<?xml version="1.0" encoding="UTF-8" standalone="no" ?>
<gpx xmlns="http://www.topografix.com/GPX/1/1" xmlns:xsi="http://www.w3.org/2001/XMLSchema-instance" xsi:schemaLocation="http://www.topografix.com/GPX/1/1 http://www.topografix.com/GPX/1/1/gpx.xsd" version="1.1" creator="VisuGPX - https://www.visugpx.com">
  <metadata>
    <name>2021 - Auvergne</name>
  </metadata>
  <trk>
    <name><![CDATA[Jour 1]]></name>
    <trkseg>
      <trkpt lat="45.77894" lon="3.08561">
        <ele>411.5</ele>
        <time>2021-08-03T13:41:39Z</time>
      </trkpt>
      <trkpt lat="45.77894" lon="3.08568">
        <ele>411.8</ele>
        <time>2021-08-03T13:41:41Z</time>
      </trkpt>
      <trkpt lat="45.77894" lon="3.08575">
        <ele>412.1</ele>
        <time>2021-08-03T13:41:43Z</time>
      </trkpt>
      <trkpt lat="45.77894" lon="3.08579">
        <ele>412.4</ele>
        <time>2021-08-03T13:41:45Z</time>
      </trkpt>
      <trkpt lat="45.77894" lon="3.08584">
        <ele>412.5</ele>
        <time>2021-08-03T13:41:47Z</time>
      </trkpt>
      <trkpt lat="45.77892" lon="3.08588">
        <ele>412.5</ele>
        <time>2021-08-03T13:41:49Z</time>
      </trkpt>
      <trkpt lat="45.77892" lon="3.08593">
        <ele>412.5</ele>
        <time>2021-08-03T13:41:51Z</time>
      </trkpt>
      <trkpt lat="45.7789" lon="3.08598">
        <ele>412.5</ele>
        <time>2021-08-03T13:41:53Z</time>
      </trkpt>
      <trkpt lat="45.77889" lon="3.08602">
        <ele>412.5</ele>
        <time>2021-08-03T13:41:55Z</time>
      </trkpt>
      <trkpt lat="45.77888" lon="3.08608">
        <ele>412.5</ele>
        <time>2021-08-03T13:41:57Z</time>
      </trkpt>
      <trkpt lat="45.77888" lon="3.08613">
        <ele>412.5</ele>
        <time>2021-08-03T13:41:59Z</time>
      </trkpt>
      <trkpt lat="45.77887" lon="3.08619">
        <ele>412.4</ele>
        <time>2021-08-03T13:42:01Z</time>
      </trkpt>
      <trkpt lat="45.77887" lon="3.08625">
        <ele>412.4</ele>
        <time>2021-08-03T13:42:03Z</time>
      </trkpt>
      <trkpt lat="45.77886" lon="3.0863">
        <ele>412.4</ele>
        <time>2021-08-03T13:42:05Z</time>
      </trkpt>
      <trkpt lat="45.77883" lon="3.08635">
        <ele>412.6</ele>
        <time>2021-08-03T13:42:07Z</time>
      </trkpt>
      <trkpt lat="45.77879" lon="3.08638">
        <ele>412.8</ele>
        <time>2021-08-03T13:42:09Z</time>
      </trkpt>
      <trkpt lat="45.77877" lon="3.08638">
        <ele>412.9</ele>
        <time>2021-08-03T13:42:11Z</time>
      </trkpt>
      <trkpt lat="45.77874" lon="3.08639">
        <ele>413.1</ele>
        <time>2021-08-03T13:42:13Z</time>
      </trkpt>
      <trkpt lat="45.77871" lon="3.08639">
        <ele>413.2</ele>
        <time>2021-08-03T13:42:15Z</time>
      </trkpt>
      <trkpt lat="45.77868" lon="3.0864">
        <ele>413.4</ele>
        <time>2021-08-03T13:42:17Z</time>
      </trkpt>
      <trkpt lat="45.77864" lon="3.0864">
        <ele>413.6</ele>
        <time>2021-08-03T13:42:19Z</time>
      </trkpt>
      <trkpt lat="45.77861" lon="3.0864">
        <ele>413.8</ele>
        <time>2021-08-03T13:42:21Z</time>
      </trkpt>
      <trkpt lat="45.7786" lon="3.0864">
        <ele>413.9</ele>
        <time>2021-08-03T13:42:23Z</time>
      </trkpt>
      <trkpt lat="45.77859" lon="3.0864">
        <ele>413.9</ele>
        <time>2021-08-03T13:42:25Z</time>
      </trkpt>
      <trkpt lat="45.77859" lon="3.08639">
        <ele>413.9</ele>
        <time>2021-08-03T13:42:27Z</time>
      </trkpt>
      <trkpt lat="45.77859" lon="3.08639">
        <ele>413.9</ele>
        <time>2021-08-03T13:42:29Z</time>
      </trkpt>
      <trkpt lat="45.77858" lon="3.08638">
        <ele>413.9</ele>
        <time>2021-08-03T13:42:31Z</time>
      </trkpt>
      <trkpt lat="45.77841" lon="3.08658">
        <ele>415.3</ele>
        <time>2021-08-03T13:43:27Z</time>
      </trkpt>
      <trkpt lat="45.77842" lon="3.08664">
        <ele>415.3</ele>
        <time>2021-08-03T13:43:29Z</time>
      </trkpt>
      <trkpt lat="45.77842" lon="3.08669">
        <ele>415.2</ele>
        <time>2021-08-03T13:43:31Z</time>
      </trkpt>
      <trkpt lat="45.77841" lon="3.08676">
        <ele>414.9</ele>
        <time>2021-08-03T13:43:33Z</time>
      </trkpt>
      <trkpt lat="45.77842" lon="3.08682">
        <ele>414.5</ele>
        <time>2021-08-03T13:43:35Z</time>
      </trkpt>
      <trkpt lat="45.77841" lon="3.08689">
        <ele>414.2</ele>
        <time>2021-08-03T13:43:37Z</time>
      </trkpt>
      <trkpt lat="45.7784" lon="3.08697">
        <ele>413.7</ele>
        <time>2021-08-03T13:43:39Z</time>
      </trkpt>
      <trkpt lat="45.7784" lon="3.08706">
        <ele>413.2</ele>
        <time>2021-08-03T13:43:41Z</time>
      </trkpt>
      <trkpt lat="45.77839" lon="3.08714">
        <ele>412.7</ele>
        <time>2021-08-03T13:43:43Z</time>
      </trkpt>
      <trkpt lat="45.77839" lon="3.08722">
        <ele>412.3</ele>
        <time>2021-08-03T13:43:45Z</time>
      </trkpt>
      <trkpt lat="45.77839" lon="3.08729">
        <ele>411.9</ele>
        <time>2021-08-03T13:43:47Z</time>
      </trkpt>
      <trkpt lat="45.77841" lon="3.08735">
        <ele>411.4</ele>
        <time>2021-08-03T13:43:49Z</time>
      </trkpt>
      <trkpt lat="45.77841" lon="3.08742">
        <ele>411</ele>
        <time>2021-08-03T13:43:51Z</time>
      </trkpt>
      <trkpt lat="45.77838" lon="3.08745">
        <ele>411</ele>
        <time>2021-08-03T13:43:53Z</time>
      </trkpt>
      <trkpt lat="45.77837" lon="3.08743">
        <ele>411.2</ele>
        <time>2021-08-03T13:43:55Z</time>
      </trkpt>
      <trkpt lat="45.77836" lon="3.08744">
        <ele>411.2</ele>
        <time>2021-08-03T13:43:57Z</time>
      </trkpt>
      <trkpt lat="45.77835" lon="3.08744">
        <ele>411.2</ele>
        <time>2021-08-03T13:43:59Z</time>
      </trkpt>
      <trkpt lat="45.77834" lon="3.08743">
        <ele>411.3</ele>
        <time>2021-08-03T13:44:01Z</time>
      </trkpt>
      <trkpt lat="45.77832" lon="3.08743">
        <ele>411.4</ele>
        <time>2021-08-03T13:44:03Z</time>
      </trkpt>
      <trkpt lat="45.77827" lon="3.08741">
        <ele>411.5</ele>
        <time>2021-08-03T13:44:05Z</time>
      </trkpt>
      <trkpt lat="45.77822" lon="3.08741">
        <ele>411.5</ele>
        <time>2021-08-03T13:44:07Z</time>
      </trkpt>
      <trkpt lat="45.77817" lon="3.08739">
        <ele>411.6</ele>
        <time>2021-08-03T13:44:09Z</time>
      </trkpt>
      <trkpt lat="45.77812" lon="3.08737">
        <ele>411.8</ele>
        <time>2021-08-03T13:44:11Z</time>
      </trkpt>
      <trkpt lat="45.77807" lon="3.08735">
        <ele>411.9</ele>
        <time>2021-08-03T13:44:13Z</time>
      </trkpt>
      <trkpt lat="45.77801" lon="3.08735">
        <ele>411.9</ele>
        <time>2021-08-03T13:44:15Z</time>
      </trkpt>
      <trkpt lat="45.77796" lon="3.08733">
        <ele>412</ele>
        <time>2021-08-03T13:44:17Z</time>
      </trkpt>
      <trkpt lat="45.77791" lon="3.0873">
        <ele>412.2</ele>
        <time>2021-08-03T13:44:19Z</time>
      </trkpt>
      <trkpt lat="45.77786" lon="3.08727">
        <ele>412.4</ele>
        <time>2021-08-03T13:44:21Z</time>
      </trkpt>
      <trkpt lat="45.77783" lon="3.08721">
        <ele>412.8</ele>
        <time>2021-08-03T13:44:23Z</time>
      </trkpt>
      <trkpt lat="45.77779" lon="3.08716">
        <ele>413</ele>
        <time>2021-08-03T13:44:25Z</time>
      </trkpt>
      <trkpt lat="45.77773" lon="3.08714">
        <ele>413.2</ele>
        <time>2021-08-03T13:44:27Z</time>
      </trkpt>
      <trkpt lat="45.7777" lon="3.08712">
        <ele>413.3</ele>
        <time>2021-08-03T13:44:29Z</time>
      </trkpt>
      <trkpt lat="45.77769" lon="3.08707">
        <ele>413.6</ele>
        <time>2021-08-03T13:44:31Z</time>
      </trkpt>
      <trkpt lat="45.77765" lon="3.08705">
        <ele>413.7</ele>
        <time>2021-08-03T13:44:33Z</time>
      </trkpt>
      <trkpt lat="45.77762" lon="3.08703">
        <ele>413.8</ele>
        <time>2021-08-03T13:44:35Z</time>
      </trkpt>
      <trkpt lat="45.77759" lon="3.08701">
        <ele>413.9</ele>
        <time>2021-08-03T13:44:37Z</time>
      </trkpt>
      <trkpt lat="45.77757" lon="3.087">
        <ele>414</ele>
        <time>2021-08-03T13:44:39Z</time>
      </trkpt>
      <trkpt lat="45.77755" lon="3.08698">
        <ele>414.1</ele>
        <time>2021-08-03T13:44:41Z</time>
      </trkpt>
      <trkpt lat="45.77752" lon="3.087">
        <ele>414</ele>
        <time>2021-08-03T13:44:43Z</time>
      </trkpt>
      <trkpt lat="45.77749" lon="3.087">
        <ele>413.9</ele>
        <time>2021-08-03T13:44:45Z</time>
      </trkpt>
      <trkpt lat="45.77747" lon="3.087">
        <ele>413.9</ele>
        <time>2021-08-03T13:44:47Z</time>
      </trkpt>
      <trkpt lat="45.77744" lon="3.08701">
        <ele>413.7</ele>
        <time>2021-08-03T13:44:49Z</time>
      </trkpt>
      <trkpt lat="45.77741" lon="3.08701">
        <ele>413.5</ele>
        <time>2021-08-03T13:44:51Z</time>
      </trkpt>
      <trkpt lat="45.77737" lon="3.08702">
        <ele>413.3</ele>
        <time>2021-08-03T13:44:53Z</time>
      </trkpt>
      <trkpt lat="45.77734" lon="3.08702">
        <ele>413.1</ele>
        <time>2021-08-03T13:44:55Z</time>
      </trkpt>
      <trkpt lat="45.7773" lon="3.08703">
        <ele>412.9</ele>
        <time>2021-08-03T13:44:57Z</time>
      </trkpt>
      <trkpt lat="45.77725" lon="3.08704">
        <ele>412.5</ele>
        <time>2021-08-03T13:44:59Z</time>
      </trkpt>
      <trkpt lat="45.77718" lon="3.08705">
        <ele>412</ele>
        <time>2021-08-03T13:45:01Z</time>
      </trkpt>
      <trkpt lat="45.77711" lon="3.08706">
        <ele>411.6</ele>
        <time>2021-08-03T13:45:03Z</time>
      </trkpt>
      <trkpt lat="45.77704" lon="3.0871">
        <ele>410.9</ele>
        <time>2021-08-03T13:45:05Z</time>
      </trkpt>
      <trkpt lat="45.77699" lon="3.08711">
        <ele>410.5</ele>
        <time>2021-08-03T13:45:07Z</time>
      </trkpt>
      <trkpt lat="45.77693" lon="3.08716">
        <ele>409.7</ele>
        <time>2021-08-03T13:45:09Z</time>
      </trkpt>
      <trkpt lat="45.77688" lon="3.0872">
        <ele>408.9</ele>
        <time>2021-08-03T13:45:11Z</time>
      </trkpt>
      <trkpt lat="45.77683" lon="3.08721">
        <ele>408.6</ele>
        <time>2021-08-03T13:45:13Z</time>
      </trkpt>
      <trkpt lat="45.77679" lon="3.08722">
        <ele>408.2</ele>
        <time>2021-08-03T13:45:15Z</time>
      </trkpt>
      <trkpt lat="45.77675" lon="3.08722">
        <ele>407.8</ele>
        <time>2021-08-03T13:45:17Z</time>
      </trkpt>
      <trkpt lat="45.7767" lon="3.08724">
        <ele>407.4</ele>
        <time>2021-08-03T13:45:19Z</time>
      </trkpt>
      <trkpt lat="45.77666" lon="3.08725">
        <ele>407</ele>
        <time>2021-08-03T13:45:21Z</time>
      </trkpt>
      <trkpt lat="45.77662" lon="3.08723">
        <ele>407.3</ele>
        <time>2021-08-03T13:45:23Z</time>
      </trkpt>
      <trkpt lat="45.77659" lon="3.08722">
        <ele>407.4</ele>
        <time>2021-08-03T13:45:25Z</time>
      </trkpt>
      <trkpt lat="45.77653" lon="3.08723">
        <ele>407.3</ele>
        <time>2021-08-03T13:45:27Z</time>
      </trkpt>
      <trkpt lat="45.77649" lon="3.0872">
        <ele>407.6</ele>
        <time>2021-08-03T13:45:29Z</time>
      </trkpt>
      <trkpt lat="45.77644" lon="3.0872">
        <ele>407.6</ele>
        <time>2021-08-03T13:45:31Z</time>
      </trkpt>
      <trkpt lat="45.77638" lon="3.08721">
        <ele>407.5</ele>
        <time>2021-08-03T13:45:33Z</time>
      </trkpt>
      <trkpt lat="45.77632" lon="3.08722">
        <ele>407.5</ele>
        <time>2021-08-03T13:45:35Z</time>
      </trkpt>
      <trkpt lat="45.77626" lon="3.08723">
        <ele>407.5</ele>
        <time>2021-08-03T13:45:37Z</time>
      </trkpt>
      <trkpt lat="45.77622" lon="3.08724">
        <ele>407.4</ele>
        <time>2021-08-03T13:45:39Z</time>
      </trkpt>
      <trkpt lat="45.77617" lon="3.08724">
        <ele>407.5</ele>
        <time>2021-08-03T13:45:41Z</time>
      </trkpt>
      <trkpt lat="45.77614" lon="3.08723">
        <ele>407.5</ele>
        <time>2021-08-03T13:45:43Z</time>
      </trkpt>
      <trkpt lat="45.77611" lon="3.08722">
        <ele>407.6</ele>
        <time>2021-08-03T13:45:45Z</time>
      </trkpt>
      <trkpt lat="45.77609" lon="3.0872">
        <ele>407.6</ele>
        <time>2021-08-03T13:45:47Z</time>
      </trkpt>
      <trkpt lat="45.7761" lon="3.08716">
        <ele>407.7</ele>
        <time>2021-08-03T13:45:49Z</time>
      </trkpt>
      <trkpt lat="45.7761" lon="3.08712">
        <ele>407.9</ele>
        <time>2021-08-03T13:45:51Z</time>
      </trkpt>
      <trkpt lat="45.7761" lon="3.08707">
        <ele>408</ele>
        <time>2021-08-03T13:45:53Z</time>
      </trkpt>
      <trkpt lat="45.77608" lon="3.08701">
        <ele>408.1</ele>
        <time>2021-08-03T13:45:55Z</time>
      </trkpt>
      <trkpt lat="45.77605" lon="3.08697">
        <ele>408.1</ele>
        <time>2021-08-03T13:45:57Z</time>
      </trkpt>
      <trkpt lat="45.776" lon="3.08697">
        <ele>408</ele>
        <time>2021-08-03T13:45:59Z</time>
      </trkpt>
      <trkpt lat="45.77596" lon="3.08698">
        <ele>407.8</ele>
        <time>2021-08-03T13:46:01Z</time>
      </trkpt>
      <trkpt lat="45.77592" lon="3.08699">
        <ele>407.7</ele>
        <time>2021-08-03T13:46:03Z</time>
      </trkpt>
      <trkpt lat="45.7759" lon="3.08701">
        <ele>407.6</ele>
        <time>2021-08-03T13:46:05Z</time>
      </trkpt>
      <trkpt lat="45.77586" lon="3.08701">
        <ele>407.5</ele>
        <time>2021-08-03T13:46:07Z</time>
      </trkpt>
      <trkpt lat="45.77583" lon="3.08693">
        <ele>407.3</ele>
        <time>2021-08-03T13:46:09Z</time>
      </trkpt>
      <trkpt lat="45.77583" lon="3.08686">
        <ele>407.2</ele>
        <time>2021-08-03T13:46:11Z</time>
      </trkpt>
      <trkpt lat="45.77579" lon="3.08682">
        <ele>407.1</ele>
        <time>2021-08-03T13:46:13Z</time>
      </trkpt>
      <trkpt lat="45.77574" lon="3.08679">
        <ele>407</ele>
        <time>2021-08-03T13:46:15Z</time>
      </trkpt>
      <trkpt lat="45.77568" lon="3.08678">
        <ele>406.9</ele>
        <time>2021-08-03T13:46:17Z</time>
      </trkpt>
      <trkpt lat="45.77562" lon="3.08678">
        <ele>406.8</ele>
        <time>2021-08-03T13:46:19Z</time>
      </trkpt>
      <trkpt lat="45.77555" lon="3.08679">
        <ele>406.8</ele>
        <time>2021-08-03T13:46:21Z</time>
      </trkpt>
      <trkpt lat="45.77547" lon="3.0868">
        <ele>406.7</ele>
        <time>2021-08-03T13:46:23Z</time>
      </trkpt>
      <trkpt lat="45.7754" lon="3.08679">
        <ele>406.5</ele>
        <time>2021-08-03T13:46:25Z</time>
      </trkpt>
      <trkpt lat="45.77534" lon="3.08677">
        <ele>406.5</ele>
        <time>2021-08-03T13:46:27Z</time>
      </trkpt>
      <trkpt lat="45.77532" lon="3.08678">
        <ele>406.4</ele>
        <time>2021-08-03T13:46:29Z</time>
      </trkpt>
      <trkpt lat="45.77532" lon="3.08678">
        <ele>406.4</ele>
        <time>2021-08-03T13:46:31Z</time>
      </trkpt>
      <trkpt lat="45.77532" lon="3.08678">
        <ele>406.4</ele>
        <time>2021-08-03T13:46:33Z</time>
      </trkpt>
      <trkpt lat="45.77532" lon="3.08678">
        <ele>406.4</ele>
        <time>2021-08-03T13:46:35Z</time>
      </trkpt>
      <trkpt lat="45.77532" lon="3.08677">
        <ele>406.4</ele>
        <time>2021-08-03T13:46:37Z</time>
      </trkpt>
      <trkpt lat="45.77516" lon="3.0869">
        <ele>406.2</ele>
        <time>2021-08-03T13:48:41Z</time>
      </trkpt>
      <trkpt lat="45.77509" lon="3.08689">
        <ele>406.1</ele>
        <time>2021-08-03T13:48:43Z</time>
      </trkpt>
      <trkpt lat="45.775" lon="3.08687">
        <ele>406</ele>
        <time>2021-08-03T13:48:45Z</time>
      </trkpt>
      <trkpt lat="45.77492" lon="3.08686">
        <ele>405.6</ele>
        <time>2021-08-03T13:48:47Z</time>
      </trkpt>
      <trkpt lat="45.77482" lon="3.08687">
        <ele>405.2</ele>
        <time>2021-08-03T13:48:49Z</time>
      </trkpt>
      <trkpt lat="45.77472" lon="3.08688">
        <ele>404.7</ele>
        <time>2021-08-03T13:48:51Z</time>
      </trkpt>
      <trkpt lat="45.77462" lon="3.08688">
        <ele>404.3</ele>
        <time>2021-08-03T13:48:53Z</time>
      </trkpt>
      <trkpt lat="45.77452" lon="3.08688">
        <ele>403.8</ele>
        <time>2021-08-03T13:48:55Z</time>
      </trkpt>
      <trkpt lat="45.77443" lon="3.08688">
        <ele>403.4</ele>
        <time>2021-08-03T13:48:57Z</time>
      </trkpt>
      <trkpt lat="45.77434" lon="3.08688">
        <ele>403</ele>
        <time>2021-08-03T13:48:59Z</time>
      </trkpt>
      <trkpt lat="45.77425" lon="3.08688">
        <ele>402.6</ele>
        <time>2021-08-03T13:49:01Z</time>
      </trkpt>
      <trkpt lat="45.77417" lon="3.0869">
        <ele>402.2</ele>
        <time>2021-08-03T13:49:03Z</time>
      </trkpt>
      <trkpt lat="45.7741" lon="3.08688">
        <ele>401.9</ele>
        <time>2021-08-03T13:49:05Z</time>
      </trkpt>
      <trkpt lat="45.77404" lon="3.08689">
        <ele>401.6</ele>
        <time>2021-08-03T13:49:07Z</time>
      </trkpt>
      <trkpt lat="45.77401" lon="3.08689">
        <ele>401.5</ele>
        <time>2021-08-03T13:49:09Z</time>
      </trkpt>
      <trkpt lat="45.774" lon="3.08688">
        <ele>401.4</ele>
        <time>2021-08-03T13:49:11Z</time>
      </trkpt>
      <trkpt lat="45.77396" lon="3.08688">
        <ele>401.2</ele>
        <time>2021-08-03T13:49:13Z</time>
      </trkpt>
      <trkpt lat="45.77391" lon="3.08688">
        <ele>401</ele>
        <time>2021-08-03T13:49:15Z</time>
      </trkpt>
      <trkpt lat="45.77385" lon="3.08685">
        <ele>400.8</ele>
        <time>2021-08-03T13:49:17Z</time>
      </trkpt>
      <trkpt lat="45.77379" lon="3.08681">
        <ele>400.6</ele>
        <time>2021-08-03T13:49:19Z</time>
      </trkpt>
      <trkpt lat="45.77372" lon="3.08682">
        <ele>400.3</ele>
        <time>2021-08-03T13:49:21Z</time>
      </trkpt>
      <trkpt lat="45.77365" lon="3.08684">
        <ele>399.9</ele>
        <time>2021-08-03T13:49:23Z</time>
      </trkpt>
      <trkpt lat="45.77357" lon="3.08688">
        <ele>399.3</ele>
        <time>2021-08-03T13:49:25Z</time>
      </trkpt>
      <trkpt lat="45.77346" lon="3.08689">
        <ele>398.8</ele>
        <time>2021-08-03T13:49:27Z</time>
      </trkpt>
      <trkpt lat="45.77334" lon="3.08689">
        <ele>398.2</ele>
        <time>2021-08-03T13:49:29Z</time>
      </trkpt>
      <trkpt lat="45.77321" lon="3.0869">
        <ele>397.7</ele>
        <time>2021-08-03T13:49:31Z</time>
      </trkpt>
      <trkpt lat="45.77307" lon="3.08689">
        <ele>397.1</ele>
        <time>2021-08-03T13:49:33Z</time>
      </trkpt>
      <trkpt lat="45.77292" lon="3.0869">
        <ele>396.5</ele>
        <time>2021-08-03T13:49:35Z</time>
      </trkpt>
      <trkpt lat="45.77276" lon="3.08691">
        <ele>395.9</ele>
        <time>2021-08-03T13:49:37Z</time>
      </trkpt>
      <trkpt lat="45.7726" lon="3.0869">
        <ele>395.3</ele>
        <time>2021-08-03T13:49:39Z</time>
      </trkpt>
      <trkpt lat="45.77246" lon="3.08691">
        <ele>394.4</ele>
        <time>2021-08-03T13:49:41Z</time>
      </trkpt>
      <trkpt lat="45.77231" lon="3.08691">
        <ele>393</ele>
        <time>2021-08-03T13:49:43Z</time>
      </trkpt>
      <trkpt lat="45.77217" lon="3.08691">
        <ele>391.8</ele>
        <time>2021-08-03T13:49:45Z</time>
      </trkpt>
      <trkpt lat="45.77203" lon="3.08692">
        <ele>390.5</ele>
        <time>2021-08-03T13:49:47Z</time>
      </trkpt>
      <trkpt lat="45.77192" lon="3.08691">
        <ele>389.4</ele>
        <time>2021-08-03T13:49:49Z</time>
      </trkpt>
      <trkpt lat="45.7718" lon="3.08691">
        <ele>388.4</ele>
        <time>2021-08-03T13:49:51Z</time>
      </trkpt>
      <trkpt lat="45.77171" lon="3.08691">
        <ele>387.5</ele>
        <time>2021-08-03T13:49:53Z</time>
      </trkpt>
      <trkpt lat="45.77163" lon="3.0869">
        <ele>387</ele>
        <time>2021-08-03T13:49:55Z</time>
      </trkpt>
      <trkpt lat="45.77156" lon="3.08692">
        <ele>386.6</ele>
        <time>2021-08-03T13:49:57Z</time>
      </trkpt>
      <trkpt lat="45.77151" lon="3.08692">
        <ele>386.3</ele>
        <time>2021-08-03T13:49:59Z</time>
      </trkpt>
      <trkpt lat="45.77147" lon="3.08693">
        <ele>386.1</ele>
        <time>2021-08-03T13:50:01Z</time>
      </trkpt>
      <trkpt lat="45.77142" lon="3.08694">
        <ele>385.9</ele>
        <time>2021-08-03T13:50:03Z</time>
      </trkpt>
      <trkpt lat="45.77139" lon="3.08694">
        <ele>385.7</ele>
        <time>2021-08-03T13:50:05Z</time>
      </trkpt>
      <trkpt lat="45.77138" lon="3.08694">
        <ele>385.6</ele>
        <time>2021-08-03T13:50:07Z</time>
      </trkpt>
      <trkpt lat="45.77137" lon="3.08694">
        <ele>385.6</ele>
        <time>2021-08-03T13:50:09Z</time>
      </trkpt>
      <trkpt lat="45.77137" lon="3.08694">
        <ele>385.6</ele>
        <time>2021-08-03T13:50:11Z</time>
      </trkpt>
      <trkpt lat="45.77137" lon="3.08694">
        <ele>385.6</ele>
        <time>2021-08-03T13:50:13Z</time>
      </trkpt>
      <trkpt lat="45.77117" lon="3.08694">
        <ele>384.6</ele>
        <time>2021-08-03T13:50:27Z</time>
      </trkpt>
      <trkpt lat="45.77106" lon="3.08694">
        <ele>384.1</ele>
        <time>2021-08-03T13:50:29Z</time>
      </trkpt>
      <trkpt lat="45.77096" lon="3.08692">
        <ele>383.7</ele>
        <time>2021-08-03T13:50:31Z</time>
      </trkpt>
      <trkpt lat="45.77087" lon="3.08688">
        <ele>383.4</ele>
        <time>2021-08-03T13:50:33Z</time>
      </trkpt>
      <trkpt lat="45.77081" lon="3.08685">
        <ele>383.3</ele>
        <time>2021-08-03T13:50:35Z</time>
      </trkpt>
      <trkpt lat="45.77077" lon="3.08686">
        <ele>383.3</ele>
        <time>2021-08-03T13:50:37Z</time>
      </trkpt>
      <trkpt lat="45.77075" lon="3.0869">
        <ele>383.1</ele>
        <time>2021-08-03T13:50:39Z</time>
      </trkpt>
      <trkpt lat="45.77075" lon="3.087">
        <ele>382.8</ele>
        <time>2021-08-03T13:50:41Z</time>
      </trkpt>
      <trkpt lat="45.77077" lon="3.08709">
        <ele>382.5</ele>
        <time>2021-08-03T13:50:43Z</time>
      </trkpt>
      <trkpt lat="45.77076" lon="3.08716">
        <ele>382.2</ele>
        <time>2021-08-03T13:50:45Z</time>
      </trkpt>
      <trkpt lat="45.77075" lon="3.08717">
        <ele>382.1</ele>
        <time>2021-08-03T13:50:47Z</time>
      </trkpt>
      <trkpt lat="45.77075" lon="3.08717">
        <ele>382.1</ele>
        <time>2021-08-03T13:50:49Z</time>
      </trkpt>
      <trkpt lat="45.77075" lon="3.08718">
        <ele>382.1</ele>
        <time>2021-08-03T13:50:51Z</time>
      </trkpt>
      <trkpt lat="45.77075" lon="3.08718">
        <ele>382.1</ele>
        <time>2021-08-03T13:50:53Z</time>
      </trkpt>
      <trkpt lat="45.77075" lon="3.08718">
        <ele>382.1</ele>
        <time>2021-08-03T13:50:55Z</time>
      </trkpt>
      <trkpt lat="45.77053" lon="3.08724">
        <ele>381.7</ele>
        <time>2021-08-03T13:51:11Z</time>
      </trkpt>
      <trkpt lat="45.77045" lon="3.08723">
        <ele>381.6</ele>
        <time>2021-08-03T13:51:13Z</time>
      </trkpt>
      <trkpt lat="45.77037" lon="3.08724">
        <ele>381.6</ele>
        <time>2021-08-03T13:51:15Z</time>
      </trkpt>
      <trkpt lat="45.77029" lon="3.08724">
        <ele>381.5</ele>
        <time>2021-08-03T13:51:17Z</time>
      </trkpt>
      <trkpt lat="45.77021" lon="3.08724">
        <ele>381.4</ele>
        <time>2021-08-03T13:51:19Z</time>
      </trkpt>
      <trkpt lat="45.77013" lon="3.08725">
        <ele>381.3</ele>
        <time>2021-08-03T13:51:21Z</time>
      </trkpt>
      <trkpt lat="45.77006" lon="3.08725">
        <ele>381.2</ele>
        <time>2021-08-03T13:51:23Z</time>
      </trkpt>
      <trkpt lat="45.77002" lon="3.08725">
        <ele>381.2</ele>
        <time>2021-08-03T13:51:25Z</time>
      </trkpt>
      <trkpt lat="45.76998" lon="3.08726">
        <ele>381.2</ele>
        <time>2021-08-03T13:51:27Z</time>
      </trkpt>
      <trkpt lat="45.76995" lon="3.08727">
        <ele>381.1</ele>
        <time>2021-08-03T13:51:29Z</time>
      </trkpt>
      <trkpt lat="45.76989" lon="3.08727">
        <ele>381.1</ele>
        <time>2021-08-03T13:51:31Z</time>
      </trkpt>
      <trkpt lat="45.76983" lon="3.08727">
        <ele>381.1</ele>
        <time>2021-08-03T13:51:33Z</time>
      </trkpt>
      <trkpt lat="45.76975" lon="3.08728">
        <ele>381.1</ele>
        <time>2021-08-03T13:51:35Z</time>
      </trkpt>
      <trkpt lat="45.76968" lon="3.0873">
        <ele>381.1</ele>
        <time>2021-08-03T13:51:37Z</time>
      </trkpt>
      <trkpt lat="45.76961" lon="3.08734">
        <ele>381</ele>
        <time>2021-08-03T13:51:39Z</time>
      </trkpt>
      <trkpt lat="45.76956" lon="3.08738">
        <ele>380.9</ele>
        <time>2021-08-03T13:51:41Z</time>
      </trkpt>
      <trkpt lat="45.76954" lon="3.08747">
        <ele>380.6</ele>
        <time>2021-08-03T13:51:43Z</time>
      </trkpt>
      <trkpt lat="45.76955" lon="3.08758">
        <ele>380.2</ele>
        <time>2021-08-03T13:51:45Z</time>
      </trkpt>
      <trkpt lat="45.76956" lon="3.08769">
        <ele>379.8</ele>
        <time>2021-08-03T13:51:47Z</time>
      </trkpt>
      <trkpt lat="45.76955" lon="3.08781">
        <ele>379.4</ele>
        <time>2021-08-03T13:51:49Z</time>
      </trkpt>
      <trkpt lat="45.76956" lon="3.08794">
        <ele>378.9</ele>
        <time>2021-08-03T13:51:51Z</time>
      </trkpt>
      <trkpt lat="45.76956" lon="3.08809">
        <ele>378.4</ele>
        <time>2021-08-03T13:51:53Z</time>
      </trkpt>
      <trkpt lat="45.76956" lon="3.08823">
        <ele>377.9</ele>
        <time>2021-08-03T13:51:55Z</time>
      </trkpt>
      <trkpt lat="45.76956" lon="3.08838">
        <ele>377.6</ele>
        <time>2021-08-03T13:51:57Z</time>
      </trkpt>
      <trkpt lat="45.76956" lon="3.08853">
        <ele>377.9</ele>
        <time>2021-08-03T13:51:59Z</time>
      </trkpt>
      <trkpt lat="45.76955" lon="3.08867">
        <ele>378.1</ele>
        <time>2021-08-03T13:52:01Z</time>
      </trkpt>
      <trkpt lat="45.76955" lon="3.08882">
        <ele>378.4</ele>
        <time>2021-08-03T13:52:03Z</time>
      </trkpt>
      <trkpt lat="45.76955" lon="3.08896">
        <ele>378.6</ele>
        <time>2021-08-03T13:52:05Z</time>
      </trkpt>
      <trkpt lat="45.76954" lon="3.0891">
        <ele>378.9</ele>
        <time>2021-08-03T13:52:07Z</time>
      </trkpt>
      <trkpt lat="45.76953" lon="3.08926">
        <ele>378.8</ele>
        <time>2021-08-03T13:52:09Z</time>
      </trkpt>
      <trkpt lat="45.76952" lon="3.08941">
        <ele>378.6</ele>
        <time>2021-08-03T13:52:11Z</time>
      </trkpt>
      <trkpt lat="45.76952" lon="3.08955">
        <ele>378.3</ele>
        <time>2021-08-03T13:52:13Z</time>
      </trkpt>
      <trkpt lat="45.76952" lon="3.08966">
        <ele>378.2</ele>
        <time>2021-08-03T13:52:15Z</time>
      </trkpt>
      <trkpt lat="45.76952" lon="3.08972">
        <ele>378.1</ele>
        <time>2021-08-03T13:52:17Z</time>
      </trkpt>
      <trkpt lat="45.76951" lon="3.08979">
        <ele>377.9</ele>
        <time>2021-08-03T13:52:19Z</time>
      </trkpt>
      <trkpt lat="45.7695" lon="3.08987">
        <ele>377.8</ele>
        <time>2021-08-03T13:52:21Z</time>
      </trkpt>
      <trkpt lat="45.76949" lon="3.08995">
        <ele>377.7</ele>
        <time>2021-08-03T13:52:23Z</time>
      </trkpt>
      <trkpt lat="45.76949" lon="3.09001">
        <ele>377.6</ele>
        <time>2021-08-03T13:52:25Z</time>
      </trkpt>
      <trkpt lat="45.76948" lon="3.09011">
        <ele>377.5</ele>
        <time>2021-08-03T13:52:27Z</time>
      </trkpt>
      <trkpt lat="45.76947" lon="3.09022">
        <ele>377.3</ele>
        <time>2021-08-03T13:52:29Z</time>
      </trkpt>
      <trkpt lat="45.76947" lon="3.09033">
        <ele>377.1</ele>
        <time>2021-08-03T13:52:31Z</time>
      </trkpt>
      <trkpt lat="45.76947" lon="3.09045">
        <ele>376.9</ele>
        <time>2021-08-03T13:52:33Z</time>
      </trkpt>
      <trkpt lat="45.76947" lon="3.09057">
        <ele>376.8</ele>
        <time>2021-08-03T13:52:35Z</time>
      </trkpt>
      <trkpt lat="45.76947" lon="3.09067">
        <ele>376.6</ele>
        <time>2021-08-03T13:52:37Z</time>
      </trkpt>
      <trkpt lat="45.76947" lon="3.09075">
        <ele>376.5</ele>
        <time>2021-08-03T13:52:39Z</time>
      </trkpt>
      <trkpt lat="45.76945" lon="3.09077">
        <ele>376.4</ele>
        <time>2021-08-03T13:52:41Z</time>
      </trkpt>
      <trkpt lat="45.76945" lon="3.09078">
        <ele>376.4</ele>
        <time>2021-08-03T13:52:43Z</time>
      </trkpt>
      <trkpt lat="45.76945" lon="3.09078">
        <ele>376.4</ele>
        <time>2021-08-03T13:52:45Z</time>
      </trkpt>
      <trkpt lat="45.76945" lon="3.09078">
        <ele>376.4</ele>
        <time>2021-08-03T13:52:47Z</time>
      </trkpt>
      <trkpt lat="45.76945" lon="3.09078">
        <ele>376.4</ele>
        <time>2021-08-03T13:52:49Z</time>
      </trkpt>
      <trkpt lat="45.7694" lon="3.09099">
        <ele>376.3</ele>
        <time>2021-08-03T13:53:21Z</time>
      </trkpt>
      <trkpt lat="45.76937" lon="3.09109">
        <ele>376.2</ele>
        <time>2021-08-03T13:53:23Z</time>
      </trkpt>
      <trkpt lat="45.76931" lon="3.09117">
        <ele>376.2</ele>
        <time>2021-08-03T13:53:25Z</time>
      </trkpt>
      <trkpt lat="45.76924" lon="3.09122">
        <ele>376.1</ele>
        <time>2021-08-03T13:53:27Z</time>
      </trkpt>
      <trkpt lat="45.76918" lon="3.09128">
        <ele>376</ele>
        <time>2021-08-03T13:53:29Z</time>
      </trkpt>
      <trkpt lat="45.76913" lon="3.09133">
        <ele>376.1</ele>
        <time>2021-08-03T13:53:31Z</time>
      </trkpt>
      <trkpt lat="45.76907" lon="3.09139">
        <ele>376.2</ele>
        <time>2021-08-03T13:53:33Z</time>
      </trkpt>
      <trkpt lat="45.769" lon="3.09145">
        <ele>376.3</ele>
        <time>2021-08-03T13:53:35Z</time>
      </trkpt>
      <trkpt lat="45.76893" lon="3.09152">
        <ele>376.5</ele>
        <time>2021-08-03T13:53:37Z</time>
      </trkpt>
      <trkpt lat="45.76887" lon="3.09158">
        <ele>376.7</ele>
        <time>2021-08-03T13:53:39Z</time>
      </trkpt>
      <trkpt lat="45.7688" lon="3.09166">
        <ele>376.9</ele>
        <time>2021-08-03T13:53:41Z</time>
      </trkpt>
      <trkpt lat="45.76874" lon="3.09174">
        <ele>377.2</ele>
        <time>2021-08-03T13:53:43Z</time>
      </trkpt>
      <trkpt lat="45.76867" lon="3.09182">
        <ele>377.5</ele>
        <time>2021-08-03T13:53:45Z</time>
      </trkpt>
      <trkpt lat="45.7686" lon="3.0919">
        <ele>377.9</ele>
        <time>2021-08-03T13:53:47Z</time>
      </trkpt>
      <trkpt lat="45.76854" lon="3.09199">
        <ele>378.4</ele>
        <time>2021-08-03T13:53:49Z</time>
      </trkpt>
      <trkpt lat="45.76848" lon="3.09208">
        <ele>378.9</ele>
        <time>2021-08-03T13:53:51Z</time>
      </trkpt>
      <trkpt lat="45.76842" lon="3.09216">
        <ele>379.4</ele>
        <time>2021-08-03T13:53:53Z</time>
      </trkpt>
      <trkpt lat="45.76836" lon="3.09223">
        <ele>379.9</ele>
        <time>2021-08-03T13:53:55Z</time>
      </trkpt>
      <trkpt lat="45.76831" lon="3.09228">
        <ele>380.6</ele>
        <time>2021-08-03T13:53:57Z</time>
      </trkpt>
      <trkpt lat="45.76826" lon="3.09234">
        <ele>381.9</ele>
        <time>2021-08-03T13:53:59Z</time>
      </trkpt>
      <trkpt lat="45.76823" lon="3.09241">
        <ele>382.8</ele>
        <time>2021-08-03T13:54:01Z</time>
      </trkpt>
      <trkpt lat="45.76826" lon="3.09249">
        <ele>382.6</ele>
        <time>2021-08-03T13:54:03Z</time>
      </trkpt>
      <trkpt lat="45.76828" lon="3.09255">
        <ele>382.4</ele>
        <time>2021-08-03T13:54:05Z</time>
      </trkpt>
      <trkpt lat="45.76829" lon="3.09264">
        <ele>382.4</ele>
        <time>2021-08-03T13:54:07Z</time>
      </trkpt>
      <trkpt lat="45.76831" lon="3.09273">
        <ele>382.4</ele>
        <time>2021-08-03T13:54:09Z</time>
      </trkpt>
      <trkpt lat="45.76832" lon="3.09281">
        <ele>382.4</ele>
        <time>2021-08-03T13:54:11Z</time>
      </trkpt>
      <trkpt lat="45.76834" lon="3.0929">
        <ele>382.4</ele>
        <time>2021-08-03T13:54:13Z</time>
      </trkpt>
      <trkpt lat="45.76835" lon="3.09299">
        <ele>382.6</ele>
        <time>2021-08-03T13:54:15Z</time>
      </trkpt>
      <trkpt lat="45.76836" lon="3.09308">
        <ele>382.8</ele>
        <time>2021-08-03T13:54:17Z</time>
      </trkpt>
      <trkpt lat="45.76838" lon="3.09316">
        <ele>382.9</ele>
        <time>2021-08-03T13:54:19Z</time>
      </trkpt>
      <trkpt lat="45.76839" lon="3.09325">
        <ele>383.1</ele>
        <time>2021-08-03T13:54:21Z</time>
      </trkpt>
      <trkpt lat="45.76839" lon="3.09333">
        <ele>383.3</ele>
        <time>2021-08-03T13:54:23Z</time>
      </trkpt>
      <trkpt lat="45.7684" lon="3.09342">
        <ele>384.3</ele>
        <time>2021-08-03T13:54:25Z</time>
      </trkpt>
      <trkpt lat="45.7684" lon="3.09351">
        <ele>385.5</ele>
        <time>2021-08-03T13:54:27Z</time>
      </trkpt>
      <trkpt lat="45.7684" lon="3.09359">
        <ele>386.6</ele>
        <time>2021-08-03T13:54:29Z</time>
      </trkpt>
      <trkpt lat="45.76839" lon="3.09368">
        <ele>387.9</ele>
        <time>2021-08-03T13:54:31Z</time>
      </trkpt>
      <trkpt lat="45.76838" lon="3.09376">
        <ele>389.1</ele>
        <time>2021-08-03T13:54:33Z</time>
      </trkpt>
      <trkpt lat="45.76837" lon="3.09385">
        <ele>390.3</ele>
        <time>2021-08-03T13:54:35Z</time>
      </trkpt>
      <trkpt lat="45.76837" lon="3.09393">
        <ele>391.5</ele>
        <time>2021-08-03T13:54:37Z</time>
      </trkpt>
      <trkpt lat="45.76836" lon="3.09401">
        <ele>392.5</ele>
        <time>2021-08-03T13:54:39Z</time>
      </trkpt>
      <trkpt lat="45.76836" lon="3.09407">
        <ele>393.4</ele>
        <time>2021-08-03T13:54:41Z</time>
      </trkpt>
      <trkpt lat="45.76835" lon="3.09414">
        <ele>394.4</ele>
        <time>2021-08-03T13:54:43Z</time>
      </trkpt>
      <trkpt lat="45.76835" lon="3.0942">
        <ele>395</ele>
        <time>2021-08-03T13:54:45Z</time>
      </trkpt>
      <trkpt lat="45.76834" lon="3.09426">
        <ele>395.4</ele>
        <time>2021-08-03T13:54:47Z</time>
      </trkpt>
      <trkpt lat="45.76833" lon="3.09432">
        <ele>395.7</ele>
        <time>2021-08-03T13:54:49Z</time>
      </trkpt>
      <trkpt lat="45.76834" lon="3.09439">
        <ele>396</ele>
        <time>2021-08-03T13:54:51Z</time>
      </trkpt>
      <trkpt lat="45.76833" lon="3.09445">
        <ele>396.4</ele>
        <time>2021-08-03T13:54:53Z</time>
      </trkpt>
      <trkpt lat="45.76833" lon="3.09451">
        <ele>396.7</ele>
        <time>2021-08-03T13:54:55Z</time>
      </trkpt>
      <trkpt lat="45.76833" lon="3.09458">
        <ele>397.1</ele>
        <time>2021-08-03T13:54:57Z</time>
      </trkpt>
      <trkpt lat="45.76833" lon="3.09465">
        <ele>397.4</ele>
        <time>2021-08-03T13:54:59Z</time>
      </trkpt>
      <trkpt lat="45.76833" lon="3.09471">
        <ele>397.7</ele>
        <time>2021-08-03T13:55:01Z</time>
      </trkpt>
      <trkpt lat="45.76832" lon="3.09476">
        <ele>398</ele>
        <time>2021-08-03T13:55:03Z</time>
      </trkpt>
      <trkpt lat="45.76832" lon="3.09482">
        <ele>398.3</ele>
        <time>2021-08-03T13:55:05Z</time>
      </trkpt>
      <trkpt lat="45.76831" lon="3.09486">
        <ele>398.5</ele>
        <time>2021-08-03T13:55:07Z</time>
      </trkpt>
      <trkpt lat="45.76831" lon="3.09491">
        <ele>398.8</ele>
        <time>2021-08-03T13:55:09Z</time>
      </trkpt>
      <trkpt lat="45.76831" lon="3.09496">
        <ele>399</ele>
        <time>2021-08-03T13:55:11Z</time>
      </trkpt>
      <trkpt lat="45.76831" lon="3.09501">
        <ele>399.2</ele>
        <time>2021-08-03T13:55:13Z</time>
      </trkpt>
      <trkpt lat="45.7683" lon="3.09505">
        <ele>399.3</ele>
        <time>2021-08-03T13:55:15Z</time>
      </trkpt>
      <trkpt lat="45.7683" lon="3.09509">
        <ele>399.4</ele>
        <time>2021-08-03T13:55:17Z</time>
      </trkpt>
      <trkpt lat="45.7683" lon="3.09513">
        <ele>399.5</ele>
        <time>2021-08-03T13:55:19Z</time>
      </trkpt>
      <trkpt lat="45.7683" lon="3.09516">
        <ele>399.6</ele>
        <time>2021-08-03T13:55:21Z</time>
      </trkpt>
      <trkpt lat="45.7683" lon="3.09516">
        <ele>399.5</ele>
        <time>2021-08-03T13:55:23Z</time>
      </trkpt>
      <trkpt lat="45.7683" lon="3.09515">
        <ele>399.5</ele>
        <time>2021-08-03T13:55:25Z</time>
      </trkpt>
      <trkpt lat="45.7683" lon="3.09515">
        <ele>399.5</ele>
        <time>2021-08-03T13:55:27Z</time>
      </trkpt>
      <trkpt lat="45.7683" lon="3.09515">
        <ele>399.5</ele>
        <time>2021-08-03T13:55:29Z</time>
      </trkpt>
      <trkpt lat="45.7682" lon="3.09528">
        <ele>400.3</ele>
        <time>2021-08-03T13:55:51Z</time>
      </trkpt>
      <trkpt lat="45.76815" lon="3.09532">
        <ele>400.5</ele>
        <time>2021-08-03T13:55:53Z</time>
      </trkpt>
      <trkpt lat="45.7681" lon="3.09536">
        <ele>400.8</ele>
        <time>2021-08-03T13:55:55Z</time>
      </trkpt>
      <trkpt lat="45.76806" lon="3.0954">
        <ele>401</ele>
        <time>2021-08-03T13:55:57Z</time>
      </trkpt>
      <trkpt lat="45.76801" lon="3.09544">
        <ele>401.2</ele>
        <time>2021-08-03T13:55:59Z</time>
      </trkpt>
      <trkpt lat="45.76796" lon="3.09547">
        <ele>401.3</ele>
        <time>2021-08-03T13:56:01Z</time>
      </trkpt>
      <trkpt lat="45.76792" lon="3.09551">
        <ele>401.5</ele>
        <time>2021-08-03T13:56:03Z</time>
      </trkpt>
      <trkpt lat="45.76787" lon="3.09555">
        <ele>401.6</ele>
        <time>2021-08-03T13:56:05Z</time>
      </trkpt>
      <trkpt lat="45.76783" lon="3.09558">
        <ele>401.7</ele>
        <time>2021-08-03T13:56:07Z</time>
      </trkpt>
      <trkpt lat="45.76778" lon="3.09561">
        <ele>401.8</ele>
        <time>2021-08-03T13:56:09Z</time>
      </trkpt>
      <trkpt lat="45.76774" lon="3.09565">
        <ele>401.9</ele>
        <time>2021-08-03T13:56:11Z</time>
      </trkpt>
      <trkpt lat="45.76769" lon="3.09567">
        <ele>402</ele>
        <time>2021-08-03T13:56:13Z</time>
      </trkpt>
      <trkpt lat="45.76764" lon="3.0957">
        <ele>402</ele>
        <time>2021-08-03T13:56:15Z</time>
      </trkpt>
      <trkpt lat="45.76759" lon="3.09573">
        <ele>402.1</ele>
        <time>2021-08-03T13:56:17Z</time>
      </trkpt>
      <trkpt lat="45.76754" lon="3.09576">
        <ele>402.1</ele>
        <time>2021-08-03T13:56:19Z</time>
      </trkpt>
      <trkpt lat="45.76749" lon="3.09578">
        <ele>402.1</ele>
        <time>2021-08-03T13:56:21Z</time>
      </trkpt>
      <trkpt lat="45.76744" lon="3.09581">
        <ele>402.2</ele>
        <time>2021-08-03T13:56:23Z</time>
      </trkpt>
      <trkpt lat="45.76739" lon="3.09584">
        <ele>402.3</ele>
        <time>2021-08-03T13:56:25Z</time>
      </trkpt>
      <trkpt lat="45.76733" lon="3.09585">
        <ele>402.4</ele>
        <time>2021-08-03T13:56:27Z</time>
      </trkpt>
      <trkpt lat="45.76728" lon="3.09587">
        <ele>402.5</ele>
        <time>2021-08-03T13:56:29Z</time>
      </trkpt>
      <trkpt lat="45.76723" lon="3.09589">
        <ele>402.6</ele>
        <time>2021-08-03T13:56:31Z</time>
      </trkpt>
      <trkpt lat="45.76718" lon="3.09591">
        <ele>402.7</ele>
        <time>2021-08-03T13:56:33Z</time>
      </trkpt>
      <trkpt lat="45.76713" lon="3.09592">
        <ele>402.8</ele>
        <time>2021-08-03T13:56:35Z</time>
      </trkpt>
      <trkpt lat="45.76708" lon="3.09594">
        <ele>402.9</ele>
        <time>2021-08-03T13:56:37Z</time>
      </trkpt>
      <trkpt lat="45.76703" lon="3.09595">
        <ele>403</ele>
        <time>2021-08-03T13:56:39Z</time>
      </trkpt>
      <trkpt lat="45.76698" lon="3.09597">
        <ele>403.2</ele>
        <time>2021-08-03T13:56:41Z</time>
      </trkpt>
      <trkpt lat="45.76693" lon="3.09598">
        <ele>403.3</ele>
        <time>2021-08-03T13:56:43Z</time>
      </trkpt>
      <trkpt lat="45.76687" lon="3.09601">
        <ele>403.4</ele>
        <time>2021-08-03T13:56:45Z</time>
      </trkpt>
      <trkpt lat="45.76681" lon="3.09604">
        <ele>403.5</ele>
        <time>2021-08-03T13:56:47Z</time>
      </trkpt>
      <trkpt lat="45.76676" lon="3.09602">
        <ele>403.6</ele>
        <time>2021-08-03T13:56:49Z</time>
      </trkpt>
      <trkpt lat="45.76672" lon="3.09595">
        <ele>403.7</ele>
        <time>2021-08-03T13:56:51Z</time>
      </trkpt>
      <trkpt lat="45.76669" lon="3.09588">
        <ele>403.9</ele>
        <time>2021-08-03T13:56:53Z</time>
      </trkpt>
      <trkpt lat="45.76665" lon="3.09581">
        <ele>404.1</ele>
        <time>2021-08-03T13:56:55Z</time>
      </trkpt>
      <trkpt lat="45.7666" lon="3.09574">
        <ele>404.3</ele>
        <time>2021-08-03T13:56:57Z</time>
      </trkpt>
      <trkpt lat="45.76656" lon="3.09568">
        <ele>404.6</ele>
        <time>2021-08-03T13:56:59Z</time>
      </trkpt>
      <trkpt lat="45.76653" lon="3.09561">
        <ele>404.8</ele>
        <time>2021-08-03T13:57:01Z</time>
      </trkpt>
      <trkpt lat="45.76648" lon="3.09554">
        <ele>405</ele>
        <time>2021-08-03T13:57:03Z</time>
      </trkpt>
      <trkpt lat="45.76644" lon="3.09547">
        <ele>405.2</ele>
        <time>2021-08-03T13:57:05Z</time>
      </trkpt>
      <trkpt lat="45.76639" lon="3.0954">
        <ele>405.4</ele>
        <time>2021-08-03T13:57:07Z</time>
      </trkpt>
      <trkpt lat="45.76635" lon="3.09533">
        <ele>405.5</ele>
        <time>2021-08-03T13:57:09Z</time>
      </trkpt>
      <trkpt lat="45.7663" lon="3.09526">
        <ele>405.6</ele>
        <time>2021-08-03T13:57:11Z</time>
      </trkpt>
      <trkpt lat="45.76627" lon="3.09519">
        <ele>405.8</ele>
        <time>2021-08-03T13:57:13Z</time>
      </trkpt>
      <trkpt lat="45.76622" lon="3.09512">
        <ele>405.9</ele>
        <time>2021-08-03T13:57:15Z</time>
      </trkpt>
      <trkpt lat="45.76618" lon="3.09504">
        <ele>406</ele>
        <time>2021-08-03T13:57:17Z</time>
      </trkpt>
      <trkpt lat="45.76613" lon="3.09498">
        <ele>406.1</ele>
        <time>2021-08-03T13:57:19Z</time>
      </trkpt>
      <trkpt lat="45.76609" lon="3.0949">
        <ele>406.4</ele>
        <time>2021-08-03T13:57:21Z</time>
      </trkpt>
      <trkpt lat="45.76604" lon="3.09483">
        <ele>406.7</ele>
        <time>2021-08-03T13:57:23Z</time>
      </trkpt>
      <trkpt lat="45.766" lon="3.09477">
        <ele>407</ele>
        <time>2021-08-03T13:57:25Z</time>
      </trkpt>
      <trkpt lat="45.76595" lon="3.09469">
        <ele>407.2</ele>
        <time>2021-08-03T13:57:27Z</time>
      </trkpt>
      <trkpt lat="45.76591" lon="3.09463">
        <ele>407.4</ele>
        <time>2021-08-03T13:57:29Z</time>
      </trkpt>
      <trkpt lat="45.76587" lon="3.09456">
        <ele>407.6</ele>
        <time>2021-08-03T13:57:31Z</time>
      </trkpt>
      <trkpt lat="45.76584" lon="3.09451">
        <ele>407.8</ele>
        <time>2021-08-03T13:57:33Z</time>
      </trkpt>
      <trkpt lat="45.76581" lon="3.09448">
        <ele>407.9</ele>
        <time>2021-08-03T13:57:35Z</time>
      </trkpt>
      <trkpt lat="45.76578" lon="3.09446">
        <ele>407.9</ele>
        <time>2021-08-03T13:57:37Z</time>
      </trkpt>
      <trkpt lat="45.76573" lon="3.09449">
        <ele>407.8</ele>
        <time>2021-08-03T13:57:39Z</time>
      </trkpt>
      <trkpt lat="45.76567" lon="3.09453">
        <ele>407.7</ele>
        <time>2021-08-03T13:57:41Z</time>
      </trkpt>
      <trkpt lat="45.76561" lon="3.09456">
        <ele>407.7</ele>
        <time>2021-08-03T13:57:43Z</time>
      </trkpt>
      <trkpt lat="45.76555" lon="3.0946">
        <ele>407.6</ele>
        <time>2021-08-03T13:57:45Z</time>
      </trkpt>
      <trkpt lat="45.76548" lon="3.09464">
        <ele>407.6</ele>
        <time>2021-08-03T13:57:47Z</time>
      </trkpt>
      <trkpt lat="45.76541" lon="3.09468">
        <ele>407.6</ele>
        <time>2021-08-03T13:57:49Z</time>
      </trkpt>
      <trkpt lat="45.76534" lon="3.09472">
        <ele>407.6</ele>
        <time>2021-08-03T13:57:51Z</time>
      </trkpt>
      <trkpt lat="45.76527" lon="3.09475">
        <ele>407.6</ele>
        <time>2021-08-03T13:57:53Z</time>
      </trkpt>
      <trkpt lat="45.76521" lon="3.09479">
        <ele>407.7</ele>
        <time>2021-08-03T13:57:55Z</time>
      </trkpt>
      <trkpt lat="45.76514" lon="3.09482">
        <ele>407.8</ele>
        <time>2021-08-03T13:57:57Z</time>
      </trkpt>
      <trkpt lat="45.76507" lon="3.09486">
        <ele>407.9</ele>
        <time>2021-08-03T13:57:59Z</time>
      </trkpt>
      <trkpt lat="45.765" lon="3.09489">
        <ele>408</ele>
        <time>2021-08-03T13:58:01Z</time>
      </trkpt>
      <trkpt lat="45.76494" lon="3.09493">
        <ele>408.1</ele>
        <time>2021-08-03T13:58:03Z</time>
      </trkpt>
      <trkpt lat="45.76487" lon="3.09496">
        <ele>408.2</ele>
        <time>2021-08-03T13:58:05Z</time>
      </trkpt>
      <trkpt lat="45.76481" lon="3.095">
        <ele>408.2</ele>
        <time>2021-08-03T13:58:07Z</time>
      </trkpt>
      <trkpt lat="45.76476" lon="3.09502">
        <ele>408.3</ele>
        <time>2021-08-03T13:58:09Z</time>
      </trkpt>
      <trkpt lat="45.76471" lon="3.09505">
        <ele>408.3</ele>
        <time>2021-08-03T13:58:11Z</time>
      </trkpt>
      <trkpt lat="45.76465" lon="3.09508">
        <ele>408.3</ele>
        <time>2021-08-03T13:58:13Z</time>
      </trkpt>
      <trkpt lat="45.76458" lon="3.09513">
        <ele>408.4</ele>
        <time>2021-08-03T13:58:15Z</time>
      </trkpt>
      <trkpt lat="45.7645" lon="3.09518">
        <ele>408.4</ele>
        <time>2021-08-03T13:58:17Z</time>
      </trkpt>
      <trkpt lat="45.76442" lon="3.09522">
        <ele>408.4</ele>
        <time>2021-08-03T13:58:19Z</time>
      </trkpt>
      <trkpt lat="45.76434" lon="3.09527">
        <ele>408.5</ele>
        <time>2021-08-03T13:58:21Z</time>
      </trkpt>
      <trkpt lat="45.76427" lon="3.09531">
        <ele>408.5</ele>
        <time>2021-08-03T13:58:23Z</time>
      </trkpt>
      <trkpt lat="45.76419" lon="3.09534">
        <ele>408.6</ele>
        <time>2021-08-03T13:58:25Z</time>
      </trkpt>
      <trkpt lat="45.76411" lon="3.09539">
        <ele>408.4</ele>
        <time>2021-08-03T13:58:27Z</time>
      </trkpt>
      <trkpt lat="45.76404" lon="3.09543">
        <ele>408.2</ele>
        <time>2021-08-03T13:58:29Z</time>
      </trkpt>
      <trkpt lat="45.76396" lon="3.09547">
        <ele>408</ele>
        <time>2021-08-03T13:58:31Z</time>
      </trkpt>
      <trkpt lat="45.7639" lon="3.09552">
        <ele>407.9</ele>
        <time>2021-08-03T13:58:33Z</time>
      </trkpt>
      <trkpt lat="45.76381" lon="3.09555">
        <ele>407.6</ele>
        <time>2021-08-03T13:58:35Z</time>
      </trkpt>
      <trkpt lat="45.76374" lon="3.09558">
        <ele>407.4</ele>
        <time>2021-08-03T13:58:37Z</time>
      </trkpt>
      <trkpt lat="45.76367" lon="3.09562">
        <ele>407.2</ele>
        <time>2021-08-03T13:58:39Z</time>
      </trkpt>
      <trkpt lat="45.76359" lon="3.09567">
        <ele>407</ele>
        <time>2021-08-03T13:58:41Z</time>
      </trkpt>
      <trkpt lat="45.7635" lon="3.09571">
        <ele>406.7</ele>
        <time>2021-08-03T13:58:43Z</time>
      </trkpt>
      <trkpt lat="45.76341" lon="3.09576">
        <ele>406.4</ele>
        <time>2021-08-03T13:58:45Z</time>
      </trkpt>
      <trkpt lat="45.76332" lon="3.09582">
        <ele>406</ele>
        <time>2021-08-03T13:58:47Z</time>
      </trkpt>
      <trkpt lat="45.76322" lon="3.09587">
        <ele>405.9</ele>
        <time>2021-08-03T13:58:49Z</time>
      </trkpt>
      <trkpt lat="45.76311" lon="3.09593">
        <ele>405.6</ele>
        <time>2021-08-03T13:58:51Z</time>
      </trkpt>
      <trkpt lat="45.76301" lon="3.09599">
        <ele>405.4</ele>
        <time>2021-08-03T13:58:53Z</time>
      </trkpt>
      <trkpt lat="45.76292" lon="3.09603">
        <ele>405.2</ele>
        <time>2021-08-03T13:58:55Z</time>
      </trkpt>
      <trkpt lat="45.76287" lon="3.09606">
        <ele>405</ele>
        <time>2021-08-03T13:58:57Z</time>
      </trkpt>
      <trkpt lat="45.76281" lon="3.09609">
        <ele>404.9</ele>
        <time>2021-08-03T13:58:59Z</time>
      </trkpt>
      <trkpt lat="45.76274" lon="3.09613">
        <ele>404.7</ele>
        <time>2021-08-03T13:59:01Z</time>
      </trkpt>
      <trkpt lat="45.76266" lon="3.09618">
        <ele>404.4</ele>
        <time>2021-08-03T13:59:03Z</time>
      </trkpt>
      <trkpt lat="45.76258" lon="3.09622">
        <ele>404.2</ele>
        <time>2021-08-03T13:59:05Z</time>
      </trkpt>
      <trkpt lat="45.7625" lon="3.09627">
        <ele>403.9</ele>
        <time>2021-08-03T13:59:07Z</time>
      </trkpt>
      <trkpt lat="45.76243" lon="3.09631">
        <ele>404</ele>
        <time>2021-08-03T13:59:09Z</time>
      </trkpt>
      <trkpt lat="45.76238" lon="3.09634">
        <ele>404.1</ele>
        <time>2021-08-03T13:59:11Z</time>
      </trkpt>
      <trkpt lat="45.76234" lon="3.09633">
        <ele>404.2</ele>
        <time>2021-08-03T13:59:13Z</time>
      </trkpt>
      <trkpt lat="45.76229" lon="3.09637">
        <ele>404.3</ele>
        <time>2021-08-03T13:59:15Z</time>
      </trkpt>
      <trkpt lat="45.76221" lon="3.09641">
        <ele>404.4</ele>
        <time>2021-08-03T13:59:17Z</time>
      </trkpt>
      <trkpt lat="45.76213" lon="3.09646">
        <ele>404.4</ele>
        <time>2021-08-03T13:59:19Z</time>
      </trkpt>
      <trkpt lat="45.76205" lon="3.0965">
        <ele>404.5</ele>
        <time>2021-08-03T13:59:21Z</time>
      </trkpt>
      <trkpt lat="45.76198" lon="3.09655">
        <ele>404.6</ele>
        <time>2021-08-03T13:59:23Z</time>
      </trkpt>
      <trkpt lat="45.7619" lon="3.0966">
        <ele>404.6</ele>
        <time>2021-08-03T13:59:25Z</time>
      </trkpt>
      <trkpt lat="45.76182" lon="3.09665">
        <ele>404.5</ele>
        <time>2021-08-03T13:59:27Z</time>
      </trkpt>
      <trkpt lat="45.76173" lon="3.0967">
        <ele>404.7</ele>
        <time>2021-08-03T13:59:29Z</time>
      </trkpt>
      <trkpt lat="45.76164" lon="3.09675">
        <ele>405.1</ele>
        <time>2021-08-03T13:59:31Z</time>
      </trkpt>
      <trkpt lat="45.76155" lon="3.09679">
        <ele>405.7</ele>
        <time>2021-08-03T13:59:33Z</time>
      </trkpt>
      <trkpt lat="45.76147" lon="3.09683">
        <ele>406.3</ele>
        <time>2021-08-03T13:59:35Z</time>
      </trkpt>
      <trkpt lat="45.76138" lon="3.09688">
        <ele>406.9</ele>
        <time>2021-08-03T13:59:37Z</time>
      </trkpt>
      <trkpt lat="45.76129" lon="3.09692">
        <ele>407.4</ele>
        <time>2021-08-03T13:59:39Z</time>
      </trkpt>
      <trkpt lat="45.76121" lon="3.09697">
        <ele>407.9</ele>
        <time>2021-08-03T13:59:41Z</time>
      </trkpt>
      <trkpt lat="45.76112" lon="3.09702">
        <ele>408.3</ele>
        <time>2021-08-03T13:59:43Z</time>
      </trkpt>
      <trkpt lat="45.76103" lon="3.09707">
        <ele>408.8</ele>
        <time>2021-08-03T13:59:45Z</time>
      </trkpt>
      <trkpt lat="45.76095" lon="3.09711">
        <ele>409.1</ele>
        <time>2021-08-03T13:59:47Z</time>
      </trkpt>
      <trkpt lat="45.76086" lon="3.09715">
        <ele>409.5</ele>
        <time>2021-08-03T13:59:49Z</time>
      </trkpt>
      <trkpt lat="45.76079" lon="3.0972">
        <ele>409.6</ele>
        <time>2021-08-03T13:59:51Z</time>
      </trkpt>
      <trkpt lat="45.76071" lon="3.09723">
        <ele>409.6</ele>
        <time>2021-08-03T13:59:53Z</time>
      </trkpt>
      <trkpt lat="45.76064" lon="3.09728">
        <ele>409.5</ele>
        <time>2021-08-03T13:59:55Z</time>
      </trkpt>
      <trkpt lat="45.76057" lon="3.09731">
        <ele>409.6</ele>
        <time>2021-08-03T13:59:57Z</time>
      </trkpt>
      <trkpt lat="45.76049" lon="3.09735">
        <ele>409.5</ele>
        <time>2021-08-03T13:59:59Z</time>
      </trkpt>
      <trkpt lat="45.76043" lon="3.09739">
        <ele>409.5</ele>
        <time>2021-08-03T14:00:01Z</time>
      </trkpt>
      <trkpt lat="45.76036" lon="3.09741">
        <ele>409.6</ele>
        <time>2021-08-03T14:00:03Z</time>
      </trkpt>
      <trkpt lat="45.7603" lon="3.09744">
        <ele>409.6</ele>
        <time>2021-08-03T14:00:05Z</time>
      </trkpt>
      <trkpt lat="45.76025" lon="3.09747">
        <ele>409.6</ele>
        <time>2021-08-03T14:00:07Z</time>
      </trkpt>
      <trkpt lat="45.76019" lon="3.09751">
        <ele>409.5</ele>
        <time>2021-08-03T14:00:09Z</time>
      </trkpt>
      <trkpt lat="45.76012" lon="3.09754">
        <ele>409.5</ele>
        <time>2021-08-03T14:00:11Z</time>
      </trkpt>
      <trkpt lat="45.76004" lon="3.09759">
        <ele>409.6</ele>
        <time>2021-08-03T14:00:13Z</time>
      </trkpt>
      <trkpt lat="45.75996" lon="3.09762">
        <ele>409.5</ele>
        <time>2021-08-03T14:00:15Z</time>
      </trkpt>
      <trkpt lat="45.75987" lon="3.09767">
        <ele>409.2</ele>
        <time>2021-08-03T14:00:17Z</time>
      </trkpt>
      <trkpt lat="45.75978" lon="3.09771">
        <ele>409</ele>
        <time>2021-08-03T14:00:19Z</time>
      </trkpt>
      <trkpt lat="45.7597" lon="3.09775">
        <ele>408.7</ele>
        <time>2021-08-03T14:00:21Z</time>
      </trkpt>
      <trkpt lat="45.75961" lon="3.0978">
        <ele>408.5</ele>
        <time>2021-08-03T14:00:23Z</time>
      </trkpt>
      <trkpt lat="45.75952" lon="3.09784">
        <ele>408.2</ele>
        <time>2021-08-03T14:00:25Z</time>
      </trkpt>
      <trkpt lat="45.75943" lon="3.09788">
        <ele>407.9</ele>
        <time>2021-08-03T14:00:27Z</time>
      </trkpt>
      <trkpt lat="45.75935" lon="3.09793">
        <ele>407.7</ele>
        <time>2021-08-03T14:00:29Z</time>
      </trkpt>
      <trkpt lat="45.75927" lon="3.09797">
        <ele>407.4</ele>
        <time>2021-08-03T14:00:31Z</time>
      </trkpt>
      <trkpt lat="45.75919" lon="3.09801">
        <ele>407.2</ele>
        <time>2021-08-03T14:00:33Z</time>
      </trkpt>
      <trkpt lat="45.75914" lon="3.09804">
        <ele>407</ele>
        <time>2021-08-03T14:00:35Z</time>
      </trkpt>
      <trkpt lat="45.7591" lon="3.09808">
        <ele>406.6</ele>
        <time>2021-08-03T14:00:37Z</time>
      </trkpt>
      <trkpt lat="45.75904" lon="3.09814">
        <ele>406.2</ele>
        <time>2021-08-03T14:00:39Z</time>
      </trkpt>
      <trkpt lat="45.75897" lon="3.0982">
        <ele>405.7</ele>
        <time>2021-08-03T14:00:41Z</time>
      </trkpt>
      <trkpt lat="45.75891" lon="3.09827">
        <ele>405</ele>
        <time>2021-08-03T14:00:43Z</time>
      </trkpt>
      <trkpt lat="45.75884" lon="3.09834">
        <ele>404.4</ele>
        <time>2021-08-03T14:00:45Z</time>
      </trkpt>
      <trkpt lat="45.75878" lon="3.09842">
        <ele>403.9</ele>
        <time>2021-08-03T14:00:47Z</time>
      </trkpt>
      <trkpt lat="45.75872" lon="3.09849">
        <ele>403.4</ele>
        <time>2021-08-03T14:00:49Z</time>
      </trkpt>
      <trkpt lat="45.75865" lon="3.09858">
        <ele>402.9</ele>
        <time>2021-08-03T14:00:51Z</time>
      </trkpt>
      <trkpt lat="45.75858" lon="3.09865">
        <ele>402.5</ele>
        <time>2021-08-03T14:00:53Z</time>
      </trkpt>
      <trkpt lat="45.75852" lon="3.09869">
        <ele>402.2</ele>
        <time>2021-08-03T14:00:55Z</time>
      </trkpt>
      <trkpt lat="45.75848" lon="3.09874">
        <ele>401.9</ele>
        <time>2021-08-03T14:00:57Z</time>
      </trkpt>
      <trkpt lat="45.75846" lon="3.09876">
        <ele>401.8</ele>
        <time>2021-08-03T14:00:59Z</time>
      </trkpt>
      <trkpt lat="45.75845" lon="3.09885">
        <ele>401.7</ele>
        <time>2021-08-03T14:01:01Z</time>
      </trkpt>
      <trkpt lat="45.7585" lon="3.09894">
        <ele>401.7</ele>
        <time>2021-08-03T14:01:03Z</time>
      </trkpt>
      <trkpt lat="45.75856" lon="3.09903">
        <ele>401.6</ele>
        <time>2021-08-03T14:01:05Z</time>
      </trkpt>
      <trkpt lat="45.75858" lon="3.09917">
        <ele>401.3</ele>
        <time>2021-08-03T14:01:07Z</time>
      </trkpt>
      <trkpt lat="45.75857" lon="3.09932">
        <ele>400.8</ele>
        <time>2021-08-03T14:01:09Z</time>
      </trkpt>
      <trkpt lat="45.75854" lon="3.09947">
        <ele>400.2</ele>
        <time>2021-08-03T14:01:11Z</time>
      </trkpt>
      <trkpt lat="45.75852" lon="3.09964">
        <ele>399.7</ele>
        <time>2021-08-03T14:01:13Z</time>
      </trkpt>
      <trkpt lat="45.7585" lon="3.09981">
        <ele>399.2</ele>
        <time>2021-08-03T14:01:15Z</time>
      </trkpt>
      <trkpt lat="45.75848" lon="3.09997">
        <ele>398.8</ele>
        <time>2021-08-03T14:01:17Z</time>
      </trkpt>
      <trkpt lat="45.75845" lon="3.10009">
        <ele>398.6</ele>
        <time>2021-08-03T14:01:19Z</time>
      </trkpt>
      <trkpt lat="45.75839" lon="3.10016">
        <ele>398.7</ele>
        <time>2021-08-03T14:01:21Z</time>
      </trkpt>
      <trkpt lat="45.75831" lon="3.10018">
        <ele>398.8</ele>
        <time>2021-08-03T14:01:23Z</time>
      </trkpt>
      <trkpt lat="45.75823" lon="3.10012">
        <ele>399</ele>
        <time>2021-08-03T14:01:25Z</time>
      </trkpt>
      <trkpt lat="45.75815" lon="3.10006">
        <ele>399.2</ele>
        <time>2021-08-03T14:01:27Z</time>
      </trkpt>
      <trkpt lat="45.75807" lon="3.10002">
        <ele>399.3</ele>
        <time>2021-08-03T14:01:29Z</time>
      </trkpt>
      <trkpt lat="45.75799" lon="3.1">
        <ele>399.4</ele>
        <time>2021-08-03T14:01:31Z</time>
      </trkpt>
      <trkpt lat="45.75792" lon="3.10003">
        <ele>399.5</ele>
        <time>2021-08-03T14:01:33Z</time>
      </trkpt>
      <trkpt lat="45.75784" lon="3.10005">
        <ele>399.6</ele>
        <time>2021-08-03T14:01:35Z</time>
      </trkpt>
      <trkpt lat="45.75777" lon="3.10005">
        <ele>399.7</ele>
        <time>2021-08-03T14:01:37Z</time>
      </trkpt>
      <trkpt lat="45.75773" lon="3.10014">
        <ele>399.9</ele>
        <time>2021-08-03T14:01:39Z</time>
      </trkpt>
      <trkpt lat="45.75771" lon="3.10024">
        <ele>400.1</ele>
        <time>2021-08-03T14:01:41Z</time>
      </trkpt>
      <trkpt lat="45.75769" lon="3.10031">
        <ele>400.3</ele>
        <time>2021-08-03T14:01:43Z</time>
      </trkpt>
      <trkpt lat="45.75766" lon="3.10038">
        <ele>400.4</ele>
        <time>2021-08-03T14:01:45Z</time>
      </trkpt>
      <trkpt lat="45.75764" lon="3.10045">
        <ele>400.6</ele>
        <time>2021-08-03T14:01:47Z</time>
      </trkpt>
      <trkpt lat="45.7576" lon="3.10051">
        <ele>400.9</ele>
        <time>2021-08-03T14:01:49Z</time>
      </trkpt>
      <trkpt lat="45.75757" lon="3.10057">
        <ele>401.1</ele>
        <time>2021-08-03T14:01:51Z</time>
      </trkpt>
      <trkpt lat="45.75754" lon="3.10063">
        <ele>401.4</ele>
        <time>2021-08-03T14:01:53Z</time>
      </trkpt>
      <trkpt lat="45.7575" lon="3.10067">
        <ele>401.6</ele>
        <time>2021-08-03T14:01:55Z</time>
      </trkpt>
      <trkpt lat="45.75746" lon="3.10071">
        <ele>402</ele>
        <time>2021-08-03T14:01:57Z</time>
      </trkpt>
      <trkpt lat="45.75742" lon="3.10075">
        <ele>402.4</ele>
        <time>2021-08-03T14:01:59Z</time>
      </trkpt>
      <trkpt lat="45.75738" lon="3.10079">
        <ele>402.8</ele>
        <time>2021-08-03T14:02:01Z</time>
      </trkpt>
      <trkpt lat="45.75734" lon="3.10082">
        <ele>403.1</ele>
        <time>2021-08-03T14:02:03Z</time>
      </trkpt>
      <trkpt lat="45.7573" lon="3.10085">
        <ele>403.5</ele>
        <time>2021-08-03T14:02:05Z</time>
      </trkpt>
      <trkpt lat="45.75726" lon="3.10089">
        <ele>404</ele>
        <time>2021-08-03T14:02:07Z</time>
      </trkpt>
      <trkpt lat="45.75722" lon="3.10092">
        <ele>404.6</ele>
        <time>2021-08-03T14:02:09Z</time>
      </trkpt>
      <trkpt lat="45.75718" lon="3.10098">
        <ele>405.2</ele>
        <time>2021-08-03T14:02:11Z</time>
      </trkpt>
      <trkpt lat="45.75715" lon="3.10103">
        <ele>405.7</ele>
        <time>2021-08-03T14:02:13Z</time>
      </trkpt>
      <trkpt lat="45.75712" lon="3.10109">
        <ele>406.3</ele>
        <time>2021-08-03T14:02:15Z</time>
      </trkpt>
      <trkpt lat="45.75709" lon="3.10115">
        <ele>406.9</ele>
        <time>2021-08-03T14:02:17Z</time>
      </trkpt>
      <trkpt lat="45.75706" lon="3.10121">
        <ele>407.4</ele>
        <time>2021-08-03T14:02:19Z</time>
      </trkpt>
      <trkpt lat="45.75707" lon="3.10127">
        <ele>407.7</ele>
        <time>2021-08-03T14:02:21Z</time>
      </trkpt>
      <trkpt lat="45.7571" lon="3.10133">
        <ele>407.9</ele>
        <time>2021-08-03T14:02:23Z</time>
      </trkpt>
      <trkpt lat="45.7571" lon="3.1014">
        <ele>408.3</ele>
        <time>2021-08-03T14:02:25Z</time>
      </trkpt>
      <trkpt lat="45.7571" lon="3.10148">
        <ele>408.7</ele>
        <time>2021-08-03T14:02:27Z</time>
      </trkpt>
      <trkpt lat="45.7571" lon="3.10155">
        <ele>409.2</ele>
        <time>2021-08-03T14:02:29Z</time>
      </trkpt>
      <trkpt lat="45.7571" lon="3.10163">
        <ele>409.7</ele>
        <time>2021-08-03T14:02:31Z</time>
      </trkpt>
      <trkpt lat="45.75709" lon="3.1017">
        <ele>410</ele>
        <time>2021-08-03T14:02:33Z</time>
      </trkpt>
      <trkpt lat="45.75707" lon="3.10176">
        <ele>410.3</ele>
        <time>2021-08-03T14:02:35Z</time>
      </trkpt>
      <trkpt lat="45.75703" lon="3.1018">
        <ele>410.7</ele>
        <time>2021-08-03T14:02:37Z</time>
      </trkpt>
      <trkpt lat="45.75699" lon="3.10183">
        <ele>411</ele>
        <time>2021-08-03T14:02:39Z</time>
      </trkpt>
      <trkpt lat="45.75695" lon="3.10186">
        <ele>411.4</ele>
        <time>2021-08-03T14:02:41Z</time>
      </trkpt>
      <trkpt lat="45.7569" lon="3.10189">
        <ele>411.7</ele>
        <time>2021-08-03T14:02:43Z</time>
      </trkpt>
      <trkpt lat="45.75685" lon="3.1019">
        <ele>412.1</ele>
        <time>2021-08-03T14:02:45Z</time>
      </trkpt>
      <trkpt lat="45.75681" lon="3.10192">
        <ele>412.4</ele>
        <time>2021-08-03T14:02:47Z</time>
      </trkpt>
      <trkpt lat="45.75677" lon="3.10194">
        <ele>412.6</ele>
        <time>2021-08-03T14:02:49Z</time>
      </trkpt>
      <trkpt lat="45.75673" lon="3.10194">
        <ele>412.9</ele>
        <time>2021-08-03T14:02:51Z</time>
      </trkpt>
      <trkpt lat="45.75669" lon="3.10196">
        <ele>413.2</ele>
        <time>2021-08-03T14:02:53Z</time>
      </trkpt>
      <trkpt lat="45.75665" lon="3.10195">
        <ele>413.4</ele>
        <time>2021-08-03T14:02:55Z</time>
      </trkpt>
      <trkpt lat="45.75662" lon="3.10196">
        <ele>413.5</ele>
        <time>2021-08-03T14:02:57Z</time>
      </trkpt>
      <trkpt lat="45.75658" lon="3.10195">
        <ele>413.6</ele>
        <time>2021-08-03T14:02:59Z</time>
      </trkpt>
      <trkpt lat="45.75654" lon="3.10194">
        <ele>413.7</ele>
        <time>2021-08-03T14:03:01Z</time>
      </trkpt>
      <trkpt lat="45.7565" lon="3.10197">
        <ele>413.8</ele>
        <time>2021-08-03T14:03:03Z</time>
      </trkpt>
      <trkpt lat="45.75647" lon="3.102">
        <ele>413.9</ele>
        <time>2021-08-03T14:03:05Z</time>
      </trkpt>
      <trkpt lat="45.75645" lon="3.10202">
        <ele>414</ele>
        <time>2021-08-03T14:03:07Z</time>
      </trkpt>
      <trkpt lat="45.75642" lon="3.10203">
        <ele>414.1</ele>
        <time>2021-08-03T14:03:09Z</time>
      </trkpt>
      <trkpt lat="45.75639" lon="3.10205">
        <ele>414.2</ele>
        <time>2021-08-03T14:03:11Z</time>
      </trkpt>
      <trkpt lat="45.75635" lon="3.10207">
        <ele>414.2</ele>
        <time>2021-08-03T14:03:13Z</time>
      </trkpt>
      <trkpt lat="45.75632" lon="3.10207">
        <ele>414.3</ele>
        <time>2021-08-03T14:03:15Z</time>
      </trkpt>
      <trkpt lat="45.75628" lon="3.10209">
        <ele>414.4</ele>
        <time>2021-08-03T14:03:17Z</time>
      </trkpt>
      <trkpt lat="45.75625" lon="3.10211">
        <ele>414.5</ele>
        <time>2021-08-03T14:03:19Z</time>
      </trkpt>
      <trkpt lat="45.75621" lon="3.10212">
        <ele>414.6</ele>
        <time>2021-08-03T14:03:21Z</time>
      </trkpt>
      <trkpt lat="45.75617" lon="3.10214">
        <ele>414.7</ele>
        <time>2021-08-03T14:03:23Z</time>
      </trkpt>
      <trkpt lat="45.75612" lon="3.10215">
        <ele>414.8</ele>
        <time>2021-08-03T14:03:25Z</time>
      </trkpt>
      <trkpt lat="45.75608" lon="3.10217">
        <ele>414.9</ele>
        <time>2021-08-03T14:03:27Z</time>
      </trkpt>
      <trkpt lat="45.75607" lon="3.10217">
        <ele>414.9</ele>
        <time>2021-08-03T14:03:29Z</time>
      </trkpt>
      <trkpt lat="45.75607" lon="3.10217">
        <ele>414.9</ele>
        <time>2021-08-03T14:03:31Z</time>
      </trkpt>
      <trkpt lat="45.75607" lon="3.10217">
        <ele>414.9</ele>
        <time>2021-08-03T14:03:33Z</time>
      </trkpt>
      <trkpt lat="45.75607" lon="3.10217">
        <ele>414.9</ele>
        <time>2021-08-03T14:03:35Z</time>
      </trkpt>
      <trkpt lat="45.75607" lon="3.10217">
        <ele>414.9</ele>
        <time>2021-08-03T14:03:37Z</time>
      </trkpt>
      <trkpt lat="45.7559" lon="3.10225">
        <ele>415.2</ele>
        <time>2021-08-03T14:04:33Z</time>
      </trkpt>
      <trkpt lat="45.75585" lon="3.10227">
        <ele>415.2</ele>
        <time>2021-08-03T14:04:35Z</time>
      </trkpt>
      <trkpt lat="45.7558" lon="3.1023">
        <ele>415.3</ele>
        <time>2021-08-03T14:04:37Z</time>
      </trkpt>
      <trkpt lat="45.75575" lon="3.10233">
        <ele>415.4</ele>
        <time>2021-08-03T14:04:39Z</time>
      </trkpt>
      <trkpt lat="45.7557" lon="3.10236">
        <ele>415.5</ele>
        <time>2021-08-03T14:04:41Z</time>
      </trkpt>
      <trkpt lat="45.75564" lon="3.10238">
        <ele>415.6</ele>
        <time>2021-08-03T14:04:43Z</time>
      </trkpt>
      <trkpt lat="45.75559" lon="3.10241">
        <ele>415.7</ele>
        <time>2021-08-03T14:04:45Z</time>
      </trkpt>
      <trkpt lat="45.75554" lon="3.10244">
        <ele>415.8</ele>
        <time>2021-08-03T14:04:47Z</time>
      </trkpt>
      <trkpt lat="45.75549" lon="3.10246">
        <ele>415.9</ele>
        <time>2021-08-03T14:04:49Z</time>
      </trkpt>
      <trkpt lat="45.75544" lon="3.10248">
        <ele>416</ele>
        <time>2021-08-03T14:04:51Z</time>
      </trkpt>
      <trkpt lat="45.7554" lon="3.10249">
        <ele>416</ele>
        <time>2021-08-03T14:04:53Z</time>
      </trkpt>
      <trkpt lat="45.75537" lon="3.1025">
        <ele>416.1</ele>
        <time>2021-08-03T14:04:55Z</time>
      </trkpt>
      <trkpt lat="45.75533" lon="3.10251">
        <ele>416.2</ele>
        <time>2021-08-03T14:04:57Z</time>
      </trkpt>
      <trkpt lat="45.75531" lon="3.10252">
        <ele>416.2</ele>
        <time>2021-08-03T14:04:59Z</time>
      </trkpt>
      <trkpt lat="45.7553" lon="3.10248">
        <ele>416.3</ele>
        <time>2021-08-03T14:05:01Z</time>
      </trkpt>
      <trkpt lat="45.75531" lon="3.10249">
        <ele>416.3</ele>
        <time>2021-08-03T14:05:03Z</time>
      </trkpt>
      <trkpt lat="45.7553" lon="3.10249">
        <ele>416.3</ele>
        <time>2021-08-03T14:05:05Z</time>
      </trkpt>
      <trkpt lat="45.7553" lon="3.10249">
        <ele>416.3</ele>
        <time>2021-08-03T14:05:07Z</time>
      </trkpt>
      <trkpt lat="45.7553" lon="3.10249">
        <ele>416.3</ele>
        <time>2021-08-03T14:05:09Z</time>
      </trkpt>
      <trkpt lat="45.75523" lon="3.10232">
        <ele>416.7</ele>
        <time>2021-08-03T14:05:19Z</time>
      </trkpt>
      <trkpt lat="45.7552" lon="3.10224">
        <ele>416.8</ele>
        <time>2021-08-03T14:05:21Z</time>
      </trkpt>
      <trkpt lat="45.75516" lon="3.10219">
        <ele>417</ele>
        <time>2021-08-03T14:05:23Z</time>
      </trkpt>
      <trkpt lat="45.7551" lon="3.10221">
        <ele>417.1</ele>
        <time>2021-08-03T14:05:25Z</time>
      </trkpt>
      <trkpt lat="45.75504" lon="3.10223">
        <ele>417.2</ele>
        <time>2021-08-03T14:05:27Z</time>
      </trkpt>
      <trkpt lat="45.75497" lon="3.10225">
        <ele>417.3</ele>
        <time>2021-08-03T14:05:29Z</time>
      </trkpt>
      <trkpt lat="45.75491" lon="3.10231">
        <ele>417.3</ele>
        <time>2021-08-03T14:05:31Z</time>
      </trkpt>
      <trkpt lat="45.75484" lon="3.10236">
        <ele>417.3</ele>
        <time>2021-08-03T14:05:33Z</time>
      </trkpt>
      <trkpt lat="45.75477" lon="3.1024">
        <ele>417.3</ele>
        <time>2021-08-03T14:05:35Z</time>
      </trkpt>
      <trkpt lat="45.7547" lon="3.10237">
        <ele>417.4</ele>
        <time>2021-08-03T14:05:37Z</time>
      </trkpt>
      <trkpt lat="45.75464" lon="3.10231">
        <ele>417.5</ele>
        <time>2021-08-03T14:05:39Z</time>
      </trkpt>
      <trkpt lat="45.75456" lon="3.10227">
        <ele>417.5</ele>
        <time>2021-08-03T14:05:41Z</time>
      </trkpt>
      <trkpt lat="45.75449" lon="3.10227">
        <ele>417.5</ele>
        <time>2021-08-03T14:05:43Z</time>
      </trkpt>
      <trkpt lat="45.75442" lon="3.10231">
        <ele>417.6</ele>
        <time>2021-08-03T14:05:45Z</time>
      </trkpt>
      <trkpt lat="45.75435" lon="3.10233">
        <ele>417.7</ele>
        <time>2021-08-03T14:05:47Z</time>
      </trkpt>
      <trkpt lat="45.75429" lon="3.10235">
        <ele>417.7</ele>
        <time>2021-08-03T14:05:49Z</time>
      </trkpt>
      <trkpt lat="45.75422" lon="3.10238">
        <ele>417.8</ele>
        <time>2021-08-03T14:05:51Z</time>
      </trkpt>
      <trkpt lat="45.75415" lon="3.10238">
        <ele>417.8</ele>
        <time>2021-08-03T14:05:53Z</time>
      </trkpt>
      <trkpt lat="45.75408" lon="3.10237">
        <ele>417.7</ele>
        <time>2021-08-03T14:05:55Z</time>
      </trkpt>
      <trkpt lat="45.75401" lon="3.10239">
        <ele>417.5</ele>
        <time>2021-08-03T14:05:57Z</time>
      </trkpt>
      <trkpt lat="45.75394" lon="3.10243">
        <ele>417.4</ele>
        <time>2021-08-03T14:05:59Z</time>
      </trkpt>
      <trkpt lat="45.75387" lon="3.10246">
        <ele>417.3</ele>
        <time>2021-08-03T14:06:01Z</time>
      </trkpt>
      <trkpt lat="45.7538" lon="3.10247">
        <ele>417.1</ele>
        <time>2021-08-03T14:06:03Z</time>
      </trkpt>
      <trkpt lat="45.75372" lon="3.1025">
        <ele>416.9</ele>
        <time>2021-08-03T14:06:05Z</time>
      </trkpt>
      <trkpt lat="45.75365" lon="3.10253">
        <ele>416.7</ele>
        <time>2021-08-03T14:06:07Z</time>
      </trkpt>
      <trkpt lat="45.75358" lon="3.10256">
        <ele>416.5</ele>
        <time>2021-08-03T14:06:09Z</time>
      </trkpt>
      <trkpt lat="45.75352" lon="3.10258">
        <ele>416.3</ele>
        <time>2021-08-03T14:06:11Z</time>
      </trkpt>
      <trkpt lat="45.75346" lon="3.1026">
        <ele>416.2</ele>
        <time>2021-08-03T14:06:13Z</time>
      </trkpt>
      <trkpt lat="45.75342" lon="3.10262">
        <ele>416</ele>
        <time>2021-08-03T14:06:15Z</time>
      </trkpt>
      <trkpt lat="45.7534" lon="3.10269">
        <ele>415.9</ele>
        <time>2021-08-03T14:06:17Z</time>
      </trkpt>
      <trkpt lat="45.75342" lon="3.10276">
        <ele>415.9</ele>
        <time>2021-08-03T14:06:19Z</time>
      </trkpt>
      <trkpt lat="45.75344" lon="3.10285">
        <ele>415.8</ele>
        <time>2021-08-03T14:06:21Z</time>
      </trkpt>
      <trkpt lat="45.75343" lon="3.10294">
        <ele>415.6</ele>
        <time>2021-08-03T14:06:23Z</time>
      </trkpt>
      <trkpt lat="45.75337" lon="3.10299">
        <ele>415.5</ele>
        <time>2021-08-03T14:06:25Z</time>
      </trkpt>
      <trkpt lat="45.75331" lon="3.103">
        <ele>415.3</ele>
        <time>2021-08-03T14:06:27Z</time>
      </trkpt>
      <trkpt lat="45.75324" lon="3.10303">
        <ele>415.2</ele>
        <time>2021-08-03T14:06:29Z</time>
      </trkpt>
      <trkpt lat="45.75317" lon="3.10305">
        <ele>415</ele>
        <time>2021-08-03T14:06:31Z</time>
      </trkpt>
      <trkpt lat="45.75311" lon="3.10309">
        <ele>414.8</ele>
        <time>2021-08-03T14:06:33Z</time>
      </trkpt>
      <trkpt lat="45.75306" lon="3.10313">
        <ele>414.7</ele>
        <time>2021-08-03T14:06:35Z</time>
      </trkpt>
      <trkpt lat="45.75301" lon="3.10311">
        <ele>414.6</ele>
        <time>2021-08-03T14:06:37Z</time>
      </trkpt>
      <trkpt lat="45.75297" lon="3.10308">
        <ele>414.6</ele>
        <time>2021-08-03T14:06:39Z</time>
      </trkpt>
      <trkpt lat="45.75292" lon="3.10304">
        <ele>414.5</ele>
        <time>2021-08-03T14:06:41Z</time>
      </trkpt>
      <trkpt lat="45.75288" lon="3.103">
        <ele>414.5</ele>
        <time>2021-08-03T14:06:43Z</time>
      </trkpt>
      <trkpt lat="45.75284" lon="3.10294">
        <ele>414.6</ele>
        <time>2021-08-03T14:06:45Z</time>
      </trkpt>
      <trkpt lat="45.7528" lon="3.10289">
        <ele>414.6</ele>
        <time>2021-08-03T14:06:47Z</time>
      </trkpt>
      <trkpt lat="45.75274" lon="3.10283">
        <ele>414.6</ele>
        <time>2021-08-03T14:06:49Z</time>
      </trkpt>
      <trkpt lat="45.75269" lon="3.10278">
        <ele>414.6</ele>
        <time>2021-08-03T14:06:51Z</time>
      </trkpt>
      <trkpt lat="45.75263" lon="3.10274">
        <ele>414.6</ele>
        <time>2021-08-03T14:06:53Z</time>
      </trkpt>
      <trkpt lat="45.7526" lon="3.10273">
        <ele>414.6</ele>
        <time>2021-08-03T14:06:55Z</time>
      </trkpt>
      <trkpt lat="45.75259" lon="3.10277">
        <ele>414.5</ele>
        <time>2021-08-03T14:06:57Z</time>
      </trkpt>
      <trkpt lat="45.75256" lon="3.10282">
        <ele>414.3</ele>
        <time>2021-08-03T14:06:59Z</time>
      </trkpt>
      <trkpt lat="45.75253" lon="3.10286">
        <ele>414.2</ele>
        <time>2021-08-03T14:07:01Z</time>
      </trkpt>
      <trkpt lat="45.75252" lon="3.1029">
        <ele>414.1</ele>
        <time>2021-08-03T14:07:03Z</time>
      </trkpt>
      <trkpt lat="45.7525" lon="3.10294">
        <ele>413.9</ele>
        <time>2021-08-03T14:07:05Z</time>
      </trkpt>
      <trkpt lat="45.75249" lon="3.10296">
        <ele>413.9</ele>
        <time>2021-08-03T14:07:07Z</time>
      </trkpt>
      <trkpt lat="45.75248" lon="3.10297">
        <ele>413.9</ele>
        <time>2021-08-03T14:07:09Z</time>
      </trkpt>
      <trkpt lat="45.75248" lon="3.10299">
        <ele>413.9</ele>
        <time>2021-08-03T14:07:11Z</time>
      </trkpt>
      <trkpt lat="45.75248" lon="3.10299">
        <ele>413.9</ele>
        <time>2021-08-03T14:07:13Z</time>
      </trkpt>
      <trkpt lat="45.75247" lon="3.103">
        <ele>413.9</ele>
        <time>2021-08-03T14:07:15Z</time>
      </trkpt>
      <trkpt lat="45.75247" lon="3.103">
        <ele>413.9</ele>
        <time>2021-08-03T14:07:17Z</time>
      </trkpt>
      <trkpt lat="45.75248" lon="3.10309">
        <ele>413.6</ele>
        <time>2021-08-03T14:07:25Z</time>
      </trkpt>
      <trkpt lat="45.7525" lon="3.10311">
        <ele>413.5</ele>
        <time>2021-08-03T14:07:27Z</time>
      </trkpt>
      <trkpt lat="45.75252" lon="3.10313">
        <ele>413.5</ele>
        <time>2021-08-03T14:07:29Z</time>
      </trkpt>
      <trkpt lat="45.75255" lon="3.10315">
        <ele>413.6</ele>
        <time>2021-08-03T14:07:31Z</time>
      </trkpt>
      <trkpt lat="45.75257" lon="3.10317">
        <ele>413.5</ele>
        <time>2021-08-03T14:07:33Z</time>
      </trkpt>
      <trkpt lat="45.7526" lon="3.1032">
        <ele>413.5</ele>
        <time>2021-08-03T14:07:35Z</time>
      </trkpt>
      <trkpt lat="45.75263" lon="3.10322">
        <ele>413.6</ele>
        <time>2021-08-03T14:07:37Z</time>
      </trkpt>
      <trkpt lat="45.75266" lon="3.10326">
        <ele>413.5</ele>
        <time>2021-08-03T14:07:39Z</time>
      </trkpt>
      <trkpt lat="45.7527" lon="3.10329">
        <ele>413.6</ele>
        <time>2021-08-03T14:07:41Z</time>
      </trkpt>
      <trkpt lat="45.75274" lon="3.10333">
        <ele>413.6</ele>
        <time>2021-08-03T14:07:43Z</time>
      </trkpt>
      <trkpt lat="45.75277" lon="3.10336">
        <ele>413.5</ele>
        <time>2021-08-03T14:07:45Z</time>
      </trkpt>
      <trkpt lat="45.7528" lon="3.10338">
        <ele>413.5</ele>
        <time>2021-08-03T14:07:47Z</time>
      </trkpt>
      <trkpt lat="45.75284" lon="3.10341">
        <ele>413.4</ele>
        <time>2021-08-03T14:07:49Z</time>
      </trkpt>
      <trkpt lat="45.75286" lon="3.10343">
        <ele>413.3</ele>
        <time>2021-08-03T14:07:51Z</time>
      </trkpt>
      <trkpt lat="45.75287" lon="3.10345">
        <ele>413.2</ele>
        <time>2021-08-03T14:07:53Z</time>
      </trkpt>
      <trkpt lat="45.7529" lon="3.10347">
        <ele>413.2</ele>
        <time>2021-08-03T14:07:55Z</time>
      </trkpt>
      <trkpt lat="45.75293" lon="3.1035">
        <ele>413.2</ele>
        <time>2021-08-03T14:07:57Z</time>
      </trkpt>
      <trkpt lat="45.75294" lon="3.10351">
        <ele>413.1</ele>
        <time>2021-08-03T14:07:59Z</time>
      </trkpt>
      <trkpt lat="45.75294" lon="3.10351">
        <ele>413.1</ele>
        <time>2021-08-03T14:08:01Z</time>
      </trkpt>
      <trkpt lat="45.75294" lon="3.10351">
        <ele>413.1</ele>
        <time>2021-08-03T14:08:03Z</time>
      </trkpt>
      <trkpt lat="45.75294" lon="3.10351">
        <ele>413.1</ele>
        <time>2021-08-03T14:08:05Z</time>
      </trkpt>
      <trkpt lat="45.75296" lon="3.10353">
        <ele>413.1</ele>
        <time>2021-08-03T14:08:07Z</time>
      </trkpt>
      <trkpt lat="45.75301" lon="3.10356">
        <ele>413</ele>
        <time>2021-08-03T14:08:09Z</time>
      </trkpt>
      <trkpt lat="45.75306" lon="3.10359">
        <ele>413</ele>
        <time>2021-08-03T14:08:11Z</time>
      </trkpt>
      <trkpt lat="45.7531" lon="3.10361">
        <ele>413</ele>
        <time>2021-08-03T14:08:13Z</time>
      </trkpt>
      <trkpt lat="45.75314" lon="3.10363">
        <ele>413</ele>
        <time>2021-08-03T14:08:15Z</time>
      </trkpt>
      <trkpt lat="45.75319" lon="3.10366">
        <ele>413</ele>
        <time>2021-08-03T14:08:17Z</time>
      </trkpt>
      <trkpt lat="45.75325" lon="3.10371">
        <ele>413</ele>
        <time>2021-08-03T14:08:19Z</time>
      </trkpt>
      <trkpt lat="45.75331" lon="3.10375">
        <ele>412.9</ele>
        <time>2021-08-03T14:08:21Z</time>
      </trkpt>
      <trkpt lat="45.75337" lon="3.10379">
        <ele>412.9</ele>
        <time>2021-08-03T14:08:23Z</time>
      </trkpt>
      <trkpt lat="45.75343" lon="3.10385">
        <ele>412.8</ele>
        <time>2021-08-03T14:08:25Z</time>
      </trkpt>
      <trkpt lat="45.75349" lon="3.1039">
        <ele>412.7</ele>
        <time>2021-08-03T14:08:27Z</time>
      </trkpt>
      <trkpt lat="45.75356" lon="3.10398">
        <ele>412.6</ele>
        <time>2021-08-03T14:08:29Z</time>
      </trkpt>
      <trkpt lat="45.75363" lon="3.10405">
        <ele>412.5</ele>
        <time>2021-08-03T14:08:31Z</time>
      </trkpt>
      <trkpt lat="45.7537" lon="3.10411">
        <ele>412.5</ele>
        <time>2021-08-03T14:08:33Z</time>
      </trkpt>
      <trkpt lat="45.75375" lon="3.10417">
        <ele>412.5</ele>
        <time>2021-08-03T14:08:35Z</time>
      </trkpt>
      <trkpt lat="45.75378" lon="3.10423">
        <ele>412.4</ele>
        <time>2021-08-03T14:08:37Z</time>
      </trkpt>
      <trkpt lat="45.75382" lon="3.10428">
        <ele>412.3</ele>
        <time>2021-08-03T14:08:39Z</time>
      </trkpt>
      <trkpt lat="45.75387" lon="3.10437">
        <ele>412.2</ele>
        <time>2021-08-03T14:08:41Z</time>
      </trkpt>
      <trkpt lat="45.75394" lon="3.10444">
        <ele>412.3</ele>
        <time>2021-08-03T14:08:43Z</time>
      </trkpt>
      <trkpt lat="45.754" lon="3.10449">
        <ele>412.4</ele>
        <time>2021-08-03T14:08:45Z</time>
      </trkpt>
      <trkpt lat="45.75401" lon="3.10454">
        <ele>412.3</ele>
        <time>2021-08-03T14:08:47Z</time>
      </trkpt>
      <trkpt lat="45.754" lon="3.10453">
        <ele>412.3</ele>
        <time>2021-08-03T14:08:49Z</time>
      </trkpt>
      <trkpt lat="45.75401" lon="3.10453">
        <ele>412.3</ele>
        <time>2021-08-03T14:08:51Z</time>
      </trkpt>
      <trkpt lat="45.75401" lon="3.10453">
        <ele>412.3</ele>
        <time>2021-08-03T14:08:53Z</time>
      </trkpt>
      <trkpt lat="45.75401" lon="3.10454">
        <ele>412.3</ele>
        <time>2021-08-03T14:08:55Z</time>
      </trkpt>
      <trkpt lat="45.75391" lon="3.10461">
        <ele>411.5</ele>
        <time>2021-08-03T14:09:01Z</time>
      </trkpt>
      <trkpt lat="45.75383" lon="3.10465">
        <ele>410.9</ele>
        <time>2021-08-03T14:09:03Z</time>
      </trkpt>
      <trkpt lat="45.75374" lon="3.10474">
        <ele>410</ele>
        <time>2021-08-03T14:09:05Z</time>
      </trkpt>
      <trkpt lat="45.75367" lon="3.10486">
        <ele>409</ele>
        <time>2021-08-03T14:09:07Z</time>
      </trkpt>
      <trkpt lat="45.7536" lon="3.10502">
        <ele>407.9</ele>
        <time>2021-08-03T14:09:09Z</time>
      </trkpt>
      <trkpt lat="45.75356" lon="3.10522">
        <ele>406.8</ele>
        <time>2021-08-03T14:09:11Z</time>
      </trkpt>
      <trkpt lat="45.75352" lon="3.10543">
        <ele>405.6</ele>
        <time>2021-08-03T14:09:13Z</time>
      </trkpt>
      <trkpt lat="45.75346" lon="3.10564">
        <ele>404.2</ele>
        <time>2021-08-03T14:09:15Z</time>
      </trkpt>
      <trkpt lat="45.7534" lon="3.10587">
        <ele>402.6</ele>
        <time>2021-08-03T14:09:17Z</time>
      </trkpt>
      <trkpt lat="45.75333" lon="3.10611">
        <ele>400.7</ele>
        <time>2021-08-03T14:09:19Z</time>
      </trkpt>
      <trkpt lat="45.75324" lon="3.10632">
        <ele>399.3</ele>
        <time>2021-08-03T14:09:21Z</time>
      </trkpt>
      <trkpt lat="45.75314" lon="3.10654">
        <ele>397.8</ele>
        <time>2021-08-03T14:09:23Z</time>
      </trkpt>
      <trkpt lat="45.75302" lon="3.10675">
        <ele>396</ele>
        <time>2021-08-03T14:09:25Z</time>
      </trkpt>
      <trkpt lat="45.7529" lon="3.10694">
        <ele>394.1</ele>
        <time>2021-08-03T14:09:27Z</time>
      </trkpt>
      <trkpt lat="45.75277" lon="3.10714">
        <ele>392.3</ele>
        <time>2021-08-03T14:09:29Z</time>
      </trkpt>
      <trkpt lat="45.75264" lon="3.10734">
        <ele>390.5</ele>
        <time>2021-08-03T14:09:31Z</time>
      </trkpt>
      <trkpt lat="45.75252" lon="3.10752">
        <ele>389</ele>
        <time>2021-08-03T14:09:33Z</time>
      </trkpt>
      <trkpt lat="45.75239" lon="3.10772">
        <ele>387.9</ele>
        <time>2021-08-03T14:09:35Z</time>
      </trkpt>
      <trkpt lat="45.75227" lon="3.10791">
        <ele>386.8</ele>
        <time>2021-08-03T14:09:37Z</time>
      </trkpt>
      <trkpt lat="45.75214" lon="3.10809">
        <ele>385.9</ele>
        <time>2021-08-03T14:09:39Z</time>
      </trkpt>
      <trkpt lat="45.75202" lon="3.10827">
        <ele>385</ele>
        <time>2021-08-03T14:09:41Z</time>
      </trkpt>
      <trkpt lat="45.75193" lon="3.1084">
        <ele>384.4</ele>
        <time>2021-08-03T14:09:43Z</time>
      </trkpt>
      <trkpt lat="45.75186" lon="3.10852">
        <ele>383.8</ele>
        <time>2021-08-03T14:09:45Z</time>
      </trkpt>
      <trkpt lat="45.75179" lon="3.10863">
        <ele>383.2</ele>
        <time>2021-08-03T14:09:47Z</time>
      </trkpt>
      <trkpt lat="45.75174" lon="3.10869">
        <ele>382.9</ele>
        <time>2021-08-03T14:09:49Z</time>
      </trkpt>
      <trkpt lat="45.7517" lon="3.10873">
        <ele>382.7</ele>
        <time>2021-08-03T14:09:51Z</time>
      </trkpt>
      <trkpt lat="45.75164" lon="3.10876">
        <ele>382.5</ele>
        <time>2021-08-03T14:09:53Z</time>
      </trkpt>
      <trkpt lat="45.75158" lon="3.10883">
        <ele>382.4</ele>
        <time>2021-08-03T14:09:55Z</time>
      </trkpt>
      <trkpt lat="45.75157" lon="3.10896">
        <ele>381.9</ele>
        <time>2021-08-03T14:09:57Z</time>
      </trkpt>
      <trkpt lat="45.75152" lon="3.10908">
        <ele>381.6</ele>
        <time>2021-08-03T14:09:59Z</time>
      </trkpt>
      <trkpt lat="45.75144" lon="3.10917">
        <ele>381.5</ele>
        <time>2021-08-03T14:10:01Z</time>
      </trkpt>
      <trkpt lat="45.75137" lon="3.10928">
        <ele>381.6</ele>
        <time>2021-08-03T14:10:03Z</time>
      </trkpt>
      <trkpt lat="45.75132" lon="3.1094">
        <ele>381.7</ele>
        <time>2021-08-03T14:10:05Z</time>
      </trkpt>
      <trkpt lat="45.75127" lon="3.10952">
        <ele>381.7</ele>
        <time>2021-08-03T14:10:07Z</time>
      </trkpt>
      <trkpt lat="45.75118" lon="3.10962">
        <ele>381.9</ele>
        <time>2021-08-03T14:10:09Z</time>
      </trkpt>
      <trkpt lat="45.75112" lon="3.10974">
        <ele>382.1</ele>
        <time>2021-08-03T14:10:11Z</time>
      </trkpt>
      <trkpt lat="45.75109" lon="3.10987">
        <ele>382.1</ele>
        <time>2021-08-03T14:10:13Z</time>
      </trkpt>
      <trkpt lat="45.75106" lon="3.11001">
        <ele>382.2</ele>
        <time>2021-08-03T14:10:15Z</time>
      </trkpt>
      <trkpt lat="45.75104" lon="3.11014">
        <ele>382.1</ele>
        <time>2021-08-03T14:10:17Z</time>
      </trkpt>
      <trkpt lat="45.75102" lon="3.11026">
        <ele>382.1</ele>
        <time>2021-08-03T14:10:19Z</time>
      </trkpt>
      <trkpt lat="45.751" lon="3.11034">
        <ele>382.1</ele>
        <time>2021-08-03T14:10:21Z</time>
      </trkpt>
      <trkpt lat="45.75095" lon="3.11038">
        <ele>382.2</ele>
        <time>2021-08-03T14:10:23Z</time>
      </trkpt>
      <trkpt lat="45.75088" lon="3.11037">
        <ele>382.4</ele>
        <time>2021-08-03T14:10:25Z</time>
      </trkpt>
      <trkpt lat="45.75081" lon="3.11035">
        <ele>382.6</ele>
        <time>2021-08-03T14:10:27Z</time>
      </trkpt>
      <trkpt lat="45.75074" lon="3.11039">
        <ele>382.5</ele>
        <time>2021-08-03T14:10:29Z</time>
      </trkpt>
      <trkpt lat="45.7507" lon="3.1105">
        <ele>382.4</ele>
        <time>2021-08-03T14:10:31Z</time>
      </trkpt>
      <trkpt lat="45.75069" lon="3.1106">
        <ele>382.3</ele>
        <time>2021-08-03T14:10:33Z</time>
      </trkpt>
      <trkpt lat="45.75069" lon="3.11071">
        <ele>382.1</ele>
        <time>2021-08-03T14:10:35Z</time>
      </trkpt>
      <trkpt lat="45.75068" lon="3.11082">
        <ele>382</ele>
        <time>2021-08-03T14:10:37Z</time>
      </trkpt>
      <trkpt lat="45.75067" lon="3.11094">
        <ele>381.8</ele>
        <time>2021-08-03T14:10:39Z</time>
      </trkpt>
      <trkpt lat="45.75067" lon="3.11105">
        <ele>381.5</ele>
        <time>2021-08-03T14:10:41Z</time>
      </trkpt>
      <trkpt lat="45.75066" lon="3.11115">
        <ele>381.3</ele>
        <time>2021-08-03T14:10:43Z</time>
      </trkpt>
      <trkpt lat="45.75064" lon="3.11122">
        <ele>381.2</ele>
        <time>2021-08-03T14:10:45Z</time>
      </trkpt>
      <trkpt lat="45.75058" lon="3.11124">
        <ele>381.2</ele>
        <time>2021-08-03T14:10:47Z</time>
      </trkpt>
      <trkpt lat="45.75051" lon="3.11125">
        <ele>381.2</ele>
        <time>2021-08-03T14:10:49Z</time>
      </trkpt>
      <trkpt lat="45.75047" lon="3.11133">
        <ele>381.1</ele>
        <time>2021-08-03T14:10:51Z</time>
      </trkpt>
      <trkpt lat="45.75042" lon="3.11143">
        <ele>380.9</ele>
        <time>2021-08-03T14:10:53Z</time>
      </trkpt>
      <trkpt lat="45.75038" lon="3.11152">
        <ele>380.8</ele>
        <time>2021-08-03T14:10:55Z</time>
      </trkpt>
      <trkpt lat="45.75036" lon="3.11163">
        <ele>380.6</ele>
        <time>2021-08-03T14:10:57Z</time>
      </trkpt>
      <trkpt lat="45.75036" lon="3.11175">
        <ele>380.4</ele>
        <time>2021-08-03T14:10:59Z</time>
      </trkpt>
      <trkpt lat="45.75039" lon="3.11186">
        <ele>380.2</ele>
        <time>2021-08-03T14:11:01Z</time>
      </trkpt>
      <trkpt lat="45.75043" lon="3.11197">
        <ele>379.9</ele>
        <time>2021-08-03T14:11:03Z</time>
      </trkpt>
      <trkpt lat="45.75046" lon="3.11208">
        <ele>379.7</ele>
        <time>2021-08-03T14:11:05Z</time>
      </trkpt>
      <trkpt lat="45.75047" lon="3.11218">
        <ele>379.5</ele>
        <time>2021-08-03T14:11:07Z</time>
      </trkpt>
      <trkpt lat="45.75044" lon="3.11225">
        <ele>379.4</ele>
        <time>2021-08-03T14:11:09Z</time>
      </trkpt>
      <trkpt lat="45.75036" lon="3.11225">
        <ele>379.5</ele>
        <time>2021-08-03T14:11:11Z</time>
      </trkpt>
      <trkpt lat="45.7503" lon="3.11222">
        <ele>379.5</ele>
        <time>2021-08-03T14:11:13Z</time>
      </trkpt>
      <trkpt lat="45.75023" lon="3.11222">
        <ele>379.6</ele>
        <time>2021-08-03T14:11:15Z</time>
      </trkpt>
      <trkpt lat="45.75016" lon="3.11218">
        <ele>379.7</ele>
        <time>2021-08-03T14:11:17Z</time>
      </trkpt>
      <trkpt lat="45.7501" lon="3.11216">
        <ele>379.8</ele>
        <time>2021-08-03T14:11:19Z</time>
      </trkpt>
      <trkpt lat="45.75004" lon="3.11216">
        <ele>379.8</ele>
        <time>2021-08-03T14:11:21Z</time>
      </trkpt>
      <trkpt lat="45.74998" lon="3.11218">
        <ele>379.8</ele>
        <time>2021-08-03T14:11:23Z</time>
      </trkpt>
      <trkpt lat="45.74993" lon="3.11222">
        <ele>379.9</ele>
        <time>2021-08-03T14:11:25Z</time>
      </trkpt>
      <trkpt lat="45.74989" lon="3.11228">
        <ele>379.9</ele>
        <time>2021-08-03T14:11:27Z</time>
      </trkpt>
      <trkpt lat="45.74984" lon="3.11231">
        <ele>380</ele>
        <time>2021-08-03T14:11:29Z</time>
      </trkpt>
      <trkpt lat="45.74982" lon="3.11233">
        <ele>380.1</ele>
        <time>2021-08-03T14:11:31Z</time>
      </trkpt>
      <trkpt lat="45.74982" lon="3.11234">
        <ele>380.1</ele>
        <time>2021-08-03T14:11:33Z</time>
      </trkpt>
      <trkpt lat="45.7498" lon="3.11236">
        <ele>380.1</ele>
        <time>2021-08-03T14:11:35Z</time>
      </trkpt>
      <trkpt lat="45.74976" lon="3.11233">
        <ele>380.3</ele>
        <time>2021-08-03T14:11:37Z</time>
      </trkpt>
      <trkpt lat="45.74971" lon="3.11224">
        <ele>380.6</ele>
        <time>2021-08-03T14:11:39Z</time>
      </trkpt>
      <trkpt lat="45.74967" lon="3.11217">
        <ele>380.8</ele>
        <time>2021-08-03T14:11:41Z</time>
      </trkpt>
      <trkpt lat="45.74963" lon="3.1121">
        <ele>380.9</ele>
        <time>2021-08-03T14:11:43Z</time>
      </trkpt>
      <trkpt lat="45.74959" lon="3.11202">
        <ele>381</ele>
        <time>2021-08-03T14:11:45Z</time>
      </trkpt>
      <trkpt lat="45.74954" lon="3.11195">
        <ele>381.1</ele>
        <time>2021-08-03T14:11:47Z</time>
      </trkpt>
      <trkpt lat="45.7495" lon="3.11189">
        <ele>381.1</ele>
        <time>2021-08-03T14:11:49Z</time>
      </trkpt>
      <trkpt lat="45.74944" lon="3.11183">
        <ele>381.1</ele>
        <time>2021-08-03T14:11:51Z</time>
      </trkpt>
      <trkpt lat="45.74937" lon="3.11179">
        <ele>381.2</ele>
        <time>2021-08-03T14:11:53Z</time>
      </trkpt>
      <trkpt lat="45.7493" lon="3.11177">
        <ele>381.2</ele>
        <time>2021-08-03T14:11:55Z</time>
      </trkpt>
      <trkpt lat="45.74924" lon="3.1118">
        <ele>381.3</ele>
        <time>2021-08-03T14:11:57Z</time>
      </trkpt>
      <trkpt lat="45.74921" lon="3.11187">
        <ele>381.4</ele>
        <time>2021-08-03T14:11:59Z</time>
      </trkpt>
      <trkpt lat="45.74921" lon="3.11195">
        <ele>381.6</ele>
        <time>2021-08-03T14:12:01Z</time>
      </trkpt>
      <trkpt lat="45.74924" lon="3.11202">
        <ele>381.7</ele>
        <time>2021-08-03T14:12:03Z</time>
      </trkpt>
      <trkpt lat="45.74926" lon="3.1121">
        <ele>381.8</ele>
        <time>2021-08-03T14:12:05Z</time>
      </trkpt>
      <trkpt lat="45.74928" lon="3.11217">
        <ele>381.9</ele>
        <time>2021-08-03T14:12:07Z</time>
      </trkpt>
      <trkpt lat="45.7493" lon="3.11225">
        <ele>381.9</ele>
        <time>2021-08-03T14:12:09Z</time>
      </trkpt>
      <trkpt lat="45.74931" lon="3.11234">
        <ele>382.1</ele>
        <time>2021-08-03T14:12:11Z</time>
      </trkpt>
      <trkpt lat="45.74928" lon="3.11242">
        <ele>382.3</ele>
        <time>2021-08-03T14:12:13Z</time>
      </trkpt>
      <trkpt lat="45.74921" lon="3.11243">
        <ele>382.7</ele>
        <time>2021-08-03T14:12:15Z</time>
      </trkpt>
      <trkpt lat="45.74915" lon="3.11245">
        <ele>383</ele>
        <time>2021-08-03T14:12:17Z</time>
      </trkpt>
      <trkpt lat="45.7491" lon="3.11248">
        <ele>383.4</ele>
        <time>2021-08-03T14:12:19Z</time>
      </trkpt>
      <trkpt lat="45.74905" lon="3.11251">
        <ele>383.8</ele>
        <time>2021-08-03T14:12:21Z</time>
      </trkpt>
      <trkpt lat="45.749" lon="3.11253">
        <ele>384.3</ele>
        <time>2021-08-03T14:12:23Z</time>
      </trkpt>
      <trkpt lat="45.74895" lon="3.11256">
        <ele>384.8</ele>
        <time>2021-08-03T14:12:25Z</time>
      </trkpt>
      <trkpt lat="45.7489" lon="3.11259">
        <ele>385.3</ele>
        <time>2021-08-03T14:12:27Z</time>
      </trkpt>
      <trkpt lat="45.74885" lon="3.11262">
        <ele>385.8</ele>
        <time>2021-08-03T14:12:29Z</time>
      </trkpt>
      <trkpt lat="45.7488" lon="3.11265">
        <ele>386.3</ele>
        <time>2021-08-03T14:12:31Z</time>
      </trkpt>
      <trkpt lat="45.74875" lon="3.11268">
        <ele>386.8</ele>
        <time>2021-08-03T14:12:33Z</time>
      </trkpt>
      <trkpt lat="45.74869" lon="3.11271">
        <ele>387.3</ele>
        <time>2021-08-03T14:12:35Z</time>
      </trkpt>
      <trkpt lat="45.74864" lon="3.11273">
        <ele>387.8</ele>
        <time>2021-08-03T14:12:37Z</time>
      </trkpt>
      <trkpt lat="45.74858" lon="3.11275">
        <ele>388.3</ele>
        <time>2021-08-03T14:12:39Z</time>
      </trkpt>
      <trkpt lat="45.74853" lon="3.11276">
        <ele>388.8</ele>
        <time>2021-08-03T14:12:41Z</time>
      </trkpt>
      <trkpt lat="45.74848" lon="3.11277">
        <ele>389.2</ele>
        <time>2021-08-03T14:12:43Z</time>
      </trkpt>
      <trkpt lat="45.74843" lon="3.1128">
        <ele>389.7</ele>
        <time>2021-08-03T14:12:45Z</time>
      </trkpt>
      <trkpt lat="45.74838" lon="3.11281">
        <ele>390.1</ele>
        <time>2021-08-03T14:12:47Z</time>
      </trkpt>
      <trkpt lat="45.74833" lon="3.11283">
        <ele>390.6</ele>
        <time>2021-08-03T14:12:49Z</time>
      </trkpt>
      <trkpt lat="45.74829" lon="3.11286">
        <ele>391.3</ele>
        <time>2021-08-03T14:12:51Z</time>
      </trkpt>
      <trkpt lat="45.74824" lon="3.11287">
        <ele>392</ele>
        <time>2021-08-03T14:12:53Z</time>
      </trkpt>
      <trkpt lat="45.74821" lon="3.11287">
        <ele>392.5</ele>
        <time>2021-08-03T14:12:55Z</time>
      </trkpt>
      <trkpt lat="45.74817" lon="3.11289">
        <ele>393.2</ele>
        <time>2021-08-03T14:12:57Z</time>
      </trkpt>
      <trkpt lat="45.74814" lon="3.11291">
        <ele>393.7</ele>
        <time>2021-08-03T14:12:59Z</time>
      </trkpt>
      <trkpt lat="45.7481" lon="3.11292">
        <ele>394.4</ele>
        <time>2021-08-03T14:13:01Z</time>
      </trkpt>
      <trkpt lat="45.74807" lon="3.11293">
        <ele>394.9</ele>
        <time>2021-08-03T14:13:03Z</time>
      </trkpt>
      <trkpt lat="45.74803" lon="3.11293">
        <ele>395.4</ele>
        <time>2021-08-03T14:13:05Z</time>
      </trkpt>
      <trkpt lat="45.748" lon="3.11293">
        <ele>395.9</ele>
        <time>2021-08-03T14:13:07Z</time>
      </trkpt>
      <trkpt lat="45.74797" lon="3.11293">
        <ele>396.3</ele>
        <time>2021-08-03T14:13:09Z</time>
      </trkpt>
      <trkpt lat="45.74793" lon="3.11292">
        <ele>396.8</ele>
        <time>2021-08-03T14:13:11Z</time>
      </trkpt>
      <trkpt lat="45.74789" lon="3.11292">
        <ele>397.4</ele>
        <time>2021-08-03T14:13:13Z</time>
      </trkpt>
      <trkpt lat="45.74786" lon="3.11291">
        <ele>397.8</ele>
        <time>2021-08-03T14:13:15Z</time>
      </trkpt>
      <trkpt lat="45.74782" lon="3.11291">
        <ele>398.3</ele>
        <time>2021-08-03T14:13:17Z</time>
      </trkpt>
      <trkpt lat="45.74779" lon="3.1129">
        <ele>398.7</ele>
        <time>2021-08-03T14:13:19Z</time>
      </trkpt>
      <trkpt lat="45.74775" lon="3.11287">
        <ele>399</ele>
        <time>2021-08-03T14:13:21Z</time>
      </trkpt>
      <trkpt lat="45.74772" lon="3.11286">
        <ele>399.4</ele>
        <time>2021-08-03T14:13:23Z</time>
      </trkpt>
      <trkpt lat="45.74769" lon="3.11286">
        <ele>399.8</ele>
        <time>2021-08-03T14:13:25Z</time>
      </trkpt>
      <trkpt lat="45.74765" lon="3.11287">
        <ele>400.4</ele>
        <time>2021-08-03T14:13:27Z</time>
      </trkpt>
      <trkpt lat="45.74763" lon="3.11289">
        <ele>400.9</ele>
        <time>2021-08-03T14:13:29Z</time>
      </trkpt>
      <trkpt lat="45.7476" lon="3.1129">
        <ele>401.5</ele>
        <time>2021-08-03T14:13:31Z</time>
      </trkpt>
      <trkpt lat="45.74757" lon="3.11291">
        <ele>402</ele>
        <time>2021-08-03T14:13:33Z</time>
      </trkpt>
      <trkpt lat="45.74753" lon="3.11293">
        <ele>402.6</ele>
        <time>2021-08-03T14:13:35Z</time>
      </trkpt>
      <trkpt lat="45.74751" lon="3.11295">
        <ele>403.2</ele>
        <time>2021-08-03T14:13:37Z</time>
      </trkpt>
      <trkpt lat="45.74748" lon="3.11296">
        <ele>403.8</ele>
        <time>2021-08-03T14:13:39Z</time>
      </trkpt>
      <trkpt lat="45.74745" lon="3.11295">
        <ele>404.3</ele>
        <time>2021-08-03T14:13:41Z</time>
      </trkpt>
      <trkpt lat="45.74743" lon="3.11296">
        <ele>404.9</ele>
        <time>2021-08-03T14:13:43Z</time>
      </trkpt>
      <trkpt lat="45.74743" lon="3.11296">
        <ele>404.9</ele>
        <time>2021-08-03T14:13:45Z</time>
      </trkpt>
      <trkpt lat="45.74743" lon="3.11297">
        <ele>405.1</ele>
        <time>2021-08-03T14:13:47Z</time>
      </trkpt>
      <trkpt lat="45.74743" lon="3.11297">
        <ele>405.1</ele>
        <time>2021-08-03T14:13:49Z</time>
      </trkpt>
      <trkpt lat="45.74743" lon="3.11298">
        <ele>405.2</ele>
        <time>2021-08-03T14:13:51Z</time>
      </trkpt>
      <trkpt lat="45.74743" lon="3.11298">
        <ele>405.2</ele>
        <time>2021-08-03T14:13:53Z</time>
      </trkpt>
      <trkpt lat="45.74728" lon="3.11294">
        <ele>407.9</ele>
        <time>2021-08-03T14:14:45Z</time>
      </trkpt>
      <trkpt lat="45.74725" lon="3.11295">
        <ele>408.6</ele>
        <time>2021-08-03T14:14:47Z</time>
      </trkpt>
      <trkpt lat="45.74722" lon="3.11295">
        <ele>409.4</ele>
        <time>2021-08-03T14:14:49Z</time>
      </trkpt>
      <trkpt lat="45.74718" lon="3.11293">
        <ele>409.9</ele>
        <time>2021-08-03T14:14:51Z</time>
      </trkpt>
      <trkpt lat="45.74715" lon="3.11291">
        <ele>410.4</ele>
        <time>2021-08-03T14:14:53Z</time>
      </trkpt>
      <trkpt lat="45.74712" lon="3.1129">
        <ele>411</ele>
        <time>2021-08-03T14:14:55Z</time>
      </trkpt>
      <trkpt lat="45.7471" lon="3.11287">
        <ele>411.2</ele>
        <time>2021-08-03T14:14:57Z</time>
      </trkpt>
      <trkpt lat="45.74708" lon="3.11285">
        <ele>411.5</ele>
        <time>2021-08-03T14:14:59Z</time>
      </trkpt>
      <trkpt lat="45.74705" lon="3.11282">
        <ele>411.9</ele>
        <time>2021-08-03T14:15:01Z</time>
      </trkpt>
      <trkpt lat="45.74701" lon="3.11279">
        <ele>412.3</ele>
        <time>2021-08-03T14:15:03Z</time>
      </trkpt>
      <trkpt lat="45.74698" lon="3.11277">
        <ele>412.8</ele>
        <time>2021-08-03T14:15:05Z</time>
      </trkpt>
      <trkpt lat="45.74695" lon="3.11275">
        <ele>413.3</ele>
        <time>2021-08-03T14:15:07Z</time>
      </trkpt>
      <trkpt lat="45.74693" lon="3.11273">
        <ele>413.6</ele>
        <time>2021-08-03T14:15:09Z</time>
      </trkpt>
      <trkpt lat="45.7469" lon="3.11272">
        <ele>414.1</ele>
        <time>2021-08-03T14:15:11Z</time>
      </trkpt>
      <trkpt lat="45.74687" lon="3.11271">
        <ele>414.7</ele>
        <time>2021-08-03T14:15:13Z</time>
      </trkpt>
      <trkpt lat="45.74684" lon="3.11269">
        <ele>415.1</ele>
        <time>2021-08-03T14:15:15Z</time>
      </trkpt>
      <trkpt lat="45.74682" lon="3.11267">
        <ele>415.4</ele>
        <time>2021-08-03T14:15:17Z</time>
      </trkpt>
      <trkpt lat="45.74679" lon="3.11266">
        <ele>416</ele>
        <time>2021-08-03T14:15:19Z</time>
      </trkpt>
      <trkpt lat="45.74676" lon="3.11266">
        <ele>416.5</ele>
        <time>2021-08-03T14:15:21Z</time>
      </trkpt>
      <trkpt lat="45.74673" lon="3.11264">
        <ele>416.9</ele>
        <time>2021-08-03T14:15:23Z</time>
      </trkpt>
      <trkpt lat="45.74671" lon="3.11264">
        <ele>417.4</ele>
        <time>2021-08-03T14:15:25Z</time>
      </trkpt>
      <trkpt lat="45.74669" lon="3.11264">
        <ele>417.8</ele>
        <time>2021-08-03T14:15:27Z</time>
      </trkpt>
      <trkpt lat="45.74669" lon="3.11264">
        <ele>417.7</ele>
        <time>2021-08-03T14:15:29Z</time>
      </trkpt>
      <trkpt lat="45.74669" lon="3.11263">
        <ele>417.7</ele>
        <time>2021-08-03T14:15:31Z</time>
      </trkpt>
      <trkpt lat="45.74669" lon="3.11263">
        <ele>417.7</ele>
        <time>2021-08-03T14:15:33Z</time>
      </trkpt>
      <trkpt lat="45.74669" lon="3.11263">
        <ele>417.8</ele>
        <time>2021-08-03T14:15:35Z</time>
      </trkpt>
      <trkpt lat="45.74668" lon="3.11262">
        <ele>417.9</ele>
        <time>2021-08-03T14:16:21Z</time>
      </trkpt>
      <trkpt lat="45.74668" lon="3.11262">
        <ele>417.9</ele>
        <time>2021-08-03T14:16:23Z</time>
      </trkpt>
      <trkpt lat="45.74667" lon="3.11262">
        <ele>418</ele>
        <time>2021-08-03T14:16:25Z</time>
      </trkpt>
      <trkpt lat="45.74665" lon="3.11263">
        <ele>418.5</ele>
        <time>2021-08-03T14:16:27Z</time>
      </trkpt>
      <trkpt lat="45.74662" lon="3.11265">
        <ele>419</ele>
        <time>2021-08-03T14:16:29Z</time>
      </trkpt>
      <trkpt lat="45.7466" lon="3.11268">
        <ele>419.6</ele>
        <time>2021-08-03T14:16:31Z</time>
      </trkpt>
      <trkpt lat="45.74658" lon="3.11272">
        <ele>420.3</ele>
        <time>2021-08-03T14:16:33Z</time>
      </trkpt>
      <trkpt lat="45.74655" lon="3.11276">
        <ele>421</ele>
        <time>2021-08-03T14:16:35Z</time>
      </trkpt>
      <trkpt lat="45.74653" lon="3.1128">
        <ele>421.6</ele>
        <time>2021-08-03T14:16:37Z</time>
      </trkpt>
      <trkpt lat="45.74652" lon="3.11282">
        <ele>422.1</ele>
        <time>2021-08-03T14:16:39Z</time>
      </trkpt>
      <trkpt lat="45.74651" lon="3.11283">
        <ele>422.2</ele>
        <time>2021-08-03T14:16:41Z</time>
      </trkpt>
      <trkpt lat="45.74651" lon="3.11283">
        <ele>422.2</ele>
        <time>2021-08-03T14:16:43Z</time>
      </trkpt>
      <trkpt lat="45.74651" lon="3.11283">
        <ele>422.2</ele>
        <time>2021-08-03T14:16:45Z</time>
      </trkpt>
      <trkpt lat="45.74651" lon="3.11282">
        <ele>422.2</ele>
        <time>2021-08-03T14:16:47Z</time>
      </trkpt>
      <trkpt lat="45.7465" lon="3.11281">
        <ele>422.1</ele>
        <time>2021-08-03T14:16:49Z</time>
      </trkpt>
      <trkpt lat="45.74645" lon="3.11294">
        <ele>424.1</ele>
        <time>2021-08-03T14:18:43Z</time>
      </trkpt>
      <trkpt lat="45.74642" lon="3.11297">
        <ele>424.7</ele>
        <time>2021-08-03T14:18:45Z</time>
      </trkpt>
      <trkpt lat="45.74639" lon="3.113">
        <ele>425.4</ele>
        <time>2021-08-03T14:18:47Z</time>
      </trkpt>
      <trkpt lat="45.74637" lon="3.11302">
        <ele>426</ele>
        <time>2021-08-03T14:18:49Z</time>
      </trkpt>
      <trkpt lat="45.74634" lon="3.11306">
        <ele>426.6</ele>
        <time>2021-08-03T14:18:51Z</time>
      </trkpt>
      <trkpt lat="45.74632" lon="3.11309">
        <ele>427.3</ele>
        <time>2021-08-03T14:18:53Z</time>
      </trkpt>
      <trkpt lat="45.74629" lon="3.11313">
        <ele>428</ele>
        <time>2021-08-03T14:18:55Z</time>
      </trkpt>
      <trkpt lat="45.74628" lon="3.11317">
        <ele>428.5</ele>
        <time>2021-08-03T14:18:57Z</time>
      </trkpt>
      <trkpt lat="45.74627" lon="3.11321">
        <ele>429</ele>
        <time>2021-08-03T14:18:59Z</time>
      </trkpt>
      <trkpt lat="45.74627" lon="3.11326">
        <ele>429.5</ele>
        <time>2021-08-03T14:19:01Z</time>
      </trkpt>
      <trkpt lat="45.74629" lon="3.1133">
        <ele>429.7</ele>
        <time>2021-08-03T14:19:03Z</time>
      </trkpt>
      <trkpt lat="45.74628" lon="3.11334">
        <ele>430.2</ele>
        <time>2021-08-03T14:19:05Z</time>
      </trkpt>
      <trkpt lat="45.74627" lon="3.11337">
        <ele>430.6</ele>
        <time>2021-08-03T14:19:07Z</time>
      </trkpt>
      <trkpt lat="45.74629" lon="3.1134">
        <ele>430.5</ele>
        <time>2021-08-03T14:19:09Z</time>
      </trkpt>
      <trkpt lat="45.7463" lon="3.11344">
        <ele>430.7</ele>
        <time>2021-08-03T14:19:11Z</time>
      </trkpt>
      <trkpt lat="45.74633" lon="3.11346">
        <ele>430.6</ele>
        <time>2021-08-03T14:19:13Z</time>
      </trkpt>
      <trkpt lat="45.74635" lon="3.11349">
        <ele>430.5</ele>
        <time>2021-08-03T14:19:15Z</time>
      </trkpt>
      <trkpt lat="45.74636" lon="3.11353">
        <ele>430.7</ele>
        <time>2021-08-03T14:19:17Z</time>
      </trkpt>
      <trkpt lat="45.74639" lon="3.11356">
        <ele>430.6</ele>
        <time>2021-08-03T14:19:19Z</time>
      </trkpt>
      <trkpt lat="45.7464" lon="3.11359">
        <ele>430.7</ele>
        <time>2021-08-03T14:19:21Z</time>
      </trkpt>
      <trkpt lat="45.74642" lon="3.11362">
        <ele>430.7</ele>
        <time>2021-08-03T14:19:23Z</time>
      </trkpt>
      <trkpt lat="45.74644" lon="3.11364">
        <ele>430.6</ele>
        <time>2021-08-03T14:19:25Z</time>
      </trkpt>
      <trkpt lat="45.74645" lon="3.11368">
        <ele>430.7</ele>
        <time>2021-08-03T14:19:27Z</time>
      </trkpt>
      <trkpt lat="45.74647" lon="3.11371">
        <ele>430.7</ele>
        <time>2021-08-03T14:19:29Z</time>
      </trkpt>
      <trkpt lat="45.74648" lon="3.11373">
        <ele>430.8</ele>
        <time>2021-08-03T14:19:31Z</time>
      </trkpt>
      <trkpt lat="45.7465" lon="3.11376">
        <ele>430.7</ele>
        <time>2021-08-03T14:19:33Z</time>
      </trkpt>
      <trkpt lat="45.7465" lon="3.11375">
        <ele>430.7</ele>
        <time>2021-08-03T14:19:35Z</time>
      </trkpt>
      <trkpt lat="45.74651" lon="3.11376">
        <ele>430.7</ele>
        <time>2021-08-03T14:19:37Z</time>
      </trkpt>
      <trkpt lat="45.74651" lon="3.11376">
        <ele>430.7</ele>
        <time>2021-08-03T14:19:39Z</time>
      </trkpt>
      <trkpt lat="45.74651" lon="3.11376">
        <ele>430.6</ele>
        <time>2021-08-03T14:19:41Z</time>
      </trkpt>
      <trkpt lat="45.74651" lon="3.11376">
        <ele>430.7</ele>
        <time>2021-08-03T14:19:43Z</time>
      </trkpt>
      <trkpt lat="45.74651" lon="3.11376">
        <ele>430.7</ele>
        <time>2021-08-03T14:19:45Z</time>
      </trkpt>
      <trkpt lat="45.74651" lon="3.11376">
        <ele>430.6</ele>
        <time>2021-08-03T14:19:47Z</time>
      </trkpt>
      <trkpt lat="45.74651" lon="3.11376">
        <ele>430.6</ele>
        <time>2021-08-03T14:19:49Z</time>
      </trkpt>
      <trkpt lat="45.74652" lon="3.11376">
        <ele>430.6</ele>
        <time>2021-08-03T14:19:51Z</time>
      </trkpt>
      <trkpt lat="45.74652" lon="3.11376">
        <ele>430.6</ele>
        <time>2021-08-03T14:19:53Z</time>
      </trkpt>
      <trkpt lat="45.74652" lon="3.11376">
        <ele>430.6</ele>
        <time>2021-08-03T14:19:55Z</time>
      </trkpt>
      <trkpt lat="45.74652" lon="3.11376">
        <ele>430.6</ele>
        <time>2021-08-03T14:19:57Z</time>
      </trkpt>
      <trkpt lat="45.74651" lon="3.11377">
        <ele>430.7</ele>
        <time>2021-08-03T14:19:59Z</time>
      </trkpt>
      <trkpt lat="45.74651" lon="3.11377">
        <ele>430.7</ele>
        <time>2021-08-03T14:20:01Z</time>
      </trkpt>
      <trkpt lat="45.74651" lon="3.11377">
        <ele>430.7</ele>
        <time>2021-08-03T14:20:03Z</time>
      </trkpt>
      <trkpt lat="45.74651" lon="3.11377">
        <ele>430.8</ele>
        <time>2021-08-03T14:20:05Z</time>
      </trkpt>
      <trkpt lat="45.74651" lon="3.11377">
        <ele>430.8</ele>
        <time>2021-08-03T14:20:07Z</time>
      </trkpt>
      <trkpt lat="45.74651" lon="3.11377">
        <ele>430.8</ele>
        <time>2021-08-03T14:20:09Z</time>
      </trkpt>
      <trkpt lat="45.74651" lon="3.11377">
        <ele>430.8</ele>
        <time>2021-08-03T14:20:11Z</time>
      </trkpt>
      <trkpt lat="45.74651" lon="3.11377">
        <ele>430.8</ele>
        <time>2021-08-03T14:20:13Z</time>
      </trkpt>
      <trkpt lat="45.74651" lon="3.11377">
        <ele>430.7</ele>
        <time>2021-08-03T14:20:15Z</time>
      </trkpt>
      <trkpt lat="45.74651" lon="3.11377">
        <ele>430.7</ele>
        <time>2021-08-03T14:20:17Z</time>
      </trkpt>
      <trkpt lat="45.74651" lon="3.11377">
        <ele>430.8</ele>
        <time>2021-08-03T14:20:19Z</time>
      </trkpt>
      <trkpt lat="45.74651" lon="3.11378">
        <ele>430.8</ele>
        <time>2021-08-03T14:20:21Z</time>
      </trkpt>
      <trkpt lat="45.74651" lon="3.11378">
        <ele>430.8</ele>
        <time>2021-08-03T14:20:23Z</time>
      </trkpt>
      <trkpt lat="45.74651" lon="3.11378">
        <ele>430.8</ele>
        <time>2021-08-03T14:20:25Z</time>
      </trkpt>
      <trkpt lat="45.7465" lon="3.11377">
        <ele>430.8</ele>
        <time>2021-08-03T14:20:27Z</time>
      </trkpt>
      <trkpt lat="45.7465" lon="3.11377">
        <ele>430.8</ele>
        <time>2021-08-03T14:20:31Z</time>
      </trkpt>
      <trkpt lat="45.7465" lon="3.11377">
        <ele>430.9</ele>
        <time>2021-08-03T14:20:33Z</time>
      </trkpt>
      <trkpt lat="45.7465" lon="3.11377">
        <ele>430.9</ele>
        <time>2021-08-03T14:20:35Z</time>
      </trkpt>
      <trkpt lat="45.7465" lon="3.11377">
        <ele>430.9</ele>
        <time>2021-08-03T14:20:39Z</time>
      </trkpt>
      <trkpt lat="45.7465" lon="3.11377">
        <ele>430.9</ele>
        <time>2021-08-03T14:20:43Z</time>
      </trkpt>
      <trkpt lat="45.7465" lon="3.11377">
        <ele>430.9</ele>
        <time>2021-08-03T14:20:47Z</time>
      </trkpt>
      <trkpt lat="45.7465" lon="3.11377">
        <ele>430.9</ele>
        <time>2021-08-03T14:20:51Z</time>
      </trkpt>
      <trkpt lat="45.7465" lon="3.11377">
        <ele>430.9</ele>
        <time>2021-08-03T14:20:55Z</time>
      </trkpt>
      <trkpt lat="45.7465" lon="3.11377">
        <ele>430.9</ele>
        <time>2021-08-03T14:20:59Z</time>
      </trkpt>
      <trkpt lat="45.7465" lon="3.11378">
        <ele>431</ele>
        <time>2021-08-03T14:21:03Z</time>
      </trkpt>
      <trkpt lat="45.7465" lon="3.11378">
        <ele>430.9</ele>
        <time>2021-08-03T14:21:05Z</time>
      </trkpt>
      <trkpt lat="45.7465" lon="3.11378">
        <ele>430.9</ele>
        <time>2021-08-03T14:21:07Z</time>
      </trkpt>
      <trkpt lat="45.7465" lon="3.11377">
        <ele>430.9</ele>
        <time>2021-08-03T14:21:09Z</time>
      </trkpt>
      <trkpt lat="45.7465" lon="3.11377">
        <ele>430.9</ele>
        <time>2021-08-03T14:21:11Z</time>
      </trkpt>
      <trkpt lat="45.7465" lon="3.11377">
        <ele>430.8</ele>
        <time>2021-08-03T14:21:13Z</time>
      </trkpt>
      <trkpt lat="45.7465" lon="3.11376">
        <ele>430.8</ele>
        <time>2021-08-03T14:21:15Z</time>
      </trkpt>
      <trkpt lat="45.7465" lon="3.11377">
        <ele>430.8</ele>
        <time>2021-08-03T14:21:17Z</time>
      </trkpt>
      <trkpt lat="45.7465" lon="3.11377">
        <ele>430.9</ele>
        <time>2021-08-03T14:21:19Z</time>
      </trkpt>
      <trkpt lat="45.7465" lon="3.11377">
        <ele>430.9</ele>
        <time>2021-08-03T14:21:21Z</time>
      </trkpt>
      <trkpt lat="45.74649" lon="3.11377">
        <ele>430.9</ele>
        <time>2021-08-03T14:21:23Z</time>
      </trkpt>
      <trkpt lat="45.74649" lon="3.11378">
        <ele>431</ele>
        <time>2021-08-03T14:21:25Z</time>
      </trkpt>
      <trkpt lat="45.7465" lon="3.11377">
        <ele>431</ele>
        <time>2021-08-03T14:21:27Z</time>
      </trkpt>
      <trkpt lat="45.7465" lon="3.11378">
        <ele>431</ele>
        <time>2021-08-03T14:21:29Z</time>
      </trkpt>
      <trkpt lat="45.7465" lon="3.11379">
        <ele>431.1</ele>
        <time>2021-08-03T14:21:31Z</time>
      </trkpt>
      <trkpt lat="45.74649" lon="3.1138">
        <ele>431.2</ele>
        <time>2021-08-03T14:21:33Z</time>
      </trkpt>
      <trkpt lat="45.74648" lon="3.11382">
        <ele>431.5</ele>
        <time>2021-08-03T14:21:35Z</time>
      </trkpt>
      <trkpt lat="45.74646" lon="3.11385">
        <ele>432</ele>
        <time>2021-08-03T14:21:37Z</time>
      </trkpt>
      <trkpt lat="45.74645" lon="3.11387">
        <ele>432.4</ele>
        <time>2021-08-03T14:21:39Z</time>
      </trkpt>
      <trkpt lat="45.74642" lon="3.11388">
        <ele>432.9</ele>
        <time>2021-08-03T14:21:41Z</time>
      </trkpt>
      <trkpt lat="45.74639" lon="3.11391">
        <ele>433.5</ele>
        <time>2021-08-03T14:21:43Z</time>
      </trkpt>
      <trkpt lat="45.74637" lon="3.11395">
        <ele>434.1</ele>
        <time>2021-08-03T14:21:45Z</time>
      </trkpt>
      <trkpt lat="45.74635" lon="3.11398">
        <ele>434.6</ele>
        <time>2021-08-03T14:21:47Z</time>
      </trkpt>
      <trkpt lat="45.74633" lon="3.114">
        <ele>435</ele>
        <time>2021-08-03T14:21:49Z</time>
      </trkpt>
      <trkpt lat="45.74631" lon="3.11403">
        <ele>435.5</ele>
        <time>2021-08-03T14:21:51Z</time>
      </trkpt>
      <trkpt lat="45.7463" lon="3.11407">
        <ele>436.1</ele>
        <time>2021-08-03T14:21:53Z</time>
      </trkpt>
      <trkpt lat="45.74628" lon="3.1141">
        <ele>436.6</ele>
        <time>2021-08-03T14:21:55Z</time>
      </trkpt>
      <trkpt lat="45.74625" lon="3.11412">
        <ele>437.1</ele>
        <time>2021-08-03T14:21:57Z</time>
      </trkpt>
      <trkpt lat="45.74623" lon="3.11415">
        <ele>437.6</ele>
        <time>2021-08-03T14:21:59Z</time>
      </trkpt>
      <trkpt lat="45.74621" lon="3.11419">
        <ele>438.2</ele>
        <time>2021-08-03T14:22:01Z</time>
      </trkpt>
      <trkpt lat="45.74619" lon="3.11422">
        <ele>438.6</ele>
        <time>2021-08-03T14:22:03Z</time>
      </trkpt>
      <trkpt lat="45.74616" lon="3.11425">
        <ele>439.1</ele>
        <time>2021-08-03T14:22:05Z</time>
      </trkpt>
      <trkpt lat="45.74613" lon="3.11426">
        <ele>439.5</ele>
        <time>2021-08-03T14:22:07Z</time>
      </trkpt>
      <trkpt lat="45.74611" lon="3.11428">
        <ele>440</ele>
        <time>2021-08-03T14:22:09Z</time>
      </trkpt>
      <trkpt lat="45.74608" lon="3.1143">
        <ele>440.5</ele>
        <time>2021-08-03T14:22:11Z</time>
      </trkpt>
      <trkpt lat="45.74605" lon="3.11432">
        <ele>440.9</ele>
        <time>2021-08-03T14:22:13Z</time>
      </trkpt>
      <trkpt lat="45.74603" lon="3.11434">
        <ele>441.3</ele>
        <time>2021-08-03T14:22:15Z</time>
      </trkpt>
      <trkpt lat="45.74601" lon="3.11436">
        <ele>441.8</ele>
        <time>2021-08-03T14:22:17Z</time>
      </trkpt>
      <trkpt lat="45.74598" lon="3.11439">
        <ele>442.2</ele>
        <time>2021-08-03T14:22:19Z</time>
      </trkpt>
      <trkpt lat="45.74596" lon="3.11441">
        <ele>442.7</ele>
        <time>2021-08-03T14:22:21Z</time>
      </trkpt>
      <trkpt lat="45.74595" lon="3.11444">
        <ele>443.1</ele>
        <time>2021-08-03T14:22:23Z</time>
      </trkpt>
      <trkpt lat="45.74593" lon="3.11447">
        <ele>443.5</ele>
        <time>2021-08-03T14:22:25Z</time>
      </trkpt>
      <trkpt lat="45.74592" lon="3.11449">
        <ele>443.8</ele>
        <time>2021-08-03T14:22:27Z</time>
      </trkpt>
      <trkpt lat="45.7459" lon="3.11452">
        <ele>444.1</ele>
        <time>2021-08-03T14:22:29Z</time>
      </trkpt>
      <trkpt lat="45.74589" lon="3.11455">
        <ele>444.4</ele>
        <time>2021-08-03T14:22:31Z</time>
      </trkpt>
      <trkpt lat="45.74588" lon="3.11458">
        <ele>444.7</ele>
        <time>2021-08-03T14:22:33Z</time>
      </trkpt>
      <trkpt lat="45.74587" lon="3.1146">
        <ele>445</ele>
        <time>2021-08-03T14:22:35Z</time>
      </trkpt>
      <trkpt lat="45.74586" lon="3.11463">
        <ele>445.3</ele>
        <time>2021-08-03T14:22:37Z</time>
      </trkpt>
      <trkpt lat="45.74585" lon="3.11465">
        <ele>445.7</ele>
        <time>2021-08-03T14:22:39Z</time>
      </trkpt>
      <trkpt lat="45.74583" lon="3.11467">
        <ele>446</ele>
        <time>2021-08-03T14:22:41Z</time>
      </trkpt>
      <trkpt lat="45.74582" lon="3.1147">
        <ele>446.3</ele>
        <time>2021-08-03T14:22:43Z</time>
      </trkpt>
      <trkpt lat="45.7458" lon="3.11472">
        <ele>446.6</ele>
        <time>2021-08-03T14:22:45Z</time>
      </trkpt>
      <trkpt lat="45.74579" lon="3.11474">
        <ele>446.8</ele>
        <time>2021-08-03T14:22:47Z</time>
      </trkpt>
      <trkpt lat="45.74578" lon="3.11475">
        <ele>447</ele>
        <time>2021-08-03T14:22:49Z</time>
      </trkpt>
      <trkpt lat="45.74576" lon="3.11477">
        <ele>447.3</ele>
        <time>2021-08-03T14:22:51Z</time>
      </trkpt>
      <trkpt lat="45.74574" lon="3.1148">
        <ele>447.6</ele>
        <time>2021-08-03T14:22:53Z</time>
      </trkpt>
      <trkpt lat="45.74572" lon="3.11482">
        <ele>447.9</ele>
        <time>2021-08-03T14:22:55Z</time>
      </trkpt>
      <trkpt lat="45.7457" lon="3.11483">
        <ele>448.2</ele>
        <time>2021-08-03T14:22:57Z</time>
      </trkpt>
      <trkpt lat="45.74568" lon="3.11485">
        <ele>448.5</ele>
        <time>2021-08-03T14:22:59Z</time>
      </trkpt>
      <trkpt lat="45.74566" lon="3.11487">
        <ele>448.9</ele>
        <time>2021-08-03T14:23:01Z</time>
      </trkpt>
      <trkpt lat="45.74563" lon="3.11489">
        <ele>449.2</ele>
        <time>2021-08-03T14:23:03Z</time>
      </trkpt>
      <trkpt lat="45.74561" lon="3.1149">
        <ele>449.5</ele>
        <time>2021-08-03T14:23:05Z</time>
      </trkpt>
      <trkpt lat="45.74558" lon="3.11491">
        <ele>449.8</ele>
        <time>2021-08-03T14:23:07Z</time>
      </trkpt>
      <trkpt lat="45.74556" lon="3.11493">
        <ele>450.2</ele>
        <time>2021-08-03T14:23:09Z</time>
      </trkpt>
      <trkpt lat="45.74553" lon="3.11494">
        <ele>450.5</ele>
        <time>2021-08-03T14:23:11Z</time>
      </trkpt>
      <trkpt lat="45.7455" lon="3.11496">
        <ele>450.9</ele>
        <time>2021-08-03T14:23:13Z</time>
      </trkpt>
      <trkpt lat="45.74548" lon="3.11497">
        <ele>451.2</ele>
        <time>2021-08-03T14:23:15Z</time>
      </trkpt>
      <trkpt lat="45.74545" lon="3.11499">
        <ele>451.6</ele>
        <time>2021-08-03T14:23:17Z</time>
      </trkpt>
      <trkpt lat="45.74542" lon="3.115">
        <ele>452</ele>
        <time>2021-08-03T14:23:19Z</time>
      </trkpt>
      <trkpt lat="45.7454" lon="3.11502">
        <ele>452.3</ele>
        <time>2021-08-03T14:23:21Z</time>
      </trkpt>
      <trkpt lat="45.74537" lon="3.11503">
        <ele>452.6</ele>
        <time>2021-08-03T14:23:23Z</time>
      </trkpt>
      <trkpt lat="45.74534" lon="3.11504">
        <ele>452.9</ele>
        <time>2021-08-03T14:23:25Z</time>
      </trkpt>
      <trkpt lat="45.74532" lon="3.11505">
        <ele>453.2</ele>
        <time>2021-08-03T14:23:27Z</time>
      </trkpt>
      <trkpt lat="45.74529" lon="3.11507">
        <ele>453.5</ele>
        <time>2021-08-03T14:23:29Z</time>
      </trkpt>
      <trkpt lat="45.74527" lon="3.11507">
        <ele>453.8</ele>
        <time>2021-08-03T14:23:31Z</time>
      </trkpt>
      <trkpt lat="45.74524" lon="3.11508">
        <ele>454.1</ele>
        <time>2021-08-03T14:23:33Z</time>
      </trkpt>
      <trkpt lat="45.74521" lon="3.11508">
        <ele>454.3</ele>
        <time>2021-08-03T14:23:35Z</time>
      </trkpt>
      <trkpt lat="45.74519" lon="3.11508">
        <ele>454.6</ele>
        <time>2021-08-03T14:23:37Z</time>
      </trkpt>
      <trkpt lat="45.74517" lon="3.11509">
        <ele>454.8</ele>
        <time>2021-08-03T14:23:39Z</time>
      </trkpt>
      <trkpt lat="45.74515" lon="3.11511">
        <ele>455.1</ele>
        <time>2021-08-03T14:23:41Z</time>
      </trkpt>
      <trkpt lat="45.74513" lon="3.11513">
        <ele>455.3</ele>
        <time>2021-08-03T14:23:43Z</time>
      </trkpt>
      <trkpt lat="45.7451" lon="3.11515">
        <ele>455.6</ele>
        <time>2021-08-03T14:23:45Z</time>
      </trkpt>
      <trkpt lat="45.74507" lon="3.11516">
        <ele>455.9</ele>
        <time>2021-08-03T14:23:47Z</time>
      </trkpt>
      <trkpt lat="45.74505" lon="3.11518">
        <ele>456.2</ele>
        <time>2021-08-03T14:23:49Z</time>
      </trkpt>
      <trkpt lat="45.74502" lon="3.11519">
        <ele>456.5</ele>
        <time>2021-08-03T14:23:51Z</time>
      </trkpt>
      <trkpt lat="45.745" lon="3.1152">
        <ele>456.7</ele>
        <time>2021-08-03T14:23:53Z</time>
      </trkpt>
      <trkpt lat="45.74497" lon="3.11522">
        <ele>456.8</ele>
        <time>2021-08-03T14:23:55Z</time>
      </trkpt>
      <trkpt lat="45.74494" lon="3.11523">
        <ele>456.9</ele>
        <time>2021-08-03T14:23:57Z</time>
      </trkpt>
      <trkpt lat="45.74492" lon="3.11525">
        <ele>457</ele>
        <time>2021-08-03T14:23:59Z</time>
      </trkpt>
      <trkpt lat="45.74489" lon="3.11526">
        <ele>457.1</ele>
        <time>2021-08-03T14:24:01Z</time>
      </trkpt>
      <trkpt lat="45.74487" lon="3.11527">
        <ele>457.1</ele>
        <time>2021-08-03T14:24:03Z</time>
      </trkpt>
      <trkpt lat="45.74485" lon="3.11529">
        <ele>457.2</ele>
        <time>2021-08-03T14:24:05Z</time>
      </trkpt>
      <trkpt lat="45.74478" lon="3.11553">
        <ele>458.2</ele>
        <time>2021-08-03T14:32:51Z</time>
      </trkpt>
      <trkpt lat="45.74478" lon="3.11553">
        <ele>458.2</ele>
        <time>2021-08-03T14:32:53Z</time>
      </trkpt>
      <trkpt lat="45.74478" lon="3.11553">
        <ele>458.2</ele>
        <time>2021-08-03T14:32:55Z</time>
      </trkpt>
      <trkpt lat="45.74479" lon="3.11553">
        <ele>458.2</ele>
        <time>2021-08-03T14:32:57Z</time>
      </trkpt>
      <trkpt lat="45.7448" lon="3.11554">
        <ele>458.2</ele>
        <time>2021-08-03T14:32:59Z</time>
      </trkpt>
      <trkpt lat="45.74483" lon="3.11554">
        <ele>458.1</ele>
        <time>2021-08-03T14:33:01Z</time>
      </trkpt>
      <trkpt lat="45.74486" lon="3.11555">
        <ele>458.1</ele>
        <time>2021-08-03T14:33:03Z</time>
      </trkpt>
      <trkpt lat="45.74488" lon="3.11558">
        <ele>458.2</ele>
        <time>2021-08-03T14:33:05Z</time>
      </trkpt>
      <trkpt lat="45.7449" lon="3.11563">
        <ele>458.4</ele>
        <time>2021-08-03T14:33:07Z</time>
      </trkpt>
      <trkpt lat="45.74492" lon="3.11568">
        <ele>458.5</ele>
        <time>2021-08-03T14:33:09Z</time>
      </trkpt>
      <trkpt lat="45.74493" lon="3.11571">
        <ele>458.6</ele>
        <time>2021-08-03T14:33:11Z</time>
      </trkpt>
      <trkpt lat="45.74492" lon="3.11573">
        <ele>458.7</ele>
        <time>2021-08-03T14:33:13Z</time>
      </trkpt>
      <trkpt lat="45.74491" lon="3.11572">
        <ele>458.7</ele>
        <time>2021-08-03T14:33:15Z</time>
      </trkpt>
      <trkpt lat="45.7449" lon="3.1157">
        <ele>458.6</ele>
        <time>2021-08-03T14:33:17Z</time>
      </trkpt>
      <trkpt lat="45.74489" lon="3.11568">
        <ele>458.6</ele>
        <time>2021-08-03T14:33:19Z</time>
      </trkpt>
      <trkpt lat="45.7449" lon="3.11567">
        <ele>458.5</ele>
        <time>2021-08-03T14:33:21Z</time>
      </trkpt>
      <trkpt lat="45.74485" lon="3.11556">
        <ele>458.2</ele>
        <time>2021-08-03T14:33:27Z</time>
      </trkpt>
      <trkpt lat="45.74483" lon="3.11553">
        <ele>458.1</ele>
        <time>2021-08-03T14:33:29Z</time>
      </trkpt>
      <trkpt lat="45.74481" lon="3.11548">
        <ele>458</ele>
        <time>2021-08-03T14:33:31Z</time>
      </trkpt>
      <trkpt lat="45.74478" lon="3.11544">
        <ele>457.9</ele>
        <time>2021-08-03T14:33:33Z</time>
      </trkpt>
      <trkpt lat="45.74475" lon="3.1154">
        <ele>457.7</ele>
        <time>2021-08-03T14:33:35Z</time>
      </trkpt>
      <trkpt lat="45.74471" lon="3.11534">
        <ele>457.6</ele>
        <time>2021-08-03T14:33:37Z</time>
      </trkpt>
      <trkpt lat="45.74468" lon="3.11527">
        <ele>457.3</ele>
        <time>2021-08-03T14:33:39Z</time>
      </trkpt>
      <trkpt lat="45.74465" lon="3.11519">
        <ele>457.1</ele>
        <time>2021-08-03T14:33:41Z</time>
      </trkpt>
      <trkpt lat="45.74463" lon="3.11512">
        <ele>456.9</ele>
        <time>2021-08-03T14:33:43Z</time>
      </trkpt>
      <trkpt lat="45.7446" lon="3.11502">
        <ele>456.6</ele>
        <time>2021-08-03T14:33:45Z</time>
      </trkpt>
      <trkpt lat="45.74457" lon="3.11492">
        <ele>456.1</ele>
        <time>2021-08-03T14:33:47Z</time>
      </trkpt>
      <trkpt lat="45.74454" lon="3.1148">
        <ele>455.5</ele>
        <time>2021-08-03T14:33:49Z</time>
      </trkpt>
      <trkpt lat="45.74451" lon="3.11468">
        <ele>454.9</ele>
        <time>2021-08-03T14:33:51Z</time>
      </trkpt>
      <trkpt lat="45.74447" lon="3.11456">
        <ele>454.5</ele>
        <time>2021-08-03T14:33:53Z</time>
      </trkpt>
      <trkpt lat="45.7444" lon="3.11449">
        <ele>454.4</ele>
        <time>2021-08-03T14:33:55Z</time>
      </trkpt>
      <trkpt lat="45.74433" lon="3.11447">
        <ele>454.5</ele>
        <time>2021-08-03T14:33:57Z</time>
      </trkpt>
      <trkpt lat="45.74426" lon="3.1145">
        <ele>454.9</ele>
        <time>2021-08-03T14:33:59Z</time>
      </trkpt>
      <trkpt lat="45.74419" lon="3.11453">
        <ele>455.2</ele>
        <time>2021-08-03T14:34:01Z</time>
      </trkpt>
      <trkpt lat="45.74414" lon="3.11458">
        <ele>455.5</ele>
        <time>2021-08-03T14:34:03Z</time>
      </trkpt>
      <trkpt lat="45.74407" lon="3.11462">
        <ele>455.6</ele>
        <time>2021-08-03T14:34:05Z</time>
      </trkpt>
      <trkpt lat="45.74402" lon="3.11468">
        <ele>455.7</ele>
        <time>2021-08-03T14:34:07Z</time>
      </trkpt>
      <trkpt lat="45.74398" lon="3.11472">
        <ele>455.7</ele>
        <time>2021-08-03T14:34:09Z</time>
      </trkpt>
      <trkpt lat="45.74393" lon="3.11478">
        <ele>455.7</ele>
        <time>2021-08-03T14:34:11Z</time>
      </trkpt>
      <trkpt lat="45.74389" lon="3.11484">
        <ele>455.8</ele>
        <time>2021-08-03T14:34:13Z</time>
      </trkpt>
      <trkpt lat="45.74387" lon="3.11491">
        <ele>455.8</ele>
        <time>2021-08-03T14:34:15Z</time>
      </trkpt>
      <trkpt lat="45.74384" lon="3.11497">
        <ele>455.8</ele>
        <time>2021-08-03T14:34:17Z</time>
      </trkpt>
      <trkpt lat="45.74382" lon="3.11504">
        <ele>455.8</ele>
        <time>2021-08-03T14:34:19Z</time>
      </trkpt>
      <trkpt lat="45.74379" lon="3.11511">
        <ele>455.9</ele>
        <time>2021-08-03T14:34:21Z</time>
      </trkpt>
      <trkpt lat="45.74377" lon="3.11518">
        <ele>455.9</ele>
        <time>2021-08-03T14:34:23Z</time>
      </trkpt>
      <trkpt lat="45.74375" lon="3.11525">
        <ele>456</ele>
        <time>2021-08-03T14:34:25Z</time>
      </trkpt>
      <trkpt lat="45.74373" lon="3.11531">
        <ele>456</ele>
        <time>2021-08-03T14:34:27Z</time>
      </trkpt>
      <trkpt lat="45.74371" lon="3.11536">
        <ele>456</ele>
        <time>2021-08-03T14:34:29Z</time>
      </trkpt>
      <trkpt lat="45.7437" lon="3.11542">
        <ele>456</ele>
        <time>2021-08-03T14:34:31Z</time>
      </trkpt>
      <trkpt lat="45.74368" lon="3.11548">
        <ele>456</ele>
        <time>2021-08-03T14:34:33Z</time>
      </trkpt>
      <trkpt lat="45.74365" lon="3.11555">
        <ele>455.9</ele>
        <time>2021-08-03T14:34:35Z</time>
      </trkpt>
      <trkpt lat="45.7436" lon="3.11562">
        <ele>455.7</ele>
        <time>2021-08-03T14:34:37Z</time>
      </trkpt>
      <trkpt lat="45.74354" lon="3.11569">
        <ele>455.4</ele>
        <time>2021-08-03T14:34:39Z</time>
      </trkpt>
      <trkpt lat="45.74349" lon="3.11575">
        <ele>455.1</ele>
        <time>2021-08-03T14:34:41Z</time>
      </trkpt>
      <trkpt lat="45.74344" lon="3.11582">
        <ele>454.8</ele>
        <time>2021-08-03T14:34:43Z</time>
      </trkpt>
      <trkpt lat="45.74339" lon="3.11589">
        <ele>454.7</ele>
        <time>2021-08-03T14:34:45Z</time>
      </trkpt>
      <trkpt lat="45.74331" lon="3.11595">
        <ele>454.4</ele>
        <time>2021-08-03T14:34:47Z</time>
      </trkpt>
      <trkpt lat="45.74322" lon="3.11594">
        <ele>453.3</ele>
        <time>2021-08-03T14:34:49Z</time>
      </trkpt>
      <trkpt lat="45.74312" lon="3.11588">
        <ele>451.9</ele>
        <time>2021-08-03T14:34:51Z</time>
      </trkpt>
      <trkpt lat="45.74305" lon="3.11573">
        <ele>451.1</ele>
        <time>2021-08-03T14:34:53Z</time>
      </trkpt>
      <trkpt lat="45.74299" lon="3.11555">
        <ele>450.5</ele>
        <time>2021-08-03T14:34:55Z</time>
      </trkpt>
      <trkpt lat="45.74291" lon="3.11537">
        <ele>450</ele>
        <time>2021-08-03T14:34:57Z</time>
      </trkpt>
      <trkpt lat="45.74284" lon="3.11518">
        <ele>449.6</ele>
        <time>2021-08-03T14:34:59Z</time>
      </trkpt>
      <trkpt lat="45.74277" lon="3.115">
        <ele>449.3</ele>
        <time>2021-08-03T14:35:01Z</time>
      </trkpt>
      <trkpt lat="45.74271" lon="3.11482">
        <ele>449.5</ele>
        <time>2021-08-03T14:35:03Z</time>
      </trkpt>
      <trkpt lat="45.74264" lon="3.11465">
        <ele>449.8</ele>
        <time>2021-08-03T14:35:05Z</time>
      </trkpt>
      <trkpt lat="45.74257" lon="3.11449">
        <ele>449.9</ele>
        <time>2021-08-03T14:35:07Z</time>
      </trkpt>
      <trkpt lat="45.74249" lon="3.11436">
        <ele>450</ele>
        <time>2021-08-03T14:35:09Z</time>
      </trkpt>
      <trkpt lat="45.7424" lon="3.11423">
        <ele>449.6</ele>
        <time>2021-08-03T14:35:11Z</time>
      </trkpt>
      <trkpt lat="45.74234" lon="3.1141">
        <ele>449.6</ele>
        <time>2021-08-03T14:35:13Z</time>
      </trkpt>
      <trkpt lat="45.74226" lon="3.11399">
        <ele>449.3</ele>
        <time>2021-08-03T14:35:15Z</time>
      </trkpt>
      <trkpt lat="45.74219" lon="3.11389">
        <ele>449</ele>
        <time>2021-08-03T14:35:17Z</time>
      </trkpt>
      <trkpt lat="45.7421" lon="3.11381">
        <ele>448.4</ele>
        <time>2021-08-03T14:35:19Z</time>
      </trkpt>
      <trkpt lat="45.74201" lon="3.11376">
        <ele>447.7</ele>
        <time>2021-08-03T14:35:21Z</time>
      </trkpt>
      <trkpt lat="45.7419" lon="3.11375">
        <ele>446.5</ele>
        <time>2021-08-03T14:35:23Z</time>
      </trkpt>
      <trkpt lat="45.74179" lon="3.11374">
        <ele>445.4</ele>
        <time>2021-08-03T14:35:25Z</time>
      </trkpt>
      <trkpt lat="45.74168" lon="3.11371">
        <ele>444.3</ele>
        <time>2021-08-03T14:35:27Z</time>
      </trkpt>
      <trkpt lat="45.74156" lon="3.1137">
        <ele>443.3</ele>
        <time>2021-08-03T14:35:29Z</time>
      </trkpt>
      <trkpt lat="45.74146" lon="3.1137">
        <ele>442.2</ele>
        <time>2021-08-03T14:35:31Z</time>
      </trkpt>
      <trkpt lat="45.74136" lon="3.1137">
        <ele>441.3</ele>
        <time>2021-08-03T14:35:33Z</time>
      </trkpt>
      <trkpt lat="45.74128" lon="3.1137">
        <ele>440.5</ele>
        <time>2021-08-03T14:35:35Z</time>
      </trkpt>
      <trkpt lat="45.74122" lon="3.11369">
        <ele>440</ele>
        <time>2021-08-03T14:35:37Z</time>
      </trkpt>
      <trkpt lat="45.74118" lon="3.11367">
        <ele>439.6</ele>
        <time>2021-08-03T14:35:39Z</time>
      </trkpt>
      <trkpt lat="45.74117" lon="3.11367">
        <ele>439.5</ele>
        <time>2021-08-03T14:35:41Z</time>
      </trkpt>
      <trkpt lat="45.74115" lon="3.11366">
        <ele>439.3</ele>
        <time>2021-08-03T14:35:43Z</time>
      </trkpt>
      <trkpt lat="45.74111" lon="3.11369">
        <ele>439</ele>
        <time>2021-08-03T14:35:45Z</time>
      </trkpt>
      <trkpt lat="45.74109" lon="3.11376">
        <ele>438.9</ele>
        <time>2021-08-03T14:35:47Z</time>
      </trkpt>
      <trkpt lat="45.74108" lon="3.11385">
        <ele>438.9</ele>
        <time>2021-08-03T14:35:49Z</time>
      </trkpt>
      <trkpt lat="45.74108" lon="3.11394">
        <ele>438.9</ele>
        <time>2021-08-03T14:35:51Z</time>
      </trkpt>
      <trkpt lat="45.74106" lon="3.11404">
        <ele>439</ele>
        <time>2021-08-03T14:35:53Z</time>
      </trkpt>
      <trkpt lat="45.74106" lon="3.11414">
        <ele>439</ele>
        <time>2021-08-03T14:35:55Z</time>
      </trkpt>
      <trkpt lat="45.74105" lon="3.11424">
        <ele>438.9</ele>
        <time>2021-08-03T14:35:57Z</time>
      </trkpt>
      <trkpt lat="45.74106" lon="3.11435">
        <ele>438.8</ele>
        <time>2021-08-03T14:35:59Z</time>
      </trkpt>
      <trkpt lat="45.74107" lon="3.11446">
        <ele>438.7</ele>
        <time>2021-08-03T14:36:01Z</time>
      </trkpt>
      <trkpt lat="45.74108" lon="3.11458">
        <ele>438.6</ele>
        <time>2021-08-03T14:36:03Z</time>
      </trkpt>
      <trkpt lat="45.74108" lon="3.11469">
        <ele>438.4</ele>
        <time>2021-08-03T14:36:05Z</time>
      </trkpt>
      <trkpt lat="45.74101" lon="3.11475">
        <ele>438</ele>
        <time>2021-08-03T14:36:07Z</time>
      </trkpt>
      <trkpt lat="45.74092" lon="3.11473">
        <ele>437.7</ele>
        <time>2021-08-03T14:36:09Z</time>
      </trkpt>
      <trkpt lat="45.74086" lon="3.1147">
        <ele>437.5</ele>
        <time>2021-08-03T14:36:11Z</time>
      </trkpt>
      <trkpt lat="45.7408" lon="3.11469">
        <ele>437.8</ele>
        <time>2021-08-03T14:36:13Z</time>
      </trkpt>
      <trkpt lat="45.74074" lon="3.11468">
        <ele>438.6</ele>
        <time>2021-08-03T14:36:15Z</time>
      </trkpt>
      <trkpt lat="45.74068" lon="3.11467">
        <ele>439.2</ele>
        <time>2021-08-03T14:36:17Z</time>
      </trkpt>
      <trkpt lat="45.74063" lon="3.11465">
        <ele>439.8</ele>
        <time>2021-08-03T14:36:19Z</time>
      </trkpt>
      <trkpt lat="45.74058" lon="3.11464">
        <ele>440.4</ele>
        <time>2021-08-03T14:36:21Z</time>
      </trkpt>
      <trkpt lat="45.74054" lon="3.11463">
        <ele>441</ele>
        <time>2021-08-03T14:36:23Z</time>
      </trkpt>
      <trkpt lat="45.74049" lon="3.11462">
        <ele>441.6</ele>
        <time>2021-08-03T14:36:25Z</time>
      </trkpt>
      <trkpt lat="45.74046" lon="3.1146">
        <ele>442</ele>
        <time>2021-08-03T14:36:27Z</time>
      </trkpt>
      <trkpt lat="45.74041" lon="3.11461">
        <ele>442.5</ele>
        <time>2021-08-03T14:36:29Z</time>
      </trkpt>
      <trkpt lat="45.74037" lon="3.11465">
        <ele>442.9</ele>
        <time>2021-08-03T14:36:31Z</time>
      </trkpt>
      <trkpt lat="45.74036" lon="3.11472">
        <ele>443.1</ele>
        <time>2021-08-03T14:36:33Z</time>
      </trkpt>
      <trkpt lat="45.74035" lon="3.11478">
        <ele>443.1</ele>
        <time>2021-08-03T14:36:35Z</time>
      </trkpt>
      <trkpt lat="45.74033" lon="3.11485">
        <ele>443.2</ele>
        <time>2021-08-03T14:36:37Z</time>
      </trkpt>
      <trkpt lat="45.74031" lon="3.11491">
        <ele>443.3</ele>
        <time>2021-08-03T14:36:39Z</time>
      </trkpt>
      <trkpt lat="45.7403" lon="3.11497">
        <ele>443.5</ele>
        <time>2021-08-03T14:36:41Z</time>
      </trkpt>
      <trkpt lat="45.74028" lon="3.11503">
        <ele>443.6</ele>
        <time>2021-08-03T14:36:43Z</time>
      </trkpt>
      <trkpt lat="45.74026" lon="3.11508">
        <ele>443.7</ele>
        <time>2021-08-03T14:36:45Z</time>
      </trkpt>
      <trkpt lat="45.74023" lon="3.11513">
        <ele>444</ele>
        <time>2021-08-03T14:36:47Z</time>
      </trkpt>
      <trkpt lat="45.7402" lon="3.11516">
        <ele>444.3</ele>
        <time>2021-08-03T14:36:49Z</time>
      </trkpt>
      <trkpt lat="45.74017" lon="3.1152">
        <ele>444.6</ele>
        <time>2021-08-03T14:36:51Z</time>
      </trkpt>
      <trkpt lat="45.74013" lon="3.11524">
        <ele>445</ele>
        <time>2021-08-03T14:36:53Z</time>
      </trkpt>
      <trkpt lat="45.74009" lon="3.11527">
        <ele>445.4</ele>
        <time>2021-08-03T14:36:55Z</time>
      </trkpt>
      <trkpt lat="45.74005" lon="3.11531">
        <ele>445.8</ele>
        <time>2021-08-03T14:36:57Z</time>
      </trkpt>
      <trkpt lat="45.74001" lon="3.11535">
        <ele>446.1</ele>
        <time>2021-08-03T14:36:59Z</time>
      </trkpt>
      <trkpt lat="45.73996" lon="3.11539">
        <ele>446.3</ele>
        <time>2021-08-03T14:37:01Z</time>
      </trkpt>
      <trkpt lat="45.73992" lon="3.11543">
        <ele>446.5</ele>
        <time>2021-08-03T14:37:03Z</time>
      </trkpt>
      <trkpt lat="45.73987" lon="3.11546">
        <ele>446.7</ele>
        <time>2021-08-03T14:37:05Z</time>
      </trkpt>
      <trkpt lat="45.73983" lon="3.1155">
        <ele>446.9</ele>
        <time>2021-08-03T14:37:07Z</time>
      </trkpt>
      <trkpt lat="45.73979" lon="3.11554">
        <ele>447.2</ele>
        <time>2021-08-03T14:37:09Z</time>
      </trkpt>
      <trkpt lat="45.73974" lon="3.11558">
        <ele>447.4</ele>
        <time>2021-08-03T14:37:11Z</time>
      </trkpt>
      <trkpt lat="45.7397" lon="3.11562">
        <ele>447.6</ele>
        <time>2021-08-03T14:37:13Z</time>
      </trkpt>
      <trkpt lat="45.73965" lon="3.11566">
        <ele>447.9</ele>
        <time>2021-08-03T14:37:15Z</time>
      </trkpt>
      <trkpt lat="45.7396" lon="3.11568">
        <ele>448.2</ele>
        <time>2021-08-03T14:37:17Z</time>
      </trkpt>
      <trkpt lat="45.73955" lon="3.11571">
        <ele>448.5</ele>
        <time>2021-08-03T14:37:19Z</time>
      </trkpt>
      <trkpt lat="45.7395" lon="3.11574">
        <ele>448.8</ele>
        <time>2021-08-03T14:37:21Z</time>
      </trkpt>
      <trkpt lat="45.73944" lon="3.11577">
        <ele>449.1</ele>
        <time>2021-08-03T14:37:23Z</time>
      </trkpt>
      <trkpt lat="45.73939" lon="3.1158">
        <ele>449.4</ele>
        <time>2021-08-03T14:37:25Z</time>
      </trkpt>
      <trkpt lat="45.73934" lon="3.11583">
        <ele>449.8</ele>
        <time>2021-08-03T14:37:27Z</time>
      </trkpt>
      <trkpt lat="45.73929" lon="3.11586">
        <ele>450</ele>
        <time>2021-08-03T14:37:29Z</time>
      </trkpt>
      <trkpt lat="45.73924" lon="3.1159">
        <ele>450.3</ele>
        <time>2021-08-03T14:37:31Z</time>
      </trkpt>
      <trkpt lat="45.73919" lon="3.11593">
        <ele>450.5</ele>
        <time>2021-08-03T14:37:33Z</time>
      </trkpt>
      <trkpt lat="45.73913" lon="3.11596">
        <ele>450.8</ele>
        <time>2021-08-03T14:37:35Z</time>
      </trkpt>
      <trkpt lat="45.73908" lon="3.11599">
        <ele>451</ele>
        <time>2021-08-03T14:37:37Z</time>
      </trkpt>
      <trkpt lat="45.73903" lon="3.11603">
        <ele>451.3</ele>
        <time>2021-08-03T14:37:39Z</time>
      </trkpt>
      <trkpt lat="45.73897" lon="3.11606">
        <ele>451.5</ele>
        <time>2021-08-03T14:37:41Z</time>
      </trkpt>
      <trkpt lat="45.73892" lon="3.11609">
        <ele>451.8</ele>
        <time>2021-08-03T14:37:43Z</time>
      </trkpt>
      <trkpt lat="45.73887" lon="3.11614">
        <ele>452</ele>
        <time>2021-08-03T14:37:45Z</time>
      </trkpt>
      <trkpt lat="45.73883" lon="3.11618">
        <ele>452.3</ele>
        <time>2021-08-03T14:37:47Z</time>
      </trkpt>
      <trkpt lat="45.73879" lon="3.11624">
        <ele>452.5</ele>
        <time>2021-08-03T14:37:49Z</time>
      </trkpt>
      <trkpt lat="45.73875" lon="3.1163">
        <ele>452.7</ele>
        <time>2021-08-03T14:37:51Z</time>
      </trkpt>
      <trkpt lat="45.73872" lon="3.11635">
        <ele>452.8</ele>
        <time>2021-08-03T14:37:53Z</time>
      </trkpt>
      <trkpt lat="45.73868" lon="3.1164">
        <ele>453.1</ele>
        <time>2021-08-03T14:37:55Z</time>
      </trkpt>
      <trkpt lat="45.73865" lon="3.11645">
        <ele>453.3</ele>
        <time>2021-08-03T14:37:57Z</time>
      </trkpt>
      <trkpt lat="45.73861" lon="3.1165">
        <ele>453.5</ele>
        <time>2021-08-03T14:37:59Z</time>
      </trkpt>
      <trkpt lat="45.73858" lon="3.11655">
        <ele>453.7</ele>
        <time>2021-08-03T14:38:01Z</time>
      </trkpt>
      <trkpt lat="45.73855" lon="3.1166">
        <ele>454</ele>
        <time>2021-08-03T14:38:03Z</time>
      </trkpt>
      <trkpt lat="45.73852" lon="3.11665">
        <ele>454.2</ele>
        <time>2021-08-03T14:38:05Z</time>
      </trkpt>
      <trkpt lat="45.73849" lon="3.1167">
        <ele>454.4</ele>
        <time>2021-08-03T14:38:07Z</time>
      </trkpt>
      <trkpt lat="45.73846" lon="3.11673">
        <ele>454.7</ele>
        <time>2021-08-03T14:38:09Z</time>
      </trkpt>
      <trkpt lat="45.73843" lon="3.11678">
        <ele>454.9</ele>
        <time>2021-08-03T14:38:11Z</time>
      </trkpt>
      <trkpt lat="45.73841" lon="3.11682">
        <ele>455.2</ele>
        <time>2021-08-03T14:38:13Z</time>
      </trkpt>
      <trkpt lat="45.73837" lon="3.11686">
        <ele>455.5</ele>
        <time>2021-08-03T14:38:15Z</time>
      </trkpt>
      <trkpt lat="45.73834" lon="3.11691">
        <ele>455.9</ele>
        <time>2021-08-03T14:38:17Z</time>
      </trkpt>
      <trkpt lat="45.73831" lon="3.11695">
        <ele>456.2</ele>
        <time>2021-08-03T14:38:19Z</time>
      </trkpt>
      <trkpt lat="45.73829" lon="3.117">
        <ele>456.4</ele>
        <time>2021-08-03T14:38:21Z</time>
      </trkpt>
      <trkpt lat="45.73826" lon="3.11706">
        <ele>456.6</ele>
        <time>2021-08-03T14:38:23Z</time>
      </trkpt>
      <trkpt lat="45.73824" lon="3.11711">
        <ele>456.9</ele>
        <time>2021-08-03T14:38:25Z</time>
      </trkpt>
      <trkpt lat="45.73821" lon="3.11716">
        <ele>457.1</ele>
        <time>2021-08-03T14:38:27Z</time>
      </trkpt>
      <trkpt lat="45.73819" lon="3.11722">
        <ele>457.3</ele>
        <time>2021-08-03T14:38:29Z</time>
      </trkpt>
      <trkpt lat="45.73816" lon="3.11727">
        <ele>457.6</ele>
        <time>2021-08-03T14:38:31Z</time>
      </trkpt>
      <trkpt lat="45.73814" lon="3.11732">
        <ele>457.8</ele>
        <time>2021-08-03T14:38:33Z</time>
      </trkpt>
      <trkpt lat="45.73812" lon="3.11738">
        <ele>458</ele>
        <time>2021-08-03T14:38:35Z</time>
      </trkpt>
      <trkpt lat="45.7381" lon="3.11743">
        <ele>458.2</ele>
        <time>2021-08-03T14:38:37Z</time>
      </trkpt>
      <trkpt lat="45.73808" lon="3.11749">
        <ele>458.5</ele>
        <time>2021-08-03T14:38:39Z</time>
      </trkpt>
      <trkpt lat="45.73805" lon="3.11754">
        <ele>458.7</ele>
        <time>2021-08-03T14:38:41Z</time>
      </trkpt>
      <trkpt lat="45.73803" lon="3.1176">
        <ele>459</ele>
        <time>2021-08-03T14:38:43Z</time>
      </trkpt>
      <trkpt lat="45.73801" lon="3.11766">
        <ele>459.2</ele>
        <time>2021-08-03T14:38:45Z</time>
      </trkpt>
      <trkpt lat="45.738" lon="3.11771">
        <ele>459.4</ele>
        <time>2021-08-03T14:38:47Z</time>
      </trkpt>
      <trkpt lat="45.73799" lon="3.11777">
        <ele>459.6</ele>
        <time>2021-08-03T14:38:49Z</time>
      </trkpt>
      <trkpt lat="45.73798" lon="3.11783">
        <ele>459.8</ele>
        <time>2021-08-03T14:38:51Z</time>
      </trkpt>
      <trkpt lat="45.73796" lon="3.11789">
        <ele>460</ele>
        <time>2021-08-03T14:38:53Z</time>
      </trkpt>
      <trkpt lat="45.73795" lon="3.11795">
        <ele>460.1</ele>
        <time>2021-08-03T14:38:55Z</time>
      </trkpt>
      <trkpt lat="45.73793" lon="3.118">
        <ele>460.4</ele>
        <time>2021-08-03T14:38:57Z</time>
      </trkpt>
      <trkpt lat="45.73792" lon="3.11806">
        <ele>460.7</ele>
        <time>2021-08-03T14:38:59Z</time>
      </trkpt>
      <trkpt lat="45.7379" lon="3.11812">
        <ele>460.9</ele>
        <time>2021-08-03T14:39:01Z</time>
      </trkpt>
      <trkpt lat="45.73788" lon="3.11818">
        <ele>461.2</ele>
        <time>2021-08-03T14:39:03Z</time>
      </trkpt>
      <trkpt lat="45.73785" lon="3.11823">
        <ele>461.6</ele>
        <time>2021-08-03T14:39:05Z</time>
      </trkpt>
      <trkpt lat="45.73783" lon="3.11829">
        <ele>462</ele>
        <time>2021-08-03T14:39:07Z</time>
      </trkpt>
      <trkpt lat="45.73781" lon="3.11835">
        <ele>462.3</ele>
        <time>2021-08-03T14:39:09Z</time>
      </trkpt>
      <trkpt lat="45.73779" lon="3.11841">
        <ele>462.3</ele>
        <time>2021-08-03T14:39:11Z</time>
      </trkpt>
      <trkpt lat="45.73777" lon="3.11847">
        <ele>462.4</ele>
        <time>2021-08-03T14:39:13Z</time>
      </trkpt>
      <trkpt lat="45.73774" lon="3.11852">
        <ele>462.6</ele>
        <time>2021-08-03T14:39:15Z</time>
      </trkpt>
      <trkpt lat="45.73772" lon="3.11858">
        <ele>462.6</ele>
        <time>2021-08-03T14:39:17Z</time>
      </trkpt>
      <trkpt lat="45.7377" lon="3.11863">
        <ele>462.8</ele>
        <time>2021-08-03T14:39:19Z</time>
      </trkpt>
      <trkpt lat="45.73768" lon="3.11869">
        <ele>462.8</ele>
        <time>2021-08-03T14:39:21Z</time>
      </trkpt>
      <trkpt lat="45.73766" lon="3.11875">
        <ele>463</ele>
        <time>2021-08-03T14:39:23Z</time>
      </trkpt>
      <trkpt lat="45.73763" lon="3.11881">
        <ele>463.2</ele>
        <time>2021-08-03T14:39:25Z</time>
      </trkpt>
      <trkpt lat="45.73761" lon="3.11887">
        <ele>463.3</ele>
        <time>2021-08-03T14:39:27Z</time>
      </trkpt>
      <trkpt lat="45.73759" lon="3.11893">
        <ele>463.4</ele>
        <time>2021-08-03T14:39:29Z</time>
      </trkpt>
      <trkpt lat="45.73757" lon="3.11899">
        <ele>463.6</ele>
        <time>2021-08-03T14:39:31Z</time>
      </trkpt>
      <trkpt lat="45.73754" lon="3.11905">
        <ele>463.7</ele>
        <time>2021-08-03T14:39:33Z</time>
      </trkpt>
      <trkpt lat="45.73751" lon="3.11911">
        <ele>464</ele>
        <time>2021-08-03T14:39:35Z</time>
      </trkpt>
      <trkpt lat="45.73748" lon="3.11917">
        <ele>464.2</ele>
        <time>2021-08-03T14:39:37Z</time>
      </trkpt>
      <trkpt lat="45.73746" lon="3.11923">
        <ele>464.4</ele>
        <time>2021-08-03T14:39:39Z</time>
      </trkpt>
      <trkpt lat="45.73744" lon="3.1193">
        <ele>464.4</ele>
        <time>2021-08-03T14:39:41Z</time>
      </trkpt>
      <trkpt lat="45.73741" lon="3.11936">
        <ele>464.6</ele>
        <time>2021-08-03T14:39:43Z</time>
      </trkpt>
      <trkpt lat="45.73739" lon="3.11942">
        <ele>464.5</ele>
        <time>2021-08-03T14:39:45Z</time>
      </trkpt>
      <trkpt lat="45.73736" lon="3.11948">
        <ele>464.7</ele>
        <time>2021-08-03T14:39:47Z</time>
      </trkpt>
      <trkpt lat="45.73733" lon="3.11954">
        <ele>464.8</ele>
        <time>2021-08-03T14:39:49Z</time>
      </trkpt>
      <trkpt lat="45.73731" lon="3.11961">
        <ele>464.8</ele>
        <time>2021-08-03T14:39:51Z</time>
      </trkpt>
      <trkpt lat="45.73728" lon="3.11967">
        <ele>464.9</ele>
        <time>2021-08-03T14:39:53Z</time>
      </trkpt>
      <trkpt lat="45.73726" lon="3.11974">
        <ele>465</ele>
        <time>2021-08-03T14:39:55Z</time>
      </trkpt>
      <trkpt lat="45.73723" lon="3.1198">
        <ele>464.9</ele>
        <time>2021-08-03T14:39:57Z</time>
      </trkpt>
      <trkpt lat="45.73721" lon="3.11987">
        <ele>464.9</ele>
        <time>2021-08-03T14:39:59Z</time>
      </trkpt>
      <trkpt lat="45.73718" lon="3.11992">
        <ele>465</ele>
        <time>2021-08-03T14:40:01Z</time>
      </trkpt>
      <trkpt lat="45.73716" lon="3.11999">
        <ele>464.9</ele>
        <time>2021-08-03T14:40:03Z</time>
      </trkpt>
      <trkpt lat="45.73713" lon="3.12004">
        <ele>465</ele>
        <time>2021-08-03T14:40:05Z</time>
      </trkpt>
      <trkpt lat="45.73711" lon="3.1201">
        <ele>465.1</ele>
        <time>2021-08-03T14:40:07Z</time>
      </trkpt>
      <trkpt lat="45.73707" lon="3.12016">
        <ele>465.3</ele>
        <time>2021-08-03T14:40:09Z</time>
      </trkpt>
      <trkpt lat="45.73704" lon="3.12021">
        <ele>465.5</ele>
        <time>2021-08-03T14:40:11Z</time>
      </trkpt>
      <trkpt lat="45.73701" lon="3.12027">
        <ele>465.7</ele>
        <time>2021-08-03T14:40:13Z</time>
      </trkpt>
      <trkpt lat="45.73698" lon="3.12032">
        <ele>465.9</ele>
        <time>2021-08-03T14:40:15Z</time>
      </trkpt>
      <trkpt lat="45.73694" lon="3.12036">
        <ele>466.1</ele>
        <time>2021-08-03T14:40:17Z</time>
      </trkpt>
      <trkpt lat="45.73691" lon="3.12041">
        <ele>466.4</ele>
        <time>2021-08-03T14:40:19Z</time>
      </trkpt>
      <trkpt lat="45.73687" lon="3.12046">
        <ele>466.7</ele>
        <time>2021-08-03T14:40:21Z</time>
      </trkpt>
      <trkpt lat="45.73683" lon="3.12051">
        <ele>467</ele>
        <time>2021-08-03T14:40:23Z</time>
      </trkpt>
      <trkpt lat="45.73679" lon="3.12056">
        <ele>467.4</ele>
        <time>2021-08-03T14:40:25Z</time>
      </trkpt>
      <trkpt lat="45.73675" lon="3.12062">
        <ele>467.7</ele>
        <time>2021-08-03T14:40:27Z</time>
      </trkpt>
      <trkpt lat="45.7367" lon="3.12069">
        <ele>468.1</ele>
        <time>2021-08-03T14:40:29Z</time>
      </trkpt>
      <trkpt lat="45.73665" lon="3.12077">
        <ele>468.6</ele>
        <time>2021-08-03T14:40:31Z</time>
      </trkpt>
      <trkpt lat="45.7366" lon="3.12085">
        <ele>469.2</ele>
        <time>2021-08-03T14:40:33Z</time>
      </trkpt>
      <trkpt lat="45.73656" lon="3.12093">
        <ele>469.8</ele>
        <time>2021-08-03T14:40:35Z</time>
      </trkpt>
      <trkpt lat="45.73651" lon="3.12102">
        <ele>470.3</ele>
        <time>2021-08-03T14:40:37Z</time>
      </trkpt>
      <trkpt lat="45.73646" lon="3.12111">
        <ele>470.8</ele>
        <time>2021-08-03T14:40:39Z</time>
      </trkpt>
      <trkpt lat="45.73641" lon="3.1212">
        <ele>471.2</ele>
        <time>2021-08-03T14:40:41Z</time>
      </trkpt>
      <trkpt lat="45.73636" lon="3.12129">
        <ele>471.6</ele>
        <time>2021-08-03T14:40:43Z</time>
      </trkpt>
      <trkpt lat="45.73631" lon="3.12138">
        <ele>471.9</ele>
        <time>2021-08-03T14:40:45Z</time>
      </trkpt>
      <trkpt lat="45.73626" lon="3.12148">
        <ele>472.1</ele>
        <time>2021-08-03T14:40:47Z</time>
      </trkpt>
      <trkpt lat="45.73622" lon="3.12156">
        <ele>472.2</ele>
        <time>2021-08-03T14:40:49Z</time>
      </trkpt>
      <trkpt lat="45.73618" lon="3.12164">
        <ele>472.2</ele>
        <time>2021-08-03T14:40:51Z</time>
      </trkpt>
      <trkpt lat="45.73613" lon="3.12173">
        <ele>472.3</ele>
        <time>2021-08-03T14:40:53Z</time>
      </trkpt>
      <trkpt lat="45.73609" lon="3.1218">
        <ele>472.2</ele>
        <time>2021-08-03T14:40:55Z</time>
      </trkpt>
      <trkpt lat="45.73605" lon="3.12188">
        <ele>472</ele>
        <time>2021-08-03T14:40:57Z</time>
      </trkpt>
      <trkpt lat="45.73601" lon="3.12196">
        <ele>471.8</ele>
        <time>2021-08-03T14:40:59Z</time>
      </trkpt>
      <trkpt lat="45.73597" lon="3.12204">
        <ele>471.5</ele>
        <time>2021-08-03T14:41:01Z</time>
      </trkpt>
      <trkpt lat="45.73593" lon="3.12211">
        <ele>471.2</ele>
        <time>2021-08-03T14:41:03Z</time>
      </trkpt>
      <trkpt lat="45.73588" lon="3.12219">
        <ele>470.9</ele>
        <time>2021-08-03T14:41:05Z</time>
      </trkpt>
      <trkpt lat="45.73584" lon="3.12227">
        <ele>470.5</ele>
        <time>2021-08-03T14:41:07Z</time>
      </trkpt>
      <trkpt lat="45.73578" lon="3.12234">
        <ele>470.8</ele>
        <time>2021-08-03T14:41:09Z</time>
      </trkpt>
      <trkpt lat="45.73573" lon="3.1224">
        <ele>471.2</ele>
        <time>2021-08-03T14:41:11Z</time>
      </trkpt>
      <trkpt lat="45.73568" lon="3.12247">
        <ele>471.4</ele>
        <time>2021-08-03T14:41:13Z</time>
      </trkpt>
      <trkpt lat="45.73563" lon="3.12253">
        <ele>472</ele>
        <time>2021-08-03T14:41:15Z</time>
      </trkpt>
      <trkpt lat="45.73558" lon="3.12259">
        <ele>472.6</ele>
        <time>2021-08-03T14:41:17Z</time>
      </trkpt>
      <trkpt lat="45.73554" lon="3.12264">
        <ele>473.2</ele>
        <time>2021-08-03T14:41:19Z</time>
      </trkpt>
      <trkpt lat="45.73549" lon="3.1227">
        <ele>473.8</ele>
        <time>2021-08-03T14:41:21Z</time>
      </trkpt>
      <trkpt lat="45.73545" lon="3.12274">
        <ele>474.4</ele>
        <time>2021-08-03T14:41:23Z</time>
      </trkpt>
      <trkpt lat="45.73541" lon="3.12279">
        <ele>474.9</ele>
        <time>2021-08-03T14:41:25Z</time>
      </trkpt>
      <trkpt lat="45.73537" lon="3.12283">
        <ele>475.5</ele>
        <time>2021-08-03T14:41:27Z</time>
      </trkpt>
      <trkpt lat="45.73534" lon="3.12285">
        <ele>476</ele>
        <time>2021-08-03T14:41:29Z</time>
      </trkpt>
      <trkpt lat="45.7353" lon="3.1229">
        <ele>476.5</ele>
        <time>2021-08-03T14:41:31Z</time>
      </trkpt>
      <trkpt lat="45.73527" lon="3.12294">
        <ele>476.9</ele>
        <time>2021-08-03T14:41:33Z</time>
      </trkpt>
      <trkpt lat="45.73523" lon="3.12298">
        <ele>477.3</ele>
        <time>2021-08-03T14:41:35Z</time>
      </trkpt>
      <trkpt lat="45.7352" lon="3.12301">
        <ele>477.8</ele>
        <time>2021-08-03T14:41:37Z</time>
      </trkpt>
      <trkpt lat="45.73517" lon="3.12305">
        <ele>478.2</ele>
        <time>2021-08-03T14:41:39Z</time>
      </trkpt>
      <trkpt lat="45.73514" lon="3.12309">
        <ele>478.7</ele>
        <time>2021-08-03T14:41:41Z</time>
      </trkpt>
      <trkpt lat="45.73511" lon="3.12313">
        <ele>479.1</ele>
        <time>2021-08-03T14:41:43Z</time>
      </trkpt>
      <trkpt lat="45.73507" lon="3.12316">
        <ele>479.5</ele>
        <time>2021-08-03T14:41:45Z</time>
      </trkpt>
      <trkpt lat="45.73504" lon="3.1232">
        <ele>479.9</ele>
        <time>2021-08-03T14:41:47Z</time>
      </trkpt>
      <trkpt lat="45.73501" lon="3.12324">
        <ele>480.3</ele>
        <time>2021-08-03T14:41:49Z</time>
      </trkpt>
      <trkpt lat="45.73498" lon="3.12326">
        <ele>480.6</ele>
        <time>2021-08-03T14:41:51Z</time>
      </trkpt>
      <trkpt lat="45.73495" lon="3.1233">
        <ele>480.8</ele>
        <time>2021-08-03T14:41:53Z</time>
      </trkpt>
      <trkpt lat="45.73493" lon="3.12333">
        <ele>481.1</ele>
        <time>2021-08-03T14:41:55Z</time>
      </trkpt>
      <trkpt lat="45.7349" lon="3.12335">
        <ele>481.4</ele>
        <time>2021-08-03T14:41:57Z</time>
      </trkpt>
      <trkpt lat="45.73488" lon="3.12338">
        <ele>481.6</ele>
        <time>2021-08-03T14:41:59Z</time>
      </trkpt>
      <trkpt lat="45.73485" lon="3.12341">
        <ele>481.9</ele>
        <time>2021-08-03T14:42:01Z</time>
      </trkpt>
      <trkpt lat="45.73482" lon="3.12344">
        <ele>482</ele>
        <time>2021-08-03T14:42:03Z</time>
      </trkpt>
      <trkpt lat="45.7348" lon="3.12347">
        <ele>482.3</ele>
        <time>2021-08-03T14:42:05Z</time>
      </trkpt>
      <trkpt lat="45.73478" lon="3.12349">
        <ele>482.4</ele>
        <time>2021-08-03T14:42:07Z</time>
      </trkpt>
      <trkpt lat="45.73475" lon="3.12352">
        <ele>482.6</ele>
        <time>2021-08-03T14:42:09Z</time>
      </trkpt>
      <trkpt lat="45.73473" lon="3.12355">
        <ele>482.7</ele>
        <time>2021-08-03T14:42:11Z</time>
      </trkpt>
      <trkpt lat="45.73471" lon="3.12358">
        <ele>482.9</ele>
        <time>2021-08-03T14:42:13Z</time>
      </trkpt>
      <trkpt lat="45.73468" lon="3.1236">
        <ele>483.1</ele>
        <time>2021-08-03T14:42:15Z</time>
      </trkpt>
      <trkpt lat="45.73466" lon="3.12362">
        <ele>483.3</ele>
        <time>2021-08-03T14:42:17Z</time>
      </trkpt>
      <trkpt lat="45.73464" lon="3.12366">
        <ele>483.4</ele>
        <time>2021-08-03T14:42:19Z</time>
      </trkpt>
      <trkpt lat="45.73462" lon="3.12368">
        <ele>483.5</ele>
        <time>2021-08-03T14:42:21Z</time>
      </trkpt>
      <trkpt lat="45.73459" lon="3.12371">
        <ele>483.6</ele>
        <time>2021-08-03T14:42:23Z</time>
      </trkpt>
      <trkpt lat="45.73457" lon="3.12375">
        <ele>483.7</ele>
        <time>2021-08-03T14:42:25Z</time>
      </trkpt>
      <trkpt lat="45.73454" lon="3.12377">
        <ele>483.9</ele>
        <time>2021-08-03T14:42:27Z</time>
      </trkpt>
      <trkpt lat="45.73452" lon="3.1238">
        <ele>484</ele>
        <time>2021-08-03T14:42:29Z</time>
      </trkpt>
      <trkpt lat="45.73449" lon="3.12384">
        <ele>484.1</ele>
        <time>2021-08-03T14:42:31Z</time>
      </trkpt>
      <trkpt lat="45.73446" lon="3.12386">
        <ele>484.2</ele>
        <time>2021-08-03T14:42:33Z</time>
      </trkpt>
      <trkpt lat="45.73443" lon="3.12389">
        <ele>484.4</ele>
        <time>2021-08-03T14:42:35Z</time>
      </trkpt>
      <trkpt lat="45.7344" lon="3.12391">
        <ele>484.6</ele>
        <time>2021-08-03T14:42:37Z</time>
      </trkpt>
      <trkpt lat="45.73437" lon="3.12394">
        <ele>484.7</ele>
        <time>2021-08-03T14:42:39Z</time>
      </trkpt>
      <trkpt lat="45.73434" lon="3.12397">
        <ele>484.8</ele>
        <time>2021-08-03T14:42:41Z</time>
      </trkpt>
      <trkpt lat="45.73431" lon="3.12399">
        <ele>485</ele>
        <time>2021-08-03T14:42:43Z</time>
      </trkpt>
      <trkpt lat="45.73428" lon="3.12402">
        <ele>485.1</ele>
        <time>2021-08-03T14:42:45Z</time>
      </trkpt>
      <trkpt lat="45.73425" lon="3.12405">
        <ele>485.1</ele>
        <time>2021-08-03T14:42:47Z</time>
      </trkpt>
      <trkpt lat="45.73423" lon="3.12407">
        <ele>485.2</ele>
        <time>2021-08-03T14:42:49Z</time>
      </trkpt>
      <trkpt lat="45.7342" lon="3.12409">
        <ele>485.3</ele>
        <time>2021-08-03T14:42:51Z</time>
      </trkpt>
      <trkpt lat="45.73417" lon="3.12411">
        <ele>485.4</ele>
        <time>2021-08-03T14:42:53Z</time>
      </trkpt>
      <trkpt lat="45.73414" lon="3.12414">
        <ele>485.5</ele>
        <time>2021-08-03T14:42:55Z</time>
      </trkpt>
      <trkpt lat="45.73411" lon="3.12417">
        <ele>485.5</ele>
        <time>2021-08-03T14:42:57Z</time>
      </trkpt>
      <trkpt lat="45.73408" lon="3.1242">
        <ele>485.6</ele>
        <time>2021-08-03T14:42:59Z</time>
      </trkpt>
      <trkpt lat="45.73405" lon="3.12422">
        <ele>485.7</ele>
        <time>2021-08-03T14:43:01Z</time>
      </trkpt>
      <trkpt lat="45.73401" lon="3.12426">
        <ele>485.8</ele>
        <time>2021-08-03T14:43:03Z</time>
      </trkpt>
      <trkpt lat="45.73397" lon="3.12429">
        <ele>485.9</ele>
        <time>2021-08-03T14:43:05Z</time>
      </trkpt>
      <trkpt lat="45.73394" lon="3.12432">
        <ele>486</ele>
        <time>2021-08-03T14:43:07Z</time>
      </trkpt>
      <trkpt lat="45.7339" lon="3.12436">
        <ele>486.1</ele>
        <time>2021-08-03T14:43:09Z</time>
      </trkpt>
      <trkpt lat="45.73387" lon="3.1244">
        <ele>486.1</ele>
        <time>2021-08-03T14:43:11Z</time>
      </trkpt>
      <trkpt lat="45.73384" lon="3.12445">
        <ele>486.2</ele>
        <time>2021-08-03T14:43:13Z</time>
      </trkpt>
      <trkpt lat="45.7338" lon="3.12448">
        <ele>486.4</ele>
        <time>2021-08-03T14:43:15Z</time>
      </trkpt>
      <trkpt lat="45.73376" lon="3.12452">
        <ele>486.6</ele>
        <time>2021-08-03T14:43:17Z</time>
      </trkpt>
      <trkpt lat="45.73372" lon="3.12455">
        <ele>486.8</ele>
        <time>2021-08-03T14:43:19Z</time>
      </trkpt>
      <trkpt lat="45.7337" lon="3.12458">
        <ele>486.9</ele>
        <time>2021-08-03T14:43:21Z</time>
      </trkpt>
      <trkpt lat="45.73366" lon="3.12462">
        <ele>487.1</ele>
        <time>2021-08-03T14:43:23Z</time>
      </trkpt>
      <trkpt lat="45.73363" lon="3.12465">
        <ele>487.2</ele>
        <time>2021-08-03T14:43:25Z</time>
      </trkpt>
      <trkpt lat="45.7336" lon="3.12468">
        <ele>487.4</ele>
        <time>2021-08-03T14:43:27Z</time>
      </trkpt>
      <trkpt lat="45.73356" lon="3.12471">
        <ele>487.7</ele>
        <time>2021-08-03T14:43:29Z</time>
      </trkpt>
      <trkpt lat="45.73353" lon="3.12474">
        <ele>487.9</ele>
        <time>2021-08-03T14:43:31Z</time>
      </trkpt>
      <trkpt lat="45.7335" lon="3.12477">
        <ele>488</ele>
        <time>2021-08-03T14:43:33Z</time>
      </trkpt>
      <trkpt lat="45.73347" lon="3.1248">
        <ele>488.3</ele>
        <time>2021-08-03T14:43:35Z</time>
      </trkpt>
      <trkpt lat="45.73344" lon="3.12482">
        <ele>488.6</ele>
        <time>2021-08-03T14:43:37Z</time>
      </trkpt>
      <trkpt lat="45.7334" lon="3.12484">
        <ele>489</ele>
        <time>2021-08-03T14:43:39Z</time>
      </trkpt>
      <trkpt lat="45.73337" lon="3.12486">
        <ele>489.3</ele>
        <time>2021-08-03T14:43:41Z</time>
      </trkpt>
      <trkpt lat="45.73333" lon="3.12487">
        <ele>489.6</ele>
        <time>2021-08-03T14:43:43Z</time>
      </trkpt>
      <trkpt lat="45.7333" lon="3.1249">
        <ele>490</ele>
        <time>2021-08-03T14:43:45Z</time>
      </trkpt>
      <trkpt lat="45.73327" lon="3.12492">
        <ele>490.4</ele>
        <time>2021-08-03T14:43:47Z</time>
      </trkpt>
      <trkpt lat="45.73323" lon="3.12495">
        <ele>490.9</ele>
        <time>2021-08-03T14:43:49Z</time>
      </trkpt>
      <trkpt lat="45.7332" lon="3.12497">
        <ele>491.3</ele>
        <time>2021-08-03T14:43:51Z</time>
      </trkpt>
      <trkpt lat="45.73316" lon="3.12499">
        <ele>491.7</ele>
        <time>2021-08-03T14:43:53Z</time>
      </trkpt>
      <trkpt lat="45.73313" lon="3.12499">
        <ele>492.2</ele>
        <time>2021-08-03T14:43:55Z</time>
      </trkpt>
      <trkpt lat="45.7331" lon="3.12501">
        <ele>492.7</ele>
        <time>2021-08-03T14:43:57Z</time>
      </trkpt>
      <trkpt lat="45.73306" lon="3.12503">
        <ele>493.2</ele>
        <time>2021-08-03T14:43:59Z</time>
      </trkpt>
      <trkpt lat="45.73303" lon="3.12504">
        <ele>493.8</ele>
        <time>2021-08-03T14:44:01Z</time>
      </trkpt>
      <trkpt lat="45.73299" lon="3.12506">
        <ele>494.4</ele>
        <time>2021-08-03T14:44:03Z</time>
      </trkpt>
      <trkpt lat="45.73295" lon="3.12506">
        <ele>494.9</ele>
        <time>2021-08-03T14:44:05Z</time>
      </trkpt>
      <trkpt lat="45.73292" lon="3.12508">
        <ele>495.4</ele>
        <time>2021-08-03T14:44:07Z</time>
      </trkpt>
      <trkpt lat="45.73288" lon="3.1251">
        <ele>495.9</ele>
        <time>2021-08-03T14:44:09Z</time>
      </trkpt>
      <trkpt lat="45.73286" lon="3.12512">
        <ele>496.3</ele>
        <time>2021-08-03T14:44:11Z</time>
      </trkpt>
      <trkpt lat="45.73284" lon="3.12514">
        <ele>496.6</ele>
        <time>2021-08-03T14:44:13Z</time>
      </trkpt>
      <trkpt lat="45.73281" lon="3.12516">
        <ele>496.9</ele>
        <time>2021-08-03T14:44:15Z</time>
      </trkpt>
      <trkpt lat="45.73279" lon="3.12518">
        <ele>497.2</ele>
        <time>2021-08-03T14:44:17Z</time>
      </trkpt>
      <trkpt lat="45.73278" lon="3.12521">
        <ele>497.4</ele>
        <time>2021-08-03T14:44:19Z</time>
      </trkpt>
      <trkpt lat="45.73276" lon="3.12523">
        <ele>497.7</ele>
        <time>2021-08-03T14:44:21Z</time>
      </trkpt>
      <trkpt lat="45.73273" lon="3.12523">
        <ele>498.1</ele>
        <time>2021-08-03T14:44:23Z</time>
      </trkpt>
      <trkpt lat="45.7327" lon="3.12524">
        <ele>498.5</ele>
        <time>2021-08-03T14:44:25Z</time>
      </trkpt>
      <trkpt lat="45.73268" lon="3.12525">
        <ele>498.9</ele>
        <time>2021-08-03T14:44:27Z</time>
      </trkpt>
      <trkpt lat="45.73265" lon="3.12526">
        <ele>499.3</ele>
        <time>2021-08-03T14:44:29Z</time>
      </trkpt>
      <trkpt lat="45.73262" lon="3.12527">
        <ele>499.8</ele>
        <time>2021-08-03T14:44:31Z</time>
      </trkpt>
      <trkpt lat="45.73259" lon="3.12528">
        <ele>500.2</ele>
        <time>2021-08-03T14:44:33Z</time>
      </trkpt>
      <trkpt lat="45.73257" lon="3.12529">
        <ele>500.6</ele>
        <time>2021-08-03T14:44:35Z</time>
      </trkpt>
      <trkpt lat="45.73254" lon="3.12531">
        <ele>501.1</ele>
        <time>2021-08-03T14:44:37Z</time>
      </trkpt>
      <trkpt lat="45.7325" lon="3.12534">
        <ele>501.5</ele>
        <time>2021-08-03T14:44:39Z</time>
      </trkpt>
      <trkpt lat="45.73247" lon="3.12536">
        <ele>501.9</ele>
        <time>2021-08-03T14:44:41Z</time>
      </trkpt>
      <trkpt lat="45.73244" lon="3.12538">
        <ele>502.2</ele>
        <time>2021-08-03T14:44:43Z</time>
      </trkpt>
      <trkpt lat="45.7324" lon="3.1254">
        <ele>502.5</ele>
        <time>2021-08-03T14:44:45Z</time>
      </trkpt>
      <trkpt lat="45.73237" lon="3.12541">
        <ele>502.8</ele>
        <time>2021-08-03T14:44:47Z</time>
      </trkpt>
      <trkpt lat="45.73234" lon="3.12542">
        <ele>503.1</ele>
        <time>2021-08-03T14:44:49Z</time>
      </trkpt>
      <trkpt lat="45.73231" lon="3.12544">
        <ele>503.4</ele>
        <time>2021-08-03T14:44:51Z</time>
      </trkpt>
      <trkpt lat="45.73228" lon="3.12545">
        <ele>503.7</ele>
        <time>2021-08-03T14:44:53Z</time>
      </trkpt>
      <trkpt lat="45.73225" lon="3.12547">
        <ele>504</ele>
        <time>2021-08-03T14:44:55Z</time>
      </trkpt>
      <trkpt lat="45.73221" lon="3.12548">
        <ele>504.3</ele>
        <time>2021-08-03T14:44:57Z</time>
      </trkpt>
      <trkpt lat="45.73218" lon="3.12549">
        <ele>504.6</ele>
        <time>2021-08-03T14:44:59Z</time>
      </trkpt>
      <trkpt lat="45.73215" lon="3.1255">
        <ele>504.9</ele>
        <time>2021-08-03T14:45:01Z</time>
      </trkpt>
      <trkpt lat="45.73212" lon="3.12552">
        <ele>505.1</ele>
        <time>2021-08-03T14:45:03Z</time>
      </trkpt>
      <trkpt lat="45.73208" lon="3.12553">
        <ele>505.4</ele>
        <time>2021-08-03T14:45:05Z</time>
      </trkpt>
      <trkpt lat="45.73205" lon="3.12554">
        <ele>505.7</ele>
        <time>2021-08-03T14:45:07Z</time>
      </trkpt>
      <trkpt lat="45.73202" lon="3.12555">
        <ele>505.9</ele>
        <time>2021-08-03T14:45:09Z</time>
      </trkpt>
      <trkpt lat="45.73199" lon="3.12556">
        <ele>506.2</ele>
        <time>2021-08-03T14:45:11Z</time>
      </trkpt>
      <trkpt lat="45.73196" lon="3.12557">
        <ele>506.5</ele>
        <time>2021-08-03T14:45:13Z</time>
      </trkpt>
      <trkpt lat="45.73193" lon="3.12557">
        <ele>506.7</ele>
        <time>2021-08-03T14:45:15Z</time>
      </trkpt>
      <trkpt lat="45.7319" lon="3.12559">
        <ele>507</ele>
        <time>2021-08-03T14:45:17Z</time>
      </trkpt>
      <trkpt lat="45.73187" lon="3.1256">
        <ele>507.2</ele>
        <time>2021-08-03T14:45:19Z</time>
      </trkpt>
      <trkpt lat="45.73185" lon="3.12561">
        <ele>507.4</ele>
        <time>2021-08-03T14:45:21Z</time>
      </trkpt>
      <trkpt lat="45.73181" lon="3.12561">
        <ele>507.7</ele>
        <time>2021-08-03T14:45:23Z</time>
      </trkpt>
      <trkpt lat="45.73178" lon="3.12561">
        <ele>508</ele>
        <time>2021-08-03T14:45:25Z</time>
      </trkpt>
      <trkpt lat="45.73175" lon="3.1256">
        <ele>508.3</ele>
        <time>2021-08-03T14:45:27Z</time>
      </trkpt>
      <trkpt lat="45.73172" lon="3.1256">
        <ele>508.6</ele>
        <time>2021-08-03T14:45:29Z</time>
      </trkpt>
      <trkpt lat="45.73168" lon="3.12561">
        <ele>508.9</ele>
        <time>2021-08-03T14:45:31Z</time>
      </trkpt>
      <trkpt lat="45.73165" lon="3.1256">
        <ele>509.3</ele>
        <time>2021-08-03T14:45:33Z</time>
      </trkpt>
      <trkpt lat="45.73162" lon="3.1256">
        <ele>509.6</ele>
        <time>2021-08-03T14:45:35Z</time>
      </trkpt>
      <trkpt lat="45.73159" lon="3.12559">
        <ele>510</ele>
        <time>2021-08-03T14:45:37Z</time>
      </trkpt>
      <trkpt lat="45.73156" lon="3.12558">
        <ele>510.3</ele>
        <time>2021-08-03T14:45:39Z</time>
      </trkpt>
      <trkpt lat="45.73152" lon="3.12557">
        <ele>510.7</ele>
        <time>2021-08-03T14:45:41Z</time>
      </trkpt>
      <trkpt lat="45.73149" lon="3.12557">
        <ele>511</ele>
        <time>2021-08-03T14:45:43Z</time>
      </trkpt>
      <trkpt lat="45.73146" lon="3.12557">
        <ele>511.3</ele>
        <time>2021-08-03T14:45:45Z</time>
      </trkpt>
      <trkpt lat="45.73143" lon="3.12558">
        <ele>511.6</ele>
        <time>2021-08-03T14:45:47Z</time>
      </trkpt>
      <trkpt lat="45.7314" lon="3.12558">
        <ele>511.9</ele>
        <time>2021-08-03T14:45:49Z</time>
      </trkpt>
      <trkpt lat="45.73137" lon="3.12557">
        <ele>512.2</ele>
        <time>2021-08-03T14:45:51Z</time>
      </trkpt>
      <trkpt lat="45.73134" lon="3.12556">
        <ele>512.5</ele>
        <time>2021-08-03T14:45:53Z</time>
      </trkpt>
      <trkpt lat="45.73132" lon="3.12557">
        <ele>512.8</ele>
        <time>2021-08-03T14:45:55Z</time>
      </trkpt>
      <trkpt lat="45.73129" lon="3.12557">
        <ele>513</ele>
        <time>2021-08-03T14:45:57Z</time>
      </trkpt>
      <trkpt lat="45.73126" lon="3.12558">
        <ele>513.2</ele>
        <time>2021-08-03T14:45:59Z</time>
      </trkpt>
      <trkpt lat="45.73123" lon="3.12559">
        <ele>513.5</ele>
        <time>2021-08-03T14:46:01Z</time>
      </trkpt>
      <trkpt lat="45.73121" lon="3.1256">
        <ele>513.6</ele>
        <time>2021-08-03T14:46:03Z</time>
      </trkpt>
      <trkpt lat="45.73118" lon="3.12561">
        <ele>513.8</ele>
        <time>2021-08-03T14:46:05Z</time>
      </trkpt>
      <trkpt lat="45.73115" lon="3.12563">
        <ele>513.9</ele>
        <time>2021-08-03T14:46:07Z</time>
      </trkpt>
      <trkpt lat="45.73113" lon="3.12565">
        <ele>514</ele>
        <time>2021-08-03T14:46:09Z</time>
      </trkpt>
      <trkpt lat="45.7311" lon="3.12567">
        <ele>514.1</ele>
        <time>2021-08-03T14:46:11Z</time>
      </trkpt>
      <trkpt lat="45.73108" lon="3.12568">
        <ele>514.2</ele>
        <time>2021-08-03T14:46:13Z</time>
      </trkpt>
      <trkpt lat="45.73106" lon="3.12571">
        <ele>514.2</ele>
        <time>2021-08-03T14:46:15Z</time>
      </trkpt>
      <trkpt lat="45.73103" lon="3.12573">
        <ele>514.2</ele>
        <time>2021-08-03T14:46:17Z</time>
      </trkpt>
      <trkpt lat="45.73101" lon="3.12574">
        <ele>514.3</ele>
        <time>2021-08-03T14:46:19Z</time>
      </trkpt>
      <trkpt lat="45.73099" lon="3.12576">
        <ele>514.3</ele>
        <time>2021-08-03T14:46:21Z</time>
      </trkpt>
      <trkpt lat="45.73098" lon="3.12577">
        <ele>514.3</ele>
        <time>2021-08-03T14:46:23Z</time>
      </trkpt>
      <trkpt lat="45.73095" lon="3.12579">
        <ele>514.4</ele>
        <time>2021-08-03T14:46:25Z</time>
      </trkpt>
      <trkpt lat="45.73093" lon="3.12581">
        <ele>514.4</ele>
        <time>2021-08-03T14:46:27Z</time>
      </trkpt>
      <trkpt lat="45.73091" lon="3.12583">
        <ele>514.4</ele>
        <time>2021-08-03T14:46:29Z</time>
      </trkpt>
      <trkpt lat="45.73089" lon="3.12584">
        <ele>514.5</ele>
        <time>2021-08-03T14:46:31Z</time>
      </trkpt>
      <trkpt lat="45.73087" lon="3.12585">
        <ele>514.6</ele>
        <time>2021-08-03T14:46:33Z</time>
      </trkpt>
      <trkpt lat="45.73086" lon="3.12586">
        <ele>514.6</ele>
        <time>2021-08-03T14:46:35Z</time>
      </trkpt>
      <trkpt lat="45.73086" lon="3.12586">
        <ele>514.6</ele>
        <time>2021-08-03T14:46:37Z</time>
      </trkpt>
      <trkpt lat="45.73086" lon="3.12586">
        <ele>514.6</ele>
        <time>2021-08-03T14:46:39Z</time>
      </trkpt>
      <trkpt lat="45.73085" lon="3.12587">
        <ele>514.6</ele>
        <time>2021-08-03T14:46:41Z</time>
      </trkpt>
      <trkpt lat="45.73086" lon="3.12585">
        <ele>514.7</ele>
        <time>2021-08-03T15:01:13Z</time>
      </trkpt>
      <trkpt lat="45.73086" lon="3.12585">
        <ele>514.7</ele>
        <time>2021-08-03T15:01:15Z</time>
      </trkpt>
      <trkpt lat="45.73086" lon="3.12585">
        <ele>514.7</ele>
        <time>2021-08-03T15:01:17Z</time>
      </trkpt>
      <trkpt lat="45.73086" lon="3.12585">
        <ele>514.7</ele>
        <time>2021-08-03T15:01:19Z</time>
      </trkpt>
      <trkpt lat="45.73085" lon="3.12586">
        <ele>514.7</ele>
        <time>2021-08-03T15:01:21Z</time>
      </trkpt>
      <trkpt lat="45.73085" lon="3.12585">
        <ele>514.7</ele>
        <time>2021-08-03T15:01:23Z</time>
      </trkpt>
      <trkpt lat="45.73085" lon="3.12585">
        <ele>514.7</ele>
        <time>2021-08-03T15:01:25Z</time>
      </trkpt>
      <trkpt lat="45.73085" lon="3.12586">
        <ele>514.7</ele>
        <time>2021-08-03T15:01:27Z</time>
      </trkpt>
      <trkpt lat="45.73082" lon="3.12589">
        <ele>514.7</ele>
        <time>2021-08-03T15:01:29Z</time>
      </trkpt>
      <trkpt lat="45.7308" lon="3.1259">
        <ele>514.8</ele>
        <time>2021-08-03T15:01:31Z</time>
      </trkpt>
      <trkpt lat="45.73078" lon="3.12592">
        <ele>514.7</ele>
        <time>2021-08-03T15:01:33Z</time>
      </trkpt>
      <trkpt lat="45.73078" lon="3.12592">
        <ele>514.7</ele>
        <time>2021-08-03T15:01:35Z</time>
      </trkpt>
      <trkpt lat="45.73078" lon="3.12592">
        <ele>514.7</ele>
        <time>2021-08-03T15:01:37Z</time>
      </trkpt>
      <trkpt lat="45.73077" lon="3.12593">
        <ele>514.7</ele>
        <time>2021-08-03T15:01:39Z</time>
      </trkpt>
      <trkpt lat="45.73077" lon="3.12593">
        <ele>514.7</ele>
        <time>2021-08-03T15:01:41Z</time>
      </trkpt>
      <trkpt lat="45.73067" lon="3.12603">
        <ele>514.5</ele>
        <time>2021-08-03T15:02:07Z</time>
      </trkpt>
      <trkpt lat="45.73064" lon="3.12604">
        <ele>514.6</ele>
        <time>2021-08-03T15:02:09Z</time>
      </trkpt>
      <trkpt lat="45.7306" lon="3.12605">
        <ele>514.7</ele>
        <time>2021-08-03T15:02:11Z</time>
      </trkpt>
      <trkpt lat="45.73056" lon="3.12609">
        <ele>514.6</ele>
        <time>2021-08-03T15:02:13Z</time>
      </trkpt>
      <trkpt lat="45.73051" lon="3.12614">
        <ele>514.4</ele>
        <time>2021-08-03T15:02:15Z</time>
      </trkpt>
      <trkpt lat="45.73046" lon="3.12619">
        <ele>514.3</ele>
        <time>2021-08-03T15:02:17Z</time>
      </trkpt>
      <trkpt lat="45.7304" lon="3.12625">
        <ele>514.1</ele>
        <time>2021-08-03T15:02:19Z</time>
      </trkpt>
      <trkpt lat="45.73034" lon="3.1263">
        <ele>513.9</ele>
        <time>2021-08-03T15:02:21Z</time>
      </trkpt>
      <trkpt lat="45.73027" lon="3.12637">
        <ele>513.6</ele>
        <time>2021-08-03T15:02:23Z</time>
      </trkpt>
      <trkpt lat="45.73021" lon="3.12643">
        <ele>513.3</ele>
        <time>2021-08-03T15:02:25Z</time>
      </trkpt>
      <trkpt lat="45.73015" lon="3.1265">
        <ele>512.9</ele>
        <time>2021-08-03T15:02:27Z</time>
      </trkpt>
      <trkpt lat="45.7301" lon="3.12658">
        <ele>512.5</ele>
        <time>2021-08-03T15:02:29Z</time>
      </trkpt>
      <trkpt lat="45.73006" lon="3.12665">
        <ele>512</ele>
        <time>2021-08-03T15:02:31Z</time>
      </trkpt>
      <trkpt lat="45.73001" lon="3.12676">
        <ele>511.3</ele>
        <time>2021-08-03T15:02:33Z</time>
      </trkpt>
      <trkpt lat="45.72998" lon="3.12687">
        <ele>510.8</ele>
        <time>2021-08-03T15:02:35Z</time>
      </trkpt>
      <trkpt lat="45.72996" lon="3.12697">
        <ele>510.4</ele>
        <time>2021-08-03T15:02:37Z</time>
      </trkpt>
      <trkpt lat="45.72994" lon="3.12707">
        <ele>509.9</ele>
        <time>2021-08-03T15:02:39Z</time>
      </trkpt>
      <trkpt lat="45.72993" lon="3.12716">
        <ele>509.4</ele>
        <time>2021-08-03T15:02:41Z</time>
      </trkpt>
      <trkpt lat="45.7299" lon="3.12723">
        <ele>509.2</ele>
        <time>2021-08-03T15:02:43Z</time>
      </trkpt>
      <trkpt lat="45.72989" lon="3.1273">
        <ele>508.8</ele>
        <time>2021-08-03T15:02:45Z</time>
      </trkpt>
      <trkpt lat="45.72986" lon="3.12739">
        <ele>508.5</ele>
        <time>2021-08-03T15:02:47Z</time>
      </trkpt>
      <trkpt lat="45.72982" lon="3.12747">
        <ele>508.4</ele>
        <time>2021-08-03T15:02:49Z</time>
      </trkpt>
      <trkpt lat="45.7298" lon="3.12758">
        <ele>508</ele>
        <time>2021-08-03T15:02:51Z</time>
      </trkpt>
      <trkpt lat="45.72979" lon="3.12769">
        <ele>507.5</ele>
        <time>2021-08-03T15:02:53Z</time>
      </trkpt>
      <trkpt lat="45.72978" lon="3.12782">
        <ele>506.9</ele>
        <time>2021-08-03T15:02:55Z</time>
      </trkpt>
      <trkpt lat="45.72977" lon="3.12796">
        <ele>506.3</ele>
        <time>2021-08-03T15:02:57Z</time>
      </trkpt>
      <trkpt lat="45.72975" lon="3.12809">
        <ele>505.9</ele>
        <time>2021-08-03T15:02:59Z</time>
      </trkpt>
      <trkpt lat="45.72969" lon="3.1282">
        <ele>506.2</ele>
        <time>2021-08-03T15:03:01Z</time>
      </trkpt>
      <trkpt lat="45.72963" lon="3.12825">
        <ele>506.7</ele>
        <time>2021-08-03T15:03:03Z</time>
      </trkpt>
      <trkpt lat="45.72959" lon="3.1283">
        <ele>507</ele>
        <time>2021-08-03T15:03:05Z</time>
      </trkpt>
      <trkpt lat="45.72956" lon="3.12834">
        <ele>507.3</ele>
        <time>2021-08-03T15:03:07Z</time>
      </trkpt>
      <trkpt lat="45.72954" lon="3.12839">
        <ele>507.4</ele>
        <time>2021-08-03T15:03:09Z</time>
      </trkpt>
      <trkpt lat="45.72951" lon="3.12844">
        <ele>507.6</ele>
        <time>2021-08-03T15:03:11Z</time>
      </trkpt>
      <trkpt lat="45.72949" lon="3.12849">
        <ele>507.6</ele>
        <time>2021-08-03T15:03:13Z</time>
      </trkpt>
      <trkpt lat="45.72947" lon="3.12855">
        <ele>507.7</ele>
        <time>2021-08-03T15:03:15Z</time>
      </trkpt>
      <trkpt lat="45.72945" lon="3.1286">
        <ele>507.8</ele>
        <time>2021-08-03T15:03:17Z</time>
      </trkpt>
      <trkpt lat="45.72942" lon="3.12865">
        <ele>507.9</ele>
        <time>2021-08-03T15:03:19Z</time>
      </trkpt>
      <trkpt lat="45.72942" lon="3.12872">
        <ele>507.7</ele>
        <time>2021-08-03T15:03:21Z</time>
      </trkpt>
      <trkpt lat="45.7294" lon="3.12878">
        <ele>507.7</ele>
        <time>2021-08-03T15:03:23Z</time>
      </trkpt>
      <trkpt lat="45.72938" lon="3.12883">
        <ele>507.8</ele>
        <time>2021-08-03T15:03:25Z</time>
      </trkpt>
      <trkpt lat="45.72936" lon="3.12889">
        <ele>507.8</ele>
        <time>2021-08-03T15:03:27Z</time>
      </trkpt>
      <trkpt lat="45.72933" lon="3.12894">
        <ele>507.9</ele>
        <time>2021-08-03T15:03:29Z</time>
      </trkpt>
      <trkpt lat="45.72931" lon="3.12899">
        <ele>508</ele>
        <time>2021-08-03T15:03:31Z</time>
      </trkpt>
      <trkpt lat="45.72929" lon="3.12904">
        <ele>508</ele>
        <time>2021-08-03T15:03:33Z</time>
      </trkpt>
      <trkpt lat="45.72927" lon="3.12909">
        <ele>508</ele>
        <time>2021-08-03T15:03:35Z</time>
      </trkpt>
      <trkpt lat="45.72924" lon="3.12912">
        <ele>508.2</ele>
        <time>2021-08-03T15:03:37Z</time>
      </trkpt>
      <trkpt lat="45.72922" lon="3.12916">
        <ele>508.3</ele>
        <time>2021-08-03T15:03:39Z</time>
      </trkpt>
      <trkpt lat="45.72919" lon="3.1292">
        <ele>508.5</ele>
        <time>2021-08-03T15:03:41Z</time>
      </trkpt>
      <trkpt lat="45.72917" lon="3.12923">
        <ele>508.8</ele>
        <time>2021-08-03T15:03:43Z</time>
      </trkpt>
      <trkpt lat="45.72915" lon="3.12926">
        <ele>509</ele>
        <time>2021-08-03T15:03:45Z</time>
      </trkpt>
      <trkpt lat="45.72913" lon="3.12928">
        <ele>509.2</ele>
        <time>2021-08-03T15:03:47Z</time>
      </trkpt>
      <trkpt lat="45.7291" lon="3.12931">
        <ele>509.5</ele>
        <time>2021-08-03T15:03:49Z</time>
      </trkpt>
      <trkpt lat="45.72907" lon="3.12934">
        <ele>509.9</ele>
        <time>2021-08-03T15:03:51Z</time>
      </trkpt>
      <trkpt lat="45.72905" lon="3.12935">
        <ele>510.1</ele>
        <time>2021-08-03T15:03:53Z</time>
      </trkpt>
      <trkpt lat="45.72903" lon="3.12939">
        <ele>510.3</ele>
        <time>2021-08-03T15:03:55Z</time>
      </trkpt>
      <trkpt lat="45.729" lon="3.12942">
        <ele>510.5</ele>
        <time>2021-08-03T15:03:57Z</time>
      </trkpt>
      <trkpt lat="45.72898" lon="3.12945">
        <ele>510.7</ele>
        <time>2021-08-03T15:03:59Z</time>
      </trkpt>
      <trkpt lat="45.72895" lon="3.12947">
        <ele>510.9</ele>
        <time>2021-08-03T15:04:01Z</time>
      </trkpt>
      <trkpt lat="45.72892" lon="3.1295">
        <ele>511.2</ele>
        <time>2021-08-03T15:04:03Z</time>
      </trkpt>
      <trkpt lat="45.72889" lon="3.12954">
        <ele>511.4</ele>
        <time>2021-08-03T15:04:05Z</time>
      </trkpt>
      <trkpt lat="45.72887" lon="3.12957">
        <ele>511.6</ele>
        <time>2021-08-03T15:04:07Z</time>
      </trkpt>
      <trkpt lat="45.72885" lon="3.12959">
        <ele>511.6</ele>
        <time>2021-08-03T15:04:09Z</time>
      </trkpt>
      <trkpt lat="45.72883" lon="3.12963">
        <ele>511.6</ele>
        <time>2021-08-03T15:04:11Z</time>
      </trkpt>
      <trkpt lat="45.72879" lon="3.12965">
        <ele>511.9</ele>
        <time>2021-08-03T15:04:13Z</time>
      </trkpt>
      <trkpt lat="45.72877" lon="3.12968">
        <ele>512.1</ele>
        <time>2021-08-03T15:04:15Z</time>
      </trkpt>
      <trkpt lat="45.72874" lon="3.12971">
        <ele>512.2</ele>
        <time>2021-08-03T15:04:17Z</time>
      </trkpt>
      <trkpt lat="45.72871" lon="3.12973">
        <ele>512.4</ele>
        <time>2021-08-03T15:04:19Z</time>
      </trkpt>
      <trkpt lat="45.72868" lon="3.12977">
        <ele>512.5</ele>
        <time>2021-08-03T15:04:21Z</time>
      </trkpt>
      <trkpt lat="45.72865" lon="3.1298">
        <ele>512.6</ele>
        <time>2021-08-03T15:04:23Z</time>
      </trkpt>
      <trkpt lat="45.72862" lon="3.12984">
        <ele>512.6</ele>
        <time>2021-08-03T15:04:25Z</time>
      </trkpt>
      <trkpt lat="45.7286" lon="3.12987">
        <ele>512.6</ele>
        <time>2021-08-03T15:04:27Z</time>
      </trkpt>
      <trkpt lat="45.72857" lon="3.1299">
        <ele>512.6</ele>
        <time>2021-08-03T15:04:29Z</time>
      </trkpt>
      <trkpt lat="45.72854" lon="3.12994">
        <ele>512.6</ele>
        <time>2021-08-03T15:04:31Z</time>
      </trkpt>
      <trkpt lat="45.72851" lon="3.12998">
        <ele>512.5</ele>
        <time>2021-08-03T15:04:33Z</time>
      </trkpt>
      <trkpt lat="45.72848" lon="3.13002">
        <ele>512.4</ele>
        <time>2021-08-03T15:04:35Z</time>
      </trkpt>
      <trkpt lat="45.72846" lon="3.13007">
        <ele>512.3</ele>
        <time>2021-08-03T15:04:37Z</time>
      </trkpt>
      <trkpt lat="45.72843" lon="3.1301">
        <ele>512.3</ele>
        <time>2021-08-03T15:04:39Z</time>
      </trkpt>
      <trkpt lat="45.72841" lon="3.13013">
        <ele>512.1</ele>
        <time>2021-08-03T15:04:41Z</time>
      </trkpt>
      <trkpt lat="45.72836" lon="3.13017">
        <ele>512.2</ele>
        <time>2021-08-03T15:04:43Z</time>
      </trkpt>
      <trkpt lat="45.72832" lon="3.13021">
        <ele>512</ele>
        <time>2021-08-03T15:04:45Z</time>
      </trkpt>
      <trkpt lat="45.72827" lon="3.13024">
        <ele>512</ele>
        <time>2021-08-03T15:04:47Z</time>
      </trkpt>
      <trkpt lat="45.72822" lon="3.13029">
        <ele>511.8</ele>
        <time>2021-08-03T15:04:49Z</time>
      </trkpt>
      <trkpt lat="45.72816" lon="3.13034">
        <ele>511.5</ele>
        <time>2021-08-03T15:04:51Z</time>
      </trkpt>
      <trkpt lat="45.72809" lon="3.13037">
        <ele>511.3</ele>
        <time>2021-08-03T15:04:53Z</time>
      </trkpt>
      <trkpt lat="45.72803" lon="3.13042">
        <ele>511.1</ele>
        <time>2021-08-03T15:04:55Z</time>
      </trkpt>
      <trkpt lat="45.72797" lon="3.13045">
        <ele>510.9</ele>
        <time>2021-08-03T15:04:57Z</time>
      </trkpt>
      <trkpt lat="45.7279" lon="3.13051">
        <ele>510.3</ele>
        <time>2021-08-03T15:04:59Z</time>
      </trkpt>
      <trkpt lat="45.72783" lon="3.13055">
        <ele>509.9</ele>
        <time>2021-08-03T15:05:01Z</time>
      </trkpt>
      <trkpt lat="45.72777" lon="3.13061">
        <ele>509.3</ele>
        <time>2021-08-03T15:05:03Z</time>
      </trkpt>
      <trkpt lat="45.72772" lon="3.13065">
        <ele>508.7</ele>
        <time>2021-08-03T15:05:05Z</time>
      </trkpt>
      <trkpt lat="45.72767" lon="3.13068">
        <ele>508.4</ele>
        <time>2021-08-03T15:05:07Z</time>
      </trkpt>
      <trkpt lat="45.72761" lon="3.13072">
        <ele>507.8</ele>
        <time>2021-08-03T15:05:09Z</time>
      </trkpt>
      <trkpt lat="45.72757" lon="3.13077">
        <ele>507</ele>
        <time>2021-08-03T15:05:11Z</time>
      </trkpt>
      <trkpt lat="45.72752" lon="3.13081">
        <ele>506.4</ele>
        <time>2021-08-03T15:05:13Z</time>
      </trkpt>
      <trkpt lat="45.72747" lon="3.13084">
        <ele>506.2</ele>
        <time>2021-08-03T15:05:15Z</time>
      </trkpt>
      <trkpt lat="45.72743" lon="3.1309">
        <ele>505.8</ele>
        <time>2021-08-03T15:05:17Z</time>
      </trkpt>
      <trkpt lat="45.72737" lon="3.13092">
        <ele>506.2</ele>
        <time>2021-08-03T15:05:19Z</time>
      </trkpt>
      <trkpt lat="45.72732" lon="3.13097">
        <ele>506</ele>
        <time>2021-08-03T15:05:21Z</time>
      </trkpt>
      <trkpt lat="45.72728" lon="3.13101">
        <ele>505.7</ele>
        <time>2021-08-03T15:05:23Z</time>
      </trkpt>
      <trkpt lat="45.72723" lon="3.13107">
        <ele>505.2</ele>
        <time>2021-08-03T15:05:25Z</time>
      </trkpt>
      <trkpt lat="45.72719" lon="3.13109">
        <ele>505.1</ele>
        <time>2021-08-03T15:05:27Z</time>
      </trkpt>
      <trkpt lat="45.72715" lon="3.13113">
        <ele>504.9</ele>
        <time>2021-08-03T15:05:29Z</time>
      </trkpt>
      <trkpt lat="45.72712" lon="3.13118">
        <ele>504.4</ele>
        <time>2021-08-03T15:05:31Z</time>
      </trkpt>
      <trkpt lat="45.72709" lon="3.13123">
        <ele>503.6</ele>
        <time>2021-08-03T15:05:33Z</time>
      </trkpt>
      <trkpt lat="45.72706" lon="3.13128">
        <ele>502.9</ele>
        <time>2021-08-03T15:05:35Z</time>
      </trkpt>
      <trkpt lat="45.72703" lon="3.13134">
        <ele>502.1</ele>
        <time>2021-08-03T15:05:37Z</time>
      </trkpt>
      <trkpt lat="45.727" lon="3.13138">
        <ele>501.5</ele>
        <time>2021-08-03T15:05:39Z</time>
      </trkpt>
      <trkpt lat="45.72697" lon="3.13144">
        <ele>500.5</ele>
        <time>2021-08-03T15:05:41Z</time>
      </trkpt>
      <trkpt lat="45.72694" lon="3.13146">
        <ele>500.2</ele>
        <time>2021-08-03T15:05:43Z</time>
      </trkpt>
      <trkpt lat="45.7269" lon="3.13148">
        <ele>500.3</ele>
        <time>2021-08-03T15:05:45Z</time>
      </trkpt>
      <trkpt lat="45.72687" lon="3.13153">
        <ele>499.4</ele>
        <time>2021-08-03T15:05:47Z</time>
      </trkpt>
      <trkpt lat="45.72682" lon="3.13158">
        <ele>498.7</ele>
        <time>2021-08-03T15:05:49Z</time>
      </trkpt>
      <trkpt lat="45.72677" lon="3.13163">
        <ele>498.1</ele>
        <time>2021-08-03T15:05:51Z</time>
      </trkpt>
      <trkpt lat="45.72672" lon="3.1317">
        <ele>497</ele>
        <time>2021-08-03T15:05:53Z</time>
      </trkpt>
      <trkpt lat="45.72666" lon="3.13175">
        <ele>496.6</ele>
        <time>2021-08-03T15:05:55Z</time>
      </trkpt>
      <trkpt lat="45.72662" lon="3.13184">
        <ele>495.8</ele>
        <time>2021-08-03T15:05:57Z</time>
      </trkpt>
      <trkpt lat="45.72657" lon="3.13191">
        <ele>495.5</ele>
        <time>2021-08-03T15:05:59Z</time>
      </trkpt>
      <trkpt lat="45.72652" lon="3.13197">
        <ele>495.2</ele>
        <time>2021-08-03T15:06:01Z</time>
      </trkpt>
      <trkpt lat="45.72649" lon="3.132">
        <ele>495.3</ele>
        <time>2021-08-03T15:06:03Z</time>
      </trkpt>
      <trkpt lat="45.72646" lon="3.13203">
        <ele>495.3</ele>
        <time>2021-08-03T15:06:05Z</time>
      </trkpt>
      <trkpt lat="45.72641" lon="3.13208">
        <ele>495.2</ele>
        <time>2021-08-03T15:06:07Z</time>
      </trkpt>
      <trkpt lat="45.72638" lon="3.13211">
        <ele>495.1</ele>
        <time>2021-08-03T15:06:09Z</time>
      </trkpt>
      <trkpt lat="45.72638" lon="3.13213">
        <ele>494.9</ele>
        <time>2021-08-03T15:06:11Z</time>
      </trkpt>
      <trkpt lat="45.72636" lon="3.13215">
        <ele>494.8</ele>
        <time>2021-08-03T15:06:13Z</time>
      </trkpt>
      <trkpt lat="45.72634" lon="3.13217">
        <ele>494.7</ele>
        <time>2021-08-03T15:06:15Z</time>
      </trkpt>
      <trkpt lat="45.72631" lon="3.13221">
        <ele>494.5</ele>
        <time>2021-08-03T15:06:17Z</time>
      </trkpt>
      <trkpt lat="45.72628" lon="3.13225">
        <ele>494.4</ele>
        <time>2021-08-03T15:06:19Z</time>
      </trkpt>
      <trkpt lat="45.72626" lon="3.13228">
        <ele>494.2</ele>
        <time>2021-08-03T15:06:21Z</time>
      </trkpt>
      <trkpt lat="45.72622" lon="3.13232">
        <ele>493.9</ele>
        <time>2021-08-03T15:06:23Z</time>
      </trkpt>
      <trkpt lat="45.72618" lon="3.13236">
        <ele>494</ele>
        <time>2021-08-03T15:06:25Z</time>
      </trkpt>
      <trkpt lat="45.72611" lon="3.13244">
        <ele>493.5</ele>
        <time>2021-08-03T15:06:27Z</time>
      </trkpt>
      <trkpt lat="45.72604" lon="3.1325">
        <ele>493.6</ele>
        <time>2021-08-03T15:06:29Z</time>
      </trkpt>
      <trkpt lat="45.72597" lon="3.1325">
        <ele>494.7</ele>
        <time>2021-08-03T15:06:31Z</time>
      </trkpt>
      <trkpt lat="45.72589" lon="3.13254">
        <ele>495</ele>
        <time>2021-08-03T15:06:33Z</time>
      </trkpt>
      <trkpt lat="45.72586" lon="3.13259">
        <ele>494.3</ele>
        <time>2021-08-03T15:06:35Z</time>
      </trkpt>
      <trkpt lat="45.72577" lon="3.13262">
        <ele>494.6</ele>
        <time>2021-08-03T15:06:37Z</time>
      </trkpt>
      <trkpt lat="45.7257" lon="3.13267">
        <ele>494.3</ele>
        <time>2021-08-03T15:06:39Z</time>
      </trkpt>
      <trkpt lat="45.72564" lon="3.13273">
        <ele>493.3</ele>
        <time>2021-08-03T15:06:41Z</time>
      </trkpt>
      <trkpt lat="45.72558" lon="3.13278">
        <ele>492.9</ele>
        <time>2021-08-03T15:06:43Z</time>
      </trkpt>
      <trkpt lat="45.72553" lon="3.13283">
        <ele>492.4</ele>
        <time>2021-08-03T15:06:45Z</time>
      </trkpt>
      <trkpt lat="45.72549" lon="3.13283">
        <ele>493</ele>
        <time>2021-08-03T15:06:47Z</time>
      </trkpt>
      <trkpt lat="45.72548" lon="3.13284">
        <ele>492.8</ele>
        <time>2021-08-03T15:06:49Z</time>
      </trkpt>
      <trkpt lat="45.72548" lon="3.13284">
        <ele>492.8</ele>
        <time>2021-08-03T15:06:51Z</time>
      </trkpt>
      <trkpt lat="45.72548" lon="3.13284">
        <ele>492.8</ele>
        <time>2021-08-03T15:06:53Z</time>
      </trkpt>
      <trkpt lat="45.72547" lon="3.13284">
        <ele>492.8</ele>
        <time>2021-08-03T15:06:55Z</time>
      </trkpt>
      <trkpt lat="45.72547" lon="3.13284">
        <ele>492.8</ele>
        <time>2021-08-03T15:06:57Z</time>
      </trkpt>
      <trkpt lat="45.72531" lon="3.13293">
        <ele>492.8</ele>
        <time>2021-08-03T15:07:51Z</time>
      </trkpt>
      <trkpt lat="45.72526" lon="3.13297">
        <ele>492.6</ele>
        <time>2021-08-03T15:07:53Z</time>
      </trkpt>
      <trkpt lat="45.72519" lon="3.13302">
        <ele>492.3</ele>
        <time>2021-08-03T15:07:55Z</time>
      </trkpt>
      <trkpt lat="45.72514" lon="3.13307">
        <ele>492</ele>
        <time>2021-08-03T15:07:57Z</time>
      </trkpt>
      <trkpt lat="45.72509" lon="3.1331">
        <ele>491.9</ele>
        <time>2021-08-03T15:07:59Z</time>
      </trkpt>
      <trkpt lat="45.72505" lon="3.13316">
        <ele>491.4</ele>
        <time>2021-08-03T15:08:01Z</time>
      </trkpt>
      <trkpt lat="45.725" lon="3.13318">
        <ele>491.5</ele>
        <time>2021-08-03T15:08:03Z</time>
      </trkpt>
      <trkpt lat="45.72494" lon="3.13321">
        <ele>491.8</ele>
        <time>2021-08-03T15:08:05Z</time>
      </trkpt>
      <trkpt lat="45.72487" lon="3.13325">
        <ele>492.1</ele>
        <time>2021-08-03T15:08:07Z</time>
      </trkpt>
      <trkpt lat="45.7248" lon="3.13331">
        <ele>492.1</ele>
        <time>2021-08-03T15:08:09Z</time>
      </trkpt>
      <trkpt lat="45.72476" lon="3.13339">
        <ele>491.4</ele>
        <time>2021-08-03T15:08:11Z</time>
      </trkpt>
      <trkpt lat="45.72473" lon="3.13346">
        <ele>490.9</ele>
        <time>2021-08-03T15:08:13Z</time>
      </trkpt>
      <trkpt lat="45.72469" lon="3.13355">
        <ele>490.2</ele>
        <time>2021-08-03T15:08:15Z</time>
      </trkpt>
      <trkpt lat="45.72464" lon="3.13365">
        <ele>489.7</ele>
        <time>2021-08-03T15:08:17Z</time>
      </trkpt>
      <trkpt lat="45.72459" lon="3.13377">
        <ele>488.8</ele>
        <time>2021-08-03T15:08:19Z</time>
      </trkpt>
      <trkpt lat="45.72454" lon="3.13388">
        <ele>488.1</ele>
        <time>2021-08-03T15:08:21Z</time>
      </trkpt>
      <trkpt lat="45.72448" lon="3.13398">
        <ele>487.8</ele>
        <time>2021-08-03T15:08:23Z</time>
      </trkpt>
      <trkpt lat="45.72442" lon="3.13406">
        <ele>487.6</ele>
        <time>2021-08-03T15:08:25Z</time>
      </trkpt>
      <trkpt lat="45.72437" lon="3.13413">
        <ele>487.5</ele>
        <time>2021-08-03T15:08:27Z</time>
      </trkpt>
      <trkpt lat="45.72434" lon="3.13422">
        <ele>486.9</ele>
        <time>2021-08-03T15:08:29Z</time>
      </trkpt>
      <trkpt lat="45.72431" lon="3.13431">
        <ele>486.4</ele>
        <time>2021-08-03T15:08:31Z</time>
      </trkpt>
      <trkpt lat="45.72427" lon="3.13438">
        <ele>486.3</ele>
        <time>2021-08-03T15:08:33Z</time>
      </trkpt>
      <trkpt lat="45.72422" lon="3.13446">
        <ele>486.1</ele>
        <time>2021-08-03T15:08:35Z</time>
      </trkpt>
      <trkpt lat="45.72418" lon="3.13456">
        <ele>485.6</ele>
        <time>2021-08-03T15:08:37Z</time>
      </trkpt>
      <trkpt lat="45.72412" lon="3.13464">
        <ele>485.6</ele>
        <time>2021-08-03T15:08:39Z</time>
      </trkpt>
      <trkpt lat="45.72407" lon="3.13472">
        <ele>485.6</ele>
        <time>2021-08-03T15:08:41Z</time>
      </trkpt>
      <trkpt lat="45.72405" lon="3.13478">
        <ele>485.1</ele>
        <time>2021-08-03T15:08:43Z</time>
      </trkpt>
      <trkpt lat="45.72401" lon="3.13484">
        <ele>485.1</ele>
        <time>2021-08-03T15:08:45Z</time>
      </trkpt>
      <trkpt lat="45.72396" lon="3.1349">
        <ele>485.3</ele>
        <time>2021-08-03T15:08:47Z</time>
      </trkpt>
      <trkpt lat="45.7239" lon="3.13496">
        <ele>485.6</ele>
        <time>2021-08-03T15:08:49Z</time>
      </trkpt>
      <trkpt lat="45.72384" lon="3.13503">
        <ele>485.8</ele>
        <time>2021-08-03T15:08:51Z</time>
      </trkpt>
      <trkpt lat="45.72377" lon="3.13505">
        <ele>486.9</ele>
        <time>2021-08-03T15:08:53Z</time>
      </trkpt>
      <trkpt lat="45.72372" lon="3.13509">
        <ele>487.4</ele>
        <time>2021-08-03T15:08:55Z</time>
      </trkpt>
      <trkpt lat="45.72365" lon="3.13508">
        <ele>488.8</ele>
        <time>2021-08-03T15:08:57Z</time>
      </trkpt>
      <trkpt lat="45.72355" lon="3.13509">
        <ele>490.5</ele>
        <time>2021-08-03T15:08:59Z</time>
      </trkpt>
      <trkpt lat="45.72349" lon="3.13517">
        <ele>490.8</ele>
        <time>2021-08-03T15:09:01Z</time>
      </trkpt>
      <trkpt lat="45.72348" lon="3.13529">
        <ele>489.4</ele>
        <time>2021-08-03T15:09:03Z</time>
      </trkpt>
      <trkpt lat="45.72346" lon="3.13536">
        <ele>488.8</ele>
        <time>2021-08-03T15:09:05Z</time>
      </trkpt>
      <trkpt lat="45.72345" lon="3.13542">
        <ele>488.3</ele>
        <time>2021-08-03T15:09:07Z</time>
      </trkpt>
      <trkpt lat="45.72343" lon="3.13548">
        <ele>487.8</ele>
        <time>2021-08-03T15:09:09Z</time>
      </trkpt>
      <trkpt lat="45.72341" lon="3.13554">
        <ele>487.5</ele>
        <time>2021-08-03T15:09:11Z</time>
      </trkpt>
      <trkpt lat="45.72337" lon="3.1356">
        <ele>487.3</ele>
        <time>2021-08-03T15:09:13Z</time>
      </trkpt>
      <trkpt lat="45.72334" lon="3.13565">
        <ele>487.2</ele>
        <time>2021-08-03T15:09:15Z</time>
      </trkpt>
      <trkpt lat="45.72331" lon="3.13571">
        <ele>487.1</ele>
        <time>2021-08-03T15:09:17Z</time>
      </trkpt>
      <trkpt lat="45.72328" lon="3.13575">
        <ele>487.2</ele>
        <time>2021-08-03T15:09:19Z</time>
      </trkpt>
      <trkpt lat="45.72325" lon="3.13578">
        <ele>487.4</ele>
        <time>2021-08-03T15:09:21Z</time>
      </trkpt>
      <trkpt lat="45.72322" lon="3.13582">
        <ele>487.5</ele>
        <time>2021-08-03T15:09:23Z</time>
      </trkpt>
      <trkpt lat="45.72319" lon="3.13585">
        <ele>487.7</ele>
        <time>2021-08-03T15:09:25Z</time>
      </trkpt>
      <trkpt lat="45.72315" lon="3.13588">
        <ele>487.9</ele>
        <time>2021-08-03T15:09:27Z</time>
      </trkpt>
      <trkpt lat="45.72313" lon="3.13591">
        <ele>487.9</ele>
        <time>2021-08-03T15:09:29Z</time>
      </trkpt>
      <trkpt lat="45.7231" lon="3.13593">
        <ele>488.2</ele>
        <time>2021-08-03T15:09:31Z</time>
      </trkpt>
      <trkpt lat="45.72308" lon="3.13595">
        <ele>488.4</ele>
        <time>2021-08-03T15:09:33Z</time>
      </trkpt>
      <trkpt lat="45.72306" lon="3.13596">
        <ele>488.5</ele>
        <time>2021-08-03T15:09:35Z</time>
      </trkpt>
      <trkpt lat="45.72305" lon="3.13598">
        <ele>488.6</ele>
        <time>2021-08-03T15:09:37Z</time>
      </trkpt>
      <trkpt lat="45.72303" lon="3.136">
        <ele>488.7</ele>
        <time>2021-08-03T15:09:39Z</time>
      </trkpt>
      <trkpt lat="45.72301" lon="3.13603">
        <ele>488.5</ele>
        <time>2021-08-03T15:09:41Z</time>
      </trkpt>
      <trkpt lat="45.723" lon="3.13604">
        <ele>488.5</ele>
        <time>2021-08-03T15:09:43Z</time>
      </trkpt>
      <trkpt lat="45.72297" lon="3.13607">
        <ele>488.5</ele>
        <time>2021-08-03T15:09:45Z</time>
      </trkpt>
      <trkpt lat="45.72295" lon="3.13608">
        <ele>488.6</ele>
        <time>2021-08-03T15:09:47Z</time>
      </trkpt>
      <trkpt lat="45.72293" lon="3.1361">
        <ele>488.7</ele>
        <time>2021-08-03T15:09:49Z</time>
      </trkpt>
      <trkpt lat="45.72291" lon="3.13613">
        <ele>488.6</ele>
        <time>2021-08-03T15:09:51Z</time>
      </trkpt>
      <trkpt lat="45.7229" lon="3.13615">
        <ele>488.5</ele>
        <time>2021-08-03T15:09:53Z</time>
      </trkpt>
      <trkpt lat="45.72288" lon="3.13617">
        <ele>488.4</ele>
        <time>2021-08-03T15:09:55Z</time>
      </trkpt>
      <trkpt lat="45.72286" lon="3.1362">
        <ele>488.4</ele>
        <time>2021-08-03T15:09:57Z</time>
      </trkpt>
      <trkpt lat="45.72284" lon="3.13621">
        <ele>488.6</ele>
        <time>2021-08-03T15:09:59Z</time>
      </trkpt>
      <trkpt lat="45.72282" lon="3.13623">
        <ele>488.7</ele>
        <time>2021-08-03T15:10:01Z</time>
      </trkpt>
      <trkpt lat="45.72279" lon="3.13624">
        <ele>489</ele>
        <time>2021-08-03T15:10:03Z</time>
      </trkpt>
      <trkpt lat="45.72277" lon="3.13624">
        <ele>489.3</ele>
        <time>2021-08-03T15:10:05Z</time>
      </trkpt>
      <trkpt lat="45.72275" lon="3.13625">
        <ele>489.5</ele>
        <time>2021-08-03T15:10:07Z</time>
      </trkpt>
      <trkpt lat="45.72273" lon="3.13627">
        <ele>489.5</ele>
        <time>2021-08-03T15:10:09Z</time>
      </trkpt>
      <trkpt lat="45.7227" lon="3.13628">
        <ele>489.8</ele>
        <time>2021-08-03T15:10:11Z</time>
      </trkpt>
      <trkpt lat="45.72267" lon="3.13628">
        <ele>490.4</ele>
        <time>2021-08-03T15:10:13Z</time>
      </trkpt>
      <trkpt lat="45.72265" lon="3.13629">
        <ele>490.6</ele>
        <time>2021-08-03T15:10:15Z</time>
      </trkpt>
      <trkpt lat="45.72263" lon="3.13629">
        <ele>491</ele>
        <time>2021-08-03T15:10:17Z</time>
      </trkpt>
      <trkpt lat="45.72259" lon="3.13629">
        <ele>491.6</ele>
        <time>2021-08-03T15:10:19Z</time>
      </trkpt>
      <trkpt lat="45.72257" lon="3.13629">
        <ele>491.9</ele>
        <time>2021-08-03T15:10:21Z</time>
      </trkpt>
      <trkpt lat="45.72254" lon="3.13631">
        <ele>492.2</ele>
        <time>2021-08-03T15:10:23Z</time>
      </trkpt>
      <trkpt lat="45.72251" lon="3.13631">
        <ele>492.7</ele>
        <time>2021-08-03T15:10:25Z</time>
      </trkpt>
      <trkpt lat="45.72249" lon="3.13631">
        <ele>493</ele>
        <time>2021-08-03T15:10:27Z</time>
      </trkpt>
      <trkpt lat="45.72246" lon="3.13631">
        <ele>493.2</ele>
        <time>2021-08-03T15:10:29Z</time>
      </trkpt>
      <trkpt lat="45.72244" lon="3.13631">
        <ele>493.4</ele>
        <time>2021-08-03T15:10:31Z</time>
      </trkpt>
      <trkpt lat="45.72242" lon="3.13632">
        <ele>493.4</ele>
        <time>2021-08-03T15:10:33Z</time>
      </trkpt>
      <trkpt lat="45.72239" lon="3.13632">
        <ele>493.6</ele>
        <time>2021-08-03T15:10:35Z</time>
      </trkpt>
      <trkpt lat="45.72236" lon="3.13633">
        <ele>493.8</ele>
        <time>2021-08-03T15:10:37Z</time>
      </trkpt>
      <trkpt lat="45.72233" lon="3.13632">
        <ele>494.1</ele>
        <time>2021-08-03T15:10:39Z</time>
      </trkpt>
      <trkpt lat="45.72232" lon="3.13632">
        <ele>494.4</ele>
        <time>2021-08-03T15:10:41Z</time>
      </trkpt>
      <trkpt lat="45.72228" lon="3.13633">
        <ele>494.5</ele>
        <time>2021-08-03T15:10:43Z</time>
      </trkpt>
      <trkpt lat="45.72224" lon="3.13634">
        <ele>494.6</ele>
        <time>2021-08-03T15:10:45Z</time>
      </trkpt>
      <trkpt lat="45.7222" lon="3.13636">
        <ele>494.6</ele>
        <time>2021-08-03T15:10:47Z</time>
      </trkpt>
      <trkpt lat="45.72216" lon="3.13638">
        <ele>494.7</ele>
        <time>2021-08-03T15:10:49Z</time>
      </trkpt>
      <trkpt lat="45.72213" lon="3.1364">
        <ele>494.6</ele>
        <time>2021-08-03T15:10:51Z</time>
      </trkpt>
      <trkpt lat="45.72213" lon="3.1364">
        <ele>494.5</ele>
        <time>2021-08-03T15:10:53Z</time>
      </trkpt>
      <trkpt lat="45.72214" lon="3.1364">
        <ele>494.4</ele>
        <time>2021-08-03T15:10:55Z</time>
      </trkpt>
      <trkpt lat="45.72213" lon="3.13641">
        <ele>494.3</ele>
        <time>2021-08-03T15:10:57Z</time>
      </trkpt>
      <trkpt lat="45.72213" lon="3.13642">
        <ele>494.2</ele>
        <time>2021-08-03T15:10:59Z</time>
      </trkpt>
      <trkpt lat="45.72213" lon="3.13642">
        <ele>494.2</ele>
        <time>2021-08-03T15:11:01Z</time>
      </trkpt>
      <trkpt lat="45.72192" lon="3.1366">
        <ele>492.9</ele>
        <time>2021-08-03T15:12:03Z</time>
      </trkpt>
      <trkpt lat="45.72185" lon="3.13668">
        <ele>491.9</ele>
        <time>2021-08-03T15:12:05Z</time>
      </trkpt>
      <trkpt lat="45.72177" lon="3.13677">
        <ele>491.1</ele>
        <time>2021-08-03T15:12:07Z</time>
      </trkpt>
      <trkpt lat="45.72168" lon="3.13684">
        <ele>490.6</ele>
        <time>2021-08-03T15:12:09Z</time>
      </trkpt>
      <trkpt lat="45.72159" lon="3.13686">
        <ele>491.3</ele>
        <time>2021-08-03T15:12:11Z</time>
      </trkpt>
      <trkpt lat="45.72152" lon="3.13686">
        <ele>492.1</ele>
        <time>2021-08-03T15:12:13Z</time>
      </trkpt>
      <trkpt lat="45.72146" lon="3.13689">
        <ele>492.3</ele>
        <time>2021-08-03T15:12:15Z</time>
      </trkpt>
      <trkpt lat="45.72143" lon="3.13694">
        <ele>491.6</ele>
        <time>2021-08-03T15:12:17Z</time>
      </trkpt>
      <trkpt lat="45.72141" lon="3.13702">
        <ele>490.4</ele>
        <time>2021-08-03T15:12:19Z</time>
      </trkpt>
      <trkpt lat="45.72139" lon="3.13713">
        <ele>488.6</ele>
        <time>2021-08-03T15:12:21Z</time>
      </trkpt>
      <trkpt lat="45.72137" lon="3.13724">
        <ele>486.8</ele>
        <time>2021-08-03T15:12:23Z</time>
      </trkpt>
      <trkpt lat="45.72133" lon="3.13734">
        <ele>485.5</ele>
        <time>2021-08-03T15:12:25Z</time>
      </trkpt>
      <trkpt lat="45.72124" lon="3.13743">
        <ele>484.8</ele>
        <time>2021-08-03T15:12:27Z</time>
      </trkpt>
      <trkpt lat="45.72115" lon="3.13751">
        <ele>484.5</ele>
        <time>2021-08-03T15:12:29Z</time>
      </trkpt>
      <trkpt lat="45.72105" lon="3.13758">
        <ele>484.3</ele>
        <time>2021-08-03T15:12:31Z</time>
      </trkpt>
      <trkpt lat="45.72096" lon="3.13763">
        <ele>484.5</ele>
        <time>2021-08-03T15:12:33Z</time>
      </trkpt>
      <trkpt lat="45.72085" lon="3.1377">
        <ele>484.7</ele>
        <time>2021-08-03T15:12:35Z</time>
      </trkpt>
      <trkpt lat="45.72075" lon="3.13775">
        <ele>484.9</ele>
        <time>2021-08-03T15:12:37Z</time>
      </trkpt>
      <trkpt lat="45.72066" lon="3.13779">
        <ele>484.9</ele>
        <time>2021-08-03T15:12:39Z</time>
      </trkpt>
      <trkpt lat="45.72059" lon="3.13784">
        <ele>484.7</ele>
        <time>2021-08-03T15:12:41Z</time>
      </trkpt>
      <trkpt lat="45.72051" lon="3.13789">
        <ele>484.7</ele>
        <time>2021-08-03T15:12:43Z</time>
      </trkpt>
      <trkpt lat="45.72043" lon="3.13793">
        <ele>484.8</ele>
        <time>2021-08-03T15:12:45Z</time>
      </trkpt>
      <trkpt lat="45.72035" lon="3.13797">
        <ele>484.6</ele>
        <time>2021-08-03T15:12:47Z</time>
      </trkpt>
      <trkpt lat="45.72029" lon="3.13801">
        <ele>484.6</ele>
        <time>2021-08-03T15:12:49Z</time>
      </trkpt>
      <trkpt lat="45.72023" lon="3.13804">
        <ele>484.7</ele>
        <time>2021-08-03T15:12:51Z</time>
      </trkpt>
      <trkpt lat="45.72017" lon="3.13807">
        <ele>484.7</ele>
        <time>2021-08-03T15:12:53Z</time>
      </trkpt>
      <trkpt lat="45.7201" lon="3.13811">
        <ele>484.6</ele>
        <time>2021-08-03T15:12:55Z</time>
      </trkpt>
      <trkpt lat="45.72005" lon="3.13815">
        <ele>484.5</ele>
        <time>2021-08-03T15:12:57Z</time>
      </trkpt>
      <trkpt lat="45.71999" lon="3.13819">
        <ele>484.3</ele>
        <time>2021-08-03T15:12:59Z</time>
      </trkpt>
      <trkpt lat="45.71994" lon="3.13824">
        <ele>483.8</ele>
        <time>2021-08-03T15:13:01Z</time>
      </trkpt>
      <trkpt lat="45.71988" lon="3.1383">
        <ele>483</ele>
        <time>2021-08-03T15:13:03Z</time>
      </trkpt>
      <trkpt lat="45.71981" lon="3.13836">
        <ele>482.4</ele>
        <time>2021-08-03T15:13:05Z</time>
      </trkpt>
      <trkpt lat="45.71974" lon="3.13841">
        <ele>481.8</ele>
        <time>2021-08-03T15:13:07Z</time>
      </trkpt>
      <trkpt lat="45.7197" lon="3.13847">
        <ele>481</ele>
        <time>2021-08-03T15:13:09Z</time>
      </trkpt>
      <trkpt lat="45.71965" lon="3.13852">
        <ele>480.5</ele>
        <time>2021-08-03T15:13:11Z</time>
      </trkpt>
      <trkpt lat="45.71957" lon="3.13858">
        <ele>479.8</ele>
        <time>2021-08-03T15:13:13Z</time>
      </trkpt>
      <trkpt lat="45.71948" lon="3.13864">
        <ele>479.3</ele>
        <time>2021-08-03T15:13:15Z</time>
      </trkpt>
      <trkpt lat="45.71938" lon="3.1387">
        <ele>478.7</ele>
        <time>2021-08-03T15:13:17Z</time>
      </trkpt>
      <trkpt lat="45.71928" lon="3.13876">
        <ele>478</ele>
        <time>2021-08-03T15:13:19Z</time>
      </trkpt>
      <trkpt lat="45.71919" lon="3.13882">
        <ele>477.4</ele>
        <time>2021-08-03T15:13:21Z</time>
      </trkpt>
      <trkpt lat="45.71909" lon="3.13888">
        <ele>476</ele>
        <time>2021-08-03T15:13:23Z</time>
      </trkpt>
      <trkpt lat="45.71898" lon="3.13896">
        <ele>474.2</ele>
        <time>2021-08-03T15:13:25Z</time>
      </trkpt>
      <trkpt lat="45.71888" lon="3.13902">
        <ele>472.8</ele>
        <time>2021-08-03T15:13:27Z</time>
      </trkpt>
      <trkpt lat="45.71878" lon="3.13907">
        <ele>471.5</ele>
        <time>2021-08-03T15:13:29Z</time>
      </trkpt>
      <trkpt lat="45.71868" lon="3.13912">
        <ele>470.3</ele>
        <time>2021-08-03T15:13:31Z</time>
      </trkpt>
      <trkpt lat="45.71859" lon="3.13915">
        <ele>469.5</ele>
        <time>2021-08-03T15:13:33Z</time>
      </trkpt>
      <trkpt lat="45.71849" lon="3.13918">
        <ele>468.6</ele>
        <time>2021-08-03T15:13:35Z</time>
      </trkpt>
      <trkpt lat="45.71836" lon="3.13919">
        <ele>467.9</ele>
        <time>2021-08-03T15:13:37Z</time>
      </trkpt>
      <trkpt lat="45.71822" lon="3.13917">
        <ele>466.5</ele>
        <time>2021-08-03T15:13:39Z</time>
      </trkpt>
      <trkpt lat="45.7181" lon="3.13912">
        <ele>465.5</ele>
        <time>2021-08-03T15:13:41Z</time>
      </trkpt>
      <trkpt lat="45.71798" lon="3.13906">
        <ele>464.5</ele>
        <time>2021-08-03T15:13:43Z</time>
      </trkpt>
      <trkpt lat="45.71786" lon="3.139">
        <ele>463.5</ele>
        <time>2021-08-03T15:13:45Z</time>
      </trkpt>
      <trkpt lat="45.71776" lon="3.13897">
        <ele>462.4</ele>
        <time>2021-08-03T15:13:47Z</time>
      </trkpt>
      <trkpt lat="45.71769" lon="3.13897">
        <ele>461.4</ele>
        <time>2021-08-03T15:13:49Z</time>
      </trkpt>
      <trkpt lat="45.71763" lon="3.13898">
        <ele>460.5</ele>
        <time>2021-08-03T15:13:51Z</time>
      </trkpt>
      <trkpt lat="45.71758" lon="3.13894">
        <ele>460.1</ele>
        <time>2021-08-03T15:13:53Z</time>
      </trkpt>
      <trkpt lat="45.71752" lon="3.13896">
        <ele>459</ele>
        <time>2021-08-03T15:13:55Z</time>
      </trkpt>
      <trkpt lat="45.71742" lon="3.13895">
        <ele>458</ele>
        <time>2021-08-03T15:13:57Z</time>
      </trkpt>
      <trkpt lat="45.71729" lon="3.13894">
        <ele>456.6</ele>
        <time>2021-08-03T15:13:59Z</time>
      </trkpt>
      <trkpt lat="45.71715" lon="3.13889">
        <ele>455.5</ele>
        <time>2021-08-03T15:14:01Z</time>
      </trkpt>
      <trkpt lat="45.717" lon="3.13884">
        <ele>454.4</ele>
        <time>2021-08-03T15:14:03Z</time>
      </trkpt>
      <trkpt lat="45.71686" lon="3.13881">
        <ele>453.2</ele>
        <time>2021-08-03T15:14:05Z</time>
      </trkpt>
      <trkpt lat="45.71674" lon="3.13878">
        <ele>452</ele>
        <time>2021-08-03T15:14:07Z</time>
      </trkpt>
      <trkpt lat="45.71662" lon="3.1388">
        <ele>450.9</ele>
        <time>2021-08-03T15:14:09Z</time>
      </trkpt>
      <trkpt lat="45.71652" lon="3.13888">
        <ele>449.7</ele>
        <time>2021-08-03T15:14:11Z</time>
      </trkpt>
      <trkpt lat="45.71645" lon="3.13896">
        <ele>448.7</ele>
        <time>2021-08-03T15:14:13Z</time>
      </trkpt>
      <trkpt lat="45.71637" lon="3.13901">
        <ele>448</ele>
        <time>2021-08-03T15:14:15Z</time>
      </trkpt>
      <trkpt lat="45.71629" lon="3.13904">
        <ele>447.3</ele>
        <time>2021-08-03T15:14:17Z</time>
      </trkpt>
      <trkpt lat="45.7162" lon="3.13906">
        <ele>446.8</ele>
        <time>2021-08-03T15:14:19Z</time>
      </trkpt>
      <trkpt lat="45.71613" lon="3.13904">
        <ele>446.5</ele>
        <time>2021-08-03T15:14:21Z</time>
      </trkpt>
      <trkpt lat="45.71605" lon="3.13902">
        <ele>446.4</ele>
        <time>2021-08-03T15:14:23Z</time>
      </trkpt>
      <trkpt lat="45.71599" lon="3.13897">
        <ele>446.6</ele>
        <time>2021-08-03T15:14:25Z</time>
      </trkpt>
      <trkpt lat="45.71595" lon="3.13893">
        <ele>446.8</ele>
        <time>2021-08-03T15:14:27Z</time>
      </trkpt>
      <trkpt lat="45.71592" lon="3.13893">
        <ele>446.7</ele>
        <time>2021-08-03T15:14:29Z</time>
      </trkpt>
      <trkpt lat="45.71588" lon="3.13891">
        <ele>446.7</ele>
        <time>2021-08-03T15:14:31Z</time>
      </trkpt>
      <trkpt lat="45.71584" lon="3.1389">
        <ele>446.6</ele>
        <time>2021-08-03T15:14:33Z</time>
      </trkpt>
      <trkpt lat="45.71581" lon="3.13892">
        <ele>446.2</ele>
        <time>2021-08-03T15:14:35Z</time>
      </trkpt>
      <trkpt lat="45.71578" lon="3.13895">
        <ele>445.8</ele>
        <time>2021-08-03T15:14:37Z</time>
      </trkpt>
      <trkpt lat="45.71574" lon="3.13898">
        <ele>445.3</ele>
        <time>2021-08-03T15:14:39Z</time>
      </trkpt>
      <trkpt lat="45.71571" lon="3.13897">
        <ele>445.1</ele>
        <time>2021-08-03T15:14:41Z</time>
      </trkpt>
      <trkpt lat="45.71568" lon="3.13893">
        <ele>445.3</ele>
        <time>2021-08-03T15:14:43Z</time>
      </trkpt>
      <trkpt lat="45.71571" lon="3.13891">
        <ele>445.7</ele>
        <time>2021-08-03T15:14:45Z</time>
      </trkpt>
      <trkpt lat="45.71573" lon="3.13896">
        <ele>445.4</ele>
        <time>2021-08-03T15:14:47Z</time>
      </trkpt>
      <trkpt lat="45.71576" lon="3.13897">
        <ele>445.4</ele>
        <time>2021-08-03T15:14:49Z</time>
      </trkpt>
      <trkpt lat="45.71575" lon="3.13896">
        <ele>445.5</ele>
        <time>2021-08-03T15:14:51Z</time>
      </trkpt>
      <trkpt lat="45.71575" lon="3.13896">
        <ele>445.5</ele>
        <time>2021-08-03T15:14:53Z</time>
      </trkpt>
      <trkpt lat="45.71575" lon="3.13896">
        <ele>445.5</ele>
        <time>2021-08-03T15:14:55Z</time>
      </trkpt>
      <trkpt lat="45.71567" lon="3.13892">
        <ele>445.4</ele>
        <time>2021-08-03T15:15:47Z</time>
      </trkpt>
      <trkpt lat="45.71567" lon="3.13892">
        <ele>445.4</ele>
        <time>2021-08-03T15:15:49Z</time>
      </trkpt>
      <trkpt lat="45.71565" lon="3.13894">
        <ele>445.1</ele>
        <time>2021-08-03T15:15:51Z</time>
      </trkpt>
      <trkpt lat="45.71562" lon="3.13895">
        <ele>444.8</ele>
        <time>2021-08-03T15:15:53Z</time>
      </trkpt>
      <trkpt lat="45.71558" lon="3.13897">
        <ele>444.4</ele>
        <time>2021-08-03T15:15:55Z</time>
      </trkpt>
      <trkpt lat="45.71554" lon="3.13899">
        <ele>443.9</ele>
        <time>2021-08-03T15:15:57Z</time>
      </trkpt>
      <trkpt lat="45.71548" lon="3.13899">
        <ele>443.6</ele>
        <time>2021-08-03T15:15:59Z</time>
      </trkpt>
      <trkpt lat="45.71543" lon="3.139">
        <ele>443.2</ele>
        <time>2021-08-03T15:16:01Z</time>
      </trkpt>
      <trkpt lat="45.71538" lon="3.13902">
        <ele>442.7</ele>
        <time>2021-08-03T15:16:03Z</time>
      </trkpt>
      <trkpt lat="45.71535" lon="3.13903">
        <ele>442.4</ele>
        <time>2021-08-03T15:16:05Z</time>
      </trkpt>
      <trkpt lat="45.71535" lon="3.13907">
        <ele>442.1</ele>
        <time>2021-08-03T15:16:07Z</time>
      </trkpt>
      <trkpt lat="45.71535" lon="3.13906">
        <ele>442.2</ele>
        <time>2021-08-03T15:16:09Z</time>
      </trkpt>
      <trkpt lat="45.71535" lon="3.13906">
        <ele>442.2</ele>
        <time>2021-08-03T15:16:11Z</time>
      </trkpt>
      <trkpt lat="45.71535" lon="3.13906">
        <ele>442.2</ele>
        <time>2021-08-03T15:16:13Z</time>
      </trkpt>
      <trkpt lat="45.71535" lon="3.13906">
        <ele>442.1</ele>
        <time>2021-08-03T15:16:15Z</time>
      </trkpt>
      <trkpt lat="45.71528" lon="3.13896">
        <ele>442.7</ele>
        <time>2021-08-03T15:16:23Z</time>
      </trkpt>
      <trkpt lat="45.71527" lon="3.13892">
        <ele>443</ele>
        <time>2021-08-03T15:16:25Z</time>
      </trkpt>
      <trkpt lat="45.71525" lon="3.13888">
        <ele>443.3</ele>
        <time>2021-08-03T15:16:27Z</time>
      </trkpt>
      <trkpt lat="45.71523" lon="3.13884">
        <ele>443.5</ele>
        <time>2021-08-03T15:16:29Z</time>
      </trkpt>
      <trkpt lat="45.7152" lon="3.13881">
        <ele>443.6</ele>
        <time>2021-08-03T15:16:31Z</time>
      </trkpt>
      <trkpt lat="45.71518" lon="3.13879">
        <ele>443.6</ele>
        <time>2021-08-03T15:16:33Z</time>
      </trkpt>
      <trkpt lat="45.71515" lon="3.13877">
        <ele>443.7</ele>
        <time>2021-08-03T15:16:35Z</time>
      </trkpt>
      <trkpt lat="45.71513" lon="3.13876">
        <ele>443.7</ele>
        <time>2021-08-03T15:16:37Z</time>
      </trkpt>
      <trkpt lat="45.71514" lon="3.13877">
        <ele>443.6</ele>
        <time>2021-08-03T15:16:39Z</time>
      </trkpt>
      <trkpt lat="45.71514" lon="3.13876">
        <ele>443.7</ele>
        <time>2021-08-03T15:16:41Z</time>
      </trkpt>
      <trkpt lat="45.71514" lon="3.13877">
        <ele>443.7</ele>
        <time>2021-08-03T15:16:43Z</time>
      </trkpt>
      <trkpt lat="45.71511" lon="3.13877">
        <ele>443.4</ele>
        <time>2021-08-03T15:16:45Z</time>
      </trkpt>
      <trkpt lat="45.71506" lon="3.13879">
        <ele>443</ele>
        <time>2021-08-03T15:16:47Z</time>
      </trkpt>
      <trkpt lat="45.71499" lon="3.13885">
        <ele>441.9</ele>
        <time>2021-08-03T15:16:49Z</time>
      </trkpt>
      <trkpt lat="45.7149" lon="3.13894">
        <ele>440.1</ele>
        <time>2021-08-03T15:16:51Z</time>
      </trkpt>
      <trkpt lat="45.71482" lon="3.13903">
        <ele>438.5</ele>
        <time>2021-08-03T15:16:53Z</time>
      </trkpt>
      <trkpt lat="45.71474" lon="3.13913">
        <ele>436.9</ele>
        <time>2021-08-03T15:16:55Z</time>
      </trkpt>
      <trkpt lat="45.71467" lon="3.13922">
        <ele>435.5</ele>
        <time>2021-08-03T15:16:57Z</time>
      </trkpt>
      <trkpt lat="45.7146" lon="3.13934">
        <ele>434</ele>
        <time>2021-08-03T15:16:59Z</time>
      </trkpt>
      <trkpt lat="45.71451" lon="3.13941">
        <ele>432.8</ele>
        <time>2021-08-03T15:17:01Z</time>
      </trkpt>
      <trkpt lat="45.71442" lon="3.13951">
        <ele>431.4</ele>
        <time>2021-08-03T15:17:03Z</time>
      </trkpt>
      <trkpt lat="45.71436" lon="3.1396">
        <ele>430.4</ele>
        <time>2021-08-03T15:17:05Z</time>
      </trkpt>
      <trkpt lat="45.7143" lon="3.13967">
        <ele>429.6</ele>
        <time>2021-08-03T15:17:07Z</time>
      </trkpt>
      <trkpt lat="45.71426" lon="3.13971">
        <ele>429.1</ele>
        <time>2021-08-03T15:17:09Z</time>
      </trkpt>
      <trkpt lat="45.71422" lon="3.13976">
        <ele>428.5</ele>
        <time>2021-08-03T15:17:11Z</time>
      </trkpt>
      <trkpt lat="45.71416" lon="3.13982">
        <ele>427.8</ele>
        <time>2021-08-03T15:17:13Z</time>
      </trkpt>
      <trkpt lat="45.7141" lon="3.13988">
        <ele>427.1</ele>
        <time>2021-08-03T15:17:15Z</time>
      </trkpt>
      <trkpt lat="45.71404" lon="3.13994">
        <ele>426.4</ele>
        <time>2021-08-03T15:17:17Z</time>
      </trkpt>
      <trkpt lat="45.71399" lon="3.14001">
        <ele>425.7</ele>
        <time>2021-08-03T15:17:19Z</time>
      </trkpt>
      <trkpt lat="45.71394" lon="3.14005">
        <ele>425.1</ele>
        <time>2021-08-03T15:17:21Z</time>
      </trkpt>
      <trkpt lat="45.71388" lon="3.14012">
        <ele>424.4</ele>
        <time>2021-08-03T15:17:23Z</time>
      </trkpt>
      <trkpt lat="45.71382" lon="3.14015">
        <ele>423.9</ele>
        <time>2021-08-03T15:17:25Z</time>
      </trkpt>
      <trkpt lat="45.71377" lon="3.14018">
        <ele>423.4</ele>
        <time>2021-08-03T15:17:27Z</time>
      </trkpt>
      <trkpt lat="45.71373" lon="3.14021">
        <ele>423</ele>
        <time>2021-08-03T15:17:29Z</time>
      </trkpt>
      <trkpt lat="45.71371" lon="3.14024">
        <ele>422.7</ele>
        <time>2021-08-03T15:17:31Z</time>
      </trkpt>
      <trkpt lat="45.71366" lon="3.14028">
        <ele>422.2</ele>
        <time>2021-08-03T15:17:33Z</time>
      </trkpt>
      <trkpt lat="45.71362" lon="3.14034">
        <ele>421.7</ele>
        <time>2021-08-03T15:17:35Z</time>
      </trkpt>
      <trkpt lat="45.71358" lon="3.1404">
        <ele>421.2</ele>
        <time>2021-08-03T15:17:37Z</time>
      </trkpt>
      <trkpt lat="45.71352" lon="3.14047">
        <ele>420.6</ele>
        <time>2021-08-03T15:17:39Z</time>
      </trkpt>
      <trkpt lat="45.71347" lon="3.14053">
        <ele>420</ele>
        <time>2021-08-03T15:17:41Z</time>
      </trkpt>
      <trkpt lat="45.71341" lon="3.1406">
        <ele>419.3</ele>
        <time>2021-08-03T15:17:43Z</time>
      </trkpt>
      <trkpt lat="45.71334" lon="3.14069">
        <ele>418.6</ele>
        <time>2021-08-03T15:17:45Z</time>
      </trkpt>
      <trkpt lat="45.71327" lon="3.14076">
        <ele>418</ele>
        <time>2021-08-03T15:17:47Z</time>
      </trkpt>
      <trkpt lat="45.7132" lon="3.14082">
        <ele>417.4</ele>
        <time>2021-08-03T15:17:49Z</time>
      </trkpt>
      <trkpt lat="45.71311" lon="3.14088">
        <ele>416.6</ele>
        <time>2021-08-03T15:17:51Z</time>
      </trkpt>
      <trkpt lat="45.71302" lon="3.14096">
        <ele>415.8</ele>
        <time>2021-08-03T15:17:53Z</time>
      </trkpt>
      <trkpt lat="45.71293" lon="3.14104">
        <ele>415.1</ele>
        <time>2021-08-03T15:17:55Z</time>
      </trkpt>
      <trkpt lat="45.71285" lon="3.1411">
        <ele>414.4</ele>
        <time>2021-08-03T15:17:57Z</time>
      </trkpt>
      <trkpt lat="45.71277" lon="3.14117">
        <ele>413.8</ele>
        <time>2021-08-03T15:17:59Z</time>
      </trkpt>
      <trkpt lat="45.71269" lon="3.14121">
        <ele>413.3</ele>
        <time>2021-08-03T15:18:01Z</time>
      </trkpt>
      <trkpt lat="45.7126" lon="3.14127">
        <ele>412.8</ele>
        <time>2021-08-03T15:18:03Z</time>
      </trkpt>
      <trkpt lat="45.71252" lon="3.14133">
        <ele>412.3</ele>
        <time>2021-08-03T15:18:05Z</time>
      </trkpt>
      <trkpt lat="45.71245" lon="3.14139">
        <ele>411.9</ele>
        <time>2021-08-03T15:18:07Z</time>
      </trkpt>
      <trkpt lat="45.71239" lon="3.1414">
        <ele>411.7</ele>
        <time>2021-08-03T15:18:09Z</time>
      </trkpt>
      <trkpt lat="45.71239" lon="3.1414">
        <ele>411.7</ele>
        <time>2021-08-03T15:18:11Z</time>
      </trkpt>
      <trkpt lat="45.71239" lon="3.1414">
        <ele>411.8</ele>
        <time>2021-08-03T15:18:13Z</time>
      </trkpt>
      <trkpt lat="45.71239" lon="3.1414">
        <ele>411.8</ele>
        <time>2021-08-03T15:18:15Z</time>
      </trkpt>
      <trkpt lat="45.71239" lon="3.14139">
        <ele>411.8</ele>
        <time>2021-08-03T15:18:17Z</time>
      </trkpt>
      <trkpt lat="45.71239" lon="3.14139">
        <ele>411.8</ele>
        <time>2021-08-03T15:18:19Z</time>
      </trkpt>
      <trkpt lat="45.71227" lon="3.14163">
        <ele>410.6</ele>
        <time>2021-08-03T15:42:57Z</time>
      </trkpt>
      <trkpt lat="45.71222" lon="3.14171">
        <ele>410.1</ele>
        <time>2021-08-03T15:42:59Z</time>
      </trkpt>
      <trkpt lat="45.71217" lon="3.1418">
        <ele>409.5</ele>
        <time>2021-08-03T15:43:01Z</time>
      </trkpt>
      <trkpt lat="45.71213" lon="3.14191">
        <ele>408.9</ele>
        <time>2021-08-03T15:43:03Z</time>
      </trkpt>
      <trkpt lat="45.71208" lon="3.14202">
        <ele>408.3</ele>
        <time>2021-08-03T15:43:05Z</time>
      </trkpt>
      <trkpt lat="45.71201" lon="3.14214">
        <ele>407.7</ele>
        <time>2021-08-03T15:43:07Z</time>
      </trkpt>
      <trkpt lat="45.71194" lon="3.14226">
        <ele>407.1</ele>
        <time>2021-08-03T15:43:09Z</time>
      </trkpt>
      <trkpt lat="45.71188" lon="3.14239">
        <ele>406.5</ele>
        <time>2021-08-03T15:43:11Z</time>
      </trkpt>
      <trkpt lat="45.71181" lon="3.14252">
        <ele>405.9</ele>
        <time>2021-08-03T15:43:13Z</time>
      </trkpt>
      <trkpt lat="45.71174" lon="3.14265">
        <ele>405.3</ele>
        <time>2021-08-03T15:43:15Z</time>
      </trkpt>
      <trkpt lat="45.71166" lon="3.14278">
        <ele>404.6</ele>
        <time>2021-08-03T15:43:17Z</time>
      </trkpt>
      <trkpt lat="45.7116" lon="3.14292">
        <ele>404</ele>
        <time>2021-08-03T15:43:19Z</time>
      </trkpt>
      <trkpt lat="45.71152" lon="3.14305">
        <ele>403.2</ele>
        <time>2021-08-03T15:43:21Z</time>
      </trkpt>
      <trkpt lat="45.71145" lon="3.1432">
        <ele>402.4</ele>
        <time>2021-08-03T15:43:23Z</time>
      </trkpt>
      <trkpt lat="45.71137" lon="3.14334">
        <ele>401.6</ele>
        <time>2021-08-03T15:43:25Z</time>
      </trkpt>
      <trkpt lat="45.7113" lon="3.14348">
        <ele>401</ele>
        <time>2021-08-03T15:43:27Z</time>
      </trkpt>
      <trkpt lat="45.71122" lon="3.14362">
        <ele>400.4</ele>
        <time>2021-08-03T15:43:29Z</time>
      </trkpt>
      <trkpt lat="45.71114" lon="3.14377">
        <ele>399.8</ele>
        <time>2021-08-03T15:43:31Z</time>
      </trkpt>
      <trkpt lat="45.71107" lon="3.14391">
        <ele>399.2</ele>
        <time>2021-08-03T15:43:33Z</time>
      </trkpt>
      <trkpt lat="45.71099" lon="3.14405">
        <ele>398.6</ele>
        <time>2021-08-03T15:43:35Z</time>
      </trkpt>
      <trkpt lat="45.71091" lon="3.14419">
        <ele>398.1</ele>
        <time>2021-08-03T15:43:37Z</time>
      </trkpt>
      <trkpt lat="45.71088" lon="3.14431">
        <ele>397.7</ele>
        <time>2021-08-03T15:43:39Z</time>
      </trkpt>
      <trkpt lat="45.71085" lon="3.14442">
        <ele>397.4</ele>
        <time>2021-08-03T15:43:41Z</time>
      </trkpt>
      <trkpt lat="45.71084" lon="3.14455">
        <ele>397.1</ele>
        <time>2021-08-03T15:43:43Z</time>
      </trkpt>
      <trkpt lat="45.71082" lon="3.14469">
        <ele>396.8</ele>
        <time>2021-08-03T15:43:45Z</time>
      </trkpt>
      <trkpt lat="45.71078" lon="3.14482">
        <ele>396.5</ele>
        <time>2021-08-03T15:43:47Z</time>
      </trkpt>
      <trkpt lat="45.71076" lon="3.14499">
        <ele>396</ele>
        <time>2021-08-03T15:43:49Z</time>
      </trkpt>
      <trkpt lat="45.71073" lon="3.14514">
        <ele>395.6</ele>
        <time>2021-08-03T15:43:51Z</time>
      </trkpt>
      <trkpt lat="45.7107" lon="3.14527">
        <ele>395.3</ele>
        <time>2021-08-03T15:43:53Z</time>
      </trkpt>
      <trkpt lat="45.71068" lon="3.14539">
        <ele>395</ele>
        <time>2021-08-03T15:43:55Z</time>
      </trkpt>
      <trkpt lat="45.71066" lon="3.14552">
        <ele>394.6</ele>
        <time>2021-08-03T15:43:57Z</time>
      </trkpt>
      <trkpt lat="45.71062" lon="3.14565">
        <ele>394.2</ele>
        <time>2021-08-03T15:43:59Z</time>
      </trkpt>
      <trkpt lat="45.7106" lon="3.1458">
        <ele>393.8</ele>
        <time>2021-08-03T15:44:01Z</time>
      </trkpt>
      <trkpt lat="45.71058" lon="3.14593">
        <ele>393.4</ele>
        <time>2021-08-03T15:44:03Z</time>
      </trkpt>
      <trkpt lat="45.71055" lon="3.14608">
        <ele>392.8</ele>
        <time>2021-08-03T15:44:05Z</time>
      </trkpt>
      <trkpt lat="45.71052" lon="3.14624">
        <ele>392.2</ele>
        <time>2021-08-03T15:44:07Z</time>
      </trkpt>
      <trkpt lat="45.7105" lon="3.14639">
        <ele>391.6</ele>
        <time>2021-08-03T15:44:09Z</time>
      </trkpt>
      <trkpt lat="45.71047" lon="3.14655">
        <ele>391</ele>
        <time>2021-08-03T15:44:11Z</time>
      </trkpt>
      <trkpt lat="45.71043" lon="3.1467">
        <ele>390.4</ele>
        <time>2021-08-03T15:44:13Z</time>
      </trkpt>
      <trkpt lat="45.7104" lon="3.14687">
        <ele>389.6</ele>
        <time>2021-08-03T15:44:15Z</time>
      </trkpt>
      <trkpt lat="45.71035" lon="3.147">
        <ele>389</ele>
        <time>2021-08-03T15:44:17Z</time>
      </trkpt>
      <trkpt lat="45.71034" lon="3.14718">
        <ele>388.2</ele>
        <time>2021-08-03T15:44:19Z</time>
      </trkpt>
      <trkpt lat="45.71031" lon="3.14734">
        <ele>387.5</ele>
        <time>2021-08-03T15:44:21Z</time>
      </trkpt>
      <trkpt lat="45.71028" lon="3.14751">
        <ele>386.7</ele>
        <time>2021-08-03T15:44:23Z</time>
      </trkpt>
      <trkpt lat="45.71025" lon="3.14766">
        <ele>386.1</ele>
        <time>2021-08-03T15:44:25Z</time>
      </trkpt>
      <trkpt lat="45.71022" lon="3.14782">
        <ele>385.6</ele>
        <time>2021-08-03T15:44:27Z</time>
      </trkpt>
      <trkpt lat="45.71018" lon="3.14798">
        <ele>385</ele>
        <time>2021-08-03T15:44:29Z</time>
      </trkpt>
      <trkpt lat="45.71016" lon="3.14813">
        <ele>384.6</ele>
        <time>2021-08-03T15:44:31Z</time>
      </trkpt>
      <trkpt lat="45.71013" lon="3.14827">
        <ele>384.2</ele>
        <time>2021-08-03T15:44:33Z</time>
      </trkpt>
      <trkpt lat="45.71011" lon="3.14841">
        <ele>383.7</ele>
        <time>2021-08-03T15:44:35Z</time>
      </trkpt>
      <trkpt lat="45.71007" lon="3.14854">
        <ele>383.3</ele>
        <time>2021-08-03T15:44:37Z</time>
      </trkpt>
      <trkpt lat="45.71007" lon="3.14866">
        <ele>382.8</ele>
        <time>2021-08-03T15:44:39Z</time>
      </trkpt>
      <trkpt lat="45.71006" lon="3.14876">
        <ele>382.5</ele>
        <time>2021-08-03T15:44:41Z</time>
      </trkpt>
      <trkpt lat="45.71002" lon="3.14883">
        <ele>382.2</ele>
        <time>2021-08-03T15:44:43Z</time>
      </trkpt>
      <trkpt lat="45.70994" lon="3.14881">
        <ele>382.4</ele>
        <time>2021-08-03T15:44:45Z</time>
      </trkpt>
      <trkpt lat="45.70988" lon="3.1488">
        <ele>382.5</ele>
        <time>2021-08-03T15:44:47Z</time>
      </trkpt>
      <trkpt lat="45.70983" lon="3.14878">
        <ele>382.6</ele>
        <time>2021-08-03T15:44:49Z</time>
      </trkpt>
      <trkpt lat="45.70979" lon="3.14876">
        <ele>382.7</ele>
        <time>2021-08-03T15:44:51Z</time>
      </trkpt>
      <trkpt lat="45.70976" lon="3.14874">
        <ele>382.8</ele>
        <time>2021-08-03T15:44:53Z</time>
      </trkpt>
      <trkpt lat="45.70977" lon="3.14874">
        <ele>382.8</ele>
        <time>2021-08-03T15:44:55Z</time>
      </trkpt>
      <trkpt lat="45.70977" lon="3.14874">
        <ele>382.8</ele>
        <time>2021-08-03T15:44:57Z</time>
      </trkpt>
      <trkpt lat="45.70977" lon="3.14874">
        <ele>382.8</ele>
        <time>2021-08-03T15:44:59Z</time>
      </trkpt>
      <trkpt lat="45.70977" lon="3.14874">
        <ele>382.8</ele>
        <time>2021-08-03T15:45:01Z</time>
      </trkpt>
      <trkpt lat="45.70966" lon="3.14873">
        <ele>383</ele>
        <time>2021-08-03T15:45:09Z</time>
      </trkpt>
      <trkpt lat="45.70961" lon="3.14871">
        <ele>383.1</ele>
        <time>2021-08-03T15:45:11Z</time>
      </trkpt>
      <trkpt lat="45.70956" lon="3.1487">
        <ele>383.2</ele>
        <time>2021-08-03T15:45:13Z</time>
      </trkpt>
      <trkpt lat="45.7095" lon="3.14869">
        <ele>383.3</ele>
        <time>2021-08-03T15:45:15Z</time>
      </trkpt>
      <trkpt lat="45.70945" lon="3.14867">
        <ele>383.4</ele>
        <time>2021-08-03T15:45:17Z</time>
      </trkpt>
      <trkpt lat="45.70939" lon="3.14866">
        <ele>383.6</ele>
        <time>2021-08-03T15:45:19Z</time>
      </trkpt>
      <trkpt lat="45.70933" lon="3.14865">
        <ele>383.6</ele>
        <time>2021-08-03T15:45:21Z</time>
      </trkpt>
      <trkpt lat="45.70927" lon="3.14865">
        <ele>383.7</ele>
        <time>2021-08-03T15:45:23Z</time>
      </trkpt>
      <trkpt lat="45.7092" lon="3.14865">
        <ele>383.8</ele>
        <time>2021-08-03T15:45:25Z</time>
      </trkpt>
      <trkpt lat="45.70913" lon="3.14865">
        <ele>383.9</ele>
        <time>2021-08-03T15:45:27Z</time>
      </trkpt>
      <trkpt lat="45.70907" lon="3.14865">
        <ele>384</ele>
        <time>2021-08-03T15:45:29Z</time>
      </trkpt>
      <trkpt lat="45.709" lon="3.14865">
        <ele>384.1</ele>
        <time>2021-08-03T15:45:31Z</time>
      </trkpt>
      <trkpt lat="45.70892" lon="3.14867">
        <ele>384.1</ele>
        <time>2021-08-03T15:45:33Z</time>
      </trkpt>
      <trkpt lat="45.70884" lon="3.14866">
        <ele>384.2</ele>
        <time>2021-08-03T15:45:35Z</time>
      </trkpt>
      <trkpt lat="45.70876" lon="3.14866">
        <ele>384.3</ele>
        <time>2021-08-03T15:45:37Z</time>
      </trkpt>
      <trkpt lat="45.70867" lon="3.14865">
        <ele>384.4</ele>
        <time>2021-08-03T15:45:39Z</time>
      </trkpt>
      <trkpt lat="45.70858" lon="3.14866">
        <ele>384.5</ele>
        <time>2021-08-03T15:45:41Z</time>
      </trkpt>
      <trkpt lat="45.70849" lon="3.14866">
        <ele>384.6</ele>
        <time>2021-08-03T15:45:43Z</time>
      </trkpt>
      <trkpt lat="45.70839" lon="3.14866">
        <ele>384.8</ele>
        <time>2021-08-03T15:45:45Z</time>
      </trkpt>
      <trkpt lat="45.70829" lon="3.14866">
        <ele>384.9</ele>
        <time>2021-08-03T15:45:47Z</time>
      </trkpt>
      <trkpt lat="45.70819" lon="3.14868">
        <ele>385</ele>
        <time>2021-08-03T15:45:49Z</time>
      </trkpt>
      <trkpt lat="45.7081" lon="3.14868">
        <ele>385.1</ele>
        <time>2021-08-03T15:45:51Z</time>
      </trkpt>
      <trkpt lat="45.70801" lon="3.14868">
        <ele>385.2</ele>
        <time>2021-08-03T15:45:53Z</time>
      </trkpt>
      <trkpt lat="45.70791" lon="3.14868">
        <ele>385.3</ele>
        <time>2021-08-03T15:45:55Z</time>
      </trkpt>
      <trkpt lat="45.70782" lon="3.14869">
        <ele>385.4</ele>
        <time>2021-08-03T15:45:57Z</time>
      </trkpt>
      <trkpt lat="45.70774" lon="3.1487">
        <ele>385.5</ele>
        <time>2021-08-03T15:45:59Z</time>
      </trkpt>
      <trkpt lat="45.70766" lon="3.14869">
        <ele>385.6</ele>
        <time>2021-08-03T15:46:01Z</time>
      </trkpt>
      <trkpt lat="45.70758" lon="3.1487">
        <ele>385.7</ele>
        <time>2021-08-03T15:46:03Z</time>
      </trkpt>
      <trkpt lat="45.7075" lon="3.1487">
        <ele>385.8</ele>
        <time>2021-08-03T15:46:05Z</time>
      </trkpt>
      <trkpt lat="45.70742" lon="3.14871">
        <ele>385.9</ele>
        <time>2021-08-03T15:46:07Z</time>
      </trkpt>
      <trkpt lat="45.70734" lon="3.14871">
        <ele>386</ele>
        <time>2021-08-03T15:46:09Z</time>
      </trkpt>
      <trkpt lat="45.70726" lon="3.1487">
        <ele>386.2</ele>
        <time>2021-08-03T15:46:11Z</time>
      </trkpt>
      <trkpt lat="45.70718" lon="3.1487">
        <ele>386.3</ele>
        <time>2021-08-03T15:46:13Z</time>
      </trkpt>
      <trkpt lat="45.70711" lon="3.14868">
        <ele>386.6</ele>
        <time>2021-08-03T15:46:15Z</time>
      </trkpt>
      <trkpt lat="45.70704" lon="3.14865">
        <ele>386.9</ele>
        <time>2021-08-03T15:46:17Z</time>
      </trkpt>
      <trkpt lat="45.70696" lon="3.14864">
        <ele>387</ele>
        <time>2021-08-03T15:46:19Z</time>
      </trkpt>
      <trkpt lat="45.70689" lon="3.14862">
        <ele>387.3</ele>
        <time>2021-08-03T15:46:21Z</time>
      </trkpt>
      <trkpt lat="45.70682" lon="3.14862">
        <ele>387.4</ele>
        <time>2021-08-03T15:46:23Z</time>
      </trkpt>
      <trkpt lat="45.70675" lon="3.1486">
        <ele>387.6</ele>
        <time>2021-08-03T15:46:25Z</time>
      </trkpt>
      <trkpt lat="45.70668" lon="3.14859">
        <ele>387.8</ele>
        <time>2021-08-03T15:46:27Z</time>
      </trkpt>
      <trkpt lat="45.70663" lon="3.14858">
        <ele>388.1</ele>
        <time>2021-08-03T15:46:29Z</time>
      </trkpt>
      <trkpt lat="45.70658" lon="3.14857">
        <ele>388.4</ele>
        <time>2021-08-03T15:46:31Z</time>
      </trkpt>
      <trkpt lat="45.70653" lon="3.14856">
        <ele>388.8</ele>
        <time>2021-08-03T15:46:33Z</time>
      </trkpt>
      <trkpt lat="45.70647" lon="3.14854">
        <ele>389.2</ele>
        <time>2021-08-03T15:46:35Z</time>
      </trkpt>
      <trkpt lat="45.70642" lon="3.14852">
        <ele>389.6</ele>
        <time>2021-08-03T15:46:37Z</time>
      </trkpt>
      <trkpt lat="45.70636" lon="3.14851">
        <ele>389.9</ele>
        <time>2021-08-03T15:46:39Z</time>
      </trkpt>
      <trkpt lat="45.70631" lon="3.14849">
        <ele>390.3</ele>
        <time>2021-08-03T15:46:41Z</time>
      </trkpt>
      <trkpt lat="45.70626" lon="3.14848">
        <ele>390.6</ele>
        <time>2021-08-03T15:46:43Z</time>
      </trkpt>
      <trkpt lat="45.70621" lon="3.14847">
        <ele>390.9</ele>
        <time>2021-08-03T15:46:45Z</time>
      </trkpt>
      <trkpt lat="45.70616" lon="3.14846">
        <ele>391.2</ele>
        <time>2021-08-03T15:46:47Z</time>
      </trkpt>
      <trkpt lat="45.70611" lon="3.14843">
        <ele>391.5</ele>
        <time>2021-08-03T15:46:49Z</time>
      </trkpt>
      <trkpt lat="45.70607" lon="3.14842">
        <ele>391.8</ele>
        <time>2021-08-03T15:46:51Z</time>
      </trkpt>
      <trkpt lat="45.70602" lon="3.14841">
        <ele>392</ele>
        <time>2021-08-03T15:46:53Z</time>
      </trkpt>
      <trkpt lat="45.70598" lon="3.14839">
        <ele>392.3</ele>
        <time>2021-08-03T15:46:55Z</time>
      </trkpt>
      <trkpt lat="45.70593" lon="3.14838">
        <ele>392.5</ele>
        <time>2021-08-03T15:46:57Z</time>
      </trkpt>
      <trkpt lat="45.70589" lon="3.14837">
        <ele>392.7</ele>
        <time>2021-08-03T15:46:59Z</time>
      </trkpt>
      <trkpt lat="45.70586" lon="3.14835">
        <ele>392.9</ele>
        <time>2021-08-03T15:47:01Z</time>
      </trkpt>
      <trkpt lat="45.70582" lon="3.14834">
        <ele>393.1</ele>
        <time>2021-08-03T15:47:03Z</time>
      </trkpt>
      <trkpt lat="45.7058" lon="3.14832">
        <ele>393.4</ele>
        <time>2021-08-03T15:47:05Z</time>
      </trkpt>
      <trkpt lat="45.70577" lon="3.1483">
        <ele>393.8</ele>
        <time>2021-08-03T15:47:07Z</time>
      </trkpt>
      <trkpt lat="45.70573" lon="3.1483">
        <ele>394.3</ele>
        <time>2021-08-03T15:47:09Z</time>
      </trkpt>
      <trkpt lat="45.7057" lon="3.14828">
        <ele>394.7</ele>
        <time>2021-08-03T15:47:11Z</time>
      </trkpt>
      <trkpt lat="45.70566" lon="3.14827">
        <ele>395.2</ele>
        <time>2021-08-03T15:47:13Z</time>
      </trkpt>
      <trkpt lat="45.70563" lon="3.14826">
        <ele>395.5</ele>
        <time>2021-08-03T15:47:15Z</time>
      </trkpt>
      <trkpt lat="45.7056" lon="3.14825">
        <ele>395.9</ele>
        <time>2021-08-03T15:47:17Z</time>
      </trkpt>
      <trkpt lat="45.70557" lon="3.14824">
        <ele>396.3</ele>
        <time>2021-08-03T15:47:19Z</time>
      </trkpt>
      <trkpt lat="45.70554" lon="3.14823">
        <ele>396.6</ele>
        <time>2021-08-03T15:47:21Z</time>
      </trkpt>
      <trkpt lat="45.70551" lon="3.14822">
        <ele>397</ele>
        <time>2021-08-03T15:47:23Z</time>
      </trkpt>
      <trkpt lat="45.70548" lon="3.14821">
        <ele>397.4</ele>
        <time>2021-08-03T15:47:25Z</time>
      </trkpt>
      <trkpt lat="45.70545" lon="3.14821">
        <ele>397.7</ele>
        <time>2021-08-03T15:47:27Z</time>
      </trkpt>
      <trkpt lat="45.70542" lon="3.14821">
        <ele>398.1</ele>
        <time>2021-08-03T15:47:29Z</time>
      </trkpt>
      <trkpt lat="45.70538" lon="3.1482">
        <ele>398.5</ele>
        <time>2021-08-03T15:47:31Z</time>
      </trkpt>
      <trkpt lat="45.70535" lon="3.1482">
        <ele>398.8</ele>
        <time>2021-08-03T15:47:33Z</time>
      </trkpt>
      <trkpt lat="45.70532" lon="3.1482">
        <ele>399.2</ele>
        <time>2021-08-03T15:47:35Z</time>
      </trkpt>
      <trkpt lat="45.70529" lon="3.1482">
        <ele>399.5</ele>
        <time>2021-08-03T15:47:37Z</time>
      </trkpt>
      <trkpt lat="45.70526" lon="3.1482">
        <ele>399.8</ele>
        <time>2021-08-03T15:47:39Z</time>
      </trkpt>
      <trkpt lat="45.70524" lon="3.14821">
        <ele>400.2</ele>
        <time>2021-08-03T15:47:41Z</time>
      </trkpt>
      <trkpt lat="45.70521" lon="3.14821">
        <ele>400.5</ele>
        <time>2021-08-03T15:47:43Z</time>
      </trkpt>
      <trkpt lat="45.70519" lon="3.14822">
        <ele>400.7</ele>
        <time>2021-08-03T15:47:45Z</time>
      </trkpt>
      <trkpt lat="45.70516" lon="3.14822">
        <ele>401</ele>
        <time>2021-08-03T15:47:47Z</time>
      </trkpt>
      <trkpt lat="45.70513" lon="3.14822">
        <ele>401.3</ele>
        <time>2021-08-03T15:47:49Z</time>
      </trkpt>
      <trkpt lat="45.70511" lon="3.14822">
        <ele>401.7</ele>
        <time>2021-08-03T15:47:51Z</time>
      </trkpt>
      <trkpt lat="45.70508" lon="3.14822">
        <ele>402</ele>
        <time>2021-08-03T15:47:53Z</time>
      </trkpt>
      <trkpt lat="45.70505" lon="3.14822">
        <ele>402.3</ele>
        <time>2021-08-03T15:47:55Z</time>
      </trkpt>
      <trkpt lat="45.70502" lon="3.14823">
        <ele>402.6</ele>
        <time>2021-08-03T15:47:57Z</time>
      </trkpt>
      <trkpt lat="45.705" lon="3.14823">
        <ele>402.9</ele>
        <time>2021-08-03T15:47:59Z</time>
      </trkpt>
      <trkpt lat="45.70497" lon="3.14824">
        <ele>403.1</ele>
        <time>2021-08-03T15:48:01Z</time>
      </trkpt>
      <trkpt lat="45.70494" lon="3.14824">
        <ele>403.3</ele>
        <time>2021-08-03T15:48:03Z</time>
      </trkpt>
      <trkpt lat="45.70491" lon="3.14824">
        <ele>403.5</ele>
        <time>2021-08-03T15:48:05Z</time>
      </trkpt>
      <trkpt lat="45.70488" lon="3.14825">
        <ele>403.6</ele>
        <time>2021-08-03T15:48:07Z</time>
      </trkpt>
      <trkpt lat="45.70486" lon="3.14826">
        <ele>403.8</ele>
        <time>2021-08-03T15:48:09Z</time>
      </trkpt>
      <trkpt lat="45.70483" lon="3.14825">
        <ele>404</ele>
        <time>2021-08-03T15:48:11Z</time>
      </trkpt>
      <trkpt lat="45.70481" lon="3.14825">
        <ele>404.1</ele>
        <time>2021-08-03T15:48:13Z</time>
      </trkpt>
      <trkpt lat="45.70478" lon="3.14825">
        <ele>404.3</ele>
        <time>2021-08-03T15:48:15Z</time>
      </trkpt>
      <trkpt lat="45.70475" lon="3.14825">
        <ele>404.5</ele>
        <time>2021-08-03T15:48:17Z</time>
      </trkpt>
      <trkpt lat="45.70472" lon="3.14826">
        <ele>404.7</ele>
        <time>2021-08-03T15:48:19Z</time>
      </trkpt>
      <trkpt lat="45.70469" lon="3.14827">
        <ele>404.8</ele>
        <time>2021-08-03T15:48:21Z</time>
      </trkpt>
      <trkpt lat="45.70466" lon="3.14827">
        <ele>405</ele>
        <time>2021-08-03T15:48:23Z</time>
      </trkpt>
      <trkpt lat="45.70464" lon="3.14827">
        <ele>405.2</ele>
        <time>2021-08-03T15:48:25Z</time>
      </trkpt>
      <trkpt lat="45.70461" lon="3.14827">
        <ele>405.3</ele>
        <time>2021-08-03T15:48:27Z</time>
      </trkpt>
      <trkpt lat="45.70459" lon="3.14827">
        <ele>405.5</ele>
        <time>2021-08-03T15:48:29Z</time>
      </trkpt>
      <trkpt lat="45.70456" lon="3.14827">
        <ele>405.7</ele>
        <time>2021-08-03T15:48:31Z</time>
      </trkpt>
      <trkpt lat="45.70453" lon="3.14826">
        <ele>405.9</ele>
        <time>2021-08-03T15:48:33Z</time>
      </trkpt>
      <trkpt lat="45.70451" lon="3.14827">
        <ele>406</ele>
        <time>2021-08-03T15:48:35Z</time>
      </trkpt>
      <trkpt lat="45.70448" lon="3.14827">
        <ele>406.2</ele>
        <time>2021-08-03T15:48:37Z</time>
      </trkpt>
      <trkpt lat="45.70446" lon="3.14826">
        <ele>406.3</ele>
        <time>2021-08-03T15:48:39Z</time>
      </trkpt>
      <trkpt lat="45.70443" lon="3.14825">
        <ele>406.5</ele>
        <time>2021-08-03T15:48:41Z</time>
      </trkpt>
      <trkpt lat="45.70441" lon="3.14822">
        <ele>406.7</ele>
        <time>2021-08-03T15:48:43Z</time>
      </trkpt>
      <trkpt lat="45.70438" lon="3.14819">
        <ele>406.9</ele>
        <time>2021-08-03T15:48:45Z</time>
      </trkpt>
      <trkpt lat="45.70437" lon="3.14816">
        <ele>407.1</ele>
        <time>2021-08-03T15:48:47Z</time>
      </trkpt>
      <trkpt lat="45.70434" lon="3.14814">
        <ele>407.3</ele>
        <time>2021-08-03T15:48:49Z</time>
      </trkpt>
      <trkpt lat="45.70432" lon="3.14811">
        <ele>407.5</ele>
        <time>2021-08-03T15:48:51Z</time>
      </trkpt>
      <trkpt lat="45.7043" lon="3.14809">
        <ele>407.7</ele>
        <time>2021-08-03T15:48:53Z</time>
      </trkpt>
      <trkpt lat="45.70428" lon="3.14807">
        <ele>407.8</ele>
        <time>2021-08-03T15:48:55Z</time>
      </trkpt>
      <trkpt lat="45.70426" lon="3.14806">
        <ele>408</ele>
        <time>2021-08-03T15:48:57Z</time>
      </trkpt>
      <trkpt lat="45.70424" lon="3.14805">
        <ele>408.1</ele>
        <time>2021-08-03T15:48:59Z</time>
      </trkpt>
      <trkpt lat="45.70423" lon="3.14805">
        <ele>408.2</ele>
        <time>2021-08-03T15:49:01Z</time>
      </trkpt>
      <trkpt lat="45.70421" lon="3.14805">
        <ele>408.3</ele>
        <time>2021-08-03T15:49:03Z</time>
      </trkpt>
      <trkpt lat="45.70419" lon="3.14808">
        <ele>408.4</ele>
        <time>2021-08-03T15:49:05Z</time>
      </trkpt>
      <trkpt lat="45.70418" lon="3.14811">
        <ele>408.5</ele>
        <time>2021-08-03T15:49:07Z</time>
      </trkpt>
      <trkpt lat="45.70415" lon="3.14812">
        <ele>408.5</ele>
        <time>2021-08-03T15:49:09Z</time>
      </trkpt>
      <trkpt lat="45.70413" lon="3.14815">
        <ele>408.3</ele>
        <time>2021-08-03T15:49:11Z</time>
      </trkpt>
      <trkpt lat="45.7041" lon="3.14819">
        <ele>408.2</ele>
        <time>2021-08-03T15:49:13Z</time>
      </trkpt>
      <trkpt lat="45.70406" lon="3.14821">
        <ele>408</ele>
        <time>2021-08-03T15:49:15Z</time>
      </trkpt>
      <trkpt lat="45.70401" lon="3.14824">
        <ele>407.7</ele>
        <time>2021-08-03T15:49:17Z</time>
      </trkpt>
      <trkpt lat="45.70395" lon="3.14827">
        <ele>407.5</ele>
        <time>2021-08-03T15:49:19Z</time>
      </trkpt>
      <trkpt lat="45.7039" lon="3.14829">
        <ele>407.2</ele>
        <time>2021-08-03T15:49:21Z</time>
      </trkpt>
      <trkpt lat="45.70386" lon="3.1483">
        <ele>407</ele>
        <time>2021-08-03T15:49:23Z</time>
      </trkpt>
      <trkpt lat="45.70381" lon="3.14833">
        <ele>406.8</ele>
        <time>2021-08-03T15:49:25Z</time>
      </trkpt>
      <trkpt lat="45.70378" lon="3.14835">
        <ele>406.5</ele>
        <time>2021-08-03T15:49:27Z</time>
      </trkpt>
      <trkpt lat="45.70376" lon="3.14836">
        <ele>406.4</ele>
        <time>2021-08-03T15:49:29Z</time>
      </trkpt>
      <trkpt lat="45.70375" lon="3.14836">
        <ele>406.4</ele>
        <time>2021-08-03T15:49:31Z</time>
      </trkpt>
      <trkpt lat="45.70375" lon="3.14836">
        <ele>406.4</ele>
        <time>2021-08-03T15:49:33Z</time>
      </trkpt>
      <trkpt lat="45.70375" lon="3.14835">
        <ele>406.4</ele>
        <time>2021-08-03T15:49:35Z</time>
      </trkpt>
      <trkpt lat="45.70375" lon="3.14835">
        <ele>406.4</ele>
        <time>2021-08-03T15:49:37Z</time>
      </trkpt>
      <trkpt lat="45.70375" lon="3.14835">
        <ele>406.4</ele>
        <time>2021-08-03T15:49:39Z</time>
      </trkpt>
      <trkpt lat="45.70359" lon="3.14833">
        <ele>405.9</ele>
        <time>2021-08-03T15:51:29Z</time>
      </trkpt>
      <trkpt lat="45.70355" lon="3.14833">
        <ele>405.8</ele>
        <time>2021-08-03T15:51:31Z</time>
      </trkpt>
      <trkpt lat="45.7035" lon="3.14833">
        <ele>405.7</ele>
        <time>2021-08-03T15:51:33Z</time>
      </trkpt>
      <trkpt lat="45.70344" lon="3.14832">
        <ele>405.5</ele>
        <time>2021-08-03T15:51:35Z</time>
      </trkpt>
      <trkpt lat="45.70338" lon="3.14831">
        <ele>405.3</ele>
        <time>2021-08-03T15:51:37Z</time>
      </trkpt>
      <trkpt lat="45.70331" lon="3.1483">
        <ele>405.2</ele>
        <time>2021-08-03T15:51:39Z</time>
      </trkpt>
      <trkpt lat="45.70324" lon="3.14829">
        <ele>404.9</ele>
        <time>2021-08-03T15:51:41Z</time>
      </trkpt>
      <trkpt lat="45.70317" lon="3.14829">
        <ele>404.7</ele>
        <time>2021-08-03T15:51:43Z</time>
      </trkpt>
      <trkpt lat="45.70311" lon="3.14829">
        <ele>404.5</ele>
        <time>2021-08-03T15:51:45Z</time>
      </trkpt>
      <trkpt lat="45.70304" lon="3.14827">
        <ele>404.4</ele>
        <time>2021-08-03T15:51:47Z</time>
      </trkpt>
      <trkpt lat="45.70297" lon="3.14826">
        <ele>404.1</ele>
        <time>2021-08-03T15:51:49Z</time>
      </trkpt>
      <trkpt lat="45.7029" lon="3.14825">
        <ele>403.9</ele>
        <time>2021-08-03T15:51:51Z</time>
      </trkpt>
      <trkpt lat="45.70282" lon="3.14823">
        <ele>403.7</ele>
        <time>2021-08-03T15:51:53Z</time>
      </trkpt>
      <trkpt lat="45.70273" lon="3.14822">
        <ele>403.4</ele>
        <time>2021-08-03T15:51:55Z</time>
      </trkpt>
      <trkpt lat="45.70263" lon="3.1482">
        <ele>403.1</ele>
        <time>2021-08-03T15:51:57Z</time>
      </trkpt>
      <trkpt lat="45.70254" lon="3.14819">
        <ele>402.8</ele>
        <time>2021-08-03T15:51:59Z</time>
      </trkpt>
      <trkpt lat="45.70245" lon="3.14819">
        <ele>402.6</ele>
        <time>2021-08-03T15:52:01Z</time>
      </trkpt>
      <trkpt lat="45.70236" lon="3.14821">
        <ele>402.4</ele>
        <time>2021-08-03T15:52:03Z</time>
      </trkpt>
      <trkpt lat="45.70228" lon="3.14822">
        <ele>402.2</ele>
        <time>2021-08-03T15:52:05Z</time>
      </trkpt>
      <trkpt lat="45.70221" lon="3.14824">
        <ele>402</ele>
        <time>2021-08-03T15:52:07Z</time>
      </trkpt>
      <trkpt lat="45.70214" lon="3.14824">
        <ele>401.9</ele>
        <time>2021-08-03T15:52:09Z</time>
      </trkpt>
      <trkpt lat="45.70208" lon="3.14827">
        <ele>401.7</ele>
        <time>2021-08-03T15:52:11Z</time>
      </trkpt>
      <trkpt lat="45.70202" lon="3.1483">
        <ele>401.5</ele>
        <time>2021-08-03T15:52:13Z</time>
      </trkpt>
      <trkpt lat="45.70193" lon="3.14834">
        <ele>401.3</ele>
        <time>2021-08-03T15:52:15Z</time>
      </trkpt>
      <trkpt lat="45.70183" lon="3.14842">
        <ele>400.7</ele>
        <time>2021-08-03T15:52:17Z</time>
      </trkpt>
      <trkpt lat="45.70172" lon="3.14847">
        <ele>400.1</ele>
        <time>2021-08-03T15:52:19Z</time>
      </trkpt>
      <trkpt lat="45.70161" lon="3.14852">
        <ele>399.4</ele>
        <time>2021-08-03T15:52:21Z</time>
      </trkpt>
      <trkpt lat="45.7015" lon="3.14856">
        <ele>398.4</ele>
        <time>2021-08-03T15:52:23Z</time>
      </trkpt>
      <trkpt lat="45.70137" lon="3.14859">
        <ele>397.5</ele>
        <time>2021-08-03T15:52:25Z</time>
      </trkpt>
      <trkpt lat="45.70125" lon="3.14862">
        <ele>396.6</ele>
        <time>2021-08-03T15:52:27Z</time>
      </trkpt>
      <trkpt lat="45.70112" lon="3.14865">
        <ele>395.7</ele>
        <time>2021-08-03T15:52:29Z</time>
      </trkpt>
      <trkpt lat="45.70098" lon="3.14868">
        <ele>394.7</ele>
        <time>2021-08-03T15:52:31Z</time>
      </trkpt>
      <trkpt lat="45.70083" lon="3.14867">
        <ele>393.9</ele>
        <time>2021-08-03T15:52:33Z</time>
      </trkpt>
      <trkpt lat="45.70068" lon="3.14861">
        <ele>393.9</ele>
        <time>2021-08-03T15:52:35Z</time>
      </trkpt>
      <trkpt lat="45.70053" lon="3.14854">
        <ele>393.8</ele>
        <time>2021-08-03T15:52:37Z</time>
      </trkpt>
      <trkpt lat="45.70039" lon="3.14846">
        <ele>393.8</ele>
        <time>2021-08-03T15:52:39Z</time>
      </trkpt>
      <trkpt lat="45.70027" lon="3.14836">
        <ele>393.8</ele>
        <time>2021-08-03T15:52:41Z</time>
      </trkpt>
      <trkpt lat="45.70015" lon="3.14827">
        <ele>393.7</ele>
        <time>2021-08-03T15:52:43Z</time>
      </trkpt>
      <trkpt lat="45.70003" lon="3.14819">
        <ele>393.4</ele>
        <time>2021-08-03T15:52:45Z</time>
      </trkpt>
      <trkpt lat="45.69993" lon="3.14812">
        <ele>393.3</ele>
        <time>2021-08-03T15:52:47Z</time>
      </trkpt>
      <trkpt lat="45.69984" lon="3.14809">
        <ele>393.2</ele>
        <time>2021-08-03T15:52:49Z</time>
      </trkpt>
      <trkpt lat="45.69977" lon="3.14811">
        <ele>393</ele>
        <time>2021-08-03T15:52:51Z</time>
      </trkpt>
      <trkpt lat="45.69969" lon="3.14817">
        <ele>392.6</ele>
        <time>2021-08-03T15:52:53Z</time>
      </trkpt>
      <trkpt lat="45.6996" lon="3.14822">
        <ele>392.3</ele>
        <time>2021-08-03T15:52:55Z</time>
      </trkpt>
      <trkpt lat="45.69951" lon="3.14822">
        <ele>392.1</ele>
        <time>2021-08-03T15:52:57Z</time>
      </trkpt>
      <trkpt lat="45.69942" lon="3.14819">
        <ele>391.9</ele>
        <time>2021-08-03T15:52:59Z</time>
      </trkpt>
      <trkpt lat="45.69933" lon="3.14816">
        <ele>391.8</ele>
        <time>2021-08-03T15:53:01Z</time>
      </trkpt>
      <trkpt lat="45.69924" lon="3.14814">
        <ele>391.6</ele>
        <time>2021-08-03T15:53:03Z</time>
      </trkpt>
      <trkpt lat="45.69915" lon="3.14811">
        <ele>391.5</ele>
        <time>2021-08-03T15:53:05Z</time>
      </trkpt>
      <trkpt lat="45.69907" lon="3.14808">
        <ele>391.4</ele>
        <time>2021-08-03T15:53:07Z</time>
      </trkpt>
      <trkpt lat="45.69898" lon="3.14806">
        <ele>391.3</ele>
        <time>2021-08-03T15:53:09Z</time>
      </trkpt>
      <trkpt lat="45.69889" lon="3.14803">
        <ele>391.2</ele>
        <time>2021-08-03T15:53:11Z</time>
      </trkpt>
      <trkpt lat="45.6988" lon="3.14801">
        <ele>391.1</ele>
        <time>2021-08-03T15:53:13Z</time>
      </trkpt>
      <trkpt lat="45.69871" lon="3.14798">
        <ele>391</ele>
        <time>2021-08-03T15:53:15Z</time>
      </trkpt>
      <trkpt lat="45.69864" lon="3.14796">
        <ele>390.9</ele>
        <time>2021-08-03T15:53:17Z</time>
      </trkpt>
      <trkpt lat="45.69854" lon="3.14793">
        <ele>390.8</ele>
        <time>2021-08-03T15:53:19Z</time>
      </trkpt>
      <trkpt lat="45.69845" lon="3.14791">
        <ele>390.7</ele>
        <time>2021-08-03T15:53:21Z</time>
      </trkpt>
      <trkpt lat="45.69836" lon="3.14789">
        <ele>390.6</ele>
        <time>2021-08-03T15:53:23Z</time>
      </trkpt>
      <trkpt lat="45.69827" lon="3.14789">
        <ele>390.5</ele>
        <time>2021-08-03T15:53:25Z</time>
      </trkpt>
      <trkpt lat="45.69818" lon="3.14788">
        <ele>390.3</ele>
        <time>2021-08-03T15:53:27Z</time>
      </trkpt>
      <trkpt lat="45.6981" lon="3.14787">
        <ele>390.2</ele>
        <time>2021-08-03T15:53:29Z</time>
      </trkpt>
      <trkpt lat="45.69802" lon="3.14787">
        <ele>390</ele>
        <time>2021-08-03T15:53:31Z</time>
      </trkpt>
      <trkpt lat="45.69795" lon="3.14787">
        <ele>389.9</ele>
        <time>2021-08-03T15:53:33Z</time>
      </trkpt>
      <trkpt lat="45.69789" lon="3.14788">
        <ele>389.8</ele>
        <time>2021-08-03T15:53:35Z</time>
      </trkpt>
      <trkpt lat="45.69783" lon="3.14788">
        <ele>389.6</ele>
        <time>2021-08-03T15:53:37Z</time>
      </trkpt>
      <trkpt lat="45.69776" lon="3.14787">
        <ele>389.5</ele>
        <time>2021-08-03T15:53:39Z</time>
      </trkpt>
      <trkpt lat="45.6977" lon="3.14787">
        <ele>389.4</ele>
        <time>2021-08-03T15:53:41Z</time>
      </trkpt>
      <trkpt lat="45.69764" lon="3.14787">
        <ele>389.3</ele>
        <time>2021-08-03T15:53:43Z</time>
      </trkpt>
      <trkpt lat="45.69758" lon="3.14786">
        <ele>389.2</ele>
        <time>2021-08-03T15:53:45Z</time>
      </trkpt>
      <trkpt lat="45.69752" lon="3.14786">
        <ele>389</ele>
        <time>2021-08-03T15:53:47Z</time>
      </trkpt>
      <trkpt lat="45.69745" lon="3.14785">
        <ele>389.1</ele>
        <time>2021-08-03T15:53:49Z</time>
      </trkpt>
      <trkpt lat="45.69739" lon="3.14787">
        <ele>389.2</ele>
        <time>2021-08-03T15:53:51Z</time>
      </trkpt>
      <trkpt lat="45.69732" lon="3.14788">
        <ele>389.2</ele>
        <time>2021-08-03T15:53:53Z</time>
      </trkpt>
      <trkpt lat="45.69727" lon="3.14789">
        <ele>389.3</ele>
        <time>2021-08-03T15:53:55Z</time>
      </trkpt>
      <trkpt lat="45.69721" lon="3.14788">
        <ele>389.4</ele>
        <time>2021-08-03T15:53:57Z</time>
      </trkpt>
      <trkpt lat="45.69715" lon="3.14788">
        <ele>389.5</ele>
        <time>2021-08-03T15:53:59Z</time>
      </trkpt>
      <trkpt lat="45.69709" lon="3.14786">
        <ele>389.6</ele>
        <time>2021-08-03T15:54:01Z</time>
      </trkpt>
      <trkpt lat="45.69703" lon="3.14783">
        <ele>389.7</ele>
        <time>2021-08-03T15:54:03Z</time>
      </trkpt>
      <trkpt lat="45.69698" lon="3.14783">
        <ele>389.8</ele>
        <time>2021-08-03T15:54:05Z</time>
      </trkpt>
      <trkpt lat="45.69693" lon="3.14781">
        <ele>389.9</ele>
        <time>2021-08-03T15:54:07Z</time>
      </trkpt>
      <trkpt lat="45.69687" lon="3.1478">
        <ele>390</ele>
        <time>2021-08-03T15:54:09Z</time>
      </trkpt>
      <trkpt lat="45.69681" lon="3.1478">
        <ele>390.1</ele>
        <time>2021-08-03T15:54:11Z</time>
      </trkpt>
      <trkpt lat="45.69676" lon="3.14778">
        <ele>390.2</ele>
        <time>2021-08-03T15:54:13Z</time>
      </trkpt>
      <trkpt lat="45.69673" lon="3.14778">
        <ele>390.2</ele>
        <time>2021-08-03T15:54:15Z</time>
      </trkpt>
      <trkpt lat="45.69671" lon="3.14781">
        <ele>390.2</ele>
        <time>2021-08-03T15:54:17Z</time>
      </trkpt>
      <trkpt lat="45.6967" lon="3.14791">
        <ele>390</ele>
        <time>2021-08-03T15:54:19Z</time>
      </trkpt>
      <trkpt lat="45.6967" lon="3.14799">
        <ele>389.8</ele>
        <time>2021-08-03T15:54:21Z</time>
      </trkpt>
      <trkpt lat="45.6967" lon="3.14809">
        <ele>389.6</ele>
        <time>2021-08-03T15:54:23Z</time>
      </trkpt>
      <trkpt lat="45.69669" lon="3.14803">
        <ele>389.7</ele>
        <time>2021-08-03T15:54:25Z</time>
      </trkpt>
      <trkpt lat="45.6967" lon="3.1481">
        <ele>389.5</ele>
        <time>2021-08-03T15:54:27Z</time>
      </trkpt>
      <trkpt lat="45.69692" lon="3.14809">
        <ele>389.4</ele>
        <time>2021-08-03T15:54:29Z</time>
      </trkpt>
      <trkpt lat="45.69676" lon="3.14851">
        <ele>388.6</ele>
        <time>2021-08-03T15:54:31Z</time>
      </trkpt>
      <trkpt lat="45.69669" lon="3.14857">
        <ele>388.4</ele>
        <time>2021-08-03T15:54:33Z</time>
      </trkpt>
      <trkpt lat="45.69664" lon="3.1486">
        <ele>388.4</ele>
        <time>2021-08-03T15:54:35Z</time>
      </trkpt>
      <trkpt lat="45.69657" lon="3.14864">
        <ele>388.5</ele>
        <time>2021-08-03T15:54:37Z</time>
      </trkpt>
      <trkpt lat="45.69651" lon="3.14865">
        <ele>388.6</ele>
        <time>2021-08-03T15:54:39Z</time>
      </trkpt>
      <trkpt lat="45.69646" lon="3.14868">
        <ele>388.7</ele>
        <time>2021-08-03T15:54:41Z</time>
      </trkpt>
      <trkpt lat="45.6964" lon="3.14871">
        <ele>388.8</ele>
        <time>2021-08-03T15:54:43Z</time>
      </trkpt>
      <trkpt lat="45.69634" lon="3.14875">
        <ele>388.8</ele>
        <time>2021-08-03T15:54:45Z</time>
      </trkpt>
      <trkpt lat="45.69628" lon="3.14878">
        <ele>388.8</ele>
        <time>2021-08-03T15:54:47Z</time>
      </trkpt>
      <trkpt lat="45.69621" lon="3.14882">
        <ele>388.9</ele>
        <time>2021-08-03T15:54:49Z</time>
      </trkpt>
      <trkpt lat="45.69613" lon="3.14884">
        <ele>388.9</ele>
        <time>2021-08-03T15:54:51Z</time>
      </trkpt>
      <trkpt lat="45.69606" lon="3.14887">
        <ele>389</ele>
        <time>2021-08-03T15:54:53Z</time>
      </trkpt>
      <trkpt lat="45.69599" lon="3.1489">
        <ele>389</ele>
        <time>2021-08-03T15:54:55Z</time>
      </trkpt>
      <trkpt lat="45.69592" lon="3.14892">
        <ele>389</ele>
        <time>2021-08-03T15:54:57Z</time>
      </trkpt>
      <trkpt lat="45.69584" lon="3.14895">
        <ele>389</ele>
        <time>2021-08-03T15:54:59Z</time>
      </trkpt>
      <trkpt lat="45.69576" lon="3.14897">
        <ele>389.2</ele>
        <time>2021-08-03T15:55:01Z</time>
      </trkpt>
      <trkpt lat="45.69569" lon="3.149">
        <ele>389.4</ele>
        <time>2021-08-03T15:55:03Z</time>
      </trkpt>
      <trkpt lat="45.69561" lon="3.14902">
        <ele>389.6</ele>
        <time>2021-08-03T15:55:05Z</time>
      </trkpt>
      <trkpt lat="45.69554" lon="3.14904">
        <ele>389.7</ele>
        <time>2021-08-03T15:55:07Z</time>
      </trkpt>
      <trkpt lat="45.69547" lon="3.14906">
        <ele>389.8</ele>
        <time>2021-08-03T15:55:09Z</time>
      </trkpt>
      <trkpt lat="45.69541" lon="3.14908">
        <ele>389.8</ele>
        <time>2021-08-03T15:55:11Z</time>
      </trkpt>
      <trkpt lat="45.69534" lon="3.1491">
        <ele>389.8</ele>
        <time>2021-08-03T15:55:13Z</time>
      </trkpt>
      <trkpt lat="45.69527" lon="3.14914">
        <ele>389.6</ele>
        <time>2021-08-03T15:55:15Z</time>
      </trkpt>
      <trkpt lat="45.69519" lon="3.14919">
        <ele>389.3</ele>
        <time>2021-08-03T15:55:17Z</time>
      </trkpt>
      <trkpt lat="45.69512" lon="3.14928">
        <ele>388.6</ele>
        <time>2021-08-03T15:55:19Z</time>
      </trkpt>
      <trkpt lat="45.69505" lon="3.1494">
        <ele>387.7</ele>
        <time>2021-08-03T15:55:21Z</time>
      </trkpt>
      <trkpt lat="45.69497" lon="3.14948">
        <ele>387.1</ele>
        <time>2021-08-03T15:55:23Z</time>
      </trkpt>
      <trkpt lat="45.69489" lon="3.14957">
        <ele>386.4</ele>
        <time>2021-08-03T15:55:25Z</time>
      </trkpt>
      <trkpt lat="45.69481" lon="3.1497">
        <ele>385.4</ele>
        <time>2021-08-03T15:55:27Z</time>
      </trkpt>
      <trkpt lat="45.69472" lon="3.14983">
        <ele>384.3</ele>
        <time>2021-08-03T15:55:29Z</time>
      </trkpt>
      <trkpt lat="45.69462" lon="3.14996">
        <ele>383.4</ele>
        <time>2021-08-03T15:55:31Z</time>
      </trkpt>
      <trkpt lat="45.69452" lon="3.15009">
        <ele>382.8</ele>
        <time>2021-08-03T15:55:33Z</time>
      </trkpt>
      <trkpt lat="45.69442" lon="3.15019">
        <ele>382.6</ele>
        <time>2021-08-03T15:55:35Z</time>
      </trkpt>
      <trkpt lat="45.69432" lon="3.15028">
        <ele>382.4</ele>
        <time>2021-08-03T15:55:37Z</time>
      </trkpt>
      <trkpt lat="45.69422" lon="3.15039">
        <ele>382.1</ele>
        <time>2021-08-03T15:55:39Z</time>
      </trkpt>
      <trkpt lat="45.69412" lon="3.15049">
        <ele>381.7</ele>
        <time>2021-08-03T15:55:41Z</time>
      </trkpt>
      <trkpt lat="45.69403" lon="3.1506">
        <ele>381.3</ele>
        <time>2021-08-03T15:55:43Z</time>
      </trkpt>
      <trkpt lat="45.69394" lon="3.15072">
        <ele>380.7</ele>
        <time>2021-08-03T15:55:45Z</time>
      </trkpt>
      <trkpt lat="45.69385" lon="3.15083">
        <ele>380</ele>
        <time>2021-08-03T15:55:47Z</time>
      </trkpt>
      <trkpt lat="45.69377" lon="3.15096">
        <ele>379.7</ele>
        <time>2021-08-03T15:55:49Z</time>
      </trkpt>
      <trkpt lat="45.69367" lon="3.15106">
        <ele>379.5</ele>
        <time>2021-08-03T15:55:51Z</time>
      </trkpt>
      <trkpt lat="45.69358" lon="3.15116">
        <ele>379.4</ele>
        <time>2021-08-03T15:55:53Z</time>
      </trkpt>
      <trkpt lat="45.6935" lon="3.15128">
        <ele>379.3</ele>
        <time>2021-08-03T15:55:55Z</time>
      </trkpt>
      <trkpt lat="45.69341" lon="3.15139">
        <ele>379.2</ele>
        <time>2021-08-03T15:55:57Z</time>
      </trkpt>
      <trkpt lat="45.69332" lon="3.15151">
        <ele>379.3</ele>
        <time>2021-08-03T15:55:59Z</time>
      </trkpt>
      <trkpt lat="45.69323" lon="3.15164">
        <ele>379.4</ele>
        <time>2021-08-03T15:56:01Z</time>
      </trkpt>
      <trkpt lat="45.69315" lon="3.15176">
        <ele>379.5</ele>
        <time>2021-08-03T15:56:03Z</time>
      </trkpt>
      <trkpt lat="45.69306" lon="3.15187">
        <ele>379.5</ele>
        <time>2021-08-03T15:56:05Z</time>
      </trkpt>
      <trkpt lat="45.69298" lon="3.152">
        <ele>379.3</ele>
        <time>2021-08-03T15:56:07Z</time>
      </trkpt>
      <trkpt lat="45.69291" lon="3.15213">
        <ele>379.1</ele>
        <time>2021-08-03T15:56:09Z</time>
      </trkpt>
      <trkpt lat="45.69283" lon="3.15225">
        <ele>378.9</ele>
        <time>2021-08-03T15:56:11Z</time>
      </trkpt>
      <trkpt lat="45.69275" lon="3.15236">
        <ele>378.5</ele>
        <time>2021-08-03T15:56:13Z</time>
      </trkpt>
      <trkpt lat="45.69268" lon="3.15247">
        <ele>378.1</ele>
        <time>2021-08-03T15:56:15Z</time>
      </trkpt>
      <trkpt lat="45.6926" lon="3.15258">
        <ele>378</ele>
        <time>2021-08-03T15:56:17Z</time>
      </trkpt>
      <trkpt lat="45.69253" lon="3.1527">
        <ele>378</ele>
        <time>2021-08-03T15:56:19Z</time>
      </trkpt>
      <trkpt lat="45.69245" lon="3.15278">
        <ele>378.4</ele>
        <time>2021-08-03T15:56:21Z</time>
      </trkpt>
      <trkpt lat="45.69237" lon="3.15286">
        <ele>379</ele>
        <time>2021-08-03T15:56:23Z</time>
      </trkpt>
      <trkpt lat="45.6923" lon="3.15295">
        <ele>379.4</ele>
        <time>2021-08-03T15:56:25Z</time>
      </trkpt>
      <trkpt lat="45.69225" lon="3.15306">
        <ele>379.7</ele>
        <time>2021-08-03T15:56:27Z</time>
      </trkpt>
      <trkpt lat="45.69219" lon="3.15317">
        <ele>380</ele>
        <time>2021-08-03T15:56:29Z</time>
      </trkpt>
      <trkpt lat="45.69212" lon="3.15325">
        <ele>380.4</ele>
        <time>2021-08-03T15:56:31Z</time>
      </trkpt>
      <trkpt lat="45.69207" lon="3.15337">
        <ele>380.5</ele>
        <time>2021-08-03T15:56:33Z</time>
      </trkpt>
      <trkpt lat="45.69201" lon="3.15347">
        <ele>380.7</ele>
        <time>2021-08-03T15:56:35Z</time>
      </trkpt>
      <trkpt lat="45.69197" lon="3.15358">
        <ele>380.8</ele>
        <time>2021-08-03T15:56:37Z</time>
      </trkpt>
      <trkpt lat="45.69195" lon="3.1537">
        <ele>380.8</ele>
        <time>2021-08-03T15:56:39Z</time>
      </trkpt>
      <trkpt lat="45.69192" lon="3.1538">
        <ele>380.8</ele>
        <time>2021-08-03T15:56:41Z</time>
      </trkpt>
      <trkpt lat="45.69191" lon="3.15392">
        <ele>380.6</ele>
        <time>2021-08-03T15:56:43Z</time>
      </trkpt>
      <trkpt lat="45.69191" lon="3.15404">
        <ele>380.4</ele>
        <time>2021-08-03T15:56:45Z</time>
      </trkpt>
      <trkpt lat="45.69191" lon="3.15415">
        <ele>380.3</ele>
        <time>2021-08-03T15:56:47Z</time>
      </trkpt>
      <trkpt lat="45.69192" lon="3.15427">
        <ele>380.1</ele>
        <time>2021-08-03T15:56:49Z</time>
      </trkpt>
      <trkpt lat="45.69195" lon="3.15437">
        <ele>379.7</ele>
        <time>2021-08-03T15:56:51Z</time>
      </trkpt>
      <trkpt lat="45.69198" lon="3.15447">
        <ele>379.4</ele>
        <time>2021-08-03T15:56:53Z</time>
      </trkpt>
      <trkpt lat="45.69201" lon="3.15458">
        <ele>379.1</ele>
        <time>2021-08-03T15:56:55Z</time>
      </trkpt>
      <trkpt lat="45.69203" lon="3.1547">
        <ele>378.7</ele>
        <time>2021-08-03T15:56:57Z</time>
      </trkpt>
      <trkpt lat="45.69208" lon="3.15483">
        <ele>378.2</ele>
        <time>2021-08-03T15:56:59Z</time>
      </trkpt>
      <trkpt lat="45.69212" lon="3.15497">
        <ele>377.8</ele>
        <time>2021-08-03T15:57:01Z</time>
      </trkpt>
      <trkpt lat="45.69216" lon="3.15511">
        <ele>377.6</ele>
        <time>2021-08-03T15:57:03Z</time>
      </trkpt>
      <trkpt lat="45.6922" lon="3.15526">
        <ele>377.4</ele>
        <time>2021-08-03T15:57:05Z</time>
      </trkpt>
      <trkpt lat="45.69224" lon="3.1554">
        <ele>377.2</ele>
        <time>2021-08-03T15:57:07Z</time>
      </trkpt>
      <trkpt lat="45.69229" lon="3.15555">
        <ele>377</ele>
        <time>2021-08-03T15:57:09Z</time>
      </trkpt>
      <trkpt lat="45.69234" lon="3.1557">
        <ele>376.8</ele>
        <time>2021-08-03T15:57:11Z</time>
      </trkpt>
      <trkpt lat="45.6924" lon="3.15583">
        <ele>376.6</ele>
        <time>2021-08-03T15:57:13Z</time>
      </trkpt>
      <trkpt lat="45.69246" lon="3.15597">
        <ele>376.4</ele>
        <time>2021-08-03T15:57:15Z</time>
      </trkpt>
      <trkpt lat="45.69252" lon="3.15611">
        <ele>376.3</ele>
        <time>2021-08-03T15:57:17Z</time>
      </trkpt>
      <trkpt lat="45.69256" lon="3.15625">
        <ele>376.2</ele>
        <time>2021-08-03T15:57:19Z</time>
      </trkpt>
      <trkpt lat="45.6926" lon="3.1564">
        <ele>376.1</ele>
        <time>2021-08-03T15:57:21Z</time>
      </trkpt>
      <trkpt lat="45.69265" lon="3.15653">
        <ele>375.9</ele>
        <time>2021-08-03T15:57:23Z</time>
      </trkpt>
      <trkpt lat="45.69267" lon="3.15666">
        <ele>375.8</ele>
        <time>2021-08-03T15:57:25Z</time>
      </trkpt>
      <trkpt lat="45.69267" lon="3.15679">
        <ele>375.6</ele>
        <time>2021-08-03T15:57:27Z</time>
      </trkpt>
      <trkpt lat="45.69264" lon="3.1569">
        <ele>375.6</ele>
        <time>2021-08-03T15:57:29Z</time>
      </trkpt>
      <trkpt lat="45.69258" lon="3.15694">
        <ele>375.9</ele>
        <time>2021-08-03T15:57:31Z</time>
      </trkpt>
      <trkpt lat="45.69252" lon="3.15693">
        <ele>376.2</ele>
        <time>2021-08-03T15:57:33Z</time>
      </trkpt>
      <trkpt lat="45.69247" lon="3.15691">
        <ele>376.7</ele>
        <time>2021-08-03T15:57:35Z</time>
      </trkpt>
      <trkpt lat="45.69242" lon="3.15684">
        <ele>377.1</ele>
        <time>2021-08-03T15:57:37Z</time>
      </trkpt>
      <trkpt lat="45.69237" lon="3.15677">
        <ele>377.6</ele>
        <time>2021-08-03T15:57:39Z</time>
      </trkpt>
      <trkpt lat="45.69232" lon="3.15672">
        <ele>378</ele>
        <time>2021-08-03T15:57:41Z</time>
      </trkpt>
      <trkpt lat="45.69228" lon="3.15666">
        <ele>378.3</ele>
        <time>2021-08-03T15:57:43Z</time>
      </trkpt>
      <trkpt lat="45.69223" lon="3.15661">
        <ele>378.6</ele>
        <time>2021-08-03T15:57:45Z</time>
      </trkpt>
      <trkpt lat="45.69217" lon="3.15656">
        <ele>378.8</ele>
        <time>2021-08-03T15:57:47Z</time>
      </trkpt>
      <trkpt lat="45.69213" lon="3.1565">
        <ele>379</ele>
        <time>2021-08-03T15:57:49Z</time>
      </trkpt>
      <trkpt lat="45.69208" lon="3.15645">
        <ele>379.3</ele>
        <time>2021-08-03T15:57:51Z</time>
      </trkpt>
      <trkpt lat="45.69203" lon="3.15641">
        <ele>379.5</ele>
        <time>2021-08-03T15:57:53Z</time>
      </trkpt>
      <trkpt lat="45.69198" lon="3.15636">
        <ele>379.7</ele>
        <time>2021-08-03T15:57:55Z</time>
      </trkpt>
      <trkpt lat="45.69193" lon="3.15632">
        <ele>380</ele>
        <time>2021-08-03T15:57:57Z</time>
      </trkpt>
      <trkpt lat="45.6919" lon="3.15629">
        <ele>380.1</ele>
        <time>2021-08-03T15:57:59Z</time>
      </trkpt>
      <trkpt lat="45.69187" lon="3.15626">
        <ele>380.3</ele>
        <time>2021-08-03T15:58:01Z</time>
      </trkpt>
      <trkpt lat="45.69184" lon="3.15623">
        <ele>380.4</ele>
        <time>2021-08-03T15:58:03Z</time>
      </trkpt>
      <trkpt lat="45.69182" lon="3.15621">
        <ele>380.5</ele>
        <time>2021-08-03T15:58:05Z</time>
      </trkpt>
      <trkpt lat="45.69182" lon="3.15621">
        <ele>380.6</ele>
        <time>2021-08-03T15:58:07Z</time>
      </trkpt>
      <trkpt lat="45.69182" lon="3.15621">
        <ele>380.5</ele>
        <time>2021-08-03T15:58:09Z</time>
      </trkpt>
      <trkpt lat="45.69182" lon="3.15621">
        <ele>380.5</ele>
        <time>2021-08-03T15:58:11Z</time>
      </trkpt>
      <trkpt lat="45.69182" lon="3.15621">
        <ele>380.6</ele>
        <time>2021-08-03T15:58:13Z</time>
      </trkpt>
      <trkpt lat="45.69182" lon="3.15621">
        <ele>380.6</ele>
        <time>2021-08-03T15:58:15Z</time>
      </trkpt>
      <trkpt lat="45.69194" lon="3.15639">
        <ele>380.1</ele>
        <time>2021-08-03T15:58:49Z</time>
      </trkpt>
      <trkpt lat="45.69201" lon="3.15647">
        <ele>379.7</ele>
        <time>2021-08-03T15:58:51Z</time>
      </trkpt>
      <trkpt lat="45.69211" lon="3.15655">
        <ele>379.2</ele>
        <time>2021-08-03T15:58:53Z</time>
      </trkpt>
      <trkpt lat="45.6922" lon="3.15664">
        <ele>378.8</ele>
        <time>2021-08-03T15:58:55Z</time>
      </trkpt>
      <trkpt lat="45.6923" lon="3.15675">
        <ele>378.1</ele>
        <time>2021-08-03T15:58:57Z</time>
      </trkpt>
      <trkpt lat="45.69238" lon="3.15683">
        <ele>377.4</ele>
        <time>2021-08-03T15:58:59Z</time>
      </trkpt>
      <trkpt lat="45.6924" lon="3.15693">
        <ele>377.1</ele>
        <time>2021-08-03T15:59:01Z</time>
      </trkpt>
      <trkpt lat="45.69236" lon="3.15699">
        <ele>377.3</ele>
        <time>2021-08-03T15:59:03Z</time>
      </trkpt>
      <trkpt lat="45.69232" lon="3.15701">
        <ele>377.5</ele>
        <time>2021-08-03T15:59:05Z</time>
      </trkpt>
      <trkpt lat="45.69229" lon="3.15702">
        <ele>377.8</ele>
        <time>2021-08-03T15:59:07Z</time>
      </trkpt>
      <trkpt lat="45.69224" lon="3.15706">
        <ele>378.1</ele>
        <time>2021-08-03T15:59:09Z</time>
      </trkpt>
      <trkpt lat="45.69219" lon="3.15708">
        <ele>378.4</ele>
        <time>2021-08-03T15:59:11Z</time>
      </trkpt>
      <trkpt lat="45.69214" lon="3.15711">
        <ele>378.7</ele>
        <time>2021-08-03T15:59:13Z</time>
      </trkpt>
      <trkpt lat="45.6921" lon="3.15713">
        <ele>379.1</ele>
        <time>2021-08-03T15:59:15Z</time>
      </trkpt>
      <trkpt lat="45.69206" lon="3.15716">
        <ele>379.4</ele>
        <time>2021-08-03T15:59:17Z</time>
      </trkpt>
      <trkpt lat="45.69202" lon="3.15718">
        <ele>379.7</ele>
        <time>2021-08-03T15:59:19Z</time>
      </trkpt>
      <trkpt lat="45.69199" lon="3.15719">
        <ele>379.9</ele>
        <time>2021-08-03T15:59:21Z</time>
      </trkpt>
      <trkpt lat="45.69199" lon="3.15724">
        <ele>380</ele>
        <time>2021-08-03T15:59:23Z</time>
      </trkpt>
      <trkpt lat="45.69196" lon="3.15728">
        <ele>380.2</ele>
        <time>2021-08-03T15:59:25Z</time>
      </trkpt>
      <trkpt lat="45.69192" lon="3.15728">
        <ele>380.5</ele>
        <time>2021-08-03T15:59:27Z</time>
      </trkpt>
      <trkpt lat="45.69188" lon="3.1573">
        <ele>380.9</ele>
        <time>2021-08-03T15:59:29Z</time>
      </trkpt>
      <trkpt lat="45.69185" lon="3.15732">
        <ele>381.1</ele>
        <time>2021-08-03T15:59:31Z</time>
      </trkpt>
      <trkpt lat="45.69186" lon="3.15732">
        <ele>381.1</ele>
        <time>2021-08-03T15:59:33Z</time>
      </trkpt>
      <trkpt lat="45.69186" lon="3.15732">
        <ele>381</ele>
        <time>2021-08-03T15:59:35Z</time>
      </trkpt>
      <trkpt lat="45.69186" lon="3.15732">
        <ele>381.1</ele>
        <time>2021-08-03T15:59:37Z</time>
      </trkpt>
      <trkpt lat="45.69186" lon="3.15732">
        <ele>381</ele>
        <time>2021-08-03T15:59:39Z</time>
      </trkpt>
      <trkpt lat="45.69186" lon="3.15732">
        <ele>381</ele>
        <time>2021-08-03T15:59:41Z</time>
      </trkpt>
      <trkpt lat="45.69152" lon="3.15754">
        <ele>384.2</ele>
        <time>2021-08-03T16:02:21Z</time>
      </trkpt>
      <trkpt lat="45.69149" lon="3.15756">
        <ele>384.4</ele>
        <time>2021-08-03T16:02:23Z</time>
      </trkpt>
      <trkpt lat="45.69146" lon="3.15757">
        <ele>384.7</ele>
        <time>2021-08-03T16:02:25Z</time>
      </trkpt>
      <trkpt lat="45.69144" lon="3.15759">
        <ele>384.8</ele>
        <time>2021-08-03T16:02:27Z</time>
      </trkpt>
      <trkpt lat="45.69142" lon="3.15758">
        <ele>385</ele>
        <time>2021-08-03T16:02:29Z</time>
      </trkpt>
      <trkpt lat="45.6914" lon="3.15759">
        <ele>385.2</ele>
        <time>2021-08-03T16:02:31Z</time>
      </trkpt>
      <trkpt lat="45.69138" lon="3.15762">
        <ele>385.4</ele>
        <time>2021-08-03T16:02:33Z</time>
      </trkpt>
      <trkpt lat="45.69135" lon="3.15762">
        <ele>385.6</ele>
        <time>2021-08-03T16:02:35Z</time>
      </trkpt>
      <trkpt lat="45.69132" lon="3.15763">
        <ele>385.8</ele>
        <time>2021-08-03T16:02:37Z</time>
      </trkpt>
      <trkpt lat="45.69129" lon="3.15764">
        <ele>386</ele>
        <time>2021-08-03T16:02:39Z</time>
      </trkpt>
      <trkpt lat="45.69127" lon="3.15764">
        <ele>386.2</ele>
        <time>2021-08-03T16:02:41Z</time>
      </trkpt>
      <trkpt lat="45.69125" lon="3.15763">
        <ele>386.4</ele>
        <time>2021-08-03T16:02:43Z</time>
      </trkpt>
      <trkpt lat="45.69122" lon="3.15764">
        <ele>386.6</ele>
        <time>2021-08-03T16:02:45Z</time>
      </trkpt>
      <trkpt lat="45.6912" lon="3.15764">
        <ele>386.9</ele>
        <time>2021-08-03T16:02:47Z</time>
      </trkpt>
      <trkpt lat="45.69118" lon="3.15762">
        <ele>387</ele>
        <time>2021-08-03T16:02:49Z</time>
      </trkpt>
      <trkpt lat="45.69116" lon="3.15762">
        <ele>387.2</ele>
        <time>2021-08-03T16:02:51Z</time>
      </trkpt>
      <trkpt lat="45.69113" lon="3.15763">
        <ele>387.5</ele>
        <time>2021-08-03T16:02:53Z</time>
      </trkpt>
      <trkpt lat="45.69111" lon="3.15763">
        <ele>387.7</ele>
        <time>2021-08-03T16:02:55Z</time>
      </trkpt>
      <trkpt lat="45.69108" lon="3.15762">
        <ele>387.9</ele>
        <time>2021-08-03T16:02:57Z</time>
      </trkpt>
      <trkpt lat="45.69106" lon="3.15762">
        <ele>388.1</ele>
        <time>2021-08-03T16:02:59Z</time>
      </trkpt>
      <trkpt lat="45.69104" lon="3.15762">
        <ele>388.2</ele>
        <time>2021-08-03T16:03:01Z</time>
      </trkpt>
      <trkpt lat="45.69102" lon="3.15761">
        <ele>388.4</ele>
        <time>2021-08-03T16:03:03Z</time>
      </trkpt>
      <trkpt lat="45.69102" lon="3.15761">
        <ele>388.4</ele>
        <time>2021-08-03T16:03:05Z</time>
      </trkpt>
      <trkpt lat="45.69102" lon="3.15761">
        <ele>388.4</ele>
        <time>2021-08-03T16:03:07Z</time>
      </trkpt>
      <trkpt lat="45.69102" lon="3.15761">
        <ele>388.4</ele>
        <time>2021-08-03T16:03:09Z</time>
      </trkpt>
      <trkpt lat="45.69102" lon="3.15761">
        <ele>388.4</ele>
        <time>2021-08-03T16:03:11Z</time>
      </trkpt>
      <trkpt lat="45.69089" lon="3.1576">
        <ele>389.5</ele>
        <time>2021-08-03T16:03:31Z</time>
      </trkpt>
      <trkpt lat="45.69086" lon="3.1576">
        <ele>389.8</ele>
        <time>2021-08-03T16:03:33Z</time>
      </trkpt>
      <trkpt lat="45.69083" lon="3.1576">
        <ele>390.1</ele>
        <time>2021-08-03T16:03:35Z</time>
      </trkpt>
      <trkpt lat="45.69079" lon="3.15759">
        <ele>390.3</ele>
        <time>2021-08-03T16:03:37Z</time>
      </trkpt>
      <trkpt lat="45.69076" lon="3.15759">
        <ele>390.6</ele>
        <time>2021-08-03T16:03:39Z</time>
      </trkpt>
      <trkpt lat="45.69072" lon="3.15759">
        <ele>390.9</ele>
        <time>2021-08-03T16:03:41Z</time>
      </trkpt>
      <trkpt lat="45.69068" lon="3.15758">
        <ele>391.3</ele>
        <time>2021-08-03T16:03:43Z</time>
      </trkpt>
      <trkpt lat="45.69065" lon="3.15758">
        <ele>391.6</ele>
        <time>2021-08-03T16:03:45Z</time>
      </trkpt>
      <trkpt lat="45.69061" lon="3.15757">
        <ele>391.9</ele>
        <time>2021-08-03T16:03:47Z</time>
      </trkpt>
      <trkpt lat="45.69058" lon="3.15757">
        <ele>392.1</ele>
        <time>2021-08-03T16:03:49Z</time>
      </trkpt>
      <trkpt lat="45.69054" lon="3.15757">
        <ele>392.5</ele>
        <time>2021-08-03T16:03:51Z</time>
      </trkpt>
      <trkpt lat="45.6905" lon="3.15757">
        <ele>392.8</ele>
        <time>2021-08-03T16:03:53Z</time>
      </trkpt>
      <trkpt lat="45.69047" lon="3.15756">
        <ele>393.1</ele>
        <time>2021-08-03T16:03:55Z</time>
      </trkpt>
      <trkpt lat="45.69043" lon="3.15756">
        <ele>393.4</ele>
        <time>2021-08-03T16:03:57Z</time>
      </trkpt>
      <trkpt lat="45.6904" lon="3.15756">
        <ele>393.7</ele>
        <time>2021-08-03T16:03:59Z</time>
      </trkpt>
      <trkpt lat="45.69037" lon="3.15756">
        <ele>393.9</ele>
        <time>2021-08-03T16:04:01Z</time>
      </trkpt>
      <trkpt lat="45.69033" lon="3.15755">
        <ele>394.2</ele>
        <time>2021-08-03T16:04:03Z</time>
      </trkpt>
      <trkpt lat="45.6903" lon="3.15755">
        <ele>394.5</ele>
        <time>2021-08-03T16:04:05Z</time>
      </trkpt>
      <trkpt lat="45.69026" lon="3.15755">
        <ele>394.8</ele>
        <time>2021-08-03T16:04:07Z</time>
      </trkpt>
      <trkpt lat="45.69023" lon="3.15755">
        <ele>395.1</ele>
        <time>2021-08-03T16:04:09Z</time>
      </trkpt>
      <trkpt lat="45.6902" lon="3.15755">
        <ele>395.3</ele>
        <time>2021-08-03T16:04:11Z</time>
      </trkpt>
      <trkpt lat="45.69016" lon="3.15755">
        <ele>395.6</ele>
        <time>2021-08-03T16:04:13Z</time>
      </trkpt>
      <trkpt lat="45.69013" lon="3.15754">
        <ele>395.9</ele>
        <time>2021-08-03T16:04:15Z</time>
      </trkpt>
      <trkpt lat="45.6901" lon="3.15754">
        <ele>396.2</ele>
        <time>2021-08-03T16:04:17Z</time>
      </trkpt>
      <trkpt lat="45.69006" lon="3.15754">
        <ele>396.5</ele>
        <time>2021-08-03T16:04:19Z</time>
      </trkpt>
      <trkpt lat="45.69003" lon="3.15753">
        <ele>396.7</ele>
        <time>2021-08-03T16:04:21Z</time>
      </trkpt>
      <trkpt lat="45.69" lon="3.15753">
        <ele>397</ele>
        <time>2021-08-03T16:04:23Z</time>
      </trkpt>
      <trkpt lat="45.68997" lon="3.15753">
        <ele>397.5</ele>
        <time>2021-08-03T16:04:25Z</time>
      </trkpt>
      <trkpt lat="45.68994" lon="3.15753">
        <ele>398</ele>
        <time>2021-08-03T16:04:27Z</time>
      </trkpt>
      <trkpt lat="45.68991" lon="3.15753">
        <ele>398.6</ele>
        <time>2021-08-03T16:04:29Z</time>
      </trkpt>
      <trkpt lat="45.68988" lon="3.15752">
        <ele>399.1</ele>
        <time>2021-08-03T16:04:31Z</time>
      </trkpt>
      <trkpt lat="45.68985" lon="3.15752">
        <ele>399.5</ele>
        <time>2021-08-03T16:04:33Z</time>
      </trkpt>
      <trkpt lat="45.68982" lon="3.15752">
        <ele>400</ele>
        <time>2021-08-03T16:04:35Z</time>
      </trkpt>
      <trkpt lat="45.68979" lon="3.15751">
        <ele>400.5</ele>
        <time>2021-08-03T16:04:37Z</time>
      </trkpt>
      <trkpt lat="45.68977" lon="3.15752">
        <ele>400.9</ele>
        <time>2021-08-03T16:04:39Z</time>
      </trkpt>
      <trkpt lat="45.68974" lon="3.15752">
        <ele>401.4</ele>
        <time>2021-08-03T16:04:41Z</time>
      </trkpt>
      <trkpt lat="45.68971" lon="3.15751">
        <ele>401.8</ele>
        <time>2021-08-03T16:04:43Z</time>
      </trkpt>
      <trkpt lat="45.68969" lon="3.15751">
        <ele>402.2</ele>
        <time>2021-08-03T16:04:45Z</time>
      </trkpt>
      <trkpt lat="45.68966" lon="3.15751">
        <ele>402.7</ele>
        <time>2021-08-03T16:04:47Z</time>
      </trkpt>
      <trkpt lat="45.68964" lon="3.15751">
        <ele>403</ele>
        <time>2021-08-03T16:04:49Z</time>
      </trkpt>
      <trkpt lat="45.68962" lon="3.1575">
        <ele>403.4</ele>
        <time>2021-08-03T16:04:51Z</time>
      </trkpt>
      <trkpt lat="45.6896" lon="3.1575">
        <ele>403.7</ele>
        <time>2021-08-03T16:04:53Z</time>
      </trkpt>
      <trkpt lat="45.68958" lon="3.15749">
        <ele>404</ele>
        <time>2021-08-03T16:04:55Z</time>
      </trkpt>
      <trkpt lat="45.68956" lon="3.1575">
        <ele>404.4</ele>
        <time>2021-08-03T16:04:57Z</time>
      </trkpt>
      <trkpt lat="45.68954" lon="3.1575">
        <ele>404.7</ele>
        <time>2021-08-03T16:04:59Z</time>
      </trkpt>
      <trkpt lat="45.68952" lon="3.15749">
        <ele>405.1</ele>
        <time>2021-08-03T16:05:01Z</time>
      </trkpt>
      <trkpt lat="45.6895" lon="3.15749">
        <ele>405.4</ele>
        <time>2021-08-03T16:05:03Z</time>
      </trkpt>
      <trkpt lat="45.68948" lon="3.15749">
        <ele>405.8</ele>
        <time>2021-08-03T16:05:05Z</time>
      </trkpt>
      <trkpt lat="45.68946" lon="3.15748">
        <ele>406</ele>
        <time>2021-08-03T16:05:07Z</time>
      </trkpt>
      <trkpt lat="45.68946" lon="3.15748">
        <ele>406</ele>
        <time>2021-08-03T16:05:09Z</time>
      </trkpt>
      <trkpt lat="45.68946" lon="3.15748">
        <ele>406</ele>
        <time>2021-08-03T16:05:11Z</time>
      </trkpt>
      <trkpt lat="45.68944" lon="3.15749">
        <ele>406.3</ele>
        <time>2021-08-03T16:05:13Z</time>
      </trkpt>
      <trkpt lat="45.68943" lon="3.15749">
        <ele>406.6</ele>
        <time>2021-08-03T16:05:15Z</time>
      </trkpt>
      <trkpt lat="45.68942" lon="3.15749">
        <ele>406.8</ele>
        <time>2021-08-03T16:05:17Z</time>
      </trkpt>
      <trkpt lat="45.6894" lon="3.1575">
        <ele>407.1</ele>
        <time>2021-08-03T16:05:19Z</time>
      </trkpt>
      <trkpt lat="45.68938" lon="3.15749">
        <ele>407.3</ele>
        <time>2021-08-03T16:05:21Z</time>
      </trkpt>
      <trkpt lat="45.68937" lon="3.1575">
        <ele>407.6</ele>
        <time>2021-08-03T16:05:23Z</time>
      </trkpt>
      <trkpt lat="45.68936" lon="3.1575">
        <ele>407.8</ele>
        <time>2021-08-03T16:05:25Z</time>
      </trkpt>
      <trkpt lat="45.68934" lon="3.1575">
        <ele>408.1</ele>
        <time>2021-08-03T16:05:27Z</time>
      </trkpt>
      <trkpt lat="45.68932" lon="3.1575">
        <ele>408.4</ele>
        <time>2021-08-03T16:05:29Z</time>
      </trkpt>
      <trkpt lat="45.68931" lon="3.15751">
        <ele>408.7</ele>
        <time>2021-08-03T16:05:31Z</time>
      </trkpt>
      <trkpt lat="45.68931" lon="3.15751">
        <ele>408.6</ele>
        <time>2021-08-03T16:05:33Z</time>
      </trkpt>
      <trkpt lat="45.68931" lon="3.15751">
        <ele>408.6</ele>
        <time>2021-08-03T16:05:35Z</time>
      </trkpt>
      <trkpt lat="45.68931" lon="3.15751">
        <ele>408.6</ele>
        <time>2021-08-03T16:05:37Z</time>
      </trkpt>
      <trkpt lat="45.68931" lon="3.1575">
        <ele>408.6</ele>
        <time>2021-08-03T16:05:39Z</time>
      </trkpt>
      <trkpt lat="45.6893" lon="3.15751">
        <ele>408.7</ele>
        <time>2021-08-03T16:05:41Z</time>
      </trkpt>
      <trkpt lat="45.68928" lon="3.15751">
        <ele>409</ele>
        <time>2021-08-03T16:05:43Z</time>
      </trkpt>
      <trkpt lat="45.68927" lon="3.15751">
        <ele>409.3</ele>
        <time>2021-08-03T16:05:45Z</time>
      </trkpt>
      <trkpt lat="45.68925" lon="3.15751">
        <ele>409.6</ele>
        <time>2021-08-03T16:05:47Z</time>
      </trkpt>
      <trkpt lat="45.68923" lon="3.15751">
        <ele>409.8</ele>
        <time>2021-08-03T16:05:49Z</time>
      </trkpt>
      <trkpt lat="45.68922" lon="3.15751">
        <ele>410.1</ele>
        <time>2021-08-03T16:05:51Z</time>
      </trkpt>
      <trkpt lat="45.6892" lon="3.15751">
        <ele>410.4</ele>
        <time>2021-08-03T16:05:53Z</time>
      </trkpt>
      <trkpt lat="45.68918" lon="3.15752">
        <ele>410.7</ele>
        <time>2021-08-03T16:05:55Z</time>
      </trkpt>
      <trkpt lat="45.68917" lon="3.15752">
        <ele>410.9</ele>
        <time>2021-08-03T16:05:57Z</time>
      </trkpt>
      <trkpt lat="45.68916" lon="3.15751">
        <ele>411.2</ele>
        <time>2021-08-03T16:05:59Z</time>
      </trkpt>
      <trkpt lat="45.68914" lon="3.15751">
        <ele>411.4</ele>
        <time>2021-08-03T16:06:01Z</time>
      </trkpt>
      <trkpt lat="45.68913" lon="3.15751">
        <ele>411.7</ele>
        <time>2021-08-03T16:06:03Z</time>
      </trkpt>
      <trkpt lat="45.68912" lon="3.15751">
        <ele>411.9</ele>
        <time>2021-08-03T16:06:05Z</time>
      </trkpt>
      <trkpt lat="45.68911" lon="3.15751">
        <ele>412.2</ele>
        <time>2021-08-03T16:06:07Z</time>
      </trkpt>
      <trkpt lat="45.68909" lon="3.15751">
        <ele>412.4</ele>
        <time>2021-08-03T16:06:09Z</time>
      </trkpt>
      <trkpt lat="45.68908" lon="3.15751">
        <ele>412.7</ele>
        <time>2021-08-03T16:06:11Z</time>
      </trkpt>
      <trkpt lat="45.68907" lon="3.15751">
        <ele>412.9</ele>
        <time>2021-08-03T16:06:13Z</time>
      </trkpt>
      <trkpt lat="45.68905" lon="3.15751">
        <ele>413.1</ele>
        <time>2021-08-03T16:06:15Z</time>
      </trkpt>
      <trkpt lat="45.68906" lon="3.15751">
        <ele>413.1</ele>
        <time>2021-08-03T16:06:17Z</time>
      </trkpt>
      <trkpt lat="45.68906" lon="3.15751">
        <ele>413.1</ele>
        <time>2021-08-03T16:06:19Z</time>
      </trkpt>
      <trkpt lat="45.68906" lon="3.15751">
        <ele>413.1</ele>
        <time>2021-08-03T16:06:21Z</time>
      </trkpt>
      <trkpt lat="45.68906" lon="3.15751">
        <ele>413.1</ele>
        <time>2021-08-03T16:06:23Z</time>
      </trkpt>
      <trkpt lat="45.68906" lon="3.15751">
        <ele>413.1</ele>
        <time>2021-08-03T16:06:25Z</time>
      </trkpt>
      <trkpt lat="45.68906" lon="3.15751">
        <ele>413.1</ele>
        <time>2021-08-03T16:06:27Z</time>
      </trkpt>
      <trkpt lat="45.68906" lon="3.15751">
        <ele>413.1</ele>
        <time>2021-08-03T16:06:29Z</time>
      </trkpt>
      <trkpt lat="45.68906" lon="3.15751">
        <ele>413.1</ele>
        <time>2021-08-03T16:06:31Z</time>
      </trkpt>
      <trkpt lat="45.68905" lon="3.15751">
        <ele>413.3</ele>
        <time>2021-08-03T16:06:33Z</time>
      </trkpt>
      <trkpt lat="45.68903" lon="3.15751">
        <ele>413.5</ele>
        <time>2021-08-03T16:06:35Z</time>
      </trkpt>
      <trkpt lat="45.68902" lon="3.15751">
        <ele>413.8</ele>
        <time>2021-08-03T16:06:37Z</time>
      </trkpt>
      <trkpt lat="45.68901" lon="3.15751">
        <ele>414</ele>
        <time>2021-08-03T16:06:39Z</time>
      </trkpt>
      <trkpt lat="45.689" lon="3.15751">
        <ele>414.2</ele>
        <time>2021-08-03T16:06:41Z</time>
      </trkpt>
      <trkpt lat="45.68899" lon="3.15751">
        <ele>414.4</ele>
        <time>2021-08-03T16:06:43Z</time>
      </trkpt>
      <trkpt lat="45.68897" lon="3.15751">
        <ele>414.7</ele>
        <time>2021-08-03T16:06:45Z</time>
      </trkpt>
      <trkpt lat="45.68896" lon="3.1575">
        <ele>414.9</ele>
        <time>2021-08-03T16:06:47Z</time>
      </trkpt>
      <trkpt lat="45.68897" lon="3.1575">
        <ele>414.9</ele>
        <time>2021-08-03T16:06:49Z</time>
      </trkpt>
      <trkpt lat="45.68896" lon="3.15751">
        <ele>414.9</ele>
        <time>2021-08-03T16:06:51Z</time>
      </trkpt>
      <trkpt lat="45.68896" lon="3.15751">
        <ele>414.9</ele>
        <time>2021-08-03T16:06:53Z</time>
      </trkpt>
      <trkpt lat="45.68897" lon="3.1575">
        <ele>414.9</ele>
        <time>2021-08-03T16:06:55Z</time>
      </trkpt>
      <trkpt lat="45.68896" lon="3.1575">
        <ele>414.9</ele>
        <time>2021-08-03T16:06:57Z</time>
      </trkpt>
      <trkpt lat="45.68896" lon="3.1575">
        <ele>415</ele>
        <time>2021-08-03T16:06:59Z</time>
      </trkpt>
      <trkpt lat="45.68895" lon="3.15751">
        <ele>415.2</ele>
        <time>2021-08-03T16:07:01Z</time>
      </trkpt>
      <trkpt lat="45.68893" lon="3.15751">
        <ele>415.5</ele>
        <time>2021-08-03T16:07:03Z</time>
      </trkpt>
      <trkpt lat="45.68893" lon="3.15751">
        <ele>415.6</ele>
        <time>2021-08-03T16:07:05Z</time>
      </trkpt>
      <trkpt lat="45.68892" lon="3.15751">
        <ele>415.7</ele>
        <time>2021-08-03T16:07:07Z</time>
      </trkpt>
      <trkpt lat="45.68892" lon="3.15751">
        <ele>415.7</ele>
        <time>2021-08-03T16:07:09Z</time>
      </trkpt>
      <trkpt lat="45.68892" lon="3.15751">
        <ele>415.7</ele>
        <time>2021-08-03T16:07:11Z</time>
      </trkpt>
      <trkpt lat="45.68891" lon="3.15751">
        <ele>415.9</ele>
        <time>2021-08-03T16:07:13Z</time>
      </trkpt>
      <trkpt lat="45.6889" lon="3.15751">
        <ele>416.2</ele>
        <time>2021-08-03T16:07:15Z</time>
      </trkpt>
      <trkpt lat="45.68889" lon="3.15751">
        <ele>416.4</ele>
        <time>2021-08-03T16:07:17Z</time>
      </trkpt>
      <trkpt lat="45.68889" lon="3.15751">
        <ele>416.4</ele>
        <time>2021-08-03T16:07:19Z</time>
      </trkpt>
      <trkpt lat="45.68889" lon="3.15751">
        <ele>416.4</ele>
        <time>2021-08-03T16:07:21Z</time>
      </trkpt>
      <trkpt lat="45.68889" lon="3.15751">
        <ele>416.3</ele>
        <time>2021-08-03T16:07:23Z</time>
      </trkpt>
      <trkpt lat="45.68888" lon="3.15751">
        <ele>416.6</ele>
        <time>2021-08-03T16:07:25Z</time>
      </trkpt>
      <trkpt lat="45.68886" lon="3.15751">
        <ele>416.9</ele>
        <time>2021-08-03T16:07:27Z</time>
      </trkpt>
      <trkpt lat="45.68885" lon="3.15751">
        <ele>417.2</ele>
        <time>2021-08-03T16:07:29Z</time>
      </trkpt>
      <trkpt lat="45.68883" lon="3.15751">
        <ele>417.4</ele>
        <time>2021-08-03T16:07:31Z</time>
      </trkpt>
      <trkpt lat="45.68882" lon="3.1575">
        <ele>417.7</ele>
        <time>2021-08-03T16:07:33Z</time>
      </trkpt>
      <trkpt lat="45.68881" lon="3.1575">
        <ele>417.9</ele>
        <time>2021-08-03T16:07:35Z</time>
      </trkpt>
      <trkpt lat="45.68879" lon="3.1575">
        <ele>418.2</ele>
        <time>2021-08-03T16:07:37Z</time>
      </trkpt>
      <trkpt lat="45.68878" lon="3.1575">
        <ele>418.5</ele>
        <time>2021-08-03T16:07:39Z</time>
      </trkpt>
      <trkpt lat="45.68876" lon="3.1575">
        <ele>418.8</ele>
        <time>2021-08-03T16:07:41Z</time>
      </trkpt>
      <trkpt lat="45.68874" lon="3.1575">
        <ele>419.1</ele>
        <time>2021-08-03T16:07:43Z</time>
      </trkpt>
      <trkpt lat="45.68874" lon="3.1575">
        <ele>419.2</ele>
        <time>2021-08-03T16:07:45Z</time>
      </trkpt>
      <trkpt lat="45.68874" lon="3.15751">
        <ele>419.2</ele>
        <time>2021-08-03T16:07:47Z</time>
      </trkpt>
      <trkpt lat="45.68874" lon="3.15751">
        <ele>419.2</ele>
        <time>2021-08-03T16:07:49Z</time>
      </trkpt>
      <trkpt lat="45.68874" lon="3.15751">
        <ele>419.2</ele>
        <time>2021-08-03T16:07:51Z</time>
      </trkpt>
      <trkpt lat="45.68874" lon="3.15751">
        <ele>419.2</ele>
        <time>2021-08-03T16:07:53Z</time>
      </trkpt>
      <trkpt lat="45.68874" lon="3.15751">
        <ele>419.2</ele>
        <time>2021-08-03T16:07:57Z</time>
      </trkpt>
      <trkpt lat="45.68874" lon="3.15751">
        <ele>419.1</ele>
        <time>2021-08-03T16:07:59Z</time>
      </trkpt>
      <trkpt lat="45.68874" lon="3.1575">
        <ele>419.1</ele>
        <time>2021-08-03T16:08:01Z</time>
      </trkpt>
      <trkpt lat="45.68874" lon="3.15751">
        <ele>419.1</ele>
        <time>2021-08-03T16:08:03Z</time>
      </trkpt>
      <trkpt lat="45.68874" lon="3.15751">
        <ele>419.2</ele>
        <time>2021-08-03T16:08:05Z</time>
      </trkpt>
      <trkpt lat="45.68874" lon="3.15751">
        <ele>419.2</ele>
        <time>2021-08-03T16:08:07Z</time>
      </trkpt>
      <trkpt lat="45.68873" lon="3.15751">
        <ele>419.3</ele>
        <time>2021-08-03T16:08:09Z</time>
      </trkpt>
      <trkpt lat="45.68871" lon="3.15751">
        <ele>419.7</ele>
        <time>2021-08-03T16:08:11Z</time>
      </trkpt>
      <trkpt lat="45.6887" lon="3.15751">
        <ele>420</ele>
        <time>2021-08-03T16:08:13Z</time>
      </trkpt>
      <trkpt lat="45.68868" lon="3.15751">
        <ele>420.3</ele>
        <time>2021-08-03T16:08:15Z</time>
      </trkpt>
      <trkpt lat="45.68868" lon="3.15751">
        <ele>420.3</ele>
        <time>2021-08-03T16:08:17Z</time>
      </trkpt>
      <trkpt lat="45.68868" lon="3.15751">
        <ele>420.3</ele>
        <time>2021-08-03T16:08:19Z</time>
      </trkpt>
      <trkpt lat="45.68868" lon="3.15751">
        <ele>420.3</ele>
        <time>2021-08-03T16:08:21Z</time>
      </trkpt>
      <trkpt lat="45.68868" lon="3.1575">
        <ele>420.3</ele>
        <time>2021-08-03T16:08:23Z</time>
      </trkpt>
      <trkpt lat="45.68866" lon="3.1575">
        <ele>420.7</ele>
        <time>2021-08-03T16:08:25Z</time>
      </trkpt>
      <trkpt lat="45.68865" lon="3.1575">
        <ele>420.9</ele>
        <time>2021-08-03T16:08:27Z</time>
      </trkpt>
      <trkpt lat="45.68864" lon="3.1575">
        <ele>421.1</ele>
        <time>2021-08-03T16:08:29Z</time>
      </trkpt>
      <trkpt lat="45.68862" lon="3.15749">
        <ele>421.4</ele>
        <time>2021-08-03T16:08:31Z</time>
      </trkpt>
      <trkpt lat="45.68861" lon="3.15749">
        <ele>421.7</ele>
        <time>2021-08-03T16:08:33Z</time>
      </trkpt>
      <trkpt lat="45.68859" lon="3.15749">
        <ele>422</ele>
        <time>2021-08-03T16:08:35Z</time>
      </trkpt>
      <trkpt lat="45.68858" lon="3.15749">
        <ele>422.3</ele>
        <time>2021-08-03T16:08:37Z</time>
      </trkpt>
      <trkpt lat="45.68856" lon="3.15749">
        <ele>422.6</ele>
        <time>2021-08-03T16:08:39Z</time>
      </trkpt>
      <trkpt lat="45.68854" lon="3.15749">
        <ele>423</ele>
        <time>2021-08-03T16:08:41Z</time>
      </trkpt>
      <trkpt lat="45.68852" lon="3.15749">
        <ele>423.3</ele>
        <time>2021-08-03T16:08:43Z</time>
      </trkpt>
      <trkpt lat="45.68851" lon="3.15748">
        <ele>423.7</ele>
        <time>2021-08-03T16:08:45Z</time>
      </trkpt>
      <trkpt lat="45.68849" lon="3.15748">
        <ele>423.9</ele>
        <time>2021-08-03T16:08:47Z</time>
      </trkpt>
      <trkpt lat="45.68847" lon="3.15748">
        <ele>424.3</ele>
        <time>2021-08-03T16:08:49Z</time>
      </trkpt>
      <trkpt lat="45.68846" lon="3.15748">
        <ele>424.6</ele>
        <time>2021-08-03T16:08:51Z</time>
      </trkpt>
      <trkpt lat="45.68807" lon="3.15751">
        <ele>430.8</ele>
        <time>2021-08-03T16:10:17Z</time>
      </trkpt>
      <trkpt lat="45.68804" lon="3.15751">
        <ele>431.1</ele>
        <time>2021-08-03T16:10:19Z</time>
      </trkpt>
      <trkpt lat="45.68802" lon="3.15751">
        <ele>431.5</ele>
        <time>2021-08-03T16:10:21Z</time>
      </trkpt>
      <trkpt lat="45.688" lon="3.15751">
        <ele>431.8</ele>
        <time>2021-08-03T16:10:23Z</time>
      </trkpt>
      <trkpt lat="45.68798" lon="3.15751">
        <ele>432.1</ele>
        <time>2021-08-03T16:10:25Z</time>
      </trkpt>
      <trkpt lat="45.68796" lon="3.15752">
        <ele>432.4</ele>
        <time>2021-08-03T16:10:27Z</time>
      </trkpt>
      <trkpt lat="45.68794" lon="3.15752">
        <ele>432.6</ele>
        <time>2021-08-03T16:10:29Z</time>
      </trkpt>
      <trkpt lat="45.68792" lon="3.15752">
        <ele>432.9</ele>
        <time>2021-08-03T16:10:31Z</time>
      </trkpt>
      <trkpt lat="45.6879" lon="3.15752">
        <ele>433.2</ele>
        <time>2021-08-03T16:10:33Z</time>
      </trkpt>
      <trkpt lat="45.68788" lon="3.15752">
        <ele>433.5</ele>
        <time>2021-08-03T16:10:35Z</time>
      </trkpt>
      <trkpt lat="45.68785" lon="3.15753">
        <ele>433.8</ele>
        <time>2021-08-03T16:10:37Z</time>
      </trkpt>
      <trkpt lat="45.68783" lon="3.15752">
        <ele>434.1</ele>
        <time>2021-08-03T16:10:39Z</time>
      </trkpt>
      <trkpt lat="45.68781" lon="3.15752">
        <ele>434.5</ele>
        <time>2021-08-03T16:10:41Z</time>
      </trkpt>
      <trkpt lat="45.68779" lon="3.15752">
        <ele>434.7</ele>
        <time>2021-08-03T16:10:43Z</time>
      </trkpt>
      <trkpt lat="45.68776" lon="3.15752">
        <ele>435.1</ele>
        <time>2021-08-03T16:10:45Z</time>
      </trkpt>
      <trkpt lat="45.68774" lon="3.15752">
        <ele>435.5</ele>
        <time>2021-08-03T16:10:47Z</time>
      </trkpt>
      <trkpt lat="45.68771" lon="3.15753">
        <ele>435.8</ele>
        <time>2021-08-03T16:10:49Z</time>
      </trkpt>
      <trkpt lat="45.68769" lon="3.15752">
        <ele>436.1</ele>
        <time>2021-08-03T16:10:51Z</time>
      </trkpt>
      <trkpt lat="45.68767" lon="3.15753">
        <ele>436.4</ele>
        <time>2021-08-03T16:10:53Z</time>
      </trkpt>
      <trkpt lat="45.68766" lon="3.15754">
        <ele>436.5</ele>
        <time>2021-08-03T16:10:55Z</time>
      </trkpt>
      <trkpt lat="45.68766" lon="3.15754">
        <ele>436.6</ele>
        <time>2021-08-03T16:10:57Z</time>
      </trkpt>
      <trkpt lat="45.68765" lon="3.15754">
        <ele>436.6</ele>
        <time>2021-08-03T16:10:59Z</time>
      </trkpt>
      <trkpt lat="45.68765" lon="3.15755">
        <ele>436.6</ele>
        <time>2021-08-03T16:11:01Z</time>
      </trkpt>
      <trkpt lat="45.68763" lon="3.1578">
        <ele>435.8</ele>
        <time>2021-08-03T16:21:35Z</time>
      </trkpt>
      <trkpt lat="45.68762" lon="3.15787">
        <ele>435.6</ele>
        <time>2021-08-03T16:21:37Z</time>
      </trkpt>
      <trkpt lat="45.68761" lon="3.15795">
        <ele>435.4</ele>
        <time>2021-08-03T16:21:39Z</time>
      </trkpt>
      <trkpt lat="45.6876" lon="3.15802">
        <ele>435.2</ele>
        <time>2021-08-03T16:21:41Z</time>
      </trkpt>
      <trkpt lat="45.6876" lon="3.15809">
        <ele>435</ele>
        <time>2021-08-03T16:21:43Z</time>
      </trkpt>
      <trkpt lat="45.68759" lon="3.15815">
        <ele>434.8</ele>
        <time>2021-08-03T16:21:45Z</time>
      </trkpt>
      <trkpt lat="45.68758" lon="3.15822">
        <ele>434.6</ele>
        <time>2021-08-03T16:21:47Z</time>
      </trkpt>
      <trkpt lat="45.68757" lon="3.1583">
        <ele>434.4</ele>
        <time>2021-08-03T16:21:49Z</time>
      </trkpt>
      <trkpt lat="45.68756" lon="3.1584">
        <ele>434.2</ele>
        <time>2021-08-03T16:21:51Z</time>
      </trkpt>
      <trkpt lat="45.68754" lon="3.15849">
        <ele>434.1</ele>
        <time>2021-08-03T16:21:53Z</time>
      </trkpt>
      <trkpt lat="45.68753" lon="3.15858">
        <ele>434.1</ele>
        <time>2021-08-03T16:21:55Z</time>
      </trkpt>
      <trkpt lat="45.68752" lon="3.15868">
        <ele>434</ele>
        <time>2021-08-03T16:21:57Z</time>
      </trkpt>
      <trkpt lat="45.68749" lon="3.15877">
        <ele>434</ele>
        <time>2021-08-03T16:21:59Z</time>
      </trkpt>
      <trkpt lat="45.68748" lon="3.15886">
        <ele>434.1</ele>
        <time>2021-08-03T16:22:01Z</time>
      </trkpt>
      <trkpt lat="45.68747" lon="3.15892">
        <ele>434.1</ele>
        <time>2021-08-03T16:22:03Z</time>
      </trkpt>
      <trkpt lat="45.68745" lon="3.15896">
        <ele>434.2</ele>
        <time>2021-08-03T16:22:05Z</time>
      </trkpt>
      <trkpt lat="45.68744" lon="3.15897">
        <ele>434.3</ele>
        <time>2021-08-03T16:22:07Z</time>
      </trkpt>
      <trkpt lat="45.68745" lon="3.15896">
        <ele>434.3</ele>
        <time>2021-08-03T16:22:09Z</time>
      </trkpt>
      <trkpt lat="45.68745" lon="3.15896">
        <ele>434.3</ele>
        <time>2021-08-03T16:22:11Z</time>
      </trkpt>
      <trkpt lat="45.68745" lon="3.15897">
        <ele>434.2</ele>
        <time>2021-08-03T16:22:13Z</time>
      </trkpt>
      <trkpt lat="45.68745" lon="3.15897">
        <ele>434.2</ele>
        <time>2021-08-03T16:22:15Z</time>
      </trkpt>
      <trkpt lat="45.68745" lon="3.15924">
        <ele>433.5</ele>
        <time>2021-08-03T16:22:25Z</time>
      </trkpt>
      <trkpt lat="45.6875" lon="3.15932">
        <ele>432.7</ele>
        <time>2021-08-03T16:22:27Z</time>
      </trkpt>
      <trkpt lat="45.68754" lon="3.15941">
        <ele>431.9</ele>
        <time>2021-08-03T16:22:29Z</time>
      </trkpt>
      <trkpt lat="45.68756" lon="3.15955">
        <ele>431.3</ele>
        <time>2021-08-03T16:22:31Z</time>
      </trkpt>
      <trkpt lat="45.68755" lon="3.15972">
        <ele>431</ele>
        <time>2021-08-03T16:22:33Z</time>
      </trkpt>
      <trkpt lat="45.68755" lon="3.15988">
        <ele>430.7</ele>
        <time>2021-08-03T16:22:35Z</time>
      </trkpt>
      <trkpt lat="45.68753" lon="3.16006">
        <ele>430.4</ele>
        <time>2021-08-03T16:22:37Z</time>
      </trkpt>
      <trkpt lat="45.68752" lon="3.16023">
        <ele>429.9</ele>
        <time>2021-08-03T16:22:39Z</time>
      </trkpt>
      <trkpt lat="45.68751" lon="3.16039">
        <ele>429.5</ele>
        <time>2021-08-03T16:22:41Z</time>
      </trkpt>
      <trkpt lat="45.6875" lon="3.16054">
        <ele>429.1</ele>
        <time>2021-08-03T16:22:43Z</time>
      </trkpt>
      <trkpt lat="45.68749" lon="3.16067">
        <ele>428.7</ele>
        <time>2021-08-03T16:22:45Z</time>
      </trkpt>
      <trkpt lat="45.68748" lon="3.16081">
        <ele>428.3</ele>
        <time>2021-08-03T16:22:47Z</time>
      </trkpt>
      <trkpt lat="45.68747" lon="3.16096">
        <ele>428.3</ele>
        <time>2021-08-03T16:22:49Z</time>
      </trkpt>
      <trkpt lat="45.68747" lon="3.16111">
        <ele>428.3</ele>
        <time>2021-08-03T16:22:51Z</time>
      </trkpt>
      <trkpt lat="45.68747" lon="3.16125">
        <ele>428.3</ele>
        <time>2021-08-03T16:22:53Z</time>
      </trkpt>
      <trkpt lat="45.68746" lon="3.16139">
        <ele>428.4</ele>
        <time>2021-08-03T16:22:55Z</time>
      </trkpt>
      <trkpt lat="45.68746" lon="3.16152">
        <ele>428.4</ele>
        <time>2021-08-03T16:22:57Z</time>
      </trkpt>
      <trkpt lat="45.68746" lon="3.16165">
        <ele>428.4</ele>
        <time>2021-08-03T16:22:59Z</time>
      </trkpt>
      <trkpt lat="45.68746" lon="3.16177">
        <ele>428.2</ele>
        <time>2021-08-03T16:23:01Z</time>
      </trkpt>
      <trkpt lat="45.68745" lon="3.1619">
        <ele>428</ele>
        <time>2021-08-03T16:23:03Z</time>
      </trkpt>
      <trkpt lat="45.68745" lon="3.16204">
        <ele>427.7</ele>
        <time>2021-08-03T16:23:05Z</time>
      </trkpt>
      <trkpt lat="45.68744" lon="3.16217">
        <ele>427.4</ele>
        <time>2021-08-03T16:23:07Z</time>
      </trkpt>
      <trkpt lat="45.68742" lon="3.16231">
        <ele>427.3</ele>
        <time>2021-08-03T16:23:09Z</time>
      </trkpt>
      <trkpt lat="45.68739" lon="3.16245">
        <ele>427.3</ele>
        <time>2021-08-03T16:23:11Z</time>
      </trkpt>
      <trkpt lat="45.68731" lon="3.16257">
        <ele>427.5</ele>
        <time>2021-08-03T16:23:13Z</time>
      </trkpt>
      <trkpt lat="45.68725" lon="3.16267">
        <ele>427.6</ele>
        <time>2021-08-03T16:23:15Z</time>
      </trkpt>
      <trkpt lat="45.68718" lon="3.16274">
        <ele>427.9</ele>
        <time>2021-08-03T16:23:17Z</time>
      </trkpt>
      <trkpt lat="45.68711" lon="3.16281">
        <ele>428.2</ele>
        <time>2021-08-03T16:23:19Z</time>
      </trkpt>
      <trkpt lat="45.68704" lon="3.16286">
        <ele>428.5</ele>
        <time>2021-08-03T16:23:21Z</time>
      </trkpt>
      <trkpt lat="45.68697" lon="3.16291">
        <ele>429</ele>
        <time>2021-08-03T16:23:23Z</time>
      </trkpt>
      <trkpt lat="45.68691" lon="3.16296">
        <ele>429.2</ele>
        <time>2021-08-03T16:23:25Z</time>
      </trkpt>
      <trkpt lat="45.68686" lon="3.16301">
        <ele>429.4</ele>
        <time>2021-08-03T16:23:27Z</time>
      </trkpt>
      <trkpt lat="45.68679" lon="3.16305">
        <ele>429.8</ele>
        <time>2021-08-03T16:23:29Z</time>
      </trkpt>
      <trkpt lat="45.68674" lon="3.1631">
        <ele>430</ele>
        <time>2021-08-03T16:23:31Z</time>
      </trkpt>
      <trkpt lat="45.68669" lon="3.16313">
        <ele>430.2</ele>
        <time>2021-08-03T16:23:33Z</time>
      </trkpt>
      <trkpt lat="45.68664" lon="3.16317">
        <ele>430.4</ele>
        <time>2021-08-03T16:23:35Z</time>
      </trkpt>
      <trkpt lat="45.6866" lon="3.16321">
        <ele>430.7</ele>
        <time>2021-08-03T16:23:37Z</time>
      </trkpt>
      <trkpt lat="45.68654" lon="3.16324">
        <ele>431.2</ele>
        <time>2021-08-03T16:23:39Z</time>
      </trkpt>
      <trkpt lat="45.68648" lon="3.16328">
        <ele>431.6</ele>
        <time>2021-08-03T16:23:41Z</time>
      </trkpt>
      <trkpt lat="45.68643" lon="3.16332">
        <ele>431.9</ele>
        <time>2021-08-03T16:23:43Z</time>
      </trkpt>
      <trkpt lat="45.68638" lon="3.16335">
        <ele>432.3</ele>
        <time>2021-08-03T16:23:45Z</time>
      </trkpt>
      <trkpt lat="45.68634" lon="3.16339">
        <ele>432.8</ele>
        <time>2021-08-03T16:23:47Z</time>
      </trkpt>
      <trkpt lat="45.68629" lon="3.16342">
        <ele>433.3</ele>
        <time>2021-08-03T16:23:49Z</time>
      </trkpt>
      <trkpt lat="45.68624" lon="3.16346">
        <ele>433.7</ele>
        <time>2021-08-03T16:23:51Z</time>
      </trkpt>
      <trkpt lat="45.68619" lon="3.16349">
        <ele>434.2</ele>
        <time>2021-08-03T16:23:53Z</time>
      </trkpt>
      <trkpt lat="45.68615" lon="3.16351">
        <ele>434.7</ele>
        <time>2021-08-03T16:23:55Z</time>
      </trkpt>
      <trkpt lat="45.68611" lon="3.16355">
        <ele>435.2</ele>
        <time>2021-08-03T16:23:57Z</time>
      </trkpt>
      <trkpt lat="45.68607" lon="3.16357">
        <ele>435.7</ele>
        <time>2021-08-03T16:23:59Z</time>
      </trkpt>
      <trkpt lat="45.68603" lon="3.1636">
        <ele>436.1</ele>
        <time>2021-08-03T16:24:01Z</time>
      </trkpt>
      <trkpt lat="45.68601" lon="3.16363">
        <ele>436.3</ele>
        <time>2021-08-03T16:24:03Z</time>
      </trkpt>
      <trkpt lat="45.68597" lon="3.16365">
        <ele>436.8</ele>
        <time>2021-08-03T16:24:05Z</time>
      </trkpt>
      <trkpt lat="45.68594" lon="3.16367">
        <ele>437.1</ele>
        <time>2021-08-03T16:24:07Z</time>
      </trkpt>
      <trkpt lat="45.68592" lon="3.1637">
        <ele>437.4</ele>
        <time>2021-08-03T16:24:09Z</time>
      </trkpt>
      <trkpt lat="45.68589" lon="3.16374">
        <ele>437.7</ele>
        <time>2021-08-03T16:24:11Z</time>
      </trkpt>
      <trkpt lat="45.68585" lon="3.16376">
        <ele>438.2</ele>
        <time>2021-08-03T16:24:13Z</time>
      </trkpt>
      <trkpt lat="45.68583" lon="3.16379">
        <ele>438.6</ele>
        <time>2021-08-03T16:24:15Z</time>
      </trkpt>
      <trkpt lat="45.68579" lon="3.16382">
        <ele>439.1</ele>
        <time>2021-08-03T16:24:17Z</time>
      </trkpt>
      <trkpt lat="45.68575" lon="3.16385">
        <ele>439.5</ele>
        <time>2021-08-03T16:24:19Z</time>
      </trkpt>
      <trkpt lat="45.68573" lon="3.16388">
        <ele>439.9</ele>
        <time>2021-08-03T16:24:21Z</time>
      </trkpt>
      <trkpt lat="45.68569" lon="3.1639">
        <ele>440.3</ele>
        <time>2021-08-03T16:24:23Z</time>
      </trkpt>
      <trkpt lat="45.68567" lon="3.16392">
        <ele>440.7</ele>
        <time>2021-08-03T16:24:25Z</time>
      </trkpt>
      <trkpt lat="45.68564" lon="3.16395">
        <ele>441</ele>
        <time>2021-08-03T16:24:27Z</time>
      </trkpt>
      <trkpt lat="45.68562" lon="3.16397">
        <ele>441.4</ele>
        <time>2021-08-03T16:24:29Z</time>
      </trkpt>
      <trkpt lat="45.6856" lon="3.16399">
        <ele>441.6</ele>
        <time>2021-08-03T16:24:31Z</time>
      </trkpt>
      <trkpt lat="45.68557" lon="3.16402">
        <ele>441.9</ele>
        <time>2021-08-03T16:24:33Z</time>
      </trkpt>
      <trkpt lat="45.68555" lon="3.16405">
        <ele>442.2</ele>
        <time>2021-08-03T16:24:35Z</time>
      </trkpt>
      <trkpt lat="45.68553" lon="3.16407">
        <ele>442.5</ele>
        <time>2021-08-03T16:24:37Z</time>
      </trkpt>
      <trkpt lat="45.6855" lon="3.16409">
        <ele>442.8</ele>
        <time>2021-08-03T16:24:39Z</time>
      </trkpt>
      <trkpt lat="45.68548" lon="3.16412">
        <ele>443.2</ele>
        <time>2021-08-03T16:24:41Z</time>
      </trkpt>
      <trkpt lat="45.68545" lon="3.16414">
        <ele>443.6</ele>
        <time>2021-08-03T16:24:43Z</time>
      </trkpt>
      <trkpt lat="45.68543" lon="3.16417">
        <ele>443.8</ele>
        <time>2021-08-03T16:24:45Z</time>
      </trkpt>
      <trkpt lat="45.68541" lon="3.1642">
        <ele>444</ele>
        <time>2021-08-03T16:24:47Z</time>
      </trkpt>
      <trkpt lat="45.68538" lon="3.16423">
        <ele>444.3</ele>
        <time>2021-08-03T16:24:49Z</time>
      </trkpt>
      <trkpt lat="45.68535" lon="3.16425">
        <ele>444.6</ele>
        <time>2021-08-03T16:24:51Z</time>
      </trkpt>
      <trkpt lat="45.68532" lon="3.16428">
        <ele>444.9</ele>
        <time>2021-08-03T16:24:53Z</time>
      </trkpt>
      <trkpt lat="45.6853" lon="3.16431">
        <ele>445</ele>
        <time>2021-08-03T16:24:55Z</time>
      </trkpt>
      <trkpt lat="45.68528" lon="3.16433">
        <ele>445.2</ele>
        <time>2021-08-03T16:24:57Z</time>
      </trkpt>
      <trkpt lat="45.68526" lon="3.16434">
        <ele>445.5</ele>
        <time>2021-08-03T16:24:59Z</time>
      </trkpt>
      <trkpt lat="45.68524" lon="3.16437">
        <ele>445.7</ele>
        <time>2021-08-03T16:25:01Z</time>
      </trkpt>
      <trkpt lat="45.68522" lon="3.1644">
        <ele>445.7</ele>
        <time>2021-08-03T16:25:03Z</time>
      </trkpt>
      <trkpt lat="45.6852" lon="3.16442">
        <ele>445.9</ele>
        <time>2021-08-03T16:25:05Z</time>
      </trkpt>
      <trkpt lat="45.68518" lon="3.16445">
        <ele>446.1</ele>
        <time>2021-08-03T16:25:07Z</time>
      </trkpt>
      <trkpt lat="45.68516" lon="3.16448">
        <ele>446.1</ele>
        <time>2021-08-03T16:25:09Z</time>
      </trkpt>
      <trkpt lat="45.68514" lon="3.1645">
        <ele>446.3</ele>
        <time>2021-08-03T16:25:11Z</time>
      </trkpt>
      <trkpt lat="45.68512" lon="3.16452">
        <ele>446.4</ele>
        <time>2021-08-03T16:25:13Z</time>
      </trkpt>
      <trkpt lat="45.68511" lon="3.16455">
        <ele>446.4</ele>
        <time>2021-08-03T16:25:15Z</time>
      </trkpt>
      <trkpt lat="45.68508" lon="3.16458">
        <ele>446.6</ele>
        <time>2021-08-03T16:25:17Z</time>
      </trkpt>
      <trkpt lat="45.68505" lon="3.16461">
        <ele>446.7</ele>
        <time>2021-08-03T16:25:19Z</time>
      </trkpt>
      <trkpt lat="45.68502" lon="3.16462">
        <ele>447</ele>
        <time>2021-08-03T16:25:21Z</time>
      </trkpt>
      <trkpt lat="45.685" lon="3.16465">
        <ele>447.1</ele>
        <time>2021-08-03T16:25:23Z</time>
      </trkpt>
      <trkpt lat="45.68498" lon="3.16468">
        <ele>447.1</ele>
        <time>2021-08-03T16:25:25Z</time>
      </trkpt>
      <trkpt lat="45.68496" lon="3.16472">
        <ele>447</ele>
        <time>2021-08-03T16:25:27Z</time>
      </trkpt>
      <trkpt lat="45.68493" lon="3.16474">
        <ele>447.1</ele>
        <time>2021-08-03T16:25:29Z</time>
      </trkpt>
      <trkpt lat="45.68492" lon="3.16477">
        <ele>447.1</ele>
        <time>2021-08-03T16:25:31Z</time>
      </trkpt>
      <trkpt lat="45.6849" lon="3.1648">
        <ele>447.1</ele>
        <time>2021-08-03T16:25:33Z</time>
      </trkpt>
      <trkpt lat="45.68487" lon="3.16483">
        <ele>447.2</ele>
        <time>2021-08-03T16:25:35Z</time>
      </trkpt>
      <trkpt lat="45.68484" lon="3.16485">
        <ele>447.2</ele>
        <time>2021-08-03T16:25:37Z</time>
      </trkpt>
      <trkpt lat="45.68482" lon="3.16487">
        <ele>447.2</ele>
        <time>2021-08-03T16:25:39Z</time>
      </trkpt>
      <trkpt lat="45.6848" lon="3.16491">
        <ele>447.2</ele>
        <time>2021-08-03T16:25:41Z</time>
      </trkpt>
      <trkpt lat="45.68478" lon="3.16493">
        <ele>447.3</ele>
        <time>2021-08-03T16:25:43Z</time>
      </trkpt>
      <trkpt lat="45.68476" lon="3.16495">
        <ele>447.3</ele>
        <time>2021-08-03T16:25:45Z</time>
      </trkpt>
      <trkpt lat="45.68474" lon="3.16496">
        <ele>447.5</ele>
        <time>2021-08-03T16:25:47Z</time>
      </trkpt>
      <trkpt lat="45.68471" lon="3.16497">
        <ele>447.6</ele>
        <time>2021-08-03T16:25:49Z</time>
      </trkpt>
      <trkpt lat="45.68468" lon="3.16498">
        <ele>447.8</ele>
        <time>2021-08-03T16:25:51Z</time>
      </trkpt>
      <trkpt lat="45.68465" lon="3.16499">
        <ele>448</ele>
        <time>2021-08-03T16:25:53Z</time>
      </trkpt>
      <trkpt lat="45.68462" lon="3.16501">
        <ele>448.1</ele>
        <time>2021-08-03T16:25:55Z</time>
      </trkpt>
      <trkpt lat="45.68459" lon="3.16502">
        <ele>448.4</ele>
        <time>2021-08-03T16:25:57Z</time>
      </trkpt>
      <trkpt lat="45.68456" lon="3.16503">
        <ele>448.6</ele>
        <time>2021-08-03T16:25:59Z</time>
      </trkpt>
      <trkpt lat="45.68453" lon="3.16503">
        <ele>448.9</ele>
        <time>2021-08-03T16:26:01Z</time>
      </trkpt>
      <trkpt lat="45.6845" lon="3.16504">
        <ele>449.1</ele>
        <time>2021-08-03T16:26:03Z</time>
      </trkpt>
      <trkpt lat="45.68447" lon="3.16505">
        <ele>449.3</ele>
        <time>2021-08-03T16:26:05Z</time>
      </trkpt>
      <trkpt lat="45.68444" lon="3.16506">
        <ele>449.5</ele>
        <time>2021-08-03T16:26:07Z</time>
      </trkpt>
      <trkpt lat="45.68441" lon="3.16507">
        <ele>449.8</ele>
        <time>2021-08-03T16:26:09Z</time>
      </trkpt>
      <trkpt lat="45.68438" lon="3.16509">
        <ele>450</ele>
        <time>2021-08-03T16:26:11Z</time>
      </trkpt>
      <trkpt lat="45.68435" lon="3.1651">
        <ele>450.2</ele>
        <time>2021-08-03T16:26:13Z</time>
      </trkpt>
      <trkpt lat="45.68432" lon="3.16511">
        <ele>450.4</ele>
        <time>2021-08-03T16:26:15Z</time>
      </trkpt>
      <trkpt lat="45.6843" lon="3.16513">
        <ele>450.6</ele>
        <time>2021-08-03T16:26:17Z</time>
      </trkpt>
      <trkpt lat="45.68427" lon="3.16515">
        <ele>450.8</ele>
        <time>2021-08-03T16:26:19Z</time>
      </trkpt>
      <trkpt lat="45.68424" lon="3.16516">
        <ele>451</ele>
        <time>2021-08-03T16:26:21Z</time>
      </trkpt>
      <trkpt lat="45.68421" lon="3.16518">
        <ele>451.2</ele>
        <time>2021-08-03T16:26:23Z</time>
      </trkpt>
      <trkpt lat="45.68418" lon="3.1652">
        <ele>451.4</ele>
        <time>2021-08-03T16:26:25Z</time>
      </trkpt>
      <trkpt lat="45.68415" lon="3.16522">
        <ele>451.7</ele>
        <time>2021-08-03T16:26:27Z</time>
      </trkpt>
      <trkpt lat="45.68412" lon="3.16523">
        <ele>451.9</ele>
        <time>2021-08-03T16:26:29Z</time>
      </trkpt>
      <trkpt lat="45.68409" lon="3.16525">
        <ele>452.2</ele>
        <time>2021-08-03T16:26:31Z</time>
      </trkpt>
      <trkpt lat="45.68406" lon="3.16526">
        <ele>452.5</ele>
        <time>2021-08-03T16:26:33Z</time>
      </trkpt>
      <trkpt lat="45.68403" lon="3.16528">
        <ele>452.8</ele>
        <time>2021-08-03T16:26:35Z</time>
      </trkpt>
      <trkpt lat="45.684" lon="3.1653">
        <ele>453.1</ele>
        <time>2021-08-03T16:26:37Z</time>
      </trkpt>
      <trkpt lat="45.68396" lon="3.16532">
        <ele>453.4</ele>
        <time>2021-08-03T16:26:39Z</time>
      </trkpt>
      <trkpt lat="45.68393" lon="3.16533">
        <ele>453.7</ele>
        <time>2021-08-03T16:26:41Z</time>
      </trkpt>
      <trkpt lat="45.6839" lon="3.16535">
        <ele>453.9</ele>
        <time>2021-08-03T16:26:43Z</time>
      </trkpt>
      <trkpt lat="45.68387" lon="3.16537">
        <ele>454.2</ele>
        <time>2021-08-03T16:26:45Z</time>
      </trkpt>
      <trkpt lat="45.68383" lon="3.1654">
        <ele>454.5</ele>
        <time>2021-08-03T16:26:47Z</time>
      </trkpt>
      <trkpt lat="45.6838" lon="3.16541">
        <ele>454.8</ele>
        <time>2021-08-03T16:26:49Z</time>
      </trkpt>
      <trkpt lat="45.68376" lon="3.16543">
        <ele>455</ele>
        <time>2021-08-03T16:26:51Z</time>
      </trkpt>
      <trkpt lat="45.68374" lon="3.16545">
        <ele>455.2</ele>
        <time>2021-08-03T16:26:53Z</time>
      </trkpt>
      <trkpt lat="45.6837" lon="3.16547">
        <ele>455.5</ele>
        <time>2021-08-03T16:26:55Z</time>
      </trkpt>
      <trkpt lat="45.68367" lon="3.16549">
        <ele>455.7</ele>
        <time>2021-08-03T16:26:57Z</time>
      </trkpt>
      <trkpt lat="45.68364" lon="3.1655">
        <ele>456</ele>
        <time>2021-08-03T16:26:59Z</time>
      </trkpt>
      <trkpt lat="45.6836" lon="3.16552">
        <ele>456.3</ele>
        <time>2021-08-03T16:27:01Z</time>
      </trkpt>
      <trkpt lat="45.68357" lon="3.16553">
        <ele>456.5</ele>
        <time>2021-08-03T16:27:03Z</time>
      </trkpt>
      <trkpt lat="45.68353" lon="3.16554">
        <ele>456.8</ele>
        <time>2021-08-03T16:27:05Z</time>
      </trkpt>
      <trkpt lat="45.6835" lon="3.16555">
        <ele>457.1</ele>
        <time>2021-08-03T16:27:07Z</time>
      </trkpt>
      <trkpt lat="45.68347" lon="3.16557">
        <ele>457.3</ele>
        <time>2021-08-03T16:27:09Z</time>
      </trkpt>
      <trkpt lat="45.68344" lon="3.16557">
        <ele>457.6</ele>
        <time>2021-08-03T16:27:11Z</time>
      </trkpt>
      <trkpt lat="45.68341" lon="3.16558">
        <ele>457.8</ele>
        <time>2021-08-03T16:27:13Z</time>
      </trkpt>
      <trkpt lat="45.68338" lon="3.16558">
        <ele>458.1</ele>
        <time>2021-08-03T16:27:15Z</time>
      </trkpt>
      <trkpt lat="45.68335" lon="3.16558">
        <ele>458.3</ele>
        <time>2021-08-03T16:27:17Z</time>
      </trkpt>
      <trkpt lat="45.68332" lon="3.16559">
        <ele>458.5</ele>
        <time>2021-08-03T16:27:19Z</time>
      </trkpt>
      <trkpt lat="45.68329" lon="3.16559">
        <ele>458.7</ele>
        <time>2021-08-03T16:27:21Z</time>
      </trkpt>
      <trkpt lat="45.68327" lon="3.1656">
        <ele>458.9</ele>
        <time>2021-08-03T16:27:23Z</time>
      </trkpt>
      <trkpt lat="45.68323" lon="3.16562">
        <ele>459</ele>
        <time>2021-08-03T16:27:25Z</time>
      </trkpt>
      <trkpt lat="45.68319" lon="3.16563">
        <ele>459.3</ele>
        <time>2021-08-03T16:27:27Z</time>
      </trkpt>
      <trkpt lat="45.68316" lon="3.16563">
        <ele>459.6</ele>
        <time>2021-08-03T16:27:29Z</time>
      </trkpt>
      <trkpt lat="45.68312" lon="3.16562">
        <ele>459.9</ele>
        <time>2021-08-03T16:27:31Z</time>
      </trkpt>
      <trkpt lat="45.68309" lon="3.16561">
        <ele>460.2</ele>
        <time>2021-08-03T16:27:33Z</time>
      </trkpt>
      <trkpt lat="45.68306" lon="3.16559">
        <ele>460.5</ele>
        <time>2021-08-03T16:27:35Z</time>
      </trkpt>
      <trkpt lat="45.68302" lon="3.16558">
        <ele>460.9</ele>
        <time>2021-08-03T16:27:37Z</time>
      </trkpt>
      <trkpt lat="45.68299" lon="3.16557">
        <ele>461.2</ele>
        <time>2021-08-03T16:27:39Z</time>
      </trkpt>
      <trkpt lat="45.68296" lon="3.16556">
        <ele>461.5</ele>
        <time>2021-08-03T16:27:41Z</time>
      </trkpt>
      <trkpt lat="45.68292" lon="3.16554">
        <ele>461.9</ele>
        <time>2021-08-03T16:27:43Z</time>
      </trkpt>
      <trkpt lat="45.68289" lon="3.16553">
        <ele>462.2</ele>
        <time>2021-08-03T16:27:45Z</time>
      </trkpt>
      <trkpt lat="45.68286" lon="3.16552">
        <ele>462.5</ele>
        <time>2021-08-03T16:27:47Z</time>
      </trkpt>
      <trkpt lat="45.68282" lon="3.16551">
        <ele>462.9</ele>
        <time>2021-08-03T16:27:49Z</time>
      </trkpt>
      <trkpt lat="45.68279" lon="3.1655">
        <ele>463.2</ele>
        <time>2021-08-03T16:27:51Z</time>
      </trkpt>
      <trkpt lat="45.68275" lon="3.16548">
        <ele>463.6</ele>
        <time>2021-08-03T16:27:53Z</time>
      </trkpt>
      <trkpt lat="45.68272" lon="3.16547">
        <ele>463.9</ele>
        <time>2021-08-03T16:27:55Z</time>
      </trkpt>
      <trkpt lat="45.68268" lon="3.16546">
        <ele>464.2</ele>
        <time>2021-08-03T16:27:57Z</time>
      </trkpt>
      <trkpt lat="45.68265" lon="3.16546">
        <ele>464.6</ele>
        <time>2021-08-03T16:27:59Z</time>
      </trkpt>
      <trkpt lat="45.68262" lon="3.16545">
        <ele>464.9</ele>
        <time>2021-08-03T16:28:01Z</time>
      </trkpt>
      <trkpt lat="45.68259" lon="3.16543">
        <ele>465.2</ele>
        <time>2021-08-03T16:28:03Z</time>
      </trkpt>
      <trkpt lat="45.68255" lon="3.16543">
        <ele>465.6</ele>
        <time>2021-08-03T16:28:05Z</time>
      </trkpt>
      <trkpt lat="45.68251" lon="3.16541">
        <ele>466</ele>
        <time>2021-08-03T16:28:07Z</time>
      </trkpt>
      <trkpt lat="45.68248" lon="3.1654">
        <ele>466.2</ele>
        <time>2021-08-03T16:28:09Z</time>
      </trkpt>
      <trkpt lat="45.68244" lon="3.16539">
        <ele>466.4</ele>
        <time>2021-08-03T16:28:11Z</time>
      </trkpt>
      <trkpt lat="45.68241" lon="3.16538">
        <ele>466.6</ele>
        <time>2021-08-03T16:28:13Z</time>
      </trkpt>
      <trkpt lat="45.68237" lon="3.16537">
        <ele>466.8</ele>
        <time>2021-08-03T16:28:15Z</time>
      </trkpt>
      <trkpt lat="45.68233" lon="3.16536">
        <ele>467</ele>
        <time>2021-08-03T16:28:17Z</time>
      </trkpt>
      <trkpt lat="45.68229" lon="3.16535">
        <ele>467.2</ele>
        <time>2021-08-03T16:28:19Z</time>
      </trkpt>
      <trkpt lat="45.68226" lon="3.16534">
        <ele>467.5</ele>
        <time>2021-08-03T16:28:21Z</time>
      </trkpt>
      <trkpt lat="45.68222" lon="3.16533">
        <ele>467.7</ele>
        <time>2021-08-03T16:28:23Z</time>
      </trkpt>
      <trkpt lat="45.68218" lon="3.16532">
        <ele>467.9</ele>
        <time>2021-08-03T16:28:25Z</time>
      </trkpt>
      <trkpt lat="45.68215" lon="3.16532">
        <ele>468.1</ele>
        <time>2021-08-03T16:28:27Z</time>
      </trkpt>
      <trkpt lat="45.68212" lon="3.16531">
        <ele>468.2</ele>
        <time>2021-08-03T16:28:29Z</time>
      </trkpt>
      <trkpt lat="45.68208" lon="3.1653">
        <ele>468.5</ele>
        <time>2021-08-03T16:28:31Z</time>
      </trkpt>
      <trkpt lat="45.68204" lon="3.16529">
        <ele>468.7</ele>
        <time>2021-08-03T16:28:33Z</time>
      </trkpt>
      <trkpt lat="45.682" lon="3.16528">
        <ele>469</ele>
        <time>2021-08-03T16:28:35Z</time>
      </trkpt>
      <trkpt lat="45.68196" lon="3.16527">
        <ele>469.2</ele>
        <time>2021-08-03T16:28:37Z</time>
      </trkpt>
      <trkpt lat="45.68193" lon="3.16526">
        <ele>469.5</ele>
        <time>2021-08-03T16:28:39Z</time>
      </trkpt>
      <trkpt lat="45.68189" lon="3.16525">
        <ele>469.7</ele>
        <time>2021-08-03T16:28:41Z</time>
      </trkpt>
      <trkpt lat="45.68185" lon="3.16523">
        <ele>470</ele>
        <time>2021-08-03T16:28:43Z</time>
      </trkpt>
      <trkpt lat="45.68181" lon="3.16522">
        <ele>470.3</ele>
        <time>2021-08-03T16:28:45Z</time>
      </trkpt>
      <trkpt lat="45.68177" lon="3.16521">
        <ele>470.5</ele>
        <time>2021-08-03T16:28:47Z</time>
      </trkpt>
      <trkpt lat="45.68173" lon="3.1652">
        <ele>470.8</ele>
        <time>2021-08-03T16:28:49Z</time>
      </trkpt>
      <trkpt lat="45.6817" lon="3.16519">
        <ele>471</ele>
        <time>2021-08-03T16:28:51Z</time>
      </trkpt>
      <trkpt lat="45.68165" lon="3.16518">
        <ele>471.3</ele>
        <time>2021-08-03T16:28:53Z</time>
      </trkpt>
      <trkpt lat="45.68161" lon="3.16517">
        <ele>471.5</ele>
        <time>2021-08-03T16:28:55Z</time>
      </trkpt>
      <trkpt lat="45.68157" lon="3.16516">
        <ele>471.6</ele>
        <time>2021-08-03T16:28:57Z</time>
      </trkpt>
      <trkpt lat="45.68153" lon="3.16514">
        <ele>471.8</ele>
        <time>2021-08-03T16:28:59Z</time>
      </trkpt>
      <trkpt lat="45.6815" lon="3.16513">
        <ele>472</ele>
        <time>2021-08-03T16:29:01Z</time>
      </trkpt>
      <trkpt lat="45.68146" lon="3.16512">
        <ele>472.1</ele>
        <time>2021-08-03T16:29:03Z</time>
      </trkpt>
      <trkpt lat="45.68142" lon="3.1651">
        <ele>472.3</ele>
        <time>2021-08-03T16:29:05Z</time>
      </trkpt>
      <trkpt lat="45.68138" lon="3.16509">
        <ele>472.5</ele>
        <time>2021-08-03T16:29:07Z</time>
      </trkpt>
      <trkpt lat="45.68134" lon="3.16507">
        <ele>472.7</ele>
        <time>2021-08-03T16:29:09Z</time>
      </trkpt>
      <trkpt lat="45.68131" lon="3.16506">
        <ele>472.9</ele>
        <time>2021-08-03T16:29:11Z</time>
      </trkpt>
      <trkpt lat="45.68127" lon="3.16504">
        <ele>473.1</ele>
        <time>2021-08-03T16:29:13Z</time>
      </trkpt>
      <trkpt lat="45.68124" lon="3.16503">
        <ele>473.3</ele>
        <time>2021-08-03T16:29:15Z</time>
      </trkpt>
      <trkpt lat="45.6812" lon="3.16501">
        <ele>473.4</ele>
        <time>2021-08-03T16:29:17Z</time>
      </trkpt>
      <trkpt lat="45.68116" lon="3.16499">
        <ele>473.7</ele>
        <time>2021-08-03T16:29:19Z</time>
      </trkpt>
      <trkpt lat="45.68112" lon="3.16497">
        <ele>474</ele>
        <time>2021-08-03T16:29:21Z</time>
      </trkpt>
      <trkpt lat="45.68109" lon="3.16495">
        <ele>474.3</ele>
        <time>2021-08-03T16:29:23Z</time>
      </trkpt>
      <trkpt lat="45.68105" lon="3.16493">
        <ele>474.7</ele>
        <time>2021-08-03T16:29:25Z</time>
      </trkpt>
      <trkpt lat="45.68103" lon="3.16491">
        <ele>475</ele>
        <time>2021-08-03T16:29:27Z</time>
      </trkpt>
      <trkpt lat="45.681" lon="3.16488">
        <ele>475.3</ele>
        <time>2021-08-03T16:29:29Z</time>
      </trkpt>
      <trkpt lat="45.68097" lon="3.16486">
        <ele>475.7</ele>
        <time>2021-08-03T16:29:31Z</time>
      </trkpt>
      <trkpt lat="45.68093" lon="3.16484">
        <ele>476.1</ele>
        <time>2021-08-03T16:29:33Z</time>
      </trkpt>
      <trkpt lat="45.68089" lon="3.1648">
        <ele>476.6</ele>
        <time>2021-08-03T16:29:35Z</time>
      </trkpt>
      <trkpt lat="45.68086" lon="3.16477">
        <ele>477</ele>
        <time>2021-08-03T16:29:37Z</time>
      </trkpt>
      <trkpt lat="45.68082" lon="3.16475">
        <ele>477.3</ele>
        <time>2021-08-03T16:29:39Z</time>
      </trkpt>
      <trkpt lat="45.68079" lon="3.16472">
        <ele>477.6</ele>
        <time>2021-08-03T16:29:41Z</time>
      </trkpt>
      <trkpt lat="45.68076" lon="3.16469">
        <ele>478.1</ele>
        <time>2021-08-03T16:29:43Z</time>
      </trkpt>
      <trkpt lat="45.68073" lon="3.16466">
        <ele>478.5</ele>
        <time>2021-08-03T16:29:45Z</time>
      </trkpt>
      <trkpt lat="45.6807" lon="3.16463">
        <ele>478.8</ele>
        <time>2021-08-03T16:29:47Z</time>
      </trkpt>
      <trkpt lat="45.68067" lon="3.16459">
        <ele>479.3</ele>
        <time>2021-08-03T16:29:49Z</time>
      </trkpt>
      <trkpt lat="45.68064" lon="3.16456">
        <ele>479.7</ele>
        <time>2021-08-03T16:29:51Z</time>
      </trkpt>
      <trkpt lat="45.6806" lon="3.16453">
        <ele>480.1</ele>
        <time>2021-08-03T16:29:53Z</time>
      </trkpt>
      <trkpt lat="45.68058" lon="3.1645">
        <ele>480.5</ele>
        <time>2021-08-03T16:29:55Z</time>
      </trkpt>
      <trkpt lat="45.68055" lon="3.16447">
        <ele>480.9</ele>
        <time>2021-08-03T16:29:57Z</time>
      </trkpt>
      <trkpt lat="45.68051" lon="3.16444">
        <ele>481.3</ele>
        <time>2021-08-03T16:29:59Z</time>
      </trkpt>
      <trkpt lat="45.68049" lon="3.1644">
        <ele>481.8</ele>
        <time>2021-08-03T16:30:01Z</time>
      </trkpt>
      <trkpt lat="45.68045" lon="3.16438">
        <ele>482.1</ele>
        <time>2021-08-03T16:30:03Z</time>
      </trkpt>
      <trkpt lat="45.68042" lon="3.16434">
        <ele>482.6</ele>
        <time>2021-08-03T16:30:05Z</time>
      </trkpt>
      <trkpt lat="45.68039" lon="3.16431">
        <ele>483</ele>
        <time>2021-08-03T16:30:07Z</time>
      </trkpt>
      <trkpt lat="45.68036" lon="3.16429">
        <ele>483.3</ele>
        <time>2021-08-03T16:30:09Z</time>
      </trkpt>
      <trkpt lat="45.68033" lon="3.16426">
        <ele>483.7</ele>
        <time>2021-08-03T16:30:11Z</time>
      </trkpt>
      <trkpt lat="45.6803" lon="3.16423">
        <ele>484.1</ele>
        <time>2021-08-03T16:30:13Z</time>
      </trkpt>
      <trkpt lat="45.68028" lon="3.16421">
        <ele>484.4</ele>
        <time>2021-08-03T16:30:15Z</time>
      </trkpt>
      <trkpt lat="45.68025" lon="3.16419">
        <ele>484.7</ele>
        <time>2021-08-03T16:30:17Z</time>
      </trkpt>
      <trkpt lat="45.68022" lon="3.16417">
        <ele>485</ele>
        <time>2021-08-03T16:30:19Z</time>
      </trkpt>
      <trkpt lat="45.68019" lon="3.16415">
        <ele>485.2</ele>
        <time>2021-08-03T16:30:21Z</time>
      </trkpt>
      <trkpt lat="45.68016" lon="3.16413">
        <ele>485.5</ele>
        <time>2021-08-03T16:30:23Z</time>
      </trkpt>
      <trkpt lat="45.68013" lon="3.16412">
        <ele>485.7</ele>
        <time>2021-08-03T16:30:25Z</time>
      </trkpt>
      <trkpt lat="45.68009" lon="3.16411">
        <ele>485.9</ele>
        <time>2021-08-03T16:30:27Z</time>
      </trkpt>
      <trkpt lat="45.68005" lon="3.1641">
        <ele>486</ele>
        <time>2021-08-03T16:30:29Z</time>
      </trkpt>
      <trkpt lat="45.68001" lon="3.1641">
        <ele>486</ele>
        <time>2021-08-03T16:30:31Z</time>
      </trkpt>
      <trkpt lat="45.67997" lon="3.16409">
        <ele>486.4</ele>
        <time>2021-08-03T16:30:33Z</time>
      </trkpt>
      <trkpt lat="45.67994" lon="3.16409">
        <ele>486.7</ele>
        <time>2021-08-03T16:30:35Z</time>
      </trkpt>
      <trkpt lat="45.6799" lon="3.16409">
        <ele>486.9</ele>
        <time>2021-08-03T16:30:37Z</time>
      </trkpt>
      <trkpt lat="45.67986" lon="3.16411">
        <ele>487</ele>
        <time>2021-08-03T16:30:39Z</time>
      </trkpt>
      <trkpt lat="45.67985" lon="3.16412">
        <ele>486.9</ele>
        <time>2021-08-03T16:30:41Z</time>
      </trkpt>
      <trkpt lat="45.67981" lon="3.16414">
        <ele>487</ele>
        <time>2021-08-03T16:30:43Z</time>
      </trkpt>
      <trkpt lat="45.67977" lon="3.16416">
        <ele>487</ele>
        <time>2021-08-03T16:30:45Z</time>
      </trkpt>
      <trkpt lat="45.67973" lon="3.16417">
        <ele>487.1</ele>
        <time>2021-08-03T16:30:47Z</time>
      </trkpt>
      <trkpt lat="45.6797" lon="3.16419">
        <ele>487.2</ele>
        <time>2021-08-03T16:30:49Z</time>
      </trkpt>
      <trkpt lat="45.67966" lon="3.16421">
        <ele>487.3</ele>
        <time>2021-08-03T16:30:51Z</time>
      </trkpt>
      <trkpt lat="45.67962" lon="3.16422">
        <ele>487.6</ele>
        <time>2021-08-03T16:30:53Z</time>
      </trkpt>
      <trkpt lat="45.67958" lon="3.16423">
        <ele>487.8</ele>
        <time>2021-08-03T16:30:55Z</time>
      </trkpt>
      <trkpt lat="45.67954" lon="3.16425">
        <ele>487.9</ele>
        <time>2021-08-03T16:30:57Z</time>
      </trkpt>
      <trkpt lat="45.6795" lon="3.16427">
        <ele>488</ele>
        <time>2021-08-03T16:30:59Z</time>
      </trkpt>
      <trkpt lat="45.67946" lon="3.16429">
        <ele>488.1</ele>
        <time>2021-08-03T16:31:01Z</time>
      </trkpt>
      <trkpt lat="45.67943" lon="3.16431">
        <ele>488.2</ele>
        <time>2021-08-03T16:31:03Z</time>
      </trkpt>
      <trkpt lat="45.67939" lon="3.16433">
        <ele>488.3</ele>
        <time>2021-08-03T16:31:05Z</time>
      </trkpt>
      <trkpt lat="45.67935" lon="3.16434">
        <ele>488.6</ele>
        <time>2021-08-03T16:31:07Z</time>
      </trkpt>
      <trkpt lat="45.67931" lon="3.16435">
        <ele>488.9</ele>
        <time>2021-08-03T16:31:09Z</time>
      </trkpt>
      <trkpt lat="45.67928" lon="3.16435">
        <ele>489.2</ele>
        <time>2021-08-03T16:31:11Z</time>
      </trkpt>
      <trkpt lat="45.67924" lon="3.16436">
        <ele>489.5</ele>
        <time>2021-08-03T16:31:13Z</time>
      </trkpt>
      <trkpt lat="45.67921" lon="3.16436">
        <ele>489.7</ele>
        <time>2021-08-03T16:31:15Z</time>
      </trkpt>
      <trkpt lat="45.67918" lon="3.16436">
        <ele>490</ele>
        <time>2021-08-03T16:31:17Z</time>
      </trkpt>
      <trkpt lat="45.67915" lon="3.16435">
        <ele>490.2</ele>
        <time>2021-08-03T16:31:19Z</time>
      </trkpt>
      <trkpt lat="45.67912" lon="3.16436">
        <ele>490.2</ele>
        <time>2021-08-03T16:31:21Z</time>
      </trkpt>
      <trkpt lat="45.67909" lon="3.16436">
        <ele>490.2</ele>
        <time>2021-08-03T16:31:23Z</time>
      </trkpt>
      <trkpt lat="45.67905" lon="3.16435">
        <ele>490.3</ele>
        <time>2021-08-03T16:31:25Z</time>
      </trkpt>
      <trkpt lat="45.67902" lon="3.16435">
        <ele>490.2</ele>
        <time>2021-08-03T16:31:27Z</time>
      </trkpt>
      <trkpt lat="45.67899" lon="3.16434">
        <ele>490.4</ele>
        <time>2021-08-03T16:31:29Z</time>
      </trkpt>
      <trkpt lat="45.67895" lon="3.16432">
        <ele>490.6</ele>
        <time>2021-08-03T16:31:31Z</time>
      </trkpt>
      <trkpt lat="45.67891" lon="3.16431">
        <ele>490.7</ele>
        <time>2021-08-03T16:31:33Z</time>
      </trkpt>
      <trkpt lat="45.67888" lon="3.16429">
        <ele>490.9</ele>
        <time>2021-08-03T16:31:35Z</time>
      </trkpt>
      <trkpt lat="45.67884" lon="3.16427">
        <ele>491.1</ele>
        <time>2021-08-03T16:31:37Z</time>
      </trkpt>
      <trkpt lat="45.67881" lon="3.16425">
        <ele>491.2</ele>
        <time>2021-08-03T16:31:39Z</time>
      </trkpt>
      <trkpt lat="45.67878" lon="3.16424">
        <ele>491.4</ele>
        <time>2021-08-03T16:31:41Z</time>
      </trkpt>
      <trkpt lat="45.67875" lon="3.16419">
        <ele>491.8</ele>
        <time>2021-08-03T16:31:43Z</time>
      </trkpt>
      <trkpt lat="45.67873" lon="3.16414">
        <ele>492.2</ele>
        <time>2021-08-03T16:31:45Z</time>
      </trkpt>
      <trkpt lat="45.67871" lon="3.1641">
        <ele>492.7</ele>
        <time>2021-08-03T16:31:47Z</time>
      </trkpt>
      <trkpt lat="45.67869" lon="3.16406">
        <ele>493.2</ele>
        <time>2021-08-03T16:31:49Z</time>
      </trkpt>
      <trkpt lat="45.67867" lon="3.16402">
        <ele>493.7</ele>
        <time>2021-08-03T16:31:51Z</time>
      </trkpt>
      <trkpt lat="45.67865" lon="3.16396">
        <ele>494.2</ele>
        <time>2021-08-03T16:31:53Z</time>
      </trkpt>
      <trkpt lat="45.67864" lon="3.16391">
        <ele>494.8</ele>
        <time>2021-08-03T16:31:55Z</time>
      </trkpt>
      <trkpt lat="45.67862" lon="3.16387">
        <ele>495.2</ele>
        <time>2021-08-03T16:31:57Z</time>
      </trkpt>
      <trkpt lat="45.6786" lon="3.16382">
        <ele>495.7</ele>
        <time>2021-08-03T16:31:59Z</time>
      </trkpt>
      <trkpt lat="45.67858" lon="3.16378">
        <ele>496.2</ele>
        <time>2021-08-03T16:32:01Z</time>
      </trkpt>
      <trkpt lat="45.67856" lon="3.16373">
        <ele>496.6</ele>
        <time>2021-08-03T16:32:03Z</time>
      </trkpt>
      <trkpt lat="45.67854" lon="3.16369">
        <ele>497</ele>
        <time>2021-08-03T16:32:05Z</time>
      </trkpt>
      <trkpt lat="45.67852" lon="3.16364">
        <ele>497.5</ele>
        <time>2021-08-03T16:32:07Z</time>
      </trkpt>
      <trkpt lat="45.6785" lon="3.1636">
        <ele>497.9</ele>
        <time>2021-08-03T16:32:09Z</time>
      </trkpt>
      <trkpt lat="45.67847" lon="3.16356">
        <ele>498.2</ele>
        <time>2021-08-03T16:32:11Z</time>
      </trkpt>
      <trkpt lat="45.67845" lon="3.16352">
        <ele>498.5</ele>
        <time>2021-08-03T16:32:13Z</time>
      </trkpt>
      <trkpt lat="45.67842" lon="3.16348">
        <ele>498.8</ele>
        <time>2021-08-03T16:32:15Z</time>
      </trkpt>
      <trkpt lat="45.67839" lon="3.16344">
        <ele>499.1</ele>
        <time>2021-08-03T16:32:17Z</time>
      </trkpt>
      <trkpt lat="45.67836" lon="3.1634">
        <ele>499.4</ele>
        <time>2021-08-03T16:32:19Z</time>
      </trkpt>
      <trkpt lat="45.67833" lon="3.16336">
        <ele>499.6</ele>
        <time>2021-08-03T16:32:21Z</time>
      </trkpt>
      <trkpt lat="45.6783" lon="3.16332">
        <ele>499.7</ele>
        <time>2021-08-03T16:32:23Z</time>
      </trkpt>
      <trkpt lat="45.67827" lon="3.16329">
        <ele>499.6</ele>
        <time>2021-08-03T16:32:25Z</time>
      </trkpt>
      <trkpt lat="45.67824" lon="3.16325">
        <ele>499.6</ele>
        <time>2021-08-03T16:32:27Z</time>
      </trkpt>
      <trkpt lat="45.67821" lon="3.16321">
        <ele>499.7</ele>
        <time>2021-08-03T16:32:29Z</time>
      </trkpt>
      <trkpt lat="45.67818" lon="3.16317">
        <ele>499.8</ele>
        <time>2021-08-03T16:32:31Z</time>
      </trkpt>
      <trkpt lat="45.67815" lon="3.16315">
        <ele>499.6</ele>
        <time>2021-08-03T16:32:33Z</time>
      </trkpt>
      <trkpt lat="45.67812" lon="3.16311">
        <ele>499.6</ele>
        <time>2021-08-03T16:32:35Z</time>
      </trkpt>
      <trkpt lat="45.67809" lon="3.16307">
        <ele>499.7</ele>
        <time>2021-08-03T16:32:37Z</time>
      </trkpt>
      <trkpt lat="45.67806" lon="3.16303">
        <ele>499.8</ele>
        <time>2021-08-03T16:32:39Z</time>
      </trkpt>
      <trkpt lat="45.67803" lon="3.163">
        <ele>499.8</ele>
        <time>2021-08-03T16:32:41Z</time>
      </trkpt>
      <trkpt lat="45.678" lon="3.16296">
        <ele>499.8</ele>
        <time>2021-08-03T16:32:43Z</time>
      </trkpt>
      <trkpt lat="45.67798" lon="3.16291">
        <ele>500</ele>
        <time>2021-08-03T16:32:45Z</time>
      </trkpt>
      <trkpt lat="45.67795" lon="3.16287">
        <ele>500</ele>
        <time>2021-08-03T16:32:47Z</time>
      </trkpt>
      <trkpt lat="45.67791" lon="3.16284">
        <ele>500</ele>
        <time>2021-08-03T16:32:49Z</time>
      </trkpt>
      <trkpt lat="45.67788" lon="3.16279">
        <ele>500.1</ele>
        <time>2021-08-03T16:32:51Z</time>
      </trkpt>
      <trkpt lat="45.67786" lon="3.16276">
        <ele>500.2</ele>
        <time>2021-08-03T16:32:53Z</time>
      </trkpt>
      <trkpt lat="45.67783" lon="3.16274">
        <ele>500</ele>
        <time>2021-08-03T16:32:55Z</time>
      </trkpt>
      <trkpt lat="45.67781" lon="3.16271">
        <ele>500</ele>
        <time>2021-08-03T16:32:57Z</time>
      </trkpt>
      <trkpt lat="45.67778" lon="3.16267">
        <ele>500.1</ele>
        <time>2021-08-03T16:32:59Z</time>
      </trkpt>
      <trkpt lat="45.67777" lon="3.16266">
        <ele>500.2</ele>
        <time>2021-08-03T16:33:01Z</time>
      </trkpt>
      <trkpt lat="45.67778" lon="3.16265">
        <ele>500.3</ele>
        <time>2021-08-03T16:33:03Z</time>
      </trkpt>
      <trkpt lat="45.67778" lon="3.16265">
        <ele>500.3</ele>
        <time>2021-08-03T16:33:05Z</time>
      </trkpt>
      <trkpt lat="45.67778" lon="3.16265">
        <ele>500.4</ele>
        <time>2021-08-03T16:33:07Z</time>
      </trkpt>
      <trkpt lat="45.67778" lon="3.16265">
        <ele>500.4</ele>
        <time>2021-08-03T16:33:09Z</time>
      </trkpt>
      <trkpt lat="45.6777" lon="3.16252">
        <ele>500.8</ele>
        <time>2021-08-03T16:33:23Z</time>
      </trkpt>
      <trkpt lat="45.67766" lon="3.1625">
        <ele>500.5</ele>
        <time>2021-08-03T16:33:25Z</time>
      </trkpt>
      <trkpt lat="45.67762" lon="3.16246">
        <ele>500.3</ele>
        <time>2021-08-03T16:33:27Z</time>
      </trkpt>
      <trkpt lat="45.67756" lon="3.16243">
        <ele>499.7</ele>
        <time>2021-08-03T16:33:29Z</time>
      </trkpt>
      <trkpt lat="45.67751" lon="3.16238">
        <ele>499.5</ele>
        <time>2021-08-03T16:33:31Z</time>
      </trkpt>
      <trkpt lat="45.67744" lon="3.16234">
        <ele>498.9</ele>
        <time>2021-08-03T16:33:33Z</time>
      </trkpt>
      <trkpt lat="45.67738" lon="3.16228">
        <ele>498.3</ele>
        <time>2021-08-03T16:33:35Z</time>
      </trkpt>
      <trkpt lat="45.67732" lon="3.16222">
        <ele>497.9</ele>
        <time>2021-08-03T16:33:37Z</time>
      </trkpt>
      <trkpt lat="45.67726" lon="3.16213">
        <ele>497.6</ele>
        <time>2021-08-03T16:33:39Z</time>
      </trkpt>
      <trkpt lat="45.6772" lon="3.16205">
        <ele>497.3</ele>
        <time>2021-08-03T16:33:41Z</time>
      </trkpt>
      <trkpt lat="45.67715" lon="3.16198">
        <ele>496.9</ele>
        <time>2021-08-03T16:33:43Z</time>
      </trkpt>
      <trkpt lat="45.6771" lon="3.16192">
        <ele>496.5</ele>
        <time>2021-08-03T16:33:45Z</time>
      </trkpt>
      <trkpt lat="45.67706" lon="3.16184">
        <ele>496.4</ele>
        <time>2021-08-03T16:33:47Z</time>
      </trkpt>
      <trkpt lat="45.67703" lon="3.16176">
        <ele>496.3</ele>
        <time>2021-08-03T16:33:49Z</time>
      </trkpt>
      <trkpt lat="45.67702" lon="3.16169">
        <ele>496.8</ele>
        <time>2021-08-03T16:33:51Z</time>
      </trkpt>
      <trkpt lat="45.677" lon="3.16167">
        <ele>496.5</ele>
        <time>2021-08-03T16:33:53Z</time>
      </trkpt>
      <trkpt lat="45.67701" lon="3.16166">
        <ele>496.8</ele>
        <time>2021-08-03T16:33:55Z</time>
      </trkpt>
      <trkpt lat="45.677" lon="3.16167">
        <ele>496.7</ele>
        <time>2021-08-03T16:33:57Z</time>
      </trkpt>
      <trkpt lat="45.677" lon="3.16167">
        <ele>496.7</ele>
        <time>2021-08-03T16:33:59Z</time>
      </trkpt>
      <trkpt lat="45.67701" lon="3.16166">
        <ele>496.8</ele>
        <time>2021-08-03T16:34:01Z</time>
      </trkpt>
      <trkpt lat="45.67693" lon="3.16146">
        <ele>495.9</ele>
        <time>2021-08-03T16:35:09Z</time>
      </trkpt>
      <trkpt lat="45.67691" lon="3.16135">
        <ele>495.8</ele>
        <time>2021-08-03T16:35:11Z</time>
      </trkpt>
      <trkpt lat="45.67688" lon="3.16123">
        <ele>495.6</ele>
        <time>2021-08-03T16:35:13Z</time>
      </trkpt>
      <trkpt lat="45.67685" lon="3.1611">
        <ele>495.4</ele>
        <time>2021-08-03T16:35:15Z</time>
      </trkpt>
      <trkpt lat="45.67683" lon="3.16097">
        <ele>495.3</ele>
        <time>2021-08-03T16:35:17Z</time>
      </trkpt>
      <trkpt lat="45.67682" lon="3.16086">
        <ele>495.4</ele>
        <time>2021-08-03T16:35:19Z</time>
      </trkpt>
      <trkpt lat="45.67681" lon="3.16076">
        <ele>495.3</ele>
        <time>2021-08-03T16:35:21Z</time>
      </trkpt>
      <trkpt lat="45.6768" lon="3.16063">
        <ele>495.4</ele>
        <time>2021-08-03T16:35:23Z</time>
      </trkpt>
      <trkpt lat="45.67679" lon="3.16054">
        <ele>495.1</ele>
        <time>2021-08-03T16:35:25Z</time>
      </trkpt>
      <trkpt lat="45.67679" lon="3.16046">
        <ele>495.2</ele>
        <time>2021-08-03T16:35:27Z</time>
      </trkpt>
      <trkpt lat="45.67676" lon="3.16042">
        <ele>494.4</ele>
        <time>2021-08-03T16:35:29Z</time>
      </trkpt>
      <trkpt lat="45.67675" lon="3.16045">
        <ele>494.1</ele>
        <time>2021-08-03T16:35:31Z</time>
      </trkpt>
      <trkpt lat="45.67677" lon="3.16056">
        <ele>494.6</ele>
        <time>2021-08-03T16:35:33Z</time>
      </trkpt>
      <trkpt lat="45.67677" lon="3.16068">
        <ele>494.3</ele>
        <time>2021-08-03T16:35:35Z</time>
      </trkpt>
      <trkpt lat="45.67675" lon="3.16082">
        <ele>493.4</ele>
        <time>2021-08-03T16:35:37Z</time>
      </trkpt>
      <trkpt lat="45.67671" lon="3.16098">
        <ele>491.9</ele>
        <time>2021-08-03T16:35:39Z</time>
      </trkpt>
      <trkpt lat="45.67666" lon="3.16116">
        <ele>490</ele>
        <time>2021-08-03T16:35:41Z</time>
      </trkpt>
      <trkpt lat="45.67663" lon="3.16133">
        <ele>488.9</ele>
        <time>2021-08-03T16:35:43Z</time>
      </trkpt>
      <trkpt lat="45.6766" lon="3.1615">
        <ele>487.7</ele>
        <time>2021-08-03T16:35:45Z</time>
      </trkpt>
      <trkpt lat="45.67657" lon="3.1617">
        <ele>486.4</ele>
        <time>2021-08-03T16:35:47Z</time>
      </trkpt>
      <trkpt lat="45.6765" lon="3.16187">
        <ele>484.1</ele>
        <time>2021-08-03T16:35:49Z</time>
      </trkpt>
      <trkpt lat="45.67642" lon="3.16202">
        <ele>481.7</ele>
        <time>2021-08-03T16:35:51Z</time>
      </trkpt>
      <trkpt lat="45.67631" lon="3.16218">
        <ele>479.1</ele>
        <time>2021-08-03T16:35:53Z</time>
      </trkpt>
      <trkpt lat="45.6762" lon="3.16233">
        <ele>477</ele>
        <time>2021-08-03T16:35:55Z</time>
      </trkpt>
      <trkpt lat="45.67609" lon="3.16247">
        <ele>475.3</ele>
        <time>2021-08-03T16:35:57Z</time>
      </trkpt>
      <trkpt lat="45.67597" lon="3.16261">
        <ele>473.2</ele>
        <time>2021-08-03T16:35:59Z</time>
      </trkpt>
      <trkpt lat="45.67585" lon="3.16274">
        <ele>471.1</ele>
        <time>2021-08-03T16:36:01Z</time>
      </trkpt>
      <trkpt lat="45.67572" lon="3.16287">
        <ele>468.5</ele>
        <time>2021-08-03T16:36:03Z</time>
      </trkpt>
      <trkpt lat="45.67558" lon="3.163">
        <ele>465.8</ele>
        <time>2021-08-03T16:36:05Z</time>
      </trkpt>
      <trkpt lat="45.67542" lon="3.16316">
        <ele>463</ele>
        <time>2021-08-03T16:36:07Z</time>
      </trkpt>
      <trkpt lat="45.67526" lon="3.1633">
        <ele>460.5</ele>
        <time>2021-08-03T16:36:09Z</time>
      </trkpt>
      <trkpt lat="45.67509" lon="3.16346">
        <ele>457.2</ele>
        <time>2021-08-03T16:36:11Z</time>
      </trkpt>
      <trkpt lat="45.67494" lon="3.1636">
        <ele>454.2</ele>
        <time>2021-08-03T16:36:13Z</time>
      </trkpt>
      <trkpt lat="45.6748" lon="3.16372">
        <ele>451.4</ele>
        <time>2021-08-03T16:36:15Z</time>
      </trkpt>
      <trkpt lat="45.67467" lon="3.16382">
        <ele>449.1</ele>
        <time>2021-08-03T16:36:17Z</time>
      </trkpt>
      <trkpt lat="45.67456" lon="3.16391">
        <ele>447</ele>
        <time>2021-08-03T16:36:19Z</time>
      </trkpt>
      <trkpt lat="45.67446" lon="3.164">
        <ele>445.3</ele>
        <time>2021-08-03T16:36:21Z</time>
      </trkpt>
      <trkpt lat="45.67437" lon="3.16409">
        <ele>443.7</ele>
        <time>2021-08-03T16:36:23Z</time>
      </trkpt>
      <trkpt lat="45.67429" lon="3.16415">
        <ele>442.5</ele>
        <time>2021-08-03T16:36:25Z</time>
      </trkpt>
      <trkpt lat="45.67421" lon="3.16424">
        <ele>441</ele>
        <time>2021-08-03T16:36:27Z</time>
      </trkpt>
      <trkpt lat="45.67414" lon="3.16431">
        <ele>439.5</ele>
        <time>2021-08-03T16:36:29Z</time>
      </trkpt>
      <trkpt lat="45.67407" lon="3.16438">
        <ele>437.8</ele>
        <time>2021-08-03T16:36:31Z</time>
      </trkpt>
      <trkpt lat="45.67402" lon="3.16444">
        <ele>436.4</ele>
        <time>2021-08-03T16:36:33Z</time>
      </trkpt>
      <trkpt lat="45.67396" lon="3.1645">
        <ele>435.1</ele>
        <time>2021-08-03T16:36:35Z</time>
      </trkpt>
      <trkpt lat="45.6739" lon="3.16457">
        <ele>433.7</ele>
        <time>2021-08-03T16:36:37Z</time>
      </trkpt>
      <trkpt lat="45.67386" lon="3.16461">
        <ele>432.6</ele>
        <time>2021-08-03T16:36:39Z</time>
      </trkpt>
      <trkpt lat="45.67386" lon="3.16461">
        <ele>432.6</ele>
        <time>2021-08-03T16:36:41Z</time>
      </trkpt>
      <trkpt lat="45.67386" lon="3.16461">
        <ele>432.7</ele>
        <time>2021-08-03T16:36:43Z</time>
      </trkpt>
      <trkpt lat="45.67385" lon="3.16463">
        <ele>432.5</ele>
        <time>2021-08-03T16:36:45Z</time>
      </trkpt>
      <trkpt lat="45.67382" lon="3.16467">
        <ele>431.7</ele>
        <time>2021-08-03T16:36:47Z</time>
      </trkpt>
      <trkpt lat="45.67378" lon="3.16473">
        <ele>430.8</ele>
        <time>2021-08-03T16:36:49Z</time>
      </trkpt>
      <trkpt lat="45.67373" lon="3.16477">
        <ele>429.9</ele>
        <time>2021-08-03T16:36:51Z</time>
      </trkpt>
      <trkpt lat="45.67369" lon="3.16481">
        <ele>429</ele>
        <time>2021-08-03T16:36:53Z</time>
      </trkpt>
      <trkpt lat="45.67367" lon="3.16485">
        <ele>428.6</ele>
        <time>2021-08-03T16:36:55Z</time>
      </trkpt>
      <trkpt lat="45.67366" lon="3.16488">
        <ele>428.3</ele>
        <time>2021-08-03T16:36:57Z</time>
      </trkpt>
      <trkpt lat="45.67364" lon="3.16495">
        <ele>427.6</ele>
        <time>2021-08-03T16:36:59Z</time>
      </trkpt>
      <trkpt lat="45.67359" lon="3.16503">
        <ele>426.4</ele>
        <time>2021-08-03T16:37:01Z</time>
      </trkpt>
      <trkpt lat="45.67354" lon="3.16512">
        <ele>424.9</ele>
        <time>2021-08-03T16:37:03Z</time>
      </trkpt>
      <trkpt lat="45.67348" lon="3.16522">
        <ele>423.2</ele>
        <time>2021-08-03T16:37:05Z</time>
      </trkpt>
      <trkpt lat="45.67343" lon="3.16534">
        <ele>421.4</ele>
        <time>2021-08-03T16:37:07Z</time>
      </trkpt>
      <trkpt lat="45.67341" lon="3.16547">
        <ele>420.1</ele>
        <time>2021-08-03T16:37:09Z</time>
      </trkpt>
      <trkpt lat="45.67345" lon="3.1656">
        <ele>419.5</ele>
        <time>2021-08-03T16:37:11Z</time>
      </trkpt>
      <trkpt lat="45.67352" lon="3.16567">
        <ele>419.9</ele>
        <time>2021-08-03T16:37:13Z</time>
      </trkpt>
      <trkpt lat="45.67363" lon="3.16574">
        <ele>420.7</ele>
        <time>2021-08-03T16:37:15Z</time>
      </trkpt>
      <trkpt lat="45.67374" lon="3.16584">
        <ele>421.2</ele>
        <time>2021-08-03T16:37:17Z</time>
      </trkpt>
      <trkpt lat="45.67386" lon="3.16593">
        <ele>421.4</ele>
        <time>2021-08-03T16:37:19Z</time>
      </trkpt>
      <trkpt lat="45.67396" lon="3.16602">
        <ele>421.4</ele>
        <time>2021-08-03T16:37:21Z</time>
      </trkpt>
      <trkpt lat="45.67407" lon="3.1661">
        <ele>421.4</ele>
        <time>2021-08-03T16:37:23Z</time>
      </trkpt>
      <trkpt lat="45.67417" lon="3.16618">
        <ele>421.2</ele>
        <time>2021-08-03T16:37:25Z</time>
      </trkpt>
      <trkpt lat="45.67428" lon="3.16625">
        <ele>420.8</ele>
        <time>2021-08-03T16:37:27Z</time>
      </trkpt>
      <trkpt lat="45.67436" lon="3.1663">
        <ele>420.6</ele>
        <time>2021-08-03T16:37:29Z</time>
      </trkpt>
      <trkpt lat="45.67441" lon="3.16636">
        <ele>419.6</ele>
        <time>2021-08-03T16:37:31Z</time>
      </trkpt>
      <trkpt lat="45.67443" lon="3.16644">
        <ele>418.3</ele>
        <time>2021-08-03T16:37:33Z</time>
      </trkpt>
      <trkpt lat="45.67443" lon="3.16651">
        <ele>417</ele>
        <time>2021-08-03T16:37:35Z</time>
      </trkpt>
      <trkpt lat="45.67442" lon="3.1666">
        <ele>415.5</ele>
        <time>2021-08-03T16:37:37Z</time>
      </trkpt>
      <trkpt lat="45.67439" lon="3.1667">
        <ele>413.5</ele>
        <time>2021-08-03T16:37:39Z</time>
      </trkpt>
      <trkpt lat="45.67437" lon="3.16681">
        <ele>411.4</ele>
        <time>2021-08-03T16:37:41Z</time>
      </trkpt>
      <trkpt lat="45.67435" lon="3.16693">
        <ele>409.1</ele>
        <time>2021-08-03T16:37:43Z</time>
      </trkpt>
      <trkpt lat="45.67432" lon="3.16706">
        <ele>406.8</ele>
        <time>2021-08-03T16:37:45Z</time>
      </trkpt>
      <trkpt lat="45.6743" lon="3.16716">
        <ele>404.9</ele>
        <time>2021-08-03T16:37:47Z</time>
      </trkpt>
      <trkpt lat="45.67428" lon="3.16726">
        <ele>403.1</ele>
        <time>2021-08-03T16:37:49Z</time>
      </trkpt>
      <trkpt lat="45.67427" lon="3.16734">
        <ele>401.4</ele>
        <time>2021-08-03T16:37:51Z</time>
      </trkpt>
      <trkpt lat="45.67425" lon="3.16741">
        <ele>400.1</ele>
        <time>2021-08-03T16:37:53Z</time>
      </trkpt>
      <trkpt lat="45.67423" lon="3.16747">
        <ele>398.8</ele>
        <time>2021-08-03T16:37:55Z</time>
      </trkpt>
      <trkpt lat="45.67421" lon="3.16752">
        <ele>397.9</ele>
        <time>2021-08-03T16:37:57Z</time>
      </trkpt>
      <trkpt lat="45.6742" lon="3.16757">
        <ele>397.4</ele>
        <time>2021-08-03T16:37:59Z</time>
      </trkpt>
      <trkpt lat="45.6742" lon="3.16756">
        <ele>397.5</ele>
        <time>2021-08-03T16:38:01Z</time>
      </trkpt>
      <trkpt lat="45.6742" lon="3.16756">
        <ele>397.5</ele>
        <time>2021-08-03T16:38:03Z</time>
      </trkpt>
      <trkpt lat="45.67421" lon="3.16757">
        <ele>397.4</ele>
        <time>2021-08-03T16:38:05Z</time>
      </trkpt>
      <trkpt lat="45.6742" lon="3.16757">
        <ele>397.4</ele>
        <time>2021-08-03T16:38:07Z</time>
      </trkpt>
      <trkpt lat="45.67418" lon="3.16776">
        <ele>394.9</ele>
        <time>2021-08-03T16:38:39Z</time>
      </trkpt>
      <trkpt lat="45.67418" lon="3.1678">
        <ele>394.5</ele>
        <time>2021-08-03T16:38:41Z</time>
      </trkpt>
      <trkpt lat="45.67417" lon="3.16783">
        <ele>394</ele>
        <time>2021-08-03T16:38:43Z</time>
      </trkpt>
      <trkpt lat="45.67416" lon="3.16786">
        <ele>393.6</ele>
        <time>2021-08-03T16:38:45Z</time>
      </trkpt>
      <trkpt lat="45.67416" lon="3.1679">
        <ele>393.1</ele>
        <time>2021-08-03T16:38:47Z</time>
      </trkpt>
      <trkpt lat="45.67415" lon="3.16793">
        <ele>392.7</ele>
        <time>2021-08-03T16:38:49Z</time>
      </trkpt>
      <trkpt lat="45.67415" lon="3.16797">
        <ele>392.3</ele>
        <time>2021-08-03T16:38:51Z</time>
      </trkpt>
      <trkpt lat="45.67414" lon="3.168">
        <ele>391.9</ele>
        <time>2021-08-03T16:38:53Z</time>
      </trkpt>
      <trkpt lat="45.67414" lon="3.16803">
        <ele>391.4</ele>
        <time>2021-08-03T16:38:55Z</time>
      </trkpt>
      <trkpt lat="45.67414" lon="3.16807">
        <ele>391</ele>
        <time>2021-08-03T16:38:57Z</time>
      </trkpt>
      <trkpt lat="45.67413" lon="3.16809">
        <ele>390.6</ele>
        <time>2021-08-03T16:38:59Z</time>
      </trkpt>
      <trkpt lat="45.67413" lon="3.16812">
        <ele>390.3</ele>
        <time>2021-08-03T16:39:01Z</time>
      </trkpt>
      <trkpt lat="45.67412" lon="3.16814">
        <ele>390</ele>
        <time>2021-08-03T16:39:03Z</time>
      </trkpt>
      <trkpt lat="45.67412" lon="3.16813">
        <ele>390.1</ele>
        <time>2021-08-03T16:39:05Z</time>
      </trkpt>
      <trkpt lat="45.67412" lon="3.16813">
        <ele>390.1</ele>
        <time>2021-08-03T16:39:07Z</time>
      </trkpt>
      <trkpt lat="45.67411" lon="3.16813">
        <ele>390.1</ele>
        <time>2021-08-03T16:39:09Z</time>
      </trkpt>
      <trkpt lat="45.67414" lon="3.16839">
        <ele>387.1</ele>
        <time>2021-08-03T16:40:53Z</time>
      </trkpt>
      <trkpt lat="45.67414" lon="3.16841">
        <ele>387</ele>
        <time>2021-08-03T16:40:55Z</time>
      </trkpt>
      <trkpt lat="45.67414" lon="3.1684">
        <ele>387.1</ele>
        <time>2021-08-03T16:40:57Z</time>
      </trkpt>
      <trkpt lat="45.67416" lon="3.16843">
        <ele>386.9</ele>
        <time>2021-08-03T16:40:59Z</time>
      </trkpt>
      <trkpt lat="45.6742" lon="3.16845">
        <ele>387</ele>
        <time>2021-08-03T16:41:01Z</time>
      </trkpt>
      <trkpt lat="45.67422" lon="3.16848">
        <ele>386.8</ele>
        <time>2021-08-03T16:41:03Z</time>
      </trkpt>
      <trkpt lat="45.67423" lon="3.16851">
        <ele>386.6</ele>
        <time>2021-08-03T16:41:05Z</time>
      </trkpt>
      <trkpt lat="45.67426" lon="3.16854">
        <ele>386.5</ele>
        <time>2021-08-03T16:41:07Z</time>
      </trkpt>
      <trkpt lat="45.67428" lon="3.16858">
        <ele>386.2</ele>
        <time>2021-08-03T16:41:09Z</time>
      </trkpt>
      <trkpt lat="45.67429" lon="3.16862">
        <ele>386</ele>
        <time>2021-08-03T16:41:11Z</time>
      </trkpt>
      <trkpt lat="45.6743" lon="3.16869">
        <ele>385.4</ele>
        <time>2021-08-03T16:41:13Z</time>
      </trkpt>
      <trkpt lat="45.67432" lon="3.16876">
        <ele>384.9</ele>
        <time>2021-08-03T16:41:15Z</time>
      </trkpt>
      <trkpt lat="45.67435" lon="3.16884">
        <ele>384.4</ele>
        <time>2021-08-03T16:41:17Z</time>
      </trkpt>
      <trkpt lat="45.67435" lon="3.16889">
        <ele>384</ele>
        <time>2021-08-03T16:41:19Z</time>
      </trkpt>
      <trkpt lat="45.67435" lon="3.16894">
        <ele>383.5</ele>
        <time>2021-08-03T16:41:21Z</time>
      </trkpt>
      <trkpt lat="45.67434" lon="3.16899">
        <ele>382.8</ele>
        <time>2021-08-03T16:41:23Z</time>
      </trkpt>
      <trkpt lat="45.67434" lon="3.169">
        <ele>382.8</ele>
        <time>2021-08-03T16:41:25Z</time>
      </trkpt>
      <trkpt lat="45.67434" lon="3.169">
        <ele>382.8</ele>
        <time>2021-08-03T16:41:27Z</time>
      </trkpt>
      <trkpt lat="45.67434" lon="3.169">
        <ele>382.8</ele>
        <time>2021-08-03T16:41:29Z</time>
      </trkpt>
      <trkpt lat="45.67433" lon="3.169">
        <ele>382.8</ele>
        <time>2021-08-03T16:41:31Z</time>
      </trkpt>
      <trkpt lat="45.67433" lon="3.169">
        <ele>382.8</ele>
        <time>2021-08-03T16:41:33Z</time>
      </trkpt>
      <trkpt lat="45.67439" lon="3.16893">
        <ele>384.1</ele>
        <time>2021-08-03T16:44:41Z</time>
      </trkpt>
      <trkpt lat="45.67438" lon="3.16888">
        <ele>384.4</ele>
        <time>2021-08-03T16:44:43Z</time>
      </trkpt>
      <trkpt lat="45.67437" lon="3.16882">
        <ele>384.8</ele>
        <time>2021-08-03T16:44:45Z</time>
      </trkpt>
      <trkpt lat="45.67435" lon="3.16878">
        <ele>385</ele>
        <time>2021-08-03T16:44:47Z</time>
      </trkpt>
      <trkpt lat="45.67435" lon="3.16873">
        <ele>385.4</ele>
        <time>2021-08-03T16:44:49Z</time>
      </trkpt>
      <trkpt lat="45.67434" lon="3.16869">
        <ele>385.7</ele>
        <time>2021-08-03T16:44:51Z</time>
      </trkpt>
      <trkpt lat="45.67433" lon="3.16865">
        <ele>386</ele>
        <time>2021-08-03T16:44:53Z</time>
      </trkpt>
      <trkpt lat="45.67431" lon="3.1686">
        <ele>386.3</ele>
        <time>2021-08-03T16:44:55Z</time>
      </trkpt>
      <trkpt lat="45.67429" lon="3.16859">
        <ele>386.3</ele>
        <time>2021-08-03T16:44:57Z</time>
      </trkpt>
      <trkpt lat="45.67427" lon="3.16859">
        <ele>386.1</ele>
        <time>2021-08-03T16:44:59Z</time>
      </trkpt>
      <trkpt lat="45.67426" lon="3.1686">
        <ele>386</ele>
        <time>2021-08-03T16:45:01Z</time>
      </trkpt>
      <trkpt lat="45.67427" lon="3.1686">
        <ele>386</ele>
        <time>2021-08-03T16:45:03Z</time>
      </trkpt>
      <trkpt lat="45.67427" lon="3.1686">
        <ele>386</ele>
        <time>2021-08-03T16:45:05Z</time>
      </trkpt>
      <trkpt lat="45.67425" lon="3.16859">
        <ele>385.9</ele>
        <time>2021-08-03T16:45:07Z</time>
      </trkpt>
      <trkpt lat="45.67424" lon="3.16857">
        <ele>386</ele>
        <time>2021-08-03T16:45:09Z</time>
      </trkpt>
      <trkpt lat="45.67434" lon="3.16885">
        <ele>384.2</ele>
        <time>2021-08-03T16:53:51Z</time>
      </trkpt>
      <trkpt lat="45.67434" lon="3.16895">
        <ele>383.4</ele>
        <time>2021-08-03T16:53:53Z</time>
      </trkpt>
      <trkpt lat="45.67435" lon="3.16906">
        <ele>382.4</ele>
        <time>2021-08-03T16:53:55Z</time>
      </trkpt>
      <trkpt lat="45.67436" lon="3.16916">
        <ele>381.6</ele>
        <time>2021-08-03T16:53:57Z</time>
      </trkpt>
      <trkpt lat="45.67435" lon="3.16925">
        <ele>381</ele>
        <time>2021-08-03T16:53:59Z</time>
      </trkpt>
      <trkpt lat="45.67436" lon="3.16936">
        <ele>380.5</ele>
        <time>2021-08-03T16:54:01Z</time>
      </trkpt>
      <trkpt lat="45.67435" lon="3.16947">
        <ele>379.9</ele>
        <time>2021-08-03T16:54:03Z</time>
      </trkpt>
      <trkpt lat="45.67434" lon="3.16957">
        <ele>379.2</ele>
        <time>2021-08-03T16:54:05Z</time>
      </trkpt>
      <trkpt lat="45.67431" lon="3.16967">
        <ele>378.2</ele>
        <time>2021-08-03T16:54:07Z</time>
      </trkpt>
      <trkpt lat="45.67426" lon="3.16976">
        <ele>376.9</ele>
        <time>2021-08-03T16:54:09Z</time>
      </trkpt>
      <trkpt lat="45.67419" lon="3.16982">
        <ele>375.4</ele>
        <time>2021-08-03T16:54:11Z</time>
      </trkpt>
      <trkpt lat="45.67411" lon="3.16989">
        <ele>374.1</ele>
        <time>2021-08-03T16:54:13Z</time>
      </trkpt>
      <trkpt lat="45.67401" lon="3.16996">
        <ele>373</ele>
        <time>2021-08-03T16:54:15Z</time>
      </trkpt>
      <trkpt lat="45.67392" lon="3.17001">
        <ele>371.9</ele>
        <time>2021-08-03T16:54:17Z</time>
      </trkpt>
      <trkpt lat="45.67381" lon="3.17005">
        <ele>370.9</ele>
        <time>2021-08-03T16:54:19Z</time>
      </trkpt>
      <trkpt lat="45.6737" lon="3.17005">
        <ele>369.9</ele>
        <time>2021-08-03T16:54:21Z</time>
      </trkpt>
      <trkpt lat="45.67358" lon="3.16998">
        <ele>369.2</ele>
        <time>2021-08-03T16:54:23Z</time>
      </trkpt>
      <trkpt lat="45.67348" lon="3.16988">
        <ele>369.2</ele>
        <time>2021-08-03T16:54:25Z</time>
      </trkpt>
      <trkpt lat="45.67339" lon="3.16977">
        <ele>369.4</ele>
        <time>2021-08-03T16:54:27Z</time>
      </trkpt>
      <trkpt lat="45.6733" lon="3.16968">
        <ele>369.5</ele>
        <time>2021-08-03T16:54:29Z</time>
      </trkpt>
      <trkpt lat="45.67322" lon="3.1696">
        <ele>369.3</ele>
        <time>2021-08-03T16:54:31Z</time>
      </trkpt>
      <trkpt lat="45.67313" lon="3.16955">
        <ele>368.8</ele>
        <time>2021-08-03T16:54:33Z</time>
      </trkpt>
      <trkpt lat="45.67303" lon="3.1695">
        <ele>368.1</ele>
        <time>2021-08-03T16:54:35Z</time>
      </trkpt>
      <trkpt lat="45.67292" lon="3.16944">
        <ele>367.4</ele>
        <time>2021-08-03T16:54:37Z</time>
      </trkpt>
      <trkpt lat="45.6728" lon="3.16938">
        <ele>366.5</ele>
        <time>2021-08-03T16:54:39Z</time>
      </trkpt>
      <trkpt lat="45.6727" lon="3.16933">
        <ele>365.6</ele>
        <time>2021-08-03T16:54:41Z</time>
      </trkpt>
      <trkpt lat="45.67263" lon="3.1693">
        <ele>365</ele>
        <time>2021-08-03T16:54:43Z</time>
      </trkpt>
      <trkpt lat="45.67255" lon="3.16925">
        <ele>364.3</ele>
        <time>2021-08-03T16:54:45Z</time>
      </trkpt>
      <trkpt lat="45.67246" lon="3.16926">
        <ele>363.4</ele>
        <time>2021-08-03T16:54:47Z</time>
      </trkpt>
      <trkpt lat="45.67238" lon="3.16934">
        <ele>362.6</ele>
        <time>2021-08-03T16:54:49Z</time>
      </trkpt>
      <trkpt lat="45.6723" lon="3.16942">
        <ele>361.8</ele>
        <time>2021-08-03T16:54:51Z</time>
      </trkpt>
      <trkpt lat="45.67222" lon="3.16953">
        <ele>361</ele>
        <time>2021-08-03T16:54:53Z</time>
      </trkpt>
      <trkpt lat="45.67214" lon="3.16963">
        <ele>360.2</ele>
        <time>2021-08-03T16:54:55Z</time>
      </trkpt>
      <trkpt lat="45.67207" lon="3.16972">
        <ele>359.6</ele>
        <time>2021-08-03T16:54:57Z</time>
      </trkpt>
      <trkpt lat="45.672" lon="3.1698">
        <ele>359</ele>
        <time>2021-08-03T16:54:59Z</time>
      </trkpt>
      <trkpt lat="45.67194" lon="3.16987">
        <ele>358.6</ele>
        <time>2021-08-03T16:55:01Z</time>
      </trkpt>
      <trkpt lat="45.67189" lon="3.16993">
        <ele>358.2</ele>
        <time>2021-08-03T16:55:03Z</time>
      </trkpt>
      <trkpt lat="45.67186" lon="3.16996">
        <ele>358</ele>
        <time>2021-08-03T16:55:05Z</time>
      </trkpt>
      <trkpt lat="45.67183" lon="3.17001">
        <ele>357.8</ele>
        <time>2021-08-03T16:55:07Z</time>
      </trkpt>
      <trkpt lat="45.6718" lon="3.17008">
        <ele>357.6</ele>
        <time>2021-08-03T16:55:09Z</time>
      </trkpt>
      <trkpt lat="45.67177" lon="3.17016">
        <ele>357.5</ele>
        <time>2021-08-03T16:55:11Z</time>
      </trkpt>
      <trkpt lat="45.67173" lon="3.17025">
        <ele>357.3</ele>
        <time>2021-08-03T16:55:13Z</time>
      </trkpt>
      <trkpt lat="45.67168" lon="3.17034">
        <ele>357.1</ele>
        <time>2021-08-03T16:55:15Z</time>
      </trkpt>
      <trkpt lat="45.67163" lon="3.17044">
        <ele>356.9</ele>
        <time>2021-08-03T16:55:17Z</time>
      </trkpt>
      <trkpt lat="45.67159" lon="3.17055">
        <ele>356.9</ele>
        <time>2021-08-03T16:55:19Z</time>
      </trkpt>
      <trkpt lat="45.67153" lon="3.17065">
        <ele>356.8</ele>
        <time>2021-08-03T16:55:21Z</time>
      </trkpt>
      <trkpt lat="45.67147" lon="3.17077">
        <ele>356.7</ele>
        <time>2021-08-03T16:55:23Z</time>
      </trkpt>
      <trkpt lat="45.67142" lon="3.17088">
        <ele>356.7</ele>
        <time>2021-08-03T16:55:25Z</time>
      </trkpt>
      <trkpt lat="45.67136" lon="3.17096">
        <ele>356.7</ele>
        <time>2021-08-03T16:55:27Z</time>
      </trkpt>
      <trkpt lat="45.67128" lon="3.17101">
        <ele>356.5</ele>
        <time>2021-08-03T16:55:29Z</time>
      </trkpt>
      <trkpt lat="45.67119" lon="3.17103">
        <ele>356.4</ele>
        <time>2021-08-03T16:55:31Z</time>
      </trkpt>
      <trkpt lat="45.6711" lon="3.17105">
        <ele>356.2</ele>
        <time>2021-08-03T16:55:33Z</time>
      </trkpt>
      <trkpt lat="45.67102" lon="3.17108">
        <ele>356.1</ele>
        <time>2021-08-03T16:55:35Z</time>
      </trkpt>
      <trkpt lat="45.67094" lon="3.1711">
        <ele>355.9</ele>
        <time>2021-08-03T16:55:37Z</time>
      </trkpt>
      <trkpt lat="45.67086" lon="3.17111">
        <ele>355.7</ele>
        <time>2021-08-03T16:55:39Z</time>
      </trkpt>
      <trkpt lat="45.67077" lon="3.17114">
        <ele>355.7</ele>
        <time>2021-08-03T16:55:41Z</time>
      </trkpt>
      <trkpt lat="45.67071" lon="3.17117">
        <ele>355.7</ele>
        <time>2021-08-03T16:55:43Z</time>
      </trkpt>
      <trkpt lat="45.67068" lon="3.17124">
        <ele>355.7</ele>
        <time>2021-08-03T16:55:45Z</time>
      </trkpt>
      <trkpt lat="45.67068" lon="3.17133">
        <ele>355.6</ele>
        <time>2021-08-03T16:55:47Z</time>
      </trkpt>
      <trkpt lat="45.67071" lon="3.1714">
        <ele>355.5</ele>
        <time>2021-08-03T16:55:49Z</time>
      </trkpt>
      <trkpt lat="45.67075" lon="3.17146">
        <ele>355.3</ele>
        <time>2021-08-03T16:55:51Z</time>
      </trkpt>
      <trkpt lat="45.67075" lon="3.17152">
        <ele>355.3</ele>
        <time>2021-08-03T16:55:53Z</time>
      </trkpt>
      <trkpt lat="45.67073" lon="3.17156">
        <ele>355.2</ele>
        <time>2021-08-03T16:55:55Z</time>
      </trkpt>
      <trkpt lat="45.67071" lon="3.1716">
        <ele>355.2</ele>
        <time>2021-08-03T16:55:57Z</time>
      </trkpt>
      <trkpt lat="45.6707" lon="3.17166">
        <ele>355.2</ele>
        <time>2021-08-03T16:55:59Z</time>
      </trkpt>
      <trkpt lat="45.67068" lon="3.17173">
        <ele>355.3</ele>
        <time>2021-08-03T16:56:01Z</time>
      </trkpt>
      <trkpt lat="45.67066" lon="3.17178">
        <ele>355.5</ele>
        <time>2021-08-03T16:56:03Z</time>
      </trkpt>
      <trkpt lat="45.67064" lon="3.17184">
        <ele>355.7</ele>
        <time>2021-08-03T16:56:05Z</time>
      </trkpt>
      <trkpt lat="45.67063" lon="3.17189">
        <ele>355.8</ele>
        <time>2021-08-03T16:56:07Z</time>
      </trkpt>
      <trkpt lat="45.67064" lon="3.17194">
        <ele>356</ele>
        <time>2021-08-03T16:56:09Z</time>
      </trkpt>
      <trkpt lat="45.67063" lon="3.17198">
        <ele>356.1</ele>
        <time>2021-08-03T16:56:11Z</time>
      </trkpt>
      <trkpt lat="45.67062" lon="3.17195">
        <ele>356</ele>
        <time>2021-08-03T16:56:13Z</time>
      </trkpt>
      <trkpt lat="45.67058" lon="3.17195">
        <ele>356.1</ele>
        <time>2021-08-03T16:56:15Z</time>
      </trkpt>
      <trkpt lat="45.67057" lon="3.17192">
        <ele>356</ele>
        <time>2021-08-03T16:56:17Z</time>
      </trkpt>
      <trkpt lat="45.67057" lon="3.1719">
        <ele>356</ele>
        <time>2021-08-03T16:56:19Z</time>
      </trkpt>
      <trkpt lat="45.67057" lon="3.17189">
        <ele>355.9</ele>
        <time>2021-08-03T16:56:21Z</time>
      </trkpt>
      <trkpt lat="45.67057" lon="3.17185">
        <ele>355.8</ele>
        <time>2021-08-03T16:56:23Z</time>
      </trkpt>
      <trkpt lat="45.67057" lon="3.17183">
        <ele>355.8</ele>
        <time>2021-08-03T16:56:25Z</time>
      </trkpt>
      <trkpt lat="45.67057" lon="3.1718">
        <ele>355.7</ele>
        <time>2021-08-03T16:56:27Z</time>
      </trkpt>
      <trkpt lat="45.67053" lon="3.1719">
        <ele>356</ele>
        <time>2021-08-03T17:37:51Z</time>
      </trkpt>
      <trkpt lat="45.67053" lon="3.17188">
        <ele>356</ele>
        <time>2021-08-03T17:37:53Z</time>
      </trkpt>
      <trkpt lat="45.67053" lon="3.17188">
        <ele>356</ele>
        <time>2021-08-03T17:37:57Z</time>
      </trkpt>
      <trkpt lat="45.67052" lon="3.17186">
        <ele>355.9</ele>
        <time>2021-08-03T17:37:59Z</time>
      </trkpt>
      <trkpt lat="45.67053" lon="3.17186">
        <ele>355.9</ele>
        <time>2021-08-03T17:38:01Z</time>
      </trkpt>
      <trkpt lat="45.67056" lon="3.17185">
        <ele>355.8</ele>
        <time>2021-08-03T17:38:03Z</time>
      </trkpt>
      <trkpt lat="45.67059" lon="3.17188">
        <ele>355.9</ele>
        <time>2021-08-03T17:38:05Z</time>
      </trkpt>
      <trkpt lat="45.67064" lon="3.17192">
        <ele>355.9</ele>
        <time>2021-08-03T17:38:07Z</time>
      </trkpt>
      <trkpt lat="45.67068" lon="3.17196">
        <ele>356</ele>
        <time>2021-08-03T17:38:09Z</time>
      </trkpt>
      <trkpt lat="45.67073" lon="3.17197">
        <ele>355.9</ele>
        <time>2021-08-03T17:38:11Z</time>
      </trkpt>
      <trkpt lat="45.67074" lon="3.17195">
        <ele>355.8</ele>
        <time>2021-08-03T17:38:13Z</time>
      </trkpt>
      <trkpt lat="45.67075" lon="3.17195">
        <ele>355.8</ele>
        <time>2021-08-03T17:38:15Z</time>
      </trkpt>
      <trkpt lat="45.67075" lon="3.17196">
        <ele>355.8</ele>
        <time>2021-08-03T17:38:17Z</time>
      </trkpt>
      <trkpt lat="45.67077" lon="3.17197">
        <ele>355.8</ele>
        <time>2021-08-03T17:38:19Z</time>
      </trkpt>
      <trkpt lat="45.67077" lon="3.17195">
        <ele>355.8</ele>
        <time>2021-08-03T17:38:25Z</time>
      </trkpt>
      <trkpt lat="45.67078" lon="3.17195">
        <ele>355.8</ele>
        <time>2021-08-03T17:38:27Z</time>
      </trkpt>
      <trkpt lat="45.67077" lon="3.17194">
        <ele>355.8</ele>
        <time>2021-08-03T17:38:29Z</time>
      </trkpt>
      <trkpt lat="45.67079" lon="3.17196">
        <ele>355.8</ele>
        <time>2021-08-03T17:38:31Z</time>
      </trkpt>
      <trkpt lat="45.67078" lon="3.17196">
        <ele>355.8</ele>
        <time>2021-08-03T17:38:33Z</time>
      </trkpt>
      <trkpt lat="45.67072" lon="3.17193">
        <ele>355.8</ele>
        <time>2021-08-03T17:38:35Z</time>
      </trkpt>
      <trkpt lat="45.67065" lon="3.17195">
        <ele>356</ele>
        <time>2021-08-03T17:38:37Z</time>
      </trkpt>
      <trkpt lat="45.6706" lon="3.17197">
        <ele>356.1</ele>
        <time>2021-08-03T17:38:39Z</time>
      </trkpt>
      <trkpt lat="45.67058" lon="3.172">
        <ele>356.2</ele>
        <time>2021-08-03T17:38:41Z</time>
      </trkpt>
      <trkpt lat="45.67056" lon="3.17199">
        <ele>356.2</ele>
        <time>2021-08-03T17:38:43Z</time>
      </trkpt>
      <trkpt lat="45.67054" lon="3.17199">
        <ele>356.3</ele>
        <time>2021-08-03T17:38:45Z</time>
      </trkpt>
      <trkpt lat="45.67053" lon="3.17199">
        <ele>356.3</ele>
        <time>2021-08-03T17:38:47Z</time>
      </trkpt>
      <trkpt lat="45.6705" lon="3.17196">
        <ele>356.3</ele>
        <time>2021-08-03T17:38:49Z</time>
      </trkpt>
      <trkpt lat="45.6705" lon="3.17195">
        <ele>356.2</ele>
        <time>2021-08-03T17:38:51Z</time>
      </trkpt>
      <trkpt lat="45.6705" lon="3.17193">
        <ele>356.2</ele>
        <time>2021-08-03T17:38:53Z</time>
      </trkpt>
      <trkpt lat="45.67062" lon="3.17187">
        <ele>355.8</ele>
        <time>2021-08-03T17:42:13Z</time>
      </trkpt>
      <trkpt lat="45.67064" lon="3.17191">
        <ele>355.9</ele>
        <time>2021-08-03T17:42:15Z</time>
      </trkpt>
      <trkpt lat="45.67067" lon="3.17194">
        <ele>355.9</ele>
        <time>2021-08-03T17:42:17Z</time>
      </trkpt>
      <trkpt lat="45.67071" lon="3.17197">
        <ele>355.9</ele>
        <time>2021-08-03T17:42:19Z</time>
      </trkpt>
      <trkpt lat="45.67075" lon="3.17199">
        <ele>355.9</ele>
        <time>2021-08-03T17:42:21Z</time>
      </trkpt>
      <trkpt lat="45.6708" lon="3.17201">
        <ele>355.9</ele>
        <time>2021-08-03T17:42:23Z</time>
      </trkpt>
      <trkpt lat="45.67085" lon="3.17202">
        <ele>355.9</ele>
        <time>2021-08-03T17:42:25Z</time>
      </trkpt>
      <trkpt lat="45.6709" lon="3.17197">
        <ele>355.9</ele>
        <time>2021-08-03T17:42:27Z</time>
      </trkpt>
      <trkpt lat="45.67093" lon="3.17191">
        <ele>355.9</ele>
        <time>2021-08-03T17:42:29Z</time>
      </trkpt>
      <trkpt lat="45.67097" lon="3.17187">
        <ele>355.9</ele>
        <time>2021-08-03T17:42:31Z</time>
      </trkpt>
      <trkpt lat="45.67101" lon="3.17186">
        <ele>356</ele>
        <time>2021-08-03T17:42:33Z</time>
      </trkpt>
      <trkpt lat="45.67105" lon="3.17191">
        <ele>356.2</ele>
        <time>2021-08-03T17:42:35Z</time>
      </trkpt>
      <trkpt lat="45.67107" lon="3.17196">
        <ele>356.4</ele>
        <time>2021-08-03T17:42:37Z</time>
      </trkpt>
      <trkpt lat="45.67108" lon="3.17202">
        <ele>356.5</ele>
        <time>2021-08-03T17:42:39Z</time>
      </trkpt>
      <trkpt lat="45.67107" lon="3.1721">
        <ele>356.6</ele>
        <time>2021-08-03T17:42:41Z</time>
      </trkpt>
      <trkpt lat="45.67106" lon="3.17217">
        <ele>356.7</ele>
        <time>2021-08-03T17:42:43Z</time>
      </trkpt>
      <trkpt lat="45.67105" lon="3.17225">
        <ele>356.8</ele>
        <time>2021-08-03T17:42:45Z</time>
      </trkpt>
      <trkpt lat="45.67105" lon="3.17232">
        <ele>356.9</ele>
        <time>2021-08-03T17:42:47Z</time>
      </trkpt>
      <trkpt lat="45.67104" lon="3.1724">
        <ele>357.1</ele>
        <time>2021-08-03T17:42:49Z</time>
      </trkpt>
      <trkpt lat="45.67103" lon="3.17248">
        <ele>357.2</ele>
        <time>2021-08-03T17:42:51Z</time>
      </trkpt>
      <trkpt lat="45.67102" lon="3.17255">
        <ele>357.6</ele>
        <time>2021-08-03T17:42:53Z</time>
      </trkpt>
      <trkpt lat="45.671" lon="3.17262">
        <ele>358.1</ele>
        <time>2021-08-03T17:42:55Z</time>
      </trkpt>
      <trkpt lat="45.67099" lon="3.17269">
        <ele>358.6</ele>
        <time>2021-08-03T17:42:57Z</time>
      </trkpt>
      <trkpt lat="45.67097" lon="3.17275">
        <ele>359.1</ele>
        <time>2021-08-03T17:42:59Z</time>
      </trkpt>
      <trkpt lat="45.67096" lon="3.17281">
        <ele>359.6</ele>
        <time>2021-08-03T17:43:01Z</time>
      </trkpt>
      <trkpt lat="45.67094" lon="3.17288">
        <ele>360.1</ele>
        <time>2021-08-03T17:43:03Z</time>
      </trkpt>
      <trkpt lat="45.67093" lon="3.17294">
        <ele>360.5</ele>
        <time>2021-08-03T17:43:05Z</time>
      </trkpt>
      <trkpt lat="45.67091" lon="3.17299">
        <ele>361</ele>
        <time>2021-08-03T17:43:07Z</time>
      </trkpt>
      <trkpt lat="45.6709" lon="3.17305">
        <ele>361.5</ele>
        <time>2021-08-03T17:43:09Z</time>
      </trkpt>
      <trkpt lat="45.67091" lon="3.17311">
        <ele>362</ele>
        <time>2021-08-03T17:43:11Z</time>
      </trkpt>
      <trkpt lat="45.67092" lon="3.17316">
        <ele>362.4</ele>
        <time>2021-08-03T17:43:13Z</time>
      </trkpt>
      <trkpt lat="45.67094" lon="3.17322">
        <ele>362.7</ele>
        <time>2021-08-03T17:43:15Z</time>
      </trkpt>
      <trkpt lat="45.67096" lon="3.17326">
        <ele>363</ele>
        <time>2021-08-03T17:43:17Z</time>
      </trkpt>
      <trkpt lat="45.67098" lon="3.1733">
        <ele>363.2</ele>
        <time>2021-08-03T17:43:19Z</time>
      </trkpt>
      <trkpt lat="45.671" lon="3.17333">
        <ele>363.4</ele>
        <time>2021-08-03T17:43:21Z</time>
      </trkpt>
      <trkpt lat="45.67101" lon="3.17334">
        <ele>363.5</ele>
        <time>2021-08-03T17:43:23Z</time>
      </trkpt>
      <trkpt lat="45.67103" lon="3.17337">
        <ele>363.7</ele>
        <time>2021-08-03T17:43:25Z</time>
      </trkpt>
      <trkpt lat="45.67105" lon="3.17341">
        <ele>364</ele>
        <time>2021-08-03T17:43:27Z</time>
      </trkpt>
      <trkpt lat="45.67106" lon="3.17346">
        <ele>364.4</ele>
        <time>2021-08-03T17:43:29Z</time>
      </trkpt>
      <trkpt lat="45.67107" lon="3.17349">
        <ele>364.7</ele>
        <time>2021-08-03T17:43:31Z</time>
      </trkpt>
      <trkpt lat="45.67108" lon="3.17353">
        <ele>365.1</ele>
        <time>2021-08-03T17:43:33Z</time>
      </trkpt>
      <trkpt lat="45.67109" lon="3.17358">
        <ele>365.4</ele>
        <time>2021-08-03T17:43:35Z</time>
      </trkpt>
      <trkpt lat="45.6711" lon="3.17362">
        <ele>365.8</ele>
        <time>2021-08-03T17:43:37Z</time>
      </trkpt>
      <trkpt lat="45.6711" lon="3.17366">
        <ele>366.2</ele>
        <time>2021-08-03T17:43:39Z</time>
      </trkpt>
      <trkpt lat="45.67111" lon="3.1737">
        <ele>366.6</ele>
        <time>2021-08-03T17:43:41Z</time>
      </trkpt>
      <trkpt lat="45.67111" lon="3.17374">
        <ele>366.9</ele>
        <time>2021-08-03T17:43:43Z</time>
      </trkpt>
      <trkpt lat="45.67112" lon="3.17379">
        <ele>367.4</ele>
        <time>2021-08-03T17:43:45Z</time>
      </trkpt>
      <trkpt lat="45.67113" lon="3.17384">
        <ele>367.7</ele>
        <time>2021-08-03T17:43:47Z</time>
      </trkpt>
      <trkpt lat="45.67114" lon="3.17388">
        <ele>368.1</ele>
        <time>2021-08-03T17:43:49Z</time>
      </trkpt>
      <trkpt lat="45.67114" lon="3.17392">
        <ele>368.4</ele>
        <time>2021-08-03T17:43:51Z</time>
      </trkpt>
      <trkpt lat="45.67115" lon="3.17395">
        <ele>368.7</ele>
        <time>2021-08-03T17:43:53Z</time>
      </trkpt>
      <trkpt lat="45.67115" lon="3.17399">
        <ele>369</ele>
        <time>2021-08-03T17:43:55Z</time>
      </trkpt>
      <trkpt lat="45.67115" lon="3.17403">
        <ele>369.4</ele>
        <time>2021-08-03T17:43:57Z</time>
      </trkpt>
      <trkpt lat="45.67116" lon="3.17406">
        <ele>369.7</ele>
        <time>2021-08-03T17:43:59Z</time>
      </trkpt>
      <trkpt lat="45.67116" lon="3.1741">
        <ele>370</ele>
        <time>2021-08-03T17:44:01Z</time>
      </trkpt>
      <trkpt lat="45.67117" lon="3.17413">
        <ele>370.2</ele>
        <time>2021-08-03T17:44:03Z</time>
      </trkpt>
      <trkpt lat="45.67118" lon="3.17417">
        <ele>370.5</ele>
        <time>2021-08-03T17:44:05Z</time>
      </trkpt>
      <trkpt lat="45.67118" lon="3.1742">
        <ele>371</ele>
        <time>2021-08-03T17:44:07Z</time>
      </trkpt>
      <trkpt lat="45.67119" lon="3.17424">
        <ele>371.6</ele>
        <time>2021-08-03T17:44:09Z</time>
      </trkpt>
      <trkpt lat="45.6712" lon="3.17427">
        <ele>372</ele>
        <time>2021-08-03T17:44:11Z</time>
      </trkpt>
      <trkpt lat="45.67121" lon="3.17431">
        <ele>372.4</ele>
        <time>2021-08-03T17:44:13Z</time>
      </trkpt>
      <trkpt lat="45.67122" lon="3.17435">
        <ele>372.9</ele>
        <time>2021-08-03T17:44:15Z</time>
      </trkpt>
      <trkpt lat="45.67123" lon="3.17438">
        <ele>373.3</ele>
        <time>2021-08-03T17:44:17Z</time>
      </trkpt>
      <trkpt lat="45.67124" lon="3.17442">
        <ele>373.8</ele>
        <time>2021-08-03T17:44:19Z</time>
      </trkpt>
      <trkpt lat="45.67123" lon="3.17445">
        <ele>374.3</ele>
        <time>2021-08-03T17:44:21Z</time>
      </trkpt>
      <trkpt lat="45.67123" lon="3.17448">
        <ele>374.7</ele>
        <time>2021-08-03T17:44:23Z</time>
      </trkpt>
      <trkpt lat="45.67123" lon="3.17451">
        <ele>375.1</ele>
        <time>2021-08-03T17:44:25Z</time>
      </trkpt>
      <trkpt lat="45.67124" lon="3.17454">
        <ele>375.4</ele>
        <time>2021-08-03T17:44:27Z</time>
      </trkpt>
      <trkpt lat="45.67124" lon="3.17453">
        <ele>375.4</ele>
        <time>2021-08-03T17:44:29Z</time>
      </trkpt>
      <trkpt lat="45.67124" lon="3.17453">
        <ele>375.4</ele>
        <time>2021-08-03T17:44:31Z</time>
      </trkpt>
      <trkpt lat="45.67124" lon="3.17453">
        <ele>375.3</ele>
        <time>2021-08-03T17:44:33Z</time>
      </trkpt>
      <trkpt lat="45.67124" lon="3.17453">
        <ele>375.3</ele>
        <time>2021-08-03T17:44:35Z</time>
      </trkpt>
      <trkpt lat="45.67134" lon="3.17491">
        <ele>379.6</ele>
        <time>2021-08-03T17:45:13Z</time>
      </trkpt>
      <trkpt lat="45.67135" lon="3.17494">
        <ele>379.9</ele>
        <time>2021-08-03T17:45:15Z</time>
      </trkpt>
      <trkpt lat="45.67135" lon="3.17498">
        <ele>380.2</ele>
        <time>2021-08-03T17:45:17Z</time>
      </trkpt>
      <trkpt lat="45.67136" lon="3.17501">
        <ele>380.5</ele>
        <time>2021-08-03T17:45:19Z</time>
      </trkpt>
      <trkpt lat="45.67137" lon="3.17504">
        <ele>380.8</ele>
        <time>2021-08-03T17:45:21Z</time>
      </trkpt>
      <trkpt lat="45.67137" lon="3.17507">
        <ele>381.1</ele>
        <time>2021-08-03T17:45:23Z</time>
      </trkpt>
      <trkpt lat="45.67138" lon="3.1751">
        <ele>381.4</ele>
        <time>2021-08-03T17:45:25Z</time>
      </trkpt>
      <trkpt lat="45.67138" lon="3.17513">
        <ele>381.6</ele>
        <time>2021-08-03T17:45:27Z</time>
      </trkpt>
      <trkpt lat="45.67139" lon="3.17517">
        <ele>381.9</ele>
        <time>2021-08-03T17:45:29Z</time>
      </trkpt>
      <trkpt lat="45.67139" lon="3.17518">
        <ele>382.1</ele>
        <time>2021-08-03T17:45:31Z</time>
      </trkpt>
      <trkpt lat="45.67139" lon="3.17521">
        <ele>382.4</ele>
        <time>2021-08-03T17:45:33Z</time>
      </trkpt>
      <trkpt lat="45.67139" lon="3.17524">
        <ele>382.7</ele>
        <time>2021-08-03T17:45:35Z</time>
      </trkpt>
      <trkpt lat="45.6714" lon="3.17528">
        <ele>383</ele>
        <time>2021-08-03T17:45:37Z</time>
      </trkpt>
      <trkpt lat="45.67141" lon="3.17531">
        <ele>383.2</ele>
        <time>2021-08-03T17:45:39Z</time>
      </trkpt>
      <trkpt lat="45.67141" lon="3.17534">
        <ele>383.6</ele>
        <time>2021-08-03T17:45:41Z</time>
      </trkpt>
      <trkpt lat="45.67141" lon="3.17537">
        <ele>383.9</ele>
        <time>2021-08-03T17:45:43Z</time>
      </trkpt>
      <trkpt lat="45.67142" lon="3.1754">
        <ele>384.2</ele>
        <time>2021-08-03T17:45:45Z</time>
      </trkpt>
      <trkpt lat="45.67142" lon="3.17543">
        <ele>384.5</ele>
        <time>2021-08-03T17:45:47Z</time>
      </trkpt>
      <trkpt lat="45.67142" lon="3.17547">
        <ele>384.9</ele>
        <time>2021-08-03T17:45:49Z</time>
      </trkpt>
      <trkpt lat="45.67143" lon="3.1755">
        <ele>385.2</ele>
        <time>2021-08-03T17:45:51Z</time>
      </trkpt>
      <trkpt lat="45.67143" lon="3.17553">
        <ele>385.5</ele>
        <time>2021-08-03T17:45:53Z</time>
      </trkpt>
      <trkpt lat="45.67144" lon="3.17556">
        <ele>385.7</ele>
        <time>2021-08-03T17:45:55Z</time>
      </trkpt>
      <trkpt lat="45.67144" lon="3.17559">
        <ele>386</ele>
        <time>2021-08-03T17:45:57Z</time>
      </trkpt>
      <trkpt lat="45.67145" lon="3.17563">
        <ele>386.3</ele>
        <time>2021-08-03T17:45:59Z</time>
      </trkpt>
      <trkpt lat="45.67145" lon="3.17566">
        <ele>386.6</ele>
        <time>2021-08-03T17:46:01Z</time>
      </trkpt>
      <trkpt lat="45.67146" lon="3.17569">
        <ele>386.8</ele>
        <time>2021-08-03T17:46:03Z</time>
      </trkpt>
      <trkpt lat="45.67147" lon="3.17572">
        <ele>387</ele>
        <time>2021-08-03T17:46:05Z</time>
      </trkpt>
      <trkpt lat="45.67147" lon="3.17574">
        <ele>387.3</ele>
        <time>2021-08-03T17:46:07Z</time>
      </trkpt>
      <trkpt lat="45.67145" lon="3.17576">
        <ele>387.8</ele>
        <time>2021-08-03T17:46:09Z</time>
      </trkpt>
      <trkpt lat="45.67145" lon="3.17577">
        <ele>388</ele>
        <time>2021-08-03T17:46:11Z</time>
      </trkpt>
      <trkpt lat="45.67147" lon="3.17579">
        <ele>387.8</ele>
        <time>2021-08-03T17:46:13Z</time>
      </trkpt>
      <trkpt lat="45.67149" lon="3.17581">
        <ele>387.7</ele>
        <time>2021-08-03T17:46:15Z</time>
      </trkpt>
      <trkpt lat="45.6715" lon="3.17584">
        <ele>387.8</ele>
        <time>2021-08-03T17:46:17Z</time>
      </trkpt>
      <trkpt lat="45.6715" lon="3.17588">
        <ele>388.3</ele>
        <time>2021-08-03T17:46:19Z</time>
      </trkpt>
      <trkpt lat="45.67149" lon="3.17591">
        <ele>388.7</ele>
        <time>2021-08-03T17:46:21Z</time>
      </trkpt>
      <trkpt lat="45.67149" lon="3.17594">
        <ele>388.9</ele>
        <time>2021-08-03T17:46:23Z</time>
      </trkpt>
      <trkpt lat="45.67151" lon="3.17595">
        <ele>388.7</ele>
        <time>2021-08-03T17:46:25Z</time>
      </trkpt>
      <trkpt lat="45.67154" lon="3.17596">
        <ele>388.5</ele>
        <time>2021-08-03T17:46:27Z</time>
      </trkpt>
      <trkpt lat="45.67155" lon="3.17599">
        <ele>388.5</ele>
        <time>2021-08-03T17:46:29Z</time>
      </trkpt>
      <trkpt lat="45.67156" lon="3.17602">
        <ele>388.6</ele>
        <time>2021-08-03T17:46:31Z</time>
      </trkpt>
      <trkpt lat="45.67156" lon="3.17605">
        <ele>388.9</ele>
        <time>2021-08-03T17:46:33Z</time>
      </trkpt>
      <trkpt lat="45.67157" lon="3.17609">
        <ele>389</ele>
        <time>2021-08-03T17:46:35Z</time>
      </trkpt>
      <trkpt lat="45.67157" lon="3.17609">
        <ele>389</ele>
        <time>2021-08-03T17:46:37Z</time>
      </trkpt>
      <trkpt lat="45.67157" lon="3.17608">
        <ele>389</ele>
        <time>2021-08-03T17:46:39Z</time>
      </trkpt>
      <trkpt lat="45.67157" lon="3.17608">
        <ele>389</ele>
        <time>2021-08-03T17:46:41Z</time>
      </trkpt>
      <trkpt lat="45.67157" lon="3.17608">
        <ele>389</ele>
        <time>2021-08-03T17:46:43Z</time>
      </trkpt>
      <trkpt lat="45.67159" lon="3.17613">
        <ele>389.2</ele>
        <time>2021-08-03T17:46:47Z</time>
      </trkpt>
      <trkpt lat="45.6716" lon="3.17616">
        <ele>389.2</ele>
        <time>2021-08-03T17:46:49Z</time>
      </trkpt>
      <trkpt lat="45.67162" lon="3.1762">
        <ele>389.3</ele>
        <time>2021-08-03T17:46:51Z</time>
      </trkpt>
      <trkpt lat="45.67163" lon="3.17622">
        <ele>389.3</ele>
        <time>2021-08-03T17:46:53Z</time>
      </trkpt>
      <trkpt lat="45.67164" lon="3.17625">
        <ele>389.4</ele>
        <time>2021-08-03T17:46:55Z</time>
      </trkpt>
      <trkpt lat="45.67166" lon="3.17627">
        <ele>389.4</ele>
        <time>2021-08-03T17:46:57Z</time>
      </trkpt>
      <trkpt lat="45.67167" lon="3.17632">
        <ele>389.5</ele>
        <time>2021-08-03T17:46:59Z</time>
      </trkpt>
      <trkpt lat="45.67168" lon="3.17635">
        <ele>389.8</ele>
        <time>2021-08-03T17:47:01Z</time>
      </trkpt>
      <trkpt lat="45.67168" lon="3.17639">
        <ele>390</ele>
        <time>2021-08-03T17:47:03Z</time>
      </trkpt>
      <trkpt lat="45.67169" lon="3.17642">
        <ele>390.2</ele>
        <time>2021-08-03T17:47:05Z</time>
      </trkpt>
      <trkpt lat="45.67169" lon="3.17645">
        <ele>390.4</ele>
        <time>2021-08-03T17:47:07Z</time>
      </trkpt>
      <trkpt lat="45.6717" lon="3.17646">
        <ele>390.4</ele>
        <time>2021-08-03T17:47:09Z</time>
      </trkpt>
      <trkpt lat="45.6717" lon="3.17645">
        <ele>390.4</ele>
        <time>2021-08-03T17:47:11Z</time>
      </trkpt>
      <trkpt lat="45.6717" lon="3.17645">
        <ele>390.4</ele>
        <time>2021-08-03T17:47:13Z</time>
      </trkpt>
      <trkpt lat="45.6717" lon="3.17646">
        <ele>390.4</ele>
        <time>2021-08-03T17:47:15Z</time>
      </trkpt>
      <trkpt lat="45.67173" lon="3.17665">
        <ele>391.7</ele>
        <time>2021-08-03T17:49:05Z</time>
      </trkpt>
      <trkpt lat="45.67174" lon="3.1767">
        <ele>391.9</ele>
        <time>2021-08-03T17:49:07Z</time>
      </trkpt>
      <trkpt lat="45.67175" lon="3.17675">
        <ele>392.1</ele>
        <time>2021-08-03T17:49:09Z</time>
      </trkpt>
      <trkpt lat="45.67175" lon="3.17679">
        <ele>392.3</ele>
        <time>2021-08-03T17:49:11Z</time>
      </trkpt>
      <trkpt lat="45.67175" lon="3.17685">
        <ele>392.7</ele>
        <time>2021-08-03T17:49:13Z</time>
      </trkpt>
      <trkpt lat="45.67175" lon="3.1769">
        <ele>393</ele>
        <time>2021-08-03T17:49:15Z</time>
      </trkpt>
      <trkpt lat="45.67174" lon="3.17694">
        <ele>393.3</ele>
        <time>2021-08-03T17:49:17Z</time>
      </trkpt>
      <trkpt lat="45.67174" lon="3.17699">
        <ele>393.7</ele>
        <time>2021-08-03T17:49:19Z</time>
      </trkpt>
      <trkpt lat="45.67173" lon="3.17703">
        <ele>394.1</ele>
        <time>2021-08-03T17:49:21Z</time>
      </trkpt>
      <trkpt lat="45.67172" lon="3.17707">
        <ele>394.5</ele>
        <time>2021-08-03T17:49:23Z</time>
      </trkpt>
      <trkpt lat="45.67171" lon="3.17712">
        <ele>395</ele>
        <time>2021-08-03T17:49:25Z</time>
      </trkpt>
      <trkpt lat="45.6717" lon="3.17716">
        <ele>395.4</ele>
        <time>2021-08-03T17:49:27Z</time>
      </trkpt>
      <trkpt lat="45.67169" lon="3.1772">
        <ele>395.8</ele>
        <time>2021-08-03T17:49:29Z</time>
      </trkpt>
      <trkpt lat="45.67168" lon="3.17724">
        <ele>396.2</ele>
        <time>2021-08-03T17:49:31Z</time>
      </trkpt>
      <trkpt lat="45.67167" lon="3.17728">
        <ele>396.7</ele>
        <time>2021-08-03T17:49:33Z</time>
      </trkpt>
      <trkpt lat="45.67165" lon="3.17732">
        <ele>397.2</ele>
        <time>2021-08-03T17:49:35Z</time>
      </trkpt>
      <trkpt lat="45.67164" lon="3.17736">
        <ele>397.6</ele>
        <time>2021-08-03T17:49:37Z</time>
      </trkpt>
      <trkpt lat="45.67163" lon="3.17741">
        <ele>398</ele>
        <time>2021-08-03T17:49:39Z</time>
      </trkpt>
      <trkpt lat="45.67162" lon="3.17745">
        <ele>398.4</ele>
        <time>2021-08-03T17:49:41Z</time>
      </trkpt>
      <trkpt lat="45.67161" lon="3.17749">
        <ele>398.9</ele>
        <time>2021-08-03T17:49:43Z</time>
      </trkpt>
      <trkpt lat="45.67161" lon="3.17753">
        <ele>399.4</ele>
        <time>2021-08-03T17:49:45Z</time>
      </trkpt>
      <trkpt lat="45.6716" lon="3.17757">
        <ele>400.2</ele>
        <time>2021-08-03T17:49:47Z</time>
      </trkpt>
      <trkpt lat="45.67159" lon="3.17761">
        <ele>400.8</ele>
        <time>2021-08-03T17:49:49Z</time>
      </trkpt>
      <trkpt lat="45.67159" lon="3.17765">
        <ele>401.3</ele>
        <time>2021-08-03T17:49:51Z</time>
      </trkpt>
      <trkpt lat="45.67159" lon="3.17769">
        <ele>401.7</ele>
        <time>2021-08-03T17:49:53Z</time>
      </trkpt>
      <trkpt lat="45.6716" lon="3.17773">
        <ele>402.2</ele>
        <time>2021-08-03T17:49:55Z</time>
      </trkpt>
      <trkpt lat="45.6716" lon="3.17777">
        <ele>402.7</ele>
        <time>2021-08-03T17:49:57Z</time>
      </trkpt>
      <trkpt lat="45.6716" lon="3.17781">
        <ele>403.1</ele>
        <time>2021-08-03T17:49:59Z</time>
      </trkpt>
      <trkpt lat="45.67161" lon="3.17784">
        <ele>403.4</ele>
        <time>2021-08-03T17:50:01Z</time>
      </trkpt>
      <trkpt lat="45.67162" lon="3.17787">
        <ele>403.7</ele>
        <time>2021-08-03T17:50:03Z</time>
      </trkpt>
      <trkpt lat="45.67162" lon="3.17791">
        <ele>404.1</ele>
        <time>2021-08-03T17:50:05Z</time>
      </trkpt>
      <trkpt lat="45.67163" lon="3.17794">
        <ele>404.4</ele>
        <time>2021-08-03T17:50:07Z</time>
      </trkpt>
      <trkpt lat="45.67164" lon="3.17797">
        <ele>404.6</ele>
        <time>2021-08-03T17:50:09Z</time>
      </trkpt>
      <trkpt lat="45.67166" lon="3.178">
        <ele>404.8</ele>
        <time>2021-08-03T17:50:11Z</time>
      </trkpt>
      <trkpt lat="45.67168" lon="3.17803">
        <ele>404.9</ele>
        <time>2021-08-03T17:50:13Z</time>
      </trkpt>
      <trkpt lat="45.67169" lon="3.17807">
        <ele>405.1</ele>
        <time>2021-08-03T17:50:15Z</time>
      </trkpt>
      <trkpt lat="45.67171" lon="3.17809">
        <ele>405.3</ele>
        <time>2021-08-03T17:50:17Z</time>
      </trkpt>
      <trkpt lat="45.67172" lon="3.17812">
        <ele>405.4</ele>
        <time>2021-08-03T17:50:19Z</time>
      </trkpt>
      <trkpt lat="45.67174" lon="3.17815">
        <ele>405.5</ele>
        <time>2021-08-03T17:50:21Z</time>
      </trkpt>
      <trkpt lat="45.67176" lon="3.17818">
        <ele>405.7</ele>
        <time>2021-08-03T17:50:23Z</time>
      </trkpt>
      <trkpt lat="45.67178" lon="3.17821">
        <ele>405.8</ele>
        <time>2021-08-03T17:50:25Z</time>
      </trkpt>
      <trkpt lat="45.6718" lon="3.17823">
        <ele>405.9</ele>
        <time>2021-08-03T17:50:27Z</time>
      </trkpt>
      <trkpt lat="45.67181" lon="3.17826">
        <ele>406.2</ele>
        <time>2021-08-03T17:50:29Z</time>
      </trkpt>
      <trkpt lat="45.67183" lon="3.17829">
        <ele>406.3</ele>
        <time>2021-08-03T17:50:31Z</time>
      </trkpt>
      <trkpt lat="45.67184" lon="3.17832">
        <ele>406.5</ele>
        <time>2021-08-03T17:50:33Z</time>
      </trkpt>
      <trkpt lat="45.67186" lon="3.17835">
        <ele>406.7</ele>
        <time>2021-08-03T17:50:35Z</time>
      </trkpt>
      <trkpt lat="45.67187" lon="3.17838">
        <ele>406.9</ele>
        <time>2021-08-03T17:50:37Z</time>
      </trkpt>
      <trkpt lat="45.67188" lon="3.1784">
        <ele>407</ele>
        <time>2021-08-03T17:50:39Z</time>
      </trkpt>
      <trkpt lat="45.67189" lon="3.17843">
        <ele>407.2</ele>
        <time>2021-08-03T17:50:41Z</time>
      </trkpt>
      <trkpt lat="45.6719" lon="3.17846">
        <ele>407.5</ele>
        <time>2021-08-03T17:50:43Z</time>
      </trkpt>
      <trkpt lat="45.67192" lon="3.17848">
        <ele>407.6</ele>
        <time>2021-08-03T17:50:45Z</time>
      </trkpt>
      <trkpt lat="45.67193" lon="3.17851">
        <ele>407.8</ele>
        <time>2021-08-03T17:50:47Z</time>
      </trkpt>
      <trkpt lat="45.67194" lon="3.17854">
        <ele>408</ele>
        <time>2021-08-03T17:50:49Z</time>
      </trkpt>
      <trkpt lat="45.67193" lon="3.17856">
        <ele>408.4</ele>
        <time>2021-08-03T17:50:51Z</time>
      </trkpt>
      <trkpt lat="45.67191" lon="3.17858">
        <ele>408.9</ele>
        <time>2021-08-03T17:50:53Z</time>
      </trkpt>
      <trkpt lat="45.67188" lon="3.17857">
        <ele>409.2</ele>
        <time>2021-08-03T17:50:55Z</time>
      </trkpt>
      <trkpt lat="45.67185" lon="3.17857">
        <ele>409.5</ele>
        <time>2021-08-03T17:50:57Z</time>
      </trkpt>
      <trkpt lat="45.67183" lon="3.17857">
        <ele>409.7</ele>
        <time>2021-08-03T17:50:59Z</time>
      </trkpt>
      <trkpt lat="45.67182" lon="3.17855">
        <ele>409.7</ele>
        <time>2021-08-03T17:51:01Z</time>
      </trkpt>
      <trkpt lat="45.67181" lon="3.17855">
        <ele>409.7</ele>
        <time>2021-08-03T17:51:03Z</time>
      </trkpt>
      <trkpt lat="45.67181" lon="3.17855">
        <ele>409.7</ele>
        <time>2021-08-03T17:51:05Z</time>
      </trkpt>
      <trkpt lat="45.67181" lon="3.17855">
        <ele>409.8</ele>
        <time>2021-08-03T17:51:07Z</time>
      </trkpt>
      <trkpt lat="45.67179" lon="3.17854">
        <ele>409.9</ele>
        <time>2021-08-03T17:51:09Z</time>
      </trkpt>
      <trkpt lat="45.67167" lon="3.17848">
        <ele>410.6</ele>
        <time>2021-08-03T17:51:19Z</time>
      </trkpt>
      <trkpt lat="45.67165" lon="3.17846">
        <ele>410.8</ele>
        <time>2021-08-03T17:51:21Z</time>
      </trkpt>
      <trkpt lat="45.67162" lon="3.17844">
        <ele>410.8</ele>
        <time>2021-08-03T17:51:23Z</time>
      </trkpt>
      <trkpt lat="45.6716" lon="3.17842">
        <ele>411</ele>
        <time>2021-08-03T17:51:25Z</time>
      </trkpt>
      <trkpt lat="45.67156" lon="3.1784">
        <ele>411.1</ele>
        <time>2021-08-03T17:51:27Z</time>
      </trkpt>
      <trkpt lat="45.67153" lon="3.17838">
        <ele>411.3</ele>
        <time>2021-08-03T17:51:29Z</time>
      </trkpt>
      <trkpt lat="45.6715" lon="3.17836">
        <ele>411.5</ele>
        <time>2021-08-03T17:51:31Z</time>
      </trkpt>
      <trkpt lat="45.67147" lon="3.17833">
        <ele>411.6</ele>
        <time>2021-08-03T17:51:33Z</time>
      </trkpt>
      <trkpt lat="45.67144" lon="3.17831">
        <ele>411.7</ele>
        <time>2021-08-03T17:51:35Z</time>
      </trkpt>
      <trkpt lat="45.67142" lon="3.1783">
        <ele>411.9</ele>
        <time>2021-08-03T17:51:37Z</time>
      </trkpt>
      <trkpt lat="45.67139" lon="3.17828">
        <ele>412</ele>
        <time>2021-08-03T17:51:39Z</time>
      </trkpt>
      <trkpt lat="45.67136" lon="3.17826">
        <ele>412.2</ele>
        <time>2021-08-03T17:51:41Z</time>
      </trkpt>
      <trkpt lat="45.67134" lon="3.17824">
        <ele>412.3</ele>
        <time>2021-08-03T17:51:43Z</time>
      </trkpt>
      <trkpt lat="45.67131" lon="3.17822">
        <ele>412.5</ele>
        <time>2021-08-03T17:51:45Z</time>
      </trkpt>
      <trkpt lat="45.67128" lon="3.1782">
        <ele>412.7</ele>
        <time>2021-08-03T17:51:47Z</time>
      </trkpt>
      <trkpt lat="45.67125" lon="3.17818">
        <ele>412.9</ele>
        <time>2021-08-03T17:51:49Z</time>
      </trkpt>
      <trkpt lat="45.67122" lon="3.17817">
        <ele>413.1</ele>
        <time>2021-08-03T17:51:51Z</time>
      </trkpt>
      <trkpt lat="45.6712" lon="3.17815">
        <ele>413.3</ele>
        <time>2021-08-03T17:51:53Z</time>
      </trkpt>
      <trkpt lat="45.67117" lon="3.17813">
        <ele>413.3</ele>
        <time>2021-08-03T17:51:55Z</time>
      </trkpt>
      <trkpt lat="45.67115" lon="3.17811">
        <ele>413.5</ele>
        <time>2021-08-03T17:51:57Z</time>
      </trkpt>
      <trkpt lat="45.67112" lon="3.1781">
        <ele>413.8</ele>
        <time>2021-08-03T17:51:59Z</time>
      </trkpt>
      <trkpt lat="45.67109" lon="3.17808">
        <ele>414</ele>
        <time>2021-08-03T17:52:01Z</time>
      </trkpt>
      <trkpt lat="45.67106" lon="3.17805">
        <ele>414.2</ele>
        <time>2021-08-03T17:52:03Z</time>
      </trkpt>
      <trkpt lat="45.67104" lon="3.17804">
        <ele>414.5</ele>
        <time>2021-08-03T17:52:05Z</time>
      </trkpt>
      <trkpt lat="45.67101" lon="3.17802">
        <ele>414.6</ele>
        <time>2021-08-03T17:52:07Z</time>
      </trkpt>
      <trkpt lat="45.67098" lon="3.178">
        <ele>414.9</ele>
        <time>2021-08-03T17:52:09Z</time>
      </trkpt>
      <trkpt lat="45.67096" lon="3.17799">
        <ele>415.2</ele>
        <time>2021-08-03T17:52:11Z</time>
      </trkpt>
      <trkpt lat="45.67093" lon="3.17797">
        <ele>415.4</ele>
        <time>2021-08-03T17:52:13Z</time>
      </trkpt>
      <trkpt lat="45.67091" lon="3.17796">
        <ele>415.7</ele>
        <time>2021-08-03T17:52:15Z</time>
      </trkpt>
      <trkpt lat="45.67088" lon="3.17794">
        <ele>415.9</ele>
        <time>2021-08-03T17:52:17Z</time>
      </trkpt>
      <trkpt lat="45.67086" lon="3.17792">
        <ele>416.1</ele>
        <time>2021-08-03T17:52:19Z</time>
      </trkpt>
      <trkpt lat="45.67083" lon="3.1779">
        <ele>416.4</ele>
        <time>2021-08-03T17:52:21Z</time>
      </trkpt>
      <trkpt lat="45.67081" lon="3.17788">
        <ele>416.5</ele>
        <time>2021-08-03T17:52:23Z</time>
      </trkpt>
      <trkpt lat="45.67078" lon="3.17785">
        <ele>416.6</ele>
        <time>2021-08-03T17:52:25Z</time>
      </trkpt>
      <trkpt lat="45.67076" lon="3.17784">
        <ele>416.8</ele>
        <time>2021-08-03T17:52:27Z</time>
      </trkpt>
      <trkpt lat="45.67074" lon="3.17782">
        <ele>416.9</ele>
        <time>2021-08-03T17:52:29Z</time>
      </trkpt>
      <trkpt lat="45.67071" lon="3.1778">
        <ele>417.1</ele>
        <time>2021-08-03T17:52:31Z</time>
      </trkpt>
      <trkpt lat="45.67069" lon="3.17778">
        <ele>417.1</ele>
        <time>2021-08-03T17:52:33Z</time>
      </trkpt>
      <trkpt lat="45.67066" lon="3.17776">
        <ele>417.3</ele>
        <time>2021-08-03T17:52:35Z</time>
      </trkpt>
      <trkpt lat="45.67064" lon="3.17775">
        <ele>417.5</ele>
        <time>2021-08-03T17:52:37Z</time>
      </trkpt>
      <trkpt lat="45.67062" lon="3.17773">
        <ele>417.6</ele>
        <time>2021-08-03T17:52:39Z</time>
      </trkpt>
      <trkpt lat="45.67059" lon="3.17771">
        <ele>417.7</ele>
        <time>2021-08-03T17:52:41Z</time>
      </trkpt>
      <trkpt lat="45.67056" lon="3.17768">
        <ele>417.8</ele>
        <time>2021-08-03T17:52:43Z</time>
      </trkpt>
      <trkpt lat="45.67054" lon="3.17766">
        <ele>417.9</ele>
        <time>2021-08-03T17:52:45Z</time>
      </trkpt>
      <trkpt lat="45.67052" lon="3.17765">
        <ele>418.1</ele>
        <time>2021-08-03T17:52:47Z</time>
      </trkpt>
      <trkpt lat="45.6705" lon="3.17762">
        <ele>418.1</ele>
        <time>2021-08-03T17:52:49Z</time>
      </trkpt>
      <trkpt lat="45.67047" lon="3.1776">
        <ele>418.2</ele>
        <time>2021-08-03T17:52:51Z</time>
      </trkpt>
      <trkpt lat="45.67044" lon="3.17758">
        <ele>418.4</ele>
        <time>2021-08-03T17:52:53Z</time>
      </trkpt>
      <trkpt lat="45.67042" lon="3.17756">
        <ele>418.5</ele>
        <time>2021-08-03T17:52:55Z</time>
      </trkpt>
      <trkpt lat="45.67039" lon="3.17755">
        <ele>418.8</ele>
        <time>2021-08-03T17:52:57Z</time>
      </trkpt>
      <trkpt lat="45.67037" lon="3.17752">
        <ele>418.7</ele>
        <time>2021-08-03T17:52:59Z</time>
      </trkpt>
      <trkpt lat="45.67036" lon="3.17752">
        <ele>418.8</ele>
        <time>2021-08-03T17:53:01Z</time>
      </trkpt>
      <trkpt lat="45.67037" lon="3.17752">
        <ele>418.8</ele>
        <time>2021-08-03T17:53:03Z</time>
      </trkpt>
      <trkpt lat="45.67037" lon="3.17751">
        <ele>418.7</ele>
        <time>2021-08-03T17:53:05Z</time>
      </trkpt>
      <trkpt lat="45.67037" lon="3.17751">
        <ele>418.7</ele>
        <time>2021-08-03T17:53:07Z</time>
      </trkpt>
      <trkpt lat="45.67033" lon="3.17764">
        <ele>420.3</ele>
        <time>2021-08-03T17:55:27Z</time>
      </trkpt>
      <trkpt lat="45.67033" lon="3.17768">
        <ele>420.7</ele>
        <time>2021-08-03T17:55:29Z</time>
      </trkpt>
      <trkpt lat="45.67033" lon="3.17774">
        <ele>421.2</ele>
        <time>2021-08-03T17:55:31Z</time>
      </trkpt>
      <trkpt lat="45.67032" lon="3.17779">
        <ele>421.8</ele>
        <time>2021-08-03T17:55:33Z</time>
      </trkpt>
      <trkpt lat="45.6703" lon="3.17784">
        <ele>422.5</ele>
        <time>2021-08-03T17:55:35Z</time>
      </trkpt>
      <trkpt lat="45.67027" lon="3.17788">
        <ele>423.2</ele>
        <time>2021-08-03T17:55:37Z</time>
      </trkpt>
      <trkpt lat="45.67025" lon="3.17792">
        <ele>423.9</ele>
        <time>2021-08-03T17:55:39Z</time>
      </trkpt>
      <trkpt lat="45.67022" lon="3.17794">
        <ele>424.5</ele>
        <time>2021-08-03T17:55:41Z</time>
      </trkpt>
      <trkpt lat="45.67019" lon="3.17796">
        <ele>425</ele>
        <time>2021-08-03T17:55:43Z</time>
      </trkpt>
      <trkpt lat="45.67016" lon="3.17798">
        <ele>425.5</ele>
        <time>2021-08-03T17:55:45Z</time>
      </trkpt>
      <trkpt lat="45.67013" lon="3.17798">
        <ele>425.9</ele>
        <time>2021-08-03T17:55:47Z</time>
      </trkpt>
      <trkpt lat="45.6701" lon="3.17797">
        <ele>426.3</ele>
        <time>2021-08-03T17:55:49Z</time>
      </trkpt>
      <trkpt lat="45.67006" lon="3.17796">
        <ele>426.6</ele>
        <time>2021-08-03T17:55:51Z</time>
      </trkpt>
      <trkpt lat="45.67003" lon="3.17795">
        <ele>426.9</ele>
        <time>2021-08-03T17:55:53Z</time>
      </trkpt>
      <trkpt lat="45.67" lon="3.17793">
        <ele>427.2</ele>
        <time>2021-08-03T17:55:55Z</time>
      </trkpt>
      <trkpt lat="45.66997" lon="3.17792">
        <ele>427.4</ele>
        <time>2021-08-03T17:55:57Z</time>
      </trkpt>
      <trkpt lat="45.66994" lon="3.17791">
        <ele>427.6</ele>
        <time>2021-08-03T17:55:59Z</time>
      </trkpt>
      <trkpt lat="45.66991" lon="3.1779">
        <ele>427.9</ele>
        <time>2021-08-03T17:56:01Z</time>
      </trkpt>
      <trkpt lat="45.66988" lon="3.17789">
        <ele>428.1</ele>
        <time>2021-08-03T17:56:03Z</time>
      </trkpt>
      <trkpt lat="45.66986" lon="3.17788">
        <ele>428.4</ele>
        <time>2021-08-03T17:56:05Z</time>
      </trkpt>
      <trkpt lat="45.66983" lon="3.17787">
        <ele>428.6</ele>
        <time>2021-08-03T17:56:07Z</time>
      </trkpt>
      <trkpt lat="45.6698" lon="3.17785">
        <ele>428.8</ele>
        <time>2021-08-03T17:56:09Z</time>
      </trkpt>
      <trkpt lat="45.66977" lon="3.17783">
        <ele>428.9</ele>
        <time>2021-08-03T17:56:11Z</time>
      </trkpt>
      <trkpt lat="45.66974" lon="3.17782">
        <ele>429.1</ele>
        <time>2021-08-03T17:56:13Z</time>
      </trkpt>
      <trkpt lat="45.66971" lon="3.17781">
        <ele>429.4</ele>
        <time>2021-08-03T17:56:15Z</time>
      </trkpt>
      <trkpt lat="45.66969" lon="3.17779">
        <ele>429.6</ele>
        <time>2021-08-03T17:56:17Z</time>
      </trkpt>
      <trkpt lat="45.66966" lon="3.17778">
        <ele>429.8</ele>
        <time>2021-08-03T17:56:19Z</time>
      </trkpt>
      <trkpt lat="45.66963" lon="3.17777">
        <ele>430</ele>
        <time>2021-08-03T17:56:21Z</time>
      </trkpt>
      <trkpt lat="45.66961" lon="3.17776">
        <ele>430.2</ele>
        <time>2021-08-03T17:56:23Z</time>
      </trkpt>
      <trkpt lat="45.66958" lon="3.17775">
        <ele>430.4</ele>
        <time>2021-08-03T17:56:25Z</time>
      </trkpt>
      <trkpt lat="45.66955" lon="3.17773">
        <ele>430.6</ele>
        <time>2021-08-03T17:56:27Z</time>
      </trkpt>
      <trkpt lat="45.66952" lon="3.17772">
        <ele>430.8</ele>
        <time>2021-08-03T17:56:29Z</time>
      </trkpt>
      <trkpt lat="45.6695" lon="3.1777">
        <ele>430.9</ele>
        <time>2021-08-03T17:56:31Z</time>
      </trkpt>
      <trkpt lat="45.66947" lon="3.17769">
        <ele>431.3</ele>
        <time>2021-08-03T17:56:33Z</time>
      </trkpt>
      <trkpt lat="45.66944" lon="3.17769">
        <ele>431.5</ele>
        <time>2021-08-03T17:56:35Z</time>
      </trkpt>
      <trkpt lat="45.66942" lon="3.17768">
        <ele>431.7</ele>
        <time>2021-08-03T17:56:37Z</time>
      </trkpt>
      <trkpt lat="45.6694" lon="3.17766">
        <ele>431.8</ele>
        <time>2021-08-03T17:56:39Z</time>
      </trkpt>
      <trkpt lat="45.66937" lon="3.17767">
        <ele>432.1</ele>
        <time>2021-08-03T17:56:41Z</time>
      </trkpt>
      <trkpt lat="45.66935" lon="3.17765">
        <ele>432.3</ele>
        <time>2021-08-03T17:56:43Z</time>
      </trkpt>
      <trkpt lat="45.66932" lon="3.17763">
        <ele>432.4</ele>
        <time>2021-08-03T17:56:45Z</time>
      </trkpt>
      <trkpt lat="45.6693" lon="3.17762">
        <ele>432.6</ele>
        <time>2021-08-03T17:56:47Z</time>
      </trkpt>
      <trkpt lat="45.66927" lon="3.17762">
        <ele>432.9</ele>
        <time>2021-08-03T17:56:49Z</time>
      </trkpt>
      <trkpt lat="45.66925" lon="3.17761">
        <ele>433</ele>
        <time>2021-08-03T17:56:51Z</time>
      </trkpt>
      <trkpt lat="45.66922" lon="3.1776">
        <ele>433.3</ele>
        <time>2021-08-03T17:56:53Z</time>
      </trkpt>
      <trkpt lat="45.66919" lon="3.17759">
        <ele>433.5</ele>
        <time>2021-08-03T17:56:55Z</time>
      </trkpt>
      <trkpt lat="45.66917" lon="3.17758">
        <ele>433.8</ele>
        <time>2021-08-03T17:56:57Z</time>
      </trkpt>
      <trkpt lat="45.66914" lon="3.17757">
        <ele>433.9</ele>
        <time>2021-08-03T17:56:59Z</time>
      </trkpt>
      <trkpt lat="45.66911" lon="3.17756">
        <ele>434.2</ele>
        <time>2021-08-03T17:57:01Z</time>
      </trkpt>
      <trkpt lat="45.66909" lon="3.17755">
        <ele>434.4</ele>
        <time>2021-08-03T17:57:03Z</time>
      </trkpt>
      <trkpt lat="45.66906" lon="3.17753">
        <ele>434.6</ele>
        <time>2021-08-03T17:57:05Z</time>
      </trkpt>
      <trkpt lat="45.66903" lon="3.17753">
        <ele>434.9</ele>
        <time>2021-08-03T17:57:07Z</time>
      </trkpt>
      <trkpt lat="45.669" lon="3.17752">
        <ele>435.1</ele>
        <time>2021-08-03T17:57:09Z</time>
      </trkpt>
      <trkpt lat="45.66897" lon="3.17751">
        <ele>435.4</ele>
        <time>2021-08-03T17:57:11Z</time>
      </trkpt>
      <trkpt lat="45.66895" lon="3.1775">
        <ele>435.6</ele>
        <time>2021-08-03T17:57:13Z</time>
      </trkpt>
      <trkpt lat="45.66892" lon="3.17749">
        <ele>435.9</ele>
        <time>2021-08-03T17:57:15Z</time>
      </trkpt>
      <trkpt lat="45.66889" lon="3.17748">
        <ele>436.1</ele>
        <time>2021-08-03T17:57:17Z</time>
      </trkpt>
      <trkpt lat="45.66886" lon="3.17746">
        <ele>436.4</ele>
        <time>2021-08-03T17:57:19Z</time>
      </trkpt>
      <trkpt lat="45.66883" lon="3.17745">
        <ele>436.7</ele>
        <time>2021-08-03T17:57:21Z</time>
      </trkpt>
      <trkpt lat="45.6688" lon="3.17744">
        <ele>437</ele>
        <time>2021-08-03T17:57:23Z</time>
      </trkpt>
      <trkpt lat="45.66877" lon="3.17744">
        <ele>437.3</ele>
        <time>2021-08-03T17:57:25Z</time>
      </trkpt>
      <trkpt lat="45.66874" lon="3.17742">
        <ele>437.5</ele>
        <time>2021-08-03T17:57:27Z</time>
      </trkpt>
      <trkpt lat="45.66871" lon="3.17741">
        <ele>437.8</ele>
        <time>2021-08-03T17:57:29Z</time>
      </trkpt>
      <trkpt lat="45.66868" lon="3.1774">
        <ele>438.1</ele>
        <time>2021-08-03T17:57:31Z</time>
      </trkpt>
      <trkpt lat="45.66865" lon="3.17739">
        <ele>438.3</ele>
        <time>2021-08-03T17:57:33Z</time>
      </trkpt>
      <trkpt lat="45.66862" lon="3.17738">
        <ele>438.6</ele>
        <time>2021-08-03T17:57:35Z</time>
      </trkpt>
      <trkpt lat="45.66859" lon="3.17736">
        <ele>438.8</ele>
        <time>2021-08-03T17:57:37Z</time>
      </trkpt>
      <trkpt lat="45.66856" lon="3.17736">
        <ele>439.1</ele>
        <time>2021-08-03T17:57:39Z</time>
      </trkpt>
      <trkpt lat="45.66853" lon="3.17735">
        <ele>439.4</ele>
        <time>2021-08-03T17:57:41Z</time>
      </trkpt>
      <trkpt lat="45.6685" lon="3.17734">
        <ele>439.7</ele>
        <time>2021-08-03T17:57:43Z</time>
      </trkpt>
      <trkpt lat="45.66846" lon="3.17733">
        <ele>440</ele>
        <time>2021-08-03T17:57:45Z</time>
      </trkpt>
      <trkpt lat="45.66844" lon="3.17731">
        <ele>440.2</ele>
        <time>2021-08-03T17:57:47Z</time>
      </trkpt>
      <trkpt lat="45.66841" lon="3.1773">
        <ele>440.4</ele>
        <time>2021-08-03T17:57:49Z</time>
      </trkpt>
      <trkpt lat="45.66838" lon="3.17729">
        <ele>440.7</ele>
        <time>2021-08-03T17:57:51Z</time>
      </trkpt>
      <trkpt lat="45.66834" lon="3.17727">
        <ele>441</ele>
        <time>2021-08-03T17:57:53Z</time>
      </trkpt>
      <trkpt lat="45.66831" lon="3.17726">
        <ele>441.2</ele>
        <time>2021-08-03T17:57:55Z</time>
      </trkpt>
      <trkpt lat="45.66828" lon="3.17725">
        <ele>441.5</ele>
        <time>2021-08-03T17:57:57Z</time>
      </trkpt>
      <trkpt lat="45.66825" lon="3.17724">
        <ele>441.7</ele>
        <time>2021-08-03T17:57:59Z</time>
      </trkpt>
      <trkpt lat="45.66822" lon="3.17723">
        <ele>441.8</ele>
        <time>2021-08-03T17:58:01Z</time>
      </trkpt>
      <trkpt lat="45.66819" lon="3.17722">
        <ele>442.1</ele>
        <time>2021-08-03T17:58:03Z</time>
      </trkpt>
      <trkpt lat="45.66816" lon="3.17721">
        <ele>442.2</ele>
        <time>2021-08-03T17:58:05Z</time>
      </trkpt>
      <trkpt lat="45.66813" lon="3.1772">
        <ele>442.4</ele>
        <time>2021-08-03T17:58:07Z</time>
      </trkpt>
      <trkpt lat="45.6681" lon="3.17719">
        <ele>442.7</ele>
        <time>2021-08-03T17:58:09Z</time>
      </trkpt>
      <trkpt lat="45.66806" lon="3.17719">
        <ele>442.9</ele>
        <time>2021-08-03T17:58:11Z</time>
      </trkpt>
      <trkpt lat="45.66803" lon="3.17718">
        <ele>443.1</ele>
        <time>2021-08-03T17:58:13Z</time>
      </trkpt>
      <trkpt lat="45.668" lon="3.17718">
        <ele>443.4</ele>
        <time>2021-08-03T17:58:15Z</time>
      </trkpt>
      <trkpt lat="45.66797" lon="3.17718">
        <ele>443.6</ele>
        <time>2021-08-03T17:58:17Z</time>
      </trkpt>
      <trkpt lat="45.66794" lon="3.17718">
        <ele>444</ele>
        <time>2021-08-03T17:58:19Z</time>
      </trkpt>
      <trkpt lat="45.66791" lon="3.17719">
        <ele>444.4</ele>
        <time>2021-08-03T17:58:21Z</time>
      </trkpt>
      <trkpt lat="45.66788" lon="3.17721">
        <ele>444.8</ele>
        <time>2021-08-03T17:58:23Z</time>
      </trkpt>
      <trkpt lat="45.66786" lon="3.17723">
        <ele>445.3</ele>
        <time>2021-08-03T17:58:25Z</time>
      </trkpt>
      <trkpt lat="45.66784" lon="3.17726">
        <ele>445.9</ele>
        <time>2021-08-03T17:58:27Z</time>
      </trkpt>
      <trkpt lat="45.66781" lon="3.17729">
        <ele>446.6</ele>
        <time>2021-08-03T17:58:29Z</time>
      </trkpt>
      <trkpt lat="45.66779" lon="3.17732">
        <ele>447.1</ele>
        <time>2021-08-03T17:58:31Z</time>
      </trkpt>
      <trkpt lat="45.66778" lon="3.17736">
        <ele>447.8</ele>
        <time>2021-08-03T17:58:33Z</time>
      </trkpt>
      <trkpt lat="45.66777" lon="3.1774">
        <ele>448.5</ele>
        <time>2021-08-03T17:58:35Z</time>
      </trkpt>
      <trkpt lat="45.66776" lon="3.17744">
        <ele>449.1</ele>
        <time>2021-08-03T17:58:37Z</time>
      </trkpt>
      <trkpt lat="45.66776" lon="3.17748">
        <ele>449.6</ele>
        <time>2021-08-03T17:58:39Z</time>
      </trkpt>
      <trkpt lat="45.66776" lon="3.17753">
        <ele>450.1</ele>
        <time>2021-08-03T17:58:41Z</time>
      </trkpt>
      <trkpt lat="45.66777" lon="3.17756">
        <ele>450.3</ele>
        <time>2021-08-03T17:58:43Z</time>
      </trkpt>
      <trkpt lat="45.66779" lon="3.1776">
        <ele>450.5</ele>
        <time>2021-08-03T17:58:45Z</time>
      </trkpt>
      <trkpt lat="45.6678" lon="3.17765">
        <ele>450.7</ele>
        <time>2021-08-03T17:58:47Z</time>
      </trkpt>
      <trkpt lat="45.66781" lon="3.17769">
        <ele>450.9</ele>
        <time>2021-08-03T17:58:49Z</time>
      </trkpt>
      <trkpt lat="45.66783" lon="3.17773">
        <ele>451</ele>
        <time>2021-08-03T17:58:51Z</time>
      </trkpt>
      <trkpt lat="45.66785" lon="3.17777">
        <ele>451.1</ele>
        <time>2021-08-03T17:58:53Z</time>
      </trkpt>
      <trkpt lat="45.66787" lon="3.17781">
        <ele>451.2</ele>
        <time>2021-08-03T17:58:55Z</time>
      </trkpt>
      <trkpt lat="45.66789" lon="3.17785">
        <ele>451.3</ele>
        <time>2021-08-03T17:58:57Z</time>
      </trkpt>
      <trkpt lat="45.66791" lon="3.17789">
        <ele>451.4</ele>
        <time>2021-08-03T17:58:59Z</time>
      </trkpt>
      <trkpt lat="45.66793" lon="3.17793">
        <ele>451.4</ele>
        <time>2021-08-03T17:59:01Z</time>
      </trkpt>
      <trkpt lat="45.66794" lon="3.17796">
        <ele>451.6</ele>
        <time>2021-08-03T17:59:03Z</time>
      </trkpt>
      <trkpt lat="45.66796" lon="3.178">
        <ele>451.6</ele>
        <time>2021-08-03T17:59:05Z</time>
      </trkpt>
      <trkpt lat="45.66797" lon="3.17804">
        <ele>451.8</ele>
        <time>2021-08-03T17:59:07Z</time>
      </trkpt>
      <trkpt lat="45.66799" lon="3.17809">
        <ele>452</ele>
        <time>2021-08-03T17:59:09Z</time>
      </trkpt>
      <trkpt lat="45.668" lon="3.17813">
        <ele>452.1</ele>
        <time>2021-08-03T17:59:11Z</time>
      </trkpt>
      <trkpt lat="45.66802" lon="3.17817">
        <ele>452.2</ele>
        <time>2021-08-03T17:59:13Z</time>
      </trkpt>
      <trkpt lat="45.66803" lon="3.17821">
        <ele>452.4</ele>
        <time>2021-08-03T17:59:15Z</time>
      </trkpt>
      <trkpt lat="45.66804" lon="3.17825">
        <ele>452.5</ele>
        <time>2021-08-03T17:59:17Z</time>
      </trkpt>
      <trkpt lat="45.66805" lon="3.1783">
        <ele>452.7</ele>
        <time>2021-08-03T17:59:19Z</time>
      </trkpt>
      <trkpt lat="45.66807" lon="3.17834">
        <ele>452.9</ele>
        <time>2021-08-03T17:59:21Z</time>
      </trkpt>
      <trkpt lat="45.66808" lon="3.17838">
        <ele>453.2</ele>
        <time>2021-08-03T17:59:23Z</time>
      </trkpt>
      <trkpt lat="45.66808" lon="3.17843">
        <ele>453.5</ele>
        <time>2021-08-03T17:59:25Z</time>
      </trkpt>
      <trkpt lat="45.66809" lon="3.17847">
        <ele>453.7</ele>
        <time>2021-08-03T17:59:27Z</time>
      </trkpt>
      <trkpt lat="45.6681" lon="3.17852">
        <ele>454</ele>
        <time>2021-08-03T17:59:29Z</time>
      </trkpt>
      <trkpt lat="45.66811" lon="3.17856">
        <ele>454.3</ele>
        <time>2021-08-03T17:59:31Z</time>
      </trkpt>
      <trkpt lat="45.66812" lon="3.17861">
        <ele>454.6</ele>
        <time>2021-08-03T17:59:33Z</time>
      </trkpt>
      <trkpt lat="45.66813" lon="3.17865">
        <ele>454.8</ele>
        <time>2021-08-03T17:59:35Z</time>
      </trkpt>
      <trkpt lat="45.66814" lon="3.17869">
        <ele>455.1</ele>
        <time>2021-08-03T17:59:37Z</time>
      </trkpt>
      <trkpt lat="45.66815" lon="3.17873">
        <ele>455.4</ele>
        <time>2021-08-03T17:59:39Z</time>
      </trkpt>
      <trkpt lat="45.66816" lon="3.17877">
        <ele>455.6</ele>
        <time>2021-08-03T17:59:41Z</time>
      </trkpt>
      <trkpt lat="45.66816" lon="3.17881">
        <ele>455.9</ele>
        <time>2021-08-03T17:59:43Z</time>
      </trkpt>
      <trkpt lat="45.66817" lon="3.17885">
        <ele>456.1</ele>
        <time>2021-08-03T17:59:45Z</time>
      </trkpt>
      <trkpt lat="45.66818" lon="3.17889">
        <ele>456.5</ele>
        <time>2021-08-03T17:59:47Z</time>
      </trkpt>
      <trkpt lat="45.66819" lon="3.17893">
        <ele>456.7</ele>
        <time>2021-08-03T17:59:49Z</time>
      </trkpt>
      <trkpt lat="45.66819" lon="3.17898">
        <ele>457.1</ele>
        <time>2021-08-03T17:59:51Z</time>
      </trkpt>
      <trkpt lat="45.6682" lon="3.17902">
        <ele>457.4</ele>
        <time>2021-08-03T17:59:53Z</time>
      </trkpt>
      <trkpt lat="45.66821" lon="3.17906">
        <ele>457.7</ele>
        <time>2021-08-03T17:59:55Z</time>
      </trkpt>
      <trkpt lat="45.66822" lon="3.17911">
        <ele>457.9</ele>
        <time>2021-08-03T17:59:57Z</time>
      </trkpt>
      <trkpt lat="45.66822" lon="3.17915">
        <ele>458.3</ele>
        <time>2021-08-03T17:59:59Z</time>
      </trkpt>
      <trkpt lat="45.66823" lon="3.1792">
        <ele>458.5</ele>
        <time>2021-08-03T18:00:01Z</time>
      </trkpt>
      <trkpt lat="45.66824" lon="3.17924">
        <ele>458.6</ele>
        <time>2021-08-03T18:00:03Z</time>
      </trkpt>
      <trkpt lat="45.66825" lon="3.17928">
        <ele>458.8</ele>
        <time>2021-08-03T18:00:05Z</time>
      </trkpt>
      <trkpt lat="45.66826" lon="3.17932">
        <ele>458.9</ele>
        <time>2021-08-03T18:00:07Z</time>
      </trkpt>
      <trkpt lat="45.66827" lon="3.17937">
        <ele>459.1</ele>
        <time>2021-08-03T18:00:09Z</time>
      </trkpt>
      <trkpt lat="45.66828" lon="3.17941">
        <ele>459.2</ele>
        <time>2021-08-03T18:00:11Z</time>
      </trkpt>
      <trkpt lat="45.66829" lon="3.17946">
        <ele>459.4</ele>
        <time>2021-08-03T18:00:13Z</time>
      </trkpt>
      <trkpt lat="45.66829" lon="3.1795">
        <ele>459.6</ele>
        <time>2021-08-03T18:00:15Z</time>
      </trkpt>
      <trkpt lat="45.6683" lon="3.17954">
        <ele>459.7</ele>
        <time>2021-08-03T18:00:17Z</time>
      </trkpt>
      <trkpt lat="45.66831" lon="3.17959">
        <ele>459.8</ele>
        <time>2021-08-03T18:00:19Z</time>
      </trkpt>
      <trkpt lat="45.66832" lon="3.17964">
        <ele>460</ele>
        <time>2021-08-03T18:00:21Z</time>
      </trkpt>
      <trkpt lat="45.66833" lon="3.17968">
        <ele>460.2</ele>
        <time>2021-08-03T18:00:23Z</time>
      </trkpt>
      <trkpt lat="45.66834" lon="3.17972">
        <ele>460.3</ele>
        <time>2021-08-03T18:00:25Z</time>
      </trkpt>
      <trkpt lat="45.66834" lon="3.17977">
        <ele>460.5</ele>
        <time>2021-08-03T18:00:27Z</time>
      </trkpt>
      <trkpt lat="45.66835" lon="3.17981">
        <ele>460.6</ele>
        <time>2021-08-03T18:00:29Z</time>
      </trkpt>
      <trkpt lat="45.66836" lon="3.17985">
        <ele>460.7</ele>
        <time>2021-08-03T18:00:31Z</time>
      </trkpt>
      <trkpt lat="45.66837" lon="3.17989">
        <ele>460.8</ele>
        <time>2021-08-03T18:00:33Z</time>
      </trkpt>
      <trkpt lat="45.66838" lon="3.17993">
        <ele>461</ele>
        <time>2021-08-03T18:00:35Z</time>
      </trkpt>
      <trkpt lat="45.66839" lon="3.17997">
        <ele>461.1</ele>
        <time>2021-08-03T18:00:37Z</time>
      </trkpt>
      <trkpt lat="45.6684" lon="3.18001">
        <ele>461.2</ele>
        <time>2021-08-03T18:00:39Z</time>
      </trkpt>
      <trkpt lat="45.6684" lon="3.18005">
        <ele>461.5</ele>
        <time>2021-08-03T18:00:41Z</time>
      </trkpt>
      <trkpt lat="45.6684" lon="3.1801">
        <ele>461.8</ele>
        <time>2021-08-03T18:00:43Z</time>
      </trkpt>
      <trkpt lat="45.66841" lon="3.18014">
        <ele>462</ele>
        <time>2021-08-03T18:00:45Z</time>
      </trkpt>
      <trkpt lat="45.66841" lon="3.18018">
        <ele>462.3</ele>
        <time>2021-08-03T18:00:47Z</time>
      </trkpt>
      <trkpt lat="45.66843" lon="3.18022">
        <ele>462.4</ele>
        <time>2021-08-03T18:00:49Z</time>
      </trkpt>
      <trkpt lat="45.66843" lon="3.18027">
        <ele>462.7</ele>
        <time>2021-08-03T18:00:51Z</time>
      </trkpt>
      <trkpt lat="45.66845" lon="3.18031">
        <ele>462.8</ele>
        <time>2021-08-03T18:00:53Z</time>
      </trkpt>
      <trkpt lat="45.66845" lon="3.18035">
        <ele>463</ele>
        <time>2021-08-03T18:00:55Z</time>
      </trkpt>
      <trkpt lat="45.66847" lon="3.18039">
        <ele>463.2</ele>
        <time>2021-08-03T18:00:57Z</time>
      </trkpt>
      <trkpt lat="45.66847" lon="3.18043">
        <ele>463.5</ele>
        <time>2021-08-03T18:00:59Z</time>
      </trkpt>
      <trkpt lat="45.66847" lon="3.18048">
        <ele>463.8</ele>
        <time>2021-08-03T18:01:01Z</time>
      </trkpt>
      <trkpt lat="45.66847" lon="3.18052">
        <ele>464.1</ele>
        <time>2021-08-03T18:01:03Z</time>
      </trkpt>
      <trkpt lat="45.66847" lon="3.18056">
        <ele>464.4</ele>
        <time>2021-08-03T18:01:05Z</time>
      </trkpt>
      <trkpt lat="45.66845" lon="3.1806">
        <ele>465</ele>
        <time>2021-08-03T18:01:07Z</time>
      </trkpt>
      <trkpt lat="45.66843" lon="3.18061">
        <ele>465.4</ele>
        <time>2021-08-03T18:01:09Z</time>
      </trkpt>
      <trkpt lat="45.66841" lon="3.18063">
        <ele>465.7</ele>
        <time>2021-08-03T18:01:11Z</time>
      </trkpt>
      <trkpt lat="45.6684" lon="3.18065">
        <ele>465.9</ele>
        <time>2021-08-03T18:01:13Z</time>
      </trkpt>
      <trkpt lat="45.66838" lon="3.18067">
        <ele>466.2</ele>
        <time>2021-08-03T18:01:15Z</time>
      </trkpt>
      <trkpt lat="45.66836" lon="3.18068">
        <ele>466.6</ele>
        <time>2021-08-03T18:01:17Z</time>
      </trkpt>
      <trkpt lat="45.66834" lon="3.18067">
        <ele>466.8</ele>
        <time>2021-08-03T18:01:19Z</time>
      </trkpt>
      <trkpt lat="45.66832" lon="3.18068">
        <ele>467</ele>
        <time>2021-08-03T18:01:21Z</time>
      </trkpt>
      <trkpt lat="45.66832" lon="3.18069">
        <ele>467.2</ele>
        <time>2021-08-03T18:01:23Z</time>
      </trkpt>
      <trkpt lat="45.66831" lon="3.18068">
        <ele>467.2</ele>
        <time>2021-08-03T18:01:25Z</time>
      </trkpt>
      <trkpt lat="45.66832" lon="3.18068">
        <ele>467.2</ele>
        <time>2021-08-03T18:01:27Z</time>
      </trkpt>
      <trkpt lat="45.66831" lon="3.18068">
        <ele>467.3</ele>
        <time>2021-08-03T18:01:29Z</time>
      </trkpt>
      <trkpt lat="45.66837" lon="3.18066">
        <ele>466.3</ele>
        <time>2021-08-03T18:10:11Z</time>
      </trkpt>
      <trkpt lat="45.66841" lon="3.18063">
        <ele>465.7</ele>
        <time>2021-08-03T18:10:13Z</time>
      </trkpt>
      <trkpt lat="45.66846" lon="3.18063">
        <ele>465.1</ele>
        <time>2021-08-03T18:10:15Z</time>
      </trkpt>
      <trkpt lat="45.6685" lon="3.18064">
        <ele>464.7</ele>
        <time>2021-08-03T18:10:17Z</time>
      </trkpt>
      <trkpt lat="45.66852" lon="3.18069">
        <ele>464.9</ele>
        <time>2021-08-03T18:10:19Z</time>
      </trkpt>
      <trkpt lat="45.66853" lon="3.18075">
        <ele>465.3</ele>
        <time>2021-08-03T18:10:21Z</time>
      </trkpt>
      <trkpt lat="45.66854" lon="3.1808">
        <ele>465.5</ele>
        <time>2021-08-03T18:10:23Z</time>
      </trkpt>
      <trkpt lat="45.66855" lon="3.18085">
        <ele>465.9</ele>
        <time>2021-08-03T18:10:25Z</time>
      </trkpt>
      <trkpt lat="45.66856" lon="3.18089">
        <ele>466.2</ele>
        <time>2021-08-03T18:10:27Z</time>
      </trkpt>
      <trkpt lat="45.66857" lon="3.18095">
        <ele>466.7</ele>
        <time>2021-08-03T18:10:29Z</time>
      </trkpt>
      <trkpt lat="45.66858" lon="3.18099">
        <ele>467.1</ele>
        <time>2021-08-03T18:10:31Z</time>
      </trkpt>
      <trkpt lat="45.66859" lon="3.18104">
        <ele>467.6</ele>
        <time>2021-08-03T18:10:33Z</time>
      </trkpt>
      <trkpt lat="45.6686" lon="3.18109">
        <ele>468</ele>
        <time>2021-08-03T18:10:35Z</time>
      </trkpt>
      <trkpt lat="45.66861" lon="3.18113">
        <ele>468.4</ele>
        <time>2021-08-03T18:10:37Z</time>
      </trkpt>
      <trkpt lat="45.66862" lon="3.18118">
        <ele>468.9</ele>
        <time>2021-08-03T18:10:39Z</time>
      </trkpt>
      <trkpt lat="45.66864" lon="3.18122">
        <ele>469.2</ele>
        <time>2021-08-03T18:10:41Z</time>
      </trkpt>
      <trkpt lat="45.66864" lon="3.18127">
        <ele>469.7</ele>
        <time>2021-08-03T18:10:43Z</time>
      </trkpt>
      <trkpt lat="45.66866" lon="3.18131">
        <ele>470</ele>
        <time>2021-08-03T18:10:45Z</time>
      </trkpt>
      <trkpt lat="45.66867" lon="3.18135">
        <ele>470.3</ele>
        <time>2021-08-03T18:10:47Z</time>
      </trkpt>
      <trkpt lat="45.6687" lon="3.18137">
        <ele>470.2</ele>
        <time>2021-08-03T18:10:49Z</time>
      </trkpt>
      <trkpt lat="45.66872" lon="3.1814">
        <ele>470.2</ele>
        <time>2021-08-03T18:10:51Z</time>
      </trkpt>
      <trkpt lat="45.66875" lon="3.18142">
        <ele>470.3</ele>
        <time>2021-08-03T18:10:53Z</time>
      </trkpt>
      <trkpt lat="45.66877" lon="3.18145">
        <ele>470.3</ele>
        <time>2021-08-03T18:10:55Z</time>
      </trkpt>
      <trkpt lat="45.6688" lon="3.18148">
        <ele>470.2</ele>
        <time>2021-08-03T18:10:57Z</time>
      </trkpt>
      <trkpt lat="45.66885" lon="3.18151">
        <ele>470</ele>
        <time>2021-08-03T18:10:59Z</time>
      </trkpt>
      <trkpt lat="45.6689" lon="3.18152">
        <ele>469.6</ele>
        <time>2021-08-03T18:11:01Z</time>
      </trkpt>
      <trkpt lat="45.66896" lon="3.18154">
        <ele>469</ele>
        <time>2021-08-03T18:11:03Z</time>
      </trkpt>
      <trkpt lat="45.66903" lon="3.18156">
        <ele>468.4</ele>
        <time>2021-08-03T18:11:05Z</time>
      </trkpt>
      <trkpt lat="45.6691" lon="3.18158">
        <ele>467.8</ele>
        <time>2021-08-03T18:11:07Z</time>
      </trkpt>
      <trkpt lat="45.66918" lon="3.18161">
        <ele>467.2</ele>
        <time>2021-08-03T18:11:09Z</time>
      </trkpt>
      <trkpt lat="45.66925" lon="3.18164">
        <ele>466.8</ele>
        <time>2021-08-03T18:11:11Z</time>
      </trkpt>
      <trkpt lat="45.66933" lon="3.18167">
        <ele>466.3</ele>
        <time>2021-08-03T18:11:13Z</time>
      </trkpt>
      <trkpt lat="45.66941" lon="3.18169">
        <ele>465.7</ele>
        <time>2021-08-03T18:11:15Z</time>
      </trkpt>
      <trkpt lat="45.66948" lon="3.18171">
        <ele>465.1</ele>
        <time>2021-08-03T18:11:17Z</time>
      </trkpt>
      <trkpt lat="45.66953" lon="3.18171">
        <ele>464.5</ele>
        <time>2021-08-03T18:11:19Z</time>
      </trkpt>
      <trkpt lat="45.66957" lon="3.18172">
        <ele>464.2</ele>
        <time>2021-08-03T18:11:21Z</time>
      </trkpt>
      <trkpt lat="45.66962" lon="3.18172">
        <ele>463.6</ele>
        <time>2021-08-03T18:11:23Z</time>
      </trkpt>
      <trkpt lat="45.6697" lon="3.18172">
        <ele>462.8</ele>
        <time>2021-08-03T18:11:25Z</time>
      </trkpt>
      <trkpt lat="45.66978" lon="3.18172">
        <ele>461.9</ele>
        <time>2021-08-03T18:11:27Z</time>
      </trkpt>
      <trkpt lat="45.66988" lon="3.18171">
        <ele>460.7</ele>
        <time>2021-08-03T18:11:29Z</time>
      </trkpt>
      <trkpt lat="45.66999" lon="3.18169">
        <ele>459.4</ele>
        <time>2021-08-03T18:11:31Z</time>
      </trkpt>
      <trkpt lat="45.67011" lon="3.18167">
        <ele>457.5</ele>
        <time>2021-08-03T18:11:33Z</time>
      </trkpt>
      <trkpt lat="45.67024" lon="3.18163">
        <ele>455.3</ele>
        <time>2021-08-03T18:11:35Z</time>
      </trkpt>
      <trkpt lat="45.67038" lon="3.1816">
        <ele>453</ele>
        <time>2021-08-03T18:11:37Z</time>
      </trkpt>
      <trkpt lat="45.67053" lon="3.18156">
        <ele>450.7</ele>
        <time>2021-08-03T18:11:39Z</time>
      </trkpt>
      <trkpt lat="45.67068" lon="3.18152">
        <ele>448.4</ele>
        <time>2021-08-03T18:11:41Z</time>
      </trkpt>
      <trkpt lat="45.67083" lon="3.18149">
        <ele>446.1</ele>
        <time>2021-08-03T18:11:43Z</time>
      </trkpt>
      <trkpt lat="45.67098" lon="3.18146">
        <ele>444.2</ele>
        <time>2021-08-03T18:11:45Z</time>
      </trkpt>
      <trkpt lat="45.67113" lon="3.18152">
        <ele>442.7</ele>
        <time>2021-08-03T18:11:47Z</time>
      </trkpt>
      <trkpt lat="45.67129" lon="3.18161">
        <ele>441.3</ele>
        <time>2021-08-03T18:11:49Z</time>
      </trkpt>
      <trkpt lat="45.67145" lon="3.18172">
        <ele>440</ele>
        <time>2021-08-03T18:11:51Z</time>
      </trkpt>
      <trkpt lat="45.67161" lon="3.18182">
        <ele>438.8</ele>
        <time>2021-08-03T18:11:53Z</time>
      </trkpt>
      <trkpt lat="45.67176" lon="3.1819">
        <ele>437.3</ele>
        <time>2021-08-03T18:11:55Z</time>
      </trkpt>
      <trkpt lat="45.6719" lon="3.18199">
        <ele>436</ele>
        <time>2021-08-03T18:11:57Z</time>
      </trkpt>
      <trkpt lat="45.67204" lon="3.18207">
        <ele>434.6</ele>
        <time>2021-08-03T18:11:59Z</time>
      </trkpt>
      <trkpt lat="45.67217" lon="3.18213">
        <ele>433.1</ele>
        <time>2021-08-03T18:12:01Z</time>
      </trkpt>
      <trkpt lat="45.6723" lon="3.18218">
        <ele>431.6</ele>
        <time>2021-08-03T18:12:03Z</time>
      </trkpt>
      <trkpt lat="45.67243" lon="3.18223">
        <ele>430.1</ele>
        <time>2021-08-03T18:12:05Z</time>
      </trkpt>
      <trkpt lat="45.67254" lon="3.18228">
        <ele>429</ele>
        <time>2021-08-03T18:12:07Z</time>
      </trkpt>
      <trkpt lat="45.67265" lon="3.18237">
        <ele>428.4</ele>
        <time>2021-08-03T18:12:09Z</time>
      </trkpt>
      <trkpt lat="45.67272" lon="3.18252">
        <ele>428.7</ele>
        <time>2021-08-03T18:12:11Z</time>
      </trkpt>
      <trkpt lat="45.67276" lon="3.18266">
        <ele>429.4</ele>
        <time>2021-08-03T18:12:13Z</time>
      </trkpt>
      <trkpt lat="45.67277" lon="3.18278">
        <ele>430.1</ele>
        <time>2021-08-03T18:12:15Z</time>
      </trkpt>
      <trkpt lat="45.6728" lon="3.18288">
        <ele>430.5</ele>
        <time>2021-08-03T18:12:17Z</time>
      </trkpt>
      <trkpt lat="45.67282" lon="3.18297">
        <ele>430.8</ele>
        <time>2021-08-03T18:12:19Z</time>
      </trkpt>
      <trkpt lat="45.67284" lon="3.18305">
        <ele>431.2</ele>
        <time>2021-08-03T18:12:21Z</time>
      </trkpt>
      <trkpt lat="45.67286" lon="3.18312">
        <ele>431.3</ele>
        <time>2021-08-03T18:12:23Z</time>
      </trkpt>
      <trkpt lat="45.67288" lon="3.18319">
        <ele>431.5</ele>
        <time>2021-08-03T18:12:25Z</time>
      </trkpt>
      <trkpt lat="45.6729" lon="3.18326">
        <ele>431.7</ele>
        <time>2021-08-03T18:12:27Z</time>
      </trkpt>
      <trkpt lat="45.67292" lon="3.18332">
        <ele>431.9</ele>
        <time>2021-08-03T18:12:29Z</time>
      </trkpt>
      <trkpt lat="45.67293" lon="3.18339">
        <ele>432.1</ele>
        <time>2021-08-03T18:12:31Z</time>
      </trkpt>
      <trkpt lat="45.67294" lon="3.18344">
        <ele>432.3</ele>
        <time>2021-08-03T18:12:33Z</time>
      </trkpt>
      <trkpt lat="45.67294" lon="3.1835">
        <ele>432.5</ele>
        <time>2021-08-03T18:12:35Z</time>
      </trkpt>
      <trkpt lat="45.67295" lon="3.18356">
        <ele>432.8</ele>
        <time>2021-08-03T18:12:37Z</time>
      </trkpt>
      <trkpt lat="45.67295" lon="3.18362">
        <ele>433.1</ele>
        <time>2021-08-03T18:12:39Z</time>
      </trkpt>
      <trkpt lat="45.67295" lon="3.18368">
        <ele>433.5</ele>
        <time>2021-08-03T18:12:41Z</time>
      </trkpt>
      <trkpt lat="45.67294" lon="3.18373">
        <ele>433.9</ele>
        <time>2021-08-03T18:12:43Z</time>
      </trkpt>
      <trkpt lat="45.67293" lon="3.18378">
        <ele>434.3</ele>
        <time>2021-08-03T18:12:45Z</time>
      </trkpt>
      <trkpt lat="45.67293" lon="3.18383">
        <ele>434.5</ele>
        <time>2021-08-03T18:12:47Z</time>
      </trkpt>
      <trkpt lat="45.67291" lon="3.18388">
        <ele>435</ele>
        <time>2021-08-03T18:12:49Z</time>
      </trkpt>
      <trkpt lat="45.67289" lon="3.18393">
        <ele>435.6</ele>
        <time>2021-08-03T18:12:51Z</time>
      </trkpt>
      <trkpt lat="45.67287" lon="3.18398">
        <ele>436.1</ele>
        <time>2021-08-03T18:12:53Z</time>
      </trkpt>
      <trkpt lat="45.67285" lon="3.18403">
        <ele>436.6</ele>
        <time>2021-08-03T18:12:55Z</time>
      </trkpt>
      <trkpt lat="45.67285" lon="3.18406">
        <ele>436.9</ele>
        <time>2021-08-03T18:12:57Z</time>
      </trkpt>
      <trkpt lat="45.67283" lon="3.18409">
        <ele>437.2</ele>
        <time>2021-08-03T18:12:59Z</time>
      </trkpt>
      <trkpt lat="45.67282" lon="3.18413">
        <ele>437.6</ele>
        <time>2021-08-03T18:13:01Z</time>
      </trkpt>
      <trkpt lat="45.6728" lon="3.18418">
        <ele>438.1</ele>
        <time>2021-08-03T18:13:03Z</time>
      </trkpt>
      <trkpt lat="45.67279" lon="3.18422">
        <ele>438.4</ele>
        <time>2021-08-03T18:13:05Z</time>
      </trkpt>
      <trkpt lat="45.67277" lon="3.18426">
        <ele>438.8</ele>
        <time>2021-08-03T18:13:07Z</time>
      </trkpt>
      <trkpt lat="45.67275" lon="3.18431">
        <ele>439.2</ele>
        <time>2021-08-03T18:13:09Z</time>
      </trkpt>
      <trkpt lat="45.67274" lon="3.18435">
        <ele>439.5</ele>
        <time>2021-08-03T18:13:11Z</time>
      </trkpt>
      <trkpt lat="45.67273" lon="3.18439">
        <ele>439.8</ele>
        <time>2021-08-03T18:13:13Z</time>
      </trkpt>
      <trkpt lat="45.67271" lon="3.18444">
        <ele>440.1</ele>
        <time>2021-08-03T18:13:15Z</time>
      </trkpt>
      <trkpt lat="45.6727" lon="3.18448">
        <ele>440.4</ele>
        <time>2021-08-03T18:13:17Z</time>
      </trkpt>
      <trkpt lat="45.67269" lon="3.18453">
        <ele>440.8</ele>
        <time>2021-08-03T18:13:19Z</time>
      </trkpt>
      <trkpt lat="45.67268" lon="3.18457">
        <ele>441.1</ele>
        <time>2021-08-03T18:13:21Z</time>
      </trkpt>
      <trkpt lat="45.67268" lon="3.18462">
        <ele>441.3</ele>
        <time>2021-08-03T18:13:23Z</time>
      </trkpt>
      <trkpt lat="45.67268" lon="3.18466">
        <ele>441.4</ele>
        <time>2021-08-03T18:13:25Z</time>
      </trkpt>
      <trkpt lat="45.67267" lon="3.1847">
        <ele>441.7</ele>
        <time>2021-08-03T18:13:27Z</time>
      </trkpt>
      <trkpt lat="45.67266" lon="3.18474">
        <ele>442</ele>
        <time>2021-08-03T18:13:29Z</time>
      </trkpt>
      <trkpt lat="45.67265" lon="3.18479">
        <ele>442.2</ele>
        <time>2021-08-03T18:13:31Z</time>
      </trkpt>
      <trkpt lat="45.67265" lon="3.18484">
        <ele>442.5</ele>
        <time>2021-08-03T18:13:33Z</time>
      </trkpt>
      <trkpt lat="45.67265" lon="3.18489">
        <ele>442.7</ele>
        <time>2021-08-03T18:13:35Z</time>
      </trkpt>
      <trkpt lat="45.67264" lon="3.18494">
        <ele>442.9</ele>
        <time>2021-08-03T18:13:37Z</time>
      </trkpt>
      <trkpt lat="45.67264" lon="3.18498">
        <ele>443.1</ele>
        <time>2021-08-03T18:13:39Z</time>
      </trkpt>
      <trkpt lat="45.67264" lon="3.18504">
        <ele>443.3</ele>
        <time>2021-08-03T18:13:41Z</time>
      </trkpt>
      <trkpt lat="45.67264" lon="3.18509">
        <ele>443.6</ele>
        <time>2021-08-03T18:13:43Z</time>
      </trkpt>
      <trkpt lat="45.67264" lon="3.18513">
        <ele>443.8</ele>
        <time>2021-08-03T18:13:45Z</time>
      </trkpt>
      <trkpt lat="45.67263" lon="3.18518">
        <ele>444.1</ele>
        <time>2021-08-03T18:13:47Z</time>
      </trkpt>
      <trkpt lat="45.67263" lon="3.18523">
        <ele>444.4</ele>
        <time>2021-08-03T18:13:49Z</time>
      </trkpt>
      <trkpt lat="45.67263" lon="3.18527">
        <ele>444.6</ele>
        <time>2021-08-03T18:13:51Z</time>
      </trkpt>
      <trkpt lat="45.67263" lon="3.18531">
        <ele>444.8</ele>
        <time>2021-08-03T18:13:53Z</time>
      </trkpt>
      <trkpt lat="45.67263" lon="3.18535">
        <ele>444.9</ele>
        <time>2021-08-03T18:13:55Z</time>
      </trkpt>
      <trkpt lat="45.67265" lon="3.18538">
        <ele>444.8</ele>
        <time>2021-08-03T18:13:57Z</time>
      </trkpt>
      <trkpt lat="45.67266" lon="3.1854">
        <ele>444.7</ele>
        <time>2021-08-03T18:13:59Z</time>
      </trkpt>
      <trkpt lat="45.67266" lon="3.18541">
        <ele>444.7</ele>
        <time>2021-08-03T18:14:01Z</time>
      </trkpt>
      <trkpt lat="45.67266" lon="3.1854">
        <ele>444.7</ele>
        <time>2021-08-03T18:14:03Z</time>
      </trkpt>
      <trkpt lat="45.67266" lon="3.1854">
        <ele>444.7</ele>
        <time>2021-08-03T18:14:05Z</time>
      </trkpt>
      <trkpt lat="45.67266" lon="3.1854">
        <ele>444.7</ele>
        <time>2021-08-03T18:14:07Z</time>
      </trkpt>
      <trkpt lat="45.67282" lon="3.18526">
        <ele>441.9</ele>
        <time>2021-08-03T18:14:51Z</time>
      </trkpt>
      <trkpt lat="45.67288" lon="3.18526">
        <ele>441.1</ele>
        <time>2021-08-03T18:14:53Z</time>
      </trkpt>
      <trkpt lat="45.67294" lon="3.18524">
        <ele>440.2</ele>
        <time>2021-08-03T18:14:55Z</time>
      </trkpt>
      <trkpt lat="45.673" lon="3.18521">
        <ele>439.3</ele>
        <time>2021-08-03T18:14:57Z</time>
      </trkpt>
      <trkpt lat="45.67305" lon="3.18519">
        <ele>438.5</ele>
        <time>2021-08-03T18:14:59Z</time>
      </trkpt>
      <trkpt lat="45.67311" lon="3.18518">
        <ele>437.7</ele>
        <time>2021-08-03T18:15:01Z</time>
      </trkpt>
      <trkpt lat="45.67315" lon="3.18515">
        <ele>437</ele>
        <time>2021-08-03T18:15:03Z</time>
      </trkpt>
      <trkpt lat="45.6732" lon="3.18514">
        <ele>436.3</ele>
        <time>2021-08-03T18:15:05Z</time>
      </trkpt>
      <trkpt lat="45.67325" lon="3.18512">
        <ele>435.5</ele>
        <time>2021-08-03T18:15:07Z</time>
      </trkpt>
      <trkpt lat="45.67332" lon="3.18511">
        <ele>434.6</ele>
        <time>2021-08-03T18:15:09Z</time>
      </trkpt>
      <trkpt lat="45.67337" lon="3.1851">
        <ele>434</ele>
        <time>2021-08-03T18:15:11Z</time>
      </trkpt>
      <trkpt lat="45.67342" lon="3.18509">
        <ele>433.4</ele>
        <time>2021-08-03T18:15:13Z</time>
      </trkpt>
      <trkpt lat="45.67347" lon="3.18508">
        <ele>432.8</ele>
        <time>2021-08-03T18:15:15Z</time>
      </trkpt>
      <trkpt lat="45.67353" lon="3.18506">
        <ele>432.1</ele>
        <time>2021-08-03T18:15:17Z</time>
      </trkpt>
      <trkpt lat="45.67357" lon="3.18506">
        <ele>431.7</ele>
        <time>2021-08-03T18:15:19Z</time>
      </trkpt>
      <trkpt lat="45.67363" lon="3.18505">
        <ele>431</ele>
        <time>2021-08-03T18:15:21Z</time>
      </trkpt>
      <trkpt lat="45.67366" lon="3.18507">
        <ele>430.7</ele>
        <time>2021-08-03T18:15:23Z</time>
      </trkpt>
      <trkpt lat="45.6737" lon="3.18508">
        <ele>430.3</ele>
        <time>2021-08-03T18:15:25Z</time>
      </trkpt>
      <trkpt lat="45.67375" lon="3.1851">
        <ele>429.8</ele>
        <time>2021-08-03T18:15:27Z</time>
      </trkpt>
      <trkpt lat="45.67382" lon="3.18507">
        <ele>429</ele>
        <time>2021-08-03T18:15:29Z</time>
      </trkpt>
      <trkpt lat="45.67388" lon="3.18503">
        <ele>428.2</ele>
        <time>2021-08-03T18:15:31Z</time>
      </trkpt>
      <trkpt lat="45.67392" lon="3.18503">
        <ele>427.7</ele>
        <time>2021-08-03T18:15:33Z</time>
      </trkpt>
      <trkpt lat="45.67391" lon="3.18503">
        <ele>427.8</ele>
        <time>2021-08-03T18:15:35Z</time>
      </trkpt>
      <trkpt lat="45.67391" lon="3.18502">
        <ele>427.8</ele>
        <time>2021-08-03T18:15:37Z</time>
      </trkpt>
      <trkpt lat="45.67391" lon="3.18502">
        <ele>427.8</ele>
        <time>2021-08-03T18:15:39Z</time>
      </trkpt>
      <trkpt lat="45.67391" lon="3.18502">
        <ele>427.8</ele>
        <time>2021-08-03T18:15:41Z</time>
      </trkpt>
    </trkseg>
      <trkpt lat="45.67192" lon="3.19855">
        <ele>449.2</ele>
        <time>2021-08-04T09:02:12Z</time>
      </trkpt>
      <trkpt lat="45.67189" lon="3.19859">
        <ele>449.2</ele>
        <time>2021-08-04T09:02:14Z</time>
      </trkpt>
      <trkpt lat="45.67186" lon="3.19863">
        <ele>449.3</ele>
        <time>2021-08-04T09:02:16Z</time>
      </trkpt>
      <trkpt lat="45.67182" lon="3.19868">
        <ele>449.4</ele>
        <time>2021-08-04T09:02:18Z</time>
      </trkpt>
      <trkpt lat="45.67179" lon="3.19873">
        <ele>449.4</ele>
        <time>2021-08-04T09:02:20Z</time>
      </trkpt>
      <trkpt lat="45.67176" lon="3.19877">
        <ele>449.4</ele>
        <time>2021-08-04T09:02:22Z</time>
      </trkpt>
      <trkpt lat="45.67173" lon="3.19882">
        <ele>449.5</ele>
        <time>2021-08-04T09:02:24Z</time>
      </trkpt>
      <trkpt lat="45.6717" lon="3.19887">
        <ele>449.6</ele>
        <time>2021-08-04T09:02:26Z</time>
      </trkpt>
      <trkpt lat="45.67167" lon="3.19892">
        <ele>449.7</ele>
        <time>2021-08-04T09:02:28Z</time>
      </trkpt>
      <trkpt lat="45.67163" lon="3.19898">
        <ele>449.6</ele>
        <time>2021-08-04T09:02:30Z</time>
      </trkpt>
      <trkpt lat="45.67161" lon="3.19903">
        <ele>449.4</ele>
        <time>2021-08-04T09:02:32Z</time>
      </trkpt>
      <trkpt lat="45.67158" lon="3.19907">
        <ele>449.5</ele>
        <time>2021-08-04T09:02:34Z</time>
      </trkpt>
      <trkpt lat="45.67157" lon="3.19909">
        <ele>449.4</ele>
        <time>2021-08-04T09:02:36Z</time>
      </trkpt>
      <trkpt lat="45.67153" lon="3.19914">
        <ele>449.4</ele>
        <time>2021-08-04T09:02:38Z</time>
      </trkpt>
      <trkpt lat="45.67151" lon="3.19918">
        <ele>449.3</ele>
        <time>2021-08-04T09:02:40Z</time>
      </trkpt>
      <trkpt lat="45.67148" lon="3.19923">
        <ele>449</ele>
        <time>2021-08-04T09:02:42Z</time>
      </trkpt>
      <trkpt lat="45.67144" lon="3.19928">
        <ele>448.7</ele>
        <time>2021-08-04T09:02:44Z</time>
      </trkpt>
      <trkpt lat="45.67141" lon="3.19933">
        <ele>448.3</ele>
        <time>2021-08-04T09:02:46Z</time>
      </trkpt>
      <trkpt lat="45.67139" lon="3.19937">
        <ele>448.2</ele>
        <time>2021-08-04T09:02:48Z</time>
      </trkpt>
      <trkpt lat="45.67136" lon="3.19942">
        <ele>447.8</ele>
        <time>2021-08-04T09:02:50Z</time>
      </trkpt>
      <trkpt lat="45.67134" lon="3.19946">
        <ele>447.6</ele>
        <time>2021-08-04T09:02:52Z</time>
      </trkpt>
      <trkpt lat="45.67131" lon="3.19951">
        <ele>447.4</ele>
        <time>2021-08-04T09:02:54Z</time>
      </trkpt>
      <trkpt lat="45.67129" lon="3.19955">
        <ele>447.1</ele>
        <time>2021-08-04T09:02:56Z</time>
      </trkpt>
      <trkpt lat="45.67126" lon="3.19959">
        <ele>447</ele>
        <time>2021-08-04T09:02:58Z</time>
      </trkpt>
      <trkpt lat="45.67122" lon="3.19963">
        <ele>447.1</ele>
        <time>2021-08-04T09:03:00Z</time>
      </trkpt>
      <trkpt lat="45.67118" lon="3.19965">
        <ele>447.5</ele>
        <time>2021-08-04T09:03:02Z</time>
      </trkpt>
      <trkpt lat="45.67114" lon="3.19968">
        <ele>447.7</ele>
        <time>2021-08-04T09:03:04Z</time>
      </trkpt>
      <trkpt lat="45.6711" lon="3.1997">
        <ele>448.1</ele>
        <time>2021-08-04T09:03:06Z</time>
      </trkpt>
      <trkpt lat="45.67107" lon="3.19972">
        <ele>448.5</ele>
        <time>2021-08-04T09:03:08Z</time>
      </trkpt>
      <trkpt lat="45.67103" lon="3.19973">
        <ele>449</ele>
        <time>2021-08-04T09:03:10Z</time>
      </trkpt>
      <trkpt lat="45.67099" lon="3.19974">
        <ele>449.5</ele>
        <time>2021-08-04T09:03:12Z</time>
      </trkpt>
      <trkpt lat="45.67096" lon="3.19976">
        <ele>450</ele>
        <time>2021-08-04T09:03:14Z</time>
      </trkpt>
      <trkpt lat="45.67092" lon="3.19977">
        <ele>450.5</ele>
        <time>2021-08-04T09:03:16Z</time>
      </trkpt>
      <trkpt lat="45.67088" lon="3.19979">
        <ele>450.9</ele>
        <time>2021-08-04T09:03:18Z</time>
      </trkpt>
      <trkpt lat="45.67085" lon="3.1998">
        <ele>451.3</ele>
        <time>2021-08-04T09:03:20Z</time>
      </trkpt>
      <trkpt lat="45.67081" lon="3.19982">
        <ele>451.3</ele>
        <time>2021-08-04T09:03:22Z</time>
      </trkpt>
      <trkpt lat="45.67077" lon="3.19983">
        <ele>451</ele>
        <time>2021-08-04T09:03:24Z</time>
      </trkpt>
      <trkpt lat="45.67074" lon="3.19985">
        <ele>450.7</ele>
        <time>2021-08-04T09:03:26Z</time>
      </trkpt>
      <trkpt lat="45.6707" lon="3.19986">
        <ele>450.4</ele>
        <time>2021-08-04T09:03:28Z</time>
      </trkpt>
      <trkpt lat="45.67066" lon="3.19987">
        <ele>450.3</ele>
        <time>2021-08-04T09:03:30Z</time>
      </trkpt>
      <trkpt lat="45.67062" lon="3.19986">
        <ele>450.2</ele>
        <time>2021-08-04T09:03:32Z</time>
      </trkpt>
      <trkpt lat="45.67058" lon="3.19985">
        <ele>450.3</ele>
        <time>2021-08-04T09:03:34Z</time>
      </trkpt>
      <trkpt lat="45.67054" lon="3.19984">
        <ele>450.3</ele>
        <time>2021-08-04T09:03:36Z</time>
      </trkpt>
      <trkpt lat="45.6705" lon="3.19984">
        <ele>450.3</ele>
        <time>2021-08-04T09:03:38Z</time>
      </trkpt>
      <trkpt lat="45.67046" lon="3.19983">
        <ele>450.3</ele>
        <time>2021-08-04T09:03:40Z</time>
      </trkpt>
      <trkpt lat="45.67042" lon="3.19982">
        <ele>450.3</ele>
        <time>2021-08-04T09:03:42Z</time>
      </trkpt>
      <trkpt lat="45.67038" lon="3.1998">
        <ele>450.4</ele>
        <time>2021-08-04T09:03:44Z</time>
      </trkpt>
      <trkpt lat="45.67034" lon="3.19979">
        <ele>450.4</ele>
        <time>2021-08-04T09:03:46Z</time>
      </trkpt>
      <trkpt lat="45.67031" lon="3.19978">
        <ele>450.5</ele>
        <time>2021-08-04T09:03:48Z</time>
      </trkpt>
      <trkpt lat="45.67027" lon="3.19977">
        <ele>450.5</ele>
        <time>2021-08-04T09:03:50Z</time>
      </trkpt>
      <trkpt lat="45.67023" lon="3.19976">
        <ele>450.5</ele>
        <time>2021-08-04T09:03:52Z</time>
      </trkpt>
      <trkpt lat="45.67019" lon="3.19974">
        <ele>450.6</ele>
        <time>2021-08-04T09:03:54Z</time>
      </trkpt>
      <trkpt lat="45.67016" lon="3.19973">
        <ele>450.7</ele>
        <time>2021-08-04T09:03:56Z</time>
      </trkpt>
      <trkpt lat="45.67013" lon="3.1997">
        <ele>451</ele>
        <time>2021-08-04T09:03:58Z</time>
      </trkpt>
      <trkpt lat="45.67011" lon="3.19967">
        <ele>451.3</ele>
        <time>2021-08-04T09:04:00Z</time>
      </trkpt>
      <trkpt lat="45.67011" lon="3.19967">
        <ele>451.3</ele>
        <time>2021-08-04T09:04:02Z</time>
      </trkpt>
      <trkpt lat="45.67011" lon="3.19967">
        <ele>451.3</ele>
        <time>2021-08-04T09:04:04Z</time>
      </trkpt>
      <trkpt lat="45.67011" lon="3.19967">
        <ele>451.3</ele>
        <time>2021-08-04T09:04:06Z</time>
      </trkpt>
      <trkpt lat="45.67011" lon="3.19967">
        <ele>451.3</ele>
        <time>2021-08-04T09:04:08Z</time>
      </trkpt>
      <trkpt lat="45.67011" lon="3.19967">
        <ele>451.3</ele>
        <time>2021-08-04T09:04:10Z</time>
      </trkpt>
      <trkpt lat="45.67011" lon="3.19967">
        <ele>451.3</ele>
        <time>2021-08-04T09:04:12Z</time>
      </trkpt>
      <trkpt lat="45.67011" lon="3.19967">
        <ele>451.3</ele>
        <time>2021-08-04T09:04:14Z</time>
      </trkpt>
      <trkpt lat="45.67011" lon="3.19967">
        <ele>451.3</ele>
        <time>2021-08-04T09:04:16Z</time>
      </trkpt>
      <trkpt lat="45.67011" lon="3.19967">
        <ele>451.3</ele>
        <time>2021-08-04T09:04:18Z</time>
      </trkpt>
      <trkpt lat="45.67011" lon="3.19967">
        <ele>451.3</ele>
        <time>2021-08-04T09:04:20Z</time>
      </trkpt>
      <trkpt lat="45.67011" lon="3.19967">
        <ele>451.3</ele>
        <time>2021-08-04T09:04:22Z</time>
      </trkpt>
      <trkpt lat="45.67011" lon="3.19967">
        <ele>451.2</ele>
        <time>2021-08-04T09:04:24Z</time>
      </trkpt>
      <trkpt lat="45.67011" lon="3.19967">
        <ele>451.2</ele>
        <time>2021-08-04T09:04:26Z</time>
      </trkpt>
      <trkpt lat="45.67011" lon="3.19967">
        <ele>451.2</ele>
        <time>2021-08-04T09:04:28Z</time>
      </trkpt>
      <trkpt lat="45.67011" lon="3.19967">
        <ele>451.2</ele>
        <time>2021-08-04T09:04:32Z</time>
      </trkpt>
      <trkpt lat="45.67011" lon="3.19967">
        <ele>451.2</ele>
        <time>2021-08-04T09:04:34Z</time>
      </trkpt>
      <trkpt lat="45.6701" lon="3.19966">
        <ele>451.4</ele>
        <time>2021-08-04T09:04:36Z</time>
      </trkpt>
      <trkpt lat="45.67008" lon="3.19962">
        <ele>451.8</ele>
        <time>2021-08-04T09:04:38Z</time>
      </trkpt>
      <trkpt lat="45.67007" lon="3.19959">
        <ele>452.1</ele>
        <time>2021-08-04T09:04:40Z</time>
      </trkpt>
      <trkpt lat="45.67006" lon="3.19957">
        <ele>452.3</ele>
        <time>2021-08-04T09:04:42Z</time>
      </trkpt>
      <trkpt lat="45.67006" lon="3.19956">
        <ele>452.5</ele>
        <time>2021-08-04T09:04:44Z</time>
      </trkpt>
      <trkpt lat="45.67006" lon="3.19956">
        <ele>452.4</ele>
        <time>2021-08-04T09:04:46Z</time>
      </trkpt>
      <trkpt lat="45.67006" lon="3.19956">
        <ele>452.4</ele>
        <time>2021-08-04T09:04:48Z</time>
      </trkpt>
      <trkpt lat="45.67006" lon="3.19956">
        <ele>452.5</ele>
        <time>2021-08-04T09:04:50Z</time>
      </trkpt>
      <trkpt lat="45.67006" lon="3.19956">
        <ele>452.5</ele>
        <time>2021-08-04T09:04:52Z</time>
      </trkpt>
      <trkpt lat="45.67005" lon="3.19955">
        <ele>452.5</ele>
        <time>2021-08-04T09:04:54Z</time>
      </trkpt>
      <trkpt lat="45.67005" lon="3.19955">
        <ele>452.5</ele>
        <time>2021-08-04T09:04:56Z</time>
      </trkpt>
      <trkpt lat="45.67005" lon="3.19955">
        <ele>452.5</ele>
        <time>2021-08-04T09:04:58Z</time>
      </trkpt>
      <trkpt lat="45.67005" lon="3.19955">
        <ele>452.5</ele>
        <time>2021-08-04T09:05:00Z</time>
      </trkpt>
      <trkpt lat="45.67005" lon="3.19955">
        <ele>452.5</ele>
        <time>2021-08-04T09:05:02Z</time>
      </trkpt>
      <trkpt lat="45.67005" lon="3.19955">
        <ele>452.5</ele>
        <time>2021-08-04T09:05:04Z</time>
      </trkpt>
      <trkpt lat="45.67005" lon="3.19955">
        <ele>452.5</ele>
        <time>2021-08-04T09:05:06Z</time>
      </trkpt>
      <trkpt lat="45.67005" lon="3.19955">
        <ele>452.6</ele>
        <time>2021-08-04T09:05:08Z</time>
      </trkpt>
      <trkpt lat="45.67005" lon="3.19955">
        <ele>452.5</ele>
        <time>2021-08-04T09:05:10Z</time>
      </trkpt>
      <trkpt lat="45.67004" lon="3.19955">
        <ele>452.5</ele>
        <time>2021-08-04T09:05:12Z</time>
      </trkpt>
      <trkpt lat="45.67005" lon="3.19955">
        <ele>452.5</ele>
        <time>2021-08-04T09:05:14Z</time>
      </trkpt>
      <trkpt lat="45.67005" lon="3.19955">
        <ele>452.5</ele>
        <time>2021-08-04T09:05:16Z</time>
      </trkpt>
      <trkpt lat="45.67004" lon="3.19955">
        <ele>452.5</ele>
        <time>2021-08-04T09:05:18Z</time>
      </trkpt>
      <trkpt lat="45.67004" lon="3.19955">
        <ele>452.5</ele>
        <time>2021-08-04T09:05:20Z</time>
      </trkpt>
      <trkpt lat="45.67004" lon="3.19955">
        <ele>452.5</ele>
        <time>2021-08-04T09:05:22Z</time>
      </trkpt>
      <trkpt lat="45.67004" lon="3.19955">
        <ele>452.5</ele>
        <time>2021-08-04T09:05:24Z</time>
      </trkpt>
      <trkpt lat="45.67004" lon="3.19955">
        <ele>452.5</ele>
        <time>2021-08-04T09:05:26Z</time>
      </trkpt>
      <trkpt lat="45.67004" lon="3.19955">
        <ele>452.5</ele>
        <time>2021-08-04T09:05:28Z</time>
      </trkpt>
      <trkpt lat="45.67004" lon="3.19955">
        <ele>452.5</ele>
        <time>2021-08-04T09:05:30Z</time>
      </trkpt>
      <trkpt lat="45.67004" lon="3.19955">
        <ele>452.5</ele>
        <time>2021-08-04T09:05:32Z</time>
      </trkpt>
      <trkpt lat="45.67004" lon="3.19955">
        <ele>452.5</ele>
        <time>2021-08-04T09:05:34Z</time>
      </trkpt>
      <trkpt lat="45.67004" lon="3.19955">
        <ele>452.5</ele>
        <time>2021-08-04T09:05:36Z</time>
      </trkpt>
      <trkpt lat="45.67004" lon="3.19955">
        <ele>452.5</ele>
        <time>2021-08-04T09:05:38Z</time>
      </trkpt>
      <trkpt lat="45.67004" lon="3.19955">
        <ele>452.5</ele>
        <time>2021-08-04T09:05:40Z</time>
      </trkpt>
      <trkpt lat="45.67004" lon="3.19956">
        <ele>452.5</ele>
        <time>2021-08-04T09:05:42Z</time>
      </trkpt>
      <trkpt lat="45.67005" lon="3.19956">
        <ele>452.5</ele>
        <time>2021-08-04T09:05:44Z</time>
      </trkpt>
      <trkpt lat="45.67005" lon="3.19955">
        <ele>452.5</ele>
        <time>2021-08-04T09:05:46Z</time>
      </trkpt>
      <trkpt lat="45.67004" lon="3.19955">
        <ele>452.5</ele>
        <time>2021-08-04T09:05:48Z</time>
      </trkpt>
      <trkpt lat="45.67004" lon="3.19955">
        <ele>452.5</ele>
        <time>2021-08-04T09:05:50Z</time>
      </trkpt>
      <trkpt lat="45.67004" lon="3.19955">
        <ele>452.5</ele>
        <time>2021-08-04T09:05:52Z</time>
      </trkpt>
      <trkpt lat="45.67004" lon="3.19955">
        <ele>452.5</ele>
        <time>2021-08-04T09:05:54Z</time>
      </trkpt>
      <trkpt lat="45.67004" lon="3.19955">
        <ele>452.5</ele>
        <time>2021-08-04T09:05:56Z</time>
      </trkpt>
      <trkpt lat="45.67004" lon="3.19955">
        <ele>452.5</ele>
        <time>2021-08-04T09:05:58Z</time>
      </trkpt>
      <trkpt lat="45.67004" lon="3.19955">
        <ele>452.6</ele>
        <time>2021-08-04T09:06:00Z</time>
      </trkpt>
      <trkpt lat="45.67004" lon="3.19955">
        <ele>452.6</ele>
        <time>2021-08-04T09:06:02Z</time>
      </trkpt>
      <trkpt lat="45.67004" lon="3.19955">
        <ele>452.6</ele>
        <time>2021-08-04T09:06:04Z</time>
      </trkpt>
      <trkpt lat="45.67004" lon="3.19955">
        <ele>452.6</ele>
        <time>2021-08-04T09:06:06Z</time>
      </trkpt>
      <trkpt lat="45.67004" lon="3.19955">
        <ele>452.5</ele>
        <time>2021-08-04T09:06:08Z</time>
      </trkpt>
      <trkpt lat="45.67004" lon="3.19955">
        <ele>452.6</ele>
        <time>2021-08-04T09:06:10Z</time>
      </trkpt>
      <trkpt lat="45.67004" lon="3.19955">
        <ele>452.6</ele>
        <time>2021-08-04T09:06:12Z</time>
      </trkpt>
      <trkpt lat="45.67004" lon="3.19955">
        <ele>452.6</ele>
        <time>2021-08-04T09:06:14Z</time>
      </trkpt>
      <trkpt lat="45.67004" lon="3.19955">
        <ele>452.6</ele>
        <time>2021-08-04T09:06:16Z</time>
      </trkpt>
      <trkpt lat="45.67004" lon="3.19954">
        <ele>452.6</ele>
        <time>2021-08-04T09:06:18Z</time>
      </trkpt>
      <trkpt lat="45.67004" lon="3.19955">
        <ele>452.6</ele>
        <time>2021-08-04T09:06:20Z</time>
      </trkpt>
      <trkpt lat="45.67004" lon="3.19955">
        <ele>452.6</ele>
        <time>2021-08-04T09:06:22Z</time>
      </trkpt>
      <trkpt lat="45.67004" lon="3.19955">
        <ele>452.6</ele>
        <time>2021-08-04T09:06:24Z</time>
      </trkpt>
      <trkpt lat="45.67004" lon="3.19955">
        <ele>452.6</ele>
        <time>2021-08-04T09:06:26Z</time>
      </trkpt>
      <trkpt lat="45.67005" lon="3.19955">
        <ele>452.6</ele>
        <time>2021-08-04T09:06:28Z</time>
      </trkpt>
      <trkpt lat="45.67005" lon="3.19955">
        <ele>452.5</ele>
        <time>2021-08-04T09:06:30Z</time>
      </trkpt>
      <trkpt lat="45.67005" lon="3.19956">
        <ele>452.5</ele>
        <time>2021-08-04T09:06:32Z</time>
      </trkpt>
      <trkpt lat="45.67004" lon="3.19955">
        <ele>452.5</ele>
        <time>2021-08-04T09:06:34Z</time>
      </trkpt>
      <trkpt lat="45.67004" lon="3.19956">
        <ele>452.5</ele>
        <time>2021-08-04T09:06:36Z</time>
      </trkpt>
      <trkpt lat="45.67004" lon="3.19956">
        <ele>452.5</ele>
        <time>2021-08-04T09:06:38Z</time>
      </trkpt>
      <trkpt lat="45.67004" lon="3.19956">
        <ele>452.4</ele>
        <time>2021-08-04T09:06:40Z</time>
      </trkpt>
      <trkpt lat="45.67004" lon="3.19956">
        <ele>452.4</ele>
        <time>2021-08-04T09:06:42Z</time>
      </trkpt>
      <trkpt lat="45.67004" lon="3.19956">
        <ele>452.4</ele>
        <time>2021-08-04T09:06:46Z</time>
      </trkpt>
      <trkpt lat="45.67004" lon="3.19956">
        <ele>452.4</ele>
        <time>2021-08-04T09:06:48Z</time>
      </trkpt>
      <trkpt lat="45.67004" lon="3.19956">
        <ele>452.4</ele>
        <time>2021-08-04T09:06:50Z</time>
      </trkpt>
      <trkpt lat="45.67004" lon="3.19956">
        <ele>452.4</ele>
        <time>2021-08-04T09:06:54Z</time>
      </trkpt>
      <trkpt lat="45.67004" lon="3.19956">
        <ele>452.4</ele>
        <time>2021-08-04T09:06:58Z</time>
      </trkpt>
      <trkpt lat="45.67004" lon="3.19956">
        <ele>452.4</ele>
        <time>2021-08-04T09:07:00Z</time>
      </trkpt>
      <trkpt lat="45.67004" lon="3.19956">
        <ele>452.4</ele>
        <time>2021-08-04T09:07:02Z</time>
      </trkpt>
      <trkpt lat="45.67004" lon="3.19956">
        <ele>452.4</ele>
        <time>2021-08-04T09:07:06Z</time>
      </trkpt>
      <trkpt lat="45.67004" lon="3.19956">
        <ele>452.4</ele>
        <time>2021-08-04T09:07:10Z</time>
      </trkpt>
      <trkpt lat="45.67004" lon="3.19956">
        <ele>452.4</ele>
        <time>2021-08-04T09:07:12Z</time>
      </trkpt>
      <trkpt lat="45.67004" lon="3.19956">
        <ele>452.4</ele>
        <time>2021-08-04T09:07:14Z</time>
      </trkpt>
      <trkpt lat="45.67004" lon="3.19956">
        <ele>452.4</ele>
        <time>2021-08-04T09:07:16Z</time>
      </trkpt>
      <trkpt lat="45.67004" lon="3.19956">
        <ele>452.4</ele>
        <time>2021-08-04T09:07:18Z</time>
      </trkpt>
      <trkpt lat="45.67005" lon="3.19954">
        <ele>452.7</ele>
        <time>2021-08-04T09:07:20Z</time>
      </trkpt>
      <trkpt lat="45.67006" lon="3.19953">
        <ele>452.8</ele>
        <time>2021-08-04T09:07:22Z</time>
      </trkpt>
      <trkpt lat="45.67006" lon="3.19952">
        <ele>452.9</ele>
        <time>2021-08-04T09:07:24Z</time>
      </trkpt>
      <trkpt lat="45.67006" lon="3.19952">
        <ele>452.9</ele>
        <time>2021-08-04T09:07:26Z</time>
      </trkpt>
      <trkpt lat="45.67006" lon="3.19952">
        <ele>453</ele>
        <time>2021-08-04T09:07:28Z</time>
      </trkpt>
      <trkpt lat="45.67006" lon="3.19951">
        <ele>453</ele>
        <time>2021-08-04T09:07:30Z</time>
      </trkpt>
      <trkpt lat="45.67006" lon="3.19951">
        <ele>453</ele>
        <time>2021-08-04T09:07:32Z</time>
      </trkpt>
      <trkpt lat="45.67006" lon="3.19951">
        <ele>453</ele>
        <time>2021-08-04T09:07:34Z</time>
      </trkpt>
      <trkpt lat="45.67006" lon="3.19951">
        <ele>453</ele>
        <time>2021-08-04T09:07:36Z</time>
      </trkpt>
      <trkpt lat="45.67006" lon="3.1995">
        <ele>453.2</ele>
        <time>2021-08-04T09:07:38Z</time>
      </trkpt>
      <trkpt lat="45.67006" lon="3.1995">
        <ele>453.2</ele>
        <time>2021-08-04T09:07:40Z</time>
      </trkpt>
      <trkpt lat="45.67006" lon="3.19949">
        <ele>453.3</ele>
        <time>2021-08-04T09:07:42Z</time>
      </trkpt>
      <trkpt lat="45.67005" lon="3.19949">
        <ele>453.3</ele>
        <time>2021-08-04T09:07:44Z</time>
      </trkpt>
      <trkpt lat="45.67005" lon="3.19949">
        <ele>453.3</ele>
        <time>2021-08-04T09:07:46Z</time>
      </trkpt>
      <trkpt lat="45.67005" lon="3.19949">
        <ele>453.2</ele>
        <time>2021-08-04T09:07:48Z</time>
      </trkpt>
      <trkpt lat="45.67005" lon="3.19949">
        <ele>453.2</ele>
        <time>2021-08-04T09:07:50Z</time>
      </trkpt>
      <trkpt lat="45.67005" lon="3.19949">
        <ele>453.3</ele>
        <time>2021-08-04T09:07:52Z</time>
      </trkpt>
      <trkpt lat="45.67005" lon="3.19949">
        <ele>453.3</ele>
        <time>2021-08-04T09:07:54Z</time>
      </trkpt>
      <trkpt lat="45.67005" lon="3.19949">
        <ele>453.3</ele>
        <time>2021-08-04T09:07:56Z</time>
      </trkpt>
      <trkpt lat="45.67005" lon="3.19949">
        <ele>453.3</ele>
        <time>2021-08-04T09:07:58Z</time>
      </trkpt>
      <trkpt lat="45.67005" lon="3.19949">
        <ele>453.3</ele>
        <time>2021-08-04T09:08:00Z</time>
      </trkpt>
      <trkpt lat="45.67005" lon="3.19949">
        <ele>453.3</ele>
        <time>2021-08-04T09:08:02Z</time>
      </trkpt>
      <trkpt lat="45.67005" lon="3.19949">
        <ele>453.3</ele>
        <time>2021-08-04T09:08:04Z</time>
      </trkpt>
      <trkpt lat="45.67005" lon="3.1995">
        <ele>453.2</ele>
        <time>2021-08-04T09:08:06Z</time>
      </trkpt>
      <trkpt lat="45.67005" lon="3.1995">
        <ele>453.2</ele>
        <time>2021-08-04T09:08:08Z</time>
      </trkpt>
      <trkpt lat="45.67005" lon="3.1995">
        <ele>453.2</ele>
        <time>2021-08-04T09:08:10Z</time>
      </trkpt>
      <trkpt lat="45.67005" lon="3.1995">
        <ele>453.2</ele>
        <time>2021-08-04T09:08:12Z</time>
      </trkpt>
      <trkpt lat="45.67006" lon="3.1995">
        <ele>453.2</ele>
        <time>2021-08-04T09:08:14Z</time>
      </trkpt>
      <trkpt lat="45.67005" lon="3.1995">
        <ele>453.1</ele>
        <time>2021-08-04T09:08:16Z</time>
      </trkpt>
      <trkpt lat="45.67005" lon="3.1995">
        <ele>453.1</ele>
        <time>2021-08-04T09:08:18Z</time>
      </trkpt>
      <trkpt lat="45.67005" lon="3.1995">
        <ele>453.2</ele>
        <time>2021-08-04T09:08:20Z</time>
      </trkpt>
      <trkpt lat="45.67005" lon="3.19951">
        <ele>453.1</ele>
        <time>2021-08-04T09:08:22Z</time>
      </trkpt>
      <trkpt lat="45.67005" lon="3.19951">
        <ele>453.1</ele>
        <time>2021-08-04T09:08:24Z</time>
      </trkpt>
      <trkpt lat="45.67005" lon="3.1995">
        <ele>453.1</ele>
        <time>2021-08-04T09:08:26Z</time>
      </trkpt>
      <trkpt lat="45.67005" lon="3.1995">
        <ele>453.1</ele>
        <time>2021-08-04T09:08:28Z</time>
      </trkpt>
      <trkpt lat="45.67005" lon="3.1995">
        <ele>453.1</ele>
        <time>2021-08-04T09:08:30Z</time>
      </trkpt>
      <trkpt lat="45.67005" lon="3.19951">
        <ele>453.1</ele>
        <time>2021-08-04T09:08:32Z</time>
      </trkpt>
      <trkpt lat="45.67005" lon="3.19951">
        <ele>453.1</ele>
        <time>2021-08-04T09:08:34Z</time>
      </trkpt>
      <trkpt lat="45.67005" lon="3.1995">
        <ele>453.1</ele>
        <time>2021-08-04T09:08:36Z</time>
      </trkpt>
      <trkpt lat="45.67005" lon="3.1995">
        <ele>453.2</ele>
        <time>2021-08-04T09:08:38Z</time>
      </trkpt>
      <trkpt lat="45.67005" lon="3.1995">
        <ele>453.2</ele>
        <time>2021-08-04T09:08:40Z</time>
      </trkpt>
      <trkpt lat="45.67005" lon="3.1995">
        <ele>453.2</ele>
        <time>2021-08-04T09:08:42Z</time>
      </trkpt>
      <trkpt lat="45.67005" lon="3.1995">
        <ele>453.2</ele>
        <time>2021-08-04T09:08:44Z</time>
      </trkpt>
      <trkpt lat="45.67005" lon="3.1995">
        <ele>453.2</ele>
        <time>2021-08-04T09:08:46Z</time>
      </trkpt>
      <trkpt lat="45.67005" lon="3.1995">
        <ele>453.1</ele>
        <time>2021-08-04T09:08:48Z</time>
      </trkpt>
      <trkpt lat="45.67005" lon="3.1995">
        <ele>453.1</ele>
        <time>2021-08-04T09:08:50Z</time>
      </trkpt>
      <trkpt lat="45.67004" lon="3.19951">
        <ele>453.1</ele>
        <time>2021-08-04T09:08:52Z</time>
      </trkpt>
      <trkpt lat="45.67004" lon="3.19951">
        <ele>453.1</ele>
        <time>2021-08-04T09:08:54Z</time>
      </trkpt>
      <trkpt lat="45.67004" lon="3.19951">
        <ele>453.1</ele>
        <time>2021-08-04T09:08:56Z</time>
      </trkpt>
      <trkpt lat="45.67005" lon="3.1995">
        <ele>453.1</ele>
        <time>2021-08-04T09:08:58Z</time>
      </trkpt>
      <trkpt lat="45.67004" lon="3.1995">
        <ele>453.2</ele>
        <time>2021-08-04T09:09:00Z</time>
      </trkpt>
      <trkpt lat="45.67005" lon="3.1995">
        <ele>453.2</ele>
        <time>2021-08-04T09:09:02Z</time>
      </trkpt>
      <trkpt lat="45.67006" lon="3.1995">
        <ele>453.2</ele>
        <time>2021-08-04T09:09:04Z</time>
      </trkpt>
      <trkpt lat="45.67006" lon="3.19949">
        <ele>453.2</ele>
        <time>2021-08-04T09:09:06Z</time>
      </trkpt>
      <trkpt lat="45.67006" lon="3.19949">
        <ele>453.3</ele>
        <time>2021-08-04T09:09:08Z</time>
      </trkpt>
      <trkpt lat="45.67006" lon="3.19949">
        <ele>453.3</ele>
        <time>2021-08-04T09:09:10Z</time>
      </trkpt>
      <trkpt lat="45.67006" lon="3.19949">
        <ele>453.3</ele>
        <time>2021-08-04T09:09:12Z</time>
      </trkpt>
      <trkpt lat="45.67007" lon="3.19949">
        <ele>453.3</ele>
        <time>2021-08-04T09:09:14Z</time>
      </trkpt>
      <trkpt lat="45.67007" lon="3.19949">
        <ele>453.3</ele>
        <time>2021-08-04T09:09:16Z</time>
      </trkpt>
      <trkpt lat="45.67007" lon="3.19949">
        <ele>453.3</ele>
        <time>2021-08-04T09:09:18Z</time>
      </trkpt>
      <trkpt lat="45.67007" lon="3.19949">
        <ele>453.3</ele>
        <time>2021-08-04T09:09:20Z</time>
      </trkpt>
      <trkpt lat="45.67006" lon="3.19949">
        <ele>453.3</ele>
        <time>2021-08-04T09:09:22Z</time>
      </trkpt>
      <trkpt lat="45.67006" lon="3.19949">
        <ele>453.3</ele>
        <time>2021-08-04T09:09:24Z</time>
      </trkpt>
      <trkpt lat="45.67006" lon="3.1995">
        <ele>453.2</ele>
        <time>2021-08-04T09:09:26Z</time>
      </trkpt>
      <trkpt lat="45.67006" lon="3.1995">
        <ele>453.2</ele>
        <time>2021-08-04T09:09:28Z</time>
      </trkpt>
      <trkpt lat="45.67007" lon="3.1995">
        <ele>453.2</ele>
        <time>2021-08-04T09:09:30Z</time>
      </trkpt>
      <trkpt lat="45.67007" lon="3.1995">
        <ele>453.2</ele>
        <time>2021-08-04T09:09:32Z</time>
      </trkpt>
      <trkpt lat="45.67007" lon="3.1995">
        <ele>453.2</ele>
        <time>2021-08-04T09:09:34Z</time>
      </trkpt>
      <trkpt lat="45.67007" lon="3.1995">
        <ele>453.2</ele>
        <time>2021-08-04T09:09:36Z</time>
      </trkpt>
      <trkpt lat="45.67006" lon="3.1995">
        <ele>453.2</ele>
        <time>2021-08-04T09:09:38Z</time>
      </trkpt>
      <trkpt lat="45.67006" lon="3.1995">
        <ele>453.2</ele>
        <time>2021-08-04T09:09:40Z</time>
      </trkpt>
      <trkpt lat="45.67006" lon="3.1995">
        <ele>453.2</ele>
        <time>2021-08-04T09:09:42Z</time>
      </trkpt>
      <trkpt lat="45.67006" lon="3.1995">
        <ele>453.2</ele>
        <time>2021-08-04T09:09:44Z</time>
      </trkpt>
      <trkpt lat="45.67007" lon="3.1995">
        <ele>453.3</ele>
        <time>2021-08-04T09:09:46Z</time>
      </trkpt>
      <trkpt lat="45.67007" lon="3.1995">
        <ele>453.3</ele>
        <time>2021-08-04T09:09:48Z</time>
      </trkpt>
      <trkpt lat="45.67006" lon="3.19951">
        <ele>453</ele>
        <time>2021-08-04T09:09:50Z</time>
      </trkpt>
      <trkpt lat="45.67005" lon="3.19952">
        <ele>452.9</ele>
        <time>2021-08-04T09:09:52Z</time>
      </trkpt>
      <trkpt lat="45.67005" lon="3.19952">
        <ele>452.9</ele>
        <time>2021-08-04T09:09:54Z</time>
      </trkpt>
      <trkpt lat="45.67005" lon="3.19952">
        <ele>452.9</ele>
        <time>2021-08-04T09:09:56Z</time>
      </trkpt>
      <trkpt lat="45.67005" lon="3.19952">
        <ele>452.9</ele>
        <time>2021-08-04T09:09:58Z</time>
      </trkpt>
      <trkpt lat="45.67005" lon="3.19952">
        <ele>452.9</ele>
        <time>2021-08-04T09:10:00Z</time>
      </trkpt>
      <trkpt lat="45.67005" lon="3.19952">
        <ele>452.9</ele>
        <time>2021-08-04T09:10:02Z</time>
      </trkpt>
      <trkpt lat="45.67005" lon="3.19952">
        <ele>452.9</ele>
        <time>2021-08-04T09:10:04Z</time>
      </trkpt>
      <trkpt lat="45.67005" lon="3.19952">
        <ele>452.9</ele>
        <time>2021-08-04T09:10:06Z</time>
      </trkpt>
      <trkpt lat="45.67005" lon="3.19952">
        <ele>452.9</ele>
        <time>2021-08-04T09:10:08Z</time>
      </trkpt>
      <trkpt lat="45.67005" lon="3.19952">
        <ele>452.9</ele>
        <time>2021-08-04T09:10:10Z</time>
      </trkpt>
      <trkpt lat="45.67005" lon="3.19952">
        <ele>452.9</ele>
        <time>2021-08-04T09:10:12Z</time>
      </trkpt>
      <trkpt lat="45.67005" lon="3.19952">
        <ele>452.9</ele>
        <time>2021-08-04T09:10:14Z</time>
      </trkpt>
      <trkpt lat="45.67005" lon="3.19952">
        <ele>452.9</ele>
        <time>2021-08-04T09:10:16Z</time>
      </trkpt>
      <trkpt lat="45.67005" lon="3.19952">
        <ele>452.9</ele>
        <time>2021-08-04T09:10:18Z</time>
      </trkpt>
      <trkpt lat="45.67005" lon="3.19952">
        <ele>452.9</ele>
        <time>2021-08-04T09:10:20Z</time>
      </trkpt>
      <trkpt lat="45.67005" lon="3.19952">
        <ele>452.9</ele>
        <time>2021-08-04T09:10:22Z</time>
      </trkpt>
      <trkpt lat="45.67005" lon="3.19952">
        <ele>452.9</ele>
        <time>2021-08-04T09:10:24Z</time>
      </trkpt>
      <trkpt lat="45.67005" lon="3.19952">
        <ele>452.9</ele>
        <time>2021-08-04T09:10:26Z</time>
      </trkpt>
      <trkpt lat="45.67005" lon="3.19952">
        <ele>452.9</ele>
        <time>2021-08-04T09:10:28Z</time>
      </trkpt>
      <trkpt lat="45.67005" lon="3.19952">
        <ele>452.9</ele>
        <time>2021-08-04T09:10:30Z</time>
      </trkpt>
      <trkpt lat="45.67005" lon="3.19952">
        <ele>452.9</ele>
        <time>2021-08-04T09:10:32Z</time>
      </trkpt>
      <trkpt lat="45.67005" lon="3.19952">
        <ele>452.9</ele>
        <time>2021-08-04T09:10:34Z</time>
      </trkpt>
      <trkpt lat="45.67005" lon="3.19952">
        <ele>452.9</ele>
        <time>2021-08-04T09:10:36Z</time>
      </trkpt>
      <trkpt lat="45.67005" lon="3.19952">
        <ele>452.9</ele>
        <time>2021-08-04T09:10:38Z</time>
      </trkpt>
      <trkpt lat="45.67005" lon="3.19952">
        <ele>452.9</ele>
        <time>2021-08-04T09:10:40Z</time>
      </trkpt>
      <trkpt lat="45.67005" lon="3.19953">
        <ele>452.8</ele>
        <time>2021-08-04T09:10:42Z</time>
      </trkpt>
      <trkpt lat="45.67005" lon="3.19953">
        <ele>452.8</ele>
        <time>2021-08-04T09:10:44Z</time>
      </trkpt>
      <trkpt lat="45.67005" lon="3.19953">
        <ele>452.8</ele>
        <time>2021-08-04T09:10:46Z</time>
      </trkpt>
      <trkpt lat="45.67005" lon="3.19953">
        <ele>452.8</ele>
        <time>2021-08-04T09:10:48Z</time>
      </trkpt>
      <trkpt lat="45.67005" lon="3.19953">
        <ele>452.8</ele>
        <time>2021-08-04T09:10:50Z</time>
      </trkpt>
      <trkpt lat="45.67005" lon="3.19953">
        <ele>452.8</ele>
        <time>2021-08-04T09:10:52Z</time>
      </trkpt>
      <trkpt lat="45.67005" lon="3.19953">
        <ele>452.8</ele>
        <time>2021-08-04T09:10:54Z</time>
      </trkpt>
      <trkpt lat="45.67005" lon="3.19953">
        <ele>452.8</ele>
        <time>2021-08-04T09:10:56Z</time>
      </trkpt>
      <trkpt lat="45.67005" lon="3.19953">
        <ele>452.8</ele>
        <time>2021-08-04T09:10:58Z</time>
      </trkpt>
      <trkpt lat="45.67005" lon="3.19953">
        <ele>452.8</ele>
        <time>2021-08-04T09:11:00Z</time>
      </trkpt>
      <trkpt lat="45.67005" lon="3.19953">
        <ele>452.8</ele>
        <time>2021-08-04T09:11:02Z</time>
      </trkpt>
      <trkpt lat="45.67005" lon="3.19953">
        <ele>452.8</ele>
        <time>2021-08-04T09:11:04Z</time>
      </trkpt>
      <trkpt lat="45.67005" lon="3.19953">
        <ele>452.8</ele>
        <time>2021-08-04T09:11:06Z</time>
      </trkpt>
      <trkpt lat="45.67005" lon="3.19953">
        <ele>452.8</ele>
        <time>2021-08-04T09:11:08Z</time>
      </trkpt>
      <trkpt lat="45.67005" lon="3.19953">
        <ele>452.8</ele>
        <time>2021-08-04T09:11:10Z</time>
      </trkpt>
      <trkpt lat="45.67005" lon="3.19953">
        <ele>452.9</ele>
        <time>2021-08-04T09:11:12Z</time>
      </trkpt>
      <trkpt lat="45.67005" lon="3.19953">
        <ele>452.9</ele>
        <time>2021-08-04T09:11:14Z</time>
      </trkpt>
      <trkpt lat="45.67005" lon="3.19953">
        <ele>452.9</ele>
        <time>2021-08-04T09:11:16Z</time>
      </trkpt>
      <trkpt lat="45.67005" lon="3.19953">
        <ele>452.9</ele>
        <time>2021-08-04T09:11:18Z</time>
      </trkpt>
      <trkpt lat="45.67005" lon="3.19953">
        <ele>452.8</ele>
        <time>2021-08-04T09:11:20Z</time>
      </trkpt>
      <trkpt lat="45.67005" lon="3.19953">
        <ele>452.8</ele>
        <time>2021-08-04T09:11:22Z</time>
      </trkpt>
      <trkpt lat="45.67005" lon="3.19953">
        <ele>452.9</ele>
        <time>2021-08-04T09:11:24Z</time>
      </trkpt>
      <trkpt lat="45.67005" lon="3.19953">
        <ele>452.9</ele>
        <time>2021-08-04T09:11:26Z</time>
      </trkpt>
      <trkpt lat="45.67005" lon="3.19953">
        <ele>452.8</ele>
        <time>2021-08-04T09:11:30Z</time>
      </trkpt>
      <trkpt lat="45.67005" lon="3.19953">
        <ele>452.8</ele>
        <time>2021-08-04T09:11:32Z</time>
      </trkpt>
      <trkpt lat="45.67005" lon="3.19953">
        <ele>452.8</ele>
        <time>2021-08-04T09:11:34Z</time>
      </trkpt>
      <trkpt lat="45.67005" lon="3.19953">
        <ele>452.8</ele>
        <time>2021-08-04T09:11:36Z</time>
      </trkpt>
      <trkpt lat="45.67005" lon="3.19953">
        <ele>452.8</ele>
        <time>2021-08-04T09:11:38Z</time>
      </trkpt>
      <trkpt lat="45.67005" lon="3.19953">
        <ele>452.8</ele>
        <time>2021-08-04T09:11:40Z</time>
      </trkpt>
      <trkpt lat="45.67005" lon="3.19953">
        <ele>452.8</ele>
        <time>2021-08-04T09:11:42Z</time>
      </trkpt>
      <trkpt lat="45.67005" lon="3.19953">
        <ele>452.8</ele>
        <time>2021-08-04T09:11:44Z</time>
      </trkpt>
      <trkpt lat="45.67005" lon="3.19953">
        <ele>452.8</ele>
        <time>2021-08-04T09:11:48Z</time>
      </trkpt>
      <trkpt lat="45.67005" lon="3.19953">
        <ele>452.8</ele>
        <time>2021-08-04T09:11:50Z</time>
      </trkpt>
      <trkpt lat="45.67005" lon="3.19953">
        <ele>452.8</ele>
        <time>2021-08-04T09:11:52Z</time>
      </trkpt>
      <trkpt lat="45.67005" lon="3.19953">
        <ele>452.8</ele>
        <time>2021-08-04T09:11:56Z</time>
      </trkpt>
      <trkpt lat="45.67005" lon="3.19953">
        <ele>452.8</ele>
        <time>2021-08-04T09:11:58Z</time>
      </trkpt>
      <trkpt lat="45.67005" lon="3.19953">
        <ele>452.7</ele>
        <time>2021-08-04T09:12:02Z</time>
      </trkpt>
      <trkpt lat="45.67005" lon="3.19953">
        <ele>452.7</ele>
        <time>2021-08-04T09:12:04Z</time>
      </trkpt>
      <trkpt lat="45.67005" lon="3.19953">
        <ele>452.7</ele>
        <time>2021-08-04T09:12:06Z</time>
      </trkpt>
      <trkpt lat="45.67005" lon="3.19953">
        <ele>452.7</ele>
        <time>2021-08-04T09:12:08Z</time>
      </trkpt>
      <trkpt lat="45.67005" lon="3.19953">
        <ele>452.8</ele>
        <time>2021-08-04T09:12:10Z</time>
      </trkpt>
      <trkpt lat="45.67005" lon="3.19953">
        <ele>452.8</ele>
        <time>2021-08-04T09:12:12Z</time>
      </trkpt>
      <trkpt lat="45.67005" lon="3.19953">
        <ele>452.8</ele>
        <time>2021-08-04T09:12:14Z</time>
      </trkpt>
      <trkpt lat="45.67005" lon="3.19953">
        <ele>452.8</ele>
        <time>2021-08-04T09:12:18Z</time>
      </trkpt>
      <trkpt lat="45.67005" lon="3.19954">
        <ele>452.7</ele>
        <time>2021-08-04T09:12:20Z</time>
      </trkpt>
      <trkpt lat="45.67005" lon="3.19954">
        <ele>452.7</ele>
        <time>2021-08-04T09:12:22Z</time>
      </trkpt>
      <trkpt lat="45.67005" lon="3.19954">
        <ele>452.7</ele>
        <time>2021-08-04T09:12:24Z</time>
      </trkpt>
      <trkpt lat="45.67005" lon="3.19953">
        <ele>452.7</ele>
        <time>2021-08-04T09:12:26Z</time>
      </trkpt>
      <trkpt lat="45.67005" lon="3.19954">
        <ele>452.7</ele>
        <time>2021-08-04T09:12:28Z</time>
      </trkpt>
      <trkpt lat="45.67005" lon="3.19954">
        <ele>452.7</ele>
        <time>2021-08-04T09:12:30Z</time>
      </trkpt>
      <trkpt lat="45.67005" lon="3.19954">
        <ele>452.7</ele>
        <time>2021-08-04T09:12:32Z</time>
      </trkpt>
      <trkpt lat="45.67005" lon="3.19954">
        <ele>452.7</ele>
        <time>2021-08-04T09:12:34Z</time>
      </trkpt>
      <trkpt lat="45.67005" lon="3.19954">
        <ele>452.7</ele>
        <time>2021-08-04T09:12:36Z</time>
      </trkpt>
      <trkpt lat="45.67005" lon="3.19954">
        <ele>452.7</ele>
        <time>2021-08-04T09:12:38Z</time>
      </trkpt>
      <trkpt lat="45.67005" lon="3.19954">
        <ele>452.7</ele>
        <time>2021-08-04T09:12:40Z</time>
      </trkpt>
      <trkpt lat="45.67005" lon="3.19954">
        <ele>452.7</ele>
        <time>2021-08-04T09:12:42Z</time>
      </trkpt>
      <trkpt lat="45.67005" lon="3.19954">
        <ele>452.7</ele>
        <time>2021-08-04T09:12:44Z</time>
      </trkpt>
      <trkpt lat="45.67005" lon="3.19954">
        <ele>452.7</ele>
        <time>2021-08-04T09:12:46Z</time>
      </trkpt>
      <trkpt lat="45.67005" lon="3.19954">
        <ele>452.6</ele>
        <time>2021-08-04T09:12:48Z</time>
      </trkpt>
      <trkpt lat="45.67006" lon="3.19954">
        <ele>452.6</ele>
        <time>2021-08-04T09:12:50Z</time>
      </trkpt>
      <trkpt lat="45.67006" lon="3.19954">
        <ele>452.7</ele>
        <time>2021-08-04T09:12:52Z</time>
      </trkpt>
      <trkpt lat="45.67006" lon="3.1995">
        <ele>453.1</ele>
        <time>2021-08-04T09:12:54Z</time>
      </trkpt>
      <trkpt lat="45.67006" lon="3.19948">
        <ele>453.4</ele>
        <time>2021-08-04T09:12:56Z</time>
      </trkpt>
      <trkpt lat="45.67005" lon="3.19946">
        <ele>453.7</ele>
        <time>2021-08-04T09:12:58Z</time>
      </trkpt>
      <trkpt lat="45.67006" lon="3.19945">
        <ele>453.8</ele>
        <time>2021-08-04T09:13:00Z</time>
      </trkpt>
      <trkpt lat="45.67005" lon="3.19945">
        <ele>453.7</ele>
        <time>2021-08-04T09:13:02Z</time>
      </trkpt>
      <trkpt lat="45.67005" lon="3.19945">
        <ele>453.7</ele>
        <time>2021-08-04T09:13:04Z</time>
      </trkpt>
      <trkpt lat="45.67005" lon="3.19945">
        <ele>453.7</ele>
        <time>2021-08-04T09:13:06Z</time>
      </trkpt>
      <trkpt lat="45.67006" lon="3.19946">
        <ele>453.7</ele>
        <time>2021-08-04T09:13:08Z</time>
      </trkpt>
      <trkpt lat="45.67006" lon="3.19948">
        <ele>453.4</ele>
        <time>2021-08-04T09:13:10Z</time>
      </trkpt>
      <trkpt lat="45.67005" lon="3.19951">
        <ele>453</ele>
        <time>2021-08-04T09:13:12Z</time>
      </trkpt>
      <trkpt lat="45.67005" lon="3.19953">
        <ele>452.7</ele>
        <time>2021-08-04T09:13:14Z</time>
      </trkpt>
      <trkpt lat="45.67005" lon="3.19955">
        <ele>452.6</ele>
        <time>2021-08-04T09:13:16Z</time>
      </trkpt>
      <trkpt lat="45.67005" lon="3.19956">
        <ele>452.5</ele>
        <time>2021-08-04T09:13:18Z</time>
      </trkpt>
      <trkpt lat="45.67005" lon="3.19956">
        <ele>452.5</ele>
        <time>2021-08-04T09:13:20Z</time>
      </trkpt>
      <trkpt lat="45.67005" lon="3.19956">
        <ele>452.4</ele>
        <time>2021-08-04T09:13:22Z</time>
      </trkpt>
      <trkpt lat="45.67005" lon="3.19956">
        <ele>452.4</ele>
        <time>2021-08-04T09:13:24Z</time>
      </trkpt>
      <trkpt lat="45.67005" lon="3.19956">
        <ele>452.5</ele>
        <time>2021-08-04T09:13:26Z</time>
      </trkpt>
      <trkpt lat="45.67005" lon="3.19956">
        <ele>452.5</ele>
        <time>2021-08-04T09:13:28Z</time>
      </trkpt>
      <trkpt lat="45.67005" lon="3.19956">
        <ele>452.5</ele>
        <time>2021-08-04T09:13:30Z</time>
      </trkpt>
      <trkpt lat="45.67005" lon="3.19956">
        <ele>452.5</ele>
        <time>2021-08-04T09:13:32Z</time>
      </trkpt>
      <trkpt lat="45.67005" lon="3.19956">
        <ele>452.5</ele>
        <time>2021-08-04T09:13:34Z</time>
      </trkpt>
      <trkpt lat="45.67005" lon="3.19956">
        <ele>452.5</ele>
        <time>2021-08-04T09:13:36Z</time>
      </trkpt>
      <trkpt lat="45.67005" lon="3.19956">
        <ele>452.5</ele>
        <time>2021-08-04T09:13:38Z</time>
      </trkpt>
      <trkpt lat="45.67005" lon="3.19955">
        <ele>452.5</ele>
        <time>2021-08-04T09:13:40Z</time>
      </trkpt>
      <trkpt lat="45.67005" lon="3.19955">
        <ele>452.5</ele>
        <time>2021-08-04T09:13:42Z</time>
      </trkpt>
      <trkpt lat="45.67005" lon="3.19955">
        <ele>452.6</ele>
        <time>2021-08-04T09:13:44Z</time>
      </trkpt>
      <trkpt lat="45.67005" lon="3.19955">
        <ele>452.5</ele>
        <time>2021-08-04T09:13:46Z</time>
      </trkpt>
      <trkpt lat="45.67005" lon="3.19955">
        <ele>452.5</ele>
        <time>2021-08-04T09:13:48Z</time>
      </trkpt>
      <trkpt lat="45.67005" lon="3.19955">
        <ele>452.5</ele>
        <time>2021-08-04T09:13:50Z</time>
      </trkpt>
      <trkpt lat="45.67005" lon="3.19954">
        <ele>452.6</ele>
        <time>2021-08-04T09:13:52Z</time>
      </trkpt>
      <trkpt lat="45.67005" lon="3.19955">
        <ele>452.5</ele>
        <time>2021-08-04T09:13:54Z</time>
      </trkpt>
      <trkpt lat="45.67005" lon="3.19955">
        <ele>452.5</ele>
        <time>2021-08-04T09:13:56Z</time>
      </trkpt>
      <trkpt lat="45.67005" lon="3.19955">
        <ele>452.5</ele>
        <time>2021-08-04T09:13:58Z</time>
      </trkpt>
      <trkpt lat="45.67005" lon="3.19955">
        <ele>452.5</ele>
        <time>2021-08-04T09:14:02Z</time>
      </trkpt>
      <trkpt lat="45.67004" lon="3.19955">
        <ele>452.5</ele>
        <time>2021-08-04T09:14:06Z</time>
      </trkpt>
      <trkpt lat="45.67004" lon="3.19955">
        <ele>452.5</ele>
        <time>2021-08-04T09:14:10Z</time>
      </trkpt>
      <trkpt lat="45.67004" lon="3.19955">
        <ele>452.5</ele>
        <time>2021-08-04T09:14:14Z</time>
      </trkpt>
      <trkpt lat="45.67004" lon="3.19955">
        <ele>452.5</ele>
        <time>2021-08-04T09:14:18Z</time>
      </trkpt>
      <trkpt lat="45.67004" lon="3.19955">
        <ele>452.5</ele>
        <time>2021-08-04T09:14:22Z</time>
      </trkpt>
      <trkpt lat="45.67004" lon="3.19955">
        <ele>452.5</ele>
        <time>2021-08-04T09:14:26Z</time>
      </trkpt>
      <trkpt lat="45.67004" lon="3.19956">
        <ele>452.4</ele>
        <time>2021-08-04T09:14:28Z</time>
      </trkpt>
      <trkpt lat="45.67004" lon="3.19956">
        <ele>452.4</ele>
        <time>2021-08-04T09:14:30Z</time>
      </trkpt>
      <trkpt lat="45.67004" lon="3.19956">
        <ele>452.4</ele>
        <time>2021-08-04T09:14:32Z</time>
      </trkpt>
      <trkpt lat="45.67004" lon="3.19956">
        <ele>452.4</ele>
        <time>2021-08-04T09:14:34Z</time>
      </trkpt>
      <trkpt lat="45.67004" lon="3.19956">
        <ele>452.4</ele>
        <time>2021-08-04T09:14:36Z</time>
      </trkpt>
      <trkpt lat="45.67004" lon="3.19956">
        <ele>452.4</ele>
        <time>2021-08-04T09:14:38Z</time>
      </trkpt>
      <trkpt lat="45.67004" lon="3.19956">
        <ele>452.4</ele>
        <time>2021-08-04T09:14:40Z</time>
      </trkpt>
      <trkpt lat="45.67004" lon="3.19956">
        <ele>452.4</ele>
        <time>2021-08-04T09:14:42Z</time>
      </trkpt>
      <trkpt lat="45.67004" lon="3.19956">
        <ele>452.4</ele>
        <time>2021-08-04T09:14:44Z</time>
      </trkpt>
      <trkpt lat="45.67004" lon="3.19956">
        <ele>452.4</ele>
        <time>2021-08-04T09:14:46Z</time>
      </trkpt>
      <trkpt lat="45.67005" lon="3.19956">
        <ele>452.4</ele>
        <time>2021-08-04T09:14:48Z</time>
      </trkpt>
      <trkpt lat="45.67005" lon="3.19956">
        <ele>452.5</ele>
        <time>2021-08-04T09:14:50Z</time>
      </trkpt>
      <trkpt lat="45.67005" lon="3.19955">
        <ele>452.6</ele>
        <time>2021-08-04T09:14:52Z</time>
      </trkpt>
      <trkpt lat="45.67005" lon="3.19956">
        <ele>452.4</ele>
        <time>2021-08-04T09:14:54Z</time>
      </trkpt>
      <trkpt lat="45.67005" lon="3.19956">
        <ele>452.4</ele>
        <time>2021-08-04T09:14:56Z</time>
      </trkpt>
      <trkpt lat="45.67005" lon="3.19956">
        <ele>452.4</ele>
        <time>2021-08-04T09:14:58Z</time>
      </trkpt>
      <trkpt lat="45.67005" lon="3.19955">
        <ele>452.5</ele>
        <time>2021-08-04T09:15:00Z</time>
      </trkpt>
      <trkpt lat="45.67005" lon="3.19955">
        <ele>452.5</ele>
        <time>2021-08-04T09:15:02Z</time>
      </trkpt>
      <trkpt lat="45.67005" lon="3.19955">
        <ele>452.5</ele>
        <time>2021-08-04T09:15:04Z</time>
      </trkpt>
      <trkpt lat="45.67005" lon="3.19955">
        <ele>452.5</ele>
        <time>2021-08-04T09:15:06Z</time>
      </trkpt>
      <trkpt lat="45.67005" lon="3.19955">
        <ele>452.5</ele>
        <time>2021-08-04T09:15:08Z</time>
      </trkpt>
      <trkpt lat="45.67005" lon="3.19956">
        <ele>452.5</ele>
        <time>2021-08-04T09:15:10Z</time>
      </trkpt>
      <trkpt lat="45.67005" lon="3.19956">
        <ele>452.5</ele>
        <time>2021-08-04T09:15:12Z</time>
      </trkpt>
      <trkpt lat="45.67005" lon="3.19955">
        <ele>452.5</ele>
        <time>2021-08-04T09:15:14Z</time>
      </trkpt>
      <trkpt lat="45.67005" lon="3.19955">
        <ele>452.5</ele>
        <time>2021-08-04T09:15:16Z</time>
      </trkpt>
      <trkpt lat="45.67005" lon="3.19956">
        <ele>452.5</ele>
        <time>2021-08-04T09:15:18Z</time>
      </trkpt>
      <trkpt lat="45.67005" lon="3.19956">
        <ele>452.5</ele>
        <time>2021-08-04T09:15:20Z</time>
      </trkpt>
      <trkpt lat="45.67005" lon="3.19956">
        <ele>452.5</ele>
        <time>2021-08-04T09:15:22Z</time>
      </trkpt>
      <trkpt lat="45.67005" lon="3.19956">
        <ele>452.4</ele>
        <time>2021-08-04T09:15:24Z</time>
      </trkpt>
      <trkpt lat="45.67005" lon="3.19956">
        <ele>452.4</ele>
        <time>2021-08-04T09:15:26Z</time>
      </trkpt>
      <trkpt lat="45.67005" lon="3.19956">
        <ele>452.4</ele>
        <time>2021-08-04T09:15:28Z</time>
      </trkpt>
      <trkpt lat="45.67005" lon="3.19956">
        <ele>452.4</ele>
        <time>2021-08-04T09:15:30Z</time>
      </trkpt>
      <trkpt lat="45.67005" lon="3.19956">
        <ele>452.4</ele>
        <time>2021-08-04T09:15:32Z</time>
      </trkpt>
      <trkpt lat="45.67005" lon="3.19956">
        <ele>452.4</ele>
        <time>2021-08-04T09:15:34Z</time>
      </trkpt>
      <trkpt lat="45.67005" lon="3.19956">
        <ele>452.5</ele>
        <time>2021-08-04T09:15:36Z</time>
      </trkpt>
      <trkpt lat="45.67005" lon="3.19956">
        <ele>452.4</ele>
        <time>2021-08-04T09:15:38Z</time>
      </trkpt>
      <trkpt lat="45.67005" lon="3.19956">
        <ele>452.4</ele>
        <time>2021-08-04T09:15:40Z</time>
      </trkpt>
      <trkpt lat="45.67004" lon="3.19956">
        <ele>452.4</ele>
        <time>2021-08-04T09:15:42Z</time>
      </trkpt>
      <trkpt lat="45.67004" lon="3.19956">
        <ele>452.4</ele>
        <time>2021-08-04T09:15:44Z</time>
      </trkpt>
      <trkpt lat="45.67004" lon="3.19956">
        <ele>452.4</ele>
        <time>2021-08-04T09:15:46Z</time>
      </trkpt>
      <trkpt lat="45.67004" lon="3.19956">
        <ele>452.4</ele>
        <time>2021-08-04T09:15:48Z</time>
      </trkpt>
      <trkpt lat="45.67003" lon="3.19955">
        <ele>452.4</ele>
        <time>2021-08-04T09:15:50Z</time>
      </trkpt>
      <trkpt lat="45.67003" lon="3.19955">
        <ele>452.4</ele>
        <time>2021-08-04T09:15:52Z</time>
      </trkpt>
      <trkpt lat="45.67003" lon="3.19955">
        <ele>452.5</ele>
        <time>2021-08-04T09:15:54Z</time>
      </trkpt>
      <trkpt lat="45.67002" lon="3.19955">
        <ele>452.5</ele>
        <time>2021-08-04T09:15:56Z</time>
      </trkpt>
      <trkpt lat="45.67002" lon="3.19955">
        <ele>452.5</ele>
        <time>2021-08-04T09:15:58Z</time>
      </trkpt>
      <trkpt lat="45.67002" lon="3.19955">
        <ele>452.5</ele>
        <time>2021-08-04T09:16:00Z</time>
      </trkpt>
      <trkpt lat="45.67003" lon="3.19955">
        <ele>452.5</ele>
        <time>2021-08-04T09:16:02Z</time>
      </trkpt>
      <trkpt lat="45.67003" lon="3.19954">
        <ele>452.5</ele>
        <time>2021-08-04T09:16:04Z</time>
      </trkpt>
      <trkpt lat="45.67003" lon="3.19955">
        <ele>452.5</ele>
        <time>2021-08-04T09:16:06Z</time>
      </trkpt>
      <trkpt lat="45.67003" lon="3.19955">
        <ele>452.5</ele>
        <time>2021-08-04T09:16:08Z</time>
      </trkpt>
      <trkpt lat="45.67003" lon="3.19955">
        <ele>452.5</ele>
        <time>2021-08-04T09:16:10Z</time>
      </trkpt>
      <trkpt lat="45.67003" lon="3.19954">
        <ele>452.6</ele>
        <time>2021-08-04T09:16:12Z</time>
      </trkpt>
      <trkpt lat="45.67003" lon="3.19954">
        <ele>452.6</ele>
        <time>2021-08-04T09:16:14Z</time>
      </trkpt>
      <trkpt lat="45.67003" lon="3.19954">
        <ele>452.6</ele>
        <time>2021-08-04T09:16:16Z</time>
      </trkpt>
      <trkpt lat="45.67003" lon="3.19954">
        <ele>452.6</ele>
        <time>2021-08-04T09:16:20Z</time>
      </trkpt>
      <trkpt lat="45.67003" lon="3.19954">
        <ele>452.6</ele>
        <time>2021-08-04T09:16:22Z</time>
      </trkpt>
      <trkpt lat="45.67003" lon="3.19954">
        <ele>452.6</ele>
        <time>2021-08-04T09:16:26Z</time>
      </trkpt>
      <trkpt lat="45.67003" lon="3.19954">
        <ele>452.6</ele>
        <time>2021-08-04T09:16:28Z</time>
      </trkpt>
      <trkpt lat="45.67003" lon="3.19954">
        <ele>452.6</ele>
        <time>2021-08-04T09:16:30Z</time>
      </trkpt>
      <trkpt lat="45.67003" lon="3.19954">
        <ele>452.6</ele>
        <time>2021-08-04T09:16:32Z</time>
      </trkpt>
      <trkpt lat="45.67002" lon="3.19954">
        <ele>452.6</ele>
        <time>2021-08-04T09:16:34Z</time>
      </trkpt>
      <trkpt lat="45.67" lon="3.19954">
        <ele>452.4</ele>
        <time>2021-08-04T09:16:36Z</time>
      </trkpt>
      <trkpt lat="45.66998" lon="3.19954">
        <ele>452</ele>
        <time>2021-08-04T09:16:38Z</time>
      </trkpt>
      <trkpt lat="45.66996" lon="3.19954">
        <ele>451.6</ele>
        <time>2021-08-04T09:16:40Z</time>
      </trkpt>
      <trkpt lat="45.66995" lon="3.19953">
        <ele>451.2</ele>
        <time>2021-08-04T09:16:42Z</time>
      </trkpt>
      <trkpt lat="45.66993" lon="3.19952">
        <ele>450.9</ele>
        <time>2021-08-04T09:16:44Z</time>
      </trkpt>
      <trkpt lat="45.66991" lon="3.19952">
        <ele>450.5</ele>
        <time>2021-08-04T09:16:46Z</time>
      </trkpt>
      <trkpt lat="45.66989" lon="3.19951">
        <ele>450.1</ele>
        <time>2021-08-04T09:16:48Z</time>
      </trkpt>
      <trkpt lat="45.66987" lon="3.19951">
        <ele>449.6</ele>
        <time>2021-08-04T09:16:50Z</time>
      </trkpt>
      <trkpt lat="45.66985" lon="3.19952">
        <ele>449</ele>
        <time>2021-08-04T09:16:52Z</time>
      </trkpt>
      <trkpt lat="45.66984" lon="3.19952">
        <ele>448.6</ele>
        <time>2021-08-04T09:16:54Z</time>
      </trkpt>
      <trkpt lat="45.66983" lon="3.19953">
        <ele>448.2</ele>
        <time>2021-08-04T09:16:56Z</time>
      </trkpt>
      <trkpt lat="45.66982" lon="3.19953">
        <ele>448.1</ele>
        <time>2021-08-04T09:16:58Z</time>
      </trkpt>
      <trkpt lat="45.66981" lon="3.19952">
        <ele>448</ele>
        <time>2021-08-04T09:17:00Z</time>
      </trkpt>
      <trkpt lat="45.6698" lon="3.19949">
        <ele>448</ele>
        <time>2021-08-04T09:17:02Z</time>
      </trkpt>
      <trkpt lat="45.66979" lon="3.19948">
        <ele>447.8</ele>
        <time>2021-08-04T09:17:04Z</time>
      </trkpt>
      <trkpt lat="45.66976" lon="3.19948">
        <ele>447.3</ele>
        <time>2021-08-04T09:17:06Z</time>
      </trkpt>
      <trkpt lat="45.66976" lon="3.19948">
        <ele>447.3</ele>
        <time>2021-08-04T09:17:08Z</time>
      </trkpt>
      <trkpt lat="45.66976" lon="3.19948">
        <ele>447.2</ele>
        <time>2021-08-04T09:17:10Z</time>
      </trkpt>
      <trkpt lat="45.66975" lon="3.19948">
        <ele>447</ele>
        <time>2021-08-04T09:17:12Z</time>
      </trkpt>
      <trkpt lat="45.66975" lon="3.19947">
        <ele>446.9</ele>
        <time>2021-08-04T09:17:14Z</time>
      </trkpt>
      <trkpt lat="45.66974" lon="3.19947">
        <ele>446.7</ele>
        <time>2021-08-04T09:17:16Z</time>
      </trkpt>
      <trkpt lat="45.66974" lon="3.19947">
        <ele>446.8</ele>
        <time>2021-08-04T09:17:18Z</time>
      </trkpt>
      <trkpt lat="45.66973" lon="3.19947">
        <ele>446.5</ele>
        <time>2021-08-04T09:17:20Z</time>
      </trkpt>
      <trkpt lat="45.66971" lon="3.19946">
        <ele>446.2</ele>
        <time>2021-08-04T09:17:22Z</time>
      </trkpt>
      <trkpt lat="45.6697" lon="3.19946">
        <ele>445.8</ele>
        <time>2021-08-04T09:17:24Z</time>
      </trkpt>
      <trkpt lat="45.66969" lon="3.19946">
        <ele>445.7</ele>
        <time>2021-08-04T09:17:26Z</time>
      </trkpt>
      <trkpt lat="45.66969" lon="3.19946">
        <ele>445.7</ele>
        <time>2021-08-04T09:17:28Z</time>
      </trkpt>
      <trkpt lat="45.66968" lon="3.19946">
        <ele>445.5</ele>
        <time>2021-08-04T09:17:30Z</time>
      </trkpt>
      <trkpt lat="45.66968" lon="3.19946">
        <ele>445.5</ele>
        <time>2021-08-04T09:17:32Z</time>
      </trkpt>
      <trkpt lat="45.66967" lon="3.19945">
        <ele>445.3</ele>
        <time>2021-08-04T09:17:34Z</time>
      </trkpt>
      <trkpt lat="45.66966" lon="3.19944">
        <ele>445.2</ele>
        <time>2021-08-04T09:17:36Z</time>
      </trkpt>
      <trkpt lat="45.66965" lon="3.19944">
        <ele>445</ele>
        <time>2021-08-04T09:17:38Z</time>
      </trkpt>
      <trkpt lat="45.66964" lon="3.19944">
        <ele>444.7</ele>
        <time>2021-08-04T09:17:40Z</time>
      </trkpt>
      <trkpt lat="45.66962" lon="3.19944">
        <ele>444.3</ele>
        <time>2021-08-04T09:17:42Z</time>
      </trkpt>
      <trkpt lat="45.66961" lon="3.19943">
        <ele>444</ele>
        <time>2021-08-04T09:17:44Z</time>
      </trkpt>
      <trkpt lat="45.6696" lon="3.19944">
        <ele>443.6</ele>
        <time>2021-08-04T09:17:46Z</time>
      </trkpt>
      <trkpt lat="45.66959" lon="3.19944">
        <ele>443.4</ele>
        <time>2021-08-04T09:17:48Z</time>
      </trkpt>
      <trkpt lat="45.66957" lon="3.19943">
        <ele>443.1</ele>
        <time>2021-08-04T09:17:50Z</time>
      </trkpt>
      <trkpt lat="45.66956" lon="3.19943">
        <ele>442.7</ele>
        <time>2021-08-04T09:17:52Z</time>
      </trkpt>
      <trkpt lat="45.66955" lon="3.19943">
        <ele>442.5</ele>
        <time>2021-08-04T09:17:54Z</time>
      </trkpt>
      <trkpt lat="45.66953" lon="3.19942">
        <ele>442.2</ele>
        <time>2021-08-04T09:17:56Z</time>
      </trkpt>
      <trkpt lat="45.66952" lon="3.19942">
        <ele>441.9</ele>
        <time>2021-08-04T09:17:58Z</time>
      </trkpt>
      <trkpt lat="45.6695" lon="3.19941">
        <ele>441.6</ele>
        <time>2021-08-04T09:18:00Z</time>
      </trkpt>
      <trkpt lat="45.66948" lon="3.19941">
        <ele>441.2</ele>
        <time>2021-08-04T09:18:02Z</time>
      </trkpt>
      <trkpt lat="45.66947" lon="3.1994">
        <ele>441.1</ele>
        <time>2021-08-04T09:18:04Z</time>
      </trkpt>
      <trkpt lat="45.66947" lon="3.19939">
        <ele>441.2</ele>
        <time>2021-08-04T09:18:06Z</time>
      </trkpt>
      <trkpt lat="45.66946" lon="3.19938">
        <ele>441</ele>
        <time>2021-08-04T09:18:08Z</time>
      </trkpt>
      <trkpt lat="45.66944" lon="3.19938">
        <ele>440.6</ele>
        <time>2021-08-04T09:18:10Z</time>
      </trkpt>
      <trkpt lat="45.66944" lon="3.19938">
        <ele>440.7</ele>
        <time>2021-08-04T09:18:12Z</time>
      </trkpt>
      <trkpt lat="45.66944" lon="3.19938">
        <ele>440.7</ele>
        <time>2021-08-04T09:18:14Z</time>
      </trkpt>
      <trkpt lat="45.66944" lon="3.19938">
        <ele>440.7</ele>
        <time>2021-08-04T09:18:16Z</time>
      </trkpt>
      <trkpt lat="45.66944" lon="3.19938">
        <ele>440.7</ele>
        <time>2021-08-04T09:18:18Z</time>
      </trkpt>
      <trkpt lat="45.66944" lon="3.19938">
        <ele>440.6</ele>
        <time>2021-08-04T09:18:20Z</time>
      </trkpt>
      <trkpt lat="45.66944" lon="3.19938">
        <ele>440.6</ele>
        <time>2021-08-04T09:18:22Z</time>
      </trkpt>
      <trkpt lat="45.66944" lon="3.19938">
        <ele>440.6</ele>
        <time>2021-08-04T09:18:24Z</time>
      </trkpt>
      <trkpt lat="45.66942" lon="3.19937">
        <ele>440.4</ele>
        <time>2021-08-04T09:18:26Z</time>
      </trkpt>
      <trkpt lat="45.66942" lon="3.19937">
        <ele>440.3</ele>
        <time>2021-08-04T09:18:28Z</time>
      </trkpt>
      <trkpt lat="45.66942" lon="3.19937">
        <ele>440.3</ele>
        <time>2021-08-04T09:18:30Z</time>
      </trkpt>
      <trkpt lat="45.66942" lon="3.19937">
        <ele>440.3</ele>
        <time>2021-08-04T09:18:32Z</time>
      </trkpt>
      <trkpt lat="45.66941" lon="3.19936">
        <ele>440.2</ele>
        <time>2021-08-04T09:18:34Z</time>
      </trkpt>
      <trkpt lat="45.6694" lon="3.19936">
        <ele>440</ele>
        <time>2021-08-04T09:18:36Z</time>
      </trkpt>
      <trkpt lat="45.66939" lon="3.19936">
        <ele>439.7</ele>
        <time>2021-08-04T09:18:38Z</time>
      </trkpt>
      <trkpt lat="45.66938" lon="3.19936">
        <ele>439.5</ele>
        <time>2021-08-04T09:18:40Z</time>
      </trkpt>
      <trkpt lat="45.66938" lon="3.19936">
        <ele>439.6</ele>
        <time>2021-08-04T09:18:42Z</time>
      </trkpt>
      <trkpt lat="45.66938" lon="3.19936">
        <ele>439.4</ele>
        <time>2021-08-04T09:18:44Z</time>
      </trkpt>
      <trkpt lat="45.66936" lon="3.19936">
        <ele>439</ele>
        <time>2021-08-04T09:18:46Z</time>
      </trkpt>
      <trkpt lat="45.66934" lon="3.19935">
        <ele>438.6</ele>
        <time>2021-08-04T09:18:48Z</time>
      </trkpt>
      <trkpt lat="45.66932" lon="3.19934">
        <ele>438.3</ele>
        <time>2021-08-04T09:18:50Z</time>
      </trkpt>
      <trkpt lat="45.66931" lon="3.19934">
        <ele>438.1</ele>
        <time>2021-08-04T09:18:52Z</time>
      </trkpt>
      <trkpt lat="45.66931" lon="3.19934">
        <ele>438.2</ele>
        <time>2021-08-04T09:18:54Z</time>
      </trkpt>
      <trkpt lat="45.6693" lon="3.19934">
        <ele>438</ele>
        <time>2021-08-04T09:18:56Z</time>
      </trkpt>
      <trkpt lat="45.66928" lon="3.19933">
        <ele>437.7</ele>
        <time>2021-08-04T09:18:58Z</time>
      </trkpt>
      <trkpt lat="45.66925" lon="3.19931">
        <ele>437.3</ele>
        <time>2021-08-04T09:19:00Z</time>
      </trkpt>
      <trkpt lat="45.66923" lon="3.19931">
        <ele>436.8</ele>
        <time>2021-08-04T09:19:02Z</time>
      </trkpt>
      <trkpt lat="45.66919" lon="3.1993">
        <ele>436.1</ele>
        <time>2021-08-04T09:19:04Z</time>
      </trkpt>
      <trkpt lat="45.66916" lon="3.19929">
        <ele>435.4</ele>
        <time>2021-08-04T09:19:06Z</time>
      </trkpt>
      <trkpt lat="45.66912" lon="3.19928">
        <ele>434.8</ele>
        <time>2021-08-04T09:19:08Z</time>
      </trkpt>
      <trkpt lat="45.66908" lon="3.19928">
        <ele>434.2</ele>
        <time>2021-08-04T09:19:10Z</time>
      </trkpt>
      <trkpt lat="45.66906" lon="3.19928">
        <ele>433.9</ele>
        <time>2021-08-04T09:19:12Z</time>
      </trkpt>
      <trkpt lat="45.66906" lon="3.19928">
        <ele>433.6</ele>
        <time>2021-08-04T09:19:14Z</time>
      </trkpt>
      <trkpt lat="45.66904" lon="3.19928">
        <ele>433.4</ele>
        <time>2021-08-04T09:19:16Z</time>
      </trkpt>
      <trkpt lat="45.66904" lon="3.19927">
        <ele>433.4</ele>
        <time>2021-08-04T09:19:18Z</time>
      </trkpt>
      <trkpt lat="45.66903" lon="3.19928">
        <ele>433.1</ele>
        <time>2021-08-04T09:19:20Z</time>
      </trkpt>
      <trkpt lat="45.66886" lon="3.19923">
        <ele>430.8</ele>
        <time>2021-08-04T09:19:48Z</time>
      </trkpt>
      <trkpt lat="45.66883" lon="3.19922">
        <ele>430.4</ele>
        <time>2021-08-04T09:19:50Z</time>
      </trkpt>
      <trkpt lat="45.66881" lon="3.19921">
        <ele>430.1</ele>
        <time>2021-08-04T09:19:52Z</time>
      </trkpt>
      <trkpt lat="45.66878" lon="3.19921">
        <ele>429.8</ele>
        <time>2021-08-04T09:19:54Z</time>
      </trkpt>
      <trkpt lat="45.66875" lon="3.19919">
        <ele>429.4</ele>
        <time>2021-08-04T09:19:56Z</time>
      </trkpt>
      <trkpt lat="45.66872" lon="3.19918">
        <ele>429.1</ele>
        <time>2021-08-04T09:19:58Z</time>
      </trkpt>
      <trkpt lat="45.66871" lon="3.19917">
        <ele>429.1</ele>
        <time>2021-08-04T09:20:00Z</time>
      </trkpt>
      <trkpt lat="45.66871" lon="3.19917">
        <ele>429.2</ele>
        <time>2021-08-04T09:20:02Z</time>
      </trkpt>
      <trkpt lat="45.66868" lon="3.19916">
        <ele>428.7</ele>
        <time>2021-08-04T09:20:04Z</time>
      </trkpt>
      <trkpt lat="45.66864" lon="3.19915">
        <ele>428.3</ele>
        <time>2021-08-04T09:20:06Z</time>
      </trkpt>
      <trkpt lat="45.6686" lon="3.19914">
        <ele>427.9</ele>
        <time>2021-08-04T09:20:08Z</time>
      </trkpt>
      <trkpt lat="45.66857" lon="3.19913">
        <ele>427.5</ele>
        <time>2021-08-04T09:20:10Z</time>
      </trkpt>
      <trkpt lat="45.66855" lon="3.19913">
        <ele>427.2</ele>
        <time>2021-08-04T09:20:12Z</time>
      </trkpt>
      <trkpt lat="45.66852" lon="3.19912">
        <ele>427</ele>
        <time>2021-08-04T09:20:14Z</time>
      </trkpt>
      <trkpt lat="45.66848" lon="3.1991">
        <ele>426.8</ele>
        <time>2021-08-04T09:20:16Z</time>
      </trkpt>
      <trkpt lat="45.66845" lon="3.19909">
        <ele>426.5</ele>
        <time>2021-08-04T09:20:18Z</time>
      </trkpt>
      <trkpt lat="45.66841" lon="3.19908">
        <ele>426.2</ele>
        <time>2021-08-04T09:20:20Z</time>
      </trkpt>
      <trkpt lat="45.66837" lon="3.19906">
        <ele>425.9</ele>
        <time>2021-08-04T09:20:22Z</time>
      </trkpt>
      <trkpt lat="45.66832" lon="3.19905">
        <ele>425.5</ele>
        <time>2021-08-04T09:20:24Z</time>
      </trkpt>
      <trkpt lat="45.66827" lon="3.19904">
        <ele>425.1</ele>
        <time>2021-08-04T09:20:26Z</time>
      </trkpt>
      <trkpt lat="45.66821" lon="3.19903">
        <ele>424.9</ele>
        <time>2021-08-04T09:20:28Z</time>
      </trkpt>
      <trkpt lat="45.66815" lon="3.19903">
        <ele>424.3</ele>
        <time>2021-08-04T09:20:30Z</time>
      </trkpt>
      <trkpt lat="45.66811" lon="3.199">
        <ele>424.6</ele>
        <time>2021-08-04T09:20:32Z</time>
      </trkpt>
      <trkpt lat="45.66808" lon="3.19899">
        <ele>424.4</ele>
        <time>2021-08-04T09:20:34Z</time>
      </trkpt>
      <trkpt lat="45.66804" lon="3.19898">
        <ele>424.4</ele>
        <time>2021-08-04T09:20:36Z</time>
      </trkpt>
      <trkpt lat="45.66801" lon="3.19898">
        <ele>424.2</ele>
        <time>2021-08-04T09:20:38Z</time>
      </trkpt>
      <trkpt lat="45.668" lon="3.19898">
        <ele>424.2</ele>
        <time>2021-08-04T09:20:40Z</time>
      </trkpt>
      <trkpt lat="45.66801" lon="3.19897">
        <ele>424.3</ele>
        <time>2021-08-04T09:20:42Z</time>
      </trkpt>
      <trkpt lat="45.66801" lon="3.19897">
        <ele>424.4</ele>
        <time>2021-08-04T09:20:44Z</time>
      </trkpt>
      <trkpt lat="45.668" lon="3.19897">
        <ele>424.4</ele>
        <time>2021-08-04T09:20:46Z</time>
      </trkpt>
      <trkpt lat="45.668" lon="3.19897">
        <ele>424.4</ele>
        <time>2021-08-04T09:20:48Z</time>
      </trkpt>
      <trkpt lat="45.66789" lon="3.19893">
        <ele>424.2</ele>
        <time>2021-08-04T09:27:44Z</time>
      </trkpt>
      <trkpt lat="45.66786" lon="3.19893">
        <ele>424.1</ele>
        <time>2021-08-04T09:27:46Z</time>
      </trkpt>
      <trkpt lat="45.66782" lon="3.19891">
        <ele>424.1</ele>
        <time>2021-08-04T09:27:48Z</time>
      </trkpt>
      <trkpt lat="45.66778" lon="3.1989">
        <ele>424.2</ele>
        <time>2021-08-04T09:27:50Z</time>
      </trkpt>
      <trkpt lat="45.66775" lon="3.19889">
        <ele>424.1</ele>
        <time>2021-08-04T09:27:52Z</time>
      </trkpt>
      <trkpt lat="45.6677" lon="3.19888">
        <ele>424</ele>
        <time>2021-08-04T09:27:54Z</time>
      </trkpt>
      <trkpt lat="45.66765" lon="3.19886">
        <ele>423.9</ele>
        <time>2021-08-04T09:27:56Z</time>
      </trkpt>
      <trkpt lat="45.6676" lon="3.19885">
        <ele>423.9</ele>
        <time>2021-08-04T09:27:58Z</time>
      </trkpt>
      <trkpt lat="45.66756" lon="3.19883">
        <ele>424</ele>
        <time>2021-08-04T09:28:00Z</time>
      </trkpt>
      <trkpt lat="45.66752" lon="3.19883">
        <ele>423.6</ele>
        <time>2021-08-04T09:28:02Z</time>
      </trkpt>
      <trkpt lat="45.66748" lon="3.19881">
        <ele>423.7</ele>
        <time>2021-08-04T09:28:04Z</time>
      </trkpt>
      <trkpt lat="45.66743" lon="3.19879">
        <ele>423.8</ele>
        <time>2021-08-04T09:28:06Z</time>
      </trkpt>
      <trkpt lat="45.66737" lon="3.19876">
        <ele>423.9</ele>
        <time>2021-08-04T09:28:08Z</time>
      </trkpt>
      <trkpt lat="45.66731" lon="3.19873">
        <ele>424.2</ele>
        <time>2021-08-04T09:28:10Z</time>
      </trkpt>
      <trkpt lat="45.66722" lon="3.19871">
        <ele>423.9</ele>
        <time>2021-08-04T09:28:12Z</time>
      </trkpt>
      <trkpt lat="45.66714" lon="3.1987">
        <ele>423.4</ele>
        <time>2021-08-04T09:28:14Z</time>
      </trkpt>
      <trkpt lat="45.66707" lon="3.19867">
        <ele>423.2</ele>
        <time>2021-08-04T09:28:16Z</time>
      </trkpt>
      <trkpt lat="45.667" lon="3.19866">
        <ele>422.8</ele>
        <time>2021-08-04T09:28:18Z</time>
      </trkpt>
      <trkpt lat="45.66694" lon="3.19864">
        <ele>422.8</ele>
        <time>2021-08-04T09:28:20Z</time>
      </trkpt>
      <trkpt lat="45.66688" lon="3.19863">
        <ele>422.6</ele>
        <time>2021-08-04T09:28:22Z</time>
      </trkpt>
      <trkpt lat="45.66683" lon="3.19862">
        <ele>422.3</ele>
        <time>2021-08-04T09:28:24Z</time>
      </trkpt>
      <trkpt lat="45.66678" lon="3.19861">
        <ele>422.2</ele>
        <time>2021-08-04T09:28:26Z</time>
      </trkpt>
      <trkpt lat="45.66678" lon="3.1986">
        <ele>422.3</ele>
        <time>2021-08-04T09:28:28Z</time>
      </trkpt>
      <trkpt lat="45.66678" lon="3.1986">
        <ele>422.4</ele>
        <time>2021-08-04T09:28:30Z</time>
      </trkpt>
      <trkpt lat="45.66677" lon="3.19859">
        <ele>422.5</ele>
        <time>2021-08-04T09:28:32Z</time>
      </trkpt>
      <trkpt lat="45.66676" lon="3.19859">
        <ele>422.5</ele>
        <time>2021-08-04T09:28:34Z</time>
      </trkpt>
      <trkpt lat="45.66676" lon="3.19859">
        <ele>422.4</ele>
        <time>2021-08-04T09:28:36Z</time>
      </trkpt>
      <trkpt lat="45.6667" lon="3.19859">
        <ele>421.9</ele>
        <time>2021-08-04T09:28:54Z</time>
      </trkpt>
      <trkpt lat="45.66669" lon="3.19858">
        <ele>422.1</ele>
        <time>2021-08-04T09:28:56Z</time>
      </trkpt>
      <trkpt lat="45.66667" lon="3.19858">
        <ele>421.8</ele>
        <time>2021-08-04T09:28:58Z</time>
      </trkpt>
      <trkpt lat="45.66665" lon="3.19857">
        <ele>421.8</ele>
        <time>2021-08-04T09:29:00Z</time>
      </trkpt>
      <trkpt lat="45.66663" lon="3.19857">
        <ele>421.9</ele>
        <time>2021-08-04T09:29:02Z</time>
      </trkpt>
      <trkpt lat="45.6666" lon="3.19856">
        <ele>421.8</ele>
        <time>2021-08-04T09:29:04Z</time>
      </trkpt>
      <trkpt lat="45.66658" lon="3.19856">
        <ele>421.4</ele>
        <time>2021-08-04T09:29:06Z</time>
      </trkpt>
      <trkpt lat="45.66655" lon="3.19856">
        <ele>421.3</ele>
        <time>2021-08-04T09:29:08Z</time>
      </trkpt>
      <trkpt lat="45.66652" lon="3.19855">
        <ele>421.2</ele>
        <time>2021-08-04T09:29:10Z</time>
      </trkpt>
      <trkpt lat="45.6665" lon="3.19856">
        <ele>420.8</ele>
        <time>2021-08-04T09:29:12Z</time>
      </trkpt>
      <trkpt lat="45.66649" lon="3.19856">
        <ele>420.7</ele>
        <time>2021-08-04T09:29:14Z</time>
      </trkpt>
      <trkpt lat="45.66649" lon="3.19855">
        <ele>420.8</ele>
        <time>2021-08-04T09:29:16Z</time>
      </trkpt>
      <trkpt lat="45.66648" lon="3.19855">
        <ele>420.8</ele>
        <time>2021-08-04T09:29:18Z</time>
      </trkpt>
      <trkpt lat="45.66648" lon="3.19855">
        <ele>420.9</ele>
        <time>2021-08-04T09:29:20Z</time>
      </trkpt>
      <trkpt lat="45.66648" lon="3.19854">
        <ele>421.1</ele>
        <time>2021-08-04T09:29:22Z</time>
      </trkpt>
      <trkpt lat="45.66636" lon="3.19855">
        <ele>419.6</ele>
        <time>2021-08-04T09:29:44Z</time>
      </trkpt>
      <trkpt lat="45.66633" lon="3.19853">
        <ele>419.8</ele>
        <time>2021-08-04T09:29:46Z</time>
      </trkpt>
      <trkpt lat="45.66632" lon="3.19853">
        <ele>419.6</ele>
        <time>2021-08-04T09:29:48Z</time>
      </trkpt>
      <trkpt lat="45.66629" lon="3.19852">
        <ele>419.8</ele>
        <time>2021-08-04T09:29:50Z</time>
      </trkpt>
      <trkpt lat="45.66627" lon="3.19853">
        <ele>419.4</ele>
        <time>2021-08-04T09:29:52Z</time>
      </trkpt>
      <trkpt lat="45.66624" lon="3.19851">
        <ele>419.5</ele>
        <time>2021-08-04T09:29:54Z</time>
      </trkpt>
      <trkpt lat="45.66621" lon="3.19851">
        <ele>419.5</ele>
        <time>2021-08-04T09:29:56Z</time>
      </trkpt>
      <trkpt lat="45.66618" lon="3.1985">
        <ele>419.4</ele>
        <time>2021-08-04T09:29:58Z</time>
      </trkpt>
      <trkpt lat="45.66615" lon="3.19849">
        <ele>419.4</ele>
        <time>2021-08-04T09:30:00Z</time>
      </trkpt>
      <trkpt lat="45.66613" lon="3.19848">
        <ele>419.5</ele>
        <time>2021-08-04T09:30:02Z</time>
      </trkpt>
      <trkpt lat="45.66611" lon="3.19848">
        <ele>419.6</ele>
        <time>2021-08-04T09:30:04Z</time>
      </trkpt>
      <trkpt lat="45.66609" lon="3.19847">
        <ele>419.7</ele>
        <time>2021-08-04T09:30:06Z</time>
      </trkpt>
      <trkpt lat="45.66606" lon="3.19846">
        <ele>419.7</ele>
        <time>2021-08-04T09:30:08Z</time>
      </trkpt>
      <trkpt lat="45.66604" lon="3.19844">
        <ele>420</ele>
        <time>2021-08-04T09:30:10Z</time>
      </trkpt>
      <trkpt lat="45.66602" lon="3.19843">
        <ele>420.3</ele>
        <time>2021-08-04T09:30:12Z</time>
      </trkpt>
      <trkpt lat="45.666" lon="3.19842">
        <ele>420.5</ele>
        <time>2021-08-04T09:30:14Z</time>
      </trkpt>
      <trkpt lat="45.66597" lon="3.19842">
        <ele>420</ele>
        <time>2021-08-04T09:30:16Z</time>
      </trkpt>
      <trkpt lat="45.66595" lon="3.19843">
        <ele>419.7</ele>
        <time>2021-08-04T09:30:18Z</time>
      </trkpt>
      <trkpt lat="45.66592" lon="3.19842">
        <ele>419.6</ele>
        <time>2021-08-04T09:30:20Z</time>
      </trkpt>
      <trkpt lat="45.6659" lon="3.1984">
        <ele>420</ele>
        <time>2021-08-04T09:30:22Z</time>
      </trkpt>
      <trkpt lat="45.66587" lon="3.19839">
        <ele>420.2</ele>
        <time>2021-08-04T09:30:24Z</time>
      </trkpt>
      <trkpt lat="45.66583" lon="3.19838">
        <ele>420</ele>
        <time>2021-08-04T09:30:26Z</time>
      </trkpt>
      <trkpt lat="45.66581" lon="3.19837">
        <ele>420.2</ele>
        <time>2021-08-04T09:30:28Z</time>
      </trkpt>
      <trkpt lat="45.66581" lon="3.19837">
        <ele>420.2</ele>
        <time>2021-08-04T09:30:30Z</time>
      </trkpt>
      <trkpt lat="45.66578" lon="3.19836">
        <ele>419.9</ele>
        <time>2021-08-04T09:30:32Z</time>
      </trkpt>
      <trkpt lat="45.66576" lon="3.19836">
        <ele>419.5</ele>
        <time>2021-08-04T09:30:34Z</time>
      </trkpt>
      <trkpt lat="45.66574" lon="3.19835">
        <ele>419.5</ele>
        <time>2021-08-04T09:30:36Z</time>
      </trkpt>
      <trkpt lat="45.66572" lon="3.19833">
        <ele>419.4</ele>
        <time>2021-08-04T09:30:38Z</time>
      </trkpt>
      <trkpt lat="45.6657" lon="3.19833">
        <ele>419.3</ele>
        <time>2021-08-04T09:30:40Z</time>
      </trkpt>
      <trkpt lat="45.66568" lon="3.19831">
        <ele>419.3</ele>
        <time>2021-08-04T09:30:42Z</time>
      </trkpt>
      <trkpt lat="45.66567" lon="3.1983">
        <ele>419.2</ele>
        <time>2021-08-04T09:30:44Z</time>
      </trkpt>
      <trkpt lat="45.66565" lon="3.1983">
        <ele>419.2</ele>
        <time>2021-08-04T09:30:46Z</time>
      </trkpt>
      <trkpt lat="45.66564" lon="3.19829">
        <ele>419</ele>
        <time>2021-08-04T09:30:48Z</time>
      </trkpt>
      <trkpt lat="45.66562" lon="3.19828">
        <ele>418.9</ele>
        <time>2021-08-04T09:30:50Z</time>
      </trkpt>
      <trkpt lat="45.66561" lon="3.19827">
        <ele>418.9</ele>
        <time>2021-08-04T09:30:52Z</time>
      </trkpt>
      <trkpt lat="45.66541" lon="3.19814">
        <ele>418.7</ele>
        <time>2021-08-04T09:31:42Z</time>
      </trkpt>
      <trkpt lat="45.66535" lon="3.1981">
        <ele>419</ele>
        <time>2021-08-04T09:31:44Z</time>
      </trkpt>
      <trkpt lat="45.66527" lon="3.19807">
        <ele>418.2</ele>
        <time>2021-08-04T09:31:46Z</time>
      </trkpt>
      <trkpt lat="45.66519" lon="3.19804">
        <ele>417.7</ele>
        <time>2021-08-04T09:31:48Z</time>
      </trkpt>
      <trkpt lat="45.66511" lon="3.19802">
        <ele>416.7</ele>
        <time>2021-08-04T09:31:50Z</time>
      </trkpt>
      <trkpt lat="45.66502" lon="3.19802">
        <ele>415.1</ele>
        <time>2021-08-04T09:31:52Z</time>
      </trkpt>
      <trkpt lat="45.66493" lon="3.19801">
        <ele>415</ele>
        <time>2021-08-04T09:31:54Z</time>
      </trkpt>
      <trkpt lat="45.66486" lon="3.19801">
        <ele>414.9</ele>
        <time>2021-08-04T09:31:56Z</time>
      </trkpt>
      <trkpt lat="45.6648" lon="3.198">
        <ele>415.2</ele>
        <time>2021-08-04T09:31:58Z</time>
      </trkpt>
      <trkpt lat="45.66474" lon="3.19801">
        <ele>414.8</ele>
        <time>2021-08-04T09:32:00Z</time>
      </trkpt>
      <trkpt lat="45.66469" lon="3.19801">
        <ele>414.5</ele>
        <time>2021-08-04T09:32:02Z</time>
      </trkpt>
      <trkpt lat="45.66465" lon="3.19801">
        <ele>414.3</ele>
        <time>2021-08-04T09:32:04Z</time>
      </trkpt>
      <trkpt lat="45.6646" lon="3.19801">
        <ele>414.2</ele>
        <time>2021-08-04T09:32:06Z</time>
      </trkpt>
      <trkpt lat="45.66456" lon="3.19801">
        <ele>414.3</ele>
        <time>2021-08-04T09:32:08Z</time>
      </trkpt>
      <trkpt lat="45.66453" lon="3.19801">
        <ele>414.1</ele>
        <time>2021-08-04T09:32:10Z</time>
      </trkpt>
      <trkpt lat="45.66449" lon="3.19802">
        <ele>413.7</ele>
        <time>2021-08-04T09:32:12Z</time>
      </trkpt>
      <trkpt lat="45.66445" lon="3.19802">
        <ele>413.6</ele>
        <time>2021-08-04T09:32:14Z</time>
      </trkpt>
      <trkpt lat="45.66441" lon="3.19802">
        <ele>413.4</ele>
        <time>2021-08-04T09:32:16Z</time>
      </trkpt>
      <trkpt lat="45.66438" lon="3.19802">
        <ele>413.5</ele>
        <time>2021-08-04T09:32:18Z</time>
      </trkpt>
      <trkpt lat="45.66435" lon="3.19803">
        <ele>413.2</ele>
        <time>2021-08-04T09:32:20Z</time>
      </trkpt>
      <trkpt lat="45.66432" lon="3.19803">
        <ele>413.1</ele>
        <time>2021-08-04T09:32:22Z</time>
      </trkpt>
      <trkpt lat="45.66429" lon="3.19803">
        <ele>413</ele>
        <time>2021-08-04T09:32:24Z</time>
      </trkpt>
      <trkpt lat="45.66428" lon="3.19803">
        <ele>413</ele>
        <time>2021-08-04T09:32:26Z</time>
      </trkpt>
      <trkpt lat="45.66426" lon="3.19804">
        <ele>412.8</ele>
        <time>2021-08-04T09:32:28Z</time>
      </trkpt>
      <trkpt lat="45.66426" lon="3.19804">
        <ele>412.7</ele>
        <time>2021-08-04T09:32:30Z</time>
      </trkpt>
      <trkpt lat="45.66426" lon="3.19804">
        <ele>412.7</ele>
        <time>2021-08-04T09:32:32Z</time>
      </trkpt>
      <trkpt lat="45.66426" lon="3.19804">
        <ele>412.7</ele>
        <time>2021-08-04T09:32:34Z</time>
      </trkpt>
      <trkpt lat="45.66415" lon="3.19804">
        <ele>412.3</ele>
        <time>2021-08-04T09:34:06Z</time>
      </trkpt>
      <trkpt lat="45.6641" lon="3.19805">
        <ele>411.6</ele>
        <time>2021-08-04T09:34:08Z</time>
      </trkpt>
      <trkpt lat="45.66405" lon="3.19807">
        <ele>410.7</ele>
        <time>2021-08-04T09:34:10Z</time>
      </trkpt>
      <trkpt lat="45.66398" lon="3.19808">
        <ele>410.1</ele>
        <time>2021-08-04T09:34:12Z</time>
      </trkpt>
      <trkpt lat="45.6639" lon="3.1981">
        <ele>409</ele>
        <time>2021-08-04T09:34:14Z</time>
      </trkpt>
      <trkpt lat="45.66383" lon="3.19812">
        <ele>408</ele>
        <time>2021-08-04T09:34:16Z</time>
      </trkpt>
      <trkpt lat="45.66375" lon="3.19813">
        <ele>407.2</ele>
        <time>2021-08-04T09:34:18Z</time>
      </trkpt>
      <trkpt lat="45.6637" lon="3.19814">
        <ele>406.5</ele>
        <time>2021-08-04T09:34:20Z</time>
      </trkpt>
      <trkpt lat="45.66365" lon="3.19815">
        <ele>406</ele>
        <time>2021-08-04T09:34:22Z</time>
      </trkpt>
      <trkpt lat="45.66361" lon="3.19817">
        <ele>405.1</ele>
        <time>2021-08-04T09:34:24Z</time>
      </trkpt>
      <trkpt lat="45.66359" lon="3.19817">
        <ele>405</ele>
        <time>2021-08-04T09:34:26Z</time>
      </trkpt>
      <trkpt lat="45.66358" lon="3.19818">
        <ele>404.7</ele>
        <time>2021-08-04T09:34:28Z</time>
      </trkpt>
      <trkpt lat="45.66358" lon="3.19817">
        <ele>404.8</ele>
        <time>2021-08-04T09:34:30Z</time>
      </trkpt>
      <trkpt lat="45.66358" lon="3.19817">
        <ele>404.9</ele>
        <time>2021-08-04T09:34:32Z</time>
      </trkpt>
      <trkpt lat="45.66357" lon="3.19817">
        <ele>404.7</ele>
        <time>2021-08-04T09:34:34Z</time>
      </trkpt>
      <trkpt lat="45.66355" lon="3.19818">
        <ele>404.6</ele>
        <time>2021-08-04T09:34:36Z</time>
      </trkpt>
      <trkpt lat="45.66353" lon="3.19817">
        <ele>404.5</ele>
        <time>2021-08-04T09:34:38Z</time>
      </trkpt>
      <trkpt lat="45.66353" lon="3.19817">
        <ele>404.5</ele>
        <time>2021-08-04T09:34:40Z</time>
      </trkpt>
      <trkpt lat="45.66353" lon="3.19817">
        <ele>404.4</ele>
        <time>2021-08-04T09:34:42Z</time>
      </trkpt>
      <trkpt lat="45.66353" lon="3.19818">
        <ele>404.4</ele>
        <time>2021-08-04T09:34:44Z</time>
      </trkpt>
      <trkpt lat="45.66351" lon="3.19818">
        <ele>404.2</ele>
        <time>2021-08-04T09:34:46Z</time>
      </trkpt>
      <trkpt lat="45.66347" lon="3.19818">
        <ele>403.8</ele>
        <time>2021-08-04T09:34:48Z</time>
      </trkpt>
      <trkpt lat="45.66345" lon="3.19819">
        <ele>403.7</ele>
        <time>2021-08-04T09:34:50Z</time>
      </trkpt>
      <trkpt lat="45.66342" lon="3.19819">
        <ele>403.4</ele>
        <time>2021-08-04T09:34:52Z</time>
      </trkpt>
      <trkpt lat="45.6634" lon="3.19819">
        <ele>403.1</ele>
        <time>2021-08-04T09:34:54Z</time>
      </trkpt>
      <trkpt lat="45.66338" lon="3.1982">
        <ele>402.9</ele>
        <time>2021-08-04T09:34:56Z</time>
      </trkpt>
      <trkpt lat="45.66336" lon="3.1982">
        <ele>402.7</ele>
        <time>2021-08-04T09:34:58Z</time>
      </trkpt>
      <trkpt lat="45.66335" lon="3.1982">
        <ele>402.7</ele>
        <time>2021-08-04T09:35:00Z</time>
      </trkpt>
      <trkpt lat="45.66334" lon="3.19819">
        <ele>402.7</ele>
        <time>2021-08-04T09:35:02Z</time>
      </trkpt>
      <trkpt lat="45.66333" lon="3.19819">
        <ele>402.7</ele>
        <time>2021-08-04T09:35:04Z</time>
      </trkpt>
      <trkpt lat="45.66331" lon="3.19819">
        <ele>402.5</ele>
        <time>2021-08-04T09:35:06Z</time>
      </trkpt>
      <trkpt lat="45.66328" lon="3.1982">
        <ele>402.1</ele>
        <time>2021-08-04T09:35:08Z</time>
      </trkpt>
      <trkpt lat="45.66327" lon="3.1982">
        <ele>401.8</ele>
        <time>2021-08-04T09:35:10Z</time>
      </trkpt>
      <trkpt lat="45.66323" lon="3.19821">
        <ele>401.3</ele>
        <time>2021-08-04T09:35:12Z</time>
      </trkpt>
      <trkpt lat="45.66321" lon="3.19821">
        <ele>401.2</ele>
        <time>2021-08-04T09:35:14Z</time>
      </trkpt>
      <trkpt lat="45.66319" lon="3.19821">
        <ele>400.9</ele>
        <time>2021-08-04T09:35:16Z</time>
      </trkpt>
      <trkpt lat="45.66317" lon="3.19822">
        <ele>400.6</ele>
        <time>2021-08-04T09:35:18Z</time>
      </trkpt>
      <trkpt lat="45.66314" lon="3.19823">
        <ele>400.1</ele>
        <time>2021-08-04T09:35:20Z</time>
      </trkpt>
      <trkpt lat="45.6631" lon="3.19824">
        <ele>399.4</ele>
        <time>2021-08-04T09:35:22Z</time>
      </trkpt>
      <trkpt lat="45.6631" lon="3.19824">
        <ele>399.3</ele>
        <time>2021-08-04T09:35:24Z</time>
      </trkpt>
      <trkpt lat="45.66311" lon="3.19824">
        <ele>399.3</ele>
        <time>2021-08-04T09:35:26Z</time>
      </trkpt>
      <trkpt lat="45.6631" lon="3.19824">
        <ele>399.3</ele>
        <time>2021-08-04T09:35:28Z</time>
      </trkpt>
      <trkpt lat="45.6631" lon="3.19824">
        <ele>399.4</ele>
        <time>2021-08-04T09:35:30Z</time>
      </trkpt>
      <trkpt lat="45.66309" lon="3.19824">
        <ele>399.3</ele>
        <time>2021-08-04T09:35:32Z</time>
      </trkpt>
      <trkpt lat="45.66298" lon="3.19826">
        <ele>397.7</ele>
        <time>2021-08-04T09:36:08Z</time>
      </trkpt>
      <trkpt lat="45.66296" lon="3.19827">
        <ele>397.2</ele>
        <time>2021-08-04T09:36:10Z</time>
      </trkpt>
      <trkpt lat="45.66294" lon="3.19827">
        <ele>396.9</ele>
        <time>2021-08-04T09:36:12Z</time>
      </trkpt>
      <trkpt lat="45.66291" lon="3.19828">
        <ele>396.4</ele>
        <time>2021-08-04T09:36:14Z</time>
      </trkpt>
      <trkpt lat="45.66289" lon="3.19829">
        <ele>396.1</ele>
        <time>2021-08-04T09:36:16Z</time>
      </trkpt>
      <trkpt lat="45.66286" lon="3.19829">
        <ele>395.6</ele>
        <time>2021-08-04T09:36:18Z</time>
      </trkpt>
      <trkpt lat="45.66284" lon="3.19829">
        <ele>395.4</ele>
        <time>2021-08-04T09:36:20Z</time>
      </trkpt>
      <trkpt lat="45.6628" lon="3.1983">
        <ele>394.7</ele>
        <time>2021-08-04T09:36:22Z</time>
      </trkpt>
      <trkpt lat="45.66275" lon="3.19832">
        <ele>393.8</ele>
        <time>2021-08-04T09:36:24Z</time>
      </trkpt>
      <trkpt lat="45.66272" lon="3.19833">
        <ele>393.3</ele>
        <time>2021-08-04T09:36:26Z</time>
      </trkpt>
      <trkpt lat="45.66269" lon="3.19834">
        <ele>392.6</ele>
        <time>2021-08-04T09:36:28Z</time>
      </trkpt>
      <trkpt lat="45.6627" lon="3.19833">
        <ele>393.1</ele>
        <time>2021-08-04T09:36:30Z</time>
      </trkpt>
      <trkpt lat="45.66269" lon="3.19833">
        <ele>393</ele>
        <time>2021-08-04T09:36:32Z</time>
      </trkpt>
      <trkpt lat="45.66269" lon="3.19834">
        <ele>392.8</ele>
        <time>2021-08-04T09:36:36Z</time>
      </trkpt>
      <trkpt lat="45.66252" lon="3.19834">
        <ele>390.9</ele>
        <time>2021-08-04T09:36:56Z</time>
      </trkpt>
      <trkpt lat="45.66249" lon="3.19835">
        <ele>390.6</ele>
        <time>2021-08-04T09:36:58Z</time>
      </trkpt>
      <trkpt lat="45.66244" lon="3.19836">
        <ele>390.7</ele>
        <time>2021-08-04T09:37:00Z</time>
      </trkpt>
      <trkpt lat="45.66238" lon="3.19838">
        <ele>390.8</ele>
        <time>2021-08-04T09:37:02Z</time>
      </trkpt>
      <trkpt lat="45.66232" lon="3.19839">
        <ele>391.1</ele>
        <time>2021-08-04T09:37:04Z</time>
      </trkpt>
      <trkpt lat="45.66226" lon="3.19841">
        <ele>391.3</ele>
        <time>2021-08-04T09:37:06Z</time>
      </trkpt>
      <trkpt lat="45.6622" lon="3.19841">
        <ele>391.5</ele>
        <time>2021-08-04T09:37:08Z</time>
      </trkpt>
      <trkpt lat="45.66216" lon="3.19843">
        <ele>391.5</ele>
        <time>2021-08-04T09:37:10Z</time>
      </trkpt>
      <trkpt lat="45.66212" lon="3.19844">
        <ele>391.5</ele>
        <time>2021-08-04T09:37:12Z</time>
      </trkpt>
      <trkpt lat="45.66208" lon="3.19845">
        <ele>391.5</ele>
        <time>2021-08-04T09:37:14Z</time>
      </trkpt>
      <trkpt lat="45.66205" lon="3.19846">
        <ele>391.6</ele>
        <time>2021-08-04T09:37:16Z</time>
      </trkpt>
      <trkpt lat="45.66203" lon="3.19845">
        <ele>392</ele>
        <time>2021-08-04T09:37:18Z</time>
      </trkpt>
      <trkpt lat="45.66204" lon="3.19845">
        <ele>392</ele>
        <time>2021-08-04T09:37:20Z</time>
      </trkpt>
      <trkpt lat="45.66203" lon="3.19845">
        <ele>392</ele>
        <time>2021-08-04T09:37:22Z</time>
      </trkpt>
      <trkpt lat="45.66203" lon="3.19845">
        <ele>392</ele>
        <time>2021-08-04T09:37:24Z</time>
      </trkpt>
      <trkpt lat="45.66203" lon="3.19845">
        <ele>392.1</ele>
        <time>2021-08-04T09:37:26Z</time>
      </trkpt>
      <trkpt lat="45.66202" lon="3.19845">
        <ele>392</ele>
        <time>2021-08-04T09:37:28Z</time>
      </trkpt>
      <trkpt lat="45.662" lon="3.19846">
        <ele>391.8</ele>
        <time>2021-08-04T09:37:30Z</time>
      </trkpt>
      <trkpt lat="45.66198" lon="3.19847">
        <ele>391.7</ele>
        <time>2021-08-04T09:37:32Z</time>
      </trkpt>
      <trkpt lat="45.66195" lon="3.19848">
        <ele>391.6</ele>
        <time>2021-08-04T09:37:34Z</time>
      </trkpt>
      <trkpt lat="45.66193" lon="3.19849">
        <ele>391.5</ele>
        <time>2021-08-04T09:37:36Z</time>
      </trkpt>
      <trkpt lat="45.66191" lon="3.1985">
        <ele>391.6</ele>
        <time>2021-08-04T09:37:38Z</time>
      </trkpt>
      <trkpt lat="45.66189" lon="3.1985">
        <ele>391.6</ele>
        <time>2021-08-04T09:37:40Z</time>
      </trkpt>
      <trkpt lat="45.66188" lon="3.1985">
        <ele>391.6</ele>
        <time>2021-08-04T09:37:42Z</time>
      </trkpt>
      <trkpt lat="45.66188" lon="3.1985">
        <ele>391.6</ele>
        <time>2021-08-04T09:37:44Z</time>
      </trkpt>
      <trkpt lat="45.66188" lon="3.1985">
        <ele>391.7</ele>
        <time>2021-08-04T09:37:46Z</time>
      </trkpt>
      <trkpt lat="45.66186" lon="3.1985">
        <ele>391.7</ele>
        <time>2021-08-04T09:37:48Z</time>
      </trkpt>
      <trkpt lat="45.66186" lon="3.19851">
        <ele>391.6</ele>
        <time>2021-08-04T09:37:50Z</time>
      </trkpt>
      <trkpt lat="45.6618" lon="3.19851">
        <ele>391.8</ele>
        <time>2021-08-04T09:38:14Z</time>
      </trkpt>
      <trkpt lat="45.66179" lon="3.19851">
        <ele>391.9</ele>
        <time>2021-08-04T09:38:16Z</time>
      </trkpt>
      <trkpt lat="45.66178" lon="3.19852">
        <ele>391.9</ele>
        <time>2021-08-04T09:38:18Z</time>
      </trkpt>
      <trkpt lat="45.66175" lon="3.19854">
        <ele>391.4</ele>
        <time>2021-08-04T09:38:20Z</time>
      </trkpt>
      <trkpt lat="45.66173" lon="3.19854">
        <ele>391.5</ele>
        <time>2021-08-04T09:38:22Z</time>
      </trkpt>
      <trkpt lat="45.66171" lon="3.19854">
        <ele>391.8</ele>
        <time>2021-08-04T09:38:24Z</time>
      </trkpt>
      <trkpt lat="45.66169" lon="3.19854">
        <ele>392</ele>
        <time>2021-08-04T09:38:26Z</time>
      </trkpt>
      <trkpt lat="45.66167" lon="3.19855">
        <ele>391.6</ele>
        <time>2021-08-04T09:38:28Z</time>
      </trkpt>
      <trkpt lat="45.66164" lon="3.19856">
        <ele>391.4</ele>
        <time>2021-08-04T09:38:30Z</time>
      </trkpt>
      <trkpt lat="45.66162" lon="3.19856">
        <ele>391.5</ele>
        <time>2021-08-04T09:38:32Z</time>
      </trkpt>
      <trkpt lat="45.6616" lon="3.19857">
        <ele>391.4</ele>
        <time>2021-08-04T09:38:34Z</time>
      </trkpt>
      <trkpt lat="45.6616" lon="3.19856">
        <ele>391.5</ele>
        <time>2021-08-04T09:38:36Z</time>
      </trkpt>
      <trkpt lat="45.6616" lon="3.19857">
        <ele>391.4</ele>
        <time>2021-08-04T09:38:38Z</time>
      </trkpt>
      <trkpt lat="45.66158" lon="3.19858">
        <ele>391.2</ele>
        <time>2021-08-04T09:38:40Z</time>
      </trkpt>
      <trkpt lat="45.66159" lon="3.19858">
        <ele>391.1</ele>
        <time>2021-08-04T09:38:42Z</time>
      </trkpt>
      <trkpt lat="45.66103" lon="3.19892">
        <ele>383.9</ele>
        <time>2021-08-04T09:46:20Z</time>
      </trkpt>
      <trkpt lat="45.66097" lon="3.19895">
        <ele>383.5</ele>
        <time>2021-08-04T09:46:22Z</time>
      </trkpt>
      <trkpt lat="45.66091" lon="3.19899">
        <ele>383.1</ele>
        <time>2021-08-04T09:46:24Z</time>
      </trkpt>
      <trkpt lat="45.66084" lon="3.19904">
        <ele>382.4</ele>
        <time>2021-08-04T09:46:26Z</time>
      </trkpt>
      <trkpt lat="45.66074" lon="3.19909">
        <ele>380.4</ele>
        <time>2021-08-04T09:46:28Z</time>
      </trkpt>
      <trkpt lat="45.66064" lon="3.19913">
        <ele>378.3</ele>
        <time>2021-08-04T09:46:30Z</time>
      </trkpt>
      <trkpt lat="45.66053" lon="3.19918">
        <ele>376.6</ele>
        <time>2021-08-04T09:46:32Z</time>
      </trkpt>
      <trkpt lat="45.6604" lon="3.1992">
        <ele>375.3</ele>
        <time>2021-08-04T09:46:34Z</time>
      </trkpt>
      <trkpt lat="45.66029" lon="3.19917">
        <ele>375</ele>
        <time>2021-08-04T09:46:36Z</time>
      </trkpt>
      <trkpt lat="45.66021" lon="3.19908">
        <ele>375.8</ele>
        <time>2021-08-04T09:46:38Z</time>
      </trkpt>
      <trkpt lat="45.66015" lon="3.19896">
        <ele>377</ele>
        <time>2021-08-04T09:46:40Z</time>
      </trkpt>
      <trkpt lat="45.66011" lon="3.19885">
        <ele>378.2</ele>
        <time>2021-08-04T09:46:42Z</time>
      </trkpt>
      <trkpt lat="45.66007" lon="3.19875">
        <ele>379.1</ele>
        <time>2021-08-04T09:46:44Z</time>
      </trkpt>
      <trkpt lat="45.66002" lon="3.19865">
        <ele>379.5</ele>
        <time>2021-08-04T09:46:46Z</time>
      </trkpt>
      <trkpt lat="45.65996" lon="3.19858">
        <ele>379</ele>
        <time>2021-08-04T09:46:48Z</time>
      </trkpt>
      <trkpt lat="45.65989" lon="3.19852">
        <ele>377.7</ele>
        <time>2021-08-04T09:46:50Z</time>
      </trkpt>
      <trkpt lat="45.6598" lon="3.19847">
        <ele>376.1</ele>
        <time>2021-08-04T09:46:52Z</time>
      </trkpt>
      <trkpt lat="45.65974" lon="3.19842">
        <ele>374.9</ele>
        <time>2021-08-04T09:46:54Z</time>
      </trkpt>
      <trkpt lat="45.65972" lon="3.19841">
        <ele>374.5</ele>
        <time>2021-08-04T09:46:56Z</time>
      </trkpt>
      <trkpt lat="45.65968" lon="3.1984">
        <ele>373.6</ele>
        <time>2021-08-04T09:46:58Z</time>
      </trkpt>
      <trkpt lat="45.65966" lon="3.19846">
        <ele>372.4</ele>
        <time>2021-08-04T09:47:00Z</time>
      </trkpt>
      <trkpt lat="45.65967" lon="3.19856">
        <ele>371.7</ele>
        <time>2021-08-04T09:47:02Z</time>
      </trkpt>
      <trkpt lat="45.65967" lon="3.19861">
        <ele>371.2</ele>
        <time>2021-08-04T09:47:04Z</time>
      </trkpt>
      <trkpt lat="45.65967" lon="3.19863">
        <ele>371</ele>
        <time>2021-08-04T09:47:06Z</time>
      </trkpt>
      <trkpt lat="45.65966" lon="3.19867">
        <ele>370.5</ele>
        <time>2021-08-04T09:47:08Z</time>
      </trkpt>
      <trkpt lat="45.65967" lon="3.19873">
        <ele>370</ele>
        <time>2021-08-04T09:47:10Z</time>
      </trkpt>
      <trkpt lat="45.65967" lon="3.19879">
        <ele>369.4</ele>
        <time>2021-08-04T09:47:12Z</time>
      </trkpt>
      <trkpt lat="45.65966" lon="3.19885">
        <ele>368.6</ele>
        <time>2021-08-04T09:47:14Z</time>
      </trkpt>
      <trkpt lat="45.65966" lon="3.19891">
        <ele>368</ele>
        <time>2021-08-04T09:47:16Z</time>
      </trkpt>
      <trkpt lat="45.65966" lon="3.19896">
        <ele>367.6</ele>
        <time>2021-08-04T09:47:18Z</time>
      </trkpt>
      <trkpt lat="45.65965" lon="3.19901">
        <ele>366.9</ele>
        <time>2021-08-04T09:47:20Z</time>
      </trkpt>
      <trkpt lat="45.65964" lon="3.19902">
        <ele>366.7</ele>
        <time>2021-08-04T09:47:22Z</time>
      </trkpt>
      <trkpt lat="45.65965" lon="3.19901">
        <ele>366.8</ele>
        <time>2021-08-04T09:47:24Z</time>
      </trkpt>
      <trkpt lat="45.65964" lon="3.19901">
        <ele>366.7</ele>
        <time>2021-08-04T09:47:26Z</time>
      </trkpt>
      <trkpt lat="45.65964" lon="3.19901">
        <ele>366.7</ele>
        <time>2021-08-04T09:47:28Z</time>
      </trkpt>
      <trkpt lat="45.65964" lon="3.19902">
        <ele>366.7</ele>
        <time>2021-08-04T09:47:30Z</time>
      </trkpt>
      <trkpt lat="45.65965" lon="3.19925">
        <ele>364.9</ele>
        <time>2021-08-04T09:47:42Z</time>
      </trkpt>
      <trkpt lat="45.65964" lon="3.19933">
        <ele>364.4</ele>
        <time>2021-08-04T09:47:44Z</time>
      </trkpt>
      <trkpt lat="45.65964" lon="3.19943">
        <ele>363.8</ele>
        <time>2021-08-04T09:47:46Z</time>
      </trkpt>
      <trkpt lat="45.65963" lon="3.19955">
        <ele>363</ele>
        <time>2021-08-04T09:47:48Z</time>
      </trkpt>
      <trkpt lat="45.65964" lon="3.19969">
        <ele>362.4</ele>
        <time>2021-08-04T09:47:50Z</time>
      </trkpt>
      <trkpt lat="45.65965" lon="3.19982">
        <ele>361.9</ele>
        <time>2021-08-04T09:47:52Z</time>
      </trkpt>
      <trkpt lat="45.65969" lon="3.19995">
        <ele>361.8</ele>
        <time>2021-08-04T09:47:54Z</time>
      </trkpt>
      <trkpt lat="45.65975" lon="3.20008">
        <ele>361.9</ele>
        <time>2021-08-04T09:47:56Z</time>
      </trkpt>
      <trkpt lat="45.65985" lon="3.2002">
        <ele>362.3</ele>
        <time>2021-08-04T09:47:58Z</time>
      </trkpt>
      <trkpt lat="45.65994" lon="3.20032">
        <ele>362.6</ele>
        <time>2021-08-04T09:48:00Z</time>
      </trkpt>
      <trkpt lat="45.66005" lon="3.20043">
        <ele>362.2</ele>
        <time>2021-08-04T09:48:02Z</time>
      </trkpt>
      <trkpt lat="45.66014" lon="3.20052">
        <ele>361</ele>
        <time>2021-08-04T09:48:04Z</time>
      </trkpt>
      <trkpt lat="45.66024" lon="3.20059">
        <ele>360</ele>
        <time>2021-08-04T09:48:06Z</time>
      </trkpt>
      <trkpt lat="45.6603" lon="3.20065">
        <ele>359.3</ele>
        <time>2021-08-04T09:48:08Z</time>
      </trkpt>
      <trkpt lat="45.66035" lon="3.2007">
        <ele>358.8</ele>
        <time>2021-08-04T09:48:10Z</time>
      </trkpt>
      <trkpt lat="45.6604" lon="3.20074">
        <ele>358.3</ele>
        <time>2021-08-04T09:48:12Z</time>
      </trkpt>
      <trkpt lat="45.66046" lon="3.20075">
        <ele>357.9</ele>
        <time>2021-08-04T09:48:14Z</time>
      </trkpt>
      <trkpt lat="45.66051" lon="3.20077">
        <ele>357.6</ele>
        <time>2021-08-04T09:48:16Z</time>
      </trkpt>
      <trkpt lat="45.66055" lon="3.2008">
        <ele>357.2</ele>
        <time>2021-08-04T09:48:18Z</time>
      </trkpt>
      <trkpt lat="45.66058" lon="3.20079">
        <ele>357.2</ele>
        <time>2021-08-04T09:48:20Z</time>
      </trkpt>
      <trkpt lat="45.66057" lon="3.20079">
        <ele>357.2</ele>
        <time>2021-08-04T09:48:22Z</time>
      </trkpt>
      <trkpt lat="45.66057" lon="3.20079">
        <ele>357.3</ele>
        <time>2021-08-04T09:48:24Z</time>
      </trkpt>
      <trkpt lat="45.66057" lon="3.20079">
        <ele>357.3</ele>
        <time>2021-08-04T09:48:26Z</time>
      </trkpt>
      <trkpt lat="45.66056" lon="3.20079">
        <ele>357.3</ele>
        <time>2021-08-04T09:48:28Z</time>
      </trkpt>
      <trkpt lat="45.66056" lon="3.20079">
        <ele>357.3</ele>
        <time>2021-08-04T09:48:30Z</time>
      </trkpt>
      <trkpt lat="45.66043" lon="3.2009">
        <ele>356.9</ele>
        <time>2021-08-04T09:57:16Z</time>
      </trkpt>
      <trkpt lat="45.66043" lon="3.201">
        <ele>356.1</ele>
        <time>2021-08-04T09:57:18Z</time>
      </trkpt>
      <trkpt lat="45.66042" lon="3.2011">
        <ele>355.3</ele>
        <time>2021-08-04T09:57:20Z</time>
      </trkpt>
      <trkpt lat="45.66036" lon="3.20122">
        <ele>354.5</ele>
        <time>2021-08-04T09:57:22Z</time>
      </trkpt>
      <trkpt lat="45.66026" lon="3.20129">
        <ele>354.5</ele>
        <time>2021-08-04T09:57:24Z</time>
      </trkpt>
      <trkpt lat="45.66013" lon="3.20129">
        <ele>355.1</ele>
        <time>2021-08-04T09:57:26Z</time>
      </trkpt>
      <trkpt lat="45.66001" lon="3.20126">
        <ele>355.9</ele>
        <time>2021-08-04T09:57:28Z</time>
      </trkpt>
      <trkpt lat="45.65989" lon="3.20127">
        <ele>355.3</ele>
        <time>2021-08-04T09:57:30Z</time>
      </trkpt>
      <trkpt lat="45.6598" lon="3.20136">
        <ele>354.2</ele>
        <time>2021-08-04T09:57:32Z</time>
      </trkpt>
      <trkpt lat="45.65974" lon="3.20151">
        <ele>353</ele>
        <time>2021-08-04T09:57:34Z</time>
      </trkpt>
      <trkpt lat="45.65974" lon="3.20168">
        <ele>352</ele>
        <time>2021-08-04T09:57:36Z</time>
      </trkpt>
      <trkpt lat="45.65981" lon="3.20182">
        <ele>351.3</ele>
        <time>2021-08-04T09:57:38Z</time>
      </trkpt>
      <trkpt lat="45.65992" lon="3.20191">
        <ele>351</ele>
        <time>2021-08-04T09:57:40Z</time>
      </trkpt>
      <trkpt lat="45.66" lon="3.202">
        <ele>350.6</ele>
        <time>2021-08-04T09:57:42Z</time>
      </trkpt>
      <trkpt lat="45.66005" lon="3.20206">
        <ele>349.9</ele>
        <time>2021-08-04T09:57:44Z</time>
      </trkpt>
      <trkpt lat="45.66007" lon="3.20213">
        <ele>349.3</ele>
        <time>2021-08-04T09:57:46Z</time>
      </trkpt>
      <trkpt lat="45.66007" lon="3.20217">
        <ele>349</ele>
        <time>2021-08-04T09:57:48Z</time>
      </trkpt>
      <trkpt lat="45.66006" lon="3.20219">
        <ele>348.9</ele>
        <time>2021-08-04T09:57:50Z</time>
      </trkpt>
      <trkpt lat="45.66006" lon="3.20219">
        <ele>348.9</ele>
        <time>2021-08-04T09:57:52Z</time>
      </trkpt>
      <trkpt lat="45.66006" lon="3.20223">
        <ele>348.6</ele>
        <time>2021-08-04T09:57:54Z</time>
      </trkpt>
      <trkpt lat="45.66007" lon="3.20229">
        <ele>348.1</ele>
        <time>2021-08-04T09:57:56Z</time>
      </trkpt>
      <trkpt lat="45.66013" lon="3.20233">
        <ele>347.6</ele>
        <time>2021-08-04T09:57:58Z</time>
      </trkpt>
      <trkpt lat="45.6602" lon="3.20235">
        <ele>347.1</ele>
        <time>2021-08-04T09:58:00Z</time>
      </trkpt>
      <trkpt lat="45.66028" lon="3.20233">
        <ele>346.8</ele>
        <time>2021-08-04T09:58:02Z</time>
      </trkpt>
      <trkpt lat="45.66035" lon="3.20228">
        <ele>346.8</ele>
        <time>2021-08-04T09:58:04Z</time>
      </trkpt>
      <trkpt lat="45.66043" lon="3.20221">
        <ele>346.9</ele>
        <time>2021-08-04T09:58:06Z</time>
      </trkpt>
      <trkpt lat="45.66049" lon="3.20212">
        <ele>347.1</ele>
        <time>2021-08-04T09:58:08Z</time>
      </trkpt>
      <trkpt lat="45.66056" lon="3.20203">
        <ele>347.3</ele>
        <time>2021-08-04T09:58:10Z</time>
      </trkpt>
      <trkpt lat="45.66064" lon="3.20193">
        <ele>347.5</ele>
        <time>2021-08-04T09:58:12Z</time>
      </trkpt>
      <trkpt lat="45.66072" lon="3.20183">
        <ele>347.7</ele>
        <time>2021-08-04T09:58:14Z</time>
      </trkpt>
      <trkpt lat="45.66081" lon="3.20175">
        <ele>347.6</ele>
        <time>2021-08-04T09:58:16Z</time>
      </trkpt>
      <trkpt lat="45.6609" lon="3.20173">
        <ele>347.2</ele>
        <time>2021-08-04T09:58:18Z</time>
      </trkpt>
      <trkpt lat="45.66097" lon="3.20175">
        <ele>346.6</ele>
        <time>2021-08-04T09:58:20Z</time>
      </trkpt>
      <trkpt lat="45.66105" lon="3.2018">
        <ele>345.8</ele>
        <time>2021-08-04T09:58:22Z</time>
      </trkpt>
      <trkpt lat="45.66111" lon="3.20188">
        <ele>345</ele>
        <time>2021-08-04T09:58:24Z</time>
      </trkpt>
      <trkpt lat="45.66117" lon="3.20196">
        <ele>344.2</ele>
        <time>2021-08-04T09:58:26Z</time>
      </trkpt>
      <trkpt lat="45.66123" lon="3.20204">
        <ele>343.5</ele>
        <time>2021-08-04T09:58:28Z</time>
      </trkpt>
      <trkpt lat="45.66129" lon="3.20212">
        <ele>342.9</ele>
        <time>2021-08-04T09:58:30Z</time>
      </trkpt>
      <trkpt lat="45.66135" lon="3.20219">
        <ele>342.3</ele>
        <time>2021-08-04T09:58:32Z</time>
      </trkpt>
      <trkpt lat="45.6614" lon="3.20228">
        <ele>341.7</ele>
        <time>2021-08-04T09:58:34Z</time>
      </trkpt>
      <trkpt lat="45.66147" lon="3.20235">
        <ele>341.2</ele>
        <time>2021-08-04T09:58:36Z</time>
      </trkpt>
      <trkpt lat="45.66153" lon="3.20243">
        <ele>340.7</ele>
        <time>2021-08-04T09:58:38Z</time>
      </trkpt>
      <trkpt lat="45.6616" lon="3.2025">
        <ele>340.3</ele>
        <time>2021-08-04T09:58:40Z</time>
      </trkpt>
      <trkpt lat="45.66165" lon="3.20259">
        <ele>340.4</ele>
        <time>2021-08-04T09:58:42Z</time>
      </trkpt>
      <trkpt lat="45.66172" lon="3.20267">
        <ele>341.1</ele>
        <time>2021-08-04T09:58:44Z</time>
      </trkpt>
      <trkpt lat="45.66178" lon="3.20275">
        <ele>341.8</ele>
        <time>2021-08-04T09:58:46Z</time>
      </trkpt>
      <trkpt lat="45.66185" lon="3.20283">
        <ele>342.5</ele>
        <time>2021-08-04T09:58:48Z</time>
      </trkpt>
      <trkpt lat="45.66191" lon="3.20292">
        <ele>343.2</ele>
        <time>2021-08-04T09:58:50Z</time>
      </trkpt>
      <trkpt lat="45.66198" lon="3.20301">
        <ele>343.9</ele>
        <time>2021-08-04T09:58:52Z</time>
      </trkpt>
      <trkpt lat="45.66203" lon="3.20312">
        <ele>344.5</ele>
        <time>2021-08-04T09:58:54Z</time>
      </trkpt>
      <trkpt lat="45.66208" lon="3.20324">
        <ele>345.2</ele>
        <time>2021-08-04T09:58:56Z</time>
      </trkpt>
      <trkpt lat="45.66211" lon="3.20337">
        <ele>345.7</ele>
        <time>2021-08-04T09:58:58Z</time>
      </trkpt>
      <trkpt lat="45.66212" lon="3.20349">
        <ele>346.1</ele>
        <time>2021-08-04T09:59:00Z</time>
      </trkpt>
      <trkpt lat="45.66212" lon="3.20361">
        <ele>346.4</ele>
        <time>2021-08-04T09:59:02Z</time>
      </trkpt>
      <trkpt lat="45.66212" lon="3.20373">
        <ele>346.8</ele>
        <time>2021-08-04T09:59:04Z</time>
      </trkpt>
      <trkpt lat="45.66212" lon="3.20385">
        <ele>347.2</ele>
        <time>2021-08-04T09:59:06Z</time>
      </trkpt>
      <trkpt lat="45.66212" lon="3.20397">
        <ele>347.5</ele>
        <time>2021-08-04T09:59:08Z</time>
      </trkpt>
      <trkpt lat="45.66212" lon="3.20408">
        <ele>347.8</ele>
        <time>2021-08-04T09:59:10Z</time>
      </trkpt>
      <trkpt lat="45.66212" lon="3.20419">
        <ele>348.2</ele>
        <time>2021-08-04T09:59:12Z</time>
      </trkpt>
      <trkpt lat="45.66212" lon="3.20431">
        <ele>348.5</ele>
        <time>2021-08-04T09:59:14Z</time>
      </trkpt>
      <trkpt lat="45.66211" lon="3.20443">
        <ele>348.9</ele>
        <time>2021-08-04T09:59:16Z</time>
      </trkpt>
      <trkpt lat="45.66211" lon="3.20455">
        <ele>349.2</ele>
        <time>2021-08-04T09:59:18Z</time>
      </trkpt>
      <trkpt lat="45.66211" lon="3.20467">
        <ele>349.6</ele>
        <time>2021-08-04T09:59:20Z</time>
      </trkpt>
      <trkpt lat="45.66211" lon="3.20478">
        <ele>349.9</ele>
        <time>2021-08-04T09:59:22Z</time>
      </trkpt>
      <trkpt lat="45.66211" lon="3.2049">
        <ele>350.3</ele>
        <time>2021-08-04T09:59:24Z</time>
      </trkpt>
      <trkpt lat="45.6621" lon="3.20502">
        <ele>350.6</ele>
        <time>2021-08-04T09:59:26Z</time>
      </trkpt>
      <trkpt lat="45.6621" lon="3.20513">
        <ele>350.7</ele>
        <time>2021-08-04T09:59:28Z</time>
      </trkpt>
      <trkpt lat="45.6621" lon="3.20525">
        <ele>350.8</ele>
        <time>2021-08-04T09:59:30Z</time>
      </trkpt>
      <trkpt lat="45.6621" lon="3.20536">
        <ele>351</ele>
        <time>2021-08-04T09:59:32Z</time>
      </trkpt>
      <trkpt lat="45.6621" lon="3.20547">
        <ele>351.1</ele>
        <time>2021-08-04T09:59:34Z</time>
      </trkpt>
      <trkpt lat="45.66209" lon="3.20558">
        <ele>351.2</ele>
        <time>2021-08-04T09:59:36Z</time>
      </trkpt>
      <trkpt lat="45.66209" lon="3.2057">
        <ele>351.3</ele>
        <time>2021-08-04T09:59:38Z</time>
      </trkpt>
      <trkpt lat="45.66209" lon="3.20581">
        <ele>351.5</ele>
        <time>2021-08-04T09:59:40Z</time>
      </trkpt>
      <trkpt lat="45.66209" lon="3.20593">
        <ele>351.4</ele>
        <time>2021-08-04T09:59:42Z</time>
      </trkpt>
      <trkpt lat="45.66208" lon="3.20606">
        <ele>351.4</ele>
        <time>2021-08-04T09:59:44Z</time>
      </trkpt>
      <trkpt lat="45.66208" lon="3.20619">
        <ele>351.3</ele>
        <time>2021-08-04T09:59:46Z</time>
      </trkpt>
      <trkpt lat="45.66208" lon="3.20632">
        <ele>351.2</ele>
        <time>2021-08-04T09:59:48Z</time>
      </trkpt>
      <trkpt lat="45.66207" lon="3.20646">
        <ele>351.1</ele>
        <time>2021-08-04T09:59:50Z</time>
      </trkpt>
      <trkpt lat="45.66206" lon="3.20659">
        <ele>351</ele>
        <time>2021-08-04T09:59:52Z</time>
      </trkpt>
      <trkpt lat="45.66205" lon="3.2067">
        <ele>351</ele>
        <time>2021-08-04T09:59:54Z</time>
      </trkpt>
      <trkpt lat="45.66205" lon="3.20682">
        <ele>350.9</ele>
        <time>2021-08-04T09:59:56Z</time>
      </trkpt>
      <trkpt lat="45.66205" lon="3.20694">
        <ele>350.8</ele>
        <time>2021-08-04T09:59:58Z</time>
      </trkpt>
      <trkpt lat="45.66204" lon="3.20706">
        <ele>350.8</ele>
        <time>2021-08-04T10:00:00Z</time>
      </trkpt>
      <trkpt lat="45.66204" lon="3.20718">
        <ele>350.7</ele>
        <time>2021-08-04T10:00:02Z</time>
      </trkpt>
      <trkpt lat="45.66204" lon="3.20729">
        <ele>350.7</ele>
        <time>2021-08-04T10:00:04Z</time>
      </trkpt>
      <trkpt lat="45.66204" lon="3.2074">
        <ele>350.6</ele>
        <time>2021-08-04T10:00:06Z</time>
      </trkpt>
      <trkpt lat="45.66203" lon="3.2075">
        <ele>350.6</ele>
        <time>2021-08-04T10:00:08Z</time>
      </trkpt>
      <trkpt lat="45.66203" lon="3.20759">
        <ele>350.6</ele>
        <time>2021-08-04T10:00:10Z</time>
      </trkpt>
      <trkpt lat="45.66203" lon="3.20768">
        <ele>350.7</ele>
        <time>2021-08-04T10:00:12Z</time>
      </trkpt>
      <trkpt lat="45.66202" lon="3.20776">
        <ele>350.7</ele>
        <time>2021-08-04T10:00:14Z</time>
      </trkpt>
      <trkpt lat="45.66199" lon="3.20782">
        <ele>350.8</ele>
        <time>2021-08-04T10:00:16Z</time>
      </trkpt>
      <trkpt lat="45.66196" lon="3.20782">
        <ele>350.8</ele>
        <time>2021-08-04T10:00:18Z</time>
      </trkpt>
      <trkpt lat="45.66195" lon="3.20782">
        <ele>350.8</ele>
        <time>2021-08-04T10:00:20Z</time>
      </trkpt>
      <trkpt lat="45.66195" lon="3.20783">
        <ele>350.8</ele>
        <time>2021-08-04T10:00:22Z</time>
      </trkpt>
      <trkpt lat="45.66195" lon="3.20783">
        <ele>350.8</ele>
        <time>2021-08-04T10:00:24Z</time>
      </trkpt>
      <trkpt lat="45.66195" lon="3.20783">
        <ele>350.8</ele>
        <time>2021-08-04T10:00:26Z</time>
      </trkpt>
      <trkpt lat="45.6619" lon="3.20784">
        <ele>350.8</ele>
        <time>2021-08-04T10:01:08Z</time>
      </trkpt>
      <trkpt lat="45.66187" lon="3.20786">
        <ele>350.9</ele>
        <time>2021-08-04T10:01:10Z</time>
      </trkpt>
      <trkpt lat="45.66183" lon="3.20787">
        <ele>350.9</ele>
        <time>2021-08-04T10:01:12Z</time>
      </trkpt>
      <trkpt lat="45.66179" lon="3.20787">
        <ele>350.9</ele>
        <time>2021-08-04T10:01:14Z</time>
      </trkpt>
      <trkpt lat="45.66175" lon="3.20786">
        <ele>350.9</ele>
        <time>2021-08-04T10:01:16Z</time>
      </trkpt>
      <trkpt lat="45.6617" lon="3.20785">
        <ele>351</ele>
        <time>2021-08-04T10:01:18Z</time>
      </trkpt>
      <trkpt lat="45.66165" lon="3.20785">
        <ele>351</ele>
        <time>2021-08-04T10:01:20Z</time>
      </trkpt>
      <trkpt lat="45.66161" lon="3.20786">
        <ele>351.1</ele>
        <time>2021-08-04T10:01:22Z</time>
      </trkpt>
      <trkpt lat="45.66157" lon="3.20788">
        <ele>351.1</ele>
        <time>2021-08-04T10:01:24Z</time>
      </trkpt>
      <trkpt lat="45.66155" lon="3.20787">
        <ele>351.1</ele>
        <time>2021-08-04T10:01:26Z</time>
      </trkpt>
      <trkpt lat="45.66154" lon="3.20785">
        <ele>351.2</ele>
        <time>2021-08-04T10:01:28Z</time>
      </trkpt>
      <trkpt lat="45.66154" lon="3.20785">
        <ele>351.2</ele>
        <time>2021-08-04T10:01:30Z</time>
      </trkpt>
      <trkpt lat="45.66154" lon="3.20786">
        <ele>351.2</ele>
        <time>2021-08-04T10:01:32Z</time>
      </trkpt>
      <trkpt lat="45.66154" lon="3.20785">
        <ele>351.2</ele>
        <time>2021-08-04T10:01:34Z</time>
      </trkpt>
      <trkpt lat="45.66153" lon="3.20786">
        <ele>351.2</ele>
        <time>2021-08-04T10:01:36Z</time>
      </trkpt>
      <trkpt lat="45.66166" lon="3.20801">
        <ele>351</ele>
        <time>2021-08-04T10:09:16Z</time>
      </trkpt>
      <trkpt lat="45.66173" lon="3.20801">
        <ele>351</ele>
        <time>2021-08-04T10:09:18Z</time>
      </trkpt>
      <trkpt lat="45.66181" lon="3.20802">
        <ele>350.9</ele>
        <time>2021-08-04T10:09:20Z</time>
      </trkpt>
      <trkpt lat="45.66189" lon="3.20802">
        <ele>350.9</ele>
        <time>2021-08-04T10:09:22Z</time>
      </trkpt>
      <trkpt lat="45.66198" lon="3.20802">
        <ele>350.9</ele>
        <time>2021-08-04T10:09:24Z</time>
      </trkpt>
      <trkpt lat="45.66206" lon="3.20802">
        <ele>350.8</ele>
        <time>2021-08-04T10:09:26Z</time>
      </trkpt>
      <trkpt lat="45.66215" lon="3.208">
        <ele>350.8</ele>
        <time>2021-08-04T10:09:28Z</time>
      </trkpt>
      <trkpt lat="45.66223" lon="3.20799">
        <ele>350.7</ele>
        <time>2021-08-04T10:09:30Z</time>
      </trkpt>
      <trkpt lat="45.66232" lon="3.20799">
        <ele>350.7</ele>
        <time>2021-08-04T10:09:32Z</time>
      </trkpt>
      <trkpt lat="45.6624" lon="3.20799">
        <ele>350.6</ele>
        <time>2021-08-04T10:09:34Z</time>
      </trkpt>
      <trkpt lat="45.66249" lon="3.208">
        <ele>350.6</ele>
        <time>2021-08-04T10:09:36Z</time>
      </trkpt>
      <trkpt lat="45.66257" lon="3.208">
        <ele>350.7</ele>
        <time>2021-08-04T10:09:38Z</time>
      </trkpt>
      <trkpt lat="45.66266" lon="3.208">
        <ele>350.8</ele>
        <time>2021-08-04T10:09:40Z</time>
      </trkpt>
      <trkpt lat="45.66275" lon="3.208">
        <ele>350.9</ele>
        <time>2021-08-04T10:09:42Z</time>
      </trkpt>
      <trkpt lat="45.66283" lon="3.20799">
        <ele>351</ele>
        <time>2021-08-04T10:09:44Z</time>
      </trkpt>
      <trkpt lat="45.6629" lon="3.208">
        <ele>351.1</ele>
        <time>2021-08-04T10:09:46Z</time>
      </trkpt>
      <trkpt lat="45.66296" lon="3.20803">
        <ele>351.2</ele>
        <time>2021-08-04T10:09:48Z</time>
      </trkpt>
      <trkpt lat="45.66299" lon="3.20812">
        <ele>351.3</ele>
        <time>2021-08-04T10:09:50Z</time>
      </trkpt>
      <trkpt lat="45.66298" lon="3.20823">
        <ele>351.4</ele>
        <time>2021-08-04T10:09:52Z</time>
      </trkpt>
      <trkpt lat="45.66296" lon="3.20833">
        <ele>351.5</ele>
        <time>2021-08-04T10:09:54Z</time>
      </trkpt>
      <trkpt lat="45.66295" lon="3.20845">
        <ele>351.5</ele>
        <time>2021-08-04T10:09:56Z</time>
      </trkpt>
      <trkpt lat="45.66293" lon="3.20855">
        <ele>351.5</ele>
        <time>2021-08-04T10:09:58Z</time>
      </trkpt>
      <trkpt lat="45.66291" lon="3.20869">
        <ele>351.5</ele>
        <time>2021-08-04T10:10:00Z</time>
      </trkpt>
      <trkpt lat="45.66289" lon="3.2088">
        <ele>351.5</ele>
        <time>2021-08-04T10:10:02Z</time>
      </trkpt>
      <trkpt lat="45.66287" lon="3.20893">
        <ele>351.5</ele>
        <time>2021-08-04T10:10:04Z</time>
      </trkpt>
      <trkpt lat="45.66285" lon="3.20905">
        <ele>351.6</ele>
        <time>2021-08-04T10:10:06Z</time>
      </trkpt>
      <trkpt lat="45.66283" lon="3.20917">
        <ele>351.6</ele>
        <time>2021-08-04T10:10:08Z</time>
      </trkpt>
      <trkpt lat="45.66282" lon="3.20929">
        <ele>351.5</ele>
        <time>2021-08-04T10:10:10Z</time>
      </trkpt>
      <trkpt lat="45.6628" lon="3.20941">
        <ele>351.3</ele>
        <time>2021-08-04T10:10:12Z</time>
      </trkpt>
      <trkpt lat="45.66278" lon="3.20954">
        <ele>351.2</ele>
        <time>2021-08-04T10:10:14Z</time>
      </trkpt>
      <trkpt lat="45.66277" lon="3.20964">
        <ele>351.1</ele>
        <time>2021-08-04T10:10:16Z</time>
      </trkpt>
      <trkpt lat="45.66275" lon="3.20974">
        <ele>351</ele>
        <time>2021-08-04T10:10:18Z</time>
      </trkpt>
      <trkpt lat="45.66273" lon="3.20983">
        <ele>350.9</ele>
        <time>2021-08-04T10:10:20Z</time>
      </trkpt>
      <trkpt lat="45.66272" lon="3.2099">
        <ele>350.9</ele>
        <time>2021-08-04T10:10:22Z</time>
      </trkpt>
      <trkpt lat="45.66271" lon="3.20996">
        <ele>350.8</ele>
        <time>2021-08-04T10:10:24Z</time>
      </trkpt>
      <trkpt lat="45.6627" lon="3.21004">
        <ele>350.7</ele>
        <time>2021-08-04T10:10:26Z</time>
      </trkpt>
      <trkpt lat="45.66269" lon="3.21013">
        <ele>350.6</ele>
        <time>2021-08-04T10:10:28Z</time>
      </trkpt>
      <trkpt lat="45.66268" lon="3.21023">
        <ele>350.5</ele>
        <time>2021-08-04T10:10:30Z</time>
      </trkpt>
      <trkpt lat="45.66266" lon="3.21032">
        <ele>350.4</ele>
        <time>2021-08-04T10:10:32Z</time>
      </trkpt>
      <trkpt lat="45.66264" lon="3.21043">
        <ele>350.3</ele>
        <time>2021-08-04T10:10:34Z</time>
      </trkpt>
      <trkpt lat="45.66263" lon="3.21053">
        <ele>350.2</ele>
        <time>2021-08-04T10:10:36Z</time>
      </trkpt>
      <trkpt lat="45.66261" lon="3.21065">
        <ele>350.1</ele>
        <time>2021-08-04T10:10:38Z</time>
      </trkpt>
      <trkpt lat="45.66259" lon="3.21076">
        <ele>350</ele>
        <time>2021-08-04T10:10:40Z</time>
      </trkpt>
      <trkpt lat="45.66257" lon="3.21088">
        <ele>349.9</ele>
        <time>2021-08-04T10:10:42Z</time>
      </trkpt>
      <trkpt lat="45.66255" lon="3.21099">
        <ele>349.7</ele>
        <time>2021-08-04T10:10:44Z</time>
      </trkpt>
      <trkpt lat="45.66254" lon="3.21112">
        <ele>349.6</ele>
        <time>2021-08-04T10:10:46Z</time>
      </trkpt>
      <trkpt lat="45.66253" lon="3.21124">
        <ele>349.5</ele>
        <time>2021-08-04T10:10:48Z</time>
      </trkpt>
      <trkpt lat="45.66251" lon="3.21136">
        <ele>349.3</ele>
        <time>2021-08-04T10:10:50Z</time>
      </trkpt>
      <trkpt lat="45.6625" lon="3.21149">
        <ele>349.2</ele>
        <time>2021-08-04T10:10:52Z</time>
      </trkpt>
      <trkpt lat="45.66248" lon="3.21162">
        <ele>349.1</ele>
        <time>2021-08-04T10:10:54Z</time>
      </trkpt>
      <trkpt lat="45.66247" lon="3.21176">
        <ele>349.1</ele>
        <time>2021-08-04T10:10:56Z</time>
      </trkpt>
      <trkpt lat="45.66246" lon="3.21189">
        <ele>349.2</ele>
        <time>2021-08-04T10:10:58Z</time>
      </trkpt>
      <trkpt lat="45.66244" lon="3.21203">
        <ele>349.2</ele>
        <time>2021-08-04T10:11:00Z</time>
      </trkpt>
      <trkpt lat="45.66243" lon="3.21217">
        <ele>349.3</ele>
        <time>2021-08-04T10:11:02Z</time>
      </trkpt>
      <trkpt lat="45.66241" lon="3.21231">
        <ele>349.4</ele>
        <time>2021-08-04T10:11:04Z</time>
      </trkpt>
      <trkpt lat="45.6624" lon="3.21245">
        <ele>349.5</ele>
        <time>2021-08-04T10:11:06Z</time>
      </trkpt>
      <trkpt lat="45.66238" lon="3.21259">
        <ele>349.5</ele>
        <time>2021-08-04T10:11:08Z</time>
      </trkpt>
      <trkpt lat="45.66236" lon="3.21273">
        <ele>349.4</ele>
        <time>2021-08-04T10:11:10Z</time>
      </trkpt>
      <trkpt lat="45.66234" lon="3.21286">
        <ele>349.4</ele>
        <time>2021-08-04T10:11:12Z</time>
      </trkpt>
      <trkpt lat="45.66233" lon="3.21301">
        <ele>349.3</ele>
        <time>2021-08-04T10:11:14Z</time>
      </trkpt>
      <trkpt lat="45.6623" lon="3.21315">
        <ele>349.4</ele>
        <time>2021-08-04T10:11:16Z</time>
      </trkpt>
      <trkpt lat="45.66228" lon="3.21329">
        <ele>349.4</ele>
        <time>2021-08-04T10:11:18Z</time>
      </trkpt>
      <trkpt lat="45.66225" lon="3.21343">
        <ele>349.5</ele>
        <time>2021-08-04T10:11:20Z</time>
      </trkpt>
      <trkpt lat="45.66221" lon="3.21356">
        <ele>349.6</ele>
        <time>2021-08-04T10:11:22Z</time>
      </trkpt>
      <trkpt lat="45.66218" lon="3.2137">
        <ele>349.8</ele>
        <time>2021-08-04T10:11:24Z</time>
      </trkpt>
      <trkpt lat="45.66214" lon="3.21383">
        <ele>349.9</ele>
        <time>2021-08-04T10:11:26Z</time>
      </trkpt>
      <trkpt lat="45.66209" lon="3.21397">
        <ele>350.1</ele>
        <time>2021-08-04T10:11:28Z</time>
      </trkpt>
      <trkpt lat="45.66204" lon="3.21411">
        <ele>350.2</ele>
        <time>2021-08-04T10:11:30Z</time>
      </trkpt>
      <trkpt lat="45.66199" lon="3.21424">
        <ele>350.2</ele>
        <time>2021-08-04T10:11:32Z</time>
      </trkpt>
      <trkpt lat="45.66195" lon="3.21437">
        <ele>350</ele>
        <time>2021-08-04T10:11:34Z</time>
      </trkpt>
      <trkpt lat="45.6619" lon="3.21451">
        <ele>349.8</ele>
        <time>2021-08-04T10:11:36Z</time>
      </trkpt>
      <trkpt lat="45.66185" lon="3.21464">
        <ele>349.7</ele>
        <time>2021-08-04T10:11:38Z</time>
      </trkpt>
      <trkpt lat="45.6618" lon="3.21478">
        <ele>349.6</ele>
        <time>2021-08-04T10:11:40Z</time>
      </trkpt>
      <trkpt lat="45.66175" lon="3.21491">
        <ele>349.6</ele>
        <time>2021-08-04T10:11:42Z</time>
      </trkpt>
      <trkpt lat="45.66171" lon="3.21504">
        <ele>349.6</ele>
        <time>2021-08-04T10:11:44Z</time>
      </trkpt>
      <trkpt lat="45.66166" lon="3.21518">
        <ele>349.8</ele>
        <time>2021-08-04T10:11:46Z</time>
      </trkpt>
      <trkpt lat="45.66162" lon="3.21531">
        <ele>350.2</ele>
        <time>2021-08-04T10:11:48Z</time>
      </trkpt>
      <trkpt lat="45.66158" lon="3.21544">
        <ele>350.5</ele>
        <time>2021-08-04T10:11:50Z</time>
      </trkpt>
      <trkpt lat="45.66154" lon="3.21557">
        <ele>350.9</ele>
        <time>2021-08-04T10:11:52Z</time>
      </trkpt>
      <trkpt lat="45.6615" lon="3.2157">
        <ele>351.3</ele>
        <time>2021-08-04T10:11:54Z</time>
      </trkpt>
      <trkpt lat="45.66146" lon="3.21584">
        <ele>351.7</ele>
        <time>2021-08-04T10:11:56Z</time>
      </trkpt>
      <trkpt lat="45.66142" lon="3.21597">
        <ele>351.9</ele>
        <time>2021-08-04T10:11:58Z</time>
      </trkpt>
      <trkpt lat="45.66138" lon="3.2161">
        <ele>352.2</ele>
        <time>2021-08-04T10:12:00Z</time>
      </trkpt>
      <trkpt lat="45.66134" lon="3.21622">
        <ele>352.5</ele>
        <time>2021-08-04T10:12:02Z</time>
      </trkpt>
      <trkpt lat="45.6613" lon="3.21635">
        <ele>352.8</ele>
        <time>2021-08-04T10:12:04Z</time>
      </trkpt>
      <trkpt lat="45.66127" lon="3.21648">
        <ele>353.1</ele>
        <time>2021-08-04T10:12:06Z</time>
      </trkpt>
      <trkpt lat="45.66123" lon="3.21661">
        <ele>353.3</ele>
        <time>2021-08-04T10:12:08Z</time>
      </trkpt>
      <trkpt lat="45.6612" lon="3.21673">
        <ele>353.5</ele>
        <time>2021-08-04T10:12:10Z</time>
      </trkpt>
      <trkpt lat="45.66117" lon="3.21686">
        <ele>353.4</ele>
        <time>2021-08-04T10:12:12Z</time>
      </trkpt>
      <trkpt lat="45.66114" lon="3.21698">
        <ele>353.4</ele>
        <time>2021-08-04T10:12:14Z</time>
      </trkpt>
      <trkpt lat="45.6611" lon="3.21711">
        <ele>353.3</ele>
        <time>2021-08-04T10:12:16Z</time>
      </trkpt>
      <trkpt lat="45.66107" lon="3.21723">
        <ele>353.3</ele>
        <time>2021-08-04T10:12:18Z</time>
      </trkpt>
      <trkpt lat="45.66104" lon="3.21735">
        <ele>353.1</ele>
        <time>2021-08-04T10:12:20Z</time>
      </trkpt>
      <trkpt lat="45.66101" lon="3.21749">
        <ele>352.9</ele>
        <time>2021-08-04T10:12:22Z</time>
      </trkpt>
      <trkpt lat="45.66099" lon="3.21763">
        <ele>352.2</ele>
        <time>2021-08-04T10:12:24Z</time>
      </trkpt>
      <trkpt lat="45.66096" lon="3.21778">
        <ele>351.4</ele>
        <time>2021-08-04T10:12:26Z</time>
      </trkpt>
      <trkpt lat="45.66093" lon="3.21794">
        <ele>350.5</ele>
        <time>2021-08-04T10:12:28Z</time>
      </trkpt>
      <trkpt lat="45.6609" lon="3.21809">
        <ele>349.5</ele>
        <time>2021-08-04T10:12:30Z</time>
      </trkpt>
      <trkpt lat="45.66086" lon="3.21826">
        <ele>348.4</ele>
        <time>2021-08-04T10:12:32Z</time>
      </trkpt>
      <trkpt lat="45.66083" lon="3.21843">
        <ele>347.5</ele>
        <time>2021-08-04T10:12:34Z</time>
      </trkpt>
      <trkpt lat="45.6608" lon="3.21861">
        <ele>346.6</ele>
        <time>2021-08-04T10:12:36Z</time>
      </trkpt>
      <trkpt lat="45.66077" lon="3.21879">
        <ele>345.7</ele>
        <time>2021-08-04T10:12:38Z</time>
      </trkpt>
      <trkpt lat="45.66075" lon="3.21898">
        <ele>344.5</ele>
        <time>2021-08-04T10:12:40Z</time>
      </trkpt>
      <trkpt lat="45.66074" lon="3.21918">
        <ele>343.3</ele>
        <time>2021-08-04T10:12:42Z</time>
      </trkpt>
      <trkpt lat="45.66074" lon="3.21938">
        <ele>343.1</ele>
        <time>2021-08-04T10:12:44Z</time>
      </trkpt>
      <trkpt lat="45.66075" lon="3.21958">
        <ele>342.8</ele>
        <time>2021-08-04T10:12:46Z</time>
      </trkpt>
      <trkpt lat="45.66077" lon="3.21977">
        <ele>342.4</ele>
        <time>2021-08-04T10:12:48Z</time>
      </trkpt>
      <trkpt lat="45.6608" lon="3.21996">
        <ele>342.1</ele>
        <time>2021-08-04T10:12:50Z</time>
      </trkpt>
      <trkpt lat="45.66084" lon="3.22014">
        <ele>342.2</ele>
        <time>2021-08-04T10:12:52Z</time>
      </trkpt>
      <trkpt lat="45.66088" lon="3.22032">
        <ele>342.4</ele>
        <time>2021-08-04T10:12:54Z</time>
      </trkpt>
      <trkpt lat="45.66092" lon="3.22049">
        <ele>342.6</ele>
        <time>2021-08-04T10:12:56Z</time>
      </trkpt>
      <trkpt lat="45.66096" lon="3.22065">
        <ele>342.6</ele>
        <time>2021-08-04T10:12:58Z</time>
      </trkpt>
      <trkpt lat="45.66099" lon="3.22081">
        <ele>342.6</ele>
        <time>2021-08-04T10:13:00Z</time>
      </trkpt>
      <trkpt lat="45.66103" lon="3.22096">
        <ele>343.4</ele>
        <time>2021-08-04T10:13:02Z</time>
      </trkpt>
      <trkpt lat="45.66106" lon="3.22111">
        <ele>344.1</ele>
        <time>2021-08-04T10:13:04Z</time>
      </trkpt>
      <trkpt lat="45.66109" lon="3.22124">
        <ele>344.8</ele>
        <time>2021-08-04T10:13:06Z</time>
      </trkpt>
      <trkpt lat="45.66112" lon="3.22137">
        <ele>345.3</ele>
        <time>2021-08-04T10:13:08Z</time>
      </trkpt>
      <trkpt lat="45.66114" lon="3.22149">
        <ele>345.7</ele>
        <time>2021-08-04T10:13:10Z</time>
      </trkpt>
      <trkpt lat="45.66116" lon="3.22161">
        <ele>346.1</ele>
        <time>2021-08-04T10:13:12Z</time>
      </trkpt>
      <trkpt lat="45.66119" lon="3.22172">
        <ele>346.7</ele>
        <time>2021-08-04T10:13:14Z</time>
      </trkpt>
      <trkpt lat="45.66122" lon="3.22183">
        <ele>347.2</ele>
        <time>2021-08-04T10:13:16Z</time>
      </trkpt>
      <trkpt lat="45.66124" lon="3.22194">
        <ele>347.8</ele>
        <time>2021-08-04T10:13:18Z</time>
      </trkpt>
      <trkpt lat="45.66125" lon="3.22205">
        <ele>348.5</ele>
        <time>2021-08-04T10:13:20Z</time>
      </trkpt>
      <trkpt lat="45.66127" lon="3.22216">
        <ele>348.9</ele>
        <time>2021-08-04T10:13:22Z</time>
      </trkpt>
      <trkpt lat="45.66128" lon="3.22226">
        <ele>349.4</ele>
        <time>2021-08-04T10:13:24Z</time>
      </trkpt>
      <trkpt lat="45.6613" lon="3.22236">
        <ele>349.7</ele>
        <time>2021-08-04T10:13:26Z</time>
      </trkpt>
      <trkpt lat="45.66131" lon="3.22245">
        <ele>350.1</ele>
        <time>2021-08-04T10:13:28Z</time>
      </trkpt>
      <trkpt lat="45.66132" lon="3.22254">
        <ele>350.5</ele>
        <time>2021-08-04T10:13:30Z</time>
      </trkpt>
      <trkpt lat="45.66132" lon="3.22264">
        <ele>351.2</ele>
        <time>2021-08-04T10:13:32Z</time>
      </trkpt>
      <trkpt lat="45.66134" lon="3.22273">
        <ele>351.6</ele>
        <time>2021-08-04T10:13:34Z</time>
      </trkpt>
      <trkpt lat="45.66134" lon="3.22282">
        <ele>352.3</ele>
        <time>2021-08-04T10:13:36Z</time>
      </trkpt>
      <trkpt lat="45.66135" lon="3.22291">
        <ele>352.8</ele>
        <time>2021-08-04T10:13:38Z</time>
      </trkpt>
      <trkpt lat="45.66137" lon="3.223">
        <ele>352.8</ele>
        <time>2021-08-04T10:13:40Z</time>
      </trkpt>
      <trkpt lat="45.66138" lon="3.22309">
        <ele>353.2</ele>
        <time>2021-08-04T10:13:42Z</time>
      </trkpt>
      <trkpt lat="45.66138" lon="3.22317">
        <ele>353.7</ele>
        <time>2021-08-04T10:13:44Z</time>
      </trkpt>
      <trkpt lat="45.66138" lon="3.22323">
        <ele>354.2</ele>
        <time>2021-08-04T10:13:46Z</time>
      </trkpt>
      <trkpt lat="45.66139" lon="3.22325">
        <ele>354.1</ele>
        <time>2021-08-04T10:13:48Z</time>
      </trkpt>
      <trkpt lat="45.66139" lon="3.22325">
        <ele>354</ele>
        <time>2021-08-04T10:13:50Z</time>
      </trkpt>
      <trkpt lat="45.66139" lon="3.22325">
        <ele>354</ele>
        <time>2021-08-04T10:13:52Z</time>
      </trkpt>
      <trkpt lat="45.66139" lon="3.22325">
        <ele>353.9</ele>
        <time>2021-08-04T10:13:54Z</time>
      </trkpt>
      <trkpt lat="45.6614" lon="3.22325">
        <ele>353.8</ele>
        <time>2021-08-04T10:13:56Z</time>
      </trkpt>
      <trkpt lat="45.66141" lon="3.22339">
        <ele>354.4</ele>
        <time>2021-08-04T10:49:14Z</time>
      </trkpt>
      <trkpt lat="45.66141" lon="3.22346">
        <ele>354.8</ele>
        <time>2021-08-04T10:49:16Z</time>
      </trkpt>
      <trkpt lat="45.66142" lon="3.22354">
        <ele>355.1</ele>
        <time>2021-08-04T10:49:18Z</time>
      </trkpt>
      <trkpt lat="45.66142" lon="3.22361">
        <ele>355.8</ele>
        <time>2021-08-04T10:49:20Z</time>
      </trkpt>
      <trkpt lat="45.66143" lon="3.22369">
        <ele>356.1</ele>
        <time>2021-08-04T10:49:22Z</time>
      </trkpt>
      <trkpt lat="45.66143" lon="3.22376">
        <ele>356.5</ele>
        <time>2021-08-04T10:49:24Z</time>
      </trkpt>
      <trkpt lat="45.66144" lon="3.22383">
        <ele>356.6</ele>
        <time>2021-08-04T10:49:26Z</time>
      </trkpt>
      <trkpt lat="45.66145" lon="3.2239">
        <ele>356.9</ele>
        <time>2021-08-04T10:49:28Z</time>
      </trkpt>
      <trkpt lat="45.66146" lon="3.22398">
        <ele>357.1</ele>
        <time>2021-08-04T10:49:30Z</time>
      </trkpt>
      <trkpt lat="45.66148" lon="3.22405">
        <ele>357</ele>
        <time>2021-08-04T10:49:32Z</time>
      </trkpt>
      <trkpt lat="45.66149" lon="3.22412">
        <ele>356.8</ele>
        <time>2021-08-04T10:49:34Z</time>
      </trkpt>
      <trkpt lat="45.66151" lon="3.22418">
        <ele>356.6</ele>
        <time>2021-08-04T10:49:36Z</time>
      </trkpt>
      <trkpt lat="45.66151" lon="3.22424">
        <ele>357.6</ele>
        <time>2021-08-04T10:49:38Z</time>
      </trkpt>
      <trkpt lat="45.66153" lon="3.22428">
        <ele>357.7</ele>
        <time>2021-08-04T10:49:40Z</time>
      </trkpt>
      <trkpt lat="45.66155" lon="3.22433">
        <ele>357.8</ele>
        <time>2021-08-04T10:49:42Z</time>
      </trkpt>
      <trkpt lat="45.66156" lon="3.22439">
        <ele>358.3</ele>
        <time>2021-08-04T10:49:44Z</time>
      </trkpt>
      <trkpt lat="45.66157" lon="3.22445">
        <ele>358.7</ele>
        <time>2021-08-04T10:49:46Z</time>
      </trkpt>
      <trkpt lat="45.66158" lon="3.2245">
        <ele>358.8</ele>
        <time>2021-08-04T10:49:48Z</time>
      </trkpt>
      <trkpt lat="45.66159" lon="3.22455">
        <ele>359.5</ele>
        <time>2021-08-04T10:49:50Z</time>
      </trkpt>
      <trkpt lat="45.66161" lon="3.2246">
        <ele>359.5</ele>
        <time>2021-08-04T10:49:52Z</time>
      </trkpt>
      <trkpt lat="45.66161" lon="3.22465">
        <ele>359.9</ele>
        <time>2021-08-04T10:49:54Z</time>
      </trkpt>
      <trkpt lat="45.66162" lon="3.22471">
        <ele>360.6</ele>
        <time>2021-08-04T10:49:56Z</time>
      </trkpt>
      <trkpt lat="45.66164" lon="3.22476">
        <ele>360.3</ele>
        <time>2021-08-04T10:49:58Z</time>
      </trkpt>
      <trkpt lat="45.66166" lon="3.22481">
        <ele>360.6</ele>
        <time>2021-08-04T10:50:00Z</time>
      </trkpt>
      <trkpt lat="45.66166" lon="3.22487">
        <ele>361.4</ele>
        <time>2021-08-04T10:50:02Z</time>
      </trkpt>
      <trkpt lat="45.66167" lon="3.22492">
        <ele>361.8</ele>
        <time>2021-08-04T10:50:04Z</time>
      </trkpt>
      <trkpt lat="45.66168" lon="3.22498">
        <ele>362.4</ele>
        <time>2021-08-04T10:50:06Z</time>
      </trkpt>
      <trkpt lat="45.6617" lon="3.22503">
        <ele>363.2</ele>
        <time>2021-08-04T10:50:08Z</time>
      </trkpt>
      <trkpt lat="45.66172" lon="3.22508">
        <ele>364.1</ele>
        <time>2021-08-04T10:50:10Z</time>
      </trkpt>
      <trkpt lat="45.66174" lon="3.22513">
        <ele>365</ele>
        <time>2021-08-04T10:50:12Z</time>
      </trkpt>
      <trkpt lat="45.66176" lon="3.22519">
        <ele>366.1</ele>
        <time>2021-08-04T10:50:14Z</time>
      </trkpt>
      <trkpt lat="45.66178" lon="3.22523">
        <ele>366.8</ele>
        <time>2021-08-04T10:50:16Z</time>
      </trkpt>
      <trkpt lat="45.66181" lon="3.22527">
        <ele>367.2</ele>
        <time>2021-08-04T10:50:18Z</time>
      </trkpt>
      <trkpt lat="45.66185" lon="3.22532">
        <ele>367.7</ele>
        <time>2021-08-04T10:50:20Z</time>
      </trkpt>
      <trkpt lat="45.66187" lon="3.22536">
        <ele>368.3</ele>
        <time>2021-08-04T10:50:22Z</time>
      </trkpt>
      <trkpt lat="45.66191" lon="3.22539">
        <ele>368.5</ele>
        <time>2021-08-04T10:50:24Z</time>
      </trkpt>
      <trkpt lat="45.66194" lon="3.22541">
        <ele>368.6</ele>
        <time>2021-08-04T10:50:26Z</time>
      </trkpt>
      <trkpt lat="45.66197" lon="3.22544">
        <ele>368.8</ele>
        <time>2021-08-04T10:50:28Z</time>
      </trkpt>
      <trkpt lat="45.662" lon="3.22545">
        <ele>368.7</ele>
        <time>2021-08-04T10:50:30Z</time>
      </trkpt>
      <trkpt lat="45.66203" lon="3.22546">
        <ele>368.5</ele>
        <time>2021-08-04T10:50:32Z</time>
      </trkpt>
      <trkpt lat="45.66207" lon="3.22548">
        <ele>368.4</ele>
        <time>2021-08-04T10:50:34Z</time>
      </trkpt>
      <trkpt lat="45.66211" lon="3.22548">
        <ele>368</ele>
        <time>2021-08-04T10:50:36Z</time>
      </trkpt>
      <trkpt lat="45.66214" lon="3.22549">
        <ele>367.6</ele>
        <time>2021-08-04T10:50:38Z</time>
      </trkpt>
      <trkpt lat="45.66218" lon="3.2255">
        <ele>367.2</ele>
        <time>2021-08-04T10:50:40Z</time>
      </trkpt>
      <trkpt lat="45.66222" lon="3.2255">
        <ele>366.9</ele>
        <time>2021-08-04T10:50:42Z</time>
      </trkpt>
      <trkpt lat="45.66226" lon="3.22551">
        <ele>366.6</ele>
        <time>2021-08-04T10:50:44Z</time>
      </trkpt>
      <trkpt lat="45.6623" lon="3.22552">
        <ele>366.2</ele>
        <time>2021-08-04T10:50:46Z</time>
      </trkpt>
      <trkpt lat="45.66234" lon="3.22552">
        <ele>365.8</ele>
        <time>2021-08-04T10:50:48Z</time>
      </trkpt>
      <trkpt lat="45.66237" lon="3.22553">
        <ele>365.4</ele>
        <time>2021-08-04T10:50:50Z</time>
      </trkpt>
      <trkpt lat="45.66241" lon="3.22554">
        <ele>365.2</ele>
        <time>2021-08-04T10:50:52Z</time>
      </trkpt>
      <trkpt lat="45.66245" lon="3.22554">
        <ele>364.7</ele>
        <time>2021-08-04T10:50:54Z</time>
      </trkpt>
      <trkpt lat="45.66249" lon="3.22555">
        <ele>364.3</ele>
        <time>2021-08-04T10:50:56Z</time>
      </trkpt>
      <trkpt lat="45.66253" lon="3.22556">
        <ele>364.4</ele>
        <time>2021-08-04T10:50:58Z</time>
      </trkpt>
      <trkpt lat="45.66258" lon="3.22557">
        <ele>364.5</ele>
        <time>2021-08-04T10:51:00Z</time>
      </trkpt>
      <trkpt lat="45.66261" lon="3.22558">
        <ele>364.6</ele>
        <time>2021-08-04T10:51:02Z</time>
      </trkpt>
      <trkpt lat="45.66265" lon="3.22559">
        <ele>364.7</ele>
        <time>2021-08-04T10:51:04Z</time>
      </trkpt>
      <trkpt lat="45.66269" lon="3.2256">
        <ele>364.9</ele>
        <time>2021-08-04T10:51:06Z</time>
      </trkpt>
      <trkpt lat="45.66271" lon="3.2256">
        <ele>364.8</ele>
        <time>2021-08-04T10:51:08Z</time>
      </trkpt>
      <trkpt lat="45.66275" lon="3.22562">
        <ele>365</ele>
        <time>2021-08-04T10:51:10Z</time>
      </trkpt>
      <trkpt lat="45.66279" lon="3.22563">
        <ele>365.2</ele>
        <time>2021-08-04T10:51:12Z</time>
      </trkpt>
      <trkpt lat="45.66283" lon="3.22565">
        <ele>365.3</ele>
        <time>2021-08-04T10:51:14Z</time>
      </trkpt>
      <trkpt lat="45.66287" lon="3.22567">
        <ele>365.7</ele>
        <time>2021-08-04T10:51:16Z</time>
      </trkpt>
      <trkpt lat="45.66291" lon="3.22569">
        <ele>365.8</ele>
        <time>2021-08-04T10:51:18Z</time>
      </trkpt>
      <trkpt lat="45.66295" lon="3.2257">
        <ele>366.1</ele>
        <time>2021-08-04T10:51:20Z</time>
      </trkpt>
      <trkpt lat="45.66298" lon="3.22572">
        <ele>366.3</ele>
        <time>2021-08-04T10:51:22Z</time>
      </trkpt>
      <trkpt lat="45.66302" lon="3.22574">
        <ele>366.6</ele>
        <time>2021-08-04T10:51:24Z</time>
      </trkpt>
      <trkpt lat="45.66306" lon="3.22576">
        <ele>366.8</ele>
        <time>2021-08-04T10:51:26Z</time>
      </trkpt>
      <trkpt lat="45.66309" lon="3.22578">
        <ele>367.1</ele>
        <time>2021-08-04T10:51:28Z</time>
      </trkpt>
      <trkpt lat="45.66313" lon="3.2258">
        <ele>367.4</ele>
        <time>2021-08-04T10:51:30Z</time>
      </trkpt>
      <trkpt lat="45.66317" lon="3.22582">
        <ele>367.5</ele>
        <time>2021-08-04T10:51:32Z</time>
      </trkpt>
      <trkpt lat="45.6632" lon="3.22584">
        <ele>367.8</ele>
        <time>2021-08-04T10:51:34Z</time>
      </trkpt>
      <trkpt lat="45.66324" lon="3.22586">
        <ele>368</ele>
        <time>2021-08-04T10:51:36Z</time>
      </trkpt>
      <trkpt lat="45.66328" lon="3.22589">
        <ele>368.4</ele>
        <time>2021-08-04T10:51:38Z</time>
      </trkpt>
      <trkpt lat="45.6633" lon="3.22591">
        <ele>368.6</ele>
        <time>2021-08-04T10:51:40Z</time>
      </trkpt>
      <trkpt lat="45.66333" lon="3.22592">
        <ele>368.6</ele>
        <time>2021-08-04T10:51:42Z</time>
      </trkpt>
      <trkpt lat="45.66336" lon="3.22596">
        <ele>369.1</ele>
        <time>2021-08-04T10:51:44Z</time>
      </trkpt>
      <trkpt lat="45.66339" lon="3.22599">
        <ele>369.3</ele>
        <time>2021-08-04T10:51:46Z</time>
      </trkpt>
      <trkpt lat="45.66342" lon="3.22601">
        <ele>369.5</ele>
        <time>2021-08-04T10:51:48Z</time>
      </trkpt>
      <trkpt lat="45.66345" lon="3.22603">
        <ele>369.6</ele>
        <time>2021-08-04T10:51:50Z</time>
      </trkpt>
      <trkpt lat="45.66348" lon="3.22606">
        <ele>369.8</ele>
        <time>2021-08-04T10:51:52Z</time>
      </trkpt>
      <trkpt lat="45.66352" lon="3.22609">
        <ele>370.1</ele>
        <time>2021-08-04T10:51:54Z</time>
      </trkpt>
      <trkpt lat="45.66355" lon="3.22612">
        <ele>370.4</ele>
        <time>2021-08-04T10:51:56Z</time>
      </trkpt>
      <trkpt lat="45.66358" lon="3.22616">
        <ele>370.7</ele>
        <time>2021-08-04T10:51:58Z</time>
      </trkpt>
      <trkpt lat="45.66361" lon="3.22618">
        <ele>370.9</ele>
        <time>2021-08-04T10:52:00Z</time>
      </trkpt>
      <trkpt lat="45.66364" lon="3.22622">
        <ele>371.3</ele>
        <time>2021-08-04T10:52:02Z</time>
      </trkpt>
      <trkpt lat="45.66367" lon="3.22625">
        <ele>371.5</ele>
        <time>2021-08-04T10:52:04Z</time>
      </trkpt>
      <trkpt lat="45.66369" lon="3.22628">
        <ele>371.7</ele>
        <time>2021-08-04T10:52:06Z</time>
      </trkpt>
      <trkpt lat="45.66372" lon="3.22631">
        <ele>372</ele>
        <time>2021-08-04T10:52:08Z</time>
      </trkpt>
      <trkpt lat="45.66375" lon="3.22634">
        <ele>372.2</ele>
        <time>2021-08-04T10:52:10Z</time>
      </trkpt>
      <trkpt lat="45.66378" lon="3.22638">
        <ele>372.5</ele>
        <time>2021-08-04T10:52:12Z</time>
      </trkpt>
      <trkpt lat="45.66381" lon="3.22642">
        <ele>372.9</ele>
        <time>2021-08-04T10:52:14Z</time>
      </trkpt>
      <trkpt lat="45.66383" lon="3.22645">
        <ele>373.2</ele>
        <time>2021-08-04T10:52:16Z</time>
      </trkpt>
      <trkpt lat="45.66385" lon="3.22648">
        <ele>373.4</ele>
        <time>2021-08-04T10:52:18Z</time>
      </trkpt>
      <trkpt lat="45.66387" lon="3.22652">
        <ele>373.8</ele>
        <time>2021-08-04T10:52:20Z</time>
      </trkpt>
      <trkpt lat="45.66391" lon="3.22657">
        <ele>374.3</ele>
        <time>2021-08-04T10:52:22Z</time>
      </trkpt>
      <trkpt lat="45.66393" lon="3.22661">
        <ele>374.7</ele>
        <time>2021-08-04T10:52:24Z</time>
      </trkpt>
      <trkpt lat="45.66395" lon="3.22666">
        <ele>375.3</ele>
        <time>2021-08-04T10:52:26Z</time>
      </trkpt>
      <trkpt lat="45.66397" lon="3.2267">
        <ele>375.7</ele>
        <time>2021-08-04T10:52:28Z</time>
      </trkpt>
      <trkpt lat="45.66399" lon="3.22675">
        <ele>376.2</ele>
        <time>2021-08-04T10:52:30Z</time>
      </trkpt>
      <trkpt lat="45.66401" lon="3.22679">
        <ele>376.5</ele>
        <time>2021-08-04T10:52:32Z</time>
      </trkpt>
      <trkpt lat="45.66402" lon="3.22684">
        <ele>377</ele>
        <time>2021-08-04T10:52:34Z</time>
      </trkpt>
      <trkpt lat="45.66404" lon="3.22689">
        <ele>377.5</ele>
        <time>2021-08-04T10:52:36Z</time>
      </trkpt>
      <trkpt lat="45.66405" lon="3.22694">
        <ele>377.9</ele>
        <time>2021-08-04T10:52:38Z</time>
      </trkpt>
      <trkpt lat="45.66406" lon="3.22699">
        <ele>378.5</ele>
        <time>2021-08-04T10:52:40Z</time>
      </trkpt>
      <trkpt lat="45.66408" lon="3.22704">
        <ele>378.9</ele>
        <time>2021-08-04T10:52:42Z</time>
      </trkpt>
      <trkpt lat="45.66409" lon="3.22709">
        <ele>379.3</ele>
        <time>2021-08-04T10:52:44Z</time>
      </trkpt>
      <trkpt lat="45.6641" lon="3.22713">
        <ele>379.8</ele>
        <time>2021-08-04T10:52:46Z</time>
      </trkpt>
      <trkpt lat="45.66411" lon="3.22718">
        <ele>380.2</ele>
        <time>2021-08-04T10:52:48Z</time>
      </trkpt>
      <trkpt lat="45.66411" lon="3.22723">
        <ele>380.7</ele>
        <time>2021-08-04T10:52:50Z</time>
      </trkpt>
      <trkpt lat="45.66411" lon="3.22727">
        <ele>381.3</ele>
        <time>2021-08-04T10:52:52Z</time>
      </trkpt>
      <trkpt lat="45.66412" lon="3.22732">
        <ele>381.8</ele>
        <time>2021-08-04T10:52:54Z</time>
      </trkpt>
      <trkpt lat="45.66412" lon="3.22737">
        <ele>382.3</ele>
        <time>2021-08-04T10:52:56Z</time>
      </trkpt>
      <trkpt lat="45.66412" lon="3.22742">
        <ele>382.9</ele>
        <time>2021-08-04T10:52:58Z</time>
      </trkpt>
      <trkpt lat="45.66413" lon="3.22747">
        <ele>383.6</ele>
        <time>2021-08-04T10:53:00Z</time>
      </trkpt>
      <trkpt lat="45.66413" lon="3.22752">
        <ele>384</ele>
        <time>2021-08-04T10:53:02Z</time>
      </trkpt>
      <trkpt lat="45.66412" lon="3.22757">
        <ele>384.2</ele>
        <time>2021-08-04T10:53:04Z</time>
      </trkpt>
      <trkpt lat="45.66412" lon="3.22762">
        <ele>384.5</ele>
        <time>2021-08-04T10:53:06Z</time>
      </trkpt>
      <trkpt lat="45.66412" lon="3.22768">
        <ele>384.8</ele>
        <time>2021-08-04T10:53:08Z</time>
      </trkpt>
      <trkpt lat="45.66411" lon="3.22773">
        <ele>385.1</ele>
        <time>2021-08-04T10:53:10Z</time>
      </trkpt>
      <trkpt lat="45.66411" lon="3.22778">
        <ele>385.4</ele>
        <time>2021-08-04T10:53:12Z</time>
      </trkpt>
      <trkpt lat="45.6641" lon="3.22784">
        <ele>385.7</ele>
        <time>2021-08-04T10:53:14Z</time>
      </trkpt>
      <trkpt lat="45.66409" lon="3.22788">
        <ele>386</ele>
        <time>2021-08-04T10:53:16Z</time>
      </trkpt>
      <trkpt lat="45.66408" lon="3.22793">
        <ele>386.5</ele>
        <time>2021-08-04T10:53:18Z</time>
      </trkpt>
      <trkpt lat="45.66407" lon="3.22798">
        <ele>386.9</ele>
        <time>2021-08-04T10:53:20Z</time>
      </trkpt>
      <trkpt lat="45.66405" lon="3.22804">
        <ele>387.4</ele>
        <time>2021-08-04T10:53:22Z</time>
      </trkpt>
      <trkpt lat="45.66404" lon="3.22809">
        <ele>387.9</ele>
        <time>2021-08-04T10:53:24Z</time>
      </trkpt>
      <trkpt lat="45.66402" lon="3.22814">
        <ele>388.5</ele>
        <time>2021-08-04T10:53:26Z</time>
      </trkpt>
      <trkpt lat="45.664" lon="3.22818">
        <ele>389</ele>
        <time>2021-08-04T10:53:28Z</time>
      </trkpt>
      <trkpt lat="45.66399" lon="3.22823">
        <ele>389.5</ele>
        <time>2021-08-04T10:53:30Z</time>
      </trkpt>
      <trkpt lat="45.66397" lon="3.22828">
        <ele>390.1</ele>
        <time>2021-08-04T10:53:32Z</time>
      </trkpt>
      <trkpt lat="45.66395" lon="3.22832">
        <ele>390.6</ele>
        <time>2021-08-04T10:53:34Z</time>
      </trkpt>
      <trkpt lat="45.66393" lon="3.22837">
        <ele>391</ele>
        <time>2021-08-04T10:53:36Z</time>
      </trkpt>
      <trkpt lat="45.66391" lon="3.22842">
        <ele>391.3</ele>
        <time>2021-08-04T10:53:38Z</time>
      </trkpt>
      <trkpt lat="45.66389" lon="3.22845">
        <ele>391.8</ele>
        <time>2021-08-04T10:53:40Z</time>
      </trkpt>
      <trkpt lat="45.66386" lon="3.2285">
        <ele>392.1</ele>
        <time>2021-08-04T10:53:42Z</time>
      </trkpt>
      <trkpt lat="45.66384" lon="3.22854">
        <ele>392.5</ele>
        <time>2021-08-04T10:53:44Z</time>
      </trkpt>
      <trkpt lat="45.66382" lon="3.22859">
        <ele>392.8</ele>
        <time>2021-08-04T10:53:46Z</time>
      </trkpt>
      <trkpt lat="45.6638" lon="3.22863">
        <ele>393.1</ele>
        <time>2021-08-04T10:53:48Z</time>
      </trkpt>
      <trkpt lat="45.66377" lon="3.22867">
        <ele>393.4</ele>
        <time>2021-08-04T10:53:50Z</time>
      </trkpt>
      <trkpt lat="45.66374" lon="3.22871">
        <ele>393.8</ele>
        <time>2021-08-04T10:53:52Z</time>
      </trkpt>
      <trkpt lat="45.66372" lon="3.22875">
        <ele>394</ele>
        <time>2021-08-04T10:53:54Z</time>
      </trkpt>
      <trkpt lat="45.66369" lon="3.22879">
        <ele>394.4</ele>
        <time>2021-08-04T10:53:56Z</time>
      </trkpt>
      <trkpt lat="45.66367" lon="3.22884">
        <ele>394.6</ele>
        <time>2021-08-04T10:53:58Z</time>
      </trkpt>
      <trkpt lat="45.66364" lon="3.22888">
        <ele>394.8</ele>
        <time>2021-08-04T10:54:00Z</time>
      </trkpt>
      <trkpt lat="45.66362" lon="3.22893">
        <ele>394.9</ele>
        <time>2021-08-04T10:54:02Z</time>
      </trkpt>
      <trkpt lat="45.6636" lon="3.22898">
        <ele>395.1</ele>
        <time>2021-08-04T10:54:04Z</time>
      </trkpt>
      <trkpt lat="45.66358" lon="3.22902">
        <ele>395.3</ele>
        <time>2021-08-04T10:54:06Z</time>
      </trkpt>
      <trkpt lat="45.66355" lon="3.22906">
        <ele>395.4</ele>
        <time>2021-08-04T10:54:08Z</time>
      </trkpt>
      <trkpt lat="45.66353" lon="3.2291">
        <ele>395.5</ele>
        <time>2021-08-04T10:54:10Z</time>
      </trkpt>
      <trkpt lat="45.66351" lon="3.22914">
        <ele>395.6</ele>
        <time>2021-08-04T10:54:12Z</time>
      </trkpt>
      <trkpt lat="45.66349" lon="3.22919">
        <ele>395.7</ele>
        <time>2021-08-04T10:54:14Z</time>
      </trkpt>
      <trkpt lat="45.66347" lon="3.22924">
        <ele>395.9</ele>
        <time>2021-08-04T10:54:16Z</time>
      </trkpt>
      <trkpt lat="45.66346" lon="3.22929">
        <ele>395.9</ele>
        <time>2021-08-04T10:54:18Z</time>
      </trkpt>
      <trkpt lat="45.66344" lon="3.22933">
        <ele>396.1</ele>
        <time>2021-08-04T10:54:20Z</time>
      </trkpt>
      <trkpt lat="45.66341" lon="3.22937">
        <ele>396.3</ele>
        <time>2021-08-04T10:54:22Z</time>
      </trkpt>
      <trkpt lat="45.6634" lon="3.22943">
        <ele>396.3</ele>
        <time>2021-08-04T10:54:24Z</time>
      </trkpt>
      <trkpt lat="45.66338" lon="3.22947">
        <ele>396.3</ele>
        <time>2021-08-04T10:54:26Z</time>
      </trkpt>
      <trkpt lat="45.66337" lon="3.22952">
        <ele>396.3</ele>
        <time>2021-08-04T10:54:28Z</time>
      </trkpt>
      <trkpt lat="45.66336" lon="3.22957">
        <ele>396.3</ele>
        <time>2021-08-04T10:54:30Z</time>
      </trkpt>
      <trkpt lat="45.66335" lon="3.22963">
        <ele>396.2</ele>
        <time>2021-08-04T10:54:32Z</time>
      </trkpt>
      <trkpt lat="45.66334" lon="3.22968">
        <ele>396.1</ele>
        <time>2021-08-04T10:54:34Z</time>
      </trkpt>
      <trkpt lat="45.66333" lon="3.22974">
        <ele>396</ele>
        <time>2021-08-04T10:54:36Z</time>
      </trkpt>
      <trkpt lat="45.66332" lon="3.22979">
        <ele>396.1</ele>
        <time>2021-08-04T10:54:38Z</time>
      </trkpt>
      <trkpt lat="45.66331" lon="3.22985">
        <ele>396.1</ele>
        <time>2021-08-04T10:54:40Z</time>
      </trkpt>
      <trkpt lat="45.6633" lon="3.2299">
        <ele>396.1</ele>
        <time>2021-08-04T10:54:42Z</time>
      </trkpt>
      <trkpt lat="45.66329" lon="3.22997">
        <ele>396</ele>
        <time>2021-08-04T10:54:44Z</time>
      </trkpt>
      <trkpt lat="45.66329" lon="3.23003">
        <ele>396.1</ele>
        <time>2021-08-04T10:54:46Z</time>
      </trkpt>
      <trkpt lat="45.66328" lon="3.23008">
        <ele>396.3</ele>
        <time>2021-08-04T10:54:48Z</time>
      </trkpt>
      <trkpt lat="45.66328" lon="3.23014">
        <ele>396.6</ele>
        <time>2021-08-04T10:54:50Z</time>
      </trkpt>
      <trkpt lat="45.66327" lon="3.2302">
        <ele>397</ele>
        <time>2021-08-04T10:54:52Z</time>
      </trkpt>
      <trkpt lat="45.66326" lon="3.23026">
        <ele>397.2</ele>
        <time>2021-08-04T10:54:54Z</time>
      </trkpt>
      <trkpt lat="45.66326" lon="3.23033">
        <ele>397.4</ele>
        <time>2021-08-04T10:54:56Z</time>
      </trkpt>
      <trkpt lat="45.66326" lon="3.23038">
        <ele>397.5</ele>
        <time>2021-08-04T10:54:58Z</time>
      </trkpt>
      <trkpt lat="45.66326" lon="3.23045">
        <ele>397.6</ele>
        <time>2021-08-04T10:55:00Z</time>
      </trkpt>
      <trkpt lat="45.66326" lon="3.23051">
        <ele>397.9</ele>
        <time>2021-08-04T10:55:02Z</time>
      </trkpt>
      <trkpt lat="45.66326" lon="3.23057">
        <ele>398</ele>
        <time>2021-08-04T10:55:04Z</time>
      </trkpt>
      <trkpt lat="45.66326" lon="3.23063">
        <ele>398</ele>
        <time>2021-08-04T10:55:06Z</time>
      </trkpt>
      <trkpt lat="45.66326" lon="3.23068">
        <ele>398.1</ele>
        <time>2021-08-04T10:55:08Z</time>
      </trkpt>
      <trkpt lat="45.66326" lon="3.23074">
        <ele>398.2</ele>
        <time>2021-08-04T10:55:10Z</time>
      </trkpt>
      <trkpt lat="45.66327" lon="3.2308">
        <ele>398.3</ele>
        <time>2021-08-04T10:55:12Z</time>
      </trkpt>
      <trkpt lat="45.66327" lon="3.23085">
        <ele>398.4</ele>
        <time>2021-08-04T10:55:14Z</time>
      </trkpt>
      <trkpt lat="45.66328" lon="3.23091">
        <ele>398.5</ele>
        <time>2021-08-04T10:55:16Z</time>
      </trkpt>
      <trkpt lat="45.66328" lon="3.23096">
        <ele>398.6</ele>
        <time>2021-08-04T10:55:18Z</time>
      </trkpt>
      <trkpt lat="45.66329" lon="3.23101">
        <ele>398.7</ele>
        <time>2021-08-04T10:55:20Z</time>
      </trkpt>
      <trkpt lat="45.6633" lon="3.23107">
        <ele>398.8</ele>
        <time>2021-08-04T10:55:22Z</time>
      </trkpt>
      <trkpt lat="45.66331" lon="3.23113">
        <ele>398.9</ele>
        <time>2021-08-04T10:55:24Z</time>
      </trkpt>
      <trkpt lat="45.66332" lon="3.2312">
        <ele>399</ele>
        <time>2021-08-04T10:55:26Z</time>
      </trkpt>
      <trkpt lat="45.66333" lon="3.23125">
        <ele>399.1</ele>
        <time>2021-08-04T10:55:28Z</time>
      </trkpt>
      <trkpt lat="45.66334" lon="3.23131">
        <ele>399.2</ele>
        <time>2021-08-04T10:55:30Z</time>
      </trkpt>
      <trkpt lat="45.66336" lon="3.23137">
        <ele>399.4</ele>
        <time>2021-08-04T10:55:32Z</time>
      </trkpt>
      <trkpt lat="45.66338" lon="3.23142">
        <ele>399.6</ele>
        <time>2021-08-04T10:55:34Z</time>
      </trkpt>
      <trkpt lat="45.6634" lon="3.23147">
        <ele>399.6</ele>
        <time>2021-08-04T10:55:36Z</time>
      </trkpt>
      <trkpt lat="45.66343" lon="3.23151">
        <ele>399.7</ele>
        <time>2021-08-04T10:55:38Z</time>
      </trkpt>
      <trkpt lat="45.66346" lon="3.23155">
        <ele>399.7</ele>
        <time>2021-08-04T10:55:40Z</time>
      </trkpt>
      <trkpt lat="45.66348" lon="3.2316">
        <ele>399.8</ele>
        <time>2021-08-04T10:55:42Z</time>
      </trkpt>
      <trkpt lat="45.66351" lon="3.23164">
        <ele>399.8</ele>
        <time>2021-08-04T10:55:44Z</time>
      </trkpt>
      <trkpt lat="45.66354" lon="3.23167">
        <ele>399.8</ele>
        <time>2021-08-04T10:55:46Z</time>
      </trkpt>
      <trkpt lat="45.66357" lon="3.23171">
        <ele>400</ele>
        <time>2021-08-04T10:55:48Z</time>
      </trkpt>
      <trkpt lat="45.66361" lon="3.23174">
        <ele>400.1</ele>
        <time>2021-08-04T10:55:50Z</time>
      </trkpt>
      <trkpt lat="45.66364" lon="3.23177">
        <ele>400.4</ele>
        <time>2021-08-04T10:55:52Z</time>
      </trkpt>
      <trkpt lat="45.66367" lon="3.2318">
        <ele>400.5</ele>
        <time>2021-08-04T10:55:54Z</time>
      </trkpt>
      <trkpt lat="45.6637" lon="3.23182">
        <ele>400.6</ele>
        <time>2021-08-04T10:55:56Z</time>
      </trkpt>
      <trkpt lat="45.66374" lon="3.23184">
        <ele>400.8</ele>
        <time>2021-08-04T10:55:58Z</time>
      </trkpt>
      <trkpt lat="45.66377" lon="3.23187">
        <ele>401</ele>
        <time>2021-08-04T10:56:00Z</time>
      </trkpt>
      <trkpt lat="45.6638" lon="3.23188">
        <ele>401.1</ele>
        <time>2021-08-04T10:56:02Z</time>
      </trkpt>
      <trkpt lat="45.66383" lon="3.2319">
        <ele>401.1</ele>
        <time>2021-08-04T10:56:04Z</time>
      </trkpt>
      <trkpt lat="45.66386" lon="3.2319">
        <ele>401.1</ele>
        <time>2021-08-04T10:56:06Z</time>
      </trkpt>
      <trkpt lat="45.6639" lon="3.23192">
        <ele>401.2</ele>
        <time>2021-08-04T10:56:08Z</time>
      </trkpt>
      <trkpt lat="45.66393" lon="3.23193">
        <ele>401.3</ele>
        <time>2021-08-04T10:56:10Z</time>
      </trkpt>
      <trkpt lat="45.66397" lon="3.23194">
        <ele>401.3</ele>
        <time>2021-08-04T10:56:12Z</time>
      </trkpt>
      <trkpt lat="45.66401" lon="3.23195">
        <ele>401.3</ele>
        <time>2021-08-04T10:56:14Z</time>
      </trkpt>
      <trkpt lat="45.66405" lon="3.23196">
        <ele>401.3</ele>
        <time>2021-08-04T10:56:16Z</time>
      </trkpt>
      <trkpt lat="45.66409" lon="3.23198">
        <ele>401.5</ele>
        <time>2021-08-04T10:56:18Z</time>
      </trkpt>
      <trkpt lat="45.66413" lon="3.23199">
        <ele>401.5</ele>
        <time>2021-08-04T10:56:20Z</time>
      </trkpt>
      <trkpt lat="45.66416" lon="3.232">
        <ele>401.6</ele>
        <time>2021-08-04T10:56:22Z</time>
      </trkpt>
      <trkpt lat="45.6642" lon="3.23201">
        <ele>402</ele>
        <time>2021-08-04T10:56:24Z</time>
      </trkpt>
      <trkpt lat="45.66423" lon="3.23203">
        <ele>402.5</ele>
        <time>2021-08-04T10:56:26Z</time>
      </trkpt>
      <trkpt lat="45.66427" lon="3.23205">
        <ele>402.9</ele>
        <time>2021-08-04T10:56:28Z</time>
      </trkpt>
      <trkpt lat="45.66431" lon="3.23208">
        <ele>403.4</ele>
        <time>2021-08-04T10:56:30Z</time>
      </trkpt>
      <trkpt lat="45.66435" lon="3.2321">
        <ele>403.9</ele>
        <time>2021-08-04T10:56:32Z</time>
      </trkpt>
      <trkpt lat="45.66438" lon="3.23213">
        <ele>404.4</ele>
        <time>2021-08-04T10:56:34Z</time>
      </trkpt>
      <trkpt lat="45.66441" lon="3.23215">
        <ele>404.8</ele>
        <time>2021-08-04T10:56:36Z</time>
      </trkpt>
      <trkpt lat="45.66445" lon="3.23218">
        <ele>405.3</ele>
        <time>2021-08-04T10:56:38Z</time>
      </trkpt>
      <trkpt lat="45.66447" lon="3.23221">
        <ele>405.6</ele>
        <time>2021-08-04T10:56:40Z</time>
      </trkpt>
      <trkpt lat="45.6645" lon="3.23224">
        <ele>406.1</ele>
        <time>2021-08-04T10:56:42Z</time>
      </trkpt>
      <trkpt lat="45.66453" lon="3.23227">
        <ele>406.5</ele>
        <time>2021-08-04T10:56:44Z</time>
      </trkpt>
      <trkpt lat="45.66455" lon="3.2323">
        <ele>406.8</ele>
        <time>2021-08-04T10:56:46Z</time>
      </trkpt>
      <trkpt lat="45.66458" lon="3.23234">
        <ele>407.3</ele>
        <time>2021-08-04T10:56:48Z</time>
      </trkpt>
      <trkpt lat="45.66461" lon="3.23237">
        <ele>407.6</ele>
        <time>2021-08-04T10:56:50Z</time>
      </trkpt>
      <trkpt lat="45.66463" lon="3.23241">
        <ele>408</ele>
        <time>2021-08-04T10:56:52Z</time>
      </trkpt>
      <trkpt lat="45.66464" lon="3.23245">
        <ele>408.4</ele>
        <time>2021-08-04T10:56:54Z</time>
      </trkpt>
      <trkpt lat="45.66466" lon="3.23249">
        <ele>408.7</ele>
        <time>2021-08-04T10:56:56Z</time>
      </trkpt>
      <trkpt lat="45.66469" lon="3.23253">
        <ele>409.1</ele>
        <time>2021-08-04T10:56:58Z</time>
      </trkpt>
      <trkpt lat="45.66471" lon="3.23257">
        <ele>409.5</ele>
        <time>2021-08-04T10:57:00Z</time>
      </trkpt>
      <trkpt lat="45.66473" lon="3.23261">
        <ele>410</ele>
        <time>2021-08-04T10:57:02Z</time>
      </trkpt>
      <trkpt lat="45.66474" lon="3.23265">
        <ele>410.5</ele>
        <time>2021-08-04T10:57:04Z</time>
      </trkpt>
      <trkpt lat="45.66475" lon="3.23269">
        <ele>411</ele>
        <time>2021-08-04T10:57:06Z</time>
      </trkpt>
      <trkpt lat="45.66477" lon="3.23274">
        <ele>411.4</ele>
        <time>2021-08-04T10:57:08Z</time>
      </trkpt>
      <trkpt lat="45.66478" lon="3.23278">
        <ele>411.9</ele>
        <time>2021-08-04T10:57:10Z</time>
      </trkpt>
      <trkpt lat="45.6648" lon="3.23282">
        <ele>412.3</ele>
        <time>2021-08-04T10:57:12Z</time>
      </trkpt>
      <trkpt lat="45.66481" lon="3.23286">
        <ele>412.7</ele>
        <time>2021-08-04T10:57:14Z</time>
      </trkpt>
      <trkpt lat="45.66482" lon="3.2329">
        <ele>413.2</ele>
        <time>2021-08-04T10:57:16Z</time>
      </trkpt>
      <trkpt lat="45.66483" lon="3.23294">
        <ele>413.6</ele>
        <time>2021-08-04T10:57:18Z</time>
      </trkpt>
      <trkpt lat="45.66484" lon="3.23298">
        <ele>414</ele>
        <time>2021-08-04T10:57:20Z</time>
      </trkpt>
      <trkpt lat="45.66485" lon="3.23302">
        <ele>414.4</ele>
        <time>2021-08-04T10:57:22Z</time>
      </trkpt>
      <trkpt lat="45.66487" lon="3.23306">
        <ele>414.7</ele>
        <time>2021-08-04T10:57:24Z</time>
      </trkpt>
      <trkpt lat="45.66489" lon="3.23307">
        <ele>414.8</ele>
        <time>2021-08-04T10:57:26Z</time>
      </trkpt>
      <trkpt lat="45.66492" lon="3.23309">
        <ele>414.9</ele>
        <time>2021-08-04T10:57:28Z</time>
      </trkpt>
      <trkpt lat="45.66494" lon="3.23311">
        <ele>415</ele>
        <time>2021-08-04T10:57:30Z</time>
      </trkpt>
      <trkpt lat="45.66496" lon="3.23314">
        <ele>415.2</ele>
        <time>2021-08-04T10:57:32Z</time>
      </trkpt>
      <trkpt lat="45.66497" lon="3.23315">
        <ele>415.2</ele>
        <time>2021-08-04T10:57:34Z</time>
      </trkpt>
      <trkpt lat="45.66499" lon="3.23314">
        <ele>415</ele>
        <time>2021-08-04T10:57:36Z</time>
      </trkpt>
      <trkpt lat="45.66498" lon="3.23314">
        <ele>415</ele>
        <time>2021-08-04T10:57:38Z</time>
      </trkpt>
      <trkpt lat="45.66498" lon="3.23314">
        <ele>415</ele>
        <time>2021-08-04T10:57:40Z</time>
      </trkpt>
      <trkpt lat="45.66498" lon="3.23314">
        <ele>415</ele>
        <time>2021-08-04T10:57:42Z</time>
      </trkpt>
      <trkpt lat="45.66495" lon="3.2333">
        <ele>417</ele>
        <time>2021-08-04T11:01:30Z</time>
      </trkpt>
      <trkpt lat="45.66495" lon="3.23334">
        <ele>417.4</ele>
        <time>2021-08-04T11:01:32Z</time>
      </trkpt>
      <trkpt lat="45.66496" lon="3.23338">
        <ele>417.5</ele>
        <time>2021-08-04T11:01:34Z</time>
      </trkpt>
      <trkpt lat="45.66498" lon="3.23342">
        <ele>417.6</ele>
        <time>2021-08-04T11:01:36Z</time>
      </trkpt>
      <trkpt lat="45.665" lon="3.23347">
        <ele>417.7</ele>
        <time>2021-08-04T11:01:38Z</time>
      </trkpt>
      <trkpt lat="45.66502" lon="3.23352">
        <ele>417.9</ele>
        <time>2021-08-04T11:01:40Z</time>
      </trkpt>
      <trkpt lat="45.66503" lon="3.23356">
        <ele>418.1</ele>
        <time>2021-08-04T11:01:42Z</time>
      </trkpt>
      <trkpt lat="45.66505" lon="3.2336">
        <ele>418.3</ele>
        <time>2021-08-04T11:01:44Z</time>
      </trkpt>
      <trkpt lat="45.66507" lon="3.23365">
        <ele>418.5</ele>
        <time>2021-08-04T11:01:46Z</time>
      </trkpt>
      <trkpt lat="45.66509" lon="3.2337">
        <ele>418.6</ele>
        <time>2021-08-04T11:01:48Z</time>
      </trkpt>
      <trkpt lat="45.6651" lon="3.23374">
        <ele>418.8</ele>
        <time>2021-08-04T11:01:50Z</time>
      </trkpt>
      <trkpt lat="45.66512" lon="3.23379">
        <ele>419</ele>
        <time>2021-08-04T11:01:52Z</time>
      </trkpt>
      <trkpt lat="45.66513" lon="3.23384">
        <ele>419.2</ele>
        <time>2021-08-04T11:01:54Z</time>
      </trkpt>
      <trkpt lat="45.66515" lon="3.23388">
        <ele>419.4</ele>
        <time>2021-08-04T11:01:56Z</time>
      </trkpt>
      <trkpt lat="45.66516" lon="3.23393">
        <ele>419.6</ele>
        <time>2021-08-04T11:01:58Z</time>
      </trkpt>
      <trkpt lat="45.66518" lon="3.23398">
        <ele>419.8</ele>
        <time>2021-08-04T11:02:00Z</time>
      </trkpt>
      <trkpt lat="45.66519" lon="3.23402">
        <ele>419.9</ele>
        <time>2021-08-04T11:02:02Z</time>
      </trkpt>
      <trkpt lat="45.6652" lon="3.23407">
        <ele>420.1</ele>
        <time>2021-08-04T11:02:04Z</time>
      </trkpt>
      <trkpt lat="45.66522" lon="3.23412">
        <ele>420.3</ele>
        <time>2021-08-04T11:02:06Z</time>
      </trkpt>
      <trkpt lat="45.66523" lon="3.23417">
        <ele>420.4</ele>
        <time>2021-08-04T11:02:08Z</time>
      </trkpt>
      <trkpt lat="45.66525" lon="3.23421">
        <ele>420.8</ele>
        <time>2021-08-04T11:02:10Z</time>
      </trkpt>
      <trkpt lat="45.66527" lon="3.23426">
        <ele>421.1</ele>
        <time>2021-08-04T11:02:12Z</time>
      </trkpt>
      <trkpt lat="45.66528" lon="3.23431">
        <ele>421.4</ele>
        <time>2021-08-04T11:02:14Z</time>
      </trkpt>
      <trkpt lat="45.6653" lon="3.23436">
        <ele>421.7</ele>
        <time>2021-08-04T11:02:16Z</time>
      </trkpt>
      <trkpt lat="45.66531" lon="3.23441">
        <ele>422</ele>
        <time>2021-08-04T11:02:18Z</time>
      </trkpt>
      <trkpt lat="45.66533" lon="3.23445">
        <ele>422.3</ele>
        <time>2021-08-04T11:02:20Z</time>
      </trkpt>
      <trkpt lat="45.66534" lon="3.2345">
        <ele>422.5</ele>
        <time>2021-08-04T11:02:22Z</time>
      </trkpt>
      <trkpt lat="45.66536" lon="3.23455">
        <ele>422.8</ele>
        <time>2021-08-04T11:02:24Z</time>
      </trkpt>
      <trkpt lat="45.66537" lon="3.2346">
        <ele>423.1</ele>
        <time>2021-08-04T11:02:26Z</time>
      </trkpt>
      <trkpt lat="45.66539" lon="3.23465">
        <ele>423.3</ele>
        <time>2021-08-04T11:02:28Z</time>
      </trkpt>
      <trkpt lat="45.66541" lon="3.2347">
        <ele>423.6</ele>
        <time>2021-08-04T11:02:30Z</time>
      </trkpt>
      <trkpt lat="45.66542" lon="3.23475">
        <ele>423.8</ele>
        <time>2021-08-04T11:02:32Z</time>
      </trkpt>
      <trkpt lat="45.66543" lon="3.2348">
        <ele>424.1</ele>
        <time>2021-08-04T11:02:34Z</time>
      </trkpt>
      <trkpt lat="45.66545" lon="3.23485">
        <ele>424.3</ele>
        <time>2021-08-04T11:02:36Z</time>
      </trkpt>
      <trkpt lat="45.66546" lon="3.2349">
        <ele>424.5</ele>
        <time>2021-08-04T11:02:38Z</time>
      </trkpt>
      <trkpt lat="45.66547" lon="3.23495">
        <ele>424.7</ele>
        <time>2021-08-04T11:02:40Z</time>
      </trkpt>
      <trkpt lat="45.66548" lon="3.235">
        <ele>425</ele>
        <time>2021-08-04T11:02:42Z</time>
      </trkpt>
      <trkpt lat="45.66549" lon="3.23505">
        <ele>425.1</ele>
        <time>2021-08-04T11:02:44Z</time>
      </trkpt>
      <trkpt lat="45.6655" lon="3.2351">
        <ele>425.2</ele>
        <time>2021-08-04T11:02:46Z</time>
      </trkpt>
      <trkpt lat="45.66551" lon="3.23515">
        <ele>425.4</ele>
        <time>2021-08-04T11:02:48Z</time>
      </trkpt>
      <trkpt lat="45.66551" lon="3.2352">
        <ele>425.6</ele>
        <time>2021-08-04T11:02:50Z</time>
      </trkpt>
      <trkpt lat="45.66552" lon="3.23525">
        <ele>425.7</ele>
        <time>2021-08-04T11:02:52Z</time>
      </trkpt>
      <trkpt lat="45.66552" lon="3.23531">
        <ele>426</ele>
        <time>2021-08-04T11:02:54Z</time>
      </trkpt>
      <trkpt lat="45.66553" lon="3.23536">
        <ele>426.1</ele>
        <time>2021-08-04T11:02:56Z</time>
      </trkpt>
      <trkpt lat="45.66553" lon="3.23542">
        <ele>426.3</ele>
        <time>2021-08-04T11:02:58Z</time>
      </trkpt>
      <trkpt lat="45.66554" lon="3.23547">
        <ele>426.5</ele>
        <time>2021-08-04T11:03:00Z</time>
      </trkpt>
      <trkpt lat="45.66555" lon="3.23552">
        <ele>426.7</ele>
        <time>2021-08-04T11:03:02Z</time>
      </trkpt>
      <trkpt lat="45.66555" lon="3.23557">
        <ele>426.9</ele>
        <time>2021-08-04T11:03:04Z</time>
      </trkpt>
      <trkpt lat="45.66556" lon="3.23562">
        <ele>427</ele>
        <time>2021-08-04T11:03:06Z</time>
      </trkpt>
      <trkpt lat="45.66556" lon="3.23567">
        <ele>427.3</ele>
        <time>2021-08-04T11:03:08Z</time>
      </trkpt>
      <trkpt lat="45.66556" lon="3.23572">
        <ele>427.5</ele>
        <time>2021-08-04T11:03:10Z</time>
      </trkpt>
      <trkpt lat="45.66556" lon="3.23577">
        <ele>427.7</ele>
        <time>2021-08-04T11:03:12Z</time>
      </trkpt>
      <trkpt lat="45.66556" lon="3.23582">
        <ele>427.9</ele>
        <time>2021-08-04T11:03:14Z</time>
      </trkpt>
      <trkpt lat="45.66556" lon="3.23587">
        <ele>428.2</ele>
        <time>2021-08-04T11:03:16Z</time>
      </trkpt>
      <trkpt lat="45.66556" lon="3.23592">
        <ele>428.5</ele>
        <time>2021-08-04T11:03:18Z</time>
      </trkpt>
      <trkpt lat="45.66556" lon="3.23597">
        <ele>428.9</ele>
        <time>2021-08-04T11:03:20Z</time>
      </trkpt>
      <trkpt lat="45.66556" lon="3.23602">
        <ele>429.2</ele>
        <time>2021-08-04T11:03:22Z</time>
      </trkpt>
      <trkpt lat="45.66556" lon="3.23607">
        <ele>429.5</ele>
        <time>2021-08-04T11:03:24Z</time>
      </trkpt>
      <trkpt lat="45.66555" lon="3.23611">
        <ele>429.8</ele>
        <time>2021-08-04T11:03:26Z</time>
      </trkpt>
      <trkpt lat="45.66555" lon="3.23617">
        <ele>430.2</ele>
        <time>2021-08-04T11:03:28Z</time>
      </trkpt>
      <trkpt lat="45.66555" lon="3.23622">
        <ele>430.5</ele>
        <time>2021-08-04T11:03:30Z</time>
      </trkpt>
      <trkpt lat="45.66555" lon="3.23626">
        <ele>430.8</ele>
        <time>2021-08-04T11:03:32Z</time>
      </trkpt>
      <trkpt lat="45.66554" lon="3.2363">
        <ele>431.1</ele>
        <time>2021-08-04T11:03:34Z</time>
      </trkpt>
      <trkpt lat="45.66555" lon="3.23635">
        <ele>431.4</ele>
        <time>2021-08-04T11:03:36Z</time>
      </trkpt>
      <trkpt lat="45.66555" lon="3.2364">
        <ele>431.6</ele>
        <time>2021-08-04T11:03:38Z</time>
      </trkpt>
      <trkpt lat="45.66556" lon="3.23645">
        <ele>431.9</ele>
        <time>2021-08-04T11:03:40Z</time>
      </trkpt>
      <trkpt lat="45.66557" lon="3.23649">
        <ele>432.1</ele>
        <time>2021-08-04T11:03:42Z</time>
      </trkpt>
      <trkpt lat="45.66557" lon="3.23653">
        <ele>432.4</ele>
        <time>2021-08-04T11:03:44Z</time>
      </trkpt>
      <trkpt lat="45.66558" lon="3.23657">
        <ele>432.6</ele>
        <time>2021-08-04T11:03:46Z</time>
      </trkpt>
      <trkpt lat="45.6656" lon="3.2366">
        <ele>432.7</ele>
        <time>2021-08-04T11:03:48Z</time>
      </trkpt>
      <trkpt lat="45.66561" lon="3.23664">
        <ele>432.9</ele>
        <time>2021-08-04T11:03:50Z</time>
      </trkpt>
      <trkpt lat="45.66563" lon="3.23668">
        <ele>433.1</ele>
        <time>2021-08-04T11:03:52Z</time>
      </trkpt>
      <trkpt lat="45.66564" lon="3.23671">
        <ele>433.4</ele>
        <time>2021-08-04T11:03:54Z</time>
      </trkpt>
      <trkpt lat="45.66566" lon="3.23674">
        <ele>433.6</ele>
        <time>2021-08-04T11:03:56Z</time>
      </trkpt>
      <trkpt lat="45.66567" lon="3.23677">
        <ele>433.8</ele>
        <time>2021-08-04T11:03:58Z</time>
      </trkpt>
      <trkpt lat="45.66567" lon="3.2368">
        <ele>434.1</ele>
        <time>2021-08-04T11:04:00Z</time>
      </trkpt>
      <trkpt lat="45.66568" lon="3.23683">
        <ele>434.3</ele>
        <time>2021-08-04T11:04:02Z</time>
      </trkpt>
      <trkpt lat="45.66569" lon="3.23684">
        <ele>434.4</ele>
        <time>2021-08-04T11:04:04Z</time>
      </trkpt>
      <trkpt lat="45.6657" lon="3.23684">
        <ele>434.4</ele>
        <time>2021-08-04T11:04:06Z</time>
      </trkpt>
      <trkpt lat="45.6657" lon="3.23684">
        <ele>434.4</ele>
        <time>2021-08-04T11:04:08Z</time>
      </trkpt>
      <trkpt lat="45.66564" lon="3.23683">
        <ele>434.5</ele>
        <time>2021-08-04T11:05:14Z</time>
      </trkpt>
      <trkpt lat="45.66562" lon="3.23687">
        <ele>434.9</ele>
        <time>2021-08-04T11:05:16Z</time>
      </trkpt>
      <trkpt lat="45.66559" lon="3.2369">
        <ele>435.3</ele>
        <time>2021-08-04T11:05:18Z</time>
      </trkpt>
      <trkpt lat="45.66557" lon="3.23693">
        <ele>435.7</ele>
        <time>2021-08-04T11:05:20Z</time>
      </trkpt>
      <trkpt lat="45.66556" lon="3.23696">
        <ele>436</ele>
        <time>2021-08-04T11:05:22Z</time>
      </trkpt>
      <trkpt lat="45.66554" lon="3.237">
        <ele>436.4</ele>
        <time>2021-08-04T11:05:24Z</time>
      </trkpt>
      <trkpt lat="45.66552" lon="3.23703">
        <ele>436.8</ele>
        <time>2021-08-04T11:05:26Z</time>
      </trkpt>
      <trkpt lat="45.6655" lon="3.23706">
        <ele>437.1</ele>
        <time>2021-08-04T11:05:28Z</time>
      </trkpt>
      <trkpt lat="45.66549" lon="3.23711">
        <ele>437.5</ele>
        <time>2021-08-04T11:05:30Z</time>
      </trkpt>
      <trkpt lat="45.66548" lon="3.23715">
        <ele>438</ele>
        <time>2021-08-04T11:05:32Z</time>
      </trkpt>
      <trkpt lat="45.66548" lon="3.2372">
        <ele>438.4</ele>
        <time>2021-08-04T11:05:34Z</time>
      </trkpt>
      <trkpt lat="45.66547" lon="3.23725">
        <ele>438.8</ele>
        <time>2021-08-04T11:05:36Z</time>
      </trkpt>
      <trkpt lat="45.66546" lon="3.23728">
        <ele>439.1</ele>
        <time>2021-08-04T11:05:38Z</time>
      </trkpt>
      <trkpt lat="45.66545" lon="3.23732">
        <ele>439.5</ele>
        <time>2021-08-04T11:05:40Z</time>
      </trkpt>
      <trkpt lat="45.66543" lon="3.23735">
        <ele>439.7</ele>
        <time>2021-08-04T11:05:42Z</time>
      </trkpt>
      <trkpt lat="45.66541" lon="3.23738">
        <ele>440</ele>
        <time>2021-08-04T11:05:44Z</time>
      </trkpt>
      <trkpt lat="45.6654" lon="3.23741">
        <ele>440.2</ele>
        <time>2021-08-04T11:05:46Z</time>
      </trkpt>
      <trkpt lat="45.66541" lon="3.23745">
        <ele>440.6</ele>
        <time>2021-08-04T11:05:48Z</time>
      </trkpt>
      <trkpt lat="45.66542" lon="3.23748">
        <ele>440.8</ele>
        <time>2021-08-04T11:05:50Z</time>
      </trkpt>
      <trkpt lat="45.66543" lon="3.23752">
        <ele>441.2</ele>
        <time>2021-08-04T11:05:52Z</time>
      </trkpt>
      <trkpt lat="45.66544" lon="3.23757">
        <ele>441.5</ele>
        <time>2021-08-04T11:05:54Z</time>
      </trkpt>
      <trkpt lat="45.66545" lon="3.23761">
        <ele>441.7</ele>
        <time>2021-08-04T11:05:56Z</time>
      </trkpt>
      <trkpt lat="45.66544" lon="3.23765">
        <ele>442</ele>
        <time>2021-08-04T11:05:58Z</time>
      </trkpt>
      <trkpt lat="45.66544" lon="3.2377">
        <ele>442.4</ele>
        <time>2021-08-04T11:06:00Z</time>
      </trkpt>
      <trkpt lat="45.66544" lon="3.23775">
        <ele>442.7</ele>
        <time>2021-08-04T11:06:02Z</time>
      </trkpt>
      <trkpt lat="45.66544" lon="3.2378">
        <ele>443</ele>
        <time>2021-08-04T11:06:04Z</time>
      </trkpt>
      <trkpt lat="45.66544" lon="3.23784">
        <ele>443.3</ele>
        <time>2021-08-04T11:06:06Z</time>
      </trkpt>
      <trkpt lat="45.66544" lon="3.23789">
        <ele>443.6</ele>
        <time>2021-08-04T11:06:08Z</time>
      </trkpt>
      <trkpt lat="45.66543" lon="3.23793">
        <ele>443.9</ele>
        <time>2021-08-04T11:06:10Z</time>
      </trkpt>
      <trkpt lat="45.6654" lon="3.23795">
        <ele>443.9</ele>
        <time>2021-08-04T11:06:12Z</time>
      </trkpt>
      <trkpt lat="45.66536" lon="3.23796">
        <ele>444</ele>
        <time>2021-08-04T11:06:14Z</time>
      </trkpt>
      <trkpt lat="45.66536" lon="3.23801">
        <ele>444.2</ele>
        <time>2021-08-04T11:06:16Z</time>
      </trkpt>
      <trkpt lat="45.66537" lon="3.23804">
        <ele>444.5</ele>
        <time>2021-08-04T11:06:18Z</time>
      </trkpt>
      <trkpt lat="45.66538" lon="3.23806">
        <ele>444.6</ele>
        <time>2021-08-04T11:06:20Z</time>
      </trkpt>
      <trkpt lat="45.66539" lon="3.23806">
        <ele>444.7</ele>
        <time>2021-08-04T11:06:22Z</time>
      </trkpt>
      <trkpt lat="45.66539" lon="3.23806">
        <ele>444.6</ele>
        <time>2021-08-04T11:06:24Z</time>
      </trkpt>
      <trkpt lat="45.66539" lon="3.23806">
        <ele>444.6</ele>
        <time>2021-08-04T11:06:26Z</time>
      </trkpt>
      <trkpt lat="45.66539" lon="3.23806">
        <ele>444.6</ele>
        <time>2021-08-04T11:06:28Z</time>
      </trkpt>
      <trkpt lat="45.66551" lon="3.23816">
        <ele>445.7</ele>
        <time>2021-08-04T12:40:00Z</time>
      </trkpt>
      <trkpt lat="45.66553" lon="3.23819">
        <ele>445.9</ele>
        <time>2021-08-04T12:40:02Z</time>
      </trkpt>
      <trkpt lat="45.66555" lon="3.23823">
        <ele>446.2</ele>
        <time>2021-08-04T12:40:04Z</time>
      </trkpt>
      <trkpt lat="45.66556" lon="3.23826">
        <ele>446.5</ele>
        <time>2021-08-04T12:40:06Z</time>
      </trkpt>
      <trkpt lat="45.66558" lon="3.2383">
        <ele>446.8</ele>
        <time>2021-08-04T12:40:08Z</time>
      </trkpt>
      <trkpt lat="45.66559" lon="3.23832">
        <ele>447.1</ele>
        <time>2021-08-04T12:40:10Z</time>
      </trkpt>
      <trkpt lat="45.66561" lon="3.23835">
        <ele>447.3</ele>
        <time>2021-08-04T12:40:12Z</time>
      </trkpt>
      <trkpt lat="45.66563" lon="3.23839">
        <ele>447.5</ele>
        <time>2021-08-04T12:40:14Z</time>
      </trkpt>
      <trkpt lat="45.66565" lon="3.23842">
        <ele>447.8</ele>
        <time>2021-08-04T12:40:16Z</time>
      </trkpt>
      <trkpt lat="45.66567" lon="3.23845">
        <ele>448</ele>
        <time>2021-08-04T12:40:18Z</time>
      </trkpt>
      <trkpt lat="45.66569" lon="3.23848">
        <ele>448.2</ele>
        <time>2021-08-04T12:40:20Z</time>
      </trkpt>
      <trkpt lat="45.66572" lon="3.23849">
        <ele>448.3</ele>
        <time>2021-08-04T12:40:22Z</time>
      </trkpt>
      <trkpt lat="45.66574" lon="3.2385">
        <ele>448.5</ele>
        <time>2021-08-04T12:40:24Z</time>
      </trkpt>
      <trkpt lat="45.66576" lon="3.23852">
        <ele>448.6</ele>
        <time>2021-08-04T12:40:26Z</time>
      </trkpt>
      <trkpt lat="45.66577" lon="3.23851">
        <ele>448.6</ele>
        <time>2021-08-04T12:40:28Z</time>
      </trkpt>
      <trkpt lat="45.6658" lon="3.23853">
        <ele>448.8</ele>
        <time>2021-08-04T12:40:30Z</time>
      </trkpt>
      <trkpt lat="45.66582" lon="3.23854">
        <ele>449</ele>
        <time>2021-08-04T12:40:32Z</time>
      </trkpt>
      <trkpt lat="45.66585" lon="3.23855">
        <ele>449.1</ele>
        <time>2021-08-04T12:40:34Z</time>
      </trkpt>
      <trkpt lat="45.66586" lon="3.23855">
        <ele>449.2</ele>
        <time>2021-08-04T12:40:36Z</time>
      </trkpt>
      <trkpt lat="45.66589" lon="3.23856">
        <ele>449.3</ele>
        <time>2021-08-04T12:40:38Z</time>
      </trkpt>
      <trkpt lat="45.6659" lon="3.23857">
        <ele>449.5</ele>
        <time>2021-08-04T12:40:40Z</time>
      </trkpt>
      <trkpt lat="45.66592" lon="3.2386">
        <ele>449.7</ele>
        <time>2021-08-04T12:40:42Z</time>
      </trkpt>
      <trkpt lat="45.66593" lon="3.23862">
        <ele>450</ele>
        <time>2021-08-04T12:40:44Z</time>
      </trkpt>
      <trkpt lat="45.66596" lon="3.23865">
        <ele>450.2</ele>
        <time>2021-08-04T12:40:46Z</time>
      </trkpt>
      <trkpt lat="45.66598" lon="3.23867">
        <ele>450.5</ele>
        <time>2021-08-04T12:40:48Z</time>
      </trkpt>
      <trkpt lat="45.666" lon="3.23869">
        <ele>450.7</ele>
        <time>2021-08-04T12:40:50Z</time>
      </trkpt>
      <trkpt lat="45.66601" lon="3.23872">
        <ele>451</ele>
        <time>2021-08-04T12:40:52Z</time>
      </trkpt>
      <trkpt lat="45.66603" lon="3.23874">
        <ele>451.3</ele>
        <time>2021-08-04T12:40:54Z</time>
      </trkpt>
      <trkpt lat="45.66606" lon="3.23876">
        <ele>451.6</ele>
        <time>2021-08-04T12:40:56Z</time>
      </trkpt>
      <trkpt lat="45.66608" lon="3.23879">
        <ele>451.8</ele>
        <time>2021-08-04T12:40:58Z</time>
      </trkpt>
      <trkpt lat="45.6661" lon="3.23882">
        <ele>452.2</ele>
        <time>2021-08-04T12:41:00Z</time>
      </trkpt>
      <trkpt lat="45.66611" lon="3.23885">
        <ele>452.5</ele>
        <time>2021-08-04T12:41:02Z</time>
      </trkpt>
      <trkpt lat="45.66613" lon="3.23888">
        <ele>452.9</ele>
        <time>2021-08-04T12:41:04Z</time>
      </trkpt>
      <trkpt lat="45.66615" lon="3.23891">
        <ele>453.2</ele>
        <time>2021-08-04T12:41:06Z</time>
      </trkpt>
      <trkpt lat="45.66617" lon="3.23894">
        <ele>453.5</ele>
        <time>2021-08-04T12:41:08Z</time>
      </trkpt>
      <trkpt lat="45.66619" lon="3.23896">
        <ele>453.9</ele>
        <time>2021-08-04T12:41:10Z</time>
      </trkpt>
      <trkpt lat="45.66621" lon="3.239">
        <ele>454.3</ele>
        <time>2021-08-04T12:41:12Z</time>
      </trkpt>
      <trkpt lat="45.66623" lon="3.23903">
        <ele>454.7</ele>
        <time>2021-08-04T12:41:14Z</time>
      </trkpt>
      <trkpt lat="45.66624" lon="3.23906">
        <ele>455.1</ele>
        <time>2021-08-04T12:41:16Z</time>
      </trkpt>
      <trkpt lat="45.66626" lon="3.23909">
        <ele>455.5</ele>
        <time>2021-08-04T12:41:18Z</time>
      </trkpt>
      <trkpt lat="45.66628" lon="3.23912">
        <ele>455.9</ele>
        <time>2021-08-04T12:41:20Z</time>
      </trkpt>
      <trkpt lat="45.6663" lon="3.23915">
        <ele>456.3</ele>
        <time>2021-08-04T12:41:22Z</time>
      </trkpt>
      <trkpt lat="45.66632" lon="3.23918">
        <ele>456.7</ele>
        <time>2021-08-04T12:41:24Z</time>
      </trkpt>
      <trkpt lat="45.66633" lon="3.23922">
        <ele>457.1</ele>
        <time>2021-08-04T12:41:26Z</time>
      </trkpt>
      <trkpt lat="45.66635" lon="3.23925">
        <ele>457.5</ele>
        <time>2021-08-04T12:41:28Z</time>
      </trkpt>
      <trkpt lat="45.66636" lon="3.23928">
        <ele>457.8</ele>
        <time>2021-08-04T12:41:30Z</time>
      </trkpt>
      <trkpt lat="45.66638" lon="3.23931">
        <ele>458.1</ele>
        <time>2021-08-04T12:41:32Z</time>
      </trkpt>
      <trkpt lat="45.6664" lon="3.23933">
        <ele>458.5</ele>
        <time>2021-08-04T12:41:34Z</time>
      </trkpt>
      <trkpt lat="45.66641" lon="3.23939">
        <ele>459</ele>
        <time>2021-08-04T12:41:36Z</time>
      </trkpt>
      <trkpt lat="45.66641" lon="3.23942">
        <ele>459.1</ele>
        <time>2021-08-04T12:41:38Z</time>
      </trkpt>
      <trkpt lat="45.66642" lon="3.23945">
        <ele>459.5</ele>
        <time>2021-08-04T12:41:40Z</time>
      </trkpt>
      <trkpt lat="45.66643" lon="3.23948">
        <ele>459.8</ele>
        <time>2021-08-04T12:41:42Z</time>
      </trkpt>
      <trkpt lat="45.66644" lon="3.23952">
        <ele>460.1</ele>
        <time>2021-08-04T12:41:44Z</time>
      </trkpt>
      <trkpt lat="45.66646" lon="3.23955">
        <ele>460.4</ele>
        <time>2021-08-04T12:41:46Z</time>
      </trkpt>
      <trkpt lat="45.66647" lon="3.23959">
        <ele>460.7</ele>
        <time>2021-08-04T12:41:48Z</time>
      </trkpt>
      <trkpt lat="45.66648" lon="3.23962">
        <ele>461.1</ele>
        <time>2021-08-04T12:41:50Z</time>
      </trkpt>
      <trkpt lat="45.66649" lon="3.23965">
        <ele>461.3</ele>
        <time>2021-08-04T12:41:52Z</time>
      </trkpt>
      <trkpt lat="45.6665" lon="3.23968">
        <ele>461.6</ele>
        <time>2021-08-04T12:41:54Z</time>
      </trkpt>
      <trkpt lat="45.6665" lon="3.23971">
        <ele>461.8</ele>
        <time>2021-08-04T12:41:56Z</time>
      </trkpt>
      <trkpt lat="45.66648" lon="3.23975">
        <ele>461.9</ele>
        <time>2021-08-04T12:41:58Z</time>
      </trkpt>
      <trkpt lat="45.66647" lon="3.23977">
        <ele>461.8</ele>
        <time>2021-08-04T12:42:00Z</time>
      </trkpt>
      <trkpt lat="45.66645" lon="3.23979">
        <ele>461.9</ele>
        <time>2021-08-04T12:42:02Z</time>
      </trkpt>
      <trkpt lat="45.66643" lon="3.23982">
        <ele>461.9</ele>
        <time>2021-08-04T12:42:04Z</time>
      </trkpt>
      <trkpt lat="45.66641" lon="3.23984">
        <ele>461.9</ele>
        <time>2021-08-04T12:42:06Z</time>
      </trkpt>
      <trkpt lat="45.66639" lon="3.23987">
        <ele>461.8</ele>
        <time>2021-08-04T12:42:08Z</time>
      </trkpt>
      <trkpt lat="45.66637" lon="3.2399">
        <ele>461.8</ele>
        <time>2021-08-04T12:42:10Z</time>
      </trkpt>
      <trkpt lat="45.66635" lon="3.23992">
        <ele>461.8</ele>
        <time>2021-08-04T12:42:12Z</time>
      </trkpt>
      <trkpt lat="45.66633" lon="3.23995">
        <ele>461.8</ele>
        <time>2021-08-04T12:42:14Z</time>
      </trkpt>
      <trkpt lat="45.66631" lon="3.23998">
        <ele>461.9</ele>
        <time>2021-08-04T12:42:16Z</time>
      </trkpt>
      <trkpt lat="45.66629" lon="3.24001">
        <ele>461.9</ele>
        <time>2021-08-04T12:42:18Z</time>
      </trkpt>
      <trkpt lat="45.66627" lon="3.24004">
        <ele>462</ele>
        <time>2021-08-04T12:42:20Z</time>
      </trkpt>
      <trkpt lat="45.66626" lon="3.24007">
        <ele>462.1</ele>
        <time>2021-08-04T12:42:22Z</time>
      </trkpt>
      <trkpt lat="45.66624" lon="3.24009">
        <ele>462.2</ele>
        <time>2021-08-04T12:42:24Z</time>
      </trkpt>
      <trkpt lat="45.66622" lon="3.24011">
        <ele>462.3</ele>
        <time>2021-08-04T12:42:26Z</time>
      </trkpt>
      <trkpt lat="45.66622" lon="3.24014">
        <ele>462.5</ele>
        <time>2021-08-04T12:42:28Z</time>
      </trkpt>
      <trkpt lat="45.66619" lon="3.24017">
        <ele>462.6</ele>
        <time>2021-08-04T12:42:30Z</time>
      </trkpt>
      <trkpt lat="45.66617" lon="3.24021">
        <ele>462.7</ele>
        <time>2021-08-04T12:42:32Z</time>
      </trkpt>
      <trkpt lat="45.66615" lon="3.24024">
        <ele>462.9</ele>
        <time>2021-08-04T12:42:34Z</time>
      </trkpt>
      <trkpt lat="45.66614" lon="3.24026">
        <ele>463</ele>
        <time>2021-08-04T12:42:36Z</time>
      </trkpt>
      <trkpt lat="45.66611" lon="3.24032">
        <ele>463.2</ele>
        <time>2021-08-04T12:42:38Z</time>
      </trkpt>
      <trkpt lat="45.66609" lon="3.24035">
        <ele>463.4</ele>
        <time>2021-08-04T12:42:40Z</time>
      </trkpt>
      <trkpt lat="45.66607" lon="3.24039">
        <ele>463.6</ele>
        <time>2021-08-04T12:42:42Z</time>
      </trkpt>
      <trkpt lat="45.66604" lon="3.24043">
        <ele>463.8</ele>
        <time>2021-08-04T12:42:44Z</time>
      </trkpt>
      <trkpt lat="45.66601" lon="3.24049">
        <ele>464</ele>
        <time>2021-08-04T12:42:46Z</time>
      </trkpt>
      <trkpt lat="45.66597" lon="3.24054">
        <ele>464.2</ele>
        <time>2021-08-04T12:42:48Z</time>
      </trkpt>
      <trkpt lat="45.66594" lon="3.2406">
        <ele>464.6</ele>
        <time>2021-08-04T12:42:50Z</time>
      </trkpt>
      <trkpt lat="45.6659" lon="3.24066">
        <ele>464.9</ele>
        <time>2021-08-04T12:42:52Z</time>
      </trkpt>
      <trkpt lat="45.66586" lon="3.24073">
        <ele>465.2</ele>
        <time>2021-08-04T12:42:54Z</time>
      </trkpt>
      <trkpt lat="45.66581" lon="3.24079">
        <ele>465.5</ele>
        <time>2021-08-04T12:42:56Z</time>
      </trkpt>
      <trkpt lat="45.66576" lon="3.24085">
        <ele>465.9</ele>
        <time>2021-08-04T12:42:58Z</time>
      </trkpt>
      <trkpt lat="45.66571" lon="3.24091">
        <ele>466.2</ele>
        <time>2021-08-04T12:43:00Z</time>
      </trkpt>
      <trkpt lat="45.66564" lon="3.24096">
        <ele>466.3</ele>
        <time>2021-08-04T12:43:02Z</time>
      </trkpt>
      <trkpt lat="45.6656" lon="3.24101">
        <ele>466.6</ele>
        <time>2021-08-04T12:43:04Z</time>
      </trkpt>
      <trkpt lat="45.66554" lon="3.24106">
        <ele>466.8</ele>
        <time>2021-08-04T12:43:06Z</time>
      </trkpt>
      <trkpt lat="45.66548" lon="3.2411">
        <ele>466.9</ele>
        <time>2021-08-04T12:43:08Z</time>
      </trkpt>
      <trkpt lat="45.66543" lon="3.24114">
        <ele>467</ele>
        <time>2021-08-04T12:43:10Z</time>
      </trkpt>
      <trkpt lat="45.66537" lon="3.24118">
        <ele>467</ele>
        <time>2021-08-04T12:43:12Z</time>
      </trkpt>
      <trkpt lat="45.66532" lon="3.24122">
        <ele>467.1</ele>
        <time>2021-08-04T12:43:14Z</time>
      </trkpt>
      <trkpt lat="45.66526" lon="3.24126">
        <ele>467.2</ele>
        <time>2021-08-04T12:43:16Z</time>
      </trkpt>
      <trkpt lat="45.66521" lon="3.2413">
        <ele>467.2</ele>
        <time>2021-08-04T12:43:18Z</time>
      </trkpt>
      <trkpt lat="45.66515" lon="3.24134">
        <ele>467.3</ele>
        <time>2021-08-04T12:43:20Z</time>
      </trkpt>
      <trkpt lat="45.66509" lon="3.24138">
        <ele>467.4</ele>
        <time>2021-08-04T12:43:22Z</time>
      </trkpt>
      <trkpt lat="45.66504" lon="3.24142">
        <ele>467.4</ele>
        <time>2021-08-04T12:43:24Z</time>
      </trkpt>
      <trkpt lat="45.66498" lon="3.24147">
        <ele>467.5</ele>
        <time>2021-08-04T12:43:26Z</time>
      </trkpt>
      <trkpt lat="45.66493" lon="3.2415">
        <ele>467.6</ele>
        <time>2021-08-04T12:43:28Z</time>
      </trkpt>
      <trkpt lat="45.66487" lon="3.24154">
        <ele>467.7</ele>
        <time>2021-08-04T12:43:30Z</time>
      </trkpt>
      <trkpt lat="45.66481" lon="3.24158">
        <ele>467.8</ele>
        <time>2021-08-04T12:43:32Z</time>
      </trkpt>
      <trkpt lat="45.66476" lon="3.24162">
        <ele>467.9</ele>
        <time>2021-08-04T12:43:34Z</time>
      </trkpt>
      <trkpt lat="45.6647" lon="3.24167">
        <ele>468</ele>
        <time>2021-08-04T12:43:36Z</time>
      </trkpt>
      <trkpt lat="45.66465" lon="3.24173">
        <ele>468</ele>
        <time>2021-08-04T12:43:38Z</time>
      </trkpt>
      <trkpt lat="45.6646" lon="3.24179">
        <ele>468.2</ele>
        <time>2021-08-04T12:43:40Z</time>
      </trkpt>
      <trkpt lat="45.66454" lon="3.24185">
        <ele>468.2</ele>
        <time>2021-08-04T12:43:42Z</time>
      </trkpt>
      <trkpt lat="45.66449" lon="3.24192">
        <ele>468.3</ele>
        <time>2021-08-04T12:43:44Z</time>
      </trkpt>
      <trkpt lat="45.66444" lon="3.24198">
        <ele>468.4</ele>
        <time>2021-08-04T12:43:46Z</time>
      </trkpt>
      <trkpt lat="45.66439" lon="3.24205">
        <ele>468.4</ele>
        <time>2021-08-04T12:43:48Z</time>
      </trkpt>
      <trkpt lat="45.66434" lon="3.24212">
        <ele>468.5</ele>
        <time>2021-08-04T12:43:50Z</time>
      </trkpt>
      <trkpt lat="45.66429" lon="3.2422">
        <ele>468.6</ele>
        <time>2021-08-04T12:43:52Z</time>
      </trkpt>
      <trkpt lat="45.66424" lon="3.24228">
        <ele>468.6</ele>
        <time>2021-08-04T12:43:54Z</time>
      </trkpt>
      <trkpt lat="45.6642" lon="3.24236">
        <ele>468.7</ele>
        <time>2021-08-04T12:43:56Z</time>
      </trkpt>
      <trkpt lat="45.66415" lon="3.24244">
        <ele>468.8</ele>
        <time>2021-08-04T12:43:58Z</time>
      </trkpt>
      <trkpt lat="45.6641" lon="3.24252">
        <ele>469</ele>
        <time>2021-08-04T12:44:00Z</time>
      </trkpt>
      <trkpt lat="45.66406" lon="3.24261">
        <ele>469.5</ele>
        <time>2021-08-04T12:44:02Z</time>
      </trkpt>
      <trkpt lat="45.66402" lon="3.24269">
        <ele>469.9</ele>
        <time>2021-08-04T12:44:04Z</time>
      </trkpt>
      <trkpt lat="45.66397" lon="3.24277">
        <ele>470.2</ele>
        <time>2021-08-04T12:44:06Z</time>
      </trkpt>
      <trkpt lat="45.66394" lon="3.24286">
        <ele>470.6</ele>
        <time>2021-08-04T12:44:08Z</time>
      </trkpt>
      <trkpt lat="45.66389" lon="3.24295">
        <ele>471</ele>
        <time>2021-08-04T12:44:10Z</time>
      </trkpt>
      <trkpt lat="45.66385" lon="3.24304">
        <ele>471.3</ele>
        <time>2021-08-04T12:44:12Z</time>
      </trkpt>
      <trkpt lat="45.66381" lon="3.24313">
        <ele>471.7</ele>
        <time>2021-08-04T12:44:14Z</time>
      </trkpt>
      <trkpt lat="45.66377" lon="3.24323">
        <ele>472.1</ele>
        <time>2021-08-04T12:44:16Z</time>
      </trkpt>
      <trkpt lat="45.66373" lon="3.24333">
        <ele>472.4</ele>
        <time>2021-08-04T12:44:18Z</time>
      </trkpt>
      <trkpt lat="45.66369" lon="3.24343">
        <ele>472.7</ele>
        <time>2021-08-04T12:44:20Z</time>
      </trkpt>
      <trkpt lat="45.66366" lon="3.24354">
        <ele>473</ele>
        <time>2021-08-04T12:44:22Z</time>
      </trkpt>
      <trkpt lat="45.66362" lon="3.24364">
        <ele>473.2</ele>
        <time>2021-08-04T12:44:24Z</time>
      </trkpt>
      <trkpt lat="45.66358" lon="3.24375">
        <ele>473.5</ele>
        <time>2021-08-04T12:44:26Z</time>
      </trkpt>
      <trkpt lat="45.66355" lon="3.24387">
        <ele>473.8</ele>
        <time>2021-08-04T12:44:28Z</time>
      </trkpt>
      <trkpt lat="45.6635" lon="3.24397">
        <ele>474</ele>
        <time>2021-08-04T12:44:30Z</time>
      </trkpt>
      <trkpt lat="45.66347" lon="3.24409">
        <ele>474.4</ele>
        <time>2021-08-04T12:44:32Z</time>
      </trkpt>
      <trkpt lat="45.66343" lon="3.24421">
        <ele>474.4</ele>
        <time>2021-08-04T12:44:34Z</time>
      </trkpt>
      <trkpt lat="45.6634" lon="3.24434">
        <ele>474</ele>
        <time>2021-08-04T12:44:36Z</time>
      </trkpt>
      <trkpt lat="45.66336" lon="3.24447">
        <ele>473.5</ele>
        <time>2021-08-04T12:44:38Z</time>
      </trkpt>
      <trkpt lat="45.66332" lon="3.24461">
        <ele>472.8</ele>
        <time>2021-08-04T12:44:40Z</time>
      </trkpt>
      <trkpt lat="45.66328" lon="3.24476">
        <ele>472</ele>
        <time>2021-08-04T12:44:42Z</time>
      </trkpt>
      <trkpt lat="45.66323" lon="3.24491">
        <ele>471.1</ele>
        <time>2021-08-04T12:44:44Z</time>
      </trkpt>
      <trkpt lat="45.66318" lon="3.24508">
        <ele>470.3</ele>
        <time>2021-08-04T12:44:46Z</time>
      </trkpt>
      <trkpt lat="45.66313" lon="3.24526">
        <ele>469.6</ele>
        <time>2021-08-04T12:44:48Z</time>
      </trkpt>
      <trkpt lat="45.66308" lon="3.24543">
        <ele>468.9</ele>
        <time>2021-08-04T12:44:50Z</time>
      </trkpt>
      <trkpt lat="45.66302" lon="3.24561">
        <ele>468.1</ele>
        <time>2021-08-04T12:44:52Z</time>
      </trkpt>
      <trkpt lat="45.66297" lon="3.24579">
        <ele>467.2</ele>
        <time>2021-08-04T12:44:54Z</time>
      </trkpt>
      <trkpt lat="45.66291" lon="3.24598">
        <ele>466.8</ele>
        <time>2021-08-04T12:44:56Z</time>
      </trkpt>
      <trkpt lat="45.66286" lon="3.24616">
        <ele>466.6</ele>
        <time>2021-08-04T12:44:58Z</time>
      </trkpt>
      <trkpt lat="45.66281" lon="3.24633">
        <ele>466.4</ele>
        <time>2021-08-04T12:45:00Z</time>
      </trkpt>
      <trkpt lat="45.66276" lon="3.2465">
        <ele>466.3</ele>
        <time>2021-08-04T12:45:02Z</time>
      </trkpt>
      <trkpt lat="45.6627" lon="3.24668">
        <ele>466.2</ele>
        <time>2021-08-04T12:45:04Z</time>
      </trkpt>
      <trkpt lat="45.66265" lon="3.24685">
        <ele>466</ele>
        <time>2021-08-04T12:45:06Z</time>
      </trkpt>
      <trkpt lat="45.66261" lon="3.24702">
        <ele>465.7</ele>
        <time>2021-08-04T12:45:08Z</time>
      </trkpt>
      <trkpt lat="45.66255" lon="3.24719">
        <ele>465.3</ele>
        <time>2021-08-04T12:45:10Z</time>
      </trkpt>
      <trkpt lat="45.6625" lon="3.24736">
        <ele>464.8</ele>
        <time>2021-08-04T12:45:12Z</time>
      </trkpt>
      <trkpt lat="45.66246" lon="3.24753">
        <ele>464.9</ele>
        <time>2021-08-04T12:45:14Z</time>
      </trkpt>
      <trkpt lat="45.66241" lon="3.24769">
        <ele>465.3</ele>
        <time>2021-08-04T12:45:16Z</time>
      </trkpt>
      <trkpt lat="45.66236" lon="3.24783">
        <ele>465.6</ele>
        <time>2021-08-04T12:45:18Z</time>
      </trkpt>
      <trkpt lat="45.66232" lon="3.24799">
        <ele>465.9</ele>
        <time>2021-08-04T12:45:20Z</time>
      </trkpt>
      <trkpt lat="45.66228" lon="3.24814">
        <ele>466.1</ele>
        <time>2021-08-04T12:45:22Z</time>
      </trkpt>
      <trkpt lat="45.66224" lon="3.24828">
        <ele>466.3</ele>
        <time>2021-08-04T12:45:24Z</time>
      </trkpt>
      <trkpt lat="45.6622" lon="3.24842">
        <ele>466.1</ele>
        <time>2021-08-04T12:45:26Z</time>
      </trkpt>
      <trkpt lat="45.66218" lon="3.24857">
        <ele>465.7</ele>
        <time>2021-08-04T12:45:28Z</time>
      </trkpt>
      <trkpt lat="45.66217" lon="3.24871">
        <ele>465.5</ele>
        <time>2021-08-04T12:45:30Z</time>
      </trkpt>
      <trkpt lat="45.66217" lon="3.24886">
        <ele>465.3</ele>
        <time>2021-08-04T12:45:32Z</time>
      </trkpt>
      <trkpt lat="45.66218" lon="3.24901">
        <ele>465.2</ele>
        <time>2021-08-04T12:45:34Z</time>
      </trkpt>
      <trkpt lat="45.66222" lon="3.24918">
        <ele>465.1</ele>
        <time>2021-08-04T12:45:36Z</time>
      </trkpt>
      <trkpt lat="45.66227" lon="3.24934">
        <ele>463.6</ele>
        <time>2021-08-04T12:45:38Z</time>
      </trkpt>
      <trkpt lat="45.66234" lon="3.24952">
        <ele>462.3</ele>
        <time>2021-08-04T12:45:40Z</time>
      </trkpt>
      <trkpt lat="45.66242" lon="3.24969">
        <ele>461.2</ele>
        <time>2021-08-04T12:45:42Z</time>
      </trkpt>
      <trkpt lat="45.66251" lon="3.24987">
        <ele>460.5</ele>
        <time>2021-08-04T12:45:44Z</time>
      </trkpt>
      <trkpt lat="45.66261" lon="3.25006">
        <ele>459.5</ele>
        <time>2021-08-04T12:45:46Z</time>
      </trkpt>
      <trkpt lat="45.66271" lon="3.25025">
        <ele>458.1</ele>
        <time>2021-08-04T12:45:48Z</time>
      </trkpt>
      <trkpt lat="45.66282" lon="3.25043">
        <ele>456.9</ele>
        <time>2021-08-04T12:45:50Z</time>
      </trkpt>
      <trkpt lat="45.66292" lon="3.25061">
        <ele>455.9</ele>
        <time>2021-08-04T12:45:52Z</time>
      </trkpt>
      <trkpt lat="45.66303" lon="3.25079">
        <ele>454.9</ele>
        <time>2021-08-04T12:45:54Z</time>
      </trkpt>
      <trkpt lat="45.66312" lon="3.25093">
        <ele>454.1</ele>
        <time>2021-08-04T12:45:56Z</time>
      </trkpt>
      <trkpt lat="45.66321" lon="3.25104">
        <ele>453.5</ele>
        <time>2021-08-04T12:45:58Z</time>
      </trkpt>
      <trkpt lat="45.66331" lon="3.25113">
        <ele>453.4</ele>
        <time>2021-08-04T12:46:00Z</time>
      </trkpt>
      <trkpt lat="45.66337" lon="3.25119">
        <ele>453.1</ele>
        <time>2021-08-04T12:46:02Z</time>
      </trkpt>
      <trkpt lat="45.66341" lon="3.25127">
        <ele>452.3</ele>
        <time>2021-08-04T12:46:04Z</time>
      </trkpt>
      <trkpt lat="45.66342" lon="3.25137">
        <ele>450.9</ele>
        <time>2021-08-04T12:46:06Z</time>
      </trkpt>
      <trkpt lat="45.66342" lon="3.25145">
        <ele>449.8</ele>
        <time>2021-08-04T12:46:08Z</time>
      </trkpt>
      <trkpt lat="45.66346" lon="3.25153">
        <ele>449</ele>
        <time>2021-08-04T12:46:10Z</time>
      </trkpt>
      <trkpt lat="45.66352" lon="3.2516">
        <ele>448.7</ele>
        <time>2021-08-04T12:46:12Z</time>
      </trkpt>
      <trkpt lat="45.6636" lon="3.25166">
        <ele>448.6</ele>
        <time>2021-08-04T12:46:14Z</time>
      </trkpt>
      <trkpt lat="45.66366" lon="3.25172">
        <ele>448.8</ele>
        <time>2021-08-04T12:46:16Z</time>
      </trkpt>
      <trkpt lat="45.66371" lon="3.25177">
        <ele>448.9</ele>
        <time>2021-08-04T12:46:18Z</time>
      </trkpt>
      <trkpt lat="45.66374" lon="3.2518">
        <ele>449</ele>
        <time>2021-08-04T12:46:20Z</time>
      </trkpt>
      <trkpt lat="45.66377" lon="3.25183">
        <ele>449</ele>
        <time>2021-08-04T12:46:22Z</time>
      </trkpt>
      <trkpt lat="45.6638" lon="3.25184">
        <ele>449.2</ele>
        <time>2021-08-04T12:46:24Z</time>
      </trkpt>
      <trkpt lat="45.6638" lon="3.25177">
        <ele>449.7</ele>
        <time>2021-08-04T12:46:26Z</time>
      </trkpt>
      <trkpt lat="45.66376" lon="3.25174">
        <ele>449.5</ele>
        <time>2021-08-04T12:46:28Z</time>
      </trkpt>
      <trkpt lat="45.66369" lon="3.25174">
        <ele>448.9</ele>
        <time>2021-08-04T12:46:30Z</time>
      </trkpt>
      <trkpt lat="45.66364" lon="3.2517">
        <ele>448.7</ele>
        <time>2021-08-04T12:46:32Z</time>
      </trkpt>
      <trkpt lat="45.66359" lon="3.25166">
        <ele>448.5</ele>
        <time>2021-08-04T12:46:34Z</time>
      </trkpt>
      <trkpt lat="45.66354" lon="3.25163">
        <ele>448.4</ele>
        <time>2021-08-04T12:46:36Z</time>
      </trkpt>
      <trkpt lat="45.66351" lon="3.25162">
        <ele>448.4</ele>
        <time>2021-08-04T12:46:38Z</time>
      </trkpt>
      <trkpt lat="45.6635" lon="3.25161">
        <ele>448.3</ele>
        <time>2021-08-04T12:46:40Z</time>
      </trkpt>
      <trkpt lat="45.66349" lon="3.25161">
        <ele>448.2</ele>
        <time>2021-08-04T12:46:42Z</time>
      </trkpt>
      <trkpt lat="45.66349" lon="3.25161">
        <ele>448.2</ele>
        <time>2021-08-04T12:46:44Z</time>
      </trkpt>
      <trkpt lat="45.66348" lon="3.25161">
        <ele>448.2</ele>
        <time>2021-08-04T12:46:46Z</time>
      </trkpt>
      <trkpt lat="45.66348" lon="3.25161">
        <ele>448.2</ele>
        <time>2021-08-04T12:46:48Z</time>
      </trkpt>
      <trkpt lat="45.6634" lon="3.25139">
        <ele>450.5</ele>
        <time>2021-08-04T12:49:22Z</time>
      </trkpt>
      <trkpt lat="45.66337" lon="3.25136">
        <ele>450.7</ele>
        <time>2021-08-04T12:49:24Z</time>
      </trkpt>
      <trkpt lat="45.66334" lon="3.25134">
        <ele>450.8</ele>
        <time>2021-08-04T12:49:26Z</time>
      </trkpt>
      <trkpt lat="45.66329" lon="3.25131">
        <ele>450.6</ele>
        <time>2021-08-04T12:49:28Z</time>
      </trkpt>
      <trkpt lat="45.66324" lon="3.25127">
        <ele>450.7</ele>
        <time>2021-08-04T12:49:30Z</time>
      </trkpt>
      <trkpt lat="45.66319" lon="3.25123">
        <ele>450.8</ele>
        <time>2021-08-04T12:49:32Z</time>
      </trkpt>
      <trkpt lat="45.66314" lon="3.25117">
        <ele>451</ele>
        <time>2021-08-04T12:49:34Z</time>
      </trkpt>
      <trkpt lat="45.66308" lon="3.25113">
        <ele>450.9</ele>
        <time>2021-08-04T12:49:36Z</time>
      </trkpt>
      <trkpt lat="45.66302" lon="3.25107">
        <ele>451</ele>
        <time>2021-08-04T12:49:38Z</time>
      </trkpt>
      <trkpt lat="45.66295" lon="3.25102">
        <ele>450.9</ele>
        <time>2021-08-04T12:49:40Z</time>
      </trkpt>
      <trkpt lat="45.66287" lon="3.25097">
        <ele>450.7</ele>
        <time>2021-08-04T12:49:42Z</time>
      </trkpt>
      <trkpt lat="45.66279" lon="3.25092">
        <ele>450.3</ele>
        <time>2021-08-04T12:49:44Z</time>
      </trkpt>
      <trkpt lat="45.66269" lon="3.25086">
        <ele>450</ele>
        <time>2021-08-04T12:49:46Z</time>
      </trkpt>
      <trkpt lat="45.6626" lon="3.2508">
        <ele>449.6</ele>
        <time>2021-08-04T12:49:48Z</time>
      </trkpt>
      <trkpt lat="45.66249" lon="3.25073">
        <ele>449.2</ele>
        <time>2021-08-04T12:49:50Z</time>
      </trkpt>
      <trkpt lat="45.66237" lon="3.25065">
        <ele>448.8</ele>
        <time>2021-08-04T12:49:52Z</time>
      </trkpt>
      <trkpt lat="45.66224" lon="3.25059">
        <ele>447.9</ele>
        <time>2021-08-04T12:49:54Z</time>
      </trkpt>
      <trkpt lat="45.66212" lon="3.2505">
        <ele>447.3</ele>
        <time>2021-08-04T12:49:56Z</time>
      </trkpt>
      <trkpt lat="45.66198" lon="3.25041">
        <ele>446.4</ele>
        <time>2021-08-04T12:49:58Z</time>
      </trkpt>
      <trkpt lat="45.66183" lon="3.25033">
        <ele>445.2</ele>
        <time>2021-08-04T12:50:00Z</time>
      </trkpt>
      <trkpt lat="45.66168" lon="3.25027">
        <ele>443.6</ele>
        <time>2021-08-04T12:50:02Z</time>
      </trkpt>
      <trkpt lat="45.66151" lon="3.25022">
        <ele>442.5</ele>
        <time>2021-08-04T12:50:04Z</time>
      </trkpt>
      <trkpt lat="45.66135" lon="3.25017">
        <ele>441.5</ele>
        <time>2021-08-04T12:50:06Z</time>
      </trkpt>
      <trkpt lat="45.66117" lon="3.25013">
        <ele>440.3</ele>
        <time>2021-08-04T12:50:08Z</time>
      </trkpt>
      <trkpt lat="45.661" lon="3.25008">
        <ele>439</ele>
        <time>2021-08-04T12:50:10Z</time>
      </trkpt>
      <trkpt lat="45.66082" lon="3.25003">
        <ele>437.6</ele>
        <time>2021-08-04T12:50:12Z</time>
      </trkpt>
      <trkpt lat="45.66063" lon="3.25001">
        <ele>435.7</ele>
        <time>2021-08-04T12:50:14Z</time>
      </trkpt>
      <trkpt lat="45.66044" lon="3.24996">
        <ele>434.3</ele>
        <time>2021-08-04T12:50:16Z</time>
      </trkpt>
      <trkpt lat="45.66025" lon="3.24987">
        <ele>433.6</ele>
        <time>2021-08-04T12:50:18Z</time>
      </trkpt>
      <trkpt lat="45.66007" lon="3.2498">
        <ele>432.7</ele>
        <time>2021-08-04T12:50:20Z</time>
      </trkpt>
      <trkpt lat="45.65987" lon="3.24973">
        <ele>432.1</ele>
        <time>2021-08-04T12:50:22Z</time>
      </trkpt>
      <trkpt lat="45.65967" lon="3.24966">
        <ele>431.6</ele>
        <time>2021-08-04T12:50:24Z</time>
      </trkpt>
      <trkpt lat="45.65947" lon="3.24959">
        <ele>430.8</ele>
        <time>2021-08-04T12:50:26Z</time>
      </trkpt>
      <trkpt lat="45.65927" lon="3.24949">
        <ele>430</ele>
        <time>2021-08-04T12:50:28Z</time>
      </trkpt>
      <trkpt lat="45.65907" lon="3.24938">
        <ele>429.7</ele>
        <time>2021-08-04T12:50:30Z</time>
      </trkpt>
      <trkpt lat="45.65889" lon="3.24927">
        <ele>429.8</ele>
        <time>2021-08-04T12:50:32Z</time>
      </trkpt>
      <trkpt lat="45.65874" lon="3.24914">
        <ele>429.5</ele>
        <time>2021-08-04T12:50:34Z</time>
      </trkpt>
      <trkpt lat="45.65861" lon="3.24893">
        <ele>429.1</ele>
        <time>2021-08-04T12:50:36Z</time>
      </trkpt>
      <trkpt lat="45.6585" lon="3.24868">
        <ele>428.3</ele>
        <time>2021-08-04T12:50:38Z</time>
      </trkpt>
      <trkpt lat="45.65844" lon="3.24842">
        <ele>427.4</ele>
        <time>2021-08-04T12:50:40Z</time>
      </trkpt>
      <trkpt lat="45.65845" lon="3.24813">
        <ele>426.5</ele>
        <time>2021-08-04T12:50:42Z</time>
      </trkpt>
      <trkpt lat="45.6585" lon="3.24787">
        <ele>425.9</ele>
        <time>2021-08-04T12:50:44Z</time>
      </trkpt>
      <trkpt lat="45.65855" lon="3.2476">
        <ele>425.4</ele>
        <time>2021-08-04T12:50:46Z</time>
      </trkpt>
      <trkpt lat="45.65861" lon="3.24735">
        <ele>424.6</ele>
        <time>2021-08-04T12:50:48Z</time>
      </trkpt>
      <trkpt lat="45.65864" lon="3.24711">
        <ele>423.3</ele>
        <time>2021-08-04T12:50:50Z</time>
      </trkpt>
      <trkpt lat="45.65865" lon="3.24687">
        <ele>421.8</ele>
        <time>2021-08-04T12:50:52Z</time>
      </trkpt>
      <trkpt lat="45.65865" lon="3.24663">
        <ele>420.4</ele>
        <time>2021-08-04T12:50:54Z</time>
      </trkpt>
      <trkpt lat="45.6586" lon="3.24639">
        <ele>419.3</ele>
        <time>2021-08-04T12:50:56Z</time>
      </trkpt>
      <trkpt lat="45.65849" lon="3.24621">
        <ele>417.7</ele>
        <time>2021-08-04T12:50:58Z</time>
      </trkpt>
      <trkpt lat="45.65837" lon="3.24606">
        <ele>416</ele>
        <time>2021-08-04T12:51:00Z</time>
      </trkpt>
      <trkpt lat="45.65824" lon="3.24594">
        <ele>415.3</ele>
        <time>2021-08-04T12:51:02Z</time>
      </trkpt>
      <trkpt lat="45.65811" lon="3.24582">
        <ele>415.1</ele>
        <time>2021-08-04T12:51:04Z</time>
      </trkpt>
      <trkpt lat="45.65798" lon="3.24569">
        <ele>415.8</ele>
        <time>2021-08-04T12:51:06Z</time>
      </trkpt>
      <trkpt lat="45.65785" lon="3.24556">
        <ele>416.1</ele>
        <time>2021-08-04T12:51:08Z</time>
      </trkpt>
      <trkpt lat="45.65773" lon="3.24542">
        <ele>415.9</ele>
        <time>2021-08-04T12:51:10Z</time>
      </trkpt>
      <trkpt lat="45.6576" lon="3.24528">
        <ele>415.1</ele>
        <time>2021-08-04T12:51:12Z</time>
      </trkpt>
      <trkpt lat="45.65746" lon="3.24512">
        <ele>414.1</ele>
        <time>2021-08-04T12:51:14Z</time>
      </trkpt>
      <trkpt lat="45.65735" lon="3.24494">
        <ele>414.1</ele>
        <time>2021-08-04T12:51:16Z</time>
      </trkpt>
      <trkpt lat="45.65723" lon="3.24475">
        <ele>414.5</ele>
        <time>2021-08-04T12:51:18Z</time>
      </trkpt>
      <trkpt lat="45.65712" lon="3.24456">
        <ele>414.1</ele>
        <time>2021-08-04T12:51:20Z</time>
      </trkpt>
      <trkpt lat="45.65704" lon="3.24437">
        <ele>413.4</ele>
        <time>2021-08-04T12:51:22Z</time>
      </trkpt>
      <trkpt lat="45.65698" lon="3.24417">
        <ele>412.3</ele>
        <time>2021-08-04T12:51:24Z</time>
      </trkpt>
      <trkpt lat="45.65693" lon="3.24397">
        <ele>410.8</ele>
        <time>2021-08-04T12:51:26Z</time>
      </trkpt>
      <trkpt lat="45.65686" lon="3.24376">
        <ele>408.5</ele>
        <time>2021-08-04T12:51:28Z</time>
      </trkpt>
      <trkpt lat="45.65676" lon="3.24356">
        <ele>405.4</ele>
        <time>2021-08-04T12:51:30Z</time>
      </trkpt>
      <trkpt lat="45.65665" lon="3.24336">
        <ele>402.4</ele>
        <time>2021-08-04T12:51:32Z</time>
      </trkpt>
      <trkpt lat="45.65653" lon="3.24319">
        <ele>404.3</ele>
        <time>2021-08-04T12:51:34Z</time>
      </trkpt>
      <trkpt lat="45.65642" lon="3.24303">
        <ele>405.8</ele>
        <time>2021-08-04T12:51:36Z</time>
      </trkpt>
      <trkpt lat="45.65634" lon="3.24288">
        <ele>406.6</ele>
        <time>2021-08-04T12:51:38Z</time>
      </trkpt>
      <trkpt lat="45.65625" lon="3.24275">
        <ele>406.8</ele>
        <time>2021-08-04T12:51:40Z</time>
      </trkpt>
      <trkpt lat="45.65615" lon="3.24262">
        <ele>406.7</ele>
        <time>2021-08-04T12:51:42Z</time>
      </trkpt>
      <trkpt lat="45.65604" lon="3.24248">
        <ele>406.1</ele>
        <time>2021-08-04T12:51:44Z</time>
      </trkpt>
      <trkpt lat="45.65596" lon="3.24233">
        <ele>406.1</ele>
        <time>2021-08-04T12:51:46Z</time>
      </trkpt>
      <trkpt lat="45.65591" lon="3.24218">
        <ele>406.1</ele>
        <time>2021-08-04T12:51:48Z</time>
      </trkpt>
      <trkpt lat="45.65584" lon="3.24203">
        <ele>405.6</ele>
        <time>2021-08-04T12:51:50Z</time>
      </trkpt>
      <trkpt lat="45.65579" lon="3.24188">
        <ele>405.7</ele>
        <time>2021-08-04T12:51:52Z</time>
      </trkpt>
      <trkpt lat="45.65573" lon="3.24173">
        <ele>405.6</ele>
        <time>2021-08-04T12:51:54Z</time>
      </trkpt>
      <trkpt lat="45.65567" lon="3.24161">
        <ele>405.4</ele>
        <time>2021-08-04T12:51:56Z</time>
      </trkpt>
      <trkpt lat="45.65562" lon="3.24147">
        <ele>405.2</ele>
        <time>2021-08-04T12:51:58Z</time>
      </trkpt>
      <trkpt lat="45.65559" lon="3.2413">
        <ele>404.7</ele>
        <time>2021-08-04T12:52:00Z</time>
      </trkpt>
      <trkpt lat="45.65554" lon="3.24117">
        <ele>404</ele>
        <time>2021-08-04T12:52:02Z</time>
      </trkpt>
      <trkpt lat="45.65547" lon="3.24107">
        <ele>402.7</ele>
        <time>2021-08-04T12:52:04Z</time>
      </trkpt>
      <trkpt lat="45.65539" lon="3.24098">
        <ele>401.1</ele>
        <time>2021-08-04T12:52:06Z</time>
      </trkpt>
      <trkpt lat="45.65531" lon="3.24087">
        <ele>399.2</ele>
        <time>2021-08-04T12:52:08Z</time>
      </trkpt>
      <trkpt lat="45.65525" lon="3.24074">
        <ele>397.6</ele>
        <time>2021-08-04T12:52:10Z</time>
      </trkpt>
      <trkpt lat="45.65521" lon="3.2406">
        <ele>396.3</ele>
        <time>2021-08-04T12:52:12Z</time>
      </trkpt>
      <trkpt lat="45.65517" lon="3.24046">
        <ele>395.3</ele>
        <time>2021-08-04T12:52:14Z</time>
      </trkpt>
      <trkpt lat="45.65514" lon="3.24032">
        <ele>394.1</ele>
        <time>2021-08-04T12:52:16Z</time>
      </trkpt>
      <trkpt lat="45.65513" lon="3.24021">
        <ele>393.6</ele>
        <time>2021-08-04T12:52:18Z</time>
      </trkpt>
      <trkpt lat="45.65513" lon="3.24012">
        <ele>393.4</ele>
        <time>2021-08-04T12:52:20Z</time>
      </trkpt>
      <trkpt lat="45.65514" lon="3.24007">
        <ele>393.5</ele>
        <time>2021-08-04T12:52:22Z</time>
      </trkpt>
      <trkpt lat="45.65515" lon="3.24006">
        <ele>393.5</ele>
        <time>2021-08-04T12:52:24Z</time>
      </trkpt>
      <trkpt lat="45.65515" lon="3.24006">
        <ele>393.5</ele>
        <time>2021-08-04T12:52:26Z</time>
      </trkpt>
      <trkpt lat="45.65515" lon="3.24006">
        <ele>393.6</ele>
        <time>2021-08-04T12:52:28Z</time>
      </trkpt>
      <trkpt lat="45.65515" lon="3.24006">
        <ele>393.5</ele>
        <time>2021-08-04T12:52:30Z</time>
      </trkpt>
      <trkpt lat="45.65515" lon="3.24006">
        <ele>393.5</ele>
        <time>2021-08-04T12:52:32Z</time>
      </trkpt>
      <trkpt lat="45.65553" lon="3.23939">
        <ele>398.8</ele>
        <time>2021-08-04T12:55:12Z</time>
      </trkpt>
      <trkpt lat="45.65556" lon="3.23936">
        <ele>399.1</ele>
        <time>2021-08-04T12:55:14Z</time>
      </trkpt>
      <trkpt lat="45.65557" lon="3.23932">
        <ele>399.1</ele>
        <time>2021-08-04T12:55:16Z</time>
      </trkpt>
      <trkpt lat="45.6556" lon="3.23929">
        <ele>399.3</ele>
        <time>2021-08-04T12:55:18Z</time>
      </trkpt>
      <trkpt lat="45.65562" lon="3.23925">
        <ele>399.4</ele>
        <time>2021-08-04T12:55:20Z</time>
      </trkpt>
      <trkpt lat="45.65564" lon="3.23923">
        <ele>399.6</ele>
        <time>2021-08-04T12:55:22Z</time>
      </trkpt>
      <trkpt lat="45.65566" lon="3.23919">
        <ele>399.6</ele>
        <time>2021-08-04T12:55:24Z</time>
      </trkpt>
      <trkpt lat="45.65568" lon="3.23916">
        <ele>399.7</ele>
        <time>2021-08-04T12:55:26Z</time>
      </trkpt>
      <trkpt lat="45.65571" lon="3.23913">
        <ele>399.8</ele>
        <time>2021-08-04T12:55:28Z</time>
      </trkpt>
      <trkpt lat="45.65573" lon="3.2391">
        <ele>399.8</ele>
        <time>2021-08-04T12:55:30Z</time>
      </trkpt>
      <trkpt lat="45.65575" lon="3.23907">
        <ele>399.8</ele>
        <time>2021-08-04T12:55:32Z</time>
      </trkpt>
      <trkpt lat="45.65578" lon="3.23904">
        <ele>399.9</ele>
        <time>2021-08-04T12:55:34Z</time>
      </trkpt>
      <trkpt lat="45.6558" lon="3.23901">
        <ele>399.9</ele>
        <time>2021-08-04T12:55:36Z</time>
      </trkpt>
      <trkpt lat="45.65582" lon="3.239">
        <ele>400</ele>
        <time>2021-08-04T12:55:38Z</time>
      </trkpt>
      <trkpt lat="45.65584" lon="3.23898">
        <ele>400.1</ele>
        <time>2021-08-04T12:55:40Z</time>
      </trkpt>
      <trkpt lat="45.65586" lon="3.23894">
        <ele>400.3</ele>
        <time>2021-08-04T12:55:42Z</time>
      </trkpt>
      <trkpt lat="45.65588" lon="3.23892">
        <ele>400.6</ele>
        <time>2021-08-04T12:55:44Z</time>
      </trkpt>
      <trkpt lat="45.65589" lon="3.23889">
        <ele>400.8</ele>
        <time>2021-08-04T12:55:46Z</time>
      </trkpt>
      <trkpt lat="45.65591" lon="3.23886">
        <ele>401.1</ele>
        <time>2021-08-04T12:55:48Z</time>
      </trkpt>
      <trkpt lat="45.65593" lon="3.23883">
        <ele>401.4</ele>
        <time>2021-08-04T12:55:50Z</time>
      </trkpt>
      <trkpt lat="45.65595" lon="3.2388">
        <ele>401.7</ele>
        <time>2021-08-04T12:55:52Z</time>
      </trkpt>
      <trkpt lat="45.65597" lon="3.23877">
        <ele>402.1</ele>
        <time>2021-08-04T12:55:54Z</time>
      </trkpt>
      <trkpt lat="45.65599" lon="3.23874">
        <ele>402.3</ele>
        <time>2021-08-04T12:55:56Z</time>
      </trkpt>
      <trkpt lat="45.656" lon="3.23872">
        <ele>402.5</ele>
        <time>2021-08-04T12:55:58Z</time>
      </trkpt>
      <trkpt lat="45.65602" lon="3.23869">
        <ele>402.8</ele>
        <time>2021-08-04T12:56:00Z</time>
      </trkpt>
      <trkpt lat="45.65604" lon="3.23866">
        <ele>402.8</ele>
        <time>2021-08-04T12:56:02Z</time>
      </trkpt>
      <trkpt lat="45.65604" lon="3.23863">
        <ele>402.5</ele>
        <time>2021-08-04T12:56:04Z</time>
      </trkpt>
      <trkpt lat="45.65603" lon="3.23859">
        <ele>402.1</ele>
        <time>2021-08-04T12:56:06Z</time>
      </trkpt>
      <trkpt lat="45.65604" lon="3.23857">
        <ele>402</ele>
        <time>2021-08-04T12:56:08Z</time>
      </trkpt>
      <trkpt lat="45.65606" lon="3.23855">
        <ele>402.3</ele>
        <time>2021-08-04T12:56:10Z</time>
      </trkpt>
      <trkpt lat="45.65608" lon="3.23854">
        <ele>402.8</ele>
        <time>2021-08-04T12:56:12Z</time>
      </trkpt>
      <trkpt lat="45.65608" lon="3.23853">
        <ele>403</ele>
        <time>2021-08-04T12:56:14Z</time>
      </trkpt>
      <trkpt lat="45.65608" lon="3.23853">
        <ele>402.8</ele>
        <time>2021-08-04T12:56:16Z</time>
      </trkpt>
      <trkpt lat="45.6562" lon="3.23818">
        <ele>403.4</ele>
        <time>2021-08-04T12:59:26Z</time>
      </trkpt>
      <trkpt lat="45.65623" lon="3.23813">
        <ele>403.9</ele>
        <time>2021-08-04T12:59:28Z</time>
      </trkpt>
      <trkpt lat="45.65625" lon="3.23806">
        <ele>404.3</ele>
        <time>2021-08-04T12:59:30Z</time>
      </trkpt>
      <trkpt lat="45.65628" lon="3.238">
        <ele>404.7</ele>
        <time>2021-08-04T12:59:32Z</time>
      </trkpt>
      <trkpt lat="45.6563" lon="3.23793">
        <ele>404.8</ele>
        <time>2021-08-04T12:59:34Z</time>
      </trkpt>
      <trkpt lat="45.6563" lon="3.23786">
        <ele>404.2</ele>
        <time>2021-08-04T12:59:36Z</time>
      </trkpt>
      <trkpt lat="45.65629" lon="3.23777">
        <ele>403.4</ele>
        <time>2021-08-04T12:59:38Z</time>
      </trkpt>
      <trkpt lat="45.65626" lon="3.23771">
        <ele>402.2</ele>
        <time>2021-08-04T12:59:40Z</time>
      </trkpt>
      <trkpt lat="45.65624" lon="3.23764">
        <ele>401.1</ele>
        <time>2021-08-04T12:59:42Z</time>
      </trkpt>
      <trkpt lat="45.65621" lon="3.23758">
        <ele>400.1</ele>
        <time>2021-08-04T12:59:44Z</time>
      </trkpt>
      <trkpt lat="45.65618" lon="3.23753">
        <ele>398.9</ele>
        <time>2021-08-04T12:59:46Z</time>
      </trkpt>
      <trkpt lat="45.65615" lon="3.23746">
        <ele>398.3</ele>
        <time>2021-08-04T12:59:48Z</time>
      </trkpt>
      <trkpt lat="45.65611" lon="3.2374">
        <ele>397.8</ele>
        <time>2021-08-04T12:59:50Z</time>
      </trkpt>
      <trkpt lat="45.65609" lon="3.23732">
        <ele>397.6</ele>
        <time>2021-08-04T12:59:52Z</time>
      </trkpt>
      <trkpt lat="45.65606" lon="3.23726">
        <ele>397</ele>
        <time>2021-08-04T12:59:54Z</time>
      </trkpt>
      <trkpt lat="45.65602" lon="3.2372">
        <ele>396.4</ele>
        <time>2021-08-04T12:59:56Z</time>
      </trkpt>
      <trkpt lat="45.65599" lon="3.23715">
        <ele>395.9</ele>
        <time>2021-08-04T12:59:58Z</time>
      </trkpt>
      <trkpt lat="45.65596" lon="3.2371">
        <ele>395.5</ele>
        <time>2021-08-04T13:00:00Z</time>
      </trkpt>
      <trkpt lat="45.65594" lon="3.23705">
        <ele>395.1</ele>
        <time>2021-08-04T13:00:02Z</time>
      </trkpt>
      <trkpt lat="45.6559" lon="3.237">
        <ele>394.4</ele>
        <time>2021-08-04T13:00:04Z</time>
      </trkpt>
      <trkpt lat="45.65588" lon="3.23694">
        <ele>394</ele>
        <time>2021-08-04T13:00:06Z</time>
      </trkpt>
      <trkpt lat="45.65586" lon="3.23688">
        <ele>393.7</ele>
        <time>2021-08-04T13:00:08Z</time>
      </trkpt>
      <trkpt lat="45.65582" lon="3.23683">
        <ele>393</ele>
        <time>2021-08-04T13:00:10Z</time>
      </trkpt>
      <trkpt lat="45.6558" lon="3.23676">
        <ele>393</ele>
        <time>2021-08-04T13:00:12Z</time>
      </trkpt>
      <trkpt lat="45.65578" lon="3.2367">
        <ele>392.9</ele>
        <time>2021-08-04T13:00:14Z</time>
      </trkpt>
      <trkpt lat="45.65577" lon="3.23663">
        <ele>393.1</ele>
        <time>2021-08-04T13:00:16Z</time>
      </trkpt>
      <trkpt lat="45.65576" lon="3.23656">
        <ele>393.5</ele>
        <time>2021-08-04T13:00:18Z</time>
      </trkpt>
      <trkpt lat="45.65574" lon="3.23648">
        <ele>393.9</ele>
        <time>2021-08-04T13:00:20Z</time>
      </trkpt>
      <trkpt lat="45.65573" lon="3.23639">
        <ele>394.4</ele>
        <time>2021-08-04T13:00:22Z</time>
      </trkpt>
      <trkpt lat="45.65571" lon="3.23632">
        <ele>394.4</ele>
        <time>2021-08-04T13:00:24Z</time>
      </trkpt>
      <trkpt lat="45.65567" lon="3.23625">
        <ele>394</ele>
        <time>2021-08-04T13:00:26Z</time>
      </trkpt>
      <trkpt lat="45.65562" lon="3.2362">
        <ele>393.3</ele>
        <time>2021-08-04T13:00:28Z</time>
      </trkpt>
      <trkpt lat="45.65559" lon="3.23611">
        <ele>393.1</ele>
        <time>2021-08-04T13:00:30Z</time>
      </trkpt>
      <trkpt lat="45.65557" lon="3.23603">
        <ele>393.2</ele>
        <time>2021-08-04T13:00:32Z</time>
      </trkpt>
      <trkpt lat="45.65552" lon="3.23594">
        <ele>392.4</ele>
        <time>2021-08-04T13:00:34Z</time>
      </trkpt>
      <trkpt lat="45.65548" lon="3.23586">
        <ele>391.7</ele>
        <time>2021-08-04T13:00:36Z</time>
      </trkpt>
      <trkpt lat="45.65545" lon="3.2358">
        <ele>391.2</ele>
        <time>2021-08-04T13:00:38Z</time>
      </trkpt>
      <trkpt lat="45.65541" lon="3.23576">
        <ele>390.1</ele>
        <time>2021-08-04T13:00:40Z</time>
      </trkpt>
      <trkpt lat="45.65538" lon="3.23574">
        <ele>389.3</ele>
        <time>2021-08-04T13:00:42Z</time>
      </trkpt>
      <trkpt lat="45.65536" lon="3.23573">
        <ele>388.6</ele>
        <time>2021-08-04T13:00:44Z</time>
      </trkpt>
      <trkpt lat="45.65534" lon="3.23573">
        <ele>388.1</ele>
        <time>2021-08-04T13:00:46Z</time>
      </trkpt>
      <trkpt lat="45.65534" lon="3.23574">
        <ele>388.2</ele>
        <time>2021-08-04T13:00:48Z</time>
      </trkpt>
      <trkpt lat="45.65534" lon="3.23574">
        <ele>388.1</ele>
        <time>2021-08-04T13:00:50Z</time>
      </trkpt>
      <trkpt lat="45.65534" lon="3.23574">
        <ele>388.2</ele>
        <time>2021-08-04T13:00:52Z</time>
      </trkpt>
      <trkpt lat="45.65534" lon="3.23573">
        <ele>388.2</ele>
        <time>2021-08-04T13:00:54Z</time>
      </trkpt>
      <trkpt lat="45.65535" lon="3.23605">
        <ele>387.1</ele>
        <time>2021-08-04T13:17:40Z</time>
      </trkpt>
      <trkpt lat="45.65535" lon="3.23619">
        <ele>386.6</ele>
        <time>2021-08-04T13:17:42Z</time>
      </trkpt>
      <trkpt lat="45.65536" lon="3.23634">
        <ele>386.3</ele>
        <time>2021-08-04T13:17:44Z</time>
      </trkpt>
      <trkpt lat="45.65538" lon="3.23648">
        <ele>386.2</ele>
        <time>2021-08-04T13:17:46Z</time>
      </trkpt>
      <trkpt lat="45.65541" lon="3.23657">
        <ele>386.4</ele>
        <time>2021-08-04T13:17:48Z</time>
      </trkpt>
      <trkpt lat="45.65544" lon="3.23663">
        <ele>386.6</ele>
        <time>2021-08-04T13:17:50Z</time>
      </trkpt>
      <trkpt lat="45.65547" lon="3.23671">
        <ele>386.9</ele>
        <time>2021-08-04T13:17:52Z</time>
      </trkpt>
      <trkpt lat="45.65551" lon="3.23677">
        <ele>387.6</ele>
        <time>2021-08-04T13:17:54Z</time>
      </trkpt>
      <trkpt lat="45.65554" lon="3.23686">
        <ele>388.1</ele>
        <time>2021-08-04T13:17:56Z</time>
      </trkpt>
      <trkpt lat="45.65557" lon="3.23693">
        <ele>388.5</ele>
        <time>2021-08-04T13:17:58Z</time>
      </trkpt>
      <trkpt lat="45.65559" lon="3.23701">
        <ele>388.7</ele>
        <time>2021-08-04T13:18:00Z</time>
      </trkpt>
      <trkpt lat="45.6556" lon="3.2371">
        <ele>388.7</ele>
        <time>2021-08-04T13:18:02Z</time>
      </trkpt>
      <trkpt lat="45.65561" lon="3.23719">
        <ele>388.6</ele>
        <time>2021-08-04T13:18:04Z</time>
      </trkpt>
      <trkpt lat="45.65562" lon="3.23727">
        <ele>388.5</ele>
        <time>2021-08-04T13:18:06Z</time>
      </trkpt>
      <trkpt lat="45.65563" lon="3.23736">
        <ele>388.4</ele>
        <time>2021-08-04T13:18:08Z</time>
      </trkpt>
      <trkpt lat="45.65561" lon="3.23744">
        <ele>388</ele>
        <time>2021-08-04T13:18:10Z</time>
      </trkpt>
      <trkpt lat="45.65559" lon="3.23753">
        <ele>387.8</ele>
        <time>2021-08-04T13:18:12Z</time>
      </trkpt>
      <trkpt lat="45.65558" lon="3.23761">
        <ele>388</ele>
        <time>2021-08-04T13:18:14Z</time>
      </trkpt>
      <trkpt lat="45.65555" lon="3.23769">
        <ele>388.1</ele>
        <time>2021-08-04T13:18:16Z</time>
      </trkpt>
      <trkpt lat="45.65552" lon="3.23777">
        <ele>388.2</ele>
        <time>2021-08-04T13:18:18Z</time>
      </trkpt>
      <trkpt lat="45.6555" lon="3.23785">
        <ele>388.3</ele>
        <time>2021-08-04T13:18:20Z</time>
      </trkpt>
      <trkpt lat="45.65547" lon="3.23792">
        <ele>388.4</ele>
        <time>2021-08-04T13:18:22Z</time>
      </trkpt>
      <trkpt lat="45.65544" lon="3.23799">
        <ele>388.5</ele>
        <time>2021-08-04T13:18:24Z</time>
      </trkpt>
      <trkpt lat="45.65541" lon="3.23804">
        <ele>388.5</ele>
        <time>2021-08-04T13:18:26Z</time>
      </trkpt>
      <trkpt lat="45.65539" lon="3.23811">
        <ele>388.7</ele>
        <time>2021-08-04T13:18:28Z</time>
      </trkpt>
      <trkpt lat="45.65537" lon="3.23819">
        <ele>389</ele>
        <time>2021-08-04T13:18:30Z</time>
      </trkpt>
      <trkpt lat="45.65536" lon="3.23826">
        <ele>389.2</ele>
        <time>2021-08-04T13:18:32Z</time>
      </trkpt>
      <trkpt lat="45.65533" lon="3.23833">
        <ele>389.4</ele>
        <time>2021-08-04T13:18:34Z</time>
      </trkpt>
      <trkpt lat="45.65531" lon="3.23841">
        <ele>389.7</ele>
        <time>2021-08-04T13:18:36Z</time>
      </trkpt>
      <trkpt lat="45.65529" lon="3.23848">
        <ele>390</ele>
        <time>2021-08-04T13:18:38Z</time>
      </trkpt>
      <trkpt lat="45.65527" lon="3.23854">
        <ele>390.2</ele>
        <time>2021-08-04T13:18:40Z</time>
      </trkpt>
      <trkpt lat="45.65524" lon="3.23862">
        <ele>390.3</ele>
        <time>2021-08-04T13:18:42Z</time>
      </trkpt>
      <trkpt lat="45.65522" lon="3.23869">
        <ele>390.5</ele>
        <time>2021-08-04T13:18:44Z</time>
      </trkpt>
      <trkpt lat="45.65519" lon="3.23876">
        <ele>390.5</ele>
        <time>2021-08-04T13:18:46Z</time>
      </trkpt>
      <trkpt lat="45.65515" lon="3.23882">
        <ele>390.5</ele>
        <time>2021-08-04T13:18:48Z</time>
      </trkpt>
      <trkpt lat="45.65512" lon="3.23889">
        <ele>390.4</ele>
        <time>2021-08-04T13:18:50Z</time>
      </trkpt>
      <trkpt lat="45.65509" lon="3.23895">
        <ele>390.3</ele>
        <time>2021-08-04T13:18:52Z</time>
      </trkpt>
      <trkpt lat="45.65506" lon="3.23901">
        <ele>390.3</ele>
        <time>2021-08-04T13:18:54Z</time>
      </trkpt>
      <trkpt lat="45.65505" lon="3.23907">
        <ele>390.3</ele>
        <time>2021-08-04T13:18:56Z</time>
      </trkpt>
      <trkpt lat="45.65504" lon="3.23914">
        <ele>390.4</ele>
        <time>2021-08-04T13:18:58Z</time>
      </trkpt>
      <trkpt lat="45.65502" lon="3.2392">
        <ele>390.2</ele>
        <time>2021-08-04T13:19:00Z</time>
      </trkpt>
      <trkpt lat="45.655" lon="3.23926">
        <ele>390</ele>
        <time>2021-08-04T13:19:02Z</time>
      </trkpt>
      <trkpt lat="45.65498" lon="3.23932">
        <ele>390.4</ele>
        <time>2021-08-04T13:19:04Z</time>
      </trkpt>
      <trkpt lat="45.65496" lon="3.23936">
        <ele>390.8</ele>
        <time>2021-08-04T13:19:06Z</time>
      </trkpt>
      <trkpt lat="45.65495" lon="3.2394">
        <ele>391</ele>
        <time>2021-08-04T13:19:08Z</time>
      </trkpt>
      <trkpt lat="45.65494" lon="3.23945">
        <ele>391.2</ele>
        <time>2021-08-04T13:19:10Z</time>
      </trkpt>
      <trkpt lat="45.65492" lon="3.23948">
        <ele>391.5</ele>
        <time>2021-08-04T13:19:12Z</time>
      </trkpt>
      <trkpt lat="45.65491" lon="3.23952">
        <ele>391.7</ele>
        <time>2021-08-04T13:19:14Z</time>
      </trkpt>
      <trkpt lat="45.65492" lon="3.23956">
        <ele>391.5</ele>
        <time>2021-08-04T13:19:16Z</time>
      </trkpt>
      <trkpt lat="45.65491" lon="3.23961">
        <ele>391.6</ele>
        <time>2021-08-04T13:19:18Z</time>
      </trkpt>
      <trkpt lat="45.6549" lon="3.23965">
        <ele>391.8</ele>
        <time>2021-08-04T13:19:20Z</time>
      </trkpt>
      <trkpt lat="45.65488" lon="3.23967">
        <ele>392.2</ele>
        <time>2021-08-04T13:19:22Z</time>
      </trkpt>
      <trkpt lat="45.65485" lon="3.23969">
        <ele>392.7</ele>
        <time>2021-08-04T13:19:24Z</time>
      </trkpt>
      <trkpt lat="45.65482" lon="3.23969">
        <ele>393.1</ele>
        <time>2021-08-04T13:19:26Z</time>
      </trkpt>
      <trkpt lat="45.65481" lon="3.23969">
        <ele>393.4</ele>
        <time>2021-08-04T13:19:28Z</time>
      </trkpt>
      <trkpt lat="45.6548" lon="3.23972">
        <ele>393.5</ele>
        <time>2021-08-04T13:19:30Z</time>
      </trkpt>
      <trkpt lat="45.65481" lon="3.23974">
        <ele>393.3</ele>
        <time>2021-08-04T13:19:32Z</time>
      </trkpt>
      <trkpt lat="45.65484" lon="3.23976">
        <ele>392.8</ele>
        <time>2021-08-04T13:19:34Z</time>
      </trkpt>
      <trkpt lat="45.65485" lon="3.23974">
        <ele>392.6</ele>
        <time>2021-08-04T13:19:36Z</time>
      </trkpt>
      <trkpt lat="45.65486" lon="3.23971">
        <ele>392.4</ele>
        <time>2021-08-04T13:19:38Z</time>
      </trkpt>
      <trkpt lat="45.65487" lon="3.23968">
        <ele>392.3</ele>
        <time>2021-08-04T13:19:40Z</time>
      </trkpt>
      <trkpt lat="45.6549" lon="3.2397">
        <ele>391.9</ele>
        <time>2021-08-04T13:19:42Z</time>
      </trkpt>
      <trkpt lat="45.65491" lon="3.23975">
        <ele>391.6</ele>
        <time>2021-08-04T13:19:44Z</time>
      </trkpt>
      <trkpt lat="45.65489" lon="3.23977">
        <ele>391.8</ele>
        <time>2021-08-04T13:19:46Z</time>
      </trkpt>
      <trkpt lat="45.65487" lon="3.23976">
        <ele>392.3</ele>
        <time>2021-08-04T13:19:48Z</time>
      </trkpt>
      <trkpt lat="45.65485" lon="3.23974">
        <ele>392.7</ele>
        <time>2021-08-04T13:19:50Z</time>
      </trkpt>
      <trkpt lat="45.65484" lon="3.23971">
        <ele>392.9</ele>
        <time>2021-08-04T13:19:52Z</time>
      </trkpt>
      <trkpt lat="45.65484" lon="3.23971">
        <ele>392.9</ele>
        <time>2021-08-04T13:19:54Z</time>
      </trkpt>
      <trkpt lat="45.65483" lon="3.23971">
        <ele>393</ele>
        <time>2021-08-04T13:19:56Z</time>
      </trkpt>
      <trkpt lat="45.65483" lon="3.2397">
        <ele>393.1</ele>
        <time>2021-08-04T13:19:58Z</time>
      </trkpt>
      <trkpt lat="45.65488" lon="3.23969">
        <ele>392.1</ele>
        <time>2021-08-04T13:21:32Z</time>
      </trkpt>
      <trkpt lat="45.65485" lon="3.23964">
        <ele>392.6</ele>
        <time>2021-08-04T13:21:34Z</time>
      </trkpt>
      <trkpt lat="45.65483" lon="3.23962">
        <ele>393</ele>
        <time>2021-08-04T13:21:36Z</time>
      </trkpt>
      <trkpt lat="45.65481" lon="3.23962">
        <ele>393.4</ele>
        <time>2021-08-04T13:21:38Z</time>
      </trkpt>
      <trkpt lat="45.65481" lon="3.23966">
        <ele>393.4</ele>
        <time>2021-08-04T13:21:40Z</time>
      </trkpt>
      <trkpt lat="45.65481" lon="3.23969">
        <ele>393.4</ele>
        <time>2021-08-04T13:21:42Z</time>
      </trkpt>
      <trkpt lat="45.6548" lon="3.23971">
        <ele>393.5</ele>
        <time>2021-08-04T13:21:44Z</time>
      </trkpt>
      <trkpt lat="45.65481" lon="3.23973">
        <ele>393.3</ele>
        <time>2021-08-04T13:21:46Z</time>
      </trkpt>
      <trkpt lat="45.65483" lon="3.23976">
        <ele>392.9</ele>
        <time>2021-08-04T13:21:48Z</time>
      </trkpt>
      <trkpt lat="45.65486" lon="3.23977">
        <ele>392.5</ele>
        <time>2021-08-04T13:21:50Z</time>
      </trkpt>
      <trkpt lat="45.65486" lon="3.23976">
        <ele>392.4</ele>
        <time>2021-08-04T13:21:52Z</time>
      </trkpt>
      <trkpt lat="45.65486" lon="3.23976">
        <ele>392.5</ele>
        <time>2021-08-04T13:21:54Z</time>
      </trkpt>
      <trkpt lat="45.65485" lon="3.23976">
        <ele>392.6</ele>
        <time>2021-08-04T13:21:56Z</time>
      </trkpt>
      <trkpt lat="45.65485" lon="3.23976">
        <ele>392.6</ele>
        <time>2021-08-04T13:21:58Z</time>
      </trkpt>
      <trkpt lat="45.65485" lon="3.23975">
        <ele>392.7</ele>
        <time>2021-08-04T13:22:00Z</time>
      </trkpt>
      <trkpt lat="45.65485" lon="3.23953">
        <ele>392.8</ele>
        <time>2021-08-04T13:22:28Z</time>
      </trkpt>
      <trkpt lat="45.65486" lon="3.23946">
        <ele>392.8</ele>
        <time>2021-08-04T13:22:30Z</time>
      </trkpt>
      <trkpt lat="45.65487" lon="3.2394">
        <ele>392.7</ele>
        <time>2021-08-04T13:22:32Z</time>
      </trkpt>
      <trkpt lat="45.65488" lon="3.23935">
        <ele>392.5</ele>
        <time>2021-08-04T13:22:34Z</time>
      </trkpt>
      <trkpt lat="45.65489" lon="3.23929">
        <ele>392.2</ele>
        <time>2021-08-04T13:22:36Z</time>
      </trkpt>
      <trkpt lat="45.6549" lon="3.23923">
        <ele>392.1</ele>
        <time>2021-08-04T13:22:38Z</time>
      </trkpt>
      <trkpt lat="45.65491" lon="3.23919">
        <ele>391.9</ele>
        <time>2021-08-04T13:22:40Z</time>
      </trkpt>
      <trkpt lat="45.65492" lon="3.23914">
        <ele>391.7</ele>
        <time>2021-08-04T13:22:42Z</time>
      </trkpt>
      <trkpt lat="45.65493" lon="3.23909">
        <ele>391.2</ele>
        <time>2021-08-04T13:22:44Z</time>
      </trkpt>
      <trkpt lat="45.65494" lon="3.23904">
        <ele>390.7</ele>
        <time>2021-08-04T13:22:46Z</time>
      </trkpt>
      <trkpt lat="45.65495" lon="3.23899">
        <ele>390.4</ele>
        <time>2021-08-04T13:22:48Z</time>
      </trkpt>
      <trkpt lat="45.65496" lon="3.23894">
        <ele>390.1</ele>
        <time>2021-08-04T13:22:50Z</time>
      </trkpt>
      <trkpt lat="45.65497" lon="3.23888">
        <ele>389.7</ele>
        <time>2021-08-04T13:22:52Z</time>
      </trkpt>
      <trkpt lat="45.65497" lon="3.23883">
        <ele>389.3</ele>
        <time>2021-08-04T13:22:54Z</time>
      </trkpt>
      <trkpt lat="45.65498" lon="3.23878">
        <ele>389</ele>
        <time>2021-08-04T13:22:56Z</time>
      </trkpt>
      <trkpt lat="45.65499" lon="3.23873">
        <ele>388.6</ele>
        <time>2021-08-04T13:22:58Z</time>
      </trkpt>
      <trkpt lat="45.655" lon="3.23867">
        <ele>388.2</ele>
        <time>2021-08-04T13:23:00Z</time>
      </trkpt>
      <trkpt lat="45.65501" lon="3.23861">
        <ele>388.1</ele>
        <time>2021-08-04T13:23:02Z</time>
      </trkpt>
      <trkpt lat="45.65502" lon="3.23856">
        <ele>388</ele>
        <time>2021-08-04T13:23:04Z</time>
      </trkpt>
      <trkpt lat="45.65502" lon="3.23851">
        <ele>387.8</ele>
        <time>2021-08-04T13:23:06Z</time>
      </trkpt>
      <trkpt lat="45.65503" lon="3.23845">
        <ele>387.7</ele>
        <time>2021-08-04T13:23:08Z</time>
      </trkpt>
      <trkpt lat="45.65504" lon="3.2384">
        <ele>387.5</ele>
        <time>2021-08-04T13:23:10Z</time>
      </trkpt>
      <trkpt lat="45.65503" lon="3.23834">
        <ele>387.3</ele>
        <time>2021-08-04T13:23:12Z</time>
      </trkpt>
      <trkpt lat="45.65503" lon="3.23828">
        <ele>386.9</ele>
        <time>2021-08-04T13:23:14Z</time>
      </trkpt>
      <trkpt lat="45.65502" lon="3.23823">
        <ele>386.5</ele>
        <time>2021-08-04T13:23:16Z</time>
      </trkpt>
      <trkpt lat="45.65502" lon="3.23817">
        <ele>386.2</ele>
        <time>2021-08-04T13:23:18Z</time>
      </trkpt>
      <trkpt lat="45.65501" lon="3.23812">
        <ele>385.7</ele>
        <time>2021-08-04T13:23:20Z</time>
      </trkpt>
      <trkpt lat="45.65499" lon="3.23806">
        <ele>385.7</ele>
        <time>2021-08-04T13:23:22Z</time>
      </trkpt>
      <trkpt lat="45.65496" lon="3.23801">
        <ele>385.9</ele>
        <time>2021-08-04T13:23:24Z</time>
      </trkpt>
      <trkpt lat="45.65494" lon="3.23797">
        <ele>386.1</ele>
        <time>2021-08-04T13:23:26Z</time>
      </trkpt>
      <trkpt lat="45.65491" lon="3.23793">
        <ele>386.5</ele>
        <time>2021-08-04T13:23:28Z</time>
      </trkpt>
      <trkpt lat="45.65487" lon="3.23789">
        <ele>386.9</ele>
        <time>2021-08-04T13:23:30Z</time>
      </trkpt>
      <trkpt lat="45.65484" lon="3.23785">
        <ele>387.4</ele>
        <time>2021-08-04T13:23:32Z</time>
      </trkpt>
      <trkpt lat="45.6548" lon="3.23781">
        <ele>387.9</ele>
        <time>2021-08-04T13:23:34Z</time>
      </trkpt>
      <trkpt lat="45.65477" lon="3.23777">
        <ele>388.3</ele>
        <time>2021-08-04T13:23:36Z</time>
      </trkpt>
      <trkpt lat="45.65473" lon="3.23774">
        <ele>388.9</ele>
        <time>2021-08-04T13:23:38Z</time>
      </trkpt>
      <trkpt lat="45.6547" lon="3.23769">
        <ele>389.3</ele>
        <time>2021-08-04T13:23:40Z</time>
      </trkpt>
      <trkpt lat="45.65466" lon="3.23765">
        <ele>389.8</ele>
        <time>2021-08-04T13:23:42Z</time>
      </trkpt>
      <trkpt lat="45.65463" lon="3.23761">
        <ele>390.2</ele>
        <time>2021-08-04T13:23:44Z</time>
      </trkpt>
      <trkpt lat="45.6546" lon="3.23756">
        <ele>390.4</ele>
        <time>2021-08-04T13:23:46Z</time>
      </trkpt>
      <trkpt lat="45.65458" lon="3.23751">
        <ele>390.7</ele>
        <time>2021-08-04T13:23:48Z</time>
      </trkpt>
      <trkpt lat="45.65455" lon="3.23746">
        <ele>390.9</ele>
        <time>2021-08-04T13:23:50Z</time>
      </trkpt>
      <trkpt lat="45.65452" lon="3.23742">
        <ele>391.1</ele>
        <time>2021-08-04T13:23:52Z</time>
      </trkpt>
      <trkpt lat="45.65451" lon="3.23737">
        <ele>391.1</ele>
        <time>2021-08-04T13:23:54Z</time>
      </trkpt>
      <trkpt lat="45.65449" lon="3.23733">
        <ele>391.1</ele>
        <time>2021-08-04T13:23:56Z</time>
      </trkpt>
      <trkpt lat="45.65448" lon="3.2373">
        <ele>391.3</ele>
        <time>2021-08-04T13:23:58Z</time>
      </trkpt>
      <trkpt lat="45.65447" lon="3.23727">
        <ele>391.2</ele>
        <time>2021-08-04T13:24:00Z</time>
      </trkpt>
      <trkpt lat="45.65447" lon="3.23724">
        <ele>391</ele>
        <time>2021-08-04T13:24:02Z</time>
      </trkpt>
      <trkpt lat="45.65446" lon="3.23725">
        <ele>391.2</ele>
        <time>2021-08-04T13:24:04Z</time>
      </trkpt>
      <trkpt lat="45.65446" lon="3.23724">
        <ele>391.1</ele>
        <time>2021-08-04T13:24:06Z</time>
      </trkpt>
      <trkpt lat="45.65447" lon="3.23724">
        <ele>391.1</ele>
        <time>2021-08-04T13:24:08Z</time>
      </trkpt>
      <trkpt lat="45.65446" lon="3.23724">
        <ele>391.1</ele>
        <time>2021-08-04T13:24:10Z</time>
      </trkpt>
      <trkpt lat="45.65435" lon="3.23713">
        <ele>392.4</ele>
        <time>2021-08-04T13:25:08Z</time>
      </trkpt>
      <trkpt lat="45.65432" lon="3.23709">
        <ele>392.7</ele>
        <time>2021-08-04T13:25:10Z</time>
      </trkpt>
      <trkpt lat="45.65428" lon="3.23706">
        <ele>393.1</ele>
        <time>2021-08-04T13:25:12Z</time>
      </trkpt>
      <trkpt lat="45.65425" lon="3.23704">
        <ele>393.7</ele>
        <time>2021-08-04T13:25:14Z</time>
      </trkpt>
      <trkpt lat="45.65421" lon="3.23702">
        <ele>394.1</ele>
        <time>2021-08-04T13:25:16Z</time>
      </trkpt>
      <trkpt lat="45.65417" lon="3.237">
        <ele>394.7</ele>
        <time>2021-08-04T13:25:18Z</time>
      </trkpt>
      <trkpt lat="45.65413" lon="3.23698">
        <ele>395.4</ele>
        <time>2021-08-04T13:25:20Z</time>
      </trkpt>
      <trkpt lat="45.6541" lon="3.23697">
        <ele>396.1</ele>
        <time>2021-08-04T13:25:22Z</time>
      </trkpt>
      <trkpt lat="45.65406" lon="3.23696">
        <ele>396.7</ele>
        <time>2021-08-04T13:25:24Z</time>
      </trkpt>
      <trkpt lat="45.65403" lon="3.23695">
        <ele>397.4</ele>
        <time>2021-08-04T13:25:26Z</time>
      </trkpt>
      <trkpt lat="45.65399" lon="3.23695">
        <ele>398.2</ele>
        <time>2021-08-04T13:25:28Z</time>
      </trkpt>
      <trkpt lat="45.65396" lon="3.23695">
        <ele>398.9</ele>
        <time>2021-08-04T13:25:30Z</time>
      </trkpt>
      <trkpt lat="45.65394" lon="3.23699">
        <ele>399.7</ele>
        <time>2021-08-04T13:25:32Z</time>
      </trkpt>
      <trkpt lat="45.65394" lon="3.23705">
        <ele>400.2</ele>
        <time>2021-08-04T13:25:34Z</time>
      </trkpt>
      <trkpt lat="45.65393" lon="3.2371">
        <ele>400.6</ele>
        <time>2021-08-04T13:25:36Z</time>
      </trkpt>
      <trkpt lat="45.65394" lon="3.23715">
        <ele>401</ele>
        <time>2021-08-04T13:25:38Z</time>
      </trkpt>
      <trkpt lat="45.65395" lon="3.23721">
        <ele>401.2</ele>
        <time>2021-08-04T13:25:40Z</time>
      </trkpt>
      <trkpt lat="45.65396" lon="3.23726">
        <ele>401.3</ele>
        <time>2021-08-04T13:25:42Z</time>
      </trkpt>
      <trkpt lat="45.65397" lon="3.23731">
        <ele>401.5</ele>
        <time>2021-08-04T13:25:44Z</time>
      </trkpt>
      <trkpt lat="45.65398" lon="3.23737">
        <ele>401.7</ele>
        <time>2021-08-04T13:25:46Z</time>
      </trkpt>
      <trkpt lat="45.65399" lon="3.23742">
        <ele>401.9</ele>
        <time>2021-08-04T13:25:48Z</time>
      </trkpt>
      <trkpt lat="45.654" lon="3.23747">
        <ele>402.2</ele>
        <time>2021-08-04T13:25:50Z</time>
      </trkpt>
      <trkpt lat="45.65402" lon="3.23753">
        <ele>402.2</ele>
        <time>2021-08-04T13:25:52Z</time>
      </trkpt>
      <trkpt lat="45.65403" lon="3.23758">
        <ele>402.3</ele>
        <time>2021-08-04T13:25:54Z</time>
      </trkpt>
      <trkpt lat="45.65404" lon="3.23764">
        <ele>402.3</ele>
        <time>2021-08-04T13:25:56Z</time>
      </trkpt>
      <trkpt lat="45.65405" lon="3.23769">
        <ele>402.4</ele>
        <time>2021-08-04T13:25:58Z</time>
      </trkpt>
      <trkpt lat="45.65406" lon="3.23775">
        <ele>402.5</ele>
        <time>2021-08-04T13:26:00Z</time>
      </trkpt>
      <trkpt lat="45.65408" lon="3.2378">
        <ele>402.4</ele>
        <time>2021-08-04T13:26:02Z</time>
      </trkpt>
      <trkpt lat="45.65409" lon="3.23785">
        <ele>402.5</ele>
        <time>2021-08-04T13:26:04Z</time>
      </trkpt>
      <trkpt lat="45.65411" lon="3.2379">
        <ele>402.5</ele>
        <time>2021-08-04T13:26:06Z</time>
      </trkpt>
      <trkpt lat="45.65412" lon="3.23796">
        <ele>402.7</ele>
        <time>2021-08-04T13:26:08Z</time>
      </trkpt>
      <trkpt lat="45.65413" lon="3.238">
        <ele>402.7</ele>
        <time>2021-08-04T13:26:10Z</time>
      </trkpt>
      <trkpt lat="45.65415" lon="3.23805">
        <ele>402.7</ele>
        <time>2021-08-04T13:26:12Z</time>
      </trkpt>
      <trkpt lat="45.65416" lon="3.2381">
        <ele>402.8</ele>
        <time>2021-08-04T13:26:14Z</time>
      </trkpt>
      <trkpt lat="45.65417" lon="3.23815">
        <ele>402.9</ele>
        <time>2021-08-04T13:26:16Z</time>
      </trkpt>
      <trkpt lat="45.65418" lon="3.2382">
        <ele>402.9</ele>
        <time>2021-08-04T13:26:18Z</time>
      </trkpt>
      <trkpt lat="45.6542" lon="3.23825">
        <ele>402.8</ele>
        <time>2021-08-04T13:26:20Z</time>
      </trkpt>
      <trkpt lat="45.65421" lon="3.23829">
        <ele>402.8</ele>
        <time>2021-08-04T13:26:22Z</time>
      </trkpt>
      <trkpt lat="45.65422" lon="3.23833">
        <ele>403</ele>
        <time>2021-08-04T13:26:24Z</time>
      </trkpt>
      <trkpt lat="45.65423" lon="3.23838">
        <ele>402.9</ele>
        <time>2021-08-04T13:26:26Z</time>
      </trkpt>
      <trkpt lat="45.65424" lon="3.23842">
        <ele>402.8</ele>
        <time>2021-08-04T13:26:28Z</time>
      </trkpt>
      <trkpt lat="45.65425" lon="3.23847">
        <ele>402.9</ele>
        <time>2021-08-04T13:26:30Z</time>
      </trkpt>
      <trkpt lat="45.65426" lon="3.23852">
        <ele>402.9</ele>
        <time>2021-08-04T13:26:32Z</time>
      </trkpt>
      <trkpt lat="45.65427" lon="3.23857">
        <ele>403</ele>
        <time>2021-08-04T13:26:34Z</time>
      </trkpt>
      <trkpt lat="45.65428" lon="3.23862">
        <ele>403</ele>
        <time>2021-08-04T13:26:36Z</time>
      </trkpt>
      <trkpt lat="45.65429" lon="3.23867">
        <ele>403.1</ele>
        <time>2021-08-04T13:26:38Z</time>
      </trkpt>
      <trkpt lat="45.65429" lon="3.23872">
        <ele>403.2</ele>
        <time>2021-08-04T13:26:40Z</time>
      </trkpt>
      <trkpt lat="45.65429" lon="3.23876">
        <ele>403.4</ele>
        <time>2021-08-04T13:26:42Z</time>
      </trkpt>
      <trkpt lat="45.6543" lon="3.23881">
        <ele>403.5</ele>
        <time>2021-08-04T13:26:44Z</time>
      </trkpt>
      <trkpt lat="45.6543" lon="3.23886">
        <ele>403.7</ele>
        <time>2021-08-04T13:26:46Z</time>
      </trkpt>
      <trkpt lat="45.6543" lon="3.23891">
        <ele>403.9</ele>
        <time>2021-08-04T13:26:48Z</time>
      </trkpt>
      <trkpt lat="45.6543" lon="3.23895">
        <ele>404.2</ele>
        <time>2021-08-04T13:26:50Z</time>
      </trkpt>
      <trkpt lat="45.65429" lon="3.23901">
        <ele>404.6</ele>
        <time>2021-08-04T13:26:52Z</time>
      </trkpt>
      <trkpt lat="45.65428" lon="3.23906">
        <ele>405</ele>
        <time>2021-08-04T13:26:54Z</time>
      </trkpt>
      <trkpt lat="45.65427" lon="3.23911">
        <ele>405.5</ele>
        <time>2021-08-04T13:26:56Z</time>
      </trkpt>
      <trkpt lat="45.65426" lon="3.23916">
        <ele>405.9</ele>
        <time>2021-08-04T13:26:58Z</time>
      </trkpt>
      <trkpt lat="45.65425" lon="3.23921">
        <ele>406</ele>
        <time>2021-08-04T13:27:00Z</time>
      </trkpt>
      <trkpt lat="45.65424" lon="3.23926">
        <ele>406</ele>
        <time>2021-08-04T13:27:02Z</time>
      </trkpt>
      <trkpt lat="45.65422" lon="3.2393">
        <ele>406</ele>
        <time>2021-08-04T13:27:04Z</time>
      </trkpt>
      <trkpt lat="45.6542" lon="3.23935">
        <ele>406.2</ele>
        <time>2021-08-04T13:27:06Z</time>
      </trkpt>
      <trkpt lat="45.65418" lon="3.23939">
        <ele>406.3</ele>
        <time>2021-08-04T13:27:08Z</time>
      </trkpt>
      <trkpt lat="45.65417" lon="3.23944">
        <ele>406.4</ele>
        <time>2021-08-04T13:27:10Z</time>
      </trkpt>
      <trkpt lat="45.65414" lon="3.23948">
        <ele>406.5</ele>
        <time>2021-08-04T13:27:12Z</time>
      </trkpt>
      <trkpt lat="45.65412" lon="3.23952">
        <ele>406.7</ele>
        <time>2021-08-04T13:27:14Z</time>
      </trkpt>
      <trkpt lat="45.65409" lon="3.23956">
        <ele>406.9</ele>
        <time>2021-08-04T13:27:16Z</time>
      </trkpt>
      <trkpt lat="45.65407" lon="3.2396">
        <ele>407.1</ele>
        <time>2021-08-04T13:27:18Z</time>
      </trkpt>
      <trkpt lat="45.65405" lon="3.23963">
        <ele>407.4</ele>
        <time>2021-08-04T13:27:20Z</time>
      </trkpt>
      <trkpt lat="45.65402" lon="3.23967">
        <ele>407.6</ele>
        <time>2021-08-04T13:27:22Z</time>
      </trkpt>
      <trkpt lat="45.654" lon="3.23971">
        <ele>407.8</ele>
        <time>2021-08-04T13:27:24Z</time>
      </trkpt>
      <trkpt lat="45.65398" lon="3.23974">
        <ele>408.1</ele>
        <time>2021-08-04T13:27:26Z</time>
      </trkpt>
      <trkpt lat="45.65395" lon="3.23978">
        <ele>408.5</ele>
        <time>2021-08-04T13:27:28Z</time>
      </trkpt>
      <trkpt lat="45.65393" lon="3.23981">
        <ele>408.9</ele>
        <time>2021-08-04T13:27:30Z</time>
      </trkpt>
      <trkpt lat="45.6539" lon="3.23984">
        <ele>409.3</ele>
        <time>2021-08-04T13:27:32Z</time>
      </trkpt>
      <trkpt lat="45.65387" lon="3.23988">
        <ele>409.7</ele>
        <time>2021-08-04T13:27:34Z</time>
      </trkpt>
      <trkpt lat="45.65385" lon="3.23992">
        <ele>410.1</ele>
        <time>2021-08-04T13:27:36Z</time>
      </trkpt>
      <trkpt lat="45.65383" lon="3.23995">
        <ele>410.5</ele>
        <time>2021-08-04T13:27:38Z</time>
      </trkpt>
      <trkpt lat="45.6538" lon="3.23999">
        <ele>411</ele>
        <time>2021-08-04T13:27:40Z</time>
      </trkpt>
      <trkpt lat="45.65377" lon="3.24002">
        <ele>411.5</ele>
        <time>2021-08-04T13:27:42Z</time>
      </trkpt>
      <trkpt lat="45.65375" lon="3.24006">
        <ele>412</ele>
        <time>2021-08-04T13:27:44Z</time>
      </trkpt>
      <trkpt lat="45.65372" lon="3.24009">
        <ele>412.5</ele>
        <time>2021-08-04T13:27:46Z</time>
      </trkpt>
      <trkpt lat="45.6537" lon="3.24013">
        <ele>413</ele>
        <time>2021-08-04T13:27:48Z</time>
      </trkpt>
      <trkpt lat="45.65367" lon="3.24016">
        <ele>413.6</ele>
        <time>2021-08-04T13:27:50Z</time>
      </trkpt>
      <trkpt lat="45.65365" lon="3.2402">
        <ele>414.1</ele>
        <time>2021-08-04T13:27:52Z</time>
      </trkpt>
      <trkpt lat="45.65362" lon="3.24024">
        <ele>414.7</ele>
        <time>2021-08-04T13:27:54Z</time>
      </trkpt>
      <trkpt lat="45.6536" lon="3.24027">
        <ele>415.4</ele>
        <time>2021-08-04T13:27:56Z</time>
      </trkpt>
      <trkpt lat="45.65357" lon="3.24032">
        <ele>416</ele>
        <time>2021-08-04T13:27:58Z</time>
      </trkpt>
      <trkpt lat="45.65355" lon="3.24036">
        <ele>416.6</ele>
        <time>2021-08-04T13:28:00Z</time>
      </trkpt>
      <trkpt lat="45.65352" lon="3.24039">
        <ele>417.3</ele>
        <time>2021-08-04T13:28:02Z</time>
      </trkpt>
      <trkpt lat="45.6535" lon="3.24043">
        <ele>418</ele>
        <time>2021-08-04T13:28:04Z</time>
      </trkpt>
      <trkpt lat="45.65348" lon="3.24048">
        <ele>418.6</ele>
        <time>2021-08-04T13:28:06Z</time>
      </trkpt>
      <trkpt lat="45.65346" lon="3.24053">
        <ele>419.3</ele>
        <time>2021-08-04T13:28:08Z</time>
      </trkpt>
      <trkpt lat="45.65344" lon="3.24058">
        <ele>419.9</ele>
        <time>2021-08-04T13:28:10Z</time>
      </trkpt>
      <trkpt lat="45.65343" lon="3.24062">
        <ele>420.4</ele>
        <time>2021-08-04T13:28:12Z</time>
      </trkpt>
      <trkpt lat="45.65341" lon="3.24067">
        <ele>421</ele>
        <time>2021-08-04T13:28:14Z</time>
      </trkpt>
      <trkpt lat="45.65341" lon="3.24072">
        <ele>421.2</ele>
        <time>2021-08-04T13:28:16Z</time>
      </trkpt>
      <trkpt lat="45.65341" lon="3.24076">
        <ele>421.4</ele>
        <time>2021-08-04T13:28:18Z</time>
      </trkpt>
      <trkpt lat="45.65339" lon="3.24081">
        <ele>422</ele>
        <time>2021-08-04T13:28:20Z</time>
      </trkpt>
      <trkpt lat="45.65337" lon="3.24085">
        <ele>422.7</ele>
        <time>2021-08-04T13:28:22Z</time>
      </trkpt>
      <trkpt lat="45.65336" lon="3.2409">
        <ele>423</ele>
        <time>2021-08-04T13:28:24Z</time>
      </trkpt>
      <trkpt lat="45.65336" lon="3.24094">
        <ele>423.1</ele>
        <time>2021-08-04T13:28:26Z</time>
      </trkpt>
      <trkpt lat="45.65335" lon="3.24099">
        <ele>423.2</ele>
        <time>2021-08-04T13:28:28Z</time>
      </trkpt>
      <trkpt lat="45.65334" lon="3.24104">
        <ele>423.5</ele>
        <time>2021-08-04T13:28:30Z</time>
      </trkpt>
      <trkpt lat="45.65333" lon="3.24108">
        <ele>423.7</ele>
        <time>2021-08-04T13:28:32Z</time>
      </trkpt>
      <trkpt lat="45.65332" lon="3.24112">
        <ele>423.8</ele>
        <time>2021-08-04T13:28:34Z</time>
      </trkpt>
      <trkpt lat="45.65331" lon="3.24117">
        <ele>423.9</ele>
        <time>2021-08-04T13:28:36Z</time>
      </trkpt>
      <trkpt lat="45.6533" lon="3.24122">
        <ele>424.1</ele>
        <time>2021-08-04T13:28:38Z</time>
      </trkpt>
      <trkpt lat="45.6533" lon="3.24127">
        <ele>424.1</ele>
        <time>2021-08-04T13:28:40Z</time>
      </trkpt>
      <trkpt lat="45.65329" lon="3.24132">
        <ele>424.2</ele>
        <time>2021-08-04T13:28:42Z</time>
      </trkpt>
      <trkpt lat="45.65328" lon="3.24137">
        <ele>424.3</ele>
        <time>2021-08-04T13:28:44Z</time>
      </trkpt>
      <trkpt lat="45.65327" lon="3.24142">
        <ele>424.4</ele>
        <time>2021-08-04T13:28:46Z</time>
      </trkpt>
      <trkpt lat="45.65326" lon="3.24147">
        <ele>424.6</ele>
        <time>2021-08-04T13:28:48Z</time>
      </trkpt>
      <trkpt lat="45.65325" lon="3.24151">
        <ele>424.7</ele>
        <time>2021-08-04T13:28:50Z</time>
      </trkpt>
      <trkpt lat="45.65324" lon="3.24157">
        <ele>424.9</ele>
        <time>2021-08-04T13:28:52Z</time>
      </trkpt>
      <trkpt lat="45.65323" lon="3.24163">
        <ele>425</ele>
        <time>2021-08-04T13:28:54Z</time>
      </trkpt>
      <trkpt lat="45.65321" lon="3.24167">
        <ele>425.4</ele>
        <time>2021-08-04T13:28:56Z</time>
      </trkpt>
      <trkpt lat="45.65319" lon="3.24172">
        <ele>425.4</ele>
        <time>2021-08-04T13:28:58Z</time>
      </trkpt>
      <trkpt lat="45.65317" lon="3.24177">
        <ele>425.4</ele>
        <time>2021-08-04T13:29:00Z</time>
      </trkpt>
      <trkpt lat="45.65315" lon="3.24181">
        <ele>425.4</ele>
        <time>2021-08-04T13:29:02Z</time>
      </trkpt>
      <trkpt lat="45.65313" lon="3.24186">
        <ele>425.5</ele>
        <time>2021-08-04T13:29:04Z</time>
      </trkpt>
      <trkpt lat="45.65311" lon="3.24191">
        <ele>425.6</ele>
        <time>2021-08-04T13:29:06Z</time>
      </trkpt>
      <trkpt lat="45.65309" lon="3.24195">
        <ele>425.8</ele>
        <time>2021-08-04T13:29:08Z</time>
      </trkpt>
      <trkpt lat="45.65307" lon="3.242">
        <ele>425.9</ele>
        <time>2021-08-04T13:29:10Z</time>
      </trkpt>
      <trkpt lat="45.65305" lon="3.24204">
        <ele>426.1</ele>
        <time>2021-08-04T13:29:12Z</time>
      </trkpt>
      <trkpt lat="45.65303" lon="3.24208">
        <ele>426.2</ele>
        <time>2021-08-04T13:29:14Z</time>
      </trkpt>
      <trkpt lat="45.65301" lon="3.24213">
        <ele>426.4</ele>
        <time>2021-08-04T13:29:16Z</time>
      </trkpt>
      <trkpt lat="45.65299" lon="3.24216">
        <ele>426.6</ele>
        <time>2021-08-04T13:29:18Z</time>
      </trkpt>
      <trkpt lat="45.65297" lon="3.2422">
        <ele>426.9</ele>
        <time>2021-08-04T13:29:20Z</time>
      </trkpt>
      <trkpt lat="45.65294" lon="3.24225">
        <ele>427.2</ele>
        <time>2021-08-04T13:29:22Z</time>
      </trkpt>
      <trkpt lat="45.65292" lon="3.24229">
        <ele>427.5</ele>
        <time>2021-08-04T13:29:24Z</time>
      </trkpt>
      <trkpt lat="45.65289" lon="3.24233">
        <ele>428</ele>
        <time>2021-08-04T13:29:26Z</time>
      </trkpt>
      <trkpt lat="45.65286" lon="3.24236">
        <ele>428.5</ele>
        <time>2021-08-04T13:29:28Z</time>
      </trkpt>
      <trkpt lat="45.65283" lon="3.2424">
        <ele>429.1</ele>
        <time>2021-08-04T13:29:30Z</time>
      </trkpt>
      <trkpt lat="45.6528" lon="3.24242">
        <ele>429.8</ele>
        <time>2021-08-04T13:29:32Z</time>
      </trkpt>
      <trkpt lat="45.65277" lon="3.24245">
        <ele>430.4</ele>
        <time>2021-08-04T13:29:34Z</time>
      </trkpt>
      <trkpt lat="45.65274" lon="3.24248">
        <ele>431</ele>
        <time>2021-08-04T13:29:36Z</time>
      </trkpt>
      <trkpt lat="45.65271" lon="3.24251">
        <ele>431.8</ele>
        <time>2021-08-04T13:29:38Z</time>
      </trkpt>
      <trkpt lat="45.65267" lon="3.24253">
        <ele>432.6</ele>
        <time>2021-08-04T13:29:40Z</time>
      </trkpt>
      <trkpt lat="45.65263" lon="3.24255">
        <ele>433.3</ele>
        <time>2021-08-04T13:29:42Z</time>
      </trkpt>
      <trkpt lat="45.6526" lon="3.24258">
        <ele>434</ele>
        <time>2021-08-04T13:29:44Z</time>
      </trkpt>
      <trkpt lat="45.65256" lon="3.24259">
        <ele>434.8</ele>
        <time>2021-08-04T13:29:46Z</time>
      </trkpt>
      <trkpt lat="45.65253" lon="3.24261">
        <ele>435.6</ele>
        <time>2021-08-04T13:29:48Z</time>
      </trkpt>
      <trkpt lat="45.65249" lon="3.24264">
        <ele>436.2</ele>
        <time>2021-08-04T13:29:50Z</time>
      </trkpt>
      <trkpt lat="45.65246" lon="3.24266">
        <ele>436.5</ele>
        <time>2021-08-04T13:29:52Z</time>
      </trkpt>
      <trkpt lat="45.65243" lon="3.24269">
        <ele>436.7</ele>
        <time>2021-08-04T13:29:54Z</time>
      </trkpt>
      <trkpt lat="45.6524" lon="3.24273">
        <ele>436.8</ele>
        <time>2021-08-04T13:29:56Z</time>
      </trkpt>
      <trkpt lat="45.65237" lon="3.24277">
        <ele>436.9</ele>
        <time>2021-08-04T13:29:58Z</time>
      </trkpt>
      <trkpt lat="45.65235" lon="3.24281">
        <ele>437</ele>
        <time>2021-08-04T13:30:00Z</time>
      </trkpt>
      <trkpt lat="45.65232" lon="3.24284">
        <ele>437.1</ele>
        <time>2021-08-04T13:30:02Z</time>
      </trkpt>
      <trkpt lat="45.6523" lon="3.24288">
        <ele>437.1</ele>
        <time>2021-08-04T13:30:04Z</time>
      </trkpt>
      <trkpt lat="45.65229" lon="3.24293">
        <ele>437.1</ele>
        <time>2021-08-04T13:30:06Z</time>
      </trkpt>
      <trkpt lat="45.65228" lon="3.24297">
        <ele>437</ele>
        <time>2021-08-04T13:30:08Z</time>
      </trkpt>
      <trkpt lat="45.65228" lon="3.24301">
        <ele>436.8</ele>
        <time>2021-08-04T13:30:10Z</time>
      </trkpt>
      <trkpt lat="45.65226" lon="3.24306">
        <ele>436.9</ele>
        <time>2021-08-04T13:30:12Z</time>
      </trkpt>
      <trkpt lat="45.65226" lon="3.2431">
        <ele>436.6</ele>
        <time>2021-08-04T13:30:14Z</time>
      </trkpt>
      <trkpt lat="45.65225" lon="3.24314">
        <ele>436.5</ele>
        <time>2021-08-04T13:30:16Z</time>
      </trkpt>
      <trkpt lat="45.65225" lon="3.2432">
        <ele>436.3</ele>
        <time>2021-08-04T13:30:18Z</time>
      </trkpt>
      <trkpt lat="45.65225" lon="3.24324">
        <ele>436.1</ele>
        <time>2021-08-04T13:30:20Z</time>
      </trkpt>
      <trkpt lat="45.65223" lon="3.24328">
        <ele>436.1</ele>
        <time>2021-08-04T13:30:22Z</time>
      </trkpt>
      <trkpt lat="45.65224" lon="3.24333">
        <ele>435.8</ele>
        <time>2021-08-04T13:30:24Z</time>
      </trkpt>
      <trkpt lat="45.65223" lon="3.24337">
        <ele>436</ele>
        <time>2021-08-04T13:30:26Z</time>
      </trkpt>
      <trkpt lat="45.65223" lon="3.24342">
        <ele>436.1</ele>
        <time>2021-08-04T13:30:28Z</time>
      </trkpt>
      <trkpt lat="45.65223" lon="3.24347">
        <ele>436.2</ele>
        <time>2021-08-04T13:30:30Z</time>
      </trkpt>
      <trkpt lat="45.65223" lon="3.24351">
        <ele>436.4</ele>
        <time>2021-08-04T13:30:32Z</time>
      </trkpt>
      <trkpt lat="45.65223" lon="3.24356">
        <ele>436.5</ele>
        <time>2021-08-04T13:30:34Z</time>
      </trkpt>
      <trkpt lat="45.65224" lon="3.2436">
        <ele>436.5</ele>
        <time>2021-08-04T13:30:36Z</time>
      </trkpt>
      <trkpt lat="45.65224" lon="3.24366">
        <ele>436.6</ele>
        <time>2021-08-04T13:30:38Z</time>
      </trkpt>
      <trkpt lat="45.65225" lon="3.2437">
        <ele>436.7</ele>
        <time>2021-08-04T13:30:40Z</time>
      </trkpt>
      <trkpt lat="45.65225" lon="3.24375">
        <ele>436.8</ele>
        <time>2021-08-04T13:30:42Z</time>
      </trkpt>
      <trkpt lat="45.65225" lon="3.2438">
        <ele>436.9</ele>
        <time>2021-08-04T13:30:44Z</time>
      </trkpt>
      <trkpt lat="45.65225" lon="3.24385">
        <ele>437.1</ele>
        <time>2021-08-04T13:30:46Z</time>
      </trkpt>
      <trkpt lat="45.65225" lon="3.2439">
        <ele>437.3</ele>
        <time>2021-08-04T13:30:48Z</time>
      </trkpt>
      <trkpt lat="45.65224" lon="3.24395">
        <ele>437.5</ele>
        <time>2021-08-04T13:30:50Z</time>
      </trkpt>
      <trkpt lat="45.65223" lon="3.244">
        <ele>437.8</ele>
        <time>2021-08-04T13:30:52Z</time>
      </trkpt>
      <trkpt lat="45.65221" lon="3.24405">
        <ele>438.2</ele>
        <time>2021-08-04T13:30:54Z</time>
      </trkpt>
      <trkpt lat="45.65219" lon="3.24409">
        <ele>438.6</ele>
        <time>2021-08-04T13:30:56Z</time>
      </trkpt>
      <trkpt lat="45.65216" lon="3.24412">
        <ele>439</ele>
        <time>2021-08-04T13:30:58Z</time>
      </trkpt>
      <trkpt lat="45.65213" lon="3.24416">
        <ele>439.4</ele>
        <time>2021-08-04T13:31:00Z</time>
      </trkpt>
      <trkpt lat="45.65209" lon="3.24418">
        <ele>439.9</ele>
        <time>2021-08-04T13:31:02Z</time>
      </trkpt>
      <trkpt lat="45.65206" lon="3.2442">
        <ele>440.4</ele>
        <time>2021-08-04T13:31:04Z</time>
      </trkpt>
      <trkpt lat="45.65202" lon="3.2442">
        <ele>440.8</ele>
        <time>2021-08-04T13:31:06Z</time>
      </trkpt>
      <trkpt lat="45.65198" lon="3.2442">
        <ele>441.3</ele>
        <time>2021-08-04T13:31:08Z</time>
      </trkpt>
      <trkpt lat="45.65195" lon="3.24419">
        <ele>441.7</ele>
        <time>2021-08-04T13:31:10Z</time>
      </trkpt>
      <trkpt lat="45.65191" lon="3.24417">
        <ele>442.1</ele>
        <time>2021-08-04T13:31:12Z</time>
      </trkpt>
      <trkpt lat="45.65188" lon="3.24414">
        <ele>442.4</ele>
        <time>2021-08-04T13:31:14Z</time>
      </trkpt>
      <trkpt lat="45.65184" lon="3.24411">
        <ele>442.8</ele>
        <time>2021-08-04T13:31:16Z</time>
      </trkpt>
      <trkpt lat="45.65182" lon="3.24406">
        <ele>443</ele>
        <time>2021-08-04T13:31:18Z</time>
      </trkpt>
      <trkpt lat="45.65179" lon="3.24401">
        <ele>443.3</ele>
        <time>2021-08-04T13:31:20Z</time>
      </trkpt>
      <trkpt lat="45.65177" lon="3.24398">
        <ele>443.4</ele>
        <time>2021-08-04T13:31:22Z</time>
      </trkpt>
      <trkpt lat="45.65176" lon="3.24392">
        <ele>443.6</ele>
        <time>2021-08-04T13:31:24Z</time>
      </trkpt>
      <trkpt lat="45.65174" lon="3.24386">
        <ele>443.7</ele>
        <time>2021-08-04T13:31:26Z</time>
      </trkpt>
      <trkpt lat="45.65172" lon="3.24382">
        <ele>443.9</ele>
        <time>2021-08-04T13:31:28Z</time>
      </trkpt>
      <trkpt lat="45.65171" lon="3.24376">
        <ele>443.9</ele>
        <time>2021-08-04T13:31:30Z</time>
      </trkpt>
      <trkpt lat="45.6517" lon="3.2437">
        <ele>444</ele>
        <time>2021-08-04T13:31:32Z</time>
      </trkpt>
      <trkpt lat="45.65167" lon="3.24361">
        <ele>444.2</ele>
        <time>2021-08-04T13:31:34Z</time>
      </trkpt>
      <trkpt lat="45.65166" lon="3.24356">
        <ele>444.3</ele>
        <time>2021-08-04T13:31:36Z</time>
      </trkpt>
      <trkpt lat="45.65164" lon="3.24349">
        <ele>444.4</ele>
        <time>2021-08-04T13:31:38Z</time>
      </trkpt>
      <trkpt lat="45.65162" lon="3.24344">
        <ele>444.4</ele>
        <time>2021-08-04T13:31:40Z</time>
      </trkpt>
      <trkpt lat="45.6516" lon="3.24338">
        <ele>444.5</ele>
        <time>2021-08-04T13:31:42Z</time>
      </trkpt>
      <trkpt lat="45.65157" lon="3.24332">
        <ele>444.6</ele>
        <time>2021-08-04T13:31:44Z</time>
      </trkpt>
      <trkpt lat="45.65155" lon="3.24328">
        <ele>444.8</ele>
        <time>2021-08-04T13:31:46Z</time>
      </trkpt>
      <trkpt lat="45.65152" lon="3.24322">
        <ele>445.1</ele>
        <time>2021-08-04T13:31:48Z</time>
      </trkpt>
      <trkpt lat="45.65148" lon="3.24319">
        <ele>445.4</ele>
        <time>2021-08-04T13:31:50Z</time>
      </trkpt>
      <trkpt lat="45.65146" lon="3.24315">
        <ele>445.6</ele>
        <time>2021-08-04T13:31:52Z</time>
      </trkpt>
      <trkpt lat="45.65143" lon="3.24311">
        <ele>445.8</ele>
        <time>2021-08-04T13:31:54Z</time>
      </trkpt>
      <trkpt lat="45.6514" lon="3.24308">
        <ele>446</ele>
        <time>2021-08-04T13:31:56Z</time>
      </trkpt>
      <trkpt lat="45.65137" lon="3.24304">
        <ele>446.3</ele>
        <time>2021-08-04T13:31:58Z</time>
      </trkpt>
      <trkpt lat="45.65134" lon="3.243">
        <ele>446.5</ele>
        <time>2021-08-04T13:32:00Z</time>
      </trkpt>
      <trkpt lat="45.6513" lon="3.24298">
        <ele>446.7</ele>
        <time>2021-08-04T13:32:02Z</time>
      </trkpt>
      <trkpt lat="45.65127" lon="3.24295">
        <ele>446.9</ele>
        <time>2021-08-04T13:32:04Z</time>
      </trkpt>
      <trkpt lat="45.65124" lon="3.24293">
        <ele>447.1</ele>
        <time>2021-08-04T13:32:06Z</time>
      </trkpt>
      <trkpt lat="45.6512" lon="3.2429">
        <ele>447.2</ele>
        <time>2021-08-04T13:32:08Z</time>
      </trkpt>
      <trkpt lat="45.65117" lon="3.24289">
        <ele>447.4</ele>
        <time>2021-08-04T13:32:10Z</time>
      </trkpt>
      <trkpt lat="45.65113" lon="3.24287">
        <ele>447.6</ele>
        <time>2021-08-04T13:32:12Z</time>
      </trkpt>
      <trkpt lat="45.6511" lon="3.24286">
        <ele>447.8</ele>
        <time>2021-08-04T13:32:14Z</time>
      </trkpt>
      <trkpt lat="45.65107" lon="3.24284">
        <ele>447.9</ele>
        <time>2021-08-04T13:32:16Z</time>
      </trkpt>
      <trkpt lat="45.65104" lon="3.24283">
        <ele>448</ele>
        <time>2021-08-04T13:32:18Z</time>
      </trkpt>
      <trkpt lat="45.65101" lon="3.24282">
        <ele>448.2</ele>
        <time>2021-08-04T13:32:20Z</time>
      </trkpt>
      <trkpt lat="45.65098" lon="3.24281">
        <ele>448.3</ele>
        <time>2021-08-04T13:32:22Z</time>
      </trkpt>
      <trkpt lat="45.65096" lon="3.2428">
        <ele>448.4</ele>
        <time>2021-08-04T13:32:24Z</time>
      </trkpt>
      <trkpt lat="45.65093" lon="3.24278">
        <ele>448.6</ele>
        <time>2021-08-04T13:32:26Z</time>
      </trkpt>
      <trkpt lat="45.65092" lon="3.24276">
        <ele>448.6</ele>
        <time>2021-08-04T13:32:28Z</time>
      </trkpt>
      <trkpt lat="45.65091" lon="3.24276">
        <ele>448.7</ele>
        <time>2021-08-04T13:32:30Z</time>
      </trkpt>
      <trkpt lat="45.65091" lon="3.24276">
        <ele>448.7</ele>
        <time>2021-08-04T13:32:32Z</time>
      </trkpt>
      <trkpt lat="45.65091" lon="3.24275">
        <ele>448.7</ele>
        <time>2021-08-04T13:32:34Z</time>
      </trkpt>
      <trkpt lat="45.65091" lon="3.24275">
        <ele>448.7</ele>
        <time>2021-08-04T13:32:36Z</time>
      </trkpt>
      <trkpt lat="45.6509" lon="3.24275">
        <ele>448.7</ele>
        <time>2021-08-04T13:32:38Z</time>
      </trkpt>
      <trkpt lat="45.6508" lon="3.2428">
        <ele>449.2</ele>
        <time>2021-08-04T13:34:46Z</time>
      </trkpt>
      <trkpt lat="45.65075" lon="3.2428">
        <ele>449.4</ele>
        <time>2021-08-04T13:34:48Z</time>
      </trkpt>
      <trkpt lat="45.65072" lon="3.24281">
        <ele>449.5</ele>
        <time>2021-08-04T13:34:50Z</time>
      </trkpt>
      <trkpt lat="45.65068" lon="3.24282">
        <ele>449.7</ele>
        <time>2021-08-04T13:34:52Z</time>
      </trkpt>
      <trkpt lat="45.65064" lon="3.24283">
        <ele>449.9</ele>
        <time>2021-08-04T13:34:54Z</time>
      </trkpt>
      <trkpt lat="45.6506" lon="3.24285">
        <ele>450.1</ele>
        <time>2021-08-04T13:34:56Z</time>
      </trkpt>
      <trkpt lat="45.65056" lon="3.24286">
        <ele>450.3</ele>
        <time>2021-08-04T13:34:58Z</time>
      </trkpt>
      <trkpt lat="45.65053" lon="3.2429">
        <ele>450.4</ele>
        <time>2021-08-04T13:35:00Z</time>
      </trkpt>
      <trkpt lat="45.6505" lon="3.24293">
        <ele>450.6</ele>
        <time>2021-08-04T13:35:02Z</time>
      </trkpt>
      <trkpt lat="45.65046" lon="3.24296">
        <ele>450.8</ele>
        <time>2021-08-04T13:35:04Z</time>
      </trkpt>
      <trkpt lat="45.65043" lon="3.24299">
        <ele>450.9</ele>
        <time>2021-08-04T13:35:06Z</time>
      </trkpt>
      <trkpt lat="45.65039" lon="3.24302">
        <ele>451.1</ele>
        <time>2021-08-04T13:35:08Z</time>
      </trkpt>
      <trkpt lat="45.65036" lon="3.24306">
        <ele>451.3</ele>
        <time>2021-08-04T13:35:10Z</time>
      </trkpt>
      <trkpt lat="45.65032" lon="3.24309">
        <ele>451.5</ele>
        <time>2021-08-04T13:35:12Z</time>
      </trkpt>
      <trkpt lat="45.65028" lon="3.24313">
        <ele>451.6</ele>
        <time>2021-08-04T13:35:14Z</time>
      </trkpt>
      <trkpt lat="45.65025" lon="3.24317">
        <ele>451.8</ele>
        <time>2021-08-04T13:35:16Z</time>
      </trkpt>
      <trkpt lat="45.65021" lon="3.2432">
        <ele>452</ele>
        <time>2021-08-04T13:35:18Z</time>
      </trkpt>
      <trkpt lat="45.65017" lon="3.24323">
        <ele>452.2</ele>
        <time>2021-08-04T13:35:20Z</time>
      </trkpt>
      <trkpt lat="45.65014" lon="3.24328">
        <ele>452.3</ele>
        <time>2021-08-04T13:35:22Z</time>
      </trkpt>
      <trkpt lat="45.6501" lon="3.24331">
        <ele>452.5</ele>
        <time>2021-08-04T13:35:24Z</time>
      </trkpt>
      <trkpt lat="45.65006" lon="3.24333">
        <ele>452.7</ele>
        <time>2021-08-04T13:35:26Z</time>
      </trkpt>
      <trkpt lat="45.65002" lon="3.24337">
        <ele>453</ele>
        <time>2021-08-04T13:35:28Z</time>
      </trkpt>
      <trkpt lat="45.64998" lon="3.2434">
        <ele>453.4</ele>
        <time>2021-08-04T13:35:30Z</time>
      </trkpt>
      <trkpt lat="45.64994" lon="3.24343">
        <ele>453.6</ele>
        <time>2021-08-04T13:35:32Z</time>
      </trkpt>
      <trkpt lat="45.6499" lon="3.24346">
        <ele>453.9</ele>
        <time>2021-08-04T13:35:34Z</time>
      </trkpt>
      <trkpt lat="45.64986" lon="3.24347">
        <ele>454.1</ele>
        <time>2021-08-04T13:35:36Z</time>
      </trkpt>
      <trkpt lat="45.64983" lon="3.2435">
        <ele>454.4</ele>
        <time>2021-08-04T13:35:38Z</time>
      </trkpt>
      <trkpt lat="45.64979" lon="3.24352">
        <ele>454.7</ele>
        <time>2021-08-04T13:35:40Z</time>
      </trkpt>
      <trkpt lat="45.64975" lon="3.24355">
        <ele>454.9</ele>
        <time>2021-08-04T13:35:42Z</time>
      </trkpt>
      <trkpt lat="45.64971" lon="3.24358">
        <ele>455.2</ele>
        <time>2021-08-04T13:35:44Z</time>
      </trkpt>
      <trkpt lat="45.64967" lon="3.24361">
        <ele>455.5</ele>
        <time>2021-08-04T13:35:46Z</time>
      </trkpt>
      <trkpt lat="45.64963" lon="3.24364">
        <ele>455.7</ele>
        <time>2021-08-04T13:35:48Z</time>
      </trkpt>
      <trkpt lat="45.64959" lon="3.24366">
        <ele>455.9</ele>
        <time>2021-08-04T13:35:50Z</time>
      </trkpt>
      <trkpt lat="45.64955" lon="3.24368">
        <ele>456.2</ele>
        <time>2021-08-04T13:35:52Z</time>
      </trkpt>
      <trkpt lat="45.64951" lon="3.24371">
        <ele>456.4</ele>
        <time>2021-08-04T13:35:54Z</time>
      </trkpt>
      <trkpt lat="45.64947" lon="3.24373">
        <ele>456.7</ele>
        <time>2021-08-04T13:35:56Z</time>
      </trkpt>
      <trkpt lat="45.64943" lon="3.24376">
        <ele>456.9</ele>
        <time>2021-08-04T13:35:58Z</time>
      </trkpt>
      <trkpt lat="45.64939" lon="3.24379">
        <ele>457.2</ele>
        <time>2021-08-04T13:36:00Z</time>
      </trkpt>
      <trkpt lat="45.64935" lon="3.24382">
        <ele>457.4</ele>
        <time>2021-08-04T13:36:02Z</time>
      </trkpt>
      <trkpt lat="45.6493" lon="3.24384">
        <ele>457.7</ele>
        <time>2021-08-04T13:36:04Z</time>
      </trkpt>
      <trkpt lat="45.64926" lon="3.24386">
        <ele>457.9</ele>
        <time>2021-08-04T13:36:06Z</time>
      </trkpt>
      <trkpt lat="45.64922" lon="3.24389">
        <ele>458.2</ele>
        <time>2021-08-04T13:36:08Z</time>
      </trkpt>
      <trkpt lat="45.64917" lon="3.24392">
        <ele>458.4</ele>
        <time>2021-08-04T13:36:10Z</time>
      </trkpt>
      <trkpt lat="45.64913" lon="3.24393">
        <ele>458.6</ele>
        <time>2021-08-04T13:36:12Z</time>
      </trkpt>
      <trkpt lat="45.64908" lon="3.24395">
        <ele>458.9</ele>
        <time>2021-08-04T13:36:14Z</time>
      </trkpt>
      <trkpt lat="45.64904" lon="3.24396">
        <ele>459.2</ele>
        <time>2021-08-04T13:36:16Z</time>
      </trkpt>
      <trkpt lat="45.649" lon="3.24397">
        <ele>459.4</ele>
        <time>2021-08-04T13:36:18Z</time>
      </trkpt>
      <trkpt lat="45.64895" lon="3.24396">
        <ele>459.7</ele>
        <time>2021-08-04T13:36:20Z</time>
      </trkpt>
      <trkpt lat="45.64891" lon="3.24395">
        <ele>459.9</ele>
        <time>2021-08-04T13:36:22Z</time>
      </trkpt>
      <trkpt lat="45.64886" lon="3.24393">
        <ele>460.1</ele>
        <time>2021-08-04T13:36:24Z</time>
      </trkpt>
      <trkpt lat="45.64882" lon="3.24391">
        <ele>460.2</ele>
        <time>2021-08-04T13:36:26Z</time>
      </trkpt>
      <trkpt lat="45.64877" lon="3.2439">
        <ele>460.4</ele>
        <time>2021-08-04T13:36:28Z</time>
      </trkpt>
      <trkpt lat="45.64872" lon="3.24387">
        <ele>460.6</ele>
        <time>2021-08-04T13:36:30Z</time>
      </trkpt>
      <trkpt lat="45.64867" lon="3.24386">
        <ele>460.8</ele>
        <time>2021-08-04T13:36:32Z</time>
      </trkpt>
      <trkpt lat="45.64863" lon="3.24384">
        <ele>460.9</ele>
        <time>2021-08-04T13:36:34Z</time>
      </trkpt>
      <trkpt lat="45.64858" lon="3.24382">
        <ele>461.1</ele>
        <time>2021-08-04T13:36:36Z</time>
      </trkpt>
      <trkpt lat="45.64853" lon="3.2438">
        <ele>461.3</ele>
        <time>2021-08-04T13:36:38Z</time>
      </trkpt>
      <trkpt lat="45.64848" lon="3.24377">
        <ele>461.4</ele>
        <time>2021-08-04T13:36:40Z</time>
      </trkpt>
      <trkpt lat="45.64843" lon="3.24375">
        <ele>461.6</ele>
        <time>2021-08-04T13:36:42Z</time>
      </trkpt>
      <trkpt lat="45.64838" lon="3.24374">
        <ele>461.7</ele>
        <time>2021-08-04T13:36:44Z</time>
      </trkpt>
      <trkpt lat="45.64833" lon="3.24372">
        <ele>461.9</ele>
        <time>2021-08-04T13:36:46Z</time>
      </trkpt>
      <trkpt lat="45.64828" lon="3.24372">
        <ele>462.1</ele>
        <time>2021-08-04T13:36:48Z</time>
      </trkpt>
      <trkpt lat="45.64822" lon="3.24371">
        <ele>462.4</ele>
        <time>2021-08-04T13:36:50Z</time>
      </trkpt>
      <trkpt lat="45.64817" lon="3.2437">
        <ele>462.6</ele>
        <time>2021-08-04T13:36:52Z</time>
      </trkpt>
      <trkpt lat="45.64811" lon="3.2437">
        <ele>462.9</ele>
        <time>2021-08-04T13:36:54Z</time>
      </trkpt>
      <trkpt lat="45.64805" lon="3.24369">
        <ele>463.2</ele>
        <time>2021-08-04T13:36:56Z</time>
      </trkpt>
      <trkpt lat="45.648" lon="3.24366">
        <ele>463.3</ele>
        <time>2021-08-04T13:36:58Z</time>
      </trkpt>
      <trkpt lat="45.64795" lon="3.24363">
        <ele>463.6</ele>
        <time>2021-08-04T13:37:00Z</time>
      </trkpt>
      <trkpt lat="45.6479" lon="3.24361">
        <ele>463.8</ele>
        <time>2021-08-04T13:37:02Z</time>
      </trkpt>
      <trkpt lat="45.64786" lon="3.2436">
        <ele>464</ele>
        <time>2021-08-04T13:37:04Z</time>
      </trkpt>
      <trkpt lat="45.64781" lon="3.24359">
        <ele>464.2</ele>
        <time>2021-08-04T13:37:06Z</time>
      </trkpt>
      <trkpt lat="45.64777" lon="3.24357">
        <ele>464.5</ele>
        <time>2021-08-04T13:37:08Z</time>
      </trkpt>
      <trkpt lat="45.64772" lon="3.24355">
        <ele>464.7</ele>
        <time>2021-08-04T13:37:10Z</time>
      </trkpt>
      <trkpt lat="45.64767" lon="3.24353">
        <ele>464.9</ele>
        <time>2021-08-04T13:37:12Z</time>
      </trkpt>
      <trkpt lat="45.64762" lon="3.2435">
        <ele>465.2</ele>
        <time>2021-08-04T13:37:14Z</time>
      </trkpt>
      <trkpt lat="45.64757" lon="3.24348">
        <ele>465.5</ele>
        <time>2021-08-04T13:37:16Z</time>
      </trkpt>
      <trkpt lat="45.64752" lon="3.24346">
        <ele>465.8</ele>
        <time>2021-08-04T13:37:18Z</time>
      </trkpt>
      <trkpt lat="45.64747" lon="3.24345">
        <ele>466.1</ele>
        <time>2021-08-04T13:37:20Z</time>
      </trkpt>
      <trkpt lat="45.64741" lon="3.24343">
        <ele>466.2</ele>
        <time>2021-08-04T13:37:22Z</time>
      </trkpt>
      <trkpt lat="45.64736" lon="3.24342">
        <ele>466.3</ele>
        <time>2021-08-04T13:37:24Z</time>
      </trkpt>
      <trkpt lat="45.6473" lon="3.24341">
        <ele>466.5</ele>
        <time>2021-08-04T13:37:26Z</time>
      </trkpt>
      <trkpt lat="45.64724" lon="3.2434">
        <ele>466.6</ele>
        <time>2021-08-04T13:37:28Z</time>
      </trkpt>
      <trkpt lat="45.64718" lon="3.24341">
        <ele>466.8</ele>
        <time>2021-08-04T13:37:30Z</time>
      </trkpt>
      <trkpt lat="45.64712" lon="3.2434">
        <ele>466.9</ele>
        <time>2021-08-04T13:37:32Z</time>
      </trkpt>
      <trkpt lat="45.64706" lon="3.24339">
        <ele>467</ele>
        <time>2021-08-04T13:37:34Z</time>
      </trkpt>
      <trkpt lat="45.647" lon="3.24339">
        <ele>467.2</ele>
        <time>2021-08-04T13:37:36Z</time>
      </trkpt>
      <trkpt lat="45.64694" lon="3.24337">
        <ele>467.3</ele>
        <time>2021-08-04T13:37:38Z</time>
      </trkpt>
      <trkpt lat="45.64688" lon="3.24335">
        <ele>467.5</ele>
        <time>2021-08-04T13:37:40Z</time>
      </trkpt>
      <trkpt lat="45.64681" lon="3.24334">
        <ele>467.7</ele>
        <time>2021-08-04T13:37:42Z</time>
      </trkpt>
      <trkpt lat="45.64675" lon="3.24332">
        <ele>467.8</ele>
        <time>2021-08-04T13:37:44Z</time>
      </trkpt>
      <trkpt lat="45.64668" lon="3.24331">
        <ele>467.9</ele>
        <time>2021-08-04T13:37:46Z</time>
      </trkpt>
      <trkpt lat="45.64661" lon="3.2433">
        <ele>468.3</ele>
        <time>2021-08-04T13:37:48Z</time>
      </trkpt>
      <trkpt lat="45.64655" lon="3.24328">
        <ele>468.6</ele>
        <time>2021-08-04T13:37:50Z</time>
      </trkpt>
      <trkpt lat="45.64649" lon="3.24327">
        <ele>469</ele>
        <time>2021-08-04T13:37:52Z</time>
      </trkpt>
      <trkpt lat="45.64642" lon="3.24326">
        <ele>469.3</ele>
        <time>2021-08-04T13:37:54Z</time>
      </trkpt>
      <trkpt lat="45.64636" lon="3.24325">
        <ele>469.6</ele>
        <time>2021-08-04T13:37:56Z</time>
      </trkpt>
      <trkpt lat="45.64631" lon="3.24325">
        <ele>469.9</ele>
        <time>2021-08-04T13:37:58Z</time>
      </trkpt>
      <trkpt lat="45.64626" lon="3.24324">
        <ele>470.2</ele>
        <time>2021-08-04T13:38:00Z</time>
      </trkpt>
      <trkpt lat="45.64622" lon="3.24323">
        <ele>470.4</ele>
        <time>2021-08-04T13:38:02Z</time>
      </trkpt>
      <trkpt lat="45.64618" lon="3.24323">
        <ele>470.6</ele>
        <time>2021-08-04T13:38:04Z</time>
      </trkpt>
      <trkpt lat="45.64614" lon="3.24322">
        <ele>470.8</ele>
        <time>2021-08-04T13:38:06Z</time>
      </trkpt>
      <trkpt lat="45.64611" lon="3.2432">
        <ele>470.9</ele>
        <time>2021-08-04T13:38:08Z</time>
      </trkpt>
      <trkpt lat="45.64607" lon="3.24318">
        <ele>471</ele>
        <time>2021-08-04T13:38:10Z</time>
      </trkpt>
      <trkpt lat="45.64606" lon="3.24315">
        <ele>470.9</ele>
        <time>2021-08-04T13:38:12Z</time>
      </trkpt>
      <trkpt lat="45.64605" lon="3.24309">
        <ele>470.8</ele>
        <time>2021-08-04T13:38:14Z</time>
      </trkpt>
      <trkpt lat="45.64604" lon="3.24301">
        <ele>470.5</ele>
        <time>2021-08-04T13:38:16Z</time>
      </trkpt>
      <trkpt lat="45.64602" lon="3.24294">
        <ele>470.3</ele>
        <time>2021-08-04T13:38:18Z</time>
      </trkpt>
      <trkpt lat="45.64601" lon="3.24288">
        <ele>470.1</ele>
        <time>2021-08-04T13:38:20Z</time>
      </trkpt>
      <trkpt lat="45.646" lon="3.24285">
        <ele>470</ele>
        <time>2021-08-04T13:38:22Z</time>
      </trkpt>
      <trkpt lat="45.64599" lon="3.24284">
        <ele>470.1</ele>
        <time>2021-08-04T13:38:24Z</time>
      </trkpt>
      <trkpt lat="45.64597" lon="3.24283">
        <ele>470.1</ele>
        <time>2021-08-04T13:38:26Z</time>
      </trkpt>
      <trkpt lat="45.64596" lon="3.24283">
        <ele>470.1</ele>
        <time>2021-08-04T13:38:28Z</time>
      </trkpt>
      <trkpt lat="45.64594" lon="3.24283">
        <ele>470.2</ele>
        <time>2021-08-04T13:38:30Z</time>
      </trkpt>
      <trkpt lat="45.64593" lon="3.24288">
        <ele>470.4</ele>
        <time>2021-08-04T13:38:32Z</time>
      </trkpt>
      <trkpt lat="45.64596" lon="3.24291">
        <ele>470.5</ele>
        <time>2021-08-04T13:38:34Z</time>
      </trkpt>
      <trkpt lat="45.64599" lon="3.24294">
        <ele>470.5</ele>
        <time>2021-08-04T13:38:36Z</time>
      </trkpt>
      <trkpt lat="45.64601" lon="3.24296">
        <ele>470.5</ele>
        <time>2021-08-04T13:38:38Z</time>
      </trkpt>
      <trkpt lat="45.64602" lon="3.24299">
        <ele>470.5</ele>
        <time>2021-08-04T13:38:40Z</time>
      </trkpt>
      <trkpt lat="45.64604" lon="3.24302">
        <ele>470.5</ele>
        <time>2021-08-04T13:38:42Z</time>
      </trkpt>
      <trkpt lat="45.64605" lon="3.24306">
        <ele>470.6</ele>
        <time>2021-08-04T13:38:44Z</time>
      </trkpt>
      <trkpt lat="45.64605" lon="3.2431">
        <ele>470.8</ele>
        <time>2021-08-04T13:38:46Z</time>
      </trkpt>
      <trkpt lat="45.64605" lon="3.24313">
        <ele>470.9</ele>
        <time>2021-08-04T13:38:48Z</time>
      </trkpt>
      <trkpt lat="45.64603" lon="3.24317">
        <ele>471.2</ele>
        <time>2021-08-04T13:38:50Z</time>
      </trkpt>
      <trkpt lat="45.64601" lon="3.24321">
        <ele>471.4</ele>
        <time>2021-08-04T13:38:52Z</time>
      </trkpt>
      <trkpt lat="45.64597" lon="3.24323">
        <ele>471.7</ele>
        <time>2021-08-04T13:38:54Z</time>
      </trkpt>
      <trkpt lat="45.64593" lon="3.24324">
        <ele>472</ele>
        <time>2021-08-04T13:38:56Z</time>
      </trkpt>
      <trkpt lat="45.64588" lon="3.24325">
        <ele>472.3</ele>
        <time>2021-08-04T13:38:58Z</time>
      </trkpt>
      <trkpt lat="45.64584" lon="3.24328">
        <ele>472.7</ele>
        <time>2021-08-04T13:39:00Z</time>
      </trkpt>
      <trkpt lat="45.6458" lon="3.24331">
        <ele>473</ele>
        <time>2021-08-04T13:39:02Z</time>
      </trkpt>
      <trkpt lat="45.64576" lon="3.24333">
        <ele>473.2</ele>
        <time>2021-08-04T13:39:04Z</time>
      </trkpt>
      <trkpt lat="45.64572" lon="3.24335">
        <ele>473.3</ele>
        <time>2021-08-04T13:39:06Z</time>
      </trkpt>
      <trkpt lat="45.64568" lon="3.24337">
        <ele>473.4</ele>
        <time>2021-08-04T13:39:08Z</time>
      </trkpt>
      <trkpt lat="45.64564" lon="3.24341">
        <ele>473.6</ele>
        <time>2021-08-04T13:39:10Z</time>
      </trkpt>
      <trkpt lat="45.6456" lon="3.24343">
        <ele>473.8</ele>
        <time>2021-08-04T13:39:12Z</time>
      </trkpt>
      <trkpt lat="45.64556" lon="3.24346">
        <ele>474</ele>
        <time>2021-08-04T13:39:14Z</time>
      </trkpt>
      <trkpt lat="45.64552" lon="3.24349">
        <ele>474.1</ele>
        <time>2021-08-04T13:39:16Z</time>
      </trkpt>
      <trkpt lat="45.64548" lon="3.24352">
        <ele>474.4</ele>
        <time>2021-08-04T13:39:18Z</time>
      </trkpt>
      <trkpt lat="45.64544" lon="3.24355">
        <ele>474.6</ele>
        <time>2021-08-04T13:39:20Z</time>
      </trkpt>
      <trkpt lat="45.6454" lon="3.24358">
        <ele>474.8</ele>
        <time>2021-08-04T13:39:22Z</time>
      </trkpt>
      <trkpt lat="45.64536" lon="3.2436">
        <ele>475</ele>
        <time>2021-08-04T13:39:24Z</time>
      </trkpt>
      <trkpt lat="45.64532" lon="3.24362">
        <ele>475.2</ele>
        <time>2021-08-04T13:39:26Z</time>
      </trkpt>
      <trkpt lat="45.64527" lon="3.24364">
        <ele>475.5</ele>
        <time>2021-08-04T13:39:28Z</time>
      </trkpt>
      <trkpt lat="45.64523" lon="3.24366">
        <ele>475.7</ele>
        <time>2021-08-04T13:39:30Z</time>
      </trkpt>
      <trkpt lat="45.64518" lon="3.24368">
        <ele>476</ele>
        <time>2021-08-04T13:39:32Z</time>
      </trkpt>
      <trkpt lat="45.64513" lon="3.24372">
        <ele>476.3</ele>
        <time>2021-08-04T13:39:34Z</time>
      </trkpt>
      <trkpt lat="45.64509" lon="3.24375">
        <ele>476.7</ele>
        <time>2021-08-04T13:39:36Z</time>
      </trkpt>
      <trkpt lat="45.64503" lon="3.24379">
        <ele>477.1</ele>
        <time>2021-08-04T13:39:38Z</time>
      </trkpt>
      <trkpt lat="45.64498" lon="3.24383">
        <ele>477.4</ele>
        <time>2021-08-04T13:39:40Z</time>
      </trkpt>
      <trkpt lat="45.64493" lon="3.24387">
        <ele>477.5</ele>
        <time>2021-08-04T13:39:42Z</time>
      </trkpt>
      <trkpt lat="45.64487" lon="3.24391">
        <ele>477.7</ele>
        <time>2021-08-04T13:39:44Z</time>
      </trkpt>
      <trkpt lat="45.64482" lon="3.24395">
        <ele>477.9</ele>
        <time>2021-08-04T13:39:46Z</time>
      </trkpt>
      <trkpt lat="45.64477" lon="3.244">
        <ele>478.1</ele>
        <time>2021-08-04T13:39:48Z</time>
      </trkpt>
      <trkpt lat="45.64472" lon="3.24404">
        <ele>478.3</ele>
        <time>2021-08-04T13:39:50Z</time>
      </trkpt>
      <trkpt lat="45.64466" lon="3.24408">
        <ele>478.5</ele>
        <time>2021-08-04T13:39:52Z</time>
      </trkpt>
      <trkpt lat="45.64461" lon="3.24412">
        <ele>478.7</ele>
        <time>2021-08-04T13:39:54Z</time>
      </trkpt>
      <trkpt lat="45.64457" lon="3.24417">
        <ele>479</ele>
        <time>2021-08-04T13:39:56Z</time>
      </trkpt>
      <trkpt lat="45.64452" lon="3.24421">
        <ele>479.1</ele>
        <time>2021-08-04T13:39:58Z</time>
      </trkpt>
      <trkpt lat="45.64448" lon="3.24424">
        <ele>479.1</ele>
        <time>2021-08-04T13:40:00Z</time>
      </trkpt>
      <trkpt lat="45.64444" lon="3.24426">
        <ele>479.1</ele>
        <time>2021-08-04T13:40:02Z</time>
      </trkpt>
      <trkpt lat="45.64441" lon="3.24427">
        <ele>479.1</ele>
        <time>2021-08-04T13:40:04Z</time>
      </trkpt>
      <trkpt lat="45.64439" lon="3.24428">
        <ele>479.1</ele>
        <time>2021-08-04T13:40:06Z</time>
      </trkpt>
      <trkpt lat="45.64435" lon="3.24428">
        <ele>479.1</ele>
        <time>2021-08-04T13:40:08Z</time>
      </trkpt>
      <trkpt lat="45.64432" lon="3.24427">
        <ele>479.1</ele>
        <time>2021-08-04T13:40:10Z</time>
      </trkpt>
      <trkpt lat="45.64429" lon="3.24425">
        <ele>479.1</ele>
        <time>2021-08-04T13:40:12Z</time>
      </trkpt>
      <trkpt lat="45.64426" lon="3.24423">
        <ele>479.1</ele>
        <time>2021-08-04T13:40:14Z</time>
      </trkpt>
      <trkpt lat="45.64423" lon="3.24422">
        <ele>479.1</ele>
        <time>2021-08-04T13:40:16Z</time>
      </trkpt>
      <trkpt lat="45.64421" lon="3.24422">
        <ele>479.1</ele>
        <time>2021-08-04T13:40:18Z</time>
      </trkpt>
      <trkpt lat="45.64421" lon="3.24422">
        <ele>479.1</ele>
        <time>2021-08-04T13:40:20Z</time>
      </trkpt>
      <trkpt lat="45.64421" lon="3.24422">
        <ele>479.1</ele>
        <time>2021-08-04T13:40:22Z</time>
      </trkpt>
      <trkpt lat="45.64421" lon="3.24422">
        <ele>479.1</ele>
        <time>2021-08-04T13:40:24Z</time>
      </trkpt>
      <trkpt lat="45.6442" lon="3.24422">
        <ele>479.1</ele>
        <time>2021-08-04T13:40:28Z</time>
      </trkpt>
      <trkpt lat="45.64406" lon="3.24418">
        <ele>478.7</ele>
        <time>2021-08-04T13:40:44Z</time>
      </trkpt>
      <trkpt lat="45.64401" lon="3.24416">
        <ele>478.4</ele>
        <time>2021-08-04T13:40:46Z</time>
      </trkpt>
      <trkpt lat="45.64395" lon="3.24414">
        <ele>478.1</ele>
        <time>2021-08-04T13:40:48Z</time>
      </trkpt>
      <trkpt lat="45.64388" lon="3.24411">
        <ele>477.7</ele>
        <time>2021-08-04T13:40:50Z</time>
      </trkpt>
      <trkpt lat="45.64381" lon="3.24409">
        <ele>477.3</ele>
        <time>2021-08-04T13:40:52Z</time>
      </trkpt>
      <trkpt lat="45.64373" lon="3.24405">
        <ele>476.9</ele>
        <time>2021-08-04T13:40:54Z</time>
      </trkpt>
      <trkpt lat="45.64366" lon="3.24402">
        <ele>476.5</ele>
        <time>2021-08-04T13:40:56Z</time>
      </trkpt>
      <trkpt lat="45.64358" lon="3.24398">
        <ele>476.2</ele>
        <time>2021-08-04T13:40:58Z</time>
      </trkpt>
      <trkpt lat="45.64351" lon="3.24393">
        <ele>475.8</ele>
        <time>2021-08-04T13:41:00Z</time>
      </trkpt>
      <trkpt lat="45.64344" lon="3.24387">
        <ele>475.5</ele>
        <time>2021-08-04T13:41:02Z</time>
      </trkpt>
      <trkpt lat="45.64337" lon="3.24379">
        <ele>475.2</ele>
        <time>2021-08-04T13:41:04Z</time>
      </trkpt>
      <trkpt lat="45.64329" lon="3.24373">
        <ele>475</ele>
        <time>2021-08-04T13:41:06Z</time>
      </trkpt>
      <trkpt lat="45.64324" lon="3.24366">
        <ele>474.8</ele>
        <time>2021-08-04T13:41:08Z</time>
      </trkpt>
      <trkpt lat="45.64319" lon="3.24362">
        <ele>474.8</ele>
        <time>2021-08-04T13:41:10Z</time>
      </trkpt>
      <trkpt lat="45.64314" lon="3.24361">
        <ele>474.7</ele>
        <time>2021-08-04T13:41:12Z</time>
      </trkpt>
      <trkpt lat="45.64309" lon="3.24364">
        <ele>474.9</ele>
        <time>2021-08-04T13:41:14Z</time>
      </trkpt>
      <trkpt lat="45.64304" lon="3.24371">
        <ele>475.1</ele>
        <time>2021-08-04T13:41:16Z</time>
      </trkpt>
      <trkpt lat="45.643" lon="3.24378">
        <ele>475.3</ele>
        <time>2021-08-04T13:41:18Z</time>
      </trkpt>
      <trkpt lat="45.64297" lon="3.24385">
        <ele>475.5</ele>
        <time>2021-08-04T13:41:20Z</time>
      </trkpt>
      <trkpt lat="45.64293" lon="3.24392">
        <ele>475.8</ele>
        <time>2021-08-04T13:41:22Z</time>
      </trkpt>
      <trkpt lat="45.6429" lon="3.244">
        <ele>476</ele>
        <time>2021-08-04T13:41:24Z</time>
      </trkpt>
      <trkpt lat="45.64286" lon="3.24408">
        <ele>476.3</ele>
        <time>2021-08-04T13:41:26Z</time>
      </trkpt>
      <trkpt lat="45.64281" lon="3.24416">
        <ele>476.6</ele>
        <time>2021-08-04T13:41:28Z</time>
      </trkpt>
      <trkpt lat="45.64277" lon="3.24424">
        <ele>476.8</ele>
        <time>2021-08-04T13:41:30Z</time>
      </trkpt>
      <trkpt lat="45.64273" lon="3.24432">
        <ele>476.9</ele>
        <time>2021-08-04T13:41:32Z</time>
      </trkpt>
      <trkpt lat="45.64268" lon="3.24439">
        <ele>477</ele>
        <time>2021-08-04T13:41:34Z</time>
      </trkpt>
      <trkpt lat="45.64264" lon="3.24447">
        <ele>477.1</ele>
        <time>2021-08-04T13:41:36Z</time>
      </trkpt>
      <trkpt lat="45.6426" lon="3.24453">
        <ele>477.1</ele>
        <time>2021-08-04T13:41:38Z</time>
      </trkpt>
      <trkpt lat="45.64255" lon="3.2446">
        <ele>477.1</ele>
        <time>2021-08-04T13:41:40Z</time>
      </trkpt>
      <trkpt lat="45.64251" lon="3.24467">
        <ele>477</ele>
        <time>2021-08-04T13:41:42Z</time>
      </trkpt>
      <trkpt lat="45.64247" lon="3.24473">
        <ele>477</ele>
        <time>2021-08-04T13:41:44Z</time>
      </trkpt>
      <trkpt lat="45.64243" lon="3.24479">
        <ele>477</ele>
        <time>2021-08-04T13:41:46Z</time>
      </trkpt>
      <trkpt lat="45.64239" lon="3.24486">
        <ele>477.1</ele>
        <time>2021-08-04T13:41:48Z</time>
      </trkpt>
      <trkpt lat="45.64236" lon="3.24492">
        <ele>477.1</ele>
        <time>2021-08-04T13:41:50Z</time>
      </trkpt>
      <trkpt lat="45.64232" lon="3.24498">
        <ele>477.2</ele>
        <time>2021-08-04T13:41:52Z</time>
      </trkpt>
      <trkpt lat="45.64228" lon="3.24504">
        <ele>477.4</ele>
        <time>2021-08-04T13:41:54Z</time>
      </trkpt>
      <trkpt lat="45.64226" lon="3.24509">
        <ele>477.5</ele>
        <time>2021-08-04T13:41:56Z</time>
      </trkpt>
      <trkpt lat="45.64224" lon="3.24514">
        <ele>477.7</ele>
        <time>2021-08-04T13:41:58Z</time>
      </trkpt>
      <trkpt lat="45.64222" lon="3.24519">
        <ele>477.8</ele>
        <time>2021-08-04T13:42:00Z</time>
      </trkpt>
      <trkpt lat="45.6422" lon="3.24525">
        <ele>477.9</ele>
        <time>2021-08-04T13:42:02Z</time>
      </trkpt>
      <trkpt lat="45.6422" lon="3.2453">
        <ele>478.1</ele>
        <time>2021-08-04T13:42:04Z</time>
      </trkpt>
      <trkpt lat="45.64218" lon="3.24536">
        <ele>478.2</ele>
        <time>2021-08-04T13:42:06Z</time>
      </trkpt>
      <trkpt lat="45.64216" lon="3.2454">
        <ele>478.3</ele>
        <time>2021-08-04T13:42:08Z</time>
      </trkpt>
      <trkpt lat="45.64216" lon="3.24545">
        <ele>478.4</ele>
        <time>2021-08-04T13:42:10Z</time>
      </trkpt>
      <trkpt lat="45.64215" lon="3.24548">
        <ele>478.4</ele>
        <time>2021-08-04T13:42:12Z</time>
      </trkpt>
      <trkpt lat="45.64216" lon="3.24549">
        <ele>478.5</ele>
        <time>2021-08-04T13:42:14Z</time>
      </trkpt>
      <trkpt lat="45.64216" lon="3.24549">
        <ele>478.5</ele>
        <time>2021-08-04T13:42:16Z</time>
      </trkpt>
      <trkpt lat="45.64216" lon="3.24549">
        <ele>478.5</ele>
        <time>2021-08-04T13:42:18Z</time>
      </trkpt>
      <trkpt lat="45.64217" lon="3.24549">
        <ele>478.5</ele>
        <time>2021-08-04T13:42:20Z</time>
      </trkpt>
      <trkpt lat="45.64217" lon="3.24549">
        <ele>478.5</ele>
        <time>2021-08-04T13:42:22Z</time>
      </trkpt>
      <trkpt lat="45.64223" lon="3.24537">
        <ele>478.2</ele>
        <time>2021-08-04T13:46:48Z</time>
      </trkpt>
      <trkpt lat="45.64223" lon="3.24531">
        <ele>478.1</ele>
        <time>2021-08-04T13:46:50Z</time>
      </trkpt>
      <trkpt lat="45.64223" lon="3.24525">
        <ele>477.9</ele>
        <time>2021-08-04T13:46:52Z</time>
      </trkpt>
      <trkpt lat="45.64221" lon="3.24519">
        <ele>477.8</ele>
        <time>2021-08-04T13:46:54Z</time>
      </trkpt>
      <trkpt lat="45.64216" lon="3.24516">
        <ele>477.8</ele>
        <time>2021-08-04T13:46:56Z</time>
      </trkpt>
      <trkpt lat="45.64211" lon="3.24516">
        <ele>477.8</ele>
        <time>2021-08-04T13:46:58Z</time>
      </trkpt>
      <trkpt lat="45.64207" lon="3.24516">
        <ele>477.8</ele>
        <time>2021-08-04T13:47:00Z</time>
      </trkpt>
      <trkpt lat="45.64203" lon="3.24517">
        <ele>477.8</ele>
        <time>2021-08-04T13:47:02Z</time>
      </trkpt>
      <trkpt lat="45.64199" lon="3.24517">
        <ele>477.8</ele>
        <time>2021-08-04T13:47:04Z</time>
      </trkpt>
      <trkpt lat="45.64197" lon="3.24516">
        <ele>477.8</ele>
        <time>2021-08-04T13:47:06Z</time>
      </trkpt>
      <trkpt lat="45.64195" lon="3.24516">
        <ele>477.9</ele>
        <time>2021-08-04T13:47:08Z</time>
      </trkpt>
      <trkpt lat="45.64195" lon="3.24518">
        <ele>477.9</ele>
        <time>2021-08-04T13:47:10Z</time>
      </trkpt>
      <trkpt lat="45.64194" lon="3.24521">
        <ele>477.9</ele>
        <time>2021-08-04T13:47:12Z</time>
      </trkpt>
      <trkpt lat="45.64195" lon="3.2452">
        <ele>477.9</ele>
        <time>2021-08-04T13:47:14Z</time>
      </trkpt>
      <trkpt lat="45.64195" lon="3.24521">
        <ele>477.9</ele>
        <time>2021-08-04T13:47:16Z</time>
      </trkpt>
      <trkpt lat="45.64214" lon="3.2452">
        <ele>477.8</ele>
        <time>2021-08-04T13:47:36Z</time>
      </trkpt>
      <trkpt lat="45.64216" lon="3.24519">
        <ele>477.8</ele>
        <time>2021-08-04T13:47:38Z</time>
      </trkpt>
      <trkpt lat="45.64218" lon="3.24521">
        <ele>477.9</ele>
        <time>2021-08-04T13:47:40Z</time>
      </trkpt>
      <trkpt lat="45.64219" lon="3.24528">
        <ele>478</ele>
        <time>2021-08-04T13:47:42Z</time>
      </trkpt>
      <trkpt lat="45.64218" lon="3.24536">
        <ele>478.2</ele>
        <time>2021-08-04T13:47:44Z</time>
      </trkpt>
      <trkpt lat="45.64217" lon="3.24544">
        <ele>478.4</ele>
        <time>2021-08-04T13:47:46Z</time>
      </trkpt>
      <trkpt lat="45.64218" lon="3.24552">
        <ele>478.5</ele>
        <time>2021-08-04T13:47:48Z</time>
      </trkpt>
      <trkpt lat="45.64219" lon="3.24559">
        <ele>478.7</ele>
        <time>2021-08-04T13:47:50Z</time>
      </trkpt>
      <trkpt lat="45.64219" lon="3.24567">
        <ele>478.9</ele>
        <time>2021-08-04T13:47:52Z</time>
      </trkpt>
      <trkpt lat="45.6422" lon="3.24575">
        <ele>479.1</ele>
        <time>2021-08-04T13:47:54Z</time>
      </trkpt>
      <trkpt lat="45.6422" lon="3.24582">
        <ele>479.3</ele>
        <time>2021-08-04T13:47:56Z</time>
      </trkpt>
      <trkpt lat="45.6422" lon="3.24589">
        <ele>479.5</ele>
        <time>2021-08-04T13:47:58Z</time>
      </trkpt>
      <trkpt lat="45.64221" lon="3.24594">
        <ele>479.7</ele>
        <time>2021-08-04T13:48:00Z</time>
      </trkpt>
      <trkpt lat="45.64225" lon="3.24597">
        <ele>479.8</ele>
        <time>2021-08-04T13:48:02Z</time>
      </trkpt>
      <trkpt lat="45.6423" lon="3.24598">
        <ele>480</ele>
        <time>2021-08-04T13:48:04Z</time>
      </trkpt>
      <trkpt lat="45.64234" lon="3.246">
        <ele>480.2</ele>
        <time>2021-08-04T13:48:06Z</time>
      </trkpt>
      <trkpt lat="45.64239" lon="3.24602">
        <ele>480.4</ele>
        <time>2021-08-04T13:48:08Z</time>
      </trkpt>
      <trkpt lat="45.64243" lon="3.24603">
        <ele>480.5</ele>
        <time>2021-08-04T13:48:10Z</time>
      </trkpt>
      <trkpt lat="45.64248" lon="3.24606">
        <ele>480.8</ele>
        <time>2021-08-04T13:48:12Z</time>
      </trkpt>
      <trkpt lat="45.64252" lon="3.24607">
        <ele>480.9</ele>
        <time>2021-08-04T13:48:14Z</time>
      </trkpt>
      <trkpt lat="45.64256" lon="3.2461">
        <ele>481.1</ele>
        <time>2021-08-04T13:48:16Z</time>
      </trkpt>
      <trkpt lat="45.6426" lon="3.24613">
        <ele>481.3</ele>
        <time>2021-08-04T13:48:18Z</time>
      </trkpt>
      <trkpt lat="45.64264" lon="3.24616">
        <ele>481.5</ele>
        <time>2021-08-04T13:48:20Z</time>
      </trkpt>
      <trkpt lat="45.64268" lon="3.24619">
        <ele>481.7</ele>
        <time>2021-08-04T13:48:22Z</time>
      </trkpt>
      <trkpt lat="45.64272" lon="3.2462">
        <ele>481.9</ele>
        <time>2021-08-04T13:48:24Z</time>
      </trkpt>
      <trkpt lat="45.64275" lon="3.24622">
        <ele>482</ele>
        <time>2021-08-04T13:48:26Z</time>
      </trkpt>
      <trkpt lat="45.64277" lon="3.24626">
        <ele>482.2</ele>
        <time>2021-08-04T13:48:28Z</time>
      </trkpt>
      <trkpt lat="45.64277" lon="3.2463">
        <ele>482.3</ele>
        <time>2021-08-04T13:48:30Z</time>
      </trkpt>
      <trkpt lat="45.64276" lon="3.24636">
        <ele>482.4</ele>
        <time>2021-08-04T13:48:32Z</time>
      </trkpt>
      <trkpt lat="45.64276" lon="3.24642">
        <ele>482.6</ele>
        <time>2021-08-04T13:48:34Z</time>
      </trkpt>
      <trkpt lat="45.64275" lon="3.24649">
        <ele>482.8</ele>
        <time>2021-08-04T13:48:36Z</time>
      </trkpt>
      <trkpt lat="45.64277" lon="3.24657">
        <ele>483</ele>
        <time>2021-08-04T13:48:38Z</time>
      </trkpt>
      <trkpt lat="45.6428" lon="3.24662">
        <ele>483.2</ele>
        <time>2021-08-04T13:48:40Z</time>
      </trkpt>
      <trkpt lat="45.64282" lon="3.24666">
        <ele>483.4</ele>
        <time>2021-08-04T13:48:42Z</time>
      </trkpt>
      <trkpt lat="45.64285" lon="3.24668">
        <ele>483.4</ele>
        <time>2021-08-04T13:48:44Z</time>
      </trkpt>
      <trkpt lat="45.64289" lon="3.24668">
        <ele>483.5</ele>
        <time>2021-08-04T13:48:46Z</time>
      </trkpt>
      <trkpt lat="45.64291" lon="3.24668">
        <ele>483.5</ele>
        <time>2021-08-04T13:48:48Z</time>
      </trkpt>
      <trkpt lat="45.64293" lon="3.24667">
        <ele>483.5</ele>
        <time>2021-08-04T13:48:50Z</time>
      </trkpt>
      <trkpt lat="45.64295" lon="3.24664">
        <ele>483.5</ele>
        <time>2021-08-04T13:48:52Z</time>
      </trkpt>
      <trkpt lat="45.64297" lon="3.24662">
        <ele>483.5</ele>
        <time>2021-08-04T13:48:54Z</time>
      </trkpt>
      <trkpt lat="45.64297" lon="3.24657">
        <ele>483.4</ele>
        <time>2021-08-04T13:48:56Z</time>
      </trkpt>
      <trkpt lat="45.64297" lon="3.24655">
        <ele>483.3</ele>
        <time>2021-08-04T13:48:58Z</time>
      </trkpt>
      <trkpt lat="45.64297" lon="3.24651">
        <ele>483.2</ele>
        <time>2021-08-04T13:49:00Z</time>
      </trkpt>
      <trkpt lat="45.64297" lon="3.24647">
        <ele>483.1</ele>
        <time>2021-08-04T13:49:02Z</time>
      </trkpt>
      <trkpt lat="45.64297" lon="3.24645">
        <ele>483.1</ele>
        <time>2021-08-04T13:49:04Z</time>
      </trkpt>
      <trkpt lat="45.64298" lon="3.24644">
        <ele>483.1</ele>
        <time>2021-08-04T13:49:06Z</time>
      </trkpt>
      <trkpt lat="45.64298" lon="3.24644">
        <ele>483.1</ele>
        <time>2021-08-04T13:49:08Z</time>
      </trkpt>
      <trkpt lat="45.64299" lon="3.24644">
        <ele>483.1</ele>
        <time>2021-08-04T13:49:10Z</time>
      </trkpt>
      <trkpt lat="45.64299" lon="3.24644">
        <ele>483.1</ele>
        <time>2021-08-04T13:49:12Z</time>
      </trkpt>
      <trkpt lat="45.64299" lon="3.24635">
        <ele>482.9</ele>
        <time>2021-08-04T13:49:26Z</time>
      </trkpt>
      <trkpt lat="45.643" lon="3.2463">
        <ele>482.8</ele>
        <time>2021-08-04T13:49:28Z</time>
      </trkpt>
      <trkpt lat="45.64302" lon="3.24624">
        <ele>482.7</ele>
        <time>2021-08-04T13:49:30Z</time>
      </trkpt>
      <trkpt lat="45.64303" lon="3.24618">
        <ele>482.6</ele>
        <time>2021-08-04T13:49:32Z</time>
      </trkpt>
      <trkpt lat="45.64304" lon="3.2461">
        <ele>482.5</ele>
        <time>2021-08-04T13:49:34Z</time>
      </trkpt>
      <trkpt lat="45.64304" lon="3.24605">
        <ele>482.4</ele>
        <time>2021-08-04T13:49:36Z</time>
      </trkpt>
      <trkpt lat="45.64301" lon="3.24602">
        <ele>482.2</ele>
        <time>2021-08-04T13:49:38Z</time>
      </trkpt>
      <trkpt lat="45.64295" lon="3.246">
        <ele>482</ele>
        <time>2021-08-04T13:49:40Z</time>
      </trkpt>
      <trkpt lat="45.64291" lon="3.24599">
        <ele>481.8</ele>
        <time>2021-08-04T13:49:42Z</time>
      </trkpt>
      <trkpt lat="45.64289" lon="3.24598">
        <ele>481.8</ele>
        <time>2021-08-04T13:49:44Z</time>
      </trkpt>
      <trkpt lat="45.64289" lon="3.24599">
        <ele>481.8</ele>
        <time>2021-08-04T13:49:46Z</time>
      </trkpt>
      <trkpt lat="45.64288" lon="3.24599">
        <ele>481.8</ele>
        <time>2021-08-04T13:49:48Z</time>
      </trkpt>
      <trkpt lat="45.64289" lon="3.246">
        <ele>481.8</ele>
        <time>2021-08-04T13:49:50Z</time>
      </trkpt>
      <trkpt lat="45.6429" lon="3.246">
        <ele>481.8</ele>
        <time>2021-08-04T13:49:52Z</time>
      </trkpt>
      <trkpt lat="45.6429" lon="3.246">
        <ele>481.8</ele>
        <time>2021-08-04T13:49:54Z</time>
      </trkpt>
      <trkpt lat="45.6428" lon="3.24608">
        <ele>481.8</ele>
        <time>2021-08-04T14:02:54Z</time>
      </trkpt>
      <trkpt lat="45.6428" lon="3.24614">
        <ele>481.9</ele>
        <time>2021-08-04T14:02:56Z</time>
      </trkpt>
      <trkpt lat="45.64279" lon="3.24619">
        <ele>482</ele>
        <time>2021-08-04T14:02:58Z</time>
      </trkpt>
      <trkpt lat="45.64279" lon="3.24624">
        <ele>482.2</ele>
        <time>2021-08-04T14:03:00Z</time>
      </trkpt>
      <trkpt lat="45.64278" lon="3.24631">
        <ele>482.3</ele>
        <time>2021-08-04T14:03:02Z</time>
      </trkpt>
      <trkpt lat="45.64277" lon="3.24636">
        <ele>482.5</ele>
        <time>2021-08-04T14:03:04Z</time>
      </trkpt>
      <trkpt lat="45.64277" lon="3.24641">
        <ele>482.6</ele>
        <time>2021-08-04T14:03:06Z</time>
      </trkpt>
      <trkpt lat="45.64277" lon="3.24644">
        <ele>482.7</ele>
        <time>2021-08-04T14:03:08Z</time>
      </trkpt>
      <trkpt lat="45.64275" lon="3.24646">
        <ele>482.7</ele>
        <time>2021-08-04T14:03:10Z</time>
      </trkpt>
      <trkpt lat="45.64274" lon="3.24648">
        <ele>482.8</ele>
        <time>2021-08-04T14:03:12Z</time>
      </trkpt>
      <trkpt lat="45.64273" lon="3.24651">
        <ele>482.8</ele>
        <time>2021-08-04T14:03:14Z</time>
      </trkpt>
      <trkpt lat="45.64267" lon="3.24653">
        <ele>482.8</ele>
        <time>2021-08-04T14:03:16Z</time>
      </trkpt>
      <trkpt lat="45.64261" lon="3.24648">
        <ele>482.5</ele>
        <time>2021-08-04T14:03:18Z</time>
      </trkpt>
      <trkpt lat="45.64254" lon="3.24646">
        <ele>482.3</ele>
        <time>2021-08-04T14:03:20Z</time>
      </trkpt>
      <trkpt lat="45.64249" lon="3.2464">
        <ele>482</ele>
        <time>2021-08-04T14:03:22Z</time>
      </trkpt>
      <trkpt lat="45.6425" lon="3.24633">
        <ele>481.8</ele>
        <time>2021-08-04T14:03:24Z</time>
      </trkpt>
      <trkpt lat="45.6425" lon="3.24631">
        <ele>481.7</ele>
        <time>2021-08-04T14:03:26Z</time>
      </trkpt>
      <trkpt lat="45.64251" lon="3.24628">
        <ele>481.6</ele>
        <time>2021-08-04T14:03:28Z</time>
      </trkpt>
      <trkpt lat="45.64252" lon="3.24625">
        <ele>481.5</ele>
        <time>2021-08-04T14:03:30Z</time>
      </trkpt>
      <trkpt lat="45.64252" lon="3.24625">
        <ele>481.5</ele>
        <time>2021-08-04T14:03:32Z</time>
      </trkpt>
      <trkpt lat="45.64252" lon="3.24624">
        <ele>481.5</ele>
        <time>2021-08-04T14:03:34Z</time>
      </trkpt>
      <trkpt lat="45.64252" lon="3.24624">
        <ele>481.5</ele>
        <time>2021-08-04T14:03:36Z</time>
      </trkpt>
      <trkpt lat="45.64253" lon="3.24607">
        <ele>480.9</ele>
        <time>2021-08-04T14:04:46Z</time>
      </trkpt>
      <trkpt lat="45.64249" lon="3.24604">
        <ele>480.7</ele>
        <time>2021-08-04T14:04:48Z</time>
      </trkpt>
      <trkpt lat="45.64246" lon="3.24604">
        <ele>480.6</ele>
        <time>2021-08-04T14:04:50Z</time>
      </trkpt>
      <trkpt lat="45.64242" lon="3.24603">
        <ele>480.5</ele>
        <time>2021-08-04T14:04:52Z</time>
      </trkpt>
      <trkpt lat="45.64237" lon="3.246">
        <ele>480.3</ele>
        <time>2021-08-04T14:04:54Z</time>
      </trkpt>
      <trkpt lat="45.64233" lon="3.24599">
        <ele>480.1</ele>
        <time>2021-08-04T14:04:56Z</time>
      </trkpt>
      <trkpt lat="45.64229" lon="3.24598">
        <ele>480</ele>
        <time>2021-08-04T14:04:58Z</time>
      </trkpt>
      <trkpt lat="45.64226" lon="3.24597">
        <ele>479.9</ele>
        <time>2021-08-04T14:05:00Z</time>
      </trkpt>
      <trkpt lat="45.64224" lon="3.24595">
        <ele>479.8</ele>
        <time>2021-08-04T14:05:02Z</time>
      </trkpt>
      <trkpt lat="45.6422" lon="3.24598">
        <ele>479.7</ele>
        <time>2021-08-04T14:05:04Z</time>
      </trkpt>
      <trkpt lat="45.6422" lon="3.24605">
        <ele>479.9</ele>
        <time>2021-08-04T14:05:06Z</time>
      </trkpt>
      <trkpt lat="45.64219" lon="3.24611">
        <ele>480.1</ele>
        <time>2021-08-04T14:05:08Z</time>
      </trkpt>
      <trkpt lat="45.6422" lon="3.24618">
        <ele>480.4</ele>
        <time>2021-08-04T14:05:10Z</time>
      </trkpt>
      <trkpt lat="45.64221" lon="3.24625">
        <ele>480.6</ele>
        <time>2021-08-04T14:05:12Z</time>
      </trkpt>
      <trkpt lat="45.64221" lon="3.24631">
        <ele>480.8</ele>
        <time>2021-08-04T14:05:14Z</time>
      </trkpt>
      <trkpt lat="45.64222" lon="3.24638">
        <ele>481.1</ele>
        <time>2021-08-04T14:05:16Z</time>
      </trkpt>
      <trkpt lat="45.64223" lon="3.24645">
        <ele>481.3</ele>
        <time>2021-08-04T14:05:18Z</time>
      </trkpt>
      <trkpt lat="45.64223" lon="3.24652">
        <ele>481.6</ele>
        <time>2021-08-04T14:05:20Z</time>
      </trkpt>
      <trkpt lat="45.64224" lon="3.24658">
        <ele>481.8</ele>
        <time>2021-08-04T14:05:22Z</time>
      </trkpt>
      <trkpt lat="45.64224" lon="3.24665">
        <ele>482</ele>
        <time>2021-08-04T14:05:24Z</time>
      </trkpt>
      <trkpt lat="45.64225" lon="3.24672">
        <ele>482.1</ele>
        <time>2021-08-04T14:05:26Z</time>
      </trkpt>
      <trkpt lat="45.64225" lon="3.24678">
        <ele>482.1</ele>
        <time>2021-08-04T14:05:28Z</time>
      </trkpt>
      <trkpt lat="45.64223" lon="3.24683">
        <ele>482.1</ele>
        <time>2021-08-04T14:05:30Z</time>
      </trkpt>
      <trkpt lat="45.64221" lon="3.24686">
        <ele>482.1</ele>
        <time>2021-08-04T14:05:32Z</time>
      </trkpt>
      <trkpt lat="45.64218" lon="3.24688">
        <ele>482</ele>
        <time>2021-08-04T14:05:34Z</time>
      </trkpt>
      <trkpt lat="45.64214" lon="3.24689">
        <ele>481.8</ele>
        <time>2021-08-04T14:05:36Z</time>
      </trkpt>
      <trkpt lat="45.64208" lon="3.24688">
        <ele>481.6</ele>
        <time>2021-08-04T14:05:38Z</time>
      </trkpt>
      <trkpt lat="45.64202" lon="3.2469">
        <ele>481.4</ele>
        <time>2021-08-04T14:05:40Z</time>
      </trkpt>
      <trkpt lat="45.64195" lon="3.24691">
        <ele>481.2</ele>
        <time>2021-08-04T14:05:42Z</time>
      </trkpt>
      <trkpt lat="45.64188" lon="3.24692">
        <ele>481</ele>
        <time>2021-08-04T14:05:44Z</time>
      </trkpt>
      <trkpt lat="45.64181" lon="3.24694">
        <ele>480.8</ele>
        <time>2021-08-04T14:05:46Z</time>
      </trkpt>
      <trkpt lat="45.64174" lon="3.24697">
        <ele>480.6</ele>
        <time>2021-08-04T14:05:48Z</time>
      </trkpt>
      <trkpt lat="45.64166" lon="3.24698">
        <ele>480.4</ele>
        <time>2021-08-04T14:05:50Z</time>
      </trkpt>
      <trkpt lat="45.64159" lon="3.24701">
        <ele>480.3</ele>
        <time>2021-08-04T14:05:52Z</time>
      </trkpt>
      <trkpt lat="45.64152" lon="3.24704">
        <ele>480.2</ele>
        <time>2021-08-04T14:05:54Z</time>
      </trkpt>
      <trkpt lat="45.64145" lon="3.24706">
        <ele>480.1</ele>
        <time>2021-08-04T14:05:56Z</time>
      </trkpt>
      <trkpt lat="45.64138" lon="3.24708">
        <ele>480</ele>
        <time>2021-08-04T14:05:58Z</time>
      </trkpt>
      <trkpt lat="45.64131" lon="3.24709">
        <ele>479.9</ele>
        <time>2021-08-04T14:06:00Z</time>
      </trkpt>
      <trkpt lat="45.64124" lon="3.2471">
        <ele>479.7</ele>
        <time>2021-08-04T14:06:02Z</time>
      </trkpt>
      <trkpt lat="45.64117" lon="3.24711">
        <ele>479.6</ele>
        <time>2021-08-04T14:06:04Z</time>
      </trkpt>
      <trkpt lat="45.64111" lon="3.24713">
        <ele>479.4</ele>
        <time>2021-08-04T14:06:06Z</time>
      </trkpt>
      <trkpt lat="45.64104" lon="3.24714">
        <ele>479.3</ele>
        <time>2021-08-04T14:06:08Z</time>
      </trkpt>
      <trkpt lat="45.64098" lon="3.24715">
        <ele>479.1</ele>
        <time>2021-08-04T14:06:10Z</time>
      </trkpt>
      <trkpt lat="45.64092" lon="3.24717">
        <ele>479</ele>
        <time>2021-08-04T14:06:12Z</time>
      </trkpt>
      <trkpt lat="45.64085" lon="3.24719">
        <ele>478.8</ele>
        <time>2021-08-04T14:06:14Z</time>
      </trkpt>
      <trkpt lat="45.64079" lon="3.2472">
        <ele>478.5</ele>
        <time>2021-08-04T14:06:16Z</time>
      </trkpt>
      <trkpt lat="45.64074" lon="3.2472">
        <ele>478.2</ele>
        <time>2021-08-04T14:06:18Z</time>
      </trkpt>
      <trkpt lat="45.64069" lon="3.24721">
        <ele>478</ele>
        <time>2021-08-04T14:06:20Z</time>
      </trkpt>
      <trkpt lat="45.64063" lon="3.24723">
        <ele>477.6</ele>
        <time>2021-08-04T14:06:22Z</time>
      </trkpt>
      <trkpt lat="45.64056" lon="3.24724">
        <ele>477.2</ele>
        <time>2021-08-04T14:06:24Z</time>
      </trkpt>
      <trkpt lat="45.64049" lon="3.24725">
        <ele>476.9</ele>
        <time>2021-08-04T14:06:26Z</time>
      </trkpt>
      <trkpt lat="45.64041" lon="3.24728">
        <ele>476.5</ele>
        <time>2021-08-04T14:06:28Z</time>
      </trkpt>
      <trkpt lat="45.64034" lon="3.24732">
        <ele>476.2</ele>
        <time>2021-08-04T14:06:30Z</time>
      </trkpt>
      <trkpt lat="45.64028" lon="3.24735">
        <ele>475.9</ele>
        <time>2021-08-04T14:06:32Z</time>
      </trkpt>
      <trkpt lat="45.64022" lon="3.24739">
        <ele>475.7</ele>
        <time>2021-08-04T14:06:34Z</time>
      </trkpt>
      <trkpt lat="45.64015" lon="3.24743">
        <ele>475.4</ele>
        <time>2021-08-04T14:06:36Z</time>
      </trkpt>
      <trkpt lat="45.64008" lon="3.24747">
        <ele>475.2</ele>
        <time>2021-08-04T14:06:38Z</time>
      </trkpt>
      <trkpt lat="45.64" lon="3.24752">
        <ele>475.1</ele>
        <time>2021-08-04T14:06:40Z</time>
      </trkpt>
      <trkpt lat="45.63991" lon="3.24753">
        <ele>475</ele>
        <time>2021-08-04T14:06:42Z</time>
      </trkpt>
      <trkpt lat="45.63984" lon="3.24747">
        <ele>474.8</ele>
        <time>2021-08-04T14:06:44Z</time>
      </trkpt>
      <trkpt lat="45.63979" lon="3.24741">
        <ele>474.6</ele>
        <time>2021-08-04T14:06:46Z</time>
      </trkpt>
      <trkpt lat="45.63975" lon="3.24734">
        <ele>474.4</ele>
        <time>2021-08-04T14:06:48Z</time>
      </trkpt>
      <trkpt lat="45.63968" lon="3.24728">
        <ele>474.2</ele>
        <time>2021-08-04T14:06:50Z</time>
      </trkpt>
      <trkpt lat="45.63961" lon="3.24722">
        <ele>474</ele>
        <time>2021-08-04T14:06:52Z</time>
      </trkpt>
      <trkpt lat="45.63954" lon="3.24716">
        <ele>473.9</ele>
        <time>2021-08-04T14:06:54Z</time>
      </trkpt>
      <trkpt lat="45.63947" lon="3.2471">
        <ele>473.7</ele>
        <time>2021-08-04T14:06:56Z</time>
      </trkpt>
      <trkpt lat="45.63941" lon="3.24702">
        <ele>473.6</ele>
        <time>2021-08-04T14:06:58Z</time>
      </trkpt>
      <trkpt lat="45.63935" lon="3.24696">
        <ele>473.4</ele>
        <time>2021-08-04T14:07:00Z</time>
      </trkpt>
      <trkpt lat="45.63928" lon="3.2469">
        <ele>473.3</ele>
        <time>2021-08-04T14:07:02Z</time>
      </trkpt>
      <trkpt lat="45.63922" lon="3.24685">
        <ele>473.2</ele>
        <time>2021-08-04T14:07:04Z</time>
      </trkpt>
      <trkpt lat="45.63915" lon="3.2468">
        <ele>473.2</ele>
        <time>2021-08-04T14:07:06Z</time>
      </trkpt>
      <trkpt lat="45.63909" lon="3.24676">
        <ele>473.1</ele>
        <time>2021-08-04T14:07:08Z</time>
      </trkpt>
      <trkpt lat="45.63903" lon="3.24672">
        <ele>473.1</ele>
        <time>2021-08-04T14:07:10Z</time>
      </trkpt>
      <trkpt lat="45.63897" lon="3.24669">
        <ele>473</ele>
        <time>2021-08-04T14:07:12Z</time>
      </trkpt>
      <trkpt lat="45.6389" lon="3.24667">
        <ele>473</ele>
        <time>2021-08-04T14:07:14Z</time>
      </trkpt>
      <trkpt lat="45.63883" lon="3.24664">
        <ele>473</ele>
        <time>2021-08-04T14:07:16Z</time>
      </trkpt>
      <trkpt lat="45.63877" lon="3.24661">
        <ele>473</ele>
        <time>2021-08-04T14:07:18Z</time>
      </trkpt>
      <trkpt lat="45.6387" lon="3.2466">
        <ele>473</ele>
        <time>2021-08-04T14:07:20Z</time>
      </trkpt>
      <trkpt lat="45.63864" lon="3.24657">
        <ele>473</ele>
        <time>2021-08-04T14:07:22Z</time>
      </trkpt>
      <trkpt lat="45.63858" lon="3.24656">
        <ele>473</ele>
        <time>2021-08-04T14:07:24Z</time>
      </trkpt>
      <trkpt lat="45.63852" lon="3.24655">
        <ele>473</ele>
        <time>2021-08-04T14:07:26Z</time>
      </trkpt>
      <trkpt lat="45.63848" lon="3.24652">
        <ele>473</ele>
        <time>2021-08-04T14:07:28Z</time>
      </trkpt>
      <trkpt lat="45.63843" lon="3.24649">
        <ele>473</ele>
        <time>2021-08-04T14:07:30Z</time>
      </trkpt>
      <trkpt lat="45.63838" lon="3.24648">
        <ele>473</ele>
        <time>2021-08-04T14:07:32Z</time>
      </trkpt>
      <trkpt lat="45.63832" lon="3.24647">
        <ele>473</ele>
        <time>2021-08-04T14:07:34Z</time>
      </trkpt>
      <trkpt lat="45.63826" lon="3.24649">
        <ele>473.3</ele>
        <time>2021-08-04T14:07:36Z</time>
      </trkpt>
      <trkpt lat="45.6382" lon="3.2465">
        <ele>473.5</ele>
        <time>2021-08-04T14:07:38Z</time>
      </trkpt>
      <trkpt lat="45.63815" lon="3.24651">
        <ele>473.7</ele>
        <time>2021-08-04T14:07:40Z</time>
      </trkpt>
      <trkpt lat="45.6381" lon="3.24651">
        <ele>473.9</ele>
        <time>2021-08-04T14:07:42Z</time>
      </trkpt>
      <trkpt lat="45.63805" lon="3.24651">
        <ele>474.1</ele>
        <time>2021-08-04T14:07:44Z</time>
      </trkpt>
      <trkpt lat="45.63799" lon="3.24651">
        <ele>474.3</ele>
        <time>2021-08-04T14:07:46Z</time>
      </trkpt>
      <trkpt lat="45.63794" lon="3.24652">
        <ele>474.5</ele>
        <time>2021-08-04T14:07:48Z</time>
      </trkpt>
      <trkpt lat="45.63788" lon="3.24652">
        <ele>474.7</ele>
        <time>2021-08-04T14:07:50Z</time>
      </trkpt>
      <trkpt lat="45.63783" lon="3.24653">
        <ele>474.9</ele>
        <time>2021-08-04T14:07:52Z</time>
      </trkpt>
      <trkpt lat="45.63778" lon="3.24653">
        <ele>475.1</ele>
        <time>2021-08-04T14:07:54Z</time>
      </trkpt>
      <trkpt lat="45.63772" lon="3.24654">
        <ele>475.3</ele>
        <time>2021-08-04T14:07:56Z</time>
      </trkpt>
      <trkpt lat="45.63767" lon="3.24655">
        <ele>475.5</ele>
        <time>2021-08-04T14:07:58Z</time>
      </trkpt>
      <trkpt lat="45.63762" lon="3.24657">
        <ele>475.7</ele>
        <time>2021-08-04T14:08:00Z</time>
      </trkpt>
      <trkpt lat="45.63757" lon="3.24657">
        <ele>475.8</ele>
        <time>2021-08-04T14:08:02Z</time>
      </trkpt>
      <trkpt lat="45.63753" lon="3.24658">
        <ele>476</ele>
        <time>2021-08-04T14:08:04Z</time>
      </trkpt>
      <trkpt lat="45.63748" lon="3.24659">
        <ele>476.3</ele>
        <time>2021-08-04T14:08:06Z</time>
      </trkpt>
      <trkpt lat="45.63743" lon="3.24661">
        <ele>476.6</ele>
        <time>2021-08-04T14:08:08Z</time>
      </trkpt>
      <trkpt lat="45.63738" lon="3.24662">
        <ele>476.9</ele>
        <time>2021-08-04T14:08:10Z</time>
      </trkpt>
      <trkpt lat="45.63733" lon="3.24663">
        <ele>477.2</ele>
        <time>2021-08-04T14:08:12Z</time>
      </trkpt>
      <trkpt lat="45.63729" lon="3.24664">
        <ele>477.6</ele>
        <time>2021-08-04T14:08:14Z</time>
      </trkpt>
      <trkpt lat="45.63724" lon="3.24665">
        <ele>477.9</ele>
        <time>2021-08-04T14:08:16Z</time>
      </trkpt>
      <trkpt lat="45.63719" lon="3.24667">
        <ele>478.2</ele>
        <time>2021-08-04T14:08:18Z</time>
      </trkpt>
      <trkpt lat="45.63714" lon="3.24668">
        <ele>478.6</ele>
        <time>2021-08-04T14:08:20Z</time>
      </trkpt>
      <trkpt lat="45.63709" lon="3.24669">
        <ele>479</ele>
        <time>2021-08-04T14:08:22Z</time>
      </trkpt>
      <trkpt lat="45.63704" lon="3.24671">
        <ele>479.4</ele>
        <time>2021-08-04T14:08:24Z</time>
      </trkpt>
      <trkpt lat="45.63699" lon="3.24672">
        <ele>479.8</ele>
        <time>2021-08-04T14:08:26Z</time>
      </trkpt>
      <trkpt lat="45.63694" lon="3.24674">
        <ele>480.1</ele>
        <time>2021-08-04T14:08:28Z</time>
      </trkpt>
      <trkpt lat="45.63689" lon="3.24675">
        <ele>480.5</ele>
        <time>2021-08-04T14:08:30Z</time>
      </trkpt>
      <trkpt lat="45.63684" lon="3.24676">
        <ele>480.9</ele>
        <time>2021-08-04T14:08:32Z</time>
      </trkpt>
      <trkpt lat="45.63679" lon="3.24678">
        <ele>481.2</ele>
        <time>2021-08-04T14:08:34Z</time>
      </trkpt>
      <trkpt lat="45.63674" lon="3.24679">
        <ele>481.6</ele>
        <time>2021-08-04T14:08:36Z</time>
      </trkpt>
      <trkpt lat="45.63669" lon="3.24681">
        <ele>482</ele>
        <time>2021-08-04T14:08:38Z</time>
      </trkpt>
      <trkpt lat="45.63664" lon="3.24682">
        <ele>482.4</ele>
        <time>2021-08-04T14:08:40Z</time>
      </trkpt>
      <trkpt lat="45.6366" lon="3.24683">
        <ele>482.7</ele>
        <time>2021-08-04T14:08:42Z</time>
      </trkpt>
      <trkpt lat="45.63655" lon="3.24686">
        <ele>483.1</ele>
        <time>2021-08-04T14:08:44Z</time>
      </trkpt>
      <trkpt lat="45.6365" lon="3.24687">
        <ele>483.5</ele>
        <time>2021-08-04T14:08:46Z</time>
      </trkpt>
      <trkpt lat="45.63645" lon="3.24689">
        <ele>483.9</ele>
        <time>2021-08-04T14:08:48Z</time>
      </trkpt>
      <trkpt lat="45.6364" lon="3.24692">
        <ele>484.3</ele>
        <time>2021-08-04T14:08:50Z</time>
      </trkpt>
      <trkpt lat="45.63636" lon="3.24695">
        <ele>484.7</ele>
        <time>2021-08-04T14:08:52Z</time>
      </trkpt>
      <trkpt lat="45.63631" lon="3.24698">
        <ele>485.1</ele>
        <time>2021-08-04T14:08:54Z</time>
      </trkpt>
      <trkpt lat="45.63627" lon="3.24702">
        <ele>485.4</ele>
        <time>2021-08-04T14:08:56Z</time>
      </trkpt>
      <trkpt lat="45.63622" lon="3.24706">
        <ele>485.7</ele>
        <time>2021-08-04T14:08:58Z</time>
      </trkpt>
      <trkpt lat="45.63618" lon="3.2471">
        <ele>486</ele>
        <time>2021-08-04T14:09:00Z</time>
      </trkpt>
      <trkpt lat="45.63614" lon="3.24715">
        <ele>486.3</ele>
        <time>2021-08-04T14:09:02Z</time>
      </trkpt>
      <trkpt lat="45.6361" lon="3.24719">
        <ele>486.5</ele>
        <time>2021-08-04T14:09:04Z</time>
      </trkpt>
      <trkpt lat="45.63606" lon="3.24724">
        <ele>486.8</ele>
        <time>2021-08-04T14:09:06Z</time>
      </trkpt>
      <trkpt lat="45.63602" lon="3.24728">
        <ele>487</ele>
        <time>2021-08-04T14:09:08Z</time>
      </trkpt>
      <trkpt lat="45.63599" lon="3.24732">
        <ele>487.2</ele>
        <time>2021-08-04T14:09:10Z</time>
      </trkpt>
      <trkpt lat="45.63595" lon="3.24737">
        <ele>487.4</ele>
        <time>2021-08-04T14:09:12Z</time>
      </trkpt>
      <trkpt lat="45.63591" lon="3.24742">
        <ele>487.6</ele>
        <time>2021-08-04T14:09:14Z</time>
      </trkpt>
      <trkpt lat="45.63587" lon="3.24747">
        <ele>487.8</ele>
        <time>2021-08-04T14:09:16Z</time>
      </trkpt>
      <trkpt lat="45.63584" lon="3.24751">
        <ele>487.9</ele>
        <time>2021-08-04T14:09:18Z</time>
      </trkpt>
      <trkpt lat="45.6358" lon="3.24755">
        <ele>488.1</ele>
        <time>2021-08-04T14:09:20Z</time>
      </trkpt>
      <trkpt lat="45.63576" lon="3.2476">
        <ele>488.2</ele>
        <time>2021-08-04T14:09:22Z</time>
      </trkpt>
      <trkpt lat="45.63573" lon="3.24765">
        <ele>488.3</ele>
        <time>2021-08-04T14:09:24Z</time>
      </trkpt>
      <trkpt lat="45.63569" lon="3.24769">
        <ele>488.6</ele>
        <time>2021-08-04T14:09:26Z</time>
      </trkpt>
      <trkpt lat="45.63565" lon="3.24773">
        <ele>488.7</ele>
        <time>2021-08-04T14:09:28Z</time>
      </trkpt>
      <trkpt lat="45.63561" lon="3.24777">
        <ele>488.9</ele>
        <time>2021-08-04T14:09:30Z</time>
      </trkpt>
      <trkpt lat="45.63557" lon="3.24781">
        <ele>489.1</ele>
        <time>2021-08-04T14:09:32Z</time>
      </trkpt>
      <trkpt lat="45.63553" lon="3.24786">
        <ele>489.2</ele>
        <time>2021-08-04T14:09:34Z</time>
      </trkpt>
      <trkpt lat="45.6355" lon="3.2479">
        <ele>489.4</ele>
        <time>2021-08-04T14:09:36Z</time>
      </trkpt>
      <trkpt lat="45.63546" lon="3.24795">
        <ele>489.6</ele>
        <time>2021-08-04T14:09:38Z</time>
      </trkpt>
      <trkpt lat="45.63542" lon="3.24798">
        <ele>489.7</ele>
        <time>2021-08-04T14:09:40Z</time>
      </trkpt>
      <trkpt lat="45.63538" lon="3.24802">
        <ele>489.9</ele>
        <time>2021-08-04T14:09:42Z</time>
      </trkpt>
      <trkpt lat="45.63535" lon="3.24806">
        <ele>490.1</ele>
        <time>2021-08-04T14:09:44Z</time>
      </trkpt>
      <trkpt lat="45.63531" lon="3.2481">
        <ele>490.3</ele>
        <time>2021-08-04T14:09:46Z</time>
      </trkpt>
      <trkpt lat="45.63527" lon="3.24814">
        <ele>490.4</ele>
        <time>2021-08-04T14:09:48Z</time>
      </trkpt>
      <trkpt lat="45.63523" lon="3.24818">
        <ele>490.7</ele>
        <time>2021-08-04T14:09:50Z</time>
      </trkpt>
      <trkpt lat="45.63519" lon="3.24822">
        <ele>490.8</ele>
        <time>2021-08-04T14:09:52Z</time>
      </trkpt>
      <trkpt lat="45.63515" lon="3.24825">
        <ele>491</ele>
        <time>2021-08-04T14:09:54Z</time>
      </trkpt>
      <trkpt lat="45.63511" lon="3.24829">
        <ele>491.2</ele>
        <time>2021-08-04T14:09:56Z</time>
      </trkpt>
      <trkpt lat="45.63507" lon="3.24833">
        <ele>491.4</ele>
        <time>2021-08-04T14:09:58Z</time>
      </trkpt>
      <trkpt lat="45.63503" lon="3.24836">
        <ele>491.6</ele>
        <time>2021-08-04T14:10:00Z</time>
      </trkpt>
      <trkpt lat="45.63499" lon="3.2484">
        <ele>491.8</ele>
        <time>2021-08-04T14:10:02Z</time>
      </trkpt>
      <trkpt lat="45.63495" lon="3.24843">
        <ele>492</ele>
        <time>2021-08-04T14:10:04Z</time>
      </trkpt>
      <trkpt lat="45.63491" lon="3.24846">
        <ele>492.1</ele>
        <time>2021-08-04T14:10:06Z</time>
      </trkpt>
      <trkpt lat="45.63487" lon="3.2485">
        <ele>492.3</ele>
        <time>2021-08-04T14:10:08Z</time>
      </trkpt>
      <trkpt lat="45.63484" lon="3.24854">
        <ele>492.4</ele>
        <time>2021-08-04T14:10:10Z</time>
      </trkpt>
      <trkpt lat="45.6348" lon="3.24857">
        <ele>492.5</ele>
        <time>2021-08-04T14:10:12Z</time>
      </trkpt>
      <trkpt lat="45.63476" lon="3.24861">
        <ele>492.6</ele>
        <time>2021-08-04T14:10:14Z</time>
      </trkpt>
      <trkpt lat="45.63472" lon="3.24863">
        <ele>492.8</ele>
        <time>2021-08-04T14:10:16Z</time>
      </trkpt>
      <trkpt lat="45.63468" lon="3.24867">
        <ele>492.9</ele>
        <time>2021-08-04T14:10:18Z</time>
      </trkpt>
      <trkpt lat="45.63464" lon="3.2487">
        <ele>493.1</ele>
        <time>2021-08-04T14:10:20Z</time>
      </trkpt>
      <trkpt lat="45.6346" lon="3.24873">
        <ele>493.2</ele>
        <time>2021-08-04T14:10:22Z</time>
      </trkpt>
      <trkpt lat="45.63456" lon="3.24876">
        <ele>493.3</ele>
        <time>2021-08-04T14:10:24Z</time>
      </trkpt>
      <trkpt lat="45.63452" lon="3.24879">
        <ele>493.5</ele>
        <time>2021-08-04T14:10:26Z</time>
      </trkpt>
      <trkpt lat="45.63448" lon="3.24882">
        <ele>493.6</ele>
        <time>2021-08-04T14:10:28Z</time>
      </trkpt>
      <trkpt lat="45.63444" lon="3.24885">
        <ele>493.8</ele>
        <time>2021-08-04T14:10:30Z</time>
      </trkpt>
      <trkpt lat="45.6344" lon="3.24888">
        <ele>493.9</ele>
        <time>2021-08-04T14:10:32Z</time>
      </trkpt>
      <trkpt lat="45.63436" lon="3.24892">
        <ele>494</ele>
        <time>2021-08-04T14:10:34Z</time>
      </trkpt>
      <trkpt lat="45.63431" lon="3.24895">
        <ele>494.1</ele>
        <time>2021-08-04T14:10:36Z</time>
      </trkpt>
      <trkpt lat="45.63427" lon="3.24897">
        <ele>494.3</ele>
        <time>2021-08-04T14:10:38Z</time>
      </trkpt>
      <trkpt lat="45.63423" lon="3.249">
        <ele>494.4</ele>
        <time>2021-08-04T14:10:40Z</time>
      </trkpt>
      <trkpt lat="45.63418" lon="3.24903">
        <ele>494.6</ele>
        <time>2021-08-04T14:10:42Z</time>
      </trkpt>
      <trkpt lat="45.63414" lon="3.24906">
        <ele>494.7</ele>
        <time>2021-08-04T14:10:44Z</time>
      </trkpt>
      <trkpt lat="45.6341" lon="3.2491">
        <ele>494.8</ele>
        <time>2021-08-04T14:10:46Z</time>
      </trkpt>
      <trkpt lat="45.63406" lon="3.24912">
        <ele>495</ele>
        <time>2021-08-04T14:10:48Z</time>
      </trkpt>
      <trkpt lat="45.63402" lon="3.24915">
        <ele>495.1</ele>
        <time>2021-08-04T14:10:50Z</time>
      </trkpt>
      <trkpt lat="45.63398" lon="3.24918">
        <ele>495.3</ele>
        <time>2021-08-04T14:10:52Z</time>
      </trkpt>
      <trkpt lat="45.63394" lon="3.24921">
        <ele>495.6</ele>
        <time>2021-08-04T14:10:54Z</time>
      </trkpt>
      <trkpt lat="45.63389" lon="3.24924">
        <ele>495.8</ele>
        <time>2021-08-04T14:10:56Z</time>
      </trkpt>
      <trkpt lat="45.63385" lon="3.24928">
        <ele>496</ele>
        <time>2021-08-04T14:10:58Z</time>
      </trkpt>
      <trkpt lat="45.63381" lon="3.24931">
        <ele>496.2</ele>
        <time>2021-08-04T14:11:00Z</time>
      </trkpt>
      <trkpt lat="45.63376" lon="3.24933">
        <ele>496.4</ele>
        <time>2021-08-04T14:11:02Z</time>
      </trkpt>
      <trkpt lat="45.63372" lon="3.24936">
        <ele>496.6</ele>
        <time>2021-08-04T14:11:04Z</time>
      </trkpt>
      <trkpt lat="45.63368" lon="3.24939">
        <ele>496.8</ele>
        <time>2021-08-04T14:11:06Z</time>
      </trkpt>
      <trkpt lat="45.63363" lon="3.24942">
        <ele>496.9</ele>
        <time>2021-08-04T14:11:08Z</time>
      </trkpt>
      <trkpt lat="45.63359" lon="3.24946">
        <ele>497.1</ele>
        <time>2021-08-04T14:11:10Z</time>
      </trkpt>
      <trkpt lat="45.63355" lon="3.24949">
        <ele>497.2</ele>
        <time>2021-08-04T14:11:12Z</time>
      </trkpt>
      <trkpt lat="45.6335" lon="3.24952">
        <ele>497.3</ele>
        <time>2021-08-04T14:11:14Z</time>
      </trkpt>
      <trkpt lat="45.63345" lon="3.24955">
        <ele>497.5</ele>
        <time>2021-08-04T14:11:16Z</time>
      </trkpt>
      <trkpt lat="45.6334" lon="3.24959">
        <ele>497.6</ele>
        <time>2021-08-04T14:11:18Z</time>
      </trkpt>
      <trkpt lat="45.63336" lon="3.24962">
        <ele>497.7</ele>
        <time>2021-08-04T14:11:20Z</time>
      </trkpt>
      <trkpt lat="45.63331" lon="3.24965">
        <ele>497.8</ele>
        <time>2021-08-04T14:11:22Z</time>
      </trkpt>
      <trkpt lat="45.63326" lon="3.24969">
        <ele>498</ele>
        <time>2021-08-04T14:11:24Z</time>
      </trkpt>
      <trkpt lat="45.63321" lon="3.24972">
        <ele>498.2</ele>
        <time>2021-08-04T14:11:26Z</time>
      </trkpt>
      <trkpt lat="45.63316" lon="3.24976">
        <ele>498.3</ele>
        <time>2021-08-04T14:11:28Z</time>
      </trkpt>
      <trkpt lat="45.6331" lon="3.24979">
        <ele>498.5</ele>
        <time>2021-08-04T14:11:30Z</time>
      </trkpt>
      <trkpt lat="45.63305" lon="3.24983">
        <ele>498.7</ele>
        <time>2021-08-04T14:11:32Z</time>
      </trkpt>
      <trkpt lat="45.63299" lon="3.24987">
        <ele>498.8</ele>
        <time>2021-08-04T14:11:34Z</time>
      </trkpt>
      <trkpt lat="45.63293" lon="3.24991">
        <ele>499</ele>
        <time>2021-08-04T14:11:36Z</time>
      </trkpt>
      <trkpt lat="45.63287" lon="3.24995">
        <ele>499.1</ele>
        <time>2021-08-04T14:11:38Z</time>
      </trkpt>
      <trkpt lat="45.63281" lon="3.24999">
        <ele>499.2</ele>
        <time>2021-08-04T14:11:40Z</time>
      </trkpt>
      <trkpt lat="45.63275" lon="3.25003">
        <ele>499.4</ele>
        <time>2021-08-04T14:11:42Z</time>
      </trkpt>
      <trkpt lat="45.63268" lon="3.25006">
        <ele>499.8</ele>
        <time>2021-08-04T14:11:44Z</time>
      </trkpt>
      <trkpt lat="45.63262" lon="3.2501">
        <ele>500</ele>
        <time>2021-08-04T14:11:46Z</time>
      </trkpt>
      <trkpt lat="45.63256" lon="3.25015">
        <ele>500.3</ele>
        <time>2021-08-04T14:11:48Z</time>
      </trkpt>
      <trkpt lat="45.6325" lon="3.25018">
        <ele>500.5</ele>
        <time>2021-08-04T14:11:50Z</time>
      </trkpt>
      <trkpt lat="45.63244" lon="3.25021">
        <ele>500.9</ele>
        <time>2021-08-04T14:11:52Z</time>
      </trkpt>
      <trkpt lat="45.63239" lon="3.25024">
        <ele>501.2</ele>
        <time>2021-08-04T14:11:54Z</time>
      </trkpt>
      <trkpt lat="45.63233" lon="3.25027">
        <ele>501.6</ele>
        <time>2021-08-04T14:11:56Z</time>
      </trkpt>
      <trkpt lat="45.63228" lon="3.25031">
        <ele>501.9</ele>
        <time>2021-08-04T14:11:58Z</time>
      </trkpt>
      <trkpt lat="45.63222" lon="3.25034">
        <ele>502.1</ele>
        <time>2021-08-04T14:12:00Z</time>
      </trkpt>
      <trkpt lat="45.63216" lon="3.25038">
        <ele>502.4</ele>
        <time>2021-08-04T14:12:02Z</time>
      </trkpt>
      <trkpt lat="45.6321" lon="3.25042">
        <ele>502.6</ele>
        <time>2021-08-04T14:12:04Z</time>
      </trkpt>
      <trkpt lat="45.63204" lon="3.25046">
        <ele>502.8</ele>
        <time>2021-08-04T14:12:06Z</time>
      </trkpt>
      <trkpt lat="45.63199" lon="3.25049">
        <ele>503</ele>
        <time>2021-08-04T14:12:08Z</time>
      </trkpt>
      <trkpt lat="45.63193" lon="3.25052">
        <ele>503.3</ele>
        <time>2021-08-04T14:12:10Z</time>
      </trkpt>
      <trkpt lat="45.63187" lon="3.25056">
        <ele>503.4</ele>
        <time>2021-08-04T14:12:12Z</time>
      </trkpt>
      <trkpt lat="45.63181" lon="3.25059">
        <ele>503.6</ele>
        <time>2021-08-04T14:12:14Z</time>
      </trkpt>
      <trkpt lat="45.63175" lon="3.25063">
        <ele>503.7</ele>
        <time>2021-08-04T14:12:16Z</time>
      </trkpt>
      <trkpt lat="45.63169" lon="3.25067">
        <ele>503.9</ele>
        <time>2021-08-04T14:12:18Z</time>
      </trkpt>
      <trkpt lat="45.63163" lon="3.2507">
        <ele>504</ele>
        <time>2021-08-04T14:12:20Z</time>
      </trkpt>
      <trkpt lat="45.63157" lon="3.25074">
        <ele>504.3</ele>
        <time>2021-08-04T14:12:22Z</time>
      </trkpt>
      <trkpt lat="45.63151" lon="3.25077">
        <ele>504.5</ele>
        <time>2021-08-04T14:12:24Z</time>
      </trkpt>
      <trkpt lat="45.63145" lon="3.25081">
        <ele>504.7</ele>
        <time>2021-08-04T14:12:26Z</time>
      </trkpt>
      <trkpt lat="45.6314" lon="3.25085">
        <ele>504.9</ele>
        <time>2021-08-04T14:12:28Z</time>
      </trkpt>
      <trkpt lat="45.63134" lon="3.25088">
        <ele>505.3</ele>
        <time>2021-08-04T14:12:30Z</time>
      </trkpt>
      <trkpt lat="45.63128" lon="3.25091">
        <ele>505.6</ele>
        <time>2021-08-04T14:12:32Z</time>
      </trkpt>
      <trkpt lat="45.63123" lon="3.25094">
        <ele>506</ele>
        <time>2021-08-04T14:12:34Z</time>
      </trkpt>
      <trkpt lat="45.63117" lon="3.25096">
        <ele>506.3</ele>
        <time>2021-08-04T14:12:36Z</time>
      </trkpt>
      <trkpt lat="45.63112" lon="3.25099">
        <ele>506.6</ele>
        <time>2021-08-04T14:12:38Z</time>
      </trkpt>
      <trkpt lat="45.63106" lon="3.25101">
        <ele>506.9</ele>
        <time>2021-08-04T14:12:40Z</time>
      </trkpt>
      <trkpt lat="45.63101" lon="3.25103">
        <ele>507.2</ele>
        <time>2021-08-04T14:12:42Z</time>
      </trkpt>
      <trkpt lat="45.63095" lon="3.25104">
        <ele>507.5</ele>
        <time>2021-08-04T14:12:44Z</time>
      </trkpt>
      <trkpt lat="45.63089" lon="3.25106">
        <ele>507.8</ele>
        <time>2021-08-04T14:12:46Z</time>
      </trkpt>
      <trkpt lat="45.63083" lon="3.25107">
        <ele>508.2</ele>
        <time>2021-08-04T14:12:48Z</time>
      </trkpt>
      <trkpt lat="45.63077" lon="3.25109">
        <ele>508.4</ele>
        <time>2021-08-04T14:12:50Z</time>
      </trkpt>
      <trkpt lat="45.63071" lon="3.25109">
        <ele>508.7</ele>
        <time>2021-08-04T14:12:52Z</time>
      </trkpt>
      <trkpt lat="45.63065" lon="3.25109">
        <ele>509</ele>
        <time>2021-08-04T14:12:54Z</time>
      </trkpt>
      <trkpt lat="45.63059" lon="3.25109">
        <ele>509.2</ele>
        <time>2021-08-04T14:12:56Z</time>
      </trkpt>
      <trkpt lat="45.63053" lon="3.25107">
        <ele>509.6</ele>
        <time>2021-08-04T14:12:58Z</time>
      </trkpt>
      <trkpt lat="45.63047" lon="3.25107">
        <ele>509.9</ele>
        <time>2021-08-04T14:13:00Z</time>
      </trkpt>
      <trkpt lat="45.63041" lon="3.25106">
        <ele>510.2</ele>
        <time>2021-08-04T14:13:02Z</time>
      </trkpt>
      <trkpt lat="45.63035" lon="3.25105">
        <ele>510.5</ele>
        <time>2021-08-04T14:13:04Z</time>
      </trkpt>
      <trkpt lat="45.63029" lon="3.25104">
        <ele>510.8</ele>
        <time>2021-08-04T14:13:06Z</time>
      </trkpt>
      <trkpt lat="45.63024" lon="3.25104">
        <ele>511.1</ele>
        <time>2021-08-04T14:13:08Z</time>
      </trkpt>
      <trkpt lat="45.63018" lon="3.25104">
        <ele>511.4</ele>
        <time>2021-08-04T14:13:10Z</time>
      </trkpt>
      <trkpt lat="45.63012" lon="3.25105">
        <ele>511.7</ele>
        <time>2021-08-04T14:13:12Z</time>
      </trkpt>
      <trkpt lat="45.63006" lon="3.25105">
        <ele>511.9</ele>
        <time>2021-08-04T14:13:14Z</time>
      </trkpt>
      <trkpt lat="45.63" lon="3.25106">
        <ele>512.2</ele>
        <time>2021-08-04T14:13:16Z</time>
      </trkpt>
      <trkpt lat="45.62994" lon="3.25107">
        <ele>512.4</ele>
        <time>2021-08-04T14:13:18Z</time>
      </trkpt>
      <trkpt lat="45.62989" lon="3.25109">
        <ele>512.7</ele>
        <time>2021-08-04T14:13:20Z</time>
      </trkpt>
      <trkpt lat="45.62983" lon="3.25109">
        <ele>512.9</ele>
        <time>2021-08-04T14:13:22Z</time>
      </trkpt>
      <trkpt lat="45.62977" lon="3.25109">
        <ele>513.2</ele>
        <time>2021-08-04T14:13:24Z</time>
      </trkpt>
      <trkpt lat="45.62972" lon="3.25111">
        <ele>513.3</ele>
        <time>2021-08-04T14:13:26Z</time>
      </trkpt>
      <trkpt lat="45.62967" lon="3.25112">
        <ele>513.5</ele>
        <time>2021-08-04T14:13:28Z</time>
      </trkpt>
      <trkpt lat="45.62962" lon="3.25114">
        <ele>513.7</ele>
        <time>2021-08-04T14:13:30Z</time>
      </trkpt>
      <trkpt lat="45.62956" lon="3.25115">
        <ele>513.9</ele>
        <time>2021-08-04T14:13:32Z</time>
      </trkpt>
      <trkpt lat="45.62951" lon="3.25116">
        <ele>514.1</ele>
        <time>2021-08-04T14:13:34Z</time>
      </trkpt>
      <trkpt lat="45.62946" lon="3.25118">
        <ele>514.2</ele>
        <time>2021-08-04T14:13:36Z</time>
      </trkpt>
      <trkpt lat="45.6294" lon="3.2512">
        <ele>514.3</ele>
        <time>2021-08-04T14:13:38Z</time>
      </trkpt>
      <trkpt lat="45.62936" lon="3.25122">
        <ele>514.4</ele>
        <time>2021-08-04T14:13:40Z</time>
      </trkpt>
      <trkpt lat="45.62931" lon="3.25124">
        <ele>514.5</ele>
        <time>2021-08-04T14:13:42Z</time>
      </trkpt>
      <trkpt lat="45.62927" lon="3.25125">
        <ele>514.6</ele>
        <time>2021-08-04T14:13:44Z</time>
      </trkpt>
      <trkpt lat="45.62922" lon="3.25128">
        <ele>514.6</ele>
        <time>2021-08-04T14:13:46Z</time>
      </trkpt>
      <trkpt lat="45.62918" lon="3.25129">
        <ele>514.6</ele>
        <time>2021-08-04T14:13:48Z</time>
      </trkpt>
      <trkpt lat="45.62914" lon="3.25132">
        <ele>514.8</ele>
        <time>2021-08-04T14:13:50Z</time>
      </trkpt>
      <trkpt lat="45.62909" lon="3.25134">
        <ele>515.1</ele>
        <time>2021-08-04T14:13:52Z</time>
      </trkpt>
      <trkpt lat="45.62905" lon="3.25137">
        <ele>515.4</ele>
        <time>2021-08-04T14:13:54Z</time>
      </trkpt>
      <trkpt lat="45.62901" lon="3.2514">
        <ele>515.6</ele>
        <time>2021-08-04T14:13:56Z</time>
      </trkpt>
      <trkpt lat="45.62897" lon="3.25141">
        <ele>515.9</ele>
        <time>2021-08-04T14:13:58Z</time>
      </trkpt>
      <trkpt lat="45.62894" lon="3.25144">
        <ele>516.1</ele>
        <time>2021-08-04T14:14:00Z</time>
      </trkpt>
      <trkpt lat="45.6289" lon="3.25146">
        <ele>516.4</ele>
        <time>2021-08-04T14:14:02Z</time>
      </trkpt>
      <trkpt lat="45.62886" lon="3.25148">
        <ele>516.7</ele>
        <time>2021-08-04T14:14:04Z</time>
      </trkpt>
      <trkpt lat="45.62883" lon="3.2515">
        <ele>516.9</ele>
        <time>2021-08-04T14:14:06Z</time>
      </trkpt>
      <trkpt lat="45.62879" lon="3.25152">
        <ele>517.1</ele>
        <time>2021-08-04T14:14:08Z</time>
      </trkpt>
      <trkpt lat="45.62875" lon="3.25154">
        <ele>517.3</ele>
        <time>2021-08-04T14:14:10Z</time>
      </trkpt>
      <trkpt lat="45.62872" lon="3.25158">
        <ele>517.5</ele>
        <time>2021-08-04T14:14:12Z</time>
      </trkpt>
      <trkpt lat="45.62868" lon="3.2516">
        <ele>517.7</ele>
        <time>2021-08-04T14:14:14Z</time>
      </trkpt>
      <trkpt lat="45.62864" lon="3.25162">
        <ele>518</ele>
        <time>2021-08-04T14:14:16Z</time>
      </trkpt>
      <trkpt lat="45.6286" lon="3.25164">
        <ele>518.3</ele>
        <time>2021-08-04T14:14:18Z</time>
      </trkpt>
      <trkpt lat="45.62857" lon="3.25166">
        <ele>518.5</ele>
        <time>2021-08-04T14:14:20Z</time>
      </trkpt>
      <trkpt lat="45.62853" lon="3.25169">
        <ele>518.9</ele>
        <time>2021-08-04T14:14:22Z</time>
      </trkpt>
      <trkpt lat="45.62849" lon="3.25171">
        <ele>519.2</ele>
        <time>2021-08-04T14:14:24Z</time>
      </trkpt>
      <trkpt lat="45.62846" lon="3.25173">
        <ele>519.5</ele>
        <time>2021-08-04T14:14:26Z</time>
      </trkpt>
      <trkpt lat="45.62841" lon="3.25174">
        <ele>519.9</ele>
        <time>2021-08-04T14:14:28Z</time>
      </trkpt>
      <trkpt lat="45.62838" lon="3.25176">
        <ele>520.2</ele>
        <time>2021-08-04T14:14:30Z</time>
      </trkpt>
      <trkpt lat="45.62834" lon="3.25178">
        <ele>520.5</ele>
        <time>2021-08-04T14:14:32Z</time>
      </trkpt>
      <trkpt lat="45.6283" lon="3.2518">
        <ele>520.9</ele>
        <time>2021-08-04T14:14:34Z</time>
      </trkpt>
      <trkpt lat="45.62826" lon="3.25182">
        <ele>521.2</ele>
        <time>2021-08-04T14:14:36Z</time>
      </trkpt>
      <trkpt lat="45.62822" lon="3.25184">
        <ele>521.6</ele>
        <time>2021-08-04T14:14:38Z</time>
      </trkpt>
      <trkpt lat="45.62818" lon="3.25185">
        <ele>522</ele>
        <time>2021-08-04T14:14:40Z</time>
      </trkpt>
      <trkpt lat="45.62814" lon="3.25186">
        <ele>522.4</ele>
        <time>2021-08-04T14:14:42Z</time>
      </trkpt>
      <trkpt lat="45.6281" lon="3.25187">
        <ele>522.7</ele>
        <time>2021-08-04T14:14:44Z</time>
      </trkpt>
      <trkpt lat="45.62806" lon="3.25189">
        <ele>523.1</ele>
        <time>2021-08-04T14:14:46Z</time>
      </trkpt>
      <trkpt lat="45.62801" lon="3.25189">
        <ele>523.5</ele>
        <time>2021-08-04T14:14:48Z</time>
      </trkpt>
      <trkpt lat="45.62797" lon="3.2519">
        <ele>523.9</ele>
        <time>2021-08-04T14:14:50Z</time>
      </trkpt>
      <trkpt lat="45.62792" lon="3.25191">
        <ele>524.3</ele>
        <time>2021-08-04T14:14:52Z</time>
      </trkpt>
      <trkpt lat="45.62788" lon="3.25193">
        <ele>524.6</ele>
        <time>2021-08-04T14:14:54Z</time>
      </trkpt>
      <trkpt lat="45.62784" lon="3.25193">
        <ele>525</ele>
        <time>2021-08-04T14:14:56Z</time>
      </trkpt>
      <trkpt lat="45.62779" lon="3.25195">
        <ele>525.4</ele>
        <time>2021-08-04T14:14:58Z</time>
      </trkpt>
      <trkpt lat="45.62775" lon="3.25196">
        <ele>525.7</ele>
        <time>2021-08-04T14:15:00Z</time>
      </trkpt>
      <trkpt lat="45.62771" lon="3.25197">
        <ele>526</ele>
        <time>2021-08-04T14:15:02Z</time>
      </trkpt>
      <trkpt lat="45.62766" lon="3.25199">
        <ele>526.3</ele>
        <time>2021-08-04T14:15:04Z</time>
      </trkpt>
      <trkpt lat="45.62761" lon="3.25201">
        <ele>526.6</ele>
        <time>2021-08-04T14:15:06Z</time>
      </trkpt>
      <trkpt lat="45.62757" lon="3.25203">
        <ele>526.9</ele>
        <time>2021-08-04T14:15:08Z</time>
      </trkpt>
      <trkpt lat="45.62752" lon="3.25205">
        <ele>527.1</ele>
        <time>2021-08-04T14:15:10Z</time>
      </trkpt>
      <trkpt lat="45.62748" lon="3.25208">
        <ele>527.2</ele>
        <time>2021-08-04T14:15:12Z</time>
      </trkpt>
      <trkpt lat="45.62744" lon="3.25211">
        <ele>527.5</ele>
        <time>2021-08-04T14:15:14Z</time>
      </trkpt>
      <trkpt lat="45.62739" lon="3.25214">
        <ele>527.8</ele>
        <time>2021-08-04T14:15:16Z</time>
      </trkpt>
      <trkpt lat="45.62734" lon="3.25216">
        <ele>528</ele>
        <time>2021-08-04T14:15:18Z</time>
      </trkpt>
      <trkpt lat="45.6273" lon="3.2522">
        <ele>528.2</ele>
        <time>2021-08-04T14:15:20Z</time>
      </trkpt>
      <trkpt lat="45.62725" lon="3.25224">
        <ele>528.3</ele>
        <time>2021-08-04T14:15:22Z</time>
      </trkpt>
      <trkpt lat="45.6272" lon="3.25227">
        <ele>528.5</ele>
        <time>2021-08-04T14:15:24Z</time>
      </trkpt>
      <trkpt lat="45.62715" lon="3.25231">
        <ele>528.6</ele>
        <time>2021-08-04T14:15:26Z</time>
      </trkpt>
      <trkpt lat="45.6271" lon="3.25234">
        <ele>528.6</ele>
        <time>2021-08-04T14:15:28Z</time>
      </trkpt>
      <trkpt lat="45.62705" lon="3.25239">
        <ele>528.7</ele>
        <time>2021-08-04T14:15:30Z</time>
      </trkpt>
      <trkpt lat="45.627" lon="3.25243">
        <ele>528.6</ele>
        <time>2021-08-04T14:15:32Z</time>
      </trkpt>
      <trkpt lat="45.62695" lon="3.25247">
        <ele>528.6</ele>
        <time>2021-08-04T14:15:34Z</time>
      </trkpt>
      <trkpt lat="45.6269" lon="3.25252">
        <ele>528.7</ele>
        <time>2021-08-04T14:15:36Z</time>
      </trkpt>
      <trkpt lat="45.62685" lon="3.25256">
        <ele>529.2</ele>
        <time>2021-08-04T14:15:38Z</time>
      </trkpt>
      <trkpt lat="45.6268" lon="3.25261">
        <ele>529.6</ele>
        <time>2021-08-04T14:15:40Z</time>
      </trkpt>
      <trkpt lat="45.62674" lon="3.25265">
        <ele>530</ele>
        <time>2021-08-04T14:15:42Z</time>
      </trkpt>
      <trkpt lat="45.62668" lon="3.2527">
        <ele>530.4</ele>
        <time>2021-08-04T14:15:44Z</time>
      </trkpt>
      <trkpt lat="45.62663" lon="3.25273">
        <ele>530.8</ele>
        <time>2021-08-04T14:15:46Z</time>
      </trkpt>
      <trkpt lat="45.62658" lon="3.25277">
        <ele>531.2</ele>
        <time>2021-08-04T14:15:48Z</time>
      </trkpt>
      <trkpt lat="45.62653" lon="3.25281">
        <ele>531.6</ele>
        <time>2021-08-04T14:15:50Z</time>
      </trkpt>
      <trkpt lat="45.62649" lon="3.25284">
        <ele>531.9</ele>
        <time>2021-08-04T14:15:52Z</time>
      </trkpt>
      <trkpt lat="45.62644" lon="3.25288">
        <ele>532.2</ele>
        <time>2021-08-04T14:15:54Z</time>
      </trkpt>
      <trkpt lat="45.6264" lon="3.25291">
        <ele>532.5</ele>
        <time>2021-08-04T14:15:56Z</time>
      </trkpt>
      <trkpt lat="45.62636" lon="3.25294">
        <ele>532.7</ele>
        <time>2021-08-04T14:15:58Z</time>
      </trkpt>
      <trkpt lat="45.62631" lon="3.25297">
        <ele>532.9</ele>
        <time>2021-08-04T14:16:00Z</time>
      </trkpt>
      <trkpt lat="45.62627" lon="3.253">
        <ele>533.1</ele>
        <time>2021-08-04T14:16:02Z</time>
      </trkpt>
      <trkpt lat="45.62623" lon="3.25303">
        <ele>533.3</ele>
        <time>2021-08-04T14:16:04Z</time>
      </trkpt>
      <trkpt lat="45.6262" lon="3.25306">
        <ele>533.4</ele>
        <time>2021-08-04T14:16:06Z</time>
      </trkpt>
      <trkpt lat="45.62616" lon="3.25309">
        <ele>533.5</ele>
        <time>2021-08-04T14:16:08Z</time>
      </trkpt>
      <trkpt lat="45.62612" lon="3.25312">
        <ele>533.7</ele>
        <time>2021-08-04T14:16:10Z</time>
      </trkpt>
      <trkpt lat="45.62608" lon="3.25314">
        <ele>533.8</ele>
        <time>2021-08-04T14:16:12Z</time>
      </trkpt>
      <trkpt lat="45.62605" lon="3.25317">
        <ele>533.8</ele>
        <time>2021-08-04T14:16:14Z</time>
      </trkpt>
      <trkpt lat="45.62601" lon="3.2532">
        <ele>533.9</ele>
        <time>2021-08-04T14:16:16Z</time>
      </trkpt>
      <trkpt lat="45.62598" lon="3.25323">
        <ele>533.9</ele>
        <time>2021-08-04T14:16:18Z</time>
      </trkpt>
      <trkpt lat="45.62595" lon="3.25325">
        <ele>533.9</ele>
        <time>2021-08-04T14:16:20Z</time>
      </trkpt>
      <trkpt lat="45.62592" lon="3.25328">
        <ele>533.9</ele>
        <time>2021-08-04T14:16:22Z</time>
      </trkpt>
      <trkpt lat="45.62588" lon="3.2533">
        <ele>533.9</ele>
        <time>2021-08-04T14:16:24Z</time>
      </trkpt>
      <trkpt lat="45.62585" lon="3.25333">
        <ele>533.9</ele>
        <time>2021-08-04T14:16:26Z</time>
      </trkpt>
      <trkpt lat="45.62582" lon="3.25336">
        <ele>534.1</ele>
        <time>2021-08-04T14:16:28Z</time>
      </trkpt>
      <trkpt lat="45.62579" lon="3.2534">
        <ele>534.4</ele>
        <time>2021-08-04T14:16:30Z</time>
      </trkpt>
      <trkpt lat="45.62575" lon="3.25344">
        <ele>534.7</ele>
        <time>2021-08-04T14:16:32Z</time>
      </trkpt>
      <trkpt lat="45.62572" lon="3.25348">
        <ele>534.9</ele>
        <time>2021-08-04T14:16:34Z</time>
      </trkpt>
      <trkpt lat="45.62569" lon="3.25352">
        <ele>535.1</ele>
        <time>2021-08-04T14:16:36Z</time>
      </trkpt>
      <trkpt lat="45.62566" lon="3.25356">
        <ele>535.3</ele>
        <time>2021-08-04T14:16:38Z</time>
      </trkpt>
      <trkpt lat="45.62563" lon="3.2536">
        <ele>535.5</ele>
        <time>2021-08-04T14:16:40Z</time>
      </trkpt>
      <trkpt lat="45.62561" lon="3.25364">
        <ele>535.6</ele>
        <time>2021-08-04T14:16:42Z</time>
      </trkpt>
      <trkpt lat="45.62558" lon="3.25367">
        <ele>535.8</ele>
        <time>2021-08-04T14:16:44Z</time>
      </trkpt>
      <trkpt lat="45.62555" lon="3.25371">
        <ele>535.9</ele>
        <time>2021-08-04T14:16:46Z</time>
      </trkpt>
      <trkpt lat="45.62551" lon="3.25374">
        <ele>536</ele>
        <time>2021-08-04T14:16:48Z</time>
      </trkpt>
      <trkpt lat="45.62548" lon="3.25379">
        <ele>536.1</ele>
        <time>2021-08-04T14:16:50Z</time>
      </trkpt>
      <trkpt lat="45.62546" lon="3.25383">
        <ele>536.1</ele>
        <time>2021-08-04T14:16:52Z</time>
      </trkpt>
      <trkpt lat="45.62542" lon="3.25387">
        <ele>536.2</ele>
        <time>2021-08-04T14:16:54Z</time>
      </trkpt>
      <trkpt lat="45.62539" lon="3.25391">
        <ele>536.2</ele>
        <time>2021-08-04T14:16:56Z</time>
      </trkpt>
      <trkpt lat="45.62536" lon="3.25396">
        <ele>536.3</ele>
        <time>2021-08-04T14:16:58Z</time>
      </trkpt>
      <trkpt lat="45.62532" lon="3.254">
        <ele>536.3</ele>
        <time>2021-08-04T14:17:00Z</time>
      </trkpt>
      <trkpt lat="45.6253" lon="3.25404">
        <ele>536.2</ele>
        <time>2021-08-04T14:17:02Z</time>
      </trkpt>
      <trkpt lat="45.62526" lon="3.25409">
        <ele>536.2</ele>
        <time>2021-08-04T14:17:04Z</time>
      </trkpt>
      <trkpt lat="45.62522" lon="3.25412">
        <ele>536.2</ele>
        <time>2021-08-04T14:17:06Z</time>
      </trkpt>
      <trkpt lat="45.62519" lon="3.25417">
        <ele>536.1</ele>
        <time>2021-08-04T14:17:08Z</time>
      </trkpt>
      <trkpt lat="45.62515" lon="3.25422">
        <ele>536.2</ele>
        <time>2021-08-04T14:17:10Z</time>
      </trkpt>
      <trkpt lat="45.62512" lon="3.25426">
        <ele>536.2</ele>
        <time>2021-08-04T14:17:12Z</time>
      </trkpt>
      <trkpt lat="45.62508" lon="3.25431">
        <ele>536.3</ele>
        <time>2021-08-04T14:17:14Z</time>
      </trkpt>
      <trkpt lat="45.62505" lon="3.25435">
        <ele>536.4</ele>
        <time>2021-08-04T14:17:16Z</time>
      </trkpt>
      <trkpt lat="45.62501" lon="3.2544">
        <ele>536.4</ele>
        <time>2021-08-04T14:17:18Z</time>
      </trkpt>
      <trkpt lat="45.62498" lon="3.25444">
        <ele>536.5</ele>
        <time>2021-08-04T14:17:20Z</time>
      </trkpt>
      <trkpt lat="45.62494" lon="3.25448">
        <ele>536.7</ele>
        <time>2021-08-04T14:17:22Z</time>
      </trkpt>
      <trkpt lat="45.62491" lon="3.25453">
        <ele>536.8</ele>
        <time>2021-08-04T14:17:24Z</time>
      </trkpt>
      <trkpt lat="45.62487" lon="3.25458">
        <ele>536.9</ele>
        <time>2021-08-04T14:17:26Z</time>
      </trkpt>
      <trkpt lat="45.62484" lon="3.25462">
        <ele>537</ele>
        <time>2021-08-04T14:17:28Z</time>
      </trkpt>
      <trkpt lat="45.62481" lon="3.25467">
        <ele>537</ele>
        <time>2021-08-04T14:17:30Z</time>
      </trkpt>
      <trkpt lat="45.62477" lon="3.2547">
        <ele>537.1</ele>
        <time>2021-08-04T14:17:32Z</time>
      </trkpt>
      <trkpt lat="45.62474" lon="3.25473">
        <ele>537.2</ele>
        <time>2021-08-04T14:17:34Z</time>
      </trkpt>
      <trkpt lat="45.62471" lon="3.25477">
        <ele>537.3</ele>
        <time>2021-08-04T14:17:36Z</time>
      </trkpt>
      <trkpt lat="45.62468" lon="3.2548">
        <ele>537.3</ele>
        <time>2021-08-04T14:17:38Z</time>
      </trkpt>
      <trkpt lat="45.62464" lon="3.25482">
        <ele>537.4</ele>
        <time>2021-08-04T14:17:40Z</time>
      </trkpt>
      <trkpt lat="45.62461" lon="3.25485">
        <ele>537.5</ele>
        <time>2021-08-04T14:17:42Z</time>
      </trkpt>
      <trkpt lat="45.62458" lon="3.25488">
        <ele>537.5</ele>
        <time>2021-08-04T14:17:44Z</time>
      </trkpt>
      <trkpt lat="45.62455" lon="3.25491">
        <ele>537.6</ele>
        <time>2021-08-04T14:17:46Z</time>
      </trkpt>
      <trkpt lat="45.62451" lon="3.25494">
        <ele>537.6</ele>
        <time>2021-08-04T14:17:48Z</time>
      </trkpt>
      <trkpt lat="45.62448" lon="3.25497">
        <ele>537.7</ele>
        <time>2021-08-04T14:17:50Z</time>
      </trkpt>
      <trkpt lat="45.62444" lon="3.25499">
        <ele>537.7</ele>
        <time>2021-08-04T14:17:52Z</time>
      </trkpt>
      <trkpt lat="45.62441" lon="3.25502">
        <ele>537.8</ele>
        <time>2021-08-04T14:17:54Z</time>
      </trkpt>
      <trkpt lat="45.62437" lon="3.25505">
        <ele>538</ele>
        <time>2021-08-04T14:17:56Z</time>
      </trkpt>
      <trkpt lat="45.62434" lon="3.25508">
        <ele>538.1</ele>
        <time>2021-08-04T14:17:58Z</time>
      </trkpt>
      <trkpt lat="45.6243" lon="3.25509">
        <ele>538.3</ele>
        <time>2021-08-04T14:18:00Z</time>
      </trkpt>
      <trkpt lat="45.62426" lon="3.25512">
        <ele>538.4</ele>
        <time>2021-08-04T14:18:02Z</time>
      </trkpt>
      <trkpt lat="45.62423" lon="3.25515">
        <ele>538.5</ele>
        <time>2021-08-04T14:18:04Z</time>
      </trkpt>
      <trkpt lat="45.62421" lon="3.25517">
        <ele>538.6</ele>
        <time>2021-08-04T14:18:06Z</time>
      </trkpt>
      <trkpt lat="45.62418" lon="3.25518">
        <ele>538.7</ele>
        <time>2021-08-04T14:18:08Z</time>
      </trkpt>
      <trkpt lat="45.62415" lon="3.2552">
        <ele>538.9</ele>
        <time>2021-08-04T14:18:10Z</time>
      </trkpt>
      <trkpt lat="45.62412" lon="3.25523">
        <ele>539</ele>
        <time>2021-08-04T14:18:12Z</time>
      </trkpt>
      <trkpt lat="45.62408" lon="3.25525">
        <ele>539.2</ele>
        <time>2021-08-04T14:18:14Z</time>
      </trkpt>
      <trkpt lat="45.62405" lon="3.25527">
        <ele>539.4</ele>
        <time>2021-08-04T14:18:16Z</time>
      </trkpt>
      <trkpt lat="45.62402" lon="3.25528">
        <ele>539.5</ele>
        <time>2021-08-04T14:18:18Z</time>
      </trkpt>
      <trkpt lat="45.62399" lon="3.25531">
        <ele>539.7</ele>
        <time>2021-08-04T14:18:20Z</time>
      </trkpt>
      <trkpt lat="45.62396" lon="3.25534">
        <ele>539.8</ele>
        <time>2021-08-04T14:18:22Z</time>
      </trkpt>
      <trkpt lat="45.62392" lon="3.25536">
        <ele>540</ele>
        <time>2021-08-04T14:18:24Z</time>
      </trkpt>
      <trkpt lat="45.62389" lon="3.25538">
        <ele>540.1</ele>
        <time>2021-08-04T14:18:26Z</time>
      </trkpt>
      <trkpt lat="45.62385" lon="3.25541">
        <ele>540.2</ele>
        <time>2021-08-04T14:18:28Z</time>
      </trkpt>
      <trkpt lat="45.62382" lon="3.25543">
        <ele>540.4</ele>
        <time>2021-08-04T14:18:30Z</time>
      </trkpt>
      <trkpt lat="45.62378" lon="3.25546">
        <ele>540.5</ele>
        <time>2021-08-04T14:18:32Z</time>
      </trkpt>
      <trkpt lat="45.62374" lon="3.25549">
        <ele>540.6</ele>
        <time>2021-08-04T14:18:34Z</time>
      </trkpt>
      <trkpt lat="45.6237" lon="3.25552">
        <ele>540.7</ele>
        <time>2021-08-04T14:18:36Z</time>
      </trkpt>
      <trkpt lat="45.62366" lon="3.25554">
        <ele>540.8</ele>
        <time>2021-08-04T14:18:38Z</time>
      </trkpt>
      <trkpt lat="45.62363" lon="3.25557">
        <ele>540.8</ele>
        <time>2021-08-04T14:18:40Z</time>
      </trkpt>
      <trkpt lat="45.62361" lon="3.25559">
        <ele>540.9</ele>
        <time>2021-08-04T14:18:42Z</time>
      </trkpt>
      <trkpt lat="45.62358" lon="3.25561">
        <ele>541</ele>
        <time>2021-08-04T14:18:44Z</time>
      </trkpt>
      <trkpt lat="45.62354" lon="3.25563">
        <ele>541</ele>
        <time>2021-08-04T14:18:46Z</time>
      </trkpt>
      <trkpt lat="45.62351" lon="3.25566">
        <ele>541.1</ele>
        <time>2021-08-04T14:18:48Z</time>
      </trkpt>
      <trkpt lat="45.62347" lon="3.25568">
        <ele>541.1</ele>
        <time>2021-08-04T14:18:50Z</time>
      </trkpt>
      <trkpt lat="45.62344" lon="3.2557">
        <ele>541.2</ele>
        <time>2021-08-04T14:18:52Z</time>
      </trkpt>
      <trkpt lat="45.62341" lon="3.25572">
        <ele>541.2</ele>
        <time>2021-08-04T14:18:54Z</time>
      </trkpt>
      <trkpt lat="45.62337" lon="3.25574">
        <ele>541.3</ele>
        <time>2021-08-04T14:18:56Z</time>
      </trkpt>
      <trkpt lat="45.62334" lon="3.25577">
        <ele>541.3</ele>
        <time>2021-08-04T14:18:58Z</time>
      </trkpt>
      <trkpt lat="45.6233" lon="3.25579">
        <ele>541.4</ele>
        <time>2021-08-04T14:19:00Z</time>
      </trkpt>
      <trkpt lat="45.62327" lon="3.25581">
        <ele>541.5</ele>
        <time>2021-08-04T14:19:02Z</time>
      </trkpt>
      <trkpt lat="45.62324" lon="3.25583">
        <ele>541.6</ele>
        <time>2021-08-04T14:19:04Z</time>
      </trkpt>
      <trkpt lat="45.6232" lon="3.25585">
        <ele>541.8</ele>
        <time>2021-08-04T14:19:06Z</time>
      </trkpt>
      <trkpt lat="45.62317" lon="3.25587">
        <ele>542.1</ele>
        <time>2021-08-04T14:19:08Z</time>
      </trkpt>
      <trkpt lat="45.62313" lon="3.25589">
        <ele>542.3</ele>
        <time>2021-08-04T14:19:10Z</time>
      </trkpt>
      <trkpt lat="45.6231" lon="3.25591">
        <ele>542.6</ele>
        <time>2021-08-04T14:19:12Z</time>
      </trkpt>
      <trkpt lat="45.62306" lon="3.25592">
        <ele>542.8</ele>
        <time>2021-08-04T14:19:14Z</time>
      </trkpt>
      <trkpt lat="45.62303" lon="3.25594">
        <ele>543</ele>
        <time>2021-08-04T14:19:16Z</time>
      </trkpt>
      <trkpt lat="45.62299" lon="3.25596">
        <ele>543.3</ele>
        <time>2021-08-04T14:19:18Z</time>
      </trkpt>
      <trkpt lat="45.62296" lon="3.25598">
        <ele>543.5</ele>
        <time>2021-08-04T14:19:20Z</time>
      </trkpt>
      <trkpt lat="45.62293" lon="3.25599">
        <ele>543.7</ele>
        <time>2021-08-04T14:19:22Z</time>
      </trkpt>
      <trkpt lat="45.62289" lon="3.25601">
        <ele>544</ele>
        <time>2021-08-04T14:19:24Z</time>
      </trkpt>
      <trkpt lat="45.62286" lon="3.25603">
        <ele>544.2</ele>
        <time>2021-08-04T14:19:26Z</time>
      </trkpt>
      <trkpt lat="45.62282" lon="3.25605">
        <ele>544.4</ele>
        <time>2021-08-04T14:19:28Z</time>
      </trkpt>
      <trkpt lat="45.62278" lon="3.25606">
        <ele>544.7</ele>
        <time>2021-08-04T14:19:30Z</time>
      </trkpt>
      <trkpt lat="45.62274" lon="3.25608">
        <ele>545</ele>
        <time>2021-08-04T14:19:32Z</time>
      </trkpt>
      <trkpt lat="45.6227" lon="3.2561">
        <ele>545.2</ele>
        <time>2021-08-04T14:19:34Z</time>
      </trkpt>
      <trkpt lat="45.62266" lon="3.25612">
        <ele>545.4</ele>
        <time>2021-08-04T14:19:36Z</time>
      </trkpt>
      <trkpt lat="45.62263" lon="3.25613">
        <ele>545.7</ele>
        <time>2021-08-04T14:19:38Z</time>
      </trkpt>
      <trkpt lat="45.62259" lon="3.25615">
        <ele>545.9</ele>
        <time>2021-08-04T14:19:40Z</time>
      </trkpt>
      <trkpt lat="45.62256" lon="3.25616">
        <ele>546.1</ele>
        <time>2021-08-04T14:19:42Z</time>
      </trkpt>
      <trkpt lat="45.62252" lon="3.25618">
        <ele>546.3</ele>
        <time>2021-08-04T14:19:44Z</time>
      </trkpt>
      <trkpt lat="45.62249" lon="3.2562">
        <ele>546.5</ele>
        <time>2021-08-04T14:19:46Z</time>
      </trkpt>
      <trkpt lat="45.62246" lon="3.25621">
        <ele>546.7</ele>
        <time>2021-08-04T14:19:48Z</time>
      </trkpt>
      <trkpt lat="45.62242" lon="3.25622">
        <ele>546.9</ele>
        <time>2021-08-04T14:19:50Z</time>
      </trkpt>
      <trkpt lat="45.62238" lon="3.25624">
        <ele>547.1</ele>
        <time>2021-08-04T14:19:52Z</time>
      </trkpt>
      <trkpt lat="45.62235" lon="3.25625">
        <ele>547.3</ele>
        <time>2021-08-04T14:19:54Z</time>
      </trkpt>
      <trkpt lat="45.62231" lon="3.25628">
        <ele>547.5</ele>
        <time>2021-08-04T14:19:56Z</time>
      </trkpt>
      <trkpt lat="45.62228" lon="3.2563">
        <ele>547.7</ele>
        <time>2021-08-04T14:19:58Z</time>
      </trkpt>
      <trkpt lat="45.62224" lon="3.25631">
        <ele>547.9</ele>
        <time>2021-08-04T14:20:00Z</time>
      </trkpt>
      <trkpt lat="45.6222" lon="3.25633">
        <ele>548.1</ele>
        <time>2021-08-04T14:20:02Z</time>
      </trkpt>
      <trkpt lat="45.62217" lon="3.25634">
        <ele>548.3</ele>
        <time>2021-08-04T14:20:04Z</time>
      </trkpt>
      <trkpt lat="45.62213" lon="3.25636">
        <ele>548.4</ele>
        <time>2021-08-04T14:20:06Z</time>
      </trkpt>
      <trkpt lat="45.62209" lon="3.25637">
        <ele>548.6</ele>
        <time>2021-08-04T14:20:08Z</time>
      </trkpt>
      <trkpt lat="45.62206" lon="3.25638">
        <ele>548.8</ele>
        <time>2021-08-04T14:20:10Z</time>
      </trkpt>
      <trkpt lat="45.62202" lon="3.2564">
        <ele>549</ele>
        <time>2021-08-04T14:20:12Z</time>
      </trkpt>
      <trkpt lat="45.62198" lon="3.25641">
        <ele>549.1</ele>
        <time>2021-08-04T14:20:14Z</time>
      </trkpt>
      <trkpt lat="45.62194" lon="3.25642">
        <ele>549.3</ele>
        <time>2021-08-04T14:20:16Z</time>
      </trkpt>
      <trkpt lat="45.6219" lon="3.25643">
        <ele>549.5</ele>
        <time>2021-08-04T14:20:18Z</time>
      </trkpt>
      <trkpt lat="45.62187" lon="3.25644">
        <ele>549.6</ele>
        <time>2021-08-04T14:20:20Z</time>
      </trkpt>
      <trkpt lat="45.62183" lon="3.25645">
        <ele>549.8</ele>
        <time>2021-08-04T14:20:22Z</time>
      </trkpt>
      <trkpt lat="45.62179" lon="3.25646">
        <ele>549.9</ele>
        <time>2021-08-04T14:20:24Z</time>
      </trkpt>
      <trkpt lat="45.62176" lon="3.25647">
        <ele>550.1</ele>
        <time>2021-08-04T14:20:26Z</time>
      </trkpt>
      <trkpt lat="45.62172" lon="3.25648">
        <ele>550.2</ele>
        <time>2021-08-04T14:20:28Z</time>
      </trkpt>
      <trkpt lat="45.62168" lon="3.25649">
        <ele>550.3</ele>
        <time>2021-08-04T14:20:30Z</time>
      </trkpt>
      <trkpt lat="45.62165" lon="3.2565">
        <ele>550.5</ele>
        <time>2021-08-04T14:20:32Z</time>
      </trkpt>
      <trkpt lat="45.62161" lon="3.25651">
        <ele>550.8</ele>
        <time>2021-08-04T14:20:34Z</time>
      </trkpt>
      <trkpt lat="45.62158" lon="3.25653">
        <ele>551.1</ele>
        <time>2021-08-04T14:20:36Z</time>
      </trkpt>
      <trkpt lat="45.62154" lon="3.25654">
        <ele>551.4</ele>
        <time>2021-08-04T14:20:38Z</time>
      </trkpt>
      <trkpt lat="45.6215" lon="3.25655">
        <ele>551.6</ele>
        <time>2021-08-04T14:20:40Z</time>
      </trkpt>
      <trkpt lat="45.62147" lon="3.25656">
        <ele>551.9</ele>
        <time>2021-08-04T14:20:42Z</time>
      </trkpt>
      <trkpt lat="45.62143" lon="3.25657">
        <ele>552.2</ele>
        <time>2021-08-04T14:20:44Z</time>
      </trkpt>
      <trkpt lat="45.6214" lon="3.25659">
        <ele>552.4</ele>
        <time>2021-08-04T14:20:46Z</time>
      </trkpt>
      <trkpt lat="45.62136" lon="3.2566">
        <ele>552.7</ele>
        <time>2021-08-04T14:20:48Z</time>
      </trkpt>
      <trkpt lat="45.62132" lon="3.25661">
        <ele>553</ele>
        <time>2021-08-04T14:20:50Z</time>
      </trkpt>
      <trkpt lat="45.62129" lon="3.25662">
        <ele>553.3</ele>
        <time>2021-08-04T14:20:52Z</time>
      </trkpt>
      <trkpt lat="45.62125" lon="3.25663">
        <ele>553.6</ele>
        <time>2021-08-04T14:20:54Z</time>
      </trkpt>
      <trkpt lat="45.62121" lon="3.25664">
        <ele>553.8</ele>
        <time>2021-08-04T14:20:56Z</time>
      </trkpt>
      <trkpt lat="45.62118" lon="3.25665">
        <ele>554.1</ele>
        <time>2021-08-04T14:20:58Z</time>
      </trkpt>
      <trkpt lat="45.62114" lon="3.25667">
        <ele>554.4</ele>
        <time>2021-08-04T14:21:00Z</time>
      </trkpt>
      <trkpt lat="45.62111" lon="3.25668">
        <ele>554.7</ele>
        <time>2021-08-04T14:21:02Z</time>
      </trkpt>
      <trkpt lat="45.62107" lon="3.25669">
        <ele>555.1</ele>
        <time>2021-08-04T14:21:04Z</time>
      </trkpt>
      <trkpt lat="45.62103" lon="3.2567">
        <ele>555.4</ele>
        <time>2021-08-04T14:21:06Z</time>
      </trkpt>
      <trkpt lat="45.62099" lon="3.25671">
        <ele>555.8</ele>
        <time>2021-08-04T14:21:08Z</time>
      </trkpt>
      <trkpt lat="45.62095" lon="3.25672">
        <ele>556.1</ele>
        <time>2021-08-04T14:21:10Z</time>
      </trkpt>
      <trkpt lat="45.62091" lon="3.25674">
        <ele>556.5</ele>
        <time>2021-08-04T14:21:12Z</time>
      </trkpt>
      <trkpt lat="45.62088" lon="3.25675">
        <ele>556.8</ele>
        <time>2021-08-04T14:21:14Z</time>
      </trkpt>
      <trkpt lat="45.62084" lon="3.25676">
        <ele>557.2</ele>
        <time>2021-08-04T14:21:16Z</time>
      </trkpt>
      <trkpt lat="45.6208" lon="3.25677">
        <ele>557.5</ele>
        <time>2021-08-04T14:21:18Z</time>
      </trkpt>
      <trkpt lat="45.62076" lon="3.25679">
        <ele>557.8</ele>
        <time>2021-08-04T14:21:20Z</time>
      </trkpt>
      <trkpt lat="45.62072" lon="3.2568">
        <ele>558.1</ele>
        <time>2021-08-04T14:21:22Z</time>
      </trkpt>
      <trkpt lat="45.62068" lon="3.25681">
        <ele>558.3</ele>
        <time>2021-08-04T14:21:24Z</time>
      </trkpt>
      <trkpt lat="45.62065" lon="3.25683">
        <ele>558.6</ele>
        <time>2021-08-04T14:21:26Z</time>
      </trkpt>
      <trkpt lat="45.62061" lon="3.25685">
        <ele>558.9</ele>
        <time>2021-08-04T14:21:28Z</time>
      </trkpt>
      <trkpt lat="45.62058" lon="3.25686">
        <ele>559.1</ele>
        <time>2021-08-04T14:21:30Z</time>
      </trkpt>
      <trkpt lat="45.62054" lon="3.25687">
        <ele>559.3</ele>
        <time>2021-08-04T14:21:32Z</time>
      </trkpt>
      <trkpt lat="45.6205" lon="3.25689">
        <ele>559.6</ele>
        <time>2021-08-04T14:21:34Z</time>
      </trkpt>
      <trkpt lat="45.62047" lon="3.25692">
        <ele>559.8</ele>
        <time>2021-08-04T14:21:36Z</time>
      </trkpt>
      <trkpt lat="45.62043" lon="3.25694">
        <ele>560.1</ele>
        <time>2021-08-04T14:21:38Z</time>
      </trkpt>
      <trkpt lat="45.6204" lon="3.25696">
        <ele>560.3</ele>
        <time>2021-08-04T14:21:40Z</time>
      </trkpt>
      <trkpt lat="45.62036" lon="3.25699">
        <ele>560.5</ele>
        <time>2021-08-04T14:21:42Z</time>
      </trkpt>
      <trkpt lat="45.62033" lon="3.25701">
        <ele>560.7</ele>
        <time>2021-08-04T14:21:44Z</time>
      </trkpt>
      <trkpt lat="45.62029" lon="3.25704">
        <ele>560.9</ele>
        <time>2021-08-04T14:21:46Z</time>
      </trkpt>
      <trkpt lat="45.62026" lon="3.25707">
        <ele>561.1</ele>
        <time>2021-08-04T14:21:48Z</time>
      </trkpt>
      <trkpt lat="45.62023" lon="3.25711">
        <ele>561.3</ele>
        <time>2021-08-04T14:21:50Z</time>
      </trkpt>
      <trkpt lat="45.6202" lon="3.25714">
        <ele>561.4</ele>
        <time>2021-08-04T14:21:52Z</time>
      </trkpt>
      <trkpt lat="45.62016" lon="3.25717">
        <ele>561.6</ele>
        <time>2021-08-04T14:21:54Z</time>
      </trkpt>
      <trkpt lat="45.62013" lon="3.25721">
        <ele>561.7</ele>
        <time>2021-08-04T14:21:56Z</time>
      </trkpt>
      <trkpt lat="45.6201" lon="3.25724">
        <ele>561.9</ele>
        <time>2021-08-04T14:21:58Z</time>
      </trkpt>
      <trkpt lat="45.62007" lon="3.25728">
        <ele>562</ele>
        <time>2021-08-04T14:22:00Z</time>
      </trkpt>
      <trkpt lat="45.62004" lon="3.25731">
        <ele>562.1</ele>
        <time>2021-08-04T14:22:02Z</time>
      </trkpt>
      <trkpt lat="45.62" lon="3.25735">
        <ele>562.2</ele>
        <time>2021-08-04T14:22:04Z</time>
      </trkpt>
      <trkpt lat="45.61997" lon="3.25738">
        <ele>562.3</ele>
        <time>2021-08-04T14:22:06Z</time>
      </trkpt>
      <trkpt lat="45.61994" lon="3.25741">
        <ele>562.5</ele>
        <time>2021-08-04T14:22:08Z</time>
      </trkpt>
      <trkpt lat="45.61991" lon="3.25745">
        <ele>562.7</ele>
        <time>2021-08-04T14:22:10Z</time>
      </trkpt>
      <trkpt lat="45.61989" lon="3.25748">
        <ele>562.8</ele>
        <time>2021-08-04T14:22:12Z</time>
      </trkpt>
      <trkpt lat="45.61986" lon="3.25752">
        <ele>563</ele>
        <time>2021-08-04T14:22:14Z</time>
      </trkpt>
      <trkpt lat="45.61982" lon="3.25755">
        <ele>563.3</ele>
        <time>2021-08-04T14:22:16Z</time>
      </trkpt>
      <trkpt lat="45.61979" lon="3.25758">
        <ele>563.6</ele>
        <time>2021-08-04T14:22:18Z</time>
      </trkpt>
      <trkpt lat="45.61976" lon="3.25761">
        <ele>563.9</ele>
        <time>2021-08-04T14:22:20Z</time>
      </trkpt>
      <trkpt lat="45.61973" lon="3.25764">
        <ele>564.1</ele>
        <time>2021-08-04T14:22:22Z</time>
      </trkpt>
      <trkpt lat="45.6197" lon="3.25767">
        <ele>564.4</ele>
        <time>2021-08-04T14:22:24Z</time>
      </trkpt>
      <trkpt lat="45.61967" lon="3.2577">
        <ele>564.6</ele>
        <time>2021-08-04T14:22:26Z</time>
      </trkpt>
      <trkpt lat="45.61963" lon="3.25773">
        <ele>564.9</ele>
        <time>2021-08-04T14:22:28Z</time>
      </trkpt>
      <trkpt lat="45.6196" lon="3.25776">
        <ele>565.2</ele>
        <time>2021-08-04T14:22:30Z</time>
      </trkpt>
      <trkpt lat="45.61956" lon="3.25778">
        <ele>565.5</ele>
        <time>2021-08-04T14:22:32Z</time>
      </trkpt>
      <trkpt lat="45.61953" lon="3.2578">
        <ele>565.8</ele>
        <time>2021-08-04T14:22:34Z</time>
      </trkpt>
      <trkpt lat="45.61949" lon="3.25782">
        <ele>566.1</ele>
        <time>2021-08-04T14:22:36Z</time>
      </trkpt>
      <trkpt lat="45.61945" lon="3.25783">
        <ele>566.4</ele>
        <time>2021-08-04T14:22:38Z</time>
      </trkpt>
      <trkpt lat="45.61941" lon="3.25784">
        <ele>566.7</ele>
        <time>2021-08-04T14:22:40Z</time>
      </trkpt>
      <trkpt lat="45.61937" lon="3.25785">
        <ele>567</ele>
        <time>2021-08-04T14:22:42Z</time>
      </trkpt>
      <trkpt lat="45.61933" lon="3.25787">
        <ele>567.3</ele>
        <time>2021-08-04T14:22:44Z</time>
      </trkpt>
      <trkpt lat="45.61928" lon="3.25787">
        <ele>567.6</ele>
        <time>2021-08-04T14:22:46Z</time>
      </trkpt>
      <trkpt lat="45.61924" lon="3.25788">
        <ele>567.9</ele>
        <time>2021-08-04T14:22:48Z</time>
      </trkpt>
      <trkpt lat="45.61921" lon="3.25788">
        <ele>568.1</ele>
        <time>2021-08-04T14:22:50Z</time>
      </trkpt>
      <trkpt lat="45.61918" lon="3.25789">
        <ele>568.4</ele>
        <time>2021-08-04T14:22:52Z</time>
      </trkpt>
      <trkpt lat="45.61913" lon="3.2579">
        <ele>568.7</ele>
        <time>2021-08-04T14:22:54Z</time>
      </trkpt>
      <trkpt lat="45.61909" lon="3.2579">
        <ele>568.9</ele>
        <time>2021-08-04T14:22:56Z</time>
      </trkpt>
      <trkpt lat="45.61905" lon="3.25791">
        <ele>569.1</ele>
        <time>2021-08-04T14:22:58Z</time>
      </trkpt>
      <trkpt lat="45.61901" lon="3.25793">
        <ele>569.4</ele>
        <time>2021-08-04T14:23:00Z</time>
      </trkpt>
      <trkpt lat="45.61897" lon="3.25793">
        <ele>569.6</ele>
        <time>2021-08-04T14:23:02Z</time>
      </trkpt>
      <trkpt lat="45.61893" lon="3.25795">
        <ele>569.8</ele>
        <time>2021-08-04T14:23:04Z</time>
      </trkpt>
      <trkpt lat="45.6189" lon="3.25796">
        <ele>570</ele>
        <time>2021-08-04T14:23:06Z</time>
      </trkpt>
      <trkpt lat="45.61886" lon="3.25797">
        <ele>570.2</ele>
        <time>2021-08-04T14:23:08Z</time>
      </trkpt>
      <trkpt lat="45.61882" lon="3.258">
        <ele>570.4</ele>
        <time>2021-08-04T14:23:10Z</time>
      </trkpt>
      <trkpt lat="45.61878" lon="3.258">
        <ele>570.6</ele>
        <time>2021-08-04T14:23:12Z</time>
      </trkpt>
      <trkpt lat="45.61874" lon="3.25802">
        <ele>570.8</ele>
        <time>2021-08-04T14:23:14Z</time>
      </trkpt>
      <trkpt lat="45.6187" lon="3.25804">
        <ele>571.1</ele>
        <time>2021-08-04T14:23:16Z</time>
      </trkpt>
      <trkpt lat="45.61866" lon="3.25806">
        <ele>571.3</ele>
        <time>2021-08-04T14:23:18Z</time>
      </trkpt>
      <trkpt lat="45.61862" lon="3.25808">
        <ele>571.5</ele>
        <time>2021-08-04T14:23:20Z</time>
      </trkpt>
      <trkpt lat="45.61859" lon="3.2581">
        <ele>571.7</ele>
        <time>2021-08-04T14:23:22Z</time>
      </trkpt>
      <trkpt lat="45.61855" lon="3.25812">
        <ele>571.9</ele>
        <time>2021-08-04T14:23:24Z</time>
      </trkpt>
      <trkpt lat="45.61851" lon="3.25814">
        <ele>572.1</ele>
        <time>2021-08-04T14:23:26Z</time>
      </trkpt>
      <trkpt lat="45.61847" lon="3.25816">
        <ele>572.3</ele>
        <time>2021-08-04T14:23:28Z</time>
      </trkpt>
      <trkpt lat="45.61844" lon="3.25818">
        <ele>572.5</ele>
        <time>2021-08-04T14:23:30Z</time>
      </trkpt>
      <trkpt lat="45.6184" lon="3.2582">
        <ele>572.7</ele>
        <time>2021-08-04T14:23:32Z</time>
      </trkpt>
      <trkpt lat="45.61836" lon="3.25823">
        <ele>572.9</ele>
        <time>2021-08-04T14:23:34Z</time>
      </trkpt>
      <trkpt lat="45.61832" lon="3.25825">
        <ele>572.9</ele>
        <time>2021-08-04T14:23:36Z</time>
      </trkpt>
      <trkpt lat="45.61828" lon="3.25827">
        <ele>572.8</ele>
        <time>2021-08-04T14:23:38Z</time>
      </trkpt>
      <trkpt lat="45.61824" lon="3.25829">
        <ele>572.7</ele>
        <time>2021-08-04T14:23:40Z</time>
      </trkpt>
      <trkpt lat="45.6182" lon="3.2583">
        <ele>572.5</ele>
        <time>2021-08-04T14:23:42Z</time>
      </trkpt>
      <trkpt lat="45.61816" lon="3.25831">
        <ele>572.4</ele>
        <time>2021-08-04T14:23:44Z</time>
      </trkpt>
      <trkpt lat="45.61813" lon="3.25833">
        <ele>572.3</ele>
        <time>2021-08-04T14:23:46Z</time>
      </trkpt>
      <trkpt lat="45.6181" lon="3.25836">
        <ele>572.3</ele>
        <time>2021-08-04T14:23:48Z</time>
      </trkpt>
      <trkpt lat="45.61806" lon="3.25838">
        <ele>572.2</ele>
        <time>2021-08-04T14:23:50Z</time>
      </trkpt>
      <trkpt lat="45.61803" lon="3.2584">
        <ele>572.2</ele>
        <time>2021-08-04T14:23:52Z</time>
      </trkpt>
      <trkpt lat="45.61799" lon="3.25843">
        <ele>572.2</ele>
        <time>2021-08-04T14:23:54Z</time>
      </trkpt>
      <trkpt lat="45.61795" lon="3.25845">
        <ele>572.2</ele>
        <time>2021-08-04T14:23:56Z</time>
      </trkpt>
      <trkpt lat="45.61791" lon="3.25847">
        <ele>572.1</ele>
        <time>2021-08-04T14:23:58Z</time>
      </trkpt>
      <trkpt lat="45.61787" lon="3.2585">
        <ele>572.1</ele>
        <time>2021-08-04T14:24:00Z</time>
      </trkpt>
      <trkpt lat="45.61784" lon="3.25852">
        <ele>572.2</ele>
        <time>2021-08-04T14:24:02Z</time>
      </trkpt>
      <trkpt lat="45.61781" lon="3.25856">
        <ele>572.2</ele>
        <time>2021-08-04T14:24:04Z</time>
      </trkpt>
      <trkpt lat="45.61778" lon="3.2586">
        <ele>572.4</ele>
        <time>2021-08-04T14:24:06Z</time>
      </trkpt>
      <trkpt lat="45.61774" lon="3.25864">
        <ele>572.5</ele>
        <time>2021-08-04T14:24:08Z</time>
      </trkpt>
      <trkpt lat="45.61771" lon="3.25869">
        <ele>572.7</ele>
        <time>2021-08-04T14:24:10Z</time>
      </trkpt>
      <trkpt lat="45.61767" lon="3.25873">
        <ele>572.8</ele>
        <time>2021-08-04T14:24:12Z</time>
      </trkpt>
      <trkpt lat="45.61764" lon="3.25878">
        <ele>573</ele>
        <time>2021-08-04T14:24:14Z</time>
      </trkpt>
      <trkpt lat="45.6176" lon="3.25882">
        <ele>573.1</ele>
        <time>2021-08-04T14:24:16Z</time>
      </trkpt>
      <trkpt lat="45.61756" lon="3.25886">
        <ele>573.3</ele>
        <time>2021-08-04T14:24:18Z</time>
      </trkpt>
      <trkpt lat="45.61752" lon="3.25891">
        <ele>573.5</ele>
        <time>2021-08-04T14:24:20Z</time>
      </trkpt>
      <trkpt lat="45.61748" lon="3.25895">
        <ele>573.6</ele>
        <time>2021-08-04T14:24:22Z</time>
      </trkpt>
      <trkpt lat="45.61745" lon="3.25899">
        <ele>573.8</ele>
        <time>2021-08-04T14:24:24Z</time>
      </trkpt>
      <trkpt lat="45.61742" lon="3.25904">
        <ele>574</ele>
        <time>2021-08-04T14:24:26Z</time>
      </trkpt>
      <trkpt lat="45.61738" lon="3.25909">
        <ele>574.2</ele>
        <time>2021-08-04T14:24:28Z</time>
      </trkpt>
      <trkpt lat="45.61734" lon="3.25913">
        <ele>574.4</ele>
        <time>2021-08-04T14:24:30Z</time>
      </trkpt>
      <trkpt lat="45.61731" lon="3.25917">
        <ele>574.5</ele>
        <time>2021-08-04T14:24:32Z</time>
      </trkpt>
      <trkpt lat="45.61727" lon="3.25921">
        <ele>574.9</ele>
        <time>2021-08-04T14:24:34Z</time>
      </trkpt>
      <trkpt lat="45.61723" lon="3.25926">
        <ele>575.3</ele>
        <time>2021-08-04T14:24:36Z</time>
      </trkpt>
      <trkpt lat="45.6172" lon="3.2593">
        <ele>575.6</ele>
        <time>2021-08-04T14:24:38Z</time>
      </trkpt>
      <trkpt lat="45.61716" lon="3.25933">
        <ele>575.9</ele>
        <time>2021-08-04T14:24:40Z</time>
      </trkpt>
      <trkpt lat="45.61713" lon="3.25937">
        <ele>576.2</ele>
        <time>2021-08-04T14:24:42Z</time>
      </trkpt>
      <trkpt lat="45.6171" lon="3.25941">
        <ele>576.5</ele>
        <time>2021-08-04T14:24:44Z</time>
      </trkpt>
      <trkpt lat="45.61706" lon="3.25944">
        <ele>576.8</ele>
        <time>2021-08-04T14:24:46Z</time>
      </trkpt>
      <trkpt lat="45.61703" lon="3.25948">
        <ele>577.1</ele>
        <time>2021-08-04T14:24:48Z</time>
      </trkpt>
      <trkpt lat="45.61699" lon="3.25952">
        <ele>577.5</ele>
        <time>2021-08-04T14:24:50Z</time>
      </trkpt>
      <trkpt lat="45.61696" lon="3.25956">
        <ele>577.8</ele>
        <time>2021-08-04T14:24:52Z</time>
      </trkpt>
      <trkpt lat="45.61693" lon="3.25959">
        <ele>578</ele>
        <time>2021-08-04T14:24:54Z</time>
      </trkpt>
      <trkpt lat="45.61689" lon="3.25963">
        <ele>578.4</ele>
        <time>2021-08-04T14:24:56Z</time>
      </trkpt>
      <trkpt lat="45.61686" lon="3.25966">
        <ele>578.7</ele>
        <time>2021-08-04T14:24:58Z</time>
      </trkpt>
      <trkpt lat="45.61682" lon="3.2597">
        <ele>579</ele>
        <time>2021-08-04T14:25:00Z</time>
      </trkpt>
      <trkpt lat="45.61679" lon="3.25973">
        <ele>579.3</ele>
        <time>2021-08-04T14:25:02Z</time>
      </trkpt>
      <trkpt lat="45.61675" lon="3.25976">
        <ele>579.5</ele>
        <time>2021-08-04T14:25:04Z</time>
      </trkpt>
      <trkpt lat="45.61671" lon="3.25979">
        <ele>579.8</ele>
        <time>2021-08-04T14:25:06Z</time>
      </trkpt>
      <trkpt lat="45.61667" lon="3.25982">
        <ele>580.1</ele>
        <time>2021-08-04T14:25:08Z</time>
      </trkpt>
      <trkpt lat="45.61664" lon="3.25985">
        <ele>580.3</ele>
        <time>2021-08-04T14:25:10Z</time>
      </trkpt>
      <trkpt lat="45.6166" lon="3.25988">
        <ele>580.5</ele>
        <time>2021-08-04T14:25:12Z</time>
      </trkpt>
      <trkpt lat="45.61657" lon="3.25991">
        <ele>580.8</ele>
        <time>2021-08-04T14:25:14Z</time>
      </trkpt>
      <trkpt lat="45.61653" lon="3.25993">
        <ele>581</ele>
        <time>2021-08-04T14:25:16Z</time>
      </trkpt>
      <trkpt lat="45.61649" lon="3.25996">
        <ele>581.2</ele>
        <time>2021-08-04T14:25:18Z</time>
      </trkpt>
      <trkpt lat="45.61645" lon="3.25999">
        <ele>581.4</ele>
        <time>2021-08-04T14:25:20Z</time>
      </trkpt>
      <trkpt lat="45.61641" lon="3.26002">
        <ele>581.5</ele>
        <time>2021-08-04T14:25:22Z</time>
      </trkpt>
      <trkpt lat="45.61637" lon="3.26005">
        <ele>581.7</ele>
        <time>2021-08-04T14:25:24Z</time>
      </trkpt>
      <trkpt lat="45.61634" lon="3.26008">
        <ele>581.9</ele>
        <time>2021-08-04T14:25:26Z</time>
      </trkpt>
      <trkpt lat="45.6163" lon="3.26011">
        <ele>582</ele>
        <time>2021-08-04T14:25:28Z</time>
      </trkpt>
      <trkpt lat="45.61626" lon="3.26014">
        <ele>582.1</ele>
        <time>2021-08-04T14:25:30Z</time>
      </trkpt>
      <trkpt lat="45.61622" lon="3.26017">
        <ele>582.3</ele>
        <time>2021-08-04T14:25:32Z</time>
      </trkpt>
      <trkpt lat="45.61618" lon="3.26021">
        <ele>582.5</ele>
        <time>2021-08-04T14:25:34Z</time>
      </trkpt>
      <trkpt lat="45.61615" lon="3.26025">
        <ele>582.7</ele>
        <time>2021-08-04T14:25:36Z</time>
      </trkpt>
      <trkpt lat="45.61612" lon="3.26028">
        <ele>582.8</ele>
        <time>2021-08-04T14:25:38Z</time>
      </trkpt>
      <trkpt lat="45.61608" lon="3.26033">
        <ele>583.1</ele>
        <time>2021-08-04T14:25:40Z</time>
      </trkpt>
      <trkpt lat="45.61605" lon="3.26038">
        <ele>583.4</ele>
        <time>2021-08-04T14:25:42Z</time>
      </trkpt>
      <trkpt lat="45.61603" lon="3.26042">
        <ele>583.6</ele>
        <time>2021-08-04T14:25:44Z</time>
      </trkpt>
      <trkpt lat="45.616" lon="3.26047">
        <ele>583.9</ele>
        <time>2021-08-04T14:25:46Z</time>
      </trkpt>
      <trkpt lat="45.61598" lon="3.26052">
        <ele>584.2</ele>
        <time>2021-08-04T14:25:48Z</time>
      </trkpt>
      <trkpt lat="45.61596" lon="3.26058">
        <ele>584.6</ele>
        <time>2021-08-04T14:25:50Z</time>
      </trkpt>
      <trkpt lat="45.61594" lon="3.26063">
        <ele>584.9</ele>
        <time>2021-08-04T14:25:52Z</time>
      </trkpt>
      <trkpt lat="45.61594" lon="3.26069">
        <ele>585.3</ele>
        <time>2021-08-04T14:25:54Z</time>
      </trkpt>
      <trkpt lat="45.61592" lon="3.26075">
        <ele>585.7</ele>
        <time>2021-08-04T14:25:56Z</time>
      </trkpt>
      <trkpt lat="45.61592" lon="3.26081">
        <ele>586.1</ele>
        <time>2021-08-04T14:25:58Z</time>
      </trkpt>
      <trkpt lat="45.6159" lon="3.26086">
        <ele>586.4</ele>
        <time>2021-08-04T14:26:00Z</time>
      </trkpt>
      <trkpt lat="45.61589" lon="3.26092">
        <ele>586.7</ele>
        <time>2021-08-04T14:26:02Z</time>
      </trkpt>
      <trkpt lat="45.61588" lon="3.26097">
        <ele>587</ele>
        <time>2021-08-04T14:26:04Z</time>
      </trkpt>
      <trkpt lat="45.61586" lon="3.26102">
        <ele>587.3</ele>
        <time>2021-08-04T14:26:06Z</time>
      </trkpt>
      <trkpt lat="45.61585" lon="3.26108">
        <ele>587.6</ele>
        <time>2021-08-04T14:26:08Z</time>
      </trkpt>
      <trkpt lat="45.61584" lon="3.26114">
        <ele>587.9</ele>
        <time>2021-08-04T14:26:10Z</time>
      </trkpt>
      <trkpt lat="45.61583" lon="3.26119">
        <ele>588.1</ele>
        <time>2021-08-04T14:26:12Z</time>
      </trkpt>
      <trkpt lat="45.61582" lon="3.26125">
        <ele>588.3</ele>
        <time>2021-08-04T14:26:14Z</time>
      </trkpt>
      <trkpt lat="45.6158" lon="3.2613">
        <ele>588.5</ele>
        <time>2021-08-04T14:26:16Z</time>
      </trkpt>
      <trkpt lat="45.61579" lon="3.26136">
        <ele>588.8</ele>
        <time>2021-08-04T14:26:18Z</time>
      </trkpt>
      <trkpt lat="45.61578" lon="3.26142">
        <ele>589</ele>
        <time>2021-08-04T14:26:20Z</time>
      </trkpt>
      <trkpt lat="45.61576" lon="3.26148">
        <ele>589.2</ele>
        <time>2021-08-04T14:26:22Z</time>
      </trkpt>
      <trkpt lat="45.61575" lon="3.26153">
        <ele>589.4</ele>
        <time>2021-08-04T14:26:24Z</time>
      </trkpt>
      <trkpt lat="45.61574" lon="3.2616">
        <ele>589.7</ele>
        <time>2021-08-04T14:26:26Z</time>
      </trkpt>
      <trkpt lat="45.61573" lon="3.26166">
        <ele>590</ele>
        <time>2021-08-04T14:26:28Z</time>
      </trkpt>
      <trkpt lat="45.61573" lon="3.26173">
        <ele>590.2</ele>
        <time>2021-08-04T14:26:30Z</time>
      </trkpt>
      <trkpt lat="45.61572" lon="3.26178">
        <ele>590.5</ele>
        <time>2021-08-04T14:26:32Z</time>
      </trkpt>
      <trkpt lat="45.61571" lon="3.26185">
        <ele>590.7</ele>
        <time>2021-08-04T14:26:34Z</time>
      </trkpt>
      <trkpt lat="45.61571" lon="3.26191">
        <ele>591</ele>
        <time>2021-08-04T14:26:36Z</time>
      </trkpt>
      <trkpt lat="45.61571" lon="3.26197">
        <ele>591.3</ele>
        <time>2021-08-04T14:26:38Z</time>
      </trkpt>
      <trkpt lat="45.61571" lon="3.26203">
        <ele>591.6</ele>
        <time>2021-08-04T14:26:40Z</time>
      </trkpt>
      <trkpt lat="45.61571" lon="3.2621">
        <ele>591.9</ele>
        <time>2021-08-04T14:26:42Z</time>
      </trkpt>
      <trkpt lat="45.61571" lon="3.26216">
        <ele>592.2</ele>
        <time>2021-08-04T14:26:44Z</time>
      </trkpt>
      <trkpt lat="45.61572" lon="3.26222">
        <ele>592.5</ele>
        <time>2021-08-04T14:26:46Z</time>
      </trkpt>
      <trkpt lat="45.61572" lon="3.26228">
        <ele>592.8</ele>
        <time>2021-08-04T14:26:48Z</time>
      </trkpt>
      <trkpt lat="45.61572" lon="3.26234">
        <ele>593.1</ele>
        <time>2021-08-04T14:26:50Z</time>
      </trkpt>
      <trkpt lat="45.61573" lon="3.2624">
        <ele>593.4</ele>
        <time>2021-08-04T14:26:52Z</time>
      </trkpt>
      <trkpt lat="45.61574" lon="3.26246">
        <ele>593.7</ele>
        <time>2021-08-04T14:26:54Z</time>
      </trkpt>
      <trkpt lat="45.61575" lon="3.26252">
        <ele>594.1</ele>
        <time>2021-08-04T14:26:56Z</time>
      </trkpt>
      <trkpt lat="45.61575" lon="3.26258">
        <ele>594.5</ele>
        <time>2021-08-04T14:26:58Z</time>
      </trkpt>
      <trkpt lat="45.61576" lon="3.26265">
        <ele>595</ele>
        <time>2021-08-04T14:27:00Z</time>
      </trkpt>
      <trkpt lat="45.61576" lon="3.26271">
        <ele>595.5</ele>
        <time>2021-08-04T14:27:02Z</time>
      </trkpt>
      <trkpt lat="45.61577" lon="3.26277">
        <ele>595.9</ele>
        <time>2021-08-04T14:27:04Z</time>
      </trkpt>
      <trkpt lat="45.61576" lon="3.26283">
        <ele>596.4</ele>
        <time>2021-08-04T14:27:06Z</time>
      </trkpt>
      <trkpt lat="45.61577" lon="3.26289">
        <ele>596.8</ele>
        <time>2021-08-04T14:27:08Z</time>
      </trkpt>
      <trkpt lat="45.61576" lon="3.26295">
        <ele>597.2</ele>
        <time>2021-08-04T14:27:10Z</time>
      </trkpt>
      <trkpt lat="45.61575" lon="3.26301">
        <ele>597.7</ele>
        <time>2021-08-04T14:27:12Z</time>
      </trkpt>
      <trkpt lat="45.61573" lon="3.26307">
        <ele>598.2</ele>
        <time>2021-08-04T14:27:14Z</time>
      </trkpt>
      <trkpt lat="45.61569" lon="3.26312">
        <ele>598.5</ele>
        <time>2021-08-04T14:27:16Z</time>
      </trkpt>
      <trkpt lat="45.61566" lon="3.26315">
        <ele>598.8</ele>
        <time>2021-08-04T14:27:18Z</time>
      </trkpt>
      <trkpt lat="45.61562" lon="3.26319">
        <ele>599.1</ele>
        <time>2021-08-04T14:27:20Z</time>
      </trkpt>
      <trkpt lat="45.61558" lon="3.26321">
        <ele>599.3</ele>
        <time>2021-08-04T14:27:22Z</time>
      </trkpt>
      <trkpt lat="45.61554" lon="3.26322">
        <ele>599.4</ele>
        <time>2021-08-04T14:27:24Z</time>
      </trkpt>
      <trkpt lat="45.61549" lon="3.26323">
        <ele>599.6</ele>
        <time>2021-08-04T14:27:26Z</time>
      </trkpt>
      <trkpt lat="45.61544" lon="3.26324">
        <ele>599.7</ele>
        <time>2021-08-04T14:27:28Z</time>
      </trkpt>
      <trkpt lat="45.6154" lon="3.26325">
        <ele>599.8</ele>
        <time>2021-08-04T14:27:30Z</time>
      </trkpt>
      <trkpt lat="45.61535" lon="3.26327">
        <ele>600</ele>
        <time>2021-08-04T14:27:32Z</time>
      </trkpt>
      <trkpt lat="45.61531" lon="3.26327">
        <ele>600.1</ele>
        <time>2021-08-04T14:27:34Z</time>
      </trkpt>
      <trkpt lat="45.61526" lon="3.26327">
        <ele>600.2</ele>
        <time>2021-08-04T14:27:36Z</time>
      </trkpt>
      <trkpt lat="45.61522" lon="3.26329">
        <ele>600.3</ele>
        <time>2021-08-04T14:27:38Z</time>
      </trkpt>
      <trkpt lat="45.61517" lon="3.26329">
        <ele>600.4</ele>
        <time>2021-08-04T14:27:40Z</time>
      </trkpt>
      <trkpt lat="45.61513" lon="3.2633">
        <ele>600.5</ele>
        <time>2021-08-04T14:27:42Z</time>
      </trkpt>
      <trkpt lat="45.61509" lon="3.2633">
        <ele>600.6</ele>
        <time>2021-08-04T14:27:44Z</time>
      </trkpt>
      <trkpt lat="45.61505" lon="3.26331">
        <ele>600.7</ele>
        <time>2021-08-04T14:27:46Z</time>
      </trkpt>
      <trkpt lat="45.615" lon="3.26332">
        <ele>600.9</ele>
        <time>2021-08-04T14:27:48Z</time>
      </trkpt>
      <trkpt lat="45.61496" lon="3.26334">
        <ele>601.1</ele>
        <time>2021-08-04T14:27:50Z</time>
      </trkpt>
      <trkpt lat="45.61492" lon="3.26335">
        <ele>601.3</ele>
        <time>2021-08-04T14:27:52Z</time>
      </trkpt>
      <trkpt lat="45.61488" lon="3.26336">
        <ele>601.5</ele>
        <time>2021-08-04T14:27:54Z</time>
      </trkpt>
      <trkpt lat="45.61484" lon="3.26337">
        <ele>601.7</ele>
        <time>2021-08-04T14:27:56Z</time>
      </trkpt>
      <trkpt lat="45.6148" lon="3.26338">
        <ele>601.9</ele>
        <time>2021-08-04T14:27:58Z</time>
      </trkpt>
      <trkpt lat="45.61476" lon="3.26338">
        <ele>602</ele>
        <time>2021-08-04T14:28:00Z</time>
      </trkpt>
      <trkpt lat="45.61472" lon="3.26339">
        <ele>602.2</ele>
        <time>2021-08-04T14:28:02Z</time>
      </trkpt>
      <trkpt lat="45.61467" lon="3.2634">
        <ele>602.3</ele>
        <time>2021-08-04T14:28:04Z</time>
      </trkpt>
      <trkpt lat="45.61463" lon="3.2634">
        <ele>602.5</ele>
        <time>2021-08-04T14:28:06Z</time>
      </trkpt>
      <trkpt lat="45.61459" lon="3.26341">
        <ele>602.7</ele>
        <time>2021-08-04T14:28:08Z</time>
      </trkpt>
      <trkpt lat="45.61455" lon="3.26342">
        <ele>602.9</ele>
        <time>2021-08-04T14:28:10Z</time>
      </trkpt>
      <trkpt lat="45.6145" lon="3.26343">
        <ele>603.1</ele>
        <time>2021-08-04T14:28:12Z</time>
      </trkpt>
      <trkpt lat="45.61446" lon="3.26344">
        <ele>603.3</ele>
        <time>2021-08-04T14:28:14Z</time>
      </trkpt>
      <trkpt lat="45.61442" lon="3.26345">
        <ele>603.5</ele>
        <time>2021-08-04T14:28:16Z</time>
      </trkpt>
      <trkpt lat="45.61437" lon="3.26345">
        <ele>603.6</ele>
        <time>2021-08-04T14:28:18Z</time>
      </trkpt>
      <trkpt lat="45.61433" lon="3.26346">
        <ele>603.8</ele>
        <time>2021-08-04T14:28:20Z</time>
      </trkpt>
      <trkpt lat="45.61429" lon="3.26348">
        <ele>604.1</ele>
        <time>2021-08-04T14:28:22Z</time>
      </trkpt>
      <trkpt lat="45.61425" lon="3.26348">
        <ele>604.2</ele>
        <time>2021-08-04T14:28:24Z</time>
      </trkpt>
      <trkpt lat="45.6142" lon="3.26349">
        <ele>604.4</ele>
        <time>2021-08-04T14:28:26Z</time>
      </trkpt>
      <trkpt lat="45.61416" lon="3.2635">
        <ele>604.7</ele>
        <time>2021-08-04T14:28:28Z</time>
      </trkpt>
      <trkpt lat="45.61412" lon="3.26351">
        <ele>604.9</ele>
        <time>2021-08-04T14:28:30Z</time>
      </trkpt>
      <trkpt lat="45.61408" lon="3.26352">
        <ele>605.2</ele>
        <time>2021-08-04T14:28:32Z</time>
      </trkpt>
      <trkpt lat="45.61403" lon="3.26353">
        <ele>605.4</ele>
        <time>2021-08-04T14:28:34Z</time>
      </trkpt>
      <trkpt lat="45.61399" lon="3.26354">
        <ele>605.6</ele>
        <time>2021-08-04T14:28:36Z</time>
      </trkpt>
      <trkpt lat="45.61394" lon="3.26354">
        <ele>605.8</ele>
        <time>2021-08-04T14:28:38Z</time>
      </trkpt>
      <trkpt lat="45.6139" lon="3.26355">
        <ele>606.1</ele>
        <time>2021-08-04T14:28:40Z</time>
      </trkpt>
      <trkpt lat="45.61386" lon="3.26356">
        <ele>606.4</ele>
        <time>2021-08-04T14:28:42Z</time>
      </trkpt>
      <trkpt lat="45.61382" lon="3.26357">
        <ele>606.6</ele>
        <time>2021-08-04T14:28:44Z</time>
      </trkpt>
      <trkpt lat="45.61378" lon="3.26358">
        <ele>606.9</ele>
        <time>2021-08-04T14:28:46Z</time>
      </trkpt>
      <trkpt lat="45.61374" lon="3.26358">
        <ele>607.1</ele>
        <time>2021-08-04T14:28:48Z</time>
      </trkpt>
      <trkpt lat="45.6137" lon="3.26359">
        <ele>607.4</ele>
        <time>2021-08-04T14:28:50Z</time>
      </trkpt>
      <trkpt lat="45.61366" lon="3.26361">
        <ele>607.6</ele>
        <time>2021-08-04T14:28:52Z</time>
      </trkpt>
      <trkpt lat="45.61361" lon="3.26361">
        <ele>607.9</ele>
        <time>2021-08-04T14:28:54Z</time>
      </trkpt>
      <trkpt lat="45.61357" lon="3.26362">
        <ele>608.2</ele>
        <time>2021-08-04T14:28:56Z</time>
      </trkpt>
      <trkpt lat="45.61353" lon="3.26363">
        <ele>608.4</ele>
        <time>2021-08-04T14:28:58Z</time>
      </trkpt>
      <trkpt lat="45.61349" lon="3.26364">
        <ele>608.7</ele>
        <time>2021-08-04T14:29:00Z</time>
      </trkpt>
      <trkpt lat="45.61345" lon="3.26365">
        <ele>608.9</ele>
        <time>2021-08-04T14:29:02Z</time>
      </trkpt>
      <trkpt lat="45.61341" lon="3.26366">
        <ele>609.2</ele>
        <time>2021-08-04T14:29:04Z</time>
      </trkpt>
      <trkpt lat="45.61337" lon="3.26367">
        <ele>609.5</ele>
        <time>2021-08-04T14:29:06Z</time>
      </trkpt>
      <trkpt lat="45.61333" lon="3.26367">
        <ele>609.7</ele>
        <time>2021-08-04T14:29:08Z</time>
      </trkpt>
      <trkpt lat="45.61329" lon="3.26368">
        <ele>610.1</ele>
        <time>2021-08-04T14:29:10Z</time>
      </trkpt>
      <trkpt lat="45.61325" lon="3.26368">
        <ele>610.4</ele>
        <time>2021-08-04T14:29:12Z</time>
      </trkpt>
      <trkpt lat="45.6132" lon="3.26369">
        <ele>610.8</ele>
        <time>2021-08-04T14:29:14Z</time>
      </trkpt>
      <trkpt lat="45.61316" lon="3.2637">
        <ele>611.2</ele>
        <time>2021-08-04T14:29:16Z</time>
      </trkpt>
      <trkpt lat="45.61313" lon="3.2637">
        <ele>611.5</ele>
        <time>2021-08-04T14:29:18Z</time>
      </trkpt>
      <trkpt lat="45.61309" lon="3.26371">
        <ele>611.8</ele>
        <time>2021-08-04T14:29:20Z</time>
      </trkpt>
      <trkpt lat="45.61305" lon="3.26372">
        <ele>612.2</ele>
        <time>2021-08-04T14:29:22Z</time>
      </trkpt>
      <trkpt lat="45.61301" lon="3.26372">
        <ele>612.5</ele>
        <time>2021-08-04T14:29:24Z</time>
      </trkpt>
      <trkpt lat="45.61296" lon="3.26372">
        <ele>612.8</ele>
        <time>2021-08-04T14:29:26Z</time>
      </trkpt>
      <trkpt lat="45.61292" lon="3.26371">
        <ele>613</ele>
        <time>2021-08-04T14:29:28Z</time>
      </trkpt>
      <trkpt lat="45.61288" lon="3.2637">
        <ele>613.2</ele>
        <time>2021-08-04T14:29:30Z</time>
      </trkpt>
      <trkpt lat="45.61284" lon="3.26369">
        <ele>613.3</ele>
        <time>2021-08-04T14:29:32Z</time>
      </trkpt>
      <trkpt lat="45.6128" lon="3.26367">
        <ele>613.3</ele>
        <time>2021-08-04T14:29:34Z</time>
      </trkpt>
      <trkpt lat="45.61275" lon="3.26365">
        <ele>613.4</ele>
        <time>2021-08-04T14:29:36Z</time>
      </trkpt>
      <trkpt lat="45.61271" lon="3.26363">
        <ele>613.5</ele>
        <time>2021-08-04T14:29:38Z</time>
      </trkpt>
      <trkpt lat="45.61267" lon="3.2636">
        <ele>613.4</ele>
        <time>2021-08-04T14:29:40Z</time>
      </trkpt>
      <trkpt lat="45.61263" lon="3.26358">
        <ele>613.4</ele>
        <time>2021-08-04T14:29:42Z</time>
      </trkpt>
      <trkpt lat="45.61259" lon="3.26356">
        <ele>613.4</ele>
        <time>2021-08-04T14:29:44Z</time>
      </trkpt>
      <trkpt lat="45.61255" lon="3.26354">
        <ele>613.4</ele>
        <time>2021-08-04T14:29:46Z</time>
      </trkpt>
      <trkpt lat="45.61251" lon="3.26352">
        <ele>613.4</ele>
        <time>2021-08-04T14:29:48Z</time>
      </trkpt>
      <trkpt lat="45.61247" lon="3.26351">
        <ele>613.6</ele>
        <time>2021-08-04T14:29:50Z</time>
      </trkpt>
      <trkpt lat="45.61243" lon="3.2635">
        <ele>613.9</ele>
        <time>2021-08-04T14:29:52Z</time>
      </trkpt>
      <trkpt lat="45.61239" lon="3.26351">
        <ele>614.5</ele>
        <time>2021-08-04T14:29:54Z</time>
      </trkpt>
      <trkpt lat="45.61234" lon="3.26352">
        <ele>615</ele>
        <time>2021-08-04T14:29:56Z</time>
      </trkpt>
      <trkpt lat="45.6123" lon="3.26354">
        <ele>615.7</ele>
        <time>2021-08-04T14:29:58Z</time>
      </trkpt>
      <trkpt lat="45.61227" lon="3.26357">
        <ele>616.4</ele>
        <time>2021-08-04T14:30:00Z</time>
      </trkpt>
      <trkpt lat="45.61223" lon="3.2636">
        <ele>617.2</ele>
        <time>2021-08-04T14:30:02Z</time>
      </trkpt>
      <trkpt lat="45.6122" lon="3.26365">
        <ele>618.1</ele>
        <time>2021-08-04T14:30:04Z</time>
      </trkpt>
      <trkpt lat="45.61218" lon="3.2637">
        <ele>619</ele>
        <time>2021-08-04T14:30:06Z</time>
      </trkpt>
      <trkpt lat="45.61217" lon="3.26375">
        <ele>620</ele>
        <time>2021-08-04T14:30:08Z</time>
      </trkpt>
      <trkpt lat="45.61216" lon="3.26381">
        <ele>620.9</ele>
        <time>2021-08-04T14:30:10Z</time>
      </trkpt>
      <trkpt lat="45.61215" lon="3.26388">
        <ele>621.8</ele>
        <time>2021-08-04T14:30:12Z</time>
      </trkpt>
      <trkpt lat="45.61215" lon="3.26394">
        <ele>622.6</ele>
        <time>2021-08-04T14:30:14Z</time>
      </trkpt>
      <trkpt lat="45.61216" lon="3.26399">
        <ele>623.3</ele>
        <time>2021-08-04T14:30:16Z</time>
      </trkpt>
      <trkpt lat="45.61217" lon="3.26405">
        <ele>624</ele>
        <time>2021-08-04T14:30:18Z</time>
      </trkpt>
      <trkpt lat="45.61219" lon="3.2641">
        <ele>624.5</ele>
        <time>2021-08-04T14:30:20Z</time>
      </trkpt>
      <trkpt lat="45.61221" lon="3.26415">
        <ele>624.9</ele>
        <time>2021-08-04T14:30:22Z</time>
      </trkpt>
      <trkpt lat="45.61224" lon="3.2642">
        <ele>625.4</ele>
        <time>2021-08-04T14:30:24Z</time>
      </trkpt>
      <trkpt lat="45.61227" lon="3.26423">
        <ele>625.6</ele>
        <time>2021-08-04T14:30:26Z</time>
      </trkpt>
      <trkpt lat="45.61231" lon="3.26426">
        <ele>625.7</ele>
        <time>2021-08-04T14:30:28Z</time>
      </trkpt>
      <trkpt lat="45.61235" lon="3.26429">
        <ele>625.7</ele>
        <time>2021-08-04T14:30:30Z</time>
      </trkpt>
      <trkpt lat="45.61239" lon="3.26431">
        <ele>625.7</ele>
        <time>2021-08-04T14:30:32Z</time>
      </trkpt>
      <trkpt lat="45.61243" lon="3.26434">
        <ele>625.7</ele>
        <time>2021-08-04T14:30:34Z</time>
      </trkpt>
      <trkpt lat="45.61248" lon="3.26436">
        <ele>625.7</ele>
        <time>2021-08-04T14:30:36Z</time>
      </trkpt>
      <trkpt lat="45.61252" lon="3.26439">
        <ele>625.8</ele>
        <time>2021-08-04T14:30:38Z</time>
      </trkpt>
      <trkpt lat="45.61256" lon="3.26442">
        <ele>625.9</ele>
        <time>2021-08-04T14:30:40Z</time>
      </trkpt>
      <trkpt lat="45.6126" lon="3.26444">
        <ele>626</ele>
        <time>2021-08-04T14:30:42Z</time>
      </trkpt>
      <trkpt lat="45.61264" lon="3.26447">
        <ele>626.2</ele>
        <time>2021-08-04T14:30:44Z</time>
      </trkpt>
      <trkpt lat="45.61268" lon="3.2645">
        <ele>626.3</ele>
        <time>2021-08-04T14:30:46Z</time>
      </trkpt>
      <trkpt lat="45.61273" lon="3.26452">
        <ele>626.3</ele>
        <time>2021-08-04T14:30:48Z</time>
      </trkpt>
      <trkpt lat="45.61277" lon="3.26454">
        <ele>626.4</ele>
        <time>2021-08-04T14:30:50Z</time>
      </trkpt>
      <trkpt lat="45.61281" lon="3.26457">
        <ele>626.4</ele>
        <time>2021-08-04T14:30:52Z</time>
      </trkpt>
      <trkpt lat="45.61286" lon="3.2646">
        <ele>626.5</ele>
        <time>2021-08-04T14:30:54Z</time>
      </trkpt>
      <trkpt lat="45.6129" lon="3.26462">
        <ele>626.6</ele>
        <time>2021-08-04T14:30:56Z</time>
      </trkpt>
      <trkpt lat="45.61294" lon="3.26465">
        <ele>626.7</ele>
        <time>2021-08-04T14:30:58Z</time>
      </trkpt>
      <trkpt lat="45.61298" lon="3.26467">
        <ele>626.8</ele>
        <time>2021-08-04T14:31:00Z</time>
      </trkpt>
      <trkpt lat="45.61302" lon="3.2647">
        <ele>626.9</ele>
        <time>2021-08-04T14:31:02Z</time>
      </trkpt>
      <trkpt lat="45.61306" lon="3.26473">
        <ele>627</ele>
        <time>2021-08-04T14:31:04Z</time>
      </trkpt>
      <trkpt lat="45.6131" lon="3.26476">
        <ele>627.2</ele>
        <time>2021-08-04T14:31:06Z</time>
      </trkpt>
      <trkpt lat="45.61315" lon="3.26478">
        <ele>627</ele>
        <time>2021-08-04T14:31:08Z</time>
      </trkpt>
      <trkpt lat="45.61319" lon="3.26481">
        <ele>627.1</ele>
        <time>2021-08-04T14:31:10Z</time>
      </trkpt>
      <trkpt lat="45.61323" lon="3.26483">
        <ele>627.1</ele>
        <time>2021-08-04T14:31:12Z</time>
      </trkpt>
      <trkpt lat="45.61327" lon="3.26485">
        <ele>627.1</ele>
        <time>2021-08-04T14:31:14Z</time>
      </trkpt>
      <trkpt lat="45.61331" lon="3.26488">
        <ele>627.2</ele>
        <time>2021-08-04T14:31:16Z</time>
      </trkpt>
      <trkpt lat="45.61335" lon="3.2649">
        <ele>627.2</ele>
        <time>2021-08-04T14:31:18Z</time>
      </trkpt>
      <trkpt lat="45.61339" lon="3.26493">
        <ele>627.5</ele>
        <time>2021-08-04T14:31:20Z</time>
      </trkpt>
      <trkpt lat="45.61344" lon="3.26495">
        <ele>627.7</ele>
        <time>2021-08-04T14:31:22Z</time>
      </trkpt>
      <trkpt lat="45.61348" lon="3.26498">
        <ele>627.9</ele>
        <time>2021-08-04T14:31:24Z</time>
      </trkpt>
      <trkpt lat="45.61353" lon="3.265">
        <ele>628.1</ele>
        <time>2021-08-04T14:31:26Z</time>
      </trkpt>
      <trkpt lat="45.61357" lon="3.26502">
        <ele>628.2</ele>
        <time>2021-08-04T14:31:28Z</time>
      </trkpt>
      <trkpt lat="45.61362" lon="3.26505">
        <ele>628.5</ele>
        <time>2021-08-04T14:31:30Z</time>
      </trkpt>
      <trkpt lat="45.61366" lon="3.26507">
        <ele>628.9</ele>
        <time>2021-08-04T14:31:32Z</time>
      </trkpt>
      <trkpt lat="45.6137" lon="3.2651">
        <ele>629.3</ele>
        <time>2021-08-04T14:31:34Z</time>
      </trkpt>
      <trkpt lat="45.61374" lon="3.26513">
        <ele>629.7</ele>
        <time>2021-08-04T14:31:36Z</time>
      </trkpt>
      <trkpt lat="45.61378" lon="3.26516">
        <ele>630.1</ele>
        <time>2021-08-04T14:31:38Z</time>
      </trkpt>
      <trkpt lat="45.61382" lon="3.26519">
        <ele>630.5</ele>
        <time>2021-08-04T14:31:40Z</time>
      </trkpt>
      <trkpt lat="45.61386" lon="3.26522">
        <ele>631.1</ele>
        <time>2021-08-04T14:31:42Z</time>
      </trkpt>
      <trkpt lat="45.6139" lon="3.26525">
        <ele>631.6</ele>
        <time>2021-08-04T14:31:44Z</time>
      </trkpt>
      <trkpt lat="45.61394" lon="3.26528">
        <ele>632</ele>
        <time>2021-08-04T14:31:46Z</time>
      </trkpt>
      <trkpt lat="45.61397" lon="3.26532">
        <ele>632.7</ele>
        <time>2021-08-04T14:31:48Z</time>
      </trkpt>
      <trkpt lat="45.61401" lon="3.26536">
        <ele>633.4</ele>
        <time>2021-08-04T14:31:50Z</time>
      </trkpt>
      <trkpt lat="45.61404" lon="3.26539">
        <ele>633.9</ele>
        <time>2021-08-04T14:31:52Z</time>
      </trkpt>
      <trkpt lat="45.61408" lon="3.26543">
        <ele>634.5</ele>
        <time>2021-08-04T14:31:54Z</time>
      </trkpt>
      <trkpt lat="45.61412" lon="3.26546">
        <ele>635.2</ele>
        <time>2021-08-04T14:31:56Z</time>
      </trkpt>
      <trkpt lat="45.61415" lon="3.2655">
        <ele>635.9</ele>
        <time>2021-08-04T14:31:58Z</time>
      </trkpt>
      <trkpt lat="45.61419" lon="3.26554">
        <ele>636.4</ele>
        <time>2021-08-04T14:32:00Z</time>
      </trkpt>
      <trkpt lat="45.61422" lon="3.26558">
        <ele>636.9</ele>
        <time>2021-08-04T14:32:02Z</time>
      </trkpt>
      <trkpt lat="45.61426" lon="3.2656">
        <ele>637.1</ele>
        <time>2021-08-04T14:32:04Z</time>
      </trkpt>
      <trkpt lat="45.61429" lon="3.26563">
        <ele>637.4</ele>
        <time>2021-08-04T14:32:06Z</time>
      </trkpt>
      <trkpt lat="45.61433" lon="3.26567">
        <ele>637.8</ele>
        <time>2021-08-04T14:32:08Z</time>
      </trkpt>
      <trkpt lat="45.61436" lon="3.2657">
        <ele>638</ele>
        <time>2021-08-04T14:32:10Z</time>
      </trkpt>
      <trkpt lat="45.61441" lon="3.26572">
        <ele>638.2</ele>
        <time>2021-08-04T14:32:12Z</time>
      </trkpt>
      <trkpt lat="45.61444" lon="3.26575">
        <ele>638.3</ele>
        <time>2021-08-04T14:32:14Z</time>
      </trkpt>
      <trkpt lat="45.61448" lon="3.26576">
        <ele>638.2</ele>
        <time>2021-08-04T14:32:16Z</time>
      </trkpt>
      <trkpt lat="45.61452" lon="3.26578">
        <ele>638.1</ele>
        <time>2021-08-04T14:32:18Z</time>
      </trkpt>
      <trkpt lat="45.61457" lon="3.26579">
        <ele>637.9</ele>
        <time>2021-08-04T14:32:20Z</time>
      </trkpt>
      <trkpt lat="45.61461" lon="3.26582">
        <ele>637.9</ele>
        <time>2021-08-04T14:32:22Z</time>
      </trkpt>
      <trkpt lat="45.61465" lon="3.26583">
        <ele>637.7</ele>
        <time>2021-08-04T14:32:24Z</time>
      </trkpt>
      <trkpt lat="45.61469" lon="3.26584">
        <ele>637.4</ele>
        <time>2021-08-04T14:32:26Z</time>
      </trkpt>
      <trkpt lat="45.61474" lon="3.26583">
        <ele>636.9</ele>
        <time>2021-08-04T14:32:28Z</time>
      </trkpt>
      <trkpt lat="45.61478" lon="3.26584">
        <ele>636.4</ele>
        <time>2021-08-04T14:32:30Z</time>
      </trkpt>
      <trkpt lat="45.61482" lon="3.26584">
        <ele>636.1</ele>
        <time>2021-08-04T14:32:32Z</time>
      </trkpt>
      <trkpt lat="45.61486" lon="3.26585">
        <ele>635.7</ele>
        <time>2021-08-04T14:32:34Z</time>
      </trkpt>
      <trkpt lat="45.6149" lon="3.26586">
        <ele>635.5</ele>
        <time>2021-08-04T14:32:36Z</time>
      </trkpt>
      <trkpt lat="45.61495" lon="3.26588">
        <ele>635.3</ele>
        <time>2021-08-04T14:32:38Z</time>
      </trkpt>
      <trkpt lat="45.61499" lon="3.2659">
        <ele>635.1</ele>
        <time>2021-08-04T14:32:40Z</time>
      </trkpt>
      <trkpt lat="45.61503" lon="3.26591">
        <ele>635</ele>
        <time>2021-08-04T14:32:42Z</time>
      </trkpt>
      <trkpt lat="45.61506" lon="3.26593">
        <ele>635</ele>
        <time>2021-08-04T14:32:44Z</time>
      </trkpt>
      <trkpt lat="45.61511" lon="3.26595">
        <ele>635.1</ele>
        <time>2021-08-04T14:32:46Z</time>
      </trkpt>
      <trkpt lat="45.61514" lon="3.26597">
        <ele>635.1</ele>
        <time>2021-08-04T14:32:48Z</time>
      </trkpt>
      <trkpt lat="45.61518" lon="3.266">
        <ele>635.2</ele>
        <time>2021-08-04T14:32:50Z</time>
      </trkpt>
      <trkpt lat="45.61521" lon="3.26601">
        <ele>635.2</ele>
        <time>2021-08-04T14:32:52Z</time>
      </trkpt>
      <trkpt lat="45.61524" lon="3.26603">
        <ele>635.3</ele>
        <time>2021-08-04T14:32:54Z</time>
      </trkpt>
      <trkpt lat="45.61527" lon="3.26603">
        <ele>635</ele>
        <time>2021-08-04T14:32:56Z</time>
      </trkpt>
      <trkpt lat="45.61528" lon="3.26599">
        <ele>634.3</ele>
        <time>2021-08-04T14:32:58Z</time>
      </trkpt>
      <trkpt lat="45.61526" lon="3.26597">
        <ele>634.2</ele>
        <time>2021-08-04T14:33:00Z</time>
      </trkpt>
      <trkpt lat="45.61526" lon="3.26598">
        <ele>634.3</ele>
        <time>2021-08-04T14:33:02Z</time>
      </trkpt>
      <trkpt lat="45.61526" lon="3.26598">
        <ele>634.3</ele>
        <time>2021-08-04T14:33:04Z</time>
      </trkpt>
      <trkpt lat="45.61525" lon="3.26598">
        <ele>634.4</ele>
        <time>2021-08-04T14:33:06Z</time>
      </trkpt>
      <trkpt lat="45.61525" lon="3.26599">
        <ele>634.5</ele>
        <time>2021-08-04T14:33:08Z</time>
      </trkpt>
      <trkpt lat="45.61528" lon="3.26609">
        <ele>635.8</ele>
        <time>2021-08-04T14:34:32Z</time>
      </trkpt>
      <trkpt lat="45.61532" lon="3.26611">
        <ele>635.8</ele>
        <time>2021-08-04T14:34:34Z</time>
      </trkpt>
      <trkpt lat="45.61536" lon="3.26614">
        <ele>635.8</ele>
        <time>2021-08-04T14:34:36Z</time>
      </trkpt>
      <trkpt lat="45.6154" lon="3.26617">
        <ele>635.9</ele>
        <time>2021-08-04T14:34:38Z</time>
      </trkpt>
      <trkpt lat="45.61544" lon="3.2662">
        <ele>636.1</ele>
        <time>2021-08-04T14:34:40Z</time>
      </trkpt>
      <trkpt lat="45.61548" lon="3.26623">
        <ele>636.1</ele>
        <time>2021-08-04T14:34:42Z</time>
      </trkpt>
      <trkpt lat="45.61552" lon="3.26626">
        <ele>636.2</ele>
        <time>2021-08-04T14:34:44Z</time>
      </trkpt>
      <trkpt lat="45.61555" lon="3.26629">
        <ele>636.4</ele>
        <time>2021-08-04T14:34:46Z</time>
      </trkpt>
      <trkpt lat="45.61559" lon="3.26632">
        <ele>636.5</ele>
        <time>2021-08-04T14:34:48Z</time>
      </trkpt>
      <trkpt lat="45.61563" lon="3.26636">
        <ele>636.7</ele>
        <time>2021-08-04T14:34:50Z</time>
      </trkpt>
      <trkpt lat="45.61566" lon="3.26641">
        <ele>637.1</ele>
        <time>2021-08-04T14:34:52Z</time>
      </trkpt>
      <trkpt lat="45.6157" lon="3.26644">
        <ele>637.3</ele>
        <time>2021-08-04T14:34:54Z</time>
      </trkpt>
      <trkpt lat="45.61573" lon="3.26648">
        <ele>637.5</ele>
        <time>2021-08-04T14:34:56Z</time>
      </trkpt>
      <trkpt lat="45.61576" lon="3.26651">
        <ele>637.6</ele>
        <time>2021-08-04T14:34:58Z</time>
      </trkpt>
      <trkpt lat="45.61579" lon="3.26657">
        <ele>638</ele>
        <time>2021-08-04T14:35:00Z</time>
      </trkpt>
      <trkpt lat="45.61583" lon="3.26661">
        <ele>638.4</ele>
        <time>2021-08-04T14:35:02Z</time>
      </trkpt>
      <trkpt lat="45.61585" lon="3.26667">
        <ele>638.9</ele>
        <time>2021-08-04T14:35:04Z</time>
      </trkpt>
      <trkpt lat="45.61588" lon="3.26671">
        <ele>639.1</ele>
        <time>2021-08-04T14:35:06Z</time>
      </trkpt>
      <trkpt lat="45.61591" lon="3.26677">
        <ele>639.4</ele>
        <time>2021-08-04T14:35:08Z</time>
      </trkpt>
      <trkpt lat="45.61593" lon="3.26681">
        <ele>639.7</ele>
        <time>2021-08-04T14:35:10Z</time>
      </trkpt>
      <trkpt lat="45.61595" lon="3.26686">
        <ele>640</ele>
        <time>2021-08-04T14:35:12Z</time>
      </trkpt>
      <trkpt lat="45.61598" lon="3.26692">
        <ele>640.4</ele>
        <time>2021-08-04T14:35:14Z</time>
      </trkpt>
      <trkpt lat="45.616" lon="3.26696">
        <ele>640.7</ele>
        <time>2021-08-04T14:35:16Z</time>
      </trkpt>
      <trkpt lat="45.61603" lon="3.26701">
        <ele>640.9</ele>
        <time>2021-08-04T14:35:18Z</time>
      </trkpt>
      <trkpt lat="45.61606" lon="3.26706">
        <ele>641.1</ele>
        <time>2021-08-04T14:35:20Z</time>
      </trkpt>
      <trkpt lat="45.61608" lon="3.26711">
        <ele>641.4</ele>
        <time>2021-08-04T14:35:22Z</time>
      </trkpt>
      <trkpt lat="45.6161" lon="3.26716">
        <ele>641.7</ele>
        <time>2021-08-04T14:35:24Z</time>
      </trkpt>
      <trkpt lat="45.61612" lon="3.26721">
        <ele>642.1</ele>
        <time>2021-08-04T14:35:26Z</time>
      </trkpt>
      <trkpt lat="45.61613" lon="3.26726">
        <ele>642.4</ele>
        <time>2021-08-04T14:35:28Z</time>
      </trkpt>
      <trkpt lat="45.61615" lon="3.26731">
        <ele>642.7</ele>
        <time>2021-08-04T14:35:30Z</time>
      </trkpt>
      <trkpt lat="45.61618" lon="3.26737">
        <ele>643</ele>
        <time>2021-08-04T14:35:32Z</time>
      </trkpt>
      <trkpt lat="45.6162" lon="3.26742">
        <ele>643.3</ele>
        <time>2021-08-04T14:35:34Z</time>
      </trkpt>
      <trkpt lat="45.61622" lon="3.26747">
        <ele>643.5</ele>
        <time>2021-08-04T14:35:36Z</time>
      </trkpt>
      <trkpt lat="45.61624" lon="3.26752">
        <ele>643.8</ele>
        <time>2021-08-04T14:35:38Z</time>
      </trkpt>
      <trkpt lat="45.61626" lon="3.26757">
        <ele>644</ele>
        <time>2021-08-04T14:35:40Z</time>
      </trkpt>
      <trkpt lat="45.61628" lon="3.26762">
        <ele>644.2</ele>
        <time>2021-08-04T14:35:42Z</time>
      </trkpt>
      <trkpt lat="45.6163" lon="3.26767">
        <ele>644.5</ele>
        <time>2021-08-04T14:35:44Z</time>
      </trkpt>
      <trkpt lat="45.61632" lon="3.26772">
        <ele>644.7</ele>
        <time>2021-08-04T14:35:46Z</time>
      </trkpt>
      <trkpt lat="45.61634" lon="3.26778">
        <ele>644.9</ele>
        <time>2021-08-04T14:35:48Z</time>
      </trkpt>
      <trkpt lat="45.61635" lon="3.26783">
        <ele>645.2</ele>
        <time>2021-08-04T14:35:50Z</time>
      </trkpt>
      <trkpt lat="45.61637" lon="3.26789">
        <ele>645.5</ele>
        <time>2021-08-04T14:35:52Z</time>
      </trkpt>
      <trkpt lat="45.61638" lon="3.26794">
        <ele>645.8</ele>
        <time>2021-08-04T14:35:54Z</time>
      </trkpt>
      <trkpt lat="45.6164" lon="3.268">
        <ele>646.1</ele>
        <time>2021-08-04T14:35:56Z</time>
      </trkpt>
      <trkpt lat="45.61641" lon="3.26806">
        <ele>646.5</ele>
        <time>2021-08-04T14:35:58Z</time>
      </trkpt>
      <trkpt lat="45.61642" lon="3.26812">
        <ele>646.9</ele>
        <time>2021-08-04T14:36:00Z</time>
      </trkpt>
      <trkpt lat="45.61643" lon="3.26817">
        <ele>647.3</ele>
        <time>2021-08-04T14:36:02Z</time>
      </trkpt>
      <trkpt lat="45.61643" lon="3.26823">
        <ele>647.7</ele>
        <time>2021-08-04T14:36:04Z</time>
      </trkpt>
      <trkpt lat="45.61644" lon="3.26829">
        <ele>648.1</ele>
        <time>2021-08-04T14:36:06Z</time>
      </trkpt>
      <trkpt lat="45.61645" lon="3.26835">
        <ele>648.4</ele>
        <time>2021-08-04T14:36:08Z</time>
      </trkpt>
      <trkpt lat="45.61646" lon="3.26841">
        <ele>648.6</ele>
        <time>2021-08-04T14:36:10Z</time>
      </trkpt>
      <trkpt lat="45.61647" lon="3.26846">
        <ele>648.7</ele>
        <time>2021-08-04T14:36:12Z</time>
      </trkpt>
      <trkpt lat="45.61648" lon="3.26853">
        <ele>648.9</ele>
        <time>2021-08-04T14:36:14Z</time>
      </trkpt>
      <trkpt lat="45.61649" lon="3.26859">
        <ele>649</ele>
        <time>2021-08-04T14:36:16Z</time>
      </trkpt>
      <trkpt lat="45.61649" lon="3.26864">
        <ele>649.2</ele>
        <time>2021-08-04T14:36:18Z</time>
      </trkpt>
      <trkpt lat="45.61651" lon="3.2687">
        <ele>649.3</ele>
        <time>2021-08-04T14:36:20Z</time>
      </trkpt>
      <trkpt lat="45.61651" lon="3.26876">
        <ele>649.5</ele>
        <time>2021-08-04T14:36:22Z</time>
      </trkpt>
      <trkpt lat="45.61652" lon="3.26882">
        <ele>649.7</ele>
        <time>2021-08-04T14:36:24Z</time>
      </trkpt>
      <trkpt lat="45.61653" lon="3.26887">
        <ele>649.9</ele>
        <time>2021-08-04T14:36:26Z</time>
      </trkpt>
      <trkpt lat="45.61654" lon="3.26893">
        <ele>650</ele>
        <time>2021-08-04T14:36:28Z</time>
      </trkpt>
      <trkpt lat="45.61655" lon="3.26899">
        <ele>650.2</ele>
        <time>2021-08-04T14:36:30Z</time>
      </trkpt>
      <trkpt lat="45.61655" lon="3.26904">
        <ele>650.4</ele>
        <time>2021-08-04T14:36:32Z</time>
      </trkpt>
      <trkpt lat="45.61655" lon="3.2691">
        <ele>650.6</ele>
        <time>2021-08-04T14:36:34Z</time>
      </trkpt>
      <trkpt lat="45.61656" lon="3.26915">
        <ele>650.8</ele>
        <time>2021-08-04T14:36:36Z</time>
      </trkpt>
      <trkpt lat="45.61657" lon="3.26921">
        <ele>651</ele>
        <time>2021-08-04T14:36:38Z</time>
      </trkpt>
      <trkpt lat="45.61658" lon="3.26927">
        <ele>651</ele>
        <time>2021-08-04T14:36:40Z</time>
      </trkpt>
      <trkpt lat="45.61658" lon="3.26933">
        <ele>651.2</ele>
        <time>2021-08-04T14:36:42Z</time>
      </trkpt>
      <trkpt lat="45.61658" lon="3.26938">
        <ele>651.3</ele>
        <time>2021-08-04T14:36:44Z</time>
      </trkpt>
      <trkpt lat="45.61659" lon="3.26943">
        <ele>651.4</ele>
        <time>2021-08-04T14:36:46Z</time>
      </trkpt>
      <trkpt lat="45.61659" lon="3.26949">
        <ele>651.6</ele>
        <time>2021-08-04T14:36:48Z</time>
      </trkpt>
      <trkpt lat="45.61659" lon="3.26955">
        <ele>651.8</ele>
        <time>2021-08-04T14:36:50Z</time>
      </trkpt>
      <trkpt lat="45.61659" lon="3.2696">
        <ele>651.9</ele>
        <time>2021-08-04T14:36:52Z</time>
      </trkpt>
      <trkpt lat="45.61658" lon="3.26966">
        <ele>652.1</ele>
        <time>2021-08-04T14:36:54Z</time>
      </trkpt>
      <trkpt lat="45.61658" lon="3.26972">
        <ele>652.3</ele>
        <time>2021-08-04T14:36:56Z</time>
      </trkpt>
      <trkpt lat="45.61657" lon="3.26978">
        <ele>652.5</ele>
        <time>2021-08-04T14:36:58Z</time>
      </trkpt>
      <trkpt lat="45.61656" lon="3.26985">
        <ele>652.7</ele>
        <time>2021-08-04T14:37:00Z</time>
      </trkpt>
      <trkpt lat="45.61655" lon="3.2699">
        <ele>652.9</ele>
        <time>2021-08-04T14:37:02Z</time>
      </trkpt>
      <trkpt lat="45.61654" lon="3.26995">
        <ele>653</ele>
        <time>2021-08-04T14:37:04Z</time>
      </trkpt>
      <trkpt lat="45.61654" lon="3.27">
        <ele>653.2</ele>
        <time>2021-08-04T14:37:06Z</time>
      </trkpt>
      <trkpt lat="45.61653" lon="3.27005">
        <ele>653.3</ele>
        <time>2021-08-04T14:37:08Z</time>
      </trkpt>
      <trkpt lat="45.61651" lon="3.27009">
        <ele>653.4</ele>
        <time>2021-08-04T14:37:10Z</time>
      </trkpt>
      <trkpt lat="45.61648" lon="3.27013">
        <ele>653.4</ele>
        <time>2021-08-04T14:37:12Z</time>
      </trkpt>
      <trkpt lat="45.61646" lon="3.27014">
        <ele>653.5</ele>
        <time>2021-08-04T14:37:14Z</time>
      </trkpt>
      <trkpt lat="45.61647" lon="3.27016">
        <ele>653.5</ele>
        <time>2021-08-04T14:37:16Z</time>
      </trkpt>
      <trkpt lat="45.61648" lon="3.27018">
        <ele>653.5</ele>
        <time>2021-08-04T14:37:18Z</time>
      </trkpt>
      <trkpt lat="45.61647" lon="3.27017">
        <ele>653.5</ele>
        <time>2021-08-04T14:37:20Z</time>
      </trkpt>
      <trkpt lat="45.61647" lon="3.27018">
        <ele>653.5</ele>
        <time>2021-08-04T14:37:22Z</time>
      </trkpt>
      <trkpt lat="45.61647" lon="3.27018">
        <ele>653.5</ele>
        <time>2021-08-04T14:37:24Z</time>
      </trkpt>
      <trkpt lat="45.61647" lon="3.27041">
        <ele>653.9</ele>
        <time>2021-08-04T14:53:56Z</time>
      </trkpt>
      <trkpt lat="45.61645" lon="3.27047">
        <ele>653.9</ele>
        <time>2021-08-04T14:53:58Z</time>
      </trkpt>
      <trkpt lat="45.61643" lon="3.27053">
        <ele>653.9</ele>
        <time>2021-08-04T14:54:00Z</time>
      </trkpt>
      <trkpt lat="45.61641" lon="3.27059">
        <ele>653.9</ele>
        <time>2021-08-04T14:54:02Z</time>
      </trkpt>
      <trkpt lat="45.61637" lon="3.27065">
        <ele>653.8</ele>
        <time>2021-08-04T14:54:04Z</time>
      </trkpt>
      <trkpt lat="45.61633" lon="3.27072">
        <ele>653.6</ele>
        <time>2021-08-04T14:54:06Z</time>
      </trkpt>
      <trkpt lat="45.61628" lon="3.27079">
        <ele>653.2</ele>
        <time>2021-08-04T14:54:08Z</time>
      </trkpt>
      <trkpt lat="45.61623" lon="3.27088">
        <ele>652.9</ele>
        <time>2021-08-04T14:54:10Z</time>
      </trkpt>
      <trkpt lat="45.61617" lon="3.27096">
        <ele>652.6</ele>
        <time>2021-08-04T14:54:12Z</time>
      </trkpt>
      <trkpt lat="45.6161" lon="3.27105">
        <ele>652.3</ele>
        <time>2021-08-04T14:54:14Z</time>
      </trkpt>
      <trkpt lat="45.61603" lon="3.27116">
        <ele>651.8</ele>
        <time>2021-08-04T14:54:16Z</time>
      </trkpt>
      <trkpt lat="45.61597" lon="3.27128">
        <ele>651.4</ele>
        <time>2021-08-04T14:54:18Z</time>
      </trkpt>
      <trkpt lat="45.61592" lon="3.2714">
        <ele>650.9</ele>
        <time>2021-08-04T14:54:20Z</time>
      </trkpt>
      <trkpt lat="45.61587" lon="3.27153">
        <ele>650.4</ele>
        <time>2021-08-04T14:54:22Z</time>
      </trkpt>
      <trkpt lat="45.61583" lon="3.27167">
        <ele>650</ele>
        <time>2021-08-04T14:54:24Z</time>
      </trkpt>
      <trkpt lat="45.61581" lon="3.27184">
        <ele>649.1</ele>
        <time>2021-08-04T14:54:26Z</time>
      </trkpt>
      <trkpt lat="45.6158" lon="3.27202">
        <ele>648.4</ele>
        <time>2021-08-04T14:54:28Z</time>
      </trkpt>
      <trkpt lat="45.6158" lon="3.27221">
        <ele>647.8</ele>
        <time>2021-08-04T14:54:30Z</time>
      </trkpt>
      <trkpt lat="45.61581" lon="3.2724">
        <ele>647.2</ele>
        <time>2021-08-04T14:54:32Z</time>
      </trkpt>
      <trkpt lat="45.61582" lon="3.27261">
        <ele>646.9</ele>
        <time>2021-08-04T14:54:34Z</time>
      </trkpt>
      <trkpt lat="45.61582" lon="3.27282">
        <ele>646.9</ele>
        <time>2021-08-04T14:54:36Z</time>
      </trkpt>
      <trkpt lat="45.61579" lon="3.27303">
        <ele>646.6</ele>
        <time>2021-08-04T14:54:38Z</time>
      </trkpt>
      <trkpt lat="45.61573" lon="3.27324">
        <ele>646</ele>
        <time>2021-08-04T14:54:40Z</time>
      </trkpt>
      <trkpt lat="45.61566" lon="3.27345">
        <ele>645.6</ele>
        <time>2021-08-04T14:54:42Z</time>
      </trkpt>
      <trkpt lat="45.61559" lon="3.27365">
        <ele>645.3</ele>
        <time>2021-08-04T14:54:44Z</time>
      </trkpt>
      <trkpt lat="45.61551" lon="3.27385">
        <ele>644.9</ele>
        <time>2021-08-04T14:54:46Z</time>
      </trkpt>
      <trkpt lat="45.61544" lon="3.27404">
        <ele>644.5</ele>
        <time>2021-08-04T14:54:48Z</time>
      </trkpt>
      <trkpt lat="45.61537" lon="3.27423">
        <ele>644.3</ele>
        <time>2021-08-04T14:54:50Z</time>
      </trkpt>
      <trkpt lat="45.61532" lon="3.27442">
        <ele>644.4</ele>
        <time>2021-08-04T14:54:52Z</time>
      </trkpt>
      <trkpt lat="45.61525" lon="3.27458">
        <ele>644.2</ele>
        <time>2021-08-04T14:54:54Z</time>
      </trkpt>
      <trkpt lat="45.61518" lon="3.27474">
        <ele>644</ele>
        <time>2021-08-04T14:54:56Z</time>
      </trkpt>
      <trkpt lat="45.61511" lon="3.27489">
        <ele>643.7</ele>
        <time>2021-08-04T14:54:58Z</time>
      </trkpt>
      <trkpt lat="45.61501" lon="3.27502">
        <ele>643.3</ele>
        <time>2021-08-04T14:55:00Z</time>
      </trkpt>
      <trkpt lat="45.61491" lon="3.27512">
        <ele>643.8</ele>
        <time>2021-08-04T14:55:02Z</time>
      </trkpt>
      <trkpt lat="45.61478" lon="3.27518">
        <ele>643.8</ele>
        <time>2021-08-04T14:55:04Z</time>
      </trkpt>
      <trkpt lat="45.61466" lon="3.27519">
        <ele>643.6</ele>
        <time>2021-08-04T14:55:06Z</time>
      </trkpt>
      <trkpt lat="45.61453" lon="3.27518">
        <ele>643.2</ele>
        <time>2021-08-04T14:55:08Z</time>
      </trkpt>
      <trkpt lat="45.61442" lon="3.27515">
        <ele>642.6</ele>
        <time>2021-08-04T14:55:10Z</time>
      </trkpt>
      <trkpt lat="45.6143" lon="3.2751">
        <ele>642</ele>
        <time>2021-08-04T14:55:12Z</time>
      </trkpt>
      <trkpt lat="45.61419" lon="3.27506">
        <ele>641.4</ele>
        <time>2021-08-04T14:55:14Z</time>
      </trkpt>
      <trkpt lat="45.61407" lon="3.27504">
        <ele>640.8</ele>
        <time>2021-08-04T14:55:16Z</time>
      </trkpt>
      <trkpt lat="45.61396" lon="3.27506">
        <ele>640.3</ele>
        <time>2021-08-04T14:55:18Z</time>
      </trkpt>
      <trkpt lat="45.61384" lon="3.27511">
        <ele>640</ele>
        <time>2021-08-04T14:55:20Z</time>
      </trkpt>
      <trkpt lat="45.61371" lon="3.27518">
        <ele>639.7</ele>
        <time>2021-08-04T14:55:22Z</time>
      </trkpt>
      <trkpt lat="45.61359" lon="3.27524">
        <ele>639.3</ele>
        <time>2021-08-04T14:55:24Z</time>
      </trkpt>
      <trkpt lat="45.61345" lon="3.27531">
        <ele>638.8</ele>
        <time>2021-08-04T14:55:26Z</time>
      </trkpt>
      <trkpt lat="45.61332" lon="3.27538">
        <ele>638.2</ele>
        <time>2021-08-04T14:55:28Z</time>
      </trkpt>
      <trkpt lat="45.61318" lon="3.27545">
        <ele>637.4</ele>
        <time>2021-08-04T14:55:30Z</time>
      </trkpt>
      <trkpt lat="45.61305" lon="3.27552">
        <ele>636.5</ele>
        <time>2021-08-04T14:55:32Z</time>
      </trkpt>
      <trkpt lat="45.61292" lon="3.27562">
        <ele>635.7</ele>
        <time>2021-08-04T14:55:34Z</time>
      </trkpt>
      <trkpt lat="45.61279" lon="3.27574">
        <ele>635.1</ele>
        <time>2021-08-04T14:55:36Z</time>
      </trkpt>
      <trkpt lat="45.61268" lon="3.27589">
        <ele>634.8</ele>
        <time>2021-08-04T14:55:38Z</time>
      </trkpt>
      <trkpt lat="45.61258" lon="3.27605">
        <ele>634.8</ele>
        <time>2021-08-04T14:55:40Z</time>
      </trkpt>
      <trkpt lat="45.61248" lon="3.27623">
        <ele>634.7</ele>
        <time>2021-08-04T14:55:42Z</time>
      </trkpt>
      <trkpt lat="45.61237" lon="3.27638">
        <ele>634.4</ele>
        <time>2021-08-04T14:55:44Z</time>
      </trkpt>
      <trkpt lat="45.61226" lon="3.27654">
        <ele>633.9</ele>
        <time>2021-08-04T14:55:46Z</time>
      </trkpt>
      <trkpt lat="45.61214" lon="3.2767">
        <ele>633.2</ele>
        <time>2021-08-04T14:55:48Z</time>
      </trkpt>
      <trkpt lat="45.61201" lon="3.27684">
        <ele>632.7</ele>
        <time>2021-08-04T14:55:50Z</time>
      </trkpt>
      <trkpt lat="45.61188" lon="3.27698">
        <ele>631.9</ele>
        <time>2021-08-04T14:55:52Z</time>
      </trkpt>
      <trkpt lat="45.61175" lon="3.27712">
        <ele>631.1</ele>
        <time>2021-08-04T14:55:54Z</time>
      </trkpt>
      <trkpt lat="45.6116" lon="3.27723">
        <ele>630.2</ele>
        <time>2021-08-04T14:55:56Z</time>
      </trkpt>
      <trkpt lat="45.61145" lon="3.27733">
        <ele>629.3</ele>
        <time>2021-08-04T14:55:58Z</time>
      </trkpt>
      <trkpt lat="45.61129" lon="3.27745">
        <ele>628.3</ele>
        <time>2021-08-04T14:56:00Z</time>
      </trkpt>
      <trkpt lat="45.61114" lon="3.27756">
        <ele>627.2</ele>
        <time>2021-08-04T14:56:02Z</time>
      </trkpt>
      <trkpt lat="45.61099" lon="3.27769">
        <ele>626.2</ele>
        <time>2021-08-04T14:56:04Z</time>
      </trkpt>
      <trkpt lat="45.61084" lon="3.27784">
        <ele>625.3</ele>
        <time>2021-08-04T14:56:06Z</time>
      </trkpt>
      <trkpt lat="45.61069" lon="3.278">
        <ele>624.8</ele>
        <time>2021-08-04T14:56:08Z</time>
      </trkpt>
      <trkpt lat="45.61055" lon="3.27816">
        <ele>624.2</ele>
        <time>2021-08-04T14:56:10Z</time>
      </trkpt>
      <trkpt lat="45.61041" lon="3.27833">
        <ele>623.5</ele>
        <time>2021-08-04T14:56:12Z</time>
      </trkpt>
      <trkpt lat="45.61027" lon="3.2785">
        <ele>622.9</ele>
        <time>2021-08-04T14:56:14Z</time>
      </trkpt>
      <trkpt lat="45.61012" lon="3.27867">
        <ele>622.2</ele>
        <time>2021-08-04T14:56:16Z</time>
      </trkpt>
      <trkpt lat="45.60997" lon="3.27884">
        <ele>621.6</ele>
        <time>2021-08-04T14:56:18Z</time>
      </trkpt>
      <trkpt lat="45.60983" lon="3.27901">
        <ele>621.1</ele>
        <time>2021-08-04T14:56:20Z</time>
      </trkpt>
      <trkpt lat="45.60969" lon="3.2792">
        <ele>620.5</ele>
        <time>2021-08-04T14:56:22Z</time>
      </trkpt>
      <trkpt lat="45.60958" lon="3.27941">
        <ele>619.6</ele>
        <time>2021-08-04T14:56:24Z</time>
      </trkpt>
      <trkpt lat="45.60949" lon="3.27964">
        <ele>618.9</ele>
        <time>2021-08-04T14:56:26Z</time>
      </trkpt>
      <trkpt lat="45.60943" lon="3.27989">
        <ele>618.5</ele>
        <time>2021-08-04T14:56:28Z</time>
      </trkpt>
      <trkpt lat="45.60938" lon="3.28014">
        <ele>617.8</ele>
        <time>2021-08-04T14:56:30Z</time>
      </trkpt>
      <trkpt lat="45.60932" lon="3.28039">
        <ele>616.8</ele>
        <time>2021-08-04T14:56:32Z</time>
      </trkpt>
      <trkpt lat="45.60926" lon="3.28064">
        <ele>615.6</ele>
        <time>2021-08-04T14:56:34Z</time>
      </trkpt>
      <trkpt lat="45.60919" lon="3.28087">
        <ele>614.4</ele>
        <time>2021-08-04T14:56:36Z</time>
      </trkpt>
      <trkpt lat="45.60909" lon="3.28108">
        <ele>613.5</ele>
        <time>2021-08-04T14:56:38Z</time>
      </trkpt>
      <trkpt lat="45.60895" lon="3.28126">
        <ele>612.3</ele>
        <time>2021-08-04T14:56:40Z</time>
      </trkpt>
      <trkpt lat="45.60882" lon="3.28142">
        <ele>611.1</ele>
        <time>2021-08-04T14:56:42Z</time>
      </trkpt>
      <trkpt lat="45.60869" lon="3.2816">
        <ele>609.8</ele>
        <time>2021-08-04T14:56:44Z</time>
      </trkpt>
      <trkpt lat="45.60858" lon="3.28181">
        <ele>609.3</ele>
        <time>2021-08-04T14:56:46Z</time>
      </trkpt>
      <trkpt lat="45.60848" lon="3.28202">
        <ele>609.2</ele>
        <time>2021-08-04T14:56:48Z</time>
      </trkpt>
      <trkpt lat="45.60838" lon="3.28224">
        <ele>609.3</ele>
        <time>2021-08-04T14:56:50Z</time>
      </trkpt>
      <trkpt lat="45.60829" lon="3.28246">
        <ele>609.3</ele>
        <time>2021-08-04T14:56:52Z</time>
      </trkpt>
      <trkpt lat="45.60821" lon="3.28269">
        <ele>608.2</ele>
        <time>2021-08-04T14:56:54Z</time>
      </trkpt>
      <trkpt lat="45.60814" lon="3.28293">
        <ele>607.4</ele>
        <time>2021-08-04T14:56:56Z</time>
      </trkpt>
      <trkpt lat="45.60809" lon="3.28318">
        <ele>606.9</ele>
        <time>2021-08-04T14:56:58Z</time>
      </trkpt>
      <trkpt lat="45.608" lon="3.2834">
        <ele>606.5</ele>
        <time>2021-08-04T14:57:00Z</time>
      </trkpt>
      <trkpt lat="45.60786" lon="3.28358">
        <ele>606.3</ele>
        <time>2021-08-04T14:57:02Z</time>
      </trkpt>
      <trkpt lat="45.6077" lon="3.28369">
        <ele>605.8</ele>
        <time>2021-08-04T14:57:04Z</time>
      </trkpt>
      <trkpt lat="45.60754" lon="3.28379">
        <ele>605.6</ele>
        <time>2021-08-04T14:57:06Z</time>
      </trkpt>
      <trkpt lat="45.60739" lon="3.28387">
        <ele>605.2</ele>
        <time>2021-08-04T14:57:08Z</time>
      </trkpt>
      <trkpt lat="45.60722" lon="3.28389">
        <ele>604.4</ele>
        <time>2021-08-04T14:57:10Z</time>
      </trkpt>
      <trkpt lat="45.60707" lon="3.28387">
        <ele>603.2</ele>
        <time>2021-08-04T14:57:12Z</time>
      </trkpt>
      <trkpt lat="45.60691" lon="3.28389">
        <ele>602.4</ele>
        <time>2021-08-04T14:57:14Z</time>
      </trkpt>
      <trkpt lat="45.60676" lon="3.28394">
        <ele>602.1</ele>
        <time>2021-08-04T14:57:16Z</time>
      </trkpt>
      <trkpt lat="45.60661" lon="3.28403">
        <ele>602.2</ele>
        <time>2021-08-04T14:57:18Z</time>
      </trkpt>
      <trkpt lat="45.60645" lon="3.28411">
        <ele>602.4</ele>
        <time>2021-08-04T14:57:20Z</time>
      </trkpt>
      <trkpt lat="45.60629" lon="3.28415">
        <ele>602</ele>
        <time>2021-08-04T14:57:22Z</time>
      </trkpt>
      <trkpt lat="45.60612" lon="3.28414">
        <ele>601.1</ele>
        <time>2021-08-04T14:57:24Z</time>
      </trkpt>
      <trkpt lat="45.60596" lon="3.28409">
        <ele>599.6</ele>
        <time>2021-08-04T14:57:26Z</time>
      </trkpt>
      <trkpt lat="45.6058" lon="3.28398">
        <ele>597.6</ele>
        <time>2021-08-04T14:57:28Z</time>
      </trkpt>
      <trkpt lat="45.60565" lon="3.28388">
        <ele>596.2</ele>
        <time>2021-08-04T14:57:30Z</time>
      </trkpt>
      <trkpt lat="45.60549" lon="3.28379">
        <ele>594.9</ele>
        <time>2021-08-04T14:57:32Z</time>
      </trkpt>
      <trkpt lat="45.60532" lon="3.28374">
        <ele>594.1</ele>
        <time>2021-08-04T14:57:34Z</time>
      </trkpt>
      <trkpt lat="45.60514" lon="3.28373">
        <ele>593.8</ele>
        <time>2021-08-04T14:57:36Z</time>
      </trkpt>
      <trkpt lat="45.60497" lon="3.28373">
        <ele>593.4</ele>
        <time>2021-08-04T14:57:38Z</time>
      </trkpt>
      <trkpt lat="45.6048" lon="3.28374">
        <ele>592.1</ele>
        <time>2021-08-04T14:57:40Z</time>
      </trkpt>
      <trkpt lat="45.60464" lon="3.28375">
        <ele>591</ele>
        <time>2021-08-04T14:57:42Z</time>
      </trkpt>
      <trkpt lat="45.60448" lon="3.28379">
        <ele>590.3</ele>
        <time>2021-08-04T14:57:44Z</time>
      </trkpt>
      <trkpt lat="45.60433" lon="3.28385">
        <ele>590.2</ele>
        <time>2021-08-04T14:57:46Z</time>
      </trkpt>
      <trkpt lat="45.60418" lon="3.28391">
        <ele>590.1</ele>
        <time>2021-08-04T14:57:48Z</time>
      </trkpt>
      <trkpt lat="45.60403" lon="3.28399">
        <ele>589.5</ele>
        <time>2021-08-04T14:57:50Z</time>
      </trkpt>
      <trkpt lat="45.60389" lon="3.28409">
        <ele>589</ele>
        <time>2021-08-04T14:57:52Z</time>
      </trkpt>
      <trkpt lat="45.60375" lon="3.28421">
        <ele>588.4</ele>
        <time>2021-08-04T14:57:54Z</time>
      </trkpt>
      <trkpt lat="45.60361" lon="3.28433">
        <ele>587.3</ele>
        <time>2021-08-04T14:57:56Z</time>
      </trkpt>
      <trkpt lat="45.60348" lon="3.28445">
        <ele>586.7</ele>
        <time>2021-08-04T14:57:58Z</time>
      </trkpt>
      <trkpt lat="45.60335" lon="3.28458">
        <ele>586.7</ele>
        <time>2021-08-04T14:58:00Z</time>
      </trkpt>
      <trkpt lat="45.60322" lon="3.28472">
        <ele>586.6</ele>
        <time>2021-08-04T14:58:02Z</time>
      </trkpt>
      <trkpt lat="45.60311" lon="3.28489">
        <ele>587.2</ele>
        <time>2021-08-04T14:58:04Z</time>
      </trkpt>
      <trkpt lat="45.60301" lon="3.28508">
        <ele>587.5</ele>
        <time>2021-08-04T14:58:06Z</time>
      </trkpt>
      <trkpt lat="45.60295" lon="3.28529">
        <ele>587.4</ele>
        <time>2021-08-04T14:58:08Z</time>
      </trkpt>
      <trkpt lat="45.60291" lon="3.28551">
        <ele>587.8</ele>
        <time>2021-08-04T14:58:10Z</time>
      </trkpt>
      <trkpt lat="45.60288" lon="3.28572">
        <ele>588.4</ele>
        <time>2021-08-04T14:58:12Z</time>
      </trkpt>
      <trkpt lat="45.60285" lon="3.28592">
        <ele>588.7</ele>
        <time>2021-08-04T14:58:14Z</time>
      </trkpt>
      <trkpt lat="45.60283" lon="3.28613">
        <ele>588.4</ele>
        <time>2021-08-04T14:58:16Z</time>
      </trkpt>
      <trkpt lat="45.60281" lon="3.28633">
        <ele>588.1</ele>
        <time>2021-08-04T14:58:18Z</time>
      </trkpt>
      <trkpt lat="45.60278" lon="3.28653">
        <ele>587.8</ele>
        <time>2021-08-04T14:58:20Z</time>
      </trkpt>
      <trkpt lat="45.60275" lon="3.28674">
        <ele>587.4</ele>
        <time>2021-08-04T14:58:22Z</time>
      </trkpt>
      <trkpt lat="45.60272" lon="3.28696">
        <ele>586.4</ele>
        <time>2021-08-04T14:58:24Z</time>
      </trkpt>
      <trkpt lat="45.60269" lon="3.28719">
        <ele>585.4</ele>
        <time>2021-08-04T14:58:26Z</time>
      </trkpt>
      <trkpt lat="45.60266" lon="3.28742">
        <ele>584.3</ele>
        <time>2021-08-04T14:58:28Z</time>
      </trkpt>
      <trkpt lat="45.60262" lon="3.28767">
        <ele>583.1</ele>
        <time>2021-08-04T14:58:30Z</time>
      </trkpt>
      <trkpt lat="45.60259" lon="3.28792">
        <ele>581.8</ele>
        <time>2021-08-04T14:58:32Z</time>
      </trkpt>
      <trkpt lat="45.60255" lon="3.28818">
        <ele>580.2</ele>
        <time>2021-08-04T14:58:34Z</time>
      </trkpt>
      <trkpt lat="45.60252" lon="3.28844">
        <ele>579</ele>
        <time>2021-08-04T14:58:36Z</time>
      </trkpt>
      <trkpt lat="45.60248" lon="3.2887">
        <ele>578.7</ele>
        <time>2021-08-04T14:58:38Z</time>
      </trkpt>
      <trkpt lat="45.60243" lon="3.28896">
        <ele>578.3</ele>
        <time>2021-08-04T14:58:40Z</time>
      </trkpt>
      <trkpt lat="45.60236" lon="3.28919">
        <ele>577.8</ele>
        <time>2021-08-04T14:58:42Z</time>
      </trkpt>
      <trkpt lat="45.60227" lon="3.2894">
        <ele>577</ele>
        <time>2021-08-04T14:58:44Z</time>
      </trkpt>
      <trkpt lat="45.60216" lon="3.2896">
        <ele>576.1</ele>
        <time>2021-08-04T14:58:46Z</time>
      </trkpt>
      <trkpt lat="45.60206" lon="3.28981">
        <ele>575.1</ele>
        <time>2021-08-04T14:58:48Z</time>
      </trkpt>
      <trkpt lat="45.60196" lon="3.29001">
        <ele>574</ele>
        <time>2021-08-04T14:58:50Z</time>
      </trkpt>
      <trkpt lat="45.60186" lon="3.29022">
        <ele>572.8</ele>
        <time>2021-08-04T14:58:52Z</time>
      </trkpt>
      <trkpt lat="45.60177" lon="3.29043">
        <ele>571.5</ele>
        <time>2021-08-04T14:58:54Z</time>
      </trkpt>
      <trkpt lat="45.60173" lon="3.29062">
        <ele>570.4</ele>
        <time>2021-08-04T14:58:56Z</time>
      </trkpt>
      <trkpt lat="45.60171" lon="3.29076">
        <ele>569.7</ele>
        <time>2021-08-04T14:58:58Z</time>
      </trkpt>
      <trkpt lat="45.60169" lon="3.29088">
        <ele>568.9</ele>
        <time>2021-08-04T14:59:00Z</time>
      </trkpt>
      <trkpt lat="45.60166" lon="3.291">
        <ele>568.2</ele>
        <time>2021-08-04T14:59:02Z</time>
      </trkpt>
      <trkpt lat="45.60165" lon="3.2911">
        <ele>567.6</ele>
        <time>2021-08-04T14:59:04Z</time>
      </trkpt>
      <trkpt lat="45.60165" lon="3.29117">
        <ele>567.3</ele>
        <time>2021-08-04T14:59:06Z</time>
      </trkpt>
      <trkpt lat="45.60165" lon="3.2912">
        <ele>567.1</ele>
        <time>2021-08-04T14:59:08Z</time>
      </trkpt>
      <trkpt lat="45.60165" lon="3.29119">
        <ele>567.2</ele>
        <time>2021-08-04T14:59:10Z</time>
      </trkpt>
      <trkpt lat="45.60165" lon="3.29119">
        <ele>567.2</ele>
        <time>2021-08-04T14:59:12Z</time>
      </trkpt>
      <trkpt lat="45.60165" lon="3.29119">
        <ele>567.2</ele>
        <time>2021-08-04T14:59:14Z</time>
      </trkpt>
      <trkpt lat="45.60165" lon="3.29119">
        <ele>567.2</ele>
        <time>2021-08-04T14:59:16Z</time>
      </trkpt>
      <trkpt lat="45.60166" lon="3.29121">
        <ele>567.1</ele>
        <time>2021-08-04T15:00:22Z</time>
      </trkpt>
      <trkpt lat="45.60166" lon="3.29122">
        <ele>567.1</ele>
        <time>2021-08-04T15:00:24Z</time>
      </trkpt>
      <trkpt lat="45.60167" lon="3.29124">
        <ele>567</ele>
        <time>2021-08-04T15:00:26Z</time>
      </trkpt>
      <trkpt lat="45.60167" lon="3.2913">
        <ele>566.8</ele>
        <time>2021-08-04T15:00:28Z</time>
      </trkpt>
      <trkpt lat="45.60167" lon="3.29138">
        <ele>566.4</ele>
        <time>2021-08-04T15:00:30Z</time>
      </trkpt>
      <trkpt lat="45.60167" lon="3.29147">
        <ele>566</ele>
        <time>2021-08-04T15:00:32Z</time>
      </trkpt>
      <trkpt lat="45.60168" lon="3.29158">
        <ele>565.5</ele>
        <time>2021-08-04T15:00:34Z</time>
      </trkpt>
      <trkpt lat="45.60168" lon="3.29166">
        <ele>565.2</ele>
        <time>2021-08-04T15:00:36Z</time>
      </trkpt>
      <trkpt lat="45.60168" lon="3.29172">
        <ele>565</ele>
        <time>2021-08-04T15:00:38Z</time>
      </trkpt>
      <trkpt lat="45.60168" lon="3.29178">
        <ele>564.7</ele>
        <time>2021-08-04T15:00:40Z</time>
      </trkpt>
      <trkpt lat="45.60168" lon="3.29181">
        <ele>564.7</ele>
        <time>2021-08-04T15:00:42Z</time>
      </trkpt>
      <trkpt lat="45.60168" lon="3.29182">
        <ele>564.6</ele>
        <time>2021-08-04T15:00:44Z</time>
      </trkpt>
      <trkpt lat="45.60168" lon="3.29182">
        <ele>564.6</ele>
        <time>2021-08-04T15:00:46Z</time>
      </trkpt>
      <trkpt lat="45.60168" lon="3.29182">
        <ele>564.6</ele>
        <time>2021-08-04T15:00:48Z</time>
      </trkpt>
      <trkpt lat="45.60168" lon="3.29182">
        <ele>564.6</ele>
        <time>2021-08-04T15:00:50Z</time>
      </trkpt>
      <trkpt lat="45.60175" lon="3.29225">
        <ele>563.9</ele>
        <time>2021-08-04T15:04:20Z</time>
      </trkpt>
      <trkpt lat="45.60174" lon="3.29238">
        <ele>563.3</ele>
        <time>2021-08-04T15:04:22Z</time>
      </trkpt>
      <trkpt lat="45.60172" lon="3.29253">
        <ele>562.6</ele>
        <time>2021-08-04T15:04:24Z</time>
      </trkpt>
      <trkpt lat="45.60169" lon="3.29268">
        <ele>561.8</ele>
        <time>2021-08-04T15:04:26Z</time>
      </trkpt>
      <trkpt lat="45.60165" lon="3.29284">
        <ele>561</ele>
        <time>2021-08-04T15:04:28Z</time>
      </trkpt>
      <trkpt lat="45.60161" lon="3.29301">
        <ele>560.3</ele>
        <time>2021-08-04T15:04:30Z</time>
      </trkpt>
      <trkpt lat="45.60156" lon="3.29319">
        <ele>559.5</ele>
        <time>2021-08-04T15:04:32Z</time>
      </trkpt>
      <trkpt lat="45.60153" lon="3.29336">
        <ele>558.8</ele>
        <time>2021-08-04T15:04:34Z</time>
      </trkpt>
      <trkpt lat="45.6015" lon="3.29355">
        <ele>558.4</ele>
        <time>2021-08-04T15:04:36Z</time>
      </trkpt>
      <trkpt lat="45.60149" lon="3.29375">
        <ele>558</ele>
        <time>2021-08-04T15:04:38Z</time>
      </trkpt>
      <trkpt lat="45.60149" lon="3.29396">
        <ele>557.8</ele>
        <time>2021-08-04T15:04:40Z</time>
      </trkpt>
      <trkpt lat="45.6015" lon="3.29418">
        <ele>557.6</ele>
        <time>2021-08-04T15:04:42Z</time>
      </trkpt>
      <trkpt lat="45.60149" lon="3.29439">
        <ele>557.2</ele>
        <time>2021-08-04T15:04:44Z</time>
      </trkpt>
      <trkpt lat="45.60147" lon="3.29461">
        <ele>556.6</ele>
        <time>2021-08-04T15:04:46Z</time>
      </trkpt>
      <trkpt lat="45.60145" lon="3.29483">
        <ele>555.9</ele>
        <time>2021-08-04T15:04:48Z</time>
      </trkpt>
      <trkpt lat="45.60139" lon="3.29501">
        <ele>555</ele>
        <time>2021-08-04T15:04:50Z</time>
      </trkpt>
      <trkpt lat="45.60133" lon="3.2952">
        <ele>554.3</ele>
        <time>2021-08-04T15:04:52Z</time>
      </trkpt>
      <trkpt lat="45.60124" lon="3.29538">
        <ele>553.4</ele>
        <time>2021-08-04T15:04:54Z</time>
      </trkpt>
      <trkpt lat="45.60116" lon="3.29556">
        <ele>552.5</ele>
        <time>2021-08-04T15:04:56Z</time>
      </trkpt>
      <trkpt lat="45.60108" lon="3.29574">
        <ele>551.6</ele>
        <time>2021-08-04T15:04:58Z</time>
      </trkpt>
      <trkpt lat="45.60099" lon="3.2959">
        <ele>551.1</ele>
        <time>2021-08-04T15:05:00Z</time>
      </trkpt>
      <trkpt lat="45.60087" lon="3.29603">
        <ele>550.6</ele>
        <time>2021-08-04T15:05:02Z</time>
      </trkpt>
      <trkpt lat="45.60074" lon="3.29609">
        <ele>550.2</ele>
        <time>2021-08-04T15:05:04Z</time>
      </trkpt>
      <trkpt lat="45.6006" lon="3.29608">
        <ele>549.6</ele>
        <time>2021-08-04T15:05:06Z</time>
      </trkpt>
      <trkpt lat="45.60047" lon="3.29605">
        <ele>548.8</ele>
        <time>2021-08-04T15:05:08Z</time>
      </trkpt>
      <trkpt lat="45.60034" lon="3.296">
        <ele>548.1</ele>
        <time>2021-08-04T15:05:10Z</time>
      </trkpt>
      <trkpt lat="45.60021" lon="3.29596">
        <ele>547.4</ele>
        <time>2021-08-04T15:05:12Z</time>
      </trkpt>
      <trkpt lat="45.6001" lon="3.29592">
        <ele>546.8</ele>
        <time>2021-08-04T15:05:14Z</time>
      </trkpt>
      <trkpt lat="45.59999" lon="3.29587">
        <ele>546.1</ele>
        <time>2021-08-04T15:05:16Z</time>
      </trkpt>
      <trkpt lat="45.59992" lon="3.29584">
        <ele>545.7</ele>
        <time>2021-08-04T15:05:18Z</time>
      </trkpt>
      <trkpt lat="45.59986" lon="3.2958">
        <ele>545.2</ele>
        <time>2021-08-04T15:05:20Z</time>
      </trkpt>
      <trkpt lat="45.5998" lon="3.29574">
        <ele>544.5</ele>
        <time>2021-08-04T15:05:22Z</time>
      </trkpt>
      <trkpt lat="45.59978" lon="3.29558">
        <ele>543.7</ele>
        <time>2021-08-04T15:05:24Z</time>
      </trkpt>
      <trkpt lat="45.59981" lon="3.29541">
        <ele>542.9</ele>
        <time>2021-08-04T15:05:26Z</time>
      </trkpt>
      <trkpt lat="45.59982" lon="3.29522">
        <ele>542.1</ele>
        <time>2021-08-04T15:05:28Z</time>
      </trkpt>
      <trkpt lat="45.59983" lon="3.29503">
        <ele>541.2</ele>
        <time>2021-08-04T15:05:30Z</time>
      </trkpt>
      <trkpt lat="45.59983" lon="3.29484">
        <ele>541.3</ele>
        <time>2021-08-04T15:05:32Z</time>
      </trkpt>
      <trkpt lat="45.59982" lon="3.29464">
        <ele>541.5</ele>
        <time>2021-08-04T15:05:34Z</time>
      </trkpt>
      <trkpt lat="45.59978" lon="3.29445">
        <ele>541.4</ele>
        <time>2021-08-04T15:05:36Z</time>
      </trkpt>
      <trkpt lat="45.59971" lon="3.29427">
        <ele>541.1</ele>
        <time>2021-08-04T15:05:38Z</time>
      </trkpt>
      <trkpt lat="45.59962" lon="3.2941">
        <ele>540.5</ele>
        <time>2021-08-04T15:05:40Z</time>
      </trkpt>
      <trkpt lat="45.59954" lon="3.29394">
        <ele>540.1</ele>
        <time>2021-08-04T15:05:42Z</time>
      </trkpt>
      <trkpt lat="45.59946" lon="3.29377">
        <ele>539.6</ele>
        <time>2021-08-04T15:05:44Z</time>
      </trkpt>
      <trkpt lat="45.59937" lon="3.29361">
        <ele>539</ele>
        <time>2021-08-04T15:05:46Z</time>
      </trkpt>
      <trkpt lat="45.59928" lon="3.29344">
        <ele>538.2</ele>
        <time>2021-08-04T15:05:48Z</time>
      </trkpt>
      <trkpt lat="45.59919" lon="3.29327">
        <ele>537.4</ele>
        <time>2021-08-04T15:05:50Z</time>
      </trkpt>
      <trkpt lat="45.59911" lon="3.2931">
        <ele>536.9</ele>
        <time>2021-08-04T15:05:52Z</time>
      </trkpt>
      <trkpt lat="45.59902" lon="3.29292">
        <ele>536.5</ele>
        <time>2021-08-04T15:05:54Z</time>
      </trkpt>
      <trkpt lat="45.59893" lon="3.29274">
        <ele>536.2</ele>
        <time>2021-08-04T15:05:56Z</time>
      </trkpt>
      <trkpt lat="45.59884" lon="3.29255">
        <ele>535.9</ele>
        <time>2021-08-04T15:05:58Z</time>
      </trkpt>
      <trkpt lat="45.59874" lon="3.29237">
        <ele>535.7</ele>
        <time>2021-08-04T15:06:00Z</time>
      </trkpt>
      <trkpt lat="45.59864" lon="3.29219">
        <ele>535.4</ele>
        <time>2021-08-04T15:06:02Z</time>
      </trkpt>
      <trkpt lat="45.5985" lon="3.29205">
        <ele>535</ele>
        <time>2021-08-04T15:06:04Z</time>
      </trkpt>
      <trkpt lat="45.59834" lon="3.29197">
        <ele>534.3</ele>
        <time>2021-08-04T15:06:06Z</time>
      </trkpt>
      <trkpt lat="45.59817" lon="3.29194">
        <ele>533.9</ele>
        <time>2021-08-04T15:06:08Z</time>
      </trkpt>
      <trkpt lat="45.59799" lon="3.29192">
        <ele>533.5</ele>
        <time>2021-08-04T15:06:10Z</time>
      </trkpt>
      <trkpt lat="45.59783" lon="3.29191">
        <ele>533.1</ele>
        <time>2021-08-04T15:06:12Z</time>
      </trkpt>
      <trkpt lat="45.59767" lon="3.2919">
        <ele>532.7</ele>
        <time>2021-08-04T15:06:14Z</time>
      </trkpt>
      <trkpt lat="45.59752" lon="3.29189">
        <ele>532.4</ele>
        <time>2021-08-04T15:06:16Z</time>
      </trkpt>
      <trkpt lat="45.59737" lon="3.29187">
        <ele>532</ele>
        <time>2021-08-04T15:06:18Z</time>
      </trkpt>
      <trkpt lat="45.59723" lon="3.29184">
        <ele>531.7</ele>
        <time>2021-08-04T15:06:20Z</time>
      </trkpt>
      <trkpt lat="45.5971" lon="3.2918">
        <ele>531.5</ele>
        <time>2021-08-04T15:06:22Z</time>
      </trkpt>
      <trkpt lat="45.59697" lon="3.29176">
        <ele>531.4</ele>
        <time>2021-08-04T15:06:24Z</time>
      </trkpt>
      <trkpt lat="45.59685" lon="3.29171">
        <ele>531.3</ele>
        <time>2021-08-04T15:06:26Z</time>
      </trkpt>
      <trkpt lat="45.59674" lon="3.29166">
        <ele>531.3</ele>
        <time>2021-08-04T15:06:28Z</time>
      </trkpt>
      <trkpt lat="45.59662" lon="3.29162">
        <ele>531</ele>
        <time>2021-08-04T15:06:30Z</time>
      </trkpt>
      <trkpt lat="45.59651" lon="3.29157">
        <ele>530.8</ele>
        <time>2021-08-04T15:06:32Z</time>
      </trkpt>
      <trkpt lat="45.59641" lon="3.29153">
        <ele>530.6</ele>
        <time>2021-08-04T15:06:34Z</time>
      </trkpt>
      <trkpt lat="45.5963" lon="3.29148">
        <ele>530.3</ele>
        <time>2021-08-04T15:06:36Z</time>
      </trkpt>
      <trkpt lat="45.59619" lon="3.29143">
        <ele>529.9</ele>
        <time>2021-08-04T15:06:38Z</time>
      </trkpt>
      <trkpt lat="45.59608" lon="3.29138">
        <ele>529.6</ele>
        <time>2021-08-04T15:06:40Z</time>
      </trkpt>
      <trkpt lat="45.59597" lon="3.29133">
        <ele>529.1</ele>
        <time>2021-08-04T15:06:42Z</time>
      </trkpt>
      <trkpt lat="45.59586" lon="3.29127">
        <ele>528.6</ele>
        <time>2021-08-04T15:06:44Z</time>
      </trkpt>
      <trkpt lat="45.59574" lon="3.29121">
        <ele>528.3</ele>
        <time>2021-08-04T15:06:46Z</time>
      </trkpt>
      <trkpt lat="45.59562" lon="3.29115">
        <ele>528.1</ele>
        <time>2021-08-04T15:06:48Z</time>
      </trkpt>
      <trkpt lat="45.5955" lon="3.29109">
        <ele>527.9</ele>
        <time>2021-08-04T15:06:50Z</time>
      </trkpt>
      <trkpt lat="45.59536" lon="3.29103">
        <ele>527.6</ele>
        <time>2021-08-04T15:06:52Z</time>
      </trkpt>
      <trkpt lat="45.59523" lon="3.29097">
        <ele>527.4</ele>
        <time>2021-08-04T15:06:54Z</time>
      </trkpt>
      <trkpt lat="45.5951" lon="3.29091">
        <ele>527.1</ele>
        <time>2021-08-04T15:06:56Z</time>
      </trkpt>
      <trkpt lat="45.59496" lon="3.29084">
        <ele>527</ele>
        <time>2021-08-04T15:06:58Z</time>
      </trkpt>
      <trkpt lat="45.59482" lon="3.29077">
        <ele>527.1</ele>
        <time>2021-08-04T15:07:00Z</time>
      </trkpt>
      <trkpt lat="45.59468" lon="3.29071">
        <ele>527.2</ele>
        <time>2021-08-04T15:07:02Z</time>
      </trkpt>
      <trkpt lat="45.59455" lon="3.29063">
        <ele>527.3</ele>
        <time>2021-08-04T15:07:04Z</time>
      </trkpt>
      <trkpt lat="45.59443" lon="3.29054">
        <ele>527.3</ele>
        <time>2021-08-04T15:07:06Z</time>
      </trkpt>
      <trkpt lat="45.59431" lon="3.29045">
        <ele>527.4</ele>
        <time>2021-08-04T15:07:08Z</time>
      </trkpt>
      <trkpt lat="45.59421" lon="3.29036">
        <ele>527.4</ele>
        <time>2021-08-04T15:07:10Z</time>
      </trkpt>
      <trkpt lat="45.59413" lon="3.29027">
        <ele>527.5</ele>
        <time>2021-08-04T15:07:12Z</time>
      </trkpt>
      <trkpt lat="45.59405" lon="3.29018">
        <ele>527.8</ele>
        <time>2021-08-04T15:07:14Z</time>
      </trkpt>
      <trkpt lat="45.59397" lon="3.29008">
        <ele>528.2</ele>
        <time>2021-08-04T15:07:16Z</time>
      </trkpt>
      <trkpt lat="45.59391" lon="3.28999">
        <ele>528.6</ele>
        <time>2021-08-04T15:07:18Z</time>
      </trkpt>
      <trkpt lat="45.59385" lon="3.2899">
        <ele>529</ele>
        <time>2021-08-04T15:07:20Z</time>
      </trkpt>
      <trkpt lat="45.59379" lon="3.28981">
        <ele>529.3</ele>
        <time>2021-08-04T15:07:22Z</time>
      </trkpt>
      <trkpt lat="45.59375" lon="3.28972">
        <ele>529.7</ele>
        <time>2021-08-04T15:07:24Z</time>
      </trkpt>
      <trkpt lat="45.59372" lon="3.28963">
        <ele>529.9</ele>
        <time>2021-08-04T15:07:26Z</time>
      </trkpt>
      <trkpt lat="45.59369" lon="3.28954">
        <ele>530.2</ele>
        <time>2021-08-04T15:07:28Z</time>
      </trkpt>
      <trkpt lat="45.59367" lon="3.28946">
        <ele>530.4</ele>
        <time>2021-08-04T15:07:30Z</time>
      </trkpt>
      <trkpt lat="45.59364" lon="3.28938">
        <ele>530.6</ele>
        <time>2021-08-04T15:07:32Z</time>
      </trkpt>
      <trkpt lat="45.59362" lon="3.28931">
        <ele>530.8</ele>
        <time>2021-08-04T15:07:34Z</time>
      </trkpt>
      <trkpt lat="45.59361" lon="3.28925">
        <ele>531</ele>
        <time>2021-08-04T15:07:36Z</time>
      </trkpt>
      <trkpt lat="45.59359" lon="3.28918">
        <ele>531.1</ele>
        <time>2021-08-04T15:07:38Z</time>
      </trkpt>
      <trkpt lat="45.59357" lon="3.28912">
        <ele>531.2</ele>
        <time>2021-08-04T15:07:40Z</time>
      </trkpt>
      <trkpt lat="45.59355" lon="3.28906">
        <ele>531.2</ele>
        <time>2021-08-04T15:07:42Z</time>
      </trkpt>
      <trkpt lat="45.59354" lon="3.289">
        <ele>531.2</ele>
        <time>2021-08-04T15:07:44Z</time>
      </trkpt>
      <trkpt lat="45.59352" lon="3.28894">
        <ele>531.2</ele>
        <time>2021-08-04T15:07:46Z</time>
      </trkpt>
      <trkpt lat="45.5935" lon="3.28887">
        <ele>531.2</ele>
        <time>2021-08-04T15:07:48Z</time>
      </trkpt>
      <trkpt lat="45.59349" lon="3.28881">
        <ele>531.2</ele>
        <time>2021-08-04T15:07:50Z</time>
      </trkpt>
      <trkpt lat="45.59347" lon="3.28874">
        <ele>531.2</ele>
        <time>2021-08-04T15:07:52Z</time>
      </trkpt>
      <trkpt lat="45.59345" lon="3.28868">
        <ele>531.2</ele>
        <time>2021-08-04T15:07:54Z</time>
      </trkpt>
      <trkpt lat="45.59343" lon="3.28861">
        <ele>531.1</ele>
        <time>2021-08-04T15:07:56Z</time>
      </trkpt>
      <trkpt lat="45.59341" lon="3.28854">
        <ele>531.1</ele>
        <time>2021-08-04T15:07:58Z</time>
      </trkpt>
      <trkpt lat="45.59338" lon="3.28847">
        <ele>531.1</ele>
        <time>2021-08-04T15:08:00Z</time>
      </trkpt>
      <trkpt lat="45.59336" lon="3.2884">
        <ele>531</ele>
        <time>2021-08-04T15:08:02Z</time>
      </trkpt>
      <trkpt lat="45.59334" lon="3.28833">
        <ele>531</ele>
        <time>2021-08-04T15:08:04Z</time>
      </trkpt>
      <trkpt lat="45.59331" lon="3.28827">
        <ele>531.1</ele>
        <time>2021-08-04T15:08:06Z</time>
      </trkpt>
      <trkpt lat="45.59329" lon="3.2882">
        <ele>531.2</ele>
        <time>2021-08-04T15:08:08Z</time>
      </trkpt>
      <trkpt lat="45.59326" lon="3.28813">
        <ele>531.3</ele>
        <time>2021-08-04T15:08:10Z</time>
      </trkpt>
      <trkpt lat="45.59323" lon="3.28806">
        <ele>531.5</ele>
        <time>2021-08-04T15:08:12Z</time>
      </trkpt>
      <trkpt lat="45.5932" lon="3.28798">
        <ele>531.6</ele>
        <time>2021-08-04T15:08:14Z</time>
      </trkpt>
      <trkpt lat="45.59316" lon="3.28791">
        <ele>531.8</ele>
        <time>2021-08-04T15:08:16Z</time>
      </trkpt>
      <trkpt lat="45.59313" lon="3.28784">
        <ele>532</ele>
        <time>2021-08-04T15:08:18Z</time>
      </trkpt>
      <trkpt lat="45.59309" lon="3.28778">
        <ele>532.3</ele>
        <time>2021-08-04T15:08:20Z</time>
      </trkpt>
      <trkpt lat="45.59306" lon="3.28771">
        <ele>532.5</ele>
        <time>2021-08-04T15:08:22Z</time>
      </trkpt>
      <trkpt lat="45.59302" lon="3.28764">
        <ele>532.7</ele>
        <time>2021-08-04T15:08:24Z</time>
      </trkpt>
      <trkpt lat="45.59299" lon="3.28758">
        <ele>532.9</ele>
        <time>2021-08-04T15:08:26Z</time>
      </trkpt>
      <trkpt lat="45.59295" lon="3.28751">
        <ele>533.2</ele>
        <time>2021-08-04T15:08:28Z</time>
      </trkpt>
      <trkpt lat="45.59291" lon="3.28745">
        <ele>533.5</ele>
        <time>2021-08-04T15:08:30Z</time>
      </trkpt>
      <trkpt lat="45.59287" lon="3.28738">
        <ele>533.7</ele>
        <time>2021-08-04T15:08:32Z</time>
      </trkpt>
      <trkpt lat="45.59282" lon="3.28731">
        <ele>533.9</ele>
        <time>2021-08-04T15:08:34Z</time>
      </trkpt>
      <trkpt lat="45.59277" lon="3.28723">
        <ele>534.1</ele>
        <time>2021-08-04T15:08:36Z</time>
      </trkpt>
      <trkpt lat="45.59272" lon="3.28715">
        <ele>534.3</ele>
        <time>2021-08-04T15:08:38Z</time>
      </trkpt>
      <trkpt lat="45.59267" lon="3.28707">
        <ele>534.4</ele>
        <time>2021-08-04T15:08:40Z</time>
      </trkpt>
      <trkpt lat="45.59262" lon="3.287">
        <ele>534.5</ele>
        <time>2021-08-04T15:08:42Z</time>
      </trkpt>
      <trkpt lat="45.59258" lon="3.28691">
        <ele>534.5</ele>
        <time>2021-08-04T15:08:44Z</time>
      </trkpt>
      <trkpt lat="45.59253" lon="3.28681">
        <ele>534.5</ele>
        <time>2021-08-04T15:08:46Z</time>
      </trkpt>
      <trkpt lat="45.59249" lon="3.28672">
        <ele>534.4</ele>
        <time>2021-08-04T15:08:48Z</time>
      </trkpt>
      <trkpt lat="45.59245" lon="3.28662">
        <ele>534.3</ele>
        <time>2021-08-04T15:08:50Z</time>
      </trkpt>
      <trkpt lat="45.59242" lon="3.28651">
        <ele>534.3</ele>
        <time>2021-08-04T15:08:52Z</time>
      </trkpt>
      <trkpt lat="45.59239" lon="3.28641">
        <ele>534.3</ele>
        <time>2021-08-04T15:08:54Z</time>
      </trkpt>
      <trkpt lat="45.59237" lon="3.2863">
        <ele>534.2</ele>
        <time>2021-08-04T15:08:56Z</time>
      </trkpt>
      <trkpt lat="45.59234" lon="3.2862">
        <ele>534.1</ele>
        <time>2021-08-04T15:08:58Z</time>
      </trkpt>
      <trkpt lat="45.59232" lon="3.28609">
        <ele>534</ele>
        <time>2021-08-04T15:09:00Z</time>
      </trkpt>
      <trkpt lat="45.5923" lon="3.28598">
        <ele>533.9</ele>
        <time>2021-08-04T15:09:02Z</time>
      </trkpt>
      <trkpt lat="45.59227" lon="3.28587">
        <ele>533.8</ele>
        <time>2021-08-04T15:09:04Z</time>
      </trkpt>
      <trkpt lat="45.59225" lon="3.28576">
        <ele>533.7</ele>
        <time>2021-08-04T15:09:06Z</time>
      </trkpt>
      <trkpt lat="45.59222" lon="3.28563">
        <ele>533.5</ele>
        <time>2021-08-04T15:09:08Z</time>
      </trkpt>
      <trkpt lat="45.59219" lon="3.2855">
        <ele>533.4</ele>
        <time>2021-08-04T15:09:10Z</time>
      </trkpt>
      <trkpt lat="45.59215" lon="3.28536">
        <ele>533.2</ele>
        <time>2021-08-04T15:09:12Z</time>
      </trkpt>
      <trkpt lat="45.59211" lon="3.28521">
        <ele>533.1</ele>
        <time>2021-08-04T15:09:14Z</time>
      </trkpt>
      <trkpt lat="45.59207" lon="3.28506">
        <ele>532.9</ele>
        <time>2021-08-04T15:09:16Z</time>
      </trkpt>
      <trkpt lat="45.59202" lon="3.28491">
        <ele>532.9</ele>
        <time>2021-08-04T15:09:18Z</time>
      </trkpt>
      <trkpt lat="45.59198" lon="3.28476">
        <ele>532.9</ele>
        <time>2021-08-04T15:09:20Z</time>
      </trkpt>
      <trkpt lat="45.59193" lon="3.28459">
        <ele>532.9</ele>
        <time>2021-08-04T15:09:22Z</time>
      </trkpt>
      <trkpt lat="45.59187" lon="3.28442">
        <ele>532.9</ele>
        <time>2021-08-04T15:09:24Z</time>
      </trkpt>
      <trkpt lat="45.59182" lon="3.28425">
        <ele>532.8</ele>
        <time>2021-08-04T15:09:26Z</time>
      </trkpt>
      <trkpt lat="45.59177" lon="3.28409">
        <ele>532.7</ele>
        <time>2021-08-04T15:09:28Z</time>
      </trkpt>
      <trkpt lat="45.59171" lon="3.28392">
        <ele>532.4</ele>
        <time>2021-08-04T15:09:30Z</time>
      </trkpt>
      <trkpt lat="45.59165" lon="3.28377">
        <ele>532.2</ele>
        <time>2021-08-04T15:09:32Z</time>
      </trkpt>
      <trkpt lat="45.59159" lon="3.28361">
        <ele>532</ele>
        <time>2021-08-04T15:09:34Z</time>
      </trkpt>
      <trkpt lat="45.59153" lon="3.28346">
        <ele>531.8</ele>
        <time>2021-08-04T15:09:36Z</time>
      </trkpt>
      <trkpt lat="45.59146" lon="3.28331">
        <ele>531.6</ele>
        <time>2021-08-04T15:09:38Z</time>
      </trkpt>
      <trkpt lat="45.5914" lon="3.28316">
        <ele>531.8</ele>
        <time>2021-08-04T15:09:40Z</time>
      </trkpt>
      <trkpt lat="45.59134" lon="3.28301">
        <ele>532</ele>
        <time>2021-08-04T15:09:42Z</time>
      </trkpt>
      <trkpt lat="45.59128" lon="3.28286">
        <ele>532.1</ele>
        <time>2021-08-04T15:09:44Z</time>
      </trkpt>
      <trkpt lat="45.59121" lon="3.28271">
        <ele>532.3</ele>
        <time>2021-08-04T15:09:46Z</time>
      </trkpt>
      <trkpt lat="45.59115" lon="3.28257">
        <ele>532.5</ele>
        <time>2021-08-04T15:09:48Z</time>
      </trkpt>
      <trkpt lat="45.59109" lon="3.28243">
        <ele>532.6</ele>
        <time>2021-08-04T15:09:50Z</time>
      </trkpt>
      <trkpt lat="45.59104" lon="3.28229">
        <ele>532.7</ele>
        <time>2021-08-04T15:09:52Z</time>
      </trkpt>
      <trkpt lat="45.59098" lon="3.28216">
        <ele>532.9</ele>
        <time>2021-08-04T15:09:54Z</time>
      </trkpt>
      <trkpt lat="45.59092" lon="3.28204">
        <ele>533.1</ele>
        <time>2021-08-04T15:09:56Z</time>
      </trkpt>
      <trkpt lat="45.59087" lon="3.28191">
        <ele>533.2</ele>
        <time>2021-08-04T15:09:58Z</time>
      </trkpt>
      <trkpt lat="45.59082" lon="3.28179">
        <ele>533.4</ele>
        <time>2021-08-04T15:10:00Z</time>
      </trkpt>
      <trkpt lat="45.59078" lon="3.28168">
        <ele>533.4</ele>
        <time>2021-08-04T15:10:02Z</time>
      </trkpt>
      <trkpt lat="45.59073" lon="3.28157">
        <ele>533.4</ele>
        <time>2021-08-04T15:10:04Z</time>
      </trkpt>
      <trkpt lat="45.59068" lon="3.28146">
        <ele>533.3</ele>
        <time>2021-08-04T15:10:06Z</time>
      </trkpt>
      <trkpt lat="45.59063" lon="3.28134">
        <ele>533.2</ele>
        <time>2021-08-04T15:10:08Z</time>
      </trkpt>
      <trkpt lat="45.59059" lon="3.28122">
        <ele>533</ele>
        <time>2021-08-04T15:10:10Z</time>
      </trkpt>
      <trkpt lat="45.59053" lon="3.28111">
        <ele>532.9</ele>
        <time>2021-08-04T15:10:12Z</time>
      </trkpt>
      <trkpt lat="45.59048" lon="3.28098">
        <ele>532.7</ele>
        <time>2021-08-04T15:10:14Z</time>
      </trkpt>
      <trkpt lat="45.59042" lon="3.28085">
        <ele>532.5</ele>
        <time>2021-08-04T15:10:16Z</time>
      </trkpt>
      <trkpt lat="45.59036" lon="3.2807">
        <ele>531.9</ele>
        <time>2021-08-04T15:10:18Z</time>
      </trkpt>
      <trkpt lat="45.59029" lon="3.28054">
        <ele>531.3</ele>
        <time>2021-08-04T15:10:20Z</time>
      </trkpt>
      <trkpt lat="45.59022" lon="3.28037">
        <ele>530.5</ele>
        <time>2021-08-04T15:10:22Z</time>
      </trkpt>
      <trkpt lat="45.59014" lon="3.28019">
        <ele>529.6</ele>
        <time>2021-08-04T15:10:24Z</time>
      </trkpt>
      <trkpt lat="45.59006" lon="3.28">
        <ele>528.7</ele>
        <time>2021-08-04T15:10:26Z</time>
      </trkpt>
      <trkpt lat="45.58997" lon="3.27979">
        <ele>527.9</ele>
        <time>2021-08-04T15:10:28Z</time>
      </trkpt>
      <trkpt lat="45.58988" lon="3.27959">
        <ele>527</ele>
        <time>2021-08-04T15:10:30Z</time>
      </trkpt>
      <trkpt lat="45.58979" lon="3.27938">
        <ele>526</ele>
        <time>2021-08-04T15:10:32Z</time>
      </trkpt>
      <trkpt lat="45.58969" lon="3.27918">
        <ele>524.8</ele>
        <time>2021-08-04T15:10:34Z</time>
      </trkpt>
      <trkpt lat="45.58957" lon="3.27899">
        <ele>523.5</ele>
        <time>2021-08-04T15:10:36Z</time>
      </trkpt>
      <trkpt lat="45.58942" lon="3.27883">
        <ele>522.3</ele>
        <time>2021-08-04T15:10:38Z</time>
      </trkpt>
      <trkpt lat="45.58926" lon="3.2787">
        <ele>521.3</ele>
        <time>2021-08-04T15:10:40Z</time>
      </trkpt>
      <trkpt lat="45.58909" lon="3.27857">
        <ele>520.5</ele>
        <time>2021-08-04T15:10:42Z</time>
      </trkpt>
      <trkpt lat="45.58892" lon="3.27844">
        <ele>520.1</ele>
        <time>2021-08-04T15:10:44Z</time>
      </trkpt>
      <trkpt lat="45.58874" lon="3.27829">
        <ele>519.8</ele>
        <time>2021-08-04T15:10:46Z</time>
      </trkpt>
      <trkpt lat="45.58857" lon="3.27813">
        <ele>519.4</ele>
        <time>2021-08-04T15:10:48Z</time>
      </trkpt>
      <trkpt lat="45.58843" lon="3.27794">
        <ele>518.7</ele>
        <time>2021-08-04T15:10:50Z</time>
      </trkpt>
      <trkpt lat="45.58831" lon="3.27772">
        <ele>517.9</ele>
        <time>2021-08-04T15:10:52Z</time>
      </trkpt>
      <trkpt lat="45.5882" lon="3.27751">
        <ele>517.4</ele>
        <time>2021-08-04T15:10:54Z</time>
      </trkpt>
      <trkpt lat="45.5881" lon="3.27731">
        <ele>517.3</ele>
        <time>2021-08-04T15:10:56Z</time>
      </trkpt>
      <trkpt lat="45.588" lon="3.27712">
        <ele>517.2</ele>
        <time>2021-08-04T15:10:58Z</time>
      </trkpt>
      <trkpt lat="45.58791" lon="3.27694">
        <ele>517</ele>
        <time>2021-08-04T15:11:00Z</time>
      </trkpt>
      <trkpt lat="45.58782" lon="3.27677">
        <ele>516.9</ele>
        <time>2021-08-04T15:11:02Z</time>
      </trkpt>
      <trkpt lat="45.58773" lon="3.27659">
        <ele>516.9</ele>
        <time>2021-08-04T15:11:04Z</time>
      </trkpt>
      <trkpt lat="45.58765" lon="3.27643">
        <ele>517.2</ele>
        <time>2021-08-04T15:11:06Z</time>
      </trkpt>
      <trkpt lat="45.58757" lon="3.27628">
        <ele>517.5</ele>
        <time>2021-08-04T15:11:08Z</time>
      </trkpt>
      <trkpt lat="45.5875" lon="3.27613">
        <ele>517.8</ele>
        <time>2021-08-04T15:11:10Z</time>
      </trkpt>
      <trkpt lat="45.58742" lon="3.276">
        <ele>518</ele>
        <time>2021-08-04T15:11:12Z</time>
      </trkpt>
      <trkpt lat="45.58735" lon="3.27587">
        <ele>518.2</ele>
        <time>2021-08-04T15:11:14Z</time>
      </trkpt>
      <trkpt lat="45.58727" lon="3.27574">
        <ele>518.3</ele>
        <time>2021-08-04T15:11:16Z</time>
      </trkpt>
      <trkpt lat="45.5872" lon="3.27562">
        <ele>518.3</ele>
        <time>2021-08-04T15:11:18Z</time>
      </trkpt>
      <trkpt lat="45.58712" lon="3.27549">
        <ele>518.3</ele>
        <time>2021-08-04T15:11:20Z</time>
      </trkpt>
      <trkpt lat="45.58705" lon="3.27537">
        <ele>518.3</ele>
        <time>2021-08-04T15:11:22Z</time>
      </trkpt>
      <trkpt lat="45.58697" lon="3.27525">
        <ele>518.2</ele>
        <time>2021-08-04T15:11:24Z</time>
      </trkpt>
      <trkpt lat="45.58689" lon="3.27513">
        <ele>518.2</ele>
        <time>2021-08-04T15:11:26Z</time>
      </trkpt>
      <trkpt lat="45.58682" lon="3.275">
        <ele>518.1</ele>
        <time>2021-08-04T15:11:28Z</time>
      </trkpt>
      <trkpt lat="45.58674" lon="3.27488">
        <ele>518.4</ele>
        <time>2021-08-04T15:11:30Z</time>
      </trkpt>
      <trkpt lat="45.58667" lon="3.27476">
        <ele>518.7</ele>
        <time>2021-08-04T15:11:32Z</time>
      </trkpt>
      <trkpt lat="45.5866" lon="3.27464">
        <ele>518.8</ele>
        <time>2021-08-04T15:11:34Z</time>
      </trkpt>
      <trkpt lat="45.58653" lon="3.27453">
        <ele>518.9</ele>
        <time>2021-08-04T15:11:36Z</time>
      </trkpt>
      <trkpt lat="45.58647" lon="3.27442">
        <ele>518.9</ele>
        <time>2021-08-04T15:11:38Z</time>
      </trkpt>
      <trkpt lat="45.5864" lon="3.27432">
        <ele>518.9</ele>
        <time>2021-08-04T15:11:40Z</time>
      </trkpt>
      <trkpt lat="45.58632" lon="3.27424">
        <ele>519</ele>
        <time>2021-08-04T15:11:42Z</time>
      </trkpt>
      <trkpt lat="45.58625" lon="3.27415">
        <ele>519</ele>
        <time>2021-08-04T15:11:44Z</time>
      </trkpt>
      <trkpt lat="45.58617" lon="3.27408">
        <ele>519.3</ele>
        <time>2021-08-04T15:11:46Z</time>
      </trkpt>
      <trkpt lat="45.58609" lon="3.27401">
        <ele>519.6</ele>
        <time>2021-08-04T15:11:48Z</time>
      </trkpt>
      <trkpt lat="45.586" lon="3.27395">
        <ele>519.9</ele>
        <time>2021-08-04T15:11:50Z</time>
      </trkpt>
      <trkpt lat="45.58591" lon="3.27389">
        <ele>520.2</ele>
        <time>2021-08-04T15:11:52Z</time>
      </trkpt>
      <trkpt lat="45.58582" lon="3.27384">
        <ele>520.3</ele>
        <time>2021-08-04T15:11:54Z</time>
      </trkpt>
      <trkpt lat="45.58573" lon="3.27378">
        <ele>520.1</ele>
        <time>2021-08-04T15:11:56Z</time>
      </trkpt>
      <trkpt lat="45.58563" lon="3.27372">
        <ele>519.8</ele>
        <time>2021-08-04T15:11:58Z</time>
      </trkpt>
      <trkpt lat="45.58553" lon="3.27365">
        <ele>519.5</ele>
        <time>2021-08-04T15:12:00Z</time>
      </trkpt>
      <trkpt lat="45.58543" lon="3.27359">
        <ele>519.1</ele>
        <time>2021-08-04T15:12:02Z</time>
      </trkpt>
      <trkpt lat="45.58533" lon="3.27352">
        <ele>518.6</ele>
        <time>2021-08-04T15:12:04Z</time>
      </trkpt>
      <trkpt lat="45.58523" lon="3.27346">
        <ele>518.2</ele>
        <time>2021-08-04T15:12:06Z</time>
      </trkpt>
      <trkpt lat="45.58512" lon="3.27339">
        <ele>517.6</ele>
        <time>2021-08-04T15:12:08Z</time>
      </trkpt>
      <trkpt lat="45.58501" lon="3.27333">
        <ele>517</ele>
        <time>2021-08-04T15:12:10Z</time>
      </trkpt>
      <trkpt lat="45.5849" lon="3.27326">
        <ele>516.7</ele>
        <time>2021-08-04T15:12:12Z</time>
      </trkpt>
      <trkpt lat="45.58478" lon="3.2732">
        <ele>516.2</ele>
        <time>2021-08-04T15:12:14Z</time>
      </trkpt>
      <trkpt lat="45.58466" lon="3.27314">
        <ele>515.7</ele>
        <time>2021-08-04T15:12:16Z</time>
      </trkpt>
      <trkpt lat="45.58453" lon="3.27308">
        <ele>515.2</ele>
        <time>2021-08-04T15:12:18Z</time>
      </trkpt>
      <trkpt lat="45.58439" lon="3.27301">
        <ele>514.6</ele>
        <time>2021-08-04T15:12:20Z</time>
      </trkpt>
      <trkpt lat="45.58425" lon="3.27295">
        <ele>513.9</ele>
        <time>2021-08-04T15:12:22Z</time>
      </trkpt>
      <trkpt lat="45.5841" lon="3.27288">
        <ele>513.3</ele>
        <time>2021-08-04T15:12:24Z</time>
      </trkpt>
      <trkpt lat="45.58395" lon="3.27281">
        <ele>512.6</ele>
        <time>2021-08-04T15:12:26Z</time>
      </trkpt>
      <trkpt lat="45.58379" lon="3.27273">
        <ele>511.8</ele>
        <time>2021-08-04T15:12:28Z</time>
      </trkpt>
      <trkpt lat="45.58363" lon="3.27265">
        <ele>510.9</ele>
        <time>2021-08-04T15:12:30Z</time>
      </trkpt>
      <trkpt lat="45.58346" lon="3.27257">
        <ele>509.9</ele>
        <time>2021-08-04T15:12:32Z</time>
      </trkpt>
      <trkpt lat="45.58331" lon="3.27248">
        <ele>509</ele>
        <time>2021-08-04T15:12:34Z</time>
      </trkpt>
      <trkpt lat="45.58315" lon="3.27237">
        <ele>508.6</ele>
        <time>2021-08-04T15:12:36Z</time>
      </trkpt>
      <trkpt lat="45.58301" lon="3.27226">
        <ele>508.2</ele>
        <time>2021-08-04T15:12:38Z</time>
      </trkpt>
      <trkpt lat="45.58287" lon="3.27213">
        <ele>507.7</ele>
        <time>2021-08-04T15:12:40Z</time>
      </trkpt>
      <trkpt lat="45.58273" lon="3.272">
        <ele>507.2</ele>
        <time>2021-08-04T15:12:42Z</time>
      </trkpt>
      <trkpt lat="45.58259" lon="3.27187">
        <ele>506.5</ele>
        <time>2021-08-04T15:12:44Z</time>
      </trkpt>
      <trkpt lat="45.58246" lon="3.27174">
        <ele>505.8</ele>
        <time>2021-08-04T15:12:46Z</time>
      </trkpt>
      <trkpt lat="45.58232" lon="3.27161">
        <ele>505.4</ele>
        <time>2021-08-04T15:12:48Z</time>
      </trkpt>
      <trkpt lat="45.58219" lon="3.27149">
        <ele>505.2</ele>
        <time>2021-08-04T15:12:50Z</time>
      </trkpt>
      <trkpt lat="45.58206" lon="3.27137">
        <ele>504.9</ele>
        <time>2021-08-04T15:12:52Z</time>
      </trkpt>
      <trkpt lat="45.58195" lon="3.27127">
        <ele>504.6</ele>
        <time>2021-08-04T15:12:54Z</time>
      </trkpt>
      <trkpt lat="45.58184" lon="3.27121">
        <ele>504.2</ele>
        <time>2021-08-04T15:12:56Z</time>
      </trkpt>
      <trkpt lat="45.58177" lon="3.27115">
        <ele>503.9</ele>
        <time>2021-08-04T15:12:58Z</time>
      </trkpt>
      <trkpt lat="45.58173" lon="3.27108">
        <ele>503.8</ele>
        <time>2021-08-04T15:13:00Z</time>
      </trkpt>
      <trkpt lat="45.5817" lon="3.27104">
        <ele>503.7</ele>
        <time>2021-08-04T15:13:02Z</time>
      </trkpt>
      <trkpt lat="45.58167" lon="3.27104">
        <ele>503.5</ele>
        <time>2021-08-04T15:13:04Z</time>
      </trkpt>
      <trkpt lat="45.58167" lon="3.27105">
        <ele>503.5</ele>
        <time>2021-08-04T15:13:06Z</time>
      </trkpt>
      <trkpt lat="45.58167" lon="3.27105">
        <ele>503.5</ele>
        <time>2021-08-04T15:13:08Z</time>
      </trkpt>
      <trkpt lat="45.58167" lon="3.27105">
        <ele>503.5</ele>
        <time>2021-08-04T15:13:10Z</time>
      </trkpt>
      <trkpt lat="45.58167" lon="3.27105">
        <ele>503.5</ele>
        <time>2021-08-04T15:13:12Z</time>
      </trkpt>
      <trkpt lat="45.58144" lon="3.27102">
        <ele>502.5</ele>
        <time>2021-08-04T15:21:28Z</time>
      </trkpt>
      <trkpt lat="45.58135" lon="3.27099">
        <ele>502.2</ele>
        <time>2021-08-04T15:21:30Z</time>
      </trkpt>
      <trkpt lat="45.58123" lon="3.27096">
        <ele>501.7</ele>
        <time>2021-08-04T15:21:32Z</time>
      </trkpt>
      <trkpt lat="45.5811" lon="3.27092">
        <ele>501.1</ele>
        <time>2021-08-04T15:21:34Z</time>
      </trkpt>
      <trkpt lat="45.58096" lon="3.27089">
        <ele>500.5</ele>
        <time>2021-08-04T15:21:36Z</time>
      </trkpt>
      <trkpt lat="45.5808" lon="3.27085">
        <ele>499.7</ele>
        <time>2021-08-04T15:21:38Z</time>
      </trkpt>
      <trkpt lat="45.58063" lon="3.27082">
        <ele>498.7</ele>
        <time>2021-08-04T15:21:40Z</time>
      </trkpt>
      <trkpt lat="45.58046" lon="3.27079">
        <ele>497.8</ele>
        <time>2021-08-04T15:21:42Z</time>
      </trkpt>
      <trkpt lat="45.58027" lon="3.27076">
        <ele>496.8</ele>
        <time>2021-08-04T15:21:44Z</time>
      </trkpt>
      <trkpt lat="45.58008" lon="3.27074">
        <ele>495.6</ele>
        <time>2021-08-04T15:21:46Z</time>
      </trkpt>
      <trkpt lat="45.57989" lon="3.27074">
        <ele>494.3</ele>
        <time>2021-08-04T15:21:48Z</time>
      </trkpt>
      <trkpt lat="45.57972" lon="3.27073">
        <ele>493.2</ele>
        <time>2021-08-04T15:21:50Z</time>
      </trkpt>
      <trkpt lat="45.57954" lon="3.27073">
        <ele>491.9</ele>
        <time>2021-08-04T15:21:52Z</time>
      </trkpt>
      <trkpt lat="45.57935" lon="3.27075">
        <ele>490.4</ele>
        <time>2021-08-04T15:21:54Z</time>
      </trkpt>
      <trkpt lat="45.57915" lon="3.27077">
        <ele>488.7</ele>
        <time>2021-08-04T15:21:56Z</time>
      </trkpt>
      <trkpt lat="45.57894" lon="3.27076">
        <ele>487.5</ele>
        <time>2021-08-04T15:21:58Z</time>
      </trkpt>
      <trkpt lat="45.57875" lon="3.27079">
        <ele>486</ele>
        <time>2021-08-04T15:22:00Z</time>
      </trkpt>
      <trkpt lat="45.57857" lon="3.27082">
        <ele>484.6</ele>
        <time>2021-08-04T15:22:02Z</time>
      </trkpt>
      <trkpt lat="45.5784" lon="3.27086">
        <ele>483.5</ele>
        <time>2021-08-04T15:22:04Z</time>
      </trkpt>
      <trkpt lat="45.57824" lon="3.27092">
        <ele>482.5</ele>
        <time>2021-08-04T15:22:06Z</time>
      </trkpt>
      <trkpt lat="45.57806" lon="3.27097">
        <ele>481.1</ele>
        <time>2021-08-04T15:22:08Z</time>
      </trkpt>
      <trkpt lat="45.57788" lon="3.27101">
        <ele>479.7</ele>
        <time>2021-08-04T15:22:10Z</time>
      </trkpt>
      <trkpt lat="45.5777" lon="3.271">
        <ele>478.1</ele>
        <time>2021-08-04T15:22:12Z</time>
      </trkpt>
      <trkpt lat="45.57752" lon="3.27091">
        <ele>476.3</ele>
        <time>2021-08-04T15:22:14Z</time>
      </trkpt>
      <trkpt lat="45.57735" lon="3.27076">
        <ele>476</ele>
        <time>2021-08-04T15:22:16Z</time>
      </trkpt>
      <trkpt lat="45.5772" lon="3.27058">
        <ele>476.3</ele>
        <time>2021-08-04T15:22:18Z</time>
      </trkpt>
      <trkpt lat="45.57704" lon="3.2704">
        <ele>476.3</ele>
        <time>2021-08-04T15:22:20Z</time>
      </trkpt>
      <trkpt lat="45.57688" lon="3.27021">
        <ele>476</ele>
        <time>2021-08-04T15:22:22Z</time>
      </trkpt>
      <trkpt lat="45.57671" lon="3.27002">
        <ele>475.3</ele>
        <time>2021-08-04T15:22:24Z</time>
      </trkpt>
      <trkpt lat="45.57653" lon="3.26984">
        <ele>477.5</ele>
        <time>2021-08-04T15:22:26Z</time>
      </trkpt>
      <trkpt lat="45.57634" lon="3.26969">
        <ele>478.7</ele>
        <time>2021-08-04T15:22:28Z</time>
      </trkpt>
      <trkpt lat="45.57612" lon="3.2696">
        <ele>478.1</ele>
        <time>2021-08-04T15:22:30Z</time>
      </trkpt>
      <trkpt lat="45.57589" lon="3.26953">
        <ele>476.3</ele>
        <time>2021-08-04T15:22:32Z</time>
      </trkpt>
      <trkpt lat="45.57566" lon="3.26949">
        <ele>474.5</ele>
        <time>2021-08-04T15:22:34Z</time>
      </trkpt>
      <trkpt lat="45.57543" lon="3.26945">
        <ele>472.4</ele>
        <time>2021-08-04T15:22:36Z</time>
      </trkpt>
      <trkpt lat="45.5752" lon="3.26942">
        <ele>470.1</ele>
        <time>2021-08-04T15:22:38Z</time>
      </trkpt>
      <trkpt lat="45.57496" lon="3.26938">
        <ele>467.7</ele>
        <time>2021-08-04T15:22:40Z</time>
      </trkpt>
      <trkpt lat="45.57473" lon="3.26933">
        <ele>466</ele>
        <time>2021-08-04T15:22:42Z</time>
      </trkpt>
      <trkpt lat="45.5745" lon="3.26929">
        <ele>464.1</ele>
        <time>2021-08-04T15:22:44Z</time>
      </trkpt>
      <trkpt lat="45.57426" lon="3.26925">
        <ele>462.2</ele>
        <time>2021-08-04T15:22:46Z</time>
      </trkpt>
      <trkpt lat="45.57403" lon="3.26921">
        <ele>460.4</ele>
        <time>2021-08-04T15:22:48Z</time>
      </trkpt>
      <trkpt lat="45.57379" lon="3.26918">
        <ele>458.8</ele>
        <time>2021-08-04T15:22:50Z</time>
      </trkpt>
      <trkpt lat="45.57355" lon="3.26917">
        <ele>457.3</ele>
        <time>2021-08-04T15:22:52Z</time>
      </trkpt>
      <trkpt lat="45.5733" lon="3.2692">
        <ele>455.9</ele>
        <time>2021-08-04T15:22:54Z</time>
      </trkpt>
      <trkpt lat="45.57307" lon="3.26922">
        <ele>454.2</ele>
        <time>2021-08-04T15:22:56Z</time>
      </trkpt>
      <trkpt lat="45.57282" lon="3.26925">
        <ele>452.5</ele>
        <time>2021-08-04T15:22:58Z</time>
      </trkpt>
      <trkpt lat="45.57257" lon="3.26928">
        <ele>450.9</ele>
        <time>2021-08-04T15:23:00Z</time>
      </trkpt>
      <trkpt lat="45.57234" lon="3.26932">
        <ele>448.4</ele>
        <time>2021-08-04T15:23:02Z</time>
      </trkpt>
      <trkpt lat="45.5721" lon="3.26936">
        <ele>445.5</ele>
        <time>2021-08-04T15:23:04Z</time>
      </trkpt>
      <trkpt lat="45.57186" lon="3.2694">
        <ele>442.7</ele>
        <time>2021-08-04T15:23:06Z</time>
      </trkpt>
      <trkpt lat="45.57163" lon="3.26948">
        <ele>440.8</ele>
        <time>2021-08-04T15:23:08Z</time>
      </trkpt>
      <trkpt lat="45.57142" lon="3.26957">
        <ele>440.6</ele>
        <time>2021-08-04T15:23:10Z</time>
      </trkpt>
      <trkpt lat="45.5712" lon="3.26962">
        <ele>439.8</ele>
        <time>2021-08-04T15:23:12Z</time>
      </trkpt>
      <trkpt lat="45.57097" lon="3.26958">
        <ele>438.2</ele>
        <time>2021-08-04T15:23:14Z</time>
      </trkpt>
      <trkpt lat="45.57074" lon="3.26951">
        <ele>436.7</ele>
        <time>2021-08-04T15:23:16Z</time>
      </trkpt>
      <trkpt lat="45.57052" lon="3.26941">
        <ele>435.2</ele>
        <time>2021-08-04T15:23:18Z</time>
      </trkpt>
      <trkpt lat="45.57028" lon="3.26932">
        <ele>433.1</ele>
        <time>2021-08-04T15:23:20Z</time>
      </trkpt>
      <trkpt lat="45.57005" lon="3.26923">
        <ele>430.5</ele>
        <time>2021-08-04T15:23:22Z</time>
      </trkpt>
      <trkpt lat="45.56982" lon="3.26912">
        <ele>430.6</ele>
        <time>2021-08-04T15:23:24Z</time>
      </trkpt>
      <trkpt lat="45.5696" lon="3.26895">
        <ele>431.2</ele>
        <time>2021-08-04T15:23:26Z</time>
      </trkpt>
      <trkpt lat="45.56939" lon="3.26876">
        <ele>429.4</ele>
        <time>2021-08-04T15:23:28Z</time>
      </trkpt>
      <trkpt lat="45.56921" lon="3.26857">
        <ele>425.6</ele>
        <time>2021-08-04T15:23:30Z</time>
      </trkpt>
      <trkpt lat="45.56903" lon="3.26836">
        <ele>421.8</ele>
        <time>2021-08-04T15:23:32Z</time>
      </trkpt>
      <trkpt lat="45.56884" lon="3.26818">
        <ele>421.9</ele>
        <time>2021-08-04T15:23:34Z</time>
      </trkpt>
      <trkpt lat="45.56862" lon="3.2681">
        <ele>421.6</ele>
        <time>2021-08-04T15:23:36Z</time>
      </trkpt>
      <trkpt lat="45.56839" lon="3.26802">
        <ele>420.6</ele>
        <time>2021-08-04T15:23:38Z</time>
      </trkpt>
      <trkpt lat="45.56815" lon="3.26796">
        <ele>418.9</ele>
        <time>2021-08-04T15:23:40Z</time>
      </trkpt>
      <trkpt lat="45.56791" lon="3.26793">
        <ele>417.2</ele>
        <time>2021-08-04T15:23:42Z</time>
      </trkpt>
      <trkpt lat="45.56768" lon="3.26789">
        <ele>415.2</ele>
        <time>2021-08-04T15:23:44Z</time>
      </trkpt>
      <trkpt lat="45.56744" lon="3.26788">
        <ele>413.7</ele>
        <time>2021-08-04T15:23:46Z</time>
      </trkpt>
      <trkpt lat="45.56722" lon="3.2679">
        <ele>413.2</ele>
        <time>2021-08-04T15:23:48Z</time>
      </trkpt>
      <trkpt lat="45.567" lon="3.26789">
        <ele>412.3</ele>
        <time>2021-08-04T15:23:50Z</time>
      </trkpt>
      <trkpt lat="45.56681" lon="3.2678">
        <ele>409.8</ele>
        <time>2021-08-04T15:23:52Z</time>
      </trkpt>
      <trkpt lat="45.56665" lon="3.26763">
        <ele>405.7</ele>
        <time>2021-08-04T15:23:54Z</time>
      </trkpt>
      <trkpt lat="45.56652" lon="3.26745">
        <ele>403.9</ele>
        <time>2021-08-04T15:23:56Z</time>
      </trkpt>
      <trkpt lat="45.56636" lon="3.26731">
        <ele>403.8</ele>
        <time>2021-08-04T15:23:58Z</time>
      </trkpt>
      <trkpt lat="45.5662" lon="3.26722">
        <ele>403.1</ele>
        <time>2021-08-04T15:24:00Z</time>
      </trkpt>
      <trkpt lat="45.56603" lon="3.26712">
        <ele>401.4</ele>
        <time>2021-08-04T15:24:02Z</time>
      </trkpt>
      <trkpt lat="45.56586" lon="3.26699">
        <ele>398.2</ele>
        <time>2021-08-04T15:24:04Z</time>
      </trkpt>
      <trkpt lat="45.56569" lon="3.26686">
        <ele>393.3</ele>
        <time>2021-08-04T15:24:06Z</time>
      </trkpt>
      <trkpt lat="45.56554" lon="3.26673">
        <ele>388.8</ele>
        <time>2021-08-04T15:24:08Z</time>
      </trkpt>
      <trkpt lat="45.56539" lon="3.26665">
        <ele>385.5</ele>
        <time>2021-08-04T15:24:10Z</time>
      </trkpt>
      <trkpt lat="45.56524" lon="3.26664">
        <ele>383.7</ele>
        <time>2021-08-04T15:24:12Z</time>
      </trkpt>
      <trkpt lat="45.56511" lon="3.26673">
        <ele>383.5</ele>
        <time>2021-08-04T15:24:14Z</time>
      </trkpt>
      <trkpt lat="45.56501" lon="3.26689">
        <ele>385.4</ele>
        <time>2021-08-04T15:24:16Z</time>
      </trkpt>
      <trkpt lat="45.56494" lon="3.26711">
        <ele>388</ele>
        <time>2021-08-04T15:24:18Z</time>
      </trkpt>
      <trkpt lat="45.56483" lon="3.26728">
        <ele>388.7</ele>
        <time>2021-08-04T15:24:20Z</time>
      </trkpt>
      <trkpt lat="45.56468" lon="3.26736">
        <ele>386</ele>
        <time>2021-08-04T15:24:22Z</time>
      </trkpt>
      <trkpt lat="45.56454" lon="3.26742">
        <ele>383.2</ele>
        <time>2021-08-04T15:24:24Z</time>
      </trkpt>
      <trkpt lat="45.56443" lon="3.26757">
        <ele>382.3</ele>
        <time>2021-08-04T15:24:26Z</time>
      </trkpt>
      <trkpt lat="45.56434" lon="3.26775">
        <ele>382.4</ele>
        <time>2021-08-04T15:24:28Z</time>
      </trkpt>
      <trkpt lat="45.56424" lon="3.26795">
        <ele>382.3</ele>
        <time>2021-08-04T15:24:30Z</time>
      </trkpt>
      <trkpt lat="45.56414" lon="3.26817">
        <ele>382.5</ele>
        <time>2021-08-04T15:24:32Z</time>
      </trkpt>
      <trkpt lat="45.56405" lon="3.26841">
        <ele>383.5</ele>
        <time>2021-08-04T15:24:34Z</time>
      </trkpt>
      <trkpt lat="45.56397" lon="3.26867">
        <ele>384</ele>
        <time>2021-08-04T15:24:36Z</time>
      </trkpt>
      <trkpt lat="45.56388" lon="3.26892">
        <ele>383.7</ele>
        <time>2021-08-04T15:24:38Z</time>
      </trkpt>
      <trkpt lat="45.56378" lon="3.26917">
        <ele>382.4</ele>
        <time>2021-08-04T15:24:40Z</time>
      </trkpt>
      <trkpt lat="45.56368" lon="3.2694">
        <ele>382</ele>
        <time>2021-08-04T15:24:42Z</time>
      </trkpt>
      <trkpt lat="45.56361" lon="3.26964">
        <ele>381.8</ele>
        <time>2021-08-04T15:24:44Z</time>
      </trkpt>
      <trkpt lat="45.56354" lon="3.26987">
        <ele>381.8</ele>
        <time>2021-08-04T15:24:46Z</time>
      </trkpt>
      <trkpt lat="45.56347" lon="3.27009">
        <ele>381</ele>
        <time>2021-08-04T15:24:48Z</time>
      </trkpt>
      <trkpt lat="45.56339" lon="3.2703">
        <ele>380.1</ele>
        <time>2021-08-04T15:24:50Z</time>
      </trkpt>
      <trkpt lat="45.56333" lon="3.27052">
        <ele>380</ele>
        <time>2021-08-04T15:24:52Z</time>
      </trkpt>
      <trkpt lat="45.56329" lon="3.27073">
        <ele>381.3</ele>
        <time>2021-08-04T15:24:54Z</time>
      </trkpt>
      <trkpt lat="45.56327" lon="3.27095">
        <ele>382.2</ele>
        <time>2021-08-04T15:24:56Z</time>
      </trkpt>
      <trkpt lat="45.56324" lon="3.27116">
        <ele>382.7</ele>
        <time>2021-08-04T15:24:58Z</time>
      </trkpt>
      <trkpt lat="45.56321" lon="3.27136">
        <ele>383</ele>
        <time>2021-08-04T15:25:00Z</time>
      </trkpt>
      <trkpt lat="45.56317" lon="3.27156">
        <ele>383</ele>
        <time>2021-08-04T15:25:02Z</time>
      </trkpt>
      <trkpt lat="45.56313" lon="3.27175">
        <ele>383</ele>
        <time>2021-08-04T15:25:04Z</time>
      </trkpt>
      <trkpt lat="45.5631" lon="3.27193">
        <ele>383</ele>
        <time>2021-08-04T15:25:06Z</time>
      </trkpt>
      <trkpt lat="45.56307" lon="3.27212">
        <ele>383</ele>
        <time>2021-08-04T15:25:08Z</time>
      </trkpt>
      <trkpt lat="45.56304" lon="3.27231">
        <ele>383</ele>
        <time>2021-08-04T15:25:10Z</time>
      </trkpt>
      <trkpt lat="45.56302" lon="3.27249">
        <ele>383</ele>
        <time>2021-08-04T15:25:12Z</time>
      </trkpt>
      <trkpt lat="45.563" lon="3.27268">
        <ele>382.1</ele>
        <time>2021-08-04T15:25:14Z</time>
      </trkpt>
      <trkpt lat="45.56299" lon="3.27286">
        <ele>381.3</ele>
        <time>2021-08-04T15:25:16Z</time>
      </trkpt>
      <trkpt lat="45.56297" lon="3.27305">
        <ele>380.3</ele>
        <time>2021-08-04T15:25:18Z</time>
      </trkpt>
      <trkpt lat="45.56291" lon="3.27323">
        <ele>378.7</ele>
        <time>2021-08-04T15:25:20Z</time>
      </trkpt>
      <trkpt lat="45.56283" lon="3.2734">
        <ele>376.8</ele>
        <time>2021-08-04T15:25:22Z</time>
      </trkpt>
      <trkpt lat="45.56272" lon="3.27353">
        <ele>375.1</ele>
        <time>2021-08-04T15:25:24Z</time>
      </trkpt>
      <trkpt lat="45.56261" lon="3.27365">
        <ele>373.4</ele>
        <time>2021-08-04T15:25:26Z</time>
      </trkpt>
      <trkpt lat="45.56249" lon="3.27376">
        <ele>372</ele>
        <time>2021-08-04T15:25:28Z</time>
      </trkpt>
      <trkpt lat="45.56238" lon="3.27387">
        <ele>372.2</ele>
        <time>2021-08-04T15:25:30Z</time>
      </trkpt>
      <trkpt lat="45.56227" lon="3.27398">
        <ele>372.2</ele>
        <time>2021-08-04T15:25:32Z</time>
      </trkpt>
      <trkpt lat="45.56216" lon="3.27409">
        <ele>372.1</ele>
        <time>2021-08-04T15:25:34Z</time>
      </trkpt>
      <trkpt lat="45.56206" lon="3.27421">
        <ele>372.3</ele>
        <time>2021-08-04T15:25:36Z</time>
      </trkpt>
      <trkpt lat="45.56197" lon="3.27434">
        <ele>372.7</ele>
        <time>2021-08-04T15:25:38Z</time>
      </trkpt>
      <trkpt lat="45.56188" lon="3.27446">
        <ele>372.8</ele>
        <time>2021-08-04T15:25:40Z</time>
      </trkpt>
      <trkpt lat="45.5618" lon="3.27458">
        <ele>372.7</ele>
        <time>2021-08-04T15:25:42Z</time>
      </trkpt>
      <trkpt lat="45.56172" lon="3.2747">
        <ele>372.5</ele>
        <time>2021-08-04T15:25:44Z</time>
      </trkpt>
      <trkpt lat="45.56164" lon="3.27481">
        <ele>372.1</ele>
        <time>2021-08-04T15:25:46Z</time>
      </trkpt>
      <trkpt lat="45.56157" lon="3.27493">
        <ele>371.8</ele>
        <time>2021-08-04T15:25:48Z</time>
      </trkpt>
      <trkpt lat="45.5615" lon="3.27504">
        <ele>371.8</ele>
        <time>2021-08-04T15:25:50Z</time>
      </trkpt>
      <trkpt lat="45.56144" lon="3.27516">
        <ele>372.6</ele>
        <time>2021-08-04T15:25:52Z</time>
      </trkpt>
      <trkpt lat="45.56138" lon="3.27528">
        <ele>373.1</ele>
        <time>2021-08-04T15:25:54Z</time>
      </trkpt>
      <trkpt lat="45.56132" lon="3.27538">
        <ele>373.4</ele>
        <time>2021-08-04T15:25:56Z</time>
      </trkpt>
      <trkpt lat="45.56127" lon="3.27549">
        <ele>373.6</ele>
        <time>2021-08-04T15:25:58Z</time>
      </trkpt>
      <trkpt lat="45.56122" lon="3.27558">
        <ele>373.7</ele>
        <time>2021-08-04T15:26:00Z</time>
      </trkpt>
      <trkpt lat="45.56117" lon="3.27567">
        <ele>373.7</ele>
        <time>2021-08-04T15:26:02Z</time>
      </trkpt>
      <trkpt lat="45.56113" lon="3.27574">
        <ele>373.7</ele>
        <time>2021-08-04T15:26:04Z</time>
      </trkpt>
      <trkpt lat="45.5611" lon="3.27581">
        <ele>373.6</ele>
        <time>2021-08-04T15:26:06Z</time>
      </trkpt>
      <trkpt lat="45.56106" lon="3.27588">
        <ele>373.1</ele>
        <time>2021-08-04T15:26:08Z</time>
      </trkpt>
      <trkpt lat="45.56102" lon="3.27595">
        <ele>372.5</ele>
        <time>2021-08-04T15:26:10Z</time>
      </trkpt>
      <trkpt lat="45.561" lon="3.27599">
        <ele>372.1</ele>
        <time>2021-08-04T15:26:12Z</time>
      </trkpt>
      <trkpt lat="45.56099" lon="3.276">
        <ele>372</ele>
        <time>2021-08-04T15:26:14Z</time>
      </trkpt>
      <trkpt lat="45.56099" lon="3.276">
        <ele>371.9</ele>
        <time>2021-08-04T15:26:16Z</time>
      </trkpt>
      <trkpt lat="45.56099" lon="3.27601">
        <ele>371.9</ele>
        <time>2021-08-04T15:26:18Z</time>
      </trkpt>
      <trkpt lat="45.56099" lon="3.27601">
        <ele>371.9</ele>
        <time>2021-08-04T15:26:20Z</time>
      </trkpt>
      <trkpt lat="45.56099" lon="3.27601">
        <ele>371.9</ele>
        <time>2021-08-04T15:26:22Z</time>
      </trkpt>
      <trkpt lat="45.56089" lon="3.27631">
        <ele>370</ele>
        <time>2021-08-04T15:27:32Z</time>
      </trkpt>
      <trkpt lat="45.56091" lon="3.27639">
        <ele>370.4</ele>
        <time>2021-08-04T15:27:34Z</time>
      </trkpt>
      <trkpt lat="45.56092" lon="3.27647">
        <ele>370.8</ele>
        <time>2021-08-04T15:27:36Z</time>
      </trkpt>
      <trkpt lat="45.56095" lon="3.27656">
        <ele>371.3</ele>
        <time>2021-08-04T15:27:38Z</time>
      </trkpt>
      <trkpt lat="45.56096" lon="3.27664">
        <ele>371.6</ele>
        <time>2021-08-04T15:27:40Z</time>
      </trkpt>
      <trkpt lat="45.56097" lon="3.27672">
        <ele>371.9</ele>
        <time>2021-08-04T15:27:42Z</time>
      </trkpt>
      <trkpt lat="45.56098" lon="3.27682">
        <ele>372.3</ele>
        <time>2021-08-04T15:27:44Z</time>
      </trkpt>
      <trkpt lat="45.56099" lon="3.2769">
        <ele>372.7</ele>
        <time>2021-08-04T15:27:46Z</time>
      </trkpt>
      <trkpt lat="45.561" lon="3.27698">
        <ele>373</ele>
        <time>2021-08-04T15:27:48Z</time>
      </trkpt>
      <trkpt lat="45.56101" lon="3.27706">
        <ele>373.3</ele>
        <time>2021-08-04T15:27:50Z</time>
      </trkpt>
      <trkpt lat="45.56101" lon="3.27713">
        <ele>373.6</ele>
        <time>2021-08-04T15:27:52Z</time>
      </trkpt>
      <trkpt lat="45.56102" lon="3.27721">
        <ele>373.9</ele>
        <time>2021-08-04T15:27:54Z</time>
      </trkpt>
      <trkpt lat="45.56103" lon="3.27728">
        <ele>374.1</ele>
        <time>2021-08-04T15:27:56Z</time>
      </trkpt>
      <trkpt lat="45.56104" lon="3.27735">
        <ele>374.4</ele>
        <time>2021-08-04T15:27:58Z</time>
      </trkpt>
      <trkpt lat="45.56105" lon="3.27743">
        <ele>374.8</ele>
        <time>2021-08-04T15:28:00Z</time>
      </trkpt>
      <trkpt lat="45.56106" lon="3.2775">
        <ele>375</ele>
        <time>2021-08-04T15:28:02Z</time>
      </trkpt>
      <trkpt lat="45.56106" lon="3.27757">
        <ele>375.3</ele>
        <time>2021-08-04T15:28:04Z</time>
      </trkpt>
      <trkpt lat="45.56107" lon="3.27763">
        <ele>375.5</ele>
        <time>2021-08-04T15:28:06Z</time>
      </trkpt>
      <trkpt lat="45.56108" lon="3.2777">
        <ele>375.8</ele>
        <time>2021-08-04T15:28:08Z</time>
      </trkpt>
      <trkpt lat="45.56109" lon="3.27777">
        <ele>376</ele>
        <time>2021-08-04T15:28:10Z</time>
      </trkpt>
      <trkpt lat="45.5611" lon="3.27784">
        <ele>376.3</ele>
        <time>2021-08-04T15:28:12Z</time>
      </trkpt>
      <trkpt lat="45.5611" lon="3.2779">
        <ele>376.5</ele>
        <time>2021-08-04T15:28:14Z</time>
      </trkpt>
      <trkpt lat="45.56111" lon="3.27797">
        <ele>376.7</ele>
        <time>2021-08-04T15:28:16Z</time>
      </trkpt>
      <trkpt lat="45.56112" lon="3.27803">
        <ele>376.9</ele>
        <time>2021-08-04T15:28:18Z</time>
      </trkpt>
      <trkpt lat="45.56113" lon="3.27809">
        <ele>377.2</ele>
        <time>2021-08-04T15:28:20Z</time>
      </trkpt>
      <trkpt lat="45.56113" lon="3.27815">
        <ele>377.4</ele>
        <time>2021-08-04T15:28:22Z</time>
      </trkpt>
      <trkpt lat="45.56114" lon="3.27821">
        <ele>377.6</ele>
        <time>2021-08-04T15:28:24Z</time>
      </trkpt>
      <trkpt lat="45.56114" lon="3.27827">
        <ele>377.7</ele>
        <time>2021-08-04T15:28:26Z</time>
      </trkpt>
      <trkpt lat="45.56115" lon="3.27832">
        <ele>377.9</ele>
        <time>2021-08-04T15:28:28Z</time>
      </trkpt>
      <trkpt lat="45.56116" lon="3.27838">
        <ele>378.3</ele>
        <time>2021-08-04T15:28:30Z</time>
      </trkpt>
      <trkpt lat="45.56116" lon="3.27843">
        <ele>378.7</ele>
        <time>2021-08-04T15:28:32Z</time>
      </trkpt>
      <trkpt lat="45.56117" lon="3.27849">
        <ele>379.1</ele>
        <time>2021-08-04T15:28:34Z</time>
      </trkpt>
      <trkpt lat="45.56117" lon="3.27853">
        <ele>379.5</ele>
        <time>2021-08-04T15:28:36Z</time>
      </trkpt>
      <trkpt lat="45.56118" lon="3.27858">
        <ele>379.9</ele>
        <time>2021-08-04T15:28:38Z</time>
      </trkpt>
      <trkpt lat="45.56118" lon="3.27863">
        <ele>380.2</ele>
        <time>2021-08-04T15:28:40Z</time>
      </trkpt>
      <trkpt lat="45.56119" lon="3.27868">
        <ele>380.6</ele>
        <time>2021-08-04T15:28:42Z</time>
      </trkpt>
      <trkpt lat="45.56119" lon="3.27873">
        <ele>380.9</ele>
        <time>2021-08-04T15:28:44Z</time>
      </trkpt>
      <trkpt lat="45.5612" lon="3.27878">
        <ele>381.3</ele>
        <time>2021-08-04T15:28:46Z</time>
      </trkpt>
      <trkpt lat="45.5612" lon="3.27882">
        <ele>381.7</ele>
        <time>2021-08-04T15:28:48Z</time>
      </trkpt>
      <trkpt lat="45.5612" lon="3.27887">
        <ele>382</ele>
        <time>2021-08-04T15:28:50Z</time>
      </trkpt>
      <trkpt lat="45.56121" lon="3.27892">
        <ele>382.4</ele>
        <time>2021-08-04T15:28:52Z</time>
      </trkpt>
      <trkpt lat="45.56121" lon="3.27897">
        <ele>382.8</ele>
        <time>2021-08-04T15:28:54Z</time>
      </trkpt>
      <trkpt lat="45.56122" lon="3.27902">
        <ele>383.1</ele>
        <time>2021-08-04T15:28:56Z</time>
      </trkpt>
      <trkpt lat="45.56122" lon="3.27907">
        <ele>383.5</ele>
        <time>2021-08-04T15:28:58Z</time>
      </trkpt>
      <trkpt lat="45.56123" lon="3.27912">
        <ele>383.8</ele>
        <time>2021-08-04T15:29:00Z</time>
      </trkpt>
      <trkpt lat="45.56124" lon="3.27916">
        <ele>384.3</ele>
        <time>2021-08-04T15:29:02Z</time>
      </trkpt>
      <trkpt lat="45.56124" lon="3.27921">
        <ele>384.7</ele>
        <time>2021-08-04T15:29:04Z</time>
      </trkpt>
      <trkpt lat="45.56124" lon="3.27926">
        <ele>384.9</ele>
        <time>2021-08-04T15:29:06Z</time>
      </trkpt>
      <trkpt lat="45.56125" lon="3.27931">
        <ele>385.4</ele>
        <time>2021-08-04T15:29:08Z</time>
      </trkpt>
      <trkpt lat="45.56125" lon="3.27936">
        <ele>385.7</ele>
        <time>2021-08-04T15:29:10Z</time>
      </trkpt>
      <trkpt lat="45.56126" lon="3.27941">
        <ele>386</ele>
        <time>2021-08-04T15:29:12Z</time>
      </trkpt>
      <trkpt lat="45.56126" lon="3.27946">
        <ele>386.4</ele>
        <time>2021-08-04T15:29:14Z</time>
      </trkpt>
      <trkpt lat="45.56127" lon="3.2795">
        <ele>386.8</ele>
        <time>2021-08-04T15:29:16Z</time>
      </trkpt>
      <trkpt lat="45.56127" lon="3.27955">
        <ele>387.1</ele>
        <time>2021-08-04T15:29:18Z</time>
      </trkpt>
      <trkpt lat="45.56128" lon="3.2796">
        <ele>387.5</ele>
        <time>2021-08-04T15:29:20Z</time>
      </trkpt>
      <trkpt lat="45.56128" lon="3.27965">
        <ele>387.9</ele>
        <time>2021-08-04T15:29:22Z</time>
      </trkpt>
      <trkpt lat="45.56129" lon="3.2797">
        <ele>388.3</ele>
        <time>2021-08-04T15:29:24Z</time>
      </trkpt>
      <trkpt lat="45.5613" lon="3.27975">
        <ele>388.6</ele>
        <time>2021-08-04T15:29:26Z</time>
      </trkpt>
      <trkpt lat="45.5613" lon="3.2798">
        <ele>388.9</ele>
        <time>2021-08-04T15:29:28Z</time>
      </trkpt>
      <trkpt lat="45.5613" lon="3.27984">
        <ele>389.2</ele>
        <time>2021-08-04T15:29:30Z</time>
      </trkpt>
      <trkpt lat="45.56131" lon="3.27989">
        <ele>389.5</ele>
        <time>2021-08-04T15:29:32Z</time>
      </trkpt>
      <trkpt lat="45.56132" lon="3.27994">
        <ele>389.9</ele>
        <time>2021-08-04T15:29:34Z</time>
      </trkpt>
      <trkpt lat="45.56132" lon="3.27999">
        <ele>390.2</ele>
        <time>2021-08-04T15:29:36Z</time>
      </trkpt>
      <trkpt lat="45.56133" lon="3.28003">
        <ele>390.6</ele>
        <time>2021-08-04T15:29:38Z</time>
      </trkpt>
      <trkpt lat="45.56133" lon="3.28008">
        <ele>390.9</ele>
        <time>2021-08-04T15:29:40Z</time>
      </trkpt>
      <trkpt lat="45.56133" lon="3.28012">
        <ele>391.2</ele>
        <time>2021-08-04T15:29:42Z</time>
      </trkpt>
      <trkpt lat="45.56134" lon="3.28016">
        <ele>391.6</ele>
        <time>2021-08-04T15:29:44Z</time>
      </trkpt>
      <trkpt lat="45.56134" lon="3.2802">
        <ele>391.9</ele>
        <time>2021-08-04T15:29:46Z</time>
      </trkpt>
      <trkpt lat="45.56134" lon="3.28025">
        <ele>392.2</ele>
        <time>2021-08-04T15:29:48Z</time>
      </trkpt>
      <trkpt lat="45.56135" lon="3.28029">
        <ele>392.5</ele>
        <time>2021-08-04T15:29:50Z</time>
      </trkpt>
      <trkpt lat="45.56136" lon="3.28033">
        <ele>392.9</ele>
        <time>2021-08-04T15:29:52Z</time>
      </trkpt>
      <trkpt lat="45.56136" lon="3.28037">
        <ele>393.2</ele>
        <time>2021-08-04T15:29:54Z</time>
      </trkpt>
      <trkpt lat="45.56137" lon="3.28042">
        <ele>393.5</ele>
        <time>2021-08-04T15:29:56Z</time>
      </trkpt>
      <trkpt lat="45.56137" lon="3.28047">
        <ele>393.9</ele>
        <time>2021-08-04T15:29:58Z</time>
      </trkpt>
      <trkpt lat="45.56138" lon="3.28051">
        <ele>394.2</ele>
        <time>2021-08-04T15:30:00Z</time>
      </trkpt>
      <trkpt lat="45.56138" lon="3.28056">
        <ele>394.6</ele>
        <time>2021-08-04T15:30:02Z</time>
      </trkpt>
      <trkpt lat="45.56138" lon="3.28061">
        <ele>394.9</ele>
        <time>2021-08-04T15:30:04Z</time>
      </trkpt>
      <trkpt lat="45.56139" lon="3.28066">
        <ele>395.2</ele>
        <time>2021-08-04T15:30:06Z</time>
      </trkpt>
      <trkpt lat="45.5614" lon="3.28071">
        <ele>395.6</ele>
        <time>2021-08-04T15:30:08Z</time>
      </trkpt>
      <trkpt lat="45.5614" lon="3.28076">
        <ele>395.9</ele>
        <time>2021-08-04T15:30:10Z</time>
      </trkpt>
      <trkpt lat="45.5614" lon="3.28081">
        <ele>396.2</ele>
        <time>2021-08-04T15:30:12Z</time>
      </trkpt>
      <trkpt lat="45.56141" lon="3.28086">
        <ele>396.5</ele>
        <time>2021-08-04T15:30:14Z</time>
      </trkpt>
      <trkpt lat="45.56142" lon="3.2809">
        <ele>396.7</ele>
        <time>2021-08-04T15:30:16Z</time>
      </trkpt>
      <trkpt lat="45.56142" lon="3.28095">
        <ele>396.9</ele>
        <time>2021-08-04T15:30:18Z</time>
      </trkpt>
      <trkpt lat="45.56143" lon="3.281">
        <ele>397.1</ele>
        <time>2021-08-04T15:30:20Z</time>
      </trkpt>
      <trkpt lat="45.56144" lon="3.28105">
        <ele>397.3</ele>
        <time>2021-08-04T15:30:22Z</time>
      </trkpt>
      <trkpt lat="45.56145" lon="3.28111">
        <ele>397.5</ele>
        <time>2021-08-04T15:30:24Z</time>
      </trkpt>
      <trkpt lat="45.56146" lon="3.28116">
        <ele>397.7</ele>
        <time>2021-08-04T15:30:26Z</time>
      </trkpt>
      <trkpt lat="45.56146" lon="3.28121">
        <ele>397.9</ele>
        <time>2021-08-04T15:30:28Z</time>
      </trkpt>
      <trkpt lat="45.56146" lon="3.28126">
        <ele>398</ele>
        <time>2021-08-04T15:30:30Z</time>
      </trkpt>
      <trkpt lat="45.56147" lon="3.28132">
        <ele>398.2</ele>
        <time>2021-08-04T15:30:32Z</time>
      </trkpt>
      <trkpt lat="45.56147" lon="3.28138">
        <ele>398.4</ele>
        <time>2021-08-04T15:30:34Z</time>
      </trkpt>
      <trkpt lat="45.56147" lon="3.28143">
        <ele>398.6</ele>
        <time>2021-08-04T15:30:36Z</time>
      </trkpt>
      <trkpt lat="45.56148" lon="3.28148">
        <ele>398.8</ele>
        <time>2021-08-04T15:30:38Z</time>
      </trkpt>
      <trkpt lat="45.56148" lon="3.28153">
        <ele>399</ele>
        <time>2021-08-04T15:30:40Z</time>
      </trkpt>
      <trkpt lat="45.56149" lon="3.28159">
        <ele>399.2</ele>
        <time>2021-08-04T15:30:42Z</time>
      </trkpt>
      <trkpt lat="45.56149" lon="3.28164">
        <ele>399.3</ele>
        <time>2021-08-04T15:30:44Z</time>
      </trkpt>
      <trkpt lat="45.5615" lon="3.28169">
        <ele>399.5</ele>
        <time>2021-08-04T15:30:46Z</time>
      </trkpt>
      <trkpt lat="45.56151" lon="3.28174">
        <ele>399.7</ele>
        <time>2021-08-04T15:30:48Z</time>
      </trkpt>
      <trkpt lat="45.56151" lon="3.28179">
        <ele>399.8</ele>
        <time>2021-08-04T15:30:50Z</time>
      </trkpt>
      <trkpt lat="45.56151" lon="3.28185">
        <ele>400</ele>
        <time>2021-08-04T15:30:52Z</time>
      </trkpt>
      <trkpt lat="45.56152" lon="3.28189">
        <ele>400.1</ele>
        <time>2021-08-04T15:30:54Z</time>
      </trkpt>
      <trkpt lat="45.56153" lon="3.28194">
        <ele>400.3</ele>
        <time>2021-08-04T15:30:56Z</time>
      </trkpt>
      <trkpt lat="45.56153" lon="3.28199">
        <ele>400.4</ele>
        <time>2021-08-04T15:30:58Z</time>
      </trkpt>
      <trkpt lat="45.56154" lon="3.28204">
        <ele>400.6</ele>
        <time>2021-08-04T15:31:00Z</time>
      </trkpt>
      <trkpt lat="45.56154" lon="3.28209">
        <ele>400.7</ele>
        <time>2021-08-04T15:31:02Z</time>
      </trkpt>
      <trkpt lat="45.56155" lon="3.28214">
        <ele>400.8</ele>
        <time>2021-08-04T15:31:04Z</time>
      </trkpt>
      <trkpt lat="45.56155" lon="3.28219">
        <ele>401</ele>
        <time>2021-08-04T15:31:06Z</time>
      </trkpt>
      <trkpt lat="45.56156" lon="3.28225">
        <ele>401.1</ele>
        <time>2021-08-04T15:31:08Z</time>
      </trkpt>
      <trkpt lat="45.56156" lon="3.2823">
        <ele>401.2</ele>
        <time>2021-08-04T15:31:10Z</time>
      </trkpt>
      <trkpt lat="45.56157" lon="3.28235">
        <ele>401.4</ele>
        <time>2021-08-04T15:31:12Z</time>
      </trkpt>
      <trkpt lat="45.56157" lon="3.2824">
        <ele>401.5</ele>
        <time>2021-08-04T15:31:14Z</time>
      </trkpt>
      <trkpt lat="45.56158" lon="3.28245">
        <ele>401.6</ele>
        <time>2021-08-04T15:31:16Z</time>
      </trkpt>
      <trkpt lat="45.56158" lon="3.28249">
        <ele>401.7</ele>
        <time>2021-08-04T15:31:18Z</time>
      </trkpt>
      <trkpt lat="45.56159" lon="3.28254">
        <ele>401.9</ele>
        <time>2021-08-04T15:31:20Z</time>
      </trkpt>
      <trkpt lat="45.56159" lon="3.28259">
        <ele>402.2</ele>
        <time>2021-08-04T15:31:22Z</time>
      </trkpt>
      <trkpt lat="45.5616" lon="3.28264">
        <ele>402.5</ele>
        <time>2021-08-04T15:31:24Z</time>
      </trkpt>
      <trkpt lat="45.5616" lon="3.28269">
        <ele>402.7</ele>
        <time>2021-08-04T15:31:26Z</time>
      </trkpt>
      <trkpt lat="45.5616" lon="3.28275">
        <ele>403</ele>
        <time>2021-08-04T15:31:28Z</time>
      </trkpt>
      <trkpt lat="45.56161" lon="3.2828">
        <ele>403.3</ele>
        <time>2021-08-04T15:31:30Z</time>
      </trkpt>
      <trkpt lat="45.56162" lon="3.28285">
        <ele>403.5</ele>
        <time>2021-08-04T15:31:32Z</time>
      </trkpt>
      <trkpt lat="45.56162" lon="3.2829">
        <ele>403.8</ele>
        <time>2021-08-04T15:31:34Z</time>
      </trkpt>
      <trkpt lat="45.56162" lon="3.28295">
        <ele>404.1</ele>
        <time>2021-08-04T15:31:36Z</time>
      </trkpt>
      <trkpt lat="45.56163" lon="3.283">
        <ele>404.4</ele>
        <time>2021-08-04T15:31:38Z</time>
      </trkpt>
      <trkpt lat="45.56164" lon="3.28305">
        <ele>404.6</ele>
        <time>2021-08-04T15:31:40Z</time>
      </trkpt>
      <trkpt lat="45.56164" lon="3.2831">
        <ele>404.9</ele>
        <time>2021-08-04T15:31:42Z</time>
      </trkpt>
      <trkpt lat="45.56164" lon="3.28315">
        <ele>405.1</ele>
        <time>2021-08-04T15:31:44Z</time>
      </trkpt>
      <trkpt lat="45.56165" lon="3.2832">
        <ele>405.4</ele>
        <time>2021-08-04T15:31:46Z</time>
      </trkpt>
      <trkpt lat="45.56166" lon="3.28325">
        <ele>405.6</ele>
        <time>2021-08-04T15:31:48Z</time>
      </trkpt>
      <trkpt lat="45.56166" lon="3.2833">
        <ele>405.8</ele>
        <time>2021-08-04T15:31:50Z</time>
      </trkpt>
      <trkpt lat="45.56167" lon="3.28335">
        <ele>406.1</ele>
        <time>2021-08-04T15:31:52Z</time>
      </trkpt>
      <trkpt lat="45.56168" lon="3.2834">
        <ele>406.5</ele>
        <time>2021-08-04T15:31:54Z</time>
      </trkpt>
      <trkpt lat="45.5617" lon="3.28345">
        <ele>406.9</ele>
        <time>2021-08-04T15:31:56Z</time>
      </trkpt>
      <trkpt lat="45.56171" lon="3.2835">
        <ele>407.2</ele>
        <time>2021-08-04T15:31:58Z</time>
      </trkpt>
      <trkpt lat="45.56173" lon="3.28355">
        <ele>407.5</ele>
        <time>2021-08-04T15:32:00Z</time>
      </trkpt>
      <trkpt lat="45.56175" lon="3.28359">
        <ele>407.8</ele>
        <time>2021-08-04T15:32:02Z</time>
      </trkpt>
      <trkpt lat="45.56177" lon="3.28364">
        <ele>408.1</ele>
        <time>2021-08-04T15:32:04Z</time>
      </trkpt>
      <trkpt lat="45.56179" lon="3.28367">
        <ele>408.4</ele>
        <time>2021-08-04T15:32:06Z</time>
      </trkpt>
      <trkpt lat="45.56181" lon="3.28371">
        <ele>408.6</ele>
        <time>2021-08-04T15:32:08Z</time>
      </trkpt>
      <trkpt lat="45.56183" lon="3.28375">
        <ele>408.8</ele>
        <time>2021-08-04T15:32:10Z</time>
      </trkpt>
      <trkpt lat="45.56186" lon="3.28379">
        <ele>409</ele>
        <time>2021-08-04T15:32:12Z</time>
      </trkpt>
      <trkpt lat="45.56188" lon="3.28383">
        <ele>409.2</ele>
        <time>2021-08-04T15:32:14Z</time>
      </trkpt>
      <trkpt lat="45.56191" lon="3.28387">
        <ele>409.4</ele>
        <time>2021-08-04T15:32:16Z</time>
      </trkpt>
      <trkpt lat="45.56194" lon="3.2839">
        <ele>409.5</ele>
        <time>2021-08-04T15:32:18Z</time>
      </trkpt>
      <trkpt lat="45.56196" lon="3.28394">
        <ele>409.7</ele>
        <time>2021-08-04T15:32:20Z</time>
      </trkpt>
      <trkpt lat="45.56198" lon="3.28398">
        <ele>409.8</ele>
        <time>2021-08-04T15:32:22Z</time>
      </trkpt>
      <trkpt lat="45.56201" lon="3.28401">
        <ele>410</ele>
        <time>2021-08-04T15:32:24Z</time>
      </trkpt>
      <trkpt lat="45.56203" lon="3.28405">
        <ele>410.1</ele>
        <time>2021-08-04T15:32:26Z</time>
      </trkpt>
      <trkpt lat="45.56206" lon="3.28407">
        <ele>410.1</ele>
        <time>2021-08-04T15:32:28Z</time>
      </trkpt>
      <trkpt lat="45.5621" lon="3.28411">
        <ele>410.2</ele>
        <time>2021-08-04T15:32:30Z</time>
      </trkpt>
      <trkpt lat="45.56212" lon="3.28415">
        <ele>410.3</ele>
        <time>2021-08-04T15:32:32Z</time>
      </trkpt>
      <trkpt lat="45.56215" lon="3.28419">
        <ele>410.4</ele>
        <time>2021-08-04T15:32:34Z</time>
      </trkpt>
      <trkpt lat="45.56218" lon="3.28422">
        <ele>410.7</ele>
        <time>2021-08-04T15:32:36Z</time>
      </trkpt>
      <trkpt lat="45.56221" lon="3.28426">
        <ele>410.9</ele>
        <time>2021-08-04T15:32:38Z</time>
      </trkpt>
      <trkpt lat="45.56224" lon="3.28429">
        <ele>411.2</ele>
        <time>2021-08-04T15:32:40Z</time>
      </trkpt>
      <trkpt lat="45.56227" lon="3.28432">
        <ele>411.4</ele>
        <time>2021-08-04T15:32:42Z</time>
      </trkpt>
      <trkpt lat="45.5623" lon="3.28435">
        <ele>411.6</ele>
        <time>2021-08-04T15:32:44Z</time>
      </trkpt>
      <trkpt lat="45.56233" lon="3.28438">
        <ele>411.9</ele>
        <time>2021-08-04T15:32:46Z</time>
      </trkpt>
      <trkpt lat="45.56236" lon="3.28441">
        <ele>412.1</ele>
        <time>2021-08-04T15:32:48Z</time>
      </trkpt>
      <trkpt lat="45.56239" lon="3.28445">
        <ele>412.3</ele>
        <time>2021-08-04T15:32:50Z</time>
      </trkpt>
      <trkpt lat="45.56242" lon="3.28448">
        <ele>412.6</ele>
        <time>2021-08-04T15:32:52Z</time>
      </trkpt>
      <trkpt lat="45.56245" lon="3.2845">
        <ele>412.8</ele>
        <time>2021-08-04T15:32:54Z</time>
      </trkpt>
      <trkpt lat="45.56248" lon="3.28453">
        <ele>413</ele>
        <time>2021-08-04T15:32:56Z</time>
      </trkpt>
      <trkpt lat="45.56251" lon="3.28456">
        <ele>413.3</ele>
        <time>2021-08-04T15:32:58Z</time>
      </trkpt>
      <trkpt lat="45.56255" lon="3.2846">
        <ele>413.8</ele>
        <time>2021-08-04T15:33:00Z</time>
      </trkpt>
      <trkpt lat="45.56258" lon="3.28462">
        <ele>414.1</ele>
        <time>2021-08-04T15:33:02Z</time>
      </trkpt>
      <trkpt lat="45.56261" lon="3.28465">
        <ele>414.5</ele>
        <time>2021-08-04T15:33:04Z</time>
      </trkpt>
      <trkpt lat="45.56264" lon="3.28468">
        <ele>414.8</ele>
        <time>2021-08-04T15:33:06Z</time>
      </trkpt>
      <trkpt lat="45.56268" lon="3.28471">
        <ele>415.1</ele>
        <time>2021-08-04T15:33:08Z</time>
      </trkpt>
      <trkpt lat="45.56271" lon="3.28474">
        <ele>415.4</ele>
        <time>2021-08-04T15:33:10Z</time>
      </trkpt>
      <trkpt lat="45.56274" lon="3.28477">
        <ele>415.7</ele>
        <time>2021-08-04T15:33:12Z</time>
      </trkpt>
      <trkpt lat="45.56277" lon="3.28479">
        <ele>415.9</ele>
        <time>2021-08-04T15:33:14Z</time>
      </trkpt>
      <trkpt lat="45.56281" lon="3.28481">
        <ele>416.1</ele>
        <time>2021-08-04T15:33:16Z</time>
      </trkpt>
      <trkpt lat="45.56284" lon="3.28484">
        <ele>416.3</ele>
        <time>2021-08-04T15:33:18Z</time>
      </trkpt>
      <trkpt lat="45.56287" lon="3.28487">
        <ele>416.5</ele>
        <time>2021-08-04T15:33:20Z</time>
      </trkpt>
      <trkpt lat="45.56291" lon="3.28489">
        <ele>416.7</ele>
        <time>2021-08-04T15:33:22Z</time>
      </trkpt>
      <trkpt lat="45.56295" lon="3.28491">
        <ele>416.8</ele>
        <time>2021-08-04T15:33:24Z</time>
      </trkpt>
      <trkpt lat="45.56298" lon="3.28493">
        <ele>416.9</ele>
        <time>2021-08-04T15:33:26Z</time>
      </trkpt>
      <trkpt lat="45.56302" lon="3.28495">
        <ele>417</ele>
        <time>2021-08-04T15:33:28Z</time>
      </trkpt>
      <trkpt lat="45.56305" lon="3.28497">
        <ele>417.2</ele>
        <time>2021-08-04T15:33:30Z</time>
      </trkpt>
      <trkpt lat="45.56308" lon="3.28499">
        <ele>417.3</ele>
        <time>2021-08-04T15:33:32Z</time>
      </trkpt>
      <trkpt lat="45.56312" lon="3.28501">
        <ele>417.4</ele>
        <time>2021-08-04T15:33:34Z</time>
      </trkpt>
      <trkpt lat="45.56315" lon="3.28503">
        <ele>417.6</ele>
        <time>2021-08-04T15:33:36Z</time>
      </trkpt>
      <trkpt lat="45.56318" lon="3.28506">
        <ele>417.9</ele>
        <time>2021-08-04T15:33:38Z</time>
      </trkpt>
      <trkpt lat="45.56322" lon="3.28509">
        <ele>418.1</ele>
        <time>2021-08-04T15:33:40Z</time>
      </trkpt>
      <trkpt lat="45.56324" lon="3.28513">
        <ele>418.5</ele>
        <time>2021-08-04T15:33:42Z</time>
      </trkpt>
      <trkpt lat="45.56327" lon="3.28517">
        <ele>418.9</ele>
        <time>2021-08-04T15:33:44Z</time>
      </trkpt>
      <trkpt lat="45.56329" lon="3.28521">
        <ele>419.4</ele>
        <time>2021-08-04T15:33:46Z</time>
      </trkpt>
      <trkpt lat="45.5633" lon="3.28526">
        <ele>419.9</ele>
        <time>2021-08-04T15:33:48Z</time>
      </trkpt>
      <trkpt lat="45.5633" lon="3.28532">
        <ele>420.5</ele>
        <time>2021-08-04T15:33:50Z</time>
      </trkpt>
      <trkpt lat="45.5633" lon="3.28536">
        <ele>421</ele>
        <time>2021-08-04T15:33:52Z</time>
      </trkpt>
      <trkpt lat="45.56328" lon="3.28541">
        <ele>421.5</ele>
        <time>2021-08-04T15:33:54Z</time>
      </trkpt>
      <trkpt lat="45.56327" lon="3.28546">
        <ele>422.1</ele>
        <time>2021-08-04T15:33:56Z</time>
      </trkpt>
      <trkpt lat="45.56325" lon="3.2855">
        <ele>422.6</ele>
        <time>2021-08-04T15:33:58Z</time>
      </trkpt>
      <trkpt lat="45.56322" lon="3.28554">
        <ele>423.1</ele>
        <time>2021-08-04T15:34:00Z</time>
      </trkpt>
      <trkpt lat="45.5632" lon="3.28556">
        <ele>423.5</ele>
        <time>2021-08-04T15:34:02Z</time>
      </trkpt>
      <trkpt lat="45.56317" lon="3.28559">
        <ele>423.9</ele>
        <time>2021-08-04T15:34:04Z</time>
      </trkpt>
      <trkpt lat="45.56314" lon="3.28562">
        <ele>424.3</ele>
        <time>2021-08-04T15:34:06Z</time>
      </trkpt>
      <trkpt lat="45.56311" lon="3.28564">
        <ele>424.6</ele>
        <time>2021-08-04T15:34:08Z</time>
      </trkpt>
      <trkpt lat="45.56308" lon="3.28565">
        <ele>424.8</ele>
        <time>2021-08-04T15:34:10Z</time>
      </trkpt>
      <trkpt lat="45.56304" lon="3.28566">
        <ele>425</ele>
        <time>2021-08-04T15:34:12Z</time>
      </trkpt>
      <trkpt lat="45.56301" lon="3.28566">
        <ele>425.1</ele>
        <time>2021-08-04T15:34:14Z</time>
      </trkpt>
      <trkpt lat="45.56297" lon="3.28566">
        <ele>425.2</ele>
        <time>2021-08-04T15:34:16Z</time>
      </trkpt>
      <trkpt lat="45.56294" lon="3.28566">
        <ele>425.3</ele>
        <time>2021-08-04T15:34:18Z</time>
      </trkpt>
      <trkpt lat="45.56291" lon="3.28566">
        <ele>425.4</ele>
        <time>2021-08-04T15:34:20Z</time>
      </trkpt>
      <trkpt lat="45.56287" lon="3.28565">
        <ele>425.4</ele>
        <time>2021-08-04T15:34:22Z</time>
      </trkpt>
      <trkpt lat="45.56284" lon="3.28565">
        <ele>425.5</ele>
        <time>2021-08-04T15:34:24Z</time>
      </trkpt>
      <trkpt lat="45.56281" lon="3.28564">
        <ele>425.5</ele>
        <time>2021-08-04T15:34:26Z</time>
      </trkpt>
      <trkpt lat="45.56278" lon="3.28563">
        <ele>425.5</ele>
        <time>2021-08-04T15:34:28Z</time>
      </trkpt>
      <trkpt lat="45.56274" lon="3.28562">
        <ele>425.5</ele>
        <time>2021-08-04T15:34:30Z</time>
      </trkpt>
      <trkpt lat="45.56271" lon="3.28561">
        <ele>425.5</ele>
        <time>2021-08-04T15:34:32Z</time>
      </trkpt>
      <trkpt lat="45.56268" lon="3.28561">
        <ele>425.5</ele>
        <time>2021-08-04T15:34:34Z</time>
      </trkpt>
      <trkpt lat="45.56264" lon="3.2856">
        <ele>425.5</ele>
        <time>2021-08-04T15:34:36Z</time>
      </trkpt>
      <trkpt lat="45.56261" lon="3.2856">
        <ele>425.6</ele>
        <time>2021-08-04T15:34:38Z</time>
      </trkpt>
      <trkpt lat="45.56257" lon="3.28559">
        <ele>425.5</ele>
        <time>2021-08-04T15:34:40Z</time>
      </trkpt>
      <trkpt lat="45.56254" lon="3.28558">
        <ele>425.5</ele>
        <time>2021-08-04T15:34:42Z</time>
      </trkpt>
      <trkpt lat="45.56251" lon="3.28557">
        <ele>425.5</ele>
        <time>2021-08-04T15:34:44Z</time>
      </trkpt>
      <trkpt lat="45.56247" lon="3.28556">
        <ele>425.5</ele>
        <time>2021-08-04T15:34:46Z</time>
      </trkpt>
      <trkpt lat="45.56244" lon="3.28556">
        <ele>425.5</ele>
        <time>2021-08-04T15:34:48Z</time>
      </trkpt>
      <trkpt lat="45.5624" lon="3.28555">
        <ele>425.4</ele>
        <time>2021-08-04T15:34:50Z</time>
      </trkpt>
      <trkpt lat="45.56237" lon="3.28554">
        <ele>425.4</ele>
        <time>2021-08-04T15:34:52Z</time>
      </trkpt>
      <trkpt lat="45.56233" lon="3.28553">
        <ele>425.4</ele>
        <time>2021-08-04T15:34:54Z</time>
      </trkpt>
      <trkpt lat="45.5623" lon="3.28553">
        <ele>425.4</ele>
        <time>2021-08-04T15:34:56Z</time>
      </trkpt>
      <trkpt lat="45.56226" lon="3.28553">
        <ele>425.4</ele>
        <time>2021-08-04T15:34:58Z</time>
      </trkpt>
      <trkpt lat="45.56223" lon="3.28552">
        <ele>425.5</ele>
        <time>2021-08-04T15:35:00Z</time>
      </trkpt>
      <trkpt lat="45.5622" lon="3.28553">
        <ele>425.6</ele>
        <time>2021-08-04T15:35:02Z</time>
      </trkpt>
      <trkpt lat="45.56216" lon="3.28553">
        <ele>425.7</ele>
        <time>2021-08-04T15:35:04Z</time>
      </trkpt>
      <trkpt lat="45.56213" lon="3.28553">
        <ele>425.7</ele>
        <time>2021-08-04T15:35:06Z</time>
      </trkpt>
      <trkpt lat="45.56209" lon="3.28554">
        <ele>426</ele>
        <time>2021-08-04T15:35:08Z</time>
      </trkpt>
      <trkpt lat="45.56205" lon="3.28555">
        <ele>426.1</ele>
        <time>2021-08-04T15:35:10Z</time>
      </trkpt>
      <trkpt lat="45.56202" lon="3.28556">
        <ele>426.3</ele>
        <time>2021-08-04T15:35:12Z</time>
      </trkpt>
      <trkpt lat="45.56198" lon="3.28556">
        <ele>426.5</ele>
        <time>2021-08-04T15:35:14Z</time>
      </trkpt>
      <trkpt lat="45.56195" lon="3.28558">
        <ele>426.7</ele>
        <time>2021-08-04T15:35:16Z</time>
      </trkpt>
      <trkpt lat="45.56192" lon="3.28559">
        <ele>427</ele>
        <time>2021-08-04T15:35:18Z</time>
      </trkpt>
      <trkpt lat="45.56188" lon="3.2856">
        <ele>427.2</ele>
        <time>2021-08-04T15:35:20Z</time>
      </trkpt>
      <trkpt lat="45.56185" lon="3.28562">
        <ele>427.5</ele>
        <time>2021-08-04T15:35:22Z</time>
      </trkpt>
      <trkpt lat="45.56182" lon="3.28564">
        <ele>427.9</ele>
        <time>2021-08-04T15:35:24Z</time>
      </trkpt>
      <trkpt lat="45.56179" lon="3.28566">
        <ele>428.2</ele>
        <time>2021-08-04T15:35:26Z</time>
      </trkpt>
      <trkpt lat="45.56176" lon="3.28567">
        <ele>428.4</ele>
        <time>2021-08-04T15:35:28Z</time>
      </trkpt>
      <trkpt lat="45.56173" lon="3.28568">
        <ele>428.7</ele>
        <time>2021-08-04T15:35:30Z</time>
      </trkpt>
      <trkpt lat="45.5617" lon="3.2857">
        <ele>429</ele>
        <time>2021-08-04T15:35:32Z</time>
      </trkpt>
      <trkpt lat="45.56167" lon="3.28572">
        <ele>429.3</ele>
        <time>2021-08-04T15:35:34Z</time>
      </trkpt>
      <trkpt lat="45.56164" lon="3.28574">
        <ele>429.6</ele>
        <time>2021-08-04T15:35:36Z</time>
      </trkpt>
      <trkpt lat="45.56161" lon="3.28576">
        <ele>430</ele>
        <time>2021-08-04T15:35:38Z</time>
      </trkpt>
      <trkpt lat="45.56158" lon="3.28579">
        <ele>430.4</ele>
        <time>2021-08-04T15:35:40Z</time>
      </trkpt>
      <trkpt lat="45.56155" lon="3.28581">
        <ele>430.7</ele>
        <time>2021-08-04T15:35:42Z</time>
      </trkpt>
      <trkpt lat="45.56152" lon="3.28584">
        <ele>431.1</ele>
        <time>2021-08-04T15:35:44Z</time>
      </trkpt>
      <trkpt lat="45.56149" lon="3.28587">
        <ele>431.5</ele>
        <time>2021-08-04T15:35:46Z</time>
      </trkpt>
      <trkpt lat="45.56146" lon="3.2859">
        <ele>432</ele>
        <time>2021-08-04T15:35:48Z</time>
      </trkpt>
      <trkpt lat="45.56144" lon="3.28593">
        <ele>432.3</ele>
        <time>2021-08-04T15:35:50Z</time>
      </trkpt>
      <trkpt lat="45.56141" lon="3.28596">
        <ele>432.7</ele>
        <time>2021-08-04T15:35:52Z</time>
      </trkpt>
      <trkpt lat="45.56139" lon="3.286">
        <ele>433.2</ele>
        <time>2021-08-04T15:35:54Z</time>
      </trkpt>
      <trkpt lat="45.56137" lon="3.28603">
        <ele>433.6</ele>
        <time>2021-08-04T15:35:56Z</time>
      </trkpt>
      <trkpt lat="45.56134" lon="3.28607">
        <ele>434</ele>
        <time>2021-08-04T15:35:58Z</time>
      </trkpt>
      <trkpt lat="45.56132" lon="3.2861">
        <ele>434.4</ele>
        <time>2021-08-04T15:36:00Z</time>
      </trkpt>
      <trkpt lat="45.56129" lon="3.28614">
        <ele>434.7</ele>
        <time>2021-08-04T15:36:02Z</time>
      </trkpt>
      <trkpt lat="45.56127" lon="3.28617">
        <ele>435.1</ele>
        <time>2021-08-04T15:36:04Z</time>
      </trkpt>
      <trkpt lat="45.56124" lon="3.28621">
        <ele>435.5</ele>
        <time>2021-08-04T15:36:06Z</time>
      </trkpt>
      <trkpt lat="45.56122" lon="3.28625">
        <ele>435.9</ele>
        <time>2021-08-04T15:36:08Z</time>
      </trkpt>
      <trkpt lat="45.56119" lon="3.28629">
        <ele>436.2</ele>
        <time>2021-08-04T15:36:10Z</time>
      </trkpt>
      <trkpt lat="45.56117" lon="3.28633">
        <ele>436.5</ele>
        <time>2021-08-04T15:36:12Z</time>
      </trkpt>
      <trkpt lat="45.56114" lon="3.28636">
        <ele>436.8</ele>
        <time>2021-08-04T15:36:14Z</time>
      </trkpt>
      <trkpt lat="45.56111" lon="3.2864">
        <ele>437.1</ele>
        <time>2021-08-04T15:36:16Z</time>
      </trkpt>
      <trkpt lat="45.56109" lon="3.28644">
        <ele>437.4</ele>
        <time>2021-08-04T15:36:18Z</time>
      </trkpt>
      <trkpt lat="45.56106" lon="3.28648">
        <ele>437.7</ele>
        <time>2021-08-04T15:36:20Z</time>
      </trkpt>
      <trkpt lat="45.56104" lon="3.28652">
        <ele>438</ele>
        <time>2021-08-04T15:36:22Z</time>
      </trkpt>
      <trkpt lat="45.56101" lon="3.28657">
        <ele>438.3</ele>
        <time>2021-08-04T15:36:24Z</time>
      </trkpt>
      <trkpt lat="45.56098" lon="3.28661">
        <ele>438.5</ele>
        <time>2021-08-04T15:36:26Z</time>
      </trkpt>
      <trkpt lat="45.56095" lon="3.28666">
        <ele>438.7</ele>
        <time>2021-08-04T15:36:28Z</time>
      </trkpt>
      <trkpt lat="45.56093" lon="3.28671">
        <ele>439</ele>
        <time>2021-08-04T15:36:30Z</time>
      </trkpt>
      <trkpt lat="45.5609" lon="3.28676">
        <ele>439.2</ele>
        <time>2021-08-04T15:36:32Z</time>
      </trkpt>
      <trkpt lat="45.56087" lon="3.28682">
        <ele>439.5</ele>
        <time>2021-08-04T15:36:34Z</time>
      </trkpt>
      <trkpt lat="45.56084" lon="3.28687">
        <ele>439.7</ele>
        <time>2021-08-04T15:36:36Z</time>
      </trkpt>
      <trkpt lat="45.56081" lon="3.28692">
        <ele>440.1</ele>
        <time>2021-08-04T15:36:38Z</time>
      </trkpt>
      <trkpt lat="45.56078" lon="3.28697">
        <ele>440.6</ele>
        <time>2021-08-04T15:36:40Z</time>
      </trkpt>
      <trkpt lat="45.56076" lon="3.28702">
        <ele>441</ele>
        <time>2021-08-04T15:36:42Z</time>
      </trkpt>
      <trkpt lat="45.56073" lon="3.28707">
        <ele>441.4</ele>
        <time>2021-08-04T15:36:44Z</time>
      </trkpt>
      <trkpt lat="45.56072" lon="3.28714">
        <ele>441.9</ele>
        <time>2021-08-04T15:36:46Z</time>
      </trkpt>
      <trkpt lat="45.56072" lon="3.2872">
        <ele>442.4</ele>
        <time>2021-08-04T15:36:48Z</time>
      </trkpt>
      <trkpt lat="45.56072" lon="3.28727">
        <ele>442.9</ele>
        <time>2021-08-04T15:36:50Z</time>
      </trkpt>
      <trkpt lat="45.56073" lon="3.28733">
        <ele>443.4</ele>
        <time>2021-08-04T15:36:52Z</time>
      </trkpt>
      <trkpt lat="45.56074" lon="3.28739">
        <ele>443.9</ele>
        <time>2021-08-04T15:36:54Z</time>
      </trkpt>
      <trkpt lat="45.56074" lon="3.28745">
        <ele>444.4</ele>
        <time>2021-08-04T15:36:56Z</time>
      </trkpt>
      <trkpt lat="45.56075" lon="3.28751">
        <ele>444.8</ele>
        <time>2021-08-04T15:36:58Z</time>
      </trkpt>
      <trkpt lat="45.56075" lon="3.28758">
        <ele>444.9</ele>
        <time>2021-08-04T15:37:00Z</time>
      </trkpt>
      <trkpt lat="45.56076" lon="3.28764">
        <ele>445</ele>
        <time>2021-08-04T15:37:02Z</time>
      </trkpt>
      <trkpt lat="45.56077" lon="3.2877">
        <ele>445.1</ele>
        <time>2021-08-04T15:37:04Z</time>
      </trkpt>
      <trkpt lat="45.56078" lon="3.28778">
        <ele>445.2</ele>
        <time>2021-08-04T15:37:06Z</time>
      </trkpt>
      <trkpt lat="45.56079" lon="3.28785">
        <ele>445.3</ele>
        <time>2021-08-04T15:37:08Z</time>
      </trkpt>
      <trkpt lat="45.5608" lon="3.28792">
        <ele>445.4</ele>
        <time>2021-08-04T15:37:10Z</time>
      </trkpt>
      <trkpt lat="45.5608" lon="3.288">
        <ele>445.6</ele>
        <time>2021-08-04T15:37:12Z</time>
      </trkpt>
      <trkpt lat="45.5608" lon="3.28807">
        <ele>445.6</ele>
        <time>2021-08-04T15:37:14Z</time>
      </trkpt>
      <trkpt lat="45.56082" lon="3.28815">
        <ele>445.8</ele>
        <time>2021-08-04T15:37:16Z</time>
      </trkpt>
      <trkpt lat="45.56083" lon="3.28823">
        <ele>445.9</ele>
        <time>2021-08-04T15:37:18Z</time>
      </trkpt>
      <trkpt lat="45.56085" lon="3.28831">
        <ele>446</ele>
        <time>2021-08-04T15:37:20Z</time>
      </trkpt>
      <trkpt lat="45.56087" lon="3.2884">
        <ele>446</ele>
        <time>2021-08-04T15:37:22Z</time>
      </trkpt>
      <trkpt lat="45.56089" lon="3.28848">
        <ele>446</ele>
        <time>2021-08-04T15:37:24Z</time>
      </trkpt>
      <trkpt lat="45.56091" lon="3.28857">
        <ele>445.9</ele>
        <time>2021-08-04T15:37:26Z</time>
      </trkpt>
      <trkpt lat="45.56092" lon="3.28865">
        <ele>445.8</ele>
        <time>2021-08-04T15:37:28Z</time>
      </trkpt>
      <trkpt lat="45.56092" lon="3.28873">
        <ele>445.7</ele>
        <time>2021-08-04T15:37:30Z</time>
      </trkpt>
      <trkpt lat="45.56094" lon="3.28882">
        <ele>445.7</ele>
        <time>2021-08-04T15:37:32Z</time>
      </trkpt>
      <trkpt lat="45.56096" lon="3.28891">
        <ele>445.6</ele>
        <time>2021-08-04T15:37:34Z</time>
      </trkpt>
      <trkpt lat="45.561" lon="3.28901">
        <ele>445.6</ele>
        <time>2021-08-04T15:37:36Z</time>
      </trkpt>
      <trkpt lat="45.56103" lon="3.2891">
        <ele>445.6</ele>
        <time>2021-08-04T15:37:38Z</time>
      </trkpt>
      <trkpt lat="45.56106" lon="3.2892">
        <ele>445.5</ele>
        <time>2021-08-04T15:37:40Z</time>
      </trkpt>
      <trkpt lat="45.56109" lon="3.28928">
        <ele>445.3</ele>
        <time>2021-08-04T15:37:42Z</time>
      </trkpt>
      <trkpt lat="45.56111" lon="3.28936">
        <ele>445.1</ele>
        <time>2021-08-04T15:37:44Z</time>
      </trkpt>
      <trkpt lat="45.56114" lon="3.28944">
        <ele>445</ele>
        <time>2021-08-04T15:37:46Z</time>
      </trkpt>
      <trkpt lat="45.56116" lon="3.28953">
        <ele>444.8</ele>
        <time>2021-08-04T15:37:48Z</time>
      </trkpt>
      <trkpt lat="45.56116" lon="3.28961">
        <ele>444.6</ele>
        <time>2021-08-04T15:37:50Z</time>
      </trkpt>
      <trkpt lat="45.56112" lon="3.28968">
        <ele>444.3</ele>
        <time>2021-08-04T15:37:52Z</time>
      </trkpt>
      <trkpt lat="45.56106" lon="3.28973">
        <ele>443.9</ele>
        <time>2021-08-04T15:37:54Z</time>
      </trkpt>
      <trkpt lat="45.56098" lon="3.28976">
        <ele>443.5</ele>
        <time>2021-08-04T15:37:56Z</time>
      </trkpt>
      <trkpt lat="45.5609" lon="3.28979">
        <ele>443</ele>
        <time>2021-08-04T15:37:58Z</time>
      </trkpt>
      <trkpt lat="45.56081" lon="3.2898">
        <ele>442.7</ele>
        <time>2021-08-04T15:38:00Z</time>
      </trkpt>
      <trkpt lat="45.56072" lon="3.28982">
        <ele>442.5</ele>
        <time>2021-08-04T15:38:02Z</time>
      </trkpt>
      <trkpt lat="45.56062" lon="3.28983">
        <ele>442.4</ele>
        <time>2021-08-04T15:38:04Z</time>
      </trkpt>
      <trkpt lat="45.56052" lon="3.28984">
        <ele>442.3</ele>
        <time>2021-08-04T15:38:06Z</time>
      </trkpt>
      <trkpt lat="45.56042" lon="3.28985">
        <ele>442.1</ele>
        <time>2021-08-04T15:38:08Z</time>
      </trkpt>
      <trkpt lat="45.56032" lon="3.28986">
        <ele>442</ele>
        <time>2021-08-04T15:38:10Z</time>
      </trkpt>
      <trkpt lat="45.56021" lon="3.28986">
        <ele>441.9</ele>
        <time>2021-08-04T15:38:12Z</time>
      </trkpt>
      <trkpt lat="45.5601" lon="3.28988">
        <ele>441.7</ele>
        <time>2021-08-04T15:38:14Z</time>
      </trkpt>
      <trkpt lat="45.56001" lon="3.28988">
        <ele>441.6</ele>
        <time>2021-08-04T15:38:16Z</time>
      </trkpt>
      <trkpt lat="45.55991" lon="3.28989">
        <ele>441.7</ele>
        <time>2021-08-04T15:38:18Z</time>
      </trkpt>
      <trkpt lat="45.55983" lon="3.2899">
        <ele>441.9</ele>
        <time>2021-08-04T15:38:20Z</time>
      </trkpt>
      <trkpt lat="45.55975" lon="3.28991">
        <ele>442</ele>
        <time>2021-08-04T15:38:22Z</time>
      </trkpt>
      <trkpt lat="45.55968" lon="3.28992">
        <ele>442.1</ele>
        <time>2021-08-04T15:38:24Z</time>
      </trkpt>
      <trkpt lat="45.55961" lon="3.28993">
        <ele>442.2</ele>
        <time>2021-08-04T15:38:26Z</time>
      </trkpt>
      <trkpt lat="45.55956" lon="3.28994">
        <ele>442.3</ele>
        <time>2021-08-04T15:38:28Z</time>
      </trkpt>
      <trkpt lat="45.55951" lon="3.28997">
        <ele>442.3</ele>
        <time>2021-08-04T15:38:30Z</time>
      </trkpt>
      <trkpt lat="45.55947" lon="3.28999">
        <ele>442.3</ele>
        <time>2021-08-04T15:38:32Z</time>
      </trkpt>
      <trkpt lat="45.55945" lon="3.29001">
        <ele>442.3</ele>
        <time>2021-08-04T15:38:34Z</time>
      </trkpt>
      <trkpt lat="45.55945" lon="3.29002">
        <ele>442.2</ele>
        <time>2021-08-04T15:38:36Z</time>
      </trkpt>
      <trkpt lat="45.55945" lon="3.29002">
        <ele>442.3</ele>
        <time>2021-08-04T15:38:38Z</time>
      </trkpt>
      <trkpt lat="45.55945" lon="3.29001">
        <ele>442.3</ele>
        <time>2021-08-04T15:38:40Z</time>
      </trkpt>
      <trkpt lat="45.55945" lon="3.29001">
        <ele>442.3</ele>
        <time>2021-08-04T15:38:42Z</time>
      </trkpt>
      <trkpt lat="45.55945" lon="3.29001">
        <ele>442.3</ele>
        <time>2021-08-04T15:38:44Z</time>
      </trkpt>
      <trkpt lat="45.55937" lon="3.2902">
        <ele>441.6</ele>
        <time>2021-08-04T15:40:30Z</time>
      </trkpt>
      <trkpt lat="45.55934" lon="3.29027">
        <ele>441.4</ele>
        <time>2021-08-04T15:40:32Z</time>
      </trkpt>
      <trkpt lat="45.55931" lon="3.29035">
        <ele>441.1</ele>
        <time>2021-08-04T15:40:34Z</time>
      </trkpt>
      <trkpt lat="45.55927" lon="3.29043">
        <ele>440.8</ele>
        <time>2021-08-04T15:40:36Z</time>
      </trkpt>
      <trkpt lat="45.55923" lon="3.29052">
        <ele>440.4</ele>
        <time>2021-08-04T15:40:38Z</time>
      </trkpt>
      <trkpt lat="45.55919" lon="3.29061">
        <ele>440</ele>
        <time>2021-08-04T15:40:40Z</time>
      </trkpt>
      <trkpt lat="45.55916" lon="3.29071">
        <ele>439.6</ele>
        <time>2021-08-04T15:40:42Z</time>
      </trkpt>
      <trkpt lat="45.55912" lon="3.29082">
        <ele>439.3</ele>
        <time>2021-08-04T15:40:44Z</time>
      </trkpt>
      <trkpt lat="45.55907" lon="3.29092">
        <ele>439.2</ele>
        <time>2021-08-04T15:40:46Z</time>
      </trkpt>
      <trkpt lat="45.55903" lon="3.29102">
        <ele>439.2</ele>
        <time>2021-08-04T15:40:48Z</time>
      </trkpt>
      <trkpt lat="45.55899" lon="3.29114">
        <ele>439.1</ele>
        <time>2021-08-04T15:40:50Z</time>
      </trkpt>
      <trkpt lat="45.55895" lon="3.29125">
        <ele>439.1</ele>
        <time>2021-08-04T15:40:52Z</time>
      </trkpt>
      <trkpt lat="45.5589" lon="3.29136">
        <ele>439</ele>
        <time>2021-08-04T15:40:54Z</time>
      </trkpt>
      <trkpt lat="45.55886" lon="3.29148">
        <ele>438.9</ele>
        <time>2021-08-04T15:40:56Z</time>
      </trkpt>
      <trkpt lat="45.55882" lon="3.2916">
        <ele>438.8</ele>
        <time>2021-08-04T15:40:58Z</time>
      </trkpt>
      <trkpt lat="45.55877" lon="3.29173">
        <ele>438.6</ele>
        <time>2021-08-04T15:41:00Z</time>
      </trkpt>
      <trkpt lat="45.55873" lon="3.29186">
        <ele>438.3</ele>
        <time>2021-08-04T15:41:02Z</time>
      </trkpt>
      <trkpt lat="45.55868" lon="3.29199">
        <ele>437.9</ele>
        <time>2021-08-04T15:41:04Z</time>
      </trkpt>
      <trkpt lat="45.55864" lon="3.29213">
        <ele>437.5</ele>
        <time>2021-08-04T15:41:06Z</time>
      </trkpt>
      <trkpt lat="45.55859" lon="3.29227">
        <ele>437.1</ele>
        <time>2021-08-04T15:41:08Z</time>
      </trkpt>
      <trkpt lat="45.55855" lon="3.29242">
        <ele>436.6</ele>
        <time>2021-08-04T15:41:10Z</time>
      </trkpt>
      <trkpt lat="45.55851" lon="3.29259">
        <ele>436</ele>
        <time>2021-08-04T15:41:12Z</time>
      </trkpt>
      <trkpt lat="45.55846" lon="3.29278">
        <ele>435.3</ele>
        <time>2021-08-04T15:41:14Z</time>
      </trkpt>
      <trkpt lat="45.55842" lon="3.29298">
        <ele>434.5</ele>
        <time>2021-08-04T15:41:16Z</time>
      </trkpt>
      <trkpt lat="45.55837" lon="3.29318">
        <ele>433.7</ele>
        <time>2021-08-04T15:41:18Z</time>
      </trkpt>
      <trkpt lat="45.55832" lon="3.29339">
        <ele>432.8</ele>
        <time>2021-08-04T15:41:20Z</time>
      </trkpt>
      <trkpt lat="45.55826" lon="3.29362">
        <ele>431.9</ele>
        <time>2021-08-04T15:41:22Z</time>
      </trkpt>
      <trkpt lat="45.5582" lon="3.29384">
        <ele>431</ele>
        <time>2021-08-04T15:41:24Z</time>
      </trkpt>
      <trkpt lat="45.55814" lon="3.29406">
        <ele>430</ele>
        <time>2021-08-04T15:41:26Z</time>
      </trkpt>
      <trkpt lat="45.55807" lon="3.29429">
        <ele>428.8</ele>
        <time>2021-08-04T15:41:28Z</time>
      </trkpt>
      <trkpt lat="45.55799" lon="3.29453">
        <ele>427.5</ele>
        <time>2021-08-04T15:41:30Z</time>
      </trkpt>
      <trkpt lat="45.55793" lon="3.29476">
        <ele>426.1</ele>
        <time>2021-08-04T15:41:32Z</time>
      </trkpt>
      <trkpt lat="45.55786" lon="3.29498">
        <ele>424.7</ele>
        <time>2021-08-04T15:41:34Z</time>
      </trkpt>
      <trkpt lat="45.55778" lon="3.2952">
        <ele>423.6</ele>
        <time>2021-08-04T15:41:36Z</time>
      </trkpt>
      <trkpt lat="45.55769" lon="3.29541">
        <ele>422.7</ele>
        <time>2021-08-04T15:41:38Z</time>
      </trkpt>
      <trkpt lat="45.55757" lon="3.29559">
        <ele>422</ele>
        <time>2021-08-04T15:41:40Z</time>
      </trkpt>
      <trkpt lat="45.55745" lon="3.29576">
        <ele>421.4</ele>
        <time>2021-08-04T15:41:42Z</time>
      </trkpt>
      <trkpt lat="45.55733" lon="3.29593">
        <ele>420.6</ele>
        <time>2021-08-04T15:41:44Z</time>
      </trkpt>
      <trkpt lat="45.55722" lon="3.29611">
        <ele>419.6</ele>
        <time>2021-08-04T15:41:46Z</time>
      </trkpt>
      <trkpt lat="45.55712" lon="3.29631">
        <ele>418.3</ele>
        <time>2021-08-04T15:41:48Z</time>
      </trkpt>
      <trkpt lat="45.55704" lon="3.29654">
        <ele>416.9</ele>
        <time>2021-08-04T15:41:50Z</time>
      </trkpt>
      <trkpt lat="45.55695" lon="3.29678">
        <ele>415.5</ele>
        <time>2021-08-04T15:41:52Z</time>
      </trkpt>
      <trkpt lat="45.55685" lon="3.29702">
        <ele>414.4</ele>
        <time>2021-08-04T15:41:54Z</time>
      </trkpt>
      <trkpt lat="45.55676" lon="3.29728">
        <ele>413.1</ele>
        <time>2021-08-04T15:41:56Z</time>
      </trkpt>
      <trkpt lat="45.55666" lon="3.29753">
        <ele>411.9</ele>
        <time>2021-08-04T15:41:58Z</time>
      </trkpt>
      <trkpt lat="45.55656" lon="3.29778">
        <ele>411.1</ele>
        <time>2021-08-04T15:42:00Z</time>
      </trkpt>
      <trkpt lat="45.55646" lon="3.29803">
        <ele>410.3</ele>
        <time>2021-08-04T15:42:02Z</time>
      </trkpt>
      <trkpt lat="45.55635" lon="3.29826">
        <ele>409.6</ele>
        <time>2021-08-04T15:42:04Z</time>
      </trkpt>
      <trkpt lat="45.55623" lon="3.29849">
        <ele>409.1</ele>
        <time>2021-08-04T15:42:06Z</time>
      </trkpt>
      <trkpt lat="45.55609" lon="3.29869">
        <ele>408.5</ele>
        <time>2021-08-04T15:42:08Z</time>
      </trkpt>
      <trkpt lat="45.55596" lon="3.29889">
        <ele>407.9</ele>
        <time>2021-08-04T15:42:10Z</time>
      </trkpt>
      <trkpt lat="45.55581" lon="3.29909">
        <ele>407.3</ele>
        <time>2021-08-04T15:42:12Z</time>
      </trkpt>
      <trkpt lat="45.55567" lon="3.2993">
        <ele>406.5</ele>
        <time>2021-08-04T15:42:14Z</time>
      </trkpt>
      <trkpt lat="45.55553" lon="3.2995">
        <ele>405.6</ele>
        <time>2021-08-04T15:42:16Z</time>
      </trkpt>
      <trkpt lat="45.55539" lon="3.2997">
        <ele>404.6</ele>
        <time>2021-08-04T15:42:18Z</time>
      </trkpt>
      <trkpt lat="45.55525" lon="3.2999">
        <ele>403.6</ele>
        <time>2021-08-04T15:42:20Z</time>
      </trkpt>
      <trkpt lat="45.55512" lon="3.30009">
        <ele>402.8</ele>
        <time>2021-08-04T15:42:22Z</time>
      </trkpt>
      <trkpt lat="45.55498" lon="3.30029">
        <ele>402.3</ele>
        <time>2021-08-04T15:42:24Z</time>
      </trkpt>
      <trkpt lat="45.55485" lon="3.30048">
        <ele>401.9</ele>
        <time>2021-08-04T15:42:26Z</time>
      </trkpt>
      <trkpt lat="45.55471" lon="3.30067">
        <ele>401.5</ele>
        <time>2021-08-04T15:42:28Z</time>
      </trkpt>
      <trkpt lat="45.55458" lon="3.30086">
        <ele>400.9</ele>
        <time>2021-08-04T15:42:30Z</time>
      </trkpt>
      <trkpt lat="45.55445" lon="3.30105">
        <ele>400.5</ele>
        <time>2021-08-04T15:42:32Z</time>
      </trkpt>
      <trkpt lat="45.55432" lon="3.30123">
        <ele>400</ele>
        <time>2021-08-04T15:42:34Z</time>
      </trkpt>
      <trkpt lat="45.55419" lon="3.30142">
        <ele>399.6</ele>
        <time>2021-08-04T15:42:36Z</time>
      </trkpt>
      <trkpt lat="45.55406" lon="3.3016">
        <ele>399</ele>
        <time>2021-08-04T15:42:38Z</time>
      </trkpt>
      <trkpt lat="45.55394" lon="3.30178">
        <ele>398.5</ele>
        <time>2021-08-04T15:42:40Z</time>
      </trkpt>
      <trkpt lat="45.55382" lon="3.30195">
        <ele>397.9</ele>
        <time>2021-08-04T15:42:42Z</time>
      </trkpt>
      <trkpt lat="45.5537" lon="3.30212">
        <ele>397.3</ele>
        <time>2021-08-04T15:42:44Z</time>
      </trkpt>
      <trkpt lat="45.55359" lon="3.30228">
        <ele>396.8</ele>
        <time>2021-08-04T15:42:46Z</time>
      </trkpt>
      <trkpt lat="45.55348" lon="3.30243">
        <ele>396.3</ele>
        <time>2021-08-04T15:42:48Z</time>
      </trkpt>
      <trkpt lat="45.5534" lon="3.30256">
        <ele>395.9</ele>
        <time>2021-08-04T15:42:50Z</time>
      </trkpt>
      <trkpt lat="45.55334" lon="3.30268">
        <ele>395.6</ele>
        <time>2021-08-04T15:42:52Z</time>
      </trkpt>
      <trkpt lat="45.5533" lon="3.30278">
        <ele>395.3</ele>
        <time>2021-08-04T15:42:54Z</time>
      </trkpt>
      <trkpt lat="45.55327" lon="3.30289">
        <ele>395.1</ele>
        <time>2021-08-04T15:42:56Z</time>
      </trkpt>
      <trkpt lat="45.55324" lon="3.30301">
        <ele>394.8</ele>
        <time>2021-08-04T15:42:58Z</time>
      </trkpt>
      <trkpt lat="45.55321" lon="3.30315">
        <ele>394.4</ele>
        <time>2021-08-04T15:43:00Z</time>
      </trkpt>
      <trkpt lat="45.5532" lon="3.30329">
        <ele>394.1</ele>
        <time>2021-08-04T15:43:02Z</time>
      </trkpt>
      <trkpt lat="45.55318" lon="3.30345">
        <ele>393.7</ele>
        <time>2021-08-04T15:43:04Z</time>
      </trkpt>
      <trkpt lat="45.55316" lon="3.30362">
        <ele>393.4</ele>
        <time>2021-08-04T15:43:06Z</time>
      </trkpt>
      <trkpt lat="45.55314" lon="3.3038">
        <ele>393</ele>
        <time>2021-08-04T15:43:08Z</time>
      </trkpt>
      <trkpt lat="45.55311" lon="3.30399">
        <ele>392.6</ele>
        <time>2021-08-04T15:43:10Z</time>
      </trkpt>
      <trkpt lat="45.55309" lon="3.30418">
        <ele>392.2</ele>
        <time>2021-08-04T15:43:12Z</time>
      </trkpt>
      <trkpt lat="45.55307" lon="3.30438">
        <ele>391.8</ele>
        <time>2021-08-04T15:43:14Z</time>
      </trkpt>
      <trkpt lat="45.55305" lon="3.30458">
        <ele>391.4</ele>
        <time>2021-08-04T15:43:16Z</time>
      </trkpt>
      <trkpt lat="45.55302" lon="3.30479">
        <ele>390.9</ele>
        <time>2021-08-04T15:43:18Z</time>
      </trkpt>
      <trkpt lat="45.55299" lon="3.305">
        <ele>390.4</ele>
        <time>2021-08-04T15:43:20Z</time>
      </trkpt>
      <trkpt lat="45.55297" lon="3.30521">
        <ele>390.1</ele>
        <time>2021-08-04T15:43:22Z</time>
      </trkpt>
      <trkpt lat="45.55294" lon="3.30543">
        <ele>389.7</ele>
        <time>2021-08-04T15:43:24Z</time>
      </trkpt>
      <trkpt lat="45.5529" lon="3.30564">
        <ele>389.3</ele>
        <time>2021-08-04T15:43:26Z</time>
      </trkpt>
      <trkpt lat="45.55286" lon="3.30586">
        <ele>389</ele>
        <time>2021-08-04T15:43:28Z</time>
      </trkpt>
      <trkpt lat="45.5528" lon="3.30606">
        <ele>388.5</ele>
        <time>2021-08-04T15:43:30Z</time>
      </trkpt>
      <trkpt lat="45.55275" lon="3.30627">
        <ele>388.1</ele>
        <time>2021-08-04T15:43:32Z</time>
      </trkpt>
      <trkpt lat="45.55269" lon="3.30647">
        <ele>387.7</ele>
        <time>2021-08-04T15:43:34Z</time>
      </trkpt>
      <trkpt lat="45.55265" lon="3.30668">
        <ele>387.1</ele>
        <time>2021-08-04T15:43:36Z</time>
      </trkpt>
      <trkpt lat="45.55263" lon="3.30689">
        <ele>386.6</ele>
        <time>2021-08-04T15:43:38Z</time>
      </trkpt>
      <trkpt lat="45.5526" lon="3.30711">
        <ele>386.1</ele>
        <time>2021-08-04T15:43:40Z</time>
      </trkpt>
      <trkpt lat="45.55259" lon="3.30732">
        <ele>385.5</ele>
        <time>2021-08-04T15:43:42Z</time>
      </trkpt>
      <trkpt lat="45.55258" lon="3.30753">
        <ele>385.1</ele>
        <time>2021-08-04T15:43:44Z</time>
      </trkpt>
      <trkpt lat="45.55256" lon="3.30772">
        <ele>384.8</ele>
        <time>2021-08-04T15:43:46Z</time>
      </trkpt>
      <trkpt lat="45.55254" lon="3.30789">
        <ele>384.6</ele>
        <time>2021-08-04T15:43:48Z</time>
      </trkpt>
      <trkpt lat="45.55252" lon="3.30806">
        <ele>384.4</ele>
        <time>2021-08-04T15:43:50Z</time>
      </trkpt>
      <trkpt lat="45.55251" lon="3.30825">
        <ele>384.1</ele>
        <time>2021-08-04T15:43:52Z</time>
      </trkpt>
      <trkpt lat="45.55251" lon="3.30841">
        <ele>384</ele>
        <time>2021-08-04T15:43:54Z</time>
      </trkpt>
      <trkpt lat="45.55252" lon="3.30858">
        <ele>384</ele>
        <time>2021-08-04T15:43:56Z</time>
      </trkpt>
      <trkpt lat="45.55252" lon="3.30874">
        <ele>384</ele>
        <time>2021-08-04T15:43:58Z</time>
      </trkpt>
      <trkpt lat="45.55251" lon="3.30888">
        <ele>384</ele>
        <time>2021-08-04T15:44:00Z</time>
      </trkpt>
      <trkpt lat="45.5525" lon="3.30901">
        <ele>384</ele>
        <time>2021-08-04T15:44:02Z</time>
      </trkpt>
      <trkpt lat="45.5525" lon="3.30915">
        <ele>384</ele>
        <time>2021-08-04T15:44:04Z</time>
      </trkpt>
      <trkpt lat="45.55252" lon="3.30928">
        <ele>383.7</ele>
        <time>2021-08-04T15:44:06Z</time>
      </trkpt>
      <trkpt lat="45.55252" lon="3.30938">
        <ele>383.5</ele>
        <time>2021-08-04T15:44:08Z</time>
      </trkpt>
      <trkpt lat="45.55249" lon="3.30947">
        <ele>383.3</ele>
        <time>2021-08-04T15:44:10Z</time>
      </trkpt>
      <trkpt lat="45.55244" lon="3.30958">
        <ele>382.9</ele>
        <time>2021-08-04T15:44:12Z</time>
      </trkpt>
      <trkpt lat="45.55236" lon="3.30972">
        <ele>382.5</ele>
        <time>2021-08-04T15:44:14Z</time>
      </trkpt>
      <trkpt lat="45.55227" lon="3.30986">
        <ele>382.1</ele>
        <time>2021-08-04T15:44:16Z</time>
      </trkpt>
      <trkpt lat="45.55218" lon="3.31001">
        <ele>381.6</ele>
        <time>2021-08-04T15:44:18Z</time>
      </trkpt>
      <trkpt lat="45.55209" lon="3.31016">
        <ele>381</ele>
        <time>2021-08-04T15:44:20Z</time>
      </trkpt>
      <trkpt lat="45.55202" lon="3.31031">
        <ele>380.4</ele>
        <time>2021-08-04T15:44:22Z</time>
      </trkpt>
      <trkpt lat="45.55193" lon="3.31046">
        <ele>379.8</ele>
        <time>2021-08-04T15:44:24Z</time>
      </trkpt>
      <trkpt lat="45.55185" lon="3.31061">
        <ele>379.2</ele>
        <time>2021-08-04T15:44:26Z</time>
      </trkpt>
      <trkpt lat="45.55178" lon="3.31076">
        <ele>378.5</ele>
        <time>2021-08-04T15:44:28Z</time>
      </trkpt>
      <trkpt lat="45.55171" lon="3.31089">
        <ele>378</ele>
        <time>2021-08-04T15:44:30Z</time>
      </trkpt>
      <trkpt lat="45.55165" lon="3.31101">
        <ele>377.8</ele>
        <time>2021-08-04T15:44:32Z</time>
      </trkpt>
      <trkpt lat="45.5516" lon="3.31111">
        <ele>377.7</ele>
        <time>2021-08-04T15:44:34Z</time>
      </trkpt>
      <trkpt lat="45.55154" lon="3.31122">
        <ele>377.7</ele>
        <time>2021-08-04T15:44:36Z</time>
      </trkpt>
      <trkpt lat="45.55143" lon="3.31128">
        <ele>377.7</ele>
        <time>2021-08-04T15:44:38Z</time>
      </trkpt>
      <trkpt lat="45.55131" lon="3.3113">
        <ele>377.9</ele>
        <time>2021-08-04T15:44:40Z</time>
      </trkpt>
      <trkpt lat="45.55118" lon="3.31128">
        <ele>378</ele>
        <time>2021-08-04T15:44:42Z</time>
      </trkpt>
      <trkpt lat="45.55105" lon="3.31127">
        <ele>378.2</ele>
        <time>2021-08-04T15:44:44Z</time>
      </trkpt>
      <trkpt lat="45.55093" lon="3.31127">
        <ele>378.4</ele>
        <time>2021-08-04T15:44:46Z</time>
      </trkpt>
      <trkpt lat="45.5508" lon="3.3113">
        <ele>378.4</ele>
        <time>2021-08-04T15:44:48Z</time>
      </trkpt>
      <trkpt lat="45.55067" lon="3.31133">
        <ele>378.1</ele>
        <time>2021-08-04T15:44:50Z</time>
      </trkpt>
      <trkpt lat="45.55055" lon="3.31138">
        <ele>377.9</ele>
        <time>2021-08-04T15:44:52Z</time>
      </trkpt>
      <trkpt lat="45.55044" lon="3.31147">
        <ele>377.6</ele>
        <time>2021-08-04T15:44:54Z</time>
      </trkpt>
      <trkpt lat="45.55034" lon="3.31158">
        <ele>377.4</ele>
        <time>2021-08-04T15:44:56Z</time>
      </trkpt>
      <trkpt lat="45.55025" lon="3.3117">
        <ele>377.3</ele>
        <time>2021-08-04T15:44:58Z</time>
      </trkpt>
      <trkpt lat="45.55016" lon="3.31182">
        <ele>377.4</ele>
        <time>2021-08-04T15:45:00Z</time>
      </trkpt>
      <trkpt lat="45.55007" lon="3.31193">
        <ele>377.4</ele>
        <time>2021-08-04T15:45:02Z</time>
      </trkpt>
      <trkpt lat="45.54998" lon="3.31204">
        <ele>377.5</ele>
        <time>2021-08-04T15:45:04Z</time>
      </trkpt>
      <trkpt lat="45.54989" lon="3.31214">
        <ele>377.6</ele>
        <time>2021-08-04T15:45:06Z</time>
      </trkpt>
      <trkpt lat="45.54979" lon="3.31221">
        <ele>377.7</ele>
        <time>2021-08-04T15:45:08Z</time>
      </trkpt>
      <trkpt lat="45.54969" lon="3.31227">
        <ele>377.8</ele>
        <time>2021-08-04T15:45:10Z</time>
      </trkpt>
      <trkpt lat="45.5496" lon="3.31232">
        <ele>377.9</ele>
        <time>2021-08-04T15:45:12Z</time>
      </trkpt>
      <trkpt lat="45.5495" lon="3.31236">
        <ele>377.9</ele>
        <time>2021-08-04T15:45:14Z</time>
      </trkpt>
      <trkpt lat="45.5494" lon="3.31241">
        <ele>378</ele>
        <time>2021-08-04T15:45:16Z</time>
      </trkpt>
      <trkpt lat="45.54929" lon="3.31244">
        <ele>378</ele>
        <time>2021-08-04T15:45:18Z</time>
      </trkpt>
      <trkpt lat="45.54919" lon="3.31248">
        <ele>378</ele>
        <time>2021-08-04T15:45:20Z</time>
      </trkpt>
      <trkpt lat="45.54909" lon="3.31252">
        <ele>378</ele>
        <time>2021-08-04T15:45:22Z</time>
      </trkpt>
      <trkpt lat="45.54898" lon="3.31256">
        <ele>378.1</ele>
        <time>2021-08-04T15:45:24Z</time>
      </trkpt>
      <trkpt lat="45.54887" lon="3.31258">
        <ele>378.1</ele>
        <time>2021-08-04T15:45:26Z</time>
      </trkpt>
      <trkpt lat="45.54877" lon="3.31261">
        <ele>378.1</ele>
        <time>2021-08-04T15:45:28Z</time>
      </trkpt>
      <trkpt lat="45.54867" lon="3.31263">
        <ele>378.2</ele>
        <time>2021-08-04T15:45:30Z</time>
      </trkpt>
      <trkpt lat="45.54857" lon="3.31266">
        <ele>378.2</ele>
        <time>2021-08-04T15:45:32Z</time>
      </trkpt>
      <trkpt lat="45.54847" lon="3.31268">
        <ele>378.2</ele>
        <time>2021-08-04T15:45:34Z</time>
      </trkpt>
      <trkpt lat="45.54838" lon="3.31271">
        <ele>378.2</ele>
        <time>2021-08-04T15:45:36Z</time>
      </trkpt>
      <trkpt lat="45.54828" lon="3.31273">
        <ele>378.2</ele>
        <time>2021-08-04T15:45:38Z</time>
      </trkpt>
      <trkpt lat="45.54818" lon="3.31275">
        <ele>378.1</ele>
        <time>2021-08-04T15:45:40Z</time>
      </trkpt>
      <trkpt lat="45.54808" lon="3.31276">
        <ele>378</ele>
        <time>2021-08-04T15:45:42Z</time>
      </trkpt>
      <trkpt lat="45.54799" lon="3.31279">
        <ele>377.9</ele>
        <time>2021-08-04T15:45:44Z</time>
      </trkpt>
      <trkpt lat="45.54789" lon="3.31281">
        <ele>377.8</ele>
        <time>2021-08-04T15:45:46Z</time>
      </trkpt>
      <trkpt lat="45.5478" lon="3.31283">
        <ele>377.8</ele>
        <time>2021-08-04T15:45:48Z</time>
      </trkpt>
      <trkpt lat="45.54771" lon="3.31285">
        <ele>377.7</ele>
        <time>2021-08-04T15:45:50Z</time>
      </trkpt>
      <trkpt lat="45.54761" lon="3.31287">
        <ele>377.6</ele>
        <time>2021-08-04T15:45:52Z</time>
      </trkpt>
      <trkpt lat="45.54752" lon="3.31289">
        <ele>377.5</ele>
        <time>2021-08-04T15:45:54Z</time>
      </trkpt>
      <trkpt lat="45.54744" lon="3.31291">
        <ele>377.5</ele>
        <time>2021-08-04T15:45:56Z</time>
      </trkpt>
      <trkpt lat="45.54736" lon="3.31294">
        <ele>377.4</ele>
        <time>2021-08-04T15:45:58Z</time>
      </trkpt>
      <trkpt lat="45.54727" lon="3.31295">
        <ele>377.4</ele>
        <time>2021-08-04T15:46:00Z</time>
      </trkpt>
      <trkpt lat="45.54719" lon="3.31296">
        <ele>377.4</ele>
        <time>2021-08-04T15:46:02Z</time>
      </trkpt>
      <trkpt lat="45.54711" lon="3.31298">
        <ele>377.4</ele>
        <time>2021-08-04T15:46:04Z</time>
      </trkpt>
      <trkpt lat="45.54704" lon="3.313">
        <ele>377.4</ele>
        <time>2021-08-04T15:46:06Z</time>
      </trkpt>
      <trkpt lat="45.54696" lon="3.313">
        <ele>377.3</ele>
        <time>2021-08-04T15:46:08Z</time>
      </trkpt>
      <trkpt lat="45.54689" lon="3.31301">
        <ele>377.3</ele>
        <time>2021-08-04T15:46:10Z</time>
      </trkpt>
      <trkpt lat="45.54682" lon="3.31301">
        <ele>377.3</ele>
        <time>2021-08-04T15:46:12Z</time>
      </trkpt>
      <trkpt lat="45.54674" lon="3.313">
        <ele>377.2</ele>
        <time>2021-08-04T15:46:14Z</time>
      </trkpt>
      <trkpt lat="45.54667" lon="3.31299">
        <ele>377.2</ele>
        <time>2021-08-04T15:46:16Z</time>
      </trkpt>
      <trkpt lat="45.5466" lon="3.31297">
        <ele>377.3</ele>
        <time>2021-08-04T15:46:18Z</time>
      </trkpt>
      <trkpt lat="45.54653" lon="3.31295">
        <ele>377.4</ele>
        <time>2021-08-04T15:46:20Z</time>
      </trkpt>
      <trkpt lat="45.54647" lon="3.31292">
        <ele>377.5</ele>
        <time>2021-08-04T15:46:22Z</time>
      </trkpt>
      <trkpt lat="45.54641" lon="3.31289">
        <ele>377.6</ele>
        <time>2021-08-04T15:46:24Z</time>
      </trkpt>
      <trkpt lat="45.54634" lon="3.31285">
        <ele>377.6</ele>
        <time>2021-08-04T15:46:26Z</time>
      </trkpt>
      <trkpt lat="45.54628" lon="3.31281">
        <ele>377.7</ele>
        <time>2021-08-04T15:46:28Z</time>
      </trkpt>
      <trkpt lat="45.54622" lon="3.31276">
        <ele>377.7</ele>
        <time>2021-08-04T15:46:30Z</time>
      </trkpt>
      <trkpt lat="45.54616" lon="3.31271">
        <ele>377.7</ele>
        <time>2021-08-04T15:46:32Z</time>
      </trkpt>
      <trkpt lat="45.54609" lon="3.31266">
        <ele>377.8</ele>
        <time>2021-08-04T15:46:34Z</time>
      </trkpt>
      <trkpt lat="45.54603" lon="3.3126">
        <ele>377.8</ele>
        <time>2021-08-04T15:46:36Z</time>
      </trkpt>
      <trkpt lat="45.54597" lon="3.31254">
        <ele>377.8</ele>
        <time>2021-08-04T15:46:38Z</time>
      </trkpt>
      <trkpt lat="45.5459" lon="3.31249">
        <ele>377.8</ele>
        <time>2021-08-04T15:46:40Z</time>
      </trkpt>
      <trkpt lat="45.54583" lon="3.31243">
        <ele>377.8</ele>
        <time>2021-08-04T15:46:42Z</time>
      </trkpt>
      <trkpt lat="45.54576" lon="3.31236">
        <ele>377.8</ele>
        <time>2021-08-04T15:46:44Z</time>
      </trkpt>
      <trkpt lat="45.5457" lon="3.3123">
        <ele>377.7</ele>
        <time>2021-08-04T15:46:46Z</time>
      </trkpt>
      <trkpt lat="45.54563" lon="3.31224">
        <ele>377.6</ele>
        <time>2021-08-04T15:46:48Z</time>
      </trkpt>
      <trkpt lat="45.54555" lon="3.31218">
        <ele>377.6</ele>
        <time>2021-08-04T15:46:50Z</time>
      </trkpt>
      <trkpt lat="45.54548" lon="3.31212">
        <ele>377.5</ele>
        <time>2021-08-04T15:46:52Z</time>
      </trkpt>
      <trkpt lat="45.54542" lon="3.31206">
        <ele>377.5</ele>
        <time>2021-08-04T15:46:54Z</time>
      </trkpt>
      <trkpt lat="45.54536" lon="3.31201">
        <ele>377.4</ele>
        <time>2021-08-04T15:46:56Z</time>
      </trkpt>
      <trkpt lat="45.5453" lon="3.31196">
        <ele>377.4</ele>
        <time>2021-08-04T15:46:58Z</time>
      </trkpt>
      <trkpt lat="45.54524" lon="3.31192">
        <ele>377.3</ele>
        <time>2021-08-04T15:47:00Z</time>
      </trkpt>
      <trkpt lat="45.54518" lon="3.31186">
        <ele>377.3</ele>
        <time>2021-08-04T15:47:02Z</time>
      </trkpt>
      <trkpt lat="45.54511" lon="3.31182">
        <ele>377.2</ele>
        <time>2021-08-04T15:47:04Z</time>
      </trkpt>
      <trkpt lat="45.54505" lon="3.31177">
        <ele>377.2</ele>
        <time>2021-08-04T15:47:06Z</time>
      </trkpt>
      <trkpt lat="45.54498" lon="3.31173">
        <ele>377.2</ele>
        <time>2021-08-04T15:47:08Z</time>
      </trkpt>
      <trkpt lat="45.54491" lon="3.3117">
        <ele>377.2</ele>
        <time>2021-08-04T15:47:10Z</time>
      </trkpt>
      <trkpt lat="45.54484" lon="3.31166">
        <ele>377.2</ele>
        <time>2021-08-04T15:47:12Z</time>
      </trkpt>
      <trkpt lat="45.54476" lon="3.31162">
        <ele>377.2</ele>
        <time>2021-08-04T15:47:14Z</time>
      </trkpt>
      <trkpt lat="45.54469" lon="3.31158">
        <ele>377.3</ele>
        <time>2021-08-04T15:47:16Z</time>
      </trkpt>
      <trkpt lat="45.54461" lon="3.31154">
        <ele>377.4</ele>
        <time>2021-08-04T15:47:18Z</time>
      </trkpt>
      <trkpt lat="45.54453" lon="3.31149">
        <ele>377.5</ele>
        <time>2021-08-04T15:47:20Z</time>
      </trkpt>
      <trkpt lat="45.54446" lon="3.31145">
        <ele>377.6</ele>
        <time>2021-08-04T15:47:22Z</time>
      </trkpt>
      <trkpt lat="45.54438" lon="3.31142">
        <ele>377.7</ele>
        <time>2021-08-04T15:47:24Z</time>
      </trkpt>
      <trkpt lat="45.5443" lon="3.31138">
        <ele>377.8</ele>
        <time>2021-08-04T15:47:26Z</time>
      </trkpt>
      <trkpt lat="45.54423" lon="3.31135">
        <ele>377.9</ele>
        <time>2021-08-04T15:47:28Z</time>
      </trkpt>
      <trkpt lat="45.54416" lon="3.31133">
        <ele>378</ele>
        <time>2021-08-04T15:47:30Z</time>
      </trkpt>
      <trkpt lat="45.54408" lon="3.31132">
        <ele>378</ele>
        <time>2021-08-04T15:47:32Z</time>
      </trkpt>
      <trkpt lat="45.544" lon="3.31132">
        <ele>377.9</ele>
        <time>2021-08-04T15:47:34Z</time>
      </trkpt>
      <trkpt lat="45.54392" lon="3.31132">
        <ele>377.9</ele>
        <time>2021-08-04T15:47:36Z</time>
      </trkpt>
      <trkpt lat="45.54385" lon="3.31134">
        <ele>377.9</ele>
        <time>2021-08-04T15:47:38Z</time>
      </trkpt>
      <trkpt lat="45.54377" lon="3.31137">
        <ele>377.8</ele>
        <time>2021-08-04T15:47:40Z</time>
      </trkpt>
      <trkpt lat="45.5437" lon="3.31141">
        <ele>377.8</ele>
        <time>2021-08-04T15:47:42Z</time>
      </trkpt>
      <trkpt lat="45.54362" lon="3.31147">
        <ele>377.8</ele>
        <time>2021-08-04T15:47:44Z</time>
      </trkpt>
      <trkpt lat="45.54354" lon="3.31151">
        <ele>377.9</ele>
        <time>2021-08-04T15:47:46Z</time>
      </trkpt>
      <trkpt lat="45.54347" lon="3.31155">
        <ele>377.9</ele>
        <time>2021-08-04T15:47:48Z</time>
      </trkpt>
      <trkpt lat="45.54339" lon="3.31157">
        <ele>377.9</ele>
        <time>2021-08-04T15:47:50Z</time>
      </trkpt>
      <trkpt lat="45.54331" lon="3.31158">
        <ele>377.9</ele>
        <time>2021-08-04T15:47:52Z</time>
      </trkpt>
      <trkpt lat="45.54324" lon="3.31155">
        <ele>378</ele>
        <time>2021-08-04T15:47:54Z</time>
      </trkpt>
      <trkpt lat="45.54317" lon="3.31151">
        <ele>378</ele>
        <time>2021-08-04T15:47:56Z</time>
      </trkpt>
      <trkpt lat="45.5431" lon="3.31145">
        <ele>378</ele>
        <time>2021-08-04T15:47:58Z</time>
      </trkpt>
      <trkpt lat="45.54305" lon="3.31137">
        <ele>378</ele>
        <time>2021-08-04T15:48:00Z</time>
      </trkpt>
      <trkpt lat="45.54302" lon="3.31127">
        <ele>377.9</ele>
        <time>2021-08-04T15:48:02Z</time>
      </trkpt>
      <trkpt lat="45.54301" lon="3.31116">
        <ele>377.8</ele>
        <time>2021-08-04T15:48:04Z</time>
      </trkpt>
      <trkpt lat="45.54299" lon="3.31106">
        <ele>377.7</ele>
        <time>2021-08-04T15:48:06Z</time>
      </trkpt>
      <trkpt lat="45.54296" lon="3.31094">
        <ele>377.6</ele>
        <time>2021-08-04T15:48:08Z</time>
      </trkpt>
      <trkpt lat="45.54294" lon="3.31083">
        <ele>377.5</ele>
        <time>2021-08-04T15:48:10Z</time>
      </trkpt>
      <trkpt lat="45.54291" lon="3.31072">
        <ele>377.4</ele>
        <time>2021-08-04T15:48:12Z</time>
      </trkpt>
      <trkpt lat="45.54288" lon="3.3106">
        <ele>377.4</ele>
        <time>2021-08-04T15:48:14Z</time>
      </trkpt>
      <trkpt lat="45.54285" lon="3.31048">
        <ele>377.5</ele>
        <time>2021-08-04T15:48:16Z</time>
      </trkpt>
      <trkpt lat="45.54282" lon="3.31036">
        <ele>377.5</ele>
        <time>2021-08-04T15:48:18Z</time>
      </trkpt>
      <trkpt lat="45.54279" lon="3.31025">
        <ele>377.6</ele>
        <time>2021-08-04T15:48:20Z</time>
      </trkpt>
      <trkpt lat="45.54275" lon="3.31016">
        <ele>377.8</ele>
        <time>2021-08-04T15:48:22Z</time>
      </trkpt>
      <trkpt lat="45.54271" lon="3.31008">
        <ele>378</ele>
        <time>2021-08-04T15:48:24Z</time>
      </trkpt>
      <trkpt lat="45.54267" lon="3.31002">
        <ele>378.2</ele>
        <time>2021-08-04T15:48:26Z</time>
      </trkpt>
      <trkpt lat="45.54261" lon="3.30998">
        <ele>378.4</ele>
        <time>2021-08-04T15:48:28Z</time>
      </trkpt>
      <trkpt lat="45.54256" lon="3.30994">
        <ele>378.6</ele>
        <time>2021-08-04T15:48:30Z</time>
      </trkpt>
      <trkpt lat="45.54251" lon="3.30989">
        <ele>378.7</ele>
        <time>2021-08-04T15:48:32Z</time>
      </trkpt>
      <trkpt lat="45.54245" lon="3.30985">
        <ele>378.7</ele>
        <time>2021-08-04T15:48:34Z</time>
      </trkpt>
      <trkpt lat="45.54239" lon="3.30981">
        <ele>378.6</ele>
        <time>2021-08-04T15:48:36Z</time>
      </trkpt>
      <trkpt lat="45.54233" lon="3.30977">
        <ele>378.5</ele>
        <time>2021-08-04T15:48:38Z</time>
      </trkpt>
      <trkpt lat="45.54227" lon="3.30974">
        <ele>378.5</ele>
        <time>2021-08-04T15:48:40Z</time>
      </trkpt>
      <trkpt lat="45.5422" lon="3.30972">
        <ele>378.5</ele>
        <time>2021-08-04T15:48:42Z</time>
      </trkpt>
      <trkpt lat="45.54212" lon="3.30972">
        <ele>378.5</ele>
        <time>2021-08-04T15:48:44Z</time>
      </trkpt>
      <trkpt lat="45.54203" lon="3.30972">
        <ele>378.5</ele>
        <time>2021-08-04T15:48:46Z</time>
      </trkpt>
      <trkpt lat="45.54193" lon="3.3097">
        <ele>378.5</ele>
        <time>2021-08-04T15:48:48Z</time>
      </trkpt>
      <trkpt lat="45.54185" lon="3.30969">
        <ele>378.6</ele>
        <time>2021-08-04T15:48:50Z</time>
      </trkpt>
      <trkpt lat="45.54177" lon="3.30967">
        <ele>378.6</ele>
        <time>2021-08-04T15:48:52Z</time>
      </trkpt>
      <trkpt lat="45.54168" lon="3.30965">
        <ele>378.6</ele>
        <time>2021-08-04T15:48:54Z</time>
      </trkpt>
      <trkpt lat="45.5416" lon="3.30964">
        <ele>378.5</ele>
        <time>2021-08-04T15:48:56Z</time>
      </trkpt>
      <trkpt lat="45.54153" lon="3.3096">
        <ele>378.4</ele>
        <time>2021-08-04T15:48:58Z</time>
      </trkpt>
      <trkpt lat="45.54145" lon="3.30958">
        <ele>378.4</ele>
        <time>2021-08-04T15:49:00Z</time>
      </trkpt>
      <trkpt lat="45.54138" lon="3.30957">
        <ele>378.3</ele>
        <time>2021-08-04T15:49:02Z</time>
      </trkpt>
      <trkpt lat="45.54131" lon="3.30955">
        <ele>378.3</ele>
        <time>2021-08-04T15:49:04Z</time>
      </trkpt>
      <trkpt lat="45.54124" lon="3.30955">
        <ele>378.2</ele>
        <time>2021-08-04T15:49:06Z</time>
      </trkpt>
      <trkpt lat="45.54117" lon="3.30953">
        <ele>378.2</ele>
        <time>2021-08-04T15:49:08Z</time>
      </trkpt>
      <trkpt lat="45.54111" lon="3.30952">
        <ele>378.1</ele>
        <time>2021-08-04T15:49:10Z</time>
      </trkpt>
      <trkpt lat="45.54104" lon="3.30951">
        <ele>378.1</ele>
        <time>2021-08-04T15:49:12Z</time>
      </trkpt>
      <trkpt lat="45.54096" lon="3.30949">
        <ele>378.1</ele>
        <time>2021-08-04T15:49:14Z</time>
      </trkpt>
      <trkpt lat="45.54089" lon="3.30948">
        <ele>378</ele>
        <time>2021-08-04T15:49:16Z</time>
      </trkpt>
      <trkpt lat="45.54082" lon="3.30946">
        <ele>378</ele>
        <time>2021-08-04T15:49:18Z</time>
      </trkpt>
      <trkpt lat="45.54074" lon="3.30944">
        <ele>378</ele>
        <time>2021-08-04T15:49:20Z</time>
      </trkpt>
      <trkpt lat="45.54067" lon="3.30943">
        <ele>378</ele>
        <time>2021-08-04T15:49:22Z</time>
      </trkpt>
      <trkpt lat="45.54059" lon="3.3094">
        <ele>378</ele>
        <time>2021-08-04T15:49:24Z</time>
      </trkpt>
      <trkpt lat="45.54051" lon="3.30938">
        <ele>378</ele>
        <time>2021-08-04T15:49:26Z</time>
      </trkpt>
      <trkpt lat="45.54043" lon="3.30937">
        <ele>378</ele>
        <time>2021-08-04T15:49:28Z</time>
      </trkpt>
      <trkpt lat="45.54035" lon="3.30935">
        <ele>378</ele>
        <time>2021-08-04T15:49:30Z</time>
      </trkpt>
      <trkpt lat="45.54028" lon="3.30934">
        <ele>378</ele>
        <time>2021-08-04T15:49:32Z</time>
      </trkpt>
      <trkpt lat="45.54019" lon="3.30932">
        <ele>378</ele>
        <time>2021-08-04T15:49:34Z</time>
      </trkpt>
      <trkpt lat="45.54011" lon="3.3093">
        <ele>378</ele>
        <time>2021-08-04T15:49:36Z</time>
      </trkpt>
      <trkpt lat="45.54003" lon="3.30928">
        <ele>378</ele>
        <time>2021-08-04T15:49:38Z</time>
      </trkpt>
      <trkpt lat="45.53995" lon="3.30927">
        <ele>378</ele>
        <time>2021-08-04T15:49:40Z</time>
      </trkpt>
      <trkpt lat="45.53987" lon="3.30924">
        <ele>378</ele>
        <time>2021-08-04T15:49:42Z</time>
      </trkpt>
      <trkpt lat="45.53979" lon="3.30922">
        <ele>378</ele>
        <time>2021-08-04T15:49:44Z</time>
      </trkpt>
      <trkpt lat="45.53972" lon="3.30921">
        <ele>378</ele>
        <time>2021-08-04T15:49:46Z</time>
      </trkpt>
      <trkpt lat="45.53965" lon="3.30919">
        <ele>378</ele>
        <time>2021-08-04T15:49:48Z</time>
      </trkpt>
      <trkpt lat="45.53958" lon="3.30917">
        <ele>378</ele>
        <time>2021-08-04T15:49:50Z</time>
      </trkpt>
      <trkpt lat="45.53951" lon="3.30916">
        <ele>378</ele>
        <time>2021-08-04T15:49:52Z</time>
      </trkpt>
      <trkpt lat="45.53944" lon="3.30914">
        <ele>378</ele>
        <time>2021-08-04T15:49:54Z</time>
      </trkpt>
      <trkpt lat="45.53937" lon="3.30913">
        <ele>378</ele>
        <time>2021-08-04T15:49:56Z</time>
      </trkpt>
      <trkpt lat="45.53929" lon="3.3091">
        <ele>378</ele>
        <time>2021-08-04T15:49:58Z</time>
      </trkpt>
      <trkpt lat="45.53922" lon="3.30909">
        <ele>378</ele>
        <time>2021-08-04T15:50:00Z</time>
      </trkpt>
      <trkpt lat="45.53914" lon="3.30907">
        <ele>378</ele>
        <time>2021-08-04T15:50:02Z</time>
      </trkpt>
      <trkpt lat="45.53907" lon="3.30905">
        <ele>378</ele>
        <time>2021-08-04T15:50:04Z</time>
      </trkpt>
      <trkpt lat="45.53899" lon="3.30904">
        <ele>378</ele>
        <time>2021-08-04T15:50:06Z</time>
      </trkpt>
      <trkpt lat="45.53892" lon="3.30902">
        <ele>377.9</ele>
        <time>2021-08-04T15:50:08Z</time>
      </trkpt>
      <trkpt lat="45.53884" lon="3.30901">
        <ele>377.9</ele>
        <time>2021-08-04T15:50:10Z</time>
      </trkpt>
      <trkpt lat="45.53876" lon="3.30899">
        <ele>377.9</ele>
        <time>2021-08-04T15:50:12Z</time>
      </trkpt>
      <trkpt lat="45.53868" lon="3.30897">
        <ele>377.9</ele>
        <time>2021-08-04T15:50:14Z</time>
      </trkpt>
      <trkpt lat="45.53861" lon="3.30896">
        <ele>377.8</ele>
        <time>2021-08-04T15:50:16Z</time>
      </trkpt>
      <trkpt lat="45.53853" lon="3.30893">
        <ele>377.8</ele>
        <time>2021-08-04T15:50:18Z</time>
      </trkpt>
      <trkpt lat="45.53845" lon="3.30892">
        <ele>377.7</ele>
        <time>2021-08-04T15:50:20Z</time>
      </trkpt>
      <trkpt lat="45.53838" lon="3.3089">
        <ele>377.7</ele>
        <time>2021-08-04T15:50:22Z</time>
      </trkpt>
      <trkpt lat="45.5383" lon="3.30889">
        <ele>377.7</ele>
        <time>2021-08-04T15:50:24Z</time>
      </trkpt>
      <trkpt lat="45.53823" lon="3.30887">
        <ele>377.6</ele>
        <time>2021-08-04T15:50:26Z</time>
      </trkpt>
      <trkpt lat="45.53815" lon="3.30886">
        <ele>377.6</ele>
        <time>2021-08-04T15:50:28Z</time>
      </trkpt>
      <trkpt lat="45.53807" lon="3.30884">
        <ele>377.5</ele>
        <time>2021-08-04T15:50:30Z</time>
      </trkpt>
      <trkpt lat="45.538" lon="3.30882">
        <ele>377.5</ele>
        <time>2021-08-04T15:50:32Z</time>
      </trkpt>
      <trkpt lat="45.53792" lon="3.3088">
        <ele>377.5</ele>
        <time>2021-08-04T15:50:34Z</time>
      </trkpt>
      <trkpt lat="45.53784" lon="3.30878">
        <ele>377.5</ele>
        <time>2021-08-04T15:50:36Z</time>
      </trkpt>
      <trkpt lat="45.53776" lon="3.30876">
        <ele>377.5</ele>
        <time>2021-08-04T15:50:38Z</time>
      </trkpt>
      <trkpt lat="45.53768" lon="3.30874">
        <ele>377.5</ele>
        <time>2021-08-04T15:50:40Z</time>
      </trkpt>
      <trkpt lat="45.53761" lon="3.30872">
        <ele>377.5</ele>
        <time>2021-08-04T15:50:42Z</time>
      </trkpt>
      <trkpt lat="45.53753" lon="3.3087">
        <ele>377.6</ele>
        <time>2021-08-04T15:50:44Z</time>
      </trkpt>
      <trkpt lat="45.53746" lon="3.30868">
        <ele>377.5</ele>
        <time>2021-08-04T15:50:46Z</time>
      </trkpt>
      <trkpt lat="45.53738" lon="3.30866">
        <ele>377.4</ele>
        <time>2021-08-04T15:50:48Z</time>
      </trkpt>
      <trkpt lat="45.53731" lon="3.30863">
        <ele>377.3</ele>
        <time>2021-08-04T15:50:50Z</time>
      </trkpt>
      <trkpt lat="45.53724" lon="3.3086">
        <ele>377.2</ele>
        <time>2021-08-04T15:50:52Z</time>
      </trkpt>
      <trkpt lat="45.53717" lon="3.30858">
        <ele>377</ele>
        <time>2021-08-04T15:50:54Z</time>
      </trkpt>
      <trkpt lat="45.5371" lon="3.30856">
        <ele>376.9</ele>
        <time>2021-08-04T15:50:56Z</time>
      </trkpt>
      <trkpt lat="45.53703" lon="3.30853">
        <ele>376.8</ele>
        <time>2021-08-04T15:50:58Z</time>
      </trkpt>
      <trkpt lat="45.53695" lon="3.30851">
        <ele>376.6</ele>
        <time>2021-08-04T15:51:00Z</time>
      </trkpt>
      <trkpt lat="45.53688" lon="3.30849">
        <ele>376.5</ele>
        <time>2021-08-04T15:51:02Z</time>
      </trkpt>
      <trkpt lat="45.5368" lon="3.30846">
        <ele>376.3</ele>
        <time>2021-08-04T15:51:04Z</time>
      </trkpt>
      <trkpt lat="45.53673" lon="3.30844">
        <ele>376.1</ele>
        <time>2021-08-04T15:51:06Z</time>
      </trkpt>
      <trkpt lat="45.53666" lon="3.30841">
        <ele>376</ele>
        <time>2021-08-04T15:51:08Z</time>
      </trkpt>
      <trkpt lat="45.53658" lon="3.30839">
        <ele>376</ele>
        <time>2021-08-04T15:51:10Z</time>
      </trkpt>
      <trkpt lat="45.5365" lon="3.30835">
        <ele>376</ele>
        <time>2021-08-04T15:51:12Z</time>
      </trkpt>
      <trkpt lat="45.53642" lon="3.30832">
        <ele>376</ele>
        <time>2021-08-04T15:51:14Z</time>
      </trkpt>
      <trkpt lat="45.53634" lon="3.30829">
        <ele>376</ele>
        <time>2021-08-04T15:51:16Z</time>
      </trkpt>
      <trkpt lat="45.53626" lon="3.30825">
        <ele>376.1</ele>
        <time>2021-08-04T15:51:18Z</time>
      </trkpt>
      <trkpt lat="45.53618" lon="3.30821">
        <ele>376.1</ele>
        <time>2021-08-04T15:51:20Z</time>
      </trkpt>
      <trkpt lat="45.53611" lon="3.30817">
        <ele>376.1</ele>
        <time>2021-08-04T15:51:22Z</time>
      </trkpt>
      <trkpt lat="45.53603" lon="3.30813">
        <ele>376.1</ele>
        <time>2021-08-04T15:51:24Z</time>
      </trkpt>
      <trkpt lat="45.53594" lon="3.30809">
        <ele>376</ele>
        <time>2021-08-04T15:51:26Z</time>
      </trkpt>
      <trkpt lat="45.53587" lon="3.30805">
        <ele>376</ele>
        <time>2021-08-04T15:51:28Z</time>
      </trkpt>
      <trkpt lat="45.53579" lon="3.30801">
        <ele>376.1</ele>
        <time>2021-08-04T15:51:30Z</time>
      </trkpt>
      <trkpt lat="45.53571" lon="3.30796">
        <ele>376.2</ele>
        <time>2021-08-04T15:51:32Z</time>
      </trkpt>
      <trkpt lat="45.53563" lon="3.30792">
        <ele>376.4</ele>
        <time>2021-08-04T15:51:34Z</time>
      </trkpt>
      <trkpt lat="45.53555" lon="3.30788">
        <ele>376.5</ele>
        <time>2021-08-04T15:51:36Z</time>
      </trkpt>
      <trkpt lat="45.53547" lon="3.30785">
        <ele>376.6</ele>
        <time>2021-08-04T15:51:38Z</time>
      </trkpt>
      <trkpt lat="45.53539" lon="3.3078">
        <ele>376.7</ele>
        <time>2021-08-04T15:51:40Z</time>
      </trkpt>
      <trkpt lat="45.5353" lon="3.30776">
        <ele>376.8</ele>
        <time>2021-08-04T15:51:42Z</time>
      </trkpt>
      <trkpt lat="45.53522" lon="3.30772">
        <ele>376.9</ele>
        <time>2021-08-04T15:51:44Z</time>
      </trkpt>
      <trkpt lat="45.53514" lon="3.30768">
        <ele>377</ele>
        <time>2021-08-04T15:51:46Z</time>
      </trkpt>
      <trkpt lat="45.53506" lon="3.30764">
        <ele>377.1</ele>
        <time>2021-08-04T15:51:48Z</time>
      </trkpt>
      <trkpt lat="45.53498" lon="3.3076">
        <ele>377.1</ele>
        <time>2021-08-04T15:51:50Z</time>
      </trkpt>
      <trkpt lat="45.5349" lon="3.30756">
        <ele>377.2</ele>
        <time>2021-08-04T15:51:52Z</time>
      </trkpt>
      <trkpt lat="45.53482" lon="3.30752">
        <ele>377.2</ele>
        <time>2021-08-04T15:51:54Z</time>
      </trkpt>
      <trkpt lat="45.53474" lon="3.30749">
        <ele>377.3</ele>
        <time>2021-08-04T15:51:56Z</time>
      </trkpt>
      <trkpt lat="45.53465" lon="3.30744">
        <ele>377.4</ele>
        <time>2021-08-04T15:51:58Z</time>
      </trkpt>
      <trkpt lat="45.53457" lon="3.30741">
        <ele>377.5</ele>
        <time>2021-08-04T15:52:00Z</time>
      </trkpt>
      <trkpt lat="45.5345" lon="3.30736">
        <ele>377.6</ele>
        <time>2021-08-04T15:52:02Z</time>
      </trkpt>
      <trkpt lat="45.53442" lon="3.30734">
        <ele>377.7</ele>
        <time>2021-08-04T15:52:04Z</time>
      </trkpt>
      <trkpt lat="45.53434" lon="3.30729">
        <ele>377.8</ele>
        <time>2021-08-04T15:52:06Z</time>
      </trkpt>
      <trkpt lat="45.53426" lon="3.30725">
        <ele>377.9</ele>
        <time>2021-08-04T15:52:08Z</time>
      </trkpt>
      <trkpt lat="45.53418" lon="3.30722">
        <ele>378</ele>
        <time>2021-08-04T15:52:10Z</time>
      </trkpt>
      <trkpt lat="45.5341" lon="3.3072">
        <ele>378.1</ele>
        <time>2021-08-04T15:52:12Z</time>
      </trkpt>
      <trkpt lat="45.53401" lon="3.30718">
        <ele>378.1</ele>
        <time>2021-08-04T15:52:14Z</time>
      </trkpt>
      <trkpt lat="45.53392" lon="3.30717">
        <ele>378.2</ele>
        <time>2021-08-04T15:52:16Z</time>
      </trkpt>
      <trkpt lat="45.53384" lon="3.30717">
        <ele>378.2</ele>
        <time>2021-08-04T15:52:18Z</time>
      </trkpt>
      <trkpt lat="45.53375" lon="3.30717">
        <ele>378.3</ele>
        <time>2021-08-04T15:52:20Z</time>
      </trkpt>
      <trkpt lat="45.53366" lon="3.30717">
        <ele>378.4</ele>
        <time>2021-08-04T15:52:22Z</time>
      </trkpt>
      <trkpt lat="45.53358" lon="3.30718">
        <ele>378.4</ele>
        <time>2021-08-04T15:52:24Z</time>
      </trkpt>
      <trkpt lat="45.53351" lon="3.30718">
        <ele>378.5</ele>
        <time>2021-08-04T15:52:26Z</time>
      </trkpt>
      <trkpt lat="45.53345" lon="3.30716">
        <ele>378.5</ele>
        <time>2021-08-04T15:52:28Z</time>
      </trkpt>
      <trkpt lat="45.5334" lon="3.30716">
        <ele>378.5</ele>
        <time>2021-08-04T15:52:30Z</time>
      </trkpt>
      <trkpt lat="45.53334" lon="3.30714">
        <ele>378.6</ele>
        <time>2021-08-04T15:52:32Z</time>
      </trkpt>
      <trkpt lat="45.53334" lon="3.30713">
        <ele>378.5</ele>
        <time>2021-08-04T15:52:34Z</time>
      </trkpt>
      <trkpt lat="45.53334" lon="3.30713">
        <ele>378.6</ele>
        <time>2021-08-04T15:52:36Z</time>
      </trkpt>
      <trkpt lat="45.53333" lon="3.30713">
        <ele>378.6</ele>
        <time>2021-08-04T15:52:38Z</time>
      </trkpt>
      <trkpt lat="45.53333" lon="3.30713">
        <ele>378.6</ele>
        <time>2021-08-04T15:52:40Z</time>
      </trkpt>
      <trkpt lat="45.53333" lon="3.30713">
        <ele>378.6</ele>
        <time>2021-08-04T15:52:42Z</time>
      </trkpt>
      <trkpt lat="45.53319" lon="3.30705">
        <ele>378.3</ele>
        <time>2021-08-04T15:53:28Z</time>
      </trkpt>
      <trkpt lat="45.53314" lon="3.307">
        <ele>378.2</ele>
        <time>2021-08-04T15:53:30Z</time>
      </trkpt>
      <trkpt lat="45.53309" lon="3.30696">
        <ele>378.1</ele>
        <time>2021-08-04T15:53:32Z</time>
      </trkpt>
      <trkpt lat="45.53304" lon="3.30692">
        <ele>378.1</ele>
        <time>2021-08-04T15:53:34Z</time>
      </trkpt>
      <trkpt lat="45.53299" lon="3.30687">
        <ele>378</ele>
        <time>2021-08-04T15:53:36Z</time>
      </trkpt>
      <trkpt lat="45.53293" lon="3.30682">
        <ele>378</ele>
        <time>2021-08-04T15:53:38Z</time>
      </trkpt>
      <trkpt lat="45.53288" lon="3.30678">
        <ele>378</ele>
        <time>2021-08-04T15:53:40Z</time>
      </trkpt>
      <trkpt lat="45.53282" lon="3.30673">
        <ele>378</ele>
        <time>2021-08-04T15:53:42Z</time>
      </trkpt>
      <trkpt lat="45.53276" lon="3.30668">
        <ele>378</ele>
        <time>2021-08-04T15:53:44Z</time>
      </trkpt>
      <trkpt lat="45.53271" lon="3.30663">
        <ele>378</ele>
        <time>2021-08-04T15:53:46Z</time>
      </trkpt>
      <trkpt lat="45.53265" lon="3.30657">
        <ele>377.9</ele>
        <time>2021-08-04T15:53:48Z</time>
      </trkpt>
      <trkpt lat="45.53259" lon="3.30652">
        <ele>377.8</ele>
        <time>2021-08-04T15:53:50Z</time>
      </trkpt>
      <trkpt lat="45.53253" lon="3.30647">
        <ele>377.8</ele>
        <time>2021-08-04T15:53:52Z</time>
      </trkpt>
      <trkpt lat="45.53247" lon="3.30641">
        <ele>377.7</ele>
        <time>2021-08-04T15:53:54Z</time>
      </trkpt>
      <trkpt lat="45.53241" lon="3.30636">
        <ele>377.8</ele>
        <time>2021-08-04T15:53:56Z</time>
      </trkpt>
      <trkpt lat="45.53235" lon="3.3063">
        <ele>377.8</ele>
        <time>2021-08-04T15:53:58Z</time>
      </trkpt>
      <trkpt lat="45.5323" lon="3.30625">
        <ele>377.9</ele>
        <time>2021-08-04T15:54:00Z</time>
      </trkpt>
      <trkpt lat="45.53225" lon="3.3062">
        <ele>377.9</ele>
        <time>2021-08-04T15:54:02Z</time>
      </trkpt>
      <trkpt lat="45.5322" lon="3.30616">
        <ele>378</ele>
        <time>2021-08-04T15:54:04Z</time>
      </trkpt>
      <trkpt lat="45.53215" lon="3.30612">
        <ele>378</ele>
        <time>2021-08-04T15:54:06Z</time>
      </trkpt>
      <trkpt lat="45.5321" lon="3.30608">
        <ele>378.1</ele>
        <time>2021-08-04T15:54:08Z</time>
      </trkpt>
      <trkpt lat="45.53205" lon="3.30604">
        <ele>378.2</ele>
        <time>2021-08-04T15:54:10Z</time>
      </trkpt>
      <trkpt lat="45.532" lon="3.30601">
        <ele>378.3</ele>
        <time>2021-08-04T15:54:12Z</time>
      </trkpt>
      <trkpt lat="45.53194" lon="3.30598">
        <ele>378.4</ele>
        <time>2021-08-04T15:54:14Z</time>
      </trkpt>
      <trkpt lat="45.53188" lon="3.30596">
        <ele>378.5</ele>
        <time>2021-08-04T15:54:16Z</time>
      </trkpt>
      <trkpt lat="45.53183" lon="3.30591">
        <ele>378.6</ele>
        <time>2021-08-04T15:54:18Z</time>
      </trkpt>
      <trkpt lat="45.53179" lon="3.30585">
        <ele>378.7</ele>
        <time>2021-08-04T15:54:20Z</time>
      </trkpt>
      <trkpt lat="45.53175" lon="3.30578">
        <ele>378.8</ele>
        <time>2021-08-04T15:54:22Z</time>
      </trkpt>
      <trkpt lat="45.5317" lon="3.30573">
        <ele>378.9</ele>
        <time>2021-08-04T15:54:24Z</time>
      </trkpt>
      <trkpt lat="45.53165" lon="3.30568">
        <ele>379</ele>
        <time>2021-08-04T15:54:26Z</time>
      </trkpt>
      <trkpt lat="45.5316" lon="3.30562">
        <ele>379</ele>
        <time>2021-08-04T15:54:28Z</time>
      </trkpt>
      <trkpt lat="45.53157" lon="3.3056">
        <ele>378.9</ele>
        <time>2021-08-04T15:54:30Z</time>
      </trkpt>
      <trkpt lat="45.53154" lon="3.30556">
        <ele>378.9</ele>
        <time>2021-08-04T15:54:32Z</time>
      </trkpt>
      <trkpt lat="45.53151" lon="3.30552">
        <ele>379</ele>
        <time>2021-08-04T15:54:34Z</time>
      </trkpt>
      <trkpt lat="45.53148" lon="3.30546">
        <ele>379</ele>
        <time>2021-08-04T15:54:36Z</time>
      </trkpt>
      <trkpt lat="45.53145" lon="3.30541">
        <ele>379</ele>
        <time>2021-08-04T15:54:38Z</time>
      </trkpt>
      <trkpt lat="45.53142" lon="3.30535">
        <ele>379</ele>
        <time>2021-08-04T15:54:40Z</time>
      </trkpt>
      <trkpt lat="45.53141" lon="3.30527">
        <ele>379.1</ele>
        <time>2021-08-04T15:54:42Z</time>
      </trkpt>
      <trkpt lat="45.5314" lon="3.30518">
        <ele>379.2</ele>
        <time>2021-08-04T15:54:44Z</time>
      </trkpt>
      <trkpt lat="45.53138" lon="3.30512">
        <ele>379.3</ele>
        <time>2021-08-04T15:54:46Z</time>
      </trkpt>
      <trkpt lat="45.53134" lon="3.30503">
        <ele>379.4</ele>
        <time>2021-08-04T15:54:48Z</time>
      </trkpt>
      <trkpt lat="45.53131" lon="3.30494">
        <ele>379.3</ele>
        <time>2021-08-04T15:54:50Z</time>
      </trkpt>
      <trkpt lat="45.53125" lon="3.30489">
        <ele>379.2</ele>
        <time>2021-08-04T15:54:52Z</time>
      </trkpt>
      <trkpt lat="45.53119" lon="3.30486">
        <ele>379.2</ele>
        <time>2021-08-04T15:54:54Z</time>
      </trkpt>
      <trkpt lat="45.53112" lon="3.30488">
        <ele>379.3</ele>
        <time>2021-08-04T15:54:56Z</time>
      </trkpt>
      <trkpt lat="45.53105" lon="3.30488">
        <ele>379.4</ele>
        <time>2021-08-04T15:54:58Z</time>
      </trkpt>
      <trkpt lat="45.53098" lon="3.30485">
        <ele>379.3</ele>
        <time>2021-08-04T15:55:00Z</time>
      </trkpt>
      <trkpt lat="45.53092" lon="3.30482">
        <ele>379.3</ele>
        <time>2021-08-04T15:55:02Z</time>
      </trkpt>
      <trkpt lat="45.53084" lon="3.30478">
        <ele>379.2</ele>
        <time>2021-08-04T15:55:04Z</time>
      </trkpt>
      <trkpt lat="45.53077" lon="3.30474">
        <ele>378.9</ele>
        <time>2021-08-04T15:55:06Z</time>
      </trkpt>
      <trkpt lat="45.53071" lon="3.30467">
        <ele>378.6</ele>
        <time>2021-08-04T15:55:08Z</time>
      </trkpt>
      <trkpt lat="45.53065" lon="3.30459">
        <ele>378.3</ele>
        <time>2021-08-04T15:55:10Z</time>
      </trkpt>
      <trkpt lat="45.53059" lon="3.30451">
        <ele>378</ele>
        <time>2021-08-04T15:55:12Z</time>
      </trkpt>
      <trkpt lat="45.53054" lon="3.30444">
        <ele>377.9</ele>
        <time>2021-08-04T15:55:14Z</time>
      </trkpt>
      <trkpt lat="45.53049" lon="3.30436">
        <ele>377.7</ele>
        <time>2021-08-04T15:55:16Z</time>
      </trkpt>
      <trkpt lat="45.53043" lon="3.3043">
        <ele>377.7</ele>
        <time>2021-08-04T15:55:18Z</time>
      </trkpt>
      <trkpt lat="45.53039" lon="3.30424">
        <ele>377.6</ele>
        <time>2021-08-04T15:55:20Z</time>
      </trkpt>
      <trkpt lat="45.53035" lon="3.30418">
        <ele>377.6</ele>
        <time>2021-08-04T15:55:22Z</time>
      </trkpt>
      <trkpt lat="45.5303" lon="3.30412">
        <ele>377.6</ele>
        <time>2021-08-04T15:55:24Z</time>
      </trkpt>
      <trkpt lat="45.53025" lon="3.30408">
        <ele>377.7</ele>
        <time>2021-08-04T15:55:26Z</time>
      </trkpt>
      <trkpt lat="45.53021" lon="3.30405">
        <ele>377.7</ele>
        <time>2021-08-04T15:55:28Z</time>
      </trkpt>
      <trkpt lat="45.5302" lon="3.30405">
        <ele>377.7</ele>
        <time>2021-08-04T15:55:30Z</time>
      </trkpt>
      <trkpt lat="45.5302" lon="3.30404">
        <ele>377.7</ele>
        <time>2021-08-04T15:55:32Z</time>
      </trkpt>
      <trkpt lat="45.5302" lon="3.30404">
        <ele>377.7</ele>
        <time>2021-08-04T15:55:34Z</time>
      </trkpt>
      <trkpt lat="45.5302" lon="3.30403">
        <ele>377.7</ele>
        <time>2021-08-04T15:55:36Z</time>
      </trkpt>
      <trkpt lat="45.5302" lon="3.30402">
        <ele>377.7</ele>
        <time>2021-08-04T15:55:38Z</time>
      </trkpt>
      <trkpt lat="45.5301" lon="3.30401">
        <ele>377.9</ele>
        <time>2021-08-04T16:08:52Z</time>
      </trkpt>
      <trkpt lat="45.53007" lon="3.30399">
        <ele>377.9</ele>
        <time>2021-08-04T16:08:54Z</time>
      </trkpt>
      <trkpt lat="45.53006" lon="3.30397">
        <ele>377.9</ele>
        <time>2021-08-04T16:08:56Z</time>
      </trkpt>
      <trkpt lat="45.53003" lon="3.30396">
        <ele>377.9</ele>
        <time>2021-08-04T16:08:58Z</time>
      </trkpt>
      <trkpt lat="45.53001" lon="3.30393">
        <ele>378</ele>
        <time>2021-08-04T16:09:00Z</time>
      </trkpt>
      <trkpt lat="45.52999" lon="3.3039">
        <ele>378</ele>
        <time>2021-08-04T16:09:02Z</time>
      </trkpt>
      <trkpt lat="45.52996" lon="3.30386">
        <ele>377.9</ele>
        <time>2021-08-04T16:09:04Z</time>
      </trkpt>
      <trkpt lat="45.52993" lon="3.30382">
        <ele>377.9</ele>
        <time>2021-08-04T16:09:06Z</time>
      </trkpt>
      <trkpt lat="45.5299" lon="3.30378">
        <ele>377.8</ele>
        <time>2021-08-04T16:09:08Z</time>
      </trkpt>
      <trkpt lat="45.52988" lon="3.30374">
        <ele>377.8</ele>
        <time>2021-08-04T16:09:10Z</time>
      </trkpt>
      <trkpt lat="45.52988" lon="3.30375">
        <ele>377.8</ele>
        <time>2021-08-04T16:09:12Z</time>
      </trkpt>
      <trkpt lat="45.52988" lon="3.30374">
        <ele>377.8</ele>
        <time>2021-08-04T16:09:14Z</time>
      </trkpt>
      <trkpt lat="45.52988" lon="3.30374">
        <ele>377.8</ele>
        <time>2021-08-04T16:09:16Z</time>
      </trkpt>
      <trkpt lat="45.52987" lon="3.30374">
        <ele>377.8</ele>
        <time>2021-08-04T16:09:18Z</time>
      </trkpt>
      <trkpt lat="45.52987" lon="3.30374">
        <ele>377.8</ele>
        <time>2021-08-04T16:09:20Z</time>
      </trkpt>
      <trkpt lat="45.52973" lon="3.30357">
        <ele>377.5</ele>
        <time>2021-08-04T16:09:44Z</time>
      </trkpt>
      <trkpt lat="45.52969" lon="3.3035">
        <ele>377.3</ele>
        <time>2021-08-04T16:09:46Z</time>
      </trkpt>
      <trkpt lat="45.52966" lon="3.30342">
        <ele>377.2</ele>
        <time>2021-08-04T16:09:48Z</time>
      </trkpt>
      <trkpt lat="45.52962" lon="3.30334">
        <ele>377.1</ele>
        <time>2021-08-04T16:09:50Z</time>
      </trkpt>
      <trkpt lat="45.52957" lon="3.30326">
        <ele>376.8</ele>
        <time>2021-08-04T16:09:52Z</time>
      </trkpt>
      <trkpt lat="45.52952" lon="3.30319">
        <ele>376.4</ele>
        <time>2021-08-04T16:09:54Z</time>
      </trkpt>
      <trkpt lat="45.52947" lon="3.30313">
        <ele>376.1</ele>
        <time>2021-08-04T16:09:56Z</time>
      </trkpt>
      <trkpt lat="45.5294" lon="3.3031">
        <ele>375.9</ele>
        <time>2021-08-04T16:09:58Z</time>
      </trkpt>
      <trkpt lat="45.52936" lon="3.30306">
        <ele>375.7</ele>
        <time>2021-08-04T16:10:00Z</time>
      </trkpt>
      <trkpt lat="45.52932" lon="3.30301">
        <ele>375.5</ele>
        <time>2021-08-04T16:10:02Z</time>
      </trkpt>
      <trkpt lat="45.52928" lon="3.30298">
        <ele>375.4</ele>
        <time>2021-08-04T16:10:04Z</time>
      </trkpt>
      <trkpt lat="45.52923" lon="3.30294">
        <ele>375.2</ele>
        <time>2021-08-04T16:10:06Z</time>
      </trkpt>
      <trkpt lat="45.52919" lon="3.3029">
        <ele>375</ele>
        <time>2021-08-04T16:10:08Z</time>
      </trkpt>
      <trkpt lat="45.52914" lon="3.30285">
        <ele>374.8</ele>
        <time>2021-08-04T16:10:10Z</time>
      </trkpt>
      <trkpt lat="45.52911" lon="3.30278">
        <ele>374.6</ele>
        <time>2021-08-04T16:10:12Z</time>
      </trkpt>
      <trkpt lat="45.52908" lon="3.3027">
        <ele>374.3</ele>
        <time>2021-08-04T16:10:14Z</time>
      </trkpt>
      <trkpt lat="45.52906" lon="3.30262">
        <ele>374.1</ele>
        <time>2021-08-04T16:10:16Z</time>
      </trkpt>
      <trkpt lat="45.52906" lon="3.30253">
        <ele>373.9</ele>
        <time>2021-08-04T16:10:18Z</time>
      </trkpt>
      <trkpt lat="45.52907" lon="3.30243">
        <ele>373.8</ele>
        <time>2021-08-04T16:10:20Z</time>
      </trkpt>
      <trkpt lat="45.52909" lon="3.30234">
        <ele>373.8</ele>
        <time>2021-08-04T16:10:22Z</time>
      </trkpt>
      <trkpt lat="45.5291" lon="3.30227">
        <ele>373.7</ele>
        <time>2021-08-04T16:10:24Z</time>
      </trkpt>
      <trkpt lat="45.52913" lon="3.30222">
        <ele>373.7</ele>
        <time>2021-08-04T16:10:26Z</time>
      </trkpt>
      <trkpt lat="45.52914" lon="3.30216">
        <ele>373.6</ele>
        <time>2021-08-04T16:10:28Z</time>
      </trkpt>
      <trkpt lat="45.52915" lon="3.30211">
        <ele>373.5</ele>
        <time>2021-08-04T16:10:30Z</time>
      </trkpt>
      <trkpt lat="45.52916" lon="3.30206">
        <ele>373.5</ele>
        <time>2021-08-04T16:10:32Z</time>
      </trkpt>
      <trkpt lat="45.52917" lon="3.30201">
        <ele>373.4</ele>
        <time>2021-08-04T16:10:34Z</time>
      </trkpt>
      <trkpt lat="45.52917" lon="3.30195">
        <ele>373.3</ele>
        <time>2021-08-04T16:10:36Z</time>
      </trkpt>
      <trkpt lat="45.52915" lon="3.30191">
        <ele>373.3</ele>
        <time>2021-08-04T16:10:38Z</time>
      </trkpt>
      <trkpt lat="45.52915" lon="3.30185">
        <ele>373.3</ele>
        <time>2021-08-04T16:10:40Z</time>
      </trkpt>
      <trkpt lat="45.52913" lon="3.3018">
        <ele>373.2</ele>
        <time>2021-08-04T16:10:42Z</time>
      </trkpt>
      <trkpt lat="45.52911" lon="3.30175">
        <ele>373.2</ele>
        <time>2021-08-04T16:10:44Z</time>
      </trkpt>
      <trkpt lat="45.5291" lon="3.30171">
        <ele>373.2</ele>
        <time>2021-08-04T16:10:46Z</time>
      </trkpt>
      <trkpt lat="45.52907" lon="3.30166">
        <ele>373.2</ele>
        <time>2021-08-04T16:10:48Z</time>
      </trkpt>
      <trkpt lat="45.52905" lon="3.30161">
        <ele>373.4</ele>
        <time>2021-08-04T16:10:50Z</time>
      </trkpt>
      <trkpt lat="45.52904" lon="3.30157">
        <ele>373.5</ele>
        <time>2021-08-04T16:10:52Z</time>
      </trkpt>
      <trkpt lat="45.52902" lon="3.30153">
        <ele>373.6</ele>
        <time>2021-08-04T16:10:54Z</time>
      </trkpt>
      <trkpt lat="45.52901" lon="3.30148">
        <ele>373.7</ele>
        <time>2021-08-04T16:10:56Z</time>
      </trkpt>
      <trkpt lat="45.529" lon="3.30145">
        <ele>373.8</ele>
        <time>2021-08-04T16:10:58Z</time>
      </trkpt>
      <trkpt lat="45.52899" lon="3.3014">
        <ele>373.9</ele>
        <time>2021-08-04T16:11:00Z</time>
      </trkpt>
      <trkpt lat="45.52899" lon="3.30136">
        <ele>374</ele>
        <time>2021-08-04T16:11:02Z</time>
      </trkpt>
      <trkpt lat="45.52898" lon="3.30131">
        <ele>374.2</ele>
        <time>2021-08-04T16:11:04Z</time>
      </trkpt>
      <trkpt lat="45.52896" lon="3.30125">
        <ele>374.4</ele>
        <time>2021-08-04T16:11:06Z</time>
      </trkpt>
      <trkpt lat="45.52896" lon="3.30119">
        <ele>374.5</ele>
        <time>2021-08-04T16:11:08Z</time>
      </trkpt>
      <trkpt lat="45.52897" lon="3.30113">
        <ele>374.6</ele>
        <time>2021-08-04T16:11:10Z</time>
      </trkpt>
      <trkpt lat="45.52898" lon="3.30107">
        <ele>374.7</ele>
        <time>2021-08-04T16:11:12Z</time>
      </trkpt>
      <trkpt lat="45.52898" lon="3.301">
        <ele>374.8</ele>
        <time>2021-08-04T16:11:14Z</time>
      </trkpt>
      <trkpt lat="45.52898" lon="3.30094">
        <ele>374.9</ele>
        <time>2021-08-04T16:11:16Z</time>
      </trkpt>
      <trkpt lat="45.52897" lon="3.30088">
        <ele>375.1</ele>
        <time>2021-08-04T16:11:18Z</time>
      </trkpt>
      <trkpt lat="45.52897" lon="3.30082">
        <ele>375.2</ele>
        <time>2021-08-04T16:11:20Z</time>
      </trkpt>
      <trkpt lat="45.52896" lon="3.30078">
        <ele>375.4</ele>
        <time>2021-08-04T16:11:22Z</time>
      </trkpt>
      <trkpt lat="45.52897" lon="3.30073">
        <ele>375.5</ele>
        <time>2021-08-04T16:11:24Z</time>
      </trkpt>
      <trkpt lat="45.52898" lon="3.30069">
        <ele>375.6</ele>
        <time>2021-08-04T16:11:26Z</time>
      </trkpt>
      <trkpt lat="45.52898" lon="3.30069">
        <ele>375.6</ele>
        <time>2021-08-04T16:11:28Z</time>
      </trkpt>
      <trkpt lat="45.52898" lon="3.30068">
        <ele>375.6</ele>
        <time>2021-08-04T16:11:30Z</time>
      </trkpt>
      <trkpt lat="45.52898" lon="3.30068">
        <ele>375.6</ele>
        <time>2021-08-04T16:11:32Z</time>
      </trkpt>
      <trkpt lat="45.52898" lon="3.30068">
        <ele>375.6</ele>
        <time>2021-08-04T16:11:34Z</time>
      </trkpt>
      <trkpt lat="45.52898" lon="3.30068">
        <ele>375.6</ele>
        <time>2021-08-04T16:11:36Z</time>
      </trkpt>
      <trkpt lat="45.52892" lon="3.30064">
        <ele>376.1</ele>
        <time>2021-08-04T16:11:48Z</time>
      </trkpt>
      <trkpt lat="45.52892" lon="3.3007">
        <ele>375.9</ele>
        <time>2021-08-04T16:11:50Z</time>
      </trkpt>
      <trkpt lat="45.52894" lon="3.30075">
        <ele>375.6</ele>
        <time>2021-08-04T16:11:52Z</time>
      </trkpt>
      <trkpt lat="45.52896" lon="3.30081">
        <ele>375.3</ele>
        <time>2021-08-04T16:11:54Z</time>
      </trkpt>
      <trkpt lat="45.52898" lon="3.30088">
        <ele>375</ele>
        <time>2021-08-04T16:11:56Z</time>
      </trkpt>
      <trkpt lat="45.52899" lon="3.30094">
        <ele>374.9</ele>
        <time>2021-08-04T16:11:58Z</time>
      </trkpt>
      <trkpt lat="45.52899" lon="3.30102">
        <ele>374.7</ele>
        <time>2021-08-04T16:12:00Z</time>
      </trkpt>
      <trkpt lat="45.52898" lon="3.3011">
        <ele>374.6</ele>
        <time>2021-08-04T16:12:02Z</time>
      </trkpt>
      <trkpt lat="45.52897" lon="3.30118">
        <ele>374.5</ele>
        <time>2021-08-04T16:12:04Z</time>
      </trkpt>
      <trkpt lat="45.52897" lon="3.30128">
        <ele>374.3</ele>
        <time>2021-08-04T16:12:06Z</time>
      </trkpt>
      <trkpt lat="45.52899" lon="3.30136">
        <ele>374</ele>
        <time>2021-08-04T16:12:08Z</time>
      </trkpt>
      <trkpt lat="45.52901" lon="3.30145">
        <ele>373.8</ele>
        <time>2021-08-04T16:12:10Z</time>
      </trkpt>
      <trkpt lat="45.52903" lon="3.30153">
        <ele>373.6</ele>
        <time>2021-08-04T16:12:12Z</time>
      </trkpt>
      <trkpt lat="45.52908" lon="3.30161">
        <ele>373.3</ele>
        <time>2021-08-04T16:12:14Z</time>
      </trkpt>
      <trkpt lat="45.52911" lon="3.30169">
        <ele>373.2</ele>
        <time>2021-08-04T16:12:16Z</time>
      </trkpt>
      <trkpt lat="45.52914" lon="3.30178">
        <ele>373.2</ele>
        <time>2021-08-04T16:12:18Z</time>
      </trkpt>
      <trkpt lat="45.52917" lon="3.30186">
        <ele>373.2</ele>
        <time>2021-08-04T16:12:20Z</time>
      </trkpt>
      <trkpt lat="45.52918" lon="3.30194">
        <ele>373.3</ele>
        <time>2021-08-04T16:12:22Z</time>
      </trkpt>
      <trkpt lat="45.52917" lon="3.30202">
        <ele>373.4</ele>
        <time>2021-08-04T16:12:24Z</time>
      </trkpt>
      <trkpt lat="45.52917" lon="3.30209">
        <ele>373.5</ele>
        <time>2021-08-04T16:12:26Z</time>
      </trkpt>
      <trkpt lat="45.52915" lon="3.30217">
        <ele>373.6</ele>
        <time>2021-08-04T16:12:28Z</time>
      </trkpt>
      <trkpt lat="45.52913" lon="3.30225">
        <ele>373.7</ele>
        <time>2021-08-04T16:12:30Z</time>
      </trkpt>
      <trkpt lat="45.52911" lon="3.30233">
        <ele>373.8</ele>
        <time>2021-08-04T16:12:32Z</time>
      </trkpt>
      <trkpt lat="45.52909" lon="3.30241">
        <ele>373.8</ele>
        <time>2021-08-04T16:12:34Z</time>
      </trkpt>
      <trkpt lat="45.52907" lon="3.30247">
        <ele>373.9</ele>
        <time>2021-08-04T16:12:36Z</time>
      </trkpt>
      <trkpt lat="45.52908" lon="3.30255">
        <ele>374</ele>
        <time>2021-08-04T16:12:38Z</time>
      </trkpt>
      <trkpt lat="45.52908" lon="3.30263">
        <ele>374.2</ele>
        <time>2021-08-04T16:12:40Z</time>
      </trkpt>
      <trkpt lat="45.5291" lon="3.3027">
        <ele>374.4</ele>
        <time>2021-08-04T16:12:42Z</time>
      </trkpt>
      <trkpt lat="45.52913" lon="3.30278">
        <ele>374.6</ele>
        <time>2021-08-04T16:12:44Z</time>
      </trkpt>
      <trkpt lat="45.52916" lon="3.30285">
        <ele>374.8</ele>
        <time>2021-08-04T16:12:46Z</time>
      </trkpt>
      <trkpt lat="45.52922" lon="3.3029">
        <ele>375.1</ele>
        <time>2021-08-04T16:12:48Z</time>
      </trkpt>
      <trkpt lat="45.52927" lon="3.30294">
        <ele>375.3</ele>
        <time>2021-08-04T16:12:50Z</time>
      </trkpt>
      <trkpt lat="45.52933" lon="3.30298">
        <ele>375.5</ele>
        <time>2021-08-04T16:12:52Z</time>
      </trkpt>
      <trkpt lat="45.52938" lon="3.30302">
        <ele>375.7</ele>
        <time>2021-08-04T16:12:54Z</time>
      </trkpt>
      <trkpt lat="45.52944" lon="3.30307">
        <ele>375.9</ele>
        <time>2021-08-04T16:12:56Z</time>
      </trkpt>
      <trkpt lat="45.52949" lon="3.30312">
        <ele>376.2</ele>
        <time>2021-08-04T16:12:58Z</time>
      </trkpt>
      <trkpt lat="45.52955" lon="3.30318">
        <ele>376.5</ele>
        <time>2021-08-04T16:13:00Z</time>
      </trkpt>
      <trkpt lat="45.52959" lon="3.30326">
        <ele>376.8</ele>
        <time>2021-08-04T16:13:02Z</time>
      </trkpt>
      <trkpt lat="45.52962" lon="3.30335">
        <ele>377.1</ele>
        <time>2021-08-04T16:13:04Z</time>
      </trkpt>
      <trkpt lat="45.52962" lon="3.30344">
        <ele>377.2</ele>
        <time>2021-08-04T16:13:06Z</time>
      </trkpt>
      <trkpt lat="45.52958" lon="3.30352">
        <ele>377.1</ele>
        <time>2021-08-04T16:13:08Z</time>
      </trkpt>
      <trkpt lat="45.52954" lon="3.30358">
        <ele>377.1</ele>
        <time>2021-08-04T16:13:10Z</time>
      </trkpt>
      <trkpt lat="45.52949" lon="3.30363">
        <ele>377</ele>
        <time>2021-08-04T16:13:12Z</time>
      </trkpt>
      <trkpt lat="45.52944" lon="3.30367">
        <ele>376.9</ele>
        <time>2021-08-04T16:13:14Z</time>
      </trkpt>
      <trkpt lat="45.5294" lon="3.30375">
        <ele>376.9</ele>
        <time>2021-08-04T16:13:16Z</time>
      </trkpt>
      <trkpt lat="45.52934" lon="3.30379">
        <ele>376.9</ele>
        <time>2021-08-04T16:13:18Z</time>
      </trkpt>
      <trkpt lat="45.5293" lon="3.30387">
        <ele>376.9</ele>
        <time>2021-08-04T16:13:20Z</time>
      </trkpt>
      <trkpt lat="45.52927" lon="3.30393">
        <ele>376.9</ele>
        <time>2021-08-04T16:13:22Z</time>
      </trkpt>
      <trkpt lat="45.52921" lon="3.30401">
        <ele>376.9</ele>
        <time>2021-08-04T16:13:24Z</time>
      </trkpt>
      <trkpt lat="45.52914" lon="3.30404">
        <ele>376.8</ele>
        <time>2021-08-04T16:13:26Z</time>
      </trkpt>
      <trkpt lat="45.52908" lon="3.30407">
        <ele>376.7</ele>
        <time>2021-08-04T16:13:28Z</time>
      </trkpt>
      <trkpt lat="45.52901" lon="3.3041">
        <ele>376.7</ele>
        <time>2021-08-04T16:13:30Z</time>
      </trkpt>
      <trkpt lat="45.52895" lon="3.3041">
        <ele>376.6</ele>
        <time>2021-08-04T16:13:32Z</time>
      </trkpt>
      <trkpt lat="45.52887" lon="3.30411">
        <ele>376.5</ele>
        <time>2021-08-04T16:13:34Z</time>
      </trkpt>
      <trkpt lat="45.52881" lon="3.30413">
        <ele>376.5</ele>
        <time>2021-08-04T16:13:36Z</time>
      </trkpt>
      <trkpt lat="45.52874" lon="3.30413">
        <ele>376.4</ele>
        <time>2021-08-04T16:13:38Z</time>
      </trkpt>
      <trkpt lat="45.52866" lon="3.30417">
        <ele>376.4</ele>
        <time>2021-08-04T16:13:40Z</time>
      </trkpt>
      <trkpt lat="45.52862" lon="3.30422">
        <ele>376.4</ele>
        <time>2021-08-04T16:13:42Z</time>
      </trkpt>
      <trkpt lat="45.52856" lon="3.30426">
        <ele>376.4</ele>
        <time>2021-08-04T16:13:44Z</time>
      </trkpt>
      <trkpt lat="45.5285" lon="3.30434">
        <ele>376.5</ele>
        <time>2021-08-04T16:13:46Z</time>
      </trkpt>
      <trkpt lat="45.52847" lon="3.30442">
        <ele>376.7</ele>
        <time>2021-08-04T16:13:48Z</time>
      </trkpt>
      <trkpt lat="45.52846" lon="3.30451">
        <ele>376.9</ele>
        <time>2021-08-04T16:13:50Z</time>
      </trkpt>
      <trkpt lat="45.52845" lon="3.30462">
        <ele>377.1</ele>
        <time>2021-08-04T16:13:52Z</time>
      </trkpt>
      <trkpt lat="45.52846" lon="3.30471">
        <ele>377.3</ele>
        <time>2021-08-04T16:13:54Z</time>
      </trkpt>
      <trkpt lat="45.52846" lon="3.30481">
        <ele>377.5</ele>
        <time>2021-08-04T16:13:56Z</time>
      </trkpt>
      <trkpt lat="45.52843" lon="3.30491">
        <ele>377.7</ele>
        <time>2021-08-04T16:13:58Z</time>
      </trkpt>
      <trkpt lat="45.52843" lon="3.305">
        <ele>377.9</ele>
        <time>2021-08-04T16:14:00Z</time>
      </trkpt>
      <trkpt lat="45.52842" lon="3.30508">
        <ele>377.7</ele>
        <time>2021-08-04T16:14:02Z</time>
      </trkpt>
      <trkpt lat="45.52838" lon="3.30517">
        <ele>377.6</ele>
        <time>2021-08-04T16:14:04Z</time>
      </trkpt>
      <trkpt lat="45.52833" lon="3.30523">
        <ele>377.4</ele>
        <time>2021-08-04T16:14:06Z</time>
      </trkpt>
      <trkpt lat="45.52827" lon="3.3053">
        <ele>377.3</ele>
        <time>2021-08-04T16:14:08Z</time>
      </trkpt>
      <trkpt lat="45.5282" lon="3.30534">
        <ele>377.4</ele>
        <time>2021-08-04T16:14:10Z</time>
      </trkpt>
      <trkpt lat="45.52814" lon="3.30534">
        <ele>377.4</ele>
        <time>2021-08-04T16:14:12Z</time>
      </trkpt>
      <trkpt lat="45.52807" lon="3.30537">
        <ele>377.5</ele>
        <time>2021-08-04T16:14:14Z</time>
      </trkpt>
      <trkpt lat="45.52801" lon="3.30536">
        <ele>377.6</ele>
        <time>2021-08-04T16:14:16Z</time>
      </trkpt>
      <trkpt lat="45.52794" lon="3.30536">
        <ele>377.7</ele>
        <time>2021-08-04T16:14:18Z</time>
      </trkpt>
      <trkpt lat="45.52787" lon="3.30534">
        <ele>377.8</ele>
        <time>2021-08-04T16:14:20Z</time>
      </trkpt>
      <trkpt lat="45.52781" lon="3.30531">
        <ele>377.8</ele>
        <time>2021-08-04T16:14:22Z</time>
      </trkpt>
      <trkpt lat="45.52774" lon="3.30528">
        <ele>377.8</ele>
        <time>2021-08-04T16:14:24Z</time>
      </trkpt>
      <trkpt lat="45.52767" lon="3.30525">
        <ele>377.8</ele>
        <time>2021-08-04T16:14:26Z</time>
      </trkpt>
      <trkpt lat="45.52759" lon="3.30524">
        <ele>377.8</ele>
        <time>2021-08-04T16:14:28Z</time>
      </trkpt>
      <trkpt lat="45.52751" lon="3.30523">
        <ele>377.8</ele>
        <time>2021-08-04T16:14:30Z</time>
      </trkpt>
      <trkpt lat="45.52744" lon="3.30522">
        <ele>378.1</ele>
        <time>2021-08-04T16:14:32Z</time>
      </trkpt>
      <trkpt lat="45.52738" lon="3.30522">
        <ele>378.5</ele>
        <time>2021-08-04T16:14:34Z</time>
      </trkpt>
      <trkpt lat="45.52732" lon="3.30521">
        <ele>378.9</ele>
        <time>2021-08-04T16:14:36Z</time>
      </trkpt>
      <trkpt lat="45.52726" lon="3.30524">
        <ele>379.3</ele>
        <time>2021-08-04T16:14:38Z</time>
      </trkpt>
      <trkpt lat="45.52721" lon="3.3052">
        <ele>379.4</ele>
        <time>2021-08-04T16:14:40Z</time>
      </trkpt>
      <trkpt lat="45.52715" lon="3.3052">
        <ele>379.8</ele>
        <time>2021-08-04T16:14:42Z</time>
      </trkpt>
      <trkpt lat="45.52709" lon="3.3052">
        <ele>380.2</ele>
        <time>2021-08-04T16:14:44Z</time>
      </trkpt>
      <trkpt lat="45.52703" lon="3.30521">
        <ele>380.6</ele>
        <time>2021-08-04T16:14:46Z</time>
      </trkpt>
      <trkpt lat="45.52699" lon="3.30521">
        <ele>380.8</ele>
        <time>2021-08-04T16:14:48Z</time>
      </trkpt>
      <trkpt lat="45.52694" lon="3.30521">
        <ele>381.1</ele>
        <time>2021-08-04T16:14:50Z</time>
      </trkpt>
      <trkpt lat="45.5269" lon="3.30521">
        <ele>381.3</ele>
        <time>2021-08-04T16:14:52Z</time>
      </trkpt>
      <trkpt lat="45.52686" lon="3.30521">
        <ele>381.6</ele>
        <time>2021-08-04T16:14:54Z</time>
      </trkpt>
      <trkpt lat="45.52682" lon="3.30523">
        <ele>381.9</ele>
        <time>2021-08-04T16:14:56Z</time>
      </trkpt>
      <trkpt lat="45.52675" lon="3.30523">
        <ele>382.3</ele>
        <time>2021-08-04T16:14:58Z</time>
      </trkpt>
      <trkpt lat="45.52667" lon="3.30526">
        <ele>382.9</ele>
        <time>2021-08-04T16:15:00Z</time>
      </trkpt>
      <trkpt lat="45.52661" lon="3.30529">
        <ele>382.8</ele>
        <time>2021-08-04T16:15:02Z</time>
      </trkpt>
      <trkpt lat="45.52653" lon="3.30534">
        <ele>382.8</ele>
        <time>2021-08-04T16:15:04Z</time>
      </trkpt>
      <trkpt lat="45.52648" lon="3.30539">
        <ele>382.7</ele>
        <time>2021-08-04T16:15:06Z</time>
      </trkpt>
      <trkpt lat="45.52641" lon="3.30545">
        <ele>382.7</ele>
        <time>2021-08-04T16:15:08Z</time>
      </trkpt>
      <trkpt lat="45.52634" lon="3.30552">
        <ele>382.6</ele>
        <time>2021-08-04T16:15:10Z</time>
      </trkpt>
      <trkpt lat="45.5263" lon="3.30558">
        <ele>382.6</ele>
        <time>2021-08-04T16:15:12Z</time>
      </trkpt>
      <trkpt lat="45.52622" lon="3.30565">
        <ele>382.4</ele>
        <time>2021-08-04T16:15:14Z</time>
      </trkpt>
      <trkpt lat="45.52617" lon="3.30573">
        <ele>382.4</ele>
        <time>2021-08-04T16:15:16Z</time>
      </trkpt>
      <trkpt lat="45.52612" lon="3.30581">
        <ele>382.3</ele>
        <time>2021-08-04T16:15:18Z</time>
      </trkpt>
      <trkpt lat="45.52608" lon="3.30589">
        <ele>382.2</ele>
        <time>2021-08-04T16:15:20Z</time>
      </trkpt>
      <trkpt lat="45.52602" lon="3.30593">
        <ele>382</ele>
        <time>2021-08-04T16:15:22Z</time>
      </trkpt>
      <trkpt lat="45.52595" lon="3.30596">
        <ele>381.7</ele>
        <time>2021-08-04T16:15:24Z</time>
      </trkpt>
      <trkpt lat="45.52587" lon="3.30598">
        <ele>381.3</ele>
        <time>2021-08-04T16:15:26Z</time>
      </trkpt>
      <trkpt lat="45.52579" lon="3.30601">
        <ele>381.1</ele>
        <time>2021-08-04T16:15:28Z</time>
      </trkpt>
      <trkpt lat="45.52573" lon="3.30603">
        <ele>380.9</ele>
        <time>2021-08-04T16:15:30Z</time>
      </trkpt>
      <trkpt lat="45.52568" lon="3.30606">
        <ele>380.7</ele>
        <time>2021-08-04T16:15:32Z</time>
      </trkpt>
      <trkpt lat="45.52562" lon="3.30606">
        <ele>380.5</ele>
        <time>2021-08-04T16:15:34Z</time>
      </trkpt>
      <trkpt lat="45.52556" lon="3.30604">
        <ele>380.3</ele>
        <time>2021-08-04T16:15:36Z</time>
      </trkpt>
      <trkpt lat="45.5255" lon="3.30601">
        <ele>380</ele>
        <time>2021-08-04T16:15:38Z</time>
      </trkpt>
      <trkpt lat="45.52543" lon="3.30601">
        <ele>379.8</ele>
        <time>2021-08-04T16:15:40Z</time>
      </trkpt>
      <trkpt lat="45.52538" lon="3.30603">
        <ele>379.6</ele>
        <time>2021-08-04T16:15:42Z</time>
      </trkpt>
      <trkpt lat="45.52534" lon="3.30605">
        <ele>379.5</ele>
        <time>2021-08-04T16:15:44Z</time>
      </trkpt>
      <trkpt lat="45.52531" lon="3.30604">
        <ele>379.4</ele>
        <time>2021-08-04T16:15:46Z</time>
      </trkpt>
      <trkpt lat="45.52526" lon="3.30601">
        <ele>379.1</ele>
        <time>2021-08-04T16:15:48Z</time>
      </trkpt>
      <trkpt lat="45.52521" lon="3.30602">
        <ele>379</ele>
        <time>2021-08-04T16:15:50Z</time>
      </trkpt>
      <trkpt lat="45.52516" lon="3.30602">
        <ele>378.8</ele>
        <time>2021-08-04T16:15:52Z</time>
      </trkpt>
      <trkpt lat="45.52513" lon="3.30603">
        <ele>378.7</ele>
        <time>2021-08-04T16:15:54Z</time>
      </trkpt>
      <trkpt lat="45.52509" lon="3.30603">
        <ele>378.6</ele>
        <time>2021-08-04T16:15:56Z</time>
      </trkpt>
      <trkpt lat="45.52505" lon="3.30605">
        <ele>378.4</ele>
        <time>2021-08-04T16:15:58Z</time>
      </trkpt>
      <trkpt lat="45.52503" lon="3.30609">
        <ele>378.4</ele>
        <time>2021-08-04T16:16:00Z</time>
      </trkpt>
      <trkpt lat="45.52503" lon="3.30617">
        <ele>378.5</ele>
        <time>2021-08-04T16:16:02Z</time>
      </trkpt>
      <trkpt lat="45.52504" lon="3.30624">
        <ele>378.6</ele>
        <time>2021-08-04T16:16:04Z</time>
      </trkpt>
      <trkpt lat="45.52506" lon="3.3063">
        <ele>378.8</ele>
        <time>2021-08-04T16:16:06Z</time>
      </trkpt>
      <trkpt lat="45.52507" lon="3.30636">
        <ele>378.9</ele>
        <time>2021-08-04T16:16:08Z</time>
      </trkpt>
      <trkpt lat="45.52509" lon="3.30641">
        <ele>379</ele>
        <time>2021-08-04T16:16:10Z</time>
      </trkpt>
      <trkpt lat="45.52511" lon="3.30648">
        <ele>379.2</ele>
        <time>2021-08-04T16:16:12Z</time>
      </trkpt>
      <trkpt lat="45.52514" lon="3.30654">
        <ele>379.3</ele>
        <time>2021-08-04T16:16:14Z</time>
      </trkpt>
      <trkpt lat="45.52515" lon="3.30659">
        <ele>379.5</ele>
        <time>2021-08-04T16:16:16Z</time>
      </trkpt>
      <trkpt lat="45.52516" lon="3.30665">
        <ele>379.6</ele>
        <time>2021-08-04T16:16:18Z</time>
      </trkpt>
      <trkpt lat="45.52519" lon="3.30672">
        <ele>379.9</ele>
        <time>2021-08-04T16:16:20Z</time>
      </trkpt>
      <trkpt lat="45.52519" lon="3.30678">
        <ele>380.2</ele>
        <time>2021-08-04T16:16:22Z</time>
      </trkpt>
      <trkpt lat="45.52517" lon="3.30686">
        <ele>380.5</ele>
        <time>2021-08-04T16:16:24Z</time>
      </trkpt>
      <trkpt lat="45.52514" lon="3.30691">
        <ele>380.7</ele>
        <time>2021-08-04T16:16:26Z</time>
      </trkpt>
      <trkpt lat="45.5251" lon="3.30697">
        <ele>380.9</ele>
        <time>2021-08-04T16:16:28Z</time>
      </trkpt>
      <trkpt lat="45.52506" lon="3.30703">
        <ele>381.2</ele>
        <time>2021-08-04T16:16:30Z</time>
      </trkpt>
      <trkpt lat="45.52502" lon="3.30709">
        <ele>381.6</ele>
        <time>2021-08-04T16:16:32Z</time>
      </trkpt>
      <trkpt lat="45.52499" lon="3.30716">
        <ele>382</ele>
        <time>2021-08-04T16:16:34Z</time>
      </trkpt>
      <trkpt lat="45.52495" lon="3.30722">
        <ele>382.2</ele>
        <time>2021-08-04T16:16:36Z</time>
      </trkpt>
      <trkpt lat="45.52492" lon="3.30729">
        <ele>382.5</ele>
        <time>2021-08-04T16:16:38Z</time>
      </trkpt>
      <trkpt lat="45.52489" lon="3.30735">
        <ele>382.7</ele>
        <time>2021-08-04T16:16:40Z</time>
      </trkpt>
      <trkpt lat="45.52485" lon="3.30741">
        <ele>383</ele>
        <time>2021-08-04T16:16:42Z</time>
      </trkpt>
      <trkpt lat="45.52482" lon="3.30746">
        <ele>383.1</ele>
        <time>2021-08-04T16:16:44Z</time>
      </trkpt>
      <trkpt lat="45.52479" lon="3.30751">
        <ele>383.3</ele>
        <time>2021-08-04T16:16:46Z</time>
      </trkpt>
      <trkpt lat="45.52476" lon="3.30757">
        <ele>383.1</ele>
        <time>2021-08-04T16:16:48Z</time>
      </trkpt>
      <trkpt lat="45.52473" lon="3.30763">
        <ele>383</ele>
        <time>2021-08-04T16:16:50Z</time>
      </trkpt>
      <trkpt lat="45.52471" lon="3.30768">
        <ele>383</ele>
        <time>2021-08-04T16:16:52Z</time>
      </trkpt>
      <trkpt lat="45.5247" lon="3.30771">
        <ele>382.9</ele>
        <time>2021-08-04T16:16:54Z</time>
      </trkpt>
      <trkpt lat="45.52469" lon="3.30777">
        <ele>382.9</ele>
        <time>2021-08-04T16:16:56Z</time>
      </trkpt>
      <trkpt lat="45.52466" lon="3.30782">
        <ele>382.8</ele>
        <time>2021-08-04T16:16:58Z</time>
      </trkpt>
      <trkpt lat="45.52463" lon="3.30788">
        <ele>382.7</ele>
        <time>2021-08-04T16:17:00Z</time>
      </trkpt>
      <trkpt lat="45.5246" lon="3.30795">
        <ele>382.6</ele>
        <time>2021-08-04T16:17:02Z</time>
      </trkpt>
      <trkpt lat="45.52457" lon="3.308">
        <ele>382.5</ele>
        <time>2021-08-04T16:17:04Z</time>
      </trkpt>
      <trkpt lat="45.52455" lon="3.30807">
        <ele>382.4</ele>
        <time>2021-08-04T16:17:06Z</time>
      </trkpt>
      <trkpt lat="45.52453" lon="3.30814">
        <ele>382.3</ele>
        <time>2021-08-04T16:17:08Z</time>
      </trkpt>
      <trkpt lat="45.52451" lon="3.3082">
        <ele>382.2</ele>
        <time>2021-08-04T16:17:10Z</time>
      </trkpt>
      <trkpt lat="45.52449" lon="3.30824">
        <ele>382.2</ele>
        <time>2021-08-04T16:17:12Z</time>
      </trkpt>
      <trkpt lat="45.52446" lon="3.3083">
        <ele>382.1</ele>
        <time>2021-08-04T16:17:14Z</time>
      </trkpt>
      <trkpt lat="45.52443" lon="3.30835">
        <ele>381.9</ele>
        <time>2021-08-04T16:17:16Z</time>
      </trkpt>
      <trkpt lat="45.5244" lon="3.30841">
        <ele>381.7</ele>
        <time>2021-08-04T16:17:18Z</time>
      </trkpt>
      <trkpt lat="45.52436" lon="3.30848">
        <ele>381.5</ele>
        <time>2021-08-04T16:17:20Z</time>
      </trkpt>
      <trkpt lat="45.52432" lon="3.30853">
        <ele>381.3</ele>
        <time>2021-08-04T16:17:22Z</time>
      </trkpt>
      <trkpt lat="45.52428" lon="3.30858">
        <ele>381.1</ele>
        <time>2021-08-04T16:17:24Z</time>
      </trkpt>
      <trkpt lat="45.52424" lon="3.30862">
        <ele>380.9</ele>
        <time>2021-08-04T16:17:26Z</time>
      </trkpt>
      <trkpt lat="45.52422" lon="3.30866">
        <ele>380.8</ele>
        <time>2021-08-04T16:17:28Z</time>
      </trkpt>
      <trkpt lat="45.52417" lon="3.30871">
        <ele>380.6</ele>
        <time>2021-08-04T16:17:30Z</time>
      </trkpt>
      <trkpt lat="45.52414" lon="3.30876">
        <ele>380.4</ele>
        <time>2021-08-04T16:17:32Z</time>
      </trkpt>
      <trkpt lat="45.5241" lon="3.30881">
        <ele>380.2</ele>
        <time>2021-08-04T16:17:34Z</time>
      </trkpt>
      <trkpt lat="45.52407" lon="3.30887">
        <ele>380</ele>
        <time>2021-08-04T16:17:36Z</time>
      </trkpt>
      <trkpt lat="45.52404" lon="3.30892">
        <ele>379.9</ele>
        <time>2021-08-04T16:17:38Z</time>
      </trkpt>
      <trkpt lat="45.52402" lon="3.30897">
        <ele>379.8</ele>
        <time>2021-08-04T16:17:40Z</time>
      </trkpt>
      <trkpt lat="45.52398" lon="3.30903">
        <ele>379.7</ele>
        <time>2021-08-04T16:17:42Z</time>
      </trkpt>
      <trkpt lat="45.52395" lon="3.30908">
        <ele>379.5</ele>
        <time>2021-08-04T16:17:44Z</time>
      </trkpt>
      <trkpt lat="45.52393" lon="3.30912">
        <ele>379.4</ele>
        <time>2021-08-04T16:17:46Z</time>
      </trkpt>
      <trkpt lat="45.5239" lon="3.30917">
        <ele>379.4</ele>
        <time>2021-08-04T16:17:48Z</time>
      </trkpt>
      <trkpt lat="45.52387" lon="3.30922">
        <ele>379.4</ele>
        <time>2021-08-04T16:17:50Z</time>
      </trkpt>
      <trkpt lat="45.52385" lon="3.30927">
        <ele>379.5</ele>
        <time>2021-08-04T16:17:52Z</time>
      </trkpt>
      <trkpt lat="45.52382" lon="3.30931">
        <ele>379.5</ele>
        <time>2021-08-04T16:17:54Z</time>
      </trkpt>
      <trkpt lat="45.52379" lon="3.30936">
        <ele>379.6</ele>
        <time>2021-08-04T16:17:56Z</time>
      </trkpt>
      <trkpt lat="45.52377" lon="3.3094">
        <ele>379.6</ele>
        <time>2021-08-04T16:17:58Z</time>
      </trkpt>
      <trkpt lat="45.52375" lon="3.30946">
        <ele>379.7</ele>
        <time>2021-08-04T16:18:00Z</time>
      </trkpt>
      <trkpt lat="45.52372" lon="3.3095">
        <ele>379.7</ele>
        <time>2021-08-04T16:18:02Z</time>
      </trkpt>
      <trkpt lat="45.52368" lon="3.30955">
        <ele>379.8</ele>
        <time>2021-08-04T16:18:04Z</time>
      </trkpt>
      <trkpt lat="45.52366" lon="3.3096">
        <ele>379.8</ele>
        <time>2021-08-04T16:18:06Z</time>
      </trkpt>
      <trkpt lat="45.52363" lon="3.30965">
        <ele>379.9</ele>
        <time>2021-08-04T16:18:08Z</time>
      </trkpt>
      <trkpt lat="45.5236" lon="3.3097">
        <ele>379.9</ele>
        <time>2021-08-04T16:18:10Z</time>
      </trkpt>
      <trkpt lat="45.52357" lon="3.30975">
        <ele>380</ele>
        <time>2021-08-04T16:18:12Z</time>
      </trkpt>
      <trkpt lat="45.52354" lon="3.3098">
        <ele>380</ele>
        <time>2021-08-04T16:18:14Z</time>
      </trkpt>
      <trkpt lat="45.52351" lon="3.30984">
        <ele>380</ele>
        <time>2021-08-04T16:18:16Z</time>
      </trkpt>
      <trkpt lat="45.52348" lon="3.30989">
        <ele>380.1</ele>
        <time>2021-08-04T16:18:18Z</time>
      </trkpt>
      <trkpt lat="45.52345" lon="3.30992">
        <ele>380.1</ele>
        <time>2021-08-04T16:18:20Z</time>
      </trkpt>
      <trkpt lat="45.52342" lon="3.30996">
        <ele>380.1</ele>
        <time>2021-08-04T16:18:22Z</time>
      </trkpt>
      <trkpt lat="45.52338" lon="3.30999">
        <ele>380.1</ele>
        <time>2021-08-04T16:18:24Z</time>
      </trkpt>
      <trkpt lat="45.52335" lon="3.31004">
        <ele>380.2</ele>
        <time>2021-08-04T16:18:26Z</time>
      </trkpt>
      <trkpt lat="45.52332" lon="3.31008">
        <ele>380.2</ele>
        <time>2021-08-04T16:18:28Z</time>
      </trkpt>
      <trkpt lat="45.52328" lon="3.31013">
        <ele>380.3</ele>
        <time>2021-08-04T16:18:30Z</time>
      </trkpt>
      <trkpt lat="45.52326" lon="3.31018">
        <ele>380.3</ele>
        <time>2021-08-04T16:18:32Z</time>
      </trkpt>
      <trkpt lat="45.52323" lon="3.31023">
        <ele>380.4</ele>
        <time>2021-08-04T16:18:34Z</time>
      </trkpt>
      <trkpt lat="45.52321" lon="3.31028">
        <ele>380.5</ele>
        <time>2021-08-04T16:18:36Z</time>
      </trkpt>
      <trkpt lat="45.5232" lon="3.31031">
        <ele>380.5</ele>
        <time>2021-08-04T16:18:38Z</time>
      </trkpt>
      <trkpt lat="45.52319" lon="3.31033">
        <ele>380.5</ele>
        <time>2021-08-04T16:18:40Z</time>
      </trkpt>
      <trkpt lat="45.52317" lon="3.31036">
        <ele>380.5</ele>
        <time>2021-08-04T16:18:42Z</time>
      </trkpt>
      <trkpt lat="45.52315" lon="3.31038">
        <ele>380.5</ele>
        <time>2021-08-04T16:18:44Z</time>
      </trkpt>
      <trkpt lat="45.52315" lon="3.3104">
        <ele>380.6</ele>
        <time>2021-08-04T16:18:46Z</time>
      </trkpt>
      <trkpt lat="45.52315" lon="3.3104">
        <ele>380.5</ele>
        <time>2021-08-04T16:18:48Z</time>
      </trkpt>
      <trkpt lat="45.52314" lon="3.31039">
        <ele>380.5</ele>
        <time>2021-08-04T16:18:50Z</time>
      </trkpt>
      <trkpt lat="45.52314" lon="3.31039">
        <ele>380.5</ele>
        <time>2021-08-04T16:18:52Z</time>
      </trkpt>
      <trkpt lat="45.52314" lon="3.31039">
        <ele>380.5</ele>
        <time>2021-08-04T16:18:54Z</time>
      </trkpt>
      <trkpt lat="45.52338" lon="3.30997">
        <ele>380</ele>
        <time>2021-08-04T16:19:24Z</time>
      </trkpt>
      <trkpt lat="45.52342" lon="3.30992">
        <ele>380</ele>
        <time>2021-08-04T16:19:26Z</time>
      </trkpt>
      <trkpt lat="45.52346" lon="3.30988">
        <ele>380</ele>
        <time>2021-08-04T16:19:28Z</time>
      </trkpt>
      <trkpt lat="45.52349" lon="3.30982">
        <ele>379.9</ele>
        <time>2021-08-04T16:19:30Z</time>
      </trkpt>
      <trkpt lat="45.52352" lon="3.30977">
        <ele>379.9</ele>
        <time>2021-08-04T16:19:32Z</time>
      </trkpt>
      <trkpt lat="45.52356" lon="3.30972">
        <ele>379.9</ele>
        <time>2021-08-04T16:19:34Z</time>
      </trkpt>
      <trkpt lat="45.52359" lon="3.30966">
        <ele>379.8</ele>
        <time>2021-08-04T16:19:36Z</time>
      </trkpt>
      <trkpt lat="45.52363" lon="3.30961">
        <ele>379.8</ele>
        <time>2021-08-04T16:19:38Z</time>
      </trkpt>
      <trkpt lat="45.52367" lon="3.30956">
        <ele>379.8</ele>
        <time>2021-08-04T16:19:40Z</time>
      </trkpt>
      <trkpt lat="45.5237" lon="3.3095">
        <ele>379.7</ele>
        <time>2021-08-04T16:19:42Z</time>
      </trkpt>
      <trkpt lat="45.52374" lon="3.30944">
        <ele>379.6</ele>
        <time>2021-08-04T16:19:44Z</time>
      </trkpt>
      <trkpt lat="45.52377" lon="3.30938">
        <ele>379.6</ele>
        <time>2021-08-04T16:19:46Z</time>
      </trkpt>
      <trkpt lat="45.5238" lon="3.30932">
        <ele>379.5</ele>
        <time>2021-08-04T16:19:48Z</time>
      </trkpt>
      <trkpt lat="45.52383" lon="3.30926">
        <ele>379.4</ele>
        <time>2021-08-04T16:19:50Z</time>
      </trkpt>
      <trkpt lat="45.52386" lon="3.30921">
        <ele>379.4</ele>
        <time>2021-08-04T16:19:52Z</time>
      </trkpt>
      <trkpt lat="45.52389" lon="3.30916">
        <ele>379.3</ele>
        <time>2021-08-04T16:19:54Z</time>
      </trkpt>
      <trkpt lat="45.52391" lon="3.30911">
        <ele>379.4</ele>
        <time>2021-08-04T16:19:56Z</time>
      </trkpt>
      <trkpt lat="45.52394" lon="3.30906">
        <ele>379.5</ele>
        <time>2021-08-04T16:19:58Z</time>
      </trkpt>
      <trkpt lat="45.52398" lon="3.30901">
        <ele>379.6</ele>
        <time>2021-08-04T16:20:00Z</time>
      </trkpt>
      <trkpt lat="45.52401" lon="3.30894">
        <ele>379.8</ele>
        <time>2021-08-04T16:20:02Z</time>
      </trkpt>
      <trkpt lat="45.52404" lon="3.30888">
        <ele>379.9</ele>
        <time>2021-08-04T16:20:04Z</time>
      </trkpt>
      <trkpt lat="45.52407" lon="3.30883">
        <ele>380.1</ele>
        <time>2021-08-04T16:20:06Z</time>
      </trkpt>
      <trkpt lat="45.52411" lon="3.30877">
        <ele>380.3</ele>
        <time>2021-08-04T16:20:08Z</time>
      </trkpt>
      <trkpt lat="45.52415" lon="3.30872">
        <ele>380.5</ele>
        <time>2021-08-04T16:20:10Z</time>
      </trkpt>
      <trkpt lat="45.52418" lon="3.30867">
        <ele>380.6</ele>
        <time>2021-08-04T16:20:12Z</time>
      </trkpt>
      <trkpt lat="45.52421" lon="3.30861">
        <ele>380.8</ele>
        <time>2021-08-04T16:20:14Z</time>
      </trkpt>
      <trkpt lat="45.52424" lon="3.30857">
        <ele>381</ele>
        <time>2021-08-04T16:20:16Z</time>
      </trkpt>
      <trkpt lat="45.52427" lon="3.30852">
        <ele>381.1</ele>
        <time>2021-08-04T16:20:18Z</time>
      </trkpt>
      <trkpt lat="45.52431" lon="3.30847">
        <ele>381.3</ele>
        <time>2021-08-04T16:20:20Z</time>
      </trkpt>
      <trkpt lat="45.52434" lon="3.30843">
        <ele>381.5</ele>
        <time>2021-08-04T16:20:22Z</time>
      </trkpt>
      <trkpt lat="45.52437" lon="3.30839">
        <ele>381.6</ele>
        <time>2021-08-04T16:20:24Z</time>
      </trkpt>
      <trkpt lat="45.5244" lon="3.30834">
        <ele>381.8</ele>
        <time>2021-08-04T16:20:26Z</time>
      </trkpt>
      <trkpt lat="45.52443" lon="3.30828">
        <ele>382</ele>
        <time>2021-08-04T16:20:28Z</time>
      </trkpt>
      <trkpt lat="45.52446" lon="3.30823">
        <ele>382.1</ele>
        <time>2021-08-04T16:20:30Z</time>
      </trkpt>
      <trkpt lat="45.52449" lon="3.30818">
        <ele>382.2</ele>
        <time>2021-08-04T16:20:32Z</time>
      </trkpt>
      <trkpt lat="45.52452" lon="3.30813">
        <ele>382.3</ele>
        <time>2021-08-04T16:20:34Z</time>
      </trkpt>
      <trkpt lat="45.52454" lon="3.30809">
        <ele>382.4</ele>
        <time>2021-08-04T16:20:36Z</time>
      </trkpt>
      <trkpt lat="45.52457" lon="3.30803">
        <ele>382.5</ele>
        <time>2021-08-04T16:20:38Z</time>
      </trkpt>
      <trkpt lat="45.5246" lon="3.30796">
        <ele>382.5</ele>
        <time>2021-08-04T16:20:40Z</time>
      </trkpt>
      <trkpt lat="45.52462" lon="3.30791">
        <ele>382.6</ele>
        <time>2021-08-04T16:20:42Z</time>
      </trkpt>
      <trkpt lat="45.52465" lon="3.30785">
        <ele>382.7</ele>
        <time>2021-08-04T16:20:44Z</time>
      </trkpt>
      <trkpt lat="45.52468" lon="3.30781">
        <ele>382.8</ele>
        <time>2021-08-04T16:20:46Z</time>
      </trkpt>
      <trkpt lat="45.52471" lon="3.30775">
        <ele>382.9</ele>
        <time>2021-08-04T16:20:48Z</time>
      </trkpt>
      <trkpt lat="45.52473" lon="3.30769">
        <ele>383</ele>
        <time>2021-08-04T16:20:50Z</time>
      </trkpt>
      <trkpt lat="45.52475" lon="3.30763">
        <ele>383.1</ele>
        <time>2021-08-04T16:20:52Z</time>
      </trkpt>
      <trkpt lat="45.52477" lon="3.30757">
        <ele>383.2</ele>
        <time>2021-08-04T16:20:54Z</time>
      </trkpt>
      <trkpt lat="45.5248" lon="3.30751">
        <ele>383.3</ele>
        <time>2021-08-04T16:20:56Z</time>
      </trkpt>
      <trkpt lat="45.52483" lon="3.30746">
        <ele>383.2</ele>
        <time>2021-08-04T16:20:58Z</time>
      </trkpt>
      <trkpt lat="45.52486" lon="3.30741">
        <ele>383</ele>
        <time>2021-08-04T16:21:00Z</time>
      </trkpt>
      <trkpt lat="45.52489" lon="3.30735">
        <ele>382.8</ele>
        <time>2021-08-04T16:21:02Z</time>
      </trkpt>
      <trkpt lat="45.52491" lon="3.30729">
        <ele>382.5</ele>
        <time>2021-08-04T16:21:04Z</time>
      </trkpt>
      <trkpt lat="45.52495" lon="3.30723">
        <ele>382.2</ele>
        <time>2021-08-04T16:21:06Z</time>
      </trkpt>
      <trkpt lat="45.52498" lon="3.30717">
        <ele>382</ele>
        <time>2021-08-04T16:21:08Z</time>
      </trkpt>
      <trkpt lat="45.52502" lon="3.3071">
        <ele>381.6</ele>
        <time>2021-08-04T16:21:10Z</time>
      </trkpt>
      <trkpt lat="45.52505" lon="3.30703">
        <ele>381.2</ele>
        <time>2021-08-04T16:21:12Z</time>
      </trkpt>
      <trkpt lat="45.52509" lon="3.30697">
        <ele>380.9</ele>
        <time>2021-08-04T16:21:14Z</time>
      </trkpt>
      <trkpt lat="45.52513" lon="3.30691">
        <ele>380.7</ele>
        <time>2021-08-04T16:21:16Z</time>
      </trkpt>
      <trkpt lat="45.52515" lon="3.30687">
        <ele>380.5</ele>
        <time>2021-08-04T16:21:18Z</time>
      </trkpt>
      <trkpt lat="45.52518" lon="3.30681">
        <ele>380.3</ele>
        <time>2021-08-04T16:21:20Z</time>
      </trkpt>
      <trkpt lat="45.52519" lon="3.30674">
        <ele>380</ele>
        <time>2021-08-04T16:21:22Z</time>
      </trkpt>
      <trkpt lat="45.52518" lon="3.30669">
        <ele>379.8</ele>
        <time>2021-08-04T16:21:24Z</time>
      </trkpt>
      <trkpt lat="45.52516" lon="3.30663">
        <ele>379.5</ele>
        <time>2021-08-04T16:21:26Z</time>
      </trkpt>
      <trkpt lat="45.52512" lon="3.30657">
        <ele>379.3</ele>
        <time>2021-08-04T16:21:28Z</time>
      </trkpt>
      <trkpt lat="45.52509" lon="3.30651">
        <ele>379.1</ele>
        <time>2021-08-04T16:21:30Z</time>
      </trkpt>
      <trkpt lat="45.52507" lon="3.30643">
        <ele>379</ele>
        <time>2021-08-04T16:21:32Z</time>
      </trkpt>
      <trkpt lat="45.52505" lon="3.30636">
        <ele>378.8</ele>
        <time>2021-08-04T16:21:34Z</time>
      </trkpt>
      <trkpt lat="45.52504" lon="3.30631">
        <ele>378.7</ele>
        <time>2021-08-04T16:21:36Z</time>
      </trkpt>
      <trkpt lat="45.52502" lon="3.30625">
        <ele>378.6</ele>
        <time>2021-08-04T16:21:38Z</time>
      </trkpt>
      <trkpt lat="45.52501" lon="3.30619">
        <ele>378.5</ele>
        <time>2021-08-04T16:21:40Z</time>
      </trkpt>
      <trkpt lat="45.52499" lon="3.30614">
        <ele>378.4</ele>
        <time>2021-08-04T16:21:42Z</time>
      </trkpt>
      <trkpt lat="45.52499" lon="3.30608">
        <ele>378.3</ele>
        <time>2021-08-04T16:21:44Z</time>
      </trkpt>
      <trkpt lat="45.52503" lon="3.30604">
        <ele>378.4</ele>
        <time>2021-08-04T16:21:46Z</time>
      </trkpt>
      <trkpt lat="45.52509" lon="3.30603">
        <ele>378.6</ele>
        <time>2021-08-04T16:21:48Z</time>
      </trkpt>
      <trkpt lat="45.52514" lon="3.30603">
        <ele>378.7</ele>
        <time>2021-08-04T16:21:50Z</time>
      </trkpt>
      <trkpt lat="45.5252" lon="3.30602">
        <ele>378.9</ele>
        <time>2021-08-04T16:21:52Z</time>
      </trkpt>
      <trkpt lat="45.52526" lon="3.306">
        <ele>379.1</ele>
        <time>2021-08-04T16:21:54Z</time>
      </trkpt>
      <trkpt lat="45.52532" lon="3.30601">
        <ele>379.4</ele>
        <time>2021-08-04T16:21:56Z</time>
      </trkpt>
      <trkpt lat="45.52538" lon="3.30601">
        <ele>379.6</ele>
        <time>2021-08-04T16:21:58Z</time>
      </trkpt>
      <trkpt lat="45.52544" lon="3.30601">
        <ele>379.8</ele>
        <time>2021-08-04T16:22:00Z</time>
      </trkpt>
      <trkpt lat="45.5255" lon="3.30601">
        <ele>380</ele>
        <time>2021-08-04T16:22:02Z</time>
      </trkpt>
      <trkpt lat="45.52555" lon="3.30602">
        <ele>380.2</ele>
        <time>2021-08-04T16:22:04Z</time>
      </trkpt>
      <trkpt lat="45.52562" lon="3.30604">
        <ele>380.5</ele>
        <time>2021-08-04T16:22:06Z</time>
      </trkpt>
      <trkpt lat="45.52568" lon="3.30603">
        <ele>380.7</ele>
        <time>2021-08-04T16:22:08Z</time>
      </trkpt>
      <trkpt lat="45.52573" lon="3.30602">
        <ele>380.9</ele>
        <time>2021-08-04T16:22:10Z</time>
      </trkpt>
      <trkpt lat="45.52579" lon="3.306">
        <ele>381</ele>
        <time>2021-08-04T16:22:12Z</time>
      </trkpt>
      <trkpt lat="45.52585" lon="3.30598">
        <ele>381.3</ele>
        <time>2021-08-04T16:22:14Z</time>
      </trkpt>
      <trkpt lat="45.52592" lon="3.30596">
        <ele>381.6</ele>
        <time>2021-08-04T16:22:16Z</time>
      </trkpt>
      <trkpt lat="45.52599" lon="3.30592">
        <ele>381.9</ele>
        <time>2021-08-04T16:22:18Z</time>
      </trkpt>
      <trkpt lat="45.52605" lon="3.30588">
        <ele>382.1</ele>
        <time>2021-08-04T16:22:20Z</time>
      </trkpt>
      <trkpt lat="45.52611" lon="3.30581">
        <ele>382.3</ele>
        <time>2021-08-04T16:22:22Z</time>
      </trkpt>
      <trkpt lat="45.52615" lon="3.30574">
        <ele>382.3</ele>
        <time>2021-08-04T16:22:24Z</time>
      </trkpt>
      <trkpt lat="45.52619" lon="3.30566">
        <ele>382.3</ele>
        <time>2021-08-04T16:22:26Z</time>
      </trkpt>
      <trkpt lat="45.52626" lon="3.3056">
        <ele>382.5</ele>
        <time>2021-08-04T16:22:28Z</time>
      </trkpt>
      <trkpt lat="45.5263" lon="3.30554">
        <ele>382.5</ele>
        <time>2021-08-04T16:22:30Z</time>
      </trkpt>
      <trkpt lat="45.52636" lon="3.30548">
        <ele>382.6</ele>
        <time>2021-08-04T16:22:32Z</time>
      </trkpt>
      <trkpt lat="45.52642" lon="3.30541">
        <ele>382.6</ele>
        <time>2021-08-04T16:22:34Z</time>
      </trkpt>
      <trkpt lat="45.52648" lon="3.30535">
        <ele>382.6</ele>
        <time>2021-08-04T16:22:36Z</time>
      </trkpt>
      <trkpt lat="45.52655" lon="3.30531">
        <ele>382.7</ele>
        <time>2021-08-04T16:22:38Z</time>
      </trkpt>
      <trkpt lat="45.52661" lon="3.30527">
        <ele>382.8</ele>
        <time>2021-08-04T16:22:40Z</time>
      </trkpt>
      <trkpt lat="45.52666" lon="3.30523">
        <ele>382.8</ele>
        <time>2021-08-04T16:22:42Z</time>
      </trkpt>
      <trkpt lat="45.52672" lon="3.30521">
        <ele>382.4</ele>
        <time>2021-08-04T16:22:44Z</time>
      </trkpt>
      <trkpt lat="45.52678" lon="3.30522">
        <ele>382.1</ele>
        <time>2021-08-04T16:22:46Z</time>
      </trkpt>
      <trkpt lat="45.52684" lon="3.30522">
        <ele>381.8</ele>
        <time>2021-08-04T16:22:48Z</time>
      </trkpt>
      <trkpt lat="45.5269" lon="3.30522">
        <ele>381.4</ele>
        <time>2021-08-04T16:22:50Z</time>
      </trkpt>
      <trkpt lat="45.52695" lon="3.30522">
        <ele>381.1</ele>
        <time>2021-08-04T16:22:52Z</time>
      </trkpt>
      <trkpt lat="45.527" lon="3.30521">
        <ele>380.7</ele>
        <time>2021-08-04T16:22:54Z</time>
      </trkpt>
      <trkpt lat="45.52705" lon="3.3052">
        <ele>380.4</ele>
        <time>2021-08-04T16:22:56Z</time>
      </trkpt>
      <trkpt lat="45.52713" lon="3.3052">
        <ele>380</ele>
        <time>2021-08-04T16:22:58Z</time>
      </trkpt>
      <trkpt lat="45.5272" lon="3.30521">
        <ele>379.6</ele>
        <time>2021-08-04T16:23:00Z</time>
      </trkpt>
      <trkpt lat="45.52724" lon="3.30521">
        <ele>379.3</ele>
        <time>2021-08-04T16:23:02Z</time>
      </trkpt>
      <trkpt lat="45.5273" lon="3.30522">
        <ele>379</ele>
        <time>2021-08-04T16:23:04Z</time>
      </trkpt>
      <trkpt lat="45.52733" lon="3.30522">
        <ele>378.8</ele>
        <time>2021-08-04T16:23:06Z</time>
      </trkpt>
      <trkpt lat="45.52736" lon="3.30522">
        <ele>378.6</ele>
        <time>2021-08-04T16:23:08Z</time>
      </trkpt>
      <trkpt lat="45.52737" lon="3.30522">
        <ele>378.6</ele>
        <time>2021-08-04T16:23:10Z</time>
      </trkpt>
      <trkpt lat="45.5274" lon="3.30522">
        <ele>378.4</ele>
        <time>2021-08-04T16:23:12Z</time>
      </trkpt>
      <trkpt lat="45.52745" lon="3.30522">
        <ele>378.1</ele>
        <time>2021-08-04T16:23:14Z</time>
      </trkpt>
      <trkpt lat="45.5275" lon="3.30527">
        <ele>378</ele>
        <time>2021-08-04T16:23:16Z</time>
      </trkpt>
      <trkpt lat="45.52751" lon="3.30531">
        <ele>378.1</ele>
        <time>2021-08-04T16:23:18Z</time>
      </trkpt>
      <trkpt lat="45.5275" lon="3.30532">
        <ele>378.2</ele>
        <time>2021-08-04T16:23:20Z</time>
      </trkpt>
      <trkpt lat="45.52748" lon="3.30533">
        <ele>378.3</ele>
        <time>2021-08-04T16:23:22Z</time>
      </trkpt>
      <trkpt lat="45.52746" lon="3.30533">
        <ele>378.4</ele>
        <time>2021-08-04T16:23:24Z</time>
      </trkpt>
      <trkpt lat="45.52744" lon="3.30535">
        <ele>378.6</ele>
        <time>2021-08-04T16:23:26Z</time>
      </trkpt>
      <trkpt lat="45.52744" lon="3.30539">
        <ele>378.8</ele>
        <time>2021-08-04T16:23:28Z</time>
      </trkpt>
      <trkpt lat="45.52745" lon="3.30545">
        <ele>378.9</ele>
        <time>2021-08-04T16:23:30Z</time>
      </trkpt>
      <trkpt lat="45.52747" lon="3.30549">
        <ele>379</ele>
        <time>2021-08-04T16:23:32Z</time>
      </trkpt>
      <trkpt lat="45.52748" lon="3.30554">
        <ele>379.1</ele>
        <time>2021-08-04T16:23:34Z</time>
      </trkpt>
      <trkpt lat="45.52749" lon="3.30558">
        <ele>379.2</ele>
        <time>2021-08-04T16:23:36Z</time>
      </trkpt>
      <trkpt lat="45.52749" lon="3.30561">
        <ele>379.2</ele>
        <time>2021-08-04T16:23:38Z</time>
      </trkpt>
      <trkpt lat="45.52748" lon="3.30564">
        <ele>379.5</ele>
        <time>2021-08-04T16:23:40Z</time>
      </trkpt>
      <trkpt lat="45.52748" lon="3.30567">
        <ele>379.5</ele>
        <time>2021-08-04T16:23:42Z</time>
      </trkpt>
      <trkpt lat="45.5275" lon="3.30571">
        <ele>379.5</ele>
        <time>2021-08-04T16:23:44Z</time>
      </trkpt>
      <trkpt lat="45.52751" lon="3.30571">
        <ele>379.5</ele>
        <time>2021-08-04T16:23:46Z</time>
      </trkpt>
      <trkpt lat="45.5275" lon="3.3057">
        <ele>379.5</ele>
        <time>2021-08-04T16:23:48Z</time>
      </trkpt>
      <trkpt lat="45.5275" lon="3.30571">
        <ele>379.5</ele>
        <time>2021-08-04T16:23:50Z</time>
      </trkpt>
      <trkpt lat="45.52751" lon="3.30571">
        <ele>379.5</ele>
        <time>2021-08-04T16:23:52Z</time>
      </trkpt>
      <trkpt lat="45.52753" lon="3.30571">
        <ele>379.5</ele>
        <time>2021-08-04T16:23:54Z</time>
      </trkpt>
      <trkpt lat="45.52754" lon="3.30567">
        <ele>379.3</ele>
        <time>2021-08-04T16:23:56Z</time>
      </trkpt>
      <trkpt lat="45.52753" lon="3.30562">
        <ele>379.1</ele>
        <time>2021-08-04T16:23:58Z</time>
      </trkpt>
      <trkpt lat="45.52751" lon="3.30559">
        <ele>379.1</ele>
        <time>2021-08-04T16:24:00Z</time>
      </trkpt>
      <trkpt lat="45.52749" lon="3.30556">
        <ele>379.1</ele>
        <time>2021-08-04T16:24:02Z</time>
      </trkpt>
      <trkpt lat="45.52747" lon="3.30552">
        <ele>379.1</ele>
        <time>2021-08-04T16:24:04Z</time>
      </trkpt>
      <trkpt lat="45.52746" lon="3.30549">
        <ele>379</ele>
        <time>2021-08-04T16:24:06Z</time>
      </trkpt>
      <trkpt lat="45.52743" lon="3.30546">
        <ele>379.1</ele>
        <time>2021-08-04T16:24:08Z</time>
      </trkpt>
      <trkpt lat="45.52741" lon="3.30543">
        <ele>379.1</ele>
        <time>2021-08-04T16:24:10Z</time>
      </trkpt>
      <trkpt lat="45.52739" lon="3.30538">
        <ele>379</ele>
        <time>2021-08-04T16:24:12Z</time>
      </trkpt>
      <trkpt lat="45.52737" lon="3.30535">
        <ele>379</ele>
        <time>2021-08-04T16:24:14Z</time>
      </trkpt>
      <trkpt lat="45.52736" lon="3.30532">
        <ele>379</ele>
        <time>2021-08-04T16:24:16Z</time>
      </trkpt>
      <trkpt lat="45.52736" lon="3.30527">
        <ele>378.8</ele>
        <time>2021-08-04T16:24:18Z</time>
      </trkpt>
      <trkpt lat="45.52738" lon="3.30523">
        <ele>378.6</ele>
        <time>2021-08-04T16:24:20Z</time>
      </trkpt>
      <trkpt lat="45.52741" lon="3.30519">
        <ele>378.2</ele>
        <time>2021-08-04T16:24:22Z</time>
      </trkpt>
      <trkpt lat="45.52741" lon="3.30512">
        <ele>378</ele>
        <time>2021-08-04T16:24:24Z</time>
      </trkpt>
      <trkpt lat="45.52741" lon="3.30506">
        <ele>377.7</ele>
        <time>2021-08-04T16:24:26Z</time>
      </trkpt>
      <trkpt lat="45.52742" lon="3.30501">
        <ele>377.5</ele>
        <time>2021-08-04T16:24:28Z</time>
      </trkpt>
      <trkpt lat="45.52742" lon="3.30497">
        <ele>377.4</ele>
        <time>2021-08-04T16:24:30Z</time>
      </trkpt>
      <trkpt lat="45.52743" lon="3.30493">
        <ele>377.4</ele>
        <time>2021-08-04T16:24:32Z</time>
      </trkpt>
      <trkpt lat="45.52743" lon="3.3049">
        <ele>377.4</ele>
        <time>2021-08-04T16:24:34Z</time>
      </trkpt>
      <trkpt lat="45.52743" lon="3.30488">
        <ele>377.4</ele>
        <time>2021-08-04T16:24:36Z</time>
      </trkpt>
      <trkpt lat="45.52742" lon="3.30485">
        <ele>377.5</ele>
        <time>2021-08-04T16:24:38Z</time>
      </trkpt>
      <trkpt lat="45.52743" lon="3.30481">
        <ele>377.4</ele>
        <time>2021-08-04T16:24:40Z</time>
      </trkpt>
      <trkpt lat="45.52743" lon="3.30477">
        <ele>377.4</ele>
        <time>2021-08-04T16:24:42Z</time>
      </trkpt>
      <trkpt lat="45.52743" lon="3.30473">
        <ele>377.3</ele>
        <time>2021-08-04T16:24:44Z</time>
      </trkpt>
      <trkpt lat="45.52742" lon="3.3047">
        <ele>377.4</ele>
        <time>2021-08-04T16:24:46Z</time>
      </trkpt>
      <trkpt lat="45.52741" lon="3.30471">
        <ele>377.5</ele>
        <time>2021-08-04T16:24:48Z</time>
      </trkpt>
      <trkpt lat="45.52741" lon="3.30471">
        <ele>377.5</ele>
        <time>2021-08-04T16:24:50Z</time>
      </trkpt>
      <trkpt lat="45.52741" lon="3.30471">
        <ele>377.5</ele>
        <time>2021-08-04T16:24:52Z</time>
      </trkpt>
      <trkpt lat="45.52742" lon="3.30471">
        <ele>377.4</ele>
        <time>2021-08-04T16:24:54Z</time>
      </trkpt>
      <trkpt lat="45.52747" lon="3.30423">
        <ele>377.1</ele>
        <time>2021-08-04T16:32:10Z</time>
      </trkpt>
      <trkpt lat="45.52748" lon="3.30419">
        <ele>377.1</ele>
        <time>2021-08-04T16:32:12Z</time>
      </trkpt>
      <trkpt lat="45.52748" lon="3.30414">
        <ele>377.1</ele>
        <time>2021-08-04T16:32:14Z</time>
      </trkpt>
      <trkpt lat="45.52749" lon="3.3041">
        <ele>377.1</ele>
        <time>2021-08-04T16:32:16Z</time>
      </trkpt>
      <trkpt lat="45.5275" lon="3.30405">
        <ele>377.1</ele>
        <time>2021-08-04T16:32:18Z</time>
      </trkpt>
      <trkpt lat="45.52751" lon="3.30399">
        <ele>377.2</ele>
        <time>2021-08-04T16:32:20Z</time>
      </trkpt>
      <trkpt lat="45.52751" lon="3.30394">
        <ele>377.2</ele>
        <time>2021-08-04T16:32:22Z</time>
      </trkpt>
      <trkpt lat="45.52752" lon="3.30388">
        <ele>377.3</ele>
        <time>2021-08-04T16:32:24Z</time>
      </trkpt>
      <trkpt lat="45.52751" lon="3.30383">
        <ele>377.4</ele>
        <time>2021-08-04T16:32:26Z</time>
      </trkpt>
      <trkpt lat="45.52752" lon="3.30378">
        <ele>377.4</ele>
        <time>2021-08-04T16:32:28Z</time>
      </trkpt>
      <trkpt lat="45.52751" lon="3.30373">
        <ele>377.5</ele>
        <time>2021-08-04T16:32:30Z</time>
      </trkpt>
      <trkpt lat="45.5275" lon="3.3037">
        <ele>377.6</ele>
        <time>2021-08-04T16:32:32Z</time>
      </trkpt>
      <trkpt lat="45.52748" lon="3.30365">
        <ele>377.7</ele>
        <time>2021-08-04T16:32:34Z</time>
      </trkpt>
      <trkpt lat="45.52749" lon="3.3036">
        <ele>377.7</ele>
        <time>2021-08-04T16:32:36Z</time>
      </trkpt>
      <trkpt lat="45.52748" lon="3.30357">
        <ele>377.8</ele>
        <time>2021-08-04T16:32:38Z</time>
      </trkpt>
      <trkpt lat="45.52747" lon="3.30353">
        <ele>377.8</ele>
        <time>2021-08-04T16:32:40Z</time>
      </trkpt>
      <trkpt lat="45.52747" lon="3.3035">
        <ele>377.9</ele>
        <time>2021-08-04T16:32:42Z</time>
      </trkpt>
      <trkpt lat="45.52746" lon="3.30346">
        <ele>377.9</ele>
        <time>2021-08-04T16:32:44Z</time>
      </trkpt>
      <trkpt lat="45.52745" lon="3.30342">
        <ele>378</ele>
        <time>2021-08-04T16:32:46Z</time>
      </trkpt>
      <trkpt lat="45.52744" lon="3.30338">
        <ele>378</ele>
        <time>2021-08-04T16:32:48Z</time>
      </trkpt>
      <trkpt lat="45.52744" lon="3.30333">
        <ele>378.1</ele>
        <time>2021-08-04T16:32:50Z</time>
      </trkpt>
      <trkpt lat="45.52743" lon="3.3033">
        <ele>378.1</ele>
        <time>2021-08-04T16:32:52Z</time>
      </trkpt>
      <trkpt lat="45.52742" lon="3.30327">
        <ele>378.2</ele>
        <time>2021-08-04T16:32:54Z</time>
      </trkpt>
      <trkpt lat="45.52741" lon="3.30324">
        <ele>378.2</ele>
        <time>2021-08-04T16:32:56Z</time>
      </trkpt>
      <trkpt lat="45.5274" lon="3.30322">
        <ele>378.2</ele>
        <time>2021-08-04T16:32:58Z</time>
      </trkpt>
      <trkpt lat="45.5274" lon="3.30319">
        <ele>378.2</ele>
        <time>2021-08-04T16:33:00Z</time>
      </trkpt>
      <trkpt lat="45.52741" lon="3.30316">
        <ele>378.3</ele>
        <time>2021-08-04T16:33:02Z</time>
      </trkpt>
      <trkpt lat="45.52741" lon="3.30316">
        <ele>378.3</ele>
        <time>2021-08-04T16:33:04Z</time>
      </trkpt>
    </trkseg>
      <trkpt lat="45.52772" lon="3.30522">
        <ele>377.7</ele>
        <time>2021-08-05T07:25:53Z</time>
      </trkpt>
      <trkpt lat="45.52778" lon="3.30523">
        <ele>377.7</ele>
        <time>2021-08-05T07:25:55Z</time>
      </trkpt>
      <trkpt lat="45.52783" lon="3.30526">
        <ele>377.7</ele>
        <time>2021-08-05T07:25:57Z</time>
      </trkpt>
      <trkpt lat="45.5279" lon="3.30529">
        <ele>377.7</ele>
        <time>2021-08-05T07:25:59Z</time>
      </trkpt>
      <trkpt lat="45.52796" lon="3.30533">
        <ele>377.6</ele>
        <time>2021-08-05T07:26:01Z</time>
      </trkpt>
      <trkpt lat="45.52803" lon="3.30535">
        <ele>377.6</ele>
        <time>2021-08-05T07:26:03Z</time>
      </trkpt>
      <trkpt lat="45.52811" lon="3.30535">
        <ele>377.5</ele>
        <time>2021-08-05T07:26:05Z</time>
      </trkpt>
      <trkpt lat="45.52817" lon="3.30534">
        <ele>377.4</ele>
        <time>2021-08-05T07:26:07Z</time>
      </trkpt>
      <trkpt lat="45.52824" lon="3.30531">
        <ele>377.4</ele>
        <time>2021-08-05T07:26:09Z</time>
      </trkpt>
      <trkpt lat="45.52831" lon="3.30524">
        <ele>377.4</ele>
        <time>2021-08-05T07:26:11Z</time>
      </trkpt>
      <trkpt lat="45.52836" lon="3.30517">
        <ele>377.6</ele>
        <time>2021-08-05T07:26:13Z</time>
      </trkpt>
      <trkpt lat="45.52841" lon="3.30509">
        <ele>377.7</ele>
        <time>2021-08-05T07:26:15Z</time>
      </trkpt>
      <trkpt lat="45.52844" lon="3.30499">
        <ele>377.9</ele>
        <time>2021-08-05T07:26:17Z</time>
      </trkpt>
      <trkpt lat="45.52844" lon="3.30489">
        <ele>377.7</ele>
        <time>2021-08-05T07:26:19Z</time>
      </trkpt>
      <trkpt lat="45.52846" lon="3.30479">
        <ele>377.4</ele>
        <time>2021-08-05T07:26:21Z</time>
      </trkpt>
      <trkpt lat="45.52845" lon="3.30469">
        <ele>377.2</ele>
        <time>2021-08-05T07:26:23Z</time>
      </trkpt>
      <trkpt lat="45.52844" lon="3.30459">
        <ele>377</ele>
        <time>2021-08-05T07:26:25Z</time>
      </trkpt>
      <trkpt lat="45.52843" lon="3.30448">
        <ele>376.8</ele>
        <time>2021-08-05T07:26:27Z</time>
      </trkpt>
      <trkpt lat="45.52845" lon="3.30439">
        <ele>376.6</ele>
        <time>2021-08-05T07:26:29Z</time>
      </trkpt>
      <trkpt lat="45.52848" lon="3.30429">
        <ele>376.4</ele>
        <time>2021-08-05T07:26:31Z</time>
      </trkpt>
      <trkpt lat="45.52853" lon="3.30422">
        <ele>376.3</ele>
        <time>2021-08-05T07:26:33Z</time>
      </trkpt>
      <trkpt lat="45.5286" lon="3.30415">
        <ele>376.3</ele>
        <time>2021-08-05T07:26:35Z</time>
      </trkpt>
      <trkpt lat="45.52867" lon="3.30413">
        <ele>376.3</ele>
        <time>2021-08-05T07:26:37Z</time>
      </trkpt>
      <trkpt lat="45.52874" lon="3.3041">
        <ele>376.3</ele>
        <time>2021-08-05T07:26:39Z</time>
      </trkpt>
      <trkpt lat="45.52881" lon="3.30406">
        <ele>376.3</ele>
        <time>2021-08-05T07:26:41Z</time>
      </trkpt>
      <trkpt lat="45.52888" lon="3.30406">
        <ele>376.5</ele>
        <time>2021-08-05T07:26:43Z</time>
      </trkpt>
      <trkpt lat="45.52895" lon="3.30406">
        <ele>376.5</ele>
        <time>2021-08-05T07:26:45Z</time>
      </trkpt>
      <trkpt lat="45.52903" lon="3.30404">
        <ele>376.6</ele>
        <time>2021-08-05T07:26:47Z</time>
      </trkpt>
      <trkpt lat="45.5291" lon="3.304">
        <ele>376.7</ele>
        <time>2021-08-05T07:26:49Z</time>
      </trkpt>
      <trkpt lat="45.52917" lon="3.30396">
        <ele>376.8</ele>
        <time>2021-08-05T07:26:51Z</time>
      </trkpt>
      <trkpt lat="45.52924" lon="3.30392">
        <ele>376.8</ele>
        <time>2021-08-05T07:26:53Z</time>
      </trkpt>
      <trkpt lat="45.5293" lon="3.30384">
        <ele>376.8</ele>
        <time>2021-08-05T07:26:55Z</time>
      </trkpt>
      <trkpt lat="45.52934" lon="3.30376">
        <ele>376.8</ele>
        <time>2021-08-05T07:26:57Z</time>
      </trkpt>
      <trkpt lat="45.52939" lon="3.30367">
        <ele>376.8</ele>
        <time>2021-08-05T07:26:59Z</time>
      </trkpt>
      <trkpt lat="45.52946" lon="3.30359">
        <ele>376.9</ele>
        <time>2021-08-05T07:27:01Z</time>
      </trkpt>
      <trkpt lat="45.52951" lon="3.30354">
        <ele>377</ele>
        <time>2021-08-05T07:27:03Z</time>
      </trkpt>
      <trkpt lat="45.52958" lon="3.30349">
        <ele>377.1</ele>
        <time>2021-08-05T07:27:05Z</time>
      </trkpt>
      <trkpt lat="45.52965" lon="3.30349">
        <ele>377.2</ele>
        <time>2021-08-05T07:27:07Z</time>
      </trkpt>
      <trkpt lat="45.52973" lon="3.3035">
        <ele>377.4</ele>
        <time>2021-08-05T07:27:09Z</time>
      </trkpt>
      <trkpt lat="45.5298" lon="3.30357">
        <ele>377.6</ele>
        <time>2021-08-05T07:27:11Z</time>
      </trkpt>
      <trkpt lat="45.52985" lon="3.30364">
        <ele>377.7</ele>
        <time>2021-08-05T07:27:13Z</time>
      </trkpt>
      <trkpt lat="45.52989" lon="3.30373">
        <ele>377.8</ele>
        <time>2021-08-05T07:27:15Z</time>
      </trkpt>
      <trkpt lat="45.52994" lon="3.30379">
        <ele>377.9</ele>
        <time>2021-08-05T07:27:17Z</time>
      </trkpt>
      <trkpt lat="45.52999" lon="3.30385">
        <ele>378</ele>
        <time>2021-08-05T07:27:19Z</time>
      </trkpt>
      <trkpt lat="45.53002" lon="3.30388">
        <ele>378</ele>
        <time>2021-08-05T07:27:21Z</time>
      </trkpt>
      <trkpt lat="45.53004" lon="3.30393">
        <ele>377.9</ele>
        <time>2021-08-05T07:27:23Z</time>
      </trkpt>
      <trkpt lat="45.53007" lon="3.30394">
        <ele>377.9</ele>
        <time>2021-08-05T07:27:25Z</time>
      </trkpt>
      <trkpt lat="45.53011" lon="3.30396">
        <ele>377.8</ele>
        <time>2021-08-05T07:27:27Z</time>
      </trkpt>
      <trkpt lat="45.53014" lon="3.30395">
        <ele>377.8</ele>
        <time>2021-08-05T07:27:29Z</time>
      </trkpt>
      <trkpt lat="45.53017" lon="3.30395">
        <ele>377.7</ele>
        <time>2021-08-05T07:27:31Z</time>
      </trkpt>
      <trkpt lat="45.53019" lon="3.30396">
        <ele>377.7</ele>
        <time>2021-08-05T07:27:33Z</time>
      </trkpt>
      <trkpt lat="45.53021" lon="3.30397">
        <ele>377.7</ele>
        <time>2021-08-05T07:27:35Z</time>
      </trkpt>
      <trkpt lat="45.53025" lon="3.30398">
        <ele>377.6</ele>
        <time>2021-08-05T07:27:37Z</time>
      </trkpt>
      <trkpt lat="45.53028" lon="3.30402">
        <ele>377.6</ele>
        <time>2021-08-05T07:27:39Z</time>
      </trkpt>
      <trkpt lat="45.53031" lon="3.30406">
        <ele>377.6</ele>
        <time>2021-08-05T07:27:41Z</time>
      </trkpt>
      <trkpt lat="45.53034" lon="3.30409">
        <ele>377.6</ele>
        <time>2021-08-05T07:27:43Z</time>
      </trkpt>
      <trkpt lat="45.53036" lon="3.30412">
        <ele>377.5</ele>
        <time>2021-08-05T07:27:45Z</time>
      </trkpt>
      <trkpt lat="45.53038" lon="3.30414">
        <ele>377.5</ele>
        <time>2021-08-05T07:27:47Z</time>
      </trkpt>
      <trkpt lat="45.53038" lon="3.30415">
        <ele>377.5</ele>
        <time>2021-08-05T07:27:49Z</time>
      </trkpt>
      <trkpt lat="45.53036" lon="3.30416">
        <ele>377.6</ele>
        <time>2021-08-05T07:27:51Z</time>
      </trkpt>
      <trkpt lat="45.53032" lon="3.30413">
        <ele>377.6</ele>
        <time>2021-08-05T07:27:53Z</time>
      </trkpt>
      <trkpt lat="45.5303" lon="3.30406">
        <ele>377.6</ele>
        <time>2021-08-05T07:27:55Z</time>
      </trkpt>
      <trkpt lat="45.53028" lon="3.30403">
        <ele>377.6</ele>
        <time>2021-08-05T07:27:57Z</time>
      </trkpt>
      <trkpt lat="45.53025" lon="3.30399">
        <ele>377.6</ele>
        <time>2021-08-05T07:27:59Z</time>
      </trkpt>
      <trkpt lat="45.53025" lon="3.30399">
        <ele>377.6</ele>
        <time>2021-08-05T07:28:01Z</time>
      </trkpt>
      <trkpt lat="45.53025" lon="3.30399">
        <ele>377.6</ele>
        <time>2021-08-05T07:28:03Z</time>
      </trkpt>
      <trkpt lat="45.53025" lon="3.304">
        <ele>377.6</ele>
        <time>2021-08-05T07:28:05Z</time>
      </trkpt>
      <trkpt lat="45.53025" lon="3.304">
        <ele>377.6</ele>
        <time>2021-08-05T07:28:07Z</time>
      </trkpt>
      <trkpt lat="45.53024" lon="3.304">
        <ele>377.7</ele>
        <time>2021-08-05T07:28:09Z</time>
      </trkpt>
      <trkpt lat="45.53021" lon="3.30402">
        <ele>377.7</ele>
        <time>2021-08-05T07:34:03Z</time>
      </trkpt>
      <trkpt lat="45.53025" lon="3.30405">
        <ele>377.7</ele>
        <time>2021-08-05T07:34:05Z</time>
      </trkpt>
      <trkpt lat="45.53029" lon="3.30409">
        <ele>377.6</ele>
        <time>2021-08-05T07:34:07Z</time>
      </trkpt>
      <trkpt lat="45.53033" lon="3.30413">
        <ele>377.6</ele>
        <time>2021-08-05T07:34:09Z</time>
      </trkpt>
      <trkpt lat="45.53037" lon="3.30418">
        <ele>377.6</ele>
        <time>2021-08-05T07:34:11Z</time>
      </trkpt>
      <trkpt lat="45.53041" lon="3.30423">
        <ele>377.6</ele>
        <time>2021-08-05T07:34:13Z</time>
      </trkpt>
      <trkpt lat="45.53045" lon="3.30429">
        <ele>377.6</ele>
        <time>2021-08-05T07:34:15Z</time>
      </trkpt>
      <trkpt lat="45.53049" lon="3.30435">
        <ele>377.7</ele>
        <time>2021-08-05T07:34:17Z</time>
      </trkpt>
      <trkpt lat="45.53054" lon="3.3044">
        <ele>377.8</ele>
        <time>2021-08-05T07:34:19Z</time>
      </trkpt>
      <trkpt lat="45.53059" lon="3.30447">
        <ele>378</ele>
        <time>2021-08-05T07:34:21Z</time>
      </trkpt>
      <trkpt lat="45.53063" lon="3.30454">
        <ele>378.1</ele>
        <time>2021-08-05T07:34:23Z</time>
      </trkpt>
      <trkpt lat="45.53068" lon="3.3046">
        <ele>378.4</ele>
        <time>2021-08-05T07:34:25Z</time>
      </trkpt>
      <trkpt lat="45.53073" lon="3.30466">
        <ele>378.6</ele>
        <time>2021-08-05T07:34:27Z</time>
      </trkpt>
      <trkpt lat="45.53079" lon="3.30472">
        <ele>378.9</ele>
        <time>2021-08-05T07:34:29Z</time>
      </trkpt>
      <trkpt lat="45.53085" lon="3.30475">
        <ele>379.1</ele>
        <time>2021-08-05T07:34:31Z</time>
      </trkpt>
      <trkpt lat="45.53091" lon="3.30478">
        <ele>379.2</ele>
        <time>2021-08-05T07:34:33Z</time>
      </trkpt>
      <trkpt lat="45.53097" lon="3.30481">
        <ele>379.2</ele>
        <time>2021-08-05T07:34:35Z</time>
      </trkpt>
      <trkpt lat="45.53103" lon="3.30483">
        <ele>379.3</ele>
        <time>2021-08-05T07:34:37Z</time>
      </trkpt>
      <trkpt lat="45.53109" lon="3.30485">
        <ele>379.3</ele>
        <time>2021-08-05T07:34:39Z</time>
      </trkpt>
      <trkpt lat="45.53114" lon="3.30485">
        <ele>379.2</ele>
        <time>2021-08-05T07:34:41Z</time>
      </trkpt>
      <trkpt lat="45.5312" lon="3.30485">
        <ele>379.2</ele>
        <time>2021-08-05T07:34:43Z</time>
      </trkpt>
      <trkpt lat="45.53124" lon="3.30488">
        <ele>379.2</ele>
        <time>2021-08-05T07:34:45Z</time>
      </trkpt>
      <trkpt lat="45.53127" lon="3.3049">
        <ele>379.3</ele>
        <time>2021-08-05T07:34:47Z</time>
      </trkpt>
      <trkpt lat="45.53129" lon="3.30493">
        <ele>379.3</ele>
        <time>2021-08-05T07:34:49Z</time>
      </trkpt>
      <trkpt lat="45.53129" lon="3.30495">
        <ele>379.3</ele>
        <time>2021-08-05T07:34:51Z</time>
      </trkpt>
      <trkpt lat="45.53132" lon="3.30501">
        <ele>379.4</ele>
        <time>2021-08-05T07:34:53Z</time>
      </trkpt>
      <trkpt lat="45.53133" lon="3.30509">
        <ele>379.3</ele>
        <time>2021-08-05T07:34:55Z</time>
      </trkpt>
      <trkpt lat="45.53135" lon="3.30516">
        <ele>379.2</ele>
        <time>2021-08-05T07:34:57Z</time>
      </trkpt>
      <trkpt lat="45.53137" lon="3.30524">
        <ele>379.1</ele>
        <time>2021-08-05T07:34:59Z</time>
      </trkpt>
      <trkpt lat="45.53138" lon="3.30533">
        <ele>379.1</ele>
        <time>2021-08-05T07:35:01Z</time>
      </trkpt>
      <trkpt lat="45.5314" lon="3.30542">
        <ele>379</ele>
        <time>2021-08-05T07:35:03Z</time>
      </trkpt>
      <trkpt lat="45.53142" lon="3.3055">
        <ele>378.9</ele>
        <time>2021-08-05T07:35:05Z</time>
      </trkpt>
      <trkpt lat="45.53143" lon="3.30559">
        <ele>378.9</ele>
        <time>2021-08-05T07:35:07Z</time>
      </trkpt>
      <trkpt lat="45.53144" lon="3.30569">
        <ele>378.8</ele>
        <time>2021-08-05T07:35:09Z</time>
      </trkpt>
      <trkpt lat="45.53144" lon="3.30578">
        <ele>378.8</ele>
        <time>2021-08-05T07:35:11Z</time>
      </trkpt>
      <trkpt lat="45.53144" lon="3.30589">
        <ele>378.7</ele>
        <time>2021-08-05T07:35:13Z</time>
      </trkpt>
      <trkpt lat="45.53145" lon="3.30599">
        <ele>378.7</ele>
        <time>2021-08-05T07:35:15Z</time>
      </trkpt>
      <trkpt lat="45.53145" lon="3.30611">
        <ele>378.7</ele>
        <time>2021-08-05T07:35:17Z</time>
      </trkpt>
      <trkpt lat="45.53144" lon="3.30622">
        <ele>378.6</ele>
        <time>2021-08-05T07:35:19Z</time>
      </trkpt>
      <trkpt lat="45.53143" lon="3.30633">
        <ele>378.5</ele>
        <time>2021-08-05T07:35:21Z</time>
      </trkpt>
      <trkpt lat="45.53142" lon="3.30644">
        <ele>378.5</ele>
        <time>2021-08-05T07:35:23Z</time>
      </trkpt>
      <trkpt lat="45.53143" lon="3.30654">
        <ele>378.5</ele>
        <time>2021-08-05T07:35:25Z</time>
      </trkpt>
      <trkpt lat="45.53142" lon="3.30665">
        <ele>378.4</ele>
        <time>2021-08-05T07:35:27Z</time>
      </trkpt>
      <trkpt lat="45.53142" lon="3.30676">
        <ele>378.3</ele>
        <time>2021-08-05T07:35:29Z</time>
      </trkpt>
      <trkpt lat="45.53141" lon="3.30687">
        <ele>378.2</ele>
        <time>2021-08-05T07:35:31Z</time>
      </trkpt>
      <trkpt lat="45.53141" lon="3.30699">
        <ele>378.1</ele>
        <time>2021-08-05T07:35:33Z</time>
      </trkpt>
      <trkpt lat="45.53141" lon="3.30711">
        <ele>378</ele>
        <time>2021-08-05T07:35:35Z</time>
      </trkpt>
      <trkpt lat="45.53141" lon="3.30722">
        <ele>377.9</ele>
        <time>2021-08-05T07:35:37Z</time>
      </trkpt>
      <trkpt lat="45.5314" lon="3.30734">
        <ele>377.8</ele>
        <time>2021-08-05T07:35:39Z</time>
      </trkpt>
      <trkpt lat="45.5314" lon="3.30746">
        <ele>377.7</ele>
        <time>2021-08-05T07:35:41Z</time>
      </trkpt>
      <trkpt lat="45.53139" lon="3.30758">
        <ele>377.6</ele>
        <time>2021-08-05T07:35:43Z</time>
      </trkpt>
      <trkpt lat="45.53137" lon="3.30768">
        <ele>377.5</ele>
        <time>2021-08-05T07:35:45Z</time>
      </trkpt>
      <trkpt lat="45.53132" lon="3.30776">
        <ele>377.4</ele>
        <time>2021-08-05T07:35:47Z</time>
      </trkpt>
      <trkpt lat="45.53125" lon="3.30781">
        <ele>377.3</ele>
        <time>2021-08-05T07:35:49Z</time>
      </trkpt>
      <trkpt lat="45.53117" lon="3.30787">
        <ele>377.2</ele>
        <time>2021-08-05T07:35:51Z</time>
      </trkpt>
      <trkpt lat="45.5311" lon="3.30793">
        <ele>377.2</ele>
        <time>2021-08-05T07:35:53Z</time>
      </trkpt>
      <trkpt lat="45.53103" lon="3.308">
        <ele>377.1</ele>
        <time>2021-08-05T07:35:55Z</time>
      </trkpt>
      <trkpt lat="45.53096" lon="3.30808">
        <ele>377</ele>
        <time>2021-08-05T07:35:57Z</time>
      </trkpt>
      <trkpt lat="45.53089" lon="3.30815">
        <ele>377</ele>
        <time>2021-08-05T07:35:59Z</time>
      </trkpt>
      <trkpt lat="45.53081" lon="3.30822">
        <ele>377</ele>
        <time>2021-08-05T07:36:01Z</time>
      </trkpt>
      <trkpt lat="45.53074" lon="3.30829">
        <ele>377.1</ele>
        <time>2021-08-05T07:36:03Z</time>
      </trkpt>
      <trkpt lat="45.53067" lon="3.30837">
        <ele>377.2</ele>
        <time>2021-08-05T07:36:05Z</time>
      </trkpt>
      <trkpt lat="45.53059" lon="3.30844">
        <ele>377.3</ele>
        <time>2021-08-05T07:36:07Z</time>
      </trkpt>
      <trkpt lat="45.53051" lon="3.30852">
        <ele>377.3</ele>
        <time>2021-08-05T07:36:09Z</time>
      </trkpt>
      <trkpt lat="45.53043" lon="3.30859">
        <ele>377.3</ele>
        <time>2021-08-05T07:36:11Z</time>
      </trkpt>
      <trkpt lat="45.53036" lon="3.30867">
        <ele>377.3</ele>
        <time>2021-08-05T07:36:13Z</time>
      </trkpt>
      <trkpt lat="45.53028" lon="3.30874">
        <ele>377.3</ele>
        <time>2021-08-05T07:36:15Z</time>
      </trkpt>
      <trkpt lat="45.53021" lon="3.30881">
        <ele>377.3</ele>
        <time>2021-08-05T07:36:17Z</time>
      </trkpt>
      <trkpt lat="45.53013" lon="3.30889">
        <ele>377.3</ele>
        <time>2021-08-05T07:36:19Z</time>
      </trkpt>
      <trkpt lat="45.53006" lon="3.30896">
        <ele>377.2</ele>
        <time>2021-08-05T07:36:21Z</time>
      </trkpt>
      <trkpt lat="45.52998" lon="3.30903">
        <ele>377.2</ele>
        <time>2021-08-05T07:36:23Z</time>
      </trkpt>
      <trkpt lat="45.52991" lon="3.3091">
        <ele>377.1</ele>
        <time>2021-08-05T07:36:25Z</time>
      </trkpt>
      <trkpt lat="45.52983" lon="3.30917">
        <ele>377</ele>
        <time>2021-08-05T07:36:27Z</time>
      </trkpt>
      <trkpt lat="45.52976" lon="3.30924">
        <ele>377.2</ele>
        <time>2021-08-05T07:36:29Z</time>
      </trkpt>
      <trkpt lat="45.52968" lon="3.30932">
        <ele>377.3</ele>
        <time>2021-08-05T07:36:31Z</time>
      </trkpt>
      <trkpt lat="45.52961" lon="3.30939">
        <ele>377.4</ele>
        <time>2021-08-05T07:36:33Z</time>
      </trkpt>
      <trkpt lat="45.52954" lon="3.30946">
        <ele>377.5</ele>
        <time>2021-08-05T07:36:35Z</time>
      </trkpt>
      <trkpt lat="45.52946" lon="3.30953">
        <ele>377.6</ele>
        <time>2021-08-05T07:36:37Z</time>
      </trkpt>
      <trkpt lat="45.52939" lon="3.30961">
        <ele>377.7</ele>
        <time>2021-08-05T07:36:39Z</time>
      </trkpt>
      <trkpt lat="45.52932" lon="3.3097">
        <ele>377.8</ele>
        <time>2021-08-05T07:36:41Z</time>
      </trkpt>
      <trkpt lat="45.52926" lon="3.3098">
        <ele>377.8</ele>
        <time>2021-08-05T07:36:43Z</time>
      </trkpt>
      <trkpt lat="45.52922" lon="3.30991">
        <ele>377.9</ele>
        <time>2021-08-05T07:36:45Z</time>
      </trkpt>
      <trkpt lat="45.52919" lon="3.31003">
        <ele>378</ele>
        <time>2021-08-05T07:36:47Z</time>
      </trkpt>
      <trkpt lat="45.52917" lon="3.31015">
        <ele>378</ele>
        <time>2021-08-05T07:36:49Z</time>
      </trkpt>
      <trkpt lat="45.52916" lon="3.31028">
        <ele>378</ele>
        <time>2021-08-05T07:36:51Z</time>
      </trkpt>
      <trkpt lat="45.52915" lon="3.3104">
        <ele>378</ele>
        <time>2021-08-05T07:36:53Z</time>
      </trkpt>
      <trkpt lat="45.52912" lon="3.31053">
        <ele>378.1</ele>
        <time>2021-08-05T07:36:55Z</time>
      </trkpt>
      <trkpt lat="45.52908" lon="3.31064">
        <ele>378.1</ele>
        <time>2021-08-05T07:36:57Z</time>
      </trkpt>
      <trkpt lat="45.52902" lon="3.31074">
        <ele>378.2</ele>
        <time>2021-08-05T07:36:59Z</time>
      </trkpt>
      <trkpt lat="45.52894" lon="3.31082">
        <ele>378.3</ele>
        <time>2021-08-05T07:37:01Z</time>
      </trkpt>
      <trkpt lat="45.52885" lon="3.31087">
        <ele>378.3</ele>
        <time>2021-08-05T07:37:03Z</time>
      </trkpt>
      <trkpt lat="45.52877" lon="3.31094">
        <ele>378.3</ele>
        <time>2021-08-05T07:37:05Z</time>
      </trkpt>
      <trkpt lat="45.52869" lon="3.311">
        <ele>378.2</ele>
        <time>2021-08-05T07:37:07Z</time>
      </trkpt>
      <trkpt lat="45.5286" lon="3.31106">
        <ele>378.1</ele>
        <time>2021-08-05T07:37:09Z</time>
      </trkpt>
      <trkpt lat="45.52851" lon="3.31112">
        <ele>378</ele>
        <time>2021-08-05T07:37:11Z</time>
      </trkpt>
      <trkpt lat="45.52842" lon="3.31118">
        <ele>377.8</ele>
        <time>2021-08-05T07:37:13Z</time>
      </trkpt>
      <trkpt lat="45.52832" lon="3.31125">
        <ele>377.5</ele>
        <time>2021-08-05T07:37:15Z</time>
      </trkpt>
      <trkpt lat="45.52822" lon="3.3113">
        <ele>377.2</ele>
        <time>2021-08-05T07:37:17Z</time>
      </trkpt>
      <trkpt lat="45.52811" lon="3.31135">
        <ele>377</ele>
        <time>2021-08-05T07:37:19Z</time>
      </trkpt>
      <trkpt lat="45.528" lon="3.31139">
        <ele>376.9</ele>
        <time>2021-08-05T07:37:21Z</time>
      </trkpt>
      <trkpt lat="45.52789" lon="3.31143">
        <ele>376.7</ele>
        <time>2021-08-05T07:37:23Z</time>
      </trkpt>
      <trkpt lat="45.52779" lon="3.31151">
        <ele>376.5</ele>
        <time>2021-08-05T07:37:25Z</time>
      </trkpt>
      <trkpt lat="45.5277" lon="3.3116">
        <ele>376.2</ele>
        <time>2021-08-05T07:37:27Z</time>
      </trkpt>
      <trkpt lat="45.52761" lon="3.31171">
        <ele>376</ele>
        <time>2021-08-05T07:37:29Z</time>
      </trkpt>
      <trkpt lat="45.52753" lon="3.31182">
        <ele>376.2</ele>
        <time>2021-08-05T07:37:31Z</time>
      </trkpt>
      <trkpt lat="45.52745" lon="3.31193">
        <ele>376.5</ele>
        <time>2021-08-05T07:37:33Z</time>
      </trkpt>
      <trkpt lat="45.52738" lon="3.31204">
        <ele>376.8</ele>
        <time>2021-08-05T07:37:35Z</time>
      </trkpt>
      <trkpt lat="45.52731" lon="3.31216">
        <ele>377.1</ele>
        <time>2021-08-05T07:37:37Z</time>
      </trkpt>
      <trkpt lat="45.52725" lon="3.31229">
        <ele>377.3</ele>
        <time>2021-08-05T07:37:39Z</time>
      </trkpt>
      <trkpt lat="45.52719" lon="3.31241">
        <ele>377.4</ele>
        <time>2021-08-05T07:37:41Z</time>
      </trkpt>
      <trkpt lat="45.52714" lon="3.31254">
        <ele>377.4</ele>
        <time>2021-08-05T07:37:43Z</time>
      </trkpt>
      <trkpt lat="45.52709" lon="3.31267">
        <ele>377.5</ele>
        <time>2021-08-05T07:37:45Z</time>
      </trkpt>
      <trkpt lat="45.52705" lon="3.3128">
        <ele>377.5</ele>
        <time>2021-08-05T07:37:47Z</time>
      </trkpt>
      <trkpt lat="45.52701" lon="3.31292">
        <ele>377.5</ele>
        <time>2021-08-05T07:37:49Z</time>
      </trkpt>
      <trkpt lat="45.52696" lon="3.31304">
        <ele>377.5</ele>
        <time>2021-08-05T07:37:51Z</time>
      </trkpt>
      <trkpt lat="45.52692" lon="3.31317">
        <ele>377.4</ele>
        <time>2021-08-05T07:37:53Z</time>
      </trkpt>
      <trkpt lat="45.52688" lon="3.31328">
        <ele>377.3</ele>
        <time>2021-08-05T07:37:55Z</time>
      </trkpt>
      <trkpt lat="45.52683" lon="3.3134">
        <ele>377.3</ele>
        <time>2021-08-05T07:37:57Z</time>
      </trkpt>
      <trkpt lat="45.52678" lon="3.31352">
        <ele>377.3</ele>
        <time>2021-08-05T07:37:59Z</time>
      </trkpt>
      <trkpt lat="45.52673" lon="3.31363">
        <ele>377.4</ele>
        <time>2021-08-05T07:38:01Z</time>
      </trkpt>
      <trkpt lat="45.52667" lon="3.31372">
        <ele>377.5</ele>
        <time>2021-08-05T07:38:03Z</time>
      </trkpt>
      <trkpt lat="45.52661" lon="3.31382">
        <ele>377.6</ele>
        <time>2021-08-05T07:38:05Z</time>
      </trkpt>
      <trkpt lat="45.52656" lon="3.31393">
        <ele>377.7</ele>
        <time>2021-08-05T07:38:07Z</time>
      </trkpt>
      <trkpt lat="45.5265" lon="3.31402">
        <ele>377.8</ele>
        <time>2021-08-05T07:38:09Z</time>
      </trkpt>
      <trkpt lat="45.52643" lon="3.31412">
        <ele>377.9</ele>
        <time>2021-08-05T07:38:11Z</time>
      </trkpt>
      <trkpt lat="45.52638" lon="3.31421">
        <ele>378</ele>
        <time>2021-08-05T07:38:13Z</time>
      </trkpt>
      <trkpt lat="45.52632" lon="3.3143">
        <ele>378</ele>
        <time>2021-08-05T07:38:15Z</time>
      </trkpt>
      <trkpt lat="45.52626" lon="3.3144">
        <ele>378</ele>
        <time>2021-08-05T07:38:17Z</time>
      </trkpt>
      <trkpt lat="45.5262" lon="3.31449">
        <ele>378</ele>
        <time>2021-08-05T07:38:19Z</time>
      </trkpt>
      <trkpt lat="45.52615" lon="3.31458">
        <ele>378</ele>
        <time>2021-08-05T07:38:21Z</time>
      </trkpt>
      <trkpt lat="45.52609" lon="3.31466">
        <ele>378</ele>
        <time>2021-08-05T07:38:23Z</time>
      </trkpt>
      <trkpt lat="45.52604" lon="3.31475">
        <ele>378</ele>
        <time>2021-08-05T07:38:25Z</time>
      </trkpt>
      <trkpt lat="45.52599" lon="3.31484">
        <ele>378</ele>
        <time>2021-08-05T07:38:27Z</time>
      </trkpt>
      <trkpt lat="45.52593" lon="3.31493">
        <ele>378</ele>
        <time>2021-08-05T07:38:29Z</time>
      </trkpt>
      <trkpt lat="45.52588" lon="3.31502">
        <ele>378</ele>
        <time>2021-08-05T07:38:31Z</time>
      </trkpt>
      <trkpt lat="45.52583" lon="3.3151">
        <ele>378.1</ele>
        <time>2021-08-05T07:38:33Z</time>
      </trkpt>
      <trkpt lat="45.52577" lon="3.31519">
        <ele>378.3</ele>
        <time>2021-08-05T07:38:35Z</time>
      </trkpt>
      <trkpt lat="45.52572" lon="3.31527">
        <ele>378.4</ele>
        <time>2021-08-05T07:38:37Z</time>
      </trkpt>
      <trkpt lat="45.52566" lon="3.31535">
        <ele>378.5</ele>
        <time>2021-08-05T07:38:39Z</time>
      </trkpt>
      <trkpt lat="45.5256" lon="3.31542">
        <ele>378.6</ele>
        <time>2021-08-05T07:38:41Z</time>
      </trkpt>
      <trkpt lat="45.52553" lon="3.31548">
        <ele>378.7</ele>
        <time>2021-08-05T07:38:43Z</time>
      </trkpt>
      <trkpt lat="45.52547" lon="3.31555">
        <ele>378.8</ele>
        <time>2021-08-05T07:38:45Z</time>
      </trkpt>
      <trkpt lat="45.5254" lon="3.31561">
        <ele>378.9</ele>
        <time>2021-08-05T07:38:47Z</time>
      </trkpt>
      <trkpt lat="45.52533" lon="3.31567">
        <ele>378.9</ele>
        <time>2021-08-05T07:38:49Z</time>
      </trkpt>
      <trkpt lat="45.52526" lon="3.31574">
        <ele>379</ele>
        <time>2021-08-05T07:38:51Z</time>
      </trkpt>
      <trkpt lat="45.52518" lon="3.31581">
        <ele>379</ele>
        <time>2021-08-05T07:38:53Z</time>
      </trkpt>
      <trkpt lat="45.52511" lon="3.31588">
        <ele>379</ele>
        <time>2021-08-05T07:38:55Z</time>
      </trkpt>
      <trkpt lat="45.52503" lon="3.31595">
        <ele>379.1</ele>
        <time>2021-08-05T07:38:57Z</time>
      </trkpt>
      <trkpt lat="45.52494" lon="3.31601">
        <ele>379.2</ele>
        <time>2021-08-05T07:38:59Z</time>
      </trkpt>
      <trkpt lat="45.52486" lon="3.31608">
        <ele>379.2</ele>
        <time>2021-08-05T07:39:01Z</time>
      </trkpt>
      <trkpt lat="45.52477" lon="3.31616">
        <ele>379.2</ele>
        <time>2021-08-05T07:39:03Z</time>
      </trkpt>
      <trkpt lat="45.52468" lon="3.31623">
        <ele>379.1</ele>
        <time>2021-08-05T07:39:05Z</time>
      </trkpt>
      <trkpt lat="45.52459" lon="3.31631">
        <ele>379</ele>
        <time>2021-08-05T07:39:07Z</time>
      </trkpt>
      <trkpt lat="45.5245" lon="3.31639">
        <ele>378.9</ele>
        <time>2021-08-05T07:39:09Z</time>
      </trkpt>
      <trkpt lat="45.52441" lon="3.31646">
        <ele>378.7</ele>
        <time>2021-08-05T07:39:11Z</time>
      </trkpt>
      <trkpt lat="45.52431" lon="3.31652">
        <ele>378.5</ele>
        <time>2021-08-05T07:39:13Z</time>
      </trkpt>
      <trkpt lat="45.52421" lon="3.31658">
        <ele>378.2</ele>
        <time>2021-08-05T07:39:15Z</time>
      </trkpt>
      <trkpt lat="45.52411" lon="3.31661">
        <ele>378.1</ele>
        <time>2021-08-05T07:39:17Z</time>
      </trkpt>
      <trkpt lat="45.52402" lon="3.31666">
        <ele>378</ele>
        <time>2021-08-05T07:39:19Z</time>
      </trkpt>
      <trkpt lat="45.52393" lon="3.31671">
        <ele>378.1</ele>
        <time>2021-08-05T07:39:21Z</time>
      </trkpt>
      <trkpt lat="45.52384" lon="3.31677">
        <ele>378.2</ele>
        <time>2021-08-05T07:39:23Z</time>
      </trkpt>
      <trkpt lat="45.52375" lon="3.31685">
        <ele>378.2</ele>
        <time>2021-08-05T07:39:25Z</time>
      </trkpt>
      <trkpt lat="45.52367" lon="3.31694">
        <ele>378.3</ele>
        <time>2021-08-05T07:39:27Z</time>
      </trkpt>
      <trkpt lat="45.5236" lon="3.31703">
        <ele>378.3</ele>
        <time>2021-08-05T07:39:29Z</time>
      </trkpt>
      <trkpt lat="45.52353" lon="3.31713">
        <ele>378.3</ele>
        <time>2021-08-05T07:39:31Z</time>
      </trkpt>
      <trkpt lat="45.52346" lon="3.31723">
        <ele>378.2</ele>
        <time>2021-08-05T07:39:33Z</time>
      </trkpt>
      <trkpt lat="45.52339" lon="3.31733">
        <ele>378.1</ele>
        <time>2021-08-05T07:39:35Z</time>
      </trkpt>
      <trkpt lat="45.52333" lon="3.31743">
        <ele>378</ele>
        <time>2021-08-05T07:39:37Z</time>
      </trkpt>
      <trkpt lat="45.52326" lon="3.31752">
        <ele>378</ele>
        <time>2021-08-05T07:39:39Z</time>
      </trkpt>
      <trkpt lat="45.5232" lon="3.31762">
        <ele>378.3</ele>
        <time>2021-08-05T07:39:41Z</time>
      </trkpt>
      <trkpt lat="45.52313" lon="3.3177">
        <ele>378.5</ele>
        <time>2021-08-05T07:39:43Z</time>
      </trkpt>
      <trkpt lat="45.52307" lon="3.31779">
        <ele>378.7</ele>
        <time>2021-08-05T07:39:45Z</time>
      </trkpt>
      <trkpt lat="45.52301" lon="3.31788">
        <ele>378.9</ele>
        <time>2021-08-05T07:39:47Z</time>
      </trkpt>
      <trkpt lat="45.52295" lon="3.31797">
        <ele>379.1</ele>
        <time>2021-08-05T07:39:49Z</time>
      </trkpt>
      <trkpt lat="45.52289" lon="3.31806">
        <ele>379.3</ele>
        <time>2021-08-05T07:39:51Z</time>
      </trkpt>
      <trkpt lat="45.52284" lon="3.31814">
        <ele>379.5</ele>
        <time>2021-08-05T07:39:53Z</time>
      </trkpt>
      <trkpt lat="45.52278" lon="3.31824">
        <ele>379.8</ele>
        <time>2021-08-05T07:39:55Z</time>
      </trkpt>
      <trkpt lat="45.52273" lon="3.31833">
        <ele>380</ele>
        <time>2021-08-05T07:39:57Z</time>
      </trkpt>
      <trkpt lat="45.52268" lon="3.31844">
        <ele>380.1</ele>
        <time>2021-08-05T07:39:59Z</time>
      </trkpt>
      <trkpt lat="45.52262" lon="3.31854">
        <ele>380.2</ele>
        <time>2021-08-05T07:40:01Z</time>
      </trkpt>
      <trkpt lat="45.52257" lon="3.31864">
        <ele>380.4</ele>
        <time>2021-08-05T07:40:03Z</time>
      </trkpt>
      <trkpt lat="45.52251" lon="3.31874">
        <ele>380.5</ele>
        <time>2021-08-05T07:40:05Z</time>
      </trkpt>
      <trkpt lat="45.52246" lon="3.31885">
        <ele>380.6</ele>
        <time>2021-08-05T07:40:07Z</time>
      </trkpt>
      <trkpt lat="45.52241" lon="3.31896">
        <ele>380.7</ele>
        <time>2021-08-05T07:40:09Z</time>
      </trkpt>
      <trkpt lat="45.52235" lon="3.31906">
        <ele>380.7</ele>
        <time>2021-08-05T07:40:11Z</time>
      </trkpt>
      <trkpt lat="45.5223" lon="3.31917">
        <ele>380.8</ele>
        <time>2021-08-05T07:40:13Z</time>
      </trkpt>
      <trkpt lat="45.52224" lon="3.31927">
        <ele>380.7</ele>
        <time>2021-08-05T07:40:15Z</time>
      </trkpt>
      <trkpt lat="45.52219" lon="3.31938">
        <ele>380.6</ele>
        <time>2021-08-05T07:40:17Z</time>
      </trkpt>
      <trkpt lat="45.52213" lon="3.31948">
        <ele>380.6</ele>
        <time>2021-08-05T07:40:19Z</time>
      </trkpt>
      <trkpt lat="45.52208" lon="3.31959">
        <ele>380.5</ele>
        <time>2021-08-05T07:40:21Z</time>
      </trkpt>
      <trkpt lat="45.52202" lon="3.31969">
        <ele>380.4</ele>
        <time>2021-08-05T07:40:23Z</time>
      </trkpt>
      <trkpt lat="45.52197" lon="3.3198">
        <ele>380.4</ele>
        <time>2021-08-05T07:40:25Z</time>
      </trkpt>
      <trkpt lat="45.52192" lon="3.31991">
        <ele>380.3</ele>
        <time>2021-08-05T07:40:27Z</time>
      </trkpt>
      <trkpt lat="45.52188" lon="3.32003">
        <ele>380.3</ele>
        <time>2021-08-05T07:40:29Z</time>
      </trkpt>
      <trkpt lat="45.52185" lon="3.32015">
        <ele>380.5</ele>
        <time>2021-08-05T07:40:31Z</time>
      </trkpt>
      <trkpt lat="45.52182" lon="3.32027">
        <ele>380.6</ele>
        <time>2021-08-05T07:40:33Z</time>
      </trkpt>
      <trkpt lat="45.52179" lon="3.32039">
        <ele>380.8</ele>
        <time>2021-08-05T07:40:35Z</time>
      </trkpt>
      <trkpt lat="45.52175" lon="3.3205">
        <ele>380.8</ele>
        <time>2021-08-05T07:40:37Z</time>
      </trkpt>
      <trkpt lat="45.52172" lon="3.32062">
        <ele>380.9</ele>
        <time>2021-08-05T07:40:39Z</time>
      </trkpt>
      <trkpt lat="45.52168" lon="3.32073">
        <ele>380.9</ele>
        <time>2021-08-05T07:40:41Z</time>
      </trkpt>
      <trkpt lat="45.52164" lon="3.32085">
        <ele>381</ele>
        <time>2021-08-05T07:40:43Z</time>
      </trkpt>
      <trkpt lat="45.5216" lon="3.32096">
        <ele>381</ele>
        <time>2021-08-05T07:40:45Z</time>
      </trkpt>
      <trkpt lat="45.52156" lon="3.32108">
        <ele>381</ele>
        <time>2021-08-05T07:40:47Z</time>
      </trkpt>
      <trkpt lat="45.52152" lon="3.32119">
        <ele>381</ele>
        <time>2021-08-05T07:40:49Z</time>
      </trkpt>
      <trkpt lat="45.52148" lon="3.3213">
        <ele>381</ele>
        <time>2021-08-05T07:40:51Z</time>
      </trkpt>
      <trkpt lat="45.52143" lon="3.32141">
        <ele>381</ele>
        <time>2021-08-05T07:40:53Z</time>
      </trkpt>
      <trkpt lat="45.52139" lon="3.32152">
        <ele>381</ele>
        <time>2021-08-05T07:40:55Z</time>
      </trkpt>
      <trkpt lat="45.52135" lon="3.32162">
        <ele>381</ele>
        <time>2021-08-05T07:40:57Z</time>
      </trkpt>
      <trkpt lat="45.52131" lon="3.32172">
        <ele>381.1</ele>
        <time>2021-08-05T07:40:59Z</time>
      </trkpt>
      <trkpt lat="45.52127" lon="3.32183">
        <ele>381.4</ele>
        <time>2021-08-05T07:41:01Z</time>
      </trkpt>
      <trkpt lat="45.52123" lon="3.32193">
        <ele>381.6</ele>
        <time>2021-08-05T07:41:03Z</time>
      </trkpt>
      <trkpt lat="45.52117" lon="3.32203">
        <ele>381.9</ele>
        <time>2021-08-05T07:41:05Z</time>
      </trkpt>
      <trkpt lat="45.52111" lon="3.32212">
        <ele>382.1</ele>
        <time>2021-08-05T07:41:07Z</time>
      </trkpt>
      <trkpt lat="45.52104" lon="3.32219">
        <ele>382.3</ele>
        <time>2021-08-05T07:41:09Z</time>
      </trkpt>
      <trkpt lat="45.52097" lon="3.32225">
        <ele>382.4</ele>
        <time>2021-08-05T07:41:11Z</time>
      </trkpt>
      <trkpt lat="45.52089" lon="3.3223">
        <ele>382.5</ele>
        <time>2021-08-05T07:41:13Z</time>
      </trkpt>
      <trkpt lat="45.52081" lon="3.32234">
        <ele>382.6</ele>
        <time>2021-08-05T07:41:15Z</time>
      </trkpt>
      <trkpt lat="45.52073" lon="3.32237">
        <ele>382.7</ele>
        <time>2021-08-05T07:41:17Z</time>
      </trkpt>
      <trkpt lat="45.52065" lon="3.32242">
        <ele>382.8</ele>
        <time>2021-08-05T07:41:19Z</time>
      </trkpt>
      <trkpt lat="45.52057" lon="3.32246">
        <ele>382.9</ele>
        <time>2021-08-05T07:41:21Z</time>
      </trkpt>
      <trkpt lat="45.52048" lon="3.3225">
        <ele>383</ele>
        <time>2021-08-05T07:41:23Z</time>
      </trkpt>
      <trkpt lat="45.5204" lon="3.32254">
        <ele>383</ele>
        <time>2021-08-05T07:41:25Z</time>
      </trkpt>
      <trkpt lat="45.52032" lon="3.32259">
        <ele>383</ele>
        <time>2021-08-05T07:41:27Z</time>
      </trkpt>
      <trkpt lat="45.52024" lon="3.32263">
        <ele>383</ele>
        <time>2021-08-05T07:41:29Z</time>
      </trkpt>
      <trkpt lat="45.52016" lon="3.32268">
        <ele>383</ele>
        <time>2021-08-05T07:41:31Z</time>
      </trkpt>
      <trkpt lat="45.52008" lon="3.32274">
        <ele>383</ele>
        <time>2021-08-05T07:41:33Z</time>
      </trkpt>
      <trkpt lat="45.52" lon="3.3228">
        <ele>383</ele>
        <time>2021-08-05T07:41:35Z</time>
      </trkpt>
      <trkpt lat="45.51992" lon="3.32286">
        <ele>383</ele>
        <time>2021-08-05T07:41:37Z</time>
      </trkpt>
      <trkpt lat="45.51985" lon="3.32293">
        <ele>383</ele>
        <time>2021-08-05T07:41:39Z</time>
      </trkpt>
      <trkpt lat="45.51977" lon="3.323">
        <ele>383</ele>
        <time>2021-08-05T07:41:41Z</time>
      </trkpt>
      <trkpt lat="45.5197" lon="3.32308">
        <ele>383</ele>
        <time>2021-08-05T07:41:43Z</time>
      </trkpt>
      <trkpt lat="45.51963" lon="3.32316">
        <ele>383</ele>
        <time>2021-08-05T07:41:45Z</time>
      </trkpt>
      <trkpt lat="45.51956" lon="3.32324">
        <ele>383</ele>
        <time>2021-08-05T07:41:47Z</time>
      </trkpt>
      <trkpt lat="45.51948" lon="3.32332">
        <ele>383</ele>
        <time>2021-08-05T07:41:49Z</time>
      </trkpt>
      <trkpt lat="45.51941" lon="3.32339">
        <ele>383.1</ele>
        <time>2021-08-05T07:41:51Z</time>
      </trkpt>
      <trkpt lat="45.51933" lon="3.32347">
        <ele>383.2</ele>
        <time>2021-08-05T07:41:53Z</time>
      </trkpt>
      <trkpt lat="45.51926" lon="3.32355">
        <ele>383.3</ele>
        <time>2021-08-05T07:41:55Z</time>
      </trkpt>
      <trkpt lat="45.51918" lon="3.32362">
        <ele>383.3</ele>
        <time>2021-08-05T07:41:57Z</time>
      </trkpt>
      <trkpt lat="45.5191" lon="3.32367">
        <ele>383.4</ele>
        <time>2021-08-05T07:41:59Z</time>
      </trkpt>
      <trkpt lat="45.51902" lon="3.32372">
        <ele>383.5</ele>
        <time>2021-08-05T07:42:01Z</time>
      </trkpt>
      <trkpt lat="45.51894" lon="3.32376">
        <ele>383.5</ele>
        <time>2021-08-05T07:42:03Z</time>
      </trkpt>
      <trkpt lat="45.51886" lon="3.3238">
        <ele>383.6</ele>
        <time>2021-08-05T07:42:05Z</time>
      </trkpt>
      <trkpt lat="45.51877" lon="3.32382">
        <ele>383.6</ele>
        <time>2021-08-05T07:42:07Z</time>
      </trkpt>
      <trkpt lat="45.51869" lon="3.32383">
        <ele>383.6</ele>
        <time>2021-08-05T07:42:09Z</time>
      </trkpt>
      <trkpt lat="45.5186" lon="3.32384">
        <ele>383.6</ele>
        <time>2021-08-05T07:42:11Z</time>
      </trkpt>
      <trkpt lat="45.51851" lon="3.32385">
        <ele>383.6</ele>
        <time>2021-08-05T07:42:13Z</time>
      </trkpt>
      <trkpt lat="45.51842" lon="3.32386">
        <ele>383.6</ele>
        <time>2021-08-05T07:42:15Z</time>
      </trkpt>
      <trkpt lat="45.51833" lon="3.32387">
        <ele>383.6</ele>
        <time>2021-08-05T07:42:17Z</time>
      </trkpt>
      <trkpt lat="45.51824" lon="3.32387">
        <ele>383.8</ele>
        <time>2021-08-05T07:42:19Z</time>
      </trkpt>
      <trkpt lat="45.51815" lon="3.32387">
        <ele>383.9</ele>
        <time>2021-08-05T07:42:21Z</time>
      </trkpt>
      <trkpt lat="45.51806" lon="3.32389">
        <ele>384</ele>
        <time>2021-08-05T07:42:23Z</time>
      </trkpt>
      <trkpt lat="45.51797" lon="3.32392">
        <ele>384.1</ele>
        <time>2021-08-05T07:42:25Z</time>
      </trkpt>
      <trkpt lat="45.51789" lon="3.32397">
        <ele>384.3</ele>
        <time>2021-08-05T07:42:27Z</time>
      </trkpt>
      <trkpt lat="45.51782" lon="3.32402">
        <ele>384.4</ele>
        <time>2021-08-05T07:42:29Z</time>
      </trkpt>
      <trkpt lat="45.51774" lon="3.32408">
        <ele>384.6</ele>
        <time>2021-08-05T07:42:31Z</time>
      </trkpt>
      <trkpt lat="45.51767" lon="3.32414">
        <ele>384.8</ele>
        <time>2021-08-05T07:42:33Z</time>
      </trkpt>
      <trkpt lat="45.51759" lon="3.3242">
        <ele>384.9</ele>
        <time>2021-08-05T07:42:35Z</time>
      </trkpt>
      <trkpt lat="45.51752" lon="3.32427">
        <ele>385</ele>
        <time>2021-08-05T07:42:37Z</time>
      </trkpt>
      <trkpt lat="45.51745" lon="3.32434">
        <ele>385</ele>
        <time>2021-08-05T07:42:39Z</time>
      </trkpt>
      <trkpt lat="45.51739" lon="3.32443">
        <ele>385</ele>
        <time>2021-08-05T07:42:41Z</time>
      </trkpt>
      <trkpt lat="45.51733" lon="3.32452">
        <ele>385.1</ele>
        <time>2021-08-05T07:42:43Z</time>
      </trkpt>
      <trkpt lat="45.51728" lon="3.32461">
        <ele>385.1</ele>
        <time>2021-08-05T07:42:45Z</time>
      </trkpt>
      <trkpt lat="45.51722" lon="3.32471">
        <ele>385.2</ele>
        <time>2021-08-05T07:42:47Z</time>
      </trkpt>
      <trkpt lat="45.51717" lon="3.3248">
        <ele>385.3</ele>
        <time>2021-08-05T07:42:49Z</time>
      </trkpt>
      <trkpt lat="45.51712" lon="3.3249">
        <ele>385.4</ele>
        <time>2021-08-05T07:42:51Z</time>
      </trkpt>
      <trkpt lat="45.51707" lon="3.325">
        <ele>385.5</ele>
        <time>2021-08-05T07:42:53Z</time>
      </trkpt>
      <trkpt lat="45.51702" lon="3.3251">
        <ele>385.6</ele>
        <time>2021-08-05T07:42:55Z</time>
      </trkpt>
      <trkpt lat="45.51697" lon="3.3252">
        <ele>385.7</ele>
        <time>2021-08-05T07:42:57Z</time>
      </trkpt>
      <trkpt lat="45.51692" lon="3.3253">
        <ele>385.8</ele>
        <time>2021-08-05T07:42:59Z</time>
      </trkpt>
      <trkpt lat="45.51687" lon="3.3254">
        <ele>385.9</ele>
        <time>2021-08-05T07:43:01Z</time>
      </trkpt>
      <trkpt lat="45.51682" lon="3.32549">
        <ele>385.9</ele>
        <time>2021-08-05T07:43:03Z</time>
      </trkpt>
      <trkpt lat="45.51677" lon="3.32559">
        <ele>386</ele>
        <time>2021-08-05T07:43:05Z</time>
      </trkpt>
      <trkpt lat="45.51672" lon="3.32568">
        <ele>386</ele>
        <time>2021-08-05T07:43:07Z</time>
      </trkpt>
      <trkpt lat="45.51667" lon="3.32578">
        <ele>386</ele>
        <time>2021-08-05T07:43:09Z</time>
      </trkpt>
      <trkpt lat="45.51662" lon="3.32587">
        <ele>386.1</ele>
        <time>2021-08-05T07:43:11Z</time>
      </trkpt>
      <trkpt lat="45.51658" lon="3.32597">
        <ele>386.3</ele>
        <time>2021-08-05T07:43:13Z</time>
      </trkpt>
      <trkpt lat="45.51653" lon="3.32606">
        <ele>386.4</ele>
        <time>2021-08-05T07:43:15Z</time>
      </trkpt>
      <trkpt lat="45.51648" lon="3.32615">
        <ele>386.6</ele>
        <time>2021-08-05T07:43:17Z</time>
      </trkpt>
      <trkpt lat="45.51643" lon="3.32625">
        <ele>386.8</ele>
        <time>2021-08-05T07:43:19Z</time>
      </trkpt>
      <trkpt lat="45.51639" lon="3.32634">
        <ele>386.9</ele>
        <time>2021-08-05T07:43:21Z</time>
      </trkpt>
      <trkpt lat="45.51634" lon="3.32642">
        <ele>387.1</ele>
        <time>2021-08-05T07:43:23Z</time>
      </trkpt>
      <trkpt lat="45.51629" lon="3.32651">
        <ele>387.3</ele>
        <time>2021-08-05T07:43:25Z</time>
      </trkpt>
      <trkpt lat="45.51625" lon="3.3266">
        <ele>387.4</ele>
        <time>2021-08-05T07:43:27Z</time>
      </trkpt>
      <trkpt lat="45.51621" lon="3.32669">
        <ele>387.6</ele>
        <time>2021-08-05T07:43:29Z</time>
      </trkpt>
      <trkpt lat="45.51616" lon="3.32677">
        <ele>387.8</ele>
        <time>2021-08-05T07:43:31Z</time>
      </trkpt>
      <trkpt lat="45.51612" lon="3.32686">
        <ele>388</ele>
        <time>2021-08-05T07:43:33Z</time>
      </trkpt>
      <trkpt lat="45.51608" lon="3.32694">
        <ele>388.1</ele>
        <time>2021-08-05T07:43:35Z</time>
      </trkpt>
      <trkpt lat="45.51603" lon="3.327">
        <ele>388.3</ele>
        <time>2021-08-05T07:43:37Z</time>
      </trkpt>
      <trkpt lat="45.51597" lon="3.327">
        <ele>388.3</ele>
        <time>2021-08-05T07:43:39Z</time>
      </trkpt>
      <trkpt lat="45.51593" lon="3.32693">
        <ele>388.2</ele>
        <time>2021-08-05T07:43:41Z</time>
      </trkpt>
      <trkpt lat="45.51591" lon="3.32684">
        <ele>388.1</ele>
        <time>2021-08-05T07:43:43Z</time>
      </trkpt>
      <trkpt lat="45.51588" lon="3.32674">
        <ele>388</ele>
        <time>2021-08-05T07:43:45Z</time>
      </trkpt>
      <trkpt lat="45.51585" lon="3.32664">
        <ele>387.9</ele>
        <time>2021-08-05T07:43:47Z</time>
      </trkpt>
      <trkpt lat="45.51582" lon="3.32655">
        <ele>387.8</ele>
        <time>2021-08-05T07:43:49Z</time>
      </trkpt>
      <trkpt lat="45.51579" lon="3.32646">
        <ele>387.7</ele>
        <time>2021-08-05T07:43:51Z</time>
      </trkpt>
      <trkpt lat="45.51576" lon="3.32635">
        <ele>387.5</ele>
        <time>2021-08-05T07:43:53Z</time>
      </trkpt>
      <trkpt lat="45.51571" lon="3.32624">
        <ele>387.3</ele>
        <time>2021-08-05T07:43:55Z</time>
      </trkpt>
      <trkpt lat="45.51565" lon="3.32614">
        <ele>387.1</ele>
        <time>2021-08-05T07:43:57Z</time>
      </trkpt>
      <trkpt lat="45.51557" lon="3.32605">
        <ele>386.9</ele>
        <time>2021-08-05T07:43:59Z</time>
      </trkpt>
      <trkpt lat="45.51549" lon="3.32597">
        <ele>386.7</ele>
        <time>2021-08-05T07:44:01Z</time>
      </trkpt>
      <trkpt lat="45.5154" lon="3.32589">
        <ele>386.5</ele>
        <time>2021-08-05T07:44:03Z</time>
      </trkpt>
      <trkpt lat="45.51532" lon="3.3258">
        <ele>386.4</ele>
        <time>2021-08-05T07:44:05Z</time>
      </trkpt>
      <trkpt lat="45.51523" lon="3.32572">
        <ele>386.2</ele>
        <time>2021-08-05T07:44:07Z</time>
      </trkpt>
      <trkpt lat="45.51515" lon="3.32564">
        <ele>386.1</ele>
        <time>2021-08-05T07:44:09Z</time>
      </trkpt>
      <trkpt lat="45.51506" lon="3.32556">
        <ele>386.1</ele>
        <time>2021-08-05T07:44:11Z</time>
      </trkpt>
      <trkpt lat="45.51499" lon="3.32548">
        <ele>386</ele>
        <time>2021-08-05T07:44:13Z</time>
      </trkpt>
      <trkpt lat="45.5149" lon="3.3254">
        <ele>386</ele>
        <time>2021-08-05T07:44:15Z</time>
      </trkpt>
      <trkpt lat="45.51482" lon="3.32533">
        <ele>386</ele>
        <time>2021-08-05T07:44:17Z</time>
      </trkpt>
      <trkpt lat="45.51475" lon="3.32526">
        <ele>385.9</ele>
        <time>2021-08-05T07:44:19Z</time>
      </trkpt>
      <trkpt lat="45.51467" lon="3.32518">
        <ele>385.8</ele>
        <time>2021-08-05T07:44:21Z</time>
      </trkpt>
      <trkpt lat="45.5146" lon="3.32511">
        <ele>385.6</ele>
        <time>2021-08-05T07:44:23Z</time>
      </trkpt>
      <trkpt lat="45.51454" lon="3.32504">
        <ele>385.5</ele>
        <time>2021-08-05T07:44:25Z</time>
      </trkpt>
      <trkpt lat="45.51447" lon="3.32496">
        <ele>385.4</ele>
        <time>2021-08-05T07:44:27Z</time>
      </trkpt>
      <trkpt lat="45.51442" lon="3.32488">
        <ele>385.4</ele>
        <time>2021-08-05T07:44:29Z</time>
      </trkpt>
      <trkpt lat="45.51436" lon="3.32478">
        <ele>385.5</ele>
        <time>2021-08-05T07:44:31Z</time>
      </trkpt>
      <trkpt lat="45.51431" lon="3.32468">
        <ele>385.6</ele>
        <time>2021-08-05T07:44:33Z</time>
      </trkpt>
      <trkpt lat="45.51427" lon="3.32457">
        <ele>385.6</ele>
        <time>2021-08-05T07:44:35Z</time>
      </trkpt>
      <trkpt lat="45.51423" lon="3.32446">
        <ele>385.7</ele>
        <time>2021-08-05T07:44:37Z</time>
      </trkpt>
      <trkpt lat="45.51418" lon="3.32434">
        <ele>385.8</ele>
        <time>2021-08-05T07:44:39Z</time>
      </trkpt>
      <trkpt lat="45.51414" lon="3.32422">
        <ele>385.9</ele>
        <time>2021-08-05T07:44:41Z</time>
      </trkpt>
      <trkpt lat="45.51409" lon="3.3241">
        <ele>386.1</ele>
        <time>2021-08-05T07:44:43Z</time>
      </trkpt>
      <trkpt lat="45.51405" lon="3.32398">
        <ele>386.2</ele>
        <time>2021-08-05T07:44:45Z</time>
      </trkpt>
      <trkpt lat="45.51401" lon="3.32385">
        <ele>386.4</ele>
        <time>2021-08-05T07:44:47Z</time>
      </trkpt>
      <trkpt lat="45.51398" lon="3.32372">
        <ele>386.5</ele>
        <time>2021-08-05T07:44:49Z</time>
      </trkpt>
      <trkpt lat="45.51395" lon="3.32359">
        <ele>386.7</ele>
        <time>2021-08-05T07:44:51Z</time>
      </trkpt>
      <trkpt lat="45.51393" lon="3.32346">
        <ele>386.9</ele>
        <time>2021-08-05T07:44:53Z</time>
      </trkpt>
      <trkpt lat="45.51392" lon="3.32332">
        <ele>387</ele>
        <time>2021-08-05T07:44:55Z</time>
      </trkpt>
      <trkpt lat="45.51392" lon="3.32319">
        <ele>386.8</ele>
        <time>2021-08-05T07:44:57Z</time>
      </trkpt>
      <trkpt lat="45.51393" lon="3.32305">
        <ele>386.6</ele>
        <time>2021-08-05T07:44:59Z</time>
      </trkpt>
      <trkpt lat="45.51396" lon="3.32293">
        <ele>386.4</ele>
        <time>2021-08-05T07:45:01Z</time>
      </trkpt>
      <trkpt lat="45.51398" lon="3.3228">
        <ele>386.2</ele>
        <time>2021-08-05T07:45:03Z</time>
      </trkpt>
      <trkpt lat="45.514" lon="3.32268">
        <ele>386.1</ele>
        <time>2021-08-05T07:45:05Z</time>
      </trkpt>
      <trkpt lat="45.51403" lon="3.32257">
        <ele>385.9</ele>
        <time>2021-08-05T07:45:07Z</time>
      </trkpt>
      <trkpt lat="45.51404" lon="3.32245">
        <ele>385.8</ele>
        <time>2021-08-05T07:45:09Z</time>
      </trkpt>
      <trkpt lat="45.51403" lon="3.32233">
        <ele>385.6</ele>
        <time>2021-08-05T07:45:11Z</time>
      </trkpt>
      <trkpt lat="45.51399" lon="3.32223">
        <ele>385.5</ele>
        <time>2021-08-05T07:45:13Z</time>
      </trkpt>
      <trkpt lat="45.51393" lon="3.32214">
        <ele>385.3</ele>
        <time>2021-08-05T07:45:15Z</time>
      </trkpt>
      <trkpt lat="45.51388" lon="3.32206">
        <ele>385.1</ele>
        <time>2021-08-05T07:45:17Z</time>
      </trkpt>
      <trkpt lat="45.51382" lon="3.32199">
        <ele>385</ele>
        <time>2021-08-05T07:45:19Z</time>
      </trkpt>
      <trkpt lat="45.51377" lon="3.32193">
        <ele>384.8</ele>
        <time>2021-08-05T07:45:21Z</time>
      </trkpt>
      <trkpt lat="45.51373" lon="3.32187">
        <ele>384.7</ele>
        <time>2021-08-05T07:45:23Z</time>
      </trkpt>
      <trkpt lat="45.51368" lon="3.32182">
        <ele>384.6</ele>
        <time>2021-08-05T07:45:25Z</time>
      </trkpt>
      <trkpt lat="45.51364" lon="3.32177">
        <ele>384.5</ele>
        <time>2021-08-05T07:45:27Z</time>
      </trkpt>
      <trkpt lat="45.51359" lon="3.32171">
        <ele>384.4</ele>
        <time>2021-08-05T07:45:29Z</time>
      </trkpt>
      <trkpt lat="45.51354" lon="3.32164">
        <ele>384.2</ele>
        <time>2021-08-05T07:45:31Z</time>
      </trkpt>
      <trkpt lat="45.51348" lon="3.32157">
        <ele>384.2</ele>
        <time>2021-08-05T07:45:33Z</time>
      </trkpt>
      <trkpt lat="45.51343" lon="3.32148">
        <ele>384.1</ele>
        <time>2021-08-05T07:45:35Z</time>
      </trkpt>
      <trkpt lat="45.51336" lon="3.32139">
        <ele>384</ele>
        <time>2021-08-05T07:45:37Z</time>
      </trkpt>
      <trkpt lat="45.5133" lon="3.32129">
        <ele>384.1</ele>
        <time>2021-08-05T07:45:39Z</time>
      </trkpt>
      <trkpt lat="45.51324" lon="3.3212">
        <ele>384.2</ele>
        <time>2021-08-05T07:45:41Z</time>
      </trkpt>
      <trkpt lat="45.51318" lon="3.3211">
        <ele>384.3</ele>
        <time>2021-08-05T07:45:43Z</time>
      </trkpt>
      <trkpt lat="45.51312" lon="3.321">
        <ele>384.5</ele>
        <time>2021-08-05T07:45:45Z</time>
      </trkpt>
      <trkpt lat="45.51306" lon="3.3209">
        <ele>384.6</ele>
        <time>2021-08-05T07:45:47Z</time>
      </trkpt>
      <trkpt lat="45.513" lon="3.3208">
        <ele>384.8</ele>
        <time>2021-08-05T07:45:49Z</time>
      </trkpt>
      <trkpt lat="45.51294" lon="3.3207">
        <ele>385</ele>
        <time>2021-08-05T07:45:51Z</time>
      </trkpt>
      <trkpt lat="45.51286" lon="3.32063">
        <ele>385.3</ele>
        <time>2021-08-05T07:45:53Z</time>
      </trkpt>
      <trkpt lat="45.51279" lon="3.32056">
        <ele>385.5</ele>
        <time>2021-08-05T07:45:55Z</time>
      </trkpt>
      <trkpt lat="45.51271" lon="3.32049">
        <ele>385.8</ele>
        <time>2021-08-05T07:45:57Z</time>
      </trkpt>
      <trkpt lat="45.51264" lon="3.32041">
        <ele>386.1</ele>
        <time>2021-08-05T07:45:59Z</time>
      </trkpt>
      <trkpt lat="45.51256" lon="3.32035">
        <ele>386.4</ele>
        <time>2021-08-05T07:46:01Z</time>
      </trkpt>
      <trkpt lat="45.51249" lon="3.32029">
        <ele>386.7</ele>
        <time>2021-08-05T07:46:03Z</time>
      </trkpt>
      <trkpt lat="45.51241" lon="3.32023">
        <ele>386.9</ele>
        <time>2021-08-05T07:46:05Z</time>
      </trkpt>
      <trkpt lat="45.51233" lon="3.32018">
        <ele>387.1</ele>
        <time>2021-08-05T07:46:07Z</time>
      </trkpt>
      <trkpt lat="45.51225" lon="3.32016">
        <ele>387.3</ele>
        <time>2021-08-05T07:46:09Z</time>
      </trkpt>
      <trkpt lat="45.51216" lon="3.32013">
        <ele>387.5</ele>
        <time>2021-08-05T07:46:11Z</time>
      </trkpt>
      <trkpt lat="45.51208" lon="3.3201">
        <ele>387.8</ele>
        <time>2021-08-05T07:46:13Z</time>
      </trkpt>
      <trkpt lat="45.512" lon="3.32008">
        <ele>388</ele>
        <time>2021-08-05T07:46:15Z</time>
      </trkpt>
      <trkpt lat="45.51192" lon="3.32006">
        <ele>388.2</ele>
        <time>2021-08-05T07:46:17Z</time>
      </trkpt>
      <trkpt lat="45.51184" lon="3.32004">
        <ele>388.5</ele>
        <time>2021-08-05T07:46:19Z</time>
      </trkpt>
      <trkpt lat="45.51176" lon="3.32002">
        <ele>388.7</ele>
        <time>2021-08-05T07:46:21Z</time>
      </trkpt>
      <trkpt lat="45.51168" lon="3.32">
        <ele>388.9</ele>
        <time>2021-08-05T07:46:23Z</time>
      </trkpt>
      <trkpt lat="45.51161" lon="3.31999">
        <ele>389.2</ele>
        <time>2021-08-05T07:46:25Z</time>
      </trkpt>
      <trkpt lat="45.51153" lon="3.31999">
        <ele>389.5</ele>
        <time>2021-08-05T07:46:27Z</time>
      </trkpt>
      <trkpt lat="45.51146" lon="3.31999">
        <ele>389.8</ele>
        <time>2021-08-05T07:46:29Z</time>
      </trkpt>
      <trkpt lat="45.51138" lon="3.31999">
        <ele>390</ele>
        <time>2021-08-05T07:46:31Z</time>
      </trkpt>
      <trkpt lat="45.5113" lon="3.31999">
        <ele>390.3</ele>
        <time>2021-08-05T07:46:33Z</time>
      </trkpt>
      <trkpt lat="45.51124" lon="3.31998">
        <ele>390.6</ele>
        <time>2021-08-05T07:46:35Z</time>
      </trkpt>
      <trkpt lat="45.51116" lon="3.31996">
        <ele>390.8</ele>
        <time>2021-08-05T07:46:37Z</time>
      </trkpt>
      <trkpt lat="45.51109" lon="3.31995">
        <ele>391.1</ele>
        <time>2021-08-05T07:46:39Z</time>
      </trkpt>
      <trkpt lat="45.51103" lon="3.31993">
        <ele>391.2</ele>
        <time>2021-08-05T07:46:41Z</time>
      </trkpt>
      <trkpt lat="45.51097" lon="3.31992">
        <ele>391.5</ele>
        <time>2021-08-05T07:46:43Z</time>
      </trkpt>
      <trkpt lat="45.5109" lon="3.31989">
        <ele>391.6</ele>
        <time>2021-08-05T07:46:45Z</time>
      </trkpt>
      <trkpt lat="45.51084" lon="3.31984">
        <ele>391.8</ele>
        <time>2021-08-05T07:46:47Z</time>
      </trkpt>
      <trkpt lat="45.5108" lon="3.3198">
        <ele>391.7</ele>
        <time>2021-08-05T07:46:49Z</time>
      </trkpt>
      <trkpt lat="45.51078" lon="3.31973">
        <ele>391.7</ele>
        <time>2021-08-05T07:46:51Z</time>
      </trkpt>
      <trkpt lat="45.51078" lon="3.31967">
        <ele>391.6</ele>
        <time>2021-08-05T07:46:53Z</time>
      </trkpt>
      <trkpt lat="45.51079" lon="3.31957">
        <ele>391.5</ele>
        <time>2021-08-05T07:46:55Z</time>
      </trkpt>
      <trkpt lat="45.51083" lon="3.31949">
        <ele>391.4</ele>
        <time>2021-08-05T07:46:57Z</time>
      </trkpt>
      <trkpt lat="45.51085" lon="3.31939">
        <ele>391.2</ele>
        <time>2021-08-05T07:46:59Z</time>
      </trkpt>
      <trkpt lat="45.51085" lon="3.31928">
        <ele>391.1</ele>
        <time>2021-08-05T07:47:01Z</time>
      </trkpt>
      <trkpt lat="45.51081" lon="3.31917">
        <ele>391</ele>
        <time>2021-08-05T07:47:03Z</time>
      </trkpt>
      <trkpt lat="45.51076" lon="3.31909">
        <ele>390.9</ele>
        <time>2021-08-05T07:47:05Z</time>
      </trkpt>
      <trkpt lat="45.5107" lon="3.31902">
        <ele>390.9</ele>
        <time>2021-08-05T07:47:07Z</time>
      </trkpt>
      <trkpt lat="45.51065" lon="3.31895">
        <ele>390.8</ele>
        <time>2021-08-05T07:47:09Z</time>
      </trkpt>
      <trkpt lat="45.5106" lon="3.31888">
        <ele>390.8</ele>
        <time>2021-08-05T07:47:11Z</time>
      </trkpt>
      <trkpt lat="45.51055" lon="3.31879">
        <ele>390.8</ele>
        <time>2021-08-05T07:47:13Z</time>
      </trkpt>
      <trkpt lat="45.5105" lon="3.31872">
        <ele>390.8</ele>
        <time>2021-08-05T07:47:15Z</time>
      </trkpt>
      <trkpt lat="45.51044" lon="3.31864">
        <ele>390.8</ele>
        <time>2021-08-05T07:47:17Z</time>
      </trkpt>
      <trkpt lat="45.51038" lon="3.31856">
        <ele>390.9</ele>
        <time>2021-08-05T07:47:19Z</time>
      </trkpt>
      <trkpt lat="45.51034" lon="3.31846">
        <ele>390.9</ele>
        <time>2021-08-05T07:47:21Z</time>
      </trkpt>
      <trkpt lat="45.51029" lon="3.31836">
        <ele>391</ele>
        <time>2021-08-05T07:47:23Z</time>
      </trkpt>
      <trkpt lat="45.51024" lon="3.31825">
        <ele>391</ele>
        <time>2021-08-05T07:47:25Z</time>
      </trkpt>
      <trkpt lat="45.5102" lon="3.31814">
        <ele>391</ele>
        <time>2021-08-05T07:47:27Z</time>
      </trkpt>
      <trkpt lat="45.51017" lon="3.31803">
        <ele>391</ele>
        <time>2021-08-05T07:47:29Z</time>
      </trkpt>
      <trkpt lat="45.51013" lon="3.31791">
        <ele>391</ele>
        <time>2021-08-05T07:47:31Z</time>
      </trkpt>
      <trkpt lat="45.51011" lon="3.31778">
        <ele>391</ele>
        <time>2021-08-05T07:47:33Z</time>
      </trkpt>
      <trkpt lat="45.51008" lon="3.31766">
        <ele>391</ele>
        <time>2021-08-05T07:47:35Z</time>
      </trkpt>
      <trkpt lat="45.51005" lon="3.31754">
        <ele>391</ele>
        <time>2021-08-05T07:47:37Z</time>
      </trkpt>
      <trkpt lat="45.51002" lon="3.31741">
        <ele>391</ele>
        <time>2021-08-05T07:47:39Z</time>
      </trkpt>
      <trkpt lat="45.51" lon="3.31729">
        <ele>391</ele>
        <time>2021-08-05T07:47:41Z</time>
      </trkpt>
      <trkpt lat="45.50997" lon="3.31717">
        <ele>391</ele>
        <time>2021-08-05T07:47:43Z</time>
      </trkpt>
      <trkpt lat="45.50994" lon="3.31706">
        <ele>391</ele>
        <time>2021-08-05T07:47:45Z</time>
      </trkpt>
      <trkpt lat="45.50989" lon="3.31695">
        <ele>391.1</ele>
        <time>2021-08-05T07:47:47Z</time>
      </trkpt>
      <trkpt lat="45.50984" lon="3.31686">
        <ele>391.2</ele>
        <time>2021-08-05T07:47:49Z</time>
      </trkpt>
      <trkpt lat="45.50977" lon="3.31678">
        <ele>391.2</ele>
        <time>2021-08-05T07:47:51Z</time>
      </trkpt>
      <trkpt lat="45.50969" lon="3.31672">
        <ele>391.3</ele>
        <time>2021-08-05T07:47:53Z</time>
      </trkpt>
      <trkpt lat="45.50961" lon="3.31666">
        <ele>391.5</ele>
        <time>2021-08-05T07:47:55Z</time>
      </trkpt>
      <trkpt lat="45.50952" lon="3.31661">
        <ele>391.5</ele>
        <time>2021-08-05T07:47:57Z</time>
      </trkpt>
      <trkpt lat="45.50944" lon="3.31655">
        <ele>391.5</ele>
        <time>2021-08-05T07:47:59Z</time>
      </trkpt>
      <trkpt lat="45.50936" lon="3.31649">
        <ele>391.5</ele>
        <time>2021-08-05T07:48:01Z</time>
      </trkpt>
      <trkpt lat="45.50929" lon="3.31641">
        <ele>391.5</ele>
        <time>2021-08-05T07:48:03Z</time>
      </trkpt>
      <trkpt lat="45.50923" lon="3.31632">
        <ele>391.5</ele>
        <time>2021-08-05T07:48:05Z</time>
      </trkpt>
      <trkpt lat="45.50916" lon="3.31623">
        <ele>391.5</ele>
        <time>2021-08-05T07:48:07Z</time>
      </trkpt>
      <trkpt lat="45.5091" lon="3.31613">
        <ele>391.4</ele>
        <time>2021-08-05T07:48:09Z</time>
      </trkpt>
      <trkpt lat="45.50904" lon="3.31604">
        <ele>391.2</ele>
        <time>2021-08-05T07:48:11Z</time>
      </trkpt>
      <trkpt lat="45.50899" lon="3.31594">
        <ele>391.1</ele>
        <time>2021-08-05T07:48:13Z</time>
      </trkpt>
      <trkpt lat="45.50893" lon="3.31584">
        <ele>391</ele>
        <time>2021-08-05T07:48:15Z</time>
      </trkpt>
      <trkpt lat="45.50887" lon="3.31575">
        <ele>391</ele>
        <time>2021-08-05T07:48:17Z</time>
      </trkpt>
      <trkpt lat="45.50881" lon="3.31565">
        <ele>391</ele>
        <time>2021-08-05T07:48:19Z</time>
      </trkpt>
      <trkpt lat="45.50875" lon="3.31555">
        <ele>391</ele>
        <time>2021-08-05T07:48:21Z</time>
      </trkpt>
      <trkpt lat="45.50869" lon="3.31544">
        <ele>391</ele>
        <time>2021-08-05T07:48:23Z</time>
      </trkpt>
      <trkpt lat="45.50863" lon="3.31534">
        <ele>391</ele>
        <time>2021-08-05T07:48:25Z</time>
      </trkpt>
      <trkpt lat="45.50858" lon="3.31523">
        <ele>391</ele>
        <time>2021-08-05T07:48:27Z</time>
      </trkpt>
      <trkpt lat="45.50852" lon="3.31512">
        <ele>391</ele>
        <time>2021-08-05T07:48:29Z</time>
      </trkpt>
      <trkpt lat="45.50847" lon="3.31501">
        <ele>391</ele>
        <time>2021-08-05T07:48:31Z</time>
      </trkpt>
      <trkpt lat="45.50841" lon="3.31489">
        <ele>391</ele>
        <time>2021-08-05T07:48:33Z</time>
      </trkpt>
      <trkpt lat="45.50836" lon="3.31478">
        <ele>391</ele>
        <time>2021-08-05T07:48:35Z</time>
      </trkpt>
      <trkpt lat="45.50831" lon="3.31467">
        <ele>391</ele>
        <time>2021-08-05T07:48:37Z</time>
      </trkpt>
      <trkpt lat="45.50826" lon="3.31455">
        <ele>391.1</ele>
        <time>2021-08-05T07:48:39Z</time>
      </trkpt>
      <trkpt lat="45.50821" lon="3.31443">
        <ele>391.1</ele>
        <time>2021-08-05T07:48:41Z</time>
      </trkpt>
      <trkpt lat="45.50815" lon="3.31431">
        <ele>391.1</ele>
        <time>2021-08-05T07:48:43Z</time>
      </trkpt>
      <trkpt lat="45.5081" lon="3.31419">
        <ele>391</ele>
        <time>2021-08-05T07:48:45Z</time>
      </trkpt>
      <trkpt lat="45.50805" lon="3.31407">
        <ele>391</ele>
        <time>2021-08-05T07:48:47Z</time>
      </trkpt>
      <trkpt lat="45.508" lon="3.31395">
        <ele>391</ele>
        <time>2021-08-05T07:48:49Z</time>
      </trkpt>
      <trkpt lat="45.50794" lon="3.31382">
        <ele>391</ele>
        <time>2021-08-05T07:48:51Z</time>
      </trkpt>
      <trkpt lat="45.50789" lon="3.3137">
        <ele>391</ele>
        <time>2021-08-05T07:48:53Z</time>
      </trkpt>
      <trkpt lat="45.50783" lon="3.31358">
        <ele>391</ele>
        <time>2021-08-05T07:48:55Z</time>
      </trkpt>
      <trkpt lat="45.50778" lon="3.31346">
        <ele>391</ele>
        <time>2021-08-05T07:48:57Z</time>
      </trkpt>
      <trkpt lat="45.50773" lon="3.31334">
        <ele>391</ele>
        <time>2021-08-05T07:48:59Z</time>
      </trkpt>
      <trkpt lat="45.50767" lon="3.31322">
        <ele>390.9</ele>
        <time>2021-08-05T07:49:01Z</time>
      </trkpt>
      <trkpt lat="45.50762" lon="3.31309">
        <ele>390.8</ele>
        <time>2021-08-05T07:49:03Z</time>
      </trkpt>
      <trkpt lat="45.50756" lon="3.31298">
        <ele>390.6</ele>
        <time>2021-08-05T07:49:05Z</time>
      </trkpt>
      <trkpt lat="45.5075" lon="3.31286">
        <ele>390.4</ele>
        <time>2021-08-05T07:49:07Z</time>
      </trkpt>
      <trkpt lat="45.50744" lon="3.31275">
        <ele>390.4</ele>
        <time>2021-08-05T07:49:09Z</time>
      </trkpt>
      <trkpt lat="45.50737" lon="3.31265">
        <ele>390.3</ele>
        <time>2021-08-05T07:49:11Z</time>
      </trkpt>
      <trkpt lat="45.50729" lon="3.31256">
        <ele>390.3</ele>
        <time>2021-08-05T07:49:13Z</time>
      </trkpt>
      <trkpt lat="45.50721" lon="3.31247">
        <ele>390.4</ele>
        <time>2021-08-05T07:49:15Z</time>
      </trkpt>
      <trkpt lat="45.50713" lon="3.31238">
        <ele>390.6</ele>
        <time>2021-08-05T07:49:17Z</time>
      </trkpt>
      <trkpt lat="45.50705" lon="3.31228">
        <ele>390.8</ele>
        <time>2021-08-05T07:49:19Z</time>
      </trkpt>
      <trkpt lat="45.50697" lon="3.3122">
        <ele>391</ele>
        <time>2021-08-05T07:49:21Z</time>
      </trkpt>
      <trkpt lat="45.50689" lon="3.31211">
        <ele>391.2</ele>
        <time>2021-08-05T07:49:23Z</time>
      </trkpt>
      <trkpt lat="45.50681" lon="3.31203">
        <ele>391.4</ele>
        <time>2021-08-05T07:49:25Z</time>
      </trkpt>
      <trkpt lat="45.50673" lon="3.31195">
        <ele>391.6</ele>
        <time>2021-08-05T07:49:27Z</time>
      </trkpt>
      <trkpt lat="45.50664" lon="3.31188">
        <ele>391.8</ele>
        <time>2021-08-05T07:49:29Z</time>
      </trkpt>
      <trkpt lat="45.50655" lon="3.31182">
        <ele>392.2</ele>
        <time>2021-08-05T07:49:31Z</time>
      </trkpt>
      <trkpt lat="45.50646" lon="3.31176">
        <ele>392.5</ele>
        <time>2021-08-05T07:49:33Z</time>
      </trkpt>
      <trkpt lat="45.50637" lon="3.31171">
        <ele>392.7</ele>
        <time>2021-08-05T07:49:35Z</time>
      </trkpt>
      <trkpt lat="45.50627" lon="3.31168">
        <ele>392.9</ele>
        <time>2021-08-05T07:49:37Z</time>
      </trkpt>
      <trkpt lat="45.50618" lon="3.31164">
        <ele>393.1</ele>
        <time>2021-08-05T07:49:39Z</time>
      </trkpt>
      <trkpt lat="45.5061" lon="3.31162">
        <ele>393.3</ele>
        <time>2021-08-05T07:49:41Z</time>
      </trkpt>
      <trkpt lat="45.50601" lon="3.31159">
        <ele>393.5</ele>
        <time>2021-08-05T07:49:43Z</time>
      </trkpt>
      <trkpt lat="45.50592" lon="3.31157">
        <ele>393.7</ele>
        <time>2021-08-05T07:49:45Z</time>
      </trkpt>
      <trkpt lat="45.50584" lon="3.31153">
        <ele>393.8</ele>
        <time>2021-08-05T07:49:47Z</time>
      </trkpt>
      <trkpt lat="45.50575" lon="3.3115">
        <ele>394.3</ele>
        <time>2021-08-05T07:49:49Z</time>
      </trkpt>
      <trkpt lat="45.50567" lon="3.31145">
        <ele>394.7</ele>
        <time>2021-08-05T07:49:51Z</time>
      </trkpt>
      <trkpt lat="45.50559" lon="3.3114">
        <ele>395.1</ele>
        <time>2021-08-05T07:49:53Z</time>
      </trkpt>
      <trkpt lat="45.50551" lon="3.31135">
        <ele>395.4</ele>
        <time>2021-08-05T07:49:55Z</time>
      </trkpt>
      <trkpt lat="45.50543" lon="3.31129">
        <ele>395.5</ele>
        <time>2021-08-05T07:49:57Z</time>
      </trkpt>
      <trkpt lat="45.50536" lon="3.31123">
        <ele>395.7</ele>
        <time>2021-08-05T07:49:59Z</time>
      </trkpt>
      <trkpt lat="45.50529" lon="3.31117">
        <ele>395.8</ele>
        <time>2021-08-05T07:50:01Z</time>
      </trkpt>
      <trkpt lat="45.50521" lon="3.31112">
        <ele>395.8</ele>
        <time>2021-08-05T07:50:03Z</time>
      </trkpt>
      <trkpt lat="45.50514" lon="3.31107">
        <ele>395.9</ele>
        <time>2021-08-05T07:50:05Z</time>
      </trkpt>
      <trkpt lat="45.50506" lon="3.31103">
        <ele>396</ele>
        <time>2021-08-05T07:50:07Z</time>
      </trkpt>
      <trkpt lat="45.50498" lon="3.31099">
        <ele>396</ele>
        <time>2021-08-05T07:50:09Z</time>
      </trkpt>
      <trkpt lat="45.5049" lon="3.31096">
        <ele>396.1</ele>
        <time>2021-08-05T07:50:11Z</time>
      </trkpt>
      <trkpt lat="45.50482" lon="3.31093">
        <ele>396.3</ele>
        <time>2021-08-05T07:50:13Z</time>
      </trkpt>
      <trkpt lat="45.50474" lon="3.31091">
        <ele>396.4</ele>
        <time>2021-08-05T07:50:15Z</time>
      </trkpt>
      <trkpt lat="45.50466" lon="3.31089">
        <ele>396.6</ele>
        <time>2021-08-05T07:50:17Z</time>
      </trkpt>
      <trkpt lat="45.50458" lon="3.31087">
        <ele>396.7</ele>
        <time>2021-08-05T07:50:19Z</time>
      </trkpt>
      <trkpt lat="45.5045" lon="3.31084">
        <ele>396.9</ele>
        <time>2021-08-05T07:50:21Z</time>
      </trkpt>
      <trkpt lat="45.50442" lon="3.31083">
        <ele>397.1</ele>
        <time>2021-08-05T07:50:23Z</time>
      </trkpt>
      <trkpt lat="45.50433" lon="3.31081">
        <ele>397.3</ele>
        <time>2021-08-05T07:50:25Z</time>
      </trkpt>
      <trkpt lat="45.50425" lon="3.3108">
        <ele>397.6</ele>
        <time>2021-08-05T07:50:27Z</time>
      </trkpt>
      <trkpt lat="45.50418" lon="3.31078">
        <ele>397.8</ele>
        <time>2021-08-05T07:50:29Z</time>
      </trkpt>
      <trkpt lat="45.5041" lon="3.31077">
        <ele>397.9</ele>
        <time>2021-08-05T07:50:31Z</time>
      </trkpt>
      <trkpt lat="45.50402" lon="3.31075">
        <ele>398</ele>
        <time>2021-08-05T07:50:33Z</time>
      </trkpt>
      <trkpt lat="45.50394" lon="3.31073">
        <ele>398.1</ele>
        <time>2021-08-05T07:50:35Z</time>
      </trkpt>
      <trkpt lat="45.50386" lon="3.31072">
        <ele>398.3</ele>
        <time>2021-08-05T07:50:37Z</time>
      </trkpt>
      <trkpt lat="45.50379" lon="3.3107">
        <ele>398.4</ele>
        <time>2021-08-05T07:50:39Z</time>
      </trkpt>
      <trkpt lat="45.50371" lon="3.31069">
        <ele>398.5</ele>
        <time>2021-08-05T07:50:41Z</time>
      </trkpt>
      <trkpt lat="45.50362" lon="3.31067">
        <ele>398.6</ele>
        <time>2021-08-05T07:50:43Z</time>
      </trkpt>
      <trkpt lat="45.50355" lon="3.31065">
        <ele>398.7</ele>
        <time>2021-08-05T07:50:45Z</time>
      </trkpt>
      <trkpt lat="45.50347" lon="3.31063">
        <ele>398.8</ele>
        <time>2021-08-05T07:50:47Z</time>
      </trkpt>
      <trkpt lat="45.50339" lon="3.31062">
        <ele>398.9</ele>
        <time>2021-08-05T07:50:49Z</time>
      </trkpt>
      <trkpt lat="45.50332" lon="3.3106">
        <ele>398.9</ele>
        <time>2021-08-05T07:50:51Z</time>
      </trkpt>
      <trkpt lat="45.50324" lon="3.31058">
        <ele>399.1</ele>
        <time>2021-08-05T07:50:53Z</time>
      </trkpt>
      <trkpt lat="45.50317" lon="3.31057">
        <ele>399.2</ele>
        <time>2021-08-05T07:50:55Z</time>
      </trkpt>
      <trkpt lat="45.5031" lon="3.31055">
        <ele>399.4</ele>
        <time>2021-08-05T07:50:57Z</time>
      </trkpt>
      <trkpt lat="45.50302" lon="3.31053">
        <ele>399.5</ele>
        <time>2021-08-05T07:50:59Z</time>
      </trkpt>
      <trkpt lat="45.50295" lon="3.31051">
        <ele>399.7</ele>
        <time>2021-08-05T07:51:01Z</time>
      </trkpt>
      <trkpt lat="45.50287" lon="3.31049">
        <ele>399.8</ele>
        <time>2021-08-05T07:51:03Z</time>
      </trkpt>
      <trkpt lat="45.50279" lon="3.31047">
        <ele>399.9</ele>
        <time>2021-08-05T07:51:05Z</time>
      </trkpt>
      <trkpt lat="45.50272" lon="3.31045">
        <ele>400</ele>
        <time>2021-08-05T07:51:07Z</time>
      </trkpt>
      <trkpt lat="45.50264" lon="3.31043">
        <ele>400.2</ele>
        <time>2021-08-05T07:51:09Z</time>
      </trkpt>
      <trkpt lat="45.50257" lon="3.3104">
        <ele>400.2</ele>
        <time>2021-08-05T07:51:11Z</time>
      </trkpt>
      <trkpt lat="45.50249" lon="3.31037">
        <ele>400.2</ele>
        <time>2021-08-05T07:51:13Z</time>
      </trkpt>
      <trkpt lat="45.50242" lon="3.31034">
        <ele>400.2</ele>
        <time>2021-08-05T07:51:15Z</time>
      </trkpt>
      <trkpt lat="45.50235" lon="3.31031">
        <ele>400.2</ele>
        <time>2021-08-05T07:51:17Z</time>
      </trkpt>
      <trkpt lat="45.50228" lon="3.31028">
        <ele>400.1</ele>
        <time>2021-08-05T07:51:19Z</time>
      </trkpt>
      <trkpt lat="45.5022" lon="3.31025">
        <ele>400</ele>
        <time>2021-08-05T07:51:21Z</time>
      </trkpt>
      <trkpt lat="45.50213" lon="3.31021">
        <ele>399.9</ele>
        <time>2021-08-05T07:51:23Z</time>
      </trkpt>
      <trkpt lat="45.50205" lon="3.31018">
        <ele>399.8</ele>
        <time>2021-08-05T07:51:25Z</time>
      </trkpt>
      <trkpt lat="45.50198" lon="3.31015">
        <ele>399.8</ele>
        <time>2021-08-05T07:51:27Z</time>
      </trkpt>
      <trkpt lat="45.5019" lon="3.31012">
        <ele>399.6</ele>
        <time>2021-08-05T07:51:29Z</time>
      </trkpt>
      <trkpt lat="45.50182" lon="3.31009">
        <ele>399.5</ele>
        <time>2021-08-05T07:51:31Z</time>
      </trkpt>
      <trkpt lat="45.50174" lon="3.31007">
        <ele>399.5</ele>
        <time>2021-08-05T07:51:33Z</time>
      </trkpt>
      <trkpt lat="45.50166" lon="3.31006">
        <ele>399.5</ele>
        <time>2021-08-05T07:51:35Z</time>
      </trkpt>
      <trkpt lat="45.50158" lon="3.31004">
        <ele>399.7</ele>
        <time>2021-08-05T07:51:37Z</time>
      </trkpt>
      <trkpt lat="45.50149" lon="3.31002">
        <ele>399.8</ele>
        <time>2021-08-05T07:51:39Z</time>
      </trkpt>
      <trkpt lat="45.5014" lon="3.31">
        <ele>400</ele>
        <time>2021-08-05T07:51:41Z</time>
      </trkpt>
      <trkpt lat="45.50132" lon="3.30998">
        <ele>400.2</ele>
        <time>2021-08-05T07:51:43Z</time>
      </trkpt>
      <trkpt lat="45.50123" lon="3.30995">
        <ele>400.4</ele>
        <time>2021-08-05T07:51:45Z</time>
      </trkpt>
      <trkpt lat="45.50114" lon="3.30993">
        <ele>400.7</ele>
        <time>2021-08-05T07:51:47Z</time>
      </trkpt>
      <trkpt lat="45.50106" lon="3.30991">
        <ele>400.8</ele>
        <time>2021-08-05T07:51:49Z</time>
      </trkpt>
      <trkpt lat="45.50098" lon="3.30988">
        <ele>401</ele>
        <time>2021-08-05T07:51:51Z</time>
      </trkpt>
      <trkpt lat="45.5009" lon="3.30986">
        <ele>401.1</ele>
        <time>2021-08-05T07:51:53Z</time>
      </trkpt>
      <trkpt lat="45.50082" lon="3.30984">
        <ele>401.3</ele>
        <time>2021-08-05T07:51:55Z</time>
      </trkpt>
      <trkpt lat="45.50074" lon="3.30982">
        <ele>401.5</ele>
        <time>2021-08-05T07:51:57Z</time>
      </trkpt>
      <trkpt lat="45.50066" lon="3.3098">
        <ele>401.8</ele>
        <time>2021-08-05T07:51:59Z</time>
      </trkpt>
      <trkpt lat="45.50058" lon="3.30977">
        <ele>401.9</ele>
        <time>2021-08-05T07:52:01Z</time>
      </trkpt>
      <trkpt lat="45.5005" lon="3.30975">
        <ele>402.2</ele>
        <time>2021-08-05T07:52:03Z</time>
      </trkpt>
      <trkpt lat="45.50041" lon="3.30973">
        <ele>402.4</ele>
        <time>2021-08-05T07:52:05Z</time>
      </trkpt>
      <trkpt lat="45.50033" lon="3.3097">
        <ele>402.6</ele>
        <time>2021-08-05T07:52:07Z</time>
      </trkpt>
      <trkpt lat="45.50025" lon="3.30968">
        <ele>402.7</ele>
        <time>2021-08-05T07:52:09Z</time>
      </trkpt>
      <trkpt lat="45.50018" lon="3.30967">
        <ele>402.9</ele>
        <time>2021-08-05T07:52:11Z</time>
      </trkpt>
      <trkpt lat="45.50009" lon="3.30964">
        <ele>403.1</ele>
        <time>2021-08-05T07:52:13Z</time>
      </trkpt>
      <trkpt lat="45.50001" lon="3.30962">
        <ele>403.2</ele>
        <time>2021-08-05T07:52:15Z</time>
      </trkpt>
      <trkpt lat="45.49992" lon="3.3096">
        <ele>403.4</ele>
        <time>2021-08-05T07:52:17Z</time>
      </trkpt>
      <trkpt lat="45.49984" lon="3.30957">
        <ele>403.5</ele>
        <time>2021-08-05T07:52:19Z</time>
      </trkpt>
      <trkpt lat="45.49975" lon="3.30955">
        <ele>403.7</ele>
        <time>2021-08-05T07:52:21Z</time>
      </trkpt>
      <trkpt lat="45.49966" lon="3.30953">
        <ele>403.9</ele>
        <time>2021-08-05T07:52:23Z</time>
      </trkpt>
      <trkpt lat="45.49957" lon="3.30951">
        <ele>404.1</ele>
        <time>2021-08-05T07:52:25Z</time>
      </trkpt>
      <trkpt lat="45.49948" lon="3.30948">
        <ele>404.3</ele>
        <time>2021-08-05T07:52:27Z</time>
      </trkpt>
      <trkpt lat="45.49939" lon="3.30947">
        <ele>404.6</ele>
        <time>2021-08-05T07:52:29Z</time>
      </trkpt>
      <trkpt lat="45.49929" lon="3.30946">
        <ele>404.9</ele>
        <time>2021-08-05T07:52:31Z</time>
      </trkpt>
      <trkpt lat="45.4992" lon="3.30945">
        <ele>405.2</ele>
        <time>2021-08-05T07:52:33Z</time>
      </trkpt>
      <trkpt lat="45.4991" lon="3.30944">
        <ele>405.4</ele>
        <time>2021-08-05T07:52:35Z</time>
      </trkpt>
      <trkpt lat="45.49899" lon="3.30943">
        <ele>405.5</ele>
        <time>2021-08-05T07:52:37Z</time>
      </trkpt>
      <trkpt lat="45.49888" lon="3.30943">
        <ele>405.7</ele>
        <time>2021-08-05T07:52:39Z</time>
      </trkpt>
      <trkpt lat="45.49877" lon="3.30945">
        <ele>406</ele>
        <time>2021-08-05T07:52:41Z</time>
      </trkpt>
      <trkpt lat="45.49867" lon="3.30948">
        <ele>406.3</ele>
        <time>2021-08-05T07:52:43Z</time>
      </trkpt>
      <trkpt lat="45.49857" lon="3.30951">
        <ele>406.7</ele>
        <time>2021-08-05T07:52:45Z</time>
      </trkpt>
      <trkpt lat="45.49848" lon="3.30955">
        <ele>407</ele>
        <time>2021-08-05T07:52:47Z</time>
      </trkpt>
      <trkpt lat="45.49838" lon="3.30959">
        <ele>407.5</ele>
        <time>2021-08-05T07:52:49Z</time>
      </trkpt>
      <trkpt lat="45.4983" lon="3.30963">
        <ele>407.7</ele>
        <time>2021-08-05T07:52:51Z</time>
      </trkpt>
      <trkpt lat="45.49822" lon="3.30967">
        <ele>407.7</ele>
        <time>2021-08-05T07:52:53Z</time>
      </trkpt>
      <trkpt lat="45.49813" lon="3.30971">
        <ele>407.7</ele>
        <time>2021-08-05T07:52:55Z</time>
      </trkpt>
      <trkpt lat="45.49805" lon="3.30975">
        <ele>407.7</ele>
        <time>2021-08-05T07:52:57Z</time>
      </trkpt>
      <trkpt lat="45.49798" lon="3.30979">
        <ele>407.8</ele>
        <time>2021-08-05T07:52:59Z</time>
      </trkpt>
      <trkpt lat="45.4979" lon="3.30982">
        <ele>407.8</ele>
        <time>2021-08-05T07:53:01Z</time>
      </trkpt>
      <trkpt lat="45.49783" lon="3.30985">
        <ele>407.8</ele>
        <time>2021-08-05T07:53:03Z</time>
      </trkpt>
      <trkpt lat="45.49776" lon="3.30988">
        <ele>407.8</ele>
        <time>2021-08-05T07:53:05Z</time>
      </trkpt>
      <trkpt lat="45.49768" lon="3.30992">
        <ele>407.8</ele>
        <time>2021-08-05T07:53:07Z</time>
      </trkpt>
      <trkpt lat="45.4976" lon="3.30995">
        <ele>407.9</ele>
        <time>2021-08-05T07:53:09Z</time>
      </trkpt>
      <trkpt lat="45.49753" lon="3.30997">
        <ele>407.9</ele>
        <time>2021-08-05T07:53:11Z</time>
      </trkpt>
      <trkpt lat="45.49746" lon="3.31001">
        <ele>408</ele>
        <time>2021-08-05T07:53:13Z</time>
      </trkpt>
      <trkpt lat="45.49739" lon="3.31004">
        <ele>408.1</ele>
        <time>2021-08-05T07:53:15Z</time>
      </trkpt>
      <trkpt lat="45.49732" lon="3.31007">
        <ele>408.1</ele>
        <time>2021-08-05T07:53:17Z</time>
      </trkpt>
      <trkpt lat="45.49725" lon="3.31011">
        <ele>408.2</ele>
        <time>2021-08-05T07:53:19Z</time>
      </trkpt>
      <trkpt lat="45.49717" lon="3.31014">
        <ele>408.2</ele>
        <time>2021-08-05T07:53:21Z</time>
      </trkpt>
      <trkpt lat="45.4971" lon="3.31017">
        <ele>408.2</ele>
        <time>2021-08-05T07:53:23Z</time>
      </trkpt>
      <trkpt lat="45.49703" lon="3.3102">
        <ele>408.2</ele>
        <time>2021-08-05T07:53:25Z</time>
      </trkpt>
      <trkpt lat="45.49695" lon="3.31024">
        <ele>408.2</ele>
        <time>2021-08-05T07:53:27Z</time>
      </trkpt>
      <trkpt lat="45.49688" lon="3.31027">
        <ele>408.2</ele>
        <time>2021-08-05T07:53:29Z</time>
      </trkpt>
      <trkpt lat="45.4968" lon="3.3103">
        <ele>408.1</ele>
        <time>2021-08-05T07:53:31Z</time>
      </trkpt>
      <trkpt lat="45.49673" lon="3.31034">
        <ele>408.1</ele>
        <time>2021-08-05T07:53:33Z</time>
      </trkpt>
      <trkpt lat="45.49666" lon="3.31037">
        <ele>408</ele>
        <time>2021-08-05T07:53:35Z</time>
      </trkpt>
      <trkpt lat="45.49658" lon="3.31041">
        <ele>408.1</ele>
        <time>2021-08-05T07:53:37Z</time>
      </trkpt>
      <trkpt lat="45.4965" lon="3.31045">
        <ele>408.2</ele>
        <time>2021-08-05T07:53:39Z</time>
      </trkpt>
      <trkpt lat="45.49643" lon="3.31049">
        <ele>408.3</ele>
        <time>2021-08-05T07:53:41Z</time>
      </trkpt>
      <trkpt lat="45.49635" lon="3.31054">
        <ele>408.3</ele>
        <time>2021-08-05T07:53:43Z</time>
      </trkpt>
      <trkpt lat="45.49627" lon="3.31059">
        <ele>408.3</ele>
        <time>2021-08-05T07:53:45Z</time>
      </trkpt>
      <trkpt lat="45.49619" lon="3.31064">
        <ele>408.3</ele>
        <time>2021-08-05T07:53:47Z</time>
      </trkpt>
      <trkpt lat="45.49611" lon="3.3107">
        <ele>408.2</ele>
        <time>2021-08-05T07:53:49Z</time>
      </trkpt>
      <trkpt lat="45.49603" lon="3.31076">
        <ele>408</ele>
        <time>2021-08-05T07:53:51Z</time>
      </trkpt>
      <trkpt lat="45.49595" lon="3.31081">
        <ele>407.7</ele>
        <time>2021-08-05T07:53:53Z</time>
      </trkpt>
      <trkpt lat="45.49587" lon="3.31088">
        <ele>407.7</ele>
        <time>2021-08-05T07:53:55Z</time>
      </trkpt>
      <trkpt lat="45.4958" lon="3.31095">
        <ele>407.9</ele>
        <time>2021-08-05T07:53:57Z</time>
      </trkpt>
      <trkpt lat="45.49574" lon="3.31104">
        <ele>408.3</ele>
        <time>2021-08-05T07:53:59Z</time>
      </trkpt>
      <trkpt lat="45.49567" lon="3.31113">
        <ele>408.7</ele>
        <time>2021-08-05T07:54:01Z</time>
      </trkpt>
      <trkpt lat="45.49561" lon="3.31122">
        <ele>409</ele>
        <time>2021-08-05T07:54:03Z</time>
      </trkpt>
      <trkpt lat="45.49556" lon="3.31132">
        <ele>409.3</ele>
        <time>2021-08-05T07:54:05Z</time>
      </trkpt>
      <trkpt lat="45.4955" lon="3.31141">
        <ele>409.4</ele>
        <time>2021-08-05T07:54:07Z</time>
      </trkpt>
      <trkpt lat="45.49545" lon="3.31151">
        <ele>409.5</ele>
        <time>2021-08-05T07:54:09Z</time>
      </trkpt>
      <trkpt lat="45.4954" lon="3.3116">
        <ele>409.6</ele>
        <time>2021-08-05T07:54:11Z</time>
      </trkpt>
      <trkpt lat="45.49535" lon="3.3117">
        <ele>409.6</ele>
        <time>2021-08-05T07:54:13Z</time>
      </trkpt>
      <trkpt lat="45.4953" lon="3.3118">
        <ele>410</ele>
        <time>2021-08-05T07:54:15Z</time>
      </trkpt>
      <trkpt lat="45.49525" lon="3.31191">
        <ele>410.3</ele>
        <time>2021-08-05T07:54:17Z</time>
      </trkpt>
      <trkpt lat="45.49521" lon="3.31202">
        <ele>410.7</ele>
        <time>2021-08-05T07:54:19Z</time>
      </trkpt>
      <trkpt lat="45.49517" lon="3.31213">
        <ele>411</ele>
        <time>2021-08-05T07:54:21Z</time>
      </trkpt>
      <trkpt lat="45.49511" lon="3.31225">
        <ele>411.1</ele>
        <time>2021-08-05T07:54:23Z</time>
      </trkpt>
      <trkpt lat="45.49505" lon="3.31236">
        <ele>410.9</ele>
        <time>2021-08-05T07:54:25Z</time>
      </trkpt>
      <trkpt lat="45.49498" lon="3.31245">
        <ele>410.6</ele>
        <time>2021-08-05T07:54:27Z</time>
      </trkpt>
      <trkpt lat="45.4949" lon="3.31252">
        <ele>410.9</ele>
        <time>2021-08-05T07:54:29Z</time>
      </trkpt>
      <trkpt lat="45.49481" lon="3.31258">
        <ele>411.1</ele>
        <time>2021-08-05T07:54:31Z</time>
      </trkpt>
      <trkpt lat="45.49473" lon="3.31264">
        <ele>411.2</ele>
        <time>2021-08-05T07:54:33Z</time>
      </trkpt>
      <trkpt lat="45.49464" lon="3.3127">
        <ele>411.3</ele>
        <time>2021-08-05T07:54:35Z</time>
      </trkpt>
      <trkpt lat="45.49456" lon="3.31275">
        <ele>411.3</ele>
        <time>2021-08-05T07:54:37Z</time>
      </trkpt>
      <trkpt lat="45.49447" lon="3.31281">
        <ele>411.3</ele>
        <time>2021-08-05T07:54:39Z</time>
      </trkpt>
      <trkpt lat="45.4944" lon="3.31289">
        <ele>411.3</ele>
        <time>2021-08-05T07:54:41Z</time>
      </trkpt>
      <trkpt lat="45.49433" lon="3.31298">
        <ele>411.4</ele>
        <time>2021-08-05T07:54:43Z</time>
      </trkpt>
      <trkpt lat="45.49426" lon="3.31307">
        <ele>411.5</ele>
        <time>2021-08-05T07:54:45Z</time>
      </trkpt>
      <trkpt lat="45.49419" lon="3.31316">
        <ele>411.4</ele>
        <time>2021-08-05T07:54:47Z</time>
      </trkpt>
      <trkpt lat="45.49413" lon="3.31327">
        <ele>411.6</ele>
        <time>2021-08-05T07:54:49Z</time>
      </trkpt>
      <trkpt lat="45.49408" lon="3.31337">
        <ele>412</ele>
        <time>2021-08-05T07:54:51Z</time>
      </trkpt>
      <trkpt lat="45.49402" lon="3.31348">
        <ele>412.3</ele>
        <time>2021-08-05T07:54:53Z</time>
      </trkpt>
      <trkpt lat="45.49397" lon="3.31359">
        <ele>412.6</ele>
        <time>2021-08-05T07:54:55Z</time>
      </trkpt>
      <trkpt lat="45.49392" lon="3.31369">
        <ele>412.8</ele>
        <time>2021-08-05T07:54:57Z</time>
      </trkpt>
      <trkpt lat="45.49386" lon="3.31379">
        <ele>412.8</ele>
        <time>2021-08-05T07:54:59Z</time>
      </trkpt>
      <trkpt lat="45.49381" lon="3.31389">
        <ele>412.8</ele>
        <time>2021-08-05T07:55:01Z</time>
      </trkpt>
      <trkpt lat="45.49376" lon="3.314">
        <ele>412.7</ele>
        <time>2021-08-05T07:55:03Z</time>
      </trkpt>
      <trkpt lat="45.49371" lon="3.3141">
        <ele>412.5</ele>
        <time>2021-08-05T07:55:05Z</time>
      </trkpt>
      <trkpt lat="45.49367" lon="3.31422">
        <ele>412.5</ele>
        <time>2021-08-05T07:55:07Z</time>
      </trkpt>
      <trkpt lat="45.49363" lon="3.31433">
        <ele>412.8</ele>
        <time>2021-08-05T07:55:09Z</time>
      </trkpt>
      <trkpt lat="45.4936" lon="3.31444">
        <ele>413.1</ele>
        <time>2021-08-05T07:55:11Z</time>
      </trkpt>
      <trkpt lat="45.49357" lon="3.31456">
        <ele>413.4</ele>
        <time>2021-08-05T07:55:13Z</time>
      </trkpt>
      <trkpt lat="45.49353" lon="3.31467">
        <ele>413.4</ele>
        <time>2021-08-05T07:55:15Z</time>
      </trkpt>
      <trkpt lat="45.49349" lon="3.31478">
        <ele>413.3</ele>
        <time>2021-08-05T07:55:17Z</time>
      </trkpt>
      <trkpt lat="45.49343" lon="3.31488">
        <ele>413.1</ele>
        <time>2021-08-05T07:55:19Z</time>
      </trkpt>
      <trkpt lat="45.49337" lon="3.31499">
        <ele>412.6</ele>
        <time>2021-08-05T07:55:21Z</time>
      </trkpt>
      <trkpt lat="45.4933" lon="3.31508">
        <ele>412.7</ele>
        <time>2021-08-05T07:55:23Z</time>
      </trkpt>
      <trkpt lat="45.49323" lon="3.31517">
        <ele>413.1</ele>
        <time>2021-08-05T07:55:25Z</time>
      </trkpt>
      <trkpt lat="45.49316" lon="3.31525">
        <ele>413.4</ele>
        <time>2021-08-05T07:55:27Z</time>
      </trkpt>
      <trkpt lat="45.49309" lon="3.31533">
        <ele>413.5</ele>
        <time>2021-08-05T07:55:29Z</time>
      </trkpt>
      <trkpt lat="45.49303" lon="3.31543">
        <ele>413.7</ele>
        <time>2021-08-05T07:55:31Z</time>
      </trkpt>
      <trkpt lat="45.49297" lon="3.31554">
        <ele>413.9</ele>
        <time>2021-08-05T07:55:33Z</time>
      </trkpt>
      <trkpt lat="45.49292" lon="3.31565">
        <ele>414.1</ele>
        <time>2021-08-05T07:55:35Z</time>
      </trkpt>
      <trkpt lat="45.49289" lon="3.31576">
        <ele>414.3</ele>
        <time>2021-08-05T07:55:37Z</time>
      </trkpt>
      <trkpt lat="45.49286" lon="3.31588">
        <ele>414.6</ele>
        <time>2021-08-05T07:55:39Z</time>
      </trkpt>
      <trkpt lat="45.49283" lon="3.316">
        <ele>414.9</ele>
        <time>2021-08-05T07:55:41Z</time>
      </trkpt>
      <trkpt lat="45.49281" lon="3.31613">
        <ele>415.3</ele>
        <time>2021-08-05T07:55:43Z</time>
      </trkpt>
      <trkpt lat="45.49278" lon="3.31625">
        <ele>415.6</ele>
        <time>2021-08-05T07:55:45Z</time>
      </trkpt>
      <trkpt lat="45.49276" lon="3.31637">
        <ele>415.9</ele>
        <time>2021-08-05T07:55:47Z</time>
      </trkpt>
      <trkpt lat="45.49274" lon="3.3165">
        <ele>416.1</ele>
        <time>2021-08-05T07:55:49Z</time>
      </trkpt>
      <trkpt lat="45.49271" lon="3.31663">
        <ele>416.3</ele>
        <time>2021-08-05T07:55:51Z</time>
      </trkpt>
      <trkpt lat="45.49268" lon="3.31675">
        <ele>416.3</ele>
        <time>2021-08-05T07:55:53Z</time>
      </trkpt>
      <trkpt lat="45.49264" lon="3.31687">
        <ele>416.2</ele>
        <time>2021-08-05T07:55:55Z</time>
      </trkpt>
      <trkpt lat="45.49259" lon="3.31698">
        <ele>415.8</ele>
        <time>2021-08-05T07:55:57Z</time>
      </trkpt>
      <trkpt lat="45.49253" lon="3.31708">
        <ele>415.1</ele>
        <time>2021-08-05T07:55:59Z</time>
      </trkpt>
      <trkpt lat="45.49247" lon="3.31718">
        <ele>414.8</ele>
        <time>2021-08-05T07:56:01Z</time>
      </trkpt>
      <trkpt lat="45.49241" lon="3.31728">
        <ele>414.9</ele>
        <time>2021-08-05T07:56:03Z</time>
      </trkpt>
      <trkpt lat="45.49235" lon="3.31738">
        <ele>415</ele>
        <time>2021-08-05T07:56:05Z</time>
      </trkpt>
      <trkpt lat="45.49228" lon="3.31748">
        <ele>415.1</ele>
        <time>2021-08-05T07:56:07Z</time>
      </trkpt>
      <trkpt lat="45.49223" lon="3.31758">
        <ele>415.3</ele>
        <time>2021-08-05T07:56:09Z</time>
      </trkpt>
      <trkpt lat="45.49217" lon="3.31769">
        <ele>415.5</ele>
        <time>2021-08-05T07:56:11Z</time>
      </trkpt>
      <trkpt lat="45.49212" lon="3.3178">
        <ele>415.6</ele>
        <time>2021-08-05T07:56:13Z</time>
      </trkpt>
      <trkpt lat="45.49207" lon="3.31792">
        <ele>415.7</ele>
        <time>2021-08-05T07:56:15Z</time>
      </trkpt>
      <trkpt lat="45.49201" lon="3.31803">
        <ele>415.7</ele>
        <time>2021-08-05T07:56:17Z</time>
      </trkpt>
      <trkpt lat="45.49196" lon="3.31815">
        <ele>415.7</ele>
        <time>2021-08-05T07:56:19Z</time>
      </trkpt>
      <trkpt lat="45.49191" lon="3.31826">
        <ele>415.6</ele>
        <time>2021-08-05T07:56:21Z</time>
      </trkpt>
      <trkpt lat="45.49186" lon="3.31838">
        <ele>415.5</ele>
        <time>2021-08-05T07:56:23Z</time>
      </trkpt>
      <trkpt lat="45.4918" lon="3.3185">
        <ele>415.3</ele>
        <time>2021-08-05T07:56:25Z</time>
      </trkpt>
      <trkpt lat="45.49175" lon="3.31862">
        <ele>415.1</ele>
        <time>2021-08-05T07:56:27Z</time>
      </trkpt>
      <trkpt lat="45.4917" lon="3.31874">
        <ele>414.8</ele>
        <time>2021-08-05T07:56:29Z</time>
      </trkpt>
      <trkpt lat="45.49165" lon="3.31887">
        <ele>414.7</ele>
        <time>2021-08-05T07:56:31Z</time>
      </trkpt>
      <trkpt lat="45.49162" lon="3.31898">
        <ele>414.9</ele>
        <time>2021-08-05T07:56:33Z</time>
      </trkpt>
      <trkpt lat="45.49159" lon="3.31909">
        <ele>415.1</ele>
        <time>2021-08-05T07:56:35Z</time>
      </trkpt>
      <trkpt lat="45.49157" lon="3.3192">
        <ele>415.3</ele>
        <time>2021-08-05T07:56:37Z</time>
      </trkpt>
      <trkpt lat="45.49155" lon="3.31931">
        <ele>415.6</ele>
        <time>2021-08-05T07:56:39Z</time>
      </trkpt>
      <trkpt lat="45.49153" lon="3.3194">
        <ele>415.8</ele>
        <time>2021-08-05T07:56:41Z</time>
      </trkpt>
      <trkpt lat="45.49151" lon="3.31948">
        <ele>416</ele>
        <time>2021-08-05T07:56:43Z</time>
      </trkpt>
      <trkpt lat="45.49146" lon="3.31952">
        <ele>416.1</ele>
        <time>2021-08-05T07:56:45Z</time>
      </trkpt>
      <trkpt lat="45.49141" lon="3.31953">
        <ele>416.2</ele>
        <time>2021-08-05T07:56:47Z</time>
      </trkpt>
      <trkpt lat="45.49136" lon="3.31951">
        <ele>416.3</ele>
        <time>2021-08-05T07:56:49Z</time>
      </trkpt>
      <trkpt lat="45.49132" lon="3.3195">
        <ele>416.3</ele>
        <time>2021-08-05T07:56:51Z</time>
      </trkpt>
      <trkpt lat="45.49128" lon="3.31949">
        <ele>416.3</ele>
        <time>2021-08-05T07:56:53Z</time>
      </trkpt>
      <trkpt lat="45.49124" lon="3.31947">
        <ele>416.4</ele>
        <time>2021-08-05T07:56:55Z</time>
      </trkpt>
      <trkpt lat="45.4912" lon="3.31945">
        <ele>416.4</ele>
        <time>2021-08-05T07:56:57Z</time>
      </trkpt>
      <trkpt lat="45.4912" lon="3.31939">
        <ele>416.3</ele>
        <time>2021-08-05T07:56:59Z</time>
      </trkpt>
      <trkpt lat="45.49124" lon="3.31928">
        <ele>416.1</ele>
        <time>2021-08-05T07:57:01Z</time>
      </trkpt>
      <trkpt lat="45.49128" lon="3.31919">
        <ele>416</ele>
        <time>2021-08-05T07:57:03Z</time>
      </trkpt>
      <trkpt lat="45.4913" lon="3.31911">
        <ele>415.8</ele>
        <time>2021-08-05T07:57:05Z</time>
      </trkpt>
      <trkpt lat="45.49132" lon="3.31902">
        <ele>415.7</ele>
        <time>2021-08-05T07:57:07Z</time>
      </trkpt>
      <trkpt lat="45.49132" lon="3.31892">
        <ele>415.5</ele>
        <time>2021-08-05T07:57:09Z</time>
      </trkpt>
      <trkpt lat="45.49134" lon="3.31883">
        <ele>415.4</ele>
        <time>2021-08-05T07:57:11Z</time>
      </trkpt>
      <trkpt lat="45.49135" lon="3.31875">
        <ele>415.3</ele>
        <time>2021-08-05T07:57:13Z</time>
      </trkpt>
      <trkpt lat="45.49136" lon="3.31867">
        <ele>415.1</ele>
        <time>2021-08-05T07:57:15Z</time>
      </trkpt>
      <trkpt lat="45.49136" lon="3.31862">
        <ele>415.1</ele>
        <time>2021-08-05T07:57:17Z</time>
      </trkpt>
      <trkpt lat="45.49133" lon="3.3186">
        <ele>415.1</ele>
        <time>2021-08-05T07:57:19Z</time>
      </trkpt>
      <trkpt lat="45.4913" lon="3.31856">
        <ele>415.1</ele>
        <time>2021-08-05T07:57:21Z</time>
      </trkpt>
      <trkpt lat="45.49132" lon="3.31853">
        <ele>415.1</ele>
        <time>2021-08-05T07:57:23Z</time>
      </trkpt>
      <trkpt lat="45.49132" lon="3.31854">
        <ele>415.1</ele>
        <time>2021-08-05T07:57:25Z</time>
      </trkpt>
      <trkpt lat="45.49132" lon="3.31853">
        <ele>415.1</ele>
        <time>2021-08-05T07:57:27Z</time>
      </trkpt>
      <trkpt lat="45.49132" lon="3.31853">
        <ele>415.1</ele>
        <time>2021-08-05T07:57:29Z</time>
      </trkpt>
      <trkpt lat="45.49132" lon="3.31853">
        <ele>415.1</ele>
        <time>2021-08-05T07:57:31Z</time>
      </trkpt>
      <trkpt lat="45.4913" lon="3.31905">
        <ele>415.7</ele>
        <time>2021-08-05T08:24:33Z</time>
      </trkpt>
      <trkpt lat="45.49129" lon="3.31912">
        <ele>415.8</ele>
        <time>2021-08-05T08:24:35Z</time>
      </trkpt>
      <trkpt lat="45.49128" lon="3.31919">
        <ele>416</ele>
        <time>2021-08-05T08:24:37Z</time>
      </trkpt>
      <trkpt lat="45.49125" lon="3.31924">
        <ele>416.1</ele>
        <time>2021-08-05T08:24:39Z</time>
      </trkpt>
      <trkpt lat="45.49122" lon="3.3193">
        <ele>416.2</ele>
        <time>2021-08-05T08:24:41Z</time>
      </trkpt>
      <trkpt lat="45.49119" lon="3.31935">
        <ele>416.3</ele>
        <time>2021-08-05T08:24:43Z</time>
      </trkpt>
      <trkpt lat="45.49116" lon="3.31939">
        <ele>416.4</ele>
        <time>2021-08-05T08:24:45Z</time>
      </trkpt>
      <trkpt lat="45.49114" lon="3.31942">
        <ele>416.5</ele>
        <time>2021-08-05T08:24:47Z</time>
      </trkpt>
      <trkpt lat="45.49109" lon="3.31943">
        <ele>416.6</ele>
        <time>2021-08-05T08:24:49Z</time>
      </trkpt>
      <trkpt lat="45.49104" lon="3.31943">
        <ele>416.7</ele>
        <time>2021-08-05T08:24:51Z</time>
      </trkpt>
      <trkpt lat="45.49097" lon="3.31941">
        <ele>416.8</ele>
        <time>2021-08-05T08:24:53Z</time>
      </trkpt>
      <trkpt lat="45.49091" lon="3.31939">
        <ele>416.9</ele>
        <time>2021-08-05T08:24:55Z</time>
      </trkpt>
      <trkpt lat="45.49084" lon="3.31935">
        <ele>417</ele>
        <time>2021-08-05T08:24:57Z</time>
      </trkpt>
      <trkpt lat="45.49079" lon="3.3193">
        <ele>417.1</ele>
        <time>2021-08-05T08:24:59Z</time>
      </trkpt>
      <trkpt lat="45.49072" lon="3.31928">
        <ele>417.3</ele>
        <time>2021-08-05T08:25:01Z</time>
      </trkpt>
      <trkpt lat="45.49068" lon="3.31924">
        <ele>417.4</ele>
        <time>2021-08-05T08:25:03Z</time>
      </trkpt>
      <trkpt lat="45.49064" lon="3.31919">
        <ele>417.5</ele>
        <time>2021-08-05T08:25:05Z</time>
      </trkpt>
      <trkpt lat="45.49059" lon="3.31916">
        <ele>417.6</ele>
        <time>2021-08-05T08:25:07Z</time>
      </trkpt>
      <trkpt lat="45.49057" lon="3.31908">
        <ele>417.6</ele>
        <time>2021-08-05T08:25:09Z</time>
      </trkpt>
      <trkpt lat="45.49056" lon="3.319">
        <ele>417.5</ele>
        <time>2021-08-05T08:25:11Z</time>
      </trkpt>
      <trkpt lat="45.49055" lon="3.3189">
        <ele>417.5</ele>
        <time>2021-08-05T08:25:13Z</time>
      </trkpt>
      <trkpt lat="45.49054" lon="3.3188">
        <ele>417.4</ele>
        <time>2021-08-05T08:25:15Z</time>
      </trkpt>
      <trkpt lat="45.49052" lon="3.3187">
        <ele>417.4</ele>
        <time>2021-08-05T08:25:17Z</time>
      </trkpt>
      <trkpt lat="45.4905" lon="3.3186">
        <ele>417.4</ele>
        <time>2021-08-05T08:25:19Z</time>
      </trkpt>
      <trkpt lat="45.49047" lon="3.31851">
        <ele>417.4</ele>
        <time>2021-08-05T08:25:21Z</time>
      </trkpt>
      <trkpt lat="45.49044" lon="3.31842">
        <ele>417.5</ele>
        <time>2021-08-05T08:25:23Z</time>
      </trkpt>
      <trkpt lat="45.49043" lon="3.31832">
        <ele>417.4</ele>
        <time>2021-08-05T08:25:25Z</time>
      </trkpt>
      <trkpt lat="45.49045" lon="3.31823">
        <ele>417.2</ele>
        <time>2021-08-05T08:25:27Z</time>
      </trkpt>
      <trkpt lat="45.49047" lon="3.31813">
        <ele>417</ele>
        <time>2021-08-05T08:25:29Z</time>
      </trkpt>
      <trkpt lat="45.49048" lon="3.31802">
        <ele>416.8</ele>
        <time>2021-08-05T08:25:31Z</time>
      </trkpt>
      <trkpt lat="45.4905" lon="3.31791">
        <ele>416.6</ele>
        <time>2021-08-05T08:25:33Z</time>
      </trkpt>
      <trkpt lat="45.49051" lon="3.3178">
        <ele>416.4</ele>
        <time>2021-08-05T08:25:35Z</time>
      </trkpt>
      <trkpt lat="45.49049" lon="3.31771">
        <ele>416.4</ele>
        <time>2021-08-05T08:25:37Z</time>
      </trkpt>
      <trkpt lat="45.49044" lon="3.31765">
        <ele>416.6</ele>
        <time>2021-08-05T08:25:39Z</time>
      </trkpt>
      <trkpt lat="45.49039" lon="3.31761">
        <ele>416.8</ele>
        <time>2021-08-05T08:25:41Z</time>
      </trkpt>
      <trkpt lat="45.49034" lon="3.31757">
        <ele>417</ele>
        <time>2021-08-05T08:25:43Z</time>
      </trkpt>
      <trkpt lat="45.49029" lon="3.31753">
        <ele>417.3</ele>
        <time>2021-08-05T08:25:45Z</time>
      </trkpt>
      <trkpt lat="45.49024" lon="3.31749">
        <ele>417.5</ele>
        <time>2021-08-05T08:25:47Z</time>
      </trkpt>
      <trkpt lat="45.4902" lon="3.31746">
        <ele>417.8</ele>
        <time>2021-08-05T08:25:49Z</time>
      </trkpt>
      <trkpt lat="45.49016" lon="3.31741">
        <ele>418</ele>
        <time>2021-08-05T08:25:51Z</time>
      </trkpt>
      <trkpt lat="45.49012" lon="3.31738">
        <ele>418.2</ele>
        <time>2021-08-05T08:25:53Z</time>
      </trkpt>
      <trkpt lat="45.49008" lon="3.31735">
        <ele>418.5</ele>
        <time>2021-08-05T08:25:55Z</time>
      </trkpt>
      <trkpt lat="45.49004" lon="3.31731">
        <ele>418.7</ele>
        <time>2021-08-05T08:25:57Z</time>
      </trkpt>
      <trkpt lat="45.49001" lon="3.31727">
        <ele>419</ele>
        <time>2021-08-05T08:25:59Z</time>
      </trkpt>
      <trkpt lat="45.48997" lon="3.31724">
        <ele>419.3</ele>
        <time>2021-08-05T08:26:01Z</time>
      </trkpt>
      <trkpt lat="45.48993" lon="3.31721">
        <ele>419.6</ele>
        <time>2021-08-05T08:26:03Z</time>
      </trkpt>
      <trkpt lat="45.48989" lon="3.31717">
        <ele>419.9</ele>
        <time>2021-08-05T08:26:05Z</time>
      </trkpt>
      <trkpt lat="45.48986" lon="3.31714">
        <ele>420.2</ele>
        <time>2021-08-05T08:26:07Z</time>
      </trkpt>
      <trkpt lat="45.48982" lon="3.31711">
        <ele>420.6</ele>
        <time>2021-08-05T08:26:09Z</time>
      </trkpt>
      <trkpt lat="45.48978" lon="3.31707">
        <ele>421</ele>
        <time>2021-08-05T08:26:11Z</time>
      </trkpt>
      <trkpt lat="45.48975" lon="3.31704">
        <ele>421.3</ele>
        <time>2021-08-05T08:26:13Z</time>
      </trkpt>
      <trkpt lat="45.48972" lon="3.31702">
        <ele>421.6</ele>
        <time>2021-08-05T08:26:15Z</time>
      </trkpt>
      <trkpt lat="45.48969" lon="3.31699">
        <ele>422</ele>
        <time>2021-08-05T08:26:17Z</time>
      </trkpt>
      <trkpt lat="45.48966" lon="3.31696">
        <ele>422.3</ele>
        <time>2021-08-05T08:26:19Z</time>
      </trkpt>
      <trkpt lat="45.48963" lon="3.31694">
        <ele>422.7</ele>
        <time>2021-08-05T08:26:21Z</time>
      </trkpt>
      <trkpt lat="45.48961" lon="3.31691">
        <ele>423</ele>
        <time>2021-08-05T08:26:23Z</time>
      </trkpt>
      <trkpt lat="45.48958" lon="3.31689">
        <ele>423.4</ele>
        <time>2021-08-05T08:26:25Z</time>
      </trkpt>
      <trkpt lat="45.48955" lon="3.31686">
        <ele>423.8</ele>
        <time>2021-08-05T08:26:27Z</time>
      </trkpt>
      <trkpt lat="45.48952" lon="3.31683">
        <ele>424.2</ele>
        <time>2021-08-05T08:26:29Z</time>
      </trkpt>
      <trkpt lat="45.48949" lon="3.31681">
        <ele>424.6</ele>
        <time>2021-08-05T08:26:31Z</time>
      </trkpt>
      <trkpt lat="45.48947" lon="3.31679">
        <ele>424.9</ele>
        <time>2021-08-05T08:26:33Z</time>
      </trkpt>
      <trkpt lat="45.48944" lon="3.31676">
        <ele>425.3</ele>
        <time>2021-08-05T08:26:35Z</time>
      </trkpt>
      <trkpt lat="45.48941" lon="3.31673">
        <ele>425.8</ele>
        <time>2021-08-05T08:26:37Z</time>
      </trkpt>
      <trkpt lat="45.48939" lon="3.31671">
        <ele>426.2</ele>
        <time>2021-08-05T08:26:39Z</time>
      </trkpt>
      <trkpt lat="45.48936" lon="3.31668">
        <ele>426.6</ele>
        <time>2021-08-05T08:26:41Z</time>
      </trkpt>
      <trkpt lat="45.48933" lon="3.31666">
        <ele>427.1</ele>
        <time>2021-08-05T08:26:43Z</time>
      </trkpt>
      <trkpt lat="45.48931" lon="3.31664">
        <ele>427.4</ele>
        <time>2021-08-05T08:26:45Z</time>
      </trkpt>
      <trkpt lat="45.48928" lon="3.31661">
        <ele>427.9</ele>
        <time>2021-08-05T08:26:47Z</time>
      </trkpt>
      <trkpt lat="45.48925" lon="3.31658">
        <ele>428.3</ele>
        <time>2021-08-05T08:26:49Z</time>
      </trkpt>
      <trkpt lat="45.48923" lon="3.31656">
        <ele>428.7</ele>
        <time>2021-08-05T08:26:51Z</time>
      </trkpt>
      <trkpt lat="45.4892" lon="3.31653">
        <ele>429.1</ele>
        <time>2021-08-05T08:26:53Z</time>
      </trkpt>
      <trkpt lat="45.48917" lon="3.31651">
        <ele>429.5</ele>
        <time>2021-08-05T08:26:55Z</time>
      </trkpt>
      <trkpt lat="45.48915" lon="3.31649">
        <ele>429.8</ele>
        <time>2021-08-05T08:26:57Z</time>
      </trkpt>
      <trkpt lat="45.48912" lon="3.31647">
        <ele>430.2</ele>
        <time>2021-08-05T08:26:59Z</time>
      </trkpt>
      <trkpt lat="45.4891" lon="3.31645">
        <ele>430.5</ele>
        <time>2021-08-05T08:27:01Z</time>
      </trkpt>
      <trkpt lat="45.48908" lon="3.31643">
        <ele>430.8</ele>
        <time>2021-08-05T08:27:03Z</time>
      </trkpt>
      <trkpt lat="45.48905" lon="3.31641">
        <ele>431.1</ele>
        <time>2021-08-05T08:27:05Z</time>
      </trkpt>
      <trkpt lat="45.48903" lon="3.3164">
        <ele>431.4</ele>
        <time>2021-08-05T08:27:07Z</time>
      </trkpt>
      <trkpt lat="45.489" lon="3.31637">
        <ele>431.7</ele>
        <time>2021-08-05T08:27:09Z</time>
      </trkpt>
      <trkpt lat="45.48898" lon="3.31635">
        <ele>432.1</ele>
        <time>2021-08-05T08:27:11Z</time>
      </trkpt>
      <trkpt lat="45.48896" lon="3.31634">
        <ele>432.4</ele>
        <time>2021-08-05T08:27:13Z</time>
      </trkpt>
      <trkpt lat="45.48894" lon="3.31632">
        <ele>432.6</ele>
        <time>2021-08-05T08:27:15Z</time>
      </trkpt>
      <trkpt lat="45.48892" lon="3.3163">
        <ele>432.9</ele>
        <time>2021-08-05T08:27:17Z</time>
      </trkpt>
      <trkpt lat="45.48889" lon="3.31628">
        <ele>433.2</ele>
        <time>2021-08-05T08:27:19Z</time>
      </trkpt>
      <trkpt lat="45.48887" lon="3.31626">
        <ele>433.5</ele>
        <time>2021-08-05T08:27:21Z</time>
      </trkpt>
      <trkpt lat="45.48885" lon="3.31625">
        <ele>433.8</ele>
        <time>2021-08-05T08:27:23Z</time>
      </trkpt>
      <trkpt lat="45.48883" lon="3.31623">
        <ele>434.1</ele>
        <time>2021-08-05T08:27:25Z</time>
      </trkpt>
      <trkpt lat="45.4888" lon="3.31621">
        <ele>434.4</ele>
        <time>2021-08-05T08:27:27Z</time>
      </trkpt>
      <trkpt lat="45.48877" lon="3.31619">
        <ele>434.7</ele>
        <time>2021-08-05T08:27:29Z</time>
      </trkpt>
      <trkpt lat="45.48875" lon="3.31618">
        <ele>435</ele>
        <time>2021-08-05T08:27:31Z</time>
      </trkpt>
      <trkpt lat="45.48873" lon="3.31616">
        <ele>435.3</ele>
        <time>2021-08-05T08:27:33Z</time>
      </trkpt>
      <trkpt lat="45.4887" lon="3.31613">
        <ele>435.6</ele>
        <time>2021-08-05T08:27:35Z</time>
      </trkpt>
      <trkpt lat="45.48867" lon="3.31612">
        <ele>435.9</ele>
        <time>2021-08-05T08:27:37Z</time>
      </trkpt>
      <trkpt lat="45.48864" lon="3.3161">
        <ele>436.3</ele>
        <time>2021-08-05T08:27:39Z</time>
      </trkpt>
      <trkpt lat="45.48862" lon="3.31608">
        <ele>436.6</ele>
        <time>2021-08-05T08:27:41Z</time>
      </trkpt>
      <trkpt lat="45.48859" lon="3.31606">
        <ele>436.9</ele>
        <time>2021-08-05T08:27:43Z</time>
      </trkpt>
      <trkpt lat="45.48857" lon="3.31604">
        <ele>437.2</ele>
        <time>2021-08-05T08:27:45Z</time>
      </trkpt>
      <trkpt lat="45.48854" lon="3.31603">
        <ele>437.5</ele>
        <time>2021-08-05T08:27:47Z</time>
      </trkpt>
      <trkpt lat="45.48851" lon="3.31601">
        <ele>437.8</ele>
        <time>2021-08-05T08:27:49Z</time>
      </trkpt>
      <trkpt lat="45.48848" lon="3.31598">
        <ele>438.2</ele>
        <time>2021-08-05T08:27:51Z</time>
      </trkpt>
      <trkpt lat="45.48846" lon="3.31596">
        <ele>438.5</ele>
        <time>2021-08-05T08:27:53Z</time>
      </trkpt>
      <trkpt lat="45.48843" lon="3.31594">
        <ele>438.8</ele>
        <time>2021-08-05T08:27:55Z</time>
      </trkpt>
      <trkpt lat="45.4884" lon="3.31592">
        <ele>439.1</ele>
        <time>2021-08-05T08:27:57Z</time>
      </trkpt>
      <trkpt lat="45.48837" lon="3.3159">
        <ele>439.5</ele>
        <time>2021-08-05T08:27:59Z</time>
      </trkpt>
      <trkpt lat="45.48835" lon="3.31588">
        <ele>439.8</ele>
        <time>2021-08-05T08:28:01Z</time>
      </trkpt>
      <trkpt lat="45.48832" lon="3.31585">
        <ele>440.1</ele>
        <time>2021-08-05T08:28:03Z</time>
      </trkpt>
      <trkpt lat="45.48829" lon="3.31583">
        <ele>440.3</ele>
        <time>2021-08-05T08:28:05Z</time>
      </trkpt>
      <trkpt lat="45.48826" lon="3.31581">
        <ele>440.5</ele>
        <time>2021-08-05T08:28:07Z</time>
      </trkpt>
      <trkpt lat="45.48823" lon="3.31579">
        <ele>440.7</ele>
        <time>2021-08-05T08:28:09Z</time>
      </trkpt>
      <trkpt lat="45.4882" lon="3.31576">
        <ele>440.9</ele>
        <time>2021-08-05T08:28:11Z</time>
      </trkpt>
      <trkpt lat="45.48817" lon="3.31574">
        <ele>441.1</ele>
        <time>2021-08-05T08:28:13Z</time>
      </trkpt>
      <trkpt lat="45.48815" lon="3.31572">
        <ele>441.4</ele>
        <time>2021-08-05T08:28:15Z</time>
      </trkpt>
      <trkpt lat="45.48811" lon="3.3157">
        <ele>441.6</ele>
        <time>2021-08-05T08:28:17Z</time>
      </trkpt>
      <trkpt lat="45.48808" lon="3.31567">
        <ele>441.8</ele>
        <time>2021-08-05T08:28:19Z</time>
      </trkpt>
      <trkpt lat="45.48805" lon="3.31565">
        <ele>442</ele>
        <time>2021-08-05T08:28:21Z</time>
      </trkpt>
      <trkpt lat="45.48802" lon="3.31562">
        <ele>442.3</ele>
        <time>2021-08-05T08:28:23Z</time>
      </trkpt>
      <trkpt lat="45.48799" lon="3.3156">
        <ele>442.5</ele>
        <time>2021-08-05T08:28:25Z</time>
      </trkpt>
      <trkpt lat="45.48796" lon="3.31557">
        <ele>442.7</ele>
        <time>2021-08-05T08:28:27Z</time>
      </trkpt>
      <trkpt lat="45.48793" lon="3.31555">
        <ele>442.9</ele>
        <time>2021-08-05T08:28:29Z</time>
      </trkpt>
      <trkpt lat="45.4879" lon="3.31553">
        <ele>443.1</ele>
        <time>2021-08-05T08:28:31Z</time>
      </trkpt>
      <trkpt lat="45.48787" lon="3.3155">
        <ele>443.3</ele>
        <time>2021-08-05T08:28:33Z</time>
      </trkpt>
      <trkpt lat="45.48783" lon="3.31547">
        <ele>443.6</ele>
        <time>2021-08-05T08:28:35Z</time>
      </trkpt>
      <trkpt lat="45.4878" lon="3.31545">
        <ele>443.9</ele>
        <time>2021-08-05T08:28:37Z</time>
      </trkpt>
      <trkpt lat="45.48776" lon="3.31543">
        <ele>444.1</ele>
        <time>2021-08-05T08:28:39Z</time>
      </trkpt>
      <trkpt lat="45.48773" lon="3.31541">
        <ele>444.4</ele>
        <time>2021-08-05T08:28:41Z</time>
      </trkpt>
      <trkpt lat="45.4877" lon="3.31538">
        <ele>444.6</ele>
        <time>2021-08-05T08:28:43Z</time>
      </trkpt>
      <trkpt lat="45.48766" lon="3.31536">
        <ele>444.8</ele>
        <time>2021-08-05T08:28:45Z</time>
      </trkpt>
      <trkpt lat="45.48763" lon="3.31534">
        <ele>445.1</ele>
        <time>2021-08-05T08:28:47Z</time>
      </trkpt>
      <trkpt lat="45.4876" lon="3.31532">
        <ele>445.3</ele>
        <time>2021-08-05T08:28:49Z</time>
      </trkpt>
      <trkpt lat="45.48756" lon="3.3153">
        <ele>445.5</ele>
        <time>2021-08-05T08:28:51Z</time>
      </trkpt>
      <trkpt lat="45.48753" lon="3.31529">
        <ele>445.8</ele>
        <time>2021-08-05T08:28:53Z</time>
      </trkpt>
      <trkpt lat="45.48749" lon="3.31527">
        <ele>446.1</ele>
        <time>2021-08-05T08:28:55Z</time>
      </trkpt>
      <trkpt lat="45.48745" lon="3.31526">
        <ele>446.2</ele>
        <time>2021-08-05T08:28:57Z</time>
      </trkpt>
      <trkpt lat="45.48741" lon="3.31525">
        <ele>446.4</ele>
        <time>2021-08-05T08:28:59Z</time>
      </trkpt>
      <trkpt lat="45.48737" lon="3.31523">
        <ele>446.6</ele>
        <time>2021-08-05T08:29:01Z</time>
      </trkpt>
      <trkpt lat="45.48734" lon="3.31524">
        <ele>446.8</ele>
        <time>2021-08-05T08:29:03Z</time>
      </trkpt>
      <trkpt lat="45.4873" lon="3.31522">
        <ele>447</ele>
        <time>2021-08-05T08:29:05Z</time>
      </trkpt>
      <trkpt lat="45.48726" lon="3.31522">
        <ele>447.2</ele>
        <time>2021-08-05T08:29:07Z</time>
      </trkpt>
      <trkpt lat="45.48722" lon="3.31522">
        <ele>447.3</ele>
        <time>2021-08-05T08:29:09Z</time>
      </trkpt>
      <trkpt lat="45.48718" lon="3.31522">
        <ele>447.5</ele>
        <time>2021-08-05T08:29:11Z</time>
      </trkpt>
      <trkpt lat="45.48714" lon="3.31521">
        <ele>447.7</ele>
        <time>2021-08-05T08:29:13Z</time>
      </trkpt>
      <trkpt lat="45.4871" lon="3.31521">
        <ele>447.9</ele>
        <time>2021-08-05T08:29:15Z</time>
      </trkpt>
      <trkpt lat="45.48705" lon="3.31522">
        <ele>448.1</ele>
        <time>2021-08-05T08:29:17Z</time>
      </trkpt>
      <trkpt lat="45.48702" lon="3.31523">
        <ele>448.3</ele>
        <time>2021-08-05T08:29:19Z</time>
      </trkpt>
      <trkpt lat="45.48697" lon="3.31523">
        <ele>448.5</ele>
        <time>2021-08-05T08:29:21Z</time>
      </trkpt>
      <trkpt lat="45.48693" lon="3.31523">
        <ele>448.7</ele>
        <time>2021-08-05T08:29:23Z</time>
      </trkpt>
      <trkpt lat="45.48689" lon="3.31524">
        <ele>448.9</ele>
        <time>2021-08-05T08:29:25Z</time>
      </trkpt>
      <trkpt lat="45.48684" lon="3.31524">
        <ele>449.2</ele>
        <time>2021-08-05T08:29:27Z</time>
      </trkpt>
      <trkpt lat="45.4868" lon="3.31525">
        <ele>449.4</ele>
        <time>2021-08-05T08:29:29Z</time>
      </trkpt>
      <trkpt lat="45.48675" lon="3.31525">
        <ele>449.6</ele>
        <time>2021-08-05T08:29:31Z</time>
      </trkpt>
      <trkpt lat="45.48671" lon="3.31527">
        <ele>449.8</ele>
        <time>2021-08-05T08:29:33Z</time>
      </trkpt>
      <trkpt lat="45.48666" lon="3.31527">
        <ele>450</ele>
        <time>2021-08-05T08:29:35Z</time>
      </trkpt>
      <trkpt lat="45.48661" lon="3.31528">
        <ele>450.1</ele>
        <time>2021-08-05T08:29:37Z</time>
      </trkpt>
      <trkpt lat="45.48656" lon="3.31529">
        <ele>450.2</ele>
        <time>2021-08-05T08:29:39Z</time>
      </trkpt>
      <trkpt lat="45.48651" lon="3.31531">
        <ele>450.3</ele>
        <time>2021-08-05T08:29:41Z</time>
      </trkpt>
      <trkpt lat="45.48648" lon="3.31532">
        <ele>450.3</ele>
        <time>2021-08-05T08:29:43Z</time>
      </trkpt>
      <trkpt lat="45.48645" lon="3.31534">
        <ele>450.4</ele>
        <time>2021-08-05T08:29:45Z</time>
      </trkpt>
      <trkpt lat="45.48642" lon="3.31535">
        <ele>450.4</ele>
        <time>2021-08-05T08:29:47Z</time>
      </trkpt>
      <trkpt lat="45.48639" lon="3.31534">
        <ele>450.5</ele>
        <time>2021-08-05T08:29:49Z</time>
      </trkpt>
      <trkpt lat="45.48635" lon="3.31535">
        <ele>450.5</ele>
        <time>2021-08-05T08:29:51Z</time>
      </trkpt>
      <trkpt lat="45.48632" lon="3.31536">
        <ele>450.6</ele>
        <time>2021-08-05T08:29:53Z</time>
      </trkpt>
      <trkpt lat="45.4863" lon="3.31539">
        <ele>450.7</ele>
        <time>2021-08-05T08:29:55Z</time>
      </trkpt>
      <trkpt lat="45.48628" lon="3.31542">
        <ele>450.7</ele>
        <time>2021-08-05T08:29:57Z</time>
      </trkpt>
      <trkpt lat="45.48625" lon="3.31541">
        <ele>450.7</ele>
        <time>2021-08-05T08:29:59Z</time>
      </trkpt>
      <trkpt lat="45.48621" lon="3.31542">
        <ele>450.8</ele>
        <time>2021-08-05T08:30:01Z</time>
      </trkpt>
      <trkpt lat="45.48618" lon="3.31543">
        <ele>450.9</ele>
        <time>2021-08-05T08:30:03Z</time>
      </trkpt>
      <trkpt lat="45.48615" lon="3.31544">
        <ele>451</ele>
        <time>2021-08-05T08:30:05Z</time>
      </trkpt>
      <trkpt lat="45.48611" lon="3.31544">
        <ele>451</ele>
        <time>2021-08-05T08:30:07Z</time>
      </trkpt>
      <trkpt lat="45.48606" lon="3.31544">
        <ele>451.1</ele>
        <time>2021-08-05T08:30:09Z</time>
      </trkpt>
      <trkpt lat="45.48602" lon="3.31547">
        <ele>451.2</ele>
        <time>2021-08-05T08:30:11Z</time>
      </trkpt>
      <trkpt lat="45.48597" lon="3.31549">
        <ele>451.3</ele>
        <time>2021-08-05T08:30:13Z</time>
      </trkpt>
      <trkpt lat="45.48592" lon="3.3155">
        <ele>451.4</ele>
        <time>2021-08-05T08:30:15Z</time>
      </trkpt>
      <trkpt lat="45.48587" lon="3.31552">
        <ele>451.5</ele>
        <time>2021-08-05T08:30:17Z</time>
      </trkpt>
      <trkpt lat="45.48583" lon="3.31554">
        <ele>451.7</ele>
        <time>2021-08-05T08:30:19Z</time>
      </trkpt>
      <trkpt lat="45.48578" lon="3.31555">
        <ele>451.8</ele>
        <time>2021-08-05T08:30:21Z</time>
      </trkpt>
      <trkpt lat="45.48573" lon="3.31557">
        <ele>451.9</ele>
        <time>2021-08-05T08:30:23Z</time>
      </trkpt>
      <trkpt lat="45.48568" lon="3.3156">
        <ele>452</ele>
        <time>2021-08-05T08:30:25Z</time>
      </trkpt>
      <trkpt lat="45.48562" lon="3.31561">
        <ele>452.2</ele>
        <time>2021-08-05T08:30:27Z</time>
      </trkpt>
      <trkpt lat="45.48557" lon="3.31564">
        <ele>452.3</ele>
        <time>2021-08-05T08:30:29Z</time>
      </trkpt>
      <trkpt lat="45.48552" lon="3.31566">
        <ele>452.5</ele>
        <time>2021-08-05T08:30:31Z</time>
      </trkpt>
      <trkpt lat="45.48547" lon="3.31568">
        <ele>452.6</ele>
        <time>2021-08-05T08:30:33Z</time>
      </trkpt>
      <trkpt lat="45.48542" lon="3.31571">
        <ele>452.8</ele>
        <time>2021-08-05T08:30:35Z</time>
      </trkpt>
      <trkpt lat="45.48537" lon="3.31572">
        <ele>452.9</ele>
        <time>2021-08-05T08:30:37Z</time>
      </trkpt>
      <trkpt lat="45.48532" lon="3.31575">
        <ele>453.1</ele>
        <time>2021-08-05T08:30:39Z</time>
      </trkpt>
      <trkpt lat="45.48526" lon="3.31577">
        <ele>453.2</ele>
        <time>2021-08-05T08:30:41Z</time>
      </trkpt>
      <trkpt lat="45.48521" lon="3.3158">
        <ele>453.4</ele>
        <time>2021-08-05T08:30:43Z</time>
      </trkpt>
      <trkpt lat="45.48515" lon="3.31583">
        <ele>453.6</ele>
        <time>2021-08-05T08:30:45Z</time>
      </trkpt>
      <trkpt lat="45.4851" lon="3.31586">
        <ele>453.8</ele>
        <time>2021-08-05T08:30:47Z</time>
      </trkpt>
      <trkpt lat="45.48504" lon="3.31589">
        <ele>454</ele>
        <time>2021-08-05T08:30:49Z</time>
      </trkpt>
      <trkpt lat="45.48498" lon="3.31593">
        <ele>454.1</ele>
        <time>2021-08-05T08:30:51Z</time>
      </trkpt>
      <trkpt lat="45.48492" lon="3.31596">
        <ele>454.2</ele>
        <time>2021-08-05T08:30:53Z</time>
      </trkpt>
      <trkpt lat="45.48486" lon="3.31599">
        <ele>454.3</ele>
        <time>2021-08-05T08:30:55Z</time>
      </trkpt>
      <trkpt lat="45.48481" lon="3.31602">
        <ele>454.4</ele>
        <time>2021-08-05T08:30:57Z</time>
      </trkpt>
      <trkpt lat="45.48475" lon="3.31605">
        <ele>454.5</ele>
        <time>2021-08-05T08:30:59Z</time>
      </trkpt>
      <trkpt lat="45.48469" lon="3.31608">
        <ele>454.6</ele>
        <time>2021-08-05T08:31:01Z</time>
      </trkpt>
      <trkpt lat="45.48463" lon="3.31611">
        <ele>454.8</ele>
        <time>2021-08-05T08:31:03Z</time>
      </trkpt>
      <trkpt lat="45.48457" lon="3.31614">
        <ele>454.9</ele>
        <time>2021-08-05T08:31:05Z</time>
      </trkpt>
      <trkpt lat="45.48451" lon="3.31617">
        <ele>455.1</ele>
        <time>2021-08-05T08:31:07Z</time>
      </trkpt>
      <trkpt lat="45.48445" lon="3.3162">
        <ele>455.3</ele>
        <time>2021-08-05T08:31:09Z</time>
      </trkpt>
      <trkpt lat="45.4844" lon="3.31624">
        <ele>455.5</ele>
        <time>2021-08-05T08:31:11Z</time>
      </trkpt>
      <trkpt lat="45.48435" lon="3.31627">
        <ele>455.8</ele>
        <time>2021-08-05T08:31:13Z</time>
      </trkpt>
      <trkpt lat="45.48429" lon="3.3163">
        <ele>456</ele>
        <time>2021-08-05T08:31:15Z</time>
      </trkpt>
      <trkpt lat="45.48423" lon="3.31633">
        <ele>456.2</ele>
        <time>2021-08-05T08:31:17Z</time>
      </trkpt>
      <trkpt lat="45.48417" lon="3.31636">
        <ele>456.5</ele>
        <time>2021-08-05T08:31:19Z</time>
      </trkpt>
      <trkpt lat="45.48412" lon="3.31638">
        <ele>456.7</ele>
        <time>2021-08-05T08:31:21Z</time>
      </trkpt>
      <trkpt lat="45.48406" lon="3.31641">
        <ele>456.9</ele>
        <time>2021-08-05T08:31:23Z</time>
      </trkpt>
      <trkpt lat="45.48401" lon="3.31645">
        <ele>457.1</ele>
        <time>2021-08-05T08:31:25Z</time>
      </trkpt>
      <trkpt lat="45.48395" lon="3.31647">
        <ele>457.3</ele>
        <time>2021-08-05T08:31:27Z</time>
      </trkpt>
      <trkpt lat="45.48389" lon="3.3165">
        <ele>457.4</ele>
        <time>2021-08-05T08:31:29Z</time>
      </trkpt>
      <trkpt lat="45.48384" lon="3.31653">
        <ele>457.6</ele>
        <time>2021-08-05T08:31:31Z</time>
      </trkpt>
      <trkpt lat="45.48378" lon="3.31656">
        <ele>457.7</ele>
        <time>2021-08-05T08:31:33Z</time>
      </trkpt>
      <trkpt lat="45.48373" lon="3.31659">
        <ele>457.8</ele>
        <time>2021-08-05T08:31:35Z</time>
      </trkpt>
      <trkpt lat="45.48367" lon="3.31662">
        <ele>457.9</ele>
        <time>2021-08-05T08:31:37Z</time>
      </trkpt>
      <trkpt lat="45.48362" lon="3.31665">
        <ele>458</ele>
        <time>2021-08-05T08:31:39Z</time>
      </trkpt>
      <trkpt lat="45.48356" lon="3.31668">
        <ele>458</ele>
        <time>2021-08-05T08:31:41Z</time>
      </trkpt>
      <trkpt lat="45.4835" lon="3.31671">
        <ele>458.1</ele>
        <time>2021-08-05T08:31:43Z</time>
      </trkpt>
      <trkpt lat="45.48345" lon="3.31674">
        <ele>458.2</ele>
        <time>2021-08-05T08:31:45Z</time>
      </trkpt>
      <trkpt lat="45.48339" lon="3.31677">
        <ele>458.2</ele>
        <time>2021-08-05T08:31:47Z</time>
      </trkpt>
      <trkpt lat="45.48334" lon="3.3168">
        <ele>458.3</ele>
        <time>2021-08-05T08:31:49Z</time>
      </trkpt>
      <trkpt lat="45.48329" lon="3.31682">
        <ele>458.6</ele>
        <time>2021-08-05T08:31:51Z</time>
      </trkpt>
      <trkpt lat="45.48323" lon="3.31685">
        <ele>458.9</ele>
        <time>2021-08-05T08:31:53Z</time>
      </trkpt>
      <trkpt lat="45.48317" lon="3.31688">
        <ele>459.3</ele>
        <time>2021-08-05T08:31:55Z</time>
      </trkpt>
      <trkpt lat="45.48312" lon="3.31691">
        <ele>459.6</ele>
        <time>2021-08-05T08:31:57Z</time>
      </trkpt>
      <trkpt lat="45.48306" lon="3.31695">
        <ele>460</ele>
        <time>2021-08-05T08:31:59Z</time>
      </trkpt>
      <trkpt lat="45.48301" lon="3.31698">
        <ele>460.3</ele>
        <time>2021-08-05T08:32:01Z</time>
      </trkpt>
      <trkpt lat="45.48296" lon="3.31701">
        <ele>460.6</ele>
        <time>2021-08-05T08:32:03Z</time>
      </trkpt>
      <trkpt lat="45.48291" lon="3.31703">
        <ele>460.9</ele>
        <time>2021-08-05T08:32:05Z</time>
      </trkpt>
      <trkpt lat="45.48285" lon="3.31707">
        <ele>461.3</ele>
        <time>2021-08-05T08:32:07Z</time>
      </trkpt>
      <trkpt lat="45.4828" lon="3.31709">
        <ele>461.6</ele>
        <time>2021-08-05T08:32:09Z</time>
      </trkpt>
      <trkpt lat="45.48275" lon="3.31712">
        <ele>461.9</ele>
        <time>2021-08-05T08:32:11Z</time>
      </trkpt>
      <trkpt lat="45.48269" lon="3.31714">
        <ele>462.2</ele>
        <time>2021-08-05T08:32:13Z</time>
      </trkpt>
      <trkpt lat="45.48265" lon="3.31717">
        <ele>462.5</ele>
        <time>2021-08-05T08:32:15Z</time>
      </trkpt>
      <trkpt lat="45.4826" lon="3.31718">
        <ele>462.7</ele>
        <time>2021-08-05T08:32:17Z</time>
      </trkpt>
      <trkpt lat="45.48256" lon="3.3172">
        <ele>463</ele>
        <time>2021-08-05T08:32:19Z</time>
      </trkpt>
      <trkpt lat="45.48251" lon="3.31721">
        <ele>463.2</ele>
        <time>2021-08-05T08:32:21Z</time>
      </trkpt>
      <trkpt lat="45.48247" lon="3.31723">
        <ele>463.5</ele>
        <time>2021-08-05T08:32:23Z</time>
      </trkpt>
      <trkpt lat="45.48242" lon="3.31725">
        <ele>463.7</ele>
        <time>2021-08-05T08:32:25Z</time>
      </trkpt>
      <trkpt lat="45.48237" lon="3.31726">
        <ele>463.9</ele>
        <time>2021-08-05T08:32:27Z</time>
      </trkpt>
      <trkpt lat="45.48232" lon="3.31728">
        <ele>464.1</ele>
        <time>2021-08-05T08:32:29Z</time>
      </trkpt>
      <trkpt lat="45.48228" lon="3.3173">
        <ele>464.2</ele>
        <time>2021-08-05T08:32:31Z</time>
      </trkpt>
      <trkpt lat="45.48224" lon="3.31731">
        <ele>464.4</ele>
        <time>2021-08-05T08:32:33Z</time>
      </trkpt>
      <trkpt lat="45.48219" lon="3.31732">
        <ele>464.6</ele>
        <time>2021-08-05T08:32:35Z</time>
      </trkpt>
      <trkpt lat="45.48215" lon="3.31734">
        <ele>464.8</ele>
        <time>2021-08-05T08:32:37Z</time>
      </trkpt>
      <trkpt lat="45.48211" lon="3.31735">
        <ele>465</ele>
        <time>2021-08-05T08:32:39Z</time>
      </trkpt>
      <trkpt lat="45.48207" lon="3.31737">
        <ele>465.2</ele>
        <time>2021-08-05T08:32:41Z</time>
      </trkpt>
      <trkpt lat="45.48202" lon="3.31738">
        <ele>465.3</ele>
        <time>2021-08-05T08:32:43Z</time>
      </trkpt>
      <trkpt lat="45.48198" lon="3.31739">
        <ele>465.5</ele>
        <time>2021-08-05T08:32:45Z</time>
      </trkpt>
      <trkpt lat="45.48193" lon="3.31741">
        <ele>465.8</ele>
        <time>2021-08-05T08:32:47Z</time>
      </trkpt>
      <trkpt lat="45.48189" lon="3.31743">
        <ele>466</ele>
        <time>2021-08-05T08:32:49Z</time>
      </trkpt>
      <trkpt lat="45.48184" lon="3.31745">
        <ele>466.2</ele>
        <time>2021-08-05T08:32:51Z</time>
      </trkpt>
      <trkpt lat="45.4818" lon="3.31746">
        <ele>466.4</ele>
        <time>2021-08-05T08:32:53Z</time>
      </trkpt>
      <trkpt lat="45.48176" lon="3.31748">
        <ele>466.6</ele>
        <time>2021-08-05T08:32:55Z</time>
      </trkpt>
      <trkpt lat="45.48172" lon="3.31753">
        <ele>466.8</ele>
        <time>2021-08-05T08:32:57Z</time>
      </trkpt>
      <trkpt lat="45.48171" lon="3.3176">
        <ele>466.7</ele>
        <time>2021-08-05T08:32:59Z</time>
      </trkpt>
      <trkpt lat="45.4817" lon="3.31768">
        <ele>466.7</ele>
        <time>2021-08-05T08:33:01Z</time>
      </trkpt>
      <trkpt lat="45.4817" lon="3.31776">
        <ele>466.6</ele>
        <time>2021-08-05T08:33:03Z</time>
      </trkpt>
      <trkpt lat="45.48169" lon="3.31783">
        <ele>466.5</ele>
        <time>2021-08-05T08:33:05Z</time>
      </trkpt>
      <trkpt lat="45.48168" lon="3.3179">
        <ele>466.5</ele>
        <time>2021-08-05T08:33:07Z</time>
      </trkpt>
      <trkpt lat="45.48167" lon="3.31794">
        <ele>466.5</ele>
        <time>2021-08-05T08:33:09Z</time>
      </trkpt>
      <trkpt lat="45.48167" lon="3.31799">
        <ele>466.4</ele>
        <time>2021-08-05T08:33:11Z</time>
      </trkpt>
      <trkpt lat="45.48168" lon="3.31802">
        <ele>466.3</ele>
        <time>2021-08-05T08:33:13Z</time>
      </trkpt>
      <trkpt lat="45.4817" lon="3.31801">
        <ele>466.3</ele>
        <time>2021-08-05T08:33:15Z</time>
      </trkpt>
      <trkpt lat="45.48174" lon="3.318">
        <ele>466.2</ele>
        <time>2021-08-05T08:33:17Z</time>
      </trkpt>
      <trkpt lat="45.48174" lon="3.31796">
        <ele>466.2</ele>
        <time>2021-08-05T08:33:19Z</time>
      </trkpt>
      <trkpt lat="45.48174" lon="3.31794">
        <ele>466.3</ele>
        <time>2021-08-05T08:33:21Z</time>
      </trkpt>
      <trkpt lat="45.48174" lon="3.31791">
        <ele>466.3</ele>
        <time>2021-08-05T08:33:23Z</time>
      </trkpt>
      <trkpt lat="45.48172" lon="3.31788">
        <ele>466.4</ele>
        <time>2021-08-05T08:33:25Z</time>
      </trkpt>
      <trkpt lat="45.48169" lon="3.31791">
        <ele>466.4</ele>
        <time>2021-08-05T08:33:27Z</time>
      </trkpt>
      <trkpt lat="45.48167" lon="3.31796">
        <ele>466.4</ele>
        <time>2021-08-05T08:33:29Z</time>
      </trkpt>
      <trkpt lat="45.48167" lon="3.31802">
        <ele>466.4</ele>
        <time>2021-08-05T08:33:31Z</time>
      </trkpt>
      <trkpt lat="45.48167" lon="3.31808">
        <ele>466.3</ele>
        <time>2021-08-05T08:33:33Z</time>
      </trkpt>
      <trkpt lat="45.48166" lon="3.31814">
        <ele>466.2</ele>
        <time>2021-08-05T08:33:35Z</time>
      </trkpt>
      <trkpt lat="45.48164" lon="3.31821">
        <ele>466.1</ele>
        <time>2021-08-05T08:33:37Z</time>
      </trkpt>
      <trkpt lat="45.48162" lon="3.31827">
        <ele>466.1</ele>
        <time>2021-08-05T08:33:39Z</time>
      </trkpt>
      <trkpt lat="45.48161" lon="3.31834">
        <ele>466</ele>
        <time>2021-08-05T08:33:41Z</time>
      </trkpt>
      <trkpt lat="45.4816" lon="3.31841">
        <ele>466</ele>
        <time>2021-08-05T08:33:43Z</time>
      </trkpt>
      <trkpt lat="45.48158" lon="3.31848">
        <ele>466</ele>
        <time>2021-08-05T08:33:45Z</time>
      </trkpt>
      <trkpt lat="45.48156" lon="3.31855">
        <ele>466</ele>
        <time>2021-08-05T08:33:47Z</time>
      </trkpt>
      <trkpt lat="45.48153" lon="3.31862">
        <ele>466.1</ele>
        <time>2021-08-05T08:33:49Z</time>
      </trkpt>
      <trkpt lat="45.48151" lon="3.31869">
        <ele>466.1</ele>
        <time>2021-08-05T08:33:51Z</time>
      </trkpt>
      <trkpt lat="45.48148" lon="3.31876">
        <ele>466.1</ele>
        <time>2021-08-05T08:33:53Z</time>
      </trkpt>
      <trkpt lat="45.48145" lon="3.31884">
        <ele>466.2</ele>
        <time>2021-08-05T08:33:55Z</time>
      </trkpt>
      <trkpt lat="45.48141" lon="3.31891">
        <ele>466.2</ele>
        <time>2021-08-05T08:33:57Z</time>
      </trkpt>
      <trkpt lat="45.48138" lon="3.31899">
        <ele>466.3</ele>
        <time>2021-08-05T08:33:59Z</time>
      </trkpt>
      <trkpt lat="45.48134" lon="3.31907">
        <ele>466.4</ele>
        <time>2021-08-05T08:34:01Z</time>
      </trkpt>
      <trkpt lat="45.4813" lon="3.31916">
        <ele>466.4</ele>
        <time>2021-08-05T08:34:03Z</time>
      </trkpt>
      <trkpt lat="45.48126" lon="3.31924">
        <ele>466.4</ele>
        <time>2021-08-05T08:34:05Z</time>
      </trkpt>
      <trkpt lat="45.48122" lon="3.31932">
        <ele>466.3</ele>
        <time>2021-08-05T08:34:07Z</time>
      </trkpt>
      <trkpt lat="45.48118" lon="3.3194">
        <ele>466.2</ele>
        <time>2021-08-05T08:34:09Z</time>
      </trkpt>
      <trkpt lat="45.48114" lon="3.31949">
        <ele>466.2</ele>
        <time>2021-08-05T08:34:11Z</time>
      </trkpt>
      <trkpt lat="45.48109" lon="3.31957">
        <ele>466.2</ele>
        <time>2021-08-05T08:34:13Z</time>
      </trkpt>
      <trkpt lat="45.48104" lon="3.31965">
        <ele>466.3</ele>
        <time>2021-08-05T08:34:15Z</time>
      </trkpt>
      <trkpt lat="45.48099" lon="3.31973">
        <ele>466.4</ele>
        <time>2021-08-05T08:34:17Z</time>
      </trkpt>
      <trkpt lat="45.48093" lon="3.31979">
        <ele>466.6</ele>
        <time>2021-08-05T08:34:19Z</time>
      </trkpt>
      <trkpt lat="45.48086" lon="3.31985">
        <ele>466.9</ele>
        <time>2021-08-05T08:34:21Z</time>
      </trkpt>
      <trkpt lat="45.48079" lon="3.31991">
        <ele>467</ele>
        <time>2021-08-05T08:34:23Z</time>
      </trkpt>
      <trkpt lat="45.48073" lon="3.31996">
        <ele>467</ele>
        <time>2021-08-05T08:34:25Z</time>
      </trkpt>
      <trkpt lat="45.48066" lon="3.32001">
        <ele>467</ele>
        <time>2021-08-05T08:34:27Z</time>
      </trkpt>
      <trkpt lat="45.48059" lon="3.32005">
        <ele>466.9</ele>
        <time>2021-08-05T08:34:29Z</time>
      </trkpt>
      <trkpt lat="45.48052" lon="3.32009">
        <ele>466.9</ele>
        <time>2021-08-05T08:34:31Z</time>
      </trkpt>
      <trkpt lat="45.48045" lon="3.32014">
        <ele>466.9</ele>
        <time>2021-08-05T08:34:33Z</time>
      </trkpt>
      <trkpt lat="45.48038" lon="3.32019">
        <ele>466.9</ele>
        <time>2021-08-05T08:34:35Z</time>
      </trkpt>
      <trkpt lat="45.4803" lon="3.32024">
        <ele>467</ele>
        <time>2021-08-05T08:34:37Z</time>
      </trkpt>
      <trkpt lat="45.48023" lon="3.32029">
        <ele>467.1</ele>
        <time>2021-08-05T08:34:39Z</time>
      </trkpt>
      <trkpt lat="45.48016" lon="3.32033">
        <ele>467.2</ele>
        <time>2021-08-05T08:34:41Z</time>
      </trkpt>
      <trkpt lat="45.48009" lon="3.32038">
        <ele>467.3</ele>
        <time>2021-08-05T08:34:43Z</time>
      </trkpt>
      <trkpt lat="45.48002" lon="3.32043">
        <ele>467.5</ele>
        <time>2021-08-05T08:34:45Z</time>
      </trkpt>
      <trkpt lat="45.47995" lon="3.32048">
        <ele>467.7</ele>
        <time>2021-08-05T08:34:47Z</time>
      </trkpt>
      <trkpt lat="45.47988" lon="3.32052">
        <ele>467.9</ele>
        <time>2021-08-05T08:34:49Z</time>
      </trkpt>
      <trkpt lat="45.47981" lon="3.32057">
        <ele>468.1</ele>
        <time>2021-08-05T08:34:51Z</time>
      </trkpt>
      <trkpt lat="45.47974" lon="3.3206">
        <ele>468.3</ele>
        <time>2021-08-05T08:34:53Z</time>
      </trkpt>
      <trkpt lat="45.47967" lon="3.32063">
        <ele>468.4</ele>
        <time>2021-08-05T08:34:55Z</time>
      </trkpt>
      <trkpt lat="45.47961" lon="3.32066">
        <ele>468.6</ele>
        <time>2021-08-05T08:34:57Z</time>
      </trkpt>
      <trkpt lat="45.47954" lon="3.32068">
        <ele>468.8</ele>
        <time>2021-08-05T08:34:59Z</time>
      </trkpt>
      <trkpt lat="45.47948" lon="3.3207">
        <ele>469</ele>
        <time>2021-08-05T08:35:01Z</time>
      </trkpt>
      <trkpt lat="45.47941" lon="3.3207">
        <ele>469.1</ele>
        <time>2021-08-05T08:35:03Z</time>
      </trkpt>
      <trkpt lat="45.47935" lon="3.32071">
        <ele>469.3</ele>
        <time>2021-08-05T08:35:05Z</time>
      </trkpt>
      <trkpt lat="45.47928" lon="3.32072">
        <ele>469.5</ele>
        <time>2021-08-05T08:35:07Z</time>
      </trkpt>
      <trkpt lat="45.47922" lon="3.32071">
        <ele>469.6</ele>
        <time>2021-08-05T08:35:09Z</time>
      </trkpt>
      <trkpt lat="45.47915" lon="3.32072">
        <ele>469.8</ele>
        <time>2021-08-05T08:35:11Z</time>
      </trkpt>
      <trkpt lat="45.47908" lon="3.32071">
        <ele>469.9</ele>
        <time>2021-08-05T08:35:13Z</time>
      </trkpt>
      <trkpt lat="45.47902" lon="3.32072">
        <ele>470.1</ele>
        <time>2021-08-05T08:35:15Z</time>
      </trkpt>
      <trkpt lat="45.47895" lon="3.32072">
        <ele>470.3</ele>
        <time>2021-08-05T08:35:17Z</time>
      </trkpt>
      <trkpt lat="45.47888" lon="3.32072">
        <ele>470.5</ele>
        <time>2021-08-05T08:35:19Z</time>
      </trkpt>
      <trkpt lat="45.47882" lon="3.32073">
        <ele>470.6</ele>
        <time>2021-08-05T08:35:21Z</time>
      </trkpt>
      <trkpt lat="45.47875" lon="3.32073">
        <ele>470.8</ele>
        <time>2021-08-05T08:35:23Z</time>
      </trkpt>
      <trkpt lat="45.47868" lon="3.32073">
        <ele>471</ele>
        <time>2021-08-05T08:35:25Z</time>
      </trkpt>
      <trkpt lat="45.47862" lon="3.32074">
        <ele>471.2</ele>
        <time>2021-08-05T08:35:27Z</time>
      </trkpt>
      <trkpt lat="45.47855" lon="3.32074">
        <ele>471.3</ele>
        <time>2021-08-05T08:35:29Z</time>
      </trkpt>
      <trkpt lat="45.47849" lon="3.32074">
        <ele>471.5</ele>
        <time>2021-08-05T08:35:31Z</time>
      </trkpt>
      <trkpt lat="45.47843" lon="3.32074">
        <ele>471.7</ele>
        <time>2021-08-05T08:35:33Z</time>
      </trkpt>
      <trkpt lat="45.47837" lon="3.32075">
        <ele>471.8</ele>
        <time>2021-08-05T08:35:35Z</time>
      </trkpt>
      <trkpt lat="45.47831" lon="3.32076">
        <ele>472</ele>
        <time>2021-08-05T08:35:37Z</time>
      </trkpt>
      <trkpt lat="45.47825" lon="3.32076">
        <ele>472.1</ele>
        <time>2021-08-05T08:35:39Z</time>
      </trkpt>
      <trkpt lat="45.47819" lon="3.32077">
        <ele>472.3</ele>
        <time>2021-08-05T08:35:41Z</time>
      </trkpt>
      <trkpt lat="45.47814" lon="3.32078">
        <ele>472.4</ele>
        <time>2021-08-05T08:35:43Z</time>
      </trkpt>
      <trkpt lat="45.47808" lon="3.32078">
        <ele>472.5</ele>
        <time>2021-08-05T08:35:45Z</time>
      </trkpt>
      <trkpt lat="45.47803" lon="3.32079">
        <ele>472.7</ele>
        <time>2021-08-05T08:35:47Z</time>
      </trkpt>
      <trkpt lat="45.47798" lon="3.3208">
        <ele>472.8</ele>
        <time>2021-08-05T08:35:49Z</time>
      </trkpt>
      <trkpt lat="45.47792" lon="3.3208">
        <ele>472.9</ele>
        <time>2021-08-05T08:35:51Z</time>
      </trkpt>
      <trkpt lat="45.47788" lon="3.32081">
        <ele>473.1</ele>
        <time>2021-08-05T08:35:53Z</time>
      </trkpt>
      <trkpt lat="45.47783" lon="3.32081">
        <ele>473.2</ele>
        <time>2021-08-05T08:35:55Z</time>
      </trkpt>
      <trkpt lat="45.47777" lon="3.32082">
        <ele>473.3</ele>
        <time>2021-08-05T08:35:57Z</time>
      </trkpt>
      <trkpt lat="45.47772" lon="3.32083">
        <ele>473.5</ele>
        <time>2021-08-05T08:35:59Z</time>
      </trkpt>
      <trkpt lat="45.47767" lon="3.32083">
        <ele>473.6</ele>
        <time>2021-08-05T08:36:01Z</time>
      </trkpt>
      <trkpt lat="45.47761" lon="3.32085">
        <ele>473.8</ele>
        <time>2021-08-05T08:36:03Z</time>
      </trkpt>
      <trkpt lat="45.47756" lon="3.32085">
        <ele>473.9</ele>
        <time>2021-08-05T08:36:05Z</time>
      </trkpt>
      <trkpt lat="45.47751" lon="3.32086">
        <ele>474.1</ele>
        <time>2021-08-05T08:36:07Z</time>
      </trkpt>
      <trkpt lat="45.47745" lon="3.32087">
        <ele>474.3</ele>
        <time>2021-08-05T08:36:09Z</time>
      </trkpt>
      <trkpt lat="45.4774" lon="3.32087">
        <ele>474.6</ele>
        <time>2021-08-05T08:36:11Z</time>
      </trkpt>
      <trkpt lat="45.47735" lon="3.32088">
        <ele>474.8</ele>
        <time>2021-08-05T08:36:13Z</time>
      </trkpt>
      <trkpt lat="45.4773" lon="3.32089">
        <ele>475.1</ele>
        <time>2021-08-05T08:36:15Z</time>
      </trkpt>
      <trkpt lat="45.47724" lon="3.3209">
        <ele>475.4</ele>
        <time>2021-08-05T08:36:17Z</time>
      </trkpt>
      <trkpt lat="45.47719" lon="3.3209">
        <ele>475.7</ele>
        <time>2021-08-05T08:36:19Z</time>
      </trkpt>
      <trkpt lat="45.47714" lon="3.32091">
        <ele>475.9</ele>
        <time>2021-08-05T08:36:21Z</time>
      </trkpt>
      <trkpt lat="45.47708" lon="3.32093">
        <ele>476.2</ele>
        <time>2021-08-05T08:36:23Z</time>
      </trkpt>
      <trkpt lat="45.47703" lon="3.32093">
        <ele>476.5</ele>
        <time>2021-08-05T08:36:25Z</time>
      </trkpt>
      <trkpt lat="45.47698" lon="3.32093">
        <ele>476.7</ele>
        <time>2021-08-05T08:36:27Z</time>
      </trkpt>
      <trkpt lat="45.47693" lon="3.32094">
        <ele>477</ele>
        <time>2021-08-05T08:36:29Z</time>
      </trkpt>
      <trkpt lat="45.47688" lon="3.32095">
        <ele>477.3</ele>
        <time>2021-08-05T08:36:31Z</time>
      </trkpt>
      <trkpt lat="45.47682" lon="3.32096">
        <ele>477.6</ele>
        <time>2021-08-05T08:36:33Z</time>
      </trkpt>
      <trkpt lat="45.47677" lon="3.32097">
        <ele>477.8</ele>
        <time>2021-08-05T08:36:35Z</time>
      </trkpt>
      <trkpt lat="45.47672" lon="3.32098">
        <ele>478.1</ele>
        <time>2021-08-05T08:36:37Z</time>
      </trkpt>
      <trkpt lat="45.47667" lon="3.32098">
        <ele>478.3</ele>
        <time>2021-08-05T08:36:39Z</time>
      </trkpt>
      <trkpt lat="45.47662" lon="3.32099">
        <ele>478.6</ele>
        <time>2021-08-05T08:36:41Z</time>
      </trkpt>
      <trkpt lat="45.47657" lon="3.321">
        <ele>478.9</ele>
        <time>2021-08-05T08:36:43Z</time>
      </trkpt>
      <trkpt lat="45.47651" lon="3.321">
        <ele>479.1</ele>
        <time>2021-08-05T08:36:45Z</time>
      </trkpt>
      <trkpt lat="45.47646" lon="3.32101">
        <ele>479.3</ele>
        <time>2021-08-05T08:36:47Z</time>
      </trkpt>
      <trkpt lat="45.47641" lon="3.32101">
        <ele>479.6</ele>
        <time>2021-08-05T08:36:49Z</time>
      </trkpt>
      <trkpt lat="45.47636" lon="3.32102">
        <ele>479.9</ele>
        <time>2021-08-05T08:36:51Z</time>
      </trkpt>
      <trkpt lat="45.47631" lon="3.32103">
        <ele>480.1</ele>
        <time>2021-08-05T08:36:53Z</time>
      </trkpt>
      <trkpt lat="45.47626" lon="3.32104">
        <ele>480.3</ele>
        <time>2021-08-05T08:36:55Z</time>
      </trkpt>
      <trkpt lat="45.4762" lon="3.32105">
        <ele>480.6</ele>
        <time>2021-08-05T08:36:57Z</time>
      </trkpt>
      <trkpt lat="45.47615" lon="3.32106">
        <ele>480.9</ele>
        <time>2021-08-05T08:36:59Z</time>
      </trkpt>
      <trkpt lat="45.4761" lon="3.32108">
        <ele>481.1</ele>
        <time>2021-08-05T08:37:01Z</time>
      </trkpt>
      <trkpt lat="45.47605" lon="3.32109">
        <ele>481.4</ele>
        <time>2021-08-05T08:37:03Z</time>
      </trkpt>
      <trkpt lat="45.476" lon="3.32111">
        <ele>481.6</ele>
        <time>2021-08-05T08:37:05Z</time>
      </trkpt>
      <trkpt lat="45.47595" lon="3.32113">
        <ele>481.8</ele>
        <time>2021-08-05T08:37:07Z</time>
      </trkpt>
      <trkpt lat="45.4759" lon="3.32115">
        <ele>482.1</ele>
        <time>2021-08-05T08:37:09Z</time>
      </trkpt>
      <trkpt lat="45.47585" lon="3.32117">
        <ele>482.3</ele>
        <time>2021-08-05T08:37:11Z</time>
      </trkpt>
      <trkpt lat="45.4758" lon="3.32119">
        <ele>482.6</ele>
        <time>2021-08-05T08:37:13Z</time>
      </trkpt>
      <trkpt lat="45.47575" lon="3.3212">
        <ele>482.9</ele>
        <time>2021-08-05T08:37:15Z</time>
      </trkpt>
      <trkpt lat="45.4757" lon="3.32122">
        <ele>483.2</ele>
        <time>2021-08-05T08:37:17Z</time>
      </trkpt>
      <trkpt lat="45.47566" lon="3.32125">
        <ele>483.4</ele>
        <time>2021-08-05T08:37:19Z</time>
      </trkpt>
      <trkpt lat="45.47561" lon="3.32127">
        <ele>483.7</ele>
        <time>2021-08-05T08:37:21Z</time>
      </trkpt>
      <trkpt lat="45.47557" lon="3.32129">
        <ele>484</ele>
        <time>2021-08-05T08:37:23Z</time>
      </trkpt>
      <trkpt lat="45.47552" lon="3.32131">
        <ele>484.2</ele>
        <time>2021-08-05T08:37:25Z</time>
      </trkpt>
      <trkpt lat="45.47548" lon="3.32133">
        <ele>484.5</ele>
        <time>2021-08-05T08:37:27Z</time>
      </trkpt>
      <trkpt lat="45.47543" lon="3.32135">
        <ele>484.7</ele>
        <time>2021-08-05T08:37:29Z</time>
      </trkpt>
      <trkpt lat="45.47539" lon="3.32137">
        <ele>485</ele>
        <time>2021-08-05T08:37:31Z</time>
      </trkpt>
      <trkpt lat="45.47535" lon="3.32139">
        <ele>485.2</ele>
        <time>2021-08-05T08:37:33Z</time>
      </trkpt>
      <trkpt lat="45.47531" lon="3.32139">
        <ele>485.4</ele>
        <time>2021-08-05T08:37:35Z</time>
      </trkpt>
      <trkpt lat="45.47528" lon="3.32139">
        <ele>485.6</ele>
        <time>2021-08-05T08:37:37Z</time>
      </trkpt>
      <trkpt lat="45.47525" lon="3.32138">
        <ele>485.7</ele>
        <time>2021-08-05T08:37:39Z</time>
      </trkpt>
      <trkpt lat="45.47523" lon="3.32136">
        <ele>485.8</ele>
        <time>2021-08-05T08:37:41Z</time>
      </trkpt>
      <trkpt lat="45.47521" lon="3.32134">
        <ele>485.9</ele>
        <time>2021-08-05T08:37:43Z</time>
      </trkpt>
      <trkpt lat="45.47521" lon="3.32133">
        <ele>485.9</ele>
        <time>2021-08-05T08:37:45Z</time>
      </trkpt>
      <trkpt lat="45.47521" lon="3.32131">
        <ele>485.9</ele>
        <time>2021-08-05T08:37:47Z</time>
      </trkpt>
      <trkpt lat="45.4752" lon="3.32128">
        <ele>485.9</ele>
        <time>2021-08-05T08:37:49Z</time>
      </trkpt>
      <trkpt lat="45.4752" lon="3.32128">
        <ele>485.9</ele>
        <time>2021-08-05T08:37:51Z</time>
      </trkpt>
      <trkpt lat="45.47517" lon="3.32113">
        <ele>486</ele>
        <time>2021-08-05T08:41:33Z</time>
      </trkpt>
      <trkpt lat="45.47517" lon="3.32107">
        <ele>486</ele>
        <time>2021-08-05T08:41:35Z</time>
      </trkpt>
      <trkpt lat="45.47517" lon="3.321">
        <ele>486</ele>
        <time>2021-08-05T08:41:37Z</time>
      </trkpt>
      <trkpt lat="45.47517" lon="3.32092">
        <ele>486</ele>
        <time>2021-08-05T08:41:39Z</time>
      </trkpt>
      <trkpt lat="45.47517" lon="3.32083">
        <ele>486</ele>
        <time>2021-08-05T08:41:41Z</time>
      </trkpt>
      <trkpt lat="45.47518" lon="3.32075">
        <ele>485.8</ele>
        <time>2021-08-05T08:41:43Z</time>
      </trkpt>
      <trkpt lat="45.47518" lon="3.32065">
        <ele>485.7</ele>
        <time>2021-08-05T08:41:45Z</time>
      </trkpt>
      <trkpt lat="45.47518" lon="3.32054">
        <ele>485.5</ele>
        <time>2021-08-05T08:41:47Z</time>
      </trkpt>
      <trkpt lat="45.4752" lon="3.32044">
        <ele>485.4</ele>
        <time>2021-08-05T08:41:49Z</time>
      </trkpt>
      <trkpt lat="45.47521" lon="3.32034">
        <ele>485.2</ele>
        <time>2021-08-05T08:41:51Z</time>
      </trkpt>
      <trkpt lat="45.47523" lon="3.32024">
        <ele>484.9</ele>
        <time>2021-08-05T08:41:53Z</time>
      </trkpt>
      <trkpt lat="45.47525" lon="3.32013">
        <ele>484.7</ele>
        <time>2021-08-05T08:41:55Z</time>
      </trkpt>
      <trkpt lat="45.47527" lon="3.32003">
        <ele>484.4</ele>
        <time>2021-08-05T08:41:57Z</time>
      </trkpt>
      <trkpt lat="45.47529" lon="3.31993">
        <ele>484.2</ele>
        <time>2021-08-05T08:41:59Z</time>
      </trkpt>
      <trkpt lat="45.47531" lon="3.31983">
        <ele>484</ele>
        <time>2021-08-05T08:42:01Z</time>
      </trkpt>
      <trkpt lat="45.47534" lon="3.31973">
        <ele>483.8</ele>
        <time>2021-08-05T08:42:03Z</time>
      </trkpt>
      <trkpt lat="45.47536" lon="3.31962">
        <ele>483.6</ele>
        <time>2021-08-05T08:42:05Z</time>
      </trkpt>
      <trkpt lat="45.47538" lon="3.31952">
        <ele>483.4</ele>
        <time>2021-08-05T08:42:07Z</time>
      </trkpt>
      <trkpt lat="45.4754" lon="3.31942">
        <ele>483.2</ele>
        <time>2021-08-05T08:42:09Z</time>
      </trkpt>
      <trkpt lat="45.47543" lon="3.31931">
        <ele>483</ele>
        <time>2021-08-05T08:42:11Z</time>
      </trkpt>
      <trkpt lat="45.47545" lon="3.31921">
        <ele>482.8</ele>
        <time>2021-08-05T08:42:13Z</time>
      </trkpt>
      <trkpt lat="45.47547" lon="3.3191">
        <ele>482.8</ele>
        <time>2021-08-05T08:42:15Z</time>
      </trkpt>
      <trkpt lat="45.4755" lon="3.319">
        <ele>482.7</ele>
        <time>2021-08-05T08:42:17Z</time>
      </trkpt>
      <trkpt lat="45.47552" lon="3.3189">
        <ele>482.6</ele>
        <time>2021-08-05T08:42:19Z</time>
      </trkpt>
      <trkpt lat="45.47554" lon="3.3188">
        <ele>482.6</ele>
        <time>2021-08-05T08:42:21Z</time>
      </trkpt>
      <trkpt lat="45.47556" lon="3.3187">
        <ele>482.5</ele>
        <time>2021-08-05T08:42:23Z</time>
      </trkpt>
      <trkpt lat="45.47558" lon="3.31859">
        <ele>482.4</ele>
        <time>2021-08-05T08:42:25Z</time>
      </trkpt>
      <trkpt lat="45.47559" lon="3.31848">
        <ele>482.4</ele>
        <time>2021-08-05T08:42:27Z</time>
      </trkpt>
      <trkpt lat="45.4756" lon="3.31838">
        <ele>482.4</ele>
        <time>2021-08-05T08:42:29Z</time>
      </trkpt>
      <trkpt lat="45.47563" lon="3.31828">
        <ele>482.2</ele>
        <time>2021-08-05T08:42:31Z</time>
      </trkpt>
      <trkpt lat="45.47563" lon="3.31818">
        <ele>482.2</ele>
        <time>2021-08-05T08:42:33Z</time>
      </trkpt>
      <trkpt lat="45.47564" lon="3.31807">
        <ele>482.2</ele>
        <time>2021-08-05T08:42:35Z</time>
      </trkpt>
      <trkpt lat="45.47564" lon="3.31797">
        <ele>482.1</ele>
        <time>2021-08-05T08:42:37Z</time>
      </trkpt>
      <trkpt lat="45.47565" lon="3.31786">
        <ele>482.1</ele>
        <time>2021-08-05T08:42:39Z</time>
      </trkpt>
      <trkpt lat="45.47566" lon="3.31776">
        <ele>482.1</ele>
        <time>2021-08-05T08:42:41Z</time>
      </trkpt>
      <trkpt lat="45.47566" lon="3.31766">
        <ele>482</ele>
        <time>2021-08-05T08:42:43Z</time>
      </trkpt>
      <trkpt lat="45.47566" lon="3.31757">
        <ele>482.1</ele>
        <time>2021-08-05T08:42:45Z</time>
      </trkpt>
      <trkpt lat="45.47565" lon="3.31747">
        <ele>482</ele>
        <time>2021-08-05T08:42:47Z</time>
      </trkpt>
      <trkpt lat="45.47564" lon="3.31736">
        <ele>481.9</ele>
        <time>2021-08-05T08:42:49Z</time>
      </trkpt>
      <trkpt lat="45.47563" lon="3.31726">
        <ele>481.7</ele>
        <time>2021-08-05T08:42:51Z</time>
      </trkpt>
      <trkpt lat="45.47562" lon="3.31715">
        <ele>481.6</ele>
        <time>2021-08-05T08:42:53Z</time>
      </trkpt>
      <trkpt lat="45.47559" lon="3.31704">
        <ele>481.5</ele>
        <time>2021-08-05T08:42:55Z</time>
      </trkpt>
      <trkpt lat="45.47559" lon="3.31693">
        <ele>481.3</ele>
        <time>2021-08-05T08:42:57Z</time>
      </trkpt>
      <trkpt lat="45.47558" lon="3.31682">
        <ele>481.1</ele>
        <time>2021-08-05T08:42:59Z</time>
      </trkpt>
      <trkpt lat="45.47557" lon="3.31672">
        <ele>481</ele>
        <time>2021-08-05T08:43:01Z</time>
      </trkpt>
      <trkpt lat="45.47556" lon="3.3166">
        <ele>481</ele>
        <time>2021-08-05T08:43:03Z</time>
      </trkpt>
      <trkpt lat="45.47556" lon="3.31649">
        <ele>481.2</ele>
        <time>2021-08-05T08:43:05Z</time>
      </trkpt>
      <trkpt lat="45.47556" lon="3.31638">
        <ele>481.3</ele>
        <time>2021-08-05T08:43:07Z</time>
      </trkpt>
      <trkpt lat="45.47556" lon="3.31627">
        <ele>481.4</ele>
        <time>2021-08-05T08:43:09Z</time>
      </trkpt>
      <trkpt lat="45.47556" lon="3.31616">
        <ele>481.6</ele>
        <time>2021-08-05T08:43:11Z</time>
      </trkpt>
      <trkpt lat="45.47557" lon="3.31605">
        <ele>481.6</ele>
        <time>2021-08-05T08:43:13Z</time>
      </trkpt>
      <trkpt lat="45.47558" lon="3.31595">
        <ele>481.7</ele>
        <time>2021-08-05T08:43:15Z</time>
      </trkpt>
      <trkpt lat="45.47559" lon="3.31585">
        <ele>481.7</ele>
        <time>2021-08-05T08:43:17Z</time>
      </trkpt>
      <trkpt lat="45.4756" lon="3.31576">
        <ele>481.9</ele>
        <time>2021-08-05T08:43:19Z</time>
      </trkpt>
      <trkpt lat="45.47561" lon="3.31566">
        <ele>482.1</ele>
        <time>2021-08-05T08:43:21Z</time>
      </trkpt>
      <trkpt lat="45.47563" lon="3.31557">
        <ele>482.3</ele>
        <time>2021-08-05T08:43:23Z</time>
      </trkpt>
      <trkpt lat="45.47564" lon="3.31549">
        <ele>482.4</ele>
        <time>2021-08-05T08:43:25Z</time>
      </trkpt>
      <trkpt lat="45.47565" lon="3.3154">
        <ele>482.6</ele>
        <time>2021-08-05T08:43:27Z</time>
      </trkpt>
      <trkpt lat="45.47567" lon="3.3153">
        <ele>482.9</ele>
        <time>2021-08-05T08:43:29Z</time>
      </trkpt>
      <trkpt lat="45.47568" lon="3.31522">
        <ele>483.1</ele>
        <time>2021-08-05T08:43:31Z</time>
      </trkpt>
      <trkpt lat="45.47569" lon="3.31512">
        <ele>483.3</ele>
        <time>2021-08-05T08:43:33Z</time>
      </trkpt>
      <trkpt lat="45.4757" lon="3.31503">
        <ele>483.5</ele>
        <time>2021-08-05T08:43:35Z</time>
      </trkpt>
      <trkpt lat="45.47572" lon="3.31494">
        <ele>483.8</ele>
        <time>2021-08-05T08:43:37Z</time>
      </trkpt>
      <trkpt lat="45.47573" lon="3.31485">
        <ele>484</ele>
        <time>2021-08-05T08:43:39Z</time>
      </trkpt>
      <trkpt lat="45.47574" lon="3.31476">
        <ele>484.3</ele>
        <time>2021-08-05T08:43:41Z</time>
      </trkpt>
      <trkpt lat="45.47575" lon="3.31467">
        <ele>484.6</ele>
        <time>2021-08-05T08:43:43Z</time>
      </trkpt>
      <trkpt lat="45.47576" lon="3.31458">
        <ele>484.8</ele>
        <time>2021-08-05T08:43:45Z</time>
      </trkpt>
      <trkpt lat="45.47578" lon="3.31449">
        <ele>485.1</ele>
        <time>2021-08-05T08:43:47Z</time>
      </trkpt>
      <trkpt lat="45.47579" lon="3.3144">
        <ele>485.4</ele>
        <time>2021-08-05T08:43:49Z</time>
      </trkpt>
      <trkpt lat="45.4758" lon="3.3143">
        <ele>485.7</ele>
        <time>2021-08-05T08:43:51Z</time>
      </trkpt>
      <trkpt lat="45.47581" lon="3.31421">
        <ele>486</ele>
        <time>2021-08-05T08:43:53Z</time>
      </trkpt>
      <trkpt lat="45.47582" lon="3.31411">
        <ele>486</ele>
        <time>2021-08-05T08:43:55Z</time>
      </trkpt>
      <trkpt lat="45.47584" lon="3.31402">
        <ele>485.8</ele>
        <time>2021-08-05T08:43:57Z</time>
      </trkpt>
      <trkpt lat="45.47584" lon="3.31393">
        <ele>485.6</ele>
        <time>2021-08-05T08:43:59Z</time>
      </trkpt>
      <trkpt lat="45.47586" lon="3.31383">
        <ele>485.4</ele>
        <time>2021-08-05T08:44:01Z</time>
      </trkpt>
      <trkpt lat="45.47587" lon="3.31373">
        <ele>485.2</ele>
        <time>2021-08-05T08:44:03Z</time>
      </trkpt>
      <trkpt lat="45.47589" lon="3.31363">
        <ele>485</ele>
        <time>2021-08-05T08:44:05Z</time>
      </trkpt>
      <trkpt lat="45.4759" lon="3.31353">
        <ele>484.9</ele>
        <time>2021-08-05T08:44:07Z</time>
      </trkpt>
      <trkpt lat="45.47591" lon="3.31342">
        <ele>484.7</ele>
        <time>2021-08-05T08:44:09Z</time>
      </trkpt>
      <trkpt lat="45.47592" lon="3.31332">
        <ele>484.6</ele>
        <time>2021-08-05T08:44:11Z</time>
      </trkpt>
      <trkpt lat="45.47594" lon="3.31321">
        <ele>484.6</ele>
        <time>2021-08-05T08:44:13Z</time>
      </trkpt>
      <trkpt lat="45.47596" lon="3.3131">
        <ele>484.6</ele>
        <time>2021-08-05T08:44:15Z</time>
      </trkpt>
      <trkpt lat="45.47597" lon="3.31298">
        <ele>484.6</ele>
        <time>2021-08-05T08:44:17Z</time>
      </trkpt>
      <trkpt lat="45.47599" lon="3.31287">
        <ele>484.6</ele>
        <time>2021-08-05T08:44:19Z</time>
      </trkpt>
      <trkpt lat="45.47601" lon="3.31276">
        <ele>484.5</ele>
        <time>2021-08-05T08:44:21Z</time>
      </trkpt>
      <trkpt lat="45.47603" lon="3.31264">
        <ele>484.5</ele>
        <time>2021-08-05T08:44:23Z</time>
      </trkpt>
      <trkpt lat="45.47605" lon="3.31253">
        <ele>484.4</ele>
        <time>2021-08-05T08:44:25Z</time>
      </trkpt>
      <trkpt lat="45.47607" lon="3.31242">
        <ele>484.5</ele>
        <time>2021-08-05T08:44:27Z</time>
      </trkpt>
      <trkpt lat="45.4761" lon="3.31231">
        <ele>484.5</ele>
        <time>2021-08-05T08:44:29Z</time>
      </trkpt>
      <trkpt lat="45.47612" lon="3.3122">
        <ele>484.7</ele>
        <time>2021-08-05T08:44:31Z</time>
      </trkpt>
      <trkpt lat="45.47614" lon="3.31209">
        <ele>484.8</ele>
        <time>2021-08-05T08:44:33Z</time>
      </trkpt>
      <trkpt lat="45.47617" lon="3.31198">
        <ele>484.9</ele>
        <time>2021-08-05T08:44:35Z</time>
      </trkpt>
      <trkpt lat="45.47619" lon="3.31187">
        <ele>485</ele>
        <time>2021-08-05T08:44:37Z</time>
      </trkpt>
      <trkpt lat="45.47621" lon="3.31176">
        <ele>485.1</ele>
        <time>2021-08-05T08:44:39Z</time>
      </trkpt>
      <trkpt lat="45.47623" lon="3.31165">
        <ele>485.1</ele>
        <time>2021-08-05T08:44:41Z</time>
      </trkpt>
      <trkpt lat="45.47625" lon="3.31154">
        <ele>484.9</ele>
        <time>2021-08-05T08:44:43Z</time>
      </trkpt>
      <trkpt lat="45.47627" lon="3.31143">
        <ele>484.7</ele>
        <time>2021-08-05T08:44:45Z</time>
      </trkpt>
      <trkpt lat="45.47629" lon="3.31133">
        <ele>484.6</ele>
        <time>2021-08-05T08:44:47Z</time>
      </trkpt>
      <trkpt lat="45.4763" lon="3.31122">
        <ele>484.4</ele>
        <time>2021-08-05T08:44:49Z</time>
      </trkpt>
      <trkpt lat="45.47632" lon="3.31111">
        <ele>484.2</ele>
        <time>2021-08-05T08:44:51Z</time>
      </trkpt>
      <trkpt lat="45.47633" lon="3.31101">
        <ele>484.1</ele>
        <time>2021-08-05T08:44:53Z</time>
      </trkpt>
      <trkpt lat="45.47634" lon="3.3109">
        <ele>484</ele>
        <time>2021-08-05T08:44:55Z</time>
      </trkpt>
      <trkpt lat="45.47634" lon="3.31079">
        <ele>483.8</ele>
        <time>2021-08-05T08:44:57Z</time>
      </trkpt>
      <trkpt lat="45.47635" lon="3.31068">
        <ele>483.3</ele>
        <time>2021-08-05T08:44:59Z</time>
      </trkpt>
      <trkpt lat="45.47636" lon="3.31057">
        <ele>482.9</ele>
        <time>2021-08-05T08:45:01Z</time>
      </trkpt>
      <trkpt lat="45.47636" lon="3.31047">
        <ele>482.5</ele>
        <time>2021-08-05T08:45:03Z</time>
      </trkpt>
      <trkpt lat="45.47637" lon="3.31037">
        <ele>482.2</ele>
        <time>2021-08-05T08:45:05Z</time>
      </trkpt>
      <trkpt lat="45.47635" lon="3.31027">
        <ele>481.8</ele>
        <time>2021-08-05T08:45:07Z</time>
      </trkpt>
      <trkpt lat="45.47632" lon="3.31017">
        <ele>481.4</ele>
        <time>2021-08-05T08:45:09Z</time>
      </trkpt>
      <trkpt lat="45.47627" lon="3.3101">
        <ele>481</ele>
        <time>2021-08-05T08:45:11Z</time>
      </trkpt>
      <trkpt lat="45.47622" lon="3.31004">
        <ele>480.6</ele>
        <time>2021-08-05T08:45:13Z</time>
      </trkpt>
      <trkpt lat="45.47616" lon="3.31001">
        <ele>480.2</ele>
        <time>2021-08-05T08:45:15Z</time>
      </trkpt>
      <trkpt lat="45.47612" lon="3.30998">
        <ele>479.8</ele>
        <time>2021-08-05T08:45:17Z</time>
      </trkpt>
      <trkpt lat="45.47609" lon="3.30998">
        <ele>479.7</ele>
        <time>2021-08-05T08:45:19Z</time>
      </trkpt>
      <trkpt lat="45.47606" lon="3.30998">
        <ele>479.6</ele>
        <time>2021-08-05T08:45:21Z</time>
      </trkpt>
      <trkpt lat="45.47606" lon="3.30998">
        <ele>479.6</ele>
        <time>2021-08-05T08:45:23Z</time>
      </trkpt>
      <trkpt lat="45.47606" lon="3.30998">
        <ele>479.5</ele>
        <time>2021-08-05T08:45:25Z</time>
      </trkpt>
      <trkpt lat="45.47606" lon="3.30998">
        <ele>479.5</ele>
        <time>2021-08-05T08:45:27Z</time>
      </trkpt>
      <trkpt lat="45.47606" lon="3.30998">
        <ele>479.5</ele>
        <time>2021-08-05T08:45:29Z</time>
      </trkpt>
      <trkpt lat="45.47589" lon="3.31005">
        <ele>479.7</ele>
        <time>2021-08-05T08:49:27Z</time>
      </trkpt>
      <trkpt lat="45.47582" lon="3.31009">
        <ele>479.6</ele>
        <time>2021-08-05T08:49:29Z</time>
      </trkpt>
      <trkpt lat="45.47573" lon="3.31014">
        <ele>478.9</ele>
        <time>2021-08-05T08:49:31Z</time>
      </trkpt>
      <trkpt lat="45.47563" lon="3.31019">
        <ele>478.2</ele>
        <time>2021-08-05T08:49:33Z</time>
      </trkpt>
      <trkpt lat="45.47552" lon="3.31025">
        <ele>477.5</ele>
        <time>2021-08-05T08:49:35Z</time>
      </trkpt>
      <trkpt lat="45.47539" lon="3.3103">
        <ele>476.6</ele>
        <time>2021-08-05T08:49:37Z</time>
      </trkpt>
      <trkpt lat="45.47524" lon="3.31035">
        <ele>475.8</ele>
        <time>2021-08-05T08:49:39Z</time>
      </trkpt>
      <trkpt lat="45.47508" lon="3.3104">
        <ele>475</ele>
        <time>2021-08-05T08:49:41Z</time>
      </trkpt>
      <trkpt lat="45.47491" lon="3.31046">
        <ele>474</ele>
        <time>2021-08-05T08:49:43Z</time>
      </trkpt>
      <trkpt lat="45.47473" lon="3.31053">
        <ele>472.8</ele>
        <time>2021-08-05T08:49:45Z</time>
      </trkpt>
      <trkpt lat="45.47455" lon="3.31062">
        <ele>471.9</ele>
        <time>2021-08-05T08:49:47Z</time>
      </trkpt>
      <trkpt lat="45.47436" lon="3.31072">
        <ele>471.3</ele>
        <time>2021-08-05T08:49:49Z</time>
      </trkpt>
      <trkpt lat="45.47418" lon="3.31082">
        <ele>470.7</ele>
        <time>2021-08-05T08:49:51Z</time>
      </trkpt>
      <trkpt lat="45.47398" lon="3.3109">
        <ele>469.9</ele>
        <time>2021-08-05T08:49:53Z</time>
      </trkpt>
      <trkpt lat="45.4738" lon="3.31097">
        <ele>469.2</ele>
        <time>2021-08-05T08:49:55Z</time>
      </trkpt>
      <trkpt lat="45.47364" lon="3.31104">
        <ele>468.7</ele>
        <time>2021-08-05T08:49:57Z</time>
      </trkpt>
      <trkpt lat="45.4735" lon="3.31107">
        <ele>467.8</ele>
        <time>2021-08-05T08:49:59Z</time>
      </trkpt>
      <trkpt lat="45.47337" lon="3.31103">
        <ele>465.3</ele>
        <time>2021-08-05T08:50:01Z</time>
      </trkpt>
      <trkpt lat="45.4733" lon="3.31093">
        <ele>461.8</ele>
        <time>2021-08-05T08:50:03Z</time>
      </trkpt>
      <trkpt lat="45.4733" lon="3.31078">
        <ele>458.4</ele>
        <time>2021-08-05T08:50:05Z</time>
      </trkpt>
      <trkpt lat="45.47339" lon="3.31066">
        <ele>456.8</ele>
        <time>2021-08-05T08:50:07Z</time>
      </trkpt>
      <trkpt lat="45.47353" lon="3.31061">
        <ele>457.5</ele>
        <time>2021-08-05T08:50:09Z</time>
      </trkpt>
      <trkpt lat="45.47369" lon="3.31059">
        <ele>459.2</ele>
        <time>2021-08-05T08:50:11Z</time>
      </trkpt>
      <trkpt lat="45.47385" lon="3.31056">
        <ele>460.5</ele>
        <time>2021-08-05T08:50:13Z</time>
      </trkpt>
      <trkpt lat="45.474" lon="3.31045">
        <ele>460</ele>
        <time>2021-08-05T08:50:15Z</time>
      </trkpt>
      <trkpt lat="45.47414" lon="3.31029">
        <ele>458.2</ele>
        <time>2021-08-05T08:50:17Z</time>
      </trkpt>
      <trkpt lat="45.47429" lon="3.31012">
        <ele>456.7</ele>
        <time>2021-08-05T08:50:19Z</time>
      </trkpt>
      <trkpt lat="45.47443" lon="3.30995">
        <ele>455.4</ele>
        <time>2021-08-05T08:50:21Z</time>
      </trkpt>
      <trkpt lat="45.47458" lon="3.30977">
        <ele>453.8</ele>
        <time>2021-08-05T08:50:23Z</time>
      </trkpt>
      <trkpt lat="45.47473" lon="3.30956">
        <ele>451.8</ele>
        <time>2021-08-05T08:50:25Z</time>
      </trkpt>
      <trkpt lat="45.47488" lon="3.30936">
        <ele>449.9</ele>
        <time>2021-08-05T08:50:27Z</time>
      </trkpt>
      <trkpt lat="45.47502" lon="3.30914">
        <ele>447.9</ele>
        <time>2021-08-05T08:50:29Z</time>
      </trkpt>
      <trkpt lat="45.47515" lon="3.30891">
        <ele>447.2</ele>
        <time>2021-08-05T08:50:31Z</time>
      </trkpt>
      <trkpt lat="45.47525" lon="3.30866">
        <ele>445.9</ele>
        <time>2021-08-05T08:50:33Z</time>
      </trkpt>
      <trkpt lat="45.47534" lon="3.30839">
        <ele>443.9</ele>
        <time>2021-08-05T08:50:35Z</time>
      </trkpt>
      <trkpt lat="45.47539" lon="3.3081">
        <ele>442.2</ele>
        <time>2021-08-05T08:50:37Z</time>
      </trkpt>
      <trkpt lat="45.47545" lon="3.30781">
        <ele>440.8</ele>
        <time>2021-08-05T08:50:39Z</time>
      </trkpt>
      <trkpt lat="45.4755" lon="3.30752">
        <ele>439.2</ele>
        <time>2021-08-05T08:50:41Z</time>
      </trkpt>
      <trkpt lat="45.47557" lon="3.30724">
        <ele>437.5</ele>
        <time>2021-08-05T08:50:43Z</time>
      </trkpt>
      <trkpt lat="45.47563" lon="3.30694">
        <ele>435.5</ele>
        <time>2021-08-05T08:50:45Z</time>
      </trkpt>
      <trkpt lat="45.47568" lon="3.30665">
        <ele>433.3</ele>
        <time>2021-08-05T08:50:47Z</time>
      </trkpt>
      <trkpt lat="45.47571" lon="3.30637">
        <ele>431.2</ele>
        <time>2021-08-05T08:50:49Z</time>
      </trkpt>
      <trkpt lat="45.47573" lon="3.30608">
        <ele>428.9</ele>
        <time>2021-08-05T08:50:51Z</time>
      </trkpt>
      <trkpt lat="45.47577" lon="3.30581">
        <ele>427.3</ele>
        <time>2021-08-05T08:50:53Z</time>
      </trkpt>
      <trkpt lat="45.47582" lon="3.30554">
        <ele>426.2</ele>
        <time>2021-08-05T08:50:55Z</time>
      </trkpt>
      <trkpt lat="45.47585" lon="3.30525">
        <ele>424.6</ele>
        <time>2021-08-05T08:50:57Z</time>
      </trkpt>
      <trkpt lat="45.47589" lon="3.30496">
        <ele>423.5</ele>
        <time>2021-08-05T08:50:59Z</time>
      </trkpt>
      <trkpt lat="45.47594" lon="3.30467">
        <ele>423.3</ele>
        <time>2021-08-05T08:51:01Z</time>
      </trkpt>
      <trkpt lat="45.47599" lon="3.30438">
        <ele>423.1</ele>
        <time>2021-08-05T08:51:03Z</time>
      </trkpt>
      <trkpt lat="45.47602" lon="3.30408">
        <ele>422.2</ele>
        <time>2021-08-05T08:51:05Z</time>
      </trkpt>
      <trkpt lat="45.47604" lon="3.3038">
        <ele>420.6</ele>
        <time>2021-08-05T08:51:07Z</time>
      </trkpt>
      <trkpt lat="45.47605" lon="3.30354">
        <ele>418.8</ele>
        <time>2021-08-05T08:51:09Z</time>
      </trkpt>
      <trkpt lat="45.47607" lon="3.3033">
        <ele>417.3</ele>
        <time>2021-08-05T08:51:11Z</time>
      </trkpt>
      <trkpt lat="45.47611" lon="3.30309">
        <ele>416.5</ele>
        <time>2021-08-05T08:51:13Z</time>
      </trkpt>
      <trkpt lat="45.47614" lon="3.30285">
        <ele>415.2</ele>
        <time>2021-08-05T08:51:15Z</time>
      </trkpt>
      <trkpt lat="45.47617" lon="3.3026">
        <ele>413.8</ele>
        <time>2021-08-05T08:51:17Z</time>
      </trkpt>
      <trkpt lat="45.47619" lon="3.30233">
        <ele>412.4</ele>
        <time>2021-08-05T08:51:19Z</time>
      </trkpt>
      <trkpt lat="45.47623" lon="3.30209">
        <ele>411.7</ele>
        <time>2021-08-05T08:51:21Z</time>
      </trkpt>
      <trkpt lat="45.47627" lon="3.30186">
        <ele>411</ele>
        <time>2021-08-05T08:51:23Z</time>
      </trkpt>
      <trkpt lat="45.4763" lon="3.30164">
        <ele>410.2</ele>
        <time>2021-08-05T08:51:25Z</time>
      </trkpt>
      <trkpt lat="45.47633" lon="3.30143">
        <ele>409.1</ele>
        <time>2021-08-05T08:51:27Z</time>
      </trkpt>
      <trkpt lat="45.47636" lon="3.30124">
        <ele>407.9</ele>
        <time>2021-08-05T08:51:29Z</time>
      </trkpt>
      <trkpt lat="45.47639" lon="3.30106">
        <ele>406.7</ele>
        <time>2021-08-05T08:51:31Z</time>
      </trkpt>
      <trkpt lat="45.47641" lon="3.30092">
        <ele>405.6</ele>
        <time>2021-08-05T08:51:33Z</time>
      </trkpt>
      <trkpt lat="45.47644" lon="3.30079">
        <ele>404.7</ele>
        <time>2021-08-05T08:51:35Z</time>
      </trkpt>
      <trkpt lat="45.47645" lon="3.30063">
        <ele>403.9</ele>
        <time>2021-08-05T08:51:37Z</time>
      </trkpt>
      <trkpt lat="45.47645" lon="3.30047">
        <ele>403.1</ele>
        <time>2021-08-05T08:51:39Z</time>
      </trkpt>
      <trkpt lat="45.47644" lon="3.30033">
        <ele>402.2</ele>
        <time>2021-08-05T08:51:41Z</time>
      </trkpt>
      <trkpt lat="45.47643" lon="3.30021">
        <ele>401.4</ele>
        <time>2021-08-05T08:51:43Z</time>
      </trkpt>
      <trkpt lat="45.4764" lon="3.30012">
        <ele>400.7</ele>
        <time>2021-08-05T08:51:45Z</time>
      </trkpt>
      <trkpt lat="45.47638" lon="3.30006">
        <ele>400.3</ele>
        <time>2021-08-05T08:51:47Z</time>
      </trkpt>
      <trkpt lat="45.47636" lon="3.30001">
        <ele>399.8</ele>
        <time>2021-08-05T08:51:49Z</time>
      </trkpt>
      <trkpt lat="45.47633" lon="3.29994">
        <ele>399.7</ele>
        <time>2021-08-05T08:51:51Z</time>
      </trkpt>
      <trkpt lat="45.4763" lon="3.29985">
        <ele>399.6</ele>
        <time>2021-08-05T08:51:53Z</time>
      </trkpt>
      <trkpt lat="45.47626" lon="3.29976">
        <ele>399.4</ele>
        <time>2021-08-05T08:51:55Z</time>
      </trkpt>
      <trkpt lat="45.47622" lon="3.29967">
        <ele>399.1</ele>
        <time>2021-08-05T08:51:57Z</time>
      </trkpt>
      <trkpt lat="45.47615" lon="3.29959">
        <ele>398.7</ele>
        <time>2021-08-05T08:51:59Z</time>
      </trkpt>
      <trkpt lat="45.47608" lon="3.29952">
        <ele>398.1</ele>
        <time>2021-08-05T08:52:01Z</time>
      </trkpt>
      <trkpt lat="45.47599" lon="3.29946">
        <ele>397.4</ele>
        <time>2021-08-05T08:52:03Z</time>
      </trkpt>
      <trkpt lat="45.47592" lon="3.29938">
        <ele>396.8</ele>
        <time>2021-08-05T08:52:05Z</time>
      </trkpt>
      <trkpt lat="45.47587" lon="3.29926">
        <ele>396.3</ele>
        <time>2021-08-05T08:52:07Z</time>
      </trkpt>
      <trkpt lat="45.47581" lon="3.29915">
        <ele>395.9</ele>
        <time>2021-08-05T08:52:09Z</time>
      </trkpt>
      <trkpt lat="45.47577" lon="3.29903">
        <ele>395.5</ele>
        <time>2021-08-05T08:52:11Z</time>
      </trkpt>
      <trkpt lat="45.47572" lon="3.29895">
        <ele>395.1</ele>
        <time>2021-08-05T08:52:13Z</time>
      </trkpt>
      <trkpt lat="45.47569" lon="3.29889">
        <ele>394.9</ele>
        <time>2021-08-05T08:52:15Z</time>
      </trkpt>
      <trkpt lat="45.47566" lon="3.29887">
        <ele>394.9</ele>
        <time>2021-08-05T08:52:17Z</time>
      </trkpt>
      <trkpt lat="45.47562" lon="3.29887">
        <ele>394.9</ele>
        <time>2021-08-05T08:52:19Z</time>
      </trkpt>
      <trkpt lat="45.47557" lon="3.29888">
        <ele>394.9</ele>
        <time>2021-08-05T08:52:21Z</time>
      </trkpt>
      <trkpt lat="45.47551" lon="3.29888">
        <ele>394.8</ele>
        <time>2021-08-05T08:52:23Z</time>
      </trkpt>
      <trkpt lat="45.47545" lon="3.29888">
        <ele>394.8</ele>
        <time>2021-08-05T08:52:25Z</time>
      </trkpt>
      <trkpt lat="45.47539" lon="3.2989">
        <ele>394.8</ele>
        <time>2021-08-05T08:52:27Z</time>
      </trkpt>
      <trkpt lat="45.47533" lon="3.29889">
        <ele>394.8</ele>
        <time>2021-08-05T08:52:29Z</time>
      </trkpt>
      <trkpt lat="45.4753" lon="3.29885">
        <ele>394.7</ele>
        <time>2021-08-05T08:52:31Z</time>
      </trkpt>
      <trkpt lat="45.47528" lon="3.29881">
        <ele>394.6</ele>
        <time>2021-08-05T08:52:33Z</time>
      </trkpt>
      <trkpt lat="45.47525" lon="3.29878">
        <ele>394.6</ele>
        <time>2021-08-05T08:52:35Z</time>
      </trkpt>
      <trkpt lat="45.47524" lon="3.29874">
        <ele>394.5</ele>
        <time>2021-08-05T08:52:37Z</time>
      </trkpt>
      <trkpt lat="45.47522" lon="3.29871">
        <ele>394.4</ele>
        <time>2021-08-05T08:52:39Z</time>
      </trkpt>
      <trkpt lat="45.47519" lon="3.29868">
        <ele>394.4</ele>
        <time>2021-08-05T08:52:41Z</time>
      </trkpt>
      <trkpt lat="45.47516" lon="3.29864">
        <ele>394.3</ele>
        <time>2021-08-05T08:52:43Z</time>
      </trkpt>
      <trkpt lat="45.47515" lon="3.29858">
        <ele>394.2</ele>
        <time>2021-08-05T08:52:45Z</time>
      </trkpt>
      <trkpt lat="45.47512" lon="3.29854">
        <ele>394.2</ele>
        <time>2021-08-05T08:52:47Z</time>
      </trkpt>
      <trkpt lat="45.47513" lon="3.29855">
        <ele>394.2</ele>
        <time>2021-08-05T08:52:49Z</time>
      </trkpt>
      <trkpt lat="45.47513" lon="3.29855">
        <ele>394.2</ele>
        <time>2021-08-05T08:52:51Z</time>
      </trkpt>
      <trkpt lat="45.47513" lon="3.29855">
        <ele>394.2</ele>
        <time>2021-08-05T08:52:53Z</time>
      </trkpt>
      <trkpt lat="45.47512" lon="3.29855">
        <ele>394.2</ele>
        <time>2021-08-05T08:52:55Z</time>
      </trkpt>
      <trkpt lat="45.47513" lon="3.29855">
        <ele>394.2</ele>
        <time>2021-08-05T08:53:07Z</time>
      </trkpt>
      <trkpt lat="45.47512" lon="3.29855">
        <ele>394.2</ele>
        <time>2021-08-05T08:53:09Z</time>
      </trkpt>
      <trkpt lat="45.47512" lon="3.29855">
        <ele>394.2</ele>
        <time>2021-08-05T08:53:11Z</time>
      </trkpt>
      <trkpt lat="45.47512" lon="3.29855">
        <ele>394.2</ele>
        <time>2021-08-05T08:53:13Z</time>
      </trkpt>
      <trkpt lat="45.47512" lon="3.29855">
        <ele>394.2</ele>
        <time>2021-08-05T08:53:15Z</time>
      </trkpt>
      <trkpt lat="45.47512" lon="3.29855">
        <ele>394.2</ele>
        <time>2021-08-05T08:53:17Z</time>
      </trkpt>
      <trkpt lat="45.47512" lon="3.29856">
        <ele>394.2</ele>
        <time>2021-08-05T08:53:19Z</time>
      </trkpt>
      <trkpt lat="45.47513" lon="3.29858">
        <ele>394.2</ele>
        <time>2021-08-05T08:53:21Z</time>
      </trkpt>
      <trkpt lat="45.47515" lon="3.29861">
        <ele>394.3</ele>
        <time>2021-08-05T08:53:23Z</time>
      </trkpt>
      <trkpt lat="45.47517" lon="3.29863">
        <ele>394.3</ele>
        <time>2021-08-05T08:53:25Z</time>
      </trkpt>
      <trkpt lat="45.47519" lon="3.29866">
        <ele>394.3</ele>
        <time>2021-08-05T08:53:27Z</time>
      </trkpt>
      <trkpt lat="45.47519" lon="3.29866">
        <ele>394.4</ele>
        <time>2021-08-05T08:53:29Z</time>
      </trkpt>
      <trkpt lat="45.47519" lon="3.29867">
        <ele>394.4</ele>
        <time>2021-08-05T08:53:31Z</time>
      </trkpt>
      <trkpt lat="45.47519" lon="3.29868">
        <ele>394.4</ele>
        <time>2021-08-05T08:53:33Z</time>
      </trkpt>
      <trkpt lat="45.47519" lon="3.29868">
        <ele>394.4</ele>
        <time>2021-08-05T08:53:35Z</time>
      </trkpt>
      <trkpt lat="45.47516" lon="3.2988">
        <ele>394.6</ele>
        <time>2021-08-05T09:13:55Z</time>
      </trkpt>
      <trkpt lat="45.47517" lon="3.2988">
        <ele>394.6</ele>
        <time>2021-08-05T09:13:57Z</time>
      </trkpt>
      <trkpt lat="45.47517" lon="3.2988">
        <ele>394.6</ele>
        <time>2021-08-05T09:13:59Z</time>
      </trkpt>
      <trkpt lat="45.47517" lon="3.2988">
        <ele>394.6</ele>
        <time>2021-08-05T09:14:01Z</time>
      </trkpt>
      <trkpt lat="45.47516" lon="3.29882">
        <ele>394.6</ele>
        <time>2021-08-05T09:14:03Z</time>
      </trkpt>
      <trkpt lat="45.47516" lon="3.29885">
        <ele>394.7</ele>
        <time>2021-08-05T09:14:05Z</time>
      </trkpt>
      <trkpt lat="45.47519" lon="3.29886">
        <ele>394.7</ele>
        <time>2021-08-05T09:14:07Z</time>
      </trkpt>
      <trkpt lat="45.47522" lon="3.29882">
        <ele>394.6</ele>
        <time>2021-08-05T09:14:09Z</time>
      </trkpt>
      <trkpt lat="45.47521" lon="3.29878">
        <ele>394.5</ele>
        <time>2021-08-05T09:14:11Z</time>
      </trkpt>
      <trkpt lat="45.4752" lon="3.29874">
        <ele>394.5</ele>
        <time>2021-08-05T09:14:13Z</time>
      </trkpt>
      <trkpt lat="45.47519" lon="3.29872">
        <ele>394.4</ele>
        <time>2021-08-05T09:14:15Z</time>
      </trkpt>
      <trkpt lat="45.47519" lon="3.2987">
        <ele>394.4</ele>
        <time>2021-08-05T09:14:17Z</time>
      </trkpt>
      <trkpt lat="45.47519" lon="3.2987">
        <ele>394.4</ele>
        <time>2021-08-05T09:14:19Z</time>
      </trkpt>
      <trkpt lat="45.47519" lon="3.2987">
        <ele>394.4</ele>
        <time>2021-08-05T09:14:21Z</time>
      </trkpt>
      <trkpt lat="45.47519" lon="3.2987">
        <ele>394.4</ele>
        <time>2021-08-05T09:14:23Z</time>
      </trkpt>
      <trkpt lat="45.47516" lon="3.29883">
        <ele>394.6</ele>
        <time>2021-08-05T09:14:43Z</time>
      </trkpt>
      <trkpt lat="45.47518" lon="3.29883">
        <ele>394.6</ele>
        <time>2021-08-05T09:14:45Z</time>
      </trkpt>
      <trkpt lat="45.4752" lon="3.29879">
        <ele>394.6</ele>
        <time>2021-08-05T09:14:47Z</time>
      </trkpt>
      <trkpt lat="45.47519" lon="3.29875">
        <ele>394.5</ele>
        <time>2021-08-05T09:14:49Z</time>
      </trkpt>
      <trkpt lat="45.47518" lon="3.29872">
        <ele>394.5</ele>
        <time>2021-08-05T09:14:51Z</time>
      </trkpt>
      <trkpt lat="45.47519" lon="3.2987">
        <ele>394.4</ele>
        <time>2021-08-05T09:14:53Z</time>
      </trkpt>
      <trkpt lat="45.47522" lon="3.29872">
        <ele>394.5</ele>
        <time>2021-08-05T09:14:55Z</time>
      </trkpt>
      <trkpt lat="45.47522" lon="3.29876">
        <ele>394.5</ele>
        <time>2021-08-05T09:14:57Z</time>
      </trkpt>
      <trkpt lat="45.47518" lon="3.29879">
        <ele>394.6</ele>
        <time>2021-08-05T09:14:59Z</time>
      </trkpt>
      <trkpt lat="45.47516" lon="3.29881">
        <ele>394.6</ele>
        <time>2021-08-05T09:15:01Z</time>
      </trkpt>
      <trkpt lat="45.47516" lon="3.29882">
        <ele>394.6</ele>
        <time>2021-08-05T09:15:03Z</time>
      </trkpt>
      <trkpt lat="45.47516" lon="3.29882">
        <ele>394.6</ele>
        <time>2021-08-05T09:15:05Z</time>
      </trkpt>
      <trkpt lat="45.47516" lon="3.29882">
        <ele>394.6</ele>
        <time>2021-08-05T09:15:07Z</time>
      </trkpt>
      <trkpt lat="45.47516" lon="3.29883">
        <ele>394.6</ele>
        <time>2021-08-05T09:15:09Z</time>
      </trkpt>
      <trkpt lat="45.47516" lon="3.29883">
        <ele>394.6</ele>
        <time>2021-08-05T09:15:11Z</time>
      </trkpt>
      <trkpt lat="45.47521" lon="3.29894">
        <ele>394.8</ele>
        <time>2021-08-05T09:15:23Z</time>
      </trkpt>
      <trkpt lat="45.47525" lon="3.29894">
        <ele>394.9</ele>
        <time>2021-08-05T09:15:25Z</time>
      </trkpt>
      <trkpt lat="45.47529" lon="3.29895">
        <ele>394.9</ele>
        <time>2021-08-05T09:15:27Z</time>
      </trkpt>
      <trkpt lat="45.47533" lon="3.29893">
        <ele>394.9</ele>
        <time>2021-08-05T09:15:29Z</time>
      </trkpt>
      <trkpt lat="45.47538" lon="3.29892">
        <ele>394.9</ele>
        <time>2021-08-05T09:15:31Z</time>
      </trkpt>
      <trkpt lat="45.47542" lon="3.29891">
        <ele>394.9</ele>
        <time>2021-08-05T09:15:33Z</time>
      </trkpt>
      <trkpt lat="45.47547" lon="3.2989">
        <ele>394.9</ele>
        <time>2021-08-05T09:15:35Z</time>
      </trkpt>
      <trkpt lat="45.47551" lon="3.2989">
        <ele>394.9</ele>
        <time>2021-08-05T09:15:37Z</time>
      </trkpt>
      <trkpt lat="45.47555" lon="3.29889">
        <ele>394.9</ele>
        <time>2021-08-05T09:15:39Z</time>
      </trkpt>
      <trkpt lat="45.47559" lon="3.2989">
        <ele>394.9</ele>
        <time>2021-08-05T09:15:41Z</time>
      </trkpt>
      <trkpt lat="45.47562" lon="3.29888">
        <ele>394.9</ele>
        <time>2021-08-05T09:15:43Z</time>
      </trkpt>
      <trkpt lat="45.47565" lon="3.29887">
        <ele>394.9</ele>
        <time>2021-08-05T09:15:45Z</time>
      </trkpt>
      <trkpt lat="45.47567" lon="3.29883">
        <ele>394.8</ele>
        <time>2021-08-05T09:15:47Z</time>
      </trkpt>
      <trkpt lat="45.47569" lon="3.29879">
        <ele>394.6</ele>
        <time>2021-08-05T09:15:49Z</time>
      </trkpt>
      <trkpt lat="45.47569" lon="3.29873">
        <ele>394.4</ele>
        <time>2021-08-05T09:15:51Z</time>
      </trkpt>
      <trkpt lat="45.47569" lon="3.29866">
        <ele>394.2</ele>
        <time>2021-08-05T09:15:53Z</time>
      </trkpt>
      <trkpt lat="45.47569" lon="3.29859">
        <ele>394</ele>
        <time>2021-08-05T09:15:55Z</time>
      </trkpt>
      <trkpt lat="45.4757" lon="3.29851">
        <ele>393.7</ele>
        <time>2021-08-05T09:15:57Z</time>
      </trkpt>
      <trkpt lat="45.4757" lon="3.29842">
        <ele>393.4</ele>
        <time>2021-08-05T09:15:59Z</time>
      </trkpt>
      <trkpt lat="45.47571" lon="3.29832">
        <ele>393.2</ele>
        <time>2021-08-05T09:16:01Z</time>
      </trkpt>
      <trkpt lat="45.47572" lon="3.29823">
        <ele>393.3</ele>
        <time>2021-08-05T09:16:03Z</time>
      </trkpt>
      <trkpt lat="45.47572" lon="3.29813">
        <ele>393.5</ele>
        <time>2021-08-05T09:16:05Z</time>
      </trkpt>
      <trkpt lat="45.47573" lon="3.29802">
        <ele>393.7</ele>
        <time>2021-08-05T09:16:07Z</time>
      </trkpt>
      <trkpt lat="45.47574" lon="3.29791">
        <ele>394</ele>
        <time>2021-08-05T09:16:09Z</time>
      </trkpt>
      <trkpt lat="45.47575" lon="3.2978">
        <ele>394.2</ele>
        <time>2021-08-05T09:16:11Z</time>
      </trkpt>
      <trkpt lat="45.47577" lon="3.29769">
        <ele>394.4</ele>
        <time>2021-08-05T09:16:13Z</time>
      </trkpt>
      <trkpt lat="45.47578" lon="3.29758">
        <ele>394.7</ele>
        <time>2021-08-05T09:16:15Z</time>
      </trkpt>
      <trkpt lat="45.4758" lon="3.29747">
        <ele>394.9</ele>
        <time>2021-08-05T09:16:17Z</time>
      </trkpt>
      <trkpt lat="45.47582" lon="3.29735">
        <ele>395</ele>
        <time>2021-08-05T09:16:19Z</time>
      </trkpt>
      <trkpt lat="45.47583" lon="3.29723">
        <ele>395</ele>
        <time>2021-08-05T09:16:21Z</time>
      </trkpt>
      <trkpt lat="45.47584" lon="3.29711">
        <ele>395.1</ele>
        <time>2021-08-05T09:16:23Z</time>
      </trkpt>
      <trkpt lat="45.47586" lon="3.29699">
        <ele>395.3</ele>
        <time>2021-08-05T09:16:25Z</time>
      </trkpt>
      <trkpt lat="45.47586" lon="3.29687">
        <ele>395.4</ele>
        <time>2021-08-05T09:16:27Z</time>
      </trkpt>
      <trkpt lat="45.47588" lon="3.29675">
        <ele>395.7</ele>
        <time>2021-08-05T09:16:29Z</time>
      </trkpt>
      <trkpt lat="45.4759" lon="3.29662">
        <ele>395.7</ele>
        <time>2021-08-05T09:16:31Z</time>
      </trkpt>
      <trkpt lat="45.47591" lon="3.29648">
        <ele>395.5</ele>
        <time>2021-08-05T09:16:33Z</time>
      </trkpt>
      <trkpt lat="45.47592" lon="3.29635">
        <ele>395.1</ele>
        <time>2021-08-05T09:16:35Z</time>
      </trkpt>
      <trkpt lat="45.47594" lon="3.29621">
        <ele>395</ele>
        <time>2021-08-05T09:16:37Z</time>
      </trkpt>
      <trkpt lat="45.47596" lon="3.29607">
        <ele>394.8</ele>
        <time>2021-08-05T09:16:39Z</time>
      </trkpt>
      <trkpt lat="45.47597" lon="3.29593">
        <ele>394.6</ele>
        <time>2021-08-05T09:16:41Z</time>
      </trkpt>
      <trkpt lat="45.47599" lon="3.29579">
        <ele>394.4</ele>
        <time>2021-08-05T09:16:43Z</time>
      </trkpt>
      <trkpt lat="45.476" lon="3.29565">
        <ele>394</ele>
        <time>2021-08-05T09:16:45Z</time>
      </trkpt>
      <trkpt lat="45.47601" lon="3.29552">
        <ele>393.6</ele>
        <time>2021-08-05T09:16:47Z</time>
      </trkpt>
      <trkpt lat="45.47602" lon="3.2954">
        <ele>393.3</ele>
        <time>2021-08-05T09:16:49Z</time>
      </trkpt>
      <trkpt lat="45.47603" lon="3.29527">
        <ele>392.9</ele>
        <time>2021-08-05T09:16:51Z</time>
      </trkpt>
      <trkpt lat="45.47604" lon="3.29514">
        <ele>392.6</ele>
        <time>2021-08-05T09:16:53Z</time>
      </trkpt>
      <trkpt lat="45.47605" lon="3.29501">
        <ele>392.1</ele>
        <time>2021-08-05T09:16:55Z</time>
      </trkpt>
      <trkpt lat="45.47606" lon="3.29489">
        <ele>392</ele>
        <time>2021-08-05T09:16:57Z</time>
      </trkpt>
      <trkpt lat="45.47606" lon="3.29477">
        <ele>391.9</ele>
        <time>2021-08-05T09:16:59Z</time>
      </trkpt>
      <trkpt lat="45.47607" lon="3.29464">
        <ele>391.9</ele>
        <time>2021-08-05T09:17:01Z</time>
      </trkpt>
      <trkpt lat="45.47608" lon="3.29452">
        <ele>391.7</ele>
        <time>2021-08-05T09:17:03Z</time>
      </trkpt>
      <trkpt lat="45.47609" lon="3.2944">
        <ele>391.6</ele>
        <time>2021-08-05T09:17:05Z</time>
      </trkpt>
      <trkpt lat="45.4761" lon="3.29427">
        <ele>391.4</ele>
        <time>2021-08-05T09:17:07Z</time>
      </trkpt>
      <trkpt lat="45.47611" lon="3.29415">
        <ele>391.3</ele>
        <time>2021-08-05T09:17:09Z</time>
      </trkpt>
      <trkpt lat="45.47611" lon="3.29403">
        <ele>391.4</ele>
        <time>2021-08-05T09:17:11Z</time>
      </trkpt>
      <trkpt lat="45.47612" lon="3.29392">
        <ele>391.5</ele>
        <time>2021-08-05T09:17:13Z</time>
      </trkpt>
      <trkpt lat="45.47613" lon="3.29381">
        <ele>391.6</ele>
        <time>2021-08-05T09:17:15Z</time>
      </trkpt>
      <trkpt lat="45.47613" lon="3.29372">
        <ele>391.7</ele>
        <time>2021-08-05T09:17:17Z</time>
      </trkpt>
      <trkpt lat="45.47614" lon="3.29362">
        <ele>391.8</ele>
        <time>2021-08-05T09:17:19Z</time>
      </trkpt>
      <trkpt lat="45.47615" lon="3.29353">
        <ele>391.9</ele>
        <time>2021-08-05T09:17:21Z</time>
      </trkpt>
      <trkpt lat="45.47616" lon="3.29344">
        <ele>391.9</ele>
        <time>2021-08-05T09:17:23Z</time>
      </trkpt>
      <trkpt lat="45.47618" lon="3.29337">
        <ele>392</ele>
        <time>2021-08-05T09:17:25Z</time>
      </trkpt>
      <trkpt lat="45.47618" lon="3.29329">
        <ele>392.1</ele>
        <time>2021-08-05T09:17:27Z</time>
      </trkpt>
      <trkpt lat="45.4762" lon="3.29323">
        <ele>392.1</ele>
        <time>2021-08-05T09:17:29Z</time>
      </trkpt>
      <trkpt lat="45.47619" lon="3.29317">
        <ele>392</ele>
        <time>2021-08-05T09:17:31Z</time>
      </trkpt>
      <trkpt lat="45.47615" lon="3.29315">
        <ele>391.7</ele>
        <time>2021-08-05T09:17:33Z</time>
      </trkpt>
      <trkpt lat="45.47608" lon="3.29318">
        <ele>391.4</ele>
        <time>2021-08-05T09:17:35Z</time>
      </trkpt>
      <trkpt lat="45.47603" lon="3.29325">
        <ele>391.1</ele>
        <time>2021-08-05T09:17:37Z</time>
      </trkpt>
      <trkpt lat="45.47598" lon="3.2933">
        <ele>390.8</ele>
        <time>2021-08-05T09:17:39Z</time>
      </trkpt>
      <trkpt lat="45.47591" lon="3.29335">
        <ele>390.4</ele>
        <time>2021-08-05T09:17:41Z</time>
      </trkpt>
      <trkpt lat="45.47585" lon="3.29341">
        <ele>390</ele>
        <time>2021-08-05T09:17:43Z</time>
      </trkpt>
      <trkpt lat="45.47577" lon="3.29346">
        <ele>389.7</ele>
        <time>2021-08-05T09:17:45Z</time>
      </trkpt>
      <trkpt lat="45.4757" lon="3.29351">
        <ele>389.4</ele>
        <time>2021-08-05T09:17:47Z</time>
      </trkpt>
      <trkpt lat="45.47562" lon="3.29357">
        <ele>389.1</ele>
        <time>2021-08-05T09:17:49Z</time>
      </trkpt>
      <trkpt lat="45.47555" lon="3.29362">
        <ele>388.9</ele>
        <time>2021-08-05T09:17:51Z</time>
      </trkpt>
      <trkpt lat="45.47547" lon="3.29367">
        <ele>388.6</ele>
        <time>2021-08-05T09:17:53Z</time>
      </trkpt>
      <trkpt lat="45.47539" lon="3.29373">
        <ele>388.4</ele>
        <time>2021-08-05T09:17:55Z</time>
      </trkpt>
      <trkpt lat="45.47531" lon="3.29377">
        <ele>388.3</ele>
        <time>2021-08-05T09:17:57Z</time>
      </trkpt>
      <trkpt lat="45.47523" lon="3.29382">
        <ele>388.1</ele>
        <time>2021-08-05T09:17:59Z</time>
      </trkpt>
      <trkpt lat="45.47515" lon="3.29388">
        <ele>388</ele>
        <time>2021-08-05T09:18:01Z</time>
      </trkpt>
      <trkpt lat="45.47507" lon="3.29393">
        <ele>387.9</ele>
        <time>2021-08-05T09:18:03Z</time>
      </trkpt>
      <trkpt lat="45.475" lon="3.29399">
        <ele>387.8</ele>
        <time>2021-08-05T09:18:05Z</time>
      </trkpt>
      <trkpt lat="45.47491" lon="3.29405">
        <ele>387.8</ele>
        <time>2021-08-05T09:18:07Z</time>
      </trkpt>
      <trkpt lat="45.47483" lon="3.29411">
        <ele>387.7</ele>
        <time>2021-08-05T09:18:09Z</time>
      </trkpt>
      <trkpt lat="45.47475" lon="3.29418">
        <ele>387.7</ele>
        <time>2021-08-05T09:18:11Z</time>
      </trkpt>
      <trkpt lat="45.47467" lon="3.29424">
        <ele>387.6</ele>
        <time>2021-08-05T09:18:13Z</time>
      </trkpt>
      <trkpt lat="45.47459" lon="3.29431">
        <ele>387.5</ele>
        <time>2021-08-05T09:18:15Z</time>
      </trkpt>
      <trkpt lat="45.47452" lon="3.29438">
        <ele>387.5</ele>
        <time>2021-08-05T09:18:17Z</time>
      </trkpt>
      <trkpt lat="45.47445" lon="3.29447">
        <ele>387.5</ele>
        <time>2021-08-05T09:18:19Z</time>
      </trkpt>
      <trkpt lat="45.47439" lon="3.29456">
        <ele>387.5</ele>
        <time>2021-08-05T09:18:21Z</time>
      </trkpt>
      <trkpt lat="45.47433" lon="3.29466">
        <ele>387.6</ele>
        <time>2021-08-05T09:18:23Z</time>
      </trkpt>
      <trkpt lat="45.47427" lon="3.29476">
        <ele>387.7</ele>
        <time>2021-08-05T09:18:25Z</time>
      </trkpt>
      <trkpt lat="45.47422" lon="3.29486">
        <ele>387.8</ele>
        <time>2021-08-05T09:18:27Z</time>
      </trkpt>
      <trkpt lat="45.47416" lon="3.29497">
        <ele>388</ele>
        <time>2021-08-05T09:18:29Z</time>
      </trkpt>
      <trkpt lat="45.4741" lon="3.29507">
        <ele>388.1</ele>
        <time>2021-08-05T09:18:31Z</time>
      </trkpt>
      <trkpt lat="45.47402" lon="3.29516">
        <ele>388.1</ele>
        <time>2021-08-05T09:18:33Z</time>
      </trkpt>
      <trkpt lat="45.47395" lon="3.29525">
        <ele>388.2</ele>
        <time>2021-08-05T09:18:35Z</time>
      </trkpt>
      <trkpt lat="45.47388" lon="3.29534">
        <ele>388.2</ele>
        <time>2021-08-05T09:18:37Z</time>
      </trkpt>
      <trkpt lat="45.47381" lon="3.29543">
        <ele>388.2</ele>
        <time>2021-08-05T09:18:39Z</time>
      </trkpt>
      <trkpt lat="45.47374" lon="3.29552">
        <ele>388.1</ele>
        <time>2021-08-05T09:18:41Z</time>
      </trkpt>
      <trkpt lat="45.47366" lon="3.29561">
        <ele>388</ele>
        <time>2021-08-05T09:18:43Z</time>
      </trkpt>
      <trkpt lat="45.47359" lon="3.2957">
        <ele>387.8</ele>
        <time>2021-08-05T09:18:45Z</time>
      </trkpt>
      <trkpt lat="45.47352" lon="3.2958">
        <ele>387.6</ele>
        <time>2021-08-05T09:18:47Z</time>
      </trkpt>
      <trkpt lat="45.47345" lon="3.29589">
        <ele>387.4</ele>
        <time>2021-08-05T09:18:49Z</time>
      </trkpt>
      <trkpt lat="45.47338" lon="3.29598">
        <ele>387.2</ele>
        <time>2021-08-05T09:18:51Z</time>
      </trkpt>
      <trkpt lat="45.47332" lon="3.29609">
        <ele>387</ele>
        <time>2021-08-05T09:18:53Z</time>
      </trkpt>
      <trkpt lat="45.47327" lon="3.2962">
        <ele>387</ele>
        <time>2021-08-05T09:18:55Z</time>
      </trkpt>
      <trkpt lat="45.47323" lon="3.29632">
        <ele>387</ele>
        <time>2021-08-05T09:18:57Z</time>
      </trkpt>
      <trkpt lat="45.4732" lon="3.29645">
        <ele>387</ele>
        <time>2021-08-05T09:18:59Z</time>
      </trkpt>
      <trkpt lat="45.47317" lon="3.29658">
        <ele>387</ele>
        <time>2021-08-05T09:19:01Z</time>
      </trkpt>
      <trkpt lat="45.47313" lon="3.29671">
        <ele>387.1</ele>
        <time>2021-08-05T09:19:03Z</time>
      </trkpt>
      <trkpt lat="45.4731" lon="3.29685">
        <ele>387.2</ele>
        <time>2021-08-05T09:19:05Z</time>
      </trkpt>
      <trkpt lat="45.47306" lon="3.29699">
        <ele>387.4</ele>
        <time>2021-08-05T09:19:07Z</time>
      </trkpt>
      <trkpt lat="45.47302" lon="3.29713">
        <ele>387.6</ele>
        <time>2021-08-05T09:19:09Z</time>
      </trkpt>
      <trkpt lat="45.47299" lon="3.29727">
        <ele>387.7</ele>
        <time>2021-08-05T09:19:11Z</time>
      </trkpt>
      <trkpt lat="45.47295" lon="3.29739">
        <ele>387.9</ele>
        <time>2021-08-05T09:19:13Z</time>
      </trkpt>
      <trkpt lat="45.47291" lon="3.29751">
        <ele>388</ele>
        <time>2021-08-05T09:19:15Z</time>
      </trkpt>
      <trkpt lat="45.47287" lon="3.29763">
        <ele>388.2</ele>
        <time>2021-08-05T09:19:17Z</time>
      </trkpt>
      <trkpt lat="45.47283" lon="3.29774">
        <ele>388.4</ele>
        <time>2021-08-05T09:19:19Z</time>
      </trkpt>
      <trkpt lat="45.47277" lon="3.29785">
        <ele>388.6</ele>
        <time>2021-08-05T09:19:21Z</time>
      </trkpt>
      <trkpt lat="45.47272" lon="3.29794">
        <ele>388.7</ele>
        <time>2021-08-05T09:19:23Z</time>
      </trkpt>
      <trkpt lat="45.47266" lon="3.29803">
        <ele>388.8</ele>
        <time>2021-08-05T09:19:25Z</time>
      </trkpt>
      <trkpt lat="45.4726" lon="3.29812">
        <ele>388.8</ele>
        <time>2021-08-05T09:19:27Z</time>
      </trkpt>
      <trkpt lat="45.47254" lon="3.2982">
        <ele>388.9</ele>
        <time>2021-08-05T09:19:29Z</time>
      </trkpt>
      <trkpt lat="45.47247" lon="3.29828">
        <ele>388.9</ele>
        <time>2021-08-05T09:19:31Z</time>
      </trkpt>
      <trkpt lat="45.4724" lon="3.29837">
        <ele>389</ele>
        <time>2021-08-05T09:19:33Z</time>
      </trkpt>
      <trkpt lat="45.47232" lon="3.29844">
        <ele>389</ele>
        <time>2021-08-05T09:19:35Z</time>
      </trkpt>
      <trkpt lat="45.47225" lon="3.29852">
        <ele>388.9</ele>
        <time>2021-08-05T09:19:37Z</time>
      </trkpt>
      <trkpt lat="45.47217" lon="3.2986">
        <ele>388.9</ele>
        <time>2021-08-05T09:19:39Z</time>
      </trkpt>
      <trkpt lat="45.47209" lon="3.29868">
        <ele>388.8</ele>
        <time>2021-08-05T09:19:41Z</time>
      </trkpt>
      <trkpt lat="45.47201" lon="3.29877">
        <ele>388.7</ele>
        <time>2021-08-05T09:19:43Z</time>
      </trkpt>
      <trkpt lat="45.47193" lon="3.29885">
        <ele>388.6</ele>
        <time>2021-08-05T09:19:45Z</time>
      </trkpt>
      <trkpt lat="45.47184" lon="3.29894">
        <ele>388.4</ele>
        <time>2021-08-05T09:19:47Z</time>
      </trkpt>
      <trkpt lat="45.47176" lon="3.29902">
        <ele>388.3</ele>
        <time>2021-08-05T09:19:49Z</time>
      </trkpt>
      <trkpt lat="45.47168" lon="3.29911">
        <ele>388.1</ele>
        <time>2021-08-05T09:19:51Z</time>
      </trkpt>
      <trkpt lat="45.4716" lon="3.29919">
        <ele>388.1</ele>
        <time>2021-08-05T09:19:53Z</time>
      </trkpt>
      <trkpt lat="45.47152" lon="3.29927">
        <ele>388.1</ele>
        <time>2021-08-05T09:19:55Z</time>
      </trkpt>
      <trkpt lat="45.47148" lon="3.29934">
        <ele>388.2</ele>
        <time>2021-08-05T09:19:57Z</time>
      </trkpt>
      <trkpt lat="45.47146" lon="3.2994">
        <ele>388.2</ele>
        <time>2021-08-05T09:19:59Z</time>
      </trkpt>
      <trkpt lat="45.47147" lon="3.29943">
        <ele>388.2</ele>
        <time>2021-08-05T09:20:01Z</time>
      </trkpt>
      <trkpt lat="45.47147" lon="3.29942">
        <ele>388.2</ele>
        <time>2021-08-05T09:20:03Z</time>
      </trkpt>
      <trkpt lat="45.47147" lon="3.29942">
        <ele>388.2</ele>
        <time>2021-08-05T09:20:05Z</time>
      </trkpt>
      <trkpt lat="45.47147" lon="3.29942">
        <ele>388.2</ele>
        <time>2021-08-05T09:20:07Z</time>
      </trkpt>
      <trkpt lat="45.47147" lon="3.29942">
        <ele>388.2</ele>
        <time>2021-08-05T09:20:09Z</time>
      </trkpt>
      <trkpt lat="45.47147" lon="3.29942">
        <ele>388.2</ele>
        <time>2021-08-05T09:20:11Z</time>
      </trkpt>
      <trkpt lat="45.4714" lon="3.29946">
        <ele>388.2</ele>
        <time>2021-08-05T09:22:37Z</time>
      </trkpt>
      <trkpt lat="45.47137" lon="3.29945">
        <ele>388.2</ele>
        <time>2021-08-05T09:22:39Z</time>
      </trkpt>
      <trkpt lat="45.47134" lon="3.29945">
        <ele>388.3</ele>
        <time>2021-08-05T09:22:41Z</time>
      </trkpt>
      <trkpt lat="45.4713" lon="3.29947">
        <ele>388.3</ele>
        <time>2021-08-05T09:22:43Z</time>
      </trkpt>
      <trkpt lat="45.47125" lon="3.29951">
        <ele>388.3</ele>
        <time>2021-08-05T09:22:45Z</time>
      </trkpt>
      <trkpt lat="45.47121" lon="3.29956">
        <ele>388.3</ele>
        <time>2021-08-05T09:22:47Z</time>
      </trkpt>
      <trkpt lat="45.47115" lon="3.29959">
        <ele>388.3</ele>
        <time>2021-08-05T09:22:49Z</time>
      </trkpt>
      <trkpt lat="45.47109" lon="3.29963">
        <ele>388.3</ele>
        <time>2021-08-05T09:22:51Z</time>
      </trkpt>
      <trkpt lat="45.47103" lon="3.29967">
        <ele>388.3</ele>
        <time>2021-08-05T09:22:53Z</time>
      </trkpt>
      <trkpt lat="45.47096" lon="3.29972">
        <ele>388.3</ele>
        <time>2021-08-05T09:22:55Z</time>
      </trkpt>
      <trkpt lat="45.47089" lon="3.29976">
        <ele>388.3</ele>
        <time>2021-08-05T09:22:57Z</time>
      </trkpt>
      <trkpt lat="45.47081" lon="3.2998">
        <ele>388.2</ele>
        <time>2021-08-05T09:22:59Z</time>
      </trkpt>
      <trkpt lat="45.47073" lon="3.29984">
        <ele>388.1</ele>
        <time>2021-08-05T09:23:01Z</time>
      </trkpt>
      <trkpt lat="45.47065" lon="3.29987">
        <ele>388</ele>
        <time>2021-08-05T09:23:03Z</time>
      </trkpt>
      <trkpt lat="45.47057" lon="3.29991">
        <ele>387.8</ele>
        <time>2021-08-05T09:23:05Z</time>
      </trkpt>
      <trkpt lat="45.47049" lon="3.29994">
        <ele>387.7</ele>
        <time>2021-08-05T09:23:07Z</time>
      </trkpt>
      <trkpt lat="45.4704" lon="3.29997">
        <ele>387.5</ele>
        <time>2021-08-05T09:23:09Z</time>
      </trkpt>
      <trkpt lat="45.47032" lon="3.29998">
        <ele>387.4</ele>
        <time>2021-08-05T09:23:11Z</time>
      </trkpt>
      <trkpt lat="45.47023" lon="3.3">
        <ele>387.3</ele>
        <time>2021-08-05T09:23:13Z</time>
      </trkpt>
      <trkpt lat="45.47015" lon="3.30001">
        <ele>387.2</ele>
        <time>2021-08-05T09:23:15Z</time>
      </trkpt>
      <trkpt lat="45.47006" lon="3.30002">
        <ele>387.1</ele>
        <time>2021-08-05T09:23:17Z</time>
      </trkpt>
      <trkpt lat="45.46998" lon="3.30003">
        <ele>387.1</ele>
        <time>2021-08-05T09:23:19Z</time>
      </trkpt>
      <trkpt lat="45.46989" lon="3.30003">
        <ele>387.3</ele>
        <time>2021-08-05T09:23:21Z</time>
      </trkpt>
      <trkpt lat="45.46981" lon="3.30004">
        <ele>387.5</ele>
        <time>2021-08-05T09:23:23Z</time>
      </trkpt>
      <trkpt lat="45.46972" lon="3.30004">
        <ele>387.7</ele>
        <time>2021-08-05T09:23:25Z</time>
      </trkpt>
      <trkpt lat="45.46964" lon="3.30005">
        <ele>387.9</ele>
        <time>2021-08-05T09:23:27Z</time>
      </trkpt>
      <trkpt lat="45.46956" lon="3.30006">
        <ele>388.1</ele>
        <time>2021-08-05T09:23:29Z</time>
      </trkpt>
      <trkpt lat="45.46947" lon="3.30007">
        <ele>388.2</ele>
        <time>2021-08-05T09:23:31Z</time>
      </trkpt>
      <trkpt lat="45.46939" lon="3.30008">
        <ele>388.4</ele>
        <time>2021-08-05T09:23:33Z</time>
      </trkpt>
      <trkpt lat="45.46931" lon="3.30009">
        <ele>388.6</ele>
        <time>2021-08-05T09:23:35Z</time>
      </trkpt>
      <trkpt lat="45.46923" lon="3.3001">
        <ele>388.7</ele>
        <time>2021-08-05T09:23:37Z</time>
      </trkpt>
      <trkpt lat="45.46915" lon="3.30011">
        <ele>388.9</ele>
        <time>2021-08-05T09:23:39Z</time>
      </trkpt>
      <trkpt lat="45.46907" lon="3.30012">
        <ele>388.9</ele>
        <time>2021-08-05T09:23:41Z</time>
      </trkpt>
      <trkpt lat="45.46899" lon="3.30015">
        <ele>388.9</ele>
        <time>2021-08-05T09:23:43Z</time>
      </trkpt>
      <trkpt lat="45.46891" lon="3.30016">
        <ele>388.9</ele>
        <time>2021-08-05T09:23:45Z</time>
      </trkpt>
      <trkpt lat="45.46884" lon="3.30018">
        <ele>389</ele>
        <time>2021-08-05T09:23:47Z</time>
      </trkpt>
      <trkpt lat="45.46876" lon="3.30021">
        <ele>389</ele>
        <time>2021-08-05T09:23:49Z</time>
      </trkpt>
      <trkpt lat="45.46869" lon="3.30024">
        <ele>389</ele>
        <time>2021-08-05T09:23:51Z</time>
      </trkpt>
      <trkpt lat="45.46861" lon="3.30027">
        <ele>389.1</ele>
        <time>2021-08-05T09:23:53Z</time>
      </trkpt>
      <trkpt lat="45.46853" lon="3.30031">
        <ele>389.2</ele>
        <time>2021-08-05T09:23:55Z</time>
      </trkpt>
      <trkpt lat="45.46845" lon="3.30035">
        <ele>389.3</ele>
        <time>2021-08-05T09:23:57Z</time>
      </trkpt>
      <trkpt lat="45.46837" lon="3.3004">
        <ele>389.4</ele>
        <time>2021-08-05T09:23:59Z</time>
      </trkpt>
      <trkpt lat="45.46829" lon="3.30045">
        <ele>389.5</ele>
        <time>2021-08-05T09:24:01Z</time>
      </trkpt>
      <trkpt lat="45.46821" lon="3.30049">
        <ele>389.5</ele>
        <time>2021-08-05T09:24:03Z</time>
      </trkpt>
      <trkpt lat="45.46813" lon="3.30054">
        <ele>389.6</ele>
        <time>2021-08-05T09:24:05Z</time>
      </trkpt>
      <trkpt lat="45.46806" lon="3.3006">
        <ele>389.6</ele>
        <time>2021-08-05T09:24:07Z</time>
      </trkpt>
      <trkpt lat="45.46799" lon="3.30064">
        <ele>389.7</ele>
        <time>2021-08-05T09:24:09Z</time>
      </trkpt>
      <trkpt lat="45.46791" lon="3.30068">
        <ele>389.7</ele>
        <time>2021-08-05T09:24:11Z</time>
      </trkpt>
      <trkpt lat="45.46784" lon="3.30074">
        <ele>389.8</ele>
        <time>2021-08-05T09:24:13Z</time>
      </trkpt>
      <trkpt lat="45.46777" lon="3.30078">
        <ele>389.9</ele>
        <time>2021-08-05T09:24:15Z</time>
      </trkpt>
      <trkpt lat="45.4677" lon="3.30082">
        <ele>390</ele>
        <time>2021-08-05T09:24:17Z</time>
      </trkpt>
      <trkpt lat="45.46763" lon="3.30087">
        <ele>390</ele>
        <time>2021-08-05T09:24:19Z</time>
      </trkpt>
      <trkpt lat="45.46756" lon="3.30092">
        <ele>390</ele>
        <time>2021-08-05T09:24:21Z</time>
      </trkpt>
      <trkpt lat="45.46749" lon="3.30096">
        <ele>390</ele>
        <time>2021-08-05T09:24:23Z</time>
      </trkpt>
      <trkpt lat="45.46742" lon="3.30101">
        <ele>389.9</ele>
        <time>2021-08-05T09:24:25Z</time>
      </trkpt>
      <trkpt lat="45.46735" lon="3.30106">
        <ele>389.9</ele>
        <time>2021-08-05T09:24:27Z</time>
      </trkpt>
      <trkpt lat="45.46728" lon="3.3011">
        <ele>389.8</ele>
        <time>2021-08-05T09:24:29Z</time>
      </trkpt>
      <trkpt lat="45.4672" lon="3.30114">
        <ele>389.8</ele>
        <time>2021-08-05T09:24:31Z</time>
      </trkpt>
      <trkpt lat="45.46714" lon="3.30119">
        <ele>389.7</ele>
        <time>2021-08-05T09:24:33Z</time>
      </trkpt>
      <trkpt lat="45.46707" lon="3.30123">
        <ele>389.7</ele>
        <time>2021-08-05T09:24:35Z</time>
      </trkpt>
      <trkpt lat="45.467" lon="3.30127">
        <ele>389.7</ele>
        <time>2021-08-05T09:24:37Z</time>
      </trkpt>
      <trkpt lat="45.46693" lon="3.30131">
        <ele>389.7</ele>
        <time>2021-08-05T09:24:39Z</time>
      </trkpt>
      <trkpt lat="45.46686" lon="3.30134">
        <ele>389.7</ele>
        <time>2021-08-05T09:24:41Z</time>
      </trkpt>
      <trkpt lat="45.46679" lon="3.30138">
        <ele>389.7</ele>
        <time>2021-08-05T09:24:43Z</time>
      </trkpt>
      <trkpt lat="45.46672" lon="3.30142">
        <ele>389.7</ele>
        <time>2021-08-05T09:24:45Z</time>
      </trkpt>
      <trkpt lat="45.46664" lon="3.30146">
        <ele>389.7</ele>
        <time>2021-08-05T09:24:47Z</time>
      </trkpt>
      <trkpt lat="45.46655" lon="3.3015">
        <ele>389.7</ele>
        <time>2021-08-05T09:24:49Z</time>
      </trkpt>
      <trkpt lat="45.46646" lon="3.30155">
        <ele>389.6</ele>
        <time>2021-08-05T09:24:51Z</time>
      </trkpt>
      <trkpt lat="45.46637" lon="3.30159">
        <ele>389.6</ele>
        <time>2021-08-05T09:24:53Z</time>
      </trkpt>
      <trkpt lat="45.46627" lon="3.30164">
        <ele>389.5</ele>
        <time>2021-08-05T09:24:55Z</time>
      </trkpt>
      <trkpt lat="45.46617" lon="3.30169">
        <ele>389.4</ele>
        <time>2021-08-05T09:24:57Z</time>
      </trkpt>
      <trkpt lat="45.46607" lon="3.30175">
        <ele>389.3</ele>
        <time>2021-08-05T09:24:59Z</time>
      </trkpt>
      <trkpt lat="45.46597" lon="3.3018">
        <ele>389.2</ele>
        <time>2021-08-05T09:25:01Z</time>
      </trkpt>
      <trkpt lat="45.46587" lon="3.30186">
        <ele>389</ele>
        <time>2021-08-05T09:25:03Z</time>
      </trkpt>
      <trkpt lat="45.46578" lon="3.30192">
        <ele>388.9</ele>
        <time>2021-08-05T09:25:05Z</time>
      </trkpt>
      <trkpt lat="45.46568" lon="3.30199">
        <ele>388.8</ele>
        <time>2021-08-05T09:25:07Z</time>
      </trkpt>
      <trkpt lat="45.46559" lon="3.30205">
        <ele>388.7</ele>
        <time>2021-08-05T09:25:09Z</time>
      </trkpt>
      <trkpt lat="45.46549" lon="3.30212">
        <ele>388.6</ele>
        <time>2021-08-05T09:25:11Z</time>
      </trkpt>
      <trkpt lat="45.4654" lon="3.30219">
        <ele>388.5</ele>
        <time>2021-08-05T09:25:13Z</time>
      </trkpt>
      <trkpt lat="45.4653" lon="3.30225">
        <ele>388.4</ele>
        <time>2021-08-05T09:25:15Z</time>
      </trkpt>
      <trkpt lat="45.46521" lon="3.30231">
        <ele>388.2</ele>
        <time>2021-08-05T09:25:17Z</time>
      </trkpt>
      <trkpt lat="45.46512" lon="3.30237">
        <ele>388.1</ele>
        <time>2021-08-05T09:25:19Z</time>
      </trkpt>
      <trkpt lat="45.46502" lon="3.30242">
        <ele>388</ele>
        <time>2021-08-05T09:25:21Z</time>
      </trkpt>
      <trkpt lat="45.46493" lon="3.30248">
        <ele>388.1</ele>
        <time>2021-08-05T09:25:23Z</time>
      </trkpt>
      <trkpt lat="45.46484" lon="3.30253">
        <ele>388.2</ele>
        <time>2021-08-05T09:25:25Z</time>
      </trkpt>
      <trkpt lat="45.46474" lon="3.30258">
        <ele>388.3</ele>
        <time>2021-08-05T09:25:27Z</time>
      </trkpt>
      <trkpt lat="45.46465" lon="3.30263">
        <ele>388.5</ele>
        <time>2021-08-05T09:25:29Z</time>
      </trkpt>
      <trkpt lat="45.46456" lon="3.30268">
        <ele>388.6</ele>
        <time>2021-08-05T09:25:31Z</time>
      </trkpt>
      <trkpt lat="45.46447" lon="3.30274">
        <ele>388.8</ele>
        <time>2021-08-05T09:25:33Z</time>
      </trkpt>
      <trkpt lat="45.46438" lon="3.30279">
        <ele>389</ele>
        <time>2021-08-05T09:25:35Z</time>
      </trkpt>
      <trkpt lat="45.46429" lon="3.30284">
        <ele>389.2</ele>
        <time>2021-08-05T09:25:37Z</time>
      </trkpt>
      <trkpt lat="45.4642" lon="3.3029">
        <ele>389.4</ele>
        <time>2021-08-05T09:25:39Z</time>
      </trkpt>
      <trkpt lat="45.46411" lon="3.30295">
        <ele>389.6</ele>
        <time>2021-08-05T09:25:41Z</time>
      </trkpt>
      <trkpt lat="45.46403" lon="3.30301">
        <ele>389.8</ele>
        <time>2021-08-05T09:25:43Z</time>
      </trkpt>
      <trkpt lat="45.46395" lon="3.30308">
        <ele>390</ele>
        <time>2021-08-05T09:25:45Z</time>
      </trkpt>
      <trkpt lat="45.46387" lon="3.30314">
        <ele>390.2</ele>
        <time>2021-08-05T09:25:47Z</time>
      </trkpt>
      <trkpt lat="45.46378" lon="3.3032">
        <ele>390.4</ele>
        <time>2021-08-05T09:25:49Z</time>
      </trkpt>
      <trkpt lat="45.46369" lon="3.30326">
        <ele>390.5</ele>
        <time>2021-08-05T09:25:51Z</time>
      </trkpt>
      <trkpt lat="45.4636" lon="3.30332">
        <ele>390.7</ele>
        <time>2021-08-05T09:25:53Z</time>
      </trkpt>
      <trkpt lat="45.46351" lon="3.30337">
        <ele>390.8</ele>
        <time>2021-08-05T09:25:55Z</time>
      </trkpt>
      <trkpt lat="45.46341" lon="3.30342">
        <ele>390.9</ele>
        <time>2021-08-05T09:25:57Z</time>
      </trkpt>
      <trkpt lat="45.46331" lon="3.30346">
        <ele>391</ele>
        <time>2021-08-05T09:25:59Z</time>
      </trkpt>
      <trkpt lat="45.46322" lon="3.3035">
        <ele>391</ele>
        <time>2021-08-05T09:26:01Z</time>
      </trkpt>
      <trkpt lat="45.46313" lon="3.30354">
        <ele>390.9</ele>
        <time>2021-08-05T09:26:03Z</time>
      </trkpt>
      <trkpt lat="45.46303" lon="3.30357">
        <ele>390.9</ele>
        <time>2021-08-05T09:26:05Z</time>
      </trkpt>
      <trkpt lat="45.46294" lon="3.30361">
        <ele>390.8</ele>
        <time>2021-08-05T09:26:07Z</time>
      </trkpt>
      <trkpt lat="45.46284" lon="3.30365">
        <ele>390.8</ele>
        <time>2021-08-05T09:26:09Z</time>
      </trkpt>
      <trkpt lat="45.46275" lon="3.30369">
        <ele>390.7</ele>
        <time>2021-08-05T09:26:11Z</time>
      </trkpt>
      <trkpt lat="45.46266" lon="3.30373">
        <ele>390.6</ele>
        <time>2021-08-05T09:26:13Z</time>
      </trkpt>
      <trkpt lat="45.46256" lon="3.30376">
        <ele>390.5</ele>
        <time>2021-08-05T09:26:15Z</time>
      </trkpt>
      <trkpt lat="45.46246" lon="3.30379">
        <ele>390.5</ele>
        <time>2021-08-05T09:26:17Z</time>
      </trkpt>
      <trkpt lat="45.46237" lon="3.3038">
        <ele>390.7</ele>
        <time>2021-08-05T09:26:19Z</time>
      </trkpt>
      <trkpt lat="45.46227" lon="3.30381">
        <ele>390.9</ele>
        <time>2021-08-05T09:26:21Z</time>
      </trkpt>
      <trkpt lat="45.46218" lon="3.30381">
        <ele>391.1</ele>
        <time>2021-08-05T09:26:23Z</time>
      </trkpt>
      <trkpt lat="45.46209" lon="3.30381">
        <ele>391.3</ele>
        <time>2021-08-05T09:26:25Z</time>
      </trkpt>
      <trkpt lat="45.46199" lon="3.3038">
        <ele>391.5</ele>
        <time>2021-08-05T09:26:27Z</time>
      </trkpt>
      <trkpt lat="45.4619" lon="3.30379">
        <ele>391.6</ele>
        <time>2021-08-05T09:26:29Z</time>
      </trkpt>
      <trkpt lat="45.46181" lon="3.30378">
        <ele>391.8</ele>
        <time>2021-08-05T09:26:31Z</time>
      </trkpt>
      <trkpt lat="45.46173" lon="3.30377">
        <ele>391.9</ele>
        <time>2021-08-05T09:26:33Z</time>
      </trkpt>
      <trkpt lat="45.46164" lon="3.30375">
        <ele>392</ele>
        <time>2021-08-05T09:26:35Z</time>
      </trkpt>
      <trkpt lat="45.46155" lon="3.30373">
        <ele>392.2</ele>
        <time>2021-08-05T09:26:37Z</time>
      </trkpt>
      <trkpt lat="45.46146" lon="3.30371">
        <ele>392.3</ele>
        <time>2021-08-05T09:26:39Z</time>
      </trkpt>
      <trkpt lat="45.46137" lon="3.30369">
        <ele>392.4</ele>
        <time>2021-08-05T09:26:41Z</time>
      </trkpt>
      <trkpt lat="45.46129" lon="3.30366">
        <ele>392.5</ele>
        <time>2021-08-05T09:26:43Z</time>
      </trkpt>
      <trkpt lat="45.4612" lon="3.30363">
        <ele>392.6</ele>
        <time>2021-08-05T09:26:45Z</time>
      </trkpt>
      <trkpt lat="45.46112" lon="3.3036">
        <ele>392.8</ele>
        <time>2021-08-05T09:26:47Z</time>
      </trkpt>
      <trkpt lat="45.46103" lon="3.30357">
        <ele>392.9</ele>
        <time>2021-08-05T09:26:49Z</time>
      </trkpt>
      <trkpt lat="45.46094" lon="3.30354">
        <ele>393</ele>
        <time>2021-08-05T09:26:51Z</time>
      </trkpt>
      <trkpt lat="45.46085" lon="3.3035">
        <ele>393.2</ele>
        <time>2021-08-05T09:26:53Z</time>
      </trkpt>
      <trkpt lat="45.46077" lon="3.30346">
        <ele>393.1</ele>
        <time>2021-08-05T09:26:55Z</time>
      </trkpt>
      <trkpt lat="45.46068" lon="3.30343">
        <ele>393.1</ele>
        <time>2021-08-05T09:26:57Z</time>
      </trkpt>
      <trkpt lat="45.46059" lon="3.3034">
        <ele>393.1</ele>
        <time>2021-08-05T09:26:59Z</time>
      </trkpt>
      <trkpt lat="45.4605" lon="3.30337">
        <ele>393</ele>
        <time>2021-08-05T09:27:01Z</time>
      </trkpt>
      <trkpt lat="45.4604" lon="3.30333">
        <ele>393</ele>
        <time>2021-08-05T09:27:03Z</time>
      </trkpt>
      <trkpt lat="45.46031" lon="3.3033">
        <ele>393.1</ele>
        <time>2021-08-05T09:27:05Z</time>
      </trkpt>
      <trkpt lat="45.46023" lon="3.30326">
        <ele>393.1</ele>
        <time>2021-08-05T09:27:07Z</time>
      </trkpt>
      <trkpt lat="45.46014" lon="3.30322">
        <ele>393.2</ele>
        <time>2021-08-05T09:27:09Z</time>
      </trkpt>
      <trkpt lat="45.46005" lon="3.30319">
        <ele>393.3</ele>
        <time>2021-08-05T09:27:11Z</time>
      </trkpt>
      <trkpt lat="45.45996" lon="3.30316">
        <ele>393.4</ele>
        <time>2021-08-05T09:27:13Z</time>
      </trkpt>
      <trkpt lat="45.45987" lon="3.30313">
        <ele>393.5</ele>
        <time>2021-08-05T09:27:15Z</time>
      </trkpt>
      <trkpt lat="45.45978" lon="3.3031">
        <ele>393.5</ele>
        <time>2021-08-05T09:27:17Z</time>
      </trkpt>
      <trkpt lat="45.45969" lon="3.30308">
        <ele>393.6</ele>
        <time>2021-08-05T09:27:19Z</time>
      </trkpt>
      <trkpt lat="45.4596" lon="3.30306">
        <ele>393.7</ele>
        <time>2021-08-05T09:27:21Z</time>
      </trkpt>
      <trkpt lat="45.45951" lon="3.30305">
        <ele>393.7</ele>
        <time>2021-08-05T09:27:23Z</time>
      </trkpt>
      <trkpt lat="45.45942" lon="3.30305">
        <ele>393.7</ele>
        <time>2021-08-05T09:27:25Z</time>
      </trkpt>
      <trkpt lat="45.45933" lon="3.30306">
        <ele>393.7</ele>
        <time>2021-08-05T09:27:27Z</time>
      </trkpt>
      <trkpt lat="45.45924" lon="3.30307">
        <ele>393.6</ele>
        <time>2021-08-05T09:27:29Z</time>
      </trkpt>
      <trkpt lat="45.45914" lon="3.30308">
        <ele>393.6</ele>
        <time>2021-08-05T09:27:31Z</time>
      </trkpt>
      <trkpt lat="45.45905" lon="3.3031">
        <ele>393.5</ele>
        <time>2021-08-05T09:27:33Z</time>
      </trkpt>
      <trkpt lat="45.45896" lon="3.30312">
        <ele>393.4</ele>
        <time>2021-08-05T09:27:35Z</time>
      </trkpt>
      <trkpt lat="45.45887" lon="3.30314">
        <ele>393.3</ele>
        <time>2021-08-05T09:27:37Z</time>
      </trkpt>
      <trkpt lat="45.45877" lon="3.30315">
        <ele>393.2</ele>
        <time>2021-08-05T09:27:39Z</time>
      </trkpt>
      <trkpt lat="45.45868" lon="3.30316">
        <ele>393.2</ele>
        <time>2021-08-05T09:27:41Z</time>
      </trkpt>
      <trkpt lat="45.45859" lon="3.30316">
        <ele>393.1</ele>
        <time>2021-08-05T09:27:43Z</time>
      </trkpt>
      <trkpt lat="45.45849" lon="3.30317">
        <ele>393.1</ele>
        <time>2021-08-05T09:27:45Z</time>
      </trkpt>
      <trkpt lat="45.4584" lon="3.30318">
        <ele>393</ele>
        <time>2021-08-05T09:27:47Z</time>
      </trkpt>
      <trkpt lat="45.4583" lon="3.30318">
        <ele>393.1</ele>
        <time>2021-08-05T09:27:49Z</time>
      </trkpt>
      <trkpt lat="45.4582" lon="3.30319">
        <ele>393.4</ele>
        <time>2021-08-05T09:27:51Z</time>
      </trkpt>
      <trkpt lat="45.45811" lon="3.30319">
        <ele>393.6</ele>
        <time>2021-08-05T09:27:53Z</time>
      </trkpt>
      <trkpt lat="45.45801" lon="3.3032">
        <ele>393.9</ele>
        <time>2021-08-05T09:27:55Z</time>
      </trkpt>
      <trkpt lat="45.45792" lon="3.3032">
        <ele>394.2</ele>
        <time>2021-08-05T09:27:57Z</time>
      </trkpt>
      <trkpt lat="45.45783" lon="3.30321">
        <ele>394.4</ele>
        <time>2021-08-05T09:27:59Z</time>
      </trkpt>
      <trkpt lat="45.45774" lon="3.30321">
        <ele>394.7</ele>
        <time>2021-08-05T09:28:01Z</time>
      </trkpt>
      <trkpt lat="45.45765" lon="3.30322">
        <ele>395</ele>
        <time>2021-08-05T09:28:03Z</time>
      </trkpt>
      <trkpt lat="45.45756" lon="3.30322">
        <ele>395.3</ele>
        <time>2021-08-05T09:28:05Z</time>
      </trkpt>
      <trkpt lat="45.45746" lon="3.30323">
        <ele>395.4</ele>
        <time>2021-08-05T09:28:07Z</time>
      </trkpt>
      <trkpt lat="45.45737" lon="3.30323">
        <ele>395.3</ele>
        <time>2021-08-05T09:28:09Z</time>
      </trkpt>
      <trkpt lat="45.45728" lon="3.30325">
        <ele>395.3</ele>
        <time>2021-08-05T09:28:11Z</time>
      </trkpt>
      <trkpt lat="45.45718" lon="3.30325">
        <ele>395.2</ele>
        <time>2021-08-05T09:28:13Z</time>
      </trkpt>
      <trkpt lat="45.45709" lon="3.30325">
        <ele>395</ele>
        <time>2021-08-05T09:28:15Z</time>
      </trkpt>
      <trkpt lat="45.457" lon="3.30325">
        <ele>395</ele>
        <time>2021-08-05T09:28:17Z</time>
      </trkpt>
      <trkpt lat="45.45691" lon="3.30327">
        <ele>394.9</ele>
        <time>2021-08-05T09:28:19Z</time>
      </trkpt>
      <trkpt lat="45.45681" lon="3.30328">
        <ele>394.9</ele>
        <time>2021-08-05T09:28:21Z</time>
      </trkpt>
      <trkpt lat="45.45672" lon="3.30329">
        <ele>394.8</ele>
        <time>2021-08-05T09:28:23Z</time>
      </trkpt>
      <trkpt lat="45.45662" lon="3.30329">
        <ele>394.8</ele>
        <time>2021-08-05T09:28:25Z</time>
      </trkpt>
      <trkpt lat="45.45653" lon="3.3033">
        <ele>395</ele>
        <time>2021-08-05T09:28:27Z</time>
      </trkpt>
      <trkpt lat="45.45643" lon="3.3033">
        <ele>395.1</ele>
        <time>2021-08-05T09:28:29Z</time>
      </trkpt>
      <trkpt lat="45.45633" lon="3.30331">
        <ele>395.3</ele>
        <time>2021-08-05T09:28:31Z</time>
      </trkpt>
      <trkpt lat="45.45624" lon="3.30333">
        <ele>395.5</ele>
        <time>2021-08-05T09:28:33Z</time>
      </trkpt>
      <trkpt lat="45.45614" lon="3.30334">
        <ele>395.9</ele>
        <time>2021-08-05T09:28:35Z</time>
      </trkpt>
      <trkpt lat="45.45604" lon="3.30335">
        <ele>396.4</ele>
        <time>2021-08-05T09:28:37Z</time>
      </trkpt>
      <trkpt lat="45.45595" lon="3.30337">
        <ele>397</ele>
        <time>2021-08-05T09:28:39Z</time>
      </trkpt>
      <trkpt lat="45.45585" lon="3.30339">
        <ele>397.6</ele>
        <time>2021-08-05T09:28:41Z</time>
      </trkpt>
      <trkpt lat="45.45576" lon="3.30339">
        <ele>397.9</ele>
        <time>2021-08-05T09:28:43Z</time>
      </trkpt>
      <trkpt lat="45.45567" lon="3.30341">
        <ele>398.4</ele>
        <time>2021-08-05T09:28:45Z</time>
      </trkpt>
      <trkpt lat="45.45557" lon="3.30342">
        <ele>398.6</ele>
        <time>2021-08-05T09:28:47Z</time>
      </trkpt>
      <trkpt lat="45.45548" lon="3.30343">
        <ele>399</ele>
        <time>2021-08-05T09:28:49Z</time>
      </trkpt>
      <trkpt lat="45.45538" lon="3.30344">
        <ele>399.5</ele>
        <time>2021-08-05T09:28:51Z</time>
      </trkpt>
      <trkpt lat="45.45529" lon="3.30346">
        <ele>400.1</ele>
        <time>2021-08-05T09:28:53Z</time>
      </trkpt>
      <trkpt lat="45.4552" lon="3.30347">
        <ele>400.5</ele>
        <time>2021-08-05T09:28:55Z</time>
      </trkpt>
      <trkpt lat="45.45511" lon="3.30349">
        <ele>401.1</ele>
        <time>2021-08-05T09:28:57Z</time>
      </trkpt>
      <trkpt lat="45.45502" lon="3.3035">
        <ele>401.5</ele>
        <time>2021-08-05T09:28:59Z</time>
      </trkpt>
      <trkpt lat="45.45493" lon="3.30353">
        <ele>402</ele>
        <time>2021-08-05T09:29:01Z</time>
      </trkpt>
      <trkpt lat="45.45485" lon="3.30354">
        <ele>402.2</ele>
        <time>2021-08-05T09:29:03Z</time>
      </trkpt>
      <trkpt lat="45.45476" lon="3.30356">
        <ele>402.2</ele>
        <time>2021-08-05T09:29:05Z</time>
      </trkpt>
      <trkpt lat="45.45468" lon="3.30358">
        <ele>402.5</ele>
        <time>2021-08-05T09:29:07Z</time>
      </trkpt>
      <trkpt lat="45.4546" lon="3.3036">
        <ele>402.7</ele>
        <time>2021-08-05T09:29:09Z</time>
      </trkpt>
      <trkpt lat="45.45451" lon="3.30361">
        <ele>402.7</ele>
        <time>2021-08-05T09:29:11Z</time>
      </trkpt>
      <trkpt lat="45.45443" lon="3.30363">
        <ele>402.8</ele>
        <time>2021-08-05T09:29:13Z</time>
      </trkpt>
      <trkpt lat="45.45435" lon="3.30366">
        <ele>403.2</ele>
        <time>2021-08-05T09:29:15Z</time>
      </trkpt>
      <trkpt lat="45.45427" lon="3.30367">
        <ele>402.8</ele>
        <time>2021-08-05T09:29:17Z</time>
      </trkpt>
      <trkpt lat="45.4542" lon="3.30369">
        <ele>402.9</ele>
        <time>2021-08-05T09:29:19Z</time>
      </trkpt>
      <trkpt lat="45.45411" lon="3.3037">
        <ele>402.8</ele>
        <time>2021-08-05T09:29:21Z</time>
      </trkpt>
      <trkpt lat="45.45404" lon="3.30372">
        <ele>402.8</ele>
        <time>2021-08-05T09:29:23Z</time>
      </trkpt>
      <trkpt lat="45.45395" lon="3.30373">
        <ele>402.8</ele>
        <time>2021-08-05T09:29:25Z</time>
      </trkpt>
      <trkpt lat="45.45387" lon="3.30376">
        <ele>402.9</ele>
        <time>2021-08-05T09:29:27Z</time>
      </trkpt>
      <trkpt lat="45.45379" lon="3.30378">
        <ele>402.9</ele>
        <time>2021-08-05T09:29:29Z</time>
      </trkpt>
      <trkpt lat="45.45372" lon="3.3038">
        <ele>403</ele>
        <time>2021-08-05T09:29:31Z</time>
      </trkpt>
      <trkpt lat="45.45364" lon="3.30382">
        <ele>403</ele>
        <time>2021-08-05T09:29:33Z</time>
      </trkpt>
      <trkpt lat="45.45357" lon="3.30384">
        <ele>403.1</ele>
        <time>2021-08-05T09:29:35Z</time>
      </trkpt>
      <trkpt lat="45.4535" lon="3.30387">
        <ele>403.2</ele>
        <time>2021-08-05T09:29:37Z</time>
      </trkpt>
      <trkpt lat="45.45344" lon="3.3039">
        <ele>403.3</ele>
        <time>2021-08-05T09:29:39Z</time>
      </trkpt>
      <trkpt lat="45.45337" lon="3.30392">
        <ele>403.4</ele>
        <time>2021-08-05T09:29:41Z</time>
      </trkpt>
      <trkpt lat="45.45331" lon="3.30396">
        <ele>403.4</ele>
        <time>2021-08-05T09:29:43Z</time>
      </trkpt>
      <trkpt lat="45.45325" lon="3.30399">
        <ele>403.2</ele>
        <time>2021-08-05T09:29:45Z</time>
      </trkpt>
      <trkpt lat="45.45319" lon="3.30402">
        <ele>402.9</ele>
        <time>2021-08-05T09:29:47Z</time>
      </trkpt>
      <trkpt lat="45.45313" lon="3.30405">
        <ele>402.6</ele>
        <time>2021-08-05T09:29:49Z</time>
      </trkpt>
      <trkpt lat="45.45306" lon="3.30408">
        <ele>402.2</ele>
        <time>2021-08-05T09:29:51Z</time>
      </trkpt>
      <trkpt lat="45.45301" lon="3.30413">
        <ele>401.9</ele>
        <time>2021-08-05T09:29:53Z</time>
      </trkpt>
      <trkpt lat="45.45295" lon="3.30417">
        <ele>401.4</ele>
        <time>2021-08-05T09:29:55Z</time>
      </trkpt>
      <trkpt lat="45.45289" lon="3.3042">
        <ele>401.4</ele>
        <time>2021-08-05T09:29:57Z</time>
      </trkpt>
      <trkpt lat="45.45284" lon="3.30423">
        <ele>401.2</ele>
        <time>2021-08-05T09:29:59Z</time>
      </trkpt>
      <trkpt lat="45.45279" lon="3.30425">
        <ele>400.9</ele>
        <time>2021-08-05T09:30:01Z</time>
      </trkpt>
      <trkpt lat="45.45275" lon="3.30428">
        <ele>400.6</ele>
        <time>2021-08-05T09:30:03Z</time>
      </trkpt>
      <trkpt lat="45.45272" lon="3.30428">
        <ele>400.2</ele>
        <time>2021-08-05T09:30:05Z</time>
      </trkpt>
      <trkpt lat="45.45272" lon="3.30428">
        <ele>400.1</ele>
        <time>2021-08-05T09:30:07Z</time>
      </trkpt>
      <trkpt lat="45.45272" lon="3.30428">
        <ele>400.1</ele>
        <time>2021-08-05T09:30:09Z</time>
      </trkpt>
      <trkpt lat="45.45271" lon="3.30428">
        <ele>400.1</ele>
        <time>2021-08-05T09:30:11Z</time>
      </trkpt>
      <trkpt lat="45.45271" lon="3.30427">
        <ele>400</ele>
        <time>2021-08-05T09:30:13Z</time>
      </trkpt>
      <trkpt lat="45.45272" lon="3.30397">
        <ele>396.8</ele>
        <time>2021-08-05T09:30:35Z</time>
      </trkpt>
      <trkpt lat="45.45272" lon="3.30387">
        <ele>396.2</ele>
        <time>2021-08-05T09:30:37Z</time>
      </trkpt>
      <trkpt lat="45.45273" lon="3.30377">
        <ele>395.6</ele>
        <time>2021-08-05T09:30:39Z</time>
      </trkpt>
      <trkpt lat="45.45274" lon="3.30366">
        <ele>394.9</ele>
        <time>2021-08-05T09:30:41Z</time>
      </trkpt>
      <trkpt lat="45.45275" lon="3.30356">
        <ele>394.2</ele>
        <time>2021-08-05T09:30:43Z</time>
      </trkpt>
      <trkpt lat="45.45276" lon="3.30346">
        <ele>393.6</ele>
        <time>2021-08-05T09:30:45Z</time>
      </trkpt>
      <trkpt lat="45.45276" lon="3.30334">
        <ele>392.7</ele>
        <time>2021-08-05T09:30:47Z</time>
      </trkpt>
      <trkpt lat="45.45278" lon="3.30322">
        <ele>393.1</ele>
        <time>2021-08-05T09:30:49Z</time>
      </trkpt>
      <trkpt lat="45.45279" lon="3.3031">
        <ele>393.6</ele>
        <time>2021-08-05T09:30:51Z</time>
      </trkpt>
      <trkpt lat="45.45281" lon="3.30299">
        <ele>394</ele>
        <time>2021-08-05T09:30:53Z</time>
      </trkpt>
      <trkpt lat="45.45281" lon="3.30289">
        <ele>394.4</ele>
        <time>2021-08-05T09:30:55Z</time>
      </trkpt>
      <trkpt lat="45.45283" lon="3.30279">
        <ele>394.8</ele>
        <time>2021-08-05T09:30:57Z</time>
      </trkpt>
      <trkpt lat="45.45284" lon="3.3027">
        <ele>395.1</ele>
        <time>2021-08-05T09:30:59Z</time>
      </trkpt>
      <trkpt lat="45.45285" lon="3.30262">
        <ele>395.3</ele>
        <time>2021-08-05T09:31:01Z</time>
      </trkpt>
      <trkpt lat="45.45286" lon="3.30259">
        <ele>395.4</ele>
        <time>2021-08-05T09:31:03Z</time>
      </trkpt>
      <trkpt lat="45.45286" lon="3.30257">
        <ele>395.4</ele>
        <time>2021-08-05T09:31:05Z</time>
      </trkpt>
      <trkpt lat="45.45287" lon="3.30257">
        <ele>395.5</ele>
        <time>2021-08-05T09:31:07Z</time>
      </trkpt>
      <trkpt lat="45.45287" lon="3.30257">
        <ele>395.5</ele>
        <time>2021-08-05T09:31:09Z</time>
      </trkpt>
      <trkpt lat="45.45286" lon="3.30256">
        <ele>395.5</ele>
        <time>2021-08-05T09:31:11Z</time>
      </trkpt>
      <trkpt lat="45.45286" lon="3.30255">
        <ele>395.5</ele>
        <time>2021-08-05T09:31:13Z</time>
      </trkpt>
      <trkpt lat="45.45276" lon="3.30241">
        <ele>397.9</ele>
        <time>2021-08-05T09:31:19Z</time>
      </trkpt>
      <trkpt lat="45.45269" lon="3.30238">
        <ele>398.6</ele>
        <time>2021-08-05T09:31:21Z</time>
      </trkpt>
      <trkpt lat="45.45263" lon="3.30235">
        <ele>399.2</ele>
        <time>2021-08-05T09:31:23Z</time>
      </trkpt>
      <trkpt lat="45.45258" lon="3.3023">
        <ele>400.3</ele>
        <time>2021-08-05T09:31:25Z</time>
      </trkpt>
      <trkpt lat="45.45252" lon="3.30225">
        <ele>401.2</ele>
        <time>2021-08-05T09:31:27Z</time>
      </trkpt>
      <trkpt lat="45.45245" lon="3.30219">
        <ele>401.7</ele>
        <time>2021-08-05T09:31:29Z</time>
      </trkpt>
      <trkpt lat="45.45238" lon="3.30211">
        <ele>402.5</ele>
        <time>2021-08-05T09:31:31Z</time>
      </trkpt>
      <trkpt lat="45.45231" lon="3.30201">
        <ele>403.2</ele>
        <time>2021-08-05T09:31:33Z</time>
      </trkpt>
      <trkpt lat="45.45223" lon="3.30191">
        <ele>403.7</ele>
        <time>2021-08-05T09:31:35Z</time>
      </trkpt>
      <trkpt lat="45.45215" lon="3.30181">
        <ele>404.1</ele>
        <time>2021-08-05T09:31:37Z</time>
      </trkpt>
      <trkpt lat="45.45206" lon="3.30172">
        <ele>404</ele>
        <time>2021-08-05T09:31:39Z</time>
      </trkpt>
      <trkpt lat="45.45196" lon="3.30164">
        <ele>403.6</ele>
        <time>2021-08-05T09:31:41Z</time>
      </trkpt>
      <trkpt lat="45.45187" lon="3.30156">
        <ele>403.2</ele>
        <time>2021-08-05T09:31:43Z</time>
      </trkpt>
      <trkpt lat="45.45178" lon="3.30148">
        <ele>402.8</ele>
        <time>2021-08-05T09:31:45Z</time>
      </trkpt>
      <trkpt lat="45.45168" lon="3.30141">
        <ele>402.3</ele>
        <time>2021-08-05T09:31:47Z</time>
      </trkpt>
      <trkpt lat="45.45158" lon="3.30132">
        <ele>402.2</ele>
        <time>2021-08-05T09:31:49Z</time>
      </trkpt>
      <trkpt lat="45.45149" lon="3.3012">
        <ele>402.4</ele>
        <time>2021-08-05T09:31:51Z</time>
      </trkpt>
      <trkpt lat="45.45141" lon="3.30107">
        <ele>402.6</ele>
        <time>2021-08-05T09:31:53Z</time>
      </trkpt>
      <trkpt lat="45.45133" lon="3.30093">
        <ele>402.9</ele>
        <time>2021-08-05T09:31:55Z</time>
      </trkpt>
      <trkpt lat="45.45125" lon="3.3008">
        <ele>403</ele>
        <time>2021-08-05T09:31:57Z</time>
      </trkpt>
      <trkpt lat="45.45118" lon="3.30066">
        <ele>403.4</ele>
        <time>2021-08-05T09:31:59Z</time>
      </trkpt>
      <trkpt lat="45.45111" lon="3.30052">
        <ele>403.8</ele>
        <time>2021-08-05T09:32:01Z</time>
      </trkpt>
      <trkpt lat="45.45103" lon="3.30039">
        <ele>403.9</ele>
        <time>2021-08-05T09:32:03Z</time>
      </trkpt>
      <trkpt lat="45.45095" lon="3.30025">
        <ele>403.9</ele>
        <time>2021-08-05T09:32:05Z</time>
      </trkpt>
      <trkpt lat="45.45086" lon="3.30012">
        <ele>403.5</ele>
        <time>2021-08-05T09:32:07Z</time>
      </trkpt>
      <trkpt lat="45.45077" lon="3.29999">
        <ele>403.2</ele>
        <time>2021-08-05T09:32:09Z</time>
      </trkpt>
      <trkpt lat="45.45068" lon="3.29986">
        <ele>402.3</ele>
        <time>2021-08-05T09:32:11Z</time>
      </trkpt>
      <trkpt lat="45.45058" lon="3.29975">
        <ele>401.2</ele>
        <time>2021-08-05T09:32:13Z</time>
      </trkpt>
      <trkpt lat="45.4505" lon="3.29962">
        <ele>400.3</ele>
        <time>2021-08-05T09:32:15Z</time>
      </trkpt>
      <trkpt lat="45.45041" lon="3.2995">
        <ele>399.4</ele>
        <time>2021-08-05T09:32:17Z</time>
      </trkpt>
      <trkpt lat="45.45033" lon="3.2994">
        <ele>398.3</ele>
        <time>2021-08-05T09:32:19Z</time>
      </trkpt>
      <trkpt lat="45.45025" lon="3.29929">
        <ele>397.4</ele>
        <time>2021-08-05T09:32:21Z</time>
      </trkpt>
      <trkpt lat="45.45017" lon="3.29918">
        <ele>396.4</ele>
        <time>2021-08-05T09:32:23Z</time>
      </trkpt>
      <trkpt lat="45.45009" lon="3.29908">
        <ele>395.7</ele>
        <time>2021-08-05T09:32:25Z</time>
      </trkpt>
      <trkpt lat="45.45001" lon="3.299">
        <ele>394.8</ele>
        <time>2021-08-05T09:32:27Z</time>
      </trkpt>
      <trkpt lat="45.44993" lon="3.29891">
        <ele>394.9</ele>
        <time>2021-08-05T09:32:29Z</time>
      </trkpt>
      <trkpt lat="45.44985" lon="3.29883">
        <ele>395</ele>
        <time>2021-08-05T09:32:31Z</time>
      </trkpt>
      <trkpt lat="45.44977" lon="3.29877">
        <ele>395</ele>
        <time>2021-08-05T09:32:33Z</time>
      </trkpt>
      <trkpt lat="45.44968" lon="3.29872">
        <ele>395</ele>
        <time>2021-08-05T09:32:35Z</time>
      </trkpt>
      <trkpt lat="45.44959" lon="3.29869">
        <ele>394.8</ele>
        <time>2021-08-05T09:32:37Z</time>
      </trkpt>
      <trkpt lat="45.4495" lon="3.29867">
        <ele>394.6</ele>
        <time>2021-08-05T09:32:39Z</time>
      </trkpt>
      <trkpt lat="45.4494" lon="3.29867">
        <ele>394.4</ele>
        <time>2021-08-05T09:32:41Z</time>
      </trkpt>
      <trkpt lat="45.44931" lon="3.29867">
        <ele>394.1</ele>
        <time>2021-08-05T09:32:43Z</time>
      </trkpt>
      <trkpt lat="45.44921" lon="3.29869">
        <ele>394</ele>
        <time>2021-08-05T09:32:45Z</time>
      </trkpt>
      <trkpt lat="45.44912" lon="3.29871">
        <ele>394</ele>
        <time>2021-08-05T09:32:47Z</time>
      </trkpt>
      <trkpt lat="45.44903" lon="3.29873">
        <ele>394.4</ele>
        <time>2021-08-05T09:32:49Z</time>
      </trkpt>
      <trkpt lat="45.44893" lon="3.29876">
        <ele>394.7</ele>
        <time>2021-08-05T09:32:51Z</time>
      </trkpt>
      <trkpt lat="45.44884" lon="3.29878">
        <ele>395.1</ele>
        <time>2021-08-05T09:32:53Z</time>
      </trkpt>
      <trkpt lat="45.44875" lon="3.2988">
        <ele>395.4</ele>
        <time>2021-08-05T09:32:55Z</time>
      </trkpt>
      <trkpt lat="45.44866" lon="3.29882">
        <ele>395.9</ele>
        <time>2021-08-05T09:32:57Z</time>
      </trkpt>
      <trkpt lat="45.44856" lon="3.29885">
        <ele>396.3</ele>
        <time>2021-08-05T09:32:59Z</time>
      </trkpt>
      <trkpt lat="45.44846" lon="3.29888">
        <ele>396.8</ele>
        <time>2021-08-05T09:33:01Z</time>
      </trkpt>
      <trkpt lat="45.44837" lon="3.2989">
        <ele>397.3</ele>
        <time>2021-08-05T09:33:03Z</time>
      </trkpt>
      <trkpt lat="45.44826" lon="3.29891">
        <ele>397.7</ele>
        <time>2021-08-05T09:33:05Z</time>
      </trkpt>
      <trkpt lat="45.44816" lon="3.29894">
        <ele>398</ele>
        <time>2021-08-05T09:33:07Z</time>
      </trkpt>
      <trkpt lat="45.44805" lon="3.29897">
        <ele>398.5</ele>
        <time>2021-08-05T09:33:09Z</time>
      </trkpt>
      <trkpt lat="45.44794" lon="3.299">
        <ele>398.9</ele>
        <time>2021-08-05T09:33:11Z</time>
      </trkpt>
      <trkpt lat="45.44783" lon="3.29902">
        <ele>399.3</ele>
        <time>2021-08-05T09:33:13Z</time>
      </trkpt>
      <trkpt lat="45.44772" lon="3.29906">
        <ele>399.8</ele>
        <time>2021-08-05T09:33:15Z</time>
      </trkpt>
      <trkpt lat="45.44761" lon="3.29907">
        <ele>400.2</ele>
        <time>2021-08-05T09:33:17Z</time>
      </trkpt>
      <trkpt lat="45.4475" lon="3.2991">
        <ele>400.6</ele>
        <time>2021-08-05T09:33:19Z</time>
      </trkpt>
      <trkpt lat="45.44739" lon="3.29913">
        <ele>400.1</ele>
        <time>2021-08-05T09:33:21Z</time>
      </trkpt>
      <trkpt lat="45.44728" lon="3.29917">
        <ele>399.7</ele>
        <time>2021-08-05T09:33:23Z</time>
      </trkpt>
      <trkpt lat="45.44717" lon="3.29923">
        <ele>400.2</ele>
        <time>2021-08-05T09:33:25Z</time>
      </trkpt>
      <trkpt lat="45.44707" lon="3.29929">
        <ele>400.5</ele>
        <time>2021-08-05T09:33:27Z</time>
      </trkpt>
      <trkpt lat="45.44697" lon="3.29939">
        <ele>401.5</ele>
        <time>2021-08-05T09:33:29Z</time>
      </trkpt>
      <trkpt lat="45.44689" lon="3.29949">
        <ele>402.2</ele>
        <time>2021-08-05T09:33:31Z</time>
      </trkpt>
      <trkpt lat="45.4468" lon="3.29959">
        <ele>402.8</ele>
        <time>2021-08-05T09:33:33Z</time>
      </trkpt>
      <trkpt lat="45.44673" lon="3.2997">
        <ele>403.2</ele>
        <time>2021-08-05T09:33:35Z</time>
      </trkpt>
      <trkpt lat="45.44665" lon="3.29981">
        <ele>403.5</ele>
        <time>2021-08-05T09:33:37Z</time>
      </trkpt>
      <trkpt lat="45.44658" lon="3.29992">
        <ele>404</ele>
        <time>2021-08-05T09:33:39Z</time>
      </trkpt>
      <trkpt lat="45.4465" lon="3.30004">
        <ele>404.5</ele>
        <time>2021-08-05T09:33:41Z</time>
      </trkpt>
      <trkpt lat="45.44643" lon="3.30015">
        <ele>405.3</ele>
        <time>2021-08-05T09:33:43Z</time>
      </trkpt>
      <trkpt lat="45.44636" lon="3.30026">
        <ele>405.9</ele>
        <time>2021-08-05T09:33:45Z</time>
      </trkpt>
      <trkpt lat="45.4463" lon="3.30036">
        <ele>406.2</ele>
        <time>2021-08-05T09:33:47Z</time>
      </trkpt>
      <trkpt lat="45.44623" lon="3.30047">
        <ele>406.2</ele>
        <time>2021-08-05T09:33:49Z</time>
      </trkpt>
      <trkpt lat="45.44616" lon="3.30056">
        <ele>405.9</ele>
        <time>2021-08-05T09:33:51Z</time>
      </trkpt>
      <trkpt lat="45.4461" lon="3.30066">
        <ele>405.5</ele>
        <time>2021-08-05T09:33:53Z</time>
      </trkpt>
      <trkpt lat="45.44603" lon="3.30075">
        <ele>404.6</ele>
        <time>2021-08-05T09:33:55Z</time>
      </trkpt>
      <trkpt lat="45.44596" lon="3.30083">
        <ele>403.4</ele>
        <time>2021-08-05T09:33:57Z</time>
      </trkpt>
      <trkpt lat="45.44589" lon="3.3009">
        <ele>403.1</ele>
        <time>2021-08-05T09:33:59Z</time>
      </trkpt>
      <trkpt lat="45.44582" lon="3.30097">
        <ele>403.1</ele>
        <time>2021-08-05T09:34:01Z</time>
      </trkpt>
      <trkpt lat="45.44576" lon="3.30104">
        <ele>403.9</ele>
        <time>2021-08-05T09:34:03Z</time>
      </trkpt>
      <trkpt lat="45.44569" lon="3.30112">
        <ele>404.7</ele>
        <time>2021-08-05T09:34:05Z</time>
      </trkpt>
      <trkpt lat="45.44563" lon="3.30119">
        <ele>405.3</ele>
        <time>2021-08-05T09:34:07Z</time>
      </trkpt>
      <trkpt lat="45.44557" lon="3.30126">
        <ele>405.9</ele>
        <time>2021-08-05T09:34:09Z</time>
      </trkpt>
      <trkpt lat="45.4455" lon="3.30133">
        <ele>406.2</ele>
        <time>2021-08-05T09:34:11Z</time>
      </trkpt>
      <trkpt lat="45.44543" lon="3.30141">
        <ele>406.3</ele>
        <time>2021-08-05T09:34:13Z</time>
      </trkpt>
      <trkpt lat="45.44536" lon="3.30148">
        <ele>406.4</ele>
        <time>2021-08-05T09:34:15Z</time>
      </trkpt>
      <trkpt lat="45.4453" lon="3.30155">
        <ele>406.4</ele>
        <time>2021-08-05T09:34:17Z</time>
      </trkpt>
      <trkpt lat="45.44523" lon="3.30163">
        <ele>406.1</ele>
        <time>2021-08-05T09:34:19Z</time>
      </trkpt>
      <trkpt lat="45.44516" lon="3.3017">
        <ele>405.9</ele>
        <time>2021-08-05T09:34:21Z</time>
      </trkpt>
      <trkpt lat="45.44509" lon="3.30178">
        <ele>406</ele>
        <time>2021-08-05T09:34:23Z</time>
      </trkpt>
      <trkpt lat="45.44503" lon="3.30184">
        <ele>405.9</ele>
        <time>2021-08-05T09:34:25Z</time>
      </trkpt>
      <trkpt lat="45.44497" lon="3.30191">
        <ele>406.2</ele>
        <time>2021-08-05T09:34:27Z</time>
      </trkpt>
      <trkpt lat="45.44492" lon="3.30198">
        <ele>406.8</ele>
        <time>2021-08-05T09:34:29Z</time>
      </trkpt>
      <trkpt lat="45.44487" lon="3.30204">
        <ele>407.5</ele>
        <time>2021-08-05T09:34:31Z</time>
      </trkpt>
      <trkpt lat="45.44481" lon="3.3021">
        <ele>408</ele>
        <time>2021-08-05T09:34:33Z</time>
      </trkpt>
      <trkpt lat="45.44477" lon="3.30216">
        <ele>408.4</ele>
        <time>2021-08-05T09:34:35Z</time>
      </trkpt>
      <trkpt lat="45.44472" lon="3.3022">
        <ele>408.6</ele>
        <time>2021-08-05T09:34:37Z</time>
      </trkpt>
      <trkpt lat="45.44468" lon="3.30225">
        <ele>408.8</ele>
        <time>2021-08-05T09:34:39Z</time>
      </trkpt>
      <trkpt lat="45.44463" lon="3.30229">
        <ele>408.9</ele>
        <time>2021-08-05T09:34:41Z</time>
      </trkpt>
      <trkpt lat="45.44458" lon="3.30233">
        <ele>408.9</ele>
        <time>2021-08-05T09:34:43Z</time>
      </trkpt>
      <trkpt lat="45.44453" lon="3.30236">
        <ele>408.8</ele>
        <time>2021-08-05T09:34:45Z</time>
      </trkpt>
      <trkpt lat="45.44448" lon="3.30239">
        <ele>408.6</ele>
        <time>2021-08-05T09:34:47Z</time>
      </trkpt>
      <trkpt lat="45.44443" lon="3.30243">
        <ele>408.5</ele>
        <time>2021-08-05T09:34:49Z</time>
      </trkpt>
      <trkpt lat="45.44438" lon="3.30245">
        <ele>408.1</ele>
        <time>2021-08-05T09:34:51Z</time>
      </trkpt>
      <trkpt lat="45.44432" lon="3.30247">
        <ele>407.6</ele>
        <time>2021-08-05T09:34:53Z</time>
      </trkpt>
      <trkpt lat="45.44426" lon="3.30248">
        <ele>406.9</ele>
        <time>2021-08-05T09:34:55Z</time>
      </trkpt>
      <trkpt lat="45.44419" lon="3.30248">
        <ele>406.1</ele>
        <time>2021-08-05T09:34:57Z</time>
      </trkpt>
      <trkpt lat="45.44412" lon="3.30248">
        <ele>405.7</ele>
        <time>2021-08-05T09:34:59Z</time>
      </trkpt>
      <trkpt lat="45.44404" lon="3.30246">
        <ele>405.5</ele>
        <time>2021-08-05T09:35:01Z</time>
      </trkpt>
      <trkpt lat="45.44396" lon="3.30245">
        <ele>405.4</ele>
        <time>2021-08-05T09:35:03Z</time>
      </trkpt>
      <trkpt lat="45.44387" lon="3.30242">
        <ele>405.1</ele>
        <time>2021-08-05T09:35:05Z</time>
      </trkpt>
      <trkpt lat="45.44378" lon="3.30239">
        <ele>404.8</ele>
        <time>2021-08-05T09:35:07Z</time>
      </trkpt>
      <trkpt lat="45.44369" lon="3.30236">
        <ele>404.5</ele>
        <time>2021-08-05T09:35:09Z</time>
      </trkpt>
      <trkpt lat="45.4436" lon="3.30232">
        <ele>404.1</ele>
        <time>2021-08-05T09:35:11Z</time>
      </trkpt>
      <trkpt lat="45.4435" lon="3.30228">
        <ele>403.7</ele>
        <time>2021-08-05T09:35:13Z</time>
      </trkpt>
      <trkpt lat="45.44341" lon="3.30223">
        <ele>403.3</ele>
        <time>2021-08-05T09:35:15Z</time>
      </trkpt>
      <trkpt lat="45.44331" lon="3.30218">
        <ele>403</ele>
        <time>2021-08-05T09:35:17Z</time>
      </trkpt>
      <trkpt lat="45.44322" lon="3.30213">
        <ele>402.8</ele>
        <time>2021-08-05T09:35:19Z</time>
      </trkpt>
      <trkpt lat="45.44312" lon="3.30208">
        <ele>402.6</ele>
        <time>2021-08-05T09:35:21Z</time>
      </trkpt>
      <trkpt lat="45.44303" lon="3.30203">
        <ele>402.5</ele>
        <time>2021-08-05T09:35:23Z</time>
      </trkpt>
      <trkpt lat="45.44294" lon="3.30198">
        <ele>402.5</ele>
        <time>2021-08-05T09:35:25Z</time>
      </trkpt>
      <trkpt lat="45.44284" lon="3.30194">
        <ele>402.6</ele>
        <time>2021-08-05T09:35:27Z</time>
      </trkpt>
      <trkpt lat="45.44275" lon="3.30189">
        <ele>402.7</ele>
        <time>2021-08-05T09:35:29Z</time>
      </trkpt>
      <trkpt lat="45.44265" lon="3.30186">
        <ele>403</ele>
        <time>2021-08-05T09:35:31Z</time>
      </trkpt>
      <trkpt lat="45.44256" lon="3.30185">
        <ele>403.4</ele>
        <time>2021-08-05T09:35:33Z</time>
      </trkpt>
      <trkpt lat="45.44247" lon="3.30188">
        <ele>403.9</ele>
        <time>2021-08-05T09:35:35Z</time>
      </trkpt>
      <trkpt lat="45.4424" lon="3.30192">
        <ele>404.5</ele>
        <time>2021-08-05T09:35:37Z</time>
      </trkpt>
      <trkpt lat="45.44233" lon="3.30197">
        <ele>405.1</ele>
        <time>2021-08-05T09:35:39Z</time>
      </trkpt>
      <trkpt lat="45.44228" lon="3.30203">
        <ele>405.7</ele>
        <time>2021-08-05T09:35:41Z</time>
      </trkpt>
      <trkpt lat="45.44224" lon="3.30211">
        <ele>406.3</ele>
        <time>2021-08-05T09:35:43Z</time>
      </trkpt>
      <trkpt lat="45.44221" lon="3.30218">
        <ele>406.9</ele>
        <time>2021-08-05T09:35:45Z</time>
      </trkpt>
      <trkpt lat="45.44219" lon="3.30226">
        <ele>407.5</ele>
        <time>2021-08-05T09:35:47Z</time>
      </trkpt>
      <trkpt lat="45.44217" lon="3.30233">
        <ele>407.9</ele>
        <time>2021-08-05T09:35:49Z</time>
      </trkpt>
      <trkpt lat="45.44217" lon="3.30242">
        <ele>408.4</ele>
        <time>2021-08-05T09:35:51Z</time>
      </trkpt>
      <trkpt lat="45.44217" lon="3.3025">
        <ele>408.8</ele>
        <time>2021-08-05T09:35:53Z</time>
      </trkpt>
      <trkpt lat="45.44218" lon="3.30258">
        <ele>409.9</ele>
        <time>2021-08-05T09:35:55Z</time>
      </trkpt>
      <trkpt lat="45.4422" lon="3.30265">
        <ele>410.7</ele>
        <time>2021-08-05T09:35:57Z</time>
      </trkpt>
      <trkpt lat="45.44221" lon="3.30271">
        <ele>411.6</ele>
        <time>2021-08-05T09:35:59Z</time>
      </trkpt>
      <trkpt lat="45.44224" lon="3.30277">
        <ele>412.3</ele>
        <time>2021-08-05T09:36:01Z</time>
      </trkpt>
      <trkpt lat="45.44226" lon="3.30283">
        <ele>413</ele>
        <time>2021-08-05T09:36:03Z</time>
      </trkpt>
      <trkpt lat="45.44229" lon="3.30288">
        <ele>413.4</ele>
        <time>2021-08-05T09:36:05Z</time>
      </trkpt>
      <trkpt lat="45.44232" lon="3.30291">
        <ele>413.7</ele>
        <time>2021-08-05T09:36:07Z</time>
      </trkpt>
      <trkpt lat="45.44235" lon="3.30295">
        <ele>413.9</ele>
        <time>2021-08-05T09:36:09Z</time>
      </trkpt>
      <trkpt lat="45.44239" lon="3.30297">
        <ele>413.9</ele>
        <time>2021-08-05T09:36:11Z</time>
      </trkpt>
      <trkpt lat="45.44243" lon="3.303">
        <ele>413.9</ele>
        <time>2021-08-05T09:36:13Z</time>
      </trkpt>
      <trkpt lat="45.44247" lon="3.30303">
        <ele>414</ele>
        <time>2021-08-05T09:36:15Z</time>
      </trkpt>
      <trkpt lat="45.4425" lon="3.30306">
        <ele>414.1</ele>
        <time>2021-08-05T09:36:17Z</time>
      </trkpt>
      <trkpt lat="45.44254" lon="3.30309">
        <ele>414.5</ele>
        <time>2021-08-05T09:36:19Z</time>
      </trkpt>
      <trkpt lat="45.44257" lon="3.30313">
        <ele>414.8</ele>
        <time>2021-08-05T09:36:21Z</time>
      </trkpt>
      <trkpt lat="45.44261" lon="3.30315">
        <ele>415.1</ele>
        <time>2021-08-05T09:36:23Z</time>
      </trkpt>
      <trkpt lat="45.44264" lon="3.30318">
        <ele>415.4</ele>
        <time>2021-08-05T09:36:25Z</time>
      </trkpt>
      <trkpt lat="45.44267" lon="3.30322">
        <ele>415.9</ele>
        <time>2021-08-05T09:36:27Z</time>
      </trkpt>
      <trkpt lat="45.4427" lon="3.30326">
        <ele>416.3</ele>
        <time>2021-08-05T09:36:29Z</time>
      </trkpt>
      <trkpt lat="45.44273" lon="3.3033">
        <ele>416.8</ele>
        <time>2021-08-05T09:36:31Z</time>
      </trkpt>
      <trkpt lat="45.44275" lon="3.30335">
        <ele>417.3</ele>
        <time>2021-08-05T09:36:33Z</time>
      </trkpt>
      <trkpt lat="45.44278" lon="3.30339">
        <ele>417.8</ele>
        <time>2021-08-05T09:36:35Z</time>
      </trkpt>
      <trkpt lat="45.4428" lon="3.30344">
        <ele>418.4</ele>
        <time>2021-08-05T09:36:37Z</time>
      </trkpt>
      <trkpt lat="45.44282" lon="3.30349">
        <ele>419.1</ele>
        <time>2021-08-05T09:36:39Z</time>
      </trkpt>
      <trkpt lat="45.44285" lon="3.30354">
        <ele>419.6</ele>
        <time>2021-08-05T09:36:41Z</time>
      </trkpt>
      <trkpt lat="45.44287" lon="3.30358">
        <ele>420.1</ele>
        <time>2021-08-05T09:36:43Z</time>
      </trkpt>
      <trkpt lat="45.4429" lon="3.30363">
        <ele>420.7</ele>
        <time>2021-08-05T09:36:45Z</time>
      </trkpt>
      <trkpt lat="45.44292" lon="3.30367">
        <ele>421.2</ele>
        <time>2021-08-05T09:36:47Z</time>
      </trkpt>
      <trkpt lat="45.44295" lon="3.30371">
        <ele>421.6</ele>
        <time>2021-08-05T09:36:49Z</time>
      </trkpt>
      <trkpt lat="45.44297" lon="3.30375">
        <ele>422</ele>
        <time>2021-08-05T09:36:51Z</time>
      </trkpt>
      <trkpt lat="45.44299" lon="3.30379">
        <ele>422.4</ele>
        <time>2021-08-05T09:36:53Z</time>
      </trkpt>
      <trkpt lat="45.44301" lon="3.30383">
        <ele>422.8</ele>
        <time>2021-08-05T09:36:55Z</time>
      </trkpt>
      <trkpt lat="45.44304" lon="3.30386">
        <ele>423.1</ele>
        <time>2021-08-05T09:36:57Z</time>
      </trkpt>
      <trkpt lat="45.44306" lon="3.3039">
        <ele>423.5</ele>
        <time>2021-08-05T09:36:59Z</time>
      </trkpt>
      <trkpt lat="45.44309" lon="3.30394">
        <ele>423.7</ele>
        <time>2021-08-05T09:37:01Z</time>
      </trkpt>
      <trkpt lat="45.44312" lon="3.30397">
        <ele>424</ele>
        <time>2021-08-05T09:37:03Z</time>
      </trkpt>
      <trkpt lat="45.44315" lon="3.30401">
        <ele>424.2</ele>
        <time>2021-08-05T09:37:05Z</time>
      </trkpt>
      <trkpt lat="45.44318" lon="3.30404">
        <ele>424.5</ele>
        <time>2021-08-05T09:37:07Z</time>
      </trkpt>
      <trkpt lat="45.44321" lon="3.30408">
        <ele>424.8</ele>
        <time>2021-08-05T09:37:09Z</time>
      </trkpt>
      <trkpt lat="45.44325" lon="3.30412">
        <ele>425</ele>
        <time>2021-08-05T09:37:11Z</time>
      </trkpt>
      <trkpt lat="45.44327" lon="3.30415">
        <ele>425.3</ele>
        <time>2021-08-05T09:37:13Z</time>
      </trkpt>
      <trkpt lat="45.4433" lon="3.30419">
        <ele>425.4</ele>
        <time>2021-08-05T09:37:15Z</time>
      </trkpt>
      <trkpt lat="45.44333" lon="3.30423">
        <ele>425.6</ele>
        <time>2021-08-05T09:37:17Z</time>
      </trkpt>
      <trkpt lat="45.44335" lon="3.30427">
        <ele>425.9</ele>
        <time>2021-08-05T09:37:19Z</time>
      </trkpt>
      <trkpt lat="45.44338" lon="3.30431">
        <ele>426.1</ele>
        <time>2021-08-05T09:37:21Z</time>
      </trkpt>
      <trkpt lat="45.44341" lon="3.30435">
        <ele>426.5</ele>
        <time>2021-08-05T09:37:23Z</time>
      </trkpt>
      <trkpt lat="45.44344" lon="3.3044">
        <ele>426.7</ele>
        <time>2021-08-05T09:37:25Z</time>
      </trkpt>
      <trkpt lat="45.44346" lon="3.30443">
        <ele>427</ele>
        <time>2021-08-05T09:37:27Z</time>
      </trkpt>
      <trkpt lat="45.44348" lon="3.30448">
        <ele>427.3</ele>
        <time>2021-08-05T09:37:29Z</time>
      </trkpt>
      <trkpt lat="45.4435" lon="3.30453">
        <ele>427.7</ele>
        <time>2021-08-05T09:37:31Z</time>
      </trkpt>
      <trkpt lat="45.44352" lon="3.30457">
        <ele>427.9</ele>
        <time>2021-08-05T09:37:33Z</time>
      </trkpt>
      <trkpt lat="45.44355" lon="3.30462">
        <ele>428.2</ele>
        <time>2021-08-05T09:37:35Z</time>
      </trkpt>
      <trkpt lat="45.44357" lon="3.30466">
        <ele>428.5</ele>
        <time>2021-08-05T09:37:37Z</time>
      </trkpt>
      <trkpt lat="45.44359" lon="3.30471">
        <ele>428.8</ele>
        <time>2021-08-05T09:37:39Z</time>
      </trkpt>
      <trkpt lat="45.44361" lon="3.30475">
        <ele>429.1</ele>
        <time>2021-08-05T09:37:41Z</time>
      </trkpt>
      <trkpt lat="45.44364" lon="3.3048">
        <ele>429.4</ele>
        <time>2021-08-05T09:37:43Z</time>
      </trkpt>
      <trkpt lat="45.44366" lon="3.30485">
        <ele>429.7</ele>
        <time>2021-08-05T09:37:45Z</time>
      </trkpt>
      <trkpt lat="45.44367" lon="3.3049">
        <ele>430</ele>
        <time>2021-08-05T09:37:47Z</time>
      </trkpt>
      <trkpt lat="45.44369" lon="3.30494">
        <ele>430.3</ele>
        <time>2021-08-05T09:37:49Z</time>
      </trkpt>
      <trkpt lat="45.44371" lon="3.30499">
        <ele>430.6</ele>
        <time>2021-08-05T09:37:51Z</time>
      </trkpt>
      <trkpt lat="45.44372" lon="3.30504">
        <ele>430.7</ele>
        <time>2021-08-05T09:37:53Z</time>
      </trkpt>
      <trkpt lat="45.44374" lon="3.30508">
        <ele>430.8</ele>
        <time>2021-08-05T09:37:55Z</time>
      </trkpt>
      <trkpt lat="45.44376" lon="3.30513">
        <ele>430.9</ele>
        <time>2021-08-05T09:37:57Z</time>
      </trkpt>
      <trkpt lat="45.44377" lon="3.30518">
        <ele>431.1</ele>
        <time>2021-08-05T09:37:59Z</time>
      </trkpt>
      <trkpt lat="45.44379" lon="3.30523">
        <ele>431.2</ele>
        <time>2021-08-05T09:38:01Z</time>
      </trkpt>
      <trkpt lat="45.4438" lon="3.30528">
        <ele>431.4</ele>
        <time>2021-08-05T09:38:03Z</time>
      </trkpt>
      <trkpt lat="45.44382" lon="3.30532">
        <ele>431.5</ele>
        <time>2021-08-05T09:38:05Z</time>
      </trkpt>
      <trkpt lat="45.44383" lon="3.30537">
        <ele>431.7</ele>
        <time>2021-08-05T09:38:07Z</time>
      </trkpt>
      <trkpt lat="45.44385" lon="3.30542">
        <ele>431.9</ele>
        <time>2021-08-05T09:38:09Z</time>
      </trkpt>
      <trkpt lat="45.44387" lon="3.3055">
        <ele>432.2</ele>
        <time>2021-08-05T09:38:11Z</time>
      </trkpt>
      <trkpt lat="45.44388" lon="3.30555">
        <ele>432.4</ele>
        <time>2021-08-05T09:38:13Z</time>
      </trkpt>
      <trkpt lat="45.4439" lon="3.30561">
        <ele>432.7</ele>
        <time>2021-08-05T09:38:15Z</time>
      </trkpt>
      <trkpt lat="45.44392" lon="3.30566">
        <ele>432.9</ele>
        <time>2021-08-05T09:38:17Z</time>
      </trkpt>
      <trkpt lat="45.44394" lon="3.30571">
        <ele>433.2</ele>
        <time>2021-08-05T09:38:19Z</time>
      </trkpt>
      <trkpt lat="45.44396" lon="3.30577">
        <ele>433.5</ele>
        <time>2021-08-05T09:38:21Z</time>
      </trkpt>
      <trkpt lat="45.44398" lon="3.30583">
        <ele>433.8</ele>
        <time>2021-08-05T09:38:23Z</time>
      </trkpt>
      <trkpt lat="45.444" lon="3.30588">
        <ele>433.9</ele>
        <time>2021-08-05T09:38:25Z</time>
      </trkpt>
      <trkpt lat="45.44402" lon="3.30594">
        <ele>434</ele>
        <time>2021-08-05T09:38:27Z</time>
      </trkpt>
      <trkpt lat="45.44404" lon="3.30599">
        <ele>434.1</ele>
        <time>2021-08-05T09:38:29Z</time>
      </trkpt>
      <trkpt lat="45.44407" lon="3.30605">
        <ele>434.2</ele>
        <time>2021-08-05T09:38:31Z</time>
      </trkpt>
      <trkpt lat="45.44409" lon="3.3061">
        <ele>434.3</ele>
        <time>2021-08-05T09:38:33Z</time>
      </trkpt>
      <trkpt lat="45.4441" lon="3.30616">
        <ele>434.3</ele>
        <time>2021-08-05T09:38:35Z</time>
      </trkpt>
      <trkpt lat="45.44411" lon="3.30622">
        <ele>434.4</ele>
        <time>2021-08-05T09:38:37Z</time>
      </trkpt>
      <trkpt lat="45.44412" lon="3.30628">
        <ele>434.5</ele>
        <time>2021-08-05T09:38:39Z</time>
      </trkpt>
      <trkpt lat="45.44414" lon="3.30634">
        <ele>434.6</ele>
        <time>2021-08-05T09:38:41Z</time>
      </trkpt>
      <trkpt lat="45.44414" lon="3.30641">
        <ele>434.7</ele>
        <time>2021-08-05T09:38:43Z</time>
      </trkpt>
      <trkpt lat="45.44415" lon="3.30646">
        <ele>434.8</ele>
        <time>2021-08-05T09:38:45Z</time>
      </trkpt>
      <trkpt lat="45.44415" lon="3.30652">
        <ele>434.8</ele>
        <time>2021-08-05T09:38:47Z</time>
      </trkpt>
      <trkpt lat="45.44415" lon="3.30658">
        <ele>434.9</ele>
        <time>2021-08-05T09:38:49Z</time>
      </trkpt>
      <trkpt lat="45.44415" lon="3.30664">
        <ele>435</ele>
        <time>2021-08-05T09:38:51Z</time>
      </trkpt>
      <trkpt lat="45.44415" lon="3.30669">
        <ele>435</ele>
        <time>2021-08-05T09:38:53Z</time>
      </trkpt>
      <trkpt lat="45.44415" lon="3.30675">
        <ele>435</ele>
        <time>2021-08-05T09:38:55Z</time>
      </trkpt>
      <trkpt lat="45.44416" lon="3.30682">
        <ele>435</ele>
        <time>2021-08-05T09:38:57Z</time>
      </trkpt>
      <trkpt lat="45.44416" lon="3.30689">
        <ele>435</ele>
        <time>2021-08-05T09:38:59Z</time>
      </trkpt>
      <trkpt lat="45.44417" lon="3.30695">
        <ele>435</ele>
        <time>2021-08-05T09:39:01Z</time>
      </trkpt>
      <trkpt lat="45.44418" lon="3.30701">
        <ele>435</ele>
        <time>2021-08-05T09:39:03Z</time>
      </trkpt>
      <trkpt lat="45.44418" lon="3.30708">
        <ele>435</ele>
        <time>2021-08-05T09:39:05Z</time>
      </trkpt>
      <trkpt lat="45.44418" lon="3.30714">
        <ele>435</ele>
        <time>2021-08-05T09:39:07Z</time>
      </trkpt>
      <trkpt lat="45.44418" lon="3.30719">
        <ele>435</ele>
        <time>2021-08-05T09:39:09Z</time>
      </trkpt>
      <trkpt lat="45.44417" lon="3.30724">
        <ele>435</ele>
        <time>2021-08-05T09:39:11Z</time>
      </trkpt>
      <trkpt lat="45.44416" lon="3.30727">
        <ele>435</ele>
        <time>2021-08-05T09:39:13Z</time>
      </trkpt>
      <trkpt lat="45.44417" lon="3.30731">
        <ele>435</ele>
        <time>2021-08-05T09:39:15Z</time>
      </trkpt>
      <trkpt lat="45.44417" lon="3.30733">
        <ele>435</ele>
        <time>2021-08-05T09:39:17Z</time>
      </trkpt>
      <trkpt lat="45.44418" lon="3.30734">
        <ele>435</ele>
        <time>2021-08-05T09:39:19Z</time>
      </trkpt>
      <trkpt lat="45.44418" lon="3.30734">
        <ele>435</ele>
        <time>2021-08-05T09:39:21Z</time>
      </trkpt>
      <trkpt lat="45.44418" lon="3.30734">
        <ele>435</ele>
        <time>2021-08-05T09:39:23Z</time>
      </trkpt>
      <trkpt lat="45.44418" lon="3.30734">
        <ele>435</ele>
        <time>2021-08-05T09:39:25Z</time>
      </trkpt>
      <trkpt lat="45.44421" lon="3.30753">
        <ele>435</ele>
        <time>2021-08-05T09:42:03Z</time>
      </trkpt>
      <trkpt lat="45.44421" lon="3.3076">
        <ele>435</ele>
        <time>2021-08-05T09:42:05Z</time>
      </trkpt>
      <trkpt lat="45.44421" lon="3.30766">
        <ele>435</ele>
        <time>2021-08-05T09:42:07Z</time>
      </trkpt>
      <trkpt lat="45.44422" lon="3.30773">
        <ele>435</ele>
        <time>2021-08-05T09:42:09Z</time>
      </trkpt>
      <trkpt lat="45.44422" lon="3.3078">
        <ele>435</ele>
        <time>2021-08-05T09:42:11Z</time>
      </trkpt>
      <trkpt lat="45.44421" lon="3.30786">
        <ele>435</ele>
        <time>2021-08-05T09:42:13Z</time>
      </trkpt>
      <trkpt lat="45.4442" lon="3.3079">
        <ele>435</ele>
        <time>2021-08-05T09:42:15Z</time>
      </trkpt>
      <trkpt lat="45.44421" lon="3.30794">
        <ele>435</ele>
        <time>2021-08-05T09:42:17Z</time>
      </trkpt>
      <trkpt lat="45.44422" lon="3.30798">
        <ele>435</ele>
        <time>2021-08-05T09:42:19Z</time>
      </trkpt>
      <trkpt lat="45.44423" lon="3.30804">
        <ele>435</ele>
        <time>2021-08-05T09:42:21Z</time>
      </trkpt>
      <trkpt lat="45.44422" lon="3.30812">
        <ele>434.9</ele>
        <time>2021-08-05T09:42:23Z</time>
      </trkpt>
      <trkpt lat="45.44422" lon="3.30823">
        <ele>434.9</ele>
        <time>2021-08-05T09:42:25Z</time>
      </trkpt>
      <trkpt lat="45.44422" lon="3.30837">
        <ele>434.8</ele>
        <time>2021-08-05T09:42:27Z</time>
      </trkpt>
      <trkpt lat="45.44422" lon="3.30853">
        <ele>434</ele>
        <time>2021-08-05T09:42:29Z</time>
      </trkpt>
      <trkpt lat="45.44423" lon="3.3087">
        <ele>433.1</ele>
        <time>2021-08-05T09:42:31Z</time>
      </trkpt>
      <trkpt lat="45.44422" lon="3.30883">
        <ele>432.5</ele>
        <time>2021-08-05T09:42:33Z</time>
      </trkpt>
      <trkpt lat="45.44421" lon="3.30889">
        <ele>432.2</ele>
        <time>2021-08-05T09:42:35Z</time>
      </trkpt>
      <trkpt lat="45.44421" lon="3.30889">
        <ele>432.2</ele>
        <time>2021-08-05T09:42:37Z</time>
      </trkpt>
      <trkpt lat="45.44421" lon="3.30888">
        <ele>432.2</ele>
        <time>2021-08-05T09:42:39Z</time>
      </trkpt>
      <trkpt lat="45.44421" lon="3.30889">
        <ele>432.2</ele>
        <time>2021-08-05T09:42:41Z</time>
      </trkpt>
      <trkpt lat="45.44422" lon="3.30889">
        <ele>432.2</ele>
        <time>2021-08-05T09:42:43Z</time>
      </trkpt>
      <trkpt lat="45.44422" lon="3.30889">
        <ele>432.2</ele>
        <time>2021-08-05T09:42:45Z</time>
      </trkpt>
      <trkpt lat="45.44424" lon="3.30923">
        <ele>430.5</ele>
        <time>2021-08-05T09:42:55Z</time>
      </trkpt>
      <trkpt lat="45.44425" lon="3.30938">
        <ele>430</ele>
        <time>2021-08-05T09:42:57Z</time>
      </trkpt>
      <trkpt lat="45.44428" lon="3.30955">
        <ele>429.2</ele>
        <time>2021-08-05T09:42:59Z</time>
      </trkpt>
      <trkpt lat="45.44432" lon="3.30973">
        <ele>428.2</ele>
        <time>2021-08-05T09:43:01Z</time>
      </trkpt>
      <trkpt lat="45.44436" lon="3.30994">
        <ele>426.9</ele>
        <time>2021-08-05T09:43:03Z</time>
      </trkpt>
      <trkpt lat="45.4444" lon="3.31016">
        <ele>425.1</ele>
        <time>2021-08-05T09:43:05Z</time>
      </trkpt>
      <trkpt lat="45.4444" lon="3.3104">
        <ele>423.2</ele>
        <time>2021-08-05T09:43:07Z</time>
      </trkpt>
      <trkpt lat="45.4444" lon="3.31065">
        <ele>421.5</ele>
        <time>2021-08-05T09:43:09Z</time>
      </trkpt>
      <trkpt lat="45.44437" lon="3.31091">
        <ele>419.9</ele>
        <time>2021-08-05T09:43:11Z</time>
      </trkpt>
      <trkpt lat="45.44435" lon="3.31119">
        <ele>418.1</ele>
        <time>2021-08-05T09:43:13Z</time>
      </trkpt>
      <trkpt lat="45.44432" lon="3.31148">
        <ele>416.2</ele>
        <time>2021-08-05T09:43:15Z</time>
      </trkpt>
      <trkpt lat="45.44428" lon="3.31177">
        <ele>414.2</ele>
        <time>2021-08-05T09:43:17Z</time>
      </trkpt>
      <trkpt lat="45.44424" lon="3.31206">
        <ele>412.1</ele>
        <time>2021-08-05T09:43:19Z</time>
      </trkpt>
      <trkpt lat="45.44419" lon="3.31235">
        <ele>410.1</ele>
        <time>2021-08-05T09:43:21Z</time>
      </trkpt>
      <trkpt lat="45.44413" lon="3.31264">
        <ele>408.9</ele>
        <time>2021-08-05T09:43:23Z</time>
      </trkpt>
      <trkpt lat="45.44408" lon="3.31291">
        <ele>408.2</ele>
        <time>2021-08-05T09:43:25Z</time>
      </trkpt>
      <trkpt lat="45.44402" lon="3.31316">
        <ele>407.5</ele>
        <time>2021-08-05T09:43:27Z</time>
      </trkpt>
      <trkpt lat="45.44397" lon="3.31341">
        <ele>406.8</ele>
        <time>2021-08-05T09:43:29Z</time>
      </trkpt>
      <trkpt lat="45.44393" lon="3.31363">
        <ele>405.9</ele>
        <time>2021-08-05T09:43:31Z</time>
      </trkpt>
      <trkpt lat="45.44388" lon="3.31383">
        <ele>405.3</ele>
        <time>2021-08-05T09:43:33Z</time>
      </trkpt>
      <trkpt lat="45.44383" lon="3.314">
        <ele>404.7</ele>
        <time>2021-08-05T09:43:35Z</time>
      </trkpt>
      <trkpt lat="45.44377" lon="3.31418">
        <ele>404.1</ele>
        <time>2021-08-05T09:43:37Z</time>
      </trkpt>
      <trkpt lat="45.44371" lon="3.31438">
        <ele>404.1</ele>
        <time>2021-08-05T09:43:39Z</time>
      </trkpt>
      <trkpt lat="45.44366" lon="3.31457">
        <ele>403.9</ele>
        <time>2021-08-05T09:43:41Z</time>
      </trkpt>
      <trkpt lat="45.44361" lon="3.31475">
        <ele>403.6</ele>
        <time>2021-08-05T09:43:43Z</time>
      </trkpt>
      <trkpt lat="45.44356" lon="3.3149">
        <ele>403.3</ele>
        <time>2021-08-05T09:43:45Z</time>
      </trkpt>
      <trkpt lat="45.44352" lon="3.31506">
        <ele>403.2</ele>
        <time>2021-08-05T09:43:47Z</time>
      </trkpt>
      <trkpt lat="45.44348" lon="3.31519">
        <ele>403.3</ele>
        <time>2021-08-05T09:43:49Z</time>
      </trkpt>
      <trkpt lat="45.44348" lon="3.3153">
        <ele>403.1</ele>
        <time>2021-08-05T09:43:51Z</time>
      </trkpt>
      <trkpt lat="45.44353" lon="3.31538">
        <ele>402.5</ele>
        <time>2021-08-05T09:43:53Z</time>
      </trkpt>
      <trkpt lat="45.44362" lon="3.31544">
        <ele>401.5</ele>
        <time>2021-08-05T09:43:55Z</time>
      </trkpt>
      <trkpt lat="45.44369" lon="3.31549">
        <ele>400.8</ele>
        <time>2021-08-05T09:43:57Z</time>
      </trkpt>
      <trkpt lat="45.44374" lon="3.31561">
        <ele>400</ele>
        <time>2021-08-05T09:43:59Z</time>
      </trkpt>
      <trkpt lat="45.44378" lon="3.31574">
        <ele>399.4</ele>
        <time>2021-08-05T09:44:01Z</time>
      </trkpt>
      <trkpt lat="45.44377" lon="3.31589">
        <ele>399.3</ele>
        <time>2021-08-05T09:44:03Z</time>
      </trkpt>
      <trkpt lat="45.44375" lon="3.31603">
        <ele>399.6</ele>
        <time>2021-08-05T09:44:05Z</time>
      </trkpt>
      <trkpt lat="45.44371" lon="3.31617">
        <ele>400.1</ele>
        <time>2021-08-05T09:44:07Z</time>
      </trkpt>
      <trkpt lat="45.44368" lon="3.31632">
        <ele>400.5</ele>
        <time>2021-08-05T09:44:09Z</time>
      </trkpt>
      <trkpt lat="45.44366" lon="3.31646">
        <ele>400.9</ele>
        <time>2021-08-05T09:44:11Z</time>
      </trkpt>
      <trkpt lat="45.44363" lon="3.31659">
        <ele>401.4</ele>
        <time>2021-08-05T09:44:13Z</time>
      </trkpt>
      <trkpt lat="45.4436" lon="3.31672">
        <ele>401.8</ele>
        <time>2021-08-05T09:44:15Z</time>
      </trkpt>
      <trkpt lat="45.44358" lon="3.31684">
        <ele>402.2</ele>
        <time>2021-08-05T09:44:17Z</time>
      </trkpt>
      <trkpt lat="45.44356" lon="3.31696">
        <ele>402.6</ele>
        <time>2021-08-05T09:44:19Z</time>
      </trkpt>
      <trkpt lat="45.44353" lon="3.31709">
        <ele>403</ele>
        <time>2021-08-05T09:44:21Z</time>
      </trkpt>
      <trkpt lat="45.4435" lon="3.31721">
        <ele>403.5</ele>
        <time>2021-08-05T09:44:23Z</time>
      </trkpt>
      <trkpt lat="45.44347" lon="3.31733">
        <ele>404</ele>
        <time>2021-08-05T09:44:25Z</time>
      </trkpt>
      <trkpt lat="45.44345" lon="3.31745">
        <ele>404.5</ele>
        <time>2021-08-05T09:44:27Z</time>
      </trkpt>
      <trkpt lat="45.44342" lon="3.31758">
        <ele>404.4</ele>
        <time>2021-08-05T09:44:29Z</time>
      </trkpt>
      <trkpt lat="45.4434" lon="3.3177">
        <ele>404</ele>
        <time>2021-08-05T09:44:31Z</time>
      </trkpt>
      <trkpt lat="45.44337" lon="3.31782">
        <ele>403.6</ele>
        <time>2021-08-05T09:44:33Z</time>
      </trkpt>
      <trkpt lat="45.44334" lon="3.31795">
        <ele>403.2</ele>
        <time>2021-08-05T09:44:35Z</time>
      </trkpt>
      <trkpt lat="45.44331" lon="3.31809">
        <ele>402.9</ele>
        <time>2021-08-05T09:44:37Z</time>
      </trkpt>
      <trkpt lat="45.44329" lon="3.31823">
        <ele>402.6</ele>
        <time>2021-08-05T09:44:39Z</time>
      </trkpt>
      <trkpt lat="45.44326" lon="3.31837">
        <ele>402.6</ele>
        <time>2021-08-05T09:44:41Z</time>
      </trkpt>
      <trkpt lat="45.44322" lon="3.31851">
        <ele>402.8</ele>
        <time>2021-08-05T09:44:43Z</time>
      </trkpt>
      <trkpt lat="45.4432" lon="3.31867">
        <ele>402.8</ele>
        <time>2021-08-05T09:44:45Z</time>
      </trkpt>
      <trkpt lat="45.44317" lon="3.31883">
        <ele>402.8</ele>
        <time>2021-08-05T09:44:47Z</time>
      </trkpt>
      <trkpt lat="45.44313" lon="3.31899">
        <ele>402.8</ele>
        <time>2021-08-05T09:44:49Z</time>
      </trkpt>
      <trkpt lat="45.4431" lon="3.31915">
        <ele>402.7</ele>
        <time>2021-08-05T09:44:51Z</time>
      </trkpt>
      <trkpt lat="45.44307" lon="3.31932">
        <ele>402.6</ele>
        <time>2021-08-05T09:44:53Z</time>
      </trkpt>
      <trkpt lat="45.44305" lon="3.31949">
        <ele>402.5</ele>
        <time>2021-08-05T09:44:55Z</time>
      </trkpt>
      <trkpt lat="45.44303" lon="3.31966">
        <ele>402.3</ele>
        <time>2021-08-05T09:44:57Z</time>
      </trkpt>
      <trkpt lat="45.44302" lon="3.31984">
        <ele>402</ele>
        <time>2021-08-05T09:44:59Z</time>
      </trkpt>
      <trkpt lat="45.44301" lon="3.32002">
        <ele>401.6</ele>
        <time>2021-08-05T09:45:01Z</time>
      </trkpt>
      <trkpt lat="45.443" lon="3.32021">
        <ele>400.8</ele>
        <time>2021-08-05T09:45:03Z</time>
      </trkpt>
      <trkpt lat="45.44299" lon="3.3204">
        <ele>399.9</ele>
        <time>2021-08-05T09:45:05Z</time>
      </trkpt>
      <trkpt lat="45.44297" lon="3.3206">
        <ele>399.1</ele>
        <time>2021-08-05T09:45:07Z</time>
      </trkpt>
      <trkpt lat="45.44296" lon="3.32079">
        <ele>398.3</ele>
        <time>2021-08-05T09:45:09Z</time>
      </trkpt>
      <trkpt lat="45.44294" lon="3.32099">
        <ele>397.9</ele>
        <time>2021-08-05T09:45:11Z</time>
      </trkpt>
      <trkpt lat="45.44291" lon="3.32118">
        <ele>397.8</ele>
        <time>2021-08-05T09:45:13Z</time>
      </trkpt>
      <trkpt lat="45.44287" lon="3.32136">
        <ele>397.7</ele>
        <time>2021-08-05T09:45:15Z</time>
      </trkpt>
      <trkpt lat="45.44284" lon="3.32154">
        <ele>397.5</ele>
        <time>2021-08-05T09:45:17Z</time>
      </trkpt>
      <trkpt lat="45.4428" lon="3.32172">
        <ele>397.3</ele>
        <time>2021-08-05T09:45:19Z</time>
      </trkpt>
      <trkpt lat="45.44277" lon="3.32189">
        <ele>397.1</ele>
        <time>2021-08-05T09:45:21Z</time>
      </trkpt>
      <trkpt lat="45.44274" lon="3.32206">
        <ele>396.8</ele>
        <time>2021-08-05T09:45:23Z</time>
      </trkpt>
      <trkpt lat="45.4427" lon="3.32222">
        <ele>396.7</ele>
        <time>2021-08-05T09:45:25Z</time>
      </trkpt>
      <trkpt lat="45.44266" lon="3.32239">
        <ele>396.4</ele>
        <time>2021-08-05T09:45:27Z</time>
      </trkpt>
      <trkpt lat="45.44262" lon="3.32255">
        <ele>396.3</ele>
        <time>2021-08-05T09:45:29Z</time>
      </trkpt>
      <trkpt lat="45.44258" lon="3.3227">
        <ele>396.5</ele>
        <time>2021-08-05T09:45:31Z</time>
      </trkpt>
      <trkpt lat="45.44252" lon="3.32285">
        <ele>396.9</ele>
        <time>2021-08-05T09:45:33Z</time>
      </trkpt>
      <trkpt lat="45.44246" lon="3.32299">
        <ele>397.7</ele>
        <time>2021-08-05T09:45:35Z</time>
      </trkpt>
      <trkpt lat="45.44239" lon="3.32311">
        <ele>398.9</ele>
        <time>2021-08-05T09:45:37Z</time>
      </trkpt>
      <trkpt lat="45.44233" lon="3.32324">
        <ele>400.1</ele>
        <time>2021-08-05T09:45:39Z</time>
      </trkpt>
      <trkpt lat="45.44226" lon="3.32336">
        <ele>401.2</ele>
        <time>2021-08-05T09:45:41Z</time>
      </trkpt>
      <trkpt lat="45.4422" lon="3.32349">
        <ele>402</ele>
        <time>2021-08-05T09:45:43Z</time>
      </trkpt>
      <trkpt lat="45.44214" lon="3.32361">
        <ele>402.8</ele>
        <time>2021-08-05T09:45:45Z</time>
      </trkpt>
      <trkpt lat="45.44207" lon="3.32373">
        <ele>403.5</ele>
        <time>2021-08-05T09:45:47Z</time>
      </trkpt>
      <trkpt lat="45.44201" lon="3.32385">
        <ele>404.1</ele>
        <time>2021-08-05T09:45:49Z</time>
      </trkpt>
      <trkpt lat="45.44194" lon="3.32397">
        <ele>404.8</ele>
        <time>2021-08-05T09:45:51Z</time>
      </trkpt>
      <trkpt lat="45.44187" lon="3.32408">
        <ele>405.4</ele>
        <time>2021-08-05T09:45:53Z</time>
      </trkpt>
      <trkpt lat="45.4418" lon="3.32421">
        <ele>405.7</ele>
        <time>2021-08-05T09:45:55Z</time>
      </trkpt>
      <trkpt lat="45.44173" lon="3.32433">
        <ele>405.8</ele>
        <time>2021-08-05T09:45:57Z</time>
      </trkpt>
      <trkpt lat="45.44165" lon="3.32446">
        <ele>405.7</ele>
        <time>2021-08-05T09:45:59Z</time>
      </trkpt>
      <trkpt lat="45.44156" lon="3.32457">
        <ele>405.6</ele>
        <time>2021-08-05T09:46:01Z</time>
      </trkpt>
      <trkpt lat="45.44147" lon="3.32467">
        <ele>405.5</ele>
        <time>2021-08-05T09:46:03Z</time>
      </trkpt>
      <trkpt lat="45.44137" lon="3.32477">
        <ele>405.4</ele>
        <time>2021-08-05T09:46:05Z</time>
      </trkpt>
      <trkpt lat="45.44126" lon="3.32485">
        <ele>405.2</ele>
        <time>2021-08-05T09:46:07Z</time>
      </trkpt>
      <trkpt lat="45.44115" lon="3.32492">
        <ele>405.1</ele>
        <time>2021-08-05T09:46:09Z</time>
      </trkpt>
      <trkpt lat="45.44103" lon="3.32499">
        <ele>405</ele>
        <time>2021-08-05T09:46:11Z</time>
      </trkpt>
      <trkpt lat="45.44092" lon="3.32505">
        <ele>405</ele>
        <time>2021-08-05T09:46:13Z</time>
      </trkpt>
      <trkpt lat="45.44081" lon="3.32512">
        <ele>405.2</ele>
        <time>2021-08-05T09:46:15Z</time>
      </trkpt>
      <trkpt lat="45.44071" lon="3.3252">
        <ele>406.1</ele>
        <time>2021-08-05T09:46:17Z</time>
      </trkpt>
      <trkpt lat="45.44061" lon="3.32529">
        <ele>406.7</ele>
        <time>2021-08-05T09:46:19Z</time>
      </trkpt>
      <trkpt lat="45.44051" lon="3.3254">
        <ele>406.8</ele>
        <time>2021-08-05T09:46:21Z</time>
      </trkpt>
      <trkpt lat="45.44042" lon="3.32552">
        <ele>406.7</ele>
        <time>2021-08-05T09:46:23Z</time>
      </trkpt>
      <trkpt lat="45.44034" lon="3.32564">
        <ele>406.3</ele>
        <time>2021-08-05T09:46:25Z</time>
      </trkpt>
      <trkpt lat="45.44025" lon="3.32577">
        <ele>405.7</ele>
        <time>2021-08-05T09:46:27Z</time>
      </trkpt>
      <trkpt lat="45.44016" lon="3.32589">
        <ele>405.3</ele>
        <time>2021-08-05T09:46:29Z</time>
      </trkpt>
      <trkpt lat="45.44007" lon="3.32601">
        <ele>404.9</ele>
        <time>2021-08-05T09:46:31Z</time>
      </trkpt>
      <trkpt lat="45.43999" lon="3.32613">
        <ele>404.3</ele>
        <time>2021-08-05T09:46:33Z</time>
      </trkpt>
      <trkpt lat="45.4399" lon="3.32625">
        <ele>404.6</ele>
        <time>2021-08-05T09:46:35Z</time>
      </trkpt>
      <trkpt lat="45.43981" lon="3.32637">
        <ele>404.8</ele>
        <time>2021-08-05T09:46:37Z</time>
      </trkpt>
      <trkpt lat="45.43972" lon="3.32649">
        <ele>405</ele>
        <time>2021-08-05T09:46:39Z</time>
      </trkpt>
      <trkpt lat="45.43964" lon="3.32662">
        <ele>405</ele>
        <time>2021-08-05T09:46:41Z</time>
      </trkpt>
      <trkpt lat="45.43955" lon="3.32674">
        <ele>405.5</ele>
        <time>2021-08-05T09:46:43Z</time>
      </trkpt>
      <trkpt lat="45.43947" lon="3.32686">
        <ele>406</ele>
        <time>2021-08-05T09:46:45Z</time>
      </trkpt>
      <trkpt lat="45.4394" lon="3.32699">
        <ele>406</ele>
        <time>2021-08-05T09:46:47Z</time>
      </trkpt>
      <trkpt lat="45.43933" lon="3.32712">
        <ele>405.5</ele>
        <time>2021-08-05T09:46:49Z</time>
      </trkpt>
      <trkpt lat="45.43928" lon="3.32728">
        <ele>404.5</ele>
        <time>2021-08-05T09:46:51Z</time>
      </trkpt>
      <trkpt lat="45.43925" lon="3.32744">
        <ele>402.9</ele>
        <time>2021-08-05T09:46:53Z</time>
      </trkpt>
      <trkpt lat="45.43922" lon="3.32761">
        <ele>401.5</ele>
        <time>2021-08-05T09:46:55Z</time>
      </trkpt>
      <trkpt lat="45.4392" lon="3.32778">
        <ele>400.1</ele>
        <time>2021-08-05T09:46:57Z</time>
      </trkpt>
      <trkpt lat="45.4392" lon="3.32795">
        <ele>398.5</ele>
        <time>2021-08-05T09:46:59Z</time>
      </trkpt>
      <trkpt lat="45.43918" lon="3.32813">
        <ele>396.9</ele>
        <time>2021-08-05T09:47:01Z</time>
      </trkpt>
      <trkpt lat="45.43917" lon="3.32831">
        <ele>395.3</ele>
        <time>2021-08-05T09:47:03Z</time>
      </trkpt>
      <trkpt lat="45.43914" lon="3.32848">
        <ele>395.3</ele>
        <time>2021-08-05T09:47:05Z</time>
      </trkpt>
      <trkpt lat="45.4391" lon="3.32866">
        <ele>395.8</ele>
        <time>2021-08-05T09:47:07Z</time>
      </trkpt>
      <trkpt lat="45.43905" lon="3.32882">
        <ele>396.5</ele>
        <time>2021-08-05T09:47:09Z</time>
      </trkpt>
      <trkpt lat="45.43899" lon="3.32898">
        <ele>397.2</ele>
        <time>2021-08-05T09:47:11Z</time>
      </trkpt>
      <trkpt lat="45.4389" lon="3.32911">
        <ele>398.3</ele>
        <time>2021-08-05T09:47:13Z</time>
      </trkpt>
      <trkpt lat="45.43881" lon="3.32924">
        <ele>399.6</ele>
        <time>2021-08-05T09:47:15Z</time>
      </trkpt>
      <trkpt lat="45.43871" lon="3.32934">
        <ele>401</ele>
        <time>2021-08-05T09:47:17Z</time>
      </trkpt>
      <trkpt lat="45.4386" lon="3.32943">
        <ele>402</ele>
        <time>2021-08-05T09:47:19Z</time>
      </trkpt>
      <trkpt lat="45.4385" lon="3.32952">
        <ele>402.7</ele>
        <time>2021-08-05T09:47:21Z</time>
      </trkpt>
      <trkpt lat="45.43839" lon="3.32959">
        <ele>403.2</ele>
        <time>2021-08-05T09:47:23Z</time>
      </trkpt>
      <trkpt lat="45.43829" lon="3.32965">
        <ele>403.3</ele>
        <time>2021-08-05T09:47:25Z</time>
      </trkpt>
      <trkpt lat="45.43818" lon="3.3297">
        <ele>403</ele>
        <time>2021-08-05T09:47:27Z</time>
      </trkpt>
      <trkpt lat="45.43807" lon="3.32974">
        <ele>402.7</ele>
        <time>2021-08-05T09:47:29Z</time>
      </trkpt>
      <trkpt lat="45.43797" lon="3.32979">
        <ele>402.2</ele>
        <time>2021-08-05T09:47:31Z</time>
      </trkpt>
      <trkpt lat="45.43787" lon="3.32984">
        <ele>401.8</ele>
        <time>2021-08-05T09:47:33Z</time>
      </trkpt>
      <trkpt lat="45.43777" lon="3.32988">
        <ele>401.4</ele>
        <time>2021-08-05T09:47:35Z</time>
      </trkpt>
      <trkpt lat="45.43767" lon="3.32992">
        <ele>401</ele>
        <time>2021-08-05T09:47:37Z</time>
      </trkpt>
      <trkpt lat="45.43758" lon="3.32996">
        <ele>400.5</ele>
        <time>2021-08-05T09:47:39Z</time>
      </trkpt>
      <trkpt lat="45.43748" lon="3.33">
        <ele>400.2</ele>
        <time>2021-08-05T09:47:41Z</time>
      </trkpt>
      <trkpt lat="45.43739" lon="3.33004">
        <ele>400.8</ele>
        <time>2021-08-05T09:47:43Z</time>
      </trkpt>
      <trkpt lat="45.4373" lon="3.3301">
        <ele>401.2</ele>
        <time>2021-08-05T09:47:45Z</time>
      </trkpt>
      <trkpt lat="45.4372" lon="3.33017">
        <ele>401.3</ele>
        <time>2021-08-05T09:47:47Z</time>
      </trkpt>
      <trkpt lat="45.4371" lon="3.33025">
        <ele>401.3</ele>
        <time>2021-08-05T09:47:49Z</time>
      </trkpt>
      <trkpt lat="45.437" lon="3.33035">
        <ele>400.9</ele>
        <time>2021-08-05T09:47:51Z</time>
      </trkpt>
      <trkpt lat="45.43691" lon="3.33047">
        <ele>400.1</ele>
        <time>2021-08-05T09:47:53Z</time>
      </trkpt>
      <trkpt lat="45.43683" lon="3.33059">
        <ele>399</ele>
        <time>2021-08-05T09:47:55Z</time>
      </trkpt>
      <trkpt lat="45.43674" lon="3.3307">
        <ele>397.7</ele>
        <time>2021-08-05T09:47:57Z</time>
      </trkpt>
      <trkpt lat="45.43665" lon="3.33083">
        <ele>396.3</ele>
        <time>2021-08-05T09:47:59Z</time>
      </trkpt>
      <trkpt lat="45.43657" lon="3.33095">
        <ele>397</ele>
        <time>2021-08-05T09:48:01Z</time>
      </trkpt>
      <trkpt lat="45.43648" lon="3.33106">
        <ele>397.6</ele>
        <time>2021-08-05T09:48:03Z</time>
      </trkpt>
      <trkpt lat="45.43639" lon="3.33118">
        <ele>397.9</ele>
        <time>2021-08-05T09:48:05Z</time>
      </trkpt>
      <trkpt lat="45.43631" lon="3.33131">
        <ele>397.9</ele>
        <time>2021-08-05T09:48:07Z</time>
      </trkpt>
      <trkpt lat="45.43622" lon="3.33142">
        <ele>397.8</ele>
        <time>2021-08-05T09:48:09Z</time>
      </trkpt>
      <trkpt lat="45.43614" lon="3.33154">
        <ele>397.4</ele>
        <time>2021-08-05T09:48:11Z</time>
      </trkpt>
      <trkpt lat="45.43605" lon="3.33166">
        <ele>396.8</ele>
        <time>2021-08-05T09:48:13Z</time>
      </trkpt>
      <trkpt lat="45.43595" lon="3.33177">
        <ele>396.9</ele>
        <time>2021-08-05T09:48:15Z</time>
      </trkpt>
      <trkpt lat="45.43584" lon="3.33187">
        <ele>397</ele>
        <time>2021-08-05T09:48:17Z</time>
      </trkpt>
      <trkpt lat="45.43574" lon="3.33197">
        <ele>397.4</ele>
        <time>2021-08-05T09:48:19Z</time>
      </trkpt>
      <trkpt lat="45.43563" lon="3.33206">
        <ele>397.7</ele>
        <time>2021-08-05T09:48:21Z</time>
      </trkpt>
      <trkpt lat="45.43552" lon="3.33214">
        <ele>397.7</ele>
        <time>2021-08-05T09:48:23Z</time>
      </trkpt>
      <trkpt lat="45.43542" lon="3.33223">
        <ele>397.5</ele>
        <time>2021-08-05T09:48:25Z</time>
      </trkpt>
      <trkpt lat="45.43532" lon="3.33232">
        <ele>397</ele>
        <time>2021-08-05T09:48:27Z</time>
      </trkpt>
      <trkpt lat="45.43521" lon="3.3324">
        <ele>396.3</ele>
        <time>2021-08-05T09:48:29Z</time>
      </trkpt>
      <trkpt lat="45.43511" lon="3.33248">
        <ele>395.4</ele>
        <time>2021-08-05T09:48:31Z</time>
      </trkpt>
      <trkpt lat="45.43501" lon="3.33256">
        <ele>395</ele>
        <time>2021-08-05T09:48:33Z</time>
      </trkpt>
      <trkpt lat="45.4349" lon="3.33264">
        <ele>396.2</ele>
        <time>2021-08-05T09:48:35Z</time>
      </trkpt>
      <trkpt lat="45.4348" lon="3.33271">
        <ele>397.4</ele>
        <time>2021-08-05T09:48:37Z</time>
      </trkpt>
      <trkpt lat="45.4347" lon="3.33278">
        <ele>398.4</ele>
        <time>2021-08-05T09:48:39Z</time>
      </trkpt>
      <trkpt lat="45.43459" lon="3.33286">
        <ele>399.2</ele>
        <time>2021-08-05T09:48:41Z</time>
      </trkpt>
      <trkpt lat="45.43449" lon="3.33293">
        <ele>399.8</ele>
        <time>2021-08-05T09:48:43Z</time>
      </trkpt>
      <trkpt lat="45.43439" lon="3.33299">
        <ele>400.3</ele>
        <time>2021-08-05T09:48:45Z</time>
      </trkpt>
      <trkpt lat="45.4343" lon="3.33305">
        <ele>400.6</ele>
        <time>2021-08-05T09:48:47Z</time>
      </trkpt>
      <trkpt lat="45.4342" lon="3.33312">
        <ele>400.8</ele>
        <time>2021-08-05T09:48:49Z</time>
      </trkpt>
      <trkpt lat="45.43411" lon="3.33318">
        <ele>400.9</ele>
        <time>2021-08-05T09:48:51Z</time>
      </trkpt>
      <trkpt lat="45.43402" lon="3.33323">
        <ele>400.9</ele>
        <time>2021-08-05T09:48:53Z</time>
      </trkpt>
      <trkpt lat="45.43394" lon="3.33329">
        <ele>400.7</ele>
        <time>2021-08-05T09:48:55Z</time>
      </trkpt>
      <trkpt lat="45.43385" lon="3.33334">
        <ele>400.5</ele>
        <time>2021-08-05T09:48:57Z</time>
      </trkpt>
      <trkpt lat="45.43377" lon="3.3334">
        <ele>400.7</ele>
        <time>2021-08-05T09:48:59Z</time>
      </trkpt>
      <trkpt lat="45.43369" lon="3.33344">
        <ele>400.9</ele>
        <time>2021-08-05T09:49:01Z</time>
      </trkpt>
      <trkpt lat="45.4336" lon="3.33349">
        <ele>401.1</ele>
        <time>2021-08-05T09:49:03Z</time>
      </trkpt>
      <trkpt lat="45.43352" lon="3.33353">
        <ele>401.2</ele>
        <time>2021-08-05T09:49:05Z</time>
      </trkpt>
      <trkpt lat="45.43343" lon="3.33356">
        <ele>401.3</ele>
        <time>2021-08-05T09:49:07Z</time>
      </trkpt>
      <trkpt lat="45.43334" lon="3.33359">
        <ele>401.4</ele>
        <time>2021-08-05T09:49:09Z</time>
      </trkpt>
      <trkpt lat="45.43325" lon="3.33361">
        <ele>402</ele>
        <time>2021-08-05T09:49:11Z</time>
      </trkpt>
      <trkpt lat="45.43316" lon="3.33364">
        <ele>402.4</ele>
        <time>2021-08-05T09:49:13Z</time>
      </trkpt>
      <trkpt lat="45.43306" lon="3.33367">
        <ele>402.8</ele>
        <time>2021-08-05T09:49:15Z</time>
      </trkpt>
      <trkpt lat="45.43297" lon="3.33369">
        <ele>403.3</ele>
        <time>2021-08-05T09:49:17Z</time>
      </trkpt>
      <trkpt lat="45.43288" lon="3.33371">
        <ele>403.7</ele>
        <time>2021-08-05T09:49:19Z</time>
      </trkpt>
      <trkpt lat="45.43279" lon="3.33373">
        <ele>404</ele>
        <time>2021-08-05T09:49:21Z</time>
      </trkpt>
      <trkpt lat="45.4327" lon="3.33375">
        <ele>404.3</ele>
        <time>2021-08-05T09:49:23Z</time>
      </trkpt>
      <trkpt lat="45.4326" lon="3.33377">
        <ele>404.6</ele>
        <time>2021-08-05T09:49:25Z</time>
      </trkpt>
      <trkpt lat="45.4325" lon="3.3338">
        <ele>404.8</ele>
        <time>2021-08-05T09:49:27Z</time>
      </trkpt>
      <trkpt lat="45.4324" lon="3.33381">
        <ele>404.8</ele>
        <time>2021-08-05T09:49:29Z</time>
      </trkpt>
      <trkpt lat="45.43229" lon="3.33383">
        <ele>404.7</ele>
        <time>2021-08-05T09:49:31Z</time>
      </trkpt>
      <trkpt lat="45.43219" lon="3.33385">
        <ele>404.6</ele>
        <time>2021-08-05T09:49:33Z</time>
      </trkpt>
      <trkpt lat="45.43208" lon="3.33388">
        <ele>404.3</ele>
        <time>2021-08-05T09:49:35Z</time>
      </trkpt>
      <trkpt lat="45.43197" lon="3.3339">
        <ele>404.1</ele>
        <time>2021-08-05T09:49:37Z</time>
      </trkpt>
      <trkpt lat="45.43187" lon="3.33392">
        <ele>403.9</ele>
        <time>2021-08-05T09:49:39Z</time>
      </trkpt>
      <trkpt lat="45.43177" lon="3.33395">
        <ele>403.6</ele>
        <time>2021-08-05T09:49:41Z</time>
      </trkpt>
      <trkpt lat="45.43166" lon="3.33396">
        <ele>403.4</ele>
        <time>2021-08-05T09:49:43Z</time>
      </trkpt>
      <trkpt lat="45.43155" lon="3.33398">
        <ele>402.9</ele>
        <time>2021-08-05T09:49:45Z</time>
      </trkpt>
      <trkpt lat="45.43143" lon="3.334">
        <ele>402.4</ele>
        <time>2021-08-05T09:49:47Z</time>
      </trkpt>
      <trkpt lat="45.43132" lon="3.33402">
        <ele>402.1</ele>
        <time>2021-08-05T09:49:49Z</time>
      </trkpt>
      <trkpt lat="45.43121" lon="3.33403">
        <ele>401.9</ele>
        <time>2021-08-05T09:49:51Z</time>
      </trkpt>
      <trkpt lat="45.43109" lon="3.33404">
        <ele>401.5</ele>
        <time>2021-08-05T09:49:53Z</time>
      </trkpt>
      <trkpt lat="45.43097" lon="3.33405">
        <ele>401.2</ele>
        <time>2021-08-05T09:49:55Z</time>
      </trkpt>
      <trkpt lat="45.43086" lon="3.33406">
        <ele>401</ele>
        <time>2021-08-05T09:49:57Z</time>
      </trkpt>
      <trkpt lat="45.43075" lon="3.33406">
        <ele>401</ele>
        <time>2021-08-05T09:49:59Z</time>
      </trkpt>
      <trkpt lat="45.43064" lon="3.33406">
        <ele>401.1</ele>
        <time>2021-08-05T09:50:01Z</time>
      </trkpt>
      <trkpt lat="45.43053" lon="3.33406">
        <ele>401.2</ele>
        <time>2021-08-05T09:50:03Z</time>
      </trkpt>
      <trkpt lat="45.43042" lon="3.33405">
        <ele>401.2</ele>
        <time>2021-08-05T09:50:05Z</time>
      </trkpt>
      <trkpt lat="45.43032" lon="3.33405">
        <ele>401.3</ele>
        <time>2021-08-05T09:50:07Z</time>
      </trkpt>
      <trkpt lat="45.43021" lon="3.33405">
        <ele>401.3</ele>
        <time>2021-08-05T09:50:09Z</time>
      </trkpt>
      <trkpt lat="45.43011" lon="3.33405">
        <ele>401.4</ele>
        <time>2021-08-05T09:50:11Z</time>
      </trkpt>
      <trkpt lat="45.43001" lon="3.33404">
        <ele>401.5</ele>
        <time>2021-08-05T09:50:13Z</time>
      </trkpt>
      <trkpt lat="45.4299" lon="3.33403">
        <ele>401.6</ele>
        <time>2021-08-05T09:50:15Z</time>
      </trkpt>
      <trkpt lat="45.4298" lon="3.33403">
        <ele>401.7</ele>
        <time>2021-08-05T09:50:17Z</time>
      </trkpt>
      <trkpt lat="45.42971" lon="3.33402">
        <ele>401.9</ele>
        <time>2021-08-05T09:50:19Z</time>
      </trkpt>
      <trkpt lat="45.42961" lon="3.33401">
        <ele>402</ele>
        <time>2021-08-05T09:50:21Z</time>
      </trkpt>
      <trkpt lat="45.42951" lon="3.33399">
        <ele>402.3</ele>
        <time>2021-08-05T09:50:23Z</time>
      </trkpt>
      <trkpt lat="45.42943" lon="3.33395">
        <ele>402.7</ele>
        <time>2021-08-05T09:50:25Z</time>
      </trkpt>
      <trkpt lat="45.42934" lon="3.33392">
        <ele>403.2</ele>
        <time>2021-08-05T09:50:27Z</time>
      </trkpt>
      <trkpt lat="45.42926" lon="3.33387">
        <ele>403.8</ele>
        <time>2021-08-05T09:50:29Z</time>
      </trkpt>
      <trkpt lat="45.42919" lon="3.33383">
        <ele>404.5</ele>
        <time>2021-08-05T09:50:31Z</time>
      </trkpt>
      <trkpt lat="45.42911" lon="3.33378">
        <ele>405</ele>
        <time>2021-08-05T09:50:33Z</time>
      </trkpt>
      <trkpt lat="45.42903" lon="3.33373">
        <ele>405.5</ele>
        <time>2021-08-05T09:50:35Z</time>
      </trkpt>
      <trkpt lat="45.42895" lon="3.33369">
        <ele>405.8</ele>
        <time>2021-08-05T09:50:37Z</time>
      </trkpt>
      <trkpt lat="45.42887" lon="3.33365">
        <ele>406.1</ele>
        <time>2021-08-05T09:50:39Z</time>
      </trkpt>
      <trkpt lat="45.42879" lon="3.33362">
        <ele>406.3</ele>
        <time>2021-08-05T09:50:41Z</time>
      </trkpt>
      <trkpt lat="45.42873" lon="3.33359">
        <ele>406.5</ele>
        <time>2021-08-05T09:50:43Z</time>
      </trkpt>
      <trkpt lat="45.42867" lon="3.33358">
        <ele>406.5</ele>
        <time>2021-08-05T09:50:45Z</time>
      </trkpt>
      <trkpt lat="45.42861" lon="3.33357">
        <ele>406.5</ele>
        <time>2021-08-05T09:50:47Z</time>
      </trkpt>
      <trkpt lat="45.42854" lon="3.33353">
        <ele>406.6</ele>
        <time>2021-08-05T09:50:49Z</time>
      </trkpt>
      <trkpt lat="45.42847" lon="3.33352">
        <ele>406.6</ele>
        <time>2021-08-05T09:50:51Z</time>
      </trkpt>
      <trkpt lat="45.4284" lon="3.33351">
        <ele>406.5</ele>
        <time>2021-08-05T09:50:53Z</time>
      </trkpt>
      <trkpt lat="45.42835" lon="3.33349">
        <ele>406.5</ele>
        <time>2021-08-05T09:50:55Z</time>
      </trkpt>
      <trkpt lat="45.4283" lon="3.33348">
        <ele>406.5</ele>
        <time>2021-08-05T09:50:57Z</time>
      </trkpt>
      <trkpt lat="45.42825" lon="3.33346">
        <ele>406.6</ele>
        <time>2021-08-05T09:50:59Z</time>
      </trkpt>
      <trkpt lat="45.4282" lon="3.33343">
        <ele>406.7</ele>
        <time>2021-08-05T09:51:01Z</time>
      </trkpt>
      <trkpt lat="45.42817" lon="3.33343">
        <ele>406.7</ele>
        <time>2021-08-05T09:51:03Z</time>
      </trkpt>
      <trkpt lat="45.42815" lon="3.3335">
        <ele>406</ele>
        <time>2021-08-05T09:51:05Z</time>
      </trkpt>
      <trkpt lat="45.42818" lon="3.33357">
        <ele>405.4</ele>
        <time>2021-08-05T09:51:07Z</time>
      </trkpt>
      <trkpt lat="45.42824" lon="3.33362">
        <ele>405</ele>
        <time>2021-08-05T09:51:09Z</time>
      </trkpt>
      <trkpt lat="45.4283" lon="3.33367">
        <ele>404.7</ele>
        <time>2021-08-05T09:51:11Z</time>
      </trkpt>
      <trkpt lat="45.42835" lon="3.33372">
        <ele>404.4</ele>
        <time>2021-08-05T09:51:13Z</time>
      </trkpt>
      <trkpt lat="45.42841" lon="3.33376">
        <ele>404</ele>
        <time>2021-08-05T09:51:15Z</time>
      </trkpt>
      <trkpt lat="45.42847" lon="3.33378">
        <ele>404</ele>
        <time>2021-08-05T09:51:17Z</time>
      </trkpt>
      <trkpt lat="45.42853" lon="3.33373">
        <ele>404.6</ele>
        <time>2021-08-05T09:51:19Z</time>
      </trkpt>
      <trkpt lat="45.4286" lon="3.33369">
        <ele>405.1</ele>
        <time>2021-08-05T09:51:21Z</time>
      </trkpt>
      <trkpt lat="45.42866" lon="3.33367">
        <ele>405.5</ele>
        <time>2021-08-05T09:51:23Z</time>
      </trkpt>
      <trkpt lat="45.42871" lon="3.33366">
        <ele>405.7</ele>
        <time>2021-08-05T09:51:25Z</time>
      </trkpt>
      <trkpt lat="45.42875" lon="3.33364">
        <ele>406.1</ele>
        <time>2021-08-05T09:51:27Z</time>
      </trkpt>
      <trkpt lat="45.42874" lon="3.33358">
        <ele>406.7</ele>
        <time>2021-08-05T09:51:29Z</time>
      </trkpt>
      <trkpt lat="45.42867" lon="3.33354">
        <ele>406.9</ele>
        <time>2021-08-05T09:51:31Z</time>
      </trkpt>
      <trkpt lat="45.4286" lon="3.33354">
        <ele>406.8</ele>
        <time>2021-08-05T09:51:33Z</time>
      </trkpt>
      <trkpt lat="45.42853" lon="3.33352">
        <ele>406.8</ele>
        <time>2021-08-05T09:51:35Z</time>
      </trkpt>
      <trkpt lat="45.42848" lon="3.33349">
        <ele>406.9</ele>
        <time>2021-08-05T09:51:37Z</time>
      </trkpt>
      <trkpt lat="45.42843" lon="3.33348">
        <ele>406.9</ele>
        <time>2021-08-05T09:51:39Z</time>
      </trkpt>
      <trkpt lat="45.4284" lon="3.33347">
        <ele>406.9</ele>
        <time>2021-08-05T09:51:41Z</time>
      </trkpt>
      <trkpt lat="45.42837" lon="3.33346">
        <ele>406.9</ele>
        <time>2021-08-05T09:51:43Z</time>
      </trkpt>
      <trkpt lat="45.42835" lon="3.33346">
        <ele>406.9</ele>
        <time>2021-08-05T09:51:45Z</time>
      </trkpt>
      <trkpt lat="45.42834" lon="3.33346">
        <ele>406.8</ele>
        <time>2021-08-05T09:51:47Z</time>
      </trkpt>
      <trkpt lat="45.42834" lon="3.33346">
        <ele>406.8</ele>
        <time>2021-08-05T09:51:49Z</time>
      </trkpt>
      <trkpt lat="45.42835" lon="3.33345">
        <ele>406.9</ele>
        <time>2021-08-05T09:51:51Z</time>
      </trkpt>
      <trkpt lat="45.42835" lon="3.33345">
        <ele>406.9</ele>
        <time>2021-08-05T09:51:53Z</time>
      </trkpt>
      <trkpt lat="45.42816" lon="3.33343">
        <ele>406.7</ele>
        <time>2021-08-05T09:52:11Z</time>
      </trkpt>
      <trkpt lat="45.4281" lon="3.33341">
        <ele>406.7</ele>
        <time>2021-08-05T09:52:13Z</time>
      </trkpt>
      <trkpt lat="45.42803" lon="3.3334">
        <ele>406.6</ele>
        <time>2021-08-05T09:52:15Z</time>
      </trkpt>
      <trkpt lat="45.42796" lon="3.33339">
        <ele>406.5</ele>
        <time>2021-08-05T09:52:17Z</time>
      </trkpt>
      <trkpt lat="45.42788" lon="3.33338">
        <ele>406.5</ele>
        <time>2021-08-05T09:52:19Z</time>
      </trkpt>
      <trkpt lat="45.4278" lon="3.33338">
        <ele>406.3</ele>
        <time>2021-08-05T09:52:21Z</time>
      </trkpt>
      <trkpt lat="45.42771" lon="3.33337">
        <ele>406.1</ele>
        <time>2021-08-05T09:52:23Z</time>
      </trkpt>
      <trkpt lat="45.42762" lon="3.33337">
        <ele>406</ele>
        <time>2021-08-05T09:52:25Z</time>
      </trkpt>
      <trkpt lat="45.42753" lon="3.33336">
        <ele>405.8</ele>
        <time>2021-08-05T09:52:27Z</time>
      </trkpt>
      <trkpt lat="45.42743" lon="3.33336">
        <ele>405.7</ele>
        <time>2021-08-05T09:52:29Z</time>
      </trkpt>
      <trkpt lat="45.42733" lon="3.33335">
        <ele>405.7</ele>
        <time>2021-08-05T09:52:31Z</time>
      </trkpt>
      <trkpt lat="45.42723" lon="3.33334">
        <ele>405.6</ele>
        <time>2021-08-05T09:52:33Z</time>
      </trkpt>
      <trkpt lat="45.42713" lon="3.33333">
        <ele>405.5</ele>
        <time>2021-08-05T09:52:35Z</time>
      </trkpt>
      <trkpt lat="45.42703" lon="3.33333">
        <ele>405.5</ele>
        <time>2021-08-05T09:52:37Z</time>
      </trkpt>
      <trkpt lat="45.42692" lon="3.33333">
        <ele>405.4</ele>
        <time>2021-08-05T09:52:39Z</time>
      </trkpt>
      <trkpt lat="45.42681" lon="3.33333">
        <ele>405.3</ele>
        <time>2021-08-05T09:52:41Z</time>
      </trkpt>
      <trkpt lat="45.42669" lon="3.33333">
        <ele>405.1</ele>
        <time>2021-08-05T09:52:43Z</time>
      </trkpt>
      <trkpt lat="45.42657" lon="3.33331">
        <ele>405.1</ele>
        <time>2021-08-05T09:52:45Z</time>
      </trkpt>
      <trkpt lat="45.42645" lon="3.33331">
        <ele>404.9</ele>
        <time>2021-08-05T09:52:47Z</time>
      </trkpt>
      <trkpt lat="45.42633" lon="3.33329">
        <ele>404.9</ele>
        <time>2021-08-05T09:52:49Z</time>
      </trkpt>
      <trkpt lat="45.4262" lon="3.33328">
        <ele>404.8</ele>
        <time>2021-08-05T09:52:51Z</time>
      </trkpt>
      <trkpt lat="45.42607" lon="3.33328">
        <ele>404.5</ele>
        <time>2021-08-05T09:52:53Z</time>
      </trkpt>
      <trkpt lat="45.42594" lon="3.33327">
        <ele>404.4</ele>
        <time>2021-08-05T09:52:55Z</time>
      </trkpt>
      <trkpt lat="45.42581" lon="3.33326">
        <ele>404.2</ele>
        <time>2021-08-05T09:52:57Z</time>
      </trkpt>
      <trkpt lat="45.42568" lon="3.33325">
        <ele>404.1</ele>
        <time>2021-08-05T09:52:59Z</time>
      </trkpt>
      <trkpt lat="45.42554" lon="3.33323">
        <ele>404.1</ele>
        <time>2021-08-05T09:53:01Z</time>
      </trkpt>
      <trkpt lat="45.42541" lon="3.33322">
        <ele>404.1</ele>
        <time>2021-08-05T09:53:03Z</time>
      </trkpt>
      <trkpt lat="45.42527" lon="3.33321">
        <ele>404.1</ele>
        <time>2021-08-05T09:53:05Z</time>
      </trkpt>
      <trkpt lat="45.42513" lon="3.33321">
        <ele>403.9</ele>
        <time>2021-08-05T09:53:07Z</time>
      </trkpt>
      <trkpt lat="45.42499" lon="3.33321">
        <ele>403.5</ele>
        <time>2021-08-05T09:53:09Z</time>
      </trkpt>
      <trkpt lat="45.42486" lon="3.33322">
        <ele>404</ele>
        <time>2021-08-05T09:53:11Z</time>
      </trkpt>
      <trkpt lat="45.42472" lon="3.33323">
        <ele>404.4</ele>
        <time>2021-08-05T09:53:13Z</time>
      </trkpt>
      <trkpt lat="45.42458" lon="3.33324">
        <ele>404.7</ele>
        <time>2021-08-05T09:53:15Z</time>
      </trkpt>
      <trkpt lat="45.42444" lon="3.33327">
        <ele>404.8</ele>
        <time>2021-08-05T09:53:17Z</time>
      </trkpt>
      <trkpt lat="45.4243" lon="3.33331">
        <ele>404.8</ele>
        <time>2021-08-05T09:53:19Z</time>
      </trkpt>
      <trkpt lat="45.42417" lon="3.33335">
        <ele>404.9</ele>
        <time>2021-08-05T09:53:21Z</time>
      </trkpt>
      <trkpt lat="45.42403" lon="3.3334">
        <ele>405.1</ele>
        <time>2021-08-05T09:53:23Z</time>
      </trkpt>
      <trkpt lat="45.4239" lon="3.33344">
        <ele>405.3</ele>
        <time>2021-08-05T09:53:25Z</time>
      </trkpt>
      <trkpt lat="45.42378" lon="3.33349">
        <ele>405.3</ele>
        <time>2021-08-05T09:53:27Z</time>
      </trkpt>
      <trkpt lat="45.42365" lon="3.33353">
        <ele>405.3</ele>
        <time>2021-08-05T09:53:29Z</time>
      </trkpt>
      <trkpt lat="45.42353" lon="3.33358">
        <ele>405.2</ele>
        <time>2021-08-05T09:53:31Z</time>
      </trkpt>
      <trkpt lat="45.42341" lon="3.33363">
        <ele>405</ele>
        <time>2021-08-05T09:53:33Z</time>
      </trkpt>
      <trkpt lat="45.42329" lon="3.33367">
        <ele>405.1</ele>
        <time>2021-08-05T09:53:35Z</time>
      </trkpt>
      <trkpt lat="45.42318" lon="3.33371">
        <ele>405.5</ele>
        <time>2021-08-05T09:53:37Z</time>
      </trkpt>
      <trkpt lat="45.42307" lon="3.33375">
        <ele>405.7</ele>
        <time>2021-08-05T09:53:39Z</time>
      </trkpt>
      <trkpt lat="45.42296" lon="3.33379">
        <ele>405.8</ele>
        <time>2021-08-05T09:53:41Z</time>
      </trkpt>
      <trkpt lat="45.42285" lon="3.33384">
        <ele>405.7</ele>
        <time>2021-08-05T09:53:43Z</time>
      </trkpt>
      <trkpt lat="45.42275" lon="3.33387">
        <ele>405.5</ele>
        <time>2021-08-05T09:53:45Z</time>
      </trkpt>
      <trkpt lat="45.42265" lon="3.33392">
        <ele>405.1</ele>
        <time>2021-08-05T09:53:47Z</time>
      </trkpt>
      <trkpt lat="45.42255" lon="3.33395">
        <ele>404.8</ele>
        <time>2021-08-05T09:53:49Z</time>
      </trkpt>
      <trkpt lat="45.42245" lon="3.33399">
        <ele>404.5</ele>
        <time>2021-08-05T09:53:51Z</time>
      </trkpt>
      <trkpt lat="45.42235" lon="3.33402">
        <ele>404.5</ele>
        <time>2021-08-05T09:53:53Z</time>
      </trkpt>
      <trkpt lat="45.42226" lon="3.33406">
        <ele>404.5</ele>
        <time>2021-08-05T09:53:55Z</time>
      </trkpt>
      <trkpt lat="45.42216" lon="3.33409">
        <ele>404.5</ele>
        <time>2021-08-05T09:53:57Z</time>
      </trkpt>
      <trkpt lat="45.42206" lon="3.33412">
        <ele>404.6</ele>
        <time>2021-08-05T09:53:59Z</time>
      </trkpt>
      <trkpt lat="45.42196" lon="3.33416">
        <ele>404.6</ele>
        <time>2021-08-05T09:54:01Z</time>
      </trkpt>
      <trkpt lat="45.42187" lon="3.3342">
        <ele>404.9</ele>
        <time>2021-08-05T09:54:03Z</time>
      </trkpt>
      <trkpt lat="45.42177" lon="3.33423">
        <ele>405.4</ele>
        <time>2021-08-05T09:54:05Z</time>
      </trkpt>
      <trkpt lat="45.42167" lon="3.33427">
        <ele>405.7</ele>
        <time>2021-08-05T09:54:07Z</time>
      </trkpt>
      <trkpt lat="45.42157" lon="3.33431">
        <ele>405.6</ele>
        <time>2021-08-05T09:54:09Z</time>
      </trkpt>
      <trkpt lat="45.42147" lon="3.33434">
        <ele>405.5</ele>
        <time>2021-08-05T09:54:11Z</time>
      </trkpt>
      <trkpt lat="45.42137" lon="3.33438">
        <ele>405.4</ele>
        <time>2021-08-05T09:54:13Z</time>
      </trkpt>
      <trkpt lat="45.42127" lon="3.33442">
        <ele>405.3</ele>
        <time>2021-08-05T09:54:15Z</time>
      </trkpt>
      <trkpt lat="45.42117" lon="3.33446">
        <ele>405.1</ele>
        <time>2021-08-05T09:54:17Z</time>
      </trkpt>
      <trkpt lat="45.42107" lon="3.33449">
        <ele>405</ele>
        <time>2021-08-05T09:54:19Z</time>
      </trkpt>
      <trkpt lat="45.42097" lon="3.33453">
        <ele>404.8</ele>
        <time>2021-08-05T09:54:21Z</time>
      </trkpt>
      <trkpt lat="45.42087" lon="3.33456">
        <ele>404.6</ele>
        <time>2021-08-05T09:54:23Z</time>
      </trkpt>
      <trkpt lat="45.42078" lon="3.3346">
        <ele>404.2</ele>
        <time>2021-08-05T09:54:25Z</time>
      </trkpt>
      <trkpt lat="45.42068" lon="3.33463">
        <ele>403.6</ele>
        <time>2021-08-05T09:54:27Z</time>
      </trkpt>
      <trkpt lat="45.42058" lon="3.33467">
        <ele>403.1</ele>
        <time>2021-08-05T09:54:29Z</time>
      </trkpt>
      <trkpt lat="45.42047" lon="3.33471">
        <ele>402.6</ele>
        <time>2021-08-05T09:54:31Z</time>
      </trkpt>
      <trkpt lat="45.42037" lon="3.33475">
        <ele>402.2</ele>
        <time>2021-08-05T09:54:33Z</time>
      </trkpt>
      <trkpt lat="45.42027" lon="3.3348">
        <ele>401.8</ele>
        <time>2021-08-05T09:54:35Z</time>
      </trkpt>
      <trkpt lat="45.42017" lon="3.33485">
        <ele>401.6</ele>
        <time>2021-08-05T09:54:37Z</time>
      </trkpt>
      <trkpt lat="45.42007" lon="3.33489">
        <ele>401.4</ele>
        <time>2021-08-05T09:54:39Z</time>
      </trkpt>
      <trkpt lat="45.41997" lon="3.33494">
        <ele>401.4</ele>
        <time>2021-08-05T09:54:41Z</time>
      </trkpt>
      <trkpt lat="45.41987" lon="3.33498">
        <ele>401.4</ele>
        <time>2021-08-05T09:54:43Z</time>
      </trkpt>
      <trkpt lat="45.41977" lon="3.33504">
        <ele>401.4</ele>
        <time>2021-08-05T09:54:45Z</time>
      </trkpt>
      <trkpt lat="45.41966" lon="3.33508">
        <ele>401.5</ele>
        <time>2021-08-05T09:54:47Z</time>
      </trkpt>
      <trkpt lat="45.41956" lon="3.33514">
        <ele>401.5</ele>
        <time>2021-08-05T09:54:49Z</time>
      </trkpt>
      <trkpt lat="45.41945" lon="3.33519">
        <ele>401.5</ele>
        <time>2021-08-05T09:54:51Z</time>
      </trkpt>
      <trkpt lat="45.41935" lon="3.33524">
        <ele>401.5</ele>
        <time>2021-08-05T09:54:53Z</time>
      </trkpt>
      <trkpt lat="45.41924" lon="3.33528">
        <ele>401.5</ele>
        <time>2021-08-05T09:54:55Z</time>
      </trkpt>
      <trkpt lat="45.41913" lon="3.33534">
        <ele>401.6</ele>
        <time>2021-08-05T09:54:57Z</time>
      </trkpt>
      <trkpt lat="45.41902" lon="3.33539">
        <ele>401.9</ele>
        <time>2021-08-05T09:54:59Z</time>
      </trkpt>
      <trkpt lat="45.41891" lon="3.33544">
        <ele>402.1</ele>
        <time>2021-08-05T09:55:01Z</time>
      </trkpt>
      <trkpt lat="45.4188" lon="3.33549">
        <ele>402.3</ele>
        <time>2021-08-05T09:55:03Z</time>
      </trkpt>
      <trkpt lat="45.41869" lon="3.33554">
        <ele>402.4</ele>
        <time>2021-08-05T09:55:05Z</time>
      </trkpt>
      <trkpt lat="45.41857" lon="3.33559">
        <ele>402.4</ele>
        <time>2021-08-05T09:55:07Z</time>
      </trkpt>
      <trkpt lat="45.41846" lon="3.33564">
        <ele>402.4</ele>
        <time>2021-08-05T09:55:09Z</time>
      </trkpt>
      <trkpt lat="45.41835" lon="3.3357">
        <ele>402.3</ele>
        <time>2021-08-05T09:55:11Z</time>
      </trkpt>
      <trkpt lat="45.41824" lon="3.33574">
        <ele>401.9</ele>
        <time>2021-08-05T09:55:13Z</time>
      </trkpt>
      <trkpt lat="45.41813" lon="3.3358">
        <ele>401.5</ele>
        <time>2021-08-05T09:55:15Z</time>
      </trkpt>
      <trkpt lat="45.41802" lon="3.33585">
        <ele>401.3</ele>
        <time>2021-08-05T09:55:17Z</time>
      </trkpt>
      <trkpt lat="45.41791" lon="3.3359">
        <ele>401.3</ele>
        <time>2021-08-05T09:55:19Z</time>
      </trkpt>
      <trkpt lat="45.4178" lon="3.33595">
        <ele>401.3</ele>
        <time>2021-08-05T09:55:21Z</time>
      </trkpt>
      <trkpt lat="45.41769" lon="3.33599">
        <ele>401.2</ele>
        <time>2021-08-05T09:55:23Z</time>
      </trkpt>
      <trkpt lat="45.41759" lon="3.33601">
        <ele>401.3</ele>
        <time>2021-08-05T09:55:25Z</time>
      </trkpt>
      <trkpt lat="45.41748" lon="3.33603">
        <ele>401.3</ele>
        <time>2021-08-05T09:55:27Z</time>
      </trkpt>
      <trkpt lat="45.41739" lon="3.33605">
        <ele>401.4</ele>
        <time>2021-08-05T09:55:29Z</time>
      </trkpt>
      <trkpt lat="45.41729" lon="3.33605">
        <ele>401.6</ele>
        <time>2021-08-05T09:55:31Z</time>
      </trkpt>
      <trkpt lat="45.41718" lon="3.33604">
        <ele>401.7</ele>
        <time>2021-08-05T09:55:33Z</time>
      </trkpt>
      <trkpt lat="45.41708" lon="3.33603">
        <ele>401.9</ele>
        <time>2021-08-05T09:55:35Z</time>
      </trkpt>
      <trkpt lat="45.41698" lon="3.33601">
        <ele>402.1</ele>
        <time>2021-08-05T09:55:37Z</time>
      </trkpt>
      <trkpt lat="45.41689" lon="3.33598">
        <ele>402.3</ele>
        <time>2021-08-05T09:55:39Z</time>
      </trkpt>
      <trkpt lat="45.4168" lon="3.33596">
        <ele>402.5</ele>
        <time>2021-08-05T09:55:41Z</time>
      </trkpt>
      <trkpt lat="45.41672" lon="3.33593">
        <ele>402.7</ele>
        <time>2021-08-05T09:55:43Z</time>
      </trkpt>
      <trkpt lat="45.41664" lon="3.33591">
        <ele>402.8</ele>
        <time>2021-08-05T09:55:45Z</time>
      </trkpt>
      <trkpt lat="45.41655" lon="3.33589">
        <ele>402.9</ele>
        <time>2021-08-05T09:55:47Z</time>
      </trkpt>
      <trkpt lat="45.41647" lon="3.33587">
        <ele>402.9</ele>
        <time>2021-08-05T09:55:49Z</time>
      </trkpt>
      <trkpt lat="45.41638" lon="3.33585">
        <ele>403</ele>
        <time>2021-08-05T09:55:51Z</time>
      </trkpt>
      <trkpt lat="45.4163" lon="3.33584">
        <ele>403</ele>
        <time>2021-08-05T09:55:53Z</time>
      </trkpt>
      <trkpt lat="45.41621" lon="3.33582">
        <ele>403</ele>
        <time>2021-08-05T09:55:55Z</time>
      </trkpt>
      <trkpt lat="45.41612" lon="3.33582">
        <ele>403</ele>
        <time>2021-08-05T09:55:57Z</time>
      </trkpt>
      <trkpt lat="45.41603" lon="3.33581">
        <ele>403.1</ele>
        <time>2021-08-05T09:55:59Z</time>
      </trkpt>
      <trkpt lat="45.41594" lon="3.3358">
        <ele>403.1</ele>
        <time>2021-08-05T09:56:01Z</time>
      </trkpt>
      <trkpt lat="45.41585" lon="3.33579">
        <ele>403.1</ele>
        <time>2021-08-05T09:56:03Z</time>
      </trkpt>
      <trkpt lat="45.41576" lon="3.33579">
        <ele>403.2</ele>
        <time>2021-08-05T09:56:05Z</time>
      </trkpt>
      <trkpt lat="45.41567" lon="3.33578">
        <ele>403.3</ele>
        <time>2021-08-05T09:56:07Z</time>
      </trkpt>
      <trkpt lat="45.41557" lon="3.33577">
        <ele>403.4</ele>
        <time>2021-08-05T09:56:09Z</time>
      </trkpt>
      <trkpt lat="45.41548" lon="3.33577">
        <ele>403.6</ele>
        <time>2021-08-05T09:56:11Z</time>
      </trkpt>
      <trkpt lat="45.41538" lon="3.33576">
        <ele>403.7</ele>
        <time>2021-08-05T09:56:13Z</time>
      </trkpt>
      <trkpt lat="45.41528" lon="3.33575">
        <ele>403.8</ele>
        <time>2021-08-05T09:56:15Z</time>
      </trkpt>
      <trkpt lat="45.41518" lon="3.33575">
        <ele>403.9</ele>
        <time>2021-08-05T09:56:17Z</time>
      </trkpt>
      <trkpt lat="45.41509" lon="3.33574">
        <ele>404</ele>
        <time>2021-08-05T09:56:19Z</time>
      </trkpt>
      <trkpt lat="45.41499" lon="3.33573">
        <ele>404.1</ele>
        <time>2021-08-05T09:56:21Z</time>
      </trkpt>
      <trkpt lat="45.41489" lon="3.33572">
        <ele>404.1</ele>
        <time>2021-08-05T09:56:23Z</time>
      </trkpt>
      <trkpt lat="45.41479" lon="3.33572">
        <ele>404.1</ele>
        <time>2021-08-05T09:56:25Z</time>
      </trkpt>
      <trkpt lat="45.41469" lon="3.33571">
        <ele>404.2</ele>
        <time>2021-08-05T09:56:27Z</time>
      </trkpt>
      <trkpt lat="45.41459" lon="3.3357">
        <ele>404.2</ele>
        <time>2021-08-05T09:56:29Z</time>
      </trkpt>
      <trkpt lat="45.41449" lon="3.33569">
        <ele>404.2</ele>
        <time>2021-08-05T09:56:31Z</time>
      </trkpt>
      <trkpt lat="45.41439" lon="3.33568">
        <ele>404.2</ele>
        <time>2021-08-05T09:56:33Z</time>
      </trkpt>
      <trkpt lat="45.41429" lon="3.33566">
        <ele>404.2</ele>
        <time>2021-08-05T09:56:35Z</time>
      </trkpt>
      <trkpt lat="45.41419" lon="3.33561">
        <ele>404.3</ele>
        <time>2021-08-05T09:56:37Z</time>
      </trkpt>
      <trkpt lat="45.41411" lon="3.33554">
        <ele>404.4</ele>
        <time>2021-08-05T09:56:39Z</time>
      </trkpt>
      <trkpt lat="45.41402" lon="3.33547">
        <ele>404.5</ele>
        <time>2021-08-05T09:56:41Z</time>
      </trkpt>
      <trkpt lat="45.41395" lon="3.33537">
        <ele>404.5</ele>
        <time>2021-08-05T09:56:43Z</time>
      </trkpt>
      <trkpt lat="45.41388" lon="3.33527">
        <ele>404.6</ele>
        <time>2021-08-05T09:56:45Z</time>
      </trkpt>
      <trkpt lat="45.41383" lon="3.33514">
        <ele>404.6</ele>
        <time>2021-08-05T09:56:47Z</time>
      </trkpt>
      <trkpt lat="45.41378" lon="3.33503">
        <ele>404.5</ele>
        <time>2021-08-05T09:56:49Z</time>
      </trkpt>
      <trkpt lat="45.41373" lon="3.33491">
        <ele>404.5</ele>
        <time>2021-08-05T09:56:51Z</time>
      </trkpt>
      <trkpt lat="45.41369" lon="3.33479">
        <ele>404.4</ele>
        <time>2021-08-05T09:56:53Z</time>
      </trkpt>
      <trkpt lat="45.41364" lon="3.33468">
        <ele>404.3</ele>
        <time>2021-08-05T09:56:55Z</time>
      </trkpt>
      <trkpt lat="45.41359" lon="3.33456">
        <ele>404.1</ele>
        <time>2021-08-05T09:56:57Z</time>
      </trkpt>
      <trkpt lat="45.41355" lon="3.33445">
        <ele>403.9</ele>
        <time>2021-08-05T09:56:59Z</time>
      </trkpt>
      <trkpt lat="45.41351" lon="3.33434">
        <ele>403.7</ele>
        <time>2021-08-05T09:57:01Z</time>
      </trkpt>
      <trkpt lat="45.41346" lon="3.33423">
        <ele>403.5</ele>
        <time>2021-08-05T09:57:03Z</time>
      </trkpt>
      <trkpt lat="45.41341" lon="3.33411">
        <ele>403.4</ele>
        <time>2021-08-05T09:57:05Z</time>
      </trkpt>
      <trkpt lat="45.41336" lon="3.33398">
        <ele>403.5</ele>
        <time>2021-08-05T09:57:07Z</time>
      </trkpt>
      <trkpt lat="45.41331" lon="3.33385">
        <ele>403.6</ele>
        <time>2021-08-05T09:57:09Z</time>
      </trkpt>
      <trkpt lat="45.41324" lon="3.33369">
        <ele>403.5</ele>
        <time>2021-08-05T09:57:11Z</time>
      </trkpt>
      <trkpt lat="45.41317" lon="3.33353">
        <ele>403.3</ele>
        <time>2021-08-05T09:57:13Z</time>
      </trkpt>
      <trkpt lat="45.41311" lon="3.33337">
        <ele>403.1</ele>
        <time>2021-08-05T09:57:15Z</time>
      </trkpt>
      <trkpt lat="45.41304" lon="3.3332">
        <ele>402.4</ele>
        <time>2021-08-05T09:57:17Z</time>
      </trkpt>
      <trkpt lat="45.41297" lon="3.33304">
        <ele>401.6</ele>
        <time>2021-08-05T09:57:19Z</time>
      </trkpt>
      <trkpt lat="45.41291" lon="3.33286">
        <ele>400.9</ele>
        <time>2021-08-05T09:57:21Z</time>
      </trkpt>
      <trkpt lat="45.41285" lon="3.33269">
        <ele>400.2</ele>
        <time>2021-08-05T09:57:23Z</time>
      </trkpt>
      <trkpt lat="45.4128" lon="3.33251">
        <ele>399.5</ele>
        <time>2021-08-05T09:57:25Z</time>
      </trkpt>
      <trkpt lat="45.41275" lon="3.33233">
        <ele>399.3</ele>
        <time>2021-08-05T09:57:27Z</time>
      </trkpt>
      <trkpt lat="45.4127" lon="3.33215">
        <ele>399.2</ele>
        <time>2021-08-05T09:57:29Z</time>
      </trkpt>
      <trkpt lat="45.41265" lon="3.33198">
        <ele>399.2</ele>
        <time>2021-08-05T09:57:31Z</time>
      </trkpt>
      <trkpt lat="45.4126" lon="3.3318">
        <ele>399.2</ele>
        <time>2021-08-05T09:57:33Z</time>
      </trkpt>
      <trkpt lat="45.41256" lon="3.33164">
        <ele>399.3</ele>
        <time>2021-08-05T09:57:35Z</time>
      </trkpt>
      <trkpt lat="45.41252" lon="3.33148">
        <ele>399.5</ele>
        <time>2021-08-05T09:57:37Z</time>
      </trkpt>
      <trkpt lat="45.41247" lon="3.33132">
        <ele>399.8</ele>
        <time>2021-08-05T09:57:39Z</time>
      </trkpt>
      <trkpt lat="45.41243" lon="3.33117">
        <ele>400.1</ele>
        <time>2021-08-05T09:57:41Z</time>
      </trkpt>
      <trkpt lat="45.41238" lon="3.33103">
        <ele>400.3</ele>
        <time>2021-08-05T09:57:43Z</time>
      </trkpt>
      <trkpt lat="45.41231" lon="3.3309">
        <ele>400.4</ele>
        <time>2021-08-05T09:57:45Z</time>
      </trkpt>
      <trkpt lat="45.41225" lon="3.33078">
        <ele>400.6</ele>
        <time>2021-08-05T09:57:47Z</time>
      </trkpt>
      <trkpt lat="45.41219" lon="3.33066">
        <ele>401</ele>
        <time>2021-08-05T09:57:49Z</time>
      </trkpt>
      <trkpt lat="45.41212" lon="3.33056">
        <ele>401.3</ele>
        <time>2021-08-05T09:57:51Z</time>
      </trkpt>
      <trkpt lat="45.41205" lon="3.33045">
        <ele>401.5</ele>
        <time>2021-08-05T09:57:53Z</time>
      </trkpt>
      <trkpt lat="45.41197" lon="3.33035">
        <ele>401.7</ele>
        <time>2021-08-05T09:57:55Z</time>
      </trkpt>
      <trkpt lat="45.41189" lon="3.33025">
        <ele>401.8</ele>
        <time>2021-08-05T09:57:57Z</time>
      </trkpt>
      <trkpt lat="45.41181" lon="3.33016">
        <ele>401.9</ele>
        <time>2021-08-05T09:57:59Z</time>
      </trkpt>
      <trkpt lat="45.41172" lon="3.33007">
        <ele>401.9</ele>
        <time>2021-08-05T09:58:01Z</time>
      </trkpt>
      <trkpt lat="45.41164" lon="3.32999">
        <ele>401.9</ele>
        <time>2021-08-05T09:58:03Z</time>
      </trkpt>
      <trkpt lat="45.41156" lon="3.32991">
        <ele>401.8</ele>
        <time>2021-08-05T09:58:05Z</time>
      </trkpt>
      <trkpt lat="45.41148" lon="3.32983">
        <ele>401.8</ele>
        <time>2021-08-05T09:58:07Z</time>
      </trkpt>
      <trkpt lat="45.41141" lon="3.32975">
        <ele>401.8</ele>
        <time>2021-08-05T09:58:09Z</time>
      </trkpt>
      <trkpt lat="45.41134" lon="3.32967">
        <ele>401.8</ele>
        <time>2021-08-05T09:58:11Z</time>
      </trkpt>
      <trkpt lat="45.41127" lon="3.3296">
        <ele>401.7</ele>
        <time>2021-08-05T09:58:13Z</time>
      </trkpt>
      <trkpt lat="45.4112" lon="3.32952">
        <ele>401.8</ele>
        <time>2021-08-05T09:58:15Z</time>
      </trkpt>
      <trkpt lat="45.41113" lon="3.32945">
        <ele>401.8</ele>
        <time>2021-08-05T09:58:17Z</time>
      </trkpt>
      <trkpt lat="45.41105" lon="3.32937">
        <ele>401.8</ele>
        <time>2021-08-05T09:58:19Z</time>
      </trkpt>
      <trkpt lat="45.41098" lon="3.3293">
        <ele>401.9</ele>
        <time>2021-08-05T09:58:21Z</time>
      </trkpt>
      <trkpt lat="45.4109" lon="3.32922">
        <ele>402</ele>
        <time>2021-08-05T09:58:23Z</time>
      </trkpt>
      <trkpt lat="45.41083" lon="3.32914">
        <ele>402</ele>
        <time>2021-08-05T09:58:25Z</time>
      </trkpt>
      <trkpt lat="45.41076" lon="3.32907">
        <ele>401.8</ele>
        <time>2021-08-05T09:58:27Z</time>
      </trkpt>
      <trkpt lat="45.41069" lon="3.329">
        <ele>401.6</ele>
        <time>2021-08-05T09:58:29Z</time>
      </trkpt>
      <trkpt lat="45.41061" lon="3.32892">
        <ele>401.5</ele>
        <time>2021-08-05T09:58:31Z</time>
      </trkpt>
      <trkpt lat="45.41054" lon="3.32885">
        <ele>401.3</ele>
        <time>2021-08-05T09:58:33Z</time>
      </trkpt>
      <trkpt lat="45.41047" lon="3.32877">
        <ele>401.1</ele>
        <time>2021-08-05T09:58:35Z</time>
      </trkpt>
      <trkpt lat="45.41039" lon="3.3287">
        <ele>400.9</ele>
        <time>2021-08-05T09:58:37Z</time>
      </trkpt>
      <trkpt lat="45.41033" lon="3.32862">
        <ele>400.8</ele>
        <time>2021-08-05T09:58:39Z</time>
      </trkpt>
      <trkpt lat="45.41026" lon="3.32855">
        <ele>400.6</ele>
        <time>2021-08-05T09:58:41Z</time>
      </trkpt>
      <trkpt lat="45.41019" lon="3.32848">
        <ele>400.5</ele>
        <time>2021-08-05T09:58:43Z</time>
      </trkpt>
      <trkpt lat="45.41012" lon="3.32841">
        <ele>400.3</ele>
        <time>2021-08-05T09:58:45Z</time>
      </trkpt>
      <trkpt lat="45.41005" lon="3.32834">
        <ele>400.1</ele>
        <time>2021-08-05T09:58:47Z</time>
      </trkpt>
      <trkpt lat="45.40998" lon="3.32826">
        <ele>400</ele>
        <time>2021-08-05T09:58:49Z</time>
      </trkpt>
      <trkpt lat="45.4099" lon="3.32819">
        <ele>399.9</ele>
        <time>2021-08-05T09:58:51Z</time>
      </trkpt>
      <trkpt lat="45.40983" lon="3.32812">
        <ele>399.8</ele>
        <time>2021-08-05T09:58:53Z</time>
      </trkpt>
      <trkpt lat="45.40975" lon="3.32805">
        <ele>399.8</ele>
        <time>2021-08-05T09:58:55Z</time>
      </trkpt>
      <trkpt lat="45.40968" lon="3.32798">
        <ele>399.8</ele>
        <time>2021-08-05T09:58:57Z</time>
      </trkpt>
      <trkpt lat="45.40961" lon="3.32791">
        <ele>399.8</ele>
        <time>2021-08-05T09:58:59Z</time>
      </trkpt>
      <trkpt lat="45.40953" lon="3.32784">
        <ele>399.8</ele>
        <time>2021-08-05T09:59:01Z</time>
      </trkpt>
      <trkpt lat="45.40946" lon="3.32777">
        <ele>399.8</ele>
        <time>2021-08-05T09:59:03Z</time>
      </trkpt>
      <trkpt lat="45.40938" lon="3.3277">
        <ele>399.8</ele>
        <time>2021-08-05T09:59:05Z</time>
      </trkpt>
      <trkpt lat="45.40931" lon="3.32762">
        <ele>399.9</ele>
        <time>2021-08-05T09:59:07Z</time>
      </trkpt>
      <trkpt lat="45.40924" lon="3.32753">
        <ele>400</ele>
        <time>2021-08-05T09:59:09Z</time>
      </trkpt>
      <trkpt lat="45.40918" lon="3.32746">
        <ele>400</ele>
        <time>2021-08-05T09:59:11Z</time>
      </trkpt>
      <trkpt lat="45.40912" lon="3.32739">
        <ele>400.2</ele>
        <time>2021-08-05T09:59:13Z</time>
      </trkpt>
      <trkpt lat="45.40908" lon="3.32732">
        <ele>400.3</ele>
        <time>2021-08-05T09:59:15Z</time>
      </trkpt>
      <trkpt lat="45.40903" lon="3.32726">
        <ele>400.5</ele>
        <time>2021-08-05T09:59:17Z</time>
      </trkpt>
      <trkpt lat="45.40898" lon="3.32721">
        <ele>400.6</ele>
        <time>2021-08-05T09:59:19Z</time>
      </trkpt>
      <trkpt lat="45.40895" lon="3.32716">
        <ele>400.7</ele>
        <time>2021-08-05T09:59:21Z</time>
      </trkpt>
      <trkpt lat="45.40892" lon="3.32711">
        <ele>400.8</ele>
        <time>2021-08-05T09:59:23Z</time>
      </trkpt>
      <trkpt lat="45.40889" lon="3.32705">
        <ele>400.9</ele>
        <time>2021-08-05T09:59:25Z</time>
      </trkpt>
      <trkpt lat="45.40887" lon="3.32696">
        <ele>401</ele>
        <time>2021-08-05T09:59:27Z</time>
      </trkpt>
      <trkpt lat="45.40882" lon="3.32691">
        <ele>401.1</ele>
        <time>2021-08-05T09:59:29Z</time>
      </trkpt>
      <trkpt lat="45.40875" lon="3.32689">
        <ele>401.2</ele>
        <time>2021-08-05T09:59:31Z</time>
      </trkpt>
      <trkpt lat="45.40869" lon="3.32686">
        <ele>401.3</ele>
        <time>2021-08-05T09:59:33Z</time>
      </trkpt>
      <trkpt lat="45.40862" lon="3.32682">
        <ele>401.5</ele>
        <time>2021-08-05T09:59:35Z</time>
      </trkpt>
      <trkpt lat="45.40857" lon="3.32675">
        <ele>401.6</ele>
        <time>2021-08-05T09:59:37Z</time>
      </trkpt>
      <trkpt lat="45.40852" lon="3.32668">
        <ele>401.8</ele>
        <time>2021-08-05T09:59:39Z</time>
      </trkpt>
      <trkpt lat="45.40848" lon="3.32659">
        <ele>401.9</ele>
        <time>2021-08-05T09:59:41Z</time>
      </trkpt>
      <trkpt lat="45.40844" lon="3.32651">
        <ele>402.1</ele>
        <time>2021-08-05T09:59:43Z</time>
      </trkpt>
      <trkpt lat="45.4084" lon="3.32643">
        <ele>402.3</ele>
        <time>2021-08-05T09:59:45Z</time>
      </trkpt>
      <trkpt lat="45.40835" lon="3.32635">
        <ele>402.4</ele>
        <time>2021-08-05T09:59:47Z</time>
      </trkpt>
      <trkpt lat="45.40831" lon="3.32627">
        <ele>402.4</ele>
        <time>2021-08-05T09:59:49Z</time>
      </trkpt>
      <trkpt lat="45.40828" lon="3.32619">
        <ele>402.5</ele>
        <time>2021-08-05T09:59:51Z</time>
      </trkpt>
      <trkpt lat="45.40824" lon="3.32612">
        <ele>402.5</ele>
        <time>2021-08-05T09:59:53Z</time>
      </trkpt>
      <trkpt lat="45.4082" lon="3.32604">
        <ele>402.6</ele>
        <time>2021-08-05T09:59:55Z</time>
      </trkpt>
      <trkpt lat="45.40816" lon="3.32597">
        <ele>402.6</ele>
        <time>2021-08-05T09:59:57Z</time>
      </trkpt>
      <trkpt lat="45.40813" lon="3.3259">
        <ele>402.7</ele>
        <time>2021-08-05T09:59:59Z</time>
      </trkpt>
      <trkpt lat="45.40809" lon="3.32583">
        <ele>402.7</ele>
        <time>2021-08-05T10:00:01Z</time>
      </trkpt>
      <trkpt lat="45.40805" lon="3.32575">
        <ele>403.1</ele>
        <time>2021-08-05T10:00:03Z</time>
      </trkpt>
      <trkpt lat="45.40802" lon="3.32568">
        <ele>403.4</ele>
        <time>2021-08-05T10:00:05Z</time>
      </trkpt>
      <trkpt lat="45.40799" lon="3.32561">
        <ele>403.8</ele>
        <time>2021-08-05T10:00:07Z</time>
      </trkpt>
      <trkpt lat="45.40796" lon="3.32556">
        <ele>404</ele>
        <time>2021-08-05T10:00:09Z</time>
      </trkpt>
      <trkpt lat="45.40793" lon="3.32549">
        <ele>404.3</ele>
        <time>2021-08-05T10:00:11Z</time>
      </trkpt>
      <trkpt lat="45.40789" lon="3.32542">
        <ele>404.7</ele>
        <time>2021-08-05T10:00:13Z</time>
      </trkpt>
      <trkpt lat="45.40786" lon="3.32535">
        <ele>405.1</ele>
        <time>2021-08-05T10:00:15Z</time>
      </trkpt>
      <trkpt lat="45.40782" lon="3.32527">
        <ele>405.5</ele>
        <time>2021-08-05T10:00:17Z</time>
      </trkpt>
      <trkpt lat="45.40778" lon="3.32518">
        <ele>406</ele>
        <time>2021-08-05T10:00:19Z</time>
      </trkpt>
      <trkpt lat="45.40774" lon="3.3251">
        <ele>406.4</ele>
        <time>2021-08-05T10:00:21Z</time>
      </trkpt>
      <trkpt lat="45.40769" lon="3.32502">
        <ele>406.9</ele>
        <time>2021-08-05T10:00:23Z</time>
      </trkpt>
      <trkpt lat="45.40765" lon="3.32493">
        <ele>407.1</ele>
        <time>2021-08-05T10:00:25Z</time>
      </trkpt>
      <trkpt lat="45.4076" lon="3.32486">
        <ele>407.2</ele>
        <time>2021-08-05T10:00:27Z</time>
      </trkpt>
      <trkpt lat="45.40757" lon="3.32477">
        <ele>407.3</ele>
        <time>2021-08-05T10:00:29Z</time>
      </trkpt>
      <trkpt lat="45.40752" lon="3.3247">
        <ele>407.4</ele>
        <time>2021-08-05T10:00:31Z</time>
      </trkpt>
      <trkpt lat="45.40749" lon="3.32462">
        <ele>407.5</ele>
        <time>2021-08-05T10:00:33Z</time>
      </trkpt>
      <trkpt lat="45.40745" lon="3.32454">
        <ele>407.7</ele>
        <time>2021-08-05T10:00:35Z</time>
      </trkpt>
      <trkpt lat="45.40741" lon="3.32446">
        <ele>407.9</ele>
        <time>2021-08-05T10:00:37Z</time>
      </trkpt>
      <trkpt lat="45.40737" lon="3.32438">
        <ele>408.2</ele>
        <time>2021-08-05T10:00:39Z</time>
      </trkpt>
      <trkpt lat="45.40734" lon="3.3243">
        <ele>408.5</ele>
        <time>2021-08-05T10:00:41Z</time>
      </trkpt>
      <trkpt lat="45.4073" lon="3.32423">
        <ele>408.8</ele>
        <time>2021-08-05T10:00:43Z</time>
      </trkpt>
      <trkpt lat="45.40726" lon="3.32415">
        <ele>409.2</ele>
        <time>2021-08-05T10:00:45Z</time>
      </trkpt>
      <trkpt lat="45.40722" lon="3.32408">
        <ele>409.6</ele>
        <time>2021-08-05T10:00:47Z</time>
      </trkpt>
      <trkpt lat="45.40719" lon="3.32401">
        <ele>409.9</ele>
        <time>2021-08-05T10:00:49Z</time>
      </trkpt>
      <trkpt lat="45.40716" lon="3.32395">
        <ele>410.2</ele>
        <time>2021-08-05T10:00:51Z</time>
      </trkpt>
      <trkpt lat="45.40712" lon="3.32387">
        <ele>410.6</ele>
        <time>2021-08-05T10:00:53Z</time>
      </trkpt>
      <trkpt lat="45.40709" lon="3.3238">
        <ele>410.9</ele>
        <time>2021-08-05T10:00:55Z</time>
      </trkpt>
      <trkpt lat="45.40705" lon="3.32373">
        <ele>411.2</ele>
        <time>2021-08-05T10:00:57Z</time>
      </trkpt>
      <trkpt lat="45.40702" lon="3.32366">
        <ele>411.4</ele>
        <time>2021-08-05T10:00:59Z</time>
      </trkpt>
      <trkpt lat="45.40698" lon="3.32359">
        <ele>411.7</ele>
        <time>2021-08-05T10:01:01Z</time>
      </trkpt>
      <trkpt lat="45.40695" lon="3.32352">
        <ele>411.9</ele>
        <time>2021-08-05T10:01:03Z</time>
      </trkpt>
      <trkpt lat="45.40692" lon="3.32345">
        <ele>412.2</ele>
        <time>2021-08-05T10:01:05Z</time>
      </trkpt>
      <trkpt lat="45.40688" lon="3.32338">
        <ele>412.4</ele>
        <time>2021-08-05T10:01:07Z</time>
      </trkpt>
      <trkpt lat="45.40685" lon="3.32331">
        <ele>412.6</ele>
        <time>2021-08-05T10:01:09Z</time>
      </trkpt>
      <trkpt lat="45.40682" lon="3.32325">
        <ele>412.9</ele>
        <time>2021-08-05T10:01:11Z</time>
      </trkpt>
      <trkpt lat="45.40678" lon="3.32318">
        <ele>413.3</ele>
        <time>2021-08-05T10:01:13Z</time>
      </trkpt>
      <trkpt lat="45.40675" lon="3.32311">
        <ele>413.6</ele>
        <time>2021-08-05T10:01:15Z</time>
      </trkpt>
      <trkpt lat="45.40671" lon="3.32305">
        <ele>413.9</ele>
        <time>2021-08-05T10:01:17Z</time>
      </trkpt>
      <trkpt lat="45.40668" lon="3.32298">
        <ele>414.2</ele>
        <time>2021-08-05T10:01:19Z</time>
      </trkpt>
      <trkpt lat="45.40665" lon="3.32291">
        <ele>414.6</ele>
        <time>2021-08-05T10:01:21Z</time>
      </trkpt>
      <trkpt lat="45.40662" lon="3.32283">
        <ele>415.1</ele>
        <time>2021-08-05T10:01:23Z</time>
      </trkpt>
      <trkpt lat="45.40659" lon="3.32275">
        <ele>415.5</ele>
        <time>2021-08-05T10:01:25Z</time>
      </trkpt>
      <trkpt lat="45.40658" lon="3.32269">
        <ele>415.8</ele>
        <time>2021-08-05T10:01:27Z</time>
      </trkpt>
      <trkpt lat="45.40656" lon="3.32261">
        <ele>416.1</ele>
        <time>2021-08-05T10:01:29Z</time>
      </trkpt>
      <trkpt lat="45.40655" lon="3.32253">
        <ele>416.4</ele>
        <time>2021-08-05T10:01:31Z</time>
      </trkpt>
      <trkpt lat="45.40653" lon="3.32245">
        <ele>416.6</ele>
        <time>2021-08-05T10:01:33Z</time>
      </trkpt>
      <trkpt lat="45.40653" lon="3.32236">
        <ele>416.8</ele>
        <time>2021-08-05T10:01:35Z</time>
      </trkpt>
      <trkpt lat="45.40652" lon="3.32228">
        <ele>417</ele>
        <time>2021-08-05T10:01:37Z</time>
      </trkpt>
      <trkpt lat="45.40652" lon="3.32221">
        <ele>417.2</ele>
        <time>2021-08-05T10:01:39Z</time>
      </trkpt>
      <trkpt lat="45.40651" lon="3.32213">
        <ele>417.4</ele>
        <time>2021-08-05T10:01:41Z</time>
      </trkpt>
      <trkpt lat="45.40651" lon="3.32205">
        <ele>417.7</ele>
        <time>2021-08-05T10:01:43Z</time>
      </trkpt>
      <trkpt lat="45.4065" lon="3.32196">
        <ele>417.9</ele>
        <time>2021-08-05T10:01:45Z</time>
      </trkpt>
      <trkpt lat="45.40649" lon="3.32188">
        <ele>418.1</ele>
        <time>2021-08-05T10:01:47Z</time>
      </trkpt>
      <trkpt lat="45.40648" lon="3.32179">
        <ele>418.4</ele>
        <time>2021-08-05T10:01:49Z</time>
      </trkpt>
      <trkpt lat="45.40647" lon="3.32171">
        <ele>418.6</ele>
        <time>2021-08-05T10:01:51Z</time>
      </trkpt>
      <trkpt lat="45.40647" lon="3.32162">
        <ele>418.7</ele>
        <time>2021-08-05T10:01:53Z</time>
      </trkpt>
      <trkpt lat="45.40646" lon="3.32153">
        <ele>418.8</ele>
        <time>2021-08-05T10:01:55Z</time>
      </trkpt>
      <trkpt lat="45.40646" lon="3.32144">
        <ele>418.8</ele>
        <time>2021-08-05T10:01:57Z</time>
      </trkpt>
      <trkpt lat="45.40645" lon="3.32136">
        <ele>418.9</ele>
        <time>2021-08-05T10:01:59Z</time>
      </trkpt>
      <trkpt lat="45.40644" lon="3.32127">
        <ele>418.9</ele>
        <time>2021-08-05T10:02:01Z</time>
      </trkpt>
      <trkpt lat="45.40643" lon="3.32119">
        <ele>419</ele>
        <time>2021-08-05T10:02:03Z</time>
      </trkpt>
      <trkpt lat="45.40643" lon="3.3211">
        <ele>419.1</ele>
        <time>2021-08-05T10:02:05Z</time>
      </trkpt>
      <trkpt lat="45.40642" lon="3.32102">
        <ele>419.1</ele>
        <time>2021-08-05T10:02:07Z</time>
      </trkpt>
      <trkpt lat="45.40641" lon="3.32094">
        <ele>419.2</ele>
        <time>2021-08-05T10:02:09Z</time>
      </trkpt>
      <trkpt lat="45.4064" lon="3.32086">
        <ele>419.3</ele>
        <time>2021-08-05T10:02:11Z</time>
      </trkpt>
      <trkpt lat="45.40638" lon="3.32079">
        <ele>419.4</ele>
        <time>2021-08-05T10:02:13Z</time>
      </trkpt>
      <trkpt lat="45.40637" lon="3.32072">
        <ele>419.6</ele>
        <time>2021-08-05T10:02:15Z</time>
      </trkpt>
      <trkpt lat="45.40635" lon="3.32064">
        <ele>419.8</ele>
        <time>2021-08-05T10:02:17Z</time>
      </trkpt>
      <trkpt lat="45.40633" lon="3.32057">
        <ele>420</ele>
        <time>2021-08-05T10:02:19Z</time>
      </trkpt>
      <trkpt lat="45.40631" lon="3.32049">
        <ele>420.2</ele>
        <time>2021-08-05T10:02:21Z</time>
      </trkpt>
      <trkpt lat="45.4063" lon="3.32041">
        <ele>420.3</ele>
        <time>2021-08-05T10:02:23Z</time>
      </trkpt>
      <trkpt lat="45.40628" lon="3.32033">
        <ele>420.5</ele>
        <time>2021-08-05T10:02:25Z</time>
      </trkpt>
      <trkpt lat="45.40625" lon="3.32028">
        <ele>420.7</ele>
        <time>2021-08-05T10:02:27Z</time>
      </trkpt>
      <trkpt lat="45.40622" lon="3.32021">
        <ele>420.8</ele>
        <time>2021-08-05T10:02:29Z</time>
      </trkpt>
      <trkpt lat="45.4062" lon="3.32014">
        <ele>421</ele>
        <time>2021-08-05T10:02:31Z</time>
      </trkpt>
      <trkpt lat="45.40623" lon="3.32009">
        <ele>420.9</ele>
        <time>2021-08-05T10:02:33Z</time>
      </trkpt>
      <trkpt lat="45.40624" lon="3.32005">
        <ele>421</ele>
        <time>2021-08-05T10:02:35Z</time>
      </trkpt>
      <trkpt lat="45.40622" lon="3.32002">
        <ele>421</ele>
        <time>2021-08-05T10:02:37Z</time>
      </trkpt>
      <trkpt lat="45.40622" lon="3.32002">
        <ele>421</ele>
        <time>2021-08-05T10:02:39Z</time>
      </trkpt>
      <trkpt lat="45.40622" lon="3.32002">
        <ele>421</ele>
        <time>2021-08-05T10:02:41Z</time>
      </trkpt>
      <trkpt lat="45.40622" lon="3.32002">
        <ele>421</ele>
        <time>2021-08-05T10:02:43Z</time>
      </trkpt>
      <trkpt lat="45.40622" lon="3.32002">
        <ele>421</ele>
        <time>2021-08-05T10:02:45Z</time>
      </trkpt>
      <trkpt lat="45.40622" lon="3.32002">
        <ele>421</ele>
        <time>2021-08-05T10:02:47Z</time>
      </trkpt>
      <trkpt lat="45.40612" lon="3.31991">
        <ele>421.5</ele>
        <time>2021-08-05T10:05:05Z</time>
      </trkpt>
      <trkpt lat="45.40609" lon="3.31984">
        <ele>421.6</ele>
        <time>2021-08-05T10:05:07Z</time>
      </trkpt>
      <trkpt lat="45.40607" lon="3.31977">
        <ele>421.8</ele>
        <time>2021-08-05T10:05:09Z</time>
      </trkpt>
      <trkpt lat="45.40604" lon="3.3197">
        <ele>422</ele>
        <time>2021-08-05T10:05:11Z</time>
      </trkpt>
      <trkpt lat="45.40601" lon="3.31962">
        <ele>422.1</ele>
        <time>2021-08-05T10:05:13Z</time>
      </trkpt>
      <trkpt lat="45.40598" lon="3.31955">
        <ele>422.3</ele>
        <time>2021-08-05T10:05:15Z</time>
      </trkpt>
      <trkpt lat="45.40593" lon="3.31949">
        <ele>422.5</ele>
        <time>2021-08-05T10:05:17Z</time>
      </trkpt>
      <trkpt lat="45.4059" lon="3.31942">
        <ele>422.6</ele>
        <time>2021-08-05T10:05:19Z</time>
      </trkpt>
      <trkpt lat="45.40586" lon="3.31935">
        <ele>422.7</ele>
        <time>2021-08-05T10:05:21Z</time>
      </trkpt>
      <trkpt lat="45.40582" lon="3.31928">
        <ele>422.9</ele>
        <time>2021-08-05T10:05:23Z</time>
      </trkpt>
      <trkpt lat="45.40578" lon="3.31921">
        <ele>423.3</ele>
        <time>2021-08-05T10:05:25Z</time>
      </trkpt>
      <trkpt lat="45.40574" lon="3.31914">
        <ele>423.6</ele>
        <time>2021-08-05T10:05:27Z</time>
      </trkpt>
      <trkpt lat="45.4057" lon="3.31909">
        <ele>424</ele>
        <time>2021-08-05T10:05:29Z</time>
      </trkpt>
      <trkpt lat="45.40567" lon="3.31901">
        <ele>424.4</ele>
        <time>2021-08-05T10:05:31Z</time>
      </trkpt>
      <trkpt lat="45.40563" lon="3.31895">
        <ele>424.7</ele>
        <time>2021-08-05T10:05:33Z</time>
      </trkpt>
      <trkpt lat="45.40558" lon="3.31888">
        <ele>425.2</ele>
        <time>2021-08-05T10:05:35Z</time>
      </trkpt>
      <trkpt lat="45.40555" lon="3.31882">
        <ele>425.5</ele>
        <time>2021-08-05T10:05:37Z</time>
      </trkpt>
      <trkpt lat="45.40551" lon="3.31876">
        <ele>425.9</ele>
        <time>2021-08-05T10:05:39Z</time>
      </trkpt>
      <trkpt lat="45.40546" lon="3.31872">
        <ele>426.3</ele>
        <time>2021-08-05T10:05:41Z</time>
      </trkpt>
      <trkpt lat="45.40543" lon="3.31865">
        <ele>426.7</ele>
        <time>2021-08-05T10:05:43Z</time>
      </trkpt>
      <trkpt lat="45.40539" lon="3.31859">
        <ele>427</ele>
        <time>2021-08-05T10:05:45Z</time>
      </trkpt>
      <trkpt lat="45.40535" lon="3.31854">
        <ele>427.4</ele>
        <time>2021-08-05T10:05:47Z</time>
      </trkpt>
      <trkpt lat="45.40532" lon="3.31848">
        <ele>427.7</ele>
        <time>2021-08-05T10:05:49Z</time>
      </trkpt>
      <trkpt lat="45.4053" lon="3.31841">
        <ele>428</ele>
        <time>2021-08-05T10:05:51Z</time>
      </trkpt>
      <trkpt lat="45.40528" lon="3.31835">
        <ele>428.3</ele>
        <time>2021-08-05T10:05:53Z</time>
      </trkpt>
      <trkpt lat="45.40525" lon="3.31828">
        <ele>428.7</ele>
        <time>2021-08-05T10:05:55Z</time>
      </trkpt>
      <trkpt lat="45.40526" lon="3.31819">
        <ele>428.9</ele>
        <time>2021-08-05T10:05:57Z</time>
      </trkpt>
      <trkpt lat="45.4053" lon="3.31812">
        <ele>428.9</ele>
        <time>2021-08-05T10:05:59Z</time>
      </trkpt>
      <trkpt lat="45.40535" lon="3.31806">
        <ele>428.8</ele>
        <time>2021-08-05T10:06:01Z</time>
      </trkpt>
      <trkpt lat="45.4054" lon="3.318">
        <ele>428.8</ele>
        <time>2021-08-05T10:06:03Z</time>
      </trkpt>
      <trkpt lat="45.40545" lon="3.31796">
        <ele>428.7</ele>
        <time>2021-08-05T10:06:05Z</time>
      </trkpt>
      <trkpt lat="45.40551" lon="3.31792">
        <ele>428.6</ele>
        <time>2021-08-05T10:06:07Z</time>
      </trkpt>
      <trkpt lat="45.40555" lon="3.31788">
        <ele>428.5</ele>
        <time>2021-08-05T10:06:09Z</time>
      </trkpt>
      <trkpt lat="45.40561" lon="3.31784">
        <ele>428.4</ele>
        <time>2021-08-05T10:06:11Z</time>
      </trkpt>
      <trkpt lat="45.40566" lon="3.3178">
        <ele>428.4</ele>
        <time>2021-08-05T10:06:13Z</time>
      </trkpt>
      <trkpt lat="45.40571" lon="3.31777">
        <ele>428.2</ele>
        <time>2021-08-05T10:06:15Z</time>
      </trkpt>
      <trkpt lat="45.40577" lon="3.31774">
        <ele>428.1</ele>
        <time>2021-08-05T10:06:17Z</time>
      </trkpt>
      <trkpt lat="45.40582" lon="3.31773">
        <ele>428</ele>
        <time>2021-08-05T10:06:19Z</time>
      </trkpt>
      <trkpt lat="45.40586" lon="3.31771">
        <ele>428</ele>
        <time>2021-08-05T10:06:21Z</time>
      </trkpt>
      <trkpt lat="45.4059" lon="3.31769">
        <ele>428.1</ele>
        <time>2021-08-05T10:06:23Z</time>
      </trkpt>
      <trkpt lat="45.40593" lon="3.31767">
        <ele>428.2</ele>
        <time>2021-08-05T10:06:25Z</time>
      </trkpt>
      <trkpt lat="45.40597" lon="3.31765">
        <ele>428.3</ele>
        <time>2021-08-05T10:06:27Z</time>
      </trkpt>
      <trkpt lat="45.40601" lon="3.31762">
        <ele>428.4</ele>
        <time>2021-08-05T10:06:29Z</time>
      </trkpt>
      <trkpt lat="45.40605" lon="3.31761">
        <ele>428.5</ele>
        <time>2021-08-05T10:06:31Z</time>
      </trkpt>
      <trkpt lat="45.40611" lon="3.31759">
        <ele>428.6</ele>
        <time>2021-08-05T10:06:33Z</time>
      </trkpt>
      <trkpt lat="45.40617" lon="3.31756">
        <ele>428.7</ele>
        <time>2021-08-05T10:06:35Z</time>
      </trkpt>
      <trkpt lat="45.40622" lon="3.31753">
        <ele>428.9</ele>
        <time>2021-08-05T10:06:37Z</time>
      </trkpt>
      <trkpt lat="45.40628" lon="3.3175">
        <ele>429</ele>
        <time>2021-08-05T10:06:39Z</time>
      </trkpt>
      <trkpt lat="45.40634" lon="3.31748">
        <ele>429.1</ele>
        <time>2021-08-05T10:06:41Z</time>
      </trkpt>
      <trkpt lat="45.4064" lon="3.31747">
        <ele>429.2</ele>
        <time>2021-08-05T10:06:43Z</time>
      </trkpt>
      <trkpt lat="45.40646" lon="3.31746">
        <ele>429.3</ele>
        <time>2021-08-05T10:06:45Z</time>
      </trkpt>
      <trkpt lat="45.40653" lon="3.31745">
        <ele>429.3</ele>
        <time>2021-08-05T10:06:47Z</time>
      </trkpt>
      <trkpt lat="45.4066" lon="3.31746">
        <ele>429.2</ele>
        <time>2021-08-05T10:06:49Z</time>
      </trkpt>
      <trkpt lat="45.40665" lon="3.31747">
        <ele>429.2</ele>
        <time>2021-08-05T10:06:51Z</time>
      </trkpt>
      <trkpt lat="45.40671" lon="3.31747">
        <ele>429.4</ele>
        <time>2021-08-05T10:06:53Z</time>
      </trkpt>
      <trkpt lat="45.40676" lon="3.31747">
        <ele>429.6</ele>
        <time>2021-08-05T10:06:55Z</time>
      </trkpt>
      <trkpt lat="45.40681" lon="3.31747">
        <ele>429.9</ele>
        <time>2021-08-05T10:06:57Z</time>
      </trkpt>
      <trkpt lat="45.40688" lon="3.31746">
        <ele>430.2</ele>
        <time>2021-08-05T10:06:59Z</time>
      </trkpt>
      <trkpt lat="45.40694" lon="3.31746">
        <ele>430.5</ele>
        <time>2021-08-05T10:07:01Z</time>
      </trkpt>
      <trkpt lat="45.407" lon="3.31746">
        <ele>430.8</ele>
        <time>2021-08-05T10:07:03Z</time>
      </trkpt>
      <trkpt lat="45.40705" lon="3.31746">
        <ele>431.1</ele>
        <time>2021-08-05T10:07:05Z</time>
      </trkpt>
      <trkpt lat="45.4071" lon="3.31745">
        <ele>431.3</ele>
        <time>2021-08-05T10:07:07Z</time>
      </trkpt>
      <trkpt lat="45.40716" lon="3.31743">
        <ele>431.7</ele>
        <time>2021-08-05T10:07:09Z</time>
      </trkpt>
      <trkpt lat="45.40721" lon="3.31742">
        <ele>432</ele>
        <time>2021-08-05T10:07:11Z</time>
      </trkpt>
      <trkpt lat="45.40726" lon="3.31742">
        <ele>432.2</ele>
        <time>2021-08-05T10:07:13Z</time>
      </trkpt>
      <trkpt lat="45.40731" lon="3.31741">
        <ele>432.5</ele>
        <time>2021-08-05T10:07:15Z</time>
      </trkpt>
      <trkpt lat="45.40735" lon="3.31739">
        <ele>432.7</ele>
        <time>2021-08-05T10:07:17Z</time>
      </trkpt>
      <trkpt lat="45.40739" lon="3.31738">
        <ele>432.9</ele>
        <time>2021-08-05T10:07:19Z</time>
      </trkpt>
      <trkpt lat="45.40742" lon="3.3174">
        <ele>433</ele>
        <time>2021-08-05T10:07:21Z</time>
      </trkpt>
      <trkpt lat="45.40743" lon="3.31737">
        <ele>433.2</ele>
        <time>2021-08-05T10:07:23Z</time>
      </trkpt>
      <trkpt lat="45.40743" lon="3.31738">
        <ele>433.1</ele>
        <time>2021-08-05T10:07:25Z</time>
      </trkpt>
      <trkpt lat="45.40743" lon="3.31738">
        <ele>433.2</ele>
        <time>2021-08-05T10:07:27Z</time>
      </trkpt>
      <trkpt lat="45.40744" lon="3.31737">
        <ele>433.2</ele>
        <time>2021-08-05T10:07:29Z</time>
      </trkpt>
      <trkpt lat="45.40744" lon="3.31737">
        <ele>433.2</ele>
        <time>2021-08-05T10:07:31Z</time>
      </trkpt>
      <trkpt lat="45.40758" lon="3.31736">
        <ele>433.8</ele>
        <time>2021-08-05T10:08:05Z</time>
      </trkpt>
      <trkpt lat="45.40763" lon="3.31733">
        <ele>434</ele>
        <time>2021-08-05T10:08:07Z</time>
      </trkpt>
      <trkpt lat="45.40769" lon="3.31732">
        <ele>434.3</ele>
        <time>2021-08-05T10:08:09Z</time>
      </trkpt>
      <trkpt lat="45.40775" lon="3.31732">
        <ele>434.5</ele>
        <time>2021-08-05T10:08:11Z</time>
      </trkpt>
      <trkpt lat="45.4078" lon="3.31733">
        <ele>434.6</ele>
        <time>2021-08-05T10:08:13Z</time>
      </trkpt>
      <trkpt lat="45.40785" lon="3.31732">
        <ele>434.8</ele>
        <time>2021-08-05T10:08:15Z</time>
      </trkpt>
      <trkpt lat="45.40791" lon="3.31732">
        <ele>435</ele>
        <time>2021-08-05T10:08:17Z</time>
      </trkpt>
      <trkpt lat="45.40796" lon="3.31732">
        <ele>435.2</ele>
        <time>2021-08-05T10:08:19Z</time>
      </trkpt>
      <trkpt lat="45.40801" lon="3.31733">
        <ele>435.3</ele>
        <time>2021-08-05T10:08:21Z</time>
      </trkpt>
      <trkpt lat="45.40807" lon="3.31733">
        <ele>435.5</ele>
        <time>2021-08-05T10:08:23Z</time>
      </trkpt>
      <trkpt lat="45.40812" lon="3.31732">
        <ele>435.7</ele>
        <time>2021-08-05T10:08:25Z</time>
      </trkpt>
      <trkpt lat="45.40818" lon="3.31732">
        <ele>435.9</ele>
        <time>2021-08-05T10:08:27Z</time>
      </trkpt>
      <trkpt lat="45.40824" lon="3.31732">
        <ele>436.1</ele>
        <time>2021-08-05T10:08:29Z</time>
      </trkpt>
      <trkpt lat="45.4083" lon="3.31732">
        <ele>436.3</ele>
        <time>2021-08-05T10:08:31Z</time>
      </trkpt>
      <trkpt lat="45.40836" lon="3.31732">
        <ele>436.5</ele>
        <time>2021-08-05T10:08:33Z</time>
      </trkpt>
      <trkpt lat="45.40843" lon="3.31732">
        <ele>436.6</ele>
        <time>2021-08-05T10:08:35Z</time>
      </trkpt>
      <trkpt lat="45.40848" lon="3.31732">
        <ele>436.7</ele>
        <time>2021-08-05T10:08:37Z</time>
      </trkpt>
      <trkpt lat="45.40854" lon="3.31732">
        <ele>436.8</ele>
        <time>2021-08-05T10:08:39Z</time>
      </trkpt>
      <trkpt lat="45.40861" lon="3.31733">
        <ele>436.9</ele>
        <time>2021-08-05T10:08:41Z</time>
      </trkpt>
      <trkpt lat="45.40868" lon="3.31734">
        <ele>437</ele>
        <time>2021-08-05T10:08:43Z</time>
      </trkpt>
      <trkpt lat="45.40877" lon="3.31736">
        <ele>437.1</ele>
        <time>2021-08-05T10:08:45Z</time>
      </trkpt>
      <trkpt lat="45.40885" lon="3.31736">
        <ele>437.2</ele>
        <time>2021-08-05T10:08:47Z</time>
      </trkpt>
      <trkpt lat="45.40892" lon="3.31738">
        <ele>437.3</ele>
        <time>2021-08-05T10:08:49Z</time>
      </trkpt>
      <trkpt lat="45.40899" lon="3.31738">
        <ele>437.4</ele>
        <time>2021-08-05T10:08:51Z</time>
      </trkpt>
      <trkpt lat="45.40907" lon="3.3174">
        <ele>437.5</ele>
        <time>2021-08-05T10:08:53Z</time>
      </trkpt>
      <trkpt lat="45.40916" lon="3.31741">
        <ele>437.5</ele>
        <time>2021-08-05T10:08:55Z</time>
      </trkpt>
      <trkpt lat="45.40923" lon="3.31742">
        <ele>437.6</ele>
        <time>2021-08-05T10:08:57Z</time>
      </trkpt>
      <trkpt lat="45.40931" lon="3.31743">
        <ele>437.7</ele>
        <time>2021-08-05T10:08:59Z</time>
      </trkpt>
      <trkpt lat="45.40939" lon="3.31744">
        <ele>437.9</ele>
        <time>2021-08-05T10:09:01Z</time>
      </trkpt>
      <trkpt lat="45.40947" lon="3.31744">
        <ele>438.1</ele>
        <time>2021-08-05T10:09:03Z</time>
      </trkpt>
      <trkpt lat="45.40954" lon="3.31744">
        <ele>438.3</ele>
        <time>2021-08-05T10:09:05Z</time>
      </trkpt>
      <trkpt lat="45.40961" lon="3.31744">
        <ele>438.4</ele>
        <time>2021-08-05T10:09:07Z</time>
      </trkpt>
      <trkpt lat="45.40968" lon="3.31744">
        <ele>438.6</ele>
        <time>2021-08-05T10:09:09Z</time>
      </trkpt>
      <trkpt lat="45.40976" lon="3.31744">
        <ele>438.8</ele>
        <time>2021-08-05T10:09:11Z</time>
      </trkpt>
      <trkpt lat="45.40984" lon="3.31744">
        <ele>439</ele>
        <time>2021-08-05T10:09:13Z</time>
      </trkpt>
      <trkpt lat="45.40992" lon="3.31745">
        <ele>439.1</ele>
        <time>2021-08-05T10:09:15Z</time>
      </trkpt>
      <trkpt lat="45.40999" lon="3.31744">
        <ele>439.3</ele>
        <time>2021-08-05T10:09:17Z</time>
      </trkpt>
      <trkpt lat="45.41007" lon="3.31744">
        <ele>439.3</ele>
        <time>2021-08-05T10:09:19Z</time>
      </trkpt>
      <trkpt lat="45.41015" lon="3.31745">
        <ele>439.1</ele>
        <time>2021-08-05T10:09:21Z</time>
      </trkpt>
      <trkpt lat="45.41023" lon="3.31746">
        <ele>439</ele>
        <time>2021-08-05T10:09:23Z</time>
      </trkpt>
      <trkpt lat="45.41031" lon="3.31746">
        <ele>438.9</ele>
        <time>2021-08-05T10:09:25Z</time>
      </trkpt>
      <trkpt lat="45.4104" lon="3.31746">
        <ele>438.8</ele>
        <time>2021-08-05T10:09:27Z</time>
      </trkpt>
      <trkpt lat="45.41047" lon="3.31746">
        <ele>438.7</ele>
        <time>2021-08-05T10:09:29Z</time>
      </trkpt>
      <trkpt lat="45.41056" lon="3.31747">
        <ele>438.6</ele>
        <time>2021-08-05T10:09:31Z</time>
      </trkpt>
      <trkpt lat="45.41063" lon="3.31747">
        <ele>438.5</ele>
        <time>2021-08-05T10:09:33Z</time>
      </trkpt>
      <trkpt lat="45.4107" lon="3.31747">
        <ele>438.4</ele>
        <time>2021-08-05T10:09:35Z</time>
      </trkpt>
      <trkpt lat="45.41078" lon="3.31748">
        <ele>438.3</ele>
        <time>2021-08-05T10:09:37Z</time>
      </trkpt>
      <trkpt lat="45.41086" lon="3.31747">
        <ele>438.3</ele>
        <time>2021-08-05T10:09:39Z</time>
      </trkpt>
      <trkpt lat="45.41094" lon="3.31747">
        <ele>438.3</ele>
        <time>2021-08-05T10:09:41Z</time>
      </trkpt>
      <trkpt lat="45.41101" lon="3.31748">
        <ele>438.2</ele>
        <time>2021-08-05T10:09:43Z</time>
      </trkpt>
      <trkpt lat="45.4111" lon="3.31749">
        <ele>438.1</ele>
        <time>2021-08-05T10:09:45Z</time>
      </trkpt>
      <trkpt lat="45.41118" lon="3.31749">
        <ele>438.1</ele>
        <time>2021-08-05T10:09:47Z</time>
      </trkpt>
      <trkpt lat="45.41126" lon="3.31749">
        <ele>438.1</ele>
        <time>2021-08-05T10:09:49Z</time>
      </trkpt>
      <trkpt lat="45.41135" lon="3.31749">
        <ele>438.1</ele>
        <time>2021-08-05T10:09:51Z</time>
      </trkpt>
      <trkpt lat="45.41143" lon="3.31749">
        <ele>438.1</ele>
        <time>2021-08-05T10:09:53Z</time>
      </trkpt>
      <trkpt lat="45.41152" lon="3.31749">
        <ele>438.1</ele>
        <time>2021-08-05T10:09:55Z</time>
      </trkpt>
      <trkpt lat="45.4116" lon="3.31749">
        <ele>438.2</ele>
        <time>2021-08-05T10:09:57Z</time>
      </trkpt>
      <trkpt lat="45.41168" lon="3.31748">
        <ele>438.3</ele>
        <time>2021-08-05T10:09:59Z</time>
      </trkpt>
      <trkpt lat="45.41176" lon="3.31748">
        <ele>438.2</ele>
        <time>2021-08-05T10:10:01Z</time>
      </trkpt>
      <trkpt lat="45.41184" lon="3.31747">
        <ele>438.3</ele>
        <time>2021-08-05T10:10:03Z</time>
      </trkpt>
      <trkpt lat="45.41193" lon="3.31746">
        <ele>438.3</ele>
        <time>2021-08-05T10:10:05Z</time>
      </trkpt>
      <trkpt lat="45.41202" lon="3.31744">
        <ele>438.4</ele>
        <time>2021-08-05T10:10:07Z</time>
      </trkpt>
      <trkpt lat="45.41212" lon="3.31744">
        <ele>438.3</ele>
        <time>2021-08-05T10:10:09Z</time>
      </trkpt>
      <trkpt lat="45.41222" lon="3.31743">
        <ele>438.3</ele>
        <time>2021-08-05T10:10:11Z</time>
      </trkpt>
      <trkpt lat="45.4123" lon="3.31741">
        <ele>438.6</ele>
        <time>2021-08-05T10:10:13Z</time>
      </trkpt>
      <trkpt lat="45.41237" lon="3.31741">
        <ele>438.4</ele>
        <time>2021-08-05T10:10:15Z</time>
      </trkpt>
      <trkpt lat="45.41244" lon="3.31742">
        <ele>438.1</ele>
        <time>2021-08-05T10:10:17Z</time>
      </trkpt>
      <trkpt lat="45.4125" lon="3.31749">
        <ele>437.1</ele>
        <time>2021-08-05T10:10:19Z</time>
      </trkpt>
      <trkpt lat="45.41254" lon="3.31762">
        <ele>435.7</ele>
        <time>2021-08-05T10:10:21Z</time>
      </trkpt>
      <trkpt lat="45.41258" lon="3.31776">
        <ele>434.3</ele>
        <time>2021-08-05T10:10:23Z</time>
      </trkpt>
      <trkpt lat="45.41261" lon="3.31792">
        <ele>432.8</ele>
        <time>2021-08-05T10:10:25Z</time>
      </trkpt>
      <trkpt lat="45.41264" lon="3.31808">
        <ele>431.4</ele>
        <time>2021-08-05T10:10:27Z</time>
      </trkpt>
      <trkpt lat="45.41267" lon="3.31824">
        <ele>430</ele>
        <time>2021-08-05T10:10:29Z</time>
      </trkpt>
      <trkpt lat="45.4127" lon="3.31839">
        <ele>428.8</ele>
        <time>2021-08-05T10:10:31Z</time>
      </trkpt>
      <trkpt lat="45.41273" lon="3.31853">
        <ele>428</ele>
        <time>2021-08-05T10:10:33Z</time>
      </trkpt>
      <trkpt lat="45.41274" lon="3.31864">
        <ele>427.4</ele>
        <time>2021-08-05T10:10:35Z</time>
      </trkpt>
      <trkpt lat="45.41274" lon="3.31874">
        <ele>427.1</ele>
        <time>2021-08-05T10:10:37Z</time>
      </trkpt>
      <trkpt lat="45.41275" lon="3.3188">
        <ele>426.7</ele>
        <time>2021-08-05T10:10:39Z</time>
      </trkpt>
      <trkpt lat="45.41276" lon="3.31883">
        <ele>426.5</ele>
        <time>2021-08-05T10:10:41Z</time>
      </trkpt>
      <trkpt lat="45.41277" lon="3.31887">
        <ele>426.4</ele>
        <time>2021-08-05T10:10:43Z</time>
      </trkpt>
      <trkpt lat="45.41279" lon="3.3189">
        <ele>426.1</ele>
        <time>2021-08-05T10:10:45Z</time>
      </trkpt>
      <trkpt lat="45.41284" lon="3.31889">
        <ele>426</ele>
        <time>2021-08-05T10:10:47Z</time>
      </trkpt>
      <trkpt lat="45.41288" lon="3.31883">
        <ele>426</ele>
        <time>2021-08-05T10:10:49Z</time>
      </trkpt>
      <trkpt lat="45.41294" lon="3.31884">
        <ele>425.8</ele>
        <time>2021-08-05T10:10:51Z</time>
      </trkpt>
      <trkpt lat="45.41298" lon="3.31885">
        <ele>425.6</ele>
        <time>2021-08-05T10:10:53Z</time>
      </trkpt>
      <trkpt lat="45.41303" lon="3.31884">
        <ele>425.4</ele>
        <time>2021-08-05T10:10:55Z</time>
      </trkpt>
      <trkpt lat="45.41307" lon="3.31881">
        <ele>425.4</ele>
        <time>2021-08-05T10:10:57Z</time>
      </trkpt>
      <trkpt lat="45.41311" lon="3.31879">
        <ele>425.3</ele>
        <time>2021-08-05T10:10:59Z</time>
      </trkpt>
      <trkpt lat="45.41315" lon="3.31877">
        <ele>425.2</ele>
        <time>2021-08-05T10:11:01Z</time>
      </trkpt>
      <trkpt lat="45.41317" lon="3.31874">
        <ele>425.2</ele>
        <time>2021-08-05T10:11:03Z</time>
      </trkpt>
      <trkpt lat="45.41319" lon="3.31873">
        <ele>425.2</ele>
        <time>2021-08-05T10:11:05Z</time>
      </trkpt>
      <trkpt lat="45.4132" lon="3.31873">
        <ele>425.1</ele>
        <time>2021-08-05T10:11:07Z</time>
      </trkpt>
      <trkpt lat="45.4132" lon="3.31873">
        <ele>425.1</ele>
        <time>2021-08-05T10:11:09Z</time>
      </trkpt>
      <trkpt lat="45.41321" lon="3.31876">
        <ele>425</ele>
        <time>2021-08-05T10:11:11Z</time>
      </trkpt>
      <trkpt lat="45.41321" lon="3.31875">
        <ele>425</ele>
        <time>2021-08-05T10:11:13Z</time>
      </trkpt>
      <trkpt lat="45.41321" lon="3.31875">
        <ele>425</ele>
        <time>2021-08-05T10:11:15Z</time>
      </trkpt>
      <trkpt lat="45.41275" lon="3.31857">
        <ele>427.7</ele>
        <time>2021-08-05T11:17:12Z</time>
      </trkpt>
      <trkpt lat="45.41274" lon="3.31851">
        <ele>428</ele>
        <time>2021-08-05T11:17:14Z</time>
      </trkpt>
      <trkpt lat="45.41273" lon="3.31845">
        <ele>428.4</ele>
        <time>2021-08-05T11:17:16Z</time>
      </trkpt>
      <trkpt lat="45.41272" lon="3.31839">
        <ele>428.7</ele>
        <time>2021-08-05T11:17:18Z</time>
      </trkpt>
      <trkpt lat="45.41271" lon="3.31833">
        <ele>429</ele>
        <time>2021-08-05T11:17:20Z</time>
      </trkpt>
      <trkpt lat="45.4127" lon="3.31826">
        <ele>429.6</ele>
        <time>2021-08-05T11:17:22Z</time>
      </trkpt>
      <trkpt lat="45.41269" lon="3.3182">
        <ele>430.1</ele>
        <time>2021-08-05T11:17:24Z</time>
      </trkpt>
      <trkpt lat="45.41269" lon="3.31814">
        <ele>430.6</ele>
        <time>2021-08-05T11:17:26Z</time>
      </trkpt>
      <trkpt lat="45.41267" lon="3.31808">
        <ele>431.2</ele>
        <time>2021-08-05T11:17:28Z</time>
      </trkpt>
      <trkpt lat="45.41266" lon="3.31802">
        <ele>431.7</ele>
        <time>2021-08-05T11:17:30Z</time>
      </trkpt>
      <trkpt lat="45.41265" lon="3.31797">
        <ele>432.2</ele>
        <time>2021-08-05T11:17:32Z</time>
      </trkpt>
      <trkpt lat="45.41263" lon="3.31792">
        <ele>432.7</ele>
        <time>2021-08-05T11:17:34Z</time>
      </trkpt>
      <trkpt lat="45.41262" lon="3.31786">
        <ele>433.2</ele>
        <time>2021-08-05T11:17:36Z</time>
      </trkpt>
      <trkpt lat="45.41261" lon="3.31781">
        <ele>433.7</ele>
        <time>2021-08-05T11:17:38Z</time>
      </trkpt>
      <trkpt lat="45.4126" lon="3.31775">
        <ele>434.2</ele>
        <time>2021-08-05T11:17:40Z</time>
      </trkpt>
      <trkpt lat="45.41259" lon="3.3177">
        <ele>434.7</ele>
        <time>2021-08-05T11:17:42Z</time>
      </trkpt>
      <trkpt lat="45.41258" lon="3.31765">
        <ele>435.2</ele>
        <time>2021-08-05T11:17:44Z</time>
      </trkpt>
      <trkpt lat="45.41256" lon="3.3176">
        <ele>435.8</ele>
        <time>2021-08-05T11:17:46Z</time>
      </trkpt>
      <trkpt lat="45.41254" lon="3.31754">
        <ele>436.4</ele>
        <time>2021-08-05T11:17:48Z</time>
      </trkpt>
      <trkpt lat="45.41252" lon="3.31749">
        <ele>437</ele>
        <time>2021-08-05T11:17:50Z</time>
      </trkpt>
      <trkpt lat="45.4125" lon="3.31746">
        <ele>437.6</ele>
        <time>2021-08-05T11:17:52Z</time>
      </trkpt>
      <trkpt lat="45.41247" lon="3.31742">
        <ele>438.1</ele>
        <time>2021-08-05T11:17:54Z</time>
      </trkpt>
      <trkpt lat="45.41244" lon="3.3174">
        <ele>438.4</ele>
        <time>2021-08-05T11:17:56Z</time>
      </trkpt>
      <trkpt lat="45.4124" lon="3.31737">
        <ele>438.8</ele>
        <time>2021-08-05T11:17:58Z</time>
      </trkpt>
      <trkpt lat="45.41236" lon="3.31737">
        <ele>438.9</ele>
        <time>2021-08-05T11:18:00Z</time>
      </trkpt>
      <trkpt lat="45.41234" lon="3.31737">
        <ele>439</ele>
        <time>2021-08-05T11:18:02Z</time>
      </trkpt>
      <trkpt lat="45.41234" lon="3.31737">
        <ele>439</ele>
        <time>2021-08-05T11:18:04Z</time>
      </trkpt>
      <trkpt lat="45.41234" lon="3.31737">
        <ele>439</ele>
        <time>2021-08-05T11:18:06Z</time>
      </trkpt>
      <trkpt lat="45.41234" lon="3.31737">
        <ele>439</ele>
        <time>2021-08-05T11:18:08Z</time>
      </trkpt>
      <trkpt lat="45.41234" lon="3.31738">
        <ele>438.9</ele>
        <time>2021-08-05T11:18:10Z</time>
      </trkpt>
      <trkpt lat="45.41234" lon="3.31738">
        <ele>438.9</ele>
        <time>2021-08-05T11:18:12Z</time>
      </trkpt>
      <trkpt lat="45.41219" lon="3.31741">
        <ele>438.6</ele>
        <time>2021-08-05T11:19:22Z</time>
      </trkpt>
      <trkpt lat="45.41215" lon="3.31742">
        <ele>438.6</ele>
        <time>2021-08-05T11:19:24Z</time>
      </trkpt>
      <trkpt lat="45.4121" lon="3.31743">
        <ele>438.5</ele>
        <time>2021-08-05T11:19:26Z</time>
      </trkpt>
      <trkpt lat="45.41205" lon="3.31744">
        <ele>438.5</ele>
        <time>2021-08-05T11:19:28Z</time>
      </trkpt>
      <trkpt lat="45.412" lon="3.31745">
        <ele>438.4</ele>
        <time>2021-08-05T11:19:30Z</time>
      </trkpt>
      <trkpt lat="45.41195" lon="3.31747">
        <ele>438.2</ele>
        <time>2021-08-05T11:19:32Z</time>
      </trkpt>
      <trkpt lat="45.41189" lon="3.31748">
        <ele>438.1</ele>
        <time>2021-08-05T11:19:34Z</time>
      </trkpt>
      <trkpt lat="45.41183" lon="3.31748">
        <ele>438.1</ele>
        <time>2021-08-05T11:19:36Z</time>
      </trkpt>
      <trkpt lat="45.41177" lon="3.31749">
        <ele>438.1</ele>
        <time>2021-08-05T11:19:38Z</time>
      </trkpt>
      <trkpt lat="45.41171" lon="3.31749">
        <ele>438.1</ele>
        <time>2021-08-05T11:19:40Z</time>
      </trkpt>
      <trkpt lat="45.41165" lon="3.31748">
        <ele>438.3</ele>
        <time>2021-08-05T11:19:42Z</time>
      </trkpt>
      <trkpt lat="45.41158" lon="3.31749">
        <ele>438.2</ele>
        <time>2021-08-05T11:19:44Z</time>
      </trkpt>
      <trkpt lat="45.41151" lon="3.31749">
        <ele>438.2</ele>
        <time>2021-08-05T11:19:46Z</time>
      </trkpt>
      <trkpt lat="45.41144" lon="3.31749">
        <ele>438.1</ele>
        <time>2021-08-05T11:19:48Z</time>
      </trkpt>
      <trkpt lat="45.41136" lon="3.31748">
        <ele>438.2</ele>
        <time>2021-08-05T11:19:50Z</time>
      </trkpt>
      <trkpt lat="45.41129" lon="3.31749">
        <ele>438.2</ele>
        <time>2021-08-05T11:19:52Z</time>
      </trkpt>
      <trkpt lat="45.41122" lon="3.31749">
        <ele>438.2</ele>
        <time>2021-08-05T11:19:54Z</time>
      </trkpt>
      <trkpt lat="45.41114" lon="3.31748">
        <ele>438.2</ele>
        <time>2021-08-05T11:19:56Z</time>
      </trkpt>
      <trkpt lat="45.41108" lon="3.31748">
        <ele>438.2</ele>
        <time>2021-08-05T11:19:58Z</time>
      </trkpt>
      <trkpt lat="45.41101" lon="3.31748">
        <ele>438.2</ele>
        <time>2021-08-05T11:20:00Z</time>
      </trkpt>
      <trkpt lat="45.41093" lon="3.31747">
        <ele>438.3</ele>
        <time>2021-08-05T11:20:02Z</time>
      </trkpt>
      <trkpt lat="45.41086" lon="3.31747">
        <ele>438.3</ele>
        <time>2021-08-05T11:20:04Z</time>
      </trkpt>
      <trkpt lat="45.41078" lon="3.31746">
        <ele>438.4</ele>
        <time>2021-08-05T11:20:06Z</time>
      </trkpt>
      <trkpt lat="45.41071" lon="3.31746">
        <ele>438.5</ele>
        <time>2021-08-05T11:20:08Z</time>
      </trkpt>
      <trkpt lat="45.41063" lon="3.31746">
        <ele>438.6</ele>
        <time>2021-08-05T11:20:10Z</time>
      </trkpt>
      <trkpt lat="45.41055" lon="3.31746">
        <ele>438.7</ele>
        <time>2021-08-05T11:20:12Z</time>
      </trkpt>
      <trkpt lat="45.41047" lon="3.31745">
        <ele>438.8</ele>
        <time>2021-08-05T11:20:14Z</time>
      </trkpt>
      <trkpt lat="45.41038" lon="3.31745">
        <ele>438.9</ele>
        <time>2021-08-05T11:20:16Z</time>
      </trkpt>
      <trkpt lat="45.41029" lon="3.31746">
        <ele>438.9</ele>
        <time>2021-08-05T11:20:18Z</time>
      </trkpt>
      <trkpt lat="45.41021" lon="3.31745">
        <ele>439.1</ele>
        <time>2021-08-05T11:20:20Z</time>
      </trkpt>
      <trkpt lat="45.41011" lon="3.31744">
        <ele>439.2</ele>
        <time>2021-08-05T11:20:22Z</time>
      </trkpt>
      <trkpt lat="45.41002" lon="3.31743">
        <ele>439.4</ele>
        <time>2021-08-05T11:20:24Z</time>
      </trkpt>
      <trkpt lat="45.40993" lon="3.31743">
        <ele>439.2</ele>
        <time>2021-08-05T11:20:26Z</time>
      </trkpt>
      <trkpt lat="45.40983" lon="3.31743">
        <ele>439</ele>
        <time>2021-08-05T11:20:28Z</time>
      </trkpt>
      <trkpt lat="45.40973" lon="3.31743">
        <ele>438.8</ele>
        <time>2021-08-05T11:20:30Z</time>
      </trkpt>
      <trkpt lat="45.40963" lon="3.31743">
        <ele>438.5</ele>
        <time>2021-08-05T11:20:32Z</time>
      </trkpt>
      <trkpt lat="45.40952" lon="3.31743">
        <ele>438.3</ele>
        <time>2021-08-05T11:20:34Z</time>
      </trkpt>
      <trkpt lat="45.40942" lon="3.31742">
        <ele>438.1</ele>
        <time>2021-08-05T11:20:36Z</time>
      </trkpt>
      <trkpt lat="45.40931" lon="3.31742">
        <ele>437.8</ele>
        <time>2021-08-05T11:20:38Z</time>
      </trkpt>
      <trkpt lat="45.4092" lon="3.31741">
        <ele>437.6</ele>
        <time>2021-08-05T11:20:40Z</time>
      </trkpt>
      <trkpt lat="45.40909" lon="3.31739">
        <ele>437.6</ele>
        <time>2021-08-05T11:20:42Z</time>
      </trkpt>
      <trkpt lat="45.40899" lon="3.31737">
        <ele>437.5</ele>
        <time>2021-08-05T11:20:44Z</time>
      </trkpt>
      <trkpt lat="45.40888" lon="3.31735">
        <ele>437.4</ele>
        <time>2021-08-05T11:20:46Z</time>
      </trkpt>
      <trkpt lat="45.40878" lon="3.31734">
        <ele>437.2</ele>
        <time>2021-08-05T11:20:48Z</time>
      </trkpt>
      <trkpt lat="45.40867" lon="3.31732">
        <ele>437.1</ele>
        <time>2021-08-05T11:20:50Z</time>
      </trkpt>
      <trkpt lat="45.40856" lon="3.31731">
        <ele>436.9</ele>
        <time>2021-08-05T11:20:52Z</time>
      </trkpt>
      <trkpt lat="45.40845" lon="3.31731">
        <ele>436.7</ele>
        <time>2021-08-05T11:20:54Z</time>
      </trkpt>
      <trkpt lat="45.40834" lon="3.31731">
        <ele>436.5</ele>
        <time>2021-08-05T11:20:56Z</time>
      </trkpt>
      <trkpt lat="45.40823" lon="3.31732">
        <ele>436.1</ele>
        <time>2021-08-05T11:20:58Z</time>
      </trkpt>
      <trkpt lat="45.40811" lon="3.31732">
        <ele>435.7</ele>
        <time>2021-08-05T11:21:00Z</time>
      </trkpt>
      <trkpt lat="45.408" lon="3.31732">
        <ele>435.3</ele>
        <time>2021-08-05T11:21:02Z</time>
      </trkpt>
      <trkpt lat="45.40788" lon="3.31732">
        <ele>434.9</ele>
        <time>2021-08-05T11:21:04Z</time>
      </trkpt>
      <trkpt lat="45.40777" lon="3.31733">
        <ele>434.5</ele>
        <time>2021-08-05T11:21:06Z</time>
      </trkpt>
      <trkpt lat="45.40765" lon="3.31733">
        <ele>434.1</ele>
        <time>2021-08-05T11:21:08Z</time>
      </trkpt>
      <trkpt lat="45.40756" lon="3.31734">
        <ele>433.8</ele>
        <time>2021-08-05T11:21:10Z</time>
      </trkpt>
      <trkpt lat="45.40752" lon="3.31731">
        <ele>433.7</ele>
        <time>2021-08-05T11:21:12Z</time>
      </trkpt>
      <trkpt lat="45.4075" lon="3.31729">
        <ele>433.8</ele>
        <time>2021-08-05T11:21:14Z</time>
      </trkpt>
      <trkpt lat="45.4075" lon="3.31729">
        <ele>433.8</ele>
        <time>2021-08-05T11:21:16Z</time>
      </trkpt>
      <trkpt lat="45.4075" lon="3.31729">
        <ele>433.8</ele>
        <time>2021-08-05T11:21:18Z</time>
      </trkpt>
      <trkpt lat="45.40749" lon="3.31729">
        <ele>433.7</ele>
        <time>2021-08-05T11:21:20Z</time>
      </trkpt>
      <trkpt lat="45.40747" lon="3.31728">
        <ele>433.6</ele>
        <time>2021-08-05T11:21:22Z</time>
      </trkpt>
      <trkpt lat="45.40743" lon="3.31731">
        <ele>433.4</ele>
        <time>2021-08-05T11:21:24Z</time>
      </trkpt>
      <trkpt lat="45.40737" lon="3.31737">
        <ele>432.9</ele>
        <time>2021-08-05T11:21:26Z</time>
      </trkpt>
      <trkpt lat="45.40728" lon="3.3174">
        <ele>432.3</ele>
        <time>2021-08-05T11:21:28Z</time>
      </trkpt>
      <trkpt lat="45.40717" lon="3.31742">
        <ele>431.8</ele>
        <time>2021-08-05T11:21:30Z</time>
      </trkpt>
      <trkpt lat="45.40707" lon="3.31744">
        <ele>431.2</ele>
        <time>2021-08-05T11:21:32Z</time>
      </trkpt>
      <trkpt lat="45.40696" lon="3.31745">
        <ele>430.7</ele>
        <time>2021-08-05T11:21:34Z</time>
      </trkpt>
      <trkpt lat="45.40685" lon="3.31746">
        <ele>430.1</ele>
        <time>2021-08-05T11:21:36Z</time>
      </trkpt>
      <trkpt lat="45.40673" lon="3.31746">
        <ele>429.6</ele>
        <time>2021-08-05T11:21:38Z</time>
      </trkpt>
      <trkpt lat="45.40661" lon="3.31746">
        <ele>429.2</ele>
        <time>2021-08-05T11:21:40Z</time>
      </trkpt>
      <trkpt lat="45.40649" lon="3.31747">
        <ele>429.2</ele>
        <time>2021-08-05T11:21:42Z</time>
      </trkpt>
      <trkpt lat="45.40638" lon="3.31748">
        <ele>429.1</ele>
        <time>2021-08-05T11:21:44Z</time>
      </trkpt>
      <trkpt lat="45.40625" lon="3.31752">
        <ele>428.9</ele>
        <time>2021-08-05T11:21:46Z</time>
      </trkpt>
      <trkpt lat="45.40612" lon="3.31755">
        <ele>428.8</ele>
        <time>2021-08-05T11:21:48Z</time>
      </trkpt>
      <trkpt lat="45.406" lon="3.31761">
        <ele>428.5</ele>
        <time>2021-08-05T11:21:50Z</time>
      </trkpt>
      <trkpt lat="45.40589" lon="3.31765">
        <ele>428.3</ele>
        <time>2021-08-05T11:21:52Z</time>
      </trkpt>
      <trkpt lat="45.40577" lon="3.31771">
        <ele>428.2</ele>
        <time>2021-08-05T11:21:54Z</time>
      </trkpt>
      <trkpt lat="45.40567" lon="3.31776">
        <ele>428.5</ele>
        <time>2021-08-05T11:21:56Z</time>
      </trkpt>
      <trkpt lat="45.40558" lon="3.31782">
        <ele>428.6</ele>
        <time>2021-08-05T11:21:58Z</time>
      </trkpt>
      <trkpt lat="45.40552" lon="3.31787">
        <ele>428.7</ele>
        <time>2021-08-05T11:22:00Z</time>
      </trkpt>
      <trkpt lat="45.40545" lon="3.3179">
        <ele>428.9</ele>
        <time>2021-08-05T11:22:02Z</time>
      </trkpt>
      <trkpt lat="45.40537" lon="3.31796">
        <ele>429.1</ele>
        <time>2021-08-05T11:22:04Z</time>
      </trkpt>
      <trkpt lat="45.40532" lon="3.31802">
        <ele>429.1</ele>
        <time>2021-08-05T11:22:06Z</time>
      </trkpt>
      <trkpt lat="45.40528" lon="3.31804">
        <ele>429.3</ele>
        <time>2021-08-05T11:22:08Z</time>
      </trkpt>
      <trkpt lat="45.40526" lon="3.31804">
        <ele>429.3</ele>
        <time>2021-08-05T11:22:10Z</time>
      </trkpt>
      <trkpt lat="45.40523" lon="3.31807">
        <ele>429.5</ele>
        <time>2021-08-05T11:22:12Z</time>
      </trkpt>
      <trkpt lat="45.40519" lon="3.31812">
        <ele>429.5</ele>
        <time>2021-08-05T11:22:14Z</time>
      </trkpt>
      <trkpt lat="45.40516" lon="3.31817">
        <ele>429.5</ele>
        <time>2021-08-05T11:22:16Z</time>
      </trkpt>
      <trkpt lat="45.40517" lon="3.31826">
        <ele>429.2</ele>
        <time>2021-08-05T11:22:18Z</time>
      </trkpt>
      <trkpt lat="45.4052" lon="3.31835">
        <ele>428.8</ele>
        <time>2021-08-05T11:22:20Z</time>
      </trkpt>
      <trkpt lat="45.40524" lon="3.31846">
        <ele>428.2</ele>
        <time>2021-08-05T11:22:22Z</time>
      </trkpt>
      <trkpt lat="45.40531" lon="3.31856">
        <ele>427.6</ele>
        <time>2021-08-05T11:22:24Z</time>
      </trkpt>
      <trkpt lat="45.40538" lon="3.31867">
        <ele>426.9</ele>
        <time>2021-08-05T11:22:26Z</time>
      </trkpt>
      <trkpt lat="45.40546" lon="3.31877">
        <ele>426.2</ele>
        <time>2021-08-05T11:22:28Z</time>
      </trkpt>
      <trkpt lat="45.40553" lon="3.31888">
        <ele>425.5</ele>
        <time>2021-08-05T11:22:30Z</time>
      </trkpt>
      <trkpt lat="45.40561" lon="3.319">
        <ele>424.7</ele>
        <time>2021-08-05T11:22:32Z</time>
      </trkpt>
      <trkpt lat="45.40569" lon="3.31913">
        <ele>423.9</ele>
        <time>2021-08-05T11:22:34Z</time>
      </trkpt>
      <trkpt lat="45.40577" lon="3.31927">
        <ele>423.2</ele>
        <time>2021-08-05T11:22:36Z</time>
      </trkpt>
      <trkpt lat="45.40584" lon="3.31941">
        <ele>422.7</ele>
        <time>2021-08-05T11:22:38Z</time>
      </trkpt>
      <trkpt lat="45.40592" lon="3.31954">
        <ele>422.4</ele>
        <time>2021-08-05T11:22:40Z</time>
      </trkpt>
      <trkpt lat="45.40598" lon="3.31969">
        <ele>422.1</ele>
        <time>2021-08-05T11:22:42Z</time>
      </trkpt>
      <trkpt lat="45.40605" lon="3.31984">
        <ele>421.7</ele>
        <time>2021-08-05T11:22:44Z</time>
      </trkpt>
      <trkpt lat="45.4061" lon="3.32001">
        <ele>421.4</ele>
        <time>2021-08-05T11:22:46Z</time>
      </trkpt>
      <trkpt lat="45.40616" lon="3.32015">
        <ele>421.1</ele>
        <time>2021-08-05T11:22:48Z</time>
      </trkpt>
      <trkpt lat="45.40621" lon="3.3203">
        <ele>420.8</ele>
        <time>2021-08-05T11:22:50Z</time>
      </trkpt>
      <trkpt lat="45.40625" lon="3.32044">
        <ele>420.5</ele>
        <time>2021-08-05T11:22:52Z</time>
      </trkpt>
      <trkpt lat="45.40628" lon="3.32058">
        <ele>420.2</ele>
        <time>2021-08-05T11:22:54Z</time>
      </trkpt>
      <trkpt lat="45.40632" lon="3.32073">
        <ele>419.8</ele>
        <time>2021-08-05T11:22:56Z</time>
      </trkpt>
      <trkpt lat="45.40635" lon="3.32088">
        <ele>419.5</ele>
        <time>2021-08-05T11:22:58Z</time>
      </trkpt>
      <trkpt lat="45.40638" lon="3.32104">
        <ele>419.3</ele>
        <time>2021-08-05T11:23:00Z</time>
      </trkpt>
      <trkpt lat="45.4064" lon="3.32121">
        <ele>419.2</ele>
        <time>2021-08-05T11:23:02Z</time>
      </trkpt>
      <trkpt lat="45.40641" lon="3.32138">
        <ele>419</ele>
        <time>2021-08-05T11:23:04Z</time>
      </trkpt>
      <trkpt lat="45.40642" lon="3.32155">
        <ele>418.9</ele>
        <time>2021-08-05T11:23:06Z</time>
      </trkpt>
      <trkpt lat="45.40644" lon="3.32172">
        <ele>418.7</ele>
        <time>2021-08-05T11:23:08Z</time>
      </trkpt>
      <trkpt lat="45.40645" lon="3.3219">
        <ele>418.2</ele>
        <time>2021-08-05T11:23:10Z</time>
      </trkpt>
      <trkpt lat="45.40647" lon="3.32207">
        <ele>417.7</ele>
        <time>2021-08-05T11:23:12Z</time>
      </trkpt>
      <trkpt lat="45.40648" lon="3.32225">
        <ele>417.3</ele>
        <time>2021-08-05T11:23:14Z</time>
      </trkpt>
      <trkpt lat="45.4065" lon="3.32243">
        <ele>416.8</ele>
        <time>2021-08-05T11:23:16Z</time>
      </trkpt>
      <trkpt lat="45.40653" lon="3.32263">
        <ele>416.2</ele>
        <time>2021-08-05T11:23:18Z</time>
      </trkpt>
      <trkpt lat="45.40657" lon="3.32281">
        <ele>415.4</ele>
        <time>2021-08-05T11:23:20Z</time>
      </trkpt>
      <trkpt lat="45.40664" lon="3.323">
        <ele>414.4</ele>
        <time>2021-08-05T11:23:22Z</time>
      </trkpt>
      <trkpt lat="45.40672" lon="3.32317">
        <ele>413.5</ele>
        <time>2021-08-05T11:23:24Z</time>
      </trkpt>
      <trkpt lat="45.40681" lon="3.32333">
        <ele>412.7</ele>
        <time>2021-08-05T11:23:26Z</time>
      </trkpt>
      <trkpt lat="45.4069" lon="3.32351">
        <ele>412.1</ele>
        <time>2021-08-05T11:23:28Z</time>
      </trkpt>
      <trkpt lat="45.40698" lon="3.32369">
        <ele>411.5</ele>
        <time>2021-08-05T11:23:30Z</time>
      </trkpt>
      <trkpt lat="45.40706" lon="3.32384">
        <ele>410.9</ele>
        <time>2021-08-05T11:23:32Z</time>
      </trkpt>
      <trkpt lat="45.40714" lon="3.32401">
        <ele>410.1</ele>
        <time>2021-08-05T11:23:34Z</time>
      </trkpt>
      <trkpt lat="45.40722" lon="3.32416">
        <ele>409.3</ele>
        <time>2021-08-05T11:23:36Z</time>
      </trkpt>
      <trkpt lat="45.40732" lon="3.32434">
        <ele>408.5</ele>
        <time>2021-08-05T11:23:38Z</time>
      </trkpt>
      <trkpt lat="45.40739" lon="3.32451">
        <ele>407.9</ele>
        <time>2021-08-05T11:23:40Z</time>
      </trkpt>
      <trkpt lat="45.40746" lon="3.32465">
        <ele>407.5</ele>
        <time>2021-08-05T11:23:42Z</time>
      </trkpt>
      <trkpt lat="45.40753" lon="3.32479">
        <ele>407.3</ele>
        <time>2021-08-05T11:23:44Z</time>
      </trkpt>
      <trkpt lat="45.40759" lon="3.32491">
        <ele>407.1</ele>
        <time>2021-08-05T11:23:46Z</time>
      </trkpt>
      <trkpt lat="45.40765" lon="3.32504">
        <ele>406.8</ele>
        <time>2021-08-05T11:23:48Z</time>
      </trkpt>
      <trkpt lat="45.40771" lon="3.32517">
        <ele>406</ele>
        <time>2021-08-05T11:23:50Z</time>
      </trkpt>
      <trkpt lat="45.40777" lon="3.32529">
        <ele>405.4</ele>
        <time>2021-08-05T11:23:52Z</time>
      </trkpt>
      <trkpt lat="45.40783" lon="3.32541">
        <ele>404.7</ele>
        <time>2021-08-05T11:23:54Z</time>
      </trkpt>
      <trkpt lat="45.40789" lon="3.32552">
        <ele>404.1</ele>
        <time>2021-08-05T11:23:56Z</time>
      </trkpt>
      <trkpt lat="45.40794" lon="3.32563">
        <ele>403.6</ele>
        <time>2021-08-05T11:23:58Z</time>
      </trkpt>
      <trkpt lat="45.408" lon="3.32574">
        <ele>403.1</ele>
        <time>2021-08-05T11:24:00Z</time>
      </trkpt>
      <trkpt lat="45.40806" lon="3.32586">
        <ele>402.6</ele>
        <time>2021-08-05T11:24:02Z</time>
      </trkpt>
      <trkpt lat="45.40812" lon="3.326">
        <ele>402.5</ele>
        <time>2021-08-05T11:24:04Z</time>
      </trkpt>
      <trkpt lat="45.40819" lon="3.32613">
        <ele>402.4</ele>
        <time>2021-08-05T11:24:06Z</time>
      </trkpt>
      <trkpt lat="45.40826" lon="3.32626">
        <ele>402.4</ele>
        <time>2021-08-05T11:24:08Z</time>
      </trkpt>
      <trkpt lat="45.40832" lon="3.32639">
        <ele>402.3</ele>
        <time>2021-08-05T11:24:10Z</time>
      </trkpt>
      <trkpt lat="45.40839" lon="3.32652">
        <ele>402.1</ele>
        <time>2021-08-05T11:24:12Z</time>
      </trkpt>
      <trkpt lat="45.40846" lon="3.32665">
        <ele>401.9</ele>
        <time>2021-08-05T11:24:14Z</time>
      </trkpt>
      <trkpt lat="45.40852" lon="3.32677">
        <ele>401.6</ele>
        <time>2021-08-05T11:24:16Z</time>
      </trkpt>
      <trkpt lat="45.40858" lon="3.3269">
        <ele>401.4</ele>
        <time>2021-08-05T11:24:18Z</time>
      </trkpt>
      <trkpt lat="45.40858" lon="3.32703">
        <ele>401.3</ele>
        <time>2021-08-05T11:24:20Z</time>
      </trkpt>
      <trkpt lat="45.40851" lon="3.32714">
        <ele>401.2</ele>
        <time>2021-08-05T11:24:22Z</time>
      </trkpt>
      <trkpt lat="45.40841" lon="3.32717">
        <ele>401.3</ele>
        <time>2021-08-05T11:24:24Z</time>
      </trkpt>
      <trkpt lat="45.4083" lon="3.3272">
        <ele>401.3</ele>
        <time>2021-08-05T11:24:26Z</time>
      </trkpt>
      <trkpt lat="45.40818" lon="3.32723">
        <ele>401.1</ele>
        <time>2021-08-05T11:24:28Z</time>
      </trkpt>
      <trkpt lat="45.40806" lon="3.32726">
        <ele>400.9</ele>
        <time>2021-08-05T11:24:30Z</time>
      </trkpt>
      <trkpt lat="45.40795" lon="3.32729">
        <ele>400.7</ele>
        <time>2021-08-05T11:24:32Z</time>
      </trkpt>
      <trkpt lat="45.40783" lon="3.32732">
        <ele>400.5</ele>
        <time>2021-08-05T11:24:34Z</time>
      </trkpt>
      <trkpt lat="45.4077" lon="3.32735">
        <ele>400.3</ele>
        <time>2021-08-05T11:24:36Z</time>
      </trkpt>
      <trkpt lat="45.40758" lon="3.32738">
        <ele>400.1</ele>
        <time>2021-08-05T11:24:38Z</time>
      </trkpt>
      <trkpt lat="45.40746" lon="3.32741">
        <ele>400</ele>
        <time>2021-08-05T11:24:40Z</time>
      </trkpt>
      <trkpt lat="45.40734" lon="3.32744">
        <ele>400.2</ele>
        <time>2021-08-05T11:24:42Z</time>
      </trkpt>
      <trkpt lat="45.40722" lon="3.32747">
        <ele>400.3</ele>
        <time>2021-08-05T11:24:44Z</time>
      </trkpt>
      <trkpt lat="45.40709" lon="3.3275">
        <ele>400.5</ele>
        <time>2021-08-05T11:24:46Z</time>
      </trkpt>
      <trkpt lat="45.40697" lon="3.32753">
        <ele>400.6</ele>
        <time>2021-08-05T11:24:48Z</time>
      </trkpt>
      <trkpt lat="45.40685" lon="3.32755">
        <ele>400.7</ele>
        <time>2021-08-05T11:24:50Z</time>
      </trkpt>
      <trkpt lat="45.40672" lon="3.32758">
        <ele>400.7</ele>
        <time>2021-08-05T11:24:52Z</time>
      </trkpt>
      <trkpt lat="45.4066" lon="3.3276">
        <ele>400.8</ele>
        <time>2021-08-05T11:24:54Z</time>
      </trkpt>
      <trkpt lat="45.40648" lon="3.32764">
        <ele>400.8</ele>
        <time>2021-08-05T11:24:56Z</time>
      </trkpt>
      <trkpt lat="45.40635" lon="3.32764">
        <ele>400.9</ele>
        <time>2021-08-05T11:24:58Z</time>
      </trkpt>
      <trkpt lat="45.40623" lon="3.32765">
        <ele>401</ele>
        <time>2021-08-05T11:25:00Z</time>
      </trkpt>
      <trkpt lat="45.40611" lon="3.32765">
        <ele>401.1</ele>
        <time>2021-08-05T11:25:02Z</time>
      </trkpt>
      <trkpt lat="45.406" lon="3.32765">
        <ele>401.2</ele>
        <time>2021-08-05T11:25:04Z</time>
      </trkpt>
      <trkpt lat="45.40588" lon="3.32764">
        <ele>401.3</ele>
        <time>2021-08-05T11:25:06Z</time>
      </trkpt>
      <trkpt lat="45.40576" lon="3.32765">
        <ele>401.2</ele>
        <time>2021-08-05T11:25:08Z</time>
      </trkpt>
      <trkpt lat="45.40564" lon="3.32765">
        <ele>400.9</ele>
        <time>2021-08-05T11:25:10Z</time>
      </trkpt>
      <trkpt lat="45.40552" lon="3.32765">
        <ele>400.7</ele>
        <time>2021-08-05T11:25:12Z</time>
      </trkpt>
      <trkpt lat="45.4054" lon="3.32764">
        <ele>400.5</ele>
        <time>2021-08-05T11:25:14Z</time>
      </trkpt>
      <trkpt lat="45.40529" lon="3.32765">
        <ele>400.3</ele>
        <time>2021-08-05T11:25:16Z</time>
      </trkpt>
      <trkpt lat="45.40517" lon="3.32764">
        <ele>400.1</ele>
        <time>2021-08-05T11:25:18Z</time>
      </trkpt>
      <trkpt lat="45.40506" lon="3.32765">
        <ele>399.9</ele>
        <time>2021-08-05T11:25:20Z</time>
      </trkpt>
      <trkpt lat="45.40494" lon="3.32767">
        <ele>399.9</ele>
        <time>2021-08-05T11:25:22Z</time>
      </trkpt>
      <trkpt lat="45.40483" lon="3.32768">
        <ele>399.9</ele>
        <time>2021-08-05T11:25:24Z</time>
      </trkpt>
      <trkpt lat="45.40471" lon="3.32769">
        <ele>400</ele>
        <time>2021-08-05T11:25:26Z</time>
      </trkpt>
      <trkpt lat="45.4046" lon="3.32771">
        <ele>400.1</ele>
        <time>2021-08-05T11:25:28Z</time>
      </trkpt>
      <trkpt lat="45.40448" lon="3.32773">
        <ele>400.2</ele>
        <time>2021-08-05T11:25:30Z</time>
      </trkpt>
      <trkpt lat="45.40436" lon="3.32775">
        <ele>400.2</ele>
        <time>2021-08-05T11:25:32Z</time>
      </trkpt>
      <trkpt lat="45.40425" lon="3.32777">
        <ele>400.3</ele>
        <time>2021-08-05T11:25:34Z</time>
      </trkpt>
      <trkpt lat="45.40413" lon="3.32779">
        <ele>400.3</ele>
        <time>2021-08-05T11:25:36Z</time>
      </trkpt>
      <trkpt lat="45.40402" lon="3.3278">
        <ele>400.2</ele>
        <time>2021-08-05T11:25:38Z</time>
      </trkpt>
      <trkpt lat="45.40392" lon="3.32782">
        <ele>400.1</ele>
        <time>2021-08-05T11:25:40Z</time>
      </trkpt>
      <trkpt lat="45.40381" lon="3.32783">
        <ele>400</ele>
        <time>2021-08-05T11:25:42Z</time>
      </trkpt>
      <trkpt lat="45.4037" lon="3.32785">
        <ele>399.9</ele>
        <time>2021-08-05T11:25:44Z</time>
      </trkpt>
      <trkpt lat="45.40359" lon="3.32787">
        <ele>399.8</ele>
        <time>2021-08-05T11:25:46Z</time>
      </trkpt>
      <trkpt lat="45.40349" lon="3.32789">
        <ele>399.7</ele>
        <time>2021-08-05T11:25:48Z</time>
      </trkpt>
      <trkpt lat="45.40338" lon="3.3279">
        <ele>399.6</ele>
        <time>2021-08-05T11:25:50Z</time>
      </trkpt>
      <trkpt lat="45.40328" lon="3.32792">
        <ele>399.6</ele>
        <time>2021-08-05T11:25:52Z</time>
      </trkpt>
      <trkpt lat="45.40317" lon="3.32794">
        <ele>399.6</ele>
        <time>2021-08-05T11:25:54Z</time>
      </trkpt>
      <trkpt lat="45.40307" lon="3.32796">
        <ele>399.7</ele>
        <time>2021-08-05T11:25:56Z</time>
      </trkpt>
      <trkpt lat="45.40296" lon="3.32799">
        <ele>399.8</ele>
        <time>2021-08-05T11:25:58Z</time>
      </trkpt>
      <trkpt lat="45.40286" lon="3.32801">
        <ele>399.8</ele>
        <time>2021-08-05T11:26:00Z</time>
      </trkpt>
      <trkpt lat="45.40275" lon="3.32804">
        <ele>400</ele>
        <time>2021-08-05T11:26:02Z</time>
      </trkpt>
      <trkpt lat="45.40265" lon="3.32807">
        <ele>400.1</ele>
        <time>2021-08-05T11:26:04Z</time>
      </trkpt>
      <trkpt lat="45.40255" lon="3.3281">
        <ele>400.2</ele>
        <time>2021-08-05T11:26:06Z</time>
      </trkpt>
      <trkpt lat="45.40244" lon="3.32812">
        <ele>400.2</ele>
        <time>2021-08-05T11:26:08Z</time>
      </trkpt>
      <trkpt lat="45.40233" lon="3.32815">
        <ele>400.1</ele>
        <time>2021-08-05T11:26:10Z</time>
      </trkpt>
      <trkpt lat="45.40223" lon="3.32817">
        <ele>399.9</ele>
        <time>2021-08-05T11:26:12Z</time>
      </trkpt>
      <trkpt lat="45.40212" lon="3.3282">
        <ele>399.8</ele>
        <time>2021-08-05T11:26:14Z</time>
      </trkpt>
      <trkpt lat="45.40202" lon="3.32822">
        <ele>399.6</ele>
        <time>2021-08-05T11:26:16Z</time>
      </trkpt>
      <trkpt lat="45.40192" lon="3.32825">
        <ele>399.5</ele>
        <time>2021-08-05T11:26:18Z</time>
      </trkpt>
      <trkpt lat="45.40182" lon="3.32827">
        <ele>399.3</ele>
        <time>2021-08-05T11:26:20Z</time>
      </trkpt>
      <trkpt lat="45.40171" lon="3.32829">
        <ele>399.2</ele>
        <time>2021-08-05T11:26:22Z</time>
      </trkpt>
      <trkpt lat="45.40161" lon="3.32832">
        <ele>399.1</ele>
        <time>2021-08-05T11:26:24Z</time>
      </trkpt>
      <trkpt lat="45.40151" lon="3.32833">
        <ele>399.2</ele>
        <time>2021-08-05T11:26:26Z</time>
      </trkpt>
      <trkpt lat="45.40141" lon="3.32834">
        <ele>399.3</ele>
        <time>2021-08-05T11:26:28Z</time>
      </trkpt>
      <trkpt lat="45.40131" lon="3.32833">
        <ele>399.4</ele>
        <time>2021-08-05T11:26:30Z</time>
      </trkpt>
      <trkpt lat="45.40121" lon="3.32832">
        <ele>399.6</ele>
        <time>2021-08-05T11:26:32Z</time>
      </trkpt>
      <trkpt lat="45.40111" lon="3.3283">
        <ele>399.8</ele>
        <time>2021-08-05T11:26:34Z</time>
      </trkpt>
      <trkpt lat="45.40101" lon="3.32826">
        <ele>400</ele>
        <time>2021-08-05T11:26:36Z</time>
      </trkpt>
      <trkpt lat="45.40091" lon="3.32822">
        <ele>400.2</ele>
        <time>2021-08-05T11:26:38Z</time>
      </trkpt>
      <trkpt lat="45.40082" lon="3.32818">
        <ele>400.4</ele>
        <time>2021-08-05T11:26:40Z</time>
      </trkpt>
      <trkpt lat="45.40072" lon="3.32813">
        <ele>400.5</ele>
        <time>2021-08-05T11:26:42Z</time>
      </trkpt>
      <trkpt lat="45.40062" lon="3.32809">
        <ele>400.6</ele>
        <time>2021-08-05T11:26:44Z</time>
      </trkpt>
      <trkpt lat="45.40052" lon="3.32805">
        <ele>400.8</ele>
        <time>2021-08-05T11:26:46Z</time>
      </trkpt>
      <trkpt lat="45.40042" lon="3.32801">
        <ele>401.1</ele>
        <time>2021-08-05T11:26:48Z</time>
      </trkpt>
      <trkpt lat="45.40032" lon="3.32796">
        <ele>401.4</ele>
        <time>2021-08-05T11:26:50Z</time>
      </trkpt>
      <trkpt lat="45.40022" lon="3.32792">
        <ele>401.7</ele>
        <time>2021-08-05T11:26:52Z</time>
      </trkpt>
      <trkpt lat="45.40012" lon="3.32788">
        <ele>402.1</ele>
        <time>2021-08-05T11:26:54Z</time>
      </trkpt>
      <trkpt lat="45.40002" lon="3.32784">
        <ele>402.5</ele>
        <time>2021-08-05T11:26:56Z</time>
      </trkpt>
      <trkpt lat="45.39992" lon="3.3278">
        <ele>402.7</ele>
        <time>2021-08-05T11:26:58Z</time>
      </trkpt>
      <trkpt lat="45.39981" lon="3.32776">
        <ele>402.9</ele>
        <time>2021-08-05T11:27:00Z</time>
      </trkpt>
      <trkpt lat="45.39971" lon="3.32773">
        <ele>403</ele>
        <time>2021-08-05T11:27:02Z</time>
      </trkpt>
      <trkpt lat="45.39961" lon="3.32769">
        <ele>403.2</ele>
        <time>2021-08-05T11:27:04Z</time>
      </trkpt>
      <trkpt lat="45.39951" lon="3.32765">
        <ele>403.3</ele>
        <time>2021-08-05T11:27:06Z</time>
      </trkpt>
      <trkpt lat="45.39941" lon="3.32761">
        <ele>403.5</ele>
        <time>2021-08-05T11:27:08Z</time>
      </trkpt>
      <trkpt lat="45.39931" lon="3.32757">
        <ele>403.7</ele>
        <time>2021-08-05T11:27:10Z</time>
      </trkpt>
      <trkpt lat="45.39921" lon="3.32753">
        <ele>403.8</ele>
        <time>2021-08-05T11:27:12Z</time>
      </trkpt>
      <trkpt lat="45.39911" lon="3.3275">
        <ele>403.9</ele>
        <time>2021-08-05T11:27:14Z</time>
      </trkpt>
      <trkpt lat="45.39902" lon="3.32746">
        <ele>404.4</ele>
        <time>2021-08-05T11:27:16Z</time>
      </trkpt>
      <trkpt lat="45.39892" lon="3.32742">
        <ele>404.9</ele>
        <time>2021-08-05T11:27:18Z</time>
      </trkpt>
      <trkpt lat="45.39882" lon="3.32739">
        <ele>405.2</ele>
        <time>2021-08-05T11:27:20Z</time>
      </trkpt>
      <trkpt lat="45.39873" lon="3.32736">
        <ele>405.3</ele>
        <time>2021-08-05T11:27:22Z</time>
      </trkpt>
      <trkpt lat="45.39863" lon="3.32732">
        <ele>405.5</ele>
        <time>2021-08-05T11:27:24Z</time>
      </trkpt>
      <trkpt lat="45.39853" lon="3.32728">
        <ele>405.8</ele>
        <time>2021-08-05T11:27:26Z</time>
      </trkpt>
      <trkpt lat="45.39843" lon="3.32725">
        <ele>405.8</ele>
        <time>2021-08-05T11:27:28Z</time>
      </trkpt>
      <trkpt lat="45.39834" lon="3.32722">
        <ele>405.8</ele>
        <time>2021-08-05T11:27:30Z</time>
      </trkpt>
      <trkpt lat="45.39824" lon="3.32718">
        <ele>405.8</ele>
        <time>2021-08-05T11:27:32Z</time>
      </trkpt>
      <trkpt lat="45.39815" lon="3.32715">
        <ele>405.7</ele>
        <time>2021-08-05T11:27:34Z</time>
      </trkpt>
      <trkpt lat="45.39805" lon="3.32711">
        <ele>405.5</ele>
        <time>2021-08-05T11:27:36Z</time>
      </trkpt>
      <trkpt lat="45.39796" lon="3.32708">
        <ele>405.3</ele>
        <time>2021-08-05T11:27:38Z</time>
      </trkpt>
      <trkpt lat="45.39787" lon="3.32704">
        <ele>405.1</ele>
        <time>2021-08-05T11:27:40Z</time>
      </trkpt>
      <trkpt lat="45.39777" lon="3.32701">
        <ele>404.8</ele>
        <time>2021-08-05T11:27:42Z</time>
      </trkpt>
      <trkpt lat="45.39768" lon="3.32697">
        <ele>404.4</ele>
        <time>2021-08-05T11:27:44Z</time>
      </trkpt>
      <trkpt lat="45.39759" lon="3.32693">
        <ele>404.1</ele>
        <time>2021-08-05T11:27:46Z</time>
      </trkpt>
      <trkpt lat="45.3975" lon="3.32689">
        <ele>403.7</ele>
        <time>2021-08-05T11:27:48Z</time>
      </trkpt>
      <trkpt lat="45.3974" lon="3.32685">
        <ele>403.8</ele>
        <time>2021-08-05T11:27:50Z</time>
      </trkpt>
      <trkpt lat="45.39731" lon="3.32681">
        <ele>403.9</ele>
        <time>2021-08-05T11:27:52Z</time>
      </trkpt>
      <trkpt lat="45.39722" lon="3.32676">
        <ele>403.9</ele>
        <time>2021-08-05T11:27:54Z</time>
      </trkpt>
      <trkpt lat="45.39713" lon="3.32672">
        <ele>403.9</ele>
        <time>2021-08-05T11:27:56Z</time>
      </trkpt>
      <trkpt lat="45.39703" lon="3.32668">
        <ele>403.8</ele>
        <time>2021-08-05T11:27:58Z</time>
      </trkpt>
      <trkpt lat="45.39694" lon="3.32664">
        <ele>403.7</ele>
        <time>2021-08-05T11:28:00Z</time>
      </trkpt>
      <trkpt lat="45.39685" lon="3.3266">
        <ele>403.6</ele>
        <time>2021-08-05T11:28:02Z</time>
      </trkpt>
      <trkpt lat="45.39676" lon="3.32655">
        <ele>403.4</ele>
        <time>2021-08-05T11:28:04Z</time>
      </trkpt>
      <trkpt lat="45.39667" lon="3.3265">
        <ele>403.2</ele>
        <time>2021-08-05T11:28:06Z</time>
      </trkpt>
      <trkpt lat="45.39658" lon="3.32646">
        <ele>403.4</ele>
        <time>2021-08-05T11:28:08Z</time>
      </trkpt>
      <trkpt lat="45.39649" lon="3.32641">
        <ele>403.5</ele>
        <time>2021-08-05T11:28:10Z</time>
      </trkpt>
      <trkpt lat="45.3964" lon="3.32637">
        <ele>403.7</ele>
        <time>2021-08-05T11:28:12Z</time>
      </trkpt>
      <trkpt lat="45.39631" lon="3.32632">
        <ele>403.7</ele>
        <time>2021-08-05T11:28:14Z</time>
      </trkpt>
      <trkpt lat="45.39622" lon="3.32627">
        <ele>403.8</ele>
        <time>2021-08-05T11:28:16Z</time>
      </trkpt>
      <trkpt lat="45.39613" lon="3.32622">
        <ele>403.8</ele>
        <time>2021-08-05T11:28:18Z</time>
      </trkpt>
      <trkpt lat="45.39604" lon="3.32617">
        <ele>403.8</ele>
        <time>2021-08-05T11:28:20Z</time>
      </trkpt>
      <trkpt lat="45.39595" lon="3.32612">
        <ele>403.7</ele>
        <time>2021-08-05T11:28:22Z</time>
      </trkpt>
      <trkpt lat="45.39586" lon="3.32608">
        <ele>403.6</ele>
        <time>2021-08-05T11:28:24Z</time>
      </trkpt>
      <trkpt lat="45.39578" lon="3.32604">
        <ele>403.4</ele>
        <time>2021-08-05T11:28:26Z</time>
      </trkpt>
      <trkpt lat="45.39569" lon="3.326">
        <ele>403.3</ele>
        <time>2021-08-05T11:28:28Z</time>
      </trkpt>
      <trkpt lat="45.39561" lon="3.32596">
        <ele>403.1</ele>
        <time>2021-08-05T11:28:30Z</time>
      </trkpt>
      <trkpt lat="45.39553" lon="3.32593">
        <ele>402.9</ele>
        <time>2021-08-05T11:28:32Z</time>
      </trkpt>
      <trkpt lat="45.39544" lon="3.3259">
        <ele>402.7</ele>
        <time>2021-08-05T11:28:34Z</time>
      </trkpt>
      <trkpt lat="45.39535" lon="3.32586">
        <ele>402.5</ele>
        <time>2021-08-05T11:28:36Z</time>
      </trkpt>
      <trkpt lat="45.39527" lon="3.32582">
        <ele>402.3</ele>
        <time>2021-08-05T11:28:38Z</time>
      </trkpt>
      <trkpt lat="45.39518" lon="3.32579">
        <ele>402.2</ele>
        <time>2021-08-05T11:28:40Z</time>
      </trkpt>
      <trkpt lat="45.39509" lon="3.32577">
        <ele>402.1</ele>
        <time>2021-08-05T11:28:42Z</time>
      </trkpt>
      <trkpt lat="45.39501" lon="3.32577">
        <ele>402</ele>
        <time>2021-08-05T11:28:44Z</time>
      </trkpt>
      <trkpt lat="45.39493" lon="3.32583">
        <ele>402.1</ele>
        <time>2021-08-05T11:28:46Z</time>
      </trkpt>
      <trkpt lat="45.39486" lon="3.32594">
        <ele>402.5</ele>
        <time>2021-08-05T11:28:48Z</time>
      </trkpt>
      <trkpt lat="45.39478" lon="3.326">
        <ele>402.7</ele>
        <time>2021-08-05T11:28:50Z</time>
      </trkpt>
      <trkpt lat="45.39469" lon="3.32603">
        <ele>402.8</ele>
        <time>2021-08-05T11:28:52Z</time>
      </trkpt>
      <trkpt lat="45.39461" lon="3.32608">
        <ele>402.9</ele>
        <time>2021-08-05T11:28:54Z</time>
      </trkpt>
      <trkpt lat="45.39453" lon="3.32613">
        <ele>403</ele>
        <time>2021-08-05T11:28:56Z</time>
      </trkpt>
      <trkpt lat="45.39445" lon="3.32621">
        <ele>403.1</ele>
        <time>2021-08-05T11:28:58Z</time>
      </trkpt>
      <trkpt lat="45.39438" lon="3.32629">
        <ele>403.2</ele>
        <time>2021-08-05T11:29:00Z</time>
      </trkpt>
      <trkpt lat="45.39431" lon="3.32636">
        <ele>403.2</ele>
        <time>2021-08-05T11:29:02Z</time>
      </trkpt>
      <trkpt lat="45.39424" lon="3.32644">
        <ele>403.1</ele>
        <time>2021-08-05T11:29:04Z</time>
      </trkpt>
      <trkpt lat="45.39416" lon="3.32653">
        <ele>403</ele>
        <time>2021-08-05T11:29:06Z</time>
      </trkpt>
      <trkpt lat="45.39409" lon="3.32662">
        <ele>403.1</ele>
        <time>2021-08-05T11:29:08Z</time>
      </trkpt>
      <trkpt lat="45.39402" lon="3.32671">
        <ele>403.1</ele>
        <time>2021-08-05T11:29:10Z</time>
      </trkpt>
      <trkpt lat="45.39394" lon="3.32679">
        <ele>403.1</ele>
        <time>2021-08-05T11:29:12Z</time>
      </trkpt>
      <trkpt lat="45.39388" lon="3.32687">
        <ele>403.1</ele>
        <time>2021-08-05T11:29:14Z</time>
      </trkpt>
      <trkpt lat="45.39381" lon="3.32696">
        <ele>403.1</ele>
        <time>2021-08-05T11:29:16Z</time>
      </trkpt>
      <trkpt lat="45.39374" lon="3.32703">
        <ele>403.1</ele>
        <time>2021-08-05T11:29:18Z</time>
      </trkpt>
      <trkpt lat="45.39367" lon="3.32709">
        <ele>403.1</ele>
        <time>2021-08-05T11:29:20Z</time>
      </trkpt>
      <trkpt lat="45.3936" lon="3.32714">
        <ele>403.1</ele>
        <time>2021-08-05T11:29:22Z</time>
      </trkpt>
      <trkpt lat="45.39353" lon="3.32719">
        <ele>403.1</ele>
        <time>2021-08-05T11:29:24Z</time>
      </trkpt>
      <trkpt lat="45.39346" lon="3.32726">
        <ele>403.1</ele>
        <time>2021-08-05T11:29:26Z</time>
      </trkpt>
      <trkpt lat="45.3934" lon="3.32734">
        <ele>403.1</ele>
        <time>2021-08-05T11:29:28Z</time>
      </trkpt>
      <trkpt lat="45.39334" lon="3.32744">
        <ele>403.1</ele>
        <time>2021-08-05T11:29:30Z</time>
      </trkpt>
      <trkpt lat="45.39327" lon="3.32752">
        <ele>403.1</ele>
        <time>2021-08-05T11:29:32Z</time>
      </trkpt>
      <trkpt lat="45.39322" lon="3.3276">
        <ele>403</ele>
        <time>2021-08-05T11:29:34Z</time>
      </trkpt>
      <trkpt lat="45.39315" lon="3.32765">
        <ele>403</ele>
        <time>2021-08-05T11:29:36Z</time>
      </trkpt>
      <trkpt lat="45.39312" lon="3.32771">
        <ele>402.9</ele>
        <time>2021-08-05T11:29:38Z</time>
      </trkpt>
      <trkpt lat="45.39316" lon="3.32777">
        <ele>402.7</ele>
        <time>2021-08-05T11:29:40Z</time>
      </trkpt>
      <trkpt lat="45.39323" lon="3.32778">
        <ele>402.5</ele>
        <time>2021-08-05T11:29:42Z</time>
      </trkpt>
      <trkpt lat="45.3933" lon="3.32781">
        <ele>402.3</ele>
        <time>2021-08-05T11:29:44Z</time>
      </trkpt>
      <trkpt lat="45.39338" lon="3.32784">
        <ele>402.1</ele>
        <time>2021-08-05T11:29:46Z</time>
      </trkpt>
      <trkpt lat="45.39345" lon="3.32788">
        <ele>402</ele>
        <time>2021-08-05T11:29:48Z</time>
      </trkpt>
      <trkpt lat="45.39349" lon="3.32798">
        <ele>401.8</ele>
        <time>2021-08-05T11:29:50Z</time>
      </trkpt>
      <trkpt lat="45.39348" lon="3.3281">
        <ele>401.5</ele>
        <time>2021-08-05T11:29:52Z</time>
      </trkpt>
      <trkpt lat="45.39346" lon="3.32821">
        <ele>401.3</ele>
        <time>2021-08-05T11:29:54Z</time>
      </trkpt>
      <trkpt lat="45.39342" lon="3.32828">
        <ele>401.1</ele>
        <time>2021-08-05T11:29:56Z</time>
      </trkpt>
      <trkpt lat="45.39337" lon="3.32837">
        <ele>401</ele>
        <time>2021-08-05T11:29:58Z</time>
      </trkpt>
      <trkpt lat="45.39331" lon="3.32848">
        <ele>400.8</ele>
        <time>2021-08-05T11:30:00Z</time>
      </trkpt>
      <trkpt lat="45.3933" lon="3.32861">
        <ele>400.7</ele>
        <time>2021-08-05T11:30:02Z</time>
      </trkpt>
      <trkpt lat="45.39332" lon="3.32875">
        <ele>400.5</ele>
        <time>2021-08-05T11:30:04Z</time>
      </trkpt>
      <trkpt lat="45.39335" lon="3.32884">
        <ele>400.4</ele>
        <time>2021-08-05T11:30:06Z</time>
      </trkpt>
      <trkpt lat="45.39337" lon="3.32892">
        <ele>400.3</ele>
        <time>2021-08-05T11:30:08Z</time>
      </trkpt>
      <trkpt lat="45.39338" lon="3.32898">
        <ele>400.2</ele>
        <time>2021-08-05T11:30:10Z</time>
      </trkpt>
      <trkpt lat="45.39339" lon="3.329">
        <ele>400.2</ele>
        <time>2021-08-05T11:30:12Z</time>
      </trkpt>
      <trkpt lat="45.39339" lon="3.32902">
        <ele>400.2</ele>
        <time>2021-08-05T11:30:14Z</time>
      </trkpt>
      <trkpt lat="45.39338" lon="3.32902">
        <ele>400.2</ele>
        <time>2021-08-05T11:30:16Z</time>
      </trkpt>
      <trkpt lat="45.39338" lon="3.32902">
        <ele>400.2</ele>
        <time>2021-08-05T11:30:18Z</time>
      </trkpt>
      <trkpt lat="45.39338" lon="3.32903">
        <ele>400.2</ele>
        <time>2021-08-05T11:30:20Z</time>
      </trkpt>
      <trkpt lat="45.39344" lon="3.32946">
        <ele>400</ele>
        <time>2021-08-05T11:33:06Z</time>
      </trkpt>
      <trkpt lat="45.39343" lon="3.32953">
        <ele>399.9</ele>
        <time>2021-08-05T11:33:08Z</time>
      </trkpt>
      <trkpt lat="45.39343" lon="3.3296">
        <ele>399.9</ele>
        <time>2021-08-05T11:33:10Z</time>
      </trkpt>
      <trkpt lat="45.39343" lon="3.32967">
        <ele>399.9</ele>
        <time>2021-08-05T11:33:12Z</time>
      </trkpt>
      <trkpt lat="45.39342" lon="3.32975">
        <ele>399.9</ele>
        <time>2021-08-05T11:33:14Z</time>
      </trkpt>
      <trkpt lat="45.39343" lon="3.32983">
        <ele>399.9</ele>
        <time>2021-08-05T11:33:16Z</time>
      </trkpt>
      <trkpt lat="45.39346" lon="3.32992">
        <ele>399.9</ele>
        <time>2021-08-05T11:33:18Z</time>
      </trkpt>
      <trkpt lat="45.39349" lon="3.33">
        <ele>399.8</ele>
        <time>2021-08-05T11:33:20Z</time>
      </trkpt>
      <trkpt lat="45.39351" lon="3.33008">
        <ele>399.7</ele>
        <time>2021-08-05T11:33:22Z</time>
      </trkpt>
      <trkpt lat="45.39354" lon="3.33016">
        <ele>399.6</ele>
        <time>2021-08-05T11:33:24Z</time>
      </trkpt>
      <trkpt lat="45.39358" lon="3.33026">
        <ele>399.6</ele>
        <time>2021-08-05T11:33:26Z</time>
      </trkpt>
      <trkpt lat="45.39362" lon="3.33034">
        <ele>399.5</ele>
        <time>2021-08-05T11:33:28Z</time>
      </trkpt>
      <trkpt lat="45.39365" lon="3.33044">
        <ele>399.5</ele>
        <time>2021-08-05T11:33:30Z</time>
      </trkpt>
      <trkpt lat="45.39368" lon="3.33053">
        <ele>399.5</ele>
        <time>2021-08-05T11:33:32Z</time>
      </trkpt>
      <trkpt lat="45.39371" lon="3.33062">
        <ele>399.5</ele>
        <time>2021-08-05T11:33:34Z</time>
      </trkpt>
      <trkpt lat="45.39374" lon="3.33071">
        <ele>399.5</ele>
        <time>2021-08-05T11:33:36Z</time>
      </trkpt>
      <trkpt lat="45.39377" lon="3.33081">
        <ele>399.5</ele>
        <time>2021-08-05T11:33:38Z</time>
      </trkpt>
      <trkpt lat="45.39379" lon="3.33092">
        <ele>399.5</ele>
        <time>2021-08-05T11:33:40Z</time>
      </trkpt>
      <trkpt lat="45.3938" lon="3.33102">
        <ele>399.5</ele>
        <time>2021-08-05T11:33:42Z</time>
      </trkpt>
      <trkpt lat="45.39381" lon="3.33111">
        <ele>399.4</ele>
        <time>2021-08-05T11:33:44Z</time>
      </trkpt>
      <trkpt lat="45.3938" lon="3.33122">
        <ele>399.4</ele>
        <time>2021-08-05T11:33:46Z</time>
      </trkpt>
      <trkpt lat="45.3938" lon="3.33131">
        <ele>399.3</ele>
        <time>2021-08-05T11:33:48Z</time>
      </trkpt>
      <trkpt lat="45.39379" lon="3.33141">
        <ele>399.2</ele>
        <time>2021-08-05T11:33:50Z</time>
      </trkpt>
      <trkpt lat="45.39376" lon="3.33151">
        <ele>399.1</ele>
        <time>2021-08-05T11:33:52Z</time>
      </trkpt>
      <trkpt lat="45.39374" lon="3.33161">
        <ele>399</ele>
        <time>2021-08-05T11:33:54Z</time>
      </trkpt>
      <trkpt lat="45.39371" lon="3.33172">
        <ele>398.9</ele>
        <time>2021-08-05T11:33:56Z</time>
      </trkpt>
      <trkpt lat="45.39368" lon="3.33183">
        <ele>398.8</ele>
        <time>2021-08-05T11:33:58Z</time>
      </trkpt>
      <trkpt lat="45.39365" lon="3.33194">
        <ele>398.6</ele>
        <time>2021-08-05T11:34:00Z</time>
      </trkpt>
      <trkpt lat="45.39362" lon="3.33206">
        <ele>398.5</ele>
        <time>2021-08-05T11:34:02Z</time>
      </trkpt>
      <trkpt lat="45.39358" lon="3.33217">
        <ele>398.4</ele>
        <time>2021-08-05T11:34:04Z</time>
      </trkpt>
      <trkpt lat="45.39356" lon="3.33229">
        <ele>398.3</ele>
        <time>2021-08-05T11:34:06Z</time>
      </trkpt>
      <trkpt lat="45.39353" lon="3.33241">
        <ele>398.3</ele>
        <time>2021-08-05T11:34:08Z</time>
      </trkpt>
      <trkpt lat="45.39351" lon="3.33252">
        <ele>398.2</ele>
        <time>2021-08-05T11:34:10Z</time>
      </trkpt>
      <trkpt lat="45.39348" lon="3.33264">
        <ele>398.3</ele>
        <time>2021-08-05T11:34:12Z</time>
      </trkpt>
      <trkpt lat="45.39346" lon="3.33275">
        <ele>398.4</ele>
        <time>2021-08-05T11:34:14Z</time>
      </trkpt>
      <trkpt lat="45.39343" lon="3.33288">
        <ele>398.5</ele>
        <time>2021-08-05T11:34:16Z</time>
      </trkpt>
      <trkpt lat="45.39341" lon="3.333">
        <ele>398.6</ele>
        <time>2021-08-05T11:34:18Z</time>
      </trkpt>
      <trkpt lat="45.39339" lon="3.33313">
        <ele>398.8</ele>
        <time>2021-08-05T11:34:20Z</time>
      </trkpt>
      <trkpt lat="45.39336" lon="3.33325">
        <ele>398.9</ele>
        <time>2021-08-05T11:34:22Z</time>
      </trkpt>
      <trkpt lat="45.39335" lon="3.33337">
        <ele>399</ele>
        <time>2021-08-05T11:34:24Z</time>
      </trkpt>
      <trkpt lat="45.39333" lon="3.33349">
        <ele>399</ele>
        <time>2021-08-05T11:34:26Z</time>
      </trkpt>
      <trkpt lat="45.39331" lon="3.33361">
        <ele>399</ele>
        <time>2021-08-05T11:34:28Z</time>
      </trkpt>
      <trkpt lat="45.39329" lon="3.33372">
        <ele>398.9</ele>
        <time>2021-08-05T11:34:30Z</time>
      </trkpt>
      <trkpt lat="45.39327" lon="3.33384">
        <ele>398.9</ele>
        <time>2021-08-05T11:34:32Z</time>
      </trkpt>
      <trkpt lat="45.39325" lon="3.33396">
        <ele>398.8</ele>
        <time>2021-08-05T11:34:34Z</time>
      </trkpt>
      <trkpt lat="45.39323" lon="3.33408">
        <ele>398.8</ele>
        <time>2021-08-05T11:34:36Z</time>
      </trkpt>
      <trkpt lat="45.39321" lon="3.33419">
        <ele>398.7</ele>
        <time>2021-08-05T11:34:38Z</time>
      </trkpt>
      <trkpt lat="45.39319" lon="3.33431">
        <ele>398.7</ele>
        <time>2021-08-05T11:34:40Z</time>
      </trkpt>
      <trkpt lat="45.39317" lon="3.33443">
        <ele>398.7</ele>
        <time>2021-08-05T11:34:42Z</time>
      </trkpt>
      <trkpt lat="45.39315" lon="3.33454">
        <ele>398.7</ele>
        <time>2021-08-05T11:34:44Z</time>
      </trkpt>
      <trkpt lat="45.39313" lon="3.33465">
        <ele>398.6</ele>
        <time>2021-08-05T11:34:46Z</time>
      </trkpt>
      <trkpt lat="45.3931" lon="3.33477">
        <ele>398.6</ele>
        <time>2021-08-05T11:34:48Z</time>
      </trkpt>
      <trkpt lat="45.39308" lon="3.33489">
        <ele>398.7</ele>
        <time>2021-08-05T11:34:50Z</time>
      </trkpt>
      <trkpt lat="45.39306" lon="3.33501">
        <ele>398.7</ele>
        <time>2021-08-05T11:34:52Z</time>
      </trkpt>
      <trkpt lat="45.39303" lon="3.33512">
        <ele>398.7</ele>
        <time>2021-08-05T11:34:54Z</time>
      </trkpt>
      <trkpt lat="45.39301" lon="3.33524">
        <ele>398.7</ele>
        <time>2021-08-05T11:34:56Z</time>
      </trkpt>
      <trkpt lat="45.39298" lon="3.33536">
        <ele>398.8</ele>
        <time>2021-08-05T11:34:58Z</time>
      </trkpt>
      <trkpt lat="45.39296" lon="3.33548">
        <ele>398.8</ele>
        <time>2021-08-05T11:35:00Z</time>
      </trkpt>
      <trkpt lat="45.39293" lon="3.3356">
        <ele>398.9</ele>
        <time>2021-08-05T11:35:02Z</time>
      </trkpt>
      <trkpt lat="45.39291" lon="3.33572">
        <ele>398.9</ele>
        <time>2021-08-05T11:35:04Z</time>
      </trkpt>
      <trkpt lat="45.39288" lon="3.33583">
        <ele>399</ele>
        <time>2021-08-05T11:35:06Z</time>
      </trkpt>
      <trkpt lat="45.39286" lon="3.33594">
        <ele>399.3</ele>
        <time>2021-08-05T11:35:08Z</time>
      </trkpt>
      <trkpt lat="45.39284" lon="3.33604">
        <ele>399.5</ele>
        <time>2021-08-05T11:35:10Z</time>
      </trkpt>
      <trkpt lat="45.39281" lon="3.33613">
        <ele>399.7</ele>
        <time>2021-08-05T11:35:12Z</time>
      </trkpt>
      <trkpt lat="45.39278" lon="3.33621">
        <ele>399.9</ele>
        <time>2021-08-05T11:35:14Z</time>
      </trkpt>
      <trkpt lat="45.39277" lon="3.33629">
        <ele>400.1</ele>
        <time>2021-08-05T11:35:16Z</time>
      </trkpt>
      <trkpt lat="45.39278" lon="3.33635">
        <ele>400.2</ele>
        <time>2021-08-05T11:35:18Z</time>
      </trkpt>
      <trkpt lat="45.39279" lon="3.33639">
        <ele>400.3</ele>
        <time>2021-08-05T11:35:20Z</time>
      </trkpt>
      <trkpt lat="45.39281" lon="3.3364">
        <ele>400.4</ele>
        <time>2021-08-05T11:35:22Z</time>
      </trkpt>
      <trkpt lat="45.39283" lon="3.33641">
        <ele>400.4</ele>
        <time>2021-08-05T11:35:24Z</time>
      </trkpt>
      <trkpt lat="45.39285" lon="3.33638">
        <ele>400.3</ele>
        <time>2021-08-05T11:35:26Z</time>
      </trkpt>
      <trkpt lat="45.39284" lon="3.33635">
        <ele>400.2</ele>
        <time>2021-08-05T11:35:28Z</time>
      </trkpt>
      <trkpt lat="45.39283" lon="3.33633">
        <ele>400.2</ele>
        <time>2021-08-05T11:35:30Z</time>
      </trkpt>
      <trkpt lat="45.39266" lon="3.33654">
        <ele>400.7</ele>
        <time>2021-08-05T11:35:50Z</time>
      </trkpt>
      <trkpt lat="45.3927" lon="3.3366">
        <ele>400.8</ele>
        <time>2021-08-05T11:35:52Z</time>
      </trkpt>
      <trkpt lat="45.39274" lon="3.33664">
        <ele>400.9</ele>
        <time>2021-08-05T11:35:54Z</time>
      </trkpt>
      <trkpt lat="45.39277" lon="3.33668">
        <ele>401</ele>
        <time>2021-08-05T11:35:56Z</time>
      </trkpt>
      <trkpt lat="45.39282" lon="3.33669">
        <ele>401.1</ele>
        <time>2021-08-05T11:35:58Z</time>
      </trkpt>
      <trkpt lat="45.39288" lon="3.33671">
        <ele>401.2</ele>
        <time>2021-08-05T11:36:00Z</time>
      </trkpt>
      <trkpt lat="45.39292" lon="3.33676">
        <ele>401.4</ele>
        <time>2021-08-05T11:36:02Z</time>
      </trkpt>
      <trkpt lat="45.39296" lon="3.33682">
        <ele>401.5</ele>
        <time>2021-08-05T11:36:04Z</time>
      </trkpt>
      <trkpt lat="45.393" lon="3.33685">
        <ele>401.7</ele>
        <time>2021-08-05T11:36:06Z</time>
      </trkpt>
      <trkpt lat="45.39303" lon="3.3369">
        <ele>401.8</ele>
        <time>2021-08-05T11:36:08Z</time>
      </trkpt>
      <trkpt lat="45.39306" lon="3.33693">
        <ele>402</ele>
        <time>2021-08-05T11:36:10Z</time>
      </trkpt>
      <trkpt lat="45.39309" lon="3.337">
        <ele>402.2</ele>
        <time>2021-08-05T11:36:12Z</time>
      </trkpt>
      <trkpt lat="45.39312" lon="3.33708">
        <ele>402.5</ele>
        <time>2021-08-05T11:36:14Z</time>
      </trkpt>
      <trkpt lat="45.39315" lon="3.33715">
        <ele>402.7</ele>
        <time>2021-08-05T11:36:16Z</time>
      </trkpt>
      <trkpt lat="45.39319" lon="3.33722">
        <ele>403</ele>
        <time>2021-08-05T11:36:18Z</time>
      </trkpt>
      <trkpt lat="45.39322" lon="3.33728">
        <ele>403.2</ele>
        <time>2021-08-05T11:36:20Z</time>
      </trkpt>
      <trkpt lat="45.39326" lon="3.33735">
        <ele>403.5</ele>
        <time>2021-08-05T11:36:22Z</time>
      </trkpt>
      <trkpt lat="45.3933" lon="3.33741">
        <ele>403.7</ele>
        <time>2021-08-05T11:36:24Z</time>
      </trkpt>
      <trkpt lat="45.39334" lon="3.33746">
        <ele>403.8</ele>
        <time>2021-08-05T11:36:26Z</time>
      </trkpt>
      <trkpt lat="45.39338" lon="3.33751">
        <ele>403.8</ele>
        <time>2021-08-05T11:36:28Z</time>
      </trkpt>
      <trkpt lat="45.39341" lon="3.33755">
        <ele>403.6</ele>
        <time>2021-08-05T11:36:30Z</time>
      </trkpt>
      <trkpt lat="45.39345" lon="3.33759">
        <ele>403.3</ele>
        <time>2021-08-05T11:36:32Z</time>
      </trkpt>
      <trkpt lat="45.39349" lon="3.33763">
        <ele>403.1</ele>
        <time>2021-08-05T11:36:34Z</time>
      </trkpt>
      <trkpt lat="45.39353" lon="3.33767">
        <ele>402.9</ele>
        <time>2021-08-05T11:36:36Z</time>
      </trkpt>
      <trkpt lat="45.39358" lon="3.33772">
        <ele>402.7</ele>
        <time>2021-08-05T11:36:38Z</time>
      </trkpt>
      <trkpt lat="45.39362" lon="3.33776">
        <ele>402.4</ele>
        <time>2021-08-05T11:36:40Z</time>
      </trkpt>
      <trkpt lat="45.39366" lon="3.33779">
        <ele>402.2</ele>
        <time>2021-08-05T11:36:42Z</time>
      </trkpt>
      <trkpt lat="45.39369" lon="3.33783">
        <ele>402</ele>
        <time>2021-08-05T11:36:44Z</time>
      </trkpt>
      <trkpt lat="45.39374" lon="3.33785">
        <ele>401.9</ele>
        <time>2021-08-05T11:36:46Z</time>
      </trkpt>
      <trkpt lat="45.39378" lon="3.33788">
        <ele>401.7</ele>
        <time>2021-08-05T11:36:48Z</time>
      </trkpt>
      <trkpt lat="45.39381" lon="3.33791">
        <ele>401.5</ele>
        <time>2021-08-05T11:36:50Z</time>
      </trkpt>
      <trkpt lat="45.39386" lon="3.33795">
        <ele>401.3</ele>
        <time>2021-08-05T11:36:52Z</time>
      </trkpt>
      <trkpt lat="45.39391" lon="3.33801">
        <ele>401.1</ele>
        <time>2021-08-05T11:36:54Z</time>
      </trkpt>
      <trkpt lat="45.39395" lon="3.33806">
        <ele>400.8</ele>
        <time>2021-08-05T11:36:56Z</time>
      </trkpt>
      <trkpt lat="45.39401" lon="3.3381">
        <ele>400.6</ele>
        <time>2021-08-05T11:36:58Z</time>
      </trkpt>
      <trkpt lat="45.39406" lon="3.33815">
        <ele>400.4</ele>
        <time>2021-08-05T11:37:00Z</time>
      </trkpt>
      <trkpt lat="45.39412" lon="3.33821">
        <ele>400.2</ele>
        <time>2021-08-05T11:37:02Z</time>
      </trkpt>
      <trkpt lat="45.39418" lon="3.33826">
        <ele>400</ele>
        <time>2021-08-05T11:37:04Z</time>
      </trkpt>
      <trkpt lat="45.39424" lon="3.33832">
        <ele>400.2</ele>
        <time>2021-08-05T11:37:06Z</time>
      </trkpt>
      <trkpt lat="45.3943" lon="3.33837">
        <ele>400.3</ele>
        <time>2021-08-05T11:37:08Z</time>
      </trkpt>
      <trkpt lat="45.39437" lon="3.33843">
        <ele>400.6</ele>
        <time>2021-08-05T11:37:10Z</time>
      </trkpt>
      <trkpt lat="45.39443" lon="3.3385">
        <ele>400.8</ele>
        <time>2021-08-05T11:37:12Z</time>
      </trkpt>
      <trkpt lat="45.3945" lon="3.33857">
        <ele>401.1</ele>
        <time>2021-08-05T11:37:14Z</time>
      </trkpt>
      <trkpt lat="45.39457" lon="3.33863">
        <ele>401.5</ele>
        <time>2021-08-05T11:37:16Z</time>
      </trkpt>
      <trkpt lat="45.39464" lon="3.3387">
        <ele>401.9</ele>
        <time>2021-08-05T11:37:18Z</time>
      </trkpt>
      <trkpt lat="45.39471" lon="3.33877">
        <ele>402.3</ele>
        <time>2021-08-05T11:37:20Z</time>
      </trkpt>
      <trkpt lat="45.39477" lon="3.33884">
        <ele>402.8</ele>
        <time>2021-08-05T11:37:22Z</time>
      </trkpt>
      <trkpt lat="45.39483" lon="3.33891">
        <ele>403.2</ele>
        <time>2021-08-05T11:37:24Z</time>
      </trkpt>
      <trkpt lat="45.39488" lon="3.33898">
        <ele>403.7</ele>
        <time>2021-08-05T11:37:26Z</time>
      </trkpt>
      <trkpt lat="45.39494" lon="3.33903">
        <ele>404.2</ele>
        <time>2021-08-05T11:37:28Z</time>
      </trkpt>
      <trkpt lat="45.39499" lon="3.33907">
        <ele>404.6</ele>
        <time>2021-08-05T11:37:30Z</time>
      </trkpt>
      <trkpt lat="45.39504" lon="3.33912">
        <ele>405.1</ele>
        <time>2021-08-05T11:37:32Z</time>
      </trkpt>
      <trkpt lat="45.39508" lon="3.33916">
        <ele>405.6</ele>
        <time>2021-08-05T11:37:34Z</time>
      </trkpt>
      <trkpt lat="45.39513" lon="3.33921">
        <ele>405.9</ele>
        <time>2021-08-05T11:37:36Z</time>
      </trkpt>
      <trkpt lat="45.39517" lon="3.33926">
        <ele>406.3</ele>
        <time>2021-08-05T11:37:38Z</time>
      </trkpt>
      <trkpt lat="45.39522" lon="3.33932">
        <ele>406.6</ele>
        <time>2021-08-05T11:37:40Z</time>
      </trkpt>
      <trkpt lat="45.39527" lon="3.33937">
        <ele>407</ele>
        <time>2021-08-05T11:37:42Z</time>
      </trkpt>
      <trkpt lat="45.39531" lon="3.33942">
        <ele>407.4</ele>
        <time>2021-08-05T11:37:44Z</time>
      </trkpt>
      <trkpt lat="45.39535" lon="3.33948">
        <ele>407.7</ele>
        <time>2021-08-05T11:37:46Z</time>
      </trkpt>
      <trkpt lat="45.39538" lon="3.33955">
        <ele>408</ele>
        <time>2021-08-05T11:37:48Z</time>
      </trkpt>
      <trkpt lat="45.39542" lon="3.33961">
        <ele>408.3</ele>
        <time>2021-08-05T11:37:50Z</time>
      </trkpt>
      <trkpt lat="45.39545" lon="3.33968">
        <ele>408.6</ele>
        <time>2021-08-05T11:37:52Z</time>
      </trkpt>
      <trkpt lat="45.39549" lon="3.33973">
        <ele>408.9</ele>
        <time>2021-08-05T11:37:54Z</time>
      </trkpt>
      <trkpt lat="45.39552" lon="3.3398">
        <ele>409.2</ele>
        <time>2021-08-05T11:37:56Z</time>
      </trkpt>
      <trkpt lat="45.39554" lon="3.33986">
        <ele>409.4</ele>
        <time>2021-08-05T11:37:58Z</time>
      </trkpt>
      <trkpt lat="45.39557" lon="3.33991">
        <ele>409.7</ele>
        <time>2021-08-05T11:38:00Z</time>
      </trkpt>
      <trkpt lat="45.3956" lon="3.33996">
        <ele>410</ele>
        <time>2021-08-05T11:38:02Z</time>
      </trkpt>
      <trkpt lat="45.39562" lon="3.34002">
        <ele>410.2</ele>
        <time>2021-08-05T11:38:04Z</time>
      </trkpt>
      <trkpt lat="45.39565" lon="3.34007">
        <ele>410.5</ele>
        <time>2021-08-05T11:38:06Z</time>
      </trkpt>
      <trkpt lat="45.39568" lon="3.34013">
        <ele>410.6</ele>
        <time>2021-08-05T11:38:08Z</time>
      </trkpt>
      <trkpt lat="45.39571" lon="3.34018">
        <ele>410.9</ele>
        <time>2021-08-05T11:38:10Z</time>
      </trkpt>
      <trkpt lat="45.39574" lon="3.34025">
        <ele>411</ele>
        <time>2021-08-05T11:38:12Z</time>
      </trkpt>
      <trkpt lat="45.39577" lon="3.34031">
        <ele>411.2</ele>
        <time>2021-08-05T11:38:14Z</time>
      </trkpt>
      <trkpt lat="45.3958" lon="3.34035">
        <ele>411.3</ele>
        <time>2021-08-05T11:38:16Z</time>
      </trkpt>
      <trkpt lat="45.39583" lon="3.34042">
        <ele>411.5</ele>
        <time>2021-08-05T11:38:18Z</time>
      </trkpt>
      <trkpt lat="45.39586" lon="3.34048">
        <ele>411.5</ele>
        <time>2021-08-05T11:38:20Z</time>
      </trkpt>
      <trkpt lat="45.39589" lon="3.34054">
        <ele>411.5</ele>
        <time>2021-08-05T11:38:22Z</time>
      </trkpt>
      <trkpt lat="45.39593" lon="3.34061">
        <ele>411.5</ele>
        <time>2021-08-05T11:38:24Z</time>
      </trkpt>
      <trkpt lat="45.39596" lon="3.34068">
        <ele>411.6</ele>
        <time>2021-08-05T11:38:26Z</time>
      </trkpt>
      <trkpt lat="45.396" lon="3.34075">
        <ele>411.6</ele>
        <time>2021-08-05T11:38:28Z</time>
      </trkpt>
      <trkpt lat="45.39603" lon="3.34082">
        <ele>411.7</ele>
        <time>2021-08-05T11:38:30Z</time>
      </trkpt>
      <trkpt lat="45.39606" lon="3.34089">
        <ele>411.9</ele>
        <time>2021-08-05T11:38:32Z</time>
      </trkpt>
      <trkpt lat="45.39609" lon="3.34096">
        <ele>412.2</ele>
        <time>2021-08-05T11:38:34Z</time>
      </trkpt>
      <trkpt lat="45.3961" lon="3.34102">
        <ele>412.4</ele>
        <time>2021-08-05T11:38:36Z</time>
      </trkpt>
      <trkpt lat="45.39611" lon="3.34108">
        <ele>412.5</ele>
        <time>2021-08-05T11:38:38Z</time>
      </trkpt>
      <trkpt lat="45.39612" lon="3.34113">
        <ele>412.6</ele>
        <time>2021-08-05T11:38:40Z</time>
      </trkpt>
      <trkpt lat="45.39613" lon="3.34118">
        <ele>412.8</ele>
        <time>2021-08-05T11:38:42Z</time>
      </trkpt>
      <trkpt lat="45.39613" lon="3.34124">
        <ele>412.9</ele>
        <time>2021-08-05T11:38:44Z</time>
      </trkpt>
      <trkpt lat="45.39614" lon="3.3413">
        <ele>413</ele>
        <time>2021-08-05T11:38:46Z</time>
      </trkpt>
      <trkpt lat="45.39614" lon="3.34136">
        <ele>413.1</ele>
        <time>2021-08-05T11:38:48Z</time>
      </trkpt>
      <trkpt lat="45.39614" lon="3.34143">
        <ele>413.3</ele>
        <time>2021-08-05T11:38:50Z</time>
      </trkpt>
      <trkpt lat="45.39614" lon="3.34149">
        <ele>413.4</ele>
        <time>2021-08-05T11:38:52Z</time>
      </trkpt>
      <trkpt lat="45.39614" lon="3.34156">
        <ele>413.5</ele>
        <time>2021-08-05T11:38:54Z</time>
      </trkpt>
      <trkpt lat="45.39614" lon="3.34162">
        <ele>413.7</ele>
        <time>2021-08-05T11:38:56Z</time>
      </trkpt>
      <trkpt lat="45.39614" lon="3.3417">
        <ele>413.8</ele>
        <time>2021-08-05T11:38:58Z</time>
      </trkpt>
      <trkpt lat="45.39614" lon="3.34177">
        <ele>414</ele>
        <time>2021-08-05T11:39:00Z</time>
      </trkpt>
      <trkpt lat="45.39614" lon="3.34185">
        <ele>414.2</ele>
        <time>2021-08-05T11:39:02Z</time>
      </trkpt>
      <trkpt lat="45.39615" lon="3.34193">
        <ele>414.5</ele>
        <time>2021-08-05T11:39:04Z</time>
      </trkpt>
      <trkpt lat="45.39615" lon="3.34201">
        <ele>414.7</ele>
        <time>2021-08-05T11:39:06Z</time>
      </trkpt>
      <trkpt lat="45.39615" lon="3.34209">
        <ele>414.9</ele>
        <time>2021-08-05T11:39:08Z</time>
      </trkpt>
      <trkpt lat="45.39615" lon="3.34216">
        <ele>415.1</ele>
        <time>2021-08-05T11:39:10Z</time>
      </trkpt>
      <trkpt lat="45.39615" lon="3.34224">
        <ele>415.3</ele>
        <time>2021-08-05T11:39:12Z</time>
      </trkpt>
      <trkpt lat="45.39615" lon="3.34233">
        <ele>415.5</ele>
        <time>2021-08-05T11:39:14Z</time>
      </trkpt>
      <trkpt lat="45.39616" lon="3.34242">
        <ele>415.8</ele>
        <time>2021-08-05T11:39:16Z</time>
      </trkpt>
      <trkpt lat="45.39616" lon="3.34252">
        <ele>416</ele>
        <time>2021-08-05T11:39:18Z</time>
      </trkpt>
      <trkpt lat="45.39619" lon="3.3426">
        <ele>416.1</ele>
        <time>2021-08-05T11:39:20Z</time>
      </trkpt>
      <trkpt lat="45.39621" lon="3.34269">
        <ele>416.2</ele>
        <time>2021-08-05T11:39:22Z</time>
      </trkpt>
      <trkpt lat="45.39625" lon="3.34278">
        <ele>416.3</ele>
        <time>2021-08-05T11:39:24Z</time>
      </trkpt>
      <trkpt lat="45.39629" lon="3.34286">
        <ele>416.4</ele>
        <time>2021-08-05T11:39:26Z</time>
      </trkpt>
      <trkpt lat="45.39633" lon="3.34294">
        <ele>416.5</ele>
        <time>2021-08-05T11:39:28Z</time>
      </trkpt>
      <trkpt lat="45.39637" lon="3.34302">
        <ele>416.6</ele>
        <time>2021-08-05T11:39:30Z</time>
      </trkpt>
      <trkpt lat="45.39641" lon="3.3431">
        <ele>416.7</ele>
        <time>2021-08-05T11:39:32Z</time>
      </trkpt>
      <trkpt lat="45.39645" lon="3.34318">
        <ele>416.8</ele>
        <time>2021-08-05T11:39:34Z</time>
      </trkpt>
      <trkpt lat="45.3965" lon="3.34325">
        <ele>416.9</ele>
        <time>2021-08-05T11:39:36Z</time>
      </trkpt>
      <trkpt lat="45.39652" lon="3.34333">
        <ele>417</ele>
        <time>2021-08-05T11:39:38Z</time>
      </trkpt>
      <trkpt lat="45.39656" lon="3.34341">
        <ele>417.1</ele>
        <time>2021-08-05T11:39:40Z</time>
      </trkpt>
      <trkpt lat="45.39658" lon="3.34349">
        <ele>417.3</ele>
        <time>2021-08-05T11:39:42Z</time>
      </trkpt>
      <trkpt lat="45.39659" lon="3.34358">
        <ele>417.5</ele>
        <time>2021-08-05T11:39:44Z</time>
      </trkpt>
      <trkpt lat="45.39656" lon="3.34367">
        <ele>417.6</ele>
        <time>2021-08-05T11:39:46Z</time>
      </trkpt>
      <trkpt lat="45.39651" lon="3.34373">
        <ele>417.6</ele>
        <time>2021-08-05T11:39:48Z</time>
      </trkpt>
      <trkpt lat="45.39645" lon="3.3438">
        <ele>417.5</ele>
        <time>2021-08-05T11:39:50Z</time>
      </trkpt>
      <trkpt lat="45.39638" lon="3.34385">
        <ele>417.4</ele>
        <time>2021-08-05T11:39:52Z</time>
      </trkpt>
      <trkpt lat="45.39631" lon="3.34391">
        <ele>417.2</ele>
        <time>2021-08-05T11:39:54Z</time>
      </trkpt>
      <trkpt lat="45.39623" lon="3.34399">
        <ele>416.9</ele>
        <time>2021-08-05T11:39:56Z</time>
      </trkpt>
      <trkpt lat="45.39614" lon="3.34407">
        <ele>416.5</ele>
        <time>2021-08-05T11:39:58Z</time>
      </trkpt>
      <trkpt lat="45.39605" lon="3.34415">
        <ele>416.1</ele>
        <time>2021-08-05T11:40:00Z</time>
      </trkpt>
      <trkpt lat="45.39596" lon="3.34423">
        <ele>415.4</ele>
        <time>2021-08-05T11:40:02Z</time>
      </trkpt>
      <trkpt lat="45.39586" lon="3.34432">
        <ele>414.7</ele>
        <time>2021-08-05T11:40:04Z</time>
      </trkpt>
      <trkpt lat="45.39576" lon="3.34441">
        <ele>414.2</ele>
        <time>2021-08-05T11:40:06Z</time>
      </trkpt>
      <trkpt lat="45.39566" lon="3.34451">
        <ele>413.7</ele>
        <time>2021-08-05T11:40:08Z</time>
      </trkpt>
      <trkpt lat="45.39555" lon="3.34461">
        <ele>413.1</ele>
        <time>2021-08-05T11:40:10Z</time>
      </trkpt>
      <trkpt lat="45.39543" lon="3.34473">
        <ele>412.4</ele>
        <time>2021-08-05T11:40:12Z</time>
      </trkpt>
      <trkpt lat="45.39531" lon="3.34485">
        <ele>411.6</ele>
        <time>2021-08-05T11:40:14Z</time>
      </trkpt>
      <trkpt lat="45.39518" lon="3.34498">
        <ele>410.7</ele>
        <time>2021-08-05T11:40:16Z</time>
      </trkpt>
      <trkpt lat="45.39505" lon="3.34512">
        <ele>409.8</ele>
        <time>2021-08-05T11:40:18Z</time>
      </trkpt>
      <trkpt lat="45.39491" lon="3.34526">
        <ele>408.9</ele>
        <time>2021-08-05T11:40:20Z</time>
      </trkpt>
      <trkpt lat="45.39477" lon="3.3454">
        <ele>408.1</ele>
        <time>2021-08-05T11:40:22Z</time>
      </trkpt>
      <trkpt lat="45.39462" lon="3.34556">
        <ele>407.4</ele>
        <time>2021-08-05T11:40:24Z</time>
      </trkpt>
      <trkpt lat="45.39447" lon="3.34571">
        <ele>406.7</ele>
        <time>2021-08-05T11:40:26Z</time>
      </trkpt>
      <trkpt lat="45.39431" lon="3.34586">
        <ele>406.2</ele>
        <time>2021-08-05T11:40:28Z</time>
      </trkpt>
      <trkpt lat="45.39416" lon="3.34601">
        <ele>406</ele>
        <time>2021-08-05T11:40:30Z</time>
      </trkpt>
      <trkpt lat="45.39402" lon="3.34616">
        <ele>405.3</ele>
        <time>2021-08-05T11:40:32Z</time>
      </trkpt>
      <trkpt lat="45.39387" lon="3.34631">
        <ele>404.8</ele>
        <time>2021-08-05T11:40:34Z</time>
      </trkpt>
      <trkpt lat="45.39372" lon="3.34646">
        <ele>404.3</ele>
        <time>2021-08-05T11:40:36Z</time>
      </trkpt>
      <trkpt lat="45.39358" lon="3.3466">
        <ele>403.8</ele>
        <time>2021-08-05T11:40:38Z</time>
      </trkpt>
      <trkpt lat="45.39345" lon="3.34673">
        <ele>403.5</ele>
        <time>2021-08-05T11:40:40Z</time>
      </trkpt>
      <trkpt lat="45.39331" lon="3.34687">
        <ele>403.5</ele>
        <time>2021-08-05T11:40:42Z</time>
      </trkpt>
      <trkpt lat="45.39319" lon="3.34701">
        <ele>404.1</ele>
        <time>2021-08-05T11:40:44Z</time>
      </trkpt>
      <trkpt lat="45.39307" lon="3.34715">
        <ele>404.9</ele>
        <time>2021-08-05T11:40:46Z</time>
      </trkpt>
      <trkpt lat="45.39296" lon="3.3473">
        <ele>405.7</ele>
        <time>2021-08-05T11:40:48Z</time>
      </trkpt>
      <trkpt lat="45.39285" lon="3.34744">
        <ele>406.5</ele>
        <time>2021-08-05T11:40:50Z</time>
      </trkpt>
      <trkpt lat="45.39276" lon="3.34759">
        <ele>407.4</ele>
        <time>2021-08-05T11:40:52Z</time>
      </trkpt>
      <trkpt lat="45.39266" lon="3.34774">
        <ele>408.1</ele>
        <time>2021-08-05T11:40:54Z</time>
      </trkpt>
      <trkpt lat="45.39258" lon="3.34789">
        <ele>408.5</ele>
        <time>2021-08-05T11:40:56Z</time>
      </trkpt>
      <trkpt lat="45.39251" lon="3.34804">
        <ele>408.7</ele>
        <time>2021-08-05T11:40:58Z</time>
      </trkpt>
      <trkpt lat="45.39243" lon="3.34819">
        <ele>408.8</ele>
        <time>2021-08-05T11:41:00Z</time>
      </trkpt>
      <trkpt lat="45.39236" lon="3.34834">
        <ele>409</ele>
        <time>2021-08-05T11:41:02Z</time>
      </trkpt>
      <trkpt lat="45.3923" lon="3.34849">
        <ele>410.4</ele>
        <time>2021-08-05T11:41:04Z</time>
      </trkpt>
      <trkpt lat="45.39223" lon="3.34865">
        <ele>411.6</ele>
        <time>2021-08-05T11:41:06Z</time>
      </trkpt>
      <trkpt lat="45.39217" lon="3.34881">
        <ele>412.5</ele>
        <time>2021-08-05T11:41:08Z</time>
      </trkpt>
      <trkpt lat="45.39211" lon="3.34896">
        <ele>413.3</ele>
        <time>2021-08-05T11:41:10Z</time>
      </trkpt>
      <trkpt lat="45.39206" lon="3.34912">
        <ele>414</ele>
        <time>2021-08-05T11:41:12Z</time>
      </trkpt>
      <trkpt lat="45.392" lon="3.34928">
        <ele>414.4</ele>
        <time>2021-08-05T11:41:14Z</time>
      </trkpt>
      <trkpt lat="45.39195" lon="3.34943">
        <ele>414.5</ele>
        <time>2021-08-05T11:41:16Z</time>
      </trkpt>
      <trkpt lat="45.39189" lon="3.34959">
        <ele>414.5</ele>
        <time>2021-08-05T11:41:18Z</time>
      </trkpt>
      <trkpt lat="45.39184" lon="3.34975">
        <ele>414.3</ele>
        <time>2021-08-05T11:41:20Z</time>
      </trkpt>
      <trkpt lat="45.39179" lon="3.3499">
        <ele>414</ele>
        <time>2021-08-05T11:41:22Z</time>
      </trkpt>
      <trkpt lat="45.39174" lon="3.35006">
        <ele>413.5</ele>
        <time>2021-08-05T11:41:24Z</time>
      </trkpt>
      <trkpt lat="45.39169" lon="3.35021">
        <ele>413.4</ele>
        <time>2021-08-05T11:41:26Z</time>
      </trkpt>
      <trkpt lat="45.39165" lon="3.35037">
        <ele>413.6</ele>
        <time>2021-08-05T11:41:28Z</time>
      </trkpt>
      <trkpt lat="45.39162" lon="3.35053">
        <ele>414</ele>
        <time>2021-08-05T11:41:30Z</time>
      </trkpt>
      <trkpt lat="45.39158" lon="3.35068">
        <ele>414.3</ele>
        <time>2021-08-05T11:41:32Z</time>
      </trkpt>
      <trkpt lat="45.39155" lon="3.35084">
        <ele>414.5</ele>
        <time>2021-08-05T11:41:34Z</time>
      </trkpt>
      <trkpt lat="45.39152" lon="3.351">
        <ele>415</ele>
        <time>2021-08-05T11:41:36Z</time>
      </trkpt>
      <trkpt lat="45.39149" lon="3.35115">
        <ele>415.5</ele>
        <time>2021-08-05T11:41:38Z</time>
      </trkpt>
      <trkpt lat="45.39146" lon="3.3513">
        <ele>415.9</ele>
        <time>2021-08-05T11:41:40Z</time>
      </trkpt>
      <trkpt lat="45.39142" lon="3.35145">
        <ele>416.3</ele>
        <time>2021-08-05T11:41:42Z</time>
      </trkpt>
      <trkpt lat="45.39139" lon="3.3516">
        <ele>416.6</ele>
        <time>2021-08-05T11:41:44Z</time>
      </trkpt>
      <trkpt lat="45.39135" lon="3.35175">
        <ele>416.9</ele>
        <time>2021-08-05T11:41:46Z</time>
      </trkpt>
      <trkpt lat="45.39132" lon="3.35189">
        <ele>416.9</ele>
        <time>2021-08-05T11:41:48Z</time>
      </trkpt>
      <trkpt lat="45.39127" lon="3.35202">
        <ele>416.9</ele>
        <time>2021-08-05T11:41:50Z</time>
      </trkpt>
      <trkpt lat="45.39123" lon="3.35216">
        <ele>416.8</ele>
        <time>2021-08-05T11:41:52Z</time>
      </trkpt>
      <trkpt lat="45.39118" lon="3.3523">
        <ele>416.5</ele>
        <time>2021-08-05T11:41:54Z</time>
      </trkpt>
      <trkpt lat="45.39114" lon="3.35244">
        <ele>416.3</ele>
        <time>2021-08-05T11:41:56Z</time>
      </trkpt>
      <trkpt lat="45.39109" lon="3.35258">
        <ele>416.2</ele>
        <time>2021-08-05T11:41:58Z</time>
      </trkpt>
      <trkpt lat="45.39104" lon="3.35271">
        <ele>416.4</ele>
        <time>2021-08-05T11:42:00Z</time>
      </trkpt>
      <trkpt lat="45.39098" lon="3.35284">
        <ele>416.5</ele>
        <time>2021-08-05T11:42:02Z</time>
      </trkpt>
      <trkpt lat="45.39092" lon="3.35297">
        <ele>416.6</ele>
        <time>2021-08-05T11:42:04Z</time>
      </trkpt>
      <trkpt lat="45.39087" lon="3.3531">
        <ele>416.7</ele>
        <time>2021-08-05T11:42:06Z</time>
      </trkpt>
      <trkpt lat="45.39081" lon="3.35323">
        <ele>416.8</ele>
        <time>2021-08-05T11:42:08Z</time>
      </trkpt>
      <trkpt lat="45.39074" lon="3.35336">
        <ele>416.9</ele>
        <time>2021-08-05T11:42:10Z</time>
      </trkpt>
      <trkpt lat="45.39067" lon="3.35349">
        <ele>417.1</ele>
        <time>2021-08-05T11:42:12Z</time>
      </trkpt>
      <trkpt lat="45.39059" lon="3.35361">
        <ele>417</ele>
        <time>2021-08-05T11:42:14Z</time>
      </trkpt>
      <trkpt lat="45.39052" lon="3.35373">
        <ele>416.7</ele>
        <time>2021-08-05T11:42:16Z</time>
      </trkpt>
      <trkpt lat="45.39044" lon="3.35385">
        <ele>416.2</ele>
        <time>2021-08-05T11:42:18Z</time>
      </trkpt>
      <trkpt lat="45.39036" lon="3.35397">
        <ele>415.5</ele>
        <time>2021-08-05T11:42:20Z</time>
      </trkpt>
      <trkpt lat="45.39028" lon="3.35409">
        <ele>414.6</ele>
        <time>2021-08-05T11:42:22Z</time>
      </trkpt>
      <trkpt lat="45.39021" lon="3.35422">
        <ele>414</ele>
        <time>2021-08-05T11:42:24Z</time>
      </trkpt>
      <trkpt lat="45.39013" lon="3.35434">
        <ele>413.5</ele>
        <time>2021-08-05T11:42:26Z</time>
      </trkpt>
      <trkpt lat="45.39005" lon="3.35446">
        <ele>412.9</ele>
        <time>2021-08-05T11:42:28Z</time>
      </trkpt>
      <trkpt lat="45.38997" lon="3.35458">
        <ele>412.8</ele>
        <time>2021-08-05T11:42:30Z</time>
      </trkpt>
      <trkpt lat="45.38991" lon="3.35472">
        <ele>413.4</ele>
        <time>2021-08-05T11:42:32Z</time>
      </trkpt>
      <trkpt lat="45.38986" lon="3.35485">
        <ele>414.1</ele>
        <time>2021-08-05T11:42:34Z</time>
      </trkpt>
      <trkpt lat="45.38981" lon="3.35499">
        <ele>414.6</ele>
        <time>2021-08-05T11:42:36Z</time>
      </trkpt>
      <trkpt lat="45.38977" lon="3.35512">
        <ele>414.9</ele>
        <time>2021-08-05T11:42:38Z</time>
      </trkpt>
      <trkpt lat="45.38974" lon="3.35526">
        <ele>415.2</ele>
        <time>2021-08-05T11:42:40Z</time>
      </trkpt>
      <trkpt lat="45.38971" lon="3.3554">
        <ele>415.6</ele>
        <time>2021-08-05T11:42:42Z</time>
      </trkpt>
      <trkpt lat="45.38968" lon="3.35553">
        <ele>415.8</ele>
        <time>2021-08-05T11:42:44Z</time>
      </trkpt>
      <trkpt lat="45.38966" lon="3.35565">
        <ele>416</ele>
        <time>2021-08-05T11:42:46Z</time>
      </trkpt>
      <trkpt lat="45.38964" lon="3.35578">
        <ele>416.2</ele>
        <time>2021-08-05T11:42:48Z</time>
      </trkpt>
      <trkpt lat="45.38962" lon="3.3559">
        <ele>416.2</ele>
        <time>2021-08-05T11:42:50Z</time>
      </trkpt>
      <trkpt lat="45.38961" lon="3.35602">
        <ele>416</ele>
        <time>2021-08-05T11:42:52Z</time>
      </trkpt>
      <trkpt lat="45.38961" lon="3.35614">
        <ele>416</ele>
        <time>2021-08-05T11:42:54Z</time>
      </trkpt>
      <trkpt lat="45.3896" lon="3.35625">
        <ele>415.9</ele>
        <time>2021-08-05T11:42:56Z</time>
      </trkpt>
      <trkpt lat="45.3896" lon="3.35637">
        <ele>415.7</ele>
        <time>2021-08-05T11:42:58Z</time>
      </trkpt>
      <trkpt lat="45.38959" lon="3.35648">
        <ele>415.6</ele>
        <time>2021-08-05T11:43:00Z</time>
      </trkpt>
      <trkpt lat="45.38958" lon="3.3566">
        <ele>415.5</ele>
        <time>2021-08-05T11:43:02Z</time>
      </trkpt>
      <trkpt lat="45.38958" lon="3.35671">
        <ele>415.5</ele>
        <time>2021-08-05T11:43:04Z</time>
      </trkpt>
      <trkpt lat="45.38957" lon="3.35681">
        <ele>415.6</ele>
        <time>2021-08-05T11:43:06Z</time>
      </trkpt>
      <trkpt lat="45.38955" lon="3.35692">
        <ele>415.7</ele>
        <time>2021-08-05T11:43:08Z</time>
      </trkpt>
      <trkpt lat="45.38954" lon="3.35702">
        <ele>415.8</ele>
        <time>2021-08-05T11:43:10Z</time>
      </trkpt>
      <trkpt lat="45.38953" lon="3.35712">
        <ele>415.8</ele>
        <time>2021-08-05T11:43:12Z</time>
      </trkpt>
      <trkpt lat="45.38951" lon="3.35723">
        <ele>415.7</ele>
        <time>2021-08-05T11:43:14Z</time>
      </trkpt>
      <trkpt lat="45.38949" lon="3.35733">
        <ele>415.6</ele>
        <time>2021-08-05T11:43:16Z</time>
      </trkpt>
      <trkpt lat="45.38947" lon="3.35743">
        <ele>415.3</ele>
        <time>2021-08-05T11:43:18Z</time>
      </trkpt>
      <trkpt lat="45.38944" lon="3.35753">
        <ele>415.3</ele>
        <time>2021-08-05T11:43:20Z</time>
      </trkpt>
      <trkpt lat="45.38942" lon="3.35763">
        <ele>415.9</ele>
        <time>2021-08-05T11:43:22Z</time>
      </trkpt>
      <trkpt lat="45.38939" lon="3.35773">
        <ele>416.5</ele>
        <time>2021-08-05T11:43:24Z</time>
      </trkpt>
      <trkpt lat="45.38937" lon="3.35783">
        <ele>417</ele>
        <time>2021-08-05T11:43:26Z</time>
      </trkpt>
      <trkpt lat="45.38934" lon="3.35794">
        <ele>417.5</ele>
        <time>2021-08-05T11:43:28Z</time>
      </trkpt>
      <trkpt lat="45.38932" lon="3.35804">
        <ele>417.8</ele>
        <time>2021-08-05T11:43:30Z</time>
      </trkpt>
      <trkpt lat="45.38929" lon="3.35815">
        <ele>418</ele>
        <time>2021-08-05T11:43:32Z</time>
      </trkpt>
      <trkpt lat="45.38926" lon="3.35826">
        <ele>418.2</ele>
        <time>2021-08-05T11:43:34Z</time>
      </trkpt>
      <trkpt lat="45.38923" lon="3.35836">
        <ele>418.2</ele>
        <time>2021-08-05T11:43:36Z</time>
      </trkpt>
      <trkpt lat="45.38919" lon="3.35847">
        <ele>418.2</ele>
        <time>2021-08-05T11:43:38Z</time>
      </trkpt>
      <trkpt lat="45.38916" lon="3.35859">
        <ele>418.4</ele>
        <time>2021-08-05T11:43:40Z</time>
      </trkpt>
      <trkpt lat="45.38913" lon="3.35871">
        <ele>418.9</ele>
        <time>2021-08-05T11:43:42Z</time>
      </trkpt>
      <trkpt lat="45.38909" lon="3.35883">
        <ele>419.4</ele>
        <time>2021-08-05T11:43:44Z</time>
      </trkpt>
      <trkpt lat="45.38906" lon="3.35895">
        <ele>419.9</ele>
        <time>2021-08-05T11:43:46Z</time>
      </trkpt>
      <trkpt lat="45.38902" lon="3.35907">
        <ele>420.2</ele>
        <time>2021-08-05T11:43:48Z</time>
      </trkpt>
      <trkpt lat="45.38898" lon="3.35919">
        <ele>420.3</ele>
        <time>2021-08-05T11:43:50Z</time>
      </trkpt>
      <trkpt lat="45.38894" lon="3.35932">
        <ele>419.6</ele>
        <time>2021-08-05T11:43:52Z</time>
      </trkpt>
      <trkpt lat="45.38891" lon="3.35944">
        <ele>419</ele>
        <time>2021-08-05T11:43:54Z</time>
      </trkpt>
      <trkpt lat="45.38887" lon="3.35957">
        <ele>418.4</ele>
        <time>2021-08-05T11:43:56Z</time>
      </trkpt>
      <trkpt lat="45.38883" lon="3.3597">
        <ele>417.9</ele>
        <time>2021-08-05T11:43:58Z</time>
      </trkpt>
      <trkpt lat="45.38879" lon="3.35983">
        <ele>417.4</ele>
        <time>2021-08-05T11:44:00Z</time>
      </trkpt>
      <trkpt lat="45.38875" lon="3.35996">
        <ele>416.9</ele>
        <time>2021-08-05T11:44:02Z</time>
      </trkpt>
      <trkpt lat="45.38868" lon="3.36009">
        <ele>415.6</ele>
        <time>2021-08-05T11:44:04Z</time>
      </trkpt>
      <trkpt lat="45.38859" lon="3.36016">
        <ele>413.9</ele>
        <time>2021-08-05T11:44:06Z</time>
      </trkpt>
      <trkpt lat="45.38847" lon="3.36014">
        <ele>412.1</ele>
        <time>2021-08-05T11:44:08Z</time>
      </trkpt>
      <trkpt lat="45.38835" lon="3.36005">
        <ele>410.3</ele>
        <time>2021-08-05T11:44:10Z</time>
      </trkpt>
      <trkpt lat="45.38825" lon="3.35993">
        <ele>409.6</ele>
        <time>2021-08-05T11:44:12Z</time>
      </trkpt>
      <trkpt lat="45.38815" lon="3.35983">
        <ele>409</ele>
        <time>2021-08-05T11:44:14Z</time>
      </trkpt>
      <trkpt lat="45.38804" lon="3.35973">
        <ele>408.4</ele>
        <time>2021-08-05T11:44:16Z</time>
      </trkpt>
      <trkpt lat="45.38794" lon="3.35961">
        <ele>407.9</ele>
        <time>2021-08-05T11:44:18Z</time>
      </trkpt>
      <trkpt lat="45.38784" lon="3.3595">
        <ele>407.4</ele>
        <time>2021-08-05T11:44:20Z</time>
      </trkpt>
      <trkpt lat="45.38774" lon="3.35939">
        <ele>406.9</ele>
        <time>2021-08-05T11:44:22Z</time>
      </trkpt>
      <trkpt lat="45.38764" lon="3.35929">
        <ele>406.5</ele>
        <time>2021-08-05T11:44:24Z</time>
      </trkpt>
      <trkpt lat="45.38754" lon="3.35918">
        <ele>406.1</ele>
        <time>2021-08-05T11:44:26Z</time>
      </trkpt>
      <trkpt lat="45.38745" lon="3.35908">
        <ele>406</ele>
        <time>2021-08-05T11:44:28Z</time>
      </trkpt>
      <trkpt lat="45.38736" lon="3.35899">
        <ele>406</ele>
        <time>2021-08-05T11:44:30Z</time>
      </trkpt>
      <trkpt lat="45.38726" lon="3.3589">
        <ele>406.1</ele>
        <time>2021-08-05T11:44:32Z</time>
      </trkpt>
      <trkpt lat="45.38716" lon="3.35883">
        <ele>406.2</ele>
        <time>2021-08-05T11:44:34Z</time>
      </trkpt>
      <trkpt lat="45.38706" lon="3.35876">
        <ele>406.4</ele>
        <time>2021-08-05T11:44:36Z</time>
      </trkpt>
      <trkpt lat="45.38696" lon="3.3587">
        <ele>406.5</ele>
        <time>2021-08-05T11:44:38Z</time>
      </trkpt>
      <trkpt lat="45.38686" lon="3.35863">
        <ele>406.5</ele>
        <time>2021-08-05T11:44:40Z</time>
      </trkpt>
      <trkpt lat="45.38676" lon="3.35856">
        <ele>406.6</ele>
        <time>2021-08-05T11:44:42Z</time>
      </trkpt>
      <trkpt lat="45.38667" lon="3.3585">
        <ele>406.6</ele>
        <time>2021-08-05T11:44:44Z</time>
      </trkpt>
      <trkpt lat="45.38658" lon="3.35844">
        <ele>406.3</ele>
        <time>2021-08-05T11:44:46Z</time>
      </trkpt>
      <trkpt lat="45.38649" lon="3.35841">
        <ele>406.2</ele>
        <time>2021-08-05T11:44:48Z</time>
      </trkpt>
      <trkpt lat="45.38642" lon="3.35841">
        <ele>406.2</ele>
        <time>2021-08-05T11:44:50Z</time>
      </trkpt>
      <trkpt lat="45.38635" lon="3.35844">
        <ele>406.2</ele>
        <time>2021-08-05T11:44:52Z</time>
      </trkpt>
      <trkpt lat="45.3863" lon="3.35847">
        <ele>406.2</ele>
        <time>2021-08-05T11:44:54Z</time>
      </trkpt>
      <trkpt lat="45.38625" lon="3.35852">
        <ele>406.2</ele>
        <time>2021-08-05T11:44:56Z</time>
      </trkpt>
      <trkpt lat="45.38625" lon="3.35863">
        <ele>406.4</ele>
        <time>2021-08-05T11:44:58Z</time>
      </trkpt>
      <trkpt lat="45.38627" lon="3.35874">
        <ele>406.5</ele>
        <time>2021-08-05T11:45:00Z</time>
      </trkpt>
      <trkpt lat="45.3863" lon="3.35884">
        <ele>406.8</ele>
        <time>2021-08-05T11:45:02Z</time>
      </trkpt>
      <trkpt lat="45.38633" lon="3.35895">
        <ele>407</ele>
        <time>2021-08-05T11:45:04Z</time>
      </trkpt>
      <trkpt lat="45.38636" lon="3.35906">
        <ele>407.3</ele>
        <time>2021-08-05T11:45:06Z</time>
      </trkpt>
      <trkpt lat="45.3864" lon="3.35917">
        <ele>407.7</ele>
        <time>2021-08-05T11:45:08Z</time>
      </trkpt>
      <trkpt lat="45.38643" lon="3.35928">
        <ele>407.8</ele>
        <time>2021-08-05T11:45:10Z</time>
      </trkpt>
      <trkpt lat="45.38647" lon="3.3594">
        <ele>407.9</ele>
        <time>2021-08-05T11:45:12Z</time>
      </trkpt>
      <trkpt lat="45.3865" lon="3.35952">
        <ele>408</ele>
        <time>2021-08-05T11:45:14Z</time>
      </trkpt>
      <trkpt lat="45.38654" lon="3.35963">
        <ele>408</ele>
        <time>2021-08-05T11:45:16Z</time>
      </trkpt>
      <trkpt lat="45.38657" lon="3.35974">
        <ele>408</ele>
        <time>2021-08-05T11:45:18Z</time>
      </trkpt>
      <trkpt lat="45.38661" lon="3.35985">
        <ele>408</ele>
        <time>2021-08-05T11:45:20Z</time>
      </trkpt>
      <trkpt lat="45.38664" lon="3.35997">
        <ele>408</ele>
        <time>2021-08-05T11:45:22Z</time>
      </trkpt>
      <trkpt lat="45.38667" lon="3.36008">
        <ele>408.1</ele>
        <time>2021-08-05T11:45:24Z</time>
      </trkpt>
      <trkpt lat="45.3867" lon="3.36019">
        <ele>408.2</ele>
        <time>2021-08-05T11:45:26Z</time>
      </trkpt>
      <trkpt lat="45.38673" lon="3.36031">
        <ele>408.4</ele>
        <time>2021-08-05T11:45:28Z</time>
      </trkpt>
      <trkpt lat="45.38677" lon="3.36042">
        <ele>408.5</ele>
        <time>2021-08-05T11:45:30Z</time>
      </trkpt>
      <trkpt lat="45.3868" lon="3.36054">
        <ele>408.6</ele>
        <time>2021-08-05T11:45:32Z</time>
      </trkpt>
      <trkpt lat="45.38684" lon="3.36065">
        <ele>408.8</ele>
        <time>2021-08-05T11:45:34Z</time>
      </trkpt>
      <trkpt lat="45.38687" lon="3.36075">
        <ele>408.9</ele>
        <time>2021-08-05T11:45:36Z</time>
      </trkpt>
      <trkpt lat="45.3869" lon="3.36086">
        <ele>409.1</ele>
        <time>2021-08-05T11:45:38Z</time>
      </trkpt>
      <trkpt lat="45.38692" lon="3.36096">
        <ele>409.5</ele>
        <time>2021-08-05T11:45:40Z</time>
      </trkpt>
      <trkpt lat="45.38695" lon="3.36106">
        <ele>409.8</ele>
        <time>2021-08-05T11:45:42Z</time>
      </trkpt>
      <trkpt lat="45.38697" lon="3.36116">
        <ele>410.1</ele>
        <time>2021-08-05T11:45:44Z</time>
      </trkpt>
      <trkpt lat="45.387" lon="3.36125">
        <ele>410.4</ele>
        <time>2021-08-05T11:45:46Z</time>
      </trkpt>
      <trkpt lat="45.38703" lon="3.36134">
        <ele>410.6</ele>
        <time>2021-08-05T11:45:48Z</time>
      </trkpt>
      <trkpt lat="45.38705" lon="3.36143">
        <ele>410.9</ele>
        <time>2021-08-05T11:45:50Z</time>
      </trkpt>
      <trkpt lat="45.38705" lon="3.36152">
        <ele>411.2</ele>
        <time>2021-08-05T11:45:52Z</time>
      </trkpt>
      <trkpt lat="45.38703" lon="3.36161">
        <ele>411.5</ele>
        <time>2021-08-05T11:45:54Z</time>
      </trkpt>
      <trkpt lat="45.38699" lon="3.36168">
        <ele>412</ele>
        <time>2021-08-05T11:45:56Z</time>
      </trkpt>
      <trkpt lat="45.38694" lon="3.36174">
        <ele>412.7</ele>
        <time>2021-08-05T11:45:58Z</time>
      </trkpt>
      <trkpt lat="45.38688" lon="3.3618">
        <ele>413.3</ele>
        <time>2021-08-05T11:46:00Z</time>
      </trkpt>
      <trkpt lat="45.38683" lon="3.36185">
        <ele>413.9</ele>
        <time>2021-08-05T11:46:02Z</time>
      </trkpt>
      <trkpt lat="45.38676" lon="3.36188">
        <ele>414.3</ele>
        <time>2021-08-05T11:46:04Z</time>
      </trkpt>
      <trkpt lat="45.38669" lon="3.36189">
        <ele>414.6</ele>
        <time>2021-08-05T11:46:06Z</time>
      </trkpt>
      <trkpt lat="45.38662" lon="3.36192">
        <ele>414.9</ele>
        <time>2021-08-05T11:46:08Z</time>
      </trkpt>
      <trkpt lat="45.38655" lon="3.36193">
        <ele>415</ele>
        <time>2021-08-05T11:46:10Z</time>
      </trkpt>
      <trkpt lat="45.38648" lon="3.36193">
        <ele>415</ele>
        <time>2021-08-05T11:46:12Z</time>
      </trkpt>
      <trkpt lat="45.3864" lon="3.36193">
        <ele>415.1</ele>
        <time>2021-08-05T11:46:14Z</time>
      </trkpt>
      <trkpt lat="45.38633" lon="3.36193">
        <ele>415.2</ele>
        <time>2021-08-05T11:46:16Z</time>
      </trkpt>
      <trkpt lat="45.38625" lon="3.36194">
        <ele>415.3</ele>
        <time>2021-08-05T11:46:18Z</time>
      </trkpt>
      <trkpt lat="45.38617" lon="3.36196">
        <ele>415.5</ele>
        <time>2021-08-05T11:46:20Z</time>
      </trkpt>
      <trkpt lat="45.3861" lon="3.36196">
        <ele>415.6</ele>
        <time>2021-08-05T11:46:22Z</time>
      </trkpt>
      <trkpt lat="45.38602" lon="3.36197">
        <ele>415.7</ele>
        <time>2021-08-05T11:46:24Z</time>
      </trkpt>
      <trkpt lat="45.38594" lon="3.36199">
        <ele>415.9</ele>
        <time>2021-08-05T11:46:26Z</time>
      </trkpt>
      <trkpt lat="45.38586" lon="3.36202">
        <ele>416.1</ele>
        <time>2021-08-05T11:46:28Z</time>
      </trkpt>
      <trkpt lat="45.38578" lon="3.36205">
        <ele>416.1</ele>
        <time>2021-08-05T11:46:30Z</time>
      </trkpt>
      <trkpt lat="45.38569" lon="3.36208">
        <ele>415.8</ele>
        <time>2021-08-05T11:46:32Z</time>
      </trkpt>
      <trkpt lat="45.38561" lon="3.36211">
        <ele>415.6</ele>
        <time>2021-08-05T11:46:34Z</time>
      </trkpt>
      <trkpt lat="45.38552" lon="3.36214">
        <ele>415.4</ele>
        <time>2021-08-05T11:46:36Z</time>
      </trkpt>
      <trkpt lat="45.38544" lon="3.36217">
        <ele>415.1</ele>
        <time>2021-08-05T11:46:38Z</time>
      </trkpt>
      <trkpt lat="45.38535" lon="3.36219">
        <ele>414.8</ele>
        <time>2021-08-05T11:46:40Z</time>
      </trkpt>
      <trkpt lat="45.38525" lon="3.36222">
        <ele>414.5</ele>
        <time>2021-08-05T11:46:42Z</time>
      </trkpt>
      <trkpt lat="45.38515" lon="3.36225">
        <ele>414.2</ele>
        <time>2021-08-05T11:46:44Z</time>
      </trkpt>
      <trkpt lat="45.38505" lon="3.36227">
        <ele>413.9</ele>
        <time>2021-08-05T11:46:46Z</time>
      </trkpt>
      <trkpt lat="45.38494" lon="3.36228">
        <ele>413.6</ele>
        <time>2021-08-05T11:46:48Z</time>
      </trkpt>
      <trkpt lat="45.38483" lon="3.36226">
        <ele>413.4</ele>
        <time>2021-08-05T11:46:50Z</time>
      </trkpt>
      <trkpt lat="45.38472" lon="3.36222">
        <ele>413.1</ele>
        <time>2021-08-05T11:46:52Z</time>
      </trkpt>
      <trkpt lat="45.38461" lon="3.36218">
        <ele>412.8</ele>
        <time>2021-08-05T11:46:54Z</time>
      </trkpt>
      <trkpt lat="45.3845" lon="3.36214">
        <ele>412.5</ele>
        <time>2021-08-05T11:46:56Z</time>
      </trkpt>
      <trkpt lat="45.38439" lon="3.36211">
        <ele>412.3</ele>
        <time>2021-08-05T11:46:58Z</time>
      </trkpt>
      <trkpt lat="45.38427" lon="3.36209">
        <ele>412.1</ele>
        <time>2021-08-05T11:47:00Z</time>
      </trkpt>
      <trkpt lat="45.38416" lon="3.36206">
        <ele>411.9</ele>
        <time>2021-08-05T11:47:02Z</time>
      </trkpt>
      <trkpt lat="45.38405" lon="3.36206">
        <ele>411.9</ele>
        <time>2021-08-05T11:47:04Z</time>
      </trkpt>
      <trkpt lat="45.38394" lon="3.36205">
        <ele>411.9</ele>
        <time>2021-08-05T11:47:06Z</time>
      </trkpt>
      <trkpt lat="45.38382" lon="3.36205">
        <ele>411.9</ele>
        <time>2021-08-05T11:47:08Z</time>
      </trkpt>
      <trkpt lat="45.38371" lon="3.36204">
        <ele>411.9</ele>
        <time>2021-08-05T11:47:10Z</time>
      </trkpt>
      <trkpt lat="45.3836" lon="3.36203">
        <ele>411.8</ele>
        <time>2021-08-05T11:47:12Z</time>
      </trkpt>
      <trkpt lat="45.38349" lon="3.36202">
        <ele>411.8</ele>
        <time>2021-08-05T11:47:14Z</time>
      </trkpt>
      <trkpt lat="45.38338" lon="3.362">
        <ele>411.8</ele>
        <time>2021-08-05T11:47:16Z</time>
      </trkpt>
      <trkpt lat="45.38328" lon="3.36198">
        <ele>411.7</ele>
        <time>2021-08-05T11:47:18Z</time>
      </trkpt>
      <trkpt lat="45.38317" lon="3.36196">
        <ele>411.6</ele>
        <time>2021-08-05T11:47:20Z</time>
      </trkpt>
      <trkpt lat="45.38307" lon="3.36192">
        <ele>411.4</ele>
        <time>2021-08-05T11:47:22Z</time>
      </trkpt>
      <trkpt lat="45.38297" lon="3.36189">
        <ele>411.2</ele>
        <time>2021-08-05T11:47:24Z</time>
      </trkpt>
      <trkpt lat="45.38287" lon="3.36184">
        <ele>411</ele>
        <time>2021-08-05T11:47:26Z</time>
      </trkpt>
      <trkpt lat="45.38277" lon="3.36179">
        <ele>410.7</ele>
        <time>2021-08-05T11:47:28Z</time>
      </trkpt>
      <trkpt lat="45.38268" lon="3.36173">
        <ele>410.4</ele>
        <time>2021-08-05T11:47:30Z</time>
      </trkpt>
      <trkpt lat="45.38258" lon="3.36168">
        <ele>410.1</ele>
        <time>2021-08-05T11:47:32Z</time>
      </trkpt>
      <trkpt lat="45.38249" lon="3.36162">
        <ele>409.7</ele>
        <time>2021-08-05T11:47:34Z</time>
      </trkpt>
      <trkpt lat="45.38239" lon="3.36155">
        <ele>409.3</ele>
        <time>2021-08-05T11:47:36Z</time>
      </trkpt>
      <trkpt lat="45.38229" lon="3.36149">
        <ele>408.9</ele>
        <time>2021-08-05T11:47:38Z</time>
      </trkpt>
      <trkpt lat="45.38217" lon="3.36144">
        <ele>408.5</ele>
        <time>2021-08-05T11:47:40Z</time>
      </trkpt>
      <trkpt lat="45.38205" lon="3.36143">
        <ele>408.3</ele>
        <time>2021-08-05T11:47:42Z</time>
      </trkpt>
      <trkpt lat="45.38191" lon="3.36142">
        <ele>408.1</ele>
        <time>2021-08-05T11:47:44Z</time>
      </trkpt>
      <trkpt lat="45.38179" lon="3.36141">
        <ele>407.9</ele>
        <time>2021-08-05T11:47:46Z</time>
      </trkpt>
      <trkpt lat="45.3817" lon="3.3614">
        <ele>407.8</ele>
        <time>2021-08-05T11:47:48Z</time>
      </trkpt>
      <trkpt lat="45.38163" lon="3.36138">
        <ele>407.6</ele>
        <time>2021-08-05T11:47:50Z</time>
      </trkpt>
      <trkpt lat="45.38156" lon="3.36138">
        <ele>407.4</ele>
        <time>2021-08-05T11:47:52Z</time>
      </trkpt>
      <trkpt lat="45.38151" lon="3.36138">
        <ele>407.3</ele>
        <time>2021-08-05T11:47:54Z</time>
      </trkpt>
      <trkpt lat="45.38145" lon="3.36139">
        <ele>407.2</ele>
        <time>2021-08-05T11:47:56Z</time>
      </trkpt>
      <trkpt lat="45.3814" lon="3.3614">
        <ele>407.2</ele>
        <time>2021-08-05T11:47:58Z</time>
      </trkpt>
      <trkpt lat="45.38136" lon="3.36137">
        <ele>407</ele>
        <time>2021-08-05T11:48:00Z</time>
      </trkpt>
      <trkpt lat="45.38137" lon="3.36128">
        <ele>406.6</ele>
        <time>2021-08-05T11:48:02Z</time>
      </trkpt>
      <trkpt lat="45.38139" lon="3.36122">
        <ele>406.4</ele>
        <time>2021-08-05T11:48:04Z</time>
      </trkpt>
      <trkpt lat="45.38138" lon="3.3612">
        <ele>406.3</ele>
        <time>2021-08-05T11:48:06Z</time>
      </trkpt>
      <trkpt lat="45.38138" lon="3.36121">
        <ele>406.3</ele>
        <time>2021-08-05T11:48:08Z</time>
      </trkpt>
      <trkpt lat="45.38138" lon="3.36121">
        <ele>406.3</ele>
        <time>2021-08-05T11:48:10Z</time>
      </trkpt>
      <trkpt lat="45.38138" lon="3.36121">
        <ele>406.3</ele>
        <time>2021-08-05T11:48:12Z</time>
      </trkpt>
      <trkpt lat="45.38137" lon="3.3612">
        <ele>406.3</ele>
        <time>2021-08-05T11:48:14Z</time>
      </trkpt>
      <trkpt lat="45.3815" lon="3.36125">
        <ele>406.7</ele>
        <time>2021-08-05T13:28:04Z</time>
      </trkpt>
      <trkpt lat="45.38158" lon="3.36122">
        <ele>406.7</ele>
        <time>2021-08-05T13:28:06Z</time>
      </trkpt>
      <trkpt lat="45.38162" lon="3.36119">
        <ele>406.6</ele>
        <time>2021-08-05T13:28:08Z</time>
      </trkpt>
      <trkpt lat="45.3816" lon="3.36115">
        <ele>406.4</ele>
        <time>2021-08-05T13:28:10Z</time>
      </trkpt>
      <trkpt lat="45.38157" lon="3.36114">
        <ele>406.3</ele>
        <time>2021-08-05T13:28:12Z</time>
      </trkpt>
      <trkpt lat="45.38155" lon="3.36116">
        <ele>406.4</ele>
        <time>2021-08-05T13:28:14Z</time>
      </trkpt>
      <trkpt lat="45.38152" lon="3.36119">
        <ele>406.5</ele>
        <time>2021-08-05T13:28:16Z</time>
      </trkpt>
      <trkpt lat="45.38151" lon="3.36124">
        <ele>406.7</ele>
        <time>2021-08-05T13:28:18Z</time>
      </trkpt>
      <trkpt lat="45.38147" lon="3.36127">
        <ele>406.7</ele>
        <time>2021-08-05T13:28:20Z</time>
      </trkpt>
      <trkpt lat="45.38143" lon="3.36128">
        <ele>406.7</ele>
        <time>2021-08-05T13:28:22Z</time>
      </trkpt>
      <trkpt lat="45.3814" lon="3.3613">
        <ele>406.7</ele>
        <time>2021-08-05T13:28:24Z</time>
      </trkpt>
      <trkpt lat="45.38137" lon="3.36132">
        <ele>406.8</ele>
        <time>2021-08-05T13:28:26Z</time>
      </trkpt>
      <trkpt lat="45.38135" lon="3.36134">
        <ele>406.8</ele>
        <time>2021-08-05T13:28:28Z</time>
      </trkpt>
      <trkpt lat="45.38133" lon="3.36136">
        <ele>406.8</ele>
        <time>2021-08-05T13:28:30Z</time>
      </trkpt>
      <trkpt lat="45.38131" lon="3.36137">
        <ele>406.9</ele>
        <time>2021-08-05T13:28:32Z</time>
      </trkpt>
      <trkpt lat="45.38131" lon="3.36137">
        <ele>406.9</ele>
        <time>2021-08-05T13:28:34Z</time>
      </trkpt>
      <trkpt lat="45.38131" lon="3.36137">
        <ele>406.9</ele>
        <time>2021-08-05T13:28:36Z</time>
      </trkpt>
      <trkpt lat="45.38131" lon="3.36137">
        <ele>406.9</ele>
        <time>2021-08-05T13:28:38Z</time>
      </trkpt>
      <trkpt lat="45.38132" lon="3.36137">
        <ele>406.9</ele>
        <time>2021-08-05T13:28:40Z</time>
      </trkpt>
      <trkpt lat="45.38118" lon="3.36143">
        <ele>406.9</ele>
        <time>2021-08-05T13:30:42Z</time>
      </trkpt>
      <trkpt lat="45.38114" lon="3.36143">
        <ele>406.8</ele>
        <time>2021-08-05T13:30:44Z</time>
      </trkpt>
      <trkpt lat="45.3811" lon="3.36142">
        <ele>406.6</ele>
        <time>2021-08-05T13:30:46Z</time>
      </trkpt>
      <trkpt lat="45.38105" lon="3.36143">
        <ele>406.6</ele>
        <time>2021-08-05T13:30:48Z</time>
      </trkpt>
      <trkpt lat="45.38101" lon="3.36146">
        <ele>406.6</ele>
        <time>2021-08-05T13:30:50Z</time>
      </trkpt>
      <trkpt lat="45.38096" lon="3.36148">
        <ele>406.6</ele>
        <time>2021-08-05T13:30:52Z</time>
      </trkpt>
      <trkpt lat="45.38092" lon="3.3615">
        <ele>406.6</ele>
        <time>2021-08-05T13:30:54Z</time>
      </trkpt>
      <trkpt lat="45.38088" lon="3.36154">
        <ele>406.6</ele>
        <time>2021-08-05T13:30:56Z</time>
      </trkpt>
      <trkpt lat="45.38083" lon="3.36158">
        <ele>406.7</ele>
        <time>2021-08-05T13:30:58Z</time>
      </trkpt>
      <trkpt lat="45.38078" lon="3.36162">
        <ele>406.7</ele>
        <time>2021-08-05T13:31:00Z</time>
      </trkpt>
      <trkpt lat="45.38073" lon="3.36165">
        <ele>406.7</ele>
        <time>2021-08-05T13:31:02Z</time>
      </trkpt>
      <trkpt lat="45.38068" lon="3.3617">
        <ele>406.8</ele>
        <time>2021-08-05T13:31:04Z</time>
      </trkpt>
      <trkpt lat="45.38062" lon="3.36175">
        <ele>407</ele>
        <time>2021-08-05T13:31:06Z</time>
      </trkpt>
      <trkpt lat="45.3806" lon="3.36177">
        <ele>407.1</ele>
        <time>2021-08-05T13:31:07Z</time>
      </trkpt>
      <trkpt lat="45.38052" lon="3.36186">
        <ele>407.5</ele>
        <time>2021-08-05T13:31:10Z</time>
      </trkpt>
      <trkpt lat="45.38046" lon="3.36191">
        <ele>407.7</ele>
        <time>2021-08-05T13:31:12Z</time>
      </trkpt>
      <trkpt lat="45.38041" lon="3.36196">
        <ele>407.9</ele>
        <time>2021-08-05T13:31:14Z</time>
      </trkpt>
      <trkpt lat="45.38036" lon="3.36201">
        <ele>408.1</ele>
        <time>2021-08-05T13:31:16Z</time>
      </trkpt>
      <trkpt lat="45.38031" lon="3.36207">
        <ele>408.5</ele>
        <time>2021-08-05T13:31:18Z</time>
      </trkpt>
      <trkpt lat="45.38026" lon="3.36212">
        <ele>408.7</ele>
        <time>2021-08-05T13:31:20Z</time>
      </trkpt>
      <trkpt lat="45.38021" lon="3.36217">
        <ele>408.9</ele>
        <time>2021-08-05T13:31:22Z</time>
      </trkpt>
      <trkpt lat="45.38016" lon="3.36222">
        <ele>409.2</ele>
        <time>2021-08-05T13:31:24Z</time>
      </trkpt>
      <trkpt lat="45.3801" lon="3.36228">
        <ele>409.5</ele>
        <time>2021-08-05T13:31:26Z</time>
      </trkpt>
      <trkpt lat="45.38004" lon="3.36233">
        <ele>409.8</ele>
        <time>2021-08-05T13:31:28Z</time>
      </trkpt>
      <trkpt lat="45.37999" lon="3.36239">
        <ele>410.1</ele>
        <time>2021-08-05T13:31:30Z</time>
      </trkpt>
      <trkpt lat="45.37994" lon="3.36245">
        <ele>410.2</ele>
        <time>2021-08-05T13:31:32Z</time>
      </trkpt>
      <trkpt lat="45.37988" lon="3.3625">
        <ele>410.1</ele>
        <time>2021-08-05T13:31:34Z</time>
      </trkpt>
      <trkpt lat="45.37982" lon="3.36254">
        <ele>409.8</ele>
        <time>2021-08-05T13:31:36Z</time>
      </trkpt>
      <trkpt lat="45.37976" lon="3.36259">
        <ele>409.5</ele>
        <time>2021-08-05T13:31:38Z</time>
      </trkpt>
      <trkpt lat="45.37969" lon="3.36263">
        <ele>409.3</ele>
        <time>2021-08-05T13:31:40Z</time>
      </trkpt>
      <trkpt lat="45.37963" lon="3.36267">
        <ele>409</ele>
        <time>2021-08-05T13:31:42Z</time>
      </trkpt>
      <trkpt lat="45.37957" lon="3.36271">
        <ele>408.8</ele>
        <time>2021-08-05T13:31:44Z</time>
      </trkpt>
      <trkpt lat="45.37952" lon="3.36275">
        <ele>408.7</ele>
        <time>2021-08-05T13:31:46Z</time>
      </trkpt>
      <trkpt lat="45.37947" lon="3.3628">
        <ele>408.6</ele>
        <time>2021-08-05T13:31:48Z</time>
      </trkpt>
      <trkpt lat="45.37942" lon="3.36286">
        <ele>408.6</ele>
        <time>2021-08-05T13:31:50Z</time>
      </trkpt>
      <trkpt lat="45.37937" lon="3.36292">
        <ele>408.6</ele>
        <time>2021-08-05T13:31:52Z</time>
      </trkpt>
      <trkpt lat="45.37932" lon="3.36298">
        <ele>408.7</ele>
        <time>2021-08-05T13:31:54Z</time>
      </trkpt>
      <trkpt lat="45.37927" lon="3.36305">
        <ele>408.8</ele>
        <time>2021-08-05T13:31:56Z</time>
      </trkpt>
      <trkpt lat="45.37922" lon="3.3631">
        <ele>408.9</ele>
        <time>2021-08-05T13:31:58Z</time>
      </trkpt>
      <trkpt lat="45.37917" lon="3.36318">
        <ele>409.1</ele>
        <time>2021-08-05T13:32:00Z</time>
      </trkpt>
      <trkpt lat="45.37911" lon="3.36325">
        <ele>409.3</ele>
        <time>2021-08-05T13:32:02Z</time>
      </trkpt>
      <trkpt lat="45.37905" lon="3.36332">
        <ele>409.5</ele>
        <time>2021-08-05T13:32:04Z</time>
      </trkpt>
      <trkpt lat="45.37899" lon="3.36339">
        <ele>409.7</ele>
        <time>2021-08-05T13:32:06Z</time>
      </trkpt>
      <trkpt lat="45.37893" lon="3.36347">
        <ele>409.8</ele>
        <time>2021-08-05T13:32:08Z</time>
      </trkpt>
      <trkpt lat="45.37887" lon="3.36356">
        <ele>409.9</ele>
        <time>2021-08-05T13:32:10Z</time>
      </trkpt>
      <trkpt lat="45.37881" lon="3.36365">
        <ele>410.1</ele>
        <time>2021-08-05T13:32:12Z</time>
      </trkpt>
      <trkpt lat="45.37874" lon="3.36373">
        <ele>410.2</ele>
        <time>2021-08-05T13:32:14Z</time>
      </trkpt>
      <trkpt lat="45.37868" lon="3.36382">
        <ele>410.3</ele>
        <time>2021-08-05T13:32:16Z</time>
      </trkpt>
      <trkpt lat="45.37862" lon="3.36391">
        <ele>410.4</ele>
        <time>2021-08-05T13:32:18Z</time>
      </trkpt>
      <trkpt lat="45.37856" lon="3.36401">
        <ele>410.5</ele>
        <time>2021-08-05T13:32:20Z</time>
      </trkpt>
      <trkpt lat="45.3785" lon="3.36412">
        <ele>410.7</ele>
        <time>2021-08-05T13:32:22Z</time>
      </trkpt>
      <trkpt lat="45.37845" lon="3.36422">
        <ele>410.7</ele>
        <time>2021-08-05T13:32:24Z</time>
      </trkpt>
      <trkpt lat="45.37839" lon="3.36433">
        <ele>410.6</ele>
        <time>2021-08-05T13:32:26Z</time>
      </trkpt>
      <trkpt lat="45.37832" lon="3.36444">
        <ele>410.6</ele>
        <time>2021-08-05T13:32:28Z</time>
      </trkpt>
      <trkpt lat="45.37826" lon="3.36455">
        <ele>410.4</ele>
        <time>2021-08-05T13:32:30Z</time>
      </trkpt>
      <trkpt lat="45.3782" lon="3.36465">
        <ele>410.2</ele>
        <time>2021-08-05T13:32:32Z</time>
      </trkpt>
      <trkpt lat="45.37814" lon="3.36476">
        <ele>410</ele>
        <time>2021-08-05T13:32:34Z</time>
      </trkpt>
      <trkpt lat="45.37807" lon="3.36487">
        <ele>409.8</ele>
        <time>2021-08-05T13:32:36Z</time>
      </trkpt>
      <trkpt lat="45.378" lon="3.365">
        <ele>409.6</ele>
        <time>2021-08-05T13:32:38Z</time>
      </trkpt>
      <trkpt lat="45.37793" lon="3.36513">
        <ele>409.8</ele>
        <time>2021-08-05T13:32:40Z</time>
      </trkpt>
      <trkpt lat="45.37785" lon="3.36526">
        <ele>410</ele>
        <time>2021-08-05T13:32:42Z</time>
      </trkpt>
      <trkpt lat="45.37777" lon="3.36539">
        <ele>410.2</ele>
        <time>2021-08-05T13:32:44Z</time>
      </trkpt>
      <trkpt lat="45.37769" lon="3.36551">
        <ele>410.3</ele>
        <time>2021-08-05T13:32:46Z</time>
      </trkpt>
      <trkpt lat="45.37761" lon="3.36562">
        <ele>410.4</ele>
        <time>2021-08-05T13:32:48Z</time>
      </trkpt>
      <trkpt lat="45.37754" lon="3.36574">
        <ele>410.7</ele>
        <time>2021-08-05T13:32:50Z</time>
      </trkpt>
      <trkpt lat="45.37746" lon="3.36584">
        <ele>410.8</ele>
        <time>2021-08-05T13:32:52Z</time>
      </trkpt>
      <trkpt lat="45.37739" lon="3.36595">
        <ele>410.8</ele>
        <time>2021-08-05T13:32:54Z</time>
      </trkpt>
      <trkpt lat="45.37733" lon="3.36606">
        <ele>410.8</ele>
        <time>2021-08-05T13:32:56Z</time>
      </trkpt>
      <trkpt lat="45.37727" lon="3.36617">
        <ele>410.8</ele>
        <time>2021-08-05T13:32:58Z</time>
      </trkpt>
      <trkpt lat="45.3772" lon="3.36628">
        <ele>410.8</ele>
        <time>2021-08-05T13:33:00Z</time>
      </trkpt>
      <trkpt lat="45.37711" lon="3.36637">
        <ele>410.5</ele>
        <time>2021-08-05T13:33:02Z</time>
      </trkpt>
      <trkpt lat="45.37702" lon="3.36644">
        <ele>410</ele>
        <time>2021-08-05T13:33:04Z</time>
      </trkpt>
      <trkpt lat="45.37693" lon="3.36648">
        <ele>409.4</ele>
        <time>2021-08-05T13:33:06Z</time>
      </trkpt>
      <trkpt lat="45.37684" lon="3.36651">
        <ele>408.8</ele>
        <time>2021-08-05T13:33:08Z</time>
      </trkpt>
      <trkpt lat="45.37675" lon="3.36653">
        <ele>408.2</ele>
        <time>2021-08-05T13:33:10Z</time>
      </trkpt>
      <trkpt lat="45.37666" lon="3.36656">
        <ele>407.6</ele>
        <time>2021-08-05T13:33:12Z</time>
      </trkpt>
      <trkpt lat="45.37658" lon="3.36657">
        <ele>407.5</ele>
        <time>2021-08-05T13:33:14Z</time>
      </trkpt>
      <trkpt lat="45.3765" lon="3.36659">
        <ele>407.3</ele>
        <time>2021-08-05T13:33:16Z</time>
      </trkpt>
      <trkpt lat="45.37642" lon="3.36659">
        <ele>407.1</ele>
        <time>2021-08-05T13:33:18Z</time>
      </trkpt>
      <trkpt lat="45.37635" lon="3.36659">
        <ele>407</ele>
        <time>2021-08-05T13:33:20Z</time>
      </trkpt>
      <trkpt lat="45.37628" lon="3.3666">
        <ele>406.8</ele>
        <time>2021-08-05T13:33:22Z</time>
      </trkpt>
      <trkpt lat="45.37621" lon="3.36662">
        <ele>406.7</ele>
        <time>2021-08-05T13:33:24Z</time>
      </trkpt>
      <trkpt lat="45.37614" lon="3.36664">
        <ele>406.6</ele>
        <time>2021-08-05T13:33:26Z</time>
      </trkpt>
      <trkpt lat="45.37607" lon="3.36667">
        <ele>406.6</ele>
        <time>2021-08-05T13:33:28Z</time>
      </trkpt>
      <trkpt lat="45.376" lon="3.3667">
        <ele>406.8</ele>
        <time>2021-08-05T13:33:30Z</time>
      </trkpt>
      <trkpt lat="45.37593" lon="3.36675">
        <ele>407.1</ele>
        <time>2021-08-05T13:33:32Z</time>
      </trkpt>
      <trkpt lat="45.37586" lon="3.36679">
        <ele>407.5</ele>
        <time>2021-08-05T13:33:34Z</time>
      </trkpt>
      <trkpt lat="45.37579" lon="3.36683">
        <ele>408</ele>
        <time>2021-08-05T13:33:36Z</time>
      </trkpt>
      <trkpt lat="45.37573" lon="3.36688">
        <ele>408.5</ele>
        <time>2021-08-05T13:33:38Z</time>
      </trkpt>
      <trkpt lat="45.37566" lon="3.36692">
        <ele>409</ele>
        <time>2021-08-05T13:33:40Z</time>
      </trkpt>
      <trkpt lat="45.37559" lon="3.36697">
        <ele>409.5</ele>
        <time>2021-08-05T13:33:42Z</time>
      </trkpt>
      <trkpt lat="45.37552" lon="3.367">
        <ele>409.9</ele>
        <time>2021-08-05T13:33:44Z</time>
      </trkpt>
      <trkpt lat="45.37545" lon="3.36702">
        <ele>410.1</ele>
        <time>2021-08-05T13:33:46Z</time>
      </trkpt>
      <trkpt lat="45.37537" lon="3.36704">
        <ele>410.2</ele>
        <time>2021-08-05T13:33:48Z</time>
      </trkpt>
      <trkpt lat="45.3753" lon="3.36705">
        <ele>410.4</ele>
        <time>2021-08-05T13:33:50Z</time>
      </trkpt>
      <trkpt lat="45.37522" lon="3.36706">
        <ele>410.4</ele>
        <time>2021-08-05T13:33:52Z</time>
      </trkpt>
      <trkpt lat="45.37514" lon="3.36706">
        <ele>410.3</ele>
        <time>2021-08-05T13:33:54Z</time>
      </trkpt>
      <trkpt lat="45.37506" lon="3.36705">
        <ele>410.2</ele>
        <time>2021-08-05T13:33:56Z</time>
      </trkpt>
      <trkpt lat="45.37498" lon="3.36705">
        <ele>410.1</ele>
        <time>2021-08-05T13:33:58Z</time>
      </trkpt>
      <trkpt lat="45.3749" lon="3.36703">
        <ele>409.8</ele>
        <time>2021-08-05T13:34:00Z</time>
      </trkpt>
      <trkpt lat="45.37481" lon="3.367">
        <ele>409.5</ele>
        <time>2021-08-05T13:34:02Z</time>
      </trkpt>
      <trkpt lat="45.37473" lon="3.36698">
        <ele>409.1</ele>
        <time>2021-08-05T13:34:04Z</time>
      </trkpt>
      <trkpt lat="45.37465" lon="3.36693">
        <ele>408.6</ele>
        <time>2021-08-05T13:34:06Z</time>
      </trkpt>
      <trkpt lat="45.37457" lon="3.3669">
        <ele>408.2</ele>
        <time>2021-08-05T13:34:08Z</time>
      </trkpt>
      <trkpt lat="45.3745" lon="3.36687">
        <ele>407.9</ele>
        <time>2021-08-05T13:34:10Z</time>
      </trkpt>
      <trkpt lat="45.37441" lon="3.36685">
        <ele>407.6</ele>
        <time>2021-08-05T13:34:12Z</time>
      </trkpt>
      <trkpt lat="45.37432" lon="3.36684">
        <ele>407.6</ele>
        <time>2021-08-05T13:34:14Z</time>
      </trkpt>
      <trkpt lat="45.37423" lon="3.36685">
        <ele>407.6</ele>
        <time>2021-08-05T13:34:16Z</time>
      </trkpt>
      <trkpt lat="45.37414" lon="3.36687">
        <ele>407.6</ele>
        <time>2021-08-05T13:34:18Z</time>
      </trkpt>
      <trkpt lat="45.37404" lon="3.3669">
        <ele>407.6</ele>
        <time>2021-08-05T13:34:20Z</time>
      </trkpt>
      <trkpt lat="45.37394" lon="3.36695">
        <ele>407.7</ele>
        <time>2021-08-05T13:34:22Z</time>
      </trkpt>
      <trkpt lat="45.37384" lon="3.36699">
        <ele>407.7</ele>
        <time>2021-08-05T13:34:24Z</time>
      </trkpt>
      <trkpt lat="45.37372" lon="3.36703">
        <ele>407.8</ele>
        <time>2021-08-05T13:34:26Z</time>
      </trkpt>
      <trkpt lat="45.37361" lon="3.36708">
        <ele>407.8</ele>
        <time>2021-08-05T13:34:28Z</time>
      </trkpt>
      <trkpt lat="45.37349" lon="3.36713">
        <ele>407.8</ele>
        <time>2021-08-05T13:34:30Z</time>
      </trkpt>
      <trkpt lat="45.37337" lon="3.36718">
        <ele>407.8</ele>
        <time>2021-08-05T13:34:32Z</time>
      </trkpt>
      <trkpt lat="45.37326" lon="3.36723">
        <ele>407.8</ele>
        <time>2021-08-05T13:34:34Z</time>
      </trkpt>
      <trkpt lat="45.37315" lon="3.36731">
        <ele>407.9</ele>
        <time>2021-08-05T13:34:36Z</time>
      </trkpt>
      <trkpt lat="45.37307" lon="3.36743">
        <ele>408.1</ele>
        <time>2021-08-05T13:34:38Z</time>
      </trkpt>
      <trkpt lat="45.37301" lon="3.36755">
        <ele>408.3</ele>
        <time>2021-08-05T13:34:40Z</time>
      </trkpt>
      <trkpt lat="45.37296" lon="3.36767">
        <ele>408.6</ele>
        <time>2021-08-05T13:34:42Z</time>
      </trkpt>
      <trkpt lat="45.37292" lon="3.36779">
        <ele>408.9</ele>
        <time>2021-08-05T13:34:44Z</time>
      </trkpt>
      <trkpt lat="45.37289" lon="3.36791">
        <ele>409.2</ele>
        <time>2021-08-05T13:34:46Z</time>
      </trkpt>
      <trkpt lat="45.37285" lon="3.36803">
        <ele>409.6</ele>
        <time>2021-08-05T13:34:48Z</time>
      </trkpt>
      <trkpt lat="45.37282" lon="3.36815">
        <ele>409.9</ele>
        <time>2021-08-05T13:34:50Z</time>
      </trkpt>
      <trkpt lat="45.37276" lon="3.36826">
        <ele>409.9</ele>
        <time>2021-08-05T13:34:52Z</time>
      </trkpt>
      <trkpt lat="45.3727" lon="3.36835">
        <ele>409.8</ele>
        <time>2021-08-05T13:34:54Z</time>
      </trkpt>
      <trkpt lat="45.37263" lon="3.36841">
        <ele>409.7</ele>
        <time>2021-08-05T13:34:56Z</time>
      </trkpt>
      <trkpt lat="45.37254" lon="3.36845">
        <ele>409.4</ele>
        <time>2021-08-05T13:34:58Z</time>
      </trkpt>
      <trkpt lat="45.37247" lon="3.36848">
        <ele>409.2</ele>
        <time>2021-08-05T13:35:00Z</time>
      </trkpt>
      <trkpt lat="45.3724" lon="3.36852">
        <ele>409.3</ele>
        <time>2021-08-05T13:35:02Z</time>
      </trkpt>
      <trkpt lat="45.37234" lon="3.36854">
        <ele>409.4</ele>
        <time>2021-08-05T13:35:04Z</time>
      </trkpt>
      <trkpt lat="45.37227" lon="3.36856">
        <ele>409.3</ele>
        <time>2021-08-05T13:35:06Z</time>
      </trkpt>
      <trkpt lat="45.37222" lon="3.36858">
        <ele>409.4</ele>
        <time>2021-08-05T13:35:08Z</time>
      </trkpt>
      <trkpt lat="45.37216" lon="3.36859">
        <ele>409.3</ele>
        <time>2021-08-05T13:35:10Z</time>
      </trkpt>
      <trkpt lat="45.3721" lon="3.36863">
        <ele>409.5</ele>
        <time>2021-08-05T13:35:12Z</time>
      </trkpt>
      <trkpt lat="45.37204" lon="3.36866">
        <ele>409.6</ele>
        <time>2021-08-05T13:35:14Z</time>
      </trkpt>
      <trkpt lat="45.37198" lon="3.36869">
        <ele>409.7</ele>
        <time>2021-08-05T13:35:16Z</time>
      </trkpt>
      <trkpt lat="45.37194" lon="3.36872">
        <ele>409.9</ele>
        <time>2021-08-05T13:35:18Z</time>
      </trkpt>
      <trkpt lat="45.37189" lon="3.36876">
        <ele>410.1</ele>
        <time>2021-08-05T13:35:20Z</time>
      </trkpt>
      <trkpt lat="45.37182" lon="3.36882">
        <ele>410.4</ele>
        <time>2021-08-05T13:35:22Z</time>
      </trkpt>
      <trkpt lat="45.37176" lon="3.36886">
        <ele>410.7</ele>
        <time>2021-08-05T13:35:24Z</time>
      </trkpt>
      <trkpt lat="45.37169" lon="3.36892">
        <ele>411</ele>
        <time>2021-08-05T13:35:26Z</time>
      </trkpt>
      <trkpt lat="45.37162" lon="3.36897">
        <ele>411.3</ele>
        <time>2021-08-05T13:35:28Z</time>
      </trkpt>
      <trkpt lat="45.37156" lon="3.36902">
        <ele>411.6</ele>
        <time>2021-08-05T13:35:30Z</time>
      </trkpt>
      <trkpt lat="45.3715" lon="3.36907">
        <ele>411.8</ele>
        <time>2021-08-05T13:35:32Z</time>
      </trkpt>
      <trkpt lat="45.37146" lon="3.36909">
        <ele>411.9</ele>
        <time>2021-08-05T13:35:33Z</time>
      </trkpt>
      <trkpt lat="45.37134" lon="3.36916">
        <ele>412.1</ele>
        <time>2021-08-05T13:35:36Z</time>
      </trkpt>
      <trkpt lat="45.37125" lon="3.3692">
        <ele>412.3</ele>
        <time>2021-08-05T13:35:38Z</time>
      </trkpt>
      <trkpt lat="45.37117" lon="3.36924">
        <ele>412.5</ele>
        <time>2021-08-05T13:35:40Z</time>
      </trkpt>
      <trkpt lat="45.37109" lon="3.36927">
        <ele>412.7</ele>
        <time>2021-08-05T13:35:42Z</time>
      </trkpt>
      <trkpt lat="45.37101" lon="3.36931">
        <ele>412.9</ele>
        <time>2021-08-05T13:35:44Z</time>
      </trkpt>
      <trkpt lat="45.37093" lon="3.36934">
        <ele>413.1</ele>
        <time>2021-08-05T13:35:46Z</time>
      </trkpt>
      <trkpt lat="45.37086" lon="3.36939">
        <ele>413.4</ele>
        <time>2021-08-05T13:35:48Z</time>
      </trkpt>
      <trkpt lat="45.37079" lon="3.36943">
        <ele>413.6</ele>
        <time>2021-08-05T13:35:50Z</time>
      </trkpt>
      <trkpt lat="45.37071" lon="3.36947">
        <ele>413.7</ele>
        <time>2021-08-05T13:35:52Z</time>
      </trkpt>
      <trkpt lat="45.37064" lon="3.36952">
        <ele>413.9</ele>
        <time>2021-08-05T13:35:54Z</time>
      </trkpt>
      <trkpt lat="45.37056" lon="3.36955">
        <ele>414</ele>
        <time>2021-08-05T13:35:56Z</time>
      </trkpt>
      <trkpt lat="45.37048" lon="3.36958">
        <ele>414</ele>
        <time>2021-08-05T13:35:58Z</time>
      </trkpt>
      <trkpt lat="45.3704" lon="3.3696">
        <ele>413.9</ele>
        <time>2021-08-05T13:36:00Z</time>
      </trkpt>
      <trkpt lat="45.37032" lon="3.36962">
        <ele>413.8</ele>
        <time>2021-08-05T13:36:02Z</time>
      </trkpt>
      <trkpt lat="45.37024" lon="3.36963">
        <ele>413.6</ele>
        <time>2021-08-05T13:36:04Z</time>
      </trkpt>
      <trkpt lat="45.37016" lon="3.36963">
        <ele>413.2</ele>
        <time>2021-08-05T13:36:06Z</time>
      </trkpt>
      <trkpt lat="45.37008" lon="3.36963">
        <ele>412.9</ele>
        <time>2021-08-05T13:36:08Z</time>
      </trkpt>
      <trkpt lat="45.36999" lon="3.36961">
        <ele>412.3</ele>
        <time>2021-08-05T13:36:10Z</time>
      </trkpt>
      <trkpt lat="45.3699" lon="3.36958">
        <ele>411.8</ele>
        <time>2021-08-05T13:36:12Z</time>
      </trkpt>
      <trkpt lat="45.36981" lon="3.36955">
        <ele>411.3</ele>
        <time>2021-08-05T13:36:14Z</time>
      </trkpt>
      <trkpt lat="45.36971" lon="3.36952">
        <ele>410.8</ele>
        <time>2021-08-05T13:36:16Z</time>
      </trkpt>
      <trkpt lat="45.36961" lon="3.3695">
        <ele>410.4</ele>
        <time>2021-08-05T13:36:18Z</time>
      </trkpt>
      <trkpt lat="45.36951" lon="3.36949">
        <ele>410.2</ele>
        <time>2021-08-05T13:36:20Z</time>
      </trkpt>
      <trkpt lat="45.3694" lon="3.3695">
        <ele>410.1</ele>
        <time>2021-08-05T13:36:22Z</time>
      </trkpt>
      <trkpt lat="45.36929" lon="3.36953">
        <ele>410.3</ele>
        <time>2021-08-05T13:36:24Z</time>
      </trkpt>
      <trkpt lat="45.36919" lon="3.36959">
        <ele>410.6</ele>
        <time>2021-08-05T13:36:26Z</time>
      </trkpt>
      <trkpt lat="45.36909" lon="3.36965">
        <ele>410.7</ele>
        <time>2021-08-05T13:36:28Z</time>
      </trkpt>
      <trkpt lat="45.369" lon="3.36974">
        <ele>410.9</ele>
        <time>2021-08-05T13:36:30Z</time>
      </trkpt>
      <trkpt lat="45.36892" lon="3.36985">
        <ele>411.1</ele>
        <time>2021-08-05T13:36:32Z</time>
      </trkpt>
      <trkpt lat="45.36883" lon="3.36996">
        <ele>411.3</ele>
        <time>2021-08-05T13:36:34Z</time>
      </trkpt>
      <trkpt lat="45.36875" lon="3.37007">
        <ele>411.6</ele>
        <time>2021-08-05T13:36:36Z</time>
      </trkpt>
      <trkpt lat="45.36867" lon="3.37018">
        <ele>411.8</ele>
        <time>2021-08-05T13:36:38Z</time>
      </trkpt>
      <trkpt lat="45.36859" lon="3.37029">
        <ele>411.9</ele>
        <time>2021-08-05T13:36:40Z</time>
      </trkpt>
      <trkpt lat="45.36852" lon="3.37041">
        <ele>412</ele>
        <time>2021-08-05T13:36:42Z</time>
      </trkpt>
      <trkpt lat="45.36845" lon="3.37052">
        <ele>411.9</ele>
        <time>2021-08-05T13:36:44Z</time>
      </trkpt>
      <trkpt lat="45.36839" lon="3.37065">
        <ele>411.9</ele>
        <time>2021-08-05T13:36:46Z</time>
      </trkpt>
      <trkpt lat="45.36835" lon="3.37078">
        <ele>412</ele>
        <time>2021-08-05T13:36:48Z</time>
      </trkpt>
      <trkpt lat="45.36829" lon="3.37092">
        <ele>412.2</ele>
        <time>2021-08-05T13:36:50Z</time>
      </trkpt>
      <trkpt lat="45.36825" lon="3.37106">
        <ele>412.6</ele>
        <time>2021-08-05T13:36:52Z</time>
      </trkpt>
      <trkpt lat="45.36819" lon="3.37121">
        <ele>413</ele>
        <time>2021-08-05T13:36:54Z</time>
      </trkpt>
      <trkpt lat="45.36816" lon="3.37136">
        <ele>413.4</ele>
        <time>2021-08-05T13:36:56Z</time>
      </trkpt>
      <trkpt lat="45.36812" lon="3.37149">
        <ele>413.7</ele>
        <time>2021-08-05T13:36:58Z</time>
      </trkpt>
      <trkpt lat="45.36807" lon="3.37163">
        <ele>414</ele>
        <time>2021-08-05T13:37:00Z</time>
      </trkpt>
      <trkpt lat="45.36801" lon="3.37177">
        <ele>413.8</ele>
        <time>2021-08-05T13:37:02Z</time>
      </trkpt>
      <trkpt lat="45.36793" lon="3.37189">
        <ele>413.5</ele>
        <time>2021-08-05T13:37:04Z</time>
      </trkpt>
      <trkpt lat="45.36786" lon="3.37201">
        <ele>413.2</ele>
        <time>2021-08-05T13:37:06Z</time>
      </trkpt>
      <trkpt lat="45.36778" lon="3.37214">
        <ele>413</ele>
        <time>2021-08-05T13:37:08Z</time>
      </trkpt>
      <trkpt lat="45.36772" lon="3.37225">
        <ele>412.8</ele>
        <time>2021-08-05T13:37:10Z</time>
      </trkpt>
      <trkpt lat="45.36765" lon="3.37237">
        <ele>412.6</ele>
        <time>2021-08-05T13:37:12Z</time>
      </trkpt>
      <trkpt lat="45.36758" lon="3.37247">
        <ele>412.4</ele>
        <time>2021-08-05T13:37:14Z</time>
      </trkpt>
      <trkpt lat="45.36753" lon="3.37258">
        <ele>412.5</ele>
        <time>2021-08-05T13:37:16Z</time>
      </trkpt>
      <trkpt lat="45.36747" lon="3.37268">
        <ele>412.8</ele>
        <time>2021-08-05T13:37:18Z</time>
      </trkpt>
      <trkpt lat="45.36743" lon="3.3728">
        <ele>413.1</ele>
        <time>2021-08-05T13:37:20Z</time>
      </trkpt>
      <trkpt lat="45.36742" lon="3.37292">
        <ele>413.6</ele>
        <time>2021-08-05T13:37:22Z</time>
      </trkpt>
      <trkpt lat="45.36743" lon="3.37306">
        <ele>414.2</ele>
        <time>2021-08-05T13:37:24Z</time>
      </trkpt>
      <trkpt lat="45.36744" lon="3.37318">
        <ele>414.8</ele>
        <time>2021-08-05T13:37:26Z</time>
      </trkpt>
      <trkpt lat="45.36742" lon="3.37329">
        <ele>415.2</ele>
        <time>2021-08-05T13:37:28Z</time>
      </trkpt>
      <trkpt lat="45.36739" lon="3.37339">
        <ele>415.6</ele>
        <time>2021-08-05T13:37:30Z</time>
      </trkpt>
      <trkpt lat="45.36736" lon="3.37348">
        <ele>416.1</ele>
        <time>2021-08-05T13:37:32Z</time>
      </trkpt>
      <trkpt lat="45.36732" lon="3.37356">
        <ele>416.5</ele>
        <time>2021-08-05T13:37:34Z</time>
      </trkpt>
      <trkpt lat="45.36727" lon="3.37363">
        <ele>416.6</ele>
        <time>2021-08-05T13:37:36Z</time>
      </trkpt>
      <trkpt lat="45.36723" lon="3.37369">
        <ele>416.7</ele>
        <time>2021-08-05T13:37:38Z</time>
      </trkpt>
      <trkpt lat="45.36719" lon="3.37374">
        <ele>416.8</ele>
        <time>2021-08-05T13:37:40Z</time>
      </trkpt>
      <trkpt lat="45.36714" lon="3.3738">
        <ele>416.8</ele>
        <time>2021-08-05T13:37:42Z</time>
      </trkpt>
      <trkpt lat="45.3671" lon="3.37386">
        <ele>416.8</ele>
        <time>2021-08-05T13:37:44Z</time>
      </trkpt>
      <trkpt lat="45.36706" lon="3.37392">
        <ele>416.8</ele>
        <time>2021-08-05T13:37:46Z</time>
      </trkpt>
      <trkpt lat="45.36702" lon="3.37397">
        <ele>416.8</ele>
        <time>2021-08-05T13:37:48Z</time>
      </trkpt>
      <trkpt lat="45.36699" lon="3.37403">
        <ele>416.9</ele>
        <time>2021-08-05T13:37:50Z</time>
      </trkpt>
      <trkpt lat="45.36695" lon="3.37409">
        <ele>416.8</ele>
        <time>2021-08-05T13:37:52Z</time>
      </trkpt>
      <trkpt lat="45.36691" lon="3.37414">
        <ele>416.8</ele>
        <time>2021-08-05T13:37:54Z</time>
      </trkpt>
      <trkpt lat="45.36687" lon="3.3742">
        <ele>416.9</ele>
        <time>2021-08-05T13:37:56Z</time>
      </trkpt>
      <trkpt lat="45.36683" lon="3.37424">
        <ele>417.1</ele>
        <time>2021-08-05T13:37:58Z</time>
      </trkpt>
      <trkpt lat="45.3668" lon="3.37429">
        <ele>417.3</ele>
        <time>2021-08-05T13:38:00Z</time>
      </trkpt>
      <trkpt lat="45.36676" lon="3.37433">
        <ele>417.7</ele>
        <time>2021-08-05T13:38:02Z</time>
      </trkpt>
      <trkpt lat="45.36673" lon="3.37438">
        <ele>418.1</ele>
        <time>2021-08-05T13:38:04Z</time>
      </trkpt>
      <trkpt lat="45.36669" lon="3.37443">
        <ele>418.4</ele>
        <time>2021-08-05T13:38:06Z</time>
      </trkpt>
      <trkpt lat="45.36666" lon="3.37447">
        <ele>418.7</ele>
        <time>2021-08-05T13:38:08Z</time>
      </trkpt>
      <trkpt lat="45.36663" lon="3.37452">
        <ele>419</ele>
        <time>2021-08-05T13:38:10Z</time>
      </trkpt>
      <trkpt lat="45.36659" lon="3.37457">
        <ele>419.3</ele>
        <time>2021-08-05T13:38:12Z</time>
      </trkpt>
      <trkpt lat="45.36656" lon="3.37463">
        <ele>419.6</ele>
        <time>2021-08-05T13:38:14Z</time>
      </trkpt>
      <trkpt lat="45.36653" lon="3.37468">
        <ele>420</ele>
        <time>2021-08-05T13:38:16Z</time>
      </trkpt>
      <trkpt lat="45.36651" lon="3.37474">
        <ele>420.4</ele>
        <time>2021-08-05T13:38:18Z</time>
      </trkpt>
      <trkpt lat="45.36649" lon="3.3748">
        <ele>420.8</ele>
        <time>2021-08-05T13:38:20Z</time>
      </trkpt>
      <trkpt lat="45.36647" lon="3.37485">
        <ele>421.2</ele>
        <time>2021-08-05T13:38:22Z</time>
      </trkpt>
      <trkpt lat="45.36645" lon="3.37492">
        <ele>421.7</ele>
        <time>2021-08-05T13:38:24Z</time>
      </trkpt>
      <trkpt lat="45.36643" lon="3.37497">
        <ele>422</ele>
        <time>2021-08-05T13:38:26Z</time>
      </trkpt>
      <trkpt lat="45.36641" lon="3.37503">
        <ele>422.4</ele>
        <time>2021-08-05T13:38:28Z</time>
      </trkpt>
      <trkpt lat="45.36639" lon="3.37508">
        <ele>422.6</ele>
        <time>2021-08-05T13:38:30Z</time>
      </trkpt>
      <trkpt lat="45.36638" lon="3.37514">
        <ele>422.8</ele>
        <time>2021-08-05T13:38:32Z</time>
      </trkpt>
      <trkpt lat="45.36636" lon="3.37519">
        <ele>423</ele>
        <time>2021-08-05T13:38:34Z</time>
      </trkpt>
      <trkpt lat="45.36634" lon="3.37525">
        <ele>423.2</ele>
        <time>2021-08-05T13:38:36Z</time>
      </trkpt>
      <trkpt lat="45.36631" lon="3.3753">
        <ele>423.2</ele>
        <time>2021-08-05T13:38:38Z</time>
      </trkpt>
      <trkpt lat="45.3663" lon="3.37535">
        <ele>423.5</ele>
        <time>2021-08-05T13:38:40Z</time>
      </trkpt>
      <trkpt lat="45.36628" lon="3.3754">
        <ele>423.7</ele>
        <time>2021-08-05T13:38:42Z</time>
      </trkpt>
      <trkpt lat="45.36626" lon="3.37546">
        <ele>423.9</ele>
        <time>2021-08-05T13:38:44Z</time>
      </trkpt>
      <trkpt lat="45.36625" lon="3.37551">
        <ele>424.2</ele>
        <time>2021-08-05T13:38:46Z</time>
      </trkpt>
      <trkpt lat="45.36623" lon="3.37556">
        <ele>424.3</ele>
        <time>2021-08-05T13:38:48Z</time>
      </trkpt>
      <trkpt lat="45.36621" lon="3.37561">
        <ele>424.5</ele>
        <time>2021-08-05T13:38:50Z</time>
      </trkpt>
      <trkpt lat="45.36619" lon="3.37566">
        <ele>424.7</ele>
        <time>2021-08-05T13:38:52Z</time>
      </trkpt>
      <trkpt lat="45.36618" lon="3.37572">
        <ele>424.9</ele>
        <time>2021-08-05T13:38:54Z</time>
      </trkpt>
      <trkpt lat="45.36616" lon="3.37577">
        <ele>425.2</ele>
        <time>2021-08-05T13:38:56Z</time>
      </trkpt>
      <trkpt lat="45.36615" lon="3.37582">
        <ele>425.4</ele>
        <time>2021-08-05T13:38:58Z</time>
      </trkpt>
      <trkpt lat="45.36613" lon="3.37587">
        <ele>425.7</ele>
        <time>2021-08-05T13:39:00Z</time>
      </trkpt>
      <trkpt lat="45.36612" lon="3.37592">
        <ele>425.7</ele>
        <time>2021-08-05T13:39:02Z</time>
      </trkpt>
      <trkpt lat="45.3661" lon="3.37598">
        <ele>425.8</ele>
        <time>2021-08-05T13:39:04Z</time>
      </trkpt>
      <trkpt lat="45.36609" lon="3.37603">
        <ele>426</ele>
        <time>2021-08-05T13:39:06Z</time>
      </trkpt>
      <trkpt lat="45.36608" lon="3.37608">
        <ele>426.1</ele>
        <time>2021-08-05T13:39:08Z</time>
      </trkpt>
      <trkpt lat="45.36607" lon="3.37614">
        <ele>426.3</ele>
        <time>2021-08-05T13:39:10Z</time>
      </trkpt>
      <trkpt lat="45.36605" lon="3.3762">
        <ele>426.5</ele>
        <time>2021-08-05T13:39:12Z</time>
      </trkpt>
      <trkpt lat="45.36604" lon="3.37626">
        <ele>426.6</ele>
        <time>2021-08-05T13:39:14Z</time>
      </trkpt>
      <trkpt lat="45.36603" lon="3.37632">
        <ele>426.8</ele>
        <time>2021-08-05T13:39:16Z</time>
      </trkpt>
      <trkpt lat="45.36602" lon="3.37638">
        <ele>427.1</ele>
        <time>2021-08-05T13:39:18Z</time>
      </trkpt>
      <trkpt lat="45.36601" lon="3.37643">
        <ele>427.3</ele>
        <time>2021-08-05T13:39:20Z</time>
      </trkpt>
      <trkpt lat="45.366" lon="3.37649">
        <ele>427.5</ele>
        <time>2021-08-05T13:39:22Z</time>
      </trkpt>
      <trkpt lat="45.366" lon="3.37655">
        <ele>427.9</ele>
        <time>2021-08-05T13:39:24Z</time>
      </trkpt>
      <trkpt lat="45.36599" lon="3.37661">
        <ele>428.1</ele>
        <time>2021-08-05T13:39:26Z</time>
      </trkpt>
      <trkpt lat="45.36598" lon="3.37667">
        <ele>428.4</ele>
        <time>2021-08-05T13:39:28Z</time>
      </trkpt>
      <trkpt lat="45.36597" lon="3.37673">
        <ele>428.6</ele>
        <time>2021-08-05T13:39:30Z</time>
      </trkpt>
      <trkpt lat="45.36595" lon="3.37678">
        <ele>428.8</ele>
        <time>2021-08-05T13:39:32Z</time>
      </trkpt>
      <trkpt lat="45.36594" lon="3.37684">
        <ele>429</ele>
        <time>2021-08-05T13:39:34Z</time>
      </trkpt>
      <trkpt lat="45.36592" lon="3.3769">
        <ele>429.1</ele>
        <time>2021-08-05T13:39:36Z</time>
      </trkpt>
      <trkpt lat="45.36591" lon="3.37695">
        <ele>429.2</ele>
        <time>2021-08-05T13:39:38Z</time>
      </trkpt>
      <trkpt lat="45.36589" lon="3.37701">
        <ele>429.3</ele>
        <time>2021-08-05T13:39:40Z</time>
      </trkpt>
      <trkpt lat="45.36587" lon="3.37707">
        <ele>429.4</ele>
        <time>2021-08-05T13:39:42Z</time>
      </trkpt>
      <trkpt lat="45.36585" lon="3.37713">
        <ele>429.6</ele>
        <time>2021-08-05T13:39:44Z</time>
      </trkpt>
      <trkpt lat="45.36583" lon="3.37719">
        <ele>429.7</ele>
        <time>2021-08-05T13:39:46Z</time>
      </trkpt>
      <trkpt lat="45.36582" lon="3.37725">
        <ele>429.9</ele>
        <time>2021-08-05T13:39:48Z</time>
      </trkpt>
      <trkpt lat="45.3658" lon="3.3773">
        <ele>429.9</ele>
        <time>2021-08-05T13:39:50Z</time>
      </trkpt>
      <trkpt lat="45.36579" lon="3.37736">
        <ele>430</ele>
        <time>2021-08-05T13:39:52Z</time>
      </trkpt>
      <trkpt lat="45.36578" lon="3.37742">
        <ele>430.3</ele>
        <time>2021-08-05T13:39:54Z</time>
      </trkpt>
      <trkpt lat="45.36578" lon="3.37748">
        <ele>430.7</ele>
        <time>2021-08-05T13:39:56Z</time>
      </trkpt>
      <trkpt lat="45.36578" lon="3.37754">
        <ele>431</ele>
        <time>2021-08-05T13:39:58Z</time>
      </trkpt>
      <trkpt lat="45.36579" lon="3.3776">
        <ele>431.5</ele>
        <time>2021-08-05T13:40:00Z</time>
      </trkpt>
      <trkpt lat="45.36581" lon="3.37765">
        <ele>432.1</ele>
        <time>2021-08-05T13:40:02Z</time>
      </trkpt>
      <trkpt lat="45.36583" lon="3.3777">
        <ele>432.6</ele>
        <time>2021-08-05T13:40:04Z</time>
      </trkpt>
      <trkpt lat="45.36586" lon="3.37775">
        <ele>433.2</ele>
        <time>2021-08-05T13:40:06Z</time>
      </trkpt>
      <trkpt lat="45.36588" lon="3.37779">
        <ele>433.8</ele>
        <time>2021-08-05T13:40:08Z</time>
      </trkpt>
      <trkpt lat="45.36592" lon="3.37784">
        <ele>434.4</ele>
        <time>2021-08-05T13:40:10Z</time>
      </trkpt>
      <trkpt lat="45.36595" lon="3.37788">
        <ele>435</ele>
        <time>2021-08-05T13:40:12Z</time>
      </trkpt>
      <trkpt lat="45.36598" lon="3.37793">
        <ele>435.7</ele>
        <time>2021-08-05T13:40:14Z</time>
      </trkpt>
      <trkpt lat="45.36602" lon="3.37797">
        <ele>436.3</ele>
        <time>2021-08-05T13:40:16Z</time>
      </trkpt>
      <trkpt lat="45.36605" lon="3.37801">
        <ele>436.9</ele>
        <time>2021-08-05T13:40:18Z</time>
      </trkpt>
      <trkpt lat="45.36608" lon="3.37807">
        <ele>437.6</ele>
        <time>2021-08-05T13:40:20Z</time>
      </trkpt>
      <trkpt lat="45.3661" lon="3.37813">
        <ele>438.1</ele>
        <time>2021-08-05T13:40:22Z</time>
      </trkpt>
      <trkpt lat="45.36613" lon="3.37818">
        <ele>438.7</ele>
        <time>2021-08-05T13:40:24Z</time>
      </trkpt>
      <trkpt lat="45.36615" lon="3.37824">
        <ele>439.2</ele>
        <time>2021-08-05T13:40:26Z</time>
      </trkpt>
      <trkpt lat="45.36617" lon="3.3783">
        <ele>439.8</ele>
        <time>2021-08-05T13:40:28Z</time>
      </trkpt>
      <trkpt lat="45.36619" lon="3.37836">
        <ele>440.3</ele>
        <time>2021-08-05T13:40:30Z</time>
      </trkpt>
      <trkpt lat="45.3662" lon="3.37842">
        <ele>440.9</ele>
        <time>2021-08-05T13:40:32Z</time>
      </trkpt>
      <trkpt lat="45.36622" lon="3.37847">
        <ele>441.5</ele>
        <time>2021-08-05T13:40:34Z</time>
      </trkpt>
      <trkpt lat="45.36623" lon="3.37854">
        <ele>442.1</ele>
        <time>2021-08-05T13:40:36Z</time>
      </trkpt>
      <trkpt lat="45.36623" lon="3.3786">
        <ele>442.5</ele>
        <time>2021-08-05T13:40:38Z</time>
      </trkpt>
      <trkpt lat="45.36623" lon="3.37866">
        <ele>442.9</ele>
        <time>2021-08-05T13:40:40Z</time>
      </trkpt>
      <trkpt lat="45.36622" lon="3.37872">
        <ele>443.3</ele>
        <time>2021-08-05T13:40:42Z</time>
      </trkpt>
      <trkpt lat="45.36622" lon="3.37878">
        <ele>443.7</ele>
        <time>2021-08-05T13:40:44Z</time>
      </trkpt>
      <trkpt lat="45.36621" lon="3.37884">
        <ele>444</ele>
        <time>2021-08-05T13:40:46Z</time>
      </trkpt>
      <trkpt lat="45.3662" lon="3.3789">
        <ele>444.3</ele>
        <time>2021-08-05T13:40:48Z</time>
      </trkpt>
      <trkpt lat="45.36618" lon="3.37895">
        <ele>444.6</ele>
        <time>2021-08-05T13:40:50Z</time>
      </trkpt>
      <trkpt lat="45.36616" lon="3.379">
        <ele>444.9</ele>
        <time>2021-08-05T13:40:52Z</time>
      </trkpt>
      <trkpt lat="45.36614" lon="3.37906">
        <ele>445.2</ele>
        <time>2021-08-05T13:40:54Z</time>
      </trkpt>
      <trkpt lat="45.36611" lon="3.37911">
        <ele>445.5</ele>
        <time>2021-08-05T13:40:56Z</time>
      </trkpt>
      <trkpt lat="45.36608" lon="3.37915">
        <ele>445.7</ele>
        <time>2021-08-05T13:40:58Z</time>
      </trkpt>
      <trkpt lat="45.36605" lon="3.37919">
        <ele>445.9</ele>
        <time>2021-08-05T13:41:00Z</time>
      </trkpt>
      <trkpt lat="45.36602" lon="3.37922">
        <ele>446</ele>
        <time>2021-08-05T13:41:02Z</time>
      </trkpt>
      <trkpt lat="45.36598" lon="3.37925">
        <ele>446.1</ele>
        <time>2021-08-05T13:41:04Z</time>
      </trkpt>
      <trkpt lat="45.36594" lon="3.37928">
        <ele>446.1</ele>
        <time>2021-08-05T13:41:06Z</time>
      </trkpt>
      <trkpt lat="45.3659" lon="3.3793">
        <ele>446.2</ele>
        <time>2021-08-05T13:41:08Z</time>
      </trkpt>
      <trkpt lat="45.36586" lon="3.37932">
        <ele>446.2</ele>
        <time>2021-08-05T13:41:10Z</time>
      </trkpt>
      <trkpt lat="45.36581" lon="3.37933">
        <ele>446</ele>
        <time>2021-08-05T13:41:12Z</time>
      </trkpt>
      <trkpt lat="45.36577" lon="3.37934">
        <ele>445.9</ele>
        <time>2021-08-05T13:41:14Z</time>
      </trkpt>
      <trkpt lat="45.36574" lon="3.37936">
        <ele>445.8</ele>
        <time>2021-08-05T13:41:16Z</time>
      </trkpt>
      <trkpt lat="45.3657" lon="3.37937">
        <ele>445.6</ele>
        <time>2021-08-05T13:41:18Z</time>
      </trkpt>
      <trkpt lat="45.36566" lon="3.37938">
        <ele>445.4</ele>
        <time>2021-08-05T13:41:20Z</time>
      </trkpt>
      <trkpt lat="45.36562" lon="3.3794">
        <ele>445.4</ele>
        <time>2021-08-05T13:41:22Z</time>
      </trkpt>
      <trkpt lat="45.36559" lon="3.37941">
        <ele>445.2</ele>
        <time>2021-08-05T13:41:24Z</time>
      </trkpt>
      <trkpt lat="45.36555" lon="3.37943">
        <ele>445.2</ele>
        <time>2021-08-05T13:41:26Z</time>
      </trkpt>
      <trkpt lat="45.36551" lon="3.37945">
        <ele>445.1</ele>
        <time>2021-08-05T13:41:28Z</time>
      </trkpt>
      <trkpt lat="45.36548" lon="3.37947">
        <ele>445.1</ele>
        <time>2021-08-05T13:41:30Z</time>
      </trkpt>
      <trkpt lat="45.36544" lon="3.3795">
        <ele>445.1</ele>
        <time>2021-08-05T13:41:32Z</time>
      </trkpt>
      <trkpt lat="45.3654" lon="3.37951">
        <ele>445</ele>
        <time>2021-08-05T13:41:34Z</time>
      </trkpt>
      <trkpt lat="45.36536" lon="3.37953">
        <ele>445</ele>
        <time>2021-08-05T13:41:36Z</time>
      </trkpt>
      <trkpt lat="45.36532" lon="3.37955">
        <ele>444.9</ele>
        <time>2021-08-05T13:41:38Z</time>
      </trkpt>
      <trkpt lat="45.36529" lon="3.37958">
        <ele>445.1</ele>
        <time>2021-08-05T13:41:40Z</time>
      </trkpt>
      <trkpt lat="45.36524" lon="3.37961">
        <ele>445.1</ele>
        <time>2021-08-05T13:41:42Z</time>
      </trkpt>
      <trkpt lat="45.3652" lon="3.37964">
        <ele>445.1</ele>
        <time>2021-08-05T13:41:44Z</time>
      </trkpt>
      <trkpt lat="45.36516" lon="3.37967">
        <ele>445.3</ele>
        <time>2021-08-05T13:41:46Z</time>
      </trkpt>
      <trkpt lat="45.36512" lon="3.3797">
        <ele>445.3</ele>
        <time>2021-08-05T13:41:48Z</time>
      </trkpt>
      <trkpt lat="45.36507" lon="3.37974">
        <ele>445.5</ele>
        <time>2021-08-05T13:41:50Z</time>
      </trkpt>
      <trkpt lat="45.36502" lon="3.37977">
        <ele>445.6</ele>
        <time>2021-08-05T13:41:52Z</time>
      </trkpt>
      <trkpt lat="45.36496" lon="3.37982">
        <ele>445.8</ele>
        <time>2021-08-05T13:41:54Z</time>
      </trkpt>
      <trkpt lat="45.36491" lon="3.37986">
        <ele>445.8</ele>
        <time>2021-08-05T13:41:56Z</time>
      </trkpt>
      <trkpt lat="45.36485" lon="3.37991">
        <ele>445.9</ele>
        <time>2021-08-05T13:41:58Z</time>
      </trkpt>
      <trkpt lat="45.36478" lon="3.37996">
        <ele>446.1</ele>
        <time>2021-08-05T13:42:00Z</time>
      </trkpt>
      <trkpt lat="45.36472" lon="3.38001">
        <ele>446.4</ele>
        <time>2021-08-05T13:42:02Z</time>
      </trkpt>
      <trkpt lat="45.36465" lon="3.38007">
        <ele>446.2</ele>
        <time>2021-08-05T13:42:04Z</time>
      </trkpt>
      <trkpt lat="45.36458" lon="3.38013">
        <ele>446.1</ele>
        <time>2021-08-05T13:42:06Z</time>
      </trkpt>
      <trkpt lat="45.36451" lon="3.3802">
        <ele>446</ele>
        <time>2021-08-05T13:42:08Z</time>
      </trkpt>
      <trkpt lat="45.36444" lon="3.38027">
        <ele>446</ele>
        <time>2021-08-05T13:42:10Z</time>
      </trkpt>
      <trkpt lat="45.36438" lon="3.38034">
        <ele>445.9</ele>
        <time>2021-08-05T13:42:12Z</time>
      </trkpt>
      <trkpt lat="45.36432" lon="3.38043">
        <ele>446</ele>
        <time>2021-08-05T13:42:14Z</time>
      </trkpt>
      <trkpt lat="45.36426" lon="3.38052">
        <ele>446.1</ele>
        <time>2021-08-05T13:42:16Z</time>
      </trkpt>
      <trkpt lat="45.36421" lon="3.38062">
        <ele>446.3</ele>
        <time>2021-08-05T13:42:18Z</time>
      </trkpt>
      <trkpt lat="45.36417" lon="3.38075">
        <ele>446.6</ele>
        <time>2021-08-05T13:42:20Z</time>
      </trkpt>
      <trkpt lat="45.36414" lon="3.38086">
        <ele>446.8</ele>
        <time>2021-08-05T13:42:22Z</time>
      </trkpt>
      <trkpt lat="45.36413" lon="3.38097">
        <ele>446.9</ele>
        <time>2021-08-05T13:42:24Z</time>
      </trkpt>
      <trkpt lat="45.36412" lon="3.38107">
        <ele>447</ele>
        <time>2021-08-05T13:42:26Z</time>
      </trkpt>
      <trkpt lat="45.36411" lon="3.38118">
        <ele>447.1</ele>
        <time>2021-08-05T13:42:28Z</time>
      </trkpt>
      <trkpt lat="45.3641" lon="3.38128">
        <ele>447.2</ele>
        <time>2021-08-05T13:42:30Z</time>
      </trkpt>
      <trkpt lat="45.36408" lon="3.38139">
        <ele>447.3</ele>
        <time>2021-08-05T13:42:32Z</time>
      </trkpt>
      <trkpt lat="45.36406" lon="3.38146">
        <ele>447.4</ele>
        <time>2021-08-05T13:42:34Z</time>
      </trkpt>
      <trkpt lat="45.36404" lon="3.38152">
        <ele>447.5</ele>
        <time>2021-08-05T13:42:36Z</time>
      </trkpt>
      <trkpt lat="45.364" lon="3.38156">
        <ele>447.5</ele>
        <time>2021-08-05T13:42:38Z</time>
      </trkpt>
      <trkpt lat="45.36398" lon="3.38159">
        <ele>447.5</ele>
        <time>2021-08-05T13:42:40Z</time>
      </trkpt>
      <trkpt lat="45.36395" lon="3.38161">
        <ele>447.5</ele>
        <time>2021-08-05T13:42:42Z</time>
      </trkpt>
      <trkpt lat="45.36395" lon="3.3816">
        <ele>447.5</ele>
        <time>2021-08-05T13:42:44Z</time>
      </trkpt>
      <trkpt lat="45.36395" lon="3.3816">
        <ele>447.5</ele>
        <time>2021-08-05T13:42:46Z</time>
      </trkpt>
      <trkpt lat="45.36395" lon="3.3816">
        <ele>447.5</ele>
        <time>2021-08-05T13:42:48Z</time>
      </trkpt>
      <trkpt lat="45.36395" lon="3.38161">
        <ele>447.5</ele>
        <time>2021-08-05T13:42:50Z</time>
      </trkpt>
      <trkpt lat="45.36395" lon="3.38161">
        <ele>447.5</ele>
        <time>2021-08-05T13:42:56Z</time>
      </trkpt>
      <trkpt lat="45.36393" lon="3.38163">
        <ele>447.6</ele>
        <time>2021-08-05T13:42:58Z</time>
      </trkpt>
      <trkpt lat="45.36389" lon="3.38163">
        <ele>447.5</ele>
        <time>2021-08-05T13:43:00Z</time>
      </trkpt>
      <trkpt lat="45.36386" lon="3.38165">
        <ele>447.6</ele>
        <time>2021-08-05T13:43:02Z</time>
      </trkpt>
      <trkpt lat="45.36382" lon="3.38167">
        <ele>447.6</ele>
        <time>2021-08-05T13:43:04Z</time>
      </trkpt>
      <trkpt lat="45.36378" lon="3.38169">
        <ele>447.6</ele>
        <time>2021-08-05T13:43:06Z</time>
      </trkpt>
      <trkpt lat="45.36375" lon="3.38171">
        <ele>447.7</ele>
        <time>2021-08-05T13:43:08Z</time>
      </trkpt>
      <trkpt lat="45.36371" lon="3.38173">
        <ele>447.7</ele>
        <time>2021-08-05T13:43:10Z</time>
      </trkpt>
      <trkpt lat="45.36368" lon="3.38175">
        <ele>447.7</ele>
        <time>2021-08-05T13:43:12Z</time>
      </trkpt>
      <trkpt lat="45.36366" lon="3.38177">
        <ele>447.8</ele>
        <time>2021-08-05T13:43:14Z</time>
      </trkpt>
      <trkpt lat="45.36368" lon="3.38179">
        <ele>447.8</ele>
        <time>2021-08-05T13:43:16Z</time>
      </trkpt>
      <trkpt lat="45.36368" lon="3.38179">
        <ele>447.8</ele>
        <time>2021-08-05T13:43:18Z</time>
      </trkpt>
      <trkpt lat="45.36368" lon="3.38178">
        <ele>447.8</ele>
        <time>2021-08-05T13:43:20Z</time>
      </trkpt>
      <trkpt lat="45.36368" lon="3.38178">
        <ele>447.8</ele>
        <time>2021-08-05T13:43:22Z</time>
      </trkpt>
      <trkpt lat="45.36367" lon="3.38178">
        <ele>447.8</ele>
        <time>2021-08-05T13:43:24Z</time>
      </trkpt>
      <trkpt lat="45.36339" lon="3.38203">
        <ele>448.4</ele>
        <time>2021-08-05T13:44:16Z</time>
      </trkpt>
      <trkpt lat="45.36339" lon="3.38203">
        <ele>448.4</ele>
        <time>2021-08-05T13:44:18Z</time>
      </trkpt>
      <trkpt lat="45.36338" lon="3.38205">
        <ele>448.4</ele>
        <time>2021-08-05T13:44:20Z</time>
      </trkpt>
      <trkpt lat="45.36336" lon="3.38207">
        <ele>448.5</ele>
        <time>2021-08-05T13:44:22Z</time>
      </trkpt>
      <trkpt lat="45.36333" lon="3.38208">
        <ele>448.5</ele>
        <time>2021-08-05T13:44:24Z</time>
      </trkpt>
      <trkpt lat="45.36329" lon="3.3821">
        <ele>448.5</ele>
        <time>2021-08-05T13:44:26Z</time>
      </trkpt>
      <trkpt lat="45.36326" lon="3.38212">
        <ele>448.6</ele>
        <time>2021-08-05T13:44:28Z</time>
      </trkpt>
      <trkpt lat="45.36324" lon="3.38214">
        <ele>448.7</ele>
        <time>2021-08-05T13:44:30Z</time>
      </trkpt>
      <trkpt lat="45.36323" lon="3.38216">
        <ele>448.8</ele>
        <time>2021-08-05T13:44:32Z</time>
      </trkpt>
      <trkpt lat="45.36322" lon="3.38219">
        <ele>448.9</ele>
        <time>2021-08-05T13:44:34Z</time>
      </trkpt>
      <trkpt lat="45.36321" lon="3.38219">
        <ele>448.9</ele>
        <time>2021-08-05T13:44:36Z</time>
      </trkpt>
      <trkpt lat="45.36321" lon="3.38219">
        <ele>448.9</ele>
        <time>2021-08-05T13:44:38Z</time>
      </trkpt>
      <trkpt lat="45.36321" lon="3.38219">
        <ele>448.9</ele>
        <time>2021-08-05T13:44:40Z</time>
      </trkpt>
      <trkpt lat="45.36321" lon="3.38218">
        <ele>448.9</ele>
        <time>2021-08-05T13:44:42Z</time>
      </trkpt>
      <trkpt lat="45.36321" lon="3.38218">
        <ele>448.9</ele>
        <time>2021-08-05T13:44:44Z</time>
      </trkpt>
      <trkpt lat="45.3633" lon="3.38238">
        <ele>449.6</ele>
        <time>2021-08-05T13:44:58Z</time>
      </trkpt>
      <trkpt lat="45.36333" lon="3.38243">
        <ele>449.8</ele>
        <time>2021-08-05T13:45:00Z</time>
      </trkpt>
      <trkpt lat="45.36335" lon="3.38249">
        <ele>450</ele>
        <time>2021-08-05T13:45:02Z</time>
      </trkpt>
      <trkpt lat="45.36337" lon="3.38255">
        <ele>450.2</ele>
        <time>2021-08-05T13:45:04Z</time>
      </trkpt>
      <trkpt lat="45.36339" lon="3.38262">
        <ele>450.5</ele>
        <time>2021-08-05T13:45:06Z</time>
      </trkpt>
      <trkpt lat="45.36342" lon="3.38268">
        <ele>450.7</ele>
        <time>2021-08-05T13:45:08Z</time>
      </trkpt>
      <trkpt lat="45.36344" lon="3.38274">
        <ele>450.9</ele>
        <time>2021-08-05T13:45:10Z</time>
      </trkpt>
      <trkpt lat="45.36346" lon="3.3828">
        <ele>451.2</ele>
        <time>2021-08-05T13:45:12Z</time>
      </trkpt>
      <trkpt lat="45.36349" lon="3.38286">
        <ele>451.4</ele>
        <time>2021-08-05T13:45:14Z</time>
      </trkpt>
      <trkpt lat="45.36351" lon="3.38291">
        <ele>451.6</ele>
        <time>2021-08-05T13:45:16Z</time>
      </trkpt>
      <trkpt lat="45.36354" lon="3.38298">
        <ele>451.8</ele>
        <time>2021-08-05T13:45:18Z</time>
      </trkpt>
      <trkpt lat="45.36356" lon="3.38304">
        <ele>452</ele>
        <time>2021-08-05T13:45:20Z</time>
      </trkpt>
      <trkpt lat="45.36359" lon="3.38311">
        <ele>452.3</ele>
        <time>2021-08-05T13:45:22Z</time>
      </trkpt>
      <trkpt lat="45.36361" lon="3.38317">
        <ele>452.5</ele>
        <time>2021-08-05T13:45:24Z</time>
      </trkpt>
      <trkpt lat="45.36364" lon="3.38324">
        <ele>452.7</ele>
        <time>2021-08-05T13:45:26Z</time>
      </trkpt>
      <trkpt lat="45.36366" lon="3.38331">
        <ele>452.9</ele>
        <time>2021-08-05T13:45:28Z</time>
      </trkpt>
      <trkpt lat="45.36369" lon="3.38338">
        <ele>453.3</ele>
        <time>2021-08-05T13:45:30Z</time>
      </trkpt>
      <trkpt lat="45.36371" lon="3.38344">
        <ele>453.7</ele>
        <time>2021-08-05T13:45:32Z</time>
      </trkpt>
      <trkpt lat="45.36373" lon="3.3835">
        <ele>454.1</ele>
        <time>2021-08-05T13:45:34Z</time>
      </trkpt>
      <trkpt lat="45.36376" lon="3.38356">
        <ele>454.5</ele>
        <time>2021-08-05T13:45:36Z</time>
      </trkpt>
      <trkpt lat="45.36378" lon="3.38362">
        <ele>454.9</ele>
        <time>2021-08-05T13:45:38Z</time>
      </trkpt>
      <trkpt lat="45.36381" lon="3.38367">
        <ele>455.3</ele>
        <time>2021-08-05T13:45:40Z</time>
      </trkpt>
      <trkpt lat="45.36385" lon="3.38372">
        <ele>455.6</ele>
        <time>2021-08-05T13:45:42Z</time>
      </trkpt>
      <trkpt lat="45.36389" lon="3.38376">
        <ele>455.9</ele>
        <time>2021-08-05T13:45:44Z</time>
      </trkpt>
      <trkpt lat="45.36393" lon="3.38378">
        <ele>456.1</ele>
        <time>2021-08-05T13:45:46Z</time>
      </trkpt>
      <trkpt lat="45.36398" lon="3.3838">
        <ele>456.2</ele>
        <time>2021-08-05T13:45:48Z</time>
      </trkpt>
      <trkpt lat="45.36403" lon="3.3838">
        <ele>456.2</ele>
        <time>2021-08-05T13:45:50Z</time>
      </trkpt>
      <trkpt lat="45.36407" lon="3.3838">
        <ele>456.3</ele>
        <time>2021-08-05T13:45:52Z</time>
      </trkpt>
      <trkpt lat="45.3641" lon="3.38379">
        <ele>456.3</ele>
        <time>2021-08-05T13:45:54Z</time>
      </trkpt>
      <trkpt lat="45.36414" lon="3.3838">
        <ele>456.3</ele>
        <time>2021-08-05T13:45:56Z</time>
      </trkpt>
      <trkpt lat="45.36417" lon="3.38379">
        <ele>456.3</ele>
        <time>2021-08-05T13:45:58Z</time>
      </trkpt>
      <trkpt lat="45.36419" lon="3.38379">
        <ele>456.3</ele>
        <time>2021-08-05T13:46:00Z</time>
      </trkpt>
      <trkpt lat="45.36422" lon="3.38379">
        <ele>456.4</ele>
        <time>2021-08-05T13:46:02Z</time>
      </trkpt>
      <trkpt lat="45.36423" lon="3.38376">
        <ele>456.2</ele>
        <time>2021-08-05T13:46:04Z</time>
      </trkpt>
      <trkpt lat="45.36423" lon="3.38376">
        <ele>456.2</ele>
        <time>2021-08-05T13:46:06Z</time>
      </trkpt>
      <trkpt lat="45.36423" lon="3.38376">
        <ele>456.2</ele>
        <time>2021-08-05T13:46:08Z</time>
      </trkpt>
      <trkpt lat="45.36423" lon="3.38376">
        <ele>456.2</ele>
        <time>2021-08-05T13:46:10Z</time>
      </trkpt>
      <trkpt lat="45.36423" lon="3.38376">
        <ele>456.2</ele>
        <time>2021-08-05T13:46:12Z</time>
      </trkpt>
      <trkpt lat="45.36412" lon="3.38377">
        <ele>456.1</ele>
        <time>2021-08-05T13:53:56Z</time>
      </trkpt>
      <trkpt lat="45.36406" lon="3.38379">
        <ele>456.2</ele>
        <time>2021-08-05T13:53:58Z</time>
      </trkpt>
      <trkpt lat="45.36401" lon="3.38379">
        <ele>456.2</ele>
        <time>2021-08-05T13:54:00Z</time>
      </trkpt>
      <trkpt lat="45.36395" lon="3.38377">
        <ele>456</ele>
        <time>2021-08-05T13:54:02Z</time>
      </trkpt>
      <trkpt lat="45.36389" lon="3.38373">
        <ele>455.7</ele>
        <time>2021-08-05T13:54:04Z</time>
      </trkpt>
      <trkpt lat="45.36383" lon="3.38366">
        <ele>455.2</ele>
        <time>2021-08-05T13:54:06Z</time>
      </trkpt>
      <trkpt lat="45.36377" lon="3.38357">
        <ele>454.6</ele>
        <time>2021-08-05T13:54:08Z</time>
      </trkpt>
      <trkpt lat="45.36373" lon="3.38345">
        <ele>453.8</ele>
        <time>2021-08-05T13:54:10Z</time>
      </trkpt>
      <trkpt lat="45.36368" lon="3.38334">
        <ele>453</ele>
        <time>2021-08-05T13:54:12Z</time>
      </trkpt>
      <trkpt lat="45.36363" lon="3.38323">
        <ele>452.7</ele>
        <time>2021-08-05T13:54:14Z</time>
      </trkpt>
      <trkpt lat="45.36359" lon="3.38312">
        <ele>452.3</ele>
        <time>2021-08-05T13:54:16Z</time>
      </trkpt>
      <trkpt lat="45.36354" lon="3.38303">
        <ele>452</ele>
        <time>2021-08-05T13:54:18Z</time>
      </trkpt>
      <trkpt lat="45.3635" lon="3.38292">
        <ele>451.6</ele>
        <time>2021-08-05T13:54:20Z</time>
      </trkpt>
      <trkpt lat="45.36346" lon="3.38281">
        <ele>451.2</ele>
        <time>2021-08-05T13:54:22Z</time>
      </trkpt>
      <trkpt lat="45.36341" lon="3.38269">
        <ele>450.7</ele>
        <time>2021-08-05T13:54:24Z</time>
      </trkpt>
      <trkpt lat="45.36336" lon="3.38257">
        <ele>450.3</ele>
        <time>2021-08-05T13:54:26Z</time>
      </trkpt>
      <trkpt lat="45.36332" lon="3.38247">
        <ele>449.9</ele>
        <time>2021-08-05T13:54:28Z</time>
      </trkpt>
      <trkpt lat="45.36329" lon="3.38239">
        <ele>449.6</ele>
        <time>2021-08-05T13:54:30Z</time>
      </trkpt>
      <trkpt lat="45.36326" lon="3.38233">
        <ele>449.4</ele>
        <time>2021-08-05T13:54:32Z</time>
      </trkpt>
      <trkpt lat="45.36324" lon="3.38227">
        <ele>449.2</ele>
        <time>2021-08-05T13:54:34Z</time>
      </trkpt>
      <trkpt lat="45.36322" lon="3.38224">
        <ele>449.1</ele>
        <time>2021-08-05T13:54:36Z</time>
      </trkpt>
      <trkpt lat="45.36319" lon="3.38222">
        <ele>449</ele>
        <time>2021-08-05T13:54:38Z</time>
      </trkpt>
      <trkpt lat="45.36314" lon="3.3822">
        <ele>448.9</ele>
        <time>2021-08-05T13:54:40Z</time>
      </trkpt>
      <trkpt lat="45.36309" lon="3.38221">
        <ele>449</ele>
        <time>2021-08-05T13:54:42Z</time>
      </trkpt>
      <trkpt lat="45.36304" lon="3.38223">
        <ele>449</ele>
        <time>2021-08-05T13:54:44Z</time>
      </trkpt>
      <trkpt lat="45.36299" lon="3.38227">
        <ele>449.2</ele>
        <time>2021-08-05T13:54:46Z</time>
      </trkpt>
      <trkpt lat="45.36294" lon="3.38229">
        <ele>449.3</ele>
        <time>2021-08-05T13:54:48Z</time>
      </trkpt>
      <trkpt lat="45.36289" lon="3.38232">
        <ele>449.3</ele>
        <time>2021-08-05T13:54:50Z</time>
      </trkpt>
      <trkpt lat="45.36284" lon="3.38234">
        <ele>449.4</ele>
        <time>2021-08-05T13:54:52Z</time>
      </trkpt>
      <trkpt lat="45.36278" lon="3.38237">
        <ele>449.5</ele>
        <time>2021-08-05T13:54:54Z</time>
      </trkpt>
      <trkpt lat="45.36274" lon="3.3824">
        <ele>449.7</ele>
        <time>2021-08-05T13:54:56Z</time>
      </trkpt>
      <trkpt lat="45.3627" lon="3.38241">
        <ele>449.7</ele>
        <time>2021-08-05T13:54:58Z</time>
      </trkpt>
      <trkpt lat="45.36266" lon="3.38242">
        <ele>449.7</ele>
        <time>2021-08-05T13:55:00Z</time>
      </trkpt>
      <trkpt lat="45.3626" lon="3.38244">
        <ele>449.8</ele>
        <time>2021-08-05T13:55:02Z</time>
      </trkpt>
      <trkpt lat="45.36254" lon="3.38246">
        <ele>449.9</ele>
        <time>2021-08-05T13:55:04Z</time>
      </trkpt>
      <trkpt lat="45.36248" lon="3.38248">
        <ele>449.9</ele>
        <time>2021-08-05T13:55:06Z</time>
      </trkpt>
      <trkpt lat="45.36243" lon="3.3825">
        <ele>449.8</ele>
        <time>2021-08-05T13:55:08Z</time>
      </trkpt>
      <trkpt lat="45.3624" lon="3.38255">
        <ele>449.9</ele>
        <time>2021-08-05T13:55:10Z</time>
      </trkpt>
      <trkpt lat="45.36237" lon="3.3826">
        <ele>449.9</ele>
        <time>2021-08-05T13:55:12Z</time>
      </trkpt>
      <trkpt lat="45.36234" lon="3.38264">
        <ele>450</ele>
        <time>2021-08-05T13:55:14Z</time>
      </trkpt>
      <trkpt lat="45.36235" lon="3.38269">
        <ele>450.1</ele>
        <time>2021-08-05T13:55:16Z</time>
      </trkpt>
      <trkpt lat="45.36235" lon="3.3827">
        <ele>450.2</ele>
        <time>2021-08-05T13:55:18Z</time>
      </trkpt>
      <trkpt lat="45.36234" lon="3.38269">
        <ele>450.1</ele>
        <time>2021-08-05T13:55:20Z</time>
      </trkpt>
      <trkpt lat="45.36234" lon="3.38269">
        <ele>450.1</ele>
        <time>2021-08-05T13:55:22Z</time>
      </trkpt>
      <trkpt lat="45.36234" lon="3.38269">
        <ele>450.1</ele>
        <time>2021-08-05T13:55:24Z</time>
      </trkpt>
      <trkpt lat="45.36234" lon="3.38269">
        <ele>450.1</ele>
        <time>2021-08-05T13:55:26Z</time>
      </trkpt>
      <trkpt lat="45.36229" lon="3.38214">
        <ele>448.3</ele>
        <time>2021-08-05T14:15:44Z</time>
      </trkpt>
      <trkpt lat="45.3623" lon="3.38206">
        <ele>448.1</ele>
        <time>2021-08-05T14:15:46Z</time>
      </trkpt>
      <trkpt lat="45.36231" lon="3.38197">
        <ele>447.8</ele>
        <time>2021-08-05T14:15:48Z</time>
      </trkpt>
      <trkpt lat="45.36232" lon="3.38188">
        <ele>447.5</ele>
        <time>2021-08-05T14:15:50Z</time>
      </trkpt>
      <trkpt lat="45.36232" lon="3.38178">
        <ele>447.2</ele>
        <time>2021-08-05T14:15:52Z</time>
      </trkpt>
      <trkpt lat="45.36232" lon="3.38168">
        <ele>446.8</ele>
        <time>2021-08-05T14:15:54Z</time>
      </trkpt>
      <trkpt lat="45.36231" lon="3.38157">
        <ele>446</ele>
        <time>2021-08-05T14:15:56Z</time>
      </trkpt>
      <trkpt lat="45.36231" lon="3.38145">
        <ele>445</ele>
        <time>2021-08-05T14:15:58Z</time>
      </trkpt>
      <trkpt lat="45.3623" lon="3.38134">
        <ele>444.1</ele>
        <time>2021-08-05T14:16:00Z</time>
      </trkpt>
      <trkpt lat="45.3623" lon="3.38123">
        <ele>443.2</ele>
        <time>2021-08-05T14:16:02Z</time>
      </trkpt>
      <trkpt lat="45.36229" lon="3.38112">
        <ele>442.3</ele>
        <time>2021-08-05T14:16:04Z</time>
      </trkpt>
      <trkpt lat="45.36228" lon="3.38101">
        <ele>441.5</ele>
        <time>2021-08-05T14:16:06Z</time>
      </trkpt>
      <trkpt lat="45.36227" lon="3.38091">
        <ele>440.6</ele>
        <time>2021-08-05T14:16:08Z</time>
      </trkpt>
      <trkpt lat="45.36224" lon="3.38082">
        <ele>439.8</ele>
        <time>2021-08-05T14:16:10Z</time>
      </trkpt>
      <trkpt lat="45.3622" lon="3.38077">
        <ele>438.8</ele>
        <time>2021-08-05T14:16:12Z</time>
      </trkpt>
      <trkpt lat="45.36215" lon="3.38074">
        <ele>438.2</ele>
        <time>2021-08-05T14:16:14Z</time>
      </trkpt>
      <trkpt lat="45.36209" lon="3.38071">
        <ele>437.6</ele>
        <time>2021-08-05T14:16:16Z</time>
      </trkpt>
      <trkpt lat="45.36202" lon="3.38066">
        <ele>436.8</ele>
        <time>2021-08-05T14:16:18Z</time>
      </trkpt>
      <trkpt lat="45.36192" lon="3.38063">
        <ele>436</ele>
        <time>2021-08-05T14:16:20Z</time>
      </trkpt>
      <trkpt lat="45.36182" lon="3.38062">
        <ele>435.9</ele>
        <time>2021-08-05T14:16:22Z</time>
      </trkpt>
      <trkpt lat="45.36171" lon="3.3806">
        <ele>435.5</ele>
        <time>2021-08-05T14:16:24Z</time>
      </trkpt>
      <trkpt lat="45.3616" lon="3.38059">
        <ele>434.5</ele>
        <time>2021-08-05T14:16:26Z</time>
      </trkpt>
      <trkpt lat="45.36146" lon="3.38055">
        <ele>432.1</ele>
        <time>2021-08-05T14:16:28Z</time>
      </trkpt>
      <trkpt lat="45.36132" lon="3.38053">
        <ele>429.9</ele>
        <time>2021-08-05T14:16:30Z</time>
      </trkpt>
      <trkpt lat="45.36118" lon="3.38052">
        <ele>428.2</ele>
        <time>2021-08-05T14:16:32Z</time>
      </trkpt>
      <trkpt lat="45.36104" lon="3.38054">
        <ele>426.8</ele>
        <time>2021-08-05T14:16:34Z</time>
      </trkpt>
      <trkpt lat="45.3609" lon="3.3806">
        <ele>426.3</ele>
        <time>2021-08-05T14:16:36Z</time>
      </trkpt>
      <trkpt lat="45.36077" lon="3.38072">
        <ele>427.1</ele>
        <time>2021-08-05T14:16:38Z</time>
      </trkpt>
      <trkpt lat="45.36066" lon="3.38082">
        <ele>427.8</ele>
        <time>2021-08-05T14:16:40Z</time>
      </trkpt>
      <trkpt lat="45.36051" lon="3.38087">
        <ele>426.9</ele>
        <time>2021-08-05T14:16:42Z</time>
      </trkpt>
      <trkpt lat="45.36034" lon="3.38085">
        <ele>424.9</ele>
        <time>2021-08-05T14:16:44Z</time>
      </trkpt>
      <trkpt lat="45.36016" lon="3.38084">
        <ele>422.9</ele>
        <time>2021-08-05T14:16:46Z</time>
      </trkpt>
      <trkpt lat="45.36" lon="3.38085">
        <ele>421.3</ele>
        <time>2021-08-05T14:16:48Z</time>
      </trkpt>
      <trkpt lat="45.35986" lon="3.38089">
        <ele>420.7</ele>
        <time>2021-08-05T14:16:50Z</time>
      </trkpt>
      <trkpt lat="45.35975" lon="3.38099">
        <ele>421.1</ele>
        <time>2021-08-05T14:16:52Z</time>
      </trkpt>
      <trkpt lat="45.35969" lon="3.38114">
        <ele>422.6</ele>
        <time>2021-08-05T14:16:54Z</time>
      </trkpt>
      <trkpt lat="45.35968" lon="3.38132">
        <ele>424.8</ele>
        <time>2021-08-05T14:16:56Z</time>
      </trkpt>
      <trkpt lat="45.35963" lon="3.3815">
        <ele>426.8</ele>
        <time>2021-08-05T14:16:58Z</time>
      </trkpt>
      <trkpt lat="45.35953" lon="3.38159">
        <ele>427.2</ele>
        <time>2021-08-05T14:17:00Z</time>
      </trkpt>
      <trkpt lat="45.3594" lon="3.38159">
        <ele>426.4</ele>
        <time>2021-08-05T14:17:02Z</time>
      </trkpt>
      <trkpt lat="45.35929" lon="3.38148">
        <ele>424.3</ele>
        <time>2021-08-05T14:17:04Z</time>
      </trkpt>
      <trkpt lat="45.35922" lon="3.38133">
        <ele>421.9</ele>
        <time>2021-08-05T14:17:06Z</time>
      </trkpt>
      <trkpt lat="45.35911" lon="3.38122">
        <ele>420.1</ele>
        <time>2021-08-05T14:17:08Z</time>
      </trkpt>
      <trkpt lat="45.35898" lon="3.38117">
        <ele>419.1</ele>
        <time>2021-08-05T14:17:10Z</time>
      </trkpt>
      <trkpt lat="45.35883" lon="3.38116">
        <ele>418.6</ele>
        <time>2021-08-05T14:17:12Z</time>
      </trkpt>
      <trkpt lat="45.35867" lon="3.38115">
        <ele>418.3</ele>
        <time>2021-08-05T14:17:14Z</time>
      </trkpt>
      <trkpt lat="45.3585" lon="3.38115">
        <ele>417.9</ele>
        <time>2021-08-05T14:17:16Z</time>
      </trkpt>
      <trkpt lat="45.35836" lon="3.38116">
        <ele>417.7</ele>
        <time>2021-08-05T14:17:18Z</time>
      </trkpt>
      <trkpt lat="45.35823" lon="3.38113">
        <ele>416.6</ele>
        <time>2021-08-05T14:17:20Z</time>
      </trkpt>
      <trkpt lat="45.35811" lon="3.38106">
        <ele>414.9</ele>
        <time>2021-08-05T14:17:22Z</time>
      </trkpt>
      <trkpt lat="45.35801" lon="3.38092">
        <ele>412.3</ele>
        <time>2021-08-05T14:17:24Z</time>
      </trkpt>
      <trkpt lat="45.35798" lon="3.38076">
        <ele>410.6</ele>
        <time>2021-08-05T14:17:26Z</time>
      </trkpt>
      <trkpt lat="45.35797" lon="3.38066">
        <ele>410.1</ele>
        <time>2021-08-05T14:17:28Z</time>
      </trkpt>
      <trkpt lat="45.35795" lon="3.38056">
        <ele>409.7</ele>
        <time>2021-08-05T14:17:30Z</time>
      </trkpt>
      <trkpt lat="45.35792" lon="3.38047">
        <ele>409.2</ele>
        <time>2021-08-05T14:17:32Z</time>
      </trkpt>
      <trkpt lat="45.35785" lon="3.38044">
        <ele>408.8</ele>
        <time>2021-08-05T14:17:34Z</time>
      </trkpt>
      <trkpt lat="45.35776" lon="3.38044">
        <ele>408.5</ele>
        <time>2021-08-05T14:17:36Z</time>
      </trkpt>
      <trkpt lat="45.35768" lon="3.38046">
        <ele>408.2</ele>
        <time>2021-08-05T14:17:38Z</time>
      </trkpt>
      <trkpt lat="45.35759" lon="3.38048">
        <ele>407.9</ele>
        <time>2021-08-05T14:17:40Z</time>
      </trkpt>
      <trkpt lat="45.3575" lon="3.3805">
        <ele>407.6</ele>
        <time>2021-08-05T14:17:42Z</time>
      </trkpt>
      <trkpt lat="45.35741" lon="3.38053">
        <ele>407.7</ele>
        <time>2021-08-05T14:17:44Z</time>
      </trkpt>
      <trkpt lat="45.35732" lon="3.38055">
        <ele>407.9</ele>
        <time>2021-08-05T14:17:46Z</time>
      </trkpt>
      <trkpt lat="45.35723" lon="3.38058">
        <ele>408</ele>
        <time>2021-08-05T14:17:48Z</time>
      </trkpt>
      <trkpt lat="45.35714" lon="3.38063">
        <ele>408.2</ele>
        <time>2021-08-05T14:17:50Z</time>
      </trkpt>
      <trkpt lat="45.35706" lon="3.38066">
        <ele>408.3</ele>
        <time>2021-08-05T14:17:52Z</time>
      </trkpt>
      <trkpt lat="45.35697" lon="3.38071">
        <ele>408.5</ele>
        <time>2021-08-05T14:17:54Z</time>
      </trkpt>
      <trkpt lat="45.35688" lon="3.38076">
        <ele>408.7</ele>
        <time>2021-08-05T14:17:56Z</time>
      </trkpt>
      <trkpt lat="45.35678" lon="3.3808">
        <ele>408.8</ele>
        <time>2021-08-05T14:17:58Z</time>
      </trkpt>
      <trkpt lat="45.35669" lon="3.38083">
        <ele>409</ele>
        <time>2021-08-05T14:18:00Z</time>
      </trkpt>
      <trkpt lat="45.35659" lon="3.38087">
        <ele>409.5</ele>
        <time>2021-08-05T14:18:02Z</time>
      </trkpt>
      <trkpt lat="45.3565" lon="3.38089">
        <ele>409.8</ele>
        <time>2021-08-05T14:18:04Z</time>
      </trkpt>
      <trkpt lat="45.3564" lon="3.38091">
        <ele>410.1</ele>
        <time>2021-08-05T14:18:06Z</time>
      </trkpt>
      <trkpt lat="45.3563" lon="3.38094">
        <ele>410.4</ele>
        <time>2021-08-05T14:18:08Z</time>
      </trkpt>
      <trkpt lat="45.3562" lon="3.38096">
        <ele>410.8</ele>
        <time>2021-08-05T14:18:10Z</time>
      </trkpt>
      <trkpt lat="45.3561" lon="3.38099">
        <ele>411.1</ele>
        <time>2021-08-05T14:18:12Z</time>
      </trkpt>
      <trkpt lat="45.35601" lon="3.38101">
        <ele>411.4</ele>
        <time>2021-08-05T14:18:14Z</time>
      </trkpt>
      <trkpt lat="45.3559" lon="3.38104">
        <ele>411.7</ele>
        <time>2021-08-05T14:18:16Z</time>
      </trkpt>
      <trkpt lat="45.3558" lon="3.38106">
        <ele>411.9</ele>
        <time>2021-08-05T14:18:18Z</time>
      </trkpt>
      <trkpt lat="45.3557" lon="3.38109">
        <ele>412</ele>
        <time>2021-08-05T14:18:20Z</time>
      </trkpt>
      <trkpt lat="45.3556" lon="3.38111">
        <ele>412.1</ele>
        <time>2021-08-05T14:18:22Z</time>
      </trkpt>
      <trkpt lat="45.3555" lon="3.38114">
        <ele>412.1</ele>
        <time>2021-08-05T14:18:24Z</time>
      </trkpt>
      <trkpt lat="45.3554" lon="3.38117">
        <ele>412.1</ele>
        <time>2021-08-05T14:18:26Z</time>
      </trkpt>
      <trkpt lat="45.3553" lon="3.3812">
        <ele>412.2</ele>
        <time>2021-08-05T14:18:28Z</time>
      </trkpt>
      <trkpt lat="45.35519" lon="3.38123">
        <ele>412.3</ele>
        <time>2021-08-05T14:18:30Z</time>
      </trkpt>
      <trkpt lat="45.3551" lon="3.38127">
        <ele>412.5</ele>
        <time>2021-08-05T14:18:32Z</time>
      </trkpt>
      <trkpt lat="45.355" lon="3.38132">
        <ele>412.9</ele>
        <time>2021-08-05T14:18:34Z</time>
      </trkpt>
      <trkpt lat="45.3549" lon="3.38138">
        <ele>412.9</ele>
        <time>2021-08-05T14:18:36Z</time>
      </trkpt>
      <trkpt lat="45.35481" lon="3.38145">
        <ele>413</ele>
        <time>2021-08-05T14:18:38Z</time>
      </trkpt>
      <trkpt lat="45.35473" lon="3.38152">
        <ele>413</ele>
        <time>2021-08-05T14:18:40Z</time>
      </trkpt>
      <trkpt lat="45.35464" lon="3.3816">
        <ele>413</ele>
        <time>2021-08-05T14:18:42Z</time>
      </trkpt>
      <trkpt lat="45.35455" lon="3.38167">
        <ele>412.8</ele>
        <time>2021-08-05T14:18:44Z</time>
      </trkpt>
      <trkpt lat="45.35447" lon="3.38176">
        <ele>413.3</ele>
        <time>2021-08-05T14:18:46Z</time>
      </trkpt>
      <trkpt lat="45.35439" lon="3.38184">
        <ele>413.7</ele>
        <time>2021-08-05T14:18:48Z</time>
      </trkpt>
      <trkpt lat="45.35431" lon="3.38192">
        <ele>413.8</ele>
        <time>2021-08-05T14:18:50Z</time>
      </trkpt>
      <trkpt lat="45.35422" lon="3.38201">
        <ele>413.8</ele>
        <time>2021-08-05T14:18:52Z</time>
      </trkpt>
      <trkpt lat="45.35414" lon="3.38209">
        <ele>414</ele>
        <time>2021-08-05T14:18:54Z</time>
      </trkpt>
      <trkpt lat="45.35405" lon="3.38218">
        <ele>414.5</ele>
        <time>2021-08-05T14:18:56Z</time>
      </trkpt>
      <trkpt lat="45.35397" lon="3.38226">
        <ele>414.8</ele>
        <time>2021-08-05T14:18:58Z</time>
      </trkpt>
      <trkpt lat="45.35389" lon="3.38235">
        <ele>415.2</ele>
        <time>2021-08-05T14:19:00Z</time>
      </trkpt>
      <trkpt lat="45.35381" lon="3.38243">
        <ele>415.4</ele>
        <time>2021-08-05T14:19:02Z</time>
      </trkpt>
      <trkpt lat="45.35372" lon="3.38251">
        <ele>415.3</ele>
        <time>2021-08-05T14:19:04Z</time>
      </trkpt>
      <trkpt lat="45.35364" lon="3.38259">
        <ele>415.6</ele>
        <time>2021-08-05T14:19:06Z</time>
      </trkpt>
      <trkpt lat="45.35356" lon="3.38267">
        <ele>415.6</ele>
        <time>2021-08-05T14:19:08Z</time>
      </trkpt>
      <trkpt lat="45.35347" lon="3.38274">
        <ele>415.4</ele>
        <time>2021-08-05T14:19:10Z</time>
      </trkpt>
      <trkpt lat="45.35339" lon="3.38282">
        <ele>415</ele>
        <time>2021-08-05T14:19:12Z</time>
      </trkpt>
      <trkpt lat="45.3533" lon="3.38289">
        <ele>414.7</ele>
        <time>2021-08-05T14:19:14Z</time>
      </trkpt>
      <trkpt lat="45.35321" lon="3.38295">
        <ele>414.7</ele>
        <time>2021-08-05T14:19:16Z</time>
      </trkpt>
      <trkpt lat="45.35313" lon="3.38301">
        <ele>414.7</ele>
        <time>2021-08-05T14:19:18Z</time>
      </trkpt>
      <trkpt lat="45.35304" lon="3.38307">
        <ele>414.6</ele>
        <time>2021-08-05T14:19:20Z</time>
      </trkpt>
      <trkpt lat="45.35296" lon="3.38314">
        <ele>414.4</ele>
        <time>2021-08-05T14:19:22Z</time>
      </trkpt>
      <trkpt lat="45.35287" lon="3.3832">
        <ele>414.2</ele>
        <time>2021-08-05T14:19:24Z</time>
      </trkpt>
      <trkpt lat="45.35279" lon="3.38325">
        <ele>413.8</ele>
        <time>2021-08-05T14:19:26Z</time>
      </trkpt>
      <trkpt lat="45.35271" lon="3.38331">
        <ele>413.5</ele>
        <time>2021-08-05T14:19:28Z</time>
      </trkpt>
      <trkpt lat="45.35263" lon="3.38337">
        <ele>413.1</ele>
        <time>2021-08-05T14:19:30Z</time>
      </trkpt>
      <trkpt lat="45.35255" lon="3.38343">
        <ele>412.6</ele>
        <time>2021-08-05T14:19:32Z</time>
      </trkpt>
      <trkpt lat="45.35246" lon="3.38348">
        <ele>412.4</ele>
        <time>2021-08-05T14:19:34Z</time>
      </trkpt>
      <trkpt lat="45.35238" lon="3.38352">
        <ele>412.5</ele>
        <time>2021-08-05T14:19:36Z</time>
      </trkpt>
      <trkpt lat="45.3523" lon="3.38357">
        <ele>412.7</ele>
        <time>2021-08-05T14:19:38Z</time>
      </trkpt>
      <trkpt lat="45.35222" lon="3.38361">
        <ele>412.8</ele>
        <time>2021-08-05T14:19:40Z</time>
      </trkpt>
      <trkpt lat="45.35214" lon="3.38364">
        <ele>412.8</ele>
        <time>2021-08-05T14:19:42Z</time>
      </trkpt>
      <trkpt lat="45.35206" lon="3.38367">
        <ele>412.9</ele>
        <time>2021-08-05T14:19:44Z</time>
      </trkpt>
      <trkpt lat="45.35197" lon="3.3837">
        <ele>413</ele>
        <time>2021-08-05T14:19:46Z</time>
      </trkpt>
      <trkpt lat="45.35189" lon="3.38374">
        <ele>413</ele>
        <time>2021-08-05T14:19:48Z</time>
      </trkpt>
      <trkpt lat="45.35181" lon="3.38378">
        <ele>413</ele>
        <time>2021-08-05T14:19:50Z</time>
      </trkpt>
      <trkpt lat="45.35173" lon="3.38381">
        <ele>413</ele>
        <time>2021-08-05T14:19:52Z</time>
      </trkpt>
      <trkpt lat="45.35165" lon="3.38385">
        <ele>413</ele>
        <time>2021-08-05T14:19:54Z</time>
      </trkpt>
      <trkpt lat="45.35157" lon="3.38388">
        <ele>413.1</ele>
        <time>2021-08-05T14:19:56Z</time>
      </trkpt>
      <trkpt lat="45.3515" lon="3.38391">
        <ele>413.1</ele>
        <time>2021-08-05T14:19:58Z</time>
      </trkpt>
      <trkpt lat="45.35143" lon="3.38394">
        <ele>413.2</ele>
        <time>2021-08-05T14:20:00Z</time>
      </trkpt>
      <trkpt lat="45.35136" lon="3.38397">
        <ele>413.3</ele>
        <time>2021-08-05T14:20:02Z</time>
      </trkpt>
      <trkpt lat="45.3513" lon="3.384">
        <ele>413.4</ele>
        <time>2021-08-05T14:20:04Z</time>
      </trkpt>
      <trkpt lat="45.35124" lon="3.38403">
        <ele>413.4</ele>
        <time>2021-08-05T14:20:06Z</time>
      </trkpt>
      <trkpt lat="45.35118" lon="3.38405">
        <ele>413.5</ele>
        <time>2021-08-05T14:20:08Z</time>
      </trkpt>
      <trkpt lat="45.35112" lon="3.38408">
        <ele>413.6</ele>
        <time>2021-08-05T14:20:10Z</time>
      </trkpt>
      <trkpt lat="45.35106" lon="3.38411">
        <ele>413.7</ele>
        <time>2021-08-05T14:20:12Z</time>
      </trkpt>
      <trkpt lat="45.35101" lon="3.38413">
        <ele>413.8</ele>
        <time>2021-08-05T14:20:14Z</time>
      </trkpt>
      <trkpt lat="45.35096" lon="3.38415">
        <ele>413.8</ele>
        <time>2021-08-05T14:20:16Z</time>
      </trkpt>
      <trkpt lat="45.3509" lon="3.38417">
        <ele>413.9</ele>
        <time>2021-08-05T14:20:18Z</time>
      </trkpt>
      <trkpt lat="45.35085" lon="3.38418">
        <ele>414</ele>
        <time>2021-08-05T14:20:20Z</time>
      </trkpt>
      <trkpt lat="45.3508" lon="3.38422">
        <ele>414</ele>
        <time>2021-08-05T14:20:22Z</time>
      </trkpt>
      <trkpt lat="45.35074" lon="3.38424">
        <ele>414</ele>
        <time>2021-08-05T14:20:24Z</time>
      </trkpt>
      <trkpt lat="45.35068" lon="3.38426">
        <ele>413.9</ele>
        <time>2021-08-05T14:20:26Z</time>
      </trkpt>
      <trkpt lat="45.3506" lon="3.38427">
        <ele>413.8</ele>
        <time>2021-08-05T14:20:28Z</time>
      </trkpt>
      <trkpt lat="45.35052" lon="3.38424">
        <ele>413.7</ele>
        <time>2021-08-05T14:20:30Z</time>
      </trkpt>
      <trkpt lat="45.35043" lon="3.38418">
        <ele>413.5</ele>
        <time>2021-08-05T14:20:32Z</time>
      </trkpt>
      <trkpt lat="45.35034" lon="3.3841">
        <ele>413.3</ele>
        <time>2021-08-05T14:20:34Z</time>
      </trkpt>
      <trkpt lat="45.35024" lon="3.38402">
        <ele>413.1</ele>
        <time>2021-08-05T14:20:36Z</time>
      </trkpt>
      <trkpt lat="45.35013" lon="3.38393">
        <ele>412.9</ele>
        <time>2021-08-05T14:20:38Z</time>
      </trkpt>
      <trkpt lat="45.35002" lon="3.38385">
        <ele>412.6</ele>
        <time>2021-08-05T14:20:40Z</time>
      </trkpt>
      <trkpt lat="45.3499" lon="3.38379">
        <ele>412.4</ele>
        <time>2021-08-05T14:20:42Z</time>
      </trkpt>
      <trkpt lat="45.34978" lon="3.38374">
        <ele>412.2</ele>
        <time>2021-08-05T14:20:44Z</time>
      </trkpt>
      <trkpt lat="45.34965" lon="3.38371">
        <ele>412</ele>
        <time>2021-08-05T14:20:46Z</time>
      </trkpt>
      <trkpt lat="45.34952" lon="3.38368">
        <ele>411.8</ele>
        <time>2021-08-05T14:20:48Z</time>
      </trkpt>
      <trkpt lat="45.34939" lon="3.38366">
        <ele>411.7</ele>
        <time>2021-08-05T14:20:50Z</time>
      </trkpt>
      <trkpt lat="45.34926" lon="3.38362">
        <ele>411.5</ele>
        <time>2021-08-05T14:20:52Z</time>
      </trkpt>
      <trkpt lat="45.34913" lon="3.38359">
        <ele>411.2</ele>
        <time>2021-08-05T14:20:54Z</time>
      </trkpt>
      <trkpt lat="45.34901" lon="3.38355">
        <ele>410.9</ele>
        <time>2021-08-05T14:20:56Z</time>
      </trkpt>
      <trkpt lat="45.34888" lon="3.38351">
        <ele>410.6</ele>
        <time>2021-08-05T14:20:58Z</time>
      </trkpt>
      <trkpt lat="45.34876" lon="3.38347">
        <ele>410.3</ele>
        <time>2021-08-05T14:21:00Z</time>
      </trkpt>
      <trkpt lat="45.34863" lon="3.38344">
        <ele>409.9</ele>
        <time>2021-08-05T14:21:02Z</time>
      </trkpt>
      <trkpt lat="45.34851" lon="3.38342">
        <ele>409.6</ele>
        <time>2021-08-05T14:21:04Z</time>
      </trkpt>
      <trkpt lat="45.34838" lon="3.38342">
        <ele>409.3</ele>
        <time>2021-08-05T14:21:06Z</time>
      </trkpt>
      <trkpt lat="45.34826" lon="3.38343">
        <ele>409.3</ele>
        <time>2021-08-05T14:21:08Z</time>
      </trkpt>
      <trkpt lat="45.34815" lon="3.38345">
        <ele>409.4</ele>
        <time>2021-08-05T14:21:10Z</time>
      </trkpt>
      <trkpt lat="45.34803" lon="3.38348">
        <ele>409.6</ele>
        <time>2021-08-05T14:21:12Z</time>
      </trkpt>
      <trkpt lat="45.34793" lon="3.38352">
        <ele>409.7</ele>
        <time>2021-08-05T14:21:14Z</time>
      </trkpt>
      <trkpt lat="45.34782" lon="3.38356">
        <ele>409.8</ele>
        <time>2021-08-05T14:21:16Z</time>
      </trkpt>
      <trkpt lat="45.34771" lon="3.38361">
        <ele>409.9</ele>
        <time>2021-08-05T14:21:18Z</time>
      </trkpt>
      <trkpt lat="45.3476" lon="3.38366">
        <ele>410</ele>
        <time>2021-08-05T14:21:20Z</time>
      </trkpt>
      <trkpt lat="45.34749" lon="3.38371">
        <ele>410</ele>
        <time>2021-08-05T14:21:22Z</time>
      </trkpt>
      <trkpt lat="45.34737" lon="3.38376">
        <ele>409.9</ele>
        <time>2021-08-05T14:21:24Z</time>
      </trkpt>
      <trkpt lat="45.34727" lon="3.38381">
        <ele>409.9</ele>
        <time>2021-08-05T14:21:26Z</time>
      </trkpt>
      <trkpt lat="45.34715" lon="3.38386">
        <ele>409.8</ele>
        <time>2021-08-05T14:21:28Z</time>
      </trkpt>
      <trkpt lat="45.34705" lon="3.38391">
        <ele>409.8</ele>
        <time>2021-08-05T14:21:30Z</time>
      </trkpt>
      <trkpt lat="45.34694" lon="3.38395">
        <ele>409.8</ele>
        <time>2021-08-05T14:21:32Z</time>
      </trkpt>
      <trkpt lat="45.34683" lon="3.384">
        <ele>409.8</ele>
        <time>2021-08-05T14:21:34Z</time>
      </trkpt>
      <trkpt lat="45.34672" lon="3.38405">
        <ele>409.9</ele>
        <time>2021-08-05T14:21:36Z</time>
      </trkpt>
      <trkpt lat="45.34661" lon="3.3841">
        <ele>409.9</ele>
        <time>2021-08-05T14:21:38Z</time>
      </trkpt>
      <trkpt lat="45.3465" lon="3.38415">
        <ele>410</ele>
        <time>2021-08-05T14:21:40Z</time>
      </trkpt>
      <trkpt lat="45.34639" lon="3.38419">
        <ele>410</ele>
        <time>2021-08-05T14:21:42Z</time>
      </trkpt>
      <trkpt lat="45.34628" lon="3.38425">
        <ele>410</ele>
        <time>2021-08-05T14:21:44Z</time>
      </trkpt>
      <trkpt lat="45.34617" lon="3.3843">
        <ele>409.9</ele>
        <time>2021-08-05T14:21:46Z</time>
      </trkpt>
      <trkpt lat="45.34606" lon="3.38434">
        <ele>409.8</ele>
        <time>2021-08-05T14:21:48Z</time>
      </trkpt>
      <trkpt lat="45.34595" lon="3.38439">
        <ele>409.8</ele>
        <time>2021-08-05T14:21:50Z</time>
      </trkpt>
      <trkpt lat="45.34583" lon="3.38444">
        <ele>409.7</ele>
        <time>2021-08-05T14:21:52Z</time>
      </trkpt>
      <trkpt lat="45.34572" lon="3.38449">
        <ele>409.5</ele>
        <time>2021-08-05T14:21:54Z</time>
      </trkpt>
      <trkpt lat="45.34562" lon="3.38454">
        <ele>409.4</ele>
        <time>2021-08-05T14:21:56Z</time>
      </trkpt>
      <trkpt lat="45.34551" lon="3.38459">
        <ele>409.3</ele>
        <time>2021-08-05T14:21:58Z</time>
      </trkpt>
      <trkpt lat="45.3454" lon="3.38464">
        <ele>409.2</ele>
        <time>2021-08-05T14:22:00Z</time>
      </trkpt>
      <trkpt lat="45.34529" lon="3.3847">
        <ele>409.1</ele>
        <time>2021-08-05T14:22:02Z</time>
      </trkpt>
      <trkpt lat="45.34519" lon="3.38476">
        <ele>409.1</ele>
        <time>2021-08-05T14:22:04Z</time>
      </trkpt>
      <trkpt lat="45.34508" lon="3.38483">
        <ele>409</ele>
        <time>2021-08-05T14:22:06Z</time>
      </trkpt>
      <trkpt lat="45.34499" lon="3.3849">
        <ele>409</ele>
        <time>2021-08-05T14:22:08Z</time>
      </trkpt>
      <trkpt lat="45.34488" lon="3.38497">
        <ele>409.1</ele>
        <time>2021-08-05T14:22:10Z</time>
      </trkpt>
      <trkpt lat="45.34478" lon="3.38504">
        <ele>409.3</ele>
        <time>2021-08-05T14:22:12Z</time>
      </trkpt>
      <trkpt lat="45.34467" lon="3.38512">
        <ele>409.5</ele>
        <time>2021-08-05T14:22:14Z</time>
      </trkpt>
      <trkpt lat="45.34457" lon="3.38518">
        <ele>409.6</ele>
        <time>2021-08-05T14:22:16Z</time>
      </trkpt>
      <trkpt lat="45.34446" lon="3.38525">
        <ele>409.8</ele>
        <time>2021-08-05T14:22:18Z</time>
      </trkpt>
      <trkpt lat="45.34436" lon="3.38531">
        <ele>409.9</ele>
        <time>2021-08-05T14:22:20Z</time>
      </trkpt>
      <trkpt lat="45.34425" lon="3.38537">
        <ele>409.9</ele>
        <time>2021-08-05T14:22:22Z</time>
      </trkpt>
      <trkpt lat="45.34414" lon="3.38543">
        <ele>410</ele>
        <time>2021-08-05T14:22:24Z</time>
      </trkpt>
      <trkpt lat="45.34404" lon="3.38549">
        <ele>409.9</ele>
        <time>2021-08-05T14:22:26Z</time>
      </trkpt>
      <trkpt lat="45.34393" lon="3.38554">
        <ele>409.9</ele>
        <time>2021-08-05T14:22:28Z</time>
      </trkpt>
      <trkpt lat="45.34382" lon="3.38558">
        <ele>409.9</ele>
        <time>2021-08-05T14:22:30Z</time>
      </trkpt>
      <trkpt lat="45.34371" lon="3.38563">
        <ele>409.9</ele>
        <time>2021-08-05T14:22:32Z</time>
      </trkpt>
      <trkpt lat="45.3436" lon="3.38567">
        <ele>409.9</ele>
        <time>2021-08-05T14:22:34Z</time>
      </trkpt>
      <trkpt lat="45.34349" lon="3.38572">
        <ele>409.9</ele>
        <time>2021-08-05T14:22:36Z</time>
      </trkpt>
      <trkpt lat="45.34338" lon="3.38575">
        <ele>409.9</ele>
        <time>2021-08-05T14:22:38Z</time>
      </trkpt>
      <trkpt lat="45.34327" lon="3.3858">
        <ele>410.1</ele>
        <time>2021-08-05T14:22:40Z</time>
      </trkpt>
      <trkpt lat="45.34316" lon="3.38583">
        <ele>410.4</ele>
        <time>2021-08-05T14:22:42Z</time>
      </trkpt>
      <trkpt lat="45.34305" lon="3.38587">
        <ele>410.8</ele>
        <time>2021-08-05T14:22:44Z</time>
      </trkpt>
      <trkpt lat="45.34294" lon="3.3859">
        <ele>411.1</ele>
        <time>2021-08-05T14:22:46Z</time>
      </trkpt>
      <trkpt lat="45.34283" lon="3.38592">
        <ele>411.4</ele>
        <time>2021-08-05T14:22:48Z</time>
      </trkpt>
      <trkpt lat="45.34272" lon="3.38595">
        <ele>411.7</ele>
        <time>2021-08-05T14:22:50Z</time>
      </trkpt>
      <trkpt lat="45.34261" lon="3.38597">
        <ele>412.1</ele>
        <time>2021-08-05T14:22:52Z</time>
      </trkpt>
      <trkpt lat="45.34251" lon="3.38599">
        <ele>412.4</ele>
        <time>2021-08-05T14:22:54Z</time>
      </trkpt>
      <trkpt lat="45.3424" lon="3.38602">
        <ele>412.9</ele>
        <time>2021-08-05T14:22:56Z</time>
      </trkpt>
      <trkpt lat="45.34229" lon="3.38604">
        <ele>413.3</ele>
        <time>2021-08-05T14:22:58Z</time>
      </trkpt>
      <trkpt lat="45.34218" lon="3.38606">
        <ele>413.8</ele>
        <time>2021-08-05T14:23:00Z</time>
      </trkpt>
      <trkpt lat="45.34207" lon="3.38608">
        <ele>414.2</ele>
        <time>2021-08-05T14:23:02Z</time>
      </trkpt>
      <trkpt lat="45.34197" lon="3.38611">
        <ele>414.6</ele>
        <time>2021-08-05T14:23:04Z</time>
      </trkpt>
      <trkpt lat="45.34186" lon="3.38614">
        <ele>414.9</ele>
        <time>2021-08-05T14:23:06Z</time>
      </trkpt>
      <trkpt lat="45.34176" lon="3.38618">
        <ele>415.3</ele>
        <time>2021-08-05T14:23:08Z</time>
      </trkpt>
      <trkpt lat="45.34166" lon="3.38623">
        <ele>415.5</ele>
        <time>2021-08-05T14:23:10Z</time>
      </trkpt>
      <trkpt lat="45.34156" lon="3.38628">
        <ele>415.1</ele>
        <time>2021-08-05T14:23:12Z</time>
      </trkpt>
      <trkpt lat="45.34147" lon="3.38632">
        <ele>414.7</ele>
        <time>2021-08-05T14:23:14Z</time>
      </trkpt>
      <trkpt lat="45.34137" lon="3.38638">
        <ele>414.4</ele>
        <time>2021-08-05T14:23:16Z</time>
      </trkpt>
      <trkpt lat="45.34127" lon="3.38643">
        <ele>414.1</ele>
        <time>2021-08-05T14:23:18Z</time>
      </trkpt>
      <trkpt lat="45.34117" lon="3.38648">
        <ele>413.8</ele>
        <time>2021-08-05T14:23:20Z</time>
      </trkpt>
      <trkpt lat="45.34107" lon="3.38653">
        <ele>413.5</ele>
        <time>2021-08-05T14:23:22Z</time>
      </trkpt>
      <trkpt lat="45.34097" lon="3.38658">
        <ele>413.2</ele>
        <time>2021-08-05T14:23:24Z</time>
      </trkpt>
      <trkpt lat="45.34087" lon="3.38663">
        <ele>413</ele>
        <time>2021-08-05T14:23:26Z</time>
      </trkpt>
      <trkpt lat="45.34077" lon="3.38669">
        <ele>413</ele>
        <time>2021-08-05T14:23:28Z</time>
      </trkpt>
      <trkpt lat="45.34067" lon="3.38674">
        <ele>413.1</ele>
        <time>2021-08-05T14:23:30Z</time>
      </trkpt>
      <trkpt lat="45.34057" lon="3.38678">
        <ele>413.1</ele>
        <time>2021-08-05T14:23:32Z</time>
      </trkpt>
      <trkpt lat="45.34048" lon="3.38684">
        <ele>413.2</ele>
        <time>2021-08-05T14:23:34Z</time>
      </trkpt>
      <trkpt lat="45.34038" lon="3.38689">
        <ele>413.3</ele>
        <time>2021-08-05T14:23:36Z</time>
      </trkpt>
      <trkpt lat="45.34029" lon="3.38694">
        <ele>413.3</ele>
        <time>2021-08-05T14:23:38Z</time>
      </trkpt>
      <trkpt lat="45.3402" lon="3.38699">
        <ele>413.4</ele>
        <time>2021-08-05T14:23:40Z</time>
      </trkpt>
      <trkpt lat="45.34012" lon="3.38705">
        <ele>413.5</ele>
        <time>2021-08-05T14:23:42Z</time>
      </trkpt>
      <trkpt lat="45.34003" lon="3.3871">
        <ele>413.6</ele>
        <time>2021-08-05T14:23:44Z</time>
      </trkpt>
      <trkpt lat="45.33996" lon="3.38716">
        <ele>413.7</ele>
        <time>2021-08-05T14:23:46Z</time>
      </trkpt>
      <trkpt lat="45.33988" lon="3.38722">
        <ele>413.8</ele>
        <time>2021-08-05T14:23:48Z</time>
      </trkpt>
      <trkpt lat="45.33981" lon="3.38729">
        <ele>413.9</ele>
        <time>2021-08-05T14:23:50Z</time>
      </trkpt>
      <trkpt lat="45.33974" lon="3.38737">
        <ele>414</ele>
        <time>2021-08-05T14:23:52Z</time>
      </trkpt>
      <trkpt lat="45.33967" lon="3.38745">
        <ele>414.1</ele>
        <time>2021-08-05T14:23:54Z</time>
      </trkpt>
      <trkpt lat="45.33961" lon="3.38753">
        <ele>414.3</ele>
        <time>2021-08-05T14:23:56Z</time>
      </trkpt>
      <trkpt lat="45.33955" lon="3.38762">
        <ele>415</ele>
        <time>2021-08-05T14:23:58Z</time>
      </trkpt>
      <trkpt lat="45.33949" lon="3.38771">
        <ele>415.5</ele>
        <time>2021-08-05T14:24:00Z</time>
      </trkpt>
      <trkpt lat="45.33944" lon="3.3878">
        <ele>415.9</ele>
        <time>2021-08-05T14:24:02Z</time>
      </trkpt>
      <trkpt lat="45.33938" lon="3.3879">
        <ele>416.2</ele>
        <time>2021-08-05T14:24:04Z</time>
      </trkpt>
      <trkpt lat="45.33934" lon="3.38799">
        <ele>416.4</ele>
        <time>2021-08-05T14:24:06Z</time>
      </trkpt>
      <trkpt lat="45.33929" lon="3.38809">
        <ele>416.4</ele>
        <time>2021-08-05T14:24:08Z</time>
      </trkpt>
      <trkpt lat="45.33925" lon="3.38819">
        <ele>416.5</ele>
        <time>2021-08-05T14:24:10Z</time>
      </trkpt>
      <trkpt lat="45.33921" lon="3.38829">
        <ele>416.5</ele>
        <time>2021-08-05T14:24:12Z</time>
      </trkpt>
      <trkpt lat="45.33918" lon="3.38838">
        <ele>416.8</ele>
        <time>2021-08-05T14:24:14Z</time>
      </trkpt>
      <trkpt lat="45.33915" lon="3.38848">
        <ele>417.6</ele>
        <time>2021-08-05T14:24:16Z</time>
      </trkpt>
      <trkpt lat="45.33912" lon="3.38858">
        <ele>418.5</ele>
        <time>2021-08-05T14:24:18Z</time>
      </trkpt>
      <trkpt lat="45.33909" lon="3.38868">
        <ele>419.4</ele>
        <time>2021-08-05T14:24:20Z</time>
      </trkpt>
      <trkpt lat="45.33906" lon="3.38879">
        <ele>420.1</ele>
        <time>2021-08-05T14:24:22Z</time>
      </trkpt>
      <trkpt lat="45.33902" lon="3.38889">
        <ele>420.8</ele>
        <time>2021-08-05T14:24:24Z</time>
      </trkpt>
      <trkpt lat="45.33899" lon="3.38898">
        <ele>421.3</ele>
        <time>2021-08-05T14:24:26Z</time>
      </trkpt>
      <trkpt lat="45.33896" lon="3.38908">
        <ele>421.8</ele>
        <time>2021-08-05T14:24:28Z</time>
      </trkpt>
      <trkpt lat="45.33893" lon="3.38917">
        <ele>422.1</ele>
        <time>2021-08-05T14:24:30Z</time>
      </trkpt>
      <trkpt lat="45.3389" lon="3.38927">
        <ele>422.8</ele>
        <time>2021-08-05T14:24:32Z</time>
      </trkpt>
      <trkpt lat="45.33886" lon="3.38937">
        <ele>423.4</ele>
        <time>2021-08-05T14:24:34Z</time>
      </trkpt>
      <trkpt lat="45.33883" lon="3.38947">
        <ele>424</ele>
        <time>2021-08-05T14:24:36Z</time>
      </trkpt>
      <trkpt lat="45.3388" lon="3.38957">
        <ele>424.5</ele>
        <time>2021-08-05T14:24:38Z</time>
      </trkpt>
      <trkpt lat="45.33876" lon="3.38966">
        <ele>424.9</ele>
        <time>2021-08-05T14:24:40Z</time>
      </trkpt>
      <trkpt lat="45.33872" lon="3.38976">
        <ele>425.1</ele>
        <time>2021-08-05T14:24:42Z</time>
      </trkpt>
      <trkpt lat="45.33867" lon="3.38985">
        <ele>425.1</ele>
        <time>2021-08-05T14:24:44Z</time>
      </trkpt>
      <trkpt lat="45.33862" lon="3.38994">
        <ele>425</ele>
        <time>2021-08-05T14:24:46Z</time>
      </trkpt>
      <trkpt lat="45.33857" lon="3.39003">
        <ele>424.8</ele>
        <time>2021-08-05T14:24:48Z</time>
      </trkpt>
      <trkpt lat="45.33851" lon="3.39011">
        <ele>424.5</ele>
        <time>2021-08-05T14:24:50Z</time>
      </trkpt>
      <trkpt lat="45.33845" lon="3.39017">
        <ele>424.2</ele>
        <time>2021-08-05T14:24:52Z</time>
      </trkpt>
      <trkpt lat="45.33839" lon="3.39024">
        <ele>423.9</ele>
        <time>2021-08-05T14:24:54Z</time>
      </trkpt>
      <trkpt lat="45.33833" lon="3.39031">
        <ele>423.7</ele>
        <time>2021-08-05T14:24:56Z</time>
      </trkpt>
      <trkpt lat="45.33826" lon="3.39037">
        <ele>423.9</ele>
        <time>2021-08-05T14:24:58Z</time>
      </trkpt>
      <trkpt lat="45.3382" lon="3.39043">
        <ele>424.1</ele>
        <time>2021-08-05T14:25:00Z</time>
      </trkpt>
      <trkpt lat="45.33815" lon="3.39049">
        <ele>424.2</ele>
        <time>2021-08-05T14:25:02Z</time>
      </trkpt>
      <trkpt lat="45.33809" lon="3.39057">
        <ele>424.4</ele>
        <time>2021-08-05T14:25:04Z</time>
      </trkpt>
      <trkpt lat="45.33804" lon="3.39064">
        <ele>424.7</ele>
        <time>2021-08-05T14:25:06Z</time>
      </trkpt>
      <trkpt lat="45.338" lon="3.39071">
        <ele>424.8</ele>
        <time>2021-08-05T14:25:08Z</time>
      </trkpt>
      <trkpt lat="45.33795" lon="3.39078">
        <ele>425</ele>
        <time>2021-08-05T14:25:10Z</time>
      </trkpt>
      <trkpt lat="45.33792" lon="3.39086">
        <ele>425.2</ele>
        <time>2021-08-05T14:25:12Z</time>
      </trkpt>
      <trkpt lat="45.33789" lon="3.39096">
        <ele>425.4</ele>
        <time>2021-08-05T14:25:14Z</time>
      </trkpt>
      <trkpt lat="45.33785" lon="3.39106">
        <ele>425.4</ele>
        <time>2021-08-05T14:25:16Z</time>
      </trkpt>
      <trkpt lat="45.33783" lon="3.39118">
        <ele>425.7</ele>
        <time>2021-08-05T14:25:18Z</time>
      </trkpt>
      <trkpt lat="45.3378" lon="3.39131">
        <ele>426.1</ele>
        <time>2021-08-05T14:25:20Z</time>
      </trkpt>
      <trkpt lat="45.33778" lon="3.39145">
        <ele>426.5</ele>
        <time>2021-08-05T14:25:22Z</time>
      </trkpt>
      <trkpt lat="45.33778" lon="3.39159">
        <ele>427.3</ele>
        <time>2021-08-05T14:25:24Z</time>
      </trkpt>
      <trkpt lat="45.33778" lon="3.39173">
        <ele>427.7</ele>
        <time>2021-08-05T14:25:26Z</time>
      </trkpt>
      <trkpt lat="45.33777" lon="3.39188">
        <ele>427.6</ele>
        <time>2021-08-05T14:25:28Z</time>
      </trkpt>
      <trkpt lat="45.33776" lon="3.39204">
        <ele>427.5</ele>
        <time>2021-08-05T14:25:30Z</time>
      </trkpt>
      <trkpt lat="45.33775" lon="3.39219">
        <ele>427.4</ele>
        <time>2021-08-05T14:25:32Z</time>
      </trkpt>
      <trkpt lat="45.33774" lon="3.39235">
        <ele>427.3</ele>
        <time>2021-08-05T14:25:34Z</time>
      </trkpt>
      <trkpt lat="45.33773" lon="3.39251">
        <ele>427.3</ele>
        <time>2021-08-05T14:25:36Z</time>
      </trkpt>
      <trkpt lat="45.33772" lon="3.39267">
        <ele>428.3</ele>
        <time>2021-08-05T14:25:38Z</time>
      </trkpt>
      <trkpt lat="45.3377" lon="3.39284">
        <ele>429.3</ele>
        <time>2021-08-05T14:25:40Z</time>
      </trkpt>
      <trkpt lat="45.33766" lon="3.393">
        <ele>429.9</ele>
        <time>2021-08-05T14:25:42Z</time>
      </trkpt>
      <trkpt lat="45.3376" lon="3.39315">
        <ele>430.1</ele>
        <time>2021-08-05T14:25:44Z</time>
      </trkpt>
      <trkpt lat="45.33752" lon="3.39328">
        <ele>429.8</ele>
        <time>2021-08-05T14:25:46Z</time>
      </trkpt>
      <trkpt lat="45.33743" lon="3.3934">
        <ele>429.9</ele>
        <time>2021-08-05T14:25:48Z</time>
      </trkpt>
      <trkpt lat="45.33733" lon="3.3935">
        <ele>430.1</ele>
        <time>2021-08-05T14:25:50Z</time>
      </trkpt>
      <trkpt lat="45.33722" lon="3.39358">
        <ele>429.6</ele>
        <time>2021-08-05T14:25:52Z</time>
      </trkpt>
      <trkpt lat="45.33711" lon="3.39367">
        <ele>429.2</ele>
        <time>2021-08-05T14:25:54Z</time>
      </trkpt>
      <trkpt lat="45.33699" lon="3.39374">
        <ele>428.8</ele>
        <time>2021-08-05T14:25:56Z</time>
      </trkpt>
      <trkpt lat="45.33688" lon="3.39381">
        <ele>428.3</ele>
        <time>2021-08-05T14:25:58Z</time>
      </trkpt>
      <trkpt lat="45.33677" lon="3.39388">
        <ele>427.7</ele>
        <time>2021-08-05T14:26:00Z</time>
      </trkpt>
      <trkpt lat="45.33666" lon="3.39395">
        <ele>427.2</ele>
        <time>2021-08-05T14:26:02Z</time>
      </trkpt>
      <trkpt lat="45.33654" lon="3.39403">
        <ele>427.1</ele>
        <time>2021-08-05T14:26:04Z</time>
      </trkpt>
      <trkpt lat="45.33643" lon="3.3941">
        <ele>426.6</ele>
        <time>2021-08-05T14:26:06Z</time>
      </trkpt>
      <trkpt lat="45.33632" lon="3.39417">
        <ele>426</ele>
        <time>2021-08-05T14:26:08Z</time>
      </trkpt>
      <trkpt lat="45.3362" lon="3.39423">
        <ele>425.5</ele>
        <time>2021-08-05T14:26:10Z</time>
      </trkpt>
      <trkpt lat="45.33608" lon="3.39429">
        <ele>424.9</ele>
        <time>2021-08-05T14:26:12Z</time>
      </trkpt>
      <trkpt lat="45.33596" lon="3.39432">
        <ele>424</ele>
        <time>2021-08-05T14:26:14Z</time>
      </trkpt>
      <trkpt lat="45.33585" lon="3.39433">
        <ele>422.8</ele>
        <time>2021-08-05T14:26:16Z</time>
      </trkpt>
      <trkpt lat="45.33574" lon="3.39434">
        <ele>423.3</ele>
        <time>2021-08-05T14:26:18Z</time>
      </trkpt>
      <trkpt lat="45.33564" lon="3.39433">
        <ele>423.9</ele>
        <time>2021-08-05T14:26:20Z</time>
      </trkpt>
      <trkpt lat="45.33553" lon="3.39433">
        <ele>424.4</ele>
        <time>2021-08-05T14:26:22Z</time>
      </trkpt>
      <trkpt lat="45.33542" lon="3.39434">
        <ele>425.2</ele>
        <time>2021-08-05T14:26:24Z</time>
      </trkpt>
      <trkpt lat="45.33531" lon="3.39434">
        <ele>426</ele>
        <time>2021-08-05T14:26:26Z</time>
      </trkpt>
      <trkpt lat="45.3352" lon="3.39434">
        <ele>426.7</ele>
        <time>2021-08-05T14:26:28Z</time>
      </trkpt>
      <trkpt lat="45.33509" lon="3.39435">
        <ele>427.4</ele>
        <time>2021-08-05T14:26:30Z</time>
      </trkpt>
      <trkpt lat="45.33498" lon="3.39435">
        <ele>428</ele>
        <time>2021-08-05T14:26:32Z</time>
      </trkpt>
      <trkpt lat="45.33487" lon="3.39436">
        <ele>427.5</ele>
        <time>2021-08-05T14:26:34Z</time>
      </trkpt>
      <trkpt lat="45.33476" lon="3.39438">
        <ele>427</ele>
        <time>2021-08-05T14:26:36Z</time>
      </trkpt>
      <trkpt lat="45.33465" lon="3.3944">
        <ele>426.8</ele>
        <time>2021-08-05T14:26:38Z</time>
      </trkpt>
      <trkpt lat="45.33454" lon="3.39441">
        <ele>426.5</ele>
        <time>2021-08-05T14:26:40Z</time>
      </trkpt>
      <trkpt lat="45.33444" lon="3.39444">
        <ele>426.5</ele>
        <time>2021-08-05T14:26:42Z</time>
      </trkpt>
      <trkpt lat="45.33433" lon="3.39446">
        <ele>426.3</ele>
        <time>2021-08-05T14:26:44Z</time>
      </trkpt>
      <trkpt lat="45.33423" lon="3.39447">
        <ele>425.9</ele>
        <time>2021-08-05T14:26:46Z</time>
      </trkpt>
      <trkpt lat="45.33412" lon="3.39449">
        <ele>425.8</ele>
        <time>2021-08-05T14:26:48Z</time>
      </trkpt>
      <trkpt lat="45.33402" lon="3.39452">
        <ele>425.7</ele>
        <time>2021-08-05T14:26:50Z</time>
      </trkpt>
      <trkpt lat="45.33392" lon="3.39454">
        <ele>425.5</ele>
        <time>2021-08-05T14:26:52Z</time>
      </trkpt>
      <trkpt lat="45.33382" lon="3.39456">
        <ele>425.3</ele>
        <time>2021-08-05T14:26:54Z</time>
      </trkpt>
      <trkpt lat="45.33372" lon="3.39459">
        <ele>425.1</ele>
        <time>2021-08-05T14:26:56Z</time>
      </trkpt>
      <trkpt lat="45.33363" lon="3.39463">
        <ele>425.3</ele>
        <time>2021-08-05T14:26:58Z</time>
      </trkpt>
      <trkpt lat="45.33354" lon="3.39469">
        <ele>425.7</ele>
        <time>2021-08-05T14:27:00Z</time>
      </trkpt>
      <trkpt lat="45.33345" lon="3.39475">
        <ele>426</ele>
        <time>2021-08-05T14:27:02Z</time>
      </trkpt>
      <trkpt lat="45.33337" lon="3.39482">
        <ele>426.6</ele>
        <time>2021-08-05T14:27:04Z</time>
      </trkpt>
      <trkpt lat="45.33329" lon="3.3949">
        <ele>427.2</ele>
        <time>2021-08-05T14:27:06Z</time>
      </trkpt>
      <trkpt lat="45.33322" lon="3.39499">
        <ele>427.9</ele>
        <time>2021-08-05T14:27:08Z</time>
      </trkpt>
      <trkpt lat="45.33315" lon="3.39509">
        <ele>428.7</ele>
        <time>2021-08-05T14:27:10Z</time>
      </trkpt>
      <trkpt lat="45.3331" lon="3.3952">
        <ele>429.5</ele>
        <time>2021-08-05T14:27:12Z</time>
      </trkpt>
      <trkpt lat="45.33304" lon="3.39531">
        <ele>430.2</ele>
        <time>2021-08-05T14:27:14Z</time>
      </trkpt>
      <trkpt lat="45.33299" lon="3.39542">
        <ele>430.7</ele>
        <time>2021-08-05T14:27:16Z</time>
      </trkpt>
      <trkpt lat="45.33295" lon="3.39553">
        <ele>431.1</ele>
        <time>2021-08-05T14:27:18Z</time>
      </trkpt>
      <trkpt lat="45.3329" lon="3.39565">
        <ele>431.4</ele>
        <time>2021-08-05T14:27:20Z</time>
      </trkpt>
      <trkpt lat="45.33286" lon="3.39577">
        <ele>431.6</ele>
        <time>2021-08-05T14:27:22Z</time>
      </trkpt>
      <trkpt lat="45.33282" lon="3.39589">
        <ele>431.2</ele>
        <time>2021-08-05T14:27:24Z</time>
      </trkpt>
      <trkpt lat="45.33277" lon="3.396">
        <ele>430.2</ele>
        <time>2021-08-05T14:27:26Z</time>
      </trkpt>
      <trkpt lat="45.33272" lon="3.39612">
        <ele>429.2</ele>
        <time>2021-08-05T14:27:28Z</time>
      </trkpt>
      <trkpt lat="45.33267" lon="3.39624">
        <ele>427.9</ele>
        <time>2021-08-05T14:27:30Z</time>
      </trkpt>
      <trkpt lat="45.33262" lon="3.39635">
        <ele>426.8</ele>
        <time>2021-08-05T14:27:32Z</time>
      </trkpt>
      <trkpt lat="45.33256" lon="3.39646">
        <ele>425.4</ele>
        <time>2021-08-05T14:27:34Z</time>
      </trkpt>
      <trkpt lat="45.3325" lon="3.39657">
        <ele>424</ele>
        <time>2021-08-05T14:27:36Z</time>
      </trkpt>
      <trkpt lat="45.33243" lon="3.39667">
        <ele>423.5</ele>
        <time>2021-08-05T14:27:38Z</time>
      </trkpt>
      <trkpt lat="45.33237" lon="3.39678">
        <ele>423.5</ele>
        <time>2021-08-05T14:27:40Z</time>
      </trkpt>
      <trkpt lat="45.33229" lon="3.39687">
        <ele>423.4</ele>
        <time>2021-08-05T14:27:42Z</time>
      </trkpt>
      <trkpt lat="45.33221" lon="3.39697">
        <ele>423.3</ele>
        <time>2021-08-05T14:27:44Z</time>
      </trkpt>
      <trkpt lat="45.33213" lon="3.39706">
        <ele>423</ele>
        <time>2021-08-05T14:27:46Z</time>
      </trkpt>
      <trkpt lat="45.33204" lon="3.39713">
        <ele>422.6</ele>
        <time>2021-08-05T14:27:48Z</time>
      </trkpt>
      <trkpt lat="45.33195" lon="3.3972">
        <ele>422.2</ele>
        <time>2021-08-05T14:27:50Z</time>
      </trkpt>
      <trkpt lat="45.33186" lon="3.39727">
        <ele>421.7</ele>
        <time>2021-08-05T14:27:52Z</time>
      </trkpt>
      <trkpt lat="45.33178" lon="3.39734">
        <ele>421.3</ele>
        <time>2021-08-05T14:27:54Z</time>
      </trkpt>
      <trkpt lat="45.3317" lon="3.39743">
        <ele>421</ele>
        <time>2021-08-05T14:27:56Z</time>
      </trkpt>
      <trkpt lat="45.33163" lon="3.39752">
        <ele>421.1</ele>
        <time>2021-08-05T14:27:58Z</time>
      </trkpt>
      <trkpt lat="45.33158" lon="3.39762">
        <ele>421.8</ele>
        <time>2021-08-05T14:28:00Z</time>
      </trkpt>
      <trkpt lat="45.33152" lon="3.39772">
        <ele>422.4</ele>
        <time>2021-08-05T14:28:02Z</time>
      </trkpt>
      <trkpt lat="45.33147" lon="3.39783">
        <ele>423</ele>
        <time>2021-08-05T14:28:04Z</time>
      </trkpt>
      <trkpt lat="45.33142" lon="3.39794">
        <ele>423.5</ele>
        <time>2021-08-05T14:28:06Z</time>
      </trkpt>
      <trkpt lat="45.33137" lon="3.39807">
        <ele>423.9</ele>
        <time>2021-08-05T14:28:08Z</time>
      </trkpt>
      <trkpt lat="45.33131" lon="3.39819">
        <ele>424</ele>
        <time>2021-08-05T14:28:10Z</time>
      </trkpt>
      <trkpt lat="45.33125" lon="3.39832">
        <ele>423.9</ele>
        <time>2021-08-05T14:28:12Z</time>
      </trkpt>
      <trkpt lat="45.33119" lon="3.39846">
        <ele>424.1</ele>
        <time>2021-08-05T14:28:14Z</time>
      </trkpt>
      <trkpt lat="45.33112" lon="3.3986">
        <ele>424.1</ele>
        <time>2021-08-05T14:28:16Z</time>
      </trkpt>
      <trkpt lat="45.33106" lon="3.39874">
        <ele>423.8</ele>
        <time>2021-08-05T14:28:18Z</time>
      </trkpt>
      <trkpt lat="45.33099" lon="3.39888">
        <ele>423.3</ele>
        <time>2021-08-05T14:28:20Z</time>
      </trkpt>
      <trkpt lat="45.33092" lon="3.39903">
        <ele>422.5</ele>
        <time>2021-08-05T14:28:22Z</time>
      </trkpt>
      <trkpt lat="45.33085" lon="3.39917">
        <ele>421.6</ele>
        <time>2021-08-05T14:28:24Z</time>
      </trkpt>
      <trkpt lat="45.33079" lon="3.39931">
        <ele>422.7</ele>
        <time>2021-08-05T14:28:26Z</time>
      </trkpt>
      <trkpt lat="45.33072" lon="3.39945">
        <ele>423.9</ele>
        <time>2021-08-05T14:28:28Z</time>
      </trkpt>
      <trkpt lat="45.33066" lon="3.39958">
        <ele>424.9</ele>
        <time>2021-08-05T14:28:30Z</time>
      </trkpt>
      <trkpt lat="45.33059" lon="3.39971">
        <ele>425.4</ele>
        <time>2021-08-05T14:28:32Z</time>
      </trkpt>
      <trkpt lat="45.33052" lon="3.39983">
        <ele>425.4</ele>
        <time>2021-08-05T14:28:34Z</time>
      </trkpt>
      <trkpt lat="45.33045" lon="3.39994">
        <ele>425.2</ele>
        <time>2021-08-05T14:28:36Z</time>
      </trkpt>
      <trkpt lat="45.33037" lon="3.40003">
        <ele>424.5</ele>
        <time>2021-08-05T14:28:38Z</time>
      </trkpt>
      <trkpt lat="45.33029" lon="3.40012">
        <ele>424.1</ele>
        <time>2021-08-05T14:28:40Z</time>
      </trkpt>
      <trkpt lat="45.33021" lon="3.40022">
        <ele>424</ele>
        <time>2021-08-05T14:28:42Z</time>
      </trkpt>
      <trkpt lat="45.33014" lon="3.4003">
        <ele>423.8</ele>
        <time>2021-08-05T14:28:44Z</time>
      </trkpt>
      <trkpt lat="45.33006" lon="3.40039">
        <ele>423.7</ele>
        <time>2021-08-05T14:28:46Z</time>
      </trkpt>
      <trkpt lat="45.32998" lon="3.40047">
        <ele>423.8</ele>
        <time>2021-08-05T14:28:48Z</time>
      </trkpt>
      <trkpt lat="45.3299" lon="3.40056">
        <ele>424.3</ele>
        <time>2021-08-05T14:28:50Z</time>
      </trkpt>
      <trkpt lat="45.32983" lon="3.40064">
        <ele>424.4</ele>
        <time>2021-08-05T14:28:52Z</time>
      </trkpt>
      <trkpt lat="45.32976" lon="3.40072">
        <ele>424.6</ele>
        <time>2021-08-05T14:28:54Z</time>
      </trkpt>
      <trkpt lat="45.32969" lon="3.4008">
        <ele>424.4</ele>
        <time>2021-08-05T14:28:56Z</time>
      </trkpt>
      <trkpt lat="45.32962" lon="3.40088">
        <ele>424.4</ele>
        <time>2021-08-05T14:28:58Z</time>
      </trkpt>
      <trkpt lat="45.32955" lon="3.40096">
        <ele>424.3</ele>
        <time>2021-08-05T14:29:00Z</time>
      </trkpt>
      <trkpt lat="45.32949" lon="3.40105">
        <ele>424.3</ele>
        <time>2021-08-05T14:29:02Z</time>
      </trkpt>
      <trkpt lat="45.32942" lon="3.40115">
        <ele>424.4</ele>
        <time>2021-08-05T14:29:04Z</time>
      </trkpt>
      <trkpt lat="45.32936" lon="3.40125">
        <ele>424.4</ele>
        <time>2021-08-05T14:29:06Z</time>
      </trkpt>
      <trkpt lat="45.32931" lon="3.40135">
        <ele>424.6</ele>
        <time>2021-08-05T14:29:08Z</time>
      </trkpt>
      <trkpt lat="45.32925" lon="3.40144">
        <ele>424.3</ele>
        <time>2021-08-05T14:29:10Z</time>
      </trkpt>
      <trkpt lat="45.32919" lon="3.40154">
        <ele>424</ele>
        <time>2021-08-05T14:29:12Z</time>
      </trkpt>
      <trkpt lat="45.32913" lon="3.40164">
        <ele>424.3</ele>
        <time>2021-08-05T14:29:14Z</time>
      </trkpt>
      <trkpt lat="45.32907" lon="3.40174">
        <ele>425.2</ele>
        <time>2021-08-05T14:29:16Z</time>
      </trkpt>
      <trkpt lat="45.32901" lon="3.40183">
        <ele>425.9</ele>
        <time>2021-08-05T14:29:18Z</time>
      </trkpt>
      <trkpt lat="45.32895" lon="3.40193">
        <ele>426.5</ele>
        <time>2021-08-05T14:29:20Z</time>
      </trkpt>
      <trkpt lat="45.32889" lon="3.40202">
        <ele>426.9</ele>
        <time>2021-08-05T14:29:22Z</time>
      </trkpt>
      <trkpt lat="45.32883" lon="3.40211">
        <ele>427</ele>
        <time>2021-08-05T14:29:24Z</time>
      </trkpt>
      <trkpt lat="45.32876" lon="3.4022">
        <ele>426.9</ele>
        <time>2021-08-05T14:29:26Z</time>
      </trkpt>
      <trkpt lat="45.3287" lon="3.40229">
        <ele>426.7</ele>
        <time>2021-08-05T14:29:28Z</time>
      </trkpt>
      <trkpt lat="45.32863" lon="3.40238">
        <ele>426.4</ele>
        <time>2021-08-05T14:29:30Z</time>
      </trkpt>
      <trkpt lat="45.32857" lon="3.40247">
        <ele>425.9</ele>
        <time>2021-08-05T14:29:32Z</time>
      </trkpt>
      <trkpt lat="45.3285" lon="3.40257">
        <ele>425.3</ele>
        <time>2021-08-05T14:29:34Z</time>
      </trkpt>
      <trkpt lat="45.32844" lon="3.40266">
        <ele>424.7</ele>
        <time>2021-08-05T14:29:36Z</time>
      </trkpt>
      <trkpt lat="45.32838" lon="3.40275">
        <ele>424.4</ele>
        <time>2021-08-05T14:29:38Z</time>
      </trkpt>
      <trkpt lat="45.32832" lon="3.40284">
        <ele>424.3</ele>
        <time>2021-08-05T14:29:40Z</time>
      </trkpt>
      <trkpt lat="45.32826" lon="3.40294">
        <ele>424.9</ele>
        <time>2021-08-05T14:29:42Z</time>
      </trkpt>
      <trkpt lat="45.3282" lon="3.40304">
        <ele>425.6</ele>
        <time>2021-08-05T14:29:44Z</time>
      </trkpt>
      <trkpt lat="45.32814" lon="3.40313">
        <ele>426.1</ele>
        <time>2021-08-05T14:29:46Z</time>
      </trkpt>
      <trkpt lat="45.32808" lon="3.40323">
        <ele>426.7</ele>
        <time>2021-08-05T14:29:48Z</time>
      </trkpt>
      <trkpt lat="45.32802" lon="3.40334">
        <ele>427.1</ele>
        <time>2021-08-05T14:29:50Z</time>
      </trkpt>
      <trkpt lat="45.32796" lon="3.40344">
        <ele>427.4</ele>
        <time>2021-08-05T14:29:52Z</time>
      </trkpt>
      <trkpt lat="45.3279" lon="3.40355">
        <ele>427.5</ele>
        <time>2021-08-05T14:29:54Z</time>
      </trkpt>
      <trkpt lat="45.32785" lon="3.40365">
        <ele>427.5</ele>
        <time>2021-08-05T14:29:56Z</time>
      </trkpt>
      <trkpt lat="45.3278" lon="3.40375">
        <ele>427.4</ele>
        <time>2021-08-05T14:29:58Z</time>
      </trkpt>
      <trkpt lat="45.32775" lon="3.40386">
        <ele>427.2</ele>
        <time>2021-08-05T14:30:00Z</time>
      </trkpt>
      <trkpt lat="45.32771" lon="3.40396">
        <ele>426.9</ele>
        <time>2021-08-05T14:30:02Z</time>
      </trkpt>
      <trkpt lat="45.32766" lon="3.40407">
        <ele>426.5</ele>
        <time>2021-08-05T14:30:04Z</time>
      </trkpt>
      <trkpt lat="45.32762" lon="3.40418">
        <ele>426.1</ele>
        <time>2021-08-05T14:30:06Z</time>
      </trkpt>
      <trkpt lat="45.32758" lon="3.40429">
        <ele>425.8</ele>
        <time>2021-08-05T14:30:08Z</time>
      </trkpt>
      <trkpt lat="45.32753" lon="3.40439">
        <ele>425.4</ele>
        <time>2021-08-05T14:30:10Z</time>
      </trkpt>
      <trkpt lat="45.32749" lon="3.4045">
        <ele>425.1</ele>
        <time>2021-08-05T14:30:12Z</time>
      </trkpt>
      <trkpt lat="45.32744" lon="3.4046">
        <ele>425.2</ele>
        <time>2021-08-05T14:30:14Z</time>
      </trkpt>
      <trkpt lat="45.32738" lon="3.4047">
        <ele>425.2</ele>
        <time>2021-08-05T14:30:16Z</time>
      </trkpt>
      <trkpt lat="45.32733" lon="3.4048">
        <ele>425.2</ele>
        <time>2021-08-05T14:30:18Z</time>
      </trkpt>
      <trkpt lat="45.32727" lon="3.40489">
        <ele>425.1</ele>
        <time>2021-08-05T14:30:20Z</time>
      </trkpt>
      <trkpt lat="45.32721" lon="3.40499">
        <ele>424.9</ele>
        <time>2021-08-05T14:30:22Z</time>
      </trkpt>
      <trkpt lat="45.32716" lon="3.40508">
        <ele>424.7</ele>
        <time>2021-08-05T14:30:24Z</time>
      </trkpt>
      <trkpt lat="45.3271" lon="3.40518">
        <ele>424.5</ele>
        <time>2021-08-05T14:30:26Z</time>
      </trkpt>
      <trkpt lat="45.32704" lon="3.40527">
        <ele>424.1</ele>
        <time>2021-08-05T14:30:28Z</time>
      </trkpt>
      <trkpt lat="45.32699" lon="3.40537">
        <ele>423.8</ele>
        <time>2021-08-05T14:30:30Z</time>
      </trkpt>
      <trkpt lat="45.32693" lon="3.40546">
        <ele>423.4</ele>
        <time>2021-08-05T14:30:32Z</time>
      </trkpt>
      <trkpt lat="45.32688" lon="3.40556">
        <ele>423.1</ele>
        <time>2021-08-05T14:30:34Z</time>
      </trkpt>
      <trkpt lat="45.32683" lon="3.40566">
        <ele>422.6</ele>
        <time>2021-08-05T14:30:36Z</time>
      </trkpt>
      <trkpt lat="45.32677" lon="3.40577">
        <ele>422.1</ele>
        <time>2021-08-05T14:30:38Z</time>
      </trkpt>
      <trkpt lat="45.32672" lon="3.40589">
        <ele>421.6</ele>
        <time>2021-08-05T14:30:40Z</time>
      </trkpt>
      <trkpt lat="45.32667" lon="3.40601">
        <ele>421</ele>
        <time>2021-08-05T14:30:42Z</time>
      </trkpt>
      <trkpt lat="45.32661" lon="3.40614">
        <ele>420.8</ele>
        <time>2021-08-05T14:30:44Z</time>
      </trkpt>
      <trkpt lat="45.32656" lon="3.40627">
        <ele>420.6</ele>
        <time>2021-08-05T14:30:46Z</time>
      </trkpt>
      <trkpt lat="45.3265" lon="3.40641">
        <ele>420.5</ele>
        <time>2021-08-05T14:30:48Z</time>
      </trkpt>
      <trkpt lat="45.32643" lon="3.40654">
        <ele>420.3</ele>
        <time>2021-08-05T14:30:50Z</time>
      </trkpt>
      <trkpt lat="45.32636" lon="3.40667">
        <ele>420.3</ele>
        <time>2021-08-05T14:30:52Z</time>
      </trkpt>
      <trkpt lat="45.32628" lon="3.4068">
        <ele>420.9</ele>
        <time>2021-08-05T14:30:54Z</time>
      </trkpt>
      <trkpt lat="45.3262" lon="3.40692">
        <ele>421.5</ele>
        <time>2021-08-05T14:30:56Z</time>
      </trkpt>
      <trkpt lat="45.32611" lon="3.40704">
        <ele>422.1</ele>
        <time>2021-08-05T14:30:58Z</time>
      </trkpt>
      <trkpt lat="45.32601" lon="3.40716">
        <ele>422.7</ele>
        <time>2021-08-05T14:31:00Z</time>
      </trkpt>
      <trkpt lat="45.3259" lon="3.40726">
        <ele>423.3</ele>
        <time>2021-08-05T14:31:02Z</time>
      </trkpt>
      <trkpt lat="45.32579" lon="3.40735">
        <ele>423.6</ele>
        <time>2021-08-05T14:31:04Z</time>
      </trkpt>
      <trkpt lat="45.32568" lon="3.40743">
        <ele>423.2</ele>
        <time>2021-08-05T14:31:06Z</time>
      </trkpt>
      <trkpt lat="45.32556" lon="3.40751">
        <ele>422.8</ele>
        <time>2021-08-05T14:31:08Z</time>
      </trkpt>
      <trkpt lat="45.32544" lon="3.40759">
        <ele>422.8</ele>
        <time>2021-08-05T14:31:10Z</time>
      </trkpt>
      <trkpt lat="45.32533" lon="3.40767">
        <ele>423</ele>
        <time>2021-08-05T14:31:12Z</time>
      </trkpt>
      <trkpt lat="45.32522" lon="3.40774">
        <ele>423.1</ele>
        <time>2021-08-05T14:31:14Z</time>
      </trkpt>
      <trkpt lat="45.32511" lon="3.40781">
        <ele>423.3</ele>
        <time>2021-08-05T14:31:16Z</time>
      </trkpt>
      <trkpt lat="45.325" lon="3.40787">
        <ele>423.4</ele>
        <time>2021-08-05T14:31:18Z</time>
      </trkpt>
      <trkpt lat="45.32489" lon="3.40795">
        <ele>423.7</ele>
        <time>2021-08-05T14:31:20Z</time>
      </trkpt>
      <trkpt lat="45.32478" lon="3.40803">
        <ele>423.9</ele>
        <time>2021-08-05T14:31:22Z</time>
      </trkpt>
      <trkpt lat="45.32467" lon="3.4081">
        <ele>423.8</ele>
        <time>2021-08-05T14:31:24Z</time>
      </trkpt>
      <trkpt lat="45.32456" lon="3.40817">
        <ele>423.7</ele>
        <time>2021-08-05T14:31:26Z</time>
      </trkpt>
      <trkpt lat="45.32446" lon="3.40825">
        <ele>423.3</ele>
        <time>2021-08-05T14:31:28Z</time>
      </trkpt>
      <trkpt lat="45.32435" lon="3.40832">
        <ele>422.9</ele>
        <time>2021-08-05T14:31:30Z</time>
      </trkpt>
      <trkpt lat="45.32425" lon="3.40841">
        <ele>423</ele>
        <time>2021-08-05T14:31:32Z</time>
      </trkpt>
      <trkpt lat="45.32415" lon="3.4085">
        <ele>423.5</ele>
        <time>2021-08-05T14:31:34Z</time>
      </trkpt>
      <trkpt lat="45.32404" lon="3.4086">
        <ele>424</ele>
        <time>2021-08-05T14:31:36Z</time>
      </trkpt>
      <trkpt lat="45.32394" lon="3.40871">
        <ele>424.4</ele>
        <time>2021-08-05T14:31:38Z</time>
      </trkpt>
      <trkpt lat="45.32384" lon="3.40881">
        <ele>424.5</ele>
        <time>2021-08-05T14:31:40Z</time>
      </trkpt>
      <trkpt lat="45.32374" lon="3.40891">
        <ele>424.2</ele>
        <time>2021-08-05T14:31:42Z</time>
      </trkpt>
      <trkpt lat="45.32364" lon="3.40901">
        <ele>423.8</ele>
        <time>2021-08-05T14:31:44Z</time>
      </trkpt>
      <trkpt lat="45.32354" lon="3.40911">
        <ele>423</ele>
        <time>2021-08-05T14:31:46Z</time>
      </trkpt>
      <trkpt lat="45.32344" lon="3.40921">
        <ele>422.3</ele>
        <time>2021-08-05T14:31:48Z</time>
      </trkpt>
      <trkpt lat="45.32334" lon="3.40932">
        <ele>422.2</ele>
        <time>2021-08-05T14:31:50Z</time>
      </trkpt>
      <trkpt lat="45.32324" lon="3.40942">
        <ele>422.5</ele>
        <time>2021-08-05T14:31:52Z</time>
      </trkpt>
      <trkpt lat="45.32314" lon="3.40952">
        <ele>422.7</ele>
        <time>2021-08-05T14:31:54Z</time>
      </trkpt>
      <trkpt lat="45.32304" lon="3.40962">
        <ele>422.7</ele>
        <time>2021-08-05T14:31:56Z</time>
      </trkpt>
      <trkpt lat="45.32294" lon="3.40971">
        <ele>422.4</ele>
        <time>2021-08-05T14:31:58Z</time>
      </trkpt>
      <trkpt lat="45.32285" lon="3.40979">
        <ele>421.9</ele>
        <time>2021-08-05T14:32:00Z</time>
      </trkpt>
      <trkpt lat="45.32277" lon="3.40988">
        <ele>421.4</ele>
        <time>2021-08-05T14:32:02Z</time>
      </trkpt>
      <trkpt lat="45.32269" lon="3.40998">
        <ele>420.8</ele>
        <time>2021-08-05T14:32:04Z</time>
      </trkpt>
      <trkpt lat="45.32262" lon="3.41007">
        <ele>420.4</ele>
        <time>2021-08-05T14:32:06Z</time>
      </trkpt>
      <trkpt lat="45.32256" lon="3.41018">
        <ele>420</ele>
        <time>2021-08-05T14:32:08Z</time>
      </trkpt>
      <trkpt lat="45.3225" lon="3.41028">
        <ele>419.6</ele>
        <time>2021-08-05T14:32:10Z</time>
      </trkpt>
      <trkpt lat="45.32244" lon="3.41038">
        <ele>419.9</ele>
        <time>2021-08-05T14:32:12Z</time>
      </trkpt>
      <trkpt lat="45.32238" lon="3.41047">
        <ele>420.1</ele>
        <time>2021-08-05T14:32:14Z</time>
      </trkpt>
      <trkpt lat="45.32232" lon="3.41057">
        <ele>420.3</ele>
        <time>2021-08-05T14:32:16Z</time>
      </trkpt>
      <trkpt lat="45.32227" lon="3.41067">
        <ele>420.4</ele>
        <time>2021-08-05T14:32:18Z</time>
      </trkpt>
      <trkpt lat="45.32221" lon="3.41076">
        <ele>420.5</ele>
        <time>2021-08-05T14:32:20Z</time>
      </trkpt>
      <trkpt lat="45.32216" lon="3.41086">
        <ele>420.8</ele>
        <time>2021-08-05T14:32:22Z</time>
      </trkpt>
      <trkpt lat="45.3221" lon="3.41095">
        <ele>421.3</ele>
        <time>2021-08-05T14:32:24Z</time>
      </trkpt>
      <trkpt lat="45.32205" lon="3.41104">
        <ele>421.7</ele>
        <time>2021-08-05T14:32:26Z</time>
      </trkpt>
      <trkpt lat="45.32199" lon="3.41114">
        <ele>422.1</ele>
        <time>2021-08-05T14:32:28Z</time>
      </trkpt>
      <trkpt lat="45.32192" lon="3.41123">
        <ele>422.3</ele>
        <time>2021-08-05T14:32:30Z</time>
      </trkpt>
      <trkpt lat="45.32184" lon="3.41133">
        <ele>422.3</ele>
        <time>2021-08-05T14:32:32Z</time>
      </trkpt>
      <trkpt lat="45.32176" lon="3.41141">
        <ele>422.1</ele>
        <time>2021-08-05T14:32:34Z</time>
      </trkpt>
      <trkpt lat="45.32167" lon="3.41148">
        <ele>421.6</ele>
        <time>2021-08-05T14:32:36Z</time>
      </trkpt>
      <trkpt lat="45.32158" lon="3.41154">
        <ele>421.4</ele>
        <time>2021-08-05T14:32:38Z</time>
      </trkpt>
      <trkpt lat="45.32149" lon="3.41159">
        <ele>421.1</ele>
        <time>2021-08-05T14:32:40Z</time>
      </trkpt>
      <trkpt lat="45.32141" lon="3.41165">
        <ele>420.7</ele>
        <time>2021-08-05T14:32:42Z</time>
      </trkpt>
      <trkpt lat="45.32133" lon="3.41171">
        <ele>420.5</ele>
        <time>2021-08-05T14:32:44Z</time>
      </trkpt>
      <trkpt lat="45.32125" lon="3.41177">
        <ele>420.4</ele>
        <time>2021-08-05T14:32:46Z</time>
      </trkpt>
      <trkpt lat="45.32118" lon="3.41184">
        <ele>420.2</ele>
        <time>2021-08-05T14:32:48Z</time>
      </trkpt>
      <trkpt lat="45.32111" lon="3.41191">
        <ele>420</ele>
        <time>2021-08-05T14:32:50Z</time>
      </trkpt>
      <trkpt lat="45.32105" lon="3.41199">
        <ele>419.9</ele>
        <time>2021-08-05T14:32:52Z</time>
      </trkpt>
      <trkpt lat="45.32098" lon="3.41207">
        <ele>419.6</ele>
        <time>2021-08-05T14:32:54Z</time>
      </trkpt>
      <trkpt lat="45.32092" lon="3.41216">
        <ele>419.4</ele>
        <time>2021-08-05T14:32:56Z</time>
      </trkpt>
      <trkpt lat="45.32086" lon="3.41224">
        <ele>419.1</ele>
        <time>2021-08-05T14:32:58Z</time>
      </trkpt>
      <trkpt lat="45.3208" lon="3.41234">
        <ele>419.1</ele>
        <time>2021-08-05T14:33:00Z</time>
      </trkpt>
      <trkpt lat="45.32076" lon="3.41244">
        <ele>419.3</ele>
        <time>2021-08-05T14:33:02Z</time>
      </trkpt>
      <trkpt lat="45.32071" lon="3.41254">
        <ele>419.6</ele>
        <time>2021-08-05T14:33:04Z</time>
      </trkpt>
      <trkpt lat="45.32066" lon="3.41265">
        <ele>420.1</ele>
        <time>2021-08-05T14:33:06Z</time>
      </trkpt>
      <trkpt lat="45.32062" lon="3.41276">
        <ele>420.6</ele>
        <time>2021-08-05T14:33:08Z</time>
      </trkpt>
      <trkpt lat="45.32057" lon="3.41287">
        <ele>421</ele>
        <time>2021-08-05T14:33:10Z</time>
      </trkpt>
      <trkpt lat="45.32053" lon="3.41298">
        <ele>421.4</ele>
        <time>2021-08-05T14:33:12Z</time>
      </trkpt>
      <trkpt lat="45.32048" lon="3.41308">
        <ele>421.6</ele>
        <time>2021-08-05T14:33:14Z</time>
      </trkpt>
      <trkpt lat="45.32043" lon="3.41319">
        <ele>421.8</ele>
        <time>2021-08-05T14:33:16Z</time>
      </trkpt>
      <trkpt lat="45.32038" lon="3.41329">
        <ele>421.8</ele>
        <time>2021-08-05T14:33:18Z</time>
      </trkpt>
      <trkpt lat="45.32032" lon="3.41339">
        <ele>422</ele>
        <time>2021-08-05T14:33:20Z</time>
      </trkpt>
      <trkpt lat="45.32026" lon="3.41349">
        <ele>422</ele>
        <time>2021-08-05T14:33:22Z</time>
      </trkpt>
      <trkpt lat="45.3202" lon="3.41359">
        <ele>421.9</ele>
        <time>2021-08-05T14:33:24Z</time>
      </trkpt>
      <trkpt lat="45.32013" lon="3.41368">
        <ele>421.7</ele>
        <time>2021-08-05T14:33:26Z</time>
      </trkpt>
      <trkpt lat="45.32006" lon="3.41377">
        <ele>421.4</ele>
        <time>2021-08-05T14:33:28Z</time>
      </trkpt>
      <trkpt lat="45.31998" lon="3.41385">
        <ele>421</ele>
        <time>2021-08-05T14:33:30Z</time>
      </trkpt>
      <trkpt lat="45.3199" lon="3.41392">
        <ele>420.9</ele>
        <time>2021-08-05T14:33:32Z</time>
      </trkpt>
      <trkpt lat="45.31983" lon="3.414">
        <ele>420.7</ele>
        <time>2021-08-05T14:33:34Z</time>
      </trkpt>
      <trkpt lat="45.31975" lon="3.41407">
        <ele>420.4</ele>
        <time>2021-08-05T14:33:36Z</time>
      </trkpt>
      <trkpt lat="45.31966" lon="3.41413">
        <ele>420</ele>
        <time>2021-08-05T14:33:38Z</time>
      </trkpt>
      <trkpt lat="45.31958" lon="3.41418">
        <ele>419.6</ele>
        <time>2021-08-05T14:33:40Z</time>
      </trkpt>
      <trkpt lat="45.31949" lon="3.41423">
        <ele>419.2</ele>
        <time>2021-08-05T14:33:42Z</time>
      </trkpt>
      <trkpt lat="45.31941" lon="3.41427">
        <ele>418.8</ele>
        <time>2021-08-05T14:33:44Z</time>
      </trkpt>
      <trkpt lat="45.31932" lon="3.41431">
        <ele>418.3</ele>
        <time>2021-08-05T14:33:46Z</time>
      </trkpt>
      <trkpt lat="45.31923" lon="3.41434">
        <ele>417.7</ele>
        <time>2021-08-05T14:33:48Z</time>
      </trkpt>
      <trkpt lat="45.31914" lon="3.41437">
        <ele>417.1</ele>
        <time>2021-08-05T14:33:50Z</time>
      </trkpt>
      <trkpt lat="45.31905" lon="3.41439">
        <ele>416.7</ele>
        <time>2021-08-05T14:33:52Z</time>
      </trkpt>
      <trkpt lat="45.31895" lon="3.41441">
        <ele>416.3</ele>
        <time>2021-08-05T14:33:54Z</time>
      </trkpt>
      <trkpt lat="45.31885" lon="3.41442">
        <ele>415.8</ele>
        <time>2021-08-05T14:33:56Z</time>
      </trkpt>
      <trkpt lat="45.31875" lon="3.41442">
        <ele>415.2</ele>
        <time>2021-08-05T14:33:58Z</time>
      </trkpt>
      <trkpt lat="45.31865" lon="3.41442">
        <ele>414.6</ele>
        <time>2021-08-05T14:34:00Z</time>
      </trkpt>
      <trkpt lat="45.31855" lon="3.41441">
        <ele>414</ele>
        <time>2021-08-05T14:34:02Z</time>
      </trkpt>
      <trkpt lat="45.31844" lon="3.4144">
        <ele>413.4</ele>
        <time>2021-08-05T14:34:04Z</time>
      </trkpt>
      <trkpt lat="45.31834" lon="3.41439">
        <ele>412.8</ele>
        <time>2021-08-05T14:34:06Z</time>
      </trkpt>
      <trkpt lat="45.31824" lon="3.41439">
        <ele>413.1</ele>
        <time>2021-08-05T14:34:08Z</time>
      </trkpt>
      <trkpt lat="45.31818" lon="3.41438">
        <ele>413.2</ele>
        <time>2021-08-05T14:34:09Z</time>
      </trkpt>
      <trkpt lat="45.31803" lon="3.41439">
        <ele>413.7</ele>
        <time>2021-08-05T14:34:12Z</time>
      </trkpt>
      <trkpt lat="45.31793" lon="3.4144">
        <ele>414</ele>
        <time>2021-08-05T14:34:14Z</time>
      </trkpt>
      <trkpt lat="45.31783" lon="3.41443">
        <ele>414.4</ele>
        <time>2021-08-05T14:34:16Z</time>
      </trkpt>
      <trkpt lat="45.31773" lon="3.41447">
        <ele>414.7</ele>
        <time>2021-08-05T14:34:18Z</time>
      </trkpt>
      <trkpt lat="45.31765" lon="3.4145">
        <ele>415</ele>
        <time>2021-08-05T14:34:20Z</time>
      </trkpt>
      <trkpt lat="45.31757" lon="3.41456">
        <ele>415.3</ele>
        <time>2021-08-05T14:34:22Z</time>
      </trkpt>
      <trkpt lat="45.3175" lon="3.41459">
        <ele>415.5</ele>
        <time>2021-08-05T14:34:24Z</time>
      </trkpt>
      <trkpt lat="45.31744" lon="3.41458">
        <ele>415.6</ele>
        <time>2021-08-05T14:34:26Z</time>
      </trkpt>
      <trkpt lat="45.31741" lon="3.41456">
        <ele>415.6</ele>
        <time>2021-08-05T14:34:28Z</time>
      </trkpt>
      <trkpt lat="45.31741" lon="3.41454">
        <ele>415.6</ele>
        <time>2021-08-05T14:34:30Z</time>
      </trkpt>
      <trkpt lat="45.31742" lon="3.41454">
        <ele>415.6</ele>
        <time>2021-08-05T14:34:32Z</time>
      </trkpt>
      <trkpt lat="45.31741" lon="3.41454">
        <ele>415.6</ele>
        <time>2021-08-05T14:34:34Z</time>
      </trkpt>
      <trkpt lat="45.31741" lon="3.41454">
        <ele>415.6</ele>
        <time>2021-08-05T14:34:35Z</time>
      </trkpt>
      <trkpt lat="45.31741" lon="3.41454">
        <ele>415.6</ele>
        <time>2021-08-05T14:34:37Z</time>
      </trkpt>
      <trkpt lat="45.31726" lon="3.41446">
        <ele>415.7</ele>
        <time>2021-08-05T14:35:46Z</time>
      </trkpt>
      <trkpt lat="45.31721" lon="3.41443">
        <ele>415.8</ele>
        <time>2021-08-05T14:35:48Z</time>
      </trkpt>
      <trkpt lat="45.31715" lon="3.41438">
        <ele>415.9</ele>
        <time>2021-08-05T14:35:50Z</time>
      </trkpt>
      <trkpt lat="45.31708" lon="3.41434">
        <ele>416</ele>
        <time>2021-08-05T14:35:52Z</time>
      </trkpt>
      <trkpt lat="45.317" lon="3.41431">
        <ele>416.2</ele>
        <time>2021-08-05T14:35:54Z</time>
      </trkpt>
      <trkpt lat="45.31693" lon="3.41426">
        <ele>416.3</ele>
        <time>2021-08-05T14:35:56Z</time>
      </trkpt>
      <trkpt lat="45.31686" lon="3.41423">
        <ele>416.5</ele>
        <time>2021-08-05T14:35:58Z</time>
      </trkpt>
      <trkpt lat="45.3168" lon="3.41418">
        <ele>416.7</ele>
        <time>2021-08-05T14:36:00Z</time>
      </trkpt>
      <trkpt lat="45.31673" lon="3.41414">
        <ele>416.8</ele>
        <time>2021-08-05T14:36:02Z</time>
      </trkpt>
      <trkpt lat="45.31665" lon="3.4141">
        <ele>416.9</ele>
        <time>2021-08-05T14:36:04Z</time>
      </trkpt>
      <trkpt lat="45.31658" lon="3.41405">
        <ele>416.8</ele>
        <time>2021-08-05T14:36:06Z</time>
      </trkpt>
      <trkpt lat="45.3165" lon="3.41401">
        <ele>416.6</ele>
        <time>2021-08-05T14:36:08Z</time>
      </trkpt>
      <trkpt lat="45.31643" lon="3.41395">
        <ele>416.5</ele>
        <time>2021-08-05T14:36:10Z</time>
      </trkpt>
      <trkpt lat="45.31636" lon="3.41388">
        <ele>416.4</ele>
        <time>2021-08-05T14:36:12Z</time>
      </trkpt>
      <trkpt lat="45.31629" lon="3.4138">
        <ele>416.3</ele>
        <time>2021-08-05T14:36:14Z</time>
      </trkpt>
      <trkpt lat="45.31625" lon="3.41369">
        <ele>416.2</ele>
        <time>2021-08-05T14:36:16Z</time>
      </trkpt>
      <trkpt lat="45.31621" lon="3.41358">
        <ele>416.1</ele>
        <time>2021-08-05T14:36:18Z</time>
      </trkpt>
      <trkpt lat="45.31617" lon="3.41347">
        <ele>416.1</ele>
        <time>2021-08-05T14:36:20Z</time>
      </trkpt>
      <trkpt lat="45.31613" lon="3.41337">
        <ele>416</ele>
        <time>2021-08-05T14:36:22Z</time>
      </trkpt>
      <trkpt lat="45.31609" lon="3.41327">
        <ele>415.9</ele>
        <time>2021-08-05T14:36:24Z</time>
      </trkpt>
      <trkpt lat="45.31604" lon="3.41317">
        <ele>415.9</ele>
        <time>2021-08-05T14:36:26Z</time>
      </trkpt>
      <trkpt lat="45.316" lon="3.41306">
        <ele>415.7</ele>
        <time>2021-08-05T14:36:28Z</time>
      </trkpt>
      <trkpt lat="45.31596" lon="3.41295">
        <ele>415.6</ele>
        <time>2021-08-05T14:36:30Z</time>
      </trkpt>
      <trkpt lat="45.31592" lon="3.41284">
        <ele>415.5</ele>
        <time>2021-08-05T14:36:32Z</time>
      </trkpt>
      <trkpt lat="45.31587" lon="3.41274">
        <ele>415.3</ele>
        <time>2021-08-05T14:36:34Z</time>
      </trkpt>
      <trkpt lat="45.31583" lon="3.41264">
        <ele>415.2</ele>
        <time>2021-08-05T14:36:36Z</time>
      </trkpt>
      <trkpt lat="45.31579" lon="3.41253">
        <ele>415.1</ele>
        <time>2021-08-05T14:36:38Z</time>
      </trkpt>
      <trkpt lat="45.31575" lon="3.41244">
        <ele>415.1</ele>
        <time>2021-08-05T14:36:40Z</time>
      </trkpt>
      <trkpt lat="45.31572" lon="3.41233">
        <ele>415.1</ele>
        <time>2021-08-05T14:36:42Z</time>
      </trkpt>
      <trkpt lat="45.31567" lon="3.41223">
        <ele>415.1</ele>
        <time>2021-08-05T14:36:44Z</time>
      </trkpt>
      <trkpt lat="45.31563" lon="3.41212">
        <ele>415</ele>
        <time>2021-08-05T14:36:46Z</time>
      </trkpt>
      <trkpt lat="45.31558" lon="3.41202">
        <ele>415</ele>
        <time>2021-08-05T14:36:48Z</time>
      </trkpt>
      <trkpt lat="45.31554" lon="3.41191">
        <ele>415</ele>
        <time>2021-08-05T14:36:50Z</time>
      </trkpt>
      <trkpt lat="45.3155" lon="3.4118">
        <ele>415</ele>
        <time>2021-08-05T14:36:52Z</time>
      </trkpt>
      <trkpt lat="45.31545" lon="3.41169">
        <ele>414.9</ele>
        <time>2021-08-05T14:36:54Z</time>
      </trkpt>
      <trkpt lat="45.31542" lon="3.41158">
        <ele>415.1</ele>
        <time>2021-08-05T14:36:56Z</time>
      </trkpt>
      <trkpt lat="45.31537" lon="3.41146">
        <ele>415.2</ele>
        <time>2021-08-05T14:36:58Z</time>
      </trkpt>
      <trkpt lat="45.31534" lon="3.41135">
        <ele>415.3</ele>
        <time>2021-08-05T14:37:00Z</time>
      </trkpt>
      <trkpt lat="45.31529" lon="3.41125">
        <ele>415.5</ele>
        <time>2021-08-05T14:37:02Z</time>
      </trkpt>
      <trkpt lat="45.31525" lon="3.41114">
        <ele>415.6</ele>
        <time>2021-08-05T14:37:04Z</time>
      </trkpt>
      <trkpt lat="45.31521" lon="3.41104">
        <ele>415.7</ele>
        <time>2021-08-05T14:37:06Z</time>
      </trkpt>
      <trkpt lat="45.31517" lon="3.41093">
        <ele>415.8</ele>
        <time>2021-08-05T14:37:08Z</time>
      </trkpt>
      <trkpt lat="45.31513" lon="3.41083">
        <ele>415.8</ele>
        <time>2021-08-05T14:37:10Z</time>
      </trkpt>
      <trkpt lat="45.31509" lon="3.41073">
        <ele>415.9</ele>
        <time>2021-08-05T14:37:12Z</time>
      </trkpt>
      <trkpt lat="45.31505" lon="3.41063">
        <ele>416</ele>
        <time>2021-08-05T14:37:14Z</time>
      </trkpt>
      <trkpt lat="45.31501" lon="3.41052">
        <ele>416</ele>
        <time>2021-08-05T14:37:16Z</time>
      </trkpt>
      <trkpt lat="45.31497" lon="3.41042">
        <ele>416</ele>
        <time>2021-08-05T14:37:18Z</time>
      </trkpt>
      <trkpt lat="45.31493" lon="3.41032">
        <ele>416</ele>
        <time>2021-08-05T14:37:20Z</time>
      </trkpt>
      <trkpt lat="45.31489" lon="3.41022">
        <ele>416</ele>
        <time>2021-08-05T14:37:22Z</time>
      </trkpt>
      <trkpt lat="45.31486" lon="3.41012">
        <ele>416</ele>
        <time>2021-08-05T14:37:24Z</time>
      </trkpt>
      <trkpt lat="45.31482" lon="3.41001">
        <ele>416</ele>
        <time>2021-08-05T14:37:26Z</time>
      </trkpt>
      <trkpt lat="45.31478" lon="3.40991">
        <ele>415.9</ele>
        <time>2021-08-05T14:37:28Z</time>
      </trkpt>
      <trkpt lat="45.31474" lon="3.4098">
        <ele>415.9</ele>
        <time>2021-08-05T14:37:30Z</time>
      </trkpt>
      <trkpt lat="45.31469" lon="3.40969">
        <ele>415.9</ele>
        <time>2021-08-05T14:37:32Z</time>
      </trkpt>
      <trkpt lat="45.31465" lon="3.40957">
        <ele>415.9</ele>
        <time>2021-08-05T14:37:34Z</time>
      </trkpt>
      <trkpt lat="45.31462" lon="3.40945">
        <ele>415.9</ele>
        <time>2021-08-05T14:37:36Z</time>
      </trkpt>
      <trkpt lat="45.31459" lon="3.40934">
        <ele>416</ele>
        <time>2021-08-05T14:37:38Z</time>
      </trkpt>
      <trkpt lat="45.31456" lon="3.40922">
        <ele>416</ele>
        <time>2021-08-05T14:37:40Z</time>
      </trkpt>
      <trkpt lat="45.31454" lon="3.40909">
        <ele>416.1</ele>
        <time>2021-08-05T14:37:42Z</time>
      </trkpt>
      <trkpt lat="45.31453" lon="3.40897">
        <ele>416.1</ele>
        <time>2021-08-05T14:37:44Z</time>
      </trkpt>
      <trkpt lat="45.31452" lon="3.40884">
        <ele>416.2</ele>
        <time>2021-08-05T14:37:46Z</time>
      </trkpt>
      <trkpt lat="45.3145" lon="3.40871">
        <ele>416.2</ele>
        <time>2021-08-05T14:37:48Z</time>
      </trkpt>
      <trkpt lat="45.31449" lon="3.40857">
        <ele>416.2</ele>
        <time>2021-08-05T14:37:50Z</time>
      </trkpt>
      <trkpt lat="45.31448" lon="3.40844">
        <ele>416.2</ele>
        <time>2021-08-05T14:37:52Z</time>
      </trkpt>
      <trkpt lat="45.31447" lon="3.40831">
        <ele>416.3</ele>
        <time>2021-08-05T14:37:54Z</time>
      </trkpt>
      <trkpt lat="45.31445" lon="3.40817">
        <ele>416.4</ele>
        <time>2021-08-05T14:37:56Z</time>
      </trkpt>
      <trkpt lat="45.31442" lon="3.40805">
        <ele>416.5</ele>
        <time>2021-08-05T14:37:58Z</time>
      </trkpt>
      <trkpt lat="45.31439" lon="3.40793">
        <ele>416.6</ele>
        <time>2021-08-05T14:38:00Z</time>
      </trkpt>
      <trkpt lat="45.31435" lon="3.40783">
        <ele>416.7</ele>
        <time>2021-08-05T14:38:02Z</time>
      </trkpt>
      <trkpt lat="45.3143" lon="3.40772">
        <ele>416.8</ele>
        <time>2021-08-05T14:38:04Z</time>
      </trkpt>
      <trkpt lat="45.31425" lon="3.40762">
        <ele>416.9</ele>
        <time>2021-08-05T14:38:06Z</time>
      </trkpt>
      <trkpt lat="45.3142" lon="3.40752">
        <ele>417</ele>
        <time>2021-08-05T14:38:08Z</time>
      </trkpt>
      <trkpt lat="45.31414" lon="3.40742">
        <ele>417.1</ele>
        <time>2021-08-05T14:38:10Z</time>
      </trkpt>
      <trkpt lat="45.31408" lon="3.40733">
        <ele>417.2</ele>
        <time>2021-08-05T14:38:12Z</time>
      </trkpt>
      <trkpt lat="45.31403" lon="3.40724">
        <ele>417.3</ele>
        <time>2021-08-05T14:38:14Z</time>
      </trkpt>
      <trkpt lat="45.31398" lon="3.40714">
        <ele>417.3</ele>
        <time>2021-08-05T14:38:16Z</time>
      </trkpt>
      <trkpt lat="45.31393" lon="3.40704">
        <ele>417.4</ele>
        <time>2021-08-05T14:38:18Z</time>
      </trkpt>
      <trkpt lat="45.31389" lon="3.40693">
        <ele>417.5</ele>
        <time>2021-08-05T14:38:20Z</time>
      </trkpt>
      <trkpt lat="45.31385" lon="3.40682">
        <ele>417.5</ele>
        <time>2021-08-05T14:38:22Z</time>
      </trkpt>
      <trkpt lat="45.31381" lon="3.40672">
        <ele>417.5</ele>
        <time>2021-08-05T14:38:24Z</time>
      </trkpt>
      <trkpt lat="45.31373" lon="3.40666">
        <ele>417.5</ele>
        <time>2021-08-05T14:38:26Z</time>
      </trkpt>
      <trkpt lat="45.31365" lon="3.40669">
        <ele>417.4</ele>
        <time>2021-08-05T14:38:28Z</time>
      </trkpt>
      <trkpt lat="45.31357" lon="3.40676">
        <ele>417.2</ele>
        <time>2021-08-05T14:38:30Z</time>
      </trkpt>
      <trkpt lat="45.31349" lon="3.40683">
        <ele>417.2</ele>
        <time>2021-08-05T14:38:32Z</time>
      </trkpt>
      <trkpt lat="45.31341" lon="3.4069">
        <ele>417.1</ele>
        <time>2021-08-05T14:38:34Z</time>
      </trkpt>
      <trkpt lat="45.31333" lon="3.40698">
        <ele>417</ele>
        <time>2021-08-05T14:38:36Z</time>
      </trkpt>
      <trkpt lat="45.31325" lon="3.40704">
        <ele>416.9</ele>
        <time>2021-08-05T14:38:38Z</time>
      </trkpt>
      <trkpt lat="45.31316" lon="3.4071">
        <ele>416.8</ele>
        <time>2021-08-05T14:38:40Z</time>
      </trkpt>
      <trkpt lat="45.31307" lon="3.40715">
        <ele>416.7</ele>
        <time>2021-08-05T14:38:42Z</time>
      </trkpt>
      <trkpt lat="45.31298" lon="3.40719">
        <ele>416.6</ele>
        <time>2021-08-05T14:38:44Z</time>
      </trkpt>
      <trkpt lat="45.31289" lon="3.40722">
        <ele>416.5</ele>
        <time>2021-08-05T14:38:46Z</time>
      </trkpt>
      <trkpt lat="45.3128" lon="3.40724">
        <ele>416.4</ele>
        <time>2021-08-05T14:38:48Z</time>
      </trkpt>
      <trkpt lat="45.3127" lon="3.40725">
        <ele>416.2</ele>
        <time>2021-08-05T14:38:50Z</time>
      </trkpt>
      <trkpt lat="45.31261" lon="3.40726">
        <ele>416.1</ele>
        <time>2021-08-05T14:38:52Z</time>
      </trkpt>
      <trkpt lat="45.31252" lon="3.40727">
        <ele>416</ele>
        <time>2021-08-05T14:38:54Z</time>
      </trkpt>
      <trkpt lat="45.31243" lon="3.40726">
        <ele>416.1</ele>
        <time>2021-08-05T14:38:56Z</time>
      </trkpt>
      <trkpt lat="45.31234" lon="3.40725">
        <ele>416.3</ele>
        <time>2021-08-05T14:38:58Z</time>
      </trkpt>
      <trkpt lat="45.31226" lon="3.40725">
        <ele>416.5</ele>
        <time>2021-08-05T14:39:00Z</time>
      </trkpt>
      <trkpt lat="45.31217" lon="3.40724">
        <ele>416.7</ele>
        <time>2021-08-05T14:39:02Z</time>
      </trkpt>
      <trkpt lat="45.31208" lon="3.40723">
        <ele>416.9</ele>
        <time>2021-08-05T14:39:04Z</time>
      </trkpt>
      <trkpt lat="45.31199" lon="3.40723">
        <ele>417</ele>
        <time>2021-08-05T14:39:06Z</time>
      </trkpt>
      <trkpt lat="45.3119" lon="3.40722">
        <ele>417.2</ele>
        <time>2021-08-05T14:39:08Z</time>
      </trkpt>
      <trkpt lat="45.31182" lon="3.40722">
        <ele>417.4</ele>
        <time>2021-08-05T14:39:10Z</time>
      </trkpt>
      <trkpt lat="45.31173" lon="3.40721">
        <ele>417.5</ele>
        <time>2021-08-05T14:39:12Z</time>
      </trkpt>
      <trkpt lat="45.31164" lon="3.4072">
        <ele>417.6</ele>
        <time>2021-08-05T14:39:14Z</time>
      </trkpt>
      <trkpt lat="45.31156" lon="3.4072">
        <ele>417.6</ele>
        <time>2021-08-05T14:39:16Z</time>
      </trkpt>
      <trkpt lat="45.31147" lon="3.40719">
        <ele>417.6</ele>
        <time>2021-08-05T14:39:18Z</time>
      </trkpt>
      <trkpt lat="45.31138" lon="3.40718">
        <ele>417.5</ele>
        <time>2021-08-05T14:39:20Z</time>
      </trkpt>
      <trkpt lat="45.31129" lon="3.40717">
        <ele>417.5</ele>
        <time>2021-08-05T14:39:22Z</time>
      </trkpt>
      <trkpt lat="45.3112" lon="3.40716">
        <ele>417.5</ele>
        <time>2021-08-05T14:39:24Z</time>
      </trkpt>
      <trkpt lat="45.31112" lon="3.40716">
        <ele>417.5</ele>
        <time>2021-08-05T14:39:26Z</time>
      </trkpt>
      <trkpt lat="45.31103" lon="3.40716">
        <ele>417.5</ele>
        <time>2021-08-05T14:39:28Z</time>
      </trkpt>
      <trkpt lat="45.31095" lon="3.40715">
        <ele>417.4</ele>
        <time>2021-08-05T14:39:30Z</time>
      </trkpt>
      <trkpt lat="45.31087" lon="3.40715">
        <ele>417.4</ele>
        <time>2021-08-05T14:39:32Z</time>
      </trkpt>
      <trkpt lat="45.31078" lon="3.40714">
        <ele>417.4</ele>
        <time>2021-08-05T14:39:34Z</time>
      </trkpt>
      <trkpt lat="45.31069" lon="3.40713">
        <ele>417.4</ele>
        <time>2021-08-05T14:39:36Z</time>
      </trkpt>
      <trkpt lat="45.31061" lon="3.40712">
        <ele>417.5</ele>
        <time>2021-08-05T14:39:38Z</time>
      </trkpt>
      <trkpt lat="45.31053" lon="3.40709">
        <ele>417.5</ele>
        <time>2021-08-05T14:39:40Z</time>
      </trkpt>
      <trkpt lat="45.31044" lon="3.40705">
        <ele>417.5</ele>
        <time>2021-08-05T14:39:42Z</time>
      </trkpt>
      <trkpt lat="45.31036" lon="3.40701">
        <ele>417.6</ele>
        <time>2021-08-05T14:39:44Z</time>
      </trkpt>
      <trkpt lat="45.31028" lon="3.40697">
        <ele>417.6</ele>
        <time>2021-08-05T14:39:46Z</time>
      </trkpt>
      <trkpt lat="45.3102" lon="3.40695">
        <ele>417.7</ele>
        <time>2021-08-05T14:39:48Z</time>
      </trkpt>
      <trkpt lat="45.31012" lon="3.40692">
        <ele>417.7</ele>
        <time>2021-08-05T14:39:50Z</time>
      </trkpt>
      <trkpt lat="45.31004" lon="3.40688">
        <ele>417.7</ele>
        <time>2021-08-05T14:39:52Z</time>
      </trkpt>
      <trkpt lat="45.30996" lon="3.40685">
        <ele>417.8</ele>
        <time>2021-08-05T14:39:54Z</time>
      </trkpt>
      <trkpt lat="45.30988" lon="3.40681">
        <ele>417.7</ele>
        <time>2021-08-05T14:39:56Z</time>
      </trkpt>
      <trkpt lat="45.30981" lon="3.40679">
        <ele>417.7</ele>
        <time>2021-08-05T14:39:58Z</time>
      </trkpt>
      <trkpt lat="45.30973" lon="3.40678">
        <ele>417.6</ele>
        <time>2021-08-05T14:40:00Z</time>
      </trkpt>
      <trkpt lat="45.30965" lon="3.40676">
        <ele>417.6</ele>
        <time>2021-08-05T14:40:02Z</time>
      </trkpt>
      <trkpt lat="45.30957" lon="3.40676">
        <ele>417.5</ele>
        <time>2021-08-05T14:40:04Z</time>
      </trkpt>
      <trkpt lat="45.30949" lon="3.40675">
        <ele>417.4</ele>
        <time>2021-08-05T14:40:06Z</time>
      </trkpt>
      <trkpt lat="45.30941" lon="3.40674">
        <ele>417.3</ele>
        <time>2021-08-05T14:40:08Z</time>
      </trkpt>
      <trkpt lat="45.30933" lon="3.40672">
        <ele>417.2</ele>
        <time>2021-08-05T14:40:10Z</time>
      </trkpt>
      <trkpt lat="45.30924" lon="3.40672">
        <ele>417.1</ele>
        <time>2021-08-05T14:40:12Z</time>
      </trkpt>
      <trkpt lat="45.30915" lon="3.4067">
        <ele>417</ele>
        <time>2021-08-05T14:40:14Z</time>
      </trkpt>
      <trkpt lat="45.30906" lon="3.40669">
        <ele>417</ele>
        <time>2021-08-05T14:40:16Z</time>
      </trkpt>
      <trkpt lat="45.30897" lon="3.40668">
        <ele>417</ele>
        <time>2021-08-05T14:40:18Z</time>
      </trkpt>
      <trkpt lat="45.30889" lon="3.40666">
        <ele>417</ele>
        <time>2021-08-05T14:40:20Z</time>
      </trkpt>
      <trkpt lat="45.3088" lon="3.40664">
        <ele>417</ele>
        <time>2021-08-05T14:40:22Z</time>
      </trkpt>
      <trkpt lat="45.30871" lon="3.40662">
        <ele>417</ele>
        <time>2021-08-05T14:40:24Z</time>
      </trkpt>
      <trkpt lat="45.30862" lon="3.40661">
        <ele>417</ele>
        <time>2021-08-05T14:40:26Z</time>
      </trkpt>
      <trkpt lat="45.30853" lon="3.40658">
        <ele>417.1</ele>
        <time>2021-08-05T14:40:28Z</time>
      </trkpt>
      <trkpt lat="45.30844" lon="3.40656">
        <ele>417.1</ele>
        <time>2021-08-05T14:40:30Z</time>
      </trkpt>
      <trkpt lat="45.30834" lon="3.40654">
        <ele>417.1</ele>
        <time>2021-08-05T14:40:32Z</time>
      </trkpt>
      <trkpt lat="45.30825" lon="3.40653">
        <ele>417.2</ele>
        <time>2021-08-05T14:40:34Z</time>
      </trkpt>
      <trkpt lat="45.30816" lon="3.40652">
        <ele>417.3</ele>
        <time>2021-08-05T14:40:36Z</time>
      </trkpt>
      <trkpt lat="45.30807" lon="3.40649">
        <ele>417.3</ele>
        <time>2021-08-05T14:40:38Z</time>
      </trkpt>
      <trkpt lat="45.30798" lon="3.40648">
        <ele>417.4</ele>
        <time>2021-08-05T14:40:40Z</time>
      </trkpt>
      <trkpt lat="45.30788" lon="3.40647">
        <ele>417.4</ele>
        <time>2021-08-05T14:40:42Z</time>
      </trkpt>
      <trkpt lat="45.30779" lon="3.40646">
        <ele>417.4</ele>
        <time>2021-08-05T14:40:44Z</time>
      </trkpt>
      <trkpt lat="45.30769" lon="3.40644">
        <ele>417.4</ele>
        <time>2021-08-05T14:40:46Z</time>
      </trkpt>
      <trkpt lat="45.3076" lon="3.40642">
        <ele>417.4</ele>
        <time>2021-08-05T14:40:48Z</time>
      </trkpt>
      <trkpt lat="45.30751" lon="3.40641">
        <ele>417.4</ele>
        <time>2021-08-05T14:40:50Z</time>
      </trkpt>
      <trkpt lat="45.30742" lon="3.4064">
        <ele>417.4</ele>
        <time>2021-08-05T14:40:52Z</time>
      </trkpt>
      <trkpt lat="45.30733" lon="3.40637">
        <ele>417.4</ele>
        <time>2021-08-05T14:40:54Z</time>
      </trkpt>
      <trkpt lat="45.30724" lon="3.40636">
        <ele>417.5</ele>
        <time>2021-08-05T14:40:56Z</time>
      </trkpt>
      <trkpt lat="45.30715" lon="3.40634">
        <ele>417.5</ele>
        <time>2021-08-05T14:40:58Z</time>
      </trkpt>
      <trkpt lat="45.30706" lon="3.40634">
        <ele>417.6</ele>
        <time>2021-08-05T14:41:00Z</time>
      </trkpt>
      <trkpt lat="45.30697" lon="3.40632">
        <ele>417.7</ele>
        <time>2021-08-05T14:41:02Z</time>
      </trkpt>
      <trkpt lat="45.30688" lon="3.40632">
        <ele>417.8</ele>
        <time>2021-08-05T14:41:04Z</time>
      </trkpt>
      <trkpt lat="45.30679" lon="3.40632">
        <ele>417.9</ele>
        <time>2021-08-05T14:41:06Z</time>
      </trkpt>
      <trkpt lat="45.30669" lon="3.40632">
        <ele>418</ele>
        <time>2021-08-05T14:41:08Z</time>
      </trkpt>
      <trkpt lat="45.30661" lon="3.40634">
        <ele>418.2</ele>
        <time>2021-08-05T14:41:10Z</time>
      </trkpt>
      <trkpt lat="45.30652" lon="3.40635">
        <ele>418.5</ele>
        <time>2021-08-05T14:41:12Z</time>
      </trkpt>
      <trkpt lat="45.30643" lon="3.40637">
        <ele>418.8</ele>
        <time>2021-08-05T14:41:14Z</time>
      </trkpt>
      <trkpt lat="45.30633" lon="3.40638">
        <ele>419.1</ele>
        <time>2021-08-05T14:41:16Z</time>
      </trkpt>
      <trkpt lat="45.30624" lon="3.4064">
        <ele>419.4</ele>
        <time>2021-08-05T14:41:18Z</time>
      </trkpt>
      <trkpt lat="45.30615" lon="3.40641">
        <ele>419.7</ele>
        <time>2021-08-05T14:41:20Z</time>
      </trkpt>
      <trkpt lat="45.30606" lon="3.40643">
        <ele>420</ele>
        <time>2021-08-05T14:41:22Z</time>
      </trkpt>
      <trkpt lat="45.30598" lon="3.40644">
        <ele>420.3</ele>
        <time>2021-08-05T14:41:24Z</time>
      </trkpt>
      <trkpt lat="45.30588" lon="3.40646">
        <ele>420.6</ele>
        <time>2021-08-05T14:41:26Z</time>
      </trkpt>
      <trkpt lat="45.30579" lon="3.40646">
        <ele>420.6</ele>
        <time>2021-08-05T14:41:28Z</time>
      </trkpt>
      <trkpt lat="45.3057" lon="3.40648">
        <ele>420.4</ele>
        <time>2021-08-05T14:41:30Z</time>
      </trkpt>
      <trkpt lat="45.30561" lon="3.4065">
        <ele>420.2</ele>
        <time>2021-08-05T14:41:32Z</time>
      </trkpt>
      <trkpt lat="45.30552" lon="3.40652">
        <ele>420</ele>
        <time>2021-08-05T14:41:34Z</time>
      </trkpt>
      <trkpt lat="45.30542" lon="3.40653">
        <ele>419.8</ele>
        <time>2021-08-05T14:41:36Z</time>
      </trkpt>
      <trkpt lat="45.30533" lon="3.40656">
        <ele>419.6</ele>
        <time>2021-08-05T14:41:38Z</time>
      </trkpt>
      <trkpt lat="45.30523" lon="3.40658">
        <ele>419.4</ele>
        <time>2021-08-05T14:41:40Z</time>
      </trkpt>
      <trkpt lat="45.30514" lon="3.40659">
        <ele>419.2</ele>
        <time>2021-08-05T14:41:42Z</time>
      </trkpt>
      <trkpt lat="45.30504" lon="3.40661">
        <ele>419</ele>
        <time>2021-08-05T14:41:44Z</time>
      </trkpt>
      <trkpt lat="45.30495" lon="3.40662">
        <ele>418.9</ele>
        <time>2021-08-05T14:41:46Z</time>
      </trkpt>
      <trkpt lat="45.30485" lon="3.40663">
        <ele>418.9</ele>
        <time>2021-08-05T14:41:48Z</time>
      </trkpt>
      <trkpt lat="45.30476" lon="3.40665">
        <ele>419</ele>
        <time>2021-08-05T14:41:50Z</time>
      </trkpt>
      <trkpt lat="45.30467" lon="3.40666">
        <ele>419</ele>
        <time>2021-08-05T14:41:52Z</time>
      </trkpt>
      <trkpt lat="45.30457" lon="3.40668">
        <ele>419</ele>
        <time>2021-08-05T14:41:54Z</time>
      </trkpt>
      <trkpt lat="45.30449" lon="3.40669">
        <ele>419.1</ele>
        <time>2021-08-05T14:41:56Z</time>
      </trkpt>
      <trkpt lat="45.3044" lon="3.40671">
        <ele>419.1</ele>
        <time>2021-08-05T14:41:58Z</time>
      </trkpt>
      <trkpt lat="45.30432" lon="3.40673">
        <ele>419.1</ele>
        <time>2021-08-05T14:42:00Z</time>
      </trkpt>
      <trkpt lat="45.30424" lon="3.40675">
        <ele>419.2</ele>
        <time>2021-08-05T14:42:02Z</time>
      </trkpt>
      <trkpt lat="45.30415" lon="3.40677">
        <ele>419.2</ele>
        <time>2021-08-05T14:42:04Z</time>
      </trkpt>
      <trkpt lat="45.30406" lon="3.4068">
        <ele>419.2</ele>
        <time>2021-08-05T14:42:06Z</time>
      </trkpt>
      <trkpt lat="45.30397" lon="3.40682">
        <ele>419.2</ele>
        <time>2021-08-05T14:42:08Z</time>
      </trkpt>
      <trkpt lat="45.30389" lon="3.40684">
        <ele>419.1</ele>
        <time>2021-08-05T14:42:10Z</time>
      </trkpt>
      <trkpt lat="45.30383" lon="3.40686">
        <ele>419.2</ele>
        <time>2021-08-05T14:42:12Z</time>
      </trkpt>
      <trkpt lat="45.30378" lon="3.40689">
        <ele>419.2</ele>
        <time>2021-08-05T14:42:14Z</time>
      </trkpt>
      <trkpt lat="45.30374" lon="3.40692">
        <ele>419.2</ele>
        <time>2021-08-05T14:42:16Z</time>
      </trkpt>
      <trkpt lat="45.3037" lon="3.40696">
        <ele>419.3</ele>
        <time>2021-08-05T14:42:18Z</time>
      </trkpt>
      <trkpt lat="45.30366" lon="3.407">
        <ele>419.4</ele>
        <time>2021-08-05T14:42:20Z</time>
      </trkpt>
      <trkpt lat="45.30361" lon="3.40701">
        <ele>419.4</ele>
        <time>2021-08-05T14:42:22Z</time>
      </trkpt>
      <trkpt lat="45.30356" lon="3.407">
        <ele>419.4</ele>
        <time>2021-08-05T14:42:24Z</time>
      </trkpt>
      <trkpt lat="45.30351" lon="3.40696">
        <ele>419.2</ele>
        <time>2021-08-05T14:42:26Z</time>
      </trkpt>
      <trkpt lat="45.30348" lon="3.40688">
        <ele>418.9</ele>
        <time>2021-08-05T14:42:28Z</time>
      </trkpt>
      <trkpt lat="45.30346" lon="3.4068">
        <ele>418.6</ele>
        <time>2021-08-05T14:42:30Z</time>
      </trkpt>
      <trkpt lat="45.30344" lon="3.40673">
        <ele>418.3</ele>
        <time>2021-08-05T14:42:32Z</time>
      </trkpt>
      <trkpt lat="45.30342" lon="3.40665">
        <ele>418.1</ele>
        <time>2021-08-05T14:42:34Z</time>
      </trkpt>
      <trkpt lat="45.3034" lon="3.40658">
        <ele>417.9</ele>
        <time>2021-08-05T14:42:36Z</time>
      </trkpt>
      <trkpt lat="45.30338" lon="3.40649">
        <ele>417.6</ele>
        <time>2021-08-05T14:42:38Z</time>
      </trkpt>
      <trkpt lat="45.30336" lon="3.4064">
        <ele>417.4</ele>
        <time>2021-08-05T14:42:40Z</time>
      </trkpt>
      <trkpt lat="45.30333" lon="3.40631">
        <ele>417.1</ele>
        <time>2021-08-05T14:42:42Z</time>
      </trkpt>
      <trkpt lat="45.30331" lon="3.40622">
        <ele>417</ele>
        <time>2021-08-05T14:42:44Z</time>
      </trkpt>
      <trkpt lat="45.30329" lon="3.40613">
        <ele>416.8</ele>
        <time>2021-08-05T14:42:46Z</time>
      </trkpt>
      <trkpt lat="45.30327" lon="3.40603">
        <ele>416.7</ele>
        <time>2021-08-05T14:42:48Z</time>
      </trkpt>
      <trkpt lat="45.30324" lon="3.40592">
        <ele>416.5</ele>
        <time>2021-08-05T14:42:50Z</time>
      </trkpt>
      <trkpt lat="45.30321" lon="3.40581">
        <ele>416.5</ele>
        <time>2021-08-05T14:42:52Z</time>
      </trkpt>
      <trkpt lat="45.30319" lon="3.4057">
        <ele>416.9</ele>
        <time>2021-08-05T14:42:54Z</time>
      </trkpt>
      <trkpt lat="45.30316" lon="3.40558">
        <ele>417.3</ele>
        <time>2021-08-05T14:42:56Z</time>
      </trkpt>
      <trkpt lat="45.30313" lon="3.40545">
        <ele>417.7</ele>
        <time>2021-08-05T14:42:58Z</time>
      </trkpt>
      <trkpt lat="45.3031" lon="3.40532">
        <ele>418</ele>
        <time>2021-08-05T14:43:00Z</time>
      </trkpt>
      <trkpt lat="45.30307" lon="3.4052">
        <ele>418.3</ele>
        <time>2021-08-05T14:43:02Z</time>
      </trkpt>
      <trkpt lat="45.30304" lon="3.40505">
        <ele>418.5</ele>
        <time>2021-08-05T14:43:04Z</time>
      </trkpt>
      <trkpt lat="45.303" lon="3.4049">
        <ele>418.8</ele>
        <time>2021-08-05T14:43:06Z</time>
      </trkpt>
      <trkpt lat="45.30295" lon="3.40475">
        <ele>419</ele>
        <time>2021-08-05T14:43:08Z</time>
      </trkpt>
      <trkpt lat="45.30291" lon="3.40459">
        <ele>419.2</ele>
        <time>2021-08-05T14:43:10Z</time>
      </trkpt>
      <trkpt lat="45.30286" lon="3.40443">
        <ele>419.5</ele>
        <time>2021-08-05T14:43:12Z</time>
      </trkpt>
      <trkpt lat="45.3028" lon="3.40426">
        <ele>419.8</ele>
        <time>2021-08-05T14:43:14Z</time>
      </trkpt>
      <trkpt lat="45.30273" lon="3.4041">
        <ele>420.2</ele>
        <time>2021-08-05T14:43:16Z</time>
      </trkpt>
      <trkpt lat="45.30266" lon="3.40394">
        <ele>420.6</ele>
        <time>2021-08-05T14:43:18Z</time>
      </trkpt>
      <trkpt lat="45.30259" lon="3.40378">
        <ele>421.2</ele>
        <time>2021-08-05T14:43:20Z</time>
      </trkpt>
      <trkpt lat="45.30252" lon="3.40363">
        <ele>421.9</ele>
        <time>2021-08-05T14:43:22Z</time>
      </trkpt>
      <trkpt lat="45.30245" lon="3.40347">
        <ele>422.6</ele>
        <time>2021-08-05T14:43:24Z</time>
      </trkpt>
      <trkpt lat="45.30238" lon="3.40332">
        <ele>423</ele>
        <time>2021-08-05T14:43:26Z</time>
      </trkpt>
      <trkpt lat="45.30232" lon="3.40317">
        <ele>422.7</ele>
        <time>2021-08-05T14:43:28Z</time>
      </trkpt>
      <trkpt lat="45.30226" lon="3.40303">
        <ele>422.4</ele>
        <time>2021-08-05T14:43:30Z</time>
      </trkpt>
      <trkpt lat="45.3022" lon="3.40289">
        <ele>422.1</ele>
        <time>2021-08-05T14:43:32Z</time>
      </trkpt>
      <trkpt lat="45.30215" lon="3.40274">
        <ele>421.9</ele>
        <time>2021-08-05T14:43:34Z</time>
      </trkpt>
      <trkpt lat="45.30209" lon="3.4026">
        <ele>421.7</ele>
        <time>2021-08-05T14:43:36Z</time>
      </trkpt>
      <trkpt lat="45.30203" lon="3.40246">
        <ele>421.5</ele>
        <time>2021-08-05T14:43:38Z</time>
      </trkpt>
      <trkpt lat="45.30196" lon="3.40233">
        <ele>421.4</ele>
        <time>2021-08-05T14:43:40Z</time>
      </trkpt>
      <trkpt lat="45.30189" lon="3.4022">
        <ele>421.3</ele>
        <time>2021-08-05T14:43:42Z</time>
      </trkpt>
      <trkpt lat="45.30182" lon="3.4021">
        <ele>421.2</ele>
        <time>2021-08-05T14:43:44Z</time>
      </trkpt>
      <trkpt lat="45.30174" lon="3.402">
        <ele>421.3</ele>
        <time>2021-08-05T14:43:46Z</time>
      </trkpt>
      <trkpt lat="45.30167" lon="3.40192">
        <ele>421.3</ele>
        <time>2021-08-05T14:43:48Z</time>
      </trkpt>
      <trkpt lat="45.30165" lon="3.40185">
        <ele>421.2</ele>
        <time>2021-08-05T14:43:50Z</time>
      </trkpt>
      <trkpt lat="45.30165" lon="3.40177">
        <ele>421.1</ele>
        <time>2021-08-05T14:43:52Z</time>
      </trkpt>
      <trkpt lat="45.30165" lon="3.40168">
        <ele>421</ele>
        <time>2021-08-05T14:43:54Z</time>
      </trkpt>
      <trkpt lat="45.30162" lon="3.40157">
        <ele>421</ele>
        <time>2021-08-05T14:43:56Z</time>
      </trkpt>
      <trkpt lat="45.30159" lon="3.40148">
        <ele>420.9</ele>
        <time>2021-08-05T14:43:58Z</time>
      </trkpt>
      <trkpt lat="45.30157" lon="3.40137">
        <ele>420.9</ele>
        <time>2021-08-05T14:44:00Z</time>
      </trkpt>
      <trkpt lat="45.30153" lon="3.40127">
        <ele>420.9</ele>
        <time>2021-08-05T14:44:02Z</time>
      </trkpt>
      <trkpt lat="45.3015" lon="3.40117">
        <ele>421</ele>
        <time>2021-08-05T14:44:04Z</time>
      </trkpt>
      <trkpt lat="45.30147" lon="3.40108">
        <ele>421</ele>
        <time>2021-08-05T14:44:06Z</time>
      </trkpt>
      <trkpt lat="45.30146" lon="3.40098">
        <ele>421.1</ele>
        <time>2021-08-05T14:44:08Z</time>
      </trkpt>
      <trkpt lat="45.30143" lon="3.40088">
        <ele>421.1</ele>
        <time>2021-08-05T14:44:10Z</time>
      </trkpt>
      <trkpt lat="45.3014" lon="3.40078">
        <ele>421.2</ele>
        <time>2021-08-05T14:44:12Z</time>
      </trkpt>
      <trkpt lat="45.30137" lon="3.40067">
        <ele>421.3</ele>
        <time>2021-08-05T14:44:14Z</time>
      </trkpt>
      <trkpt lat="45.30133" lon="3.40056">
        <ele>421.3</ele>
        <time>2021-08-05T14:44:16Z</time>
      </trkpt>
      <trkpt lat="45.3013" lon="3.40043">
        <ele>421.3</ele>
        <time>2021-08-05T14:44:18Z</time>
      </trkpt>
      <trkpt lat="45.30128" lon="3.40032">
        <ele>421.3</ele>
        <time>2021-08-05T14:44:20Z</time>
      </trkpt>
      <trkpt lat="45.30126" lon="3.4002">
        <ele>421.2</ele>
        <time>2021-08-05T14:44:22Z</time>
      </trkpt>
      <trkpt lat="45.30123" lon="3.40009">
        <ele>421.2</ele>
        <time>2021-08-05T14:44:24Z</time>
      </trkpt>
      <trkpt lat="45.30121" lon="3.39997">
        <ele>421.1</ele>
        <time>2021-08-05T14:44:26Z</time>
      </trkpt>
      <trkpt lat="45.30118" lon="3.39986">
        <ele>420.9</ele>
        <time>2021-08-05T14:44:28Z</time>
      </trkpt>
      <trkpt lat="45.30116" lon="3.39976">
        <ele>420.8</ele>
        <time>2021-08-05T14:44:30Z</time>
      </trkpt>
      <trkpt lat="45.30113" lon="3.39965">
        <ele>420.6</ele>
        <time>2021-08-05T14:44:32Z</time>
      </trkpt>
      <trkpt lat="45.30111" lon="3.39956">
        <ele>420.5</ele>
        <time>2021-08-05T14:44:34Z</time>
      </trkpt>
      <trkpt lat="45.30109" lon="3.39947">
        <ele>420.3</ele>
        <time>2021-08-05T14:44:36Z</time>
      </trkpt>
      <trkpt lat="45.30107" lon="3.39939">
        <ele>420.2</ele>
        <time>2021-08-05T14:44:38Z</time>
      </trkpt>
      <trkpt lat="45.30107" lon="3.3993">
        <ele>420</ele>
        <time>2021-08-05T14:44:40Z</time>
      </trkpt>
      <trkpt lat="45.30109" lon="3.3992">
        <ele>419.8</ele>
        <time>2021-08-05T14:44:42Z</time>
      </trkpt>
      <trkpt lat="45.30114" lon="3.39913">
        <ele>419.6</ele>
        <time>2021-08-05T14:44:44Z</time>
      </trkpt>
      <trkpt lat="45.30121" lon="3.39907">
        <ele>419.5</ele>
        <time>2021-08-05T14:44:46Z</time>
      </trkpt>
      <trkpt lat="45.3013" lon="3.39903">
        <ele>419.5</ele>
        <time>2021-08-05T14:44:48Z</time>
      </trkpt>
      <trkpt lat="45.30138" lon="3.39899">
        <ele>419.4</ele>
        <time>2021-08-05T14:44:50Z</time>
      </trkpt>
      <trkpt lat="45.30146" lon="3.39896">
        <ele>419.4</ele>
        <time>2021-08-05T14:44:52Z</time>
      </trkpt>
      <trkpt lat="45.30155" lon="3.39891">
        <ele>419.4</ele>
        <time>2021-08-05T14:44:54Z</time>
      </trkpt>
      <trkpt lat="45.30162" lon="3.39885">
        <ele>419.4</ele>
        <time>2021-08-05T14:44:56Z</time>
      </trkpt>
      <trkpt lat="45.3017" lon="3.39881">
        <ele>419.4</ele>
        <time>2021-08-05T14:44:58Z</time>
      </trkpt>
      <trkpt lat="45.30177" lon="3.39876">
        <ele>419.5</ele>
        <time>2021-08-05T14:45:00Z</time>
      </trkpt>
      <trkpt lat="45.30184" lon="3.39869">
        <ele>419.6</ele>
        <time>2021-08-05T14:45:02Z</time>
      </trkpt>
      <trkpt lat="45.30189" lon="3.39863">
        <ele>419.6</ele>
        <time>2021-08-05T14:45:04Z</time>
      </trkpt>
      <trkpt lat="45.30192" lon="3.39855">
        <ele>419.7</ele>
        <time>2021-08-05T14:45:06Z</time>
      </trkpt>
      <trkpt lat="45.30192" lon="3.39845">
        <ele>419.9</ele>
        <time>2021-08-05T14:45:08Z</time>
      </trkpt>
      <trkpt lat="45.30189" lon="3.39838">
        <ele>419.9</ele>
        <time>2021-08-05T14:45:10Z</time>
      </trkpt>
      <trkpt lat="45.30183" lon="3.39836">
        <ele>420</ele>
        <time>2021-08-05T14:45:12Z</time>
      </trkpt>
      <trkpt lat="45.30177" lon="3.39833">
        <ele>420</ele>
        <time>2021-08-05T14:45:14Z</time>
      </trkpt>
      <trkpt lat="45.30171" lon="3.3983">
        <ele>420</ele>
        <time>2021-08-05T14:45:16Z</time>
      </trkpt>
      <trkpt lat="45.30166" lon="3.39827">
        <ele>420</ele>
        <time>2021-08-05T14:45:18Z</time>
      </trkpt>
      <trkpt lat="45.30161" lon="3.39822">
        <ele>419.9</ele>
        <time>2021-08-05T14:45:20Z</time>
      </trkpt>
      <trkpt lat="45.30157" lon="3.39817">
        <ele>419.9</ele>
        <time>2021-08-05T14:45:22Z</time>
      </trkpt>
      <trkpt lat="45.30154" lon="3.39811">
        <ele>419.9</ele>
        <time>2021-08-05T14:45:24Z</time>
      </trkpt>
      <trkpt lat="45.3015" lon="3.39805">
        <ele>419.9</ele>
        <time>2021-08-05T14:45:26Z</time>
      </trkpt>
      <trkpt lat="45.30148" lon="3.39798">
        <ele>419.9</ele>
        <time>2021-08-05T14:45:28Z</time>
      </trkpt>
      <trkpt lat="45.30146" lon="3.39793">
        <ele>419.9</ele>
        <time>2021-08-05T14:45:30Z</time>
      </trkpt>
      <trkpt lat="45.30145" lon="3.39788">
        <ele>419.9</ele>
        <time>2021-08-05T14:45:32Z</time>
      </trkpt>
      <trkpt lat="45.30143" lon="3.39782">
        <ele>419.9</ele>
        <time>2021-08-05T14:45:34Z</time>
      </trkpt>
      <trkpt lat="45.30141" lon="3.39777">
        <ele>419.9</ele>
        <time>2021-08-05T14:45:36Z</time>
      </trkpt>
      <trkpt lat="45.30139" lon="3.39771">
        <ele>419.9</ele>
        <time>2021-08-05T14:45:38Z</time>
      </trkpt>
      <trkpt lat="45.30138" lon="3.39765">
        <ele>419.9</ele>
        <time>2021-08-05T14:45:40Z</time>
      </trkpt>
      <trkpt lat="45.30136" lon="3.39759">
        <ele>420</ele>
        <time>2021-08-05T14:45:42Z</time>
      </trkpt>
      <trkpt lat="45.30134" lon="3.39752">
        <ele>420</ele>
        <time>2021-08-05T14:45:44Z</time>
      </trkpt>
      <trkpt lat="45.30131" lon="3.39744">
        <ele>419.9</ele>
        <time>2021-08-05T14:45:46Z</time>
      </trkpt>
      <trkpt lat="45.30128" lon="3.39735">
        <ele>419.8</ele>
        <time>2021-08-05T14:45:48Z</time>
      </trkpt>
      <trkpt lat="45.30125" lon="3.39724">
        <ele>419.7</ele>
        <time>2021-08-05T14:45:50Z</time>
      </trkpt>
      <trkpt lat="45.3012" lon="3.3971">
        <ele>419.5</ele>
        <time>2021-08-05T14:45:52Z</time>
      </trkpt>
      <trkpt lat="45.30114" lon="3.39696">
        <ele>419.3</ele>
        <time>2021-08-05T14:45:54Z</time>
      </trkpt>
      <trkpt lat="45.30107" lon="3.3968">
        <ele>419.2</ele>
        <time>2021-08-05T14:45:56Z</time>
      </trkpt>
      <trkpt lat="45.301" lon="3.39664">
        <ele>419</ele>
        <time>2021-08-05T14:45:58Z</time>
      </trkpt>
      <trkpt lat="45.30092" lon="3.3965">
        <ele>419</ele>
        <time>2021-08-05T14:46:00Z</time>
      </trkpt>
      <trkpt lat="45.30085" lon="3.39638">
        <ele>419</ele>
        <time>2021-08-05T14:46:02Z</time>
      </trkpt>
      <trkpt lat="45.3008" lon="3.39635">
        <ele>419</ele>
        <time>2021-08-05T14:46:04Z</time>
      </trkpt>
      <trkpt lat="45.30075" lon="3.39629">
        <ele>419.1</ele>
        <time>2021-08-05T14:46:06Z</time>
      </trkpt>
      <trkpt lat="45.30071" lon="3.39623">
        <ele>419.1</ele>
        <time>2021-08-05T14:46:08Z</time>
      </trkpt>
      <trkpt lat="45.30068" lon="3.39615">
        <ele>419.1</ele>
        <time>2021-08-05T14:46:10Z</time>
      </trkpt>
      <trkpt lat="45.30064" lon="3.39605">
        <ele>419.1</ele>
        <time>2021-08-05T14:46:12Z</time>
      </trkpt>
      <trkpt lat="45.30059" lon="3.39596">
        <ele>419</ele>
        <time>2021-08-05T14:46:14Z</time>
      </trkpt>
      <trkpt lat="45.30054" lon="3.39586">
        <ele>419</ele>
        <time>2021-08-05T14:46:16Z</time>
      </trkpt>
      <trkpt lat="45.30048" lon="3.39577">
        <ele>419</ele>
        <time>2021-08-05T14:46:18Z</time>
      </trkpt>
      <trkpt lat="45.30042" lon="3.39567">
        <ele>419</ele>
        <time>2021-08-05T14:46:20Z</time>
      </trkpt>
      <trkpt lat="45.30035" lon="3.39558">
        <ele>419</ele>
        <time>2021-08-05T14:46:22Z</time>
      </trkpt>
      <trkpt lat="45.30029" lon="3.39549">
        <ele>419</ele>
        <time>2021-08-05T14:46:24Z</time>
      </trkpt>
      <trkpt lat="45.30023" lon="3.39539">
        <ele>419</ele>
        <time>2021-08-05T14:46:26Z</time>
      </trkpt>
      <trkpt lat="45.30017" lon="3.39529">
        <ele>419</ele>
        <time>2021-08-05T14:46:28Z</time>
      </trkpt>
      <trkpt lat="45.3001" lon="3.3952">
        <ele>419</ele>
        <time>2021-08-05T14:46:30Z</time>
      </trkpt>
      <trkpt lat="45.30004" lon="3.3951">
        <ele>419</ele>
        <time>2021-08-05T14:46:32Z</time>
      </trkpt>
      <trkpt lat="45.29999" lon="3.39501">
        <ele>419</ele>
        <time>2021-08-05T14:46:34Z</time>
      </trkpt>
      <trkpt lat="45.29992" lon="3.39492">
        <ele>419.4</ele>
        <time>2021-08-05T14:46:36Z</time>
      </trkpt>
      <trkpt lat="45.29986" lon="3.39483">
        <ele>419.7</ele>
        <time>2021-08-05T14:46:38Z</time>
      </trkpt>
      <trkpt lat="45.2998" lon="3.39473">
        <ele>420</ele>
        <time>2021-08-05T14:46:40Z</time>
      </trkpt>
      <trkpt lat="45.29974" lon="3.39464">
        <ele>420.3</ele>
        <time>2021-08-05T14:46:42Z</time>
      </trkpt>
      <trkpt lat="45.29968" lon="3.39455">
        <ele>420.6</ele>
        <time>2021-08-05T14:46:44Z</time>
      </trkpt>
      <trkpt lat="45.29962" lon="3.39445">
        <ele>420.9</ele>
        <time>2021-08-05T14:46:46Z</time>
      </trkpt>
      <trkpt lat="45.29956" lon="3.39436">
        <ele>421.2</ele>
        <time>2021-08-05T14:46:48Z</time>
      </trkpt>
      <trkpt lat="45.2995" lon="3.39426">
        <ele>421.4</ele>
        <time>2021-08-05T14:46:50Z</time>
      </trkpt>
      <trkpt lat="45.29944" lon="3.39416">
        <ele>421.7</ele>
        <time>2021-08-05T14:46:52Z</time>
      </trkpt>
      <trkpt lat="45.29938" lon="3.39406">
        <ele>421.5</ele>
        <time>2021-08-05T14:46:54Z</time>
      </trkpt>
      <trkpt lat="45.29933" lon="3.39395">
        <ele>421.3</ele>
        <time>2021-08-05T14:46:56Z</time>
      </trkpt>
      <trkpt lat="45.29928" lon="3.39384">
        <ele>421.1</ele>
        <time>2021-08-05T14:46:58Z</time>
      </trkpt>
      <trkpt lat="45.29924" lon="3.39372">
        <ele>420.9</ele>
        <time>2021-08-05T14:47:00Z</time>
      </trkpt>
      <trkpt lat="45.29921" lon="3.3936">
        <ele>420.6</ele>
        <time>2021-08-05T14:47:02Z</time>
      </trkpt>
      <trkpt lat="45.29918" lon="3.39348">
        <ele>420.4</ele>
        <time>2021-08-05T14:47:04Z</time>
      </trkpt>
      <trkpt lat="45.29915" lon="3.39336">
        <ele>420.1</ele>
        <time>2021-08-05T14:47:06Z</time>
      </trkpt>
      <trkpt lat="45.29912" lon="3.39326">
        <ele>419.9</ele>
        <time>2021-08-05T14:47:08Z</time>
      </trkpt>
      <trkpt lat="45.29908" lon="3.39316">
        <ele>419.7</ele>
        <time>2021-08-05T14:47:10Z</time>
      </trkpt>
      <trkpt lat="45.29906" lon="3.39306">
        <ele>419.5</ele>
        <time>2021-08-05T14:47:12Z</time>
      </trkpt>
      <trkpt lat="45.29904" lon="3.39297">
        <ele>419.4</ele>
        <time>2021-08-05T14:47:14Z</time>
      </trkpt>
      <trkpt lat="45.29901" lon="3.39287">
        <ele>419.2</ele>
        <time>2021-08-05T14:47:16Z</time>
      </trkpt>
      <trkpt lat="45.29897" lon="3.39277">
        <ele>419</ele>
        <time>2021-08-05T14:47:18Z</time>
      </trkpt>
      <trkpt lat="45.29894" lon="3.39267">
        <ele>418.9</ele>
        <time>2021-08-05T14:47:20Z</time>
      </trkpt>
      <trkpt lat="45.29891" lon="3.39257">
        <ele>418.8</ele>
        <time>2021-08-05T14:47:22Z</time>
      </trkpt>
      <trkpt lat="45.29888" lon="3.39248">
        <ele>418.7</ele>
        <time>2021-08-05T14:47:24Z</time>
      </trkpt>
      <trkpt lat="45.29885" lon="3.39239">
        <ele>418.8</ele>
        <time>2021-08-05T14:47:26Z</time>
      </trkpt>
      <trkpt lat="45.29882" lon="3.39229">
        <ele>419</ele>
        <time>2021-08-05T14:47:28Z</time>
      </trkpt>
      <trkpt lat="45.29879" lon="3.39219">
        <ele>419.1</ele>
        <time>2021-08-05T14:47:30Z</time>
      </trkpt>
      <trkpt lat="45.29876" lon="3.3921">
        <ele>419.2</ele>
        <time>2021-08-05T14:47:32Z</time>
      </trkpt>
      <trkpt lat="45.29873" lon="3.392">
        <ele>419.3</ele>
        <time>2021-08-05T14:47:34Z</time>
      </trkpt>
      <trkpt lat="45.29869" lon="3.39189">
        <ele>419.5</ele>
        <time>2021-08-05T14:47:36Z</time>
      </trkpt>
      <trkpt lat="45.29866" lon="3.39178">
        <ele>419.6</ele>
        <time>2021-08-05T14:47:38Z</time>
      </trkpt>
      <trkpt lat="45.29862" lon="3.39167">
        <ele>419.7</ele>
        <time>2021-08-05T14:47:40Z</time>
      </trkpt>
      <trkpt lat="45.29858" lon="3.39155">
        <ele>419.9</ele>
        <time>2021-08-05T14:47:42Z</time>
      </trkpt>
      <trkpt lat="45.29855" lon="3.39144">
        <ele>420.1</ele>
        <time>2021-08-05T14:47:44Z</time>
      </trkpt>
      <trkpt lat="45.29851" lon="3.39132">
        <ele>420.3</ele>
        <time>2021-08-05T14:47:46Z</time>
      </trkpt>
      <trkpt lat="45.29847" lon="3.39122">
        <ele>420.5</ele>
        <time>2021-08-05T14:47:48Z</time>
      </trkpt>
      <trkpt lat="45.29844" lon="3.39112">
        <ele>420.6</ele>
        <time>2021-08-05T14:47:50Z</time>
      </trkpt>
      <trkpt lat="45.29841" lon="3.39101">
        <ele>420.8</ele>
        <time>2021-08-05T14:47:52Z</time>
      </trkpt>
      <trkpt lat="45.29838" lon="3.3909">
        <ele>420.9</ele>
        <time>2021-08-05T14:47:54Z</time>
      </trkpt>
      <trkpt lat="45.29835" lon="3.3908">
        <ele>421</ele>
        <time>2021-08-05T14:47:56Z</time>
      </trkpt>
      <trkpt lat="45.29833" lon="3.3907">
        <ele>421</ele>
        <time>2021-08-05T14:47:58Z</time>
      </trkpt>
      <trkpt lat="45.29829" lon="3.3906">
        <ele>421</ele>
        <time>2021-08-05T14:48:00Z</time>
      </trkpt>
      <trkpt lat="45.29826" lon="3.39049">
        <ele>421</ele>
        <time>2021-08-05T14:48:02Z</time>
      </trkpt>
      <trkpt lat="45.29824" lon="3.39038">
        <ele>421</ele>
        <time>2021-08-05T14:48:04Z</time>
      </trkpt>
      <trkpt lat="45.29821" lon="3.39027">
        <ele>421</ele>
        <time>2021-08-05T14:48:06Z</time>
      </trkpt>
      <trkpt lat="45.29818" lon="3.39015">
        <ele>421</ele>
        <time>2021-08-05T14:48:08Z</time>
      </trkpt>
      <trkpt lat="45.29816" lon="3.39004">
        <ele>421</ele>
        <time>2021-08-05T14:48:10Z</time>
      </trkpt>
      <trkpt lat="45.29813" lon="3.38992">
        <ele>420.9</ele>
        <time>2021-08-05T14:48:12Z</time>
      </trkpt>
      <trkpt lat="45.29809" lon="3.38979">
        <ele>420.7</ele>
        <time>2021-08-05T14:48:14Z</time>
      </trkpt>
      <trkpt lat="45.29807" lon="3.38967">
        <ele>420.5</ele>
        <time>2021-08-05T14:48:16Z</time>
      </trkpt>
      <trkpt lat="45.29804" lon="3.38955">
        <ele>420.3</ele>
        <time>2021-08-05T14:48:18Z</time>
      </trkpt>
      <trkpt lat="45.298" lon="3.38944">
        <ele>420.1</ele>
        <time>2021-08-05T14:48:20Z</time>
      </trkpt>
      <trkpt lat="45.29796" lon="3.38934">
        <ele>419.9</ele>
        <time>2021-08-05T14:48:22Z</time>
      </trkpt>
      <trkpt lat="45.29794" lon="3.38921">
        <ele>419.6</ele>
        <time>2021-08-05T14:48:24Z</time>
      </trkpt>
      <trkpt lat="45.29791" lon="3.38909">
        <ele>419.7</ele>
        <time>2021-08-05T14:48:26Z</time>
      </trkpt>
      <trkpt lat="45.29788" lon="3.38897">
        <ele>419.9</ele>
        <time>2021-08-05T14:48:28Z</time>
      </trkpt>
      <trkpt lat="45.29785" lon="3.38886">
        <ele>420.2</ele>
        <time>2021-08-05T14:48:30Z</time>
      </trkpt>
      <trkpt lat="45.29782" lon="3.38876">
        <ele>420.4</ele>
        <time>2021-08-05T14:48:32Z</time>
      </trkpt>
      <trkpt lat="45.29779" lon="3.38866">
        <ele>420.6</ele>
        <time>2021-08-05T14:48:34Z</time>
      </trkpt>
      <trkpt lat="45.29776" lon="3.38855">
        <ele>420.8</ele>
        <time>2021-08-05T14:48:36Z</time>
      </trkpt>
      <trkpt lat="45.29773" lon="3.38843">
        <ele>421</ele>
        <time>2021-08-05T14:48:38Z</time>
      </trkpt>
      <trkpt lat="45.2977" lon="3.38831">
        <ele>421.3</ele>
        <time>2021-08-05T14:48:40Z</time>
      </trkpt>
      <trkpt lat="45.29768" lon="3.38819">
        <ele>421.5</ele>
        <time>2021-08-05T14:48:42Z</time>
      </trkpt>
      <trkpt lat="45.29764" lon="3.38808">
        <ele>421.6</ele>
        <time>2021-08-05T14:48:44Z</time>
      </trkpt>
      <trkpt lat="45.29757" lon="3.38801">
        <ele>421.8</ele>
        <time>2021-08-05T14:48:46Z</time>
      </trkpt>
      <trkpt lat="45.29748" lon="3.38803">
        <ele>421.7</ele>
        <time>2021-08-05T14:48:48Z</time>
      </trkpt>
      <trkpt lat="45.29741" lon="3.38811">
        <ele>421.6</ele>
        <time>2021-08-05T14:48:50Z</time>
      </trkpt>
      <trkpt lat="45.29734" lon="3.3882">
        <ele>421.5</ele>
        <time>2021-08-05T14:48:52Z</time>
      </trkpt>
      <trkpt lat="45.29727" lon="3.38829">
        <ele>421.4</ele>
        <time>2021-08-05T14:48:54Z</time>
      </trkpt>
      <trkpt lat="45.2972" lon="3.38838">
        <ele>421.3</ele>
        <time>2021-08-05T14:48:56Z</time>
      </trkpt>
      <trkpt lat="45.29712" lon="3.38846">
        <ele>421.2</ele>
        <time>2021-08-05T14:48:58Z</time>
      </trkpt>
      <trkpt lat="45.29704" lon="3.38854">
        <ele>421.2</ele>
        <time>2021-08-05T14:49:00Z</time>
      </trkpt>
      <trkpt lat="45.29696" lon="3.38861">
        <ele>421.2</ele>
        <time>2021-08-05T14:49:02Z</time>
      </trkpt>
      <trkpt lat="45.29688" lon="3.38869">
        <ele>421.2</ele>
        <time>2021-08-05T14:49:04Z</time>
      </trkpt>
      <trkpt lat="45.2968" lon="3.38876">
        <ele>421.2</ele>
        <time>2021-08-05T14:49:06Z</time>
      </trkpt>
      <trkpt lat="45.29673" lon="3.38884">
        <ele>421.3</ele>
        <time>2021-08-05T14:49:08Z</time>
      </trkpt>
      <trkpt lat="45.29665" lon="3.38891">
        <ele>421.3</ele>
        <time>2021-08-05T14:49:10Z</time>
      </trkpt>
      <trkpt lat="45.29657" lon="3.38899">
        <ele>421.5</ele>
        <time>2021-08-05T14:49:12Z</time>
      </trkpt>
      <trkpt lat="45.29649" lon="3.38907">
        <ele>421.7</ele>
        <time>2021-08-05T14:49:14Z</time>
      </trkpt>
      <trkpt lat="45.29642" lon="3.38914">
        <ele>421.9</ele>
        <time>2021-08-05T14:49:16Z</time>
      </trkpt>
      <trkpt lat="45.29634" lon="3.38922">
        <ele>422.2</ele>
        <time>2021-08-05T14:49:18Z</time>
      </trkpt>
      <trkpt lat="45.29627" lon="3.38929">
        <ele>422.4</ele>
        <time>2021-08-05T14:49:20Z</time>
      </trkpt>
      <trkpt lat="45.29619" lon="3.38937">
        <ele>422.5</ele>
        <time>2021-08-05T14:49:22Z</time>
      </trkpt>
      <trkpt lat="45.29612" lon="3.38945">
        <ele>422.6</ele>
        <time>2021-08-05T14:49:24Z</time>
      </trkpt>
      <trkpt lat="45.29605" lon="3.38951">
        <ele>422.7</ele>
        <time>2021-08-05T14:49:26Z</time>
      </trkpt>
      <trkpt lat="45.29599" lon="3.38957">
        <ele>422.7</ele>
        <time>2021-08-05T14:49:28Z</time>
      </trkpt>
      <trkpt lat="45.29592" lon="3.38964">
        <ele>422.7</ele>
        <time>2021-08-05T14:49:30Z</time>
      </trkpt>
      <trkpt lat="45.29586" lon="3.38971">
        <ele>422.7</ele>
        <time>2021-08-05T14:49:32Z</time>
      </trkpt>
      <trkpt lat="45.2958" lon="3.38976">
        <ele>422.6</ele>
        <time>2021-08-05T14:49:34Z</time>
      </trkpt>
      <trkpt lat="45.29575" lon="3.38981">
        <ele>422.5</ele>
        <time>2021-08-05T14:49:36Z</time>
      </trkpt>
      <trkpt lat="45.29569" lon="3.38986">
        <ele>422.5</ele>
        <time>2021-08-05T14:49:38Z</time>
      </trkpt>
      <trkpt lat="45.29561" lon="3.38987">
        <ele>422.5</ele>
        <time>2021-08-05T14:49:40Z</time>
      </trkpt>
      <trkpt lat="45.29554" lon="3.38994">
        <ele>422.5</ele>
        <time>2021-08-05T14:49:42Z</time>
      </trkpt>
      <trkpt lat="45.29546" lon="3.38994">
        <ele>422.6</ele>
        <time>2021-08-05T14:49:44Z</time>
      </trkpt>
      <trkpt lat="45.2954" lon="3.38985">
        <ele>422.8</ele>
        <time>2021-08-05T14:49:46Z</time>
      </trkpt>
      <trkpt lat="45.29535" lon="3.38977">
        <ele>423</ele>
        <time>2021-08-05T14:49:48Z</time>
      </trkpt>
      <trkpt lat="45.2953" lon="3.38965">
        <ele>423.2</ele>
        <time>2021-08-05T14:49:50Z</time>
      </trkpt>
      <trkpt lat="45.29525" lon="3.38954">
        <ele>423.4</ele>
        <time>2021-08-05T14:49:52Z</time>
      </trkpt>
      <trkpt lat="45.2952" lon="3.38944">
        <ele>423.6</ele>
        <time>2021-08-05T14:49:54Z</time>
      </trkpt>
      <trkpt lat="45.29514" lon="3.38933">
        <ele>423.8</ele>
        <time>2021-08-05T14:49:56Z</time>
      </trkpt>
      <trkpt lat="45.29508" lon="3.38924">
        <ele>423.9</ele>
        <time>2021-08-05T14:49:58Z</time>
      </trkpt>
      <trkpt lat="45.29503" lon="3.38911">
        <ele>423.9</ele>
        <time>2021-08-05T14:50:00Z</time>
      </trkpt>
      <trkpt lat="45.29497" lon="3.38899">
        <ele>423.5</ele>
        <time>2021-08-05T14:50:02Z</time>
      </trkpt>
      <trkpt lat="45.29491" lon="3.38889">
        <ele>423.2</ele>
        <time>2021-08-05T14:50:04Z</time>
      </trkpt>
      <trkpt lat="45.29485" lon="3.38878">
        <ele>423</ele>
        <time>2021-08-05T14:50:06Z</time>
      </trkpt>
      <trkpt lat="45.2948" lon="3.38867">
        <ele>422.8</ele>
        <time>2021-08-05T14:50:08Z</time>
      </trkpt>
      <trkpt lat="45.29474" lon="3.38856">
        <ele>422.6</ele>
        <time>2021-08-05T14:50:10Z</time>
      </trkpt>
      <trkpt lat="45.29468" lon="3.38845">
        <ele>422.5</ele>
        <time>2021-08-05T14:50:12Z</time>
      </trkpt>
      <trkpt lat="45.29463" lon="3.38835">
        <ele>422.5</ele>
        <time>2021-08-05T14:50:14Z</time>
      </trkpt>
      <trkpt lat="45.29458" lon="3.38824">
        <ele>422.5</ele>
        <time>2021-08-05T14:50:16Z</time>
      </trkpt>
      <trkpt lat="45.29453" lon="3.38815">
        <ele>422.5</ele>
        <time>2021-08-05T14:50:18Z</time>
      </trkpt>
      <trkpt lat="45.29448" lon="3.38805">
        <ele>422.5</ele>
        <time>2021-08-05T14:50:20Z</time>
      </trkpt>
      <trkpt lat="45.29444" lon="3.38794">
        <ele>422.5</ele>
        <time>2021-08-05T14:50:22Z</time>
      </trkpt>
      <trkpt lat="45.29439" lon="3.38785">
        <ele>422.6</ele>
        <time>2021-08-05T14:50:24Z</time>
      </trkpt>
      <trkpt lat="45.29434" lon="3.38775">
        <ele>422.6</ele>
        <time>2021-08-05T14:50:26Z</time>
      </trkpt>
      <trkpt lat="45.29429" lon="3.38766">
        <ele>422.7</ele>
        <time>2021-08-05T14:50:28Z</time>
      </trkpt>
      <trkpt lat="45.29424" lon="3.38758">
        <ele>422.8</ele>
        <time>2021-08-05T14:50:30Z</time>
      </trkpt>
      <trkpt lat="45.29419" lon="3.38749">
        <ele>423</ele>
        <time>2021-08-05T14:50:32Z</time>
      </trkpt>
      <trkpt lat="45.29417" lon="3.38745">
        <ele>423.4</ele>
        <time>2021-08-05T14:50:33Z</time>
      </trkpt>
      <trkpt lat="45.29411" lon="3.38734">
        <ele>424.8</ele>
        <time>2021-08-05T14:50:36Z</time>
      </trkpt>
      <trkpt lat="45.29407" lon="3.38725">
        <ele>425.8</ele>
        <time>2021-08-05T14:50:38Z</time>
      </trkpt>
      <trkpt lat="45.29403" lon="3.38717">
        <ele>426.8</ele>
        <time>2021-08-05T14:50:40Z</time>
      </trkpt>
      <trkpt lat="45.29399" lon="3.3871">
        <ele>427.6</ele>
        <time>2021-08-05T14:50:42Z</time>
      </trkpt>
      <trkpt lat="45.29394" lon="3.38702">
        <ele>428.6</ele>
        <time>2021-08-05T14:50:44Z</time>
      </trkpt>
      <trkpt lat="45.29391" lon="3.38694">
        <ele>429.6</ele>
        <time>2021-08-05T14:50:46Z</time>
      </trkpt>
      <trkpt lat="45.29387" lon="3.38686">
        <ele>430.5</ele>
        <time>2021-08-05T14:50:48Z</time>
      </trkpt>
      <trkpt lat="45.29383" lon="3.38677">
        <ele>431.5</ele>
        <time>2021-08-05T14:50:50Z</time>
      </trkpt>
      <trkpt lat="45.2938" lon="3.38667">
        <ele>432.6</ele>
        <time>2021-08-05T14:50:52Z</time>
      </trkpt>
      <trkpt lat="45.29375" lon="3.38658">
        <ele>433.5</ele>
        <time>2021-08-05T14:50:54Z</time>
      </trkpt>
      <trkpt lat="45.29373" lon="3.38648">
        <ele>434.3</ele>
        <time>2021-08-05T14:50:56Z</time>
      </trkpt>
      <trkpt lat="45.2937" lon="3.38638">
        <ele>435</ele>
        <time>2021-08-05T14:50:58Z</time>
      </trkpt>
      <trkpt lat="45.29366" lon="3.38628">
        <ele>435.8</ele>
        <time>2021-08-05T14:51:00Z</time>
      </trkpt>
      <trkpt lat="45.29363" lon="3.38619">
        <ele>436.6</ele>
        <time>2021-08-05T14:51:02Z</time>
      </trkpt>
      <trkpt lat="45.29361" lon="3.38611">
        <ele>437.2</ele>
        <time>2021-08-05T14:51:04Z</time>
      </trkpt>
      <trkpt lat="45.29359" lon="3.38604">
        <ele>437.6</ele>
        <time>2021-08-05T14:51:06Z</time>
      </trkpt>
      <trkpt lat="45.29358" lon="3.38597">
        <ele>438</ele>
        <time>2021-08-05T14:51:08Z</time>
      </trkpt>
      <trkpt lat="45.29357" lon="3.38591">
        <ele>438.4</ele>
        <time>2021-08-05T14:51:10Z</time>
      </trkpt>
      <trkpt lat="45.29356" lon="3.38585">
        <ele>438.8</ele>
        <time>2021-08-05T14:51:12Z</time>
      </trkpt>
      <trkpt lat="45.29354" lon="3.3858">
        <ele>439.1</ele>
        <time>2021-08-05T14:51:14Z</time>
      </trkpt>
      <trkpt lat="45.29352" lon="3.38575">
        <ele>439.2</ele>
        <time>2021-08-05T14:51:16Z</time>
      </trkpt>
      <trkpt lat="45.29349" lon="3.3857">
        <ele>439.4</ele>
        <time>2021-08-05T14:51:18Z</time>
      </trkpt>
      <trkpt lat="45.29347" lon="3.38566">
        <ele>439.6</ele>
        <time>2021-08-05T14:51:20Z</time>
      </trkpt>
      <trkpt lat="45.29345" lon="3.38562">
        <ele>439.7</ele>
        <time>2021-08-05T14:51:22Z</time>
      </trkpt>
      <trkpt lat="45.29344" lon="3.38558">
        <ele>439.8</ele>
        <time>2021-08-05T14:51:24Z</time>
      </trkpt>
      <trkpt lat="45.29341" lon="3.38553">
        <ele>440</ele>
        <time>2021-08-05T14:51:26Z</time>
      </trkpt>
      <trkpt lat="45.29338" lon="3.3855">
        <ele>440.2</ele>
        <time>2021-08-05T14:51:28Z</time>
      </trkpt>
      <trkpt lat="45.29335" lon="3.38547">
        <ele>440.3</ele>
        <time>2021-08-05T14:51:30Z</time>
      </trkpt>
      <trkpt lat="45.29331" lon="3.38545">
        <ele>440.5</ele>
        <time>2021-08-05T14:51:32Z</time>
      </trkpt>
      <trkpt lat="45.29327" lon="3.38538">
        <ele>440.6</ele>
        <time>2021-08-05T14:51:34Z</time>
      </trkpt>
      <trkpt lat="45.29322" lon="3.38532">
        <ele>440.7</ele>
        <time>2021-08-05T14:51:36Z</time>
      </trkpt>
      <trkpt lat="45.29317" lon="3.38524">
        <ele>440.8</ele>
        <time>2021-08-05T14:51:38Z</time>
      </trkpt>
      <trkpt lat="45.29313" lon="3.38518">
        <ele>440.9</ele>
        <time>2021-08-05T14:51:40Z</time>
      </trkpt>
      <trkpt lat="45.2931" lon="3.3851">
        <ele>440.9</ele>
        <time>2021-08-05T14:51:42Z</time>
      </trkpt>
      <trkpt lat="45.29306" lon="3.38503">
        <ele>441</ele>
        <time>2021-08-05T14:51:44Z</time>
      </trkpt>
      <trkpt lat="45.29302" lon="3.38495">
        <ele>441</ele>
        <time>2021-08-05T14:51:46Z</time>
      </trkpt>
      <trkpt lat="45.293" lon="3.38487">
        <ele>440.9</ele>
        <time>2021-08-05T14:51:48Z</time>
      </trkpt>
      <trkpt lat="45.29297" lon="3.38479">
        <ele>440.9</ele>
        <time>2021-08-05T14:51:50Z</time>
      </trkpt>
      <trkpt lat="45.29297" lon="3.38473">
        <ele>440.9</ele>
        <time>2021-08-05T14:51:52Z</time>
      </trkpt>
      <trkpt lat="45.29299" lon="3.38469">
        <ele>440.8</ele>
        <time>2021-08-05T14:51:54Z</time>
      </trkpt>
      <trkpt lat="45.29302" lon="3.38468">
        <ele>440.9</ele>
        <time>2021-08-05T14:51:56Z</time>
      </trkpt>
      <trkpt lat="45.29304" lon="3.38466">
        <ele>440.9</ele>
        <time>2021-08-05T14:51:58Z</time>
      </trkpt>
      <trkpt lat="45.29307" lon="3.38465">
        <ele>440.9</ele>
        <time>2021-08-05T14:52:00Z</time>
      </trkpt>
      <trkpt lat="45.29309" lon="3.38464">
        <ele>440.9</ele>
        <time>2021-08-05T14:52:02Z</time>
      </trkpt>
      <trkpt lat="45.2931" lon="3.38463">
        <ele>440.9</ele>
        <time>2021-08-05T14:52:04Z</time>
      </trkpt>
      <trkpt lat="45.29313" lon="3.38462">
        <ele>440.9</ele>
        <time>2021-08-05T14:52:06Z</time>
      </trkpt>
      <trkpt lat="45.29315" lon="3.3846">
        <ele>440.9</ele>
        <time>2021-08-05T14:52:08Z</time>
      </trkpt>
      <trkpt lat="45.29317" lon="3.38459">
        <ele>440.9</ele>
        <time>2021-08-05T14:52:10Z</time>
      </trkpt>
      <trkpt lat="45.29319" lon="3.38458">
        <ele>440.9</ele>
        <time>2021-08-05T14:52:12Z</time>
      </trkpt>
      <trkpt lat="45.29321" lon="3.38457">
        <ele>440.9</ele>
        <time>2021-08-05T14:52:14Z</time>
      </trkpt>
      <trkpt lat="45.29322" lon="3.38456">
        <ele>440.9</ele>
        <time>2021-08-05T14:52:16Z</time>
      </trkpt>
      <trkpt lat="45.29323" lon="3.38455">
        <ele>440.9</ele>
        <time>2021-08-05T14:52:18Z</time>
      </trkpt>
      <trkpt lat="45.29331" lon="3.38442">
        <ele>441</ele>
        <time>2021-08-05T14:52:32Z</time>
      </trkpt>
      <trkpt lat="45.29332" lon="3.38436">
        <ele>441</ele>
        <time>2021-08-05T14:52:34Z</time>
      </trkpt>
      <trkpt lat="45.29333" lon="3.38434">
        <ele>441</ele>
        <time>2021-08-05T14:52:36Z</time>
      </trkpt>
      <trkpt lat="45.29334" lon="3.3843">
        <ele>441</ele>
        <time>2021-08-05T14:52:38Z</time>
      </trkpt>
      <trkpt lat="45.29335" lon="3.38427">
        <ele>441</ele>
        <time>2021-08-05T14:52:40Z</time>
      </trkpt>
      <trkpt lat="45.29334" lon="3.38421">
        <ele>441</ele>
        <time>2021-08-05T14:52:42Z</time>
      </trkpt>
      <trkpt lat="45.29332" lon="3.38416">
        <ele>441</ele>
        <time>2021-08-05T14:52:44Z</time>
      </trkpt>
      <trkpt lat="45.29331" lon="3.38412">
        <ele>441</ele>
        <time>2021-08-05T14:52:46Z</time>
      </trkpt>
      <trkpt lat="45.29333" lon="3.38409">
        <ele>441.1</ele>
        <time>2021-08-05T14:52:48Z</time>
      </trkpt>
      <trkpt lat="45.29336" lon="3.38405">
        <ele>441.1</ele>
        <time>2021-08-05T14:52:50Z</time>
      </trkpt>
      <trkpt lat="45.2934" lon="3.38405">
        <ele>441.1</ele>
        <time>2021-08-05T14:52:52Z</time>
      </trkpt>
      <trkpt lat="45.2934" lon="3.38404">
        <ele>441.1</ele>
        <time>2021-08-05T14:52:54Z</time>
      </trkpt>
      <trkpt lat="45.2934" lon="3.38404">
        <ele>441.1</ele>
        <time>2021-08-05T14:52:56Z</time>
      </trkpt>
      <trkpt lat="45.2934" lon="3.38405">
        <ele>441.1</ele>
        <time>2021-08-05T14:52:58Z</time>
      </trkpt>
      <trkpt lat="45.29341" lon="3.38405">
        <ele>441.1</ele>
        <time>2021-08-05T14:53:00Z</time>
      </trkpt>
      <trkpt lat="45.29341" lon="3.38404">
        <ele>441.1</ele>
        <time>2021-08-05T14:53:02Z</time>
      </trkpt>
      <trkpt lat="45.29345" lon="3.38458">
        <ele>440.7</ele>
        <time>2021-08-05T15:58:05Z</time>
      </trkpt>
      <trkpt lat="45.29349" lon="3.38462">
        <ele>440.6</ele>
        <time>2021-08-05T15:58:07Z</time>
      </trkpt>
      <trkpt lat="45.29351" lon="3.38467">
        <ele>440.5</ele>
        <time>2021-08-05T15:58:09Z</time>
      </trkpt>
      <trkpt lat="45.29356" lon="3.38472">
        <ele>440.4</ele>
        <time>2021-08-05T15:58:11Z</time>
      </trkpt>
      <trkpt lat="45.29359" lon="3.38475">
        <ele>440.3</ele>
        <time>2021-08-05T15:58:13Z</time>
      </trkpt>
      <trkpt lat="45.29359" lon="3.38482">
        <ele>440.2</ele>
        <time>2021-08-05T15:58:15Z</time>
      </trkpt>
      <trkpt lat="45.2936" lon="3.38485">
        <ele>440.2</ele>
        <time>2021-08-05T15:58:17Z</time>
      </trkpt>
      <trkpt lat="45.29363" lon="3.38489">
        <ele>440</ele>
        <time>2021-08-05T15:58:19Z</time>
      </trkpt>
      <trkpt lat="45.29367" lon="3.38491">
        <ele>439.9</ele>
        <time>2021-08-05T15:58:21Z</time>
      </trkpt>
      <trkpt lat="45.29371" lon="3.38493">
        <ele>439.7</ele>
        <time>2021-08-05T15:58:23Z</time>
      </trkpt>
      <trkpt lat="45.29373" lon="3.38496">
        <ele>439.6</ele>
        <time>2021-08-05T15:58:25Z</time>
      </trkpt>
      <trkpt lat="45.29375" lon="3.38495">
        <ele>439.6</ele>
        <time>2021-08-05T15:58:27Z</time>
      </trkpt>
      <trkpt lat="45.29378" lon="3.38493">
        <ele>439.5</ele>
        <time>2021-08-05T15:58:29Z</time>
      </trkpt>
      <trkpt lat="45.29383" lon="3.38492">
        <ele>439.3</ele>
        <time>2021-08-05T15:58:31Z</time>
      </trkpt>
      <trkpt lat="45.29387" lon="3.38492">
        <ele>439.2</ele>
        <time>2021-08-05T15:58:33Z</time>
      </trkpt>
      <trkpt lat="45.2939" lon="3.38494">
        <ele>439.1</ele>
        <time>2021-08-05T15:58:35Z</time>
      </trkpt>
      <trkpt lat="45.29392" lon="3.38496">
        <ele>439</ele>
        <time>2021-08-05T15:58:37Z</time>
      </trkpt>
      <trkpt lat="45.29394" lon="3.38496">
        <ele>438.9</ele>
        <time>2021-08-05T15:58:39Z</time>
      </trkpt>
      <trkpt lat="45.29395" lon="3.38498">
        <ele>438.8</ele>
        <time>2021-08-05T15:58:41Z</time>
      </trkpt>
      <trkpt lat="45.29397" lon="3.385">
        <ele>438.7</ele>
        <time>2021-08-05T15:58:43Z</time>
      </trkpt>
      <trkpt lat="45.294" lon="3.38501">
        <ele>438.6</ele>
        <time>2021-08-05T15:58:45Z</time>
      </trkpt>
      <trkpt lat="45.29402" lon="3.38498">
        <ele>438.6</ele>
        <time>2021-08-05T15:58:47Z</time>
      </trkpt>
      <trkpt lat="45.29405" lon="3.38495">
        <ele>438.5</ele>
        <time>2021-08-05T15:58:49Z</time>
      </trkpt>
      <trkpt lat="45.29409" lon="3.38492">
        <ele>438.4</ele>
        <time>2021-08-05T15:58:51Z</time>
      </trkpt>
      <trkpt lat="45.29414" lon="3.38488">
        <ele>438.4</ele>
        <time>2021-08-05T15:58:53Z</time>
      </trkpt>
      <trkpt lat="45.29417" lon="3.38484">
        <ele>438.4</ele>
        <time>2021-08-05T15:58:55Z</time>
      </trkpt>
      <trkpt lat="45.29421" lon="3.3848">
        <ele>438.3</ele>
        <time>2021-08-05T15:58:57Z</time>
      </trkpt>
      <trkpt lat="45.29425" lon="3.38476">
        <ele>438.3</ele>
        <time>2021-08-05T15:58:59Z</time>
      </trkpt>
      <trkpt lat="45.29429" lon="3.38473">
        <ele>438.3</ele>
        <time>2021-08-05T15:59:01Z</time>
      </trkpt>
      <trkpt lat="45.29432" lon="3.38469">
        <ele>438.3</ele>
        <time>2021-08-05T15:59:03Z</time>
      </trkpt>
      <trkpt lat="45.29438" lon="3.38464">
        <ele>438.2</ele>
        <time>2021-08-05T15:59:05Z</time>
      </trkpt>
      <trkpt lat="45.29444" lon="3.38459">
        <ele>438.2</ele>
        <time>2021-08-05T15:59:07Z</time>
      </trkpt>
      <trkpt lat="45.29447" lon="3.38456">
        <ele>438.1</ele>
        <time>2021-08-05T15:59:09Z</time>
      </trkpt>
      <trkpt lat="45.29449" lon="3.38456">
        <ele>438.1</ele>
        <time>2021-08-05T15:59:11Z</time>
      </trkpt>
      <trkpt lat="45.29456" lon="3.38462">
        <ele>437.7</ele>
        <time>2021-08-05T15:59:13Z</time>
      </trkpt>
      <trkpt lat="45.29461" lon="3.3847">
        <ele>437.5</ele>
        <time>2021-08-05T15:59:15Z</time>
      </trkpt>
      <trkpt lat="45.29465" lon="3.38478">
        <ele>437.2</ele>
        <time>2021-08-05T15:59:17Z</time>
      </trkpt>
      <trkpt lat="45.29468" lon="3.38488">
        <ele>437</ele>
        <time>2021-08-05T15:59:19Z</time>
      </trkpt>
      <trkpt lat="45.29468" lon="3.38499">
        <ele>436.8</ele>
        <time>2021-08-05T15:59:21Z</time>
      </trkpt>
      <trkpt lat="45.29461" lon="3.38505">
        <ele>436.7</ele>
        <time>2021-08-05T15:59:23Z</time>
      </trkpt>
      <trkpt lat="45.29456" lon="3.38511">
        <ele>436.6</ele>
        <time>2021-08-05T15:59:25Z</time>
      </trkpt>
      <trkpt lat="45.2945" lon="3.38516">
        <ele>436.6</ele>
        <time>2021-08-05T15:59:27Z</time>
      </trkpt>
      <trkpt lat="45.29445" lon="3.38522">
        <ele>436.5</ele>
        <time>2021-08-05T15:59:29Z</time>
      </trkpt>
      <trkpt lat="45.2944" lon="3.38528">
        <ele>436.5</ele>
        <time>2021-08-05T15:59:31Z</time>
      </trkpt>
      <trkpt lat="45.29435" lon="3.38532">
        <ele>436.5</ele>
        <time>2021-08-05T15:59:33Z</time>
      </trkpt>
      <trkpt lat="45.2943" lon="3.38537">
        <ele>436.6</ele>
        <time>2021-08-05T15:59:35Z</time>
      </trkpt>
      <trkpt lat="45.29425" lon="3.38544">
        <ele>436.6</ele>
        <time>2021-08-05T15:59:37Z</time>
      </trkpt>
      <trkpt lat="45.29419" lon="3.38549">
        <ele>436.7</ele>
        <time>2021-08-05T15:59:39Z</time>
      </trkpt>
      <trkpt lat="45.29413" lon="3.38553">
        <ele>436.9</ele>
        <time>2021-08-05T15:59:41Z</time>
      </trkpt>
      <trkpt lat="45.29408" lon="3.38558">
        <ele>437</ele>
        <time>2021-08-05T15:59:43Z</time>
      </trkpt>
      <trkpt lat="45.29403" lon="3.38563">
        <ele>437.1</ele>
        <time>2021-08-05T15:59:45Z</time>
      </trkpt>
      <trkpt lat="45.29399" lon="3.38569">
        <ele>437.2</ele>
        <time>2021-08-05T15:59:47Z</time>
      </trkpt>
      <trkpt lat="45.29393" lon="3.38573">
        <ele>437.3</ele>
        <time>2021-08-05T15:59:49Z</time>
      </trkpt>
      <trkpt lat="45.29388" lon="3.38576">
        <ele>437.5</ele>
        <time>2021-08-05T15:59:51Z</time>
      </trkpt>
      <trkpt lat="45.29382" lon="3.38582">
        <ele>437.7</ele>
        <time>2021-08-05T15:59:53Z</time>
      </trkpt>
      <trkpt lat="45.29377" lon="3.38586">
        <ele>437.7</ele>
        <time>2021-08-05T15:59:55Z</time>
      </trkpt>
      <trkpt lat="45.29372" lon="3.3859">
        <ele>437.8</ele>
        <time>2021-08-05T15:59:57Z</time>
      </trkpt>
      <trkpt lat="45.29369" lon="3.38593">
        <ele>437.8</ele>
        <time>2021-08-05T15:59:59Z</time>
      </trkpt>
      <trkpt lat="45.29364" lon="3.38594">
        <ele>437.9</ele>
        <time>2021-08-05T16:00:01Z</time>
      </trkpt>
      <trkpt lat="45.29364" lon="3.38594">
        <ele>437.9</ele>
        <time>2021-08-05T16:00:03Z</time>
      </trkpt>
      <trkpt lat="45.29363" lon="3.38595">
        <ele>437.9</ele>
        <time>2021-08-05T16:00:05Z</time>
      </trkpt>
      <trkpt lat="45.29362" lon="3.38595">
        <ele>437.9</ele>
        <time>2021-08-05T16:00:07Z</time>
      </trkpt>
      <trkpt lat="45.29362" lon="3.386">
        <ele>437.7</ele>
        <time>2021-08-05T16:00:09Z</time>
      </trkpt>
      <trkpt lat="45.29361" lon="3.38609">
        <ele>437.2</ele>
        <time>2021-08-05T16:00:11Z</time>
      </trkpt>
      <trkpt lat="45.29365" lon="3.38618">
        <ele>436.5</ele>
        <time>2021-08-05T16:00:13Z</time>
      </trkpt>
      <trkpt lat="45.29368" lon="3.38628">
        <ele>435.8</ele>
        <time>2021-08-05T16:00:15Z</time>
      </trkpt>
      <trkpt lat="45.29372" lon="3.38639">
        <ele>434.8</ele>
        <time>2021-08-05T16:00:17Z</time>
      </trkpt>
      <trkpt lat="45.29375" lon="3.38649">
        <ele>434</ele>
        <time>2021-08-05T16:00:19Z</time>
      </trkpt>
      <trkpt lat="45.29379" lon="3.38659">
        <ele>433.2</ele>
        <time>2021-08-05T16:00:21Z</time>
      </trkpt>
      <trkpt lat="45.29382" lon="3.3867">
        <ele>432.2</ele>
        <time>2021-08-05T16:00:23Z</time>
      </trkpt>
      <trkpt lat="45.29385" lon="3.38679">
        <ele>431.3</ele>
        <time>2021-08-05T16:00:25Z</time>
      </trkpt>
      <trkpt lat="45.29386" lon="3.38687">
        <ele>430.5</ele>
        <time>2021-08-05T16:00:27Z</time>
      </trkpt>
      <trkpt lat="45.29388" lon="3.38693">
        <ele>429.9</ele>
        <time>2021-08-05T16:00:29Z</time>
      </trkpt>
      <trkpt lat="45.29393" lon="3.387">
        <ele>428.9</ele>
        <time>2021-08-05T16:00:31Z</time>
      </trkpt>
      <trkpt lat="45.29397" lon="3.3871">
        <ele>427.8</ele>
        <time>2021-08-05T16:00:33Z</time>
      </trkpt>
      <trkpt lat="45.29402" lon="3.38718">
        <ele>426.8</ele>
        <time>2021-08-05T16:00:35Z</time>
      </trkpt>
      <trkpt lat="45.29406" lon="3.38729">
        <ele>425.6</ele>
        <time>2021-08-05T16:00:37Z</time>
      </trkpt>
      <trkpt lat="45.29411" lon="3.3874">
        <ele>424.3</ele>
        <time>2021-08-05T16:00:39Z</time>
      </trkpt>
      <trkpt lat="45.29417" lon="3.3875">
        <ele>423</ele>
        <time>2021-08-05T16:00:41Z</time>
      </trkpt>
      <trkpt lat="45.2942" lon="3.38759">
        <ele>422.9</ele>
        <time>2021-08-05T16:00:43Z</time>
      </trkpt>
      <trkpt lat="45.29421" lon="3.38766">
        <ele>422.9</ele>
        <time>2021-08-05T16:00:45Z</time>
      </trkpt>
      <trkpt lat="45.29422" lon="3.38765">
        <ele>422.9</ele>
        <time>2021-08-05T16:00:47Z</time>
      </trkpt>
      <trkpt lat="45.29422" lon="3.38765">
        <ele>422.9</ele>
        <time>2021-08-05T16:00:49Z</time>
      </trkpt>
      <trkpt lat="45.29422" lon="3.38765">
        <ele>422.9</ele>
        <time>2021-08-05T16:00:51Z</time>
      </trkpt>
      <trkpt lat="45.29422" lon="3.38765">
        <ele>422.9</ele>
        <time>2021-08-05T16:00:53Z</time>
      </trkpt>
      <trkpt lat="45.29422" lon="3.38765">
        <ele>422.9</ele>
        <time>2021-08-05T16:00:55Z</time>
      </trkpt>
      <trkpt lat="45.29421" lon="3.3875">
        <ele>422.9</ele>
        <time>2021-08-05T16:01:47Z</time>
      </trkpt>
      <trkpt lat="45.29418" lon="3.38744">
        <ele>423.5</ele>
        <time>2021-08-05T16:01:49Z</time>
      </trkpt>
      <trkpt lat="45.29415" lon="3.38738">
        <ele>424.1</ele>
        <time>2021-08-05T16:01:51Z</time>
      </trkpt>
      <trkpt lat="45.29412" lon="3.38733">
        <ele>424.7</ele>
        <time>2021-08-05T16:01:53Z</time>
      </trkpt>
      <trkpt lat="45.29409" lon="3.38728">
        <ele>425.4</ele>
        <time>2021-08-05T16:01:55Z</time>
      </trkpt>
      <trkpt lat="45.29406" lon="3.38723">
        <ele>426</ele>
        <time>2021-08-05T16:01:57Z</time>
      </trkpt>
      <trkpt lat="45.29404" lon="3.38717">
        <ele>426.7</ele>
        <time>2021-08-05T16:01:59Z</time>
      </trkpt>
      <trkpt lat="45.29401" lon="3.38713">
        <ele>427.3</ele>
        <time>2021-08-05T16:02:01Z</time>
      </trkpt>
      <trkpt lat="45.29398" lon="3.38708">
        <ele>427.9</ele>
        <time>2021-08-05T16:02:03Z</time>
      </trkpt>
      <trkpt lat="45.29396" lon="3.38703">
        <ele>428.5</ele>
        <time>2021-08-05T16:02:05Z</time>
      </trkpt>
      <trkpt lat="45.29393" lon="3.38697">
        <ele>429.2</ele>
        <time>2021-08-05T16:02:07Z</time>
      </trkpt>
      <trkpt lat="45.2939" lon="3.38691">
        <ele>429.9</ele>
        <time>2021-08-05T16:02:09Z</time>
      </trkpt>
      <trkpt lat="45.29387" lon="3.38685">
        <ele>430.5</ele>
        <time>2021-08-05T16:02:11Z</time>
      </trkpt>
      <trkpt lat="45.29385" lon="3.3868">
        <ele>431.2</ele>
        <time>2021-08-05T16:02:13Z</time>
      </trkpt>
      <trkpt lat="45.29383" lon="3.38674">
        <ele>431.8</ele>
        <time>2021-08-05T16:02:15Z</time>
      </trkpt>
      <trkpt lat="45.2938" lon="3.38669">
        <ele>432.4</ele>
        <time>2021-08-05T16:02:17Z</time>
      </trkpt>
      <trkpt lat="45.29377" lon="3.38663">
        <ele>433.1</ele>
        <time>2021-08-05T16:02:19Z</time>
      </trkpt>
      <trkpt lat="45.29375" lon="3.38657">
        <ele>433.6</ele>
        <time>2021-08-05T16:02:21Z</time>
      </trkpt>
      <trkpt lat="45.29373" lon="3.38652">
        <ele>434</ele>
        <time>2021-08-05T16:02:23Z</time>
      </trkpt>
      <trkpt lat="45.29371" lon="3.38646">
        <ele>434.5</ele>
        <time>2021-08-05T16:02:25Z</time>
      </trkpt>
      <trkpt lat="45.29369" lon="3.38641">
        <ele>434.9</ele>
        <time>2021-08-05T16:02:27Z</time>
      </trkpt>
      <trkpt lat="45.29367" lon="3.38636">
        <ele>435.3</ele>
        <time>2021-08-05T16:02:29Z</time>
      </trkpt>
      <trkpt lat="45.29365" lon="3.38631">
        <ele>435.8</ele>
        <time>2021-08-05T16:02:31Z</time>
      </trkpt>
      <trkpt lat="45.29363" lon="3.38626">
        <ele>436.2</ele>
        <time>2021-08-05T16:02:33Z</time>
      </trkpt>
      <trkpt lat="45.29362" lon="3.38621">
        <ele>436.5</ele>
        <time>2021-08-05T16:02:35Z</time>
      </trkpt>
      <trkpt lat="45.29361" lon="3.38616">
        <ele>436.9</ele>
        <time>2021-08-05T16:02:37Z</time>
      </trkpt>
      <trkpt lat="45.29359" lon="3.38611">
        <ele>437.2</ele>
        <time>2021-08-05T16:02:39Z</time>
      </trkpt>
      <trkpt lat="45.29359" lon="3.38606">
        <ele>437.5</ele>
        <time>2021-08-05T16:02:41Z</time>
      </trkpt>
      <trkpt lat="45.29358" lon="3.38602">
        <ele>437.8</ele>
        <time>2021-08-05T16:02:43Z</time>
      </trkpt>
      <trkpt lat="45.29357" lon="3.38598">
        <ele>438</ele>
        <time>2021-08-05T16:02:45Z</time>
      </trkpt>
      <trkpt lat="45.29357" lon="3.38594">
        <ele>438.3</ele>
        <time>2021-08-05T16:02:47Z</time>
      </trkpt>
      <trkpt lat="45.29355" lon="3.38589">
        <ele>438.6</ele>
        <time>2021-08-05T16:02:49Z</time>
      </trkpt>
      <trkpt lat="45.29353" lon="3.38585">
        <ele>439</ele>
        <time>2021-08-05T16:02:51Z</time>
      </trkpt>
      <trkpt lat="45.2935" lon="3.38581">
        <ele>439.2</ele>
        <time>2021-08-05T16:02:53Z</time>
      </trkpt>
      <trkpt lat="45.29348" lon="3.38577">
        <ele>439.4</ele>
        <time>2021-08-05T16:02:55Z</time>
      </trkpt>
      <trkpt lat="45.29346" lon="3.38571">
        <ele>439.6</ele>
        <time>2021-08-05T16:02:57Z</time>
      </trkpt>
      <trkpt lat="45.29344" lon="3.38566">
        <ele>439.7</ele>
        <time>2021-08-05T16:02:59Z</time>
      </trkpt>
      <trkpt lat="45.29342" lon="3.38561">
        <ele>439.9</ele>
        <time>2021-08-05T16:03:01Z</time>
      </trkpt>
      <trkpt lat="45.29339" lon="3.38557">
        <ele>440.1</ele>
        <time>2021-08-05T16:03:03Z</time>
      </trkpt>
      <trkpt lat="45.29335" lon="3.38552">
        <ele>440.3</ele>
        <time>2021-08-05T16:03:05Z</time>
      </trkpt>
      <trkpt lat="45.29331" lon="3.38547">
        <ele>440.5</ele>
        <time>2021-08-05T16:03:07Z</time>
      </trkpt>
      <trkpt lat="45.29327" lon="3.38542">
        <ele>440.6</ele>
        <time>2021-08-05T16:03:09Z</time>
      </trkpt>
      <trkpt lat="45.29324" lon="3.38537">
        <ele>440.7</ele>
        <time>2021-08-05T16:03:11Z</time>
      </trkpt>
      <trkpt lat="45.29321" lon="3.38532">
        <ele>440.7</ele>
        <time>2021-08-05T16:03:13Z</time>
      </trkpt>
      <trkpt lat="45.29317" lon="3.38526">
        <ele>440.8</ele>
        <time>2021-08-05T16:03:15Z</time>
      </trkpt>
      <trkpt lat="45.29313" lon="3.3852">
        <ele>440.9</ele>
        <time>2021-08-05T16:03:17Z</time>
      </trkpt>
      <trkpt lat="45.2931" lon="3.38514">
        <ele>440.9</ele>
        <time>2021-08-05T16:03:19Z</time>
      </trkpt>
      <trkpt lat="45.29305" lon="3.38508">
        <ele>441</ele>
        <time>2021-08-05T16:03:21Z</time>
      </trkpt>
      <trkpt lat="45.29301" lon="3.38503">
        <ele>441</ele>
        <time>2021-08-05T16:03:23Z</time>
      </trkpt>
      <trkpt lat="45.29297" lon="3.38497">
        <ele>441</ele>
        <time>2021-08-05T16:03:25Z</time>
      </trkpt>
      <trkpt lat="45.29295" lon="3.38489">
        <ele>440.9</ele>
        <time>2021-08-05T16:03:27Z</time>
      </trkpt>
      <trkpt lat="45.29292" lon="3.38483">
        <ele>440.9</ele>
        <time>2021-08-05T16:03:29Z</time>
      </trkpt>
      <trkpt lat="45.29289" lon="3.38477">
        <ele>440.9</ele>
        <time>2021-08-05T16:03:31Z</time>
      </trkpt>
      <trkpt lat="45.29288" lon="3.38472">
        <ele>440.8</ele>
        <time>2021-08-05T16:03:33Z</time>
      </trkpt>
      <trkpt lat="45.29291" lon="3.38462">
        <ele>440.8</ele>
        <time>2021-08-05T16:03:35Z</time>
      </trkpt>
      <trkpt lat="45.29291" lon="3.38453">
        <ele>440.7</ele>
        <time>2021-08-05T16:03:37Z</time>
      </trkpt>
      <trkpt lat="45.29288" lon="3.38445">
        <ele>440.6</ele>
        <time>2021-08-05T16:03:39Z</time>
      </trkpt>
      <trkpt lat="45.29286" lon="3.38437">
        <ele>440.6</ele>
        <time>2021-08-05T16:03:41Z</time>
      </trkpt>
      <trkpt lat="45.29282" lon="3.38431">
        <ele>440.5</ele>
        <time>2021-08-05T16:03:43Z</time>
      </trkpt>
      <trkpt lat="45.29279" lon="3.38424">
        <ele>440.4</ele>
        <time>2021-08-05T16:03:45Z</time>
      </trkpt>
      <trkpt lat="45.29279" lon="3.38415">
        <ele>440.4</ele>
        <time>2021-08-05T16:03:47Z</time>
      </trkpt>
      <trkpt lat="45.29277" lon="3.38408">
        <ele>440.5</ele>
        <time>2021-08-05T16:03:49Z</time>
      </trkpt>
      <trkpt lat="45.29274" lon="3.38402">
        <ele>440.6</ele>
        <time>2021-08-05T16:03:51Z</time>
      </trkpt>
      <trkpt lat="45.29271" lon="3.38396">
        <ele>440.7</ele>
        <time>2021-08-05T16:03:53Z</time>
      </trkpt>
      <trkpt lat="45.29268" lon="3.3839">
        <ele>440.8</ele>
        <time>2021-08-05T16:03:55Z</time>
      </trkpt>
      <trkpt lat="45.29263" lon="3.38384">
        <ele>440.9</ele>
        <time>2021-08-05T16:03:57Z</time>
      </trkpt>
      <trkpt lat="45.2926" lon="3.38377">
        <ele>441</ele>
        <time>2021-08-05T16:03:59Z</time>
      </trkpt>
      <trkpt lat="45.29257" lon="3.3837">
        <ele>441.2</ele>
        <time>2021-08-05T16:04:01Z</time>
      </trkpt>
      <trkpt lat="45.29253" lon="3.38364">
        <ele>441.3</ele>
        <time>2021-08-05T16:04:03Z</time>
      </trkpt>
      <trkpt lat="45.2925" lon="3.38358">
        <ele>441.4</ele>
        <time>2021-08-05T16:04:05Z</time>
      </trkpt>
      <trkpt lat="45.29247" lon="3.38351">
        <ele>441.6</ele>
        <time>2021-08-05T16:04:07Z</time>
      </trkpt>
      <trkpt lat="45.29243" lon="3.38345">
        <ele>441.8</ele>
        <time>2021-08-05T16:04:09Z</time>
      </trkpt>
      <trkpt lat="45.29242" lon="3.38338">
        <ele>442.1</ele>
        <time>2021-08-05T16:04:11Z</time>
      </trkpt>
      <trkpt lat="45.29239" lon="3.38331">
        <ele>442.3</ele>
        <time>2021-08-05T16:04:13Z</time>
      </trkpt>
      <trkpt lat="45.29236" lon="3.38324">
        <ele>442.6</ele>
        <time>2021-08-05T16:04:15Z</time>
      </trkpt>
      <trkpt lat="45.29232" lon="3.38318">
        <ele>443</ele>
        <time>2021-08-05T16:04:17Z</time>
      </trkpt>
      <trkpt lat="45.2923" lon="3.38311">
        <ele>443.3</ele>
        <time>2021-08-05T16:04:19Z</time>
      </trkpt>
      <trkpt lat="45.29228" lon="3.38305">
        <ele>443.6</ele>
        <time>2021-08-05T16:04:21Z</time>
      </trkpt>
      <trkpt lat="45.29226" lon="3.383">
        <ele>443.8</ele>
        <time>2021-08-05T16:04:23Z</time>
      </trkpt>
      <trkpt lat="45.29224" lon="3.38296">
        <ele>444.1</ele>
        <time>2021-08-05T16:04:25Z</time>
      </trkpt>
      <trkpt lat="45.29225" lon="3.38295">
        <ele>444.1</ele>
        <time>2021-08-05T16:04:27Z</time>
      </trkpt>
      <trkpt lat="45.29225" lon="3.38295">
        <ele>444</ele>
        <time>2021-08-05T16:04:29Z</time>
      </trkpt>
      <trkpt lat="45.29226" lon="3.38295">
        <ele>444</ele>
        <time>2021-08-05T16:04:31Z</time>
      </trkpt>
      <trkpt lat="45.29225" lon="3.38295">
        <ele>444.1</ele>
        <time>2021-08-05T16:04:33Z</time>
      </trkpt>
      <trkpt lat="45.29225" lon="3.38293">
        <ele>444.2</ele>
        <time>2021-08-05T16:04:35Z</time>
      </trkpt>
      <trkpt lat="45.29211" lon="3.38285">
        <ele>445.2</ele>
        <time>2021-08-05T16:05:03Z</time>
      </trkpt>
      <trkpt lat="45.2921" lon="3.38294">
        <ele>444.8</ele>
        <time>2021-08-05T16:05:05Z</time>
      </trkpt>
      <trkpt lat="45.29207" lon="3.38303">
        <ele>444.5</ele>
        <time>2021-08-05T16:05:07Z</time>
      </trkpt>
      <trkpt lat="45.29205" lon="3.38313">
        <ele>444.1</ele>
        <time>2021-08-05T16:05:09Z</time>
      </trkpt>
      <trkpt lat="45.29201" lon="3.38323">
        <ele>443.7</ele>
        <time>2021-08-05T16:05:11Z</time>
      </trkpt>
      <trkpt lat="45.29197" lon="3.38334">
        <ele>443.2</ele>
        <time>2021-08-05T16:05:13Z</time>
      </trkpt>
      <trkpt lat="45.29194" lon="3.38344">
        <ele>442.8</ele>
        <time>2021-08-05T16:05:15Z</time>
      </trkpt>
      <trkpt lat="45.2919" lon="3.38354">
        <ele>442.4</ele>
        <time>2021-08-05T16:05:17Z</time>
      </trkpt>
      <trkpt lat="45.29186" lon="3.38365">
        <ele>441.9</ele>
        <time>2021-08-05T16:05:19Z</time>
      </trkpt>
      <trkpt lat="45.29181" lon="3.38378">
        <ele>441.3</ele>
        <time>2021-08-05T16:05:21Z</time>
      </trkpt>
      <trkpt lat="45.29176" lon="3.38389">
        <ele>440.7</ele>
        <time>2021-08-05T16:05:23Z</time>
      </trkpt>
      <trkpt lat="45.2917" lon="3.384">
        <ele>440</ele>
        <time>2021-08-05T16:05:25Z</time>
      </trkpt>
      <trkpt lat="45.29166" lon="3.38411">
        <ele>439.4</ele>
        <time>2021-08-05T16:05:27Z</time>
      </trkpt>
      <trkpt lat="45.29161" lon="3.38422">
        <ele>439.1</ele>
        <time>2021-08-05T16:05:29Z</time>
      </trkpt>
      <trkpt lat="45.29157" lon="3.38432">
        <ele>439.2</ele>
        <time>2021-08-05T16:05:31Z</time>
      </trkpt>
      <trkpt lat="45.29155" lon="3.38437">
        <ele>439.2</ele>
        <time>2021-08-05T16:05:33Z</time>
      </trkpt>
      <trkpt lat="45.29151" lon="3.38442">
        <ele>439.2</ele>
        <time>2021-08-05T16:05:35Z</time>
      </trkpt>
      <trkpt lat="45.29151" lon="3.38444">
        <ele>439.2</ele>
        <time>2021-08-05T16:05:37Z</time>
      </trkpt>
      <trkpt lat="45.29151" lon="3.38443">
        <ele>439.2</ele>
        <time>2021-08-05T16:05:39Z</time>
      </trkpt>
      <trkpt lat="45.29151" lon="3.38443">
        <ele>439.2</ele>
        <time>2021-08-05T16:05:41Z</time>
      </trkpt>
      <trkpt lat="45.29151" lon="3.38443">
        <ele>439.2</ele>
        <time>2021-08-05T16:05:43Z</time>
      </trkpt>
      <trkpt lat="45.29151" lon="3.38444">
        <ele>439.2</ele>
        <time>2021-08-05T16:05:45Z</time>
      </trkpt>
      <trkpt lat="45.29142" lon="3.38469">
        <ele>439</ele>
        <time>2021-08-05T16:06:13Z</time>
      </trkpt>
      <trkpt lat="45.29139" lon="3.38477">
        <ele>438.9</ele>
        <time>2021-08-05T16:06:15Z</time>
      </trkpt>
      <trkpt lat="45.29134" lon="3.38485">
        <ele>438.8</ele>
        <time>2021-08-05T16:06:17Z</time>
      </trkpt>
      <trkpt lat="45.29127" lon="3.38492">
        <ele>438.7</ele>
        <time>2021-08-05T16:06:19Z</time>
      </trkpt>
      <trkpt lat="45.29121" lon="3.38499">
        <ele>438.5</ele>
        <time>2021-08-05T16:06:21Z</time>
      </trkpt>
      <trkpt lat="45.29114" lon="3.38507">
        <ele>438.5</ele>
        <time>2021-08-05T16:06:23Z</time>
      </trkpt>
      <trkpt lat="45.29107" lon="3.38514">
        <ele>438.5</ele>
        <time>2021-08-05T16:06:25Z</time>
      </trkpt>
      <trkpt lat="45.291" lon="3.38522">
        <ele>438.6</ele>
        <time>2021-08-05T16:06:27Z</time>
      </trkpt>
      <trkpt lat="45.29092" lon="3.3853">
        <ele>438.5</ele>
        <time>2021-08-05T16:06:29Z</time>
      </trkpt>
      <trkpt lat="45.29084" lon="3.38538">
        <ele>438.5</ele>
        <time>2021-08-05T16:06:31Z</time>
      </trkpt>
      <trkpt lat="45.29077" lon="3.38546">
        <ele>439</ele>
        <time>2021-08-05T16:06:33Z</time>
      </trkpt>
      <trkpt lat="45.29069" lon="3.38554">
        <ele>439.5</ele>
        <time>2021-08-05T16:06:35Z</time>
      </trkpt>
      <trkpt lat="45.29061" lon="3.38561">
        <ele>439.9</ele>
        <time>2021-08-05T16:06:37Z</time>
      </trkpt>
      <trkpt lat="45.29053" lon="3.3857">
        <ele>440.2</ele>
        <time>2021-08-05T16:06:39Z</time>
      </trkpt>
      <trkpt lat="45.29046" lon="3.38578">
        <ele>440.4</ele>
        <time>2021-08-05T16:06:41Z</time>
      </trkpt>
      <trkpt lat="45.29039" lon="3.38587">
        <ele>440.5</ele>
        <time>2021-08-05T16:06:43Z</time>
      </trkpt>
      <trkpt lat="45.29032" lon="3.38595">
        <ele>440.6</ele>
        <time>2021-08-05T16:06:45Z</time>
      </trkpt>
      <trkpt lat="45.29026" lon="3.38604">
        <ele>440.6</ele>
        <time>2021-08-05T16:06:47Z</time>
      </trkpt>
      <trkpt lat="45.29019" lon="3.38612">
        <ele>440.7</ele>
        <time>2021-08-05T16:06:49Z</time>
      </trkpt>
      <trkpt lat="45.29011" lon="3.3862">
        <ele>440.8</ele>
        <time>2021-08-05T16:06:51Z</time>
      </trkpt>
      <trkpt lat="45.29005" lon="3.38628">
        <ele>440.8</ele>
        <time>2021-08-05T16:06:53Z</time>
      </trkpt>
      <trkpt lat="45.28998" lon="3.38636">
        <ele>440.9</ele>
        <time>2021-08-05T16:06:55Z</time>
      </trkpt>
      <trkpt lat="45.28991" lon="3.38644">
        <ele>441.3</ele>
        <time>2021-08-05T16:06:57Z</time>
      </trkpt>
      <trkpt lat="45.28984" lon="3.38652">
        <ele>441.6</ele>
        <time>2021-08-05T16:06:59Z</time>
      </trkpt>
      <trkpt lat="45.28977" lon="3.3866">
        <ele>441.9</ele>
        <time>2021-08-05T16:07:01Z</time>
      </trkpt>
      <trkpt lat="45.2897" lon="3.38668">
        <ele>442.1</ele>
        <time>2021-08-05T16:07:03Z</time>
      </trkpt>
      <trkpt lat="45.28963" lon="3.38676">
        <ele>442.5</ele>
        <time>2021-08-05T16:07:05Z</time>
      </trkpt>
      <trkpt lat="45.28956" lon="3.38684">
        <ele>442.8</ele>
        <time>2021-08-05T16:07:07Z</time>
      </trkpt>
      <trkpt lat="45.28949" lon="3.38693">
        <ele>443.1</ele>
        <time>2021-08-05T16:07:09Z</time>
      </trkpt>
      <trkpt lat="45.28942" lon="3.38701">
        <ele>443.3</ele>
        <time>2021-08-05T16:07:11Z</time>
      </trkpt>
      <trkpt lat="45.28935" lon="3.38709">
        <ele>443.5</ele>
        <time>2021-08-05T16:07:13Z</time>
      </trkpt>
      <trkpt lat="45.28928" lon="3.38717">
        <ele>443.6</ele>
        <time>2021-08-05T16:07:15Z</time>
      </trkpt>
      <trkpt lat="45.28921" lon="3.38725">
        <ele>443.7</ele>
        <time>2021-08-05T16:07:17Z</time>
      </trkpt>
      <trkpt lat="45.28915" lon="3.38733">
        <ele>443.7</ele>
        <time>2021-08-05T16:07:19Z</time>
      </trkpt>
      <trkpt lat="45.28908" lon="3.38741">
        <ele>443.6</ele>
        <time>2021-08-05T16:07:21Z</time>
      </trkpt>
      <trkpt lat="45.28902" lon="3.38749">
        <ele>443.4</ele>
        <time>2021-08-05T16:07:23Z</time>
      </trkpt>
      <trkpt lat="45.28895" lon="3.38757">
        <ele>443.3</ele>
        <time>2021-08-05T16:07:25Z</time>
      </trkpt>
      <trkpt lat="45.28888" lon="3.38765">
        <ele>443.3</ele>
        <time>2021-08-05T16:07:27Z</time>
      </trkpt>
      <trkpt lat="45.28881" lon="3.38774">
        <ele>443.1</ele>
        <time>2021-08-05T16:07:29Z</time>
      </trkpt>
      <trkpt lat="45.28874" lon="3.38782">
        <ele>442.9</ele>
        <time>2021-08-05T16:07:31Z</time>
      </trkpt>
      <trkpt lat="45.28867" lon="3.38791">
        <ele>442.5</ele>
        <time>2021-08-05T16:07:33Z</time>
      </trkpt>
      <trkpt lat="45.28859" lon="3.388">
        <ele>442.1</ele>
        <time>2021-08-05T16:07:35Z</time>
      </trkpt>
      <trkpt lat="45.28851" lon="3.3881">
        <ele>441.6</ele>
        <time>2021-08-05T16:07:37Z</time>
      </trkpt>
      <trkpt lat="45.28843" lon="3.38819">
        <ele>441</ele>
        <time>2021-08-05T16:07:39Z</time>
      </trkpt>
      <trkpt lat="45.28834" lon="3.3883">
        <ele>440.2</ele>
        <time>2021-08-05T16:07:41Z</time>
      </trkpt>
      <trkpt lat="45.28825" lon="3.3884">
        <ele>439.5</ele>
        <time>2021-08-05T16:07:43Z</time>
      </trkpt>
      <trkpt lat="45.28814" lon="3.38851">
        <ele>438.8</ele>
        <time>2021-08-05T16:07:45Z</time>
      </trkpt>
      <trkpt lat="45.28803" lon="3.38862">
        <ele>437.9</ele>
        <time>2021-08-05T16:07:47Z</time>
      </trkpt>
      <trkpt lat="45.28791" lon="3.38872">
        <ele>437</ele>
        <time>2021-08-05T16:07:49Z</time>
      </trkpt>
      <trkpt lat="45.28778" lon="3.38881">
        <ele>436</ele>
        <time>2021-08-05T16:07:51Z</time>
      </trkpt>
      <trkpt lat="45.28766" lon="3.38888">
        <ele>434.9</ele>
        <time>2021-08-05T16:07:53Z</time>
      </trkpt>
      <trkpt lat="45.28754" lon="3.38894">
        <ele>433.8</ele>
        <time>2021-08-05T16:07:55Z</time>
      </trkpt>
      <trkpt lat="45.28741" lon="3.38901">
        <ele>433.7</ele>
        <time>2021-08-05T16:07:57Z</time>
      </trkpt>
      <trkpt lat="45.2873" lon="3.38906">
        <ele>434.1</ele>
        <time>2021-08-05T16:07:59Z</time>
      </trkpt>
      <trkpt lat="45.28718" lon="3.38912">
        <ele>434.6</ele>
        <time>2021-08-05T16:08:01Z</time>
      </trkpt>
      <trkpt lat="45.28706" lon="3.38917">
        <ele>435.1</ele>
        <time>2021-08-05T16:08:03Z</time>
      </trkpt>
      <trkpt lat="45.28695" lon="3.38923">
        <ele>435.7</ele>
        <time>2021-08-05T16:08:05Z</time>
      </trkpt>
      <trkpt lat="45.28683" lon="3.38928">
        <ele>436.3</ele>
        <time>2021-08-05T16:08:07Z</time>
      </trkpt>
      <trkpt lat="45.28672" lon="3.38933">
        <ele>436.9</ele>
        <time>2021-08-05T16:08:09Z</time>
      </trkpt>
      <trkpt lat="45.28661" lon="3.38939">
        <ele>437.6</ele>
        <time>2021-08-05T16:08:11Z</time>
      </trkpt>
      <trkpt lat="45.28649" lon="3.38945">
        <ele>438.4</ele>
        <time>2021-08-05T16:08:13Z</time>
      </trkpt>
      <trkpt lat="45.28639" lon="3.3895">
        <ele>439.1</ele>
        <time>2021-08-05T16:08:15Z</time>
      </trkpt>
      <trkpt lat="45.28628" lon="3.38955">
        <ele>439.8</ele>
        <time>2021-08-05T16:08:17Z</time>
      </trkpt>
      <trkpt lat="45.28618" lon="3.38959">
        <ele>440.4</ele>
        <time>2021-08-05T16:08:19Z</time>
      </trkpt>
      <trkpt lat="45.28609" lon="3.38964">
        <ele>441</ele>
        <time>2021-08-05T16:08:21Z</time>
      </trkpt>
      <trkpt lat="45.28601" lon="3.38968">
        <ele>441.6</ele>
        <time>2021-08-05T16:08:23Z</time>
      </trkpt>
      <trkpt lat="45.28593" lon="3.38972">
        <ele>442.1</ele>
        <time>2021-08-05T16:08:25Z</time>
      </trkpt>
      <trkpt lat="45.28586" lon="3.38975">
        <ele>442.5</ele>
        <time>2021-08-05T16:08:27Z</time>
      </trkpt>
      <trkpt lat="45.28579" lon="3.38978">
        <ele>443</ele>
        <time>2021-08-05T16:08:29Z</time>
      </trkpt>
      <trkpt lat="45.28574" lon="3.38981">
        <ele>443.4</ele>
        <time>2021-08-05T16:08:31Z</time>
      </trkpt>
      <trkpt lat="45.28567" lon="3.38984">
        <ele>443.8</ele>
        <time>2021-08-05T16:08:33Z</time>
      </trkpt>
      <trkpt lat="45.28561" lon="3.38987">
        <ele>444.2</ele>
        <time>2021-08-05T16:08:35Z</time>
      </trkpt>
      <trkpt lat="45.28555" lon="3.3899">
        <ele>444.6</ele>
        <time>2021-08-05T16:08:37Z</time>
      </trkpt>
      <trkpt lat="45.28548" lon="3.38993">
        <ele>445</ele>
        <time>2021-08-05T16:08:39Z</time>
      </trkpt>
      <trkpt lat="45.28542" lon="3.38996">
        <ele>445.4</ele>
        <time>2021-08-05T16:08:41Z</time>
      </trkpt>
      <trkpt lat="45.28536" lon="3.38999">
        <ele>445.8</ele>
        <time>2021-08-05T16:08:43Z</time>
      </trkpt>
      <trkpt lat="45.2853" lon="3.39002">
        <ele>446.2</ele>
        <time>2021-08-05T16:08:45Z</time>
      </trkpt>
      <trkpt lat="45.28524" lon="3.39005">
        <ele>446.6</ele>
        <time>2021-08-05T16:08:47Z</time>
      </trkpt>
      <trkpt lat="45.28518" lon="3.39008">
        <ele>447</ele>
        <time>2021-08-05T16:08:49Z</time>
      </trkpt>
      <trkpt lat="45.28512" lon="3.39011">
        <ele>447.4</ele>
        <time>2021-08-05T16:08:51Z</time>
      </trkpt>
      <trkpt lat="45.28506" lon="3.39014">
        <ele>447.8</ele>
        <time>2021-08-05T16:08:53Z</time>
      </trkpt>
      <trkpt lat="45.285" lon="3.39018">
        <ele>448.2</ele>
        <time>2021-08-05T16:08:55Z</time>
      </trkpt>
      <trkpt lat="45.28493" lon="3.3902">
        <ele>448.8</ele>
        <time>2021-08-05T16:08:57Z</time>
      </trkpt>
      <trkpt lat="45.28487" lon="3.39023">
        <ele>449.3</ele>
        <time>2021-08-05T16:08:59Z</time>
      </trkpt>
      <trkpt lat="45.28482" lon="3.39026">
        <ele>449.7</ele>
        <time>2021-08-05T16:09:01Z</time>
      </trkpt>
      <trkpt lat="45.28477" lon="3.39029">
        <ele>450.1</ele>
        <time>2021-08-05T16:09:03Z</time>
      </trkpt>
      <trkpt lat="45.28472" lon="3.39031">
        <ele>450.5</ele>
        <time>2021-08-05T16:09:05Z</time>
      </trkpt>
      <trkpt lat="45.28467" lon="3.39034">
        <ele>450.9</ele>
        <time>2021-08-05T16:09:07Z</time>
      </trkpt>
      <trkpt lat="45.28461" lon="3.39036">
        <ele>451.3</ele>
        <time>2021-08-05T16:09:09Z</time>
      </trkpt>
      <trkpt lat="45.28456" lon="3.39039">
        <ele>451.7</ele>
        <time>2021-08-05T16:09:11Z</time>
      </trkpt>
      <trkpt lat="45.28451" lon="3.39041">
        <ele>452</ele>
        <time>2021-08-05T16:09:13Z</time>
      </trkpt>
      <trkpt lat="45.28446" lon="3.39044">
        <ele>452.4</ele>
        <time>2021-08-05T16:09:15Z</time>
      </trkpt>
      <trkpt lat="45.28442" lon="3.39046">
        <ele>452.7</ele>
        <time>2021-08-05T16:09:17Z</time>
      </trkpt>
      <trkpt lat="45.28437" lon="3.39049">
        <ele>453</ele>
        <time>2021-08-05T16:09:19Z</time>
      </trkpt>
      <trkpt lat="45.28431" lon="3.39051">
        <ele>453.4</ele>
        <time>2021-08-05T16:09:21Z</time>
      </trkpt>
      <trkpt lat="45.28426" lon="3.39054">
        <ele>453.7</ele>
        <time>2021-08-05T16:09:23Z</time>
      </trkpt>
      <trkpt lat="45.28422" lon="3.39056">
        <ele>454</ele>
        <time>2021-08-05T16:09:25Z</time>
      </trkpt>
      <trkpt lat="45.28417" lon="3.39058">
        <ele>454.3</ele>
        <time>2021-08-05T16:09:27Z</time>
      </trkpt>
      <trkpt lat="45.28412" lon="3.3906">
        <ele>454.4</ele>
        <time>2021-08-05T16:09:29Z</time>
      </trkpt>
      <trkpt lat="45.28407" lon="3.39063">
        <ele>454.6</ele>
        <time>2021-08-05T16:09:31Z</time>
      </trkpt>
      <trkpt lat="45.28403" lon="3.39064">
        <ele>454.7</ele>
        <time>2021-08-05T16:09:33Z</time>
      </trkpt>
      <trkpt lat="45.28398" lon="3.39065">
        <ele>454.9</ele>
        <time>2021-08-05T16:09:35Z</time>
      </trkpt>
      <trkpt lat="45.28394" lon="3.39065">
        <ele>455</ele>
        <time>2021-08-05T16:09:37Z</time>
      </trkpt>
      <trkpt lat="45.2839" lon="3.39065">
        <ele>455.2</ele>
        <time>2021-08-05T16:09:39Z</time>
      </trkpt>
      <trkpt lat="45.28385" lon="3.39065">
        <ele>455.4</ele>
        <time>2021-08-05T16:09:41Z</time>
      </trkpt>
      <trkpt lat="45.28381" lon="3.39063">
        <ele>455.5</ele>
        <time>2021-08-05T16:09:43Z</time>
      </trkpt>
      <trkpt lat="45.28377" lon="3.39063">
        <ele>455.7</ele>
        <time>2021-08-05T16:09:45Z</time>
      </trkpt>
      <trkpt lat="45.28372" lon="3.39065">
        <ele>455.8</ele>
        <time>2021-08-05T16:09:47Z</time>
      </trkpt>
      <trkpt lat="45.28368" lon="3.39069">
        <ele>455.9</ele>
        <time>2021-08-05T16:09:49Z</time>
      </trkpt>
      <trkpt lat="45.28364" lon="3.39072">
        <ele>456</ele>
        <time>2021-08-05T16:09:51Z</time>
      </trkpt>
      <trkpt lat="45.28361" lon="3.39077">
        <ele>456.1</ele>
        <time>2021-08-05T16:09:53Z</time>
      </trkpt>
      <trkpt lat="45.28355" lon="3.3908">
        <ele>456.3</ele>
        <time>2021-08-05T16:09:55Z</time>
      </trkpt>
      <trkpt lat="45.2835" lon="3.39082">
        <ele>456.4</ele>
        <time>2021-08-05T16:09:57Z</time>
      </trkpt>
      <trkpt lat="45.28345" lon="3.39082">
        <ele>456.6</ele>
        <time>2021-08-05T16:09:59Z</time>
      </trkpt>
      <trkpt lat="45.28339" lon="3.39082">
        <ele>456.8</ele>
        <time>2021-08-05T16:10:01Z</time>
      </trkpt>
      <trkpt lat="45.28334" lon="3.39083">
        <ele>457</ele>
        <time>2021-08-05T16:10:03Z</time>
      </trkpt>
      <trkpt lat="45.28328" lon="3.39083">
        <ele>456.9</ele>
        <time>2021-08-05T16:10:05Z</time>
      </trkpt>
      <trkpt lat="45.28323" lon="3.39084">
        <ele>456.9</ele>
        <time>2021-08-05T16:10:07Z</time>
      </trkpt>
      <trkpt lat="45.28319" lon="3.39085">
        <ele>456.8</ele>
        <time>2021-08-05T16:10:09Z</time>
      </trkpt>
      <trkpt lat="45.28313" lon="3.39086">
        <ele>456.8</ele>
        <time>2021-08-05T16:10:11Z</time>
      </trkpt>
      <trkpt lat="45.28308" lon="3.39087">
        <ele>456.7</ele>
        <time>2021-08-05T16:10:13Z</time>
      </trkpt>
      <trkpt lat="45.28303" lon="3.39088">
        <ele>456.7</ele>
        <time>2021-08-05T16:10:15Z</time>
      </trkpt>
      <trkpt lat="45.28298" lon="3.39089">
        <ele>456.6</ele>
        <time>2021-08-05T16:10:17Z</time>
      </trkpt>
      <trkpt lat="45.28292" lon="3.3909">
        <ele>456.5</ele>
        <time>2021-08-05T16:10:19Z</time>
      </trkpt>
      <trkpt lat="45.28287" lon="3.3909">
        <ele>456.4</ele>
        <time>2021-08-05T16:10:21Z</time>
      </trkpt>
      <trkpt lat="45.28281" lon="3.39091">
        <ele>456.4</ele>
        <time>2021-08-05T16:10:23Z</time>
      </trkpt>
      <trkpt lat="45.28275" lon="3.39092">
        <ele>456.3</ele>
        <time>2021-08-05T16:10:25Z</time>
      </trkpt>
      <trkpt lat="45.28269" lon="3.39093">
        <ele>456.2</ele>
        <time>2021-08-05T16:10:27Z</time>
      </trkpt>
      <trkpt lat="45.28262" lon="3.39095">
        <ele>456.1</ele>
        <time>2021-08-05T16:10:29Z</time>
      </trkpt>
      <trkpt lat="45.28256" lon="3.39095">
        <ele>456</ele>
        <time>2021-08-05T16:10:31Z</time>
      </trkpt>
      <trkpt lat="45.28251" lon="3.39097">
        <ele>455.8</ele>
        <time>2021-08-05T16:10:33Z</time>
      </trkpt>
      <trkpt lat="45.28245" lon="3.39099">
        <ele>455.9</ele>
        <time>2021-08-05T16:10:35Z</time>
      </trkpt>
      <trkpt lat="45.28239" lon="3.391">
        <ele>455.9</ele>
        <time>2021-08-05T16:10:37Z</time>
      </trkpt>
      <trkpt lat="45.28233" lon="3.39102">
        <ele>455.9</ele>
        <time>2021-08-05T16:10:39Z</time>
      </trkpt>
      <trkpt lat="45.28227" lon="3.39105">
        <ele>455.9</ele>
        <time>2021-08-05T16:10:41Z</time>
      </trkpt>
      <trkpt lat="45.2822" lon="3.39106">
        <ele>455.9</ele>
        <time>2021-08-05T16:10:43Z</time>
      </trkpt>
      <trkpt lat="45.28214" lon="3.39109">
        <ele>455.9</ele>
        <time>2021-08-05T16:10:45Z</time>
      </trkpt>
      <trkpt lat="45.28207" lon="3.3911">
        <ele>455.9</ele>
        <time>2021-08-05T16:10:47Z</time>
      </trkpt>
      <trkpt lat="45.28201" lon="3.39113">
        <ele>455.8</ele>
        <time>2021-08-05T16:10:49Z</time>
      </trkpt>
      <trkpt lat="45.28193" lon="3.39115">
        <ele>455.8</ele>
        <time>2021-08-05T16:10:51Z</time>
      </trkpt>
      <trkpt lat="45.28186" lon="3.39118">
        <ele>455.7</ele>
        <time>2021-08-05T16:10:53Z</time>
      </trkpt>
      <trkpt lat="45.28178" lon="3.3912">
        <ele>455.7</ele>
        <time>2021-08-05T16:10:55Z</time>
      </trkpt>
      <trkpt lat="45.28171" lon="3.39123">
        <ele>455.6</ele>
        <time>2021-08-05T16:10:57Z</time>
      </trkpt>
      <trkpt lat="45.28164" lon="3.39125">
        <ele>455.4</ele>
        <time>2021-08-05T16:10:59Z</time>
      </trkpt>
      <trkpt lat="45.28156" lon="3.39128">
        <ele>455.2</ele>
        <time>2021-08-05T16:11:01Z</time>
      </trkpt>
      <trkpt lat="45.28149" lon="3.3913">
        <ele>455</ele>
        <time>2021-08-05T16:11:03Z</time>
      </trkpt>
      <trkpt lat="45.28141" lon="3.39133">
        <ele>454.8</ele>
        <time>2021-08-05T16:11:05Z</time>
      </trkpt>
      <trkpt lat="45.28134" lon="3.39136">
        <ele>454.6</ele>
        <time>2021-08-05T16:11:07Z</time>
      </trkpt>
      <trkpt lat="45.28127" lon="3.39139">
        <ele>454.4</ele>
        <time>2021-08-05T16:11:09Z</time>
      </trkpt>
      <trkpt lat="45.28119" lon="3.39142">
        <ele>454.2</ele>
        <time>2021-08-05T16:11:11Z</time>
      </trkpt>
      <trkpt lat="45.28112" lon="3.39145">
        <ele>453.9</ele>
        <time>2021-08-05T16:11:13Z</time>
      </trkpt>
      <trkpt lat="45.28104" lon="3.39149">
        <ele>453.7</ele>
        <time>2021-08-05T16:11:15Z</time>
      </trkpt>
      <trkpt lat="45.28097" lon="3.39153">
        <ele>453.5</ele>
        <time>2021-08-05T16:11:17Z</time>
      </trkpt>
      <trkpt lat="45.2809" lon="3.39157">
        <ele>453.3</ele>
        <time>2021-08-05T16:11:19Z</time>
      </trkpt>
      <trkpt lat="45.28082" lon="3.39162">
        <ele>453.1</ele>
        <time>2021-08-05T16:11:21Z</time>
      </trkpt>
      <trkpt lat="45.28075" lon="3.39166">
        <ele>453</ele>
        <time>2021-08-05T16:11:23Z</time>
      </trkpt>
      <trkpt lat="45.28067" lon="3.39169">
        <ele>453</ele>
        <time>2021-08-05T16:11:25Z</time>
      </trkpt>
      <trkpt lat="45.2806" lon="3.39173">
        <ele>452.9</ele>
        <time>2021-08-05T16:11:27Z</time>
      </trkpt>
      <trkpt lat="45.28054" lon="3.39176">
        <ele>452.9</ele>
        <time>2021-08-05T16:11:29Z</time>
      </trkpt>
      <trkpt lat="45.28047" lon="3.39181">
        <ele>452.9</ele>
        <time>2021-08-05T16:11:31Z</time>
      </trkpt>
      <trkpt lat="45.28039" lon="3.39185">
        <ele>452.9</ele>
        <time>2021-08-05T16:11:33Z</time>
      </trkpt>
      <trkpt lat="45.28032" lon="3.39189">
        <ele>452.9</ele>
        <time>2021-08-05T16:11:35Z</time>
      </trkpt>
      <trkpt lat="45.28026" lon="3.39194">
        <ele>452.9</ele>
        <time>2021-08-05T16:11:37Z</time>
      </trkpt>
      <trkpt lat="45.28018" lon="3.39198">
        <ele>452.9</ele>
        <time>2021-08-05T16:11:39Z</time>
      </trkpt>
      <trkpt lat="45.28011" lon="3.39202">
        <ele>452.9</ele>
        <time>2021-08-05T16:11:41Z</time>
      </trkpt>
      <trkpt lat="45.28003" lon="3.39207">
        <ele>453</ele>
        <time>2021-08-05T16:11:43Z</time>
      </trkpt>
      <trkpt lat="45.27996" lon="3.39212">
        <ele>453.1</ele>
        <time>2021-08-05T16:11:45Z</time>
      </trkpt>
      <trkpt lat="45.2799" lon="3.39215">
        <ele>453.3</ele>
        <time>2021-08-05T16:11:47Z</time>
      </trkpt>
      <trkpt lat="45.27984" lon="3.3922">
        <ele>453.6</ele>
        <time>2021-08-05T16:11:49Z</time>
      </trkpt>
      <trkpt lat="45.27978" lon="3.39224">
        <ele>453.8</ele>
        <time>2021-08-05T16:11:51Z</time>
      </trkpt>
      <trkpt lat="45.27971" lon="3.39228">
        <ele>454</ele>
        <time>2021-08-05T16:11:53Z</time>
      </trkpt>
      <trkpt lat="45.27964" lon="3.39232">
        <ele>454.3</ele>
        <time>2021-08-05T16:11:55Z</time>
      </trkpt>
      <trkpt lat="45.27958" lon="3.39236">
        <ele>454.5</ele>
        <time>2021-08-05T16:11:57Z</time>
      </trkpt>
      <trkpt lat="45.27951" lon="3.39241">
        <ele>454.7</ele>
        <time>2021-08-05T16:11:59Z</time>
      </trkpt>
      <trkpt lat="45.27945" lon="3.39244">
        <ele>455</ele>
        <time>2021-08-05T16:12:01Z</time>
      </trkpt>
      <trkpt lat="45.27938" lon="3.39247">
        <ele>455.2</ele>
        <time>2021-08-05T16:12:03Z</time>
      </trkpt>
      <trkpt lat="45.27932" lon="3.39252">
        <ele>455.5</ele>
        <time>2021-08-05T16:12:05Z</time>
      </trkpt>
      <trkpt lat="45.27926" lon="3.39256">
        <ele>455.7</ele>
        <time>2021-08-05T16:12:07Z</time>
      </trkpt>
      <trkpt lat="45.27919" lon="3.3926">
        <ele>455.9</ele>
        <time>2021-08-05T16:12:09Z</time>
      </trkpt>
      <trkpt lat="45.27913" lon="3.39264">
        <ele>456.1</ele>
        <time>2021-08-05T16:12:11Z</time>
      </trkpt>
      <trkpt lat="45.27906" lon="3.39268">
        <ele>456.2</ele>
        <time>2021-08-05T16:12:13Z</time>
      </trkpt>
      <trkpt lat="45.279" lon="3.39273">
        <ele>456.4</ele>
        <time>2021-08-05T16:12:15Z</time>
      </trkpt>
      <trkpt lat="45.27893" lon="3.39277">
        <ele>456.6</ele>
        <time>2021-08-05T16:12:17Z</time>
      </trkpt>
      <trkpt lat="45.27887" lon="3.39282">
        <ele>456.7</ele>
        <time>2021-08-05T16:12:19Z</time>
      </trkpt>
      <trkpt lat="45.27881" lon="3.39286">
        <ele>456.9</ele>
        <time>2021-08-05T16:12:21Z</time>
      </trkpt>
      <trkpt lat="45.27874" lon="3.3929">
        <ele>457</ele>
        <time>2021-08-05T16:12:23Z</time>
      </trkpt>
      <trkpt lat="45.27867" lon="3.39294">
        <ele>457.2</ele>
        <time>2021-08-05T16:12:25Z</time>
      </trkpt>
      <trkpt lat="45.27861" lon="3.39298">
        <ele>457.3</ele>
        <time>2021-08-05T16:12:27Z</time>
      </trkpt>
      <trkpt lat="45.27854" lon="3.39302">
        <ele>457.5</ele>
        <time>2021-08-05T16:12:29Z</time>
      </trkpt>
      <trkpt lat="45.27848" lon="3.39305">
        <ele>457.6</ele>
        <time>2021-08-05T16:12:31Z</time>
      </trkpt>
      <trkpt lat="45.27842" lon="3.39309">
        <ele>457.8</ele>
        <time>2021-08-05T16:12:33Z</time>
      </trkpt>
      <trkpt lat="45.27835" lon="3.39313">
        <ele>458</ele>
        <time>2021-08-05T16:12:35Z</time>
      </trkpt>
      <trkpt lat="45.27828" lon="3.39318">
        <ele>458.1</ele>
        <time>2021-08-05T16:12:37Z</time>
      </trkpt>
      <trkpt lat="45.27821" lon="3.39322">
        <ele>458.3</ele>
        <time>2021-08-05T16:12:39Z</time>
      </trkpt>
      <trkpt lat="45.27814" lon="3.39327">
        <ele>458.5</ele>
        <time>2021-08-05T16:12:41Z</time>
      </trkpt>
      <trkpt lat="45.27807" lon="3.39331">
        <ele>458.6</ele>
        <time>2021-08-05T16:12:43Z</time>
      </trkpt>
      <trkpt lat="45.278" lon="3.39335">
        <ele>458.8</ele>
        <time>2021-08-05T16:12:45Z</time>
      </trkpt>
      <trkpt lat="45.27793" lon="3.39339">
        <ele>458.9</ele>
        <time>2021-08-05T16:12:47Z</time>
      </trkpt>
      <trkpt lat="45.27786" lon="3.39344">
        <ele>458.9</ele>
        <time>2021-08-05T16:12:49Z</time>
      </trkpt>
      <trkpt lat="45.2778" lon="3.39349">
        <ele>459</ele>
        <time>2021-08-05T16:12:51Z</time>
      </trkpt>
      <trkpt lat="45.27773" lon="3.39354">
        <ele>459</ele>
        <time>2021-08-05T16:12:53Z</time>
      </trkpt>
      <trkpt lat="45.27766" lon="3.39358">
        <ele>459.1</ele>
        <time>2021-08-05T16:12:55Z</time>
      </trkpt>
      <trkpt lat="45.27759" lon="3.39363">
        <ele>459.1</ele>
        <time>2021-08-05T16:12:57Z</time>
      </trkpt>
      <trkpt lat="45.27753" lon="3.39368">
        <ele>459.1</ele>
        <time>2021-08-05T16:12:59Z</time>
      </trkpt>
      <trkpt lat="45.27746" lon="3.39373">
        <ele>459.1</ele>
        <time>2021-08-05T16:13:01Z</time>
      </trkpt>
      <trkpt lat="45.27739" lon="3.39378">
        <ele>459.2</ele>
        <time>2021-08-05T16:13:03Z</time>
      </trkpt>
      <trkpt lat="45.27733" lon="3.39382">
        <ele>459.3</ele>
        <time>2021-08-05T16:13:05Z</time>
      </trkpt>
      <trkpt lat="45.27726" lon="3.39386">
        <ele>459.4</ele>
        <time>2021-08-05T16:13:07Z</time>
      </trkpt>
      <trkpt lat="45.27719" lon="3.39392">
        <ele>459.5</ele>
        <time>2021-08-05T16:13:09Z</time>
      </trkpt>
      <trkpt lat="45.27713" lon="3.39396">
        <ele>459.6</ele>
        <time>2021-08-05T16:13:11Z</time>
      </trkpt>
      <trkpt lat="45.27706" lon="3.39401">
        <ele>459.8</ele>
        <time>2021-08-05T16:13:13Z</time>
      </trkpt>
      <trkpt lat="45.277" lon="3.39405">
        <ele>459.9</ele>
        <time>2021-08-05T16:13:15Z</time>
      </trkpt>
      <trkpt lat="45.27693" lon="3.3941">
        <ele>460.1</ele>
        <time>2021-08-05T16:13:17Z</time>
      </trkpt>
      <trkpt lat="45.27687" lon="3.39414">
        <ele>460.3</ele>
        <time>2021-08-05T16:13:19Z</time>
      </trkpt>
      <trkpt lat="45.2768" lon="3.39419">
        <ele>460.5</ele>
        <time>2021-08-05T16:13:21Z</time>
      </trkpt>
      <trkpt lat="45.27674" lon="3.39423">
        <ele>460.6</ele>
        <time>2021-08-05T16:13:23Z</time>
      </trkpt>
      <trkpt lat="45.27668" lon="3.39428">
        <ele>460.7</ele>
        <time>2021-08-05T16:13:25Z</time>
      </trkpt>
      <trkpt lat="45.27662" lon="3.39432">
        <ele>460.9</ele>
        <time>2021-08-05T16:13:27Z</time>
      </trkpt>
      <trkpt lat="45.27655" lon="3.39437">
        <ele>461</ele>
        <time>2021-08-05T16:13:29Z</time>
      </trkpt>
      <trkpt lat="45.27649" lon="3.39441">
        <ele>461.2</ele>
        <time>2021-08-05T16:13:31Z</time>
      </trkpt>
      <trkpt lat="45.27642" lon="3.39446">
        <ele>461.4</ele>
        <time>2021-08-05T16:13:33Z</time>
      </trkpt>
      <trkpt lat="45.27635" lon="3.39451">
        <ele>461.5</ele>
        <time>2021-08-05T16:13:35Z</time>
      </trkpt>
      <trkpt lat="45.27629" lon="3.39455">
        <ele>461.7</ele>
        <time>2021-08-05T16:13:37Z</time>
      </trkpt>
      <trkpt lat="45.27622" lon="3.3946">
        <ele>461.8</ele>
        <time>2021-08-05T16:13:39Z</time>
      </trkpt>
      <trkpt lat="45.27616" lon="3.39465">
        <ele>461.9</ele>
        <time>2021-08-05T16:13:41Z</time>
      </trkpt>
      <trkpt lat="45.27609" lon="3.3947">
        <ele>462.1</ele>
        <time>2021-08-05T16:13:43Z</time>
      </trkpt>
      <trkpt lat="45.27603" lon="3.39474">
        <ele>462.2</ele>
        <time>2021-08-05T16:13:45Z</time>
      </trkpt>
      <trkpt lat="45.27596" lon="3.39479">
        <ele>462.3</ele>
        <time>2021-08-05T16:13:47Z</time>
      </trkpt>
      <trkpt lat="45.2759" lon="3.39483">
        <ele>462.4</ele>
        <time>2021-08-05T16:13:49Z</time>
      </trkpt>
      <trkpt lat="45.27583" lon="3.39487">
        <ele>462.5</ele>
        <time>2021-08-05T16:13:51Z</time>
      </trkpt>
      <trkpt lat="45.27576" lon="3.39492">
        <ele>462.4</ele>
        <time>2021-08-05T16:13:53Z</time>
      </trkpt>
      <trkpt lat="45.27569" lon="3.39497">
        <ele>462.4</ele>
        <time>2021-08-05T16:13:55Z</time>
      </trkpt>
      <trkpt lat="45.27562" lon="3.39502">
        <ele>462.5</ele>
        <time>2021-08-05T16:13:57Z</time>
      </trkpt>
      <trkpt lat="45.27556" lon="3.39506">
        <ele>462.5</ele>
        <time>2021-08-05T16:13:59Z</time>
      </trkpt>
      <trkpt lat="45.27549" lon="3.39511">
        <ele>462.5</ele>
        <time>2021-08-05T16:14:01Z</time>
      </trkpt>
      <trkpt lat="45.27542" lon="3.39515">
        <ele>462.5</ele>
        <time>2021-08-05T16:14:03Z</time>
      </trkpt>
      <trkpt lat="45.27535" lon="3.3952">
        <ele>462.5</ele>
        <time>2021-08-05T16:14:05Z</time>
      </trkpt>
      <trkpt lat="45.27529" lon="3.39524">
        <ele>462.5</ele>
        <time>2021-08-05T16:14:07Z</time>
      </trkpt>
      <trkpt lat="45.27523" lon="3.39527">
        <ele>462.6</ele>
        <time>2021-08-05T16:14:09Z</time>
      </trkpt>
      <trkpt lat="45.27517" lon="3.39532">
        <ele>462.5</ele>
        <time>2021-08-05T16:14:11Z</time>
      </trkpt>
      <trkpt lat="45.2751" lon="3.39536">
        <ele>462.5</ele>
        <time>2021-08-05T16:14:13Z</time>
      </trkpt>
      <trkpt lat="45.27504" lon="3.3954">
        <ele>462.5</ele>
        <time>2021-08-05T16:14:15Z</time>
      </trkpt>
      <trkpt lat="45.27497" lon="3.39545">
        <ele>462.4</ele>
        <time>2021-08-05T16:14:17Z</time>
      </trkpt>
      <trkpt lat="45.2749" lon="3.3955">
        <ele>462.3</ele>
        <time>2021-08-05T16:14:19Z</time>
      </trkpt>
      <trkpt lat="45.27484" lon="3.39554">
        <ele>462.1</ele>
        <time>2021-08-05T16:14:21Z</time>
      </trkpt>
      <trkpt lat="45.27478" lon="3.3956">
        <ele>461.9</ele>
        <time>2021-08-05T16:14:23Z</time>
      </trkpt>
      <trkpt lat="45.27471" lon="3.39566">
        <ele>461.7</ele>
        <time>2021-08-05T16:14:25Z</time>
      </trkpt>
      <trkpt lat="45.27463" lon="3.39572">
        <ele>461.5</ele>
        <time>2021-08-05T16:14:27Z</time>
      </trkpt>
      <trkpt lat="45.27455" lon="3.39578">
        <ele>461.2</ele>
        <time>2021-08-05T16:14:29Z</time>
      </trkpt>
      <trkpt lat="45.27447" lon="3.39584">
        <ele>461</ele>
        <time>2021-08-05T16:14:31Z</time>
      </trkpt>
      <trkpt lat="45.27439" lon="3.3959">
        <ele>460.9</ele>
        <time>2021-08-05T16:14:33Z</time>
      </trkpt>
      <trkpt lat="45.27431" lon="3.39595">
        <ele>460.8</ele>
        <time>2021-08-05T16:14:35Z</time>
      </trkpt>
      <trkpt lat="45.27423" lon="3.39601">
        <ele>460.6</ele>
        <time>2021-08-05T16:14:37Z</time>
      </trkpt>
      <trkpt lat="45.27415" lon="3.39607">
        <ele>460.5</ele>
        <time>2021-08-05T16:14:39Z</time>
      </trkpt>
      <trkpt lat="45.27406" lon="3.39613">
        <ele>460.7</ele>
        <time>2021-08-05T16:14:41Z</time>
      </trkpt>
      <trkpt lat="45.27398" lon="3.39619">
        <ele>460.8</ele>
        <time>2021-08-05T16:14:43Z</time>
      </trkpt>
      <trkpt lat="45.2739" lon="3.39625">
        <ele>461</ele>
        <time>2021-08-05T16:14:45Z</time>
      </trkpt>
      <trkpt lat="45.27381" lon="3.3963">
        <ele>461.1</ele>
        <time>2021-08-05T16:14:47Z</time>
      </trkpt>
      <trkpt lat="45.27374" lon="3.39636">
        <ele>461.3</ele>
        <time>2021-08-05T16:14:49Z</time>
      </trkpt>
      <trkpt lat="45.27366" lon="3.39641">
        <ele>461.5</ele>
        <time>2021-08-05T16:14:51Z</time>
      </trkpt>
      <trkpt lat="45.27358" lon="3.39646">
        <ele>461.6</ele>
        <time>2021-08-05T16:14:53Z</time>
      </trkpt>
      <trkpt lat="45.27349" lon="3.39652">
        <ele>461.8</ele>
        <time>2021-08-05T16:14:55Z</time>
      </trkpt>
      <trkpt lat="45.27341" lon="3.39657">
        <ele>461.9</ele>
        <time>2021-08-05T16:14:57Z</time>
      </trkpt>
      <trkpt lat="45.27334" lon="3.39663">
        <ele>462.1</ele>
        <time>2021-08-05T16:14:59Z</time>
      </trkpt>
      <trkpt lat="45.27326" lon="3.39668">
        <ele>462.3</ele>
        <time>2021-08-05T16:15:01Z</time>
      </trkpt>
      <trkpt lat="45.27318" lon="3.39674">
        <ele>462.6</ele>
        <time>2021-08-05T16:15:03Z</time>
      </trkpt>
      <trkpt lat="45.2731" lon="3.39679">
        <ele>463</ele>
        <time>2021-08-05T16:15:05Z</time>
      </trkpt>
      <trkpt lat="45.27302" lon="3.39685">
        <ele>463.3</ele>
        <time>2021-08-05T16:15:07Z</time>
      </trkpt>
      <trkpt lat="45.27295" lon="3.39691">
        <ele>463.6</ele>
        <time>2021-08-05T16:15:09Z</time>
      </trkpt>
      <trkpt lat="45.27287" lon="3.39696">
        <ele>463.9</ele>
        <time>2021-08-05T16:15:11Z</time>
      </trkpt>
      <trkpt lat="45.27279" lon="3.39702">
        <ele>464.2</ele>
        <time>2021-08-05T16:15:13Z</time>
      </trkpt>
      <trkpt lat="45.27271" lon="3.39707">
        <ele>464.5</ele>
        <time>2021-08-05T16:15:15Z</time>
      </trkpt>
      <trkpt lat="45.27263" lon="3.39712">
        <ele>464.8</ele>
        <time>2021-08-05T16:15:17Z</time>
      </trkpt>
      <trkpt lat="45.27256" lon="3.39717">
        <ele>465.1</ele>
        <time>2021-08-05T16:15:19Z</time>
      </trkpt>
      <trkpt lat="45.27248" lon="3.39722">
        <ele>465.3</ele>
        <time>2021-08-05T16:15:21Z</time>
      </trkpt>
      <trkpt lat="45.2724" lon="3.39728">
        <ele>465.3</ele>
        <time>2021-08-05T16:15:23Z</time>
      </trkpt>
      <trkpt lat="45.27232" lon="3.39733">
        <ele>465.2</ele>
        <time>2021-08-05T16:15:25Z</time>
      </trkpt>
      <trkpt lat="45.27225" lon="3.39738">
        <ele>465.2</ele>
        <time>2021-08-05T16:15:27Z</time>
      </trkpt>
      <trkpt lat="45.27217" lon="3.39744">
        <ele>465.1</ele>
        <time>2021-08-05T16:15:29Z</time>
      </trkpt>
      <trkpt lat="45.2721" lon="3.3975">
        <ele>465</ele>
        <time>2021-08-05T16:15:31Z</time>
      </trkpt>
      <trkpt lat="45.27203" lon="3.39755">
        <ele>464.9</ele>
        <time>2021-08-05T16:15:33Z</time>
      </trkpt>
      <trkpt lat="45.27195" lon="3.39761">
        <ele>464.7</ele>
        <time>2021-08-05T16:15:35Z</time>
      </trkpt>
      <trkpt lat="45.27187" lon="3.39766">
        <ele>464.7</ele>
        <time>2021-08-05T16:15:37Z</time>
      </trkpt>
      <trkpt lat="45.27179" lon="3.39771">
        <ele>464.6</ele>
        <time>2021-08-05T16:15:39Z</time>
      </trkpt>
      <trkpt lat="45.27172" lon="3.39777">
        <ele>464.6</ele>
        <time>2021-08-05T16:15:41Z</time>
      </trkpt>
      <trkpt lat="45.27164" lon="3.39783">
        <ele>464.6</ele>
        <time>2021-08-05T16:15:43Z</time>
      </trkpt>
      <trkpt lat="45.27156" lon="3.39789">
        <ele>464.7</ele>
        <time>2021-08-05T16:15:45Z</time>
      </trkpt>
      <trkpt lat="45.27149" lon="3.39795">
        <ele>464.8</ele>
        <time>2021-08-05T16:15:47Z</time>
      </trkpt>
      <trkpt lat="45.27141" lon="3.39801">
        <ele>464.9</ele>
        <time>2021-08-05T16:15:49Z</time>
      </trkpt>
      <trkpt lat="45.27133" lon="3.39807">
        <ele>465</ele>
        <time>2021-08-05T16:15:51Z</time>
      </trkpt>
      <trkpt lat="45.27126" lon="3.39814">
        <ele>465.1</ele>
        <time>2021-08-05T16:15:53Z</time>
      </trkpt>
      <trkpt lat="45.27118" lon="3.39821">
        <ele>465.2</ele>
        <time>2021-08-05T16:15:55Z</time>
      </trkpt>
      <trkpt lat="45.27111" lon="3.39828">
        <ele>465.4</ele>
        <time>2021-08-05T16:15:57Z</time>
      </trkpt>
      <trkpt lat="45.27104" lon="3.39835">
        <ele>465.5</ele>
        <time>2021-08-05T16:15:59Z</time>
      </trkpt>
      <trkpt lat="45.27097" lon="3.39842">
        <ele>465.4</ele>
        <time>2021-08-05T16:16:01Z</time>
      </trkpt>
      <trkpt lat="45.27089" lon="3.3985">
        <ele>465.3</ele>
        <time>2021-08-05T16:16:03Z</time>
      </trkpt>
      <trkpt lat="45.27082" lon="3.39857">
        <ele>465.2</ele>
        <time>2021-08-05T16:16:05Z</time>
      </trkpt>
      <trkpt lat="45.27075" lon="3.39865">
        <ele>465.1</ele>
        <time>2021-08-05T16:16:07Z</time>
      </trkpt>
      <trkpt lat="45.27068" lon="3.39872">
        <ele>465.1</ele>
        <time>2021-08-05T16:16:09Z</time>
      </trkpt>
      <trkpt lat="45.27061" lon="3.3988">
        <ele>465.1</ele>
        <time>2021-08-05T16:16:11Z</time>
      </trkpt>
      <trkpt lat="45.27054" lon="3.39889">
        <ele>465.1</ele>
        <time>2021-08-05T16:16:13Z</time>
      </trkpt>
      <trkpt lat="45.27048" lon="3.39897">
        <ele>465.2</ele>
        <time>2021-08-05T16:16:15Z</time>
      </trkpt>
      <trkpt lat="45.27042" lon="3.39906">
        <ele>465.3</ele>
        <time>2021-08-05T16:16:17Z</time>
      </trkpt>
      <trkpt lat="45.27035" lon="3.39915">
        <ele>465.4</ele>
        <time>2021-08-05T16:16:19Z</time>
      </trkpt>
      <trkpt lat="45.27029" lon="3.39923">
        <ele>465.4</ele>
        <time>2021-08-05T16:16:21Z</time>
      </trkpt>
      <trkpt lat="45.27022" lon="3.39931">
        <ele>465.5</ele>
        <time>2021-08-05T16:16:23Z</time>
      </trkpt>
      <trkpt lat="45.27016" lon="3.3994">
        <ele>465.5</ele>
        <time>2021-08-05T16:16:25Z</time>
      </trkpt>
      <trkpt lat="45.27009" lon="3.39949">
        <ele>465.4</ele>
        <time>2021-08-05T16:16:27Z</time>
      </trkpt>
      <trkpt lat="45.27003" lon="3.39958">
        <ele>465.4</ele>
        <time>2021-08-05T16:16:29Z</time>
      </trkpt>
      <trkpt lat="45.26996" lon="3.39966">
        <ele>465.4</ele>
        <time>2021-08-05T16:16:31Z</time>
      </trkpt>
      <trkpt lat="45.26989" lon="3.39975">
        <ele>465.5</ele>
        <time>2021-08-05T16:16:33Z</time>
      </trkpt>
      <trkpt lat="45.26982" lon="3.39983">
        <ele>465.6</ele>
        <time>2021-08-05T16:16:35Z</time>
      </trkpt>
      <trkpt lat="45.26976" lon="3.3999">
        <ele>465.8</ele>
        <time>2021-08-05T16:16:37Z</time>
      </trkpt>
      <trkpt lat="45.2697" lon="3.39998">
        <ele>465.9</ele>
        <time>2021-08-05T16:16:39Z</time>
      </trkpt>
      <trkpt lat="45.26964" lon="3.40005">
        <ele>466.1</ele>
        <time>2021-08-05T16:16:41Z</time>
      </trkpt>
      <trkpt lat="45.26957" lon="3.40013">
        <ele>466.3</ele>
        <time>2021-08-05T16:16:43Z</time>
      </trkpt>
      <trkpt lat="45.26951" lon="3.4002">
        <ele>466.5</ele>
        <time>2021-08-05T16:16:45Z</time>
      </trkpt>
      <trkpt lat="45.26944" lon="3.40028">
        <ele>466.7</ele>
        <time>2021-08-05T16:16:47Z</time>
      </trkpt>
      <trkpt lat="45.26938" lon="3.40035">
        <ele>466.8</ele>
        <time>2021-08-05T16:16:49Z</time>
      </trkpt>
      <trkpt lat="45.26932" lon="3.40042">
        <ele>466.9</ele>
        <time>2021-08-05T16:16:51Z</time>
      </trkpt>
      <trkpt lat="45.26925" lon="3.40048">
        <ele>466.9</ele>
        <time>2021-08-05T16:16:53Z</time>
      </trkpt>
      <trkpt lat="45.26918" lon="3.40056">
        <ele>467</ele>
        <time>2021-08-05T16:16:55Z</time>
      </trkpt>
      <trkpt lat="45.26911" lon="3.40062">
        <ele>467</ele>
        <time>2021-08-05T16:16:57Z</time>
      </trkpt>
      <trkpt lat="45.26904" lon="3.40068">
        <ele>466.9</ele>
        <time>2021-08-05T16:16:59Z</time>
      </trkpt>
      <trkpt lat="45.26896" lon="3.40075">
        <ele>466.9</ele>
        <time>2021-08-05T16:17:01Z</time>
      </trkpt>
      <trkpt lat="45.26889" lon="3.4008">
        <ele>466.8</ele>
        <time>2021-08-05T16:17:03Z</time>
      </trkpt>
      <trkpt lat="45.26882" lon="3.40086">
        <ele>466.7</ele>
        <time>2021-08-05T16:17:05Z</time>
      </trkpt>
      <trkpt lat="45.26874" lon="3.40092">
        <ele>466.7</ele>
        <time>2021-08-05T16:17:07Z</time>
      </trkpt>
      <trkpt lat="45.26868" lon="3.40097">
        <ele>466.6</ele>
        <time>2021-08-05T16:17:09Z</time>
      </trkpt>
      <trkpt lat="45.26861" lon="3.40102">
        <ele>466.6</ele>
        <time>2021-08-05T16:17:11Z</time>
      </trkpt>
      <trkpt lat="45.26853" lon="3.40106">
        <ele>466.6</ele>
        <time>2021-08-05T16:17:13Z</time>
      </trkpt>
      <trkpt lat="45.26846" lon="3.40111">
        <ele>466.6</ele>
        <time>2021-08-05T16:17:15Z</time>
      </trkpt>
      <trkpt lat="45.2684" lon="3.40115">
        <ele>466.7</ele>
        <time>2021-08-05T16:17:17Z</time>
      </trkpt>
      <trkpt lat="45.26833" lon="3.4012">
        <ele>466.7</ele>
        <time>2021-08-05T16:17:19Z</time>
      </trkpt>
      <trkpt lat="45.26827" lon="3.40125">
        <ele>466.7</ele>
        <time>2021-08-05T16:17:21Z</time>
      </trkpt>
      <trkpt lat="45.2682" lon="3.40129">
        <ele>466.7</ele>
        <time>2021-08-05T16:17:23Z</time>
      </trkpt>
      <trkpt lat="45.26814" lon="3.40134">
        <ele>466.8</ele>
        <time>2021-08-05T16:17:25Z</time>
      </trkpt>
      <trkpt lat="45.26807" lon="3.40139">
        <ele>466.9</ele>
        <time>2021-08-05T16:17:27Z</time>
      </trkpt>
      <trkpt lat="45.268" lon="3.40143">
        <ele>466.9</ele>
        <time>2021-08-05T16:17:29Z</time>
      </trkpt>
      <trkpt lat="45.26792" lon="3.40147">
        <ele>467.1</ele>
        <time>2021-08-05T16:17:31Z</time>
      </trkpt>
      <trkpt lat="45.26785" lon="3.40152">
        <ele>467.2</ele>
        <time>2021-08-05T16:17:33Z</time>
      </trkpt>
      <trkpt lat="45.26778" lon="3.40157">
        <ele>467.3</ele>
        <time>2021-08-05T16:17:35Z</time>
      </trkpt>
      <trkpt lat="45.26771" lon="3.40162">
        <ele>467.4</ele>
        <time>2021-08-05T16:17:37Z</time>
      </trkpt>
      <trkpt lat="45.26764" lon="3.40168">
        <ele>467.5</ele>
        <time>2021-08-05T16:17:39Z</time>
      </trkpt>
      <trkpt lat="45.26757" lon="3.40175">
        <ele>467.5</ele>
        <time>2021-08-05T16:17:41Z</time>
      </trkpt>
      <trkpt lat="45.2675" lon="3.40179">
        <ele>467.5</ele>
        <time>2021-08-05T16:17:43Z</time>
      </trkpt>
      <trkpt lat="45.26743" lon="3.40184">
        <ele>467.2</ele>
        <time>2021-08-05T16:17:45Z</time>
      </trkpt>
      <trkpt lat="45.26736" lon="3.40189">
        <ele>466.8</ele>
        <time>2021-08-05T16:17:47Z</time>
      </trkpt>
      <trkpt lat="45.2673" lon="3.40193">
        <ele>466.6</ele>
        <time>2021-08-05T16:17:49Z</time>
      </trkpt>
      <trkpt lat="45.26726" lon="3.40193">
        <ele>466.5</ele>
        <time>2021-08-05T16:17:51Z</time>
      </trkpt>
      <trkpt lat="45.26725" lon="3.40195">
        <ele>466.4</ele>
        <time>2021-08-05T16:17:53Z</time>
      </trkpt>
      <trkpt lat="45.26724" lon="3.40195">
        <ele>466.4</ele>
        <time>2021-08-05T16:17:55Z</time>
      </trkpt>
      <trkpt lat="45.26724" lon="3.40196">
        <ele>466.4</ele>
        <time>2021-08-05T16:17:57Z</time>
      </trkpt>
      <trkpt lat="45.26724" lon="3.40196">
        <ele>466.3</ele>
        <time>2021-08-05T16:17:59Z</time>
      </trkpt>
      <trkpt lat="45.26724" lon="3.40196">
        <ele>466.3</ele>
        <time>2021-08-05T16:18:01Z</time>
      </trkpt>
      <trkpt lat="45.26724" lon="3.40196">
        <ele>466.3</ele>
        <time>2021-08-05T16:18:03Z</time>
      </trkpt>
      <trkpt lat="45.26709" lon="3.40206">
        <ele>465.8</ele>
        <time>2021-08-05T16:19:59Z</time>
      </trkpt>
      <trkpt lat="45.26702" lon="3.40211">
        <ele>465.6</ele>
        <time>2021-08-05T16:20:01Z</time>
      </trkpt>
      <trkpt lat="45.26695" lon="3.40217">
        <ele>465.4</ele>
        <time>2021-08-05T16:20:03Z</time>
      </trkpt>
      <trkpt lat="45.26687" lon="3.40222">
        <ele>465.2</ele>
        <time>2021-08-05T16:20:05Z</time>
      </trkpt>
      <trkpt lat="45.26678" lon="3.40228">
        <ele>465.1</ele>
        <time>2021-08-05T16:20:07Z</time>
      </trkpt>
      <trkpt lat="45.2667" lon="3.40235">
        <ele>465</ele>
        <time>2021-08-05T16:20:09Z</time>
      </trkpt>
      <trkpt lat="45.2666" lon="3.40241">
        <ele>465.2</ele>
        <time>2021-08-05T16:20:11Z</time>
      </trkpt>
      <trkpt lat="45.26651" lon="3.40247">
        <ele>465.4</ele>
        <time>2021-08-05T16:20:13Z</time>
      </trkpt>
      <trkpt lat="45.26642" lon="3.40254">
        <ele>465.5</ele>
        <time>2021-08-05T16:20:15Z</time>
      </trkpt>
      <trkpt lat="45.26632" lon="3.4026">
        <ele>465.6</ele>
        <time>2021-08-05T16:20:17Z</time>
      </trkpt>
      <trkpt lat="45.26623" lon="3.40268">
        <ele>465.6</ele>
        <time>2021-08-05T16:20:19Z</time>
      </trkpt>
      <trkpt lat="45.26614" lon="3.40275">
        <ele>465.6</ele>
        <time>2021-08-05T16:20:21Z</time>
      </trkpt>
      <trkpt lat="45.26604" lon="3.40282">
        <ele>465.5</ele>
        <time>2021-08-05T16:20:23Z</time>
      </trkpt>
      <trkpt lat="45.26594" lon="3.40288">
        <ele>465.5</ele>
        <time>2021-08-05T16:20:25Z</time>
      </trkpt>
      <trkpt lat="45.26586" lon="3.40295">
        <ele>465.3</ele>
        <time>2021-08-05T16:20:27Z</time>
      </trkpt>
      <trkpt lat="45.26577" lon="3.40303">
        <ele>465.2</ele>
        <time>2021-08-05T16:20:29Z</time>
      </trkpt>
      <trkpt lat="45.26568" lon="3.4031">
        <ele>465.1</ele>
        <time>2021-08-05T16:20:31Z</time>
      </trkpt>
      <trkpt lat="45.26559" lon="3.40318">
        <ele>465</ele>
        <time>2021-08-05T16:20:33Z</time>
      </trkpt>
      <trkpt lat="45.26551" lon="3.40325">
        <ele>465</ele>
        <time>2021-08-05T16:20:35Z</time>
      </trkpt>
      <trkpt lat="45.26542" lon="3.40333">
        <ele>465</ele>
        <time>2021-08-05T16:20:37Z</time>
      </trkpt>
      <trkpt lat="45.26533" lon="3.40339">
        <ele>465.2</ele>
        <time>2021-08-05T16:20:39Z</time>
      </trkpt>
      <trkpt lat="45.26525" lon="3.40347">
        <ele>465.3</ele>
        <time>2021-08-05T16:20:41Z</time>
      </trkpt>
      <trkpt lat="45.26517" lon="3.40354">
        <ele>465.6</ele>
        <time>2021-08-05T16:20:43Z</time>
      </trkpt>
      <trkpt lat="45.26507" lon="3.4036">
        <ele>465.8</ele>
        <time>2021-08-05T16:20:45Z</time>
      </trkpt>
      <trkpt lat="45.26499" lon="3.40368">
        <ele>466</ele>
        <time>2021-08-05T16:20:47Z</time>
      </trkpt>
      <trkpt lat="45.2649" lon="3.40375">
        <ele>466</ele>
        <time>2021-08-05T16:20:49Z</time>
      </trkpt>
      <trkpt lat="45.26481" lon="3.40382">
        <ele>466</ele>
        <time>2021-08-05T16:20:51Z</time>
      </trkpt>
      <trkpt lat="45.26473" lon="3.40388">
        <ele>466</ele>
        <time>2021-08-05T16:20:53Z</time>
      </trkpt>
      <trkpt lat="45.26464" lon="3.40395">
        <ele>466</ele>
        <time>2021-08-05T16:20:55Z</time>
      </trkpt>
      <trkpt lat="45.26456" lon="3.40402">
        <ele>466</ele>
        <time>2021-08-05T16:20:57Z</time>
      </trkpt>
      <trkpt lat="45.26448" lon="3.40409">
        <ele>466</ele>
        <time>2021-08-05T16:20:59Z</time>
      </trkpt>
      <trkpt lat="45.26439" lon="3.40415">
        <ele>466</ele>
        <time>2021-08-05T16:21:01Z</time>
      </trkpt>
      <trkpt lat="45.26432" lon="3.40421">
        <ele>465.8</ele>
        <time>2021-08-05T16:21:03Z</time>
      </trkpt>
      <trkpt lat="45.26424" lon="3.40427">
        <ele>465.5</ele>
        <time>2021-08-05T16:21:05Z</time>
      </trkpt>
      <trkpt lat="45.26416" lon="3.40433">
        <ele>465.2</ele>
        <time>2021-08-05T16:21:07Z</time>
      </trkpt>
      <trkpt lat="45.2641" lon="3.4044">
        <ele>464.8</ele>
        <time>2021-08-05T16:21:09Z</time>
      </trkpt>
      <trkpt lat="45.26402" lon="3.40446">
        <ele>464.4</ele>
        <time>2021-08-05T16:21:11Z</time>
      </trkpt>
      <trkpt lat="45.26395" lon="3.40451">
        <ele>464.1</ele>
        <time>2021-08-05T16:21:13Z</time>
      </trkpt>
      <trkpt lat="45.26387" lon="3.40458">
        <ele>463.7</ele>
        <time>2021-08-05T16:21:15Z</time>
      </trkpt>
      <trkpt lat="45.2638" lon="3.40464">
        <ele>463.4</ele>
        <time>2021-08-05T16:21:17Z</time>
      </trkpt>
      <trkpt lat="45.26371" lon="3.40466">
        <ele>463.2</ele>
        <time>2021-08-05T16:21:19Z</time>
      </trkpt>
      <trkpt lat="45.26365" lon="3.40459">
        <ele>463.4</ele>
        <time>2021-08-05T16:21:21Z</time>
      </trkpt>
      <trkpt lat="45.26363" lon="3.40452">
        <ele>463.6</ele>
        <time>2021-08-05T16:21:23Z</time>
      </trkpt>
      <trkpt lat="45.2636" lon="3.40456">
        <ele>463.4</ele>
        <time>2021-08-05T16:21:25Z</time>
      </trkpt>
      <trkpt lat="45.26362" lon="3.40461">
        <ele>463.3</ele>
        <time>2021-08-05T16:21:27Z</time>
      </trkpt>
      <trkpt lat="45.26362" lon="3.40464">
        <ele>463.2</ele>
        <time>2021-08-05T16:21:29Z</time>
      </trkpt>
      <trkpt lat="45.26363" lon="3.40469">
        <ele>463</ele>
        <time>2021-08-05T16:21:31Z</time>
      </trkpt>
      <trkpt lat="45.26364" lon="3.40472">
        <ele>462.9</ele>
        <time>2021-08-05T16:21:33Z</time>
      </trkpt>
      <trkpt lat="45.26366" lon="3.40472">
        <ele>462.9</ele>
        <time>2021-08-05T16:21:35Z</time>
      </trkpt>
      <trkpt lat="45.26369" lon="3.40474">
        <ele>462.9</ele>
        <time>2021-08-05T16:21:37Z</time>
      </trkpt>
      <trkpt lat="45.26375" lon="3.40472">
        <ele>463</ele>
        <time>2021-08-05T16:21:39Z</time>
      </trkpt>
      <trkpt lat="45.2638" lon="3.4047">
        <ele>463.1</ele>
        <time>2021-08-05T16:21:41Z</time>
      </trkpt>
      <trkpt lat="45.26385" lon="3.4047">
        <ele>463.2</ele>
        <time>2021-08-05T16:21:43Z</time>
      </trkpt>
      <trkpt lat="45.26389" lon="3.40474">
        <ele>463</ele>
        <time>2021-08-05T16:21:45Z</time>
      </trkpt>
      <trkpt lat="45.26391" lon="3.40481">
        <ele>462.8</ele>
        <time>2021-08-05T16:21:47Z</time>
      </trkpt>
      <trkpt lat="45.26393" lon="3.40487">
        <ele>462.6</ele>
        <time>2021-08-05T16:21:49Z</time>
      </trkpt>
      <trkpt lat="45.26398" lon="3.40492">
        <ele>462.3</ele>
        <time>2021-08-05T16:21:51Z</time>
      </trkpt>
      <trkpt lat="45.26404" lon="3.40497">
        <ele>462.1</ele>
        <time>2021-08-05T16:21:53Z</time>
      </trkpt>
      <trkpt lat="45.26409" lon="3.40498">
        <ele>462.1</ele>
        <time>2021-08-05T16:21:55Z</time>
      </trkpt>
      <trkpt lat="45.26414" lon="3.40497">
        <ele>462.1</ele>
        <time>2021-08-05T16:21:57Z</time>
      </trkpt>
      <trkpt lat="45.26417" lon="3.40497">
        <ele>462.2</ele>
        <time>2021-08-05T16:21:59Z</time>
      </trkpt>
      <trkpt lat="45.2642" lon="3.40497">
        <ele>462.2</ele>
        <time>2021-08-05T16:22:01Z</time>
      </trkpt>
      <trkpt lat="45.2642" lon="3.40498">
        <ele>462.1</ele>
        <time>2021-08-05T16:22:03Z</time>
      </trkpt>
      <trkpt lat="45.2642" lon="3.40498">
        <ele>462.1</ele>
        <time>2021-08-05T16:22:05Z</time>
      </trkpt>
      <trkpt lat="45.2642" lon="3.40498">
        <ele>462.1</ele>
        <time>2021-08-05T16:22:07Z</time>
      </trkpt>
      <trkpt lat="45.26419" lon="3.40498">
        <ele>462.1</ele>
        <time>2021-08-05T16:22:09Z</time>
      </trkpt>
      <trkpt lat="45.26431" lon="3.40494">
        <ele>462.4</ele>
        <time>2021-08-05T16:29:23Z</time>
      </trkpt>
      <trkpt lat="45.26433" lon="3.40489">
        <ele>462.7</ele>
        <time>2021-08-05T16:29:25Z</time>
      </trkpt>
      <trkpt lat="45.26429" lon="3.40486">
        <ele>462.8</ele>
        <time>2021-08-05T16:29:27Z</time>
      </trkpt>
      <trkpt lat="45.26426" lon="3.40486">
        <ele>462.7</ele>
        <time>2021-08-05T16:29:29Z</time>
      </trkpt>
      <trkpt lat="45.26422" lon="3.40487">
        <ele>462.7</ele>
        <time>2021-08-05T16:29:31Z</time>
      </trkpt>
      <trkpt lat="45.26419" lon="3.40488">
        <ele>462.6</ele>
        <time>2021-08-05T16:29:33Z</time>
      </trkpt>
      <trkpt lat="45.26415" lon="3.40489">
        <ele>462.5</ele>
        <time>2021-08-05T16:29:35Z</time>
      </trkpt>
      <trkpt lat="45.2641" lon="3.40487">
        <ele>462.6</ele>
        <time>2021-08-05T16:29:37Z</time>
      </trkpt>
      <trkpt lat="45.26407" lon="3.40485">
        <ele>462.7</ele>
        <time>2021-08-05T16:29:39Z</time>
      </trkpt>
      <trkpt lat="45.26403" lon="3.40484">
        <ele>462.7</ele>
        <time>2021-08-05T16:29:41Z</time>
      </trkpt>
      <trkpt lat="45.26399" lon="3.40482">
        <ele>462.8</ele>
        <time>2021-08-05T16:29:43Z</time>
      </trkpt>
      <trkpt lat="45.26396" lon="3.40481">
        <ele>462.8</ele>
        <time>2021-08-05T16:29:45Z</time>
      </trkpt>
      <trkpt lat="45.26393" lon="3.40479">
        <ele>462.8</ele>
        <time>2021-08-05T16:29:47Z</time>
      </trkpt>
      <trkpt lat="45.26392" lon="3.40474">
        <ele>463.1</ele>
        <time>2021-08-05T16:29:49Z</time>
      </trkpt>
      <trkpt lat="45.26391" lon="3.40469">
        <ele>463.3</ele>
        <time>2021-08-05T16:29:51Z</time>
      </trkpt>
      <trkpt lat="45.2639" lon="3.40466">
        <ele>463.4</ele>
        <time>2021-08-05T16:29:53Z</time>
      </trkpt>
      <trkpt lat="45.26387" lon="3.40463">
        <ele>463.4</ele>
        <time>2021-08-05T16:29:55Z</time>
      </trkpt>
      <trkpt lat="45.26382" lon="3.40462">
        <ele>463.4</ele>
        <time>2021-08-05T16:29:57Z</time>
      </trkpt>
      <trkpt lat="45.26376" lon="3.40467">
        <ele>463.2</ele>
        <time>2021-08-05T16:29:59Z</time>
      </trkpt>
      <trkpt lat="45.26371" lon="3.4047">
        <ele>463</ele>
        <time>2021-08-05T16:30:01Z</time>
      </trkpt>
      <trkpt lat="45.26364" lon="3.40475">
        <ele>462.8</ele>
        <time>2021-08-05T16:30:03Z</time>
      </trkpt>
      <trkpt lat="45.26359" lon="3.4048">
        <ele>462.6</ele>
        <time>2021-08-05T16:30:05Z</time>
      </trkpt>
      <trkpt lat="45.26353" lon="3.40485">
        <ele>462.4</ele>
        <time>2021-08-05T16:30:07Z</time>
      </trkpt>
      <trkpt lat="45.26346" lon="3.40491">
        <ele>462.2</ele>
        <time>2021-08-05T16:30:09Z</time>
      </trkpt>
      <trkpt lat="45.26339" lon="3.40495">
        <ele>462.1</ele>
        <time>2021-08-05T16:30:11Z</time>
      </trkpt>
      <trkpt lat="45.26331" lon="3.40502">
        <ele>461.8</ele>
        <time>2021-08-05T16:30:13Z</time>
      </trkpt>
      <trkpt lat="45.26324" lon="3.40507">
        <ele>461.5</ele>
        <time>2021-08-05T16:30:15Z</time>
      </trkpt>
      <trkpt lat="45.26317" lon="3.40511">
        <ele>461.4</ele>
        <time>2021-08-05T16:30:17Z</time>
      </trkpt>
      <trkpt lat="45.26309" lon="3.40516">
        <ele>461.2</ele>
        <time>2021-08-05T16:30:19Z</time>
      </trkpt>
      <trkpt lat="45.26302" lon="3.40521">
        <ele>461</ele>
        <time>2021-08-05T16:30:21Z</time>
      </trkpt>
      <trkpt lat="45.26297" lon="3.40526">
        <ele>460.8</ele>
        <time>2021-08-05T16:30:23Z</time>
      </trkpt>
      <trkpt lat="45.2629" lon="3.40532">
        <ele>460.5</ele>
        <time>2021-08-05T16:30:25Z</time>
      </trkpt>
      <trkpt lat="45.26282" lon="3.4054">
        <ele>460.2</ele>
        <time>2021-08-05T16:30:27Z</time>
      </trkpt>
      <trkpt lat="45.26274" lon="3.40546">
        <ele>460.2</ele>
        <time>2021-08-05T16:30:29Z</time>
      </trkpt>
      <trkpt lat="45.26265" lon="3.40553">
        <ele>460.2</ele>
        <time>2021-08-05T16:30:31Z</time>
      </trkpt>
      <trkpt lat="45.26257" lon="3.4056">
        <ele>460.2</ele>
        <time>2021-08-05T16:30:33Z</time>
      </trkpt>
      <trkpt lat="45.26248" lon="3.40568">
        <ele>459.9</ele>
        <time>2021-08-05T16:30:35Z</time>
      </trkpt>
      <trkpt lat="45.26241" lon="3.40577">
        <ele>458.4</ele>
        <time>2021-08-05T16:30:37Z</time>
      </trkpt>
      <trkpt lat="45.26232" lon="3.40586">
        <ele>456.8</ele>
        <time>2021-08-05T16:30:39Z</time>
      </trkpt>
      <trkpt lat="45.26222" lon="3.40594">
        <ele>455.2</ele>
        <time>2021-08-05T16:30:41Z</time>
      </trkpt>
      <trkpt lat="45.26213" lon="3.40602">
        <ele>454.3</ele>
        <time>2021-08-05T16:30:43Z</time>
      </trkpt>
      <trkpt lat="45.26203" lon="3.40608">
        <ele>453.8</ele>
        <time>2021-08-05T16:30:45Z</time>
      </trkpt>
      <trkpt lat="45.26196" lon="3.40616">
        <ele>453.8</ele>
        <time>2021-08-05T16:30:47Z</time>
      </trkpt>
      <trkpt lat="45.26186" lon="3.40626">
        <ele>454.4</ele>
        <time>2021-08-05T16:30:49Z</time>
      </trkpt>
      <trkpt lat="45.26178" lon="3.40635">
        <ele>455.4</ele>
        <time>2021-08-05T16:30:51Z</time>
      </trkpt>
      <trkpt lat="45.2617" lon="3.40644">
        <ele>457</ele>
        <time>2021-08-05T16:30:53Z</time>
      </trkpt>
      <trkpt lat="45.26161" lon="3.4065">
        <ele>456.9</ele>
        <time>2021-08-05T16:30:55Z</time>
      </trkpt>
      <trkpt lat="45.26153" lon="3.40656">
        <ele>456</ele>
        <time>2021-08-05T16:30:57Z</time>
      </trkpt>
      <trkpt lat="45.26147" lon="3.40664">
        <ele>455.6</ele>
        <time>2021-08-05T16:30:59Z</time>
      </trkpt>
      <trkpt lat="45.2614" lon="3.40672">
        <ele>454.3</ele>
        <time>2021-08-05T16:31:01Z</time>
      </trkpt>
      <trkpt lat="45.26132" lon="3.40678">
        <ele>452.4</ele>
        <time>2021-08-05T16:31:03Z</time>
      </trkpt>
      <trkpt lat="45.26125" lon="3.40685">
        <ele>450.9</ele>
        <time>2021-08-05T16:31:05Z</time>
      </trkpt>
      <trkpt lat="45.26116" lon="3.40693">
        <ele>449.6</ele>
        <time>2021-08-05T16:31:07Z</time>
      </trkpt>
      <trkpt lat="45.26108" lon="3.407">
        <ele>448.6</ele>
        <time>2021-08-05T16:31:09Z</time>
      </trkpt>
      <trkpt lat="45.26098" lon="3.40709">
        <ele>447.9</ele>
        <time>2021-08-05T16:31:11Z</time>
      </trkpt>
      <trkpt lat="45.26088" lon="3.40717">
        <ele>447.5</ele>
        <time>2021-08-05T16:31:13Z</time>
      </trkpt>
      <trkpt lat="45.26077" lon="3.40727">
        <ele>447.5</ele>
        <time>2021-08-05T16:31:15Z</time>
      </trkpt>
      <trkpt lat="45.26067" lon="3.40736">
        <ele>447.2</ele>
        <time>2021-08-05T16:31:17Z</time>
      </trkpt>
      <trkpt lat="45.26059" lon="3.40745">
        <ele>446.9</ele>
        <time>2021-08-05T16:31:19Z</time>
      </trkpt>
      <trkpt lat="45.26052" lon="3.40755">
        <ele>446</ele>
        <time>2021-08-05T16:31:21Z</time>
      </trkpt>
      <trkpt lat="45.26048" lon="3.40767">
        <ele>444</ele>
        <time>2021-08-05T16:31:23Z</time>
      </trkpt>
      <trkpt lat="45.26047" lon="3.4078">
        <ele>442.4</ele>
        <time>2021-08-05T16:31:25Z</time>
      </trkpt>
      <trkpt lat="45.26051" lon="3.40794">
        <ele>440.9</ele>
        <time>2021-08-05T16:31:27Z</time>
      </trkpt>
      <trkpt lat="45.26055" lon="3.4081">
        <ele>439.3</ele>
        <time>2021-08-05T16:31:29Z</time>
      </trkpt>
      <trkpt lat="45.26059" lon="3.40827">
        <ele>437.4</ele>
        <time>2021-08-05T16:31:31Z</time>
      </trkpt>
      <trkpt lat="45.26064" lon="3.40843">
        <ele>437.4</ele>
        <time>2021-08-05T16:31:33Z</time>
      </trkpt>
      <trkpt lat="45.26068" lon="3.40857">
        <ele>438.5</ele>
        <time>2021-08-05T16:31:35Z</time>
      </trkpt>
      <trkpt lat="45.26072" lon="3.40872">
        <ele>439.5</ele>
        <time>2021-08-05T16:31:37Z</time>
      </trkpt>
      <trkpt lat="45.26075" lon="3.40885">
        <ele>440.3</ele>
        <time>2021-08-05T16:31:39Z</time>
      </trkpt>
      <trkpt lat="45.26075" lon="3.40892">
        <ele>440.6</ele>
        <time>2021-08-05T16:31:41Z</time>
      </trkpt>
      <trkpt lat="45.26074" lon="3.40893">
        <ele>440.7</ele>
        <time>2021-08-05T16:31:43Z</time>
      </trkpt>
      <trkpt lat="45.26074" lon="3.40893">
        <ele>440.7</ele>
        <time>2021-08-05T16:31:45Z</time>
      </trkpt>
      <trkpt lat="45.26074" lon="3.40893">
        <ele>440.7</ele>
        <time>2021-08-05T16:31:47Z</time>
      </trkpt>
      <trkpt lat="45.26074" lon="3.40894">
        <ele>440.7</ele>
        <time>2021-08-05T16:31:49Z</time>
      </trkpt>
      <trkpt lat="45.26074" lon="3.40894">
        <ele>440.7</ele>
        <time>2021-08-05T16:31:51Z</time>
      </trkpt>
      <trkpt lat="45.26084" lon="3.40923">
        <ele>443.7</ele>
        <time>2021-08-05T16:35:55Z</time>
      </trkpt>
      <trkpt lat="45.26086" lon="3.40928">
        <ele>445.1</ele>
        <time>2021-08-05T16:35:57Z</time>
      </trkpt>
      <trkpt lat="45.26087" lon="3.40933">
        <ele>446.5</ele>
        <time>2021-08-05T16:35:59Z</time>
      </trkpt>
      <trkpt lat="45.26088" lon="3.40938">
        <ele>447.9</ele>
        <time>2021-08-05T16:36:01Z</time>
      </trkpt>
      <trkpt lat="45.2609" lon="3.40944">
        <ele>449.2</ele>
        <time>2021-08-05T16:36:03Z</time>
      </trkpt>
      <trkpt lat="45.26091" lon="3.40949">
        <ele>450.5</ele>
        <time>2021-08-05T16:36:05Z</time>
      </trkpt>
      <trkpt lat="45.26089" lon="3.40952">
        <ele>451.6</ele>
        <time>2021-08-05T16:36:07Z</time>
      </trkpt>
      <trkpt lat="45.26085" lon="3.40955">
        <ele>452.6</ele>
        <time>2021-08-05T16:36:09Z</time>
      </trkpt>
      <trkpt lat="45.26082" lon="3.40958">
        <ele>453.5</ele>
        <time>2021-08-05T16:36:11Z</time>
      </trkpt>
      <trkpt lat="45.26079" lon="3.4096">
        <ele>454.2</ele>
        <time>2021-08-05T16:36:13Z</time>
      </trkpt>
      <trkpt lat="45.26076" lon="3.40961">
        <ele>454.7</ele>
        <time>2021-08-05T16:36:15Z</time>
      </trkpt>
      <trkpt lat="45.26072" lon="3.40961">
        <ele>455</ele>
        <time>2021-08-05T16:36:17Z</time>
      </trkpt>
      <trkpt lat="45.26068" lon="3.40962">
        <ele>455.4</ele>
        <time>2021-08-05T16:36:19Z</time>
      </trkpt>
      <trkpt lat="45.26064" lon="3.40961">
        <ele>455.6</ele>
        <time>2021-08-05T16:36:21Z</time>
      </trkpt>
      <trkpt lat="45.26059" lon="3.40962">
        <ele>456.1</ele>
        <time>2021-08-05T16:36:23Z</time>
      </trkpt>
      <trkpt lat="45.26055" lon="3.40962">
        <ele>456.4</ele>
        <time>2021-08-05T16:36:25Z</time>
      </trkpt>
      <trkpt lat="45.26052" lon="3.40962">
        <ele>456.6</ele>
        <time>2021-08-05T16:36:27Z</time>
      </trkpt>
      <trkpt lat="45.26048" lon="3.40962">
        <ele>456.9</ele>
        <time>2021-08-05T16:36:29Z</time>
      </trkpt>
      <trkpt lat="45.26045" lon="3.40962">
        <ele>457</ele>
        <time>2021-08-05T16:36:31Z</time>
      </trkpt>
      <trkpt lat="45.26042" lon="3.40962">
        <ele>457.1</ele>
        <time>2021-08-05T16:36:33Z</time>
      </trkpt>
      <trkpt lat="45.26041" lon="3.40961">
        <ele>457</ele>
        <time>2021-08-05T16:36:35Z</time>
      </trkpt>
      <trkpt lat="45.26041" lon="3.40961">
        <ele>456.8</ele>
        <time>2021-08-05T16:36:37Z</time>
      </trkpt>
      <trkpt lat="45.26041" lon="3.40961">
        <ele>456.8</ele>
        <time>2021-08-05T16:36:39Z</time>
      </trkpt>
      <trkpt lat="45.26041" lon="3.40961">
        <ele>456.9</ele>
        <time>2021-08-05T16:36:41Z</time>
      </trkpt>
      <trkpt lat="45.26022" lon="3.40963">
        <ele>458.8</ele>
        <time>2021-08-05T16:37:51Z</time>
      </trkpt>
      <trkpt lat="45.26019" lon="3.40963">
        <ele>459.2</ele>
        <time>2021-08-05T16:37:53Z</time>
      </trkpt>
      <trkpt lat="45.26015" lon="3.40963">
        <ele>459.3</ele>
        <time>2021-08-05T16:37:55Z</time>
      </trkpt>
      <trkpt lat="45.26011" lon="3.40963">
        <ele>459.6</ele>
        <time>2021-08-05T16:37:57Z</time>
      </trkpt>
      <trkpt lat="45.26008" lon="3.40964">
        <ele>460.1</ele>
        <time>2021-08-05T16:37:59Z</time>
      </trkpt>
      <trkpt lat="45.26004" lon="3.40964">
        <ele>460.5</ele>
        <time>2021-08-05T16:38:01Z</time>
      </trkpt>
      <trkpt lat="45.26" lon="3.40964">
        <ele>460.7</ele>
        <time>2021-08-05T16:38:03Z</time>
      </trkpt>
      <trkpt lat="45.25996" lon="3.40966">
        <ele>461.4</ele>
        <time>2021-08-05T16:38:05Z</time>
      </trkpt>
      <trkpt lat="45.25993" lon="3.40967">
        <ele>462</ele>
        <time>2021-08-05T16:38:07Z</time>
      </trkpt>
      <trkpt lat="45.25989" lon="3.40969">
        <ele>462.8</ele>
        <time>2021-08-05T16:38:09Z</time>
      </trkpt>
      <trkpt lat="45.25986" lon="3.40971">
        <ele>463.4</ele>
        <time>2021-08-05T16:38:11Z</time>
      </trkpt>
      <trkpt lat="45.25982" lon="3.40973">
        <ele>464</ele>
        <time>2021-08-05T16:38:13Z</time>
      </trkpt>
      <trkpt lat="45.25979" lon="3.40974">
        <ele>464.7</ele>
        <time>2021-08-05T16:38:15Z</time>
      </trkpt>
      <trkpt lat="45.25976" lon="3.40976">
        <ele>465.2</ele>
        <time>2021-08-05T16:38:17Z</time>
      </trkpt>
      <trkpt lat="45.25972" lon="3.40978">
        <ele>466</ele>
        <time>2021-08-05T16:38:19Z</time>
      </trkpt>
      <trkpt lat="45.25969" lon="3.40979">
        <ele>466.7</ele>
        <time>2021-08-05T16:38:21Z</time>
      </trkpt>
      <trkpt lat="45.25966" lon="3.40981">
        <ele>467.3</ele>
        <time>2021-08-05T16:38:23Z</time>
      </trkpt>
      <trkpt lat="45.25962" lon="3.40982">
        <ele>467.7</ele>
        <time>2021-08-05T16:38:25Z</time>
      </trkpt>
      <trkpt lat="45.25958" lon="3.40982">
        <ele>467.7</ele>
        <time>2021-08-05T16:38:27Z</time>
      </trkpt>
      <trkpt lat="45.25955" lon="3.40982">
        <ele>467.7</ele>
        <time>2021-08-05T16:38:29Z</time>
      </trkpt>
      <trkpt lat="45.25951" lon="3.40982">
        <ele>467.4</ele>
        <time>2021-08-05T16:38:31Z</time>
      </trkpt>
      <trkpt lat="45.25947" lon="3.40981">
        <ele>467.2</ele>
        <time>2021-08-05T16:38:33Z</time>
      </trkpt>
      <trkpt lat="45.25943" lon="3.40981">
        <ele>467.1</ele>
        <time>2021-08-05T16:38:35Z</time>
      </trkpt>
      <trkpt lat="45.25938" lon="3.4098">
        <ele>466.8</ele>
        <time>2021-08-05T16:38:37Z</time>
      </trkpt>
      <trkpt lat="45.25933" lon="3.40981">
        <ele>466.9</ele>
        <time>2021-08-05T16:38:39Z</time>
      </trkpt>
      <trkpt lat="45.25929" lon="3.40981">
        <ele>467</ele>
        <time>2021-08-05T16:38:41Z</time>
      </trkpt>
      <trkpt lat="45.25926" lon="3.40981">
        <ele>466.9</ele>
        <time>2021-08-05T16:38:43Z</time>
      </trkpt>
      <trkpt lat="45.25924" lon="3.4098">
        <ele>466.7</ele>
        <time>2021-08-05T16:38:45Z</time>
      </trkpt>
      <trkpt lat="45.25919" lon="3.40979">
        <ele>466.3</ele>
        <time>2021-08-05T16:38:47Z</time>
      </trkpt>
      <trkpt lat="45.25917" lon="3.4098">
        <ele>466.6</ele>
        <time>2021-08-05T16:38:49Z</time>
      </trkpt>
      <trkpt lat="45.25917" lon="3.40981">
        <ele>466.9</ele>
        <time>2021-08-05T16:38:51Z</time>
      </trkpt>
      <trkpt lat="45.25917" lon="3.40981">
        <ele>467</ele>
        <time>2021-08-05T16:38:53Z</time>
      </trkpt>
      <trkpt lat="45.25917" lon="3.40981">
        <ele>467</ele>
        <time>2021-08-05T16:38:55Z</time>
      </trkpt>
      <trkpt lat="45.25916" lon="3.40981">
        <ele>467.1</ele>
        <time>2021-08-05T16:38:57Z</time>
      </trkpt>
      <trkpt lat="45.259" lon="3.40987">
        <ele>469.8</ele>
        <time>2021-08-05T16:40:13Z</time>
      </trkpt>
      <trkpt lat="45.25895" lon="3.40988">
        <ele>470.2</ele>
        <time>2021-08-05T16:40:15Z</time>
      </trkpt>
      <trkpt lat="45.25891" lon="3.40989">
        <ele>470.8</ele>
        <time>2021-08-05T16:40:17Z</time>
      </trkpt>
      <trkpt lat="45.25886" lon="3.4099">
        <ele>471.2</ele>
        <time>2021-08-05T16:40:19Z</time>
      </trkpt>
      <trkpt lat="45.2588" lon="3.4099">
        <ele>471.4</ele>
        <time>2021-08-05T16:40:21Z</time>
      </trkpt>
      <trkpt lat="45.25875" lon="3.40989">
        <ele>471.4</ele>
        <time>2021-08-05T16:40:23Z</time>
      </trkpt>
      <trkpt lat="45.2587" lon="3.4099">
        <ele>471.7</ele>
        <time>2021-08-05T16:40:25Z</time>
      </trkpt>
      <trkpt lat="45.25865" lon="3.40988">
        <ele>471.4</ele>
        <time>2021-08-05T16:40:27Z</time>
      </trkpt>
      <trkpt lat="45.25861" lon="3.40987">
        <ele>470.9</ele>
        <time>2021-08-05T16:40:29Z</time>
      </trkpt>
      <trkpt lat="45.25856" lon="3.40985">
        <ele>470.5</ele>
        <time>2021-08-05T16:40:31Z</time>
      </trkpt>
      <trkpt lat="45.2585" lon="3.40984">
        <ele>470.3</ele>
        <time>2021-08-05T16:40:33Z</time>
      </trkpt>
      <trkpt lat="45.25843" lon="3.40983">
        <ele>470.2</ele>
        <time>2021-08-05T16:40:35Z</time>
      </trkpt>
      <trkpt lat="45.25835" lon="3.40983">
        <ele>470.2</ele>
        <time>2021-08-05T16:40:37Z</time>
      </trkpt>
      <trkpt lat="45.25827" lon="3.40982">
        <ele>471</ele>
        <time>2021-08-05T16:40:39Z</time>
      </trkpt>
      <trkpt lat="45.25818" lon="3.40983">
        <ele>472.4</ele>
        <time>2021-08-05T16:40:41Z</time>
      </trkpt>
      <trkpt lat="45.25811" lon="3.40984">
        <ele>473.7</ele>
        <time>2021-08-05T16:40:43Z</time>
      </trkpt>
      <trkpt lat="45.25804" lon="3.40984">
        <ele>474.9</ele>
        <time>2021-08-05T16:40:45Z</time>
      </trkpt>
      <trkpt lat="45.25796" lon="3.40985">
        <ele>476.4</ele>
        <time>2021-08-05T16:40:47Z</time>
      </trkpt>
      <trkpt lat="45.25788" lon="3.40982">
        <ele>476.6</ele>
        <time>2021-08-05T16:40:49Z</time>
      </trkpt>
      <trkpt lat="45.25779" lon="3.40981">
        <ele>477.3</ele>
        <time>2021-08-05T16:40:51Z</time>
      </trkpt>
      <trkpt lat="45.25771" lon="3.40976">
        <ele>477</ele>
        <time>2021-08-05T16:40:53Z</time>
      </trkpt>
      <trkpt lat="45.25762" lon="3.40971">
        <ele>476.5</ele>
        <time>2021-08-05T16:40:55Z</time>
      </trkpt>
      <trkpt lat="45.25754" lon="3.40965">
        <ele>475.6</ele>
        <time>2021-08-05T16:40:57Z</time>
      </trkpt>
      <trkpt lat="45.25747" lon="3.40959">
        <ele>474.8</ele>
        <time>2021-08-05T16:40:59Z</time>
      </trkpt>
      <trkpt lat="45.25739" lon="3.40953">
        <ele>473.9</ele>
        <time>2021-08-05T16:41:01Z</time>
      </trkpt>
      <trkpt lat="45.25732" lon="3.40947">
        <ele>472.9</ele>
        <time>2021-08-05T16:41:03Z</time>
      </trkpt>
      <trkpt lat="45.25725" lon="3.4094">
        <ele>472.1</ele>
        <time>2021-08-05T16:41:05Z</time>
      </trkpt>
      <trkpt lat="45.25717" lon="3.40932">
        <ele>471</ele>
        <time>2021-08-05T16:41:07Z</time>
      </trkpt>
      <trkpt lat="45.2571" lon="3.40926">
        <ele>470.2</ele>
        <time>2021-08-05T16:41:09Z</time>
      </trkpt>
      <trkpt lat="45.25706" lon="3.40918">
        <ele>469</ele>
        <time>2021-08-05T16:41:11Z</time>
      </trkpt>
      <trkpt lat="45.25702" lon="3.40913">
        <ele>468.4</ele>
        <time>2021-08-05T16:41:13Z</time>
      </trkpt>
      <trkpt lat="45.257" lon="3.40912">
        <ele>468.5</ele>
        <time>2021-08-05T16:41:15Z</time>
      </trkpt>
      <trkpt lat="45.25701" lon="3.40912">
        <ele>468.6</ele>
        <time>2021-08-05T16:41:17Z</time>
      </trkpt>
      <trkpt lat="45.257" lon="3.40913">
        <ele>468.7</ele>
        <time>2021-08-05T16:41:19Z</time>
      </trkpt>
      <trkpt lat="45.257" lon="3.40913">
        <ele>468.8</ele>
        <time>2021-08-05T16:41:21Z</time>
      </trkpt>
      <trkpt lat="45.257" lon="3.40913">
        <ele>468.8</ele>
        <time>2021-08-05T16:41:23Z</time>
      </trkpt>
      <trkpt lat="45.25706" lon="3.40923">
        <ele>470.3</ele>
        <time>2021-08-05T16:43:01Z</time>
      </trkpt>
      <trkpt lat="45.2571" lon="3.40927">
        <ele>470.5</ele>
        <time>2021-08-05T16:43:03Z</time>
      </trkpt>
      <trkpt lat="45.25715" lon="3.4093">
        <ele>470.8</ele>
        <time>2021-08-05T16:43:05Z</time>
      </trkpt>
      <trkpt lat="45.25718" lon="3.40935">
        <ele>471.5</ele>
        <time>2021-08-05T16:43:07Z</time>
      </trkpt>
      <trkpt lat="45.25723" lon="3.40939">
        <ele>472.1</ele>
        <time>2021-08-05T16:43:09Z</time>
      </trkpt>
      <trkpt lat="45.25728" lon="3.40943">
        <ele>472.5</ele>
        <time>2021-08-05T16:43:11Z</time>
      </trkpt>
      <trkpt lat="45.25733" lon="3.40947">
        <ele>472.9</ele>
        <time>2021-08-05T16:43:13Z</time>
      </trkpt>
      <trkpt lat="45.25737" lon="3.40951">
        <ele>473.6</ele>
        <time>2021-08-05T16:43:15Z</time>
      </trkpt>
      <trkpt lat="45.2574" lon="3.40954">
        <ele>474</ele>
        <time>2021-08-05T16:43:17Z</time>
      </trkpt>
      <trkpt lat="45.25744" lon="3.40958">
        <ele>474.6</ele>
        <time>2021-08-05T16:43:19Z</time>
      </trkpt>
      <trkpt lat="45.2575" lon="3.40964">
        <ele>475.8</ele>
        <time>2021-08-05T16:43:21Z</time>
      </trkpt>
      <trkpt lat="45.25755" lon="3.40968">
        <ele>476.5</ele>
        <time>2021-08-05T16:43:23Z</time>
      </trkpt>
      <trkpt lat="45.2576" lon="3.40972">
        <ele>477.3</ele>
        <time>2021-08-05T16:43:25Z</time>
      </trkpt>
      <trkpt lat="45.25765" lon="3.40976">
        <ele>477.7</ele>
        <time>2021-08-05T16:43:27Z</time>
      </trkpt>
      <trkpt lat="45.25769" lon="3.40979">
        <ele>478.3</ele>
        <time>2021-08-05T16:43:29Z</time>
      </trkpt>
      <trkpt lat="45.25771" lon="3.40979">
        <ele>477.8</ele>
        <time>2021-08-05T16:43:31Z</time>
      </trkpt>
      <trkpt lat="45.25771" lon="3.40976">
        <ele>477</ele>
        <time>2021-08-05T16:43:33Z</time>
      </trkpt>
      <trkpt lat="45.2577" lon="3.40973">
        <ele>476</ele>
        <time>2021-08-05T16:43:35Z</time>
      </trkpt>
      <trkpt lat="45.25766" lon="3.40971">
        <ele>475.7</ele>
        <time>2021-08-05T16:43:37Z</time>
      </trkpt>
      <trkpt lat="45.25761" lon="3.40969">
        <ele>476</ele>
        <time>2021-08-05T16:43:39Z</time>
      </trkpt>
      <trkpt lat="45.25756" lon="3.40966">
        <ele>475.5</ele>
        <time>2021-08-05T16:43:41Z</time>
      </trkpt>
      <trkpt lat="45.25751" lon="3.40961">
        <ele>474.8</ele>
        <time>2021-08-05T16:43:43Z</time>
      </trkpt>
      <trkpt lat="45.25747" lon="3.40958">
        <ele>474.3</ele>
        <time>2021-08-05T16:43:45Z</time>
      </trkpt>
      <trkpt lat="45.25742" lon="3.40954">
        <ele>473.8</ele>
        <time>2021-08-05T16:43:47Z</time>
      </trkpt>
      <trkpt lat="45.25739" lon="3.40952">
        <ele>473.4</ele>
        <time>2021-08-05T16:43:49Z</time>
      </trkpt>
      <trkpt lat="45.25736" lon="3.40949">
        <ele>473.1</ele>
        <time>2021-08-05T16:43:51Z</time>
      </trkpt>
      <trkpt lat="45.2573" lon="3.40943">
        <ele>472.1</ele>
        <time>2021-08-05T16:43:53Z</time>
      </trkpt>
      <trkpt lat="45.25723" lon="3.40936">
        <ele>471.1</ele>
        <time>2021-08-05T16:43:55Z</time>
      </trkpt>
      <trkpt lat="45.25715" lon="3.40928">
        <ele>470.1</ele>
        <time>2021-08-05T16:43:57Z</time>
      </trkpt>
      <trkpt lat="45.25706" lon="3.40919">
        <ele>469.1</ele>
        <time>2021-08-05T16:43:59Z</time>
      </trkpt>
      <trkpt lat="45.257" lon="3.4091">
        <ele>468.2</ele>
        <time>2021-08-05T16:44:01Z</time>
      </trkpt>
      <trkpt lat="45.25699" lon="3.40908">
        <ele>467.9</ele>
        <time>2021-08-05T16:44:03Z</time>
      </trkpt>
      <trkpt lat="45.25699" lon="3.40908">
        <ele>467.9</ele>
        <time>2021-08-05T16:44:05Z</time>
      </trkpt>
      <trkpt lat="45.25699" lon="3.40907">
        <ele>467.8</ele>
        <time>2021-08-05T16:44:07Z</time>
      </trkpt>
      <trkpt lat="45.25699" lon="3.40908">
        <ele>467.9</ele>
        <time>2021-08-05T16:44:09Z</time>
      </trkpt>
      <trkpt lat="45.25699" lon="3.40908">
        <ele>468</ele>
        <time>2021-08-05T16:44:11Z</time>
      </trkpt>
      <trkpt lat="45.25681" lon="3.40898">
        <ele>469.5</ele>
        <time>2021-08-05T16:46:17Z</time>
      </trkpt>
      <trkpt lat="45.25673" lon="3.40892">
        <ele>470</ele>
        <time>2021-08-05T16:46:19Z</time>
      </trkpt>
      <trkpt lat="45.25664" lon="3.40884">
        <ele>470.3</ele>
        <time>2021-08-05T16:46:21Z</time>
      </trkpt>
      <trkpt lat="45.25654" lon="3.40875">
        <ele>471</ele>
        <time>2021-08-05T16:46:23Z</time>
      </trkpt>
      <trkpt lat="45.25642" lon="3.40865">
        <ele>472.1</ele>
        <time>2021-08-05T16:46:25Z</time>
      </trkpt>
      <trkpt lat="45.2563" lon="3.40853">
        <ele>473</ele>
        <time>2021-08-05T16:46:27Z</time>
      </trkpt>
      <trkpt lat="45.25625" lon="3.40832">
        <ele>470.9</ele>
        <time>2021-08-05T16:46:29Z</time>
      </trkpt>
      <trkpt lat="45.2563" lon="3.40814">
        <ele>467.3</ele>
        <time>2021-08-05T16:46:31Z</time>
      </trkpt>
      <trkpt lat="45.25634" lon="3.40799">
        <ele>464.4</ele>
        <time>2021-08-05T16:46:33Z</time>
      </trkpt>
      <trkpt lat="45.25635" lon="3.40787">
        <ele>462.5</ele>
        <time>2021-08-05T16:46:35Z</time>
      </trkpt>
      <trkpt lat="45.25634" lon="3.40776">
        <ele>461.5</ele>
        <time>2021-08-05T16:46:37Z</time>
      </trkpt>
      <trkpt lat="45.25633" lon="3.40773">
        <ele>461.4</ele>
        <time>2021-08-05T16:46:39Z</time>
      </trkpt>
      <trkpt lat="45.25633" lon="3.40771">
        <ele>461.2</ele>
        <time>2021-08-05T16:46:41Z</time>
      </trkpt>
      <trkpt lat="45.25631" lon="3.40768">
        <ele>461.2</ele>
        <time>2021-08-05T16:46:43Z</time>
      </trkpt>
      <trkpt lat="45.25629" lon="3.40763">
        <ele>461.2</ele>
        <time>2021-08-05T16:46:45Z</time>
      </trkpt>
      <trkpt lat="45.25626" lon="3.40757">
        <ele>461.2</ele>
        <time>2021-08-05T16:46:47Z</time>
      </trkpt>
      <trkpt lat="45.25622" lon="3.40752">
        <ele>461.5</ele>
        <time>2021-08-05T16:46:49Z</time>
      </trkpt>
      <trkpt lat="45.25617" lon="3.40745">
        <ele>461.9</ele>
        <time>2021-08-05T16:46:51Z</time>
      </trkpt>
      <trkpt lat="45.25612" lon="3.40739">
        <ele>462.4</ele>
        <time>2021-08-05T16:46:53Z</time>
      </trkpt>
      <trkpt lat="45.25607" lon="3.40732">
        <ele>462.8</ele>
        <time>2021-08-05T16:46:55Z</time>
      </trkpt>
      <trkpt lat="45.25602" lon="3.40726">
        <ele>463.4</ele>
        <time>2021-08-05T16:46:57Z</time>
      </trkpt>
      <trkpt lat="45.25597" lon="3.40719">
        <ele>463.7</ele>
        <time>2021-08-05T16:46:59Z</time>
      </trkpt>
      <trkpt lat="45.25593" lon="3.40712">
        <ele>464</ele>
        <time>2021-08-05T16:47:01Z</time>
      </trkpt>
      <trkpt lat="45.25588" lon="3.40706">
        <ele>464.5</ele>
        <time>2021-08-05T16:47:03Z</time>
      </trkpt>
      <trkpt lat="45.25584" lon="3.40699">
        <ele>464.8</ele>
        <time>2021-08-05T16:47:05Z</time>
      </trkpt>
      <trkpt lat="45.2558" lon="3.40694">
        <ele>464.4</ele>
        <time>2021-08-05T16:47:07Z</time>
      </trkpt>
      <trkpt lat="45.25576" lon="3.4069">
        <ele>464.1</ele>
        <time>2021-08-05T16:47:09Z</time>
      </trkpt>
      <trkpt lat="45.25573" lon="3.40686">
        <ele>463.7</ele>
        <time>2021-08-05T16:47:11Z</time>
      </trkpt>
      <trkpt lat="45.2557" lon="3.40682">
        <ele>463.3</ele>
        <time>2021-08-05T16:47:13Z</time>
      </trkpt>
      <trkpt lat="45.25568" lon="3.40677">
        <ele>462.7</ele>
        <time>2021-08-05T16:47:15Z</time>
      </trkpt>
      <trkpt lat="45.25566" lon="3.40671">
        <ele>462</ele>
        <time>2021-08-05T16:47:17Z</time>
      </trkpt>
      <trkpt lat="45.25565" lon="3.40665">
        <ele>461.2</ele>
        <time>2021-08-05T16:47:19Z</time>
      </trkpt>
      <trkpt lat="45.25564" lon="3.40659">
        <ele>460.3</ele>
        <time>2021-08-05T16:47:21Z</time>
      </trkpt>
      <trkpt lat="45.25565" lon="3.40658">
        <ele>460.1</ele>
        <time>2021-08-05T16:47:23Z</time>
      </trkpt>
      <trkpt lat="45.25565" lon="3.40653">
        <ele>459.2</ele>
        <time>2021-08-05T16:47:25Z</time>
      </trkpt>
      <trkpt lat="45.25565" lon="3.40647">
        <ele>458.2</ele>
        <time>2021-08-05T16:47:27Z</time>
      </trkpt>
      <trkpt lat="45.25565" lon="3.40644">
        <ele>457.7</ele>
        <time>2021-08-05T16:47:29Z</time>
      </trkpt>
      <trkpt lat="45.25566" lon="3.40643">
        <ele>457.5</ele>
        <time>2021-08-05T16:47:31Z</time>
      </trkpt>
      <trkpt lat="45.25566" lon="3.40643">
        <ele>457.5</ele>
        <time>2021-08-05T16:47:33Z</time>
      </trkpt>
      <trkpt lat="45.25566" lon="3.40643">
        <ele>457.5</ele>
        <time>2021-08-05T16:47:35Z</time>
      </trkpt>
      <trkpt lat="45.25567" lon="3.40642">
        <ele>457.5</ele>
        <time>2021-08-05T16:47:37Z</time>
      </trkpt>
      <trkpt lat="45.25567" lon="3.40641">
        <ele>457.3</ele>
        <time>2021-08-05T16:47:39Z</time>
      </trkpt>
      <trkpt lat="45.25514" lon="3.40666">
        <ele>462.5</ele>
        <time>2021-08-05T16:48:47Z</time>
      </trkpt>
      <trkpt lat="45.25507" lon="3.40667">
        <ele>462.9</ele>
        <time>2021-08-05T16:48:49Z</time>
      </trkpt>
      <trkpt lat="45.25501" lon="3.40668">
        <ele>463.3</ele>
        <time>2021-08-05T16:48:51Z</time>
      </trkpt>
      <trkpt lat="45.25494" lon="3.4067">
        <ele>463.2</ele>
        <time>2021-08-05T16:48:53Z</time>
      </trkpt>
      <trkpt lat="45.25487" lon="3.40672">
        <ele>463.1</ele>
        <time>2021-08-05T16:48:55Z</time>
      </trkpt>
      <trkpt lat="45.2548" lon="3.40675">
        <ele>463.4</ele>
        <time>2021-08-05T16:48:57Z</time>
      </trkpt>
      <trkpt lat="45.25474" lon="3.40677">
        <ele>463.4</ele>
        <time>2021-08-05T16:48:59Z</time>
      </trkpt>
      <trkpt lat="45.25468" lon="3.4068">
        <ele>463.7</ele>
        <time>2021-08-05T16:49:01Z</time>
      </trkpt>
      <trkpt lat="45.25462" lon="3.40683">
        <ele>464.1</ele>
        <time>2021-08-05T16:49:03Z</time>
      </trkpt>
      <trkpt lat="45.25455" lon="3.40686">
        <ele>464.5</ele>
        <time>2021-08-05T16:49:05Z</time>
      </trkpt>
      <trkpt lat="45.25447" lon="3.40689">
        <ele>464.9</ele>
        <time>2021-08-05T16:49:07Z</time>
      </trkpt>
      <trkpt lat="45.2544" lon="3.40692">
        <ele>465.3</ele>
        <time>2021-08-05T16:49:09Z</time>
      </trkpt>
      <trkpt lat="45.25433" lon="3.40695">
        <ele>465.7</ele>
        <time>2021-08-05T16:49:11Z</time>
      </trkpt>
      <trkpt lat="45.25425" lon="3.40697">
        <ele>466.1</ele>
        <time>2021-08-05T16:49:13Z</time>
      </trkpt>
      <trkpt lat="45.25417" lon="3.40699">
        <ele>466.3</ele>
        <time>2021-08-05T16:49:15Z</time>
      </trkpt>
      <trkpt lat="45.25409" lon="3.40701">
        <ele>466.4</ele>
        <time>2021-08-05T16:49:17Z</time>
      </trkpt>
      <trkpt lat="45.25401" lon="3.40701">
        <ele>465.9</ele>
        <time>2021-08-05T16:49:19Z</time>
      </trkpt>
      <trkpt lat="45.25393" lon="3.407">
        <ele>465.3</ele>
        <time>2021-08-05T16:49:21Z</time>
      </trkpt>
      <trkpt lat="45.25384" lon="3.40701">
        <ele>465</ele>
        <time>2021-08-05T16:49:23Z</time>
      </trkpt>
      <trkpt lat="45.25375" lon="3.40702">
        <ele>464.6</ele>
        <time>2021-08-05T16:49:25Z</time>
      </trkpt>
      <trkpt lat="45.25365" lon="3.40705">
        <ele>464.6</ele>
        <time>2021-08-05T16:49:27Z</time>
      </trkpt>
      <trkpt lat="45.25356" lon="3.40706">
        <ele>464.3</ele>
        <time>2021-08-05T16:49:29Z</time>
      </trkpt>
      <trkpt lat="45.25348" lon="3.40708">
        <ele>463.9</ele>
        <time>2021-08-05T16:49:31Z</time>
      </trkpt>
      <trkpt lat="45.25339" lon="3.40711">
        <ele>463.9</ele>
        <time>2021-08-05T16:49:33Z</time>
      </trkpt>
      <trkpt lat="45.25331" lon="3.40719">
        <ele>464.6</ele>
        <time>2021-08-05T16:49:35Z</time>
      </trkpt>
      <trkpt lat="45.25322" lon="3.4073">
        <ele>465.9</ele>
        <time>2021-08-05T16:49:37Z</time>
      </trkpt>
      <trkpt lat="45.25312" lon="3.40741">
        <ele>466.4</ele>
        <time>2021-08-05T16:49:39Z</time>
      </trkpt>
      <trkpt lat="45.25302" lon="3.40751">
        <ele>466.3</ele>
        <time>2021-08-05T16:49:41Z</time>
      </trkpt>
      <trkpt lat="45.2529" lon="3.40764">
        <ele>467.1</ele>
        <time>2021-08-05T16:49:43Z</time>
      </trkpt>
      <trkpt lat="45.25278" lon="3.40774">
        <ele>467.1</ele>
        <time>2021-08-05T16:49:45Z</time>
      </trkpt>
      <trkpt lat="45.2527" lon="3.40788">
        <ele>467.4</ele>
        <time>2021-08-05T16:49:47Z</time>
      </trkpt>
      <trkpt lat="45.25257" lon="3.40803">
        <ele>466.4</ele>
        <time>2021-08-05T16:49:49Z</time>
      </trkpt>
      <trkpt lat="45.25247" lon="3.40825">
        <ele>466.8</ele>
        <time>2021-08-05T16:49:51Z</time>
      </trkpt>
      <trkpt lat="45.25236" lon="3.40846">
        <ele>471</ele>
        <time>2021-08-05T16:49:53Z</time>
      </trkpt>
      <trkpt lat="45.25224" lon="3.40857">
        <ele>473.4</ele>
        <time>2021-08-05T16:49:55Z</time>
      </trkpt>
      <trkpt lat="45.25211" lon="3.40859">
        <ele>474.1</ele>
        <time>2021-08-05T16:49:57Z</time>
      </trkpt>
      <trkpt lat="45.25197" lon="3.40853">
        <ele>474.2</ele>
        <time>2021-08-05T16:49:59Z</time>
      </trkpt>
      <trkpt lat="45.25191" lon="3.40838">
        <ele>474.2</ele>
        <time>2021-08-05T16:50:01Z</time>
      </trkpt>
      <trkpt lat="45.25193" lon="3.40823">
        <ele>475.1</ele>
        <time>2021-08-05T16:50:03Z</time>
      </trkpt>
      <trkpt lat="45.25196" lon="3.40809">
        <ele>476.1</ele>
        <time>2021-08-05T16:50:05Z</time>
      </trkpt>
      <trkpt lat="45.25201" lon="3.40798">
        <ele>476.1</ele>
        <time>2021-08-05T16:50:07Z</time>
      </trkpt>
      <trkpt lat="45.25204" lon="3.40787">
        <ele>476.1</ele>
        <time>2021-08-05T16:50:09Z</time>
      </trkpt>
      <trkpt lat="45.25209" lon="3.40779">
        <ele>475.3</ele>
        <time>2021-08-05T16:50:11Z</time>
      </trkpt>
      <trkpt lat="45.25213" lon="3.4077">
        <ele>474.7</ele>
        <time>2021-08-05T16:50:13Z</time>
      </trkpt>
      <trkpt lat="45.25216" lon="3.40761">
        <ele>474</ele>
        <time>2021-08-05T16:50:15Z</time>
      </trkpt>
      <trkpt lat="45.25219" lon="3.40753">
        <ele>473.1</ele>
        <time>2021-08-05T16:50:17Z</time>
      </trkpt>
      <trkpt lat="45.25222" lon="3.40745">
        <ele>473.1</ele>
        <time>2021-08-05T16:50:19Z</time>
      </trkpt>
      <trkpt lat="45.25225" lon="3.40738">
        <ele>473.3</ele>
        <time>2021-08-05T16:50:21Z</time>
      </trkpt>
      <trkpt lat="45.25228" lon="3.40731">
        <ele>473.2</ele>
        <time>2021-08-05T16:50:23Z</time>
      </trkpt>
      <trkpt lat="45.25232" lon="3.40724">
        <ele>473</ele>
        <time>2021-08-05T16:50:25Z</time>
      </trkpt>
      <trkpt lat="45.25235" lon="3.40718">
        <ele>472.8</ele>
        <time>2021-08-05T16:50:27Z</time>
      </trkpt>
      <trkpt lat="45.25238" lon="3.40713">
        <ele>472.3</ele>
        <time>2021-08-05T16:50:29Z</time>
      </trkpt>
      <trkpt lat="45.25243" lon="3.40708">
        <ele>471.2</ele>
        <time>2021-08-05T16:50:31Z</time>
      </trkpt>
      <trkpt lat="45.25247" lon="3.40702">
        <ele>470.4</ele>
        <time>2021-08-05T16:50:33Z</time>
      </trkpt>
      <trkpt lat="45.25251" lon="3.40697">
        <ele>469.9</ele>
        <time>2021-08-05T16:50:35Z</time>
      </trkpt>
      <trkpt lat="45.25255" lon="3.40691">
        <ele>470.3</ele>
        <time>2021-08-05T16:50:37Z</time>
      </trkpt>
      <trkpt lat="45.25256" lon="3.40687">
        <ele>470.7</ele>
        <time>2021-08-05T16:50:39Z</time>
      </trkpt>
      <trkpt lat="45.25258" lon="3.40682">
        <ele>471.1</ele>
        <time>2021-08-05T16:50:41Z</time>
      </trkpt>
      <trkpt lat="45.2526" lon="3.40676">
        <ele>471.5</ele>
        <time>2021-08-05T16:50:43Z</time>
      </trkpt>
      <trkpt lat="45.25263" lon="3.40671">
        <ele>471.7</ele>
        <time>2021-08-05T16:50:45Z</time>
      </trkpt>
      <trkpt lat="45.25265" lon="3.40665">
        <ele>472.1</ele>
        <time>2021-08-05T16:50:47Z</time>
      </trkpt>
      <trkpt lat="45.25269" lon="3.40658">
        <ele>473.1</ele>
        <time>2021-08-05T16:50:49Z</time>
      </trkpt>
      <trkpt lat="45.25271" lon="3.40653">
        <ele>473.8</ele>
        <time>2021-08-05T16:50:51Z</time>
      </trkpt>
      <trkpt lat="45.25274" lon="3.40648">
        <ele>474.5</ele>
        <time>2021-08-05T16:50:53Z</time>
      </trkpt>
      <trkpt lat="45.25277" lon="3.40642">
        <ele>475</ele>
        <time>2021-08-05T16:50:55Z</time>
      </trkpt>
      <trkpt lat="45.2528" lon="3.40638">
        <ele>475.3</ele>
        <time>2021-08-05T16:50:57Z</time>
      </trkpt>
      <trkpt lat="45.25283" lon="3.40634">
        <ele>475.6</ele>
        <time>2021-08-05T16:50:59Z</time>
      </trkpt>
      <trkpt lat="45.25286" lon="3.4063">
        <ele>475.6</ele>
        <time>2021-08-05T16:51:01Z</time>
      </trkpt>
      <trkpt lat="45.25289" lon="3.40626">
        <ele>475.5</ele>
        <time>2021-08-05T16:51:03Z</time>
      </trkpt>
      <trkpt lat="45.25292" lon="3.40623">
        <ele>475.4</ele>
        <time>2021-08-05T16:51:05Z</time>
      </trkpt>
      <trkpt lat="45.25295" lon="3.4062">
        <ele>475.5</ele>
        <time>2021-08-05T16:51:07Z</time>
      </trkpt>
      <trkpt lat="45.25299" lon="3.40618">
        <ele>475</ele>
        <time>2021-08-05T16:51:09Z</time>
      </trkpt>
      <trkpt lat="45.25301" lon="3.40613">
        <ele>475.1</ele>
        <time>2021-08-05T16:51:11Z</time>
      </trkpt>
      <trkpt lat="45.25305" lon="3.40609">
        <ele>475</ele>
        <time>2021-08-05T16:51:13Z</time>
      </trkpt>
      <trkpt lat="45.25308" lon="3.40606">
        <ele>474.6</ele>
        <time>2021-08-05T16:51:15Z</time>
      </trkpt>
      <trkpt lat="45.25311" lon="3.40603">
        <ele>474.3</ele>
        <time>2021-08-05T16:51:17Z</time>
      </trkpt>
      <trkpt lat="45.25314" lon="3.406">
        <ele>474</ele>
        <time>2021-08-05T16:51:19Z</time>
      </trkpt>
      <trkpt lat="45.25317" lon="3.40597">
        <ele>473.6</ele>
        <time>2021-08-05T16:51:21Z</time>
      </trkpt>
      <trkpt lat="45.2532" lon="3.40594">
        <ele>473.4</ele>
        <time>2021-08-05T16:51:23Z</time>
      </trkpt>
      <trkpt lat="45.25324" lon="3.40592">
        <ele>472.4</ele>
        <time>2021-08-05T16:51:25Z</time>
      </trkpt>
      <trkpt lat="45.25327" lon="3.40592">
        <ele>471.6</ele>
        <time>2021-08-05T16:51:27Z</time>
      </trkpt>
      <trkpt lat="45.2533" lon="3.40588">
        <ele>471.4</ele>
        <time>2021-08-05T16:51:29Z</time>
      </trkpt>
      <trkpt lat="45.25334" lon="3.40587">
        <ele>470.3</ele>
        <time>2021-08-05T16:51:31Z</time>
      </trkpt>
      <trkpt lat="45.25337" lon="3.40586">
        <ele>469.9</ele>
        <time>2021-08-05T16:51:33Z</time>
      </trkpt>
      <trkpt lat="45.25341" lon="3.40583">
        <ele>469.4</ele>
        <time>2021-08-05T16:51:35Z</time>
      </trkpt>
      <trkpt lat="45.25344" lon="3.40581">
        <ele>469.1</ele>
        <time>2021-08-05T16:51:37Z</time>
      </trkpt>
      <trkpt lat="45.25348" lon="3.40579">
        <ele>468.6</ele>
        <time>2021-08-05T16:51:39Z</time>
      </trkpt>
      <trkpt lat="45.25352" lon="3.40576">
        <ele>468</ele>
        <time>2021-08-05T16:51:41Z</time>
      </trkpt>
      <trkpt lat="45.25356" lon="3.40574">
        <ele>467.3</ele>
        <time>2021-08-05T16:51:43Z</time>
      </trkpt>
      <trkpt lat="45.2536" lon="3.40572">
        <ele>466.8</ele>
        <time>2021-08-05T16:51:45Z</time>
      </trkpt>
      <trkpt lat="45.25363" lon="3.4057">
        <ele>466.4</ele>
        <time>2021-08-05T16:51:47Z</time>
      </trkpt>
      <trkpt lat="45.25367" lon="3.40567">
        <ele>465.8</ele>
        <time>2021-08-05T16:51:49Z</time>
      </trkpt>
      <trkpt lat="45.25371" lon="3.40565">
        <ele>465.3</ele>
        <time>2021-08-05T16:51:51Z</time>
      </trkpt>
      <trkpt lat="45.25375" lon="3.40561">
        <ele>464.9</ele>
        <time>2021-08-05T16:51:53Z</time>
      </trkpt>
      <trkpt lat="45.25378" lon="3.40557">
        <ele>464.5</ele>
        <time>2021-08-05T16:51:55Z</time>
      </trkpt>
      <trkpt lat="45.25382" lon="3.40552">
        <ele>464.2</ele>
        <time>2021-08-05T16:51:57Z</time>
      </trkpt>
      <trkpt lat="45.25385" lon="3.40547">
        <ele>464</ele>
        <time>2021-08-05T16:51:59Z</time>
      </trkpt>
      <trkpt lat="45.25388" lon="3.40542">
        <ele>463.9</ele>
        <time>2021-08-05T16:52:01Z</time>
      </trkpt>
      <trkpt lat="45.25389" lon="3.40535">
        <ele>464.2</ele>
        <time>2021-08-05T16:52:03Z</time>
      </trkpt>
      <trkpt lat="45.25389" lon="3.40529">
        <ele>464.7</ele>
        <time>2021-08-05T16:52:05Z</time>
      </trkpt>
      <trkpt lat="45.2539" lon="3.40526">
        <ele>465</ele>
        <time>2021-08-05T16:52:07Z</time>
      </trkpt>
      <trkpt lat="45.25389" lon="3.40522">
        <ele>465.5</ele>
        <time>2021-08-05T16:52:09Z</time>
      </trkpt>
      <trkpt lat="45.25389" lon="3.40519">
        <ele>465.9</ele>
        <time>2021-08-05T16:52:11Z</time>
      </trkpt>
      <trkpt lat="45.25388" lon="3.40515">
        <ele>466.3</ele>
        <time>2021-08-05T16:52:13Z</time>
      </trkpt>
      <trkpt lat="45.25388" lon="3.40512">
        <ele>466.8</ele>
        <time>2021-08-05T16:52:15Z</time>
      </trkpt>
      <trkpt lat="45.25386" lon="3.40509">
        <ele>467.4</ele>
        <time>2021-08-05T16:52:17Z</time>
      </trkpt>
      <trkpt lat="45.25385" lon="3.40507">
        <ele>467.9</ele>
        <time>2021-08-05T16:52:19Z</time>
      </trkpt>
      <trkpt lat="45.25384" lon="3.40506">
        <ele>468.2</ele>
        <time>2021-08-05T16:52:21Z</time>
      </trkpt>
      <trkpt lat="45.25383" lon="3.40506">
        <ele>468.4</ele>
        <time>2021-08-05T16:52:23Z</time>
      </trkpt>
      <trkpt lat="45.25383" lon="3.40505">
        <ele>468.5</ele>
        <time>2021-08-05T16:52:25Z</time>
      </trkpt>
      <trkpt lat="45.25383" lon="3.40505">
        <ele>468.6</ele>
        <time>2021-08-05T16:52:27Z</time>
      </trkpt>
      <trkpt lat="45.2537" lon="3.40485">
        <ele>470.8</ele>
        <time>2021-08-05T16:52:43Z</time>
      </trkpt>
      <trkpt lat="45.25366" lon="3.40479">
        <ele>471.4</ele>
        <time>2021-08-05T16:52:45Z</time>
      </trkpt>
      <trkpt lat="45.25362" lon="3.40473">
        <ele>471.8</ele>
        <time>2021-08-05T16:52:47Z</time>
      </trkpt>
      <trkpt lat="45.25357" lon="3.40467">
        <ele>472.5</ele>
        <time>2021-08-05T16:52:49Z</time>
      </trkpt>
      <trkpt lat="45.25353" lon="3.40461">
        <ele>472.8</ele>
        <time>2021-08-05T16:52:51Z</time>
      </trkpt>
      <trkpt lat="45.25349" lon="3.40455">
        <ele>473.5</ele>
        <time>2021-08-05T16:52:53Z</time>
      </trkpt>
      <trkpt lat="45.25345" lon="3.40449">
        <ele>473.9</ele>
        <time>2021-08-05T16:52:55Z</time>
      </trkpt>
      <trkpt lat="45.25341" lon="3.40443">
        <ele>474.3</ele>
        <time>2021-08-05T16:52:57Z</time>
      </trkpt>
      <trkpt lat="45.25337" lon="3.40436">
        <ele>474.8</ele>
        <time>2021-08-05T16:52:59Z</time>
      </trkpt>
      <trkpt lat="45.25332" lon="3.40428">
        <ele>475.3</ele>
        <time>2021-08-05T16:53:01Z</time>
      </trkpt>
      <trkpt lat="45.25328" lon="3.40421">
        <ele>476</ele>
        <time>2021-08-05T16:53:03Z</time>
      </trkpt>
      <trkpt lat="45.25323" lon="3.40414">
        <ele>476.6</ele>
        <time>2021-08-05T16:53:05Z</time>
      </trkpt>
      <trkpt lat="45.25318" lon="3.40407">
        <ele>476.9</ele>
        <time>2021-08-05T16:53:07Z</time>
      </trkpt>
      <trkpt lat="45.25317" lon="3.40405">
        <ele>476.8</ele>
        <time>2021-08-05T16:53:09Z</time>
      </trkpt>
      <trkpt lat="45.25317" lon="3.40404">
        <ele>476.7</ele>
        <time>2021-08-05T16:53:11Z</time>
      </trkpt>
      <trkpt lat="45.25317" lon="3.40404">
        <ele>476.6</ele>
        <time>2021-08-05T16:53:13Z</time>
      </trkpt>
      <trkpt lat="45.25317" lon="3.40403">
        <ele>476.4</ele>
        <time>2021-08-05T16:53:15Z</time>
      </trkpt>
      <trkpt lat="45.25317" lon="3.40403">
        <ele>476.3</ele>
        <time>2021-08-05T16:53:17Z</time>
      </trkpt>
      <trkpt lat="45.25317" lon="3.40403">
        <ele>476.3</ele>
        <time>2021-08-05T16:53:19Z</time>
      </trkpt>
      <trkpt lat="45.25307" lon="3.40388">
        <ele>476.7</ele>
        <time>2021-08-05T16:55:31Z</time>
      </trkpt>
      <trkpt lat="45.25304" lon="3.40382">
        <ele>476.3</ele>
        <time>2021-08-05T16:55:33Z</time>
      </trkpt>
      <trkpt lat="45.25301" lon="3.40377">
        <ele>476.3</ele>
        <time>2021-08-05T16:55:35Z</time>
      </trkpt>
      <trkpt lat="45.25297" lon="3.4037">
        <ele>476.1</ele>
        <time>2021-08-05T16:55:37Z</time>
      </trkpt>
      <trkpt lat="45.25293" lon="3.40363">
        <ele>475.9</ele>
        <time>2021-08-05T16:55:39Z</time>
      </trkpt>
      <trkpt lat="45.2529" lon="3.40357">
        <ele>475.7</ele>
        <time>2021-08-05T16:55:41Z</time>
      </trkpt>
      <trkpt lat="45.25285" lon="3.40352">
        <ele>475.8</ele>
        <time>2021-08-05T16:55:43Z</time>
      </trkpt>
      <trkpt lat="45.25282" lon="3.40346">
        <ele>475.5</ele>
        <time>2021-08-05T16:55:45Z</time>
      </trkpt>
      <trkpt lat="45.25277" lon="3.4034">
        <ele>475.6</ele>
        <time>2021-08-05T16:55:47Z</time>
      </trkpt>
      <trkpt lat="45.25272" lon="3.40334">
        <ele>475.7</ele>
        <time>2021-08-05T16:55:49Z</time>
      </trkpt>
      <trkpt lat="45.25267" lon="3.40328">
        <ele>475.6</ele>
        <time>2021-08-05T16:55:51Z</time>
      </trkpt>
      <trkpt lat="45.25261" lon="3.40322">
        <ele>475.8</ele>
        <time>2021-08-05T16:55:53Z</time>
      </trkpt>
      <trkpt lat="45.25256" lon="3.40315">
        <ele>475.6</ele>
        <time>2021-08-05T16:55:55Z</time>
      </trkpt>
      <trkpt lat="45.2525" lon="3.4031">
        <ele>475.7</ele>
        <time>2021-08-05T16:55:57Z</time>
      </trkpt>
      <trkpt lat="45.25244" lon="3.40304">
        <ele>475.9</ele>
        <time>2021-08-05T16:55:59Z</time>
      </trkpt>
      <trkpt lat="45.25238" lon="3.40298">
        <ele>476.1</ele>
        <time>2021-08-05T16:56:01Z</time>
      </trkpt>
      <trkpt lat="45.25232" lon="3.40292">
        <ele>476.4</ele>
        <time>2021-08-05T16:56:03Z</time>
      </trkpt>
      <trkpt lat="45.25227" lon="3.40287">
        <ele>476.6</ele>
        <time>2021-08-05T16:56:05Z</time>
      </trkpt>
      <trkpt lat="45.25222" lon="3.40282">
        <ele>476.7</ele>
        <time>2021-08-05T16:56:07Z</time>
      </trkpt>
      <trkpt lat="45.25216" lon="3.40276">
        <ele>476.8</ele>
        <time>2021-08-05T16:56:09Z</time>
      </trkpt>
      <trkpt lat="45.25209" lon="3.4027">
        <ele>476.9</ele>
        <time>2021-08-05T16:56:11Z</time>
      </trkpt>
      <trkpt lat="45.25203" lon="3.40262">
        <ele>476.5</ele>
        <time>2021-08-05T16:56:13Z</time>
      </trkpt>
      <trkpt lat="45.25195" lon="3.40256">
        <ele>476.7</ele>
        <time>2021-08-05T16:56:15Z</time>
      </trkpt>
      <trkpt lat="45.25188" lon="3.40247">
        <ele>476.2</ele>
        <time>2021-08-05T16:56:17Z</time>
      </trkpt>
      <trkpt lat="45.25181" lon="3.4024">
        <ele>476.1</ele>
        <time>2021-08-05T16:56:19Z</time>
      </trkpt>
      <trkpt lat="45.25173" lon="3.40232">
        <ele>475.9</ele>
        <time>2021-08-05T16:56:21Z</time>
      </trkpt>
      <trkpt lat="45.25166" lon="3.40223">
        <ele>475.3</ele>
        <time>2021-08-05T16:56:23Z</time>
      </trkpt>
      <trkpt lat="45.25158" lon="3.40215">
        <ele>475.7</ele>
        <time>2021-08-05T16:56:25Z</time>
      </trkpt>
      <trkpt lat="45.25152" lon="3.40206">
        <ele>475.4</ele>
        <time>2021-08-05T16:56:27Z</time>
      </trkpt>
      <trkpt lat="45.25147" lon="3.40196">
        <ele>474.3</ele>
        <time>2021-08-05T16:56:29Z</time>
      </trkpt>
      <trkpt lat="45.2514" lon="3.40186">
        <ele>473.7</ele>
        <time>2021-08-05T16:56:31Z</time>
      </trkpt>
      <trkpt lat="45.25133" lon="3.40176">
        <ele>473.1</ele>
        <time>2021-08-05T16:56:33Z</time>
      </trkpt>
      <trkpt lat="45.25126" lon="3.40165">
        <ele>472.3</ele>
        <time>2021-08-05T16:56:35Z</time>
      </trkpt>
      <trkpt lat="45.25118" lon="3.40157">
        <ele>472.3</ele>
        <time>2021-08-05T16:56:37Z</time>
      </trkpt>
      <trkpt lat="45.25109" lon="3.40149">
        <ele>472.6</ele>
        <time>2021-08-05T16:56:39Z</time>
      </trkpt>
      <trkpt lat="45.251" lon="3.40143">
        <ele>473.2</ele>
        <time>2021-08-05T16:56:41Z</time>
      </trkpt>
      <trkpt lat="45.25091" lon="3.40137">
        <ele>473.5</ele>
        <time>2021-08-05T16:56:43Z</time>
      </trkpt>
      <trkpt lat="45.25081" lon="3.40128">
        <ele>473</ele>
        <time>2021-08-05T16:56:45Z</time>
      </trkpt>
      <trkpt lat="45.25072" lon="3.40121">
        <ele>472.8</ele>
        <time>2021-08-05T16:56:47Z</time>
      </trkpt>
      <trkpt lat="45.25065" lon="3.40112">
        <ele>471.4</ele>
        <time>2021-08-05T16:56:49Z</time>
      </trkpt>
      <trkpt lat="45.25057" lon="3.40103">
        <ele>470.5</ele>
        <time>2021-08-05T16:56:51Z</time>
      </trkpt>
      <trkpt lat="45.25048" lon="3.40098">
        <ele>471.3</ele>
        <time>2021-08-05T16:56:53Z</time>
      </trkpt>
      <trkpt lat="45.2504" lon="3.40092">
        <ele>471.2</ele>
        <time>2021-08-05T16:56:55Z</time>
      </trkpt>
      <trkpt lat="45.25032" lon="3.40086">
        <ele>471.7</ele>
        <time>2021-08-05T16:56:57Z</time>
      </trkpt>
      <trkpt lat="45.25024" lon="3.4008">
        <ele>471.9</ele>
        <time>2021-08-05T16:56:59Z</time>
      </trkpt>
      <trkpt lat="45.25016" lon="3.40074">
        <ele>471.9</ele>
        <time>2021-08-05T16:57:01Z</time>
      </trkpt>
      <trkpt lat="45.25008" lon="3.40071">
        <ele>472.4</ele>
        <time>2021-08-05T16:57:03Z</time>
      </trkpt>
      <trkpt lat="45.25" lon="3.40066">
        <ele>472.4</ele>
        <time>2021-08-05T16:57:05Z</time>
      </trkpt>
      <trkpt lat="45.24993" lon="3.40062">
        <ele>471.8</ele>
        <time>2021-08-05T16:57:07Z</time>
      </trkpt>
      <trkpt lat="45.24985" lon="3.40061">
        <ele>471.9</ele>
        <time>2021-08-05T16:57:09Z</time>
      </trkpt>
      <trkpt lat="45.24977" lon="3.40061">
        <ele>472.4</ele>
        <time>2021-08-05T16:57:11Z</time>
      </trkpt>
      <trkpt lat="45.24968" lon="3.4006">
        <ele>472.9</ele>
        <time>2021-08-05T16:57:13Z</time>
      </trkpt>
      <trkpt lat="45.24959" lon="3.4006">
        <ele>473.5</ele>
        <time>2021-08-05T16:57:15Z</time>
      </trkpt>
      <trkpt lat="45.2495" lon="3.40058">
        <ele>473.5</ele>
        <time>2021-08-05T16:57:17Z</time>
      </trkpt>
      <trkpt lat="45.24939" lon="3.40054">
        <ele>473.4</ele>
        <time>2021-08-05T16:57:19Z</time>
      </trkpt>
      <trkpt lat="45.24928" lon="3.4005">
        <ele>473</ele>
        <time>2021-08-05T16:57:21Z</time>
      </trkpt>
      <trkpt lat="45.24916" lon="3.40045">
        <ele>472.5</ele>
        <time>2021-08-05T16:57:23Z</time>
      </trkpt>
      <trkpt lat="45.24904" lon="3.4004">
        <ele>472.1</ele>
        <time>2021-08-05T16:57:25Z</time>
      </trkpt>
      <trkpt lat="45.2489" lon="3.40036">
        <ele>472.1</ele>
        <time>2021-08-05T16:57:27Z</time>
      </trkpt>
      <trkpt lat="45.24876" lon="3.40031">
        <ele>471.9</ele>
        <time>2021-08-05T16:57:29Z</time>
      </trkpt>
      <trkpt lat="45.24863" lon="3.40024">
        <ele>471.4</ele>
        <time>2021-08-05T16:57:31Z</time>
      </trkpt>
      <trkpt lat="45.24851" lon="3.40017">
        <ele>470.8</ele>
        <time>2021-08-05T16:57:33Z</time>
      </trkpt>
      <trkpt lat="45.24836" lon="3.40011">
        <ele>471</ele>
        <time>2021-08-05T16:57:35Z</time>
      </trkpt>
      <trkpt lat="45.2482" lon="3.40006">
        <ele>471.6</ele>
        <time>2021-08-05T16:57:37Z</time>
      </trkpt>
      <trkpt lat="45.24804" lon="3.40004">
        <ele>473</ele>
        <time>2021-08-05T16:57:39Z</time>
      </trkpt>
      <trkpt lat="45.24787" lon="3.40006">
        <ele>474.9</ele>
        <time>2021-08-05T16:57:41Z</time>
      </trkpt>
      <trkpt lat="45.24772" lon="3.40006">
        <ele>476.4</ele>
        <time>2021-08-05T16:57:43Z</time>
      </trkpt>
      <trkpt lat="45.24758" lon="3.4">
        <ele>477.1</ele>
        <time>2021-08-05T16:57:45Z</time>
      </trkpt>
      <trkpt lat="45.24749" lon="3.39986">
        <ele>479.5</ele>
        <time>2021-08-05T16:57:47Z</time>
      </trkpt>
      <trkpt lat="45.24751" lon="3.39966">
        <ele>481.1</ele>
        <time>2021-08-05T16:57:49Z</time>
      </trkpt>
      <trkpt lat="45.24755" lon="3.39953">
        <ele>481.6</ele>
        <time>2021-08-05T16:57:51Z</time>
      </trkpt>
      <trkpt lat="45.24765" lon="3.39945">
        <ele>480.4</ele>
        <time>2021-08-05T16:57:53Z</time>
      </trkpt>
      <trkpt lat="45.24775" lon="3.3994">
        <ele>478.9</ele>
        <time>2021-08-05T16:57:55Z</time>
      </trkpt>
      <trkpt lat="45.24785" lon="3.39932">
        <ele>477.3</ele>
        <time>2021-08-05T16:57:57Z</time>
      </trkpt>
      <trkpt lat="45.24795" lon="3.39925">
        <ele>475.5</ele>
        <time>2021-08-05T16:57:59Z</time>
      </trkpt>
      <trkpt lat="45.24804" lon="3.3992">
        <ele>473.5</ele>
        <time>2021-08-05T16:58:01Z</time>
      </trkpt>
      <trkpt lat="45.24811" lon="3.39914">
        <ele>472.2</ele>
        <time>2021-08-05T16:58:03Z</time>
      </trkpt>
      <trkpt lat="45.24819" lon="3.39909">
        <ele>470.8</ele>
        <time>2021-08-05T16:58:05Z</time>
      </trkpt>
      <trkpt lat="45.24826" lon="3.39903">
        <ele>469.6</ele>
        <time>2021-08-05T16:58:07Z</time>
      </trkpt>
      <trkpt lat="45.24833" lon="3.39899">
        <ele>468.3</ele>
        <time>2021-08-05T16:58:09Z</time>
      </trkpt>
      <trkpt lat="45.24841" lon="3.39893">
        <ele>467.3</ele>
        <time>2021-08-05T16:58:11Z</time>
      </trkpt>
      <trkpt lat="45.24845" lon="3.39888">
        <ele>466.8</ele>
        <time>2021-08-05T16:58:13Z</time>
      </trkpt>
      <trkpt lat="45.24852" lon="3.39884">
        <ele>465.9</ele>
        <time>2021-08-05T16:58:15Z</time>
      </trkpt>
      <trkpt lat="45.24858" lon="3.39879">
        <ele>465</ele>
        <time>2021-08-05T16:58:17Z</time>
      </trkpt>
      <trkpt lat="45.24864" lon="3.39875">
        <ele>464.2</ele>
        <time>2021-08-05T16:58:19Z</time>
      </trkpt>
      <trkpt lat="45.24868" lon="3.39868">
        <ele>463.7</ele>
        <time>2021-08-05T16:58:21Z</time>
      </trkpt>
      <trkpt lat="45.24871" lon="3.39859">
        <ele>463.6</ele>
        <time>2021-08-05T16:58:23Z</time>
      </trkpt>
      <trkpt lat="45.24871" lon="3.3985">
        <ele>464</ele>
        <time>2021-08-05T16:58:25Z</time>
      </trkpt>
      <trkpt lat="45.24869" lon="3.39842">
        <ele>464.9</ele>
        <time>2021-08-05T16:58:27Z</time>
      </trkpt>
      <trkpt lat="45.24865" lon="3.39834">
        <ele>466.2</ele>
        <time>2021-08-05T16:58:29Z</time>
      </trkpt>
      <trkpt lat="45.2486" lon="3.39826">
        <ele>466.5</ele>
        <time>2021-08-05T16:58:31Z</time>
      </trkpt>
      <trkpt lat="45.24855" lon="3.39818">
        <ele>466.5</ele>
        <time>2021-08-05T16:58:33Z</time>
      </trkpt>
      <trkpt lat="45.2485" lon="3.3981">
        <ele>466.7</ele>
        <time>2021-08-05T16:58:35Z</time>
      </trkpt>
      <trkpt lat="45.24844" lon="3.39803">
        <ele>467.1</ele>
        <time>2021-08-05T16:58:37Z</time>
      </trkpt>
      <trkpt lat="45.24838" lon="3.39797">
        <ele>467.8</ele>
        <time>2021-08-05T16:58:39Z</time>
      </trkpt>
      <trkpt lat="45.24831" lon="3.39793">
        <ele>468.5</ele>
        <time>2021-08-05T16:58:41Z</time>
      </trkpt>
      <trkpt lat="45.24824" lon="3.39789">
        <ele>468.9</ele>
        <time>2021-08-05T16:58:43Z</time>
      </trkpt>
      <trkpt lat="45.24817" lon="3.39784">
        <ele>469.2</ele>
        <time>2021-08-05T16:58:45Z</time>
      </trkpt>
      <trkpt lat="45.24811" lon="3.3978">
        <ele>469.5</ele>
        <time>2021-08-05T16:58:47Z</time>
      </trkpt>
      <trkpt lat="45.24805" lon="3.39776">
        <ele>469.7</ele>
        <time>2021-08-05T16:58:49Z</time>
      </trkpt>
      <trkpt lat="45.24797" lon="3.39772">
        <ele>470</ele>
        <time>2021-08-05T16:58:51Z</time>
      </trkpt>
      <trkpt lat="45.24789" lon="3.39766">
        <ele>470.1</ele>
        <time>2021-08-05T16:58:53Z</time>
      </trkpt>
      <trkpt lat="45.2478" lon="3.39762">
        <ele>470.6</ele>
        <time>2021-08-05T16:58:55Z</time>
      </trkpt>
      <trkpt lat="45.24771" lon="3.39756">
        <ele>470.7</ele>
        <time>2021-08-05T16:58:57Z</time>
      </trkpt>
      <trkpt lat="45.24761" lon="3.39751">
        <ele>471</ele>
        <time>2021-08-05T16:58:59Z</time>
      </trkpt>
      <trkpt lat="45.24751" lon="3.39744">
        <ele>470.6</ele>
        <time>2021-08-05T16:59:01Z</time>
      </trkpt>
      <trkpt lat="45.24741" lon="3.39738">
        <ele>470.4</ele>
        <time>2021-08-05T16:59:03Z</time>
      </trkpt>
      <trkpt lat="45.24731" lon="3.39733">
        <ele>470.2</ele>
        <time>2021-08-05T16:59:05Z</time>
      </trkpt>
      <trkpt lat="45.24721" lon="3.39726">
        <ele>469.6</ele>
        <time>2021-08-05T16:59:07Z</time>
      </trkpt>
      <trkpt lat="45.24708" lon="3.39719">
        <ele>469.1</ele>
        <time>2021-08-05T16:59:09Z</time>
      </trkpt>
      <trkpt lat="45.24697" lon="3.39713">
        <ele>468.8</ele>
        <time>2021-08-05T16:59:11Z</time>
      </trkpt>
      <trkpt lat="45.24686" lon="3.39707">
        <ele>468.3</ele>
        <time>2021-08-05T16:59:13Z</time>
      </trkpt>
      <trkpt lat="45.24674" lon="3.39701">
        <ele>467.9</ele>
        <time>2021-08-05T16:59:15Z</time>
      </trkpt>
      <trkpt lat="45.24663" lon="3.39701">
        <ele>468.6</ele>
        <time>2021-08-05T16:59:17Z</time>
      </trkpt>
      <trkpt lat="45.24649" lon="3.39694">
        <ele>467.6</ele>
        <time>2021-08-05T16:59:19Z</time>
      </trkpt>
      <trkpt lat="45.24637" lon="3.39693">
        <ele>468.1</ele>
        <time>2021-08-05T16:59:21Z</time>
      </trkpt>
      <trkpt lat="45.24622" lon="3.39692">
        <ele>468.9</ele>
        <time>2021-08-05T16:59:23Z</time>
      </trkpt>
      <trkpt lat="45.24609" lon="3.39689">
        <ele>469</ele>
        <time>2021-08-05T16:59:25Z</time>
      </trkpt>
      <trkpt lat="45.24596" lon="3.39683">
        <ele>468.2</ele>
        <time>2021-08-05T16:59:27Z</time>
      </trkpt>
      <trkpt lat="45.24584" lon="3.39675">
        <ele>467</ele>
        <time>2021-08-05T16:59:29Z</time>
      </trkpt>
      <trkpt lat="45.24573" lon="3.39667">
        <ele>465.3</ele>
        <time>2021-08-05T16:59:31Z</time>
      </trkpt>
      <trkpt lat="45.24562" lon="3.39662">
        <ele>464.2</ele>
        <time>2021-08-05T16:59:33Z</time>
      </trkpt>
      <trkpt lat="45.24551" lon="3.3966">
        <ele>463.9</ele>
        <time>2021-08-05T16:59:35Z</time>
      </trkpt>
      <trkpt lat="45.24539" lon="3.39658">
        <ele>463.7</ele>
        <time>2021-08-05T16:59:37Z</time>
      </trkpt>
      <trkpt lat="45.24528" lon="3.3966">
        <ele>464.4</ele>
        <time>2021-08-05T16:59:39Z</time>
      </trkpt>
      <trkpt lat="45.24518" lon="3.39661">
        <ele>465.1</ele>
        <time>2021-08-05T16:59:41Z</time>
      </trkpt>
      <trkpt lat="45.24508" lon="3.39663">
        <ele>465.8</ele>
        <time>2021-08-05T16:59:43Z</time>
      </trkpt>
      <trkpt lat="45.24498" lon="3.39665">
        <ele>466.2</ele>
        <time>2021-08-05T16:59:45Z</time>
      </trkpt>
      <trkpt lat="45.24488" lon="3.39668">
        <ele>465.6</ele>
        <time>2021-08-05T16:59:47Z</time>
      </trkpt>
      <trkpt lat="45.24478" lon="3.3967">
        <ele>465.1</ele>
        <time>2021-08-05T16:59:49Z</time>
      </trkpt>
      <trkpt lat="45.24469" lon="3.39675">
        <ele>465.2</ele>
        <time>2021-08-05T16:59:51Z</time>
      </trkpt>
      <trkpt lat="45.2446" lon="3.3968">
        <ele>465.7</ele>
        <time>2021-08-05T16:59:53Z</time>
      </trkpt>
      <trkpt lat="45.24452" lon="3.39686">
        <ele>466.5</ele>
        <time>2021-08-05T16:59:55Z</time>
      </trkpt>
      <trkpt lat="45.24442" lon="3.3969">
        <ele>466.8</ele>
        <time>2021-08-05T16:59:57Z</time>
      </trkpt>
      <trkpt lat="45.24433" lon="3.39694">
        <ele>467.3</ele>
        <time>2021-08-05T16:59:59Z</time>
      </trkpt>
      <trkpt lat="45.24424" lon="3.39696">
        <ele>467.2</ele>
        <time>2021-08-05T17:00:01Z</time>
      </trkpt>
      <trkpt lat="45.24415" lon="3.39697">
        <ele>466.5</ele>
        <time>2021-08-05T17:00:03Z</time>
      </trkpt>
      <trkpt lat="45.24406" lon="3.39698">
        <ele>465.2</ele>
        <time>2021-08-05T17:00:05Z</time>
      </trkpt>
      <trkpt lat="45.24398" lon="3.39701">
        <ele>464.9</ele>
        <time>2021-08-05T17:00:07Z</time>
      </trkpt>
      <trkpt lat="45.24389" lon="3.39705">
        <ele>464.6</ele>
        <time>2021-08-05T17:00:09Z</time>
      </trkpt>
      <trkpt lat="45.24382" lon="3.3971">
        <ele>465.2</ele>
        <time>2021-08-05T17:00:11Z</time>
      </trkpt>
      <trkpt lat="45.24375" lon="3.39715">
        <ele>465.8</ele>
        <time>2021-08-05T17:00:13Z</time>
      </trkpt>
      <trkpt lat="45.24369" lon="3.39721">
        <ele>467</ele>
        <time>2021-08-05T17:00:15Z</time>
      </trkpt>
      <trkpt lat="45.24362" lon="3.39729">
        <ele>468.3</ele>
        <time>2021-08-05T17:00:17Z</time>
      </trkpt>
      <trkpt lat="45.24355" lon="3.39734">
        <ele>469.2</ele>
        <time>2021-08-05T17:00:19Z</time>
      </trkpt>
      <trkpt lat="45.24348" lon="3.3974">
        <ele>469.9</ele>
        <time>2021-08-05T17:00:21Z</time>
      </trkpt>
      <trkpt lat="45.2434" lon="3.39745">
        <ele>470.3</ele>
        <time>2021-08-05T17:00:23Z</time>
      </trkpt>
      <trkpt lat="45.24332" lon="3.39748">
        <ele>470.2</ele>
        <time>2021-08-05T17:00:25Z</time>
      </trkpt>
      <trkpt lat="45.24323" lon="3.3975">
        <ele>470.7</ele>
        <time>2021-08-05T17:00:27Z</time>
      </trkpt>
      <trkpt lat="45.24315" lon="3.39753">
        <ele>471.4</ele>
        <time>2021-08-05T17:00:29Z</time>
      </trkpt>
      <trkpt lat="45.24307" lon="3.39755">
        <ele>471.8</ele>
        <time>2021-08-05T17:00:31Z</time>
      </trkpt>
      <trkpt lat="45.24299" lon="3.39756">
        <ele>472.3</ele>
        <time>2021-08-05T17:00:33Z</time>
      </trkpt>
      <trkpt lat="45.2429" lon="3.39757">
        <ele>472.4</ele>
        <time>2021-08-05T17:00:35Z</time>
      </trkpt>
      <trkpt lat="45.24282" lon="3.39758">
        <ele>472.4</ele>
        <time>2021-08-05T17:00:37Z</time>
      </trkpt>
      <trkpt lat="45.24274" lon="3.39758">
        <ele>471.9</ele>
        <time>2021-08-05T17:00:39Z</time>
      </trkpt>
      <trkpt lat="45.24265" lon="3.39757">
        <ele>471.1</ele>
        <time>2021-08-05T17:00:41Z</time>
      </trkpt>
      <trkpt lat="45.24257" lon="3.39756">
        <ele>470.1</ele>
        <time>2021-08-05T17:00:43Z</time>
      </trkpt>
      <trkpt lat="45.24248" lon="3.39755">
        <ele>469.5</ele>
        <time>2021-08-05T17:00:45Z</time>
      </trkpt>
      <trkpt lat="45.24239" lon="3.39755">
        <ele>469.6</ele>
        <time>2021-08-05T17:00:47Z</time>
      </trkpt>
      <trkpt lat="45.2423" lon="3.39756">
        <ele>469.9</ele>
        <time>2021-08-05T17:00:49Z</time>
      </trkpt>
      <trkpt lat="45.24221" lon="3.39756">
        <ele>470.2</ele>
        <time>2021-08-05T17:00:51Z</time>
      </trkpt>
      <trkpt lat="45.24213" lon="3.39756">
        <ele>470.3</ele>
        <time>2021-08-05T17:00:53Z</time>
      </trkpt>
      <trkpt lat="45.24204" lon="3.39755">
        <ele>470.1</ele>
        <time>2021-08-05T17:00:55Z</time>
      </trkpt>
      <trkpt lat="45.24194" lon="3.39753">
        <ele>469.5</ele>
        <time>2021-08-05T17:00:57Z</time>
      </trkpt>
      <trkpt lat="45.24185" lon="3.39751">
        <ele>468.8</ele>
        <time>2021-08-05T17:00:59Z</time>
      </trkpt>
      <trkpt lat="45.24176" lon="3.39748">
        <ele>468.3</ele>
        <time>2021-08-05T17:01:01Z</time>
      </trkpt>
      <trkpt lat="45.24167" lon="3.39745">
        <ele>467.9</ele>
        <time>2021-08-05T17:01:03Z</time>
      </trkpt>
      <trkpt lat="45.24159" lon="3.39742">
        <ele>467.1</ele>
        <time>2021-08-05T17:01:05Z</time>
      </trkpt>
      <trkpt lat="45.2415" lon="3.39739">
        <ele>466.3</ele>
        <time>2021-08-05T17:01:07Z</time>
      </trkpt>
      <trkpt lat="45.24141" lon="3.39736">
        <ele>465.4</ele>
        <time>2021-08-05T17:01:09Z</time>
      </trkpt>
      <trkpt lat="45.24131" lon="3.39733">
        <ele>464.7</ele>
        <time>2021-08-05T17:01:11Z</time>
      </trkpt>
      <trkpt lat="45.24121" lon="3.3973">
        <ele>463.9</ele>
        <time>2021-08-05T17:01:13Z</time>
      </trkpt>
      <trkpt lat="45.24111" lon="3.39728">
        <ele>463.4</ele>
        <time>2021-08-05T17:01:15Z</time>
      </trkpt>
      <trkpt lat="45.241" lon="3.39726">
        <ele>463</ele>
        <time>2021-08-05T17:01:17Z</time>
      </trkpt>
      <trkpt lat="45.24089" lon="3.39727">
        <ele>463</ele>
        <time>2021-08-05T17:01:19Z</time>
      </trkpt>
      <trkpt lat="45.24077" lon="3.39728">
        <ele>462.6</ele>
        <time>2021-08-05T17:01:21Z</time>
      </trkpt>
      <trkpt lat="45.24066" lon="3.39731">
        <ele>462.2</ele>
        <time>2021-08-05T17:01:23Z</time>
      </trkpt>
      <trkpt lat="45.24054" lon="3.39734">
        <ele>461.8</ele>
        <time>2021-08-05T17:01:25Z</time>
      </trkpt>
      <trkpt lat="45.24043" lon="3.39737">
        <ele>461.5</ele>
        <time>2021-08-05T17:01:27Z</time>
      </trkpt>
      <trkpt lat="45.24032" lon="3.3974">
        <ele>461.2</ele>
        <time>2021-08-05T17:01:29Z</time>
      </trkpt>
      <trkpt lat="45.24021" lon="3.39743">
        <ele>461.1</ele>
        <time>2021-08-05T17:01:31Z</time>
      </trkpt>
      <trkpt lat="45.24011" lon="3.39746">
        <ele>460.9</ele>
        <time>2021-08-05T17:01:33Z</time>
      </trkpt>
      <trkpt lat="45.24001" lon="3.39749">
        <ele>460.8</ele>
        <time>2021-08-05T17:01:35Z</time>
      </trkpt>
      <trkpt lat="45.23991" lon="3.39751">
        <ele>460.4</ele>
        <time>2021-08-05T17:01:37Z</time>
      </trkpt>
      <trkpt lat="45.23983" lon="3.39755">
        <ele>460.2</ele>
        <time>2021-08-05T17:01:39Z</time>
      </trkpt>
      <trkpt lat="45.23974" lon="3.39758">
        <ele>459.8</ele>
        <time>2021-08-05T17:01:41Z</time>
      </trkpt>
      <trkpt lat="45.23966" lon="3.39762">
        <ele>459.6</ele>
        <time>2021-08-05T17:01:43Z</time>
      </trkpt>
      <trkpt lat="45.23958" lon="3.39766">
        <ele>459.6</ele>
        <time>2021-08-05T17:01:45Z</time>
      </trkpt>
      <trkpt lat="45.23952" lon="3.3977">
        <ele>459.6</ele>
        <time>2021-08-05T17:01:47Z</time>
      </trkpt>
      <trkpt lat="45.23945" lon="3.39774">
        <ele>459.7</ele>
        <time>2021-08-05T17:01:49Z</time>
      </trkpt>
      <trkpt lat="45.23938" lon="3.39777">
        <ele>459.6</ele>
        <time>2021-08-05T17:01:51Z</time>
      </trkpt>
      <trkpt lat="45.23932" lon="3.39781">
        <ele>459.6</ele>
        <time>2021-08-05T17:01:53Z</time>
      </trkpt>
      <trkpt lat="45.23925" lon="3.39784">
        <ele>459.5</ele>
        <time>2021-08-05T17:01:55Z</time>
      </trkpt>
      <trkpt lat="45.23919" lon="3.39788">
        <ele>459.6</ele>
        <time>2021-08-05T17:01:57Z</time>
      </trkpt>
      <trkpt lat="45.23913" lon="3.39792">
        <ele>459.9</ele>
        <time>2021-08-05T17:01:59Z</time>
      </trkpt>
      <trkpt lat="45.23907" lon="3.39795">
        <ele>460.1</ele>
        <time>2021-08-05T17:02:01Z</time>
      </trkpt>
      <trkpt lat="45.23901" lon="3.39798">
        <ele>460.4</ele>
        <time>2021-08-05T17:02:03Z</time>
      </trkpt>
      <trkpt lat="45.23895" lon="3.39802">
        <ele>460.7</ele>
        <time>2021-08-05T17:02:05Z</time>
      </trkpt>
      <trkpt lat="45.23889" lon="3.39805">
        <ele>461.1</ele>
        <time>2021-08-05T17:02:07Z</time>
      </trkpt>
      <trkpt lat="45.23884" lon="3.39809">
        <ele>461.5</ele>
        <time>2021-08-05T17:02:09Z</time>
      </trkpt>
      <trkpt lat="45.23878" lon="3.39812">
        <ele>461.9</ele>
        <time>2021-08-05T17:02:11Z</time>
      </trkpt>
      <trkpt lat="45.23871" lon="3.39817">
        <ele>462.5</ele>
        <time>2021-08-05T17:02:13Z</time>
      </trkpt>
      <trkpt lat="45.23866" lon="3.39822">
        <ele>463.4</ele>
        <time>2021-08-05T17:02:15Z</time>
      </trkpt>
      <trkpt lat="45.2386" lon="3.39827">
        <ele>464.3</ele>
        <time>2021-08-05T17:02:17Z</time>
      </trkpt>
      <trkpt lat="45.23855" lon="3.39831">
        <ele>465.1</ele>
        <time>2021-08-05T17:02:19Z</time>
      </trkpt>
      <trkpt lat="45.23849" lon="3.39836">
        <ele>465.9</ele>
        <time>2021-08-05T17:02:21Z</time>
      </trkpt>
      <trkpt lat="45.23843" lon="3.39841">
        <ele>466.7</ele>
        <time>2021-08-05T17:02:23Z</time>
      </trkpt>
      <trkpt lat="45.23838" lon="3.39846">
        <ele>467.6</ele>
        <time>2021-08-05T17:02:25Z</time>
      </trkpt>
      <trkpt lat="45.23832" lon="3.39852">
        <ele>468.5</ele>
        <time>2021-08-05T17:02:27Z</time>
      </trkpt>
      <trkpt lat="45.23827" lon="3.39859">
        <ele>469.7</ele>
        <time>2021-08-05T17:02:29Z</time>
      </trkpt>
      <trkpt lat="45.23821" lon="3.39865">
        <ele>470.7</ele>
        <time>2021-08-05T17:02:31Z</time>
      </trkpt>
      <trkpt lat="45.23815" lon="3.39873">
        <ele>471.8</ele>
        <time>2021-08-05T17:02:33Z</time>
      </trkpt>
      <trkpt lat="45.23806" lon="3.3988">
        <ele>472.8</ele>
        <time>2021-08-05T17:02:35Z</time>
      </trkpt>
      <trkpt lat="45.23798" lon="3.39889">
        <ele>473.9</ele>
        <time>2021-08-05T17:02:37Z</time>
      </trkpt>
      <trkpt lat="45.23789" lon="3.39896">
        <ele>474.5</ele>
        <time>2021-08-05T17:02:39Z</time>
      </trkpt>
      <trkpt lat="45.23781" lon="3.39902">
        <ele>474.9</ele>
        <time>2021-08-05T17:02:41Z</time>
      </trkpt>
      <trkpt lat="45.23771" lon="3.399">
        <ele>474.1</ele>
        <time>2021-08-05T17:02:43Z</time>
      </trkpt>
      <trkpt lat="45.23763" lon="3.39896">
        <ele>472.9</ele>
        <time>2021-08-05T17:02:45Z</time>
      </trkpt>
      <trkpt lat="45.23758" lon="3.39886">
        <ele>471.4</ele>
        <time>2021-08-05T17:02:47Z</time>
      </trkpt>
      <trkpt lat="45.23754" lon="3.39877">
        <ele>470</ele>
        <time>2021-08-05T17:02:49Z</time>
      </trkpt>
      <trkpt lat="45.23749" lon="3.3987">
        <ele>468.9</ele>
        <time>2021-08-05T17:02:51Z</time>
      </trkpt>
      <trkpt lat="45.23744" lon="3.39866">
        <ele>468.8</ele>
        <time>2021-08-05T17:02:53Z</time>
      </trkpt>
      <trkpt lat="45.23739" lon="3.39863">
        <ele>468.8</ele>
        <time>2021-08-05T17:02:55Z</time>
      </trkpt>
      <trkpt lat="45.23734" lon="3.3986">
        <ele>468.8</ele>
        <time>2021-08-05T17:02:57Z</time>
      </trkpt>
      <trkpt lat="45.23729" lon="3.3986">
        <ele>469.1</ele>
        <time>2021-08-05T17:02:59Z</time>
      </trkpt>
      <trkpt lat="45.23723" lon="3.39858">
        <ele>469.4</ele>
        <time>2021-08-05T17:03:01Z</time>
      </trkpt>
      <trkpt lat="45.23718" lon="3.39857">
        <ele>469.6</ele>
        <time>2021-08-05T17:03:03Z</time>
      </trkpt>
      <trkpt lat="45.23713" lon="3.39856">
        <ele>469.9</ele>
        <time>2021-08-05T17:03:05Z</time>
      </trkpt>
      <trkpt lat="45.23708" lon="3.39856">
        <ele>470.2</ele>
        <time>2021-08-05T17:03:07Z</time>
      </trkpt>
      <trkpt lat="45.23703" lon="3.39856">
        <ele>470.7</ele>
        <time>2021-08-05T17:03:09Z</time>
      </trkpt>
      <trkpt lat="45.23698" lon="3.39856">
        <ele>471.1</ele>
        <time>2021-08-05T17:03:11Z</time>
      </trkpt>
      <trkpt lat="45.23692" lon="3.39856">
        <ele>471.5</ele>
        <time>2021-08-05T17:03:13Z</time>
      </trkpt>
      <trkpt lat="45.23686" lon="3.39855">
        <ele>471.8</ele>
        <time>2021-08-05T17:03:15Z</time>
      </trkpt>
      <trkpt lat="45.23681" lon="3.39854">
        <ele>472.1</ele>
        <time>2021-08-05T17:03:17Z</time>
      </trkpt>
      <trkpt lat="45.23675" lon="3.39853">
        <ele>472.4</ele>
        <time>2021-08-05T17:03:19Z</time>
      </trkpt>
      <trkpt lat="45.23669" lon="3.39852">
        <ele>472.8</ele>
        <time>2021-08-05T17:03:21Z</time>
      </trkpt>
      <trkpt lat="45.23663" lon="3.39852">
        <ele>473</ele>
        <time>2021-08-05T17:03:23Z</time>
      </trkpt>
      <trkpt lat="45.23657" lon="3.39852">
        <ele>473.2</ele>
        <time>2021-08-05T17:03:25Z</time>
      </trkpt>
      <trkpt lat="45.23652" lon="3.39851">
        <ele>473.3</ele>
        <time>2021-08-05T17:03:27Z</time>
      </trkpt>
      <trkpt lat="45.23646" lon="3.39851">
        <ele>473.5</ele>
        <time>2021-08-05T17:03:29Z</time>
      </trkpt>
      <trkpt lat="45.2364" lon="3.39851">
        <ele>473.7</ele>
        <time>2021-08-05T17:03:31Z</time>
      </trkpt>
      <trkpt lat="45.23635" lon="3.39852">
        <ele>474.1</ele>
        <time>2021-08-05T17:03:33Z</time>
      </trkpt>
      <trkpt lat="45.2363" lon="3.39853">
        <ele>474.3</ele>
        <time>2021-08-05T17:03:35Z</time>
      </trkpt>
      <trkpt lat="45.23625" lon="3.39854">
        <ele>474.7</ele>
        <time>2021-08-05T17:03:37Z</time>
      </trkpt>
      <trkpt lat="45.2362" lon="3.39855">
        <ele>475.1</ele>
        <time>2021-08-05T17:03:39Z</time>
      </trkpt>
      <trkpt lat="45.23616" lon="3.39856">
        <ele>475.4</ele>
        <time>2021-08-05T17:03:41Z</time>
      </trkpt>
      <trkpt lat="45.23612" lon="3.39857">
        <ele>475.8</ele>
        <time>2021-08-05T17:03:43Z</time>
      </trkpt>
      <trkpt lat="45.23608" lon="3.39858">
        <ele>476.2</ele>
        <time>2021-08-05T17:03:45Z</time>
      </trkpt>
      <trkpt lat="45.236" lon="3.3986">
        <ele>476.8</ele>
        <time>2021-08-05T17:03:47Z</time>
      </trkpt>
      <trkpt lat="45.23596" lon="3.39861">
        <ele>477.2</ele>
        <time>2021-08-05T17:03:49Z</time>
      </trkpt>
      <trkpt lat="45.23591" lon="3.39863">
        <ele>477.7</ele>
        <time>2021-08-05T17:03:51Z</time>
      </trkpt>
      <trkpt lat="45.23586" lon="3.39864">
        <ele>478.2</ele>
        <time>2021-08-05T17:03:53Z</time>
      </trkpt>
      <trkpt lat="45.23581" lon="3.39865">
        <ele>478.4</ele>
        <time>2021-08-05T17:03:55Z</time>
      </trkpt>
      <trkpt lat="45.23576" lon="3.39867">
        <ele>478.5</ele>
        <time>2021-08-05T17:03:57Z</time>
      </trkpt>
      <trkpt lat="45.23571" lon="3.39869">
        <ele>478.5</ele>
        <time>2021-08-05T17:03:59Z</time>
      </trkpt>
      <trkpt lat="45.23566" lon="3.3987">
        <ele>478.5</ele>
        <time>2021-08-05T17:04:01Z</time>
      </trkpt>
      <trkpt lat="45.23562" lon="3.39872">
        <ele>478.7</ele>
        <time>2021-08-05T17:04:03Z</time>
      </trkpt>
      <trkpt lat="45.23557" lon="3.39875">
        <ele>478.8</ele>
        <time>2021-08-05T17:04:05Z</time>
      </trkpt>
      <trkpt lat="45.23552" lon="3.39877">
        <ele>478.9</ele>
        <time>2021-08-05T17:04:07Z</time>
      </trkpt>
      <trkpt lat="45.23547" lon="3.39879">
        <ele>479.1</ele>
        <time>2021-08-05T17:04:09Z</time>
      </trkpt>
      <trkpt lat="45.23542" lon="3.39881">
        <ele>479.3</ele>
        <time>2021-08-05T17:04:11Z</time>
      </trkpt>
      <trkpt lat="45.23538" lon="3.39884">
        <ele>479.5</ele>
        <time>2021-08-05T17:04:13Z</time>
      </trkpt>
      <trkpt lat="45.23533" lon="3.39887">
        <ele>479.7</ele>
        <time>2021-08-05T17:04:15Z</time>
      </trkpt>
      <trkpt lat="45.23528" lon="3.39889">
        <ele>479.9</ele>
        <time>2021-08-05T17:04:17Z</time>
      </trkpt>
      <trkpt lat="45.23523" lon="3.39892">
        <ele>480</ele>
        <time>2021-08-05T17:04:19Z</time>
      </trkpt>
      <trkpt lat="45.23519" lon="3.39894">
        <ele>480.2</ele>
        <time>2021-08-05T17:04:21Z</time>
      </trkpt>
      <trkpt lat="45.23514" lon="3.39898">
        <ele>480.6</ele>
        <time>2021-08-05T17:04:23Z</time>
      </trkpt>
      <trkpt lat="45.2351" lon="3.39901">
        <ele>480.8</ele>
        <time>2021-08-05T17:04:25Z</time>
      </trkpt>
      <trkpt lat="45.23506" lon="3.39904">
        <ele>481.1</ele>
        <time>2021-08-05T17:04:27Z</time>
      </trkpt>
      <trkpt lat="45.23502" lon="3.39907">
        <ele>481.5</ele>
        <time>2021-08-05T17:04:29Z</time>
      </trkpt>
      <trkpt lat="45.23498" lon="3.39911">
        <ele>481.7</ele>
        <time>2021-08-05T17:04:31Z</time>
      </trkpt>
      <trkpt lat="45.23494" lon="3.39915">
        <ele>481.9</ele>
        <time>2021-08-05T17:04:33Z</time>
      </trkpt>
      <trkpt lat="45.2349" lon="3.39919">
        <ele>482.2</ele>
        <time>2021-08-05T17:04:35Z</time>
      </trkpt>
      <trkpt lat="45.23486" lon="3.39923">
        <ele>482.6</ele>
        <time>2021-08-05T17:04:37Z</time>
      </trkpt>
      <trkpt lat="45.23482" lon="3.39927">
        <ele>482.8</ele>
        <time>2021-08-05T17:04:39Z</time>
      </trkpt>
      <trkpt lat="45.23479" lon="3.39931">
        <ele>483.2</ele>
        <time>2021-08-05T17:04:41Z</time>
      </trkpt>
      <trkpt lat="45.23475" lon="3.39935">
        <ele>483.4</ele>
        <time>2021-08-05T17:04:43Z</time>
      </trkpt>
      <trkpt lat="45.23471" lon="3.39939">
        <ele>483.6</ele>
        <time>2021-08-05T17:04:45Z</time>
      </trkpt>
      <trkpt lat="45.23467" lon="3.39943">
        <ele>483.9</ele>
        <time>2021-08-05T17:04:47Z</time>
      </trkpt>
      <trkpt lat="45.23463" lon="3.39948">
        <ele>484</ele>
        <time>2021-08-05T17:04:49Z</time>
      </trkpt>
      <trkpt lat="45.23459" lon="3.39952">
        <ele>484.1</ele>
        <time>2021-08-05T17:04:51Z</time>
      </trkpt>
      <trkpt lat="45.23454" lon="3.39956">
        <ele>484.2</ele>
        <time>2021-08-05T17:04:53Z</time>
      </trkpt>
      <trkpt lat="45.2345" lon="3.3996">
        <ele>484.2</ele>
        <time>2021-08-05T17:04:55Z</time>
      </trkpt>
      <trkpt lat="45.23446" lon="3.39964">
        <ele>484.1</ele>
        <time>2021-08-05T17:04:57Z</time>
      </trkpt>
      <trkpt lat="45.23442" lon="3.39968">
        <ele>484</ele>
        <time>2021-08-05T17:04:59Z</time>
      </trkpt>
      <trkpt lat="45.23437" lon="3.39971">
        <ele>483.7</ele>
        <time>2021-08-05T17:05:01Z</time>
      </trkpt>
      <trkpt lat="45.23432" lon="3.39974">
        <ele>483.3</ele>
        <time>2021-08-05T17:05:03Z</time>
      </trkpt>
      <trkpt lat="45.23428" lon="3.39978">
        <ele>483</ele>
        <time>2021-08-05T17:05:05Z</time>
      </trkpt>
      <trkpt lat="45.23422" lon="3.39982">
        <ele>482.6</ele>
        <time>2021-08-05T17:05:07Z</time>
      </trkpt>
      <trkpt lat="45.23417" lon="3.39986">
        <ele>482.2</ele>
        <time>2021-08-05T17:05:09Z</time>
      </trkpt>
      <trkpt lat="45.23413" lon="3.39991">
        <ele>482.2</ele>
        <time>2021-08-05T17:05:11Z</time>
      </trkpt>
      <trkpt lat="45.23408" lon="3.39994">
        <ele>482.1</ele>
        <time>2021-08-05T17:05:13Z</time>
      </trkpt>
      <trkpt lat="45.23402" lon="3.39999">
        <ele>482.1</ele>
        <time>2021-08-05T17:05:15Z</time>
      </trkpt>
      <trkpt lat="45.23397" lon="3.40005">
        <ele>482.5</ele>
        <time>2021-08-05T17:05:17Z</time>
      </trkpt>
      <trkpt lat="45.23391" lon="3.40009">
        <ele>482.5</ele>
        <time>2021-08-05T17:05:19Z</time>
      </trkpt>
      <trkpt lat="45.23386" lon="3.40011">
        <ele>482.3</ele>
        <time>2021-08-05T17:05:21Z</time>
      </trkpt>
      <trkpt lat="45.23384" lon="3.40011">
        <ele>481.9</ele>
        <time>2021-08-05T17:05:23Z</time>
      </trkpt>
      <trkpt lat="45.23384" lon="3.40011">
        <ele>482</ele>
        <time>2021-08-05T17:05:25Z</time>
      </trkpt>
      <trkpt lat="45.23384" lon="3.40011">
        <ele>482</ele>
        <time>2021-08-05T17:05:27Z</time>
      </trkpt>
      <trkpt lat="45.23384" lon="3.40011">
        <ele>481.9</ele>
        <time>2021-08-05T17:05:29Z</time>
      </trkpt>
      <trkpt lat="45.23384" lon="3.40011">
        <ele>481.9</ele>
        <time>2021-08-05T17:05:31Z</time>
      </trkpt>
      <trkpt lat="45.2336" lon="3.40033">
        <ele>482</ele>
        <time>2021-08-05T17:06:59Z</time>
      </trkpt>
      <trkpt lat="45.2335" lon="3.40035">
        <ele>480.7</ele>
        <time>2021-08-05T17:07:01Z</time>
      </trkpt>
      <trkpt lat="45.2334" lon="3.40036">
        <ele>479.3</ele>
        <time>2021-08-05T17:07:03Z</time>
      </trkpt>
      <trkpt lat="45.23331" lon="3.40038">
        <ele>478.2</ele>
        <time>2021-08-05T17:07:05Z</time>
      </trkpt>
      <trkpt lat="45.23322" lon="3.4004">
        <ele>477.3</ele>
        <time>2021-08-05T17:07:07Z</time>
      </trkpt>
      <trkpt lat="45.23315" lon="3.40042">
        <ele>476.5</ele>
        <time>2021-08-05T17:07:09Z</time>
      </trkpt>
      <trkpt lat="45.23311" lon="3.40042">
        <ele>475.9</ele>
        <time>2021-08-05T17:07:11Z</time>
      </trkpt>
      <trkpt lat="45.23308" lon="3.40042">
        <ele>475.5</ele>
        <time>2021-08-05T17:07:13Z</time>
      </trkpt>
      <trkpt lat="45.23305" lon="3.40043">
        <ele>475.3</ele>
        <time>2021-08-05T17:07:15Z</time>
      </trkpt>
      <trkpt lat="45.23303" lon="3.40042">
        <ele>474.9</ele>
        <time>2021-08-05T17:07:17Z</time>
      </trkpt>
      <trkpt lat="45.23302" lon="3.40043">
        <ele>475</ele>
        <time>2021-08-05T17:07:19Z</time>
      </trkpt>
      <trkpt lat="45.23302" lon="3.40044">
        <ele>475</ele>
        <time>2021-08-05T17:07:21Z</time>
      </trkpt>
      <trkpt lat="45.23302" lon="3.40044">
        <ele>474.9</ele>
        <time>2021-08-05T17:07:23Z</time>
      </trkpt>
      <trkpt lat="45.23302" lon="3.40044">
        <ele>475</ele>
        <time>2021-08-05T17:07:25Z</time>
      </trkpt>
      <trkpt lat="45.23302" lon="3.40045">
        <ele>475</ele>
        <time>2021-08-05T17:07:27Z</time>
      </trkpt>
      <trkpt lat="45.23294" lon="3.40054">
        <ele>475.1</ele>
        <time>2021-08-05T17:08:01Z</time>
      </trkpt>
      <trkpt lat="45.23289" lon="3.40058">
        <ele>475</ele>
        <time>2021-08-05T17:08:03Z</time>
      </trkpt>
      <trkpt lat="45.23284" lon="3.40061">
        <ele>474.7</ele>
        <time>2021-08-05T17:08:05Z</time>
      </trkpt>
      <trkpt lat="45.23279" lon="3.40066">
        <ele>474.6</ele>
        <time>2021-08-05T17:08:07Z</time>
      </trkpt>
      <trkpt lat="45.23274" lon="3.4007">
        <ele>474.5</ele>
        <time>2021-08-05T17:08:09Z</time>
      </trkpt>
      <trkpt lat="45.23268" lon="3.40075">
        <ele>474.3</ele>
        <time>2021-08-05T17:08:11Z</time>
      </trkpt>
      <trkpt lat="45.23262" lon="3.4008">
        <ele>474.1</ele>
        <time>2021-08-05T17:08:13Z</time>
      </trkpt>
      <trkpt lat="45.23256" lon="3.40085">
        <ele>474</ele>
        <time>2021-08-05T17:08:15Z</time>
      </trkpt>
      <trkpt lat="45.23249" lon="3.4009">
        <ele>473.9</ele>
        <time>2021-08-05T17:08:17Z</time>
      </trkpt>
      <trkpt lat="45.23242" lon="3.40096">
        <ele>474</ele>
        <time>2021-08-05T17:08:19Z</time>
      </trkpt>
      <trkpt lat="45.23234" lon="3.401">
        <ele>473.8</ele>
        <time>2021-08-05T17:08:21Z</time>
      </trkpt>
      <trkpt lat="45.23225" lon="3.40104">
        <ele>473.6</ele>
        <time>2021-08-05T17:08:23Z</time>
      </trkpt>
      <trkpt lat="45.23217" lon="3.40108">
        <ele>473.2</ele>
        <time>2021-08-05T17:08:25Z</time>
      </trkpt>
      <trkpt lat="45.23208" lon="3.40112">
        <ele>472.9</ele>
        <time>2021-08-05T17:08:27Z</time>
      </trkpt>
      <trkpt lat="45.23198" lon="3.40115">
        <ele>472.4</ele>
        <time>2021-08-05T17:08:29Z</time>
      </trkpt>
      <trkpt lat="45.23189" lon="3.40118">
        <ele>471.8</ele>
        <time>2021-08-05T17:08:31Z</time>
      </trkpt>
      <trkpt lat="45.23179" lon="3.40122">
        <ele>471.3</ele>
        <time>2021-08-05T17:08:33Z</time>
      </trkpt>
      <trkpt lat="45.23168" lon="3.40125">
        <ele>470.7</ele>
        <time>2021-08-05T17:08:35Z</time>
      </trkpt>
      <trkpt lat="45.23158" lon="3.40127">
        <ele>470.4</ele>
        <time>2021-08-05T17:08:37Z</time>
      </trkpt>
      <trkpt lat="45.23147" lon="3.40128">
        <ele>470</ele>
        <time>2021-08-05T17:08:39Z</time>
      </trkpt>
      <trkpt lat="45.23136" lon="3.40129">
        <ele>469.6</ele>
        <time>2021-08-05T17:08:41Z</time>
      </trkpt>
      <trkpt lat="45.23125" lon="3.4013">
        <ele>469.1</ele>
        <time>2021-08-05T17:08:43Z</time>
      </trkpt>
      <trkpt lat="45.23113" lon="3.4013">
        <ele>468.6</ele>
        <time>2021-08-05T17:08:45Z</time>
      </trkpt>
      <trkpt lat="45.23101" lon="3.4013">
        <ele>468.1</ele>
        <time>2021-08-05T17:08:47Z</time>
      </trkpt>
      <trkpt lat="45.2309" lon="3.4013">
        <ele>467.5</ele>
        <time>2021-08-05T17:08:49Z</time>
      </trkpt>
      <trkpt lat="45.23079" lon="3.4013">
        <ele>466.7</ele>
        <time>2021-08-05T17:08:51Z</time>
      </trkpt>
      <trkpt lat="45.23069" lon="3.40131">
        <ele>465.9</ele>
        <time>2021-08-05T17:08:53Z</time>
      </trkpt>
      <trkpt lat="45.23061" lon="3.40131">
        <ele>465.2</ele>
        <time>2021-08-05T17:08:55Z</time>
      </trkpt>
      <trkpt lat="45.23053" lon="3.40133">
        <ele>464.7</ele>
        <time>2021-08-05T17:08:57Z</time>
      </trkpt>
      <trkpt lat="45.23047" lon="3.40135">
        <ele>464.4</ele>
        <time>2021-08-05T17:08:59Z</time>
      </trkpt>
      <trkpt lat="45.2304" lon="3.40138">
        <ele>464.2</ele>
        <time>2021-08-05T17:09:01Z</time>
      </trkpt>
      <trkpt lat="45.23036" lon="3.40141">
        <ele>464.2</ele>
        <time>2021-08-05T17:09:03Z</time>
      </trkpt>
      <trkpt lat="45.23033" lon="3.40144">
        <ele>464.4</ele>
        <time>2021-08-05T17:09:05Z</time>
      </trkpt>
      <trkpt lat="45.23031" lon="3.40148">
        <ele>464.6</ele>
        <time>2021-08-05T17:09:07Z</time>
      </trkpt>
      <trkpt lat="45.23029" lon="3.4015">
        <ele>464.7</ele>
        <time>2021-08-05T17:09:09Z</time>
      </trkpt>
      <trkpt lat="45.23028" lon="3.40152">
        <ele>464.9</ele>
        <time>2021-08-05T17:09:11Z</time>
      </trkpt>
      <trkpt lat="45.23026" lon="3.40157">
        <ele>465.3</ele>
        <time>2021-08-05T17:09:13Z</time>
      </trkpt>
      <trkpt lat="45.23024" lon="3.40163">
        <ele>465.9</ele>
        <time>2021-08-05T17:09:15Z</time>
      </trkpt>
      <trkpt lat="45.23024" lon="3.40164">
        <ele>466</ele>
        <time>2021-08-05T17:09:17Z</time>
      </trkpt>
      <trkpt lat="45.23022" lon="3.40167">
        <ele>466.2</ele>
        <time>2021-08-05T17:09:19Z</time>
      </trkpt>
      <trkpt lat="45.23021" lon="3.40168">
        <ele>466.3</ele>
        <time>2021-08-05T17:09:21Z</time>
      </trkpt>
      <trkpt lat="45.2302" lon="3.40169">
        <ele>466.3</ele>
        <time>2021-08-05T17:09:23Z</time>
      </trkpt>
      <trkpt lat="45.2302" lon="3.40169">
        <ele>466.3</ele>
        <time>2021-08-05T17:09:25Z</time>
      </trkpt>
      <trkpt lat="45.23025" lon="3.40158">
        <ele>465.3</ele>
        <time>2021-08-05T17:11:59Z</time>
      </trkpt>
      <trkpt lat="45.23024" lon="3.4016">
        <ele>465.6</ele>
        <time>2021-08-05T17:12:01Z</time>
      </trkpt>
      <trkpt lat="45.23022" lon="3.40166">
        <ele>466.1</ele>
        <time>2021-08-05T17:12:03Z</time>
      </trkpt>
      <trkpt lat="45.2302" lon="3.40172">
        <ele>466.7</ele>
        <time>2021-08-05T17:12:05Z</time>
      </trkpt>
      <trkpt lat="45.23017" lon="3.40178">
        <ele>467.5</ele>
        <time>2021-08-05T17:12:07Z</time>
      </trkpt>
      <trkpt lat="45.23013" lon="3.40185">
        <ele>468.3</ele>
        <time>2021-08-05T17:12:09Z</time>
      </trkpt>
      <trkpt lat="45.23009" lon="3.40192">
        <ele>469</ele>
        <time>2021-08-05T17:12:11Z</time>
      </trkpt>
      <trkpt lat="45.23004" lon="3.40197">
        <ele>469.3</ele>
        <time>2021-08-05T17:12:13Z</time>
      </trkpt>
      <trkpt lat="45.22999" lon="3.40199">
        <ele>469.5</ele>
        <time>2021-08-05T17:12:15Z</time>
      </trkpt>
      <trkpt lat="45.22996" lon="3.40202">
        <ele>469.9</ele>
        <time>2021-08-05T17:12:17Z</time>
      </trkpt>
      <trkpt lat="45.22996" lon="3.40203">
        <ele>470.2</ele>
        <time>2021-08-05T17:12:19Z</time>
      </trkpt>
      <trkpt lat="45.22995" lon="3.40205">
        <ele>470.5</ele>
        <time>2021-08-05T17:12:21Z</time>
      </trkpt>
      <trkpt lat="45.22994" lon="3.40206">
        <ele>470.6</ele>
        <time>2021-08-05T17:12:23Z</time>
      </trkpt>
      <trkpt lat="45.22993" lon="3.40208">
        <ele>470.9</ele>
        <time>2021-08-05T17:12:25Z</time>
      </trkpt>
      <trkpt lat="45.22993" lon="3.40208">
        <ele>470.9</ele>
        <time>2021-08-05T17:12:27Z</time>
      </trkpt>
      <trkpt lat="45.22962" lon="3.40208">
        <ele>470.9</ele>
        <time>2021-08-05T17:18:59Z</time>
      </trkpt>
      <trkpt lat="45.22957" lon="3.40208">
        <ele>471</ele>
        <time>2021-08-05T17:19:01Z</time>
      </trkpt>
      <trkpt lat="45.22951" lon="3.4021">
        <ele>471.2</ele>
        <time>2021-08-05T17:19:03Z</time>
      </trkpt>
      <trkpt lat="45.22945" lon="3.40211">
        <ele>471.5</ele>
        <time>2021-08-05T17:19:05Z</time>
      </trkpt>
      <trkpt lat="45.22937" lon="3.40211">
        <ele>471.4</ele>
        <time>2021-08-05T17:19:07Z</time>
      </trkpt>
      <trkpt lat="45.2293" lon="3.40212">
        <ele>471.6</ele>
        <time>2021-08-05T17:19:09Z</time>
      </trkpt>
      <trkpt lat="45.22923" lon="3.40212">
        <ele>471.7</ele>
        <time>2021-08-05T17:19:11Z</time>
      </trkpt>
      <trkpt lat="45.22914" lon="3.40212">
        <ele>471.8</ele>
        <time>2021-08-05T17:19:13Z</time>
      </trkpt>
      <trkpt lat="45.22906" lon="3.40213">
        <ele>472.6</ele>
        <time>2021-08-05T17:19:15Z</time>
      </trkpt>
      <trkpt lat="45.22897" lon="3.40215">
        <ele>473.6</ele>
        <time>2021-08-05T17:19:17Z</time>
      </trkpt>
      <trkpt lat="45.22888" lon="3.40216">
        <ele>474.5</ele>
        <time>2021-08-05T17:19:19Z</time>
      </trkpt>
      <trkpt lat="45.22878" lon="3.40219">
        <ele>475.4</ele>
        <time>2021-08-05T17:19:21Z</time>
      </trkpt>
      <trkpt lat="45.22869" lon="3.40222">
        <ele>476.3</ele>
        <time>2021-08-05T17:19:23Z</time>
      </trkpt>
      <trkpt lat="45.22859" lon="3.40224">
        <ele>477.2</ele>
        <time>2021-08-05T17:19:25Z</time>
      </trkpt>
      <trkpt lat="45.2285" lon="3.40227">
        <ele>477.9</ele>
        <time>2021-08-05T17:19:27Z</time>
      </trkpt>
      <trkpt lat="45.22839" lon="3.40226">
        <ele>478.5</ele>
        <time>2021-08-05T17:19:29Z</time>
      </trkpt>
      <trkpt lat="45.2283" lon="3.40217">
        <ele>479.3</ele>
        <time>2021-08-05T17:19:31Z</time>
      </trkpt>
      <trkpt lat="45.22828" lon="3.40203">
        <ele>479.2</ele>
        <time>2021-08-05T17:19:33Z</time>
      </trkpt>
      <trkpt lat="45.22833" lon="3.40192">
        <ele>477.5</ele>
        <time>2021-08-05T17:19:35Z</time>
      </trkpt>
      <trkpt lat="45.22837" lon="3.40183">
        <ele>476.4</ele>
        <time>2021-08-05T17:19:37Z</time>
      </trkpt>
      <trkpt lat="45.22841" lon="3.40175">
        <ele>475.4</ele>
        <time>2021-08-05T17:19:39Z</time>
      </trkpt>
      <trkpt lat="45.22846" lon="3.40167">
        <ele>474.2</ele>
        <time>2021-08-05T17:19:41Z</time>
      </trkpt>
      <trkpt lat="45.22849" lon="3.40158">
        <ele>473.4</ele>
        <time>2021-08-05T17:19:43Z</time>
      </trkpt>
      <trkpt lat="45.22853" lon="3.4015">
        <ele>472.6</ele>
        <time>2021-08-05T17:19:45Z</time>
      </trkpt>
      <trkpt lat="45.22856" lon="3.40143">
        <ele>471.9</ele>
        <time>2021-08-05T17:19:47Z</time>
      </trkpt>
      <trkpt lat="45.22858" lon="3.40135">
        <ele>471.3</ele>
        <time>2021-08-05T17:19:49Z</time>
      </trkpt>
      <trkpt lat="45.22858" lon="3.40127">
        <ele>471.1</ele>
        <time>2021-08-05T17:19:51Z</time>
      </trkpt>
      <trkpt lat="45.22856" lon="3.4012">
        <ele>471.2</ele>
        <time>2021-08-05T17:19:53Z</time>
      </trkpt>
      <trkpt lat="45.22853" lon="3.40113">
        <ele>471.4</ele>
        <time>2021-08-05T17:19:55Z</time>
      </trkpt>
      <trkpt lat="45.22848" lon="3.40108">
        <ele>471.9</ele>
        <time>2021-08-05T17:19:57Z</time>
      </trkpt>
      <trkpt lat="45.22843" lon="3.40104">
        <ele>472.5</ele>
        <time>2021-08-05T17:19:59Z</time>
      </trkpt>
      <trkpt lat="45.22838" lon="3.401">
        <ele>473</ele>
        <time>2021-08-05T17:20:01Z</time>
      </trkpt>
      <trkpt lat="45.22833" lon="3.40098">
        <ele>473.5</ele>
        <time>2021-08-05T17:20:03Z</time>
      </trkpt>
      <trkpt lat="45.22829" lon="3.40095">
        <ele>474</ele>
        <time>2021-08-05T17:20:05Z</time>
      </trkpt>
      <trkpt lat="45.22827" lon="3.40093">
        <ele>474.3</ele>
        <time>2021-08-05T17:20:07Z</time>
      </trkpt>
      <trkpt lat="45.22825" lon="3.40092">
        <ele>474.5</ele>
        <time>2021-08-05T17:20:09Z</time>
      </trkpt>
      <trkpt lat="45.22821" lon="3.40089">
        <ele>474.8</ele>
        <time>2021-08-05T17:20:11Z</time>
      </trkpt>
      <trkpt lat="45.22817" lon="3.40086">
        <ele>475.2</ele>
        <time>2021-08-05T17:20:13Z</time>
      </trkpt>
      <trkpt lat="45.22813" lon="3.40084">
        <ele>475.5</ele>
        <time>2021-08-05T17:20:15Z</time>
      </trkpt>
      <trkpt lat="45.22809" lon="3.40081">
        <ele>475.5</ele>
        <time>2021-08-05T17:20:17Z</time>
      </trkpt>
      <trkpt lat="45.22806" lon="3.40079">
        <ele>475.4</ele>
        <time>2021-08-05T17:20:19Z</time>
      </trkpt>
      <trkpt lat="45.22802" lon="3.40076">
        <ele>475.4</ele>
        <time>2021-08-05T17:20:21Z</time>
      </trkpt>
      <trkpt lat="45.22799" lon="3.40074">
        <ele>475.3</ele>
        <time>2021-08-05T17:20:23Z</time>
      </trkpt>
      <trkpt lat="45.22797" lon="3.40072">
        <ele>475.3</ele>
        <time>2021-08-05T17:20:25Z</time>
      </trkpt>
      <trkpt lat="45.22795" lon="3.40071">
        <ele>475.2</ele>
        <time>2021-08-05T17:20:27Z</time>
      </trkpt>
      <trkpt lat="45.22793" lon="3.4007">
        <ele>475.3</ele>
        <time>2021-08-05T17:20:29Z</time>
      </trkpt>
      <trkpt lat="45.22791" lon="3.40069">
        <ele>475.2</ele>
        <time>2021-08-05T17:20:31Z</time>
      </trkpt>
      <trkpt lat="45.2279" lon="3.40067">
        <ele>475</ele>
        <time>2021-08-05T17:20:33Z</time>
      </trkpt>
      <trkpt lat="45.22789" lon="3.40065">
        <ele>474.8</ele>
        <time>2021-08-05T17:20:35Z</time>
      </trkpt>
      <trkpt lat="45.2279" lon="3.40066">
        <ele>474.8</ele>
        <time>2021-08-05T17:20:37Z</time>
      </trkpt>
      <trkpt lat="45.2279" lon="3.40066">
        <ele>474.8</ele>
        <time>2021-08-05T17:20:39Z</time>
      </trkpt>
      <trkpt lat="45.22812" lon="3.40086">
        <ele>475.8</ele>
        <time>2021-08-05T17:23:01Z</time>
      </trkpt>
      <trkpt lat="45.2282" lon="3.40092">
        <ele>475.2</ele>
        <time>2021-08-05T17:23:03Z</time>
      </trkpt>
      <trkpt lat="45.22828" lon="3.40097">
        <ele>474.4</ele>
        <time>2021-08-05T17:23:05Z</time>
      </trkpt>
      <trkpt lat="45.22835" lon="3.40103">
        <ele>473.5</ele>
        <time>2021-08-05T17:23:07Z</time>
      </trkpt>
      <trkpt lat="45.22842" lon="3.40107">
        <ele>472.8</ele>
        <time>2021-08-05T17:23:09Z</time>
      </trkpt>
      <trkpt lat="45.22847" lon="3.4011">
        <ele>472</ele>
        <time>2021-08-05T17:23:11Z</time>
      </trkpt>
      <trkpt lat="45.22852" lon="3.40111">
        <ele>471.5</ele>
        <time>2021-08-05T17:23:13Z</time>
      </trkpt>
      <trkpt lat="45.22853" lon="3.40111">
        <ele>471.3</ele>
        <time>2021-08-05T17:23:15Z</time>
      </trkpt>
      <trkpt lat="45.22853" lon="3.40111">
        <ele>471.4</ele>
        <time>2021-08-05T17:23:17Z</time>
      </trkpt>
      <trkpt lat="45.22853" lon="3.40112">
        <ele>471.3</ele>
        <time>2021-08-05T17:23:19Z</time>
      </trkpt>
      <trkpt lat="45.22856" lon="3.40112">
        <ele>470.9</ele>
        <time>2021-08-05T17:23:21Z</time>
      </trkpt>
      <trkpt lat="45.22859" lon="3.40113">
        <ele>470.5</ele>
        <time>2021-08-05T17:23:23Z</time>
      </trkpt>
      <trkpt lat="45.22862" lon="3.40114">
        <ele>470.1</ele>
        <time>2021-08-05T17:23:25Z</time>
      </trkpt>
      <trkpt lat="45.22865" lon="3.40113">
        <ele>469.8</ele>
        <time>2021-08-05T17:23:27Z</time>
      </trkpt>
      <trkpt lat="45.22866" lon="3.40111">
        <ele>469.5</ele>
        <time>2021-08-05T17:23:29Z</time>
      </trkpt>
      <trkpt lat="45.22867" lon="3.40111">
        <ele>469.4</ele>
        <time>2021-08-05T17:23:31Z</time>
      </trkpt>
      <trkpt lat="45.22868" lon="3.4011">
        <ele>469.3</ele>
        <time>2021-08-05T17:23:33Z</time>
      </trkpt>
      <trkpt lat="45.22869" lon="3.40109">
        <ele>469.1</ele>
        <time>2021-08-05T17:23:35Z</time>
      </trkpt>
      <trkpt lat="45.2287" lon="3.40108">
        <ele>468.9</ele>
        <time>2021-08-05T17:23:37Z</time>
      </trkpt>
      <trkpt lat="45.22901" lon="3.40091">
        <ele>464.2</ele>
        <time>2021-08-05T17:28:57Z</time>
      </trkpt>
      <trkpt lat="45.22903" lon="3.4009">
        <ele>463.9</ele>
        <time>2021-08-05T17:28:59Z</time>
      </trkpt>
      <trkpt lat="45.22905" lon="3.40088">
        <ele>463.7</ele>
        <time>2021-08-05T17:29:01Z</time>
      </trkpt>
      <trkpt lat="45.22907" lon="3.40087">
        <ele>463.3</ele>
        <time>2021-08-05T17:29:03Z</time>
      </trkpt>
      <trkpt lat="45.22909" lon="3.40087">
        <ele>463.1</ele>
        <time>2021-08-05T17:29:05Z</time>
      </trkpt>
      <trkpt lat="45.22911" lon="3.40086">
        <ele>462.8</ele>
        <time>2021-08-05T17:29:07Z</time>
      </trkpt>
      <trkpt lat="45.22913" lon="3.40085">
        <ele>462.5</ele>
        <time>2021-08-05T17:29:09Z</time>
      </trkpt>
      <trkpt lat="45.22915" lon="3.40084">
        <ele>462.2</ele>
        <time>2021-08-05T17:29:11Z</time>
      </trkpt>
      <trkpt lat="45.22917" lon="3.40082">
        <ele>461.8</ele>
        <time>2021-08-05T17:29:13Z</time>
      </trkpt>
      <trkpt lat="45.22919" lon="3.40079">
        <ele>461.4</ele>
        <time>2021-08-05T17:29:15Z</time>
      </trkpt>
      <trkpt lat="45.22919" lon="3.40076">
        <ele>461.1</ele>
        <time>2021-08-05T17:29:17Z</time>
      </trkpt>
      <trkpt lat="45.2292" lon="3.40074">
        <ele>460.8</ele>
        <time>2021-08-05T17:29:19Z</time>
      </trkpt>
      <trkpt lat="45.22921" lon="3.40071">
        <ele>460.5</ele>
        <time>2021-08-05T17:29:21Z</time>
      </trkpt>
      <trkpt lat="45.22921" lon="3.4007">
        <ele>460.3</ele>
        <time>2021-08-05T17:29:23Z</time>
      </trkpt>
      <trkpt lat="45.22921" lon="3.40071">
        <ele>460.4</ele>
        <time>2021-08-05T17:29:25Z</time>
      </trkpt>
    </trkseg>
      <trkpt lat="45.22839" lon="3.401">
        <ele>472.9</ele>
        <time>2021-08-06T08:10:33Z</time>
      </trkpt>
      <trkpt lat="45.22834" lon="3.40097">
        <ele>473.4</ele>
        <time>2021-08-06T08:10:35Z</time>
      </trkpt>
      <trkpt lat="45.2283" lon="3.40094">
        <ele>473.9</ele>
        <time>2021-08-06T08:10:37Z</time>
      </trkpt>
      <trkpt lat="45.22826" lon="3.4009">
        <ele>474.3</ele>
        <time>2021-08-06T08:10:39Z</time>
      </trkpt>
      <trkpt lat="45.22821" lon="3.40088">
        <ele>474.8</ele>
        <time>2021-08-06T08:10:41Z</time>
      </trkpt>
      <trkpt lat="45.22816" lon="3.40085">
        <ele>475.1</ele>
        <time>2021-08-06T08:10:43Z</time>
      </trkpt>
      <trkpt lat="45.22812" lon="3.40081">
        <ele>475.1</ele>
        <time>2021-08-06T08:10:45Z</time>
      </trkpt>
      <trkpt lat="45.22808" lon="3.40078">
        <ele>475</ele>
        <time>2021-08-06T08:10:47Z</time>
      </trkpt>
      <trkpt lat="45.22804" lon="3.40075">
        <ele>475</ele>
        <time>2021-08-06T08:10:49Z</time>
      </trkpt>
      <trkpt lat="45.228" lon="3.40073">
        <ele>474.9</ele>
        <time>2021-08-06T08:10:51Z</time>
      </trkpt>
      <trkpt lat="45.22796" lon="3.4007">
        <ele>474.9</ele>
        <time>2021-08-06T08:10:53Z</time>
      </trkpt>
      <trkpt lat="45.22793" lon="3.40068">
        <ele>474.9</ele>
        <time>2021-08-06T08:10:55Z</time>
      </trkpt>
      <trkpt lat="45.22789" lon="3.40066">
        <ele>474.9</ele>
        <time>2021-08-06T08:10:57Z</time>
      </trkpt>
      <trkpt lat="45.22785" lon="3.40062">
        <ele>474.7</ele>
        <time>2021-08-06T08:10:59Z</time>
      </trkpt>
      <trkpt lat="45.22781" lon="3.4006">
        <ele>474.8</ele>
        <time>2021-08-06T08:11:01Z</time>
      </trkpt>
      <trkpt lat="45.22777" lon="3.40058">
        <ele>474.8</ele>
        <time>2021-08-06T08:11:03Z</time>
      </trkpt>
      <trkpt lat="45.22773" lon="3.40056">
        <ele>474.8</ele>
        <time>2021-08-06T08:11:05Z</time>
      </trkpt>
      <trkpt lat="45.22768" lon="3.40054">
        <ele>474.9</ele>
        <time>2021-08-06T08:11:07Z</time>
      </trkpt>
      <trkpt lat="45.22763" lon="3.40051">
        <ele>475</ele>
        <time>2021-08-06T08:11:09Z</time>
      </trkpt>
      <trkpt lat="45.22757" lon="3.40049">
        <ele>475.3</ele>
        <time>2021-08-06T08:11:11Z</time>
      </trkpt>
      <trkpt lat="45.2275" lon="3.40046">
        <ele>475.4</ele>
        <time>2021-08-06T08:11:13Z</time>
      </trkpt>
      <trkpt lat="45.22744" lon="3.40045">
        <ele>475.6</ele>
        <time>2021-08-06T08:11:15Z</time>
      </trkpt>
      <trkpt lat="45.22738" lon="3.40042">
        <ele>475.6</ele>
        <time>2021-08-06T08:11:17Z</time>
      </trkpt>
      <trkpt lat="45.22733" lon="3.4004">
        <ele>475.7</ele>
        <time>2021-08-06T08:11:19Z</time>
      </trkpt>
      <trkpt lat="45.22727" lon="3.40038">
        <ele>475.7</ele>
        <time>2021-08-06T08:11:21Z</time>
      </trkpt>
      <trkpt lat="45.22721" lon="3.40036">
        <ele>475.8</ele>
        <time>2021-08-06T08:11:23Z</time>
      </trkpt>
      <trkpt lat="45.22716" lon="3.40035">
        <ele>476.1</ele>
        <time>2021-08-06T08:11:25Z</time>
      </trkpt>
      <trkpt lat="45.2271" lon="3.40032">
        <ele>476</ele>
        <time>2021-08-06T08:11:27Z</time>
      </trkpt>
      <trkpt lat="45.22704" lon="3.40029">
        <ele>476</ele>
        <time>2021-08-06T08:11:29Z</time>
      </trkpt>
      <trkpt lat="45.22698" lon="3.40027">
        <ele>476.2</ele>
        <time>2021-08-06T08:11:31Z</time>
      </trkpt>
      <trkpt lat="45.22691" lon="3.40025">
        <ele>476.3</ele>
        <time>2021-08-06T08:11:33Z</time>
      </trkpt>
      <trkpt lat="45.22684" lon="3.40025">
        <ele>476.9</ele>
        <time>2021-08-06T08:11:35Z</time>
      </trkpt>
      <trkpt lat="45.22677" lon="3.40024">
        <ele>477.4</ele>
        <time>2021-08-06T08:11:37Z</time>
      </trkpt>
      <trkpt lat="45.22669" lon="3.40023">
        <ele>477.9</ele>
        <time>2021-08-06T08:11:39Z</time>
      </trkpt>
      <trkpt lat="45.22662" lon="3.40023">
        <ele>478.3</ele>
        <time>2021-08-06T08:11:41Z</time>
      </trkpt>
      <trkpt lat="45.22655" lon="3.40024">
        <ele>478.7</ele>
        <time>2021-08-06T08:11:43Z</time>
      </trkpt>
      <trkpt lat="45.22647" lon="3.40024">
        <ele>479</ele>
        <time>2021-08-06T08:11:45Z</time>
      </trkpt>
      <trkpt lat="45.2264" lon="3.40025">
        <ele>479.3</ele>
        <time>2021-08-06T08:11:47Z</time>
      </trkpt>
      <trkpt lat="45.22632" lon="3.40025">
        <ele>479.6</ele>
        <time>2021-08-06T08:11:49Z</time>
      </trkpt>
      <trkpt lat="45.22626" lon="3.40026">
        <ele>479.8</ele>
        <time>2021-08-06T08:11:51Z</time>
      </trkpt>
      <trkpt lat="45.2262" lon="3.40026">
        <ele>480.1</ele>
        <time>2021-08-06T08:11:53Z</time>
      </trkpt>
      <trkpt lat="45.22614" lon="3.40027">
        <ele>480.3</ele>
        <time>2021-08-06T08:11:55Z</time>
      </trkpt>
      <trkpt lat="45.22608" lon="3.40027">
        <ele>480.6</ele>
        <time>2021-08-06T08:11:57Z</time>
      </trkpt>
      <trkpt lat="45.22602" lon="3.40027">
        <ele>480.8</ele>
        <time>2021-08-06T08:11:59Z</time>
      </trkpt>
      <trkpt lat="45.22597" lon="3.40028">
        <ele>481</ele>
        <time>2021-08-06T08:12:01Z</time>
      </trkpt>
      <trkpt lat="45.22592" lon="3.40028">
        <ele>481.2</ele>
        <time>2021-08-06T08:12:03Z</time>
      </trkpt>
      <trkpt lat="45.22586" lon="3.40029">
        <ele>481.4</ele>
        <time>2021-08-06T08:12:05Z</time>
      </trkpt>
      <trkpt lat="45.22581" lon="3.40029">
        <ele>481.6</ele>
        <time>2021-08-06T08:12:07Z</time>
      </trkpt>
      <trkpt lat="45.22576" lon="3.40029">
        <ele>481.8</ele>
        <time>2021-08-06T08:12:09Z</time>
      </trkpt>
      <trkpt lat="45.22571" lon="3.4003">
        <ele>482.1</ele>
        <time>2021-08-06T08:12:11Z</time>
      </trkpt>
      <trkpt lat="45.22566" lon="3.4003">
        <ele>482.3</ele>
        <time>2021-08-06T08:12:13Z</time>
      </trkpt>
      <trkpt lat="45.2256" lon="3.4003">
        <ele>482.5</ele>
        <time>2021-08-06T08:12:15Z</time>
      </trkpt>
      <trkpt lat="45.22555" lon="3.40032">
        <ele>482.9</ele>
        <time>2021-08-06T08:12:17Z</time>
      </trkpt>
      <trkpt lat="45.22549" lon="3.40033">
        <ele>483.3</ele>
        <time>2021-08-06T08:12:19Z</time>
      </trkpt>
      <trkpt lat="45.22542" lon="3.40033">
        <ele>483.6</ele>
        <time>2021-08-06T08:12:21Z</time>
      </trkpt>
      <trkpt lat="45.22536" lon="3.40032">
        <ele>483.7</ele>
        <time>2021-08-06T08:12:23Z</time>
      </trkpt>
      <trkpt lat="45.2253" lon="3.40032">
        <ele>483.9</ele>
        <time>2021-08-06T08:12:25Z</time>
      </trkpt>
      <trkpt lat="45.22525" lon="3.40032">
        <ele>484.2</ele>
        <time>2021-08-06T08:12:27Z</time>
      </trkpt>
      <trkpt lat="45.22519" lon="3.40033">
        <ele>484.4</ele>
        <time>2021-08-06T08:12:29Z</time>
      </trkpt>
      <trkpt lat="45.22514" lon="3.40033">
        <ele>484.6</ele>
        <time>2021-08-06T08:12:31Z</time>
      </trkpt>
      <trkpt lat="45.22508" lon="3.40033">
        <ele>484.9</ele>
        <time>2021-08-06T08:12:33Z</time>
      </trkpt>
      <trkpt lat="45.22503" lon="3.40033">
        <ele>485.1</ele>
        <time>2021-08-06T08:12:35Z</time>
      </trkpt>
      <trkpt lat="45.22498" lon="3.40034">
        <ele>485.3</ele>
        <time>2021-08-06T08:12:37Z</time>
      </trkpt>
      <trkpt lat="45.22494" lon="3.40035">
        <ele>485.6</ele>
        <time>2021-08-06T08:12:39Z</time>
      </trkpt>
      <trkpt lat="45.22489" lon="3.40035">
        <ele>485.9</ele>
        <time>2021-08-06T08:12:41Z</time>
      </trkpt>
      <trkpt lat="45.22484" lon="3.40035">
        <ele>486.1</ele>
        <time>2021-08-06T08:12:43Z</time>
      </trkpt>
      <trkpt lat="45.22479" lon="3.40035">
        <ele>486.3</ele>
        <time>2021-08-06T08:12:45Z</time>
      </trkpt>
      <trkpt lat="45.22474" lon="3.40035">
        <ele>486.6</ele>
        <time>2021-08-06T08:12:47Z</time>
      </trkpt>
      <trkpt lat="45.2247" lon="3.40035">
        <ele>486.8</ele>
        <time>2021-08-06T08:12:49Z</time>
      </trkpt>
      <trkpt lat="45.22465" lon="3.40035">
        <ele>487</ele>
        <time>2021-08-06T08:12:51Z</time>
      </trkpt>
      <trkpt lat="45.22461" lon="3.40035">
        <ele>487.2</ele>
        <time>2021-08-06T08:12:53Z</time>
      </trkpt>
      <trkpt lat="45.22456" lon="3.40036">
        <ele>487.5</ele>
        <time>2021-08-06T08:12:55Z</time>
      </trkpt>
      <trkpt lat="45.22452" lon="3.40036">
        <ele>487.7</ele>
        <time>2021-08-06T08:12:57Z</time>
      </trkpt>
      <trkpt lat="45.22447" lon="3.40036">
        <ele>487.9</ele>
        <time>2021-08-06T08:12:59Z</time>
      </trkpt>
      <trkpt lat="45.22443" lon="3.40036">
        <ele>488.1</ele>
        <time>2021-08-06T08:13:01Z</time>
      </trkpt>
      <trkpt lat="45.22439" lon="3.40036">
        <ele>488.3</ele>
        <time>2021-08-06T08:13:03Z</time>
      </trkpt>
      <trkpt lat="45.22435" lon="3.40036">
        <ele>488.5</ele>
        <time>2021-08-06T08:13:05Z</time>
      </trkpt>
      <trkpt lat="45.22431" lon="3.40035">
        <ele>488.6</ele>
        <time>2021-08-06T08:13:07Z</time>
      </trkpt>
      <trkpt lat="45.22427" lon="3.40035">
        <ele>488.7</ele>
        <time>2021-08-06T08:13:09Z</time>
      </trkpt>
      <trkpt lat="45.22422" lon="3.40034">
        <ele>488.8</ele>
        <time>2021-08-06T08:13:11Z</time>
      </trkpt>
      <trkpt lat="45.22417" lon="3.40032">
        <ele>488.9</ele>
        <time>2021-08-06T08:13:13Z</time>
      </trkpt>
      <trkpt lat="45.22412" lon="3.40031">
        <ele>488.8</ele>
        <time>2021-08-06T08:13:15Z</time>
      </trkpt>
      <trkpt lat="45.22406" lon="3.40029">
        <ele>488.7</ele>
        <time>2021-08-06T08:13:17Z</time>
      </trkpt>
      <trkpt lat="45.22401" lon="3.40027">
        <ele>488.5</ele>
        <time>2021-08-06T08:13:19Z</time>
      </trkpt>
      <trkpt lat="45.22396" lon="3.40025">
        <ele>488.4</ele>
        <time>2021-08-06T08:13:21Z</time>
      </trkpt>
      <trkpt lat="45.22389" lon="3.40023">
        <ele>488.3</ele>
        <time>2021-08-06T08:13:23Z</time>
      </trkpt>
      <trkpt lat="45.22382" lon="3.4002">
        <ele>488.1</ele>
        <time>2021-08-06T08:13:25Z</time>
      </trkpt>
      <trkpt lat="45.22375" lon="3.40018">
        <ele>488.1</ele>
        <time>2021-08-06T08:13:27Z</time>
      </trkpt>
      <trkpt lat="45.22367" lon="3.40015">
        <ele>487.9</ele>
        <time>2021-08-06T08:13:29Z</time>
      </trkpt>
      <trkpt lat="45.22359" lon="3.40012">
        <ele>487.7</ele>
        <time>2021-08-06T08:13:31Z</time>
      </trkpt>
      <trkpt lat="45.2235" lon="3.40007">
        <ele>487.4</ele>
        <time>2021-08-06T08:13:33Z</time>
      </trkpt>
      <trkpt lat="45.22341" lon="3.40005">
        <ele>487.4</ele>
        <time>2021-08-06T08:13:35Z</time>
      </trkpt>
      <trkpt lat="45.22335" lon="3.39999">
        <ele>486.9</ele>
        <time>2021-08-06T08:13:37Z</time>
      </trkpt>
      <trkpt lat="45.2233" lon="3.39996">
        <ele>486.7</ele>
        <time>2021-08-06T08:13:39Z</time>
      </trkpt>
      <trkpt lat="45.22327" lon="3.39995">
        <ele>486.8</ele>
        <time>2021-08-06T08:13:41Z</time>
      </trkpt>
      <trkpt lat="45.22326" lon="3.39996">
        <ele>487</ele>
        <time>2021-08-06T08:13:43Z</time>
      </trkpt>
      <trkpt lat="45.22326" lon="3.39999">
        <ele>487.2</ele>
        <time>2021-08-06T08:13:45Z</time>
      </trkpt>
      <trkpt lat="45.22326" lon="3.39999">
        <ele>487.2</ele>
        <time>2021-08-06T08:13:47Z</time>
      </trkpt>
      <trkpt lat="45.22327" lon="3.39999">
        <ele>487.2</ele>
        <time>2021-08-06T08:13:49Z</time>
      </trkpt>
      <trkpt lat="45.22327" lon="3.39998">
        <ele>487.2</ele>
        <time>2021-08-06T08:13:51Z</time>
      </trkpt>
      <trkpt lat="45.22328" lon="3.40014">
        <ele>488.8</ele>
        <time>2021-08-06T08:14:03Z</time>
      </trkpt>
      <trkpt lat="45.22328" lon="3.40019">
        <ele>489.3</ele>
        <time>2021-08-06T08:14:05Z</time>
      </trkpt>
      <trkpt lat="45.22328" lon="3.40024">
        <ele>489.8</ele>
        <time>2021-08-06T08:14:07Z</time>
      </trkpt>
      <trkpt lat="45.22328" lon="3.4003">
        <ele>490.4</ele>
        <time>2021-08-06T08:14:09Z</time>
      </trkpt>
      <trkpt lat="45.22327" lon="3.40035">
        <ele>491</ele>
        <time>2021-08-06T08:14:11Z</time>
      </trkpt>
      <trkpt lat="45.22327" lon="3.4004">
        <ele>491.6</ele>
        <time>2021-08-06T08:14:13Z</time>
      </trkpt>
      <trkpt lat="45.22326" lon="3.40044">
        <ele>492</ele>
        <time>2021-08-06T08:14:15Z</time>
      </trkpt>
      <trkpt lat="45.22325" lon="3.40048">
        <ele>492.4</ele>
        <time>2021-08-06T08:14:17Z</time>
      </trkpt>
      <trkpt lat="45.22324" lon="3.40051">
        <ele>492.8</ele>
        <time>2021-08-06T08:14:19Z</time>
      </trkpt>
      <trkpt lat="45.22322" lon="3.40055">
        <ele>493.2</ele>
        <time>2021-08-06T08:14:21Z</time>
      </trkpt>
      <trkpt lat="45.2232" lon="3.40056">
        <ele>493.3</ele>
        <time>2021-08-06T08:14:23Z</time>
      </trkpt>
      <trkpt lat="45.22316" lon="3.40056">
        <ele>493.5</ele>
        <time>2021-08-06T08:14:25Z</time>
      </trkpt>
      <trkpt lat="45.22314" lon="3.40059">
        <ele>493.8</ele>
        <time>2021-08-06T08:14:27Z</time>
      </trkpt>
      <trkpt lat="45.22312" lon="3.40059">
        <ele>493.9</ele>
        <time>2021-08-06T08:14:29Z</time>
      </trkpt>
      <trkpt lat="45.2231" lon="3.40061">
        <ele>494.1</ele>
        <time>2021-08-06T08:14:31Z</time>
      </trkpt>
      <trkpt lat="45.22309" lon="3.40061">
        <ele>494.1</ele>
        <time>2021-08-06T08:14:33Z</time>
      </trkpt>
      <trkpt lat="45.22307" lon="3.40062">
        <ele>494.3</ele>
        <time>2021-08-06T08:14:35Z</time>
      </trkpt>
      <trkpt lat="45.22308" lon="3.40065">
        <ele>494.5</ele>
        <time>2021-08-06T08:14:37Z</time>
      </trkpt>
      <trkpt lat="45.22309" lon="3.40065">
        <ele>494.5</ele>
        <time>2021-08-06T08:14:39Z</time>
      </trkpt>
      <trkpt lat="45.22323" lon="3.40056">
        <ele>493.2</ele>
        <time>2021-08-06T08:15:05Z</time>
      </trkpt>
      <trkpt lat="45.22325" lon="3.40054">
        <ele>493</ele>
        <time>2021-08-06T08:15:07Z</time>
      </trkpt>
      <trkpt lat="45.22327" lon="3.40051">
        <ele>492.7</ele>
        <time>2021-08-06T08:15:09Z</time>
      </trkpt>
      <trkpt lat="45.22328" lon="3.40049">
        <ele>492.4</ele>
        <time>2021-08-06T08:15:11Z</time>
      </trkpt>
      <trkpt lat="45.22329" lon="3.40046">
        <ele>492.1</ele>
        <time>2021-08-06T08:15:13Z</time>
      </trkpt>
      <trkpt lat="45.22329" lon="3.40043">
        <ele>491.8</ele>
        <time>2021-08-06T08:15:15Z</time>
      </trkpt>
      <trkpt lat="45.2233" lon="3.40038">
        <ele>491.2</ele>
        <time>2021-08-06T08:15:17Z</time>
      </trkpt>
      <trkpt lat="45.22329" lon="3.40034">
        <ele>490.9</ele>
        <time>2021-08-06T08:15:19Z</time>
      </trkpt>
      <trkpt lat="45.22329" lon="3.40029">
        <ele>490.3</ele>
        <time>2021-08-06T08:15:21Z</time>
      </trkpt>
      <trkpt lat="45.2233" lon="3.40021">
        <ele>489.4</ele>
        <time>2021-08-06T08:15:23Z</time>
      </trkpt>
      <trkpt lat="45.2233" lon="3.40014">
        <ele>488.6</ele>
        <time>2021-08-06T08:15:25Z</time>
      </trkpt>
      <trkpt lat="45.22331" lon="3.40007">
        <ele>487.9</ele>
        <time>2021-08-06T08:15:27Z</time>
      </trkpt>
      <trkpt lat="45.22332" lon="3.4">
        <ele>487.1</ele>
        <time>2021-08-06T08:15:29Z</time>
      </trkpt>
      <trkpt lat="45.2233" lon="3.39994">
        <ele>486.6</ele>
        <time>2021-08-06T08:15:31Z</time>
      </trkpt>
      <trkpt lat="45.22325" lon="3.39988">
        <ele>486.3</ele>
        <time>2021-08-06T08:15:33Z</time>
      </trkpt>
      <trkpt lat="45.22321" lon="3.39982">
        <ele>485.9</ele>
        <time>2021-08-06T08:15:35Z</time>
      </trkpt>
      <trkpt lat="45.22314" lon="3.39978">
        <ele>485.8</ele>
        <time>2021-08-06T08:15:37Z</time>
      </trkpt>
      <trkpt lat="45.22306" lon="3.39975">
        <ele>486</ele>
        <time>2021-08-06T08:15:39Z</time>
      </trkpt>
      <trkpt lat="45.22299" lon="3.39975">
        <ele>486.3</ele>
        <time>2021-08-06T08:15:41Z</time>
      </trkpt>
      <trkpt lat="45.22292" lon="3.39974">
        <ele>486.7</ele>
        <time>2021-08-06T08:15:43Z</time>
      </trkpt>
      <trkpt lat="45.22285" lon="3.39975">
        <ele>487.1</ele>
        <time>2021-08-06T08:15:45Z</time>
      </trkpt>
      <trkpt lat="45.22278" lon="3.39974">
        <ele>487.4</ele>
        <time>2021-08-06T08:15:47Z</time>
      </trkpt>
      <trkpt lat="45.22271" lon="3.39975">
        <ele>487.8</ele>
        <time>2021-08-06T08:15:49Z</time>
      </trkpt>
      <trkpt lat="45.22264" lon="3.39975">
        <ele>488.1</ele>
        <time>2021-08-06T08:15:51Z</time>
      </trkpt>
      <trkpt lat="45.22257" lon="3.39973">
        <ele>488.4</ele>
        <time>2021-08-06T08:15:53Z</time>
      </trkpt>
      <trkpt lat="45.22249" lon="3.3997">
        <ele>488.6</ele>
        <time>2021-08-06T08:15:55Z</time>
      </trkpt>
      <trkpt lat="45.22242" lon="3.39965">
        <ele>489.1</ele>
        <time>2021-08-06T08:15:57Z</time>
      </trkpt>
      <trkpt lat="45.22236" lon="3.3996">
        <ele>489.6</ele>
        <time>2021-08-06T08:15:59Z</time>
      </trkpt>
      <trkpt lat="45.2223" lon="3.39955">
        <ele>490.1</ele>
        <time>2021-08-06T08:16:01Z</time>
      </trkpt>
      <trkpt lat="45.22223" lon="3.39952">
        <ele>490.7</ele>
        <time>2021-08-06T08:16:03Z</time>
      </trkpt>
      <trkpt lat="45.22216" lon="3.39949">
        <ele>491.3</ele>
        <time>2021-08-06T08:16:05Z</time>
      </trkpt>
      <trkpt lat="45.22209" lon="3.39947">
        <ele>492.2</ele>
        <time>2021-08-06T08:16:07Z</time>
      </trkpt>
      <trkpt lat="45.22202" lon="3.39944">
        <ele>492.8</ele>
        <time>2021-08-06T08:16:09Z</time>
      </trkpt>
      <trkpt lat="45.22196" lon="3.39938">
        <ele>493</ele>
        <time>2021-08-06T08:16:11Z</time>
      </trkpt>
      <trkpt lat="45.22191" lon="3.39932">
        <ele>493.2</ele>
        <time>2021-08-06T08:16:13Z</time>
      </trkpt>
      <trkpt lat="45.22186" lon="3.39926">
        <ele>493.3</ele>
        <time>2021-08-06T08:16:15Z</time>
      </trkpt>
      <trkpt lat="45.22182" lon="3.39919">
        <ele>493.3</ele>
        <time>2021-08-06T08:16:17Z</time>
      </trkpt>
      <trkpt lat="45.22177" lon="3.39914">
        <ele>493.2</ele>
        <time>2021-08-06T08:16:19Z</time>
      </trkpt>
      <trkpt lat="45.22173" lon="3.39908">
        <ele>493</ele>
        <time>2021-08-06T08:16:21Z</time>
      </trkpt>
      <trkpt lat="45.22168" lon="3.39902">
        <ele>492.8</ele>
        <time>2021-08-06T08:16:23Z</time>
      </trkpt>
      <trkpt lat="45.22164" lon="3.39896">
        <ele>492.7</ele>
        <time>2021-08-06T08:16:25Z</time>
      </trkpt>
      <trkpt lat="45.2216" lon="3.3989">
        <ele>492.5</ele>
        <time>2021-08-06T08:16:27Z</time>
      </trkpt>
      <trkpt lat="45.22155" lon="3.39884">
        <ele>492.2</ele>
        <time>2021-08-06T08:16:29Z</time>
      </trkpt>
      <trkpt lat="45.22149" lon="3.39874">
        <ele>491.5</ele>
        <time>2021-08-06T08:16:31Z</time>
      </trkpt>
      <trkpt lat="45.22142" lon="3.39865">
        <ele>490.6</ele>
        <time>2021-08-06T08:16:33Z</time>
      </trkpt>
      <trkpt lat="45.22134" lon="3.39854">
        <ele>489.4</ele>
        <time>2021-08-06T08:16:35Z</time>
      </trkpt>
      <trkpt lat="45.22123" lon="3.39844">
        <ele>488.3</ele>
        <time>2021-08-06T08:16:37Z</time>
      </trkpt>
      <trkpt lat="45.22111" lon="3.39835">
        <ele>487</ele>
        <time>2021-08-06T08:16:39Z</time>
      </trkpt>
      <trkpt lat="45.22097" lon="3.39827">
        <ele>485.9</ele>
        <time>2021-08-06T08:16:41Z</time>
      </trkpt>
      <trkpt lat="45.22083" lon="3.3982">
        <ele>484.5</ele>
        <time>2021-08-06T08:16:43Z</time>
      </trkpt>
      <trkpt lat="45.22068" lon="3.39811">
        <ele>483.4</ele>
        <time>2021-08-06T08:16:45Z</time>
      </trkpt>
      <trkpt lat="45.22053" lon="3.39802">
        <ele>482.2</ele>
        <time>2021-08-06T08:16:47Z</time>
      </trkpt>
      <trkpt lat="45.22036" lon="3.39792">
        <ele>480.8</ele>
        <time>2021-08-06T08:16:49Z</time>
      </trkpt>
      <trkpt lat="45.22021" lon="3.39784">
        <ele>479.6</ele>
        <time>2021-08-06T08:16:51Z</time>
      </trkpt>
      <trkpt lat="45.22005" lon="3.39776">
        <ele>478.5</ele>
        <time>2021-08-06T08:16:53Z</time>
      </trkpt>
      <trkpt lat="45.2199" lon="3.39767">
        <ele>476.4</ele>
        <time>2021-08-06T08:16:55Z</time>
      </trkpt>
      <trkpt lat="45.21977" lon="3.39759">
        <ele>474.3</ele>
        <time>2021-08-06T08:16:57Z</time>
      </trkpt>
      <trkpt lat="45.21964" lon="3.39753">
        <ele>472.8</ele>
        <time>2021-08-06T08:16:59Z</time>
      </trkpt>
      <trkpt lat="45.21951" lon="3.39751">
        <ele>472.3</ele>
        <time>2021-08-06T08:17:01Z</time>
      </trkpt>
      <trkpt lat="45.21937" lon="3.39754">
        <ele>472.9</ele>
        <time>2021-08-06T08:17:03Z</time>
      </trkpt>
      <trkpt lat="45.21923" lon="3.39762">
        <ele>474.6</ele>
        <time>2021-08-06T08:17:05Z</time>
      </trkpt>
      <trkpt lat="45.21909" lon="3.3977">
        <ele>475.7</ele>
        <time>2021-08-06T08:17:07Z</time>
      </trkpt>
      <trkpt lat="45.21894" lon="3.39779">
        <ele>476.1</ele>
        <time>2021-08-06T08:17:09Z</time>
      </trkpt>
      <trkpt lat="45.21879" lon="3.39787">
        <ele>476.2</ele>
        <time>2021-08-06T08:17:11Z</time>
      </trkpt>
      <trkpt lat="45.21864" lon="3.39798">
        <ele>476.3</ele>
        <time>2021-08-06T08:17:13Z</time>
      </trkpt>
      <trkpt lat="45.21849" lon="3.39804">
        <ele>475.4</ele>
        <time>2021-08-06T08:17:15Z</time>
      </trkpt>
      <trkpt lat="45.21831" lon="3.39806">
        <ele>473.6</ele>
        <time>2021-08-06T08:17:17Z</time>
      </trkpt>
      <trkpt lat="45.21813" lon="3.39807">
        <ele>472.3</ele>
        <time>2021-08-06T08:17:19Z</time>
      </trkpt>
      <trkpt lat="45.21794" lon="3.39807">
        <ele>471</ele>
        <time>2021-08-06T08:17:21Z</time>
      </trkpt>
      <trkpt lat="45.21775" lon="3.39807">
        <ele>469.6</ele>
        <time>2021-08-06T08:17:23Z</time>
      </trkpt>
      <trkpt lat="45.21756" lon="3.39807">
        <ele>468.2</ele>
        <time>2021-08-06T08:17:25Z</time>
      </trkpt>
      <trkpt lat="45.21737" lon="3.39807">
        <ele>465.5</ele>
        <time>2021-08-06T08:17:27Z</time>
      </trkpt>
      <trkpt lat="45.21719" lon="3.39807">
        <ele>462.4</ele>
        <time>2021-08-06T08:17:29Z</time>
      </trkpt>
      <trkpt lat="45.21703" lon="3.39806">
        <ele>459.4</ele>
        <time>2021-08-06T08:17:31Z</time>
      </trkpt>
      <trkpt lat="45.21687" lon="3.39805">
        <ele>456.4</ele>
        <time>2021-08-06T08:17:33Z</time>
      </trkpt>
      <trkpt lat="45.2167" lon="3.39811">
        <ele>454.4</ele>
        <time>2021-08-06T08:17:35Z</time>
      </trkpt>
      <trkpt lat="45.21657" lon="3.3982">
        <ele>454.4</ele>
        <time>2021-08-06T08:17:37Z</time>
      </trkpt>
      <trkpt lat="45.21649" lon="3.39833">
        <ele>455.4</ele>
        <time>2021-08-06T08:17:39Z</time>
      </trkpt>
      <trkpt lat="45.21646" lon="3.3985">
        <ele>457.3</ele>
        <time>2021-08-06T08:17:41Z</time>
      </trkpt>
      <trkpt lat="45.2165" lon="3.39871">
        <ele>459.7</ele>
        <time>2021-08-06T08:17:43Z</time>
      </trkpt>
      <trkpt lat="45.21646" lon="3.39887">
        <ele>461.7</ele>
        <time>2021-08-06T08:17:45Z</time>
      </trkpt>
      <trkpt lat="45.21636" lon="3.399">
        <ele>464.3</ele>
        <time>2021-08-06T08:17:47Z</time>
      </trkpt>
      <trkpt lat="45.21624" lon="3.39898">
        <ele>465.4</ele>
        <time>2021-08-06T08:17:49Z</time>
      </trkpt>
      <trkpt lat="45.21615" lon="3.39882">
        <ele>462.9</ele>
        <time>2021-08-06T08:17:51Z</time>
      </trkpt>
      <trkpt lat="45.21607" lon="3.39864">
        <ele>459</ele>
        <time>2021-08-06T08:17:53Z</time>
      </trkpt>
      <trkpt lat="45.21599" lon="3.39845">
        <ele>454.4</ele>
        <time>2021-08-06T08:17:55Z</time>
      </trkpt>
      <trkpt lat="45.2159" lon="3.39831">
        <ele>450.3</ele>
        <time>2021-08-06T08:17:57Z</time>
      </trkpt>
      <trkpt lat="45.21576" lon="3.39822">
        <ele>449</ele>
        <time>2021-08-06T08:17:59Z</time>
      </trkpt>
      <trkpt lat="45.21561" lon="3.39821">
        <ele>449.7</ele>
        <time>2021-08-06T08:18:01Z</time>
      </trkpt>
      <trkpt lat="45.21545" lon="3.39824">
        <ele>450.9</ele>
        <time>2021-08-06T08:18:03Z</time>
      </trkpt>
      <trkpt lat="45.21531" lon="3.39829">
        <ele>452.1</ele>
        <time>2021-08-06T08:18:05Z</time>
      </trkpt>
      <trkpt lat="45.21517" lon="3.39835">
        <ele>453.7</ele>
        <time>2021-08-06T08:18:07Z</time>
      </trkpt>
      <trkpt lat="45.21503" lon="3.39839">
        <ele>455.7</ele>
        <time>2021-08-06T08:18:09Z</time>
      </trkpt>
      <trkpt lat="45.21489" lon="3.39844">
        <ele>456</ele>
        <time>2021-08-06T08:18:11Z</time>
      </trkpt>
      <trkpt lat="45.21476" lon="3.39848">
        <ele>456</ele>
        <time>2021-08-06T08:18:13Z</time>
      </trkpt>
      <trkpt lat="45.21462" lon="3.39852">
        <ele>455.7</ele>
        <time>2021-08-06T08:18:15Z</time>
      </trkpt>
      <trkpt lat="45.21449" lon="3.39858">
        <ele>456</ele>
        <time>2021-08-06T08:18:17Z</time>
      </trkpt>
      <trkpt lat="45.21436" lon="3.39863">
        <ele>456.1</ele>
        <time>2021-08-06T08:18:19Z</time>
      </trkpt>
      <trkpt lat="45.21424" lon="3.39867">
        <ele>456</ele>
        <time>2021-08-06T08:18:21Z</time>
      </trkpt>
      <trkpt lat="45.21412" lon="3.39872">
        <ele>456.1</ele>
        <time>2021-08-06T08:18:23Z</time>
      </trkpt>
      <trkpt lat="45.214" lon="3.39876">
        <ele>456.2</ele>
        <time>2021-08-06T08:18:25Z</time>
      </trkpt>
      <trkpt lat="45.21389" lon="3.39879">
        <ele>456.1</ele>
        <time>2021-08-06T08:18:27Z</time>
      </trkpt>
      <trkpt lat="45.21378" lon="3.39883">
        <ele>455.9</ele>
        <time>2021-08-06T08:18:29Z</time>
      </trkpt>
      <trkpt lat="45.21368" lon="3.39886">
        <ele>455.6</ele>
        <time>2021-08-06T08:18:31Z</time>
      </trkpt>
      <trkpt lat="45.21359" lon="3.39889">
        <ele>455.2</ele>
        <time>2021-08-06T08:18:33Z</time>
      </trkpt>
      <trkpt lat="45.21351" lon="3.39893">
        <ele>455.1</ele>
        <time>2021-08-06T08:18:35Z</time>
      </trkpt>
      <trkpt lat="45.21342" lon="3.39896">
        <ele>454.7</ele>
        <time>2021-08-06T08:18:37Z</time>
      </trkpt>
      <trkpt lat="45.21337" lon="3.399">
        <ele>454.7</ele>
        <time>2021-08-06T08:18:39Z</time>
      </trkpt>
      <trkpt lat="45.2133" lon="3.39904">
        <ele>454.6</ele>
        <time>2021-08-06T08:18:41Z</time>
      </trkpt>
      <trkpt lat="45.21325" lon="3.39908">
        <ele>454.8</ele>
        <time>2021-08-06T08:18:43Z</time>
      </trkpt>
      <trkpt lat="45.2132" lon="3.39912">
        <ele>454.9</ele>
        <time>2021-08-06T08:18:45Z</time>
      </trkpt>
      <trkpt lat="45.21314" lon="3.39914">
        <ele>454.8</ele>
        <time>2021-08-06T08:18:47Z</time>
      </trkpt>
      <trkpt lat="45.21308" lon="3.39918">
        <ele>454.9</ele>
        <time>2021-08-06T08:18:49Z</time>
      </trkpt>
      <trkpt lat="45.21302" lon="3.39922">
        <ele>455.5</ele>
        <time>2021-08-06T08:18:51Z</time>
      </trkpt>
      <trkpt lat="45.21297" lon="3.39924">
        <ele>455.9</ele>
        <time>2021-08-06T08:18:53Z</time>
      </trkpt>
      <trkpt lat="45.21292" lon="3.39927">
        <ele>456.2</ele>
        <time>2021-08-06T08:18:55Z</time>
      </trkpt>
      <trkpt lat="45.21287" lon="3.3993">
        <ele>456.7</ele>
        <time>2021-08-06T08:18:57Z</time>
      </trkpt>
      <trkpt lat="45.21282" lon="3.39933">
        <ele>457.1</ele>
        <time>2021-08-06T08:18:59Z</time>
      </trkpt>
      <trkpt lat="45.21277" lon="3.39936">
        <ele>457.5</ele>
        <time>2021-08-06T08:19:01Z</time>
      </trkpt>
      <trkpt lat="45.21272" lon="3.39939">
        <ele>457.8</ele>
        <time>2021-08-06T08:19:03Z</time>
      </trkpt>
      <trkpt lat="45.21267" lon="3.3994">
        <ele>457.8</ele>
        <time>2021-08-06T08:19:05Z</time>
      </trkpt>
      <trkpt lat="45.21262" lon="3.39943">
        <ele>458</ele>
        <time>2021-08-06T08:19:07Z</time>
      </trkpt>
      <trkpt lat="45.21257" lon="3.39945">
        <ele>458.1</ele>
        <time>2021-08-06T08:19:09Z</time>
      </trkpt>
      <trkpt lat="45.21252" lon="3.39948">
        <ele>458.5</ele>
        <time>2021-08-06T08:19:11Z</time>
      </trkpt>
      <trkpt lat="45.21247" lon="3.3995">
        <ele>458.8</ele>
        <time>2021-08-06T08:19:13Z</time>
      </trkpt>
      <trkpt lat="45.21243" lon="3.39952">
        <ele>459</ele>
        <time>2021-08-06T08:19:15Z</time>
      </trkpt>
      <trkpt lat="45.21238" lon="3.39955">
        <ele>459.3</ele>
        <time>2021-08-06T08:19:17Z</time>
      </trkpt>
      <trkpt lat="45.21233" lon="3.39957">
        <ele>459.5</ele>
        <time>2021-08-06T08:19:19Z</time>
      </trkpt>
      <trkpt lat="45.21229" lon="3.3996">
        <ele>459.9</ele>
        <time>2021-08-06T08:19:21Z</time>
      </trkpt>
      <trkpt lat="45.21225" lon="3.39961">
        <ele>459.9</ele>
        <time>2021-08-06T08:19:23Z</time>
      </trkpt>
      <trkpt lat="45.21221" lon="3.39962">
        <ele>459.8</ele>
        <time>2021-08-06T08:19:25Z</time>
      </trkpt>
      <trkpt lat="45.21216" lon="3.39963">
        <ele>459.6</ele>
        <time>2021-08-06T08:19:27Z</time>
      </trkpt>
      <trkpt lat="45.21212" lon="3.39965">
        <ele>459.7</ele>
        <time>2021-08-06T08:19:29Z</time>
      </trkpt>
      <trkpt lat="45.21208" lon="3.39967">
        <ele>459.6</ele>
        <time>2021-08-06T08:19:31Z</time>
      </trkpt>
      <trkpt lat="45.21204" lon="3.39968">
        <ele>459.6</ele>
        <time>2021-08-06T08:19:33Z</time>
      </trkpt>
      <trkpt lat="45.212" lon="3.3997">
        <ele>459.6</ele>
        <time>2021-08-06T08:19:35Z</time>
      </trkpt>
      <trkpt lat="45.21196" lon="3.39972">
        <ele>459.5</ele>
        <time>2021-08-06T08:19:37Z</time>
      </trkpt>
      <trkpt lat="45.21192" lon="3.39973">
        <ele>459.5</ele>
        <time>2021-08-06T08:19:39Z</time>
      </trkpt>
      <trkpt lat="45.21189" lon="3.39976">
        <ele>459.6</ele>
        <time>2021-08-06T08:19:41Z</time>
      </trkpt>
      <trkpt lat="45.21187" lon="3.39978">
        <ele>459.9</ele>
        <time>2021-08-06T08:19:43Z</time>
      </trkpt>
      <trkpt lat="45.21186" lon="3.3998">
        <ele>460.2</ele>
        <time>2021-08-06T08:19:45Z</time>
      </trkpt>
      <trkpt lat="45.21183" lon="3.3998">
        <ele>460</ele>
        <time>2021-08-06T08:19:47Z</time>
      </trkpt>
      <trkpt lat="45.21181" lon="3.39981">
        <ele>459.8</ele>
        <time>2021-08-06T08:19:49Z</time>
      </trkpt>
      <trkpt lat="45.21178" lon="3.39981">
        <ele>459.5</ele>
        <time>2021-08-06T08:19:51Z</time>
      </trkpt>
      <trkpt lat="45.21176" lon="3.39983">
        <ele>459.7</ele>
        <time>2021-08-06T08:19:53Z</time>
      </trkpt>
      <trkpt lat="45.21174" lon="3.39985">
        <ele>459.8</ele>
        <time>2021-08-06T08:19:55Z</time>
      </trkpt>
      <trkpt lat="45.21172" lon="3.39987">
        <ele>460</ele>
        <time>2021-08-06T08:19:57Z</time>
      </trkpt>
      <trkpt lat="45.21171" lon="3.39989">
        <ele>460.3</ele>
        <time>2021-08-06T08:19:59Z</time>
      </trkpt>
      <trkpt lat="45.2117" lon="3.39989">
        <ele>460.2</ele>
        <time>2021-08-06T08:20:01Z</time>
      </trkpt>
      <trkpt lat="45.2117" lon="3.39988">
        <ele>460</ele>
        <time>2021-08-06T08:20:03Z</time>
      </trkpt>
      <trkpt lat="45.2117" lon="3.39988">
        <ele>460</ele>
        <time>2021-08-06T08:20:05Z</time>
      </trkpt>
      <trkpt lat="45.2117" lon="3.39988">
        <ele>460</ele>
        <time>2021-08-06T08:20:07Z</time>
      </trkpt>
      <trkpt lat="45.2117" lon="3.39989">
        <ele>460.1</ele>
        <time>2021-08-06T08:20:09Z</time>
      </trkpt>
      <trkpt lat="45.21167" lon="3.39989">
        <ele>459.7</ele>
        <time>2021-08-06T08:21:17Z</time>
      </trkpt>
      <trkpt lat="45.21167" lon="3.39988">
        <ele>459.6</ele>
        <time>2021-08-06T08:21:19Z</time>
      </trkpt>
      <trkpt lat="45.21167" lon="3.39988">
        <ele>459.6</ele>
        <time>2021-08-06T08:21:21Z</time>
      </trkpt>
      <trkpt lat="45.21168" lon="3.39988">
        <ele>459.7</ele>
        <time>2021-08-06T08:21:23Z</time>
      </trkpt>
      <trkpt lat="45.21167" lon="3.3999">
        <ele>460.1</ele>
        <time>2021-08-06T08:21:25Z</time>
      </trkpt>
      <trkpt lat="45.21165" lon="3.39994">
        <ele>460.6</ele>
        <time>2021-08-06T08:21:27Z</time>
      </trkpt>
      <trkpt lat="45.21163" lon="3.39996">
        <ele>460.8</ele>
        <time>2021-08-06T08:21:29Z</time>
      </trkpt>
      <trkpt lat="45.2116" lon="3.39999">
        <ele>461.1</ele>
        <time>2021-08-06T08:21:31Z</time>
      </trkpt>
      <trkpt lat="45.2116" lon="3.40002">
        <ele>461.7</ele>
        <time>2021-08-06T08:21:33Z</time>
      </trkpt>
      <trkpt lat="45.21159" lon="3.40004">
        <ele>462.1</ele>
        <time>2021-08-06T08:21:35Z</time>
      </trkpt>
      <trkpt lat="45.21158" lon="3.40006">
        <ele>462.2</ele>
        <time>2021-08-06T08:21:37Z</time>
      </trkpt>
      <trkpt lat="45.21158" lon="3.40007">
        <ele>462.4</ele>
        <time>2021-08-06T08:21:39Z</time>
      </trkpt>
      <trkpt lat="45.21158" lon="3.40006">
        <ele>462.4</ele>
        <time>2021-08-06T08:21:41Z</time>
      </trkpt>
      <trkpt lat="45.21158" lon="3.40007">
        <ele>462.4</ele>
        <time>2021-08-06T08:21:43Z</time>
      </trkpt>
      <trkpt lat="45.21159" lon="3.40007">
        <ele>462.5</ele>
        <time>2021-08-06T08:21:45Z</time>
      </trkpt>
      <trkpt lat="45.21153" lon="3.40025">
        <ele>465.8</ele>
        <time>2021-08-06T08:22:49Z</time>
      </trkpt>
      <trkpt lat="45.2115" lon="3.40031">
        <ele>466.9</ele>
        <time>2021-08-06T08:22:51Z</time>
      </trkpt>
      <trkpt lat="45.21143" lon="3.40034">
        <ele>467.1</ele>
        <time>2021-08-06T08:22:53Z</time>
      </trkpt>
      <trkpt lat="45.21137" lon="3.40031">
        <ele>466.2</ele>
        <time>2021-08-06T08:22:55Z</time>
      </trkpt>
      <trkpt lat="45.21132" lon="3.40033">
        <ele>466.3</ele>
        <time>2021-08-06T08:22:57Z</time>
      </trkpt>
      <trkpt lat="45.21127" lon="3.40035">
        <ele>466.5</ele>
        <time>2021-08-06T08:22:59Z</time>
      </trkpt>
      <trkpt lat="45.21125" lon="3.40035">
        <ele>466.2</ele>
        <time>2021-08-06T08:23:01Z</time>
      </trkpt>
      <trkpt lat="45.21121" lon="3.40035">
        <ele>466.1</ele>
        <time>2021-08-06T08:23:03Z</time>
      </trkpt>
      <trkpt lat="45.21116" lon="3.40037">
        <ele>466.3</ele>
        <time>2021-08-06T08:23:05Z</time>
      </trkpt>
      <trkpt lat="45.21111" lon="3.40036">
        <ele>465.7</ele>
        <time>2021-08-06T08:23:07Z</time>
      </trkpt>
      <trkpt lat="45.21107" lon="3.40034">
        <ele>464.9</ele>
        <time>2021-08-06T08:23:09Z</time>
      </trkpt>
      <trkpt lat="45.21103" lon="3.40031">
        <ele>463.8</ele>
        <time>2021-08-06T08:23:11Z</time>
      </trkpt>
      <trkpt lat="45.21099" lon="3.40026">
        <ele>462.4</ele>
        <time>2021-08-06T08:23:13Z</time>
      </trkpt>
      <trkpt lat="45.21095" lon="3.40022">
        <ele>460.8</ele>
        <time>2021-08-06T08:23:15Z</time>
      </trkpt>
      <trkpt lat="45.21091" lon="3.40019">
        <ele>459.4</ele>
        <time>2021-08-06T08:23:17Z</time>
      </trkpt>
      <trkpt lat="45.21086" lon="3.40015">
        <ele>458</ele>
        <time>2021-08-06T08:23:19Z</time>
      </trkpt>
      <trkpt lat="45.21082" lon="3.40012">
        <ele>456.8</ele>
        <time>2021-08-06T08:23:21Z</time>
      </trkpt>
      <trkpt lat="45.21078" lon="3.40011">
        <ele>456.5</ele>
        <time>2021-08-06T08:23:23Z</time>
      </trkpt>
      <trkpt lat="45.21073" lon="3.40009">
        <ele>456.3</ele>
        <time>2021-08-06T08:23:25Z</time>
      </trkpt>
      <trkpt lat="45.21067" lon="3.40007">
        <ele>455.8</ele>
        <time>2021-08-06T08:23:27Z</time>
      </trkpt>
      <trkpt lat="45.21062" lon="3.40005">
        <ele>455.5</ele>
        <time>2021-08-06T08:23:29Z</time>
      </trkpt>
      <trkpt lat="45.21057" lon="3.40004">
        <ele>455.4</ele>
        <time>2021-08-06T08:23:31Z</time>
      </trkpt>
      <trkpt lat="45.21052" lon="3.40004">
        <ele>455.6</ele>
        <time>2021-08-06T08:23:33Z</time>
      </trkpt>
      <trkpt lat="45.2105" lon="3.40004">
        <ele>455.7</ele>
        <time>2021-08-06T08:23:35Z</time>
      </trkpt>
      <trkpt lat="45.21048" lon="3.40005">
        <ele>455.9</ele>
        <time>2021-08-06T08:23:37Z</time>
      </trkpt>
      <trkpt lat="45.21044" lon="3.40005">
        <ele>456.1</ele>
        <time>2021-08-06T08:23:39Z</time>
      </trkpt>
      <trkpt lat="45.21042" lon="3.40005">
        <ele>456.3</ele>
        <time>2021-08-06T08:23:41Z</time>
      </trkpt>
      <trkpt lat="45.21039" lon="3.40006">
        <ele>456.5</ele>
        <time>2021-08-06T08:23:43Z</time>
      </trkpt>
      <trkpt lat="45.21036" lon="3.40006">
        <ele>456.8</ele>
        <time>2021-08-06T08:23:45Z</time>
      </trkpt>
      <trkpt lat="45.21032" lon="3.40007">
        <ele>457.2</ele>
        <time>2021-08-06T08:23:47Z</time>
      </trkpt>
      <trkpt lat="45.21027" lon="3.40007">
        <ele>457.5</ele>
        <time>2021-08-06T08:23:49Z</time>
      </trkpt>
      <trkpt lat="45.21022" lon="3.40008">
        <ele>458</ele>
        <time>2021-08-06T08:23:51Z</time>
      </trkpt>
      <trkpt lat="45.21017" lon="3.40009">
        <ele>458.5</ele>
        <time>2021-08-06T08:23:53Z</time>
      </trkpt>
      <trkpt lat="45.21011" lon="3.40008">
        <ele>458.7</ele>
        <time>2021-08-06T08:23:55Z</time>
      </trkpt>
      <trkpt lat="45.21004" lon="3.40009">
        <ele>459.3</ele>
        <time>2021-08-06T08:23:57Z</time>
      </trkpt>
      <trkpt lat="45.20996" lon="3.4001">
        <ele>459.9</ele>
        <time>2021-08-06T08:23:59Z</time>
      </trkpt>
      <trkpt lat="45.20987" lon="3.40011">
        <ele>460.2</ele>
        <time>2021-08-06T08:24:01Z</time>
      </trkpt>
      <trkpt lat="45.20977" lon="3.40012">
        <ele>460.5</ele>
        <time>2021-08-06T08:24:03Z</time>
      </trkpt>
      <trkpt lat="45.20966" lon="3.40013">
        <ele>461</ele>
        <time>2021-08-06T08:24:05Z</time>
      </trkpt>
      <trkpt lat="45.20954" lon="3.40012">
        <ele>460.7</ele>
        <time>2021-08-06T08:24:07Z</time>
      </trkpt>
      <trkpt lat="45.20942" lon="3.40011">
        <ele>460.7</ele>
        <time>2021-08-06T08:24:09Z</time>
      </trkpt>
      <trkpt lat="45.20929" lon="3.40011">
        <ele>460.7</ele>
        <time>2021-08-06T08:24:11Z</time>
      </trkpt>
      <trkpt lat="45.20917" lon="3.40011">
        <ele>460.7</ele>
        <time>2021-08-06T08:24:13Z</time>
      </trkpt>
      <trkpt lat="45.20904" lon="3.40011">
        <ele>460.2</ele>
        <time>2021-08-06T08:24:15Z</time>
      </trkpt>
      <trkpt lat="45.20891" lon="3.4001">
        <ele>459.4</ele>
        <time>2021-08-06T08:24:17Z</time>
      </trkpt>
      <trkpt lat="45.20879" lon="3.40011">
        <ele>459</ele>
        <time>2021-08-06T08:24:19Z</time>
      </trkpt>
      <trkpt lat="45.20867" lon="3.4001">
        <ele>458.3</ele>
        <time>2021-08-06T08:24:21Z</time>
      </trkpt>
      <trkpt lat="45.20856" lon="3.4001">
        <ele>457.6</ele>
        <time>2021-08-06T08:24:23Z</time>
      </trkpt>
      <trkpt lat="45.20844" lon="3.4001">
        <ele>457.1</ele>
        <time>2021-08-06T08:24:25Z</time>
      </trkpt>
      <trkpt lat="45.20832" lon="3.4001">
        <ele>456.6</ele>
        <time>2021-08-06T08:24:27Z</time>
      </trkpt>
      <trkpt lat="45.2082" lon="3.40011">
        <ele>456.2</ele>
        <time>2021-08-06T08:24:29Z</time>
      </trkpt>
      <trkpt lat="45.20809" lon="3.40012">
        <ele>455.7</ele>
        <time>2021-08-06T08:24:31Z</time>
      </trkpt>
      <trkpt lat="45.20798" lon="3.40012">
        <ele>455.3</ele>
        <time>2021-08-06T08:24:33Z</time>
      </trkpt>
      <trkpt lat="45.20786" lon="3.40013">
        <ele>454.9</ele>
        <time>2021-08-06T08:24:35Z</time>
      </trkpt>
      <trkpt lat="45.20775" lon="3.40013">
        <ele>454.2</ele>
        <time>2021-08-06T08:24:37Z</time>
      </trkpt>
      <trkpt lat="45.20764" lon="3.40012">
        <ele>453.3</ele>
        <time>2021-08-06T08:24:39Z</time>
      </trkpt>
      <trkpt lat="45.20754" lon="3.40012">
        <ele>452.5</ele>
        <time>2021-08-06T08:24:41Z</time>
      </trkpt>
      <trkpt lat="45.20743" lon="3.40011">
        <ele>451.6</ele>
        <time>2021-08-06T08:24:43Z</time>
      </trkpt>
      <trkpt lat="45.20734" lon="3.40008">
        <ele>450.5</ele>
        <time>2021-08-06T08:24:45Z</time>
      </trkpt>
      <trkpt lat="45.20724" lon="3.40005">
        <ele>449.4</ele>
        <time>2021-08-06T08:24:47Z</time>
      </trkpt>
      <trkpt lat="45.20714" lon="3.40002">
        <ele>448.5</ele>
        <time>2021-08-06T08:24:49Z</time>
      </trkpt>
      <trkpt lat="45.20704" lon="3.40005">
        <ele>448.8</ele>
        <time>2021-08-06T08:24:51Z</time>
      </trkpt>
      <trkpt lat="45.20694" lon="3.40013">
        <ele>449.8</ele>
        <time>2021-08-06T08:24:53Z</time>
      </trkpt>
      <trkpt lat="45.20685" lon="3.40022">
        <ele>450.9</ele>
        <time>2021-08-06T08:24:55Z</time>
      </trkpt>
      <trkpt lat="45.20675" lon="3.40031">
        <ele>451.5</ele>
        <time>2021-08-06T08:24:57Z</time>
      </trkpt>
      <trkpt lat="45.20668" lon="3.40039">
        <ele>451.8</ele>
        <time>2021-08-06T08:24:59Z</time>
      </trkpt>
      <trkpt lat="45.20663" lon="3.40047">
        <ele>452.8</ele>
        <time>2021-08-06T08:25:01Z</time>
      </trkpt>
      <trkpt lat="45.20659" lon="3.40059">
        <ele>454.4</ele>
        <time>2021-08-06T08:25:03Z</time>
      </trkpt>
      <trkpt lat="45.2066" lon="3.40071">
        <ele>455.8</ele>
        <time>2021-08-06T08:25:05Z</time>
      </trkpt>
      <trkpt lat="45.20661" lon="3.40084">
        <ele>457.3</ele>
        <time>2021-08-06T08:25:07Z</time>
      </trkpt>
      <trkpt lat="45.20662" lon="3.40097">
        <ele>459.2</ele>
        <time>2021-08-06T08:25:09Z</time>
      </trkpt>
      <trkpt lat="45.2066" lon="3.40112">
        <ele>461.4</ele>
        <time>2021-08-06T08:25:11Z</time>
      </trkpt>
      <trkpt lat="45.20652" lon="3.40123">
        <ele>463.5</ele>
        <time>2021-08-06T08:25:13Z</time>
      </trkpt>
      <trkpt lat="45.2064" lon="3.40123">
        <ele>464.1</ele>
        <time>2021-08-06T08:25:15Z</time>
      </trkpt>
      <trkpt lat="45.20631" lon="3.40117">
        <ele>463.7</ele>
        <time>2021-08-06T08:25:17Z</time>
      </trkpt>
      <trkpt lat="45.20625" lon="3.40109">
        <ele>462.8</ele>
        <time>2021-08-06T08:25:19Z</time>
      </trkpt>
      <trkpt lat="45.2062" lon="3.40101">
        <ele>461.9</ele>
        <time>2021-08-06T08:25:21Z</time>
      </trkpt>
      <trkpt lat="45.20615" lon="3.40092">
        <ele>460.8</ele>
        <time>2021-08-06T08:25:23Z</time>
      </trkpt>
      <trkpt lat="45.20609" lon="3.40083">
        <ele>459.7</ele>
        <time>2021-08-06T08:25:25Z</time>
      </trkpt>
      <trkpt lat="45.20604" lon="3.40075">
        <ele>458.7</ele>
        <time>2021-08-06T08:25:27Z</time>
      </trkpt>
      <trkpt lat="45.20598" lon="3.40067">
        <ele>457.7</ele>
        <time>2021-08-06T08:25:29Z</time>
      </trkpt>
      <trkpt lat="45.20593" lon="3.40061">
        <ele>456.9</ele>
        <time>2021-08-06T08:25:31Z</time>
      </trkpt>
      <trkpt lat="45.20588" lon="3.40055">
        <ele>456.1</ele>
        <time>2021-08-06T08:25:33Z</time>
      </trkpt>
      <trkpt lat="45.20582" lon="3.40051">
        <ele>455.6</ele>
        <time>2021-08-06T08:25:35Z</time>
      </trkpt>
      <trkpt lat="45.20578" lon="3.40048">
        <ele>455.7</ele>
        <time>2021-08-06T08:25:37Z</time>
      </trkpt>
      <trkpt lat="45.20574" lon="3.40046">
        <ele>455.7</ele>
        <time>2021-08-06T08:25:39Z</time>
      </trkpt>
      <trkpt lat="45.20572" lon="3.40044">
        <ele>455.7</ele>
        <time>2021-08-06T08:25:41Z</time>
      </trkpt>
      <trkpt lat="45.20569" lon="3.40043">
        <ele>455.9</ele>
        <time>2021-08-06T08:25:43Z</time>
      </trkpt>
      <trkpt lat="45.20566" lon="3.40042">
        <ele>456</ele>
        <time>2021-08-06T08:25:45Z</time>
      </trkpt>
      <trkpt lat="45.20562" lon="3.40041">
        <ele>456.3</ele>
        <time>2021-08-06T08:25:47Z</time>
      </trkpt>
      <trkpt lat="45.20558" lon="3.4004">
        <ele>456.6</ele>
        <time>2021-08-06T08:25:49Z</time>
      </trkpt>
      <trkpt lat="45.20555" lon="3.40039">
        <ele>456.9</ele>
        <time>2021-08-06T08:25:51Z</time>
      </trkpt>
      <trkpt lat="45.20551" lon="3.40039">
        <ele>457.3</ele>
        <time>2021-08-06T08:25:53Z</time>
      </trkpt>
      <trkpt lat="45.20548" lon="3.40039">
        <ele>457.6</ele>
        <time>2021-08-06T08:25:55Z</time>
      </trkpt>
      <trkpt lat="45.20544" lon="3.40037">
        <ele>457.9</ele>
        <time>2021-08-06T08:25:57Z</time>
      </trkpt>
      <trkpt lat="45.20539" lon="3.40036">
        <ele>458.3</ele>
        <time>2021-08-06T08:25:59Z</time>
      </trkpt>
      <trkpt lat="45.20534" lon="3.40036">
        <ele>458.7</ele>
        <time>2021-08-06T08:26:01Z</time>
      </trkpt>
      <trkpt lat="45.20529" lon="3.40035">
        <ele>459.2</ele>
        <time>2021-08-06T08:26:03Z</time>
      </trkpt>
      <trkpt lat="45.20526" lon="3.40034">
        <ele>459.5</ele>
        <time>2021-08-06T08:26:05Z</time>
      </trkpt>
      <trkpt lat="45.20522" lon="3.40034">
        <ele>460</ele>
        <time>2021-08-06T08:26:07Z</time>
      </trkpt>
      <trkpt lat="45.20518" lon="3.40033">
        <ele>460.2</ele>
        <time>2021-08-06T08:26:09Z</time>
      </trkpt>
      <trkpt lat="45.20514" lon="3.40032">
        <ele>460.5</ele>
        <time>2021-08-06T08:26:11Z</time>
      </trkpt>
      <trkpt lat="45.20509" lon="3.40031">
        <ele>461</ele>
        <time>2021-08-06T08:26:13Z</time>
      </trkpt>
      <trkpt lat="45.20507" lon="3.4003">
        <ele>461.2</ele>
        <time>2021-08-06T08:26:15Z</time>
      </trkpt>
      <trkpt lat="45.20503" lon="3.40028">
        <ele>461.3</ele>
        <time>2021-08-06T08:26:17Z</time>
      </trkpt>
      <trkpt lat="45.205" lon="3.40026">
        <ele>461.4</ele>
        <time>2021-08-06T08:26:19Z</time>
      </trkpt>
      <trkpt lat="45.20497" lon="3.40023">
        <ele>461.3</ele>
        <time>2021-08-06T08:26:21Z</time>
      </trkpt>
      <trkpt lat="45.20493" lon="3.40021">
        <ele>461.3</ele>
        <time>2021-08-06T08:26:23Z</time>
      </trkpt>
      <trkpt lat="45.2049" lon="3.40019">
        <ele>461.3</ele>
        <time>2021-08-06T08:26:25Z</time>
      </trkpt>
      <trkpt lat="45.20486" lon="3.40016">
        <ele>461.2</ele>
        <time>2021-08-06T08:26:27Z</time>
      </trkpt>
      <trkpt lat="45.20482" lon="3.40014">
        <ele>461.3</ele>
        <time>2021-08-06T08:26:29Z</time>
      </trkpt>
      <trkpt lat="45.20479" lon="3.40012">
        <ele>461.3</ele>
        <time>2021-08-06T08:26:31Z</time>
      </trkpt>
      <trkpt lat="45.20475" lon="3.40009">
        <ele>461.2</ele>
        <time>2021-08-06T08:26:33Z</time>
      </trkpt>
      <trkpt lat="45.20471" lon="3.40007">
        <ele>461.2</ele>
        <time>2021-08-06T08:26:35Z</time>
      </trkpt>
      <trkpt lat="45.20468" lon="3.40005">
        <ele>461.3</ele>
        <time>2021-08-06T08:26:37Z</time>
      </trkpt>
      <trkpt lat="45.20464" lon="3.40004">
        <ele>461.5</ele>
        <time>2021-08-06T08:26:39Z</time>
      </trkpt>
      <trkpt lat="45.20459" lon="3.40002">
        <ele>461.7</ele>
        <time>2021-08-06T08:26:41Z</time>
      </trkpt>
      <trkpt lat="45.20455" lon="3.40001">
        <ele>461.9</ele>
        <time>2021-08-06T08:26:43Z</time>
      </trkpt>
      <trkpt lat="45.20451" lon="3.4">
        <ele>462.2</ele>
        <time>2021-08-06T08:26:45Z</time>
      </trkpt>
      <trkpt lat="45.20447" lon="3.4">
        <ele>462.5</ele>
        <time>2021-08-06T08:26:47Z</time>
      </trkpt>
      <trkpt lat="45.20443" lon="3.4">
        <ele>462.8</ele>
        <time>2021-08-06T08:26:49Z</time>
      </trkpt>
      <trkpt lat="45.20438" lon="3.4">
        <ele>463.2</ele>
        <time>2021-08-06T08:26:51Z</time>
      </trkpt>
      <trkpt lat="45.20433" lon="3.40001">
        <ele>463.7</ele>
        <time>2021-08-06T08:26:53Z</time>
      </trkpt>
      <trkpt lat="45.20429" lon="3.4">
        <ele>464</ele>
        <time>2021-08-06T08:26:55Z</time>
      </trkpt>
      <trkpt lat="45.20424" lon="3.4">
        <ele>464.4</ele>
        <time>2021-08-06T08:26:57Z</time>
      </trkpt>
      <trkpt lat="45.2042" lon="3.40001">
        <ele>464.9</ele>
        <time>2021-08-06T08:26:59Z</time>
      </trkpt>
      <trkpt lat="45.20415" lon="3.40002">
        <ele>465.3</ele>
        <time>2021-08-06T08:27:01Z</time>
      </trkpt>
      <trkpt lat="45.20411" lon="3.40003">
        <ele>465.8</ele>
        <time>2021-08-06T08:27:03Z</time>
      </trkpt>
      <trkpt lat="45.20407" lon="3.40003">
        <ele>466.3</ele>
        <time>2021-08-06T08:27:05Z</time>
      </trkpt>
      <trkpt lat="45.20402" lon="3.40004">
        <ele>466.8</ele>
        <time>2021-08-06T08:27:07Z</time>
      </trkpt>
      <trkpt lat="45.20398" lon="3.40005">
        <ele>467.3</ele>
        <time>2021-08-06T08:27:09Z</time>
      </trkpt>
      <trkpt lat="45.20393" lon="3.40005">
        <ele>467.7</ele>
        <time>2021-08-06T08:27:11Z</time>
      </trkpt>
      <trkpt lat="45.20389" lon="3.40004">
        <ele>468.1</ele>
        <time>2021-08-06T08:27:13Z</time>
      </trkpt>
      <trkpt lat="45.20384" lon="3.40003">
        <ele>468.5</ele>
        <time>2021-08-06T08:27:15Z</time>
      </trkpt>
      <trkpt lat="45.20379" lon="3.40002">
        <ele>468.8</ele>
        <time>2021-08-06T08:27:17Z</time>
      </trkpt>
      <trkpt lat="45.20375" lon="3.4">
        <ele>469.1</ele>
        <time>2021-08-06T08:27:19Z</time>
      </trkpt>
      <trkpt lat="45.2037" lon="3.39997">
        <ele>469.1</ele>
        <time>2021-08-06T08:27:21Z</time>
      </trkpt>
      <trkpt lat="45.20366" lon="3.39994">
        <ele>469.1</ele>
        <time>2021-08-06T08:27:23Z</time>
      </trkpt>
      <trkpt lat="45.20362" lon="3.39989">
        <ele>468.9</ele>
        <time>2021-08-06T08:27:25Z</time>
      </trkpt>
      <trkpt lat="45.20358" lon="3.39983">
        <ele>468.7</ele>
        <time>2021-08-06T08:27:27Z</time>
      </trkpt>
      <trkpt lat="45.20355" lon="3.39978">
        <ele>468.4</ele>
        <time>2021-08-06T08:27:29Z</time>
      </trkpt>
      <trkpt lat="45.20353" lon="3.39972">
        <ele>468</ele>
        <time>2021-08-06T08:27:31Z</time>
      </trkpt>
      <trkpt lat="45.20351" lon="3.39966">
        <ele>467.7</ele>
        <time>2021-08-06T08:27:33Z</time>
      </trkpt>
      <trkpt lat="45.20348" lon="3.3996">
        <ele>467.5</ele>
        <time>2021-08-06T08:27:35Z</time>
      </trkpt>
      <trkpt lat="45.20345" lon="3.39956">
        <ele>467.5</ele>
        <time>2021-08-06T08:27:37Z</time>
      </trkpt>
      <trkpt lat="45.20342" lon="3.3995">
        <ele>467.4</ele>
        <time>2021-08-06T08:27:39Z</time>
      </trkpt>
      <trkpt lat="45.20339" lon="3.39945">
        <ele>467.5</ele>
        <time>2021-08-06T08:27:41Z</time>
      </trkpt>
      <trkpt lat="45.20335" lon="3.39941">
        <ele>467.7</ele>
        <time>2021-08-06T08:27:43Z</time>
      </trkpt>
      <trkpt lat="45.20332" lon="3.39937">
        <ele>467.8</ele>
        <time>2021-08-06T08:27:45Z</time>
      </trkpt>
      <trkpt lat="45.20328" lon="3.39933">
        <ele>467.9</ele>
        <time>2021-08-06T08:27:47Z</time>
      </trkpt>
      <trkpt lat="45.20324" lon="3.39929">
        <ele>467.8</ele>
        <time>2021-08-06T08:27:49Z</time>
      </trkpt>
      <trkpt lat="45.2032" lon="3.39926">
        <ele>467.9</ele>
        <time>2021-08-06T08:27:51Z</time>
      </trkpt>
      <trkpt lat="45.20317" lon="3.39923">
        <ele>467.9</ele>
        <time>2021-08-06T08:27:53Z</time>
      </trkpt>
      <trkpt lat="45.20313" lon="3.39918">
        <ele>467.8</ele>
        <time>2021-08-06T08:27:55Z</time>
      </trkpt>
      <trkpt lat="45.2031" lon="3.39914">
        <ele>467.6</ele>
        <time>2021-08-06T08:27:57Z</time>
      </trkpt>
      <trkpt lat="45.20306" lon="3.39911">
        <ele>467.1</ele>
        <time>2021-08-06T08:27:59Z</time>
      </trkpt>
      <trkpt lat="45.20302" lon="3.39907">
        <ele>466.8</ele>
        <time>2021-08-06T08:28:01Z</time>
      </trkpt>
      <trkpt lat="45.20299" lon="3.39904">
        <ele>466.4</ele>
        <time>2021-08-06T08:28:03Z</time>
      </trkpt>
      <trkpt lat="45.20295" lon="3.39901">
        <ele>466.2</ele>
        <time>2021-08-06T08:28:05Z</time>
      </trkpt>
      <trkpt lat="45.20291" lon="3.39898">
        <ele>465.9</ele>
        <time>2021-08-06T08:28:07Z</time>
      </trkpt>
      <trkpt lat="45.20288" lon="3.39896">
        <ele>465.6</ele>
        <time>2021-08-06T08:28:09Z</time>
      </trkpt>
      <trkpt lat="45.20284" lon="3.39893">
        <ele>465.5</ele>
        <time>2021-08-06T08:28:11Z</time>
      </trkpt>
      <trkpt lat="45.2028" lon="3.3989">
        <ele>465.2</ele>
        <time>2021-08-06T08:28:13Z</time>
      </trkpt>
      <trkpt lat="45.20276" lon="3.39888">
        <ele>465.1</ele>
        <time>2021-08-06T08:28:15Z</time>
      </trkpt>
      <trkpt lat="45.20272" lon="3.39886">
        <ele>464.9</ele>
        <time>2021-08-06T08:28:17Z</time>
      </trkpt>
      <trkpt lat="45.20269" lon="3.39883">
        <ele>464.7</ele>
        <time>2021-08-06T08:28:19Z</time>
      </trkpt>
      <trkpt lat="45.20267" lon="3.39882">
        <ele>464.6</ele>
        <time>2021-08-06T08:28:21Z</time>
      </trkpt>
      <trkpt lat="45.20265" lon="3.39881">
        <ele>464.5</ele>
        <time>2021-08-06T08:28:23Z</time>
      </trkpt>
      <trkpt lat="45.20266" lon="3.39881">
        <ele>464.5</ele>
        <time>2021-08-06T08:28:25Z</time>
      </trkpt>
      <trkpt lat="45.20266" lon="3.39881">
        <ele>464.4</ele>
        <time>2021-08-06T08:28:27Z</time>
      </trkpt>
      <trkpt lat="45.20266" lon="3.3988">
        <ele>464.4</ele>
        <time>2021-08-06T08:28:29Z</time>
      </trkpt>
      <trkpt lat="45.20265" lon="3.39881">
        <ele>464.4</ele>
        <time>2021-08-06T08:28:31Z</time>
      </trkpt>
      <trkpt lat="45.20255" lon="3.39884">
        <ele>465.8</ele>
        <time>2021-08-06T08:32:19Z</time>
      </trkpt>
      <trkpt lat="45.2025" lon="3.39884">
        <ele>466.2</ele>
        <time>2021-08-06T08:32:21Z</time>
      </trkpt>
      <trkpt lat="45.20245" lon="3.39885">
        <ele>466.5</ele>
        <time>2021-08-06T08:32:23Z</time>
      </trkpt>
      <trkpt lat="45.20239" lon="3.39886">
        <ele>466.7</ele>
        <time>2021-08-06T08:32:25Z</time>
      </trkpt>
      <trkpt lat="45.20233" lon="3.39888">
        <ele>467.1</ele>
        <time>2021-08-06T08:32:27Z</time>
      </trkpt>
      <trkpt lat="45.20225" lon="3.39891">
        <ele>467.4</ele>
        <time>2021-08-06T08:32:29Z</time>
      </trkpt>
      <trkpt lat="45.20217" lon="3.39893">
        <ele>467.7</ele>
        <time>2021-08-06T08:32:31Z</time>
      </trkpt>
      <trkpt lat="45.20208" lon="3.39896">
        <ele>468.1</ele>
        <time>2021-08-06T08:32:33Z</time>
      </trkpt>
      <trkpt lat="45.20199" lon="3.39898">
        <ele>468.3</ele>
        <time>2021-08-06T08:32:35Z</time>
      </trkpt>
      <trkpt lat="45.20189" lon="3.39901">
        <ele>468.6</ele>
        <time>2021-08-06T08:32:37Z</time>
      </trkpt>
      <trkpt lat="45.20179" lon="3.39905">
        <ele>468.9</ele>
        <time>2021-08-06T08:32:39Z</time>
      </trkpt>
      <trkpt lat="45.20169" lon="3.39909">
        <ele>469.2</ele>
        <time>2021-08-06T08:32:41Z</time>
      </trkpt>
      <trkpt lat="45.20161" lon="3.39913">
        <ele>469.7</ele>
        <time>2021-08-06T08:32:43Z</time>
      </trkpt>
      <trkpt lat="45.20157" lon="3.39914">
        <ele>469.9</ele>
        <time>2021-08-06T08:32:45Z</time>
      </trkpt>
      <trkpt lat="45.20155" lon="3.39916">
        <ele>470.2</ele>
        <time>2021-08-06T08:32:47Z</time>
      </trkpt>
      <trkpt lat="45.20153" lon="3.39917">
        <ele>470.3</ele>
        <time>2021-08-06T08:32:49Z</time>
      </trkpt>
      <trkpt lat="45.20153" lon="3.39917">
        <ele>470.3</ele>
        <time>2021-08-06T08:32:51Z</time>
      </trkpt>
      <trkpt lat="45.20153" lon="3.39917">
        <ele>470.4</ele>
        <time>2021-08-06T08:32:53Z</time>
      </trkpt>
      <trkpt lat="45.2015" lon="3.3992">
        <ele>471.1</ele>
        <time>2021-08-06T08:32:55Z</time>
      </trkpt>
      <trkpt lat="45.20145" lon="3.39924">
        <ele>471.9</ele>
        <time>2021-08-06T08:32:57Z</time>
      </trkpt>
      <trkpt lat="45.20138" lon="3.39926">
        <ele>472.5</ele>
        <time>2021-08-06T08:32:59Z</time>
      </trkpt>
      <trkpt lat="45.20129" lon="3.39928">
        <ele>473</ele>
        <time>2021-08-06T08:33:01Z</time>
      </trkpt>
      <trkpt lat="45.20119" lon="3.39929">
        <ele>473.4</ele>
        <time>2021-08-06T08:33:03Z</time>
      </trkpt>
      <trkpt lat="45.20108" lon="3.39929">
        <ele>473.6</ele>
        <time>2021-08-06T08:33:05Z</time>
      </trkpt>
      <trkpt lat="45.20097" lon="3.39929">
        <ele>473.9</ele>
        <time>2021-08-06T08:33:07Z</time>
      </trkpt>
      <trkpt lat="45.20088" lon="3.39919">
        <ele>472.2</ele>
        <time>2021-08-06T08:33:09Z</time>
      </trkpt>
      <trkpt lat="45.20087" lon="3.39903">
        <ele>471.8</ele>
        <time>2021-08-06T08:33:11Z</time>
      </trkpt>
      <trkpt lat="45.20094" lon="3.39893">
        <ele>471.4</ele>
        <time>2021-08-06T08:33:13Z</time>
      </trkpt>
      <trkpt lat="45.20101" lon="3.39886">
        <ele>470.8</ele>
        <time>2021-08-06T08:33:15Z</time>
      </trkpt>
      <trkpt lat="45.20108" lon="3.39881">
        <ele>470.1</ele>
        <time>2021-08-06T08:33:17Z</time>
      </trkpt>
      <trkpt lat="45.20115" lon="3.39874">
        <ele>469.3</ele>
        <time>2021-08-06T08:33:19Z</time>
      </trkpt>
      <trkpt lat="45.20121" lon="3.39868">
        <ele>468.4</ele>
        <time>2021-08-06T08:33:21Z</time>
      </trkpt>
      <trkpt lat="45.20128" lon="3.39862">
        <ele>467.4</ele>
        <time>2021-08-06T08:33:23Z</time>
      </trkpt>
      <trkpt lat="45.20134" lon="3.39856">
        <ele>466.3</ele>
        <time>2021-08-06T08:33:25Z</time>
      </trkpt>
      <trkpt lat="45.20141" lon="3.39849">
        <ele>465</ele>
        <time>2021-08-06T08:33:27Z</time>
      </trkpt>
      <trkpt lat="45.20148" lon="3.39841">
        <ele>463.5</ele>
        <time>2021-08-06T08:33:29Z</time>
      </trkpt>
      <trkpt lat="45.20152" lon="3.39831">
        <ele>462</ele>
        <time>2021-08-06T08:33:31Z</time>
      </trkpt>
      <trkpt lat="45.20152" lon="3.3982">
        <ele>461.3</ele>
        <time>2021-08-06T08:33:33Z</time>
      </trkpt>
      <trkpt lat="45.2015" lon="3.39809">
        <ele>460.9</ele>
        <time>2021-08-06T08:33:35Z</time>
      </trkpt>
      <trkpt lat="45.20143" lon="3.398">
        <ele>461.3</ele>
        <time>2021-08-06T08:33:37Z</time>
      </trkpt>
      <trkpt lat="45.20135" lon="3.39795">
        <ele>462.1</ele>
        <time>2021-08-06T08:33:39Z</time>
      </trkpt>
      <trkpt lat="45.20127" lon="3.3979">
        <ele>462.8</ele>
        <time>2021-08-06T08:33:41Z</time>
      </trkpt>
      <trkpt lat="45.20119" lon="3.39788">
        <ele>463.9</ele>
        <time>2021-08-06T08:33:43Z</time>
      </trkpt>
      <trkpt lat="45.2011" lon="3.39785">
        <ele>464.9</ele>
        <time>2021-08-06T08:33:45Z</time>
      </trkpt>
      <trkpt lat="45.20102" lon="3.39779">
        <ele>465.6</ele>
        <time>2021-08-06T08:33:47Z</time>
      </trkpt>
      <trkpt lat="45.20095" lon="3.39771">
        <ele>466</ele>
        <time>2021-08-06T08:33:49Z</time>
      </trkpt>
      <trkpt lat="45.20089" lon="3.39761">
        <ele>466</ele>
        <time>2021-08-06T08:33:51Z</time>
      </trkpt>
      <trkpt lat="45.20084" lon="3.3975">
        <ele>466</ele>
        <time>2021-08-06T08:33:53Z</time>
      </trkpt>
      <trkpt lat="45.20078" lon="3.39739">
        <ele>466.1</ele>
        <time>2021-08-06T08:33:55Z</time>
      </trkpt>
      <trkpt lat="45.20073" lon="3.39728">
        <ele>466.3</ele>
        <time>2021-08-06T08:33:57Z</time>
      </trkpt>
      <trkpt lat="45.20067" lon="3.39717">
        <ele>466.4</ele>
        <time>2021-08-06T08:33:59Z</time>
      </trkpt>
      <trkpt lat="45.20062" lon="3.39706">
        <ele>466.5</ele>
        <time>2021-08-06T08:34:01Z</time>
      </trkpt>
      <trkpt lat="45.20057" lon="3.39694">
        <ele>466.7</ele>
        <time>2021-08-06T08:34:03Z</time>
      </trkpt>
      <trkpt lat="45.20051" lon="3.39684">
        <ele>466.9</ele>
        <time>2021-08-06T08:34:05Z</time>
      </trkpt>
      <trkpt lat="45.20045" lon="3.39675">
        <ele>467.4</ele>
        <time>2021-08-06T08:34:07Z</time>
      </trkpt>
      <trkpt lat="45.20038" lon="3.39667">
        <ele>468.2</ele>
        <time>2021-08-06T08:34:09Z</time>
      </trkpt>
      <trkpt lat="45.20031" lon="3.39657">
        <ele>468.7</ele>
        <time>2021-08-06T08:34:11Z</time>
      </trkpt>
      <trkpt lat="45.20025" lon="3.39645">
        <ele>468.9</ele>
        <time>2021-08-06T08:34:13Z</time>
      </trkpt>
      <trkpt lat="45.2002" lon="3.39633">
        <ele>468.8</ele>
        <time>2021-08-06T08:34:15Z</time>
      </trkpt>
      <trkpt lat="45.20017" lon="3.39621">
        <ele>468.6</ele>
        <time>2021-08-06T08:34:17Z</time>
      </trkpt>
      <trkpt lat="45.20012" lon="3.3961">
        <ele>468.6</ele>
        <time>2021-08-06T08:34:19Z</time>
      </trkpt>
      <trkpt lat="45.20007" lon="3.39599">
        <ele>468.8</ele>
        <time>2021-08-06T08:34:21Z</time>
      </trkpt>
      <trkpt lat="45.20002" lon="3.39589">
        <ele>469</ele>
        <time>2021-08-06T08:34:23Z</time>
      </trkpt>
      <trkpt lat="45.19996" lon="3.39579">
        <ele>469.4</ele>
        <time>2021-08-06T08:34:25Z</time>
      </trkpt>
      <trkpt lat="45.1999" lon="3.39568">
        <ele>469.8</ele>
        <time>2021-08-06T08:34:27Z</time>
      </trkpt>
      <trkpt lat="45.19984" lon="3.39558">
        <ele>470.1</ele>
        <time>2021-08-06T08:34:29Z</time>
      </trkpt>
      <trkpt lat="45.19979" lon="3.39547">
        <ele>470.4</ele>
        <time>2021-08-06T08:34:31Z</time>
      </trkpt>
      <trkpt lat="45.19975" lon="3.39535">
        <ele>470.5</ele>
        <time>2021-08-06T08:34:33Z</time>
      </trkpt>
      <trkpt lat="45.19971" lon="3.39522">
        <ele>470.3</ele>
        <time>2021-08-06T08:34:35Z</time>
      </trkpt>
      <trkpt lat="45.1997" lon="3.39509">
        <ele>469.8</ele>
        <time>2021-08-06T08:34:37Z</time>
      </trkpt>
      <trkpt lat="45.19969" lon="3.39495">
        <ele>469.2</ele>
        <time>2021-08-06T08:34:39Z</time>
      </trkpt>
      <trkpt lat="45.1997" lon="3.39482">
        <ele>469</ele>
        <time>2021-08-06T08:34:41Z</time>
      </trkpt>
      <trkpt lat="45.1997" lon="3.39469">
        <ele>468.8</ele>
        <time>2021-08-06T08:34:43Z</time>
      </trkpt>
      <trkpt lat="45.19971" lon="3.39456">
        <ele>468.6</ele>
        <time>2021-08-06T08:34:45Z</time>
      </trkpt>
      <trkpt lat="45.19971" lon="3.39443">
        <ele>468.4</ele>
        <time>2021-08-06T08:34:47Z</time>
      </trkpt>
      <trkpt lat="45.19971" lon="3.39431">
        <ele>468.3</ele>
        <time>2021-08-06T08:34:49Z</time>
      </trkpt>
      <trkpt lat="45.1997" lon="3.39419">
        <ele>468.4</ele>
        <time>2021-08-06T08:34:51Z</time>
      </trkpt>
      <trkpt lat="45.19968" lon="3.39408">
        <ele>468.1</ele>
        <time>2021-08-06T08:34:53Z</time>
      </trkpt>
      <trkpt lat="45.19963" lon="3.39399">
        <ele>468</ele>
        <time>2021-08-06T08:34:55Z</time>
      </trkpt>
      <trkpt lat="45.19957" lon="3.3939">
        <ele>468.4</ele>
        <time>2021-08-06T08:34:57Z</time>
      </trkpt>
      <trkpt lat="45.1995" lon="3.39384">
        <ele>469.1</ele>
        <time>2021-08-06T08:34:59Z</time>
      </trkpt>
      <trkpt lat="45.19941" lon="3.39379">
        <ele>470.3</ele>
        <time>2021-08-06T08:35:01Z</time>
      </trkpt>
      <trkpt lat="45.19934" lon="3.39373">
        <ele>471.2</ele>
        <time>2021-08-06T08:35:03Z</time>
      </trkpt>
      <trkpt lat="45.19927" lon="3.39365">
        <ele>471.7</ele>
        <time>2021-08-06T08:35:05Z</time>
      </trkpt>
      <trkpt lat="45.19922" lon="3.39354">
        <ele>471.7</ele>
        <time>2021-08-06T08:35:07Z</time>
      </trkpt>
      <trkpt lat="45.19919" lon="3.39341">
        <ele>471.1</ele>
        <time>2021-08-06T08:35:09Z</time>
      </trkpt>
      <trkpt lat="45.19918" lon="3.39327">
        <ele>470.5</ele>
        <time>2021-08-06T08:35:11Z</time>
      </trkpt>
      <trkpt lat="45.19918" lon="3.39314">
        <ele>470</ele>
        <time>2021-08-06T08:35:13Z</time>
      </trkpt>
      <trkpt lat="45.19918" lon="3.39302">
        <ele>469.7</ele>
        <time>2021-08-06T08:35:15Z</time>
      </trkpt>
      <trkpt lat="45.19917" lon="3.39291">
        <ele>469.5</ele>
        <time>2021-08-06T08:35:17Z</time>
      </trkpt>
      <trkpt lat="45.19914" lon="3.3928">
        <ele>469.5</ele>
        <time>2021-08-06T08:35:19Z</time>
      </trkpt>
      <trkpt lat="45.19911" lon="3.3927">
        <ele>469.6</ele>
        <time>2021-08-06T08:35:21Z</time>
      </trkpt>
      <trkpt lat="45.19907" lon="3.3926">
        <ele>469.8</ele>
        <time>2021-08-06T08:35:23Z</time>
      </trkpt>
      <trkpt lat="45.19904" lon="3.39249">
        <ele>469.9</ele>
        <time>2021-08-06T08:35:25Z</time>
      </trkpt>
      <trkpt lat="45.199" lon="3.39239">
        <ele>469.8</ele>
        <time>2021-08-06T08:35:27Z</time>
      </trkpt>
      <trkpt lat="45.19896" lon="3.3923">
        <ele>469.8</ele>
        <time>2021-08-06T08:35:29Z</time>
      </trkpt>
      <trkpt lat="45.19891" lon="3.39221">
        <ele>470</ele>
        <time>2021-08-06T08:35:31Z</time>
      </trkpt>
      <trkpt lat="45.19886" lon="3.39213">
        <ele>470.3</ele>
        <time>2021-08-06T08:35:33Z</time>
      </trkpt>
      <trkpt lat="45.19881" lon="3.39206">
        <ele>470.8</ele>
        <time>2021-08-06T08:35:35Z</time>
      </trkpt>
      <trkpt lat="45.19875" lon="3.39198">
        <ele>471.4</ele>
        <time>2021-08-06T08:35:37Z</time>
      </trkpt>
      <trkpt lat="45.19869" lon="3.39191">
        <ele>472.1</ele>
        <time>2021-08-06T08:35:39Z</time>
      </trkpt>
      <trkpt lat="45.19864" lon="3.39184">
        <ele>472.7</ele>
        <time>2021-08-06T08:35:41Z</time>
      </trkpt>
      <trkpt lat="45.19859" lon="3.39176">
        <ele>473.3</ele>
        <time>2021-08-06T08:35:43Z</time>
      </trkpt>
      <trkpt lat="45.19854" lon="3.39169">
        <ele>474</ele>
        <time>2021-08-06T08:35:45Z</time>
      </trkpt>
      <trkpt lat="45.19849" lon="3.39161">
        <ele>474.4</ele>
        <time>2021-08-06T08:35:47Z</time>
      </trkpt>
      <trkpt lat="45.19845" lon="3.39154">
        <ele>474.7</ele>
        <time>2021-08-06T08:35:49Z</time>
      </trkpt>
      <trkpt lat="45.19841" lon="3.39147">
        <ele>475.1</ele>
        <time>2021-08-06T08:35:51Z</time>
      </trkpt>
      <trkpt lat="45.19837" lon="3.39141">
        <ele>475.5</ele>
        <time>2021-08-06T08:35:53Z</time>
      </trkpt>
      <trkpt lat="45.19833" lon="3.39133">
        <ele>475.7</ele>
        <time>2021-08-06T08:35:55Z</time>
      </trkpt>
      <trkpt lat="45.1983" lon="3.39127">
        <ele>475.9</ele>
        <time>2021-08-06T08:35:57Z</time>
      </trkpt>
      <trkpt lat="45.19826" lon="3.39121">
        <ele>476.3</ele>
        <time>2021-08-06T08:35:59Z</time>
      </trkpt>
      <trkpt lat="45.19823" lon="3.39114">
        <ele>476.6</ele>
        <time>2021-08-06T08:36:01Z</time>
      </trkpt>
      <trkpt lat="45.1982" lon="3.39108">
        <ele>476.8</ele>
        <time>2021-08-06T08:36:03Z</time>
      </trkpt>
      <trkpt lat="45.19817" lon="3.39101">
        <ele>477</ele>
        <time>2021-08-06T08:36:05Z</time>
      </trkpt>
      <trkpt lat="45.19814" lon="3.39094">
        <ele>477.2</ele>
        <time>2021-08-06T08:36:07Z</time>
      </trkpt>
      <trkpt lat="45.19811" lon="3.39087">
        <ele>477.5</ele>
        <time>2021-08-06T08:36:09Z</time>
      </trkpt>
      <trkpt lat="45.19808" lon="3.39081">
        <ele>477.9</ele>
        <time>2021-08-06T08:36:11Z</time>
      </trkpt>
      <trkpt lat="45.19805" lon="3.39075">
        <ele>478.6</ele>
        <time>2021-08-06T08:36:13Z</time>
      </trkpt>
      <trkpt lat="45.19802" lon="3.39068">
        <ele>479.2</ele>
        <time>2021-08-06T08:36:15Z</time>
      </trkpt>
      <trkpt lat="45.19799" lon="3.39062">
        <ele>479.9</ele>
        <time>2021-08-06T08:36:17Z</time>
      </trkpt>
      <trkpt lat="45.19796" lon="3.39056">
        <ele>480.4</ele>
        <time>2021-08-06T08:36:19Z</time>
      </trkpt>
      <trkpt lat="45.19793" lon="3.3905">
        <ele>480.9</ele>
        <time>2021-08-06T08:36:21Z</time>
      </trkpt>
      <trkpt lat="45.1979" lon="3.39045">
        <ele>481.5</ele>
        <time>2021-08-06T08:36:23Z</time>
      </trkpt>
      <trkpt lat="45.19787" lon="3.39039">
        <ele>482.1</ele>
        <time>2021-08-06T08:36:25Z</time>
      </trkpt>
      <trkpt lat="45.19784" lon="3.39034">
        <ele>482.6</ele>
        <time>2021-08-06T08:36:27Z</time>
      </trkpt>
      <trkpt lat="45.19782" lon="3.39028">
        <ele>483.1</ele>
        <time>2021-08-06T08:36:29Z</time>
      </trkpt>
      <trkpt lat="45.19779" lon="3.39022">
        <ele>483.5</ele>
        <time>2021-08-06T08:36:31Z</time>
      </trkpt>
      <trkpt lat="45.19776" lon="3.39017">
        <ele>484</ele>
        <time>2021-08-06T08:36:33Z</time>
      </trkpt>
      <trkpt lat="45.19773" lon="3.39012">
        <ele>484.4</ele>
        <time>2021-08-06T08:36:35Z</time>
      </trkpt>
      <trkpt lat="45.1977" lon="3.39006">
        <ele>484.8</ele>
        <time>2021-08-06T08:36:37Z</time>
      </trkpt>
      <trkpt lat="45.19767" lon="3.39001">
        <ele>485.1</ele>
        <time>2021-08-06T08:36:39Z</time>
      </trkpt>
      <trkpt lat="45.19764" lon="3.38997">
        <ele>485.5</ele>
        <time>2021-08-06T08:36:41Z</time>
      </trkpt>
      <trkpt lat="45.1976" lon="3.38992">
        <ele>485.9</ele>
        <time>2021-08-06T08:36:43Z</time>
      </trkpt>
      <trkpt lat="45.19756" lon="3.3899">
        <ele>486.5</ele>
        <time>2021-08-06T08:36:45Z</time>
      </trkpt>
      <trkpt lat="45.19752" lon="3.38987">
        <ele>487.1</ele>
        <time>2021-08-06T08:36:47Z</time>
      </trkpt>
      <trkpt lat="45.19748" lon="3.38985">
        <ele>487.7</ele>
        <time>2021-08-06T08:36:49Z</time>
      </trkpt>
      <trkpt lat="45.19744" lon="3.38983">
        <ele>488.5</ele>
        <time>2021-08-06T08:36:51Z</time>
      </trkpt>
      <trkpt lat="45.1974" lon="3.3898">
        <ele>489.2</ele>
        <time>2021-08-06T08:36:53Z</time>
      </trkpt>
      <trkpt lat="45.19737" lon="3.38977">
        <ele>489.8</ele>
        <time>2021-08-06T08:36:55Z</time>
      </trkpt>
      <trkpt lat="45.19733" lon="3.38973">
        <ele>490.3</ele>
        <time>2021-08-06T08:36:57Z</time>
      </trkpt>
      <trkpt lat="45.1973" lon="3.38969">
        <ele>490.8</ele>
        <time>2021-08-06T08:36:59Z</time>
      </trkpt>
      <trkpt lat="45.19726" lon="3.38966">
        <ele>491.2</ele>
        <time>2021-08-06T08:37:01Z</time>
      </trkpt>
      <trkpt lat="45.19722" lon="3.38963">
        <ele>491.8</ele>
        <time>2021-08-06T08:37:03Z</time>
      </trkpt>
      <trkpt lat="45.1972" lon="3.38959">
        <ele>492</ele>
        <time>2021-08-06T08:37:05Z</time>
      </trkpt>
      <trkpt lat="45.19716" lon="3.38956">
        <ele>492.5</ele>
        <time>2021-08-06T08:37:07Z</time>
      </trkpt>
      <trkpt lat="45.19713" lon="3.38952">
        <ele>492.8</ele>
        <time>2021-08-06T08:37:09Z</time>
      </trkpt>
      <trkpt lat="45.1971" lon="3.38949">
        <ele>493.2</ele>
        <time>2021-08-06T08:37:11Z</time>
      </trkpt>
      <trkpt lat="45.19706" lon="3.38945">
        <ele>493.4</ele>
        <time>2021-08-06T08:37:13Z</time>
      </trkpt>
      <trkpt lat="45.19703" lon="3.38941">
        <ele>493.7</ele>
        <time>2021-08-06T08:37:15Z</time>
      </trkpt>
      <trkpt lat="45.19699" lon="3.38938">
        <ele>494</ele>
        <time>2021-08-06T08:37:17Z</time>
      </trkpt>
      <trkpt lat="45.19696" lon="3.38934">
        <ele>494.3</ele>
        <time>2021-08-06T08:37:19Z</time>
      </trkpt>
      <trkpt lat="45.19692" lon="3.38931">
        <ele>494.5</ele>
        <time>2021-08-06T08:37:21Z</time>
      </trkpt>
      <trkpt lat="45.19688" lon="3.38928">
        <ele>494.8</ele>
        <time>2021-08-06T08:37:23Z</time>
      </trkpt>
      <trkpt lat="45.19685" lon="3.38925">
        <ele>495.1</ele>
        <time>2021-08-06T08:37:25Z</time>
      </trkpt>
      <trkpt lat="45.19681" lon="3.38923">
        <ele>495.5</ele>
        <time>2021-08-06T08:37:27Z</time>
      </trkpt>
      <trkpt lat="45.19678" lon="3.38921">
        <ele>495.7</ele>
        <time>2021-08-06T08:37:29Z</time>
      </trkpt>
      <trkpt lat="45.19675" lon="3.38919">
        <ele>496.1</ele>
        <time>2021-08-06T08:37:31Z</time>
      </trkpt>
      <trkpt lat="45.19672" lon="3.38919">
        <ele>496.5</ele>
        <time>2021-08-06T08:37:33Z</time>
      </trkpt>
      <trkpt lat="45.19668" lon="3.38919">
        <ele>497.1</ele>
        <time>2021-08-06T08:37:35Z</time>
      </trkpt>
      <trkpt lat="45.19665" lon="3.3892">
        <ele>497.8</ele>
        <time>2021-08-06T08:37:37Z</time>
      </trkpt>
      <trkpt lat="45.19663" lon="3.38923">
        <ele>498.7</ele>
        <time>2021-08-06T08:37:39Z</time>
      </trkpt>
      <trkpt lat="45.19661" lon="3.38928">
        <ele>499.7</ele>
        <time>2021-08-06T08:37:41Z</time>
      </trkpt>
      <trkpt lat="45.1966" lon="3.38933">
        <ele>500.5</ele>
        <time>2021-08-06T08:37:43Z</time>
      </trkpt>
      <trkpt lat="45.1966" lon="3.38937">
        <ele>501.2</ele>
        <time>2021-08-06T08:37:45Z</time>
      </trkpt>
      <trkpt lat="45.19661" lon="3.38942">
        <ele>501.5</ele>
        <time>2021-08-06T08:37:47Z</time>
      </trkpt>
      <trkpt lat="45.19663" lon="3.38946">
        <ele>501.9</ele>
        <time>2021-08-06T08:37:49Z</time>
      </trkpt>
      <trkpt lat="45.19665" lon="3.38951">
        <ele>502</ele>
        <time>2021-08-06T08:37:51Z</time>
      </trkpt>
      <trkpt lat="45.19666" lon="3.38956">
        <ele>502.2</ele>
        <time>2021-08-06T08:37:53Z</time>
      </trkpt>
      <trkpt lat="45.19668" lon="3.3896">
        <ele>502.5</ele>
        <time>2021-08-06T08:37:55Z</time>
      </trkpt>
      <trkpt lat="45.19669" lon="3.38964">
        <ele>502.8</ele>
        <time>2021-08-06T08:37:57Z</time>
      </trkpt>
      <trkpt lat="45.19671" lon="3.38968">
        <ele>503</ele>
        <time>2021-08-06T08:37:59Z</time>
      </trkpt>
      <trkpt lat="45.19672" lon="3.38972">
        <ele>503.2</ele>
        <time>2021-08-06T08:38:01Z</time>
      </trkpt>
      <trkpt lat="45.19673" lon="3.38976">
        <ele>503.4</ele>
        <time>2021-08-06T08:38:03Z</time>
      </trkpt>
      <trkpt lat="45.19675" lon="3.3898">
        <ele>503.6</ele>
        <time>2021-08-06T08:38:05Z</time>
      </trkpt>
      <trkpt lat="45.19676" lon="3.38984">
        <ele>503.8</ele>
        <time>2021-08-06T08:38:07Z</time>
      </trkpt>
      <trkpt lat="45.19677" lon="3.38988">
        <ele>504</ele>
        <time>2021-08-06T08:38:09Z</time>
      </trkpt>
      <trkpt lat="45.19679" lon="3.38992">
        <ele>504.1</ele>
        <time>2021-08-06T08:38:11Z</time>
      </trkpt>
      <trkpt lat="45.1968" lon="3.38996">
        <ele>504.2</ele>
        <time>2021-08-06T08:38:13Z</time>
      </trkpt>
      <trkpt lat="45.19682" lon="3.39">
        <ele>504.4</ele>
        <time>2021-08-06T08:38:15Z</time>
      </trkpt>
      <trkpt lat="45.19683" lon="3.39004">
        <ele>504.7</ele>
        <time>2021-08-06T08:38:17Z</time>
      </trkpt>
      <trkpt lat="45.19685" lon="3.39008">
        <ele>504.7</ele>
        <time>2021-08-06T08:38:19Z</time>
      </trkpt>
      <trkpt lat="45.19687" lon="3.39013">
        <ele>504.7</ele>
        <time>2021-08-06T08:38:21Z</time>
      </trkpt>
      <trkpt lat="45.19688" lon="3.39016">
        <ele>504.7</ele>
        <time>2021-08-06T08:38:23Z</time>
      </trkpt>
      <trkpt lat="45.1969" lon="3.3902">
        <ele>504.7</ele>
        <time>2021-08-06T08:38:25Z</time>
      </trkpt>
      <trkpt lat="45.19691" lon="3.39024">
        <ele>504.8</ele>
        <time>2021-08-06T08:38:27Z</time>
      </trkpt>
      <trkpt lat="45.19692" lon="3.39028">
        <ele>504.9</ele>
        <time>2021-08-06T08:38:29Z</time>
      </trkpt>
      <trkpt lat="45.19694" lon="3.39031">
        <ele>504.9</ele>
        <time>2021-08-06T08:38:31Z</time>
      </trkpt>
      <trkpt lat="45.19695" lon="3.39035">
        <ele>504.9</ele>
        <time>2021-08-06T08:38:33Z</time>
      </trkpt>
      <trkpt lat="45.19697" lon="3.3904">
        <ele>504.8</ele>
        <time>2021-08-06T08:38:35Z</time>
      </trkpt>
      <trkpt lat="45.19698" lon="3.39044">
        <ele>504.9</ele>
        <time>2021-08-06T08:38:37Z</time>
      </trkpt>
      <trkpt lat="45.197" lon="3.39048">
        <ele>505</ele>
        <time>2021-08-06T08:38:39Z</time>
      </trkpt>
      <trkpt lat="45.19701" lon="3.39053">
        <ele>505.2</ele>
        <time>2021-08-06T08:38:41Z</time>
      </trkpt>
      <trkpt lat="45.19702" lon="3.39057">
        <ele>505.3</ele>
        <time>2021-08-06T08:38:43Z</time>
      </trkpt>
      <trkpt lat="45.19703" lon="3.39061">
        <ele>505.3</ele>
        <time>2021-08-06T08:38:45Z</time>
      </trkpt>
      <trkpt lat="45.19703" lon="3.39066">
        <ele>505.5</ele>
        <time>2021-08-06T08:38:47Z</time>
      </trkpt>
      <trkpt lat="45.19704" lon="3.3907">
        <ele>505.8</ele>
        <time>2021-08-06T08:38:49Z</time>
      </trkpt>
      <trkpt lat="45.19705" lon="3.39074">
        <ele>505.9</ele>
        <time>2021-08-06T08:38:51Z</time>
      </trkpt>
      <trkpt lat="45.19705" lon="3.39079">
        <ele>506.2</ele>
        <time>2021-08-06T08:38:53Z</time>
      </trkpt>
      <trkpt lat="45.19706" lon="3.39084">
        <ele>506.4</ele>
        <time>2021-08-06T08:38:55Z</time>
      </trkpt>
      <trkpt lat="45.19707" lon="3.39088">
        <ele>506.7</ele>
        <time>2021-08-06T08:38:57Z</time>
      </trkpt>
      <trkpt lat="45.19707" lon="3.39092">
        <ele>506.9</ele>
        <time>2021-08-06T08:38:59Z</time>
      </trkpt>
      <trkpt lat="45.19708" lon="3.39097">
        <ele>507.1</ele>
        <time>2021-08-06T08:39:01Z</time>
      </trkpt>
      <trkpt lat="45.19708" lon="3.39101">
        <ele>507.4</ele>
        <time>2021-08-06T08:39:03Z</time>
      </trkpt>
      <trkpt lat="45.19709" lon="3.39105">
        <ele>507.8</ele>
        <time>2021-08-06T08:39:05Z</time>
      </trkpt>
      <trkpt lat="45.1971" lon="3.3911">
        <ele>507.9</ele>
        <time>2021-08-06T08:39:07Z</time>
      </trkpt>
      <trkpt lat="45.19709" lon="3.39114">
        <ele>508.4</ele>
        <time>2021-08-06T08:39:09Z</time>
      </trkpt>
      <trkpt lat="45.1971" lon="3.39119">
        <ele>508.7</ele>
        <time>2021-08-06T08:39:11Z</time>
      </trkpt>
      <trkpt lat="45.1971" lon="3.39123">
        <ele>509.2</ele>
        <time>2021-08-06T08:39:13Z</time>
      </trkpt>
      <trkpt lat="45.1971" lon="3.39128">
        <ele>509.7</ele>
        <time>2021-08-06T08:39:15Z</time>
      </trkpt>
      <trkpt lat="45.1971" lon="3.39132">
        <ele>510.1</ele>
        <time>2021-08-06T08:39:17Z</time>
      </trkpt>
      <trkpt lat="45.1971" lon="3.39137">
        <ele>510.6</ele>
        <time>2021-08-06T08:39:19Z</time>
      </trkpt>
      <trkpt lat="45.1971" lon="3.39141">
        <ele>511</ele>
        <time>2021-08-06T08:39:21Z</time>
      </trkpt>
      <trkpt lat="45.1971" lon="3.39145">
        <ele>511.5</ele>
        <time>2021-08-06T08:39:23Z</time>
      </trkpt>
      <trkpt lat="45.1971" lon="3.3915">
        <ele>512</ele>
        <time>2021-08-06T08:39:25Z</time>
      </trkpt>
      <trkpt lat="45.1971" lon="3.39154">
        <ele>512.3</ele>
        <time>2021-08-06T08:39:27Z</time>
      </trkpt>
      <trkpt lat="45.1971" lon="3.39158">
        <ele>512.9</ele>
        <time>2021-08-06T08:39:29Z</time>
      </trkpt>
      <trkpt lat="45.1971" lon="3.39162">
        <ele>513.4</ele>
        <time>2021-08-06T08:39:31Z</time>
      </trkpt>
      <trkpt lat="45.1971" lon="3.39167">
        <ele>514</ele>
        <time>2021-08-06T08:39:33Z</time>
      </trkpt>
      <trkpt lat="45.19709" lon="3.39171">
        <ele>514.2</ele>
        <time>2021-08-06T08:39:35Z</time>
      </trkpt>
      <trkpt lat="45.19708" lon="3.39175">
        <ele>514.6</ele>
        <time>2021-08-06T08:39:37Z</time>
      </trkpt>
      <trkpt lat="45.19708" lon="3.39179">
        <ele>514.6</ele>
        <time>2021-08-06T08:39:39Z</time>
      </trkpt>
      <trkpt lat="45.19708" lon="3.39184">
        <ele>514.7</ele>
        <time>2021-08-06T08:39:41Z</time>
      </trkpt>
      <trkpt lat="45.19708" lon="3.39188">
        <ele>514.7</ele>
        <time>2021-08-06T08:39:43Z</time>
      </trkpt>
      <trkpt lat="45.19707" lon="3.39192">
        <ele>515</ele>
        <time>2021-08-06T08:39:45Z</time>
      </trkpt>
      <trkpt lat="45.19706" lon="3.39196">
        <ele>515.5</ele>
        <time>2021-08-06T08:39:47Z</time>
      </trkpt>
      <trkpt lat="45.19703" lon="3.39195">
        <ele>516.8</ele>
        <time>2021-08-06T08:39:49Z</time>
      </trkpt>
      <trkpt lat="45.19702" lon="3.39191">
        <ele>517.3</ele>
        <time>2021-08-06T08:39:51Z</time>
      </trkpt>
      <trkpt lat="45.19702" lon="3.39186">
        <ele>517.3</ele>
        <time>2021-08-06T08:39:53Z</time>
      </trkpt>
      <trkpt lat="45.19701" lon="3.39182">
        <ele>517.5</ele>
        <time>2021-08-06T08:39:55Z</time>
      </trkpt>
      <trkpt lat="45.19701" lon="3.39177">
        <ele>517.6</ele>
        <time>2021-08-06T08:39:57Z</time>
      </trkpt>
      <trkpt lat="45.197" lon="3.39173">
        <ele>517.9</ele>
        <time>2021-08-06T08:39:59Z</time>
      </trkpt>
      <trkpt lat="45.197" lon="3.39168">
        <ele>518</ele>
        <time>2021-08-06T08:40:01Z</time>
      </trkpt>
      <trkpt lat="45.197" lon="3.39163">
        <ele>517.8</ele>
        <time>2021-08-06T08:40:03Z</time>
      </trkpt>
      <trkpt lat="45.19699" lon="3.39159">
        <ele>517.6</ele>
        <time>2021-08-06T08:40:05Z</time>
      </trkpt>
      <trkpt lat="45.19698" lon="3.39155">
        <ele>517.6</ele>
        <time>2021-08-06T08:40:07Z</time>
      </trkpt>
      <trkpt lat="45.19696" lon="3.3915">
        <ele>517.6</ele>
        <time>2021-08-06T08:40:09Z</time>
      </trkpt>
      <trkpt lat="45.19695" lon="3.39146">
        <ele>517.5</ele>
        <time>2021-08-06T08:40:11Z</time>
      </trkpt>
      <trkpt lat="45.19694" lon="3.39142">
        <ele>517.5</ele>
        <time>2021-08-06T08:40:13Z</time>
      </trkpt>
      <trkpt lat="45.19693" lon="3.39138">
        <ele>517.5</ele>
        <time>2021-08-06T08:40:15Z</time>
      </trkpt>
      <trkpt lat="45.19691" lon="3.39134">
        <ele>517.8</ele>
        <time>2021-08-06T08:40:17Z</time>
      </trkpt>
      <trkpt lat="45.19689" lon="3.3913">
        <ele>518</ele>
        <time>2021-08-06T08:40:19Z</time>
      </trkpt>
      <trkpt lat="45.19687" lon="3.39126">
        <ele>518.2</ele>
        <time>2021-08-06T08:40:21Z</time>
      </trkpt>
      <trkpt lat="45.19686" lon="3.39123">
        <ele>518.4</ele>
        <time>2021-08-06T08:40:23Z</time>
      </trkpt>
      <trkpt lat="45.19684" lon="3.39119">
        <ele>518.7</ele>
        <time>2021-08-06T08:40:25Z</time>
      </trkpt>
      <trkpt lat="45.19682" lon="3.39115">
        <ele>518.6</ele>
        <time>2021-08-06T08:40:27Z</time>
      </trkpt>
      <trkpt lat="45.1968" lon="3.3911">
        <ele>518.8</ele>
        <time>2021-08-06T08:40:29Z</time>
      </trkpt>
      <trkpt lat="45.19679" lon="3.39106">
        <ele>518.9</ele>
        <time>2021-08-06T08:40:31Z</time>
      </trkpt>
      <trkpt lat="45.19677" lon="3.39102">
        <ele>519.1</ele>
        <time>2021-08-06T08:40:33Z</time>
      </trkpt>
      <trkpt lat="45.19675" lon="3.39098">
        <ele>519.3</ele>
        <time>2021-08-06T08:40:35Z</time>
      </trkpt>
      <trkpt lat="45.19672" lon="3.39094">
        <ele>519.6</ele>
        <time>2021-08-06T08:40:37Z</time>
      </trkpt>
      <trkpt lat="45.1967" lon="3.39091">
        <ele>519.9</ele>
        <time>2021-08-06T08:40:39Z</time>
      </trkpt>
      <trkpt lat="45.19667" lon="3.39088">
        <ele>520.5</ele>
        <time>2021-08-06T08:40:41Z</time>
      </trkpt>
      <trkpt lat="45.19665" lon="3.39084">
        <ele>520.7</ele>
        <time>2021-08-06T08:40:43Z</time>
      </trkpt>
      <trkpt lat="45.19662" lon="3.39081">
        <ele>521.1</ele>
        <time>2021-08-06T08:40:45Z</time>
      </trkpt>
      <trkpt lat="45.1966" lon="3.39078">
        <ele>521.5</ele>
        <time>2021-08-06T08:40:47Z</time>
      </trkpt>
      <trkpt lat="45.19657" lon="3.39076">
        <ele>522</ele>
        <time>2021-08-06T08:40:49Z</time>
      </trkpt>
      <trkpt lat="45.19654" lon="3.39074">
        <ele>522.6</ele>
        <time>2021-08-06T08:40:51Z</time>
      </trkpt>
      <trkpt lat="45.19652" lon="3.39072">
        <ele>523.1</ele>
        <time>2021-08-06T08:40:53Z</time>
      </trkpt>
      <trkpt lat="45.19649" lon="3.39069">
        <ele>523.6</ele>
        <time>2021-08-06T08:40:55Z</time>
      </trkpt>
      <trkpt lat="45.19646" lon="3.39067">
        <ele>524.3</ele>
        <time>2021-08-06T08:40:57Z</time>
      </trkpt>
      <trkpt lat="45.19643" lon="3.39065">
        <ele>524.9</ele>
        <time>2021-08-06T08:40:59Z</time>
      </trkpt>
      <trkpt lat="45.1964" lon="3.39063">
        <ele>525.4</ele>
        <time>2021-08-06T08:41:01Z</time>
      </trkpt>
      <trkpt lat="45.19637" lon="3.39061">
        <ele>525.8</ele>
        <time>2021-08-06T08:41:03Z</time>
      </trkpt>
      <trkpt lat="45.19635" lon="3.39059">
        <ele>526.2</ele>
        <time>2021-08-06T08:41:05Z</time>
      </trkpt>
      <trkpt lat="45.19632" lon="3.39057">
        <ele>526.8</ele>
        <time>2021-08-06T08:41:07Z</time>
      </trkpt>
      <trkpt lat="45.19629" lon="3.39055">
        <ele>527.3</ele>
        <time>2021-08-06T08:41:09Z</time>
      </trkpt>
      <trkpt lat="45.19626" lon="3.39053">
        <ele>527.9</ele>
        <time>2021-08-06T08:41:11Z</time>
      </trkpt>
      <trkpt lat="45.19623" lon="3.39051">
        <ele>528.6</ele>
        <time>2021-08-06T08:41:13Z</time>
      </trkpt>
      <trkpt lat="45.1962" lon="3.39049">
        <ele>528.8</ele>
        <time>2021-08-06T08:41:15Z</time>
      </trkpt>
      <trkpt lat="45.19618" lon="3.39047">
        <ele>529.3</ele>
        <time>2021-08-06T08:41:17Z</time>
      </trkpt>
      <trkpt lat="45.19614" lon="3.39045">
        <ele>529.9</ele>
        <time>2021-08-06T08:41:19Z</time>
      </trkpt>
      <trkpt lat="45.19612" lon="3.39042">
        <ele>530.3</ele>
        <time>2021-08-06T08:41:21Z</time>
      </trkpt>
      <trkpt lat="45.19609" lon="3.39039">
        <ele>530.7</ele>
        <time>2021-08-06T08:41:23Z</time>
      </trkpt>
      <trkpt lat="45.19607" lon="3.39037">
        <ele>530.7</ele>
        <time>2021-08-06T08:41:25Z</time>
      </trkpt>
      <trkpt lat="45.19604" lon="3.39034">
        <ele>531</ele>
        <time>2021-08-06T08:41:27Z</time>
      </trkpt>
      <trkpt lat="45.19601" lon="3.39031">
        <ele>531.3</ele>
        <time>2021-08-06T08:41:29Z</time>
      </trkpt>
      <trkpt lat="45.19598" lon="3.39028">
        <ele>531.6</ele>
        <time>2021-08-06T08:41:31Z</time>
      </trkpt>
      <trkpt lat="45.19596" lon="3.39025">
        <ele>531.7</ele>
        <time>2021-08-06T08:41:33Z</time>
      </trkpt>
      <trkpt lat="45.19593" lon="3.39023">
        <ele>532</ele>
        <time>2021-08-06T08:41:35Z</time>
      </trkpt>
      <trkpt lat="45.1959" lon="3.3902">
        <ele>532.4</ele>
        <time>2021-08-06T08:41:37Z</time>
      </trkpt>
      <trkpt lat="45.19587" lon="3.39018">
        <ele>532.7</ele>
        <time>2021-08-06T08:41:39Z</time>
      </trkpt>
      <trkpt lat="45.19584" lon="3.39018">
        <ele>533.3</ele>
        <time>2021-08-06T08:41:41Z</time>
      </trkpt>
      <trkpt lat="45.19581" lon="3.39017">
        <ele>533.8</ele>
        <time>2021-08-06T08:41:43Z</time>
      </trkpt>
      <trkpt lat="45.19579" lon="3.39017">
        <ele>534.1</ele>
        <time>2021-08-06T08:41:45Z</time>
      </trkpt>
      <trkpt lat="45.19576" lon="3.39016">
        <ele>534.5</ele>
        <time>2021-08-06T08:41:47Z</time>
      </trkpt>
      <trkpt lat="45.19573" lon="3.39016">
        <ele>534.9</ele>
        <time>2021-08-06T08:41:49Z</time>
      </trkpt>
      <trkpt lat="45.1957" lon="3.39017">
        <ele>535.5</ele>
        <time>2021-08-06T08:41:51Z</time>
      </trkpt>
      <trkpt lat="45.19567" lon="3.39017">
        <ele>536</ele>
        <time>2021-08-06T08:41:53Z</time>
      </trkpt>
      <trkpt lat="45.19564" lon="3.39018">
        <ele>536.7</ele>
        <time>2021-08-06T08:41:55Z</time>
      </trkpt>
      <trkpt lat="45.1956" lon="3.39019">
        <ele>537.4</ele>
        <time>2021-08-06T08:41:57Z</time>
      </trkpt>
      <trkpt lat="45.19557" lon="3.39019">
        <ele>537.9</ele>
        <time>2021-08-06T08:41:59Z</time>
      </trkpt>
      <trkpt lat="45.19554" lon="3.39019">
        <ele>538.4</ele>
        <time>2021-08-06T08:42:01Z</time>
      </trkpt>
      <trkpt lat="45.19552" lon="3.3902">
        <ele>538.9</ele>
        <time>2021-08-06T08:42:03Z</time>
      </trkpt>
      <trkpt lat="45.19549" lon="3.39021">
        <ele>539.5</ele>
        <time>2021-08-06T08:42:05Z</time>
      </trkpt>
      <trkpt lat="45.19546" lon="3.39022">
        <ele>540.2</ele>
        <time>2021-08-06T08:42:07Z</time>
      </trkpt>
      <trkpt lat="45.19543" lon="3.39022">
        <ele>540.7</ele>
        <time>2021-08-06T08:42:09Z</time>
      </trkpt>
      <trkpt lat="45.1954" lon="3.39023">
        <ele>541.4</ele>
        <time>2021-08-06T08:42:11Z</time>
      </trkpt>
      <trkpt lat="45.19537" lon="3.39024">
        <ele>542</ele>
        <time>2021-08-06T08:42:13Z</time>
      </trkpt>
      <trkpt lat="45.19535" lon="3.39025">
        <ele>542.7</ele>
        <time>2021-08-06T08:42:15Z</time>
      </trkpt>
      <trkpt lat="45.19532" lon="3.39026">
        <ele>543.3</ele>
        <time>2021-08-06T08:42:17Z</time>
      </trkpt>
      <trkpt lat="45.19529" lon="3.39026">
        <ele>543.7</ele>
        <time>2021-08-06T08:42:19Z</time>
      </trkpt>
      <trkpt lat="45.19525" lon="3.39026">
        <ele>544.3</ele>
        <time>2021-08-06T08:42:21Z</time>
      </trkpt>
      <trkpt lat="45.19523" lon="3.39027">
        <ele>544.9</ele>
        <time>2021-08-06T08:42:23Z</time>
      </trkpt>
      <trkpt lat="45.1952" lon="3.39027">
        <ele>545.5</ele>
        <time>2021-08-06T08:42:25Z</time>
      </trkpt>
      <trkpt lat="45.19518" lon="3.39029">
        <ele>546.1</ele>
        <time>2021-08-06T08:42:27Z</time>
      </trkpt>
      <trkpt lat="45.19515" lon="3.39028">
        <ele>546.4</ele>
        <time>2021-08-06T08:42:29Z</time>
      </trkpt>
      <trkpt lat="45.19512" lon="3.39027">
        <ele>546.8</ele>
        <time>2021-08-06T08:42:31Z</time>
      </trkpt>
      <trkpt lat="45.19509" lon="3.39028">
        <ele>547.2</ele>
        <time>2021-08-06T08:42:33Z</time>
      </trkpt>
      <trkpt lat="45.19506" lon="3.39028">
        <ele>547.7</ele>
        <time>2021-08-06T08:42:35Z</time>
      </trkpt>
      <trkpt lat="45.19503" lon="3.39028">
        <ele>548.2</ele>
        <time>2021-08-06T08:42:37Z</time>
      </trkpt>
      <trkpt lat="45.195" lon="3.39029">
        <ele>548.8</ele>
        <time>2021-08-06T08:42:39Z</time>
      </trkpt>
      <trkpt lat="45.19497" lon="3.39028">
        <ele>549.2</ele>
        <time>2021-08-06T08:42:41Z</time>
      </trkpt>
      <trkpt lat="45.19494" lon="3.39028">
        <ele>549.7</ele>
        <time>2021-08-06T08:42:43Z</time>
      </trkpt>
      <trkpt lat="45.19491" lon="3.39028">
        <ele>550.2</ele>
        <time>2021-08-06T08:42:45Z</time>
      </trkpt>
      <trkpt lat="45.19488" lon="3.39028">
        <ele>550.6</ele>
        <time>2021-08-06T08:42:47Z</time>
      </trkpt>
      <trkpt lat="45.19485" lon="3.39028">
        <ele>551.1</ele>
        <time>2021-08-06T08:42:49Z</time>
      </trkpt>
      <trkpt lat="45.19481" lon="3.39028">
        <ele>551.6</ele>
        <time>2021-08-06T08:42:51Z</time>
      </trkpt>
      <trkpt lat="45.19478" lon="3.39028">
        <ele>552.2</ele>
        <time>2021-08-06T08:42:53Z</time>
      </trkpt>
      <trkpt lat="45.19475" lon="3.39028">
        <ele>552.7</ele>
        <time>2021-08-06T08:42:55Z</time>
      </trkpt>
      <trkpt lat="45.19472" lon="3.39029">
        <ele>553.2</ele>
        <time>2021-08-06T08:42:57Z</time>
      </trkpt>
      <trkpt lat="45.19469" lon="3.39029">
        <ele>553.8</ele>
        <time>2021-08-06T08:42:59Z</time>
      </trkpt>
      <trkpt lat="45.19466" lon="3.39029">
        <ele>554.2</ele>
        <time>2021-08-06T08:43:01Z</time>
      </trkpt>
      <trkpt lat="45.19463" lon="3.39029">
        <ele>554.7</ele>
        <time>2021-08-06T08:43:03Z</time>
      </trkpt>
      <trkpt lat="45.1946" lon="3.39029">
        <ele>555.2</ele>
        <time>2021-08-06T08:43:05Z</time>
      </trkpt>
      <trkpt lat="45.19457" lon="3.39029">
        <ele>555.8</ele>
        <time>2021-08-06T08:43:07Z</time>
      </trkpt>
      <trkpt lat="45.19453" lon="3.3903">
        <ele>556.4</ele>
        <time>2021-08-06T08:43:09Z</time>
      </trkpt>
      <trkpt lat="45.1945" lon="3.3903">
        <ele>557</ele>
        <time>2021-08-06T08:43:11Z</time>
      </trkpt>
      <trkpt lat="45.19447" lon="3.3903">
        <ele>557.5</ele>
        <time>2021-08-06T08:43:13Z</time>
      </trkpt>
      <trkpt lat="45.19443" lon="3.3903">
        <ele>558</ele>
        <time>2021-08-06T08:43:15Z</time>
      </trkpt>
      <trkpt lat="45.1944" lon="3.3903">
        <ele>558.5</ele>
        <time>2021-08-06T08:43:17Z</time>
      </trkpt>
      <trkpt lat="45.19437" lon="3.3903">
        <ele>559</ele>
        <time>2021-08-06T08:43:19Z</time>
      </trkpt>
      <trkpt lat="45.19433" lon="3.39029">
        <ele>559.4</ele>
        <time>2021-08-06T08:43:21Z</time>
      </trkpt>
      <trkpt lat="45.1943" lon="3.39029">
        <ele>559.8</ele>
        <time>2021-08-06T08:43:23Z</time>
      </trkpt>
      <trkpt lat="45.19428" lon="3.39028">
        <ele>560</ele>
        <time>2021-08-06T08:43:25Z</time>
      </trkpt>
      <trkpt lat="45.19425" lon="3.39027">
        <ele>560.3</ele>
        <time>2021-08-06T08:43:27Z</time>
      </trkpt>
      <trkpt lat="45.19422" lon="3.39025">
        <ele>560.4</ele>
        <time>2021-08-06T08:43:29Z</time>
      </trkpt>
      <trkpt lat="45.19419" lon="3.39023">
        <ele>560.4</ele>
        <time>2021-08-06T08:43:31Z</time>
      </trkpt>
      <trkpt lat="45.19417" lon="3.39021">
        <ele>560.4</ele>
        <time>2021-08-06T08:43:33Z</time>
      </trkpt>
      <trkpt lat="45.19414" lon="3.39019">
        <ele>560.7</ele>
        <time>2021-08-06T08:43:35Z</time>
      </trkpt>
      <trkpt lat="45.19411" lon="3.39016">
        <ele>560.9</ele>
        <time>2021-08-06T08:43:37Z</time>
      </trkpt>
      <trkpt lat="45.19409" lon="3.39014">
        <ele>561</ele>
        <time>2021-08-06T08:43:39Z</time>
      </trkpt>
      <trkpt lat="45.19406" lon="3.3901">
        <ele>561.2</ele>
        <time>2021-08-06T08:43:41Z</time>
      </trkpt>
      <trkpt lat="45.19403" lon="3.39007">
        <ele>561.3</ele>
        <time>2021-08-06T08:43:43Z</time>
      </trkpt>
      <trkpt lat="45.19401" lon="3.39004">
        <ele>561.4</ele>
        <time>2021-08-06T08:43:45Z</time>
      </trkpt>
      <trkpt lat="45.19398" lon="3.39">
        <ele>561.3</ele>
        <time>2021-08-06T08:43:47Z</time>
      </trkpt>
      <trkpt lat="45.19396" lon="3.38997">
        <ele>561.8</ele>
        <time>2021-08-06T08:43:49Z</time>
      </trkpt>
      <trkpt lat="45.19393" lon="3.38993">
        <ele>562.2</ele>
        <time>2021-08-06T08:43:51Z</time>
      </trkpt>
      <trkpt lat="45.19391" lon="3.3899">
        <ele>562.5</ele>
        <time>2021-08-06T08:43:53Z</time>
      </trkpt>
      <trkpt lat="45.19389" lon="3.38986">
        <ele>562.8</ele>
        <time>2021-08-06T08:43:55Z</time>
      </trkpt>
      <trkpt lat="45.19387" lon="3.38983">
        <ele>563.1</ele>
        <time>2021-08-06T08:43:57Z</time>
      </trkpt>
      <trkpt lat="45.19385" lon="3.38978">
        <ele>563</ele>
        <time>2021-08-06T08:43:59Z</time>
      </trkpt>
      <trkpt lat="45.19383" lon="3.38974">
        <ele>563.1</ele>
        <time>2021-08-06T08:44:01Z</time>
      </trkpt>
      <trkpt lat="45.19382" lon="3.3897">
        <ele>563</ele>
        <time>2021-08-06T08:44:03Z</time>
      </trkpt>
      <trkpt lat="45.1938" lon="3.38965">
        <ele>562.9</ele>
        <time>2021-08-06T08:44:05Z</time>
      </trkpt>
      <trkpt lat="45.19379" lon="3.38961">
        <ele>562.7</ele>
        <time>2021-08-06T08:44:07Z</time>
      </trkpt>
      <trkpt lat="45.19378" lon="3.38956">
        <ele>562.4</ele>
        <time>2021-08-06T08:44:09Z</time>
      </trkpt>
      <trkpt lat="45.19377" lon="3.38951">
        <ele>562.1</ele>
        <time>2021-08-06T08:44:11Z</time>
      </trkpt>
      <trkpt lat="45.19376" lon="3.38948">
        <ele>561.9</ele>
        <time>2021-08-06T08:44:13Z</time>
      </trkpt>
      <trkpt lat="45.19375" lon="3.38943">
        <ele>561.5</ele>
        <time>2021-08-06T08:44:15Z</time>
      </trkpt>
      <trkpt lat="45.19374" lon="3.38938">
        <ele>561.1</ele>
        <time>2021-08-06T08:44:17Z</time>
      </trkpt>
      <trkpt lat="45.19372" lon="3.38931">
        <ele>560.6</ele>
        <time>2021-08-06T08:44:19Z</time>
      </trkpt>
      <trkpt lat="45.19372" lon="3.38925">
        <ele>559.8</ele>
        <time>2021-08-06T08:44:21Z</time>
      </trkpt>
      <trkpt lat="45.19373" lon="3.38917">
        <ele>558.8</ele>
        <time>2021-08-06T08:44:23Z</time>
      </trkpt>
      <trkpt lat="45.19376" lon="3.38908">
        <ele>557.4</ele>
        <time>2021-08-06T08:44:25Z</time>
      </trkpt>
      <trkpt lat="45.19378" lon="3.389">
        <ele>556.2</ele>
        <time>2021-08-06T08:44:27Z</time>
      </trkpt>
      <trkpt lat="45.19381" lon="3.38893">
        <ele>555</ele>
        <time>2021-08-06T08:44:29Z</time>
      </trkpt>
      <trkpt lat="45.19385" lon="3.38888">
        <ele>554</ele>
        <time>2021-08-06T08:44:31Z</time>
      </trkpt>
      <trkpt lat="45.19389" lon="3.38883">
        <ele>553.1</ele>
        <time>2021-08-06T08:44:33Z</time>
      </trkpt>
      <trkpt lat="45.19394" lon="3.38878">
        <ele>552.2</ele>
        <time>2021-08-06T08:44:35Z</time>
      </trkpt>
      <trkpt lat="45.194" lon="3.38874">
        <ele>551.3</ele>
        <time>2021-08-06T08:44:37Z</time>
      </trkpt>
      <trkpt lat="45.19404" lon="3.38869">
        <ele>550.5</ele>
        <time>2021-08-06T08:44:39Z</time>
      </trkpt>
      <trkpt lat="45.19407" lon="3.38866">
        <ele>550</ele>
        <time>2021-08-06T08:44:41Z</time>
      </trkpt>
      <trkpt lat="45.19409" lon="3.38863">
        <ele>549.6</ele>
        <time>2021-08-06T08:44:43Z</time>
      </trkpt>
      <trkpt lat="45.19412" lon="3.38863">
        <ele>549.4</ele>
        <time>2021-08-06T08:44:45Z</time>
      </trkpt>
      <trkpt lat="45.19414" lon="3.38865">
        <ele>549.4</ele>
        <time>2021-08-06T08:44:47Z</time>
      </trkpt>
      <trkpt lat="45.19418" lon="3.38868">
        <ele>549.3</ele>
        <time>2021-08-06T08:44:49Z</time>
      </trkpt>
      <trkpt lat="45.1942" lon="3.38871">
        <ele>549.2</ele>
        <time>2021-08-06T08:44:51Z</time>
      </trkpt>
      <trkpt lat="45.19422" lon="3.38874">
        <ele>549</ele>
        <time>2021-08-06T08:44:53Z</time>
      </trkpt>
      <trkpt lat="45.19424" lon="3.38876">
        <ele>548.8</ele>
        <time>2021-08-06T08:44:55Z</time>
      </trkpt>
      <trkpt lat="45.19423" lon="3.38877">
        <ele>549</ele>
        <time>2021-08-06T08:44:57Z</time>
      </trkpt>
      <trkpt lat="45.19423" lon="3.38877">
        <ele>549</ele>
        <time>2021-08-06T08:44:59Z</time>
      </trkpt>
      <trkpt lat="45.19423" lon="3.38878">
        <ele>549</ele>
        <time>2021-08-06T08:45:01Z</time>
      </trkpt>
      <trkpt lat="45.19423" lon="3.38878">
        <ele>549.1</ele>
        <time>2021-08-06T08:45:03Z</time>
      </trkpt>
      <trkpt lat="45.19414" lon="3.38869">
        <ele>549.8</ele>
        <time>2021-08-06T09:35:40Z</time>
      </trkpt>
      <trkpt lat="45.19411" lon="3.38868">
        <ele>549.9</ele>
        <time>2021-08-06T09:35:42Z</time>
      </trkpt>
      <trkpt lat="45.19409" lon="3.38868">
        <ele>550.1</ele>
        <time>2021-08-06T09:35:44Z</time>
      </trkpt>
      <trkpt lat="45.19406" lon="3.38869">
        <ele>550.4</ele>
        <time>2021-08-06T09:35:46Z</time>
      </trkpt>
      <trkpt lat="45.19404" lon="3.38871">
        <ele>550.6</ele>
        <time>2021-08-06T09:35:48Z</time>
      </trkpt>
      <trkpt lat="45.19404" lon="3.38875">
        <ele>551.1</ele>
        <time>2021-08-06T09:35:50Z</time>
      </trkpt>
      <trkpt lat="45.19401" lon="3.38876">
        <ele>551.5</ele>
        <time>2021-08-06T09:35:52Z</time>
      </trkpt>
      <trkpt lat="45.19398" lon="3.38879">
        <ele>551.9</ele>
        <time>2021-08-06T09:35:54Z</time>
      </trkpt>
      <trkpt lat="45.19394" lon="3.38879">
        <ele>552.3</ele>
        <time>2021-08-06T09:35:56Z</time>
      </trkpt>
      <trkpt lat="45.19392" lon="3.38881">
        <ele>552.6</ele>
        <time>2021-08-06T09:35:58Z</time>
      </trkpt>
      <trkpt lat="45.19389" lon="3.38882">
        <ele>553.1</ele>
        <time>2021-08-06T09:36:00Z</time>
      </trkpt>
      <trkpt lat="45.19387" lon="3.38883">
        <ele>553.4</ele>
        <time>2021-08-06T09:36:02Z</time>
      </trkpt>
      <trkpt lat="45.19384" lon="3.38885">
        <ele>553.9</ele>
        <time>2021-08-06T09:36:04Z</time>
      </trkpt>
      <trkpt lat="45.1938" lon="3.38885">
        <ele>554.2</ele>
        <time>2021-08-06T09:36:06Z</time>
      </trkpt>
      <trkpt lat="45.19377" lon="3.38882">
        <ele>554.2</ele>
        <time>2021-08-06T09:36:08Z</time>
      </trkpt>
      <trkpt lat="45.19374" lon="3.38879">
        <ele>554.1</ele>
        <time>2021-08-06T09:36:10Z</time>
      </trkpt>
      <trkpt lat="45.19371" lon="3.38877">
        <ele>554.1</ele>
        <time>2021-08-06T09:36:12Z</time>
      </trkpt>
      <trkpt lat="45.19368" lon="3.38875">
        <ele>554</ele>
        <time>2021-08-06T09:36:14Z</time>
      </trkpt>
      <trkpt lat="45.19365" lon="3.38872">
        <ele>554</ele>
        <time>2021-08-06T09:36:16Z</time>
      </trkpt>
      <trkpt lat="45.19362" lon="3.38871">
        <ele>554</ele>
        <time>2021-08-06T09:36:18Z</time>
      </trkpt>
      <trkpt lat="45.19359" lon="3.38868">
        <ele>553.9</ele>
        <time>2021-08-06T09:36:20Z</time>
      </trkpt>
      <trkpt lat="45.19357" lon="3.38866">
        <ele>553.8</ele>
        <time>2021-08-06T09:36:22Z</time>
      </trkpt>
      <trkpt lat="45.19354" lon="3.38864">
        <ele>553.7</ele>
        <time>2021-08-06T09:36:24Z</time>
      </trkpt>
      <trkpt lat="45.19351" lon="3.38863">
        <ele>553.7</ele>
        <time>2021-08-06T09:36:26Z</time>
      </trkpt>
      <trkpt lat="45.19349" lon="3.38862">
        <ele>553.7</ele>
        <time>2021-08-06T09:36:28Z</time>
      </trkpt>
      <trkpt lat="45.19346" lon="3.3886">
        <ele>553.6</ele>
        <time>2021-08-06T09:36:30Z</time>
      </trkpt>
      <trkpt lat="45.19343" lon="3.38859">
        <ele>553.7</ele>
        <time>2021-08-06T09:36:32Z</time>
      </trkpt>
      <trkpt lat="45.19341" lon="3.38857">
        <ele>553.6</ele>
        <time>2021-08-06T09:36:34Z</time>
      </trkpt>
      <trkpt lat="45.19338" lon="3.38856">
        <ele>553.6</ele>
        <time>2021-08-06T09:36:36Z</time>
      </trkpt>
      <trkpt lat="45.19336" lon="3.38854">
        <ele>553.4</ele>
        <time>2021-08-06T09:36:38Z</time>
      </trkpt>
      <trkpt lat="45.19333" lon="3.38852">
        <ele>553.2</ele>
        <time>2021-08-06T09:36:40Z</time>
      </trkpt>
      <trkpt lat="45.19331" lon="3.38853">
        <ele>553.5</ele>
        <time>2021-08-06T09:36:42Z</time>
      </trkpt>
      <trkpt lat="45.19329" lon="3.38854">
        <ele>553.8</ele>
        <time>2021-08-06T09:36:44Z</time>
      </trkpt>
      <trkpt lat="45.19329" lon="3.38857">
        <ele>554.2</ele>
        <time>2021-08-06T09:36:46Z</time>
      </trkpt>
      <trkpt lat="45.19329" lon="3.38856">
        <ele>554.1</ele>
        <time>2021-08-06T09:36:48Z</time>
      </trkpt>
      <trkpt lat="45.19329" lon="3.38856">
        <ele>554.1</ele>
        <time>2021-08-06T09:36:50Z</time>
      </trkpt>
      <trkpt lat="45.1933" lon="3.3886">
        <ele>554.6</ele>
        <time>2021-08-06T09:36:52Z</time>
      </trkpt>
      <trkpt lat="45.19332" lon="3.38863">
        <ele>555</ele>
        <time>2021-08-06T09:36:54Z</time>
      </trkpt>
      <trkpt lat="45.19335" lon="3.38864">
        <ele>555.1</ele>
        <time>2021-08-06T09:36:56Z</time>
      </trkpt>
      <trkpt lat="45.19336" lon="3.38866">
        <ele>555.2</ele>
        <time>2021-08-06T09:36:58Z</time>
      </trkpt>
      <trkpt lat="45.19338" lon="3.38867">
        <ele>555.4</ele>
        <time>2021-08-06T09:37:00Z</time>
      </trkpt>
      <trkpt lat="45.1934" lon="3.38869">
        <ele>555.5</ele>
        <time>2021-08-06T09:37:02Z</time>
      </trkpt>
      <trkpt lat="45.19342" lon="3.38871">
        <ele>555.6</ele>
        <time>2021-08-06T09:37:04Z</time>
      </trkpt>
      <trkpt lat="45.19344" lon="3.38872">
        <ele>555.7</ele>
        <time>2021-08-06T09:37:06Z</time>
      </trkpt>
      <trkpt lat="45.19345" lon="3.38874">
        <ele>555.9</ele>
        <time>2021-08-06T09:37:08Z</time>
      </trkpt>
      <trkpt lat="45.19345" lon="3.38875">
        <ele>555.9</ele>
        <time>2021-08-06T09:37:10Z</time>
      </trkpt>
      <trkpt lat="45.19346" lon="3.38875">
        <ele>555.9</ele>
        <time>2021-08-06T09:37:12Z</time>
      </trkpt>
      <trkpt lat="45.19346" lon="3.38875">
        <ele>555.9</ele>
        <time>2021-08-06T09:37:14Z</time>
      </trkpt>
      <trkpt lat="45.19346" lon="3.38875">
        <ele>556</ele>
        <time>2021-08-06T09:37:16Z</time>
      </trkpt>
      <trkpt lat="45.19342" lon="3.38857">
        <ele>553.5</ele>
        <time>2021-08-06T09:41:26Z</time>
      </trkpt>
      <trkpt lat="45.19347" lon="3.38862">
        <ele>553.9</ele>
        <time>2021-08-06T09:41:28Z</time>
      </trkpt>
      <trkpt lat="45.19354" lon="3.38866">
        <ele>553.9</ele>
        <time>2021-08-06T09:41:30Z</time>
      </trkpt>
      <trkpt lat="45.19361" lon="3.38871">
        <ele>554.2</ele>
        <time>2021-08-06T09:41:32Z</time>
      </trkpt>
      <trkpt lat="45.19367" lon="3.38876">
        <ele>554.3</ele>
        <time>2021-08-06T09:41:34Z</time>
      </trkpt>
      <trkpt lat="45.19372" lon="3.3888">
        <ele>554.4</ele>
        <time>2021-08-06T09:41:36Z</time>
      </trkpt>
      <trkpt lat="45.19376" lon="3.38884">
        <ele>554.6</ele>
        <time>2021-08-06T09:41:38Z</time>
      </trkpt>
      <trkpt lat="45.19379" lon="3.38889">
        <ele>554.8</ele>
        <time>2021-08-06T09:41:40Z</time>
      </trkpt>
      <trkpt lat="45.19383" lon="3.3889">
        <ele>554.5</ele>
        <time>2021-08-06T09:41:42Z</time>
      </trkpt>
      <trkpt lat="45.19387" lon="3.38885">
        <ele>553.6</ele>
        <time>2021-08-06T09:41:44Z</time>
      </trkpt>
      <trkpt lat="45.19385" lon="3.38877">
        <ele>552.9</ele>
        <time>2021-08-06T09:41:46Z</time>
      </trkpt>
      <trkpt lat="45.1938" lon="3.38873">
        <ele>552.9</ele>
        <time>2021-08-06T09:41:48Z</time>
      </trkpt>
      <trkpt lat="45.19376" lon="3.38869">
        <ele>552.7</ele>
        <time>2021-08-06T09:41:50Z</time>
      </trkpt>
      <trkpt lat="45.1937" lon="3.38864">
        <ele>552.5</ele>
        <time>2021-08-06T09:41:52Z</time>
      </trkpt>
      <trkpt lat="45.19364" lon="3.38858">
        <ele>552.2</ele>
        <time>2021-08-06T09:41:54Z</time>
      </trkpt>
      <trkpt lat="45.19358" lon="3.38851">
        <ele>551.6</ele>
        <time>2021-08-06T09:41:56Z</time>
      </trkpt>
      <trkpt lat="45.19353" lon="3.38844">
        <ele>550.8</ele>
        <time>2021-08-06T09:41:58Z</time>
      </trkpt>
      <trkpt lat="45.19347" lon="3.38836">
        <ele>550</ele>
        <time>2021-08-06T09:42:00Z</time>
      </trkpt>
      <trkpt lat="45.19339" lon="3.38829">
        <ele>548.1</ele>
        <time>2021-08-06T09:42:02Z</time>
      </trkpt>
      <trkpt lat="45.19331" lon="3.38823">
        <ele>545.6</ele>
        <time>2021-08-06T09:42:04Z</time>
      </trkpt>
      <trkpt lat="45.19323" lon="3.38815">
        <ele>542.9</ele>
        <time>2021-08-06T09:42:06Z</time>
      </trkpt>
      <trkpt lat="45.19313" lon="3.38806">
        <ele>539.8</ele>
        <time>2021-08-06T09:42:08Z</time>
      </trkpt>
      <trkpt lat="45.19302" lon="3.38799">
        <ele>538</ele>
        <time>2021-08-06T09:42:10Z</time>
      </trkpt>
      <trkpt lat="45.19291" lon="3.38793">
        <ele>536.5</ele>
        <time>2021-08-06T09:42:12Z</time>
      </trkpt>
      <trkpt lat="45.19279" lon="3.38789">
        <ele>535.7</ele>
        <time>2021-08-06T09:42:14Z</time>
      </trkpt>
      <trkpt lat="45.19267" lon="3.38784">
        <ele>534.5</ele>
        <time>2021-08-06T09:42:16Z</time>
      </trkpt>
      <trkpt lat="45.19255" lon="3.3878">
        <ele>534.3</ele>
        <time>2021-08-06T09:42:18Z</time>
      </trkpt>
      <trkpt lat="45.19244" lon="3.38779">
        <ele>533.1</ele>
        <time>2021-08-06T09:42:20Z</time>
      </trkpt>
      <trkpt lat="45.19232" lon="3.38778">
        <ele>531</ele>
        <time>2021-08-06T09:42:22Z</time>
      </trkpt>
      <trkpt lat="45.19222" lon="3.3878">
        <ele>530</ele>
        <time>2021-08-06T09:42:24Z</time>
      </trkpt>
      <trkpt lat="45.19211" lon="3.38782">
        <ele>529.1</ele>
        <time>2021-08-06T09:42:26Z</time>
      </trkpt>
      <trkpt lat="45.19199" lon="3.38787">
        <ele>528.9</ele>
        <time>2021-08-06T09:42:28Z</time>
      </trkpt>
      <trkpt lat="45.19186" lon="3.38797">
        <ele>529.9</ele>
        <time>2021-08-06T09:42:30Z</time>
      </trkpt>
      <trkpt lat="45.19173" lon="3.38807">
        <ele>530.8</ele>
        <time>2021-08-06T09:42:32Z</time>
      </trkpt>
      <trkpt lat="45.19159" lon="3.38816">
        <ele>530.3</ele>
        <time>2021-08-06T09:42:34Z</time>
      </trkpt>
      <trkpt lat="45.19149" lon="3.38828">
        <ele>530.8</ele>
        <time>2021-08-06T09:42:36Z</time>
      </trkpt>
      <trkpt lat="45.19141" lon="3.3884">
        <ele>531.3</ele>
        <time>2021-08-06T09:42:38Z</time>
      </trkpt>
      <trkpt lat="45.19135" lon="3.38852">
        <ele>531.9</ele>
        <time>2021-08-06T09:42:40Z</time>
      </trkpt>
      <trkpt lat="45.19131" lon="3.38863">
        <ele>533.1</ele>
        <time>2021-08-06T09:42:42Z</time>
      </trkpt>
      <trkpt lat="45.19128" lon="3.38873">
        <ele>534.7</ele>
        <time>2021-08-06T09:42:44Z</time>
      </trkpt>
      <trkpt lat="45.19127" lon="3.38876">
        <ele>535.1</ele>
        <time>2021-08-06T09:42:46Z</time>
      </trkpt>
      <trkpt lat="45.19122" lon="3.38872">
        <ele>532.7</ele>
        <time>2021-08-06T09:42:48Z</time>
      </trkpt>
      <trkpt lat="45.19126" lon="3.38861">
        <ele>531.4</ele>
        <time>2021-08-06T09:42:50Z</time>
      </trkpt>
      <trkpt lat="45.1913" lon="3.38853">
        <ele>530.4</ele>
        <time>2021-08-06T09:42:52Z</time>
      </trkpt>
      <trkpt lat="45.19133" lon="3.38843">
        <ele>529.2</ele>
        <time>2021-08-06T09:42:54Z</time>
      </trkpt>
      <trkpt lat="45.19137" lon="3.38833">
        <ele>528.5</ele>
        <time>2021-08-06T09:42:56Z</time>
      </trkpt>
      <trkpt lat="45.19144" lon="3.38824">
        <ele>527.8</ele>
        <time>2021-08-06T09:42:58Z</time>
      </trkpt>
      <trkpt lat="45.1915" lon="3.38815">
        <ele>527.1</ele>
        <time>2021-08-06T09:43:00Z</time>
      </trkpt>
      <trkpt lat="45.19157" lon="3.38807">
        <ele>526.7</ele>
        <time>2021-08-06T09:43:02Z</time>
      </trkpt>
      <trkpt lat="45.19165" lon="3.38799">
        <ele>526.6</ele>
        <time>2021-08-06T09:43:04Z</time>
      </trkpt>
      <trkpt lat="45.19173" lon="3.38791">
        <ele>525.7</ele>
        <time>2021-08-06T09:43:06Z</time>
      </trkpt>
      <trkpt lat="45.19182" lon="3.38782">
        <ele>524.2</ele>
        <time>2021-08-06T09:43:08Z</time>
      </trkpt>
      <trkpt lat="45.19191" lon="3.38773">
        <ele>522.8</ele>
        <time>2021-08-06T09:43:10Z</time>
      </trkpt>
      <trkpt lat="45.19202" lon="3.38764">
        <ele>521.4</ele>
        <time>2021-08-06T09:43:12Z</time>
      </trkpt>
      <trkpt lat="45.19214" lon="3.38756">
        <ele>520.5</ele>
        <time>2021-08-06T09:43:14Z</time>
      </trkpt>
      <trkpt lat="45.19228" lon="3.38751">
        <ele>520.5</ele>
        <time>2021-08-06T09:43:16Z</time>
      </trkpt>
      <trkpt lat="45.19241" lon="3.38746">
        <ele>520</ele>
        <time>2021-08-06T09:43:18Z</time>
      </trkpt>
      <trkpt lat="45.19254" lon="3.38741">
        <ele>518.1</ele>
        <time>2021-08-06T09:43:20Z</time>
      </trkpt>
      <trkpt lat="45.19269" lon="3.38739">
        <ele>515.8</ele>
        <time>2021-08-06T09:43:22Z</time>
      </trkpt>
      <trkpt lat="45.19285" lon="3.3874">
        <ele>514.7</ele>
        <time>2021-08-06T09:43:24Z</time>
      </trkpt>
      <trkpt lat="45.193" lon="3.38742">
        <ele>514.3</ele>
        <time>2021-08-06T09:43:26Z</time>
      </trkpt>
      <trkpt lat="45.19316" lon="3.38744">
        <ele>513.6</ele>
        <time>2021-08-06T09:43:28Z</time>
      </trkpt>
      <trkpt lat="45.19331" lon="3.38747">
        <ele>513.6</ele>
        <time>2021-08-06T09:43:30Z</time>
      </trkpt>
      <trkpt lat="45.19344" lon="3.38751">
        <ele>515.5</ele>
        <time>2021-08-06T09:43:32Z</time>
      </trkpt>
      <trkpt lat="45.19356" lon="3.38753">
        <ele>516.9</ele>
        <time>2021-08-06T09:43:34Z</time>
      </trkpt>
      <trkpt lat="45.19366" lon="3.38755">
        <ele>517.8</ele>
        <time>2021-08-06T09:43:36Z</time>
      </trkpt>
      <trkpt lat="45.19373" lon="3.38755">
        <ele>518</ele>
        <time>2021-08-06T09:43:38Z</time>
      </trkpt>
      <trkpt lat="45.1938" lon="3.38756">
        <ele>518.5</ele>
        <time>2021-08-06T09:43:40Z</time>
      </trkpt>
      <trkpt lat="45.19383" lon="3.38757">
        <ele>518.8</ele>
        <time>2021-08-06T09:43:42Z</time>
      </trkpt>
      <trkpt lat="45.19383" lon="3.38757">
        <ele>518.8</ele>
        <time>2021-08-06T09:43:44Z</time>
      </trkpt>
      <trkpt lat="45.19383" lon="3.38757">
        <ele>518.7</ele>
        <time>2021-08-06T09:43:46Z</time>
      </trkpt>
      <trkpt lat="45.19383" lon="3.38756">
        <ele>518.6</ele>
        <time>2021-08-06T09:43:48Z</time>
      </trkpt>
      <trkpt lat="45.19383" lon="3.38756">
        <ele>518.6</ele>
        <time>2021-08-06T09:43:50Z</time>
      </trkpt>
      <trkpt lat="45.19391" lon="3.38752">
        <ele>517.1</ele>
        <time>2021-08-06T09:44:10Z</time>
      </trkpt>
      <trkpt lat="45.19395" lon="3.3875">
        <ele>516.5</ele>
        <time>2021-08-06T09:44:12Z</time>
      </trkpt>
      <trkpt lat="45.19401" lon="3.38747">
        <ele>515.3</ele>
        <time>2021-08-06T09:44:14Z</time>
      </trkpt>
      <trkpt lat="45.19409" lon="3.38744">
        <ele>513.6</ele>
        <time>2021-08-06T09:44:16Z</time>
      </trkpt>
      <trkpt lat="45.1942" lon="3.38742">
        <ele>512.7</ele>
        <time>2021-08-06T09:44:18Z</time>
      </trkpt>
      <trkpt lat="45.19432" lon="3.38738">
        <ele>509.8</ele>
        <time>2021-08-06T09:44:20Z</time>
      </trkpt>
      <trkpt lat="45.19443" lon="3.3873">
        <ele>505</ele>
        <time>2021-08-06T09:44:22Z</time>
      </trkpt>
      <trkpt lat="45.19453" lon="3.3872">
        <ele>499.8</ele>
        <time>2021-08-06T09:44:24Z</time>
      </trkpt>
      <trkpt lat="45.19465" lon="3.38714">
        <ele>496.4</ele>
        <time>2021-08-06T09:44:26Z</time>
      </trkpt>
      <trkpt lat="45.19478" lon="3.38715">
        <ele>496.4</ele>
        <time>2021-08-06T09:44:28Z</time>
      </trkpt>
      <trkpt lat="45.1949" lon="3.38717">
        <ele>497</ele>
        <time>2021-08-06T09:44:30Z</time>
      </trkpt>
      <trkpt lat="45.195" lon="3.38718">
        <ele>497.4</ele>
        <time>2021-08-06T09:44:32Z</time>
      </trkpt>
      <trkpt lat="45.19509" lon="3.38718">
        <ele>495.6</ele>
        <time>2021-08-06T09:44:34Z</time>
      </trkpt>
      <trkpt lat="45.1952" lon="3.38717">
        <ele>493.1</ele>
        <time>2021-08-06T09:44:36Z</time>
      </trkpt>
      <trkpt lat="45.19533" lon="3.38722">
        <ele>492.6</ele>
        <time>2021-08-06T09:44:38Z</time>
      </trkpt>
      <trkpt lat="45.19545" lon="3.38726">
        <ele>492.1</ele>
        <time>2021-08-06T09:44:40Z</time>
      </trkpt>
      <trkpt lat="45.19556" lon="3.38733">
        <ele>492.1</ele>
        <time>2021-08-06T09:44:42Z</time>
      </trkpt>
      <trkpt lat="45.19566" lon="3.38743">
        <ele>493.6</ele>
        <time>2021-08-06T09:44:44Z</time>
      </trkpt>
      <trkpt lat="45.19576" lon="3.38755">
        <ele>494.8</ele>
        <time>2021-08-06T09:44:46Z</time>
      </trkpt>
      <trkpt lat="45.19585" lon="3.38767">
        <ele>494.9</ele>
        <time>2021-08-06T09:44:48Z</time>
      </trkpt>
      <trkpt lat="45.19594" lon="3.3878">
        <ele>494.8</ele>
        <time>2021-08-06T09:44:50Z</time>
      </trkpt>
      <trkpt lat="45.19604" lon="3.38793">
        <ele>494.8</ele>
        <time>2021-08-06T09:44:52Z</time>
      </trkpt>
      <trkpt lat="45.19613" lon="3.38808">
        <ele>495</ele>
        <time>2021-08-06T09:44:54Z</time>
      </trkpt>
      <trkpt lat="45.19621" lon="3.38822">
        <ele>495.3</ele>
        <time>2021-08-06T09:44:56Z</time>
      </trkpt>
      <trkpt lat="45.1963" lon="3.38838">
        <ele>495.3</ele>
        <time>2021-08-06T09:44:58Z</time>
      </trkpt>
      <trkpt lat="45.19638" lon="3.38853">
        <ele>494.9</ele>
        <time>2021-08-06T09:45:00Z</time>
      </trkpt>
      <trkpt lat="45.19647" lon="3.38867">
        <ele>494.5</ele>
        <time>2021-08-06T09:45:02Z</time>
      </trkpt>
      <trkpt lat="45.19655" lon="3.38881">
        <ele>494.2</ele>
        <time>2021-08-06T09:45:04Z</time>
      </trkpt>
      <trkpt lat="45.19663" lon="3.38893">
        <ele>494.1</ele>
        <time>2021-08-06T09:45:06Z</time>
      </trkpt>
      <trkpt lat="45.19671" lon="3.38901">
        <ele>493.9</ele>
        <time>2021-08-06T09:45:08Z</time>
      </trkpt>
      <trkpt lat="45.19677" lon="3.38908">
        <ele>494</ele>
        <time>2021-08-06T09:45:10Z</time>
      </trkpt>
      <trkpt lat="45.19681" lon="3.38913">
        <ele>494.2</ele>
        <time>2021-08-06T09:45:12Z</time>
      </trkpt>
      <trkpt lat="45.19681" lon="3.38914">
        <ele>494.4</ele>
        <time>2021-08-06T09:45:14Z</time>
      </trkpt>
      <trkpt lat="45.19681" lon="3.38914">
        <ele>494.4</ele>
        <time>2021-08-06T09:45:16Z</time>
      </trkpt>
      <trkpt lat="45.19681" lon="3.38914">
        <ele>494.3</ele>
        <time>2021-08-06T09:45:18Z</time>
      </trkpt>
      <trkpt lat="45.19681" lon="3.38914">
        <ele>494.3</ele>
        <time>2021-08-06T09:45:20Z</time>
      </trkpt>
      <trkpt lat="45.19682" lon="3.38914">
        <ele>494.3</ele>
        <time>2021-08-06T09:45:22Z</time>
      </trkpt>
      <trkpt lat="45.19695" lon="3.38935">
        <ele>494.5</ele>
        <time>2021-08-06T09:45:50Z</time>
      </trkpt>
      <trkpt lat="45.19702" lon="3.38943">
        <ele>494</ele>
        <time>2021-08-06T09:45:52Z</time>
      </trkpt>
      <trkpt lat="45.19712" lon="3.38953">
        <ele>493.1</ele>
        <time>2021-08-06T09:45:54Z</time>
      </trkpt>
      <trkpt lat="45.19722" lon="3.38963">
        <ele>491.9</ele>
        <time>2021-08-06T09:45:56Z</time>
      </trkpt>
      <trkpt lat="45.19731" lon="3.38973">
        <ele>490.7</ele>
        <time>2021-08-06T09:45:58Z</time>
      </trkpt>
      <trkpt lat="45.19739" lon="3.38981">
        <ele>489.5</ele>
        <time>2021-08-06T09:46:00Z</time>
      </trkpt>
      <trkpt lat="45.19747" lon="3.38989">
        <ele>488.1</ele>
        <time>2021-08-06T09:46:02Z</time>
      </trkpt>
      <trkpt lat="45.19755" lon="3.38991">
        <ele>486.7</ele>
        <time>2021-08-06T09:46:04Z</time>
      </trkpt>
      <trkpt lat="45.19763" lon="3.38985">
        <ele>485.1</ele>
        <time>2021-08-06T09:46:06Z</time>
      </trkpt>
      <trkpt lat="45.19767" lon="3.38974">
        <ele>484.1</ele>
        <time>2021-08-06T09:46:08Z</time>
      </trkpt>
      <trkpt lat="45.19768" lon="3.38961">
        <ele>483.4</ele>
        <time>2021-08-06T09:46:10Z</time>
      </trkpt>
      <trkpt lat="45.19765" lon="3.38945">
        <ele>483.2</ele>
        <time>2021-08-06T09:46:12Z</time>
      </trkpt>
      <trkpt lat="45.19762" lon="3.3893">
        <ele>483</ele>
        <time>2021-08-06T09:46:14Z</time>
      </trkpt>
      <trkpt lat="45.19759" lon="3.38913">
        <ele>482.4</ele>
        <time>2021-08-06T09:46:16Z</time>
      </trkpt>
      <trkpt lat="45.19756" lon="3.38897">
        <ele>480.6</ele>
        <time>2021-08-06T09:46:18Z</time>
      </trkpt>
      <trkpt lat="45.19753" lon="3.3888">
        <ele>478.8</ele>
        <time>2021-08-06T09:46:20Z</time>
      </trkpt>
      <trkpt lat="45.19752" lon="3.38866">
        <ele>477.1</ele>
        <time>2021-08-06T09:46:22Z</time>
      </trkpt>
      <trkpt lat="45.19752" lon="3.38852">
        <ele>475.2</ele>
        <time>2021-08-06T09:46:24Z</time>
      </trkpt>
      <trkpt lat="45.19754" lon="3.38837">
        <ele>473</ele>
        <time>2021-08-06T09:46:26Z</time>
      </trkpt>
      <trkpt lat="45.1976" lon="3.38823">
        <ele>470.5</ele>
        <time>2021-08-06T09:46:28Z</time>
      </trkpt>
      <trkpt lat="45.19768" lon="3.38809">
        <ele>467.9</ele>
        <time>2021-08-06T09:46:30Z</time>
      </trkpt>
      <trkpt lat="45.19778" lon="3.38796">
        <ele>465.2</ele>
        <time>2021-08-06T09:46:32Z</time>
      </trkpt>
      <trkpt lat="45.19787" lon="3.38782">
        <ele>462.5</ele>
        <time>2021-08-06T09:46:34Z</time>
      </trkpt>
      <trkpt lat="45.19796" lon="3.3877">
        <ele>460</ele>
        <time>2021-08-06T09:46:36Z</time>
      </trkpt>
      <trkpt lat="45.19803" lon="3.38758">
        <ele>457.9</ele>
        <time>2021-08-06T09:46:38Z</time>
      </trkpt>
      <trkpt lat="45.1981" lon="3.38749">
        <ele>456.2</ele>
        <time>2021-08-06T09:46:40Z</time>
      </trkpt>
      <trkpt lat="45.19816" lon="3.38739">
        <ele>455.4</ele>
        <time>2021-08-06T09:46:42Z</time>
      </trkpt>
      <trkpt lat="45.19822" lon="3.38731">
        <ele>454.8</ele>
        <time>2021-08-06T09:46:44Z</time>
      </trkpt>
      <trkpt lat="45.19828" lon="3.38722">
        <ele>454.5</ele>
        <time>2021-08-06T09:46:46Z</time>
      </trkpt>
      <trkpt lat="45.19834" lon="3.38714">
        <ele>454.4</ele>
        <time>2021-08-06T09:46:48Z</time>
      </trkpt>
      <trkpt lat="45.19838" lon="3.38707">
        <ele>454.9</ele>
        <time>2021-08-06T09:46:50Z</time>
      </trkpt>
      <trkpt lat="45.19843" lon="3.387">
        <ele>455.3</ele>
        <time>2021-08-06T09:46:52Z</time>
      </trkpt>
      <trkpt lat="45.19848" lon="3.38693">
        <ele>456</ele>
        <time>2021-08-06T09:46:54Z</time>
      </trkpt>
      <trkpt lat="45.19853" lon="3.38686">
        <ele>456.7</ele>
        <time>2021-08-06T09:46:56Z</time>
      </trkpt>
      <trkpt lat="45.19858" lon="3.38679">
        <ele>457.5</ele>
        <time>2021-08-06T09:46:58Z</time>
      </trkpt>
      <trkpt lat="45.19863" lon="3.38672">
        <ele>458.4</ele>
        <time>2021-08-06T09:47:00Z</time>
      </trkpt>
      <trkpt lat="45.19868" lon="3.38665">
        <ele>459.4</ele>
        <time>2021-08-06T09:47:02Z</time>
      </trkpt>
      <trkpt lat="45.19873" lon="3.38658">
        <ele>460.7</ele>
        <time>2021-08-06T09:47:04Z</time>
      </trkpt>
      <trkpt lat="45.19878" lon="3.3865">
        <ele>462.2</ele>
        <time>2021-08-06T09:47:06Z</time>
      </trkpt>
      <trkpt lat="45.19883" lon="3.38642">
        <ele>463.9</ele>
        <time>2021-08-06T09:47:08Z</time>
      </trkpt>
      <trkpt lat="45.19887" lon="3.38634">
        <ele>465.5</ele>
        <time>2021-08-06T09:47:10Z</time>
      </trkpt>
      <trkpt lat="45.19889" lon="3.38627">
        <ele>466.9</ele>
        <time>2021-08-06T09:47:12Z</time>
      </trkpt>
      <trkpt lat="45.19888" lon="3.38618">
        <ele>467.7</ele>
        <time>2021-08-06T09:47:14Z</time>
      </trkpt>
      <trkpt lat="45.19887" lon="3.38612">
        <ele>468.3</ele>
        <time>2021-08-06T09:47:16Z</time>
      </trkpt>
      <trkpt lat="45.19885" lon="3.38606">
        <ele>468.5</ele>
        <time>2021-08-06T09:47:18Z</time>
      </trkpt>
      <trkpt lat="45.19883" lon="3.386">
        <ele>468.9</ele>
        <time>2021-08-06T09:47:20Z</time>
      </trkpt>
      <trkpt lat="45.19881" lon="3.38594">
        <ele>469.2</ele>
        <time>2021-08-06T09:47:22Z</time>
      </trkpt>
      <trkpt lat="45.19879" lon="3.38589">
        <ele>469.4</ele>
        <time>2021-08-06T09:47:24Z</time>
      </trkpt>
      <trkpt lat="45.19877" lon="3.38583">
        <ele>469.5</ele>
        <time>2021-08-06T09:47:26Z</time>
      </trkpt>
      <trkpt lat="45.19877" lon="3.38577">
        <ele>469.7</ele>
        <time>2021-08-06T09:47:28Z</time>
      </trkpt>
      <trkpt lat="45.19877" lon="3.38571">
        <ele>470.2</ele>
        <time>2021-08-06T09:47:30Z</time>
      </trkpt>
      <trkpt lat="45.19878" lon="3.38567">
        <ele>470.4</ele>
        <time>2021-08-06T09:47:32Z</time>
      </trkpt>
      <trkpt lat="45.19879" lon="3.38561">
        <ele>470.9</ele>
        <time>2021-08-06T09:47:34Z</time>
      </trkpt>
      <trkpt lat="45.1988" lon="3.38555">
        <ele>471.6</ele>
        <time>2021-08-06T09:47:36Z</time>
      </trkpt>
      <trkpt lat="45.19883" lon="3.38551">
        <ele>472.3</ele>
        <time>2021-08-06T09:47:38Z</time>
      </trkpt>
      <trkpt lat="45.19886" lon="3.38547">
        <ele>472.9</ele>
        <time>2021-08-06T09:47:40Z</time>
      </trkpt>
      <trkpt lat="45.19889" lon="3.38545">
        <ele>473.6</ele>
        <time>2021-08-06T09:47:42Z</time>
      </trkpt>
      <trkpt lat="45.19892" lon="3.38544">
        <ele>474.2</ele>
        <time>2021-08-06T09:47:44Z</time>
      </trkpt>
      <trkpt lat="45.19896" lon="3.38543">
        <ele>474.9</ele>
        <time>2021-08-06T09:47:46Z</time>
      </trkpt>
      <trkpt lat="45.19899" lon="3.38543">
        <ele>475.3</ele>
        <time>2021-08-06T09:47:48Z</time>
      </trkpt>
      <trkpt lat="45.19901" lon="3.38543">
        <ele>475.8</ele>
        <time>2021-08-06T09:47:50Z</time>
      </trkpt>
      <trkpt lat="45.19903" lon="3.38543">
        <ele>476.2</ele>
        <time>2021-08-06T09:47:52Z</time>
      </trkpt>
      <trkpt lat="45.19907" lon="3.38542">
        <ele>476.8</ele>
        <time>2021-08-06T09:47:54Z</time>
      </trkpt>
      <trkpt lat="45.1991" lon="3.38539">
        <ele>477.3</ele>
        <time>2021-08-06T09:47:56Z</time>
      </trkpt>
      <trkpt lat="45.19913" lon="3.38532">
        <ele>477.8</ele>
        <time>2021-08-06T09:47:58Z</time>
      </trkpt>
      <trkpt lat="45.19915" lon="3.38526">
        <ele>478</ele>
        <time>2021-08-06T09:48:00Z</time>
      </trkpt>
      <trkpt lat="45.19918" lon="3.38519">
        <ele>478.5</ele>
        <time>2021-08-06T09:48:02Z</time>
      </trkpt>
      <trkpt lat="45.19924" lon="3.38504">
        <ele>480.1</ele>
        <time>2021-08-06T09:48:04Z</time>
      </trkpt>
      <trkpt lat="45.19928" lon="3.38497">
        <ele>481.1</ele>
        <time>2021-08-06T09:48:06Z</time>
      </trkpt>
      <trkpt lat="45.19931" lon="3.38488">
        <ele>482.1</ele>
        <time>2021-08-06T09:48:08Z</time>
      </trkpt>
      <trkpt lat="45.19935" lon="3.38479">
        <ele>483.1</ele>
        <time>2021-08-06T09:48:10Z</time>
      </trkpt>
      <trkpt lat="45.19938" lon="3.38471">
        <ele>483.9</ele>
        <time>2021-08-06T09:48:12Z</time>
      </trkpt>
      <trkpt lat="45.1994" lon="3.38462">
        <ele>484.5</ele>
        <time>2021-08-06T09:48:14Z</time>
      </trkpt>
      <trkpt lat="45.1994" lon="3.38452">
        <ele>484.7</ele>
        <time>2021-08-06T09:48:16Z</time>
      </trkpt>
      <trkpt lat="45.19939" lon="3.38443">
        <ele>484.5</ele>
        <time>2021-08-06T09:48:18Z</time>
      </trkpt>
      <trkpt lat="45.19937" lon="3.38434">
        <ele>484.2</ele>
        <time>2021-08-06T09:48:20Z</time>
      </trkpt>
      <trkpt lat="45.19935" lon="3.38426">
        <ele>483.9</ele>
        <time>2021-08-06T09:48:22Z</time>
      </trkpt>
      <trkpt lat="45.19931" lon="3.38418">
        <ele>483.3</ele>
        <time>2021-08-06T09:48:24Z</time>
      </trkpt>
      <trkpt lat="45.19927" lon="3.3841">
        <ele>483.5</ele>
        <time>2021-08-06T09:48:26Z</time>
      </trkpt>
      <trkpt lat="45.19922" lon="3.38404">
        <ele>483.4</ele>
        <time>2021-08-06T09:48:28Z</time>
      </trkpt>
      <trkpt lat="45.19916" lon="3.38399">
        <ele>483.1</ele>
        <time>2021-08-06T09:48:30Z</time>
      </trkpt>
      <trkpt lat="45.19909" lon="3.38395">
        <ele>483.2</ele>
        <time>2021-08-06T09:48:32Z</time>
      </trkpt>
      <trkpt lat="45.19902" lon="3.38395">
        <ele>482.9</ele>
        <time>2021-08-06T09:48:34Z</time>
      </trkpt>
      <trkpt lat="45.19895" lon="3.38396">
        <ele>482.4</ele>
        <time>2021-08-06T09:48:36Z</time>
      </trkpt>
      <trkpt lat="45.19888" lon="3.38398">
        <ele>482</ele>
        <time>2021-08-06T09:48:38Z</time>
      </trkpt>
      <trkpt lat="45.19881" lon="3.38401">
        <ele>481.3</ele>
        <time>2021-08-06T09:48:40Z</time>
      </trkpt>
      <trkpt lat="45.19875" lon="3.38405">
        <ele>480.6</ele>
        <time>2021-08-06T09:48:42Z</time>
      </trkpt>
      <trkpt lat="45.19868" lon="3.38408">
        <ele>480</ele>
        <time>2021-08-06T09:48:44Z</time>
      </trkpt>
      <trkpt lat="45.19861" lon="3.38411">
        <ele>479.5</ele>
        <time>2021-08-06T09:48:46Z</time>
      </trkpt>
      <trkpt lat="45.19854" lon="3.38412">
        <ele>479.1</ele>
        <time>2021-08-06T09:48:48Z</time>
      </trkpt>
      <trkpt lat="45.19847" lon="3.38413">
        <ele>478.8</ele>
        <time>2021-08-06T09:48:50Z</time>
      </trkpt>
      <trkpt lat="45.1984" lon="3.38411">
        <ele>478.7</ele>
        <time>2021-08-06T09:48:52Z</time>
      </trkpt>
      <trkpt lat="45.19833" lon="3.38408">
        <ele>478.6</ele>
        <time>2021-08-06T09:48:54Z</time>
      </trkpt>
      <trkpt lat="45.19827" lon="3.38404">
        <ele>478.8</ele>
        <time>2021-08-06T09:48:56Z</time>
      </trkpt>
      <trkpt lat="45.1982" lon="3.384">
        <ele>478.9</ele>
        <time>2021-08-06T09:48:58Z</time>
      </trkpt>
      <trkpt lat="45.19814" lon="3.38397">
        <ele>479</ele>
        <time>2021-08-06T09:49:00Z</time>
      </trkpt>
      <trkpt lat="45.19808" lon="3.38392">
        <ele>479.2</ele>
        <time>2021-08-06T09:49:02Z</time>
      </trkpt>
      <trkpt lat="45.19802" lon="3.38388">
        <ele>479.3</ele>
        <time>2021-08-06T09:49:04Z</time>
      </trkpt>
      <trkpt lat="45.19796" lon="3.38384">
        <ele>479.5</ele>
        <time>2021-08-06T09:49:06Z</time>
      </trkpt>
      <trkpt lat="45.19789" lon="3.38379">
        <ele>479.7</ele>
        <time>2021-08-06T09:49:08Z</time>
      </trkpt>
      <trkpt lat="45.19783" lon="3.38374">
        <ele>479.8</ele>
        <time>2021-08-06T09:49:10Z</time>
      </trkpt>
      <trkpt lat="45.19776" lon="3.3837">
        <ele>480</ele>
        <time>2021-08-06T09:49:12Z</time>
      </trkpt>
      <trkpt lat="45.19769" lon="3.38366">
        <ele>480.1</ele>
        <time>2021-08-06T09:49:14Z</time>
      </trkpt>
      <trkpt lat="45.19762" lon="3.38362">
        <ele>480.2</ele>
        <time>2021-08-06T09:49:16Z</time>
      </trkpt>
      <trkpt lat="45.19755" lon="3.38358">
        <ele>480.3</ele>
        <time>2021-08-06T09:49:18Z</time>
      </trkpt>
      <trkpt lat="45.19749" lon="3.38354">
        <ele>480.5</ele>
        <time>2021-08-06T09:49:20Z</time>
      </trkpt>
      <trkpt lat="45.19742" lon="3.3835">
        <ele>480.5</ele>
        <time>2021-08-06T09:49:22Z</time>
      </trkpt>
      <trkpt lat="45.19736" lon="3.38344">
        <ele>480.7</ele>
        <time>2021-08-06T09:49:24Z</time>
      </trkpt>
      <trkpt lat="45.19728" lon="3.38341">
        <ele>480.7</ele>
        <time>2021-08-06T09:49:26Z</time>
      </trkpt>
      <trkpt lat="45.19721" lon="3.38335">
        <ele>480.8</ele>
        <time>2021-08-06T09:49:28Z</time>
      </trkpt>
      <trkpt lat="45.19712" lon="3.38331">
        <ele>480.7</ele>
        <time>2021-08-06T09:49:30Z</time>
      </trkpt>
      <trkpt lat="45.19703" lon="3.38327">
        <ele>480.5</ele>
        <time>2021-08-06T09:49:32Z</time>
      </trkpt>
      <trkpt lat="45.19694" lon="3.38321">
        <ele>480.2</ele>
        <time>2021-08-06T09:49:34Z</time>
      </trkpt>
      <trkpt lat="45.19685" lon="3.38315">
        <ele>479.9</ele>
        <time>2021-08-06T09:49:36Z</time>
      </trkpt>
      <trkpt lat="45.19677" lon="3.38305">
        <ele>479.6</ele>
        <time>2021-08-06T09:49:38Z</time>
      </trkpt>
      <trkpt lat="45.19671" lon="3.38295">
        <ele>479.3</ele>
        <time>2021-08-06T09:49:40Z</time>
      </trkpt>
      <trkpt lat="45.19665" lon="3.38283">
        <ele>478.9</ele>
        <time>2021-08-06T09:49:42Z</time>
      </trkpt>
      <trkpt lat="45.1966" lon="3.38271">
        <ele>478.7</ele>
        <time>2021-08-06T09:49:44Z</time>
      </trkpt>
      <trkpt lat="45.19654" lon="3.38258">
        <ele>478.5</ele>
        <time>2021-08-06T09:49:46Z</time>
      </trkpt>
      <trkpt lat="45.19648" lon="3.38246">
        <ele>478.5</ele>
        <time>2021-08-06T09:49:48Z</time>
      </trkpt>
      <trkpt lat="45.19642" lon="3.38233">
        <ele>478.9</ele>
        <time>2021-08-06T09:49:50Z</time>
      </trkpt>
      <trkpt lat="45.19636" lon="3.38221">
        <ele>479.2</ele>
        <time>2021-08-06T09:49:52Z</time>
      </trkpt>
      <trkpt lat="45.1963" lon="3.38208">
        <ele>479.5</ele>
        <time>2021-08-06T09:49:54Z</time>
      </trkpt>
      <trkpt lat="45.19623" lon="3.38198">
        <ele>479.6</ele>
        <time>2021-08-06T09:49:56Z</time>
      </trkpt>
      <trkpt lat="45.19613" lon="3.38192">
        <ele>479.4</ele>
        <time>2021-08-06T09:49:58Z</time>
      </trkpt>
      <trkpt lat="45.19602" lon="3.38191">
        <ele>479</ele>
        <time>2021-08-06T09:50:00Z</time>
      </trkpt>
      <trkpt lat="45.19592" lon="3.38193">
        <ele>478.4</ele>
        <time>2021-08-06T09:50:02Z</time>
      </trkpt>
      <trkpt lat="45.19583" lon="3.38197">
        <ele>477.9</ele>
        <time>2021-08-06T09:50:04Z</time>
      </trkpt>
      <trkpt lat="45.19575" lon="3.38203">
        <ele>478</ele>
        <time>2021-08-06T09:50:06Z</time>
      </trkpt>
      <trkpt lat="45.1957" lon="3.3821">
        <ele>477.9</ele>
        <time>2021-08-06T09:50:08Z</time>
      </trkpt>
      <trkpt lat="45.19565" lon="3.38218">
        <ele>477.8</ele>
        <time>2021-08-06T09:50:10Z</time>
      </trkpt>
      <trkpt lat="45.19559" lon="3.38226">
        <ele>477.7</ele>
        <time>2021-08-06T09:50:12Z</time>
      </trkpt>
      <trkpt lat="45.19555" lon="3.38233">
        <ele>477.6</ele>
        <time>2021-08-06T09:50:14Z</time>
      </trkpt>
      <trkpt lat="45.1955" lon="3.3824">
        <ele>477.6</ele>
        <time>2021-08-06T09:50:16Z</time>
      </trkpt>
      <trkpt lat="45.19544" lon="3.38246">
        <ele>477.6</ele>
        <time>2021-08-06T09:50:18Z</time>
      </trkpt>
      <trkpt lat="45.19539" lon="3.38251">
        <ele>477.6</ele>
        <time>2021-08-06T09:50:20Z</time>
      </trkpt>
      <trkpt lat="45.19533" lon="3.38254">
        <ele>477.7</ele>
        <time>2021-08-06T09:50:22Z</time>
      </trkpt>
      <trkpt lat="45.19527" lon="3.38257">
        <ele>477.8</ele>
        <time>2021-08-06T09:50:24Z</time>
      </trkpt>
      <trkpt lat="45.1952" lon="3.38259">
        <ele>478</ele>
        <time>2021-08-06T09:50:26Z</time>
      </trkpt>
      <trkpt lat="45.19514" lon="3.38261">
        <ele>478.1</ele>
        <time>2021-08-06T09:50:28Z</time>
      </trkpt>
      <trkpt lat="45.19508" lon="3.38263">
        <ele>478.3</ele>
        <time>2021-08-06T09:50:30Z</time>
      </trkpt>
      <trkpt lat="45.19502" lon="3.38263">
        <ele>478.5</ele>
        <time>2021-08-06T09:50:32Z</time>
      </trkpt>
      <trkpt lat="45.19496" lon="3.38264">
        <ele>478.7</ele>
        <time>2021-08-06T09:50:34Z</time>
      </trkpt>
      <trkpt lat="45.1949" lon="3.38265">
        <ele>478.9</ele>
        <time>2021-08-06T09:50:36Z</time>
      </trkpt>
      <trkpt lat="45.19484" lon="3.38266">
        <ele>479.1</ele>
        <time>2021-08-06T09:50:38Z</time>
      </trkpt>
      <trkpt lat="45.19478" lon="3.38268">
        <ele>479.3</ele>
        <time>2021-08-06T09:50:40Z</time>
      </trkpt>
      <trkpt lat="45.19473" lon="3.38269">
        <ele>479.5</ele>
        <time>2021-08-06T09:50:42Z</time>
      </trkpt>
      <trkpt lat="45.19467" lon="3.38271">
        <ele>479.6</ele>
        <time>2021-08-06T09:50:44Z</time>
      </trkpt>
      <trkpt lat="45.19461" lon="3.38272">
        <ele>479.9</ele>
        <time>2021-08-06T09:50:46Z</time>
      </trkpt>
      <trkpt lat="45.19455" lon="3.38274">
        <ele>480</ele>
        <time>2021-08-06T09:50:48Z</time>
      </trkpt>
      <trkpt lat="45.19448" lon="3.38275">
        <ele>480.2</ele>
        <time>2021-08-06T09:50:50Z</time>
      </trkpt>
      <trkpt lat="45.19442" lon="3.38278">
        <ele>480.3</ele>
        <time>2021-08-06T09:50:52Z</time>
      </trkpt>
      <trkpt lat="45.19435" lon="3.38278">
        <ele>480.6</ele>
        <time>2021-08-06T09:50:54Z</time>
      </trkpt>
      <trkpt lat="45.19428" lon="3.3828">
        <ele>480.7</ele>
        <time>2021-08-06T09:50:56Z</time>
      </trkpt>
      <trkpt lat="45.19422" lon="3.38283">
        <ele>480.8</ele>
        <time>2021-08-06T09:50:58Z</time>
      </trkpt>
      <trkpt lat="45.19415" lon="3.38284">
        <ele>481</ele>
        <time>2021-08-06T09:51:00Z</time>
      </trkpt>
      <trkpt lat="45.19408" lon="3.38284">
        <ele>480.9</ele>
        <time>2021-08-06T09:51:02Z</time>
      </trkpt>
      <trkpt lat="45.19401" lon="3.38286">
        <ele>480.8</ele>
        <time>2021-08-06T09:51:04Z</time>
      </trkpt>
      <trkpt lat="45.19394" lon="3.38288">
        <ele>480.6</ele>
        <time>2021-08-06T09:51:06Z</time>
      </trkpt>
      <trkpt lat="45.19387" lon="3.3829">
        <ele>480.4</ele>
        <time>2021-08-06T09:51:08Z</time>
      </trkpt>
      <trkpt lat="45.1938" lon="3.38293">
        <ele>480.2</ele>
        <time>2021-08-06T09:51:10Z</time>
      </trkpt>
      <trkpt lat="45.19373" lon="3.38294">
        <ele>480</ele>
        <time>2021-08-06T09:51:12Z</time>
      </trkpt>
      <trkpt lat="45.19365" lon="3.38297">
        <ele>479.8</ele>
        <time>2021-08-06T09:51:14Z</time>
      </trkpt>
      <trkpt lat="45.19358" lon="3.38298">
        <ele>479.6</ele>
        <time>2021-08-06T09:51:16Z</time>
      </trkpt>
      <trkpt lat="45.1935" lon="3.383">
        <ele>479.4</ele>
        <time>2021-08-06T09:51:18Z</time>
      </trkpt>
      <trkpt lat="45.19343" lon="3.38302">
        <ele>479.1</ele>
        <time>2021-08-06T09:51:20Z</time>
      </trkpt>
      <trkpt lat="45.19335" lon="3.38304">
        <ele>478.9</ele>
        <time>2021-08-06T09:51:22Z</time>
      </trkpt>
      <trkpt lat="45.19327" lon="3.38305">
        <ele>478.7</ele>
        <time>2021-08-06T09:51:24Z</time>
      </trkpt>
      <trkpt lat="45.19319" lon="3.38308">
        <ele>478.4</ele>
        <time>2021-08-06T09:51:26Z</time>
      </trkpt>
      <trkpt lat="45.19311" lon="3.3831">
        <ele>478.2</ele>
        <time>2021-08-06T09:51:28Z</time>
      </trkpt>
      <trkpt lat="45.19303" lon="3.38312">
        <ele>478</ele>
        <time>2021-08-06T09:51:30Z</time>
      </trkpt>
      <trkpt lat="45.19294" lon="3.38314">
        <ele>477.9</ele>
        <time>2021-08-06T09:51:32Z</time>
      </trkpt>
      <trkpt lat="45.19285" lon="3.38315">
        <ele>477.9</ele>
        <time>2021-08-06T09:51:34Z</time>
      </trkpt>
      <trkpt lat="45.19276" lon="3.38317">
        <ele>477.7</ele>
        <time>2021-08-06T09:51:36Z</time>
      </trkpt>
      <trkpt lat="45.19267" lon="3.38319">
        <ele>477.6</ele>
        <time>2021-08-06T09:51:38Z</time>
      </trkpt>
      <trkpt lat="45.19257" lon="3.3832">
        <ele>477.6</ele>
        <time>2021-08-06T09:51:40Z</time>
      </trkpt>
      <trkpt lat="45.19247" lon="3.38319">
        <ele>477.3</ele>
        <time>2021-08-06T09:51:42Z</time>
      </trkpt>
      <trkpt lat="45.19235" lon="3.38316">
        <ele>476.1</ele>
        <time>2021-08-06T09:51:44Z</time>
      </trkpt>
      <trkpt lat="45.19224" lon="3.38309">
        <ele>474.9</ele>
        <time>2021-08-06T09:51:46Z</time>
      </trkpt>
      <trkpt lat="45.19214" lon="3.38298">
        <ele>473.6</ele>
        <time>2021-08-06T09:51:48Z</time>
      </trkpt>
      <trkpt lat="45.19205" lon="3.38283">
        <ele>472.2</ele>
        <time>2021-08-06T09:51:50Z</time>
      </trkpt>
      <trkpt lat="45.19199" lon="3.38265">
        <ele>470.9</ele>
        <time>2021-08-06T09:51:52Z</time>
      </trkpt>
      <trkpt lat="45.19196" lon="3.38244">
        <ele>470.1</ele>
        <time>2021-08-06T09:51:54Z</time>
      </trkpt>
      <trkpt lat="45.19192" lon="3.38222">
        <ele>470</ele>
        <time>2021-08-06T09:51:56Z</time>
      </trkpt>
      <trkpt lat="45.19189" lon="3.38199">
        <ele>469.8</ele>
        <time>2021-08-06T09:51:58Z</time>
      </trkpt>
      <trkpt lat="45.19186" lon="3.38176">
        <ele>469.5</ele>
        <time>2021-08-06T09:52:00Z</time>
      </trkpt>
      <trkpt lat="45.19182" lon="3.38152">
        <ele>468.9</ele>
        <time>2021-08-06T09:52:02Z</time>
      </trkpt>
      <trkpt lat="45.19178" lon="3.38128">
        <ele>468</ele>
        <time>2021-08-06T09:52:04Z</time>
      </trkpt>
      <trkpt lat="45.19174" lon="3.38103">
        <ele>467</ele>
        <time>2021-08-06T09:52:06Z</time>
      </trkpt>
      <trkpt lat="45.1917" lon="3.38077">
        <ele>466.3</ele>
        <time>2021-08-06T09:52:08Z</time>
      </trkpt>
      <trkpt lat="45.19166" lon="3.38052">
        <ele>466.9</ele>
        <time>2021-08-06T09:52:10Z</time>
      </trkpt>
      <trkpt lat="45.19162" lon="3.38027">
        <ele>468.5</ele>
        <time>2021-08-06T09:52:12Z</time>
      </trkpt>
      <trkpt lat="45.19159" lon="3.38003">
        <ele>470</ele>
        <time>2021-08-06T09:52:14Z</time>
      </trkpt>
      <trkpt lat="45.19152" lon="3.37983">
        <ele>470.8</ele>
        <time>2021-08-06T09:52:16Z</time>
      </trkpt>
      <trkpt lat="45.1914" lon="3.37967">
        <ele>472.1</ele>
        <time>2021-08-06T09:52:18Z</time>
      </trkpt>
      <trkpt lat="45.19126" lon="3.37957">
        <ele>473.8</ele>
        <time>2021-08-06T09:52:20Z</time>
      </trkpt>
      <trkpt lat="45.19111" lon="3.3796">
        <ele>474.9</ele>
        <time>2021-08-06T09:52:22Z</time>
      </trkpt>
      <trkpt lat="45.19097" lon="3.37965">
        <ele>475.5</ele>
        <time>2021-08-06T09:52:24Z</time>
      </trkpt>
      <trkpt lat="45.19086" lon="3.37977">
        <ele>474.8</ele>
        <time>2021-08-06T09:52:26Z</time>
      </trkpt>
      <trkpt lat="45.19078" lon="3.37993">
        <ele>474.5</ele>
        <time>2021-08-06T09:52:28Z</time>
      </trkpt>
      <trkpt lat="45.19074" lon="3.3801">
        <ele>473.8</ele>
        <time>2021-08-06T09:52:30Z</time>
      </trkpt>
      <trkpt lat="45.19074" lon="3.38025">
        <ele>472.9</ele>
        <time>2021-08-06T09:52:32Z</time>
      </trkpt>
      <trkpt lat="45.19074" lon="3.38038">
        <ele>472.1</ele>
        <time>2021-08-06T09:52:34Z</time>
      </trkpt>
      <trkpt lat="45.19072" lon="3.3805">
        <ele>471.5</ele>
        <time>2021-08-06T09:52:36Z</time>
      </trkpt>
      <trkpt lat="45.1907" lon="3.38061">
        <ele>471.2</ele>
        <time>2021-08-06T09:52:38Z</time>
      </trkpt>
      <trkpt lat="45.19069" lon="3.38072">
        <ele>470.8</ele>
        <time>2021-08-06T09:52:40Z</time>
      </trkpt>
      <trkpt lat="45.19067" lon="3.38081">
        <ele>470.5</ele>
        <time>2021-08-06T09:52:42Z</time>
      </trkpt>
      <trkpt lat="45.19065" lon="3.3809">
        <ele>470.3</ele>
        <time>2021-08-06T09:52:44Z</time>
      </trkpt>
      <trkpt lat="45.19062" lon="3.38097">
        <ele>470.2</ele>
        <time>2021-08-06T09:52:46Z</time>
      </trkpt>
      <trkpt lat="45.1906" lon="3.38104">
        <ele>470.1</ele>
        <time>2021-08-06T09:52:48Z</time>
      </trkpt>
      <trkpt lat="45.19057" lon="3.38113">
        <ele>470.1</ele>
        <time>2021-08-06T09:52:50Z</time>
      </trkpt>
      <trkpt lat="45.19053" lon="3.38121">
        <ele>470.1</ele>
        <time>2021-08-06T09:52:52Z</time>
      </trkpt>
      <trkpt lat="45.19051" lon="3.38129">
        <ele>470</ele>
        <time>2021-08-06T09:52:54Z</time>
      </trkpt>
      <trkpt lat="45.19048" lon="3.38137">
        <ele>469.9</ele>
        <time>2021-08-06T09:52:56Z</time>
      </trkpt>
      <trkpt lat="45.19045" lon="3.38144">
        <ele>469.8</ele>
        <time>2021-08-06T09:52:58Z</time>
      </trkpt>
      <trkpt lat="45.19042" lon="3.38152">
        <ele>469.7</ele>
        <time>2021-08-06T09:53:00Z</time>
      </trkpt>
      <trkpt lat="45.19039" lon="3.3816">
        <ele>469.6</ele>
        <time>2021-08-06T09:53:02Z</time>
      </trkpt>
      <trkpt lat="45.19036" lon="3.38167">
        <ele>469.5</ele>
        <time>2021-08-06T09:53:04Z</time>
      </trkpt>
      <trkpt lat="45.19034" lon="3.38174">
        <ele>469.8</ele>
        <time>2021-08-06T09:53:06Z</time>
      </trkpt>
      <trkpt lat="45.19031" lon="3.38181">
        <ele>470.1</ele>
        <time>2021-08-06T09:53:08Z</time>
      </trkpt>
      <trkpt lat="45.19029" lon="3.38189">
        <ele>470.4</ele>
        <time>2021-08-06T09:53:10Z</time>
      </trkpt>
      <trkpt lat="45.19026" lon="3.38196">
        <ele>470.8</ele>
        <time>2021-08-06T09:53:12Z</time>
      </trkpt>
      <trkpt lat="45.19023" lon="3.38202">
        <ele>471.2</ele>
        <time>2021-08-06T09:53:14Z</time>
      </trkpt>
      <trkpt lat="45.19021" lon="3.38209">
        <ele>471.5</ele>
        <time>2021-08-06T09:53:16Z</time>
      </trkpt>
      <trkpt lat="45.19018" lon="3.38216">
        <ele>471.9</ele>
        <time>2021-08-06T09:53:18Z</time>
      </trkpt>
      <trkpt lat="45.19015" lon="3.38223">
        <ele>472.4</ele>
        <time>2021-08-06T09:53:20Z</time>
      </trkpt>
      <trkpt lat="45.19013" lon="3.3823">
        <ele>472.7</ele>
        <time>2021-08-06T09:53:22Z</time>
      </trkpt>
      <trkpt lat="45.1901" lon="3.38237">
        <ele>473.2</ele>
        <time>2021-08-06T09:53:24Z</time>
      </trkpt>
      <trkpt lat="45.19007" lon="3.38244">
        <ele>473.6</ele>
        <time>2021-08-06T09:53:26Z</time>
      </trkpt>
      <trkpt lat="45.19004" lon="3.38252">
        <ele>474.1</ele>
        <time>2021-08-06T09:53:28Z</time>
      </trkpt>
      <trkpt lat="45.19002" lon="3.38259">
        <ele>474.5</ele>
        <time>2021-08-06T09:53:30Z</time>
      </trkpt>
      <trkpt lat="45.18999" lon="3.38266">
        <ele>474.7</ele>
        <time>2021-08-06T09:53:32Z</time>
      </trkpt>
      <trkpt lat="45.18997" lon="3.38273">
        <ele>474.9</ele>
        <time>2021-08-06T09:53:34Z</time>
      </trkpt>
      <trkpt lat="45.18993" lon="3.38281">
        <ele>475.1</ele>
        <time>2021-08-06T09:53:36Z</time>
      </trkpt>
      <trkpt lat="45.18991" lon="3.38288">
        <ele>475.2</ele>
        <time>2021-08-06T09:53:38Z</time>
      </trkpt>
      <trkpt lat="45.18988" lon="3.38295">
        <ele>475.4</ele>
        <time>2021-08-06T09:53:40Z</time>
      </trkpt>
      <trkpt lat="45.18986" lon="3.38302">
        <ele>475.5</ele>
        <time>2021-08-06T09:53:42Z</time>
      </trkpt>
      <trkpt lat="45.18983" lon="3.38309">
        <ele>475.7</ele>
        <time>2021-08-06T09:53:44Z</time>
      </trkpt>
      <trkpt lat="45.18981" lon="3.38316">
        <ele>475.9</ele>
        <time>2021-08-06T09:53:46Z</time>
      </trkpt>
      <trkpt lat="45.18978" lon="3.38323">
        <ele>476.1</ele>
        <time>2021-08-06T09:53:48Z</time>
      </trkpt>
      <trkpt lat="45.18975" lon="3.38331">
        <ele>476.3</ele>
        <time>2021-08-06T09:53:50Z</time>
      </trkpt>
      <trkpt lat="45.18972" lon="3.38338">
        <ele>476.4</ele>
        <time>2021-08-06T09:53:52Z</time>
      </trkpt>
      <trkpt lat="45.1897" lon="3.38345">
        <ele>476.5</ele>
        <time>2021-08-06T09:53:54Z</time>
      </trkpt>
      <trkpt lat="45.18967" lon="3.38353">
        <ele>476.6</ele>
        <time>2021-08-06T09:53:56Z</time>
      </trkpt>
      <trkpt lat="45.18964" lon="3.3836">
        <ele>476.7</ele>
        <time>2021-08-06T09:53:58Z</time>
      </trkpt>
      <trkpt lat="45.18962" lon="3.38367">
        <ele>476.8</ele>
        <time>2021-08-06T09:54:00Z</time>
      </trkpt>
      <trkpt lat="45.18959" lon="3.38374">
        <ele>476.9</ele>
        <time>2021-08-06T09:54:02Z</time>
      </trkpt>
      <trkpt lat="45.18956" lon="3.38382">
        <ele>477.1</ele>
        <time>2021-08-06T09:54:04Z</time>
      </trkpt>
      <trkpt lat="45.18954" lon="3.38388">
        <ele>477.2</ele>
        <time>2021-08-06T09:54:06Z</time>
      </trkpt>
      <trkpt lat="45.18951" lon="3.38395">
        <ele>477.4</ele>
        <time>2021-08-06T09:54:08Z</time>
      </trkpt>
      <trkpt lat="45.18948" lon="3.38402">
        <ele>477.6</ele>
        <time>2021-08-06T09:54:10Z</time>
      </trkpt>
      <trkpt lat="45.18945" lon="3.38408">
        <ele>477.9</ele>
        <time>2021-08-06T09:54:12Z</time>
      </trkpt>
      <trkpt lat="45.18941" lon="3.38414">
        <ele>478.2</ele>
        <time>2021-08-06T09:54:14Z</time>
      </trkpt>
      <trkpt lat="45.18938" lon="3.3842">
        <ele>478.4</ele>
        <time>2021-08-06T09:54:16Z</time>
      </trkpt>
      <trkpt lat="45.18934" lon="3.38426">
        <ele>478.6</ele>
        <time>2021-08-06T09:54:18Z</time>
      </trkpt>
      <trkpt lat="45.1893" lon="3.38431">
        <ele>478.9</ele>
        <time>2021-08-06T09:54:20Z</time>
      </trkpt>
      <trkpt lat="45.18925" lon="3.38437">
        <ele>479.2</ele>
        <time>2021-08-06T09:54:22Z</time>
      </trkpt>
      <trkpt lat="45.1892" lon="3.38441">
        <ele>479.7</ele>
        <time>2021-08-06T09:54:24Z</time>
      </trkpt>
      <trkpt lat="45.18915" lon="3.38446">
        <ele>480</ele>
        <time>2021-08-06T09:54:26Z</time>
      </trkpt>
      <trkpt lat="45.1891" lon="3.38449">
        <ele>479.9</ele>
        <time>2021-08-06T09:54:28Z</time>
      </trkpt>
      <trkpt lat="45.18904" lon="3.38453">
        <ele>479.8</ele>
        <time>2021-08-06T09:54:30Z</time>
      </trkpt>
      <trkpt lat="45.18898" lon="3.38456">
        <ele>479.9</ele>
        <time>2021-08-06T09:54:32Z</time>
      </trkpt>
      <trkpt lat="45.18892" lon="3.38458">
        <ele>479.9</ele>
        <time>2021-08-06T09:54:34Z</time>
      </trkpt>
      <trkpt lat="45.18886" lon="3.38459">
        <ele>480.1</ele>
        <time>2021-08-06T09:54:36Z</time>
      </trkpt>
      <trkpt lat="45.1888" lon="3.38461">
        <ele>480.2</ele>
        <time>2021-08-06T09:54:38Z</time>
      </trkpt>
      <trkpt lat="45.18874" lon="3.38462">
        <ele>480.3</ele>
        <time>2021-08-06T09:54:40Z</time>
      </trkpt>
      <trkpt lat="45.18868" lon="3.38462">
        <ele>480.5</ele>
        <time>2021-08-06T09:54:42Z</time>
      </trkpt>
      <trkpt lat="45.18861" lon="3.38463">
        <ele>480.7</ele>
        <time>2021-08-06T09:54:44Z</time>
      </trkpt>
      <trkpt lat="45.18855" lon="3.38464">
        <ele>480.9</ele>
        <time>2021-08-06T09:54:46Z</time>
      </trkpt>
      <trkpt lat="45.18849" lon="3.38465">
        <ele>481.1</ele>
        <time>2021-08-06T09:54:48Z</time>
      </trkpt>
      <trkpt lat="45.18843" lon="3.38465">
        <ele>481.3</ele>
        <time>2021-08-06T09:54:50Z</time>
      </trkpt>
      <trkpt lat="45.18837" lon="3.38466">
        <ele>481.5</ele>
        <time>2021-08-06T09:54:52Z</time>
      </trkpt>
      <trkpt lat="45.1883" lon="3.38467">
        <ele>481.7</ele>
        <time>2021-08-06T09:54:54Z</time>
      </trkpt>
      <trkpt lat="45.18824" lon="3.38467">
        <ele>482</ele>
        <time>2021-08-06T09:54:56Z</time>
      </trkpt>
      <trkpt lat="45.18817" lon="3.38468">
        <ele>482.2</ele>
        <time>2021-08-06T09:54:58Z</time>
      </trkpt>
      <trkpt lat="45.18811" lon="3.38468">
        <ele>482.5</ele>
        <time>2021-08-06T09:55:00Z</time>
      </trkpt>
      <trkpt lat="45.18805" lon="3.38469">
        <ele>482.7</ele>
        <time>2021-08-06T09:55:02Z</time>
      </trkpt>
      <trkpt lat="45.18798" lon="3.38471">
        <ele>483</ele>
        <time>2021-08-06T09:55:04Z</time>
      </trkpt>
      <trkpt lat="45.18792" lon="3.38471">
        <ele>483.2</ele>
        <time>2021-08-06T09:55:06Z</time>
      </trkpt>
      <trkpt lat="45.18785" lon="3.38471">
        <ele>483.5</ele>
        <time>2021-08-06T09:55:08Z</time>
      </trkpt>
      <trkpt lat="45.18779" lon="3.38473">
        <ele>483.7</ele>
        <time>2021-08-06T09:55:10Z</time>
      </trkpt>
      <trkpt lat="45.18772" lon="3.38474">
        <ele>484</ele>
        <time>2021-08-06T09:55:12Z</time>
      </trkpt>
      <trkpt lat="45.18766" lon="3.38475">
        <ele>484.2</ele>
        <time>2021-08-06T09:55:14Z</time>
      </trkpt>
      <trkpt lat="45.1876" lon="3.38475">
        <ele>484.5</ele>
        <time>2021-08-06T09:55:16Z</time>
      </trkpt>
      <trkpt lat="45.18753" lon="3.38476">
        <ele>484.7</ele>
        <time>2021-08-06T09:55:18Z</time>
      </trkpt>
      <trkpt lat="45.18746" lon="3.38477">
        <ele>484.9</ele>
        <time>2021-08-06T09:55:20Z</time>
      </trkpt>
      <trkpt lat="45.1874" lon="3.38477">
        <ele>485</ele>
        <time>2021-08-06T09:55:22Z</time>
      </trkpt>
      <trkpt lat="45.18733" lon="3.38478">
        <ele>485.1</ele>
        <time>2021-08-06T09:55:24Z</time>
      </trkpt>
      <trkpt lat="45.18727" lon="3.38479">
        <ele>485.2</ele>
        <time>2021-08-06T09:55:26Z</time>
      </trkpt>
      <trkpt lat="45.1872" lon="3.3848">
        <ele>485.3</ele>
        <time>2021-08-06T09:55:28Z</time>
      </trkpt>
      <trkpt lat="45.18714" lon="3.3848">
        <ele>485.4</ele>
        <time>2021-08-06T09:55:30Z</time>
      </trkpt>
      <trkpt lat="45.18708" lon="3.38482">
        <ele>485.5</ele>
        <time>2021-08-06T09:55:32Z</time>
      </trkpt>
      <trkpt lat="45.18702" lon="3.38482">
        <ele>485.6</ele>
        <time>2021-08-06T09:55:34Z</time>
      </trkpt>
      <trkpt lat="45.18696" lon="3.38482">
        <ele>485.7</ele>
        <time>2021-08-06T09:55:36Z</time>
      </trkpt>
      <trkpt lat="45.1869" lon="3.38483">
        <ele>485.7</ele>
        <time>2021-08-06T09:55:38Z</time>
      </trkpt>
      <trkpt lat="45.18684" lon="3.38484">
        <ele>485.8</ele>
        <time>2021-08-06T09:55:40Z</time>
      </trkpt>
      <trkpt lat="45.18679" lon="3.38485">
        <ele>485.9</ele>
        <time>2021-08-06T09:55:42Z</time>
      </trkpt>
      <trkpt lat="45.18673" lon="3.38486">
        <ele>485.9</ele>
        <time>2021-08-06T09:55:44Z</time>
      </trkpt>
      <trkpt lat="45.18667" lon="3.38487">
        <ele>486</ele>
        <time>2021-08-06T09:55:46Z</time>
      </trkpt>
      <trkpt lat="45.18662" lon="3.38487">
        <ele>486.2</ele>
        <time>2021-08-06T09:55:48Z</time>
      </trkpt>
      <trkpt lat="45.18657" lon="3.38488">
        <ele>486.5</ele>
        <time>2021-08-06T09:55:50Z</time>
      </trkpt>
      <trkpt lat="45.18651" lon="3.38489">
        <ele>486.8</ele>
        <time>2021-08-06T09:55:52Z</time>
      </trkpt>
      <trkpt lat="45.18646" lon="3.3849">
        <ele>487.1</ele>
        <time>2021-08-06T09:55:54Z</time>
      </trkpt>
      <trkpt lat="45.1864" lon="3.38491">
        <ele>487.3</ele>
        <time>2021-08-06T09:55:56Z</time>
      </trkpt>
      <trkpt lat="45.18634" lon="3.38493">
        <ele>487.6</ele>
        <time>2021-08-06T09:55:58Z</time>
      </trkpt>
      <trkpt lat="45.18629" lon="3.38494">
        <ele>487.8</ele>
        <time>2021-08-06T09:56:00Z</time>
      </trkpt>
      <trkpt lat="45.18623" lon="3.38495">
        <ele>488</ele>
        <time>2021-08-06T09:56:02Z</time>
      </trkpt>
      <trkpt lat="45.18618" lon="3.38497">
        <ele>488.2</ele>
        <time>2021-08-06T09:56:04Z</time>
      </trkpt>
      <trkpt lat="45.18612" lon="3.38499">
        <ele>488.3</ele>
        <time>2021-08-06T09:56:06Z</time>
      </trkpt>
      <trkpt lat="45.18606" lon="3.38501">
        <ele>488.6</ele>
        <time>2021-08-06T09:56:08Z</time>
      </trkpt>
      <trkpt lat="45.186" lon="3.38503">
        <ele>488.9</ele>
        <time>2021-08-06T09:56:10Z</time>
      </trkpt>
      <trkpt lat="45.18594" lon="3.38505">
        <ele>489.2</ele>
        <time>2021-08-06T09:56:12Z</time>
      </trkpt>
      <trkpt lat="45.18589" lon="3.38507">
        <ele>489.4</ele>
        <time>2021-08-06T09:56:14Z</time>
      </trkpt>
      <trkpt lat="45.18584" lon="3.38509">
        <ele>489.6</ele>
        <time>2021-08-06T09:56:16Z</time>
      </trkpt>
      <trkpt lat="45.18579" lon="3.38511">
        <ele>489.8</ele>
        <time>2021-08-06T09:56:18Z</time>
      </trkpt>
      <trkpt lat="45.18574" lon="3.38514">
        <ele>489.9</ele>
        <time>2021-08-06T09:56:20Z</time>
      </trkpt>
      <trkpt lat="45.18568" lon="3.38516">
        <ele>490.1</ele>
        <time>2021-08-06T09:56:22Z</time>
      </trkpt>
      <trkpt lat="45.18563" lon="3.38519">
        <ele>490.2</ele>
        <time>2021-08-06T09:56:24Z</time>
      </trkpt>
      <trkpt lat="45.18556" lon="3.38521">
        <ele>490.4</ele>
        <time>2021-08-06T09:56:26Z</time>
      </trkpt>
      <trkpt lat="45.1855" lon="3.38524">
        <ele>490.5</ele>
        <time>2021-08-06T09:56:28Z</time>
      </trkpt>
      <trkpt lat="45.18544" lon="3.38528">
        <ele>490.6</ele>
        <time>2021-08-06T09:56:30Z</time>
      </trkpt>
      <trkpt lat="45.18538" lon="3.38531">
        <ele>490.7</ele>
        <time>2021-08-06T09:56:32Z</time>
      </trkpt>
      <trkpt lat="45.18531" lon="3.38534">
        <ele>490.8</ele>
        <time>2021-08-06T09:56:34Z</time>
      </trkpt>
      <trkpt lat="45.18525" lon="3.38538">
        <ele>490.8</ele>
        <time>2021-08-06T09:56:36Z</time>
      </trkpt>
      <trkpt lat="45.1852" lon="3.38541">
        <ele>490.8</ele>
        <time>2021-08-06T09:56:38Z</time>
      </trkpt>
      <trkpt lat="45.18514" lon="3.38544">
        <ele>490.8</ele>
        <time>2021-08-06T09:56:40Z</time>
      </trkpt>
      <trkpt lat="45.18509" lon="3.38547">
        <ele>490.9</ele>
        <time>2021-08-06T09:56:42Z</time>
      </trkpt>
      <trkpt lat="45.18503" lon="3.3855">
        <ele>490.9</ele>
        <time>2021-08-06T09:56:44Z</time>
      </trkpt>
      <trkpt lat="45.18497" lon="3.38554">
        <ele>491</ele>
        <time>2021-08-06T09:56:46Z</time>
      </trkpt>
      <trkpt lat="45.18492" lon="3.38557">
        <ele>491.2</ele>
        <time>2021-08-06T09:56:48Z</time>
      </trkpt>
      <trkpt lat="45.18486" lon="3.3856">
        <ele>491.4</ele>
        <time>2021-08-06T09:56:50Z</time>
      </trkpt>
      <trkpt lat="45.18481" lon="3.38564">
        <ele>491.6</ele>
        <time>2021-08-06T09:56:52Z</time>
      </trkpt>
      <trkpt lat="45.18475" lon="3.38567">
        <ele>491.7</ele>
        <time>2021-08-06T09:56:54Z</time>
      </trkpt>
      <trkpt lat="45.18469" lon="3.38569">
        <ele>491.9</ele>
        <time>2021-08-06T09:56:56Z</time>
      </trkpt>
      <trkpt lat="45.18464" lon="3.38573">
        <ele>492</ele>
        <time>2021-08-06T09:56:58Z</time>
      </trkpt>
      <trkpt lat="45.18459" lon="3.38576">
        <ele>492</ele>
        <time>2021-08-06T09:57:00Z</time>
      </trkpt>
      <trkpt lat="45.18455" lon="3.38579">
        <ele>492.1</ele>
        <time>2021-08-06T09:57:02Z</time>
      </trkpt>
      <trkpt lat="45.1845" lon="3.38581">
        <ele>492.2</ele>
        <time>2021-08-06T09:57:04Z</time>
      </trkpt>
      <trkpt lat="45.18446" lon="3.38585">
        <ele>492.1</ele>
        <time>2021-08-06T09:57:06Z</time>
      </trkpt>
      <trkpt lat="45.1844" lon="3.38587">
        <ele>492.2</ele>
        <time>2021-08-06T09:57:08Z</time>
      </trkpt>
      <trkpt lat="45.18435" lon="3.3859">
        <ele>492.2</ele>
        <time>2021-08-06T09:57:10Z</time>
      </trkpt>
      <trkpt lat="45.18429" lon="3.38592">
        <ele>492.3</ele>
        <time>2021-08-06T09:57:12Z</time>
      </trkpt>
      <trkpt lat="45.18424" lon="3.38595">
        <ele>492.3</ele>
        <time>2021-08-06T09:57:14Z</time>
      </trkpt>
      <trkpt lat="45.18418" lon="3.38598">
        <ele>492.3</ele>
        <time>2021-08-06T09:57:16Z</time>
      </trkpt>
      <trkpt lat="45.18413" lon="3.38601">
        <ele>492.3</ele>
        <time>2021-08-06T09:57:18Z</time>
      </trkpt>
      <trkpt lat="45.1841" lon="3.38605">
        <ele>492.1</ele>
        <time>2021-08-06T09:57:20Z</time>
      </trkpt>
      <trkpt lat="45.18406" lon="3.38606">
        <ele>492.2</ele>
        <time>2021-08-06T09:57:22Z</time>
      </trkpt>
      <trkpt lat="45.18402" lon="3.38607">
        <ele>492.3</ele>
        <time>2021-08-06T09:57:24Z</time>
      </trkpt>
      <trkpt lat="45.18398" lon="3.3861">
        <ele>492.2</ele>
        <time>2021-08-06T09:57:26Z</time>
      </trkpt>
      <trkpt lat="45.18393" lon="3.38613">
        <ele>492.1</ele>
        <time>2021-08-06T09:57:28Z</time>
      </trkpt>
      <trkpt lat="45.18387" lon="3.38616">
        <ele>492.1</ele>
        <time>2021-08-06T09:57:30Z</time>
      </trkpt>
      <trkpt lat="45.18382" lon="3.3862">
        <ele>492</ele>
        <time>2021-08-06T09:57:32Z</time>
      </trkpt>
      <trkpt lat="45.18376" lon="3.38623">
        <ele>492</ele>
        <time>2021-08-06T09:57:34Z</time>
      </trkpt>
      <trkpt lat="45.1837" lon="3.38626">
        <ele>491.9</ele>
        <time>2021-08-06T09:57:36Z</time>
      </trkpt>
      <trkpt lat="45.18364" lon="3.38629">
        <ele>491.8</ele>
        <time>2021-08-06T09:57:38Z</time>
      </trkpt>
      <trkpt lat="45.18358" lon="3.38632">
        <ele>491.8</ele>
        <time>2021-08-06T09:57:40Z</time>
      </trkpt>
      <trkpt lat="45.18352" lon="3.38635">
        <ele>491.8</ele>
        <time>2021-08-06T09:57:42Z</time>
      </trkpt>
      <trkpt lat="45.18346" lon="3.38639">
        <ele>491.6</ele>
        <time>2021-08-06T09:57:44Z</time>
      </trkpt>
      <trkpt lat="45.18339" lon="3.38643">
        <ele>491.5</ele>
        <time>2021-08-06T09:57:46Z</time>
      </trkpt>
      <trkpt lat="45.18333" lon="3.38646">
        <ele>491.5</ele>
        <time>2021-08-06T09:57:48Z</time>
      </trkpt>
      <trkpt lat="45.18326" lon="3.3865">
        <ele>491.4</ele>
        <time>2021-08-06T09:57:50Z</time>
      </trkpt>
      <trkpt lat="45.1832" lon="3.38653">
        <ele>491.3</ele>
        <time>2021-08-06T09:57:52Z</time>
      </trkpt>
      <trkpt lat="45.18314" lon="3.38657">
        <ele>491.1</ele>
        <time>2021-08-06T09:57:54Z</time>
      </trkpt>
      <trkpt lat="45.18308" lon="3.38661">
        <ele>491</ele>
        <time>2021-08-06T09:57:56Z</time>
      </trkpt>
      <trkpt lat="45.18301" lon="3.38664">
        <ele>490.9</ele>
        <time>2021-08-06T09:57:58Z</time>
      </trkpt>
      <trkpt lat="45.18295" lon="3.38668">
        <ele>490.7</ele>
        <time>2021-08-06T09:58:00Z</time>
      </trkpt>
      <trkpt lat="45.18289" lon="3.38671">
        <ele>490.5</ele>
        <time>2021-08-06T09:58:02Z</time>
      </trkpt>
      <trkpt lat="45.18282" lon="3.38675">
        <ele>490.2</ele>
        <time>2021-08-06T09:58:04Z</time>
      </trkpt>
      <trkpt lat="45.18276" lon="3.38679">
        <ele>489.8</ele>
        <time>2021-08-06T09:58:06Z</time>
      </trkpt>
      <trkpt lat="45.18269" lon="3.38683">
        <ele>489.4</ele>
        <time>2021-08-06T09:58:08Z</time>
      </trkpt>
      <trkpt lat="45.18261" lon="3.38687">
        <ele>488.9</ele>
        <time>2021-08-06T09:58:10Z</time>
      </trkpt>
      <trkpt lat="45.18254" lon="3.38691">
        <ele>488.4</ele>
        <time>2021-08-06T09:58:12Z</time>
      </trkpt>
      <trkpt lat="45.18247" lon="3.38696">
        <ele>487.8</ele>
        <time>2021-08-06T09:58:14Z</time>
      </trkpt>
      <trkpt lat="45.18239" lon="3.387">
        <ele>487</ele>
        <time>2021-08-06T09:58:16Z</time>
      </trkpt>
      <trkpt lat="45.18232" lon="3.38705">
        <ele>486.1</ele>
        <time>2021-08-06T09:58:18Z</time>
      </trkpt>
      <trkpt lat="45.18223" lon="3.38709">
        <ele>485.2</ele>
        <time>2021-08-06T09:58:20Z</time>
      </trkpt>
      <trkpt lat="45.18215" lon="3.38714">
        <ele>484.2</ele>
        <time>2021-08-06T09:58:22Z</time>
      </trkpt>
      <trkpt lat="45.18206" lon="3.38719">
        <ele>483.1</ele>
        <time>2021-08-06T09:58:24Z</time>
      </trkpt>
      <trkpt lat="45.18197" lon="3.38724">
        <ele>482.1</ele>
        <time>2021-08-06T09:58:26Z</time>
      </trkpt>
      <trkpt lat="45.18187" lon="3.38728">
        <ele>481</ele>
        <time>2021-08-06T09:58:28Z</time>
      </trkpt>
      <trkpt lat="45.18175" lon="3.38732">
        <ele>479.9</ele>
        <time>2021-08-06T09:58:30Z</time>
      </trkpt>
      <trkpt lat="45.18163" lon="3.38733">
        <ele>479.4</ele>
        <time>2021-08-06T09:58:32Z</time>
      </trkpt>
      <trkpt lat="45.18151" lon="3.38732">
        <ele>479</ele>
        <time>2021-08-06T09:58:34Z</time>
      </trkpt>
      <trkpt lat="45.1814" lon="3.38727">
        <ele>479.2</ele>
        <time>2021-08-06T09:58:36Z</time>
      </trkpt>
      <trkpt lat="45.1813" lon="3.38719">
        <ele>479.9</ele>
        <time>2021-08-06T09:58:38Z</time>
      </trkpt>
      <trkpt lat="45.1812" lon="3.38707">
        <ele>481</ele>
        <time>2021-08-06T09:58:40Z</time>
      </trkpt>
      <trkpt lat="45.18111" lon="3.38694">
        <ele>482</ele>
        <time>2021-08-06T09:58:42Z</time>
      </trkpt>
      <trkpt lat="45.18102" lon="3.3868">
        <ele>483</ele>
        <time>2021-08-06T09:58:44Z</time>
      </trkpt>
      <trkpt lat="45.18095" lon="3.38664">
        <ele>484</ele>
        <time>2021-08-06T09:58:46Z</time>
      </trkpt>
      <trkpt lat="45.18086" lon="3.38649">
        <ele>485.3</ele>
        <time>2021-08-06T09:58:48Z</time>
      </trkpt>
      <trkpt lat="45.18076" lon="3.38636">
        <ele>487</ele>
        <time>2021-08-06T09:58:50Z</time>
      </trkpt>
      <trkpt lat="45.18065" lon="3.38625">
        <ele>488.4</ele>
        <time>2021-08-06T09:58:52Z</time>
      </trkpt>
      <trkpt lat="45.18053" lon="3.38616">
        <ele>489</ele>
        <time>2021-08-06T09:58:54Z</time>
      </trkpt>
      <trkpt lat="45.1804" lon="3.38609">
        <ele>489.2</ele>
        <time>2021-08-06T09:58:56Z</time>
      </trkpt>
      <trkpt lat="45.18027" lon="3.38602">
        <ele>489</ele>
        <time>2021-08-06T09:58:58Z</time>
      </trkpt>
      <trkpt lat="45.18015" lon="3.38595">
        <ele>488.6</ele>
        <time>2021-08-06T09:59:00Z</time>
      </trkpt>
      <trkpt lat="45.18003" lon="3.38589">
        <ele>487.9</ele>
        <time>2021-08-06T09:59:02Z</time>
      </trkpt>
      <trkpt lat="45.17991" lon="3.3859">
        <ele>490.2</ele>
        <time>2021-08-06T09:59:04Z</time>
      </trkpt>
      <trkpt lat="45.1798" lon="3.38599">
        <ele>492.7</ele>
        <time>2021-08-06T09:59:06Z</time>
      </trkpt>
      <trkpt lat="45.17973" lon="3.38613">
        <ele>494.7</ele>
        <time>2021-08-06T09:59:08Z</time>
      </trkpt>
      <trkpt lat="45.17973" lon="3.38628">
        <ele>494.6</ele>
        <time>2021-08-06T09:59:10Z</time>
      </trkpt>
      <trkpt lat="45.17977" lon="3.38641">
        <ele>493.5</ele>
        <time>2021-08-06T09:59:12Z</time>
      </trkpt>
      <trkpt lat="45.17981" lon="3.38651">
        <ele>491.6</ele>
        <time>2021-08-06T09:59:14Z</time>
      </trkpt>
      <trkpt lat="45.17987" lon="3.38659">
        <ele>489.3</ele>
        <time>2021-08-06T09:59:16Z</time>
      </trkpt>
      <trkpt lat="45.17994" lon="3.38665">
        <ele>486.6</ele>
        <time>2021-08-06T09:59:18Z</time>
      </trkpt>
      <trkpt lat="45.18" lon="3.3867">
        <ele>484.1</ele>
        <time>2021-08-06T09:59:20Z</time>
      </trkpt>
      <trkpt lat="45.18007" lon="3.38675">
        <ele>484</ele>
        <time>2021-08-06T09:59:22Z</time>
      </trkpt>
      <trkpt lat="45.18012" lon="3.38681">
        <ele>483.9</ele>
        <time>2021-08-06T09:59:24Z</time>
      </trkpt>
      <trkpt lat="45.18018" lon="3.38687">
        <ele>483.7</ele>
        <time>2021-08-06T09:59:26Z</time>
      </trkpt>
      <trkpt lat="45.18022" lon="3.38695">
        <ele>483.4</ele>
        <time>2021-08-06T09:59:28Z</time>
      </trkpt>
      <trkpt lat="45.18026" lon="3.38703">
        <ele>483</ele>
        <time>2021-08-06T09:59:30Z</time>
      </trkpt>
      <trkpt lat="45.18028" lon="3.38712">
        <ele>482.7</ele>
        <time>2021-08-06T09:59:32Z</time>
      </trkpt>
      <trkpt lat="45.1803" lon="3.38722">
        <ele>482.4</ele>
        <time>2021-08-06T09:59:34Z</time>
      </trkpt>
      <trkpt lat="45.18029" lon="3.38732">
        <ele>482.4</ele>
        <time>2021-08-06T09:59:36Z</time>
      </trkpt>
      <trkpt lat="45.18027" lon="3.38741">
        <ele>482.6</ele>
        <time>2021-08-06T09:59:38Z</time>
      </trkpt>
      <trkpt lat="45.18024" lon="3.38749">
        <ele>483.1</ele>
        <time>2021-08-06T09:59:40Z</time>
      </trkpt>
      <trkpt lat="45.18019" lon="3.38756">
        <ele>482.6</ele>
        <time>2021-08-06T09:59:42Z</time>
      </trkpt>
      <trkpt lat="45.18013" lon="3.38762">
        <ele>482.1</ele>
        <time>2021-08-06T09:59:44Z</time>
      </trkpt>
      <trkpt lat="45.18007" lon="3.38766">
        <ele>482.2</ele>
        <time>2021-08-06T09:59:46Z</time>
      </trkpt>
      <trkpt lat="45.18" lon="3.38768">
        <ele>482.9</ele>
        <time>2021-08-06T09:59:48Z</time>
      </trkpt>
      <trkpt lat="45.17993" lon="3.3877">
        <ele>484.5</ele>
        <time>2021-08-06T09:59:50Z</time>
      </trkpt>
      <trkpt lat="45.17985" lon="3.38771">
        <ele>486.4</ele>
        <time>2021-08-06T09:59:52Z</time>
      </trkpt>
      <trkpt lat="45.17977" lon="3.38772">
        <ele>488.2</ele>
        <time>2021-08-06T09:59:54Z</time>
      </trkpt>
      <trkpt lat="45.1797" lon="3.38774">
        <ele>490</ele>
        <time>2021-08-06T09:59:56Z</time>
      </trkpt>
      <trkpt lat="45.17962" lon="3.38778">
        <ele>491.3</ele>
        <time>2021-08-06T09:59:58Z</time>
      </trkpt>
      <trkpt lat="45.17954" lon="3.38782">
        <ele>492.3</ele>
        <time>2021-08-06T10:00:00Z</time>
      </trkpt>
      <trkpt lat="45.17946" lon="3.38788">
        <ele>493</ele>
        <time>2021-08-06T10:00:02Z</time>
      </trkpt>
      <trkpt lat="45.17939" lon="3.38796">
        <ele>493</ele>
        <time>2021-08-06T10:00:04Z</time>
      </trkpt>
      <trkpt lat="45.17932" lon="3.38803">
        <ele>493</ele>
        <time>2021-08-06T10:00:06Z</time>
      </trkpt>
      <trkpt lat="45.17927" lon="3.38811">
        <ele>492.3</ele>
        <time>2021-08-06T10:00:08Z</time>
      </trkpt>
      <trkpt lat="45.17922" lon="3.3882">
        <ele>491.2</ele>
        <time>2021-08-06T10:00:10Z</time>
      </trkpt>
      <trkpt lat="45.17917" lon="3.3883">
        <ele>489.8</ele>
        <time>2021-08-06T10:00:12Z</time>
      </trkpt>
      <trkpt lat="45.17913" lon="3.3884">
        <ele>489.1</ele>
        <time>2021-08-06T10:00:14Z</time>
      </trkpt>
      <trkpt lat="45.17909" lon="3.3885">
        <ele>488.5</ele>
        <time>2021-08-06T10:00:16Z</time>
      </trkpt>
      <trkpt lat="45.17905" lon="3.38861">
        <ele>487.7</ele>
        <time>2021-08-06T10:00:18Z</time>
      </trkpt>
      <trkpt lat="45.179" lon="3.38871">
        <ele>487</ele>
        <time>2021-08-06T10:00:20Z</time>
      </trkpt>
      <trkpt lat="45.17895" lon="3.3888">
        <ele>487</ele>
        <time>2021-08-06T10:00:22Z</time>
      </trkpt>
      <trkpt lat="45.17888" lon="3.38888">
        <ele>487.8</ele>
        <time>2021-08-06T10:00:24Z</time>
      </trkpt>
      <trkpt lat="45.1788" lon="3.38894">
        <ele>489.4</ele>
        <time>2021-08-06T10:00:26Z</time>
      </trkpt>
      <trkpt lat="45.17873" lon="3.38898">
        <ele>491.6</ele>
        <time>2021-08-06T10:00:28Z</time>
      </trkpt>
      <trkpt lat="45.17865" lon="3.38902">
        <ele>494</ele>
        <time>2021-08-06T10:00:30Z</time>
      </trkpt>
      <trkpt lat="45.17857" lon="3.38906">
        <ele>496.1</ele>
        <time>2021-08-06T10:00:32Z</time>
      </trkpt>
      <trkpt lat="45.17849" lon="3.38912">
        <ele>497.6</ele>
        <time>2021-08-06T10:00:34Z</time>
      </trkpt>
      <trkpt lat="45.17843" lon="3.38919">
        <ele>498.3</ele>
        <time>2021-08-06T10:00:36Z</time>
      </trkpt>
      <trkpt lat="45.17836" lon="3.38927">
        <ele>498.4</ele>
        <time>2021-08-06T10:00:38Z</time>
      </trkpt>
      <trkpt lat="45.1783" lon="3.38937">
        <ele>497.3</ele>
        <time>2021-08-06T10:00:40Z</time>
      </trkpt>
      <trkpt lat="45.17824" lon="3.38947">
        <ele>495.1</ele>
        <time>2021-08-06T10:00:42Z</time>
      </trkpt>
      <trkpt lat="45.17819" lon="3.38957">
        <ele>493.3</ele>
        <time>2021-08-06T10:00:44Z</time>
      </trkpt>
      <trkpt lat="45.17813" lon="3.38967">
        <ele>491.5</ele>
        <time>2021-08-06T10:00:46Z</time>
      </trkpt>
      <trkpt lat="45.17807" lon="3.38977">
        <ele>489.9</ele>
        <time>2021-08-06T10:00:48Z</time>
      </trkpt>
      <trkpt lat="45.17801" lon="3.38986">
        <ele>488.9</ele>
        <time>2021-08-06T10:00:50Z</time>
      </trkpt>
      <trkpt lat="45.17794" lon="3.38993">
        <ele>488.7</ele>
        <time>2021-08-06T10:00:52Z</time>
      </trkpt>
      <trkpt lat="45.17785" lon="3.38997">
        <ele>489.6</ele>
        <time>2021-08-06T10:00:54Z</time>
      </trkpt>
      <trkpt lat="45.17777" lon="3.38999">
        <ele>491.1</ele>
        <time>2021-08-06T10:00:56Z</time>
      </trkpt>
      <trkpt lat="45.17769" lon="3.39001">
        <ele>492.8</ele>
        <time>2021-08-06T10:00:58Z</time>
      </trkpt>
      <trkpt lat="45.17761" lon="3.39001">
        <ele>495</ele>
        <time>2021-08-06T10:01:00Z</time>
      </trkpt>
      <trkpt lat="45.17752" lon="3.39001">
        <ele>497.2</ele>
        <time>2021-08-06T10:01:02Z</time>
      </trkpt>
      <trkpt lat="45.17744" lon="3.39003">
        <ele>498.7</ele>
        <time>2021-08-06T10:01:04Z</time>
      </trkpt>
      <trkpt lat="45.17735" lon="3.39007">
        <ele>499.7</ele>
        <time>2021-08-06T10:01:06Z</time>
      </trkpt>
      <trkpt lat="45.17728" lon="3.39017">
        <ele>500.1</ele>
        <time>2021-08-06T10:01:08Z</time>
      </trkpt>
      <trkpt lat="45.17725" lon="3.39029">
        <ele>499.8</ele>
        <time>2021-08-06T10:01:10Z</time>
      </trkpt>
      <trkpt lat="45.17723" lon="3.39043">
        <ele>499.1</ele>
        <time>2021-08-06T10:01:12Z</time>
      </trkpt>
      <trkpt lat="45.17726" lon="3.39055">
        <ele>497.5</ele>
        <time>2021-08-06T10:01:14Z</time>
      </trkpt>
      <trkpt lat="45.1773" lon="3.39067">
        <ele>495.7</ele>
        <time>2021-08-06T10:01:16Z</time>
      </trkpt>
      <trkpt lat="45.17732" lon="3.39079">
        <ele>493.9</ele>
        <time>2021-08-06T10:01:18Z</time>
      </trkpt>
      <trkpt lat="45.17734" lon="3.3909">
        <ele>492.6</ele>
        <time>2021-08-06T10:01:20Z</time>
      </trkpt>
      <trkpt lat="45.17734" lon="3.39102">
        <ele>492</ele>
        <time>2021-08-06T10:01:22Z</time>
      </trkpt>
      <trkpt lat="45.17733" lon="3.39113">
        <ele>491.7</ele>
        <time>2021-08-06T10:01:24Z</time>
      </trkpt>
      <trkpt lat="45.17731" lon="3.39125">
        <ele>491.9</ele>
        <time>2021-08-06T10:01:26Z</time>
      </trkpt>
      <trkpt lat="45.17728" lon="3.39137">
        <ele>492.2</ele>
        <time>2021-08-06T10:01:28Z</time>
      </trkpt>
      <trkpt lat="45.17727" lon="3.39149">
        <ele>492.1</ele>
        <time>2021-08-06T10:01:30Z</time>
      </trkpt>
      <trkpt lat="45.17727" lon="3.39162">
        <ele>491.7</ele>
        <time>2021-08-06T10:01:32Z</time>
      </trkpt>
      <trkpt lat="45.17729" lon="3.39175">
        <ele>491.5</ele>
        <time>2021-08-06T10:01:34Z</time>
      </trkpt>
      <trkpt lat="45.17734" lon="3.39187">
        <ele>491</ele>
        <time>2021-08-06T10:01:36Z</time>
      </trkpt>
      <trkpt lat="45.17742" lon="3.39197">
        <ele>489.2</ele>
        <time>2021-08-06T10:01:38Z</time>
      </trkpt>
      <trkpt lat="45.17748" lon="3.39209">
        <ele>488.2</ele>
        <time>2021-08-06T10:01:40Z</time>
      </trkpt>
      <trkpt lat="45.17754" lon="3.39221">
        <ele>487.2</ele>
        <time>2021-08-06T10:01:42Z</time>
      </trkpt>
      <trkpt lat="45.17758" lon="3.39232">
        <ele>486.7</ele>
        <time>2021-08-06T10:01:44Z</time>
      </trkpt>
      <trkpt lat="45.17761" lon="3.39244">
        <ele>486.8</ele>
        <time>2021-08-06T10:01:46Z</time>
      </trkpt>
      <trkpt lat="45.17762" lon="3.39256">
        <ele>487.2</ele>
        <time>2021-08-06T10:01:48Z</time>
      </trkpt>
      <trkpt lat="45.17763" lon="3.39268">
        <ele>487.5</ele>
        <time>2021-08-06T10:01:50Z</time>
      </trkpt>
      <trkpt lat="45.17762" lon="3.39279">
        <ele>488.4</ele>
        <time>2021-08-06T10:01:52Z</time>
      </trkpt>
      <trkpt lat="45.17763" lon="3.39291">
        <ele>488.7</ele>
        <time>2021-08-06T10:01:54Z</time>
      </trkpt>
      <trkpt lat="45.17763" lon="3.39302">
        <ele>489.4</ele>
        <time>2021-08-06T10:01:56Z</time>
      </trkpt>
      <trkpt lat="45.17763" lon="3.39312">
        <ele>489.9</ele>
        <time>2021-08-06T10:01:58Z</time>
      </trkpt>
      <trkpt lat="45.17763" lon="3.39322">
        <ele>490.5</ele>
        <time>2021-08-06T10:02:00Z</time>
      </trkpt>
      <trkpt lat="45.17763" lon="3.39332">
        <ele>491</ele>
        <time>2021-08-06T10:02:02Z</time>
      </trkpt>
      <trkpt lat="45.17763" lon="3.39342">
        <ele>490.7</ele>
        <time>2021-08-06T10:02:04Z</time>
      </trkpt>
      <trkpt lat="45.17763" lon="3.39352">
        <ele>490.1</ele>
        <time>2021-08-06T10:02:06Z</time>
      </trkpt>
      <trkpt lat="45.17761" lon="3.39362">
        <ele>490</ele>
        <time>2021-08-06T10:02:08Z</time>
      </trkpt>
      <trkpt lat="45.1776" lon="3.39372">
        <ele>489.9</ele>
        <time>2021-08-06T10:02:10Z</time>
      </trkpt>
      <trkpt lat="45.17758" lon="3.39382">
        <ele>490</ele>
        <time>2021-08-06T10:02:12Z</time>
      </trkpt>
      <trkpt lat="45.17756" lon="3.39392">
        <ele>490.2</ele>
        <time>2021-08-06T10:02:14Z</time>
      </trkpt>
      <trkpt lat="45.17754" lon="3.39401">
        <ele>490.4</ele>
        <time>2021-08-06T10:02:16Z</time>
      </trkpt>
      <trkpt lat="45.17752" lon="3.3941">
        <ele>490.5</ele>
        <time>2021-08-06T10:02:18Z</time>
      </trkpt>
      <trkpt lat="45.1775" lon="3.39418">
        <ele>490.8</ele>
        <time>2021-08-06T10:02:20Z</time>
      </trkpt>
      <trkpt lat="45.17748" lon="3.39427">
        <ele>491.3</ele>
        <time>2021-08-06T10:02:22Z</time>
      </trkpt>
      <trkpt lat="45.17746" lon="3.39437">
        <ele>491.8</ele>
        <time>2021-08-06T10:02:24Z</time>
      </trkpt>
      <trkpt lat="45.17745" lon="3.39446">
        <ele>492.2</ele>
        <time>2021-08-06T10:02:26Z</time>
      </trkpt>
      <trkpt lat="45.17743" lon="3.39455">
        <ele>492.5</ele>
        <time>2021-08-06T10:02:28Z</time>
      </trkpt>
      <trkpt lat="45.17741" lon="3.39464">
        <ele>492.9</ele>
        <time>2021-08-06T10:02:30Z</time>
      </trkpt>
      <trkpt lat="45.17739" lon="3.39474">
        <ele>493.2</ele>
        <time>2021-08-06T10:02:32Z</time>
      </trkpt>
      <trkpt lat="45.17738" lon="3.39483">
        <ele>493.5</ele>
        <time>2021-08-06T10:02:34Z</time>
      </trkpt>
      <trkpt lat="45.17736" lon="3.39492">
        <ele>493.6</ele>
        <time>2021-08-06T10:02:36Z</time>
      </trkpt>
      <trkpt lat="45.17735" lon="3.39502">
        <ele>493.8</ele>
        <time>2021-08-06T10:02:38Z</time>
      </trkpt>
      <trkpt lat="45.17734" lon="3.39512">
        <ele>493.9</ele>
        <time>2021-08-06T10:02:40Z</time>
      </trkpt>
      <trkpt lat="45.17734" lon="3.39521">
        <ele>494.1</ele>
        <time>2021-08-06T10:02:42Z</time>
      </trkpt>
      <trkpt lat="45.17733" lon="3.39532">
        <ele>494</ele>
        <time>2021-08-06T10:02:44Z</time>
      </trkpt>
      <trkpt lat="45.17733" lon="3.39541">
        <ele>494.1</ele>
        <time>2021-08-06T10:02:46Z</time>
      </trkpt>
      <trkpt lat="45.17732" lon="3.39551">
        <ele>494.2</ele>
        <time>2021-08-06T10:02:48Z</time>
      </trkpt>
      <trkpt lat="45.17732" lon="3.3956">
        <ele>494.2</ele>
        <time>2021-08-06T10:02:50Z</time>
      </trkpt>
      <trkpt lat="45.17732" lon="3.3957">
        <ele>494.2</ele>
        <time>2021-08-06T10:02:52Z</time>
      </trkpt>
      <trkpt lat="45.17731" lon="3.3958">
        <ele>494.3</ele>
        <time>2021-08-06T10:02:54Z</time>
      </trkpt>
      <trkpt lat="45.1773" lon="3.39589">
        <ele>494.7</ele>
        <time>2021-08-06T10:02:56Z</time>
      </trkpt>
      <trkpt lat="45.17729" lon="3.39599">
        <ele>494.8</ele>
        <time>2021-08-06T10:02:58Z</time>
      </trkpt>
      <trkpt lat="45.17729" lon="3.39608">
        <ele>494.8</ele>
        <time>2021-08-06T10:03:00Z</time>
      </trkpt>
      <trkpt lat="45.17729" lon="3.39618">
        <ele>495</ele>
        <time>2021-08-06T10:03:02Z</time>
      </trkpt>
      <trkpt lat="45.17729" lon="3.39626">
        <ele>495.1</ele>
        <time>2021-08-06T10:03:04Z</time>
      </trkpt>
      <trkpt lat="45.17728" lon="3.39636">
        <ele>495.4</ele>
        <time>2021-08-06T10:03:06Z</time>
      </trkpt>
      <trkpt lat="45.17726" lon="3.39645">
        <ele>496</ele>
        <time>2021-08-06T10:03:08Z</time>
      </trkpt>
      <trkpt lat="45.17724" lon="3.39654">
        <ele>496.6</ele>
        <time>2021-08-06T10:03:10Z</time>
      </trkpt>
      <trkpt lat="45.17721" lon="3.39663">
        <ele>497.2</ele>
        <time>2021-08-06T10:03:12Z</time>
      </trkpt>
      <trkpt lat="45.17718" lon="3.39671">
        <ele>498.2</ele>
        <time>2021-08-06T10:03:14Z</time>
      </trkpt>
      <trkpt lat="45.17714" lon="3.39679">
        <ele>499.7</ele>
        <time>2021-08-06T10:03:16Z</time>
      </trkpt>
      <trkpt lat="45.1771" lon="3.39687">
        <ele>501.2</ele>
        <time>2021-08-06T10:03:18Z</time>
      </trkpt>
      <trkpt lat="45.17707" lon="3.39695">
        <ele>502.8</ele>
        <time>2021-08-06T10:03:20Z</time>
      </trkpt>
      <trkpt lat="45.17704" lon="3.39705">
        <ele>503.9</ele>
        <time>2021-08-06T10:03:22Z</time>
      </trkpt>
      <trkpt lat="45.17704" lon="3.39715">
        <ele>504.5</ele>
        <time>2021-08-06T10:03:24Z</time>
      </trkpt>
      <trkpt lat="45.17704" lon="3.39725">
        <ele>505</ele>
        <time>2021-08-06T10:03:26Z</time>
      </trkpt>
      <trkpt lat="45.17706" lon="3.39736">
        <ele>504.8</ele>
        <time>2021-08-06T10:03:28Z</time>
      </trkpt>
      <trkpt lat="45.17707" lon="3.39745">
        <ele>504.6</ele>
        <time>2021-08-06T10:03:30Z</time>
      </trkpt>
      <trkpt lat="45.17709" lon="3.39754">
        <ele>504.6</ele>
        <time>2021-08-06T10:03:32Z</time>
      </trkpt>
      <trkpt lat="45.17711" lon="3.39762">
        <ele>504.6</ele>
        <time>2021-08-06T10:03:34Z</time>
      </trkpt>
      <trkpt lat="45.17713" lon="3.3977">
        <ele>504.7</ele>
        <time>2021-08-06T10:03:36Z</time>
      </trkpt>
      <trkpt lat="45.17715" lon="3.39778">
        <ele>504.7</ele>
        <time>2021-08-06T10:03:38Z</time>
      </trkpt>
      <trkpt lat="45.17718" lon="3.39787">
        <ele>504.6</ele>
        <time>2021-08-06T10:03:40Z</time>
      </trkpt>
      <trkpt lat="45.17721" lon="3.39796">
        <ele>504.4</ele>
        <time>2021-08-06T10:03:42Z</time>
      </trkpt>
      <trkpt lat="45.17723" lon="3.39805">
        <ele>504.4</ele>
        <time>2021-08-06T10:03:44Z</time>
      </trkpt>
      <trkpt lat="45.17726" lon="3.39814">
        <ele>504.2</ele>
        <time>2021-08-06T10:03:46Z</time>
      </trkpt>
      <trkpt lat="45.17728" lon="3.39824">
        <ele>504.1</ele>
        <time>2021-08-06T10:03:48Z</time>
      </trkpt>
      <trkpt lat="45.17731" lon="3.39832">
        <ele>504</ele>
        <time>2021-08-06T10:03:50Z</time>
      </trkpt>
      <trkpt lat="45.17734" lon="3.3984">
        <ele>503.6</ele>
        <time>2021-08-06T10:03:52Z</time>
      </trkpt>
      <trkpt lat="45.17736" lon="3.39849">
        <ele>503.4</ele>
        <time>2021-08-06T10:03:54Z</time>
      </trkpt>
      <trkpt lat="45.17739" lon="3.39858">
        <ele>502.9</ele>
        <time>2021-08-06T10:03:56Z</time>
      </trkpt>
      <trkpt lat="45.17742" lon="3.39867">
        <ele>502.6</ele>
        <time>2021-08-06T10:03:58Z</time>
      </trkpt>
      <trkpt lat="45.17745" lon="3.39877">
        <ele>501.9</ele>
        <time>2021-08-06T10:04:00Z</time>
      </trkpt>
      <trkpt lat="45.17749" lon="3.39886">
        <ele>501</ele>
        <time>2021-08-06T10:04:02Z</time>
      </trkpt>
      <trkpt lat="45.17752" lon="3.39896">
        <ele>500.1</ele>
        <time>2021-08-06T10:04:04Z</time>
      </trkpt>
      <trkpt lat="45.17756" lon="3.39906">
        <ele>499.2</ele>
        <time>2021-08-06T10:04:06Z</time>
      </trkpt>
      <trkpt lat="45.17759" lon="3.39917">
        <ele>498.4</ele>
        <time>2021-08-06T10:04:08Z</time>
      </trkpt>
      <trkpt lat="45.17761" lon="3.39927">
        <ele>498</ele>
        <time>2021-08-06T10:04:10Z</time>
      </trkpt>
      <trkpt lat="45.17763" lon="3.39938">
        <ele>497.6</ele>
        <time>2021-08-06T10:04:12Z</time>
      </trkpt>
      <trkpt lat="45.17765" lon="3.39949">
        <ele>497.2</ele>
        <time>2021-08-06T10:04:14Z</time>
      </trkpt>
      <trkpt lat="45.17767" lon="3.3996">
        <ele>496.9</ele>
        <time>2021-08-06T10:04:16Z</time>
      </trkpt>
      <trkpt lat="45.17769" lon="3.3997">
        <ele>496.4</ele>
        <time>2021-08-06T10:04:18Z</time>
      </trkpt>
      <trkpt lat="45.1777" lon="3.39981">
        <ele>496.1</ele>
        <time>2021-08-06T10:04:20Z</time>
      </trkpt>
      <trkpt lat="45.17771" lon="3.39992">
        <ele>496.1</ele>
        <time>2021-08-06T10:04:22Z</time>
      </trkpt>
      <trkpt lat="45.17771" lon="3.40003">
        <ele>496.4</ele>
        <time>2021-08-06T10:04:24Z</time>
      </trkpt>
      <trkpt lat="45.1777" lon="3.40016">
        <ele>496.6</ele>
        <time>2021-08-06T10:04:26Z</time>
      </trkpt>
      <trkpt lat="45.17768" lon="3.40029">
        <ele>497.4</ele>
        <time>2021-08-06T10:04:28Z</time>
      </trkpt>
      <trkpt lat="45.17766" lon="3.40042">
        <ele>498.1</ele>
        <time>2021-08-06T10:04:30Z</time>
      </trkpt>
      <trkpt lat="45.17763" lon="3.40055">
        <ele>499.1</ele>
        <time>2021-08-06T10:04:32Z</time>
      </trkpt>
      <trkpt lat="45.17761" lon="3.40069">
        <ele>499.4</ele>
        <time>2021-08-06T10:04:34Z</time>
      </trkpt>
      <trkpt lat="45.1776" lon="3.40082">
        <ele>499.2</ele>
        <time>2021-08-06T10:04:36Z</time>
      </trkpt>
      <trkpt lat="45.1776" lon="3.40097">
        <ele>499.6</ele>
        <time>2021-08-06T10:04:38Z</time>
      </trkpt>
      <trkpt lat="45.1776" lon="3.40112">
        <ele>500.2</ele>
        <time>2021-08-06T10:04:40Z</time>
      </trkpt>
      <trkpt lat="45.1776" lon="3.40127">
        <ele>500.8</ele>
        <time>2021-08-06T10:04:42Z</time>
      </trkpt>
      <trkpt lat="45.1776" lon="3.40144">
        <ele>501.6</ele>
        <time>2021-08-06T10:04:44Z</time>
      </trkpt>
      <trkpt lat="45.17761" lon="3.40161">
        <ele>501.5</ele>
        <time>2021-08-06T10:04:46Z</time>
      </trkpt>
      <trkpt lat="45.17767" lon="3.40176">
        <ele>500.1</ele>
        <time>2021-08-06T10:04:48Z</time>
      </trkpt>
      <trkpt lat="45.17777" lon="3.40185">
        <ele>496.7</ele>
        <time>2021-08-06T10:04:50Z</time>
      </trkpt>
      <trkpt lat="45.17789" lon="3.40194">
        <ele>492.7</ele>
        <time>2021-08-06T10:04:52Z</time>
      </trkpt>
      <trkpt lat="45.17799" lon="3.40207">
        <ele>490.2</ele>
        <time>2021-08-06T10:04:54Z</time>
      </trkpt>
      <trkpt lat="45.17806" lon="3.40225">
        <ele>490.3</ele>
        <time>2021-08-06T10:04:56Z</time>
      </trkpt>
      <trkpt lat="45.17811" lon="3.40244">
        <ele>491.6</ele>
        <time>2021-08-06T10:04:58Z</time>
      </trkpt>
      <trkpt lat="45.17815" lon="3.40264">
        <ele>493.3</ele>
        <time>2021-08-06T10:05:00Z</time>
      </trkpt>
      <trkpt lat="45.17823" lon="3.40284">
        <ele>494.2</ele>
        <time>2021-08-06T10:05:02Z</time>
      </trkpt>
      <trkpt lat="45.17833" lon="3.40301">
        <ele>494.7</ele>
        <time>2021-08-06T10:05:04Z</time>
      </trkpt>
      <trkpt lat="45.17844" lon="3.40315">
        <ele>493.8</ele>
        <time>2021-08-06T10:05:06Z</time>
      </trkpt>
      <trkpt lat="45.17857" lon="3.40328">
        <ele>491.9</ele>
        <time>2021-08-06T10:05:08Z</time>
      </trkpt>
      <trkpt lat="45.17872" lon="3.40338">
        <ele>488.1</ele>
        <time>2021-08-06T10:05:10Z</time>
      </trkpt>
      <trkpt lat="45.17888" lon="3.40346">
        <ele>483.7</ele>
        <time>2021-08-06T10:05:12Z</time>
      </trkpt>
      <trkpt lat="45.17904" lon="3.40356">
        <ele>479.8</ele>
        <time>2021-08-06T10:05:14Z</time>
      </trkpt>
      <trkpt lat="45.17918" lon="3.4037">
        <ele>478.3</ele>
        <time>2021-08-06T10:05:16Z</time>
      </trkpt>
      <trkpt lat="45.17928" lon="3.40385">
        <ele>479.9</ele>
        <time>2021-08-06T10:05:18Z</time>
      </trkpt>
      <trkpt lat="45.17937" lon="3.40399">
        <ele>481.7</ele>
        <time>2021-08-06T10:05:20Z</time>
      </trkpt>
      <trkpt lat="45.17945" lon="3.40413">
        <ele>483.1</ele>
        <time>2021-08-06T10:05:22Z</time>
      </trkpt>
      <trkpt lat="45.17952" lon="3.40425">
        <ele>483.3</ele>
        <time>2021-08-06T10:05:24Z</time>
      </trkpt>
      <trkpt lat="45.17957" lon="3.40436">
        <ele>483</ele>
        <time>2021-08-06T10:05:26Z</time>
      </trkpt>
      <trkpt lat="45.17962" lon="3.40447">
        <ele>482.8</ele>
        <time>2021-08-06T10:05:28Z</time>
      </trkpt>
      <trkpt lat="45.17965" lon="3.40459">
        <ele>482.8</ele>
        <time>2021-08-06T10:05:30Z</time>
      </trkpt>
      <trkpt lat="45.17967" lon="3.4047">
        <ele>483</ele>
        <time>2021-08-06T10:05:32Z</time>
      </trkpt>
      <trkpt lat="45.17968" lon="3.40481">
        <ele>483.4</ele>
        <time>2021-08-06T10:05:34Z</time>
      </trkpt>
      <trkpt lat="45.17968" lon="3.40491">
        <ele>483.8</ele>
        <time>2021-08-06T10:05:36Z</time>
      </trkpt>
      <trkpt lat="45.17967" lon="3.40501">
        <ele>484.3</ele>
        <time>2021-08-06T10:05:38Z</time>
      </trkpt>
      <trkpt lat="45.17966" lon="3.40511">
        <ele>484.8</ele>
        <time>2021-08-06T10:05:40Z</time>
      </trkpt>
      <trkpt lat="45.17963" lon="3.40519">
        <ele>485.3</ele>
        <time>2021-08-06T10:05:42Z</time>
      </trkpt>
      <trkpt lat="45.1796" lon="3.40527">
        <ele>485.8</ele>
        <time>2021-08-06T10:05:44Z</time>
      </trkpt>
      <trkpt lat="45.17956" lon="3.40535">
        <ele>486.4</ele>
        <time>2021-08-06T10:05:46Z</time>
      </trkpt>
      <trkpt lat="45.17952" lon="3.40542">
        <ele>486.9</ele>
        <time>2021-08-06T10:05:48Z</time>
      </trkpt>
      <trkpt lat="45.17947" lon="3.40549">
        <ele>487.5</ele>
        <time>2021-08-06T10:05:50Z</time>
      </trkpt>
      <trkpt lat="45.17942" lon="3.40555">
        <ele>488</ele>
        <time>2021-08-06T10:05:52Z</time>
      </trkpt>
      <trkpt lat="45.17937" lon="3.40561">
        <ele>488.5</ele>
        <time>2021-08-06T10:05:54Z</time>
      </trkpt>
      <trkpt lat="45.17931" lon="3.40567">
        <ele>489</ele>
        <time>2021-08-06T10:05:56Z</time>
      </trkpt>
      <trkpt lat="45.17926" lon="3.40573">
        <ele>489.4</ele>
        <time>2021-08-06T10:05:58Z</time>
      </trkpt>
      <trkpt lat="45.1792" lon="3.4058">
        <ele>489.8</ele>
        <time>2021-08-06T10:06:00Z</time>
      </trkpt>
      <trkpt lat="45.17915" lon="3.40586">
        <ele>490</ele>
        <time>2021-08-06T10:06:02Z</time>
      </trkpt>
      <trkpt lat="45.1791" lon="3.40592">
        <ele>490.2</ele>
        <time>2021-08-06T10:06:04Z</time>
      </trkpt>
      <trkpt lat="45.17904" lon="3.40598">
        <ele>490.3</ele>
        <time>2021-08-06T10:06:06Z</time>
      </trkpt>
      <trkpt lat="45.17899" lon="3.40604">
        <ele>490.3</ele>
        <time>2021-08-06T10:06:08Z</time>
      </trkpt>
      <trkpt lat="45.17894" lon="3.40611">
        <ele>490.4</ele>
        <time>2021-08-06T10:06:10Z</time>
      </trkpt>
      <trkpt lat="45.17889" lon="3.40617">
        <ele>490.4</ele>
        <time>2021-08-06T10:06:12Z</time>
      </trkpt>
      <trkpt lat="45.17884" lon="3.40623">
        <ele>490.4</ele>
        <time>2021-08-06T10:06:14Z</time>
      </trkpt>
      <trkpt lat="45.17878" lon="3.40629">
        <ele>490.3</ele>
        <time>2021-08-06T10:06:16Z</time>
      </trkpt>
      <trkpt lat="45.17873" lon="3.40636">
        <ele>490.2</ele>
        <time>2021-08-06T10:06:18Z</time>
      </trkpt>
      <trkpt lat="45.17868" lon="3.40642">
        <ele>490.2</ele>
        <time>2021-08-06T10:06:20Z</time>
      </trkpt>
      <trkpt lat="45.17863" lon="3.40647">
        <ele>490.1</ele>
        <time>2021-08-06T10:06:22Z</time>
      </trkpt>
      <trkpt lat="45.17858" lon="3.40654">
        <ele>489.9</ele>
        <time>2021-08-06T10:06:24Z</time>
      </trkpt>
      <trkpt lat="45.17853" lon="3.40659">
        <ele>489.8</ele>
        <time>2021-08-06T10:06:26Z</time>
      </trkpt>
      <trkpt lat="45.17847" lon="3.40665">
        <ele>489.6</ele>
        <time>2021-08-06T10:06:28Z</time>
      </trkpt>
      <trkpt lat="45.17841" lon="3.40671">
        <ele>489.6</ele>
        <time>2021-08-06T10:06:30Z</time>
      </trkpt>
      <trkpt lat="45.17835" lon="3.40677">
        <ele>489.6</ele>
        <time>2021-08-06T10:06:32Z</time>
      </trkpt>
      <trkpt lat="45.17829" lon="3.40681">
        <ele>489</ele>
        <time>2021-08-06T10:06:34Z</time>
      </trkpt>
      <trkpt lat="45.17822" lon="3.40683">
        <ele>488.3</ele>
        <time>2021-08-06T10:06:36Z</time>
      </trkpt>
      <trkpt lat="45.17815" lon="3.40685">
        <ele>487.5</ele>
        <time>2021-08-06T10:06:38Z</time>
      </trkpt>
      <trkpt lat="45.17808" lon="3.40685">
        <ele>486.8</ele>
        <time>2021-08-06T10:06:40Z</time>
      </trkpt>
      <trkpt lat="45.17802" lon="3.40683">
        <ele>486.3</ele>
        <time>2021-08-06T10:06:42Z</time>
      </trkpt>
      <trkpt lat="45.17796" lon="3.40679">
        <ele>485.8</ele>
        <time>2021-08-06T10:06:44Z</time>
      </trkpt>
      <trkpt lat="45.1779" lon="3.40675">
        <ele>485.4</ele>
        <time>2021-08-06T10:06:46Z</time>
      </trkpt>
      <trkpt lat="45.17784" lon="3.40669">
        <ele>485.1</ele>
        <time>2021-08-06T10:06:48Z</time>
      </trkpt>
      <trkpt lat="45.17779" lon="3.40662">
        <ele>485.2</ele>
        <time>2021-08-06T10:06:50Z</time>
      </trkpt>
      <trkpt lat="45.17773" lon="3.40655">
        <ele>485.5</ele>
        <time>2021-08-06T10:06:52Z</time>
      </trkpt>
      <trkpt lat="45.17767" lon="3.40648">
        <ele>485.9</ele>
        <time>2021-08-06T10:06:54Z</time>
      </trkpt>
      <trkpt lat="45.17761" lon="3.4064">
        <ele>486.4</ele>
        <time>2021-08-06T10:06:56Z</time>
      </trkpt>
      <trkpt lat="45.17755" lon="3.40632">
        <ele>486.9</ele>
        <time>2021-08-06T10:06:58Z</time>
      </trkpt>
      <trkpt lat="45.17749" lon="3.40624">
        <ele>487.4</ele>
        <time>2021-08-06T10:07:00Z</time>
      </trkpt>
      <trkpt lat="45.17743" lon="3.40616">
        <ele>486.8</ele>
        <time>2021-08-06T10:07:02Z</time>
      </trkpt>
      <trkpt lat="45.17737" lon="3.40608">
        <ele>486.5</ele>
        <time>2021-08-06T10:07:04Z</time>
      </trkpt>
      <trkpt lat="45.1773" lon="3.40599">
        <ele>486.1</ele>
        <time>2021-08-06T10:07:06Z</time>
      </trkpt>
      <trkpt lat="45.17724" lon="3.40591">
        <ele>485.7</ele>
        <time>2021-08-06T10:07:08Z</time>
      </trkpt>
      <trkpt lat="45.17718" lon="3.40583">
        <ele>485.4</ele>
        <time>2021-08-06T10:07:10Z</time>
      </trkpt>
      <trkpt lat="45.17712" lon="3.40574">
        <ele>485.2</ele>
        <time>2021-08-06T10:07:12Z</time>
      </trkpt>
      <trkpt lat="45.17706" lon="3.40565">
        <ele>485.3</ele>
        <time>2021-08-06T10:07:14Z</time>
      </trkpt>
      <trkpt lat="45.17701" lon="3.40555">
        <ele>485.7</ele>
        <time>2021-08-06T10:07:16Z</time>
      </trkpt>
      <trkpt lat="45.17696" lon="3.40545">
        <ele>486.6</ele>
        <time>2021-08-06T10:07:18Z</time>
      </trkpt>
      <trkpt lat="45.1769" lon="3.40535">
        <ele>487.6</ele>
        <time>2021-08-06T10:07:20Z</time>
      </trkpt>
      <trkpt lat="45.17685" lon="3.40526">
        <ele>488.6</ele>
        <time>2021-08-06T10:07:22Z</time>
      </trkpt>
      <trkpt lat="45.1768" lon="3.40516">
        <ele>489.8</ele>
        <time>2021-08-06T10:07:24Z</time>
      </trkpt>
      <trkpt lat="45.17674" lon="3.40507">
        <ele>491.2</ele>
        <time>2021-08-06T10:07:26Z</time>
      </trkpt>
      <trkpt lat="45.17669" lon="3.40499">
        <ele>492.3</ele>
        <time>2021-08-06T10:07:28Z</time>
      </trkpt>
      <trkpt lat="45.17662" lon="3.40493">
        <ele>492.1</ele>
        <time>2021-08-06T10:07:30Z</time>
      </trkpt>
      <trkpt lat="45.17655" lon="3.40488">
        <ele>490.9</ele>
        <time>2021-08-06T10:07:32Z</time>
      </trkpt>
      <trkpt lat="45.17647" lon="3.40483">
        <ele>489.8</ele>
        <time>2021-08-06T10:07:34Z</time>
      </trkpt>
      <trkpt lat="45.1764" lon="3.40479">
        <ele>488.7</ele>
        <time>2021-08-06T10:07:36Z</time>
      </trkpt>
      <trkpt lat="45.17634" lon="3.40473">
        <ele>488</ele>
        <time>2021-08-06T10:07:38Z</time>
      </trkpt>
      <trkpt lat="45.17628" lon="3.40465">
        <ele>488.2</ele>
        <time>2021-08-06T10:07:40Z</time>
      </trkpt>
      <trkpt lat="45.17624" lon="3.40456">
        <ele>489.2</ele>
        <time>2021-08-06T10:07:42Z</time>
      </trkpt>
      <trkpt lat="45.17619" lon="3.40445">
        <ele>490.7</ele>
        <time>2021-08-06T10:07:44Z</time>
      </trkpt>
      <trkpt lat="45.17614" lon="3.40433">
        <ele>492.3</ele>
        <time>2021-08-06T10:07:46Z</time>
      </trkpt>
      <trkpt lat="45.17608" lon="3.40421">
        <ele>493.9</ele>
        <time>2021-08-06T10:07:48Z</time>
      </trkpt>
      <trkpt lat="45.17601" lon="3.40409">
        <ele>495</ele>
        <time>2021-08-06T10:07:50Z</time>
      </trkpt>
      <trkpt lat="45.1759" lon="3.404">
        <ele>495</ele>
        <time>2021-08-06T10:07:52Z</time>
      </trkpt>
      <trkpt lat="45.17578" lon="3.40395">
        <ele>494.6</ele>
        <time>2021-08-06T10:07:54Z</time>
      </trkpt>
      <trkpt lat="45.17566" lon="3.40392">
        <ele>494.2</ele>
        <time>2021-08-06T10:07:56Z</time>
      </trkpt>
      <trkpt lat="45.17552" lon="3.40389">
        <ele>493.4</ele>
        <time>2021-08-06T10:07:58Z</time>
      </trkpt>
      <trkpt lat="45.17538" lon="3.40386">
        <ele>492.9</ele>
        <time>2021-08-06T10:08:00Z</time>
      </trkpt>
      <trkpt lat="45.17523" lon="3.40382">
        <ele>492.4</ele>
        <time>2021-08-06T10:08:02Z</time>
      </trkpt>
      <trkpt lat="45.17507" lon="3.40378">
        <ele>492.3</ele>
        <time>2021-08-06T10:08:04Z</time>
      </trkpt>
      <trkpt lat="45.17491" lon="3.40374">
        <ele>492.9</ele>
        <time>2021-08-06T10:08:06Z</time>
      </trkpt>
      <trkpt lat="45.17475" lon="3.40371">
        <ele>493.9</ele>
        <time>2021-08-06T10:08:08Z</time>
      </trkpt>
      <trkpt lat="45.17458" lon="3.40368">
        <ele>494.7</ele>
        <time>2021-08-06T10:08:10Z</time>
      </trkpt>
      <trkpt lat="45.17441" lon="3.40368">
        <ele>493.7</ele>
        <time>2021-08-06T10:08:12Z</time>
      </trkpt>
      <trkpt lat="45.17424" lon="3.40372">
        <ele>491.4</ele>
        <time>2021-08-06T10:08:14Z</time>
      </trkpt>
      <trkpt lat="45.17406" lon="3.40376">
        <ele>491.1</ele>
        <time>2021-08-06T10:08:16Z</time>
      </trkpt>
      <trkpt lat="45.17388" lon="3.40378">
        <ele>493.3</ele>
        <time>2021-08-06T10:08:18Z</time>
      </trkpt>
      <trkpt lat="45.1737" lon="3.40378">
        <ele>496</ele>
        <time>2021-08-06T10:08:20Z</time>
      </trkpt>
      <trkpt lat="45.17353" lon="3.40381">
        <ele>497.6</ele>
        <time>2021-08-06T10:08:22Z</time>
      </trkpt>
      <trkpt lat="45.17339" lon="3.4039">
        <ele>496.3</ele>
        <time>2021-08-06T10:08:24Z</time>
      </trkpt>
      <trkpt lat="45.17327" lon="3.40403">
        <ele>493.4</ele>
        <time>2021-08-06T10:08:26Z</time>
      </trkpt>
      <trkpt lat="45.17316" lon="3.40419">
        <ele>489.7</ele>
        <time>2021-08-06T10:08:28Z</time>
      </trkpt>
      <trkpt lat="45.17304" lon="3.40432">
        <ele>487.5</ele>
        <time>2021-08-06T10:08:30Z</time>
      </trkpt>
      <trkpt lat="45.1729" lon="3.40441">
        <ele>486.6</ele>
        <time>2021-08-06T10:08:32Z</time>
      </trkpt>
      <trkpt lat="45.17276" lon="3.40449">
        <ele>486</ele>
        <time>2021-08-06T10:08:34Z</time>
      </trkpt>
      <trkpt lat="45.17261" lon="3.40456">
        <ele>485.6</ele>
        <time>2021-08-06T10:08:36Z</time>
      </trkpt>
      <trkpt lat="45.17246" lon="3.40464">
        <ele>484.1</ele>
        <time>2021-08-06T10:08:38Z</time>
      </trkpt>
      <trkpt lat="45.17231" lon="3.40472">
        <ele>480.9</ele>
        <time>2021-08-06T10:08:40Z</time>
      </trkpt>
      <trkpt lat="45.17216" lon="3.40478">
        <ele>478.7</ele>
        <time>2021-08-06T10:08:42Z</time>
      </trkpt>
      <trkpt lat="45.172" lon="3.40479">
        <ele>478.1</ele>
        <time>2021-08-06T10:08:44Z</time>
      </trkpt>
      <trkpt lat="45.17184" lon="3.40478">
        <ele>478.5</ele>
        <time>2021-08-06T10:08:46Z</time>
      </trkpt>
      <trkpt lat="45.17169" lon="3.40475">
        <ele>479.4</ele>
        <time>2021-08-06T10:08:48Z</time>
      </trkpt>
      <trkpt lat="45.17154" lon="3.40472">
        <ele>481.1</ele>
        <time>2021-08-06T10:08:50Z</time>
      </trkpt>
      <trkpt lat="45.1714" lon="3.40472">
        <ele>481.9</ele>
        <time>2021-08-06T10:08:52Z</time>
      </trkpt>
      <trkpt lat="45.17126" lon="3.40478">
        <ele>481.6</ele>
        <time>2021-08-06T10:08:54Z</time>
      </trkpt>
      <trkpt lat="45.17115" lon="3.40488">
        <ele>481.1</ele>
        <time>2021-08-06T10:08:56Z</time>
      </trkpt>
      <trkpt lat="45.17108" lon="3.40503">
        <ele>480.3</ele>
        <time>2021-08-06T10:08:58Z</time>
      </trkpt>
      <trkpt lat="45.17106" lon="3.4052">
        <ele>479.2</ele>
        <time>2021-08-06T10:09:00Z</time>
      </trkpt>
      <trkpt lat="45.17107" lon="3.40536">
        <ele>477.9</ele>
        <time>2021-08-06T10:09:02Z</time>
      </trkpt>
      <trkpt lat="45.17107" lon="3.40551">
        <ele>476.6</ele>
        <time>2021-08-06T10:09:04Z</time>
      </trkpt>
      <trkpt lat="45.17106" lon="3.40565">
        <ele>475.8</ele>
        <time>2021-08-06T10:09:06Z</time>
      </trkpt>
      <trkpt lat="45.17102" lon="3.40578">
        <ele>475.5</ele>
        <time>2021-08-06T10:09:08Z</time>
      </trkpt>
      <trkpt lat="45.17097" lon="3.40589">
        <ele>475.5</ele>
        <time>2021-08-06T10:09:10Z</time>
      </trkpt>
      <trkpt lat="45.17091" lon="3.40597">
        <ele>475.6</ele>
        <time>2021-08-06T10:09:12Z</time>
      </trkpt>
      <trkpt lat="45.17084" lon="3.40605">
        <ele>475.7</ele>
        <time>2021-08-06T10:09:14Z</time>
      </trkpt>
      <trkpt lat="45.17079" lon="3.4061">
        <ele>476.5</ele>
        <time>2021-08-06T10:09:16Z</time>
      </trkpt>
      <trkpt lat="45.17073" lon="3.40614">
        <ele>477.4</ele>
        <time>2021-08-06T10:09:18Z</time>
      </trkpt>
      <trkpt lat="45.17069" lon="3.40618">
        <ele>478.1</ele>
        <time>2021-08-06T10:09:20Z</time>
      </trkpt>
      <trkpt lat="45.17064" lon="3.40621">
        <ele>478.9</ele>
        <time>2021-08-06T10:09:22Z</time>
      </trkpt>
      <trkpt lat="45.17059" lon="3.40626">
        <ele>479.3</ele>
        <time>2021-08-06T10:09:24Z</time>
      </trkpt>
      <trkpt lat="45.17054" lon="3.4063">
        <ele>479.8</ele>
        <time>2021-08-06T10:09:26Z</time>
      </trkpt>
      <trkpt lat="45.17049" lon="3.40634">
        <ele>480.2</ele>
        <time>2021-08-06T10:09:28Z</time>
      </trkpt>
      <trkpt lat="45.17045" lon="3.40639">
        <ele>480.4</ele>
        <time>2021-08-06T10:09:30Z</time>
      </trkpt>
      <trkpt lat="45.1704" lon="3.40643">
        <ele>480.5</ele>
        <time>2021-08-06T10:09:32Z</time>
      </trkpt>
      <trkpt lat="45.17035" lon="3.40646">
        <ele>480.9</ele>
        <time>2021-08-06T10:09:34Z</time>
      </trkpt>
      <trkpt lat="45.17031" lon="3.4065">
        <ele>481</ele>
        <time>2021-08-06T10:09:36Z</time>
      </trkpt>
      <trkpt lat="45.17026" lon="3.40654">
        <ele>481.1</ele>
        <time>2021-08-06T10:09:38Z</time>
      </trkpt>
      <trkpt lat="45.17021" lon="3.40658">
        <ele>481</ele>
        <time>2021-08-06T10:09:40Z</time>
      </trkpt>
      <trkpt lat="45.17016" lon="3.40662">
        <ele>481.1</ele>
        <time>2021-08-06T10:09:42Z</time>
      </trkpt>
      <trkpt lat="45.17012" lon="3.40666">
        <ele>480.9</ele>
        <time>2021-08-06T10:09:44Z</time>
      </trkpt>
      <trkpt lat="45.17008" lon="3.40669">
        <ele>481.1</ele>
        <time>2021-08-06T10:09:46Z</time>
      </trkpt>
      <trkpt lat="45.17004" lon="3.40672">
        <ele>481.5</ele>
        <time>2021-08-06T10:09:48Z</time>
      </trkpt>
      <trkpt lat="45.16999" lon="3.40676">
        <ele>481.9</ele>
        <time>2021-08-06T10:09:50Z</time>
      </trkpt>
      <trkpt lat="45.16995" lon="3.4068">
        <ele>482.3</ele>
        <time>2021-08-06T10:09:52Z</time>
      </trkpt>
      <trkpt lat="45.1699" lon="3.40683">
        <ele>482.8</ele>
        <time>2021-08-06T10:09:54Z</time>
      </trkpt>
      <trkpt lat="45.16986" lon="3.40687">
        <ele>483.2</ele>
        <time>2021-08-06T10:09:56Z</time>
      </trkpt>
      <trkpt lat="45.16982" lon="3.4069">
        <ele>483.6</ele>
        <time>2021-08-06T10:09:58Z</time>
      </trkpt>
      <trkpt lat="45.16978" lon="3.40694">
        <ele>484</ele>
        <time>2021-08-06T10:10:00Z</time>
      </trkpt>
      <trkpt lat="45.16974" lon="3.40697">
        <ele>484.3</ele>
        <time>2021-08-06T10:10:02Z</time>
      </trkpt>
      <trkpt lat="45.1697" lon="3.40701">
        <ele>484.6</ele>
        <time>2021-08-06T10:10:04Z</time>
      </trkpt>
      <trkpt lat="45.16966" lon="3.40704">
        <ele>484.9</ele>
        <time>2021-08-06T10:10:06Z</time>
      </trkpt>
      <trkpt lat="45.16962" lon="3.40707">
        <ele>485.2</ele>
        <time>2021-08-06T10:10:08Z</time>
      </trkpt>
      <trkpt lat="45.16958" lon="3.40711">
        <ele>485.5</ele>
        <time>2021-08-06T10:10:10Z</time>
      </trkpt>
      <trkpt lat="45.16954" lon="3.40714">
        <ele>485.8</ele>
        <time>2021-08-06T10:10:12Z</time>
      </trkpt>
      <trkpt lat="45.16949" lon="3.40718">
        <ele>486</ele>
        <time>2021-08-06T10:10:14Z</time>
      </trkpt>
      <trkpt lat="45.16945" lon="3.40722">
        <ele>486.3</ele>
        <time>2021-08-06T10:10:16Z</time>
      </trkpt>
      <trkpt lat="45.16941" lon="3.40726">
        <ele>486.5</ele>
        <time>2021-08-06T10:10:18Z</time>
      </trkpt>
      <trkpt lat="45.16936" lon="3.40729">
        <ele>486.8</ele>
        <time>2021-08-06T10:10:20Z</time>
      </trkpt>
      <trkpt lat="45.16932" lon="3.40732">
        <ele>487.1</ele>
        <time>2021-08-06T10:10:22Z</time>
      </trkpt>
      <trkpt lat="45.16928" lon="3.40736">
        <ele>487.3</ele>
        <time>2021-08-06T10:10:24Z</time>
      </trkpt>
      <trkpt lat="45.16923" lon="3.40739">
        <ele>487.6</ele>
        <time>2021-08-06T10:10:26Z</time>
      </trkpt>
      <trkpt lat="45.16919" lon="3.40742">
        <ele>487.8</ele>
        <time>2021-08-06T10:10:28Z</time>
      </trkpt>
      <trkpt lat="45.16916" lon="3.40746">
        <ele>487.8</ele>
        <time>2021-08-06T10:10:30Z</time>
      </trkpt>
      <trkpt lat="45.16913" lon="3.40748">
        <ele>487.8</ele>
        <time>2021-08-06T10:10:32Z</time>
      </trkpt>
      <trkpt lat="45.16911" lon="3.40749">
        <ele>487.7</ele>
        <time>2021-08-06T10:10:34Z</time>
      </trkpt>
      <trkpt lat="45.16907" lon="3.40753">
        <ele>487.8</ele>
        <time>2021-08-06T10:10:36Z</time>
      </trkpt>
      <trkpt lat="45.16904" lon="3.40756">
        <ele>488</ele>
        <time>2021-08-06T10:10:38Z</time>
      </trkpt>
      <trkpt lat="45.169" lon="3.40758">
        <ele>488.3</ele>
        <time>2021-08-06T10:10:40Z</time>
      </trkpt>
      <trkpt lat="45.16896" lon="3.40761">
        <ele>488.5</ele>
        <time>2021-08-06T10:10:42Z</time>
      </trkpt>
      <trkpt lat="45.16892" lon="3.40764">
        <ele>488.7</ele>
        <time>2021-08-06T10:10:44Z</time>
      </trkpt>
      <trkpt lat="45.16888" lon="3.40768">
        <ele>488.9</ele>
        <time>2021-08-06T10:10:46Z</time>
      </trkpt>
      <trkpt lat="45.16884" lon="3.40771">
        <ele>489.1</ele>
        <time>2021-08-06T10:10:48Z</time>
      </trkpt>
      <trkpt lat="45.1688" lon="3.40774">
        <ele>489.3</ele>
        <time>2021-08-06T10:10:50Z</time>
      </trkpt>
      <trkpt lat="45.16876" lon="3.40778">
        <ele>489.4</ele>
        <time>2021-08-06T10:10:52Z</time>
      </trkpt>
      <trkpt lat="45.16872" lon="3.40781">
        <ele>489.6</ele>
        <time>2021-08-06T10:10:54Z</time>
      </trkpt>
      <trkpt lat="45.16867" lon="3.40784">
        <ele>489.8</ele>
        <time>2021-08-06T10:10:56Z</time>
      </trkpt>
      <trkpt lat="45.16863" lon="3.40788">
        <ele>489.9</ele>
        <time>2021-08-06T10:10:58Z</time>
      </trkpt>
      <trkpt lat="45.16858" lon="3.40791">
        <ele>490.1</ele>
        <time>2021-08-06T10:11:00Z</time>
      </trkpt>
      <trkpt lat="45.16854" lon="3.40796">
        <ele>490.1</ele>
        <time>2021-08-06T10:11:02Z</time>
      </trkpt>
      <trkpt lat="45.1685" lon="3.40799">
        <ele>490.2</ele>
        <time>2021-08-06T10:11:04Z</time>
      </trkpt>
      <trkpt lat="45.16846" lon="3.40804">
        <ele>490.2</ele>
        <time>2021-08-06T10:11:06Z</time>
      </trkpt>
      <trkpt lat="45.16843" lon="3.40808">
        <ele>490.2</ele>
        <time>2021-08-06T10:11:08Z</time>
      </trkpt>
      <trkpt lat="45.16839" lon="3.40813">
        <ele>490.1</ele>
        <time>2021-08-06T10:11:10Z</time>
      </trkpt>
      <trkpt lat="45.16835" lon="3.40818">
        <ele>490</ele>
        <time>2021-08-06T10:11:12Z</time>
      </trkpt>
      <trkpt lat="45.16832" lon="3.40823">
        <ele>489.9</ele>
        <time>2021-08-06T10:11:14Z</time>
      </trkpt>
      <trkpt lat="45.16829" lon="3.40828">
        <ele>490</ele>
        <time>2021-08-06T10:11:16Z</time>
      </trkpt>
      <trkpt lat="45.16826" lon="3.40834">
        <ele>490</ele>
        <time>2021-08-06T10:11:18Z</time>
      </trkpt>
      <trkpt lat="45.16824" lon="3.4084">
        <ele>490.3</ele>
        <time>2021-08-06T10:11:20Z</time>
      </trkpt>
      <trkpt lat="45.16821" lon="3.40846">
        <ele>490.7</ele>
        <time>2021-08-06T10:11:22Z</time>
      </trkpt>
      <trkpt lat="45.16819" lon="3.40852">
        <ele>491.1</ele>
        <time>2021-08-06T10:11:24Z</time>
      </trkpt>
      <trkpt lat="45.16816" lon="3.40857">
        <ele>491.4</ele>
        <time>2021-08-06T10:11:26Z</time>
      </trkpt>
      <trkpt lat="45.16814" lon="3.40863">
        <ele>491.7</ele>
        <time>2021-08-06T10:11:28Z</time>
      </trkpt>
      <trkpt lat="45.16812" lon="3.40869">
        <ele>491.9</ele>
        <time>2021-08-06T10:11:30Z</time>
      </trkpt>
      <trkpt lat="45.1681" lon="3.40875">
        <ele>492.2</ele>
        <time>2021-08-06T10:11:32Z</time>
      </trkpt>
      <trkpt lat="45.16808" lon="3.40881">
        <ele>492.4</ele>
        <time>2021-08-06T10:11:34Z</time>
      </trkpt>
      <trkpt lat="45.16806" lon="3.40887">
        <ele>492.6</ele>
        <time>2021-08-06T10:11:36Z</time>
      </trkpt>
      <trkpt lat="45.16803" lon="3.40893">
        <ele>492.9</ele>
        <time>2021-08-06T10:11:38Z</time>
      </trkpt>
      <trkpt lat="45.16801" lon="3.40899">
        <ele>493.1</ele>
        <time>2021-08-06T10:11:40Z</time>
      </trkpt>
      <trkpt lat="45.16799" lon="3.40907">
        <ele>493.4</ele>
        <time>2021-08-06T10:11:42Z</time>
      </trkpt>
      <trkpt lat="45.16796" lon="3.40914">
        <ele>493.6</ele>
        <time>2021-08-06T10:11:44Z</time>
      </trkpt>
      <trkpt lat="45.16794" lon="3.40923">
        <ele>493.5</ele>
        <time>2021-08-06T10:11:46Z</time>
      </trkpt>
      <trkpt lat="45.16791" lon="3.4093">
        <ele>493.5</ele>
        <time>2021-08-06T10:11:48Z</time>
      </trkpt>
      <trkpt lat="45.16789" lon="3.40938">
        <ele>493.4</ele>
        <time>2021-08-06T10:11:50Z</time>
      </trkpt>
      <trkpt lat="45.16786" lon="3.40947">
        <ele>493.3</ele>
        <time>2021-08-06T10:11:52Z</time>
      </trkpt>
      <trkpt lat="45.16783" lon="3.40956">
        <ele>493.1</ele>
        <time>2021-08-06T10:11:54Z</time>
      </trkpt>
      <trkpt lat="45.1678" lon="3.40964">
        <ele>493</ele>
        <time>2021-08-06T10:11:56Z</time>
      </trkpt>
      <trkpt lat="45.16777" lon="3.40973">
        <ele>492.9</ele>
        <time>2021-08-06T10:11:58Z</time>
      </trkpt>
      <trkpt lat="45.16773" lon="3.40982">
        <ele>492.9</ele>
        <time>2021-08-06T10:12:00Z</time>
      </trkpt>
      <trkpt lat="45.1677" lon="3.40991">
        <ele>492.7</ele>
        <time>2021-08-06T10:12:02Z</time>
      </trkpt>
      <trkpt lat="45.16767" lon="3.41">
        <ele>492.5</ele>
        <time>2021-08-06T10:12:04Z</time>
      </trkpt>
      <trkpt lat="45.16764" lon="3.41009">
        <ele>492.6</ele>
        <time>2021-08-06T10:12:06Z</time>
      </trkpt>
      <trkpt lat="45.1676" lon="3.41018">
        <ele>492.6</ele>
        <time>2021-08-06T10:12:08Z</time>
      </trkpt>
      <trkpt lat="45.16757" lon="3.41028">
        <ele>492.5</ele>
        <time>2021-08-06T10:12:10Z</time>
      </trkpt>
      <trkpt lat="45.16754" lon="3.41037">
        <ele>492.4</ele>
        <time>2021-08-06T10:12:12Z</time>
      </trkpt>
      <trkpt lat="45.16751" lon="3.41047">
        <ele>492.3</ele>
        <time>2021-08-06T10:12:14Z</time>
      </trkpt>
      <trkpt lat="45.16748" lon="3.41058">
        <ele>492.3</ele>
        <time>2021-08-06T10:12:16Z</time>
      </trkpt>
      <trkpt lat="45.16743" lon="3.41068">
        <ele>492.5</ele>
        <time>2021-08-06T10:12:18Z</time>
      </trkpt>
      <trkpt lat="45.1674" lon="3.41079">
        <ele>492.7</ele>
        <time>2021-08-06T10:12:20Z</time>
      </trkpt>
      <trkpt lat="45.16736" lon="3.4109">
        <ele>492.7</ele>
        <time>2021-08-06T10:12:22Z</time>
      </trkpt>
      <trkpt lat="45.16733" lon="3.41101">
        <ele>492.7</ele>
        <time>2021-08-06T10:12:24Z</time>
      </trkpt>
      <trkpt lat="45.1673" lon="3.41111">
        <ele>492.4</ele>
        <time>2021-08-06T10:12:26Z</time>
      </trkpt>
      <trkpt lat="45.16726" lon="3.41122">
        <ele>492.2</ele>
        <time>2021-08-06T10:12:28Z</time>
      </trkpt>
      <trkpt lat="45.16722" lon="3.41132">
        <ele>491.9</ele>
        <time>2021-08-06T10:12:30Z</time>
      </trkpt>
      <trkpt lat="45.16718" lon="3.41143">
        <ele>491.4</ele>
        <time>2021-08-06T10:12:32Z</time>
      </trkpt>
      <trkpt lat="45.16714" lon="3.41155">
        <ele>490.8</ele>
        <time>2021-08-06T10:12:34Z</time>
      </trkpt>
      <trkpt lat="45.16709" lon="3.41166">
        <ele>490.1</ele>
        <time>2021-08-06T10:12:36Z</time>
      </trkpt>
      <trkpt lat="45.16703" lon="3.41176">
        <ele>488.9</ele>
        <time>2021-08-06T10:12:38Z</time>
      </trkpt>
      <trkpt lat="45.16695" lon="3.41185">
        <ele>487.8</ele>
        <time>2021-08-06T10:12:40Z</time>
      </trkpt>
      <trkpt lat="45.16687" lon="3.41192">
        <ele>486.8</ele>
        <time>2021-08-06T10:12:42Z</time>
      </trkpt>
      <trkpt lat="45.16679" lon="3.41196">
        <ele>486.1</ele>
        <time>2021-08-06T10:12:44Z</time>
      </trkpt>
      <trkpt lat="45.1667" lon="3.41198">
        <ele>485.8</ele>
        <time>2021-08-06T10:12:46Z</time>
      </trkpt>
      <trkpt lat="45.16661" lon="3.41199">
        <ele>486.1</ele>
        <time>2021-08-06T10:12:48Z</time>
      </trkpt>
      <trkpt lat="45.16653" lon="3.41198">
        <ele>487</ele>
        <time>2021-08-06T10:12:50Z</time>
      </trkpt>
      <trkpt lat="45.16644" lon="3.41196">
        <ele>488</ele>
        <time>2021-08-06T10:12:52Z</time>
      </trkpt>
      <trkpt lat="45.16636" lon="3.41195">
        <ele>489</ele>
        <time>2021-08-06T10:12:54Z</time>
      </trkpt>
      <trkpt lat="45.16627" lon="3.41196">
        <ele>489.6</ele>
        <time>2021-08-06T10:12:56Z</time>
      </trkpt>
      <trkpt lat="45.1662" lon="3.41198">
        <ele>489.7</ele>
        <time>2021-08-06T10:12:58Z</time>
      </trkpt>
      <trkpt lat="45.16613" lon="3.412">
        <ele>489.6</ele>
        <time>2021-08-06T10:13:00Z</time>
      </trkpt>
      <trkpt lat="45.16605" lon="3.41202">
        <ele>489.6</ele>
        <time>2021-08-06T10:13:02Z</time>
      </trkpt>
      <trkpt lat="45.16598" lon="3.41203">
        <ele>489.5</ele>
        <time>2021-08-06T10:13:04Z</time>
      </trkpt>
      <trkpt lat="45.1659" lon="3.41206">
        <ele>489.1</ele>
        <time>2021-08-06T10:13:06Z</time>
      </trkpt>
      <trkpt lat="45.16581" lon="3.41209">
        <ele>488.5</ele>
        <time>2021-08-06T10:13:08Z</time>
      </trkpt>
      <trkpt lat="45.16573" lon="3.41211">
        <ele>488.4</ele>
        <time>2021-08-06T10:13:10Z</time>
      </trkpt>
      <trkpt lat="45.16565" lon="3.41213">
        <ele>488.1</ele>
        <time>2021-08-06T10:13:12Z</time>
      </trkpt>
      <trkpt lat="45.16556" lon="3.41214">
        <ele>488.2</ele>
        <time>2021-08-06T10:13:14Z</time>
      </trkpt>
      <trkpt lat="45.16548" lon="3.41216">
        <ele>488</ele>
        <time>2021-08-06T10:13:16Z</time>
      </trkpt>
      <trkpt lat="45.1654" lon="3.41217">
        <ele>488.1</ele>
        <time>2021-08-06T10:13:18Z</time>
      </trkpt>
      <trkpt lat="45.16531" lon="3.41219">
        <ele>488.2</ele>
        <time>2021-08-06T10:13:20Z</time>
      </trkpt>
      <trkpt lat="45.16523" lon="3.4122">
        <ele>488.1</ele>
        <time>2021-08-06T10:13:22Z</time>
      </trkpt>
      <trkpt lat="45.16514" lon="3.41221">
        <ele>488.3</ele>
        <time>2021-08-06T10:13:24Z</time>
      </trkpt>
      <trkpt lat="45.16506" lon="3.41223">
        <ele>488.3</ele>
        <time>2021-08-06T10:13:26Z</time>
      </trkpt>
      <trkpt lat="45.16497" lon="3.41223">
        <ele>488.7</ele>
        <time>2021-08-06T10:13:28Z</time>
      </trkpt>
      <trkpt lat="45.16488" lon="3.41221">
        <ele>488.6</ele>
        <time>2021-08-06T10:13:30Z</time>
      </trkpt>
      <trkpt lat="45.1648" lon="3.4122">
        <ele>488.3</ele>
        <time>2021-08-06T10:13:32Z</time>
      </trkpt>
      <trkpt lat="45.16471" lon="3.41218">
        <ele>488.4</ele>
        <time>2021-08-06T10:13:34Z</time>
      </trkpt>
      <trkpt lat="45.16462" lon="3.41216">
        <ele>488.6</ele>
        <time>2021-08-06T10:13:36Z</time>
      </trkpt>
      <trkpt lat="45.16453" lon="3.41213">
        <ele>489</ele>
        <time>2021-08-06T10:13:38Z</time>
      </trkpt>
      <trkpt lat="45.16444" lon="3.4121">
        <ele>489.6</ele>
        <time>2021-08-06T10:13:40Z</time>
      </trkpt>
      <trkpt lat="45.16436" lon="3.41205">
        <ele>490.6</ele>
        <time>2021-08-06T10:13:42Z</time>
      </trkpt>
      <trkpt lat="45.16427" lon="3.412">
        <ele>491.7</ele>
        <time>2021-08-06T10:13:44Z</time>
      </trkpt>
      <trkpt lat="45.16419" lon="3.41195">
        <ele>493.2</ele>
        <time>2021-08-06T10:13:46Z</time>
      </trkpt>
      <trkpt lat="45.16411" lon="3.41189">
        <ele>493.7</ele>
        <time>2021-08-06T10:13:48Z</time>
      </trkpt>
      <trkpt lat="45.16403" lon="3.41183">
        <ele>494</ele>
        <time>2021-08-06T10:13:50Z</time>
      </trkpt>
      <trkpt lat="45.16396" lon="3.41176">
        <ele>494.5</ele>
        <time>2021-08-06T10:13:52Z</time>
      </trkpt>
      <trkpt lat="45.16388" lon="3.4117">
        <ele>494.4</ele>
        <time>2021-08-06T10:13:54Z</time>
      </trkpt>
      <trkpt lat="45.16381" lon="3.41164">
        <ele>494.7</ele>
        <time>2021-08-06T10:13:56Z</time>
      </trkpt>
      <trkpt lat="45.16373" lon="3.41158">
        <ele>495.3</ele>
        <time>2021-08-06T10:13:58Z</time>
      </trkpt>
      <trkpt lat="45.16366" lon="3.41151">
        <ele>495.7</ele>
        <time>2021-08-06T10:14:00Z</time>
      </trkpt>
      <trkpt lat="45.16358" lon="3.41145">
        <ele>496</ele>
        <time>2021-08-06T10:14:02Z</time>
      </trkpt>
      <trkpt lat="45.16351" lon="3.41139">
        <ele>496.3</ele>
        <time>2021-08-06T10:14:04Z</time>
      </trkpt>
      <trkpt lat="45.1634" lon="3.4113">
        <ele>496.7</ele>
        <time>2021-08-06T10:14:07Z</time>
      </trkpt>
      <trkpt lat="45.16336" lon="3.41127">
        <ele>496.6</ele>
        <time>2021-08-06T10:14:08Z</time>
      </trkpt>
      <trkpt lat="45.16329" lon="3.41121">
        <ele>496.6</ele>
        <time>2021-08-06T10:14:10Z</time>
      </trkpt>
      <trkpt lat="45.16323" lon="3.41115">
        <ele>496.7</ele>
        <time>2021-08-06T10:14:12Z</time>
      </trkpt>
      <trkpt lat="45.16317" lon="3.4111">
        <ele>496.4</ele>
        <time>2021-08-06T10:14:14Z</time>
      </trkpt>
      <trkpt lat="45.16311" lon="3.41105">
        <ele>496.1</ele>
        <time>2021-08-06T10:14:16Z</time>
      </trkpt>
      <trkpt lat="45.16304" lon="3.41099">
        <ele>495.8</ele>
        <time>2021-08-06T10:14:18Z</time>
      </trkpt>
      <trkpt lat="45.16298" lon="3.41093">
        <ele>495.3</ele>
        <time>2021-08-06T10:14:20Z</time>
      </trkpt>
      <trkpt lat="45.16292" lon="3.41087">
        <ele>494.8</ele>
        <time>2021-08-06T10:14:22Z</time>
      </trkpt>
      <trkpt lat="45.16287" lon="3.41078">
        <ele>494.9</ele>
        <time>2021-08-06T10:14:24Z</time>
      </trkpt>
      <trkpt lat="45.1628" lon="3.41071">
        <ele>494.5</ele>
        <time>2021-08-06T10:14:26Z</time>
      </trkpt>
      <trkpt lat="45.16273" lon="3.41063">
        <ele>493.8</ele>
        <time>2021-08-06T10:14:28Z</time>
      </trkpt>
      <trkpt lat="45.16266" lon="3.41054">
        <ele>493.5</ele>
        <time>2021-08-06T10:14:30Z</time>
      </trkpt>
      <trkpt lat="45.1626" lon="3.41045">
        <ele>493.3</ele>
        <time>2021-08-06T10:14:32Z</time>
      </trkpt>
      <trkpt lat="45.16253" lon="3.41036">
        <ele>493.3</ele>
        <time>2021-08-06T10:14:34Z</time>
      </trkpt>
      <trkpt lat="45.16246" lon="3.41027">
        <ele>493.7</ele>
        <time>2021-08-06T10:14:36Z</time>
      </trkpt>
      <trkpt lat="45.1624" lon="3.41018">
        <ele>494.3</ele>
        <time>2021-08-06T10:14:38Z</time>
      </trkpt>
      <trkpt lat="45.16232" lon="3.41009">
        <ele>494.6</ele>
        <time>2021-08-06T10:14:40Z</time>
      </trkpt>
      <trkpt lat="45.16225" lon="3.41">
        <ele>494.6</ele>
        <time>2021-08-06T10:14:42Z</time>
      </trkpt>
      <trkpt lat="45.16218" lon="3.4099">
        <ele>495.4</ele>
        <time>2021-08-06T10:14:44Z</time>
      </trkpt>
      <trkpt lat="45.16211" lon="3.40981">
        <ele>496</ele>
        <time>2021-08-06T10:14:46Z</time>
      </trkpt>
      <trkpt lat="45.16204" lon="3.40973">
        <ele>496.2</ele>
        <time>2021-08-06T10:14:48Z</time>
      </trkpt>
      <trkpt lat="45.16196" lon="3.40966">
        <ele>495.7</ele>
        <time>2021-08-06T10:14:50Z</time>
      </trkpt>
      <trkpt lat="45.16188" lon="3.40959">
        <ele>494.9</ele>
        <time>2021-08-06T10:14:52Z</time>
      </trkpt>
      <trkpt lat="45.1618" lon="3.40953">
        <ele>494</ele>
        <time>2021-08-06T10:14:54Z</time>
      </trkpt>
      <trkpt lat="45.16171" lon="3.40947">
        <ele>493</ele>
        <time>2021-08-06T10:14:56Z</time>
      </trkpt>
      <trkpt lat="45.16163" lon="3.40942">
        <ele>491.8</ele>
        <time>2021-08-06T10:14:58Z</time>
      </trkpt>
      <trkpt lat="45.16155" lon="3.40935">
        <ele>491.4</ele>
        <time>2021-08-06T10:15:00Z</time>
      </trkpt>
      <trkpt lat="45.16149" lon="3.40926">
        <ele>491.6</ele>
        <time>2021-08-06T10:15:02Z</time>
      </trkpt>
      <trkpt lat="45.16142" lon="3.40917">
        <ele>491.6</ele>
        <time>2021-08-06T10:15:04Z</time>
      </trkpt>
      <trkpt lat="45.16137" lon="3.40906">
        <ele>492.2</ele>
        <time>2021-08-06T10:15:06Z</time>
      </trkpt>
      <trkpt lat="45.16133" lon="3.40896">
        <ele>492.9</ele>
        <time>2021-08-06T10:15:08Z</time>
      </trkpt>
      <trkpt lat="45.16128" lon="3.40886">
        <ele>493.5</ele>
        <time>2021-08-06T10:15:10Z</time>
      </trkpt>
      <trkpt lat="45.16123" lon="3.40876">
        <ele>493.9</ele>
        <time>2021-08-06T10:15:12Z</time>
      </trkpt>
      <trkpt lat="45.16119" lon="3.40866">
        <ele>494.5</ele>
        <time>2021-08-06T10:15:14Z</time>
      </trkpt>
      <trkpt lat="45.16114" lon="3.40857">
        <ele>494.6</ele>
        <time>2021-08-06T10:15:16Z</time>
      </trkpt>
      <trkpt lat="45.16106" lon="3.40849">
        <ele>493.5</ele>
        <time>2021-08-06T10:15:18Z</time>
      </trkpt>
      <trkpt lat="45.16098" lon="3.40841">
        <ele>491.8</ele>
        <time>2021-08-06T10:15:20Z</time>
      </trkpt>
      <trkpt lat="45.16089" lon="3.40833">
        <ele>490.1</ele>
        <time>2021-08-06T10:15:22Z</time>
      </trkpt>
      <trkpt lat="45.1608" lon="3.40824">
        <ele>489.1</ele>
        <time>2021-08-06T10:15:24Z</time>
      </trkpt>
      <trkpt lat="45.16072" lon="3.40811">
        <ele>489.6</ele>
        <time>2021-08-06T10:15:26Z</time>
      </trkpt>
      <trkpt lat="45.16066" lon="3.40797">
        <ele>490.7</ele>
        <time>2021-08-06T10:15:28Z</time>
      </trkpt>
      <trkpt lat="45.1606" lon="3.40782">
        <ele>491.9</ele>
        <time>2021-08-06T10:15:30Z</time>
      </trkpt>
      <trkpt lat="45.16053" lon="3.40767">
        <ele>492.5</ele>
        <time>2021-08-06T10:15:32Z</time>
      </trkpt>
      <trkpt lat="45.16045" lon="3.40753">
        <ele>492.3</ele>
        <time>2021-08-06T10:15:34Z</time>
      </trkpt>
      <trkpt lat="45.16037" lon="3.40739">
        <ele>491.9</ele>
        <time>2021-08-06T10:15:36Z</time>
      </trkpt>
      <trkpt lat="45.16028" lon="3.40725">
        <ele>491.5</ele>
        <time>2021-08-06T10:15:38Z</time>
      </trkpt>
      <trkpt lat="45.1602" lon="3.40711">
        <ele>491</ele>
        <time>2021-08-06T10:15:40Z</time>
      </trkpt>
      <trkpt lat="45.1601" lon="3.40698">
        <ele>490.1</ele>
        <time>2021-08-06T10:15:42Z</time>
      </trkpt>
      <trkpt lat="45.16001" lon="3.40684">
        <ele>489.2</ele>
        <time>2021-08-06T10:15:44Z</time>
      </trkpt>
      <trkpt lat="45.15992" lon="3.40669">
        <ele>489.3</ele>
        <time>2021-08-06T10:15:46Z</time>
      </trkpt>
      <trkpt lat="45.15983" lon="3.40655">
        <ele>490.1</ele>
        <time>2021-08-06T10:15:48Z</time>
      </trkpt>
      <trkpt lat="45.15974" lon="3.40642">
        <ele>490.6</ele>
        <time>2021-08-06T10:15:50Z</time>
      </trkpt>
      <trkpt lat="45.15963" lon="3.40631">
        <ele>490</ele>
        <time>2021-08-06T10:15:52Z</time>
      </trkpt>
      <trkpt lat="45.15951" lon="3.40623">
        <ele>488.5</ele>
        <time>2021-08-06T10:15:54Z</time>
      </trkpt>
      <trkpt lat="45.15939" lon="3.40615">
        <ele>486.8</ele>
        <time>2021-08-06T10:15:56Z</time>
      </trkpt>
      <trkpt lat="45.15928" lon="3.40606">
        <ele>485.2</ele>
        <time>2021-08-06T10:15:58Z</time>
      </trkpt>
      <trkpt lat="45.15917" lon="3.40594">
        <ele>484.7</ele>
        <time>2021-08-06T10:16:00Z</time>
      </trkpt>
      <trkpt lat="45.15907" lon="3.4058">
        <ele>485.4</ele>
        <time>2021-08-06T10:16:02Z</time>
      </trkpt>
      <trkpt lat="45.15899" lon="3.40564">
        <ele>486.9</ele>
        <time>2021-08-06T10:16:04Z</time>
      </trkpt>
      <trkpt lat="45.15891" lon="3.40548">
        <ele>488.2</ele>
        <time>2021-08-06T10:16:06Z</time>
      </trkpt>
      <trkpt lat="45.15883" lon="3.40533">
        <ele>489.3</ele>
        <time>2021-08-06T10:16:08Z</time>
      </trkpt>
      <trkpt lat="45.15874" lon="3.40518">
        <ele>490.1</ele>
        <time>2021-08-06T10:16:10Z</time>
      </trkpt>
      <trkpt lat="45.15864" lon="3.40504">
        <ele>490.1</ele>
        <time>2021-08-06T10:16:12Z</time>
      </trkpt>
      <trkpt lat="45.15852" lon="3.40493">
        <ele>489.3</ele>
        <time>2021-08-06T10:16:14Z</time>
      </trkpt>
      <trkpt lat="45.15839" lon="3.40488">
        <ele>486.7</ele>
        <time>2021-08-06T10:16:16Z</time>
      </trkpt>
      <trkpt lat="45.15825" lon="3.40486">
        <ele>484.1</ele>
        <time>2021-08-06T10:16:18Z</time>
      </trkpt>
      <trkpt lat="45.15811" lon="3.40482">
        <ele>482.6</ele>
        <time>2021-08-06T10:16:20Z</time>
      </trkpt>
      <trkpt lat="45.15798" lon="3.40473">
        <ele>482.5</ele>
        <time>2021-08-06T10:16:22Z</time>
      </trkpt>
      <trkpt lat="45.15785" lon="3.40464">
        <ele>482.4</ele>
        <time>2021-08-06T10:16:24Z</time>
      </trkpt>
      <trkpt lat="45.15772" lon="3.40455">
        <ele>482.5</ele>
        <time>2021-08-06T10:16:26Z</time>
      </trkpt>
      <trkpt lat="45.1576" lon="3.40444">
        <ele>482.8</ele>
        <time>2021-08-06T10:16:28Z</time>
      </trkpt>
      <trkpt lat="45.15748" lon="3.40434">
        <ele>483.1</ele>
        <time>2021-08-06T10:16:30Z</time>
      </trkpt>
      <trkpt lat="45.15735" lon="3.40426">
        <ele>483.5</ele>
        <time>2021-08-06T10:16:32Z</time>
      </trkpt>
      <trkpt lat="45.15721" lon="3.40424">
        <ele>482.6</ele>
        <time>2021-08-06T10:16:34Z</time>
      </trkpt>
      <trkpt lat="45.15708" lon="3.40424">
        <ele>481.2</ele>
        <time>2021-08-06T10:16:36Z</time>
      </trkpt>
      <trkpt lat="45.15695" lon="3.40427">
        <ele>479.4</ele>
        <time>2021-08-06T10:16:38Z</time>
      </trkpt>
      <trkpt lat="45.15682" lon="3.4043">
        <ele>477.7</ele>
        <time>2021-08-06T10:16:40Z</time>
      </trkpt>
      <trkpt lat="45.15671" lon="3.40432">
        <ele>476.3</ele>
        <time>2021-08-06T10:16:42Z</time>
      </trkpt>
      <trkpt lat="45.1566" lon="3.40435">
        <ele>475.8</ele>
        <time>2021-08-06T10:16:44Z</time>
      </trkpt>
      <trkpt lat="45.15651" lon="3.40437">
        <ele>475.9</ele>
        <time>2021-08-06T10:16:46Z</time>
      </trkpt>
      <trkpt lat="45.15642" lon="3.40438">
        <ele>476.2</ele>
        <time>2021-08-06T10:16:48Z</time>
      </trkpt>
      <trkpt lat="45.15633" lon="3.4044">
        <ele>476.3</ele>
        <time>2021-08-06T10:16:50Z</time>
      </trkpt>
      <trkpt lat="45.15624" lon="3.40442">
        <ele>476.5</ele>
        <time>2021-08-06T10:16:52Z</time>
      </trkpt>
      <trkpt lat="45.15616" lon="3.40444">
        <ele>476.7</ele>
        <time>2021-08-06T10:16:54Z</time>
      </trkpt>
      <trkpt lat="45.15607" lon="3.40446">
        <ele>476.8</ele>
        <time>2021-08-06T10:16:56Z</time>
      </trkpt>
      <trkpt lat="45.156" lon="3.40448">
        <ele>476.8</ele>
        <time>2021-08-06T10:16:58Z</time>
      </trkpt>
      <trkpt lat="45.15593" lon="3.40451">
        <ele>476.9</ele>
        <time>2021-08-06T10:17:00Z</time>
      </trkpt>
      <trkpt lat="45.15587" lon="3.40453">
        <ele>477</ele>
        <time>2021-08-06T10:17:02Z</time>
      </trkpt>
      <trkpt lat="45.15581" lon="3.40454">
        <ele>477.1</ele>
        <time>2021-08-06T10:17:04Z</time>
      </trkpt>
      <trkpt lat="45.15577" lon="3.40456">
        <ele>477.3</ele>
        <time>2021-08-06T10:17:06Z</time>
      </trkpt>
      <trkpt lat="45.15575" lon="3.40458">
        <ele>477.3</ele>
        <time>2021-08-06T10:17:08Z</time>
      </trkpt>
      <trkpt lat="45.15574" lon="3.40459">
        <ele>477.3</ele>
        <time>2021-08-06T10:17:10Z</time>
      </trkpt>
      <trkpt lat="45.15574" lon="3.40459">
        <ele>477.3</ele>
        <time>2021-08-06T10:17:12Z</time>
      </trkpt>
      <trkpt lat="45.15574" lon="3.40459">
        <ele>477.3</ele>
        <time>2021-08-06T10:17:14Z</time>
      </trkpt>
      <trkpt lat="45.15574" lon="3.40459">
        <ele>477.3</ele>
        <time>2021-08-06T10:17:16Z</time>
      </trkpt>
      <trkpt lat="45.15555" lon="3.40478">
        <ele>477.1</ele>
        <time>2021-08-06T10:22:28Z</time>
      </trkpt>
      <trkpt lat="45.15551" lon="3.40481">
        <ele>477.2</ele>
        <time>2021-08-06T10:22:30Z</time>
      </trkpt>
      <trkpt lat="45.15546" lon="3.40486">
        <ele>477.2</ele>
        <time>2021-08-06T10:22:32Z</time>
      </trkpt>
      <trkpt lat="45.15541" lon="3.4049">
        <ele>477.4</ele>
        <time>2021-08-06T10:22:34Z</time>
      </trkpt>
      <trkpt lat="45.15536" lon="3.40495">
        <ele>477.5</ele>
        <time>2021-08-06T10:22:36Z</time>
      </trkpt>
      <trkpt lat="45.1553" lon="3.40501">
        <ele>477.7</ele>
        <time>2021-08-06T10:22:38Z</time>
      </trkpt>
      <trkpt lat="45.15525" lon="3.40506">
        <ele>477.7</ele>
        <time>2021-08-06T10:22:40Z</time>
      </trkpt>
      <trkpt lat="45.15519" lon="3.40511">
        <ele>477.8</ele>
        <time>2021-08-06T10:22:42Z</time>
      </trkpt>
      <trkpt lat="45.15514" lon="3.40516">
        <ele>477.8</ele>
        <time>2021-08-06T10:22:44Z</time>
      </trkpt>
      <trkpt lat="45.15508" lon="3.40521">
        <ele>477.9</ele>
        <time>2021-08-06T10:22:46Z</time>
      </trkpt>
      <trkpt lat="45.15503" lon="3.40526">
        <ele>477.9</ele>
        <time>2021-08-06T10:22:48Z</time>
      </trkpt>
      <trkpt lat="45.15497" lon="3.40531">
        <ele>477.8</ele>
        <time>2021-08-06T10:22:50Z</time>
      </trkpt>
      <trkpt lat="45.15491" lon="3.40537">
        <ele>477.6</ele>
        <time>2021-08-06T10:22:52Z</time>
      </trkpt>
      <trkpt lat="45.15485" lon="3.40543">
        <ele>477.5</ele>
        <time>2021-08-06T10:22:54Z</time>
      </trkpt>
      <trkpt lat="45.15479" lon="3.40548">
        <ele>477.4</ele>
        <time>2021-08-06T10:22:56Z</time>
      </trkpt>
      <trkpt lat="45.15473" lon="3.40554">
        <ele>477.4</ele>
        <time>2021-08-06T10:22:58Z</time>
      </trkpt>
      <trkpt lat="45.15466" lon="3.4056">
        <ele>477.5</ele>
        <time>2021-08-06T10:23:00Z</time>
      </trkpt>
      <trkpt lat="45.1546" lon="3.40566">
        <ele>477.6</ele>
        <time>2021-08-06T10:23:02Z</time>
      </trkpt>
      <trkpt lat="45.15454" lon="3.40571">
        <ele>477.8</ele>
        <time>2021-08-06T10:23:04Z</time>
      </trkpt>
      <trkpt lat="45.15447" lon="3.40578">
        <ele>478.1</ele>
        <time>2021-08-06T10:23:06Z</time>
      </trkpt>
      <trkpt lat="45.15441" lon="3.40584">
        <ele>478.3</ele>
        <time>2021-08-06T10:23:08Z</time>
      </trkpt>
      <trkpt lat="45.15434" lon="3.4059">
        <ele>478.4</ele>
        <time>2021-08-06T10:23:10Z</time>
      </trkpt>
      <trkpt lat="45.15428" lon="3.40596">
        <ele>478.4</ele>
        <time>2021-08-06T10:23:12Z</time>
      </trkpt>
      <trkpt lat="45.15421" lon="3.40603">
        <ele>478.5</ele>
        <time>2021-08-06T10:23:14Z</time>
      </trkpt>
      <trkpt lat="45.15415" lon="3.40608">
        <ele>478.2</ele>
        <time>2021-08-06T10:23:16Z</time>
      </trkpt>
      <trkpt lat="45.15408" lon="3.40615">
        <ele>477.4</ele>
        <time>2021-08-06T10:23:18Z</time>
      </trkpt>
      <trkpt lat="45.15402" lon="3.4062">
        <ele>476.6</ele>
        <time>2021-08-06T10:23:20Z</time>
      </trkpt>
      <trkpt lat="45.15396" lon="3.40626">
        <ele>475.8</ele>
        <time>2021-08-06T10:23:22Z</time>
      </trkpt>
      <trkpt lat="45.15388" lon="3.4063">
        <ele>475.1</ele>
        <time>2021-08-06T10:23:24Z</time>
      </trkpt>
      <trkpt lat="45.15381" lon="3.4063">
        <ele>474.8</ele>
        <time>2021-08-06T10:23:26Z</time>
      </trkpt>
      <trkpt lat="45.15373" lon="3.4063">
        <ele>474.7</ele>
        <time>2021-08-06T10:23:28Z</time>
      </trkpt>
      <trkpt lat="45.15366" lon="3.40628">
        <ele>474.6</ele>
        <time>2021-08-06T10:23:30Z</time>
      </trkpt>
      <trkpt lat="45.15358" lon="3.4062">
        <ele>475.3</ele>
        <time>2021-08-06T10:23:32Z</time>
      </trkpt>
      <trkpt lat="45.15351" lon="3.40614">
        <ele>475.9</ele>
        <time>2021-08-06T10:23:34Z</time>
      </trkpt>
      <trkpt lat="45.15344" lon="3.40606">
        <ele>476.6</ele>
        <time>2021-08-06T10:23:36Z</time>
      </trkpt>
      <trkpt lat="45.15336" lon="3.40597">
        <ele>477.4</ele>
        <time>2021-08-06T10:23:38Z</time>
      </trkpt>
      <trkpt lat="45.15328" lon="3.40588">
        <ele>478.1</ele>
        <time>2021-08-06T10:23:40Z</time>
      </trkpt>
      <trkpt lat="45.15322" lon="3.40581">
        <ele>478.4</ele>
        <time>2021-08-06T10:23:42Z</time>
      </trkpt>
      <trkpt lat="45.15318" lon="3.40574">
        <ele>478.6</ele>
        <time>2021-08-06T10:23:44Z</time>
      </trkpt>
      <trkpt lat="45.15314" lon="3.4057">
        <ele>478.5</ele>
        <time>2021-08-06T10:23:46Z</time>
      </trkpt>
      <trkpt lat="45.15309" lon="3.40566">
        <ele>478.5</ele>
        <time>2021-08-06T10:23:48Z</time>
      </trkpt>
      <trkpt lat="45.15304" lon="3.40562">
        <ele>478.5</ele>
        <time>2021-08-06T10:23:50Z</time>
      </trkpt>
      <trkpt lat="45.15298" lon="3.40556">
        <ele>478.5</ele>
        <time>2021-08-06T10:23:52Z</time>
      </trkpt>
      <trkpt lat="45.15291" lon="3.4055">
        <ele>478.5</ele>
        <time>2021-08-06T10:23:54Z</time>
      </trkpt>
      <trkpt lat="45.15282" lon="3.40544">
        <ele>478.4</ele>
        <time>2021-08-06T10:23:56Z</time>
      </trkpt>
      <trkpt lat="45.15273" lon="3.40538">
        <ele>478.3</ele>
        <time>2021-08-06T10:23:58Z</time>
      </trkpt>
      <trkpt lat="45.15263" lon="3.40533">
        <ele>478.1</ele>
        <time>2021-08-06T10:24:00Z</time>
      </trkpt>
      <trkpt lat="45.15252" lon="3.4053">
        <ele>477.7</ele>
        <time>2021-08-06T10:24:02Z</time>
      </trkpt>
      <trkpt lat="45.15241" lon="3.40529">
        <ele>476.9</ele>
        <time>2021-08-06T10:24:04Z</time>
      </trkpt>
      <trkpt lat="45.15229" lon="3.40527">
        <ele>476.1</ele>
        <time>2021-08-06T10:24:06Z</time>
      </trkpt>
      <trkpt lat="45.15217" lon="3.40525">
        <ele>475.4</ele>
        <time>2021-08-06T10:24:08Z</time>
      </trkpt>
      <trkpt lat="45.15204" lon="3.40524">
        <ele>474.5</ele>
        <time>2021-08-06T10:24:10Z</time>
      </trkpt>
      <trkpt lat="45.15191" lon="3.40522">
        <ele>473.8</ele>
        <time>2021-08-06T10:24:12Z</time>
      </trkpt>
      <trkpt lat="45.15178" lon="3.40519">
        <ele>473</ele>
        <time>2021-08-06T10:24:14Z</time>
      </trkpt>
      <trkpt lat="45.15166" lon="3.40512">
        <ele>472.8</ele>
        <time>2021-08-06T10:24:16Z</time>
      </trkpt>
      <trkpt lat="45.15153" lon="3.40505">
        <ele>471.9</ele>
        <time>2021-08-06T10:24:18Z</time>
      </trkpt>
      <trkpt lat="45.15141" lon="3.40497">
        <ele>471</ele>
        <time>2021-08-06T10:24:20Z</time>
      </trkpt>
      <trkpt lat="45.15128" lon="3.40488">
        <ele>470.1</ele>
        <time>2021-08-06T10:24:22Z</time>
      </trkpt>
      <trkpt lat="45.15117" lon="3.40477">
        <ele>469.3</ele>
        <time>2021-08-06T10:24:24Z</time>
      </trkpt>
      <trkpt lat="45.15106" lon="3.40463">
        <ele>468.8</ele>
        <time>2021-08-06T10:24:26Z</time>
      </trkpt>
      <trkpt lat="45.15098" lon="3.40448">
        <ele>468.5</ele>
        <time>2021-08-06T10:24:28Z</time>
      </trkpt>
      <trkpt lat="45.15091" lon="3.40432">
        <ele>468.3</ele>
        <time>2021-08-06T10:24:30Z</time>
      </trkpt>
      <trkpt lat="45.15082" lon="3.40415">
        <ele>468</ele>
        <time>2021-08-06T10:24:32Z</time>
      </trkpt>
      <trkpt lat="45.15074" lon="3.40399">
        <ele>468</ele>
        <time>2021-08-06T10:24:34Z</time>
      </trkpt>
      <trkpt lat="45.15066" lon="3.40383">
        <ele>468.2</ele>
        <time>2021-08-06T10:24:36Z</time>
      </trkpt>
      <trkpt lat="45.1506" lon="3.40365">
        <ele>468.7</ele>
        <time>2021-08-06T10:24:38Z</time>
      </trkpt>
      <trkpt lat="45.15054" lon="3.40349">
        <ele>469.2</ele>
        <time>2021-08-06T10:24:40Z</time>
      </trkpt>
      <trkpt lat="45.15046" lon="3.40338">
        <ele>469.4</ele>
        <time>2021-08-06T10:24:42Z</time>
      </trkpt>
      <trkpt lat="45.15037" lon="3.4033">
        <ele>469.8</ele>
        <time>2021-08-06T10:24:44Z</time>
      </trkpt>
      <trkpt lat="45.15028" lon="3.40322">
        <ele>470.5</ele>
        <time>2021-08-06T10:24:46Z</time>
      </trkpt>
      <trkpt lat="45.15019" lon="3.40316">
        <ele>470.9</ele>
        <time>2021-08-06T10:24:48Z</time>
      </trkpt>
      <trkpt lat="45.1501" lon="3.4031">
        <ele>471.2</ele>
        <time>2021-08-06T10:24:50Z</time>
      </trkpt>
      <trkpt lat="45.15001" lon="3.40305">
        <ele>471.1</ele>
        <time>2021-08-06T10:24:52Z</time>
      </trkpt>
      <trkpt lat="45.14993" lon="3.40299">
        <ele>470.8</ele>
        <time>2021-08-06T10:24:54Z</time>
      </trkpt>
      <trkpt lat="45.14986" lon="3.40292">
        <ele>470.5</ele>
        <time>2021-08-06T10:24:56Z</time>
      </trkpt>
      <trkpt lat="45.14979" lon="3.40286">
        <ele>470.1</ele>
        <time>2021-08-06T10:24:58Z</time>
      </trkpt>
      <trkpt lat="45.14972" lon="3.4028">
        <ele>469.7</ele>
        <time>2021-08-06T10:25:00Z</time>
      </trkpt>
      <trkpt lat="45.14966" lon="3.40275">
        <ele>469.4</ele>
        <time>2021-08-06T10:25:02Z</time>
      </trkpt>
      <trkpt lat="45.14961" lon="3.40268">
        <ele>469.2</ele>
        <time>2021-08-06T10:25:04Z</time>
      </trkpt>
      <trkpt lat="45.14955" lon="3.40261">
        <ele>468.9</ele>
        <time>2021-08-06T10:25:06Z</time>
      </trkpt>
      <trkpt lat="45.14949" lon="3.40254">
        <ele>468.7</ele>
        <time>2021-08-06T10:25:08Z</time>
      </trkpt>
      <trkpt lat="45.14944" lon="3.40247">
        <ele>468.8</ele>
        <time>2021-08-06T10:25:10Z</time>
      </trkpt>
      <trkpt lat="45.14939" lon="3.40242">
        <ele>469.1</ele>
        <time>2021-08-06T10:25:12Z</time>
      </trkpt>
      <trkpt lat="45.14935" lon="3.40235">
        <ele>469.6</ele>
        <time>2021-08-06T10:25:14Z</time>
      </trkpt>
      <trkpt lat="45.14929" lon="3.40229">
        <ele>469.7</ele>
        <time>2021-08-06T10:25:16Z</time>
      </trkpt>
      <trkpt lat="45.14924" lon="3.40224">
        <ele>469.5</ele>
        <time>2021-08-06T10:25:18Z</time>
      </trkpt>
      <trkpt lat="45.14919" lon="3.40218">
        <ele>469.4</ele>
        <time>2021-08-06T10:25:20Z</time>
      </trkpt>
      <trkpt lat="45.14913" lon="3.40213">
        <ele>469.5</ele>
        <time>2021-08-06T10:25:22Z</time>
      </trkpt>
      <trkpt lat="45.14908" lon="3.40208">
        <ele>469.9</ele>
        <time>2021-08-06T10:25:24Z</time>
      </trkpt>
      <trkpt lat="45.14904" lon="3.40201">
        <ele>470.4</ele>
        <time>2021-08-06T10:25:26Z</time>
      </trkpt>
      <trkpt lat="45.14899" lon="3.40195">
        <ele>470.8</ele>
        <time>2021-08-06T10:25:28Z</time>
      </trkpt>
      <trkpt lat="45.14893" lon="3.4019">
        <ele>470.6</ele>
        <time>2021-08-06T10:25:30Z</time>
      </trkpt>
      <trkpt lat="45.14887" lon="3.40197">
        <ele>469.2</ele>
        <time>2021-08-06T10:25:32Z</time>
      </trkpt>
      <trkpt lat="45.14884" lon="3.40202">
        <ele>468.4</ele>
        <time>2021-08-06T10:25:34Z</time>
      </trkpt>
      <trkpt lat="45.1488" lon="3.40205">
        <ele>467.7</ele>
        <time>2021-08-06T10:25:36Z</time>
      </trkpt>
      <trkpt lat="45.14876" lon="3.40207">
        <ele>467.2</ele>
        <time>2021-08-06T10:25:38Z</time>
      </trkpt>
      <trkpt lat="45.14872" lon="3.4021">
        <ele>466.6</ele>
        <time>2021-08-06T10:25:40Z</time>
      </trkpt>
      <trkpt lat="45.14869" lon="3.40213">
        <ele>466.1</ele>
        <time>2021-08-06T10:25:42Z</time>
      </trkpt>
      <trkpt lat="45.14865" lon="3.40216">
        <ele>465.6</ele>
        <time>2021-08-06T10:25:44Z</time>
      </trkpt>
      <trkpt lat="45.14862" lon="3.40218">
        <ele>465.3</ele>
        <time>2021-08-06T10:25:46Z</time>
      </trkpt>
      <trkpt lat="45.14858" lon="3.40221">
        <ele>464.9</ele>
        <time>2021-08-06T10:25:48Z</time>
      </trkpt>
      <trkpt lat="45.14854" lon="3.40224">
        <ele>464.5</ele>
        <time>2021-08-06T10:25:50Z</time>
      </trkpt>
      <trkpt lat="45.14849" lon="3.40227">
        <ele>464.1</ele>
        <time>2021-08-06T10:25:52Z</time>
      </trkpt>
      <trkpt lat="45.14845" lon="3.4023">
        <ele>463.8</ele>
        <time>2021-08-06T10:25:54Z</time>
      </trkpt>
      <trkpt lat="45.1484" lon="3.40234">
        <ele>463.5</ele>
        <time>2021-08-06T10:25:56Z</time>
      </trkpt>
      <trkpt lat="45.14835" lon="3.40238">
        <ele>463.2</ele>
        <time>2021-08-06T10:25:58Z</time>
      </trkpt>
      <trkpt lat="45.14829" lon="3.40243">
        <ele>463.3</ele>
        <time>2021-08-06T10:26:00Z</time>
      </trkpt>
      <trkpt lat="45.14825" lon="3.40246">
        <ele>463.5</ele>
        <time>2021-08-06T10:26:02Z</time>
      </trkpt>
      <trkpt lat="45.14823" lon="3.40247">
        <ele>463.6</ele>
        <time>2021-08-06T10:26:04Z</time>
      </trkpt>
      <trkpt lat="45.1482" lon="3.4025">
        <ele>463.8</ele>
        <time>2021-08-06T10:26:06Z</time>
      </trkpt>
      <trkpt lat="45.14816" lon="3.40254">
        <ele>464</ele>
        <time>2021-08-06T10:26:08Z</time>
      </trkpt>
      <trkpt lat="45.14812" lon="3.40262">
        <ele>464.2</ele>
        <time>2021-08-06T10:26:10Z</time>
      </trkpt>
      <trkpt lat="45.1481" lon="3.40271">
        <ele>464.2</ele>
        <time>2021-08-06T10:26:12Z</time>
      </trkpt>
      <trkpt lat="45.14808" lon="3.4028">
        <ele>464.2</ele>
        <time>2021-08-06T10:26:14Z</time>
      </trkpt>
      <trkpt lat="45.14807" lon="3.40289">
        <ele>464.1</ele>
        <time>2021-08-06T10:26:16Z</time>
      </trkpt>
      <trkpt lat="45.14808" lon="3.40298">
        <ele>464</ele>
        <time>2021-08-06T10:26:18Z</time>
      </trkpt>
      <trkpt lat="45.1481" lon="3.40307">
        <ele>463.8</ele>
        <time>2021-08-06T10:26:20Z</time>
      </trkpt>
      <trkpt lat="45.14813" lon="3.40315">
        <ele>463.7</ele>
        <time>2021-08-06T10:26:22Z</time>
      </trkpt>
      <trkpt lat="45.14815" lon="3.40323">
        <ele>463.5</ele>
        <time>2021-08-06T10:26:24Z</time>
      </trkpt>
      <trkpt lat="45.14819" lon="3.4033">
        <ele>463.4</ele>
        <time>2021-08-06T10:26:26Z</time>
      </trkpt>
      <trkpt lat="45.14823" lon="3.40336">
        <ele>463.2</ele>
        <time>2021-08-06T10:26:28Z</time>
      </trkpt>
      <trkpt lat="45.14828" lon="3.40342">
        <ele>463</ele>
        <time>2021-08-06T10:26:30Z</time>
      </trkpt>
      <trkpt lat="45.14833" lon="3.40347">
        <ele>462.8</ele>
        <time>2021-08-06T10:26:32Z</time>
      </trkpt>
      <trkpt lat="45.14837" lon="3.40355">
        <ele>462.5</ele>
        <time>2021-08-06T10:26:34Z</time>
      </trkpt>
      <trkpt lat="45.14839" lon="3.40363">
        <ele>462.4</ele>
        <time>2021-08-06T10:26:36Z</time>
      </trkpt>
      <trkpt lat="45.14846" lon="3.40367">
        <ele>462</ele>
        <time>2021-08-06T10:26:38Z</time>
      </trkpt>
      <trkpt lat="45.14852" lon="3.40371">
        <ele>461.7</ele>
        <time>2021-08-06T10:26:40Z</time>
      </trkpt>
      <trkpt lat="45.14856" lon="3.40376">
        <ele>461.6</ele>
        <time>2021-08-06T10:26:42Z</time>
      </trkpt>
      <trkpt lat="45.1486" lon="3.4038">
        <ele>461.4</ele>
        <time>2021-08-06T10:26:44Z</time>
      </trkpt>
      <trkpt lat="45.14864" lon="3.40386">
        <ele>461.2</ele>
        <time>2021-08-06T10:26:46Z</time>
      </trkpt>
      <trkpt lat="45.14868" lon="3.40392">
        <ele>461.1</ele>
        <time>2021-08-06T10:26:48Z</time>
      </trkpt>
      <trkpt lat="45.14871" lon="3.40399">
        <ele>461</ele>
        <time>2021-08-06T10:26:50Z</time>
      </trkpt>
      <trkpt lat="45.14875" lon="3.40407">
        <ele>461</ele>
        <time>2021-08-06T10:26:52Z</time>
      </trkpt>
      <trkpt lat="45.14877" lon="3.40414">
        <ele>460.9</ele>
        <time>2021-08-06T10:26:54Z</time>
      </trkpt>
      <trkpt lat="45.1488" lon="3.4042">
        <ele>461</ele>
        <time>2021-08-06T10:26:56Z</time>
      </trkpt>
      <trkpt lat="45.14882" lon="3.40425">
        <ele>461.1</ele>
        <time>2021-08-06T10:26:58Z</time>
      </trkpt>
      <trkpt lat="45.14884" lon="3.40429">
        <ele>461.3</ele>
        <time>2021-08-06T10:27:00Z</time>
      </trkpt>
      <trkpt lat="45.14887" lon="3.40435">
        <ele>461.4</ele>
        <time>2021-08-06T10:27:02Z</time>
      </trkpt>
      <trkpt lat="45.1489" lon="3.40441">
        <ele>461.6</ele>
        <time>2021-08-06T10:27:04Z</time>
      </trkpt>
      <trkpt lat="45.14892" lon="3.40447">
        <ele>461.8</ele>
        <time>2021-08-06T10:27:06Z</time>
      </trkpt>
      <trkpt lat="45.14895" lon="3.40454">
        <ele>462.1</ele>
        <time>2021-08-06T10:27:08Z</time>
      </trkpt>
      <trkpt lat="45.14897" lon="3.4046">
        <ele>462.3</ele>
        <time>2021-08-06T10:27:10Z</time>
      </trkpt>
      <trkpt lat="45.14899" lon="3.40465">
        <ele>462.5</ele>
        <time>2021-08-06T10:27:12Z</time>
      </trkpt>
      <trkpt lat="45.14902" lon="3.4047">
        <ele>462.7</ele>
        <time>2021-08-06T10:27:14Z</time>
      </trkpt>
      <trkpt lat="45.14903" lon="3.40475">
        <ele>462.9</ele>
        <time>2021-08-06T10:27:16Z</time>
      </trkpt>
      <trkpt lat="45.14904" lon="3.40479">
        <ele>463.1</ele>
        <time>2021-08-06T10:27:18Z</time>
      </trkpt>
      <trkpt lat="45.14906" lon="3.40477">
        <ele>463</ele>
        <time>2021-08-06T10:27:20Z</time>
      </trkpt>
      <trkpt lat="45.14905" lon="3.40475">
        <ele>462.9</ele>
        <time>2021-08-06T10:27:22Z</time>
      </trkpt>
      <trkpt lat="45.14904" lon="3.40473">
        <ele>462.8</ele>
        <time>2021-08-06T10:27:24Z</time>
      </trkpt>
      <trkpt lat="45.14902" lon="3.4047">
        <ele>462.7</ele>
        <time>2021-08-06T10:27:26Z</time>
      </trkpt>
      <trkpt lat="45.14901" lon="3.40467">
        <ele>462.5</ele>
        <time>2021-08-06T10:27:28Z</time>
      </trkpt>
      <trkpt lat="45.14899" lon="3.40463">
        <ele>462.4</ele>
        <time>2021-08-06T10:27:30Z</time>
      </trkpt>
      <trkpt lat="45.14897" lon="3.40459">
        <ele>462.3</ele>
        <time>2021-08-06T10:27:32Z</time>
      </trkpt>
      <trkpt lat="45.14897" lon="3.40458">
        <ele>462.2</ele>
        <time>2021-08-06T10:27:34Z</time>
      </trkpt>
      <trkpt lat="45.14897" lon="3.40455">
        <ele>462.1</ele>
        <time>2021-08-06T10:27:36Z</time>
      </trkpt>
      <trkpt lat="45.14895" lon="3.40455">
        <ele>462.1</ele>
        <time>2021-08-06T10:27:38Z</time>
      </trkpt>
      <trkpt lat="45.14894" lon="3.40456">
        <ele>462.2</ele>
        <time>2021-08-06T10:27:40Z</time>
      </trkpt>
      <trkpt lat="45.14893" lon="3.40456">
        <ele>462.2</ele>
        <time>2021-08-06T10:27:42Z</time>
      </trkpt>
      <trkpt lat="45.14883" lon="3.40431">
        <ele>461.3</ele>
        <time>2021-08-06T10:28:18Z</time>
      </trkpt>
      <trkpt lat="45.14881" lon="3.40425">
        <ele>461.2</ele>
        <time>2021-08-06T10:28:20Z</time>
      </trkpt>
      <trkpt lat="45.14878" lon="3.40419">
        <ele>461</ele>
        <time>2021-08-06T10:28:22Z</time>
      </trkpt>
      <trkpt lat="45.14875" lon="3.40413">
        <ele>461</ele>
        <time>2021-08-06T10:28:24Z</time>
      </trkpt>
      <trkpt lat="45.14872" lon="3.40406">
        <ele>461</ele>
        <time>2021-08-06T10:28:26Z</time>
      </trkpt>
      <trkpt lat="45.14869" lon="3.40399">
        <ele>461.1</ele>
        <time>2021-08-06T10:28:28Z</time>
      </trkpt>
      <trkpt lat="45.14866" lon="3.40393">
        <ele>461.2</ele>
        <time>2021-08-06T10:28:30Z</time>
      </trkpt>
      <trkpt lat="45.14861" lon="3.40387">
        <ele>461.3</ele>
        <time>2021-08-06T10:28:32Z</time>
      </trkpt>
      <trkpt lat="45.14857" lon="3.40381">
        <ele>461.5</ele>
        <time>2021-08-06T10:28:34Z</time>
      </trkpt>
      <trkpt lat="45.1485" lon="3.40376">
        <ele>461.8</ele>
        <time>2021-08-06T10:28:36Z</time>
      </trkpt>
      <trkpt lat="45.14843" lon="3.40371">
        <ele>462.1</ele>
        <time>2021-08-06T10:28:38Z</time>
      </trkpt>
      <trkpt lat="45.14839" lon="3.4037">
        <ele>462.3</ele>
        <time>2021-08-06T10:28:40Z</time>
      </trkpt>
      <trkpt lat="45.1484" lon="3.4036">
        <ele>462.4</ele>
        <time>2021-08-06T10:28:42Z</time>
      </trkpt>
      <trkpt lat="45.14836" lon="3.40354">
        <ele>462.6</ele>
        <time>2021-08-06T10:28:44Z</time>
      </trkpt>
      <trkpt lat="45.14831" lon="3.40349">
        <ele>462.8</ele>
        <time>2021-08-06T10:28:46Z</time>
      </trkpt>
      <trkpt lat="45.14826" lon="3.40343">
        <ele>463</ele>
        <time>2021-08-06T10:28:48Z</time>
      </trkpt>
      <trkpt lat="45.14823" lon="3.40337">
        <ele>463.2</ele>
        <time>2021-08-06T10:28:50Z</time>
      </trkpt>
      <trkpt lat="45.14821" lon="3.40332">
        <ele>463.3</ele>
        <time>2021-08-06T10:28:52Z</time>
      </trkpt>
      <trkpt lat="45.14821" lon="3.40327">
        <ele>463.3</ele>
        <time>2021-08-06T10:28:54Z</time>
      </trkpt>
      <trkpt lat="45.14819" lon="3.40326">
        <ele>463.4</ele>
        <time>2021-08-06T10:28:56Z</time>
      </trkpt>
      <trkpt lat="45.14818" lon="3.40324">
        <ele>463.4</ele>
        <time>2021-08-06T10:28:58Z</time>
      </trkpt>
      <trkpt lat="45.14817" lon="3.40322">
        <ele>463.5</ele>
        <time>2021-08-06T10:29:00Z</time>
      </trkpt>
      <trkpt lat="45.14817" lon="3.40319">
        <ele>463.5</ele>
        <time>2021-08-06T10:29:02Z</time>
      </trkpt>
      <trkpt lat="45.14818" lon="3.40315">
        <ele>463.5</ele>
        <time>2021-08-06T10:29:04Z</time>
      </trkpt>
      <trkpt lat="45.14823" lon="3.40311">
        <ele>463.3</ele>
        <time>2021-08-06T10:29:06Z</time>
      </trkpt>
      <trkpt lat="45.14829" lon="3.40311">
        <ele>463.1</ele>
        <time>2021-08-06T10:29:08Z</time>
      </trkpt>
      <trkpt lat="45.14833" lon="3.40308">
        <ele>463</ele>
        <time>2021-08-06T10:29:10Z</time>
      </trkpt>
      <trkpt lat="45.14835" lon="3.40304">
        <ele>462.9</ele>
        <time>2021-08-06T10:29:12Z</time>
      </trkpt>
      <trkpt lat="45.14835" lon="3.40304">
        <ele>463</ele>
        <time>2021-08-06T10:29:14Z</time>
      </trkpt>
      <trkpt lat="45.14835" lon="3.40304">
        <ele>463</ele>
        <time>2021-08-06T10:29:16Z</time>
      </trkpt>
      <trkpt lat="45.14835" lon="3.40304">
        <ele>462.9</ele>
        <time>2021-08-06T10:29:18Z</time>
      </trkpt>
      <trkpt lat="45.14835" lon="3.40303">
        <ele>462.9</ele>
        <time>2021-08-06T10:29:20Z</time>
      </trkpt>
      <trkpt lat="45.14835" lon="3.40303">
        <ele>462.9</ele>
        <time>2021-08-06T10:29:22Z</time>
      </trkpt>
      <trkpt lat="45.14744" lon="3.40397">
        <ele>461.5</ele>
        <time>2021-08-06T13:24:05Z</time>
      </trkpt>
      <trkpt lat="45.14742" lon="3.40392">
        <ele>462</ele>
        <time>2021-08-06T13:24:07Z</time>
      </trkpt>
      <trkpt lat="45.14737" lon="3.40389">
        <ele>462.3</ele>
        <time>2021-08-06T13:24:09Z</time>
      </trkpt>
      <trkpt lat="45.14733" lon="3.40386">
        <ele>462.7</ele>
        <time>2021-08-06T13:24:11Z</time>
      </trkpt>
      <trkpt lat="45.1473" lon="3.40382">
        <ele>463</ele>
        <time>2021-08-06T13:24:13Z</time>
      </trkpt>
      <trkpt lat="45.14725" lon="3.40381">
        <ele>463.2</ele>
        <time>2021-08-06T13:24:15Z</time>
      </trkpt>
      <trkpt lat="45.14723" lon="3.4038">
        <ele>463.3</ele>
        <time>2021-08-06T13:24:17Z</time>
      </trkpt>
      <trkpt lat="45.14721" lon="3.40379">
        <ele>463.4</ele>
        <time>2021-08-06T13:24:19Z</time>
      </trkpt>
      <trkpt lat="45.14719" lon="3.40378">
        <ele>463.5</ele>
        <time>2021-08-06T13:24:21Z</time>
      </trkpt>
      <trkpt lat="45.14717" lon="3.40378">
        <ele>463.6</ele>
        <time>2021-08-06T13:24:23Z</time>
      </trkpt>
      <trkpt lat="45.14715" lon="3.40377">
        <ele>463.7</ele>
        <time>2021-08-06T13:24:25Z</time>
      </trkpt>
      <trkpt lat="45.14713" lon="3.40375">
        <ele>463.8</ele>
        <time>2021-08-06T13:24:27Z</time>
      </trkpt>
      <trkpt lat="45.1471" lon="3.40372">
        <ele>464</ele>
        <time>2021-08-06T13:24:29Z</time>
      </trkpt>
      <trkpt lat="45.14707" lon="3.40371">
        <ele>464.1</ele>
        <time>2021-08-06T13:24:31Z</time>
      </trkpt>
      <trkpt lat="45.14704" lon="3.4037">
        <ele>464.2</ele>
        <time>2021-08-06T13:24:33Z</time>
      </trkpt>
      <trkpt lat="45.147" lon="3.40369">
        <ele>464.3</ele>
        <time>2021-08-06T13:24:35Z</time>
      </trkpt>
      <trkpt lat="45.14698" lon="3.40366">
        <ele>464.4</ele>
        <time>2021-08-06T13:24:37Z</time>
      </trkpt>
      <trkpt lat="45.14695" lon="3.40361">
        <ele>464.4</ele>
        <time>2021-08-06T13:24:39Z</time>
      </trkpt>
      <trkpt lat="45.14691" lon="3.40356">
        <ele>464.5</ele>
        <time>2021-08-06T13:24:41Z</time>
      </trkpt>
      <trkpt lat="45.14688" lon="3.40352">
        <ele>464.5</ele>
        <time>2021-08-06T13:24:43Z</time>
      </trkpt>
      <trkpt lat="45.14685" lon="3.40346">
        <ele>464.4</ele>
        <time>2021-08-06T13:24:45Z</time>
      </trkpt>
      <trkpt lat="45.14682" lon="3.40341">
        <ele>464.3</ele>
        <time>2021-08-06T13:24:47Z</time>
      </trkpt>
      <trkpt lat="45.14679" lon="3.40336">
        <ele>464.2</ele>
        <time>2021-08-06T13:24:49Z</time>
      </trkpt>
      <trkpt lat="45.14676" lon="3.4033">
        <ele>464.1</ele>
        <time>2021-08-06T13:24:51Z</time>
      </trkpt>
      <trkpt lat="45.14672" lon="3.40325">
        <ele>464</ele>
        <time>2021-08-06T13:24:53Z</time>
      </trkpt>
      <trkpt lat="45.14669" lon="3.40322">
        <ele>463.9</ele>
        <time>2021-08-06T13:24:55Z</time>
      </trkpt>
      <trkpt lat="45.14666" lon="3.4032">
        <ele>463.9</ele>
        <time>2021-08-06T13:24:57Z</time>
      </trkpt>
      <trkpt lat="45.14663" lon="3.40318">
        <ele>464.2</ele>
        <time>2021-08-06T13:24:59Z</time>
      </trkpt>
      <trkpt lat="45.14659" lon="3.40318">
        <ele>464.5</ele>
        <time>2021-08-06T13:25:01Z</time>
      </trkpt>
      <trkpt lat="45.14656" lon="3.4032">
        <ele>464.7</ele>
        <time>2021-08-06T13:25:03Z</time>
      </trkpt>
      <trkpt lat="45.14653" lon="3.4032">
        <ele>465</ele>
        <time>2021-08-06T13:25:05Z</time>
      </trkpt>
      <trkpt lat="45.1465" lon="3.4032">
        <ele>465.3</ele>
        <time>2021-08-06T13:25:07Z</time>
      </trkpt>
      <trkpt lat="45.14647" lon="3.4032">
        <ele>465.5</ele>
        <time>2021-08-06T13:25:09Z</time>
      </trkpt>
      <trkpt lat="45.14645" lon="3.40321">
        <ele>465.7</ele>
        <time>2021-08-06T13:25:11Z</time>
      </trkpt>
      <trkpt lat="45.14643" lon="3.40323">
        <ele>465.9</ele>
        <time>2021-08-06T13:25:13Z</time>
      </trkpt>
      <trkpt lat="45.1464" lon="3.40328">
        <ele>466.2</ele>
        <time>2021-08-06T13:25:15Z</time>
      </trkpt>
      <trkpt lat="45.1464" lon="3.40334">
        <ele>466.3</ele>
        <time>2021-08-06T13:25:17Z</time>
      </trkpt>
      <trkpt lat="45.14639" lon="3.40338">
        <ele>466.4</ele>
        <time>2021-08-06T13:25:19Z</time>
      </trkpt>
      <trkpt lat="45.14639" lon="3.40342">
        <ele>466.6</ele>
        <time>2021-08-06T13:25:21Z</time>
      </trkpt>
      <trkpt lat="45.14639" lon="3.40346">
        <ele>466.7</ele>
        <time>2021-08-06T13:25:23Z</time>
      </trkpt>
      <trkpt lat="45.14639" lon="3.4035">
        <ele>466.7</ele>
        <time>2021-08-06T13:25:25Z</time>
      </trkpt>
      <trkpt lat="45.1464" lon="3.40353">
        <ele>466.8</ele>
        <time>2021-08-06T13:25:27Z</time>
      </trkpt>
      <trkpt lat="45.1464" lon="3.40358">
        <ele>466.8</ele>
        <time>2021-08-06T13:25:29Z</time>
      </trkpt>
      <trkpt lat="45.14639" lon="3.40363">
        <ele>467</ele>
        <time>2021-08-06T13:25:31Z</time>
      </trkpt>
      <trkpt lat="45.14638" lon="3.40368">
        <ele>467.2</ele>
        <time>2021-08-06T13:25:33Z</time>
      </trkpt>
      <trkpt lat="45.14637" lon="3.40374">
        <ele>467.4</ele>
        <time>2021-08-06T13:25:35Z</time>
      </trkpt>
      <trkpt lat="45.14636" lon="3.40382">
        <ele>467.7</ele>
        <time>2021-08-06T13:25:37Z</time>
      </trkpt>
      <trkpt lat="45.14635" lon="3.40388">
        <ele>467.9</ele>
        <time>2021-08-06T13:25:39Z</time>
      </trkpt>
      <trkpt lat="45.14634" lon="3.40395">
        <ele>468.1</ele>
        <time>2021-08-06T13:25:41Z</time>
      </trkpt>
      <trkpt lat="45.14632" lon="3.40402">
        <ele>468.4</ele>
        <time>2021-08-06T13:25:43Z</time>
      </trkpt>
      <trkpt lat="45.1463" lon="3.40409">
        <ele>468.6</ele>
        <time>2021-08-06T13:25:45Z</time>
      </trkpt>
      <trkpt lat="45.14628" lon="3.40415">
        <ele>468.8</ele>
        <time>2021-08-06T13:25:47Z</time>
      </trkpt>
      <trkpt lat="45.14627" lon="3.40421">
        <ele>468.9</ele>
        <time>2021-08-06T13:25:49Z</time>
      </trkpt>
      <trkpt lat="45.14625" lon="3.40428">
        <ele>468.9</ele>
        <time>2021-08-06T13:25:51Z</time>
      </trkpt>
      <trkpt lat="45.14622" lon="3.40434">
        <ele>469</ele>
        <time>2021-08-06T13:25:53Z</time>
      </trkpt>
      <trkpt lat="45.1462" lon="3.4044">
        <ele>469</ele>
        <time>2021-08-06T13:25:55Z</time>
      </trkpt>
      <trkpt lat="45.14617" lon="3.40446">
        <ele>469</ele>
        <time>2021-08-06T13:25:57Z</time>
      </trkpt>
      <trkpt lat="45.14614" lon="3.40453">
        <ele>469</ele>
        <time>2021-08-06T13:25:59Z</time>
      </trkpt>
      <trkpt lat="45.14612" lon="3.40458">
        <ele>469</ele>
        <time>2021-08-06T13:26:01Z</time>
      </trkpt>
      <trkpt lat="45.14609" lon="3.40463">
        <ele>468.9</ele>
        <time>2021-08-06T13:26:03Z</time>
      </trkpt>
      <trkpt lat="45.14607" lon="3.40468">
        <ele>468.9</ele>
        <time>2021-08-06T13:26:05Z</time>
      </trkpt>
      <trkpt lat="45.14605" lon="3.40473">
        <ele>468.8</ele>
        <time>2021-08-06T13:26:07Z</time>
      </trkpt>
      <trkpt lat="45.14603" lon="3.40476">
        <ele>468.8</ele>
        <time>2021-08-06T13:26:09Z</time>
      </trkpt>
      <trkpt lat="45.146" lon="3.4048">
        <ele>468.7</ele>
        <time>2021-08-06T13:26:11Z</time>
      </trkpt>
      <trkpt lat="45.14597" lon="3.40485">
        <ele>468.5</ele>
        <time>2021-08-06T13:26:13Z</time>
      </trkpt>
      <trkpt lat="45.14594" lon="3.40491">
        <ele>468.4</ele>
        <time>2021-08-06T13:26:15Z</time>
      </trkpt>
      <trkpt lat="45.14591" lon="3.40495">
        <ele>468.2</ele>
        <time>2021-08-06T13:26:17Z</time>
      </trkpt>
      <trkpt lat="45.14586" lon="3.40499">
        <ele>468.1</ele>
        <time>2021-08-06T13:26:19Z</time>
      </trkpt>
      <trkpt lat="45.14582" lon="3.40504">
        <ele>468.1</ele>
        <time>2021-08-06T13:26:21Z</time>
      </trkpt>
      <trkpt lat="45.14579" lon="3.40508">
        <ele>468.5</ele>
        <time>2021-08-06T13:26:23Z</time>
      </trkpt>
      <trkpt lat="45.14575" lon="3.40512">
        <ele>468.9</ele>
        <time>2021-08-06T13:26:25Z</time>
      </trkpt>
      <trkpt lat="45.1457" lon="3.40516">
        <ele>469.3</ele>
        <time>2021-08-06T13:26:27Z</time>
      </trkpt>
      <trkpt lat="45.14566" lon="3.40519">
        <ele>469.8</ele>
        <time>2021-08-06T13:26:29Z</time>
      </trkpt>
      <trkpt lat="45.14561" lon="3.40523">
        <ele>470.2</ele>
        <time>2021-08-06T13:26:31Z</time>
      </trkpt>
      <trkpt lat="45.14557" lon="3.40525">
        <ele>470.6</ele>
        <time>2021-08-06T13:26:33Z</time>
      </trkpt>
      <trkpt lat="45.14552" lon="3.40527">
        <ele>471</ele>
        <time>2021-08-06T13:26:35Z</time>
      </trkpt>
      <trkpt lat="45.14547" lon="3.40531">
        <ele>471.4</ele>
        <time>2021-08-06T13:26:37Z</time>
      </trkpt>
      <trkpt lat="45.14542" lon="3.40534">
        <ele>471.8</ele>
        <time>2021-08-06T13:26:39Z</time>
      </trkpt>
      <trkpt lat="45.14537" lon="3.40537">
        <ele>472.3</ele>
        <time>2021-08-06T13:26:41Z</time>
      </trkpt>
      <trkpt lat="45.14532" lon="3.40539">
        <ele>472.7</ele>
        <time>2021-08-06T13:26:43Z</time>
      </trkpt>
      <trkpt lat="45.14527" lon="3.40542">
        <ele>473.1</ele>
        <time>2021-08-06T13:26:45Z</time>
      </trkpt>
      <trkpt lat="45.14522" lon="3.40545">
        <ele>473.4</ele>
        <time>2021-08-06T13:26:47Z</time>
      </trkpt>
      <trkpt lat="45.14517" lon="3.40548">
        <ele>473.8</ele>
        <time>2021-08-06T13:26:49Z</time>
      </trkpt>
      <trkpt lat="45.14512" lon="3.4055">
        <ele>474.2</ele>
        <time>2021-08-06T13:26:51Z</time>
      </trkpt>
      <trkpt lat="45.14507" lon="3.40552">
        <ele>474.6</ele>
        <time>2021-08-06T13:26:53Z</time>
      </trkpt>
      <trkpt lat="45.14502" lon="3.40554">
        <ele>474.9</ele>
        <time>2021-08-06T13:26:55Z</time>
      </trkpt>
      <trkpt lat="45.14496" lon="3.40555">
        <ele>475</ele>
        <time>2021-08-06T13:26:57Z</time>
      </trkpt>
      <trkpt lat="45.1449" lon="3.40556">
        <ele>474.9</ele>
        <time>2021-08-06T13:26:59Z</time>
      </trkpt>
      <trkpt lat="45.14484" lon="3.40559">
        <ele>474.8</ele>
        <time>2021-08-06T13:27:01Z</time>
      </trkpt>
      <trkpt lat="45.14478" lon="3.40561">
        <ele>474.6</ele>
        <time>2021-08-06T13:27:03Z</time>
      </trkpt>
      <trkpt lat="45.14473" lon="3.40565">
        <ele>474.4</ele>
        <time>2021-08-06T13:27:05Z</time>
      </trkpt>
      <trkpt lat="45.14466" lon="3.4057">
        <ele>474.2</ele>
        <time>2021-08-06T13:27:07Z</time>
      </trkpt>
      <trkpt lat="45.14461" lon="3.40575">
        <ele>473.9</ele>
        <time>2021-08-06T13:27:09Z</time>
      </trkpt>
      <trkpt lat="45.14456" lon="3.40582">
        <ele>473.5</ele>
        <time>2021-08-06T13:27:11Z</time>
      </trkpt>
      <trkpt lat="45.14451" lon="3.40588">
        <ele>473.8</ele>
        <time>2021-08-06T13:27:13Z</time>
      </trkpt>
      <trkpt lat="45.14447" lon="3.40593">
        <ele>474.2</ele>
        <time>2021-08-06T13:27:15Z</time>
      </trkpt>
      <trkpt lat="45.14443" lon="3.406">
        <ele>474.7</ele>
        <time>2021-08-06T13:27:17Z</time>
      </trkpt>
      <trkpt lat="45.1444" lon="3.40608">
        <ele>475.4</ele>
        <time>2021-08-06T13:27:19Z</time>
      </trkpt>
      <trkpt lat="45.14441" lon="3.40617">
        <ele>476.1</ele>
        <time>2021-08-06T13:27:21Z</time>
      </trkpt>
      <trkpt lat="45.14444" lon="3.40624">
        <ele>476.8</ele>
        <time>2021-08-06T13:27:23Z</time>
      </trkpt>
      <trkpt lat="45.14449" lon="3.40631">
        <ele>477.3</ele>
        <time>2021-08-06T13:27:25Z</time>
      </trkpt>
      <trkpt lat="45.14454" lon="3.40636">
        <ele>477.6</ele>
        <time>2021-08-06T13:27:27Z</time>
      </trkpt>
      <trkpt lat="45.14459" lon="3.4064">
        <ele>477.9</ele>
        <time>2021-08-06T13:27:29Z</time>
      </trkpt>
      <trkpt lat="45.14462" lon="3.40643">
        <ele>478.1</ele>
        <time>2021-08-06T13:27:31Z</time>
      </trkpt>
      <trkpt lat="45.14467" lon="3.40645">
        <ele>478.2</ele>
        <time>2021-08-06T13:27:33Z</time>
      </trkpt>
      <trkpt lat="45.14471" lon="3.40648">
        <ele>478.3</ele>
        <time>2021-08-06T13:27:35Z</time>
      </trkpt>
      <trkpt lat="45.14477" lon="3.4065">
        <ele>478.4</ele>
        <time>2021-08-06T13:27:37Z</time>
      </trkpt>
      <trkpt lat="45.14482" lon="3.40653">
        <ele>478.5</ele>
        <time>2021-08-06T13:27:39Z</time>
      </trkpt>
      <trkpt lat="45.14487" lon="3.40654">
        <ele>478.5</ele>
        <time>2021-08-06T13:27:41Z</time>
      </trkpt>
      <trkpt lat="45.14492" lon="3.40654">
        <ele>478.4</ele>
        <time>2021-08-06T13:27:43Z</time>
      </trkpt>
      <trkpt lat="45.14497" lon="3.40656">
        <ele>478.4</ele>
        <time>2021-08-06T13:27:45Z</time>
      </trkpt>
      <trkpt lat="45.14502" lon="3.40656">
        <ele>478.2</ele>
        <time>2021-08-06T13:27:47Z</time>
      </trkpt>
      <trkpt lat="45.14507" lon="3.40657">
        <ele>478</ele>
        <time>2021-08-06T13:27:49Z</time>
      </trkpt>
      <trkpt lat="45.14512" lon="3.40659">
        <ele>477.7</ele>
        <time>2021-08-06T13:27:51Z</time>
      </trkpt>
      <trkpt lat="45.14516" lon="3.4066">
        <ele>477.4</ele>
        <time>2021-08-06T13:27:53Z</time>
      </trkpt>
      <trkpt lat="45.14521" lon="3.40664">
        <ele>477.3</ele>
        <time>2021-08-06T13:27:55Z</time>
      </trkpt>
      <trkpt lat="45.14526" lon="3.40667">
        <ele>477.1</ele>
        <time>2021-08-06T13:27:57Z</time>
      </trkpt>
      <trkpt lat="45.1453" lon="3.40672">
        <ele>477</ele>
        <time>2021-08-06T13:27:59Z</time>
      </trkpt>
      <trkpt lat="45.14534" lon="3.40678">
        <ele>477</ele>
        <time>2021-08-06T13:28:01Z</time>
      </trkpt>
      <trkpt lat="45.14538" lon="3.40683">
        <ele>476.9</ele>
        <time>2021-08-06T13:28:03Z</time>
      </trkpt>
      <trkpt lat="45.14542" lon="3.40689">
        <ele>476.9</ele>
        <time>2021-08-06T13:28:05Z</time>
      </trkpt>
      <trkpt lat="45.14546" lon="3.40696">
        <ele>477</ele>
        <time>2021-08-06T13:28:07Z</time>
      </trkpt>
      <trkpt lat="45.14549" lon="3.40702">
        <ele>477</ele>
        <time>2021-08-06T13:28:09Z</time>
      </trkpt>
      <trkpt lat="45.14552" lon="3.4071">
        <ele>477.1</ele>
        <time>2021-08-06T13:28:11Z</time>
      </trkpt>
      <trkpt lat="45.14555" lon="3.40718">
        <ele>477.3</ele>
        <time>2021-08-06T13:28:13Z</time>
      </trkpt>
      <trkpt lat="45.14558" lon="3.40727">
        <ele>477.5</ele>
        <time>2021-08-06T13:28:15Z</time>
      </trkpt>
      <trkpt lat="45.1456" lon="3.40736">
        <ele>477.8</ele>
        <time>2021-08-06T13:28:17Z</time>
      </trkpt>
      <trkpt lat="45.14561" lon="3.40746">
        <ele>478.1</ele>
        <time>2021-08-06T13:28:19Z</time>
      </trkpt>
      <trkpt lat="45.14563" lon="3.40757">
        <ele>478.2</ele>
        <time>2021-08-06T13:28:21Z</time>
      </trkpt>
      <trkpt lat="45.14563" lon="3.40767">
        <ele>478</ele>
        <time>2021-08-06T13:28:23Z</time>
      </trkpt>
      <trkpt lat="45.14563" lon="3.40778">
        <ele>477.9</ele>
        <time>2021-08-06T13:28:25Z</time>
      </trkpt>
      <trkpt lat="45.14564" lon="3.40789">
        <ele>477.7</ele>
        <time>2021-08-06T13:28:27Z</time>
      </trkpt>
      <trkpt lat="45.14563" lon="3.408">
        <ele>477.6</ele>
        <time>2021-08-06T13:28:29Z</time>
      </trkpt>
      <trkpt lat="45.14563" lon="3.40812">
        <ele>477.5</ele>
        <time>2021-08-06T13:28:31Z</time>
      </trkpt>
      <trkpt lat="45.14563" lon="3.40824">
        <ele>477.3</ele>
        <time>2021-08-06T13:28:33Z</time>
      </trkpt>
      <trkpt lat="45.14564" lon="3.40837">
        <ele>477.2</ele>
        <time>2021-08-06T13:28:35Z</time>
      </trkpt>
      <trkpt lat="45.14563" lon="3.4085">
        <ele>477.1</ele>
        <time>2021-08-06T13:28:37Z</time>
      </trkpt>
      <trkpt lat="45.14563" lon="3.40863">
        <ele>477.1</ele>
        <time>2021-08-06T13:28:39Z</time>
      </trkpt>
      <trkpt lat="45.14564" lon="3.40876">
        <ele>477</ele>
        <time>2021-08-06T13:28:41Z</time>
      </trkpt>
      <trkpt lat="45.14564" lon="3.40889">
        <ele>477</ele>
        <time>2021-08-06T13:28:43Z</time>
      </trkpt>
      <trkpt lat="45.14564" lon="3.40903">
        <ele>476.9</ele>
        <time>2021-08-06T13:28:45Z</time>
      </trkpt>
      <trkpt lat="45.14564" lon="3.40916">
        <ele>476.9</ele>
        <time>2021-08-06T13:28:47Z</time>
      </trkpt>
      <trkpt lat="45.14563" lon="3.4093">
        <ele>477.1</ele>
        <time>2021-08-06T13:28:49Z</time>
      </trkpt>
      <trkpt lat="45.14564" lon="3.40944">
        <ele>477.2</ele>
        <time>2021-08-06T13:28:51Z</time>
      </trkpt>
      <trkpt lat="45.14563" lon="3.40958">
        <ele>477.4</ele>
        <time>2021-08-06T13:28:53Z</time>
      </trkpt>
      <trkpt lat="45.14563" lon="3.40972">
        <ele>477.6</ele>
        <time>2021-08-06T13:28:55Z</time>
      </trkpt>
      <trkpt lat="45.14562" lon="3.40987">
        <ele>477.9</ele>
        <time>2021-08-06T13:28:57Z</time>
      </trkpt>
      <trkpt lat="45.1456" lon="3.41001">
        <ele>478.2</ele>
        <time>2021-08-06T13:28:59Z</time>
      </trkpt>
      <trkpt lat="45.14558" lon="3.41015">
        <ele>477.6</ele>
        <time>2021-08-06T13:29:01Z</time>
      </trkpt>
      <trkpt lat="45.14555" lon="3.41029">
        <ele>477</ele>
        <time>2021-08-06T13:29:03Z</time>
      </trkpt>
      <trkpt lat="45.14551" lon="3.41042">
        <ele>476.5</ele>
        <time>2021-08-06T13:29:05Z</time>
      </trkpt>
      <trkpt lat="45.14547" lon="3.41056">
        <ele>476.2</ele>
        <time>2021-08-06T13:29:07Z</time>
      </trkpt>
      <trkpt lat="45.14541" lon="3.41068">
        <ele>475.9</ele>
        <time>2021-08-06T13:29:09Z</time>
      </trkpt>
      <trkpt lat="45.14535" lon="3.4108">
        <ele>475.9</ele>
        <time>2021-08-06T13:29:11Z</time>
      </trkpt>
      <trkpt lat="45.14527" lon="3.41091">
        <ele>475.7</ele>
        <time>2021-08-06T13:29:13Z</time>
      </trkpt>
      <trkpt lat="45.14519" lon="3.411">
        <ele>475.6</ele>
        <time>2021-08-06T13:29:15Z</time>
      </trkpt>
      <trkpt lat="45.1451" lon="3.4111">
        <ele>475.3</ele>
        <time>2021-08-06T13:29:17Z</time>
      </trkpt>
      <trkpt lat="45.14499" lon="3.4112">
        <ele>475.2</ele>
        <time>2021-08-06T13:29:19Z</time>
      </trkpt>
      <trkpt lat="45.14489" lon="3.4113">
        <ele>475.9</ele>
        <time>2021-08-06T13:29:21Z</time>
      </trkpt>
      <trkpt lat="45.14479" lon="3.41142">
        <ele>476.7</ele>
        <time>2021-08-06T13:29:23Z</time>
      </trkpt>
      <trkpt lat="45.14468" lon="3.41155">
        <ele>477.8</ele>
        <time>2021-08-06T13:29:25Z</time>
      </trkpt>
      <trkpt lat="45.14457" lon="3.41168">
        <ele>479.3</ele>
        <time>2021-08-06T13:29:27Z</time>
      </trkpt>
      <trkpt lat="45.14447" lon="3.41183">
        <ele>480.9</ele>
        <time>2021-08-06T13:29:29Z</time>
      </trkpt>
      <trkpt lat="45.14439" lon="3.41201">
        <ele>482.2</ele>
        <time>2021-08-06T13:29:31Z</time>
      </trkpt>
      <trkpt lat="45.14433" lon="3.4122">
        <ele>483</ele>
        <time>2021-08-06T13:29:33Z</time>
      </trkpt>
      <trkpt lat="45.14427" lon="3.4124">
        <ele>483.7</ele>
        <time>2021-08-06T13:29:35Z</time>
      </trkpt>
      <trkpt lat="45.14423" lon="3.41262">
        <ele>484</ele>
        <time>2021-08-06T13:29:37Z</time>
      </trkpt>
      <trkpt lat="45.1442" lon="3.41284">
        <ele>483.9</ele>
        <time>2021-08-06T13:29:39Z</time>
      </trkpt>
      <trkpt lat="45.14419" lon="3.41306">
        <ele>483.5</ele>
        <time>2021-08-06T13:29:41Z</time>
      </trkpt>
      <trkpt lat="45.14417" lon="3.41329">
        <ele>483</ele>
        <time>2021-08-06T13:29:43Z</time>
      </trkpt>
      <trkpt lat="45.14416" lon="3.41353">
        <ele>482.6</ele>
        <time>2021-08-06T13:29:45Z</time>
      </trkpt>
      <trkpt lat="45.14415" lon="3.41376">
        <ele>481.9</ele>
        <time>2021-08-06T13:29:47Z</time>
      </trkpt>
      <trkpt lat="45.14417" lon="3.414">
        <ele>480.6</ele>
        <time>2021-08-06T13:29:49Z</time>
      </trkpt>
      <trkpt lat="45.14419" lon="3.41424">
        <ele>479.5</ele>
        <time>2021-08-06T13:29:51Z</time>
      </trkpt>
      <trkpt lat="45.14421" lon="3.41448">
        <ele>478.5</ele>
        <time>2021-08-06T13:29:53Z</time>
      </trkpt>
      <trkpt lat="45.14424" lon="3.41472">
        <ele>477.7</ele>
        <time>2021-08-06T13:29:55Z</time>
      </trkpt>
      <trkpt lat="45.14426" lon="3.41495">
        <ele>476.9</ele>
        <time>2021-08-06T13:29:57Z</time>
      </trkpt>
      <trkpt lat="45.14428" lon="3.41517">
        <ele>478.4</ele>
        <time>2021-08-06T13:29:59Z</time>
      </trkpt>
      <trkpt lat="45.14429" lon="3.41538">
        <ele>480.4</ele>
        <time>2021-08-06T13:30:01Z</time>
      </trkpt>
      <trkpt lat="45.14431" lon="3.41559">
        <ele>482.3</ele>
        <time>2021-08-06T13:30:03Z</time>
      </trkpt>
      <trkpt lat="45.14432" lon="3.4158">
        <ele>483.9</ele>
        <time>2021-08-06T13:30:05Z</time>
      </trkpt>
      <trkpt lat="45.14434" lon="3.41599">
        <ele>484.5</ele>
        <time>2021-08-06T13:30:07Z</time>
      </trkpt>
      <trkpt lat="45.14436" lon="3.41618">
        <ele>484.8</ele>
        <time>2021-08-06T13:30:09Z</time>
      </trkpt>
      <trkpt lat="45.14437" lon="3.41636">
        <ele>485.1</ele>
        <time>2021-08-06T13:30:11Z</time>
      </trkpt>
      <trkpt lat="45.14439" lon="3.41653">
        <ele>485.1</ele>
        <time>2021-08-06T13:30:13Z</time>
      </trkpt>
      <trkpt lat="45.14441" lon="3.41669">
        <ele>485.1</ele>
        <time>2021-08-06T13:30:15Z</time>
      </trkpt>
      <trkpt lat="45.14443" lon="3.41684">
        <ele>486.8</ele>
        <time>2021-08-06T13:30:17Z</time>
      </trkpt>
      <trkpt lat="45.14446" lon="3.41699">
        <ele>487.9</ele>
        <time>2021-08-06T13:30:19Z</time>
      </trkpt>
      <trkpt lat="45.14449" lon="3.41715">
        <ele>488.7</ele>
        <time>2021-08-06T13:30:21Z</time>
      </trkpt>
      <trkpt lat="45.14452" lon="3.4173">
        <ele>489.3</ele>
        <time>2021-08-06T13:30:23Z</time>
      </trkpt>
      <trkpt lat="45.14456" lon="3.41746">
        <ele>489.4</ele>
        <time>2021-08-06T13:30:25Z</time>
      </trkpt>
      <trkpt lat="45.14459" lon="3.41761">
        <ele>490</ele>
        <time>2021-08-06T13:30:27Z</time>
      </trkpt>
      <trkpt lat="45.14462" lon="3.41777">
        <ele>490.4</ele>
        <time>2021-08-06T13:30:29Z</time>
      </trkpt>
      <trkpt lat="45.14466" lon="3.41794">
        <ele>490.7</ele>
        <time>2021-08-06T13:30:31Z</time>
      </trkpt>
      <trkpt lat="45.14469" lon="3.41811">
        <ele>491.1</ele>
        <time>2021-08-06T13:30:33Z</time>
      </trkpt>
      <trkpt lat="45.14473" lon="3.41828">
        <ele>490.9</ele>
        <time>2021-08-06T13:30:35Z</time>
      </trkpt>
      <trkpt lat="45.14478" lon="3.41845">
        <ele>489.4</ele>
        <time>2021-08-06T13:30:37Z</time>
      </trkpt>
      <trkpt lat="45.14484" lon="3.41861">
        <ele>486.7</ele>
        <time>2021-08-06T13:30:39Z</time>
      </trkpt>
      <trkpt lat="45.14489" lon="3.41878">
        <ele>484.7</ele>
        <time>2021-08-06T13:30:41Z</time>
      </trkpt>
      <trkpt lat="45.14494" lon="3.41895">
        <ele>483.1</ele>
        <time>2021-08-06T13:30:43Z</time>
      </trkpt>
      <trkpt lat="45.14498" lon="3.41912">
        <ele>482.1</ele>
        <time>2021-08-06T13:30:45Z</time>
      </trkpt>
      <trkpt lat="45.145" lon="3.4193">
        <ele>482.8</ele>
        <time>2021-08-06T13:30:47Z</time>
      </trkpt>
      <trkpt lat="45.14503" lon="3.41947">
        <ele>484.7</ele>
        <time>2021-08-06T13:30:49Z</time>
      </trkpt>
      <trkpt lat="45.14505" lon="3.41965">
        <ele>486.7</ele>
        <time>2021-08-06T13:30:51Z</time>
      </trkpt>
      <trkpt lat="45.14507" lon="3.41982">
        <ele>488.7</ele>
        <time>2021-08-06T13:30:53Z</time>
      </trkpt>
      <trkpt lat="45.14508" lon="3.41999">
        <ele>490.5</ele>
        <time>2021-08-06T13:30:55Z</time>
      </trkpt>
      <trkpt lat="45.14511" lon="3.42015">
        <ele>493</ele>
        <time>2021-08-06T13:30:57Z</time>
      </trkpt>
      <trkpt lat="45.14514" lon="3.42031">
        <ele>494.8</ele>
        <time>2021-08-06T13:30:59Z</time>
      </trkpt>
      <trkpt lat="45.14519" lon="3.42045">
        <ele>495.6</ele>
        <time>2021-08-06T13:31:01Z</time>
      </trkpt>
      <trkpt lat="45.14523" lon="3.42058">
        <ele>496.2</ele>
        <time>2021-08-06T13:31:03Z</time>
      </trkpt>
      <trkpt lat="45.14528" lon="3.4207">
        <ele>495.9</ele>
        <time>2021-08-06T13:31:05Z</time>
      </trkpt>
      <trkpt lat="45.14534" lon="3.4208">
        <ele>494.5</ele>
        <time>2021-08-06T13:31:07Z</time>
      </trkpt>
      <trkpt lat="45.14541" lon="3.42091">
        <ele>493.4</ele>
        <time>2021-08-06T13:31:09Z</time>
      </trkpt>
      <trkpt lat="45.14549" lon="3.421">
        <ele>492</ele>
        <time>2021-08-06T13:31:11Z</time>
      </trkpt>
      <trkpt lat="45.14556" lon="3.42109">
        <ele>490.1</ele>
        <time>2021-08-06T13:31:13Z</time>
      </trkpt>
      <trkpt lat="45.14565" lon="3.42115">
        <ele>487.6</ele>
        <time>2021-08-06T13:31:15Z</time>
      </trkpt>
      <trkpt lat="45.14573" lon="3.42122">
        <ele>485.3</ele>
        <time>2021-08-06T13:31:17Z</time>
      </trkpt>
      <trkpt lat="45.14581" lon="3.42128">
        <ele>482.8</ele>
        <time>2021-08-06T13:31:19Z</time>
      </trkpt>
      <trkpt lat="45.14589" lon="3.42132">
        <ele>481.5</ele>
        <time>2021-08-06T13:31:21Z</time>
      </trkpt>
      <trkpt lat="45.14597" lon="3.42137">
        <ele>480.7</ele>
        <time>2021-08-06T13:31:23Z</time>
      </trkpt>
      <trkpt lat="45.14606" lon="3.42143">
        <ele>480</ele>
        <time>2021-08-06T13:31:25Z</time>
      </trkpt>
      <trkpt lat="45.14614" lon="3.4215">
        <ele>479.2</ele>
        <time>2021-08-06T13:31:27Z</time>
      </trkpt>
      <trkpt lat="45.14622" lon="3.42158">
        <ele>478.3</ele>
        <time>2021-08-06T13:31:29Z</time>
      </trkpt>
      <trkpt lat="45.14629" lon="3.42166">
        <ele>477.3</ele>
        <time>2021-08-06T13:31:31Z</time>
      </trkpt>
      <trkpt lat="45.14636" lon="3.42176">
        <ele>477.1</ele>
        <time>2021-08-06T13:31:33Z</time>
      </trkpt>
      <trkpt lat="45.14643" lon="3.42186">
        <ele>477</ele>
        <time>2021-08-06T13:31:35Z</time>
      </trkpt>
      <trkpt lat="45.14648" lon="3.42197">
        <ele>477</ele>
        <time>2021-08-06T13:31:37Z</time>
      </trkpt>
      <trkpt lat="45.14653" lon="3.42208">
        <ele>477.1</ele>
        <time>2021-08-06T13:31:39Z</time>
      </trkpt>
      <trkpt lat="45.14658" lon="3.42219">
        <ele>477.1</ele>
        <time>2021-08-06T13:31:41Z</time>
      </trkpt>
      <trkpt lat="45.14662" lon="3.42231">
        <ele>477.3</ele>
        <time>2021-08-06T13:31:43Z</time>
      </trkpt>
      <trkpt lat="45.14665" lon="3.42245">
        <ele>478</ele>
        <time>2021-08-06T13:31:45Z</time>
      </trkpt>
      <trkpt lat="45.14667" lon="3.42258">
        <ele>478.2</ele>
        <time>2021-08-06T13:31:47Z</time>
      </trkpt>
      <trkpt lat="45.14669" lon="3.42272">
        <ele>478.5</ele>
        <time>2021-08-06T13:31:49Z</time>
      </trkpt>
      <trkpt lat="45.14669" lon="3.42287">
        <ele>478.9</ele>
        <time>2021-08-06T13:31:51Z</time>
      </trkpt>
      <trkpt lat="45.14669" lon="3.42302">
        <ele>479.4</ele>
        <time>2021-08-06T13:31:53Z</time>
      </trkpt>
      <trkpt lat="45.14669" lon="3.42316">
        <ele>480</ele>
        <time>2021-08-06T13:31:55Z</time>
      </trkpt>
      <trkpt lat="45.14669" lon="3.4233">
        <ele>480.5</ele>
        <time>2021-08-06T13:31:57Z</time>
      </trkpt>
      <trkpt lat="45.14669" lon="3.42344">
        <ele>480.2</ele>
        <time>2021-08-06T13:31:59Z</time>
      </trkpt>
      <trkpt lat="45.1467" lon="3.42357">
        <ele>479.7</ele>
        <time>2021-08-06T13:32:01Z</time>
      </trkpt>
      <trkpt lat="45.14671" lon="3.42371">
        <ele>479.1</ele>
        <time>2021-08-06T13:32:03Z</time>
      </trkpt>
      <trkpt lat="45.14673" lon="3.42384">
        <ele>478.4</ele>
        <time>2021-08-06T13:32:05Z</time>
      </trkpt>
      <trkpt lat="45.14677" lon="3.42396">
        <ele>477.5</ele>
        <time>2021-08-06T13:32:07Z</time>
      </trkpt>
      <trkpt lat="45.1468" lon="3.42409">
        <ele>476.7</ele>
        <time>2021-08-06T13:32:09Z</time>
      </trkpt>
      <trkpt lat="45.14685" lon="3.4242">
        <ele>476</ele>
        <time>2021-08-06T13:32:11Z</time>
      </trkpt>
      <trkpt lat="45.1469" lon="3.42431">
        <ele>475.3</ele>
        <time>2021-08-06T13:32:13Z</time>
      </trkpt>
      <trkpt lat="45.14695" lon="3.42441">
        <ele>474.7</ele>
        <time>2021-08-06T13:32:15Z</time>
      </trkpt>
      <trkpt lat="45.14701" lon="3.42449">
        <ele>474.2</ele>
        <time>2021-08-06T13:32:17Z</time>
      </trkpt>
      <trkpt lat="45.14706" lon="3.42457">
        <ele>473.9</ele>
        <time>2021-08-06T13:32:19Z</time>
      </trkpt>
      <trkpt lat="45.14712" lon="3.42464">
        <ele>473.6</ele>
        <time>2021-08-06T13:32:21Z</time>
      </trkpt>
      <trkpt lat="45.14718" lon="3.42471">
        <ele>473.4</ele>
        <time>2021-08-06T13:32:23Z</time>
      </trkpt>
      <trkpt lat="45.14725" lon="3.42476">
        <ele>473.4</ele>
        <time>2021-08-06T13:32:25Z</time>
      </trkpt>
      <trkpt lat="45.1473" lon="3.42483">
        <ele>473.4</ele>
        <time>2021-08-06T13:32:27Z</time>
      </trkpt>
      <trkpt lat="45.14736" lon="3.42489">
        <ele>473.5</ele>
        <time>2021-08-06T13:32:29Z</time>
      </trkpt>
      <trkpt lat="45.14741" lon="3.42495">
        <ele>473.8</ele>
        <time>2021-08-06T13:32:31Z</time>
      </trkpt>
      <trkpt lat="45.14746" lon="3.42501">
        <ele>474</ele>
        <time>2021-08-06T13:32:33Z</time>
      </trkpt>
      <trkpt lat="45.14751" lon="3.42507">
        <ele>474.1</ele>
        <time>2021-08-06T13:32:35Z</time>
      </trkpt>
      <trkpt lat="45.14755" lon="3.42513">
        <ele>474.4</ele>
        <time>2021-08-06T13:32:37Z</time>
      </trkpt>
      <trkpt lat="45.14759" lon="3.4252">
        <ele>474.7</ele>
        <time>2021-08-06T13:32:39Z</time>
      </trkpt>
      <trkpt lat="45.14763" lon="3.42526">
        <ele>475</ele>
        <time>2021-08-06T13:32:41Z</time>
      </trkpt>
      <trkpt lat="45.14766" lon="3.42534">
        <ele>475.3</ele>
        <time>2021-08-06T13:32:43Z</time>
      </trkpt>
      <trkpt lat="45.1477" lon="3.42541">
        <ele>475.7</ele>
        <time>2021-08-06T13:32:45Z</time>
      </trkpt>
      <trkpt lat="45.14772" lon="3.42548">
        <ele>476</ele>
        <time>2021-08-06T13:32:47Z</time>
      </trkpt>
      <trkpt lat="45.14775" lon="3.42555">
        <ele>476.3</ele>
        <time>2021-08-06T13:32:49Z</time>
      </trkpt>
      <trkpt lat="45.14777" lon="3.42563">
        <ele>476.7</ele>
        <time>2021-08-06T13:32:51Z</time>
      </trkpt>
      <trkpt lat="45.14778" lon="3.4257">
        <ele>477</ele>
        <time>2021-08-06T13:32:53Z</time>
      </trkpt>
      <trkpt lat="45.14779" lon="3.42577">
        <ele>477.3</ele>
        <time>2021-08-06T13:32:55Z</time>
      </trkpt>
      <trkpt lat="45.14781" lon="3.42585">
        <ele>477.6</ele>
        <time>2021-08-06T13:32:57Z</time>
      </trkpt>
      <trkpt lat="45.14781" lon="3.42592">
        <ele>478</ele>
        <time>2021-08-06T13:32:59Z</time>
      </trkpt>
      <trkpt lat="45.14782" lon="3.42599">
        <ele>478.3</ele>
        <time>2021-08-06T13:33:01Z</time>
      </trkpt>
      <trkpt lat="45.14782" lon="3.42606">
        <ele>478.6</ele>
        <time>2021-08-06T13:33:03Z</time>
      </trkpt>
      <trkpt lat="45.14782" lon="3.42613">
        <ele>478.8</ele>
        <time>2021-08-06T13:33:05Z</time>
      </trkpt>
      <trkpt lat="45.14782" lon="3.4262">
        <ele>479.1</ele>
        <time>2021-08-06T13:33:07Z</time>
      </trkpt>
      <trkpt lat="45.14782" lon="3.42627">
        <ele>479.3</ele>
        <time>2021-08-06T13:33:09Z</time>
      </trkpt>
      <trkpt lat="45.14781" lon="3.42634">
        <ele>479.5</ele>
        <time>2021-08-06T13:33:11Z</time>
      </trkpt>
      <trkpt lat="45.1478" lon="3.4264">
        <ele>479.7</ele>
        <time>2021-08-06T13:33:13Z</time>
      </trkpt>
      <trkpt lat="45.14779" lon="3.42647">
        <ele>479.8</ele>
        <time>2021-08-06T13:33:15Z</time>
      </trkpt>
      <trkpt lat="45.14779" lon="3.42653">
        <ele>480</ele>
        <time>2021-08-06T13:33:17Z</time>
      </trkpt>
      <trkpt lat="45.14778" lon="3.42659">
        <ele>480.1</ele>
        <time>2021-08-06T13:33:19Z</time>
      </trkpt>
      <trkpt lat="45.14777" lon="3.42666">
        <ele>480.2</ele>
        <time>2021-08-06T13:33:21Z</time>
      </trkpt>
      <trkpt lat="45.14776" lon="3.42673">
        <ele>480.4</ele>
        <time>2021-08-06T13:33:23Z</time>
      </trkpt>
      <trkpt lat="45.14775" lon="3.42679">
        <ele>480.6</ele>
        <time>2021-08-06T13:33:25Z</time>
      </trkpt>
      <trkpt lat="45.14774" lon="3.42685">
        <ele>480.8</ele>
        <time>2021-08-06T13:33:27Z</time>
      </trkpt>
      <trkpt lat="45.14773" lon="3.42692">
        <ele>481</ele>
        <time>2021-08-06T13:33:29Z</time>
      </trkpt>
      <trkpt lat="45.14773" lon="3.42699">
        <ele>481.3</ele>
        <time>2021-08-06T13:33:31Z</time>
      </trkpt>
      <trkpt lat="45.14772" lon="3.42705">
        <ele>481.4</ele>
        <time>2021-08-06T13:33:33Z</time>
      </trkpt>
      <trkpt lat="45.14771" lon="3.42711">
        <ele>481.7</ele>
        <time>2021-08-06T13:33:35Z</time>
      </trkpt>
      <trkpt lat="45.1477" lon="3.42717">
        <ele>481.9</ele>
        <time>2021-08-06T13:33:37Z</time>
      </trkpt>
      <trkpt lat="45.14769" lon="3.42723">
        <ele>482</ele>
        <time>2021-08-06T13:33:39Z</time>
      </trkpt>
      <trkpt lat="45.14768" lon="3.4273">
        <ele>482.2</ele>
        <time>2021-08-06T13:33:41Z</time>
      </trkpt>
      <trkpt lat="45.14767" lon="3.42736">
        <ele>482.3</ele>
        <time>2021-08-06T13:33:43Z</time>
      </trkpt>
      <trkpt lat="45.14765" lon="3.42742">
        <ele>482.4</ele>
        <time>2021-08-06T13:33:45Z</time>
      </trkpt>
      <trkpt lat="45.14763" lon="3.42748">
        <ele>482.5</ele>
        <time>2021-08-06T13:33:47Z</time>
      </trkpt>
      <trkpt lat="45.14761" lon="3.42754">
        <ele>482.7</ele>
        <time>2021-08-06T13:33:49Z</time>
      </trkpt>
      <trkpt lat="45.14759" lon="3.42761">
        <ele>483</ele>
        <time>2021-08-06T13:33:51Z</time>
      </trkpt>
      <trkpt lat="45.14757" lon="3.42766">
        <ele>483.3</ele>
        <time>2021-08-06T13:33:53Z</time>
      </trkpt>
      <trkpt lat="45.14754" lon="3.42772">
        <ele>483.5</ele>
        <time>2021-08-06T13:33:55Z</time>
      </trkpt>
      <trkpt lat="45.14751" lon="3.42777">
        <ele>483.7</ele>
        <time>2021-08-06T13:33:57Z</time>
      </trkpt>
      <trkpt lat="45.14748" lon="3.42782">
        <ele>483.9</ele>
        <time>2021-08-06T13:33:59Z</time>
      </trkpt>
      <trkpt lat="45.14745" lon="3.42787">
        <ele>484.2</ele>
        <time>2021-08-06T13:34:01Z</time>
      </trkpt>
      <trkpt lat="45.14741" lon="3.42792">
        <ele>484.4</ele>
        <time>2021-08-06T13:34:03Z</time>
      </trkpt>
      <trkpt lat="45.14738" lon="3.42797">
        <ele>484.5</ele>
        <time>2021-08-06T13:34:05Z</time>
      </trkpt>
      <trkpt lat="45.14735" lon="3.42801">
        <ele>484.6</ele>
        <time>2021-08-06T13:34:07Z</time>
      </trkpt>
      <trkpt lat="45.14731" lon="3.42805">
        <ele>484.7</ele>
        <time>2021-08-06T13:34:09Z</time>
      </trkpt>
      <trkpt lat="45.14727" lon="3.42809">
        <ele>484.8</ele>
        <time>2021-08-06T13:34:11Z</time>
      </trkpt>
      <trkpt lat="45.14724" lon="3.42813">
        <ele>484.8</ele>
        <time>2021-08-06T13:34:13Z</time>
      </trkpt>
      <trkpt lat="45.1472" lon="3.42818">
        <ele>484.9</ele>
        <time>2021-08-06T13:34:15Z</time>
      </trkpt>
      <trkpt lat="45.14717" lon="3.42821">
        <ele>484.8</ele>
        <time>2021-08-06T13:34:17Z</time>
      </trkpt>
      <trkpt lat="45.14713" lon="3.42826">
        <ele>484.8</ele>
        <time>2021-08-06T13:34:19Z</time>
      </trkpt>
      <trkpt lat="45.14709" lon="3.4283">
        <ele>484.8</ele>
        <time>2021-08-06T13:34:21Z</time>
      </trkpt>
      <trkpt lat="45.14706" lon="3.42834">
        <ele>484.8</ele>
        <time>2021-08-06T13:34:23Z</time>
      </trkpt>
      <trkpt lat="45.14703" lon="3.42838">
        <ele>484.9</ele>
        <time>2021-08-06T13:34:25Z</time>
      </trkpt>
      <trkpt lat="45.147" lon="3.42843">
        <ele>485</ele>
        <time>2021-08-06T13:34:27Z</time>
      </trkpt>
      <trkpt lat="45.14696" lon="3.42847">
        <ele>485.1</ele>
        <time>2021-08-06T13:34:29Z</time>
      </trkpt>
      <trkpt lat="45.14693" lon="3.42852">
        <ele>485.2</ele>
        <time>2021-08-06T13:34:31Z</time>
      </trkpt>
      <trkpt lat="45.1469" lon="3.42856">
        <ele>485.3</ele>
        <time>2021-08-06T13:34:33Z</time>
      </trkpt>
      <trkpt lat="45.14688" lon="3.42862">
        <ele>485.6</ele>
        <time>2021-08-06T13:34:35Z</time>
      </trkpt>
      <trkpt lat="45.14684" lon="3.42868">
        <ele>485.8</ele>
        <time>2021-08-06T13:34:37Z</time>
      </trkpt>
      <trkpt lat="45.14682" lon="3.42873">
        <ele>486.1</ele>
        <time>2021-08-06T13:34:39Z</time>
      </trkpt>
      <trkpt lat="45.14679" lon="3.42879">
        <ele>486.4</ele>
        <time>2021-08-06T13:34:41Z</time>
      </trkpt>
      <trkpt lat="45.14677" lon="3.42885">
        <ele>486.8</ele>
        <time>2021-08-06T13:34:43Z</time>
      </trkpt>
      <trkpt lat="45.14676" lon="3.4289">
        <ele>487.2</ele>
        <time>2021-08-06T13:34:45Z</time>
      </trkpt>
      <trkpt lat="45.14674" lon="3.42895">
        <ele>487.5</ele>
        <time>2021-08-06T13:34:47Z</time>
      </trkpt>
      <trkpt lat="45.14674" lon="3.429">
        <ele>488</ele>
        <time>2021-08-06T13:34:49Z</time>
      </trkpt>
      <trkpt lat="45.14673" lon="3.42905">
        <ele>488.4</ele>
        <time>2021-08-06T13:34:51Z</time>
      </trkpt>
      <trkpt lat="45.14672" lon="3.42911">
        <ele>488.8</ele>
        <time>2021-08-06T13:34:53Z</time>
      </trkpt>
      <trkpt lat="45.14671" lon="3.42917">
        <ele>489.3</ele>
        <time>2021-08-06T13:34:55Z</time>
      </trkpt>
      <trkpt lat="45.14671" lon="3.42923">
        <ele>489.6</ele>
        <time>2021-08-06T13:34:57Z</time>
      </trkpt>
      <trkpt lat="45.14675" lon="3.42927">
        <ele>490</ele>
        <time>2021-08-06T13:34:59Z</time>
      </trkpt>
      <trkpt lat="45.14679" lon="3.42927">
        <ele>490.3</ele>
        <time>2021-08-06T13:35:01Z</time>
      </trkpt>
      <trkpt lat="45.14682" lon="3.42924">
        <ele>490.4</ele>
        <time>2021-08-06T13:35:03Z</time>
      </trkpt>
      <trkpt lat="45.14686" lon="3.42924">
        <ele>490.7</ele>
        <time>2021-08-06T13:35:05Z</time>
      </trkpt>
      <trkpt lat="45.14691" lon="3.42925">
        <ele>491.1</ele>
        <time>2021-08-06T13:35:07Z</time>
      </trkpt>
      <trkpt lat="45.14695" lon="3.42923">
        <ele>491.3</ele>
        <time>2021-08-06T13:35:09Z</time>
      </trkpt>
      <trkpt lat="45.14699" lon="3.42921">
        <ele>491.5</ele>
        <time>2021-08-06T13:35:11Z</time>
      </trkpt>
      <trkpt lat="45.14703" lon="3.42919">
        <ele>491.7</ele>
        <time>2021-08-06T13:35:13Z</time>
      </trkpt>
      <trkpt lat="45.14707" lon="3.42917">
        <ele>491.9</ele>
        <time>2021-08-06T13:35:15Z</time>
      </trkpt>
      <trkpt lat="45.14711" lon="3.42915">
        <ele>492</ele>
        <time>2021-08-06T13:35:17Z</time>
      </trkpt>
      <trkpt lat="45.14715" lon="3.42913">
        <ele>492.2</ele>
        <time>2021-08-06T13:35:19Z</time>
      </trkpt>
      <trkpt lat="45.14719" lon="3.42911">
        <ele>492.4</ele>
        <time>2021-08-06T13:35:21Z</time>
      </trkpt>
      <trkpt lat="45.14724" lon="3.42909">
        <ele>492.5</ele>
        <time>2021-08-06T13:35:23Z</time>
      </trkpt>
      <trkpt lat="45.14728" lon="3.42907">
        <ele>492.7</ele>
        <time>2021-08-06T13:35:25Z</time>
      </trkpt>
      <trkpt lat="45.14732" lon="3.42905">
        <ele>492.8</ele>
        <time>2021-08-06T13:35:27Z</time>
      </trkpt>
      <trkpt lat="45.14736" lon="3.42903">
        <ele>493</ele>
        <time>2021-08-06T13:35:29Z</time>
      </trkpt>
      <trkpt lat="45.1474" lon="3.42902">
        <ele>493.2</ele>
        <time>2021-08-06T13:35:31Z</time>
      </trkpt>
      <trkpt lat="45.14744" lon="3.42899">
        <ele>493.3</ele>
        <time>2021-08-06T13:35:33Z</time>
      </trkpt>
      <trkpt lat="45.14749" lon="3.42899">
        <ele>493.6</ele>
        <time>2021-08-06T13:35:35Z</time>
      </trkpt>
      <trkpt lat="45.14753" lon="3.42897">
        <ele>493.8</ele>
        <time>2021-08-06T13:35:37Z</time>
      </trkpt>
      <trkpt lat="45.14757" lon="3.42895">
        <ele>494</ele>
        <time>2021-08-06T13:35:39Z</time>
      </trkpt>
      <trkpt lat="45.14761" lon="3.42894">
        <ele>494.2</ele>
        <time>2021-08-06T13:35:41Z</time>
      </trkpt>
      <trkpt lat="45.14765" lon="3.42892">
        <ele>494.3</ele>
        <time>2021-08-06T13:35:43Z</time>
      </trkpt>
      <trkpt lat="45.14769" lon="3.4289">
        <ele>494.5</ele>
        <time>2021-08-06T13:35:45Z</time>
      </trkpt>
      <trkpt lat="45.14774" lon="3.4289">
        <ele>494.8</ele>
        <time>2021-08-06T13:35:47Z</time>
      </trkpt>
      <trkpt lat="45.14778" lon="3.42888">
        <ele>495</ele>
        <time>2021-08-06T13:35:49Z</time>
      </trkpt>
      <trkpt lat="45.14783" lon="3.42887">
        <ele>495.2</ele>
        <time>2021-08-06T13:35:51Z</time>
      </trkpt>
      <trkpt lat="45.14787" lon="3.42886">
        <ele>495.4</ele>
        <time>2021-08-06T13:35:53Z</time>
      </trkpt>
      <trkpt lat="45.1479" lon="3.42884">
        <ele>495.6</ele>
        <time>2021-08-06T13:35:55Z</time>
      </trkpt>
      <trkpt lat="45.14794" lon="3.42883">
        <ele>495.8</ele>
        <time>2021-08-06T13:35:57Z</time>
      </trkpt>
      <trkpt lat="45.14798" lon="3.42883">
        <ele>496</ele>
        <time>2021-08-06T13:35:59Z</time>
      </trkpt>
      <trkpt lat="45.14801" lon="3.42882">
        <ele>496.2</ele>
        <time>2021-08-06T13:36:01Z</time>
      </trkpt>
      <trkpt lat="45.14804" lon="3.42881">
        <ele>496.3</ele>
        <time>2021-08-06T13:36:03Z</time>
      </trkpt>
      <trkpt lat="45.14807" lon="3.42879">
        <ele>496.4</ele>
        <time>2021-08-06T13:36:05Z</time>
      </trkpt>
      <trkpt lat="45.1481" lon="3.42877">
        <ele>496.5</ele>
        <time>2021-08-06T13:36:07Z</time>
      </trkpt>
      <trkpt lat="45.14813" lon="3.42876">
        <ele>496.6</ele>
        <time>2021-08-06T13:36:09Z</time>
      </trkpt>
      <trkpt lat="45.14815" lon="3.42874">
        <ele>496.6</ele>
        <time>2021-08-06T13:36:11Z</time>
      </trkpt>
      <trkpt lat="45.14818" lon="3.42873">
        <ele>496.8</ele>
        <time>2021-08-06T13:36:13Z</time>
      </trkpt>
      <trkpt lat="45.14822" lon="3.42871">
        <ele>496.9</ele>
        <time>2021-08-06T13:36:15Z</time>
      </trkpt>
      <trkpt lat="45.14825" lon="3.42869">
        <ele>497</ele>
        <time>2021-08-06T13:36:17Z</time>
      </trkpt>
      <trkpt lat="45.14828" lon="3.42867">
        <ele>497.1</ele>
        <time>2021-08-06T13:36:19Z</time>
      </trkpt>
      <trkpt lat="45.14832" lon="3.42866">
        <ele>497.3</ele>
        <time>2021-08-06T13:36:21Z</time>
      </trkpt>
      <trkpt lat="45.14836" lon="3.42864">
        <ele>497.5</ele>
        <time>2021-08-06T13:36:23Z</time>
      </trkpt>
      <trkpt lat="45.14841" lon="3.42862">
        <ele>497.8</ele>
        <time>2021-08-06T13:36:25Z</time>
      </trkpt>
      <trkpt lat="45.14845" lon="3.42859">
        <ele>498</ele>
        <time>2021-08-06T13:36:27Z</time>
      </trkpt>
      <trkpt lat="45.14849" lon="3.42857">
        <ele>498.3</ele>
        <time>2021-08-06T13:36:29Z</time>
      </trkpt>
      <trkpt lat="45.14854" lon="3.42855">
        <ele>498.6</ele>
        <time>2021-08-06T13:36:31Z</time>
      </trkpt>
      <trkpt lat="45.14858" lon="3.42852">
        <ele>498.9</ele>
        <time>2021-08-06T13:36:33Z</time>
      </trkpt>
      <trkpt lat="45.14863" lon="3.42849">
        <ele>499.1</ele>
        <time>2021-08-06T13:36:35Z</time>
      </trkpt>
      <trkpt lat="45.14867" lon="3.42846">
        <ele>499.4</ele>
        <time>2021-08-06T13:36:37Z</time>
      </trkpt>
      <trkpt lat="45.14871" lon="3.42842">
        <ele>499.6</ele>
        <time>2021-08-06T13:36:39Z</time>
      </trkpt>
      <trkpt lat="45.14875" lon="3.42839">
        <ele>499.9</ele>
        <time>2021-08-06T13:36:41Z</time>
      </trkpt>
      <trkpt lat="45.14879" lon="3.42835">
        <ele>500.1</ele>
        <time>2021-08-06T13:36:43Z</time>
      </trkpt>
      <trkpt lat="45.14883" lon="3.42832">
        <ele>500.3</ele>
        <time>2021-08-06T13:36:45Z</time>
      </trkpt>
      <trkpt lat="45.14887" lon="3.42829">
        <ele>500.6</ele>
        <time>2021-08-06T13:36:47Z</time>
      </trkpt>
      <trkpt lat="45.14891" lon="3.42825">
        <ele>500.8</ele>
        <time>2021-08-06T13:36:49Z</time>
      </trkpt>
      <trkpt lat="45.14895" lon="3.42822">
        <ele>501</ele>
        <time>2021-08-06T13:36:51Z</time>
      </trkpt>
      <trkpt lat="45.14898" lon="3.4282">
        <ele>501.2</ele>
        <time>2021-08-06T13:36:53Z</time>
      </trkpt>
      <trkpt lat="45.14902" lon="3.42817">
        <ele>501.4</ele>
        <time>2021-08-06T13:36:55Z</time>
      </trkpt>
      <trkpt lat="45.14905" lon="3.42814">
        <ele>501.7</ele>
        <time>2021-08-06T13:36:57Z</time>
      </trkpt>
      <trkpt lat="45.14909" lon="3.42812">
        <ele>501.9</ele>
        <time>2021-08-06T13:36:59Z</time>
      </trkpt>
      <trkpt lat="45.14913" lon="3.4281">
        <ele>502.2</ele>
        <time>2021-08-06T13:37:01Z</time>
      </trkpt>
      <trkpt lat="45.14916" lon="3.42807">
        <ele>502.4</ele>
        <time>2021-08-06T13:37:03Z</time>
      </trkpt>
      <trkpt lat="45.1492" lon="3.42804">
        <ele>502.7</ele>
        <time>2021-08-06T13:37:05Z</time>
      </trkpt>
      <trkpt lat="45.14924" lon="3.42801">
        <ele>502.9</ele>
        <time>2021-08-06T13:37:07Z</time>
      </trkpt>
      <trkpt lat="45.14928" lon="3.42798">
        <ele>503.2</ele>
        <time>2021-08-06T13:37:09Z</time>
      </trkpt>
      <trkpt lat="45.14931" lon="3.42794">
        <ele>503.4</ele>
        <time>2021-08-06T13:37:11Z</time>
      </trkpt>
      <trkpt lat="45.14935" lon="3.4279">
        <ele>503.6</ele>
        <time>2021-08-06T13:37:13Z</time>
      </trkpt>
      <trkpt lat="45.14938" lon="3.42787">
        <ele>503.8</ele>
        <time>2021-08-06T13:37:15Z</time>
      </trkpt>
      <trkpt lat="45.14941" lon="3.42782">
        <ele>504</ele>
        <time>2021-08-06T13:37:17Z</time>
      </trkpt>
      <trkpt lat="45.14944" lon="3.42778">
        <ele>504.1</ele>
        <time>2021-08-06T13:37:19Z</time>
      </trkpt>
      <trkpt lat="45.14947" lon="3.42774">
        <ele>504.3</ele>
        <time>2021-08-06T13:37:21Z</time>
      </trkpt>
      <trkpt lat="45.1495" lon="3.42771">
        <ele>504.5</ele>
        <time>2021-08-06T13:37:23Z</time>
      </trkpt>
      <trkpt lat="45.14953" lon="3.42766">
        <ele>504.6</ele>
        <time>2021-08-06T13:37:25Z</time>
      </trkpt>
      <trkpt lat="45.14956" lon="3.42762">
        <ele>504.8</ele>
        <time>2021-08-06T13:37:27Z</time>
      </trkpt>
      <trkpt lat="45.14959" lon="3.42759">
        <ele>505.1</ele>
        <time>2021-08-06T13:37:29Z</time>
      </trkpt>
      <trkpt lat="45.14963" lon="3.42755">
        <ele>505.3</ele>
        <time>2021-08-06T13:37:31Z</time>
      </trkpt>
      <trkpt lat="45.14966" lon="3.42752">
        <ele>505.5</ele>
        <time>2021-08-06T13:37:33Z</time>
      </trkpt>
      <trkpt lat="45.14968" lon="3.42749">
        <ele>505.7</ele>
        <time>2021-08-06T13:37:35Z</time>
      </trkpt>
      <trkpt lat="45.14972" lon="3.42746">
        <ele>505.9</ele>
        <time>2021-08-06T13:37:37Z</time>
      </trkpt>
      <trkpt lat="45.14975" lon="3.42743">
        <ele>506.1</ele>
        <time>2021-08-06T13:37:39Z</time>
      </trkpt>
      <trkpt lat="45.14978" lon="3.42741">
        <ele>506.2</ele>
        <time>2021-08-06T13:37:41Z</time>
      </trkpt>
      <trkpt lat="45.14981" lon="3.42738">
        <ele>506.3</ele>
        <time>2021-08-06T13:37:43Z</time>
      </trkpt>
      <trkpt lat="45.14985" lon="3.42735">
        <ele>506.5</ele>
        <time>2021-08-06T13:37:45Z</time>
      </trkpt>
      <trkpt lat="45.14988" lon="3.42732">
        <ele>506.6</ele>
        <time>2021-08-06T13:37:47Z</time>
      </trkpt>
      <trkpt lat="45.14992" lon="3.42729">
        <ele>506.8</ele>
        <time>2021-08-06T13:37:49Z</time>
      </trkpt>
      <trkpt lat="45.14996" lon="3.42727">
        <ele>507</ele>
        <time>2021-08-06T13:37:51Z</time>
      </trkpt>
      <trkpt lat="45.15" lon="3.42724">
        <ele>507.2</ele>
        <time>2021-08-06T13:37:53Z</time>
      </trkpt>
      <trkpt lat="45.15004" lon="3.42722">
        <ele>507.3</ele>
        <time>2021-08-06T13:37:55Z</time>
      </trkpt>
      <trkpt lat="45.15009" lon="3.42719">
        <ele>507.4</ele>
        <time>2021-08-06T13:37:57Z</time>
      </trkpt>
      <trkpt lat="45.15013" lon="3.42716">
        <ele>507.5</ele>
        <time>2021-08-06T13:37:59Z</time>
      </trkpt>
      <trkpt lat="45.15017" lon="3.42714">
        <ele>507.6</ele>
        <time>2021-08-06T13:38:01Z</time>
      </trkpt>
      <trkpt lat="45.15021" lon="3.42711">
        <ele>507.7</ele>
        <time>2021-08-06T13:38:03Z</time>
      </trkpt>
      <trkpt lat="45.15025" lon="3.42709">
        <ele>507.9</ele>
        <time>2021-08-06T13:38:05Z</time>
      </trkpt>
      <trkpt lat="45.1503" lon="3.42707">
        <ele>508</ele>
        <time>2021-08-06T13:38:07Z</time>
      </trkpt>
      <trkpt lat="45.15034" lon="3.42705">
        <ele>508.1</ele>
        <time>2021-08-06T13:38:09Z</time>
      </trkpt>
      <trkpt lat="45.15038" lon="3.42702">
        <ele>508.2</ele>
        <time>2021-08-06T13:38:11Z</time>
      </trkpt>
      <trkpt lat="45.15041" lon="3.42699">
        <ele>508.2</ele>
        <time>2021-08-06T13:38:13Z</time>
      </trkpt>
      <trkpt lat="45.15046" lon="3.42697">
        <ele>508.5</ele>
        <time>2021-08-06T13:38:15Z</time>
      </trkpt>
      <trkpt lat="45.1505" lon="3.42694">
        <ele>508.6</ele>
        <time>2021-08-06T13:38:17Z</time>
      </trkpt>
      <trkpt lat="45.15055" lon="3.42691">
        <ele>508.7</ele>
        <time>2021-08-06T13:38:19Z</time>
      </trkpt>
      <trkpt lat="45.15059" lon="3.42688">
        <ele>508.7</ele>
        <time>2021-08-06T13:38:21Z</time>
      </trkpt>
      <trkpt lat="45.15063" lon="3.42685">
        <ele>508.9</ele>
        <time>2021-08-06T13:38:23Z</time>
      </trkpt>
      <trkpt lat="45.15068" lon="3.42683">
        <ele>509.1</ele>
        <time>2021-08-06T13:38:25Z</time>
      </trkpt>
      <trkpt lat="45.15072" lon="3.4268">
        <ele>509.2</ele>
        <time>2021-08-06T13:38:27Z</time>
      </trkpt>
      <trkpt lat="45.15076" lon="3.42677">
        <ele>509.3</ele>
        <time>2021-08-06T13:38:29Z</time>
      </trkpt>
      <trkpt lat="45.15081" lon="3.42674">
        <ele>509.5</ele>
        <time>2021-08-06T13:38:31Z</time>
      </trkpt>
      <trkpt lat="45.15084" lon="3.42672">
        <ele>509.5</ele>
        <time>2021-08-06T13:38:33Z</time>
      </trkpt>
      <trkpt lat="45.15089" lon="3.42669">
        <ele>509</ele>
        <time>2021-08-06T13:38:35Z</time>
      </trkpt>
      <trkpt lat="45.15093" lon="3.42668">
        <ele>508.7</ele>
        <time>2021-08-06T13:38:37Z</time>
      </trkpt>
      <trkpt lat="45.15098" lon="3.42667">
        <ele>508.3</ele>
        <time>2021-08-06T13:38:39Z</time>
      </trkpt>
      <trkpt lat="45.15102" lon="3.42667">
        <ele>508.1</ele>
        <time>2021-08-06T13:38:41Z</time>
      </trkpt>
      <trkpt lat="45.15107" lon="3.42668">
        <ele>508</ele>
        <time>2021-08-06T13:38:43Z</time>
      </trkpt>
      <trkpt lat="45.15111" lon="3.42669">
        <ele>507.9</ele>
        <time>2021-08-06T13:38:45Z</time>
      </trkpt>
      <trkpt lat="45.15116" lon="3.42672">
        <ele>508</ele>
        <time>2021-08-06T13:38:47Z</time>
      </trkpt>
      <trkpt lat="45.1512" lon="3.42674">
        <ele>508.1</ele>
        <time>2021-08-06T13:38:49Z</time>
      </trkpt>
      <trkpt lat="45.15125" lon="3.42677">
        <ele>508.3</ele>
        <time>2021-08-06T13:38:51Z</time>
      </trkpt>
      <trkpt lat="45.15128" lon="3.42681">
        <ele>508.7</ele>
        <time>2021-08-06T13:38:53Z</time>
      </trkpt>
      <trkpt lat="45.15131" lon="3.42685">
        <ele>509</ele>
        <time>2021-08-06T13:38:55Z</time>
      </trkpt>
      <trkpt lat="45.15134" lon="3.42688">
        <ele>509.3</ele>
        <time>2021-08-06T13:38:57Z</time>
      </trkpt>
      <trkpt lat="45.15136" lon="3.42692">
        <ele>509.7</ele>
        <time>2021-08-06T13:38:59Z</time>
      </trkpt>
      <trkpt lat="45.15138" lon="3.42696">
        <ele>510.1</ele>
        <time>2021-08-06T13:39:01Z</time>
      </trkpt>
      <trkpt lat="45.15142" lon="3.42699">
        <ele>510.4</ele>
        <time>2021-08-06T13:39:03Z</time>
      </trkpt>
      <trkpt lat="45.15145" lon="3.42703">
        <ele>510.8</ele>
        <time>2021-08-06T13:39:05Z</time>
      </trkpt>
      <trkpt lat="45.15147" lon="3.42707">
        <ele>511.3</ele>
        <time>2021-08-06T13:39:07Z</time>
      </trkpt>
      <trkpt lat="45.1515" lon="3.42712">
        <ele>511.9</ele>
        <time>2021-08-06T13:39:09Z</time>
      </trkpt>
      <trkpt lat="45.15155" lon="3.42719">
        <ele>512.7</ele>
        <time>2021-08-06T13:39:11Z</time>
      </trkpt>
      <trkpt lat="45.15158" lon="3.42723">
        <ele>513.2</ele>
        <time>2021-08-06T13:39:13Z</time>
      </trkpt>
      <trkpt lat="45.15161" lon="3.42727">
        <ele>513.7</ele>
        <time>2021-08-06T13:39:15Z</time>
      </trkpt>
      <trkpt lat="45.15164" lon="3.42731">
        <ele>514.3</ele>
        <time>2021-08-06T13:39:17Z</time>
      </trkpt>
      <trkpt lat="45.15168" lon="3.42738">
        <ele>515.2</ele>
        <time>2021-08-06T13:39:19Z</time>
      </trkpt>
      <trkpt lat="45.15171" lon="3.42743">
        <ele>515.9</ele>
        <time>2021-08-06T13:39:21Z</time>
      </trkpt>
      <trkpt lat="45.15174" lon="3.42748">
        <ele>516.4</ele>
        <time>2021-08-06T13:39:23Z</time>
      </trkpt>
      <trkpt lat="45.15177" lon="3.42752">
        <ele>516.8</ele>
        <time>2021-08-06T13:39:25Z</time>
      </trkpt>
      <trkpt lat="45.15179" lon="3.42758">
        <ele>516.9</ele>
        <time>2021-08-06T13:39:27Z</time>
      </trkpt>
      <trkpt lat="45.15182" lon="3.42763">
        <ele>517.1</ele>
        <time>2021-08-06T13:39:29Z</time>
      </trkpt>
      <trkpt lat="45.15185" lon="3.42766">
        <ele>517.2</ele>
        <time>2021-08-06T13:39:31Z</time>
      </trkpt>
      <trkpt lat="45.15187" lon="3.4277">
        <ele>517.3</ele>
        <time>2021-08-06T13:39:33Z</time>
      </trkpt>
      <trkpt lat="45.15189" lon="3.42775">
        <ele>517.6</ele>
        <time>2021-08-06T13:39:35Z</time>
      </trkpt>
      <trkpt lat="45.15191" lon="3.42781">
        <ele>517.8</ele>
        <time>2021-08-06T13:39:37Z</time>
      </trkpt>
      <trkpt lat="45.15193" lon="3.42785">
        <ele>518</ele>
        <time>2021-08-06T13:39:39Z</time>
      </trkpt>
      <trkpt lat="45.15194" lon="3.42791">
        <ele>518.3</ele>
        <time>2021-08-06T13:39:41Z</time>
      </trkpt>
      <trkpt lat="45.15195" lon="3.42796">
        <ele>518.6</ele>
        <time>2021-08-06T13:39:43Z</time>
      </trkpt>
      <trkpt lat="45.15197" lon="3.42802">
        <ele>518.8</ele>
        <time>2021-08-06T13:39:45Z</time>
      </trkpt>
      <trkpt lat="45.15198" lon="3.42806">
        <ele>519.1</ele>
        <time>2021-08-06T13:39:47Z</time>
      </trkpt>
      <trkpt lat="45.15199" lon="3.42812">
        <ele>519.4</ele>
        <time>2021-08-06T13:39:49Z</time>
      </trkpt>
      <trkpt lat="45.15201" lon="3.42817">
        <ele>519.6</ele>
        <time>2021-08-06T13:39:51Z</time>
      </trkpt>
      <trkpt lat="45.15202" lon="3.42822">
        <ele>519.9</ele>
        <time>2021-08-06T13:39:53Z</time>
      </trkpt>
      <trkpt lat="45.15202" lon="3.42826">
        <ele>520.2</ele>
        <time>2021-08-06T13:39:55Z</time>
      </trkpt>
      <trkpt lat="45.15203" lon="3.42831">
        <ele>520.4</ele>
        <time>2021-08-06T13:39:57Z</time>
      </trkpt>
      <trkpt lat="45.15203" lon="3.42834">
        <ele>520.6</ele>
        <time>2021-08-06T13:39:59Z</time>
      </trkpt>
      <trkpt lat="45.15204" lon="3.42837">
        <ele>520.5</ele>
        <time>2021-08-06T13:40:01Z</time>
      </trkpt>
      <trkpt lat="45.15203" lon="3.4284">
        <ele>520.5</ele>
        <time>2021-08-06T13:40:03Z</time>
      </trkpt>
      <trkpt lat="45.15203" lon="3.42845">
        <ele>520.5</ele>
        <time>2021-08-06T13:40:05Z</time>
      </trkpt>
      <trkpt lat="45.15203" lon="3.42848">
        <ele>520.4</ele>
        <time>2021-08-06T13:40:07Z</time>
      </trkpt>
      <trkpt lat="45.15203" lon="3.42852">
        <ele>520.4</ele>
        <time>2021-08-06T13:40:09Z</time>
      </trkpt>
      <trkpt lat="45.15202" lon="3.42857">
        <ele>520.4</ele>
        <time>2021-08-06T13:40:11Z</time>
      </trkpt>
      <trkpt lat="45.15201" lon="3.42861">
        <ele>520.4</ele>
        <time>2021-08-06T13:40:13Z</time>
      </trkpt>
      <trkpt lat="45.152" lon="3.42866">
        <ele>520.4</ele>
        <time>2021-08-06T13:40:15Z</time>
      </trkpt>
      <trkpt lat="45.15199" lon="3.42869">
        <ele>520.4</ele>
        <time>2021-08-06T13:40:17Z</time>
      </trkpt>
      <trkpt lat="45.15197" lon="3.42872">
        <ele>520.4</ele>
        <time>2021-08-06T13:40:19Z</time>
      </trkpt>
      <trkpt lat="45.15195" lon="3.42875">
        <ele>520.5</ele>
        <time>2021-08-06T13:40:21Z</time>
      </trkpt>
      <trkpt lat="45.15195" lon="3.42877">
        <ele>520.5</ele>
        <time>2021-08-06T13:40:23Z</time>
      </trkpt>
      <trkpt lat="45.15195" lon="3.4288">
        <ele>520.5</ele>
        <time>2021-08-06T13:40:25Z</time>
      </trkpt>
      <trkpt lat="45.15195" lon="3.4288">
        <ele>520.5</ele>
        <time>2021-08-06T13:40:27Z</time>
      </trkpt>
      <trkpt lat="45.15195" lon="3.4288">
        <ele>520.5</ele>
        <time>2021-08-06T13:40:29Z</time>
      </trkpt>
      <trkpt lat="45.15195" lon="3.4288">
        <ele>520.5</ele>
        <time>2021-08-06T13:40:31Z</time>
      </trkpt>
      <trkpt lat="45.15188" lon="3.42899">
        <ele>520.7</ele>
        <time>2021-08-06T13:42:01Z</time>
      </trkpt>
      <trkpt lat="45.15187" lon="3.42906">
        <ele>520.8</ele>
        <time>2021-08-06T13:42:03Z</time>
      </trkpt>
      <trkpt lat="45.15185" lon="3.42914">
        <ele>520.9</ele>
        <time>2021-08-06T13:42:05Z</time>
      </trkpt>
      <trkpt lat="45.15182" lon="3.42922">
        <ele>521.1</ele>
        <time>2021-08-06T13:42:07Z</time>
      </trkpt>
      <trkpt lat="45.15179" lon="3.42931">
        <ele>521.2</ele>
        <time>2021-08-06T13:42:09Z</time>
      </trkpt>
      <trkpt lat="45.15176" lon="3.4294">
        <ele>521.4</ele>
        <time>2021-08-06T13:42:11Z</time>
      </trkpt>
      <trkpt lat="45.15172" lon="3.4295">
        <ele>521.7</ele>
        <time>2021-08-06T13:42:13Z</time>
      </trkpt>
      <trkpt lat="45.15169" lon="3.42959">
        <ele>521.9</ele>
        <time>2021-08-06T13:42:15Z</time>
      </trkpt>
      <trkpt lat="45.15166" lon="3.42968">
        <ele>522</ele>
        <time>2021-08-06T13:42:17Z</time>
      </trkpt>
      <trkpt lat="45.15162" lon="3.42977">
        <ele>522.1</ele>
        <time>2021-08-06T13:42:19Z</time>
      </trkpt>
      <trkpt lat="45.15158" lon="3.42987">
        <ele>522.1</ele>
        <time>2021-08-06T13:42:21Z</time>
      </trkpt>
      <trkpt lat="45.15156" lon="3.42997">
        <ele>522.2</ele>
        <time>2021-08-06T13:42:23Z</time>
      </trkpt>
      <trkpt lat="45.15154" lon="3.43007">
        <ele>522.5</ele>
        <time>2021-08-06T13:42:25Z</time>
      </trkpt>
      <trkpt lat="45.15154" lon="3.43017">
        <ele>522.8</ele>
        <time>2021-08-06T13:42:27Z</time>
      </trkpt>
      <trkpt lat="45.15154" lon="3.43026">
        <ele>523</ele>
        <time>2021-08-06T13:42:29Z</time>
      </trkpt>
      <trkpt lat="45.15156" lon="3.43034">
        <ele>523.2</ele>
        <time>2021-08-06T13:42:31Z</time>
      </trkpt>
      <trkpt lat="45.15157" lon="3.43042">
        <ele>523.3</ele>
        <time>2021-08-06T13:42:33Z</time>
      </trkpt>
      <trkpt lat="45.15159" lon="3.4305">
        <ele>523.3</ele>
        <time>2021-08-06T13:42:35Z</time>
      </trkpt>
      <trkpt lat="45.1516" lon="3.43056">
        <ele>523.3</ele>
        <time>2021-08-06T13:42:37Z</time>
      </trkpt>
      <trkpt lat="45.15162" lon="3.43063">
        <ele>523.2</ele>
        <time>2021-08-06T13:42:39Z</time>
      </trkpt>
      <trkpt lat="45.15164" lon="3.43069">
        <ele>523.1</ele>
        <time>2021-08-06T13:42:41Z</time>
      </trkpt>
      <trkpt lat="45.15165" lon="3.43077">
        <ele>523.1</ele>
        <time>2021-08-06T13:42:43Z</time>
      </trkpt>
      <trkpt lat="45.15168" lon="3.43085">
        <ele>522.9</ele>
        <time>2021-08-06T13:42:45Z</time>
      </trkpt>
      <trkpt lat="45.15169" lon="3.4309">
        <ele>523</ele>
        <time>2021-08-06T13:42:47Z</time>
      </trkpt>
      <trkpt lat="45.15171" lon="3.43096">
        <ele>523</ele>
        <time>2021-08-06T13:42:49Z</time>
      </trkpt>
      <trkpt lat="45.15173" lon="3.43101">
        <ele>523</ele>
        <time>2021-08-06T13:42:51Z</time>
      </trkpt>
      <trkpt lat="45.15175" lon="3.43105">
        <ele>522.9</ele>
        <time>2021-08-06T13:42:53Z</time>
      </trkpt>
      <trkpt lat="45.15178" lon="3.43112">
        <ele>522.8</ele>
        <time>2021-08-06T13:42:55Z</time>
      </trkpt>
      <trkpt lat="45.15181" lon="3.43119">
        <ele>522.6</ele>
        <time>2021-08-06T13:42:57Z</time>
      </trkpt>
      <trkpt lat="45.15186" lon="3.43127">
        <ele>522.2</ele>
        <time>2021-08-06T13:42:59Z</time>
      </trkpt>
      <trkpt lat="45.15191" lon="3.43136">
        <ele>521.8</ele>
        <time>2021-08-06T13:43:01Z</time>
      </trkpt>
      <trkpt lat="45.15197" lon="3.43145">
        <ele>521</ele>
        <time>2021-08-06T13:43:03Z</time>
      </trkpt>
      <trkpt lat="45.15204" lon="3.43155">
        <ele>520.1</ele>
        <time>2021-08-06T13:43:05Z</time>
      </trkpt>
      <trkpt lat="45.15212" lon="3.43166">
        <ele>518.9</ele>
        <time>2021-08-06T13:43:07Z</time>
      </trkpt>
      <trkpt lat="45.15221" lon="3.43179">
        <ele>517.4</ele>
        <time>2021-08-06T13:43:09Z</time>
      </trkpt>
      <trkpt lat="45.15231" lon="3.43193">
        <ele>515.5</ele>
        <time>2021-08-06T13:43:11Z</time>
      </trkpt>
      <trkpt lat="45.1524" lon="3.43209">
        <ele>513.7</ele>
        <time>2021-08-06T13:43:13Z</time>
      </trkpt>
      <trkpt lat="45.15245" lon="3.43228">
        <ele>512.4</ele>
        <time>2021-08-06T13:43:15Z</time>
      </trkpt>
      <trkpt lat="45.15245" lon="3.4325">
        <ele>512</ele>
        <time>2021-08-06T13:43:17Z</time>
      </trkpt>
      <trkpt lat="45.1524" lon="3.43271">
        <ele>512.7</ele>
        <time>2021-08-06T13:43:19Z</time>
      </trkpt>
      <trkpt lat="45.15235" lon="3.43293">
        <ele>513.7</ele>
        <time>2021-08-06T13:43:21Z</time>
      </trkpt>
      <trkpt lat="45.15233" lon="3.43317">
        <ele>514.1</ele>
        <time>2021-08-06T13:43:23Z</time>
      </trkpt>
      <trkpt lat="45.15235" lon="3.43343">
        <ele>513.3</ele>
        <time>2021-08-06T13:43:25Z</time>
      </trkpt>
      <trkpt lat="45.15238" lon="3.43371">
        <ele>511.9</ele>
        <time>2021-08-06T13:43:27Z</time>
      </trkpt>
      <trkpt lat="45.15241" lon="3.434">
        <ele>510.5</ele>
        <time>2021-08-06T13:43:29Z</time>
      </trkpt>
      <trkpt lat="45.15243" lon="3.43432">
        <ele>508.5</ele>
        <time>2021-08-06T13:43:31Z</time>
      </trkpt>
      <trkpt lat="45.15247" lon="3.43463">
        <ele>505.9</ele>
        <time>2021-08-06T13:43:33Z</time>
      </trkpt>
      <trkpt lat="45.15248" lon="3.43493">
        <ele>503.9</ele>
        <time>2021-08-06T13:43:35Z</time>
      </trkpt>
      <trkpt lat="45.15245" lon="3.43521">
        <ele>503.8</ele>
        <time>2021-08-06T13:43:37Z</time>
      </trkpt>
      <trkpt lat="45.15236" lon="3.43545">
        <ele>505.2</ele>
        <time>2021-08-06T13:43:39Z</time>
      </trkpt>
      <trkpt lat="45.15225" lon="3.43566">
        <ele>506.7</ele>
        <time>2021-08-06T13:43:41Z</time>
      </trkpt>
      <trkpt lat="45.15216" lon="3.43585">
        <ele>507.7</ele>
        <time>2021-08-06T13:43:43Z</time>
      </trkpt>
      <trkpt lat="45.1521" lon="3.43605">
        <ele>508.2</ele>
        <time>2021-08-06T13:43:45Z</time>
      </trkpt>
      <trkpt lat="45.15207" lon="3.43625">
        <ele>508</ele>
        <time>2021-08-06T13:43:47Z</time>
      </trkpt>
      <trkpt lat="45.15208" lon="3.43644">
        <ele>506.9</ele>
        <time>2021-08-06T13:43:49Z</time>
      </trkpt>
      <trkpt lat="45.15213" lon="3.43662">
        <ele>505.2</ele>
        <time>2021-08-06T13:43:51Z</time>
      </trkpt>
      <trkpt lat="45.15221" lon="3.43677">
        <ele>503.1</ele>
        <time>2021-08-06T13:43:53Z</time>
      </trkpt>
      <trkpt lat="45.15228" lon="3.43692">
        <ele>501.3</ele>
        <time>2021-08-06T13:43:55Z</time>
      </trkpt>
      <trkpt lat="45.15237" lon="3.43707">
        <ele>499.7</ele>
        <time>2021-08-06T13:43:57Z</time>
      </trkpt>
      <trkpt lat="45.15246" lon="3.4372">
        <ele>498.2</ele>
        <time>2021-08-06T13:43:59Z</time>
      </trkpt>
      <trkpt lat="45.15256" lon="3.43728">
        <ele>497.2</ele>
        <time>2021-08-06T13:44:01Z</time>
      </trkpt>
      <trkpt lat="45.15269" lon="3.43729">
        <ele>496.1</ele>
        <time>2021-08-06T13:44:03Z</time>
      </trkpt>
      <trkpt lat="45.15281" lon="3.43729">
        <ele>495</ele>
        <time>2021-08-06T13:44:05Z</time>
      </trkpt>
      <trkpt lat="45.15291" lon="3.43737">
        <ele>493.9</ele>
        <time>2021-08-06T13:44:07Z</time>
      </trkpt>
      <trkpt lat="45.15295" lon="3.43755">
        <ele>493</ele>
        <time>2021-08-06T13:44:09Z</time>
      </trkpt>
      <trkpt lat="45.15294" lon="3.43777">
        <ele>492.6</ele>
        <time>2021-08-06T13:44:11Z</time>
      </trkpt>
      <trkpt lat="45.15294" lon="3.43802">
        <ele>492</ele>
        <time>2021-08-06T13:44:13Z</time>
      </trkpt>
      <trkpt lat="45.15298" lon="3.43825">
        <ele>491</ele>
        <time>2021-08-06T13:44:15Z</time>
      </trkpt>
      <trkpt lat="45.15301" lon="3.43845">
        <ele>490.2</ele>
        <time>2021-08-06T13:44:17Z</time>
      </trkpt>
      <trkpt lat="45.15304" lon="3.43863">
        <ele>489.5</ele>
        <time>2021-08-06T13:44:19Z</time>
      </trkpt>
      <trkpt lat="45.15307" lon="3.43881">
        <ele>488.9</ele>
        <time>2021-08-06T13:44:21Z</time>
      </trkpt>
      <trkpt lat="45.15311" lon="3.43899">
        <ele>488.2</ele>
        <time>2021-08-06T13:44:23Z</time>
      </trkpt>
      <trkpt lat="45.15317" lon="3.43917">
        <ele>487.4</ele>
        <time>2021-08-06T13:44:25Z</time>
      </trkpt>
      <trkpt lat="45.15325" lon="3.43931">
        <ele>486.1</ele>
        <time>2021-08-06T13:44:27Z</time>
      </trkpt>
      <trkpt lat="45.15332" lon="3.43942">
        <ele>484.9</ele>
        <time>2021-08-06T13:44:29Z</time>
      </trkpt>
      <trkpt lat="45.15339" lon="3.43948">
        <ele>484.1</ele>
        <time>2021-08-06T13:44:31Z</time>
      </trkpt>
      <trkpt lat="45.15349" lon="3.43942">
        <ele>483.7</ele>
        <time>2021-08-06T13:44:33Z</time>
      </trkpt>
      <trkpt lat="45.15357" lon="3.43931">
        <ele>483.5</ele>
        <time>2021-08-06T13:44:35Z</time>
      </trkpt>
      <trkpt lat="45.15363" lon="3.43921">
        <ele>483.3</ele>
        <time>2021-08-06T13:44:37Z</time>
      </trkpt>
      <trkpt lat="45.1537" lon="3.4391">
        <ele>483</ele>
        <time>2021-08-06T13:44:39Z</time>
      </trkpt>
      <trkpt lat="45.15377" lon="3.439">
        <ele>482.4</ele>
        <time>2021-08-06T13:44:41Z</time>
      </trkpt>
      <trkpt lat="45.15384" lon="3.4389">
        <ele>481.9</ele>
        <time>2021-08-06T13:44:43Z</time>
      </trkpt>
      <trkpt lat="45.15389" lon="3.43878">
        <ele>481.4</ele>
        <time>2021-08-06T13:44:45Z</time>
      </trkpt>
      <trkpt lat="45.15393" lon="3.43866">
        <ele>481.1</ele>
        <time>2021-08-06T13:44:47Z</time>
      </trkpt>
      <trkpt lat="45.15396" lon="3.43853">
        <ele>480.9</ele>
        <time>2021-08-06T13:44:49Z</time>
      </trkpt>
      <trkpt lat="45.15398" lon="3.43838">
        <ele>480.8</ele>
        <time>2021-08-06T13:44:51Z</time>
      </trkpt>
      <trkpt lat="45.154" lon="3.43823">
        <ele>480.2</ele>
        <time>2021-08-06T13:44:53Z</time>
      </trkpt>
      <trkpt lat="45.15403" lon="3.43808">
        <ele>479.4</ele>
        <time>2021-08-06T13:44:55Z</time>
      </trkpt>
      <trkpt lat="45.15405" lon="3.43793">
        <ele>478.6</ele>
        <time>2021-08-06T13:44:57Z</time>
      </trkpt>
      <trkpt lat="45.15407" lon="3.4378">
        <ele>477.7</ele>
        <time>2021-08-06T13:44:59Z</time>
      </trkpt>
      <trkpt lat="45.1541" lon="3.43768">
        <ele>476.9</ele>
        <time>2021-08-06T13:45:01Z</time>
      </trkpt>
      <trkpt lat="45.15411" lon="3.43759">
        <ele>476.3</ele>
        <time>2021-08-06T13:45:03Z</time>
      </trkpt>
      <trkpt lat="45.15413" lon="3.43753">
        <ele>475.8</ele>
        <time>2021-08-06T13:45:05Z</time>
      </trkpt>
      <trkpt lat="45.15414" lon="3.4375">
        <ele>475.4</ele>
        <time>2021-08-06T13:45:07Z</time>
      </trkpt>
      <trkpt lat="45.15416" lon="3.43748">
        <ele>475.1</ele>
        <time>2021-08-06T13:45:09Z</time>
      </trkpt>
      <trkpt lat="45.15417" lon="3.43746">
        <ele>475.1</ele>
        <time>2021-08-06T13:45:11Z</time>
      </trkpt>
      <trkpt lat="45.15419" lon="3.43744">
        <ele>475.2</ele>
        <time>2021-08-06T13:45:13Z</time>
      </trkpt>
      <trkpt lat="45.1542" lon="3.43742">
        <ele>475.3</ele>
        <time>2021-08-06T13:45:15Z</time>
      </trkpt>
      <trkpt lat="45.1542" lon="3.43742">
        <ele>475.3</ele>
        <time>2021-08-06T13:45:17Z</time>
      </trkpt>
      <trkpt lat="45.15439" lon="3.43724">
        <ele>476.5</ele>
        <time>2021-08-06T13:45:35Z</time>
      </trkpt>
      <trkpt lat="45.15445" lon="3.43722">
        <ele>476.8</ele>
        <time>2021-08-06T13:45:37Z</time>
      </trkpt>
      <trkpt lat="45.15452" lon="3.4372">
        <ele>477.2</ele>
        <time>2021-08-06T13:45:39Z</time>
      </trkpt>
      <trkpt lat="45.15458" lon="3.43717">
        <ele>477.6</ele>
        <time>2021-08-06T13:45:41Z</time>
      </trkpt>
      <trkpt lat="45.15464" lon="3.43714">
        <ele>477.9</ele>
        <time>2021-08-06T13:45:43Z</time>
      </trkpt>
      <trkpt lat="45.1547" lon="3.43712">
        <ele>478.3</ele>
        <time>2021-08-06T13:45:45Z</time>
      </trkpt>
      <trkpt lat="45.15476" lon="3.43709">
        <ele>478.7</ele>
        <time>2021-08-06T13:45:47Z</time>
      </trkpt>
      <trkpt lat="45.15483" lon="3.43707">
        <ele>479.1</ele>
        <time>2021-08-06T13:45:49Z</time>
      </trkpt>
      <trkpt lat="45.15489" lon="3.43705">
        <ele>479.5</ele>
        <time>2021-08-06T13:45:51Z</time>
      </trkpt>
      <trkpt lat="45.15496" lon="3.43703">
        <ele>479.9</ele>
        <time>2021-08-06T13:45:53Z</time>
      </trkpt>
      <trkpt lat="45.15503" lon="3.43701">
        <ele>481.4</ele>
        <time>2021-08-06T13:45:55Z</time>
      </trkpt>
      <trkpt lat="45.15509" lon="3.43698">
        <ele>484.4</ele>
        <time>2021-08-06T13:45:57Z</time>
      </trkpt>
      <trkpt lat="45.15512" lon="3.43688">
        <ele>485.9</ele>
        <time>2021-08-06T13:45:59Z</time>
      </trkpt>
      <trkpt lat="45.15514" lon="3.43679">
        <ele>486.6</ele>
        <time>2021-08-06T13:46:01Z</time>
      </trkpt>
      <trkpt lat="45.15513" lon="3.4367">
        <ele>486.4</ele>
        <time>2021-08-06T13:46:03Z</time>
      </trkpt>
      <trkpt lat="45.15511" lon="3.43662">
        <ele>485.4</ele>
        <time>2021-08-06T13:46:05Z</time>
      </trkpt>
      <trkpt lat="45.15509" lon="3.43653">
        <ele>484.3</ele>
        <time>2021-08-06T13:46:07Z</time>
      </trkpt>
      <trkpt lat="45.15507" lon="3.43644">
        <ele>483.4</ele>
        <time>2021-08-06T13:46:09Z</time>
      </trkpt>
      <trkpt lat="45.15505" lon="3.43634">
        <ele>482.4</ele>
        <time>2021-08-06T13:46:11Z</time>
      </trkpt>
      <trkpt lat="45.15502" lon="3.43622">
        <ele>481.3</ele>
        <time>2021-08-06T13:46:13Z</time>
      </trkpt>
      <trkpt lat="45.155" lon="3.4361">
        <ele>480.4</ele>
        <time>2021-08-06T13:46:15Z</time>
      </trkpt>
      <trkpt lat="45.15498" lon="3.43598">
        <ele>480.1</ele>
        <time>2021-08-06T13:46:17Z</time>
      </trkpt>
      <trkpt lat="45.15495" lon="3.43585">
        <ele>479.9</ele>
        <time>2021-08-06T13:46:19Z</time>
      </trkpt>
      <trkpt lat="45.15493" lon="3.43572">
        <ele>479.8</ele>
        <time>2021-08-06T13:46:21Z</time>
      </trkpt>
      <trkpt lat="45.15491" lon="3.43559">
        <ele>479.7</ele>
        <time>2021-08-06T13:46:23Z</time>
      </trkpt>
      <trkpt lat="45.15489" lon="3.43546">
        <ele>479.6</ele>
        <time>2021-08-06T13:46:25Z</time>
      </trkpt>
      <trkpt lat="45.15487" lon="3.43535">
        <ele>479.5</ele>
        <time>2021-08-06T13:46:27Z</time>
      </trkpt>
      <trkpt lat="45.15485" lon="3.43524">
        <ele>479.4</ele>
        <time>2021-08-06T13:46:29Z</time>
      </trkpt>
      <trkpt lat="45.15485" lon="3.43514">
        <ele>479.3</ele>
        <time>2021-08-06T13:46:31Z</time>
      </trkpt>
      <trkpt lat="45.15486" lon="3.43506">
        <ele>479.4</ele>
        <time>2021-08-06T13:46:33Z</time>
      </trkpt>
      <trkpt lat="45.15486" lon="3.43499">
        <ele>479.4</ele>
        <time>2021-08-06T13:46:35Z</time>
      </trkpt>
      <trkpt lat="45.15487" lon="3.43492">
        <ele>479.8</ele>
        <time>2021-08-06T13:46:37Z</time>
      </trkpt>
      <trkpt lat="45.15488" lon="3.43486">
        <ele>480.3</ele>
        <time>2021-08-06T13:46:39Z</time>
      </trkpt>
      <trkpt lat="45.15489" lon="3.43479">
        <ele>480.7</ele>
        <time>2021-08-06T13:46:41Z</time>
      </trkpt>
      <trkpt lat="45.15489" lon="3.43472">
        <ele>481.2</ele>
        <time>2021-08-06T13:46:43Z</time>
      </trkpt>
      <trkpt lat="45.1549" lon="3.43465">
        <ele>481.6</ele>
        <time>2021-08-06T13:46:45Z</time>
      </trkpt>
      <trkpt lat="45.15491" lon="3.43458">
        <ele>482.2</ele>
        <time>2021-08-06T13:46:47Z</time>
      </trkpt>
      <trkpt lat="45.15492" lon="3.43451">
        <ele>482.7</ele>
        <time>2021-08-06T13:46:49Z</time>
      </trkpt>
      <trkpt lat="45.15493" lon="3.43445">
        <ele>483.1</ele>
        <time>2021-08-06T13:46:51Z</time>
      </trkpt>
      <trkpt lat="45.15493" lon="3.43439">
        <ele>483.5</ele>
        <time>2021-08-06T13:46:53Z</time>
      </trkpt>
      <trkpt lat="45.15493" lon="3.43433">
        <ele>483.9</ele>
        <time>2021-08-06T13:46:55Z</time>
      </trkpt>
      <trkpt lat="45.15494" lon="3.43427">
        <ele>484.5</ele>
        <time>2021-08-06T13:46:57Z</time>
      </trkpt>
      <trkpt lat="45.15495" lon="3.43421">
        <ele>485</ele>
        <time>2021-08-06T13:46:59Z</time>
      </trkpt>
      <trkpt lat="45.15495" lon="3.43415">
        <ele>485.3</ele>
        <time>2021-08-06T13:47:01Z</time>
      </trkpt>
      <trkpt lat="45.15495" lon="3.43409">
        <ele>485.2</ele>
        <time>2021-08-06T13:47:03Z</time>
      </trkpt>
      <trkpt lat="45.15496" lon="3.43404">
        <ele>485.2</ele>
        <time>2021-08-06T13:47:05Z</time>
      </trkpt>
      <trkpt lat="45.15496" lon="3.43398">
        <ele>485.2</ele>
        <time>2021-08-06T13:47:07Z</time>
      </trkpt>
      <trkpt lat="45.15497" lon="3.43392">
        <ele>485.3</ele>
        <time>2021-08-06T13:47:09Z</time>
      </trkpt>
      <trkpt lat="45.15498" lon="3.43386">
        <ele>485.3</ele>
        <time>2021-08-06T13:47:11Z</time>
      </trkpt>
      <trkpt lat="45.15499" lon="3.43381">
        <ele>485.4</ele>
        <time>2021-08-06T13:47:13Z</time>
      </trkpt>
      <trkpt lat="45.155" lon="3.43376">
        <ele>485.6</ele>
        <time>2021-08-06T13:47:15Z</time>
      </trkpt>
      <trkpt lat="45.15502" lon="3.4337">
        <ele>485.9</ele>
        <time>2021-08-06T13:47:17Z</time>
      </trkpt>
      <trkpt lat="45.15504" lon="3.43366">
        <ele>486.2</ele>
        <time>2021-08-06T13:47:19Z</time>
      </trkpt>
      <trkpt lat="45.15505" lon="3.43363">
        <ele>486.5</ele>
        <time>2021-08-06T13:47:21Z</time>
      </trkpt>
      <trkpt lat="45.15508" lon="3.43359">
        <ele>486.9</ele>
        <time>2021-08-06T13:47:23Z</time>
      </trkpt>
      <trkpt lat="45.1551" lon="3.43355">
        <ele>487.4</ele>
        <time>2021-08-06T13:47:25Z</time>
      </trkpt>
      <trkpt lat="45.15513" lon="3.43351">
        <ele>487.8</ele>
        <time>2021-08-06T13:47:27Z</time>
      </trkpt>
      <trkpt lat="45.15515" lon="3.43347">
        <ele>488.2</ele>
        <time>2021-08-06T13:47:29Z</time>
      </trkpt>
      <trkpt lat="45.15518" lon="3.43344">
        <ele>488.7</ele>
        <time>2021-08-06T13:47:31Z</time>
      </trkpt>
      <trkpt lat="45.15521" lon="3.4334">
        <ele>489.2</ele>
        <time>2021-08-06T13:47:33Z</time>
      </trkpt>
      <trkpt lat="45.15524" lon="3.43337">
        <ele>489.7</ele>
        <time>2021-08-06T13:47:35Z</time>
      </trkpt>
      <trkpt lat="45.15527" lon="3.43333">
        <ele>490.1</ele>
        <time>2021-08-06T13:47:37Z</time>
      </trkpt>
      <trkpt lat="45.1553" lon="3.43331">
        <ele>490.6</ele>
        <time>2021-08-06T13:47:39Z</time>
      </trkpt>
      <trkpt lat="45.15533" lon="3.43328">
        <ele>491.1</ele>
        <time>2021-08-06T13:47:41Z</time>
      </trkpt>
      <trkpt lat="45.15535" lon="3.43324">
        <ele>491.6</ele>
        <time>2021-08-06T13:47:43Z</time>
      </trkpt>
      <trkpt lat="45.15538" lon="3.43321">
        <ele>492.1</ele>
        <time>2021-08-06T13:47:45Z</time>
      </trkpt>
      <trkpt lat="45.15541" lon="3.43317">
        <ele>492.6</ele>
        <time>2021-08-06T13:47:47Z</time>
      </trkpt>
      <trkpt lat="45.15543" lon="3.43314">
        <ele>493</ele>
        <time>2021-08-06T13:47:49Z</time>
      </trkpt>
      <trkpt lat="45.15546" lon="3.4331">
        <ele>493.4</ele>
        <time>2021-08-06T13:47:51Z</time>
      </trkpt>
      <trkpt lat="45.15548" lon="3.43305">
        <ele>493.8</ele>
        <time>2021-08-06T13:47:53Z</time>
      </trkpt>
      <trkpt lat="45.15551" lon="3.43302">
        <ele>494.2</ele>
        <time>2021-08-06T13:47:55Z</time>
      </trkpt>
      <trkpt lat="45.15552" lon="3.43297">
        <ele>494.4</ele>
        <time>2021-08-06T13:47:57Z</time>
      </trkpt>
      <trkpt lat="45.15554" lon="3.43292">
        <ele>494.7</ele>
        <time>2021-08-06T13:47:59Z</time>
      </trkpt>
      <trkpt lat="45.15556" lon="3.43288">
        <ele>495.1</ele>
        <time>2021-08-06T13:48:01Z</time>
      </trkpt>
      <trkpt lat="45.15557" lon="3.43283">
        <ele>495.2</ele>
        <time>2021-08-06T13:48:03Z</time>
      </trkpt>
      <trkpt lat="45.15559" lon="3.43278">
        <ele>495.4</ele>
        <time>2021-08-06T13:48:05Z</time>
      </trkpt>
      <trkpt lat="45.1556" lon="3.43273">
        <ele>495.6</ele>
        <time>2021-08-06T13:48:07Z</time>
      </trkpt>
      <trkpt lat="45.15562" lon="3.43269">
        <ele>495.9</ele>
        <time>2021-08-06T13:48:09Z</time>
      </trkpt>
      <trkpt lat="45.15564" lon="3.43264">
        <ele>496.2</ele>
        <time>2021-08-06T13:48:11Z</time>
      </trkpt>
      <trkpt lat="45.15565" lon="3.43259">
        <ele>496.4</ele>
        <time>2021-08-06T13:48:13Z</time>
      </trkpt>
      <trkpt lat="45.15567" lon="3.43255">
        <ele>496.7</ele>
        <time>2021-08-06T13:48:15Z</time>
      </trkpt>
      <trkpt lat="45.15568" lon="3.4325">
        <ele>496.9</ele>
        <time>2021-08-06T13:48:17Z</time>
      </trkpt>
      <trkpt lat="45.1557" lon="3.43246">
        <ele>497.3</ele>
        <time>2021-08-06T13:48:19Z</time>
      </trkpt>
      <trkpt lat="45.15572" lon="3.43242">
        <ele>497.4</ele>
        <time>2021-08-06T13:48:21Z</time>
      </trkpt>
      <trkpt lat="45.15574" lon="3.43239">
        <ele>497.8</ele>
        <time>2021-08-06T13:48:23Z</time>
      </trkpt>
      <trkpt lat="45.15578" lon="3.43236">
        <ele>498.4</ele>
        <time>2021-08-06T13:48:25Z</time>
      </trkpt>
      <trkpt lat="45.1558" lon="3.43233">
        <ele>498.8</ele>
        <time>2021-08-06T13:48:27Z</time>
      </trkpt>
      <trkpt lat="45.15584" lon="3.4323">
        <ele>499.3</ele>
        <time>2021-08-06T13:48:29Z</time>
      </trkpt>
      <trkpt lat="45.15587" lon="3.43228">
        <ele>499.8</ele>
        <time>2021-08-06T13:48:31Z</time>
      </trkpt>
      <trkpt lat="45.1559" lon="3.43227">
        <ele>500.2</ele>
        <time>2021-08-06T13:48:33Z</time>
      </trkpt>
      <trkpt lat="45.15594" lon="3.43226">
        <ele>500.7</ele>
        <time>2021-08-06T13:48:35Z</time>
      </trkpt>
      <trkpt lat="45.15597" lon="3.43228">
        <ele>501.3</ele>
        <time>2021-08-06T13:48:37Z</time>
      </trkpt>
      <trkpt lat="45.15601" lon="3.43228">
        <ele>501.9</ele>
        <time>2021-08-06T13:48:39Z</time>
      </trkpt>
      <trkpt lat="45.15605" lon="3.4323">
        <ele>502.5</ele>
        <time>2021-08-06T13:48:41Z</time>
      </trkpt>
      <trkpt lat="45.15607" lon="3.43232">
        <ele>502.9</ele>
        <time>2021-08-06T13:48:43Z</time>
      </trkpt>
      <trkpt lat="45.15609" lon="3.43235">
        <ele>503.4</ele>
        <time>2021-08-06T13:48:45Z</time>
      </trkpt>
      <trkpt lat="45.15612" lon="3.43238">
        <ele>503.8</ele>
        <time>2021-08-06T13:48:47Z</time>
      </trkpt>
      <trkpt lat="45.15614" lon="3.43243">
        <ele>504.2</ele>
        <time>2021-08-06T13:48:49Z</time>
      </trkpt>
      <trkpt lat="45.15616" lon="3.4325">
        <ele>504.7</ele>
        <time>2021-08-06T13:48:51Z</time>
      </trkpt>
      <trkpt lat="45.15617" lon="3.43254">
        <ele>504.9</ele>
        <time>2021-08-06T13:48:53Z</time>
      </trkpt>
      <trkpt lat="45.15618" lon="3.43259">
        <ele>505.2</ele>
        <time>2021-08-06T13:48:55Z</time>
      </trkpt>
      <trkpt lat="45.15619" lon="3.43263">
        <ele>505.4</ele>
        <time>2021-08-06T13:48:57Z</time>
      </trkpt>
      <trkpt lat="45.15619" lon="3.43268">
        <ele>505.6</ele>
        <time>2021-08-06T13:48:59Z</time>
      </trkpt>
      <trkpt lat="45.1562" lon="3.43273">
        <ele>505.8</ele>
        <time>2021-08-06T13:49:01Z</time>
      </trkpt>
      <trkpt lat="45.1562" lon="3.43278">
        <ele>505.9</ele>
        <time>2021-08-06T13:49:03Z</time>
      </trkpt>
      <trkpt lat="45.15621" lon="3.43284">
        <ele>506.2</ele>
        <time>2021-08-06T13:49:05Z</time>
      </trkpt>
      <trkpt lat="45.15621" lon="3.43291">
        <ele>506.4</ele>
        <time>2021-08-06T13:49:07Z</time>
      </trkpt>
      <trkpt lat="45.15621" lon="3.43295">
        <ele>506.4</ele>
        <time>2021-08-06T13:49:09Z</time>
      </trkpt>
      <trkpt lat="45.15621" lon="3.433">
        <ele>506.5</ele>
        <time>2021-08-06T13:49:11Z</time>
      </trkpt>
      <trkpt lat="45.1562" lon="3.43306">
        <ele>506.5</ele>
        <time>2021-08-06T13:49:13Z</time>
      </trkpt>
      <trkpt lat="45.15619" lon="3.43311">
        <ele>506.6</ele>
        <time>2021-08-06T13:49:15Z</time>
      </trkpt>
      <trkpt lat="45.15619" lon="3.43318">
        <ele>506.7</ele>
        <time>2021-08-06T13:49:17Z</time>
      </trkpt>
      <trkpt lat="45.15618" lon="3.43323">
        <ele>506.7</ele>
        <time>2021-08-06T13:49:19Z</time>
      </trkpt>
      <trkpt lat="45.15617" lon="3.43328">
        <ele>506.6</ele>
        <time>2021-08-06T13:49:21Z</time>
      </trkpt>
      <trkpt lat="45.15617" lon="3.43334">
        <ele>506.6</ele>
        <time>2021-08-06T13:49:23Z</time>
      </trkpt>
      <trkpt lat="45.15616" lon="3.43339">
        <ele>506.9</ele>
        <time>2021-08-06T13:49:25Z</time>
      </trkpt>
      <trkpt lat="45.15615" lon="3.43345">
        <ele>507.2</ele>
        <time>2021-08-06T13:49:27Z</time>
      </trkpt>
      <trkpt lat="45.15614" lon="3.4335">
        <ele>507.4</ele>
        <time>2021-08-06T13:49:29Z</time>
      </trkpt>
      <trkpt lat="45.15614" lon="3.43355">
        <ele>507.6</ele>
        <time>2021-08-06T13:49:31Z</time>
      </trkpt>
      <trkpt lat="45.15613" lon="3.4336">
        <ele>507.9</ele>
        <time>2021-08-06T13:49:33Z</time>
      </trkpt>
      <trkpt lat="45.15612" lon="3.43365">
        <ele>508.2</ele>
        <time>2021-08-06T13:49:35Z</time>
      </trkpt>
      <trkpt lat="45.15612" lon="3.4337">
        <ele>508.4</ele>
        <time>2021-08-06T13:49:37Z</time>
      </trkpt>
      <trkpt lat="45.15611" lon="3.43375">
        <ele>508.6</ele>
        <time>2021-08-06T13:49:39Z</time>
      </trkpt>
      <trkpt lat="45.1561" lon="3.43381">
        <ele>508.8</ele>
        <time>2021-08-06T13:49:41Z</time>
      </trkpt>
      <trkpt lat="45.15609" lon="3.43386">
        <ele>509.1</ele>
        <time>2021-08-06T13:49:43Z</time>
      </trkpt>
      <trkpt lat="45.15608" lon="3.43391">
        <ele>509.3</ele>
        <time>2021-08-06T13:49:45Z</time>
      </trkpt>
      <trkpt lat="45.15609" lon="3.43396">
        <ele>509.7</ele>
        <time>2021-08-06T13:49:47Z</time>
      </trkpt>
      <trkpt lat="45.15607" lon="3.43401">
        <ele>509.6</ele>
        <time>2021-08-06T13:49:49Z</time>
      </trkpt>
      <trkpt lat="45.15605" lon="3.43406">
        <ele>509.7</ele>
        <time>2021-08-06T13:49:51Z</time>
      </trkpt>
      <trkpt lat="45.15605" lon="3.4341">
        <ele>510</ele>
        <time>2021-08-06T13:49:53Z</time>
      </trkpt>
      <trkpt lat="45.15604" lon="3.43416">
        <ele>510.2</ele>
        <time>2021-08-06T13:49:55Z</time>
      </trkpt>
      <trkpt lat="45.15604" lon="3.43421">
        <ele>510.1</ele>
        <time>2021-08-06T13:49:57Z</time>
      </trkpt>
      <trkpt lat="45.15603" lon="3.43426">
        <ele>509.8</ele>
        <time>2021-08-06T13:49:59Z</time>
      </trkpt>
      <trkpt lat="45.15602" lon="3.43431">
        <ele>509.6</ele>
        <time>2021-08-06T13:50:01Z</time>
      </trkpt>
      <trkpt lat="45.15601" lon="3.43436">
        <ele>509.3</ele>
        <time>2021-08-06T13:50:03Z</time>
      </trkpt>
      <trkpt lat="45.156" lon="3.43442">
        <ele>509.1</ele>
        <time>2021-08-06T13:50:05Z</time>
      </trkpt>
      <trkpt lat="45.15599" lon="3.43447">
        <ele>508.8</ele>
        <time>2021-08-06T13:50:07Z</time>
      </trkpt>
      <trkpt lat="45.15599" lon="3.43452">
        <ele>508.6</ele>
        <time>2021-08-06T13:50:09Z</time>
      </trkpt>
      <trkpt lat="45.15598" lon="3.43457">
        <ele>508.4</ele>
        <time>2021-08-06T13:50:11Z</time>
      </trkpt>
      <trkpt lat="45.15598" lon="3.43462">
        <ele>508.2</ele>
        <time>2021-08-06T13:50:13Z</time>
      </trkpt>
      <trkpt lat="45.15597" lon="3.43467">
        <ele>508</ele>
        <time>2021-08-06T13:50:15Z</time>
      </trkpt>
      <trkpt lat="45.15596" lon="3.43472">
        <ele>507.7</ele>
        <time>2021-08-06T13:50:17Z</time>
      </trkpt>
      <trkpt lat="45.15596" lon="3.43474">
        <ele>507.7</ele>
        <time>2021-08-06T13:50:19Z</time>
      </trkpt>
      <trkpt lat="45.15596" lon="3.43472">
        <ele>507.7</ele>
        <time>2021-08-06T13:50:21Z</time>
      </trkpt>
      <trkpt lat="45.15596" lon="3.43472">
        <ele>507.7</ele>
        <time>2021-08-06T13:50:23Z</time>
      </trkpt>
      <trkpt lat="45.15596" lon="3.43472">
        <ele>507.6</ele>
        <time>2021-08-06T13:50:25Z</time>
      </trkpt>
      <trkpt lat="45.15596" lon="3.43472">
        <ele>507.6</ele>
        <time>2021-08-06T13:50:27Z</time>
      </trkpt>
      <trkpt lat="45.15596" lon="3.43474">
        <ele>507.6</ele>
        <time>2021-08-06T13:51:29Z</time>
      </trkpt>
      <trkpt lat="45.15596" lon="3.43474">
        <ele>507.6</ele>
        <time>2021-08-06T13:51:31Z</time>
      </trkpt>
      <trkpt lat="45.15596" lon="3.43474">
        <ele>507.6</ele>
        <time>2021-08-06T13:51:33Z</time>
      </trkpt>
      <trkpt lat="45.15596" lon="3.43474">
        <ele>507.6</ele>
        <time>2021-08-06T13:51:35Z</time>
      </trkpt>
      <trkpt lat="45.15596" lon="3.43474">
        <ele>507.6</ele>
        <time>2021-08-06T13:51:37Z</time>
      </trkpt>
      <trkpt lat="45.15596" lon="3.43474">
        <ele>507.5</ele>
        <time>2021-08-06T13:51:39Z</time>
      </trkpt>
      <trkpt lat="45.15596" lon="3.43475">
        <ele>507.6</ele>
        <time>2021-08-06T13:51:41Z</time>
      </trkpt>
      <trkpt lat="45.15597" lon="3.43477">
        <ele>507.8</ele>
        <time>2021-08-06T13:51:43Z</time>
      </trkpt>
      <trkpt lat="45.15598" lon="3.43481">
        <ele>508.1</ele>
        <time>2021-08-06T13:51:45Z</time>
      </trkpt>
      <trkpt lat="45.15601" lon="3.43486">
        <ele>508.5</ele>
        <time>2021-08-06T13:51:47Z</time>
      </trkpt>
      <trkpt lat="45.15601" lon="3.43486">
        <ele>508.6</ele>
        <time>2021-08-06T13:51:49Z</time>
      </trkpt>
      <trkpt lat="45.156" lon="3.43484">
        <ele>508.5</ele>
        <time>2021-08-06T13:51:51Z</time>
      </trkpt>
      <trkpt lat="45.15599" lon="3.43483">
        <ele>508.3</ele>
        <time>2021-08-06T13:51:53Z</time>
      </trkpt>
      <trkpt lat="45.156" lon="3.43483">
        <ele>508.3</ele>
        <time>2021-08-06T13:51:55Z</time>
      </trkpt>
      <trkpt lat="45.15599" lon="3.43482">
        <ele>508.3</ele>
        <time>2021-08-06T13:51:57Z</time>
      </trkpt>
      <trkpt lat="45.15607" lon="3.43499">
        <ele>509.9</ele>
        <time>2021-08-06T13:53:47Z</time>
      </trkpt>
      <trkpt lat="45.15609" lon="3.43503">
        <ele>510.3</ele>
        <time>2021-08-06T13:53:49Z</time>
      </trkpt>
      <trkpt lat="45.15612" lon="3.43508">
        <ele>510.8</ele>
        <time>2021-08-06T13:53:51Z</time>
      </trkpt>
      <trkpt lat="45.15615" lon="3.43513">
        <ele>511.2</ele>
        <time>2021-08-06T13:53:53Z</time>
      </trkpt>
      <trkpt lat="45.15618" lon="3.43517">
        <ele>511.7</ele>
        <time>2021-08-06T13:53:55Z</time>
      </trkpt>
      <trkpt lat="45.15622" lon="3.4352">
        <ele>512.3</ele>
        <time>2021-08-06T13:53:57Z</time>
      </trkpt>
      <trkpt lat="45.15625" lon="3.43524">
        <ele>512.8</ele>
        <time>2021-08-06T13:53:59Z</time>
      </trkpt>
      <trkpt lat="45.15629" lon="3.43528">
        <ele>513.2</ele>
        <time>2021-08-06T13:54:01Z</time>
      </trkpt>
      <trkpt lat="45.15632" lon="3.43532">
        <ele>513.6</ele>
        <time>2021-08-06T13:54:03Z</time>
      </trkpt>
      <trkpt lat="45.15635" lon="3.43534">
        <ele>514.2</ele>
        <time>2021-08-06T13:54:05Z</time>
      </trkpt>
      <trkpt lat="45.15639" lon="3.43537">
        <ele>514.7</ele>
        <time>2021-08-06T13:54:07Z</time>
      </trkpt>
      <trkpt lat="45.15642" lon="3.43539">
        <ele>515.2</ele>
        <time>2021-08-06T13:54:09Z</time>
      </trkpt>
      <trkpt lat="45.15646" lon="3.43541">
        <ele>515.9</ele>
        <time>2021-08-06T13:54:11Z</time>
      </trkpt>
      <trkpt lat="45.1565" lon="3.43543">
        <ele>516.5</ele>
        <time>2021-08-06T13:54:13Z</time>
      </trkpt>
      <trkpt lat="45.15654" lon="3.43543">
        <ele>517.1</ele>
        <time>2021-08-06T13:54:15Z</time>
      </trkpt>
      <trkpt lat="45.15657" lon="3.43545">
        <ele>517.7</ele>
        <time>2021-08-06T13:54:17Z</time>
      </trkpt>
      <trkpt lat="45.15661" lon="3.43546">
        <ele>518.4</ele>
        <time>2021-08-06T13:54:19Z</time>
      </trkpt>
      <trkpt lat="45.15665" lon="3.43546">
        <ele>519.1</ele>
        <time>2021-08-06T13:54:21Z</time>
      </trkpt>
      <trkpt lat="45.15668" lon="3.43546">
        <ele>519.7</ele>
        <time>2021-08-06T13:54:23Z</time>
      </trkpt>
      <trkpt lat="45.15672" lon="3.43547">
        <ele>520</ele>
        <time>2021-08-06T13:54:25Z</time>
      </trkpt>
      <trkpt lat="45.15675" lon="3.43547">
        <ele>520.5</ele>
        <time>2021-08-06T13:54:27Z</time>
      </trkpt>
      <trkpt lat="45.15679" lon="3.43547">
        <ele>520.9</ele>
        <time>2021-08-06T13:54:29Z</time>
      </trkpt>
      <trkpt lat="45.15683" lon="3.43548">
        <ele>521.3</ele>
        <time>2021-08-06T13:54:31Z</time>
      </trkpt>
      <trkpt lat="45.15687" lon="3.43549">
        <ele>521.8</ele>
        <time>2021-08-06T13:54:33Z</time>
      </trkpt>
      <trkpt lat="45.1569" lon="3.43548">
        <ele>522.3</ele>
        <time>2021-08-06T13:54:35Z</time>
      </trkpt>
      <trkpt lat="45.15693" lon="3.43549">
        <ele>522.7</ele>
        <time>2021-08-06T13:54:37Z</time>
      </trkpt>
      <trkpt lat="45.15697" lon="3.43549">
        <ele>523.3</ele>
        <time>2021-08-06T13:54:39Z</time>
      </trkpt>
      <trkpt lat="45.15701" lon="3.43549">
        <ele>523.7</ele>
        <time>2021-08-06T13:54:41Z</time>
      </trkpt>
      <trkpt lat="45.15704" lon="3.43549">
        <ele>524.2</ele>
        <time>2021-08-06T13:54:43Z</time>
      </trkpt>
      <trkpt lat="45.15708" lon="3.43548">
        <ele>524.8</ele>
        <time>2021-08-06T13:54:45Z</time>
      </trkpt>
      <trkpt lat="45.15712" lon="3.43548">
        <ele>525.3</ele>
        <time>2021-08-06T13:54:47Z</time>
      </trkpt>
      <trkpt lat="45.15716" lon="3.43548">
        <ele>525.8</ele>
        <time>2021-08-06T13:54:49Z</time>
      </trkpt>
      <trkpt lat="45.15719" lon="3.43547">
        <ele>526.4</ele>
        <time>2021-08-06T13:54:51Z</time>
      </trkpt>
      <trkpt lat="45.15723" lon="3.43547">
        <ele>526.9</ele>
        <time>2021-08-06T13:54:53Z</time>
      </trkpt>
      <trkpt lat="45.15727" lon="3.43547">
        <ele>527.4</ele>
        <time>2021-08-06T13:54:55Z</time>
      </trkpt>
      <trkpt lat="45.1573" lon="3.43546">
        <ele>528</ele>
        <time>2021-08-06T13:54:57Z</time>
      </trkpt>
      <trkpt lat="45.15734" lon="3.43545">
        <ele>528.5</ele>
        <time>2021-08-06T13:54:59Z</time>
      </trkpt>
      <trkpt lat="45.15737" lon="3.43546">
        <ele>528.9</ele>
        <time>2021-08-06T13:55:01Z</time>
      </trkpt>
      <trkpt lat="45.15741" lon="3.43546">
        <ele>529.3</ele>
        <time>2021-08-06T13:55:03Z</time>
      </trkpt>
      <trkpt lat="45.15744" lon="3.43545">
        <ele>529.9</ele>
        <time>2021-08-06T13:55:05Z</time>
      </trkpt>
      <trkpt lat="45.15748" lon="3.43545">
        <ele>530.4</ele>
        <time>2021-08-06T13:55:07Z</time>
      </trkpt>
      <trkpt lat="45.15752" lon="3.43545">
        <ele>530.8</ele>
        <time>2021-08-06T13:55:09Z</time>
      </trkpt>
      <trkpt lat="45.15755" lon="3.43545">
        <ele>531.2</ele>
        <time>2021-08-06T13:55:11Z</time>
      </trkpt>
      <trkpt lat="45.15759" lon="3.43545">
        <ele>531.5</ele>
        <time>2021-08-06T13:55:13Z</time>
      </trkpt>
      <trkpt lat="45.15762" lon="3.43545">
        <ele>531.8</ele>
        <time>2021-08-06T13:55:15Z</time>
      </trkpt>
      <trkpt lat="45.15766" lon="3.43545">
        <ele>532.1</ele>
        <time>2021-08-06T13:55:17Z</time>
      </trkpt>
      <trkpt lat="45.1577" lon="3.43545">
        <ele>532.5</ele>
        <time>2021-08-06T13:55:19Z</time>
      </trkpt>
      <trkpt lat="45.15774" lon="3.43545">
        <ele>532.8</ele>
        <time>2021-08-06T13:55:21Z</time>
      </trkpt>
      <trkpt lat="45.15777" lon="3.43545">
        <ele>533.1</ele>
        <time>2021-08-06T13:55:23Z</time>
      </trkpt>
      <trkpt lat="45.15781" lon="3.43546">
        <ele>533.4</ele>
        <time>2021-08-06T13:55:25Z</time>
      </trkpt>
      <trkpt lat="45.15784" lon="3.43546">
        <ele>533.7</ele>
        <time>2021-08-06T13:55:27Z</time>
      </trkpt>
      <trkpt lat="45.15788" lon="3.43546">
        <ele>534.1</ele>
        <time>2021-08-06T13:55:29Z</time>
      </trkpt>
      <trkpt lat="45.15791" lon="3.43546">
        <ele>534.3</ele>
        <time>2021-08-06T13:55:31Z</time>
      </trkpt>
      <trkpt lat="45.15794" lon="3.43547">
        <ele>534.6</ele>
        <time>2021-08-06T13:55:33Z</time>
      </trkpt>
      <trkpt lat="45.15797" lon="3.43547">
        <ele>534.9</ele>
        <time>2021-08-06T13:55:35Z</time>
      </trkpt>
      <trkpt lat="45.158" lon="3.43547">
        <ele>535.1</ele>
        <time>2021-08-06T13:55:37Z</time>
      </trkpt>
      <trkpt lat="45.15803" lon="3.43549">
        <ele>535.3</ele>
        <time>2021-08-06T13:55:39Z</time>
      </trkpt>
      <trkpt lat="45.15806" lon="3.43549">
        <ele>535.5</ele>
        <time>2021-08-06T13:55:41Z</time>
      </trkpt>
      <trkpt lat="45.15809" lon="3.4355">
        <ele>535.7</ele>
        <time>2021-08-06T13:55:43Z</time>
      </trkpt>
      <trkpt lat="45.15812" lon="3.43552">
        <ele>535.9</ele>
        <time>2021-08-06T13:55:45Z</time>
      </trkpt>
      <trkpt lat="45.15814" lon="3.43551">
        <ele>536.1</ele>
        <time>2021-08-06T13:55:47Z</time>
      </trkpt>
      <trkpt lat="45.15817" lon="3.4355">
        <ele>536.4</ele>
        <time>2021-08-06T13:55:49Z</time>
      </trkpt>
      <trkpt lat="45.15818" lon="3.43548">
        <ele>536.7</ele>
        <time>2021-08-06T13:55:51Z</time>
      </trkpt>
      <trkpt lat="45.15819" lon="3.43546">
        <ele>537</ele>
        <time>2021-08-06T13:55:53Z</time>
      </trkpt>
      <trkpt lat="45.15819" lon="3.43546">
        <ele>536.9</ele>
        <time>2021-08-06T13:55:55Z</time>
      </trkpt>
      <trkpt lat="45.15819" lon="3.43546">
        <ele>536.9</ele>
        <time>2021-08-06T13:55:57Z</time>
      </trkpt>
      <trkpt lat="45.15819" lon="3.43546">
        <ele>536.9</ele>
        <time>2021-08-06T13:55:59Z</time>
      </trkpt>
      <trkpt lat="45.15819" lon="3.43546">
        <ele>536.9</ele>
        <time>2021-08-06T13:56:01Z</time>
      </trkpt>
      <trkpt lat="45.15815" lon="3.43542">
        <ele>536.8</ele>
        <time>2021-08-06T13:56:33Z</time>
      </trkpt>
      <trkpt lat="45.15813" lon="3.43545">
        <ele>536.5</ele>
        <time>2021-08-06T13:56:35Z</time>
      </trkpt>
      <trkpt lat="45.15814" lon="3.43549">
        <ele>536.2</ele>
        <time>2021-08-06T13:56:37Z</time>
      </trkpt>
      <trkpt lat="45.15817" lon="3.43549">
        <ele>536.5</ele>
        <time>2021-08-06T13:56:39Z</time>
      </trkpt>
      <trkpt lat="45.15818" lon="3.43546">
        <ele>536.8</ele>
        <time>2021-08-06T13:56:41Z</time>
      </trkpt>
      <trkpt lat="45.15816" lon="3.43543">
        <ele>536.8</ele>
        <time>2021-08-06T13:56:43Z</time>
      </trkpt>
      <trkpt lat="45.15814" lon="3.4354">
        <ele>536.9</ele>
        <time>2021-08-06T13:56:45Z</time>
      </trkpt>
      <trkpt lat="45.15813" lon="3.43536">
        <ele>537.1</ele>
        <time>2021-08-06T13:56:47Z</time>
      </trkpt>
      <trkpt lat="45.15812" lon="3.43534">
        <ele>537.1</ele>
        <time>2021-08-06T13:56:49Z</time>
      </trkpt>
      <trkpt lat="45.15811" lon="3.4353">
        <ele>537.3</ele>
        <time>2021-08-06T13:56:51Z</time>
      </trkpt>
      <trkpt lat="45.15811" lon="3.4353">
        <ele>537.3</ele>
        <time>2021-08-06T13:56:53Z</time>
      </trkpt>
      <trkpt lat="45.1581" lon="3.43531">
        <ele>537.1</ele>
        <time>2021-08-06T13:56:55Z</time>
      </trkpt>
      <trkpt lat="45.15809" lon="3.43531">
        <ele>537.1</ele>
        <time>2021-08-06T13:56:57Z</time>
      </trkpt>
      <trkpt lat="45.15809" lon="3.43531">
        <ele>537.1</ele>
        <time>2021-08-06T13:56:59Z</time>
      </trkpt>
      <trkpt lat="45.15809" lon="3.43531">
        <ele>537.1</ele>
        <time>2021-08-06T13:57:01Z</time>
      </trkpt>
      <trkpt lat="45.15809" lon="3.43532">
        <ele>536.9</ele>
        <time>2021-08-06T13:57:35Z</time>
      </trkpt>
      <trkpt lat="45.15809" lon="3.43533">
        <ele>536.9</ele>
        <time>2021-08-06T13:57:37Z</time>
      </trkpt>
      <trkpt lat="45.15809" lon="3.43533">
        <ele>536.9</ele>
        <time>2021-08-06T13:57:39Z</time>
      </trkpt>
      <trkpt lat="45.15809" lon="3.43533">
        <ele>536.9</ele>
        <time>2021-08-06T13:57:41Z</time>
      </trkpt>
      <trkpt lat="45.15808" lon="3.43533">
        <ele>536.9</ele>
        <time>2021-08-06T13:57:43Z</time>
      </trkpt>
      <trkpt lat="45.15807" lon="3.43538">
        <ele>536.4</ele>
        <time>2021-08-06T13:57:45Z</time>
      </trkpt>
      <trkpt lat="45.15809" lon="3.43544">
        <ele>536.2</ele>
        <time>2021-08-06T13:57:47Z</time>
      </trkpt>
      <trkpt lat="45.15811" lon="3.43549">
        <ele>536</ele>
        <time>2021-08-06T13:57:49Z</time>
      </trkpt>
      <trkpt lat="45.15812" lon="3.43554">
        <ele>535.7</ele>
        <time>2021-08-06T13:57:51Z</time>
      </trkpt>
      <trkpt lat="45.15812" lon="3.43559">
        <ele>535.4</ele>
        <time>2021-08-06T13:57:53Z</time>
      </trkpt>
      <trkpt lat="45.15813" lon="3.43561">
        <ele>535.4</ele>
        <time>2021-08-06T13:57:55Z</time>
      </trkpt>
      <trkpt lat="45.15813" lon="3.4356">
        <ele>535.4</ele>
        <time>2021-08-06T13:57:57Z</time>
      </trkpt>
      <trkpt lat="45.15813" lon="3.4356">
        <ele>535.4</ele>
        <time>2021-08-06T13:57:59Z</time>
      </trkpt>
      <trkpt lat="45.15813" lon="3.43561">
        <ele>535.4</ele>
        <time>2021-08-06T13:58:01Z</time>
      </trkpt>
      <trkpt lat="45.15813" lon="3.43561">
        <ele>535.3</ele>
        <time>2021-08-06T13:58:03Z</time>
      </trkpt>
      <trkpt lat="45.15825" lon="3.43581">
        <ele>535.3</ele>
        <time>2021-08-06T14:00:35Z</time>
      </trkpt>
      <trkpt lat="45.15827" lon="3.43599">
        <ele>535</ele>
        <time>2021-08-06T14:00:37Z</time>
      </trkpt>
      <trkpt lat="45.15825" lon="3.4362">
        <ele>534.5</ele>
        <time>2021-08-06T14:00:39Z</time>
      </trkpt>
      <trkpt lat="45.15823" lon="3.43641">
        <ele>534</ele>
        <time>2021-08-06T14:00:41Z</time>
      </trkpt>
      <trkpt lat="45.15824" lon="3.43663">
        <ele>533.7</ele>
        <time>2021-08-06T14:00:43Z</time>
      </trkpt>
      <trkpt lat="45.15825" lon="3.43683">
        <ele>534.8</ele>
        <time>2021-08-06T14:00:45Z</time>
      </trkpt>
      <trkpt lat="45.15827" lon="3.43699">
        <ele>535.9</ele>
        <time>2021-08-06T14:00:47Z</time>
      </trkpt>
      <trkpt lat="45.1583" lon="3.4371">
        <ele>536.6</ele>
        <time>2021-08-06T14:00:49Z</time>
      </trkpt>
      <trkpt lat="45.15833" lon="3.43717">
        <ele>537</ele>
        <time>2021-08-06T14:00:51Z</time>
      </trkpt>
      <trkpt lat="45.15833" lon="3.43722">
        <ele>537.3</ele>
        <time>2021-08-06T14:00:53Z</time>
      </trkpt>
      <trkpt lat="45.15834" lon="3.43726">
        <ele>537.5</ele>
        <time>2021-08-06T14:00:55Z</time>
      </trkpt>
      <trkpt lat="45.15835" lon="3.43729">
        <ele>537.7</ele>
        <time>2021-08-06T14:00:57Z</time>
      </trkpt>
      <trkpt lat="45.15835" lon="3.43728">
        <ele>537.7</ele>
        <time>2021-08-06T14:00:59Z</time>
      </trkpt>
      <trkpt lat="45.15835" lon="3.43729">
        <ele>537.7</ele>
        <time>2021-08-06T14:01:01Z</time>
      </trkpt>
      <trkpt lat="45.15836" lon="3.4373">
        <ele>537.8</ele>
        <time>2021-08-06T14:01:03Z</time>
      </trkpt>
      <trkpt lat="45.15836" lon="3.4373">
        <ele>537.8</ele>
        <time>2021-08-06T14:01:05Z</time>
      </trkpt>
      <trkpt lat="45.15837" lon="3.43731">
        <ele>537.8</ele>
        <time>2021-08-06T14:01:07Z</time>
      </trkpt>
      <trkpt lat="45.15842" lon="3.43752">
        <ele>538.9</ele>
        <time>2021-08-06T14:01:31Z</time>
      </trkpt>
      <trkpt lat="45.15843" lon="3.43757">
        <ele>539.1</ele>
        <time>2021-08-06T14:01:33Z</time>
      </trkpt>
      <trkpt lat="45.15844" lon="3.43761">
        <ele>539.3</ele>
        <time>2021-08-06T14:01:35Z</time>
      </trkpt>
      <trkpt lat="45.15846" lon="3.43766">
        <ele>539.5</ele>
        <time>2021-08-06T14:01:37Z</time>
      </trkpt>
      <trkpt lat="45.15847" lon="3.43772">
        <ele>539.8</ele>
        <time>2021-08-06T14:01:39Z</time>
      </trkpt>
      <trkpt lat="45.15849" lon="3.43777">
        <ele>540.1</ele>
        <time>2021-08-06T14:01:41Z</time>
      </trkpt>
      <trkpt lat="45.1585" lon="3.43782">
        <ele>540.3</ele>
        <time>2021-08-06T14:01:43Z</time>
      </trkpt>
      <trkpt lat="45.15851" lon="3.43787">
        <ele>540.5</ele>
        <time>2021-08-06T14:01:45Z</time>
      </trkpt>
      <trkpt lat="45.15852" lon="3.43791">
        <ele>540.8</ele>
        <time>2021-08-06T14:01:47Z</time>
      </trkpt>
      <trkpt lat="45.15853" lon="3.43797">
        <ele>541</ele>
        <time>2021-08-06T14:01:49Z</time>
      </trkpt>
      <trkpt lat="45.15855" lon="3.43803">
        <ele>541.3</ele>
        <time>2021-08-06T14:01:51Z</time>
      </trkpt>
      <trkpt lat="45.15856" lon="3.43807">
        <ele>541.6</ele>
        <time>2021-08-06T14:01:53Z</time>
      </trkpt>
      <trkpt lat="45.15858" lon="3.43811">
        <ele>541.8</ele>
        <time>2021-08-06T14:01:55Z</time>
      </trkpt>
      <trkpt lat="45.15859" lon="3.43814">
        <ele>542</ele>
        <time>2021-08-06T14:01:57Z</time>
      </trkpt>
      <trkpt lat="45.15861" lon="3.43819">
        <ele>542.2</ele>
        <time>2021-08-06T14:01:59Z</time>
      </trkpt>
      <trkpt lat="45.15863" lon="3.43822">
        <ele>542.4</ele>
        <time>2021-08-06T14:02:01Z</time>
      </trkpt>
      <trkpt lat="45.15866" lon="3.43826">
        <ele>542.6</ele>
        <time>2021-08-06T14:02:03Z</time>
      </trkpt>
      <trkpt lat="45.15867" lon="3.43832">
        <ele>542.9</ele>
        <time>2021-08-06T14:02:05Z</time>
      </trkpt>
      <trkpt lat="45.15867" lon="3.43838">
        <ele>543.1</ele>
        <time>2021-08-06T14:02:07Z</time>
      </trkpt>
      <trkpt lat="45.15868" lon="3.43844">
        <ele>543.2</ele>
        <time>2021-08-06T14:02:09Z</time>
      </trkpt>
      <trkpt lat="45.15868" lon="3.4385">
        <ele>543.4</ele>
        <time>2021-08-06T14:02:11Z</time>
      </trkpt>
      <trkpt lat="45.15868" lon="3.43856">
        <ele>543.5</ele>
        <time>2021-08-06T14:02:13Z</time>
      </trkpt>
      <trkpt lat="45.15868" lon="3.43862">
        <ele>543.7</ele>
        <time>2021-08-06T14:02:15Z</time>
      </trkpt>
      <trkpt lat="45.15868" lon="3.43867">
        <ele>543.8</ele>
        <time>2021-08-06T14:02:17Z</time>
      </trkpt>
      <trkpt lat="45.15868" lon="3.43872">
        <ele>543.9</ele>
        <time>2021-08-06T14:02:19Z</time>
      </trkpt>
      <trkpt lat="45.15868" lon="3.43878">
        <ele>544</ele>
        <time>2021-08-06T14:02:21Z</time>
      </trkpt>
      <trkpt lat="45.15869" lon="3.43883">
        <ele>544.2</ele>
        <time>2021-08-06T14:02:23Z</time>
      </trkpt>
      <trkpt lat="45.1587" lon="3.43889">
        <ele>544.4</ele>
        <time>2021-08-06T14:02:25Z</time>
      </trkpt>
      <trkpt lat="45.1587" lon="3.43894">
        <ele>544.5</ele>
        <time>2021-08-06T14:02:27Z</time>
      </trkpt>
      <trkpt lat="45.1587" lon="3.43899">
        <ele>544.6</ele>
        <time>2021-08-06T14:02:29Z</time>
      </trkpt>
      <trkpt lat="45.15871" lon="3.43905">
        <ele>544.8</ele>
        <time>2021-08-06T14:02:31Z</time>
      </trkpt>
      <trkpt lat="45.15872" lon="3.43911">
        <ele>545.1</ele>
        <time>2021-08-06T14:02:33Z</time>
      </trkpt>
      <trkpt lat="45.15873" lon="3.43916">
        <ele>545.3</ele>
        <time>2021-08-06T14:02:35Z</time>
      </trkpt>
      <trkpt lat="45.15873" lon="3.43922">
        <ele>545.4</ele>
        <time>2021-08-06T14:02:37Z</time>
      </trkpt>
      <trkpt lat="45.15874" lon="3.4393">
        <ele>545.5</ele>
        <time>2021-08-06T14:02:39Z</time>
      </trkpt>
      <trkpt lat="45.15873" lon="3.43938">
        <ele>545.5</ele>
        <time>2021-08-06T14:02:41Z</time>
      </trkpt>
      <trkpt lat="45.15872" lon="3.43948">
        <ele>545.4</ele>
        <time>2021-08-06T14:02:43Z</time>
      </trkpt>
      <trkpt lat="45.15871" lon="3.43958">
        <ele>545.3</ele>
        <time>2021-08-06T14:02:45Z</time>
      </trkpt>
      <trkpt lat="45.1587" lon="3.4397">
        <ele>545.2</ele>
        <time>2021-08-06T14:02:47Z</time>
      </trkpt>
      <trkpt lat="45.15868" lon="3.43983">
        <ele>545</ele>
        <time>2021-08-06T14:02:49Z</time>
      </trkpt>
      <trkpt lat="45.15867" lon="3.43996">
        <ele>544.9</ele>
        <time>2021-08-06T14:02:51Z</time>
      </trkpt>
      <trkpt lat="45.15866" lon="3.44009">
        <ele>544.8</ele>
        <time>2021-08-06T14:02:53Z</time>
      </trkpt>
      <trkpt lat="45.15864" lon="3.44023">
        <ele>544.9</ele>
        <time>2021-08-06T14:02:55Z</time>
      </trkpt>
      <trkpt lat="45.15862" lon="3.44037">
        <ele>545</ele>
        <time>2021-08-06T14:02:57Z</time>
      </trkpt>
      <trkpt lat="45.1586" lon="3.44052">
        <ele>545.1</ele>
        <time>2021-08-06T14:02:59Z</time>
      </trkpt>
      <trkpt lat="45.15859" lon="3.44066">
        <ele>545.3</ele>
        <time>2021-08-06T14:03:01Z</time>
      </trkpt>
      <trkpt lat="45.15857" lon="3.4408">
        <ele>545.4</ele>
        <time>2021-08-06T14:03:03Z</time>
      </trkpt>
      <trkpt lat="45.15855" lon="3.44094">
        <ele>544.9</ele>
        <time>2021-08-06T14:03:05Z</time>
      </trkpt>
      <trkpt lat="45.15854" lon="3.44108">
        <ele>544.4</ele>
        <time>2021-08-06T14:03:07Z</time>
      </trkpt>
      <trkpt lat="45.15852" lon="3.44122">
        <ele>543.8</ele>
        <time>2021-08-06T14:03:09Z</time>
      </trkpt>
      <trkpt lat="45.1585" lon="3.44137">
        <ele>543</ele>
        <time>2021-08-06T14:03:11Z</time>
      </trkpt>
      <trkpt lat="45.15848" lon="3.44153">
        <ele>542.5</ele>
        <time>2021-08-06T14:03:13Z</time>
      </trkpt>
      <trkpt lat="45.15846" lon="3.44169">
        <ele>541.9</ele>
        <time>2021-08-06T14:03:15Z</time>
      </trkpt>
      <trkpt lat="45.15844" lon="3.44186">
        <ele>541.8</ele>
        <time>2021-08-06T14:03:17Z</time>
      </trkpt>
      <trkpt lat="45.15842" lon="3.44204">
        <ele>541.6</ele>
        <time>2021-08-06T14:03:19Z</time>
      </trkpt>
      <trkpt lat="45.15836" lon="3.44221">
        <ele>541.1</ele>
        <time>2021-08-06T14:03:21Z</time>
      </trkpt>
      <trkpt lat="45.15828" lon="3.44238">
        <ele>540.4</ele>
        <time>2021-08-06T14:03:23Z</time>
      </trkpt>
      <trkpt lat="45.15817" lon="3.44251">
        <ele>539.7</ele>
        <time>2021-08-06T14:03:25Z</time>
      </trkpt>
      <trkpt lat="45.15805" lon="3.44261">
        <ele>539.9</ele>
        <time>2021-08-06T14:03:27Z</time>
      </trkpt>
      <trkpt lat="45.15793" lon="3.4427">
        <ele>539.9</ele>
        <time>2021-08-06T14:03:29Z</time>
      </trkpt>
      <trkpt lat="45.15783" lon="3.44278">
        <ele>540</ele>
        <time>2021-08-06T14:03:31Z</time>
      </trkpt>
      <trkpt lat="45.15773" lon="3.44285">
        <ele>540.2</ele>
        <time>2021-08-06T14:03:33Z</time>
      </trkpt>
      <trkpt lat="45.15764" lon="3.44292">
        <ele>540.4</ele>
        <time>2021-08-06T14:03:35Z</time>
      </trkpt>
      <trkpt lat="45.15757" lon="3.443">
        <ele>541</ele>
        <time>2021-08-06T14:03:37Z</time>
      </trkpt>
      <trkpt lat="45.1575" lon="3.44309">
        <ele>541.7</ele>
        <time>2021-08-06T14:03:39Z</time>
      </trkpt>
      <trkpt lat="45.15745" lon="3.44317">
        <ele>541.9</ele>
        <time>2021-08-06T14:03:41Z</time>
      </trkpt>
      <trkpt lat="45.1574" lon="3.44326">
        <ele>542.3</ele>
        <time>2021-08-06T14:03:43Z</time>
      </trkpt>
      <trkpt lat="45.15736" lon="3.44336">
        <ele>542.8</ele>
        <time>2021-08-06T14:03:45Z</time>
      </trkpt>
      <trkpt lat="45.15732" lon="3.44346">
        <ele>543.1</ele>
        <time>2021-08-06T14:03:47Z</time>
      </trkpt>
      <trkpt lat="45.1573" lon="3.44357">
        <ele>543.7</ele>
        <time>2021-08-06T14:03:49Z</time>
      </trkpt>
      <trkpt lat="45.15727" lon="3.44368">
        <ele>544.4</ele>
        <time>2021-08-06T14:03:51Z</time>
      </trkpt>
      <trkpt lat="45.15725" lon="3.4438">
        <ele>545.1</ele>
        <time>2021-08-06T14:03:53Z</time>
      </trkpt>
      <trkpt lat="45.15721" lon="3.44393">
        <ele>545.8</ele>
        <time>2021-08-06T14:03:55Z</time>
      </trkpt>
      <trkpt lat="45.15718" lon="3.44408">
        <ele>546.5</ele>
        <time>2021-08-06T14:03:57Z</time>
      </trkpt>
      <trkpt lat="45.15713" lon="3.44422">
        <ele>547.3</ele>
        <time>2021-08-06T14:03:59Z</time>
      </trkpt>
      <trkpt lat="45.15705" lon="3.44436">
        <ele>548</ele>
        <time>2021-08-06T14:04:01Z</time>
      </trkpt>
      <trkpt lat="45.15693" lon="3.44448">
        <ele>547.8</ele>
        <time>2021-08-06T14:04:03Z</time>
      </trkpt>
      <trkpt lat="45.15678" lon="3.44454">
        <ele>546.4</ele>
        <time>2021-08-06T14:04:05Z</time>
      </trkpt>
      <trkpt lat="45.15663" lon="3.44449">
        <ele>543.3</ele>
        <time>2021-08-06T14:04:07Z</time>
      </trkpt>
      <trkpt lat="45.1565" lon="3.44442">
        <ele>540.9</ele>
        <time>2021-08-06T14:04:09Z</time>
      </trkpt>
      <trkpt lat="45.15638" lon="3.44435">
        <ele>538.7</ele>
        <time>2021-08-06T14:04:11Z</time>
      </trkpt>
      <trkpt lat="45.15625" lon="3.44429">
        <ele>536.7</ele>
        <time>2021-08-06T14:04:13Z</time>
      </trkpt>
      <trkpt lat="45.15611" lon="3.44426">
        <ele>535.3</ele>
        <time>2021-08-06T14:04:15Z</time>
      </trkpt>
      <trkpt lat="45.15597" lon="3.44427">
        <ele>534.6</ele>
        <time>2021-08-06T14:04:17Z</time>
      </trkpt>
      <trkpt lat="45.15581" lon="3.44433">
        <ele>534</ele>
        <time>2021-08-06T14:04:19Z</time>
      </trkpt>
      <trkpt lat="45.15566" lon="3.44443">
        <ele>532</ele>
        <time>2021-08-06T14:04:21Z</time>
      </trkpt>
      <trkpt lat="45.15555" lon="3.44462">
        <ele>532.1</ele>
        <time>2021-08-06T14:04:23Z</time>
      </trkpt>
      <trkpt lat="45.15544" lon="3.44484">
        <ele>533.5</ele>
        <time>2021-08-06T14:04:25Z</time>
      </trkpt>
      <trkpt lat="45.15532" lon="3.44503">
        <ele>534.1</ele>
        <time>2021-08-06T14:04:27Z</time>
      </trkpt>
      <trkpt lat="45.15514" lon="3.44512">
        <ele>531.8</ele>
        <time>2021-08-06T14:04:29Z</time>
      </trkpt>
      <trkpt lat="45.15496" lon="3.44515">
        <ele>528.4</ele>
        <time>2021-08-06T14:04:31Z</time>
      </trkpt>
      <trkpt lat="45.15479" lon="3.44526">
        <ele>525.9</ele>
        <time>2021-08-06T14:04:33Z</time>
      </trkpt>
      <trkpt lat="45.15461" lon="3.44544">
        <ele>524.8</ele>
        <time>2021-08-06T14:04:35Z</time>
      </trkpt>
      <trkpt lat="45.15444" lon="3.44563">
        <ele>524.4</ele>
        <time>2021-08-06T14:04:37Z</time>
      </trkpt>
      <trkpt lat="45.15425" lon="3.44575">
        <ele>521.6</ele>
        <time>2021-08-06T14:04:39Z</time>
      </trkpt>
      <trkpt lat="45.15404" lon="3.44581">
        <ele>517.3</ele>
        <time>2021-08-06T14:04:41Z</time>
      </trkpt>
      <trkpt lat="45.15382" lon="3.44583">
        <ele>512.3</ele>
        <time>2021-08-06T14:04:43Z</time>
      </trkpt>
      <trkpt lat="45.15369" lon="3.44601">
        <ele>512.1</ele>
        <time>2021-08-06T14:04:45Z</time>
      </trkpt>
      <trkpt lat="45.15354" lon="3.44613">
        <ele>510.4</ele>
        <time>2021-08-06T14:04:47Z</time>
      </trkpt>
      <trkpt lat="45.15345" lon="3.44635">
        <ele>511.4</ele>
        <time>2021-08-06T14:04:49Z</time>
      </trkpt>
      <trkpt lat="45.1534" lon="3.4466">
        <ele>514.1</ele>
        <time>2021-08-06T14:04:51Z</time>
      </trkpt>
      <trkpt lat="45.1533" lon="3.44679">
        <ele>514.4</ele>
        <time>2021-08-06T14:04:53Z</time>
      </trkpt>
      <trkpt lat="45.15313" lon="3.44691">
        <ele>513.1</ele>
        <time>2021-08-06T14:04:55Z</time>
      </trkpt>
      <trkpt lat="45.15293" lon="3.44696">
        <ele>510.4</ele>
        <time>2021-08-06T14:04:57Z</time>
      </trkpt>
      <trkpt lat="45.15272" lon="3.44704">
        <ele>507.9</ele>
        <time>2021-08-06T14:04:59Z</time>
      </trkpt>
      <trkpt lat="45.1525" lon="3.44709">
        <ele>504.7</ele>
        <time>2021-08-06T14:05:01Z</time>
      </trkpt>
      <trkpt lat="45.15226" lon="3.44713">
        <ele>503.3</ele>
        <time>2021-08-06T14:05:03Z</time>
      </trkpt>
      <trkpt lat="45.15202" lon="3.44716">
        <ele>501.8</ele>
        <time>2021-08-06T14:05:05Z</time>
      </trkpt>
      <trkpt lat="45.15176" lon="3.44719">
        <ele>500</ele>
        <time>2021-08-06T14:05:07Z</time>
      </trkpt>
      <trkpt lat="45.15152" lon="3.44718">
        <ele>499.9</ele>
        <time>2021-08-06T14:05:09Z</time>
      </trkpt>
      <trkpt lat="45.1513" lon="3.44717">
        <ele>500.9</ele>
        <time>2021-08-06T14:05:11Z</time>
      </trkpt>
      <trkpt lat="45.1511" lon="3.44714">
        <ele>501.7</ele>
        <time>2021-08-06T14:05:13Z</time>
      </trkpt>
      <trkpt lat="45.15093" lon="3.44711">
        <ele>502.3</ele>
        <time>2021-08-06T14:05:15Z</time>
      </trkpt>
      <trkpt lat="45.1508" lon="3.4471">
        <ele>503</ele>
        <time>2021-08-06T14:05:17Z</time>
      </trkpt>
      <trkpt lat="45.15068" lon="3.44707">
        <ele>503.6</ele>
        <time>2021-08-06T14:05:19Z</time>
      </trkpt>
      <trkpt lat="45.15058" lon="3.44702">
        <ele>503.9</ele>
        <time>2021-08-06T14:05:21Z</time>
      </trkpt>
      <trkpt lat="45.15048" lon="3.44697">
        <ele>504.2</ele>
        <time>2021-08-06T14:05:23Z</time>
      </trkpt>
      <trkpt lat="45.1504" lon="3.44691">
        <ele>504.6</ele>
        <time>2021-08-06T14:05:25Z</time>
      </trkpt>
      <trkpt lat="45.15033" lon="3.44686">
        <ele>505</ele>
        <time>2021-08-06T14:05:27Z</time>
      </trkpt>
      <trkpt lat="45.15026" lon="3.44679">
        <ele>505.3</ele>
        <time>2021-08-06T14:05:29Z</time>
      </trkpt>
      <trkpt lat="45.1502" lon="3.44676">
        <ele>505.9</ele>
        <time>2021-08-06T14:05:31Z</time>
      </trkpt>
      <trkpt lat="45.15014" lon="3.44674">
        <ele>506.5</ele>
        <time>2021-08-06T14:05:33Z</time>
      </trkpt>
      <trkpt lat="45.15008" lon="3.44673">
        <ele>507.2</ele>
        <time>2021-08-06T14:05:35Z</time>
      </trkpt>
      <trkpt lat="45.15001" lon="3.44673">
        <ele>508</ele>
        <time>2021-08-06T14:05:37Z</time>
      </trkpt>
      <trkpt lat="45.14995" lon="3.44675">
        <ele>508.3</ele>
        <time>2021-08-06T14:05:39Z</time>
      </trkpt>
      <trkpt lat="45.14989" lon="3.44676">
        <ele>508.6</ele>
        <time>2021-08-06T14:05:41Z</time>
      </trkpt>
      <trkpt lat="45.14983" lon="3.44679">
        <ele>508.8</ele>
        <time>2021-08-06T14:05:43Z</time>
      </trkpt>
      <trkpt lat="45.14976" lon="3.44681">
        <ele>509</ele>
        <time>2021-08-06T14:05:45Z</time>
      </trkpt>
      <trkpt lat="45.1497" lon="3.44684">
        <ele>509.2</ele>
        <time>2021-08-06T14:05:47Z</time>
      </trkpt>
      <trkpt lat="45.14964" lon="3.44688">
        <ele>509.4</ele>
        <time>2021-08-06T14:05:49Z</time>
      </trkpt>
      <trkpt lat="45.14958" lon="3.44691">
        <ele>509.5</ele>
        <time>2021-08-06T14:05:51Z</time>
      </trkpt>
      <trkpt lat="45.1495" lon="3.44694">
        <ele>509.7</ele>
        <time>2021-08-06T14:05:53Z</time>
      </trkpt>
      <trkpt lat="45.14942" lon="3.44697">
        <ele>509.8</ele>
        <time>2021-08-06T14:05:55Z</time>
      </trkpt>
      <trkpt lat="45.14934" lon="3.44701">
        <ele>509.9</ele>
        <time>2021-08-06T14:05:57Z</time>
      </trkpt>
      <trkpt lat="45.14925" lon="3.44705">
        <ele>509.9</ele>
        <time>2021-08-06T14:05:59Z</time>
      </trkpt>
      <trkpt lat="45.14916" lon="3.4471">
        <ele>509.9</ele>
        <time>2021-08-06T14:06:01Z</time>
      </trkpt>
      <trkpt lat="45.14906" lon="3.44715">
        <ele>509.5</ele>
        <time>2021-08-06T14:06:03Z</time>
      </trkpt>
      <trkpt lat="45.14896" lon="3.44722">
        <ele>509</ele>
        <time>2021-08-06T14:06:05Z</time>
      </trkpt>
      <trkpt lat="45.14886" lon="3.44727">
        <ele>508.5</ele>
        <time>2021-08-06T14:06:07Z</time>
      </trkpt>
      <trkpt lat="45.14874" lon="3.44731">
        <ele>507.9</ele>
        <time>2021-08-06T14:06:09Z</time>
      </trkpt>
      <trkpt lat="45.14862" lon="3.44737">
        <ele>507.1</ele>
        <time>2021-08-06T14:06:11Z</time>
      </trkpt>
      <trkpt lat="45.14849" lon="3.44744">
        <ele>506.1</ele>
        <time>2021-08-06T14:06:13Z</time>
      </trkpt>
      <trkpt lat="45.14837" lon="3.44755">
        <ele>505.1</ele>
        <time>2021-08-06T14:06:15Z</time>
      </trkpt>
      <trkpt lat="45.14828" lon="3.44772">
        <ele>504.5</ele>
        <time>2021-08-06T14:06:17Z</time>
      </trkpt>
      <trkpt lat="45.14824" lon="3.44792">
        <ele>504</ele>
        <time>2021-08-06T14:06:19Z</time>
      </trkpt>
      <trkpt lat="45.14821" lon="3.44812">
        <ele>503.6</ele>
        <time>2021-08-06T14:06:21Z</time>
      </trkpt>
      <trkpt lat="45.14819" lon="3.44832">
        <ele>503.2</ele>
        <time>2021-08-06T14:06:23Z</time>
      </trkpt>
      <trkpt lat="45.14818" lon="3.44851">
        <ele>503.8</ele>
        <time>2021-08-06T14:06:25Z</time>
      </trkpt>
      <trkpt lat="45.14816" lon="3.44869">
        <ele>504.3</ele>
        <time>2021-08-06T14:06:27Z</time>
      </trkpt>
      <trkpt lat="45.14815" lon="3.44886">
        <ele>504.9</ele>
        <time>2021-08-06T14:06:29Z</time>
      </trkpt>
      <trkpt lat="45.14814" lon="3.44903">
        <ele>505.4</ele>
        <time>2021-08-06T14:06:31Z</time>
      </trkpt>
      <trkpt lat="45.14814" lon="3.44919">
        <ele>505.9</ele>
        <time>2021-08-06T14:06:33Z</time>
      </trkpt>
      <trkpt lat="45.14812" lon="3.44935">
        <ele>506</ele>
        <time>2021-08-06T14:06:35Z</time>
      </trkpt>
      <trkpt lat="45.14813" lon="3.44952">
        <ele>506.3</ele>
        <time>2021-08-06T14:06:37Z</time>
      </trkpt>
      <trkpt lat="45.14815" lon="3.44969">
        <ele>506.7</ele>
        <time>2021-08-06T14:06:39Z</time>
      </trkpt>
      <trkpt lat="45.14818" lon="3.44984">
        <ele>507.1</ele>
        <time>2021-08-06T14:06:41Z</time>
      </trkpt>
      <trkpt lat="45.1482" lon="3.45">
        <ele>507.5</ele>
        <time>2021-08-06T14:06:43Z</time>
      </trkpt>
      <trkpt lat="45.14822" lon="3.45014">
        <ele>507.3</ele>
        <time>2021-08-06T14:06:45Z</time>
      </trkpt>
      <trkpt lat="45.14823" lon="3.45028">
        <ele>507</ele>
        <time>2021-08-06T14:06:47Z</time>
      </trkpt>
      <trkpt lat="45.14823" lon="3.45042">
        <ele>506.6</ele>
        <time>2021-08-06T14:06:49Z</time>
      </trkpt>
      <trkpt lat="45.14823" lon="3.45057">
        <ele>506.1</ele>
        <time>2021-08-06T14:06:51Z</time>
      </trkpt>
      <trkpt lat="45.14821" lon="3.45072">
        <ele>505.5</ele>
        <time>2021-08-06T14:06:53Z</time>
      </trkpt>
      <trkpt lat="45.14818" lon="3.45086">
        <ele>504.9</ele>
        <time>2021-08-06T14:06:55Z</time>
      </trkpt>
      <trkpt lat="45.14815" lon="3.45102">
        <ele>504.6</ele>
        <time>2021-08-06T14:06:57Z</time>
      </trkpt>
      <trkpt lat="45.14811" lon="3.45117">
        <ele>504.2</ele>
        <time>2021-08-06T14:06:59Z</time>
      </trkpt>
      <trkpt lat="45.14808" lon="3.45134">
        <ele>503.9</ele>
        <time>2021-08-06T14:07:01Z</time>
      </trkpt>
      <trkpt lat="45.14804" lon="3.4515">
        <ele>503.7</ele>
        <time>2021-08-06T14:07:03Z</time>
      </trkpt>
      <trkpt lat="45.148" lon="3.45166">
        <ele>503.4</ele>
        <time>2021-08-06T14:07:05Z</time>
      </trkpt>
      <trkpt lat="45.14796" lon="3.45183">
        <ele>502.7</ele>
        <time>2021-08-06T14:07:07Z</time>
      </trkpt>
      <trkpt lat="45.14793" lon="3.45199">
        <ele>502.1</ele>
        <time>2021-08-06T14:07:09Z</time>
      </trkpt>
      <trkpt lat="45.14791" lon="3.45218">
        <ele>501.4</ele>
        <time>2021-08-06T14:07:11Z</time>
      </trkpt>
      <trkpt lat="45.14792" lon="3.45239">
        <ele>500.8</ele>
        <time>2021-08-06T14:07:13Z</time>
      </trkpt>
      <trkpt lat="45.14798" lon="3.45261">
        <ele>500</ele>
        <time>2021-08-06T14:07:15Z</time>
      </trkpt>
      <trkpt lat="45.14805" lon="3.45284">
        <ele>499</ele>
        <time>2021-08-06T14:07:17Z</time>
      </trkpt>
      <trkpt lat="45.14812" lon="3.45309">
        <ele>498.1</ele>
        <time>2021-08-06T14:07:19Z</time>
      </trkpt>
      <trkpt lat="45.14817" lon="3.45335">
        <ele>497.3</ele>
        <time>2021-08-06T14:07:21Z</time>
      </trkpt>
      <trkpt lat="45.14814" lon="3.45361">
        <ele>497.6</ele>
        <time>2021-08-06T14:07:23Z</time>
      </trkpt>
      <trkpt lat="45.14803" lon="3.45381">
        <ele>497.3</ele>
        <time>2021-08-06T14:07:25Z</time>
      </trkpt>
      <trkpt lat="45.14787" lon="3.4539">
        <ele>496.4</ele>
        <time>2021-08-06T14:07:27Z</time>
      </trkpt>
      <trkpt lat="45.14775" lon="3.45396">
        <ele>495.6</ele>
        <time>2021-08-06T14:07:29Z</time>
      </trkpt>
      <trkpt lat="45.14762" lon="3.45404">
        <ele>494.8</ele>
        <time>2021-08-06T14:07:31Z</time>
      </trkpt>
      <trkpt lat="45.14752" lon="3.4541">
        <ele>494.1</ele>
        <time>2021-08-06T14:07:33Z</time>
      </trkpt>
      <trkpt lat="45.14743" lon="3.45414">
        <ele>493.9</ele>
        <time>2021-08-06T14:07:35Z</time>
      </trkpt>
      <trkpt lat="45.14737" lon="3.45417">
        <ele>493.8</ele>
        <time>2021-08-06T14:07:37Z</time>
      </trkpt>
      <trkpt lat="45.1473" lon="3.45419">
        <ele>494</ele>
        <time>2021-08-06T14:07:39Z</time>
      </trkpt>
      <trkpt lat="45.14724" lon="3.4542">
        <ele>494</ele>
        <time>2021-08-06T14:07:41Z</time>
      </trkpt>
      <trkpt lat="45.14719" lon="3.45422">
        <ele>494.1</ele>
        <time>2021-08-06T14:07:43Z</time>
      </trkpt>
      <trkpt lat="45.14713" lon="3.45424">
        <ele>494.2</ele>
        <time>2021-08-06T14:07:45Z</time>
      </trkpt>
      <trkpt lat="45.14707" lon="3.45426">
        <ele>494.3</ele>
        <time>2021-08-06T14:07:47Z</time>
      </trkpt>
      <trkpt lat="45.14701" lon="3.45429">
        <ele>494.5</ele>
        <time>2021-08-06T14:07:49Z</time>
      </trkpt>
      <trkpt lat="45.14694" lon="3.45432">
        <ele>494.7</ele>
        <time>2021-08-06T14:07:51Z</time>
      </trkpt>
      <trkpt lat="45.14687" lon="3.45436">
        <ele>494.9</ele>
        <time>2021-08-06T14:07:53Z</time>
      </trkpt>
      <trkpt lat="45.14678" lon="3.45442">
        <ele>495.3</ele>
        <time>2021-08-06T14:07:55Z</time>
      </trkpt>
      <trkpt lat="45.14669" lon="3.45451">
        <ele>495.9</ele>
        <time>2021-08-06T14:07:57Z</time>
      </trkpt>
      <trkpt lat="45.14661" lon="3.45464">
        <ele>496.3</ele>
        <time>2021-08-06T14:07:59Z</time>
      </trkpt>
      <trkpt lat="45.14654" lon="3.45478">
        <ele>496.5</ele>
        <time>2021-08-06T14:08:01Z</time>
      </trkpt>
      <trkpt lat="45.14647" lon="3.45496">
        <ele>496.8</ele>
        <time>2021-08-06T14:08:03Z</time>
      </trkpt>
      <trkpt lat="45.14641" lon="3.45513">
        <ele>496.9</ele>
        <time>2021-08-06T14:08:05Z</time>
      </trkpt>
      <trkpt lat="45.14635" lon="3.45531">
        <ele>496.8</ele>
        <time>2021-08-06T14:08:07Z</time>
      </trkpt>
      <trkpt lat="45.14629" lon="3.45548">
        <ele>496.8</ele>
        <time>2021-08-06T14:08:09Z</time>
      </trkpt>
      <trkpt lat="45.14624" lon="3.45565">
        <ele>497</ele>
        <time>2021-08-06T14:08:11Z</time>
      </trkpt>
      <trkpt lat="45.14618" lon="3.45582">
        <ele>497.1</ele>
        <time>2021-08-06T14:08:13Z</time>
      </trkpt>
      <trkpt lat="45.14615" lon="3.45598">
        <ele>496.9</ele>
        <time>2021-08-06T14:08:15Z</time>
      </trkpt>
      <trkpt lat="45.14614" lon="3.45616">
        <ele>497</ele>
        <time>2021-08-06T14:08:17Z</time>
      </trkpt>
      <trkpt lat="45.14616" lon="3.45632">
        <ele>497.3</ele>
        <time>2021-08-06T14:08:19Z</time>
      </trkpt>
      <trkpt lat="45.14617" lon="3.45648">
        <ele>497.5</ele>
        <time>2021-08-06T14:08:21Z</time>
      </trkpt>
      <trkpt lat="45.14617" lon="3.45666">
        <ele>497.6</ele>
        <time>2021-08-06T14:08:23Z</time>
      </trkpt>
      <trkpt lat="45.14614" lon="3.45683">
        <ele>497.7</ele>
        <time>2021-08-06T14:08:25Z</time>
      </trkpt>
      <trkpt lat="45.1461" lon="3.45698">
        <ele>497.5</ele>
        <time>2021-08-06T14:08:27Z</time>
      </trkpt>
      <trkpt lat="45.14606" lon="3.45713">
        <ele>497.2</ele>
        <time>2021-08-06T14:08:29Z</time>
      </trkpt>
      <trkpt lat="45.14602" lon="3.45726">
        <ele>496.7</ele>
        <time>2021-08-06T14:08:31Z</time>
      </trkpt>
      <trkpt lat="45.14597" lon="3.4574">
        <ele>496.2</ele>
        <time>2021-08-06T14:08:33Z</time>
      </trkpt>
      <trkpt lat="45.14593" lon="3.45754">
        <ele>495.9</ele>
        <time>2021-08-06T14:08:35Z</time>
      </trkpt>
      <trkpt lat="45.14589" lon="3.45768">
        <ele>496.1</ele>
        <time>2021-08-06T14:08:37Z</time>
      </trkpt>
      <trkpt lat="45.14585" lon="3.45783">
        <ele>496.2</ele>
        <time>2021-08-06T14:08:39Z</time>
      </trkpt>
      <trkpt lat="45.1458" lon="3.45797">
        <ele>496.3</ele>
        <time>2021-08-06T14:08:41Z</time>
      </trkpt>
      <trkpt lat="45.14576" lon="3.45812">
        <ele>496.3</ele>
        <time>2021-08-06T14:08:43Z</time>
      </trkpt>
      <trkpt lat="45.14572" lon="3.45827">
        <ele>496.3</ele>
        <time>2021-08-06T14:08:45Z</time>
      </trkpt>
      <trkpt lat="45.14569" lon="3.45842">
        <ele>495.8</ele>
        <time>2021-08-06T14:08:47Z</time>
      </trkpt>
      <trkpt lat="45.14567" lon="3.45858">
        <ele>495.2</ele>
        <time>2021-08-06T14:08:49Z</time>
      </trkpt>
      <trkpt lat="45.14567" lon="3.45876">
        <ele>495</ele>
        <time>2021-08-06T14:08:51Z</time>
      </trkpt>
      <trkpt lat="45.14568" lon="3.45891">
        <ele>495</ele>
        <time>2021-08-06T14:08:53Z</time>
      </trkpt>
      <trkpt lat="45.14567" lon="3.45901">
        <ele>494.8</ele>
        <time>2021-08-06T14:08:55Z</time>
      </trkpt>
      <trkpt lat="45.14569" lon="3.45903">
        <ele>495.1</ele>
        <time>2021-08-06T14:08:57Z</time>
      </trkpt>
      <trkpt lat="45.14569" lon="3.45902">
        <ele>495.1</ele>
        <time>2021-08-06T14:08:59Z</time>
      </trkpt>
      <trkpt lat="45.14569" lon="3.45902">
        <ele>495.1</ele>
        <time>2021-08-06T14:09:01Z</time>
      </trkpt>
      <trkpt lat="45.14569" lon="3.45902">
        <ele>495.1</ele>
        <time>2021-08-06T14:09:03Z</time>
      </trkpt>
      <trkpt lat="45.14569" lon="3.45902">
        <ele>495</ele>
        <time>2021-08-06T14:09:05Z</time>
      </trkpt>
      <trkpt lat="45.14569" lon="3.45902">
        <ele>495</ele>
        <time>2021-08-06T14:09:07Z</time>
      </trkpt>
      <trkpt lat="45.14587" lon="3.4594">
        <ele>496.4</ele>
        <time>2021-08-06T14:10:49Z</time>
      </trkpt>
      <trkpt lat="45.14595" lon="3.45954">
        <ele>498</ele>
        <time>2021-08-06T14:10:51Z</time>
      </trkpt>
      <trkpt lat="45.14604" lon="3.45966">
        <ele>500.3</ele>
        <time>2021-08-06T14:10:53Z</time>
      </trkpt>
      <trkpt lat="45.14614" lon="3.4598">
        <ele>503</ele>
        <time>2021-08-06T14:10:55Z</time>
      </trkpt>
      <trkpt lat="45.14623" lon="3.45994">
        <ele>505.7</ele>
        <time>2021-08-06T14:10:57Z</time>
      </trkpt>
      <trkpt lat="45.14633" lon="3.46009">
        <ele>508.5</ele>
        <time>2021-08-06T14:10:59Z</time>
      </trkpt>
      <trkpt lat="45.14642" lon="3.46023">
        <ele>511</ele>
        <time>2021-08-06T14:11:01Z</time>
      </trkpt>
      <trkpt lat="45.14651" lon="3.46037">
        <ele>513.1</ele>
        <time>2021-08-06T14:11:03Z</time>
      </trkpt>
      <trkpt lat="45.14658" lon="3.46054">
        <ele>514.1</ele>
        <time>2021-08-06T14:11:05Z</time>
      </trkpt>
      <trkpt lat="45.14665" lon="3.46071">
        <ele>514.8</ele>
        <time>2021-08-06T14:11:07Z</time>
      </trkpt>
      <trkpt lat="45.14671" lon="3.46089">
        <ele>515.4</ele>
        <time>2021-08-06T14:11:09Z</time>
      </trkpt>
      <trkpt lat="45.14674" lon="3.46108">
        <ele>514.8</ele>
        <time>2021-08-06T14:11:11Z</time>
      </trkpt>
      <trkpt lat="45.14677" lon="3.46127">
        <ele>513.7</ele>
        <time>2021-08-06T14:11:13Z</time>
      </trkpt>
      <trkpt lat="45.14678" lon="3.46146">
        <ele>512.3</ele>
        <time>2021-08-06T14:11:15Z</time>
      </trkpt>
      <trkpt lat="45.14678" lon="3.46164">
        <ele>510.5</ele>
        <time>2021-08-06T14:11:17Z</time>
      </trkpt>
      <trkpt lat="45.14679" lon="3.46182">
        <ele>510.3</ele>
        <time>2021-08-06T14:11:19Z</time>
      </trkpt>
      <trkpt lat="45.14679" lon="3.46201">
        <ele>510</ele>
        <time>2021-08-06T14:11:21Z</time>
      </trkpt>
      <trkpt lat="45.14679" lon="3.46219">
        <ele>509.7</ele>
        <time>2021-08-06T14:11:23Z</time>
      </trkpt>
      <trkpt lat="45.1468" lon="3.46238">
        <ele>509.6</ele>
        <time>2021-08-06T14:11:25Z</time>
      </trkpt>
      <trkpt lat="45.1468" lon="3.46257">
        <ele>509.5</ele>
        <time>2021-08-06T14:11:27Z</time>
      </trkpt>
      <trkpt lat="45.1468" lon="3.46275">
        <ele>509.5</ele>
        <time>2021-08-06T14:11:29Z</time>
      </trkpt>
      <trkpt lat="45.1468" lon="3.46292">
        <ele>509.6</ele>
        <time>2021-08-06T14:11:31Z</time>
      </trkpt>
      <trkpt lat="45.14681" lon="3.4631">
        <ele>510</ele>
        <time>2021-08-06T14:11:33Z</time>
      </trkpt>
      <trkpt lat="45.14682" lon="3.46327">
        <ele>510.4</ele>
        <time>2021-08-06T14:11:35Z</time>
      </trkpt>
      <trkpt lat="45.14682" lon="3.46343">
        <ele>509.6</ele>
        <time>2021-08-06T14:11:37Z</time>
      </trkpt>
      <trkpt lat="45.14682" lon="3.4636">
        <ele>507.9</ele>
        <time>2021-08-06T14:11:39Z</time>
      </trkpt>
      <trkpt lat="45.14682" lon="3.46375">
        <ele>506.3</ele>
        <time>2021-08-06T14:11:41Z</time>
      </trkpt>
      <trkpt lat="45.14682" lon="3.46391">
        <ele>504.8</ele>
        <time>2021-08-06T14:11:43Z</time>
      </trkpt>
      <trkpt lat="45.14682" lon="3.46406">
        <ele>503.2</ele>
        <time>2021-08-06T14:11:45Z</time>
      </trkpt>
      <trkpt lat="45.14682" lon="3.46421">
        <ele>502</ele>
        <time>2021-08-06T14:11:47Z</time>
      </trkpt>
      <trkpt lat="45.14683" lon="3.46435">
        <ele>501.7</ele>
        <time>2021-08-06T14:11:49Z</time>
      </trkpt>
      <trkpt lat="45.14683" lon="3.46448">
        <ele>501.1</ele>
        <time>2021-08-06T14:11:51Z</time>
      </trkpt>
      <trkpt lat="45.14683" lon="3.46461">
        <ele>500.8</ele>
        <time>2021-08-06T14:11:53Z</time>
      </trkpt>
      <trkpt lat="45.14683" lon="3.46473">
        <ele>500.4</ele>
        <time>2021-08-06T14:11:55Z</time>
      </trkpt>
      <trkpt lat="45.14685" lon="3.46484">
        <ele>500.4</ele>
        <time>2021-08-06T14:11:57Z</time>
      </trkpt>
      <trkpt lat="45.14684" lon="3.46493">
        <ele>499.9</ele>
        <time>2021-08-06T14:11:59Z</time>
      </trkpt>
      <trkpt lat="45.14683" lon="3.46503">
        <ele>499.1</ele>
        <time>2021-08-06T14:12:01Z</time>
      </trkpt>
      <trkpt lat="45.14683" lon="3.46512">
        <ele>499.2</ele>
        <time>2021-08-06T14:12:03Z</time>
      </trkpt>
      <trkpt lat="45.14682" lon="3.4652">
        <ele>499</ele>
        <time>2021-08-06T14:12:05Z</time>
      </trkpt>
      <trkpt lat="45.14681" lon="3.46528">
        <ele>498.8</ele>
        <time>2021-08-06T14:12:07Z</time>
      </trkpt>
      <trkpt lat="45.14679" lon="3.46536">
        <ele>498.5</ele>
        <time>2021-08-06T14:12:09Z</time>
      </trkpt>
      <trkpt lat="45.14678" lon="3.46544">
        <ele>498.5</ele>
        <time>2021-08-06T14:12:11Z</time>
      </trkpt>
      <trkpt lat="45.14677" lon="3.46551">
        <ele>498.2</ele>
        <time>2021-08-06T14:12:13Z</time>
      </trkpt>
      <trkpt lat="45.14675" lon="3.46559">
        <ele>497.9</ele>
        <time>2021-08-06T14:12:15Z</time>
      </trkpt>
      <trkpt lat="45.14673" lon="3.46566">
        <ele>497.7</ele>
        <time>2021-08-06T14:12:17Z</time>
      </trkpt>
      <trkpt lat="45.1467" lon="3.46573">
        <ele>497.2</ele>
        <time>2021-08-06T14:12:19Z</time>
      </trkpt>
      <trkpt lat="45.14667" lon="3.4658">
        <ele>496.9</ele>
        <time>2021-08-06T14:12:21Z</time>
      </trkpt>
      <trkpt lat="45.14664" lon="3.46587">
        <ele>497</ele>
        <time>2021-08-06T14:12:23Z</time>
      </trkpt>
      <trkpt lat="45.14662" lon="3.46593">
        <ele>497.2</ele>
        <time>2021-08-06T14:12:25Z</time>
      </trkpt>
      <trkpt lat="45.1466" lon="3.46599">
        <ele>497.4</ele>
        <time>2021-08-06T14:12:27Z</time>
      </trkpt>
      <trkpt lat="45.14657" lon="3.46604">
        <ele>497.5</ele>
        <time>2021-08-06T14:12:29Z</time>
      </trkpt>
      <trkpt lat="45.14655" lon="3.46609">
        <ele>497.7</ele>
        <time>2021-08-06T14:12:31Z</time>
      </trkpt>
      <trkpt lat="45.14653" lon="3.46614">
        <ele>497.9</ele>
        <time>2021-08-06T14:12:33Z</time>
      </trkpt>
      <trkpt lat="45.1465" lon="3.46619">
        <ele>498.1</ele>
        <time>2021-08-06T14:12:35Z</time>
      </trkpt>
      <trkpt lat="45.14648" lon="3.46624">
        <ele>498.4</ele>
        <time>2021-08-06T14:12:37Z</time>
      </trkpt>
      <trkpt lat="45.14646" lon="3.4663">
        <ele>498.6</ele>
        <time>2021-08-06T14:12:39Z</time>
      </trkpt>
      <trkpt lat="45.14644" lon="3.46635">
        <ele>498.9</ele>
        <time>2021-08-06T14:12:41Z</time>
      </trkpt>
      <trkpt lat="45.14642" lon="3.4664">
        <ele>499.1</ele>
        <time>2021-08-06T14:12:43Z</time>
      </trkpt>
      <trkpt lat="45.1464" lon="3.46645">
        <ele>499.5</ele>
        <time>2021-08-06T14:12:45Z</time>
      </trkpt>
      <trkpt lat="45.14638" lon="3.4665">
        <ele>499.8</ele>
        <time>2021-08-06T14:12:47Z</time>
      </trkpt>
      <trkpt lat="45.14635" lon="3.46655">
        <ele>500.1</ele>
        <time>2021-08-06T14:12:49Z</time>
      </trkpt>
      <trkpt lat="45.14633" lon="3.4666">
        <ele>500.5</ele>
        <time>2021-08-06T14:12:51Z</time>
      </trkpt>
      <trkpt lat="45.1463" lon="3.46666">
        <ele>500.9</ele>
        <time>2021-08-06T14:12:53Z</time>
      </trkpt>
      <trkpt lat="45.14629" lon="3.46671">
        <ele>501.1</ele>
        <time>2021-08-06T14:12:55Z</time>
      </trkpt>
      <trkpt lat="45.14626" lon="3.46676">
        <ele>501.2</ele>
        <time>2021-08-06T14:12:57Z</time>
      </trkpt>
      <trkpt lat="45.14624" lon="3.46681">
        <ele>501.4</ele>
        <time>2021-08-06T14:12:59Z</time>
      </trkpt>
      <trkpt lat="45.14622" lon="3.46687">
        <ele>501.6</ele>
        <time>2021-08-06T14:13:01Z</time>
      </trkpt>
      <trkpt lat="45.1462" lon="3.46692">
        <ele>501.9</ele>
        <time>2021-08-06T14:13:03Z</time>
      </trkpt>
      <trkpt lat="45.14617" lon="3.46697">
        <ele>502.1</ele>
        <time>2021-08-06T14:13:05Z</time>
      </trkpt>
      <trkpt lat="45.14614" lon="3.46702">
        <ele>502.3</ele>
        <time>2021-08-06T14:13:07Z</time>
      </trkpt>
      <trkpt lat="45.14612" lon="3.46707">
        <ele>502.6</ele>
        <time>2021-08-06T14:13:09Z</time>
      </trkpt>
      <trkpt lat="45.1461" lon="3.46712">
        <ele>502.9</ele>
        <time>2021-08-06T14:13:11Z</time>
      </trkpt>
      <trkpt lat="45.14607" lon="3.46717">
        <ele>503.3</ele>
        <time>2021-08-06T14:13:13Z</time>
      </trkpt>
      <trkpt lat="45.14604" lon="3.46722">
        <ele>503.5</ele>
        <time>2021-08-06T14:13:15Z</time>
      </trkpt>
      <trkpt lat="45.14602" lon="3.46726">
        <ele>503.8</ele>
        <time>2021-08-06T14:13:17Z</time>
      </trkpt>
      <trkpt lat="45.14599" lon="3.4673">
        <ele>504.2</ele>
        <time>2021-08-06T14:13:19Z</time>
      </trkpt>
      <trkpt lat="45.14596" lon="3.46734">
        <ele>504.5</ele>
        <time>2021-08-06T14:13:21Z</time>
      </trkpt>
      <trkpt lat="45.14593" lon="3.46737">
        <ele>504.7</ele>
        <time>2021-08-06T14:13:23Z</time>
      </trkpt>
      <trkpt lat="45.14589" lon="3.46741">
        <ele>505.1</ele>
        <time>2021-08-06T14:13:25Z</time>
      </trkpt>
      <trkpt lat="45.14586" lon="3.46744">
        <ele>505.4</ele>
        <time>2021-08-06T14:13:27Z</time>
      </trkpt>
      <trkpt lat="45.14582" lon="3.46748">
        <ele>505.7</ele>
        <time>2021-08-06T14:13:29Z</time>
      </trkpt>
      <trkpt lat="45.14578" lon="3.4675">
        <ele>505.9</ele>
        <time>2021-08-06T14:13:31Z</time>
      </trkpt>
      <trkpt lat="45.14574" lon="3.46753">
        <ele>506</ele>
        <time>2021-08-06T14:13:33Z</time>
      </trkpt>
      <trkpt lat="45.1457" lon="3.46756">
        <ele>506.1</ele>
        <time>2021-08-06T14:13:35Z</time>
      </trkpt>
      <trkpt lat="45.14566" lon="3.46758">
        <ele>506.2</ele>
        <time>2021-08-06T14:13:37Z</time>
      </trkpt>
      <trkpt lat="45.14561" lon="3.4676">
        <ele>506.2</ele>
        <time>2021-08-06T14:13:39Z</time>
      </trkpt>
      <trkpt lat="45.14557" lon="3.46762">
        <ele>506.3</ele>
        <time>2021-08-06T14:13:41Z</time>
      </trkpt>
      <trkpt lat="45.14552" lon="3.46763">
        <ele>506.2</ele>
        <time>2021-08-06T14:13:43Z</time>
      </trkpt>
      <trkpt lat="45.14548" lon="3.46765">
        <ele>506.3</ele>
        <time>2021-08-06T14:13:45Z</time>
      </trkpt>
      <trkpt lat="45.14544" lon="3.46766">
        <ele>506.3</ele>
        <time>2021-08-06T14:13:47Z</time>
      </trkpt>
      <trkpt lat="45.1454" lon="3.46767">
        <ele>506.3</ele>
        <time>2021-08-06T14:13:49Z</time>
      </trkpt>
      <trkpt lat="45.14535" lon="3.46768">
        <ele>506.3</ele>
        <time>2021-08-06T14:13:51Z</time>
      </trkpt>
      <trkpt lat="45.14531" lon="3.46769">
        <ele>506.3</ele>
        <time>2021-08-06T14:13:53Z</time>
      </trkpt>
      <trkpt lat="45.14528" lon="3.4677">
        <ele>506.2</ele>
        <time>2021-08-06T14:13:55Z</time>
      </trkpt>
      <trkpt lat="45.14524" lon="3.4677">
        <ele>506.2</ele>
        <time>2021-08-06T14:13:57Z</time>
      </trkpt>
      <trkpt lat="45.1452" lon="3.46771">
        <ele>506.2</ele>
        <time>2021-08-06T14:13:59Z</time>
      </trkpt>
      <trkpt lat="45.14515" lon="3.46771">
        <ele>506.1</ele>
        <time>2021-08-06T14:14:01Z</time>
      </trkpt>
      <trkpt lat="45.14512" lon="3.46772">
        <ele>506.1</ele>
        <time>2021-08-06T14:14:03Z</time>
      </trkpt>
      <trkpt lat="45.14508" lon="3.46773">
        <ele>506.1</ele>
        <time>2021-08-06T14:14:05Z</time>
      </trkpt>
      <trkpt lat="45.14504" lon="3.46774">
        <ele>506.1</ele>
        <time>2021-08-06T14:14:07Z</time>
      </trkpt>
      <trkpt lat="45.14501" lon="3.46775">
        <ele>506.1</ele>
        <time>2021-08-06T14:14:09Z</time>
      </trkpt>
      <trkpt lat="45.14497" lon="3.46777">
        <ele>506.3</ele>
        <time>2021-08-06T14:14:11Z</time>
      </trkpt>
      <trkpt lat="45.14493" lon="3.46778">
        <ele>506.4</ele>
        <time>2021-08-06T14:14:13Z</time>
      </trkpt>
      <trkpt lat="45.14489" lon="3.46779">
        <ele>506.5</ele>
        <time>2021-08-06T14:14:15Z</time>
      </trkpt>
      <trkpt lat="45.14485" lon="3.4678">
        <ele>506.6</ele>
        <time>2021-08-06T14:14:17Z</time>
      </trkpt>
      <trkpt lat="45.14482" lon="3.46783">
        <ele>506.8</ele>
        <time>2021-08-06T14:14:19Z</time>
      </trkpt>
      <trkpt lat="45.14479" lon="3.46785">
        <ele>507</ele>
        <time>2021-08-06T14:14:21Z</time>
      </trkpt>
      <trkpt lat="45.14478" lon="3.46785">
        <ele>507</ele>
        <time>2021-08-06T14:14:23Z</time>
      </trkpt>
      <trkpt lat="45.14478" lon="3.46785">
        <ele>507</ele>
        <time>2021-08-06T14:14:25Z</time>
      </trkpt>
      <trkpt lat="45.14478" lon="3.46785">
        <ele>507</ele>
        <time>2021-08-06T14:14:27Z</time>
      </trkpt>
      <trkpt lat="45.14478" lon="3.46785">
        <ele>507</ele>
        <time>2021-08-06T14:14:29Z</time>
      </trkpt>
      <trkpt lat="45.14478" lon="3.46785">
        <ele>507</ele>
        <time>2021-08-06T14:14:31Z</time>
      </trkpt>
      <trkpt lat="45.14461" lon="3.46803">
        <ele>508.3</ele>
        <time>2021-08-06T14:15:19Z</time>
      </trkpt>
      <trkpt lat="45.14457" lon="3.46809">
        <ele>508.7</ele>
        <time>2021-08-06T14:15:21Z</time>
      </trkpt>
      <trkpt lat="45.14452" lon="3.46814">
        <ele>509.1</ele>
        <time>2021-08-06T14:15:23Z</time>
      </trkpt>
      <trkpt lat="45.14448" lon="3.4682">
        <ele>509.5</ele>
        <time>2021-08-06T14:15:25Z</time>
      </trkpt>
      <trkpt lat="45.14444" lon="3.46826">
        <ele>509.8</ele>
        <time>2021-08-06T14:15:27Z</time>
      </trkpt>
      <trkpt lat="45.1444" lon="3.46831">
        <ele>510.1</ele>
        <time>2021-08-06T14:15:29Z</time>
      </trkpt>
      <trkpt lat="45.14437" lon="3.46835">
        <ele>510.2</ele>
        <time>2021-08-06T14:15:31Z</time>
      </trkpt>
      <trkpt lat="45.14435" lon="3.46839">
        <ele>510.2</ele>
        <time>2021-08-06T14:15:33Z</time>
      </trkpt>
      <trkpt lat="45.14433" lon="3.46842">
        <ele>510.2</ele>
        <time>2021-08-06T14:15:35Z</time>
      </trkpt>
      <trkpt lat="45.14431" lon="3.46845">
        <ele>510.1</ele>
        <time>2021-08-06T14:15:37Z</time>
      </trkpt>
      <trkpt lat="45.1443" lon="3.46847">
        <ele>510.1</ele>
        <time>2021-08-06T14:15:39Z</time>
      </trkpt>
      <trkpt lat="45.1443" lon="3.4685">
        <ele>510.1</ele>
        <time>2021-08-06T14:15:41Z</time>
      </trkpt>
      <trkpt lat="45.14429" lon="3.46853">
        <ele>510</ele>
        <time>2021-08-06T14:15:43Z</time>
      </trkpt>
      <trkpt lat="45.14429" lon="3.46852">
        <ele>510</ele>
        <time>2021-08-06T14:15:45Z</time>
      </trkpt>
      <trkpt lat="45.14429" lon="3.46852">
        <ele>510</ele>
        <time>2021-08-06T14:15:47Z</time>
      </trkpt>
      <trkpt lat="45.14429" lon="3.46853">
        <ele>510</ele>
        <time>2021-08-06T14:15:49Z</time>
      </trkpt>
      <trkpt lat="45.14429" lon="3.46853">
        <ele>510</ele>
        <time>2021-08-06T14:15:51Z</time>
      </trkpt>
      <trkpt lat="45.14429" lon="3.46853">
        <ele>510</ele>
        <time>2021-08-06T14:15:53Z</time>
      </trkpt>
      <trkpt lat="45.14417" lon="3.46868">
        <ele>509.6</ele>
        <time>2021-08-06T14:16:37Z</time>
      </trkpt>
      <trkpt lat="45.14414" lon="3.46874">
        <ele>509.5</ele>
        <time>2021-08-06T14:16:39Z</time>
      </trkpt>
      <trkpt lat="45.14409" lon="3.4688">
        <ele>509.4</ele>
        <time>2021-08-06T14:16:41Z</time>
      </trkpt>
      <trkpt lat="45.14405" lon="3.46887">
        <ele>509.2</ele>
        <time>2021-08-06T14:16:43Z</time>
      </trkpt>
      <trkpt lat="45.144" lon="3.46895">
        <ele>509</ele>
        <time>2021-08-06T14:16:45Z</time>
      </trkpt>
      <trkpt lat="45.14394" lon="3.46902">
        <ele>508.8</ele>
        <time>2021-08-06T14:16:47Z</time>
      </trkpt>
      <trkpt lat="45.14388" lon="3.46909">
        <ele>508.5</ele>
        <time>2021-08-06T14:16:49Z</time>
      </trkpt>
      <trkpt lat="45.14382" lon="3.46917">
        <ele>508.2</ele>
        <time>2021-08-06T14:16:51Z</time>
      </trkpt>
      <trkpt lat="45.14376" lon="3.46925">
        <ele>508.1</ele>
        <time>2021-08-06T14:16:53Z</time>
      </trkpt>
      <trkpt lat="45.14369" lon="3.46933">
        <ele>507.9</ele>
        <time>2021-08-06T14:16:55Z</time>
      </trkpt>
      <trkpt lat="45.14363" lon="3.46941">
        <ele>507.8</ele>
        <time>2021-08-06T14:16:57Z</time>
      </trkpt>
      <trkpt lat="45.14357" lon="3.46949">
        <ele>507.7</ele>
        <time>2021-08-06T14:16:59Z</time>
      </trkpt>
      <trkpt lat="45.14352" lon="3.46958">
        <ele>507.6</ele>
        <time>2021-08-06T14:17:01Z</time>
      </trkpt>
      <trkpt lat="45.14347" lon="3.46966">
        <ele>507.4</ele>
        <time>2021-08-06T14:17:03Z</time>
      </trkpt>
      <trkpt lat="45.14343" lon="3.46975">
        <ele>507.3</ele>
        <time>2021-08-06T14:17:05Z</time>
      </trkpt>
      <trkpt lat="45.1434" lon="3.46983">
        <ele>507.2</ele>
        <time>2021-08-06T14:17:07Z</time>
      </trkpt>
      <trkpt lat="45.14336" lon="3.4699">
        <ele>507.1</ele>
        <time>2021-08-06T14:17:09Z</time>
      </trkpt>
      <trkpt lat="45.14333" lon="3.46998">
        <ele>507</ele>
        <time>2021-08-06T14:17:11Z</time>
      </trkpt>
      <trkpt lat="45.14332" lon="3.47004">
        <ele>507</ele>
        <time>2021-08-06T14:17:13Z</time>
      </trkpt>
      <trkpt lat="45.14333" lon="3.4701">
        <ele>507.1</ele>
        <time>2021-08-06T14:17:15Z</time>
      </trkpt>
      <trkpt lat="45.14332" lon="3.47012">
        <ele>507.1</ele>
        <time>2021-08-06T14:17:17Z</time>
      </trkpt>
      <trkpt lat="45.14332" lon="3.47011">
        <ele>507.1</ele>
        <time>2021-08-06T14:17:19Z</time>
      </trkpt>
      <trkpt lat="45.14332" lon="3.47012">
        <ele>507.1</ele>
        <time>2021-08-06T14:17:21Z</time>
      </trkpt>
      <trkpt lat="45.14332" lon="3.47012">
        <ele>507.1</ele>
        <time>2021-08-06T14:17:23Z</time>
      </trkpt>
      <trkpt lat="45.14332" lon="3.47012">
        <ele>507.1</ele>
        <time>2021-08-06T14:17:25Z</time>
      </trkpt>
      <trkpt lat="45.14418" lon="3.46859">
        <ele>509.7</ele>
        <time>2021-08-06T14:32:31Z</time>
      </trkpt>
      <trkpt lat="45.14419" lon="3.46865">
        <ele>509.7</ele>
        <time>2021-08-06T14:32:33Z</time>
      </trkpt>
      <trkpt lat="45.14421" lon="3.46862">
        <ele>509.8</ele>
        <time>2021-08-06T14:32:35Z</time>
      </trkpt>
      <trkpt lat="45.14422" lon="3.46859">
        <ele>509.8</ele>
        <time>2021-08-06T14:32:37Z</time>
      </trkpt>
      <trkpt lat="45.14422" lon="3.46859">
        <ele>509.8</ele>
        <time>2021-08-06T14:32:39Z</time>
      </trkpt>
      <trkpt lat="45.14422" lon="3.46859">
        <ele>509.8</ele>
        <time>2021-08-06T14:32:41Z</time>
      </trkpt>
      <trkpt lat="45.14422" lon="3.46859">
        <ele>509.8</ele>
        <time>2021-08-06T14:32:43Z</time>
      </trkpt>
      <trkpt lat="45.14422" lon="3.46859">
        <ele>509.8</ele>
        <time>2021-08-06T14:32:45Z</time>
      </trkpt>
      <trkpt lat="45.14422" lon="3.46859">
        <ele>509.8</ele>
        <time>2021-08-06T14:32:47Z</time>
      </trkpt>
      <trkpt lat="45.14402" lon="3.46851">
        <ele>509.9</ele>
        <time>2021-08-06T14:33:03Z</time>
      </trkpt>
      <trkpt lat="45.14395" lon="3.46849">
        <ele>509.9</ele>
        <time>2021-08-06T14:33:05Z</time>
      </trkpt>
      <trkpt lat="45.14388" lon="3.46846">
        <ele>510</ele>
        <time>2021-08-06T14:33:07Z</time>
      </trkpt>
      <trkpt lat="45.1438" lon="3.46844">
        <ele>510.2</ele>
        <time>2021-08-06T14:33:09Z</time>
      </trkpt>
      <trkpt lat="45.14372" lon="3.46841">
        <ele>510.3</ele>
        <time>2021-08-06T14:33:11Z</time>
      </trkpt>
      <trkpt lat="45.14363" lon="3.46839">
        <ele>510.5</ele>
        <time>2021-08-06T14:33:13Z</time>
      </trkpt>
      <trkpt lat="45.14355" lon="3.46836">
        <ele>510.6</ele>
        <time>2021-08-06T14:33:15Z</time>
      </trkpt>
      <trkpt lat="45.14346" lon="3.46833">
        <ele>510.8</ele>
        <time>2021-08-06T14:33:17Z</time>
      </trkpt>
      <trkpt lat="45.14338" lon="3.4683">
        <ele>510.5</ele>
        <time>2021-08-06T14:33:19Z</time>
      </trkpt>
      <trkpt lat="45.1433" lon="3.46827">
        <ele>510.2</ele>
        <time>2021-08-06T14:33:21Z</time>
      </trkpt>
      <trkpt lat="45.14321" lon="3.46824">
        <ele>509.6</ele>
        <time>2021-08-06T14:33:23Z</time>
      </trkpt>
      <trkpt lat="45.14312" lon="3.46821">
        <ele>509.1</ele>
        <time>2021-08-06T14:33:25Z</time>
      </trkpt>
      <trkpt lat="45.14303" lon="3.46819">
        <ele>508.5</ele>
        <time>2021-08-06T14:33:27Z</time>
      </trkpt>
      <trkpt lat="45.14294" lon="3.46816">
        <ele>508</ele>
        <time>2021-08-06T14:33:29Z</time>
      </trkpt>
      <trkpt lat="45.14283" lon="3.46812">
        <ele>507.4</ele>
        <time>2021-08-06T14:33:31Z</time>
      </trkpt>
      <trkpt lat="45.14272" lon="3.4681">
        <ele>506.9</ele>
        <time>2021-08-06T14:33:33Z</time>
      </trkpt>
      <trkpt lat="45.1426" lon="3.46814">
        <ele>506.9</ele>
        <time>2021-08-06T14:33:35Z</time>
      </trkpt>
      <trkpt lat="45.14249" lon="3.4682">
        <ele>506.9</ele>
        <time>2021-08-06T14:33:37Z</time>
      </trkpt>
      <trkpt lat="45.14237" lon="3.46822">
        <ele>506.3</ele>
        <time>2021-08-06T14:33:39Z</time>
      </trkpt>
      <trkpt lat="45.14224" lon="3.46822">
        <ele>505.5</ele>
        <time>2021-08-06T14:33:41Z</time>
      </trkpt>
      <trkpt lat="45.14213" lon="3.46819">
        <ele>504.6</ele>
        <time>2021-08-06T14:33:43Z</time>
      </trkpt>
      <trkpt lat="45.14204" lon="3.46814">
        <ele>503.7</ele>
        <time>2021-08-06T14:33:45Z</time>
      </trkpt>
      <trkpt lat="45.14193" lon="3.46812">
        <ele>502.9</ele>
        <time>2021-08-06T14:33:47Z</time>
      </trkpt>
      <trkpt lat="45.14184" lon="3.4681">
        <ele>502.2</ele>
        <time>2021-08-06T14:33:49Z</time>
      </trkpt>
      <trkpt lat="45.14174" lon="3.46814">
        <ele>501.8</ele>
        <time>2021-08-06T14:33:51Z</time>
      </trkpt>
      <trkpt lat="45.14168" lon="3.46821">
        <ele>501.6</ele>
        <time>2021-08-06T14:33:53Z</time>
      </trkpt>
      <trkpt lat="45.14162" lon="3.46831">
        <ele>501.4</ele>
        <time>2021-08-06T14:33:55Z</time>
      </trkpt>
      <trkpt lat="45.14158" lon="3.46841">
        <ele>500.8</ele>
        <time>2021-08-06T14:33:57Z</time>
      </trkpt>
      <trkpt lat="45.1415" lon="3.4685">
        <ele>499.7</ele>
        <time>2021-08-06T14:33:59Z</time>
      </trkpt>
      <trkpt lat="45.14144" lon="3.46865">
        <ele>498.8</ele>
        <time>2021-08-06T14:34:01Z</time>
      </trkpt>
      <trkpt lat="45.14133" lon="3.46875">
        <ele>497.6</ele>
        <time>2021-08-06T14:34:03Z</time>
      </trkpt>
      <trkpt lat="45.14121" lon="3.46883">
        <ele>496.3</ele>
        <time>2021-08-06T14:34:05Z</time>
      </trkpt>
      <trkpt lat="45.14109" lon="3.46885">
        <ele>495.1</ele>
        <time>2021-08-06T14:34:07Z</time>
      </trkpt>
      <trkpt lat="45.141" lon="3.46888">
        <ele>494.3</ele>
        <time>2021-08-06T14:34:09Z</time>
      </trkpt>
      <trkpt lat="45.14091" lon="3.46898">
        <ele>493.5</ele>
        <time>2021-08-06T14:34:11Z</time>
      </trkpt>
      <trkpt lat="45.14083" lon="3.46913">
        <ele>493</ele>
        <time>2021-08-06T14:34:13Z</time>
      </trkpt>
      <trkpt lat="45.14075" lon="3.4693">
        <ele>492.3</ele>
        <time>2021-08-06T14:34:15Z</time>
      </trkpt>
      <trkpt lat="45.14066" lon="3.46946">
        <ele>491.7</ele>
        <time>2021-08-06T14:34:17Z</time>
      </trkpt>
      <trkpt lat="45.14056" lon="3.46961">
        <ele>490.7</ele>
        <time>2021-08-06T14:34:19Z</time>
      </trkpt>
      <trkpt lat="45.14045" lon="3.46974">
        <ele>489.4</ele>
        <time>2021-08-06T14:34:21Z</time>
      </trkpt>
      <trkpt lat="45.14033" lon="3.46985">
        <ele>487.8</ele>
        <time>2021-08-06T14:34:23Z</time>
      </trkpt>
      <trkpt lat="45.14022" lon="3.46995">
        <ele>486.3</ele>
        <time>2021-08-06T14:34:25Z</time>
      </trkpt>
      <trkpt lat="45.1401" lon="3.47005">
        <ele>484.7</ele>
        <time>2021-08-06T14:34:27Z</time>
      </trkpt>
      <trkpt lat="45.14" lon="3.47014">
        <ele>483.4</ele>
        <time>2021-08-06T14:34:29Z</time>
      </trkpt>
      <trkpt lat="45.13989" lon="3.47024">
        <ele>485.2</ele>
        <time>2021-08-06T14:34:31Z</time>
      </trkpt>
      <trkpt lat="45.13979" lon="3.47032">
        <ele>487</ele>
        <time>2021-08-06T14:34:33Z</time>
      </trkpt>
      <trkpt lat="45.1397" lon="3.47041">
        <ele>488.7</ele>
        <time>2021-08-06T14:34:35Z</time>
      </trkpt>
      <trkpt lat="45.13961" lon="3.47047">
        <ele>490.2</ele>
        <time>2021-08-06T14:34:37Z</time>
      </trkpt>
      <trkpt lat="45.13956" lon="3.47049">
        <ele>491</ele>
        <time>2021-08-06T14:34:39Z</time>
      </trkpt>
      <trkpt lat="45.13954" lon="3.47056">
        <ele>491.8</ele>
        <time>2021-08-06T14:34:41Z</time>
      </trkpt>
      <trkpt lat="45.13955" lon="3.47066">
        <ele>491.9</ele>
        <time>2021-08-06T14:34:43Z</time>
      </trkpt>
      <trkpt lat="45.13958" lon="3.47078">
        <ele>491.9</ele>
        <time>2021-08-06T14:34:45Z</time>
      </trkpt>
      <trkpt lat="45.13961" lon="3.47089">
        <ele>492</ele>
        <time>2021-08-06T14:34:47Z</time>
      </trkpt>
      <trkpt lat="45.13965" lon="3.47099">
        <ele>492.2</ele>
        <time>2021-08-06T14:34:49Z</time>
      </trkpt>
      <trkpt lat="45.13968" lon="3.47109">
        <ele>492.7</ele>
        <time>2021-08-06T14:34:51Z</time>
      </trkpt>
      <trkpt lat="45.13971" lon="3.47119">
        <ele>493.1</ele>
        <time>2021-08-06T14:34:53Z</time>
      </trkpt>
      <trkpt lat="45.13974" lon="3.47129">
        <ele>493.5</ele>
        <time>2021-08-06T14:34:55Z</time>
      </trkpt>
      <trkpt lat="45.13977" lon="3.47139">
        <ele>493.8</ele>
        <time>2021-08-06T14:34:57Z</time>
      </trkpt>
      <trkpt lat="45.1398" lon="3.47149">
        <ele>494.3</ele>
        <time>2021-08-06T14:34:59Z</time>
      </trkpt>
      <trkpt lat="45.13983" lon="3.47159">
        <ele>494.7</ele>
        <time>2021-08-06T14:35:01Z</time>
      </trkpt>
      <trkpt lat="45.13985" lon="3.47168">
        <ele>495.2</ele>
        <time>2021-08-06T14:35:03Z</time>
      </trkpt>
      <trkpt lat="45.13987" lon="3.47178">
        <ele>495.2</ele>
        <time>2021-08-06T14:35:05Z</time>
      </trkpt>
      <trkpt lat="45.13989" lon="3.47188">
        <ele>495.2</ele>
        <time>2021-08-06T14:35:07Z</time>
      </trkpt>
      <trkpt lat="45.13991" lon="3.47198">
        <ele>495.1</ele>
        <time>2021-08-06T14:35:09Z</time>
      </trkpt>
      <trkpt lat="45.13993" lon="3.47209">
        <ele>495</ele>
        <time>2021-08-06T14:35:11Z</time>
      </trkpt>
      <trkpt lat="45.13996" lon="3.47219">
        <ele>494.9</ele>
        <time>2021-08-06T14:35:13Z</time>
      </trkpt>
      <trkpt lat="45.13999" lon="3.4723">
        <ele>494.7</ele>
        <time>2021-08-06T14:35:15Z</time>
      </trkpt>
      <trkpt lat="45.14004" lon="3.4724">
        <ele>494.3</ele>
        <time>2021-08-06T14:35:17Z</time>
      </trkpt>
      <trkpt lat="45.14009" lon="3.47249">
        <ele>493.9</ele>
        <time>2021-08-06T14:35:19Z</time>
      </trkpt>
      <trkpt lat="45.14015" lon="3.47258">
        <ele>494.2</ele>
        <time>2021-08-06T14:35:21Z</time>
      </trkpt>
      <trkpt lat="45.14022" lon="3.47267">
        <ele>494.2</ele>
        <time>2021-08-06T14:35:23Z</time>
      </trkpt>
      <trkpt lat="45.1403" lon="3.47276">
        <ele>494.2</ele>
        <time>2021-08-06T14:35:25Z</time>
      </trkpt>
      <trkpt lat="45.14038" lon="3.47287">
        <ele>494.1</ele>
        <time>2021-08-06T14:35:27Z</time>
      </trkpt>
      <trkpt lat="45.14046" lon="3.47298">
        <ele>493.9</ele>
        <time>2021-08-06T14:35:29Z</time>
      </trkpt>
      <trkpt lat="45.14055" lon="3.4731">
        <ele>493.4</ele>
        <time>2021-08-06T14:35:31Z</time>
      </trkpt>
      <trkpt lat="45.14065" lon="3.47322">
        <ele>492.7</ele>
        <time>2021-08-06T14:35:33Z</time>
      </trkpt>
      <trkpt lat="45.14074" lon="3.47337">
        <ele>492.3</ele>
        <time>2021-08-06T14:35:35Z</time>
      </trkpt>
      <trkpt lat="45.1408" lon="3.47356">
        <ele>492.6</ele>
        <time>2021-08-06T14:35:37Z</time>
      </trkpt>
      <trkpt lat="45.14085" lon="3.47377">
        <ele>493.5</ele>
        <time>2021-08-06T14:35:39Z</time>
      </trkpt>
      <trkpt lat="45.1409" lon="3.474">
        <ele>494.9</ele>
        <time>2021-08-06T14:35:41Z</time>
      </trkpt>
      <trkpt lat="45.14095" lon="3.47423">
        <ele>496.2</ele>
        <time>2021-08-06T14:35:43Z</time>
      </trkpt>
      <trkpt lat="45.14101" lon="3.47447">
        <ele>497.3</ele>
        <time>2021-08-06T14:35:45Z</time>
      </trkpt>
      <trkpt lat="45.1411" lon="3.47468">
        <ele>497.3</ele>
        <time>2021-08-06T14:35:47Z</time>
      </trkpt>
      <trkpt lat="45.14118" lon="3.47488">
        <ele>496.6</ele>
        <time>2021-08-06T14:35:49Z</time>
      </trkpt>
      <trkpt lat="45.14126" lon="3.47508">
        <ele>495.7</ele>
        <time>2021-08-06T14:35:51Z</time>
      </trkpt>
      <trkpt lat="45.14135" lon="3.47527">
        <ele>494.7</ele>
        <time>2021-08-06T14:35:53Z</time>
      </trkpt>
      <trkpt lat="45.14143" lon="3.47545">
        <ele>493.8</ele>
        <time>2021-08-06T14:35:55Z</time>
      </trkpt>
      <trkpt lat="45.14151" lon="3.47563">
        <ele>493</ele>
        <time>2021-08-06T14:35:57Z</time>
      </trkpt>
      <trkpt lat="45.14158" lon="3.47581">
        <ele>492.1</ele>
        <time>2021-08-06T14:35:59Z</time>
      </trkpt>
      <trkpt lat="45.14165" lon="3.47598">
        <ele>493</ele>
        <time>2021-08-06T14:36:01Z</time>
      </trkpt>
      <trkpt lat="45.14172" lon="3.47614">
        <ele>494.9</ele>
        <time>2021-08-06T14:36:03Z</time>
      </trkpt>
      <trkpt lat="45.14177" lon="3.47631">
        <ele>497</ele>
        <time>2021-08-06T14:36:05Z</time>
      </trkpt>
      <trkpt lat="45.14181" lon="3.47649">
        <ele>499.1</ele>
        <time>2021-08-06T14:36:07Z</time>
      </trkpt>
      <trkpt lat="45.14183" lon="3.47666">
        <ele>501.2</ele>
        <time>2021-08-06T14:36:09Z</time>
      </trkpt>
      <trkpt lat="45.14184" lon="3.47684">
        <ele>501.7</ele>
        <time>2021-08-06T14:36:11Z</time>
      </trkpt>
      <trkpt lat="45.14185" lon="3.47702">
        <ele>502.1</ele>
        <time>2021-08-06T14:36:13Z</time>
      </trkpt>
      <trkpt lat="45.14186" lon="3.47721">
        <ele>502.6</ele>
        <time>2021-08-06T14:36:15Z</time>
      </trkpt>
      <trkpt lat="45.14187" lon="3.47738">
        <ele>503.1</ele>
        <time>2021-08-06T14:36:17Z</time>
      </trkpt>
      <trkpt lat="45.14188" lon="3.47756">
        <ele>502.8</ele>
        <time>2021-08-06T14:36:19Z</time>
      </trkpt>
      <trkpt lat="45.14188" lon="3.47774">
        <ele>501.7</ele>
        <time>2021-08-06T14:36:21Z</time>
      </trkpt>
      <trkpt lat="45.14188" lon="3.47792">
        <ele>500.6</ele>
        <time>2021-08-06T14:36:23Z</time>
      </trkpt>
      <trkpt lat="45.14188" lon="3.4781">
        <ele>499.8</ele>
        <time>2021-08-06T14:36:25Z</time>
      </trkpt>
      <trkpt lat="45.14186" lon="3.47828">
        <ele>499</ele>
        <time>2021-08-06T14:36:27Z</time>
      </trkpt>
      <trkpt lat="45.14184" lon="3.47846">
        <ele>498.1</ele>
        <time>2021-08-06T14:36:29Z</time>
      </trkpt>
      <trkpt lat="45.1418" lon="3.47864">
        <ele>497.2</ele>
        <time>2021-08-06T14:36:31Z</time>
      </trkpt>
      <trkpt lat="45.14176" lon="3.47881">
        <ele>496.3</ele>
        <time>2021-08-06T14:36:33Z</time>
      </trkpt>
      <trkpt lat="45.14171" lon="3.47898">
        <ele>495.4</ele>
        <time>2021-08-06T14:36:35Z</time>
      </trkpt>
      <trkpt lat="45.14166" lon="3.47913">
        <ele>494.8</ele>
        <time>2021-08-06T14:36:37Z</time>
      </trkpt>
      <trkpt lat="45.1416" lon="3.47928">
        <ele>495.4</ele>
        <time>2021-08-06T14:36:39Z</time>
      </trkpt>
      <trkpt lat="45.14153" lon="3.47942">
        <ele>496.1</ele>
        <time>2021-08-06T14:36:41Z</time>
      </trkpt>
      <trkpt lat="45.14146" lon="3.47954">
        <ele>496.6</ele>
        <time>2021-08-06T14:36:43Z</time>
      </trkpt>
      <trkpt lat="45.14138" lon="3.47967">
        <ele>497</ele>
        <time>2021-08-06T14:36:45Z</time>
      </trkpt>
      <trkpt lat="45.1413" lon="3.47978">
        <ele>497.3</ele>
        <time>2021-08-06T14:36:47Z</time>
      </trkpt>
      <trkpt lat="45.14121" lon="3.47989">
        <ele>497.5</ele>
        <time>2021-08-06T14:36:49Z</time>
      </trkpt>
      <trkpt lat="45.14112" lon="3.47999">
        <ele>497.5</ele>
        <time>2021-08-06T14:36:51Z</time>
      </trkpt>
      <trkpt lat="45.14103" lon="3.48009">
        <ele>498</ele>
        <time>2021-08-06T14:36:53Z</time>
      </trkpt>
      <trkpt lat="45.14093" lon="3.48018">
        <ele>498.5</ele>
        <time>2021-08-06T14:36:55Z</time>
      </trkpt>
      <trkpt lat="45.14083" lon="3.48026">
        <ele>498.6</ele>
        <time>2021-08-06T14:36:57Z</time>
      </trkpt>
      <trkpt lat="45.14074" lon="3.48036">
        <ele>498</ele>
        <time>2021-08-06T14:36:59Z</time>
      </trkpt>
      <trkpt lat="45.14064" lon="3.48045">
        <ele>497.1</ele>
        <time>2021-08-06T14:37:01Z</time>
      </trkpt>
      <trkpt lat="45.14054" lon="3.48052">
        <ele>496.5</ele>
        <time>2021-08-06T14:37:03Z</time>
      </trkpt>
      <trkpt lat="45.14044" lon="3.48059">
        <ele>495.7</ele>
        <time>2021-08-06T14:37:05Z</time>
      </trkpt>
      <trkpt lat="45.14033" lon="3.48065">
        <ele>495.1</ele>
        <time>2021-08-06T14:37:07Z</time>
      </trkpt>
      <trkpt lat="45.14022" lon="3.4807">
        <ele>494.5</ele>
        <time>2021-08-06T14:37:09Z</time>
      </trkpt>
      <trkpt lat="45.14012" lon="3.48076">
        <ele>493.6</ele>
        <time>2021-08-06T14:37:11Z</time>
      </trkpt>
      <trkpt lat="45.14002" lon="3.48082">
        <ele>492.3</ele>
        <time>2021-08-06T14:37:13Z</time>
      </trkpt>
      <trkpt lat="45.13991" lon="3.48087">
        <ele>491.3</ele>
        <time>2021-08-06T14:37:15Z</time>
      </trkpt>
      <trkpt lat="45.1398" lon="3.48092">
        <ele>490.4</ele>
        <time>2021-08-06T14:37:17Z</time>
      </trkpt>
      <trkpt lat="45.1397" lon="3.48097">
        <ele>489.4</ele>
        <time>2021-08-06T14:37:19Z</time>
      </trkpt>
      <trkpt lat="45.13959" lon="3.48102">
        <ele>488.6</ele>
        <time>2021-08-06T14:37:21Z</time>
      </trkpt>
      <trkpt lat="45.13949" lon="3.48106">
        <ele>487.8</ele>
        <time>2021-08-06T14:37:23Z</time>
      </trkpt>
      <trkpt lat="45.13938" lon="3.48111">
        <ele>487</ele>
        <time>2021-08-06T14:37:25Z</time>
      </trkpt>
      <trkpt lat="45.13928" lon="3.48116">
        <ele>486.1</ele>
        <time>2021-08-06T14:37:27Z</time>
      </trkpt>
      <trkpt lat="45.13917" lon="3.48121">
        <ele>485.3</ele>
        <time>2021-08-06T14:37:29Z</time>
      </trkpt>
      <trkpt lat="45.13907" lon="3.48126">
        <ele>484.8</ele>
        <time>2021-08-06T14:37:31Z</time>
      </trkpt>
      <trkpt lat="45.13896" lon="3.4813">
        <ele>484.4</ele>
        <time>2021-08-06T14:37:33Z</time>
      </trkpt>
      <trkpt lat="45.13885" lon="3.48134">
        <ele>484.1</ele>
        <time>2021-08-06T14:37:35Z</time>
      </trkpt>
      <trkpt lat="45.13874" lon="3.48138">
        <ele>483.9</ele>
        <time>2021-08-06T14:37:37Z</time>
      </trkpt>
      <trkpt lat="45.13864" lon="3.48141">
        <ele>483.7</ele>
        <time>2021-08-06T14:37:39Z</time>
      </trkpt>
      <trkpt lat="45.13853" lon="3.48144">
        <ele>483.6</ele>
        <time>2021-08-06T14:37:41Z</time>
      </trkpt>
      <trkpt lat="45.13842" lon="3.48146">
        <ele>483.5</ele>
        <time>2021-08-06T14:37:43Z</time>
      </trkpt>
      <trkpt lat="45.13831" lon="3.48147">
        <ele>483.5</ele>
        <time>2021-08-06T14:37:45Z</time>
      </trkpt>
      <trkpt lat="45.13821" lon="3.48147">
        <ele>483.5</ele>
        <time>2021-08-06T14:37:47Z</time>
      </trkpt>
      <trkpt lat="45.1381" lon="3.48147">
        <ele>483.6</ele>
        <time>2021-08-06T14:37:49Z</time>
      </trkpt>
      <trkpt lat="45.13799" lon="3.48146">
        <ele>483.7</ele>
        <time>2021-08-06T14:37:51Z</time>
      </trkpt>
      <trkpt lat="45.13788" lon="3.48143">
        <ele>483.8</ele>
        <time>2021-08-06T14:37:53Z</time>
      </trkpt>
      <trkpt lat="45.13778" lon="3.4814">
        <ele>483.9</ele>
        <time>2021-08-06T14:37:55Z</time>
      </trkpt>
      <trkpt lat="45.13768" lon="3.48136">
        <ele>483.9</ele>
        <time>2021-08-06T14:37:57Z</time>
      </trkpt>
      <trkpt lat="45.13758" lon="3.48132">
        <ele>484</ele>
        <time>2021-08-06T14:37:59Z</time>
      </trkpt>
      <trkpt lat="45.13748" lon="3.48128">
        <ele>484</ele>
        <time>2021-08-06T14:38:01Z</time>
      </trkpt>
      <trkpt lat="45.13738" lon="3.48125">
        <ele>484.1</ele>
        <time>2021-08-06T14:38:03Z</time>
      </trkpt>
      <trkpt lat="45.13729" lon="3.48121">
        <ele>484.3</ele>
        <time>2021-08-06T14:38:05Z</time>
      </trkpt>
      <trkpt lat="45.13719" lon="3.48119">
        <ele>484.4</ele>
        <time>2021-08-06T14:38:07Z</time>
      </trkpt>
      <trkpt lat="45.1371" lon="3.48119">
        <ele>484.6</ele>
        <time>2021-08-06T14:38:09Z</time>
      </trkpt>
      <trkpt lat="45.13701" lon="3.48122">
        <ele>484.6</ele>
        <time>2021-08-06T14:38:11Z</time>
      </trkpt>
      <trkpt lat="45.13691" lon="3.48126">
        <ele>484.7</ele>
        <time>2021-08-06T14:38:13Z</time>
      </trkpt>
      <trkpt lat="45.13682" lon="3.4813">
        <ele>484.7</ele>
        <time>2021-08-06T14:38:15Z</time>
      </trkpt>
      <trkpt lat="45.13672" lon="3.48135">
        <ele>484.7</ele>
        <time>2021-08-06T14:38:17Z</time>
      </trkpt>
      <trkpt lat="45.13662" lon="3.4814">
        <ele>484.7</ele>
        <time>2021-08-06T14:38:19Z</time>
      </trkpt>
      <trkpt lat="45.13652" lon="3.48144">
        <ele>484.6</ele>
        <time>2021-08-06T14:38:21Z</time>
      </trkpt>
      <trkpt lat="45.13642" lon="3.48149">
        <ele>484.5</ele>
        <time>2021-08-06T14:38:23Z</time>
      </trkpt>
      <trkpt lat="45.13632" lon="3.48153">
        <ele>484.4</ele>
        <time>2021-08-06T14:38:25Z</time>
      </trkpt>
      <trkpt lat="45.13621" lon="3.48157">
        <ele>484.3</ele>
        <time>2021-08-06T14:38:27Z</time>
      </trkpt>
      <trkpt lat="45.13611" lon="3.4816">
        <ele>484.2</ele>
        <time>2021-08-06T14:38:29Z</time>
      </trkpt>
      <trkpt lat="45.13601" lon="3.48164">
        <ele>484.1</ele>
        <time>2021-08-06T14:38:31Z</time>
      </trkpt>
      <trkpt lat="45.1359" lon="3.48167">
        <ele>484</ele>
        <time>2021-08-06T14:38:33Z</time>
      </trkpt>
      <trkpt lat="45.1358" lon="3.4817">
        <ele>484</ele>
        <time>2021-08-06T14:38:35Z</time>
      </trkpt>
      <trkpt lat="45.1357" lon="3.48175">
        <ele>484</ele>
        <time>2021-08-06T14:38:37Z</time>
      </trkpt>
      <trkpt lat="45.13561" lon="3.48179">
        <ele>484</ele>
        <time>2021-08-06T14:38:39Z</time>
      </trkpt>
      <trkpt lat="45.13552" lon="3.48184">
        <ele>483.9</ele>
        <time>2021-08-06T14:38:41Z</time>
      </trkpt>
      <trkpt lat="45.13544" lon="3.48189">
        <ele>483.9</ele>
        <time>2021-08-06T14:38:43Z</time>
      </trkpt>
      <trkpt lat="45.13536" lon="3.48194">
        <ele>483.8</ele>
        <time>2021-08-06T14:38:45Z</time>
      </trkpt>
      <trkpt lat="45.13527" lon="3.48199">
        <ele>483.7</ele>
        <time>2021-08-06T14:38:47Z</time>
      </trkpt>
      <trkpt lat="45.13519" lon="3.48205">
        <ele>483.6</ele>
        <time>2021-08-06T14:38:49Z</time>
      </trkpt>
      <trkpt lat="45.13511" lon="3.48212">
        <ele>483.5</ele>
        <time>2021-08-06T14:38:51Z</time>
      </trkpt>
      <trkpt lat="45.13503" lon="3.48218">
        <ele>483.4</ele>
        <time>2021-08-06T14:38:53Z</time>
      </trkpt>
      <trkpt lat="45.13494" lon="3.48223">
        <ele>483.4</ele>
        <time>2021-08-06T14:38:55Z</time>
      </trkpt>
      <trkpt lat="45.13485" lon="3.48229">
        <ele>483.4</ele>
        <time>2021-08-06T14:38:57Z</time>
      </trkpt>
      <trkpt lat="45.13475" lon="3.48235">
        <ele>483.5</ele>
        <time>2021-08-06T14:38:59Z</time>
      </trkpt>
      <trkpt lat="45.13466" lon="3.4824">
        <ele>483.5</ele>
        <time>2021-08-06T14:39:01Z</time>
      </trkpt>
      <trkpt lat="45.13456" lon="3.48244">
        <ele>483.6</ele>
        <time>2021-08-06T14:39:03Z</time>
      </trkpt>
      <trkpt lat="45.13447" lon="3.48248">
        <ele>483.7</ele>
        <time>2021-08-06T14:39:05Z</time>
      </trkpt>
      <trkpt lat="45.13437" lon="3.48252">
        <ele>483.8</ele>
        <time>2021-08-06T14:39:07Z</time>
      </trkpt>
      <trkpt lat="45.13428" lon="3.48257">
        <ele>483.9</ele>
        <time>2021-08-06T14:39:09Z</time>
      </trkpt>
      <trkpt lat="45.13419" lon="3.48264">
        <ele>484</ele>
        <time>2021-08-06T14:39:11Z</time>
      </trkpt>
      <trkpt lat="45.13411" lon="3.4827">
        <ele>484.1</ele>
        <time>2021-08-06T14:39:13Z</time>
      </trkpt>
      <trkpt lat="45.13402" lon="3.48278">
        <ele>484.2</ele>
        <time>2021-08-06T14:39:15Z</time>
      </trkpt>
      <trkpt lat="45.13394" lon="3.48286">
        <ele>484.3</ele>
        <time>2021-08-06T14:39:17Z</time>
      </trkpt>
      <trkpt lat="45.13386" lon="3.48294">
        <ele>484.4</ele>
        <time>2021-08-06T14:39:19Z</time>
      </trkpt>
      <trkpt lat="45.13378" lon="3.48302">
        <ele>484.5</ele>
        <time>2021-08-06T14:39:21Z</time>
      </trkpt>
      <trkpt lat="45.1337" lon="3.4831">
        <ele>484.6</ele>
        <time>2021-08-06T14:39:23Z</time>
      </trkpt>
      <trkpt lat="45.13362" lon="3.48318">
        <ele>484.7</ele>
        <time>2021-08-06T14:39:25Z</time>
      </trkpt>
      <trkpt lat="45.13354" lon="3.48325">
        <ele>484.8</ele>
        <time>2021-08-06T14:39:27Z</time>
      </trkpt>
      <trkpt lat="45.13345" lon="3.48332">
        <ele>484.9</ele>
        <time>2021-08-06T14:39:29Z</time>
      </trkpt>
      <trkpt lat="45.13336" lon="3.48339">
        <ele>485</ele>
        <time>2021-08-06T14:39:31Z</time>
      </trkpt>
      <trkpt lat="45.13327" lon="3.48345">
        <ele>485.1</ele>
        <time>2021-08-06T14:39:33Z</time>
      </trkpt>
      <trkpt lat="45.13318" lon="3.48351">
        <ele>485.3</ele>
        <time>2021-08-06T14:39:35Z</time>
      </trkpt>
      <trkpt lat="45.13309" lon="3.48357">
        <ele>485.3</ele>
        <time>2021-08-06T14:39:37Z</time>
      </trkpt>
      <trkpt lat="45.133" lon="3.48363">
        <ele>485.4</ele>
        <time>2021-08-06T14:39:39Z</time>
      </trkpt>
      <trkpt lat="45.13291" lon="3.48369">
        <ele>485.4</ele>
        <time>2021-08-06T14:39:41Z</time>
      </trkpt>
      <trkpt lat="45.13282" lon="3.48375">
        <ele>485.3</ele>
        <time>2021-08-06T14:39:43Z</time>
      </trkpt>
      <trkpt lat="45.13272" lon="3.48381">
        <ele>485.2</ele>
        <time>2021-08-06T14:39:45Z</time>
      </trkpt>
      <trkpt lat="45.13263" lon="3.48387">
        <ele>485.1</ele>
        <time>2021-08-06T14:39:47Z</time>
      </trkpt>
      <trkpt lat="45.13254" lon="3.48393">
        <ele>484.9</ele>
        <time>2021-08-06T14:39:49Z</time>
      </trkpt>
      <trkpt lat="45.13245" lon="3.48399">
        <ele>484.8</ele>
        <time>2021-08-06T14:39:51Z</time>
      </trkpt>
      <trkpt lat="45.13236" lon="3.48405">
        <ele>485</ele>
        <time>2021-08-06T14:39:53Z</time>
      </trkpt>
      <trkpt lat="45.13227" lon="3.4841">
        <ele>485.3</ele>
        <time>2021-08-06T14:39:55Z</time>
      </trkpt>
      <trkpt lat="45.13217" lon="3.48413">
        <ele>485.6</ele>
        <time>2021-08-06T14:39:57Z</time>
      </trkpt>
      <trkpt lat="45.13207" lon="3.48416">
        <ele>486.1</ele>
        <time>2021-08-06T14:39:59Z</time>
      </trkpt>
      <trkpt lat="45.13197" lon="3.48418">
        <ele>486.5</ele>
        <time>2021-08-06T14:40:01Z</time>
      </trkpt>
      <trkpt lat="45.13187" lon="3.48418">
        <ele>487</ele>
        <time>2021-08-06T14:40:03Z</time>
      </trkpt>
      <trkpt lat="45.13177" lon="3.48418">
        <ele>487.5</ele>
        <time>2021-08-06T14:40:05Z</time>
      </trkpt>
      <trkpt lat="45.13168" lon="3.48417">
        <ele>487.9</ele>
        <time>2021-08-06T14:40:07Z</time>
      </trkpt>
      <trkpt lat="45.13158" lon="3.48416">
        <ele>487.7</ele>
        <time>2021-08-06T14:40:09Z</time>
      </trkpt>
      <trkpt lat="45.13148" lon="3.48415">
        <ele>487.3</ele>
        <time>2021-08-06T14:40:11Z</time>
      </trkpt>
      <trkpt lat="45.13138" lon="3.48414">
        <ele>486.9</ele>
        <time>2021-08-06T14:40:13Z</time>
      </trkpt>
      <trkpt lat="45.13128" lon="3.48414">
        <ele>486.6</ele>
        <time>2021-08-06T14:40:15Z</time>
      </trkpt>
      <trkpt lat="45.13118" lon="3.48413">
        <ele>486.2</ele>
        <time>2021-08-06T14:40:17Z</time>
      </trkpt>
      <trkpt lat="45.13109" lon="3.48413">
        <ele>485.9</ele>
        <time>2021-08-06T14:40:19Z</time>
      </trkpt>
      <trkpt lat="45.13099" lon="3.48414">
        <ele>485.5</ele>
        <time>2021-08-06T14:40:21Z</time>
      </trkpt>
      <trkpt lat="45.13089" lon="3.48416">
        <ele>485.2</ele>
        <time>2021-08-06T14:40:23Z</time>
      </trkpt>
      <trkpt lat="45.13079" lon="3.48418">
        <ele>485</ele>
        <time>2021-08-06T14:40:25Z</time>
      </trkpt>
      <trkpt lat="45.1307" lon="3.4842">
        <ele>485.2</ele>
        <time>2021-08-06T14:40:27Z</time>
      </trkpt>
      <trkpt lat="45.1306" lon="3.48421">
        <ele>485.3</ele>
        <time>2021-08-06T14:40:29Z</time>
      </trkpt>
      <trkpt lat="45.13051" lon="3.48423">
        <ele>485.4</ele>
        <time>2021-08-06T14:40:31Z</time>
      </trkpt>
      <trkpt lat="45.13041" lon="3.48424">
        <ele>485.5</ele>
        <time>2021-08-06T14:40:33Z</time>
      </trkpt>
      <trkpt lat="45.13031" lon="3.48426">
        <ele>485.6</ele>
        <time>2021-08-06T14:40:35Z</time>
      </trkpt>
      <trkpt lat="45.13022" lon="3.48428">
        <ele>485.7</ele>
        <time>2021-08-06T14:40:37Z</time>
      </trkpt>
      <trkpt lat="45.13012" lon="3.4843">
        <ele>485.9</ele>
        <time>2021-08-06T14:40:39Z</time>
      </trkpt>
      <trkpt lat="45.13002" lon="3.48432">
        <ele>486</ele>
        <time>2021-08-06T14:40:41Z</time>
      </trkpt>
      <trkpt lat="45.12993" lon="3.48434">
        <ele>486</ele>
        <time>2021-08-06T14:40:43Z</time>
      </trkpt>
      <trkpt lat="45.12983" lon="3.48435">
        <ele>486.1</ele>
        <time>2021-08-06T14:40:45Z</time>
      </trkpt>
      <trkpt lat="45.12973" lon="3.48438">
        <ele>486.2</ele>
        <time>2021-08-06T14:40:47Z</time>
      </trkpt>
      <trkpt lat="45.12964" lon="3.48439">
        <ele>486.2</ele>
        <time>2021-08-06T14:40:49Z</time>
      </trkpt>
      <trkpt lat="45.12954" lon="3.48441">
        <ele>486.3</ele>
        <time>2021-08-06T14:40:51Z</time>
      </trkpt>
      <trkpt lat="45.12945" lon="3.48442">
        <ele>486.4</ele>
        <time>2021-08-06T14:40:53Z</time>
      </trkpt>
      <trkpt lat="45.12936" lon="3.48443">
        <ele>486.5</ele>
        <time>2021-08-06T14:40:55Z</time>
      </trkpt>
      <trkpt lat="45.12927" lon="3.48443">
        <ele>486.6</ele>
        <time>2021-08-06T14:40:57Z</time>
      </trkpt>
      <trkpt lat="45.12918" lon="3.48443">
        <ele>486.6</ele>
        <time>2021-08-06T14:40:59Z</time>
      </trkpt>
      <trkpt lat="45.12909" lon="3.48443">
        <ele>486.8</ele>
        <time>2021-08-06T14:41:01Z</time>
      </trkpt>
      <trkpt lat="45.12901" lon="3.48442">
        <ele>487</ele>
        <time>2021-08-06T14:41:03Z</time>
      </trkpt>
      <trkpt lat="45.12892" lon="3.48441">
        <ele>487.1</ele>
        <time>2021-08-06T14:41:05Z</time>
      </trkpt>
      <trkpt lat="45.12884" lon="3.48438">
        <ele>487.3</ele>
        <time>2021-08-06T14:41:07Z</time>
      </trkpt>
      <trkpt lat="45.12875" lon="3.48436">
        <ele>487.5</ele>
        <time>2021-08-06T14:41:09Z</time>
      </trkpt>
      <trkpt lat="45.12867" lon="3.48434">
        <ele>487.7</ele>
        <time>2021-08-06T14:41:11Z</time>
      </trkpt>
      <trkpt lat="45.12859" lon="3.48431">
        <ele>487.9</ele>
        <time>2021-08-06T14:41:13Z</time>
      </trkpt>
      <trkpt lat="45.1285" lon="3.48429">
        <ele>488.2</ele>
        <time>2021-08-06T14:41:15Z</time>
      </trkpt>
      <trkpt lat="45.12842" lon="3.48426">
        <ele>488.5</ele>
        <time>2021-08-06T14:41:17Z</time>
      </trkpt>
      <trkpt lat="45.12834" lon="3.48424">
        <ele>488.8</ele>
        <time>2021-08-06T14:41:19Z</time>
      </trkpt>
      <trkpt lat="45.12827" lon="3.48422">
        <ele>488.9</ele>
        <time>2021-08-06T14:41:21Z</time>
      </trkpt>
      <trkpt lat="45.12819" lon="3.48419">
        <ele>488.9</ele>
        <time>2021-08-06T14:41:23Z</time>
      </trkpt>
      <trkpt lat="45.12812" lon="3.48417">
        <ele>489</ele>
        <time>2021-08-06T14:41:25Z</time>
      </trkpt>
      <trkpt lat="45.12805" lon="3.48415">
        <ele>489.1</ele>
        <time>2021-08-06T14:41:27Z</time>
      </trkpt>
      <trkpt lat="45.12799" lon="3.48413">
        <ele>489.2</ele>
        <time>2021-08-06T14:41:29Z</time>
      </trkpt>
      <trkpt lat="45.12792" lon="3.48411">
        <ele>489.3</ele>
        <time>2021-08-06T14:41:31Z</time>
      </trkpt>
      <trkpt lat="45.12786" lon="3.4841">
        <ele>489.4</ele>
        <time>2021-08-06T14:41:33Z</time>
      </trkpt>
      <trkpt lat="45.12779" lon="3.48409">
        <ele>489.6</ele>
        <time>2021-08-06T14:41:35Z</time>
      </trkpt>
      <trkpt lat="45.12772" lon="3.48408">
        <ele>489.6</ele>
        <time>2021-08-06T14:41:37Z</time>
      </trkpt>
      <trkpt lat="45.12765" lon="3.48408">
        <ele>489.7</ele>
        <time>2021-08-06T14:41:39Z</time>
      </trkpt>
      <trkpt lat="45.12758" lon="3.48409">
        <ele>489.7</ele>
        <time>2021-08-06T14:41:41Z</time>
      </trkpt>
      <trkpt lat="45.1275" lon="3.48411">
        <ele>489.5</ele>
        <time>2021-08-06T14:41:43Z</time>
      </trkpt>
      <trkpt lat="45.12742" lon="3.48415">
        <ele>489</ele>
        <time>2021-08-06T14:41:45Z</time>
      </trkpt>
      <trkpt lat="45.12733" lon="3.48419">
        <ele>488.7</ele>
        <time>2021-08-06T14:41:47Z</time>
      </trkpt>
      <trkpt lat="45.12724" lon="3.48424">
        <ele>488.4</ele>
        <time>2021-08-06T14:41:49Z</time>
      </trkpt>
      <trkpt lat="45.12715" lon="3.48428">
        <ele>488.1</ele>
        <time>2021-08-06T14:41:51Z</time>
      </trkpt>
      <trkpt lat="45.12707" lon="3.48432">
        <ele>487.8</ele>
        <time>2021-08-06T14:41:53Z</time>
      </trkpt>
      <trkpt lat="45.12698" lon="3.48435">
        <ele>487.6</ele>
        <time>2021-08-06T14:41:55Z</time>
      </trkpt>
      <trkpt lat="45.12689" lon="3.48439">
        <ele>487.4</ele>
        <time>2021-08-06T14:41:57Z</time>
      </trkpt>
      <trkpt lat="45.12679" lon="3.48442">
        <ele>487.2</ele>
        <time>2021-08-06T14:41:59Z</time>
      </trkpt>
      <trkpt lat="45.1267" lon="3.48446">
        <ele>487</ele>
        <time>2021-08-06T14:42:01Z</time>
      </trkpt>
      <trkpt lat="45.12661" lon="3.4845">
        <ele>487.2</ele>
        <time>2021-08-06T14:42:03Z</time>
      </trkpt>
      <trkpt lat="45.12652" lon="3.48454">
        <ele>487.8</ele>
        <time>2021-08-06T14:42:05Z</time>
      </trkpt>
      <trkpt lat="45.12643" lon="3.48459">
        <ele>488.3</ele>
        <time>2021-08-06T14:42:07Z</time>
      </trkpt>
      <trkpt lat="45.12635" lon="3.48462">
        <ele>488.9</ele>
        <time>2021-08-06T14:42:09Z</time>
      </trkpt>
      <trkpt lat="45.12626" lon="3.48465">
        <ele>489.5</ele>
        <time>2021-08-06T14:42:11Z</time>
      </trkpt>
      <trkpt lat="45.12618" lon="3.48469">
        <ele>490.2</ele>
        <time>2021-08-06T14:42:13Z</time>
      </trkpt>
      <trkpt lat="45.12609" lon="3.48472">
        <ele>490.8</ele>
        <time>2021-08-06T14:42:15Z</time>
      </trkpt>
      <trkpt lat="45.12601" lon="3.48476">
        <ele>491.5</ele>
        <time>2021-08-06T14:42:17Z</time>
      </trkpt>
      <trkpt lat="45.12593" lon="3.4848">
        <ele>492.1</ele>
        <time>2021-08-06T14:42:19Z</time>
      </trkpt>
      <trkpt lat="45.12585" lon="3.48483">
        <ele>492.8</ele>
        <time>2021-08-06T14:42:21Z</time>
      </trkpt>
      <trkpt lat="45.12577" lon="3.48487">
        <ele>493.3</ele>
        <time>2021-08-06T14:42:23Z</time>
      </trkpt>
      <trkpt lat="45.12569" lon="3.48491">
        <ele>493.6</ele>
        <time>2021-08-06T14:42:25Z</time>
      </trkpt>
      <trkpt lat="45.12561" lon="3.48495">
        <ele>493.8</ele>
        <time>2021-08-06T14:42:27Z</time>
      </trkpt>
      <trkpt lat="45.12554" lon="3.485">
        <ele>494.1</ele>
        <time>2021-08-06T14:42:29Z</time>
      </trkpt>
      <trkpt lat="45.12546" lon="3.48504">
        <ele>494.2</ele>
        <time>2021-08-06T14:42:31Z</time>
      </trkpt>
      <trkpt lat="45.12539" lon="3.48509">
        <ele>494.2</ele>
        <time>2021-08-06T14:42:33Z</time>
      </trkpt>
      <trkpt lat="45.12532" lon="3.48514">
        <ele>494.3</ele>
        <time>2021-08-06T14:42:35Z</time>
      </trkpt>
      <trkpt lat="45.12526" lon="3.4852">
        <ele>494.4</ele>
        <time>2021-08-06T14:42:37Z</time>
      </trkpt>
      <trkpt lat="45.12519" lon="3.48526">
        <ele>494.5</ele>
        <time>2021-08-06T14:42:39Z</time>
      </trkpt>
      <trkpt lat="45.12512" lon="3.48533">
        <ele>494.6</ele>
        <time>2021-08-06T14:42:41Z</time>
      </trkpt>
      <trkpt lat="45.12505" lon="3.48539">
        <ele>494.8</ele>
        <time>2021-08-06T14:42:43Z</time>
      </trkpt>
      <trkpt lat="45.12497" lon="3.48546">
        <ele>494.9</ele>
        <time>2021-08-06T14:42:45Z</time>
      </trkpt>
      <trkpt lat="45.1249" lon="3.48553">
        <ele>494.9</ele>
        <time>2021-08-06T14:42:47Z</time>
      </trkpt>
      <trkpt lat="45.12482" lon="3.4856">
        <ele>494.7</ele>
        <time>2021-08-06T14:42:49Z</time>
      </trkpt>
      <trkpt lat="45.12475" lon="3.48567">
        <ele>494.6</ele>
        <time>2021-08-06T14:42:51Z</time>
      </trkpt>
      <trkpt lat="45.12468" lon="3.48575">
        <ele>494.3</ele>
        <time>2021-08-06T14:42:53Z</time>
      </trkpt>
      <trkpt lat="45.12461" lon="3.48581">
        <ele>494.1</ele>
        <time>2021-08-06T14:42:55Z</time>
      </trkpt>
      <trkpt lat="45.12453" lon="3.48588">
        <ele>493.9</ele>
        <time>2021-08-06T14:42:57Z</time>
      </trkpt>
      <trkpt lat="45.12447" lon="3.48594">
        <ele>493.7</ele>
        <time>2021-08-06T14:42:59Z</time>
      </trkpt>
      <trkpt lat="45.1244" lon="3.48601">
        <ele>493.6</ele>
        <time>2021-08-06T14:43:01Z</time>
      </trkpt>
      <trkpt lat="45.12433" lon="3.48609">
        <ele>493.5</ele>
        <time>2021-08-06T14:43:03Z</time>
      </trkpt>
      <trkpt lat="45.12424" lon="3.48617">
        <ele>493.5</ele>
        <time>2021-08-06T14:43:05Z</time>
      </trkpt>
      <trkpt lat="45.12417" lon="3.48626">
        <ele>493.5</ele>
        <time>2021-08-06T14:43:07Z</time>
      </trkpt>
      <trkpt lat="45.12409" lon="3.48634">
        <ele>493.8</ele>
        <time>2021-08-06T14:43:09Z</time>
      </trkpt>
      <trkpt lat="45.12402" lon="3.48643">
        <ele>494</ele>
        <time>2021-08-06T14:43:11Z</time>
      </trkpt>
      <trkpt lat="45.12394" lon="3.4865">
        <ele>494.3</ele>
        <time>2021-08-06T14:43:13Z</time>
      </trkpt>
      <trkpt lat="45.12386" lon="3.48659">
        <ele>494.5</ele>
        <time>2021-08-06T14:43:15Z</time>
      </trkpt>
      <trkpt lat="45.12377" lon="3.48668">
        <ele>494.8</ele>
        <time>2021-08-06T14:43:17Z</time>
      </trkpt>
      <trkpt lat="45.12369" lon="3.48677">
        <ele>494.5</ele>
        <time>2021-08-06T14:43:19Z</time>
      </trkpt>
      <trkpt lat="45.12359" lon="3.48685">
        <ele>494.2</ele>
        <time>2021-08-06T14:43:21Z</time>
      </trkpt>
      <trkpt lat="45.1235" lon="3.48693">
        <ele>493.9</ele>
        <time>2021-08-06T14:43:23Z</time>
      </trkpt>
      <trkpt lat="45.1234" lon="3.487">
        <ele>493.6</ele>
        <time>2021-08-06T14:43:25Z</time>
      </trkpt>
      <trkpt lat="45.1233" lon="3.48707">
        <ele>493.6</ele>
        <time>2021-08-06T14:43:27Z</time>
      </trkpt>
      <trkpt lat="45.1232" lon="3.48714">
        <ele>494.3</ele>
        <time>2021-08-06T14:43:29Z</time>
      </trkpt>
      <trkpt lat="45.1231" lon="3.48721">
        <ele>494.9</ele>
        <time>2021-08-06T14:43:31Z</time>
      </trkpt>
      <trkpt lat="45.123" lon="3.48729">
        <ele>495.5</ele>
        <time>2021-08-06T14:43:33Z</time>
      </trkpt>
      <trkpt lat="45.12289" lon="3.48736">
        <ele>496.2</ele>
        <time>2021-08-06T14:43:35Z</time>
      </trkpt>
      <trkpt lat="45.12279" lon="3.48742">
        <ele>497</ele>
        <time>2021-08-06T14:43:37Z</time>
      </trkpt>
      <trkpt lat="45.12269" lon="3.48749">
        <ele>497.6</ele>
        <time>2021-08-06T14:43:39Z</time>
      </trkpt>
      <trkpt lat="45.12258" lon="3.48756">
        <ele>498.1</ele>
        <time>2021-08-06T14:43:41Z</time>
      </trkpt>
      <trkpt lat="45.12248" lon="3.48763">
        <ele>498.6</ele>
        <time>2021-08-06T14:43:43Z</time>
      </trkpt>
      <trkpt lat="45.12239" lon="3.4877">
        <ele>499.2</ele>
        <time>2021-08-06T14:43:45Z</time>
      </trkpt>
      <trkpt lat="45.12229" lon="3.48776">
        <ele>499.7</ele>
        <time>2021-08-06T14:43:47Z</time>
      </trkpt>
      <trkpt lat="45.1222" lon="3.48782">
        <ele>500</ele>
        <time>2021-08-06T14:43:49Z</time>
      </trkpt>
      <trkpt lat="45.12212" lon="3.48787">
        <ele>500.1</ele>
        <time>2021-08-06T14:43:51Z</time>
      </trkpt>
      <trkpt lat="45.12204" lon="3.48792">
        <ele>500.2</ele>
        <time>2021-08-06T14:43:53Z</time>
      </trkpt>
      <trkpt lat="45.12197" lon="3.48797">
        <ele>500.1</ele>
        <time>2021-08-06T14:43:55Z</time>
      </trkpt>
      <trkpt lat="45.12189" lon="3.48799">
        <ele>500.4</ele>
        <time>2021-08-06T14:43:57Z</time>
      </trkpt>
      <trkpt lat="45.12183" lon="3.48805">
        <ele>499.8</ele>
        <time>2021-08-06T14:43:59Z</time>
      </trkpt>
      <trkpt lat="45.12175" lon="3.48807">
        <ele>500</ele>
        <time>2021-08-06T14:44:01Z</time>
      </trkpt>
      <trkpt lat="45.12168" lon="3.48811">
        <ele>499.8</ele>
        <time>2021-08-06T14:44:03Z</time>
      </trkpt>
      <trkpt lat="45.12161" lon="3.48815">
        <ele>499.6</ele>
        <time>2021-08-06T14:44:05Z</time>
      </trkpt>
      <trkpt lat="45.12153" lon="3.48819">
        <ele>499.4</ele>
        <time>2021-08-06T14:44:07Z</time>
      </trkpt>
      <trkpt lat="45.12145" lon="3.48822">
        <ele>499.5</ele>
        <time>2021-08-06T14:44:09Z</time>
      </trkpt>
      <trkpt lat="45.12137" lon="3.48826">
        <ele>499.4</ele>
        <time>2021-08-06T14:44:11Z</time>
      </trkpt>
      <trkpt lat="45.12129" lon="3.4883">
        <ele>499.1</ele>
        <time>2021-08-06T14:44:13Z</time>
      </trkpt>
      <trkpt lat="45.12121" lon="3.48834">
        <ele>498.9</ele>
        <time>2021-08-06T14:44:15Z</time>
      </trkpt>
      <trkpt lat="45.12112" lon="3.48838">
        <ele>499.3</ele>
        <time>2021-08-06T14:44:17Z</time>
      </trkpt>
      <trkpt lat="45.12104" lon="3.48842">
        <ele>499.5</ele>
        <time>2021-08-06T14:44:19Z</time>
      </trkpt>
      <trkpt lat="45.12095" lon="3.48847">
        <ele>499.8</ele>
        <time>2021-08-06T14:44:21Z</time>
      </trkpt>
      <trkpt lat="45.12086" lon="3.4885">
        <ele>500</ele>
        <time>2021-08-06T14:44:23Z</time>
      </trkpt>
      <trkpt lat="45.12078" lon="3.48854">
        <ele>500.2</ele>
        <time>2021-08-06T14:44:25Z</time>
      </trkpt>
      <trkpt lat="45.12069" lon="3.48858">
        <ele>500.1</ele>
        <time>2021-08-06T14:44:27Z</time>
      </trkpt>
      <trkpt lat="45.1206" lon="3.48863">
        <ele>499.9</ele>
        <time>2021-08-06T14:44:29Z</time>
      </trkpt>
      <trkpt lat="45.12051" lon="3.48866">
        <ele>499.8</ele>
        <time>2021-08-06T14:44:31Z</time>
      </trkpt>
      <trkpt lat="45.12042" lon="3.48871">
        <ele>499.4</ele>
        <time>2021-08-06T14:44:33Z</time>
      </trkpt>
      <trkpt lat="45.12034" lon="3.48876">
        <ele>498.7</ele>
        <time>2021-08-06T14:44:35Z</time>
      </trkpt>
      <trkpt lat="45.12025" lon="3.48882">
        <ele>497.7</ele>
        <time>2021-08-06T14:44:37Z</time>
      </trkpt>
      <trkpt lat="45.12016" lon="3.48886">
        <ele>497</ele>
        <time>2021-08-06T14:44:39Z</time>
      </trkpt>
      <trkpt lat="45.12007" lon="3.48888">
        <ele>496.7</ele>
        <time>2021-08-06T14:44:41Z</time>
      </trkpt>
      <trkpt lat="45.11997" lon="3.48891">
        <ele>496.1</ele>
        <time>2021-08-06T14:44:43Z</time>
      </trkpt>
      <trkpt lat="45.11988" lon="3.48896">
        <ele>495.1</ele>
        <time>2021-08-06T14:44:45Z</time>
      </trkpt>
      <trkpt lat="45.11979" lon="3.489">
        <ele>494.2</ele>
        <time>2021-08-06T14:44:47Z</time>
      </trkpt>
      <trkpt lat="45.1197" lon="3.48905">
        <ele>493.3</ele>
        <time>2021-08-06T14:44:49Z</time>
      </trkpt>
      <trkpt lat="45.11961" lon="3.48909">
        <ele>492.6</ele>
        <time>2021-08-06T14:44:51Z</time>
      </trkpt>
      <trkpt lat="45.11951" lon="3.48914">
        <ele>491.6</ele>
        <time>2021-08-06T14:44:53Z</time>
      </trkpt>
      <trkpt lat="45.11942" lon="3.48918">
        <ele>491</ele>
        <time>2021-08-06T14:44:55Z</time>
      </trkpt>
      <trkpt lat="45.11933" lon="3.48922">
        <ele>491.1</ele>
        <time>2021-08-06T14:44:57Z</time>
      </trkpt>
      <trkpt lat="45.11924" lon="3.48925">
        <ele>491.2</ele>
        <time>2021-08-06T14:44:59Z</time>
      </trkpt>
      <trkpt lat="45.11915" lon="3.48929">
        <ele>491.4</ele>
        <time>2021-08-06T14:45:01Z</time>
      </trkpt>
      <trkpt lat="45.11906" lon="3.48932">
        <ele>491.6</ele>
        <time>2021-08-06T14:45:03Z</time>
      </trkpt>
      <trkpt lat="45.11897" lon="3.48935">
        <ele>491.7</ele>
        <time>2021-08-06T14:45:05Z</time>
      </trkpt>
      <trkpt lat="45.11888" lon="3.48938">
        <ele>491.9</ele>
        <time>2021-08-06T14:45:07Z</time>
      </trkpt>
      <trkpt lat="45.11879" lon="3.48941">
        <ele>492.1</ele>
        <time>2021-08-06T14:45:09Z</time>
      </trkpt>
      <trkpt lat="45.1187" lon="3.48944">
        <ele>492.2</ele>
        <time>2021-08-06T14:45:11Z</time>
      </trkpt>
      <trkpt lat="45.11861" lon="3.48946">
        <ele>492.4</ele>
        <time>2021-08-06T14:45:13Z</time>
      </trkpt>
      <trkpt lat="45.11853" lon="3.48948">
        <ele>492.6</ele>
        <time>2021-08-06T14:45:15Z</time>
      </trkpt>
      <trkpt lat="45.11844" lon="3.48951">
        <ele>492.7</ele>
        <time>2021-08-06T14:45:17Z</time>
      </trkpt>
      <trkpt lat="45.11836" lon="3.48954">
        <ele>492.8</ele>
        <time>2021-08-06T14:45:19Z</time>
      </trkpt>
      <trkpt lat="45.11827" lon="3.48956">
        <ele>493.1</ele>
        <time>2021-08-06T14:45:21Z</time>
      </trkpt>
      <trkpt lat="45.11819" lon="3.48959">
        <ele>493.4</ele>
        <time>2021-08-06T14:45:23Z</time>
      </trkpt>
      <trkpt lat="45.11811" lon="3.48962">
        <ele>493.7</ele>
        <time>2021-08-06T14:45:25Z</time>
      </trkpt>
      <trkpt lat="45.11803" lon="3.48964">
        <ele>494</ele>
        <time>2021-08-06T14:45:27Z</time>
      </trkpt>
      <trkpt lat="45.11794" lon="3.48967">
        <ele>494.3</ele>
        <time>2021-08-06T14:45:29Z</time>
      </trkpt>
      <trkpt lat="45.11786" lon="3.4897">
        <ele>494.6</ele>
        <time>2021-08-06T14:45:31Z</time>
      </trkpt>
      <trkpt lat="45.11778" lon="3.48972">
        <ele>494.9</ele>
        <time>2021-08-06T14:45:33Z</time>
      </trkpt>
      <trkpt lat="45.1177" lon="3.48975">
        <ele>495.2</ele>
        <time>2021-08-06T14:45:35Z</time>
      </trkpt>
      <trkpt lat="45.11762" lon="3.48977">
        <ele>495.5</ele>
        <time>2021-08-06T14:45:37Z</time>
      </trkpt>
      <trkpt lat="45.11754" lon="3.48979">
        <ele>495.7</ele>
        <time>2021-08-06T14:45:39Z</time>
      </trkpt>
      <trkpt lat="45.11747" lon="3.48982">
        <ele>495.9</ele>
        <time>2021-08-06T14:45:41Z</time>
      </trkpt>
      <trkpt lat="45.11739" lon="3.48984">
        <ele>496</ele>
        <time>2021-08-06T14:45:43Z</time>
      </trkpt>
      <trkpt lat="45.11732" lon="3.48987">
        <ele>496</ele>
        <time>2021-08-06T14:45:45Z</time>
      </trkpt>
      <trkpt lat="45.11724" lon="3.48989">
        <ele>496</ele>
        <time>2021-08-06T14:45:47Z</time>
      </trkpt>
      <trkpt lat="45.11717" lon="3.48991">
        <ele>496</ele>
        <time>2021-08-06T14:45:49Z</time>
      </trkpt>
      <trkpt lat="45.1171" lon="3.48993">
        <ele>495.9</ele>
        <time>2021-08-06T14:45:51Z</time>
      </trkpt>
      <trkpt lat="45.11702" lon="3.48996">
        <ele>495.8</ele>
        <time>2021-08-06T14:45:53Z</time>
      </trkpt>
      <trkpt lat="45.11695" lon="3.48998">
        <ele>495.6</ele>
        <time>2021-08-06T14:45:55Z</time>
      </trkpt>
      <trkpt lat="45.11688" lon="3.49001">
        <ele>495.5</ele>
        <time>2021-08-06T14:45:57Z</time>
      </trkpt>
      <trkpt lat="45.11681" lon="3.49002">
        <ele>495.5</ele>
        <time>2021-08-06T14:45:59Z</time>
      </trkpt>
      <trkpt lat="45.11674" lon="3.49004">
        <ele>495.5</ele>
        <time>2021-08-06T14:46:01Z</time>
      </trkpt>
      <trkpt lat="45.11668" lon="3.49007">
        <ele>495.4</ele>
        <time>2021-08-06T14:46:03Z</time>
      </trkpt>
      <trkpt lat="45.11662" lon="3.49009">
        <ele>495.9</ele>
        <time>2021-08-06T14:46:05Z</time>
      </trkpt>
      <trkpt lat="45.11656" lon="3.49012">
        <ele>496.5</ele>
        <time>2021-08-06T14:46:07Z</time>
      </trkpt>
      <trkpt lat="45.1165" lon="3.49014">
        <ele>497</ele>
        <time>2021-08-06T14:46:09Z</time>
      </trkpt>
      <trkpt lat="45.11644" lon="3.49016">
        <ele>497.5</ele>
        <time>2021-08-06T14:46:11Z</time>
      </trkpt>
      <trkpt lat="45.11638" lon="3.49018">
        <ele>498</ele>
        <time>2021-08-06T14:46:13Z</time>
      </trkpt>
      <trkpt lat="45.11633" lon="3.49019">
        <ele>498.4</ele>
        <time>2021-08-06T14:46:15Z</time>
      </trkpt>
      <trkpt lat="45.11628" lon="3.49021">
        <ele>498.9</ele>
        <time>2021-08-06T14:46:17Z</time>
      </trkpt>
      <trkpt lat="45.11622" lon="3.49021">
        <ele>499.4</ele>
        <time>2021-08-06T14:46:19Z</time>
      </trkpt>
      <trkpt lat="45.11617" lon="3.4902">
        <ele>500.2</ele>
        <time>2021-08-06T14:46:21Z</time>
      </trkpt>
      <trkpt lat="45.11611" lon="3.49022">
        <ele>500.6</ele>
        <time>2021-08-06T14:46:23Z</time>
      </trkpt>
      <trkpt lat="45.11605" lon="3.49023">
        <ele>500.9</ele>
        <time>2021-08-06T14:46:25Z</time>
      </trkpt>
      <trkpt lat="45.11599" lon="3.49024">
        <ele>501.4</ele>
        <time>2021-08-06T14:46:27Z</time>
      </trkpt>
      <trkpt lat="45.11593" lon="3.49025">
        <ele>501.9</ele>
        <time>2021-08-06T14:46:29Z</time>
      </trkpt>
      <trkpt lat="45.11587" lon="3.49026">
        <ele>502.4</ele>
        <time>2021-08-06T14:46:31Z</time>
      </trkpt>
      <trkpt lat="45.11579" lon="3.49027">
        <ele>502.9</ele>
        <time>2021-08-06T14:46:33Z</time>
      </trkpt>
      <trkpt lat="45.11572" lon="3.49027">
        <ele>503.3</ele>
        <time>2021-08-06T14:46:35Z</time>
      </trkpt>
      <trkpt lat="45.11566" lon="3.49026">
        <ele>503.8</ele>
        <time>2021-08-06T14:46:37Z</time>
      </trkpt>
      <trkpt lat="45.11559" lon="3.49026">
        <ele>504.3</ele>
        <time>2021-08-06T14:46:39Z</time>
      </trkpt>
      <trkpt lat="45.11553" lon="3.49025">
        <ele>504.9</ele>
        <time>2021-08-06T14:46:41Z</time>
      </trkpt>
      <trkpt lat="45.11548" lon="3.49023">
        <ele>505.7</ele>
        <time>2021-08-06T14:46:43Z</time>
      </trkpt>
      <trkpt lat="45.11543" lon="3.49023">
        <ele>506</ele>
        <time>2021-08-06T14:46:45Z</time>
      </trkpt>
      <trkpt lat="45.11537" lon="3.49023">
        <ele>506.3</ele>
        <time>2021-08-06T14:46:47Z</time>
      </trkpt>
      <trkpt lat="45.11533" lon="3.49025">
        <ele>506</ele>
        <time>2021-08-06T14:46:49Z</time>
      </trkpt>
      <trkpt lat="45.11528" lon="3.49026">
        <ele>506.2</ele>
        <time>2021-08-06T14:46:51Z</time>
      </trkpt>
      <trkpt lat="45.11522" lon="3.49024">
        <ele>506.9</ele>
        <time>2021-08-06T14:46:53Z</time>
      </trkpt>
      <trkpt lat="45.11517" lon="3.49024">
        <ele>507.3</ele>
        <time>2021-08-06T14:46:55Z</time>
      </trkpt>
      <trkpt lat="45.11512" lon="3.49025">
        <ele>507.2</ele>
        <time>2021-08-06T14:46:57Z</time>
      </trkpt>
      <trkpt lat="45.11508" lon="3.49027">
        <ele>507</ele>
        <time>2021-08-06T14:46:59Z</time>
      </trkpt>
      <trkpt lat="45.11503" lon="3.49029">
        <ele>506.8</ele>
        <time>2021-08-06T14:47:01Z</time>
      </trkpt>
      <trkpt lat="45.11499" lon="3.49031">
        <ele>506.5</ele>
        <time>2021-08-06T14:47:03Z</time>
      </trkpt>
      <trkpt lat="45.11495" lon="3.49033">
        <ele>506.5</ele>
        <time>2021-08-06T14:47:05Z</time>
      </trkpt>
      <trkpt lat="45.1149" lon="3.49036">
        <ele>506.4</ele>
        <time>2021-08-06T14:47:07Z</time>
      </trkpt>
      <trkpt lat="45.11485" lon="3.49038">
        <ele>506.3</ele>
        <time>2021-08-06T14:47:09Z</time>
      </trkpt>
      <trkpt lat="45.11481" lon="3.49041">
        <ele>505.8</ele>
        <time>2021-08-06T14:47:11Z</time>
      </trkpt>
      <trkpt lat="45.11477" lon="3.49044">
        <ele>505.4</ele>
        <time>2021-08-06T14:47:13Z</time>
      </trkpt>
      <trkpt lat="45.11472" lon="3.49047">
        <ele>505.1</ele>
        <time>2021-08-06T14:47:15Z</time>
      </trkpt>
      <trkpt lat="45.11467" lon="3.49051">
        <ele>504.5</ele>
        <time>2021-08-06T14:47:17Z</time>
      </trkpt>
      <trkpt lat="45.11461" lon="3.49055">
        <ele>503.8</ele>
        <time>2021-08-06T14:47:19Z</time>
      </trkpt>
      <trkpt lat="45.11455" lon="3.4906">
        <ele>502.8</ele>
        <time>2021-08-06T14:47:21Z</time>
      </trkpt>
      <trkpt lat="45.11449" lon="3.49065">
        <ele>501.8</ele>
        <time>2021-08-06T14:47:23Z</time>
      </trkpt>
      <trkpt lat="45.11443" lon="3.4907">
        <ele>500.5</ele>
        <time>2021-08-06T14:47:25Z</time>
      </trkpt>
      <trkpt lat="45.11437" lon="3.49076">
        <ele>499.2</ele>
        <time>2021-08-06T14:47:27Z</time>
      </trkpt>
      <trkpt lat="45.11431" lon="3.49082">
        <ele>497.5</ele>
        <time>2021-08-06T14:47:29Z</time>
      </trkpt>
      <trkpt lat="45.11425" lon="3.49087">
        <ele>497</ele>
        <time>2021-08-06T14:47:31Z</time>
      </trkpt>
      <trkpt lat="45.11418" lon="3.49093">
        <ele>496.8</ele>
        <time>2021-08-06T14:47:33Z</time>
      </trkpt>
      <trkpt lat="45.11411" lon="3.491">
        <ele>496.7</ele>
        <time>2021-08-06T14:47:35Z</time>
      </trkpt>
      <trkpt lat="45.11404" lon="3.49107">
        <ele>496.6</ele>
        <time>2021-08-06T14:47:37Z</time>
      </trkpt>
      <trkpt lat="45.11397" lon="3.49113">
        <ele>496.5</ele>
        <time>2021-08-06T14:47:39Z</time>
      </trkpt>
      <trkpt lat="45.11391" lon="3.49121">
        <ele>496.2</ele>
        <time>2021-08-06T14:47:41Z</time>
      </trkpt>
      <trkpt lat="45.11384" lon="3.4913">
        <ele>495.9</ele>
        <time>2021-08-06T14:47:43Z</time>
      </trkpt>
      <trkpt lat="45.11375" lon="3.49139">
        <ele>495.7</ele>
        <time>2021-08-06T14:47:45Z</time>
      </trkpt>
      <trkpt lat="45.11367" lon="3.49147">
        <ele>495.4</ele>
        <time>2021-08-06T14:47:47Z</time>
      </trkpt>
      <trkpt lat="45.11358" lon="3.49156">
        <ele>495.1</ele>
        <time>2021-08-06T14:47:49Z</time>
      </trkpt>
      <trkpt lat="45.11349" lon="3.49164">
        <ele>495</ele>
        <time>2021-08-06T14:47:51Z</time>
      </trkpt>
      <trkpt lat="45.11341" lon="3.49171">
        <ele>495.3</ele>
        <time>2021-08-06T14:47:53Z</time>
      </trkpt>
      <trkpt lat="45.11332" lon="3.49176">
        <ele>495.8</ele>
        <time>2021-08-06T14:47:55Z</time>
      </trkpt>
      <trkpt lat="45.11323" lon="3.49181">
        <ele>496.1</ele>
        <time>2021-08-06T14:47:57Z</time>
      </trkpt>
      <trkpt lat="45.11315" lon="3.49187">
        <ele>496.2</ele>
        <time>2021-08-06T14:47:59Z</time>
      </trkpt>
      <trkpt lat="45.11307" lon="3.49186">
        <ele>496.5</ele>
        <time>2021-08-06T14:48:01Z</time>
      </trkpt>
      <trkpt lat="45.113" lon="3.49184">
        <ele>496.9</ele>
        <time>2021-08-06T14:48:03Z</time>
      </trkpt>
      <trkpt lat="45.11293" lon="3.49187">
        <ele>497</ele>
        <time>2021-08-06T14:48:05Z</time>
      </trkpt>
      <trkpt lat="45.11287" lon="3.4919">
        <ele>497</ele>
        <time>2021-08-06T14:48:07Z</time>
      </trkpt>
      <trkpt lat="45.11281" lon="3.49194">
        <ele>497.1</ele>
        <time>2021-08-06T14:48:09Z</time>
      </trkpt>
      <trkpt lat="45.11277" lon="3.49202">
        <ele>496.7</ele>
        <time>2021-08-06T14:48:11Z</time>
      </trkpt>
      <trkpt lat="45.11274" lon="3.49209">
        <ele>496.4</ele>
        <time>2021-08-06T14:48:13Z</time>
      </trkpt>
      <trkpt lat="45.11269" lon="3.49214">
        <ele>496.2</ele>
        <time>2021-08-06T14:48:15Z</time>
      </trkpt>
      <trkpt lat="45.11267" lon="3.49213">
        <ele>496.3</ele>
        <time>2021-08-06T14:48:17Z</time>
      </trkpt>
      <trkpt lat="45.11262" lon="3.49215">
        <ele>496.3</ele>
        <time>2021-08-06T14:48:19Z</time>
      </trkpt>
      <trkpt lat="45.11257" lon="3.4922">
        <ele>496</ele>
        <time>2021-08-06T14:48:21Z</time>
      </trkpt>
      <trkpt lat="45.11254" lon="3.49226">
        <ele>495.7</ele>
        <time>2021-08-06T14:48:23Z</time>
      </trkpt>
      <trkpt lat="45.11248" lon="3.49229">
        <ele>495.5</ele>
        <time>2021-08-06T14:48:25Z</time>
      </trkpt>
      <trkpt lat="45.11242" lon="3.49232">
        <ele>495.4</ele>
        <time>2021-08-06T14:48:27Z</time>
      </trkpt>
      <trkpt lat="45.11238" lon="3.49237">
        <ele>495.1</ele>
        <time>2021-08-06T14:48:29Z</time>
      </trkpt>
      <trkpt lat="45.11233" lon="3.4924">
        <ele>495</ele>
        <time>2021-08-06T14:48:31Z</time>
      </trkpt>
      <trkpt lat="45.11228" lon="3.49243">
        <ele>494.9</ele>
        <time>2021-08-06T14:48:33Z</time>
      </trkpt>
      <trkpt lat="45.11223" lon="3.49245">
        <ele>494.9</ele>
        <time>2021-08-06T14:48:35Z</time>
      </trkpt>
      <trkpt lat="45.1122" lon="3.49247">
        <ele>494.9</ele>
        <time>2021-08-06T14:48:37Z</time>
      </trkpt>
      <trkpt lat="45.11216" lon="3.49249">
        <ele>494.9</ele>
        <time>2021-08-06T14:48:39Z</time>
      </trkpt>
      <trkpt lat="45.11213" lon="3.49251">
        <ele>494.9</ele>
        <time>2021-08-06T14:48:41Z</time>
      </trkpt>
      <trkpt lat="45.11209" lon="3.49254">
        <ele>494.8</ele>
        <time>2021-08-06T14:48:43Z</time>
      </trkpt>
      <trkpt lat="45.11206" lon="3.49257">
        <ele>494.7</ele>
        <time>2021-08-06T14:48:45Z</time>
      </trkpt>
      <trkpt lat="45.11203" lon="3.49259">
        <ele>494.7</ele>
        <time>2021-08-06T14:48:47Z</time>
      </trkpt>
      <trkpt lat="45.11199" lon="3.49261">
        <ele>494.7</ele>
        <time>2021-08-06T14:48:49Z</time>
      </trkpt>
      <trkpt lat="45.11196" lon="3.49261">
        <ele>494.8</ele>
        <time>2021-08-06T14:48:51Z</time>
      </trkpt>
      <trkpt lat="45.11193" lon="3.4926">
        <ele>494.9</ele>
        <time>2021-08-06T14:48:53Z</time>
      </trkpt>
      <trkpt lat="45.11189" lon="3.49262">
        <ele>494.9</ele>
        <time>2021-08-06T14:48:55Z</time>
      </trkpt>
      <trkpt lat="45.11186" lon="3.49265">
        <ele>494.8</ele>
        <time>2021-08-06T14:48:57Z</time>
      </trkpt>
      <trkpt lat="45.11182" lon="3.49263">
        <ele>495</ele>
        <time>2021-08-06T14:48:59Z</time>
      </trkpt>
      <trkpt lat="45.1118" lon="3.49259">
        <ele>495.2</ele>
        <time>2021-08-06T14:49:01Z</time>
      </trkpt>
      <trkpt lat="45.11181" lon="3.49257">
        <ele>495.3</ele>
        <time>2021-08-06T14:49:03Z</time>
      </trkpt>
      <trkpt lat="45.11181" lon="3.49255">
        <ele>495.4</ele>
        <time>2021-08-06T14:49:05Z</time>
      </trkpt>
      <trkpt lat="45.11181" lon="3.49254">
        <ele>495.5</ele>
        <time>2021-08-06T14:49:07Z</time>
      </trkpt>
      <trkpt lat="45.11181" lon="3.49253">
        <ele>495.5</ele>
        <time>2021-08-06T14:49:09Z</time>
      </trkpt>
      <trkpt lat="45.11181" lon="3.49254">
        <ele>495.5</ele>
        <time>2021-08-06T14:49:11Z</time>
      </trkpt>
      <trkpt lat="45.11171" lon="3.49235">
        <ele>496.1</ele>
        <time>2021-08-06T15:30:36Z</time>
      </trkpt>
      <trkpt lat="45.11169" lon="3.49227">
        <ele>496.3</ele>
        <time>2021-08-06T15:30:38Z</time>
      </trkpt>
      <trkpt lat="45.11168" lon="3.49218">
        <ele>496.4</ele>
        <time>2021-08-06T15:30:40Z</time>
      </trkpt>
      <trkpt lat="45.11166" lon="3.4921">
        <ele>496.5</ele>
        <time>2021-08-06T15:30:42Z</time>
      </trkpt>
      <trkpt lat="45.11165" lon="3.49203">
        <ele>496.6</ele>
        <time>2021-08-06T15:30:44Z</time>
      </trkpt>
      <trkpt lat="45.11162" lon="3.49195">
        <ele>496.7</ele>
        <time>2021-08-06T15:30:46Z</time>
      </trkpt>
      <trkpt lat="45.11159" lon="3.49188">
        <ele>496.8</ele>
        <time>2021-08-06T15:30:48Z</time>
      </trkpt>
      <trkpt lat="45.11157" lon="3.49181">
        <ele>496.9</ele>
        <time>2021-08-06T15:30:50Z</time>
      </trkpt>
      <trkpt lat="45.11153" lon="3.49175">
        <ele>497.1</ele>
        <time>2021-08-06T15:30:52Z</time>
      </trkpt>
      <trkpt lat="45.1115" lon="3.49168">
        <ele>497.2</ele>
        <time>2021-08-06T15:30:54Z</time>
      </trkpt>
      <trkpt lat="45.11148" lon="3.49162">
        <ele>497.4</ele>
        <time>2021-08-06T15:30:56Z</time>
      </trkpt>
      <trkpt lat="45.11146" lon="3.49157">
        <ele>497.7</ele>
        <time>2021-08-06T15:30:58Z</time>
      </trkpt>
      <trkpt lat="45.11144" lon="3.49153">
        <ele>497.9</ele>
        <time>2021-08-06T15:31:00Z</time>
      </trkpt>
      <trkpt lat="45.11143" lon="3.49148">
        <ele>498.1</ele>
        <time>2021-08-06T15:31:02Z</time>
      </trkpt>
      <trkpt lat="45.1114" lon="3.49143">
        <ele>498.4</ele>
        <time>2021-08-06T15:31:04Z</time>
      </trkpt>
      <trkpt lat="45.11135" lon="3.49141">
        <ele>498.5</ele>
        <time>2021-08-06T15:31:06Z</time>
      </trkpt>
      <trkpt lat="45.11128" lon="3.49143">
        <ele>498.4</ele>
        <time>2021-08-06T15:31:08Z</time>
      </trkpt>
      <trkpt lat="45.11122" lon="3.49145">
        <ele>498.4</ele>
        <time>2021-08-06T15:31:10Z</time>
      </trkpt>
      <trkpt lat="45.11116" lon="3.49147">
        <ele>498.4</ele>
        <time>2021-08-06T15:31:12Z</time>
      </trkpt>
      <trkpt lat="45.11109" lon="3.49149">
        <ele>498.4</ele>
        <time>2021-08-06T15:31:14Z</time>
      </trkpt>
      <trkpt lat="45.11103" lon="3.4915">
        <ele>498.4</ele>
        <time>2021-08-06T15:31:16Z</time>
      </trkpt>
      <trkpt lat="45.11096" lon="3.49152">
        <ele>498.4</ele>
        <time>2021-08-06T15:31:18Z</time>
      </trkpt>
      <trkpt lat="45.1109" lon="3.49154">
        <ele>498.4</ele>
        <time>2021-08-06T15:31:20Z</time>
      </trkpt>
      <trkpt lat="45.11083" lon="3.49155">
        <ele>498.4</ele>
        <time>2021-08-06T15:31:22Z</time>
      </trkpt>
      <trkpt lat="45.11076" lon="3.49157">
        <ele>498.5</ele>
        <time>2021-08-06T15:31:24Z</time>
      </trkpt>
      <trkpt lat="45.11069" lon="3.49159">
        <ele>498.6</ele>
        <time>2021-08-06T15:31:26Z</time>
      </trkpt>
      <trkpt lat="45.11063" lon="3.49161">
        <ele>498.7</ele>
        <time>2021-08-06T15:31:28Z</time>
      </trkpt>
      <trkpt lat="45.11057" lon="3.49163">
        <ele>498.7</ele>
        <time>2021-08-06T15:31:30Z</time>
      </trkpt>
      <trkpt lat="45.11052" lon="3.49165">
        <ele>498.8</ele>
        <time>2021-08-06T15:31:32Z</time>
      </trkpt>
      <trkpt lat="45.11047" lon="3.49168">
        <ele>498.9</ele>
        <time>2021-08-06T15:31:34Z</time>
      </trkpt>
      <trkpt lat="45.11041" lon="3.49169">
        <ele>499</ele>
        <time>2021-08-06T15:31:36Z</time>
      </trkpt>
      <trkpt lat="45.11035" lon="3.49171">
        <ele>499.1</ele>
        <time>2021-08-06T15:31:38Z</time>
      </trkpt>
      <trkpt lat="45.1103" lon="3.49173">
        <ele>499.2</ele>
        <time>2021-08-06T15:31:40Z</time>
      </trkpt>
      <trkpt lat="45.11026" lon="3.49175">
        <ele>499.3</ele>
        <time>2021-08-06T15:31:42Z</time>
      </trkpt>
      <trkpt lat="45.1102" lon="3.49179">
        <ele>499.4</ele>
        <time>2021-08-06T15:31:44Z</time>
      </trkpt>
      <trkpt lat="45.11016" lon="3.49184">
        <ele>499.4</ele>
        <time>2021-08-06T15:31:46Z</time>
      </trkpt>
      <trkpt lat="45.11015" lon="3.49193">
        <ele>499.3</ele>
        <time>2021-08-06T15:31:48Z</time>
      </trkpt>
      <trkpt lat="45.11014" lon="3.49199">
        <ele>499.3</ele>
        <time>2021-08-06T15:31:50Z</time>
      </trkpt>
      <trkpt lat="45.11011" lon="3.49199">
        <ele>499.3</ele>
        <time>2021-08-06T15:31:52Z</time>
      </trkpt>
      <trkpt lat="45.1101" lon="3.49194">
        <ele>499.4</ele>
        <time>2021-08-06T15:31:54Z</time>
      </trkpt>
      <trkpt lat="45.11009" lon="3.49191">
        <ele>499.5</ele>
        <time>2021-08-06T15:31:56Z</time>
      </trkpt>
      <trkpt lat="45.11004" lon="3.49187">
        <ele>499.7</ele>
        <time>2021-08-06T15:31:58Z</time>
      </trkpt>
      <trkpt lat="45.10997" lon="3.49187">
        <ele>499.8</ele>
        <time>2021-08-06T15:32:00Z</time>
      </trkpt>
      <trkpt lat="45.1099" lon="3.4919">
        <ele>499.8</ele>
        <time>2021-08-06T15:32:02Z</time>
      </trkpt>
      <trkpt lat="45.10984" lon="3.49192">
        <ele>499.8</ele>
        <time>2021-08-06T15:32:04Z</time>
      </trkpt>
      <trkpt lat="45.10977" lon="3.49193">
        <ele>499.8</ele>
        <time>2021-08-06T15:32:06Z</time>
      </trkpt>
      <trkpt lat="45.10971" lon="3.49192">
        <ele>499.8</ele>
        <time>2021-08-06T15:32:08Z</time>
      </trkpt>
      <trkpt lat="45.10964" lon="3.49193">
        <ele>499.8</ele>
        <time>2021-08-06T15:32:10Z</time>
      </trkpt>
      <trkpt lat="45.10957" lon="3.49193">
        <ele>499.9</ele>
        <time>2021-08-06T15:32:12Z</time>
      </trkpt>
      <trkpt lat="45.10949" lon="3.49194">
        <ele>499.9</ele>
        <time>2021-08-06T15:32:14Z</time>
      </trkpt>
      <trkpt lat="45.10941" lon="3.49195">
        <ele>499.9</ele>
        <time>2021-08-06T15:32:16Z</time>
      </trkpt>
      <trkpt lat="45.10932" lon="3.49196">
        <ele>499.9</ele>
        <time>2021-08-06T15:32:18Z</time>
      </trkpt>
      <trkpt lat="45.10923" lon="3.49196">
        <ele>499.9</ele>
        <time>2021-08-06T15:32:20Z</time>
      </trkpt>
      <trkpt lat="45.10914" lon="3.49197">
        <ele>499.9</ele>
        <time>2021-08-06T15:32:22Z</time>
      </trkpt>
      <trkpt lat="45.10905" lon="3.49198">
        <ele>499.7</ele>
        <time>2021-08-06T15:32:24Z</time>
      </trkpt>
      <trkpt lat="45.10896" lon="3.492">
        <ele>499.5</ele>
        <time>2021-08-06T15:32:26Z</time>
      </trkpt>
      <trkpt lat="45.10887" lon="3.49202">
        <ele>499.3</ele>
        <time>2021-08-06T15:32:28Z</time>
      </trkpt>
      <trkpt lat="45.1088" lon="3.49205">
        <ele>499.1</ele>
        <time>2021-08-06T15:32:30Z</time>
      </trkpt>
      <trkpt lat="45.10874" lon="3.49212">
        <ele>498.9</ele>
        <time>2021-08-06T15:32:32Z</time>
      </trkpt>
      <trkpt lat="45.10873" lon="3.49221">
        <ele>498.7</ele>
        <time>2021-08-06T15:32:34Z</time>
      </trkpt>
      <trkpt lat="45.10873" lon="3.49232">
        <ele>498.4</ele>
        <time>2021-08-06T15:32:36Z</time>
      </trkpt>
      <trkpt lat="45.10873" lon="3.49241">
        <ele>498.2</ele>
        <time>2021-08-06T15:32:38Z</time>
      </trkpt>
      <trkpt lat="45.10873" lon="3.49246">
        <ele>498.1</ele>
        <time>2021-08-06T15:32:40Z</time>
      </trkpt>
      <trkpt lat="45.10873" lon="3.49246">
        <ele>498.1</ele>
        <time>2021-08-06T15:32:42Z</time>
      </trkpt>
      <trkpt lat="45.10873" lon="3.49246">
        <ele>498.1</ele>
        <time>2021-08-06T15:32:44Z</time>
      </trkpt>
      <trkpt lat="45.10873" lon="3.49246">
        <ele>498.1</ele>
        <time>2021-08-06T15:32:46Z</time>
      </trkpt>
      <trkpt lat="45.10873" lon="3.49247">
        <ele>498.1</ele>
        <time>2021-08-06T15:32:48Z</time>
      </trkpt>
      <trkpt lat="45.10873" lon="3.49247">
        <ele>498.1</ele>
        <time>2021-08-06T15:32:50Z</time>
      </trkpt>
      <trkpt lat="45.10823" lon="3.49201">
        <ele>498.8</ele>
        <time>2021-08-06T15:35:24Z</time>
      </trkpt>
      <trkpt lat="45.10815" lon="3.49202">
        <ele>498.9</ele>
        <time>2021-08-06T15:35:26Z</time>
      </trkpt>
      <trkpt lat="45.10807" lon="3.49203">
        <ele>499</ele>
        <time>2021-08-06T15:35:28Z</time>
      </trkpt>
      <trkpt lat="45.10799" lon="3.49204">
        <ele>499.1</ele>
        <time>2021-08-06T15:35:30Z</time>
      </trkpt>
      <trkpt lat="45.10791" lon="3.49205">
        <ele>499.3</ele>
        <time>2021-08-06T15:35:32Z</time>
      </trkpt>
      <trkpt lat="45.10783" lon="3.49206">
        <ele>499.4</ele>
        <time>2021-08-06T15:35:34Z</time>
      </trkpt>
      <trkpt lat="45.10776" lon="3.49208">
        <ele>499.5</ele>
        <time>2021-08-06T15:35:36Z</time>
      </trkpt>
      <trkpt lat="45.10768" lon="3.49209">
        <ele>499.7</ele>
        <time>2021-08-06T15:35:38Z</time>
      </trkpt>
      <trkpt lat="45.10761" lon="3.4921">
        <ele>499.8</ele>
        <time>2021-08-06T15:35:40Z</time>
      </trkpt>
      <trkpt lat="45.10753" lon="3.49211">
        <ele>499.9</ele>
        <time>2021-08-06T15:35:42Z</time>
      </trkpt>
      <trkpt lat="45.10746" lon="3.49212">
        <ele>500</ele>
        <time>2021-08-06T15:35:44Z</time>
      </trkpt>
      <trkpt lat="45.10739" lon="3.49213">
        <ele>500.1</ele>
        <time>2021-08-06T15:35:46Z</time>
      </trkpt>
      <trkpt lat="45.10731" lon="3.49215">
        <ele>500.2</ele>
        <time>2021-08-06T15:35:48Z</time>
      </trkpt>
      <trkpt lat="45.10724" lon="3.49215">
        <ele>500.3</ele>
        <time>2021-08-06T15:35:50Z</time>
      </trkpt>
      <trkpt lat="45.10717" lon="3.49215">
        <ele>500.4</ele>
        <time>2021-08-06T15:35:52Z</time>
      </trkpt>
      <trkpt lat="45.1071" lon="3.49215">
        <ele>500.5</ele>
        <time>2021-08-06T15:35:54Z</time>
      </trkpt>
      <trkpt lat="45.10703" lon="3.49216">
        <ele>500.6</ele>
        <time>2021-08-06T15:35:56Z</time>
      </trkpt>
      <trkpt lat="45.10696" lon="3.49216">
        <ele>500.7</ele>
        <time>2021-08-06T15:35:58Z</time>
      </trkpt>
      <trkpt lat="45.10688" lon="3.49217">
        <ele>500.7</ele>
        <time>2021-08-06T15:36:00Z</time>
      </trkpt>
      <trkpt lat="45.10681" lon="3.49218">
        <ele>500.8</ele>
        <time>2021-08-06T15:36:02Z</time>
      </trkpt>
      <trkpt lat="45.10673" lon="3.4922">
        <ele>500.9</ele>
        <time>2021-08-06T15:36:04Z</time>
      </trkpt>
      <trkpt lat="45.10665" lon="3.49222">
        <ele>501.1</ele>
        <time>2021-08-06T15:36:06Z</time>
      </trkpt>
      <trkpt lat="45.10657" lon="3.49226">
        <ele>501.4</ele>
        <time>2021-08-06T15:36:08Z</time>
      </trkpt>
      <trkpt lat="45.10649" lon="3.49229">
        <ele>501.7</ele>
        <time>2021-08-06T15:36:10Z</time>
      </trkpt>
      <trkpt lat="45.10641" lon="3.49234">
        <ele>502.1</ele>
        <time>2021-08-06T15:36:12Z</time>
      </trkpt>
      <trkpt lat="45.10633" lon="3.49239">
        <ele>502.5</ele>
        <time>2021-08-06T15:36:14Z</time>
      </trkpt>
      <trkpt lat="45.10626" lon="3.49244">
        <ele>502.9</ele>
        <time>2021-08-06T15:36:16Z</time>
      </trkpt>
      <trkpt lat="45.10618" lon="3.49249">
        <ele>503.3</ele>
        <time>2021-08-06T15:36:18Z</time>
      </trkpt>
      <trkpt lat="45.10611" lon="3.49254">
        <ele>503.6</ele>
        <time>2021-08-06T15:36:20Z</time>
      </trkpt>
      <trkpt lat="45.10603" lon="3.49258">
        <ele>503.9</ele>
        <time>2021-08-06T15:36:22Z</time>
      </trkpt>
      <trkpt lat="45.10595" lon="3.49263">
        <ele>504.1</ele>
        <time>2021-08-06T15:36:24Z</time>
      </trkpt>
      <trkpt lat="45.10587" lon="3.49268">
        <ele>504.4</ele>
        <time>2021-08-06T15:36:26Z</time>
      </trkpt>
      <trkpt lat="45.10579" lon="3.4927">
        <ele>504.5</ele>
        <time>2021-08-06T15:36:28Z</time>
      </trkpt>
      <trkpt lat="45.10571" lon="3.49274">
        <ele>504.4</ele>
        <time>2021-08-06T15:36:30Z</time>
      </trkpt>
      <trkpt lat="45.10562" lon="3.49276">
        <ele>504.4</ele>
        <time>2021-08-06T15:36:32Z</time>
      </trkpt>
      <trkpt lat="45.10554" lon="3.49279">
        <ele>504.3</ele>
        <time>2021-08-06T15:36:34Z</time>
      </trkpt>
      <trkpt lat="45.10545" lon="3.49282">
        <ele>504.2</ele>
        <time>2021-08-06T15:36:36Z</time>
      </trkpt>
      <trkpt lat="45.10536" lon="3.49284">
        <ele>504.2</ele>
        <time>2021-08-06T15:36:38Z</time>
      </trkpt>
      <trkpt lat="45.10528" lon="3.49287">
        <ele>504.1</ele>
        <time>2021-08-06T15:36:40Z</time>
      </trkpt>
      <trkpt lat="45.10519" lon="3.49289">
        <ele>504.1</ele>
        <time>2021-08-06T15:36:42Z</time>
      </trkpt>
      <trkpt lat="45.10511" lon="3.49292">
        <ele>504</ele>
        <time>2021-08-06T15:36:44Z</time>
      </trkpt>
      <trkpt lat="45.10502" lon="3.49295">
        <ele>503.9</ele>
        <time>2021-08-06T15:36:46Z</time>
      </trkpt>
      <trkpt lat="45.10494" lon="3.49298">
        <ele>503.9</ele>
        <time>2021-08-06T15:36:48Z</time>
      </trkpt>
      <trkpt lat="45.10485" lon="3.49301">
        <ele>503.8</ele>
        <time>2021-08-06T15:36:50Z</time>
      </trkpt>
      <trkpt lat="45.10476" lon="3.49304">
        <ele>503.8</ele>
        <time>2021-08-06T15:36:52Z</time>
      </trkpt>
      <trkpt lat="45.10468" lon="3.49308">
        <ele>503.7</ele>
        <time>2021-08-06T15:36:54Z</time>
      </trkpt>
      <trkpt lat="45.1046" lon="3.49311">
        <ele>503.7</ele>
        <time>2021-08-06T15:36:56Z</time>
      </trkpt>
      <trkpt lat="45.10451" lon="3.49313">
        <ele>503.6</ele>
        <time>2021-08-06T15:36:58Z</time>
      </trkpt>
      <trkpt lat="45.10443" lon="3.49316">
        <ele>503.6</ele>
        <time>2021-08-06T15:37:00Z</time>
      </trkpt>
      <trkpt lat="45.10435" lon="3.49318">
        <ele>503.5</ele>
        <time>2021-08-06T15:37:02Z</time>
      </trkpt>
      <trkpt lat="45.10426" lon="3.49322">
        <ele>503.4</ele>
        <time>2021-08-06T15:37:04Z</time>
      </trkpt>
      <trkpt lat="45.10418" lon="3.49325">
        <ele>503.3</ele>
        <time>2021-08-06T15:37:06Z</time>
      </trkpt>
      <trkpt lat="45.1041" lon="3.49327">
        <ele>503.4</ele>
        <time>2021-08-06T15:37:08Z</time>
      </trkpt>
      <trkpt lat="45.10403" lon="3.4933">
        <ele>503.4</ele>
        <time>2021-08-06T15:37:10Z</time>
      </trkpt>
      <trkpt lat="45.10395" lon="3.49333">
        <ele>503.5</ele>
        <time>2021-08-06T15:37:12Z</time>
      </trkpt>
      <trkpt lat="45.10386" lon="3.49336">
        <ele>503.7</ele>
        <time>2021-08-06T15:37:14Z</time>
      </trkpt>
      <trkpt lat="45.10378" lon="3.4934">
        <ele>503.8</ele>
        <time>2021-08-06T15:37:16Z</time>
      </trkpt>
      <trkpt lat="45.1037" lon="3.49343">
        <ele>503.9</ele>
        <time>2021-08-06T15:37:18Z</time>
      </trkpt>
      <trkpt lat="45.10362" lon="3.49347">
        <ele>504</ele>
        <time>2021-08-06T15:37:20Z</time>
      </trkpt>
      <trkpt lat="45.10354" lon="3.49348">
        <ele>504.2</ele>
        <time>2021-08-06T15:37:22Z</time>
      </trkpt>
      <trkpt lat="45.10345" lon="3.49352">
        <ele>504.3</ele>
        <time>2021-08-06T15:37:24Z</time>
      </trkpt>
      <trkpt lat="45.10338" lon="3.49356">
        <ele>504.4</ele>
        <time>2021-08-06T15:37:26Z</time>
      </trkpt>
      <trkpt lat="45.1033" lon="3.49359">
        <ele>504.5</ele>
        <time>2021-08-06T15:37:28Z</time>
      </trkpt>
      <trkpt lat="45.10322" lon="3.49365">
        <ele>504.5</ele>
        <time>2021-08-06T15:37:30Z</time>
      </trkpt>
      <trkpt lat="45.10313" lon="3.49369">
        <ele>504.6</ele>
        <time>2021-08-06T15:37:32Z</time>
      </trkpt>
      <trkpt lat="45.10304" lon="3.49373">
        <ele>504.7</ele>
        <time>2021-08-06T15:37:34Z</time>
      </trkpt>
      <trkpt lat="45.10296" lon="3.49378">
        <ele>504.8</ele>
        <time>2021-08-06T15:37:36Z</time>
      </trkpt>
      <trkpt lat="45.10288" lon="3.49384">
        <ele>504.9</ele>
        <time>2021-08-06T15:37:38Z</time>
      </trkpt>
      <trkpt lat="45.1028" lon="3.49388">
        <ele>505</ele>
        <time>2021-08-06T15:37:40Z</time>
      </trkpt>
      <trkpt lat="45.10271" lon="3.49394">
        <ele>505</ele>
        <time>2021-08-06T15:37:42Z</time>
      </trkpt>
      <trkpt lat="45.10263" lon="3.49398">
        <ele>505.2</ele>
        <time>2021-08-06T15:37:44Z</time>
      </trkpt>
      <trkpt lat="45.10254" lon="3.49402">
        <ele>505.2</ele>
        <time>2021-08-06T15:37:46Z</time>
      </trkpt>
      <trkpt lat="45.10246" lon="3.49407">
        <ele>505.3</ele>
        <time>2021-08-06T15:37:48Z</time>
      </trkpt>
      <trkpt lat="45.10237" lon="3.49411">
        <ele>505.4</ele>
        <time>2021-08-06T15:37:50Z</time>
      </trkpt>
      <trkpt lat="45.10228" lon="3.49416">
        <ele>505.5</ele>
        <time>2021-08-06T15:37:52Z</time>
      </trkpt>
      <trkpt lat="45.1022" lon="3.49421">
        <ele>505.7</ele>
        <time>2021-08-06T15:37:54Z</time>
      </trkpt>
      <trkpt lat="45.10211" lon="3.49426">
        <ele>505.8</ele>
        <time>2021-08-06T15:37:56Z</time>
      </trkpt>
      <trkpt lat="45.10203" lon="3.49431">
        <ele>505.9</ele>
        <time>2021-08-06T15:37:58Z</time>
      </trkpt>
      <trkpt lat="45.10195" lon="3.49434">
        <ele>506</ele>
        <time>2021-08-06T15:38:00Z</time>
      </trkpt>
      <trkpt lat="45.10187" lon="3.49438">
        <ele>506.2</ele>
        <time>2021-08-06T15:38:02Z</time>
      </trkpt>
      <trkpt lat="45.10179" lon="3.49444">
        <ele>506.3</ele>
        <time>2021-08-06T15:38:04Z</time>
      </trkpt>
      <trkpt lat="45.10171" lon="3.49448">
        <ele>506.5</ele>
        <time>2021-08-06T15:38:06Z</time>
      </trkpt>
      <trkpt lat="45.10162" lon="3.49452">
        <ele>506.7</ele>
        <time>2021-08-06T15:38:08Z</time>
      </trkpt>
      <trkpt lat="45.10153" lon="3.49457">
        <ele>506.9</ele>
        <time>2021-08-06T15:38:10Z</time>
      </trkpt>
      <trkpt lat="45.10143" lon="3.49462">
        <ele>507.2</ele>
        <time>2021-08-06T15:38:12Z</time>
      </trkpt>
      <trkpt lat="45.10134" lon="3.49468">
        <ele>507.5</ele>
        <time>2021-08-06T15:38:14Z</time>
      </trkpt>
      <trkpt lat="45.10125" lon="3.49474">
        <ele>507.8</ele>
        <time>2021-08-06T15:38:16Z</time>
      </trkpt>
      <trkpt lat="45.10115" lon="3.49479">
        <ele>508.3</ele>
        <time>2021-08-06T15:38:18Z</time>
      </trkpt>
      <trkpt lat="45.10106" lon="3.49486">
        <ele>508.7</ele>
        <time>2021-08-06T15:38:20Z</time>
      </trkpt>
      <trkpt lat="45.10096" lon="3.49492">
        <ele>509.3</ele>
        <time>2021-08-06T15:38:22Z</time>
      </trkpt>
      <trkpt lat="45.10086" lon="3.49498">
        <ele>509.8</ele>
        <time>2021-08-06T15:38:24Z</time>
      </trkpt>
      <trkpt lat="45.10077" lon="3.49502">
        <ele>509.7</ele>
        <time>2021-08-06T15:38:26Z</time>
      </trkpt>
      <trkpt lat="45.10065" lon="3.49507">
        <ele>509.2</ele>
        <time>2021-08-06T15:38:28Z</time>
      </trkpt>
      <trkpt lat="45.10055" lon="3.49506">
        <ele>509</ele>
        <time>2021-08-06T15:38:30Z</time>
      </trkpt>
      <trkpt lat="45.10045" lon="3.49503">
        <ele>508.9</ele>
        <time>2021-08-06T15:38:32Z</time>
      </trkpt>
      <trkpt lat="45.10035" lon="3.49503">
        <ele>508.7</ele>
        <time>2021-08-06T15:38:34Z</time>
      </trkpt>
      <trkpt lat="45.10027" lon="3.49501">
        <ele>508.6</ele>
        <time>2021-08-06T15:38:36Z</time>
      </trkpt>
      <trkpt lat="45.1002" lon="3.49499">
        <ele>508.5</ele>
        <time>2021-08-06T15:38:38Z</time>
      </trkpt>
      <trkpt lat="45.10012" lon="3.49498">
        <ele>508.3</ele>
        <time>2021-08-06T15:38:40Z</time>
      </trkpt>
      <trkpt lat="45.10007" lon="3.49497">
        <ele>508.2</ele>
        <time>2021-08-06T15:38:42Z</time>
      </trkpt>
      <trkpt lat="45.1" lon="3.49498">
        <ele>508</ele>
        <time>2021-08-06T15:38:44Z</time>
      </trkpt>
      <trkpt lat="45.09996" lon="3.49499">
        <ele>508</ele>
        <time>2021-08-06T15:38:46Z</time>
      </trkpt>
      <trkpt lat="45.09991" lon="3.49493">
        <ele>508.1</ele>
        <time>2021-08-06T15:38:48Z</time>
      </trkpt>
      <trkpt lat="45.09986" lon="3.49489">
        <ele>508.2</ele>
        <time>2021-08-06T15:38:50Z</time>
      </trkpt>
      <trkpt lat="45.09981" lon="3.49485">
        <ele>508.3</ele>
        <time>2021-08-06T15:38:52Z</time>
      </trkpt>
      <trkpt lat="45.09975" lon="3.49479">
        <ele>508.4</ele>
        <time>2021-08-06T15:38:54Z</time>
      </trkpt>
      <trkpt lat="45.09969" lon="3.49473">
        <ele>508.5</ele>
        <time>2021-08-06T15:38:56Z</time>
      </trkpt>
      <trkpt lat="45.09963" lon="3.49469">
        <ele>508.6</ele>
        <time>2021-08-06T15:38:58Z</time>
      </trkpt>
      <trkpt lat="45.09958" lon="3.49464">
        <ele>508.7</ele>
        <time>2021-08-06T15:39:00Z</time>
      </trkpt>
      <trkpt lat="45.09952" lon="3.4946">
        <ele>508.9</ele>
        <time>2021-08-06T15:39:02Z</time>
      </trkpt>
      <trkpt lat="45.09945" lon="3.49457">
        <ele>509</ele>
        <time>2021-08-06T15:39:04Z</time>
      </trkpt>
      <trkpt lat="45.09938" lon="3.49456">
        <ele>509.1</ele>
        <time>2021-08-06T15:39:06Z</time>
      </trkpt>
      <trkpt lat="45.09932" lon="3.49456">
        <ele>509.3</ele>
        <time>2021-08-06T15:39:08Z</time>
      </trkpt>
      <trkpt lat="45.09926" lon="3.49456">
        <ele>509.4</ele>
        <time>2021-08-06T15:39:10Z</time>
      </trkpt>
      <trkpt lat="45.09919" lon="3.49455">
        <ele>509.5</ele>
        <time>2021-08-06T15:39:12Z</time>
      </trkpt>
      <trkpt lat="45.09912" lon="3.49453">
        <ele>509.4</ele>
        <time>2021-08-06T15:39:14Z</time>
      </trkpt>
      <trkpt lat="45.09906" lon="3.49453">
        <ele>509.3</ele>
        <time>2021-08-06T15:39:16Z</time>
      </trkpt>
      <trkpt lat="45.09901" lon="3.49454">
        <ele>509.1</ele>
        <time>2021-08-06T15:39:18Z</time>
      </trkpt>
      <trkpt lat="45.09894" lon="3.49455">
        <ele>508.9</ele>
        <time>2021-08-06T15:39:20Z</time>
      </trkpt>
      <trkpt lat="45.09887" lon="3.49456">
        <ele>508.6</ele>
        <time>2021-08-06T15:39:22Z</time>
      </trkpt>
      <trkpt lat="45.09879" lon="3.4946">
        <ele>508.3</ele>
        <time>2021-08-06T15:39:24Z</time>
      </trkpt>
      <trkpt lat="45.09872" lon="3.49464">
        <ele>508.1</ele>
        <time>2021-08-06T15:39:26Z</time>
      </trkpt>
      <trkpt lat="45.09866" lon="3.49467">
        <ele>507.8</ele>
        <time>2021-08-06T15:39:28Z</time>
      </trkpt>
      <trkpt lat="45.09859" lon="3.49469">
        <ele>507.6</ele>
        <time>2021-08-06T15:39:30Z</time>
      </trkpt>
      <trkpt lat="45.09855" lon="3.49471">
        <ele>507.4</ele>
        <time>2021-08-06T15:39:32Z</time>
      </trkpt>
      <trkpt lat="45.09851" lon="3.49472">
        <ele>507.2</ele>
        <time>2021-08-06T15:39:34Z</time>
      </trkpt>
      <trkpt lat="45.09847" lon="3.49476">
        <ele>507</ele>
        <time>2021-08-06T15:39:36Z</time>
      </trkpt>
      <trkpt lat="45.09845" lon="3.49485">
        <ele>506.7</ele>
        <time>2021-08-06T15:39:38Z</time>
      </trkpt>
      <trkpt lat="45.09843" lon="3.49496">
        <ele>506.5</ele>
        <time>2021-08-06T15:39:40Z</time>
      </trkpt>
      <trkpt lat="45.09841" lon="3.49511">
        <ele>506</ele>
        <time>2021-08-06T15:39:42Z</time>
      </trkpt>
      <trkpt lat="45.09838" lon="3.49526">
        <ele>505.6</ele>
        <time>2021-08-06T15:39:44Z</time>
      </trkpt>
      <trkpt lat="45.09833" lon="3.4954">
        <ele>505</ele>
        <time>2021-08-06T15:39:46Z</time>
      </trkpt>
      <trkpt lat="45.0983" lon="3.49555">
        <ele>504.7</ele>
        <time>2021-08-06T15:39:48Z</time>
      </trkpt>
      <trkpt lat="45.09827" lon="3.49571">
        <ele>504.3</ele>
        <time>2021-08-06T15:39:50Z</time>
      </trkpt>
      <trkpt lat="45.09829" lon="3.49587">
        <ele>503.8</ele>
        <time>2021-08-06T15:39:52Z</time>
      </trkpt>
      <trkpt lat="45.09831" lon="3.49602">
        <ele>502.9</ele>
        <time>2021-08-06T15:39:54Z</time>
      </trkpt>
      <trkpt lat="45.09834" lon="3.49617">
        <ele>502</ele>
        <time>2021-08-06T15:39:56Z</time>
      </trkpt>
      <trkpt lat="45.09834" lon="3.4963">
        <ele>501.2</ele>
        <time>2021-08-06T15:39:58Z</time>
      </trkpt>
      <trkpt lat="45.09836" lon="3.49643">
        <ele>500.5</ele>
        <time>2021-08-06T15:40:00Z</time>
      </trkpt>
      <trkpt lat="45.09834" lon="3.49656">
        <ele>499.7</ele>
        <time>2021-08-06T15:40:02Z</time>
      </trkpt>
      <trkpt lat="45.09835" lon="3.49668">
        <ele>499</ele>
        <time>2021-08-06T15:40:04Z</time>
      </trkpt>
      <trkpt lat="45.09831" lon="3.49677">
        <ele>498.3</ele>
        <time>2021-08-06T15:40:06Z</time>
      </trkpt>
      <trkpt lat="45.09827" lon="3.49681">
        <ele>498.1</ele>
        <time>2021-08-06T15:40:08Z</time>
      </trkpt>
      <trkpt lat="45.09819" lon="3.4968">
        <ele>498.3</ele>
        <time>2021-08-06T15:40:10Z</time>
      </trkpt>
      <trkpt lat="45.09812" lon="3.49674">
        <ele>498.8</ele>
        <time>2021-08-06T15:40:12Z</time>
      </trkpt>
      <trkpt lat="45.09806" lon="3.4967">
        <ele>499.1</ele>
        <time>2021-08-06T15:40:14Z</time>
      </trkpt>
      <trkpt lat="45.09799" lon="3.49666">
        <ele>499.4</ele>
        <time>2021-08-06T15:40:16Z</time>
      </trkpt>
      <trkpt lat="45.09793" lon="3.49662">
        <ele>499.7</ele>
        <time>2021-08-06T15:40:18Z</time>
      </trkpt>
      <trkpt lat="45.09787" lon="3.49657">
        <ele>500.1</ele>
        <time>2021-08-06T15:40:20Z</time>
      </trkpt>
      <trkpt lat="45.09784" lon="3.49651">
        <ele>500.4</ele>
        <time>2021-08-06T15:40:22Z</time>
      </trkpt>
      <trkpt lat="45.09784" lon="3.49643">
        <ele>500.8</ele>
        <time>2021-08-06T15:40:24Z</time>
      </trkpt>
      <trkpt lat="45.09781" lon="3.49636">
        <ele>501.2</ele>
        <time>2021-08-06T15:40:26Z</time>
      </trkpt>
      <trkpt lat="45.09779" lon="3.49628">
        <ele>501.7</ele>
        <time>2021-08-06T15:40:28Z</time>
      </trkpt>
      <trkpt lat="45.09777" lon="3.4962">
        <ele>502.1</ele>
        <time>2021-08-06T15:40:30Z</time>
      </trkpt>
      <trkpt lat="45.09774" lon="3.49613">
        <ele>502.5</ele>
        <time>2021-08-06T15:40:32Z</time>
      </trkpt>
      <trkpt lat="45.09772" lon="3.49605">
        <ele>502.9</ele>
        <time>2021-08-06T15:40:34Z</time>
      </trkpt>
      <trkpt lat="45.09769" lon="3.49597">
        <ele>503.3</ele>
        <time>2021-08-06T15:40:36Z</time>
      </trkpt>
      <trkpt lat="45.09767" lon="3.49589">
        <ele>503.7</ele>
        <time>2021-08-06T15:40:38Z</time>
      </trkpt>
      <trkpt lat="45.09765" lon="3.49581">
        <ele>504.1</ele>
        <time>2021-08-06T15:40:40Z</time>
      </trkpt>
      <trkpt lat="45.09764" lon="3.49573">
        <ele>504.2</ele>
        <time>2021-08-06T15:40:42Z</time>
      </trkpt>
      <trkpt lat="45.09761" lon="3.49565">
        <ele>504.4</ele>
        <time>2021-08-06T15:40:44Z</time>
      </trkpt>
      <trkpt lat="45.09759" lon="3.49557">
        <ele>504.6</ele>
        <time>2021-08-06T15:40:46Z</time>
      </trkpt>
      <trkpt lat="45.09758" lon="3.49549">
        <ele>504.8</ele>
        <time>2021-08-06T15:40:48Z</time>
      </trkpt>
      <trkpt lat="45.09757" lon="3.49541">
        <ele>505</ele>
        <time>2021-08-06T15:40:50Z</time>
      </trkpt>
      <trkpt lat="45.09756" lon="3.49533">
        <ele>505.2</ele>
        <time>2021-08-06T15:40:52Z</time>
      </trkpt>
      <trkpt lat="45.09756" lon="3.49525">
        <ele>505.4</ele>
        <time>2021-08-06T15:40:54Z</time>
      </trkpt>
      <trkpt lat="45.09757" lon="3.49517">
        <ele>505.6</ele>
        <time>2021-08-06T15:40:56Z</time>
      </trkpt>
      <trkpt lat="45.09758" lon="3.49508">
        <ele>505.8</ele>
        <time>2021-08-06T15:40:58Z</time>
      </trkpt>
      <trkpt lat="45.09753" lon="3.49502">
        <ele>505.9</ele>
        <time>2021-08-06T15:41:00Z</time>
      </trkpt>
      <trkpt lat="45.09746" lon="3.49504">
        <ele>505.9</ele>
        <time>2021-08-06T15:41:02Z</time>
      </trkpt>
      <trkpt lat="45.09742" lon="3.49511">
        <ele>505.7</ele>
        <time>2021-08-06T15:41:04Z</time>
      </trkpt>
      <trkpt lat="45.09738" lon="3.4952">
        <ele>505.5</ele>
        <time>2021-08-06T15:41:06Z</time>
      </trkpt>
      <trkpt lat="45.09732" lon="3.49527">
        <ele>505.3</ele>
        <time>2021-08-06T15:41:08Z</time>
      </trkpt>
      <trkpt lat="45.09725" lon="3.49535">
        <ele>505</ele>
        <time>2021-08-06T15:41:10Z</time>
      </trkpt>
      <trkpt lat="45.09718" lon="3.49542">
        <ele>504.8</ele>
        <time>2021-08-06T15:41:12Z</time>
      </trkpt>
      <trkpt lat="45.09711" lon="3.49551">
        <ele>504.5</ele>
        <time>2021-08-06T15:41:14Z</time>
      </trkpt>
      <trkpt lat="45.09703" lon="3.49559">
        <ele>504.2</ele>
        <time>2021-08-06T15:41:16Z</time>
      </trkpt>
      <trkpt lat="45.09696" lon="3.4957">
        <ele>503.8</ele>
        <time>2021-08-06T15:41:18Z</time>
      </trkpt>
      <trkpt lat="45.09689" lon="3.49582">
        <ele>503.3</ele>
        <time>2021-08-06T15:41:20Z</time>
      </trkpt>
      <trkpt lat="45.09682" lon="3.49594">
        <ele>502.7</ele>
        <time>2021-08-06T15:41:22Z</time>
      </trkpt>
      <trkpt lat="45.09674" lon="3.49607">
        <ele>502</ele>
        <time>2021-08-06T15:41:24Z</time>
      </trkpt>
      <trkpt lat="45.09666" lon="3.4962">
        <ele>501.3</ele>
        <time>2021-08-06T15:41:26Z</time>
      </trkpt>
      <trkpt lat="45.09657" lon="3.49632">
        <ele>501</ele>
        <time>2021-08-06T15:41:28Z</time>
      </trkpt>
      <trkpt lat="45.09649" lon="3.49645">
        <ele>500.8</ele>
        <time>2021-08-06T15:41:30Z</time>
      </trkpt>
      <trkpt lat="45.09641" lon="3.49658">
        <ele>500.8</ele>
        <time>2021-08-06T15:41:32Z</time>
      </trkpt>
      <trkpt lat="45.09633" lon="3.49671">
        <ele>500.9</ele>
        <time>2021-08-06T15:41:34Z</time>
      </trkpt>
      <trkpt lat="45.09625" lon="3.49684">
        <ele>501.2</ele>
        <time>2021-08-06T15:41:36Z</time>
      </trkpt>
      <trkpt lat="45.09617" lon="3.49697">
        <ele>501.4</ele>
        <time>2021-08-06T15:41:38Z</time>
      </trkpt>
      <trkpt lat="45.0961" lon="3.4971">
        <ele>501.5</ele>
        <time>2021-08-06T15:41:40Z</time>
      </trkpt>
      <trkpt lat="45.09602" lon="3.49722">
        <ele>501.7</ele>
        <time>2021-08-06T15:41:42Z</time>
      </trkpt>
      <trkpt lat="45.09594" lon="3.49734">
        <ele>501.9</ele>
        <time>2021-08-06T15:41:44Z</time>
      </trkpt>
      <trkpt lat="45.09586" lon="3.49746">
        <ele>502</ele>
        <time>2021-08-06T15:41:46Z</time>
      </trkpt>
      <trkpt lat="45.09579" lon="3.49758">
        <ele>502.1</ele>
        <time>2021-08-06T15:41:48Z</time>
      </trkpt>
      <trkpt lat="45.09572" lon="3.49769">
        <ele>502.3</ele>
        <time>2021-08-06T15:41:50Z</time>
      </trkpt>
      <trkpt lat="45.09565" lon="3.4978">
        <ele>502.5</ele>
        <time>2021-08-06T15:41:52Z</time>
      </trkpt>
      <trkpt lat="45.09557" lon="3.49792">
        <ele>502.6</ele>
        <time>2021-08-06T15:41:54Z</time>
      </trkpt>
      <trkpt lat="45.0955" lon="3.49803">
        <ele>502.7</ele>
        <time>2021-08-06T15:41:56Z</time>
      </trkpt>
      <trkpt lat="45.09543" lon="3.49814">
        <ele>502.8</ele>
        <time>2021-08-06T15:41:58Z</time>
      </trkpt>
      <trkpt lat="45.09537" lon="3.49826">
        <ele>502.8</ele>
        <time>2021-08-06T15:42:00Z</time>
      </trkpt>
      <trkpt lat="45.09529" lon="3.49837">
        <ele>502.8</ele>
        <time>2021-08-06T15:42:02Z</time>
      </trkpt>
      <trkpt lat="45.09522" lon="3.49848">
        <ele>502.7</ele>
        <time>2021-08-06T15:42:04Z</time>
      </trkpt>
      <trkpt lat="45.09516" lon="3.4986">
        <ele>502.5</ele>
        <time>2021-08-06T15:42:06Z</time>
      </trkpt>
      <trkpt lat="45.09509" lon="3.49871">
        <ele>502.4</ele>
        <time>2021-08-06T15:42:08Z</time>
      </trkpt>
      <trkpt lat="45.09502" lon="3.49882">
        <ele>502.2</ele>
        <time>2021-08-06T15:42:10Z</time>
      </trkpt>
      <trkpt lat="45.09494" lon="3.49893">
        <ele>502.8</ele>
        <time>2021-08-06T15:42:12Z</time>
      </trkpt>
      <trkpt lat="45.09487" lon="3.49904">
        <ele>503.4</ele>
        <time>2021-08-06T15:42:14Z</time>
      </trkpt>
      <trkpt lat="45.09481" lon="3.49916">
        <ele>503.8</ele>
        <time>2021-08-06T15:42:16Z</time>
      </trkpt>
      <trkpt lat="45.09473" lon="3.49927">
        <ele>504.3</ele>
        <time>2021-08-06T15:42:18Z</time>
      </trkpt>
      <trkpt lat="45.09466" lon="3.49938">
        <ele>504.5</ele>
        <time>2021-08-06T15:42:20Z</time>
      </trkpt>
      <trkpt lat="45.09459" lon="3.49949">
        <ele>504.6</ele>
        <time>2021-08-06T15:42:22Z</time>
      </trkpt>
      <trkpt lat="45.09452" lon="3.4996">
        <ele>504.5</ele>
        <time>2021-08-06T15:42:24Z</time>
      </trkpt>
      <trkpt lat="45.09445" lon="3.49971">
        <ele>504.4</ele>
        <time>2021-08-06T15:42:26Z</time>
      </trkpt>
      <trkpt lat="45.09438" lon="3.49983">
        <ele>504</ele>
        <time>2021-08-06T15:42:28Z</time>
      </trkpt>
      <trkpt lat="45.09431" lon="3.49993">
        <ele>503.6</ele>
        <time>2021-08-06T15:42:30Z</time>
      </trkpt>
      <trkpt lat="45.09424" lon="3.50004">
        <ele>503.3</ele>
        <time>2021-08-06T15:42:32Z</time>
      </trkpt>
      <trkpt lat="45.09418" lon="3.50015">
        <ele>503.4</ele>
        <time>2021-08-06T15:42:34Z</time>
      </trkpt>
      <trkpt lat="45.09411" lon="3.50025">
        <ele>503.7</ele>
        <time>2021-08-06T15:42:36Z</time>
      </trkpt>
      <trkpt lat="45.09404" lon="3.50036">
        <ele>503.9</ele>
        <time>2021-08-06T15:42:38Z</time>
      </trkpt>
      <trkpt lat="45.09398" lon="3.50047">
        <ele>504.1</ele>
        <time>2021-08-06T15:42:40Z</time>
      </trkpt>
      <trkpt lat="45.09391" lon="3.50057">
        <ele>504.4</ele>
        <time>2021-08-06T15:42:42Z</time>
      </trkpt>
      <trkpt lat="45.09385" lon="3.50068">
        <ele>504.6</ele>
        <time>2021-08-06T15:42:44Z</time>
      </trkpt>
      <trkpt lat="45.09378" lon="3.50078">
        <ele>504.9</ele>
        <time>2021-08-06T15:42:46Z</time>
      </trkpt>
      <trkpt lat="45.09371" lon="3.50088">
        <ele>505.2</ele>
        <time>2021-08-06T15:42:48Z</time>
      </trkpt>
      <trkpt lat="45.09365" lon="3.50098">
        <ele>505.5</ele>
        <time>2021-08-06T15:42:50Z</time>
      </trkpt>
      <trkpt lat="45.09359" lon="3.50108">
        <ele>505.8</ele>
        <time>2021-08-06T15:42:52Z</time>
      </trkpt>
      <trkpt lat="45.09353" lon="3.50118">
        <ele>506.1</ele>
        <time>2021-08-06T15:42:54Z</time>
      </trkpt>
      <trkpt lat="45.09347" lon="3.50128">
        <ele>506.3</ele>
        <time>2021-08-06T15:42:56Z</time>
      </trkpt>
      <trkpt lat="45.09343" lon="3.50139">
        <ele>506.2</ele>
        <time>2021-08-06T15:42:58Z</time>
      </trkpt>
      <trkpt lat="45.09341" lon="3.50152">
        <ele>505.9</ele>
        <time>2021-08-06T15:43:00Z</time>
      </trkpt>
      <trkpt lat="45.0934" lon="3.50165">
        <ele>505.5</ele>
        <time>2021-08-06T15:43:02Z</time>
      </trkpt>
      <trkpt lat="45.09339" lon="3.50179">
        <ele>505.3</ele>
        <time>2021-08-06T15:43:04Z</time>
      </trkpt>
      <trkpt lat="45.09338" lon="3.50193">
        <ele>505</ele>
        <time>2021-08-06T15:43:06Z</time>
      </trkpt>
      <trkpt lat="45.09337" lon="3.50206">
        <ele>504.8</ele>
        <time>2021-08-06T15:43:08Z</time>
      </trkpt>
      <trkpt lat="45.09336" lon="3.5022">
        <ele>504.5</ele>
        <time>2021-08-06T15:43:10Z</time>
      </trkpt>
      <trkpt lat="45.09335" lon="3.50233">
        <ele>504.3</ele>
        <time>2021-08-06T15:43:12Z</time>
      </trkpt>
      <trkpt lat="45.09333" lon="3.50246">
        <ele>504.1</ele>
        <time>2021-08-06T15:43:14Z</time>
      </trkpt>
      <trkpt lat="45.09332" lon="3.50259">
        <ele>503.7</ele>
        <time>2021-08-06T15:43:16Z</time>
      </trkpt>
      <trkpt lat="45.09331" lon="3.50273">
        <ele>503.3</ele>
        <time>2021-08-06T15:43:18Z</time>
      </trkpt>
      <trkpt lat="45.09329" lon="3.50287">
        <ele>503</ele>
        <time>2021-08-06T15:43:20Z</time>
      </trkpt>
      <trkpt lat="45.09326" lon="3.50301">
        <ele>502.7</ele>
        <time>2021-08-06T15:43:22Z</time>
      </trkpt>
      <trkpt lat="45.09325" lon="3.50315">
        <ele>502.3</ele>
        <time>2021-08-06T15:43:24Z</time>
      </trkpt>
      <trkpt lat="45.09323" lon="3.5033">
        <ele>502</ele>
        <time>2021-08-06T15:43:26Z</time>
      </trkpt>
      <trkpt lat="45.09321" lon="3.50344">
        <ele>501.7</ele>
        <time>2021-08-06T15:43:28Z</time>
      </trkpt>
      <trkpt lat="45.09318" lon="3.50357">
        <ele>501.7</ele>
        <time>2021-08-06T15:43:30Z</time>
      </trkpt>
      <trkpt lat="45.09314" lon="3.5037">
        <ele>501.9</ele>
        <time>2021-08-06T15:43:32Z</time>
      </trkpt>
      <trkpt lat="45.09309" lon="3.50383">
        <ele>502.1</ele>
        <time>2021-08-06T15:43:34Z</time>
      </trkpt>
      <trkpt lat="45.09303" lon="3.50395">
        <ele>502.3</ele>
        <time>2021-08-06T15:43:36Z</time>
      </trkpt>
      <trkpt lat="45.09295" lon="3.50406">
        <ele>502.6</ele>
        <time>2021-08-06T15:43:38Z</time>
      </trkpt>
      <trkpt lat="45.09287" lon="3.50416">
        <ele>503</ele>
        <time>2021-08-06T15:43:40Z</time>
      </trkpt>
      <trkpt lat="45.09279" lon="3.50425">
        <ele>503.6</ele>
        <time>2021-08-06T15:43:42Z</time>
      </trkpt>
      <trkpt lat="45.0927" lon="3.50431">
        <ele>504.3</ele>
        <time>2021-08-06T15:43:44Z</time>
      </trkpt>
      <trkpt lat="45.0926" lon="3.50438">
        <ele>505</ele>
        <time>2021-08-06T15:43:46Z</time>
      </trkpt>
      <trkpt lat="45.0925" lon="3.50444">
        <ele>505.6</ele>
        <time>2021-08-06T15:43:48Z</time>
      </trkpt>
      <trkpt lat="45.09241" lon="3.50451">
        <ele>505.6</ele>
        <time>2021-08-06T15:43:50Z</time>
      </trkpt>
      <trkpt lat="45.09231" lon="3.50461">
        <ele>505.4</ele>
        <time>2021-08-06T15:43:52Z</time>
      </trkpt>
      <trkpt lat="45.09222" lon="3.50465">
        <ele>505.5</ele>
        <time>2021-08-06T15:43:54Z</time>
      </trkpt>
      <trkpt lat="45.09211" lon="3.50471">
        <ele>505.5</ele>
        <time>2021-08-06T15:43:56Z</time>
      </trkpt>
      <trkpt lat="45.09201" lon="3.50477">
        <ele>505.4</ele>
        <time>2021-08-06T15:43:58Z</time>
      </trkpt>
      <trkpt lat="45.09191" lon="3.50484">
        <ele>505.3</ele>
        <time>2021-08-06T15:44:00Z</time>
      </trkpt>
      <trkpt lat="45.09181" lon="3.5049">
        <ele>505.2</ele>
        <time>2021-08-06T15:44:02Z</time>
      </trkpt>
      <trkpt lat="45.09171" lon="3.50497">
        <ele>505.1</ele>
        <time>2021-08-06T15:44:04Z</time>
      </trkpt>
      <trkpt lat="45.09162" lon="3.50503">
        <ele>505.3</ele>
        <time>2021-08-06T15:44:06Z</time>
      </trkpt>
      <trkpt lat="45.09152" lon="3.50509">
        <ele>505.8</ele>
        <time>2021-08-06T15:44:08Z</time>
      </trkpt>
      <trkpt lat="45.09143" lon="3.50515">
        <ele>506.2</ele>
        <time>2021-08-06T15:44:10Z</time>
      </trkpt>
      <trkpt lat="45.09134" lon="3.5052">
        <ele>506.7</ele>
        <time>2021-08-06T15:44:12Z</time>
      </trkpt>
      <trkpt lat="45.09126" lon="3.50525">
        <ele>507.1</ele>
        <time>2021-08-06T15:44:14Z</time>
      </trkpt>
      <trkpt lat="45.09118" lon="3.5053">
        <ele>507.6</ele>
        <time>2021-08-06T15:44:16Z</time>
      </trkpt>
      <trkpt lat="45.0911" lon="3.50535">
        <ele>508.1</ele>
        <time>2021-08-06T15:44:18Z</time>
      </trkpt>
      <trkpt lat="45.09102" lon="3.50541">
        <ele>508.6</ele>
        <time>2021-08-06T15:44:20Z</time>
      </trkpt>
      <trkpt lat="45.09095" lon="3.50545">
        <ele>509</ele>
        <time>2021-08-06T15:44:22Z</time>
      </trkpt>
      <trkpt lat="45.09088" lon="3.50549">
        <ele>509.4</ele>
        <time>2021-08-06T15:44:24Z</time>
      </trkpt>
      <trkpt lat="45.09081" lon="3.50553">
        <ele>509.9</ele>
        <time>2021-08-06T15:44:26Z</time>
      </trkpt>
      <trkpt lat="45.09075" lon="3.50557">
        <ele>510.2</ele>
        <time>2021-08-06T15:44:28Z</time>
      </trkpt>
      <trkpt lat="45.0907" lon="3.5056">
        <ele>510.5</ele>
        <time>2021-08-06T15:44:30Z</time>
      </trkpt>
      <trkpt lat="45.09064" lon="3.50563">
        <ele>510.9</ele>
        <time>2021-08-06T15:44:32Z</time>
      </trkpt>
      <trkpt lat="45.09059" lon="3.50567">
        <ele>511.2</ele>
        <time>2021-08-06T15:44:34Z</time>
      </trkpt>
      <trkpt lat="45.09054" lon="3.5057">
        <ele>511.6</ele>
        <time>2021-08-06T15:44:36Z</time>
      </trkpt>
      <trkpt lat="45.09049" lon="3.50573">
        <ele>511.9</ele>
        <time>2021-08-06T15:44:38Z</time>
      </trkpt>
      <trkpt lat="45.09045" lon="3.50576">
        <ele>512.2</ele>
        <time>2021-08-06T15:44:40Z</time>
      </trkpt>
      <trkpt lat="45.09041" lon="3.50579">
        <ele>512.6</ele>
        <time>2021-08-06T15:44:42Z</time>
      </trkpt>
      <trkpt lat="45.09036" lon="3.50582">
        <ele>513</ele>
        <time>2021-08-06T15:44:44Z</time>
      </trkpt>
      <trkpt lat="45.09032" lon="3.50584">
        <ele>513.3</ele>
        <time>2021-08-06T15:44:46Z</time>
      </trkpt>
      <trkpt lat="45.09027" lon="3.50587">
        <ele>513.7</ele>
        <time>2021-08-06T15:44:48Z</time>
      </trkpt>
      <trkpt lat="45.09023" lon="3.5059">
        <ele>514.2</ele>
        <time>2021-08-06T15:44:50Z</time>
      </trkpt>
      <trkpt lat="45.09019" lon="3.50593">
        <ele>514.6</ele>
        <time>2021-08-06T15:44:52Z</time>
      </trkpt>
      <trkpt lat="45.09015" lon="3.50596">
        <ele>515</ele>
        <time>2021-08-06T15:44:54Z</time>
      </trkpt>
      <trkpt lat="45.09011" lon="3.50598">
        <ele>515.4</ele>
        <time>2021-08-06T15:44:56Z</time>
      </trkpt>
      <trkpt lat="45.09006" lon="3.50601">
        <ele>515.7</ele>
        <time>2021-08-06T15:44:58Z</time>
      </trkpt>
      <trkpt lat="45.09003" lon="3.50603">
        <ele>516.1</ele>
        <time>2021-08-06T15:45:00Z</time>
      </trkpt>
      <trkpt lat="45.08999" lon="3.50606">
        <ele>516.4</ele>
        <time>2021-08-06T15:45:02Z</time>
      </trkpt>
      <trkpt lat="45.08995" lon="3.50608">
        <ele>516.7</ele>
        <time>2021-08-06T15:45:04Z</time>
      </trkpt>
      <trkpt lat="45.08991" lon="3.5061">
        <ele>516.9</ele>
        <time>2021-08-06T15:45:06Z</time>
      </trkpt>
      <trkpt lat="45.08987" lon="3.50613">
        <ele>517.2</ele>
        <time>2021-08-06T15:45:08Z</time>
      </trkpt>
      <trkpt lat="45.08983" lon="3.50616">
        <ele>517.5</ele>
        <time>2021-08-06T15:45:10Z</time>
      </trkpt>
      <trkpt lat="45.08979" lon="3.50618">
        <ele>517.7</ele>
        <time>2021-08-06T15:45:12Z</time>
      </trkpt>
      <trkpt lat="45.08976" lon="3.50621">
        <ele>517.9</ele>
        <time>2021-08-06T15:45:14Z</time>
      </trkpt>
      <trkpt lat="45.08972" lon="3.50622">
        <ele>518.1</ele>
        <time>2021-08-06T15:45:16Z</time>
      </trkpt>
      <trkpt lat="45.08968" lon="3.50625">
        <ele>518.3</ele>
        <time>2021-08-06T15:45:18Z</time>
      </trkpt>
      <trkpt lat="45.08963" lon="3.50627">
        <ele>518.5</ele>
        <time>2021-08-06T15:45:20Z</time>
      </trkpt>
      <trkpt lat="45.08959" lon="3.5063">
        <ele>518.7</ele>
        <time>2021-08-06T15:45:22Z</time>
      </trkpt>
      <trkpt lat="45.08955" lon="3.50633">
        <ele>518.9</ele>
        <time>2021-08-06T15:45:24Z</time>
      </trkpt>
      <trkpt lat="45.0895" lon="3.50636">
        <ele>519.1</ele>
        <time>2021-08-06T15:45:26Z</time>
      </trkpt>
      <trkpt lat="45.08946" lon="3.50639">
        <ele>519.3</ele>
        <time>2021-08-06T15:45:28Z</time>
      </trkpt>
      <trkpt lat="45.08942" lon="3.50641">
        <ele>519.5</ele>
        <time>2021-08-06T15:45:30Z</time>
      </trkpt>
      <trkpt lat="45.08938" lon="3.50644">
        <ele>519.7</ele>
        <time>2021-08-06T15:45:32Z</time>
      </trkpt>
      <trkpt lat="45.08934" lon="3.50647">
        <ele>519.8</ele>
        <time>2021-08-06T15:45:34Z</time>
      </trkpt>
      <trkpt lat="45.0893" lon="3.5065">
        <ele>520.1</ele>
        <time>2021-08-06T15:45:36Z</time>
      </trkpt>
      <trkpt lat="45.08926" lon="3.50654">
        <ele>520.3</ele>
        <time>2021-08-06T15:45:38Z</time>
      </trkpt>
      <trkpt lat="45.08922" lon="3.50658">
        <ele>520.5</ele>
        <time>2021-08-06T15:45:40Z</time>
      </trkpt>
      <trkpt lat="45.08918" lon="3.50662">
        <ele>520.7</ele>
        <time>2021-08-06T15:45:42Z</time>
      </trkpt>
      <trkpt lat="45.08914" lon="3.50666">
        <ele>520.8</ele>
        <time>2021-08-06T15:45:44Z</time>
      </trkpt>
      <trkpt lat="45.0891" lon="3.5067">
        <ele>520.9</ele>
        <time>2021-08-06T15:45:46Z</time>
      </trkpt>
      <trkpt lat="45.08907" lon="3.50674">
        <ele>521</ele>
        <time>2021-08-06T15:45:48Z</time>
      </trkpt>
      <trkpt lat="45.08903" lon="3.50678">
        <ele>521.1</ele>
        <time>2021-08-06T15:45:50Z</time>
      </trkpt>
      <trkpt lat="45.08899" lon="3.50682">
        <ele>521.2</ele>
        <time>2021-08-06T15:45:52Z</time>
      </trkpt>
      <trkpt lat="45.08896" lon="3.50686">
        <ele>521.3</ele>
        <time>2021-08-06T15:45:54Z</time>
      </trkpt>
      <trkpt lat="45.08892" lon="3.5069">
        <ele>521.4</ele>
        <time>2021-08-06T15:45:56Z</time>
      </trkpt>
      <trkpt lat="45.08889" lon="3.50695">
        <ele>521.6</ele>
        <time>2021-08-06T15:45:58Z</time>
      </trkpt>
      <trkpt lat="45.08886" lon="3.50699">
        <ele>521.7</ele>
        <time>2021-08-06T15:46:00Z</time>
      </trkpt>
      <trkpt lat="45.08882" lon="3.50703">
        <ele>521.8</ele>
        <time>2021-08-06T15:46:02Z</time>
      </trkpt>
      <trkpt lat="45.08879" lon="3.50707">
        <ele>522</ele>
        <time>2021-08-06T15:46:04Z</time>
      </trkpt>
      <trkpt lat="45.08875" lon="3.50712">
        <ele>522.2</ele>
        <time>2021-08-06T15:46:06Z</time>
      </trkpt>
      <trkpt lat="45.08872" lon="3.50716">
        <ele>522.4</ele>
        <time>2021-08-06T15:46:08Z</time>
      </trkpt>
      <trkpt lat="45.08869" lon="3.50721">
        <ele>522.6</ele>
        <time>2021-08-06T15:46:10Z</time>
      </trkpt>
      <trkpt lat="45.08865" lon="3.50725">
        <ele>522.8</ele>
        <time>2021-08-06T15:46:12Z</time>
      </trkpt>
      <trkpt lat="45.08862" lon="3.5073">
        <ele>523.1</ele>
        <time>2021-08-06T15:46:14Z</time>
      </trkpt>
      <trkpt lat="45.08859" lon="3.50735">
        <ele>523.3</ele>
        <time>2021-08-06T15:46:16Z</time>
      </trkpt>
      <trkpt lat="45.08856" lon="3.5074">
        <ele>523.6</ele>
        <time>2021-08-06T15:46:18Z</time>
      </trkpt>
      <trkpt lat="45.08853" lon="3.50744">
        <ele>523.9</ele>
        <time>2021-08-06T15:46:20Z</time>
      </trkpt>
      <trkpt lat="45.08851" lon="3.50749">
        <ele>524.1</ele>
        <time>2021-08-06T15:46:22Z</time>
      </trkpt>
      <trkpt lat="45.08848" lon="3.50754">
        <ele>524.3</ele>
        <time>2021-08-06T15:46:24Z</time>
      </trkpt>
      <trkpt lat="45.08845" lon="3.50759">
        <ele>524.3</ele>
        <time>2021-08-06T15:46:26Z</time>
      </trkpt>
      <trkpt lat="45.08843" lon="3.50763">
        <ele>524.4</ele>
        <time>2021-08-06T15:46:28Z</time>
      </trkpt>
      <trkpt lat="45.08839" lon="3.50768">
        <ele>524.5</ele>
        <time>2021-08-06T15:46:30Z</time>
      </trkpt>
      <trkpt lat="45.08837" lon="3.50774">
        <ele>524.6</ele>
        <time>2021-08-06T15:46:32Z</time>
      </trkpt>
      <trkpt lat="45.08833" lon="3.50778">
        <ele>524.7</ele>
        <time>2021-08-06T15:46:34Z</time>
      </trkpt>
      <trkpt lat="45.0883" lon="3.50784">
        <ele>524.8</ele>
        <time>2021-08-06T15:46:36Z</time>
      </trkpt>
      <trkpt lat="45.08827" lon="3.50789">
        <ele>524.9</ele>
        <time>2021-08-06T15:46:38Z</time>
      </trkpt>
      <trkpt lat="45.08824" lon="3.50793">
        <ele>525</ele>
        <time>2021-08-06T15:46:40Z</time>
      </trkpt>
      <trkpt lat="45.08822" lon="3.50798">
        <ele>525.2</ele>
        <time>2021-08-06T15:46:42Z</time>
      </trkpt>
      <trkpt lat="45.08818" lon="3.50803">
        <ele>525.3</ele>
        <time>2021-08-06T15:46:44Z</time>
      </trkpt>
      <trkpt lat="45.08815" lon="3.50809">
        <ele>525.4</ele>
        <time>2021-08-06T15:46:46Z</time>
      </trkpt>
      <trkpt lat="45.08812" lon="3.50814">
        <ele>525.5</ele>
        <time>2021-08-06T15:46:48Z</time>
      </trkpt>
      <trkpt lat="45.08809" lon="3.50819">
        <ele>525.7</ele>
        <time>2021-08-06T15:46:50Z</time>
      </trkpt>
      <trkpt lat="45.08805" lon="3.50825">
        <ele>525.8</ele>
        <time>2021-08-06T15:46:52Z</time>
      </trkpt>
      <trkpt lat="45.08802" lon="3.50831">
        <ele>525.9</ele>
        <time>2021-08-06T15:46:54Z</time>
      </trkpt>
      <trkpt lat="45.08798" lon="3.50837">
        <ele>526.1</ele>
        <time>2021-08-06T15:46:56Z</time>
      </trkpt>
      <trkpt lat="45.08795" lon="3.50843">
        <ele>526.2</ele>
        <time>2021-08-06T15:46:58Z</time>
      </trkpt>
      <trkpt lat="45.08791" lon="3.5085">
        <ele>526.3</ele>
        <time>2021-08-06T15:47:00Z</time>
      </trkpt>
      <trkpt lat="45.08787" lon="3.50856">
        <ele>526.4</ele>
        <time>2021-08-06T15:47:02Z</time>
      </trkpt>
      <trkpt lat="45.08784" lon="3.50863">
        <ele>526.6</ele>
        <time>2021-08-06T15:47:04Z</time>
      </trkpt>
      <trkpt lat="45.0878" lon="3.50869">
        <ele>526.7</ele>
        <time>2021-08-06T15:47:06Z</time>
      </trkpt>
      <trkpt lat="45.08777" lon="3.50876">
        <ele>526.9</ele>
        <time>2021-08-06T15:47:08Z</time>
      </trkpt>
      <trkpt lat="45.08773" lon="3.50883">
        <ele>527</ele>
        <time>2021-08-06T15:47:10Z</time>
      </trkpt>
      <trkpt lat="45.0877" lon="3.50889">
        <ele>527.2</ele>
        <time>2021-08-06T15:47:12Z</time>
      </trkpt>
      <trkpt lat="45.08766" lon="3.50895">
        <ele>527.3</ele>
        <time>2021-08-06T15:47:14Z</time>
      </trkpt>
      <trkpt lat="45.08762" lon="3.50901">
        <ele>527.5</ele>
        <time>2021-08-06T15:47:16Z</time>
      </trkpt>
      <trkpt lat="45.08759" lon="3.50908">
        <ele>527.7</ele>
        <time>2021-08-06T15:47:18Z</time>
      </trkpt>
      <trkpt lat="45.08755" lon="3.50914">
        <ele>527.9</ele>
        <time>2021-08-06T15:47:20Z</time>
      </trkpt>
      <trkpt lat="45.08752" lon="3.5092">
        <ele>528</ele>
        <time>2021-08-06T15:47:22Z</time>
      </trkpt>
      <trkpt lat="45.08749" lon="3.50927">
        <ele>528.1</ele>
        <time>2021-08-06T15:47:24Z</time>
      </trkpt>
      <trkpt lat="45.08745" lon="3.50933">
        <ele>528.3</ele>
        <time>2021-08-06T15:47:26Z</time>
      </trkpt>
      <trkpt lat="45.08741" lon="3.5094">
        <ele>528.5</ele>
        <time>2021-08-06T15:47:28Z</time>
      </trkpt>
      <trkpt lat="45.08737" lon="3.50947">
        <ele>528.7</ele>
        <time>2021-08-06T15:47:30Z</time>
      </trkpt>
      <trkpt lat="45.08733" lon="3.50954">
        <ele>528.9</ele>
        <time>2021-08-06T15:47:32Z</time>
      </trkpt>
      <trkpt lat="45.08729" lon="3.50961">
        <ele>529.2</ele>
        <time>2021-08-06T15:47:34Z</time>
      </trkpt>
      <trkpt lat="45.08725" lon="3.50969">
        <ele>529.5</ele>
        <time>2021-08-06T15:47:36Z</time>
      </trkpt>
      <trkpt lat="45.0872" lon="3.50976">
        <ele>529.8</ele>
        <time>2021-08-06T15:47:38Z</time>
      </trkpt>
      <trkpt lat="45.08716" lon="3.50983">
        <ele>530.2</ele>
        <time>2021-08-06T15:47:40Z</time>
      </trkpt>
      <trkpt lat="45.08712" lon="3.5099">
        <ele>530.5</ele>
        <time>2021-08-06T15:47:42Z</time>
      </trkpt>
      <trkpt lat="45.08708" lon="3.50997">
        <ele>530.9</ele>
        <time>2021-08-06T15:47:44Z</time>
      </trkpt>
      <trkpt lat="45.08705" lon="3.51004">
        <ele>531.2</ele>
        <time>2021-08-06T15:47:46Z</time>
      </trkpt>
      <trkpt lat="45.08701" lon="3.51011">
        <ele>531.3</ele>
        <time>2021-08-06T15:47:48Z</time>
      </trkpt>
      <trkpt lat="45.08697" lon="3.51017">
        <ele>531.5</ele>
        <time>2021-08-06T15:47:50Z</time>
      </trkpt>
      <trkpt lat="45.08693" lon="3.51023">
        <ele>531.7</ele>
        <time>2021-08-06T15:47:52Z</time>
      </trkpt>
      <trkpt lat="45.0869" lon="3.5103">
        <ele>531.9</ele>
        <time>2021-08-06T15:47:54Z</time>
      </trkpt>
      <trkpt lat="45.08686" lon="3.51036">
        <ele>532.1</ele>
        <time>2021-08-06T15:47:56Z</time>
      </trkpt>
      <trkpt lat="45.08683" lon="3.51042">
        <ele>532.2</ele>
        <time>2021-08-06T15:47:58Z</time>
      </trkpt>
      <trkpt lat="45.08679" lon="3.51048">
        <ele>532.4</ele>
        <time>2021-08-06T15:48:00Z</time>
      </trkpt>
      <trkpt lat="45.08676" lon="3.51054">
        <ele>532.6</ele>
        <time>2021-08-06T15:48:02Z</time>
      </trkpt>
      <trkpt lat="45.08672" lon="3.51061">
        <ele>532.7</ele>
        <time>2021-08-06T15:48:04Z</time>
      </trkpt>
      <trkpt lat="45.08668" lon="3.51067">
        <ele>532.9</ele>
        <time>2021-08-06T15:48:06Z</time>
      </trkpt>
      <trkpt lat="45.08664" lon="3.51074">
        <ele>533.1</ele>
        <time>2021-08-06T15:48:08Z</time>
      </trkpt>
      <trkpt lat="45.08661" lon="3.51081">
        <ele>533.1</ele>
        <time>2021-08-06T15:48:10Z</time>
      </trkpt>
      <trkpt lat="45.08657" lon="3.51088">
        <ele>533.1</ele>
        <time>2021-08-06T15:48:12Z</time>
      </trkpt>
      <trkpt lat="45.08653" lon="3.51095">
        <ele>533.1</ele>
        <time>2021-08-06T15:48:14Z</time>
      </trkpt>
      <trkpt lat="45.08649" lon="3.51102">
        <ele>533</ele>
        <time>2021-08-06T15:48:16Z</time>
      </trkpt>
      <trkpt lat="45.08645" lon="3.51109">
        <ele>533</ele>
        <time>2021-08-06T15:48:18Z</time>
      </trkpt>
      <trkpt lat="45.08641" lon="3.51116">
        <ele>533</ele>
        <time>2021-08-06T15:48:20Z</time>
      </trkpt>
      <trkpt lat="45.08637" lon="3.51123">
        <ele>533</ele>
        <time>2021-08-06T15:48:22Z</time>
      </trkpt>
      <trkpt lat="45.08633" lon="3.5113">
        <ele>532.9</ele>
        <time>2021-08-06T15:48:24Z</time>
      </trkpt>
      <trkpt lat="45.08628" lon="3.51137">
        <ele>532.9</ele>
        <time>2021-08-06T15:48:26Z</time>
      </trkpt>
      <trkpt lat="45.08624" lon="3.51145">
        <ele>532.9</ele>
        <time>2021-08-06T15:48:28Z</time>
      </trkpt>
      <trkpt lat="45.0862" lon="3.51152">
        <ele>532.9</ele>
        <time>2021-08-06T15:48:30Z</time>
      </trkpt>
      <trkpt lat="45.08616" lon="3.51159">
        <ele>532.9</ele>
        <time>2021-08-06T15:48:32Z</time>
      </trkpt>
      <trkpt lat="45.08612" lon="3.51167">
        <ele>533</ele>
        <time>2021-08-06T15:48:34Z</time>
      </trkpt>
      <trkpt lat="45.08608" lon="3.51174">
        <ele>533.1</ele>
        <time>2021-08-06T15:48:36Z</time>
      </trkpt>
      <trkpt lat="45.08603" lon="3.51182">
        <ele>533.3</ele>
        <time>2021-08-06T15:48:38Z</time>
      </trkpt>
      <trkpt lat="45.08599" lon="3.5119">
        <ele>533.5</ele>
        <time>2021-08-06T15:48:40Z</time>
      </trkpt>
      <trkpt lat="45.08595" lon="3.51198">
        <ele>533.6</ele>
        <time>2021-08-06T15:48:42Z</time>
      </trkpt>
      <trkpt lat="45.0859" lon="3.51206">
        <ele>533.8</ele>
        <time>2021-08-06T15:48:44Z</time>
      </trkpt>
      <trkpt lat="45.08586" lon="3.51214">
        <ele>533.9</ele>
        <time>2021-08-06T15:48:46Z</time>
      </trkpt>
      <trkpt lat="45.08581" lon="3.51223">
        <ele>534.1</ele>
        <time>2021-08-06T15:48:48Z</time>
      </trkpt>
      <trkpt lat="45.08576" lon="3.51231">
        <ele>534.2</ele>
        <time>2021-08-06T15:48:50Z</time>
      </trkpt>
      <trkpt lat="45.08571" lon="3.51241">
        <ele>534.3</ele>
        <time>2021-08-06T15:48:52Z</time>
      </trkpt>
      <trkpt lat="45.08566" lon="3.51249">
        <ele>534.4</ele>
        <time>2021-08-06T15:48:54Z</time>
      </trkpt>
      <trkpt lat="45.08561" lon="3.51258">
        <ele>534.6</ele>
        <time>2021-08-06T15:48:56Z</time>
      </trkpt>
      <trkpt lat="45.08556" lon="3.51269">
        <ele>534.7</ele>
        <time>2021-08-06T15:48:58Z</time>
      </trkpt>
      <trkpt lat="45.0855" lon="3.51278">
        <ele>534.9</ele>
        <time>2021-08-06T15:49:00Z</time>
      </trkpt>
      <trkpt lat="45.08545" lon="3.51288">
        <ele>535</ele>
        <time>2021-08-06T15:49:02Z</time>
      </trkpt>
      <trkpt lat="45.0854" lon="3.51298">
        <ele>535</ele>
        <time>2021-08-06T15:49:04Z</time>
      </trkpt>
      <trkpt lat="45.08535" lon="3.51307">
        <ele>535.1</ele>
        <time>2021-08-06T15:49:06Z</time>
      </trkpt>
      <trkpt lat="45.08529" lon="3.51316">
        <ele>535.1</ele>
        <time>2021-08-06T15:49:08Z</time>
      </trkpt>
      <trkpt lat="45.08524" lon="3.51325">
        <ele>535</ele>
        <time>2021-08-06T15:49:10Z</time>
      </trkpt>
      <trkpt lat="45.08519" lon="3.51334">
        <ele>535</ele>
        <time>2021-08-06T15:49:12Z</time>
      </trkpt>
      <trkpt lat="45.08514" lon="3.51343">
        <ele>535.1</ele>
        <time>2021-08-06T15:49:14Z</time>
      </trkpt>
      <trkpt lat="45.08509" lon="3.51352">
        <ele>535.2</ele>
        <time>2021-08-06T15:49:16Z</time>
      </trkpt>
      <trkpt lat="45.08505" lon="3.5136">
        <ele>535.3</ele>
        <time>2021-08-06T15:49:18Z</time>
      </trkpt>
      <trkpt lat="45.085" lon="3.51368">
        <ele>535.4</ele>
        <time>2021-08-06T15:49:20Z</time>
      </trkpt>
      <trkpt lat="45.08495" lon="3.51377">
        <ele>535.5</ele>
        <time>2021-08-06T15:49:22Z</time>
      </trkpt>
      <trkpt lat="45.08491" lon="3.51385">
        <ele>535.7</ele>
        <time>2021-08-06T15:49:24Z</time>
      </trkpt>
      <trkpt lat="45.08487" lon="3.51393">
        <ele>535.8</ele>
        <time>2021-08-06T15:49:26Z</time>
      </trkpt>
      <trkpt lat="45.08482" lon="3.51402">
        <ele>535.9</ele>
        <time>2021-08-06T15:49:28Z</time>
      </trkpt>
      <trkpt lat="45.08478" lon="3.5141">
        <ele>535.9</ele>
        <time>2021-08-06T15:49:30Z</time>
      </trkpt>
      <trkpt lat="45.08473" lon="3.51418">
        <ele>536</ele>
        <time>2021-08-06T15:49:32Z</time>
      </trkpt>
      <trkpt lat="45.08469" lon="3.51426">
        <ele>536</ele>
        <time>2021-08-06T15:49:34Z</time>
      </trkpt>
      <trkpt lat="45.08465" lon="3.51433">
        <ele>536.1</ele>
        <time>2021-08-06T15:49:36Z</time>
      </trkpt>
      <trkpt lat="45.08461" lon="3.5144">
        <ele>536.1</ele>
        <time>2021-08-06T15:49:38Z</time>
      </trkpt>
      <trkpt lat="45.08456" lon="3.51447">
        <ele>536.2</ele>
        <time>2021-08-06T15:49:40Z</time>
      </trkpt>
      <trkpt lat="45.08453" lon="3.51454">
        <ele>536.3</ele>
        <time>2021-08-06T15:49:42Z</time>
      </trkpt>
      <trkpt lat="45.08448" lon="3.51461">
        <ele>536.5</ele>
        <time>2021-08-06T15:49:44Z</time>
      </trkpt>
      <trkpt lat="45.08444" lon="3.51469">
        <ele>536.6</ele>
        <time>2021-08-06T15:49:46Z</time>
      </trkpt>
      <trkpt lat="45.0844" lon="3.51476">
        <ele>536.8</ele>
        <time>2021-08-06T15:49:48Z</time>
      </trkpt>
      <trkpt lat="45.08436" lon="3.51483">
        <ele>537</ele>
        <time>2021-08-06T15:49:50Z</time>
      </trkpt>
      <trkpt lat="45.08432" lon="3.5149">
        <ele>537.3</ele>
        <time>2021-08-06T15:49:52Z</time>
      </trkpt>
      <trkpt lat="45.08428" lon="3.51497">
        <ele>537.5</ele>
        <time>2021-08-06T15:49:54Z</time>
      </trkpt>
      <trkpt lat="45.08424" lon="3.51505">
        <ele>537.9</ele>
        <time>2021-08-06T15:49:56Z</time>
      </trkpt>
      <trkpt lat="45.0842" lon="3.51512">
        <ele>538.3</ele>
        <time>2021-08-06T15:49:58Z</time>
      </trkpt>
      <trkpt lat="45.08416" lon="3.51519">
        <ele>538.7</ele>
        <time>2021-08-06T15:50:00Z</time>
      </trkpt>
      <trkpt lat="45.08412" lon="3.51526">
        <ele>539.1</ele>
        <time>2021-08-06T15:50:02Z</time>
      </trkpt>
      <trkpt lat="45.08408" lon="3.51534">
        <ele>539.5</ele>
        <time>2021-08-06T15:50:04Z</time>
      </trkpt>
      <trkpt lat="45.08403" lon="3.51541">
        <ele>539.9</ele>
        <time>2021-08-06T15:50:06Z</time>
      </trkpt>
      <trkpt lat="45.08399" lon="3.51549">
        <ele>540.3</ele>
        <time>2021-08-06T15:50:08Z</time>
      </trkpt>
      <trkpt lat="45.08394" lon="3.51556">
        <ele>540.6</ele>
        <time>2021-08-06T15:50:10Z</time>
      </trkpt>
      <trkpt lat="45.0839" lon="3.51564">
        <ele>541</ele>
        <time>2021-08-06T15:50:12Z</time>
      </trkpt>
      <trkpt lat="45.08386" lon="3.51571">
        <ele>541.4</ele>
        <time>2021-08-06T15:50:14Z</time>
      </trkpt>
      <trkpt lat="45.08382" lon="3.51579">
        <ele>541.7</ele>
        <time>2021-08-06T15:50:16Z</time>
      </trkpt>
      <trkpt lat="45.08378" lon="3.51586">
        <ele>542</ele>
        <time>2021-08-06T15:50:18Z</time>
      </trkpt>
      <trkpt lat="45.08374" lon="3.51594">
        <ele>542.3</ele>
        <time>2021-08-06T15:50:20Z</time>
      </trkpt>
      <trkpt lat="45.0837" lon="3.516">
        <ele>542.5</ele>
        <time>2021-08-06T15:50:22Z</time>
      </trkpt>
      <trkpt lat="45.08366" lon="3.51608">
        <ele>542.8</ele>
        <time>2021-08-06T15:50:24Z</time>
      </trkpt>
      <trkpt lat="45.08361" lon="3.51615">
        <ele>543</ele>
        <time>2021-08-06T15:50:26Z</time>
      </trkpt>
      <trkpt lat="45.08358" lon="3.51623">
        <ele>543.2</ele>
        <time>2021-08-06T15:50:28Z</time>
      </trkpt>
      <trkpt lat="45.08354" lon="3.5163">
        <ele>543.3</ele>
        <time>2021-08-06T15:50:30Z</time>
      </trkpt>
      <trkpt lat="45.08349" lon="3.51637">
        <ele>543.5</ele>
        <time>2021-08-06T15:50:32Z</time>
      </trkpt>
      <trkpt lat="45.08345" lon="3.51644">
        <ele>543.7</ele>
        <time>2021-08-06T15:50:34Z</time>
      </trkpt>
      <trkpt lat="45.08342" lon="3.51651">
        <ele>543.8</ele>
        <time>2021-08-06T15:50:36Z</time>
      </trkpt>
      <trkpt lat="45.08338" lon="3.51658">
        <ele>543.9</ele>
        <time>2021-08-06T15:50:38Z</time>
      </trkpt>
      <trkpt lat="45.08334" lon="3.51665">
        <ele>544</ele>
        <time>2021-08-06T15:50:40Z</time>
      </trkpt>
      <trkpt lat="45.0833" lon="3.51672">
        <ele>544.2</ele>
        <time>2021-08-06T15:50:42Z</time>
      </trkpt>
      <trkpt lat="45.08326" lon="3.51679">
        <ele>544.4</ele>
        <time>2021-08-06T15:50:44Z</time>
      </trkpt>
      <trkpt lat="45.08323" lon="3.51685">
        <ele>544.6</ele>
        <time>2021-08-06T15:50:46Z</time>
      </trkpt>
      <trkpt lat="45.08319" lon="3.51692">
        <ele>544.9</ele>
        <time>2021-08-06T15:50:48Z</time>
      </trkpt>
      <trkpt lat="45.08315" lon="3.51698">
        <ele>545.1</ele>
        <time>2021-08-06T15:50:50Z</time>
      </trkpt>
      <trkpt lat="45.08312" lon="3.51704">
        <ele>545.3</ele>
        <time>2021-08-06T15:50:52Z</time>
      </trkpt>
      <trkpt lat="45.08308" lon="3.5171">
        <ele>545.6</ele>
        <time>2021-08-06T15:50:54Z</time>
      </trkpt>
      <trkpt lat="45.08304" lon="3.51716">
        <ele>545.8</ele>
        <time>2021-08-06T15:50:56Z</time>
      </trkpt>
      <trkpt lat="45.08301" lon="3.51723">
        <ele>546.1</ele>
        <time>2021-08-06T15:50:58Z</time>
      </trkpt>
      <trkpt lat="45.08297" lon="3.51729">
        <ele>546.4</ele>
        <time>2021-08-06T15:51:00Z</time>
      </trkpt>
      <trkpt lat="45.08293" lon="3.51735">
        <ele>546.7</ele>
        <time>2021-08-06T15:51:02Z</time>
      </trkpt>
      <trkpt lat="45.08289" lon="3.51742">
        <ele>547</ele>
        <time>2021-08-06T15:51:04Z</time>
      </trkpt>
      <trkpt lat="45.08286" lon="3.51748">
        <ele>547.2</ele>
        <time>2021-08-06T15:51:06Z</time>
      </trkpt>
      <trkpt lat="45.08283" lon="3.51754">
        <ele>547.5</ele>
        <time>2021-08-06T15:51:08Z</time>
      </trkpt>
      <trkpt lat="45.08279" lon="3.51761">
        <ele>547.9</ele>
        <time>2021-08-06T15:51:10Z</time>
      </trkpt>
      <trkpt lat="45.08275" lon="3.51767">
        <ele>548.2</ele>
        <time>2021-08-06T15:51:12Z</time>
      </trkpt>
      <trkpt lat="45.08272" lon="3.51774">
        <ele>548.5</ele>
        <time>2021-08-06T15:51:14Z</time>
      </trkpt>
      <trkpt lat="45.08268" lon="3.5178">
        <ele>548.7</ele>
        <time>2021-08-06T15:51:16Z</time>
      </trkpt>
      <trkpt lat="45.08264" lon="3.51786">
        <ele>549</ele>
        <time>2021-08-06T15:51:18Z</time>
      </trkpt>
      <trkpt lat="45.0826" lon="3.51793">
        <ele>549.2</ele>
        <time>2021-08-06T15:51:20Z</time>
      </trkpt>
      <trkpt lat="45.08257" lon="3.518">
        <ele>549.4</ele>
        <time>2021-08-06T15:51:22Z</time>
      </trkpt>
      <trkpt lat="45.08254" lon="3.51805">
        <ele>549.6</ele>
        <time>2021-08-06T15:51:24Z</time>
      </trkpt>
      <trkpt lat="45.08251" lon="3.51811">
        <ele>549.7</ele>
        <time>2021-08-06T15:51:26Z</time>
      </trkpt>
      <trkpt lat="45.08247" lon="3.51817">
        <ele>549.9</ele>
        <time>2021-08-06T15:51:28Z</time>
      </trkpt>
      <trkpt lat="45.08244" lon="3.51823">
        <ele>550.2</ele>
        <time>2021-08-06T15:51:30Z</time>
      </trkpt>
      <trkpt lat="45.0824" lon="3.51829">
        <ele>550.4</ele>
        <time>2021-08-06T15:51:32Z</time>
      </trkpt>
      <trkpt lat="45.08236" lon="3.51836">
        <ele>550.7</ele>
        <time>2021-08-06T15:51:34Z</time>
      </trkpt>
      <trkpt lat="45.08233" lon="3.51842">
        <ele>551</ele>
        <time>2021-08-06T15:51:36Z</time>
      </trkpt>
      <trkpt lat="45.08229" lon="3.51849">
        <ele>551.3</ele>
        <time>2021-08-06T15:51:38Z</time>
      </trkpt>
      <trkpt lat="45.08225" lon="3.51856">
        <ele>551.6</ele>
        <time>2021-08-06T15:51:40Z</time>
      </trkpt>
      <trkpt lat="45.08222" lon="3.51863">
        <ele>552</ele>
        <time>2021-08-06T15:51:42Z</time>
      </trkpt>
      <trkpt lat="45.08218" lon="3.5187">
        <ele>552.3</ele>
        <time>2021-08-06T15:51:44Z</time>
      </trkpt>
      <trkpt lat="45.08214" lon="3.51876">
        <ele>552.6</ele>
        <time>2021-08-06T15:51:46Z</time>
      </trkpt>
      <trkpt lat="45.0821" lon="3.51883">
        <ele>552.8</ele>
        <time>2021-08-06T15:51:48Z</time>
      </trkpt>
      <trkpt lat="45.08207" lon="3.51889">
        <ele>553.1</ele>
        <time>2021-08-06T15:51:50Z</time>
      </trkpt>
      <trkpt lat="45.08203" lon="3.51896">
        <ele>553.3</ele>
        <time>2021-08-06T15:51:52Z</time>
      </trkpt>
      <trkpt lat="45.082" lon="3.51902">
        <ele>553.6</ele>
        <time>2021-08-06T15:51:54Z</time>
      </trkpt>
      <trkpt lat="45.08197" lon="3.51908">
        <ele>553.8</ele>
        <time>2021-08-06T15:51:56Z</time>
      </trkpt>
      <trkpt lat="45.08194" lon="3.51913">
        <ele>554</ele>
        <time>2021-08-06T15:51:58Z</time>
      </trkpt>
      <trkpt lat="45.08191" lon="3.51919">
        <ele>554.2</ele>
        <time>2021-08-06T15:52:00Z</time>
      </trkpt>
      <trkpt lat="45.08188" lon="3.51924">
        <ele>554.5</ele>
        <time>2021-08-06T15:52:02Z</time>
      </trkpt>
      <trkpt lat="45.08185" lon="3.51929">
        <ele>554.8</ele>
        <time>2021-08-06T15:52:04Z</time>
      </trkpt>
      <trkpt lat="45.08183" lon="3.51935">
        <ele>555.1</ele>
        <time>2021-08-06T15:52:06Z</time>
      </trkpt>
      <trkpt lat="45.0818" lon="3.5194">
        <ele>555.4</ele>
        <time>2021-08-06T15:52:08Z</time>
      </trkpt>
      <trkpt lat="45.08177" lon="3.51945">
        <ele>555.7</ele>
        <time>2021-08-06T15:52:10Z</time>
      </trkpt>
      <trkpt lat="45.08174" lon="3.5195">
        <ele>556</ele>
        <time>2021-08-06T15:52:12Z</time>
      </trkpt>
      <trkpt lat="45.08171" lon="3.51955">
        <ele>556.2</ele>
        <time>2021-08-06T15:52:14Z</time>
      </trkpt>
      <trkpt lat="45.08168" lon="3.5196">
        <ele>556.5</ele>
        <time>2021-08-06T15:52:16Z</time>
      </trkpt>
      <trkpt lat="45.08166" lon="3.51965">
        <ele>556.7</ele>
        <time>2021-08-06T15:52:18Z</time>
      </trkpt>
      <trkpt lat="45.08163" lon="3.5197">
        <ele>557</ele>
        <time>2021-08-06T15:52:20Z</time>
      </trkpt>
      <trkpt lat="45.0816" lon="3.51975">
        <ele>557.2</ele>
        <time>2021-08-06T15:52:22Z</time>
      </trkpt>
      <trkpt lat="45.08157" lon="3.51981">
        <ele>557.4</ele>
        <time>2021-08-06T15:52:24Z</time>
      </trkpt>
      <trkpt lat="45.08155" lon="3.51986">
        <ele>557.5</ele>
        <time>2021-08-06T15:52:26Z</time>
      </trkpt>
      <trkpt lat="45.08152" lon="3.51991">
        <ele>557.7</ele>
        <time>2021-08-06T15:52:28Z</time>
      </trkpt>
      <trkpt lat="45.08149" lon="3.51995">
        <ele>557.8</ele>
        <time>2021-08-06T15:52:30Z</time>
      </trkpt>
      <trkpt lat="45.08147" lon="3.52">
        <ele>558</ele>
        <time>2021-08-06T15:52:32Z</time>
      </trkpt>
      <trkpt lat="45.08144" lon="3.52005">
        <ele>558.2</ele>
        <time>2021-08-06T15:52:34Z</time>
      </trkpt>
      <trkpt lat="45.08141" lon="3.5201">
        <ele>558.5</ele>
        <time>2021-08-06T15:52:36Z</time>
      </trkpt>
      <trkpt lat="45.08138" lon="3.52014">
        <ele>558.7</ele>
        <time>2021-08-06T15:52:38Z</time>
      </trkpt>
      <trkpt lat="45.08135" lon="3.5202">
        <ele>558.9</ele>
        <time>2021-08-06T15:52:40Z</time>
      </trkpt>
      <trkpt lat="45.08132" lon="3.52025">
        <ele>559.2</ele>
        <time>2021-08-06T15:52:42Z</time>
      </trkpt>
      <trkpt lat="45.08129" lon="3.5203">
        <ele>559.4</ele>
        <time>2021-08-06T15:52:44Z</time>
      </trkpt>
      <trkpt lat="45.08127" lon="3.52035">
        <ele>559.7</ele>
        <time>2021-08-06T15:52:46Z</time>
      </trkpt>
      <trkpt lat="45.08124" lon="3.5204">
        <ele>559.9</ele>
        <time>2021-08-06T15:52:48Z</time>
      </trkpt>
      <trkpt lat="45.08121" lon="3.52045">
        <ele>560.1</ele>
        <time>2021-08-06T15:52:50Z</time>
      </trkpt>
      <trkpt lat="45.08119" lon="3.52048">
        <ele>560.3</ele>
        <time>2021-08-06T15:52:52Z</time>
      </trkpt>
      <trkpt lat="45.08116" lon="3.52053">
        <ele>560.5</ele>
        <time>2021-08-06T15:52:54Z</time>
      </trkpt>
      <trkpt lat="45.08114" lon="3.52057">
        <ele>560.7</ele>
        <time>2021-08-06T15:52:56Z</time>
      </trkpt>
      <trkpt lat="45.08111" lon="3.52061">
        <ele>560.9</ele>
        <time>2021-08-06T15:52:58Z</time>
      </trkpt>
      <trkpt lat="45.08108" lon="3.52066">
        <ele>561.2</ele>
        <time>2021-08-06T15:53:00Z</time>
      </trkpt>
      <trkpt lat="45.08106" lon="3.52071">
        <ele>561.4</ele>
        <time>2021-08-06T15:53:02Z</time>
      </trkpt>
      <trkpt lat="45.08104" lon="3.52076">
        <ele>561.6</ele>
        <time>2021-08-06T15:53:04Z</time>
      </trkpt>
      <trkpt lat="45.08102" lon="3.52081">
        <ele>561.9</ele>
        <time>2021-08-06T15:53:06Z</time>
      </trkpt>
      <trkpt lat="45.081" lon="3.52085">
        <ele>562.1</ele>
        <time>2021-08-06T15:53:08Z</time>
      </trkpt>
      <trkpt lat="45.08098" lon="3.5209">
        <ele>562.4</ele>
        <time>2021-08-06T15:53:10Z</time>
      </trkpt>
      <trkpt lat="45.08096" lon="3.52095">
        <ele>562.7</ele>
        <time>2021-08-06T15:53:12Z</time>
      </trkpt>
      <trkpt lat="45.08096" lon="3.521">
        <ele>563</ele>
        <time>2021-08-06T15:53:14Z</time>
      </trkpt>
      <trkpt lat="45.08093" lon="3.52105">
        <ele>563.2</ele>
        <time>2021-08-06T15:53:16Z</time>
      </trkpt>
      <trkpt lat="45.08092" lon="3.5211">
        <ele>563.5</ele>
        <time>2021-08-06T15:53:18Z</time>
      </trkpt>
      <trkpt lat="45.08091" lon="3.52115">
        <ele>563.8</ele>
        <time>2021-08-06T15:53:20Z</time>
      </trkpt>
      <trkpt lat="45.0809" lon="3.5212">
        <ele>564.1</ele>
        <time>2021-08-06T15:53:22Z</time>
      </trkpt>
      <trkpt lat="45.08091" lon="3.52126">
        <ele>564.4</ele>
        <time>2021-08-06T15:53:24Z</time>
      </trkpt>
      <trkpt lat="45.0809" lon="3.52131">
        <ele>564.8</ele>
        <time>2021-08-06T15:53:26Z</time>
      </trkpt>
      <trkpt lat="45.08089" lon="3.52136">
        <ele>565.1</ele>
        <time>2021-08-06T15:53:28Z</time>
      </trkpt>
      <trkpt lat="45.08089" lon="3.52142">
        <ele>565.4</ele>
        <time>2021-08-06T15:53:30Z</time>
      </trkpt>
      <trkpt lat="45.08089" lon="3.52147">
        <ele>565.7</ele>
        <time>2021-08-06T15:53:32Z</time>
      </trkpt>
      <trkpt lat="45.08089" lon="3.52153">
        <ele>566.1</ele>
        <time>2021-08-06T15:53:34Z</time>
      </trkpt>
      <trkpt lat="45.08088" lon="3.52159">
        <ele>566.4</ele>
        <time>2021-08-06T15:53:36Z</time>
      </trkpt>
      <trkpt lat="45.08088" lon="3.52165">
        <ele>566.8</ele>
        <time>2021-08-06T15:53:38Z</time>
      </trkpt>
      <trkpt lat="45.08088" lon="3.5217">
        <ele>567</ele>
        <time>2021-08-06T15:53:40Z</time>
      </trkpt>
      <trkpt lat="45.08088" lon="3.52175">
        <ele>567.1</ele>
        <time>2021-08-06T15:53:42Z</time>
      </trkpt>
      <trkpt lat="45.08088" lon="3.52181">
        <ele>567.3</ele>
        <time>2021-08-06T15:53:44Z</time>
      </trkpt>
      <trkpt lat="45.08087" lon="3.52186">
        <ele>567.4</ele>
        <time>2021-08-06T15:53:46Z</time>
      </trkpt>
      <trkpt lat="45.08087" lon="3.52192">
        <ele>567.6</ele>
        <time>2021-08-06T15:53:48Z</time>
      </trkpt>
      <trkpt lat="45.08087" lon="3.52198">
        <ele>567.7</ele>
        <time>2021-08-06T15:53:50Z</time>
      </trkpt>
      <trkpt lat="45.08086" lon="3.52203">
        <ele>567.9</ele>
        <time>2021-08-06T15:53:52Z</time>
      </trkpt>
      <trkpt lat="45.08086" lon="3.52209">
        <ele>568</ele>
        <time>2021-08-06T15:53:54Z</time>
      </trkpt>
      <trkpt lat="45.08086" lon="3.52214">
        <ele>568.2</ele>
        <time>2021-08-06T15:53:56Z</time>
      </trkpt>
      <trkpt lat="45.08086" lon="3.5222">
        <ele>568.3</ele>
        <time>2021-08-06T15:53:58Z</time>
      </trkpt>
      <trkpt lat="45.08086" lon="3.52225">
        <ele>568.5</ele>
        <time>2021-08-06T15:54:00Z</time>
      </trkpt>
      <trkpt lat="45.08085" lon="3.52231">
        <ele>568.6</ele>
        <time>2021-08-06T15:54:02Z</time>
      </trkpt>
      <trkpt lat="45.08086" lon="3.52237">
        <ele>568.7</ele>
        <time>2021-08-06T15:54:04Z</time>
      </trkpt>
      <trkpt lat="45.08085" lon="3.52242">
        <ele>568.9</ele>
        <time>2021-08-06T15:54:06Z</time>
      </trkpt>
      <trkpt lat="45.08085" lon="3.52247">
        <ele>569</ele>
        <time>2021-08-06T15:54:08Z</time>
      </trkpt>
      <trkpt lat="45.08085" lon="3.52253">
        <ele>569.2</ele>
        <time>2021-08-06T15:54:10Z</time>
      </trkpt>
      <trkpt lat="45.08085" lon="3.52259">
        <ele>569.6</ele>
        <time>2021-08-06T15:54:12Z</time>
      </trkpt>
      <trkpt lat="45.08085" lon="3.52265">
        <ele>569.9</ele>
        <time>2021-08-06T15:54:14Z</time>
      </trkpt>
      <trkpt lat="45.08085" lon="3.5227">
        <ele>570.3</ele>
        <time>2021-08-06T15:54:16Z</time>
      </trkpt>
      <trkpt lat="45.08085" lon="3.52276">
        <ele>570.6</ele>
        <time>2021-08-06T15:54:18Z</time>
      </trkpt>
      <trkpt lat="45.08084" lon="3.52282">
        <ele>571</ele>
        <time>2021-08-06T15:54:20Z</time>
      </trkpt>
      <trkpt lat="45.08084" lon="3.52287">
        <ele>571.3</ele>
        <time>2021-08-06T15:54:22Z</time>
      </trkpt>
      <trkpt lat="45.08083" lon="3.52293">
        <ele>571.6</ele>
        <time>2021-08-06T15:54:24Z</time>
      </trkpt>
      <trkpt lat="45.08083" lon="3.52298">
        <ele>571.9</ele>
        <time>2021-08-06T15:54:26Z</time>
      </trkpt>
      <trkpt lat="45.08083" lon="3.52303">
        <ele>572.2</ele>
        <time>2021-08-06T15:54:28Z</time>
      </trkpt>
      <trkpt lat="45.08083" lon="3.52309">
        <ele>572.5</ele>
        <time>2021-08-06T15:54:30Z</time>
      </trkpt>
      <trkpt lat="45.08083" lon="3.52313">
        <ele>572.8</ele>
        <time>2021-08-06T15:54:32Z</time>
      </trkpt>
      <trkpt lat="45.08083" lon="3.52318">
        <ele>573.1</ele>
        <time>2021-08-06T15:54:34Z</time>
      </trkpt>
      <trkpt lat="45.08083" lon="3.52323">
        <ele>573.4</ele>
        <time>2021-08-06T15:54:36Z</time>
      </trkpt>
      <trkpt lat="45.08082" lon="3.52328">
        <ele>573.7</ele>
        <time>2021-08-06T15:54:38Z</time>
      </trkpt>
      <trkpt lat="45.08082" lon="3.52332">
        <ele>574</ele>
        <time>2021-08-06T15:54:40Z</time>
      </trkpt>
      <trkpt lat="45.08082" lon="3.52337">
        <ele>574.1</ele>
        <time>2021-08-06T15:54:42Z</time>
      </trkpt>
      <trkpt lat="45.08081" lon="3.52341">
        <ele>574.1</ele>
        <time>2021-08-06T15:54:44Z</time>
      </trkpt>
      <trkpt lat="45.0808" lon="3.52345">
        <ele>574.2</ele>
        <time>2021-08-06T15:54:46Z</time>
      </trkpt>
      <trkpt lat="45.0808" lon="3.52348">
        <ele>574.3</ele>
        <time>2021-08-06T15:54:48Z</time>
      </trkpt>
      <trkpt lat="45.08079" lon="3.52351">
        <ele>574.3</ele>
        <time>2021-08-06T15:54:50Z</time>
      </trkpt>
      <trkpt lat="45.08079" lon="3.52353">
        <ele>574.3</ele>
        <time>2021-08-06T15:54:52Z</time>
      </trkpt>
      <trkpt lat="45.08079" lon="3.52352">
        <ele>574.3</ele>
        <time>2021-08-06T15:54:54Z</time>
      </trkpt>
      <trkpt lat="45.08079" lon="3.52352">
        <ele>574.3</ele>
        <time>2021-08-06T15:54:56Z</time>
      </trkpt>
      <trkpt lat="45.08079" lon="3.52352">
        <ele>574.3</ele>
        <time>2021-08-06T15:54:58Z</time>
      </trkpt>
      <trkpt lat="45.08078" lon="3.52353">
        <ele>574.3</ele>
        <time>2021-08-06T15:55:00Z</time>
      </trkpt>
      <trkpt lat="45.08082" lon="3.52372">
        <ele>574.5</ele>
        <time>2021-08-06T15:59:40Z</time>
      </trkpt>
      <trkpt lat="45.08082" lon="3.5238">
        <ele>574.6</ele>
        <time>2021-08-06T15:59:42Z</time>
      </trkpt>
      <trkpt lat="45.08081" lon="3.5239">
        <ele>574.7</ele>
        <time>2021-08-06T15:59:44Z</time>
      </trkpt>
      <trkpt lat="45.08079" lon="3.52402">
        <ele>574.8</ele>
        <time>2021-08-06T15:59:46Z</time>
      </trkpt>
      <trkpt lat="45.08076" lon="3.52415">
        <ele>575</ele>
        <time>2021-08-06T15:59:48Z</time>
      </trkpt>
      <trkpt lat="45.08072" lon="3.52429">
        <ele>574.3</ele>
        <time>2021-08-06T15:59:50Z</time>
      </trkpt>
      <trkpt lat="45.08064" lon="3.52444">
        <ele>573.3</ele>
        <time>2021-08-06T15:59:52Z</time>
      </trkpt>
      <trkpt lat="45.08053" lon="3.52457">
        <ele>572.2</ele>
        <time>2021-08-06T15:59:54Z</time>
      </trkpt>
      <trkpt lat="45.0804" lon="3.52466">
        <ele>571.1</ele>
        <time>2021-08-06T15:59:56Z</time>
      </trkpt>
      <trkpt lat="45.08026" lon="3.52472">
        <ele>570.1</ele>
        <time>2021-08-06T15:59:58Z</time>
      </trkpt>
      <trkpt lat="45.08011" lon="3.52476">
        <ele>569</ele>
        <time>2021-08-06T16:00:00Z</time>
      </trkpt>
      <trkpt lat="45.07994" lon="3.5248">
        <ele>568.1</ele>
        <time>2021-08-06T16:00:02Z</time>
      </trkpt>
      <trkpt lat="45.07977" lon="3.52485">
        <ele>567.4</ele>
        <time>2021-08-06T16:00:04Z</time>
      </trkpt>
      <trkpt lat="45.0796" lon="3.52491">
        <ele>566.3</ele>
        <time>2021-08-06T16:00:06Z</time>
      </trkpt>
      <trkpt lat="45.07944" lon="3.52499">
        <ele>564.8</ele>
        <time>2021-08-06T16:00:08Z</time>
      </trkpt>
      <trkpt lat="45.07926" lon="3.52506">
        <ele>563.4</ele>
        <time>2021-08-06T16:00:10Z</time>
      </trkpt>
      <trkpt lat="45.07909" lon="3.52514">
        <ele>562.6</ele>
        <time>2021-08-06T16:00:12Z</time>
      </trkpt>
      <trkpt lat="45.07891" lon="3.52519">
        <ele>562.9</ele>
        <time>2021-08-06T16:00:14Z</time>
      </trkpt>
      <trkpt lat="45.07875" lon="3.52524">
        <ele>562.9</ele>
        <time>2021-08-06T16:00:16Z</time>
      </trkpt>
      <trkpt lat="45.07859" lon="3.52534">
        <ele>562.1</ele>
        <time>2021-08-06T16:00:18Z</time>
      </trkpt>
      <trkpt lat="45.07845" lon="3.52548">
        <ele>560.5</ele>
        <time>2021-08-06T16:00:20Z</time>
      </trkpt>
      <trkpt lat="45.07832" lon="3.52564">
        <ele>558.6</ele>
        <time>2021-08-06T16:00:22Z</time>
      </trkpt>
      <trkpt lat="45.07818" lon="3.52579">
        <ele>557.7</ele>
        <time>2021-08-06T16:00:24Z</time>
      </trkpt>
      <trkpt lat="45.07802" lon="3.52593">
        <ele>556.8</ele>
        <time>2021-08-06T16:00:26Z</time>
      </trkpt>
      <trkpt lat="45.07785" lon="3.52605">
        <ele>556</ele>
        <time>2021-08-06T16:00:28Z</time>
      </trkpt>
      <trkpt lat="45.07768" lon="3.52614">
        <ele>555.5</ele>
        <time>2021-08-06T16:00:30Z</time>
      </trkpt>
      <trkpt lat="45.0775" lon="3.52621">
        <ele>555.1</ele>
        <time>2021-08-06T16:00:32Z</time>
      </trkpt>
      <trkpt lat="45.07733" lon="3.52626">
        <ele>553.6</ele>
        <time>2021-08-06T16:00:34Z</time>
      </trkpt>
      <trkpt lat="45.07715" lon="3.52627">
        <ele>553.4</ele>
        <time>2021-08-06T16:00:36Z</time>
      </trkpt>
      <trkpt lat="45.07698" lon="3.52626">
        <ele>553.8</ele>
        <time>2021-08-06T16:00:38Z</time>
      </trkpt>
      <trkpt lat="45.07683" lon="3.52625">
        <ele>553.9</ele>
        <time>2021-08-06T16:00:40Z</time>
      </trkpt>
      <trkpt lat="45.07667" lon="3.52634">
        <ele>551.3</ele>
        <time>2021-08-06T16:00:42Z</time>
      </trkpt>
      <trkpt lat="45.07653" lon="3.52648">
        <ele>548.6</ele>
        <time>2021-08-06T16:00:44Z</time>
      </trkpt>
      <trkpt lat="45.07637" lon="3.52664">
        <ele>545.3</ele>
        <time>2021-08-06T16:00:46Z</time>
      </trkpt>
      <trkpt lat="45.0762" lon="3.52679">
        <ele>542.6</ele>
        <time>2021-08-06T16:00:48Z</time>
      </trkpt>
      <trkpt lat="45.07603" lon="3.52691">
        <ele>540.3</ele>
        <time>2021-08-06T16:00:50Z</time>
      </trkpt>
      <trkpt lat="45.07587" lon="3.527">
        <ele>538.8</ele>
        <time>2021-08-06T16:00:52Z</time>
      </trkpt>
      <trkpt lat="45.0757" lon="3.52705">
        <ele>538.3</ele>
        <time>2021-08-06T16:00:54Z</time>
      </trkpt>
      <trkpt lat="45.07553" lon="3.52712">
        <ele>537.6</ele>
        <time>2021-08-06T16:00:56Z</time>
      </trkpt>
      <trkpt lat="45.07535" lon="3.52719">
        <ele>536.6</ele>
        <time>2021-08-06T16:00:58Z</time>
      </trkpt>
      <trkpt lat="45.07516" lon="3.52727">
        <ele>535.5</ele>
        <time>2021-08-06T16:01:00Z</time>
      </trkpt>
      <trkpt lat="45.07498" lon="3.52736">
        <ele>534.1</ele>
        <time>2021-08-06T16:01:02Z</time>
      </trkpt>
      <trkpt lat="45.07481" lon="3.52747">
        <ele>533</ele>
        <time>2021-08-06T16:01:04Z</time>
      </trkpt>
      <trkpt lat="45.07465" lon="3.52757">
        <ele>532.6</ele>
        <time>2021-08-06T16:01:06Z</time>
      </trkpt>
      <trkpt lat="45.07451" lon="3.52769">
        <ele>531.8</ele>
        <time>2021-08-06T16:01:08Z</time>
      </trkpt>
      <trkpt lat="45.07439" lon="3.52782">
        <ele>530.3</ele>
        <time>2021-08-06T16:01:10Z</time>
      </trkpt>
      <trkpt lat="45.0743" lon="3.52798">
        <ele>527.7</ele>
        <time>2021-08-06T16:01:12Z</time>
      </trkpt>
      <trkpt lat="45.07423" lon="3.52814">
        <ele>524.9</ele>
        <time>2021-08-06T16:01:14Z</time>
      </trkpt>
      <trkpt lat="45.07413" lon="3.52826">
        <ele>523.2</ele>
        <time>2021-08-06T16:01:16Z</time>
      </trkpt>
      <trkpt lat="45.07399" lon="3.5283">
        <ele>524.6</ele>
        <time>2021-08-06T16:01:18Z</time>
      </trkpt>
      <trkpt lat="45.07387" lon="3.52842">
        <ele>525.2</ele>
        <time>2021-08-06T16:01:20Z</time>
      </trkpt>
      <trkpt lat="45.07375" lon="3.52858">
        <ele>525.5</ele>
        <time>2021-08-06T16:01:22Z</time>
      </trkpt>
      <trkpt lat="45.07362" lon="3.52875">
        <ele>525.4</ele>
        <time>2021-08-06T16:01:24Z</time>
      </trkpt>
      <trkpt lat="45.07349" lon="3.52893">
        <ele>524.7</ele>
        <time>2021-08-06T16:01:26Z</time>
      </trkpt>
      <trkpt lat="45.07336" lon="3.52912">
        <ele>523.5</ele>
        <time>2021-08-06T16:01:28Z</time>
      </trkpt>
      <trkpt lat="45.07325" lon="3.52931">
        <ele>523.2</ele>
        <time>2021-08-06T16:01:30Z</time>
      </trkpt>
      <trkpt lat="45.07316" lon="3.52952">
        <ele>522.9</ele>
        <time>2021-08-06T16:01:32Z</time>
      </trkpt>
      <trkpt lat="45.07308" lon="3.52973">
        <ele>522.2</ele>
        <time>2021-08-06T16:01:34Z</time>
      </trkpt>
      <trkpt lat="45.07301" lon="3.52993">
        <ele>521.2</ele>
        <time>2021-08-06T16:01:36Z</time>
      </trkpt>
      <trkpt lat="45.07295" lon="3.53014">
        <ele>520.5</ele>
        <time>2021-08-06T16:01:38Z</time>
      </trkpt>
      <trkpt lat="45.07287" lon="3.53035">
        <ele>520.1</ele>
        <time>2021-08-06T16:01:40Z</time>
      </trkpt>
      <trkpt lat="45.07279" lon="3.53055">
        <ele>519.5</ele>
        <time>2021-08-06T16:01:42Z</time>
      </trkpt>
      <trkpt lat="45.07272" lon="3.53075">
        <ele>519</ele>
        <time>2021-08-06T16:01:44Z</time>
      </trkpt>
      <trkpt lat="45.07265" lon="3.53095">
        <ele>518.9</ele>
        <time>2021-08-06T16:01:46Z</time>
      </trkpt>
      <trkpt lat="45.07259" lon="3.53114">
        <ele>519</ele>
        <time>2021-08-06T16:01:48Z</time>
      </trkpt>
      <trkpt lat="45.07252" lon="3.53132">
        <ele>519</ele>
        <time>2021-08-06T16:01:50Z</time>
      </trkpt>
      <trkpt lat="45.07245" lon="3.53149">
        <ele>519.2</ele>
        <time>2021-08-06T16:01:52Z</time>
      </trkpt>
      <trkpt lat="45.07239" lon="3.53166">
        <ele>519.3</ele>
        <time>2021-08-06T16:01:54Z</time>
      </trkpt>
      <trkpt lat="45.07234" lon="3.53182">
        <ele>520.2</ele>
        <time>2021-08-06T16:01:56Z</time>
      </trkpt>
      <trkpt lat="45.07229" lon="3.53197">
        <ele>520.9</ele>
        <time>2021-08-06T16:01:58Z</time>
      </trkpt>
      <trkpt lat="45.07223" lon="3.53211">
        <ele>521.6</ele>
        <time>2021-08-06T16:02:00Z</time>
      </trkpt>
      <trkpt lat="45.07219" lon="3.53224">
        <ele>522.1</ele>
        <time>2021-08-06T16:02:02Z</time>
      </trkpt>
      <trkpt lat="45.07214" lon="3.53236">
        <ele>522.6</ele>
        <time>2021-08-06T16:02:04Z</time>
      </trkpt>
      <trkpt lat="45.0721" lon="3.53247">
        <ele>523</ele>
        <time>2021-08-06T16:02:06Z</time>
      </trkpt>
      <trkpt lat="45.07207" lon="3.53257">
        <ele>523.6</ele>
        <time>2021-08-06T16:02:08Z</time>
      </trkpt>
      <trkpt lat="45.07202" lon="3.53267">
        <ele>524.2</ele>
        <time>2021-08-06T16:02:10Z</time>
      </trkpt>
      <trkpt lat="45.07198" lon="3.53277">
        <ele>524.6</ele>
        <time>2021-08-06T16:02:12Z</time>
      </trkpt>
      <trkpt lat="45.07195" lon="3.53287">
        <ele>524.9</ele>
        <time>2021-08-06T16:02:14Z</time>
      </trkpt>
      <trkpt lat="45.07189" lon="3.53296">
        <ele>524.9</ele>
        <time>2021-08-06T16:02:16Z</time>
      </trkpt>
      <trkpt lat="45.07185" lon="3.53306">
        <ele>524.9</ele>
        <time>2021-08-06T16:02:18Z</time>
      </trkpt>
      <trkpt lat="45.07181" lon="3.53316">
        <ele>524.8</ele>
        <time>2021-08-06T16:02:20Z</time>
      </trkpt>
      <trkpt lat="45.07177" lon="3.53326">
        <ele>524.5</ele>
        <time>2021-08-06T16:02:22Z</time>
      </trkpt>
      <trkpt lat="45.07172" lon="3.53336">
        <ele>524.1</ele>
        <time>2021-08-06T16:02:24Z</time>
      </trkpt>
      <trkpt lat="45.07168" lon="3.53346">
        <ele>524.5</ele>
        <time>2021-08-06T16:02:26Z</time>
      </trkpt>
      <trkpt lat="45.07163" lon="3.53356">
        <ele>524.9</ele>
        <time>2021-08-06T16:02:28Z</time>
      </trkpt>
      <trkpt lat="45.07159" lon="3.53365">
        <ele>525.5</ele>
        <time>2021-08-06T16:02:30Z</time>
      </trkpt>
      <trkpt lat="45.07155" lon="3.53374">
        <ele>526.1</ele>
        <time>2021-08-06T16:02:32Z</time>
      </trkpt>
      <trkpt lat="45.07151" lon="3.53383">
        <ele>526.6</ele>
        <time>2021-08-06T16:02:34Z</time>
      </trkpt>
      <trkpt lat="45.07147" lon="3.53392">
        <ele>527</ele>
        <time>2021-08-06T16:02:36Z</time>
      </trkpt>
      <trkpt lat="45.07143" lon="3.53401">
        <ele>527.4</ele>
        <time>2021-08-06T16:02:38Z</time>
      </trkpt>
      <trkpt lat="45.07139" lon="3.5341">
        <ele>527.7</ele>
        <time>2021-08-06T16:02:40Z</time>
      </trkpt>
      <trkpt lat="45.07135" lon="3.53417">
        <ele>528.1</ele>
        <time>2021-08-06T16:02:42Z</time>
      </trkpt>
      <trkpt lat="45.07132" lon="3.53425">
        <ele>528.5</ele>
        <time>2021-08-06T16:02:44Z</time>
      </trkpt>
      <trkpt lat="45.07129" lon="3.53432">
        <ele>528.9</ele>
        <time>2021-08-06T16:02:46Z</time>
      </trkpt>
      <trkpt lat="45.07126" lon="3.53439">
        <ele>529.4</ele>
        <time>2021-08-06T16:02:48Z</time>
      </trkpt>
      <trkpt lat="45.07123" lon="3.53447">
        <ele>530</ele>
        <time>2021-08-06T16:02:50Z</time>
      </trkpt>
      <trkpt lat="45.0712" lon="3.53454">
        <ele>530.3</ele>
        <time>2021-08-06T16:02:52Z</time>
      </trkpt>
      <trkpt lat="45.07117" lon="3.53462">
        <ele>530.7</ele>
        <time>2021-08-06T16:02:54Z</time>
      </trkpt>
      <trkpt lat="45.07113" lon="3.53468">
        <ele>531.1</ele>
        <time>2021-08-06T16:02:56Z</time>
      </trkpt>
      <trkpt lat="45.07111" lon="3.53475">
        <ele>531.4</ele>
        <time>2021-08-06T16:02:58Z</time>
      </trkpt>
      <trkpt lat="45.07107" lon="3.53482">
        <ele>531.8</ele>
        <time>2021-08-06T16:03:00Z</time>
      </trkpt>
      <trkpt lat="45.07105" lon="3.53488">
        <ele>532.1</ele>
        <time>2021-08-06T16:03:02Z</time>
      </trkpt>
      <trkpt lat="45.07101" lon="3.53496">
        <ele>532.5</ele>
        <time>2021-08-06T16:03:04Z</time>
      </trkpt>
      <trkpt lat="45.07098" lon="3.53502">
        <ele>532.8</ele>
        <time>2021-08-06T16:03:06Z</time>
      </trkpt>
      <trkpt lat="45.07094" lon="3.53509">
        <ele>533.1</ele>
        <time>2021-08-06T16:03:08Z</time>
      </trkpt>
      <trkpt lat="45.07089" lon="3.53516">
        <ele>533.5</ele>
        <time>2021-08-06T16:03:10Z</time>
      </trkpt>
      <trkpt lat="45.07085" lon="3.53521">
        <ele>534</ele>
        <time>2021-08-06T16:03:12Z</time>
      </trkpt>
      <trkpt lat="45.07081" lon="3.53528">
        <ele>534.4</ele>
        <time>2021-08-06T16:03:14Z</time>
      </trkpt>
      <trkpt lat="45.07075" lon="3.53534">
        <ele>534.7</ele>
        <time>2021-08-06T16:03:16Z</time>
      </trkpt>
      <trkpt lat="45.07071" lon="3.5354">
        <ele>535</ele>
        <time>2021-08-06T16:03:18Z</time>
      </trkpt>
      <trkpt lat="45.07065" lon="3.53545">
        <ele>535.1</ele>
        <time>2021-08-06T16:03:20Z</time>
      </trkpt>
      <trkpt lat="45.0706" lon="3.53551">
        <ele>535.2</ele>
        <time>2021-08-06T16:03:22Z</time>
      </trkpt>
      <trkpt lat="45.07054" lon="3.53556">
        <ele>535.2</ele>
        <time>2021-08-06T16:03:24Z</time>
      </trkpt>
      <trkpt lat="45.07048" lon="3.53561">
        <ele>535.2</ele>
        <time>2021-08-06T16:03:26Z</time>
      </trkpt>
      <trkpt lat="45.07042" lon="3.53567">
        <ele>535.2</ele>
        <time>2021-08-06T16:03:28Z</time>
      </trkpt>
      <trkpt lat="45.07037" lon="3.53572">
        <ele>535.2</ele>
        <time>2021-08-06T16:03:30Z</time>
      </trkpt>
      <trkpt lat="45.07031" lon="3.53578">
        <ele>535.2</ele>
        <time>2021-08-06T16:03:32Z</time>
      </trkpt>
      <trkpt lat="45.07025" lon="3.53584">
        <ele>535.1</ele>
        <time>2021-08-06T16:03:34Z</time>
      </trkpt>
      <trkpt lat="45.07019" lon="3.5359">
        <ele>535.4</ele>
        <time>2021-08-06T16:03:36Z</time>
      </trkpt>
      <trkpt lat="45.07013" lon="3.53595">
        <ele>535.5</ele>
        <time>2021-08-06T16:03:38Z</time>
      </trkpt>
      <trkpt lat="45.07008" lon="3.536">
        <ele>535.8</ele>
        <time>2021-08-06T16:03:40Z</time>
      </trkpt>
      <trkpt lat="45.07003" lon="3.53606">
        <ele>536.3</ele>
        <time>2021-08-06T16:03:42Z</time>
      </trkpt>
      <trkpt lat="45.06998" lon="3.53611">
        <ele>536.7</ele>
        <time>2021-08-06T16:03:44Z</time>
      </trkpt>
      <trkpt lat="45.06994" lon="3.53615">
        <ele>537</ele>
        <time>2021-08-06T16:03:46Z</time>
      </trkpt>
      <trkpt lat="45.06989" lon="3.53619">
        <ele>537.1</ele>
        <time>2021-08-06T16:03:48Z</time>
      </trkpt>
      <trkpt lat="45.06984" lon="3.53623">
        <ele>537.2</ele>
        <time>2021-08-06T16:03:50Z</time>
      </trkpt>
      <trkpt lat="45.06979" lon="3.53627">
        <ele>537.2</ele>
        <time>2021-08-06T16:03:52Z</time>
      </trkpt>
      <trkpt lat="45.06975" lon="3.53631">
        <ele>537.1</ele>
        <time>2021-08-06T16:03:54Z</time>
      </trkpt>
      <trkpt lat="45.06971" lon="3.53636">
        <ele>537.2</ele>
        <time>2021-08-06T16:03:56Z</time>
      </trkpt>
      <trkpt lat="45.06966" lon="3.5364">
        <ele>537.1</ele>
        <time>2021-08-06T16:03:58Z</time>
      </trkpt>
      <trkpt lat="45.06962" lon="3.53645">
        <ele>537</ele>
        <time>2021-08-06T16:04:00Z</time>
      </trkpt>
      <trkpt lat="45.06956" lon="3.5365">
        <ele>536.7</ele>
        <time>2021-08-06T16:04:02Z</time>
      </trkpt>
      <trkpt lat="45.0695" lon="3.53655">
        <ele>536.3</ele>
        <time>2021-08-06T16:04:04Z</time>
      </trkpt>
      <trkpt lat="45.06944" lon="3.5366">
        <ele>535.7</ele>
        <time>2021-08-06T16:04:06Z</time>
      </trkpt>
      <trkpt lat="45.06939" lon="3.53666">
        <ele>535.2</ele>
        <time>2021-08-06T16:04:08Z</time>
      </trkpt>
      <trkpt lat="45.06933" lon="3.53672">
        <ele>534.8</ele>
        <time>2021-08-06T16:04:10Z</time>
      </trkpt>
      <trkpt lat="45.06928" lon="3.53678">
        <ele>534.5</ele>
        <time>2021-08-06T16:04:12Z</time>
      </trkpt>
      <trkpt lat="45.06922" lon="3.53686">
        <ele>534.4</ele>
        <time>2021-08-06T16:04:14Z</time>
      </trkpt>
      <trkpt lat="45.06916" lon="3.53693">
        <ele>534.4</ele>
        <time>2021-08-06T16:04:16Z</time>
      </trkpt>
      <trkpt lat="45.0691" lon="3.53701">
        <ele>534.8</ele>
        <time>2021-08-06T16:04:18Z</time>
      </trkpt>
      <trkpt lat="45.06904" lon="3.5371">
        <ele>535.1</ele>
        <time>2021-08-06T16:04:20Z</time>
      </trkpt>
      <trkpt lat="45.06898" lon="3.53718">
        <ele>535.2</ele>
        <time>2021-08-06T16:04:22Z</time>
      </trkpt>
      <trkpt lat="45.06891" lon="3.53725">
        <ele>535</ele>
        <time>2021-08-06T16:04:24Z</time>
      </trkpt>
      <trkpt lat="45.06885" lon="3.53733">
        <ele>534.6</ele>
        <time>2021-08-06T16:04:26Z</time>
      </trkpt>
      <trkpt lat="45.06879" lon="3.53742">
        <ele>534.3</ele>
        <time>2021-08-06T16:04:28Z</time>
      </trkpt>
      <trkpt lat="45.06873" lon="3.53751">
        <ele>533.8</ele>
        <time>2021-08-06T16:04:30Z</time>
      </trkpt>
      <trkpt lat="45.06868" lon="3.5376">
        <ele>533.7</ele>
        <time>2021-08-06T16:04:32Z</time>
      </trkpt>
      <trkpt lat="45.06863" lon="3.53769">
        <ele>533.6</ele>
        <time>2021-08-06T16:04:34Z</time>
      </trkpt>
      <trkpt lat="45.06857" lon="3.5378">
        <ele>533.5</ele>
        <time>2021-08-06T16:04:36Z</time>
      </trkpt>
      <trkpt lat="45.06853" lon="3.5379">
        <ele>533.4</ele>
        <time>2021-08-06T16:04:38Z</time>
      </trkpt>
      <trkpt lat="45.06848" lon="3.53801">
        <ele>533.3</ele>
        <time>2021-08-06T16:04:40Z</time>
      </trkpt>
      <trkpt lat="45.06844" lon="3.53812">
        <ele>533.1</ele>
        <time>2021-08-06T16:04:42Z</time>
      </trkpt>
      <trkpt lat="45.06839" lon="3.53825">
        <ele>532.9</ele>
        <time>2021-08-06T16:04:44Z</time>
      </trkpt>
      <trkpt lat="45.06835" lon="3.53838">
        <ele>532.8</ele>
        <time>2021-08-06T16:04:46Z</time>
      </trkpt>
      <trkpt lat="45.06831" lon="3.5385">
        <ele>533.6</ele>
        <time>2021-08-06T16:04:48Z</time>
      </trkpt>
      <trkpt lat="45.06827" lon="3.53863">
        <ele>534.5</ele>
        <time>2021-08-06T16:04:50Z</time>
      </trkpt>
      <trkpt lat="45.06823" lon="3.53875">
        <ele>535.4</ele>
        <time>2021-08-06T16:04:52Z</time>
      </trkpt>
      <trkpt lat="45.06819" lon="3.53888">
        <ele>536.1</ele>
        <time>2021-08-06T16:04:54Z</time>
      </trkpt>
      <trkpt lat="45.06815" lon="3.53901">
        <ele>536.7</ele>
        <time>2021-08-06T16:04:56Z</time>
      </trkpt>
      <trkpt lat="45.06811" lon="3.53913">
        <ele>537.1</ele>
        <time>2021-08-06T16:04:58Z</time>
      </trkpt>
      <trkpt lat="45.06808" lon="3.53925">
        <ele>537.3</ele>
        <time>2021-08-06T16:05:00Z</time>
      </trkpt>
      <trkpt lat="45.06804" lon="3.53937">
        <ele>537.4</ele>
        <time>2021-08-06T16:05:02Z</time>
      </trkpt>
      <trkpt lat="45.06802" lon="3.53949">
        <ele>537.5</ele>
        <time>2021-08-06T16:05:04Z</time>
      </trkpt>
      <trkpt lat="45.068" lon="3.53961">
        <ele>537.9</ele>
        <time>2021-08-06T16:05:06Z</time>
      </trkpt>
      <trkpt lat="45.06799" lon="3.53973">
        <ele>538.2</ele>
        <time>2021-08-06T16:05:08Z</time>
      </trkpt>
      <trkpt lat="45.06798" lon="3.53984">
        <ele>538.5</ele>
        <time>2021-08-06T16:05:10Z</time>
      </trkpt>
      <trkpt lat="45.06798" lon="3.53995">
        <ele>538.9</ele>
        <time>2021-08-06T16:05:12Z</time>
      </trkpt>
      <trkpt lat="45.06799" lon="3.54007">
        <ele>539.3</ele>
        <time>2021-08-06T16:05:14Z</time>
      </trkpt>
      <trkpt lat="45.068" lon="3.54018">
        <ele>539.4</ele>
        <time>2021-08-06T16:05:16Z</time>
      </trkpt>
      <trkpt lat="45.06801" lon="3.5403">
        <ele>539.6</ele>
        <time>2021-08-06T16:05:18Z</time>
      </trkpt>
      <trkpt lat="45.06801" lon="3.54042">
        <ele>539.7</ele>
        <time>2021-08-06T16:05:20Z</time>
      </trkpt>
      <trkpt lat="45.06803" lon="3.54054">
        <ele>540.1</ele>
        <time>2021-08-06T16:05:22Z</time>
      </trkpt>
      <trkpt lat="45.06804" lon="3.54065">
        <ele>540.3</ele>
        <time>2021-08-06T16:05:24Z</time>
      </trkpt>
      <trkpt lat="45.06805" lon="3.54076">
        <ele>540.5</ele>
        <time>2021-08-06T16:05:26Z</time>
      </trkpt>
      <trkpt lat="45.06806" lon="3.54086">
        <ele>540.7</ele>
        <time>2021-08-06T16:05:28Z</time>
      </trkpt>
      <trkpt lat="45.06807" lon="3.54097">
        <ele>540.8</ele>
        <time>2021-08-06T16:05:30Z</time>
      </trkpt>
      <trkpt lat="45.06808" lon="3.54107">
        <ele>540.8</ele>
        <time>2021-08-06T16:05:32Z</time>
      </trkpt>
      <trkpt lat="45.06808" lon="3.54116">
        <ele>540.8</ele>
        <time>2021-08-06T16:05:34Z</time>
      </trkpt>
      <trkpt lat="45.06809" lon="3.54126">
        <ele>540.8</ele>
        <time>2021-08-06T16:05:36Z</time>
      </trkpt>
      <trkpt lat="45.06809" lon="3.54136">
        <ele>540.8</ele>
        <time>2021-08-06T16:05:38Z</time>
      </trkpt>
      <trkpt lat="45.0681" lon="3.54146">
        <ele>540.8</ele>
        <time>2021-08-06T16:05:40Z</time>
      </trkpt>
      <trkpt lat="45.06811" lon="3.54157">
        <ele>540.8</ele>
        <time>2021-08-06T16:05:42Z</time>
      </trkpt>
      <trkpt lat="45.06811" lon="3.54169">
        <ele>540.9</ele>
        <time>2021-08-06T16:05:44Z</time>
      </trkpt>
      <trkpt lat="45.06812" lon="3.5418">
        <ele>541.3</ele>
        <time>2021-08-06T16:05:46Z</time>
      </trkpt>
      <trkpt lat="45.06813" lon="3.54192">
        <ele>541.8</ele>
        <time>2021-08-06T16:05:48Z</time>
      </trkpt>
      <trkpt lat="45.06814" lon="3.54204">
        <ele>542.2</ele>
        <time>2021-08-06T16:05:50Z</time>
      </trkpt>
      <trkpt lat="45.06816" lon="3.54215">
        <ele>542.7</ele>
        <time>2021-08-06T16:05:52Z</time>
      </trkpt>
      <trkpt lat="45.06817" lon="3.54227">
        <ele>543.2</ele>
        <time>2021-08-06T16:05:54Z</time>
      </trkpt>
      <trkpt lat="45.06817" lon="3.54239">
        <ele>543.6</ele>
        <time>2021-08-06T16:05:56Z</time>
      </trkpt>
      <trkpt lat="45.06818" lon="3.5425">
        <ele>544</ele>
        <time>2021-08-06T16:05:58Z</time>
      </trkpt>
      <trkpt lat="45.0682" lon="3.54262">
        <ele>544.3</ele>
        <time>2021-08-06T16:06:00Z</time>
      </trkpt>
      <trkpt lat="45.06821" lon="3.54273">
        <ele>544.5</ele>
        <time>2021-08-06T16:06:02Z</time>
      </trkpt>
      <trkpt lat="45.06822" lon="3.54285">
        <ele>544.7</ele>
        <time>2021-08-06T16:06:04Z</time>
      </trkpt>
      <trkpt lat="45.06821" lon="3.54297">
        <ele>544.8</ele>
        <time>2021-08-06T16:06:06Z</time>
      </trkpt>
      <trkpt lat="45.06824" lon="3.54308">
        <ele>545.1</ele>
        <time>2021-08-06T16:06:08Z</time>
      </trkpt>
      <trkpt lat="45.06824" lon="3.54318">
        <ele>545.2</ele>
        <time>2021-08-06T16:06:10Z</time>
      </trkpt>
      <trkpt lat="45.06824" lon="3.54329">
        <ele>545.3</ele>
        <time>2021-08-06T16:06:12Z</time>
      </trkpt>
      <trkpt lat="45.06825" lon="3.5434">
        <ele>545.3</ele>
        <time>2021-08-06T16:06:14Z</time>
      </trkpt>
      <trkpt lat="45.06826" lon="3.54351">
        <ele>545.1</ele>
        <time>2021-08-06T16:06:16Z</time>
      </trkpt>
      <trkpt lat="45.06826" lon="3.54361">
        <ele>544.9</ele>
        <time>2021-08-06T16:06:18Z</time>
      </trkpt>
      <trkpt lat="45.06827" lon="3.54371">
        <ele>544.7</ele>
        <time>2021-08-06T16:06:20Z</time>
      </trkpt>
      <trkpt lat="45.06827" lon="3.5438">
        <ele>544.5</ele>
        <time>2021-08-06T16:06:22Z</time>
      </trkpt>
      <trkpt lat="45.06828" lon="3.54389">
        <ele>544.4</ele>
        <time>2021-08-06T16:06:24Z</time>
      </trkpt>
      <trkpt lat="45.06828" lon="3.54398">
        <ele>544.2</ele>
        <time>2021-08-06T16:06:26Z</time>
      </trkpt>
      <trkpt lat="45.06828" lon="3.54407">
        <ele>544</ele>
        <time>2021-08-06T16:06:28Z</time>
      </trkpt>
      <trkpt lat="45.06829" lon="3.54416">
        <ele>543.8</ele>
        <time>2021-08-06T16:06:30Z</time>
      </trkpt>
      <trkpt lat="45.0683" lon="3.54424">
        <ele>543.3</ele>
        <time>2021-08-06T16:06:32Z</time>
      </trkpt>
      <trkpt lat="45.0683" lon="3.54432">
        <ele>542.7</ele>
        <time>2021-08-06T16:06:34Z</time>
      </trkpt>
      <trkpt lat="45.06831" lon="3.54441">
        <ele>542.2</ele>
        <time>2021-08-06T16:06:36Z</time>
      </trkpt>
      <trkpt lat="45.06831" lon="3.54449">
        <ele>541.6</ele>
        <time>2021-08-06T16:06:38Z</time>
      </trkpt>
      <trkpt lat="45.06831" lon="3.54458">
        <ele>541</ele>
        <time>2021-08-06T16:06:40Z</time>
      </trkpt>
      <trkpt lat="45.06833" lon="3.54466">
        <ele>540.4</ele>
        <time>2021-08-06T16:06:42Z</time>
      </trkpt>
      <trkpt lat="45.06833" lon="3.54475">
        <ele>539.7</ele>
        <time>2021-08-06T16:06:44Z</time>
      </trkpt>
      <trkpt lat="45.06833" lon="3.54484">
        <ele>539.1</ele>
        <time>2021-08-06T16:06:46Z</time>
      </trkpt>
      <trkpt lat="45.06834" lon="3.54493">
        <ele>538.5</ele>
        <time>2021-08-06T16:06:48Z</time>
      </trkpt>
      <trkpt lat="45.06834" lon="3.54501">
        <ele>538</ele>
        <time>2021-08-06T16:06:50Z</time>
      </trkpt>
      <trkpt lat="45.06834" lon="3.54509">
        <ele>537.9</ele>
        <time>2021-08-06T16:06:52Z</time>
      </trkpt>
      <trkpt lat="45.06834" lon="3.54517">
        <ele>537.8</ele>
        <time>2021-08-06T16:06:54Z</time>
      </trkpt>
      <trkpt lat="45.06834" lon="3.54525">
        <ele>537.7</ele>
        <time>2021-08-06T16:06:56Z</time>
      </trkpt>
      <trkpt lat="45.06833" lon="3.54533">
        <ele>537.6</ele>
        <time>2021-08-06T16:06:58Z</time>
      </trkpt>
      <trkpt lat="45.06833" lon="3.54542">
        <ele>537.5</ele>
        <time>2021-08-06T16:07:00Z</time>
      </trkpt>
      <trkpt lat="45.06833" lon="3.5455">
        <ele>537.4</ele>
        <time>2021-08-06T16:07:02Z</time>
      </trkpt>
      <trkpt lat="45.06835" lon="3.54557">
        <ele>537.2</ele>
        <time>2021-08-06T16:07:04Z</time>
      </trkpt>
      <trkpt lat="45.06838" lon="3.54563">
        <ele>536.9</ele>
        <time>2021-08-06T16:07:06Z</time>
      </trkpt>
      <trkpt lat="45.06841" lon="3.54569">
        <ele>536.5</ele>
        <time>2021-08-06T16:07:08Z</time>
      </trkpt>
      <trkpt lat="45.06846" lon="3.54575">
        <ele>535.9</ele>
        <time>2021-08-06T16:07:10Z</time>
      </trkpt>
      <trkpt lat="45.06852" lon="3.54583">
        <ele>535</ele>
        <time>2021-08-06T16:07:12Z</time>
      </trkpt>
      <trkpt lat="45.06858" lon="3.54594">
        <ele>533.4</ele>
        <time>2021-08-06T16:07:14Z</time>
      </trkpt>
      <trkpt lat="45.06862" lon="3.54611">
        <ele>531.7</ele>
        <time>2021-08-06T16:07:16Z</time>
      </trkpt>
      <trkpt lat="45.0686" lon="3.54627">
        <ele>530.6</ele>
        <time>2021-08-06T16:07:18Z</time>
      </trkpt>
      <trkpt lat="45.06855" lon="3.54643">
        <ele>530.2</ele>
        <time>2021-08-06T16:07:20Z</time>
      </trkpt>
      <trkpt lat="45.06848" lon="3.54656">
        <ele>530.4</ele>
        <time>2021-08-06T16:07:22Z</time>
      </trkpt>
      <trkpt lat="45.06841" lon="3.54669">
        <ele>530.5</ele>
        <time>2021-08-06T16:07:24Z</time>
      </trkpt>
      <trkpt lat="45.06834" lon="3.54681">
        <ele>530</ele>
        <time>2021-08-06T16:07:26Z</time>
      </trkpt>
      <trkpt lat="45.06827" lon="3.54693">
        <ele>529</ele>
        <time>2021-08-06T16:07:28Z</time>
      </trkpt>
      <trkpt lat="45.06818" lon="3.54702">
        <ele>528.9</ele>
        <time>2021-08-06T16:07:30Z</time>
      </trkpt>
      <trkpt lat="45.0681" lon="3.54711">
        <ele>528.9</ele>
        <time>2021-08-06T16:07:32Z</time>
      </trkpt>
      <trkpt lat="45.06804" lon="3.54723">
        <ele>528.6</ele>
        <time>2021-08-06T16:07:34Z</time>
      </trkpt>
      <trkpt lat="45.06802" lon="3.54732">
        <ele>527.9</ele>
        <time>2021-08-06T16:07:36Z</time>
      </trkpt>
      <trkpt lat="45.06803" lon="3.54737">
        <ele>527.2</ele>
        <time>2021-08-06T16:07:38Z</time>
      </trkpt>
      <trkpt lat="45.06804" lon="3.54739">
        <ele>526.8</ele>
        <time>2021-08-06T16:07:40Z</time>
      </trkpt>
      <trkpt lat="45.06809" lon="3.54747">
        <ele>525.4</ele>
        <time>2021-08-06T16:07:42Z</time>
      </trkpt>
      <trkpt lat="45.06814" lon="3.54754">
        <ele>523.9</ele>
        <time>2021-08-06T16:07:44Z</time>
      </trkpt>
      <trkpt lat="45.06819" lon="3.54762">
        <ele>522.5</ele>
        <time>2021-08-06T16:07:46Z</time>
      </trkpt>
      <trkpt lat="45.06823" lon="3.54771">
        <ele>521</ele>
        <time>2021-08-06T16:07:48Z</time>
      </trkpt>
      <trkpt lat="45.06828" lon="3.54779">
        <ele>519.7</ele>
        <time>2021-08-06T16:07:50Z</time>
      </trkpt>
      <trkpt lat="45.06832" lon="3.54787">
        <ele>518.5</ele>
        <time>2021-08-06T16:07:52Z</time>
      </trkpt>
      <trkpt lat="45.06837" lon="3.54796">
        <ele>517.6</ele>
        <time>2021-08-06T16:07:54Z</time>
      </trkpt>
      <trkpt lat="45.06841" lon="3.54805">
        <ele>517</ele>
        <time>2021-08-06T16:07:56Z</time>
      </trkpt>
      <trkpt lat="45.06846" lon="3.54814">
        <ele>516.6</ele>
        <time>2021-08-06T16:07:58Z</time>
      </trkpt>
      <trkpt lat="45.06851" lon="3.54824">
        <ele>516.3</ele>
        <time>2021-08-06T16:08:00Z</time>
      </trkpt>
      <trkpt lat="45.06857" lon="3.54833">
        <ele>516.1</ele>
        <time>2021-08-06T16:08:02Z</time>
      </trkpt>
      <trkpt lat="45.06862" lon="3.54843">
        <ele>518.2</ele>
        <time>2021-08-06T16:08:04Z</time>
      </trkpt>
      <trkpt lat="45.06866" lon="3.54853">
        <ele>520.2</ele>
        <time>2021-08-06T16:08:06Z</time>
      </trkpt>
      <trkpt lat="45.0687" lon="3.5486">
        <ele>521.8</ele>
        <time>2021-08-06T16:08:08Z</time>
      </trkpt>
      <trkpt lat="45.06875" lon="3.54865">
        <ele>523</ele>
        <time>2021-08-06T16:08:10Z</time>
      </trkpt>
      <trkpt lat="45.06879" lon="3.54869">
        <ele>523.8</ele>
        <time>2021-08-06T16:08:12Z</time>
      </trkpt>
      <trkpt lat="45.06884" lon="3.5487">
        <ele>524.3</ele>
        <time>2021-08-06T16:08:14Z</time>
      </trkpt>
      <trkpt lat="45.06887" lon="3.54871">
        <ele>524.7</ele>
        <time>2021-08-06T16:08:16Z</time>
      </trkpt>
      <trkpt lat="45.06891" lon="3.54871">
        <ele>524.9</ele>
        <time>2021-08-06T16:08:18Z</time>
      </trkpt>
      <trkpt lat="45.06895" lon="3.54871">
        <ele>525.1</ele>
        <time>2021-08-06T16:08:20Z</time>
      </trkpt>
      <trkpt lat="45.06898" lon="3.54871">
        <ele>525.2</ele>
        <time>2021-08-06T16:08:22Z</time>
      </trkpt>
      <trkpt lat="45.06901" lon="3.54871">
        <ele>525.4</ele>
        <time>2021-08-06T16:08:24Z</time>
      </trkpt>
      <trkpt lat="45.06905" lon="3.54872">
        <ele>525.7</ele>
        <time>2021-08-06T16:08:26Z</time>
      </trkpt>
      <trkpt lat="45.06908" lon="3.54873">
        <ele>526.1</ele>
        <time>2021-08-06T16:08:28Z</time>
      </trkpt>
      <trkpt lat="45.06911" lon="3.54874">
        <ele>526.5</ele>
        <time>2021-08-06T16:08:30Z</time>
      </trkpt>
      <trkpt lat="45.06913" lon="3.54877">
        <ele>527.1</ele>
        <time>2021-08-06T16:08:32Z</time>
      </trkpt>
      <trkpt lat="45.06916" lon="3.54878">
        <ele>527.5</ele>
        <time>2021-08-06T16:08:34Z</time>
      </trkpt>
      <trkpt lat="45.06918" lon="3.54881">
        <ele>528</ele>
        <time>2021-08-06T16:08:36Z</time>
      </trkpt>
      <trkpt lat="45.0692" lon="3.54884">
        <ele>528.3</ele>
        <time>2021-08-06T16:08:38Z</time>
      </trkpt>
      <trkpt lat="45.06922" lon="3.54887">
        <ele>528.7</ele>
        <time>2021-08-06T16:08:40Z</time>
      </trkpt>
      <trkpt lat="45.06924" lon="3.5489">
        <ele>529</ele>
        <time>2021-08-06T16:08:42Z</time>
      </trkpt>
      <trkpt lat="45.06927" lon="3.54893">
        <ele>529.2</ele>
        <time>2021-08-06T16:08:44Z</time>
      </trkpt>
      <trkpt lat="45.06929" lon="3.54896">
        <ele>529.5</ele>
        <time>2021-08-06T16:08:46Z</time>
      </trkpt>
      <trkpt lat="45.06932" lon="3.549">
        <ele>529.9</ele>
        <time>2021-08-06T16:08:48Z</time>
      </trkpt>
      <trkpt lat="45.06934" lon="3.54904">
        <ele>530.3</ele>
        <time>2021-08-06T16:08:50Z</time>
      </trkpt>
      <trkpt lat="45.06935" lon="3.54908">
        <ele>530.7</ele>
        <time>2021-08-06T16:08:52Z</time>
      </trkpt>
      <trkpt lat="45.06936" lon="3.54913">
        <ele>531.4</ele>
        <time>2021-08-06T16:08:54Z</time>
      </trkpt>
      <trkpt lat="45.06936" lon="3.54917">
        <ele>531.9</ele>
        <time>2021-08-06T16:08:56Z</time>
      </trkpt>
      <trkpt lat="45.06938" lon="3.5492">
        <ele>531.9</ele>
        <time>2021-08-06T16:08:58Z</time>
      </trkpt>
      <trkpt lat="45.06939" lon="3.54923">
        <ele>531.8</ele>
        <time>2021-08-06T16:09:00Z</time>
      </trkpt>
      <trkpt lat="45.06939" lon="3.54926">
        <ele>532.1</ele>
        <time>2021-08-06T16:09:02Z</time>
      </trkpt>
      <trkpt lat="45.06938" lon="3.54929">
        <ele>532.3</ele>
        <time>2021-08-06T16:09:04Z</time>
      </trkpt>
      <trkpt lat="45.06938" lon="3.54929">
        <ele>532.3</ele>
        <time>2021-08-06T16:09:06Z</time>
      </trkpt>
      <trkpt lat="45.06938" lon="3.54929">
        <ele>532.3</ele>
        <time>2021-08-06T16:09:08Z</time>
      </trkpt>
      <trkpt lat="45.06938" lon="3.54929">
        <ele>532.3</ele>
        <time>2021-08-06T16:09:10Z</time>
      </trkpt>
      <trkpt lat="45.06939" lon="3.54929">
        <ele>532.3</ele>
        <time>2021-08-06T16:09:12Z</time>
      </trkpt>
      <trkpt lat="45.06927" lon="3.54923">
        <ele>533.8</ele>
        <time>2021-08-06T16:11:10Z</time>
      </trkpt>
      <trkpt lat="45.06925" lon="3.54921">
        <ele>533.9</ele>
        <time>2021-08-06T16:11:12Z</time>
      </trkpt>
      <trkpt lat="45.06923" lon="3.54919">
        <ele>534.2</ele>
        <time>2021-08-06T16:11:14Z</time>
      </trkpt>
      <trkpt lat="45.0692" lon="3.54919">
        <ele>534.6</ele>
        <time>2021-08-06T16:11:16Z</time>
      </trkpt>
      <trkpt lat="45.06917" lon="3.54919">
        <ele>535</ele>
        <time>2021-08-06T16:11:18Z</time>
      </trkpt>
      <trkpt lat="45.06915" lon="3.5492">
        <ele>535.1</ele>
        <time>2021-08-06T16:11:20Z</time>
      </trkpt>
      <trkpt lat="45.06912" lon="3.54922">
        <ele>535.1</ele>
        <time>2021-08-06T16:11:22Z</time>
      </trkpt>
      <trkpt lat="45.0691" lon="3.54923">
        <ele>535.1</ele>
        <time>2021-08-06T16:11:24Z</time>
      </trkpt>
      <trkpt lat="45.06909" lon="3.54925">
        <ele>535.2</ele>
        <time>2021-08-06T16:11:26Z</time>
      </trkpt>
      <trkpt lat="45.06906" lon="3.54928">
        <ele>535.4</ele>
        <time>2021-08-06T16:11:28Z</time>
      </trkpt>
      <trkpt lat="45.06904" lon="3.5493">
        <ele>535.5</ele>
        <time>2021-08-06T16:11:30Z</time>
      </trkpt>
      <trkpt lat="45.06901" lon="3.54933">
        <ele>535.8</ele>
        <time>2021-08-06T16:11:32Z</time>
      </trkpt>
      <trkpt lat="45.06898" lon="3.54936">
        <ele>536</ele>
        <time>2021-08-06T16:11:34Z</time>
      </trkpt>
      <trkpt lat="45.06895" lon="3.54938">
        <ele>536.2</ele>
        <time>2021-08-06T16:11:36Z</time>
      </trkpt>
      <trkpt lat="45.06892" lon="3.54939">
        <ele>536.4</ele>
        <time>2021-08-06T16:11:38Z</time>
      </trkpt>
      <trkpt lat="45.06891" lon="3.54943">
        <ele>536.9</ele>
        <time>2021-08-06T16:11:40Z</time>
      </trkpt>
      <trkpt lat="45.0689" lon="3.54946">
        <ele>537.3</ele>
        <time>2021-08-06T16:11:42Z</time>
      </trkpt>
      <trkpt lat="45.06891" lon="3.54946">
        <ele>537.2</ele>
        <time>2021-08-06T16:11:44Z</time>
      </trkpt>
      <trkpt lat="45.06891" lon="3.54947">
        <ele>537.3</ele>
        <time>2021-08-06T16:11:46Z</time>
      </trkpt>
      <trkpt lat="45.06891" lon="3.54947">
        <ele>537.4</ele>
        <time>2021-08-06T16:11:48Z</time>
      </trkpt>
      <trkpt lat="45.06891" lon="3.54948">
        <ele>537.6</ele>
        <time>2021-08-06T16:11:50Z</time>
      </trkpt>
      <trkpt lat="45.06874" lon="3.54969">
        <ele>541.8</ele>
        <time>2021-08-06T16:12:58Z</time>
      </trkpt>
      <trkpt lat="45.06873" lon="3.54971">
        <ele>542.2</ele>
        <time>2021-08-06T16:13:00Z</time>
      </trkpt>
      <trkpt lat="45.06871" lon="3.54974">
        <ele>543</ele>
        <time>2021-08-06T16:13:02Z</time>
      </trkpt>
      <trkpt lat="45.0687" lon="3.54978">
        <ele>543.8</ele>
        <time>2021-08-06T16:13:04Z</time>
      </trkpt>
      <trkpt lat="45.06869" lon="3.54982">
        <ele>544.5</ele>
        <time>2021-08-06T16:13:06Z</time>
      </trkpt>
      <trkpt lat="45.06867" lon="3.54982">
        <ele>544.8</ele>
        <time>2021-08-06T16:13:08Z</time>
      </trkpt>
      <trkpt lat="45.06864" lon="3.54985">
        <ele>545.7</ele>
        <time>2021-08-06T16:13:10Z</time>
      </trkpt>
      <trkpt lat="45.06861" lon="3.54987">
        <ele>546.6</ele>
        <time>2021-08-06T16:13:12Z</time>
      </trkpt>
      <trkpt lat="45.06858" lon="3.54989">
        <ele>547.4</ele>
        <time>2021-08-06T16:13:14Z</time>
      </trkpt>
      <trkpt lat="45.06856" lon="3.54991">
        <ele>548.1</ele>
        <time>2021-08-06T16:13:16Z</time>
      </trkpt>
      <trkpt lat="45.06854" lon="3.54992">
        <ele>548.7</ele>
        <time>2021-08-06T16:13:18Z</time>
      </trkpt>
      <trkpt lat="45.06851" lon="3.54995">
        <ele>549.7</ele>
        <time>2021-08-06T16:13:20Z</time>
      </trkpt>
      <trkpt lat="45.0685" lon="3.54997">
        <ele>550.4</ele>
        <time>2021-08-06T16:13:22Z</time>
      </trkpt>
      <trkpt lat="45.06847" lon="3.54998">
        <ele>551.1</ele>
        <time>2021-08-06T16:13:24Z</time>
      </trkpt>
      <trkpt lat="45.06845" lon="3.54999">
        <ele>551.8</ele>
        <time>2021-08-06T16:13:26Z</time>
      </trkpt>
      <trkpt lat="45.06842" lon="3.55001">
        <ele>552.6</ele>
        <time>2021-08-06T16:13:28Z</time>
      </trkpt>
      <trkpt lat="45.06837" lon="3.55004">
        <ele>553.5</ele>
        <time>2021-08-06T16:13:30Z</time>
      </trkpt>
      <trkpt lat="45.06831" lon="3.55005">
        <ele>553.6</ele>
        <time>2021-08-06T16:13:32Z</time>
      </trkpt>
      <trkpt lat="45.06827" lon="3.55007">
        <ele>552.7</ele>
        <time>2021-08-06T16:13:34Z</time>
      </trkpt>
      <trkpt lat="45.06822" lon="3.5501">
        <ele>551.7</ele>
        <time>2021-08-06T16:13:36Z</time>
      </trkpt>
      <trkpt lat="45.06817" lon="3.55015">
        <ele>551</ele>
        <time>2021-08-06T16:13:38Z</time>
      </trkpt>
      <trkpt lat="45.06814" lon="3.55019">
        <ele>550.6</ele>
        <time>2021-08-06T16:13:40Z</time>
      </trkpt>
      <trkpt lat="45.06811" lon="3.55021">
        <ele>550.3</ele>
        <time>2021-08-06T16:13:42Z</time>
      </trkpt>
      <trkpt lat="45.06809" lon="3.55024">
        <ele>550.1</ele>
        <time>2021-08-06T16:13:44Z</time>
      </trkpt>
      <trkpt lat="45.06808" lon="3.55027">
        <ele>550</ele>
        <time>2021-08-06T16:13:46Z</time>
      </trkpt>
      <trkpt lat="45.06806" lon="3.5503">
        <ele>550</ele>
        <time>2021-08-06T16:13:48Z</time>
      </trkpt>
      <trkpt lat="45.06805" lon="3.55033">
        <ele>550.1</ele>
        <time>2021-08-06T16:13:50Z</time>
      </trkpt>
      <trkpt lat="45.06803" lon="3.55037">
        <ele>550.2</ele>
        <time>2021-08-06T16:13:52Z</time>
      </trkpt>
      <trkpt lat="45.06801" lon="3.5504">
        <ele>550.2</ele>
        <time>2021-08-06T16:13:54Z</time>
      </trkpt>
      <trkpt lat="45.068" lon="3.55042">
        <ele>550.3</ele>
        <time>2021-08-06T16:13:56Z</time>
      </trkpt>
      <trkpt lat="45.06798" lon="3.55045">
        <ele>550.4</ele>
        <time>2021-08-06T16:13:58Z</time>
      </trkpt>
      <trkpt lat="45.06795" lon="3.55049">
        <ele>550.5</ele>
        <time>2021-08-06T16:14:00Z</time>
      </trkpt>
      <trkpt lat="45.06792" lon="3.55051">
        <ele>550.4</ele>
        <time>2021-08-06T16:14:02Z</time>
      </trkpt>
      <trkpt lat="45.06789" lon="3.55053">
        <ele>550.4</ele>
        <time>2021-08-06T16:14:04Z</time>
      </trkpt>
      <trkpt lat="45.06785" lon="3.55056">
        <ele>550.5</ele>
        <time>2021-08-06T16:14:06Z</time>
      </trkpt>
      <trkpt lat="45.06783" lon="3.55058">
        <ele>550.5</ele>
        <time>2021-08-06T16:14:08Z</time>
      </trkpt>
      <trkpt lat="45.06781" lon="3.55059">
        <ele>550.6</ele>
        <time>2021-08-06T16:14:10Z</time>
      </trkpt>
      <trkpt lat="45.06778" lon="3.55062">
        <ele>550.9</ele>
        <time>2021-08-06T16:14:12Z</time>
      </trkpt>
      <trkpt lat="45.06775" lon="3.55067">
        <ele>551.5</ele>
        <time>2021-08-06T16:14:14Z</time>
      </trkpt>
      <trkpt lat="45.06769" lon="3.55073">
        <ele>552.3</ele>
        <time>2021-08-06T16:14:16Z</time>
      </trkpt>
      <trkpt lat="45.06763" lon="3.5508">
        <ele>553.5</ele>
        <time>2021-08-06T16:14:18Z</time>
      </trkpt>
      <trkpt lat="45.06758" lon="3.55087">
        <ele>554.1</ele>
        <time>2021-08-06T16:14:20Z</time>
      </trkpt>
      <trkpt lat="45.06754" lon="3.55092">
        <ele>554.1</ele>
        <time>2021-08-06T16:14:22Z</time>
      </trkpt>
      <trkpt lat="45.06751" lon="3.55097">
        <ele>554.2</ele>
        <time>2021-08-06T16:14:24Z</time>
      </trkpt>
      <trkpt lat="45.06746" lon="3.55102">
        <ele>553</ele>
        <time>2021-08-06T16:14:26Z</time>
      </trkpt>
      <trkpt lat="45.06743" lon="3.55109">
        <ele>551.9</ele>
        <time>2021-08-06T16:14:28Z</time>
      </trkpt>
      <trkpt lat="45.06738" lon="3.55118">
        <ele>550.6</ele>
        <time>2021-08-06T16:14:30Z</time>
      </trkpt>
      <trkpt lat="45.06735" lon="3.55125">
        <ele>549.8</ele>
        <time>2021-08-06T16:14:32Z</time>
      </trkpt>
      <trkpt lat="45.06734" lon="3.55132">
        <ele>549.5</ele>
        <time>2021-08-06T16:14:34Z</time>
      </trkpt>
      <trkpt lat="45.06732" lon="3.55138">
        <ele>549.3</ele>
        <time>2021-08-06T16:14:36Z</time>
      </trkpt>
      <trkpt lat="45.06732" lon="3.55143">
        <ele>549.3</ele>
        <time>2021-08-06T16:14:38Z</time>
      </trkpt>
      <trkpt lat="45.06731" lon="3.55149">
        <ele>549.1</ele>
        <time>2021-08-06T16:14:40Z</time>
      </trkpt>
      <trkpt lat="45.0673" lon="3.55156">
        <ele>549.2</ele>
        <time>2021-08-06T16:14:42Z</time>
      </trkpt>
      <trkpt lat="45.0673" lon="3.55162">
        <ele>549.3</ele>
        <time>2021-08-06T16:14:44Z</time>
      </trkpt>
      <trkpt lat="45.0673" lon="3.55167">
        <ele>549.5</ele>
        <time>2021-08-06T16:14:46Z</time>
      </trkpt>
      <trkpt lat="45.06731" lon="3.55171">
        <ele>549.6</ele>
        <time>2021-08-06T16:14:48Z</time>
      </trkpt>
      <trkpt lat="45.06732" lon="3.55174">
        <ele>549.5</ele>
        <time>2021-08-06T16:14:50Z</time>
      </trkpt>
      <trkpt lat="45.06731" lon="3.55175">
        <ele>549.3</ele>
        <time>2021-08-06T16:14:52Z</time>
      </trkpt>
      <trkpt lat="45.06731" lon="3.55174">
        <ele>549.3</ele>
        <time>2021-08-06T16:14:54Z</time>
      </trkpt>
      <trkpt lat="45.06731" lon="3.55174">
        <ele>549.3</ele>
        <time>2021-08-06T16:14:56Z</time>
      </trkpt>
      <trkpt lat="45.06731" lon="3.55175">
        <ele>549.2</ele>
        <time>2021-08-06T16:14:58Z</time>
      </trkpt>
      <trkpt lat="45.06732" lon="3.55136">
        <ele>549.2</ele>
        <time>2021-08-06T16:15:30Z</time>
      </trkpt>
      <trkpt lat="45.06733" lon="3.55128">
        <ele>549.2</ele>
        <time>2021-08-06T16:15:32Z</time>
      </trkpt>
      <trkpt lat="45.06735" lon="3.5512">
        <ele>549.7</ele>
        <time>2021-08-06T16:15:34Z</time>
      </trkpt>
      <trkpt lat="45.06738" lon="3.55114">
        <ele>550.6</ele>
        <time>2021-08-06T16:15:36Z</time>
      </trkpt>
      <trkpt lat="45.06741" lon="3.55107">
        <ele>551.5</ele>
        <time>2021-08-06T16:15:38Z</time>
      </trkpt>
      <trkpt lat="45.06745" lon="3.55101">
        <ele>552.5</ele>
        <time>2021-08-06T16:15:40Z</time>
      </trkpt>
      <trkpt lat="45.06748" lon="3.55096">
        <ele>553.6</ele>
        <time>2021-08-06T16:15:42Z</time>
      </trkpt>
      <trkpt lat="45.06752" lon="3.55091">
        <ele>554.1</ele>
        <time>2021-08-06T16:15:44Z</time>
      </trkpt>
      <trkpt lat="45.06755" lon="3.55084">
        <ele>554.1</ele>
        <time>2021-08-06T16:15:46Z</time>
      </trkpt>
      <trkpt lat="45.06759" lon="3.55078">
        <ele>553</ele>
        <time>2021-08-06T16:15:48Z</time>
      </trkpt>
      <trkpt lat="45.06764" lon="3.55074">
        <ele>552.2</ele>
        <time>2021-08-06T16:15:50Z</time>
      </trkpt>
      <trkpt lat="45.06768" lon="3.55069">
        <ele>551.5</ele>
        <time>2021-08-06T16:15:52Z</time>
      </trkpt>
      <trkpt lat="45.06772" lon="3.55064">
        <ele>550.8</ele>
        <time>2021-08-06T16:15:54Z</time>
      </trkpt>
      <trkpt lat="45.06775" lon="3.55061">
        <ele>550.5</ele>
        <time>2021-08-06T16:15:56Z</time>
      </trkpt>
      <trkpt lat="45.06779" lon="3.55059">
        <ele>550.4</ele>
        <time>2021-08-06T16:15:58Z</time>
      </trkpt>
      <trkpt lat="45.06781" lon="3.55055">
        <ele>550</ele>
        <time>2021-08-06T16:16:00Z</time>
      </trkpt>
      <trkpt lat="45.06784" lon="3.55053">
        <ele>550</ele>
        <time>2021-08-06T16:16:02Z</time>
      </trkpt>
      <trkpt lat="45.06788" lon="3.5505">
        <ele>549.9</ele>
        <time>2021-08-06T16:16:04Z</time>
      </trkpt>
      <trkpt lat="45.06792" lon="3.55047">
        <ele>550</ele>
        <time>2021-08-06T16:16:06Z</time>
      </trkpt>
      <trkpt lat="45.06794" lon="3.55044">
        <ele>549.8</ele>
        <time>2021-08-06T16:16:08Z</time>
      </trkpt>
      <trkpt lat="45.06795" lon="3.55044">
        <ele>549.9</ele>
        <time>2021-08-06T16:16:10Z</time>
      </trkpt>
      <trkpt lat="45.06795" lon="3.55044">
        <ele>549.9</ele>
        <time>2021-08-06T16:16:12Z</time>
      </trkpt>
      <trkpt lat="45.06795" lon="3.55044">
        <ele>549.9</ele>
        <time>2021-08-06T16:16:14Z</time>
      </trkpt>
      <trkpt lat="45.06794" lon="3.55044">
        <ele>549.9</ele>
        <time>2021-08-06T16:16:16Z</time>
      </trkpt>
      <trkpt lat="45.06794" lon="3.55044">
        <ele>549.9</ele>
        <time>2021-08-06T16:16:18Z</time>
      </trkpt>
      <trkpt lat="45.06785" lon="3.55054">
        <ele>550.2</ele>
        <time>2021-08-06T16:17:36Z</time>
      </trkpt>
      <trkpt lat="45.06783" lon="3.55056">
        <ele>550.3</ele>
        <time>2021-08-06T16:17:38Z</time>
      </trkpt>
      <trkpt lat="45.06783" lon="3.55058">
        <ele>550.6</ele>
        <time>2021-08-06T16:17:40Z</time>
      </trkpt>
      <trkpt lat="45.06781" lon="3.55057">
        <ele>550.4</ele>
        <time>2021-08-06T16:17:42Z</time>
      </trkpt>
      <trkpt lat="45.06782" lon="3.55054">
        <ele>549.9</ele>
        <time>2021-08-06T16:17:44Z</time>
      </trkpt>
      <trkpt lat="45.06786" lon="3.55051">
        <ele>549.8</ele>
        <time>2021-08-06T16:17:46Z</time>
      </trkpt>
      <trkpt lat="45.06793" lon="3.55045">
        <ele>549.9</ele>
        <time>2021-08-06T16:17:48Z</time>
      </trkpt>
      <trkpt lat="45.06799" lon="3.55045">
        <ele>550.4</ele>
        <time>2021-08-06T16:17:50Z</time>
      </trkpt>
      <trkpt lat="45.06801" lon="3.55045">
        <ele>550.7</ele>
        <time>2021-08-06T16:17:52Z</time>
      </trkpt>
      <trkpt lat="45.06804" lon="3.55045">
        <ele>551.1</ele>
        <time>2021-08-06T16:17:54Z</time>
      </trkpt>
      <trkpt lat="45.06806" lon="3.55047">
        <ele>551.5</ele>
        <time>2021-08-06T16:17:56Z</time>
      </trkpt>
      <trkpt lat="45.06808" lon="3.55048">
        <ele>551.9</ele>
        <time>2021-08-06T16:17:58Z</time>
      </trkpt>
      <trkpt lat="45.06811" lon="3.55049">
        <ele>552.2</ele>
        <time>2021-08-06T16:18:00Z</time>
      </trkpt>
      <trkpt lat="45.06814" lon="3.55046">
        <ele>552.3</ele>
        <time>2021-08-06T16:18:02Z</time>
      </trkpt>
      <trkpt lat="45.06816" lon="3.55044">
        <ele>552.5</ele>
        <time>2021-08-06T16:18:04Z</time>
      </trkpt>
      <trkpt lat="45.06819" lon="3.55042">
        <ele>552.7</ele>
        <time>2021-08-06T16:18:06Z</time>
      </trkpt>
      <trkpt lat="45.06821" lon="3.55039">
        <ele>552.8</ele>
        <time>2021-08-06T16:18:08Z</time>
      </trkpt>
      <trkpt lat="45.06824" lon="3.55035">
        <ele>553.1</ele>
        <time>2021-08-06T16:18:10Z</time>
      </trkpt>
      <trkpt lat="45.06827" lon="3.55036">
        <ele>553.5</ele>
        <time>2021-08-06T16:18:12Z</time>
      </trkpt>
      <trkpt lat="45.06829" lon="3.55041">
        <ele>553.9</ele>
        <time>2021-08-06T16:18:14Z</time>
      </trkpt>
      <trkpt lat="45.0683" lon="3.55045">
        <ele>554.1</ele>
        <time>2021-08-06T16:18:16Z</time>
      </trkpt>
      <trkpt lat="45.06831" lon="3.55049">
        <ele>554.4</ele>
        <time>2021-08-06T16:18:18Z</time>
      </trkpt>
      <trkpt lat="45.06832" lon="3.55052">
        <ele>554.5</ele>
        <time>2021-08-06T16:18:20Z</time>
      </trkpt>
      <trkpt lat="45.06834" lon="3.55054">
        <ele>554.4</ele>
        <time>2021-08-06T16:18:22Z</time>
      </trkpt>
      <trkpt lat="45.06837" lon="3.55053">
        <ele>553.8</ele>
        <time>2021-08-06T16:18:24Z</time>
      </trkpt>
      <trkpt lat="45.06838" lon="3.55054">
        <ele>553.3</ele>
        <time>2021-08-06T16:18:26Z</time>
      </trkpt>
      <trkpt lat="45.0684" lon="3.55055">
        <ele>552.9</ele>
        <time>2021-08-06T16:18:28Z</time>
      </trkpt>
      <trkpt lat="45.06841" lon="3.55057">
        <ele>552.6</ele>
        <time>2021-08-06T16:18:30Z</time>
      </trkpt>
      <trkpt lat="45.06842" lon="3.55057">
        <ele>552.4</ele>
        <time>2021-08-06T16:18:32Z</time>
      </trkpt>
      <trkpt lat="45.06842" lon="3.55057">
        <ele>552.4</ele>
        <time>2021-08-06T16:18:34Z</time>
      </trkpt>
      <trkpt lat="45.06842" lon="3.55057">
        <ele>552.4</ele>
        <time>2021-08-06T16:18:36Z</time>
      </trkpt>
      <trkpt lat="45.06842" lon="3.55057">
        <ele>552.3</ele>
        <time>2021-08-06T16:18:38Z</time>
      </trkpt>
      <trkpt lat="45.06842" lon="3.55057">
        <ele>552.3</ele>
        <time>2021-08-06T16:18:40Z</time>
      </trkpt>
      <trkpt lat="45.06843" lon="3.55057">
        <ele>552.2</ele>
        <time>2021-08-06T16:18:42Z</time>
      </trkpt>
      <trkpt lat="45.06843" lon="3.55057">
        <ele>552.2</ele>
        <time>2021-08-06T16:18:44Z</time>
      </trkpt>
      <trkpt lat="45.06842" lon="3.55057">
        <ele>552.3</ele>
        <time>2021-08-06T16:18:46Z</time>
      </trkpt>
      <trkpt lat="45.06842" lon="3.55057">
        <ele>552.4</ele>
        <time>2021-08-06T16:18:48Z</time>
      </trkpt>
      <trkpt lat="45.06842" lon="3.55057">
        <ele>552.4</ele>
        <time>2021-08-06T16:18:50Z</time>
      </trkpt>
      <trkpt lat="45.06842" lon="3.55057">
        <ele>552.4</ele>
        <time>2021-08-06T16:18:52Z</time>
      </trkpt>
      <trkpt lat="45.06841" lon="3.55058">
        <ele>552.5</ele>
        <time>2021-08-06T16:18:56Z</time>
      </trkpt>
      <trkpt lat="45.06842" lon="3.55057">
        <ele>552.4</ele>
        <time>2021-08-06T16:18:58Z</time>
      </trkpt>
      <trkpt lat="45.06842" lon="3.55057">
        <ele>552.3</ele>
        <time>2021-08-06T16:19:00Z</time>
      </trkpt>
      <trkpt lat="45.06843" lon="3.55057">
        <ele>552.2</ele>
        <time>2021-08-06T16:19:02Z</time>
      </trkpt>
      <trkpt lat="45.06843" lon="3.55057">
        <ele>552.2</ele>
        <time>2021-08-06T16:19:04Z</time>
      </trkpt>
      <trkpt lat="45.06843" lon="3.55057">
        <ele>552.1</ele>
        <time>2021-08-06T16:19:06Z</time>
      </trkpt>
      <trkpt lat="45.06843" lon="3.55057">
        <ele>552.1</ele>
        <time>2021-08-06T16:19:08Z</time>
      </trkpt>
      <trkpt lat="45.06843" lon="3.55057">
        <ele>552.1</ele>
        <time>2021-08-06T16:19:10Z</time>
      </trkpt>
      <trkpt lat="45.06843" lon="3.55056">
        <ele>552</ele>
        <time>2021-08-06T16:19:14Z</time>
      </trkpt>
      <trkpt lat="45.06843" lon="3.55056">
        <ele>552</ele>
        <time>2021-08-06T16:19:18Z</time>
      </trkpt>
      <trkpt lat="45.06843" lon="3.55056">
        <ele>552</ele>
        <time>2021-08-06T16:19:22Z</time>
      </trkpt>
      <trkpt lat="45.06843" lon="3.55055">
        <ele>552</ele>
        <time>2021-08-06T16:19:24Z</time>
      </trkpt>
      <trkpt lat="45.06844" lon="3.55055">
        <ele>551.9</ele>
        <time>2021-08-06T16:19:26Z</time>
      </trkpt>
      <trkpt lat="45.06843" lon="3.55056">
        <ele>552.2</ele>
        <time>2021-08-06T16:19:28Z</time>
      </trkpt>
      <trkpt lat="45.06842" lon="3.55058">
        <ele>552.4</ele>
        <time>2021-08-06T16:19:30Z</time>
      </trkpt>
      <trkpt lat="45.06841" lon="3.55059">
        <ele>552.8</ele>
        <time>2021-08-06T16:19:32Z</time>
      </trkpt>
      <trkpt lat="45.0684" lon="3.55063">
        <ele>552.9</ele>
        <time>2021-08-06T16:19:34Z</time>
      </trkpt>
      <trkpt lat="45.06838" lon="3.55064">
        <ele>553.3</ele>
        <time>2021-08-06T16:19:36Z</time>
      </trkpt>
      <trkpt lat="45.06837" lon="3.55067">
        <ele>553.7</ele>
        <time>2021-08-06T16:19:38Z</time>
      </trkpt>
      <trkpt lat="45.06837" lon="3.5507">
        <ele>553.9</ele>
        <time>2021-08-06T16:19:40Z</time>
      </trkpt>
      <trkpt lat="45.06837" lon="3.55073">
        <ele>553.9</ele>
        <time>2021-08-06T16:19:42Z</time>
      </trkpt>
      <trkpt lat="45.06836" lon="3.55075">
        <ele>554.1</ele>
        <time>2021-08-06T16:19:44Z</time>
      </trkpt>
      <trkpt lat="45.06835" lon="3.55077">
        <ele>554.5</ele>
        <time>2021-08-06T16:19:46Z</time>
      </trkpt>
      <trkpt lat="45.06833" lon="3.55079">
        <ele>554.9</ele>
        <time>2021-08-06T16:19:48Z</time>
      </trkpt>
      <trkpt lat="45.06832" lon="3.55081">
        <ele>554.9</ele>
        <time>2021-08-06T16:19:50Z</time>
      </trkpt>
      <trkpt lat="45.06831" lon="3.55082">
        <ele>555</ele>
        <time>2021-08-06T16:19:52Z</time>
      </trkpt>
      <trkpt lat="45.06831" lon="3.55084">
        <ele>554.9</ele>
        <time>2021-08-06T16:19:54Z</time>
      </trkpt>
      <trkpt lat="45.06829" lon="3.55085">
        <ele>554.6</ele>
        <time>2021-08-06T16:19:56Z</time>
      </trkpt>
      <trkpt lat="45.06829" lon="3.55086">
        <ele>554.5</ele>
        <time>2021-08-06T16:19:58Z</time>
      </trkpt>
      <trkpt lat="45.06827" lon="3.55088">
        <ele>554.2</ele>
        <time>2021-08-06T16:20:00Z</time>
      </trkpt>
      <trkpt lat="45.06825" lon="3.55091">
        <ele>553.7</ele>
        <time>2021-08-06T16:20:02Z</time>
      </trkpt>
      <trkpt lat="45.06825" lon="3.55093">
        <ele>553.4</ele>
        <time>2021-08-06T16:20:04Z</time>
      </trkpt>
      <trkpt lat="45.06823" lon="3.55095">
        <ele>553.1</ele>
        <time>2021-08-06T16:20:06Z</time>
      </trkpt>
      <trkpt lat="45.06822" lon="3.55097">
        <ele>552.8</ele>
        <time>2021-08-06T16:20:08Z</time>
      </trkpt>
      <trkpt lat="45.06821" lon="3.55099">
        <ele>552.5</ele>
        <time>2021-08-06T16:20:10Z</time>
      </trkpt>
      <trkpt lat="45.0682" lon="3.551">
        <ele>552.4</ele>
        <time>2021-08-06T16:20:12Z</time>
      </trkpt>
      <trkpt lat="45.06819" lon="3.55102">
        <ele>552.2</ele>
        <time>2021-08-06T16:20:14Z</time>
      </trkpt>
      <trkpt lat="45.06819" lon="3.55104">
        <ele>551.9</ele>
        <time>2021-08-06T16:20:16Z</time>
      </trkpt>
      <trkpt lat="45.06818" lon="3.55105">
        <ele>551.6</ele>
        <time>2021-08-06T16:20:18Z</time>
      </trkpt>
      <trkpt lat="45.06817" lon="3.55107">
        <ele>551.4</ele>
        <time>2021-08-06T16:20:20Z</time>
      </trkpt>
      <trkpt lat="45.06817" lon="3.55108">
        <ele>551.2</ele>
        <time>2021-08-06T16:20:22Z</time>
      </trkpt>
      <trkpt lat="45.06817" lon="3.55108">
        <ele>551.3</ele>
        <time>2021-08-06T16:20:24Z</time>
      </trkpt>
      <trkpt lat="45.06817" lon="3.55108">
        <ele>551.2</ele>
        <time>2021-08-06T16:20:26Z</time>
      </trkpt>
      <trkpt lat="45.06818" lon="3.55109">
        <ele>551.1</ele>
        <time>2021-08-06T16:20:28Z</time>
      </trkpt>
      <trkpt lat="45.06818" lon="3.55109">
        <ele>551.1</ele>
        <time>2021-08-06T16:20:30Z</time>
      </trkpt>
      <trkpt lat="45.06818" lon="3.55109">
        <ele>551.1</ele>
        <time>2021-08-06T16:20:32Z</time>
      </trkpt>
      <trkpt lat="45.06818" lon="3.55109">
        <ele>551.1</ele>
        <time>2021-08-06T16:20:34Z</time>
      </trkpt>
      <trkpt lat="45.06818" lon="3.55109">
        <ele>551.1</ele>
        <time>2021-08-06T16:20:36Z</time>
      </trkpt>
      <trkpt lat="45.06818" lon="3.55109">
        <ele>551.1</ele>
        <time>2021-08-06T16:20:38Z</time>
      </trkpt>
      <trkpt lat="45.06818" lon="3.55109">
        <ele>551.1</ele>
        <time>2021-08-06T16:20:40Z</time>
      </trkpt>
      <trkpt lat="45.06818" lon="3.55109">
        <ele>551.1</ele>
        <time>2021-08-06T16:20:42Z</time>
      </trkpt>
      <trkpt lat="45.06818" lon="3.55109">
        <ele>551.1</ele>
        <time>2021-08-06T16:20:44Z</time>
      </trkpt>
      <trkpt lat="45.06818" lon="3.55109">
        <ele>551.1</ele>
        <time>2021-08-06T16:20:46Z</time>
      </trkpt>
      <trkpt lat="45.06818" lon="3.55109">
        <ele>551.1</ele>
        <time>2021-08-06T16:20:48Z</time>
      </trkpt>
      <trkpt lat="45.06818" lon="3.55109">
        <ele>551.2</ele>
        <time>2021-08-06T16:20:50Z</time>
      </trkpt>
      <trkpt lat="45.06818" lon="3.55108">
        <ele>551.2</ele>
        <time>2021-08-06T16:20:52Z</time>
      </trkpt>
      <trkpt lat="45.06818" lon="3.55108">
        <ele>551.3</ele>
        <time>2021-08-06T16:20:54Z</time>
      </trkpt>
      <trkpt lat="45.06817" lon="3.55107">
        <ele>551.4</ele>
        <time>2021-08-06T16:20:56Z</time>
      </trkpt>
      <trkpt lat="45.06818" lon="3.55107">
        <ele>551.4</ele>
        <time>2021-08-06T16:20:58Z</time>
      </trkpt>
      <trkpt lat="45.06817" lon="3.55107">
        <ele>551.4</ele>
        <time>2021-08-06T16:21:00Z</time>
      </trkpt>
      <trkpt lat="45.06817" lon="3.55106">
        <ele>551.5</ele>
        <time>2021-08-06T16:21:02Z</time>
      </trkpt>
      <trkpt lat="45.06817" lon="3.55106">
        <ele>551.6</ele>
        <time>2021-08-06T16:21:04Z</time>
      </trkpt>
      <trkpt lat="45.06817" lon="3.55106">
        <ele>551.6</ele>
        <time>2021-08-06T16:21:06Z</time>
      </trkpt>
      <trkpt lat="45.06817" lon="3.55105">
        <ele>551.7</ele>
        <time>2021-08-06T16:21:08Z</time>
      </trkpt>
      <trkpt lat="45.06816" lon="3.55105">
        <ele>551.7</ele>
        <time>2021-08-06T16:21:10Z</time>
      </trkpt>
      <trkpt lat="45.06815" lon="3.55106">
        <ele>551.6</ele>
        <time>2021-08-06T16:21:12Z</time>
      </trkpt>
      <trkpt lat="45.06816" lon="3.55107">
        <ele>551.5</ele>
        <time>2021-08-06T16:21:14Z</time>
      </trkpt>
      <trkpt lat="45.06816" lon="3.55107">
        <ele>551.5</ele>
        <time>2021-08-06T16:21:16Z</time>
      </trkpt>
      <trkpt lat="45.06815" lon="3.55106">
        <ele>551.6</ele>
        <time>2021-08-06T16:21:18Z</time>
      </trkpt>
      <trkpt lat="45.06815" lon="3.55106">
        <ele>551.6</ele>
        <time>2021-08-06T16:21:20Z</time>
      </trkpt>
      <trkpt lat="45.06815" lon="3.55106">
        <ele>551.6</ele>
        <time>2021-08-06T16:21:22Z</time>
      </trkpt>
      <trkpt lat="45.06815" lon="3.55107">
        <ele>551.6</ele>
        <time>2021-08-06T16:21:24Z</time>
      </trkpt>
      <trkpt lat="45.06816" lon="3.55107">
        <ele>551.5</ele>
        <time>2021-08-06T16:21:26Z</time>
      </trkpt>
      <trkpt lat="45.06815" lon="3.55107">
        <ele>551.5</ele>
        <time>2021-08-06T16:21:28Z</time>
      </trkpt>
      <trkpt lat="45.06815" lon="3.55105">
        <ele>551.7</ele>
        <time>2021-08-06T16:21:30Z</time>
      </trkpt>
      <trkpt lat="45.06814" lon="3.55105">
        <ele>551.9</ele>
        <time>2021-08-06T16:21:32Z</time>
      </trkpt>
      <trkpt lat="45.06812" lon="3.55104">
        <ele>552</ele>
        <time>2021-08-06T16:21:34Z</time>
      </trkpt>
      <trkpt lat="45.06811" lon="3.55103">
        <ele>552.3</ele>
        <time>2021-08-06T16:21:36Z</time>
      </trkpt>
      <trkpt lat="45.0681" lon="3.55102">
        <ele>552.4</ele>
        <time>2021-08-06T16:21:38Z</time>
      </trkpt>
      <trkpt lat="45.06809" lon="3.55101">
        <ele>552.5</ele>
        <time>2021-08-06T16:21:40Z</time>
      </trkpt>
      <trkpt lat="45.06808" lon="3.55101">
        <ele>552.6</ele>
        <time>2021-08-06T16:21:42Z</time>
      </trkpt>
      <trkpt lat="45.06808" lon="3.55101">
        <ele>552.5</ele>
        <time>2021-08-06T16:21:44Z</time>
      </trkpt>
      <trkpt lat="45.06807" lon="3.55101">
        <ele>552.6</ele>
        <time>2021-08-06T16:21:46Z</time>
      </trkpt>
      <trkpt lat="45.06807" lon="3.551">
        <ele>552.7</ele>
        <time>2021-08-06T16:21:48Z</time>
      </trkpt>
      <trkpt lat="45.06807" lon="3.551">
        <ele>552.7</ele>
        <time>2021-08-06T16:21:50Z</time>
      </trkpt>
      <trkpt lat="45.06807" lon="3.55101">
        <ele>552.6</ele>
        <time>2021-08-06T16:21:52Z</time>
      </trkpt>
      <trkpt lat="45.06807" lon="3.55101">
        <ele>552.6</ele>
        <time>2021-08-06T16:21:54Z</time>
      </trkpt>
      <trkpt lat="45.06807" lon="3.55101">
        <ele>552.6</ele>
        <time>2021-08-06T16:21:56Z</time>
      </trkpt>
      <trkpt lat="45.06808" lon="3.55099">
        <ele>552.8</ele>
        <time>2021-08-06T16:21:58Z</time>
      </trkpt>
      <trkpt lat="45.06807" lon="3.551">
        <ele>552.7</ele>
        <time>2021-08-06T16:22:00Z</time>
      </trkpt>
      <trkpt lat="45.06808" lon="3.551">
        <ele>552.7</ele>
        <time>2021-08-06T16:22:02Z</time>
      </trkpt>
      <trkpt lat="45.06808" lon="3.551">
        <ele>552.7</ele>
        <time>2021-08-06T16:22:04Z</time>
      </trkpt>
      <trkpt lat="45.06808" lon="3.551">
        <ele>552.6</ele>
        <time>2021-08-06T16:22:06Z</time>
      </trkpt>
      <trkpt lat="45.06808" lon="3.55101">
        <ele>552.6</ele>
        <time>2021-08-06T16:22:08Z</time>
      </trkpt>
      <trkpt lat="45.06809" lon="3.551">
        <ele>552.7</ele>
        <time>2021-08-06T16:22:10Z</time>
      </trkpt>
      <trkpt lat="45.06809" lon="3.55101">
        <ele>552.5</ele>
        <time>2021-08-06T16:22:12Z</time>
      </trkpt>
      <trkpt lat="45.06809" lon="3.55102">
        <ele>552.4</ele>
        <time>2021-08-06T16:22:14Z</time>
      </trkpt>
      <trkpt lat="45.06808" lon="3.55102">
        <ele>552.4</ele>
        <time>2021-08-06T16:22:16Z</time>
      </trkpt>
      <trkpt lat="45.06808" lon="3.55102">
        <ele>552.4</ele>
        <time>2021-08-06T16:22:18Z</time>
      </trkpt>
      <trkpt lat="45.06807" lon="3.55101">
        <ele>552.6</ele>
        <time>2021-08-06T16:22:20Z</time>
      </trkpt>
      <trkpt lat="45.06807" lon="3.55099">
        <ele>552.8</ele>
        <time>2021-08-06T16:22:22Z</time>
      </trkpt>
      <trkpt lat="45.06806" lon="3.55098">
        <ele>553</ele>
        <time>2021-08-06T16:22:24Z</time>
      </trkpt>
      <trkpt lat="45.06805" lon="3.55096">
        <ele>553.2</ele>
        <time>2021-08-06T16:22:26Z</time>
      </trkpt>
      <trkpt lat="45.06805" lon="3.55096">
        <ele>553.2</ele>
        <time>2021-08-06T16:22:28Z</time>
      </trkpt>
      <trkpt lat="45.06805" lon="3.55096">
        <ele>553.2</ele>
        <time>2021-08-06T16:22:30Z</time>
      </trkpt>
      <trkpt lat="45.06804" lon="3.55097">
        <ele>553.2</ele>
        <time>2021-08-06T16:22:32Z</time>
      </trkpt>
      <trkpt lat="45.06804" lon="3.55097">
        <ele>553.1</ele>
        <time>2021-08-06T16:22:34Z</time>
      </trkpt>
      <trkpt lat="45.06804" lon="3.55097">
        <ele>553.1</ele>
        <time>2021-08-06T16:22:36Z</time>
      </trkpt>
      <trkpt lat="45.06804" lon="3.55097">
        <ele>553.1</ele>
        <time>2021-08-06T16:22:38Z</time>
      </trkpt>
      <trkpt lat="45.06804" lon="3.55096">
        <ele>553.2</ele>
        <time>2021-08-06T16:22:40Z</time>
      </trkpt>
      <trkpt lat="45.06804" lon="3.55097">
        <ele>553.2</ele>
        <time>2021-08-06T16:22:42Z</time>
      </trkpt>
      <trkpt lat="45.06804" lon="3.55097">
        <ele>553.1</ele>
        <time>2021-08-06T16:22:44Z</time>
      </trkpt>
      <trkpt lat="45.06804" lon="3.55097">
        <ele>553.1</ele>
        <time>2021-08-06T16:22:46Z</time>
      </trkpt>
      <trkpt lat="45.06804" lon="3.55097">
        <ele>553.1</ele>
        <time>2021-08-06T16:22:48Z</time>
      </trkpt>
      <trkpt lat="45.06804" lon="3.55097">
        <ele>553.1</ele>
        <time>2021-08-06T16:22:50Z</time>
      </trkpt>
      <trkpt lat="45.06803" lon="3.55097">
        <ele>553.1</ele>
        <time>2021-08-06T16:22:52Z</time>
      </trkpt>
      <trkpt lat="45.06803" lon="3.55097">
        <ele>553.1</ele>
        <time>2021-08-06T16:22:54Z</time>
      </trkpt>
      <trkpt lat="45.06804" lon="3.55098">
        <ele>553</ele>
        <time>2021-08-06T16:22:56Z</time>
      </trkpt>
      <trkpt lat="45.06805" lon="3.55097">
        <ele>553</ele>
        <time>2021-08-06T16:22:58Z</time>
      </trkpt>
      <trkpt lat="45.06805" lon="3.55098">
        <ele>553</ele>
        <time>2021-08-06T16:23:00Z</time>
      </trkpt>
      <trkpt lat="45.06806" lon="3.55098">
        <ele>553</ele>
        <time>2021-08-06T16:23:02Z</time>
      </trkpt>
      <trkpt lat="45.06806" lon="3.55098">
        <ele>553</ele>
        <time>2021-08-06T16:23:04Z</time>
      </trkpt>
      <trkpt lat="45.06806" lon="3.55098">
        <ele>553</ele>
        <time>2021-08-06T16:23:06Z</time>
      </trkpt>
      <trkpt lat="45.06806" lon="3.55098">
        <ele>553</ele>
        <time>2021-08-06T16:23:08Z</time>
      </trkpt>
      <trkpt lat="45.06807" lon="3.55098">
        <ele>553</ele>
        <time>2021-08-06T16:23:10Z</time>
      </trkpt>
      <trkpt lat="45.06808" lon="3.55098">
        <ele>553</ele>
        <time>2021-08-06T16:23:12Z</time>
      </trkpt>
      <trkpt lat="45.06808" lon="3.55098">
        <ele>552.9</ele>
        <time>2021-08-06T16:23:14Z</time>
      </trkpt>
      <trkpt lat="45.06808" lon="3.55098">
        <ele>552.9</ele>
        <time>2021-08-06T16:23:16Z</time>
      </trkpt>
      <trkpt lat="45.06808" lon="3.55097">
        <ele>553</ele>
        <time>2021-08-06T16:23:18Z</time>
      </trkpt>
      <trkpt lat="45.06807" lon="3.55097">
        <ele>553.1</ele>
        <time>2021-08-06T16:23:20Z</time>
      </trkpt>
      <trkpt lat="45.06807" lon="3.55097">
        <ele>553.1</ele>
        <time>2021-08-06T16:23:22Z</time>
      </trkpt>
      <trkpt lat="45.06807" lon="3.55097">
        <ele>553.1</ele>
        <time>2021-08-06T16:23:24Z</time>
      </trkpt>
      <trkpt lat="45.06807" lon="3.55096">
        <ele>553.2</ele>
        <time>2021-08-06T16:23:26Z</time>
      </trkpt>
      <trkpt lat="45.06807" lon="3.55096">
        <ele>553.2</ele>
        <time>2021-08-06T16:23:28Z</time>
      </trkpt>
      <trkpt lat="45.06807" lon="3.55096">
        <ele>553.2</ele>
        <time>2021-08-06T16:23:30Z</time>
      </trkpt>
      <trkpt lat="45.06807" lon="3.55096">
        <ele>553.2</ele>
        <time>2021-08-06T16:23:32Z</time>
      </trkpt>
      <trkpt lat="45.06807" lon="3.55096">
        <ele>553.1</ele>
        <time>2021-08-06T16:23:34Z</time>
      </trkpt>
      <trkpt lat="45.06807" lon="3.55097">
        <ele>553.1</ele>
        <time>2021-08-06T16:23:36Z</time>
      </trkpt>
      <trkpt lat="45.06807" lon="3.55097">
        <ele>553</ele>
        <time>2021-08-06T16:23:38Z</time>
      </trkpt>
      <trkpt lat="45.06807" lon="3.55098">
        <ele>552.9</ele>
        <time>2021-08-06T16:23:40Z</time>
      </trkpt>
      <trkpt lat="45.06806" lon="3.55101">
        <ele>552.6</ele>
        <time>2021-08-06T16:23:42Z</time>
      </trkpt>
      <trkpt lat="45.06804" lon="3.55102">
        <ele>552.5</ele>
        <time>2021-08-06T16:23:44Z</time>
      </trkpt>
      <trkpt lat="45.06803" lon="3.55104">
        <ele>552.4</ele>
        <time>2021-08-06T16:23:46Z</time>
      </trkpt>
      <trkpt lat="45.06801" lon="3.55106">
        <ele>552.2</ele>
        <time>2021-08-06T16:23:48Z</time>
      </trkpt>
      <trkpt lat="45.06799" lon="3.55108">
        <ele>552.1</ele>
        <time>2021-08-06T16:23:50Z</time>
      </trkpt>
      <trkpt lat="45.06798" lon="3.55109">
        <ele>552</ele>
        <time>2021-08-06T16:23:52Z</time>
      </trkpt>
      <trkpt lat="45.06797" lon="3.55113">
        <ele>551.7</ele>
        <time>2021-08-06T16:23:54Z</time>
      </trkpt>
      <trkpt lat="45.06796" lon="3.55115">
        <ele>551.6</ele>
        <time>2021-08-06T16:23:56Z</time>
      </trkpt>
      <trkpt lat="45.06794" lon="3.55117">
        <ele>551.5</ele>
        <time>2021-08-06T16:23:58Z</time>
      </trkpt>
      <trkpt lat="45.06792" lon="3.55119">
        <ele>551.5</ele>
        <time>2021-08-06T16:24:00Z</time>
      </trkpt>
      <trkpt lat="45.0679" lon="3.5512">
        <ele>551.5</ele>
        <time>2021-08-06T16:24:02Z</time>
      </trkpt>
      <trkpt lat="45.06789" lon="3.55123">
        <ele>551.4</ele>
        <time>2021-08-06T16:24:04Z</time>
      </trkpt>
      <trkpt lat="45.06788" lon="3.55125">
        <ele>551.4</ele>
        <time>2021-08-06T16:24:06Z</time>
      </trkpt>
      <trkpt lat="45.06785" lon="3.55126">
        <ele>551.5</ele>
        <time>2021-08-06T16:24:08Z</time>
      </trkpt>
      <trkpt lat="45.06783" lon="3.55126">
        <ele>551.7</ele>
        <time>2021-08-06T16:24:10Z</time>
      </trkpt>
      <trkpt lat="45.06782" lon="3.55127">
        <ele>551.7</ele>
        <time>2021-08-06T16:24:12Z</time>
      </trkpt>
      <trkpt lat="45.06779" lon="3.55129">
        <ele>551.8</ele>
        <time>2021-08-06T16:24:14Z</time>
      </trkpt>
      <trkpt lat="45.06778" lon="3.55131">
        <ele>551.8</ele>
        <time>2021-08-06T16:24:16Z</time>
      </trkpt>
      <trkpt lat="45.06777" lon="3.55133">
        <ele>551.8</ele>
        <time>2021-08-06T16:24:18Z</time>
      </trkpt>
      <trkpt lat="45.06776" lon="3.55134">
        <ele>551.8</ele>
        <time>2021-08-06T16:24:20Z</time>
      </trkpt>
      <trkpt lat="45.06776" lon="3.55135">
        <ele>551.9</ele>
        <time>2021-08-06T16:24:22Z</time>
      </trkpt>
      <trkpt lat="45.06775" lon="3.55135">
        <ele>551.9</ele>
        <time>2021-08-06T16:24:24Z</time>
      </trkpt>
      <trkpt lat="45.06774" lon="3.55138">
        <ele>551.9</ele>
        <time>2021-08-06T16:24:26Z</time>
      </trkpt>
      <trkpt lat="45.06773" lon="3.5514">
        <ele>552</ele>
        <time>2021-08-06T16:24:28Z</time>
      </trkpt>
      <trkpt lat="45.06772" lon="3.55141">
        <ele>552</ele>
        <time>2021-08-06T16:24:30Z</time>
      </trkpt>
      <trkpt lat="45.06771" lon="3.55143">
        <ele>552.1</ele>
        <time>2021-08-06T16:24:32Z</time>
      </trkpt>
      <trkpt lat="45.0677" lon="3.55145">
        <ele>552.2</ele>
        <time>2021-08-06T16:24:34Z</time>
      </trkpt>
      <trkpt lat="45.0677" lon="3.55144">
        <ele>552.2</ele>
        <time>2021-08-06T16:24:36Z</time>
      </trkpt>
      <trkpt lat="45.0677" lon="3.55143">
        <ele>552.2</ele>
        <time>2021-08-06T16:24:38Z</time>
      </trkpt>
      <trkpt lat="45.0677" lon="3.55143">
        <ele>552.2</ele>
        <time>2021-08-06T16:24:40Z</time>
      </trkpt>
      <trkpt lat="45.0677" lon="3.55144">
        <ele>552.2</ele>
        <time>2021-08-06T16:24:42Z</time>
      </trkpt>
      <trkpt lat="45.0677" lon="3.55144">
        <ele>552.2</ele>
        <time>2021-08-06T16:24:44Z</time>
      </trkpt>
      <trkpt lat="45.0677" lon="3.55144">
        <ele>552.2</ele>
        <time>2021-08-06T16:24:46Z</time>
      </trkpt>
      <trkpt lat="45.0677" lon="3.55144">
        <ele>552.1</ele>
        <time>2021-08-06T16:24:48Z</time>
      </trkpt>
      <trkpt lat="45.06771" lon="3.55144">
        <ele>552.1</ele>
        <time>2021-08-06T16:24:50Z</time>
      </trkpt>
      <trkpt lat="45.06771" lon="3.55144">
        <ele>552</ele>
        <time>2021-08-06T16:24:52Z</time>
      </trkpt>
      <trkpt lat="45.06771" lon="3.55144">
        <ele>552</ele>
        <time>2021-08-06T16:24:54Z</time>
      </trkpt>
      <trkpt lat="45.06771" lon="3.55144">
        <ele>552</ele>
        <time>2021-08-06T16:24:56Z</time>
      </trkpt>
      <trkpt lat="45.06772" lon="3.55144">
        <ele>552</ele>
        <time>2021-08-06T16:24:58Z</time>
      </trkpt>
      <trkpt lat="45.06772" lon="3.55144">
        <ele>552</ele>
        <time>2021-08-06T16:25:00Z</time>
      </trkpt>
      <trkpt lat="45.06772" lon="3.55144">
        <ele>552</ele>
        <time>2021-08-06T16:25:02Z</time>
      </trkpt>
      <trkpt lat="45.06772" lon="3.55144">
        <ele>551.9</ele>
        <time>2021-08-06T16:25:04Z</time>
      </trkpt>
      <trkpt lat="45.06772" lon="3.55144">
        <ele>551.9</ele>
        <time>2021-08-06T16:25:06Z</time>
      </trkpt>
      <trkpt lat="45.06772" lon="3.55145">
        <ele>551.9</ele>
        <time>2021-08-06T16:25:08Z</time>
      </trkpt>
      <trkpt lat="45.06772" lon="3.55145">
        <ele>551.9</ele>
        <time>2021-08-06T16:25:10Z</time>
      </trkpt>
      <trkpt lat="45.06772" lon="3.55145">
        <ele>551.9</ele>
        <time>2021-08-06T16:25:12Z</time>
      </trkpt>
      <trkpt lat="45.06772" lon="3.55145">
        <ele>551.9</ele>
        <time>2021-08-06T16:25:14Z</time>
      </trkpt>
      <trkpt lat="45.06772" lon="3.55144">
        <ele>551.9</ele>
        <time>2021-08-06T16:25:16Z</time>
      </trkpt>
      <trkpt lat="45.06772" lon="3.55145">
        <ele>551.9</ele>
        <time>2021-08-06T16:25:18Z</time>
      </trkpt>
      <trkpt lat="45.06772" lon="3.55145">
        <ele>552</ele>
        <time>2021-08-06T16:25:20Z</time>
      </trkpt>
      <trkpt lat="45.06772" lon="3.55145">
        <ele>551.9</ele>
        <time>2021-08-06T16:25:22Z</time>
      </trkpt>
      <trkpt lat="45.06771" lon="3.55145">
        <ele>552</ele>
        <time>2021-08-06T16:25:24Z</time>
      </trkpt>
      <trkpt lat="45.06771" lon="3.55145">
        <ele>552</ele>
        <time>2021-08-06T16:25:26Z</time>
      </trkpt>
      <trkpt lat="45.06771" lon="3.55145">
        <ele>552</ele>
        <time>2021-08-06T16:25:28Z</time>
      </trkpt>
      <trkpt lat="45.06771" lon="3.55145">
        <ele>552</ele>
        <time>2021-08-06T16:25:30Z</time>
      </trkpt>
      <trkpt lat="45.06771" lon="3.55145">
        <ele>552</ele>
        <time>2021-08-06T16:25:32Z</time>
      </trkpt>
      <trkpt lat="45.06771" lon="3.55145">
        <ele>551.9</ele>
        <time>2021-08-06T16:25:34Z</time>
      </trkpt>
      <trkpt lat="45.06771" lon="3.55145">
        <ele>552</ele>
        <time>2021-08-06T16:25:36Z</time>
      </trkpt>
      <trkpt lat="45.06771" lon="3.55145">
        <ele>552</ele>
        <time>2021-08-06T16:25:38Z</time>
      </trkpt>
      <trkpt lat="45.06772" lon="3.55145">
        <ele>551.9</ele>
        <time>2021-08-06T16:25:40Z</time>
      </trkpt>
      <trkpt lat="45.06772" lon="3.55145">
        <ele>551.9</ele>
        <time>2021-08-06T16:25:42Z</time>
      </trkpt>
      <trkpt lat="45.06772" lon="3.55145">
        <ele>551.9</ele>
        <time>2021-08-06T16:25:44Z</time>
      </trkpt>
      <trkpt lat="45.06772" lon="3.55145">
        <ele>551.9</ele>
        <time>2021-08-06T16:25:46Z</time>
      </trkpt>
      <trkpt lat="45.06771" lon="3.55145">
        <ele>551.9</ele>
        <time>2021-08-06T16:25:48Z</time>
      </trkpt>
      <trkpt lat="45.06772" lon="3.55145">
        <ele>551.9</ele>
        <time>2021-08-06T16:25:50Z</time>
      </trkpt>
      <trkpt lat="45.06772" lon="3.55145">
        <ele>551.9</ele>
        <time>2021-08-06T16:25:52Z</time>
      </trkpt>
      <trkpt lat="45.06771" lon="3.55145">
        <ele>552</ele>
        <time>2021-08-06T16:25:54Z</time>
      </trkpt>
      <trkpt lat="45.06771" lon="3.55145">
        <ele>552</ele>
        <time>2021-08-06T16:25:56Z</time>
      </trkpt>
      <trkpt lat="45.06771" lon="3.55145">
        <ele>552</ele>
        <time>2021-08-06T16:25:58Z</time>
      </trkpt>
      <trkpt lat="45.06771" lon="3.55145">
        <ele>552</ele>
        <time>2021-08-06T16:26:00Z</time>
      </trkpt>
      <trkpt lat="45.06771" lon="3.55145">
        <ele>552</ele>
        <time>2021-08-06T16:26:02Z</time>
      </trkpt>
      <trkpt lat="45.06771" lon="3.55146">
        <ele>552</ele>
        <time>2021-08-06T16:26:04Z</time>
      </trkpt>
      <trkpt lat="45.06771" lon="3.55146">
        <ele>552</ele>
        <time>2021-08-06T16:26:06Z</time>
      </trkpt>
      <trkpt lat="45.06771" lon="3.55146">
        <ele>552</ele>
        <time>2021-08-06T16:26:08Z</time>
      </trkpt>
      <trkpt lat="45.06771" lon="3.55146">
        <ele>552</ele>
        <time>2021-08-06T16:26:10Z</time>
      </trkpt>
      <trkpt lat="45.0677" lon="3.55146">
        <ele>552.1</ele>
        <time>2021-08-06T16:26:12Z</time>
      </trkpt>
      <trkpt lat="45.0677" lon="3.55146">
        <ele>552.1</ele>
        <time>2021-08-06T16:26:14Z</time>
      </trkpt>
      <trkpt lat="45.06771" lon="3.55146">
        <ele>552</ele>
        <time>2021-08-06T16:26:16Z</time>
      </trkpt>
      <trkpt lat="45.0677" lon="3.55146">
        <ele>552.1</ele>
        <time>2021-08-06T16:26:18Z</time>
      </trkpt>
      <trkpt lat="45.06771" lon="3.55146">
        <ele>552</ele>
        <time>2021-08-06T16:26:20Z</time>
      </trkpt>
      <trkpt lat="45.0677" lon="3.55146">
        <ele>552</ele>
        <time>2021-08-06T16:26:22Z</time>
      </trkpt>
      <trkpt lat="45.0677" lon="3.55146">
        <ele>552.1</ele>
        <time>2021-08-06T16:26:24Z</time>
      </trkpt>
      <trkpt lat="45.06771" lon="3.55146">
        <ele>552</ele>
        <time>2021-08-06T16:26:26Z</time>
      </trkpt>
      <trkpt lat="45.06771" lon="3.55146">
        <ele>552</ele>
        <time>2021-08-06T16:26:28Z</time>
      </trkpt>
      <trkpt lat="45.06771" lon="3.55146">
        <ele>552</ele>
        <time>2021-08-06T16:26:30Z</time>
      </trkpt>
      <trkpt lat="45.06771" lon="3.55147">
        <ele>552</ele>
        <time>2021-08-06T16:26:32Z</time>
      </trkpt>
      <trkpt lat="45.06771" lon="3.55146">
        <ele>551.9</ele>
        <time>2021-08-06T16:26:34Z</time>
      </trkpt>
      <trkpt lat="45.06771" lon="3.55146">
        <ele>552</ele>
        <time>2021-08-06T16:26:36Z</time>
      </trkpt>
      <trkpt lat="45.06771" lon="3.55146">
        <ele>552</ele>
        <time>2021-08-06T16:26:38Z</time>
      </trkpt>
      <trkpt lat="45.06771" lon="3.55146">
        <ele>552</ele>
        <time>2021-08-06T16:26:40Z</time>
      </trkpt>
      <trkpt lat="45.06771" lon="3.55146">
        <ele>552</ele>
        <time>2021-08-06T16:26:42Z</time>
      </trkpt>
      <trkpt lat="45.06771" lon="3.55145">
        <ele>552.1</ele>
        <time>2021-08-06T16:26:44Z</time>
      </trkpt>
      <trkpt lat="45.06771" lon="3.55146">
        <ele>552</ele>
        <time>2021-08-06T16:26:46Z</time>
      </trkpt>
      <trkpt lat="45.0677" lon="3.55146">
        <ele>552.1</ele>
        <time>2021-08-06T16:26:48Z</time>
      </trkpt>
      <trkpt lat="45.0677" lon="3.55145">
        <ele>552.1</ele>
        <time>2021-08-06T16:26:50Z</time>
      </trkpt>
      <trkpt lat="45.0677" lon="3.55145">
        <ele>552.1</ele>
        <time>2021-08-06T16:26:52Z</time>
      </trkpt>
      <trkpt lat="45.0677" lon="3.55145">
        <ele>552.1</ele>
        <time>2021-08-06T16:26:54Z</time>
      </trkpt>
      <trkpt lat="45.0677" lon="3.55145">
        <ele>552.1</ele>
        <time>2021-08-06T16:26:56Z</time>
      </trkpt>
      <trkpt lat="45.0677" lon="3.55145">
        <ele>552.1</ele>
        <time>2021-08-06T16:26:58Z</time>
      </trkpt>
      <trkpt lat="45.0677" lon="3.55145">
        <ele>552.2</ele>
        <time>2021-08-06T16:27:00Z</time>
      </trkpt>
      <trkpt lat="45.0677" lon="3.55146">
        <ele>552.2</ele>
        <time>2021-08-06T16:27:02Z</time>
      </trkpt>
      <trkpt lat="45.06769" lon="3.55146">
        <ele>552.2</ele>
        <time>2021-08-06T16:27:04Z</time>
      </trkpt>
      <trkpt lat="45.06769" lon="3.55146">
        <ele>552.2</ele>
        <time>2021-08-06T16:27:06Z</time>
      </trkpt>
      <trkpt lat="45.06769" lon="3.55145">
        <ele>552.2</ele>
        <time>2021-08-06T16:27:08Z</time>
      </trkpt>
      <trkpt lat="45.0677" lon="3.55145">
        <ele>552.2</ele>
        <time>2021-08-06T16:27:10Z</time>
      </trkpt>
      <trkpt lat="45.0677" lon="3.55145">
        <ele>552.1</ele>
        <time>2021-08-06T16:27:12Z</time>
      </trkpt>
      <trkpt lat="45.0677" lon="3.55145">
        <ele>552.2</ele>
        <time>2021-08-06T16:27:14Z</time>
      </trkpt>
      <trkpt lat="45.0677" lon="3.55146">
        <ele>552.1</ele>
        <time>2021-08-06T16:27:16Z</time>
      </trkpt>
      <trkpt lat="45.06771" lon="3.55144">
        <ele>552.1</ele>
        <time>2021-08-06T16:27:18Z</time>
      </trkpt>
      <trkpt lat="45.06772" lon="3.55141">
        <ele>552</ele>
        <time>2021-08-06T16:27:20Z</time>
      </trkpt>
      <trkpt lat="45.06773" lon="3.55139">
        <ele>552</ele>
        <time>2021-08-06T16:27:22Z</time>
      </trkpt>
      <trkpt lat="45.06774" lon="3.55138">
        <ele>551.9</ele>
        <time>2021-08-06T16:27:24Z</time>
      </trkpt>
      <trkpt lat="45.06776" lon="3.55136">
        <ele>551.8</ele>
        <time>2021-08-06T16:27:26Z</time>
      </trkpt>
      <trkpt lat="45.06777" lon="3.55134">
        <ele>551.8</ele>
        <time>2021-08-06T16:27:28Z</time>
      </trkpt>
      <trkpt lat="45.06779" lon="3.55132">
        <ele>551.7</ele>
        <time>2021-08-06T16:27:30Z</time>
      </trkpt>
      <trkpt lat="45.0678" lon="3.5513">
        <ele>551.7</ele>
        <time>2021-08-06T16:27:32Z</time>
      </trkpt>
      <trkpt lat="45.06782" lon="3.55128">
        <ele>551.6</ele>
        <time>2021-08-06T16:27:34Z</time>
      </trkpt>
      <trkpt lat="45.06783" lon="3.55127">
        <ele>551.6</ele>
        <time>2021-08-06T16:27:36Z</time>
      </trkpt>
      <trkpt lat="45.06786" lon="3.55125">
        <ele>551.5</ele>
        <time>2021-08-06T16:27:38Z</time>
      </trkpt>
      <trkpt lat="45.06788" lon="3.55124">
        <ele>551.4</ele>
        <time>2021-08-06T16:27:40Z</time>
      </trkpt>
      <trkpt lat="45.0679" lon="3.55123">
        <ele>551.3</ele>
        <time>2021-08-06T16:27:42Z</time>
      </trkpt>
      <trkpt lat="45.06792" lon="3.55121">
        <ele>551.3</ele>
        <time>2021-08-06T16:27:44Z</time>
      </trkpt>
      <trkpt lat="45.06793" lon="3.55118">
        <ele>551.5</ele>
        <time>2021-08-06T16:27:46Z</time>
      </trkpt>
      <trkpt lat="45.06794" lon="3.55116">
        <ele>551.6</ele>
        <time>2021-08-06T16:27:48Z</time>
      </trkpt>
      <trkpt lat="45.06796" lon="3.55114">
        <ele>551.7</ele>
        <time>2021-08-06T16:27:50Z</time>
      </trkpt>
      <trkpt lat="45.06798" lon="3.55112">
        <ele>551.7</ele>
        <time>2021-08-06T16:27:52Z</time>
      </trkpt>
      <trkpt lat="45.06799" lon="3.55109">
        <ele>552</ele>
        <time>2021-08-06T16:27:54Z</time>
      </trkpt>
      <trkpt lat="45.068" lon="3.55107">
        <ele>552.1</ele>
        <time>2021-08-06T16:27:56Z</time>
      </trkpt>
      <trkpt lat="45.06799" lon="3.55107">
        <ele>552.2</ele>
        <time>2021-08-06T16:27:58Z</time>
      </trkpt>
      <trkpt lat="45.06799" lon="3.55107">
        <ele>552.2</ele>
        <time>2021-08-06T16:28:00Z</time>
      </trkpt>
      <trkpt lat="45.06799" lon="3.55107">
        <ele>552.2</ele>
        <time>2021-08-06T16:28:02Z</time>
      </trkpt>
      <trkpt lat="45.06799" lon="3.55106">
        <ele>552.3</ele>
        <time>2021-08-06T16:28:04Z</time>
      </trkpt>
      <trkpt lat="45.06799" lon="3.55106">
        <ele>552.3</ele>
        <time>2021-08-06T16:28:06Z</time>
      </trkpt>
      <trkpt lat="45.068" lon="3.55106">
        <ele>552.3</ele>
        <time>2021-08-06T16:28:08Z</time>
      </trkpt>
      <trkpt lat="45.068" lon="3.55106">
        <ele>552.2</ele>
        <time>2021-08-06T16:28:10Z</time>
      </trkpt>
      <trkpt lat="45.068" lon="3.55107">
        <ele>552.2</ele>
        <time>2021-08-06T16:28:12Z</time>
      </trkpt>
      <trkpt lat="45.06801" lon="3.55104">
        <ele>552.4</ele>
        <time>2021-08-06T16:28:14Z</time>
      </trkpt>
      <trkpt lat="45.06802" lon="3.55102">
        <ele>552.6</ele>
        <time>2021-08-06T16:28:16Z</time>
      </trkpt>
      <trkpt lat="45.06804" lon="3.551">
        <ele>552.8</ele>
        <time>2021-08-06T16:28:18Z</time>
      </trkpt>
      <trkpt lat="45.06804" lon="3.55099">
        <ele>552.9</ele>
        <time>2021-08-06T16:28:20Z</time>
      </trkpt>
      <trkpt lat="45.06806" lon="3.55098">
        <ele>553</ele>
        <time>2021-08-06T16:28:22Z</time>
      </trkpt>
      <trkpt lat="45.06808" lon="3.55097">
        <ele>553</ele>
        <time>2021-08-06T16:28:24Z</time>
      </trkpt>
      <trkpt lat="45.06808" lon="3.55099">
        <ele>552.8</ele>
        <time>2021-08-06T16:28:26Z</time>
      </trkpt>
      <trkpt lat="45.0681" lon="3.551">
        <ele>552.6</ele>
        <time>2021-08-06T16:28:28Z</time>
      </trkpt>
      <trkpt lat="45.06811" lon="3.55101">
        <ele>552.5</ele>
        <time>2021-08-06T16:28:30Z</time>
      </trkpt>
      <trkpt lat="45.06812" lon="3.55099">
        <ele>552.6</ele>
        <time>2021-08-06T16:28:32Z</time>
      </trkpt>
      <trkpt lat="45.06813" lon="3.55098">
        <ele>552.7</ele>
        <time>2021-08-06T16:28:34Z</time>
      </trkpt>
      <trkpt lat="45.06815" lon="3.55096">
        <ele>553</ele>
        <time>2021-08-06T16:28:36Z</time>
      </trkpt>
      <trkpt lat="45.06816" lon="3.55095">
        <ele>553.1</ele>
        <time>2021-08-06T16:28:38Z</time>
      </trkpt>
      <trkpt lat="45.06818" lon="3.55095">
        <ele>553.1</ele>
        <time>2021-08-06T16:28:40Z</time>
      </trkpt>
      <trkpt lat="45.0682" lon="3.55095">
        <ele>553.2</ele>
        <time>2021-08-06T16:28:42Z</time>
      </trkpt>
      <trkpt lat="45.06822" lon="3.55094">
        <ele>553.2</ele>
        <time>2021-08-06T16:28:44Z</time>
      </trkpt>
      <trkpt lat="45.06823" lon="3.55091">
        <ele>553.7</ele>
        <time>2021-08-06T16:28:46Z</time>
      </trkpt>
      <trkpt lat="45.06823" lon="3.55089">
        <ele>554</ele>
        <time>2021-08-06T16:28:48Z</time>
      </trkpt>
      <trkpt lat="45.06823" lon="3.5509">
        <ele>553.8</ele>
        <time>2021-08-06T16:28:50Z</time>
      </trkpt>
      <trkpt lat="45.06823" lon="3.55091">
        <ele>553.7</ele>
        <time>2021-08-06T16:28:52Z</time>
      </trkpt>
      <trkpt lat="45.06824" lon="3.55091">
        <ele>553.7</ele>
        <time>2021-08-06T16:28:54Z</time>
      </trkpt>
      <trkpt lat="45.06825" lon="3.55089">
        <ele>554</ele>
        <time>2021-08-06T16:28:56Z</time>
      </trkpt>
      <trkpt lat="45.06827" lon="3.55087">
        <ele>554.3</ele>
        <time>2021-08-06T16:28:58Z</time>
      </trkpt>
      <trkpt lat="45.06829" lon="3.55085">
        <ele>554.6</ele>
        <time>2021-08-06T16:29:00Z</time>
      </trkpt>
      <trkpt lat="45.0683" lon="3.55084">
        <ele>554.8</ele>
        <time>2021-08-06T16:29:02Z</time>
      </trkpt>
      <trkpt lat="45.06831" lon="3.55082">
        <ele>554.9</ele>
        <time>2021-08-06T16:29:04Z</time>
      </trkpt>
      <trkpt lat="45.06832" lon="3.55079">
        <ele>554.9</ele>
        <time>2021-08-06T16:29:06Z</time>
      </trkpt>
      <trkpt lat="45.06834" lon="3.55077">
        <ele>554.9</ele>
        <time>2021-08-06T16:29:08Z</time>
      </trkpt>
      <trkpt lat="45.06835" lon="3.55075">
        <ele>554.5</ele>
        <time>2021-08-06T16:29:10Z</time>
      </trkpt>
      <trkpt lat="45.06836" lon="3.55073">
        <ele>554.2</ele>
        <time>2021-08-06T16:29:12Z</time>
      </trkpt>
      <trkpt lat="45.06836" lon="3.5507">
        <ele>554.2</ele>
        <time>2021-08-06T16:29:14Z</time>
      </trkpt>
      <trkpt lat="45.06836" lon="3.55068">
        <ele>554</ele>
        <time>2021-08-06T16:29:16Z</time>
      </trkpt>
      <trkpt lat="45.06837" lon="3.55064">
        <ele>553.7</ele>
        <time>2021-08-06T16:29:18Z</time>
      </trkpt>
      <trkpt lat="45.06838" lon="3.55062">
        <ele>553.3</ele>
        <time>2021-08-06T16:29:20Z</time>
      </trkpt>
      <trkpt lat="45.06839" lon="3.55059">
        <ele>553.1</ele>
        <time>2021-08-06T16:29:22Z</time>
      </trkpt>
      <trkpt lat="45.0684" lon="3.55059">
        <ele>552.8</ele>
        <time>2021-08-06T16:29:24Z</time>
      </trkpt>
      <trkpt lat="45.06841" lon="3.5506">
        <ele>552.7</ele>
        <time>2021-08-06T16:29:26Z</time>
      </trkpt>
      <trkpt lat="45.0684" lon="3.55061">
        <ele>552.8</ele>
        <time>2021-08-06T16:29:28Z</time>
      </trkpt>
      <trkpt lat="45.0684" lon="3.55061">
        <ele>552.8</ele>
        <time>2021-08-06T16:29:30Z</time>
      </trkpt>
      <trkpt lat="45.06829" lon="3.55006">
        <ele>553.1</ele>
        <time>2021-08-06T16:45:56Z</time>
      </trkpt>
      <trkpt lat="45.06827" lon="3.55007">
        <ele>552.8</ele>
        <time>2021-08-06T16:45:58Z</time>
      </trkpt>
      <trkpt lat="45.06825" lon="3.5501">
        <ele>552.4</ele>
        <time>2021-08-06T16:46:00Z</time>
      </trkpt>
      <trkpt lat="45.06824" lon="3.5501">
        <ele>552.1</ele>
        <time>2021-08-06T16:46:02Z</time>
      </trkpt>
      <trkpt lat="45.06821" lon="3.55014">
        <ele>551.7</ele>
        <time>2021-08-06T16:46:04Z</time>
      </trkpt>
      <trkpt lat="45.06818" lon="3.55016">
        <ele>551.2</ele>
        <time>2021-08-06T16:46:06Z</time>
      </trkpt>
      <trkpt lat="45.06815" lon="3.55017">
        <ele>550.7</ele>
        <time>2021-08-06T16:46:08Z</time>
      </trkpt>
      <trkpt lat="45.06813" lon="3.55017">
        <ele>550.3</ele>
        <time>2021-08-06T16:46:10Z</time>
      </trkpt>
      <trkpt lat="45.06812" lon="3.55019">
        <ele>550.2</ele>
        <time>2021-08-06T16:46:12Z</time>
      </trkpt>
      <trkpt lat="45.06811" lon="3.55021">
        <ele>550.1</ele>
        <time>2021-08-06T16:46:14Z</time>
      </trkpt>
      <trkpt lat="45.0681" lon="3.55024">
        <ele>550.3</ele>
        <time>2021-08-06T16:46:16Z</time>
      </trkpt>
      <trkpt lat="45.06809" lon="3.55026">
        <ele>550.3</ele>
        <time>2021-08-06T16:46:18Z</time>
      </trkpt>
      <trkpt lat="45.0681" lon="3.55029">
        <ele>550.6</ele>
        <time>2021-08-06T16:46:20Z</time>
      </trkpt>
      <trkpt lat="45.06809" lon="3.5503">
        <ele>550.6</ele>
        <time>2021-08-06T16:46:22Z</time>
      </trkpt>
      <trkpt lat="45.06808" lon="3.55032">
        <ele>550.6</ele>
        <time>2021-08-06T16:46:24Z</time>
      </trkpt>
      <trkpt lat="45.0683" lon="3.55041">
        <ele>554</ele>
        <time>2021-08-06T16:51:22Z</time>
      </trkpt>
      <trkpt lat="45.06829" lon="3.55037">
        <ele>553.8</ele>
        <time>2021-08-06T16:51:24Z</time>
      </trkpt>
      <trkpt lat="45.06826" lon="3.55036">
        <ele>553.4</ele>
        <time>2021-08-06T16:51:26Z</time>
      </trkpt>
      <trkpt lat="45.06823" lon="3.55039">
        <ele>553</ele>
        <time>2021-08-06T16:51:28Z</time>
      </trkpt>
      <trkpt lat="45.06819" lon="3.55044">
        <ele>552.8</ele>
        <time>2021-08-06T16:51:30Z</time>
      </trkpt>
      <trkpt lat="45.06815" lon="3.55046">
        <ele>552.5</ele>
        <time>2021-08-06T16:51:32Z</time>
      </trkpt>
      <trkpt lat="45.06813" lon="3.55048">
        <ele>552.3</ele>
        <time>2021-08-06T16:51:34Z</time>
      </trkpt>
      <trkpt lat="45.0681" lon="3.55049">
        <ele>552.1</ele>
        <time>2021-08-06T16:51:36Z</time>
      </trkpt>
      <trkpt lat="45.06809" lon="3.5505">
        <ele>552.1</ele>
        <time>2021-08-06T16:51:38Z</time>
      </trkpt>
      <trkpt lat="45.06804" lon="3.55048">
        <ele>551.4</ele>
        <time>2021-08-06T16:51:40Z</time>
      </trkpt>
      <trkpt lat="45.06802" lon="3.55045">
        <ele>550.9</ele>
        <time>2021-08-06T16:51:42Z</time>
      </trkpt>
      <trkpt lat="45.06801" lon="3.55046">
        <ele>550.8</ele>
        <time>2021-08-06T16:51:44Z</time>
      </trkpt>
      <trkpt lat="45.06799" lon="3.55047">
        <ele>550.7</ele>
        <time>2021-08-06T16:51:46Z</time>
      </trkpt>
      <trkpt lat="45.06792" lon="3.55049">
        <ele>550.2</ele>
        <time>2021-08-06T16:51:48Z</time>
      </trkpt>
      <trkpt lat="45.06785" lon="3.55055">
        <ele>550.4</ele>
        <time>2021-08-06T16:51:50Z</time>
      </trkpt>
      <trkpt lat="45.06781" lon="3.55059">
        <ele>550.5</ele>
        <time>2021-08-06T16:51:52Z</time>
      </trkpt>
      <trkpt lat="45.06779" lon="3.5506">
        <ele>550.7</ele>
        <time>2021-08-06T16:51:54Z</time>
      </trkpt>
      <trkpt lat="45.06776" lon="3.55062">
        <ele>550.8</ele>
        <time>2021-08-06T16:51:56Z</time>
      </trkpt>
      <trkpt lat="45.06772" lon="3.55066">
        <ele>551.2</ele>
        <time>2021-08-06T16:51:58Z</time>
      </trkpt>
      <trkpt lat="45.06767" lon="3.55073">
        <ele>552.2</ele>
        <time>2021-08-06T16:52:00Z</time>
      </trkpt>
      <trkpt lat="45.0676" lon="3.55081">
        <ele>553.6</ele>
        <time>2021-08-06T16:52:02Z</time>
      </trkpt>
      <trkpt lat="45.06755" lon="3.55088">
        <ele>554.1</ele>
        <time>2021-08-06T16:52:04Z</time>
      </trkpt>
      <trkpt lat="45.06752" lon="3.55094">
        <ele>554.1</ele>
        <time>2021-08-06T16:52:06Z</time>
      </trkpt>
      <trkpt lat="45.06748" lon="3.551">
        <ele>553.6</ele>
        <time>2021-08-06T16:52:08Z</time>
      </trkpt>
      <trkpt lat="45.06743" lon="3.55107">
        <ele>552</ele>
        <time>2021-08-06T16:52:10Z</time>
      </trkpt>
      <trkpt lat="45.06738" lon="3.55116">
        <ele>550.5</ele>
        <time>2021-08-06T16:52:12Z</time>
      </trkpt>
      <trkpt lat="45.06735" lon="3.55125">
        <ele>549.8</ele>
        <time>2021-08-06T16:52:14Z</time>
      </trkpt>
      <trkpt lat="45.06732" lon="3.55133">
        <ele>549.3</ele>
        <time>2021-08-06T16:52:16Z</time>
      </trkpt>
      <trkpt lat="45.06731" lon="3.55141">
        <ele>549</ele>
        <time>2021-08-06T16:52:18Z</time>
      </trkpt>
      <trkpt lat="45.0673" lon="3.55149">
        <ele>549</ele>
        <time>2021-08-06T16:52:20Z</time>
      </trkpt>
      <trkpt lat="45.0673" lon="3.55157">
        <ele>549.1</ele>
        <time>2021-08-06T16:52:22Z</time>
      </trkpt>
      <trkpt lat="45.06729" lon="3.55165">
        <ele>549.2</ele>
        <time>2021-08-06T16:52:24Z</time>
      </trkpt>
      <trkpt lat="45.06729" lon="3.55174">
        <ele>548.7</ele>
        <time>2021-08-06T16:52:26Z</time>
      </trkpt>
      <trkpt lat="45.06729" lon="3.55182">
        <ele>548.1</ele>
        <time>2021-08-06T16:52:28Z</time>
      </trkpt>
      <trkpt lat="45.06728" lon="3.55189">
        <ele>547.7</ele>
        <time>2021-08-06T16:52:30Z</time>
      </trkpt>
      <trkpt lat="45.06728" lon="3.55195">
        <ele>547.3</ele>
        <time>2021-08-06T16:52:32Z</time>
      </trkpt>
      <trkpt lat="45.06728" lon="3.55202">
        <ele>546.9</ele>
        <time>2021-08-06T16:52:34Z</time>
      </trkpt>
      <trkpt lat="45.06728" lon="3.55211">
        <ele>546.3</ele>
        <time>2021-08-06T16:52:36Z</time>
      </trkpt>
      <trkpt lat="45.06728" lon="3.55221">
        <ele>545.7</ele>
        <time>2021-08-06T16:52:38Z</time>
      </trkpt>
      <trkpt lat="45.06728" lon="3.55232">
        <ele>545.2</ele>
        <time>2021-08-06T16:52:40Z</time>
      </trkpt>
      <trkpt lat="45.06729" lon="3.55241">
        <ele>544.7</ele>
        <time>2021-08-06T16:52:42Z</time>
      </trkpt>
      <trkpt lat="45.0673" lon="3.55248">
        <ele>544.5</ele>
        <time>2021-08-06T16:52:44Z</time>
      </trkpt>
      <trkpt lat="45.06731" lon="3.55255">
        <ele>544.6</ele>
        <time>2021-08-06T16:52:46Z</time>
      </trkpt>
      <trkpt lat="45.06732" lon="3.5526">
        <ele>544.8</ele>
        <time>2021-08-06T16:52:48Z</time>
      </trkpt>
      <trkpt lat="45.06733" lon="3.55264">
        <ele>545</ele>
        <time>2021-08-06T16:52:50Z</time>
      </trkpt>
      <trkpt lat="45.06733" lon="3.55265">
        <ele>545</ele>
        <time>2021-08-06T16:52:52Z</time>
      </trkpt>
      <trkpt lat="45.06733" lon="3.55268">
        <ele>545.1</ele>
        <time>2021-08-06T16:52:54Z</time>
      </trkpt>
      <trkpt lat="45.06732" lon="3.55271">
        <ele>544.7</ele>
        <time>2021-08-06T16:52:56Z</time>
      </trkpt>
      <trkpt lat="45.06728" lon="3.5527">
        <ele>544</ele>
        <time>2021-08-06T16:52:58Z</time>
      </trkpt>
      <trkpt lat="45.06724" lon="3.5527">
        <ele>543.3</ele>
        <time>2021-08-06T16:53:00Z</time>
      </trkpt>
      <trkpt lat="45.06722" lon="3.55277">
        <ele>543</ele>
        <time>2021-08-06T16:53:02Z</time>
      </trkpt>
      <trkpt lat="45.06723" lon="3.55288">
        <ele>543.2</ele>
        <time>2021-08-06T16:53:04Z</time>
      </trkpt>
      <trkpt lat="45.06722" lon="3.55301">
        <ele>543.2</ele>
        <time>2021-08-06T16:53:06Z</time>
      </trkpt>
      <trkpt lat="45.06722" lon="3.55316">
        <ele>543.3</ele>
        <time>2021-08-06T16:53:08Z</time>
      </trkpt>
      <trkpt lat="45.06722" lon="3.5533">
        <ele>543.2</ele>
        <time>2021-08-06T16:53:10Z</time>
      </trkpt>
      <trkpt lat="45.06722" lon="3.55342">
        <ele>543.7</ele>
        <time>2021-08-06T16:53:12Z</time>
      </trkpt>
      <trkpt lat="45.06721" lon="3.55353">
        <ele>544.1</ele>
        <time>2021-08-06T16:53:14Z</time>
      </trkpt>
      <trkpt lat="45.06721" lon="3.5536">
        <ele>544.3</ele>
        <time>2021-08-06T16:53:16Z</time>
      </trkpt>
      <trkpt lat="45.06721" lon="3.55362">
        <ele>544.4</ele>
        <time>2021-08-06T16:53:18Z</time>
      </trkpt>
      <trkpt lat="45.06721" lon="3.55361">
        <ele>544.3</ele>
        <time>2021-08-06T16:53:20Z</time>
      </trkpt>
      <trkpt lat="45.06721" lon="3.5536">
        <ele>544.3</ele>
        <time>2021-08-06T16:53:22Z</time>
      </trkpt>
      <trkpt lat="45.06721" lon="3.5536">
        <ele>544.2</ele>
        <time>2021-08-06T16:53:24Z</time>
      </trkpt>
      <trkpt lat="45.06721" lon="3.5536">
        <ele>544.2</ele>
        <time>2021-08-06T16:53:26Z</time>
      </trkpt>
      <trkpt lat="45.06724" lon="3.55395">
        <ele>546.3</ele>
        <time>2021-08-06T17:02:26Z</time>
      </trkpt>
      <trkpt lat="45.06724" lon="3.55399">
        <ele>546.6</ele>
        <time>2021-08-06T17:02:28Z</time>
      </trkpt>
      <trkpt lat="45.06724" lon="3.55404">
        <ele>546.8</ele>
        <time>2021-08-06T17:02:30Z</time>
      </trkpt>
      <trkpt lat="45.06724" lon="3.55409">
        <ele>546.9</ele>
        <time>2021-08-06T17:02:32Z</time>
      </trkpt>
      <trkpt lat="45.06723" lon="3.55416">
        <ele>547.1</ele>
        <time>2021-08-06T17:02:34Z</time>
      </trkpt>
      <trkpt lat="45.06723" lon="3.55423">
        <ele>547.2</ele>
        <time>2021-08-06T17:02:36Z</time>
      </trkpt>
      <trkpt lat="45.06722" lon="3.55431">
        <ele>547.3</ele>
        <time>2021-08-06T17:02:38Z</time>
      </trkpt>
      <trkpt lat="45.06722" lon="3.55439">
        <ele>547.6</ele>
        <time>2021-08-06T17:02:40Z</time>
      </trkpt>
      <trkpt lat="45.06721" lon="3.55447">
        <ele>547.6</ele>
        <time>2021-08-06T17:02:42Z</time>
      </trkpt>
      <trkpt lat="45.06719" lon="3.55456">
        <ele>547.6</ele>
        <time>2021-08-06T17:02:44Z</time>
      </trkpt>
      <trkpt lat="45.06718" lon="3.55465">
        <ele>547.8</ele>
        <time>2021-08-06T17:02:46Z</time>
      </trkpt>
      <trkpt lat="45.06717" lon="3.55475">
        <ele>547.8</ele>
        <time>2021-08-06T17:02:48Z</time>
      </trkpt>
      <trkpt lat="45.06714" lon="3.55485">
        <ele>547.7</ele>
        <time>2021-08-06T17:02:50Z</time>
      </trkpt>
      <trkpt lat="45.06711" lon="3.55494">
        <ele>547.7</ele>
        <time>2021-08-06T17:02:52Z</time>
      </trkpt>
      <trkpt lat="45.06707" lon="3.55505">
        <ele>547.9</ele>
        <time>2021-08-06T17:02:54Z</time>
      </trkpt>
      <trkpt lat="45.06703" lon="3.55516">
        <ele>548.5</ele>
        <time>2021-08-06T17:02:56Z</time>
      </trkpt>
      <trkpt lat="45.06698" lon="3.55527">
        <ele>549</ele>
        <time>2021-08-06T17:02:58Z</time>
      </trkpt>
      <trkpt lat="45.06691" lon="3.55538">
        <ele>549.5</ele>
        <time>2021-08-06T17:03:00Z</time>
      </trkpt>
      <trkpt lat="45.06685" lon="3.55547">
        <ele>549.8</ele>
        <time>2021-08-06T17:03:02Z</time>
      </trkpt>
      <trkpt lat="45.06681" lon="3.55554">
        <ele>550.1</ele>
        <time>2021-08-06T17:03:04Z</time>
      </trkpt>
      <trkpt lat="45.06675" lon="3.55562">
        <ele>550.5</ele>
        <time>2021-08-06T17:03:06Z</time>
      </trkpt>
      <trkpt lat="45.0667" lon="3.55572">
        <ele>551</ele>
        <time>2021-08-06T17:03:08Z</time>
      </trkpt>
      <trkpt lat="45.06663" lon="3.55582">
        <ele>551</ele>
        <time>2021-08-06T17:03:10Z</time>
      </trkpt>
      <trkpt lat="45.06656" lon="3.55593">
        <ele>550.5</ele>
        <time>2021-08-06T17:03:12Z</time>
      </trkpt>
      <trkpt lat="45.06649" lon="3.55603">
        <ele>550</ele>
        <time>2021-08-06T17:03:14Z</time>
      </trkpt>
      <trkpt lat="45.06642" lon="3.55615">
        <ele>549.4</ele>
        <time>2021-08-06T17:03:16Z</time>
      </trkpt>
      <trkpt lat="45.06635" lon="3.55626">
        <ele>548.9</ele>
        <time>2021-08-06T17:03:18Z</time>
      </trkpt>
      <trkpt lat="45.06628" lon="3.55637">
        <ele>548.2</ele>
        <time>2021-08-06T17:03:20Z</time>
      </trkpt>
      <trkpt lat="45.0662" lon="3.55649">
        <ele>547.5</ele>
        <time>2021-08-06T17:03:22Z</time>
      </trkpt>
      <trkpt lat="45.06612" lon="3.55662">
        <ele>546.8</ele>
        <time>2021-08-06T17:03:24Z</time>
      </trkpt>
      <trkpt lat="45.06605" lon="3.55674">
        <ele>546</ele>
        <time>2021-08-06T17:03:26Z</time>
      </trkpt>
      <trkpt lat="45.06597" lon="3.55685">
        <ele>545.1</ele>
        <time>2021-08-06T17:03:28Z</time>
      </trkpt>
      <trkpt lat="45.06591" lon="3.55697">
        <ele>544.4</ele>
        <time>2021-08-06T17:03:30Z</time>
      </trkpt>
      <trkpt lat="45.06585" lon="3.5571">
        <ele>543.7</ele>
        <time>2021-08-06T17:03:32Z</time>
      </trkpt>
      <trkpt lat="45.0658" lon="3.55723">
        <ele>543.4</ele>
        <time>2021-08-06T17:03:34Z</time>
      </trkpt>
      <trkpt lat="45.06575" lon="3.55736">
        <ele>543.1</ele>
        <time>2021-08-06T17:03:36Z</time>
      </trkpt>
      <trkpt lat="45.06572" lon="3.55748">
        <ele>542.9</ele>
        <time>2021-08-06T17:03:38Z</time>
      </trkpt>
      <trkpt lat="45.06569" lon="3.5576">
        <ele>542.7</ele>
        <time>2021-08-06T17:03:40Z</time>
      </trkpt>
      <trkpt lat="45.06565" lon="3.5577">
        <ele>542.1</ele>
        <time>2021-08-06T17:03:42Z</time>
      </trkpt>
      <trkpt lat="45.06562" lon="3.55781">
        <ele>541.5</ele>
        <time>2021-08-06T17:03:44Z</time>
      </trkpt>
      <trkpt lat="45.0656" lon="3.55792">
        <ele>541.3</ele>
        <time>2021-08-06T17:03:46Z</time>
      </trkpt>
      <trkpt lat="45.06558" lon="3.55804">
        <ele>541.3</ele>
        <time>2021-08-06T17:03:48Z</time>
      </trkpt>
      <trkpt lat="45.06558" lon="3.55817">
        <ele>541.9</ele>
        <time>2021-08-06T17:03:50Z</time>
      </trkpt>
      <trkpt lat="45.06557" lon="3.5583">
        <ele>542.4</ele>
        <time>2021-08-06T17:03:52Z</time>
      </trkpt>
      <trkpt lat="45.06557" lon="3.55842">
        <ele>542.5</ele>
        <time>2021-08-06T17:03:54Z</time>
      </trkpt>
      <trkpt lat="45.06557" lon="3.55854">
        <ele>542.5</ele>
        <time>2021-08-06T17:03:56Z</time>
      </trkpt>
      <trkpt lat="45.06556" lon="3.55865">
        <ele>542.4</ele>
        <time>2021-08-06T17:03:58Z</time>
      </trkpt>
      <trkpt lat="45.06556" lon="3.55875">
        <ele>542.5</ele>
        <time>2021-08-06T17:04:00Z</time>
      </trkpt>
      <trkpt lat="45.06556" lon="3.55885">
        <ele>542.4</ele>
        <time>2021-08-06T17:04:02Z</time>
      </trkpt>
      <trkpt lat="45.06555" lon="3.55894">
        <ele>542</ele>
        <time>2021-08-06T17:04:04Z</time>
      </trkpt>
      <trkpt lat="45.06554" lon="3.55904">
        <ele>541.7</ele>
        <time>2021-08-06T17:04:06Z</time>
      </trkpt>
      <trkpt lat="45.06554" lon="3.55914">
        <ele>541.8</ele>
        <time>2021-08-06T17:04:08Z</time>
      </trkpt>
      <trkpt lat="45.06554" lon="3.55924">
        <ele>541.6</ele>
        <time>2021-08-06T17:04:10Z</time>
      </trkpt>
      <trkpt lat="45.06554" lon="3.55935">
        <ele>541.6</ele>
        <time>2021-08-06T17:04:12Z</time>
      </trkpt>
      <trkpt lat="45.06553" lon="3.55946">
        <ele>541.2</ele>
        <time>2021-08-06T17:04:14Z</time>
      </trkpt>
      <trkpt lat="45.06554" lon="3.55957">
        <ele>541.3</ele>
        <time>2021-08-06T17:04:16Z</time>
      </trkpt>
      <trkpt lat="45.06556" lon="3.55969">
        <ele>542.4</ele>
        <time>2021-08-06T17:04:18Z</time>
      </trkpt>
      <trkpt lat="45.06559" lon="3.55978">
        <ele>543.6</ele>
        <time>2021-08-06T17:04:20Z</time>
      </trkpt>
      <trkpt lat="45.06562" lon="3.55986">
        <ele>544.8</ele>
        <time>2021-08-06T17:04:22Z</time>
      </trkpt>
      <trkpt lat="45.06565" lon="3.55995">
        <ele>545.9</ele>
        <time>2021-08-06T17:04:24Z</time>
      </trkpt>
      <trkpt lat="45.06568" lon="3.56002">
        <ele>547.4</ele>
        <time>2021-08-06T17:04:26Z</time>
      </trkpt>
      <trkpt lat="45.06571" lon="3.56011">
        <ele>548.8</ele>
        <time>2021-08-06T17:04:28Z</time>
      </trkpt>
      <trkpt lat="45.06573" lon="3.5602">
        <ele>550.4</ele>
        <time>2021-08-06T17:04:30Z</time>
      </trkpt>
      <trkpt lat="45.06574" lon="3.56032">
        <ele>551.2</ele>
        <time>2021-08-06T17:04:32Z</time>
      </trkpt>
      <trkpt lat="45.06573" lon="3.56044">
        <ele>550.9</ele>
        <time>2021-08-06T17:04:34Z</time>
      </trkpt>
      <trkpt lat="45.06571" lon="3.56056">
        <ele>550.5</ele>
        <time>2021-08-06T17:04:36Z</time>
      </trkpt>
      <trkpt lat="45.06569" lon="3.56068">
        <ele>550.1</ele>
        <time>2021-08-06T17:04:38Z</time>
      </trkpt>
      <trkpt lat="45.06568" lon="3.56081">
        <ele>549.7</ele>
        <time>2021-08-06T17:04:40Z</time>
      </trkpt>
      <trkpt lat="45.06566" lon="3.56093">
        <ele>550.1</ele>
        <time>2021-08-06T17:04:42Z</time>
      </trkpt>
      <trkpt lat="45.06565" lon="3.56106">
        <ele>550.5</ele>
        <time>2021-08-06T17:04:44Z</time>
      </trkpt>
      <trkpt lat="45.06563" lon="3.56119">
        <ele>550.8</ele>
        <time>2021-08-06T17:04:46Z</time>
      </trkpt>
      <trkpt lat="45.06561" lon="3.56131">
        <ele>551.2</ele>
        <time>2021-08-06T17:04:48Z</time>
      </trkpt>
      <trkpt lat="45.0656" lon="3.56143">
        <ele>551.4</ele>
        <time>2021-08-06T17:04:50Z</time>
      </trkpt>
      <trkpt lat="45.06558" lon="3.56155">
        <ele>551.7</ele>
        <time>2021-08-06T17:04:52Z</time>
      </trkpt>
      <trkpt lat="45.06556" lon="3.56167">
        <ele>551.5</ele>
        <time>2021-08-06T17:04:54Z</time>
      </trkpt>
      <trkpt lat="45.06553" lon="3.56179">
        <ele>552.3</ele>
        <time>2021-08-06T17:04:56Z</time>
      </trkpt>
      <trkpt lat="45.0655" lon="3.56189">
        <ele>552.6</ele>
        <time>2021-08-06T17:04:58Z</time>
      </trkpt>
      <trkpt lat="45.06545" lon="3.562">
        <ele>552.1</ele>
        <time>2021-08-06T17:05:00Z</time>
      </trkpt>
      <trkpt lat="45.0654" lon="3.5621">
        <ele>550.7</ele>
        <time>2021-08-06T17:05:02Z</time>
      </trkpt>
      <trkpt lat="45.06532" lon="3.5622">
        <ele>548.2</ele>
        <time>2021-08-06T17:05:04Z</time>
      </trkpt>
      <trkpt lat="45.06526" lon="3.56228">
        <ele>545.8</ele>
        <time>2021-08-06T17:05:06Z</time>
      </trkpt>
      <trkpt lat="45.06521" lon="3.56239">
        <ele>544.7</ele>
        <time>2021-08-06T17:05:08Z</time>
      </trkpt>
      <trkpt lat="45.06516" lon="3.56252">
        <ele>544</ele>
        <time>2021-08-06T17:05:10Z</time>
      </trkpt>
      <trkpt lat="45.06512" lon="3.56266">
        <ele>543.8</ele>
        <time>2021-08-06T17:05:12Z</time>
      </trkpt>
      <trkpt lat="45.06508" lon="3.56281">
        <ele>543.6</ele>
        <time>2021-08-06T17:05:14Z</time>
      </trkpt>
      <trkpt lat="45.06503" lon="3.56296">
        <ele>543.2</ele>
        <time>2021-08-06T17:05:16Z</time>
      </trkpt>
      <trkpt lat="45.06499" lon="3.5631">
        <ele>543.1</ele>
        <time>2021-08-06T17:05:18Z</time>
      </trkpt>
      <trkpt lat="45.06494" lon="3.56324">
        <ele>544.1</ele>
        <time>2021-08-06T17:05:20Z</time>
      </trkpt>
      <trkpt lat="45.0649" lon="3.56338">
        <ele>545.2</ele>
        <time>2021-08-06T17:05:22Z</time>
      </trkpt>
      <trkpt lat="45.06486" lon="3.56351">
        <ele>546.2</ele>
        <time>2021-08-06T17:05:24Z</time>
      </trkpt>
      <trkpt lat="45.06482" lon="3.56363">
        <ele>546.8</ele>
        <time>2021-08-06T17:05:26Z</time>
      </trkpt>
      <trkpt lat="45.06477" lon="3.56376">
        <ele>547</ele>
        <time>2021-08-06T17:05:28Z</time>
      </trkpt>
      <trkpt lat="45.06473" lon="3.56389">
        <ele>546.9</ele>
        <time>2021-08-06T17:05:30Z</time>
      </trkpt>
      <trkpt lat="45.06468" lon="3.56402">
        <ele>546.7</ele>
        <time>2021-08-06T17:05:32Z</time>
      </trkpt>
      <trkpt lat="45.06463" lon="3.56415">
        <ele>546</ele>
        <time>2021-08-06T17:05:34Z</time>
      </trkpt>
      <trkpt lat="45.06458" lon="3.56428">
        <ele>545.8</ele>
        <time>2021-08-06T17:05:36Z</time>
      </trkpt>
      <trkpt lat="45.06453" lon="3.56442">
        <ele>545.8</ele>
        <time>2021-08-06T17:05:38Z</time>
      </trkpt>
      <trkpt lat="45.06448" lon="3.56455">
        <ele>545.7</ele>
        <time>2021-08-06T17:05:40Z</time>
      </trkpt>
      <trkpt lat="45.06443" lon="3.56468">
        <ele>545</ele>
        <time>2021-08-06T17:05:42Z</time>
      </trkpt>
      <trkpt lat="45.06437" lon="3.56481">
        <ele>544.4</ele>
        <time>2021-08-06T17:05:44Z</time>
      </trkpt>
      <trkpt lat="45.06431" lon="3.56494">
        <ele>543.4</ele>
        <time>2021-08-06T17:05:46Z</time>
      </trkpt>
      <trkpt lat="45.06425" lon="3.56507">
        <ele>542.5</ele>
        <time>2021-08-06T17:05:48Z</time>
      </trkpt>
      <trkpt lat="45.06418" lon="3.56519">
        <ele>541.4</ele>
        <time>2021-08-06T17:05:50Z</time>
      </trkpt>
      <trkpt lat="45.06411" lon="3.5653">
        <ele>542</ele>
        <time>2021-08-06T17:05:52Z</time>
      </trkpt>
      <trkpt lat="45.06403" lon="3.56541">
        <ele>542.3</ele>
        <time>2021-08-06T17:05:54Z</time>
      </trkpt>
      <trkpt lat="45.06395" lon="3.56552">
        <ele>542.3</ele>
        <time>2021-08-06T17:05:56Z</time>
      </trkpt>
      <trkpt lat="45.06388" lon="3.56565">
        <ele>542.2</ele>
        <time>2021-08-06T17:05:58Z</time>
      </trkpt>
      <trkpt lat="45.06381" lon="3.56578">
        <ele>541.8</ele>
        <time>2021-08-06T17:06:00Z</time>
      </trkpt>
      <trkpt lat="45.06373" lon="3.56591">
        <ele>541</ele>
        <time>2021-08-06T17:06:02Z</time>
      </trkpt>
      <trkpt lat="45.06365" lon="3.56602">
        <ele>540</ele>
        <time>2021-08-06T17:06:04Z</time>
      </trkpt>
      <trkpt lat="45.06357" lon="3.56614">
        <ele>538.9</ele>
        <time>2021-08-06T17:06:06Z</time>
      </trkpt>
      <trkpt lat="45.06349" lon="3.56625">
        <ele>537.6</ele>
        <time>2021-08-06T17:06:08Z</time>
      </trkpt>
      <trkpt lat="45.06341" lon="3.56638">
        <ele>536.4</ele>
        <time>2021-08-06T17:06:10Z</time>
      </trkpt>
      <trkpt lat="45.06333" lon="3.56652">
        <ele>535.2</ele>
        <time>2021-08-06T17:06:12Z</time>
      </trkpt>
      <trkpt lat="45.06325" lon="3.56664">
        <ele>535.6</ele>
        <time>2021-08-06T17:06:14Z</time>
      </trkpt>
      <trkpt lat="45.06318" lon="3.56679">
        <ele>535.5</ele>
        <time>2021-08-06T17:06:16Z</time>
      </trkpt>
      <trkpt lat="45.06315" lon="3.56693">
        <ele>536</ele>
        <time>2021-08-06T17:06:18Z</time>
      </trkpt>
      <trkpt lat="45.06314" lon="3.56708">
        <ele>536.8</ele>
        <time>2021-08-06T17:06:20Z</time>
      </trkpt>
      <trkpt lat="45.06314" lon="3.56722">
        <ele>537.7</ele>
        <time>2021-08-06T17:06:22Z</time>
      </trkpt>
      <trkpt lat="45.06313" lon="3.56737">
        <ele>538.5</ele>
        <time>2021-08-06T17:06:24Z</time>
      </trkpt>
      <trkpt lat="45.06308" lon="3.5675">
        <ele>539</ele>
        <time>2021-08-06T17:06:26Z</time>
      </trkpt>
      <trkpt lat="45.063" lon="3.56758">
        <ele>539.2</ele>
        <time>2021-08-06T17:06:28Z</time>
      </trkpt>
      <trkpt lat="45.0629" lon="3.56761">
        <ele>538.9</ele>
        <time>2021-08-06T17:06:30Z</time>
      </trkpt>
      <trkpt lat="45.06281" lon="3.56757">
        <ele>537.8</ele>
        <time>2021-08-06T17:06:32Z</time>
      </trkpt>
      <trkpt lat="45.06274" lon="3.56753">
        <ele>536.5</ele>
        <time>2021-08-06T17:06:34Z</time>
      </trkpt>
      <trkpt lat="45.06267" lon="3.56749">
        <ele>535.3</ele>
        <time>2021-08-06T17:06:36Z</time>
      </trkpt>
      <trkpt lat="45.0626" lon="3.56747">
        <ele>534.5</ele>
        <time>2021-08-06T17:06:38Z</time>
      </trkpt>
      <trkpt lat="45.06253" lon="3.56744">
        <ele>533.7</ele>
        <time>2021-08-06T17:06:40Z</time>
      </trkpt>
      <trkpt lat="45.06247" lon="3.56744">
        <ele>533.4</ele>
        <time>2021-08-06T17:06:42Z</time>
      </trkpt>
      <trkpt lat="45.0624" lon="3.56746">
        <ele>533.5</ele>
        <time>2021-08-06T17:06:44Z</time>
      </trkpt>
      <trkpt lat="45.06235" lon="3.5675">
        <ele>533.8</ele>
        <time>2021-08-06T17:06:46Z</time>
      </trkpt>
      <trkpt lat="45.0623" lon="3.56754">
        <ele>534.6</ele>
        <time>2021-08-06T17:06:48Z</time>
      </trkpt>
      <trkpt lat="45.06225" lon="3.56759">
        <ele>535.6</ele>
        <time>2021-08-06T17:06:50Z</time>
      </trkpt>
      <trkpt lat="45.06219" lon="3.56764">
        <ele>536.4</ele>
        <time>2021-08-06T17:06:52Z</time>
      </trkpt>
      <trkpt lat="45.06214" lon="3.5677">
        <ele>537.3</ele>
        <time>2021-08-06T17:06:54Z</time>
      </trkpt>
      <trkpt lat="45.06209" lon="3.56776">
        <ele>538</ele>
        <time>2021-08-06T17:06:56Z</time>
      </trkpt>
      <trkpt lat="45.06204" lon="3.56782">
        <ele>538.7</ele>
        <time>2021-08-06T17:06:58Z</time>
      </trkpt>
      <trkpt lat="45.06199" lon="3.56788">
        <ele>539.3</ele>
        <time>2021-08-06T17:07:00Z</time>
      </trkpt>
      <trkpt lat="45.06193" lon="3.56795">
        <ele>539.9</ele>
        <time>2021-08-06T17:07:02Z</time>
      </trkpt>
      <trkpt lat="45.06188" lon="3.56802">
        <ele>540.3</ele>
        <time>2021-08-06T17:07:04Z</time>
      </trkpt>
      <trkpt lat="45.06183" lon="3.56808">
        <ele>540.6</ele>
        <time>2021-08-06T17:07:06Z</time>
      </trkpt>
      <trkpt lat="45.06178" lon="3.56816">
        <ele>540.8</ele>
        <time>2021-08-06T17:07:08Z</time>
      </trkpt>
      <trkpt lat="45.06173" lon="3.56823">
        <ele>540.9</ele>
        <time>2021-08-06T17:07:10Z</time>
      </trkpt>
      <trkpt lat="45.06168" lon="3.56829">
        <ele>540.9</ele>
        <time>2021-08-06T17:07:12Z</time>
      </trkpt>
      <trkpt lat="45.06163" lon="3.56836">
        <ele>541.5</ele>
        <time>2021-08-06T17:07:14Z</time>
      </trkpt>
      <trkpt lat="45.06158" lon="3.56842">
        <ele>542.9</ele>
        <time>2021-08-06T17:07:16Z</time>
      </trkpt>
      <trkpt lat="45.06153" lon="3.56848">
        <ele>543.9</ele>
        <time>2021-08-06T17:07:18Z</time>
      </trkpt>
      <trkpt lat="45.06147" lon="3.56854">
        <ele>544.5</ele>
        <time>2021-08-06T17:07:20Z</time>
      </trkpt>
      <trkpt lat="45.06142" lon="3.5686">
        <ele>544.9</ele>
        <time>2021-08-06T17:07:22Z</time>
      </trkpt>
      <trkpt lat="45.06137" lon="3.56867">
        <ele>545.3</ele>
        <time>2021-08-06T17:07:24Z</time>
      </trkpt>
      <trkpt lat="45.06132" lon="3.56873">
        <ele>545.6</ele>
        <time>2021-08-06T17:07:26Z</time>
      </trkpt>
      <trkpt lat="45.06128" lon="3.56881">
        <ele>545.8</ele>
        <time>2021-08-06T17:07:28Z</time>
      </trkpt>
      <trkpt lat="45.06124" lon="3.56888">
        <ele>545.9</ele>
        <time>2021-08-06T17:07:30Z</time>
      </trkpt>
      <trkpt lat="45.06121" lon="3.56897">
        <ele>545.9</ele>
        <time>2021-08-06T17:07:32Z</time>
      </trkpt>
      <trkpt lat="45.06117" lon="3.56904">
        <ele>545.7</ele>
        <time>2021-08-06T17:07:34Z</time>
      </trkpt>
      <trkpt lat="45.06114" lon="3.56913">
        <ele>545.3</ele>
        <time>2021-08-06T17:07:36Z</time>
      </trkpt>
      <trkpt lat="45.06109" lon="3.5692">
        <ele>544.6</ele>
        <time>2021-08-06T17:07:38Z</time>
      </trkpt>
      <trkpt lat="45.06105" lon="3.56927">
        <ele>544.5</ele>
        <time>2021-08-06T17:07:40Z</time>
      </trkpt>
      <trkpt lat="45.061" lon="3.56934">
        <ele>544.2</ele>
        <time>2021-08-06T17:07:42Z</time>
      </trkpt>
      <trkpt lat="45.06096" lon="3.56941">
        <ele>543.8</ele>
        <time>2021-08-06T17:07:44Z</time>
      </trkpt>
      <trkpt lat="45.06092" lon="3.56948">
        <ele>543.4</ele>
        <time>2021-08-06T17:07:46Z</time>
      </trkpt>
      <trkpt lat="45.06088" lon="3.56956">
        <ele>543.1</ele>
        <time>2021-08-06T17:07:48Z</time>
      </trkpt>
      <trkpt lat="45.06084" lon="3.56963">
        <ele>542.6</ele>
        <time>2021-08-06T17:07:50Z</time>
      </trkpt>
      <trkpt lat="45.0608" lon="3.56973">
        <ele>543.6</ele>
        <time>2021-08-06T17:07:52Z</time>
      </trkpt>
      <trkpt lat="45.06078" lon="3.56982">
        <ele>544.6</ele>
        <time>2021-08-06T17:07:54Z</time>
      </trkpt>
      <trkpt lat="45.06075" lon="3.56991">
        <ele>545.3</ele>
        <time>2021-08-06T17:07:56Z</time>
      </trkpt>
      <trkpt lat="45.06072" lon="3.57001">
        <ele>546</ele>
        <time>2021-08-06T17:07:58Z</time>
      </trkpt>
      <trkpt lat="45.06069" lon="3.57011">
        <ele>546.4</ele>
        <time>2021-08-06T17:08:00Z</time>
      </trkpt>
      <trkpt lat="45.06066" lon="3.57021">
        <ele>546.8</ele>
        <time>2021-08-06T17:08:02Z</time>
      </trkpt>
      <trkpt lat="45.06062" lon="3.57031">
        <ele>546.9</ele>
        <time>2021-08-06T17:08:04Z</time>
      </trkpt>
      <trkpt lat="45.06059" lon="3.57043">
        <ele>547.2</ele>
        <time>2021-08-06T17:08:06Z</time>
      </trkpt>
      <trkpt lat="45.06056" lon="3.57054">
        <ele>547.3</ele>
        <time>2021-08-06T17:08:08Z</time>
      </trkpt>
      <trkpt lat="45.06052" lon="3.57067">
        <ele>547.3</ele>
        <time>2021-08-06T17:08:10Z</time>
      </trkpt>
      <trkpt lat="45.06049" lon="3.57079">
        <ele>547.3</ele>
        <time>2021-08-06T17:08:12Z</time>
      </trkpt>
      <trkpt lat="45.06047" lon="3.57091">
        <ele>547.1</ele>
        <time>2021-08-06T17:08:14Z</time>
      </trkpt>
      <trkpt lat="45.06044" lon="3.57104">
        <ele>547</ele>
        <time>2021-08-06T17:08:16Z</time>
      </trkpt>
      <trkpt lat="45.06041" lon="3.57116">
        <ele>546.7</ele>
        <time>2021-08-06T17:08:18Z</time>
      </trkpt>
      <trkpt lat="45.06039" lon="3.57128">
        <ele>546.5</ele>
        <time>2021-08-06T17:08:20Z</time>
      </trkpt>
      <trkpt lat="45.06035" lon="3.57141">
        <ele>545.9</ele>
        <time>2021-08-06T17:08:22Z</time>
      </trkpt>
      <trkpt lat="45.06032" lon="3.57154">
        <ele>545.2</ele>
        <time>2021-08-06T17:08:24Z</time>
      </trkpt>
      <trkpt lat="45.06028" lon="3.57167">
        <ele>544.3</ele>
        <time>2021-08-06T17:08:26Z</time>
      </trkpt>
      <trkpt lat="45.06023" lon="3.5718">
        <ele>543</ele>
        <time>2021-08-06T17:08:28Z</time>
      </trkpt>
      <trkpt lat="45.06019" lon="3.57192">
        <ele>541.9</ele>
        <time>2021-08-06T17:08:30Z</time>
      </trkpt>
      <trkpt lat="45.06014" lon="3.57204">
        <ele>540.7</ele>
        <time>2021-08-06T17:08:32Z</time>
      </trkpt>
      <trkpt lat="45.06011" lon="3.57216">
        <ele>539.7</ele>
        <time>2021-08-06T17:08:34Z</time>
      </trkpt>
      <trkpt lat="45.06007" lon="3.57228">
        <ele>538.7</ele>
        <time>2021-08-06T17:08:36Z</time>
      </trkpt>
      <trkpt lat="45.06003" lon="3.5724">
        <ele>537.8</ele>
        <time>2021-08-06T17:08:38Z</time>
      </trkpt>
      <trkpt lat="45.05999" lon="3.57252">
        <ele>536.9</ele>
        <time>2021-08-06T17:08:40Z</time>
      </trkpt>
      <trkpt lat="45.05995" lon="3.57263">
        <ele>537.1</ele>
        <time>2021-08-06T17:08:42Z</time>
      </trkpt>
      <trkpt lat="45.05992" lon="3.57273">
        <ele>537.1</ele>
        <time>2021-08-06T17:08:44Z</time>
      </trkpt>
      <trkpt lat="45.05988" lon="3.57283">
        <ele>537</ele>
        <time>2021-08-06T17:08:46Z</time>
      </trkpt>
      <trkpt lat="45.05986" lon="3.57293">
        <ele>537.1</ele>
        <time>2021-08-06T17:08:48Z</time>
      </trkpt>
      <trkpt lat="45.05983" lon="3.57302">
        <ele>537.1</ele>
        <time>2021-08-06T17:08:50Z</time>
      </trkpt>
      <trkpt lat="45.05981" lon="3.5731">
        <ele>537.1</ele>
        <time>2021-08-06T17:08:52Z</time>
      </trkpt>
      <trkpt lat="45.0598" lon="3.57319">
        <ele>537.5</ele>
        <time>2021-08-06T17:08:54Z</time>
      </trkpt>
      <trkpt lat="45.05979" lon="3.57326">
        <ele>537.5</ele>
        <time>2021-08-06T17:08:56Z</time>
      </trkpt>
      <trkpt lat="45.05977" lon="3.57333">
        <ele>537.5</ele>
        <time>2021-08-06T17:08:58Z</time>
      </trkpt>
      <trkpt lat="45.05976" lon="3.57339">
        <ele>537.4</ele>
        <time>2021-08-06T17:09:00Z</time>
      </trkpt>
      <trkpt lat="45.05975" lon="3.57345">
        <ele>537.4</ele>
        <time>2021-08-06T17:09:02Z</time>
      </trkpt>
      <trkpt lat="45.05975" lon="3.5735">
        <ele>537.5</ele>
        <time>2021-08-06T17:09:04Z</time>
      </trkpt>
      <trkpt lat="45.05974" lon="3.57355">
        <ele>537.6</ele>
        <time>2021-08-06T17:09:06Z</time>
      </trkpt>
      <trkpt lat="45.05974" lon="3.57359">
        <ele>537.6</ele>
        <time>2021-08-06T17:09:08Z</time>
      </trkpt>
      <trkpt lat="45.05973" lon="3.57362">
        <ele>537.5</ele>
        <time>2021-08-06T17:09:10Z</time>
      </trkpt>
      <trkpt lat="45.05972" lon="3.57367">
        <ele>537.6</ele>
        <time>2021-08-06T17:09:12Z</time>
      </trkpt>
      <trkpt lat="45.05972" lon="3.57372">
        <ele>537.8</ele>
        <time>2021-08-06T17:09:14Z</time>
      </trkpt>
      <trkpt lat="45.05972" lon="3.57375">
        <ele>537.8</ele>
        <time>2021-08-06T17:09:16Z</time>
      </trkpt>
      <trkpt lat="45.05972" lon="3.57378">
        <ele>537.8</ele>
        <time>2021-08-06T17:09:18Z</time>
      </trkpt>
      <trkpt lat="45.05972" lon="3.57381">
        <ele>538</ele>
        <time>2021-08-06T17:09:20Z</time>
      </trkpt>
      <trkpt lat="45.05972" lon="3.57385">
        <ele>538.1</ele>
        <time>2021-08-06T17:09:22Z</time>
      </trkpt>
      <trkpt lat="45.05972" lon="3.57387">
        <ele>538.3</ele>
        <time>2021-08-06T17:09:24Z</time>
      </trkpt>
      <trkpt lat="45.05971" lon="3.57419">
        <ele>539</ele>
        <time>2021-08-06T17:09:34Z</time>
      </trkpt>
      <trkpt lat="45.05971" lon="3.57427">
        <ele>539.1</ele>
        <time>2021-08-06T17:09:36Z</time>
      </trkpt>
      <trkpt lat="45.0597" lon="3.57436">
        <ele>539.1</ele>
        <time>2021-08-06T17:09:38Z</time>
      </trkpt>
      <trkpt lat="45.0597" lon="3.57445">
        <ele>539</ele>
        <time>2021-08-06T17:09:40Z</time>
      </trkpt>
      <trkpt lat="45.05969" lon="3.57454">
        <ele>539</ele>
        <time>2021-08-06T17:09:42Z</time>
      </trkpt>
      <trkpt lat="45.05969" lon="3.57462">
        <ele>538.9</ele>
        <time>2021-08-06T17:09:44Z</time>
      </trkpt>
      <trkpt lat="45.05968" lon="3.57472">
        <ele>539</ele>
        <time>2021-08-06T17:09:46Z</time>
      </trkpt>
      <trkpt lat="45.05968" lon="3.5748">
        <ele>539</ele>
        <time>2021-08-06T17:09:48Z</time>
      </trkpt>
      <trkpt lat="45.05968" lon="3.5749">
        <ele>539</ele>
        <time>2021-08-06T17:09:50Z</time>
      </trkpt>
      <trkpt lat="45.05967" lon="3.57499">
        <ele>538.9</ele>
        <time>2021-08-06T17:09:52Z</time>
      </trkpt>
      <trkpt lat="45.05967" lon="3.57508">
        <ele>539.1</ele>
        <time>2021-08-06T17:09:54Z</time>
      </trkpt>
      <trkpt lat="45.05967" lon="3.57514">
        <ele>539.2</ele>
        <time>2021-08-06T17:09:56Z</time>
      </trkpt>
      <trkpt lat="45.05967" lon="3.57517">
        <ele>539.2</ele>
        <time>2021-08-06T17:09:58Z</time>
      </trkpt>
      <trkpt lat="45.05966" lon="3.5752">
        <ele>539.2</ele>
        <time>2021-08-06T17:10:00Z</time>
      </trkpt>
      <trkpt lat="45.05966" lon="3.57522">
        <ele>539.2</ele>
        <time>2021-08-06T17:10:02Z</time>
      </trkpt>
      <trkpt lat="45.05966" lon="3.57525">
        <ele>539.2</ele>
        <time>2021-08-06T17:10:04Z</time>
      </trkpt>
      <trkpt lat="45.05966" lon="3.57527">
        <ele>539.2</ele>
        <time>2021-08-06T17:10:06Z</time>
      </trkpt>
      <trkpt lat="45.05965" lon="3.57559">
        <ele>539.8</ele>
        <time>2021-08-06T17:10:18Z</time>
      </trkpt>
      <trkpt lat="45.05965" lon="3.57565">
        <ele>540</ele>
        <time>2021-08-06T17:10:20Z</time>
      </trkpt>
      <trkpt lat="45.05964" lon="3.57572">
        <ele>540</ele>
        <time>2021-08-06T17:10:22Z</time>
      </trkpt>
      <trkpt lat="45.05963" lon="3.57579">
        <ele>539.9</ele>
        <time>2021-08-06T17:10:24Z</time>
      </trkpt>
      <trkpt lat="45.05962" lon="3.57586">
        <ele>539.8</ele>
        <time>2021-08-06T17:10:26Z</time>
      </trkpt>
      <trkpt lat="45.05961" lon="3.57593">
        <ele>539.4</ele>
        <time>2021-08-06T17:10:28Z</time>
      </trkpt>
      <trkpt lat="45.05959" lon="3.57601">
        <ele>538.8</ele>
        <time>2021-08-06T17:10:30Z</time>
      </trkpt>
      <trkpt lat="45.05956" lon="3.57608">
        <ele>538.3</ele>
        <time>2021-08-06T17:10:32Z</time>
      </trkpt>
      <trkpt lat="45.05954" lon="3.57615">
        <ele>537.9</ele>
        <time>2021-08-06T17:10:34Z</time>
      </trkpt>
      <trkpt lat="45.05952" lon="3.57622">
        <ele>537.4</ele>
        <time>2021-08-06T17:10:36Z</time>
      </trkpt>
      <trkpt lat="45.0595" lon="3.57629">
        <ele>537</ele>
        <time>2021-08-06T17:10:38Z</time>
      </trkpt>
      <trkpt lat="45.05948" lon="3.57636">
        <ele>536.7</ele>
        <time>2021-08-06T17:10:40Z</time>
      </trkpt>
      <trkpt lat="45.05946" lon="3.57643">
        <ele>536.5</ele>
        <time>2021-08-06T17:10:42Z</time>
      </trkpt>
      <trkpt lat="45.05945" lon="3.57652">
        <ele>536.3</ele>
        <time>2021-08-06T17:10:44Z</time>
      </trkpt>
      <trkpt lat="45.05943" lon="3.57661">
        <ele>536.1</ele>
        <time>2021-08-06T17:10:46Z</time>
      </trkpt>
      <trkpt lat="45.05941" lon="3.57671">
        <ele>536.3</ele>
        <time>2021-08-06T17:10:48Z</time>
      </trkpt>
      <trkpt lat="45.05938" lon="3.57681">
        <ele>536.6</ele>
        <time>2021-08-06T17:10:50Z</time>
      </trkpt>
      <trkpt lat="45.05936" lon="3.57689">
        <ele>536.9</ele>
        <time>2021-08-06T17:10:52Z</time>
      </trkpt>
      <trkpt lat="45.05934" lon="3.57695">
        <ele>537.1</ele>
        <time>2021-08-06T17:10:54Z</time>
      </trkpt>
      <trkpt lat="45.05932" lon="3.57701">
        <ele>537.3</ele>
        <time>2021-08-06T17:10:56Z</time>
      </trkpt>
      <trkpt lat="45.05929" lon="3.57706">
        <ele>537.3</ele>
        <time>2021-08-06T17:10:58Z</time>
      </trkpt>
      <trkpt lat="45.05926" lon="3.57712">
        <ele>537.4</ele>
        <time>2021-08-06T17:11:00Z</time>
      </trkpt>
      <trkpt lat="45.05923" lon="3.57718">
        <ele>537.4</ele>
        <time>2021-08-06T17:11:02Z</time>
      </trkpt>
      <trkpt lat="45.05918" lon="3.57724">
        <ele>537.3</ele>
        <time>2021-08-06T17:11:04Z</time>
      </trkpt>
      <trkpt lat="45.05915" lon="3.5773">
        <ele>537.3</ele>
        <time>2021-08-06T17:11:06Z</time>
      </trkpt>
      <trkpt lat="45.05911" lon="3.57737">
        <ele>537.2</ele>
        <time>2021-08-06T17:11:08Z</time>
      </trkpt>
      <trkpt lat="45.05906" lon="3.57743">
        <ele>537</ele>
        <time>2021-08-06T17:11:10Z</time>
      </trkpt>
      <trkpt lat="45.05901" lon="3.57751">
        <ele>536.9</ele>
        <time>2021-08-06T17:11:12Z</time>
      </trkpt>
      <trkpt lat="45.05896" lon="3.57759">
        <ele>538</ele>
        <time>2021-08-06T17:11:14Z</time>
      </trkpt>
      <trkpt lat="45.0589" lon="3.57767">
        <ele>539</ele>
        <time>2021-08-06T17:11:16Z</time>
      </trkpt>
      <trkpt lat="45.05885" lon="3.57776">
        <ele>539.8</ele>
        <time>2021-08-06T17:11:18Z</time>
      </trkpt>
      <trkpt lat="45.05879" lon="3.57785">
        <ele>540.4</ele>
        <time>2021-08-06T17:11:20Z</time>
      </trkpt>
      <trkpt lat="45.05873" lon="3.57795">
        <ele>541</ele>
        <time>2021-08-06T17:11:22Z</time>
      </trkpt>
      <trkpt lat="45.05868" lon="3.57805">
        <ele>541.4</ele>
        <time>2021-08-06T17:11:24Z</time>
      </trkpt>
      <trkpt lat="45.05861" lon="3.57815">
        <ele>541.2</ele>
        <time>2021-08-06T17:11:26Z</time>
      </trkpt>
      <trkpt lat="45.05854" lon="3.57825">
        <ele>540.5</ele>
        <time>2021-08-06T17:11:28Z</time>
      </trkpt>
      <trkpt lat="45.05847" lon="3.57834">
        <ele>539.7</ele>
        <time>2021-08-06T17:11:30Z</time>
      </trkpt>
      <trkpt lat="45.05839" lon="3.57843">
        <ele>540.2</ele>
        <time>2021-08-06T17:11:32Z</time>
      </trkpt>
      <trkpt lat="45.05831" lon="3.57852">
        <ele>540.9</ele>
        <time>2021-08-06T17:11:34Z</time>
      </trkpt>
      <trkpt lat="45.05823" lon="3.57861">
        <ele>542.6</ele>
        <time>2021-08-06T17:11:36Z</time>
      </trkpt>
      <trkpt lat="45.05815" lon="3.5787">
        <ele>543.8</ele>
        <time>2021-08-06T17:11:38Z</time>
      </trkpt>
      <trkpt lat="45.05806" lon="3.57878">
        <ele>544.9</ele>
        <time>2021-08-06T17:11:40Z</time>
      </trkpt>
      <trkpt lat="45.05799" lon="3.57887">
        <ele>545.8</ele>
        <time>2021-08-06T17:11:42Z</time>
      </trkpt>
      <trkpt lat="45.05791" lon="3.57896">
        <ele>546.1</ele>
        <time>2021-08-06T17:11:44Z</time>
      </trkpt>
      <trkpt lat="45.05784" lon="3.57904">
        <ele>546.3</ele>
        <time>2021-08-06T17:11:46Z</time>
      </trkpt>
      <trkpt lat="45.05777" lon="3.57911">
        <ele>546</ele>
        <time>2021-08-06T17:11:48Z</time>
      </trkpt>
      <trkpt lat="45.05769" lon="3.57917">
        <ele>545</ele>
        <time>2021-08-06T17:11:50Z</time>
      </trkpt>
      <trkpt lat="45.0576" lon="3.57922">
        <ele>544.4</ele>
        <time>2021-08-06T17:11:52Z</time>
      </trkpt>
      <trkpt lat="45.05752" lon="3.57925">
        <ele>543.5</ele>
        <time>2021-08-06T17:11:54Z</time>
      </trkpt>
      <trkpt lat="45.05743" lon="3.57929">
        <ele>543.3</ele>
        <time>2021-08-06T17:11:56Z</time>
      </trkpt>
      <trkpt lat="45.05734" lon="3.57932">
        <ele>542.6</ele>
        <time>2021-08-06T17:11:58Z</time>
      </trkpt>
      <trkpt lat="45.05726" lon="3.57934">
        <ele>541.9</ele>
        <time>2021-08-06T17:12:00Z</time>
      </trkpt>
      <trkpt lat="45.05718" lon="3.57937">
        <ele>541.4</ele>
        <time>2021-08-06T17:12:02Z</time>
      </trkpt>
      <trkpt lat="45.0571" lon="3.57942">
        <ele>541.2</ele>
        <time>2021-08-06T17:12:04Z</time>
      </trkpt>
      <trkpt lat="45.05702" lon="3.57949">
        <ele>541.3</ele>
        <time>2021-08-06T17:12:06Z</time>
      </trkpt>
      <trkpt lat="45.05695" lon="3.57957">
        <ele>541.5</ele>
        <time>2021-08-06T17:12:08Z</time>
      </trkpt>
      <trkpt lat="45.05687" lon="3.57966">
        <ele>541.4</ele>
        <time>2021-08-06T17:12:10Z</time>
      </trkpt>
      <trkpt lat="45.0568" lon="3.57975">
        <ele>541.2</ele>
        <time>2021-08-06T17:12:12Z</time>
      </trkpt>
      <trkpt lat="45.05673" lon="3.57982">
        <ele>540.3</ele>
        <time>2021-08-06T17:12:14Z</time>
      </trkpt>
      <trkpt lat="45.05666" lon="3.5799">
        <ele>539.6</ele>
        <time>2021-08-06T17:12:16Z</time>
      </trkpt>
      <trkpt lat="45.0566" lon="3.57997">
        <ele>539.7</ele>
        <time>2021-08-06T17:12:18Z</time>
      </trkpt>
      <trkpt lat="45.05652" lon="3.58004">
        <ele>539.7</ele>
        <time>2021-08-06T17:12:20Z</time>
      </trkpt>
      <trkpt lat="45.05646" lon="3.58011">
        <ele>540.2</ele>
        <time>2021-08-06T17:12:22Z</time>
      </trkpt>
      <trkpt lat="45.0564" lon="3.58017">
        <ele>540.4</ele>
        <time>2021-08-06T17:12:24Z</time>
      </trkpt>
      <trkpt lat="45.05634" lon="3.58023">
        <ele>540.4</ele>
        <time>2021-08-06T17:12:26Z</time>
      </trkpt>
      <trkpt lat="45.05628" lon="3.5803">
        <ele>540.2</ele>
        <time>2021-08-06T17:12:28Z</time>
      </trkpt>
      <trkpt lat="45.05623" lon="3.58034">
        <ele>539.8</ele>
        <time>2021-08-06T17:12:30Z</time>
      </trkpt>
      <trkpt lat="45.05619" lon="3.58039">
        <ele>539.6</ele>
        <time>2021-08-06T17:12:32Z</time>
      </trkpt>
      <trkpt lat="45.05614" lon="3.58043">
        <ele>539.2</ele>
        <time>2021-08-06T17:12:34Z</time>
      </trkpt>
      <trkpt lat="45.0561" lon="3.58046">
        <ele>538.7</ele>
        <time>2021-08-06T17:12:36Z</time>
      </trkpt>
      <trkpt lat="45.05607" lon="3.58049">
        <ele>538.2</ele>
        <time>2021-08-06T17:12:38Z</time>
      </trkpt>
      <trkpt lat="45.05603" lon="3.58051">
        <ele>537.5</ele>
        <time>2021-08-06T17:12:40Z</time>
      </trkpt>
      <trkpt lat="45.05598" lon="3.58051">
        <ele>536.3</ele>
        <time>2021-08-06T17:12:42Z</time>
      </trkpt>
      <trkpt lat="45.05594" lon="3.58049">
        <ele>535.1</ele>
        <time>2021-08-06T17:12:44Z</time>
      </trkpt>
      <trkpt lat="45.0559" lon="3.58046">
        <ele>533.8</ele>
        <time>2021-08-06T17:12:46Z</time>
      </trkpt>
      <trkpt lat="45.05587" lon="3.58041">
        <ele>532.8</ele>
        <time>2021-08-06T17:12:48Z</time>
      </trkpt>
      <trkpt lat="45.05587" lon="3.58034">
        <ele>532.3</ele>
        <time>2021-08-06T17:12:50Z</time>
      </trkpt>
      <trkpt lat="45.05588" lon="3.58032">
        <ele>532.2</ele>
        <time>2021-08-06T17:12:52Z</time>
      </trkpt>
      <trkpt lat="45.05588" lon="3.5803">
        <ele>532.1</ele>
        <time>2021-08-06T17:12:54Z</time>
      </trkpt>
      <trkpt lat="45.05588" lon="3.5803">
        <ele>532.1</ele>
        <time>2021-08-06T17:12:56Z</time>
      </trkpt>
      <trkpt lat="45.05588" lon="3.5803">
        <ele>532.1</ele>
        <time>2021-08-06T17:12:58Z</time>
      </trkpt>
      <trkpt lat="45.05587" lon="3.58029">
        <ele>531.9</ele>
        <time>2021-08-06T17:13:00Z</time>
      </trkpt>
    </trkseg>
      <trkpt lat="45.05594" lon="3.58012">
        <ele>531.6</ele>
        <time>2021-08-07T07:37:37Z</time>
      </trkpt>
      <trkpt lat="45.05592" lon="3.58017">
        <ele>531.7</ele>
        <time>2021-08-07T07:37:39Z</time>
      </trkpt>
      <trkpt lat="45.05591" lon="3.5802">
        <ele>531.8</ele>
        <time>2021-08-07T07:37:41Z</time>
      </trkpt>
      <trkpt lat="45.05589" lon="3.58022">
        <ele>531.7</ele>
        <time>2021-08-07T07:37:43Z</time>
      </trkpt>
      <trkpt lat="45.05587" lon="3.58026">
        <ele>531.5</ele>
        <time>2021-08-07T07:37:45Z</time>
      </trkpt>
      <trkpt lat="45.05585" lon="3.58026">
        <ele>531.2</ele>
        <time>2021-08-07T07:37:47Z</time>
      </trkpt>
      <trkpt lat="45.05585" lon="3.58029">
        <ele>531.4</ele>
        <time>2021-08-07T07:37:49Z</time>
      </trkpt>
      <trkpt lat="45.05585" lon="3.58032">
        <ele>531.7</ele>
        <time>2021-08-07T07:37:51Z</time>
      </trkpt>
      <trkpt lat="45.05585" lon="3.58036">
        <ele>532</ele>
        <time>2021-08-07T07:37:53Z</time>
      </trkpt>
      <trkpt lat="45.05588" lon="3.5804">
        <ele>532.9</ele>
        <time>2021-08-07T07:37:55Z</time>
      </trkpt>
      <trkpt lat="45.05591" lon="3.58043">
        <ele>533.8</ele>
        <time>2021-08-07T07:37:57Z</time>
      </trkpt>
      <trkpt lat="45.05593" lon="3.58046">
        <ele>534.7</ele>
        <time>2021-08-07T07:37:59Z</time>
      </trkpt>
      <trkpt lat="45.05596" lon="3.58049">
        <ele>535.6</ele>
        <time>2021-08-07T07:38:01Z</time>
      </trkpt>
      <trkpt lat="45.05598" lon="3.58051">
        <ele>536.2</ele>
        <time>2021-08-07T07:38:03Z</time>
      </trkpt>
      <trkpt lat="45.05598" lon="3.58051">
        <ele>536.4</ele>
        <time>2021-08-07T07:38:05Z</time>
      </trkpt>
      <trkpt lat="45.05599" lon="3.58051">
        <ele>536.7</ele>
        <time>2021-08-07T07:38:07Z</time>
      </trkpt>
      <trkpt lat="45.056" lon="3.58051">
        <ele>536.8</ele>
        <time>2021-08-07T07:38:09Z</time>
      </trkpt>
      <trkpt lat="45.05603" lon="3.5805">
        <ele>537.3</ele>
        <time>2021-08-07T07:38:11Z</time>
      </trkpt>
      <trkpt lat="45.05605" lon="3.5805">
        <ele>537.8</ele>
        <time>2021-08-07T07:38:13Z</time>
      </trkpt>
      <trkpt lat="45.05606" lon="3.58052">
        <ele>538.3</ele>
        <time>2021-08-07T07:38:15Z</time>
      </trkpt>
      <trkpt lat="45.05603" lon="3.58055">
        <ele>538</ele>
        <time>2021-08-07T07:38:17Z</time>
      </trkpt>
      <trkpt lat="45.056" lon="3.58058">
        <ele>537.4</ele>
        <time>2021-08-07T07:38:19Z</time>
      </trkpt>
      <trkpt lat="45.05596" lon="3.58059">
        <ele>536.7</ele>
        <time>2021-08-07T07:38:21Z</time>
      </trkpt>
      <trkpt lat="45.05593" lon="3.5806">
        <ele>536</ele>
        <time>2021-08-07T07:38:23Z</time>
      </trkpt>
      <trkpt lat="45.05591" lon="3.58063">
        <ele>535.6</ele>
        <time>2021-08-07T07:38:25Z</time>
      </trkpt>
      <trkpt lat="45.05589" lon="3.58065">
        <ele>535.2</ele>
        <time>2021-08-07T07:38:27Z</time>
      </trkpt>
      <trkpt lat="45.05586" lon="3.58068">
        <ele>534.7</ele>
        <time>2021-08-07T07:38:29Z</time>
      </trkpt>
      <trkpt lat="45.05583" lon="3.58071">
        <ele>534.1</ele>
        <time>2021-08-07T07:38:31Z</time>
      </trkpt>
      <trkpt lat="45.0558" lon="3.58073">
        <ele>534.1</ele>
        <time>2021-08-07T07:38:33Z</time>
      </trkpt>
      <trkpt lat="45.05576" lon="3.58075">
        <ele>534</ele>
        <time>2021-08-07T07:38:35Z</time>
      </trkpt>
      <trkpt lat="45.05572" lon="3.58078">
        <ele>534</ele>
        <time>2021-08-07T07:38:37Z</time>
      </trkpt>
      <trkpt lat="45.05569" lon="3.58081">
        <ele>534</ele>
        <time>2021-08-07T07:38:39Z</time>
      </trkpt>
      <trkpt lat="45.05566" lon="3.58084">
        <ele>534.2</ele>
        <time>2021-08-07T07:38:41Z</time>
      </trkpt>
      <trkpt lat="45.05562" lon="3.58088">
        <ele>535</ele>
        <time>2021-08-07T07:38:43Z</time>
      </trkpt>
      <trkpt lat="45.05559" lon="3.58091">
        <ele>535.6</ele>
        <time>2021-08-07T07:38:45Z</time>
      </trkpt>
      <trkpt lat="45.05556" lon="3.58094">
        <ele>536.4</ele>
        <time>2021-08-07T07:38:47Z</time>
      </trkpt>
      <trkpt lat="45.05553" lon="3.58097">
        <ele>537</ele>
        <time>2021-08-07T07:38:49Z</time>
      </trkpt>
      <trkpt lat="45.0555" lon="3.581">
        <ele>537.8</ele>
        <time>2021-08-07T07:38:51Z</time>
      </trkpt>
      <trkpt lat="45.05548" lon="3.58101">
        <ele>537.9</ele>
        <time>2021-08-07T07:38:53Z</time>
      </trkpt>
      <trkpt lat="45.05545" lon="3.58103">
        <ele>538.5</ele>
        <time>2021-08-07T07:38:55Z</time>
      </trkpt>
      <trkpt lat="45.05542" lon="3.58104">
        <ele>538.6</ele>
        <time>2021-08-07T07:38:57Z</time>
      </trkpt>
      <trkpt lat="45.0554" lon="3.58104">
        <ele>538.6</ele>
        <time>2021-08-07T07:38:59Z</time>
      </trkpt>
      <trkpt lat="45.05538" lon="3.58106">
        <ele>539.1</ele>
        <time>2021-08-07T07:39:01Z</time>
      </trkpt>
      <trkpt lat="45.05534" lon="3.58107">
        <ele>539.3</ele>
        <time>2021-08-07T07:39:03Z</time>
      </trkpt>
      <trkpt lat="45.05531" lon="3.58108">
        <ele>539.2</ele>
        <time>2021-08-07T07:39:05Z</time>
      </trkpt>
      <trkpt lat="45.05527" lon="3.5811">
        <ele>539.7</ele>
        <time>2021-08-07T07:39:07Z</time>
      </trkpt>
      <trkpt lat="45.05524" lon="3.58112">
        <ele>540.1</ele>
        <time>2021-08-07T07:39:09Z</time>
      </trkpt>
      <trkpt lat="45.0552" lon="3.58113">
        <ele>540.3</ele>
        <time>2021-08-07T07:39:11Z</time>
      </trkpt>
      <trkpt lat="45.05516" lon="3.58115">
        <ele>540.8</ele>
        <time>2021-08-07T07:39:13Z</time>
      </trkpt>
      <trkpt lat="45.05512" lon="3.58116">
        <ele>541.1</ele>
        <time>2021-08-07T07:39:15Z</time>
      </trkpt>
      <trkpt lat="45.05507" lon="3.58118">
        <ele>541.6</ele>
        <time>2021-08-07T07:39:17Z</time>
      </trkpt>
      <trkpt lat="45.05502" lon="3.58121">
        <ele>542.2</ele>
        <time>2021-08-07T07:39:19Z</time>
      </trkpt>
      <trkpt lat="45.05497" lon="3.58122">
        <ele>542.5</ele>
        <time>2021-08-07T07:39:21Z</time>
      </trkpt>
      <trkpt lat="45.05491" lon="3.58124">
        <ele>542.7</ele>
        <time>2021-08-07T07:39:23Z</time>
      </trkpt>
      <trkpt lat="45.05485" lon="3.58125">
        <ele>542.8</ele>
        <time>2021-08-07T07:39:25Z</time>
      </trkpt>
      <trkpt lat="45.05479" lon="3.58126">
        <ele>542.6</ele>
        <time>2021-08-07T07:39:27Z</time>
      </trkpt>
      <trkpt lat="45.05473" lon="3.58127">
        <ele>542.5</ele>
        <time>2021-08-07T07:39:29Z</time>
      </trkpt>
      <trkpt lat="45.05467" lon="3.58128">
        <ele>542.4</ele>
        <time>2021-08-07T07:39:31Z</time>
      </trkpt>
      <trkpt lat="45.0546" lon="3.58128">
        <ele>542.1</ele>
        <time>2021-08-07T07:39:33Z</time>
      </trkpt>
      <trkpt lat="45.05453" lon="3.58128">
        <ele>541.8</ele>
        <time>2021-08-07T07:39:35Z</time>
      </trkpt>
      <trkpt lat="45.05447" lon="3.58129">
        <ele>541.6</ele>
        <time>2021-08-07T07:39:37Z</time>
      </trkpt>
      <trkpt lat="45.05441" lon="3.58128">
        <ele>541.1</ele>
        <time>2021-08-07T07:39:39Z</time>
      </trkpt>
      <trkpt lat="45.05434" lon="3.58128">
        <ele>540.6</ele>
        <time>2021-08-07T07:39:41Z</time>
      </trkpt>
      <trkpt lat="45.05428" lon="3.58128">
        <ele>540.2</ele>
        <time>2021-08-07T07:39:43Z</time>
      </trkpt>
      <trkpt lat="45.05421" lon="3.58127">
        <ele>539.7</ele>
        <time>2021-08-07T07:39:45Z</time>
      </trkpt>
      <trkpt lat="45.05414" lon="3.58126">
        <ele>539.3</ele>
        <time>2021-08-07T07:39:47Z</time>
      </trkpt>
      <trkpt lat="45.05407" lon="3.58125">
        <ele>539.1</ele>
        <time>2021-08-07T07:39:49Z</time>
      </trkpt>
      <trkpt lat="45.05401" lon="3.58124">
        <ele>538.9</ele>
        <time>2021-08-07T07:39:51Z</time>
      </trkpt>
      <trkpt lat="45.05393" lon="3.58124">
        <ele>539</ele>
        <time>2021-08-07T07:39:53Z</time>
      </trkpt>
      <trkpt lat="45.05387" lon="3.58122">
        <ele>538.4</ele>
        <time>2021-08-07T07:39:55Z</time>
      </trkpt>
      <trkpt lat="45.05379" lon="3.5812">
        <ele>538.1</ele>
        <time>2021-08-07T07:39:57Z</time>
      </trkpt>
      <trkpt lat="45.05372" lon="3.58119">
        <ele>537.8</ele>
        <time>2021-08-07T07:39:59Z</time>
      </trkpt>
      <trkpt lat="45.05365" lon="3.58117">
        <ele>537.4</ele>
        <time>2021-08-07T07:40:01Z</time>
      </trkpt>
      <trkpt lat="45.05358" lon="3.58116">
        <ele>537.3</ele>
        <time>2021-08-07T07:40:03Z</time>
      </trkpt>
      <trkpt lat="45.05351" lon="3.58115">
        <ele>536.9</ele>
        <time>2021-08-07T07:40:05Z</time>
      </trkpt>
      <trkpt lat="45.05344" lon="3.58113">
        <ele>536.5</ele>
        <time>2021-08-07T07:40:07Z</time>
      </trkpt>
      <trkpt lat="45.05337" lon="3.58112">
        <ele>536.2</ele>
        <time>2021-08-07T07:40:09Z</time>
      </trkpt>
      <trkpt lat="45.05329" lon="3.5811">
        <ele>535.8</ele>
        <time>2021-08-07T07:40:11Z</time>
      </trkpt>
      <trkpt lat="45.05322" lon="3.58108">
        <ele>535.5</ele>
        <time>2021-08-07T07:40:13Z</time>
      </trkpt>
      <trkpt lat="45.05316" lon="3.58108">
        <ele>535.4</ele>
        <time>2021-08-07T07:40:15Z</time>
      </trkpt>
      <trkpt lat="45.05308" lon="3.58106">
        <ele>535.1</ele>
        <time>2021-08-07T07:40:17Z</time>
      </trkpt>
      <trkpt lat="45.05301" lon="3.58105">
        <ele>534.9</ele>
        <time>2021-08-07T07:40:19Z</time>
      </trkpt>
      <trkpt lat="45.05295" lon="3.58104">
        <ele>534.7</ele>
        <time>2021-08-07T07:40:21Z</time>
      </trkpt>
      <trkpt lat="45.05288" lon="3.58103">
        <ele>534.6</ele>
        <time>2021-08-07T07:40:23Z</time>
      </trkpt>
      <trkpt lat="45.05282" lon="3.58102">
        <ele>534.4</ele>
        <time>2021-08-07T07:40:25Z</time>
      </trkpt>
      <trkpt lat="45.05275" lon="3.58102">
        <ele>534.4</ele>
        <time>2021-08-07T07:40:27Z</time>
      </trkpt>
      <trkpt lat="45.05268" lon="3.58101">
        <ele>534.5</ele>
        <time>2021-08-07T07:40:29Z</time>
      </trkpt>
      <trkpt lat="45.05262" lon="3.581">
        <ele>534.3</ele>
        <time>2021-08-07T07:40:31Z</time>
      </trkpt>
      <trkpt lat="45.05255" lon="3.58099">
        <ele>534.2</ele>
        <time>2021-08-07T07:40:33Z</time>
      </trkpt>
      <trkpt lat="45.05249" lon="3.58099">
        <ele>534.1</ele>
        <time>2021-08-07T07:40:35Z</time>
      </trkpt>
      <trkpt lat="45.05243" lon="3.58099">
        <ele>533.8</ele>
        <time>2021-08-07T07:40:37Z</time>
      </trkpt>
      <trkpt lat="45.05237" lon="3.58098">
        <ele>533.5</ele>
        <time>2021-08-07T07:40:39Z</time>
      </trkpt>
      <trkpt lat="45.0523" lon="3.58098">
        <ele>533.3</ele>
        <time>2021-08-07T07:40:41Z</time>
      </trkpt>
      <trkpt lat="45.05224" lon="3.58098">
        <ele>533.2</ele>
        <time>2021-08-07T07:40:43Z</time>
      </trkpt>
      <trkpt lat="45.05217" lon="3.58099">
        <ele>533.2</ele>
        <time>2021-08-07T07:40:45Z</time>
      </trkpt>
      <trkpt lat="45.05211" lon="3.58099">
        <ele>533.1</ele>
        <time>2021-08-07T07:40:47Z</time>
      </trkpt>
      <trkpt lat="45.05204" lon="3.58099">
        <ele>533</ele>
        <time>2021-08-07T07:40:49Z</time>
      </trkpt>
      <trkpt lat="45.05198" lon="3.581">
        <ele>533.1</ele>
        <time>2021-08-07T07:40:51Z</time>
      </trkpt>
      <trkpt lat="45.05191" lon="3.58101">
        <ele>533.1</ele>
        <time>2021-08-07T07:40:53Z</time>
      </trkpt>
      <trkpt lat="45.05184" lon="3.58101">
        <ele>533</ele>
        <time>2021-08-07T07:40:55Z</time>
      </trkpt>
      <trkpt lat="45.05177" lon="3.58102">
        <ele>533</ele>
        <time>2021-08-07T07:40:57Z</time>
      </trkpt>
      <trkpt lat="45.0517" lon="3.58103">
        <ele>533.2</ele>
        <time>2021-08-07T07:40:59Z</time>
      </trkpt>
      <trkpt lat="45.05163" lon="3.58104">
        <ele>533.3</ele>
        <time>2021-08-07T07:41:01Z</time>
      </trkpt>
      <trkpt lat="45.05155" lon="3.58105">
        <ele>533.4</ele>
        <time>2021-08-07T07:41:03Z</time>
      </trkpt>
      <trkpt lat="45.05148" lon="3.58107">
        <ele>533.6</ele>
        <time>2021-08-07T07:41:05Z</time>
      </trkpt>
      <trkpt lat="45.0514" lon="3.58108">
        <ele>533.9</ele>
        <time>2021-08-07T07:41:07Z</time>
      </trkpt>
      <trkpt lat="45.05133" lon="3.5811">
        <ele>534.2</ele>
        <time>2021-08-07T07:41:09Z</time>
      </trkpt>
      <trkpt lat="45.05125" lon="3.58112">
        <ele>534.6</ele>
        <time>2021-08-07T07:41:11Z</time>
      </trkpt>
      <trkpt lat="45.05118" lon="3.58114">
        <ele>534.8</ele>
        <time>2021-08-07T07:41:13Z</time>
      </trkpt>
      <trkpt lat="45.05112" lon="3.58116">
        <ele>535.1</ele>
        <time>2021-08-07T07:41:15Z</time>
      </trkpt>
      <trkpt lat="45.05105" lon="3.58117">
        <ele>535.2</ele>
        <time>2021-08-07T07:41:17Z</time>
      </trkpt>
      <trkpt lat="45.05099" lon="3.5812">
        <ele>535.5</ele>
        <time>2021-08-07T07:41:19Z</time>
      </trkpt>
      <trkpt lat="45.05092" lon="3.58122">
        <ele>535.7</ele>
        <time>2021-08-07T07:41:21Z</time>
      </trkpt>
      <trkpt lat="45.05086" lon="3.58124">
        <ele>535.9</ele>
        <time>2021-08-07T07:41:23Z</time>
      </trkpt>
      <trkpt lat="45.05079" lon="3.58126">
        <ele>535.9</ele>
        <time>2021-08-07T07:41:25Z</time>
      </trkpt>
      <trkpt lat="45.05071" lon="3.58128">
        <ele>535.8</ele>
        <time>2021-08-07T07:41:27Z</time>
      </trkpt>
      <trkpt lat="45.05064" lon="3.5813">
        <ele>535.8</ele>
        <time>2021-08-07T07:41:29Z</time>
      </trkpt>
      <trkpt lat="45.05058" lon="3.58132">
        <ele>535.7</ele>
        <time>2021-08-07T07:41:31Z</time>
      </trkpt>
      <trkpt lat="45.05051" lon="3.58133">
        <ele>535.5</ele>
        <time>2021-08-07T07:41:33Z</time>
      </trkpt>
      <trkpt lat="45.05044" lon="3.58135">
        <ele>535.3</ele>
        <time>2021-08-07T07:41:35Z</time>
      </trkpt>
      <trkpt lat="45.05038" lon="3.58138">
        <ele>535.3</ele>
        <time>2021-08-07T07:41:37Z</time>
      </trkpt>
      <trkpt lat="45.05031" lon="3.5814">
        <ele>535.1</ele>
        <time>2021-08-07T07:41:39Z</time>
      </trkpt>
      <trkpt lat="45.05024" lon="3.58142">
        <ele>534.9</ele>
        <time>2021-08-07T07:41:41Z</time>
      </trkpt>
      <trkpt lat="45.05017" lon="3.58146">
        <ele>534.7</ele>
        <time>2021-08-07T07:41:43Z</time>
      </trkpt>
      <trkpt lat="45.05011" lon="3.58149">
        <ele>534.5</ele>
        <time>2021-08-07T07:41:45Z</time>
      </trkpt>
      <trkpt lat="45.05004" lon="3.58153">
        <ele>534.3</ele>
        <time>2021-08-07T07:41:47Z</time>
      </trkpt>
      <trkpt lat="45.04997" lon="3.58157">
        <ele>534.1</ele>
        <time>2021-08-07T07:41:49Z</time>
      </trkpt>
      <trkpt lat="45.04991" lon="3.58162">
        <ele>533.8</ele>
        <time>2021-08-07T07:41:51Z</time>
      </trkpt>
      <trkpt lat="45.04985" lon="3.58167">
        <ele>533.4</ele>
        <time>2021-08-07T07:41:53Z</time>
      </trkpt>
      <trkpt lat="45.04979" lon="3.58172">
        <ele>534</ele>
        <time>2021-08-07T07:41:55Z</time>
      </trkpt>
      <trkpt lat="45.04973" lon="3.58178">
        <ele>534.5</ele>
        <time>2021-08-07T07:41:57Z</time>
      </trkpt>
      <trkpt lat="45.04967" lon="3.58183">
        <ele>535</ele>
        <time>2021-08-07T07:41:59Z</time>
      </trkpt>
      <trkpt lat="45.04961" lon="3.5819">
        <ele>535.5</ele>
        <time>2021-08-07T07:42:01Z</time>
      </trkpt>
      <trkpt lat="45.04955" lon="3.58198">
        <ele>536.1</ele>
        <time>2021-08-07T07:42:03Z</time>
      </trkpt>
      <trkpt lat="45.04949" lon="3.58205">
        <ele>536.6</ele>
        <time>2021-08-07T07:42:05Z</time>
      </trkpt>
      <trkpt lat="45.04944" lon="3.58212">
        <ele>537</ele>
        <time>2021-08-07T07:42:07Z</time>
      </trkpt>
      <trkpt lat="45.04938" lon="3.58219">
        <ele>537.2</ele>
        <time>2021-08-07T07:42:09Z</time>
      </trkpt>
      <trkpt lat="45.04932" lon="3.58225">
        <ele>537.4</ele>
        <time>2021-08-07T07:42:11Z</time>
      </trkpt>
      <trkpt lat="45.04927" lon="3.58232">
        <ele>537.4</ele>
        <time>2021-08-07T07:42:13Z</time>
      </trkpt>
      <trkpt lat="45.04922" lon="3.58239">
        <ele>537.5</ele>
        <time>2021-08-07T07:42:15Z</time>
      </trkpt>
      <trkpt lat="45.04916" lon="3.58246">
        <ele>537.3</ele>
        <time>2021-08-07T07:42:17Z</time>
      </trkpt>
      <trkpt lat="45.04911" lon="3.58252">
        <ele>537.7</ele>
        <time>2021-08-07T07:42:19Z</time>
      </trkpt>
      <trkpt lat="45.04907" lon="3.58258">
        <ele>538.4</ele>
        <time>2021-08-07T07:42:21Z</time>
      </trkpt>
      <trkpt lat="45.04902" lon="3.58264">
        <ele>538.9</ele>
        <time>2021-08-07T07:42:23Z</time>
      </trkpt>
      <trkpt lat="45.04896" lon="3.58271">
        <ele>539.3</ele>
        <time>2021-08-07T07:42:25Z</time>
      </trkpt>
      <trkpt lat="45.04891" lon="3.58278">
        <ele>539.5</ele>
        <time>2021-08-07T07:42:27Z</time>
      </trkpt>
      <trkpt lat="45.04886" lon="3.58285">
        <ele>539.4</ele>
        <time>2021-08-07T07:42:29Z</time>
      </trkpt>
      <trkpt lat="45.0488" lon="3.58293">
        <ele>539.3</ele>
        <time>2021-08-07T07:42:31Z</time>
      </trkpt>
      <trkpt lat="45.04876" lon="3.58301">
        <ele>539.3</ele>
        <time>2021-08-07T07:42:33Z</time>
      </trkpt>
      <trkpt lat="45.04873" lon="3.58309">
        <ele>539.3</ele>
        <time>2021-08-07T07:42:35Z</time>
      </trkpt>
      <trkpt lat="45.0487" lon="3.58316">
        <ele>539.1</ele>
        <time>2021-08-07T07:42:37Z</time>
      </trkpt>
      <trkpt lat="45.04867" lon="3.58323">
        <ele>539</ele>
        <time>2021-08-07T07:42:39Z</time>
      </trkpt>
      <trkpt lat="45.04865" lon="3.58329">
        <ele>538.7</ele>
        <time>2021-08-07T07:42:41Z</time>
      </trkpt>
      <trkpt lat="45.04862" lon="3.58334">
        <ele>538.3</ele>
        <time>2021-08-07T07:42:43Z</time>
      </trkpt>
      <trkpt lat="45.0486" lon="3.5834">
        <ele>538.3</ele>
        <time>2021-08-07T07:42:45Z</time>
      </trkpt>
      <trkpt lat="45.04859" lon="3.58342">
        <ele>538.2</ele>
        <time>2021-08-07T07:42:47Z</time>
      </trkpt>
      <trkpt lat="45.04859" lon="3.58342">
        <ele>538.2</ele>
        <time>2021-08-07T07:42:49Z</time>
      </trkpt>
      <trkpt lat="45.04859" lon="3.58342">
        <ele>538.1</ele>
        <time>2021-08-07T07:42:51Z</time>
      </trkpt>
      <trkpt lat="45.04859" lon="3.58342">
        <ele>538.1</ele>
        <time>2021-08-07T07:42:53Z</time>
      </trkpt>
      <trkpt lat="45.04859" lon="3.58342">
        <ele>538.1</ele>
        <time>2021-08-07T07:42:55Z</time>
      </trkpt>
      <trkpt lat="45.04858" lon="3.58343">
        <ele>537.9</ele>
        <time>2021-08-07T07:44:15Z</time>
      </trkpt>
      <trkpt lat="45.04858" lon="3.58343">
        <ele>538</ele>
        <time>2021-08-07T07:44:17Z</time>
      </trkpt>
      <trkpt lat="45.04858" lon="3.58343">
        <ele>538</ele>
        <time>2021-08-07T07:44:19Z</time>
      </trkpt>
      <trkpt lat="45.04858" lon="3.58345">
        <ele>538</ele>
        <time>2021-08-07T07:44:21Z</time>
      </trkpt>
      <trkpt lat="45.04857" lon="3.58349">
        <ele>538.4</ele>
        <time>2021-08-07T07:44:23Z</time>
      </trkpt>
      <trkpt lat="45.04856" lon="3.58356">
        <ele>539</ele>
        <time>2021-08-07T07:44:25Z</time>
      </trkpt>
      <trkpt lat="45.04854" lon="3.58362">
        <ele>538.8</ele>
        <time>2021-08-07T07:44:27Z</time>
      </trkpt>
      <trkpt lat="45.04848" lon="3.58363">
        <ele>536.6</ele>
        <time>2021-08-07T07:44:29Z</time>
      </trkpt>
      <trkpt lat="45.04841" lon="3.58358">
        <ele>533.1</ele>
        <time>2021-08-07T07:44:31Z</time>
      </trkpt>
      <trkpt lat="45.04837" lon="3.58355">
        <ele>530.8</ele>
        <time>2021-08-07T07:44:33Z</time>
      </trkpt>
      <trkpt lat="45.04835" lon="3.58354">
        <ele>530.1</ele>
        <time>2021-08-07T07:44:35Z</time>
      </trkpt>
      <trkpt lat="45.04835" lon="3.58354">
        <ele>529.9</ele>
        <time>2021-08-07T07:44:37Z</time>
      </trkpt>
      <trkpt lat="45.04835" lon="3.58354">
        <ele>529.8</ele>
        <time>2021-08-07T07:44:39Z</time>
      </trkpt>
      <trkpt lat="45.04834" lon="3.58353">
        <ele>529.6</ele>
        <time>2021-08-07T07:44:41Z</time>
      </trkpt>
      <trkpt lat="45.04834" lon="3.58354">
        <ele>529.5</ele>
        <time>2021-08-07T07:44:43Z</time>
      </trkpt>
      <trkpt lat="45.04821" lon="3.58347">
        <ele>528.9</ele>
        <time>2021-08-07T07:44:53Z</time>
      </trkpt>
      <trkpt lat="45.04816" lon="3.58343">
        <ele>528.9</ele>
        <time>2021-08-07T07:44:55Z</time>
      </trkpt>
      <trkpt lat="45.04811" lon="3.5834">
        <ele>528.8</ele>
        <time>2021-08-07T07:44:57Z</time>
      </trkpt>
      <trkpt lat="45.04806" lon="3.58337">
        <ele>528.9</ele>
        <time>2021-08-07T07:44:59Z</time>
      </trkpt>
      <trkpt lat="45.048" lon="3.58333">
        <ele>529</ele>
        <time>2021-08-07T07:45:01Z</time>
      </trkpt>
      <trkpt lat="45.04794" lon="3.58329">
        <ele>529.5</ele>
        <time>2021-08-07T07:45:03Z</time>
      </trkpt>
      <trkpt lat="45.04789" lon="3.58326">
        <ele>530</ele>
        <time>2021-08-07T07:45:05Z</time>
      </trkpt>
      <trkpt lat="45.04785" lon="3.58323">
        <ele>530.5</ele>
        <time>2021-08-07T07:45:07Z</time>
      </trkpt>
      <trkpt lat="45.0478" lon="3.5832">
        <ele>531</ele>
        <time>2021-08-07T07:45:09Z</time>
      </trkpt>
      <trkpt lat="45.04776" lon="3.58317">
        <ele>531.5</ele>
        <time>2021-08-07T07:45:11Z</time>
      </trkpt>
      <trkpt lat="45.04771" lon="3.58314">
        <ele>532.2</ele>
        <time>2021-08-07T07:45:13Z</time>
      </trkpt>
      <trkpt lat="45.04765" lon="3.58309">
        <ele>533</ele>
        <time>2021-08-07T07:45:15Z</time>
      </trkpt>
      <trkpt lat="45.04758" lon="3.58304">
        <ele>534</ele>
        <time>2021-08-07T07:45:17Z</time>
      </trkpt>
      <trkpt lat="45.04752" lon="3.58301">
        <ele>535</ele>
        <time>2021-08-07T07:45:19Z</time>
      </trkpt>
      <trkpt lat="45.04747" lon="3.58299">
        <ele>536</ele>
        <time>2021-08-07T07:45:21Z</time>
      </trkpt>
      <trkpt lat="45.04744" lon="3.58297">
        <ele>536.8</ele>
        <time>2021-08-07T07:45:23Z</time>
      </trkpt>
      <trkpt lat="45.04744" lon="3.58295">
        <ele>537</ele>
        <time>2021-08-07T07:45:25Z</time>
      </trkpt>
      <trkpt lat="45.04744" lon="3.58295">
        <ele>537</ele>
        <time>2021-08-07T07:45:27Z</time>
      </trkpt>
      <trkpt lat="45.04744" lon="3.58294">
        <ele>537.1</ele>
        <time>2021-08-07T07:45:29Z</time>
      </trkpt>
      <trkpt lat="45.04744" lon="3.58295">
        <ele>537.1</ele>
        <time>2021-08-07T07:45:31Z</time>
      </trkpt>
      <trkpt lat="45.0473" lon="3.58304">
        <ele>538.7</ele>
        <time>2021-08-07T07:51:37Z</time>
      </trkpt>
      <trkpt lat="45.04727" lon="3.58311">
        <ele>538.4</ele>
        <time>2021-08-07T07:51:39Z</time>
      </trkpt>
      <trkpt lat="45.04725" lon="3.5832">
        <ele>537.6</ele>
        <time>2021-08-07T07:51:41Z</time>
      </trkpt>
      <trkpt lat="45.04722" lon="3.58331">
        <ele>536.7</ele>
        <time>2021-08-07T07:51:43Z</time>
      </trkpt>
      <trkpt lat="45.04719" lon="3.58341">
        <ele>536.6</ele>
        <time>2021-08-07T07:51:45Z</time>
      </trkpt>
      <trkpt lat="45.04717" lon="3.58353">
        <ele>536.4</ele>
        <time>2021-08-07T07:51:47Z</time>
      </trkpt>
      <trkpt lat="45.04715" lon="3.58366">
        <ele>536.1</ele>
        <time>2021-08-07T07:51:49Z</time>
      </trkpt>
      <trkpt lat="45.04712" lon="3.58378">
        <ele>535.9</ele>
        <time>2021-08-07T07:51:51Z</time>
      </trkpt>
      <trkpt lat="45.04709" lon="3.58389">
        <ele>535.8</ele>
        <time>2021-08-07T07:51:53Z</time>
      </trkpt>
      <trkpt lat="45.04705" lon="3.58396">
        <ele>535.9</ele>
        <time>2021-08-07T07:51:55Z</time>
      </trkpt>
      <trkpt lat="45.047" lon="3.584">
        <ele>536.1</ele>
        <time>2021-08-07T07:51:57Z</time>
      </trkpt>
      <trkpt lat="45.04694" lon="3.58402">
        <ele>536.5</ele>
        <time>2021-08-07T07:51:59Z</time>
      </trkpt>
      <trkpt lat="45.04688" lon="3.58406">
        <ele>536.9</ele>
        <time>2021-08-07T07:52:01Z</time>
      </trkpt>
      <trkpt lat="45.04682" lon="3.58408">
        <ele>537.3</ele>
        <time>2021-08-07T07:52:03Z</time>
      </trkpt>
      <trkpt lat="45.04676" lon="3.5841">
        <ele>537.6</ele>
        <time>2021-08-07T07:52:05Z</time>
      </trkpt>
      <trkpt lat="45.04671" lon="3.58414">
        <ele>537.9</ele>
        <time>2021-08-07T07:52:07Z</time>
      </trkpt>
      <trkpt lat="45.04666" lon="3.58419">
        <ele>538</ele>
        <time>2021-08-07T07:52:09Z</time>
      </trkpt>
      <trkpt lat="45.04663" lon="3.58425">
        <ele>538.5</ele>
        <time>2021-08-07T07:52:11Z</time>
      </trkpt>
      <trkpt lat="45.04661" lon="3.58432">
        <ele>538.7</ele>
        <time>2021-08-07T07:52:13Z</time>
      </trkpt>
      <trkpt lat="45.0466" lon="3.58438">
        <ele>538.7</ele>
        <time>2021-08-07T07:52:15Z</time>
      </trkpt>
      <trkpt lat="45.04658" lon="3.58444">
        <ele>538.9</ele>
        <time>2021-08-07T07:52:17Z</time>
      </trkpt>
      <trkpt lat="45.04656" lon="3.58451">
        <ele>539</ele>
        <time>2021-08-07T07:52:19Z</time>
      </trkpt>
      <trkpt lat="45.04654" lon="3.58461">
        <ele>539.2</ele>
        <time>2021-08-07T07:52:21Z</time>
      </trkpt>
      <trkpt lat="45.0465" lon="3.58472">
        <ele>539.6</ele>
        <time>2021-08-07T07:52:23Z</time>
      </trkpt>
      <trkpt lat="45.04645" lon="3.58483">
        <ele>540.5</ele>
        <time>2021-08-07T07:52:25Z</time>
      </trkpt>
      <trkpt lat="45.0464" lon="3.58492">
        <ele>541.4</ele>
        <time>2021-08-07T07:52:27Z</time>
      </trkpt>
      <trkpt lat="45.04636" lon="3.585">
        <ele>542.3</ele>
        <time>2021-08-07T07:52:29Z</time>
      </trkpt>
      <trkpt lat="45.04632" lon="3.58507">
        <ele>542.9</ele>
        <time>2021-08-07T07:52:31Z</time>
      </trkpt>
      <trkpt lat="45.04629" lon="3.58515">
        <ele>543.2</ele>
        <time>2021-08-07T07:52:33Z</time>
      </trkpt>
      <trkpt lat="45.04626" lon="3.58522">
        <ele>543.5</ele>
        <time>2021-08-07T07:52:35Z</time>
      </trkpt>
      <trkpt lat="45.04623" lon="3.5853">
        <ele>543.7</ele>
        <time>2021-08-07T07:52:37Z</time>
      </trkpt>
      <trkpt lat="45.0462" lon="3.58537">
        <ele>543.9</ele>
        <time>2021-08-07T07:52:39Z</time>
      </trkpt>
      <trkpt lat="45.04618" lon="3.58544">
        <ele>543.9</ele>
        <time>2021-08-07T07:52:41Z</time>
      </trkpt>
      <trkpt lat="45.04616" lon="3.58551">
        <ele>543.8</ele>
        <time>2021-08-07T07:52:43Z</time>
      </trkpt>
      <trkpt lat="45.04614" lon="3.58559">
        <ele>543.6</ele>
        <time>2021-08-07T07:52:45Z</time>
      </trkpt>
      <trkpt lat="45.04613" lon="3.58566">
        <ele>543.4</ele>
        <time>2021-08-07T07:52:47Z</time>
      </trkpt>
      <trkpt lat="45.04612" lon="3.58574">
        <ele>543</ele>
        <time>2021-08-07T07:52:49Z</time>
      </trkpt>
      <trkpt lat="45.0461" lon="3.58581">
        <ele>542.7</ele>
        <time>2021-08-07T07:52:51Z</time>
      </trkpt>
      <trkpt lat="45.04609" lon="3.58591">
        <ele>542.6</ele>
        <time>2021-08-07T07:52:53Z</time>
      </trkpt>
      <trkpt lat="45.04609" lon="3.58599">
        <ele>542.5</ele>
        <time>2021-08-07T07:52:55Z</time>
      </trkpt>
      <trkpt lat="45.04608" lon="3.58608">
        <ele>542.5</ele>
        <time>2021-08-07T07:52:57Z</time>
      </trkpt>
      <trkpt lat="45.04607" lon="3.58618">
        <ele>542.4</ele>
        <time>2021-08-07T07:52:59Z</time>
      </trkpt>
      <trkpt lat="45.04606" lon="3.58628">
        <ele>542.5</ele>
        <time>2021-08-07T07:53:01Z</time>
      </trkpt>
      <trkpt lat="45.04606" lon="3.58638">
        <ele>542.2</ele>
        <time>2021-08-07T07:53:03Z</time>
      </trkpt>
      <trkpt lat="45.04605" lon="3.58649">
        <ele>542.2</ele>
        <time>2021-08-07T07:53:05Z</time>
      </trkpt>
      <trkpt lat="45.04604" lon="3.58661">
        <ele>541.9</ele>
        <time>2021-08-07T07:53:07Z</time>
      </trkpt>
      <trkpt lat="45.04604" lon="3.58673">
        <ele>541.7</ele>
        <time>2021-08-07T07:53:09Z</time>
      </trkpt>
      <trkpt lat="45.04605" lon="3.58687">
        <ele>541.5</ele>
        <time>2021-08-07T07:53:11Z</time>
      </trkpt>
      <trkpt lat="45.04605" lon="3.58702">
        <ele>541.3</ele>
        <time>2021-08-07T07:53:13Z</time>
      </trkpt>
      <trkpt lat="45.04604" lon="3.58719">
        <ele>541.3</ele>
        <time>2021-08-07T07:53:15Z</time>
      </trkpt>
      <trkpt lat="45.04603" lon="3.58734">
        <ele>541.3</ele>
        <time>2021-08-07T07:53:17Z</time>
      </trkpt>
      <trkpt lat="45.04601" lon="3.58749">
        <ele>541.4</ele>
        <time>2021-08-07T07:53:19Z</time>
      </trkpt>
      <trkpt lat="45.04599" lon="3.58764">
        <ele>540.9</ele>
        <time>2021-08-07T07:53:21Z</time>
      </trkpt>
      <trkpt lat="45.04596" lon="3.58779">
        <ele>540.4</ele>
        <time>2021-08-07T07:53:23Z</time>
      </trkpt>
      <trkpt lat="45.04593" lon="3.58794">
        <ele>539.9</ele>
        <time>2021-08-07T07:53:25Z</time>
      </trkpt>
      <trkpt lat="45.04588" lon="3.58808">
        <ele>539.4</ele>
        <time>2021-08-07T07:53:27Z</time>
      </trkpt>
      <trkpt lat="45.04585" lon="3.58822">
        <ele>538.7</ele>
        <time>2021-08-07T07:53:29Z</time>
      </trkpt>
      <trkpt lat="45.04582" lon="3.58836">
        <ele>538.5</ele>
        <time>2021-08-07T07:53:31Z</time>
      </trkpt>
      <trkpt lat="45.04578" lon="3.58849">
        <ele>539.4</ele>
        <time>2021-08-07T07:53:33Z</time>
      </trkpt>
      <trkpt lat="45.04575" lon="3.58862">
        <ele>540.1</ele>
        <time>2021-08-07T07:53:35Z</time>
      </trkpt>
      <trkpt lat="45.0457" lon="3.58876">
        <ele>541.3</ele>
        <time>2021-08-07T07:53:37Z</time>
      </trkpt>
      <trkpt lat="45.04565" lon="3.58889">
        <ele>542.3</ele>
        <time>2021-08-07T07:53:39Z</time>
      </trkpt>
      <trkpt lat="45.04561" lon="3.58901">
        <ele>543.1</ele>
        <time>2021-08-07T07:53:41Z</time>
      </trkpt>
      <trkpt lat="45.04556" lon="3.58913">
        <ele>544.1</ele>
        <time>2021-08-07T07:53:43Z</time>
      </trkpt>
      <trkpt lat="45.04551" lon="3.58925">
        <ele>544.6</ele>
        <time>2021-08-07T07:53:45Z</time>
      </trkpt>
      <trkpt lat="45.04546" lon="3.58936">
        <ele>544.3</ele>
        <time>2021-08-07T07:53:47Z</time>
      </trkpt>
      <trkpt lat="45.0454" lon="3.58948">
        <ele>544.2</ele>
        <time>2021-08-07T07:53:49Z</time>
      </trkpt>
      <trkpt lat="45.04533" lon="3.58959">
        <ele>543.9</ele>
        <time>2021-08-07T07:53:51Z</time>
      </trkpt>
      <trkpt lat="45.04526" lon="3.58972">
        <ele>542.9</ele>
        <time>2021-08-07T07:53:53Z</time>
      </trkpt>
      <trkpt lat="45.04517" lon="3.58985">
        <ele>541.8</ele>
        <time>2021-08-07T07:53:55Z</time>
      </trkpt>
      <trkpt lat="45.04509" lon="3.58999">
        <ele>539.8</ele>
        <time>2021-08-07T07:53:57Z</time>
      </trkpt>
      <trkpt lat="45.045" lon="3.59013">
        <ele>539.4</ele>
        <time>2021-08-07T07:53:59Z</time>
      </trkpt>
      <trkpt lat="45.04492" lon="3.59028">
        <ele>540</ele>
        <time>2021-08-07T07:54:01Z</time>
      </trkpt>
      <trkpt lat="45.04483" lon="3.59042">
        <ele>540.3</ele>
        <time>2021-08-07T07:54:03Z</time>
      </trkpt>
      <trkpt lat="45.04473" lon="3.59052">
        <ele>541.1</ele>
        <time>2021-08-07T07:54:05Z</time>
      </trkpt>
      <trkpt lat="45.04464" lon="3.5906">
        <ele>541.5</ele>
        <time>2021-08-07T07:54:07Z</time>
      </trkpt>
      <trkpt lat="45.04454" lon="3.59067">
        <ele>542.1</ele>
        <time>2021-08-07T07:54:09Z</time>
      </trkpt>
      <trkpt lat="45.04446" lon="3.59073">
        <ele>542.2</ele>
        <time>2021-08-07T07:54:11Z</time>
      </trkpt>
      <trkpt lat="45.04437" lon="3.59079">
        <ele>542.3</ele>
        <time>2021-08-07T07:54:13Z</time>
      </trkpt>
      <trkpt lat="45.04427" lon="3.59084">
        <ele>542.4</ele>
        <time>2021-08-07T07:54:15Z</time>
      </trkpt>
      <trkpt lat="45.04418" lon="3.59087">
        <ele>543.2</ele>
        <time>2021-08-07T07:54:17Z</time>
      </trkpt>
      <trkpt lat="45.04409" lon="3.59091">
        <ele>543.1</ele>
        <time>2021-08-07T07:54:19Z</time>
      </trkpt>
      <trkpt lat="45.04401" lon="3.59094">
        <ele>542.9</ele>
        <time>2021-08-07T07:54:21Z</time>
      </trkpt>
      <trkpt lat="45.04393" lon="3.59096">
        <ele>542.8</ele>
        <time>2021-08-07T07:54:23Z</time>
      </trkpt>
      <trkpt lat="45.04385" lon="3.59097">
        <ele>542.9</ele>
        <time>2021-08-07T07:54:25Z</time>
      </trkpt>
      <trkpt lat="45.04377" lon="3.59098">
        <ele>542.9</ele>
        <time>2021-08-07T07:54:27Z</time>
      </trkpt>
      <trkpt lat="45.04368" lon="3.591">
        <ele>542.9</ele>
        <time>2021-08-07T07:54:29Z</time>
      </trkpt>
      <trkpt lat="45.0436" lon="3.59101">
        <ele>542.9</ele>
        <time>2021-08-07T07:54:31Z</time>
      </trkpt>
      <trkpt lat="45.0435" lon="3.59102">
        <ele>543.2</ele>
        <time>2021-08-07T07:54:33Z</time>
      </trkpt>
      <trkpt lat="45.04341" lon="3.59103">
        <ele>543.3</ele>
        <time>2021-08-07T07:54:35Z</time>
      </trkpt>
      <trkpt lat="45.04331" lon="3.59103">
        <ele>543.2</ele>
        <time>2021-08-07T07:54:37Z</time>
      </trkpt>
      <trkpt lat="45.04321" lon="3.59102">
        <ele>542.4</ele>
        <time>2021-08-07T07:54:39Z</time>
      </trkpt>
      <trkpt lat="45.04311" lon="3.591">
        <ele>541.9</ele>
        <time>2021-08-07T07:54:41Z</time>
      </trkpt>
      <trkpt lat="45.04302" lon="3.59097">
        <ele>541.3</ele>
        <time>2021-08-07T07:54:43Z</time>
      </trkpt>
      <trkpt lat="45.04293" lon="3.59094">
        <ele>540.8</ele>
        <time>2021-08-07T07:54:45Z</time>
      </trkpt>
      <trkpt lat="45.04284" lon="3.59089">
        <ele>540.4</ele>
        <time>2021-08-07T07:54:47Z</time>
      </trkpt>
      <trkpt lat="45.04275" lon="3.59083">
        <ele>540.1</ele>
        <time>2021-08-07T07:54:49Z</time>
      </trkpt>
      <trkpt lat="45.04267" lon="3.59078">
        <ele>540.7</ele>
        <time>2021-08-07T07:54:51Z</time>
      </trkpt>
      <trkpt lat="45.04257" lon="3.59073">
        <ele>540.8</ele>
        <time>2021-08-07T07:54:53Z</time>
      </trkpt>
      <trkpt lat="45.04248" lon="3.59068">
        <ele>541.1</ele>
        <time>2021-08-07T07:54:55Z</time>
      </trkpt>
      <trkpt lat="45.04239" lon="3.59062">
        <ele>541.3</ele>
        <time>2021-08-07T07:54:57Z</time>
      </trkpt>
      <trkpt lat="45.0423" lon="3.59056">
        <ele>541.4</ele>
        <time>2021-08-07T07:54:59Z</time>
      </trkpt>
      <trkpt lat="45.04221" lon="3.5905">
        <ele>541.4</ele>
        <time>2021-08-07T07:55:01Z</time>
      </trkpt>
      <trkpt lat="45.04213" lon="3.59043">
        <ele>541.2</ele>
        <time>2021-08-07T07:55:03Z</time>
      </trkpt>
      <trkpt lat="45.04205" lon="3.59035">
        <ele>540.9</ele>
        <time>2021-08-07T07:55:05Z</time>
      </trkpt>
      <trkpt lat="45.04197" lon="3.59027">
        <ele>540.4</ele>
        <time>2021-08-07T07:55:07Z</time>
      </trkpt>
      <trkpt lat="45.0419" lon="3.59019">
        <ele>539.8</ele>
        <time>2021-08-07T07:55:09Z</time>
      </trkpt>
      <trkpt lat="45.04183" lon="3.59009">
        <ele>538.9</ele>
        <time>2021-08-07T07:55:11Z</time>
      </trkpt>
      <trkpt lat="45.04176" lon="3.59">
        <ele>537.8</ele>
        <time>2021-08-07T07:55:13Z</time>
      </trkpt>
      <trkpt lat="45.04169" lon="3.5899">
        <ele>537.9</ele>
        <time>2021-08-07T07:55:15Z</time>
      </trkpt>
      <trkpt lat="45.04164" lon="3.5898">
        <ele>539</ele>
        <time>2021-08-07T07:55:17Z</time>
      </trkpt>
      <trkpt lat="45.04159" lon="3.5897">
        <ele>540.4</ele>
        <time>2021-08-07T07:55:19Z</time>
      </trkpt>
      <trkpt lat="45.04154" lon="3.5896">
        <ele>541.6</ele>
        <time>2021-08-07T07:55:21Z</time>
      </trkpt>
      <trkpt lat="45.0415" lon="3.58951">
        <ele>542.6</ele>
        <time>2021-08-07T07:55:23Z</time>
      </trkpt>
      <trkpt lat="45.04146" lon="3.58944">
        <ele>543.3</ele>
        <time>2021-08-07T07:55:25Z</time>
      </trkpt>
      <trkpt lat="45.04143" lon="3.58936">
        <ele>543.9</ele>
        <time>2021-08-07T07:55:27Z</time>
      </trkpt>
      <trkpt lat="45.0414" lon="3.58929">
        <ele>544.5</ele>
        <time>2021-08-07T07:55:29Z</time>
      </trkpt>
      <trkpt lat="45.04137" lon="3.58922">
        <ele>544.9</ele>
        <time>2021-08-07T07:55:31Z</time>
      </trkpt>
      <trkpt lat="45.04134" lon="3.58915">
        <ele>545.5</ele>
        <time>2021-08-07T07:55:33Z</time>
      </trkpt>
      <trkpt lat="45.04132" lon="3.58908">
        <ele>546.5</ele>
        <time>2021-08-07T07:55:35Z</time>
      </trkpt>
      <trkpt lat="45.0413" lon="3.58902">
        <ele>547.5</ele>
        <time>2021-08-07T07:55:37Z</time>
      </trkpt>
      <trkpt lat="45.04129" lon="3.58895">
        <ele>548.5</ele>
        <time>2021-08-07T07:55:39Z</time>
      </trkpt>
      <trkpt lat="45.04126" lon="3.58889">
        <ele>549.2</ele>
        <time>2021-08-07T07:55:41Z</time>
      </trkpt>
      <trkpt lat="45.04124" lon="3.58884">
        <ele>549.8</ele>
        <time>2021-08-07T07:55:43Z</time>
      </trkpt>
      <trkpt lat="45.04123" lon="3.58878">
        <ele>550.6</ele>
        <time>2021-08-07T07:55:45Z</time>
      </trkpt>
      <trkpt lat="45.04121" lon="3.58872">
        <ele>551</ele>
        <time>2021-08-07T07:55:47Z</time>
      </trkpt>
      <trkpt lat="45.0412" lon="3.58866">
        <ele>551.7</ele>
        <time>2021-08-07T07:55:49Z</time>
      </trkpt>
      <trkpt lat="45.04118" lon="3.5886">
        <ele>552.3</ele>
        <time>2021-08-07T07:55:51Z</time>
      </trkpt>
      <trkpt lat="45.04116" lon="3.58854">
        <ele>552.9</ele>
        <time>2021-08-07T07:55:53Z</time>
      </trkpt>
      <trkpt lat="45.04115" lon="3.58848">
        <ele>553.2</ele>
        <time>2021-08-07T07:55:55Z</time>
      </trkpt>
      <trkpt lat="45.04112" lon="3.58843">
        <ele>553.2</ele>
        <time>2021-08-07T07:55:57Z</time>
      </trkpt>
      <trkpt lat="45.04109" lon="3.58839">
        <ele>552.7</ele>
        <time>2021-08-07T07:55:59Z</time>
      </trkpt>
      <trkpt lat="45.04107" lon="3.58834">
        <ele>552.3</ele>
        <time>2021-08-07T07:56:01Z</time>
      </trkpt>
      <trkpt lat="45.04105" lon="3.5883">
        <ele>552.2</ele>
        <time>2021-08-07T07:56:03Z</time>
      </trkpt>
      <trkpt lat="45.04103" lon="3.58824">
        <ele>552.3</ele>
        <time>2021-08-07T07:56:05Z</time>
      </trkpt>
      <trkpt lat="45.04101" lon="3.58819">
        <ele>552.3</ele>
        <time>2021-08-07T07:56:07Z</time>
      </trkpt>
      <trkpt lat="45.041" lon="3.58813">
        <ele>552.9</ele>
        <time>2021-08-07T07:56:09Z</time>
      </trkpt>
      <trkpt lat="45.04099" lon="3.58807">
        <ele>553.3</ele>
        <time>2021-08-07T07:56:11Z</time>
      </trkpt>
      <trkpt lat="45.04098" lon="3.58801">
        <ele>554.1</ele>
        <time>2021-08-07T07:56:13Z</time>
      </trkpt>
      <trkpt lat="45.04097" lon="3.58795">
        <ele>554.5</ele>
        <time>2021-08-07T07:56:15Z</time>
      </trkpt>
      <trkpt lat="45.04096" lon="3.58789">
        <ele>554.8</ele>
        <time>2021-08-07T07:56:17Z</time>
      </trkpt>
      <trkpt lat="45.04095" lon="3.58783">
        <ele>555.1</ele>
        <time>2021-08-07T07:56:19Z</time>
      </trkpt>
      <trkpt lat="45.04094" lon="3.58777">
        <ele>555.4</ele>
        <time>2021-08-07T07:56:21Z</time>
      </trkpt>
      <trkpt lat="45.04093" lon="3.58771">
        <ele>555.6</ele>
        <time>2021-08-07T07:56:23Z</time>
      </trkpt>
      <trkpt lat="45.04091" lon="3.58765">
        <ele>555.4</ele>
        <time>2021-08-07T07:56:25Z</time>
      </trkpt>
      <trkpt lat="45.0409" lon="3.5876">
        <ele>555.5</ele>
        <time>2021-08-07T07:56:27Z</time>
      </trkpt>
      <trkpt lat="45.04088" lon="3.58754">
        <ele>555.4</ele>
        <time>2021-08-07T07:56:29Z</time>
      </trkpt>
      <trkpt lat="45.04087" lon="3.58748">
        <ele>555.6</ele>
        <time>2021-08-07T07:56:31Z</time>
      </trkpt>
      <trkpt lat="45.04085" lon="3.5874">
        <ele>555.9</ele>
        <time>2021-08-07T07:56:33Z</time>
      </trkpt>
      <trkpt lat="45.04082" lon="3.58732">
        <ele>556.3</ele>
        <time>2021-08-07T07:56:35Z</time>
      </trkpt>
      <trkpt lat="45.04077" lon="3.58723">
        <ele>556.4</ele>
        <time>2021-08-07T07:56:37Z</time>
      </trkpt>
      <trkpt lat="45.04071" lon="3.58714">
        <ele>556.2</ele>
        <time>2021-08-07T07:56:39Z</time>
      </trkpt>
      <trkpt lat="45.04063" lon="3.58703">
        <ele>555.2</ele>
        <time>2021-08-07T07:56:41Z</time>
      </trkpt>
      <trkpt lat="45.04054" lon="3.5869">
        <ele>554</ele>
        <time>2021-08-07T07:56:43Z</time>
      </trkpt>
      <trkpt lat="45.04047" lon="3.58674">
        <ele>553.5</ele>
        <time>2021-08-07T07:56:45Z</time>
      </trkpt>
      <trkpt lat="45.04042" lon="3.58657">
        <ele>554.1</ele>
        <time>2021-08-07T07:56:47Z</time>
      </trkpt>
      <trkpt lat="45.04037" lon="3.58641">
        <ele>554.7</ele>
        <time>2021-08-07T07:56:49Z</time>
      </trkpt>
      <trkpt lat="45.04032" lon="3.58626">
        <ele>554.7</ele>
        <time>2021-08-07T07:56:51Z</time>
      </trkpt>
      <trkpt lat="45.04027" lon="3.58615">
        <ele>553.7</ele>
        <time>2021-08-07T07:56:53Z</time>
      </trkpt>
      <trkpt lat="45.04021" lon="3.58604">
        <ele>552.2</ele>
        <time>2021-08-07T07:56:55Z</time>
      </trkpt>
      <trkpt lat="45.04016" lon="3.58594">
        <ele>551.1</ele>
        <time>2021-08-07T07:56:57Z</time>
      </trkpt>
      <trkpt lat="45.04013" lon="3.58584">
        <ele>550.9</ele>
        <time>2021-08-07T07:56:59Z</time>
      </trkpt>
      <trkpt lat="45.04014" lon="3.58579">
        <ele>552.3</ele>
        <time>2021-08-07T07:57:01Z</time>
      </trkpt>
      <trkpt lat="45.04015" lon="3.58572">
        <ele>553.9</ele>
        <time>2021-08-07T07:57:03Z</time>
      </trkpt>
      <trkpt lat="45.04016" lon="3.58561">
        <ele>556.7</ele>
        <time>2021-08-07T07:57:05Z</time>
      </trkpt>
      <trkpt lat="45.04014" lon="3.58554">
        <ele>557.2</ele>
        <time>2021-08-07T07:57:07Z</time>
      </trkpt>
      <trkpt lat="45.04012" lon="3.58546">
        <ele>557.2</ele>
        <time>2021-08-07T07:57:09Z</time>
      </trkpt>
      <trkpt lat="45.04008" lon="3.5854">
        <ele>556.5</ele>
        <time>2021-08-07T07:57:11Z</time>
      </trkpt>
      <trkpt lat="45.04004" lon="3.58535">
        <ele>555.5</ele>
        <time>2021-08-07T07:57:13Z</time>
      </trkpt>
      <trkpt lat="45.04" lon="3.58531">
        <ele>554.2</ele>
        <time>2021-08-07T07:57:15Z</time>
      </trkpt>
      <trkpt lat="45.03996" lon="3.58527">
        <ele>554.3</ele>
        <time>2021-08-07T07:57:17Z</time>
      </trkpt>
      <trkpt lat="45.03991" lon="3.58522">
        <ele>554.6</ele>
        <time>2021-08-07T07:57:19Z</time>
      </trkpt>
      <trkpt lat="45.03986" lon="3.58518">
        <ele>554.7</ele>
        <time>2021-08-07T07:57:21Z</time>
      </trkpt>
      <trkpt lat="45.03981" lon="3.58514">
        <ele>554.8</ele>
        <time>2021-08-07T07:57:23Z</time>
      </trkpt>
      <trkpt lat="45.03977" lon="3.58509">
        <ele>555</ele>
        <time>2021-08-07T07:57:25Z</time>
      </trkpt>
      <trkpt lat="45.03972" lon="3.58505">
        <ele>555</ele>
        <time>2021-08-07T07:57:27Z</time>
      </trkpt>
      <trkpt lat="45.03968" lon="3.585">
        <ele>555.3</ele>
        <time>2021-08-07T07:57:29Z</time>
      </trkpt>
      <trkpt lat="45.03963" lon="3.58495">
        <ele>556</ele>
        <time>2021-08-07T07:57:31Z</time>
      </trkpt>
      <trkpt lat="45.03959" lon="3.5849">
        <ele>556.7</ele>
        <time>2021-08-07T07:57:33Z</time>
      </trkpt>
      <trkpt lat="45.03955" lon="3.58483">
        <ele>557.6</ele>
        <time>2021-08-07T07:57:35Z</time>
      </trkpt>
      <trkpt lat="45.03952" lon="3.58476">
        <ele>558.7</ele>
        <time>2021-08-07T07:57:37Z</time>
      </trkpt>
      <trkpt lat="45.03947" lon="3.5847">
        <ele>559.7</ele>
        <time>2021-08-07T07:57:39Z</time>
      </trkpt>
      <trkpt lat="45.03943" lon="3.58463">
        <ele>560.5</ele>
        <time>2021-08-07T07:57:41Z</time>
      </trkpt>
      <trkpt lat="45.03938" lon="3.58459">
        <ele>560.9</ele>
        <time>2021-08-07T07:57:43Z</time>
      </trkpt>
      <trkpt lat="45.03934" lon="3.58455">
        <ele>561</ele>
        <time>2021-08-07T07:57:45Z</time>
      </trkpt>
      <trkpt lat="45.03929" lon="3.58452">
        <ele>560.9</ele>
        <time>2021-08-07T07:57:47Z</time>
      </trkpt>
      <trkpt lat="45.03924" lon="3.5845">
        <ele>560.5</ele>
        <time>2021-08-07T07:57:49Z</time>
      </trkpt>
      <trkpt lat="45.03918" lon="3.58448">
        <ele>560.2</ele>
        <time>2021-08-07T07:57:51Z</time>
      </trkpt>
      <trkpt lat="45.03913" lon="3.58447">
        <ele>559.8</ele>
        <time>2021-08-07T07:57:53Z</time>
      </trkpt>
      <trkpt lat="45.03907" lon="3.58446">
        <ele>560</ele>
        <time>2021-08-07T07:57:55Z</time>
      </trkpt>
      <trkpt lat="45.03902" lon="3.58444">
        <ele>560</ele>
        <time>2021-08-07T07:57:57Z</time>
      </trkpt>
      <trkpt lat="45.03895" lon="3.58444">
        <ele>559.7</ele>
        <time>2021-08-07T07:57:59Z</time>
      </trkpt>
      <trkpt lat="45.03889" lon="3.58444">
        <ele>559.5</ele>
        <time>2021-08-07T07:58:01Z</time>
      </trkpt>
      <trkpt lat="45.03883" lon="3.58443">
        <ele>559.4</ele>
        <time>2021-08-07T07:58:03Z</time>
      </trkpt>
      <trkpt lat="45.03876" lon="3.58442">
        <ele>559.3</ele>
        <time>2021-08-07T07:58:05Z</time>
      </trkpt>
      <trkpt lat="45.0387" lon="3.5844">
        <ele>559.4</ele>
        <time>2021-08-07T07:58:07Z</time>
      </trkpt>
      <trkpt lat="45.03863" lon="3.58438">
        <ele>559.4</ele>
        <time>2021-08-07T07:58:09Z</time>
      </trkpt>
      <trkpt lat="45.03857" lon="3.58435">
        <ele>559.7</ele>
        <time>2021-08-07T07:58:11Z</time>
      </trkpt>
      <trkpt lat="45.0385" lon="3.58434">
        <ele>559.6</ele>
        <time>2021-08-07T07:58:13Z</time>
      </trkpt>
      <trkpt lat="45.03843" lon="3.58433">
        <ele>559.5</ele>
        <time>2021-08-07T07:58:15Z</time>
      </trkpt>
      <trkpt lat="45.03837" lon="3.5843">
        <ele>559.7</ele>
        <time>2021-08-07T07:58:17Z</time>
      </trkpt>
      <trkpt lat="45.03829" lon="3.5843">
        <ele>560</ele>
        <time>2021-08-07T07:58:19Z</time>
      </trkpt>
      <trkpt lat="45.03822" lon="3.5843">
        <ele>560.9</ele>
        <time>2021-08-07T07:58:21Z</time>
      </trkpt>
      <trkpt lat="45.03815" lon="3.58431">
        <ele>561.5</ele>
        <time>2021-08-07T07:58:23Z</time>
      </trkpt>
      <trkpt lat="45.03808" lon="3.58432">
        <ele>562.3</ele>
        <time>2021-08-07T07:58:25Z</time>
      </trkpt>
      <trkpt lat="45.03801" lon="3.58433">
        <ele>562.8</ele>
        <time>2021-08-07T07:58:27Z</time>
      </trkpt>
      <trkpt lat="45.03794" lon="3.58434">
        <ele>563.4</ele>
        <time>2021-08-07T07:58:29Z</time>
      </trkpt>
      <trkpt lat="45.03786" lon="3.58437">
        <ele>563.7</ele>
        <time>2021-08-07T07:58:31Z</time>
      </trkpt>
      <trkpt lat="45.03779" lon="3.58439">
        <ele>564</ele>
        <time>2021-08-07T07:58:33Z</time>
      </trkpt>
      <trkpt lat="45.03771" lon="3.58442">
        <ele>564</ele>
        <time>2021-08-07T07:58:35Z</time>
      </trkpt>
      <trkpt lat="45.03764" lon="3.58447">
        <ele>563.3</ele>
        <time>2021-08-07T07:58:37Z</time>
      </trkpt>
      <trkpt lat="45.03757" lon="3.58453">
        <ele>562.4</ele>
        <time>2021-08-07T07:58:39Z</time>
      </trkpt>
      <trkpt lat="45.0375" lon="3.5846">
        <ele>561.1</ele>
        <time>2021-08-07T07:58:41Z</time>
      </trkpt>
      <trkpt lat="45.03743" lon="3.58466">
        <ele>560.2</ele>
        <time>2021-08-07T07:58:43Z</time>
      </trkpt>
      <trkpt lat="45.03737" lon="3.58473">
        <ele>559.5</ele>
        <time>2021-08-07T07:58:45Z</time>
      </trkpt>
      <trkpt lat="45.0373" lon="3.58479">
        <ele>558.6</ele>
        <time>2021-08-07T07:58:47Z</time>
      </trkpt>
      <trkpt lat="45.03724" lon="3.58485">
        <ele>557.8</ele>
        <time>2021-08-07T07:58:49Z</time>
      </trkpt>
      <trkpt lat="45.03719" lon="3.5849">
        <ele>557.2</ele>
        <time>2021-08-07T07:58:51Z</time>
      </trkpt>
      <trkpt lat="45.03714" lon="3.58495">
        <ele>556.5</ele>
        <time>2021-08-07T07:58:53Z</time>
      </trkpt>
      <trkpt lat="45.03709" lon="3.585">
        <ele>555.8</ele>
        <time>2021-08-07T07:58:55Z</time>
      </trkpt>
      <trkpt lat="45.03705" lon="3.58504">
        <ele>555.9</ele>
        <time>2021-08-07T07:58:57Z</time>
      </trkpt>
      <trkpt lat="45.037" lon="3.58509">
        <ele>555.9</ele>
        <time>2021-08-07T07:58:59Z</time>
      </trkpt>
      <trkpt lat="45.03696" lon="3.58511">
        <ele>556.1</ele>
        <time>2021-08-07T07:59:01Z</time>
      </trkpt>
      <trkpt lat="45.03691" lon="3.58516">
        <ele>556</ele>
        <time>2021-08-07T07:59:03Z</time>
      </trkpt>
      <trkpt lat="45.03687" lon="3.5852">
        <ele>555.9</ele>
        <time>2021-08-07T07:59:05Z</time>
      </trkpt>
      <trkpt lat="45.03683" lon="3.58524">
        <ele>555.8</ele>
        <time>2021-08-07T07:59:07Z</time>
      </trkpt>
      <trkpt lat="45.03678" lon="3.58527">
        <ele>555.8</ele>
        <time>2021-08-07T07:59:09Z</time>
      </trkpt>
      <trkpt lat="45.03674" lon="3.58529">
        <ele>556</ele>
        <time>2021-08-07T07:59:11Z</time>
      </trkpt>
      <trkpt lat="45.03669" lon="3.58531">
        <ele>556.4</ele>
        <time>2021-08-07T07:59:13Z</time>
      </trkpt>
      <trkpt lat="45.03665" lon="3.58531">
        <ele>557.1</ele>
        <time>2021-08-07T07:59:15Z</time>
      </trkpt>
      <trkpt lat="45.0366" lon="3.58531">
        <ele>558.1</ele>
        <time>2021-08-07T07:59:17Z</time>
      </trkpt>
      <trkpt lat="45.03655" lon="3.5853">
        <ele>559.1</ele>
        <time>2021-08-07T07:59:19Z</time>
      </trkpt>
      <trkpt lat="45.03651" lon="3.58527">
        <ele>560.5</ele>
        <time>2021-08-07T07:59:21Z</time>
      </trkpt>
      <trkpt lat="45.03647" lon="3.58524">
        <ele>561.8</ele>
        <time>2021-08-07T07:59:23Z</time>
      </trkpt>
      <trkpt lat="45.03643" lon="3.58521">
        <ele>563.2</ele>
        <time>2021-08-07T07:59:25Z</time>
      </trkpt>
      <trkpt lat="45.03639" lon="3.58518">
        <ele>564.5</ele>
        <time>2021-08-07T07:59:27Z</time>
      </trkpt>
      <trkpt lat="45.03635" lon="3.58515">
        <ele>565.9</ele>
        <time>2021-08-07T07:59:29Z</time>
      </trkpt>
      <trkpt lat="45.03631" lon="3.58513">
        <ele>567</ele>
        <time>2021-08-07T07:59:31Z</time>
      </trkpt>
      <trkpt lat="45.03626" lon="3.58512">
        <ele>568</ele>
        <time>2021-08-07T07:59:33Z</time>
      </trkpt>
      <trkpt lat="45.03621" lon="3.58514">
        <ele>568.6</ele>
        <time>2021-08-07T07:59:35Z</time>
      </trkpt>
      <trkpt lat="45.03617" lon="3.58517">
        <ele>568.8</ele>
        <time>2021-08-07T07:59:37Z</time>
      </trkpt>
      <trkpt lat="45.03614" lon="3.5852">
        <ele>568.8</ele>
        <time>2021-08-07T07:59:39Z</time>
      </trkpt>
      <trkpt lat="45.03613" lon="3.58528">
        <ele>567.7</ele>
        <time>2021-08-07T07:59:41Z</time>
      </trkpt>
      <trkpt lat="45.03612" lon="3.58534">
        <ele>566.8</ele>
        <time>2021-08-07T07:59:43Z</time>
      </trkpt>
      <trkpt lat="45.03611" lon="3.5854">
        <ele>565.8</ele>
        <time>2021-08-07T07:59:45Z</time>
      </trkpt>
      <trkpt lat="45.0361" lon="3.58547">
        <ele>564.8</ele>
        <time>2021-08-07T07:59:47Z</time>
      </trkpt>
      <trkpt lat="45.0361" lon="3.58553">
        <ele>563.7</ele>
        <time>2021-08-07T07:59:49Z</time>
      </trkpt>
      <trkpt lat="45.03609" lon="3.58559">
        <ele>562.7</ele>
        <time>2021-08-07T07:59:51Z</time>
      </trkpt>
      <trkpt lat="45.03609" lon="3.58566">
        <ele>561.7</ele>
        <time>2021-08-07T07:59:53Z</time>
      </trkpt>
      <trkpt lat="45.03608" lon="3.58572">
        <ele>560.8</ele>
        <time>2021-08-07T07:59:55Z</time>
      </trkpt>
      <trkpt lat="45.03606" lon="3.58577">
        <ele>560.2</ele>
        <time>2021-08-07T07:59:57Z</time>
      </trkpt>
      <trkpt lat="45.03604" lon="3.58583">
        <ele>559.6</ele>
        <time>2021-08-07T07:59:59Z</time>
      </trkpt>
      <trkpt lat="45.03601" lon="3.58588">
        <ele>559.4</ele>
        <time>2021-08-07T08:00:01Z</time>
      </trkpt>
      <trkpt lat="45.03597" lon="3.58593">
        <ele>559.1</ele>
        <time>2021-08-07T08:00:03Z</time>
      </trkpt>
      <trkpt lat="45.03593" lon="3.58596">
        <ele>559.2</ele>
        <time>2021-08-07T08:00:05Z</time>
      </trkpt>
      <trkpt lat="45.03589" lon="3.586">
        <ele>559.3</ele>
        <time>2021-08-07T08:00:07Z</time>
      </trkpt>
      <trkpt lat="45.03586" lon="3.58603">
        <ele>559.2</ele>
        <time>2021-08-07T08:00:09Z</time>
      </trkpt>
      <trkpt lat="45.03581" lon="3.58606">
        <ele>559.7</ele>
        <time>2021-08-07T08:00:11Z</time>
      </trkpt>
      <trkpt lat="45.03577" lon="3.58609">
        <ele>560.4</ele>
        <time>2021-08-07T08:00:13Z</time>
      </trkpt>
      <trkpt lat="45.03573" lon="3.58612">
        <ele>561.1</ele>
        <time>2021-08-07T08:00:15Z</time>
      </trkpt>
      <trkpt lat="45.03569" lon="3.58615">
        <ele>561.7</ele>
        <time>2021-08-07T08:00:17Z</time>
      </trkpt>
      <trkpt lat="45.03565" lon="3.58618">
        <ele>562.1</ele>
        <time>2021-08-07T08:00:19Z</time>
      </trkpt>
      <trkpt lat="45.03562" lon="3.5862">
        <ele>562.6</ele>
        <time>2021-08-07T08:00:21Z</time>
      </trkpt>
      <trkpt lat="45.03558" lon="3.58623">
        <ele>562.8</ele>
        <time>2021-08-07T08:00:23Z</time>
      </trkpt>
      <trkpt lat="45.03554" lon="3.58625">
        <ele>563.5</ele>
        <time>2021-08-07T08:00:25Z</time>
      </trkpt>
      <trkpt lat="45.0355" lon="3.58628">
        <ele>564</ele>
        <time>2021-08-07T08:00:27Z</time>
      </trkpt>
      <trkpt lat="45.03547" lon="3.5863">
        <ele>564.3</ele>
        <time>2021-08-07T08:00:29Z</time>
      </trkpt>
      <trkpt lat="45.03543" lon="3.58633">
        <ele>564.7</ele>
        <time>2021-08-07T08:00:31Z</time>
      </trkpt>
      <trkpt lat="45.03539" lon="3.58635">
        <ele>565.2</ele>
        <time>2021-08-07T08:00:33Z</time>
      </trkpt>
      <trkpt lat="45.03535" lon="3.58637">
        <ele>565.4</ele>
        <time>2021-08-07T08:00:35Z</time>
      </trkpt>
      <trkpt lat="45.03532" lon="3.5864">
        <ele>565.6</ele>
        <time>2021-08-07T08:00:37Z</time>
      </trkpt>
      <trkpt lat="45.03528" lon="3.58643">
        <ele>565.8</ele>
        <time>2021-08-07T08:00:39Z</time>
      </trkpt>
      <trkpt lat="45.03524" lon="3.58646">
        <ele>565.8</ele>
        <time>2021-08-07T08:00:41Z</time>
      </trkpt>
      <trkpt lat="45.0352" lon="3.58649">
        <ele>565.9</ele>
        <time>2021-08-07T08:00:43Z</time>
      </trkpt>
      <trkpt lat="45.03516" lon="3.58653">
        <ele>565.9</ele>
        <time>2021-08-07T08:00:45Z</time>
      </trkpt>
      <trkpt lat="45.03513" lon="3.58656">
        <ele>565.6</ele>
        <time>2021-08-07T08:00:47Z</time>
      </trkpt>
      <trkpt lat="45.03509" lon="3.5866">
        <ele>565.3</ele>
        <time>2021-08-07T08:00:49Z</time>
      </trkpt>
      <trkpt lat="45.03504" lon="3.58664">
        <ele>564.9</ele>
        <time>2021-08-07T08:00:51Z</time>
      </trkpt>
      <trkpt lat="45.035" lon="3.58669">
        <ele>564.3</ele>
        <time>2021-08-07T08:00:53Z</time>
      </trkpt>
      <trkpt lat="45.03495" lon="3.58674">
        <ele>563.7</ele>
        <time>2021-08-07T08:00:55Z</time>
      </trkpt>
      <trkpt lat="45.0349" lon="3.58678">
        <ele>563.4</ele>
        <time>2021-08-07T08:00:57Z</time>
      </trkpt>
      <trkpt lat="45.03485" lon="3.58683">
        <ele>562.8</ele>
        <time>2021-08-07T08:00:59Z</time>
      </trkpt>
      <trkpt lat="45.0348" lon="3.58688">
        <ele>562.2</ele>
        <time>2021-08-07T08:01:01Z</time>
      </trkpt>
      <trkpt lat="45.03474" lon="3.58693">
        <ele>561.7</ele>
        <time>2021-08-07T08:01:03Z</time>
      </trkpt>
      <trkpt lat="45.03468" lon="3.58697">
        <ele>561.4</ele>
        <time>2021-08-07T08:01:05Z</time>
      </trkpt>
      <trkpt lat="45.03461" lon="3.58701">
        <ele>561.2</ele>
        <time>2021-08-07T08:01:07Z</time>
      </trkpt>
      <trkpt lat="45.03454" lon="3.58703">
        <ele>561.8</ele>
        <time>2021-08-07T08:01:09Z</time>
      </trkpt>
      <trkpt lat="45.03447" lon="3.58704">
        <ele>562.6</ele>
        <time>2021-08-07T08:01:11Z</time>
      </trkpt>
      <trkpt lat="45.0344" lon="3.58701">
        <ele>564.3</ele>
        <time>2021-08-07T08:01:13Z</time>
      </trkpt>
      <trkpt lat="45.03434" lon="3.58698">
        <ele>566.1</ele>
        <time>2021-08-07T08:01:15Z</time>
      </trkpt>
      <trkpt lat="45.03427" lon="3.58695">
        <ele>567.7</ele>
        <time>2021-08-07T08:01:17Z</time>
      </trkpt>
      <trkpt lat="45.03421" lon="3.58693">
        <ele>569.2</ele>
        <time>2021-08-07T08:01:19Z</time>
      </trkpt>
      <trkpt lat="45.03414" lon="3.58692">
        <ele>570.3</ele>
        <time>2021-08-07T08:01:21Z</time>
      </trkpt>
      <trkpt lat="45.03408" lon="3.58692">
        <ele>571.5</ele>
        <time>2021-08-07T08:01:23Z</time>
      </trkpt>
      <trkpt lat="45.03402" lon="3.58692">
        <ele>572.6</ele>
        <time>2021-08-07T08:01:25Z</time>
      </trkpt>
      <trkpt lat="45.03396" lon="3.58692">
        <ele>573.8</ele>
        <time>2021-08-07T08:01:27Z</time>
      </trkpt>
      <trkpt lat="45.03389" lon="3.58694">
        <ele>574.7</ele>
        <time>2021-08-07T08:01:29Z</time>
      </trkpt>
      <trkpt lat="45.03383" lon="3.58696">
        <ele>575.4</ele>
        <time>2021-08-07T08:01:31Z</time>
      </trkpt>
      <trkpt lat="45.03377" lon="3.58699">
        <ele>576</ele>
        <time>2021-08-07T08:01:33Z</time>
      </trkpt>
      <trkpt lat="45.03371" lon="3.58703">
        <ele>576.4</ele>
        <time>2021-08-07T08:01:35Z</time>
      </trkpt>
      <trkpt lat="45.03366" lon="3.58709">
        <ele>576.6</ele>
        <time>2021-08-07T08:01:37Z</time>
      </trkpt>
      <trkpt lat="45.03362" lon="3.58715">
        <ele>576.5</ele>
        <time>2021-08-07T08:01:39Z</time>
      </trkpt>
      <trkpt lat="45.03359" lon="3.58723">
        <ele>576.3</ele>
        <time>2021-08-07T08:01:41Z</time>
      </trkpt>
      <trkpt lat="45.03356" lon="3.5873">
        <ele>576</ele>
        <time>2021-08-07T08:01:43Z</time>
      </trkpt>
      <trkpt lat="45.03354" lon="3.58738">
        <ele>575.7</ele>
        <time>2021-08-07T08:01:45Z</time>
      </trkpt>
      <trkpt lat="45.03353" lon="3.58747">
        <ele>575.1</ele>
        <time>2021-08-07T08:01:47Z</time>
      </trkpt>
      <trkpt lat="45.03352" lon="3.58756">
        <ele>573.6</ele>
        <time>2021-08-07T08:01:49Z</time>
      </trkpt>
      <trkpt lat="45.03351" lon="3.58766">
        <ele>571.7</ele>
        <time>2021-08-07T08:01:51Z</time>
      </trkpt>
      <trkpt lat="45.0335" lon="3.58775">
        <ele>569.9</ele>
        <time>2021-08-07T08:01:53Z</time>
      </trkpt>
      <trkpt lat="45.03349" lon="3.58785">
        <ele>568</ele>
        <time>2021-08-07T08:01:55Z</time>
      </trkpt>
      <trkpt lat="45.03348" lon="3.58793">
        <ele>566.5</ele>
        <time>2021-08-07T08:01:57Z</time>
      </trkpt>
      <trkpt lat="45.03346" lon="3.58801">
        <ele>565.3</ele>
        <time>2021-08-07T08:01:59Z</time>
      </trkpt>
      <trkpt lat="45.03343" lon="3.58808">
        <ele>564.4</ele>
        <time>2021-08-07T08:02:01Z</time>
      </trkpt>
      <trkpt lat="45.03338" lon="3.58814">
        <ele>564.2</ele>
        <time>2021-08-07T08:02:03Z</time>
      </trkpt>
      <trkpt lat="45.03334" lon="3.58819">
        <ele>564.2</ele>
        <time>2021-08-07T08:02:05Z</time>
      </trkpt>
      <trkpt lat="45.03329" lon="3.58824">
        <ele>564.1</ele>
        <time>2021-08-07T08:02:07Z</time>
      </trkpt>
      <trkpt lat="45.03325" lon="3.58828">
        <ele>564.1</ele>
        <time>2021-08-07T08:02:09Z</time>
      </trkpt>
      <trkpt lat="45.03321" lon="3.58832">
        <ele>564.1</ele>
        <time>2021-08-07T08:02:11Z</time>
      </trkpt>
      <trkpt lat="45.03319" lon="3.58835">
        <ele>564</ele>
        <time>2021-08-07T08:02:13Z</time>
      </trkpt>
      <trkpt lat="45.03315" lon="3.58838">
        <ele>564.1</ele>
        <time>2021-08-07T08:02:15Z</time>
      </trkpt>
      <trkpt lat="45.03312" lon="3.58843">
        <ele>563.9</ele>
        <time>2021-08-07T08:02:17Z</time>
      </trkpt>
      <trkpt lat="45.03308" lon="3.58848">
        <ele>563.7</ele>
        <time>2021-08-07T08:02:19Z</time>
      </trkpt>
      <trkpt lat="45.03302" lon="3.58853">
        <ele>563.8</ele>
        <time>2021-08-07T08:02:21Z</time>
      </trkpt>
      <trkpt lat="45.03297" lon="3.58855">
        <ele>564.5</ele>
        <time>2021-08-07T08:02:23Z</time>
      </trkpt>
      <trkpt lat="45.03295" lon="3.58855">
        <ele>565.2</ele>
        <time>2021-08-07T08:02:25Z</time>
      </trkpt>
      <trkpt lat="45.03296" lon="3.58855">
        <ele>564.9</ele>
        <time>2021-08-07T08:02:27Z</time>
      </trkpt>
      <trkpt lat="45.03296" lon="3.58855">
        <ele>564.9</ele>
        <time>2021-08-07T08:02:29Z</time>
      </trkpt>
      <trkpt lat="45.03296" lon="3.58855">
        <ele>564.8</ele>
        <time>2021-08-07T08:02:31Z</time>
      </trkpt>
      <trkpt lat="45.03296" lon="3.58855">
        <ele>564.8</ele>
        <time>2021-08-07T08:02:33Z</time>
      </trkpt>
      <trkpt lat="45.0328" lon="3.58875">
        <ele>564.1</ele>
        <time>2021-08-07T08:06:19Z</time>
      </trkpt>
      <trkpt lat="45.03272" lon="3.58884">
        <ele>563.8</ele>
        <time>2021-08-07T08:06:21Z</time>
      </trkpt>
      <trkpt lat="45.03262" lon="3.58893">
        <ele>563.8</ele>
        <time>2021-08-07T08:06:23Z</time>
      </trkpt>
      <trkpt lat="45.03252" lon="3.58901">
        <ele>564.2</ele>
        <time>2021-08-07T08:06:25Z</time>
      </trkpt>
      <trkpt lat="45.03241" lon="3.58906">
        <ele>564.7</ele>
        <time>2021-08-07T08:06:27Z</time>
      </trkpt>
      <trkpt lat="45.03229" lon="3.58912">
        <ele>565</ele>
        <time>2021-08-07T08:06:29Z</time>
      </trkpt>
      <trkpt lat="45.03218" lon="3.58918">
        <ele>565.2</ele>
        <time>2021-08-07T08:06:31Z</time>
      </trkpt>
      <trkpt lat="45.03207" lon="3.58925">
        <ele>565.2</ele>
        <time>2021-08-07T08:06:33Z</time>
      </trkpt>
      <trkpt lat="45.03196" lon="3.58932">
        <ele>564.8</ele>
        <time>2021-08-07T08:06:35Z</time>
      </trkpt>
      <trkpt lat="45.03186" lon="3.58942">
        <ele>563.4</ele>
        <time>2021-08-07T08:06:37Z</time>
      </trkpt>
      <trkpt lat="45.03177" lon="3.58953">
        <ele>561.7</ele>
        <time>2021-08-07T08:06:39Z</time>
      </trkpt>
      <trkpt lat="45.03166" lon="3.5896">
        <ele>561.1</ele>
        <time>2021-08-07T08:06:41Z</time>
      </trkpt>
      <trkpt lat="45.03154" lon="3.58963">
        <ele>560.5</ele>
        <time>2021-08-07T08:06:43Z</time>
      </trkpt>
      <trkpt lat="45.0314" lon="3.58966">
        <ele>560</ele>
        <time>2021-08-07T08:06:45Z</time>
      </trkpt>
      <trkpt lat="45.03127" lon="3.5897">
        <ele>559.4</ele>
        <time>2021-08-07T08:06:47Z</time>
      </trkpt>
      <trkpt lat="45.03114" lon="3.58973">
        <ele>558.6</ele>
        <time>2021-08-07T08:06:49Z</time>
      </trkpt>
      <trkpt lat="45.03101" lon="3.58977">
        <ele>558</ele>
        <time>2021-08-07T08:06:51Z</time>
      </trkpt>
      <trkpt lat="45.03086" lon="3.58979">
        <ele>557.7</ele>
        <time>2021-08-07T08:06:53Z</time>
      </trkpt>
      <trkpt lat="45.03072" lon="3.5898">
        <ele>557.4</ele>
        <time>2021-08-07T08:06:55Z</time>
      </trkpt>
      <trkpt lat="45.03056" lon="3.5898">
        <ele>556.8</ele>
        <time>2021-08-07T08:06:57Z</time>
      </trkpt>
      <trkpt lat="45.03041" lon="3.58982">
        <ele>556.1</ele>
        <time>2021-08-07T08:06:59Z</time>
      </trkpt>
      <trkpt lat="45.03025" lon="3.58985">
        <ele>555.2</ele>
        <time>2021-08-07T08:07:01Z</time>
      </trkpt>
      <trkpt lat="45.0301" lon="3.58987">
        <ele>554.4</ele>
        <time>2021-08-07T08:07:03Z</time>
      </trkpt>
      <trkpt lat="45.02997" lon="3.58989">
        <ele>553.5</ele>
        <time>2021-08-07T08:07:05Z</time>
      </trkpt>
      <trkpt lat="45.02986" lon="3.58991">
        <ele>552.9</ele>
        <time>2021-08-07T08:07:07Z</time>
      </trkpt>
      <trkpt lat="45.02979" lon="3.58995">
        <ele>552.2</ele>
        <time>2021-08-07T08:07:09Z</time>
      </trkpt>
      <trkpt lat="45.02973" lon="3.59">
        <ele>551</ele>
        <time>2021-08-07T08:07:11Z</time>
      </trkpt>
      <trkpt lat="45.02971" lon="3.59012">
        <ele>550</ele>
        <time>2021-08-07T08:07:13Z</time>
      </trkpt>
      <trkpt lat="45.02968" lon="3.59023">
        <ele>549</ele>
        <time>2021-08-07T08:07:15Z</time>
      </trkpt>
      <trkpt lat="45.02964" lon="3.59036">
        <ele>547.9</ele>
        <time>2021-08-07T08:07:17Z</time>
      </trkpt>
      <trkpt lat="45.0296" lon="3.59044">
        <ele>547.3</ele>
        <time>2021-08-07T08:07:19Z</time>
      </trkpt>
      <trkpt lat="45.02951" lon="3.59047">
        <ele>547.2</ele>
        <time>2021-08-07T08:07:21Z</time>
      </trkpt>
      <trkpt lat="45.02943" lon="3.59048">
        <ele>547.2</ele>
        <time>2021-08-07T08:07:23Z</time>
      </trkpt>
      <trkpt lat="45.02935" lon="3.59051">
        <ele>547</ele>
        <time>2021-08-07T08:07:25Z</time>
      </trkpt>
      <trkpt lat="45.02927" lon="3.59052">
        <ele>547.1</ele>
        <time>2021-08-07T08:07:27Z</time>
      </trkpt>
      <trkpt lat="45.02918" lon="3.59054">
        <ele>547.1</ele>
        <time>2021-08-07T08:07:29Z</time>
      </trkpt>
      <trkpt lat="45.02911" lon="3.59057">
        <ele>547.1</ele>
        <time>2021-08-07T08:07:31Z</time>
      </trkpt>
      <trkpt lat="45.02902" lon="3.59061">
        <ele>547</ele>
        <time>2021-08-07T08:07:33Z</time>
      </trkpt>
      <trkpt lat="45.02894" lon="3.59066">
        <ele>547</ele>
        <time>2021-08-07T08:07:35Z</time>
      </trkpt>
      <trkpt lat="45.02886" lon="3.59071">
        <ele>546.9</ele>
        <time>2021-08-07T08:07:37Z</time>
      </trkpt>
      <trkpt lat="45.02878" lon="3.59076">
        <ele>546.9</ele>
        <time>2021-08-07T08:07:39Z</time>
      </trkpt>
      <trkpt lat="45.02869" lon="3.59082">
        <ele>546.8</ele>
        <time>2021-08-07T08:07:41Z</time>
      </trkpt>
      <trkpt lat="45.02861" lon="3.59088">
        <ele>546.9</ele>
        <time>2021-08-07T08:07:43Z</time>
      </trkpt>
      <trkpt lat="45.02852" lon="3.59095">
        <ele>547</ele>
        <time>2021-08-07T08:07:45Z</time>
      </trkpt>
      <trkpt lat="45.02844" lon="3.59101">
        <ele>547.2</ele>
        <time>2021-08-07T08:07:47Z</time>
      </trkpt>
      <trkpt lat="45.02835" lon="3.59105">
        <ele>547.4</ele>
        <time>2021-08-07T08:07:49Z</time>
      </trkpt>
      <trkpt lat="45.02826" lon="3.59104">
        <ele>547.6</ele>
        <time>2021-08-07T08:07:51Z</time>
      </trkpt>
      <trkpt lat="45.02817" lon="3.59103">
        <ele>547.7</ele>
        <time>2021-08-07T08:07:53Z</time>
      </trkpt>
      <trkpt lat="45.02809" lon="3.59101">
        <ele>547.9</ele>
        <time>2021-08-07T08:07:55Z</time>
      </trkpt>
      <trkpt lat="45.02801" lon="3.591">
        <ele>548</ele>
        <time>2021-08-07T08:07:57Z</time>
      </trkpt>
      <trkpt lat="45.02794" lon="3.59098">
        <ele>548.1</ele>
        <time>2021-08-07T08:07:59Z</time>
      </trkpt>
      <trkpt lat="45.02788" lon="3.59096">
        <ele>548.2</ele>
        <time>2021-08-07T08:08:01Z</time>
      </trkpt>
      <trkpt lat="45.02781" lon="3.59093">
        <ele>548.4</ele>
        <time>2021-08-07T08:08:03Z</time>
      </trkpt>
      <trkpt lat="45.02775" lon="3.59092">
        <ele>548.5</ele>
        <time>2021-08-07T08:08:05Z</time>
      </trkpt>
      <trkpt lat="45.0277" lon="3.59095">
        <ele>548.5</ele>
        <time>2021-08-07T08:08:07Z</time>
      </trkpt>
      <trkpt lat="45.02766" lon="3.59099">
        <ele>548.4</ele>
        <time>2021-08-07T08:08:09Z</time>
      </trkpt>
      <trkpt lat="45.02765" lon="3.59107">
        <ele>548.3</ele>
        <time>2021-08-07T08:08:11Z</time>
      </trkpt>
      <trkpt lat="45.02765" lon="3.59114">
        <ele>548.1</ele>
        <time>2021-08-07T08:08:13Z</time>
      </trkpt>
      <trkpt lat="45.02766" lon="3.59122">
        <ele>547.9</ele>
        <time>2021-08-07T08:08:15Z</time>
      </trkpt>
      <trkpt lat="45.02766" lon="3.59133">
        <ele>547.6</ele>
        <time>2021-08-07T08:08:17Z</time>
      </trkpt>
      <trkpt lat="45.02764" lon="3.59145">
        <ele>547.3</ele>
        <time>2021-08-07T08:08:19Z</time>
      </trkpt>
      <trkpt lat="45.02764" lon="3.5916">
        <ele>547</ele>
        <time>2021-08-07T08:08:21Z</time>
      </trkpt>
      <trkpt lat="45.02764" lon="3.59174">
        <ele>546.9</ele>
        <time>2021-08-07T08:08:23Z</time>
      </trkpt>
      <trkpt lat="45.02762" lon="3.59189">
        <ele>547.1</ele>
        <time>2021-08-07T08:08:25Z</time>
      </trkpt>
      <trkpt lat="45.02762" lon="3.59204">
        <ele>547.2</ele>
        <time>2021-08-07T08:08:27Z</time>
      </trkpt>
      <trkpt lat="45.02761" lon="3.5922">
        <ele>547.4</ele>
        <time>2021-08-07T08:08:29Z</time>
      </trkpt>
      <trkpt lat="45.02761" lon="3.59235">
        <ele>547.6</ele>
        <time>2021-08-07T08:08:31Z</time>
      </trkpt>
      <trkpt lat="45.02762" lon="3.59249">
        <ele>547.7</ele>
        <time>2021-08-07T08:08:33Z</time>
      </trkpt>
      <trkpt lat="45.02765" lon="3.59263">
        <ele>547.5</ele>
        <time>2021-08-07T08:08:35Z</time>
      </trkpt>
      <trkpt lat="45.02768" lon="3.59275">
        <ele>547.3</ele>
        <time>2021-08-07T08:08:37Z</time>
      </trkpt>
      <trkpt lat="45.02771" lon="3.59288">
        <ele>547.2</ele>
        <time>2021-08-07T08:08:39Z</time>
      </trkpt>
      <trkpt lat="45.02774" lon="3.59301">
        <ele>547</ele>
        <time>2021-08-07T08:08:41Z</time>
      </trkpt>
      <trkpt lat="45.02779" lon="3.59312">
        <ele>546.8</ele>
        <time>2021-08-07T08:08:43Z</time>
      </trkpt>
      <trkpt lat="45.02784" lon="3.59321">
        <ele>546.7</ele>
        <time>2021-08-07T08:08:45Z</time>
      </trkpt>
      <trkpt lat="45.02784" lon="3.59333">
        <ele>546.6</ele>
        <time>2021-08-07T08:08:47Z</time>
      </trkpt>
      <trkpt lat="45.02783" lon="3.59346">
        <ele>546.5</ele>
        <time>2021-08-07T08:08:49Z</time>
      </trkpt>
      <trkpt lat="45.02783" lon="3.59358">
        <ele>546.4</ele>
        <time>2021-08-07T08:08:51Z</time>
      </trkpt>
      <trkpt lat="45.02783" lon="3.59368">
        <ele>546.3</ele>
        <time>2021-08-07T08:08:53Z</time>
      </trkpt>
      <trkpt lat="45.02782" lon="3.59377">
        <ele>546.2</ele>
        <time>2021-08-07T08:08:55Z</time>
      </trkpt>
      <trkpt lat="45.02781" lon="3.59384">
        <ele>546.2</ele>
        <time>2021-08-07T08:08:57Z</time>
      </trkpt>
      <trkpt lat="45.02783" lon="3.59391">
        <ele>546</ele>
        <time>2021-08-07T08:08:59Z</time>
      </trkpt>
      <trkpt lat="45.02789" lon="3.59398">
        <ele>545.8</ele>
        <time>2021-08-07T08:09:01Z</time>
      </trkpt>
      <trkpt lat="45.02798" lon="3.59401">
        <ele>545.5</ele>
        <time>2021-08-07T08:09:03Z</time>
      </trkpt>
      <trkpt lat="45.02807" lon="3.59405">
        <ele>545.1</ele>
        <time>2021-08-07T08:09:05Z</time>
      </trkpt>
      <trkpt lat="45.02817" lon="3.59412">
        <ele>544.7</ele>
        <time>2021-08-07T08:09:07Z</time>
      </trkpt>
      <trkpt lat="45.02828" lon="3.59419">
        <ele>544.2</ele>
        <time>2021-08-07T08:09:09Z</time>
      </trkpt>
      <trkpt lat="45.02839" lon="3.59427">
        <ele>543.9</ele>
        <time>2021-08-07T08:09:11Z</time>
      </trkpt>
      <trkpt lat="45.02848" lon="3.59435">
        <ele>543.8</ele>
        <time>2021-08-07T08:09:13Z</time>
      </trkpt>
      <trkpt lat="45.02857" lon="3.59442">
        <ele>543.9</ele>
        <time>2021-08-07T08:09:15Z</time>
      </trkpt>
      <trkpt lat="45.02866" lon="3.59449">
        <ele>544</ele>
        <time>2021-08-07T08:09:17Z</time>
      </trkpt>
      <trkpt lat="45.02874" lon="3.59455">
        <ele>544.2</ele>
        <time>2021-08-07T08:09:19Z</time>
      </trkpt>
      <trkpt lat="45.02882" lon="3.59462">
        <ele>544.4</ele>
        <time>2021-08-07T08:09:21Z</time>
      </trkpt>
      <trkpt lat="45.02889" lon="3.59468">
        <ele>544.7</ele>
        <time>2021-08-07T08:09:23Z</time>
      </trkpt>
      <trkpt lat="45.02896" lon="3.59472">
        <ele>545</ele>
        <time>2021-08-07T08:09:25Z</time>
      </trkpt>
      <trkpt lat="45.02903" lon="3.59472">
        <ele>545.1</ele>
        <time>2021-08-07T08:09:27Z</time>
      </trkpt>
      <trkpt lat="45.02909" lon="3.59471">
        <ele>545.1</ele>
        <time>2021-08-07T08:09:29Z</time>
      </trkpt>
      <trkpt lat="45.02915" lon="3.5947">
        <ele>545.1</ele>
        <time>2021-08-07T08:09:31Z</time>
      </trkpt>
      <trkpt lat="45.02921" lon="3.59469">
        <ele>545.8</ele>
        <time>2021-08-07T08:09:33Z</time>
      </trkpt>
      <trkpt lat="45.02927" lon="3.59468">
        <ele>546.9</ele>
        <time>2021-08-07T08:09:35Z</time>
      </trkpt>
      <trkpt lat="45.02934" lon="3.59468">
        <ele>548</ele>
        <time>2021-08-07T08:09:37Z</time>
      </trkpt>
      <trkpt lat="45.02941" lon="3.59467">
        <ele>549.1</ele>
        <time>2021-08-07T08:09:39Z</time>
      </trkpt>
      <trkpt lat="45.02949" lon="3.59466">
        <ele>550.4</ele>
        <time>2021-08-07T08:09:41Z</time>
      </trkpt>
      <trkpt lat="45.02956" lon="3.59464">
        <ele>551.2</ele>
        <time>2021-08-07T08:09:43Z</time>
      </trkpt>
      <trkpt lat="45.0296" lon="3.59458">
        <ele>551.2</ele>
        <time>2021-08-07T08:09:45Z</time>
      </trkpt>
      <trkpt lat="45.02962" lon="3.59452">
        <ele>550.9</ele>
        <time>2021-08-07T08:09:47Z</time>
      </trkpt>
      <trkpt lat="45.02963" lon="3.59447">
        <ele>550.4</ele>
        <time>2021-08-07T08:09:49Z</time>
      </trkpt>
      <trkpt lat="45.02962" lon="3.59445">
        <ele>550</ele>
        <time>2021-08-07T08:09:51Z</time>
      </trkpt>
      <trkpt lat="45.02962" lon="3.59445">
        <ele>550</ele>
        <time>2021-08-07T08:09:53Z</time>
      </trkpt>
      <trkpt lat="45.02962" lon="3.59445">
        <ele>550</ele>
        <time>2021-08-07T08:09:55Z</time>
      </trkpt>
      <trkpt lat="45.02962" lon="3.59445">
        <ele>550</ele>
        <time>2021-08-07T08:09:57Z</time>
      </trkpt>
      <trkpt lat="45.02961" lon="3.59443">
        <ele>549.7</ele>
        <time>2021-08-07T08:15:27Z</time>
      </trkpt>
      <trkpt lat="45.02961" lon="3.59444">
        <ele>549.8</ele>
        <time>2021-08-07T08:15:29Z</time>
      </trkpt>
      <trkpt lat="45.02961" lon="3.59447">
        <ele>550.2</ele>
        <time>2021-08-07T08:15:31Z</time>
      </trkpt>
      <trkpt lat="45.02962" lon="3.5945">
        <ele>550.6</ele>
        <time>2021-08-07T08:15:33Z</time>
      </trkpt>
      <trkpt lat="45.02962" lon="3.59453">
        <ele>551</ele>
        <time>2021-08-07T08:15:35Z</time>
      </trkpt>
      <trkpt lat="45.02962" lon="3.59456">
        <ele>551.3</ele>
        <time>2021-08-07T08:15:37Z</time>
      </trkpt>
      <trkpt lat="45.02962" lon="3.5946">
        <ele>551.7</ele>
        <time>2021-08-07T08:15:39Z</time>
      </trkpt>
      <trkpt lat="45.02962" lon="3.59462">
        <ele>552</ele>
        <time>2021-08-07T08:15:41Z</time>
      </trkpt>
      <trkpt lat="45.02962" lon="3.59466">
        <ele>552.3</ele>
        <time>2021-08-07T08:15:43Z</time>
      </trkpt>
      <trkpt lat="45.02962" lon="3.59468">
        <ele>552.6</ele>
        <time>2021-08-07T08:15:45Z</time>
      </trkpt>
      <trkpt lat="45.02962" lon="3.59471">
        <ele>553</ele>
        <time>2021-08-07T08:15:47Z</time>
      </trkpt>
      <trkpt lat="45.02962" lon="3.5947">
        <ele>552.9</ele>
        <time>2021-08-07T08:15:49Z</time>
      </trkpt>
      <trkpt lat="45.02962" lon="3.5947">
        <ele>552.9</ele>
        <time>2021-08-07T08:15:51Z</time>
      </trkpt>
      <trkpt lat="45.02962" lon="3.5947">
        <ele>552.9</ele>
        <time>2021-08-07T08:15:53Z</time>
      </trkpt>
      <trkpt lat="45.02962" lon="3.5947">
        <ele>552.9</ele>
        <time>2021-08-07T08:15:55Z</time>
      </trkpt>
      <trkpt lat="45.02958" lon="3.5941">
        <ele>546.3</ele>
        <time>2021-08-07T08:22:39Z</time>
      </trkpt>
      <trkpt lat="45.0296" lon="3.59402">
        <ele>546.2</ele>
        <time>2021-08-07T08:22:41Z</time>
      </trkpt>
      <trkpt lat="45.02961" lon="3.59394">
        <ele>546.2</ele>
        <time>2021-08-07T08:22:43Z</time>
      </trkpt>
      <trkpt lat="45.02962" lon="3.59387">
        <ele>546.1</ele>
        <time>2021-08-07T08:22:45Z</time>
      </trkpt>
      <trkpt lat="45.02964" lon="3.5938">
        <ele>546.1</ele>
        <time>2021-08-07T08:22:47Z</time>
      </trkpt>
      <trkpt lat="45.02966" lon="3.59373">
        <ele>546</ele>
        <time>2021-08-07T08:22:49Z</time>
      </trkpt>
      <trkpt lat="45.02969" lon="3.59367">
        <ele>546</ele>
        <time>2021-08-07T08:22:51Z</time>
      </trkpt>
      <trkpt lat="45.02971" lon="3.59362">
        <ele>546</ele>
        <time>2021-08-07T08:22:53Z</time>
      </trkpt>
      <trkpt lat="45.02974" lon="3.59357">
        <ele>545.9</ele>
        <time>2021-08-07T08:22:55Z</time>
      </trkpt>
      <trkpt lat="45.02977" lon="3.59352">
        <ele>545.9</ele>
        <time>2021-08-07T08:22:57Z</time>
      </trkpt>
      <trkpt lat="45.02981" lon="3.59348">
        <ele>545.9</ele>
        <time>2021-08-07T08:22:59Z</time>
      </trkpt>
      <trkpt lat="45.02984" lon="3.59344">
        <ele>545.9</ele>
        <time>2021-08-07T08:23:01Z</time>
      </trkpt>
      <trkpt lat="45.02988" lon="3.59342">
        <ele>546</ele>
        <time>2021-08-07T08:23:03Z</time>
      </trkpt>
      <trkpt lat="45.02992" lon="3.59339">
        <ele>546</ele>
        <time>2021-08-07T08:23:05Z</time>
      </trkpt>
      <trkpt lat="45.02996" lon="3.59336">
        <ele>546</ele>
        <time>2021-08-07T08:23:07Z</time>
      </trkpt>
      <trkpt lat="45.03" lon="3.59333">
        <ele>546</ele>
        <time>2021-08-07T08:23:09Z</time>
      </trkpt>
      <trkpt lat="45.03004" lon="3.5933">
        <ele>547.1</ele>
        <time>2021-08-07T08:23:11Z</time>
      </trkpt>
      <trkpt lat="45.03007" lon="3.59328">
        <ele>548</ele>
        <time>2021-08-07T08:23:13Z</time>
      </trkpt>
      <trkpt lat="45.03011" lon="3.59325">
        <ele>549</ele>
        <time>2021-08-07T08:23:15Z</time>
      </trkpt>
      <trkpt lat="45.03014" lon="3.59323">
        <ele>550</ele>
        <time>2021-08-07T08:23:17Z</time>
      </trkpt>
      <trkpt lat="45.0302" lon="3.5932">
        <ele>551.4</ele>
        <time>2021-08-07T08:23:19Z</time>
      </trkpt>
      <trkpt lat="45.03023" lon="3.59317">
        <ele>552.1</ele>
        <time>2021-08-07T08:23:21Z</time>
      </trkpt>
      <trkpt lat="45.03028" lon="3.59314">
        <ele>553</ele>
        <time>2021-08-07T08:23:23Z</time>
      </trkpt>
      <trkpt lat="45.03032" lon="3.59312">
        <ele>553.7</ele>
        <time>2021-08-07T08:23:25Z</time>
      </trkpt>
      <trkpt lat="45.03036" lon="3.59309">
        <ele>554.5</ele>
        <time>2021-08-07T08:23:27Z</time>
      </trkpt>
      <trkpt lat="45.03041" lon="3.59306">
        <ele>555.2</ele>
        <time>2021-08-07T08:23:29Z</time>
      </trkpt>
      <trkpt lat="45.03045" lon="3.59305">
        <ele>556</ele>
        <time>2021-08-07T08:23:31Z</time>
      </trkpt>
      <trkpt lat="45.03049" lon="3.59302">
        <ele>556.5</ele>
        <time>2021-08-07T08:23:33Z</time>
      </trkpt>
      <trkpt lat="45.03054" lon="3.59299">
        <ele>556.9</ele>
        <time>2021-08-07T08:23:35Z</time>
      </trkpt>
      <trkpt lat="45.03058" lon="3.59296">
        <ele>557</ele>
        <time>2021-08-07T08:23:37Z</time>
      </trkpt>
      <trkpt lat="45.03062" lon="3.59293">
        <ele>557.1</ele>
        <time>2021-08-07T08:23:39Z</time>
      </trkpt>
      <trkpt lat="45.03066" lon="3.5929">
        <ele>557.3</ele>
        <time>2021-08-07T08:23:41Z</time>
      </trkpt>
      <trkpt lat="45.03071" lon="3.59288">
        <ele>557.7</ele>
        <time>2021-08-07T08:23:43Z</time>
      </trkpt>
      <trkpt lat="45.03076" lon="3.59287">
        <ele>558.3</ele>
        <time>2021-08-07T08:23:45Z</time>
      </trkpt>
      <trkpt lat="45.03081" lon="3.59285">
        <ele>558.8</ele>
        <time>2021-08-07T08:23:47Z</time>
      </trkpt>
      <trkpt lat="45.03086" lon="3.59285">
        <ele>559.1</ele>
        <time>2021-08-07T08:23:49Z</time>
      </trkpt>
      <trkpt lat="45.0309" lon="3.59284">
        <ele>559.1</ele>
        <time>2021-08-07T08:23:51Z</time>
      </trkpt>
      <trkpt lat="45.03095" lon="3.59285">
        <ele>559.3</ele>
        <time>2021-08-07T08:23:53Z</time>
      </trkpt>
      <trkpt lat="45.031" lon="3.59285">
        <ele>559.4</ele>
        <time>2021-08-07T08:23:55Z</time>
      </trkpt>
      <trkpt lat="45.03104" lon="3.59285">
        <ele>559.7</ele>
        <time>2021-08-07T08:23:57Z</time>
      </trkpt>
      <trkpt lat="45.03108" lon="3.59284">
        <ele>559.5</ele>
        <time>2021-08-07T08:23:59Z</time>
      </trkpt>
      <trkpt lat="45.03112" lon="3.59285">
        <ele>559.9</ele>
        <time>2021-08-07T08:24:01Z</time>
      </trkpt>
      <trkpt lat="45.03116" lon="3.59286">
        <ele>560.1</ele>
        <time>2021-08-07T08:24:03Z</time>
      </trkpt>
      <trkpt lat="45.0312" lon="3.59286">
        <ele>560.3</ele>
        <time>2021-08-07T08:24:05Z</time>
      </trkpt>
      <trkpt lat="45.03124" lon="3.59287">
        <ele>560.6</ele>
        <time>2021-08-07T08:24:07Z</time>
      </trkpt>
      <trkpt lat="45.03128" lon="3.59288">
        <ele>561.2</ele>
        <time>2021-08-07T08:24:09Z</time>
      </trkpt>
      <trkpt lat="45.03133" lon="3.59288">
        <ele>561.3</ele>
        <time>2021-08-07T08:24:11Z</time>
      </trkpt>
      <trkpt lat="45.03137" lon="3.59289">
        <ele>561.8</ele>
        <time>2021-08-07T08:24:13Z</time>
      </trkpt>
      <trkpt lat="45.03142" lon="3.5929">
        <ele>562.2</ele>
        <time>2021-08-07T08:24:15Z</time>
      </trkpt>
      <trkpt lat="45.03146" lon="3.59291">
        <ele>562.7</ele>
        <time>2021-08-07T08:24:17Z</time>
      </trkpt>
      <trkpt lat="45.03151" lon="3.59293">
        <ele>563.5</ele>
        <time>2021-08-07T08:24:19Z</time>
      </trkpt>
      <trkpt lat="45.03155" lon="3.59294">
        <ele>564.3</ele>
        <time>2021-08-07T08:24:21Z</time>
      </trkpt>
      <trkpt lat="45.0316" lon="3.59296">
        <ele>565</ele>
        <time>2021-08-07T08:24:23Z</time>
      </trkpt>
      <trkpt lat="45.03164" lon="3.59297">
        <ele>565.6</ele>
        <time>2021-08-07T08:24:25Z</time>
      </trkpt>
      <trkpt lat="45.03168" lon="3.59298">
        <ele>566.1</ele>
        <time>2021-08-07T08:24:27Z</time>
      </trkpt>
      <trkpt lat="45.03173" lon="3.59299">
        <ele>566.4</ele>
        <time>2021-08-07T08:24:29Z</time>
      </trkpt>
      <trkpt lat="45.03177" lon="3.59301">
        <ele>566.9</ele>
        <time>2021-08-07T08:24:31Z</time>
      </trkpt>
      <trkpt lat="45.03182" lon="3.59302">
        <ele>567.2</ele>
        <time>2021-08-07T08:24:33Z</time>
      </trkpt>
      <trkpt lat="45.03186" lon="3.59303">
        <ele>567.5</ele>
        <time>2021-08-07T08:24:35Z</time>
      </trkpt>
      <trkpt lat="45.03191" lon="3.59305">
        <ele>567.9</ele>
        <time>2021-08-07T08:24:37Z</time>
      </trkpt>
      <trkpt lat="45.03195" lon="3.59306">
        <ele>568.3</ele>
        <time>2021-08-07T08:24:39Z</time>
      </trkpt>
      <trkpt lat="45.032" lon="3.59308">
        <ele>568.8</ele>
        <time>2021-08-07T08:24:41Z</time>
      </trkpt>
      <trkpt lat="45.03204" lon="3.5931">
        <ele>569.4</ele>
        <time>2021-08-07T08:24:43Z</time>
      </trkpt>
      <trkpt lat="45.03209" lon="3.59311">
        <ele>569.9</ele>
        <time>2021-08-07T08:24:45Z</time>
      </trkpt>
      <trkpt lat="45.03214" lon="3.59312">
        <ele>570</ele>
        <time>2021-08-07T08:24:47Z</time>
      </trkpt>
      <trkpt lat="45.03219" lon="3.59314">
        <ele>570.4</ele>
        <time>2021-08-07T08:24:49Z</time>
      </trkpt>
      <trkpt lat="45.03224" lon="3.59316">
        <ele>570.8</ele>
        <time>2021-08-07T08:24:51Z</time>
      </trkpt>
      <trkpt lat="45.03228" lon="3.59317">
        <ele>571.2</ele>
        <time>2021-08-07T08:24:53Z</time>
      </trkpt>
      <trkpt lat="45.03233" lon="3.59319">
        <ele>571.5</ele>
        <time>2021-08-07T08:24:55Z</time>
      </trkpt>
      <trkpt lat="45.03238" lon="3.5932">
        <ele>571.7</ele>
        <time>2021-08-07T08:24:57Z</time>
      </trkpt>
      <trkpt lat="45.03243" lon="3.5932">
        <ele>571.7</ele>
        <time>2021-08-07T08:24:59Z</time>
      </trkpt>
      <trkpt lat="45.03247" lon="3.59321">
        <ele>571.8</ele>
        <time>2021-08-07T08:25:01Z</time>
      </trkpt>
      <trkpt lat="45.03252" lon="3.59322">
        <ele>572.2</ele>
        <time>2021-08-07T08:25:03Z</time>
      </trkpt>
      <trkpt lat="45.03257" lon="3.59323">
        <ele>573.1</ele>
        <time>2021-08-07T08:25:05Z</time>
      </trkpt>
      <trkpt lat="45.03262" lon="3.59322">
        <ele>573.5</ele>
        <time>2021-08-07T08:25:07Z</time>
      </trkpt>
      <trkpt lat="45.03267" lon="3.59322">
        <ele>573.9</ele>
        <time>2021-08-07T08:25:09Z</time>
      </trkpt>
      <trkpt lat="45.03271" lon="3.59322">
        <ele>574.4</ele>
        <time>2021-08-07T08:25:11Z</time>
      </trkpt>
      <trkpt lat="45.03275" lon="3.59319">
        <ele>573.8</ele>
        <time>2021-08-07T08:25:13Z</time>
      </trkpt>
      <trkpt lat="45.0328" lon="3.59318">
        <ele>574.2</ele>
        <time>2021-08-07T08:25:15Z</time>
      </trkpt>
      <trkpt lat="45.03284" lon="3.59317">
        <ele>574.3</ele>
        <time>2021-08-07T08:25:17Z</time>
      </trkpt>
      <trkpt lat="45.03289" lon="3.59316">
        <ele>574.3</ele>
        <time>2021-08-07T08:25:19Z</time>
      </trkpt>
      <trkpt lat="45.03294" lon="3.59316">
        <ele>574.8</ele>
        <time>2021-08-07T08:25:21Z</time>
      </trkpt>
      <trkpt lat="45.03298" lon="3.59317">
        <ele>575.7</ele>
        <time>2021-08-07T08:25:23Z</time>
      </trkpt>
      <trkpt lat="45.03302" lon="3.59317">
        <ele>576.5</ele>
        <time>2021-08-07T08:25:25Z</time>
      </trkpt>
      <trkpt lat="45.03307" lon="3.59317">
        <ele>577</ele>
        <time>2021-08-07T08:25:27Z</time>
      </trkpt>
      <trkpt lat="45.03311" lon="3.59319">
        <ele>578</ele>
        <time>2021-08-07T08:25:29Z</time>
      </trkpt>
      <trkpt lat="45.03315" lon="3.5932">
        <ele>578.9</ele>
        <time>2021-08-07T08:25:31Z</time>
      </trkpt>
      <trkpt lat="45.0332" lon="3.59322">
        <ele>580</ele>
        <time>2021-08-07T08:25:33Z</time>
      </trkpt>
      <trkpt lat="45.03325" lon="3.59321">
        <ele>580.3</ele>
        <time>2021-08-07T08:25:35Z</time>
      </trkpt>
      <trkpt lat="45.03329" lon="3.59319">
        <ele>580.2</ele>
        <time>2021-08-07T08:25:37Z</time>
      </trkpt>
      <trkpt lat="45.03333" lon="3.59317">
        <ele>580</ele>
        <time>2021-08-07T08:25:39Z</time>
      </trkpt>
      <trkpt lat="45.03337" lon="3.59314">
        <ele>580.1</ele>
        <time>2021-08-07T08:25:41Z</time>
      </trkpt>
      <trkpt lat="45.03341" lon="3.59311">
        <ele>580.2</ele>
        <time>2021-08-07T08:25:43Z</time>
      </trkpt>
      <trkpt lat="45.03346" lon="3.59309">
        <ele>581</ele>
        <time>2021-08-07T08:25:45Z</time>
      </trkpt>
      <trkpt lat="45.0335" lon="3.59306">
        <ele>581.2</ele>
        <time>2021-08-07T08:25:47Z</time>
      </trkpt>
      <trkpt lat="45.03354" lon="3.59304">
        <ele>581.5</ele>
        <time>2021-08-07T08:25:49Z</time>
      </trkpt>
      <trkpt lat="45.03358" lon="3.59303">
        <ele>582.3</ele>
        <time>2021-08-07T08:25:51Z</time>
      </trkpt>
      <trkpt lat="45.03362" lon="3.593">
        <ele>582.5</ele>
        <time>2021-08-07T08:25:53Z</time>
      </trkpt>
      <trkpt lat="45.03367" lon="3.59298">
        <ele>583.1</ele>
        <time>2021-08-07T08:25:55Z</time>
      </trkpt>
      <trkpt lat="45.03371" lon="3.59295">
        <ele>583.3</ele>
        <time>2021-08-07T08:25:57Z</time>
      </trkpt>
      <trkpt lat="45.03375" lon="3.59292">
        <ele>583.6</ele>
        <time>2021-08-07T08:25:59Z</time>
      </trkpt>
      <trkpt lat="45.03379" lon="3.59289">
        <ele>583.7</ele>
        <time>2021-08-07T08:26:01Z</time>
      </trkpt>
      <trkpt lat="45.03383" lon="3.59286">
        <ele>583.7</ele>
        <time>2021-08-07T08:26:03Z</time>
      </trkpt>
      <trkpt lat="45.03387" lon="3.59282">
        <ele>583.6</ele>
        <time>2021-08-07T08:26:05Z</time>
      </trkpt>
      <trkpt lat="45.03391" lon="3.5928">
        <ele>583.8</ele>
        <time>2021-08-07T08:26:07Z</time>
      </trkpt>
      <trkpt lat="45.03395" lon="3.59277">
        <ele>583.8</ele>
        <time>2021-08-07T08:26:09Z</time>
      </trkpt>
      <trkpt lat="45.03398" lon="3.59274">
        <ele>583.7</ele>
        <time>2021-08-07T08:26:11Z</time>
      </trkpt>
      <trkpt lat="45.03402" lon="3.5927">
        <ele>583.3</ele>
        <time>2021-08-07T08:26:13Z</time>
      </trkpt>
      <trkpt lat="45.03406" lon="3.59267">
        <ele>583.2</ele>
        <time>2021-08-07T08:26:15Z</time>
      </trkpt>
      <trkpt lat="45.03409" lon="3.59263">
        <ele>583</ele>
        <time>2021-08-07T08:26:17Z</time>
      </trkpt>
      <trkpt lat="45.03412" lon="3.5926">
        <ele>582.8</ele>
        <time>2021-08-07T08:26:19Z</time>
      </trkpt>
      <trkpt lat="45.03416" lon="3.59257">
        <ele>582.6</ele>
        <time>2021-08-07T08:26:21Z</time>
      </trkpt>
      <trkpt lat="45.03419" lon="3.59253">
        <ele>582.4</ele>
        <time>2021-08-07T08:26:23Z</time>
      </trkpt>
      <trkpt lat="45.03423" lon="3.5925">
        <ele>582.4</ele>
        <time>2021-08-07T08:26:25Z</time>
      </trkpt>
      <trkpt lat="45.03426" lon="3.59246">
        <ele>582.8</ele>
        <time>2021-08-07T08:26:27Z</time>
      </trkpt>
      <trkpt lat="45.0343" lon="3.59242">
        <ele>583.1</ele>
        <time>2021-08-07T08:26:29Z</time>
      </trkpt>
      <trkpt lat="45.03433" lon="3.59238">
        <ele>583.3</ele>
        <time>2021-08-07T08:26:31Z</time>
      </trkpt>
      <trkpt lat="45.03436" lon="3.59234">
        <ele>583.3</ele>
        <time>2021-08-07T08:26:33Z</time>
      </trkpt>
      <trkpt lat="45.03439" lon="3.5923">
        <ele>583.4</ele>
        <time>2021-08-07T08:26:35Z</time>
      </trkpt>
      <trkpt lat="45.03442" lon="3.59227">
        <ele>583.7</ele>
        <time>2021-08-07T08:26:37Z</time>
      </trkpt>
      <trkpt lat="45.03445" lon="3.59222">
        <ele>583.9</ele>
        <time>2021-08-07T08:26:39Z</time>
      </trkpt>
      <trkpt lat="45.03448" lon="3.59218">
        <ele>583.9</ele>
        <time>2021-08-07T08:26:41Z</time>
      </trkpt>
      <trkpt lat="45.03451" lon="3.59214">
        <ele>583.8</ele>
        <time>2021-08-07T08:26:43Z</time>
      </trkpt>
      <trkpt lat="45.03454" lon="3.59209">
        <ele>583.9</ele>
        <time>2021-08-07T08:26:45Z</time>
      </trkpt>
      <trkpt lat="45.03457" lon="3.59205">
        <ele>583.8</ele>
        <time>2021-08-07T08:26:47Z</time>
      </trkpt>
      <trkpt lat="45.0346" lon="3.59201">
        <ele>583.8</ele>
        <time>2021-08-07T08:26:49Z</time>
      </trkpt>
      <trkpt lat="45.03463" lon="3.59196">
        <ele>583.8</ele>
        <time>2021-08-07T08:26:51Z</time>
      </trkpt>
      <trkpt lat="45.03466" lon="3.59192">
        <ele>583.7</ele>
        <time>2021-08-07T08:26:53Z</time>
      </trkpt>
      <trkpt lat="45.03469" lon="3.59188">
        <ele>583.8</ele>
        <time>2021-08-07T08:26:55Z</time>
      </trkpt>
      <trkpt lat="45.03472" lon="3.59183">
        <ele>583.6</ele>
        <time>2021-08-07T08:26:57Z</time>
      </trkpt>
      <trkpt lat="45.03475" lon="3.59178">
        <ele>583.4</ele>
        <time>2021-08-07T08:26:59Z</time>
      </trkpt>
      <trkpt lat="45.03478" lon="3.59174">
        <ele>583.4</ele>
        <time>2021-08-07T08:27:01Z</time>
      </trkpt>
      <trkpt lat="45.03481" lon="3.5917">
        <ele>583.3</ele>
        <time>2021-08-07T08:27:03Z</time>
      </trkpt>
      <trkpt lat="45.03483" lon="3.59164">
        <ele>583.1</ele>
        <time>2021-08-07T08:27:05Z</time>
      </trkpt>
      <trkpt lat="45.03486" lon="3.59159">
        <ele>583.3</ele>
        <time>2021-08-07T08:27:07Z</time>
      </trkpt>
      <trkpt lat="45.03487" lon="3.59154">
        <ele>583</ele>
        <time>2021-08-07T08:27:09Z</time>
      </trkpt>
      <trkpt lat="45.03489" lon="3.59148">
        <ele>582.8</ele>
        <time>2021-08-07T08:27:11Z</time>
      </trkpt>
      <trkpt lat="45.03491" lon="3.59142">
        <ele>582.5</ele>
        <time>2021-08-07T08:27:13Z</time>
      </trkpt>
      <trkpt lat="45.03492" lon="3.59137">
        <ele>582.3</ele>
        <time>2021-08-07T08:27:15Z</time>
      </trkpt>
      <trkpt lat="45.03494" lon="3.59131">
        <ele>581.9</ele>
        <time>2021-08-07T08:27:17Z</time>
      </trkpt>
      <trkpt lat="45.03495" lon="3.59125">
        <ele>581.6</ele>
        <time>2021-08-07T08:27:19Z</time>
      </trkpt>
      <trkpt lat="45.03496" lon="3.59119">
        <ele>581.1</ele>
        <time>2021-08-07T08:27:21Z</time>
      </trkpt>
      <trkpt lat="45.03498" lon="3.59115">
        <ele>581.1</ele>
        <time>2021-08-07T08:27:23Z</time>
      </trkpt>
      <trkpt lat="45.035" lon="3.59109">
        <ele>580.9</ele>
        <time>2021-08-07T08:27:25Z</time>
      </trkpt>
      <trkpt lat="45.03502" lon="3.59103">
        <ele>580.6</ele>
        <time>2021-08-07T08:27:27Z</time>
      </trkpt>
      <trkpt lat="45.03503" lon="3.59098">
        <ele>580.3</ele>
        <time>2021-08-07T08:27:29Z</time>
      </trkpt>
      <trkpt lat="45.03505" lon="3.59093">
        <ele>580.2</ele>
        <time>2021-08-07T08:27:31Z</time>
      </trkpt>
      <trkpt lat="45.03507" lon="3.59088">
        <ele>579.8</ele>
        <time>2021-08-07T08:27:33Z</time>
      </trkpt>
      <trkpt lat="45.03509" lon="3.59083">
        <ele>579.6</ele>
        <time>2021-08-07T08:27:35Z</time>
      </trkpt>
      <trkpt lat="45.03511" lon="3.59078">
        <ele>579.7</ele>
        <time>2021-08-07T08:27:37Z</time>
      </trkpt>
      <trkpt lat="45.03513" lon="3.59073">
        <ele>579.9</ele>
        <time>2021-08-07T08:27:39Z</time>
      </trkpt>
      <trkpt lat="45.03515" lon="3.59068">
        <ele>579.9</ele>
        <time>2021-08-07T08:27:41Z</time>
      </trkpt>
      <trkpt lat="45.03517" lon="3.59062">
        <ele>579.9</ele>
        <time>2021-08-07T08:27:43Z</time>
      </trkpt>
      <trkpt lat="45.03519" lon="3.59057">
        <ele>580</ele>
        <time>2021-08-07T08:27:45Z</time>
      </trkpt>
      <trkpt lat="45.03521" lon="3.59052">
        <ele>580.1</ele>
        <time>2021-08-07T08:27:47Z</time>
      </trkpt>
      <trkpt lat="45.03523" lon="3.59046">
        <ele>580.1</ele>
        <time>2021-08-07T08:27:49Z</time>
      </trkpt>
      <trkpt lat="45.03525" lon="3.59041">
        <ele>580</ele>
        <time>2021-08-07T08:27:51Z</time>
      </trkpt>
      <trkpt lat="45.03527" lon="3.59036">
        <ele>579.9</ele>
        <time>2021-08-07T08:27:53Z</time>
      </trkpt>
      <trkpt lat="45.03529" lon="3.5903">
        <ele>579.7</ele>
        <time>2021-08-07T08:27:55Z</time>
      </trkpt>
      <trkpt lat="45.03531" lon="3.59025">
        <ele>579.7</ele>
        <time>2021-08-07T08:27:57Z</time>
      </trkpt>
      <trkpt lat="45.03533" lon="3.59019">
        <ele>579.5</ele>
        <time>2021-08-07T08:27:59Z</time>
      </trkpt>
      <trkpt lat="45.03535" lon="3.59014">
        <ele>579.3</ele>
        <time>2021-08-07T08:28:01Z</time>
      </trkpt>
      <trkpt lat="45.03537" lon="3.59009">
        <ele>579.2</ele>
        <time>2021-08-07T08:28:03Z</time>
      </trkpt>
      <trkpt lat="45.03539" lon="3.59004">
        <ele>579.1</ele>
        <time>2021-08-07T08:28:05Z</time>
      </trkpt>
      <trkpt lat="45.03543" lon="3.59">
        <ele>579.3</ele>
        <time>2021-08-07T08:28:07Z</time>
      </trkpt>
      <trkpt lat="45.03546" lon="3.58997">
        <ele>579.6</ele>
        <time>2021-08-07T08:28:09Z</time>
      </trkpt>
      <trkpt lat="45.0355" lon="3.58995">
        <ele>580.1</ele>
        <time>2021-08-07T08:28:11Z</time>
      </trkpt>
      <trkpt lat="45.03554" lon="3.58994">
        <ele>580.8</ele>
        <time>2021-08-07T08:28:13Z</time>
      </trkpt>
      <trkpt lat="45.03559" lon="3.58995">
        <ele>581.7</ele>
        <time>2021-08-07T08:28:15Z</time>
      </trkpt>
      <trkpt lat="45.03563" lon="3.58998">
        <ele>582.8</ele>
        <time>2021-08-07T08:28:17Z</time>
      </trkpt>
      <trkpt lat="45.03567" lon="3.59001">
        <ele>584.1</ele>
        <time>2021-08-07T08:28:19Z</time>
      </trkpt>
      <trkpt lat="45.0357" lon="3.59006">
        <ele>585.4</ele>
        <time>2021-08-07T08:28:21Z</time>
      </trkpt>
      <trkpt lat="45.03572" lon="3.59011">
        <ele>586.6</ele>
        <time>2021-08-07T08:28:23Z</time>
      </trkpt>
      <trkpt lat="45.03574" lon="3.59017">
        <ele>587.9</ele>
        <time>2021-08-07T08:28:25Z</time>
      </trkpt>
      <trkpt lat="45.03575" lon="3.59023">
        <ele>588.9</ele>
        <time>2021-08-07T08:28:27Z</time>
      </trkpt>
      <trkpt lat="45.03574" lon="3.59028">
        <ele>589.7</ele>
        <time>2021-08-07T08:28:29Z</time>
      </trkpt>
      <trkpt lat="45.03573" lon="3.59034">
        <ele>590.4</ele>
        <time>2021-08-07T08:28:31Z</time>
      </trkpt>
      <trkpt lat="45.03572" lon="3.59039">
        <ele>590.9</ele>
        <time>2021-08-07T08:28:33Z</time>
      </trkpt>
      <trkpt lat="45.03569" lon="3.59044">
        <ele>591</ele>
        <time>2021-08-07T08:28:35Z</time>
      </trkpt>
      <trkpt lat="45.03567" lon="3.59048">
        <ele>591</ele>
        <time>2021-08-07T08:28:37Z</time>
      </trkpt>
      <trkpt lat="45.03564" lon="3.59052">
        <ele>591</ele>
        <time>2021-08-07T08:28:39Z</time>
      </trkpt>
      <trkpt lat="45.03562" lon="3.59057">
        <ele>591.1</ele>
        <time>2021-08-07T08:28:41Z</time>
      </trkpt>
      <trkpt lat="45.03559" lon="3.59061">
        <ele>590.9</ele>
        <time>2021-08-07T08:28:43Z</time>
      </trkpt>
      <trkpt lat="45.03556" lon="3.59065">
        <ele>590.7</ele>
        <time>2021-08-07T08:28:45Z</time>
      </trkpt>
      <trkpt lat="45.03553" lon="3.59069">
        <ele>590.4</ele>
        <time>2021-08-07T08:28:47Z</time>
      </trkpt>
      <trkpt lat="45.03551" lon="3.59073">
        <ele>590.2</ele>
        <time>2021-08-07T08:28:49Z</time>
      </trkpt>
      <trkpt lat="45.03548" lon="3.59078">
        <ele>590.1</ele>
        <time>2021-08-07T08:28:51Z</time>
      </trkpt>
      <trkpt lat="45.03546" lon="3.59082">
        <ele>589.9</ele>
        <time>2021-08-07T08:28:53Z</time>
      </trkpt>
      <trkpt lat="45.03543" lon="3.59086">
        <ele>590</ele>
        <time>2021-08-07T08:28:55Z</time>
      </trkpt>
      <trkpt lat="45.03541" lon="3.59091">
        <ele>590.2</ele>
        <time>2021-08-07T08:28:57Z</time>
      </trkpt>
      <trkpt lat="45.03539" lon="3.59095">
        <ele>590.4</ele>
        <time>2021-08-07T08:28:59Z</time>
      </trkpt>
      <trkpt lat="45.03537" lon="3.591">
        <ele>590.8</ele>
        <time>2021-08-07T08:29:01Z</time>
      </trkpt>
      <trkpt lat="45.03536" lon="3.59105">
        <ele>591.3</ele>
        <time>2021-08-07T08:29:03Z</time>
      </trkpt>
      <trkpt lat="45.03535" lon="3.5911">
        <ele>591.9</ele>
        <time>2021-08-07T08:29:05Z</time>
      </trkpt>
      <trkpt lat="45.03534" lon="3.59116">
        <ele>592.5</ele>
        <time>2021-08-07T08:29:07Z</time>
      </trkpt>
      <trkpt lat="45.03534" lon="3.59121">
        <ele>593.3</ele>
        <time>2021-08-07T08:29:09Z</time>
      </trkpt>
      <trkpt lat="45.03533" lon="3.59126">
        <ele>594</ele>
        <time>2021-08-07T08:29:11Z</time>
      </trkpt>
      <trkpt lat="45.03533" lon="3.59132">
        <ele>594.9</ele>
        <time>2021-08-07T08:29:13Z</time>
      </trkpt>
      <trkpt lat="45.03532" lon="3.59137">
        <ele>595.5</ele>
        <time>2021-08-07T08:29:15Z</time>
      </trkpt>
      <trkpt lat="45.03531" lon="3.59142">
        <ele>596.1</ele>
        <time>2021-08-07T08:29:17Z</time>
      </trkpt>
      <trkpt lat="45.0353" lon="3.59146">
        <ele>596.6</ele>
        <time>2021-08-07T08:29:19Z</time>
      </trkpt>
      <trkpt lat="45.03529" lon="3.59152">
        <ele>597.2</ele>
        <time>2021-08-07T08:29:21Z</time>
      </trkpt>
      <trkpt lat="45.03528" lon="3.59156">
        <ele>597.8</ele>
        <time>2021-08-07T08:29:23Z</time>
      </trkpt>
      <trkpt lat="45.03527" lon="3.59161">
        <ele>598.2</ele>
        <time>2021-08-07T08:29:25Z</time>
      </trkpt>
      <trkpt lat="45.03526" lon="3.59166">
        <ele>598.6</ele>
        <time>2021-08-07T08:29:27Z</time>
      </trkpt>
      <trkpt lat="45.03524" lon="3.59171">
        <ele>599.3</ele>
        <time>2021-08-07T08:29:29Z</time>
      </trkpt>
      <trkpt lat="45.03522" lon="3.59176">
        <ele>600.1</ele>
        <time>2021-08-07T08:29:31Z</time>
      </trkpt>
      <trkpt lat="45.03521" lon="3.5918">
        <ele>600.5</ele>
        <time>2021-08-07T08:29:33Z</time>
      </trkpt>
      <trkpt lat="45.03518" lon="3.59184">
        <ele>601</ele>
        <time>2021-08-07T08:29:35Z</time>
      </trkpt>
      <trkpt lat="45.03517" lon="3.59188">
        <ele>601.5</ele>
        <time>2021-08-07T08:29:37Z</time>
      </trkpt>
      <trkpt lat="45.03514" lon="3.59192">
        <ele>601.9</ele>
        <time>2021-08-07T08:29:39Z</time>
      </trkpt>
      <trkpt lat="45.03512" lon="3.59196">
        <ele>602.4</ele>
        <time>2021-08-07T08:29:41Z</time>
      </trkpt>
      <trkpt lat="45.0351" lon="3.59199">
        <ele>602.6</ele>
        <time>2021-08-07T08:29:43Z</time>
      </trkpt>
      <trkpt lat="45.03508" lon="3.59203">
        <ele>603</ele>
        <time>2021-08-07T08:29:45Z</time>
      </trkpt>
      <trkpt lat="45.03506" lon="3.59207">
        <ele>603.5</ele>
        <time>2021-08-07T08:29:47Z</time>
      </trkpt>
      <trkpt lat="45.03504" lon="3.5921">
        <ele>603.9</ele>
        <time>2021-08-07T08:29:49Z</time>
      </trkpt>
      <trkpt lat="45.03502" lon="3.59214">
        <ele>604.2</ele>
        <time>2021-08-07T08:29:51Z</time>
      </trkpt>
      <trkpt lat="45.035" lon="3.59217">
        <ele>604.6</ele>
        <time>2021-08-07T08:29:53Z</time>
      </trkpt>
      <trkpt lat="45.03498" lon="3.59221">
        <ele>604.8</ele>
        <time>2021-08-07T08:29:55Z</time>
      </trkpt>
      <trkpt lat="45.03496" lon="3.59225">
        <ele>605.1</ele>
        <time>2021-08-07T08:29:57Z</time>
      </trkpt>
      <trkpt lat="45.03494" lon="3.5923">
        <ele>605.5</ele>
        <time>2021-08-07T08:29:59Z</time>
      </trkpt>
      <trkpt lat="45.03491" lon="3.59234">
        <ele>605.8</ele>
        <time>2021-08-07T08:30:01Z</time>
      </trkpt>
      <trkpt lat="45.03489" lon="3.59237">
        <ele>606</ele>
        <time>2021-08-07T08:30:03Z</time>
      </trkpt>
      <trkpt lat="45.03487" lon="3.59241">
        <ele>606.2</ele>
        <time>2021-08-07T08:30:05Z</time>
      </trkpt>
      <trkpt lat="45.03485" lon="3.59244">
        <ele>606.1</ele>
        <time>2021-08-07T08:30:07Z</time>
      </trkpt>
      <trkpt lat="45.03483" lon="3.59247">
        <ele>606.2</ele>
        <time>2021-08-07T08:30:09Z</time>
      </trkpt>
      <trkpt lat="45.03481" lon="3.59251">
        <ele>606.7</ele>
        <time>2021-08-07T08:30:11Z</time>
      </trkpt>
      <trkpt lat="45.03479" lon="3.59255">
        <ele>607.2</ele>
        <time>2021-08-07T08:30:13Z</time>
      </trkpt>
      <trkpt lat="45.03477" lon="3.59259">
        <ele>607.7</ele>
        <time>2021-08-07T08:30:15Z</time>
      </trkpt>
      <trkpt lat="45.03474" lon="3.59262">
        <ele>608.2</ele>
        <time>2021-08-07T08:30:17Z</time>
      </trkpt>
      <trkpt lat="45.03472" lon="3.59266">
        <ele>608.6</ele>
        <time>2021-08-07T08:30:19Z</time>
      </trkpt>
      <trkpt lat="45.0347" lon="3.5927">
        <ele>609.3</ele>
        <time>2021-08-07T08:30:21Z</time>
      </trkpt>
      <trkpt lat="45.03468" lon="3.59274">
        <ele>609.9</ele>
        <time>2021-08-07T08:30:23Z</time>
      </trkpt>
      <trkpt lat="45.03466" lon="3.59278">
        <ele>610.5</ele>
        <time>2021-08-07T08:30:25Z</time>
      </trkpt>
      <trkpt lat="45.03464" lon="3.59282">
        <ele>611.4</ele>
        <time>2021-08-07T08:30:27Z</time>
      </trkpt>
      <trkpt lat="45.03462" lon="3.59286">
        <ele>611.9</ele>
        <time>2021-08-07T08:30:29Z</time>
      </trkpt>
      <trkpt lat="45.0346" lon="3.59289">
        <ele>612.4</ele>
        <time>2021-08-07T08:30:31Z</time>
      </trkpt>
      <trkpt lat="45.03457" lon="3.59293">
        <ele>613.1</ele>
        <time>2021-08-07T08:30:33Z</time>
      </trkpt>
      <trkpt lat="45.03455" lon="3.59297">
        <ele>613.7</ele>
        <time>2021-08-07T08:30:35Z</time>
      </trkpt>
      <trkpt lat="45.03453" lon="3.59301">
        <ele>614.5</ele>
        <time>2021-08-07T08:30:37Z</time>
      </trkpt>
      <trkpt lat="45.03451" lon="3.59305">
        <ele>615.1</ele>
        <time>2021-08-07T08:30:39Z</time>
      </trkpt>
      <trkpt lat="45.03449" lon="3.59309">
        <ele>615.7</ele>
        <time>2021-08-07T08:30:41Z</time>
      </trkpt>
      <trkpt lat="45.03447" lon="3.59312">
        <ele>616.2</ele>
        <time>2021-08-07T08:30:43Z</time>
      </trkpt>
      <trkpt lat="45.03445" lon="3.59316">
        <ele>616.7</ele>
        <time>2021-08-07T08:30:45Z</time>
      </trkpt>
      <trkpt lat="45.03443" lon="3.59319">
        <ele>617.1</ele>
        <time>2021-08-07T08:30:47Z</time>
      </trkpt>
      <trkpt lat="45.0344" lon="3.59323">
        <ele>617.7</ele>
        <time>2021-08-07T08:30:49Z</time>
      </trkpt>
      <trkpt lat="45.03438" lon="3.59327">
        <ele>618.4</ele>
        <time>2021-08-07T08:30:51Z</time>
      </trkpt>
      <trkpt lat="45.03436" lon="3.59332">
        <ele>619.4</ele>
        <time>2021-08-07T08:30:53Z</time>
      </trkpt>
      <trkpt lat="45.03433" lon="3.59335">
        <ele>619.8</ele>
        <time>2021-08-07T08:30:55Z</time>
      </trkpt>
      <trkpt lat="45.03431" lon="3.59339">
        <ele>620.2</ele>
        <time>2021-08-07T08:30:57Z</time>
      </trkpt>
      <trkpt lat="45.03428" lon="3.59342">
        <ele>620.3</ele>
        <time>2021-08-07T08:30:59Z</time>
      </trkpt>
      <trkpt lat="45.03425" lon="3.59345">
        <ele>620.3</ele>
        <time>2021-08-07T08:31:01Z</time>
      </trkpt>
      <trkpt lat="45.03423" lon="3.59348">
        <ele>620.4</ele>
        <time>2021-08-07T08:31:03Z</time>
      </trkpt>
      <trkpt lat="45.0342" lon="3.59351">
        <ele>620.4</ele>
        <time>2021-08-07T08:31:05Z</time>
      </trkpt>
      <trkpt lat="45.03418" lon="3.59355">
        <ele>620.7</ele>
        <time>2021-08-07T08:31:07Z</time>
      </trkpt>
      <trkpt lat="45.03414" lon="3.59358">
        <ele>620.8</ele>
        <time>2021-08-07T08:31:09Z</time>
      </trkpt>
      <trkpt lat="45.03411" lon="3.59361">
        <ele>620.8</ele>
        <time>2021-08-07T08:31:11Z</time>
      </trkpt>
      <trkpt lat="45.03408" lon="3.59363">
        <ele>620.9</ele>
        <time>2021-08-07T08:31:13Z</time>
      </trkpt>
      <trkpt lat="45.03405" lon="3.59366">
        <ele>620.9</ele>
        <time>2021-08-07T08:31:15Z</time>
      </trkpt>
      <trkpt lat="45.03402" lon="3.59369">
        <ele>621</ele>
        <time>2021-08-07T08:31:17Z</time>
      </trkpt>
      <trkpt lat="45.034" lon="3.59371">
        <ele>621.2</ele>
        <time>2021-08-07T08:31:19Z</time>
      </trkpt>
      <trkpt lat="45.03397" lon="3.59374">
        <ele>621.4</ele>
        <time>2021-08-07T08:31:21Z</time>
      </trkpt>
      <trkpt lat="45.03394" lon="3.59377">
        <ele>621.5</ele>
        <time>2021-08-07T08:31:23Z</time>
      </trkpt>
      <trkpt lat="45.03391" lon="3.5938">
        <ele>621.5</ele>
        <time>2021-08-07T08:31:25Z</time>
      </trkpt>
      <trkpt lat="45.03388" lon="3.59382">
        <ele>621.5</ele>
        <time>2021-08-07T08:31:27Z</time>
      </trkpt>
      <trkpt lat="45.03385" lon="3.59384">
        <ele>621.6</ele>
        <time>2021-08-07T08:31:29Z</time>
      </trkpt>
      <trkpt lat="45.03382" lon="3.59387">
        <ele>621.7</ele>
        <time>2021-08-07T08:31:31Z</time>
      </trkpt>
      <trkpt lat="45.03379" lon="3.5939">
        <ele>621.9</ele>
        <time>2021-08-07T08:31:33Z</time>
      </trkpt>
      <trkpt lat="45.03376" lon="3.59393">
        <ele>622.3</ele>
        <time>2021-08-07T08:31:35Z</time>
      </trkpt>
      <trkpt lat="45.03373" lon="3.59396">
        <ele>622.7</ele>
        <time>2021-08-07T08:31:37Z</time>
      </trkpt>
      <trkpt lat="45.0337" lon="3.59399">
        <ele>622.9</ele>
        <time>2021-08-07T08:31:39Z</time>
      </trkpt>
      <trkpt lat="45.03368" lon="3.59402">
        <ele>623.2</ele>
        <time>2021-08-07T08:31:41Z</time>
      </trkpt>
      <trkpt lat="45.03365" lon="3.59405">
        <ele>623.7</ele>
        <time>2021-08-07T08:31:43Z</time>
      </trkpt>
      <trkpt lat="45.03362" lon="3.59407">
        <ele>624</ele>
        <time>2021-08-07T08:31:45Z</time>
      </trkpt>
      <trkpt lat="45.0336" lon="3.5941">
        <ele>624.5</ele>
        <time>2021-08-07T08:31:47Z</time>
      </trkpt>
      <trkpt lat="45.03357" lon="3.59413">
        <ele>624.6</ele>
        <time>2021-08-07T08:31:49Z</time>
      </trkpt>
      <trkpt lat="45.03355" lon="3.59416">
        <ele>625.2</ele>
        <time>2021-08-07T08:31:51Z</time>
      </trkpt>
      <trkpt lat="45.03352" lon="3.59418">
        <ele>625.4</ele>
        <time>2021-08-07T08:31:53Z</time>
      </trkpt>
      <trkpt lat="45.03349" lon="3.59421">
        <ele>625.5</ele>
        <time>2021-08-07T08:31:55Z</time>
      </trkpt>
      <trkpt lat="45.03347" lon="3.59424">
        <ele>625.9</ele>
        <time>2021-08-07T08:31:57Z</time>
      </trkpt>
      <trkpt lat="45.03344" lon="3.59428">
        <ele>626.2</ele>
        <time>2021-08-07T08:31:59Z</time>
      </trkpt>
      <trkpt lat="45.03341" lon="3.59431">
        <ele>626.5</ele>
        <time>2021-08-07T08:32:01Z</time>
      </trkpt>
      <trkpt lat="45.03338" lon="3.59434">
        <ele>626.8</ele>
        <time>2021-08-07T08:32:03Z</time>
      </trkpt>
      <trkpt lat="45.03336" lon="3.59437">
        <ele>627.1</ele>
        <time>2021-08-07T08:32:05Z</time>
      </trkpt>
      <trkpt lat="45.03333" lon="3.59439">
        <ele>627.3</ele>
        <time>2021-08-07T08:32:07Z</time>
      </trkpt>
      <trkpt lat="45.0333" lon="3.59442">
        <ele>628</ele>
        <time>2021-08-07T08:32:09Z</time>
      </trkpt>
      <trkpt lat="45.03327" lon="3.59445">
        <ele>628.7</ele>
        <time>2021-08-07T08:32:11Z</time>
      </trkpt>
      <trkpt lat="45.03325" lon="3.59448">
        <ele>629.3</ele>
        <time>2021-08-07T08:32:13Z</time>
      </trkpt>
      <trkpt lat="45.03322" lon="3.5945">
        <ele>629.6</ele>
        <time>2021-08-07T08:32:15Z</time>
      </trkpt>
      <trkpt lat="45.0332" lon="3.59452">
        <ele>630.2</ele>
        <time>2021-08-07T08:32:17Z</time>
      </trkpt>
      <trkpt lat="45.03317" lon="3.59455">
        <ele>630.8</ele>
        <time>2021-08-07T08:32:19Z</time>
      </trkpt>
      <trkpt lat="45.03313" lon="3.59457">
        <ele>631.2</ele>
        <time>2021-08-07T08:32:21Z</time>
      </trkpt>
      <trkpt lat="45.0331" lon="3.59458">
        <ele>631.4</ele>
        <time>2021-08-07T08:32:23Z</time>
      </trkpt>
      <trkpt lat="45.03307" lon="3.5946">
        <ele>631.8</ele>
        <time>2021-08-07T08:32:25Z</time>
      </trkpt>
      <trkpt lat="45.03304" lon="3.59462">
        <ele>632.1</ele>
        <time>2021-08-07T08:32:27Z</time>
      </trkpt>
      <trkpt lat="45.03301" lon="3.59464">
        <ele>632.4</ele>
        <time>2021-08-07T08:32:29Z</time>
      </trkpt>
      <trkpt lat="45.03298" lon="3.59464">
        <ele>632.4</ele>
        <time>2021-08-07T08:32:31Z</time>
      </trkpt>
      <trkpt lat="45.03295" lon="3.59466">
        <ele>632.6</ele>
        <time>2021-08-07T08:32:33Z</time>
      </trkpt>
      <trkpt lat="45.03292" lon="3.59467">
        <ele>632.8</ele>
        <time>2021-08-07T08:32:35Z</time>
      </trkpt>
      <trkpt lat="45.03288" lon="3.59468">
        <ele>633</ele>
        <time>2021-08-07T08:32:37Z</time>
      </trkpt>
      <trkpt lat="45.03285" lon="3.59469">
        <ele>633</ele>
        <time>2021-08-07T08:32:39Z</time>
      </trkpt>
      <trkpt lat="45.03282" lon="3.5947">
        <ele>633.1</ele>
        <time>2021-08-07T08:32:41Z</time>
      </trkpt>
      <trkpt lat="45.03279" lon="3.59472">
        <ele>633.4</ele>
        <time>2021-08-07T08:32:43Z</time>
      </trkpt>
      <trkpt lat="45.03275" lon="3.59473">
        <ele>633.6</ele>
        <time>2021-08-07T08:32:45Z</time>
      </trkpt>
      <trkpt lat="45.03272" lon="3.59474">
        <ele>633.7</ele>
        <time>2021-08-07T08:32:47Z</time>
      </trkpt>
      <trkpt lat="45.03269" lon="3.59475">
        <ele>633.8</ele>
        <time>2021-08-07T08:32:49Z</time>
      </trkpt>
      <trkpt lat="45.03264" lon="3.59476">
        <ele>633.7</ele>
        <time>2021-08-07T08:32:51Z</time>
      </trkpt>
      <trkpt lat="45.03261" lon="3.59476">
        <ele>633.8</ele>
        <time>2021-08-07T08:32:53Z</time>
      </trkpt>
      <trkpt lat="45.03257" lon="3.59477">
        <ele>633.6</ele>
        <time>2021-08-07T08:32:55Z</time>
      </trkpt>
      <trkpt lat="45.03254" lon="3.59476">
        <ele>633.2</ele>
        <time>2021-08-07T08:32:57Z</time>
      </trkpt>
      <trkpt lat="45.03251" lon="3.59476">
        <ele>632.9</ele>
        <time>2021-08-07T08:32:59Z</time>
      </trkpt>
      <trkpt lat="45.03247" lon="3.59476">
        <ele>633</ele>
        <time>2021-08-07T08:33:01Z</time>
      </trkpt>
      <trkpt lat="45.03244" lon="3.59477">
        <ele>633.3</ele>
        <time>2021-08-07T08:33:03Z</time>
      </trkpt>
      <trkpt lat="45.0324" lon="3.59476">
        <ele>633.4</ele>
        <time>2021-08-07T08:33:05Z</time>
      </trkpt>
      <trkpt lat="45.03237" lon="3.59476">
        <ele>633.5</ele>
        <time>2021-08-07T08:33:07Z</time>
      </trkpt>
      <trkpt lat="45.03234" lon="3.59476">
        <ele>633.4</ele>
        <time>2021-08-07T08:33:09Z</time>
      </trkpt>
      <trkpt lat="45.0323" lon="3.59476">
        <ele>633.4</ele>
        <time>2021-08-07T08:33:11Z</time>
      </trkpt>
      <trkpt lat="45.03226" lon="3.59475">
        <ele>633.4</ele>
        <time>2021-08-07T08:33:13Z</time>
      </trkpt>
      <trkpt lat="45.03223" lon="3.59475">
        <ele>633.4</ele>
        <time>2021-08-07T08:33:15Z</time>
      </trkpt>
      <trkpt lat="45.03219" lon="3.59474">
        <ele>633.4</ele>
        <time>2021-08-07T08:33:17Z</time>
      </trkpt>
      <trkpt lat="45.03216" lon="3.59473">
        <ele>633.2</ele>
        <time>2021-08-07T08:33:19Z</time>
      </trkpt>
      <trkpt lat="45.03212" lon="3.59473">
        <ele>633.3</ele>
        <time>2021-08-07T08:33:21Z</time>
      </trkpt>
      <trkpt lat="45.0321" lon="3.59473">
        <ele>633.3</ele>
        <time>2021-08-07T08:33:23Z</time>
      </trkpt>
      <trkpt lat="45.03206" lon="3.59472">
        <ele>633.2</ele>
        <time>2021-08-07T08:33:25Z</time>
      </trkpt>
      <trkpt lat="45.03202" lon="3.59471">
        <ele>633.2</ele>
        <time>2021-08-07T08:33:27Z</time>
      </trkpt>
      <trkpt lat="45.03198" lon="3.59471">
        <ele>633.3</ele>
        <time>2021-08-07T08:33:29Z</time>
      </trkpt>
      <trkpt lat="45.03195" lon="3.59471">
        <ele>633.4</ele>
        <time>2021-08-07T08:33:31Z</time>
      </trkpt>
      <trkpt lat="45.03192" lon="3.59471">
        <ele>633.5</ele>
        <time>2021-08-07T08:33:33Z</time>
      </trkpt>
      <trkpt lat="45.03188" lon="3.59472">
        <ele>633.9</ele>
        <time>2021-08-07T08:33:35Z</time>
      </trkpt>
      <trkpt lat="45.03185" lon="3.59472">
        <ele>634</ele>
        <time>2021-08-07T08:33:37Z</time>
      </trkpt>
      <trkpt lat="45.03181" lon="3.59472">
        <ele>634.2</ele>
        <time>2021-08-07T08:33:39Z</time>
      </trkpt>
      <trkpt lat="45.03178" lon="3.59472">
        <ele>634.3</ele>
        <time>2021-08-07T08:33:41Z</time>
      </trkpt>
      <trkpt lat="45.03174" lon="3.59472">
        <ele>634.7</ele>
        <time>2021-08-07T08:33:43Z</time>
      </trkpt>
      <trkpt lat="45.03171" lon="3.59473">
        <ele>635</ele>
        <time>2021-08-07T08:33:45Z</time>
      </trkpt>
      <trkpt lat="45.03168" lon="3.59473">
        <ele>635.2</ele>
        <time>2021-08-07T08:33:47Z</time>
      </trkpt>
      <trkpt lat="45.03164" lon="3.59473">
        <ele>635.1</ele>
        <time>2021-08-07T08:33:49Z</time>
      </trkpt>
      <trkpt lat="45.03161" lon="3.59474">
        <ele>634.7</ele>
        <time>2021-08-07T08:33:51Z</time>
      </trkpt>
      <trkpt lat="45.03158" lon="3.59474">
        <ele>634.5</ele>
        <time>2021-08-07T08:33:53Z</time>
      </trkpt>
      <trkpt lat="45.03155" lon="3.59475">
        <ele>634.2</ele>
        <time>2021-08-07T08:33:55Z</time>
      </trkpt>
      <trkpt lat="45.03151" lon="3.59475">
        <ele>633.8</ele>
        <time>2021-08-07T08:33:57Z</time>
      </trkpt>
      <trkpt lat="45.03148" lon="3.59476">
        <ele>633.6</ele>
        <time>2021-08-07T08:33:59Z</time>
      </trkpt>
      <trkpt lat="45.03144" lon="3.59477">
        <ele>633.3</ele>
        <time>2021-08-07T08:34:01Z</time>
      </trkpt>
      <trkpt lat="45.03141" lon="3.59477">
        <ele>633</ele>
        <time>2021-08-07T08:34:03Z</time>
      </trkpt>
      <trkpt lat="45.03138" lon="3.59479">
        <ele>632.9</ele>
        <time>2021-08-07T08:34:05Z</time>
      </trkpt>
      <trkpt lat="45.03134" lon="3.5948">
        <ele>632.8</ele>
        <time>2021-08-07T08:34:07Z</time>
      </trkpt>
      <trkpt lat="45.03132" lon="3.59482">
        <ele>632.9</ele>
        <time>2021-08-07T08:34:09Z</time>
      </trkpt>
      <trkpt lat="45.03129" lon="3.59484">
        <ele>632.9</ele>
        <time>2021-08-07T08:34:11Z</time>
      </trkpt>
      <trkpt lat="45.03126" lon="3.59487">
        <ele>633.1</ele>
        <time>2021-08-07T08:34:13Z</time>
      </trkpt>
      <trkpt lat="45.03123" lon="3.5949">
        <ele>633.2</ele>
        <time>2021-08-07T08:34:15Z</time>
      </trkpt>
      <trkpt lat="45.0312" lon="3.59493">
        <ele>633.5</ele>
        <time>2021-08-07T08:34:17Z</time>
      </trkpt>
      <trkpt lat="45.03118" lon="3.59497">
        <ele>633.9</ele>
        <time>2021-08-07T08:34:19Z</time>
      </trkpt>
      <trkpt lat="45.03116" lon="3.59501">
        <ele>634.3</ele>
        <time>2021-08-07T08:34:21Z</time>
      </trkpt>
      <trkpt lat="45.03115" lon="3.59505">
        <ele>634</ele>
        <time>2021-08-07T08:34:23Z</time>
      </trkpt>
      <trkpt lat="45.03115" lon="3.5951">
        <ele>633.8</ele>
        <time>2021-08-07T08:34:25Z</time>
      </trkpt>
      <trkpt lat="45.03113" lon="3.59515">
        <ele>633.5</ele>
        <time>2021-08-07T08:34:27Z</time>
      </trkpt>
      <trkpt lat="45.03113" lon="3.5952">
        <ele>633.2</ele>
        <time>2021-08-07T08:34:29Z</time>
      </trkpt>
      <trkpt lat="45.03112" lon="3.59525">
        <ele>633</ele>
        <time>2021-08-07T08:34:31Z</time>
      </trkpt>
      <trkpt lat="45.03112" lon="3.5953">
        <ele>633</ele>
        <time>2021-08-07T08:34:33Z</time>
      </trkpt>
      <trkpt lat="45.03113" lon="3.59534">
        <ele>633.1</ele>
        <time>2021-08-07T08:34:35Z</time>
      </trkpt>
      <trkpt lat="45.03114" lon="3.5954">
        <ele>633.1</ele>
        <time>2021-08-07T08:34:37Z</time>
      </trkpt>
      <trkpt lat="45.03114" lon="3.59545">
        <ele>633.1</ele>
        <time>2021-08-07T08:34:39Z</time>
      </trkpt>
      <trkpt lat="45.03115" lon="3.59549">
        <ele>633.3</ele>
        <time>2021-08-07T08:34:41Z</time>
      </trkpt>
      <trkpt lat="45.03117" lon="3.59554">
        <ele>633.6</ele>
        <time>2021-08-07T08:34:43Z</time>
      </trkpt>
      <trkpt lat="45.03119" lon="3.59558">
        <ele>634</ele>
        <time>2021-08-07T08:34:45Z</time>
      </trkpt>
      <trkpt lat="45.03122" lon="3.59562">
        <ele>634.6</ele>
        <time>2021-08-07T08:34:47Z</time>
      </trkpt>
      <trkpt lat="45.03125" lon="3.59565">
        <ele>635.1</ele>
        <time>2021-08-07T08:34:49Z</time>
      </trkpt>
      <trkpt lat="45.03128" lon="3.59569">
        <ele>635.8</ele>
        <time>2021-08-07T08:34:51Z</time>
      </trkpt>
      <trkpt lat="45.03131" lon="3.59571">
        <ele>636.6</ele>
        <time>2021-08-07T08:34:53Z</time>
      </trkpt>
      <trkpt lat="45.03135" lon="3.59574">
        <ele>637.4</ele>
        <time>2021-08-07T08:34:55Z</time>
      </trkpt>
      <trkpt lat="45.03139" lon="3.59575">
        <ele>638.4</ele>
        <time>2021-08-07T08:34:57Z</time>
      </trkpt>
      <trkpt lat="45.03143" lon="3.59577">
        <ele>639.4</ele>
        <time>2021-08-07T08:34:59Z</time>
      </trkpt>
      <trkpt lat="45.03149" lon="3.59578">
        <ele>640.7</ele>
        <time>2021-08-07T08:35:01Z</time>
      </trkpt>
      <trkpt lat="45.03154" lon="3.59578">
        <ele>641.9</ele>
        <time>2021-08-07T08:35:03Z</time>
      </trkpt>
      <trkpt lat="45.03159" lon="3.59577">
        <ele>643.1</ele>
        <time>2021-08-07T08:35:05Z</time>
      </trkpt>
      <trkpt lat="45.03163" lon="3.59575">
        <ele>644.1</ele>
        <time>2021-08-07T08:35:07Z</time>
      </trkpt>
      <trkpt lat="45.03168" lon="3.59574">
        <ele>645</ele>
        <time>2021-08-07T08:35:09Z</time>
      </trkpt>
      <trkpt lat="45.03173" lon="3.59572">
        <ele>645.3</ele>
        <time>2021-08-07T08:35:11Z</time>
      </trkpt>
      <trkpt lat="45.03177" lon="3.59572">
        <ele>645.7</ele>
        <time>2021-08-07T08:35:13Z</time>
      </trkpt>
      <trkpt lat="45.03181" lon="3.5957">
        <ele>646</ele>
        <time>2021-08-07T08:35:15Z</time>
      </trkpt>
      <trkpt lat="45.03186" lon="3.59569">
        <ele>646.3</ele>
        <time>2021-08-07T08:35:17Z</time>
      </trkpt>
      <trkpt lat="45.0319" lon="3.59568">
        <ele>646.6</ele>
        <time>2021-08-07T08:35:19Z</time>
      </trkpt>
      <trkpt lat="45.03195" lon="3.59567">
        <ele>646.9</ele>
        <time>2021-08-07T08:35:21Z</time>
      </trkpt>
      <trkpt lat="45.032" lon="3.59565">
        <ele>647.1</ele>
        <time>2021-08-07T08:35:23Z</time>
      </trkpt>
      <trkpt lat="45.03204" lon="3.59564">
        <ele>647.3</ele>
        <time>2021-08-07T08:35:25Z</time>
      </trkpt>
      <trkpt lat="45.03209" lon="3.59564">
        <ele>647.6</ele>
        <time>2021-08-07T08:35:27Z</time>
      </trkpt>
      <trkpt lat="45.03213" lon="3.59562">
        <ele>647.8</ele>
        <time>2021-08-07T08:35:29Z</time>
      </trkpt>
      <trkpt lat="45.03218" lon="3.59561">
        <ele>648</ele>
        <time>2021-08-07T08:35:31Z</time>
      </trkpt>
      <trkpt lat="45.03222" lon="3.5956">
        <ele>648.1</ele>
        <time>2021-08-07T08:35:33Z</time>
      </trkpt>
      <trkpt lat="45.03227" lon="3.59559">
        <ele>648.4</ele>
        <time>2021-08-07T08:35:35Z</time>
      </trkpt>
      <trkpt lat="45.03231" lon="3.59559">
        <ele>648.6</ele>
        <time>2021-08-07T08:35:37Z</time>
      </trkpt>
      <trkpt lat="45.03236" lon="3.59559">
        <ele>648.9</ele>
        <time>2021-08-07T08:35:39Z</time>
      </trkpt>
      <trkpt lat="45.0324" lon="3.59559">
        <ele>649.3</ele>
        <time>2021-08-07T08:35:41Z</time>
      </trkpt>
      <trkpt lat="45.03245" lon="3.59561">
        <ele>649.7</ele>
        <time>2021-08-07T08:35:43Z</time>
      </trkpt>
      <trkpt lat="45.03248" lon="3.59563">
        <ele>650.2</ele>
        <time>2021-08-07T08:35:45Z</time>
      </trkpt>
      <trkpt lat="45.03252" lon="3.59565">
        <ele>650.9</ele>
        <time>2021-08-07T08:35:47Z</time>
      </trkpt>
      <trkpt lat="45.03256" lon="3.59568">
        <ele>651.7</ele>
        <time>2021-08-07T08:35:49Z</time>
      </trkpt>
      <trkpt lat="45.0326" lon="3.5957">
        <ele>652.3</ele>
        <time>2021-08-07T08:35:51Z</time>
      </trkpt>
      <trkpt lat="45.03263" lon="3.59572">
        <ele>653</ele>
        <time>2021-08-07T08:35:53Z</time>
      </trkpt>
      <trkpt lat="45.03266" lon="3.59574">
        <ele>653.7</ele>
        <time>2021-08-07T08:35:55Z</time>
      </trkpt>
      <trkpt lat="45.03269" lon="3.59575">
        <ele>654.4</ele>
        <time>2021-08-07T08:35:57Z</time>
      </trkpt>
      <trkpt lat="45.03273" lon="3.59577">
        <ele>655</ele>
        <time>2021-08-07T08:35:59Z</time>
      </trkpt>
      <trkpt lat="45.03276" lon="3.59578">
        <ele>655.7</ele>
        <time>2021-08-07T08:36:01Z</time>
      </trkpt>
      <trkpt lat="45.03279" lon="3.5958">
        <ele>656.3</ele>
        <time>2021-08-07T08:36:03Z</time>
      </trkpt>
      <trkpt lat="45.03282" lon="3.59581">
        <ele>656.9</ele>
        <time>2021-08-07T08:36:05Z</time>
      </trkpt>
      <trkpt lat="45.03286" lon="3.59582">
        <ele>657.5</ele>
        <time>2021-08-07T08:36:07Z</time>
      </trkpt>
      <trkpt lat="45.03289" lon="3.59583">
        <ele>658.1</ele>
        <time>2021-08-07T08:36:09Z</time>
      </trkpt>
      <trkpt lat="45.03293" lon="3.59584">
        <ele>658.6</ele>
        <time>2021-08-07T08:36:11Z</time>
      </trkpt>
      <trkpt lat="45.03296" lon="3.59584">
        <ele>659.2</ele>
        <time>2021-08-07T08:36:13Z</time>
      </trkpt>
      <trkpt lat="45.033" lon="3.59585">
        <ele>659.7</ele>
        <time>2021-08-07T08:36:15Z</time>
      </trkpt>
      <trkpt lat="45.03304" lon="3.59585">
        <ele>660.2</ele>
        <time>2021-08-07T08:36:17Z</time>
      </trkpt>
      <trkpt lat="45.03307" lon="3.59584">
        <ele>660.6</ele>
        <time>2021-08-07T08:36:19Z</time>
      </trkpt>
      <trkpt lat="45.0331" lon="3.59584">
        <ele>661</ele>
        <time>2021-08-07T08:36:21Z</time>
      </trkpt>
      <trkpt lat="45.03314" lon="3.59583">
        <ele>661.3</ele>
        <time>2021-08-07T08:36:23Z</time>
      </trkpt>
      <trkpt lat="45.03317" lon="3.59581">
        <ele>661.5</ele>
        <time>2021-08-07T08:36:25Z</time>
      </trkpt>
      <trkpt lat="45.03321" lon="3.5958">
        <ele>661.7</ele>
        <time>2021-08-07T08:36:27Z</time>
      </trkpt>
      <trkpt lat="45.03324" lon="3.59578">
        <ele>661.8</ele>
        <time>2021-08-07T08:36:29Z</time>
      </trkpt>
      <trkpt lat="45.03328" lon="3.59576">
        <ele>661.8</ele>
        <time>2021-08-07T08:36:31Z</time>
      </trkpt>
      <trkpt lat="45.03331" lon="3.59574">
        <ele>661.9</ele>
        <time>2021-08-07T08:36:33Z</time>
      </trkpt>
      <trkpt lat="45.03334" lon="3.59573">
        <ele>662</ele>
        <time>2021-08-07T08:36:35Z</time>
      </trkpt>
      <trkpt lat="45.03338" lon="3.5957">
        <ele>662</ele>
        <time>2021-08-07T08:36:37Z</time>
      </trkpt>
      <trkpt lat="45.03341" lon="3.59568">
        <ele>662.2</ele>
        <time>2021-08-07T08:36:39Z</time>
      </trkpt>
      <trkpt lat="45.03344" lon="3.59566">
        <ele>662.3</ele>
        <time>2021-08-07T08:36:41Z</time>
      </trkpt>
      <trkpt lat="45.03348" lon="3.59564">
        <ele>662.4</ele>
        <time>2021-08-07T08:36:43Z</time>
      </trkpt>
      <trkpt lat="45.03351" lon="3.59562">
        <ele>662.5</ele>
        <time>2021-08-07T08:36:45Z</time>
      </trkpt>
      <trkpt lat="45.03354" lon="3.59559">
        <ele>662.5</ele>
        <time>2021-08-07T08:36:47Z</time>
      </trkpt>
      <trkpt lat="45.03357" lon="3.59557">
        <ele>662.6</ele>
        <time>2021-08-07T08:36:49Z</time>
      </trkpt>
      <trkpt lat="45.03361" lon="3.59554">
        <ele>662.7</ele>
        <time>2021-08-07T08:36:51Z</time>
      </trkpt>
      <trkpt lat="45.03364" lon="3.59552">
        <ele>662.8</ele>
        <time>2021-08-07T08:36:53Z</time>
      </trkpt>
      <trkpt lat="45.03367" lon="3.5955">
        <ele>663</ele>
        <time>2021-08-07T08:36:55Z</time>
      </trkpt>
      <trkpt lat="45.0337" lon="3.59548">
        <ele>663.2</ele>
        <time>2021-08-07T08:36:57Z</time>
      </trkpt>
      <trkpt lat="45.03373" lon="3.59545">
        <ele>663.4</ele>
        <time>2021-08-07T08:36:59Z</time>
      </trkpt>
      <trkpt lat="45.03377" lon="3.59543">
        <ele>663.6</ele>
        <time>2021-08-07T08:37:01Z</time>
      </trkpt>
      <trkpt lat="45.0338" lon="3.59541">
        <ele>663.9</ele>
        <time>2021-08-07T08:37:03Z</time>
      </trkpt>
      <trkpt lat="45.03384" lon="3.5954">
        <ele>664.2</ele>
        <time>2021-08-07T08:37:05Z</time>
      </trkpt>
      <trkpt lat="45.03387" lon="3.59538">
        <ele>664.6</ele>
        <time>2021-08-07T08:37:07Z</time>
      </trkpt>
      <trkpt lat="45.0339" lon="3.59536">
        <ele>664.9</ele>
        <time>2021-08-07T08:37:09Z</time>
      </trkpt>
      <trkpt lat="45.03394" lon="3.59534">
        <ele>665.2</ele>
        <time>2021-08-07T08:37:11Z</time>
      </trkpt>
      <trkpt lat="45.03397" lon="3.59532">
        <ele>665.6</ele>
        <time>2021-08-07T08:37:13Z</time>
      </trkpt>
      <trkpt lat="45.034" lon="3.5953">
        <ele>665.9</ele>
        <time>2021-08-07T08:37:15Z</time>
      </trkpt>
      <trkpt lat="45.03404" lon="3.59528">
        <ele>666.1</ele>
        <time>2021-08-07T08:37:17Z</time>
      </trkpt>
      <trkpt lat="45.03407" lon="3.59526">
        <ele>666.5</ele>
        <time>2021-08-07T08:37:19Z</time>
      </trkpt>
      <trkpt lat="45.0341" lon="3.59524">
        <ele>666.9</ele>
        <time>2021-08-07T08:37:21Z</time>
      </trkpt>
      <trkpt lat="45.03413" lon="3.59522">
        <ele>667.2</ele>
        <time>2021-08-07T08:37:23Z</time>
      </trkpt>
      <trkpt lat="45.03416" lon="3.5952">
        <ele>667.6</ele>
        <time>2021-08-07T08:37:25Z</time>
      </trkpt>
      <trkpt lat="45.03419" lon="3.59518">
        <ele>667.9</ele>
        <time>2021-08-07T08:37:27Z</time>
      </trkpt>
      <trkpt lat="45.03423" lon="3.59516">
        <ele>668.4</ele>
        <time>2021-08-07T08:37:29Z</time>
      </trkpt>
      <trkpt lat="45.03426" lon="3.59513">
        <ele>668.8</ele>
        <time>2021-08-07T08:37:31Z</time>
      </trkpt>
      <trkpt lat="45.03429" lon="3.59511">
        <ele>669.3</ele>
        <time>2021-08-07T08:37:33Z</time>
      </trkpt>
      <trkpt lat="45.03433" lon="3.59509">
        <ele>669.8</ele>
        <time>2021-08-07T08:37:35Z</time>
      </trkpt>
      <trkpt lat="45.03436" lon="3.59507">
        <ele>670.4</ele>
        <time>2021-08-07T08:37:37Z</time>
      </trkpt>
      <trkpt lat="45.03439" lon="3.59505">
        <ele>671</ele>
        <time>2021-08-07T08:37:39Z</time>
      </trkpt>
      <trkpt lat="45.03443" lon="3.59503">
        <ele>671.4</ele>
        <time>2021-08-07T08:37:41Z</time>
      </trkpt>
      <trkpt lat="45.03446" lon="3.595">
        <ele>671.9</ele>
        <time>2021-08-07T08:37:43Z</time>
      </trkpt>
      <trkpt lat="45.03449" lon="3.59497">
        <ele>671.9</ele>
        <time>2021-08-07T08:37:45Z</time>
      </trkpt>
      <trkpt lat="45.03451" lon="3.59493">
        <ele>671.7</ele>
        <time>2021-08-07T08:37:47Z</time>
      </trkpt>
      <trkpt lat="45.03454" lon="3.5949">
        <ele>671.6</ele>
        <time>2021-08-07T08:37:49Z</time>
      </trkpt>
      <trkpt lat="45.03456" lon="3.59487">
        <ele>671.5</ele>
        <time>2021-08-07T08:37:51Z</time>
      </trkpt>
      <trkpt lat="45.03459" lon="3.59483">
        <ele>671.2</ele>
        <time>2021-08-07T08:37:53Z</time>
      </trkpt>
      <trkpt lat="45.03461" lon="3.59479">
        <ele>670.8</ele>
        <time>2021-08-07T08:37:55Z</time>
      </trkpt>
      <trkpt lat="45.03464" lon="3.59476">
        <ele>670.8</ele>
        <time>2021-08-07T08:37:57Z</time>
      </trkpt>
      <trkpt lat="45.03466" lon="3.59472">
        <ele>670.6</ele>
        <time>2021-08-07T08:37:59Z</time>
      </trkpt>
      <trkpt lat="45.03468" lon="3.59469">
        <ele>670.4</ele>
        <time>2021-08-07T08:38:01Z</time>
      </trkpt>
      <trkpt lat="45.03471" lon="3.59466">
        <ele>670.5</ele>
        <time>2021-08-07T08:38:03Z</time>
      </trkpt>
      <trkpt lat="45.03474" lon="3.59462">
        <ele>670.4</ele>
        <time>2021-08-07T08:38:05Z</time>
      </trkpt>
      <trkpt lat="45.03476" lon="3.59458">
        <ele>670.3</ele>
        <time>2021-08-07T08:38:07Z</time>
      </trkpt>
      <trkpt lat="45.03479" lon="3.59455">
        <ele>670.2</ele>
        <time>2021-08-07T08:38:09Z</time>
      </trkpt>
      <trkpt lat="45.03482" lon="3.59452">
        <ele>670.5</ele>
        <time>2021-08-07T08:38:11Z</time>
      </trkpt>
      <trkpt lat="45.03485" lon="3.59449">
        <ele>670.9</ele>
        <time>2021-08-07T08:38:13Z</time>
      </trkpt>
      <trkpt lat="45.03488" lon="3.59447">
        <ele>671.2</ele>
        <time>2021-08-07T08:38:15Z</time>
      </trkpt>
      <trkpt lat="45.03491" lon="3.59444">
        <ele>671.5</ele>
        <time>2021-08-07T08:38:17Z</time>
      </trkpt>
      <trkpt lat="45.03494" lon="3.59441">
        <ele>672</ele>
        <time>2021-08-07T08:38:19Z</time>
      </trkpt>
      <trkpt lat="45.03497" lon="3.59438">
        <ele>672.3</ele>
        <time>2021-08-07T08:38:21Z</time>
      </trkpt>
      <trkpt lat="45.035" lon="3.59435">
        <ele>672.6</ele>
        <time>2021-08-07T08:38:23Z</time>
      </trkpt>
      <trkpt lat="45.03503" lon="3.59433">
        <ele>672.2</ele>
        <time>2021-08-07T08:38:25Z</time>
      </trkpt>
      <trkpt lat="45.03507" lon="3.59431">
        <ele>672</ele>
        <time>2021-08-07T08:38:27Z</time>
      </trkpt>
      <trkpt lat="45.0351" lon="3.59428">
        <ele>671.7</ele>
        <time>2021-08-07T08:38:29Z</time>
      </trkpt>
      <trkpt lat="45.03513" lon="3.59426">
        <ele>671.4</ele>
        <time>2021-08-07T08:38:31Z</time>
      </trkpt>
      <trkpt lat="45.03516" lon="3.59423">
        <ele>671.1</ele>
        <time>2021-08-07T08:38:33Z</time>
      </trkpt>
      <trkpt lat="45.0352" lon="3.59422">
        <ele>671.1</ele>
        <time>2021-08-07T08:38:35Z</time>
      </trkpt>
      <trkpt lat="45.03523" lon="3.5942">
        <ele>670.9</ele>
        <time>2021-08-07T08:38:37Z</time>
      </trkpt>
      <trkpt lat="45.03526" lon="3.59417">
        <ele>670.6</ele>
        <time>2021-08-07T08:38:39Z</time>
      </trkpt>
      <trkpt lat="45.03529" lon="3.59415">
        <ele>670.4</ele>
        <time>2021-08-07T08:38:41Z</time>
      </trkpt>
      <trkpt lat="45.03531" lon="3.59413">
        <ele>669.9</ele>
        <time>2021-08-07T08:38:43Z</time>
      </trkpt>
      <trkpt lat="45.03535" lon="3.59411">
        <ele>669.8</ele>
        <time>2021-08-07T08:38:45Z</time>
      </trkpt>
      <trkpt lat="45.03538" lon="3.59409">
        <ele>669.5</ele>
        <time>2021-08-07T08:38:47Z</time>
      </trkpt>
      <trkpt lat="45.03541" lon="3.59407">
        <ele>669.3</ele>
        <time>2021-08-07T08:38:49Z</time>
      </trkpt>
      <trkpt lat="45.03545" lon="3.59406">
        <ele>669.3</ele>
        <time>2021-08-07T08:38:51Z</time>
      </trkpt>
      <trkpt lat="45.03548" lon="3.59405">
        <ele>669.3</ele>
        <time>2021-08-07T08:38:53Z</time>
      </trkpt>
      <trkpt lat="45.03552" lon="3.59404">
        <ele>669.2</ele>
        <time>2021-08-07T08:38:55Z</time>
      </trkpt>
      <trkpt lat="45.03555" lon="3.59404">
        <ele>669.4</ele>
        <time>2021-08-07T08:38:57Z</time>
      </trkpt>
      <trkpt lat="45.03558" lon="3.59407">
        <ele>670.3</ele>
        <time>2021-08-07T08:38:59Z</time>
      </trkpt>
      <trkpt lat="45.03561" lon="3.59409">
        <ele>671</ele>
        <time>2021-08-07T08:39:01Z</time>
      </trkpt>
      <trkpt lat="45.03563" lon="3.59412">
        <ele>671.8</ele>
        <time>2021-08-07T08:39:03Z</time>
      </trkpt>
      <trkpt lat="45.03565" lon="3.59415">
        <ele>672.6</ele>
        <time>2021-08-07T08:39:05Z</time>
      </trkpt>
      <trkpt lat="45.03567" lon="3.59419">
        <ele>673.3</ele>
        <time>2021-08-07T08:39:07Z</time>
      </trkpt>
      <trkpt lat="45.03568" lon="3.59424">
        <ele>674</ele>
        <time>2021-08-07T08:39:09Z</time>
      </trkpt>
      <trkpt lat="45.0357" lon="3.59429">
        <ele>674.7</ele>
        <time>2021-08-07T08:39:11Z</time>
      </trkpt>
      <trkpt lat="45.03571" lon="3.59434">
        <ele>675.4</ele>
        <time>2021-08-07T08:39:13Z</time>
      </trkpt>
      <trkpt lat="45.03573" lon="3.59439">
        <ele>676</ele>
        <time>2021-08-07T08:39:15Z</time>
      </trkpt>
      <trkpt lat="45.03573" lon="3.59444">
        <ele>676.7</ele>
        <time>2021-08-07T08:39:17Z</time>
      </trkpt>
      <trkpt lat="45.03573" lon="3.5945">
        <ele>677.4</ele>
        <time>2021-08-07T08:39:19Z</time>
      </trkpt>
      <trkpt lat="45.03573" lon="3.59456">
        <ele>678</ele>
        <time>2021-08-07T08:39:21Z</time>
      </trkpt>
      <trkpt lat="45.03574" lon="3.59461">
        <ele>678.6</ele>
        <time>2021-08-07T08:39:23Z</time>
      </trkpt>
      <trkpt lat="45.03574" lon="3.59466">
        <ele>679.2</ele>
        <time>2021-08-07T08:39:25Z</time>
      </trkpt>
      <trkpt lat="45.03574" lon="3.59472">
        <ele>680</ele>
        <time>2021-08-07T08:39:27Z</time>
      </trkpt>
      <trkpt lat="45.03574" lon="3.59478">
        <ele>680.6</ele>
        <time>2021-08-07T08:39:29Z</time>
      </trkpt>
      <trkpt lat="45.03574" lon="3.59484">
        <ele>681.3</ele>
        <time>2021-08-07T08:39:31Z</time>
      </trkpt>
      <trkpt lat="45.03574" lon="3.5949">
        <ele>682</ele>
        <time>2021-08-07T08:39:33Z</time>
      </trkpt>
      <trkpt lat="45.03574" lon="3.59495">
        <ele>682.7</ele>
        <time>2021-08-07T08:39:35Z</time>
      </trkpt>
      <trkpt lat="45.03575" lon="3.59501">
        <ele>683.3</ele>
        <time>2021-08-07T08:39:37Z</time>
      </trkpt>
      <trkpt lat="45.03575" lon="3.59506">
        <ele>683.6</ele>
        <time>2021-08-07T08:39:39Z</time>
      </trkpt>
      <trkpt lat="45.03575" lon="3.59512">
        <ele>683.9</ele>
        <time>2021-08-07T08:39:41Z</time>
      </trkpt>
      <trkpt lat="45.03575" lon="3.59518">
        <ele>684.2</ele>
        <time>2021-08-07T08:39:43Z</time>
      </trkpt>
      <trkpt lat="45.03575" lon="3.59524">
        <ele>684.5</ele>
        <time>2021-08-07T08:39:45Z</time>
      </trkpt>
      <trkpt lat="45.03576" lon="3.5953">
        <ele>684.8</ele>
        <time>2021-08-07T08:39:47Z</time>
      </trkpt>
      <trkpt lat="45.03576" lon="3.59535">
        <ele>685.1</ele>
        <time>2021-08-07T08:39:49Z</time>
      </trkpt>
      <trkpt lat="45.03576" lon="3.59541">
        <ele>685.4</ele>
        <time>2021-08-07T08:39:51Z</time>
      </trkpt>
      <trkpt lat="45.03576" lon="3.59547">
        <ele>685.8</ele>
        <time>2021-08-07T08:39:53Z</time>
      </trkpt>
      <trkpt lat="45.03576" lon="3.59553">
        <ele>686.1</ele>
        <time>2021-08-07T08:39:55Z</time>
      </trkpt>
      <trkpt lat="45.03577" lon="3.59559">
        <ele>686.4</ele>
        <time>2021-08-07T08:39:57Z</time>
      </trkpt>
      <trkpt lat="45.03577" lon="3.59565">
        <ele>686.7</ele>
        <time>2021-08-07T08:39:59Z</time>
      </trkpt>
      <trkpt lat="45.03578" lon="3.5957">
        <ele>687.1</ele>
        <time>2021-08-07T08:40:01Z</time>
      </trkpt>
      <trkpt lat="45.03578" lon="3.59575">
        <ele>687.4</ele>
        <time>2021-08-07T08:40:03Z</time>
      </trkpt>
      <trkpt lat="45.03579" lon="3.5958">
        <ele>687.7</ele>
        <time>2021-08-07T08:40:05Z</time>
      </trkpt>
      <trkpt lat="45.0358" lon="3.59586">
        <ele>688</ele>
        <time>2021-08-07T08:40:07Z</time>
      </trkpt>
      <trkpt lat="45.03582" lon="3.59591">
        <ele>688.3</ele>
        <time>2021-08-07T08:40:09Z</time>
      </trkpt>
      <trkpt lat="45.03583" lon="3.59596">
        <ele>688.6</ele>
        <time>2021-08-07T08:40:11Z</time>
      </trkpt>
      <trkpt lat="45.03585" lon="3.596">
        <ele>688.8</ele>
        <time>2021-08-07T08:40:13Z</time>
      </trkpt>
      <trkpt lat="45.03587" lon="3.59605">
        <ele>689.1</ele>
        <time>2021-08-07T08:40:15Z</time>
      </trkpt>
      <trkpt lat="45.0359" lon="3.59609">
        <ele>689.3</ele>
        <time>2021-08-07T08:40:17Z</time>
      </trkpt>
      <trkpt lat="45.03592" lon="3.59613">
        <ele>689.6</ele>
        <time>2021-08-07T08:40:19Z</time>
      </trkpt>
      <trkpt lat="45.03595" lon="3.59617">
        <ele>689.9</ele>
        <time>2021-08-07T08:40:21Z</time>
      </trkpt>
      <trkpt lat="45.03598" lon="3.5962">
        <ele>690.2</ele>
        <time>2021-08-07T08:40:23Z</time>
      </trkpt>
      <trkpt lat="45.03601" lon="3.59624">
        <ele>690.5</ele>
        <time>2021-08-07T08:40:25Z</time>
      </trkpt>
      <trkpt lat="45.03605" lon="3.59626">
        <ele>690.7</ele>
        <time>2021-08-07T08:40:27Z</time>
      </trkpt>
      <trkpt lat="45.03609" lon="3.59629">
        <ele>691</ele>
        <time>2021-08-07T08:40:29Z</time>
      </trkpt>
      <trkpt lat="45.03613" lon="3.5963">
        <ele>691.3</ele>
        <time>2021-08-07T08:40:31Z</time>
      </trkpt>
      <trkpt lat="45.03617" lon="3.59631">
        <ele>691.5</ele>
        <time>2021-08-07T08:40:33Z</time>
      </trkpt>
      <trkpt lat="45.03621" lon="3.59633">
        <ele>691.7</ele>
        <time>2021-08-07T08:40:35Z</time>
      </trkpt>
      <trkpt lat="45.03625" lon="3.59634">
        <ele>691.9</ele>
        <time>2021-08-07T08:40:37Z</time>
      </trkpt>
      <trkpt lat="45.03629" lon="3.59635">
        <ele>692.1</ele>
        <time>2021-08-07T08:40:39Z</time>
      </trkpt>
      <trkpt lat="45.03633" lon="3.59635">
        <ele>692.4</ele>
        <time>2021-08-07T08:40:41Z</time>
      </trkpt>
      <trkpt lat="45.03637" lon="3.59635">
        <ele>692.5</ele>
        <time>2021-08-07T08:40:43Z</time>
      </trkpt>
      <trkpt lat="45.03642" lon="3.59637">
        <ele>692.8</ele>
        <time>2021-08-07T08:40:45Z</time>
      </trkpt>
      <trkpt lat="45.03646" lon="3.59638">
        <ele>693.1</ele>
        <time>2021-08-07T08:40:47Z</time>
      </trkpt>
      <trkpt lat="45.0365" lon="3.59639">
        <ele>693.4</ele>
        <time>2021-08-07T08:40:49Z</time>
      </trkpt>
      <trkpt lat="45.03654" lon="3.59641">
        <ele>693.7</ele>
        <time>2021-08-07T08:40:51Z</time>
      </trkpt>
      <trkpt lat="45.03658" lon="3.59643">
        <ele>694</ele>
        <time>2021-08-07T08:40:53Z</time>
      </trkpt>
      <trkpt lat="45.03662" lon="3.59645">
        <ele>694.5</ele>
        <time>2021-08-07T08:40:55Z</time>
      </trkpt>
      <trkpt lat="45.03666" lon="3.59648">
        <ele>694.9</ele>
        <time>2021-08-07T08:40:57Z</time>
      </trkpt>
      <trkpt lat="45.0367" lon="3.5965">
        <ele>695.3</ele>
        <time>2021-08-07T08:40:59Z</time>
      </trkpt>
      <trkpt lat="45.03673" lon="3.59653">
        <ele>695.6</ele>
        <time>2021-08-07T08:41:01Z</time>
      </trkpt>
      <trkpt lat="45.03677" lon="3.59656">
        <ele>695.9</ele>
        <time>2021-08-07T08:41:03Z</time>
      </trkpt>
      <trkpt lat="45.0368" lon="3.5966">
        <ele>696.3</ele>
        <time>2021-08-07T08:41:05Z</time>
      </trkpt>
      <trkpt lat="45.03683" lon="3.59664">
        <ele>696.7</ele>
        <time>2021-08-07T08:41:07Z</time>
      </trkpt>
      <trkpt lat="45.03686" lon="3.59667">
        <ele>697</ele>
        <time>2021-08-07T08:41:09Z</time>
      </trkpt>
      <trkpt lat="45.0369" lon="3.59671">
        <ele>697.2</ele>
        <time>2021-08-07T08:41:11Z</time>
      </trkpt>
      <trkpt lat="45.03693" lon="3.59675">
        <ele>697.3</ele>
        <time>2021-08-07T08:41:13Z</time>
      </trkpt>
      <trkpt lat="45.03694" lon="3.59676">
        <ele>697.4</ele>
        <time>2021-08-07T08:41:15Z</time>
      </trkpt>
      <trkpt lat="45.03694" lon="3.59676">
        <ele>697.4</ele>
        <time>2021-08-07T08:41:17Z</time>
      </trkpt>
      <trkpt lat="45.03693" lon="3.59676">
        <ele>697.4</ele>
        <time>2021-08-07T08:41:19Z</time>
      </trkpt>
      <trkpt lat="45.03694" lon="3.59676">
        <ele>697.4</ele>
        <time>2021-08-07T08:41:21Z</time>
      </trkpt>
      <trkpt lat="45.03693" lon="3.59676">
        <ele>697.4</ele>
        <time>2021-08-07T08:41:23Z</time>
      </trkpt>
      <trkpt lat="45.03703" lon="3.5969">
        <ele>698.1</ele>
        <time>2021-08-07T08:42:17Z</time>
      </trkpt>
      <trkpt lat="45.03705" lon="3.59694">
        <ele>698.3</ele>
        <time>2021-08-07T08:42:19Z</time>
      </trkpt>
      <trkpt lat="45.03708" lon="3.59698">
        <ele>698.5</ele>
        <time>2021-08-07T08:42:21Z</time>
      </trkpt>
      <trkpt lat="45.03711" lon="3.59702">
        <ele>698.7</ele>
        <time>2021-08-07T08:42:23Z</time>
      </trkpt>
      <trkpt lat="45.03713" lon="3.59706">
        <ele>699</ele>
        <time>2021-08-07T08:42:25Z</time>
      </trkpt>
      <trkpt lat="45.03716" lon="3.5971">
        <ele>699.3</ele>
        <time>2021-08-07T08:42:27Z</time>
      </trkpt>
      <trkpt lat="45.03719" lon="3.59714">
        <ele>699.6</ele>
        <time>2021-08-07T08:42:29Z</time>
      </trkpt>
      <trkpt lat="45.03722" lon="3.59718">
        <ele>699.9</ele>
        <time>2021-08-07T08:42:31Z</time>
      </trkpt>
      <trkpt lat="45.03725" lon="3.59722">
        <ele>700.2</ele>
        <time>2021-08-07T08:42:33Z</time>
      </trkpt>
      <trkpt lat="45.03727" lon="3.59726">
        <ele>700.5</ele>
        <time>2021-08-07T08:42:35Z</time>
      </trkpt>
      <trkpt lat="45.0373" lon="3.5973">
        <ele>700.8</ele>
        <time>2021-08-07T08:42:37Z</time>
      </trkpt>
      <trkpt lat="45.03733" lon="3.59734">
        <ele>701.1</ele>
        <time>2021-08-07T08:42:39Z</time>
      </trkpt>
      <trkpt lat="45.03735" lon="3.59738">
        <ele>701.5</ele>
        <time>2021-08-07T08:42:41Z</time>
      </trkpt>
      <trkpt lat="45.03738" lon="3.59742">
        <ele>701.9</ele>
        <time>2021-08-07T08:42:43Z</time>
      </trkpt>
      <trkpt lat="45.0374" lon="3.59747">
        <ele>702.3</ele>
        <time>2021-08-07T08:42:45Z</time>
      </trkpt>
      <trkpt lat="45.03743" lon="3.59752">
        <ele>702.7</ele>
        <time>2021-08-07T08:42:47Z</time>
      </trkpt>
      <trkpt lat="45.03745" lon="3.59756">
        <ele>703.1</ele>
        <time>2021-08-07T08:42:49Z</time>
      </trkpt>
      <trkpt lat="45.03747" lon="3.5976">
        <ele>703.4</ele>
        <time>2021-08-07T08:42:51Z</time>
      </trkpt>
      <trkpt lat="45.03748" lon="3.59763">
        <ele>703.7</ele>
        <time>2021-08-07T08:42:53Z</time>
      </trkpt>
      <trkpt lat="45.0375" lon="3.59768">
        <ele>704.1</ele>
        <time>2021-08-07T08:42:55Z</time>
      </trkpt>
      <trkpt lat="45.03752" lon="3.59773">
        <ele>704.4</ele>
        <time>2021-08-07T08:42:57Z</time>
      </trkpt>
      <trkpt lat="45.03753" lon="3.59778">
        <ele>704.7</ele>
        <time>2021-08-07T08:42:59Z</time>
      </trkpt>
      <trkpt lat="45.03754" lon="3.59783">
        <ele>705</ele>
        <time>2021-08-07T08:43:01Z</time>
      </trkpt>
      <trkpt lat="45.03755" lon="3.59788">
        <ele>705.3</ele>
        <time>2021-08-07T08:43:03Z</time>
      </trkpt>
      <trkpt lat="45.03757" lon="3.59793">
        <ele>705.6</ele>
        <time>2021-08-07T08:43:05Z</time>
      </trkpt>
      <trkpt lat="45.03758" lon="3.59798">
        <ele>705.9</ele>
        <time>2021-08-07T08:43:07Z</time>
      </trkpt>
      <trkpt lat="45.03758" lon="3.59803">
        <ele>706.2</ele>
        <time>2021-08-07T08:43:09Z</time>
      </trkpt>
      <trkpt lat="45.03759" lon="3.59808">
        <ele>706.5</ele>
        <time>2021-08-07T08:43:11Z</time>
      </trkpt>
      <trkpt lat="45.03759" lon="3.59813">
        <ele>706.8</ele>
        <time>2021-08-07T08:43:13Z</time>
      </trkpt>
      <trkpt lat="45.03759" lon="3.59819">
        <ele>707.1</ele>
        <time>2021-08-07T08:43:15Z</time>
      </trkpt>
      <trkpt lat="45.03758" lon="3.59824">
        <ele>707.4</ele>
        <time>2021-08-07T08:43:17Z</time>
      </trkpt>
      <trkpt lat="45.03758" lon="3.59829">
        <ele>707.8</ele>
        <time>2021-08-07T08:43:19Z</time>
      </trkpt>
      <trkpt lat="45.03757" lon="3.59834">
        <ele>708</ele>
        <time>2021-08-07T08:43:21Z</time>
      </trkpt>
      <trkpt lat="45.03757" lon="3.59839">
        <ele>708.4</ele>
        <time>2021-08-07T08:43:23Z</time>
      </trkpt>
      <trkpt lat="45.03756" lon="3.59843">
        <ele>708.6</ele>
        <time>2021-08-07T08:43:25Z</time>
      </trkpt>
      <trkpt lat="45.03755" lon="3.5985">
        <ele>709</ele>
        <time>2021-08-07T08:43:27Z</time>
      </trkpt>
      <trkpt lat="45.03755" lon="3.59855">
        <ele>709.3</ele>
        <time>2021-08-07T08:43:29Z</time>
      </trkpt>
      <trkpt lat="45.03754" lon="3.5986">
        <ele>709.6</ele>
        <time>2021-08-07T08:43:31Z</time>
      </trkpt>
      <trkpt lat="45.03754" lon="3.59865">
        <ele>709.9</ele>
        <time>2021-08-07T08:43:33Z</time>
      </trkpt>
      <trkpt lat="45.03753" lon="3.59871">
        <ele>710.3</ele>
        <time>2021-08-07T08:43:35Z</time>
      </trkpt>
      <trkpt lat="45.03753" lon="3.59876">
        <ele>710.6</ele>
        <time>2021-08-07T08:43:37Z</time>
      </trkpt>
      <trkpt lat="45.03752" lon="3.59881">
        <ele>710.9</ele>
        <time>2021-08-07T08:43:39Z</time>
      </trkpt>
      <trkpt lat="45.03751" lon="3.59887">
        <ele>711.2</ele>
        <time>2021-08-07T08:43:41Z</time>
      </trkpt>
      <trkpt lat="45.03751" lon="3.59892">
        <ele>711.5</ele>
        <time>2021-08-07T08:43:43Z</time>
      </trkpt>
      <trkpt lat="45.0375" lon="3.59897">
        <ele>711.8</ele>
        <time>2021-08-07T08:43:45Z</time>
      </trkpt>
      <trkpt lat="45.03749" lon="3.59903">
        <ele>712.2</ele>
        <time>2021-08-07T08:43:47Z</time>
      </trkpt>
      <trkpt lat="45.03748" lon="3.59908">
        <ele>712.5</ele>
        <time>2021-08-07T08:43:49Z</time>
      </trkpt>
      <trkpt lat="45.03747" lon="3.59912">
        <ele>712.7</ele>
        <time>2021-08-07T08:43:51Z</time>
      </trkpt>
      <trkpt lat="45.03746" lon="3.59917">
        <ele>713</ele>
        <time>2021-08-07T08:43:53Z</time>
      </trkpt>
      <trkpt lat="45.03744" lon="3.59924">
        <ele>713.3</ele>
        <time>2021-08-07T08:43:55Z</time>
      </trkpt>
      <trkpt lat="45.03742" lon="3.59929">
        <ele>713.5</ele>
        <time>2021-08-07T08:43:57Z</time>
      </trkpt>
      <trkpt lat="45.0374" lon="3.59934">
        <ele>713.6</ele>
        <time>2021-08-07T08:43:59Z</time>
      </trkpt>
      <trkpt lat="45.03737" lon="3.59939">
        <ele>713.8</ele>
        <time>2021-08-07T08:44:01Z</time>
      </trkpt>
      <trkpt lat="45.03735" lon="3.59944">
        <ele>714</ele>
        <time>2021-08-07T08:44:03Z</time>
      </trkpt>
      <trkpt lat="45.03732" lon="3.59948">
        <ele>714.1</ele>
        <time>2021-08-07T08:44:05Z</time>
      </trkpt>
      <trkpt lat="45.03729" lon="3.59952">
        <ele>714.3</ele>
        <time>2021-08-07T08:44:07Z</time>
      </trkpt>
      <trkpt lat="45.03727" lon="3.59957">
        <ele>714.5</ele>
        <time>2021-08-07T08:44:09Z</time>
      </trkpt>
      <trkpt lat="45.03723" lon="3.59962">
        <ele>714.6</ele>
        <time>2021-08-07T08:44:11Z</time>
      </trkpt>
      <trkpt lat="45.03721" lon="3.59967">
        <ele>714.8</ele>
        <time>2021-08-07T08:44:13Z</time>
      </trkpt>
      <trkpt lat="45.03718" lon="3.59973">
        <ele>715</ele>
        <time>2021-08-07T08:44:15Z</time>
      </trkpt>
      <trkpt lat="45.03715" lon="3.59978">
        <ele>715.2</ele>
        <time>2021-08-07T08:44:17Z</time>
      </trkpt>
      <trkpt lat="45.03712" lon="3.59983">
        <ele>715.4</ele>
        <time>2021-08-07T08:44:19Z</time>
      </trkpt>
      <trkpt lat="45.0371" lon="3.59988">
        <ele>715.6</ele>
        <time>2021-08-07T08:44:21Z</time>
      </trkpt>
      <trkpt lat="45.03708" lon="3.59994">
        <ele>715.8</ele>
        <time>2021-08-07T08:44:23Z</time>
      </trkpt>
      <trkpt lat="45.03706" lon="3.6">
        <ele>716</ele>
        <time>2021-08-07T08:44:25Z</time>
      </trkpt>
      <trkpt lat="45.03705" lon="3.60006">
        <ele>716.4</ele>
        <time>2021-08-07T08:44:27Z</time>
      </trkpt>
      <trkpt lat="45.03704" lon="3.60011">
        <ele>716.7</ele>
        <time>2021-08-07T08:44:29Z</time>
      </trkpt>
      <trkpt lat="45.03702" lon="3.60017">
        <ele>717.1</ele>
        <time>2021-08-07T08:44:31Z</time>
      </trkpt>
      <trkpt lat="45.03701" lon="3.60022">
        <ele>717.5</ele>
        <time>2021-08-07T08:44:33Z</time>
      </trkpt>
      <trkpt lat="45.037" lon="3.60028">
        <ele>717.8</ele>
        <time>2021-08-07T08:44:35Z</time>
      </trkpt>
      <trkpt lat="45.03699" lon="3.60034">
        <ele>718.2</ele>
        <time>2021-08-07T08:44:37Z</time>
      </trkpt>
      <trkpt lat="45.03698" lon="3.6004">
        <ele>718.6</ele>
        <time>2021-08-07T08:44:39Z</time>
      </trkpt>
      <trkpt lat="45.03698" lon="3.60045">
        <ele>718.9</ele>
        <time>2021-08-07T08:44:41Z</time>
      </trkpt>
      <trkpt lat="45.03697" lon="3.60051">
        <ele>719.3</ele>
        <time>2021-08-07T08:44:43Z</time>
      </trkpt>
      <trkpt lat="45.03696" lon="3.60056">
        <ele>719.6</ele>
        <time>2021-08-07T08:44:45Z</time>
      </trkpt>
      <trkpt lat="45.03696" lon="3.60061">
        <ele>719.9</ele>
        <time>2021-08-07T08:44:47Z</time>
      </trkpt>
      <trkpt lat="45.03695" lon="3.60067">
        <ele>720.3</ele>
        <time>2021-08-07T08:44:49Z</time>
      </trkpt>
      <trkpt lat="45.03695" lon="3.60072">
        <ele>720.6</ele>
        <time>2021-08-07T08:44:51Z</time>
      </trkpt>
      <trkpt lat="45.03695" lon="3.60077">
        <ele>720.9</ele>
        <time>2021-08-07T08:44:53Z</time>
      </trkpt>
      <trkpt lat="45.03695" lon="3.60082">
        <ele>721.3</ele>
        <time>2021-08-07T08:44:55Z</time>
      </trkpt>
      <trkpt lat="45.03694" lon="3.60087">
        <ele>721.6</ele>
        <time>2021-08-07T08:44:57Z</time>
      </trkpt>
      <trkpt lat="45.03694" lon="3.60093">
        <ele>721.9</ele>
        <time>2021-08-07T08:44:59Z</time>
      </trkpt>
      <trkpt lat="45.03694" lon="3.60098">
        <ele>722.2</ele>
        <time>2021-08-07T08:45:01Z</time>
      </trkpt>
      <trkpt lat="45.03694" lon="3.60103">
        <ele>722.5</ele>
        <time>2021-08-07T08:45:03Z</time>
      </trkpt>
      <trkpt lat="45.03693" lon="3.60108">
        <ele>722.8</ele>
        <time>2021-08-07T08:45:05Z</time>
      </trkpt>
      <trkpt lat="45.03694" lon="3.60113">
        <ele>723.1</ele>
        <time>2021-08-07T08:45:07Z</time>
      </trkpt>
      <trkpt lat="45.03693" lon="3.60118">
        <ele>723.4</ele>
        <time>2021-08-07T08:45:09Z</time>
      </trkpt>
      <trkpt lat="45.03693" lon="3.60123">
        <ele>723.7</ele>
        <time>2021-08-07T08:45:11Z</time>
      </trkpt>
      <trkpt lat="45.03693" lon="3.60129">
        <ele>724</ele>
        <time>2021-08-07T08:45:13Z</time>
      </trkpt>
      <trkpt lat="45.03693" lon="3.60134">
        <ele>724.4</ele>
        <time>2021-08-07T08:45:15Z</time>
      </trkpt>
      <trkpt lat="45.03693" lon="3.60139">
        <ele>724.7</ele>
        <time>2021-08-07T08:45:17Z</time>
      </trkpt>
      <trkpt lat="45.03693" lon="3.60144">
        <ele>725</ele>
        <time>2021-08-07T08:45:19Z</time>
      </trkpt>
      <trkpt lat="45.03693" lon="3.6015">
        <ele>725.3</ele>
        <time>2021-08-07T08:45:21Z</time>
      </trkpt>
      <trkpt lat="45.03693" lon="3.60155">
        <ele>725.6</ele>
        <time>2021-08-07T08:45:23Z</time>
      </trkpt>
      <trkpt lat="45.03693" lon="3.6016">
        <ele>725.9</ele>
        <time>2021-08-07T08:45:25Z</time>
      </trkpt>
      <trkpt lat="45.03694" lon="3.60166">
        <ele>726.3</ele>
        <time>2021-08-07T08:45:27Z</time>
      </trkpt>
      <trkpt lat="45.03694" lon="3.60171">
        <ele>726.6</ele>
        <time>2021-08-07T08:45:29Z</time>
      </trkpt>
      <trkpt lat="45.03694" lon="3.60176">
        <ele>727</ele>
        <time>2021-08-07T08:45:31Z</time>
      </trkpt>
      <trkpt lat="45.03695" lon="3.60182">
        <ele>727.4</ele>
        <time>2021-08-07T08:45:33Z</time>
      </trkpt>
      <trkpt lat="45.03695" lon="3.60187">
        <ele>727.8</ele>
        <time>2021-08-07T08:45:35Z</time>
      </trkpt>
      <trkpt lat="45.03694" lon="3.60193">
        <ele>728.2</ele>
        <time>2021-08-07T08:45:37Z</time>
      </trkpt>
      <trkpt lat="45.03695" lon="3.60198">
        <ele>728.6</ele>
        <time>2021-08-07T08:45:39Z</time>
      </trkpt>
      <trkpt lat="45.03695" lon="3.60203">
        <ele>728.9</ele>
        <time>2021-08-07T08:45:41Z</time>
      </trkpt>
      <trkpt lat="45.03696" lon="3.60208">
        <ele>729.3</ele>
        <time>2021-08-07T08:45:43Z</time>
      </trkpt>
      <trkpt lat="45.03696" lon="3.60214">
        <ele>729.7</ele>
        <time>2021-08-07T08:45:45Z</time>
      </trkpt>
      <trkpt lat="45.03697" lon="3.60219">
        <ele>730.1</ele>
        <time>2021-08-07T08:45:47Z</time>
      </trkpt>
      <trkpt lat="45.03697" lon="3.60224">
        <ele>730.4</ele>
        <time>2021-08-07T08:45:49Z</time>
      </trkpt>
      <trkpt lat="45.03697" lon="3.60229">
        <ele>730.8</ele>
        <time>2021-08-07T08:45:51Z</time>
      </trkpt>
      <trkpt lat="45.03698" lon="3.60234">
        <ele>731.1</ele>
        <time>2021-08-07T08:45:53Z</time>
      </trkpt>
      <trkpt lat="45.03699" lon="3.60239">
        <ele>731.5</ele>
        <time>2021-08-07T08:45:55Z</time>
      </trkpt>
      <trkpt lat="45.03699" lon="3.60244">
        <ele>731.8</ele>
        <time>2021-08-07T08:45:57Z</time>
      </trkpt>
      <trkpt lat="45.037" lon="3.60249">
        <ele>732.1</ele>
        <time>2021-08-07T08:45:59Z</time>
      </trkpt>
      <trkpt lat="45.03701" lon="3.60254">
        <ele>732.4</ele>
        <time>2021-08-07T08:46:01Z</time>
      </trkpt>
      <trkpt lat="45.03701" lon="3.60259">
        <ele>732.6</ele>
        <time>2021-08-07T08:46:03Z</time>
      </trkpt>
      <trkpt lat="45.03701" lon="3.60264">
        <ele>732.8</ele>
        <time>2021-08-07T08:46:05Z</time>
      </trkpt>
      <trkpt lat="45.03702" lon="3.60269">
        <ele>733</ele>
        <time>2021-08-07T08:46:07Z</time>
      </trkpt>
      <trkpt lat="45.03703" lon="3.60274">
        <ele>733.2</ele>
        <time>2021-08-07T08:46:09Z</time>
      </trkpt>
      <trkpt lat="45.03703" lon="3.60279">
        <ele>733.5</ele>
        <time>2021-08-07T08:46:11Z</time>
      </trkpt>
      <trkpt lat="45.03704" lon="3.60284">
        <ele>733.7</ele>
        <time>2021-08-07T08:46:13Z</time>
      </trkpt>
      <trkpt lat="45.03704" lon="3.60289">
        <ele>733.9</ele>
        <time>2021-08-07T08:46:15Z</time>
      </trkpt>
      <trkpt lat="45.03705" lon="3.60294">
        <ele>734.2</ele>
        <time>2021-08-07T08:46:17Z</time>
      </trkpt>
      <trkpt lat="45.03706" lon="3.603">
        <ele>734.4</ele>
        <time>2021-08-07T08:46:19Z</time>
      </trkpt>
      <trkpt lat="45.03706" lon="3.60305">
        <ele>734.7</ele>
        <time>2021-08-07T08:46:21Z</time>
      </trkpt>
      <trkpt lat="45.03707" lon="3.6031">
        <ele>734.9</ele>
        <time>2021-08-07T08:46:23Z</time>
      </trkpt>
      <trkpt lat="45.03707" lon="3.60315">
        <ele>735.1</ele>
        <time>2021-08-07T08:46:25Z</time>
      </trkpt>
      <trkpt lat="45.03708" lon="3.6032">
        <ele>735.4</ele>
        <time>2021-08-07T08:46:27Z</time>
      </trkpt>
      <trkpt lat="45.03709" lon="3.60325">
        <ele>735.6</ele>
        <time>2021-08-07T08:46:29Z</time>
      </trkpt>
      <trkpt lat="45.03709" lon="3.6033">
        <ele>735.9</ele>
        <time>2021-08-07T08:46:31Z</time>
      </trkpt>
      <trkpt lat="45.0371" lon="3.60336">
        <ele>736.1</ele>
        <time>2021-08-07T08:46:33Z</time>
      </trkpt>
      <trkpt lat="45.0371" lon="3.60341">
        <ele>736.4</ele>
        <time>2021-08-07T08:46:35Z</time>
      </trkpt>
      <trkpt lat="45.0371" lon="3.60346">
        <ele>736.7</ele>
        <time>2021-08-07T08:46:37Z</time>
      </trkpt>
      <trkpt lat="45.03711" lon="3.60351">
        <ele>736.9</ele>
        <time>2021-08-07T08:46:39Z</time>
      </trkpt>
      <trkpt lat="45.03711" lon="3.60356">
        <ele>737.2</ele>
        <time>2021-08-07T08:46:41Z</time>
      </trkpt>
      <trkpt lat="45.03712" lon="3.60361">
        <ele>737.5</ele>
        <time>2021-08-07T08:46:43Z</time>
      </trkpt>
      <trkpt lat="45.03712" lon="3.60367">
        <ele>737.7</ele>
        <time>2021-08-07T08:46:45Z</time>
      </trkpt>
      <trkpt lat="45.03712" lon="3.60372">
        <ele>738</ele>
        <time>2021-08-07T08:46:47Z</time>
      </trkpt>
      <trkpt lat="45.03713" lon="3.60378">
        <ele>738.3</ele>
        <time>2021-08-07T08:46:49Z</time>
      </trkpt>
      <trkpt lat="45.03713" lon="3.60383">
        <ele>738.6</ele>
        <time>2021-08-07T08:46:51Z</time>
      </trkpt>
      <trkpt lat="45.03713" lon="3.60388">
        <ele>738.8</ele>
        <time>2021-08-07T08:46:53Z</time>
      </trkpt>
      <trkpt lat="45.03713" lon="3.60393">
        <ele>739.1</ele>
        <time>2021-08-07T08:46:55Z</time>
      </trkpt>
      <trkpt lat="45.03714" lon="3.60399">
        <ele>739.4</ele>
        <time>2021-08-07T08:46:57Z</time>
      </trkpt>
      <trkpt lat="45.03714" lon="3.60404">
        <ele>739.6</ele>
        <time>2021-08-07T08:46:59Z</time>
      </trkpt>
      <trkpt lat="45.03714" lon="3.60409">
        <ele>739.9</ele>
        <time>2021-08-07T08:47:01Z</time>
      </trkpt>
      <trkpt lat="45.03714" lon="3.60414">
        <ele>740.2</ele>
        <time>2021-08-07T08:47:03Z</time>
      </trkpt>
      <trkpt lat="45.03714" lon="3.6042">
        <ele>740.4</ele>
        <time>2021-08-07T08:47:05Z</time>
      </trkpt>
      <trkpt lat="45.03715" lon="3.60425">
        <ele>740.6</ele>
        <time>2021-08-07T08:47:07Z</time>
      </trkpt>
      <trkpt lat="45.03715" lon="3.6043">
        <ele>740.8</ele>
        <time>2021-08-07T08:47:09Z</time>
      </trkpt>
      <trkpt lat="45.03715" lon="3.60436">
        <ele>741</ele>
        <time>2021-08-07T08:47:11Z</time>
      </trkpt>
      <trkpt lat="45.03715" lon="3.60441">
        <ele>741.2</ele>
        <time>2021-08-07T08:47:13Z</time>
      </trkpt>
      <trkpt lat="45.03715" lon="3.60446">
        <ele>741.5</ele>
        <time>2021-08-07T08:47:15Z</time>
      </trkpt>
      <trkpt lat="45.03715" lon="3.60451">
        <ele>741.7</ele>
        <time>2021-08-07T08:47:17Z</time>
      </trkpt>
      <trkpt lat="45.03715" lon="3.60456">
        <ele>741.9</ele>
        <time>2021-08-07T08:47:19Z</time>
      </trkpt>
      <trkpt lat="45.03714" lon="3.60461">
        <ele>742.1</ele>
        <time>2021-08-07T08:47:21Z</time>
      </trkpt>
      <trkpt lat="45.03714" lon="3.60466">
        <ele>742.3</ele>
        <time>2021-08-07T08:47:23Z</time>
      </trkpt>
      <trkpt lat="45.03713" lon="3.60471">
        <ele>742.6</ele>
        <time>2021-08-07T08:47:25Z</time>
      </trkpt>
      <trkpt lat="45.03713" lon="3.60476">
        <ele>742.8</ele>
        <time>2021-08-07T08:47:27Z</time>
      </trkpt>
      <trkpt lat="45.03713" lon="3.60481">
        <ele>743</ele>
        <time>2021-08-07T08:47:29Z</time>
      </trkpt>
      <trkpt lat="45.03712" lon="3.60487">
        <ele>743.3</ele>
        <time>2021-08-07T08:47:31Z</time>
      </trkpt>
      <trkpt lat="45.03711" lon="3.60492">
        <ele>743.5</ele>
        <time>2021-08-07T08:47:33Z</time>
      </trkpt>
      <trkpt lat="45.03711" lon="3.60497">
        <ele>743.8</ele>
        <time>2021-08-07T08:47:35Z</time>
      </trkpt>
      <trkpt lat="45.0371" lon="3.60502">
        <ele>744</ele>
        <time>2021-08-07T08:47:37Z</time>
      </trkpt>
      <trkpt lat="45.03709" lon="3.60507">
        <ele>744.3</ele>
        <time>2021-08-07T08:47:39Z</time>
      </trkpt>
      <trkpt lat="45.03709" lon="3.60512">
        <ele>744.6</ele>
        <time>2021-08-07T08:47:41Z</time>
      </trkpt>
      <trkpt lat="45.03708" lon="3.60517">
        <ele>744.9</ele>
        <time>2021-08-07T08:47:43Z</time>
      </trkpt>
      <trkpt lat="45.03707" lon="3.60522">
        <ele>745.3</ele>
        <time>2021-08-07T08:47:45Z</time>
      </trkpt>
      <trkpt lat="45.03707" lon="3.60527">
        <ele>745.6</ele>
        <time>2021-08-07T08:47:47Z</time>
      </trkpt>
      <trkpt lat="45.03706" lon="3.60532">
        <ele>745.9</ele>
        <time>2021-08-07T08:47:49Z</time>
      </trkpt>
      <trkpt lat="45.03705" lon="3.60537">
        <ele>746.2</ele>
        <time>2021-08-07T08:47:51Z</time>
      </trkpt>
      <trkpt lat="45.03704" lon="3.60543">
        <ele>746.6</ele>
        <time>2021-08-07T08:47:53Z</time>
      </trkpt>
      <trkpt lat="45.03704" lon="3.60547">
        <ele>746.9</ele>
        <time>2021-08-07T08:47:55Z</time>
      </trkpt>
      <trkpt lat="45.03703" lon="3.60552">
        <ele>747.2</ele>
        <time>2021-08-07T08:47:57Z</time>
      </trkpt>
      <trkpt lat="45.03702" lon="3.60557">
        <ele>747.5</ele>
        <time>2021-08-07T08:47:59Z</time>
      </trkpt>
      <trkpt lat="45.03701" lon="3.60562">
        <ele>747.9</ele>
        <time>2021-08-07T08:48:01Z</time>
      </trkpt>
      <trkpt lat="45.03701" lon="3.60567">
        <ele>748.2</ele>
        <time>2021-08-07T08:48:03Z</time>
      </trkpt>
      <trkpt lat="45.037" lon="3.60572">
        <ele>748.5</ele>
        <time>2021-08-07T08:48:05Z</time>
      </trkpt>
      <trkpt lat="45.03699" lon="3.60577">
        <ele>748.9</ele>
        <time>2021-08-07T08:48:07Z</time>
      </trkpt>
      <trkpt lat="45.03699" lon="3.60582">
        <ele>749.2</ele>
        <time>2021-08-07T08:48:09Z</time>
      </trkpt>
      <trkpt lat="45.03698" lon="3.60587">
        <ele>749.5</ele>
        <time>2021-08-07T08:48:11Z</time>
      </trkpt>
      <trkpt lat="45.03698" lon="3.60592">
        <ele>749.9</ele>
        <time>2021-08-07T08:48:13Z</time>
      </trkpt>
      <trkpt lat="45.03697" lon="3.60597">
        <ele>750.2</ele>
        <time>2021-08-07T08:48:15Z</time>
      </trkpt>
      <trkpt lat="45.03696" lon="3.60602">
        <ele>750.5</ele>
        <time>2021-08-07T08:48:17Z</time>
      </trkpt>
      <trkpt lat="45.03696" lon="3.60607">
        <ele>750.8</ele>
        <time>2021-08-07T08:48:19Z</time>
      </trkpt>
      <trkpt lat="45.03695" lon="3.60613">
        <ele>751.1</ele>
        <time>2021-08-07T08:48:21Z</time>
      </trkpt>
      <trkpt lat="45.03694" lon="3.60618">
        <ele>751.5</ele>
        <time>2021-08-07T08:48:23Z</time>
      </trkpt>
      <trkpt lat="45.03694" lon="3.60623">
        <ele>751.8</ele>
        <time>2021-08-07T08:48:25Z</time>
      </trkpt>
      <trkpt lat="45.03693" lon="3.60628">
        <ele>752.1</ele>
        <time>2021-08-07T08:48:27Z</time>
      </trkpt>
      <trkpt lat="45.03692" lon="3.60633">
        <ele>752.5</ele>
        <time>2021-08-07T08:48:29Z</time>
      </trkpt>
      <trkpt lat="45.03692" lon="3.60639">
        <ele>752.8</ele>
        <time>2021-08-07T08:48:31Z</time>
      </trkpt>
      <trkpt lat="45.03691" lon="3.60644">
        <ele>753.2</ele>
        <time>2021-08-07T08:48:33Z</time>
      </trkpt>
      <trkpt lat="45.0369" lon="3.60648">
        <ele>753.4</ele>
        <time>2021-08-07T08:48:35Z</time>
      </trkpt>
      <trkpt lat="45.0369" lon="3.60652">
        <ele>753.7</ele>
        <time>2021-08-07T08:48:37Z</time>
      </trkpt>
      <trkpt lat="45.03689" lon="3.60659">
        <ele>754.2</ele>
        <time>2021-08-07T08:48:39Z</time>
      </trkpt>
      <trkpt lat="45.03688" lon="3.60664">
        <ele>754.5</ele>
        <time>2021-08-07T08:48:41Z</time>
      </trkpt>
      <trkpt lat="45.03688" lon="3.6067">
        <ele>754.8</ele>
        <time>2021-08-07T08:48:43Z</time>
      </trkpt>
      <trkpt lat="45.03687" lon="3.60674">
        <ele>755</ele>
        <time>2021-08-07T08:48:45Z</time>
      </trkpt>
      <trkpt lat="45.03687" lon="3.6068">
        <ele>755.1</ele>
        <time>2021-08-07T08:48:47Z</time>
      </trkpt>
      <trkpt lat="45.03686" lon="3.60685">
        <ele>755.3</ele>
        <time>2021-08-07T08:48:49Z</time>
      </trkpt>
      <trkpt lat="45.03685" lon="3.6069">
        <ele>755.5</ele>
        <time>2021-08-07T08:48:51Z</time>
      </trkpt>
      <trkpt lat="45.03685" lon="3.60695">
        <ele>755.6</ele>
        <time>2021-08-07T08:48:53Z</time>
      </trkpt>
      <trkpt lat="45.03684" lon="3.607">
        <ele>755.8</ele>
        <time>2021-08-07T08:48:55Z</time>
      </trkpt>
      <trkpt lat="45.03683" lon="3.60705">
        <ele>756</ele>
        <time>2021-08-07T08:48:57Z</time>
      </trkpt>
      <trkpt lat="45.03681" lon="3.6071">
        <ele>756.2</ele>
        <time>2021-08-07T08:48:59Z</time>
      </trkpt>
      <trkpt lat="45.03681" lon="3.60715">
        <ele>756.4</ele>
        <time>2021-08-07T08:49:01Z</time>
      </trkpt>
      <trkpt lat="45.03679" lon="3.6072">
        <ele>756.6</ele>
        <time>2021-08-07T08:49:03Z</time>
      </trkpt>
      <trkpt lat="45.03678" lon="3.60725">
        <ele>756.8</ele>
        <time>2021-08-07T08:49:05Z</time>
      </trkpt>
      <trkpt lat="45.03677" lon="3.6073">
        <ele>756.9</ele>
        <time>2021-08-07T08:49:07Z</time>
      </trkpt>
      <trkpt lat="45.03675" lon="3.60734">
        <ele>757.1</ele>
        <time>2021-08-07T08:49:09Z</time>
      </trkpt>
      <trkpt lat="45.03674" lon="3.60739">
        <ele>757.3</ele>
        <time>2021-08-07T08:49:11Z</time>
      </trkpt>
      <trkpt lat="45.03673" lon="3.60744">
        <ele>757.5</ele>
        <time>2021-08-07T08:49:13Z</time>
      </trkpt>
      <trkpt lat="45.03672" lon="3.60749">
        <ele>757.6</ele>
        <time>2021-08-07T08:49:15Z</time>
      </trkpt>
      <trkpt lat="45.0367" lon="3.60754">
        <ele>757.9</ele>
        <time>2021-08-07T08:49:17Z</time>
      </trkpt>
      <trkpt lat="45.03669" lon="3.60758">
        <ele>758.1</ele>
        <time>2021-08-07T08:49:19Z</time>
      </trkpt>
      <trkpt lat="45.03667" lon="3.60763">
        <ele>758.4</ele>
        <time>2021-08-07T08:49:21Z</time>
      </trkpt>
      <trkpt lat="45.03666" lon="3.60768">
        <ele>758.7</ele>
        <time>2021-08-07T08:49:23Z</time>
      </trkpt>
      <trkpt lat="45.03665" lon="3.60772">
        <ele>758.9</ele>
        <time>2021-08-07T08:49:25Z</time>
      </trkpt>
      <trkpt lat="45.03664" lon="3.60777">
        <ele>759.2</ele>
        <time>2021-08-07T08:49:27Z</time>
      </trkpt>
      <trkpt lat="45.03662" lon="3.60782">
        <ele>759.5</ele>
        <time>2021-08-07T08:49:29Z</time>
      </trkpt>
      <trkpt lat="45.03661" lon="3.60787">
        <ele>759.7</ele>
        <time>2021-08-07T08:49:31Z</time>
      </trkpt>
      <trkpt lat="45.0366" lon="3.60793">
        <ele>760</ele>
        <time>2021-08-07T08:49:33Z</time>
      </trkpt>
      <trkpt lat="45.03659" lon="3.60798">
        <ele>760.2</ele>
        <time>2021-08-07T08:49:35Z</time>
      </trkpt>
      <trkpt lat="45.03657" lon="3.60803">
        <ele>760.4</ele>
        <time>2021-08-07T08:49:37Z</time>
      </trkpt>
      <trkpt lat="45.03656" lon="3.60808">
        <ele>760.7</ele>
        <time>2021-08-07T08:49:39Z</time>
      </trkpt>
      <trkpt lat="45.03655" lon="3.60813">
        <ele>760.9</ele>
        <time>2021-08-07T08:49:41Z</time>
      </trkpt>
      <trkpt lat="45.03653" lon="3.60818">
        <ele>761.1</ele>
        <time>2021-08-07T08:49:43Z</time>
      </trkpt>
      <trkpt lat="45.03652" lon="3.60823">
        <ele>761.3</ele>
        <time>2021-08-07T08:49:45Z</time>
      </trkpt>
      <trkpt lat="45.03651" lon="3.60828">
        <ele>761.4</ele>
        <time>2021-08-07T08:49:47Z</time>
      </trkpt>
      <trkpt lat="45.0365" lon="3.60834">
        <ele>761.6</ele>
        <time>2021-08-07T08:49:49Z</time>
      </trkpt>
      <trkpt lat="45.03649" lon="3.60839">
        <ele>761.6</ele>
        <time>2021-08-07T08:49:51Z</time>
      </trkpt>
      <trkpt lat="45.03648" lon="3.60845">
        <ele>761.6</ele>
        <time>2021-08-07T08:49:53Z</time>
      </trkpt>
      <trkpt lat="45.03647" lon="3.60851">
        <ele>761.5</ele>
        <time>2021-08-07T08:49:55Z</time>
      </trkpt>
      <trkpt lat="45.03647" lon="3.60857">
        <ele>761.5</ele>
        <time>2021-08-07T08:49:57Z</time>
      </trkpt>
      <trkpt lat="45.03646" lon="3.60863">
        <ele>761.5</ele>
        <time>2021-08-07T08:49:59Z</time>
      </trkpt>
      <trkpt lat="45.03646" lon="3.60869">
        <ele>761.4</ele>
        <time>2021-08-07T08:50:01Z</time>
      </trkpt>
      <trkpt lat="45.03646" lon="3.60875">
        <ele>761.4</ele>
        <time>2021-08-07T08:50:03Z</time>
      </trkpt>
      <trkpt lat="45.03646" lon="3.6088">
        <ele>761.3</ele>
        <time>2021-08-07T08:50:05Z</time>
      </trkpt>
      <trkpt lat="45.03646" lon="3.60886">
        <ele>761.3</ele>
        <time>2021-08-07T08:50:07Z</time>
      </trkpt>
      <trkpt lat="45.03646" lon="3.60892">
        <ele>761.2</ele>
        <time>2021-08-07T08:50:09Z</time>
      </trkpt>
      <trkpt lat="45.03647" lon="3.60898">
        <ele>761.2</ele>
        <time>2021-08-07T08:50:11Z</time>
      </trkpt>
      <trkpt lat="45.03647" lon="3.60903">
        <ele>761.1</ele>
        <time>2021-08-07T08:50:13Z</time>
      </trkpt>
      <trkpt lat="45.03647" lon="3.6091">
        <ele>761.1</ele>
        <time>2021-08-07T08:50:15Z</time>
      </trkpt>
      <trkpt lat="45.03647" lon="3.60916">
        <ele>761</ele>
        <time>2021-08-07T08:50:17Z</time>
      </trkpt>
      <trkpt lat="45.03647" lon="3.60922">
        <ele>761.2</ele>
        <time>2021-08-07T08:50:19Z</time>
      </trkpt>
      <trkpt lat="45.03648" lon="3.60928">
        <ele>761.5</ele>
        <time>2021-08-07T08:50:21Z</time>
      </trkpt>
      <trkpt lat="45.03648" lon="3.60934">
        <ele>761.8</ele>
        <time>2021-08-07T08:50:23Z</time>
      </trkpt>
      <trkpt lat="45.03648" lon="3.60939">
        <ele>762.1</ele>
        <time>2021-08-07T08:50:25Z</time>
      </trkpt>
      <trkpt lat="45.03649" lon="3.60945">
        <ele>762.3</ele>
        <time>2021-08-07T08:50:27Z</time>
      </trkpt>
      <trkpt lat="45.03649" lon="3.60951">
        <ele>762.6</ele>
        <time>2021-08-07T08:50:29Z</time>
      </trkpt>
      <trkpt lat="45.03649" lon="3.60956">
        <ele>762.9</ele>
        <time>2021-08-07T08:50:31Z</time>
      </trkpt>
      <trkpt lat="45.03649" lon="3.60962">
        <ele>763.1</ele>
        <time>2021-08-07T08:50:33Z</time>
      </trkpt>
      <trkpt lat="45.03649" lon="3.60968">
        <ele>763.4</ele>
        <time>2021-08-07T08:50:35Z</time>
      </trkpt>
      <trkpt lat="45.0365" lon="3.60974">
        <ele>763.7</ele>
        <time>2021-08-07T08:50:37Z</time>
      </trkpt>
      <trkpt lat="45.0365" lon="3.60979">
        <ele>764</ele>
        <time>2021-08-07T08:50:39Z</time>
      </trkpt>
      <trkpt lat="45.0365" lon="3.60985">
        <ele>764.3</ele>
        <time>2021-08-07T08:50:41Z</time>
      </trkpt>
      <trkpt lat="45.03651" lon="3.60991">
        <ele>764.6</ele>
        <time>2021-08-07T08:50:43Z</time>
      </trkpt>
      <trkpt lat="45.03651" lon="3.60997">
        <ele>764.9</ele>
        <time>2021-08-07T08:50:45Z</time>
      </trkpt>
      <trkpt lat="45.03651" lon="3.61002">
        <ele>765.2</ele>
        <time>2021-08-07T08:50:47Z</time>
      </trkpt>
      <trkpt lat="45.03651" lon="3.61008">
        <ele>765.4</ele>
        <time>2021-08-07T08:50:49Z</time>
      </trkpt>
      <trkpt lat="45.03651" lon="3.61014">
        <ele>765.7</ele>
        <time>2021-08-07T08:50:51Z</time>
      </trkpt>
      <trkpt lat="45.03651" lon="3.61019">
        <ele>765.9</ele>
        <time>2021-08-07T08:50:53Z</time>
      </trkpt>
      <trkpt lat="45.03652" lon="3.61025">
        <ele>766.2</ele>
        <time>2021-08-07T08:50:55Z</time>
      </trkpt>
      <trkpt lat="45.03652" lon="3.6103">
        <ele>766.4</ele>
        <time>2021-08-07T08:50:57Z</time>
      </trkpt>
      <trkpt lat="45.03652" lon="3.61035">
        <ele>766.7</ele>
        <time>2021-08-07T08:50:59Z</time>
      </trkpt>
      <trkpt lat="45.03653" lon="3.6104">
        <ele>766.9</ele>
        <time>2021-08-07T08:51:01Z</time>
      </trkpt>
      <trkpt lat="45.03653" lon="3.61045">
        <ele>767.2</ele>
        <time>2021-08-07T08:51:03Z</time>
      </trkpt>
      <trkpt lat="45.03653" lon="3.6105">
        <ele>767.4</ele>
        <time>2021-08-07T08:51:05Z</time>
      </trkpt>
      <trkpt lat="45.03654" lon="3.61055">
        <ele>767.6</ele>
        <time>2021-08-07T08:51:07Z</time>
      </trkpt>
      <trkpt lat="45.03654" lon="3.6106">
        <ele>767.9</ele>
        <time>2021-08-07T08:51:09Z</time>
      </trkpt>
      <trkpt lat="45.03654" lon="3.61065">
        <ele>768.1</ele>
        <time>2021-08-07T08:51:11Z</time>
      </trkpt>
      <trkpt lat="45.03654" lon="3.6107">
        <ele>768.3</ele>
        <time>2021-08-07T08:51:13Z</time>
      </trkpt>
      <trkpt lat="45.03654" lon="3.61075">
        <ele>768.6</ele>
        <time>2021-08-07T08:51:15Z</time>
      </trkpt>
      <trkpt lat="45.03655" lon="3.6108">
        <ele>768.8</ele>
        <time>2021-08-07T08:51:17Z</time>
      </trkpt>
      <trkpt lat="45.03655" lon="3.61085">
        <ele>769.1</ele>
        <time>2021-08-07T08:51:19Z</time>
      </trkpt>
      <trkpt lat="45.03655" lon="3.6109">
        <ele>769.5</ele>
        <time>2021-08-07T08:51:21Z</time>
      </trkpt>
      <trkpt lat="45.03655" lon="3.61095">
        <ele>769.9</ele>
        <time>2021-08-07T08:51:23Z</time>
      </trkpt>
      <trkpt lat="45.03655" lon="3.611">
        <ele>770.3</ele>
        <time>2021-08-07T08:51:25Z</time>
      </trkpt>
      <trkpt lat="45.03656" lon="3.61105">
        <ele>770.7</ele>
        <time>2021-08-07T08:51:27Z</time>
      </trkpt>
      <trkpt lat="45.03656" lon="3.6111">
        <ele>771.2</ele>
        <time>2021-08-07T08:51:29Z</time>
      </trkpt>
      <trkpt lat="45.03656" lon="3.61114">
        <ele>771.6</ele>
        <time>2021-08-07T08:51:31Z</time>
      </trkpt>
      <trkpt lat="45.03656" lon="3.61119">
        <ele>772</ele>
        <time>2021-08-07T08:51:33Z</time>
      </trkpt>
      <trkpt lat="45.03656" lon="3.61124">
        <ele>772.4</ele>
        <time>2021-08-07T08:51:35Z</time>
      </trkpt>
      <trkpt lat="45.03656" lon="3.61129">
        <ele>772.8</ele>
        <time>2021-08-07T08:51:37Z</time>
      </trkpt>
      <trkpt lat="45.03656" lon="3.61134">
        <ele>773.2</ele>
        <time>2021-08-07T08:51:39Z</time>
      </trkpt>
      <trkpt lat="45.03657" lon="3.61139">
        <ele>773.6</ele>
        <time>2021-08-07T08:51:41Z</time>
      </trkpt>
      <trkpt lat="45.03657" lon="3.61144">
        <ele>774</ele>
        <time>2021-08-07T08:51:43Z</time>
      </trkpt>
      <trkpt lat="45.03657" lon="3.6115">
        <ele>774.4</ele>
        <time>2021-08-07T08:51:45Z</time>
      </trkpt>
      <trkpt lat="45.03656" lon="3.61155">
        <ele>774.8</ele>
        <time>2021-08-07T08:51:47Z</time>
      </trkpt>
      <trkpt lat="45.03657" lon="3.6116">
        <ele>775.2</ele>
        <time>2021-08-07T08:51:49Z</time>
      </trkpt>
      <trkpt lat="45.03657" lon="3.61165">
        <ele>775.6</ele>
        <time>2021-08-07T08:51:51Z</time>
      </trkpt>
      <trkpt lat="45.03656" lon="3.61169">
        <ele>776</ele>
        <time>2021-08-07T08:51:53Z</time>
      </trkpt>
      <trkpt lat="45.03656" lon="3.61174">
        <ele>776.4</ele>
        <time>2021-08-07T08:51:55Z</time>
      </trkpt>
      <trkpt lat="45.03655" lon="3.61179">
        <ele>776.8</ele>
        <time>2021-08-07T08:51:57Z</time>
      </trkpt>
      <trkpt lat="45.03655" lon="3.61184">
        <ele>777.2</ele>
        <time>2021-08-07T08:51:59Z</time>
      </trkpt>
      <trkpt lat="45.03655" lon="3.61189">
        <ele>777.6</ele>
        <time>2021-08-07T08:52:01Z</time>
      </trkpt>
      <trkpt lat="45.03654" lon="3.61194">
        <ele>778</ele>
        <time>2021-08-07T08:52:03Z</time>
      </trkpt>
      <trkpt lat="45.03654" lon="3.61199">
        <ele>778.4</ele>
        <time>2021-08-07T08:52:05Z</time>
      </trkpt>
      <trkpt lat="45.03653" lon="3.61204">
        <ele>778.8</ele>
        <time>2021-08-07T08:52:07Z</time>
      </trkpt>
      <trkpt lat="45.03653" lon="3.61209">
        <ele>779.2</ele>
        <time>2021-08-07T08:52:09Z</time>
      </trkpt>
      <trkpt lat="45.03652" lon="3.61214">
        <ele>779.5</ele>
        <time>2021-08-07T08:52:11Z</time>
      </trkpt>
      <trkpt lat="45.03652" lon="3.61219">
        <ele>780</ele>
        <time>2021-08-07T08:52:13Z</time>
      </trkpt>
      <trkpt lat="45.0365" lon="3.61224">
        <ele>780.3</ele>
        <time>2021-08-07T08:52:15Z</time>
      </trkpt>
      <trkpt lat="45.03649" lon="3.61229">
        <ele>780.6</ele>
        <time>2021-08-07T08:52:17Z</time>
      </trkpt>
      <trkpt lat="45.03648" lon="3.61233">
        <ele>780.9</ele>
        <time>2021-08-07T08:52:19Z</time>
      </trkpt>
      <trkpt lat="45.03646" lon="3.61238">
        <ele>781.2</ele>
        <time>2021-08-07T08:52:21Z</time>
      </trkpt>
      <trkpt lat="45.03644" lon="3.61242">
        <ele>781.4</ele>
        <time>2021-08-07T08:52:23Z</time>
      </trkpt>
      <trkpt lat="45.03643" lon="3.61247">
        <ele>781.7</ele>
        <time>2021-08-07T08:52:25Z</time>
      </trkpt>
      <trkpt lat="45.0364" lon="3.61251">
        <ele>781.9</ele>
        <time>2021-08-07T08:52:27Z</time>
      </trkpt>
      <trkpt lat="45.03638" lon="3.61255">
        <ele>782.2</ele>
        <time>2021-08-07T08:52:29Z</time>
      </trkpt>
      <trkpt lat="45.03636" lon="3.61259">
        <ele>782.4</ele>
        <time>2021-08-07T08:52:31Z</time>
      </trkpt>
      <trkpt lat="45.03633" lon="3.61262">
        <ele>782.6</ele>
        <time>2021-08-07T08:52:33Z</time>
      </trkpt>
      <trkpt lat="45.0363" lon="3.61265">
        <ele>782.7</ele>
        <time>2021-08-07T08:52:35Z</time>
      </trkpt>
      <trkpt lat="45.03628" lon="3.61268">
        <ele>782.9</ele>
        <time>2021-08-07T08:52:37Z</time>
      </trkpt>
      <trkpt lat="45.03625" lon="3.61272">
        <ele>783.1</ele>
        <time>2021-08-07T08:52:39Z</time>
      </trkpt>
      <trkpt lat="45.03622" lon="3.61274">
        <ele>783.2</ele>
        <time>2021-08-07T08:52:41Z</time>
      </trkpt>
      <trkpt lat="45.03619" lon="3.61277">
        <ele>783.3</ele>
        <time>2021-08-07T08:52:43Z</time>
      </trkpt>
      <trkpt lat="45.03616" lon="3.6128">
        <ele>783.5</ele>
        <time>2021-08-07T08:52:45Z</time>
      </trkpt>
      <trkpt lat="45.03613" lon="3.61284">
        <ele>783.7</ele>
        <time>2021-08-07T08:52:47Z</time>
      </trkpt>
      <trkpt lat="45.03611" lon="3.61287">
        <ele>783.9</ele>
        <time>2021-08-07T08:52:49Z</time>
      </trkpt>
      <trkpt lat="45.03608" lon="3.61291">
        <ele>784.2</ele>
        <time>2021-08-07T08:52:51Z</time>
      </trkpt>
      <trkpt lat="45.03606" lon="3.61294">
        <ele>784.4</ele>
        <time>2021-08-07T08:52:53Z</time>
      </trkpt>
      <trkpt lat="45.03603" lon="3.61298">
        <ele>784.7</ele>
        <time>2021-08-07T08:52:55Z</time>
      </trkpt>
      <trkpt lat="45.03601" lon="3.61301">
        <ele>785</ele>
        <time>2021-08-07T08:52:57Z</time>
      </trkpt>
      <trkpt lat="45.036" lon="3.61305">
        <ele>785.4</ele>
        <time>2021-08-07T08:52:59Z</time>
      </trkpt>
      <trkpt lat="45.03598" lon="3.61309">
        <ele>785.7</ele>
        <time>2021-08-07T08:53:01Z</time>
      </trkpt>
      <trkpt lat="45.03596" lon="3.61313">
        <ele>786.1</ele>
        <time>2021-08-07T08:53:03Z</time>
      </trkpt>
      <trkpt lat="45.03594" lon="3.61317">
        <ele>786.5</ele>
        <time>2021-08-07T08:53:05Z</time>
      </trkpt>
      <trkpt lat="45.03593" lon="3.61321">
        <ele>787</ele>
        <time>2021-08-07T08:53:07Z</time>
      </trkpt>
      <trkpt lat="45.03591" lon="3.61325">
        <ele>787.4</ele>
        <time>2021-08-07T08:53:09Z</time>
      </trkpt>
      <trkpt lat="45.0359" lon="3.6133">
        <ele>787.9</ele>
        <time>2021-08-07T08:53:11Z</time>
      </trkpt>
      <trkpt lat="45.03588" lon="3.61334">
        <ele>788.3</ele>
        <time>2021-08-07T08:53:13Z</time>
      </trkpt>
      <trkpt lat="45.03587" lon="3.61338">
        <ele>788.4</ele>
        <time>2021-08-07T08:53:15Z</time>
      </trkpt>
      <trkpt lat="45.03586" lon="3.61343">
        <ele>788.5</ele>
        <time>2021-08-07T08:53:17Z</time>
      </trkpt>
      <trkpt lat="45.03585" lon="3.61347">
        <ele>788.6</ele>
        <time>2021-08-07T08:53:19Z</time>
      </trkpt>
      <trkpt lat="45.03583" lon="3.61351">
        <ele>788.7</ele>
        <time>2021-08-07T08:53:21Z</time>
      </trkpt>
      <trkpt lat="45.03582" lon="3.61356">
        <ele>788.6</ele>
        <time>2021-08-07T08:53:23Z</time>
      </trkpt>
      <trkpt lat="45.03581" lon="3.6136">
        <ele>788.5</ele>
        <time>2021-08-07T08:53:25Z</time>
      </trkpt>
      <trkpt lat="45.03581" lon="3.61364">
        <ele>788.5</ele>
        <time>2021-08-07T08:53:27Z</time>
      </trkpt>
      <trkpt lat="45.03581" lon="3.61368">
        <ele>788.7</ele>
        <time>2021-08-07T08:53:29Z</time>
      </trkpt>
      <trkpt lat="45.0358" lon="3.61372">
        <ele>788.6</ele>
        <time>2021-08-07T08:53:31Z</time>
      </trkpt>
      <trkpt lat="45.03578" lon="3.61376">
        <ele>788.4</ele>
        <time>2021-08-07T08:53:33Z</time>
      </trkpt>
      <trkpt lat="45.03578" lon="3.61381">
        <ele>788.4</ele>
        <time>2021-08-07T08:53:35Z</time>
      </trkpt>
      <trkpt lat="45.03577" lon="3.61385">
        <ele>788.5</ele>
        <time>2021-08-07T08:53:37Z</time>
      </trkpt>
      <trkpt lat="45.03578" lon="3.6139">
        <ele>788.8</ele>
        <time>2021-08-07T08:53:39Z</time>
      </trkpt>
      <trkpt lat="45.03578" lon="3.61394">
        <ele>789.1</ele>
        <time>2021-08-07T08:53:41Z</time>
      </trkpt>
      <trkpt lat="45.03579" lon="3.61398">
        <ele>789.4</ele>
        <time>2021-08-07T08:53:43Z</time>
      </trkpt>
      <trkpt lat="45.03582" lon="3.614">
        <ele>790</ele>
        <time>2021-08-07T08:53:45Z</time>
      </trkpt>
      <trkpt lat="45.03583" lon="3.61403">
        <ele>790.5</ele>
        <time>2021-08-07T08:53:47Z</time>
      </trkpt>
      <trkpt lat="45.03584" lon="3.61408">
        <ele>790.8</ele>
        <time>2021-08-07T08:53:49Z</time>
      </trkpt>
      <trkpt lat="45.03586" lon="3.61411">
        <ele>791.1</ele>
        <time>2021-08-07T08:53:51Z</time>
      </trkpt>
      <trkpt lat="45.03588" lon="3.61415">
        <ele>791.5</ele>
        <time>2021-08-07T08:53:53Z</time>
      </trkpt>
      <trkpt lat="45.0359" lon="3.61417">
        <ele>791.9</ele>
        <time>2021-08-07T08:53:55Z</time>
      </trkpt>
      <trkpt lat="45.03591" lon="3.6142">
        <ele>792.3</ele>
        <time>2021-08-07T08:53:57Z</time>
      </trkpt>
      <trkpt lat="45.03591" lon="3.61419">
        <ele>792.3</ele>
        <time>2021-08-07T08:53:59Z</time>
      </trkpt>
      <trkpt lat="45.03591" lon="3.61419">
        <ele>792.3</ele>
        <time>2021-08-07T08:54:01Z</time>
      </trkpt>
      <trkpt lat="45.03591" lon="3.61419">
        <ele>792.3</ele>
        <time>2021-08-07T08:54:03Z</time>
      </trkpt>
      <trkpt lat="45.03591" lon="3.61419">
        <ele>792.3</ele>
        <time>2021-08-07T08:54:05Z</time>
      </trkpt>
      <trkpt lat="45.03578" lon="3.61376">
        <ele>788.3</ele>
        <time>2021-08-07T08:58:39Z</time>
      </trkpt>
      <trkpt lat="45.03578" lon="3.61377">
        <ele>788.4</ele>
        <time>2021-08-07T08:58:41Z</time>
      </trkpt>
      <trkpt lat="45.03578" lon="3.61381">
        <ele>788.5</ele>
        <time>2021-08-07T08:58:43Z</time>
      </trkpt>
      <trkpt lat="45.03578" lon="3.61387">
        <ele>788.7</ele>
        <time>2021-08-07T08:58:45Z</time>
      </trkpt>
      <trkpt lat="45.03578" lon="3.61391">
        <ele>788.9</ele>
        <time>2021-08-07T08:58:47Z</time>
      </trkpt>
      <trkpt lat="45.03579" lon="3.61396">
        <ele>789.3</ele>
        <time>2021-08-07T08:58:49Z</time>
      </trkpt>
      <trkpt lat="45.0358" lon="3.61401">
        <ele>789.6</ele>
        <time>2021-08-07T08:58:51Z</time>
      </trkpt>
      <trkpt lat="45.03581" lon="3.61405">
        <ele>790.1</ele>
        <time>2021-08-07T08:58:53Z</time>
      </trkpt>
      <trkpt lat="45.03583" lon="3.61408">
        <ele>790.6</ele>
        <time>2021-08-07T08:58:55Z</time>
      </trkpt>
      <trkpt lat="45.03585" lon="3.61411">
        <ele>791</ele>
        <time>2021-08-07T08:58:57Z</time>
      </trkpt>
      <trkpt lat="45.03587" lon="3.61413">
        <ele>791.3</ele>
        <time>2021-08-07T08:58:59Z</time>
      </trkpt>
      <trkpt lat="45.03588" lon="3.61415">
        <ele>791.6</ele>
        <time>2021-08-07T08:59:01Z</time>
      </trkpt>
      <trkpt lat="45.03588" lon="3.61416">
        <ele>791.6</ele>
        <time>2021-08-07T08:59:03Z</time>
      </trkpt>
      <trkpt lat="45.03588" lon="3.61416">
        <ele>791.7</ele>
        <time>2021-08-07T08:59:05Z</time>
      </trkpt>
      <trkpt lat="45.03589" lon="3.61416">
        <ele>791.7</ele>
        <time>2021-08-07T08:59:07Z</time>
      </trkpt>
      <trkpt lat="45.03548" lon="3.61466">
        <ele>787.1</ele>
        <time>2021-08-07T09:01:39Z</time>
      </trkpt>
      <trkpt lat="45.03538" lon="3.6147">
        <ele>785</ele>
        <time>2021-08-07T09:01:41Z</time>
      </trkpt>
      <trkpt lat="45.03529" lon="3.61478">
        <ele>783.3</ele>
        <time>2021-08-07T09:01:43Z</time>
      </trkpt>
      <trkpt lat="45.0352" lon="3.6149">
        <ele>782.3</ele>
        <time>2021-08-07T09:01:45Z</time>
      </trkpt>
      <trkpt lat="45.03514" lon="3.61506">
        <ele>782.1</ele>
        <time>2021-08-07T09:01:47Z</time>
      </trkpt>
      <trkpt lat="45.03507" lon="3.61523">
        <ele>782.5</ele>
        <time>2021-08-07T09:01:49Z</time>
      </trkpt>
      <trkpt lat="45.03501" lon="3.61542">
        <ele>782.9</ele>
        <time>2021-08-07T09:01:51Z</time>
      </trkpt>
      <trkpt lat="45.03495" lon="3.61561">
        <ele>782.9</ele>
        <time>2021-08-07T09:01:53Z</time>
      </trkpt>
      <trkpt lat="45.03488" lon="3.61579">
        <ele>782.7</ele>
        <time>2021-08-07T09:01:55Z</time>
      </trkpt>
      <trkpt lat="45.03481" lon="3.61597">
        <ele>782.3</ele>
        <time>2021-08-07T09:01:57Z</time>
      </trkpt>
      <trkpt lat="45.03471" lon="3.61612">
        <ele>781.2</ele>
        <time>2021-08-07T09:01:59Z</time>
      </trkpt>
      <trkpt lat="45.0346" lon="3.61627">
        <ele>779.6</ele>
        <time>2021-08-07T09:02:01Z</time>
      </trkpt>
      <trkpt lat="45.03451" lon="3.61642">
        <ele>778.6</ele>
        <time>2021-08-07T09:02:03Z</time>
      </trkpt>
      <trkpt lat="45.03445" lon="3.6166">
        <ele>779.3</ele>
        <time>2021-08-07T09:02:05Z</time>
      </trkpt>
      <trkpt lat="45.03443" lon="3.61679">
        <ele>780.7</ele>
        <time>2021-08-07T09:02:07Z</time>
      </trkpt>
      <trkpt lat="45.03442" lon="3.61699">
        <ele>782.5</ele>
        <time>2021-08-07T09:02:09Z</time>
      </trkpt>
      <trkpt lat="45.03441" lon="3.61718">
        <ele>784</ele>
        <time>2021-08-07T09:02:11Z</time>
      </trkpt>
      <trkpt lat="45.03439" lon="3.61736">
        <ele>785.3</ele>
        <time>2021-08-07T09:02:13Z</time>
      </trkpt>
      <trkpt lat="45.03435" lon="3.61752">
        <ele>785.7</ele>
        <time>2021-08-07T09:02:15Z</time>
      </trkpt>
      <trkpt lat="45.03429" lon="3.61764">
        <ele>785.7</ele>
        <time>2021-08-07T09:02:17Z</time>
      </trkpt>
      <trkpt lat="45.03422" lon="3.61773">
        <ele>784.8</ele>
        <time>2021-08-07T09:02:19Z</time>
      </trkpt>
      <trkpt lat="45.03411" lon="3.61772">
        <ele>783.9</ele>
        <time>2021-08-07T09:02:21Z</time>
      </trkpt>
      <trkpt lat="45.03401" lon="3.61765">
        <ele>783.3</ele>
        <time>2021-08-07T09:02:23Z</time>
      </trkpt>
      <trkpt lat="45.03395" lon="3.61754">
        <ele>781.9</ele>
        <time>2021-08-07T09:02:25Z</time>
      </trkpt>
      <trkpt lat="45.03389" lon="3.61742">
        <ele>780.5</ele>
        <time>2021-08-07T09:02:27Z</time>
      </trkpt>
      <trkpt lat="45.03383" lon="3.61732">
        <ele>779.4</ele>
        <time>2021-08-07T09:02:29Z</time>
      </trkpt>
      <trkpt lat="45.03378" lon="3.61724">
        <ele>778.3</ele>
        <time>2021-08-07T09:02:31Z</time>
      </trkpt>
      <trkpt lat="45.03372" lon="3.61716">
        <ele>777.3</ele>
        <time>2021-08-07T09:02:33Z</time>
      </trkpt>
      <trkpt lat="45.03366" lon="3.6171">
        <ele>776.3</ele>
        <time>2021-08-07T09:02:35Z</time>
      </trkpt>
      <trkpt lat="45.0336" lon="3.61705">
        <ele>775.7</ele>
        <time>2021-08-07T09:02:37Z</time>
      </trkpt>
      <trkpt lat="45.03353" lon="3.61702">
        <ele>775.2</ele>
        <time>2021-08-07T09:02:39Z</time>
      </trkpt>
      <trkpt lat="45.03347" lon="3.61701">
        <ele>775</ele>
        <time>2021-08-07T09:02:41Z</time>
      </trkpt>
      <trkpt lat="45.03341" lon="3.617">
        <ele>774.8</ele>
        <time>2021-08-07T09:02:43Z</time>
      </trkpt>
      <trkpt lat="45.03336" lon="3.617">
        <ele>774.8</ele>
        <time>2021-08-07T09:02:45Z</time>
      </trkpt>
      <trkpt lat="45.0333" lon="3.61701">
        <ele>775.3</ele>
        <time>2021-08-07T09:02:47Z</time>
      </trkpt>
      <trkpt lat="45.03325" lon="3.61703">
        <ele>776</ele>
        <time>2021-08-07T09:02:49Z</time>
      </trkpt>
      <trkpt lat="45.03321" lon="3.61705">
        <ele>776.8</ele>
        <time>2021-08-07T09:02:51Z</time>
      </trkpt>
      <trkpt lat="45.03317" lon="3.61707">
        <ele>777.5</ele>
        <time>2021-08-07T09:02:53Z</time>
      </trkpt>
      <trkpt lat="45.03313" lon="3.6171">
        <ele>778.3</ele>
        <time>2021-08-07T09:02:55Z</time>
      </trkpt>
      <trkpt lat="45.03309" lon="3.61713">
        <ele>779.1</ele>
        <time>2021-08-07T09:02:57Z</time>
      </trkpt>
      <trkpt lat="45.03306" lon="3.61716">
        <ele>779.8</ele>
        <time>2021-08-07T09:02:59Z</time>
      </trkpt>
      <trkpt lat="45.03303" lon="3.61719">
        <ele>780.6</ele>
        <time>2021-08-07T09:03:01Z</time>
      </trkpt>
      <trkpt lat="45.033" lon="3.61723">
        <ele>781.5</ele>
        <time>2021-08-07T09:03:03Z</time>
      </trkpt>
      <trkpt lat="45.03298" lon="3.61727">
        <ele>782.4</ele>
        <time>2021-08-07T09:03:05Z</time>
      </trkpt>
      <trkpt lat="45.03295" lon="3.61731">
        <ele>783.1</ele>
        <time>2021-08-07T09:03:07Z</time>
      </trkpt>
      <trkpt lat="45.03293" lon="3.61735">
        <ele>783.9</ele>
        <time>2021-08-07T09:03:09Z</time>
      </trkpt>
      <trkpt lat="45.03291" lon="3.61739">
        <ele>784.7</ele>
        <time>2021-08-07T09:03:11Z</time>
      </trkpt>
      <trkpt lat="45.03289" lon="3.61743">
        <ele>785.5</ele>
        <time>2021-08-07T09:03:13Z</time>
      </trkpt>
      <trkpt lat="45.03287" lon="3.61748">
        <ele>786.3</ele>
        <time>2021-08-07T09:03:15Z</time>
      </trkpt>
      <trkpt lat="45.03285" lon="3.61752">
        <ele>787.1</ele>
        <time>2021-08-07T09:03:17Z</time>
      </trkpt>
      <trkpt lat="45.03283" lon="3.61756">
        <ele>787.9</ele>
        <time>2021-08-07T09:03:19Z</time>
      </trkpt>
      <trkpt lat="45.03281" lon="3.61761">
        <ele>788.7</ele>
        <time>2021-08-07T09:03:21Z</time>
      </trkpt>
      <trkpt lat="45.03279" lon="3.61765">
        <ele>789.4</ele>
        <time>2021-08-07T09:03:23Z</time>
      </trkpt>
      <trkpt lat="45.03276" lon="3.61769">
        <ele>790.1</ele>
        <time>2021-08-07T09:03:25Z</time>
      </trkpt>
      <trkpt lat="45.03273" lon="3.61772">
        <ele>790.7</ele>
        <time>2021-08-07T09:03:27Z</time>
      </trkpt>
      <trkpt lat="45.03269" lon="3.61774">
        <ele>791.2</ele>
        <time>2021-08-07T09:03:29Z</time>
      </trkpt>
      <trkpt lat="45.03264" lon="3.61775">
        <ele>791.3</ele>
        <time>2021-08-07T09:03:31Z</time>
      </trkpt>
      <trkpt lat="45.0326" lon="3.61774">
        <ele>791.2</ele>
        <time>2021-08-07T09:03:33Z</time>
      </trkpt>
      <trkpt lat="45.03256" lon="3.61772">
        <ele>791</ele>
        <time>2021-08-07T09:03:35Z</time>
      </trkpt>
      <trkpt lat="45.03252" lon="3.61768">
        <ele>790.6</ele>
        <time>2021-08-07T09:03:37Z</time>
      </trkpt>
      <trkpt lat="45.03249" lon="3.61765">
        <ele>790.2</ele>
        <time>2021-08-07T09:03:39Z</time>
      </trkpt>
      <trkpt lat="45.03246" lon="3.6176">
        <ele>789.6</ele>
        <time>2021-08-07T09:03:41Z</time>
      </trkpt>
      <trkpt lat="45.03244" lon="3.61755">
        <ele>789</ele>
        <time>2021-08-07T09:03:43Z</time>
      </trkpt>
      <trkpt lat="45.03241" lon="3.61749">
        <ele>788.3</ele>
        <time>2021-08-07T09:03:45Z</time>
      </trkpt>
      <trkpt lat="45.0324" lon="3.61744">
        <ele>787.8</ele>
        <time>2021-08-07T09:03:47Z</time>
      </trkpt>
      <trkpt lat="45.03238" lon="3.61738">
        <ele>787</ele>
        <time>2021-08-07T09:03:49Z</time>
      </trkpt>
      <trkpt lat="45.03236" lon="3.61732">
        <ele>786.4</ele>
        <time>2021-08-07T09:03:51Z</time>
      </trkpt>
      <trkpt lat="45.03235" lon="3.61727">
        <ele>785.8</ele>
        <time>2021-08-07T09:03:53Z</time>
      </trkpt>
      <trkpt lat="45.03232" lon="3.61722">
        <ele>785.4</ele>
        <time>2021-08-07T09:03:55Z</time>
      </trkpt>
      <trkpt lat="45.0323" lon="3.61718">
        <ele>784.9</ele>
        <time>2021-08-07T09:03:57Z</time>
      </trkpt>
      <trkpt lat="45.03227" lon="3.61713">
        <ele>784.5</ele>
        <time>2021-08-07T09:03:59Z</time>
      </trkpt>
      <trkpt lat="45.03224" lon="3.61709">
        <ele>784.2</ele>
        <time>2021-08-07T09:04:01Z</time>
      </trkpt>
      <trkpt lat="45.03221" lon="3.61706">
        <ele>784</ele>
        <time>2021-08-07T09:04:03Z</time>
      </trkpt>
      <trkpt lat="45.03217" lon="3.61704">
        <ele>783.9</ele>
        <time>2021-08-07T09:04:05Z</time>
      </trkpt>
      <trkpt lat="45.03213" lon="3.61702">
        <ele>784</ele>
        <time>2021-08-07T09:04:07Z</time>
      </trkpt>
      <trkpt lat="45.0321" lon="3.61702">
        <ele>784.1</ele>
        <time>2021-08-07T09:04:09Z</time>
      </trkpt>
      <trkpt lat="45.03206" lon="3.61702">
        <ele>784.4</ele>
        <time>2021-08-07T09:04:11Z</time>
      </trkpt>
      <trkpt lat="45.03202" lon="3.61703">
        <ele>784.7</ele>
        <time>2021-08-07T09:04:13Z</time>
      </trkpt>
      <trkpt lat="45.03198" lon="3.61704">
        <ele>785.2</ele>
        <time>2021-08-07T09:04:15Z</time>
      </trkpt>
      <trkpt lat="45.03193" lon="3.61707">
        <ele>785.7</ele>
        <time>2021-08-07T09:04:17Z</time>
      </trkpt>
      <trkpt lat="45.0319" lon="3.61709">
        <ele>786.2</ele>
        <time>2021-08-07T09:04:19Z</time>
      </trkpt>
      <trkpt lat="45.03186" lon="3.61711">
        <ele>786.7</ele>
        <time>2021-08-07T09:04:21Z</time>
      </trkpt>
      <trkpt lat="45.03182" lon="3.61713">
        <ele>787.1</ele>
        <time>2021-08-07T09:04:23Z</time>
      </trkpt>
      <trkpt lat="45.03179" lon="3.61715">
        <ele>787.6</ele>
        <time>2021-08-07T09:04:25Z</time>
      </trkpt>
      <trkpt lat="45.03175" lon="3.61719">
        <ele>788.1</ele>
        <time>2021-08-07T09:04:27Z</time>
      </trkpt>
      <trkpt lat="45.03172" lon="3.61722">
        <ele>788.6</ele>
        <time>2021-08-07T09:04:29Z</time>
      </trkpt>
      <trkpt lat="45.03168" lon="3.61724">
        <ele>789.1</ele>
        <time>2021-08-07T09:04:31Z</time>
      </trkpt>
      <trkpt lat="45.03165" lon="3.61727">
        <ele>789.4</ele>
        <time>2021-08-07T09:04:33Z</time>
      </trkpt>
      <trkpt lat="45.03161" lon="3.61731">
        <ele>789.5</ele>
        <time>2021-08-07T09:04:35Z</time>
      </trkpt>
      <trkpt lat="45.03157" lon="3.61734">
        <ele>789.6</ele>
        <time>2021-08-07T09:04:37Z</time>
      </trkpt>
      <trkpt lat="45.03153" lon="3.61738">
        <ele>789.7</ele>
        <time>2021-08-07T09:04:39Z</time>
      </trkpt>
      <trkpt lat="45.03149" lon="3.61743">
        <ele>789.9</ele>
        <time>2021-08-07T09:04:41Z</time>
      </trkpt>
      <trkpt lat="45.03145" lon="3.61747">
        <ele>790.1</ele>
        <time>2021-08-07T09:04:43Z</time>
      </trkpt>
      <trkpt lat="45.03141" lon="3.61751">
        <ele>790.2</ele>
        <time>2021-08-07T09:04:45Z</time>
      </trkpt>
      <trkpt lat="45.03136" lon="3.61755">
        <ele>790.4</ele>
        <time>2021-08-07T09:04:47Z</time>
      </trkpt>
      <trkpt lat="45.03132" lon="3.6176">
        <ele>790.5</ele>
        <time>2021-08-07T09:04:49Z</time>
      </trkpt>
      <trkpt lat="45.03128" lon="3.61765">
        <ele>790.7</ele>
        <time>2021-08-07T09:04:51Z</time>
      </trkpt>
      <trkpt lat="45.03123" lon="3.6177">
        <ele>790.8</ele>
        <time>2021-08-07T09:04:53Z</time>
      </trkpt>
      <trkpt lat="45.03118" lon="3.61775">
        <ele>791</ele>
        <time>2021-08-07T09:04:55Z</time>
      </trkpt>
      <trkpt lat="45.03113" lon="3.6178">
        <ele>791.1</ele>
        <time>2021-08-07T09:04:57Z</time>
      </trkpt>
      <trkpt lat="45.03107" lon="3.61785">
        <ele>791.2</ele>
        <time>2021-08-07T09:04:59Z</time>
      </trkpt>
      <trkpt lat="45.03102" lon="3.6179">
        <ele>791.3</ele>
        <time>2021-08-07T09:05:01Z</time>
      </trkpt>
      <trkpt lat="45.03097" lon="3.61796">
        <ele>791.5</ele>
        <time>2021-08-07T09:05:03Z</time>
      </trkpt>
      <trkpt lat="45.03091" lon="3.61802">
        <ele>791.6</ele>
        <time>2021-08-07T09:05:05Z</time>
      </trkpt>
      <trkpt lat="45.03085" lon="3.61808">
        <ele>791.7</ele>
        <time>2021-08-07T09:05:07Z</time>
      </trkpt>
      <trkpt lat="45.03079" lon="3.61815">
        <ele>791.8</ele>
        <time>2021-08-07T09:05:09Z</time>
      </trkpt>
      <trkpt lat="45.03072" lon="3.61822">
        <ele>791.8</ele>
        <time>2021-08-07T09:05:11Z</time>
      </trkpt>
      <trkpt lat="45.03065" lon="3.61829">
        <ele>791.8</ele>
        <time>2021-08-07T09:05:13Z</time>
      </trkpt>
      <trkpt lat="45.03059" lon="3.61836">
        <ele>791.9</ele>
        <time>2021-08-07T09:05:15Z</time>
      </trkpt>
      <trkpt lat="45.03052" lon="3.61843">
        <ele>791.9</ele>
        <time>2021-08-07T09:05:17Z</time>
      </trkpt>
      <trkpt lat="45.03046" lon="3.61849">
        <ele>791.8</ele>
        <time>2021-08-07T09:05:19Z</time>
      </trkpt>
      <trkpt lat="45.03039" lon="3.61855">
        <ele>791.7</ele>
        <time>2021-08-07T09:05:21Z</time>
      </trkpt>
      <trkpt lat="45.03033" lon="3.61862">
        <ele>791.6</ele>
        <time>2021-08-07T09:05:23Z</time>
      </trkpt>
      <trkpt lat="45.03027" lon="3.61868">
        <ele>791.5</ele>
        <time>2021-08-07T09:05:25Z</time>
      </trkpt>
      <trkpt lat="45.03021" lon="3.61874">
        <ele>791.3</ele>
        <time>2021-08-07T09:05:27Z</time>
      </trkpt>
      <trkpt lat="45.03014" lon="3.61881">
        <ele>791.1</ele>
        <time>2021-08-07T09:05:29Z</time>
      </trkpt>
      <trkpt lat="45.03008" lon="3.61888">
        <ele>790.9</ele>
        <time>2021-08-07T09:05:31Z</time>
      </trkpt>
      <trkpt lat="45.03" lon="3.61895">
        <ele>790.5</ele>
        <time>2021-08-07T09:05:33Z</time>
      </trkpt>
      <trkpt lat="45.02992" lon="3.61903">
        <ele>790.4</ele>
        <time>2021-08-07T09:05:35Z</time>
      </trkpt>
      <trkpt lat="45.02985" lon="3.61911">
        <ele>790.4</ele>
        <time>2021-08-07T09:05:37Z</time>
      </trkpt>
      <trkpt lat="45.02977" lon="3.61919">
        <ele>790.6</ele>
        <time>2021-08-07T09:05:39Z</time>
      </trkpt>
      <trkpt lat="45.02969" lon="3.61928">
        <ele>790.8</ele>
        <time>2021-08-07T09:05:41Z</time>
      </trkpt>
      <trkpt lat="45.02961" lon="3.61936">
        <ele>790.9</ele>
        <time>2021-08-07T09:05:43Z</time>
      </trkpt>
      <trkpt lat="45.02953" lon="3.61944">
        <ele>791</ele>
        <time>2021-08-07T09:05:45Z</time>
      </trkpt>
      <trkpt lat="45.02944" lon="3.61953">
        <ele>791</ele>
        <time>2021-08-07T09:05:47Z</time>
      </trkpt>
      <trkpt lat="45.02936" lon="3.61962">
        <ele>791</ele>
        <time>2021-08-07T09:05:49Z</time>
      </trkpt>
      <trkpt lat="45.02928" lon="3.61971">
        <ele>790.9</ele>
        <time>2021-08-07T09:05:51Z</time>
      </trkpt>
      <trkpt lat="45.0292" lon="3.6198">
        <ele>790.8</ele>
        <time>2021-08-07T09:05:53Z</time>
      </trkpt>
      <trkpt lat="45.02912" lon="3.61987">
        <ele>790</ele>
        <time>2021-08-07T09:05:55Z</time>
      </trkpt>
      <trkpt lat="45.02905" lon="3.61994">
        <ele>788.9</ele>
        <time>2021-08-07T09:05:57Z</time>
      </trkpt>
      <trkpt lat="45.02898" lon="3.62001">
        <ele>787.8</ele>
        <time>2021-08-07T09:05:59Z</time>
      </trkpt>
      <trkpt lat="45.02891" lon="3.62008">
        <ele>786.4</ele>
        <time>2021-08-07T09:06:01Z</time>
      </trkpt>
      <trkpt lat="45.02884" lon="3.62015">
        <ele>785</ele>
        <time>2021-08-07T09:06:03Z</time>
      </trkpt>
      <trkpt lat="45.02878" lon="3.62022">
        <ele>783.5</ele>
        <time>2021-08-07T09:06:05Z</time>
      </trkpt>
      <trkpt lat="45.02872" lon="3.62028">
        <ele>781.9</ele>
        <time>2021-08-07T09:06:07Z</time>
      </trkpt>
      <trkpt lat="45.02865" lon="3.62035">
        <ele>780.3</ele>
        <time>2021-08-07T09:06:09Z</time>
      </trkpt>
      <trkpt lat="45.0286" lon="3.62043">
        <ele>778.8</ele>
        <time>2021-08-07T09:06:11Z</time>
      </trkpt>
      <trkpt lat="45.02856" lon="3.62054">
        <ele>777.5</ele>
        <time>2021-08-07T09:06:13Z</time>
      </trkpt>
      <trkpt lat="45.02854" lon="3.62065">
        <ele>776.9</ele>
        <time>2021-08-07T09:06:15Z</time>
      </trkpt>
      <trkpt lat="45.02853" lon="3.62074">
        <ele>776.4</ele>
        <time>2021-08-07T09:06:17Z</time>
      </trkpt>
      <trkpt lat="45.02852" lon="3.62084">
        <ele>776.1</ele>
        <time>2021-08-07T09:06:19Z</time>
      </trkpt>
      <trkpt lat="45.02851" lon="3.62094">
        <ele>775.4</ele>
        <time>2021-08-07T09:06:21Z</time>
      </trkpt>
      <trkpt lat="45.02851" lon="3.62102">
        <ele>774.9</ele>
        <time>2021-08-07T09:06:23Z</time>
      </trkpt>
      <trkpt lat="45.02851" lon="3.6211">
        <ele>774.5</ele>
        <time>2021-08-07T09:06:25Z</time>
      </trkpt>
      <trkpt lat="45.0285" lon="3.62118">
        <ele>773.7</ele>
        <time>2021-08-07T09:06:27Z</time>
      </trkpt>
      <trkpt lat="45.02849" lon="3.62126">
        <ele>773</ele>
        <time>2021-08-07T09:06:29Z</time>
      </trkpt>
      <trkpt lat="45.02849" lon="3.62133">
        <ele>772.4</ele>
        <time>2021-08-07T09:06:31Z</time>
      </trkpt>
      <trkpt lat="45.02848" lon="3.6214">
        <ele>771.7</ele>
        <time>2021-08-07T09:06:33Z</time>
      </trkpt>
      <trkpt lat="45.02847" lon="3.62147">
        <ele>771.1</ele>
        <time>2021-08-07T09:06:35Z</time>
      </trkpt>
      <trkpt lat="45.02847" lon="3.62154">
        <ele>770.7</ele>
        <time>2021-08-07T09:06:37Z</time>
      </trkpt>
      <trkpt lat="45.02847" lon="3.62162">
        <ele>770.1</ele>
        <time>2021-08-07T09:06:39Z</time>
      </trkpt>
      <trkpt lat="45.02846" lon="3.62169">
        <ele>769.5</ele>
        <time>2021-08-07T09:06:41Z</time>
      </trkpt>
      <trkpt lat="45.02846" lon="3.62175">
        <ele>769</ele>
        <time>2021-08-07T09:06:43Z</time>
      </trkpt>
      <trkpt lat="45.02846" lon="3.62181">
        <ele>768.5</ele>
        <time>2021-08-07T09:06:45Z</time>
      </trkpt>
      <trkpt lat="45.02845" lon="3.62187">
        <ele>768</ele>
        <time>2021-08-07T09:06:47Z</time>
      </trkpt>
      <trkpt lat="45.02845" lon="3.62189">
        <ele>767.8</ele>
        <time>2021-08-07T09:06:49Z</time>
      </trkpt>
      <trkpt lat="45.02844" lon="3.62189">
        <ele>767.5</ele>
        <time>2021-08-07T09:06:51Z</time>
      </trkpt>
      <trkpt lat="45.02844" lon="3.62189">
        <ele>767.5</ele>
        <time>2021-08-07T09:06:53Z</time>
      </trkpt>
      <trkpt lat="45.02844" lon="3.62189">
        <ele>767.5</ele>
        <time>2021-08-07T09:06:55Z</time>
      </trkpt>
      <trkpt lat="45.02844" lon="3.62189">
        <ele>767.5</ele>
        <time>2021-08-07T09:06:57Z</time>
      </trkpt>
      <trkpt lat="45.02845" lon="3.62208">
        <ele>766.6</ele>
        <time>2021-08-07T09:09:33Z</time>
      </trkpt>
      <trkpt lat="45.02846" lon="3.62217">
        <ele>766.8</ele>
        <time>2021-08-07T09:09:35Z</time>
      </trkpt>
      <trkpt lat="45.02848" lon="3.6223">
        <ele>767.1</ele>
        <time>2021-08-07T09:09:37Z</time>
      </trkpt>
      <trkpt lat="45.02851" lon="3.62244">
        <ele>767.5</ele>
        <time>2021-08-07T09:09:39Z</time>
      </trkpt>
      <trkpt lat="45.02854" lon="3.6226">
        <ele>768.2</ele>
        <time>2021-08-07T09:09:41Z</time>
      </trkpt>
      <trkpt lat="45.02857" lon="3.62278">
        <ele>769.1</ele>
        <time>2021-08-07T09:09:43Z</time>
      </trkpt>
      <trkpt lat="45.0286" lon="3.62295">
        <ele>769.9</ele>
        <time>2021-08-07T09:09:45Z</time>
      </trkpt>
      <trkpt lat="45.02862" lon="3.62312">
        <ele>770.2</ele>
        <time>2021-08-07T09:09:47Z</time>
      </trkpt>
      <trkpt lat="45.02862" lon="3.62329">
        <ele>769.9</ele>
        <time>2021-08-07T09:09:49Z</time>
      </trkpt>
      <trkpt lat="45.02861" lon="3.62348">
        <ele>769.4</ele>
        <time>2021-08-07T09:09:51Z</time>
      </trkpt>
      <trkpt lat="45.02859" lon="3.62367">
        <ele>768.9</ele>
        <time>2021-08-07T09:09:53Z</time>
      </trkpt>
      <trkpt lat="45.02856" lon="3.62385">
        <ele>768.1</ele>
        <time>2021-08-07T09:09:55Z</time>
      </trkpt>
      <trkpt lat="45.02853" lon="3.62406">
        <ele>767.4</ele>
        <time>2021-08-07T09:09:57Z</time>
      </trkpt>
      <trkpt lat="45.0285" lon="3.62425">
        <ele>767.4</ele>
        <time>2021-08-07T09:09:59Z</time>
      </trkpt>
      <trkpt lat="45.02847" lon="3.62445">
        <ele>767.9</ele>
        <time>2021-08-07T09:10:01Z</time>
      </trkpt>
      <trkpt lat="45.02845" lon="3.62464">
        <ele>768.5</ele>
        <time>2021-08-07T09:10:03Z</time>
      </trkpt>
      <trkpt lat="45.0284" lon="3.62481">
        <ele>768.1</ele>
        <time>2021-08-07T09:10:05Z</time>
      </trkpt>
      <trkpt lat="45.02833" lon="3.62493">
        <ele>766.3</ele>
        <time>2021-08-07T09:10:07Z</time>
      </trkpt>
      <trkpt lat="45.02822" lon="3.62496">
        <ele>768.9</ele>
        <time>2021-08-07T09:10:09Z</time>
      </trkpt>
      <trkpt lat="45.02812" lon="3.62493">
        <ele>770.6</ele>
        <time>2021-08-07T09:10:11Z</time>
      </trkpt>
      <trkpt lat="45.02803" lon="3.62487">
        <ele>771.4</ele>
        <time>2021-08-07T09:10:13Z</time>
      </trkpt>
      <trkpt lat="45.02797" lon="3.62479">
        <ele>771.1</ele>
        <time>2021-08-07T09:10:15Z</time>
      </trkpt>
      <trkpt lat="45.02792" lon="3.62472">
        <ele>770.5</ele>
        <time>2021-08-07T09:10:17Z</time>
      </trkpt>
      <trkpt lat="45.0279" lon="3.62466">
        <ele>769.8</ele>
        <time>2021-08-07T09:10:19Z</time>
      </trkpt>
      <trkpt lat="45.02788" lon="3.62461">
        <ele>769</ele>
        <time>2021-08-07T09:10:21Z</time>
      </trkpt>
      <trkpt lat="45.02786" lon="3.62456">
        <ele>768.3</ele>
        <time>2021-08-07T09:10:23Z</time>
      </trkpt>
      <trkpt lat="45.02783" lon="3.62451">
        <ele>767.7</ele>
        <time>2021-08-07T09:10:25Z</time>
      </trkpt>
      <trkpt lat="45.02779" lon="3.62447">
        <ele>767.1</ele>
        <time>2021-08-07T09:10:27Z</time>
      </trkpt>
      <trkpt lat="45.02775" lon="3.62442">
        <ele>766.5</ele>
        <time>2021-08-07T09:10:29Z</time>
      </trkpt>
      <trkpt lat="45.02771" lon="3.62439">
        <ele>766.2</ele>
        <time>2021-08-07T09:10:31Z</time>
      </trkpt>
      <trkpt lat="45.02766" lon="3.62436">
        <ele>766</ele>
        <time>2021-08-07T09:10:33Z</time>
      </trkpt>
      <trkpt lat="45.02761" lon="3.62434">
        <ele>765.8</ele>
        <time>2021-08-07T09:10:35Z</time>
      </trkpt>
      <trkpt lat="45.02756" lon="3.62431">
        <ele>765.5</ele>
        <time>2021-08-07T09:10:37Z</time>
      </trkpt>
      <trkpt lat="45.02752" lon="3.62428">
        <ele>765.1</ele>
        <time>2021-08-07T09:10:39Z</time>
      </trkpt>
      <trkpt lat="45.02747" lon="3.62426">
        <ele>765.5</ele>
        <time>2021-08-07T09:10:41Z</time>
      </trkpt>
      <trkpt lat="45.02743" lon="3.62423">
        <ele>766.2</ele>
        <time>2021-08-07T09:10:43Z</time>
      </trkpt>
      <trkpt lat="45.02739" lon="3.62421">
        <ele>767.2</ele>
        <time>2021-08-07T09:10:45Z</time>
      </trkpt>
      <trkpt lat="45.02736" lon="3.62418">
        <ele>767.7</ele>
        <time>2021-08-07T09:10:47Z</time>
      </trkpt>
      <trkpt lat="45.02732" lon="3.62415">
        <ele>768.4</ele>
        <time>2021-08-07T09:10:49Z</time>
      </trkpt>
      <trkpt lat="45.02728" lon="3.62413">
        <ele>769.1</ele>
        <time>2021-08-07T09:10:51Z</time>
      </trkpt>
      <trkpt lat="45.02724" lon="3.62411">
        <ele>769.9</ele>
        <time>2021-08-07T09:10:53Z</time>
      </trkpt>
      <trkpt lat="45.0272" lon="3.62408">
        <ele>770.5</ele>
        <time>2021-08-07T09:10:55Z</time>
      </trkpt>
      <trkpt lat="45.02716" lon="3.62407">
        <ele>771.3</ele>
        <time>2021-08-07T09:10:57Z</time>
      </trkpt>
      <trkpt lat="45.02713" lon="3.62404">
        <ele>771.7</ele>
        <time>2021-08-07T09:10:59Z</time>
      </trkpt>
      <trkpt lat="45.02709" lon="3.62402">
        <ele>772.3</ele>
        <time>2021-08-07T09:11:01Z</time>
      </trkpt>
      <trkpt lat="45.02706" lon="3.624">
        <ele>772.9</ele>
        <time>2021-08-07T09:11:03Z</time>
      </trkpt>
      <trkpt lat="45.02702" lon="3.62398">
        <ele>773.3</ele>
        <time>2021-08-07T09:11:05Z</time>
      </trkpt>
      <trkpt lat="45.02698" lon="3.62396">
        <ele>774.1</ele>
        <time>2021-08-07T09:11:07Z</time>
      </trkpt>
      <trkpt lat="45.02695" lon="3.62394">
        <ele>774.5</ele>
        <time>2021-08-07T09:11:09Z</time>
      </trkpt>
      <trkpt lat="45.02692" lon="3.62391">
        <ele>774.7</ele>
        <time>2021-08-07T09:11:11Z</time>
      </trkpt>
      <trkpt lat="45.02688" lon="3.6239">
        <ele>775.5</ele>
        <time>2021-08-07T09:11:13Z</time>
      </trkpt>
      <trkpt lat="45.02685" lon="3.62387">
        <ele>775.9</ele>
        <time>2021-08-07T09:11:15Z</time>
      </trkpt>
      <trkpt lat="45.02681" lon="3.62385">
        <ele>776.4</ele>
        <time>2021-08-07T09:11:17Z</time>
      </trkpt>
      <trkpt lat="45.02677" lon="3.62382">
        <ele>776.5</ele>
        <time>2021-08-07T09:11:19Z</time>
      </trkpt>
      <trkpt lat="45.02674" lon="3.6238">
        <ele>776.8</ele>
        <time>2021-08-07T09:11:21Z</time>
      </trkpt>
      <trkpt lat="45.02671" lon="3.62378">
        <ele>777.1</ele>
        <time>2021-08-07T09:11:23Z</time>
      </trkpt>
      <trkpt lat="45.02668" lon="3.62375">
        <ele>777.3</ele>
        <time>2021-08-07T09:11:25Z</time>
      </trkpt>
      <trkpt lat="45.02664" lon="3.62372">
        <ele>776.8</ele>
        <time>2021-08-07T09:11:27Z</time>
      </trkpt>
      <trkpt lat="45.02662" lon="3.6237">
        <ele>776.6</ele>
        <time>2021-08-07T09:11:29Z</time>
      </trkpt>
      <trkpt lat="45.02659" lon="3.62368">
        <ele>776.2</ele>
        <time>2021-08-07T09:11:31Z</time>
      </trkpt>
      <trkpt lat="45.02655" lon="3.62365">
        <ele>776</ele>
        <time>2021-08-07T09:11:33Z</time>
      </trkpt>
      <trkpt lat="45.02652" lon="3.62362">
        <ele>775.7</ele>
        <time>2021-08-07T09:11:35Z</time>
      </trkpt>
      <trkpt lat="45.02648" lon="3.6236">
        <ele>775.6</ele>
        <time>2021-08-07T09:11:37Z</time>
      </trkpt>
      <trkpt lat="45.02645" lon="3.62357">
        <ele>775.3</ele>
        <time>2021-08-07T09:11:39Z</time>
      </trkpt>
      <trkpt lat="45.02641" lon="3.62355">
        <ele>775.2</ele>
        <time>2021-08-07T09:11:41Z</time>
      </trkpt>
      <trkpt lat="45.02638" lon="3.62351">
        <ele>774.9</ele>
        <time>2021-08-07T09:11:43Z</time>
      </trkpt>
      <trkpt lat="45.02635" lon="3.62349">
        <ele>774.9</ele>
        <time>2021-08-07T09:11:45Z</time>
      </trkpt>
      <trkpt lat="45.02631" lon="3.62347">
        <ele>774.9</ele>
        <time>2021-08-07T09:11:47Z</time>
      </trkpt>
      <trkpt lat="45.02628" lon="3.62343">
        <ele>774.5</ele>
        <time>2021-08-07T09:11:49Z</time>
      </trkpt>
      <trkpt lat="45.02625" lon="3.6234">
        <ele>774.5</ele>
        <time>2021-08-07T09:11:51Z</time>
      </trkpt>
      <trkpt lat="45.02622" lon="3.62337">
        <ele>774.4</ele>
        <time>2021-08-07T09:11:53Z</time>
      </trkpt>
      <trkpt lat="45.02619" lon="3.62334">
        <ele>774.4</ele>
        <time>2021-08-07T09:11:55Z</time>
      </trkpt>
      <trkpt lat="45.02615" lon="3.6233">
        <ele>774.1</ele>
        <time>2021-08-07T09:11:57Z</time>
      </trkpt>
      <trkpt lat="45.02612" lon="3.62327">
        <ele>774.1</ele>
        <time>2021-08-07T09:11:59Z</time>
      </trkpt>
      <trkpt lat="45.02609" lon="3.62323">
        <ele>774</ele>
        <time>2021-08-07T09:12:01Z</time>
      </trkpt>
      <trkpt lat="45.02606" lon="3.6232">
        <ele>774.2</ele>
        <time>2021-08-07T09:12:03Z</time>
      </trkpt>
      <trkpt lat="45.02602" lon="3.62317">
        <ele>774.2</ele>
        <time>2021-08-07T09:12:05Z</time>
      </trkpt>
      <trkpt lat="45.02598" lon="3.62312">
        <ele>774.3</ele>
        <time>2021-08-07T09:12:07Z</time>
      </trkpt>
      <trkpt lat="45.02593" lon="3.62308">
        <ele>774.5</ele>
        <time>2021-08-07T09:12:09Z</time>
      </trkpt>
      <trkpt lat="45.02588" lon="3.62304">
        <ele>774.9</ele>
        <time>2021-08-07T09:12:11Z</time>
      </trkpt>
      <trkpt lat="45.02583" lon="3.62299">
        <ele>775.2</ele>
        <time>2021-08-07T09:12:13Z</time>
      </trkpt>
      <trkpt lat="45.02577" lon="3.62295">
        <ele>774.4</ele>
        <time>2021-08-07T09:12:15Z</time>
      </trkpt>
      <trkpt lat="45.02572" lon="3.62291">
        <ele>773.5</ele>
        <time>2021-08-07T09:12:17Z</time>
      </trkpt>
      <trkpt lat="45.02567" lon="3.62287">
        <ele>772.7</ele>
        <time>2021-08-07T09:12:19Z</time>
      </trkpt>
      <trkpt lat="45.02562" lon="3.62283">
        <ele>772.1</ele>
        <time>2021-08-07T09:12:21Z</time>
      </trkpt>
      <trkpt lat="45.02557" lon="3.6228">
        <ele>771.6</ele>
        <time>2021-08-07T09:12:23Z</time>
      </trkpt>
      <trkpt lat="45.02551" lon="3.62277">
        <ele>771.2</ele>
        <time>2021-08-07T09:12:25Z</time>
      </trkpt>
      <trkpt lat="45.02544" lon="3.62274">
        <ele>770.9</ele>
        <time>2021-08-07T09:12:27Z</time>
      </trkpt>
      <trkpt lat="45.02537" lon="3.62272">
        <ele>770.9</ele>
        <time>2021-08-07T09:12:29Z</time>
      </trkpt>
      <trkpt lat="45.02529" lon="3.6227">
        <ele>770.9</ele>
        <time>2021-08-07T09:12:31Z</time>
      </trkpt>
      <trkpt lat="45.0252" lon="3.62267">
        <ele>770.8</ele>
        <time>2021-08-07T09:12:33Z</time>
      </trkpt>
      <trkpt lat="45.0251" lon="3.62263">
        <ele>770.8</ele>
        <time>2021-08-07T09:12:35Z</time>
      </trkpt>
      <trkpt lat="45.025" lon="3.6226">
        <ele>771</ele>
        <time>2021-08-07T09:12:37Z</time>
      </trkpt>
      <trkpt lat="45.02489" lon="3.62259">
        <ele>769.4</ele>
        <time>2021-08-07T09:12:39Z</time>
      </trkpt>
      <trkpt lat="45.02479" lon="3.6226">
        <ele>767.9</ele>
        <time>2021-08-07T09:12:41Z</time>
      </trkpt>
      <trkpt lat="45.02467" lon="3.62264">
        <ele>766.9</ele>
        <time>2021-08-07T09:12:43Z</time>
      </trkpt>
      <trkpt lat="45.02454" lon="3.62269">
        <ele>765.9</ele>
        <time>2021-08-07T09:12:45Z</time>
      </trkpt>
      <trkpt lat="45.0244" lon="3.62274">
        <ele>764.9</ele>
        <time>2021-08-07T09:12:47Z</time>
      </trkpt>
      <trkpt lat="45.02427" lon="3.62279">
        <ele>764.1</ele>
        <time>2021-08-07T09:12:49Z</time>
      </trkpt>
      <trkpt lat="45.02413" lon="3.62283">
        <ele>763.5</ele>
        <time>2021-08-07T09:12:51Z</time>
      </trkpt>
      <trkpt lat="45.02401" lon="3.62288">
        <ele>763.3</ele>
        <time>2021-08-07T09:12:53Z</time>
      </trkpt>
      <trkpt lat="45.02389" lon="3.62291">
        <ele>762.8</ele>
        <time>2021-08-07T09:12:55Z</time>
      </trkpt>
      <trkpt lat="45.02377" lon="3.62294">
        <ele>762.4</ele>
        <time>2021-08-07T09:12:57Z</time>
      </trkpt>
      <trkpt lat="45.02366" lon="3.62297">
        <ele>761.9</ele>
        <time>2021-08-07T09:12:59Z</time>
      </trkpt>
      <trkpt lat="45.02355" lon="3.623">
        <ele>761.5</ele>
        <time>2021-08-07T09:13:01Z</time>
      </trkpt>
      <trkpt lat="45.02345" lon="3.62303">
        <ele>761.2</ele>
        <time>2021-08-07T09:13:03Z</time>
      </trkpt>
      <trkpt lat="45.02334" lon="3.62307">
        <ele>761</ele>
        <time>2021-08-07T09:13:05Z</time>
      </trkpt>
      <trkpt lat="45.02323" lon="3.62311">
        <ele>760.5</ele>
        <time>2021-08-07T09:13:07Z</time>
      </trkpt>
      <trkpt lat="45.02311" lon="3.62316">
        <ele>760</ele>
        <time>2021-08-07T09:13:09Z</time>
      </trkpt>
      <trkpt lat="45.02301" lon="3.6232">
        <ele>759.5</ele>
        <time>2021-08-07T09:13:11Z</time>
      </trkpt>
      <trkpt lat="45.02291" lon="3.62324">
        <ele>758.9</ele>
        <time>2021-08-07T09:13:13Z</time>
      </trkpt>
      <trkpt lat="45.02281" lon="3.6233">
        <ele>758.6</ele>
        <time>2021-08-07T09:13:15Z</time>
      </trkpt>
      <trkpt lat="45.02271" lon="3.62338">
        <ele>758.1</ele>
        <time>2021-08-07T09:13:17Z</time>
      </trkpt>
      <trkpt lat="45.02261" lon="3.62348">
        <ele>757.6</ele>
        <time>2021-08-07T09:13:19Z</time>
      </trkpt>
      <trkpt lat="45.02253" lon="3.62362">
        <ele>757.5</ele>
        <time>2021-08-07T09:13:21Z</time>
      </trkpt>
      <trkpt lat="45.02246" lon="3.62373">
        <ele>757</ele>
        <time>2021-08-07T09:13:23Z</time>
      </trkpt>
      <trkpt lat="45.02237" lon="3.62382">
        <ele>755.6</ele>
        <time>2021-08-07T09:13:25Z</time>
      </trkpt>
      <trkpt lat="45.02227" lon="3.6239">
        <ele>754</ele>
        <time>2021-08-07T09:13:27Z</time>
      </trkpt>
      <trkpt lat="45.02216" lon="3.62398">
        <ele>752.3</ele>
        <time>2021-08-07T09:13:29Z</time>
      </trkpt>
      <trkpt lat="45.02207" lon="3.62408">
        <ele>751</ele>
        <time>2021-08-07T09:13:31Z</time>
      </trkpt>
      <trkpt lat="45.02198" lon="3.62422">
        <ele>750</ele>
        <time>2021-08-07T09:13:33Z</time>
      </trkpt>
      <trkpt lat="45.02189" lon="3.62438">
        <ele>748.9</ele>
        <time>2021-08-07T09:13:35Z</time>
      </trkpt>
      <trkpt lat="45.0218" lon="3.62454">
        <ele>747.6</ele>
        <time>2021-08-07T09:13:37Z</time>
      </trkpt>
      <trkpt lat="45.02172" lon="3.6247">
        <ele>746.2</ele>
        <time>2021-08-07T09:13:39Z</time>
      </trkpt>
      <trkpt lat="45.02164" lon="3.62487">
        <ele>744.4</ele>
        <time>2021-08-07T09:13:41Z</time>
      </trkpt>
      <trkpt lat="45.02158" lon="3.62506">
        <ele>742.5</ele>
        <time>2021-08-07T09:13:43Z</time>
      </trkpt>
      <trkpt lat="45.02154" lon="3.62525">
        <ele>741.1</ele>
        <time>2021-08-07T09:13:45Z</time>
      </trkpt>
      <trkpt lat="45.02151" lon="3.62543">
        <ele>740.1</ele>
        <time>2021-08-07T09:13:47Z</time>
      </trkpt>
      <trkpt lat="45.02148" lon="3.62564">
        <ele>738.9</ele>
        <time>2021-08-07T09:13:49Z</time>
      </trkpt>
      <trkpt lat="45.02146" lon="3.62585">
        <ele>737.8</ele>
        <time>2021-08-07T09:13:51Z</time>
      </trkpt>
      <trkpt lat="45.02143" lon="3.62605">
        <ele>738.1</ele>
        <time>2021-08-07T09:13:53Z</time>
      </trkpt>
      <trkpt lat="45.02141" lon="3.62624">
        <ele>738.3</ele>
        <time>2021-08-07T09:13:55Z</time>
      </trkpt>
      <trkpt lat="45.02138" lon="3.62642">
        <ele>738.3</ele>
        <time>2021-08-07T09:13:57Z</time>
      </trkpt>
      <trkpt lat="45.02135" lon="3.62662">
        <ele>738.5</ele>
        <time>2021-08-07T09:13:59Z</time>
      </trkpt>
      <trkpt lat="45.02133" lon="3.62681">
        <ele>738.1</ele>
        <time>2021-08-07T09:14:01Z</time>
      </trkpt>
      <trkpt lat="45.0213" lon="3.62699">
        <ele>737.5</ele>
        <time>2021-08-07T09:14:03Z</time>
      </trkpt>
      <trkpt lat="45.02127" lon="3.62718">
        <ele>737.1</ele>
        <time>2021-08-07T09:14:05Z</time>
      </trkpt>
      <trkpt lat="45.02125" lon="3.62737">
        <ele>736.9</ele>
        <time>2021-08-07T09:14:07Z</time>
      </trkpt>
      <trkpt lat="45.02124" lon="3.62756">
        <ele>737.8</ele>
        <time>2021-08-07T09:14:09Z</time>
      </trkpt>
      <trkpt lat="45.02124" lon="3.62775">
        <ele>740.6</ele>
        <time>2021-08-07T09:14:11Z</time>
      </trkpt>
      <trkpt lat="45.02124" lon="3.62793">
        <ele>742.8</ele>
        <time>2021-08-07T09:14:13Z</time>
      </trkpt>
      <trkpt lat="45.02118" lon="3.6281">
        <ele>744.1</ele>
        <time>2021-08-07T09:14:15Z</time>
      </trkpt>
      <trkpt lat="45.02109" lon="3.62823">
        <ele>744.6</ele>
        <time>2021-08-07T09:14:17Z</time>
      </trkpt>
      <trkpt lat="45.02098" lon="3.62828">
        <ele>743.9</ele>
        <time>2021-08-07T09:14:19Z</time>
      </trkpt>
      <trkpt lat="45.02088" lon="3.6283">
        <ele>742.8</ele>
        <time>2021-08-07T09:14:21Z</time>
      </trkpt>
      <trkpt lat="45.02078" lon="3.62829">
        <ele>741.7</ele>
        <time>2021-08-07T09:14:23Z</time>
      </trkpt>
      <trkpt lat="45.02068" lon="3.62827">
        <ele>741</ele>
        <time>2021-08-07T09:14:25Z</time>
      </trkpt>
      <trkpt lat="45.0206" lon="3.62826">
        <ele>740.3</ele>
        <time>2021-08-07T09:14:27Z</time>
      </trkpt>
      <trkpt lat="45.02052" lon="3.62826">
        <ele>739.9</ele>
        <time>2021-08-07T09:14:29Z</time>
      </trkpt>
      <trkpt lat="45.02044" lon="3.62827">
        <ele>740.1</ele>
        <time>2021-08-07T09:14:31Z</time>
      </trkpt>
      <trkpt lat="45.02038" lon="3.6283">
        <ele>740.7</ele>
        <time>2021-08-07T09:14:33Z</time>
      </trkpt>
      <trkpt lat="45.0203" lon="3.62831">
        <ele>740.9</ele>
        <time>2021-08-07T09:14:35Z</time>
      </trkpt>
      <trkpt lat="45.02023" lon="3.62833">
        <ele>741.5</ele>
        <time>2021-08-07T09:14:37Z</time>
      </trkpt>
      <trkpt lat="45.02016" lon="3.62835">
        <ele>741.9</ele>
        <time>2021-08-07T09:14:39Z</time>
      </trkpt>
      <trkpt lat="45.0201" lon="3.62835">
        <ele>742</ele>
        <time>2021-08-07T09:14:41Z</time>
      </trkpt>
      <trkpt lat="45.02003" lon="3.62835">
        <ele>741.6</ele>
        <time>2021-08-07T09:14:43Z</time>
      </trkpt>
      <trkpt lat="45.01996" lon="3.62833">
        <ele>740.5</ele>
        <time>2021-08-07T09:14:45Z</time>
      </trkpt>
      <trkpt lat="45.01989" lon="3.62831">
        <ele>739.1</ele>
        <time>2021-08-07T09:14:47Z</time>
      </trkpt>
      <trkpt lat="45.01983" lon="3.6283">
        <ele>737.9</ele>
        <time>2021-08-07T09:14:49Z</time>
      </trkpt>
      <trkpt lat="45.01977" lon="3.62829">
        <ele>737</ele>
        <time>2021-08-07T09:14:51Z</time>
      </trkpt>
      <trkpt lat="45.0197" lon="3.62828">
        <ele>735.8</ele>
        <time>2021-08-07T09:14:53Z</time>
      </trkpt>
      <trkpt lat="45.01964" lon="3.62827">
        <ele>734.6</ele>
        <time>2021-08-07T09:14:55Z</time>
      </trkpt>
      <trkpt lat="45.01957" lon="3.62826">
        <ele>733.6</ele>
        <time>2021-08-07T09:14:57Z</time>
      </trkpt>
      <trkpt lat="45.0195" lon="3.62824">
        <ele>732.2</ele>
        <time>2021-08-07T09:14:59Z</time>
      </trkpt>
      <trkpt lat="45.01942" lon="3.62823">
        <ele>731.1</ele>
        <time>2021-08-07T09:15:01Z</time>
      </trkpt>
      <trkpt lat="45.01934" lon="3.62825">
        <ele>730.8</ele>
        <time>2021-08-07T09:15:03Z</time>
      </trkpt>
      <trkpt lat="45.01928" lon="3.62829">
        <ele>731.7</ele>
        <time>2021-08-07T09:15:05Z</time>
      </trkpt>
      <trkpt lat="45.01921" lon="3.62833">
        <ele>732.5</ele>
        <time>2021-08-07T09:15:07Z</time>
      </trkpt>
      <trkpt lat="45.01917" lon="3.62839">
        <ele>733.6</ele>
        <time>2021-08-07T09:15:09Z</time>
      </trkpt>
      <trkpt lat="45.01913" lon="3.62846">
        <ele>734.4</ele>
        <time>2021-08-07T09:15:11Z</time>
      </trkpt>
      <trkpt lat="45.0191" lon="3.62853">
        <ele>735.4</ele>
        <time>2021-08-07T09:15:13Z</time>
      </trkpt>
      <trkpt lat="45.01907" lon="3.62861">
        <ele>736.4</ele>
        <time>2021-08-07T09:15:15Z</time>
      </trkpt>
      <trkpt lat="45.01903" lon="3.62868">
        <ele>737.2</ele>
        <time>2021-08-07T09:15:17Z</time>
      </trkpt>
      <trkpt lat="45.01899" lon="3.62875">
        <ele>737.6</ele>
        <time>2021-08-07T09:15:19Z</time>
      </trkpt>
      <trkpt lat="45.01893" lon="3.62883">
        <ele>737.9</ele>
        <time>2021-08-07T09:15:21Z</time>
      </trkpt>
      <trkpt lat="45.01888" lon="3.62891">
        <ele>738.4</ele>
        <time>2021-08-07T09:15:23Z</time>
      </trkpt>
      <trkpt lat="45.01883" lon="3.62898">
        <ele>738.3</ele>
        <time>2021-08-07T09:15:25Z</time>
      </trkpt>
      <trkpt lat="45.01877" lon="3.62906">
        <ele>738.2</ele>
        <time>2021-08-07T09:15:27Z</time>
      </trkpt>
      <trkpt lat="45.01872" lon="3.62913">
        <ele>738.7</ele>
        <time>2021-08-07T09:15:29Z</time>
      </trkpt>
      <trkpt lat="45.01867" lon="3.6292">
        <ele>739.1</ele>
        <time>2021-08-07T09:15:31Z</time>
      </trkpt>
      <trkpt lat="45.01862" lon="3.62927">
        <ele>739.8</ele>
        <time>2021-08-07T09:15:33Z</time>
      </trkpt>
      <trkpt lat="45.01856" lon="3.62934">
        <ele>740.2</ele>
        <time>2021-08-07T09:15:35Z</time>
      </trkpt>
      <trkpt lat="45.0185" lon="3.6294">
        <ele>740.4</ele>
        <time>2021-08-07T09:15:37Z</time>
      </trkpt>
      <trkpt lat="45.01842" lon="3.62944">
        <ele>738.9</ele>
        <time>2021-08-07T09:15:39Z</time>
      </trkpt>
      <trkpt lat="45.01835" lon="3.62949">
        <ele>738.3</ele>
        <time>2021-08-07T09:15:41Z</time>
      </trkpt>
      <trkpt lat="45.01828" lon="3.62953">
        <ele>738</ele>
        <time>2021-08-07T09:15:43Z</time>
      </trkpt>
      <trkpt lat="45.01822" lon="3.62957">
        <ele>737.8</ele>
        <time>2021-08-07T09:15:45Z</time>
      </trkpt>
      <trkpt lat="45.01816" lon="3.62959">
        <ele>737.3</ele>
        <time>2021-08-07T09:15:47Z</time>
      </trkpt>
      <trkpt lat="45.0181" lon="3.6296">
        <ele>736.3</ele>
        <time>2021-08-07T09:15:49Z</time>
      </trkpt>
      <trkpt lat="45.01804" lon="3.62963">
        <ele>735.8</ele>
        <time>2021-08-07T09:15:51Z</time>
      </trkpt>
      <trkpt lat="45.01797" lon="3.62965">
        <ele>735</ele>
        <time>2021-08-07T09:15:53Z</time>
      </trkpt>
      <trkpt lat="45.0179" lon="3.62968">
        <ele>734.1</ele>
        <time>2021-08-07T09:15:55Z</time>
      </trkpt>
      <trkpt lat="45.01783" lon="3.62971">
        <ele>733.6</ele>
        <time>2021-08-07T09:15:57Z</time>
      </trkpt>
      <trkpt lat="45.01776" lon="3.62975">
        <ele>733.4</ele>
        <time>2021-08-07T09:15:59Z</time>
      </trkpt>
      <trkpt lat="45.0177" lon="3.62979">
        <ele>733.1</ele>
        <time>2021-08-07T09:16:01Z</time>
      </trkpt>
      <trkpt lat="45.01763" lon="3.62983">
        <ele>733</ele>
        <time>2021-08-07T09:16:03Z</time>
      </trkpt>
      <trkpt lat="45.01757" lon="3.62987">
        <ele>732.7</ele>
        <time>2021-08-07T09:16:05Z</time>
      </trkpt>
      <trkpt lat="45.01752" lon="3.62991">
        <ele>732.7</ele>
        <time>2021-08-07T09:16:07Z</time>
      </trkpt>
      <trkpt lat="45.01748" lon="3.62995">
        <ele>732.6</ele>
        <time>2021-08-07T09:16:09Z</time>
      </trkpt>
      <trkpt lat="45.01742" lon="3.62999">
        <ele>732.1</ele>
        <time>2021-08-07T09:16:11Z</time>
      </trkpt>
      <trkpt lat="45.01737" lon="3.63004">
        <ele>731.3</ele>
        <time>2021-08-07T09:16:13Z</time>
      </trkpt>
      <trkpt lat="45.01732" lon="3.6301">
        <ele>730.8</ele>
        <time>2021-08-07T09:16:15Z</time>
      </trkpt>
      <trkpt lat="45.01728" lon="3.63015">
        <ele>730.7</ele>
        <time>2021-08-07T09:16:17Z</time>
      </trkpt>
      <trkpt lat="45.01724" lon="3.63021">
        <ele>730.5</ele>
        <time>2021-08-07T09:16:19Z</time>
      </trkpt>
      <trkpt lat="45.01719" lon="3.63027">
        <ele>730.2</ele>
        <time>2021-08-07T09:16:21Z</time>
      </trkpt>
      <trkpt lat="45.01715" lon="3.63035">
        <ele>730.1</ele>
        <time>2021-08-07T09:16:23Z</time>
      </trkpt>
      <trkpt lat="45.01711" lon="3.63043">
        <ele>730.4</ele>
        <time>2021-08-07T09:16:25Z</time>
      </trkpt>
      <trkpt lat="45.01709" lon="3.63052">
        <ele>731.3</ele>
        <time>2021-08-07T09:16:27Z</time>
      </trkpt>
      <trkpt lat="45.01708" lon="3.63062">
        <ele>732.6</ele>
        <time>2021-08-07T09:16:29Z</time>
      </trkpt>
      <trkpt lat="45.01707" lon="3.63071">
        <ele>734</ele>
        <time>2021-08-07T09:16:31Z</time>
      </trkpt>
      <trkpt lat="45.01707" lon="3.6308">
        <ele>735.8</ele>
        <time>2021-08-07T09:16:33Z</time>
      </trkpt>
      <trkpt lat="45.01708" lon="3.63089">
        <ele>737.2</ele>
        <time>2021-08-07T09:16:35Z</time>
      </trkpt>
      <trkpt lat="45.01709" lon="3.63097">
        <ele>738.3</ele>
        <time>2021-08-07T09:16:37Z</time>
      </trkpt>
      <trkpt lat="45.0171" lon="3.63105">
        <ele>739.5</ele>
        <time>2021-08-07T09:16:39Z</time>
      </trkpt>
      <trkpt lat="45.01712" lon="3.63112">
        <ele>740.7</ele>
        <time>2021-08-07T09:16:41Z</time>
      </trkpt>
      <trkpt lat="45.01714" lon="3.63119">
        <ele>741.9</ele>
        <time>2021-08-07T09:16:43Z</time>
      </trkpt>
      <trkpt lat="45.01715" lon="3.63126">
        <ele>743</ele>
        <time>2021-08-07T09:16:45Z</time>
      </trkpt>
      <trkpt lat="45.01717" lon="3.63134">
        <ele>744.2</ele>
        <time>2021-08-07T09:16:47Z</time>
      </trkpt>
      <trkpt lat="45.01719" lon="3.63142">
        <ele>745.3</ele>
        <time>2021-08-07T09:16:49Z</time>
      </trkpt>
      <trkpt lat="45.01721" lon="3.63148">
        <ele>746.3</ele>
        <time>2021-08-07T09:16:51Z</time>
      </trkpt>
      <trkpt lat="45.01722" lon="3.63155">
        <ele>747.2</ele>
        <time>2021-08-07T09:16:53Z</time>
      </trkpt>
      <trkpt lat="45.01723" lon="3.63162">
        <ele>748.1</ele>
        <time>2021-08-07T09:16:55Z</time>
      </trkpt>
      <trkpt lat="45.01725" lon="3.63169">
        <ele>749.2</ele>
        <time>2021-08-07T09:16:57Z</time>
      </trkpt>
      <trkpt lat="45.01726" lon="3.63176">
        <ele>750.7</ele>
        <time>2021-08-07T09:16:59Z</time>
      </trkpt>
      <trkpt lat="45.01727" lon="3.63183">
        <ele>752.2</ele>
        <time>2021-08-07T09:17:01Z</time>
      </trkpt>
      <trkpt lat="45.01728" lon="3.63189">
        <ele>753.5</ele>
        <time>2021-08-07T09:17:03Z</time>
      </trkpt>
      <trkpt lat="45.01729" lon="3.63196">
        <ele>754.9</ele>
        <time>2021-08-07T09:17:05Z</time>
      </trkpt>
      <trkpt lat="45.01729" lon="3.63202">
        <ele>756.1</ele>
        <time>2021-08-07T09:17:07Z</time>
      </trkpt>
      <trkpt lat="45.01729" lon="3.63209">
        <ele>757.3</ele>
        <time>2021-08-07T09:17:09Z</time>
      </trkpt>
      <trkpt lat="45.01729" lon="3.63215">
        <ele>758.4</ele>
        <time>2021-08-07T09:17:11Z</time>
      </trkpt>
      <trkpt lat="45.01729" lon="3.63222">
        <ele>759.5</ele>
        <time>2021-08-07T09:17:13Z</time>
      </trkpt>
      <trkpt lat="45.01728" lon="3.63229">
        <ele>760.3</ele>
        <time>2021-08-07T09:17:15Z</time>
      </trkpt>
      <trkpt lat="45.01726" lon="3.63235">
        <ele>761</ele>
        <time>2021-08-07T09:17:17Z</time>
      </trkpt>
      <trkpt lat="45.01724" lon="3.6324">
        <ele>761.6</ele>
        <time>2021-08-07T09:17:19Z</time>
      </trkpt>
      <trkpt lat="45.01722" lon="3.63246">
        <ele>762.2</ele>
        <time>2021-08-07T09:17:21Z</time>
      </trkpt>
      <trkpt lat="45.01719" lon="3.63251">
        <ele>762.7</ele>
        <time>2021-08-07T09:17:23Z</time>
      </trkpt>
      <trkpt lat="45.01715" lon="3.63256">
        <ele>763.4</ele>
        <time>2021-08-07T09:17:25Z</time>
      </trkpt>
      <trkpt lat="45.01711" lon="3.63261">
        <ele>763.9</ele>
        <time>2021-08-07T09:17:27Z</time>
      </trkpt>
      <trkpt lat="45.01707" lon="3.63264">
        <ele>764</ele>
        <time>2021-08-07T09:17:29Z</time>
      </trkpt>
      <trkpt lat="45.01702" lon="3.63268">
        <ele>764</ele>
        <time>2021-08-07T09:17:31Z</time>
      </trkpt>
      <trkpt lat="45.01696" lon="3.6327">
        <ele>763.7</ele>
        <time>2021-08-07T09:17:33Z</time>
      </trkpt>
      <trkpt lat="45.01691" lon="3.63272">
        <ele>763.3</ele>
        <time>2021-08-07T09:17:35Z</time>
      </trkpt>
      <trkpt lat="45.01685" lon="3.63272">
        <ele>762.4</ele>
        <time>2021-08-07T09:17:37Z</time>
      </trkpt>
      <trkpt lat="45.01679" lon="3.63268">
        <ele>760.5</ele>
        <time>2021-08-07T09:17:39Z</time>
      </trkpt>
      <trkpt lat="45.01674" lon="3.63263">
        <ele>758.1</ele>
        <time>2021-08-07T09:17:41Z</time>
      </trkpt>
      <trkpt lat="45.01671" lon="3.63256">
        <ele>755.4</ele>
        <time>2021-08-07T09:17:43Z</time>
      </trkpt>
      <trkpt lat="45.01668" lon="3.63249">
        <ele>752.8</ele>
        <time>2021-08-07T09:17:45Z</time>
      </trkpt>
      <trkpt lat="45.01665" lon="3.6324">
        <ele>750.3</ele>
        <time>2021-08-07T09:17:47Z</time>
      </trkpt>
      <trkpt lat="45.01662" lon="3.63231">
        <ele>747.9</ele>
        <time>2021-08-07T09:17:49Z</time>
      </trkpt>
      <trkpt lat="45.01657" lon="3.63222">
        <ele>745.4</ele>
        <time>2021-08-07T09:17:51Z</time>
      </trkpt>
      <trkpt lat="45.01654" lon="3.63215">
        <ele>743.2</ele>
        <time>2021-08-07T09:17:53Z</time>
      </trkpt>
      <trkpt lat="45.01649" lon="3.63208">
        <ele>741.2</ele>
        <time>2021-08-07T09:17:55Z</time>
      </trkpt>
      <trkpt lat="45.01644" lon="3.63203">
        <ele>739.5</ele>
        <time>2021-08-07T09:17:57Z</time>
      </trkpt>
      <trkpt lat="45.01638" lon="3.63199">
        <ele>738</ele>
        <time>2021-08-07T09:17:59Z</time>
      </trkpt>
      <trkpt lat="45.01634" lon="3.63198">
        <ele>737.2</ele>
        <time>2021-08-07T09:18:01Z</time>
      </trkpt>
      <trkpt lat="45.01629" lon="3.63198">
        <ele>736.8</ele>
        <time>2021-08-07T09:18:03Z</time>
      </trkpt>
      <trkpt lat="45.01625" lon="3.63198">
        <ele>736.7</ele>
        <time>2021-08-07T09:18:05Z</time>
      </trkpt>
      <trkpt lat="45.0162" lon="3.63201">
        <ele>737</ele>
        <time>2021-08-07T09:18:07Z</time>
      </trkpt>
      <trkpt lat="45.01616" lon="3.63204">
        <ele>737.6</ele>
        <time>2021-08-07T09:18:09Z</time>
      </trkpt>
      <trkpt lat="45.01612" lon="3.63208">
        <ele>738.4</ele>
        <time>2021-08-07T09:18:11Z</time>
      </trkpt>
      <trkpt lat="45.01608" lon="3.63212">
        <ele>739.4</ele>
        <time>2021-08-07T09:18:13Z</time>
      </trkpt>
      <trkpt lat="45.01605" lon="3.63217">
        <ele>740.5</ele>
        <time>2021-08-07T09:18:15Z</time>
      </trkpt>
      <trkpt lat="45.01603" lon="3.63221">
        <ele>741.6</ele>
        <time>2021-08-07T09:18:17Z</time>
      </trkpt>
      <trkpt lat="45.016" lon="3.63226">
        <ele>742.8</ele>
        <time>2021-08-07T09:18:19Z</time>
      </trkpt>
      <trkpt lat="45.01598" lon="3.6323">
        <ele>744</ele>
        <time>2021-08-07T09:18:21Z</time>
      </trkpt>
      <trkpt lat="45.01595" lon="3.63234">
        <ele>745</ele>
        <time>2021-08-07T09:18:23Z</time>
      </trkpt>
      <trkpt lat="45.01593" lon="3.63239">
        <ele>746.1</ele>
        <time>2021-08-07T09:18:25Z</time>
      </trkpt>
      <trkpt lat="45.0159" lon="3.63243">
        <ele>747.2</ele>
        <time>2021-08-07T09:18:27Z</time>
      </trkpt>
      <trkpt lat="45.01587" lon="3.63247">
        <ele>748.3</ele>
        <time>2021-08-07T09:18:29Z</time>
      </trkpt>
      <trkpt lat="45.01584" lon="3.6325">
        <ele>749.1</ele>
        <time>2021-08-07T09:18:31Z</time>
      </trkpt>
      <trkpt lat="45.0158" lon="3.63253">
        <ele>749</ele>
        <time>2021-08-07T09:18:33Z</time>
      </trkpt>
      <trkpt lat="45.01577" lon="3.63257">
        <ele>748.9</ele>
        <time>2021-08-07T09:18:35Z</time>
      </trkpt>
      <trkpt lat="45.01574" lon="3.63259">
        <ele>748.6</ele>
        <time>2021-08-07T09:18:37Z</time>
      </trkpt>
      <trkpt lat="45.0157" lon="3.63262">
        <ele>748.3</ele>
        <time>2021-08-07T09:18:39Z</time>
      </trkpt>
      <trkpt lat="45.01566" lon="3.63265">
        <ele>747.7</ele>
        <time>2021-08-07T09:18:41Z</time>
      </trkpt>
      <trkpt lat="45.01563" lon="3.63268">
        <ele>747.5</ele>
        <time>2021-08-07T09:18:43Z</time>
      </trkpt>
      <trkpt lat="45.0156" lon="3.63272">
        <ele>747.5</ele>
        <time>2021-08-07T09:18:45Z</time>
      </trkpt>
      <trkpt lat="45.01557" lon="3.63276">
        <ele>747.8</ele>
        <time>2021-08-07T09:18:47Z</time>
      </trkpt>
      <trkpt lat="45.01555" lon="3.6328">
        <ele>748.2</ele>
        <time>2021-08-07T09:18:49Z</time>
      </trkpt>
      <trkpt lat="45.01553" lon="3.63285">
        <ele>748.9</ele>
        <time>2021-08-07T09:18:51Z</time>
      </trkpt>
      <trkpt lat="45.01551" lon="3.6329">
        <ele>749.6</ele>
        <time>2021-08-07T09:18:53Z</time>
      </trkpt>
      <trkpt lat="45.0155" lon="3.63294">
        <ele>750.2</ele>
        <time>2021-08-07T09:18:55Z</time>
      </trkpt>
      <trkpt lat="45.01548" lon="3.63299">
        <ele>750.9</ele>
        <time>2021-08-07T09:18:57Z</time>
      </trkpt>
      <trkpt lat="45.01546" lon="3.63303">
        <ele>751.4</ele>
        <time>2021-08-07T09:18:59Z</time>
      </trkpt>
      <trkpt lat="45.01544" lon="3.63309">
        <ele>752.1</ele>
        <time>2021-08-07T09:19:01Z</time>
      </trkpt>
      <trkpt lat="45.01543" lon="3.63313">
        <ele>752.5</ele>
        <time>2021-08-07T09:19:03Z</time>
      </trkpt>
      <trkpt lat="45.01541" lon="3.63317">
        <ele>753</ele>
        <time>2021-08-07T09:19:05Z</time>
      </trkpt>
      <trkpt lat="45.01538" lon="3.63322">
        <ele>753.4</ele>
        <time>2021-08-07T09:19:07Z</time>
      </trkpt>
      <trkpt lat="45.01537" lon="3.63327">
        <ele>754</ele>
        <time>2021-08-07T09:19:09Z</time>
      </trkpt>
      <trkpt lat="45.01534" lon="3.63332">
        <ele>754.3</ele>
        <time>2021-08-07T09:19:11Z</time>
      </trkpt>
      <trkpt lat="45.01532" lon="3.63337">
        <ele>754.5</ele>
        <time>2021-08-07T09:19:13Z</time>
      </trkpt>
      <trkpt lat="45.01531" lon="3.63341">
        <ele>754.5</ele>
        <time>2021-08-07T09:19:15Z</time>
      </trkpt>
      <trkpt lat="45.01529" lon="3.63346">
        <ele>754.6</ele>
        <time>2021-08-07T09:19:17Z</time>
      </trkpt>
      <trkpt lat="45.01527" lon="3.63351">
        <ele>754.6</ele>
        <time>2021-08-07T09:19:19Z</time>
      </trkpt>
      <trkpt lat="45.01525" lon="3.63356">
        <ele>754.4</ele>
        <time>2021-08-07T09:19:21Z</time>
      </trkpt>
      <trkpt lat="45.01523" lon="3.63361">
        <ele>754.4</ele>
        <time>2021-08-07T09:19:23Z</time>
      </trkpt>
      <trkpt lat="45.01521" lon="3.63365">
        <ele>754.3</ele>
        <time>2021-08-07T09:19:25Z</time>
      </trkpt>
      <trkpt lat="45.01519" lon="3.6337">
        <ele>754.3</ele>
        <time>2021-08-07T09:19:27Z</time>
      </trkpt>
      <trkpt lat="45.01518" lon="3.63375">
        <ele>754.6</ele>
        <time>2021-08-07T09:19:29Z</time>
      </trkpt>
      <trkpt lat="45.01516" lon="3.63379">
        <ele>754.5</ele>
        <time>2021-08-07T09:19:31Z</time>
      </trkpt>
      <trkpt lat="45.01515" lon="3.63384">
        <ele>754.4</ele>
        <time>2021-08-07T09:19:33Z</time>
      </trkpt>
      <trkpt lat="45.01514" lon="3.63388">
        <ele>754.8</ele>
        <time>2021-08-07T09:19:35Z</time>
      </trkpt>
      <trkpt lat="45.01513" lon="3.63393">
        <ele>755.2</ele>
        <time>2021-08-07T09:19:37Z</time>
      </trkpt>
      <trkpt lat="45.01513" lon="3.63398">
        <ele>755.7</ele>
        <time>2021-08-07T09:19:39Z</time>
      </trkpt>
      <trkpt lat="45.01513" lon="3.63403">
        <ele>756.3</ele>
        <time>2021-08-07T09:19:41Z</time>
      </trkpt>
      <trkpt lat="45.01513" lon="3.63408">
        <ele>757</ele>
        <time>2021-08-07T09:19:43Z</time>
      </trkpt>
      <trkpt lat="45.01513" lon="3.63413">
        <ele>757.9</ele>
        <time>2021-08-07T09:19:45Z</time>
      </trkpt>
      <trkpt lat="45.01514" lon="3.63418">
        <ele>759</ele>
        <time>2021-08-07T09:19:47Z</time>
      </trkpt>
      <trkpt lat="45.01515" lon="3.63424">
        <ele>760</ele>
        <time>2021-08-07T09:19:49Z</time>
      </trkpt>
      <trkpt lat="45.01515" lon="3.6343">
        <ele>760.9</ele>
        <time>2021-08-07T09:19:51Z</time>
      </trkpt>
      <trkpt lat="45.01515" lon="3.63437">
        <ele>761.9</ele>
        <time>2021-08-07T09:19:53Z</time>
      </trkpt>
      <trkpt lat="45.01515" lon="3.63444">
        <ele>762.8</ele>
        <time>2021-08-07T09:19:55Z</time>
      </trkpt>
      <trkpt lat="45.01514" lon="3.63451">
        <ele>763.4</ele>
        <time>2021-08-07T09:19:57Z</time>
      </trkpt>
      <trkpt lat="45.01513" lon="3.63459">
        <ele>764</ele>
        <time>2021-08-07T09:19:59Z</time>
      </trkpt>
      <trkpt lat="45.01511" lon="3.63466">
        <ele>764.3</ele>
        <time>2021-08-07T09:20:01Z</time>
      </trkpt>
      <trkpt lat="45.01509" lon="3.63473">
        <ele>764.7</ele>
        <time>2021-08-07T09:20:03Z</time>
      </trkpt>
      <trkpt lat="45.01508" lon="3.6348">
        <ele>764.8</ele>
        <time>2021-08-07T09:20:05Z</time>
      </trkpt>
      <trkpt lat="45.01506" lon="3.63487">
        <ele>765</ele>
        <time>2021-08-07T09:20:07Z</time>
      </trkpt>
      <trkpt lat="45.01504" lon="3.63494">
        <ele>765.2</ele>
        <time>2021-08-07T09:20:09Z</time>
      </trkpt>
      <trkpt lat="45.01503" lon="3.63501">
        <ele>765.7</ele>
        <time>2021-08-07T09:20:11Z</time>
      </trkpt>
      <trkpt lat="45.01501" lon="3.63508">
        <ele>766.5</ele>
        <time>2021-08-07T09:20:13Z</time>
      </trkpt>
      <trkpt lat="45.01498" lon="3.63515">
        <ele>767.6</ele>
        <time>2021-08-07T09:20:15Z</time>
      </trkpt>
      <trkpt lat="45.01497" lon="3.63523">
        <ele>769.3</ele>
        <time>2021-08-07T09:20:17Z</time>
      </trkpt>
      <trkpt lat="45.01494" lon="3.63529">
        <ele>770.1</ele>
        <time>2021-08-07T09:20:19Z</time>
      </trkpt>
      <trkpt lat="45.0149" lon="3.63535">
        <ele>770.9</ele>
        <time>2021-08-07T09:20:21Z</time>
      </trkpt>
      <trkpt lat="45.01485" lon="3.6354">
        <ele>771.3</ele>
        <time>2021-08-07T09:20:23Z</time>
      </trkpt>
      <trkpt lat="45.01481" lon="3.63544">
        <ele>771.4</ele>
        <time>2021-08-07T09:20:25Z</time>
      </trkpt>
      <trkpt lat="45.01477" lon="3.63548">
        <ele>771.6</ele>
        <time>2021-08-07T09:20:27Z</time>
      </trkpt>
      <trkpt lat="45.01472" lon="3.63551">
        <ele>771.7</ele>
        <time>2021-08-07T09:20:29Z</time>
      </trkpt>
      <trkpt lat="45.01467" lon="3.63555">
        <ele>771.7</ele>
        <time>2021-08-07T09:20:31Z</time>
      </trkpt>
      <trkpt lat="45.0146" lon="3.63556">
        <ele>771</ele>
        <time>2021-08-07T09:20:33Z</time>
      </trkpt>
      <trkpt lat="45.01455" lon="3.63558">
        <ele>770.5</ele>
        <time>2021-08-07T09:20:35Z</time>
      </trkpt>
      <trkpt lat="45.01449" lon="3.6356">
        <ele>770</ele>
        <time>2021-08-07T09:20:37Z</time>
      </trkpt>
      <trkpt lat="45.01444" lon="3.63561">
        <ele>769.5</ele>
        <time>2021-08-07T09:20:39Z</time>
      </trkpt>
      <trkpt lat="45.0144" lon="3.63563">
        <ele>769.1</ele>
        <time>2021-08-07T09:20:41Z</time>
      </trkpt>
      <trkpt lat="45.01435" lon="3.63564">
        <ele>769</ele>
        <time>2021-08-07T09:20:43Z</time>
      </trkpt>
      <trkpt lat="45.0143" lon="3.63566">
        <ele>768.6</ele>
        <time>2021-08-07T09:20:45Z</time>
      </trkpt>
      <trkpt lat="45.01424" lon="3.63567">
        <ele>768.1</ele>
        <time>2021-08-07T09:20:47Z</time>
      </trkpt>
      <trkpt lat="45.01419" lon="3.63569">
        <ele>767.9</ele>
        <time>2021-08-07T09:20:49Z</time>
      </trkpt>
      <trkpt lat="45.01415" lon="3.63571">
        <ele>768</ele>
        <time>2021-08-07T09:20:51Z</time>
      </trkpt>
      <trkpt lat="45.0141" lon="3.63573">
        <ele>768.5</ele>
        <time>2021-08-07T09:20:53Z</time>
      </trkpt>
      <trkpt lat="45.01406" lon="3.63575">
        <ele>769.1</ele>
        <time>2021-08-07T09:20:55Z</time>
      </trkpt>
      <trkpt lat="45.01402" lon="3.63576">
        <ele>769.5</ele>
        <time>2021-08-07T09:20:57Z</time>
      </trkpt>
      <trkpt lat="45.01397" lon="3.63577">
        <ele>769.8</ele>
        <time>2021-08-07T09:20:59Z</time>
      </trkpt>
      <trkpt lat="45.01394" lon="3.6358">
        <ele>770.6</ele>
        <time>2021-08-07T09:21:01Z</time>
      </trkpt>
      <trkpt lat="45.0139" lon="3.63581">
        <ele>770.9</ele>
        <time>2021-08-07T09:21:03Z</time>
      </trkpt>
      <trkpt lat="45.01385" lon="3.63581">
        <ele>770.4</ele>
        <time>2021-08-07T09:21:05Z</time>
      </trkpt>
      <trkpt lat="45.0138" lon="3.63582">
        <ele>770.8</ele>
        <time>2021-08-07T09:21:07Z</time>
      </trkpt>
      <trkpt lat="45.01376" lon="3.63584">
        <ele>771.3</ele>
        <time>2021-08-07T09:21:09Z</time>
      </trkpt>
      <trkpt lat="45.01373" lon="3.63585">
        <ele>771.7</ele>
        <time>2021-08-07T09:21:11Z</time>
      </trkpt>
      <trkpt lat="45.01367" lon="3.63586">
        <ele>771.8</ele>
        <time>2021-08-07T09:21:13Z</time>
      </trkpt>
      <trkpt lat="45.01362" lon="3.63588">
        <ele>772.1</ele>
        <time>2021-08-07T09:21:15Z</time>
      </trkpt>
      <trkpt lat="45.01357" lon="3.63589">
        <ele>772.3</ele>
        <time>2021-08-07T09:21:17Z</time>
      </trkpt>
      <trkpt lat="45.01352" lon="3.63591">
        <ele>772.6</ele>
        <time>2021-08-07T09:21:19Z</time>
      </trkpt>
      <trkpt lat="45.01347" lon="3.63592">
        <ele>772.7</ele>
        <time>2021-08-07T09:21:21Z</time>
      </trkpt>
      <trkpt lat="45.01343" lon="3.63593">
        <ele>772.6</ele>
        <time>2021-08-07T09:21:23Z</time>
      </trkpt>
      <trkpt lat="45.01338" lon="3.63593">
        <ele>772.5</ele>
        <time>2021-08-07T09:21:25Z</time>
      </trkpt>
      <trkpt lat="45.01334" lon="3.63594">
        <ele>772.3</ele>
        <time>2021-08-07T09:21:27Z</time>
      </trkpt>
      <trkpt lat="45.01329" lon="3.63594">
        <ele>771.2</ele>
        <time>2021-08-07T09:21:29Z</time>
      </trkpt>
      <trkpt lat="45.01325" lon="3.63594">
        <ele>770.3</ele>
        <time>2021-08-07T09:21:31Z</time>
      </trkpt>
      <trkpt lat="45.01321" lon="3.63594">
        <ele>769.1</ele>
        <time>2021-08-07T09:21:33Z</time>
      </trkpt>
      <trkpt lat="45.01317" lon="3.63594">
        <ele>768</ele>
        <time>2021-08-07T09:21:35Z</time>
      </trkpt>
      <trkpt lat="45.01312" lon="3.63594">
        <ele>766.9</ele>
        <time>2021-08-07T09:21:37Z</time>
      </trkpt>
      <trkpt lat="45.01308" lon="3.63594">
        <ele>765.6</ele>
        <time>2021-08-07T09:21:39Z</time>
      </trkpt>
      <trkpt lat="45.01303" lon="3.63595">
        <ele>764.6</ele>
        <time>2021-08-07T09:21:41Z</time>
      </trkpt>
      <trkpt lat="45.01299" lon="3.63595">
        <ele>763.5</ele>
        <time>2021-08-07T09:21:43Z</time>
      </trkpt>
      <trkpt lat="45.01294" lon="3.63596">
        <ele>762.5</ele>
        <time>2021-08-07T09:21:45Z</time>
      </trkpt>
      <trkpt lat="45.0129" lon="3.63597">
        <ele>761.6</ele>
        <time>2021-08-07T09:21:47Z</time>
      </trkpt>
      <trkpt lat="45.01287" lon="3.63599">
        <ele>760.9</ele>
        <time>2021-08-07T09:21:49Z</time>
      </trkpt>
      <trkpt lat="45.01283" lon="3.636">
        <ele>760.2</ele>
        <time>2021-08-07T09:21:51Z</time>
      </trkpt>
      <trkpt lat="45.0128" lon="3.63603">
        <ele>759.9</ele>
        <time>2021-08-07T09:21:53Z</time>
      </trkpt>
      <trkpt lat="45.01278" lon="3.63606">
        <ele>759.5</ele>
        <time>2021-08-07T09:21:55Z</time>
      </trkpt>
      <trkpt lat="45.01276" lon="3.63609">
        <ele>759.5</ele>
        <time>2021-08-07T09:21:57Z</time>
      </trkpt>
      <trkpt lat="45.01275" lon="3.63614">
        <ele>759.6</ele>
        <time>2021-08-07T09:21:59Z</time>
      </trkpt>
      <trkpt lat="45.01273" lon="3.63616">
        <ele>759.5</ele>
        <time>2021-08-07T09:22:01Z</time>
      </trkpt>
      <trkpt lat="45.01272" lon="3.63616">
        <ele>759.2</ele>
        <time>2021-08-07T09:22:03Z</time>
      </trkpt>
      <trkpt lat="45.01273" lon="3.63616">
        <ele>759.3</ele>
        <time>2021-08-07T09:22:05Z</time>
      </trkpt>
      <trkpt lat="45.01273" lon="3.63616">
        <ele>759.3</ele>
        <time>2021-08-07T09:22:07Z</time>
      </trkpt>
      <trkpt lat="45.01273" lon="3.63616">
        <ele>759.4</ele>
        <time>2021-08-07T09:22:09Z</time>
      </trkpt>
      <trkpt lat="45.01273" lon="3.63616">
        <ele>759.4</ele>
        <time>2021-08-07T09:22:11Z</time>
      </trkpt>
      <trkpt lat="45.01273" lon="3.63637">
        <ele>762.3</ele>
        <time>2021-08-07T09:46:27Z</time>
      </trkpt>
      <trkpt lat="45.01273" lon="3.63642">
        <ele>763</ele>
        <time>2021-08-07T09:46:29Z</time>
      </trkpt>
      <trkpt lat="45.01275" lon="3.63646">
        <ele>764.1</ele>
        <time>2021-08-07T09:46:31Z</time>
      </trkpt>
      <trkpt lat="45.01276" lon="3.63651">
        <ele>765.2</ele>
        <time>2021-08-07T09:46:33Z</time>
      </trkpt>
      <trkpt lat="45.01276" lon="3.63657">
        <ele>766.4</ele>
        <time>2021-08-07T09:46:35Z</time>
      </trkpt>
      <trkpt lat="45.01278" lon="3.63664">
        <ele>768.3</ele>
        <time>2021-08-07T09:46:37Z</time>
      </trkpt>
      <trkpt lat="45.0128" lon="3.63672">
        <ele>769.7</ele>
        <time>2021-08-07T09:46:39Z</time>
      </trkpt>
      <trkpt lat="45.01281" lon="3.63681">
        <ele>770.9</ele>
        <time>2021-08-07T09:46:41Z</time>
      </trkpt>
      <trkpt lat="45.01283" lon="3.6369">
        <ele>772.5</ele>
        <time>2021-08-07T09:46:43Z</time>
      </trkpt>
      <trkpt lat="45.01285" lon="3.63701">
        <ele>774.2</ele>
        <time>2021-08-07T09:46:45Z</time>
      </trkpt>
      <trkpt lat="45.01285" lon="3.63713">
        <ele>775.1</ele>
        <time>2021-08-07T09:46:47Z</time>
      </trkpt>
      <trkpt lat="45.01284" lon="3.63725">
        <ele>775.1</ele>
        <time>2021-08-07T09:46:49Z</time>
      </trkpt>
      <trkpt lat="45.01282" lon="3.63736">
        <ele>774.8</ele>
        <time>2021-08-07T09:46:51Z</time>
      </trkpt>
      <trkpt lat="45.0128" lon="3.63747">
        <ele>774</ele>
        <time>2021-08-07T09:46:53Z</time>
      </trkpt>
      <trkpt lat="45.01278" lon="3.6376">
        <ele>774.8</ele>
        <time>2021-08-07T09:46:55Z</time>
      </trkpt>
      <trkpt lat="45.01277" lon="3.63774">
        <ele>776.1</ele>
        <time>2021-08-07T09:46:57Z</time>
      </trkpt>
      <trkpt lat="45.01275" lon="3.6379">
        <ele>777.2</ele>
        <time>2021-08-07T09:46:59Z</time>
      </trkpt>
      <trkpt lat="45.01273" lon="3.63805">
        <ele>778.3</ele>
        <time>2021-08-07T09:47:01Z</time>
      </trkpt>
      <trkpt lat="45.01266" lon="3.63817">
        <ele>776</ele>
        <time>2021-08-07T09:47:03Z</time>
      </trkpt>
      <trkpt lat="45.01259" lon="3.63829">
        <ele>773.6</ele>
        <time>2021-08-07T09:47:05Z</time>
      </trkpt>
      <trkpt lat="45.01254" lon="3.63841">
        <ele>772.1</ele>
        <time>2021-08-07T09:47:07Z</time>
      </trkpt>
      <trkpt lat="45.01251" lon="3.63856">
        <ele>772.5</ele>
        <time>2021-08-07T09:47:09Z</time>
      </trkpt>
      <trkpt lat="45.01251" lon="3.63871">
        <ele>774.1</ele>
        <time>2021-08-07T09:47:11Z</time>
      </trkpt>
      <trkpt lat="45.01252" lon="3.63886">
        <ele>776.5</ele>
        <time>2021-08-07T09:47:13Z</time>
      </trkpt>
      <trkpt lat="45.01254" lon="3.63902">
        <ele>779.4</ele>
        <time>2021-08-07T09:47:15Z</time>
      </trkpt>
      <trkpt lat="45.01254" lon="3.63915">
        <ele>781.1</ele>
        <time>2021-08-07T09:47:17Z</time>
      </trkpt>
      <trkpt lat="45.01256" lon="3.63928">
        <ele>783.6</ele>
        <time>2021-08-07T09:47:19Z</time>
      </trkpt>
      <trkpt lat="45.01255" lon="3.63941">
        <ele>785.2</ele>
        <time>2021-08-07T09:47:21Z</time>
      </trkpt>
      <trkpt lat="45.01254" lon="3.63952">
        <ele>786.2</ele>
        <time>2021-08-07T09:47:23Z</time>
      </trkpt>
      <trkpt lat="45.01252" lon="3.63963">
        <ele>786.6</ele>
        <time>2021-08-07T09:47:25Z</time>
      </trkpt>
      <trkpt lat="45.01249" lon="3.63972">
        <ele>786.7</ele>
        <time>2021-08-07T09:47:27Z</time>
      </trkpt>
      <trkpt lat="45.01243" lon="3.6398">
        <ele>786.6</ele>
        <time>2021-08-07T09:47:29Z</time>
      </trkpt>
      <trkpt lat="45.01238" lon="3.63986">
        <ele>786.3</ele>
        <time>2021-08-07T09:47:31Z</time>
      </trkpt>
      <trkpt lat="45.0123" lon="3.63988">
        <ele>785</ele>
        <time>2021-08-07T09:47:33Z</time>
      </trkpt>
      <trkpt lat="45.01224" lon="3.63991">
        <ele>784.3</ele>
        <time>2021-08-07T09:47:35Z</time>
      </trkpt>
      <trkpt lat="45.01218" lon="3.63994">
        <ele>783.6</ele>
        <time>2021-08-07T09:47:37Z</time>
      </trkpt>
      <trkpt lat="45.01211" lon="3.63995">
        <ele>782.6</ele>
        <time>2021-08-07T09:47:39Z</time>
      </trkpt>
      <trkpt lat="45.01205" lon="3.63998">
        <ele>782</ele>
        <time>2021-08-07T09:47:41Z</time>
      </trkpt>
      <trkpt lat="45.012" lon="3.64">
        <ele>781.3</ele>
        <time>2021-08-07T09:47:43Z</time>
      </trkpt>
      <trkpt lat="45.01194" lon="3.64002">
        <ele>781</ele>
        <time>2021-08-07T09:47:45Z</time>
      </trkpt>
      <trkpt lat="45.01188" lon="3.64004">
        <ele>780.5</ele>
        <time>2021-08-07T09:47:47Z</time>
      </trkpt>
      <trkpt lat="45.01183" lon="3.64006">
        <ele>780.3</ele>
        <time>2021-08-07T09:47:49Z</time>
      </trkpt>
      <trkpt lat="45.01177" lon="3.64008">
        <ele>780</ele>
        <time>2021-08-07T09:47:51Z</time>
      </trkpt>
      <trkpt lat="45.01172" lon="3.64009">
        <ele>779.5</ele>
        <time>2021-08-07T09:47:53Z</time>
      </trkpt>
      <trkpt lat="45.01165" lon="3.6401">
        <ele>778.8</ele>
        <time>2021-08-07T09:47:55Z</time>
      </trkpt>
      <trkpt lat="45.0116" lon="3.64012">
        <ele>778.8</ele>
        <time>2021-08-07T09:47:57Z</time>
      </trkpt>
      <trkpt lat="45.01156" lon="3.64015">
        <ele>779.3</ele>
        <time>2021-08-07T09:47:59Z</time>
      </trkpt>
      <trkpt lat="45.01151" lon="3.64016">
        <ele>779.2</ele>
        <time>2021-08-07T09:48:01Z</time>
      </trkpt>
      <trkpt lat="45.01146" lon="3.64018">
        <ele>779.2</ele>
        <time>2021-08-07T09:48:03Z</time>
      </trkpt>
      <trkpt lat="45.01141" lon="3.64021">
        <ele>779.5</ele>
        <time>2021-08-07T09:48:05Z</time>
      </trkpt>
      <trkpt lat="45.01136" lon="3.64024">
        <ele>779.6</ele>
        <time>2021-08-07T09:48:07Z</time>
      </trkpt>
      <trkpt lat="45.01129" lon="3.64024">
        <ele>778.8</ele>
        <time>2021-08-07T09:48:09Z</time>
      </trkpt>
      <trkpt lat="45.01124" lon="3.64026">
        <ele>778.4</ele>
        <time>2021-08-07T09:48:11Z</time>
      </trkpt>
      <trkpt lat="45.01119" lon="3.64028">
        <ele>778.3</ele>
        <time>2021-08-07T09:48:13Z</time>
      </trkpt>
      <trkpt lat="45.01114" lon="3.64029">
        <ele>777.7</ele>
        <time>2021-08-07T09:48:15Z</time>
      </trkpt>
      <trkpt lat="45.01108" lon="3.6403">
        <ele>777.2</ele>
        <time>2021-08-07T09:48:17Z</time>
      </trkpt>
      <trkpt lat="45.01103" lon="3.64032">
        <ele>776.7</ele>
        <time>2021-08-07T09:48:19Z</time>
      </trkpt>
      <trkpt lat="45.01099" lon="3.64034">
        <ele>776.6</ele>
        <time>2021-08-07T09:48:21Z</time>
      </trkpt>
      <trkpt lat="45.01094" lon="3.64037">
        <ele>776.3</ele>
        <time>2021-08-07T09:48:23Z</time>
      </trkpt>
      <trkpt lat="45.0109" lon="3.6404">
        <ele>776.3</ele>
        <time>2021-08-07T09:48:25Z</time>
      </trkpt>
      <trkpt lat="45.01086" lon="3.64043">
        <ele>776.1</ele>
        <time>2021-08-07T09:48:27Z</time>
      </trkpt>
      <trkpt lat="45.01082" lon="3.64046">
        <ele>776.3</ele>
        <time>2021-08-07T09:48:29Z</time>
      </trkpt>
      <trkpt lat="45.01079" lon="3.6405">
        <ele>776.7</ele>
        <time>2021-08-07T09:48:31Z</time>
      </trkpt>
      <trkpt lat="45.01076" lon="3.64055">
        <ele>777.4</ele>
        <time>2021-08-07T09:48:33Z</time>
      </trkpt>
      <trkpt lat="45.01073" lon="3.64059">
        <ele>778.1</ele>
        <time>2021-08-07T09:48:35Z</time>
      </trkpt>
      <trkpt lat="45.0107" lon="3.64064">
        <ele>778.8</ele>
        <time>2021-08-07T09:48:37Z</time>
      </trkpt>
      <trkpt lat="45.01069" lon="3.64069">
        <ele>779.7</ele>
        <time>2021-08-07T09:48:39Z</time>
      </trkpt>
      <trkpt lat="45.01067" lon="3.64074">
        <ele>780.5</ele>
        <time>2021-08-07T09:48:41Z</time>
      </trkpt>
      <trkpt lat="45.01065" lon="3.64079">
        <ele>781.5</ele>
        <time>2021-08-07T09:48:43Z</time>
      </trkpt>
      <trkpt lat="45.01064" lon="3.64085">
        <ele>782.4</ele>
        <time>2021-08-07T09:48:45Z</time>
      </trkpt>
      <trkpt lat="45.01063" lon="3.6409">
        <ele>783.2</ele>
        <time>2021-08-07T09:48:47Z</time>
      </trkpt>
      <trkpt lat="45.01061" lon="3.64095">
        <ele>784.1</ele>
        <time>2021-08-07T09:48:49Z</time>
      </trkpt>
      <trkpt lat="45.0106" lon="3.64101">
        <ele>785</ele>
        <time>2021-08-07T09:48:51Z</time>
      </trkpt>
      <trkpt lat="45.01058" lon="3.64107">
        <ele>785.9</ele>
        <time>2021-08-07T09:48:53Z</time>
      </trkpt>
      <trkpt lat="45.01057" lon="3.64114">
        <ele>786.9</ele>
        <time>2021-08-07T09:48:55Z</time>
      </trkpt>
      <trkpt lat="45.01056" lon="3.6412">
        <ele>787.9</ele>
        <time>2021-08-07T09:48:57Z</time>
      </trkpt>
      <trkpt lat="45.01054" lon="3.64125">
        <ele>788.7</ele>
        <time>2021-08-07T09:48:59Z</time>
      </trkpt>
      <trkpt lat="45.01052" lon="3.64131">
        <ele>789.4</ele>
        <time>2021-08-07T09:49:01Z</time>
      </trkpt>
      <trkpt lat="45.0105" lon="3.64136">
        <ele>790.1</ele>
        <time>2021-08-07T09:49:03Z</time>
      </trkpt>
      <trkpt lat="45.01047" lon="3.64141">
        <ele>790.7</ele>
        <time>2021-08-07T09:49:05Z</time>
      </trkpt>
      <trkpt lat="45.01045" lon="3.64145">
        <ele>791.1</ele>
        <time>2021-08-07T09:49:07Z</time>
      </trkpt>
      <trkpt lat="45.01043" lon="3.64149">
        <ele>791.6</ele>
        <time>2021-08-07T09:49:09Z</time>
      </trkpt>
      <trkpt lat="45.01041" lon="3.64153">
        <ele>792.1</ele>
        <time>2021-08-07T09:49:11Z</time>
      </trkpt>
      <trkpt lat="45.01039" lon="3.64156">
        <ele>792.3</ele>
        <time>2021-08-07T09:49:13Z</time>
      </trkpt>
      <trkpt lat="45.01037" lon="3.6416">
        <ele>792.7</ele>
        <time>2021-08-07T09:49:15Z</time>
      </trkpt>
      <trkpt lat="45.01035" lon="3.64164">
        <ele>793.1</ele>
        <time>2021-08-07T09:49:17Z</time>
      </trkpt>
      <trkpt lat="45.01033" lon="3.64167">
        <ele>793.5</ele>
        <time>2021-08-07T09:49:19Z</time>
      </trkpt>
      <trkpt lat="45.01031" lon="3.64171">
        <ele>794.2</ele>
        <time>2021-08-07T09:49:21Z</time>
      </trkpt>
      <trkpt lat="45.01028" lon="3.64175">
        <ele>794.6</ele>
        <time>2021-08-07T09:49:23Z</time>
      </trkpt>
      <trkpt lat="45.01025" lon="3.64177">
        <ele>794.9</ele>
        <time>2021-08-07T09:49:25Z</time>
      </trkpt>
      <trkpt lat="45.01023" lon="3.6418">
        <ele>795.3</ele>
        <time>2021-08-07T09:49:27Z</time>
      </trkpt>
      <trkpt lat="45.01019" lon="3.64183">
        <ele>795.4</ele>
        <time>2021-08-07T09:49:29Z</time>
      </trkpt>
      <trkpt lat="45.01017" lon="3.64186">
        <ele>795.7</ele>
        <time>2021-08-07T09:49:31Z</time>
      </trkpt>
      <trkpt lat="45.01014" lon="3.64188">
        <ele>795.8</ele>
        <time>2021-08-07T09:49:33Z</time>
      </trkpt>
      <trkpt lat="45.0101" lon="3.6419">
        <ele>795.8</ele>
        <time>2021-08-07T09:49:35Z</time>
      </trkpt>
      <trkpt lat="45.01006" lon="3.64192">
        <ele>795.7</ele>
        <time>2021-08-07T09:49:37Z</time>
      </trkpt>
      <trkpt lat="45.01003" lon="3.64195">
        <ele>795.9</ele>
        <time>2021-08-07T09:49:39Z</time>
      </trkpt>
      <trkpt lat="45.01001" lon="3.64199">
        <ele>796.6</ele>
        <time>2021-08-07T09:49:41Z</time>
      </trkpt>
      <trkpt lat="45.00999" lon="3.64204">
        <ele>797.6</ele>
        <time>2021-08-07T09:49:43Z</time>
      </trkpt>
      <trkpt lat="45.00996" lon="3.64208">
        <ele>798.8</ele>
        <time>2021-08-07T09:49:45Z</time>
      </trkpt>
      <trkpt lat="45.00994" lon="3.64212">
        <ele>799.9</ele>
        <time>2021-08-07T09:49:47Z</time>
      </trkpt>
      <trkpt lat="45.00992" lon="3.64215">
        <ele>800.9</ele>
        <time>2021-08-07T09:49:49Z</time>
      </trkpt>
      <trkpt lat="45.00989" lon="3.64218">
        <ele>801.7</ele>
        <time>2021-08-07T09:49:51Z</time>
      </trkpt>
      <trkpt lat="45.00987" lon="3.64222">
        <ele>802.8</ele>
        <time>2021-08-07T09:49:53Z</time>
      </trkpt>
      <trkpt lat="45.00984" lon="3.64227">
        <ele>804</ele>
        <time>2021-08-07T09:49:55Z</time>
      </trkpt>
      <trkpt lat="45.00982" lon="3.64232">
        <ele>805.1</ele>
        <time>2021-08-07T09:49:57Z</time>
      </trkpt>
      <trkpt lat="45.00979" lon="3.64237">
        <ele>806.4</ele>
        <time>2021-08-07T09:49:59Z</time>
      </trkpt>
      <trkpt lat="45.00976" lon="3.64242">
        <ele>807.6</ele>
        <time>2021-08-07T09:50:01Z</time>
      </trkpt>
      <trkpt lat="45.00973" lon="3.64247">
        <ele>808.8</ele>
        <time>2021-08-07T09:50:03Z</time>
      </trkpt>
      <trkpt lat="45.00969" lon="3.64251">
        <ele>809.8</ele>
        <time>2021-08-07T09:50:05Z</time>
      </trkpt>
      <trkpt lat="45.00966" lon="3.64254">
        <ele>810.8</ele>
        <time>2021-08-07T09:50:07Z</time>
      </trkpt>
      <trkpt lat="45.00961" lon="3.64257">
        <ele>811.6</ele>
        <time>2021-08-07T09:50:09Z</time>
      </trkpt>
      <trkpt lat="45.00955" lon="3.64254">
        <ele>811.2</ele>
        <time>2021-08-07T09:50:11Z</time>
      </trkpt>
      <trkpt lat="45.00949" lon="3.6425">
        <ele>810.4</ele>
        <time>2021-08-07T09:50:13Z</time>
      </trkpt>
      <trkpt lat="45.00945" lon="3.64244">
        <ele>809.7</ele>
        <time>2021-08-07T09:50:15Z</time>
      </trkpt>
      <trkpt lat="45.00941" lon="3.64237">
        <ele>808.9</ele>
        <time>2021-08-07T09:50:17Z</time>
      </trkpt>
      <trkpt lat="45.00939" lon="3.64231">
        <ele>808.1</ele>
        <time>2021-08-07T09:50:19Z</time>
      </trkpt>
      <trkpt lat="45.00937" lon="3.64225">
        <ele>807.3</ele>
        <time>2021-08-07T09:50:21Z</time>
      </trkpt>
      <trkpt lat="45.00936" lon="3.64218">
        <ele>806.4</ele>
        <time>2021-08-07T09:50:23Z</time>
      </trkpt>
      <trkpt lat="45.00935" lon="3.64212">
        <ele>805.6</ele>
        <time>2021-08-07T09:50:25Z</time>
      </trkpt>
      <trkpt lat="45.00934" lon="3.64205">
        <ele>804.7</ele>
        <time>2021-08-07T09:50:27Z</time>
      </trkpt>
      <trkpt lat="45.00932" lon="3.64198">
        <ele>803.9</ele>
        <time>2021-08-07T09:50:29Z</time>
      </trkpt>
      <trkpt lat="45.00929" lon="3.64191">
        <ele>803.3</ele>
        <time>2021-08-07T09:50:31Z</time>
      </trkpt>
      <trkpt lat="45.00926" lon="3.64186">
        <ele>803.1</ele>
        <time>2021-08-07T09:50:33Z</time>
      </trkpt>
      <trkpt lat="45.00923" lon="3.64181">
        <ele>802.9</ele>
        <time>2021-08-07T09:50:35Z</time>
      </trkpt>
      <trkpt lat="45.00919" lon="3.64178">
        <ele>803</ele>
        <time>2021-08-07T09:50:37Z</time>
      </trkpt>
      <trkpt lat="45.00915" lon="3.64173">
        <ele>803.1</ele>
        <time>2021-08-07T09:50:39Z</time>
      </trkpt>
      <trkpt lat="45.0091" lon="3.6417">
        <ele>803.5</ele>
        <time>2021-08-07T09:50:41Z</time>
      </trkpt>
      <trkpt lat="45.00906" lon="3.64165">
        <ele>803.6</ele>
        <time>2021-08-07T09:50:43Z</time>
      </trkpt>
      <trkpt lat="45.00901" lon="3.64161">
        <ele>803.8</ele>
        <time>2021-08-07T09:50:45Z</time>
      </trkpt>
      <trkpt lat="45.00897" lon="3.64156">
        <ele>803.7</ele>
        <time>2021-08-07T09:50:47Z</time>
      </trkpt>
      <trkpt lat="45.00893" lon="3.64151">
        <ele>803.4</ele>
        <time>2021-08-07T09:50:49Z</time>
      </trkpt>
      <trkpt lat="45.00889" lon="3.64147">
        <ele>803.1</ele>
        <time>2021-08-07T09:50:51Z</time>
      </trkpt>
      <trkpt lat="45.00885" lon="3.64143">
        <ele>802.9</ele>
        <time>2021-08-07T09:50:53Z</time>
      </trkpt>
      <trkpt lat="45.00881" lon="3.64139">
        <ele>802.6</ele>
        <time>2021-08-07T09:50:55Z</time>
      </trkpt>
      <trkpt lat="45.00877" lon="3.64135">
        <ele>802.3</ele>
        <time>2021-08-07T09:50:57Z</time>
      </trkpt>
      <trkpt lat="45.00873" lon="3.64131">
        <ele>802.1</ele>
        <time>2021-08-07T09:50:59Z</time>
      </trkpt>
      <trkpt lat="45.0087" lon="3.64128">
        <ele>801.9</ele>
        <time>2021-08-07T09:51:01Z</time>
      </trkpt>
      <trkpt lat="45.00866" lon="3.64125">
        <ele>801.6</ele>
        <time>2021-08-07T09:51:03Z</time>
      </trkpt>
      <trkpt lat="45.00863" lon="3.64123">
        <ele>801.5</ele>
        <time>2021-08-07T09:51:05Z</time>
      </trkpt>
      <trkpt lat="45.00859" lon="3.6412">
        <ele>801.2</ele>
        <time>2021-08-07T09:51:07Z</time>
      </trkpt>
      <trkpt lat="45.00855" lon="3.64118">
        <ele>801.1</ele>
        <time>2021-08-07T09:51:09Z</time>
      </trkpt>
      <trkpt lat="45.00851" lon="3.64116">
        <ele>801.2</ele>
        <time>2021-08-07T09:51:11Z</time>
      </trkpt>
      <trkpt lat="45.00848" lon="3.64114">
        <ele>801.1</ele>
        <time>2021-08-07T09:51:13Z</time>
      </trkpt>
      <trkpt lat="45.00844" lon="3.64113">
        <ele>801.2</ele>
        <time>2021-08-07T09:51:15Z</time>
      </trkpt>
      <trkpt lat="45.0084" lon="3.64113">
        <ele>801.4</ele>
        <time>2021-08-07T09:51:17Z</time>
      </trkpt>
      <trkpt lat="45.00836" lon="3.64112">
        <ele>801.6</ele>
        <time>2021-08-07T09:51:19Z</time>
      </trkpt>
      <trkpt lat="45.00832" lon="3.64112">
        <ele>801.9</ele>
        <time>2021-08-07T09:51:21Z</time>
      </trkpt>
      <trkpt lat="45.00829" lon="3.64112">
        <ele>802.1</ele>
        <time>2021-08-07T09:51:23Z</time>
      </trkpt>
      <trkpt lat="45.00825" lon="3.64111">
        <ele>802.1</ele>
        <time>2021-08-07T09:51:25Z</time>
      </trkpt>
      <trkpt lat="45.0082" lon="3.64111">
        <ele>802.4</ele>
        <time>2021-08-07T09:51:27Z</time>
      </trkpt>
      <trkpt lat="45.00816" lon="3.6411">
        <ele>802.6</ele>
        <time>2021-08-07T09:51:29Z</time>
      </trkpt>
      <trkpt lat="45.00812" lon="3.6411">
        <ele>802.8</ele>
        <time>2021-08-07T09:51:31Z</time>
      </trkpt>
      <trkpt lat="45.00808" lon="3.6411">
        <ele>803</ele>
        <time>2021-08-07T09:51:33Z</time>
      </trkpt>
      <trkpt lat="45.00805" lon="3.64109">
        <ele>802.9</ele>
        <time>2021-08-07T09:51:35Z</time>
      </trkpt>
      <trkpt lat="45.00801" lon="3.64109">
        <ele>803.3</ele>
        <time>2021-08-07T09:51:37Z</time>
      </trkpt>
      <trkpt lat="45.00797" lon="3.6411">
        <ele>803.7</ele>
        <time>2021-08-07T09:51:39Z</time>
      </trkpt>
      <trkpt lat="45.00793" lon="3.64111">
        <ele>804.2</ele>
        <time>2021-08-07T09:51:41Z</time>
      </trkpt>
      <trkpt lat="45.00789" lon="3.64111">
        <ele>804.4</ele>
        <time>2021-08-07T09:51:43Z</time>
      </trkpt>
      <trkpt lat="45.00785" lon="3.6411">
        <ele>804.4</ele>
        <time>2021-08-07T09:51:45Z</time>
      </trkpt>
      <trkpt lat="45.00781" lon="3.64109">
        <ele>804.5</ele>
        <time>2021-08-07T09:51:47Z</time>
      </trkpt>
      <trkpt lat="45.00778" lon="3.64108">
        <ele>804.5</ele>
        <time>2021-08-07T09:51:49Z</time>
      </trkpt>
      <trkpt lat="45.00774" lon="3.64108">
        <ele>804.6</ele>
        <time>2021-08-07T09:51:51Z</time>
      </trkpt>
      <trkpt lat="45.00771" lon="3.64108">
        <ele>804.9</ele>
        <time>2021-08-07T09:51:53Z</time>
      </trkpt>
      <trkpt lat="45.00767" lon="3.64107">
        <ele>804.9</ele>
        <time>2021-08-07T09:51:55Z</time>
      </trkpt>
      <trkpt lat="45.00762" lon="3.64107">
        <ele>805</ele>
        <time>2021-08-07T09:51:57Z</time>
      </trkpt>
      <trkpt lat="45.00758" lon="3.64106">
        <ele>805.3</ele>
        <time>2021-08-07T09:51:59Z</time>
      </trkpt>
      <trkpt lat="45.00754" lon="3.64106">
        <ele>805.4</ele>
        <time>2021-08-07T09:52:01Z</time>
      </trkpt>
      <trkpt lat="45.0075" lon="3.64105">
        <ele>805.5</ele>
        <time>2021-08-07T09:52:03Z</time>
      </trkpt>
      <trkpt lat="45.00746" lon="3.64105">
        <ele>805</ele>
        <time>2021-08-07T09:52:05Z</time>
      </trkpt>
      <trkpt lat="45.00741" lon="3.64104">
        <ele>804.5</ele>
        <time>2021-08-07T09:52:07Z</time>
      </trkpt>
      <trkpt lat="45.00737" lon="3.64104">
        <ele>804.1</ele>
        <time>2021-08-07T09:52:09Z</time>
      </trkpt>
      <trkpt lat="45.00733" lon="3.64104">
        <ele>803.6</ele>
        <time>2021-08-07T09:52:11Z</time>
      </trkpt>
      <trkpt lat="45.0073" lon="3.64104">
        <ele>803.3</ele>
        <time>2021-08-07T09:52:13Z</time>
      </trkpt>
      <trkpt lat="45.00726" lon="3.64105">
        <ele>803.1</ele>
        <time>2021-08-07T09:52:15Z</time>
      </trkpt>
      <trkpt lat="45.00722" lon="3.64106">
        <ele>803</ele>
        <time>2021-08-07T09:52:17Z</time>
      </trkpt>
      <trkpt lat="45.00718" lon="3.64107">
        <ele>803.1</ele>
        <time>2021-08-07T09:52:19Z</time>
      </trkpt>
      <trkpt lat="45.00714" lon="3.64108">
        <ele>802.9</ele>
        <time>2021-08-07T09:52:21Z</time>
      </trkpt>
      <trkpt lat="45.0071" lon="3.6411">
        <ele>802.9</ele>
        <time>2021-08-07T09:52:23Z</time>
      </trkpt>
      <trkpt lat="45.00706" lon="3.64111">
        <ele>802.9</ele>
        <time>2021-08-07T09:52:25Z</time>
      </trkpt>
      <trkpt lat="45.00701" lon="3.64113">
        <ele>802.9</ele>
        <time>2021-08-07T09:52:27Z</time>
      </trkpt>
      <trkpt lat="45.00696" lon="3.64115">
        <ele>803</ele>
        <time>2021-08-07T09:52:29Z</time>
      </trkpt>
      <trkpt lat="45.0069" lon="3.64118">
        <ele>803.2</ele>
        <time>2021-08-07T09:52:31Z</time>
      </trkpt>
      <trkpt lat="45.00684" lon="3.6412">
        <ele>803.3</ele>
        <time>2021-08-07T09:52:33Z</time>
      </trkpt>
      <trkpt lat="45.00678" lon="3.64123">
        <ele>803.4</ele>
        <time>2021-08-07T09:52:35Z</time>
      </trkpt>
      <trkpt lat="45.00672" lon="3.64125">
        <ele>803.4</ele>
        <time>2021-08-07T09:52:37Z</time>
      </trkpt>
      <trkpt lat="45.00665" lon="3.64127">
        <ele>803.3</ele>
        <time>2021-08-07T09:52:39Z</time>
      </trkpt>
      <trkpt lat="45.00659" lon="3.64129">
        <ele>802.6</ele>
        <time>2021-08-07T09:52:41Z</time>
      </trkpt>
      <trkpt lat="45.00653" lon="3.64133">
        <ele>802.4</ele>
        <time>2021-08-07T09:52:43Z</time>
      </trkpt>
      <trkpt lat="45.00646" lon="3.64136">
        <ele>801.9</ele>
        <time>2021-08-07T09:52:45Z</time>
      </trkpt>
      <trkpt lat="45.00639" lon="3.64138">
        <ele>801.2</ele>
        <time>2021-08-07T09:52:47Z</time>
      </trkpt>
      <trkpt lat="45.00631" lon="3.64142">
        <ele>800.7</ele>
        <time>2021-08-07T09:52:49Z</time>
      </trkpt>
      <trkpt lat="45.00624" lon="3.64147">
        <ele>800.6</ele>
        <time>2021-08-07T09:52:51Z</time>
      </trkpt>
      <trkpt lat="45.00617" lon="3.64153">
        <ele>800.8</ele>
        <time>2021-08-07T09:52:53Z</time>
      </trkpt>
      <trkpt lat="45.0061" lon="3.64159">
        <ele>801</ele>
        <time>2021-08-07T09:52:55Z</time>
      </trkpt>
      <trkpt lat="45.00602" lon="3.64166">
        <ele>801.4</ele>
        <time>2021-08-07T09:52:57Z</time>
      </trkpt>
      <trkpt lat="45.00595" lon="3.64173">
        <ele>801.7</ele>
        <time>2021-08-07T09:52:59Z</time>
      </trkpt>
      <trkpt lat="45.00589" lon="3.64181">
        <ele>802</ele>
        <time>2021-08-07T09:53:01Z</time>
      </trkpt>
      <trkpt lat="45.00581" lon="3.64192">
        <ele>802.4</ele>
        <time>2021-08-07T09:53:03Z</time>
      </trkpt>
      <trkpt lat="45.00574" lon="3.64202">
        <ele>802.9</ele>
        <time>2021-08-07T09:53:05Z</time>
      </trkpt>
      <trkpt lat="45.00567" lon="3.64212">
        <ele>803.4</ele>
        <time>2021-08-07T09:53:07Z</time>
      </trkpt>
      <trkpt lat="45.00559" lon="3.64222">
        <ele>803.7</ele>
        <time>2021-08-07T09:53:09Z</time>
      </trkpt>
      <trkpt lat="45.00551" lon="3.64232">
        <ele>804</ele>
        <time>2021-08-07T09:53:11Z</time>
      </trkpt>
      <trkpt lat="45.00544" lon="3.64242">
        <ele>804.6</ele>
        <time>2021-08-07T09:53:13Z</time>
      </trkpt>
      <trkpt lat="45.00539" lon="3.64254">
        <ele>805.6</ele>
        <time>2021-08-07T09:53:15Z</time>
      </trkpt>
      <trkpt lat="45.00534" lon="3.64266">
        <ele>807.1</ele>
        <time>2021-08-07T09:53:17Z</time>
      </trkpt>
      <trkpt lat="45.0053" lon="3.64279">
        <ele>808.6</ele>
        <time>2021-08-07T09:53:19Z</time>
      </trkpt>
      <trkpt lat="45.00525" lon="3.64293">
        <ele>810.3</ele>
        <time>2021-08-07T09:53:21Z</time>
      </trkpt>
      <trkpt lat="45.0052" lon="3.64308">
        <ele>811.8</ele>
        <time>2021-08-07T09:53:23Z</time>
      </trkpt>
      <trkpt lat="45.00514" lon="3.64322">
        <ele>812.7</ele>
        <time>2021-08-07T09:53:25Z</time>
      </trkpt>
      <trkpt lat="45.00505" lon="3.64329">
        <ele>811.8</ele>
        <time>2021-08-07T09:53:27Z</time>
      </trkpt>
      <trkpt lat="45.00494" lon="3.6433">
        <ele>811.7</ele>
        <time>2021-08-07T09:53:29Z</time>
      </trkpt>
      <trkpt lat="45.00485" lon="3.64318">
        <ele>811.5</ele>
        <time>2021-08-07T09:53:31Z</time>
      </trkpt>
      <trkpt lat="45.00481" lon="3.64305">
        <ele>809.7</ele>
        <time>2021-08-07T09:53:33Z</time>
      </trkpt>
      <trkpt lat="45.00479" lon="3.64293">
        <ele>808.1</ele>
        <time>2021-08-07T09:53:35Z</time>
      </trkpt>
      <trkpt lat="45.00476" lon="3.64279">
        <ele>806</ele>
        <time>2021-08-07T09:53:37Z</time>
      </trkpt>
      <trkpt lat="45.00473" lon="3.64266">
        <ele>804.2</ele>
        <time>2021-08-07T09:53:39Z</time>
      </trkpt>
      <trkpt lat="45.00469" lon="3.64255">
        <ele>802.7</ele>
        <time>2021-08-07T09:53:41Z</time>
      </trkpt>
      <trkpt lat="45.00464" lon="3.64245">
        <ele>801.5</ele>
        <time>2021-08-07T09:53:43Z</time>
      </trkpt>
      <trkpt lat="45.00459" lon="3.64235">
        <ele>800.1</ele>
        <time>2021-08-07T09:53:45Z</time>
      </trkpt>
      <trkpt lat="45.00454" lon="3.64226">
        <ele>798.8</ele>
        <time>2021-08-07T09:53:47Z</time>
      </trkpt>
      <trkpt lat="45.00449" lon="3.64218">
        <ele>797.6</ele>
        <time>2021-08-07T09:53:49Z</time>
      </trkpt>
      <trkpt lat="45.00444" lon="3.6421">
        <ele>796.4</ele>
        <time>2021-08-07T09:53:51Z</time>
      </trkpt>
      <trkpt lat="45.00438" lon="3.64203">
        <ele>795.3</ele>
        <time>2021-08-07T09:53:53Z</time>
      </trkpt>
      <trkpt lat="45.00433" lon="3.64197">
        <ele>794.3</ele>
        <time>2021-08-07T09:53:55Z</time>
      </trkpt>
      <trkpt lat="45.00427" lon="3.64191">
        <ele>793.4</ele>
        <time>2021-08-07T09:53:57Z</time>
      </trkpt>
      <trkpt lat="45.00421" lon="3.64189">
        <ele>793.4</ele>
        <time>2021-08-07T09:53:59Z</time>
      </trkpt>
      <trkpt lat="45.00415" lon="3.64186">
        <ele>793.2</ele>
        <time>2021-08-07T09:54:01Z</time>
      </trkpt>
      <trkpt lat="45.00409" lon="3.64185">
        <ele>793</ele>
        <time>2021-08-07T09:54:03Z</time>
      </trkpt>
      <trkpt lat="45.00403" lon="3.64185">
        <ele>793</ele>
        <time>2021-08-07T09:54:05Z</time>
      </trkpt>
      <trkpt lat="45.00397" lon="3.64185">
        <ele>793</ele>
        <time>2021-08-07T09:54:07Z</time>
      </trkpt>
      <trkpt lat="45.0039" lon="3.64184">
        <ele>792.9</ele>
        <time>2021-08-07T09:54:09Z</time>
      </trkpt>
      <trkpt lat="45.00383" lon="3.64184">
        <ele>792.9</ele>
        <time>2021-08-07T09:54:11Z</time>
      </trkpt>
      <trkpt lat="45.00374" lon="3.64184">
        <ele>793</ele>
        <time>2021-08-07T09:54:13Z</time>
      </trkpt>
      <trkpt lat="45.00364" lon="3.64184">
        <ele>793.1</ele>
        <time>2021-08-07T09:54:15Z</time>
      </trkpt>
      <trkpt lat="45.00353" lon="3.64182">
        <ele>793</ele>
        <time>2021-08-07T09:54:17Z</time>
      </trkpt>
      <trkpt lat="45.00341" lon="3.64178">
        <ele>792.4</ele>
        <time>2021-08-07T09:54:19Z</time>
      </trkpt>
      <trkpt lat="45.00329" lon="3.64168">
        <ele>792.3</ele>
        <time>2021-08-07T09:54:21Z</time>
      </trkpt>
      <trkpt lat="45.00318" lon="3.64156">
        <ele>793.5</ele>
        <time>2021-08-07T09:54:23Z</time>
      </trkpt>
      <trkpt lat="45.00309" lon="3.64143">
        <ele>794.2</ele>
        <time>2021-08-07T09:54:25Z</time>
      </trkpt>
      <trkpt lat="45.003" lon="3.64131">
        <ele>795</ele>
        <time>2021-08-07T09:54:27Z</time>
      </trkpt>
      <trkpt lat="45.00291" lon="3.64119">
        <ele>795.7</ele>
        <time>2021-08-07T09:54:29Z</time>
      </trkpt>
      <trkpt lat="45.00282" lon="3.64108">
        <ele>796.5</ele>
        <time>2021-08-07T09:54:31Z</time>
      </trkpt>
      <trkpt lat="45.00273" lon="3.64097">
        <ele>797.4</ele>
        <time>2021-08-07T09:54:33Z</time>
      </trkpt>
      <trkpt lat="45.00264" lon="3.64084">
        <ele>797.9</ele>
        <time>2021-08-07T09:54:35Z</time>
      </trkpt>
      <trkpt lat="45.00255" lon="3.64073">
        <ele>798.3</ele>
        <time>2021-08-07T09:54:37Z</time>
      </trkpt>
      <trkpt lat="45.00246" lon="3.64063">
        <ele>798.8</ele>
        <time>2021-08-07T09:54:39Z</time>
      </trkpt>
      <trkpt lat="45.00238" lon="3.64053">
        <ele>799.5</ele>
        <time>2021-08-07T09:54:41Z</time>
      </trkpt>
      <trkpt lat="45.00231" lon="3.64045">
        <ele>800.5</ele>
        <time>2021-08-07T09:54:43Z</time>
      </trkpt>
      <trkpt lat="45.00225" lon="3.64038">
        <ele>801.1</ele>
        <time>2021-08-07T09:54:45Z</time>
      </trkpt>
      <trkpt lat="45.0022" lon="3.64031">
        <ele>801.5</ele>
        <time>2021-08-07T09:54:47Z</time>
      </trkpt>
      <trkpt lat="45.00214" lon="3.64026">
        <ele>802.4</ele>
        <time>2021-08-07T09:54:49Z</time>
      </trkpt>
      <trkpt lat="45.0021" lon="3.64018">
        <ele>802.5</ele>
        <time>2021-08-07T09:54:51Z</time>
      </trkpt>
      <trkpt lat="45.00206" lon="3.64012">
        <ele>802.9</ele>
        <time>2021-08-07T09:54:53Z</time>
      </trkpt>
      <trkpt lat="45.00203" lon="3.64006">
        <ele>802.9</ele>
        <time>2021-08-07T09:54:55Z</time>
      </trkpt>
      <trkpt lat="45.00199" lon="3.64001">
        <ele>803.4</ele>
        <time>2021-08-07T09:54:57Z</time>
      </trkpt>
      <trkpt lat="45.00196" lon="3.63994">
        <ele>804.2</ele>
        <time>2021-08-07T09:54:59Z</time>
      </trkpt>
      <trkpt lat="45.00192" lon="3.63987">
        <ele>805.3</ele>
        <time>2021-08-07T09:55:01Z</time>
      </trkpt>
      <trkpt lat="45.00189" lon="3.6398">
        <ele>806.2</ele>
        <time>2021-08-07T09:55:03Z</time>
      </trkpt>
      <trkpt lat="45.00186" lon="3.63972">
        <ele>807.2</ele>
        <time>2021-08-07T09:55:05Z</time>
      </trkpt>
      <trkpt lat="45.00184" lon="3.63963">
        <ele>807.8</ele>
        <time>2021-08-07T09:55:07Z</time>
      </trkpt>
      <trkpt lat="45.00182" lon="3.63954">
        <ele>808.4</ele>
        <time>2021-08-07T09:55:09Z</time>
      </trkpt>
      <trkpt lat="45.00181" lon="3.63945">
        <ele>808.9</ele>
        <time>2021-08-07T09:55:11Z</time>
      </trkpt>
      <trkpt lat="45.00182" lon="3.63934">
        <ele>808.7</ele>
        <time>2021-08-07T09:55:13Z</time>
      </trkpt>
      <trkpt lat="45.00181" lon="3.63922">
        <ele>808.8</ele>
        <time>2021-08-07T09:55:15Z</time>
      </trkpt>
      <trkpt lat="45.00182" lon="3.63909">
        <ele>808.3</ele>
        <time>2021-08-07T09:55:17Z</time>
      </trkpt>
      <trkpt lat="45.00184" lon="3.63898">
        <ele>806.6</ele>
        <time>2021-08-07T09:55:19Z</time>
      </trkpt>
      <trkpt lat="45.00188" lon="3.63886">
        <ele>804.9</ele>
        <time>2021-08-07T09:55:21Z</time>
      </trkpt>
      <trkpt lat="45.0019" lon="3.63876">
        <ele>803.2</ele>
        <time>2021-08-07T09:55:23Z</time>
      </trkpt>
      <trkpt lat="45.00194" lon="3.63866">
        <ele>801.5</ele>
        <time>2021-08-07T09:55:25Z</time>
      </trkpt>
      <trkpt lat="45.00196" lon="3.63856">
        <ele>800.2</ele>
        <time>2021-08-07T09:55:27Z</time>
      </trkpt>
      <trkpt lat="45.00198" lon="3.63845">
        <ele>799.1</ele>
        <time>2021-08-07T09:55:29Z</time>
      </trkpt>
      <trkpt lat="45.00202" lon="3.63835">
        <ele>797.2</ele>
        <time>2021-08-07T09:55:31Z</time>
      </trkpt>
      <trkpt lat="45.00203" lon="3.63825">
        <ele>795.6</ele>
        <time>2021-08-07T09:55:33Z</time>
      </trkpt>
      <trkpt lat="45.00205" lon="3.63814">
        <ele>793.6</ele>
        <time>2021-08-07T09:55:35Z</time>
      </trkpt>
      <trkpt lat="45.00205" lon="3.63804">
        <ele>792</ele>
        <time>2021-08-07T09:55:37Z</time>
      </trkpt>
      <trkpt lat="45.00204" lon="3.63794">
        <ele>790.8</ele>
        <time>2021-08-07T09:55:39Z</time>
      </trkpt>
      <trkpt lat="45.00202" lon="3.63785">
        <ele>790.1</ele>
        <time>2021-08-07T09:55:41Z</time>
      </trkpt>
      <trkpt lat="45.00198" lon="3.63777">
        <ele>789.5</ele>
        <time>2021-08-07T09:55:43Z</time>
      </trkpt>
      <trkpt lat="45.00194" lon="3.6377">
        <ele>789.3</ele>
        <time>2021-08-07T09:55:45Z</time>
      </trkpt>
      <trkpt lat="45.00188" lon="3.63765">
        <ele>789.4</ele>
        <time>2021-08-07T09:55:47Z</time>
      </trkpt>
      <trkpt lat="45.00181" lon="3.63761">
        <ele>789.5</ele>
        <time>2021-08-07T09:55:49Z</time>
      </trkpt>
      <trkpt lat="45.00173" lon="3.63759">
        <ele>790.2</ele>
        <time>2021-08-07T09:55:51Z</time>
      </trkpt>
      <trkpt lat="45.00164" lon="3.63758">
        <ele>790.9</ele>
        <time>2021-08-07T09:55:53Z</time>
      </trkpt>
      <trkpt lat="45.00154" lon="3.63759">
        <ele>790.7</ele>
        <time>2021-08-07T09:55:55Z</time>
      </trkpt>
      <trkpt lat="45.00143" lon="3.6376">
        <ele>790.8</ele>
        <time>2021-08-07T09:55:57Z</time>
      </trkpt>
      <trkpt lat="45.00131" lon="3.63761">
        <ele>790.7</ele>
        <time>2021-08-07T09:55:59Z</time>
      </trkpt>
      <trkpt lat="45.00119" lon="3.63764">
        <ele>791.1</ele>
        <time>2021-08-07T09:56:01Z</time>
      </trkpt>
      <trkpt lat="45.00106" lon="3.63767">
        <ele>792</ele>
        <time>2021-08-07T09:56:03Z</time>
      </trkpt>
      <trkpt lat="45.00091" lon="3.63768">
        <ele>792</ele>
        <time>2021-08-07T09:56:05Z</time>
      </trkpt>
      <trkpt lat="45.00078" lon="3.6377">
        <ele>792.9</ele>
        <time>2021-08-07T09:56:07Z</time>
      </trkpt>
      <trkpt lat="45.00065" lon="3.63772">
        <ele>794.3</ele>
        <time>2021-08-07T09:56:09Z</time>
      </trkpt>
      <trkpt lat="45.00051" lon="3.63774">
        <ele>795.5</ele>
        <time>2021-08-07T09:56:11Z</time>
      </trkpt>
      <trkpt lat="45.00037" lon="3.63774">
        <ele>796.2</ele>
        <time>2021-08-07T09:56:13Z</time>
      </trkpt>
      <trkpt lat="45.00024" lon="3.63769">
        <ele>795</ele>
        <time>2021-08-07T09:56:15Z</time>
      </trkpt>
      <trkpt lat="45.00011" lon="3.63756">
        <ele>791.2</ele>
        <time>2021-08-07T09:56:17Z</time>
      </trkpt>
      <trkpt lat="45" lon="3.6374">
        <ele>787.1</ele>
        <time>2021-08-07T09:56:19Z</time>
      </trkpt>
      <trkpt lat="44.99986" lon="3.63729">
        <ele>790</ele>
        <time>2021-08-07T09:56:21Z</time>
      </trkpt>
      <trkpt lat="44.99976" lon="3.63709">
        <ele>790</ele>
        <time>2021-08-07T09:56:23Z</time>
      </trkpt>
      <trkpt lat="44.99967" lon="3.63695">
        <ele>767</ele>
        <time>2021-08-07T09:56:25Z</time>
      </trkpt>
      <trkpt lat="44.99954" lon="3.63686">
        <ele>775</ele>
        <time>2021-08-07T09:56:27Z</time>
      </trkpt>
      <trkpt lat="44.9994" lon="3.63684">
        <ele>775</ele>
        <time>2021-08-07T09:56:29Z</time>
      </trkpt>
      <trkpt lat="44.99928" lon="3.63686">
        <ele>775</ele>
        <time>2021-08-07T09:56:31Z</time>
      </trkpt>
      <trkpt lat="44.99915" lon="3.63688">
        <ele>780.4</ele>
        <time>2021-08-07T09:56:33Z</time>
      </trkpt>
      <trkpt lat="44.99904" lon="3.63688">
        <ele>781.8</ele>
        <time>2021-08-07T09:56:35Z</time>
      </trkpt>
      <trkpt lat="44.99893" lon="3.63688">
        <ele>783.2</ele>
        <time>2021-08-07T09:56:37Z</time>
      </trkpt>
      <trkpt lat="44.99882" lon="3.6369">
        <ele>784.7</ele>
        <time>2021-08-07T09:56:39Z</time>
      </trkpt>
      <trkpt lat="44.99873" lon="3.6369">
        <ele>785.8</ele>
        <time>2021-08-07T09:56:41Z</time>
      </trkpt>
      <trkpt lat="44.99864" lon="3.63691">
        <ele>786.8</ele>
        <time>2021-08-07T09:56:43Z</time>
      </trkpt>
      <trkpt lat="44.99856" lon="3.63688">
        <ele>787.3</ele>
        <time>2021-08-07T09:56:45Z</time>
      </trkpt>
      <trkpt lat="44.99848" lon="3.63683">
        <ele>787.2</ele>
        <time>2021-08-07T09:56:47Z</time>
      </trkpt>
      <trkpt lat="44.99841" lon="3.63675">
        <ele>786.6</ele>
        <time>2021-08-07T09:56:49Z</time>
      </trkpt>
      <trkpt lat="44.99838" lon="3.63662">
        <ele>785.3</ele>
        <time>2021-08-07T09:56:51Z</time>
      </trkpt>
      <trkpt lat="44.99836" lon="3.63652">
        <ele>785.2</ele>
        <time>2021-08-07T09:56:53Z</time>
      </trkpt>
      <trkpt lat="44.99836" lon="3.6364">
        <ele>784.9</ele>
        <time>2021-08-07T09:56:55Z</time>
      </trkpt>
      <trkpt lat="44.99837" lon="3.63628">
        <ele>784.4</ele>
        <time>2021-08-07T09:56:57Z</time>
      </trkpt>
      <trkpt lat="44.99839" lon="3.63618">
        <ele>783.7</ele>
        <time>2021-08-07T09:56:59Z</time>
      </trkpt>
      <trkpt lat="44.9984" lon="3.63607">
        <ele>783.1</ele>
        <time>2021-08-07T09:57:01Z</time>
      </trkpt>
      <trkpt lat="44.99841" lon="3.63596">
        <ele>782.5</ele>
        <time>2021-08-07T09:57:03Z</time>
      </trkpt>
      <trkpt lat="44.99842" lon="3.63587">
        <ele>781.9</ele>
        <time>2021-08-07T09:57:05Z</time>
      </trkpt>
      <trkpt lat="44.99842" lon="3.63578">
        <ele>781.7</ele>
        <time>2021-08-07T09:57:07Z</time>
      </trkpt>
      <trkpt lat="44.99842" lon="3.63571">
        <ele>781.6</ele>
        <time>2021-08-07T09:57:09Z</time>
      </trkpt>
      <trkpt lat="44.99841" lon="3.63563">
        <ele>781.8</ele>
        <time>2021-08-07T09:57:11Z</time>
      </trkpt>
      <trkpt lat="44.9984" lon="3.63556">
        <ele>782.1</ele>
        <time>2021-08-07T09:57:13Z</time>
      </trkpt>
      <trkpt lat="44.99837" lon="3.63549">
        <ele>782.6</ele>
        <time>2021-08-07T09:57:15Z</time>
      </trkpt>
      <trkpt lat="44.99835" lon="3.63542">
        <ele>783.2</ele>
        <time>2021-08-07T09:57:17Z</time>
      </trkpt>
      <trkpt lat="44.99832" lon="3.63537">
        <ele>783.6</ele>
        <time>2021-08-07T09:57:19Z</time>
      </trkpt>
      <trkpt lat="44.99828" lon="3.63532">
        <ele>783.7</ele>
        <time>2021-08-07T09:57:21Z</time>
      </trkpt>
      <trkpt lat="44.99824" lon="3.63528">
        <ele>783.9</ele>
        <time>2021-08-07T09:57:23Z</time>
      </trkpt>
      <trkpt lat="44.9982" lon="3.63524">
        <ele>784</ele>
        <time>2021-08-07T09:57:25Z</time>
      </trkpt>
      <trkpt lat="44.99816" lon="3.63519">
        <ele>784.1</ele>
        <time>2021-08-07T09:57:27Z</time>
      </trkpt>
      <trkpt lat="44.99811" lon="3.63514">
        <ele>784.1</ele>
        <time>2021-08-07T09:57:29Z</time>
      </trkpt>
      <trkpt lat="44.99806" lon="3.63509">
        <ele>784.1</ele>
        <time>2021-08-07T09:57:31Z</time>
      </trkpt>
      <trkpt lat="44.998" lon="3.63503">
        <ele>784</ele>
        <time>2021-08-07T09:57:33Z</time>
      </trkpt>
      <trkpt lat="44.99794" lon="3.63496">
        <ele>783.4</ele>
        <time>2021-08-07T09:57:35Z</time>
      </trkpt>
      <trkpt lat="44.99787" lon="3.63489">
        <ele>782.6</ele>
        <time>2021-08-07T09:57:37Z</time>
      </trkpt>
      <trkpt lat="44.99779" lon="3.63481">
        <ele>781.6</ele>
        <time>2021-08-07T09:57:39Z</time>
      </trkpt>
      <trkpt lat="44.9977" lon="3.63471">
        <ele>780.5</ele>
        <time>2021-08-07T09:57:41Z</time>
      </trkpt>
      <trkpt lat="44.99761" lon="3.63461">
        <ele>779.4</ele>
        <time>2021-08-07T09:57:43Z</time>
      </trkpt>
      <trkpt lat="44.99752" lon="3.6345">
        <ele>778.4</ele>
        <time>2021-08-07T09:57:45Z</time>
      </trkpt>
      <trkpt lat="44.99741" lon="3.63441">
        <ele>777.7</ele>
        <time>2021-08-07T09:57:47Z</time>
      </trkpt>
      <trkpt lat="44.9973" lon="3.63433">
        <ele>777.2</ele>
        <time>2021-08-07T09:57:49Z</time>
      </trkpt>
      <trkpt lat="44.99719" lon="3.63425">
        <ele>776.8</ele>
        <time>2021-08-07T09:57:51Z</time>
      </trkpt>
      <trkpt lat="44.99709" lon="3.63419">
        <ele>776.4</ele>
        <time>2021-08-07T09:57:53Z</time>
      </trkpt>
      <trkpt lat="44.99699" lon="3.63414">
        <ele>776.1</ele>
        <time>2021-08-07T09:57:55Z</time>
      </trkpt>
      <trkpt lat="44.99689" lon="3.63409">
        <ele>775.9</ele>
        <time>2021-08-07T09:57:57Z</time>
      </trkpt>
      <trkpt lat="44.99679" lon="3.63404">
        <ele>775.7</ele>
        <time>2021-08-07T09:57:59Z</time>
      </trkpt>
      <trkpt lat="44.9967" lon="3.634">
        <ele>775.7</ele>
        <time>2021-08-07T09:58:01Z</time>
      </trkpt>
      <trkpt lat="44.9966" lon="3.63397">
        <ele>775.4</ele>
        <time>2021-08-07T09:58:03Z</time>
      </trkpt>
      <trkpt lat="44.99651" lon="3.63395">
        <ele>775.1</ele>
        <time>2021-08-07T09:58:05Z</time>
      </trkpt>
      <trkpt lat="44.99641" lon="3.63394">
        <ele>774.9</ele>
        <time>2021-08-07T09:58:07Z</time>
      </trkpt>
      <trkpt lat="44.99631" lon="3.63394">
        <ele>774.8</ele>
        <time>2021-08-07T09:58:09Z</time>
      </trkpt>
      <trkpt lat="44.99621" lon="3.63394">
        <ele>774.8</ele>
        <time>2021-08-07T09:58:11Z</time>
      </trkpt>
      <trkpt lat="44.99611" lon="3.63394">
        <ele>774.7</ele>
        <time>2021-08-07T09:58:13Z</time>
      </trkpt>
      <trkpt lat="44.99599" lon="3.63394">
        <ele>774.8</ele>
        <time>2021-08-07T09:58:15Z</time>
      </trkpt>
      <trkpt lat="44.99587" lon="3.63394">
        <ele>774.7</ele>
        <time>2021-08-07T09:58:17Z</time>
      </trkpt>
      <trkpt lat="44.99575" lon="3.63395">
        <ele>774.8</ele>
        <time>2021-08-07T09:58:19Z</time>
      </trkpt>
      <trkpt lat="44.99561" lon="3.63395">
        <ele>774.7</ele>
        <time>2021-08-07T09:58:21Z</time>
      </trkpt>
      <trkpt lat="44.99548" lon="3.63396">
        <ele>774.8</ele>
        <time>2021-08-07T09:58:23Z</time>
      </trkpt>
      <trkpt lat="44.99534" lon="3.63397">
        <ele>774.9</ele>
        <time>2021-08-07T09:58:25Z</time>
      </trkpt>
      <trkpt lat="44.99521" lon="3.63397">
        <ele>774.9</ele>
        <time>2021-08-07T09:58:27Z</time>
      </trkpt>
      <trkpt lat="44.99508" lon="3.63397">
        <ele>774.8</ele>
        <time>2021-08-07T09:58:29Z</time>
      </trkpt>
      <trkpt lat="44.99496" lon="3.63398">
        <ele>774.8</ele>
        <time>2021-08-07T09:58:31Z</time>
      </trkpt>
      <trkpt lat="44.99485" lon="3.63398">
        <ele>774.6</ele>
        <time>2021-08-07T09:58:33Z</time>
      </trkpt>
      <trkpt lat="44.99474" lon="3.634">
        <ele>774.6</ele>
        <time>2021-08-07T09:58:35Z</time>
      </trkpt>
      <trkpt lat="44.99463" lon="3.63402">
        <ele>774.6</ele>
        <time>2021-08-07T09:58:37Z</time>
      </trkpt>
      <trkpt lat="44.99453" lon="3.63404">
        <ele>774.6</ele>
        <time>2021-08-07T09:58:39Z</time>
      </trkpt>
      <trkpt lat="44.99443" lon="3.63407">
        <ele>774.7</ele>
        <time>2021-08-07T09:58:41Z</time>
      </trkpt>
      <trkpt lat="44.99434" lon="3.6341">
        <ele>774.8</ele>
        <time>2021-08-07T09:58:43Z</time>
      </trkpt>
      <trkpt lat="44.99425" lon="3.63413">
        <ele>774.9</ele>
        <time>2021-08-07T09:58:45Z</time>
      </trkpt>
      <trkpt lat="44.99416" lon="3.63416">
        <ele>774.9</ele>
        <time>2021-08-07T09:58:47Z</time>
      </trkpt>
      <trkpt lat="44.99408" lon="3.6342">
        <ele>774.6</ele>
        <time>2021-08-07T09:58:49Z</time>
      </trkpt>
      <trkpt lat="44.994" lon="3.63424">
        <ele>774.4</ele>
        <time>2021-08-07T09:58:51Z</time>
      </trkpt>
      <trkpt lat="44.99392" lon="3.63429">
        <ele>774.3</ele>
        <time>2021-08-07T09:58:53Z</time>
      </trkpt>
      <trkpt lat="44.99385" lon="3.63433">
        <ele>774</ele>
        <time>2021-08-07T09:58:55Z</time>
      </trkpt>
      <trkpt lat="44.99377" lon="3.63437">
        <ele>773.7</ele>
        <time>2021-08-07T09:58:57Z</time>
      </trkpt>
      <trkpt lat="44.9937" lon="3.63441">
        <ele>773.5</ele>
        <time>2021-08-07T09:58:59Z</time>
      </trkpt>
      <trkpt lat="44.99363" lon="3.63447">
        <ele>773.3</ele>
        <time>2021-08-07T09:59:01Z</time>
      </trkpt>
      <trkpt lat="44.99357" lon="3.63454">
        <ele>773.3</ele>
        <time>2021-08-07T09:59:03Z</time>
      </trkpt>
      <trkpt lat="44.9935" lon="3.63461">
        <ele>773.2</ele>
        <time>2021-08-07T09:59:05Z</time>
      </trkpt>
      <trkpt lat="44.99345" lon="3.63471">
        <ele>773.3</ele>
        <time>2021-08-07T09:59:07Z</time>
      </trkpt>
      <trkpt lat="44.9934" lon="3.63481">
        <ele>773.5</ele>
        <time>2021-08-07T09:59:09Z</time>
      </trkpt>
      <trkpt lat="44.99336" lon="3.63492">
        <ele>773.8</ele>
        <time>2021-08-07T09:59:11Z</time>
      </trkpt>
      <trkpt lat="44.99333" lon="3.63503">
        <ele>774.1</ele>
        <time>2021-08-07T09:59:13Z</time>
      </trkpt>
      <trkpt lat="44.99329" lon="3.63513">
        <ele>773.7</ele>
        <time>2021-08-07T09:59:15Z</time>
      </trkpt>
      <trkpt lat="44.99326" lon="3.63523">
        <ele>773.3</ele>
        <time>2021-08-07T09:59:17Z</time>
      </trkpt>
      <trkpt lat="44.99322" lon="3.63534">
        <ele>772.9</ele>
        <time>2021-08-07T09:59:19Z</time>
      </trkpt>
      <trkpt lat="44.99319" lon="3.63547">
        <ele>772.6</ele>
        <time>2021-08-07T09:59:21Z</time>
      </trkpt>
      <trkpt lat="44.99315" lon="3.63561">
        <ele>772.1</ele>
        <time>2021-08-07T09:59:23Z</time>
      </trkpt>
      <trkpt lat="44.99313" lon="3.63577">
        <ele>771.9</ele>
        <time>2021-08-07T09:59:25Z</time>
      </trkpt>
      <trkpt lat="44.9931" lon="3.63594">
        <ele>771.5</ele>
        <time>2021-08-07T09:59:27Z</time>
      </trkpt>
      <trkpt lat="44.99307" lon="3.63612">
        <ele>771.2</ele>
        <time>2021-08-07T09:59:29Z</time>
      </trkpt>
      <trkpt lat="44.99305" lon="3.6363">
        <ele>771</ele>
        <time>2021-08-07T09:59:31Z</time>
      </trkpt>
      <trkpt lat="44.99303" lon="3.63649">
        <ele>770.9</ele>
        <time>2021-08-07T09:59:33Z</time>
      </trkpt>
      <trkpt lat="44.993" lon="3.63668">
        <ele>770.5</ele>
        <time>2021-08-07T09:59:35Z</time>
      </trkpt>
      <trkpt lat="44.99297" lon="3.63688">
        <ele>770.8</ele>
        <time>2021-08-07T09:59:37Z</time>
      </trkpt>
      <trkpt lat="44.99294" lon="3.63708">
        <ele>771.3</ele>
        <time>2021-08-07T09:59:39Z</time>
      </trkpt>
      <trkpt lat="44.99291" lon="3.6373">
        <ele>771.7</ele>
        <time>2021-08-07T09:59:41Z</time>
      </trkpt>
      <trkpt lat="44.99289" lon="3.6375">
        <ele>772.3</ele>
        <time>2021-08-07T09:59:43Z</time>
      </trkpt>
      <trkpt lat="44.99287" lon="3.63769">
        <ele>773.4</ele>
        <time>2021-08-07T09:59:45Z</time>
      </trkpt>
      <trkpt lat="44.99285" lon="3.63785">
        <ele>774.6</ele>
        <time>2021-08-07T09:59:47Z</time>
      </trkpt>
      <trkpt lat="44.99285" lon="3.63798">
        <ele>775.8</ele>
        <time>2021-08-07T09:59:49Z</time>
      </trkpt>
      <trkpt lat="44.99285" lon="3.63813">
        <ele>777.2</ele>
        <time>2021-08-07T09:59:51Z</time>
      </trkpt>
      <trkpt lat="44.99281" lon="3.63828">
        <ele>777.8</ele>
        <time>2021-08-07T09:59:53Z</time>
      </trkpt>
      <trkpt lat="44.99271" lon="3.6384">
        <ele>776.8</ele>
        <time>2021-08-07T09:59:55Z</time>
      </trkpt>
      <trkpt lat="44.99259" lon="3.63845">
        <ele>774.8</ele>
        <time>2021-08-07T09:59:57Z</time>
      </trkpt>
      <trkpt lat="44.99247" lon="3.63843">
        <ele>773.2</ele>
        <time>2021-08-07T09:59:59Z</time>
      </trkpt>
      <trkpt lat="44.99237" lon="3.63835">
        <ele>773.6</ele>
        <time>2021-08-07T10:00:01Z</time>
      </trkpt>
      <trkpt lat="44.9923" lon="3.63824">
        <ele>772.9</ele>
        <time>2021-08-07T10:00:03Z</time>
      </trkpt>
      <trkpt lat="44.99225" lon="3.63811">
        <ele>771.7</ele>
        <time>2021-08-07T10:00:05Z</time>
      </trkpt>
      <trkpt lat="44.99219" lon="3.63799">
        <ele>770.7</ele>
        <time>2021-08-07T10:00:07Z</time>
      </trkpt>
      <trkpt lat="44.99212" lon="3.63788">
        <ele>769.6</ele>
        <time>2021-08-07T10:00:09Z</time>
      </trkpt>
      <trkpt lat="44.99205" lon="3.63777">
        <ele>768.6</ele>
        <time>2021-08-07T10:00:11Z</time>
      </trkpt>
      <trkpt lat="44.99198" lon="3.63766">
        <ele>767.5</ele>
        <time>2021-08-07T10:00:13Z</time>
      </trkpt>
      <trkpt lat="44.99191" lon="3.63755">
        <ele>766.3</ele>
        <time>2021-08-07T10:00:15Z</time>
      </trkpt>
      <trkpt lat="44.99184" lon="3.63745">
        <ele>765.6</ele>
        <time>2021-08-07T10:00:17Z</time>
      </trkpt>
      <trkpt lat="44.99178" lon="3.63735">
        <ele>765.1</ele>
        <time>2021-08-07T10:00:19Z</time>
      </trkpt>
      <trkpt lat="44.99171" lon="3.63726">
        <ele>764.7</ele>
        <time>2021-08-07T10:00:21Z</time>
      </trkpt>
      <trkpt lat="44.99165" lon="3.63717">
        <ele>764.3</ele>
        <time>2021-08-07T10:00:23Z</time>
      </trkpt>
      <trkpt lat="44.99159" lon="3.63707">
        <ele>764</ele>
        <time>2021-08-07T10:00:25Z</time>
      </trkpt>
      <trkpt lat="44.99153" lon="3.63698">
        <ele>763.7</ele>
        <time>2021-08-07T10:00:27Z</time>
      </trkpt>
      <trkpt lat="44.99147" lon="3.63689">
        <ele>763.5</ele>
        <time>2021-08-07T10:00:29Z</time>
      </trkpt>
      <trkpt lat="44.99142" lon="3.6368">
        <ele>763.2</ele>
        <time>2021-08-07T10:00:31Z</time>
      </trkpt>
      <trkpt lat="44.99136" lon="3.6367">
        <ele>762.9</ele>
        <time>2021-08-07T10:00:33Z</time>
      </trkpt>
      <trkpt lat="44.9913" lon="3.63661">
        <ele>762.5</ele>
        <time>2021-08-07T10:00:35Z</time>
      </trkpt>
      <trkpt lat="44.99123" lon="3.63652">
        <ele>762</ele>
        <time>2021-08-07T10:00:37Z</time>
      </trkpt>
      <trkpt lat="44.99117" lon="3.63643">
        <ele>761.6</ele>
        <time>2021-08-07T10:00:39Z</time>
      </trkpt>
      <trkpt lat="44.99109" lon="3.63636">
        <ele>761.5</ele>
        <time>2021-08-07T10:00:41Z</time>
      </trkpt>
      <trkpt lat="44.99101" lon="3.63629">
        <ele>761.4</ele>
        <time>2021-08-07T10:00:43Z</time>
      </trkpt>
      <trkpt lat="44.99093" lon="3.63625">
        <ele>761.6</ele>
        <time>2021-08-07T10:00:45Z</time>
      </trkpt>
      <trkpt lat="44.99085" lon="3.63622">
        <ele>762</ele>
        <time>2021-08-07T10:00:47Z</time>
      </trkpt>
      <trkpt lat="44.99077" lon="3.63621">
        <ele>762.2</ele>
        <time>2021-08-07T10:00:49Z</time>
      </trkpt>
      <trkpt lat="44.99069" lon="3.63621">
        <ele>762.3</ele>
        <time>2021-08-07T10:00:51Z</time>
      </trkpt>
      <trkpt lat="44.99061" lon="3.63622">
        <ele>762.5</ele>
        <time>2021-08-07T10:00:53Z</time>
      </trkpt>
      <trkpt lat="44.99054" lon="3.63624">
        <ele>762.8</ele>
        <time>2021-08-07T10:00:55Z</time>
      </trkpt>
      <trkpt lat="44.99047" lon="3.63626">
        <ele>763</ele>
        <time>2021-08-07T10:00:57Z</time>
      </trkpt>
      <trkpt lat="44.9904" lon="3.63629">
        <ele>763.3</ele>
        <time>2021-08-07T10:00:59Z</time>
      </trkpt>
      <trkpt lat="44.99033" lon="3.63632">
        <ele>763.4</ele>
        <time>2021-08-07T10:01:01Z</time>
      </trkpt>
      <trkpt lat="44.99027" lon="3.63635">
        <ele>763.6</ele>
        <time>2021-08-07T10:01:03Z</time>
      </trkpt>
      <trkpt lat="44.99022" lon="3.6364">
        <ele>763.8</ele>
        <time>2021-08-07T10:01:05Z</time>
      </trkpt>
      <trkpt lat="44.99015" lon="3.63644">
        <ele>763.9</ele>
        <time>2021-08-07T10:01:07Z</time>
      </trkpt>
      <trkpt lat="44.99009" lon="3.63648">
        <ele>763.9</ele>
        <time>2021-08-07T10:01:09Z</time>
      </trkpt>
      <trkpt lat="44.99002" lon="3.63652">
        <ele>763.9</ele>
        <time>2021-08-07T10:01:11Z</time>
      </trkpt>
      <trkpt lat="44.98995" lon="3.63657">
        <ele>763.3</ele>
        <time>2021-08-07T10:01:13Z</time>
      </trkpt>
      <trkpt lat="44.98986" lon="3.63662">
        <ele>762.6</ele>
        <time>2021-08-07T10:01:15Z</time>
      </trkpt>
      <trkpt lat="44.98978" lon="3.63667">
        <ele>761.9</ele>
        <time>2021-08-07T10:01:17Z</time>
      </trkpt>
      <trkpt lat="44.98969" lon="3.63673">
        <ele>761.6</ele>
        <time>2021-08-07T10:01:19Z</time>
      </trkpt>
      <trkpt lat="44.98959" lon="3.63679">
        <ele>761.1</ele>
        <time>2021-08-07T10:01:21Z</time>
      </trkpt>
      <trkpt lat="44.9895" lon="3.63685">
        <ele>760.7</ele>
        <time>2021-08-07T10:01:23Z</time>
      </trkpt>
      <trkpt lat="44.98941" lon="3.6369">
        <ele>760.2</ele>
        <time>2021-08-07T10:01:25Z</time>
      </trkpt>
      <trkpt lat="44.98932" lon="3.63697">
        <ele>759.8</ele>
        <time>2021-08-07T10:01:27Z</time>
      </trkpt>
      <trkpt lat="44.98922" lon="3.63703">
        <ele>759.2</ele>
        <time>2021-08-07T10:01:29Z</time>
      </trkpt>
      <trkpt lat="44.98912" lon="3.6371">
        <ele>758.5</ele>
        <time>2021-08-07T10:01:31Z</time>
      </trkpt>
      <trkpt lat="44.98902" lon="3.6372">
        <ele>758.1</ele>
        <time>2021-08-07T10:01:33Z</time>
      </trkpt>
      <trkpt lat="44.98892" lon="3.6373">
        <ele>757.7</ele>
        <time>2021-08-07T10:01:35Z</time>
      </trkpt>
      <trkpt lat="44.98882" lon="3.63741">
        <ele>757.7</ele>
        <time>2021-08-07T10:01:37Z</time>
      </trkpt>
      <trkpt lat="44.98871" lon="3.63753">
        <ele>758.1</ele>
        <time>2021-08-07T10:01:39Z</time>
      </trkpt>
      <trkpt lat="44.98858" lon="3.63762">
        <ele>758.8</ele>
        <time>2021-08-07T10:01:41Z</time>
      </trkpt>
      <trkpt lat="44.98846" lon="3.63771">
        <ele>759.5</ele>
        <time>2021-08-07T10:01:43Z</time>
      </trkpt>
      <trkpt lat="44.98834" lon="3.63777">
        <ele>759.9</ele>
        <time>2021-08-07T10:01:45Z</time>
      </trkpt>
      <trkpt lat="44.98823" lon="3.63783">
        <ele>759.9</ele>
        <time>2021-08-07T10:01:47Z</time>
      </trkpt>
      <trkpt lat="44.98812" lon="3.63789">
        <ele>759.9</ele>
        <time>2021-08-07T10:01:49Z</time>
      </trkpt>
      <trkpt lat="44.98802" lon="3.63794">
        <ele>759.9</ele>
        <time>2021-08-07T10:01:51Z</time>
      </trkpt>
      <trkpt lat="44.98792" lon="3.638">
        <ele>760.1</ele>
        <time>2021-08-07T10:01:53Z</time>
      </trkpt>
      <trkpt lat="44.98782" lon="3.63806">
        <ele>760.5</ele>
        <time>2021-08-07T10:01:55Z</time>
      </trkpt>
      <trkpt lat="44.98773" lon="3.63811">
        <ele>760.8</ele>
        <time>2021-08-07T10:01:57Z</time>
      </trkpt>
      <trkpt lat="44.98763" lon="3.63816">
        <ele>761.3</ele>
        <time>2021-08-07T10:01:59Z</time>
      </trkpt>
      <trkpt lat="44.98754" lon="3.63821">
        <ele>761.7</ele>
        <time>2021-08-07T10:02:01Z</time>
      </trkpt>
      <trkpt lat="44.98746" lon="3.63825">
        <ele>762.1</ele>
        <time>2021-08-07T10:02:03Z</time>
      </trkpt>
      <trkpt lat="44.98737" lon="3.63829">
        <ele>762.4</ele>
        <time>2021-08-07T10:02:05Z</time>
      </trkpt>
      <trkpt lat="44.98729" lon="3.63833">
        <ele>762.4</ele>
        <time>2021-08-07T10:02:07Z</time>
      </trkpt>
      <trkpt lat="44.9872" lon="3.63837">
        <ele>762.4</ele>
        <time>2021-08-07T10:02:09Z</time>
      </trkpt>
      <trkpt lat="44.98712" lon="3.63841">
        <ele>762.2</ele>
        <time>2021-08-07T10:02:11Z</time>
      </trkpt>
      <trkpt lat="44.98703" lon="3.63845">
        <ele>761.9</ele>
        <time>2021-08-07T10:02:13Z</time>
      </trkpt>
      <trkpt lat="44.98694" lon="3.63848">
        <ele>761.4</ele>
        <time>2021-08-07T10:02:15Z</time>
      </trkpt>
      <trkpt lat="44.98685" lon="3.63851">
        <ele>760.9</ele>
        <time>2021-08-07T10:02:17Z</time>
      </trkpt>
      <trkpt lat="44.98676" lon="3.63853">
        <ele>760.2</ele>
        <time>2021-08-07T10:02:19Z</time>
      </trkpt>
      <trkpt lat="44.98666" lon="3.63856">
        <ele>759.7</ele>
        <time>2021-08-07T10:02:21Z</time>
      </trkpt>
      <trkpt lat="44.98657" lon="3.63859">
        <ele>759.7</ele>
        <time>2021-08-07T10:02:23Z</time>
      </trkpt>
      <trkpt lat="44.98648" lon="3.63862">
        <ele>759.7</ele>
        <time>2021-08-07T10:02:25Z</time>
      </trkpt>
      <trkpt lat="44.98639" lon="3.63865">
        <ele>759.7</ele>
        <time>2021-08-07T10:02:27Z</time>
      </trkpt>
      <trkpt lat="44.9863" lon="3.63867">
        <ele>759.4</ele>
        <time>2021-08-07T10:02:29Z</time>
      </trkpt>
      <trkpt lat="44.98621" lon="3.63869">
        <ele>759.1</ele>
        <time>2021-08-07T10:02:31Z</time>
      </trkpt>
      <trkpt lat="44.98612" lon="3.63871">
        <ele>758.9</ele>
        <time>2021-08-07T10:02:33Z</time>
      </trkpt>
      <trkpt lat="44.98603" lon="3.63875">
        <ele>758.9</ele>
        <time>2021-08-07T10:02:35Z</time>
      </trkpt>
      <trkpt lat="44.98593" lon="3.63881">
        <ele>759.2</ele>
        <time>2021-08-07T10:02:37Z</time>
      </trkpt>
      <trkpt lat="44.98583" lon="3.6389">
        <ele>759.8</ele>
        <time>2021-08-07T10:02:39Z</time>
      </trkpt>
      <trkpt lat="44.98573" lon="3.63899">
        <ele>758.9</ele>
        <time>2021-08-07T10:02:41Z</time>
      </trkpt>
      <trkpt lat="44.98562" lon="3.63909">
        <ele>758</ele>
        <time>2021-08-07T10:02:43Z</time>
      </trkpt>
      <trkpt lat="44.98552" lon="3.63921">
        <ele>756.9</ele>
        <time>2021-08-07T10:02:45Z</time>
      </trkpt>
      <trkpt lat="44.98541" lon="3.63934">
        <ele>755.4</ele>
        <time>2021-08-07T10:02:47Z</time>
      </trkpt>
      <trkpt lat="44.9853" lon="3.63947">
        <ele>753.9</ele>
        <time>2021-08-07T10:02:49Z</time>
      </trkpt>
      <trkpt lat="44.98519" lon="3.63963">
        <ele>752.9</ele>
        <time>2021-08-07T10:02:51Z</time>
      </trkpt>
      <trkpt lat="44.98509" lon="3.6398">
        <ele>752.2</ele>
        <time>2021-08-07T10:02:53Z</time>
      </trkpt>
      <trkpt lat="44.985" lon="3.63999">
        <ele>751.9</ele>
        <time>2021-08-07T10:02:55Z</time>
      </trkpt>
      <trkpt lat="44.98491" lon="3.64019">
        <ele>750.8</ele>
        <time>2021-08-07T10:02:57Z</time>
      </trkpt>
      <trkpt lat="44.98481" lon="3.6404">
        <ele>749.8</ele>
        <time>2021-08-07T10:02:59Z</time>
      </trkpt>
      <trkpt lat="44.98472" lon="3.64061">
        <ele>748.9</ele>
        <time>2021-08-07T10:03:01Z</time>
      </trkpt>
      <trkpt lat="44.98463" lon="3.64081">
        <ele>748.1</ele>
        <time>2021-08-07T10:03:03Z</time>
      </trkpt>
      <trkpt lat="44.98454" lon="3.641">
        <ele>747.6</ele>
        <time>2021-08-07T10:03:05Z</time>
      </trkpt>
      <trkpt lat="44.98445" lon="3.64119">
        <ele>747.5</ele>
        <time>2021-08-07T10:03:07Z</time>
      </trkpt>
      <trkpt lat="44.98435" lon="3.64136">
        <ele>747.6</ele>
        <time>2021-08-07T10:03:09Z</time>
      </trkpt>
      <trkpt lat="44.98423" lon="3.64149">
        <ele>747.7</ele>
        <time>2021-08-07T10:03:11Z</time>
      </trkpt>
      <trkpt lat="44.98412" lon="3.6416">
        <ele>748.1</ele>
        <time>2021-08-07T10:03:13Z</time>
      </trkpt>
      <trkpt lat="44.98401" lon="3.64169">
        <ele>748.7</ele>
        <time>2021-08-07T10:03:15Z</time>
      </trkpt>
      <trkpt lat="44.9839" lon="3.64178">
        <ele>749.1</ele>
        <time>2021-08-07T10:03:17Z</time>
      </trkpt>
      <trkpt lat="44.98379" lon="3.64186">
        <ele>749.3</ele>
        <time>2021-08-07T10:03:19Z</time>
      </trkpt>
      <trkpt lat="44.98369" lon="3.64193">
        <ele>749.4</ele>
        <time>2021-08-07T10:03:21Z</time>
      </trkpt>
      <trkpt lat="44.98359" lon="3.642">
        <ele>749.6</ele>
        <time>2021-08-07T10:03:23Z</time>
      </trkpt>
      <trkpt lat="44.9835" lon="3.64207">
        <ele>749.7</ele>
        <time>2021-08-07T10:03:25Z</time>
      </trkpt>
      <trkpt lat="44.98342" lon="3.64213">
        <ele>749.7</ele>
        <time>2021-08-07T10:03:27Z</time>
      </trkpt>
      <trkpt lat="44.98333" lon="3.64219">
        <ele>749.8</ele>
        <time>2021-08-07T10:03:29Z</time>
      </trkpt>
      <trkpt lat="44.98324" lon="3.64226">
        <ele>749.7</ele>
        <time>2021-08-07T10:03:31Z</time>
      </trkpt>
      <trkpt lat="44.98316" lon="3.64233">
        <ele>749.6</ele>
        <time>2021-08-07T10:03:33Z</time>
      </trkpt>
      <trkpt lat="44.98308" lon="3.64239">
        <ele>749.5</ele>
        <time>2021-08-07T10:03:35Z</time>
      </trkpt>
      <trkpt lat="44.983" lon="3.64245">
        <ele>749.3</ele>
        <time>2021-08-07T10:03:37Z</time>
      </trkpt>
      <trkpt lat="44.98292" lon="3.6425">
        <ele>749</ele>
        <time>2021-08-07T10:03:39Z</time>
      </trkpt>
      <trkpt lat="44.98284" lon="3.64256">
        <ele>749.2</ele>
        <time>2021-08-07T10:03:41Z</time>
      </trkpt>
      <trkpt lat="44.98277" lon="3.64262">
        <ele>749.4</ele>
        <time>2021-08-07T10:03:43Z</time>
      </trkpt>
      <trkpt lat="44.98269" lon="3.64267">
        <ele>749.4</ele>
        <time>2021-08-07T10:03:45Z</time>
      </trkpt>
      <trkpt lat="44.98261" lon="3.64272">
        <ele>749.4</ele>
        <time>2021-08-07T10:03:47Z</time>
      </trkpt>
      <trkpt lat="44.98254" lon="3.64278">
        <ele>749.4</ele>
        <time>2021-08-07T10:03:49Z</time>
      </trkpt>
      <trkpt lat="44.98247" lon="3.64283">
        <ele>749.4</ele>
        <time>2021-08-07T10:03:51Z</time>
      </trkpt>
      <trkpt lat="44.9824" lon="3.64289">
        <ele>749.5</ele>
        <time>2021-08-07T10:03:53Z</time>
      </trkpt>
      <trkpt lat="44.98234" lon="3.64294">
        <ele>749.7</ele>
        <time>2021-08-07T10:03:55Z</time>
      </trkpt>
      <trkpt lat="44.98227" lon="3.643">
        <ele>749.8</ele>
        <time>2021-08-07T10:03:57Z</time>
      </trkpt>
      <trkpt lat="44.98221" lon="3.64306">
        <ele>750</ele>
        <time>2021-08-07T10:03:59Z</time>
      </trkpt>
      <trkpt lat="44.98215" lon="3.64313">
        <ele>750.4</ele>
        <time>2021-08-07T10:04:01Z</time>
      </trkpt>
      <trkpt lat="44.9821" lon="3.6432">
        <ele>750.7</ele>
        <time>2021-08-07T10:04:03Z</time>
      </trkpt>
      <trkpt lat="44.98205" lon="3.64327">
        <ele>751.1</ele>
        <time>2021-08-07T10:04:05Z</time>
      </trkpt>
      <trkpt lat="44.982" lon="3.64334">
        <ele>751.5</ele>
        <time>2021-08-07T10:04:07Z</time>
      </trkpt>
      <trkpt lat="44.98196" lon="3.64342">
        <ele>752</ele>
        <time>2021-08-07T10:04:09Z</time>
      </trkpt>
      <trkpt lat="44.98192" lon="3.64349">
        <ele>752.4</ele>
        <time>2021-08-07T10:04:11Z</time>
      </trkpt>
      <trkpt lat="44.98187" lon="3.64356">
        <ele>752.7</ele>
        <time>2021-08-07T10:04:13Z</time>
      </trkpt>
      <trkpt lat="44.98182" lon="3.64364">
        <ele>753</ele>
        <time>2021-08-07T10:04:15Z</time>
      </trkpt>
      <trkpt lat="44.98178" lon="3.64371">
        <ele>753.3</ele>
        <time>2021-08-07T10:04:17Z</time>
      </trkpt>
      <trkpt lat="44.98173" lon="3.64378">
        <ele>753.5</ele>
        <time>2021-08-07T10:04:19Z</time>
      </trkpt>
      <trkpt lat="44.98169" lon="3.64386">
        <ele>753.6</ele>
        <time>2021-08-07T10:04:21Z</time>
      </trkpt>
      <trkpt lat="44.98165" lon="3.64393">
        <ele>753.6</ele>
        <time>2021-08-07T10:04:23Z</time>
      </trkpt>
      <trkpt lat="44.9816" lon="3.644">
        <ele>753.5</ele>
        <time>2021-08-07T10:04:25Z</time>
      </trkpt>
      <trkpt lat="44.98156" lon="3.64407">
        <ele>753.4</ele>
        <time>2021-08-07T10:04:27Z</time>
      </trkpt>
      <trkpt lat="44.98152" lon="3.64414">
        <ele>753.2</ele>
        <time>2021-08-07T10:04:29Z</time>
      </trkpt>
      <trkpt lat="44.98147" lon="3.6442">
        <ele>753.4</ele>
        <time>2021-08-07T10:04:31Z</time>
      </trkpt>
      <trkpt lat="44.98142" lon="3.64426">
        <ele>753.6</ele>
        <time>2021-08-07T10:04:33Z</time>
      </trkpt>
      <trkpt lat="44.98137" lon="3.64432">
        <ele>753.7</ele>
        <time>2021-08-07T10:04:35Z</time>
      </trkpt>
      <trkpt lat="44.98132" lon="3.64438">
        <ele>753.8</ele>
        <time>2021-08-07T10:04:37Z</time>
      </trkpt>
      <trkpt lat="44.98127" lon="3.64444">
        <ele>753.9</ele>
        <time>2021-08-07T10:04:39Z</time>
      </trkpt>
      <trkpt lat="44.98122" lon="3.6445">
        <ele>754</ele>
        <time>2021-08-07T10:04:41Z</time>
      </trkpt>
      <trkpt lat="44.98116" lon="3.64457">
        <ele>754.1</ele>
        <time>2021-08-07T10:04:43Z</time>
      </trkpt>
      <trkpt lat="44.98111" lon="3.64463">
        <ele>754.2</ele>
        <time>2021-08-07T10:04:45Z</time>
      </trkpt>
      <trkpt lat="44.98105" lon="3.6447">
        <ele>754.3</ele>
        <time>2021-08-07T10:04:47Z</time>
      </trkpt>
      <trkpt lat="44.981" lon="3.64476">
        <ele>754.4</ele>
        <time>2021-08-07T10:04:49Z</time>
      </trkpt>
      <trkpt lat="44.98094" lon="3.64482">
        <ele>754.3</ele>
        <time>2021-08-07T10:04:51Z</time>
      </trkpt>
      <trkpt lat="44.98089" lon="3.64489">
        <ele>754.4</ele>
        <time>2021-08-07T10:04:53Z</time>
      </trkpt>
      <trkpt lat="44.98084" lon="3.64496">
        <ele>754.4</ele>
        <time>2021-08-07T10:04:55Z</time>
      </trkpt>
      <trkpt lat="44.98078" lon="3.64502">
        <ele>754.7</ele>
        <time>2021-08-07T10:04:57Z</time>
      </trkpt>
      <trkpt lat="44.98073" lon="3.64509">
        <ele>755.1</ele>
        <time>2021-08-07T10:04:59Z</time>
      </trkpt>
      <trkpt lat="44.98068" lon="3.64515">
        <ele>755.6</ele>
        <time>2021-08-07T10:05:01Z</time>
      </trkpt>
      <trkpt lat="44.98063" lon="3.64521">
        <ele>755.9</ele>
        <time>2021-08-07T10:05:03Z</time>
      </trkpt>
      <trkpt lat="44.98057" lon="3.64528">
        <ele>756.4</ele>
        <time>2021-08-07T10:05:05Z</time>
      </trkpt>
      <trkpt lat="44.98052" lon="3.64534">
        <ele>756.8</ele>
        <time>2021-08-07T10:05:07Z</time>
      </trkpt>
      <trkpt lat="44.98048" lon="3.6454">
        <ele>757.4</ele>
        <time>2021-08-07T10:05:09Z</time>
      </trkpt>
      <trkpt lat="44.98042" lon="3.64546">
        <ele>757.7</ele>
        <time>2021-08-07T10:05:11Z</time>
      </trkpt>
      <trkpt lat="44.98036" lon="3.64552">
        <ele>758</ele>
        <time>2021-08-07T10:05:13Z</time>
      </trkpt>
      <trkpt lat="44.9803" lon="3.64556">
        <ele>758</ele>
        <time>2021-08-07T10:05:15Z</time>
      </trkpt>
      <trkpt lat="44.98024" lon="3.6456">
        <ele>757.9</ele>
        <time>2021-08-07T10:05:17Z</time>
      </trkpt>
      <trkpt lat="44.98018" lon="3.64565">
        <ele>758</ele>
        <time>2021-08-07T10:05:19Z</time>
      </trkpt>
      <trkpt lat="44.98012" lon="3.64569">
        <ele>757.9</ele>
        <time>2021-08-07T10:05:21Z</time>
      </trkpt>
      <trkpt lat="44.98007" lon="3.64572">
        <ele>757.7</ele>
        <time>2021-08-07T10:05:23Z</time>
      </trkpt>
      <trkpt lat="44.98001" lon="3.64577">
        <ele>757.8</ele>
        <time>2021-08-07T10:05:25Z</time>
      </trkpt>
      <trkpt lat="44.97995" lon="3.64581">
        <ele>757.8</ele>
        <time>2021-08-07T10:05:27Z</time>
      </trkpt>
      <trkpt lat="44.97989" lon="3.64584">
        <ele>757.7</ele>
        <time>2021-08-07T10:05:29Z</time>
      </trkpt>
      <trkpt lat="44.97984" lon="3.64587">
        <ele>758</ele>
        <time>2021-08-07T10:05:31Z</time>
      </trkpt>
      <trkpt lat="44.97979" lon="3.64591">
        <ele>758.4</ele>
        <time>2021-08-07T10:05:33Z</time>
      </trkpt>
      <trkpt lat="44.97973" lon="3.64595">
        <ele>758.9</ele>
        <time>2021-08-07T10:05:35Z</time>
      </trkpt>
      <trkpt lat="44.97968" lon="3.64599">
        <ele>759.2</ele>
        <time>2021-08-07T10:05:37Z</time>
      </trkpt>
      <trkpt lat="44.97963" lon="3.64602">
        <ele>759.5</ele>
        <time>2021-08-07T10:05:39Z</time>
      </trkpt>
      <trkpt lat="44.97957" lon="3.64606">
        <ele>759.9</ele>
        <time>2021-08-07T10:05:41Z</time>
      </trkpt>
      <trkpt lat="44.97952" lon="3.6461">
        <ele>760.3</ele>
        <time>2021-08-07T10:05:43Z</time>
      </trkpt>
      <trkpt lat="44.97947" lon="3.64614">
        <ele>760.7</ele>
        <time>2021-08-07T10:05:45Z</time>
      </trkpt>
      <trkpt lat="44.97941" lon="3.64618">
        <ele>761</ele>
        <time>2021-08-07T10:05:47Z</time>
      </trkpt>
      <trkpt lat="44.97936" lon="3.64622">
        <ele>761.2</ele>
        <time>2021-08-07T10:05:49Z</time>
      </trkpt>
      <trkpt lat="44.97932" lon="3.64625">
        <ele>761.6</ele>
        <time>2021-08-07T10:05:51Z</time>
      </trkpt>
      <trkpt lat="44.97927" lon="3.64628">
        <ele>761.8</ele>
        <time>2021-08-07T10:05:53Z</time>
      </trkpt>
      <trkpt lat="44.97923" lon="3.64631">
        <ele>762</ele>
        <time>2021-08-07T10:05:55Z</time>
      </trkpt>
      <trkpt lat="44.97918" lon="3.64634">
        <ele>762.1</ele>
        <time>2021-08-07T10:05:57Z</time>
      </trkpt>
      <trkpt lat="44.97914" lon="3.64637">
        <ele>762.3</ele>
        <time>2021-08-07T10:05:59Z</time>
      </trkpt>
      <trkpt lat="44.97909" lon="3.6464">
        <ele>762.6</ele>
        <time>2021-08-07T10:06:01Z</time>
      </trkpt>
      <trkpt lat="44.97905" lon="3.64643">
        <ele>762.8</ele>
        <time>2021-08-07T10:06:03Z</time>
      </trkpt>
      <trkpt lat="44.97901" lon="3.64645">
        <ele>762.8</ele>
        <time>2021-08-07T10:06:05Z</time>
      </trkpt>
      <trkpt lat="44.97897" lon="3.64648">
        <ele>762.8</ele>
        <time>2021-08-07T10:06:07Z</time>
      </trkpt>
      <trkpt lat="44.97892" lon="3.6465">
        <ele>762.7</ele>
        <time>2021-08-07T10:06:09Z</time>
      </trkpt>
      <trkpt lat="44.97888" lon="3.64653">
        <ele>762.8</ele>
        <time>2021-08-07T10:06:11Z</time>
      </trkpt>
      <trkpt lat="44.97884" lon="3.64656">
        <ele>762.9</ele>
        <time>2021-08-07T10:06:13Z</time>
      </trkpt>
      <trkpt lat="44.9788" lon="3.64659">
        <ele>763</ele>
        <time>2021-08-07T10:06:15Z</time>
      </trkpt>
      <trkpt lat="44.97876" lon="3.64661">
        <ele>762.9</ele>
        <time>2021-08-07T10:06:17Z</time>
      </trkpt>
      <trkpt lat="44.97872" lon="3.64664">
        <ele>762.7</ele>
        <time>2021-08-07T10:06:19Z</time>
      </trkpt>
      <trkpt lat="44.97868" lon="3.64666">
        <ele>762.7</ele>
        <time>2021-08-07T10:06:21Z</time>
      </trkpt>
      <trkpt lat="44.97864" lon="3.64669">
        <ele>762.6</ele>
        <time>2021-08-07T10:06:23Z</time>
      </trkpt>
      <trkpt lat="44.97861" lon="3.64671">
        <ele>762.6</ele>
        <time>2021-08-07T10:06:25Z</time>
      </trkpt>
      <trkpt lat="44.97857" lon="3.64674">
        <ele>762.6</ele>
        <time>2021-08-07T10:06:27Z</time>
      </trkpt>
      <trkpt lat="44.97854" lon="3.64676">
        <ele>762.4</ele>
        <time>2021-08-07T10:06:29Z</time>
      </trkpt>
      <trkpt lat="44.9785" lon="3.64679">
        <ele>762.4</ele>
        <time>2021-08-07T10:06:31Z</time>
      </trkpt>
      <trkpt lat="44.97847" lon="3.64682">
        <ele>762.5</ele>
        <time>2021-08-07T10:06:33Z</time>
      </trkpt>
      <trkpt lat="44.97844" lon="3.64685">
        <ele>762.6</ele>
        <time>2021-08-07T10:06:35Z</time>
      </trkpt>
      <trkpt lat="44.9784" lon="3.64689">
        <ele>762.7</ele>
        <time>2021-08-07T10:06:37Z</time>
      </trkpt>
      <trkpt lat="44.97837" lon="3.64692">
        <ele>762.9</ele>
        <time>2021-08-07T10:06:39Z</time>
      </trkpt>
      <trkpt lat="44.97834" lon="3.64696">
        <ele>763</ele>
        <time>2021-08-07T10:06:41Z</time>
      </trkpt>
      <trkpt lat="44.97831" lon="3.64699">
        <ele>763</ele>
        <time>2021-08-07T10:06:43Z</time>
      </trkpt>
      <trkpt lat="44.97828" lon="3.64703">
        <ele>763.2</ele>
        <time>2021-08-07T10:06:45Z</time>
      </trkpt>
      <trkpt lat="44.97825" lon="3.64706">
        <ele>763.2</ele>
        <time>2021-08-07T10:06:47Z</time>
      </trkpt>
      <trkpt lat="44.97822" lon="3.64709">
        <ele>763</ele>
        <time>2021-08-07T10:06:49Z</time>
      </trkpt>
      <trkpt lat="44.97819" lon="3.64712">
        <ele>763</ele>
        <time>2021-08-07T10:06:51Z</time>
      </trkpt>
      <trkpt lat="44.97817" lon="3.64715">
        <ele>763.1</ele>
        <time>2021-08-07T10:06:53Z</time>
      </trkpt>
      <trkpt lat="44.97815" lon="3.64719">
        <ele>763.3</ele>
        <time>2021-08-07T10:06:55Z</time>
      </trkpt>
      <trkpt lat="44.97812" lon="3.64722">
        <ele>763.4</ele>
        <time>2021-08-07T10:06:57Z</time>
      </trkpt>
      <trkpt lat="44.97809" lon="3.64726">
        <ele>763.4</ele>
        <time>2021-08-07T10:06:59Z</time>
      </trkpt>
      <trkpt lat="44.97807" lon="3.6473">
        <ele>763.6</ele>
        <time>2021-08-07T10:07:01Z</time>
      </trkpt>
      <trkpt lat="44.97805" lon="3.64733">
        <ele>763.5</ele>
        <time>2021-08-07T10:07:03Z</time>
      </trkpt>
      <trkpt lat="44.97803" lon="3.64736">
        <ele>763.7</ele>
        <time>2021-08-07T10:07:05Z</time>
      </trkpt>
      <trkpt lat="44.97799" lon="3.64739">
        <ele>763.4</ele>
        <time>2021-08-07T10:07:07Z</time>
      </trkpt>
      <trkpt lat="44.97798" lon="3.64744">
        <ele>764</ele>
        <time>2021-08-07T10:07:09Z</time>
      </trkpt>
      <trkpt lat="44.97797" lon="3.64748">
        <ele>764.5</ele>
        <time>2021-08-07T10:07:11Z</time>
      </trkpt>
      <trkpt lat="44.97796" lon="3.64753">
        <ele>764.5</ele>
        <time>2021-08-07T10:07:13Z</time>
      </trkpt>
      <trkpt lat="44.97795" lon="3.64759">
        <ele>764.3</ele>
        <time>2021-08-07T10:07:15Z</time>
      </trkpt>
      <trkpt lat="44.97795" lon="3.64765">
        <ele>764.1</ele>
        <time>2021-08-07T10:07:17Z</time>
      </trkpt>
      <trkpt lat="44.97794" lon="3.64771">
        <ele>763.9</ele>
        <time>2021-08-07T10:07:19Z</time>
      </trkpt>
      <trkpt lat="44.97795" lon="3.64777">
        <ele>764</ele>
        <time>2021-08-07T10:07:21Z</time>
      </trkpt>
      <trkpt lat="44.97796" lon="3.64782">
        <ele>764.2</ele>
        <time>2021-08-07T10:07:23Z</time>
      </trkpt>
      <trkpt lat="44.97797" lon="3.64788">
        <ele>764.4</ele>
        <time>2021-08-07T10:07:25Z</time>
      </trkpt>
      <trkpt lat="44.97799" lon="3.64793">
        <ele>764.8</ele>
        <time>2021-08-07T10:07:27Z</time>
      </trkpt>
      <trkpt lat="44.978" lon="3.648">
        <ele>765.1</ele>
        <time>2021-08-07T10:07:29Z</time>
      </trkpt>
      <trkpt lat="44.97803" lon="3.64807">
        <ele>765.8</ele>
        <time>2021-08-07T10:07:31Z</time>
      </trkpt>
      <trkpt lat="44.97807" lon="3.64815">
        <ele>766.7</ele>
        <time>2021-08-07T10:07:33Z</time>
      </trkpt>
      <trkpt lat="44.97812" lon="3.64826">
        <ele>767.6</ele>
        <time>2021-08-07T10:07:35Z</time>
      </trkpt>
      <trkpt lat="44.97817" lon="3.64838">
        <ele>768.4</ele>
        <time>2021-08-07T10:07:37Z</time>
      </trkpt>
      <trkpt lat="44.97822" lon="3.64852">
        <ele>768.2</ele>
        <time>2021-08-07T10:07:39Z</time>
      </trkpt>
      <trkpt lat="44.97829" lon="3.64865">
        <ele>768</ele>
        <time>2021-08-07T10:07:41Z</time>
      </trkpt>
      <trkpt lat="44.97837" lon="3.64877">
        <ele>768</ele>
        <time>2021-08-07T10:07:43Z</time>
      </trkpt>
      <trkpt lat="44.97847" lon="3.6489">
        <ele>768.2</ele>
        <time>2021-08-07T10:07:45Z</time>
      </trkpt>
      <trkpt lat="44.97857" lon="3.64902">
        <ele>768</ele>
        <time>2021-08-07T10:07:47Z</time>
      </trkpt>
      <trkpt lat="44.97868" lon="3.64916">
        <ele>767.5</ele>
        <time>2021-08-07T10:07:49Z</time>
      </trkpt>
      <trkpt lat="44.97876" lon="3.64932">
        <ele>768.1</ele>
        <time>2021-08-07T10:07:51Z</time>
      </trkpt>
      <trkpt lat="44.97878" lon="3.64952">
        <ele>767.9</ele>
        <time>2021-08-07T10:07:53Z</time>
      </trkpt>
      <trkpt lat="44.97876" lon="3.6497">
        <ele>767</ele>
        <time>2021-08-07T10:07:55Z</time>
      </trkpt>
      <trkpt lat="44.97872" lon="3.64985">
        <ele>766.2</ele>
        <time>2021-08-07T10:07:57Z</time>
      </trkpt>
      <trkpt lat="44.97868" lon="3.64996">
        <ele>765.4</ele>
        <time>2021-08-07T10:07:59Z</time>
      </trkpt>
      <trkpt lat="44.97864" lon="3.65006">
        <ele>765.5</ele>
        <time>2021-08-07T10:08:01Z</time>
      </trkpt>
      <trkpt lat="44.97859" lon="3.65015">
        <ele>765.8</ele>
        <time>2021-08-07T10:08:03Z</time>
      </trkpt>
      <trkpt lat="44.97854" lon="3.65023">
        <ele>766</ele>
        <time>2021-08-07T10:08:05Z</time>
      </trkpt>
      <trkpt lat="44.9785" lon="3.6503">
        <ele>766.2</ele>
        <time>2021-08-07T10:08:07Z</time>
      </trkpt>
      <trkpt lat="44.97847" lon="3.65037">
        <ele>766.5</ele>
        <time>2021-08-07T10:08:09Z</time>
      </trkpt>
      <trkpt lat="44.97845" lon="3.65043">
        <ele>766.8</ele>
        <time>2021-08-07T10:08:11Z</time>
      </trkpt>
      <trkpt lat="44.97842" lon="3.65049">
        <ele>767</ele>
        <time>2021-08-07T10:08:13Z</time>
      </trkpt>
      <trkpt lat="44.97839" lon="3.65055">
        <ele>767.2</ele>
        <time>2021-08-07T10:08:15Z</time>
      </trkpt>
      <trkpt lat="44.97836" lon="3.6506">
        <ele>767.4</ele>
        <time>2021-08-07T10:08:17Z</time>
      </trkpt>
      <trkpt lat="44.97834" lon="3.65066">
        <ele>767.6</ele>
        <time>2021-08-07T10:08:19Z</time>
      </trkpt>
      <trkpt lat="44.97831" lon="3.65072">
        <ele>767.8</ele>
        <time>2021-08-07T10:08:21Z</time>
      </trkpt>
      <trkpt lat="44.97828" lon="3.65078">
        <ele>768.1</ele>
        <time>2021-08-07T10:08:23Z</time>
      </trkpt>
      <trkpt lat="44.97826" lon="3.65083">
        <ele>768.3</ele>
        <time>2021-08-07T10:08:25Z</time>
      </trkpt>
      <trkpt lat="44.97823" lon="3.65088">
        <ele>768.5</ele>
        <time>2021-08-07T10:08:27Z</time>
      </trkpt>
      <trkpt lat="44.97821" lon="3.65094">
        <ele>768.7</ele>
        <time>2021-08-07T10:08:29Z</time>
      </trkpt>
      <trkpt lat="44.97819" lon="3.65098">
        <ele>768.8</ele>
        <time>2021-08-07T10:08:31Z</time>
      </trkpt>
      <trkpt lat="44.97816" lon="3.65103">
        <ele>769</ele>
        <time>2021-08-07T10:08:33Z</time>
      </trkpt>
      <trkpt lat="44.97815" lon="3.65109">
        <ele>769.2</ele>
        <time>2021-08-07T10:08:35Z</time>
      </trkpt>
      <trkpt lat="44.97811" lon="3.65114">
        <ele>769.3</ele>
        <time>2021-08-07T10:08:37Z</time>
      </trkpt>
      <trkpt lat="44.97809" lon="3.65119">
        <ele>769.4</ele>
        <time>2021-08-07T10:08:39Z</time>
      </trkpt>
      <trkpt lat="44.97806" lon="3.65124">
        <ele>769.5</ele>
        <time>2021-08-07T10:08:41Z</time>
      </trkpt>
      <trkpt lat="44.97804" lon="3.6513">
        <ele>769.7</ele>
        <time>2021-08-07T10:08:43Z</time>
      </trkpt>
      <trkpt lat="44.97801" lon="3.65135">
        <ele>769.7</ele>
        <time>2021-08-07T10:08:45Z</time>
      </trkpt>
      <trkpt lat="44.97799" lon="3.6514">
        <ele>769.9</ele>
        <time>2021-08-07T10:08:47Z</time>
      </trkpt>
      <trkpt lat="44.97796" lon="3.65146">
        <ele>770</ele>
        <time>2021-08-07T10:08:49Z</time>
      </trkpt>
      <trkpt lat="44.97793" lon="3.65152">
        <ele>770.2</ele>
        <time>2021-08-07T10:08:51Z</time>
      </trkpt>
      <trkpt lat="44.9779" lon="3.65158">
        <ele>770.3</ele>
        <time>2021-08-07T10:08:53Z</time>
      </trkpt>
      <trkpt lat="44.97787" lon="3.65164">
        <ele>770.4</ele>
        <time>2021-08-07T10:08:55Z</time>
      </trkpt>
      <trkpt lat="44.97784" lon="3.6517">
        <ele>770.6</ele>
        <time>2021-08-07T10:08:57Z</time>
      </trkpt>
      <trkpt lat="44.97781" lon="3.65176">
        <ele>770.8</ele>
        <time>2021-08-07T10:08:59Z</time>
      </trkpt>
      <trkpt lat="44.97778" lon="3.65183">
        <ele>771.1</ele>
        <time>2021-08-07T10:09:01Z</time>
      </trkpt>
      <trkpt lat="44.97775" lon="3.65189">
        <ele>771.3</ele>
        <time>2021-08-07T10:09:03Z</time>
      </trkpt>
      <trkpt lat="44.97772" lon="3.65196">
        <ele>771.6</ele>
        <time>2021-08-07T10:09:05Z</time>
      </trkpt>
      <trkpt lat="44.97769" lon="3.65202">
        <ele>771.9</ele>
        <time>2021-08-07T10:09:07Z</time>
      </trkpt>
      <trkpt lat="44.97766" lon="3.65208">
        <ele>772.2</ele>
        <time>2021-08-07T10:09:09Z</time>
      </trkpt>
      <trkpt lat="44.97763" lon="3.65214">
        <ele>772.4</ele>
        <time>2021-08-07T10:09:11Z</time>
      </trkpt>
      <trkpt lat="44.9776" lon="3.65221">
        <ele>772.6</ele>
        <time>2021-08-07T10:09:13Z</time>
      </trkpt>
      <trkpt lat="44.97758" lon="3.65226">
        <ele>772.8</ele>
        <time>2021-08-07T10:09:15Z</time>
      </trkpt>
      <trkpt lat="44.97755" lon="3.65231">
        <ele>772.9</ele>
        <time>2021-08-07T10:09:17Z</time>
      </trkpt>
      <trkpt lat="44.97751" lon="3.65237">
        <ele>773</ele>
        <time>2021-08-07T10:09:19Z</time>
      </trkpt>
      <trkpt lat="44.97749" lon="3.65243">
        <ele>773.3</ele>
        <time>2021-08-07T10:09:21Z</time>
      </trkpt>
      <trkpt lat="44.97746" lon="3.65249">
        <ele>773.6</ele>
        <time>2021-08-07T10:09:23Z</time>
      </trkpt>
      <trkpt lat="44.97743" lon="3.65256">
        <ele>774</ele>
        <time>2021-08-07T10:09:25Z</time>
      </trkpt>
      <trkpt lat="44.97741" lon="3.65262">
        <ele>774.3</ele>
        <time>2021-08-07T10:09:27Z</time>
      </trkpt>
      <trkpt lat="44.97739" lon="3.65269">
        <ele>774.6</ele>
        <time>2021-08-07T10:09:29Z</time>
      </trkpt>
      <trkpt lat="44.97735" lon="3.65274">
        <ele>774.8</ele>
        <time>2021-08-07T10:09:31Z</time>
      </trkpt>
      <trkpt lat="44.97733" lon="3.6528">
        <ele>775.1</ele>
        <time>2021-08-07T10:09:33Z</time>
      </trkpt>
      <trkpt lat="44.9773" lon="3.65286">
        <ele>775.3</ele>
        <time>2021-08-07T10:09:35Z</time>
      </trkpt>
      <trkpt lat="44.97727" lon="3.65292">
        <ele>775.5</ele>
        <time>2021-08-07T10:09:37Z</time>
      </trkpt>
      <trkpt lat="44.97725" lon="3.65297">
        <ele>775.6</ele>
        <time>2021-08-07T10:09:39Z</time>
      </trkpt>
      <trkpt lat="44.97722" lon="3.65303">
        <ele>775.8</ele>
        <time>2021-08-07T10:09:41Z</time>
      </trkpt>
      <trkpt lat="44.97719" lon="3.65308">
        <ele>775.9</ele>
        <time>2021-08-07T10:09:43Z</time>
      </trkpt>
      <trkpt lat="44.97716" lon="3.65313">
        <ele>776</ele>
        <time>2021-08-07T10:09:45Z</time>
      </trkpt>
      <trkpt lat="44.97714" lon="3.6532">
        <ele>776.2</ele>
        <time>2021-08-07T10:09:47Z</time>
      </trkpt>
      <trkpt lat="44.9771" lon="3.65325">
        <ele>776.2</ele>
        <time>2021-08-07T10:09:49Z</time>
      </trkpt>
      <trkpt lat="44.97708" lon="3.65331">
        <ele>776.3</ele>
        <time>2021-08-07T10:09:51Z</time>
      </trkpt>
      <trkpt lat="44.97706" lon="3.65337">
        <ele>776.4</ele>
        <time>2021-08-07T10:09:53Z</time>
      </trkpt>
      <trkpt lat="44.97703" lon="3.65342">
        <ele>776.4</ele>
        <time>2021-08-07T10:09:55Z</time>
      </trkpt>
      <trkpt lat="44.977" lon="3.65347">
        <ele>776.4</ele>
        <time>2021-08-07T10:09:57Z</time>
      </trkpt>
      <trkpt lat="44.97697" lon="3.65352">
        <ele>776.3</ele>
        <time>2021-08-07T10:09:59Z</time>
      </trkpt>
      <trkpt lat="44.97695" lon="3.65359">
        <ele>776.4</ele>
        <time>2021-08-07T10:10:01Z</time>
      </trkpt>
      <trkpt lat="44.97692" lon="3.65365">
        <ele>776.6</ele>
        <time>2021-08-07T10:10:03Z</time>
      </trkpt>
      <trkpt lat="44.97689" lon="3.65371">
        <ele>776.6</ele>
        <time>2021-08-07T10:10:05Z</time>
      </trkpt>
      <trkpt lat="44.97687" lon="3.65378">
        <ele>776.8</ele>
        <time>2021-08-07T10:10:07Z</time>
      </trkpt>
      <trkpt lat="44.97685" lon="3.65384">
        <ele>776.9</ele>
        <time>2021-08-07T10:10:09Z</time>
      </trkpt>
      <trkpt lat="44.97684" lon="3.65391">
        <ele>777.1</ele>
        <time>2021-08-07T10:10:11Z</time>
      </trkpt>
      <trkpt lat="44.97682" lon="3.65398">
        <ele>777.4</ele>
        <time>2021-08-07T10:10:13Z</time>
      </trkpt>
      <trkpt lat="44.9768" lon="3.65405">
        <ele>777.6</ele>
        <time>2021-08-07T10:10:15Z</time>
      </trkpt>
      <trkpt lat="44.97679" lon="3.65412">
        <ele>777.9</ele>
        <time>2021-08-07T10:10:17Z</time>
      </trkpt>
      <trkpt lat="44.97678" lon="3.65419">
        <ele>778.1</ele>
        <time>2021-08-07T10:10:19Z</time>
      </trkpt>
      <trkpt lat="44.97677" lon="3.65425">
        <ele>778</ele>
        <time>2021-08-07T10:10:21Z</time>
      </trkpt>
      <trkpt lat="44.97676" lon="3.65432">
        <ele>777.8</ele>
        <time>2021-08-07T10:10:23Z</time>
      </trkpt>
      <trkpt lat="44.97676" lon="3.6544">
        <ele>777.9</ele>
        <time>2021-08-07T10:10:25Z</time>
      </trkpt>
      <trkpt lat="44.97677" lon="3.65448">
        <ele>777.9</ele>
        <time>2021-08-07T10:10:27Z</time>
      </trkpt>
      <trkpt lat="44.97677" lon="3.65457">
        <ele>777.9</ele>
        <time>2021-08-07T10:10:29Z</time>
      </trkpt>
      <trkpt lat="44.97677" lon="3.65465">
        <ele>777.9</ele>
        <time>2021-08-07T10:10:31Z</time>
      </trkpt>
      <trkpt lat="44.97677" lon="3.65474">
        <ele>777.9</ele>
        <time>2021-08-07T10:10:33Z</time>
      </trkpt>
      <trkpt lat="44.97678" lon="3.65484">
        <ele>777.9</ele>
        <time>2021-08-07T10:10:35Z</time>
      </trkpt>
      <trkpt lat="44.97678" lon="3.65496">
        <ele>778</ele>
        <time>2021-08-07T10:10:37Z</time>
      </trkpt>
      <trkpt lat="44.97679" lon="3.65508">
        <ele>777.7</ele>
        <time>2021-08-07T10:10:39Z</time>
      </trkpt>
      <trkpt lat="44.97679" lon="3.65521">
        <ele>777.1</ele>
        <time>2021-08-07T10:10:41Z</time>
      </trkpt>
      <trkpt lat="44.9768" lon="3.65535">
        <ele>776.6</ele>
        <time>2021-08-07T10:10:43Z</time>
      </trkpt>
      <trkpt lat="44.97681" lon="3.65549">
        <ele>776.1</ele>
        <time>2021-08-07T10:10:45Z</time>
      </trkpt>
      <trkpt lat="44.97683" lon="3.65564">
        <ele>775.6</ele>
        <time>2021-08-07T10:10:47Z</time>
      </trkpt>
      <trkpt lat="44.97685" lon="3.65578">
        <ele>775.2</ele>
        <time>2021-08-07T10:10:49Z</time>
      </trkpt>
      <trkpt lat="44.97687" lon="3.65589">
        <ele>774.9</ele>
        <time>2021-08-07T10:10:51Z</time>
      </trkpt>
      <trkpt lat="44.97689" lon="3.65598">
        <ele>774.6</ele>
        <time>2021-08-07T10:10:53Z</time>
      </trkpt>
      <trkpt lat="44.97689" lon="3.65606">
        <ele>774.2</ele>
        <time>2021-08-07T10:10:55Z</time>
      </trkpt>
      <trkpt lat="44.9769" lon="3.65612">
        <ele>774</ele>
        <time>2021-08-07T10:10:57Z</time>
      </trkpt>
      <trkpt lat="44.97691" lon="3.65619">
        <ele>773.7</ele>
        <time>2021-08-07T10:10:59Z</time>
      </trkpt>
      <trkpt lat="44.97691" lon="3.65623">
        <ele>773.5</ele>
        <time>2021-08-07T10:11:01Z</time>
      </trkpt>
      <trkpt lat="44.97691" lon="3.65623">
        <ele>773.5</ele>
        <time>2021-08-07T10:11:03Z</time>
      </trkpt>
      <trkpt lat="44.97691" lon="3.65623">
        <ele>773.4</ele>
        <time>2021-08-07T10:11:05Z</time>
      </trkpt>
      <trkpt lat="44.97691" lon="3.65623">
        <ele>773.4</ele>
        <time>2021-08-07T10:11:07Z</time>
      </trkpt>
      <trkpt lat="44.97691" lon="3.65623">
        <ele>773.4</ele>
        <time>2021-08-07T10:11:09Z</time>
      </trkpt>
      <trkpt lat="44.97702" lon="3.65634">
        <ele>773.8</ele>
        <time>2021-08-07T10:12:31Z</time>
      </trkpt>
      <trkpt lat="44.97704" lon="3.65639">
        <ele>773.8</ele>
        <time>2021-08-07T10:12:33Z</time>
      </trkpt>
      <trkpt lat="44.97708" lon="3.65643">
        <ele>773.9</ele>
        <time>2021-08-07T10:12:35Z</time>
      </trkpt>
      <trkpt lat="44.97711" lon="3.65647">
        <ele>773.9</ele>
        <time>2021-08-07T10:12:37Z</time>
      </trkpt>
      <trkpt lat="44.97715" lon="3.65653">
        <ele>773.9</ele>
        <time>2021-08-07T10:12:39Z</time>
      </trkpt>
      <trkpt lat="44.9772" lon="3.65658">
        <ele>774</ele>
        <time>2021-08-07T10:12:41Z</time>
      </trkpt>
      <trkpt lat="44.97724" lon="3.65663">
        <ele>774</ele>
        <time>2021-08-07T10:12:43Z</time>
      </trkpt>
      <trkpt lat="44.97728" lon="3.65669">
        <ele>774.1</ele>
        <time>2021-08-07T10:12:45Z</time>
      </trkpt>
      <trkpt lat="44.97733" lon="3.65675">
        <ele>774.1</ele>
        <time>2021-08-07T10:12:47Z</time>
      </trkpt>
      <trkpt lat="44.97737" lon="3.65679">
        <ele>774.1</ele>
        <time>2021-08-07T10:12:49Z</time>
      </trkpt>
      <trkpt lat="44.97741" lon="3.65686">
        <ele>774.2</ele>
        <time>2021-08-07T10:12:51Z</time>
      </trkpt>
      <trkpt lat="44.97745" lon="3.65691">
        <ele>774.2</ele>
        <time>2021-08-07T10:12:53Z</time>
      </trkpt>
      <trkpt lat="44.9775" lon="3.65696">
        <ele>774.2</ele>
        <time>2021-08-07T10:12:55Z</time>
      </trkpt>
      <trkpt lat="44.97754" lon="3.65702">
        <ele>774.7</ele>
        <time>2021-08-07T10:12:57Z</time>
      </trkpt>
      <trkpt lat="44.97758" lon="3.65707">
        <ele>775.2</ele>
        <time>2021-08-07T10:12:59Z</time>
      </trkpt>
      <trkpt lat="44.97762" lon="3.65711">
        <ele>775.8</ele>
        <time>2021-08-07T10:13:01Z</time>
      </trkpt>
      <trkpt lat="44.97767" lon="3.65716">
        <ele>776.3</ele>
        <time>2021-08-07T10:13:03Z</time>
      </trkpt>
      <trkpt lat="44.9777" lon="3.65722">
        <ele>776.8</ele>
        <time>2021-08-07T10:13:05Z</time>
      </trkpt>
      <trkpt lat="44.97774" lon="3.65726">
        <ele>777.3</ele>
        <time>2021-08-07T10:13:07Z</time>
      </trkpt>
      <trkpt lat="44.97778" lon="3.6573">
        <ele>777.8</ele>
        <time>2021-08-07T10:13:09Z</time>
      </trkpt>
      <trkpt lat="44.97781" lon="3.65733">
        <ele>778.3</ele>
        <time>2021-08-07T10:13:11Z</time>
      </trkpt>
      <trkpt lat="44.97784" lon="3.65738">
        <ele>778.6</ele>
        <time>2021-08-07T10:13:13Z</time>
      </trkpt>
      <trkpt lat="44.97787" lon="3.65743">
        <ele>779</ele>
        <time>2021-08-07T10:13:15Z</time>
      </trkpt>
      <trkpt lat="44.97791" lon="3.65747">
        <ele>779.5</ele>
        <time>2021-08-07T10:13:17Z</time>
      </trkpt>
      <trkpt lat="44.97794" lon="3.65751">
        <ele>779.9</ele>
        <time>2021-08-07T10:13:19Z</time>
      </trkpt>
      <trkpt lat="44.97797" lon="3.65756">
        <ele>780.2</ele>
        <time>2021-08-07T10:13:21Z</time>
      </trkpt>
      <trkpt lat="44.978" lon="3.6576">
        <ele>780.5</ele>
        <time>2021-08-07T10:13:23Z</time>
      </trkpt>
      <trkpt lat="44.97803" lon="3.65763">
        <ele>780.9</ele>
        <time>2021-08-07T10:13:25Z</time>
      </trkpt>
      <trkpt lat="44.97806" lon="3.65767">
        <ele>781.1</ele>
        <time>2021-08-07T10:13:27Z</time>
      </trkpt>
      <trkpt lat="44.97809" lon="3.65772">
        <ele>781.3</ele>
        <time>2021-08-07T10:13:29Z</time>
      </trkpt>
      <trkpt lat="44.97813" lon="3.65775">
        <ele>781.6</ele>
        <time>2021-08-07T10:13:31Z</time>
      </trkpt>
      <trkpt lat="44.97816" lon="3.65779">
        <ele>781.8</ele>
        <time>2021-08-07T10:13:33Z</time>
      </trkpt>
      <trkpt lat="44.97819" lon="3.65784">
        <ele>781.9</ele>
        <time>2021-08-07T10:13:35Z</time>
      </trkpt>
      <trkpt lat="44.97822" lon="3.65788">
        <ele>782.1</ele>
        <time>2021-08-07T10:13:37Z</time>
      </trkpt>
      <trkpt lat="44.97826" lon="3.65791">
        <ele>782.3</ele>
        <time>2021-08-07T10:13:39Z</time>
      </trkpt>
      <trkpt lat="44.97829" lon="3.65796">
        <ele>782.4</ele>
        <time>2021-08-07T10:13:41Z</time>
      </trkpt>
      <trkpt lat="44.97832" lon="3.658">
        <ele>782.5</ele>
        <time>2021-08-07T10:13:43Z</time>
      </trkpt>
      <trkpt lat="44.97835" lon="3.65804">
        <ele>782.5</ele>
        <time>2021-08-07T10:13:45Z</time>
      </trkpt>
      <trkpt lat="44.97839" lon="3.65808">
        <ele>782.6</ele>
        <time>2021-08-07T10:13:47Z</time>
      </trkpt>
      <trkpt lat="44.97842" lon="3.65812">
        <ele>782.7</ele>
        <time>2021-08-07T10:13:49Z</time>
      </trkpt>
      <trkpt lat="44.97846" lon="3.65815">
        <ele>782.7</ele>
        <time>2021-08-07T10:13:51Z</time>
      </trkpt>
      <trkpt lat="44.97849" lon="3.65818">
        <ele>782.9</ele>
        <time>2021-08-07T10:13:53Z</time>
      </trkpt>
      <trkpt lat="44.97852" lon="3.65821">
        <ele>783</ele>
        <time>2021-08-07T10:13:55Z</time>
      </trkpt>
      <trkpt lat="44.97855" lon="3.65824">
        <ele>783</ele>
        <time>2021-08-07T10:13:57Z</time>
      </trkpt>
      <trkpt lat="44.97858" lon="3.65827">
        <ele>783.1</ele>
        <time>2021-08-07T10:13:59Z</time>
      </trkpt>
      <trkpt lat="44.97862" lon="3.65831">
        <ele>783.1</ele>
        <time>2021-08-07T10:14:01Z</time>
      </trkpt>
      <trkpt lat="44.97865" lon="3.65833">
        <ele>783.2</ele>
        <time>2021-08-07T10:14:03Z</time>
      </trkpt>
      <trkpt lat="44.97869" lon="3.65837">
        <ele>783.6</ele>
        <time>2021-08-07T10:14:05Z</time>
      </trkpt>
      <trkpt lat="44.97872" lon="3.6584">
        <ele>783.8</ele>
        <time>2021-08-07T10:14:07Z</time>
      </trkpt>
      <trkpt lat="44.97876" lon="3.65843">
        <ele>784.1</ele>
        <time>2021-08-07T10:14:09Z</time>
      </trkpt>
      <trkpt lat="44.97879" lon="3.65847">
        <ele>784.4</ele>
        <time>2021-08-07T10:14:11Z</time>
      </trkpt>
      <trkpt lat="44.97883" lon="3.6585">
        <ele>784.7</ele>
        <time>2021-08-07T10:14:13Z</time>
      </trkpt>
      <trkpt lat="44.97886" lon="3.65853">
        <ele>784.9</ele>
        <time>2021-08-07T10:14:15Z</time>
      </trkpt>
      <trkpt lat="44.97889" lon="3.65855">
        <ele>785.2</ele>
        <time>2021-08-07T10:14:17Z</time>
      </trkpt>
      <trkpt lat="44.97892" lon="3.65858">
        <ele>785.5</ele>
        <time>2021-08-07T10:14:19Z</time>
      </trkpt>
      <trkpt lat="44.97896" lon="3.65861">
        <ele>785.7</ele>
        <time>2021-08-07T10:14:21Z</time>
      </trkpt>
      <trkpt lat="44.97899" lon="3.65864">
        <ele>786</ele>
        <time>2021-08-07T10:14:23Z</time>
      </trkpt>
      <trkpt lat="44.97902" lon="3.65867">
        <ele>786.1</ele>
        <time>2021-08-07T10:14:25Z</time>
      </trkpt>
      <trkpt lat="44.97905" lon="3.6587">
        <ele>786.4</ele>
        <time>2021-08-07T10:14:27Z</time>
      </trkpt>
      <trkpt lat="44.97908" lon="3.65873">
        <ele>786.6</ele>
        <time>2021-08-07T10:14:29Z</time>
      </trkpt>
      <trkpt lat="44.97911" lon="3.65876">
        <ele>786.8</ele>
        <time>2021-08-07T10:14:31Z</time>
      </trkpt>
      <trkpt lat="44.97914" lon="3.65879">
        <ele>787</ele>
        <time>2021-08-07T10:14:33Z</time>
      </trkpt>
      <trkpt lat="44.97918" lon="3.65882">
        <ele>787.2</ele>
        <time>2021-08-07T10:14:35Z</time>
      </trkpt>
      <trkpt lat="44.97921" lon="3.65886">
        <ele>787.4</ele>
        <time>2021-08-07T10:14:37Z</time>
      </trkpt>
      <trkpt lat="44.97924" lon="3.65889">
        <ele>787.6</ele>
        <time>2021-08-07T10:14:39Z</time>
      </trkpt>
      <trkpt lat="44.97928" lon="3.65892">
        <ele>787.8</ele>
        <time>2021-08-07T10:14:41Z</time>
      </trkpt>
      <trkpt lat="44.97931" lon="3.65895">
        <ele>788.1</ele>
        <time>2021-08-07T10:14:43Z</time>
      </trkpt>
      <trkpt lat="44.97934" lon="3.65898">
        <ele>788.2</ele>
        <time>2021-08-07T10:14:45Z</time>
      </trkpt>
      <trkpt lat="44.97937" lon="3.65901">
        <ele>788.4</ele>
        <time>2021-08-07T10:14:47Z</time>
      </trkpt>
      <trkpt lat="44.9794" lon="3.65904">
        <ele>788.6</ele>
        <time>2021-08-07T10:14:49Z</time>
      </trkpt>
      <trkpt lat="44.97943" lon="3.65907">
        <ele>788.8</ele>
        <time>2021-08-07T10:14:51Z</time>
      </trkpt>
      <trkpt lat="44.97946" lon="3.6591">
        <ele>789</ele>
        <time>2021-08-07T10:14:53Z</time>
      </trkpt>
      <trkpt lat="44.97949" lon="3.65913">
        <ele>789.1</ele>
        <time>2021-08-07T10:14:55Z</time>
      </trkpt>
      <trkpt lat="44.97952" lon="3.65916">
        <ele>789.3</ele>
        <time>2021-08-07T10:14:57Z</time>
      </trkpt>
      <trkpt lat="44.97955" lon="3.65919">
        <ele>789.6</ele>
        <time>2021-08-07T10:14:59Z</time>
      </trkpt>
      <trkpt lat="44.97959" lon="3.65922">
        <ele>789.9</ele>
        <time>2021-08-07T10:15:01Z</time>
      </trkpt>
      <trkpt lat="44.97962" lon="3.65924">
        <ele>790.2</ele>
        <time>2021-08-07T10:15:03Z</time>
      </trkpt>
      <trkpt lat="44.97965" lon="3.65927">
        <ele>790.4</ele>
        <time>2021-08-07T10:15:05Z</time>
      </trkpt>
      <trkpt lat="44.97968" lon="3.65931">
        <ele>790.7</ele>
        <time>2021-08-07T10:15:07Z</time>
      </trkpt>
      <trkpt lat="44.97971" lon="3.65934">
        <ele>790.9</ele>
        <time>2021-08-07T10:15:09Z</time>
      </trkpt>
      <trkpt lat="44.97974" lon="3.65937">
        <ele>791.2</ele>
        <time>2021-08-07T10:15:11Z</time>
      </trkpt>
      <trkpt lat="44.97977" lon="3.65939">
        <ele>791.5</ele>
        <time>2021-08-07T10:15:13Z</time>
      </trkpt>
      <trkpt lat="44.9798" lon="3.65943">
        <ele>791.7</ele>
        <time>2021-08-07T10:15:15Z</time>
      </trkpt>
      <trkpt lat="44.97983" lon="3.65946">
        <ele>792</ele>
        <time>2021-08-07T10:15:17Z</time>
      </trkpt>
      <trkpt lat="44.97986" lon="3.65948">
        <ele>792.2</ele>
        <time>2021-08-07T10:15:19Z</time>
      </trkpt>
      <trkpt lat="44.97989" lon="3.65951">
        <ele>792.5</ele>
        <time>2021-08-07T10:15:21Z</time>
      </trkpt>
      <trkpt lat="44.97992" lon="3.65954">
        <ele>792.7</ele>
        <time>2021-08-07T10:15:23Z</time>
      </trkpt>
      <trkpt lat="44.97995" lon="3.65956">
        <ele>793</ele>
        <time>2021-08-07T10:15:25Z</time>
      </trkpt>
      <trkpt lat="44.97998" lon="3.65959">
        <ele>793.2</ele>
        <time>2021-08-07T10:15:27Z</time>
      </trkpt>
      <trkpt lat="44.98001" lon="3.65962">
        <ele>793.5</ele>
        <time>2021-08-07T10:15:29Z</time>
      </trkpt>
      <trkpt lat="44.98004" lon="3.65965">
        <ele>793.7</ele>
        <time>2021-08-07T10:15:31Z</time>
      </trkpt>
      <trkpt lat="44.98007" lon="3.65968">
        <ele>793.9</ele>
        <time>2021-08-07T10:15:33Z</time>
      </trkpt>
      <trkpt lat="44.9801" lon="3.6597">
        <ele>794.1</ele>
        <time>2021-08-07T10:15:35Z</time>
      </trkpt>
      <trkpt lat="44.98012" lon="3.65973">
        <ele>794.3</ele>
        <time>2021-08-07T10:15:37Z</time>
      </trkpt>
      <trkpt lat="44.98015" lon="3.65976">
        <ele>794.5</ele>
        <time>2021-08-07T10:15:39Z</time>
      </trkpt>
      <trkpt lat="44.98018" lon="3.65979">
        <ele>794.7</ele>
        <time>2021-08-07T10:15:41Z</time>
      </trkpt>
      <trkpt lat="44.98021" lon="3.65981">
        <ele>794.9</ele>
        <time>2021-08-07T10:15:43Z</time>
      </trkpt>
      <trkpt lat="44.98024" lon="3.65984">
        <ele>795.1</ele>
        <time>2021-08-07T10:15:45Z</time>
      </trkpt>
      <trkpt lat="44.98027" lon="3.65987">
        <ele>795.4</ele>
        <time>2021-08-07T10:15:47Z</time>
      </trkpt>
      <trkpt lat="44.9803" lon="3.65989">
        <ele>795.6</ele>
        <time>2021-08-07T10:15:49Z</time>
      </trkpt>
      <trkpt lat="44.98033" lon="3.65992">
        <ele>795.8</ele>
        <time>2021-08-07T10:15:51Z</time>
      </trkpt>
      <trkpt lat="44.98036" lon="3.65995">
        <ele>796</ele>
        <time>2021-08-07T10:15:53Z</time>
      </trkpt>
      <trkpt lat="44.98038" lon="3.65998">
        <ele>796.2</ele>
        <time>2021-08-07T10:15:55Z</time>
      </trkpt>
      <trkpt lat="44.98041" lon="3.66">
        <ele>796.5</ele>
        <time>2021-08-07T10:15:57Z</time>
      </trkpt>
      <trkpt lat="44.98044" lon="3.66003">
        <ele>796.8</ele>
        <time>2021-08-07T10:15:59Z</time>
      </trkpt>
      <trkpt lat="44.98047" lon="3.66006">
        <ele>797.1</ele>
        <time>2021-08-07T10:16:01Z</time>
      </trkpt>
      <trkpt lat="44.9805" lon="3.66008">
        <ele>797.4</ele>
        <time>2021-08-07T10:16:03Z</time>
      </trkpt>
      <trkpt lat="44.98053" lon="3.66011">
        <ele>797.8</ele>
        <time>2021-08-07T10:16:05Z</time>
      </trkpt>
      <trkpt lat="44.98056" lon="3.66014">
        <ele>798.1</ele>
        <time>2021-08-07T10:16:07Z</time>
      </trkpt>
      <trkpt lat="44.98059" lon="3.66017">
        <ele>798.4</ele>
        <time>2021-08-07T10:16:09Z</time>
      </trkpt>
      <trkpt lat="44.98062" lon="3.6602">
        <ele>798.7</ele>
        <time>2021-08-07T10:16:11Z</time>
      </trkpt>
      <trkpt lat="44.98065" lon="3.66023">
        <ele>799</ele>
        <time>2021-08-07T10:16:13Z</time>
      </trkpt>
      <trkpt lat="44.98068" lon="3.66026">
        <ele>799.3</ele>
        <time>2021-08-07T10:16:15Z</time>
      </trkpt>
      <trkpt lat="44.9807" lon="3.66029">
        <ele>799.6</ele>
        <time>2021-08-07T10:16:17Z</time>
      </trkpt>
      <trkpt lat="44.98073" lon="3.66033">
        <ele>799.9</ele>
        <time>2021-08-07T10:16:19Z</time>
      </trkpt>
      <trkpt lat="44.98076" lon="3.66036">
        <ele>800.2</ele>
        <time>2021-08-07T10:16:21Z</time>
      </trkpt>
      <trkpt lat="44.98078" lon="3.66041">
        <ele>800.4</ele>
        <time>2021-08-07T10:16:23Z</time>
      </trkpt>
      <trkpt lat="44.9808" lon="3.66045">
        <ele>800.7</ele>
        <time>2021-08-07T10:16:25Z</time>
      </trkpt>
      <trkpt lat="44.98082" lon="3.66049">
        <ele>800.9</ele>
        <time>2021-08-07T10:16:27Z</time>
      </trkpt>
      <trkpt lat="44.98084" lon="3.66054">
        <ele>801.1</ele>
        <time>2021-08-07T10:16:29Z</time>
      </trkpt>
      <trkpt lat="44.98085" lon="3.66058">
        <ele>801.3</ele>
        <time>2021-08-07T10:16:31Z</time>
      </trkpt>
      <trkpt lat="44.98086" lon="3.66063">
        <ele>801.5</ele>
        <time>2021-08-07T10:16:33Z</time>
      </trkpt>
      <trkpt lat="44.98087" lon="3.66068">
        <ele>801.6</ele>
        <time>2021-08-07T10:16:35Z</time>
      </trkpt>
      <trkpt lat="44.98088" lon="3.66073">
        <ele>801.8</ele>
        <time>2021-08-07T10:16:37Z</time>
      </trkpt>
      <trkpt lat="44.98089" lon="3.66078">
        <ele>801.9</ele>
        <time>2021-08-07T10:16:39Z</time>
      </trkpt>
      <trkpt lat="44.98089" lon="3.66083">
        <ele>802</ele>
        <time>2021-08-07T10:16:41Z</time>
      </trkpt>
      <trkpt lat="44.98089" lon="3.66088">
        <ele>803.1</ele>
        <time>2021-08-07T10:16:43Z</time>
      </trkpt>
      <trkpt lat="44.98089" lon="3.66093">
        <ele>804.1</ele>
        <time>2021-08-07T10:16:45Z</time>
      </trkpt>
      <trkpt lat="44.98088" lon="3.66098">
        <ele>805.1</ele>
        <time>2021-08-07T10:16:47Z</time>
      </trkpt>
      <trkpt lat="44.98087" lon="3.66103">
        <ele>806.1</ele>
        <time>2021-08-07T10:16:49Z</time>
      </trkpt>
      <trkpt lat="44.98087" lon="3.66108">
        <ele>807.1</ele>
        <time>2021-08-07T10:16:51Z</time>
      </trkpt>
      <trkpt lat="44.98085" lon="3.66112">
        <ele>807.9</ele>
        <time>2021-08-07T10:16:53Z</time>
      </trkpt>
      <trkpt lat="44.98084" lon="3.66117">
        <ele>808.8</ele>
        <time>2021-08-07T10:16:55Z</time>
      </trkpt>
      <trkpt lat="44.98083" lon="3.66121">
        <ele>809.5</ele>
        <time>2021-08-07T10:16:57Z</time>
      </trkpt>
      <trkpt lat="44.98081" lon="3.66125">
        <ele>810.2</ele>
        <time>2021-08-07T10:16:59Z</time>
      </trkpt>
      <trkpt lat="44.98079" lon="3.6613">
        <ele>810.9</ele>
        <time>2021-08-07T10:17:01Z</time>
      </trkpt>
      <trkpt lat="44.98077" lon="3.66134">
        <ele>811.6</ele>
        <time>2021-08-07T10:17:03Z</time>
      </trkpt>
      <trkpt lat="44.98074" lon="3.66138">
        <ele>812.1</ele>
        <time>2021-08-07T10:17:05Z</time>
      </trkpt>
      <trkpt lat="44.98072" lon="3.66141">
        <ele>812.5</ele>
        <time>2021-08-07T10:17:07Z</time>
      </trkpt>
      <trkpt lat="44.9807" lon="3.66144">
        <ele>812.8</ele>
        <time>2021-08-07T10:17:09Z</time>
      </trkpt>
      <trkpt lat="44.98067" lon="3.66148">
        <ele>813.2</ele>
        <time>2021-08-07T10:17:11Z</time>
      </trkpt>
      <trkpt lat="44.98064" lon="3.66151">
        <ele>813.4</ele>
        <time>2021-08-07T10:17:13Z</time>
      </trkpt>
      <trkpt lat="44.98062" lon="3.66154">
        <ele>813.8</ele>
        <time>2021-08-07T10:17:15Z</time>
      </trkpt>
      <trkpt lat="44.98059" lon="3.66157">
        <ele>814</ele>
        <time>2021-08-07T10:17:17Z</time>
      </trkpt>
      <trkpt lat="44.98057" lon="3.6616">
        <ele>814.1</ele>
        <time>2021-08-07T10:17:19Z</time>
      </trkpt>
      <trkpt lat="44.98054" lon="3.66163">
        <ele>814.3</ele>
        <time>2021-08-07T10:17:21Z</time>
      </trkpt>
      <trkpt lat="44.98051" lon="3.66165">
        <ele>814.3</ele>
        <time>2021-08-07T10:17:23Z</time>
      </trkpt>
      <trkpt lat="44.98048" lon="3.66168">
        <ele>814.4</ele>
        <time>2021-08-07T10:17:25Z</time>
      </trkpt>
      <trkpt lat="44.98045" lon="3.6617">
        <ele>814.6</ele>
        <time>2021-08-07T10:17:27Z</time>
      </trkpt>
      <trkpt lat="44.98042" lon="3.66173">
        <ele>814.8</ele>
        <time>2021-08-07T10:17:29Z</time>
      </trkpt>
      <trkpt lat="44.98039" lon="3.66176">
        <ele>815.3</ele>
        <time>2021-08-07T10:17:31Z</time>
      </trkpt>
      <trkpt lat="44.98037" lon="3.66179">
        <ele>815.6</ele>
        <time>2021-08-07T10:17:33Z</time>
      </trkpt>
      <trkpt lat="44.98034" lon="3.66182">
        <ele>816</ele>
        <time>2021-08-07T10:17:35Z</time>
      </trkpt>
      <trkpt lat="44.98032" lon="3.66185">
        <ele>816.5</ele>
        <time>2021-08-07T10:17:37Z</time>
      </trkpt>
      <trkpt lat="44.98029" lon="3.66188">
        <ele>816.7</ele>
        <time>2021-08-07T10:17:39Z</time>
      </trkpt>
      <trkpt lat="44.98026" lon="3.6619">
        <ele>817</ele>
        <time>2021-08-07T10:17:41Z</time>
      </trkpt>
      <trkpt lat="44.98023" lon="3.66192">
        <ele>817.1</ele>
        <time>2021-08-07T10:17:43Z</time>
      </trkpt>
      <trkpt lat="44.98021" lon="3.66195">
        <ele>817.5</ele>
        <time>2021-08-07T10:17:45Z</time>
      </trkpt>
      <trkpt lat="44.98018" lon="3.66198">
        <ele>817.9</ele>
        <time>2021-08-07T10:17:47Z</time>
      </trkpt>
      <trkpt lat="44.98016" lon="3.66201">
        <ele>818.7</ele>
        <time>2021-08-07T10:17:49Z</time>
      </trkpt>
      <trkpt lat="44.98013" lon="3.66203">
        <ele>818.9</ele>
        <time>2021-08-07T10:17:51Z</time>
      </trkpt>
      <trkpt lat="44.9801" lon="3.66206">
        <ele>819.2</ele>
        <time>2021-08-07T10:17:53Z</time>
      </trkpt>
      <trkpt lat="44.98006" lon="3.66209">
        <ele>819.6</ele>
        <time>2021-08-07T10:17:55Z</time>
      </trkpt>
      <trkpt lat="44.98003" lon="3.66211">
        <ele>819.9</ele>
        <time>2021-08-07T10:17:57Z</time>
      </trkpt>
      <trkpt lat="44.98" lon="3.66214">
        <ele>820.3</ele>
        <time>2021-08-07T10:17:59Z</time>
      </trkpt>
      <trkpt lat="44.97997" lon="3.66217">
        <ele>820.2</ele>
        <time>2021-08-07T10:18:01Z</time>
      </trkpt>
      <trkpt lat="44.97994" lon="3.6622">
        <ele>820.3</ele>
        <time>2021-08-07T10:18:03Z</time>
      </trkpt>
      <trkpt lat="44.97991" lon="3.66223">
        <ele>820.5</ele>
        <time>2021-08-07T10:18:05Z</time>
      </trkpt>
      <trkpt lat="44.97988" lon="3.66226">
        <ele>820.6</ele>
        <time>2021-08-07T10:18:07Z</time>
      </trkpt>
      <trkpt lat="44.97986" lon="3.66229">
        <ele>820.8</ele>
        <time>2021-08-07T10:18:09Z</time>
      </trkpt>
      <trkpt lat="44.97983" lon="3.66232">
        <ele>820.9</ele>
        <time>2021-08-07T10:18:11Z</time>
      </trkpt>
      <trkpt lat="44.9798" lon="3.66235">
        <ele>820.8</ele>
        <time>2021-08-07T10:18:13Z</time>
      </trkpt>
      <trkpt lat="44.97977" lon="3.66237">
        <ele>820.7</ele>
        <time>2021-08-07T10:18:15Z</time>
      </trkpt>
      <trkpt lat="44.97975" lon="3.66241">
        <ele>821</ele>
        <time>2021-08-07T10:18:17Z</time>
      </trkpt>
      <trkpt lat="44.97972" lon="3.66244">
        <ele>821</ele>
        <time>2021-08-07T10:18:19Z</time>
      </trkpt>
      <trkpt lat="44.9797" lon="3.66246">
        <ele>820.9</ele>
        <time>2021-08-07T10:18:21Z</time>
      </trkpt>
      <trkpt lat="44.97968" lon="3.66249">
        <ele>821.2</ele>
        <time>2021-08-07T10:18:23Z</time>
      </trkpt>
      <trkpt lat="44.97966" lon="3.66253">
        <ele>821.5</ele>
        <time>2021-08-07T10:18:25Z</time>
      </trkpt>
      <trkpt lat="44.97963" lon="3.66256">
        <ele>821.7</ele>
        <time>2021-08-07T10:18:27Z</time>
      </trkpt>
      <trkpt lat="44.97961" lon="3.66259">
        <ele>821.7</ele>
        <time>2021-08-07T10:18:29Z</time>
      </trkpt>
      <trkpt lat="44.97958" lon="3.66262">
        <ele>821.7</ele>
        <time>2021-08-07T10:18:31Z</time>
      </trkpt>
      <trkpt lat="44.97956" lon="3.66265">
        <ele>822</ele>
        <time>2021-08-07T10:18:33Z</time>
      </trkpt>
      <trkpt lat="44.97954" lon="3.66268">
        <ele>822.2</ele>
        <time>2021-08-07T10:18:35Z</time>
      </trkpt>
      <trkpt lat="44.97951" lon="3.66272">
        <ele>822.4</ele>
        <time>2021-08-07T10:18:37Z</time>
      </trkpt>
      <trkpt lat="44.97949" lon="3.66275">
        <ele>822.6</ele>
        <time>2021-08-07T10:18:39Z</time>
      </trkpt>
      <trkpt lat="44.97946" lon="3.66279">
        <ele>822.6</ele>
        <time>2021-08-07T10:18:41Z</time>
      </trkpt>
      <trkpt lat="44.97945" lon="3.66283">
        <ele>823</ele>
        <time>2021-08-07T10:18:43Z</time>
      </trkpt>
      <trkpt lat="44.97942" lon="3.66287">
        <ele>823.2</ele>
        <time>2021-08-07T10:18:45Z</time>
      </trkpt>
      <trkpt lat="44.9794" lon="3.66291">
        <ele>823.6</ele>
        <time>2021-08-07T10:18:47Z</time>
      </trkpt>
      <trkpt lat="44.97938" lon="3.66295">
        <ele>823.9</ele>
        <time>2021-08-07T10:18:49Z</time>
      </trkpt>
      <trkpt lat="44.97936" lon="3.66299">
        <ele>824.2</ele>
        <time>2021-08-07T10:18:51Z</time>
      </trkpt>
      <trkpt lat="44.97934" lon="3.66302">
        <ele>824.4</ele>
        <time>2021-08-07T10:18:53Z</time>
      </trkpt>
      <trkpt lat="44.97932" lon="3.66305">
        <ele>824.7</ele>
        <time>2021-08-07T10:18:55Z</time>
      </trkpt>
      <trkpt lat="44.9793" lon="3.66309">
        <ele>825</ele>
        <time>2021-08-07T10:18:57Z</time>
      </trkpt>
      <trkpt lat="44.97928" lon="3.66312">
        <ele>825</ele>
        <time>2021-08-07T10:18:59Z</time>
      </trkpt>
      <trkpt lat="44.97926" lon="3.66316">
        <ele>825.1</ele>
        <time>2021-08-07T10:19:01Z</time>
      </trkpt>
      <trkpt lat="44.97924" lon="3.6632">
        <ele>825.3</ele>
        <time>2021-08-07T10:19:03Z</time>
      </trkpt>
      <trkpt lat="44.97922" lon="3.66323">
        <ele>825.6</ele>
        <time>2021-08-07T10:19:05Z</time>
      </trkpt>
      <trkpt lat="44.9792" lon="3.66327">
        <ele>825.8</ele>
        <time>2021-08-07T10:19:07Z</time>
      </trkpt>
      <trkpt lat="44.97918" lon="3.66331">
        <ele>826</ele>
        <time>2021-08-07T10:19:09Z</time>
      </trkpt>
      <trkpt lat="44.97917" lon="3.66335">
        <ele>826.3</ele>
        <time>2021-08-07T10:19:11Z</time>
      </trkpt>
      <trkpt lat="44.97915" lon="3.66338">
        <ele>826.7</ele>
        <time>2021-08-07T10:19:13Z</time>
      </trkpt>
      <trkpt lat="44.97913" lon="3.66342">
        <ele>827</ele>
        <time>2021-08-07T10:19:15Z</time>
      </trkpt>
      <trkpt lat="44.97912" lon="3.66346">
        <ele>827.5</ele>
        <time>2021-08-07T10:19:17Z</time>
      </trkpt>
      <trkpt lat="44.9791" lon="3.6635">
        <ele>827.7</ele>
        <time>2021-08-07T10:19:19Z</time>
      </trkpt>
      <trkpt lat="44.97908" lon="3.66353">
        <ele>827.8</ele>
        <time>2021-08-07T10:19:21Z</time>
      </trkpt>
      <trkpt lat="44.97907" lon="3.66357">
        <ele>828.4</ele>
        <time>2021-08-07T10:19:23Z</time>
      </trkpt>
      <trkpt lat="44.97905" lon="3.66361">
        <ele>828.6</ele>
        <time>2021-08-07T10:19:25Z</time>
      </trkpt>
      <trkpt lat="44.97903" lon="3.66365">
        <ele>829</ele>
        <time>2021-08-07T10:19:27Z</time>
      </trkpt>
      <trkpt lat="44.97901" lon="3.66368">
        <ele>829.2</ele>
        <time>2021-08-07T10:19:29Z</time>
      </trkpt>
      <trkpt lat="44.97899" lon="3.66373">
        <ele>829.5</ele>
        <time>2021-08-07T10:19:31Z</time>
      </trkpt>
      <trkpt lat="44.97898" lon="3.66376">
        <ele>829.7</ele>
        <time>2021-08-07T10:19:33Z</time>
      </trkpt>
      <trkpt lat="44.97896" lon="3.6638">
        <ele>829.9</ele>
        <time>2021-08-07T10:19:35Z</time>
      </trkpt>
      <trkpt lat="44.97894" lon="3.66384">
        <ele>830.2</ele>
        <time>2021-08-07T10:19:37Z</time>
      </trkpt>
      <trkpt lat="44.97892" lon="3.66388">
        <ele>830.3</ele>
        <time>2021-08-07T10:19:39Z</time>
      </trkpt>
      <trkpt lat="44.9789" lon="3.66392">
        <ele>830.7</ele>
        <time>2021-08-07T10:19:41Z</time>
      </trkpt>
      <trkpt lat="44.97889" lon="3.66396">
        <ele>830.8</ele>
        <time>2021-08-07T10:19:43Z</time>
      </trkpt>
      <trkpt lat="44.97887" lon="3.664">
        <ele>831.2</ele>
        <time>2021-08-07T10:19:45Z</time>
      </trkpt>
      <trkpt lat="44.97885" lon="3.66404">
        <ele>831.4</ele>
        <time>2021-08-07T10:19:47Z</time>
      </trkpt>
      <trkpt lat="44.97884" lon="3.66408">
        <ele>831.8</ele>
        <time>2021-08-07T10:19:49Z</time>
      </trkpt>
      <trkpt lat="44.97882" lon="3.66412">
        <ele>832.1</ele>
        <time>2021-08-07T10:19:51Z</time>
      </trkpt>
      <trkpt lat="44.97881" lon="3.66417">
        <ele>832.5</ele>
        <time>2021-08-07T10:19:53Z</time>
      </trkpt>
      <trkpt lat="44.9788" lon="3.66421">
        <ele>832.3</ele>
        <time>2021-08-07T10:19:55Z</time>
      </trkpt>
      <trkpt lat="44.97878" lon="3.66425">
        <ele>832.2</ele>
        <time>2021-08-07T10:19:57Z</time>
      </trkpt>
      <trkpt lat="44.97878" lon="3.66429">
        <ele>832.4</ele>
        <time>2021-08-07T10:19:59Z</time>
      </trkpt>
      <trkpt lat="44.97877" lon="3.66434">
        <ele>832.5</ele>
        <time>2021-08-07T10:20:01Z</time>
      </trkpt>
      <trkpt lat="44.97876" lon="3.66439">
        <ele>832.7</ele>
        <time>2021-08-07T10:20:03Z</time>
      </trkpt>
      <trkpt lat="44.97876" lon="3.66443">
        <ele>833.1</ele>
        <time>2021-08-07T10:20:05Z</time>
      </trkpt>
      <trkpt lat="44.97875" lon="3.66448">
        <ele>833.3</ele>
        <time>2021-08-07T10:20:07Z</time>
      </trkpt>
      <trkpt lat="44.97875" lon="3.66452">
        <ele>833.7</ele>
        <time>2021-08-07T10:20:09Z</time>
      </trkpt>
      <trkpt lat="44.97875" lon="3.66456">
        <ele>834.1</ele>
        <time>2021-08-07T10:20:11Z</time>
      </trkpt>
      <trkpt lat="44.97875" lon="3.66461">
        <ele>834.7</ele>
        <time>2021-08-07T10:20:13Z</time>
      </trkpt>
      <trkpt lat="44.97875" lon="3.66465">
        <ele>835.1</ele>
        <time>2021-08-07T10:20:15Z</time>
      </trkpt>
      <trkpt lat="44.97876" lon="3.6647">
        <ele>835.8</ele>
        <time>2021-08-07T10:20:17Z</time>
      </trkpt>
      <trkpt lat="44.97876" lon="3.66474">
        <ele>836.3</ele>
        <time>2021-08-07T10:20:19Z</time>
      </trkpt>
      <trkpt lat="44.97876" lon="3.66478">
        <ele>836.8</ele>
        <time>2021-08-07T10:20:21Z</time>
      </trkpt>
      <trkpt lat="44.97877" lon="3.66483">
        <ele>837.5</ele>
        <time>2021-08-07T10:20:23Z</time>
      </trkpt>
      <trkpt lat="44.97878" lon="3.66487">
        <ele>838.4</ele>
        <time>2021-08-07T10:20:25Z</time>
      </trkpt>
      <trkpt lat="44.97879" lon="3.66492">
        <ele>839.2</ele>
        <time>2021-08-07T10:20:27Z</time>
      </trkpt>
      <trkpt lat="44.97879" lon="3.66496">
        <ele>839.9</ele>
        <time>2021-08-07T10:20:29Z</time>
      </trkpt>
      <trkpt lat="44.9788" lon="3.66501">
        <ele>840.6</ele>
        <time>2021-08-07T10:20:31Z</time>
      </trkpt>
      <trkpt lat="44.97881" lon="3.66505">
        <ele>840.8</ele>
        <time>2021-08-07T10:20:33Z</time>
      </trkpt>
      <trkpt lat="44.97881" lon="3.6651">
        <ele>840.8</ele>
        <time>2021-08-07T10:20:35Z</time>
      </trkpt>
      <trkpt lat="44.97882" lon="3.66515">
        <ele>841.1</ele>
        <time>2021-08-07T10:20:37Z</time>
      </trkpt>
      <trkpt lat="44.97883" lon="3.66519">
        <ele>841.2</ele>
        <time>2021-08-07T10:20:39Z</time>
      </trkpt>
      <trkpt lat="44.97883" lon="3.66523">
        <ele>841.1</ele>
        <time>2021-08-07T10:20:41Z</time>
      </trkpt>
      <trkpt lat="44.97883" lon="3.66529">
        <ele>841.2</ele>
        <time>2021-08-07T10:20:43Z</time>
      </trkpt>
      <trkpt lat="44.97884" lon="3.66533">
        <ele>841.5</ele>
        <time>2021-08-07T10:20:45Z</time>
      </trkpt>
      <trkpt lat="44.97885" lon="3.66538">
        <ele>841.8</ele>
        <time>2021-08-07T10:20:47Z</time>
      </trkpt>
      <trkpt lat="44.97886" lon="3.66543">
        <ele>841.8</ele>
        <time>2021-08-07T10:20:49Z</time>
      </trkpt>
      <trkpt lat="44.97887" lon="3.66547">
        <ele>842.2</ele>
        <time>2021-08-07T10:20:51Z</time>
      </trkpt>
      <trkpt lat="44.97888" lon="3.66552">
        <ele>842.4</ele>
        <time>2021-08-07T10:20:53Z</time>
      </trkpt>
      <trkpt lat="44.97889" lon="3.66556">
        <ele>842.6</ele>
        <time>2021-08-07T10:20:55Z</time>
      </trkpt>
      <trkpt lat="44.9789" lon="3.6656">
        <ele>842.8</ele>
        <time>2021-08-07T10:20:57Z</time>
      </trkpt>
      <trkpt lat="44.97891" lon="3.66565">
        <ele>843.1</ele>
        <time>2021-08-07T10:20:59Z</time>
      </trkpt>
      <trkpt lat="44.97892" lon="3.6657">
        <ele>843.3</ele>
        <time>2021-08-07T10:21:01Z</time>
      </trkpt>
      <trkpt lat="44.97893" lon="3.66574">
        <ele>843.5</ele>
        <time>2021-08-07T10:21:03Z</time>
      </trkpt>
      <trkpt lat="44.97895" lon="3.66578">
        <ele>844</ele>
        <time>2021-08-07T10:21:05Z</time>
      </trkpt>
      <trkpt lat="44.97896" lon="3.66583">
        <ele>844.2</ele>
        <time>2021-08-07T10:21:07Z</time>
      </trkpt>
      <trkpt lat="44.97898" lon="3.66588">
        <ele>844.5</ele>
        <time>2021-08-07T10:21:09Z</time>
      </trkpt>
      <trkpt lat="44.979" lon="3.66591">
        <ele>844.9</ele>
        <time>2021-08-07T10:21:11Z</time>
      </trkpt>
      <trkpt lat="44.97902" lon="3.66595">
        <ele>845.3</ele>
        <time>2021-08-07T10:21:13Z</time>
      </trkpt>
      <trkpt lat="44.97903" lon="3.666">
        <ele>845.3</ele>
        <time>2021-08-07T10:21:15Z</time>
      </trkpt>
      <trkpt lat="44.97905" lon="3.66604">
        <ele>845.5</ele>
        <time>2021-08-07T10:21:17Z</time>
      </trkpt>
      <trkpt lat="44.97906" lon="3.66608">
        <ele>845.8</ele>
        <time>2021-08-07T10:21:19Z</time>
      </trkpt>
      <trkpt lat="44.97909" lon="3.66612">
        <ele>846.2</ele>
        <time>2021-08-07T10:21:21Z</time>
      </trkpt>
      <trkpt lat="44.97911" lon="3.66616">
        <ele>846.4</ele>
        <time>2021-08-07T10:21:23Z</time>
      </trkpt>
      <trkpt lat="44.97912" lon="3.6662">
        <ele>846.7</ele>
        <time>2021-08-07T10:21:25Z</time>
      </trkpt>
      <trkpt lat="44.97914" lon="3.66624">
        <ele>846.9</ele>
        <time>2021-08-07T10:21:27Z</time>
      </trkpt>
      <trkpt lat="44.97917" lon="3.66628">
        <ele>847.2</ele>
        <time>2021-08-07T10:21:29Z</time>
      </trkpt>
      <trkpt lat="44.97918" lon="3.66632">
        <ele>847.4</ele>
        <time>2021-08-07T10:21:31Z</time>
      </trkpt>
      <trkpt lat="44.9792" lon="3.66635">
        <ele>847.7</ele>
        <time>2021-08-07T10:21:33Z</time>
      </trkpt>
      <trkpt lat="44.97922" lon="3.66639">
        <ele>848</ele>
        <time>2021-08-07T10:21:35Z</time>
      </trkpt>
      <trkpt lat="44.97924" lon="3.66643">
        <ele>848</ele>
        <time>2021-08-07T10:21:37Z</time>
      </trkpt>
      <trkpt lat="44.97926" lon="3.66646">
        <ele>848.5</ele>
        <time>2021-08-07T10:21:39Z</time>
      </trkpt>
      <trkpt lat="44.97928" lon="3.66649">
        <ele>848.6</ele>
        <time>2021-08-07T10:21:41Z</time>
      </trkpt>
      <trkpt lat="44.97929" lon="3.66653">
        <ele>848.7</ele>
        <time>2021-08-07T10:21:43Z</time>
      </trkpt>
      <trkpt lat="44.97932" lon="3.66656">
        <ele>849</ele>
        <time>2021-08-07T10:21:45Z</time>
      </trkpt>
      <trkpt lat="44.97934" lon="3.66658">
        <ele>849.3</ele>
        <time>2021-08-07T10:21:47Z</time>
      </trkpt>
      <trkpt lat="44.97937" lon="3.66661">
        <ele>849.7</ele>
        <time>2021-08-07T10:21:49Z</time>
      </trkpt>
      <trkpt lat="44.97939" lon="3.66664">
        <ele>850</ele>
        <time>2021-08-07T10:21:51Z</time>
      </trkpt>
      <trkpt lat="44.97941" lon="3.66667">
        <ele>850.2</ele>
        <time>2021-08-07T10:21:53Z</time>
      </trkpt>
      <trkpt lat="44.97944" lon="3.6667">
        <ele>850.5</ele>
        <time>2021-08-07T10:21:55Z</time>
      </trkpt>
      <trkpt lat="44.97946" lon="3.66673">
        <ele>850.9</ele>
        <time>2021-08-07T10:21:57Z</time>
      </trkpt>
      <trkpt lat="44.97949" lon="3.66676">
        <ele>851.4</ele>
        <time>2021-08-07T10:21:59Z</time>
      </trkpt>
      <trkpt lat="44.97952" lon="3.66678">
        <ele>851.8</ele>
        <time>2021-08-07T10:22:01Z</time>
      </trkpt>
      <trkpt lat="44.97954" lon="3.6668">
        <ele>852.1</ele>
        <time>2021-08-07T10:22:03Z</time>
      </trkpt>
      <trkpt lat="44.97957" lon="3.66684">
        <ele>852.4</ele>
        <time>2021-08-07T10:22:05Z</time>
      </trkpt>
      <trkpt lat="44.97959" lon="3.66686">
        <ele>852.8</ele>
        <time>2021-08-07T10:22:07Z</time>
      </trkpt>
      <trkpt lat="44.97961" lon="3.66688">
        <ele>853.1</ele>
        <time>2021-08-07T10:22:09Z</time>
      </trkpt>
      <trkpt lat="44.97964" lon="3.66692">
        <ele>853.4</ele>
        <time>2021-08-07T10:22:11Z</time>
      </trkpt>
      <trkpt lat="44.97966" lon="3.66694">
        <ele>853.6</ele>
        <time>2021-08-07T10:22:13Z</time>
      </trkpt>
      <trkpt lat="44.97969" lon="3.66698">
        <ele>853.9</ele>
        <time>2021-08-07T10:22:15Z</time>
      </trkpt>
      <trkpt lat="44.97972" lon="3.667">
        <ele>854.3</ele>
        <time>2021-08-07T10:22:17Z</time>
      </trkpt>
      <trkpt lat="44.97975" lon="3.66702">
        <ele>854.8</ele>
        <time>2021-08-07T10:22:19Z</time>
      </trkpt>
      <trkpt lat="44.97978" lon="3.66705">
        <ele>855</ele>
        <time>2021-08-07T10:22:21Z</time>
      </trkpt>
      <trkpt lat="44.97981" lon="3.66706">
        <ele>855.6</ele>
        <time>2021-08-07T10:22:23Z</time>
      </trkpt>
      <trkpt lat="44.97983" lon="3.66709">
        <ele>855.8</ele>
        <time>2021-08-07T10:22:25Z</time>
      </trkpt>
      <trkpt lat="44.97986" lon="3.66712">
        <ele>856.1</ele>
        <time>2021-08-07T10:22:27Z</time>
      </trkpt>
      <trkpt lat="44.97989" lon="3.66714">
        <ele>856.6</ele>
        <time>2021-08-07T10:22:29Z</time>
      </trkpt>
      <trkpt lat="44.97993" lon="3.66716">
        <ele>857.1</ele>
        <time>2021-08-07T10:22:31Z</time>
      </trkpt>
      <trkpt lat="44.97996" lon="3.66718">
        <ele>857.5</ele>
        <time>2021-08-07T10:22:33Z</time>
      </trkpt>
      <trkpt lat="44.98" lon="3.66719">
        <ele>858</ele>
        <time>2021-08-07T10:22:35Z</time>
      </trkpt>
      <trkpt lat="44.98003" lon="3.66722">
        <ele>858.2</ele>
        <time>2021-08-07T10:22:37Z</time>
      </trkpt>
      <trkpt lat="44.98007" lon="3.66723">
        <ele>858.6</ele>
        <time>2021-08-07T10:22:39Z</time>
      </trkpt>
      <trkpt lat="44.9801" lon="3.66726">
        <ele>858.7</ele>
        <time>2021-08-07T10:22:41Z</time>
      </trkpt>
      <trkpt lat="44.98014" lon="3.66727">
        <ele>859.2</ele>
        <time>2021-08-07T10:22:43Z</time>
      </trkpt>
      <trkpt lat="44.98017" lon="3.66729">
        <ele>859.4</ele>
        <time>2021-08-07T10:22:45Z</time>
      </trkpt>
      <trkpt lat="44.9802" lon="3.66731">
        <ele>859.7</ele>
        <time>2021-08-07T10:22:47Z</time>
      </trkpt>
      <trkpt lat="44.98023" lon="3.66733">
        <ele>860</ele>
        <time>2021-08-07T10:22:49Z</time>
      </trkpt>
      <trkpt lat="44.98026" lon="3.66734">
        <ele>860.2</ele>
        <time>2021-08-07T10:22:51Z</time>
      </trkpt>
      <trkpt lat="44.9803" lon="3.66736">
        <ele>860.5</ele>
        <time>2021-08-07T10:22:53Z</time>
      </trkpt>
      <trkpt lat="44.98033" lon="3.66737">
        <ele>860.7</ele>
        <time>2021-08-07T10:22:55Z</time>
      </trkpt>
      <trkpt lat="44.98036" lon="3.66739">
        <ele>860.9</ele>
        <time>2021-08-07T10:22:57Z</time>
      </trkpt>
      <trkpt lat="44.98039" lon="3.6674">
        <ele>861.3</ele>
        <time>2021-08-07T10:22:59Z</time>
      </trkpt>
      <trkpt lat="44.98042" lon="3.66741">
        <ele>861.6</ele>
        <time>2021-08-07T10:23:01Z</time>
      </trkpt>
      <trkpt lat="44.98045" lon="3.66743">
        <ele>861.8</ele>
        <time>2021-08-07T10:23:03Z</time>
      </trkpt>
      <trkpt lat="44.98049" lon="3.66744">
        <ele>862.1</ele>
        <time>2021-08-07T10:23:05Z</time>
      </trkpt>
      <trkpt lat="44.98052" lon="3.66745">
        <ele>862.3</ele>
        <time>2021-08-07T10:23:07Z</time>
      </trkpt>
      <trkpt lat="44.98054" lon="3.66746">
        <ele>862.5</ele>
        <time>2021-08-07T10:23:09Z</time>
      </trkpt>
      <trkpt lat="44.98058" lon="3.66748">
        <ele>862.8</ele>
        <time>2021-08-07T10:23:11Z</time>
      </trkpt>
      <trkpt lat="44.98061" lon="3.66748">
        <ele>863.1</ele>
        <time>2021-08-07T10:23:13Z</time>
      </trkpt>
      <trkpt lat="44.98064" lon="3.6675">
        <ele>863.2</ele>
        <time>2021-08-07T10:23:15Z</time>
      </trkpt>
      <trkpt lat="44.98068" lon="3.66751">
        <ele>863.5</ele>
        <time>2021-08-07T10:23:17Z</time>
      </trkpt>
      <trkpt lat="44.98071" lon="3.66752">
        <ele>863.8</ele>
        <time>2021-08-07T10:23:19Z</time>
      </trkpt>
      <trkpt lat="44.98074" lon="3.66754">
        <ele>864</ele>
        <time>2021-08-07T10:23:21Z</time>
      </trkpt>
      <trkpt lat="44.98077" lon="3.66755">
        <ele>864.2</ele>
        <time>2021-08-07T10:23:23Z</time>
      </trkpt>
      <trkpt lat="44.9808" lon="3.66756">
        <ele>864.4</ele>
        <time>2021-08-07T10:23:25Z</time>
      </trkpt>
      <trkpt lat="44.98083" lon="3.66758">
        <ele>864.6</ele>
        <time>2021-08-07T10:23:27Z</time>
      </trkpt>
      <trkpt lat="44.98086" lon="3.66759">
        <ele>864.7</ele>
        <time>2021-08-07T10:23:29Z</time>
      </trkpt>
      <trkpt lat="44.9809" lon="3.66761">
        <ele>865</ele>
        <time>2021-08-07T10:23:31Z</time>
      </trkpt>
      <trkpt lat="44.98093" lon="3.66762">
        <ele>865.2</ele>
        <time>2021-08-07T10:23:33Z</time>
      </trkpt>
      <trkpt lat="44.98096" lon="3.66763">
        <ele>865.5</ele>
        <time>2021-08-07T10:23:35Z</time>
      </trkpt>
      <trkpt lat="44.981" lon="3.66764">
        <ele>865.8</ele>
        <time>2021-08-07T10:23:37Z</time>
      </trkpt>
      <trkpt lat="44.98103" lon="3.66765">
        <ele>866.1</ele>
        <time>2021-08-07T10:23:39Z</time>
      </trkpt>
      <trkpt lat="44.98106" lon="3.66766">
        <ele>866.3</ele>
        <time>2021-08-07T10:23:41Z</time>
      </trkpt>
      <trkpt lat="44.9811" lon="3.66768">
        <ele>866.6</ele>
        <time>2021-08-07T10:23:43Z</time>
      </trkpt>
      <trkpt lat="44.98113" lon="3.66769">
        <ele>866.7</ele>
        <time>2021-08-07T10:23:45Z</time>
      </trkpt>
      <trkpt lat="44.98117" lon="3.66771">
        <ele>866.9</ele>
        <time>2021-08-07T10:23:47Z</time>
      </trkpt>
      <trkpt lat="44.9812" lon="3.66772">
        <ele>867.2</ele>
        <time>2021-08-07T10:23:49Z</time>
      </trkpt>
      <trkpt lat="44.98124" lon="3.66773">
        <ele>867.5</ele>
        <time>2021-08-07T10:23:51Z</time>
      </trkpt>
      <trkpt lat="44.98128" lon="3.66775">
        <ele>867.7</ele>
        <time>2021-08-07T10:23:53Z</time>
      </trkpt>
      <trkpt lat="44.98131" lon="3.66776">
        <ele>868</ele>
        <time>2021-08-07T10:23:55Z</time>
      </trkpt>
      <trkpt lat="44.98134" lon="3.66777">
        <ele>868.2</ele>
        <time>2021-08-07T10:23:57Z</time>
      </trkpt>
      <trkpt lat="44.98137" lon="3.66779">
        <ele>868.4</ele>
        <time>2021-08-07T10:23:59Z</time>
      </trkpt>
      <trkpt lat="44.98141" lon="3.66779">
        <ele>868.7</ele>
        <time>2021-08-07T10:24:01Z</time>
      </trkpt>
      <trkpt lat="44.98143" lon="3.6678">
        <ele>868.9</ele>
        <time>2021-08-07T10:24:03Z</time>
      </trkpt>
      <trkpt lat="44.98147" lon="3.66781">
        <ele>869.2</ele>
        <time>2021-08-07T10:24:05Z</time>
      </trkpt>
      <trkpt lat="44.9815" lon="3.66784">
        <ele>869.2</ele>
        <time>2021-08-07T10:24:07Z</time>
      </trkpt>
      <trkpt lat="44.98153" lon="3.66785">
        <ele>869.4</ele>
        <time>2021-08-07T10:24:09Z</time>
      </trkpt>
      <trkpt lat="44.98157" lon="3.66786">
        <ele>869.7</ele>
        <time>2021-08-07T10:24:11Z</time>
      </trkpt>
      <trkpt lat="44.9816" lon="3.66788">
        <ele>869.9</ele>
        <time>2021-08-07T10:24:13Z</time>
      </trkpt>
      <trkpt lat="44.98164" lon="3.66789">
        <ele>870.2</ele>
        <time>2021-08-07T10:24:15Z</time>
      </trkpt>
      <trkpt lat="44.98167" lon="3.6679">
        <ele>870.3</ele>
        <time>2021-08-07T10:24:17Z</time>
      </trkpt>
      <trkpt lat="44.98171" lon="3.66792">
        <ele>870.4</ele>
        <time>2021-08-07T10:24:19Z</time>
      </trkpt>
      <trkpt lat="44.98174" lon="3.66793">
        <ele>870.5</ele>
        <time>2021-08-07T10:24:21Z</time>
      </trkpt>
      <trkpt lat="44.98178" lon="3.66795">
        <ele>870.6</ele>
        <time>2021-08-07T10:24:23Z</time>
      </trkpt>
      <trkpt lat="44.98181" lon="3.66796">
        <ele>870.7</ele>
        <time>2021-08-07T10:24:25Z</time>
      </trkpt>
      <trkpt lat="44.98184" lon="3.66798">
        <ele>870.7</ele>
        <time>2021-08-07T10:24:27Z</time>
      </trkpt>
      <trkpt lat="44.98187" lon="3.66799">
        <ele>870.8</ele>
        <time>2021-08-07T10:24:29Z</time>
      </trkpt>
      <trkpt lat="44.98191" lon="3.668">
        <ele>871.1</ele>
        <time>2021-08-07T10:24:31Z</time>
      </trkpt>
      <trkpt lat="44.98194" lon="3.66802">
        <ele>871.1</ele>
        <time>2021-08-07T10:24:33Z</time>
      </trkpt>
      <trkpt lat="44.98197" lon="3.66802">
        <ele>871.5</ele>
        <time>2021-08-07T10:24:35Z</time>
      </trkpt>
      <trkpt lat="44.98201" lon="3.66803">
        <ele>871.6</ele>
        <time>2021-08-07T10:24:37Z</time>
      </trkpt>
      <trkpt lat="44.98204" lon="3.66804">
        <ele>871.8</ele>
        <time>2021-08-07T10:24:39Z</time>
      </trkpt>
      <trkpt lat="44.98208" lon="3.66805">
        <ele>872</ele>
        <time>2021-08-07T10:24:41Z</time>
      </trkpt>
      <trkpt lat="44.98211" lon="3.66806">
        <ele>872.2</ele>
        <time>2021-08-07T10:24:43Z</time>
      </trkpt>
      <trkpt lat="44.98214" lon="3.66807">
        <ele>872.3</ele>
        <time>2021-08-07T10:24:45Z</time>
      </trkpt>
      <trkpt lat="44.98218" lon="3.66808">
        <ele>872.7</ele>
        <time>2021-08-07T10:24:47Z</time>
      </trkpt>
      <trkpt lat="44.98221" lon="3.66809">
        <ele>872.9</ele>
        <time>2021-08-07T10:24:49Z</time>
      </trkpt>
      <trkpt lat="44.98225" lon="3.66809">
        <ele>873.1</ele>
        <time>2021-08-07T10:24:51Z</time>
      </trkpt>
      <trkpt lat="44.98228" lon="3.6681">
        <ele>873.4</ele>
        <time>2021-08-07T10:24:53Z</time>
      </trkpt>
      <trkpt lat="44.98231" lon="3.66811">
        <ele>873.5</ele>
        <time>2021-08-07T10:24:55Z</time>
      </trkpt>
      <trkpt lat="44.98235" lon="3.66812">
        <ele>873.7</ele>
        <time>2021-08-07T10:24:57Z</time>
      </trkpt>
      <trkpt lat="44.98238" lon="3.66812">
        <ele>874</ele>
        <time>2021-08-07T10:24:59Z</time>
      </trkpt>
      <trkpt lat="44.98242" lon="3.66812">
        <ele>874.4</ele>
        <time>2021-08-07T10:25:01Z</time>
      </trkpt>
      <trkpt lat="44.98245" lon="3.66813">
        <ele>874.6</ele>
        <time>2021-08-07T10:25:03Z</time>
      </trkpt>
      <trkpt lat="44.98249" lon="3.66814">
        <ele>874.8</ele>
        <time>2021-08-07T10:25:05Z</time>
      </trkpt>
      <trkpt lat="44.98252" lon="3.66815">
        <ele>874.8</ele>
        <time>2021-08-07T10:25:07Z</time>
      </trkpt>
      <trkpt lat="44.98255" lon="3.66815">
        <ele>874.8</ele>
        <time>2021-08-07T10:25:09Z</time>
      </trkpt>
      <trkpt lat="44.98259" lon="3.66816">
        <ele>874.6</ele>
        <time>2021-08-07T10:25:11Z</time>
      </trkpt>
      <trkpt lat="44.98262" lon="3.66817">
        <ele>874.6</ele>
        <time>2021-08-07T10:25:13Z</time>
      </trkpt>
      <trkpt lat="44.98265" lon="3.66818">
        <ele>874.5</ele>
        <time>2021-08-07T10:25:15Z</time>
      </trkpt>
      <trkpt lat="44.98269" lon="3.66819">
        <ele>874.3</ele>
        <time>2021-08-07T10:25:17Z</time>
      </trkpt>
      <trkpt lat="44.98272" lon="3.6682">
        <ele>874.2</ele>
        <time>2021-08-07T10:25:19Z</time>
      </trkpt>
      <trkpt lat="44.98276" lon="3.66821">
        <ele>874.1</ele>
        <time>2021-08-07T10:25:21Z</time>
      </trkpt>
      <trkpt lat="44.98279" lon="3.66822">
        <ele>874</ele>
        <time>2021-08-07T10:25:23Z</time>
      </trkpt>
      <trkpt lat="44.98282" lon="3.66823">
        <ele>873.9</ele>
        <time>2021-08-07T10:25:25Z</time>
      </trkpt>
      <trkpt lat="44.98285" lon="3.66824">
        <ele>873.8</ele>
        <time>2021-08-07T10:25:27Z</time>
      </trkpt>
      <trkpt lat="44.98289" lon="3.66826">
        <ele>873.7</ele>
        <time>2021-08-07T10:25:29Z</time>
      </trkpt>
      <trkpt lat="44.98292" lon="3.66828">
        <ele>873.4</ele>
        <time>2021-08-07T10:25:31Z</time>
      </trkpt>
      <trkpt lat="44.98295" lon="3.66829">
        <ele>873.3</ele>
        <time>2021-08-07T10:25:33Z</time>
      </trkpt>
      <trkpt lat="44.98299" lon="3.6683">
        <ele>873.3</ele>
        <time>2021-08-07T10:25:35Z</time>
      </trkpt>
      <trkpt lat="44.98302" lon="3.66831">
        <ele>873.3</ele>
        <time>2021-08-07T10:25:37Z</time>
      </trkpt>
      <trkpt lat="44.98306" lon="3.66832">
        <ele>873.2</ele>
        <time>2021-08-07T10:25:39Z</time>
      </trkpt>
      <trkpt lat="44.98309" lon="3.66834">
        <ele>873.1</ele>
        <time>2021-08-07T10:25:41Z</time>
      </trkpt>
      <trkpt lat="44.98312" lon="3.66835">
        <ele>873.2</ele>
        <time>2021-08-07T10:25:43Z</time>
      </trkpt>
      <trkpt lat="44.98316" lon="3.66836">
        <ele>873.2</ele>
        <time>2021-08-07T10:25:45Z</time>
      </trkpt>
      <trkpt lat="44.9832" lon="3.66837">
        <ele>873.3</ele>
        <time>2021-08-07T10:25:47Z</time>
      </trkpt>
      <trkpt lat="44.98323" lon="3.66838">
        <ele>873.4</ele>
        <time>2021-08-07T10:25:49Z</time>
      </trkpt>
      <trkpt lat="44.98326" lon="3.66839">
        <ele>873.5</ele>
        <time>2021-08-07T10:25:51Z</time>
      </trkpt>
      <trkpt lat="44.9833" lon="3.6684">
        <ele>873.5</ele>
        <time>2021-08-07T10:25:53Z</time>
      </trkpt>
      <trkpt lat="44.98333" lon="3.66841">
        <ele>873.6</ele>
        <time>2021-08-07T10:25:55Z</time>
      </trkpt>
      <trkpt lat="44.98337" lon="3.66843">
        <ele>873.7</ele>
        <time>2021-08-07T10:25:57Z</time>
      </trkpt>
      <trkpt lat="44.9834" lon="3.66843">
        <ele>873.8</ele>
        <time>2021-08-07T10:25:59Z</time>
      </trkpt>
      <trkpt lat="44.98343" lon="3.66843">
        <ele>873.8</ele>
        <time>2021-08-07T10:26:01Z</time>
      </trkpt>
      <trkpt lat="44.98347" lon="3.66843">
        <ele>874</ele>
        <time>2021-08-07T10:26:03Z</time>
      </trkpt>
      <trkpt lat="44.9835" lon="3.66844">
        <ele>874</ele>
        <time>2021-08-07T10:26:05Z</time>
      </trkpt>
      <trkpt lat="44.98354" lon="3.66845">
        <ele>874.1</ele>
        <time>2021-08-07T10:26:07Z</time>
      </trkpt>
      <trkpt lat="44.98358" lon="3.66845">
        <ele>874.2</ele>
        <time>2021-08-07T10:26:09Z</time>
      </trkpt>
      <trkpt lat="44.98361" lon="3.66845">
        <ele>874.3</ele>
        <time>2021-08-07T10:26:11Z</time>
      </trkpt>
      <trkpt lat="44.98365" lon="3.66846">
        <ele>874.4</ele>
        <time>2021-08-07T10:26:13Z</time>
      </trkpt>
      <trkpt lat="44.98369" lon="3.66846">
        <ele>874.5</ele>
        <time>2021-08-07T10:26:15Z</time>
      </trkpt>
      <trkpt lat="44.98372" lon="3.66846">
        <ele>874.7</ele>
        <time>2021-08-07T10:26:17Z</time>
      </trkpt>
      <trkpt lat="44.98377" lon="3.66847">
        <ele>874.8</ele>
        <time>2021-08-07T10:26:19Z</time>
      </trkpt>
      <trkpt lat="44.9838" lon="3.66847">
        <ele>874.9</ele>
        <time>2021-08-07T10:26:21Z</time>
      </trkpt>
      <trkpt lat="44.98384" lon="3.66847">
        <ele>875</ele>
        <time>2021-08-07T10:26:23Z</time>
      </trkpt>
      <trkpt lat="44.98387" lon="3.66848">
        <ele>875</ele>
        <time>2021-08-07T10:26:25Z</time>
      </trkpt>
      <trkpt lat="44.98391" lon="3.66849">
        <ele>875.1</ele>
        <time>2021-08-07T10:26:27Z</time>
      </trkpt>
      <trkpt lat="44.98394" lon="3.66848">
        <ele>875.2</ele>
        <time>2021-08-07T10:26:29Z</time>
      </trkpt>
      <trkpt lat="44.98397" lon="3.66849">
        <ele>875.3</ele>
        <time>2021-08-07T10:26:31Z</time>
      </trkpt>
      <trkpt lat="44.98401" lon="3.66849">
        <ele>875.4</ele>
        <time>2021-08-07T10:26:33Z</time>
      </trkpt>
      <trkpt lat="44.98404" lon="3.6685">
        <ele>875.4</ele>
        <time>2021-08-07T10:26:35Z</time>
      </trkpt>
      <trkpt lat="44.98408" lon="3.6685">
        <ele>875.5</ele>
        <time>2021-08-07T10:26:37Z</time>
      </trkpt>
      <trkpt lat="44.98412" lon="3.6685">
        <ele>875.6</ele>
        <time>2021-08-07T10:26:39Z</time>
      </trkpt>
      <trkpt lat="44.98415" lon="3.66851">
        <ele>875.7</ele>
        <time>2021-08-07T10:26:41Z</time>
      </trkpt>
      <trkpt lat="44.98419" lon="3.66852">
        <ele>875.7</ele>
        <time>2021-08-07T10:26:43Z</time>
      </trkpt>
      <trkpt lat="44.98423" lon="3.66852">
        <ele>875.7</ele>
        <time>2021-08-07T10:26:45Z</time>
      </trkpt>
      <trkpt lat="44.98427" lon="3.66853">
        <ele>875.6</ele>
        <time>2021-08-07T10:26:47Z</time>
      </trkpt>
      <trkpt lat="44.98432" lon="3.66854">
        <ele>875.6</ele>
        <time>2021-08-07T10:26:49Z</time>
      </trkpt>
      <trkpt lat="44.98437" lon="3.66854">
        <ele>875.6</ele>
        <time>2021-08-07T10:26:51Z</time>
      </trkpt>
      <trkpt lat="44.98443" lon="3.66854">
        <ele>875.6</ele>
        <time>2021-08-07T10:26:53Z</time>
      </trkpt>
      <trkpt lat="44.98448" lon="3.66855">
        <ele>875.5</ele>
        <time>2021-08-07T10:26:55Z</time>
      </trkpt>
      <trkpt lat="44.98454" lon="3.66856">
        <ele>875.4</ele>
        <time>2021-08-07T10:26:57Z</time>
      </trkpt>
      <trkpt lat="44.98459" lon="3.66857">
        <ele>875.3</ele>
        <time>2021-08-07T10:26:59Z</time>
      </trkpt>
      <trkpt lat="44.98466" lon="3.66858">
        <ele>875.2</ele>
        <time>2021-08-07T10:27:01Z</time>
      </trkpt>
      <trkpt lat="44.98472" lon="3.66858">
        <ele>875.1</ele>
        <time>2021-08-07T10:27:03Z</time>
      </trkpt>
      <trkpt lat="44.98478" lon="3.66859">
        <ele>875</ele>
        <time>2021-08-07T10:27:05Z</time>
      </trkpt>
      <trkpt lat="44.98485" lon="3.6686">
        <ele>874.8</ele>
        <time>2021-08-07T10:27:07Z</time>
      </trkpt>
      <trkpt lat="44.98491" lon="3.66861">
        <ele>874.7</ele>
        <time>2021-08-07T10:27:09Z</time>
      </trkpt>
      <trkpt lat="44.98497" lon="3.66863">
        <ele>874.5</ele>
        <time>2021-08-07T10:27:11Z</time>
      </trkpt>
      <trkpt lat="44.98503" lon="3.66864">
        <ele>874.3</ele>
        <time>2021-08-07T10:27:13Z</time>
      </trkpt>
      <trkpt lat="44.9851" lon="3.66866">
        <ele>874.3</ele>
        <time>2021-08-07T10:27:15Z</time>
      </trkpt>
      <trkpt lat="44.98517" lon="3.66867">
        <ele>874.4</ele>
        <time>2021-08-07T10:27:17Z</time>
      </trkpt>
      <trkpt lat="44.98524" lon="3.66869">
        <ele>874.4</ele>
        <time>2021-08-07T10:27:19Z</time>
      </trkpt>
      <trkpt lat="44.98531" lon="3.66872">
        <ele>874.4</ele>
        <time>2021-08-07T10:27:21Z</time>
      </trkpt>
      <trkpt lat="44.98538" lon="3.66872">
        <ele>874.7</ele>
        <time>2021-08-07T10:27:23Z</time>
      </trkpt>
      <trkpt lat="44.98545" lon="3.66875">
        <ele>874.6</ele>
        <time>2021-08-07T10:27:25Z</time>
      </trkpt>
      <trkpt lat="44.98551" lon="3.66879">
        <ele>874.5</ele>
        <time>2021-08-07T10:27:27Z</time>
      </trkpt>
      <trkpt lat="44.98558" lon="3.66882">
        <ele>874.5</ele>
        <time>2021-08-07T10:27:29Z</time>
      </trkpt>
      <trkpt lat="44.98565" lon="3.66886">
        <ele>874.5</ele>
        <time>2021-08-07T10:27:31Z</time>
      </trkpt>
      <trkpt lat="44.98571" lon="3.6689">
        <ele>874.5</ele>
        <time>2021-08-07T10:27:33Z</time>
      </trkpt>
      <trkpt lat="44.98577" lon="3.66895">
        <ele>874.4</ele>
        <time>2021-08-07T10:27:35Z</time>
      </trkpt>
      <trkpt lat="44.98583" lon="3.66898">
        <ele>874.5</ele>
        <time>2021-08-07T10:27:37Z</time>
      </trkpt>
      <trkpt lat="44.98589" lon="3.66903">
        <ele>874.4</ele>
        <time>2021-08-07T10:27:39Z</time>
      </trkpt>
      <trkpt lat="44.98595" lon="3.66907">
        <ele>874.3</ele>
        <time>2021-08-07T10:27:41Z</time>
      </trkpt>
      <trkpt lat="44.98601" lon="3.66913">
        <ele>874.1</ele>
        <time>2021-08-07T10:27:43Z</time>
      </trkpt>
      <trkpt lat="44.98607" lon="3.66918">
        <ele>874</ele>
        <time>2021-08-07T10:27:45Z</time>
      </trkpt>
      <trkpt lat="44.98614" lon="3.66922">
        <ele>873.7</ele>
        <time>2021-08-07T10:27:47Z</time>
      </trkpt>
      <trkpt lat="44.98621" lon="3.66925">
        <ele>873.6</ele>
        <time>2021-08-07T10:27:49Z</time>
      </trkpt>
      <trkpt lat="44.98627" lon="3.66929">
        <ele>873.4</ele>
        <time>2021-08-07T10:27:51Z</time>
      </trkpt>
      <trkpt lat="44.98634" lon="3.66932">
        <ele>873.3</ele>
        <time>2021-08-07T10:27:53Z</time>
      </trkpt>
      <trkpt lat="44.9864" lon="3.66934">
        <ele>873.3</ele>
        <time>2021-08-07T10:27:55Z</time>
      </trkpt>
      <trkpt lat="44.98648" lon="3.66936">
        <ele>873.3</ele>
        <time>2021-08-07T10:27:57Z</time>
      </trkpt>
      <trkpt lat="44.98655" lon="3.66938">
        <ele>873.4</ele>
        <time>2021-08-07T10:27:59Z</time>
      </trkpt>
      <trkpt lat="44.98663" lon="3.6694">
        <ele>873.5</ele>
        <time>2021-08-07T10:28:01Z</time>
      </trkpt>
      <trkpt lat="44.98671" lon="3.66942">
        <ele>873.3</ele>
        <time>2021-08-07T10:28:03Z</time>
      </trkpt>
      <trkpt lat="44.98678" lon="3.66944">
        <ele>873.1</ele>
        <time>2021-08-07T10:28:05Z</time>
      </trkpt>
      <trkpt lat="44.98686" lon="3.66945">
        <ele>872.9</ele>
        <time>2021-08-07T10:28:07Z</time>
      </trkpt>
      <trkpt lat="44.98695" lon="3.66947">
        <ele>872.5</ele>
        <time>2021-08-07T10:28:09Z</time>
      </trkpt>
      <trkpt lat="44.98703" lon="3.66949">
        <ele>872.2</ele>
        <time>2021-08-07T10:28:11Z</time>
      </trkpt>
      <trkpt lat="44.98713" lon="3.66951">
        <ele>871.8</ele>
        <time>2021-08-07T10:28:13Z</time>
      </trkpt>
      <trkpt lat="44.98722" lon="3.66954">
        <ele>871.2</ele>
        <time>2021-08-07T10:28:15Z</time>
      </trkpt>
      <trkpt lat="44.98733" lon="3.66956">
        <ele>870.8</ele>
        <time>2021-08-07T10:28:17Z</time>
      </trkpt>
      <trkpt lat="44.98744" lon="3.66958">
        <ele>870.1</ele>
        <time>2021-08-07T10:28:19Z</time>
      </trkpt>
      <trkpt lat="44.98755" lon="3.66961">
        <ele>869.7</ele>
        <time>2021-08-07T10:28:21Z</time>
      </trkpt>
      <trkpt lat="44.98767" lon="3.66965">
        <ele>869.8</ele>
        <time>2021-08-07T10:28:23Z</time>
      </trkpt>
      <trkpt lat="44.98778" lon="3.66969">
        <ele>869.9</ele>
        <time>2021-08-07T10:28:25Z</time>
      </trkpt>
      <trkpt lat="44.9879" lon="3.66973">
        <ele>869.9</ele>
        <time>2021-08-07T10:28:27Z</time>
      </trkpt>
      <trkpt lat="44.98801" lon="3.66979">
        <ele>869.8</ele>
        <time>2021-08-07T10:28:29Z</time>
      </trkpt>
      <trkpt lat="44.98812" lon="3.66985">
        <ele>869.6</ele>
        <time>2021-08-07T10:28:31Z</time>
      </trkpt>
      <trkpt lat="44.98823" lon="3.66993">
        <ele>869.3</ele>
        <time>2021-08-07T10:28:33Z</time>
      </trkpt>
      <trkpt lat="44.98833" lon="3.67001">
        <ele>868.9</ele>
        <time>2021-08-07T10:28:35Z</time>
      </trkpt>
      <trkpt lat="44.98843" lon="3.67009">
        <ele>869</ele>
        <time>2021-08-07T10:28:37Z</time>
      </trkpt>
      <trkpt lat="44.98853" lon="3.67015">
        <ele>869.1</ele>
        <time>2021-08-07T10:28:39Z</time>
      </trkpt>
      <trkpt lat="44.98863" lon="3.67022">
        <ele>869.1</ele>
        <time>2021-08-07T10:28:41Z</time>
      </trkpt>
      <trkpt lat="44.98873" lon="3.67029">
        <ele>869</ele>
        <time>2021-08-07T10:28:43Z</time>
      </trkpt>
      <trkpt lat="44.98883" lon="3.67034">
        <ele>868.9</ele>
        <time>2021-08-07T10:28:45Z</time>
      </trkpt>
      <trkpt lat="44.98893" lon="3.67035">
        <ele>869.3</ele>
        <time>2021-08-07T10:28:47Z</time>
      </trkpt>
      <trkpt lat="44.98904" lon="3.67032">
        <ele>870</ele>
        <time>2021-08-07T10:28:49Z</time>
      </trkpt>
      <trkpt lat="44.98914" lon="3.67026">
        <ele>871.1</ele>
        <time>2021-08-07T10:28:51Z</time>
      </trkpt>
      <trkpt lat="44.98925" lon="3.6702">
        <ele>871.8</ele>
        <time>2021-08-07T10:28:53Z</time>
      </trkpt>
      <trkpt lat="44.98936" lon="3.67014">
        <ele>872.4</ele>
        <time>2021-08-07T10:28:55Z</time>
      </trkpt>
      <trkpt lat="44.98947" lon="3.67007">
        <ele>872.8</ele>
        <time>2021-08-07T10:28:57Z</time>
      </trkpt>
      <trkpt lat="44.98957" lon="3.67001">
        <ele>873</ele>
        <time>2021-08-07T10:28:59Z</time>
      </trkpt>
      <trkpt lat="44.98967" lon="3.67001">
        <ele>872.8</ele>
        <time>2021-08-07T10:29:01Z</time>
      </trkpt>
      <trkpt lat="44.98975" lon="3.67008">
        <ele>872.4</ele>
        <time>2021-08-07T10:29:03Z</time>
      </trkpt>
      <trkpt lat="44.98978" lon="3.6702">
        <ele>872.1</ele>
        <time>2021-08-07T10:29:05Z</time>
      </trkpt>
      <trkpt lat="44.98978" lon="3.67029">
        <ele>871.9</ele>
        <time>2021-08-07T10:29:07Z</time>
      </trkpt>
      <trkpt lat="44.98979" lon="3.67037">
        <ele>871.8</ele>
        <time>2021-08-07T10:29:09Z</time>
      </trkpt>
      <trkpt lat="44.98978" lon="3.67045">
        <ele>871.6</ele>
        <time>2021-08-07T10:29:11Z</time>
      </trkpt>
      <trkpt lat="44.98979" lon="3.67053">
        <ele>871.5</ele>
        <time>2021-08-07T10:29:13Z</time>
      </trkpt>
      <trkpt lat="44.98979" lon="3.6706">
        <ele>871.4</ele>
        <time>2021-08-07T10:29:15Z</time>
      </trkpt>
      <trkpt lat="44.9898" lon="3.67065">
        <ele>871.4</ele>
        <time>2021-08-07T10:29:17Z</time>
      </trkpt>
      <trkpt lat="44.98981" lon="3.67071">
        <ele>871.4</ele>
        <time>2021-08-07T10:29:19Z</time>
      </trkpt>
      <trkpt lat="44.98983" lon="3.67077">
        <ele>871.4</ele>
        <time>2021-08-07T10:29:21Z</time>
      </trkpt>
      <trkpt lat="44.98984" lon="3.67082">
        <ele>871.5</ele>
        <time>2021-08-07T10:29:23Z</time>
      </trkpt>
      <trkpt lat="44.98986" lon="3.67087">
        <ele>872</ele>
        <time>2021-08-07T10:29:25Z</time>
      </trkpt>
      <trkpt lat="44.9899" lon="3.67091">
        <ele>872.6</ele>
        <time>2021-08-07T10:29:27Z</time>
      </trkpt>
      <trkpt lat="44.98993" lon="3.67095">
        <ele>873.2</ele>
        <time>2021-08-07T10:29:29Z</time>
      </trkpt>
      <trkpt lat="44.98996" lon="3.67099">
        <ele>873.8</ele>
        <time>2021-08-07T10:29:31Z</time>
      </trkpt>
      <trkpt lat="44.98999" lon="3.67103">
        <ele>874.4</ele>
        <time>2021-08-07T10:29:33Z</time>
      </trkpt>
      <trkpt lat="44.99002" lon="3.67107">
        <ele>875</ele>
        <time>2021-08-07T10:29:35Z</time>
      </trkpt>
      <trkpt lat="44.99005" lon="3.67111">
        <ele>875.7</ele>
        <time>2021-08-07T10:29:37Z</time>
      </trkpt>
      <trkpt lat="44.99007" lon="3.67115">
        <ele>876.2</ele>
        <time>2021-08-07T10:29:39Z</time>
      </trkpt>
      <trkpt lat="44.99008" lon="3.6712">
        <ele>876.6</ele>
        <time>2021-08-07T10:29:41Z</time>
      </trkpt>
      <trkpt lat="44.99009" lon="3.67126">
        <ele>877</ele>
        <time>2021-08-07T10:29:43Z</time>
      </trkpt>
      <trkpt lat="44.99008" lon="3.67131">
        <ele>877.3</ele>
        <time>2021-08-07T10:29:45Z</time>
      </trkpt>
      <trkpt lat="44.99005" lon="3.67136">
        <ele>877.3</ele>
        <time>2021-08-07T10:29:47Z</time>
      </trkpt>
      <trkpt lat="44.99002" lon="3.6714">
        <ele>877.3</ele>
        <time>2021-08-07T10:29:49Z</time>
      </trkpt>
      <trkpt lat="44.98998" lon="3.67142">
        <ele>877.1</ele>
        <time>2021-08-07T10:29:51Z</time>
      </trkpt>
      <trkpt lat="44.98994" lon="3.67144">
        <ele>877</ele>
        <time>2021-08-07T10:29:53Z</time>
      </trkpt>
      <trkpt lat="44.9899" lon="3.67144">
        <ele>876.7</ele>
        <time>2021-08-07T10:29:55Z</time>
      </trkpt>
      <trkpt lat="44.98986" lon="3.67144">
        <ele>876.4</ele>
        <time>2021-08-07T10:29:57Z</time>
      </trkpt>
      <trkpt lat="44.98982" lon="3.67145">
        <ele>876.2</ele>
        <time>2021-08-07T10:29:59Z</time>
      </trkpt>
      <trkpt lat="44.98979" lon="3.67146">
        <ele>876</ele>
        <time>2021-08-07T10:30:01Z</time>
      </trkpt>
      <trkpt lat="44.98975" lon="3.67147">
        <ele>875.8</ele>
        <time>2021-08-07T10:30:03Z</time>
      </trkpt>
      <trkpt lat="44.98971" lon="3.67148">
        <ele>875.7</ele>
        <time>2021-08-07T10:30:05Z</time>
      </trkpt>
      <trkpt lat="44.98968" lon="3.67149">
        <ele>875.6</ele>
        <time>2021-08-07T10:30:07Z</time>
      </trkpt>
      <trkpt lat="44.98965" lon="3.6715">
        <ele>875.5</ele>
        <time>2021-08-07T10:30:09Z</time>
      </trkpt>
      <trkpt lat="44.98962" lon="3.67153">
        <ele>875.5</ele>
        <time>2021-08-07T10:30:11Z</time>
      </trkpt>
      <trkpt lat="44.98958" lon="3.67155">
        <ele>875.5</ele>
        <time>2021-08-07T10:30:13Z</time>
      </trkpt>
      <trkpt lat="44.98955" lon="3.67157">
        <ele>875.4</ele>
        <time>2021-08-07T10:30:15Z</time>
      </trkpt>
      <trkpt lat="44.98952" lon="3.67159">
        <ele>875.4</ele>
        <time>2021-08-07T10:30:17Z</time>
      </trkpt>
      <trkpt lat="44.98949" lon="3.67162">
        <ele>875.5</ele>
        <time>2021-08-07T10:30:19Z</time>
      </trkpt>
      <trkpt lat="44.98946" lon="3.67165">
        <ele>875.6</ele>
        <time>2021-08-07T10:30:21Z</time>
      </trkpt>
      <trkpt lat="44.98943" lon="3.67167">
        <ele>875.7</ele>
        <time>2021-08-07T10:30:23Z</time>
      </trkpt>
      <trkpt lat="44.98941" lon="3.67171">
        <ele>875.9</ele>
        <time>2021-08-07T10:30:25Z</time>
      </trkpt>
      <trkpt lat="44.98938" lon="3.67174">
        <ele>876.1</ele>
        <time>2021-08-07T10:30:27Z</time>
      </trkpt>
      <trkpt lat="44.98936" lon="3.67178">
        <ele>876.3</ele>
        <time>2021-08-07T10:30:29Z</time>
      </trkpt>
      <trkpt lat="44.98933" lon="3.67181">
        <ele>876.5</ele>
        <time>2021-08-07T10:30:31Z</time>
      </trkpt>
      <trkpt lat="44.98931" lon="3.67184">
        <ele>876.7</ele>
        <time>2021-08-07T10:30:33Z</time>
      </trkpt>
      <trkpt lat="44.98929" lon="3.67188">
        <ele>877</ele>
        <time>2021-08-07T10:30:35Z</time>
      </trkpt>
      <trkpt lat="44.98926" lon="3.67191">
        <ele>877.2</ele>
        <time>2021-08-07T10:30:37Z</time>
      </trkpt>
      <trkpt lat="44.98924" lon="3.67194">
        <ele>877.4</ele>
        <time>2021-08-07T10:30:39Z</time>
      </trkpt>
      <trkpt lat="44.98921" lon="3.67198">
        <ele>877.6</ele>
        <time>2021-08-07T10:30:41Z</time>
      </trkpt>
      <trkpt lat="44.98919" lon="3.67202">
        <ele>877.9</ele>
        <time>2021-08-07T10:30:43Z</time>
      </trkpt>
      <trkpt lat="44.98917" lon="3.67205">
        <ele>878.2</ele>
        <time>2021-08-07T10:30:45Z</time>
      </trkpt>
      <trkpt lat="44.98917" lon="3.6721">
        <ele>878.6</ele>
        <time>2021-08-07T10:30:47Z</time>
      </trkpt>
      <trkpt lat="44.98913" lon="3.67213">
        <ele>879.1</ele>
        <time>2021-08-07T10:30:49Z</time>
      </trkpt>
      <trkpt lat="44.9891" lon="3.67215">
        <ele>879.4</ele>
        <time>2021-08-07T10:30:51Z</time>
      </trkpt>
      <trkpt lat="44.98908" lon="3.67219">
        <ele>879.8</ele>
        <time>2021-08-07T10:30:53Z</time>
      </trkpt>
      <trkpt lat="44.98905" lon="3.67223">
        <ele>880.3</ele>
        <time>2021-08-07T10:30:55Z</time>
      </trkpt>
      <trkpt lat="44.98903" lon="3.67226">
        <ele>880.7</ele>
        <time>2021-08-07T10:30:57Z</time>
      </trkpt>
      <trkpt lat="44.98901" lon="3.6723">
        <ele>881.2</ele>
        <time>2021-08-07T10:30:59Z</time>
      </trkpt>
      <trkpt lat="44.98899" lon="3.67234">
        <ele>881.7</ele>
        <time>2021-08-07T10:31:01Z</time>
      </trkpt>
      <trkpt lat="44.98898" lon="3.67237">
        <ele>882.1</ele>
        <time>2021-08-07T10:31:03Z</time>
      </trkpt>
      <trkpt lat="44.98896" lon="3.67241">
        <ele>882.5</ele>
        <time>2021-08-07T10:31:05Z</time>
      </trkpt>
      <trkpt lat="44.98893" lon="3.67245">
        <ele>883</ele>
        <time>2021-08-07T10:31:07Z</time>
      </trkpt>
      <trkpt lat="44.98891" lon="3.6725">
        <ele>883.6</ele>
        <time>2021-08-07T10:31:09Z</time>
      </trkpt>
      <trkpt lat="44.9889" lon="3.67254">
        <ele>883.8</ele>
        <time>2021-08-07T10:31:11Z</time>
      </trkpt>
      <trkpt lat="44.98888" lon="3.67259">
        <ele>884</ele>
        <time>2021-08-07T10:31:13Z</time>
      </trkpt>
      <trkpt lat="44.98887" lon="3.67263">
        <ele>884.2</ele>
        <time>2021-08-07T10:31:15Z</time>
      </trkpt>
      <trkpt lat="44.98886" lon="3.67268">
        <ele>884.4</ele>
        <time>2021-08-07T10:31:17Z</time>
      </trkpt>
      <trkpt lat="44.98885" lon="3.67273">
        <ele>884.5</ele>
        <time>2021-08-07T10:31:19Z</time>
      </trkpt>
      <trkpt lat="44.98885" lon="3.67278">
        <ele>884.7</ele>
        <time>2021-08-07T10:31:21Z</time>
      </trkpt>
      <trkpt lat="44.98884" lon="3.67282">
        <ele>884.9</ele>
        <time>2021-08-07T10:31:23Z</time>
      </trkpt>
      <trkpt lat="44.98884" lon="3.67287">
        <ele>885</ele>
        <time>2021-08-07T10:31:25Z</time>
      </trkpt>
      <trkpt lat="44.98884" lon="3.67292">
        <ele>885.2</ele>
        <time>2021-08-07T10:31:27Z</time>
      </trkpt>
      <trkpt lat="44.98884" lon="3.67297">
        <ele>885.4</ele>
        <time>2021-08-07T10:31:29Z</time>
      </trkpt>
      <trkpt lat="44.98884" lon="3.67302">
        <ele>885.6</ele>
        <time>2021-08-07T10:31:31Z</time>
      </trkpt>
      <trkpt lat="44.98883" lon="3.67307">
        <ele>885.7</ele>
        <time>2021-08-07T10:31:33Z</time>
      </trkpt>
      <trkpt lat="44.98884" lon="3.67312">
        <ele>885.9</ele>
        <time>2021-08-07T10:31:35Z</time>
      </trkpt>
      <trkpt lat="44.98884" lon="3.67316">
        <ele>886</ele>
        <time>2021-08-07T10:31:37Z</time>
      </trkpt>
      <trkpt lat="44.98885" lon="3.67321">
        <ele>886.2</ele>
        <time>2021-08-07T10:31:39Z</time>
      </trkpt>
      <trkpt lat="44.98885" lon="3.67325">
        <ele>886.3</ele>
        <time>2021-08-07T10:31:41Z</time>
      </trkpt>
      <trkpt lat="44.98885" lon="3.67329">
        <ele>886.5</ele>
        <time>2021-08-07T10:31:43Z</time>
      </trkpt>
      <trkpt lat="44.98885" lon="3.67334">
        <ele>886.6</ele>
        <time>2021-08-07T10:31:45Z</time>
      </trkpt>
      <trkpt lat="44.98886" lon="3.67338">
        <ele>886.2</ele>
        <time>2021-08-07T10:31:47Z</time>
      </trkpt>
      <trkpt lat="44.98886" lon="3.6734">
        <ele>886</ele>
        <time>2021-08-07T10:31:49Z</time>
      </trkpt>
      <trkpt lat="44.98886" lon="3.67344">
        <ele>885.6</ele>
        <time>2021-08-07T10:31:51Z</time>
      </trkpt>
      <trkpt lat="44.98887" lon="3.6735">
        <ele>885.2</ele>
        <time>2021-08-07T10:31:53Z</time>
      </trkpt>
      <trkpt lat="44.98888" lon="3.67354">
        <ele>884.8</ele>
        <time>2021-08-07T10:31:55Z</time>
      </trkpt>
      <trkpt lat="44.98887" lon="3.67357">
        <ele>884.6</ele>
        <time>2021-08-07T10:31:57Z</time>
      </trkpt>
      <trkpt lat="44.98886" lon="3.67361">
        <ele>884.2</ele>
        <time>2021-08-07T10:31:59Z</time>
      </trkpt>
      <trkpt lat="44.98886" lon="3.67364">
        <ele>883.9</ele>
        <time>2021-08-07T10:32:01Z</time>
      </trkpt>
      <trkpt lat="44.98887" lon="3.67365">
        <ele>883.8</ele>
        <time>2021-08-07T10:32:03Z</time>
      </trkpt>
      <trkpt lat="44.98895" lon="3.67384">
        <ele>882.6</ele>
        <time>2021-08-07T10:38:51Z</time>
      </trkpt>
      <trkpt lat="44.98898" lon="3.67393">
        <ele>882.1</ele>
        <time>2021-08-07T10:38:53Z</time>
      </trkpt>
      <trkpt lat="44.98902" lon="3.67405">
        <ele>881.5</ele>
        <time>2021-08-07T10:38:55Z</time>
      </trkpt>
      <trkpt lat="44.98909" lon="3.67416">
        <ele>881.3</ele>
        <time>2021-08-07T10:38:57Z</time>
      </trkpt>
      <trkpt lat="44.98916" lon="3.67427">
        <ele>880.3</ele>
        <time>2021-08-07T10:38:59Z</time>
      </trkpt>
      <trkpt lat="44.98923" lon="3.67439">
        <ele>879.9</ele>
        <time>2021-08-07T10:39:01Z</time>
      </trkpt>
      <trkpt lat="44.9893" lon="3.6745">
        <ele>879.7</ele>
        <time>2021-08-07T10:39:03Z</time>
      </trkpt>
      <trkpt lat="44.98937" lon="3.67462">
        <ele>879.7</ele>
        <time>2021-08-07T10:39:05Z</time>
      </trkpt>
      <trkpt lat="44.98944" lon="3.67475">
        <ele>880</ele>
        <time>2021-08-07T10:39:07Z</time>
      </trkpt>
      <trkpt lat="44.98951" lon="3.67488">
        <ele>880.1</ele>
        <time>2021-08-07T10:39:09Z</time>
      </trkpt>
      <trkpt lat="44.98955" lon="3.67503">
        <ele>879.8</ele>
        <time>2021-08-07T10:39:11Z</time>
      </trkpt>
      <trkpt lat="44.98959" lon="3.67519">
        <ele>879.6</ele>
        <time>2021-08-07T10:39:13Z</time>
      </trkpt>
      <trkpt lat="44.98963" lon="3.67535">
        <ele>879.2</ele>
        <time>2021-08-07T10:39:15Z</time>
      </trkpt>
      <trkpt lat="44.98965" lon="3.6755">
        <ele>878.8</ele>
        <time>2021-08-07T10:39:17Z</time>
      </trkpt>
      <trkpt lat="44.98968" lon="3.67564">
        <ele>878.6</ele>
        <time>2021-08-07T10:39:19Z</time>
      </trkpt>
      <trkpt lat="44.9897" lon="3.67579">
        <ele>878.3</ele>
        <time>2021-08-07T10:39:21Z</time>
      </trkpt>
      <trkpt lat="44.98972" lon="3.67591">
        <ele>878.1</ele>
        <time>2021-08-07T10:39:23Z</time>
      </trkpt>
      <trkpt lat="44.98973" lon="3.67602">
        <ele>878.2</ele>
        <time>2021-08-07T10:39:25Z</time>
      </trkpt>
      <trkpt lat="44.98974" lon="3.67612">
        <ele>878</ele>
        <time>2021-08-07T10:39:27Z</time>
      </trkpt>
      <trkpt lat="44.98975" lon="3.67622">
        <ele>877.8</ele>
        <time>2021-08-07T10:39:29Z</time>
      </trkpt>
      <trkpt lat="44.98975" lon="3.67625">
        <ele>877.7</ele>
        <time>2021-08-07T10:39:31Z</time>
      </trkpt>
      <trkpt lat="44.98975" lon="3.67628">
        <ele>877.7</ele>
        <time>2021-08-07T10:39:33Z</time>
      </trkpt>
      <trkpt lat="44.98976" lon="3.67633">
        <ele>877.9</ele>
        <time>2021-08-07T10:39:35Z</time>
      </trkpt>
      <trkpt lat="44.98978" lon="3.6764">
        <ele>878.1</ele>
        <time>2021-08-07T10:39:37Z</time>
      </trkpt>
      <trkpt lat="44.98978" lon="3.67649">
        <ele>877.7</ele>
        <time>2021-08-07T10:39:39Z</time>
      </trkpt>
      <trkpt lat="44.98979" lon="3.67657">
        <ele>877.6</ele>
        <time>2021-08-07T10:39:41Z</time>
      </trkpt>
      <trkpt lat="44.98979" lon="3.67666">
        <ele>877.3</ele>
        <time>2021-08-07T10:39:43Z</time>
      </trkpt>
      <trkpt lat="44.98981" lon="3.67675">
        <ele>877.4</ele>
        <time>2021-08-07T10:39:45Z</time>
      </trkpt>
      <trkpt lat="44.98981" lon="3.67681">
        <ele>877.2</ele>
        <time>2021-08-07T10:39:47Z</time>
      </trkpt>
      <trkpt lat="44.98981" lon="3.67686">
        <ele>877.1</ele>
        <time>2021-08-07T10:39:49Z</time>
      </trkpt>
      <trkpt lat="44.98982" lon="3.67694">
        <ele>876.8</ele>
        <time>2021-08-07T10:39:51Z</time>
      </trkpt>
      <trkpt lat="44.98983" lon="3.67703">
        <ele>876.6</ele>
        <time>2021-08-07T10:39:53Z</time>
      </trkpt>
      <trkpt lat="44.98983" lon="3.67713">
        <ele>876.4</ele>
        <time>2021-08-07T10:39:55Z</time>
      </trkpt>
      <trkpt lat="44.98984" lon="3.67723">
        <ele>876.2</ele>
        <time>2021-08-07T10:39:57Z</time>
      </trkpt>
      <trkpt lat="44.98986" lon="3.67734">
        <ele>876</ele>
        <time>2021-08-07T10:39:59Z</time>
      </trkpt>
      <trkpt lat="44.98987" lon="3.67744">
        <ele>875.8</ele>
        <time>2021-08-07T10:40:01Z</time>
      </trkpt>
      <trkpt lat="44.98989" lon="3.67754">
        <ele>875.7</ele>
        <time>2021-08-07T10:40:03Z</time>
      </trkpt>
      <trkpt lat="44.98988" lon="3.67759">
        <ele>875.4</ele>
        <time>2021-08-07T10:40:05Z</time>
      </trkpt>
      <trkpt lat="44.98989" lon="3.67761">
        <ele>875.5</ele>
        <time>2021-08-07T10:40:07Z</time>
      </trkpt>
      <trkpt lat="44.98989" lon="3.67768">
        <ele>875.2</ele>
        <time>2021-08-07T10:40:09Z</time>
      </trkpt>
      <trkpt lat="44.98989" lon="3.67777">
        <ele>874.8</ele>
        <time>2021-08-07T10:40:11Z</time>
      </trkpt>
      <trkpt lat="44.98991" lon="3.67785">
        <ele>874.7</ele>
        <time>2021-08-07T10:40:13Z</time>
      </trkpt>
      <trkpt lat="44.98993" lon="3.6779">
        <ele>874.8</ele>
        <time>2021-08-07T10:40:15Z</time>
      </trkpt>
      <trkpt lat="44.98994" lon="3.67795">
        <ele>874.7</ele>
        <time>2021-08-07T10:40:17Z</time>
      </trkpt>
      <trkpt lat="44.98996" lon="3.678">
        <ele>874.7</ele>
        <time>2021-08-07T10:40:19Z</time>
      </trkpt>
      <trkpt lat="44.98998" lon="3.67805">
        <ele>874.7</ele>
        <time>2021-08-07T10:40:21Z</time>
      </trkpt>
      <trkpt lat="44.98999" lon="3.67808">
        <ele>874.7</ele>
        <time>2021-08-07T10:40:23Z</time>
      </trkpt>
      <trkpt lat="44.99" lon="3.67812">
        <ele>874.6</ele>
        <time>2021-08-07T10:40:25Z</time>
      </trkpt>
      <trkpt lat="44.99002" lon="3.67816">
        <ele>874.5</ele>
        <time>2021-08-07T10:40:27Z</time>
      </trkpt>
      <trkpt lat="44.99003" lon="3.67821">
        <ele>874.4</ele>
        <time>2021-08-07T10:40:29Z</time>
      </trkpt>
      <trkpt lat="44.99004" lon="3.67826">
        <ele>874.1</ele>
        <time>2021-08-07T10:40:31Z</time>
      </trkpt>
      <trkpt lat="44.99005" lon="3.67828">
        <ele>874.1</ele>
        <time>2021-08-07T10:40:33Z</time>
      </trkpt>
      <trkpt lat="44.99005" lon="3.67829">
        <ele>874</ele>
        <time>2021-08-07T10:40:35Z</time>
      </trkpt>
      <trkpt lat="44.99005" lon="3.67829">
        <ele>874</ele>
        <time>2021-08-07T10:40:37Z</time>
      </trkpt>
      <trkpt lat="44.99005" lon="3.67829">
        <ele>874.1</ele>
        <time>2021-08-07T10:40:39Z</time>
      </trkpt>
      <trkpt lat="44.99006" lon="3.67829">
        <ele>874.1</ele>
        <time>2021-08-07T10:40:41Z</time>
      </trkpt>
      <trkpt lat="44.99004" lon="3.67829">
        <ele>874</ele>
        <time>2021-08-07T13:18:29Z</time>
      </trkpt>
      <trkpt lat="44.99008" lon="3.67838">
        <ele>874.5</ele>
        <time>2021-08-07T13:18:31Z</time>
      </trkpt>
      <trkpt lat="44.99008" lon="3.6785">
        <ele>875.7</ele>
        <time>2021-08-07T13:18:33Z</time>
      </trkpt>
      <trkpt lat="44.99002" lon="3.6786">
        <ele>875.6</ele>
        <time>2021-08-07T13:18:35Z</time>
      </trkpt>
      <trkpt lat="44.98997" lon="3.67868">
        <ele>875.7</ele>
        <time>2021-08-07T13:18:37Z</time>
      </trkpt>
      <trkpt lat="44.98992" lon="3.67876">
        <ele>875.9</ele>
        <time>2021-08-07T13:18:39Z</time>
      </trkpt>
      <trkpt lat="44.98987" lon="3.67883">
        <ele>876.1</ele>
        <time>2021-08-07T13:18:41Z</time>
      </trkpt>
      <trkpt lat="44.98982" lon="3.67888">
        <ele>876.3</ele>
        <time>2021-08-07T13:18:43Z</time>
      </trkpt>
      <trkpt lat="44.98978" lon="3.67893">
        <ele>876.5</ele>
        <time>2021-08-07T13:18:45Z</time>
      </trkpt>
      <trkpt lat="44.98973" lon="3.67897">
        <ele>876.5</ele>
        <time>2021-08-07T13:18:47Z</time>
      </trkpt>
      <trkpt lat="44.9897" lon="3.67899">
        <ele>876.5</ele>
        <time>2021-08-07T13:18:49Z</time>
      </trkpt>
      <trkpt lat="44.98967" lon="3.67898">
        <ele>876.2</ele>
        <time>2021-08-07T13:18:51Z</time>
      </trkpt>
      <trkpt lat="44.98963" lon="3.679">
        <ele>876.1</ele>
        <time>2021-08-07T13:18:53Z</time>
      </trkpt>
      <trkpt lat="44.98961" lon="3.679">
        <ele>876</ele>
        <time>2021-08-07T13:18:55Z</time>
      </trkpt>
      <trkpt lat="44.9896" lon="3.67899">
        <ele>875.9</ele>
        <time>2021-08-07T13:18:57Z</time>
      </trkpt>
      <trkpt lat="44.9896" lon="3.67899">
        <ele>875.8</ele>
        <time>2021-08-07T13:18:59Z</time>
      </trkpt>
      <trkpt lat="44.9896" lon="3.67899">
        <ele>875.8</ele>
        <time>2021-08-07T13:19:01Z</time>
      </trkpt>
      <trkpt lat="44.9896" lon="3.67899">
        <ele>875.9</ele>
        <time>2021-08-07T13:19:03Z</time>
      </trkpt>
      <trkpt lat="44.98929" lon="3.67884">
        <ele>872</ele>
        <time>2021-08-07T13:19:51Z</time>
      </trkpt>
      <trkpt lat="44.9892" lon="3.6788">
        <ele>870.8</ele>
        <time>2021-08-07T13:19:53Z</time>
      </trkpt>
      <trkpt lat="44.9891" lon="3.67874">
        <ele>870.5</ele>
        <time>2021-08-07T13:19:55Z</time>
      </trkpt>
      <trkpt lat="44.98906" lon="3.67869">
        <ele>870.5</ele>
        <time>2021-08-07T13:19:56Z</time>
      </trkpt>
      <trkpt lat="44.98893" lon="3.67853">
        <ele>870.8</ele>
        <time>2021-08-07T13:19:59Z</time>
      </trkpt>
      <trkpt lat="44.98885" lon="3.67841">
        <ele>871.5</ele>
        <time>2021-08-07T13:20:01Z</time>
      </trkpt>
      <trkpt lat="44.98877" lon="3.67828">
        <ele>871.7</ele>
        <time>2021-08-07T13:20:03Z</time>
      </trkpt>
      <trkpt lat="44.9887" lon="3.67815">
        <ele>870.9</ele>
        <time>2021-08-07T13:20:05Z</time>
      </trkpt>
      <trkpt lat="44.98863" lon="3.67802">
        <ele>869.9</ele>
        <time>2021-08-07T13:20:07Z</time>
      </trkpt>
      <trkpt lat="44.98857" lon="3.6779">
        <ele>868.4</ele>
        <time>2021-08-07T13:20:09Z</time>
      </trkpt>
      <trkpt lat="44.98852" lon="3.67778">
        <ele>866.8</ele>
        <time>2021-08-07T13:20:11Z</time>
      </trkpt>
      <trkpt lat="44.98847" lon="3.67766">
        <ele>865</ele>
        <time>2021-08-07T13:20:13Z</time>
      </trkpt>
      <trkpt lat="44.98841" lon="3.67755">
        <ele>863.4</ele>
        <time>2021-08-07T13:20:15Z</time>
      </trkpt>
      <trkpt lat="44.98835" lon="3.67744">
        <ele>861.3</ele>
        <time>2021-08-07T13:20:17Z</time>
      </trkpt>
      <trkpt lat="44.98827" lon="3.67733">
        <ele>858</ele>
        <time>2021-08-07T13:20:19Z</time>
      </trkpt>
      <trkpt lat="44.98819" lon="3.6773">
        <ele>855.7</ele>
        <time>2021-08-07T13:20:21Z</time>
      </trkpt>
      <trkpt lat="44.98808" lon="3.6773">
        <ele>854.2</ele>
        <time>2021-08-07T13:20:23Z</time>
      </trkpt>
      <trkpt lat="44.98798" lon="3.67734">
        <ele>853.5</ele>
        <time>2021-08-07T13:20:25Z</time>
      </trkpt>
      <trkpt lat="44.98787" lon="3.67742">
        <ele>853.7</ele>
        <time>2021-08-07T13:20:27Z</time>
      </trkpt>
      <trkpt lat="44.98775" lon="3.67752">
        <ele>854.4</ele>
        <time>2021-08-07T13:20:29Z</time>
      </trkpt>
      <trkpt lat="44.98762" lon="3.67764">
        <ele>855.8</ele>
        <time>2021-08-07T13:20:31Z</time>
      </trkpt>
      <trkpt lat="44.98748" lon="3.67777">
        <ele>857.4</ele>
        <time>2021-08-07T13:20:33Z</time>
      </trkpt>
      <trkpt lat="44.98733" lon="3.67789">
        <ele>857</ele>
        <time>2021-08-07T13:20:35Z</time>
      </trkpt>
      <trkpt lat="44.98717" lon="3.678">
        <ele>856</ele>
        <time>2021-08-07T13:20:37Z</time>
      </trkpt>
      <trkpt lat="44.98703" lon="3.67812">
        <ele>855.6</ele>
        <time>2021-08-07T13:20:39Z</time>
      </trkpt>
      <trkpt lat="44.98688" lon="3.67823">
        <ele>854.9</ele>
        <time>2021-08-07T13:20:41Z</time>
      </trkpt>
      <trkpt lat="44.98674" lon="3.67835">
        <ele>854.1</ele>
        <time>2021-08-07T13:20:43Z</time>
      </trkpt>
      <trkpt lat="44.98659" lon="3.67847">
        <ele>851.5</ele>
        <time>2021-08-07T13:20:45Z</time>
      </trkpt>
      <trkpt lat="44.98646" lon="3.67857">
        <ele>849.3</ele>
        <time>2021-08-07T13:20:47Z</time>
      </trkpt>
      <trkpt lat="44.98635" lon="3.67865">
        <ele>847.3</ele>
        <time>2021-08-07T13:20:49Z</time>
      </trkpt>
      <trkpt lat="44.98625" lon="3.67873">
        <ele>845.6</ele>
        <time>2021-08-07T13:20:51Z</time>
      </trkpt>
      <trkpt lat="44.98619" lon="3.67884">
        <ele>844.9</ele>
        <time>2021-08-07T13:20:53Z</time>
      </trkpt>
      <trkpt lat="44.9862" lon="3.67899">
        <ele>846.1</ele>
        <time>2021-08-07T13:20:55Z</time>
      </trkpt>
      <trkpt lat="44.98625" lon="3.67912">
        <ele>848.2</ele>
        <time>2021-08-07T13:20:57Z</time>
      </trkpt>
      <trkpt lat="44.98631" lon="3.67924">
        <ele>848.7</ele>
        <time>2021-08-07T13:20:59Z</time>
      </trkpt>
      <trkpt lat="44.98636" lon="3.67937">
        <ele>848</ele>
        <time>2021-08-07T13:21:01Z</time>
      </trkpt>
      <trkpt lat="44.98642" lon="3.67949">
        <ele>847.1</ele>
        <time>2021-08-07T13:21:03Z</time>
      </trkpt>
      <trkpt lat="44.98648" lon="3.6796">
        <ele>846.5</ele>
        <time>2021-08-07T13:21:05Z</time>
      </trkpt>
      <trkpt lat="44.98656" lon="3.67968">
        <ele>847</ele>
        <time>2021-08-07T13:21:07Z</time>
      </trkpt>
      <trkpt lat="44.98666" lon="3.67968">
        <ele>848.9</ele>
        <time>2021-08-07T13:21:09Z</time>
      </trkpt>
      <trkpt lat="44.98676" lon="3.67964">
        <ele>850.9</ele>
        <time>2021-08-07T13:21:11Z</time>
      </trkpt>
      <trkpt lat="44.98687" lon="3.6796">
        <ele>852.9</ele>
        <time>2021-08-07T13:21:13Z</time>
      </trkpt>
      <trkpt lat="44.98699" lon="3.67959">
        <ele>854.3</ele>
        <time>2021-08-07T13:21:15Z</time>
      </trkpt>
      <trkpt lat="44.98711" lon="3.67964">
        <ele>854.3</ele>
        <time>2021-08-07T13:21:17Z</time>
      </trkpt>
      <trkpt lat="44.98722" lon="3.67973">
        <ele>853.2</ele>
        <time>2021-08-07T13:21:19Z</time>
      </trkpt>
      <trkpt lat="44.98734" lon="3.67983">
        <ele>851.5</ele>
        <time>2021-08-07T13:21:21Z</time>
      </trkpt>
      <trkpt lat="44.98739" lon="3.67988">
        <ele>850.7</ele>
        <time>2021-08-07T13:21:22Z</time>
      </trkpt>
      <trkpt lat="44.98757" lon="3.67995">
        <ele>849.9</ele>
        <time>2021-08-07T13:21:25Z</time>
      </trkpt>
      <trkpt lat="44.9877" lon="3.67994">
        <ele>851</ele>
        <time>2021-08-07T13:21:27Z</time>
      </trkpt>
      <trkpt lat="44.98784" lon="3.67993">
        <ele>852.1</ele>
        <time>2021-08-07T13:21:29Z</time>
      </trkpt>
      <trkpt lat="44.98799" lon="3.67991">
        <ele>853.4</ele>
        <time>2021-08-07T13:21:31Z</time>
      </trkpt>
      <trkpt lat="44.98812" lon="3.67991">
        <ele>854.1</ele>
        <time>2021-08-07T13:21:33Z</time>
      </trkpt>
      <trkpt lat="44.98825" lon="3.67992">
        <ele>854.7</ele>
        <time>2021-08-07T13:21:35Z</time>
      </trkpt>
      <trkpt lat="44.9883" lon="3.67993">
        <ele>854.7</ele>
        <time>2021-08-07T13:21:36Z</time>
      </trkpt>
      <trkpt lat="44.98841" lon="3.68007">
        <ele>854.5</ele>
        <time>2021-08-07T13:21:39Z</time>
      </trkpt>
      <trkpt lat="44.98844" lon="3.68022">
        <ele>855.4</ele>
        <time>2021-08-07T13:21:41Z</time>
      </trkpt>
      <trkpt lat="44.98845" lon="3.68036">
        <ele>856</ele>
        <time>2021-08-07T13:21:43Z</time>
      </trkpt>
      <trkpt lat="44.98845" lon="3.68051">
        <ele>856.6</ele>
        <time>2021-08-07T13:21:45Z</time>
      </trkpt>
      <trkpt lat="44.98842" lon="3.68065">
        <ele>856.5</ele>
        <time>2021-08-07T13:21:47Z</time>
      </trkpt>
      <trkpt lat="44.98833" lon="3.68075">
        <ele>855.7</ele>
        <time>2021-08-07T13:21:49Z</time>
      </trkpt>
      <trkpt lat="44.98824" lon="3.68081">
        <ele>854.3</ele>
        <time>2021-08-07T13:21:51Z</time>
      </trkpt>
      <trkpt lat="44.98815" lon="3.68086">
        <ele>854.7</ele>
        <time>2021-08-07T13:21:53Z</time>
      </trkpt>
      <trkpt lat="44.98806" lon="3.68091">
        <ele>856</ele>
        <time>2021-08-07T13:21:55Z</time>
      </trkpt>
      <trkpt lat="44.98798" lon="3.68095">
        <ele>856.7</ele>
        <time>2021-08-07T13:21:57Z</time>
      </trkpt>
      <trkpt lat="44.9879" lon="3.68099">
        <ele>857.8</ele>
        <time>2021-08-07T13:21:59Z</time>
      </trkpt>
      <trkpt lat="44.98784" lon="3.68104">
        <ele>859.1</ele>
        <time>2021-08-07T13:22:01Z</time>
      </trkpt>
      <trkpt lat="44.98779" lon="3.68108">
        <ele>860.4</ele>
        <time>2021-08-07T13:22:03Z</time>
      </trkpt>
      <trkpt lat="44.98774" lon="3.68113">
        <ele>862</ele>
        <time>2021-08-07T13:22:05Z</time>
      </trkpt>
      <trkpt lat="44.9877" lon="3.68117">
        <ele>863.1</ele>
        <time>2021-08-07T13:22:07Z</time>
      </trkpt>
      <trkpt lat="44.98765" lon="3.6812">
        <ele>864</ele>
        <time>2021-08-07T13:22:09Z</time>
      </trkpt>
      <trkpt lat="44.9876" lon="3.68122">
        <ele>864.3</ele>
        <time>2021-08-07T13:22:11Z</time>
      </trkpt>
      <trkpt lat="44.98755" lon="3.68123">
        <ele>863.8</ele>
        <time>2021-08-07T13:22:13Z</time>
      </trkpt>
      <trkpt lat="44.98751" lon="3.68124">
        <ele>863.3</ele>
        <time>2021-08-07T13:22:15Z</time>
      </trkpt>
      <trkpt lat="44.98746" lon="3.68125">
        <ele>863.3</ele>
        <time>2021-08-07T13:22:17Z</time>
      </trkpt>
      <trkpt lat="44.98741" lon="3.68126">
        <ele>863.6</ele>
        <time>2021-08-07T13:22:19Z</time>
      </trkpt>
      <trkpt lat="44.98737" lon="3.68127">
        <ele>864.2</ele>
        <time>2021-08-07T13:22:21Z</time>
      </trkpt>
      <trkpt lat="44.98732" lon="3.68127">
        <ele>864.1</ele>
        <time>2021-08-07T13:22:23Z</time>
      </trkpt>
      <trkpt lat="44.98728" lon="3.68128">
        <ele>864.4</ele>
        <time>2021-08-07T13:22:25Z</time>
      </trkpt>
      <trkpt lat="44.98725" lon="3.68128">
        <ele>864.5</ele>
        <time>2021-08-07T13:22:27Z</time>
      </trkpt>
      <trkpt lat="44.98721" lon="3.68129">
        <ele>864.7</ele>
        <time>2021-08-07T13:22:29Z</time>
      </trkpt>
      <trkpt lat="44.98717" lon="3.68129">
        <ele>864.9</ele>
        <time>2021-08-07T13:22:31Z</time>
      </trkpt>
      <trkpt lat="44.98714" lon="3.6813">
        <ele>865.5</ele>
        <time>2021-08-07T13:22:33Z</time>
      </trkpt>
      <trkpt lat="44.98709" lon="3.68131">
        <ele>865.5</ele>
        <time>2021-08-07T13:22:35Z</time>
      </trkpt>
      <trkpt lat="44.98705" lon="3.68131">
        <ele>865.4</ele>
        <time>2021-08-07T13:22:37Z</time>
      </trkpt>
      <trkpt lat="44.98701" lon="3.68131">
        <ele>865.5</ele>
        <time>2021-08-07T13:22:39Z</time>
      </trkpt>
      <trkpt lat="44.98697" lon="3.6813">
        <ele>864.9</ele>
        <time>2021-08-07T13:22:41Z</time>
      </trkpt>
      <trkpt lat="44.98694" lon="3.68129">
        <ele>864.4</ele>
        <time>2021-08-07T13:22:42Z</time>
      </trkpt>
      <trkpt lat="44.98687" lon="3.68127">
        <ele>863.5</ele>
        <time>2021-08-07T13:22:45Z</time>
      </trkpt>
      <trkpt lat="44.98682" lon="3.68126">
        <ele>862.7</ele>
        <time>2021-08-07T13:22:47Z</time>
      </trkpt>
      <trkpt lat="44.98677" lon="3.68125">
        <ele>862.3</ele>
        <time>2021-08-07T13:22:49Z</time>
      </trkpt>
      <trkpt lat="44.98672" lon="3.68125">
        <ele>862.2</ele>
        <time>2021-08-07T13:22:51Z</time>
      </trkpt>
      <trkpt lat="44.98667" lon="3.68125">
        <ele>861.8</ele>
        <time>2021-08-07T13:22:53Z</time>
      </trkpt>
      <trkpt lat="44.98661" lon="3.68124">
        <ele>861.8</ele>
        <time>2021-08-07T13:22:55Z</time>
      </trkpt>
      <trkpt lat="44.98656" lon="3.68123">
        <ele>861.6</ele>
        <time>2021-08-07T13:22:57Z</time>
      </trkpt>
      <trkpt lat="44.9865" lon="3.68124">
        <ele>862</ele>
        <time>2021-08-07T13:22:59Z</time>
      </trkpt>
      <trkpt lat="44.98645" lon="3.68122">
        <ele>861.6</ele>
        <time>2021-08-07T13:23:01Z</time>
      </trkpt>
      <trkpt lat="44.98642" lon="3.68123">
        <ele>861.8</ele>
        <time>2021-08-07T13:23:02Z</time>
      </trkpt>
      <trkpt lat="44.98634" lon="3.68123">
        <ele>862.3</ele>
        <time>2021-08-07T13:23:05Z</time>
      </trkpt>
      <trkpt lat="44.98628" lon="3.68122">
        <ele>862.2</ele>
        <time>2021-08-07T13:23:07Z</time>
      </trkpt>
      <trkpt lat="44.98622" lon="3.68122">
        <ele>862.2</ele>
        <time>2021-08-07T13:23:09Z</time>
      </trkpt>
      <trkpt lat="44.98616" lon="3.68122">
        <ele>862.4</ele>
        <time>2021-08-07T13:23:11Z</time>
      </trkpt>
      <trkpt lat="44.98611" lon="3.6812">
        <ele>861.9</ele>
        <time>2021-08-07T13:23:13Z</time>
      </trkpt>
      <trkpt lat="44.98605" lon="3.68118">
        <ele>861.4</ele>
        <time>2021-08-07T13:23:15Z</time>
      </trkpt>
      <trkpt lat="44.98602" lon="3.68117">
        <ele>861</ele>
        <time>2021-08-07T13:23:16Z</time>
      </trkpt>
      <trkpt lat="44.98594" lon="3.68114">
        <ele>859.8</ele>
        <time>2021-08-07T13:23:19Z</time>
      </trkpt>
      <trkpt lat="44.98589" lon="3.6811">
        <ele>858.4</ele>
        <time>2021-08-07T13:23:21Z</time>
      </trkpt>
      <trkpt lat="44.98584" lon="3.68107">
        <ele>857.1</ele>
        <time>2021-08-07T13:23:23Z</time>
      </trkpt>
      <trkpt lat="44.98578" lon="3.68104">
        <ele>855.8</ele>
        <time>2021-08-07T13:23:25Z</time>
      </trkpt>
      <trkpt lat="44.98572" lon="3.68106">
        <ele>855.9</ele>
        <time>2021-08-07T13:23:27Z</time>
      </trkpt>
      <trkpt lat="44.98567" lon="3.68106">
        <ele>855.9</ele>
        <time>2021-08-07T13:23:29Z</time>
      </trkpt>
      <trkpt lat="44.98562" lon="3.68108">
        <ele>856.4</ele>
        <time>2021-08-07T13:23:31Z</time>
      </trkpt>
      <trkpt lat="44.98557" lon="3.68113">
        <ele>858.2</ele>
        <time>2021-08-07T13:23:33Z</time>
      </trkpt>
      <trkpt lat="44.98552" lon="3.68118">
        <ele>860.2</ele>
        <time>2021-08-07T13:23:35Z</time>
      </trkpt>
      <trkpt lat="44.98546" lon="3.68122">
        <ele>861.7</ele>
        <time>2021-08-07T13:23:37Z</time>
      </trkpt>
      <trkpt lat="44.9854" lon="3.68125">
        <ele>863</ele>
        <time>2021-08-07T13:23:39Z</time>
      </trkpt>
      <trkpt lat="44.98535" lon="3.68126">
        <ele>863.3</ele>
        <time>2021-08-07T13:23:41Z</time>
      </trkpt>
      <trkpt lat="44.98529" lon="3.68128">
        <ele>863.6</ele>
        <time>2021-08-07T13:23:43Z</time>
      </trkpt>
      <trkpt lat="44.98523" lon="3.68129">
        <ele>863.9</ele>
        <time>2021-08-07T13:23:45Z</time>
      </trkpt>
      <trkpt lat="44.98517" lon="3.68129">
        <ele>863.7</ele>
        <time>2021-08-07T13:23:47Z</time>
      </trkpt>
      <trkpt lat="44.98511" lon="3.68129">
        <ele>863.5</ele>
        <time>2021-08-07T13:23:49Z</time>
      </trkpt>
      <trkpt lat="44.98506" lon="3.68129">
        <ele>863.1</ele>
        <time>2021-08-07T13:23:51Z</time>
      </trkpt>
      <trkpt lat="44.985" lon="3.68129">
        <ele>863</ele>
        <time>2021-08-07T13:23:53Z</time>
      </trkpt>
      <trkpt lat="44.98495" lon="3.6813">
        <ele>862.3</ele>
        <time>2021-08-07T13:23:55Z</time>
      </trkpt>
      <trkpt lat="44.9849" lon="3.68131">
        <ele>861.5</ele>
        <time>2021-08-07T13:23:57Z</time>
      </trkpt>
      <trkpt lat="44.98485" lon="3.68133">
        <ele>861.5</ele>
        <time>2021-08-07T13:23:59Z</time>
      </trkpt>
      <trkpt lat="44.98479" lon="3.68136">
        <ele>861.4</ele>
        <time>2021-08-07T13:24:01Z</time>
      </trkpt>
      <trkpt lat="44.98473" lon="3.68136">
        <ele>860.2</ele>
        <time>2021-08-07T13:24:03Z</time>
      </trkpt>
      <trkpt lat="44.98466" lon="3.68135">
        <ele>858.2</ele>
        <time>2021-08-07T13:24:05Z</time>
      </trkpt>
      <trkpt lat="44.9846" lon="3.68133">
        <ele>856.1</ele>
        <time>2021-08-07T13:24:07Z</time>
      </trkpt>
      <trkpt lat="44.98454" lon="3.68131">
        <ele>853.6</ele>
        <time>2021-08-07T13:24:09Z</time>
      </trkpt>
      <trkpt lat="44.98449" lon="3.68128">
        <ele>851.4</ele>
        <time>2021-08-07T13:24:11Z</time>
      </trkpt>
      <trkpt lat="44.98444" lon="3.68128">
        <ele>850.3</ele>
        <time>2021-08-07T13:24:13Z</time>
      </trkpt>
      <trkpt lat="44.98439" lon="3.68129">
        <ele>849.6</ele>
        <time>2021-08-07T13:24:15Z</time>
      </trkpt>
      <trkpt lat="44.98433" lon="3.68132">
        <ele>849.3</ele>
        <time>2021-08-07T13:24:17Z</time>
      </trkpt>
      <trkpt lat="44.98427" lon="3.68135">
        <ele>849</ele>
        <time>2021-08-07T13:24:19Z</time>
      </trkpt>
      <trkpt lat="44.98421" lon="3.68138">
        <ele>849</ele>
        <time>2021-08-07T13:24:21Z</time>
      </trkpt>
      <trkpt lat="44.98418" lon="3.68139">
        <ele>848.9</ele>
        <time>2021-08-07T13:24:22Z</time>
      </trkpt>
      <trkpt lat="44.9841" lon="3.68146">
        <ele>848.5</ele>
        <time>2021-08-07T13:24:25Z</time>
      </trkpt>
      <trkpt lat="44.98407" lon="3.68154">
        <ele>850.2</ele>
        <time>2021-08-07T13:24:27Z</time>
      </trkpt>
      <trkpt lat="44.98404" lon="3.68166">
        <ele>853.3</ele>
        <time>2021-08-07T13:24:29Z</time>
      </trkpt>
      <trkpt lat="44.98402" lon="3.68175">
        <ele>856</ele>
        <time>2021-08-07T13:24:31Z</time>
      </trkpt>
      <trkpt lat="44.984" lon="3.68185">
        <ele>858.8</ele>
        <time>2021-08-07T13:24:33Z</time>
      </trkpt>
      <trkpt lat="44.98395" lon="3.68192">
        <ele>859.8</ele>
        <time>2021-08-07T13:24:35Z</time>
      </trkpt>
      <trkpt lat="44.98389" lon="3.68199">
        <ele>859.6</ele>
        <time>2021-08-07T13:24:37Z</time>
      </trkpt>
      <trkpt lat="44.98382" lon="3.68204">
        <ele>858.2</ele>
        <time>2021-08-07T13:24:39Z</time>
      </trkpt>
      <trkpt lat="44.98375" lon="3.68207">
        <ele>855.9</ele>
        <time>2021-08-07T13:24:41Z</time>
      </trkpt>
      <trkpt lat="44.9837" lon="3.68209">
        <ele>854.4</ele>
        <time>2021-08-07T13:24:42Z</time>
      </trkpt>
      <trkpt lat="44.98359" lon="3.68208">
        <ele>848.7</ele>
        <time>2021-08-07T13:24:45Z</time>
      </trkpt>
      <trkpt lat="44.98351" lon="3.68208">
        <ele>844.9</ele>
        <time>2021-08-07T13:24:47Z</time>
      </trkpt>
      <trkpt lat="44.98342" lon="3.68208">
        <ele>841</ele>
        <time>2021-08-07T13:24:49Z</time>
      </trkpt>
      <trkpt lat="44.98335" lon="3.68209">
        <ele>837.9</ele>
        <time>2021-08-07T13:24:51Z</time>
      </trkpt>
      <trkpt lat="44.9833" lon="3.68213">
        <ele>836.5</ele>
        <time>2021-08-07T13:24:53Z</time>
      </trkpt>
      <trkpt lat="44.98328" lon="3.68217">
        <ele>836.1</ele>
        <time>2021-08-07T13:24:55Z</time>
      </trkpt>
      <trkpt lat="44.98328" lon="3.68217">
        <ele>836.2</ele>
        <time>2021-08-07T13:24:57Z</time>
      </trkpt>
      <trkpt lat="44.98328" lon="3.68217">
        <ele>836.4</ele>
        <time>2021-08-07T13:24:59Z</time>
      </trkpt>
      <trkpt lat="44.98328" lon="3.68217">
        <ele>836.5</ele>
        <time>2021-08-07T13:25:01Z</time>
      </trkpt>
      <trkpt lat="44.98328" lon="3.68217">
        <ele>836.5</ele>
        <time>2021-08-07T13:25:03Z</time>
      </trkpt>
      <trkpt lat="44.98326" lon="3.68217">
        <ele>835.2</ele>
        <time>2021-08-07T13:34:27Z</time>
      </trkpt>
      <trkpt lat="44.98324" lon="3.68229">
        <ele>837.3</ele>
        <time>2021-08-07T13:34:29Z</time>
      </trkpt>
      <trkpt lat="44.98322" lon="3.68245">
        <ele>841.1</ele>
        <time>2021-08-07T13:34:31Z</time>
      </trkpt>
      <trkpt lat="44.9832" lon="3.68253">
        <ele>842.2</ele>
        <time>2021-08-07T13:34:32Z</time>
      </trkpt>
      <trkpt lat="44.98318" lon="3.68278">
        <ele>846.2</ele>
        <time>2021-08-07T13:34:35Z</time>
      </trkpt>
      <trkpt lat="44.98315" lon="3.68295">
        <ele>848.3</ele>
        <time>2021-08-07T13:34:37Z</time>
      </trkpt>
      <trkpt lat="44.98311" lon="3.68312">
        <ele>849.1</ele>
        <time>2021-08-07T13:34:39Z</time>
      </trkpt>
      <trkpt lat="44.98308" lon="3.68329">
        <ele>851.4</ele>
        <time>2021-08-07T13:34:41Z</time>
      </trkpt>
      <trkpt lat="44.98307" lon="3.68338">
        <ele>852.5</ele>
        <time>2021-08-07T13:34:42Z</time>
      </trkpt>
      <trkpt lat="44.98299" lon="3.68362">
        <ele>851.2</ele>
        <time>2021-08-07T13:34:45Z</time>
      </trkpt>
      <trkpt lat="44.98295" lon="3.68378">
        <ele>851</ele>
        <time>2021-08-07T13:34:47Z</time>
      </trkpt>
      <trkpt lat="44.98292" lon="3.68393">
        <ele>852.4</ele>
        <time>2021-08-07T13:34:49Z</time>
      </trkpt>
      <trkpt lat="44.98292" lon="3.68408">
        <ele>855.1</ele>
        <time>2021-08-07T13:34:51Z</time>
      </trkpt>
      <trkpt lat="44.98293" lon="3.68422">
        <ele>858.2</ele>
        <time>2021-08-07T13:34:53Z</time>
      </trkpt>
      <trkpt lat="44.98293" lon="3.68429">
        <ele>859.6</ele>
        <time>2021-08-07T13:34:54Z</time>
      </trkpt>
      <trkpt lat="44.98289" lon="3.68442">
        <ele>859.3</ele>
        <time>2021-08-07T13:34:56Z</time>
      </trkpt>
      <trkpt lat="44.98274" lon="3.68453">
        <ele>852.4</ele>
        <time>2021-08-07T13:34:59Z</time>
      </trkpt>
      <trkpt lat="44.98264" lon="3.68459">
        <ele>847.3</ele>
        <time>2021-08-07T13:35:01Z</time>
      </trkpt>
      <trkpt lat="44.98254" lon="3.68465">
        <ele>842.6</ele>
        <time>2021-08-07T13:35:03Z</time>
      </trkpt>
      <trkpt lat="44.98246" lon="3.68471">
        <ele>839.5</ele>
        <time>2021-08-07T13:35:05Z</time>
      </trkpt>
      <trkpt lat="44.98241" lon="3.68477">
        <ele>838.4</ele>
        <time>2021-08-07T13:35:07Z</time>
      </trkpt>
      <trkpt lat="44.98237" lon="3.68481">
        <ele>837.5</ele>
        <time>2021-08-07T13:35:09Z</time>
      </trkpt>
      <trkpt lat="44.98236" lon="3.68484">
        <ele>837.6</ele>
        <time>2021-08-07T13:35:11Z</time>
      </trkpt>
      <trkpt lat="44.98236" lon="3.68483">
        <ele>837.6</ele>
        <time>2021-08-07T13:35:13Z</time>
      </trkpt>
      <trkpt lat="44.98236" lon="3.68483">
        <ele>837.6</ele>
        <time>2021-08-07T13:35:15Z</time>
      </trkpt>
      <trkpt lat="44.98236" lon="3.68484">
        <ele>837.8</ele>
        <time>2021-08-07T13:35:17Z</time>
      </trkpt>
      <trkpt lat="44.98239" lon="3.68484">
        <ele>838.9</ele>
        <time>2021-08-07T13:35:19Z</time>
      </trkpt>
      <trkpt lat="44.98243" lon="3.6848">
        <ele>839.8</ele>
        <time>2021-08-07T13:35:21Z</time>
      </trkpt>
      <trkpt lat="44.98244" lon="3.68476">
        <ele>839.8</ele>
        <time>2021-08-07T13:35:22Z</time>
      </trkpt>
      <trkpt lat="44.9825" lon="3.6847">
        <ele>841.4</ele>
        <time>2021-08-07T13:35:25Z</time>
      </trkpt>
      <trkpt lat="44.98257" lon="3.68466">
        <ele>844.5</ele>
        <time>2021-08-07T13:35:27Z</time>
      </trkpt>
      <trkpt lat="44.98263" lon="3.68462">
        <ele>847.6</ele>
        <time>2021-08-07T13:35:29Z</time>
      </trkpt>
      <trkpt lat="44.9827" lon="3.68458">
        <ele>851</ele>
        <time>2021-08-07T13:35:31Z</time>
      </trkpt>
      <trkpt lat="44.98276" lon="3.68454">
        <ele>853.9</ele>
        <time>2021-08-07T13:35:33Z</time>
      </trkpt>
      <trkpt lat="44.98283" lon="3.68449">
        <ele>857</ele>
        <time>2021-08-07T13:35:35Z</time>
      </trkpt>
      <trkpt lat="44.98289" lon="3.68443">
        <ele>859.2</ele>
        <time>2021-08-07T13:35:37Z</time>
      </trkpt>
      <trkpt lat="44.98293" lon="3.68434">
        <ele>860.3</ele>
        <time>2021-08-07T13:35:39Z</time>
      </trkpt>
      <trkpt lat="44.98294" lon="3.68423">
        <ele>858.9</ele>
        <time>2021-08-07T13:35:41Z</time>
      </trkpt>
      <trkpt lat="44.98293" lon="3.68412">
        <ele>856.5</ele>
        <time>2021-08-07T13:35:43Z</time>
      </trkpt>
      <trkpt lat="44.98293" lon="3.68401">
        <ele>854.5</ele>
        <time>2021-08-07T13:35:45Z</time>
      </trkpt>
      <trkpt lat="44.98294" lon="3.68389">
        <ele>852.7</ele>
        <time>2021-08-07T13:35:47Z</time>
      </trkpt>
      <trkpt lat="44.98295" lon="3.68383">
        <ele>852.1</ele>
        <time>2021-08-07T13:35:48Z</time>
      </trkpt>
      <trkpt lat="44.983" lon="3.68366">
        <ele>852.3</ele>
        <time>2021-08-07T13:35:51Z</time>
      </trkpt>
      <trkpt lat="44.98303" lon="3.68355">
        <ele>852.5</ele>
        <time>2021-08-07T13:35:53Z</time>
      </trkpt>
      <trkpt lat="44.98307" lon="3.68343">
        <ele>853</ele>
        <time>2021-08-07T13:35:55Z</time>
      </trkpt>
      <trkpt lat="44.98309" lon="3.68331">
        <ele>852.6</ele>
        <time>2021-08-07T13:35:57Z</time>
      </trkpt>
      <trkpt lat="44.98311" lon="3.68321">
        <ele>851.1</ele>
        <time>2021-08-07T13:35:59Z</time>
      </trkpt>
      <trkpt lat="44.98313" lon="3.6831">
        <ele>850</ele>
        <time>2021-08-07T13:36:01Z</time>
      </trkpt>
      <trkpt lat="44.98315" lon="3.683">
        <ele>849.3</ele>
        <time>2021-08-07T13:36:03Z</time>
      </trkpt>
      <trkpt lat="44.98317" lon="3.6829">
        <ele>848.2</ele>
        <time>2021-08-07T13:36:05Z</time>
      </trkpt>
      <trkpt lat="44.98319" lon="3.68281">
        <ele>847.5</ele>
        <time>2021-08-07T13:36:07Z</time>
      </trkpt>
      <trkpt lat="44.9832" lon="3.6827">
        <ele>845.9</ele>
        <time>2021-08-07T13:36:09Z</time>
      </trkpt>
      <trkpt lat="44.98321" lon="3.68262">
        <ele>844.7</ele>
        <time>2021-08-07T13:36:11Z</time>
      </trkpt>
      <trkpt lat="44.98322" lon="3.68253">
        <ele>843.3</ele>
        <time>2021-08-07T13:36:13Z</time>
      </trkpt>
      <trkpt lat="44.98323" lon="3.68244">
        <ele>841.4</ele>
        <time>2021-08-07T13:36:15Z</time>
      </trkpt>
      <trkpt lat="44.98325" lon="3.68236">
        <ele>839.8</ele>
        <time>2021-08-07T13:36:17Z</time>
      </trkpt>
      <trkpt lat="44.98325" lon="3.68228">
        <ele>838</ele>
        <time>2021-08-07T13:36:19Z</time>
      </trkpt>
      <trkpt lat="44.98328" lon="3.68221">
        <ele>837.6</ele>
        <time>2021-08-07T13:36:21Z</time>
      </trkpt>
      <trkpt lat="44.98329" lon="3.68218">
        <ele>837.5</ele>
        <time>2021-08-07T13:36:22Z</time>
      </trkpt>
      <trkpt lat="44.98334" lon="3.68211">
        <ele>838.2</ele>
        <time>2021-08-07T13:36:25Z</time>
      </trkpt>
      <trkpt lat="44.98334" lon="3.68206">
        <ele>836.5</ele>
        <time>2021-08-07T13:36:27Z</time>
      </trkpt>
      <trkpt lat="44.9833" lon="3.68207">
        <ele>834.8</ele>
        <time>2021-08-07T13:36:29Z</time>
      </trkpt>
      <trkpt lat="44.98329" lon="3.68207">
        <ele>834.3</ele>
        <time>2021-08-07T13:36:31Z</time>
      </trkpt>
      <trkpt lat="44.9833" lon="3.68207">
        <ele>834.6</ele>
        <time>2021-08-07T13:36:33Z</time>
      </trkpt>
      <trkpt lat="44.9833" lon="3.68208">
        <ele>834.7</ele>
        <time>2021-08-07T13:36:35Z</time>
      </trkpt>
      <trkpt lat="44.9833" lon="3.68208">
        <ele>834.7</ele>
        <time>2021-08-07T13:36:37Z</time>
      </trkpt>
      <trkpt lat="44.98323" lon="3.68238">
        <ele>839.7</ele>
        <time>2021-08-07T13:37:25Z</time>
      </trkpt>
      <trkpt lat="44.98321" lon="3.68253">
        <ele>842.9</ele>
        <time>2021-08-07T13:37:27Z</time>
      </trkpt>
      <trkpt lat="44.98319" lon="3.68269">
        <ele>845.1</ele>
        <time>2021-08-07T13:37:29Z</time>
      </trkpt>
      <trkpt lat="44.98317" lon="3.68285">
        <ele>847.3</ele>
        <time>2021-08-07T13:37:31Z</time>
      </trkpt>
      <trkpt lat="44.98313" lon="3.68302">
        <ele>848.8</ele>
        <time>2021-08-07T13:37:33Z</time>
      </trkpt>
      <trkpt lat="44.98309" lon="3.68318">
        <ele>849.3</ele>
        <time>2021-08-07T13:37:35Z</time>
      </trkpt>
      <trkpt lat="44.98307" lon="3.68335">
        <ele>851.9</ele>
        <time>2021-08-07T13:37:37Z</time>
      </trkpt>
      <trkpt lat="44.98304" lon="3.68352">
        <ele>852.5</ele>
        <time>2021-08-07T13:37:39Z</time>
      </trkpt>
      <trkpt lat="44.98298" lon="3.68367">
        <ele>851</ele>
        <time>2021-08-07T13:37:41Z</time>
      </trkpt>
      <trkpt lat="44.98296" lon="3.68375">
        <ele>851.2</ele>
        <time>2021-08-07T13:37:42Z</time>
      </trkpt>
      <trkpt lat="44.98293" lon="3.68395">
        <ele>853.3</ele>
        <time>2021-08-07T13:37:45Z</time>
      </trkpt>
      <trkpt lat="44.98293" lon="3.68404">
        <ele>855</ele>
        <time>2021-08-07T13:37:47Z</time>
      </trkpt>
      <trkpt lat="44.98293" lon="3.68415">
        <ele>856.9</ele>
        <time>2021-08-07T13:37:49Z</time>
      </trkpt>
      <trkpt lat="44.98294" lon="3.68425">
        <ele>859.1</ele>
        <time>2021-08-07T13:37:51Z</time>
      </trkpt>
      <trkpt lat="44.98292" lon="3.68436">
        <ele>859.9</ele>
        <time>2021-08-07T13:37:53Z</time>
      </trkpt>
      <trkpt lat="44.98287" lon="3.68444">
        <ele>858.6</ele>
        <time>2021-08-07T13:37:55Z</time>
      </trkpt>
      <trkpt lat="44.98279" lon="3.6845">
        <ele>855.1</ele>
        <time>2021-08-07T13:37:57Z</time>
      </trkpt>
      <trkpt lat="44.98271" lon="3.68455">
        <ele>850.9</ele>
        <time>2021-08-07T13:37:59Z</time>
      </trkpt>
      <trkpt lat="44.98263" lon="3.68461">
        <ele>847</ele>
        <time>2021-08-07T13:38:01Z</time>
      </trkpt>
      <trkpt lat="44.98258" lon="3.68463">
        <ele>844.8</ele>
        <time>2021-08-07T13:38:02Z</time>
      </trkpt>
      <trkpt lat="44.98248" lon="3.6847">
        <ele>840.3</ele>
        <time>2021-08-07T13:38:05Z</time>
      </trkpt>
      <trkpt lat="44.98243" lon="3.68474">
        <ele>839</ele>
        <time>2021-08-07T13:38:07Z</time>
      </trkpt>
      <trkpt lat="44.9824" lon="3.68478">
        <ele>838.4</ele>
        <time>2021-08-07T13:38:09Z</time>
      </trkpt>
      <trkpt lat="44.9824" lon="3.68479">
        <ele>838.3</ele>
        <time>2021-08-07T13:38:11Z</time>
      </trkpt>
      <trkpt lat="44.98239" lon="3.68479">
        <ele>838.2</ele>
        <time>2021-08-07T13:38:13Z</time>
      </trkpt>
      <trkpt lat="44.98239" lon="3.68479">
        <ele>838.1</ele>
        <time>2021-08-07T13:38:15Z</time>
      </trkpt>
      <trkpt lat="44.98239" lon="3.68479">
        <ele>838.1</ele>
        <time>2021-08-07T13:38:16Z</time>
      </trkpt>
      <trkpt lat="44.98239" lon="3.68479">
        <ele>838.1</ele>
        <time>2021-08-07T13:38:19Z</time>
      </trkpt>
      <trkpt lat="44.98236" lon="3.68505">
        <ele>841.4</ele>
        <time>2021-08-07T13:41:21Z</time>
      </trkpt>
      <trkpt lat="44.98237" lon="3.6851">
        <ele>842.3</ele>
        <time>2021-08-07T13:41:22Z</time>
      </trkpt>
      <trkpt lat="44.98239" lon="3.68525">
        <ele>845.3</ele>
        <time>2021-08-07T13:41:25Z</time>
      </trkpt>
      <trkpt lat="44.98241" lon="3.68535">
        <ele>847.6</ele>
        <time>2021-08-07T13:41:27Z</time>
      </trkpt>
      <trkpt lat="44.98243" lon="3.68546">
        <ele>849.9</ele>
        <time>2021-08-07T13:41:29Z</time>
      </trkpt>
      <trkpt lat="44.98246" lon="3.68557">
        <ele>852.3</ele>
        <time>2021-08-07T13:41:31Z</time>
      </trkpt>
      <trkpt lat="44.98248" lon="3.68568">
        <ele>854.6</ele>
        <time>2021-08-07T13:41:33Z</time>
      </trkpt>
      <trkpt lat="44.98248" lon="3.6858">
        <ele>855.8</ele>
        <time>2021-08-07T13:41:35Z</time>
      </trkpt>
      <trkpt lat="44.98247" lon="3.68586">
        <ele>856.2</ele>
        <time>2021-08-07T13:41:36Z</time>
      </trkpt>
      <trkpt lat="44.98239" lon="3.68602">
        <ele>855.9</ele>
        <time>2021-08-07T13:41:39Z</time>
      </trkpt>
      <trkpt lat="44.98231" lon="3.68607">
        <ele>854.5</ele>
        <time>2021-08-07T13:41:41Z</time>
      </trkpt>
      <trkpt lat="44.98224" lon="3.68611">
        <ele>853.2</ele>
        <time>2021-08-07T13:41:43Z</time>
      </trkpt>
      <trkpt lat="44.98218" lon="3.68615">
        <ele>852.3</ele>
        <time>2021-08-07T13:41:45Z</time>
      </trkpt>
      <trkpt lat="44.98212" lon="3.6862">
        <ele>851.5</ele>
        <time>2021-08-07T13:41:47Z</time>
      </trkpt>
      <trkpt lat="44.98206" lon="3.68625">
        <ele>851.1</ele>
        <time>2021-08-07T13:41:49Z</time>
      </trkpt>
      <trkpt lat="44.98199" lon="3.68629">
        <ele>850.4</ele>
        <time>2021-08-07T13:41:51Z</time>
      </trkpt>
      <trkpt lat="44.98193" lon="3.68634">
        <ele>850.1</ele>
        <time>2021-08-07T13:41:53Z</time>
      </trkpt>
      <trkpt lat="44.98186" lon="3.68639">
        <ele>849.7</ele>
        <time>2021-08-07T13:41:55Z</time>
      </trkpt>
      <trkpt lat="44.9818" lon="3.68644">
        <ele>849.9</ele>
        <time>2021-08-07T13:41:57Z</time>
      </trkpt>
      <trkpt lat="44.98172" lon="3.68649">
        <ele>849.6</ele>
        <time>2021-08-07T13:41:59Z</time>
      </trkpt>
      <trkpt lat="44.98165" lon="3.68654">
        <ele>849.6</ele>
        <time>2021-08-07T13:42:01Z</time>
      </trkpt>
      <trkpt lat="44.98162" lon="3.68657">
        <ele>849.9</ele>
        <time>2021-08-07T13:42:02Z</time>
      </trkpt>
      <trkpt lat="44.9815" lon="3.68664">
        <ele>850.1</ele>
        <time>2021-08-07T13:42:05Z</time>
      </trkpt>
      <trkpt lat="44.98142" lon="3.6867">
        <ele>849.3</ele>
        <time>2021-08-07T13:42:07Z</time>
      </trkpt>
      <trkpt lat="44.98135" lon="3.68676">
        <ele>847.9</ele>
        <time>2021-08-07T13:42:09Z</time>
      </trkpt>
      <trkpt lat="44.98127" lon="3.68679">
        <ele>846.5</ele>
        <time>2021-08-07T13:42:11Z</time>
      </trkpt>
      <trkpt lat="44.98119" lon="3.68684">
        <ele>845.3</ele>
        <time>2021-08-07T13:42:13Z</time>
      </trkpt>
      <trkpt lat="44.98112" lon="3.68686">
        <ele>844.1</ele>
        <time>2021-08-07T13:42:15Z</time>
      </trkpt>
      <trkpt lat="44.98103" lon="3.68689">
        <ele>842.8</ele>
        <time>2021-08-07T13:42:17Z</time>
      </trkpt>
      <trkpt lat="44.98095" lon="3.68692">
        <ele>841.5</ele>
        <time>2021-08-07T13:42:19Z</time>
      </trkpt>
      <trkpt lat="44.98087" lon="3.68693">
        <ele>840.2</ele>
        <time>2021-08-07T13:42:21Z</time>
      </trkpt>
      <trkpt lat="44.98079" lon="3.68694">
        <ele>838.9</ele>
        <time>2021-08-07T13:42:23Z</time>
      </trkpt>
      <trkpt lat="44.98071" lon="3.68696">
        <ele>837.3</ele>
        <time>2021-08-07T13:42:25Z</time>
      </trkpt>
      <trkpt lat="44.98064" lon="3.68698">
        <ele>835.8</ele>
        <time>2021-08-07T13:42:27Z</time>
      </trkpt>
      <trkpt lat="44.98057" lon="3.68701">
        <ele>834.5</ele>
        <time>2021-08-07T13:42:29Z</time>
      </trkpt>
      <trkpt lat="44.98051" lon="3.68703">
        <ele>833.4</ele>
        <time>2021-08-07T13:42:31Z</time>
      </trkpt>
      <trkpt lat="44.98046" lon="3.68706">
        <ele>832.5</ele>
        <time>2021-08-07T13:42:33Z</time>
      </trkpt>
      <trkpt lat="44.98044" lon="3.68707">
        <ele>832.3</ele>
        <time>2021-08-07T13:42:34Z</time>
      </trkpt>
      <trkpt lat="44.98042" lon="3.68715">
        <ele>832</ele>
        <time>2021-08-07T13:42:37Z</time>
      </trkpt>
      <trkpt lat="44.9804" lon="3.6872">
        <ele>831.8</ele>
        <time>2021-08-07T13:42:39Z</time>
      </trkpt>
      <trkpt lat="44.98039" lon="3.68723">
        <ele>831.8</ele>
        <time>2021-08-07T13:42:41Z</time>
      </trkpt>
      <trkpt lat="44.98039" lon="3.68723">
        <ele>831.8</ele>
        <time>2021-08-07T13:42:43Z</time>
      </trkpt>
      <trkpt lat="44.98039" lon="3.68723">
        <ele>831.8</ele>
        <time>2021-08-07T13:42:45Z</time>
      </trkpt>
      <trkpt lat="44.98039" lon="3.68723">
        <ele>831.8</ele>
        <time>2021-08-07T13:42:47Z</time>
      </trkpt>
      <trkpt lat="44.98039" lon="3.68723">
        <ele>831.8</ele>
        <time>2021-08-07T13:42:49Z</time>
      </trkpt>
      <trkpt lat="44.98039" lon="3.68723">
        <ele>831.8</ele>
        <time>2021-08-07T13:42:51Z</time>
      </trkpt>
      <trkpt lat="44.98039" lon="3.68736">
        <ele>832.3</ele>
        <time>2021-08-07T13:43:21Z</time>
      </trkpt>
      <trkpt lat="44.9804" lon="3.68741">
        <ele>832.6</ele>
        <time>2021-08-07T13:43:23Z</time>
      </trkpt>
      <trkpt lat="44.98041" lon="3.68745">
        <ele>833.2</ele>
        <time>2021-08-07T13:43:25Z</time>
      </trkpt>
      <trkpt lat="44.98041" lon="3.68748">
        <ele>833.4</ele>
        <time>2021-08-07T13:43:26Z</time>
      </trkpt>
      <trkpt lat="44.98045" lon="3.68754">
        <ele>833.5</ele>
        <time>2021-08-07T13:43:29Z</time>
      </trkpt>
      <trkpt lat="44.98049" lon="3.68759">
        <ele>833</ele>
        <time>2021-08-07T13:43:31Z</time>
      </trkpt>
      <trkpt lat="44.98053" lon="3.68763">
        <ele>833</ele>
        <time>2021-08-07T13:43:33Z</time>
      </trkpt>
      <trkpt lat="44.98057" lon="3.68766">
        <ele>833.4</ele>
        <time>2021-08-07T13:43:35Z</time>
      </trkpt>
      <trkpt lat="44.98062" lon="3.68769">
        <ele>833.8</ele>
        <time>2021-08-07T13:43:37Z</time>
      </trkpt>
      <trkpt lat="44.98068" lon="3.6877">
        <ele>834.8</ele>
        <time>2021-08-07T13:43:39Z</time>
      </trkpt>
      <trkpt lat="44.98073" lon="3.6877">
        <ele>836.1</ele>
        <time>2021-08-07T13:43:41Z</time>
      </trkpt>
      <trkpt lat="44.9808" lon="3.68771">
        <ele>837.2</ele>
        <time>2021-08-07T13:43:43Z</time>
      </trkpt>
      <trkpt lat="44.98086" lon="3.6877">
        <ele>838.5</ele>
        <time>2021-08-07T13:43:45Z</time>
      </trkpt>
      <trkpt lat="44.98092" lon="3.68769">
        <ele>839.3</ele>
        <time>2021-08-07T13:43:47Z</time>
      </trkpt>
      <trkpt lat="44.98099" lon="3.68769">
        <ele>840.2</ele>
        <time>2021-08-07T13:43:49Z</time>
      </trkpt>
      <trkpt lat="44.98106" lon="3.68769">
        <ele>840.8</ele>
        <time>2021-08-07T13:43:51Z</time>
      </trkpt>
      <trkpt lat="44.98112" lon="3.6877">
        <ele>841.4</ele>
        <time>2021-08-07T13:43:53Z</time>
      </trkpt>
      <trkpt lat="44.98119" lon="3.68768">
        <ele>842.4</ele>
        <time>2021-08-07T13:43:55Z</time>
      </trkpt>
      <trkpt lat="44.98126" lon="3.68769">
        <ele>843</ele>
        <time>2021-08-07T13:43:57Z</time>
      </trkpt>
      <trkpt lat="44.98133" lon="3.6877">
        <ele>843.7</ele>
        <time>2021-08-07T13:43:59Z</time>
      </trkpt>
      <trkpt lat="44.98141" lon="3.68769">
        <ele>844.6</ele>
        <time>2021-08-07T13:44:01Z</time>
      </trkpt>
      <trkpt lat="44.98149" lon="3.6877">
        <ele>845.3</ele>
        <time>2021-08-07T13:44:03Z</time>
      </trkpt>
      <trkpt lat="44.98156" lon="3.6877">
        <ele>846.1</ele>
        <time>2021-08-07T13:44:05Z</time>
      </trkpt>
      <trkpt lat="44.98164" lon="3.68771">
        <ele>846.6</ele>
        <time>2021-08-07T13:44:07Z</time>
      </trkpt>
      <trkpt lat="44.98171" lon="3.68772">
        <ele>847.6</ele>
        <time>2021-08-07T13:44:09Z</time>
      </trkpt>
      <trkpt lat="44.98178" lon="3.68773">
        <ele>848.7</ele>
        <time>2021-08-07T13:44:11Z</time>
      </trkpt>
      <trkpt lat="44.98184" lon="3.68773">
        <ele>849.9</ele>
        <time>2021-08-07T13:44:13Z</time>
      </trkpt>
      <trkpt lat="44.98191" lon="3.68775">
        <ele>851</ele>
        <time>2021-08-07T13:44:15Z</time>
      </trkpt>
      <trkpt lat="44.98197" lon="3.68775">
        <ele>852.1</ele>
        <time>2021-08-07T13:44:17Z</time>
      </trkpt>
      <trkpt lat="44.98205" lon="3.68775">
        <ele>853.5</ele>
        <time>2021-08-07T13:44:19Z</time>
      </trkpt>
      <trkpt lat="44.98212" lon="3.68777">
        <ele>854.9</ele>
        <time>2021-08-07T13:44:21Z</time>
      </trkpt>
      <trkpt lat="44.9822" lon="3.68779">
        <ele>856</ele>
        <time>2021-08-07T13:44:23Z</time>
      </trkpt>
      <trkpt lat="44.98227" lon="3.68783">
        <ele>856.9</ele>
        <time>2021-08-07T13:44:25Z</time>
      </trkpt>
      <trkpt lat="44.98234" lon="3.68787">
        <ele>857.5</ele>
        <time>2021-08-07T13:44:27Z</time>
      </trkpt>
      <trkpt lat="44.9824" lon="3.68793">
        <ele>858</ele>
        <time>2021-08-07T13:44:29Z</time>
      </trkpt>
      <trkpt lat="44.98245" lon="3.68799">
        <ele>858.3</ele>
        <time>2021-08-07T13:44:31Z</time>
      </trkpt>
      <trkpt lat="44.98247" lon="3.68803">
        <ele>858.3</ele>
        <time>2021-08-07T13:44:32Z</time>
      </trkpt>
      <trkpt lat="44.98252" lon="3.68818">
        <ele>857.7</ele>
        <time>2021-08-07T13:44:35Z</time>
      </trkpt>
      <trkpt lat="44.98251" lon="3.68829">
        <ele>855.9</ele>
        <time>2021-08-07T13:44:37Z</time>
      </trkpt>
      <trkpt lat="44.98246" lon="3.68838">
        <ele>853.7</ele>
        <time>2021-08-07T13:44:39Z</time>
      </trkpt>
      <trkpt lat="44.98241" lon="3.68845">
        <ele>851.8</ele>
        <time>2021-08-07T13:44:41Z</time>
      </trkpt>
      <trkpt lat="44.98234" lon="3.68847">
        <ele>849.7</ele>
        <time>2021-08-07T13:44:43Z</time>
      </trkpt>
      <trkpt lat="44.98227" lon="3.6885">
        <ele>847.7</ele>
        <time>2021-08-07T13:44:45Z</time>
      </trkpt>
      <trkpt lat="44.98221" lon="3.68854">
        <ele>845.8</ele>
        <time>2021-08-07T13:44:47Z</time>
      </trkpt>
      <trkpt lat="44.98215" lon="3.68859">
        <ele>844.1</ele>
        <time>2021-08-07T13:44:49Z</time>
      </trkpt>
      <trkpt lat="44.98211" lon="3.68867">
        <ele>842.7</ele>
        <time>2021-08-07T13:44:51Z</time>
      </trkpt>
      <trkpt lat="44.98209" lon="3.68875">
        <ele>841.8</ele>
        <time>2021-08-07T13:44:53Z</time>
      </trkpt>
      <trkpt lat="44.98211" lon="3.68883">
        <ele>841.7</ele>
        <time>2021-08-07T13:44:55Z</time>
      </trkpt>
      <trkpt lat="44.98214" lon="3.68891">
        <ele>842.2</ele>
        <time>2021-08-07T13:44:57Z</time>
      </trkpt>
      <trkpt lat="44.9822" lon="3.68896">
        <ele>843.6</ele>
        <time>2021-08-07T13:44:59Z</time>
      </trkpt>
      <trkpt lat="44.98227" lon="3.68901">
        <ele>845.1</ele>
        <time>2021-08-07T13:45:01Z</time>
      </trkpt>
      <trkpt lat="44.98236" lon="3.68906">
        <ele>847</ele>
        <time>2021-08-07T13:45:03Z</time>
      </trkpt>
      <trkpt lat="44.98245" lon="3.68909">
        <ele>849.3</ele>
        <time>2021-08-07T13:45:05Z</time>
      </trkpt>
      <trkpt lat="44.98254" lon="3.68916">
        <ele>852</ele>
        <time>2021-08-07T13:45:07Z</time>
      </trkpt>
      <trkpt lat="44.98262" lon="3.68927">
        <ele>855.7</ele>
        <time>2021-08-07T13:45:09Z</time>
      </trkpt>
      <trkpt lat="44.98267" lon="3.68941">
        <ele>857.7</ele>
        <time>2021-08-07T13:45:11Z</time>
      </trkpt>
      <trkpt lat="44.98272" lon="3.68953">
        <ele>859.3</ele>
        <time>2021-08-07T13:45:13Z</time>
      </trkpt>
      <trkpt lat="44.98277" lon="3.68966">
        <ele>860.8</ele>
        <time>2021-08-07T13:45:15Z</time>
      </trkpt>
      <trkpt lat="44.98282" lon="3.6898">
        <ele>862.1</ele>
        <time>2021-08-07T13:45:17Z</time>
      </trkpt>
      <trkpt lat="44.98287" lon="3.68994">
        <ele>863.2</ele>
        <time>2021-08-07T13:45:19Z</time>
      </trkpt>
      <trkpt lat="44.98292" lon="3.69009">
        <ele>865.5</ele>
        <time>2021-08-07T13:45:21Z</time>
      </trkpt>
      <trkpt lat="44.98291" lon="3.69025">
        <ele>867.2</ele>
        <time>2021-08-07T13:45:23Z</time>
      </trkpt>
      <trkpt lat="44.98285" lon="3.69039">
        <ele>867.8</ele>
        <time>2021-08-07T13:45:25Z</time>
      </trkpt>
      <trkpt lat="44.98275" lon="3.69049">
        <ele>868</ele>
        <time>2021-08-07T13:45:27Z</time>
      </trkpt>
      <trkpt lat="44.98264" lon="3.6905">
        <ele>866.7</ele>
        <time>2021-08-07T13:45:29Z</time>
      </trkpt>
      <trkpt lat="44.98255" lon="3.69042">
        <ele>863.4</ele>
        <time>2021-08-07T13:45:31Z</time>
      </trkpt>
      <trkpt lat="44.98246" lon="3.69035">
        <ele>860.5</ele>
        <time>2021-08-07T13:45:33Z</time>
      </trkpt>
      <trkpt lat="44.98237" lon="3.69031">
        <ele>859</ele>
        <time>2021-08-07T13:45:35Z</time>
      </trkpt>
      <trkpt lat="44.98228" lon="3.69028">
        <ele>857.6</ele>
        <time>2021-08-07T13:45:37Z</time>
      </trkpt>
      <trkpt lat="44.98219" lon="3.69026">
        <ele>856.7</ele>
        <time>2021-08-07T13:45:39Z</time>
      </trkpt>
      <trkpt lat="44.9821" lon="3.69025">
        <ele>856.1</ele>
        <time>2021-08-07T13:45:41Z</time>
      </trkpt>
      <trkpt lat="44.98201" lon="3.69027">
        <ele>856.3</ele>
        <time>2021-08-07T13:45:43Z</time>
      </trkpt>
      <trkpt lat="44.98193" lon="3.6903">
        <ele>857.1</ele>
        <time>2021-08-07T13:45:45Z</time>
      </trkpt>
      <trkpt lat="44.98185" lon="3.69032">
        <ele>857.4</ele>
        <time>2021-08-07T13:45:47Z</time>
      </trkpt>
      <trkpt lat="44.98176" lon="3.6903">
        <ele>856.5</ele>
        <time>2021-08-07T13:45:49Z</time>
      </trkpt>
      <trkpt lat="44.98168" lon="3.69024">
        <ele>854</ele>
        <time>2021-08-07T13:45:51Z</time>
      </trkpt>
      <trkpt lat="44.98163" lon="3.69019">
        <ele>851.8</ele>
        <time>2021-08-07T13:45:53Z</time>
      </trkpt>
      <trkpt lat="44.98158" lon="3.69013">
        <ele>849.4</ele>
        <time>2021-08-07T13:45:55Z</time>
      </trkpt>
      <trkpt lat="44.98152" lon="3.69009">
        <ele>847.6</ele>
        <time>2021-08-07T13:45:57Z</time>
      </trkpt>
      <trkpt lat="44.98146" lon="3.69002">
        <ele>844.5</ele>
        <time>2021-08-07T13:45:59Z</time>
      </trkpt>
      <trkpt lat="44.98139" lon="3.68996">
        <ele>842.5</ele>
        <time>2021-08-07T13:46:01Z</time>
      </trkpt>
      <trkpt lat="44.98136" lon="3.68993">
        <ele>841.6</ele>
        <time>2021-08-07T13:46:02Z</time>
      </trkpt>
      <trkpt lat="44.98126" lon="3.68986">
        <ele>839.4</ele>
        <time>2021-08-07T13:46:05Z</time>
      </trkpt>
      <trkpt lat="44.98119" lon="3.68986">
        <ele>838.7</ele>
        <time>2021-08-07T13:46:07Z</time>
      </trkpt>
      <trkpt lat="44.98111" lon="3.68989">
        <ele>838.8</ele>
        <time>2021-08-07T13:46:09Z</time>
      </trkpt>
      <trkpt lat="44.98104" lon="3.68994">
        <ele>839.5</ele>
        <time>2021-08-07T13:46:11Z</time>
      </trkpt>
      <trkpt lat="44.98096" lon="3.69">
        <ele>840.8</ele>
        <time>2021-08-07T13:46:13Z</time>
      </trkpt>
      <trkpt lat="44.98089" lon="3.69007">
        <ele>843.4</ele>
        <time>2021-08-07T13:46:15Z</time>
      </trkpt>
      <trkpt lat="44.98083" lon="3.69016">
        <ele>846.6</ele>
        <time>2021-08-07T13:46:17Z</time>
      </trkpt>
      <trkpt lat="44.98077" lon="3.69024">
        <ele>849.5</ele>
        <time>2021-08-07T13:46:19Z</time>
      </trkpt>
      <trkpt lat="44.9807" lon="3.6903">
        <ele>851.6</ele>
        <time>2021-08-07T13:46:21Z</time>
      </trkpt>
      <trkpt lat="44.98067" lon="3.69032">
        <ele>852.3</ele>
        <time>2021-08-07T13:46:22Z</time>
      </trkpt>
      <trkpt lat="44.98053" lon="3.69035">
        <ele>852.4</ele>
        <time>2021-08-07T13:46:25Z</time>
      </trkpt>
      <trkpt lat="44.98043" lon="3.69036">
        <ele>851.9</ele>
        <time>2021-08-07T13:46:27Z</time>
      </trkpt>
      <trkpt lat="44.98033" lon="3.69034">
        <ele>850.6</ele>
        <time>2021-08-07T13:46:29Z</time>
      </trkpt>
      <trkpt lat="44.98023" lon="3.69032">
        <ele>848.6</ele>
        <time>2021-08-07T13:46:31Z</time>
      </trkpt>
      <trkpt lat="44.98012" lon="3.69029">
        <ele>846.7</ele>
        <time>2021-08-07T13:46:33Z</time>
      </trkpt>
      <trkpt lat="44.98001" lon="3.69026">
        <ele>844.6</ele>
        <time>2021-08-07T13:46:35Z</time>
      </trkpt>
      <trkpt lat="44.97995" lon="3.69024">
        <ele>843.1</ele>
        <time>2021-08-07T13:46:36Z</time>
      </trkpt>
      <trkpt lat="44.97976" lon="3.69023">
        <ele>840.2</ele>
        <time>2021-08-07T13:46:39Z</time>
      </trkpt>
      <trkpt lat="44.97964" lon="3.69026">
        <ele>839.6</ele>
        <time>2021-08-07T13:46:41Z</time>
      </trkpt>
      <trkpt lat="44.97952" lon="3.6903">
        <ele>839.4</ele>
        <time>2021-08-07T13:46:43Z</time>
      </trkpt>
      <trkpt lat="44.97941" lon="3.69041">
        <ele>840.8</ele>
        <time>2021-08-07T13:46:45Z</time>
      </trkpt>
      <trkpt lat="44.9793" lon="3.69051">
        <ele>841.8</ele>
        <time>2021-08-07T13:46:47Z</time>
      </trkpt>
      <trkpt lat="44.97918" lon="3.69061">
        <ele>841.9</ele>
        <time>2021-08-07T13:46:49Z</time>
      </trkpt>
      <trkpt lat="44.97906" lon="3.69072">
        <ele>843.6</ele>
        <time>2021-08-07T13:46:51Z</time>
      </trkpt>
      <trkpt lat="44.97894" lon="3.69082">
        <ele>845.1</ele>
        <time>2021-08-07T13:46:53Z</time>
      </trkpt>
      <trkpt lat="44.97884" lon="3.69094">
        <ele>847.2</ele>
        <time>2021-08-07T13:46:55Z</time>
      </trkpt>
      <trkpt lat="44.97876" lon="3.69109">
        <ele>850.4</ele>
        <time>2021-08-07T13:46:57Z</time>
      </trkpt>
      <trkpt lat="44.97867" lon="3.69124">
        <ele>853.6</ele>
        <time>2021-08-07T13:46:59Z</time>
      </trkpt>
      <trkpt lat="44.97853" lon="3.69133">
        <ele>854.7</ele>
        <time>2021-08-07T13:47:01Z</time>
      </trkpt>
      <trkpt lat="44.97839" lon="3.69129">
        <ele>853</ele>
        <time>2021-08-07T13:47:03Z</time>
      </trkpt>
      <trkpt lat="44.9783" lon="3.69119">
        <ele>849.8</ele>
        <time>2021-08-07T13:47:05Z</time>
      </trkpt>
      <trkpt lat="44.97825" lon="3.69103">
        <ele>845.3</ele>
        <time>2021-08-07T13:47:07Z</time>
      </trkpt>
      <trkpt lat="44.97823" lon="3.69085">
        <ele>840.5</ele>
        <time>2021-08-07T13:47:09Z</time>
      </trkpt>
      <trkpt lat="44.97822" lon="3.69068">
        <ele>836.8</ele>
        <time>2021-08-07T13:47:11Z</time>
      </trkpt>
      <trkpt lat="44.97818" lon="3.69051">
        <ele>832.9</ele>
        <time>2021-08-07T13:47:13Z</time>
      </trkpt>
      <trkpt lat="44.97812" lon="3.69038">
        <ele>829.4</ele>
        <time>2021-08-07T13:47:15Z</time>
      </trkpt>
      <trkpt lat="44.978" lon="3.69033">
        <ele>826.8</ele>
        <time>2021-08-07T13:47:17Z</time>
      </trkpt>
      <trkpt lat="44.97789" lon="3.69037">
        <ele>826.2</ele>
        <time>2021-08-07T13:47:19Z</time>
      </trkpt>
      <trkpt lat="44.97779" lon="3.69047">
        <ele>827.6</ele>
        <time>2021-08-07T13:47:21Z</time>
      </trkpt>
      <trkpt lat="44.97771" lon="3.69058">
        <ele>829.4</ele>
        <time>2021-08-07T13:47:23Z</time>
      </trkpt>
      <trkpt lat="44.97764" lon="3.69068">
        <ele>831.4</ele>
        <time>2021-08-07T13:47:25Z</time>
      </trkpt>
      <trkpt lat="44.97758" lon="3.69079">
        <ele>833.5</ele>
        <time>2021-08-07T13:47:27Z</time>
      </trkpt>
      <trkpt lat="44.97751" lon="3.69088">
        <ele>835.4</ele>
        <time>2021-08-07T13:47:29Z</time>
      </trkpt>
      <trkpt lat="44.97748" lon="3.69093">
        <ele>836</ele>
        <time>2021-08-07T13:47:30Z</time>
      </trkpt>
      <trkpt lat="44.97737" lon="3.69106">
        <ele>836.8</ele>
        <time>2021-08-07T13:47:33Z</time>
      </trkpt>
      <trkpt lat="44.97729" lon="3.69112">
        <ele>836.4</ele>
        <time>2021-08-07T13:47:35Z</time>
      </trkpt>
      <trkpt lat="44.97721" lon="3.69118">
        <ele>836</ele>
        <time>2021-08-07T13:47:37Z</time>
      </trkpt>
      <trkpt lat="44.97712" lon="3.69124">
        <ele>835.3</ele>
        <time>2021-08-07T13:47:39Z</time>
      </trkpt>
      <trkpt lat="44.97704" lon="3.6913">
        <ele>834.8</ele>
        <time>2021-08-07T13:47:41Z</time>
      </trkpt>
      <trkpt lat="44.97696" lon="3.69136">
        <ele>834</ele>
        <time>2021-08-07T13:47:43Z</time>
      </trkpt>
      <trkpt lat="44.97688" lon="3.69141">
        <ele>833.3</ele>
        <time>2021-08-07T13:47:45Z</time>
      </trkpt>
      <trkpt lat="44.97681" lon="3.69148">
        <ele>833</ele>
        <time>2021-08-07T13:47:47Z</time>
      </trkpt>
      <trkpt lat="44.97674" lon="3.69154">
        <ele>832.7</ele>
        <time>2021-08-07T13:47:49Z</time>
      </trkpt>
      <trkpt lat="44.97666" lon="3.69161">
        <ele>832.5</ele>
        <time>2021-08-07T13:47:51Z</time>
      </trkpt>
      <trkpt lat="44.97661" lon="3.69169">
        <ele>833.2</ele>
        <time>2021-08-07T13:47:53Z</time>
      </trkpt>
      <trkpt lat="44.97657" lon="3.6918">
        <ele>834.2</ele>
        <time>2021-08-07T13:47:55Z</time>
      </trkpt>
      <trkpt lat="44.97655" lon="3.69191">
        <ele>835.4</ele>
        <time>2021-08-07T13:47:57Z</time>
      </trkpt>
      <trkpt lat="44.97653" lon="3.69203">
        <ele>836.8</ele>
        <time>2021-08-07T13:47:59Z</time>
      </trkpt>
      <trkpt lat="44.97652" lon="3.69214">
        <ele>838.5</ele>
        <time>2021-08-07T13:48:01Z</time>
      </trkpt>
      <trkpt lat="44.97651" lon="3.69226">
        <ele>840</ele>
        <time>2021-08-07T13:48:03Z</time>
      </trkpt>
      <trkpt lat="44.97649" lon="3.69238">
        <ele>841.5</ele>
        <time>2021-08-07T13:48:05Z</time>
      </trkpt>
      <trkpt lat="44.97647" lon="3.69251">
        <ele>843</ele>
        <time>2021-08-07T13:48:07Z</time>
      </trkpt>
      <trkpt lat="44.97644" lon="3.69263">
        <ele>844.4</ele>
        <time>2021-08-07T13:48:09Z</time>
      </trkpt>
      <trkpt lat="44.97641" lon="3.69276">
        <ele>845.8</ele>
        <time>2021-08-07T13:48:11Z</time>
      </trkpt>
      <trkpt lat="44.97636" lon="3.69289">
        <ele>846.7</ele>
        <time>2021-08-07T13:48:13Z</time>
      </trkpt>
      <trkpt lat="44.97631" lon="3.69303">
        <ele>847.8</ele>
        <time>2021-08-07T13:48:15Z</time>
      </trkpt>
      <trkpt lat="44.97629" lon="3.69309">
        <ele>848.2</ele>
        <time>2021-08-07T13:48:16Z</time>
      </trkpt>
      <trkpt lat="44.97621" lon="3.69329">
        <ele>849.8</ele>
        <time>2021-08-07T13:48:19Z</time>
      </trkpt>
      <trkpt lat="44.97615" lon="3.69342">
        <ele>850.8</ele>
        <time>2021-08-07T13:48:21Z</time>
      </trkpt>
      <trkpt lat="44.9761" lon="3.69357">
        <ele>852</ele>
        <time>2021-08-07T13:48:23Z</time>
      </trkpt>
      <trkpt lat="44.97605" lon="3.69371">
        <ele>853.2</ele>
        <time>2021-08-07T13:48:25Z</time>
      </trkpt>
      <trkpt lat="44.97599" lon="3.69384">
        <ele>854</ele>
        <time>2021-08-07T13:48:27Z</time>
      </trkpt>
      <trkpt lat="44.97592" lon="3.69396">
        <ele>854.1</ele>
        <time>2021-08-07T13:48:29Z</time>
      </trkpt>
      <trkpt lat="44.97582" lon="3.69404">
        <ele>853.2</ele>
        <time>2021-08-07T13:48:31Z</time>
      </trkpt>
      <trkpt lat="44.97569" lon="3.69401">
        <ele>856.1</ele>
        <time>2021-08-07T13:48:33Z</time>
      </trkpt>
      <trkpt lat="44.9756" lon="3.6939">
        <ele>856.8</ele>
        <time>2021-08-07T13:48:35Z</time>
      </trkpt>
      <trkpt lat="44.97556" lon="3.69375">
        <ele>855.9</ele>
        <time>2021-08-07T13:48:37Z</time>
      </trkpt>
      <trkpt lat="44.97554" lon="3.69361">
        <ele>854.4</ele>
        <time>2021-08-07T13:48:39Z</time>
      </trkpt>
      <trkpt lat="44.97551" lon="3.6935">
        <ele>853.8</ele>
        <time>2021-08-07T13:48:41Z</time>
      </trkpt>
      <trkpt lat="44.97549" lon="3.69339">
        <ele>852.9</ele>
        <time>2021-08-07T13:48:43Z</time>
      </trkpt>
      <trkpt lat="44.97546" lon="3.6933">
        <ele>852.4</ele>
        <time>2021-08-07T13:48:45Z</time>
      </trkpt>
      <trkpt lat="44.97545" lon="3.6932">
        <ele>851.3</ele>
        <time>2021-08-07T13:48:47Z</time>
      </trkpt>
      <trkpt lat="44.97542" lon="3.69312">
        <ele>851</ele>
        <time>2021-08-07T13:48:49Z</time>
      </trkpt>
      <trkpt lat="44.97539" lon="3.69304">
        <ele>850.3</ele>
        <time>2021-08-07T13:48:51Z</time>
      </trkpt>
      <trkpt lat="44.97537" lon="3.69296">
        <ele>849.9</ele>
        <time>2021-08-07T13:48:53Z</time>
      </trkpt>
      <trkpt lat="44.97535" lon="3.69288">
        <ele>849</ele>
        <time>2021-08-07T13:48:55Z</time>
      </trkpt>
      <trkpt lat="44.97532" lon="3.6928">
        <ele>849</ele>
        <time>2021-08-07T13:48:57Z</time>
      </trkpt>
      <trkpt lat="44.97529" lon="3.69273">
        <ele>848.7</ele>
        <time>2021-08-07T13:48:59Z</time>
      </trkpt>
      <trkpt lat="44.97527" lon="3.69265">
        <ele>848.2</ele>
        <time>2021-08-07T13:49:01Z</time>
      </trkpt>
      <trkpt lat="44.97524" lon="3.69258">
        <ele>848</ele>
        <time>2021-08-07T13:49:03Z</time>
      </trkpt>
      <trkpt lat="44.97521" lon="3.69252">
        <ele>847.9</ele>
        <time>2021-08-07T13:49:05Z</time>
      </trkpt>
      <trkpt lat="44.97519" lon="3.69246">
        <ele>848</ele>
        <time>2021-08-07T13:49:07Z</time>
      </trkpt>
      <trkpt lat="44.97516" lon="3.6924">
        <ele>848.2</ele>
        <time>2021-08-07T13:49:09Z</time>
      </trkpt>
      <trkpt lat="44.97512" lon="3.69235">
        <ele>848.7</ele>
        <time>2021-08-07T13:49:11Z</time>
      </trkpt>
      <trkpt lat="44.97509" lon="3.69229">
        <ele>848.9</ele>
        <time>2021-08-07T13:49:13Z</time>
      </trkpt>
      <trkpt lat="44.97505" lon="3.69224">
        <ele>849.4</ele>
        <time>2021-08-07T13:49:15Z</time>
      </trkpt>
      <trkpt lat="44.97503" lon="3.69218">
        <ele>849.2</ele>
        <time>2021-08-07T13:49:17Z</time>
      </trkpt>
      <trkpt lat="44.97501" lon="3.69212">
        <ele>849.2</ele>
        <time>2021-08-07T13:49:19Z</time>
      </trkpt>
      <trkpt lat="44.97499" lon="3.69206">
        <ele>848.8</ele>
        <time>2021-08-07T13:49:21Z</time>
      </trkpt>
      <trkpt lat="44.97497" lon="3.69202">
        <ele>848.6</ele>
        <time>2021-08-07T13:49:22Z</time>
      </trkpt>
      <trkpt lat="44.97494" lon="3.69193">
        <ele>847.9</ele>
        <time>2021-08-07T13:49:25Z</time>
      </trkpt>
      <trkpt lat="44.97493" lon="3.69186">
        <ele>847.2</ele>
        <time>2021-08-07T13:49:27Z</time>
      </trkpt>
      <trkpt lat="44.97492" lon="3.6918">
        <ele>846.5</ele>
        <time>2021-08-07T13:49:29Z</time>
      </trkpt>
      <trkpt lat="44.97491" lon="3.69174">
        <ele>845.9</ele>
        <time>2021-08-07T13:49:31Z</time>
      </trkpt>
      <trkpt lat="44.9749" lon="3.69167">
        <ele>845.1</ele>
        <time>2021-08-07T13:49:33Z</time>
      </trkpt>
      <trkpt lat="44.97488" lon="3.6916">
        <ele>845.1</ele>
        <time>2021-08-07T13:49:35Z</time>
      </trkpt>
      <trkpt lat="44.97487" lon="3.69153">
        <ele>845</ele>
        <time>2021-08-07T13:49:37Z</time>
      </trkpt>
      <trkpt lat="44.97487" lon="3.69147">
        <ele>844.8</ele>
        <time>2021-08-07T13:49:39Z</time>
      </trkpt>
      <trkpt lat="44.97485" lon="3.6914">
        <ele>844.8</ele>
        <time>2021-08-07T13:49:41Z</time>
      </trkpt>
      <trkpt lat="44.97485" lon="3.69136">
        <ele>844.7</ele>
        <time>2021-08-07T13:49:42Z</time>
      </trkpt>
      <trkpt lat="44.97482" lon="3.69126">
        <ele>844.5</ele>
        <time>2021-08-07T13:49:45Z</time>
      </trkpt>
      <trkpt lat="44.97481" lon="3.6912">
        <ele>844.5</ele>
        <time>2021-08-07T13:49:47Z</time>
      </trkpt>
      <trkpt lat="44.97479" lon="3.69114">
        <ele>844.5</ele>
        <time>2021-08-07T13:49:49Z</time>
      </trkpt>
      <trkpt lat="44.97477" lon="3.69109">
        <ele>844.4</ele>
        <time>2021-08-07T13:49:51Z</time>
      </trkpt>
      <trkpt lat="44.97475" lon="3.69103">
        <ele>844.4</ele>
        <time>2021-08-07T13:49:53Z</time>
      </trkpt>
      <trkpt lat="44.97473" lon="3.69097">
        <ele>844.3</ele>
        <time>2021-08-07T13:49:55Z</time>
      </trkpt>
      <trkpt lat="44.97472" lon="3.69095">
        <ele>844.4</ele>
        <time>2021-08-07T13:49:56Z</time>
      </trkpt>
      <trkpt lat="44.97468" lon="3.69087">
        <ele>844.5</ele>
        <time>2021-08-07T13:49:59Z</time>
      </trkpt>
      <trkpt lat="44.97465" lon="3.69082">
        <ele>844.5</ele>
        <time>2021-08-07T13:50:01Z</time>
      </trkpt>
      <trkpt lat="44.97462" lon="3.69077">
        <ele>844.6</ele>
        <time>2021-08-07T13:50:03Z</time>
      </trkpt>
      <trkpt lat="44.97459" lon="3.69073">
        <ele>844.8</ele>
        <time>2021-08-07T13:50:05Z</time>
      </trkpt>
      <trkpt lat="44.97456" lon="3.69069">
        <ele>844.8</ele>
        <time>2021-08-07T13:50:07Z</time>
      </trkpt>
      <trkpt lat="44.97453" lon="3.69065">
        <ele>845</ele>
        <time>2021-08-07T13:50:09Z</time>
      </trkpt>
      <trkpt lat="44.9745" lon="3.69062">
        <ele>845.1</ele>
        <time>2021-08-07T13:50:11Z</time>
      </trkpt>
      <trkpt lat="44.97447" lon="3.69058">
        <ele>845.2</ele>
        <time>2021-08-07T13:50:13Z</time>
      </trkpt>
      <trkpt lat="44.97445" lon="3.69057">
        <ele>845.3</ele>
        <time>2021-08-07T13:50:14Z</time>
      </trkpt>
      <trkpt lat="44.9744" lon="3.69052">
        <ele>845.7</ele>
        <time>2021-08-07T13:50:17Z</time>
      </trkpt>
      <trkpt lat="44.97436" lon="3.6905">
        <ele>845.9</ele>
        <time>2021-08-07T13:50:19Z</time>
      </trkpt>
      <trkpt lat="44.97432" lon="3.69048">
        <ele>846.2</ele>
        <time>2021-08-07T13:50:21Z</time>
      </trkpt>
      <trkpt lat="44.97428" lon="3.69047">
        <ele>846.6</ele>
        <time>2021-08-07T13:50:23Z</time>
      </trkpt>
      <trkpt lat="44.97424" lon="3.69045">
        <ele>846.9</ele>
        <time>2021-08-07T13:50:25Z</time>
      </trkpt>
      <trkpt lat="44.9742" lon="3.69044">
        <ele>847.3</ele>
        <time>2021-08-07T13:50:27Z</time>
      </trkpt>
      <trkpt lat="44.97416" lon="3.69043">
        <ele>847.6</ele>
        <time>2021-08-07T13:50:29Z</time>
      </trkpt>
      <trkpt lat="44.97412" lon="3.69042">
        <ele>847.7</ele>
        <time>2021-08-07T13:50:31Z</time>
      </trkpt>
      <trkpt lat="44.97408" lon="3.69041">
        <ele>847.7</ele>
        <time>2021-08-07T13:50:33Z</time>
      </trkpt>
      <trkpt lat="44.97404" lon="3.69041">
        <ele>847.8</ele>
        <time>2021-08-07T13:50:35Z</time>
      </trkpt>
      <trkpt lat="44.974" lon="3.6904">
        <ele>847.8</ele>
        <time>2021-08-07T13:50:37Z</time>
      </trkpt>
      <trkpt lat="44.97396" lon="3.69041">
        <ele>847.9</ele>
        <time>2021-08-07T13:50:39Z</time>
      </trkpt>
      <trkpt lat="44.97392" lon="3.6904">
        <ele>847.9</ele>
        <time>2021-08-07T13:50:41Z</time>
      </trkpt>
      <trkpt lat="44.97388" lon="3.6904">
        <ele>848</ele>
        <time>2021-08-07T13:50:43Z</time>
      </trkpt>
      <trkpt lat="44.97383" lon="3.69039">
        <ele>848.1</ele>
        <time>2021-08-07T13:50:45Z</time>
      </trkpt>
      <trkpt lat="44.97378" lon="3.69038">
        <ele>848.1</ele>
        <time>2021-08-07T13:50:47Z</time>
      </trkpt>
      <trkpt lat="44.97374" lon="3.69038">
        <ele>848.1</ele>
        <time>2021-08-07T13:50:49Z</time>
      </trkpt>
      <trkpt lat="44.97369" lon="3.69038">
        <ele>848.3</ele>
        <time>2021-08-07T13:50:51Z</time>
      </trkpt>
      <trkpt lat="44.97365" lon="3.69038">
        <ele>848.4</ele>
        <time>2021-08-07T13:50:53Z</time>
      </trkpt>
      <trkpt lat="44.9736" lon="3.69038">
        <ele>848.5</ele>
        <time>2021-08-07T13:50:55Z</time>
      </trkpt>
      <trkpt lat="44.97355" lon="3.69038">
        <ele>848.6</ele>
        <time>2021-08-07T13:50:57Z</time>
      </trkpt>
      <trkpt lat="44.9735" lon="3.69038">
        <ele>848.7</ele>
        <time>2021-08-07T13:50:59Z</time>
      </trkpt>
      <trkpt lat="44.97345" lon="3.69038">
        <ele>848.8</ele>
        <time>2021-08-07T13:51:01Z</time>
      </trkpt>
      <trkpt lat="44.97341" lon="3.69038">
        <ele>848.9</ele>
        <time>2021-08-07T13:51:03Z</time>
      </trkpt>
      <trkpt lat="44.97336" lon="3.69038">
        <ele>849</ele>
        <time>2021-08-07T13:51:05Z</time>
      </trkpt>
      <trkpt lat="44.97331" lon="3.69039">
        <ele>849.1</ele>
        <time>2021-08-07T13:51:07Z</time>
      </trkpt>
      <trkpt lat="44.97327" lon="3.69039">
        <ele>849.1</ele>
        <time>2021-08-07T13:51:09Z</time>
      </trkpt>
      <trkpt lat="44.97321" lon="3.69038">
        <ele>849.1</ele>
        <time>2021-08-07T13:51:11Z</time>
      </trkpt>
      <trkpt lat="44.97317" lon="3.69039">
        <ele>849.1</ele>
        <time>2021-08-07T13:51:13Z</time>
      </trkpt>
      <trkpt lat="44.97311" lon="3.69039">
        <ele>849.1</ele>
        <time>2021-08-07T13:51:15Z</time>
      </trkpt>
      <trkpt lat="44.97306" lon="3.6904">
        <ele>849.1</ele>
        <time>2021-08-07T13:51:17Z</time>
      </trkpt>
      <trkpt lat="44.973" lon="3.6904">
        <ele>849.1</ele>
        <time>2021-08-07T13:51:19Z</time>
      </trkpt>
      <trkpt lat="44.97295" lon="3.69041">
        <ele>849.2</ele>
        <time>2021-08-07T13:51:21Z</time>
      </trkpt>
      <trkpt lat="44.97289" lon="3.69042">
        <ele>849.2</ele>
        <time>2021-08-07T13:51:23Z</time>
      </trkpt>
      <trkpt lat="44.97282" lon="3.69042">
        <ele>849.2</ele>
        <time>2021-08-07T13:51:25Z</time>
      </trkpt>
      <trkpt lat="44.97275" lon="3.69042">
        <ele>849.2</ele>
        <time>2021-08-07T13:51:27Z</time>
      </trkpt>
      <trkpt lat="44.97266" lon="3.69043">
        <ele>849.2</ele>
        <time>2021-08-07T13:51:29Z</time>
      </trkpt>
      <trkpt lat="44.97256" lon="3.69043">
        <ele>849.2</ele>
        <time>2021-08-07T13:51:31Z</time>
      </trkpt>
      <trkpt lat="44.97245" lon="3.69044">
        <ele>848.8</ele>
        <time>2021-08-07T13:51:33Z</time>
      </trkpt>
      <trkpt lat="44.97233" lon="3.69044">
        <ele>847.8</ele>
        <time>2021-08-07T13:51:35Z</time>
      </trkpt>
      <trkpt lat="44.97227" lon="3.69044">
        <ele>847.3</ele>
        <time>2021-08-07T13:51:36Z</time>
      </trkpt>
      <trkpt lat="44.97211" lon="3.69046">
        <ele>846.1</ele>
        <time>2021-08-07T13:51:39Z</time>
      </trkpt>
      <trkpt lat="44.97201" lon="3.69049">
        <ele>845.4</ele>
        <time>2021-08-07T13:51:41Z</time>
      </trkpt>
      <trkpt lat="44.97191" lon="3.69053">
        <ele>844.9</ele>
        <time>2021-08-07T13:51:43Z</time>
      </trkpt>
      <trkpt lat="44.97184" lon="3.69059">
        <ele>844.5</ele>
        <time>2021-08-07T13:51:45Z</time>
      </trkpt>
      <trkpt lat="44.97178" lon="3.69067">
        <ele>844.4</ele>
        <time>2021-08-07T13:51:47Z</time>
      </trkpt>
      <trkpt lat="44.97174" lon="3.69076">
        <ele>844.4</ele>
        <time>2021-08-07T13:51:49Z</time>
      </trkpt>
      <trkpt lat="44.9717" lon="3.69083">
        <ele>844.4</ele>
        <time>2021-08-07T13:51:51Z</time>
      </trkpt>
      <trkpt lat="44.97168" lon="3.6909">
        <ele>844</ele>
        <time>2021-08-07T13:51:53Z</time>
      </trkpt>
      <trkpt lat="44.97166" lon="3.69097">
        <ele>843.5</ele>
        <time>2021-08-07T13:51:55Z</time>
      </trkpt>
      <trkpt lat="44.97165" lon="3.69102">
        <ele>843</ele>
        <time>2021-08-07T13:51:57Z</time>
      </trkpt>
      <trkpt lat="44.97163" lon="3.69106">
        <ele>842.6</ele>
        <time>2021-08-07T13:51:59Z</time>
      </trkpt>
      <trkpt lat="44.97163" lon="3.69109">
        <ele>842.4</ele>
        <time>2021-08-07T13:52:01Z</time>
      </trkpt>
      <trkpt lat="44.97163" lon="3.69112">
        <ele>842.4</ele>
        <time>2021-08-07T13:52:03Z</time>
      </trkpt>
      <trkpt lat="44.97163" lon="3.69116">
        <ele>842.4</ele>
        <time>2021-08-07T13:52:05Z</time>
      </trkpt>
      <trkpt lat="44.97164" lon="3.69119">
        <ele>842.4</ele>
        <time>2021-08-07T13:52:07Z</time>
      </trkpt>
      <trkpt lat="44.97164" lon="3.6912">
        <ele>842.4</ele>
        <time>2021-08-07T13:52:09Z</time>
      </trkpt>
      <trkpt lat="44.97164" lon="3.6912">
        <ele>842.4</ele>
        <time>2021-08-07T13:52:11Z</time>
      </trkpt>
      <trkpt lat="44.97164" lon="3.6912">
        <ele>842.4</ele>
        <time>2021-08-07T13:52:13Z</time>
      </trkpt>
      <trkpt lat="44.97164" lon="3.6912">
        <ele>842.4</ele>
        <time>2021-08-07T13:52:15Z</time>
      </trkpt>
      <trkpt lat="44.97164" lon="3.69119">
        <ele>842.4</ele>
        <time>2021-08-07T13:52:17Z</time>
      </trkpt>
      <trkpt lat="44.97166" lon="3.69131">
        <ele>842.6</ele>
        <time>2021-08-07T13:56:07Z</time>
      </trkpt>
      <trkpt lat="44.97167" lon="3.69138">
        <ele>842.7</ele>
        <time>2021-08-07T13:56:09Z</time>
      </trkpt>
      <trkpt lat="44.97167" lon="3.69146">
        <ele>842.5</ele>
        <time>2021-08-07T13:56:11Z</time>
      </trkpt>
      <trkpt lat="44.97168" lon="3.69153">
        <ele>842.7</ele>
        <time>2021-08-07T13:56:13Z</time>
      </trkpt>
      <trkpt lat="44.97171" lon="3.69162">
        <ele>843</ele>
        <time>2021-08-07T13:56:15Z</time>
      </trkpt>
      <trkpt lat="44.97172" lon="3.69172">
        <ele>843.2</ele>
        <time>2021-08-07T13:56:17Z</time>
      </trkpt>
      <trkpt lat="44.97174" lon="3.69183">
        <ele>843.2</ele>
        <time>2021-08-07T13:56:19Z</time>
      </trkpt>
      <trkpt lat="44.97176" lon="3.69197">
        <ele>843.3</ele>
        <time>2021-08-07T13:56:21Z</time>
      </trkpt>
      <trkpt lat="44.97176" lon="3.69213">
        <ele>842.8</ele>
        <time>2021-08-07T13:56:23Z</time>
      </trkpt>
      <trkpt lat="44.97175" lon="3.69228">
        <ele>841.8</ele>
        <time>2021-08-07T13:56:25Z</time>
      </trkpt>
      <trkpt lat="44.97174" lon="3.69243">
        <ele>840.8</ele>
        <time>2021-08-07T13:56:27Z</time>
      </trkpt>
      <trkpt lat="44.97172" lon="3.69258">
        <ele>840.1</ele>
        <time>2021-08-07T13:56:29Z</time>
      </trkpt>
      <trkpt lat="44.9717" lon="3.69273">
        <ele>840.1</ele>
        <time>2021-08-07T13:56:31Z</time>
      </trkpt>
      <trkpt lat="44.97168" lon="3.6929">
        <ele>839.9</ele>
        <time>2021-08-07T13:56:33Z</time>
      </trkpt>
      <trkpt lat="44.97166" lon="3.69307">
        <ele>839.4</ele>
        <time>2021-08-07T13:56:35Z</time>
      </trkpt>
      <trkpt lat="44.97164" lon="3.69325">
        <ele>838.8</ele>
        <time>2021-08-07T13:56:37Z</time>
      </trkpt>
      <trkpt lat="44.97161" lon="3.69341">
        <ele>838.2</ele>
        <time>2021-08-07T13:56:39Z</time>
      </trkpt>
      <trkpt lat="44.97158" lon="3.69358">
        <ele>838.3</ele>
        <time>2021-08-07T13:56:41Z</time>
      </trkpt>
      <trkpt lat="44.97156" lon="3.69375">
        <ele>838.5</ele>
        <time>2021-08-07T13:56:43Z</time>
      </trkpt>
      <trkpt lat="44.97153" lon="3.69394">
        <ele>838.4</ele>
        <time>2021-08-07T13:56:45Z</time>
      </trkpt>
      <trkpt lat="44.97148" lon="3.69414">
        <ele>837.4</ele>
        <time>2021-08-07T13:56:47Z</time>
      </trkpt>
      <trkpt lat="44.9714" lon="3.69431">
        <ele>834.9</ele>
        <time>2021-08-07T13:56:49Z</time>
      </trkpt>
      <trkpt lat="44.97133" lon="3.69448">
        <ele>832.4</ele>
        <time>2021-08-07T13:56:51Z</time>
      </trkpt>
      <trkpt lat="44.97125" lon="3.69465">
        <ele>830</ele>
        <time>2021-08-07T13:56:53Z</time>
      </trkpt>
      <trkpt lat="44.97118" lon="3.69481">
        <ele>828.2</ele>
        <time>2021-08-07T13:56:55Z</time>
      </trkpt>
      <trkpt lat="44.97112" lon="3.69497">
        <ele>827.2</ele>
        <time>2021-08-07T13:56:57Z</time>
      </trkpt>
      <trkpt lat="44.97107" lon="3.69509">
        <ele>824.9</ele>
        <time>2021-08-07T13:56:59Z</time>
      </trkpt>
      <trkpt lat="44.97104" lon="3.69517">
        <ele>823.2</ele>
        <time>2021-08-07T13:57:01Z</time>
      </trkpt>
      <trkpt lat="44.97102" lon="3.69521">
        <ele>822.3</ele>
        <time>2021-08-07T13:57:03Z</time>
      </trkpt>
      <trkpt lat="44.97101" lon="3.69525">
        <ele>821.5</ele>
        <time>2021-08-07T13:57:05Z</time>
      </trkpt>
      <trkpt lat="44.97101" lon="3.69527">
        <ele>821.5</ele>
        <time>2021-08-07T13:57:07Z</time>
      </trkpt>
      <trkpt lat="44.97101" lon="3.69526">
        <ele>821.6</ele>
        <time>2021-08-07T13:57:09Z</time>
      </trkpt>
      <trkpt lat="44.97101" lon="3.69527">
        <ele>821.6</ele>
        <time>2021-08-07T13:57:11Z</time>
      </trkpt>
      <trkpt lat="44.97101" lon="3.69527">
        <ele>821.6</ele>
        <time>2021-08-07T13:57:13Z</time>
      </trkpt>
      <trkpt lat="44.97101" lon="3.69527">
        <ele>821.6</ele>
        <time>2021-08-07T13:57:15Z</time>
      </trkpt>
      <trkpt lat="44.97103" lon="3.69553">
        <ele>822</ele>
        <time>2021-08-07T13:57:27Z</time>
      </trkpt>
      <trkpt lat="44.97106" lon="3.69565">
        <ele>823.3</ele>
        <time>2021-08-07T13:57:29Z</time>
      </trkpt>
      <trkpt lat="44.97113" lon="3.69576">
        <ele>825.7</ele>
        <time>2021-08-07T13:57:31Z</time>
      </trkpt>
      <trkpt lat="44.97121" lon="3.69587">
        <ele>828.1</ele>
        <time>2021-08-07T13:57:33Z</time>
      </trkpt>
      <trkpt lat="44.9713" lon="3.69598">
        <ele>829.2</ele>
        <time>2021-08-07T13:57:35Z</time>
      </trkpt>
      <trkpt lat="44.97138" lon="3.6961">
        <ele>830.2</ele>
        <time>2021-08-07T13:57:37Z</time>
      </trkpt>
      <trkpt lat="44.97146" lon="3.69624">
        <ele>830.6</ele>
        <time>2021-08-07T13:57:39Z</time>
      </trkpt>
      <trkpt lat="44.97152" lon="3.69639">
        <ele>829.8</ele>
        <time>2021-08-07T13:57:41Z</time>
      </trkpt>
      <trkpt lat="44.97155" lon="3.69656">
        <ele>827.5</ele>
        <time>2021-08-07T13:57:43Z</time>
      </trkpt>
      <trkpt lat="44.97154" lon="3.69673">
        <ele>826.1</ele>
        <time>2021-08-07T13:57:45Z</time>
      </trkpt>
      <trkpt lat="44.97151" lon="3.6969">
        <ele>827.3</ele>
        <time>2021-08-07T13:57:47Z</time>
      </trkpt>
      <trkpt lat="44.97143" lon="3.69705">
        <ele>826.7</ele>
        <time>2021-08-07T13:57:49Z</time>
      </trkpt>
      <trkpt lat="44.97131" lon="3.69714">
        <ele>824.1</ele>
        <time>2021-08-07T13:57:51Z</time>
      </trkpt>
      <trkpt lat="44.97119" lon="3.69722">
        <ele>821.3</ele>
        <time>2021-08-07T13:57:53Z</time>
      </trkpt>
      <trkpt lat="44.97107" lon="3.6973">
        <ele>818.3</ele>
        <time>2021-08-07T13:57:55Z</time>
      </trkpt>
      <trkpt lat="44.97095" lon="3.69738">
        <ele>815.4</ele>
        <time>2021-08-07T13:57:57Z</time>
      </trkpt>
      <trkpt lat="44.97083" lon="3.69746">
        <ele>812.3</ele>
        <time>2021-08-07T13:57:59Z</time>
      </trkpt>
      <trkpt lat="44.9707" lon="3.69755">
        <ele>809.8</ele>
        <time>2021-08-07T13:58:01Z</time>
      </trkpt>
      <trkpt lat="44.97059" lon="3.69764">
        <ele>808.1</ele>
        <time>2021-08-07T13:58:03Z</time>
      </trkpt>
      <trkpt lat="44.97049" lon="3.69775">
        <ele>806.7</ele>
        <time>2021-08-07T13:58:05Z</time>
      </trkpt>
      <trkpt lat="44.97041" lon="3.69789">
        <ele>806.5</ele>
        <time>2021-08-07T13:58:07Z</time>
      </trkpt>
      <trkpt lat="44.97036" lon="3.69806">
        <ele>807.8</ele>
        <time>2021-08-07T13:58:09Z</time>
      </trkpt>
      <trkpt lat="44.97035" lon="3.69825">
        <ele>810.7</ele>
        <time>2021-08-07T13:58:11Z</time>
      </trkpt>
      <trkpt lat="44.97035" lon="3.69843">
        <ele>812.9</ele>
        <time>2021-08-07T13:58:13Z</time>
      </trkpt>
      <trkpt lat="44.97035" lon="3.69861">
        <ele>814.9</ele>
        <time>2021-08-07T13:58:15Z</time>
      </trkpt>
      <trkpt lat="44.97036" lon="3.6988">
        <ele>817.1</ele>
        <time>2021-08-07T13:58:17Z</time>
      </trkpt>
      <trkpt lat="44.97035" lon="3.69899">
        <ele>818.8</ele>
        <time>2021-08-07T13:58:19Z</time>
      </trkpt>
      <trkpt lat="44.97032" lon="3.69917">
        <ele>819.3</ele>
        <time>2021-08-07T13:58:21Z</time>
      </trkpt>
      <trkpt lat="44.97026" lon="3.69935">
        <ele>820.5</ele>
        <time>2021-08-07T13:58:23Z</time>
      </trkpt>
      <trkpt lat="44.97016" lon="3.69949">
        <ele>820</ele>
        <time>2021-08-07T13:58:25Z</time>
      </trkpt>
      <trkpt lat="44.97003" lon="3.69959">
        <ele>817.7</ele>
        <time>2021-08-07T13:58:27Z</time>
      </trkpt>
      <trkpt lat="44.96987" lon="3.69964">
        <ele>820</ele>
        <time>2021-08-07T13:58:29Z</time>
      </trkpt>
      <trkpt lat="44.96971" lon="3.69964">
        <ele>823</ele>
        <time>2021-08-07T13:58:31Z</time>
      </trkpt>
      <trkpt lat="44.96956" lon="3.69955">
        <ele>823.5</ele>
        <time>2021-08-07T13:58:33Z</time>
      </trkpt>
      <trkpt lat="44.96945" lon="3.69938">
        <ele>821.4</ele>
        <time>2021-08-07T13:58:35Z</time>
      </trkpt>
      <trkpt lat="44.96938" lon="3.69918">
        <ele>817.8</ele>
        <time>2021-08-07T13:58:37Z</time>
      </trkpt>
      <trkpt lat="44.96931" lon="3.69899">
        <ele>814.4</ele>
        <time>2021-08-07T13:58:39Z</time>
      </trkpt>
      <trkpt lat="44.96924" lon="3.6988">
        <ele>810.7</ele>
        <time>2021-08-07T13:58:41Z</time>
      </trkpt>
      <trkpt lat="44.96916" lon="3.69862">
        <ele>806.8</ele>
        <time>2021-08-07T13:58:43Z</time>
      </trkpt>
      <trkpt lat="44.96908" lon="3.69845">
        <ele>806.5</ele>
        <time>2021-08-07T13:58:45Z</time>
      </trkpt>
      <trkpt lat="44.96901" lon="3.69826">
        <ele>806.3</ele>
        <time>2021-08-07T13:58:47Z</time>
      </trkpt>
      <trkpt lat="44.96893" lon="3.69809">
        <ele>807.2</ele>
        <time>2021-08-07T13:58:49Z</time>
      </trkpt>
      <trkpt lat="44.96884" lon="3.69793">
        <ele>808.8</ele>
        <time>2021-08-07T13:58:51Z</time>
      </trkpt>
      <trkpt lat="44.96877" lon="3.69776">
        <ele>809.2</ele>
        <time>2021-08-07T13:58:53Z</time>
      </trkpt>
      <trkpt lat="44.96873" lon="3.69767">
        <ele>809.2</ele>
        <time>2021-08-07T13:58:54Z</time>
      </trkpt>
      <trkpt lat="44.96864" lon="3.69743">
        <ele>809.2</ele>
        <time>2021-08-07T13:58:57Z</time>
      </trkpt>
      <trkpt lat="44.96859" lon="3.6973">
        <ele>810</ele>
        <time>2021-08-07T13:58:59Z</time>
      </trkpt>
      <trkpt lat="44.96856" lon="3.69716">
        <ele>809.4</ele>
        <time>2021-08-07T13:59:01Z</time>
      </trkpt>
      <trkpt lat="44.96853" lon="3.69704">
        <ele>809.6</ele>
        <time>2021-08-07T13:59:03Z</time>
      </trkpt>
      <trkpt lat="44.9685" lon="3.69693">
        <ele>809.6</ele>
        <time>2021-08-07T13:59:05Z</time>
      </trkpt>
      <trkpt lat="44.96848" lon="3.69683">
        <ele>809.5</ele>
        <time>2021-08-07T13:59:07Z</time>
      </trkpt>
      <trkpt lat="44.96846" lon="3.69674">
        <ele>809.5</ele>
        <time>2021-08-07T13:59:09Z</time>
      </trkpt>
      <trkpt lat="44.96842" lon="3.69665">
        <ele>810</ele>
        <time>2021-08-07T13:59:11Z</time>
      </trkpt>
      <trkpt lat="44.9684" lon="3.69655">
        <ele>809.4</ele>
        <time>2021-08-07T13:59:13Z</time>
      </trkpt>
      <trkpt lat="44.96837" lon="3.69646">
        <ele>809</ele>
        <time>2021-08-07T13:59:15Z</time>
      </trkpt>
      <trkpt lat="44.96835" lon="3.69638">
        <ele>808.4</ele>
        <time>2021-08-07T13:59:17Z</time>
      </trkpt>
      <trkpt lat="44.96833" lon="3.6963">
        <ele>808</ele>
        <time>2021-08-07T13:59:19Z</time>
      </trkpt>
      <trkpt lat="44.96831" lon="3.69622">
        <ele>807.7</ele>
        <time>2021-08-07T13:59:21Z</time>
      </trkpt>
      <trkpt lat="44.96829" lon="3.69618">
        <ele>807.8</ele>
        <time>2021-08-07T13:59:22Z</time>
      </trkpt>
      <trkpt lat="44.96825" lon="3.69608">
        <ele>808</ele>
        <time>2021-08-07T13:59:25Z</time>
      </trkpt>
      <trkpt lat="44.96822" lon="3.69601">
        <ele>808.2</ele>
        <time>2021-08-07T13:59:27Z</time>
      </trkpt>
      <trkpt lat="44.96819" lon="3.69596">
        <ele>808.8</ele>
        <time>2021-08-07T13:59:29Z</time>
      </trkpt>
      <trkpt lat="44.96816" lon="3.69591">
        <ele>809.4</ele>
        <time>2021-08-07T13:59:31Z</time>
      </trkpt>
      <trkpt lat="44.96813" lon="3.69586">
        <ele>810.1</ele>
        <time>2021-08-07T13:59:33Z</time>
      </trkpt>
      <trkpt lat="44.96811" lon="3.69581">
        <ele>810.5</ele>
        <time>2021-08-07T13:59:35Z</time>
      </trkpt>
      <trkpt lat="44.96808" lon="3.69576">
        <ele>811</ele>
        <time>2021-08-07T13:59:37Z</time>
      </trkpt>
      <trkpt lat="44.96805" lon="3.69571">
        <ele>811.6</ele>
        <time>2021-08-07T13:59:39Z</time>
      </trkpt>
      <trkpt lat="44.96802" lon="3.69567">
        <ele>812.2</ele>
        <time>2021-08-07T13:59:41Z</time>
      </trkpt>
      <trkpt lat="44.96801" lon="3.69565">
        <ele>812.6</ele>
        <time>2021-08-07T13:59:42Z</time>
      </trkpt>
      <trkpt lat="44.96796" lon="3.69558">
        <ele>813.6</ele>
        <time>2021-08-07T13:59:45Z</time>
      </trkpt>
      <trkpt lat="44.96793" lon="3.69553">
        <ele>814.2</ele>
        <time>2021-08-07T13:59:47Z</time>
      </trkpt>
      <trkpt lat="44.9679" lon="3.69548">
        <ele>815</ele>
        <time>2021-08-07T13:59:49Z</time>
      </trkpt>
      <trkpt lat="44.96787" lon="3.69544">
        <ele>815.4</ele>
        <time>2021-08-07T13:59:51Z</time>
      </trkpt>
      <trkpt lat="44.96784" lon="3.6954">
        <ele>816</ele>
        <time>2021-08-07T13:59:53Z</time>
      </trkpt>
      <trkpt lat="44.96781" lon="3.69536">
        <ele>816.5</ele>
        <time>2021-08-07T13:59:55Z</time>
      </trkpt>
      <trkpt lat="44.9678" lon="3.69534">
        <ele>816.7</ele>
        <time>2021-08-07T13:59:56Z</time>
      </trkpt>
      <trkpt lat="44.96776" lon="3.69528">
        <ele>817.2</ele>
        <time>2021-08-07T13:59:59Z</time>
      </trkpt>
      <trkpt lat="44.96774" lon="3.69524">
        <ele>817.8</ele>
        <time>2021-08-07T14:00:01Z</time>
      </trkpt>
      <trkpt lat="44.96771" lon="3.6952">
        <ele>818.1</ele>
        <time>2021-08-07T14:00:03Z</time>
      </trkpt>
      <trkpt lat="44.96769" lon="3.69517">
        <ele>818.7</ele>
        <time>2021-08-07T14:00:05Z</time>
      </trkpt>
      <trkpt lat="44.96767" lon="3.69513">
        <ele>818.8</ele>
        <time>2021-08-07T14:00:07Z</time>
      </trkpt>
      <trkpt lat="44.96765" lon="3.69509">
        <ele>818.8</ele>
        <time>2021-08-07T14:00:09Z</time>
      </trkpt>
      <trkpt lat="44.96763" lon="3.69505">
        <ele>819</ele>
        <time>2021-08-07T14:00:11Z</time>
      </trkpt>
      <trkpt lat="44.9676" lon="3.69502">
        <ele>819.5</ele>
        <time>2021-08-07T14:00:13Z</time>
      </trkpt>
      <trkpt lat="44.96758" lon="3.69498">
        <ele>819.8</ele>
        <time>2021-08-07T14:00:15Z</time>
      </trkpt>
      <trkpt lat="44.96756" lon="3.69494">
        <ele>820.5</ele>
        <time>2021-08-07T14:00:17Z</time>
      </trkpt>
      <trkpt lat="44.96753" lon="3.69492">
        <ele>821.1</ele>
        <time>2021-08-07T14:00:19Z</time>
      </trkpt>
      <trkpt lat="44.96751" lon="3.69488">
        <ele>821.9</ele>
        <time>2021-08-07T14:00:21Z</time>
      </trkpt>
      <trkpt lat="44.96749" lon="3.69484">
        <ele>822</ele>
        <time>2021-08-07T14:00:23Z</time>
      </trkpt>
      <trkpt lat="44.96747" lon="3.69479">
        <ele>821.9</ele>
        <time>2021-08-07T14:00:25Z</time>
      </trkpt>
      <trkpt lat="44.96744" lon="3.69475">
        <ele>822.1</ele>
        <time>2021-08-07T14:00:27Z</time>
      </trkpt>
      <trkpt lat="44.96741" lon="3.6947">
        <ele>822.5</ele>
        <time>2021-08-07T14:00:29Z</time>
      </trkpt>
      <trkpt lat="44.96739" lon="3.69466">
        <ele>822.6</ele>
        <time>2021-08-07T14:00:31Z</time>
      </trkpt>
      <trkpt lat="44.96737" lon="3.69461">
        <ele>822.7</ele>
        <time>2021-08-07T14:00:33Z</time>
      </trkpt>
      <trkpt lat="44.96735" lon="3.69457">
        <ele>822.6</ele>
        <time>2021-08-07T14:00:35Z</time>
      </trkpt>
      <trkpt lat="44.96733" lon="3.69452">
        <ele>822.6</ele>
        <time>2021-08-07T14:00:37Z</time>
      </trkpt>
      <trkpt lat="44.96731" lon="3.69448">
        <ele>822.6</ele>
        <time>2021-08-07T14:00:39Z</time>
      </trkpt>
      <trkpt lat="44.9673" lon="3.69443">
        <ele>822.3</ele>
        <time>2021-08-07T14:00:41Z</time>
      </trkpt>
      <trkpt lat="44.96728" lon="3.69438">
        <ele>822</ele>
        <time>2021-08-07T14:00:43Z</time>
      </trkpt>
      <trkpt lat="44.96727" lon="3.69433">
        <ele>821.7</ele>
        <time>2021-08-07T14:00:45Z</time>
      </trkpt>
      <trkpt lat="44.96725" lon="3.69427">
        <ele>821.3</ele>
        <time>2021-08-07T14:00:47Z</time>
      </trkpt>
      <trkpt lat="44.96724" lon="3.69422">
        <ele>820.9</ele>
        <time>2021-08-07T14:00:49Z</time>
      </trkpt>
      <trkpt lat="44.96723" lon="3.69417">
        <ele>820.5</ele>
        <time>2021-08-07T14:00:51Z</time>
      </trkpt>
      <trkpt lat="44.96722" lon="3.69412">
        <ele>820.2</ele>
        <time>2021-08-07T14:00:53Z</time>
      </trkpt>
      <trkpt lat="44.96721" lon="3.69407">
        <ele>819.8</ele>
        <time>2021-08-07T14:00:55Z</time>
      </trkpt>
      <trkpt lat="44.96719" lon="3.69402">
        <ele>819.5</ele>
        <time>2021-08-07T14:00:57Z</time>
      </trkpt>
      <trkpt lat="44.96718" lon="3.69397">
        <ele>819.1</ele>
        <time>2021-08-07T14:00:59Z</time>
      </trkpt>
      <trkpt lat="44.96717" lon="3.69391">
        <ele>818.4</ele>
        <time>2021-08-07T14:01:01Z</time>
      </trkpt>
      <trkpt lat="44.96716" lon="3.69389">
        <ele>818.4</ele>
        <time>2021-08-07T14:01:02Z</time>
      </trkpt>
      <trkpt lat="44.96713" lon="3.6938">
        <ele>817.7</ele>
        <time>2021-08-07T14:01:05Z</time>
      </trkpt>
      <trkpt lat="44.96711" lon="3.69374">
        <ele>817.1</ele>
        <time>2021-08-07T14:01:07Z</time>
      </trkpt>
      <trkpt lat="44.9671" lon="3.69366">
        <ele>816.2</ele>
        <time>2021-08-07T14:01:09Z</time>
      </trkpt>
      <trkpt lat="44.96707" lon="3.69358">
        <ele>815.4</ele>
        <time>2021-08-07T14:01:11Z</time>
      </trkpt>
      <trkpt lat="44.96705" lon="3.6935">
        <ele>814.4</ele>
        <time>2021-08-07T14:01:13Z</time>
      </trkpt>
      <trkpt lat="44.96703" lon="3.69341">
        <ele>813.3</ele>
        <time>2021-08-07T14:01:15Z</time>
      </trkpt>
      <trkpt lat="44.967" lon="3.69333">
        <ele>812.3</ele>
        <time>2021-08-07T14:01:17Z</time>
      </trkpt>
      <trkpt lat="44.96697" lon="3.69324">
        <ele>810.6</ele>
        <time>2021-08-07T14:01:19Z</time>
      </trkpt>
      <trkpt lat="44.96694" lon="3.69318">
        <ele>809.4</ele>
        <time>2021-08-07T14:01:21Z</time>
      </trkpt>
      <trkpt lat="44.96693" lon="3.69316">
        <ele>808.9</ele>
        <time>2021-08-07T14:01:22Z</time>
      </trkpt>
      <trkpt lat="44.96689" lon="3.6931">
        <ele>808.1</ele>
        <time>2021-08-07T14:01:25Z</time>
      </trkpt>
      <trkpt lat="44.96686" lon="3.69307">
        <ele>807.4</ele>
        <time>2021-08-07T14:01:27Z</time>
      </trkpt>
      <trkpt lat="44.96683" lon="3.69304">
        <ele>807.1</ele>
        <time>2021-08-07T14:01:29Z</time>
      </trkpt>
      <trkpt lat="44.96677" lon="3.693">
        <ele>806.8</ele>
        <time>2021-08-07T14:01:31Z</time>
      </trkpt>
      <trkpt lat="44.96669" lon="3.69294">
        <ele>805.9</ele>
        <time>2021-08-07T14:01:33Z</time>
      </trkpt>
      <trkpt lat="44.96659" lon="3.69289">
        <ele>805.2</ele>
        <time>2021-08-07T14:01:35Z</time>
      </trkpt>
      <trkpt lat="44.96653" lon="3.69287">
        <ele>805</ele>
        <time>2021-08-07T14:01:36Z</time>
      </trkpt>
      <trkpt lat="44.96632" lon="3.69286">
        <ele>805.8</ele>
        <time>2021-08-07T14:01:39Z</time>
      </trkpt>
      <trkpt lat="44.96616" lon="3.69284">
        <ele>806</ele>
        <time>2021-08-07T14:01:41Z</time>
      </trkpt>
      <trkpt lat="44.966" lon="3.69281">
        <ele>805.7</ele>
        <time>2021-08-07T14:01:43Z</time>
      </trkpt>
      <trkpt lat="44.96586" lon="3.69275">
        <ele>804.5</ele>
        <time>2021-08-07T14:01:45Z</time>
      </trkpt>
      <trkpt lat="44.96573" lon="3.69266">
        <ele>803.2</ele>
        <time>2021-08-07T14:01:47Z</time>
      </trkpt>
      <trkpt lat="44.96561" lon="3.69255">
        <ele>801.3</ele>
        <time>2021-08-07T14:01:49Z</time>
      </trkpt>
      <trkpt lat="44.9655" lon="3.69241">
        <ele>799</ele>
        <time>2021-08-07T14:01:51Z</time>
      </trkpt>
      <trkpt lat="44.96541" lon="3.69224">
        <ele>796.4</ele>
        <time>2021-08-07T14:01:53Z</time>
      </trkpt>
      <trkpt lat="44.96537" lon="3.69206">
        <ele>793.2</ele>
        <time>2021-08-07T14:01:55Z</time>
      </trkpt>
      <trkpt lat="44.96533" lon="3.69186">
        <ele>789.6</ele>
        <time>2021-08-07T14:01:57Z</time>
      </trkpt>
      <trkpt lat="44.96529" lon="3.69167">
        <ele>786.5</ele>
        <time>2021-08-07T14:01:59Z</time>
      </trkpt>
      <trkpt lat="44.96524" lon="3.69149">
        <ele>785</ele>
        <time>2021-08-07T14:02:01Z</time>
      </trkpt>
      <trkpt lat="44.96516" lon="3.69132">
        <ele>784.5</ele>
        <time>2021-08-07T14:02:03Z</time>
      </trkpt>
      <trkpt lat="44.96507" lon="3.69117">
        <ele>785</ele>
        <time>2021-08-07T14:02:05Z</time>
      </trkpt>
      <trkpt lat="44.96497" lon="3.69103">
        <ele>785.5</ele>
        <time>2021-08-07T14:02:07Z</time>
      </trkpt>
      <trkpt lat="44.96485" lon="3.69093">
        <ele>784.2</ele>
        <time>2021-08-07T14:02:09Z</time>
      </trkpt>
      <trkpt lat="44.96472" lon="3.69084">
        <ele>783.1</ele>
        <time>2021-08-07T14:02:11Z</time>
      </trkpt>
      <trkpt lat="44.96459" lon="3.69077">
        <ele>781.8</ele>
        <time>2021-08-07T14:02:13Z</time>
      </trkpt>
      <trkpt lat="44.96447" lon="3.69069">
        <ele>780.6</ele>
        <time>2021-08-07T14:02:15Z</time>
      </trkpt>
      <trkpt lat="44.96434" lon="3.69062">
        <ele>780</ele>
        <time>2021-08-07T14:02:17Z</time>
      </trkpt>
      <trkpt lat="44.96421" lon="3.69056">
        <ele>779.7</ele>
        <time>2021-08-07T14:02:19Z</time>
      </trkpt>
      <trkpt lat="44.96409" lon="3.69048">
        <ele>778.7</ele>
        <time>2021-08-07T14:02:21Z</time>
      </trkpt>
      <trkpt lat="44.96397" lon="3.69042">
        <ele>777.2</ele>
        <time>2021-08-07T14:02:23Z</time>
      </trkpt>
      <trkpt lat="44.96385" lon="3.69036">
        <ele>775.9</ele>
        <time>2021-08-07T14:02:25Z</time>
      </trkpt>
      <trkpt lat="44.96373" lon="3.69031">
        <ele>774.7</ele>
        <time>2021-08-07T14:02:27Z</time>
      </trkpt>
      <trkpt lat="44.9636" lon="3.6903">
        <ele>773.8</ele>
        <time>2021-08-07T14:02:29Z</time>
      </trkpt>
      <trkpt lat="44.96345" lon="3.69032">
        <ele>773</ele>
        <time>2021-08-07T14:02:31Z</time>
      </trkpt>
      <trkpt lat="44.96331" lon="3.69038">
        <ele>772.4</ele>
        <time>2021-08-07T14:02:33Z</time>
      </trkpt>
      <trkpt lat="44.96319" lon="3.69052">
        <ele>771.4</ele>
        <time>2021-08-07T14:02:35Z</time>
      </trkpt>
      <trkpt lat="44.96309" lon="3.69067">
        <ele>770.7</ele>
        <time>2021-08-07T14:02:37Z</time>
      </trkpt>
      <trkpt lat="44.96301" lon="3.69084">
        <ele>770.1</ele>
        <time>2021-08-07T14:02:39Z</time>
      </trkpt>
      <trkpt lat="44.96293" lon="3.69101">
        <ele>770.2</ele>
        <time>2021-08-07T14:02:41Z</time>
      </trkpt>
      <trkpt lat="44.96286" lon="3.69117">
        <ele>770.4</ele>
        <time>2021-08-07T14:02:43Z</time>
      </trkpt>
      <trkpt lat="44.96279" lon="3.69133">
        <ele>770.6</ele>
        <time>2021-08-07T14:02:45Z</time>
      </trkpt>
      <trkpt lat="44.96271" lon="3.69147">
        <ele>770.5</ele>
        <time>2021-08-07T14:02:47Z</time>
      </trkpt>
      <trkpt lat="44.96262" lon="3.69159">
        <ele>770.1</ele>
        <time>2021-08-07T14:02:49Z</time>
      </trkpt>
      <trkpt lat="44.96252" lon="3.6917">
        <ele>769.9</ele>
        <time>2021-08-07T14:02:51Z</time>
      </trkpt>
      <trkpt lat="44.96242" lon="3.69182">
        <ele>769.3</ele>
        <time>2021-08-07T14:02:53Z</time>
      </trkpt>
      <trkpt lat="44.96231" lon="3.69193">
        <ele>768</ele>
        <time>2021-08-07T14:02:55Z</time>
      </trkpt>
      <trkpt lat="44.96221" lon="3.69203">
        <ele>766.6</ele>
        <time>2021-08-07T14:02:57Z</time>
      </trkpt>
      <trkpt lat="44.96211" lon="3.69215">
        <ele>765.5</ele>
        <time>2021-08-07T14:02:59Z</time>
      </trkpt>
      <trkpt lat="44.96204" lon="3.69229">
        <ele>765.2</ele>
        <time>2021-08-07T14:03:01Z</time>
      </trkpt>
      <trkpt lat="44.96201" lon="3.69237">
        <ele>765.3</ele>
        <time>2021-08-07T14:03:02Z</time>
      </trkpt>
      <trkpt lat="44.96194" lon="3.69263">
        <ele>766</ele>
        <time>2021-08-07T14:03:05Z</time>
      </trkpt>
      <trkpt lat="44.96191" lon="3.6928">
        <ele>766.2</ele>
        <time>2021-08-07T14:03:07Z</time>
      </trkpt>
      <trkpt lat="44.96189" lon="3.69297">
        <ele>766.4</ele>
        <time>2021-08-07T14:03:09Z</time>
      </trkpt>
      <trkpt lat="44.96186" lon="3.69314">
        <ele>766.5</ele>
        <time>2021-08-07T14:03:11Z</time>
      </trkpt>
      <trkpt lat="44.96183" lon="3.6933">
        <ele>766</ele>
        <time>2021-08-07T14:03:13Z</time>
      </trkpt>
      <trkpt lat="44.96181" lon="3.69347">
        <ele>765</ele>
        <time>2021-08-07T14:03:15Z</time>
      </trkpt>
      <trkpt lat="44.9618" lon="3.69355">
        <ele>764.6</ele>
        <time>2021-08-07T14:03:16Z</time>
      </trkpt>
      <trkpt lat="44.96177" lon="3.69372">
        <ele>763.3</ele>
        <time>2021-08-07T14:03:19Z</time>
      </trkpt>
      <trkpt lat="44.96176" lon="3.6938">
        <ele>762.3</ele>
        <time>2021-08-07T14:03:21Z</time>
      </trkpt>
      <trkpt lat="44.96175" lon="3.69387">
        <ele>761.9</ele>
        <time>2021-08-07T14:03:23Z</time>
      </trkpt>
      <trkpt lat="44.96174" lon="3.69393">
        <ele>761.3</ele>
        <time>2021-08-07T14:03:25Z</time>
      </trkpt>
      <trkpt lat="44.96173" lon="3.69399">
        <ele>760.8</ele>
        <time>2021-08-07T14:03:27Z</time>
      </trkpt>
      <trkpt lat="44.96172" lon="3.69406">
        <ele>760.4</ele>
        <time>2021-08-07T14:03:29Z</time>
      </trkpt>
      <trkpt lat="44.96171" lon="3.69411">
        <ele>759.7</ele>
        <time>2021-08-07T14:03:31Z</time>
      </trkpt>
      <trkpt lat="44.9617" lon="3.69416">
        <ele>759.2</ele>
        <time>2021-08-07T14:03:33Z</time>
      </trkpt>
      <trkpt lat="44.9617" lon="3.6942">
        <ele>759.1</ele>
        <time>2021-08-07T14:03:35Z</time>
      </trkpt>
      <trkpt lat="44.96169" lon="3.69422">
        <ele>758.6</ele>
        <time>2021-08-07T14:03:37Z</time>
      </trkpt>
      <trkpt lat="44.96169" lon="3.69423">
        <ele>758.5</ele>
        <time>2021-08-07T14:03:39Z</time>
      </trkpt>
      <trkpt lat="44.96169" lon="3.69424">
        <ele>758.4</ele>
        <time>2021-08-07T14:03:41Z</time>
      </trkpt>
      <trkpt lat="44.96168" lon="3.69424">
        <ele>758.4</ele>
        <time>2021-08-07T14:03:43Z</time>
      </trkpt>
      <trkpt lat="44.96166" lon="3.69448">
        <ele>758.3</ele>
        <time>2021-08-07T14:04:29Z</time>
      </trkpt>
      <trkpt lat="44.96165" lon="3.69461">
        <ele>758.1</ele>
        <time>2021-08-07T14:04:31Z</time>
      </trkpt>
      <trkpt lat="44.96164" lon="3.69473">
        <ele>758.3</ele>
        <time>2021-08-07T14:04:33Z</time>
      </trkpt>
      <trkpt lat="44.96162" lon="3.69486">
        <ele>757.8</ele>
        <time>2021-08-07T14:04:35Z</time>
      </trkpt>
      <trkpt lat="44.9616" lon="3.695">
        <ele>757.3</ele>
        <time>2021-08-07T14:04:37Z</time>
      </trkpt>
      <trkpt lat="44.96159" lon="3.69515">
        <ele>756.4</ele>
        <time>2021-08-07T14:04:39Z</time>
      </trkpt>
      <trkpt lat="44.96158" lon="3.6953">
        <ele>755.4</ele>
        <time>2021-08-07T14:04:41Z</time>
      </trkpt>
      <trkpt lat="44.96157" lon="3.69545">
        <ele>754.8</ele>
        <time>2021-08-07T14:04:43Z</time>
      </trkpt>
      <trkpt lat="44.96158" lon="3.69561">
        <ele>754.6</ele>
        <time>2021-08-07T14:04:45Z</time>
      </trkpt>
      <trkpt lat="44.96158" lon="3.69577">
        <ele>754.6</ele>
        <time>2021-08-07T14:04:47Z</time>
      </trkpt>
      <trkpt lat="44.96159" lon="3.69593">
        <ele>753.9</ele>
        <time>2021-08-07T14:04:49Z</time>
      </trkpt>
      <trkpt lat="44.96157" lon="3.69609">
        <ele>752.3</ele>
        <time>2021-08-07T14:04:51Z</time>
      </trkpt>
      <trkpt lat="44.96154" lon="3.69627">
        <ele>749.4</ele>
        <time>2021-08-07T14:04:53Z</time>
      </trkpt>
      <trkpt lat="44.9615" lon="3.69645">
        <ele>746.7</ele>
        <time>2021-08-07T14:04:55Z</time>
      </trkpt>
      <trkpt lat="44.96146" lon="3.69663">
        <ele>744.2</ele>
        <time>2021-08-07T14:04:57Z</time>
      </trkpt>
      <trkpt lat="44.96141" lon="3.69681">
        <ele>741.7</ele>
        <time>2021-08-07T14:04:59Z</time>
      </trkpt>
      <trkpt lat="44.96136" lon="3.69697">
        <ele>739.8</ele>
        <time>2021-08-07T14:05:01Z</time>
      </trkpt>
      <trkpt lat="44.96132" lon="3.69713">
        <ele>738.1</ele>
        <time>2021-08-07T14:05:03Z</time>
      </trkpt>
      <trkpt lat="44.96129" lon="3.69728">
        <ele>737</ele>
        <time>2021-08-07T14:05:05Z</time>
      </trkpt>
      <trkpt lat="44.96129" lon="3.69745">
        <ele>737.1</ele>
        <time>2021-08-07T14:05:07Z</time>
      </trkpt>
      <trkpt lat="44.96134" lon="3.69762">
        <ele>739.5</ele>
        <time>2021-08-07T14:05:09Z</time>
      </trkpt>
      <trkpt lat="44.96139" lon="3.69778">
        <ele>742.3</ele>
        <time>2021-08-07T14:05:11Z</time>
      </trkpt>
      <trkpt lat="44.96142" lon="3.69796">
        <ele>744.4</ele>
        <time>2021-08-07T14:05:13Z</time>
      </trkpt>
      <trkpt lat="44.96144" lon="3.69814">
        <ele>745.8</ele>
        <time>2021-08-07T14:05:15Z</time>
      </trkpt>
      <trkpt lat="44.96141" lon="3.6983">
        <ele>745.7</ele>
        <time>2021-08-07T14:05:17Z</time>
      </trkpt>
      <trkpt lat="44.96131" lon="3.69842">
        <ele>745.6</ele>
        <time>2021-08-07T14:05:19Z</time>
      </trkpt>
      <trkpt lat="44.96119" lon="3.69849">
        <ele>743.6</ele>
        <time>2021-08-07T14:05:21Z</time>
      </trkpt>
      <trkpt lat="44.96107" lon="3.69852">
        <ele>740.4</ele>
        <time>2021-08-07T14:05:23Z</time>
      </trkpt>
      <trkpt lat="44.96094" lon="3.69852">
        <ele>736.6</ele>
        <time>2021-08-07T14:05:25Z</time>
      </trkpt>
      <trkpt lat="44.96082" lon="3.6985">
        <ele>732.2</ele>
        <time>2021-08-07T14:05:27Z</time>
      </trkpt>
      <trkpt lat="44.96069" lon="3.69849">
        <ele>728.2</ele>
        <time>2021-08-07T14:05:29Z</time>
      </trkpt>
      <trkpt lat="44.96056" lon="3.69847">
        <ele>724.1</ele>
        <time>2021-08-07T14:05:31Z</time>
      </trkpt>
      <trkpt lat="44.96043" lon="3.69844">
        <ele>720.1</ele>
        <time>2021-08-07T14:05:33Z</time>
      </trkpt>
      <trkpt lat="44.96033" lon="3.69842">
        <ele>716.9</ele>
        <time>2021-08-07T14:05:35Z</time>
      </trkpt>
      <trkpt lat="44.96022" lon="3.69845">
        <ele>714.6</ele>
        <time>2021-08-07T14:05:37Z</time>
      </trkpt>
      <trkpt lat="44.96013" lon="3.69853">
        <ele>713.4</ele>
        <time>2021-08-07T14:05:39Z</time>
      </trkpt>
      <trkpt lat="44.96004" lon="3.69865">
        <ele>712.5</ele>
        <time>2021-08-07T14:05:41Z</time>
      </trkpt>
      <trkpt lat="44.95999" lon="3.69883">
        <ele>713.3</ele>
        <time>2021-08-07T14:05:43Z</time>
      </trkpt>
      <trkpt lat="44.95995" lon="3.69901">
        <ele>714.4</ele>
        <time>2021-08-07T14:05:45Z</time>
      </trkpt>
      <trkpt lat="44.9599" lon="3.69918">
        <ele>715.1</ele>
        <time>2021-08-07T14:05:47Z</time>
      </trkpt>
      <trkpt lat="44.95986" lon="3.69932">
        <ele>716.5</ele>
        <time>2021-08-07T14:05:49Z</time>
      </trkpt>
      <trkpt lat="44.95978" lon="3.69943">
        <ele>716.3</ele>
        <time>2021-08-07T14:05:51Z</time>
      </trkpt>
      <trkpt lat="44.95966" lon="3.69948">
        <ele>714.1</ele>
        <time>2021-08-07T14:05:53Z</time>
      </trkpt>
      <trkpt lat="44.95954" lon="3.69948">
        <ele>710.7</ele>
        <time>2021-08-07T14:05:55Z</time>
      </trkpt>
      <trkpt lat="44.95943" lon="3.69946">
        <ele>707.1</ele>
        <time>2021-08-07T14:05:57Z</time>
      </trkpt>
      <trkpt lat="44.95932" lon="3.69945">
        <ele>703.6</ele>
        <time>2021-08-07T14:05:59Z</time>
      </trkpt>
      <trkpt lat="44.95921" lon="3.69947">
        <ele>700.9</ele>
        <time>2021-08-07T14:06:01Z</time>
      </trkpt>
      <trkpt lat="44.95916" lon="3.69949">
        <ele>699.9</ele>
        <time>2021-08-07T14:06:02Z</time>
      </trkpt>
      <trkpt lat="44.959" lon="3.69956">
        <ele>699</ele>
        <time>2021-08-07T14:06:05Z</time>
      </trkpt>
      <trkpt lat="44.95891" lon="3.69966">
        <ele>699.6</ele>
        <time>2021-08-07T14:06:07Z</time>
      </trkpt>
      <trkpt lat="44.95884" lon="3.6998">
        <ele>701.3</ele>
        <time>2021-08-07T14:06:09Z</time>
      </trkpt>
      <trkpt lat="44.95878" lon="3.69994">
        <ele>702.9</ele>
        <time>2021-08-07T14:06:11Z</time>
      </trkpt>
      <trkpt lat="44.95871" lon="3.70007">
        <ele>704.6</ele>
        <time>2021-08-07T14:06:13Z</time>
      </trkpt>
      <trkpt lat="44.95864" lon="3.70019">
        <ele>706.2</ele>
        <time>2021-08-07T14:06:15Z</time>
      </trkpt>
      <trkpt lat="44.95855" lon="3.70031">
        <ele>707.5</ele>
        <time>2021-08-07T14:06:17Z</time>
      </trkpt>
      <trkpt lat="44.95846" lon="3.70041">
        <ele>708.3</ele>
        <time>2021-08-07T14:06:19Z</time>
      </trkpt>
      <trkpt lat="44.95836" lon="3.70043">
        <ele>707.1</ele>
        <time>2021-08-07T14:06:21Z</time>
      </trkpt>
      <trkpt lat="44.95831" lon="3.70041">
        <ele>706.1</ele>
        <time>2021-08-07T14:06:22Z</time>
      </trkpt>
      <trkpt lat="44.95821" lon="3.70018">
        <ele>700.1</ele>
        <time>2021-08-07T14:06:25Z</time>
      </trkpt>
      <trkpt lat="44.9582" lon="3.69998">
        <ele>694.8</ele>
        <time>2021-08-07T14:06:27Z</time>
      </trkpt>
      <trkpt lat="44.95816" lon="3.69976">
        <ele>692</ele>
        <time>2021-08-07T14:06:29Z</time>
      </trkpt>
      <trkpt lat="44.95808" lon="3.69955">
        <ele>689.7</ele>
        <time>2021-08-07T14:06:31Z</time>
      </trkpt>
      <trkpt lat="44.95798" lon="3.69935">
        <ele>688.3</ele>
        <time>2021-08-07T14:06:33Z</time>
      </trkpt>
      <trkpt lat="44.95787" lon="3.69918">
        <ele>687.3</ele>
        <time>2021-08-07T14:06:35Z</time>
      </trkpt>
      <trkpt lat="44.95776" lon="3.69902">
        <ele>686.4</ele>
        <time>2021-08-07T14:06:37Z</time>
      </trkpt>
      <trkpt lat="44.95765" lon="3.69888">
        <ele>685.9</ele>
        <time>2021-08-07T14:06:39Z</time>
      </trkpt>
      <trkpt lat="44.95754" lon="3.69877">
        <ele>685.7</ele>
        <time>2021-08-07T14:06:41Z</time>
      </trkpt>
      <trkpt lat="44.95744" lon="3.69866">
        <ele>685</ele>
        <time>2021-08-07T14:06:43Z</time>
      </trkpt>
      <trkpt lat="44.95733" lon="3.69858">
        <ele>684.3</ele>
        <time>2021-08-07T14:06:45Z</time>
      </trkpt>
      <trkpt lat="44.95722" lon="3.69854">
        <ele>684.2</ele>
        <time>2021-08-07T14:06:47Z</time>
      </trkpt>
      <trkpt lat="44.95711" lon="3.69851">
        <ele>684.2</ele>
        <time>2021-08-07T14:06:49Z</time>
      </trkpt>
      <trkpt lat="44.95701" lon="3.69847">
        <ele>684.2</ele>
        <time>2021-08-07T14:06:51Z</time>
      </trkpt>
      <trkpt lat="44.9569" lon="3.69844">
        <ele>684.3</ele>
        <time>2021-08-07T14:06:53Z</time>
      </trkpt>
      <trkpt lat="44.9568" lon="3.69842">
        <ele>684.5</ele>
        <time>2021-08-07T14:06:55Z</time>
      </trkpt>
      <trkpt lat="44.9567" lon="3.69842">
        <ele>685</ele>
        <time>2021-08-07T14:06:57Z</time>
      </trkpt>
      <trkpt lat="44.95661" lon="3.69846">
        <ele>684.9</ele>
        <time>2021-08-07T14:06:59Z</time>
      </trkpt>
      <trkpt lat="44.95653" lon="3.69852">
        <ele>684.5</ele>
        <time>2021-08-07T14:07:01Z</time>
      </trkpt>
      <trkpt lat="44.95646" lon="3.6986">
        <ele>684.5</ele>
        <time>2021-08-07T14:07:03Z</time>
      </trkpt>
      <trkpt lat="44.9564" lon="3.6987">
        <ele>684.9</ele>
        <time>2021-08-07T14:07:05Z</time>
      </trkpt>
      <trkpt lat="44.95636" lon="3.69879">
        <ele>685.3</ele>
        <time>2021-08-07T14:07:07Z</time>
      </trkpt>
      <trkpt lat="44.95632" lon="3.69888">
        <ele>686</ele>
        <time>2021-08-07T14:07:09Z</time>
      </trkpt>
      <trkpt lat="44.95629" lon="3.69896">
        <ele>686.5</ele>
        <time>2021-08-07T14:07:11Z</time>
      </trkpt>
      <trkpt lat="44.95627" lon="3.69903">
        <ele>687</ele>
        <time>2021-08-07T14:07:13Z</time>
      </trkpt>
      <trkpt lat="44.95625" lon="3.69909">
        <ele>687.5</ele>
        <time>2021-08-07T14:07:15Z</time>
      </trkpt>
      <trkpt lat="44.95623" lon="3.69916">
        <ele>688.1</ele>
        <time>2021-08-07T14:07:17Z</time>
      </trkpt>
      <trkpt lat="44.95622" lon="3.69921">
        <ele>688.7</ele>
        <time>2021-08-07T14:07:19Z</time>
      </trkpt>
      <trkpt lat="44.9562" lon="3.69926">
        <ele>689.6</ele>
        <time>2021-08-07T14:07:21Z</time>
      </trkpt>
      <trkpt lat="44.95618" lon="3.69933">
        <ele>690.5</ele>
        <time>2021-08-07T14:07:23Z</time>
      </trkpt>
      <trkpt lat="44.95617" lon="3.6994">
        <ele>691.6</ele>
        <time>2021-08-07T14:07:25Z</time>
      </trkpt>
      <trkpt lat="44.95615" lon="3.69947">
        <ele>692.7</ele>
        <time>2021-08-07T14:07:27Z</time>
      </trkpt>
      <trkpt lat="44.95613" lon="3.69953">
        <ele>693.7</ele>
        <time>2021-08-07T14:07:29Z</time>
      </trkpt>
      <trkpt lat="44.95611" lon="3.69958">
        <ele>694.5</ele>
        <time>2021-08-07T14:07:31Z</time>
      </trkpt>
      <trkpt lat="44.95609" lon="3.69963">
        <ele>695.2</ele>
        <time>2021-08-07T14:07:33Z</time>
      </trkpt>
      <trkpt lat="44.95606" lon="3.69968">
        <ele>695.8</ele>
        <time>2021-08-07T14:07:35Z</time>
      </trkpt>
      <trkpt lat="44.95603" lon="3.69973">
        <ele>696.4</ele>
        <time>2021-08-07T14:07:37Z</time>
      </trkpt>
      <trkpt lat="44.95599" lon="3.69977">
        <ele>696.9</ele>
        <time>2021-08-07T14:07:39Z</time>
      </trkpt>
      <trkpt lat="44.95595" lon="3.69981">
        <ele>697.2</ele>
        <time>2021-08-07T14:07:41Z</time>
      </trkpt>
      <trkpt lat="44.95592" lon="3.69984">
        <ele>697.5</ele>
        <time>2021-08-07T14:07:43Z</time>
      </trkpt>
      <trkpt lat="44.95588" lon="3.69987">
        <ele>697.5</ele>
        <time>2021-08-07T14:07:45Z</time>
      </trkpt>
      <trkpt lat="44.95584" lon="3.69989">
        <ele>697.6</ele>
        <time>2021-08-07T14:07:47Z</time>
      </trkpt>
      <trkpt lat="44.9558" lon="3.69991">
        <ele>697.9</ele>
        <time>2021-08-07T14:07:49Z</time>
      </trkpt>
      <trkpt lat="44.95575" lon="3.69992">
        <ele>698.1</ele>
        <time>2021-08-07T14:07:51Z</time>
      </trkpt>
      <trkpt lat="44.95571" lon="3.69994">
        <ele>698.2</ele>
        <time>2021-08-07T14:07:53Z</time>
      </trkpt>
      <trkpt lat="44.95567" lon="3.69995">
        <ele>698.4</ele>
        <time>2021-08-07T14:07:55Z</time>
      </trkpt>
      <trkpt lat="44.95562" lon="3.69997">
        <ele>698.5</ele>
        <time>2021-08-07T14:07:57Z</time>
      </trkpt>
      <trkpt lat="44.95559" lon="3.69998">
        <ele>698.7</ele>
        <time>2021-08-07T14:07:59Z</time>
      </trkpt>
      <trkpt lat="44.95555" lon="3.7">
        <ele>699</ele>
        <time>2021-08-07T14:08:01Z</time>
      </trkpt>
      <trkpt lat="44.95553" lon="3.70001">
        <ele>699.2</ele>
        <time>2021-08-07T14:08:02Z</time>
      </trkpt>
      <trkpt lat="44.95547" lon="3.70003">
        <ele>699.6</ele>
        <time>2021-08-07T14:08:05Z</time>
      </trkpt>
      <trkpt lat="44.95543" lon="3.70005">
        <ele>699.8</ele>
        <time>2021-08-07T14:08:07Z</time>
      </trkpt>
      <trkpt lat="44.95539" lon="3.70006">
        <ele>700.2</ele>
        <time>2021-08-07T14:08:09Z</time>
      </trkpt>
      <trkpt lat="44.95534" lon="3.70008">
        <ele>700.5</ele>
        <time>2021-08-07T14:08:11Z</time>
      </trkpt>
      <trkpt lat="44.9553" lon="3.7001">
        <ele>701.1</ele>
        <time>2021-08-07T14:08:13Z</time>
      </trkpt>
      <trkpt lat="44.95526" lon="3.70012">
        <ele>701.5</ele>
        <time>2021-08-07T14:08:15Z</time>
      </trkpt>
      <trkpt lat="44.95522" lon="3.70013">
        <ele>701.9</ele>
        <time>2021-08-07T14:08:17Z</time>
      </trkpt>
      <trkpt lat="44.95518" lon="3.70015">
        <ele>702.5</ele>
        <time>2021-08-07T14:08:19Z</time>
      </trkpt>
      <trkpt lat="44.95514" lon="3.70017">
        <ele>703</ele>
        <time>2021-08-07T14:08:21Z</time>
      </trkpt>
      <trkpt lat="44.9551" lon="3.70019">
        <ele>703.5</ele>
        <time>2021-08-07T14:08:23Z</time>
      </trkpt>
      <trkpt lat="44.95506" lon="3.7002">
        <ele>703.9</ele>
        <time>2021-08-07T14:08:25Z</time>
      </trkpt>
      <trkpt lat="44.95501" lon="3.70021">
        <ele>704.4</ele>
        <time>2021-08-07T14:08:27Z</time>
      </trkpt>
      <trkpt lat="44.95497" lon="3.70023">
        <ele>705.5</ele>
        <time>2021-08-07T14:08:29Z</time>
      </trkpt>
      <trkpt lat="44.95492" lon="3.70023">
        <ele>706.8</ele>
        <time>2021-08-07T14:08:31Z</time>
      </trkpt>
      <trkpt lat="44.95486" lon="3.70024">
        <ele>707.9</ele>
        <time>2021-08-07T14:08:33Z</time>
      </trkpt>
      <trkpt lat="44.95481" lon="3.70023">
        <ele>708.7</ele>
        <time>2021-08-07T14:08:35Z</time>
      </trkpt>
      <trkpt lat="44.95476" lon="3.70022">
        <ele>709.6</ele>
        <time>2021-08-07T14:08:37Z</time>
      </trkpt>
      <trkpt lat="44.9547" lon="3.70021">
        <ele>710.4</ele>
        <time>2021-08-07T14:08:39Z</time>
      </trkpt>
      <trkpt lat="44.95465" lon="3.70017">
        <ele>710.7</ele>
        <time>2021-08-07T14:08:41Z</time>
      </trkpt>
      <trkpt lat="44.95461" lon="3.70013">
        <ele>710.8</ele>
        <time>2021-08-07T14:08:43Z</time>
      </trkpt>
      <trkpt lat="44.95457" lon="3.70007">
        <ele>710.7</ele>
        <time>2021-08-07T14:08:45Z</time>
      </trkpt>
      <trkpt lat="44.95453" lon="3.70001">
        <ele>710.6</ele>
        <time>2021-08-07T14:08:47Z</time>
      </trkpt>
      <trkpt lat="44.9545" lon="3.69995">
        <ele>711</ele>
        <time>2021-08-07T14:08:49Z</time>
      </trkpt>
      <trkpt lat="44.95448" lon="3.69989">
        <ele>711.2</ele>
        <time>2021-08-07T14:08:51Z</time>
      </trkpt>
      <trkpt lat="44.95447" lon="3.69983">
        <ele>711.3</ele>
        <time>2021-08-07T14:08:53Z</time>
      </trkpt>
      <trkpt lat="44.95445" lon="3.69976">
        <ele>711.4</ele>
        <time>2021-08-07T14:08:55Z</time>
      </trkpt>
      <trkpt lat="44.95444" lon="3.6997">
        <ele>711.5</ele>
        <time>2021-08-07T14:08:57Z</time>
      </trkpt>
      <trkpt lat="44.95444" lon="3.69962">
        <ele>711.3</ele>
        <time>2021-08-07T14:08:59Z</time>
      </trkpt>
      <trkpt lat="44.95443" lon="3.69956">
        <ele>711.1</ele>
        <time>2021-08-07T14:09:01Z</time>
      </trkpt>
      <trkpt lat="44.95443" lon="3.69949">
        <ele>710.9</ele>
        <time>2021-08-07T14:09:03Z</time>
      </trkpt>
      <trkpt lat="44.95443" lon="3.69943">
        <ele>710.8</ele>
        <time>2021-08-07T14:09:05Z</time>
      </trkpt>
      <trkpt lat="44.95442" lon="3.69938">
        <ele>710.8</ele>
        <time>2021-08-07T14:09:07Z</time>
      </trkpt>
      <trkpt lat="44.95441" lon="3.69931">
        <ele>710.8</ele>
        <time>2021-08-07T14:09:09Z</time>
      </trkpt>
      <trkpt lat="44.9544" lon="3.69926">
        <ele>711</ele>
        <time>2021-08-07T14:09:11Z</time>
      </trkpt>
      <trkpt lat="44.95439" lon="3.69921">
        <ele>711.6</ele>
        <time>2021-08-07T14:09:13Z</time>
      </trkpt>
      <trkpt lat="44.95438" lon="3.69918">
        <ele>711.7</ele>
        <time>2021-08-07T14:09:15Z</time>
      </trkpt>
      <trkpt lat="44.95437" lon="3.69912">
        <ele>711.5</ele>
        <time>2021-08-07T14:09:17Z</time>
      </trkpt>
      <trkpt lat="44.95436" lon="3.69908">
        <ele>711.4</ele>
        <time>2021-08-07T14:09:19Z</time>
      </trkpt>
      <trkpt lat="44.95435" lon="3.69903">
        <ele>711.3</ele>
        <time>2021-08-07T14:09:21Z</time>
      </trkpt>
      <trkpt lat="44.95434" lon="3.69901">
        <ele>711.2</ele>
        <time>2021-08-07T14:09:22Z</time>
      </trkpt>
      <trkpt lat="44.95432" lon="3.69894">
        <ele>711.2</ele>
        <time>2021-08-07T14:09:25Z</time>
      </trkpt>
      <trkpt lat="44.95431" lon="3.69889">
        <ele>710.9</ele>
        <time>2021-08-07T14:09:27Z</time>
      </trkpt>
      <trkpt lat="44.9543" lon="3.69885">
        <ele>710.7</ele>
        <time>2021-08-07T14:09:29Z</time>
      </trkpt>
      <trkpt lat="44.95429" lon="3.69883">
        <ele>710.8</ele>
        <time>2021-08-07T14:09:30Z</time>
      </trkpt>
      <trkpt lat="44.95427" lon="3.69876">
        <ele>710.7</ele>
        <time>2021-08-07T14:09:33Z</time>
      </trkpt>
      <trkpt lat="44.95426" lon="3.69872">
        <ele>710.8</ele>
        <time>2021-08-07T14:09:35Z</time>
      </trkpt>
      <trkpt lat="44.95424" lon="3.69868">
        <ele>710.8</ele>
        <time>2021-08-07T14:09:37Z</time>
      </trkpt>
      <trkpt lat="44.95423" lon="3.69866">
        <ele>710.9</ele>
        <time>2021-08-07T14:09:39Z</time>
      </trkpt>
      <trkpt lat="44.95422" lon="3.69862">
        <ele>710.9</ele>
        <time>2021-08-07T14:09:41Z</time>
      </trkpt>
      <trkpt lat="44.95421" lon="3.69858">
        <ele>710.9</ele>
        <time>2021-08-07T14:09:42Z</time>
      </trkpt>
      <trkpt lat="44.95419" lon="3.69853">
        <ele>710.7</ele>
        <time>2021-08-07T14:09:45Z</time>
      </trkpt>
      <trkpt lat="44.95418" lon="3.69848">
        <ele>710.8</ele>
        <time>2021-08-07T14:09:47Z</time>
      </trkpt>
      <trkpt lat="44.95417" lon="3.69846">
        <ele>711</ele>
        <time>2021-08-07T14:09:49Z</time>
      </trkpt>
      <trkpt lat="44.95416" lon="3.69842">
        <ele>710.9</ele>
        <time>2021-08-07T14:09:51Z</time>
      </trkpt>
      <trkpt lat="44.95414" lon="3.69838">
        <ele>711</ele>
        <time>2021-08-07T14:09:53Z</time>
      </trkpt>
      <trkpt lat="44.95412" lon="3.69834">
        <ele>711.5</ele>
        <time>2021-08-07T14:09:55Z</time>
      </trkpt>
      <trkpt lat="44.95411" lon="3.69832">
        <ele>711.7</ele>
        <time>2021-08-07T14:09:56Z</time>
      </trkpt>
      <trkpt lat="44.95408" lon="3.69827">
        <ele>712.6</ele>
        <time>2021-08-07T14:09:59Z</time>
      </trkpt>
      <trkpt lat="44.95407" lon="3.69824">
        <ele>713.2</ele>
        <time>2021-08-07T14:10:01Z</time>
      </trkpt>
      <trkpt lat="44.95405" lon="3.69822">
        <ele>714</ele>
        <time>2021-08-07T14:10:03Z</time>
      </trkpt>
      <trkpt lat="44.95403" lon="3.69819">
        <ele>714.7</ele>
        <time>2021-08-07T14:10:05Z</time>
      </trkpt>
      <trkpt lat="44.95401" lon="3.69816">
        <ele>715.4</ele>
        <time>2021-08-07T14:10:07Z</time>
      </trkpt>
      <trkpt lat="44.95398" lon="3.69813">
        <ele>716.2</ele>
        <time>2021-08-07T14:10:09Z</time>
      </trkpt>
      <trkpt lat="44.95396" lon="3.69809">
        <ele>717.1</ele>
        <time>2021-08-07T14:10:11Z</time>
      </trkpt>
      <trkpt lat="44.95394" lon="3.69807">
        <ele>717.9</ele>
        <time>2021-08-07T14:10:13Z</time>
      </trkpt>
      <trkpt lat="44.95391" lon="3.69804">
        <ele>718.6</ele>
        <time>2021-08-07T14:10:15Z</time>
      </trkpt>
      <trkpt lat="44.95389" lon="3.69801">
        <ele>719.5</ele>
        <time>2021-08-07T14:10:17Z</time>
      </trkpt>
      <trkpt lat="44.95387" lon="3.69798">
        <ele>720.2</ele>
        <time>2021-08-07T14:10:19Z</time>
      </trkpt>
      <trkpt lat="44.95385" lon="3.69795">
        <ele>720.9</ele>
        <time>2021-08-07T14:10:21Z</time>
      </trkpt>
      <trkpt lat="44.95383" lon="3.69792">
        <ele>721.6</ele>
        <time>2021-08-07T14:10:23Z</time>
      </trkpt>
      <trkpt lat="44.9538" lon="3.6979">
        <ele>722.4</ele>
        <time>2021-08-07T14:10:25Z</time>
      </trkpt>
      <trkpt lat="44.95378" lon="3.69787">
        <ele>723.1</ele>
        <time>2021-08-07T14:10:27Z</time>
      </trkpt>
      <trkpt lat="44.95376" lon="3.69783">
        <ele>723.6</ele>
        <time>2021-08-07T14:10:29Z</time>
      </trkpt>
      <trkpt lat="44.95374" lon="3.6978">
        <ele>724.3</ele>
        <time>2021-08-07T14:10:31Z</time>
      </trkpt>
      <trkpt lat="44.95371" lon="3.69777">
        <ele>725.1</ele>
        <time>2021-08-07T14:10:33Z</time>
      </trkpt>
      <trkpt lat="44.95369" lon="3.69774">
        <ele>725.7</ele>
        <time>2021-08-07T14:10:35Z</time>
      </trkpt>
      <trkpt lat="44.95367" lon="3.69771">
        <ele>726.3</ele>
        <time>2021-08-07T14:10:37Z</time>
      </trkpt>
      <trkpt lat="44.95365" lon="3.69767">
        <ele>726.7</ele>
        <time>2021-08-07T14:10:39Z</time>
      </trkpt>
      <trkpt lat="44.95364" lon="3.69763">
        <ele>726.9</ele>
        <time>2021-08-07T14:10:41Z</time>
      </trkpt>
      <trkpt lat="44.95362" lon="3.6976">
        <ele>727.1</ele>
        <time>2021-08-07T14:10:43Z</time>
      </trkpt>
      <trkpt lat="44.95361" lon="3.69755">
        <ele>727</ele>
        <time>2021-08-07T14:10:45Z</time>
      </trkpt>
      <trkpt lat="44.9536" lon="3.69751">
        <ele>726.8</ele>
        <time>2021-08-07T14:10:47Z</time>
      </trkpt>
      <trkpt lat="44.9536" lon="3.69747">
        <ele>726.6</ele>
        <time>2021-08-07T14:10:49Z</time>
      </trkpt>
      <trkpt lat="44.9536" lon="3.69742">
        <ele>726.6</ele>
        <time>2021-08-07T14:10:51Z</time>
      </trkpt>
      <trkpt lat="44.9536" lon="3.69738">
        <ele>726.3</ele>
        <time>2021-08-07T14:10:53Z</time>
      </trkpt>
      <trkpt lat="44.95361" lon="3.69734">
        <ele>726.1</ele>
        <time>2021-08-07T14:10:55Z</time>
      </trkpt>
      <trkpt lat="44.95361" lon="3.6973">
        <ele>725.8</ele>
        <time>2021-08-07T14:10:57Z</time>
      </trkpt>
      <trkpt lat="44.95362" lon="3.69727">
        <ele>725.3</ele>
        <time>2021-08-07T14:10:59Z</time>
      </trkpt>
      <trkpt lat="44.95363" lon="3.69723">
        <ele>724.7</ele>
        <time>2021-08-07T14:11:01Z</time>
      </trkpt>
      <trkpt lat="44.95364" lon="3.69718">
        <ele>724.2</ele>
        <time>2021-08-07T14:11:03Z</time>
      </trkpt>
      <trkpt lat="44.95364" lon="3.69714">
        <ele>723.9</ele>
        <time>2021-08-07T14:11:05Z</time>
      </trkpt>
      <trkpt lat="44.95365" lon="3.69709">
        <ele>723.1</ele>
        <time>2021-08-07T14:11:07Z</time>
      </trkpt>
      <trkpt lat="44.95366" lon="3.69705">
        <ele>722.8</ele>
        <time>2021-08-07T14:11:09Z</time>
      </trkpt>
      <trkpt lat="44.95367" lon="3.69701">
        <ele>722</ele>
        <time>2021-08-07T14:11:11Z</time>
      </trkpt>
      <trkpt lat="44.95369" lon="3.69697">
        <ele>721.2</ele>
        <time>2021-08-07T14:11:13Z</time>
      </trkpt>
      <trkpt lat="44.95369" lon="3.69693">
        <ele>720.6</ele>
        <time>2021-08-07T14:11:15Z</time>
      </trkpt>
      <trkpt lat="44.9537" lon="3.69689">
        <ele>720.4</ele>
        <time>2021-08-07T14:11:17Z</time>
      </trkpt>
      <trkpt lat="44.9537" lon="3.69685">
        <ele>720</ele>
        <time>2021-08-07T14:11:19Z</time>
      </trkpt>
      <trkpt lat="44.95371" lon="3.69681">
        <ele>719.6</ele>
        <time>2021-08-07T14:11:21Z</time>
      </trkpt>
      <trkpt lat="44.95371" lon="3.69678">
        <ele>719.2</ele>
        <time>2021-08-07T14:11:22Z</time>
      </trkpt>
      <trkpt lat="44.95372" lon="3.69672">
        <ele>718.6</ele>
        <time>2021-08-07T14:11:25Z</time>
      </trkpt>
      <trkpt lat="44.95372" lon="3.69668">
        <ele>718.6</ele>
        <time>2021-08-07T14:11:27Z</time>
      </trkpt>
      <trkpt lat="44.95372" lon="3.69663">
        <ele>717.8</ele>
        <time>2021-08-07T14:11:29Z</time>
      </trkpt>
      <trkpt lat="44.95372" lon="3.69659">
        <ele>716.6</ele>
        <time>2021-08-07T14:11:31Z</time>
      </trkpt>
      <trkpt lat="44.95372" lon="3.69654">
        <ele>715.7</ele>
        <time>2021-08-07T14:11:33Z</time>
      </trkpt>
      <trkpt lat="44.95371" lon="3.6965">
        <ele>714.9</ele>
        <time>2021-08-07T14:11:35Z</time>
      </trkpt>
      <trkpt lat="44.9537" lon="3.69648">
        <ele>714.7</ele>
        <time>2021-08-07T14:11:36Z</time>
      </trkpt>
      <trkpt lat="44.95368" lon="3.69641">
        <ele>714.2</ele>
        <time>2021-08-07T14:11:39Z</time>
      </trkpt>
      <trkpt lat="44.95366" lon="3.69638">
        <ele>714.2</ele>
        <time>2021-08-07T14:11:41Z</time>
      </trkpt>
      <trkpt lat="44.95364" lon="3.69635">
        <ele>714.3</ele>
        <time>2021-08-07T14:11:43Z</time>
      </trkpt>
      <trkpt lat="44.95361" lon="3.69631">
        <ele>714.9</ele>
        <time>2021-08-07T14:11:45Z</time>
      </trkpt>
      <trkpt lat="44.95358" lon="3.69629">
        <ele>715.3</ele>
        <time>2021-08-07T14:11:47Z</time>
      </trkpt>
      <trkpt lat="44.95356" lon="3.69627">
        <ele>715.9</ele>
        <time>2021-08-07T14:11:49Z</time>
      </trkpt>
      <trkpt lat="44.95353" lon="3.69625">
        <ele>716.7</ele>
        <time>2021-08-07T14:11:51Z</time>
      </trkpt>
      <trkpt lat="44.9535" lon="3.69624">
        <ele>717.9</ele>
        <time>2021-08-07T14:11:53Z</time>
      </trkpt>
      <trkpt lat="44.95346" lon="3.69623">
        <ele>719.1</ele>
        <time>2021-08-07T14:11:55Z</time>
      </trkpt>
      <trkpt lat="44.95344" lon="3.69621">
        <ele>719.9</ele>
        <time>2021-08-07T14:11:57Z</time>
      </trkpt>
      <trkpt lat="44.95341" lon="3.6962">
        <ele>720.8</ele>
        <time>2021-08-07T14:11:59Z</time>
      </trkpt>
      <trkpt lat="44.95338" lon="3.69619">
        <ele>721.8</ele>
        <time>2021-08-07T14:12:01Z</time>
      </trkpt>
      <trkpt lat="44.95334" lon="3.69617">
        <ele>722.7</ele>
        <time>2021-08-07T14:12:03Z</time>
      </trkpt>
      <trkpt lat="44.95331" lon="3.69616">
        <ele>723.5</ele>
        <time>2021-08-07T14:12:05Z</time>
      </trkpt>
      <trkpt lat="44.95328" lon="3.69615">
        <ele>724.3</ele>
        <time>2021-08-07T14:12:07Z</time>
      </trkpt>
      <trkpt lat="44.95325" lon="3.69614">
        <ele>725.2</ele>
        <time>2021-08-07T14:12:09Z</time>
      </trkpt>
      <trkpt lat="44.95321" lon="3.69613">
        <ele>726</ele>
        <time>2021-08-07T14:12:11Z</time>
      </trkpt>
      <trkpt lat="44.95318" lon="3.69611">
        <ele>726.9</ele>
        <time>2021-08-07T14:12:13Z</time>
      </trkpt>
      <trkpt lat="44.95315" lon="3.6961">
        <ele>727.7</ele>
        <time>2021-08-07T14:12:15Z</time>
      </trkpt>
      <trkpt lat="44.95311" lon="3.69609">
        <ele>728.4</ele>
        <time>2021-08-07T14:12:17Z</time>
      </trkpt>
      <trkpt lat="44.95308" lon="3.69608">
        <ele>729.1</ele>
        <time>2021-08-07T14:12:19Z</time>
      </trkpt>
      <trkpt lat="44.95304" lon="3.69606">
        <ele>729.6</ele>
        <time>2021-08-07T14:12:21Z</time>
      </trkpt>
      <trkpt lat="44.95301" lon="3.69604">
        <ele>730.2</ele>
        <time>2021-08-07T14:12:23Z</time>
      </trkpt>
      <trkpt lat="44.95298" lon="3.69602">
        <ele>730.5</ele>
        <time>2021-08-07T14:12:25Z</time>
      </trkpt>
      <trkpt lat="44.95295" lon="3.696">
        <ele>731.1</ele>
        <time>2021-08-07T14:12:27Z</time>
      </trkpt>
      <trkpt lat="44.95291" lon="3.69597">
        <ele>731.2</ele>
        <time>2021-08-07T14:12:29Z</time>
      </trkpt>
      <trkpt lat="44.95289" lon="3.69596">
        <ele>731.4</ele>
        <time>2021-08-07T14:12:31Z</time>
      </trkpt>
      <trkpt lat="44.95286" lon="3.69592">
        <ele>731.1</ele>
        <time>2021-08-07T14:12:33Z</time>
      </trkpt>
      <trkpt lat="44.95283" lon="3.6959">
        <ele>731.2</ele>
        <time>2021-08-07T14:12:35Z</time>
      </trkpt>
      <trkpt lat="44.95281" lon="3.69589">
        <ele>731.4</ele>
        <time>2021-08-07T14:12:37Z</time>
      </trkpt>
      <trkpt lat="44.95278" lon="3.69586">
        <ele>731.1</ele>
        <time>2021-08-07T14:12:39Z</time>
      </trkpt>
      <trkpt lat="44.95274" lon="3.69584">
        <ele>731.6</ele>
        <time>2021-08-07T14:12:41Z</time>
      </trkpt>
      <trkpt lat="44.9527" lon="3.69582">
        <ele>732.5</ele>
        <time>2021-08-07T14:12:43Z</time>
      </trkpt>
      <trkpt lat="44.95267" lon="3.6958">
        <ele>733.5</ele>
        <time>2021-08-07T14:12:45Z</time>
      </trkpt>
      <trkpt lat="44.95263" lon="3.6958">
        <ele>734.7</ele>
        <time>2021-08-07T14:12:47Z</time>
      </trkpt>
      <trkpt lat="44.95259" lon="3.69581">
        <ele>735.9</ele>
        <time>2021-08-07T14:12:49Z</time>
      </trkpt>
      <trkpt lat="44.95255" lon="3.69581">
        <ele>737.2</ele>
        <time>2021-08-07T14:12:51Z</time>
      </trkpt>
      <trkpt lat="44.95252" lon="3.69582">
        <ele>738.4</ele>
        <time>2021-08-07T14:12:53Z</time>
      </trkpt>
      <trkpt lat="44.95248" lon="3.69584">
        <ele>739.7</ele>
        <time>2021-08-07T14:12:55Z</time>
      </trkpt>
      <trkpt lat="44.95244" lon="3.69585">
        <ele>741.3</ele>
        <time>2021-08-07T14:12:57Z</time>
      </trkpt>
      <trkpt lat="44.9524" lon="3.69586">
        <ele>742.8</ele>
        <time>2021-08-07T14:12:59Z</time>
      </trkpt>
      <trkpt lat="44.95236" lon="3.69587">
        <ele>744.3</ele>
        <time>2021-08-07T14:13:01Z</time>
      </trkpt>
      <trkpt lat="44.95232" lon="3.69589">
        <ele>746</ele>
        <time>2021-08-07T14:13:03Z</time>
      </trkpt>
      <trkpt lat="44.95228" lon="3.6959">
        <ele>747.5</ele>
        <time>2021-08-07T14:13:05Z</time>
      </trkpt>
      <trkpt lat="44.95224" lon="3.69591">
        <ele>748.8</ele>
        <time>2021-08-07T14:13:07Z</time>
      </trkpt>
      <trkpt lat="44.9522" lon="3.69593">
        <ele>750.3</ele>
        <time>2021-08-07T14:13:09Z</time>
      </trkpt>
      <trkpt lat="44.95216" lon="3.69595">
        <ele>751.9</ele>
        <time>2021-08-07T14:13:11Z</time>
      </trkpt>
      <trkpt lat="44.95212" lon="3.69594">
        <ele>752.9</ele>
        <time>2021-08-07T14:13:13Z</time>
      </trkpt>
      <trkpt lat="44.95207" lon="3.69595">
        <ele>754.4</ele>
        <time>2021-08-07T14:13:15Z</time>
      </trkpt>
      <trkpt lat="44.95203" lon="3.69596">
        <ele>755.7</ele>
        <time>2021-08-07T14:13:17Z</time>
      </trkpt>
      <trkpt lat="44.95198" lon="3.69596">
        <ele>756.9</ele>
        <time>2021-08-07T14:13:19Z</time>
      </trkpt>
      <trkpt lat="44.95193" lon="3.69595">
        <ele>757.5</ele>
        <time>2021-08-07T14:13:21Z</time>
      </trkpt>
      <trkpt lat="44.95189" lon="3.69592">
        <ele>757.7</ele>
        <time>2021-08-07T14:13:23Z</time>
      </trkpt>
      <trkpt lat="44.95185" lon="3.69588">
        <ele>757.6</ele>
        <time>2021-08-07T14:13:25Z</time>
      </trkpt>
      <trkpt lat="44.95181" lon="3.69584">
        <ele>757.4</ele>
        <time>2021-08-07T14:13:27Z</time>
      </trkpt>
      <trkpt lat="44.95178" lon="3.69579">
        <ele>758.3</ele>
        <time>2021-08-07T14:13:29Z</time>
      </trkpt>
      <trkpt lat="44.95176" lon="3.69572">
        <ele>759.3</ele>
        <time>2021-08-07T14:13:31Z</time>
      </trkpt>
      <trkpt lat="44.95176" lon="3.69566">
        <ele>759.7</ele>
        <time>2021-08-07T14:13:33Z</time>
      </trkpt>
      <trkpt lat="44.95177" lon="3.6956">
        <ele>760</ele>
        <time>2021-08-07T14:13:35Z</time>
      </trkpt>
      <trkpt lat="44.95178" lon="3.69555">
        <ele>760.1</ele>
        <time>2021-08-07T14:13:37Z</time>
      </trkpt>
      <trkpt lat="44.95179" lon="3.6955">
        <ele>760.1</ele>
        <time>2021-08-07T14:13:39Z</time>
      </trkpt>
      <trkpt lat="44.95181" lon="3.69545">
        <ele>759.9</ele>
        <time>2021-08-07T14:13:41Z</time>
      </trkpt>
      <trkpt lat="44.95183" lon="3.6954">
        <ele>759.7</ele>
        <time>2021-08-07T14:13:43Z</time>
      </trkpt>
      <trkpt lat="44.95184" lon="3.69535">
        <ele>759.6</ele>
        <time>2021-08-07T14:13:45Z</time>
      </trkpt>
      <trkpt lat="44.95186" lon="3.6953">
        <ele>759.1</ele>
        <time>2021-08-07T14:13:47Z</time>
      </trkpt>
      <trkpt lat="44.95188" lon="3.69526">
        <ele>758.7</ele>
        <time>2021-08-07T14:13:49Z</time>
      </trkpt>
      <trkpt lat="44.9519" lon="3.69522">
        <ele>758.1</ele>
        <time>2021-08-07T14:13:51Z</time>
      </trkpt>
      <trkpt lat="44.95192" lon="3.69518">
        <ele>757.4</ele>
        <time>2021-08-07T14:13:53Z</time>
      </trkpt>
      <trkpt lat="44.95194" lon="3.69514">
        <ele>756.9</ele>
        <time>2021-08-07T14:13:55Z</time>
      </trkpt>
      <trkpt lat="44.95196" lon="3.69509">
        <ele>756.3</ele>
        <time>2021-08-07T14:13:57Z</time>
      </trkpt>
      <trkpt lat="44.95198" lon="3.69505">
        <ele>755.6</ele>
        <time>2021-08-07T14:13:59Z</time>
      </trkpt>
      <trkpt lat="44.952" lon="3.69501">
        <ele>755</ele>
        <time>2021-08-07T14:14:01Z</time>
      </trkpt>
      <trkpt lat="44.95202" lon="3.69497">
        <ele>754</ele>
        <time>2021-08-07T14:14:03Z</time>
      </trkpt>
      <trkpt lat="44.95204" lon="3.69493">
        <ele>753.1</ele>
        <time>2021-08-07T14:14:05Z</time>
      </trkpt>
      <trkpt lat="44.95207" lon="3.69489">
        <ele>752</ele>
        <time>2021-08-07T14:14:07Z</time>
      </trkpt>
      <trkpt lat="44.95209" lon="3.69485">
        <ele>751.2</ele>
        <time>2021-08-07T14:14:09Z</time>
      </trkpt>
      <trkpt lat="44.9521" lon="3.69483">
        <ele>750.7</ele>
        <time>2021-08-07T14:14:10Z</time>
      </trkpt>
      <trkpt lat="44.95214" lon="3.69478">
        <ele>749.1</ele>
        <time>2021-08-07T14:14:13Z</time>
      </trkpt>
      <trkpt lat="44.95216" lon="3.69474">
        <ele>748.2</ele>
        <time>2021-08-07T14:14:15Z</time>
      </trkpt>
      <trkpt lat="44.95218" lon="3.6947">
        <ele>747.4</ele>
        <time>2021-08-07T14:14:17Z</time>
      </trkpt>
      <trkpt lat="44.9522" lon="3.69466">
        <ele>746.7</ele>
        <time>2021-08-07T14:14:19Z</time>
      </trkpt>
      <trkpt lat="44.95222" lon="3.69462">
        <ele>745.9</ele>
        <time>2021-08-07T14:14:21Z</time>
      </trkpt>
      <trkpt lat="44.95222" lon="3.69461">
        <ele>745.6</ele>
        <time>2021-08-07T14:14:22Z</time>
      </trkpt>
      <trkpt lat="44.95225" lon="3.69455">
        <ele>744.6</ele>
        <time>2021-08-07T14:14:25Z</time>
      </trkpt>
      <trkpt lat="44.95226" lon="3.69452">
        <ele>744.3</ele>
        <time>2021-08-07T14:14:27Z</time>
      </trkpt>
      <trkpt lat="44.95226" lon="3.69449">
        <ele>744.1</ele>
        <time>2021-08-07T14:14:29Z</time>
      </trkpt>
      <trkpt lat="44.95227" lon="3.69444">
        <ele>744</ele>
        <time>2021-08-07T14:14:31Z</time>
      </trkpt>
      <trkpt lat="44.95227" lon="3.69439">
        <ele>744</ele>
        <time>2021-08-07T14:14:33Z</time>
      </trkpt>
      <trkpt lat="44.95226" lon="3.69434">
        <ele>744.2</ele>
        <time>2021-08-07T14:14:35Z</time>
      </trkpt>
      <trkpt lat="44.95225" lon="3.6943">
        <ele>744.7</ele>
        <time>2021-08-07T14:14:37Z</time>
      </trkpt>
      <trkpt lat="44.95223" lon="3.69426">
        <ele>745.4</ele>
        <time>2021-08-07T14:14:39Z</time>
      </trkpt>
      <trkpt lat="44.95221" lon="3.69423">
        <ele>746.2</ele>
        <time>2021-08-07T14:14:41Z</time>
      </trkpt>
      <trkpt lat="44.95219" lon="3.69421">
        <ele>746.7</ele>
        <time>2021-08-07T14:14:42Z</time>
      </trkpt>
      <trkpt lat="44.95215" lon="3.69418">
        <ele>748</ele>
        <time>2021-08-07T14:14:45Z</time>
      </trkpt>
      <trkpt lat="44.95212" lon="3.69417">
        <ele>749.1</ele>
        <time>2021-08-07T14:14:47Z</time>
      </trkpt>
      <trkpt lat="44.9521" lon="3.69415">
        <ele>750</ele>
        <time>2021-08-07T14:14:49Z</time>
      </trkpt>
      <trkpt lat="44.95206" lon="3.69415">
        <ele>751</ele>
        <time>2021-08-07T14:14:51Z</time>
      </trkpt>
      <trkpt lat="44.95203" lon="3.69414">
        <ele>752</ele>
        <time>2021-08-07T14:14:53Z</time>
      </trkpt>
      <trkpt lat="44.952" lon="3.69413">
        <ele>753</ele>
        <time>2021-08-07T14:14:55Z</time>
      </trkpt>
      <trkpt lat="44.95199" lon="3.69413">
        <ele>753.5</ele>
        <time>2021-08-07T14:14:56Z</time>
      </trkpt>
      <trkpt lat="44.95194" lon="3.69412">
        <ele>755.1</ele>
        <time>2021-08-07T14:14:59Z</time>
      </trkpt>
      <trkpt lat="44.95191" lon="3.69411">
        <ele>756.1</ele>
        <time>2021-08-07T14:15:01Z</time>
      </trkpt>
      <trkpt lat="44.95188" lon="3.69411">
        <ele>757.2</ele>
        <time>2021-08-07T14:15:03Z</time>
      </trkpt>
      <trkpt lat="44.95185" lon="3.69411">
        <ele>758.2</ele>
        <time>2021-08-07T14:15:05Z</time>
      </trkpt>
      <trkpt lat="44.95182" lon="3.69411">
        <ele>759.3</ele>
        <time>2021-08-07T14:15:07Z</time>
      </trkpt>
      <trkpt lat="44.95179" lon="3.69411">
        <ele>760.4</ele>
        <time>2021-08-07T14:15:09Z</time>
      </trkpt>
      <trkpt lat="44.95176" lon="3.6941">
        <ele>761.5</ele>
        <time>2021-08-07T14:15:11Z</time>
      </trkpt>
      <trkpt lat="44.95173" lon="3.69409">
        <ele>762.6</ele>
        <time>2021-08-07T14:15:13Z</time>
      </trkpt>
      <trkpt lat="44.9517" lon="3.69408">
        <ele>763.7</ele>
        <time>2021-08-07T14:15:15Z</time>
      </trkpt>
      <trkpt lat="44.95167" lon="3.69408">
        <ele>764.6</ele>
        <time>2021-08-07T14:15:17Z</time>
      </trkpt>
      <trkpt lat="44.95165" lon="3.69406">
        <ele>765.9</ele>
        <time>2021-08-07T14:15:19Z</time>
      </trkpt>
      <trkpt lat="44.95162" lon="3.69405">
        <ele>767.5</ele>
        <time>2021-08-07T14:15:21Z</time>
      </trkpt>
      <trkpt lat="44.95159" lon="3.69403">
        <ele>769</ele>
        <time>2021-08-07T14:15:23Z</time>
      </trkpt>
      <trkpt lat="44.95157" lon="3.694">
        <ele>770.4</ele>
        <time>2021-08-07T14:15:25Z</time>
      </trkpt>
      <trkpt lat="44.95154" lon="3.69398">
        <ele>772</ele>
        <time>2021-08-07T14:15:27Z</time>
      </trkpt>
      <trkpt lat="44.95152" lon="3.69395">
        <ele>773.3</ele>
        <time>2021-08-07T14:15:29Z</time>
      </trkpt>
      <trkpt lat="44.9515" lon="3.69391">
        <ele>774.4</ele>
        <time>2021-08-07T14:15:31Z</time>
      </trkpt>
      <trkpt lat="44.95148" lon="3.69386">
        <ele>775.4</ele>
        <time>2021-08-07T14:15:33Z</time>
      </trkpt>
      <trkpt lat="44.95148" lon="3.69381">
        <ele>775.7</ele>
        <time>2021-08-07T14:15:35Z</time>
      </trkpt>
      <trkpt lat="44.95147" lon="3.69376">
        <ele>776.1</ele>
        <time>2021-08-07T14:15:37Z</time>
      </trkpt>
      <trkpt lat="44.95147" lon="3.69371">
        <ele>776.7</ele>
        <time>2021-08-07T14:15:39Z</time>
      </trkpt>
      <trkpt lat="44.95147" lon="3.69366">
        <ele>776.8</ele>
        <time>2021-08-07T14:15:41Z</time>
      </trkpt>
      <trkpt lat="44.95147" lon="3.69362">
        <ele>776.9</ele>
        <time>2021-08-07T14:15:43Z</time>
      </trkpt>
      <trkpt lat="44.95147" lon="3.69357">
        <ele>776.9</ele>
        <time>2021-08-07T14:15:45Z</time>
      </trkpt>
      <trkpt lat="44.95148" lon="3.69352">
        <ele>776.6</ele>
        <time>2021-08-07T14:15:47Z</time>
      </trkpt>
      <trkpt lat="44.95149" lon="3.69349">
        <ele>776</ele>
        <time>2021-08-07T14:15:49Z</time>
      </trkpt>
      <trkpt lat="44.9515" lon="3.69345">
        <ele>775.1</ele>
        <time>2021-08-07T14:15:51Z</time>
      </trkpt>
      <trkpt lat="44.95151" lon="3.69341">
        <ele>774.2</ele>
        <time>2021-08-07T14:15:53Z</time>
      </trkpt>
      <trkpt lat="44.95153" lon="3.69336">
        <ele>773.2</ele>
        <time>2021-08-07T14:15:55Z</time>
      </trkpt>
      <trkpt lat="44.95155" lon="3.69332">
        <ele>772.3</ele>
        <time>2021-08-07T14:15:57Z</time>
      </trkpt>
      <trkpt lat="44.95156" lon="3.69328">
        <ele>771.6</ele>
        <time>2021-08-07T14:15:59Z</time>
      </trkpt>
      <trkpt lat="44.95157" lon="3.69324">
        <ele>770.7</ele>
        <time>2021-08-07T14:16:01Z</time>
      </trkpt>
      <trkpt lat="44.95158" lon="3.69322">
        <ele>770.4</ele>
        <time>2021-08-07T14:16:02Z</time>
      </trkpt>
      <trkpt lat="44.9516" lon="3.69315">
        <ele>769.2</ele>
        <time>2021-08-07T14:16:05Z</time>
      </trkpt>
      <trkpt lat="44.95162" lon="3.69311">
        <ele>768</ele>
        <time>2021-08-07T14:16:07Z</time>
      </trkpt>
      <trkpt lat="44.95163" lon="3.69308">
        <ele>767.2</ele>
        <time>2021-08-07T14:16:09Z</time>
      </trkpt>
      <trkpt lat="44.95165" lon="3.69303">
        <ele>766.2</ele>
        <time>2021-08-07T14:16:11Z</time>
      </trkpt>
      <trkpt lat="44.95166" lon="3.69299">
        <ele>765.5</ele>
        <time>2021-08-07T14:16:13Z</time>
      </trkpt>
      <trkpt lat="44.95167" lon="3.69295">
        <ele>765.1</ele>
        <time>2021-08-07T14:16:15Z</time>
      </trkpt>
      <trkpt lat="44.95168" lon="3.6929">
        <ele>764.6</ele>
        <time>2021-08-07T14:16:17Z</time>
      </trkpt>
      <trkpt lat="44.95169" lon="3.69286">
        <ele>764.5</ele>
        <time>2021-08-07T14:16:19Z</time>
      </trkpt>
      <trkpt lat="44.95169" lon="3.69281">
        <ele>764.5</ele>
        <time>2021-08-07T14:16:21Z</time>
      </trkpt>
      <trkpt lat="44.95169" lon="3.69278">
        <ele>764.5</ele>
        <time>2021-08-07T14:16:22Z</time>
      </trkpt>
      <trkpt lat="44.95169" lon="3.69271">
        <ele>764.7</ele>
        <time>2021-08-07T14:16:25Z</time>
      </trkpt>
      <trkpt lat="44.95169" lon="3.69267">
        <ele>765.1</ele>
        <time>2021-08-07T14:16:27Z</time>
      </trkpt>
      <trkpt lat="44.95168" lon="3.69262">
        <ele>765.8</ele>
        <time>2021-08-07T14:16:29Z</time>
      </trkpt>
      <trkpt lat="44.95167" lon="3.69258">
        <ele>766.5</ele>
        <time>2021-08-07T14:16:31Z</time>
      </trkpt>
      <trkpt lat="44.95166" lon="3.69253">
        <ele>767.6</ele>
        <time>2021-08-07T14:16:33Z</time>
      </trkpt>
      <trkpt lat="44.95165" lon="3.69249">
        <ele>768.2</ele>
        <time>2021-08-07T14:16:35Z</time>
      </trkpt>
      <trkpt lat="44.95164" lon="3.69247">
        <ele>768.2</ele>
        <time>2021-08-07T14:16:36Z</time>
      </trkpt>
      <trkpt lat="44.95162" lon="3.69242">
        <ele>768.4</ele>
        <time>2021-08-07T14:16:39Z</time>
      </trkpt>
      <trkpt lat="44.9516" lon="3.69238">
        <ele>769</ele>
        <time>2021-08-07T14:16:41Z</time>
      </trkpt>
      <trkpt lat="44.9516" lon="3.69234">
        <ele>768.7</ele>
        <time>2021-08-07T14:16:43Z</time>
      </trkpt>
      <trkpt lat="44.9516" lon="3.69234">
        <ele>768.6</ele>
        <time>2021-08-07T14:16:45Z</time>
      </trkpt>
      <trkpt lat="44.9516" lon="3.69235">
        <ele>768.6</ele>
        <time>2021-08-07T14:16:47Z</time>
      </trkpt>
      <trkpt lat="44.9516" lon="3.69235">
        <ele>768.5</ele>
        <time>2021-08-07T14:16:49Z</time>
      </trkpt>
      <trkpt lat="44.9516" lon="3.69235">
        <ele>768.3</ele>
        <time>2021-08-07T14:16:51Z</time>
      </trkpt>
      <trkpt lat="44.95161" lon="3.69234">
        <ele>768</ele>
        <time>2021-08-07T14:16:53Z</time>
      </trkpt>
      <trkpt lat="44.95154" lon="3.69225">
        <ele>770.8</ele>
        <time>2021-08-07T14:21:33Z</time>
      </trkpt>
      <trkpt lat="44.95151" lon="3.6922">
        <ele>771.5</ele>
        <time>2021-08-07T14:21:35Z</time>
      </trkpt>
      <trkpt lat="44.95149" lon="3.69217">
        <ele>772.2</ele>
        <time>2021-08-07T14:21:37Z</time>
      </trkpt>
      <trkpt lat="44.95147" lon="3.69214">
        <ele>773</ele>
        <time>2021-08-07T14:21:39Z</time>
      </trkpt>
      <trkpt lat="44.95145" lon="3.69211">
        <ele>773.7</ele>
        <time>2021-08-07T14:21:41Z</time>
      </trkpt>
      <trkpt lat="44.95144" lon="3.69208">
        <ele>773.8</ele>
        <time>2021-08-07T14:21:43Z</time>
      </trkpt>
      <trkpt lat="44.95143" lon="3.69205">
        <ele>774.2</ele>
        <time>2021-08-07T14:21:45Z</time>
      </trkpt>
      <trkpt lat="44.95141" lon="3.692">
        <ele>774.5</ele>
        <time>2021-08-07T14:21:47Z</time>
      </trkpt>
      <trkpt lat="44.95138" lon="3.69195">
        <ele>775</ele>
        <time>2021-08-07T14:21:49Z</time>
      </trkpt>
      <trkpt lat="44.95135" lon="3.69189">
        <ele>776</ele>
        <time>2021-08-07T14:21:51Z</time>
      </trkpt>
      <trkpt lat="44.95132" lon="3.69181">
        <ele>776</ele>
        <time>2021-08-07T14:21:53Z</time>
      </trkpt>
      <trkpt lat="44.95128" lon="3.69171">
        <ele>776.3</ele>
        <time>2021-08-07T14:21:55Z</time>
      </trkpt>
      <trkpt lat="44.95126" lon="3.69161">
        <ele>776.7</ele>
        <time>2021-08-07T14:21:57Z</time>
      </trkpt>
      <trkpt lat="44.95126" lon="3.6915">
        <ele>777.7</ele>
        <time>2021-08-07T14:21:59Z</time>
      </trkpt>
      <trkpt lat="44.95126" lon="3.69138">
        <ele>777.9</ele>
        <time>2021-08-07T14:22:01Z</time>
      </trkpt>
      <trkpt lat="44.95127" lon="3.69124">
        <ele>777.5</ele>
        <time>2021-08-07T14:22:03Z</time>
      </trkpt>
      <trkpt lat="44.9513" lon="3.69111">
        <ele>776.2</ele>
        <time>2021-08-07T14:22:05Z</time>
      </trkpt>
      <trkpt lat="44.95136" lon="3.691">
        <ele>773.7</ele>
        <time>2021-08-07T14:22:07Z</time>
      </trkpt>
      <trkpt lat="44.95143" lon="3.69089">
        <ele>770.1</ele>
        <time>2021-08-07T14:22:09Z</time>
      </trkpt>
      <trkpt lat="44.95152" lon="3.6908">
        <ele>765.7</ele>
        <time>2021-08-07T14:22:11Z</time>
      </trkpt>
      <trkpt lat="44.95162" lon="3.69073">
        <ele>760.9</ele>
        <time>2021-08-07T14:22:13Z</time>
      </trkpt>
      <trkpt lat="44.95172" lon="3.69065">
        <ele>755.4</ele>
        <time>2021-08-07T14:22:15Z</time>
      </trkpt>
      <trkpt lat="44.9518" lon="3.69057">
        <ele>749.8</ele>
        <time>2021-08-07T14:22:17Z</time>
      </trkpt>
      <trkpt lat="44.95187" lon="3.69045">
        <ele>745.5</ele>
        <time>2021-08-07T14:22:19Z</time>
      </trkpt>
      <trkpt lat="44.9519" lon="3.69033">
        <ele>743.5</ele>
        <time>2021-08-07T14:22:21Z</time>
      </trkpt>
      <trkpt lat="44.95189" lon="3.69018">
        <ele>743.9</ele>
        <time>2021-08-07T14:22:23Z</time>
      </trkpt>
      <trkpt lat="44.95186" lon="3.69003">
        <ele>746.2</ele>
        <time>2021-08-07T14:22:25Z</time>
      </trkpt>
      <trkpt lat="44.95182" lon="3.68987">
        <ele>746.3</ele>
        <time>2021-08-07T14:22:27Z</time>
      </trkpt>
      <trkpt lat="44.95177" lon="3.68971">
        <ele>746.4</ele>
        <time>2021-08-07T14:22:29Z</time>
      </trkpt>
      <trkpt lat="44.95173" lon="3.68956">
        <ele>745.7</ele>
        <time>2021-08-07T14:22:31Z</time>
      </trkpt>
      <trkpt lat="44.95168" lon="3.68939">
        <ele>744.7</ele>
        <time>2021-08-07T14:22:33Z</time>
      </trkpt>
      <trkpt lat="44.95163" lon="3.68923">
        <ele>743.4</ele>
        <time>2021-08-07T14:22:35Z</time>
      </trkpt>
      <trkpt lat="44.95159" lon="3.68907">
        <ele>740.5</ele>
        <time>2021-08-07T14:22:37Z</time>
      </trkpt>
      <trkpt lat="44.95154" lon="3.6889">
        <ele>737.3</ele>
        <time>2021-08-07T14:22:39Z</time>
      </trkpt>
      <trkpt lat="44.9515" lon="3.68875">
        <ele>733.9</ele>
        <time>2021-08-07T14:22:41Z</time>
      </trkpt>
      <trkpt lat="44.95148" lon="3.68867">
        <ele>732.3</ele>
        <time>2021-08-07T14:22:42Z</time>
      </trkpt>
      <trkpt lat="44.95141" lon="3.68845">
        <ele>728</ele>
        <time>2021-08-07T14:22:45Z</time>
      </trkpt>
      <trkpt lat="44.95135" lon="3.68834">
        <ele>726.7</ele>
        <time>2021-08-07T14:22:47Z</time>
      </trkpt>
      <trkpt lat="44.95125" lon="3.68827">
        <ele>728</ele>
        <time>2021-08-07T14:22:49Z</time>
      </trkpt>
      <trkpt lat="44.95114" lon="3.68823">
        <ele>731.2</ele>
        <time>2021-08-07T14:22:51Z</time>
      </trkpt>
      <trkpt lat="44.95101" lon="3.68823">
        <ele>736.2</ele>
        <time>2021-08-07T14:22:53Z</time>
      </trkpt>
      <trkpt lat="44.95089" lon="3.68826">
        <ele>742.4</ele>
        <time>2021-08-07T14:22:55Z</time>
      </trkpt>
      <trkpt lat="44.95078" lon="3.68832">
        <ele>748.9</ele>
        <time>2021-08-07T14:22:57Z</time>
      </trkpt>
      <trkpt lat="44.95065" lon="3.68835">
        <ele>755</ele>
        <time>2021-08-07T14:22:59Z</time>
      </trkpt>
      <trkpt lat="44.95054" lon="3.68831">
        <ele>758.2</ele>
        <time>2021-08-07T14:23:01Z</time>
      </trkpt>
      <trkpt lat="44.9505" lon="3.68828">
        <ele>759.4</ele>
        <time>2021-08-07T14:23:02Z</time>
      </trkpt>
      <trkpt lat="44.95042" lon="3.68816">
        <ele>758.5</ele>
        <time>2021-08-07T14:23:05Z</time>
      </trkpt>
      <trkpt lat="44.95035" lon="3.68808">
        <ele>758</ele>
        <time>2021-08-07T14:23:07Z</time>
      </trkpt>
      <trkpt lat="44.95031" lon="3.68799">
        <ele>756.6</ele>
        <time>2021-08-07T14:23:09Z</time>
      </trkpt>
      <trkpt lat="44.95027" lon="3.68787">
        <ele>753.8</ele>
        <time>2021-08-07T14:23:11Z</time>
      </trkpt>
      <trkpt lat="44.95022" lon="3.68781">
        <ele>753.5</ele>
        <time>2021-08-07T14:23:13Z</time>
      </trkpt>
      <trkpt lat="44.9502" lon="3.68771">
        <ele>750.8</ele>
        <time>2021-08-07T14:23:15Z</time>
      </trkpt>
      <trkpt lat="44.95019" lon="3.68766">
        <ele>749.3</ele>
        <time>2021-08-07T14:23:16Z</time>
      </trkpt>
      <trkpt lat="44.95016" lon="3.68752">
        <ele>745.1</ele>
        <time>2021-08-07T14:23:19Z</time>
      </trkpt>
      <trkpt lat="44.95013" lon="3.68743">
        <ele>743</ele>
        <time>2021-08-07T14:23:21Z</time>
      </trkpt>
      <trkpt lat="44.95009" lon="3.68735">
        <ele>741.5</ele>
        <time>2021-08-07T14:23:23Z</time>
      </trkpt>
      <trkpt lat="44.95003" lon="3.6873">
        <ele>741.9</ele>
        <time>2021-08-07T14:23:25Z</time>
      </trkpt>
      <trkpt lat="44.94997" lon="3.68726">
        <ele>742.5</ele>
        <time>2021-08-07T14:23:27Z</time>
      </trkpt>
      <trkpt lat="44.94992" lon="3.68722">
        <ele>744</ele>
        <time>2021-08-07T14:23:29Z</time>
      </trkpt>
      <trkpt lat="44.94985" lon="3.68718">
        <ele>745.7</ele>
        <time>2021-08-07T14:23:31Z</time>
      </trkpt>
      <trkpt lat="44.94979" lon="3.68714">
        <ele>747.4</ele>
        <time>2021-08-07T14:23:33Z</time>
      </trkpt>
      <trkpt lat="44.94973" lon="3.6871">
        <ele>749</ele>
        <time>2021-08-07T14:23:35Z</time>
      </trkpt>
      <trkpt lat="44.94967" lon="3.68706">
        <ele>750.5</ele>
        <time>2021-08-07T14:23:37Z</time>
      </trkpt>
      <trkpt lat="44.94961" lon="3.687">
        <ele>751.4</ele>
        <time>2021-08-07T14:23:39Z</time>
      </trkpt>
      <trkpt lat="44.94956" lon="3.68696">
        <ele>752.6</ele>
        <time>2021-08-07T14:23:41Z</time>
      </trkpt>
      <trkpt lat="44.94953" lon="3.68693">
        <ele>752.8</ele>
        <time>2021-08-07T14:23:42Z</time>
      </trkpt>
      <trkpt lat="44.94947" lon="3.68684">
        <ele>752.7</ele>
        <time>2021-08-07T14:23:45Z</time>
      </trkpt>
      <trkpt lat="44.94943" lon="3.68676">
        <ele>752.2</ele>
        <time>2021-08-07T14:23:47Z</time>
      </trkpt>
      <trkpt lat="44.94938" lon="3.68669">
        <ele>752</ele>
        <time>2021-08-07T14:23:49Z</time>
      </trkpt>
      <trkpt lat="44.94934" lon="3.68662">
        <ele>751.4</ele>
        <time>2021-08-07T14:23:51Z</time>
      </trkpt>
      <trkpt lat="44.9493" lon="3.68653">
        <ele>750.8</ele>
        <time>2021-08-07T14:23:53Z</time>
      </trkpt>
      <trkpt lat="44.94927" lon="3.68645">
        <ele>749.8</ele>
        <time>2021-08-07T14:23:55Z</time>
      </trkpt>
      <trkpt lat="44.94923" lon="3.68638">
        <ele>749.4</ele>
        <time>2021-08-07T14:23:57Z</time>
      </trkpt>
      <trkpt lat="44.9492" lon="3.68632">
        <ele>749.2</ele>
        <time>2021-08-07T14:23:59Z</time>
      </trkpt>
      <trkpt lat="44.94915" lon="3.68625">
        <ele>749.1</ele>
        <time>2021-08-07T14:24:01Z</time>
      </trkpt>
      <trkpt lat="44.9491" lon="3.6862">
        <ele>748.9</ele>
        <time>2021-08-07T14:24:03Z</time>
      </trkpt>
      <trkpt lat="44.94905" lon="3.68615">
        <ele>749.3</ele>
        <time>2021-08-07T14:24:05Z</time>
      </trkpt>
      <trkpt lat="44.94899" lon="3.6861">
        <ele>749.4</ele>
        <time>2021-08-07T14:24:07Z</time>
      </trkpt>
      <trkpt lat="44.94893" lon="3.68607">
        <ele>750.2</ele>
        <time>2021-08-07T14:24:09Z</time>
      </trkpt>
      <trkpt lat="44.94889" lon="3.68602">
        <ele>750</ele>
        <time>2021-08-07T14:24:11Z</time>
      </trkpt>
      <trkpt lat="44.94883" lon="3.68596">
        <ele>749.6</ele>
        <time>2021-08-07T14:24:13Z</time>
      </trkpt>
      <trkpt lat="44.9488" lon="3.68591">
        <ele>748.6</ele>
        <time>2021-08-07T14:24:15Z</time>
      </trkpt>
      <trkpt lat="44.94876" lon="3.68583">
        <ele>747.1</ele>
        <time>2021-08-07T14:24:17Z</time>
      </trkpt>
      <trkpt lat="44.94874" lon="3.68576">
        <ele>745.2</ele>
        <time>2021-08-07T14:24:19Z</time>
      </trkpt>
      <trkpt lat="44.94871" lon="3.68569">
        <ele>743.6</ele>
        <time>2021-08-07T14:24:21Z</time>
      </trkpt>
      <trkpt lat="44.9487" lon="3.68566">
        <ele>742.9</ele>
        <time>2021-08-07T14:24:22Z</time>
      </trkpt>
      <trkpt lat="44.94865" lon="3.68557">
        <ele>741.1</ele>
        <time>2021-08-07T14:24:25Z</time>
      </trkpt>
      <trkpt lat="44.94862" lon="3.68551">
        <ele>739.8</ele>
        <time>2021-08-07T14:24:27Z</time>
      </trkpt>
      <trkpt lat="44.94859" lon="3.68546">
        <ele>739</ele>
        <time>2021-08-07T14:24:29Z</time>
      </trkpt>
      <trkpt lat="44.94854" lon="3.68541">
        <ele>738.4</ele>
        <time>2021-08-07T14:24:31Z</time>
      </trkpt>
      <trkpt lat="44.94849" lon="3.68538">
        <ele>738.4</ele>
        <time>2021-08-07T14:24:33Z</time>
      </trkpt>
      <trkpt lat="44.94844" lon="3.68537">
        <ele>739.3</ele>
        <time>2021-08-07T14:24:35Z</time>
      </trkpt>
      <trkpt lat="44.94839" lon="3.68537">
        <ele>740.9</ele>
        <time>2021-08-07T14:24:37Z</time>
      </trkpt>
      <trkpt lat="44.94833" lon="3.68539">
        <ele>743.1</ele>
        <time>2021-08-07T14:24:39Z</time>
      </trkpt>
      <trkpt lat="44.94826" lon="3.68541">
        <ele>744.2</ele>
        <time>2021-08-07T14:24:41Z</time>
      </trkpt>
      <trkpt lat="44.94823" lon="3.68542">
        <ele>744.7</ele>
        <time>2021-08-07T14:24:42Z</time>
      </trkpt>
      <trkpt lat="44.94815" lon="3.68544">
        <ele>746.1</ele>
        <time>2021-08-07T14:24:45Z</time>
      </trkpt>
      <trkpt lat="44.9481" lon="3.68544">
        <ele>746.7</ele>
        <time>2021-08-07T14:24:47Z</time>
      </trkpt>
      <trkpt lat="44.94805" lon="3.68544">
        <ele>747</ele>
        <time>2021-08-07T14:24:49Z</time>
      </trkpt>
      <trkpt lat="44.94799" lon="3.68544">
        <ele>747.3</ele>
        <time>2021-08-07T14:24:51Z</time>
      </trkpt>
      <trkpt lat="44.94794" lon="3.68543">
        <ele>747.3</ele>
        <time>2021-08-07T14:24:53Z</time>
      </trkpt>
      <trkpt lat="44.94787" lon="3.68543">
        <ele>747.7</ele>
        <time>2021-08-07T14:24:55Z</time>
      </trkpt>
      <trkpt lat="44.94781" lon="3.68543">
        <ele>748</ele>
        <time>2021-08-07T14:24:57Z</time>
      </trkpt>
      <trkpt lat="44.94776" lon="3.68544">
        <ele>748.8</ele>
        <time>2021-08-07T14:24:59Z</time>
      </trkpt>
      <trkpt lat="44.9477" lon="3.68545">
        <ele>749.7</ele>
        <time>2021-08-07T14:25:01Z</time>
      </trkpt>
      <trkpt lat="44.94764" lon="3.68547">
        <ele>750.7</ele>
        <time>2021-08-07T14:25:03Z</time>
      </trkpt>
      <trkpt lat="44.94758" lon="3.68548">
        <ele>751.4</ele>
        <time>2021-08-07T14:25:05Z</time>
      </trkpt>
      <trkpt lat="44.94753" lon="3.68548">
        <ele>751.9</ele>
        <time>2021-08-07T14:25:07Z</time>
      </trkpt>
      <trkpt lat="44.94748" lon="3.6855">
        <ele>752.9</ele>
        <time>2021-08-07T14:25:09Z</time>
      </trkpt>
      <trkpt lat="44.94742" lon="3.68552">
        <ele>754.2</ele>
        <time>2021-08-07T14:25:11Z</time>
      </trkpt>
      <trkpt lat="44.94737" lon="3.68555">
        <ele>755.4</ele>
        <time>2021-08-07T14:25:13Z</time>
      </trkpt>
      <trkpt lat="44.94732" lon="3.68558">
        <ele>756.6</ele>
        <time>2021-08-07T14:25:15Z</time>
      </trkpt>
      <trkpt lat="44.94727" lon="3.68562">
        <ele>757.8</ele>
        <time>2021-08-07T14:25:17Z</time>
      </trkpt>
      <trkpt lat="44.94722" lon="3.68567">
        <ele>758.9</ele>
        <time>2021-08-07T14:25:19Z</time>
      </trkpt>
      <trkpt lat="44.94717" lon="3.68571">
        <ele>759.7</ele>
        <time>2021-08-07T14:25:21Z</time>
      </trkpt>
      <trkpt lat="44.94713" lon="3.68576">
        <ele>760.3</ele>
        <time>2021-08-07T14:25:23Z</time>
      </trkpt>
      <trkpt lat="44.94708" lon="3.6858">
        <ele>760.7</ele>
        <time>2021-08-07T14:25:25Z</time>
      </trkpt>
      <trkpt lat="44.94704" lon="3.68584">
        <ele>761</ele>
        <time>2021-08-07T14:25:27Z</time>
      </trkpt>
      <trkpt lat="44.94699" lon="3.68589">
        <ele>762.3</ele>
        <time>2021-08-07T14:25:29Z</time>
      </trkpt>
      <trkpt lat="44.94693" lon="3.68592">
        <ele>763.2</ele>
        <time>2021-08-07T14:25:31Z</time>
      </trkpt>
      <trkpt lat="44.94689" lon="3.68597">
        <ele>764.3</ele>
        <time>2021-08-07T14:25:33Z</time>
      </trkpt>
      <trkpt lat="44.94684" lon="3.68602">
        <ele>765.4</ele>
        <time>2021-08-07T14:25:35Z</time>
      </trkpt>
      <trkpt lat="44.9468" lon="3.68606">
        <ele>766.4</ele>
        <time>2021-08-07T14:25:37Z</time>
      </trkpt>
      <trkpt lat="44.94676" lon="3.68611">
        <ele>767.4</ele>
        <time>2021-08-07T14:25:39Z</time>
      </trkpt>
      <trkpt lat="44.94673" lon="3.68616">
        <ele>768.2</ele>
        <time>2021-08-07T14:25:41Z</time>
      </trkpt>
      <trkpt lat="44.94669" lon="3.68619">
        <ele>768.7</ele>
        <time>2021-08-07T14:25:43Z</time>
      </trkpt>
      <trkpt lat="44.94664" lon="3.68623">
        <ele>770.5</ele>
        <time>2021-08-07T14:25:45Z</time>
      </trkpt>
      <trkpt lat="44.9466" lon="3.68627">
        <ele>773.2</ele>
        <time>2021-08-07T14:25:47Z</time>
      </trkpt>
      <trkpt lat="44.94654" lon="3.68628">
        <ele>776</ele>
        <time>2021-08-07T14:25:49Z</time>
      </trkpt>
      <trkpt lat="44.94647" lon="3.68627">
        <ele>778.3</ele>
        <time>2021-08-07T14:25:51Z</time>
      </trkpt>
      <trkpt lat="44.94642" lon="3.68622">
        <ele>779.4</ele>
        <time>2021-08-07T14:25:53Z</time>
      </trkpt>
      <trkpt lat="44.94639" lon="3.68613">
        <ele>779.2</ele>
        <time>2021-08-07T14:25:55Z</time>
      </trkpt>
      <trkpt lat="44.94638" lon="3.68605">
        <ele>778</ele>
        <time>2021-08-07T14:25:57Z</time>
      </trkpt>
      <trkpt lat="44.94639" lon="3.68596">
        <ele>775.7</ele>
        <time>2021-08-07T14:25:59Z</time>
      </trkpt>
      <trkpt lat="44.94639" lon="3.68588">
        <ele>773.9</ele>
        <time>2021-08-07T14:26:01Z</time>
      </trkpt>
      <trkpt lat="44.94641" lon="3.68583">
        <ele>772.1</ele>
        <time>2021-08-07T14:26:02Z</time>
      </trkpt>
      <trkpt lat="44.94646" lon="3.6857">
        <ele>771.3</ele>
        <time>2021-08-07T14:26:05Z</time>
      </trkpt>
      <trkpt lat="44.94649" lon="3.68561">
        <ele>771</ele>
        <time>2021-08-07T14:26:07Z</time>
      </trkpt>
      <trkpt lat="44.94651" lon="3.68552">
        <ele>770.9</ele>
        <time>2021-08-07T14:26:09Z</time>
      </trkpt>
      <trkpt lat="44.94654" lon="3.68543">
        <ele>770.5</ele>
        <time>2021-08-07T14:26:11Z</time>
      </trkpt>
      <trkpt lat="44.94656" lon="3.68534">
        <ele>770.3</ele>
        <time>2021-08-07T14:26:13Z</time>
      </trkpt>
      <trkpt lat="44.94659" lon="3.68525">
        <ele>769.6</ele>
        <time>2021-08-07T14:26:15Z</time>
      </trkpt>
      <trkpt lat="44.94661" lon="3.68516">
        <ele>769.6</ele>
        <time>2021-08-07T14:26:17Z</time>
      </trkpt>
      <trkpt lat="44.94662" lon="3.68506">
        <ele>770.1</ele>
        <time>2021-08-07T14:26:19Z</time>
      </trkpt>
      <trkpt lat="44.94665" lon="3.68497">
        <ele>769.7</ele>
        <time>2021-08-07T14:26:21Z</time>
      </trkpt>
      <trkpt lat="44.94666" lon="3.68488">
        <ele>771.2</ele>
        <time>2021-08-07T14:26:23Z</time>
      </trkpt>
      <trkpt lat="44.94668" lon="3.68482">
        <ele>771.9</ele>
        <time>2021-08-07T14:26:25Z</time>
      </trkpt>
      <trkpt lat="44.9467" lon="3.68474">
        <ele>772.9</ele>
        <time>2021-08-07T14:26:27Z</time>
      </trkpt>
      <trkpt lat="44.94672" lon="3.68466">
        <ele>773.7</ele>
        <time>2021-08-07T14:26:29Z</time>
      </trkpt>
      <trkpt lat="44.94674" lon="3.68459">
        <ele>774.5</ele>
        <time>2021-08-07T14:26:31Z</time>
      </trkpt>
      <trkpt lat="44.94676" lon="3.68451">
        <ele>775.3</ele>
        <time>2021-08-07T14:26:33Z</time>
      </trkpt>
      <trkpt lat="44.94679" lon="3.68445">
        <ele>775.4</ele>
        <time>2021-08-07T14:26:35Z</time>
      </trkpt>
      <trkpt lat="44.9468" lon="3.68441">
        <ele>775.8</ele>
        <time>2021-08-07T14:26:36Z</time>
      </trkpt>
      <trkpt lat="44.94683" lon="3.68432">
        <ele>776.2</ele>
        <time>2021-08-07T14:26:39Z</time>
      </trkpt>
      <trkpt lat="44.94685" lon="3.68425">
        <ele>776.4</ele>
        <time>2021-08-07T14:26:41Z</time>
      </trkpt>
      <trkpt lat="44.94688" lon="3.68419">
        <ele>776.1</ele>
        <time>2021-08-07T14:26:43Z</time>
      </trkpt>
      <trkpt lat="44.94691" lon="3.68413">
        <ele>775.8</ele>
        <time>2021-08-07T14:26:45Z</time>
      </trkpt>
      <trkpt lat="44.94694" lon="3.68408">
        <ele>775.2</ele>
        <time>2021-08-07T14:26:47Z</time>
      </trkpt>
      <trkpt lat="44.94696" lon="3.68402">
        <ele>775.4</ele>
        <time>2021-08-07T14:26:49Z</time>
      </trkpt>
      <trkpt lat="44.947" lon="3.68397">
        <ele>774.7</ele>
        <time>2021-08-07T14:26:51Z</time>
      </trkpt>
      <trkpt lat="44.94702" lon="3.68391">
        <ele>774.6</ele>
        <time>2021-08-07T14:26:53Z</time>
      </trkpt>
      <trkpt lat="44.94707" lon="3.68387">
        <ele>773.1</ele>
        <time>2021-08-07T14:26:55Z</time>
      </trkpt>
      <trkpt lat="44.94711" lon="3.68383">
        <ele>772</ele>
        <time>2021-08-07T14:26:57Z</time>
      </trkpt>
      <trkpt lat="44.94715" lon="3.68378">
        <ele>771.1</ele>
        <time>2021-08-07T14:26:59Z</time>
      </trkpt>
      <trkpt lat="44.94718" lon="3.68374">
        <ele>770.5</ele>
        <time>2021-08-07T14:27:01Z</time>
      </trkpt>
      <trkpt lat="44.94722" lon="3.6837">
        <ele>769.3</ele>
        <time>2021-08-07T14:27:03Z</time>
      </trkpt>
      <trkpt lat="44.94726" lon="3.68365">
        <ele>768.6</ele>
        <time>2021-08-07T14:27:05Z</time>
      </trkpt>
      <trkpt lat="44.9473" lon="3.68361">
        <ele>767.5</ele>
        <time>2021-08-07T14:27:07Z</time>
      </trkpt>
      <trkpt lat="44.94734" lon="3.68356">
        <ele>766.3</ele>
        <time>2021-08-07T14:27:09Z</time>
      </trkpt>
      <trkpt lat="44.94738" lon="3.68352">
        <ele>765.6</ele>
        <time>2021-08-07T14:27:11Z</time>
      </trkpt>
      <trkpt lat="44.94741" lon="3.68348">
        <ele>764.8</ele>
        <time>2021-08-07T14:27:13Z</time>
      </trkpt>
      <trkpt lat="44.94744" lon="3.68344">
        <ele>764.3</ele>
        <time>2021-08-07T14:27:15Z</time>
      </trkpt>
      <trkpt lat="44.94748" lon="3.68341">
        <ele>763.2</ele>
        <time>2021-08-07T14:27:17Z</time>
      </trkpt>
      <trkpt lat="44.94752" lon="3.68336">
        <ele>762.3</ele>
        <time>2021-08-07T14:27:19Z</time>
      </trkpt>
      <trkpt lat="44.94755" lon="3.68332">
        <ele>761.8</ele>
        <time>2021-08-07T14:27:21Z</time>
      </trkpt>
      <trkpt lat="44.94758" lon="3.68328">
        <ele>761.1</ele>
        <time>2021-08-07T14:27:23Z</time>
      </trkpt>
      <trkpt lat="44.9476" lon="3.68322">
        <ele>760.6</ele>
        <time>2021-08-07T14:27:25Z</time>
      </trkpt>
      <trkpt lat="44.9476" lon="3.68317">
        <ele>760.6</ele>
        <time>2021-08-07T14:27:27Z</time>
      </trkpt>
      <trkpt lat="44.9476" lon="3.68312">
        <ele>761.2</ele>
        <time>2021-08-07T14:27:29Z</time>
      </trkpt>
      <trkpt lat="44.94759" lon="3.68306">
        <ele>761.7</ele>
        <time>2021-08-07T14:27:31Z</time>
      </trkpt>
      <trkpt lat="44.94758" lon="3.68301">
        <ele>762.6</ele>
        <time>2021-08-07T14:27:33Z</time>
      </trkpt>
      <trkpt lat="44.94756" lon="3.68295">
        <ele>763.7</ele>
        <time>2021-08-07T14:27:35Z</time>
      </trkpt>
      <trkpt lat="44.94754" lon="3.6829">
        <ele>764.9</ele>
        <time>2021-08-07T14:27:37Z</time>
      </trkpt>
      <trkpt lat="44.94752" lon="3.68284">
        <ele>766</ele>
        <time>2021-08-07T14:27:39Z</time>
      </trkpt>
      <trkpt lat="44.9475" lon="3.68279">
        <ele>767.3</ele>
        <time>2021-08-07T14:27:41Z</time>
      </trkpt>
      <trkpt lat="44.94749" lon="3.68276">
        <ele>768</ele>
        <time>2021-08-07T14:27:42Z</time>
      </trkpt>
      <trkpt lat="44.94746" lon="3.68268">
        <ele>770.1</ele>
        <time>2021-08-07T14:27:45Z</time>
      </trkpt>
      <trkpt lat="44.94745" lon="3.68263">
        <ele>771.2</ele>
        <time>2021-08-07T14:27:47Z</time>
      </trkpt>
      <trkpt lat="44.94742" lon="3.68258">
        <ele>772.9</ele>
        <time>2021-08-07T14:27:49Z</time>
      </trkpt>
      <trkpt lat="44.94741" lon="3.68253">
        <ele>773.9</ele>
        <time>2021-08-07T14:27:51Z</time>
      </trkpt>
      <trkpt lat="44.9474" lon="3.68248">
        <ele>775</ele>
        <time>2021-08-07T14:27:53Z</time>
      </trkpt>
      <trkpt lat="44.94738" lon="3.68242">
        <ele>775.9</ele>
        <time>2021-08-07T14:27:55Z</time>
      </trkpt>
      <trkpt lat="44.94737" lon="3.68237">
        <ele>776.8</ele>
        <time>2021-08-07T14:27:57Z</time>
      </trkpt>
      <trkpt lat="44.94736" lon="3.68232">
        <ele>777.7</ele>
        <time>2021-08-07T14:27:59Z</time>
      </trkpt>
      <trkpt lat="44.94735" lon="3.68228">
        <ele>778</ele>
        <time>2021-08-07T14:28:01Z</time>
      </trkpt>
      <trkpt lat="44.94735" lon="3.68224">
        <ele>778.3</ele>
        <time>2021-08-07T14:28:02Z</time>
      </trkpt>
      <trkpt lat="44.94735" lon="3.68216">
        <ele>778.5</ele>
        <time>2021-08-07T14:28:05Z</time>
      </trkpt>
      <trkpt lat="44.94735" lon="3.6821">
        <ele>778.6</ele>
        <time>2021-08-07T14:28:07Z</time>
      </trkpt>
      <trkpt lat="44.94735" lon="3.68205">
        <ele>778.5</ele>
        <time>2021-08-07T14:28:09Z</time>
      </trkpt>
      <trkpt lat="44.94736" lon="3.682">
        <ele>778.4</ele>
        <time>2021-08-07T14:28:11Z</time>
      </trkpt>
      <trkpt lat="44.94736" lon="3.68194">
        <ele>778.2</ele>
        <time>2021-08-07T14:28:13Z</time>
      </trkpt>
      <trkpt lat="44.94736" lon="3.68189">
        <ele>778.4</ele>
        <time>2021-08-07T14:28:15Z</time>
      </trkpt>
      <trkpt lat="44.94737" lon="3.68186">
        <ele>778.1</ele>
        <time>2021-08-07T14:28:16Z</time>
      </trkpt>
      <trkpt lat="44.94736" lon="3.68179">
        <ele>778.9</ele>
        <time>2021-08-07T14:28:19Z</time>
      </trkpt>
      <trkpt lat="44.94737" lon="3.68174">
        <ele>778.3</ele>
        <time>2021-08-07T14:28:21Z</time>
      </trkpt>
      <trkpt lat="44.94737" lon="3.68168">
        <ele>778.6</ele>
        <time>2021-08-07T14:28:23Z</time>
      </trkpt>
      <trkpt lat="44.94737" lon="3.68163">
        <ele>779</ele>
        <time>2021-08-07T14:28:25Z</time>
      </trkpt>
      <trkpt lat="44.94737" lon="3.68157">
        <ele>779.7</ele>
        <time>2021-08-07T14:28:27Z</time>
      </trkpt>
      <trkpt lat="44.94736" lon="3.68152">
        <ele>780.4</ele>
        <time>2021-08-07T14:28:29Z</time>
      </trkpt>
      <trkpt lat="44.94736" lon="3.68146">
        <ele>781.1</ele>
        <time>2021-08-07T14:28:31Z</time>
      </trkpt>
      <trkpt lat="44.94735" lon="3.68141">
        <ele>782</ele>
        <time>2021-08-07T14:28:33Z</time>
      </trkpt>
      <trkpt lat="44.94734" lon="3.68136">
        <ele>783</ele>
        <time>2021-08-07T14:28:35Z</time>
      </trkpt>
      <trkpt lat="44.94734" lon="3.68131">
        <ele>783.6</ele>
        <time>2021-08-07T14:28:37Z</time>
      </trkpt>
      <trkpt lat="44.94734" lon="3.68126">
        <ele>784.2</ele>
        <time>2021-08-07T14:28:39Z</time>
      </trkpt>
      <trkpt lat="44.94735" lon="3.68118">
        <ele>784.4</ele>
        <time>2021-08-07T14:28:41Z</time>
      </trkpt>
      <trkpt lat="44.94736" lon="3.68112">
        <ele>784.3</ele>
        <time>2021-08-07T14:28:43Z</time>
      </trkpt>
      <trkpt lat="44.94739" lon="3.68108">
        <ele>783.3</ele>
        <time>2021-08-07T14:28:45Z</time>
      </trkpt>
      <trkpt lat="44.94741" lon="3.68103">
        <ele>782.5</ele>
        <time>2021-08-07T14:28:47Z</time>
      </trkpt>
      <trkpt lat="44.94744" lon="3.68098">
        <ele>781.4</ele>
        <time>2021-08-07T14:28:49Z</time>
      </trkpt>
      <trkpt lat="44.94747" lon="3.68094">
        <ele>780.3</ele>
        <time>2021-08-07T14:28:51Z</time>
      </trkpt>
      <trkpt lat="44.94751" lon="3.68091">
        <ele>778.5</ele>
        <time>2021-08-07T14:28:53Z</time>
      </trkpt>
      <trkpt lat="44.94754" lon="3.68087">
        <ele>777.2</ele>
        <time>2021-08-07T14:28:55Z</time>
      </trkpt>
      <trkpt lat="44.94758" lon="3.68083">
        <ele>775.8</ele>
        <time>2021-08-07T14:28:57Z</time>
      </trkpt>
      <trkpt lat="44.94761" lon="3.68078">
        <ele>774.8</ele>
        <time>2021-08-07T14:28:59Z</time>
      </trkpt>
      <trkpt lat="44.94764" lon="3.68075">
        <ele>773.4</ele>
        <time>2021-08-07T14:29:01Z</time>
      </trkpt>
      <trkpt lat="44.94766" lon="3.6807">
        <ele>772.4</ele>
        <time>2021-08-07T14:29:03Z</time>
      </trkpt>
      <trkpt lat="44.94768" lon="3.68066">
        <ele>771.7</ele>
        <time>2021-08-07T14:29:05Z</time>
      </trkpt>
      <trkpt lat="44.9477" lon="3.68061">
        <ele>771</ele>
        <time>2021-08-07T14:29:07Z</time>
      </trkpt>
      <trkpt lat="44.94772" lon="3.68057">
        <ele>770.5</ele>
        <time>2021-08-07T14:29:09Z</time>
      </trkpt>
      <trkpt lat="44.94773" lon="3.68052">
        <ele>770.3</ele>
        <time>2021-08-07T14:29:11Z</time>
      </trkpt>
      <trkpt lat="44.94774" lon="3.68046">
        <ele>770.2</ele>
        <time>2021-08-07T14:29:13Z</time>
      </trkpt>
      <trkpt lat="44.94774" lon="3.68042">
        <ele>770.4</ele>
        <time>2021-08-07T14:29:15Z</time>
      </trkpt>
      <trkpt lat="44.94774" lon="3.68035">
        <ele>771</ele>
        <time>2021-08-07T14:29:17Z</time>
      </trkpt>
      <trkpt lat="44.94773" lon="3.68031">
        <ele>772.1</ele>
        <time>2021-08-07T14:29:19Z</time>
      </trkpt>
      <trkpt lat="44.94771" lon="3.68026">
        <ele>773.3</ele>
        <time>2021-08-07T14:29:21Z</time>
      </trkpt>
      <trkpt lat="44.94771" lon="3.68024">
        <ele>773.6</ele>
        <time>2021-08-07T14:29:22Z</time>
      </trkpt>
      <trkpt lat="44.94771" lon="3.68016">
        <ele>774.2</ele>
        <time>2021-08-07T14:29:25Z</time>
      </trkpt>
      <trkpt lat="44.94769" lon="3.68011">
        <ele>775.7</ele>
        <time>2021-08-07T14:29:27Z</time>
      </trkpt>
      <trkpt lat="44.94768" lon="3.68006">
        <ele>777.1</ele>
        <time>2021-08-07T14:29:29Z</time>
      </trkpt>
      <trkpt lat="44.94765" lon="3.68002">
        <ele>778.8</ele>
        <time>2021-08-07T14:29:31Z</time>
      </trkpt>
      <trkpt lat="44.94763" lon="3.67998">
        <ele>780.5</ele>
        <time>2021-08-07T14:29:33Z</time>
      </trkpt>
      <trkpt lat="44.9476" lon="3.67995">
        <ele>782.7</ele>
        <time>2021-08-07T14:29:35Z</time>
      </trkpt>
      <trkpt lat="44.94757" lon="3.67991">
        <ele>784.6</ele>
        <time>2021-08-07T14:29:37Z</time>
      </trkpt>
      <trkpt lat="44.94754" lon="3.67989">
        <ele>786.8</ele>
        <time>2021-08-07T14:29:39Z</time>
      </trkpt>
      <trkpt lat="44.94751" lon="3.67985">
        <ele>788.9</ele>
        <time>2021-08-07T14:29:41Z</time>
      </trkpt>
      <trkpt lat="44.94749" lon="3.67984">
        <ele>790.1</ele>
        <time>2021-08-07T14:29:42Z</time>
      </trkpt>
      <trkpt lat="44.94745" lon="3.67977">
        <ele>792.7</ele>
        <time>2021-08-07T14:29:45Z</time>
      </trkpt>
      <trkpt lat="44.94743" lon="3.67972">
        <ele>794.1</ele>
        <time>2021-08-07T14:29:47Z</time>
      </trkpt>
      <trkpt lat="44.94742" lon="3.67967">
        <ele>795.3</ele>
        <time>2021-08-07T14:29:49Z</time>
      </trkpt>
      <trkpt lat="44.94741" lon="3.67961">
        <ele>796.1</ele>
        <time>2021-08-07T14:29:51Z</time>
      </trkpt>
      <trkpt lat="44.94741" lon="3.67956">
        <ele>796.7</ele>
        <time>2021-08-07T14:29:53Z</time>
      </trkpt>
      <trkpt lat="44.94742" lon="3.6795">
        <ele>797.1</ele>
        <time>2021-08-07T14:29:55Z</time>
      </trkpt>
      <trkpt lat="44.94743" lon="3.67945">
        <ele>797</ele>
        <time>2021-08-07T14:29:57Z</time>
      </trkpt>
      <trkpt lat="44.94745" lon="3.6794">
        <ele>796.8</ele>
        <time>2021-08-07T14:29:59Z</time>
      </trkpt>
      <trkpt lat="44.94747" lon="3.67935">
        <ele>796.4</ele>
        <time>2021-08-07T14:30:01Z</time>
      </trkpt>
      <trkpt lat="44.94749" lon="3.67933">
        <ele>795.9</ele>
        <time>2021-08-07T14:30:02Z</time>
      </trkpt>
      <trkpt lat="44.94754" lon="3.67926">
        <ele>793.9</ele>
        <time>2021-08-07T14:30:05Z</time>
      </trkpt>
      <trkpt lat="44.94758" lon="3.67921">
        <ele>792.1</ele>
        <time>2021-08-07T14:30:07Z</time>
      </trkpt>
      <trkpt lat="44.94762" lon="3.67916">
        <ele>790.4</ele>
        <time>2021-08-07T14:30:09Z</time>
      </trkpt>
      <trkpt lat="44.94766" lon="3.67911">
        <ele>788.4</ele>
        <time>2021-08-07T14:30:11Z</time>
      </trkpt>
      <trkpt lat="44.9477" lon="3.67906">
        <ele>786.8</ele>
        <time>2021-08-07T14:30:13Z</time>
      </trkpt>
      <trkpt lat="44.94773" lon="3.679">
        <ele>785.4</ele>
        <time>2021-08-07T14:30:15Z</time>
      </trkpt>
      <trkpt lat="44.94776" lon="3.67894">
        <ele>784.4</ele>
        <time>2021-08-07T14:30:17Z</time>
      </trkpt>
      <trkpt lat="44.94778" lon="3.67888">
        <ele>783.6</ele>
        <time>2021-08-07T14:30:19Z</time>
      </trkpt>
      <trkpt lat="44.9478" lon="3.67882">
        <ele>783.2</ele>
        <time>2021-08-07T14:30:21Z</time>
      </trkpt>
      <trkpt lat="44.94782" lon="3.67874">
        <ele>783</ele>
        <time>2021-08-07T14:30:23Z</time>
      </trkpt>
      <trkpt lat="44.94783" lon="3.67868">
        <ele>783.4</ele>
        <time>2021-08-07T14:30:25Z</time>
      </trkpt>
      <trkpt lat="44.94783" lon="3.67862">
        <ele>783.9</ele>
        <time>2021-08-07T14:30:27Z</time>
      </trkpt>
      <trkpt lat="44.94783" lon="3.67855">
        <ele>784.5</ele>
        <time>2021-08-07T14:30:29Z</time>
      </trkpt>
      <trkpt lat="44.94783" lon="3.67847">
        <ele>785.3</ele>
        <time>2021-08-07T14:30:31Z</time>
      </trkpt>
      <trkpt lat="44.94783" lon="3.6784">
        <ele>786.2</ele>
        <time>2021-08-07T14:30:33Z</time>
      </trkpt>
      <trkpt lat="44.94783" lon="3.67831">
        <ele>786.4</ele>
        <time>2021-08-07T14:30:35Z</time>
      </trkpt>
      <trkpt lat="44.94785" lon="3.67823">
        <ele>784.6</ele>
        <time>2021-08-07T14:30:37Z</time>
      </trkpt>
      <trkpt lat="44.94787" lon="3.67816">
        <ele>783.1</ele>
        <time>2021-08-07T14:30:39Z</time>
      </trkpt>
      <trkpt lat="44.9479" lon="3.6781">
        <ele>780.8</ele>
        <time>2021-08-07T14:30:41Z</time>
      </trkpt>
      <trkpt lat="44.94793" lon="3.67803">
        <ele>778.9</ele>
        <time>2021-08-07T14:30:43Z</time>
      </trkpt>
      <trkpt lat="44.94794" lon="3.67795">
        <ele>777.6</ele>
        <time>2021-08-07T14:30:45Z</time>
      </trkpt>
      <trkpt lat="44.94795" lon="3.67787">
        <ele>776.5</ele>
        <time>2021-08-07T14:30:47Z</time>
      </trkpt>
      <trkpt lat="44.94795" lon="3.6778">
        <ele>776</ele>
        <time>2021-08-07T14:30:49Z</time>
      </trkpt>
      <trkpt lat="44.94793" lon="3.67773">
        <ele>776.4</ele>
        <time>2021-08-07T14:30:51Z</time>
      </trkpt>
      <trkpt lat="44.9479" lon="3.67768">
        <ele>777.2</ele>
        <time>2021-08-07T14:30:53Z</time>
      </trkpt>
      <trkpt lat="44.94786" lon="3.67763">
        <ele>778.3</ele>
        <time>2021-08-07T14:30:55Z</time>
      </trkpt>
      <trkpt lat="44.94782" lon="3.67758">
        <ele>779.6</ele>
        <time>2021-08-07T14:30:57Z</time>
      </trkpt>
      <trkpt lat="44.94778" lon="3.67756">
        <ele>781</ele>
        <time>2021-08-07T14:30:59Z</time>
      </trkpt>
      <trkpt lat="44.94773" lon="3.67751">
        <ele>782.4</ele>
        <time>2021-08-07T14:31:01Z</time>
      </trkpt>
      <trkpt lat="44.94768" lon="3.67746">
        <ele>782.6</ele>
        <time>2021-08-07T14:31:03Z</time>
      </trkpt>
      <trkpt lat="44.94764" lon="3.67741">
        <ele>782.4</ele>
        <time>2021-08-07T14:31:05Z</time>
      </trkpt>
      <trkpt lat="44.9476" lon="3.67736">
        <ele>782.2</ele>
        <time>2021-08-07T14:31:07Z</time>
      </trkpt>
      <trkpt lat="44.94756" lon="3.67731">
        <ele>781.7</ele>
        <time>2021-08-07T14:31:09Z</time>
      </trkpt>
      <trkpt lat="44.94752" lon="3.67725">
        <ele>781.1</ele>
        <time>2021-08-07T14:31:11Z</time>
      </trkpt>
      <trkpt lat="44.94747" lon="3.67719">
        <ele>780.5</ele>
        <time>2021-08-07T14:31:13Z</time>
      </trkpt>
      <trkpt lat="44.94741" lon="3.67713">
        <ele>780.3</ele>
        <time>2021-08-07T14:31:15Z</time>
      </trkpt>
      <trkpt lat="44.94735" lon="3.67707">
        <ele>780.4</ele>
        <time>2021-08-07T14:31:17Z</time>
      </trkpt>
      <trkpt lat="44.94729" lon="3.67703">
        <ele>781.4</ele>
        <time>2021-08-07T14:31:19Z</time>
      </trkpt>
      <trkpt lat="44.94723" lon="3.67698">
        <ele>781.5</ele>
        <time>2021-08-07T14:31:21Z</time>
      </trkpt>
      <trkpt lat="44.9472" lon="3.67696">
        <ele>782.2</ele>
        <time>2021-08-07T14:31:22Z</time>
      </trkpt>
      <trkpt lat="44.94711" lon="3.67689">
        <ele>783</ele>
        <time>2021-08-07T14:31:25Z</time>
      </trkpt>
      <trkpt lat="44.94705" lon="3.67686">
        <ele>784</ele>
        <time>2021-08-07T14:31:27Z</time>
      </trkpt>
      <trkpt lat="44.947" lon="3.6768">
        <ele>783.9</ele>
        <time>2021-08-07T14:31:29Z</time>
      </trkpt>
      <trkpt lat="44.94694" lon="3.67675">
        <ele>784.6</ele>
        <time>2021-08-07T14:31:31Z</time>
      </trkpt>
      <trkpt lat="44.94687" lon="3.67671">
        <ele>785.5</ele>
        <time>2021-08-07T14:31:33Z</time>
      </trkpt>
      <trkpt lat="44.94682" lon="3.67664">
        <ele>785.4</ele>
        <time>2021-08-07T14:31:35Z</time>
      </trkpt>
      <trkpt lat="44.94675" lon="3.67658">
        <ele>785.5</ele>
        <time>2021-08-07T14:31:37Z</time>
      </trkpt>
      <trkpt lat="44.94671" lon="3.6765">
        <ele>784.7</ele>
        <time>2021-08-07T14:31:39Z</time>
      </trkpt>
      <trkpt lat="44.94667" lon="3.67642">
        <ele>783.4</ele>
        <time>2021-08-07T14:31:41Z</time>
      </trkpt>
      <trkpt lat="44.94665" lon="3.67635">
        <ele>781.5</ele>
        <time>2021-08-07T14:31:43Z</time>
      </trkpt>
      <trkpt lat="44.94662" lon="3.6763">
        <ele>780.3</ele>
        <time>2021-08-07T14:31:45Z</time>
      </trkpt>
      <trkpt lat="44.94659" lon="3.67625">
        <ele>779</ele>
        <time>2021-08-07T14:31:47Z</time>
      </trkpt>
      <trkpt lat="44.94656" lon="3.67621">
        <ele>778</ele>
        <time>2021-08-07T14:31:49Z</time>
      </trkpt>
      <trkpt lat="44.94654" lon="3.67615">
        <ele>776.6</ele>
        <time>2021-08-07T14:31:51Z</time>
      </trkpt>
      <trkpt lat="44.9465" lon="3.67612">
        <ele>775.9</ele>
        <time>2021-08-07T14:31:53Z</time>
      </trkpt>
      <trkpt lat="44.94648" lon="3.67608">
        <ele>775.1</ele>
        <time>2021-08-07T14:31:55Z</time>
      </trkpt>
      <trkpt lat="44.94647" lon="3.67606">
        <ele>774.4</ele>
        <time>2021-08-07T14:31:57Z</time>
      </trkpt>
      <trkpt lat="44.94647" lon="3.67605">
        <ele>774.3</ele>
        <time>2021-08-07T14:31:59Z</time>
      </trkpt>
      <trkpt lat="44.94647" lon="3.67605">
        <ele>774.3</ele>
        <time>2021-08-07T14:32:01Z</time>
      </trkpt>
      <trkpt lat="44.94647" lon="3.67605">
        <ele>774.3</ele>
        <time>2021-08-07T14:32:03Z</time>
      </trkpt>
      <trkpt lat="44.94647" lon="3.67605">
        <ele>774.3</ele>
        <time>2021-08-07T14:32:05Z</time>
      </trkpt>
      <trkpt lat="44.94646" lon="3.67605">
        <ele>774.3</ele>
        <time>2021-08-07T14:32:07Z</time>
      </trkpt>
      <trkpt lat="44.94635" lon="3.67591">
        <ele>770.9</ele>
        <time>2021-08-07T14:34:51Z</time>
      </trkpt>
      <trkpt lat="44.94632" lon="3.67588">
        <ele>770.4</ele>
        <time>2021-08-07T14:34:53Z</time>
      </trkpt>
      <trkpt lat="44.94628" lon="3.67585">
        <ele>770</ele>
        <time>2021-08-07T14:34:55Z</time>
      </trkpt>
      <trkpt lat="44.94623" lon="3.67583">
        <ele>770</ele>
        <time>2021-08-07T14:34:57Z</time>
      </trkpt>
      <trkpt lat="44.94617" lon="3.67582">
        <ele>770.8</ele>
        <time>2021-08-07T14:34:59Z</time>
      </trkpt>
      <trkpt lat="44.94612" lon="3.67583">
        <ele>772.3</ele>
        <time>2021-08-07T14:35:01Z</time>
      </trkpt>
      <trkpt lat="44.94606" lon="3.67586">
        <ele>774.1</ele>
        <time>2021-08-07T14:35:03Z</time>
      </trkpt>
      <trkpt lat="44.946" lon="3.67588">
        <ele>776</ele>
        <time>2021-08-07T14:35:05Z</time>
      </trkpt>
      <trkpt lat="44.94593" lon="3.6759">
        <ele>777.9</ele>
        <time>2021-08-07T14:35:07Z</time>
      </trkpt>
      <trkpt lat="44.94585" lon="3.67589">
        <ele>778.8</ele>
        <time>2021-08-07T14:35:09Z</time>
      </trkpt>
      <trkpt lat="44.94578" lon="3.67584">
        <ele>776.6</ele>
        <time>2021-08-07T14:35:11Z</time>
      </trkpt>
      <trkpt lat="44.94573" lon="3.67582">
        <ele>774.8</ele>
        <time>2021-08-07T14:35:13Z</time>
      </trkpt>
      <trkpt lat="44.94567" lon="3.6758">
        <ele>772.7</ele>
        <time>2021-08-07T14:35:15Z</time>
      </trkpt>
      <trkpt lat="44.94561" lon="3.67578">
        <ele>771</ele>
        <time>2021-08-07T14:35:17Z</time>
      </trkpt>
      <trkpt lat="44.94554" lon="3.67578">
        <ele>770</ele>
        <time>2021-08-07T14:35:19Z</time>
      </trkpt>
      <trkpt lat="44.94548" lon="3.6758">
        <ele>769.9</ele>
        <time>2021-08-07T14:35:21Z</time>
      </trkpt>
      <trkpt lat="44.94542" lon="3.67582">
        <ele>770.3</ele>
        <time>2021-08-07T14:35:23Z</time>
      </trkpt>
      <trkpt lat="44.94538" lon="3.67585">
        <ele>771</ele>
        <time>2021-08-07T14:35:25Z</time>
      </trkpt>
      <trkpt lat="44.94534" lon="3.67588">
        <ele>771.7</ele>
        <time>2021-08-07T14:35:27Z</time>
      </trkpt>
      <trkpt lat="44.94531" lon="3.6759">
        <ele>772.1</ele>
        <time>2021-08-07T14:35:29Z</time>
      </trkpt>
      <trkpt lat="44.94526" lon="3.67592">
        <ele>772.5</ele>
        <time>2021-08-07T14:35:31Z</time>
      </trkpt>
      <trkpt lat="44.94523" lon="3.67595">
        <ele>773.1</ele>
        <time>2021-08-07T14:35:33Z</time>
      </trkpt>
      <trkpt lat="44.94519" lon="3.67597">
        <ele>773.3</ele>
        <time>2021-08-07T14:35:35Z</time>
      </trkpt>
      <trkpt lat="44.94514" lon="3.676">
        <ele>773.7</ele>
        <time>2021-08-07T14:35:37Z</time>
      </trkpt>
      <trkpt lat="44.9451" lon="3.67603">
        <ele>774.3</ele>
        <time>2021-08-07T14:35:39Z</time>
      </trkpt>
      <trkpt lat="44.94506" lon="3.67606">
        <ele>775.1</ele>
        <time>2021-08-07T14:35:41Z</time>
      </trkpt>
      <trkpt lat="44.94502" lon="3.6761">
        <ele>776.1</ele>
        <time>2021-08-07T14:35:43Z</time>
      </trkpt>
      <trkpt lat="44.94497" lon="3.67612">
        <ele>775.9</ele>
        <time>2021-08-07T14:35:45Z</time>
      </trkpt>
      <trkpt lat="44.94491" lon="3.67614">
        <ele>775.3</ele>
        <time>2021-08-07T14:35:47Z</time>
      </trkpt>
      <trkpt lat="44.94484" lon="3.67614">
        <ele>773.6</ele>
        <time>2021-08-07T14:35:49Z</time>
      </trkpt>
      <trkpt lat="44.94477" lon="3.67612">
        <ele>771.3</ele>
        <time>2021-08-07T14:35:51Z</time>
      </trkpt>
      <trkpt lat="44.94469" lon="3.67611">
        <ele>769.1</ele>
        <time>2021-08-07T14:35:53Z</time>
      </trkpt>
      <trkpt lat="44.94461" lon="3.67612">
        <ele>767.6</ele>
        <time>2021-08-07T14:35:55Z</time>
      </trkpt>
      <trkpt lat="44.94452" lon="3.67616">
        <ele>767.3</ele>
        <time>2021-08-07T14:35:57Z</time>
      </trkpt>
      <trkpt lat="44.94444" lon="3.67622">
        <ele>767.7</ele>
        <time>2021-08-07T14:35:59Z</time>
      </trkpt>
      <trkpt lat="44.94435" lon="3.67628">
        <ele>768.5</ele>
        <time>2021-08-07T14:36:01Z</time>
      </trkpt>
      <trkpt lat="44.94427" lon="3.67632">
        <ele>768.7</ele>
        <time>2021-08-07T14:36:03Z</time>
      </trkpt>
      <trkpt lat="44.9442" lon="3.67637">
        <ele>769.1</ele>
        <time>2021-08-07T14:36:05Z</time>
      </trkpt>
      <trkpt lat="44.94413" lon="3.67641">
        <ele>769.4</ele>
        <time>2021-08-07T14:36:07Z</time>
      </trkpt>
      <trkpt lat="44.94406" lon="3.67645">
        <ele>769.8</ele>
        <time>2021-08-07T14:36:09Z</time>
      </trkpt>
      <trkpt lat="44.94398" lon="3.67649">
        <ele>769.9</ele>
        <time>2021-08-07T14:36:11Z</time>
      </trkpt>
      <trkpt lat="44.94391" lon="3.67653">
        <ele>770.3</ele>
        <time>2021-08-07T14:36:13Z</time>
      </trkpt>
      <trkpt lat="44.94387" lon="3.67656">
        <ele>770.7</ele>
        <time>2021-08-07T14:36:14Z</time>
      </trkpt>
      <trkpt lat="44.94374" lon="3.67661">
        <ele>769.8</ele>
        <time>2021-08-07T14:36:17Z</time>
      </trkpt>
      <trkpt lat="44.94365" lon="3.67663">
        <ele>768.6</ele>
        <time>2021-08-07T14:36:19Z</time>
      </trkpt>
      <trkpt lat="44.94357" lon="3.67663">
        <ele>767.1</ele>
        <time>2021-08-07T14:36:21Z</time>
      </trkpt>
      <trkpt lat="44.94354" lon="3.67663">
        <ele>766.4</ele>
        <time>2021-08-07T14:36:22Z</time>
      </trkpt>
      <trkpt lat="44.94343" lon="3.67666">
        <ele>765</ele>
        <time>2021-08-07T14:36:25Z</time>
      </trkpt>
      <trkpt lat="44.94335" lon="3.67669">
        <ele>764.1</ele>
        <time>2021-08-07T14:36:27Z</time>
      </trkpt>
      <trkpt lat="44.94327" lon="3.67674">
        <ele>763.5</ele>
        <time>2021-08-07T14:36:29Z</time>
      </trkpt>
      <trkpt lat="44.94319" lon="3.67679">
        <ele>762.7</ele>
        <time>2021-08-07T14:36:31Z</time>
      </trkpt>
      <trkpt lat="44.94311" lon="3.67685">
        <ele>762.4</ele>
        <time>2021-08-07T14:36:33Z</time>
      </trkpt>
      <trkpt lat="44.94305" lon="3.67691">
        <ele>762.8</ele>
        <time>2021-08-07T14:36:35Z</time>
      </trkpt>
      <trkpt lat="44.943" lon="3.67699">
        <ele>763.9</ele>
        <time>2021-08-07T14:36:37Z</time>
      </trkpt>
      <trkpt lat="44.94295" lon="3.67708">
        <ele>765.5</ele>
        <time>2021-08-07T14:36:39Z</time>
      </trkpt>
      <trkpt lat="44.94291" lon="3.67718">
        <ele>767.6</ele>
        <time>2021-08-07T14:36:41Z</time>
      </trkpt>
      <trkpt lat="44.94286" lon="3.67729">
        <ele>769.5</ele>
        <time>2021-08-07T14:36:43Z</time>
      </trkpt>
      <trkpt lat="44.94279" lon="3.67738">
        <ele>770.7</ele>
        <time>2021-08-07T14:36:45Z</time>
      </trkpt>
      <trkpt lat="44.9427" lon="3.67744">
        <ele>770.1</ele>
        <time>2021-08-07T14:36:47Z</time>
      </trkpt>
      <trkpt lat="44.94259" lon="3.67744">
        <ele>766.7</ele>
        <time>2021-08-07T14:36:49Z</time>
      </trkpt>
      <trkpt lat="44.94248" lon="3.67739">
        <ele>761.7</ele>
        <time>2021-08-07T14:36:51Z</time>
      </trkpt>
      <trkpt lat="44.94238" lon="3.67736">
        <ele>758.5</ele>
        <time>2021-08-07T14:36:53Z</time>
      </trkpt>
      <trkpt lat="44.94226" lon="3.67739">
        <ele>756.8</ele>
        <time>2021-08-07T14:36:55Z</time>
      </trkpt>
      <trkpt lat="44.94215" lon="3.67746">
        <ele>756.4</ele>
        <time>2021-08-07T14:36:57Z</time>
      </trkpt>
      <trkpt lat="44.94205" lon="3.67756">
        <ele>757</ele>
        <time>2021-08-07T14:36:59Z</time>
      </trkpt>
      <trkpt lat="44.94194" lon="3.67766">
        <ele>757.6</ele>
        <time>2021-08-07T14:37:01Z</time>
      </trkpt>
      <trkpt lat="44.94186" lon="3.67778">
        <ele>759.2</ele>
        <time>2021-08-07T14:37:03Z</time>
      </trkpt>
      <trkpt lat="44.94177" lon="3.67789">
        <ele>760.6</ele>
        <time>2021-08-07T14:37:05Z</time>
      </trkpt>
      <trkpt lat="44.94167" lon="3.67796">
        <ele>759.8</ele>
        <time>2021-08-07T14:37:07Z</time>
      </trkpt>
      <trkpt lat="44.94155" lon="3.67797">
        <ele>757.7</ele>
        <time>2021-08-07T14:37:09Z</time>
      </trkpt>
      <trkpt lat="44.94143" lon="3.67799">
        <ele>755.7</ele>
        <time>2021-08-07T14:37:11Z</time>
      </trkpt>
      <trkpt lat="44.94131" lon="3.67805">
        <ele>754.8</ele>
        <time>2021-08-07T14:37:13Z</time>
      </trkpt>
      <trkpt lat="44.94119" lon="3.67811">
        <ele>753.9</ele>
        <time>2021-08-07T14:37:15Z</time>
      </trkpt>
      <trkpt lat="44.94106" lon="3.67818">
        <ele>753.1</ele>
        <time>2021-08-07T14:37:17Z</time>
      </trkpt>
      <trkpt lat="44.94094" lon="3.67826">
        <ele>752.5</ele>
        <time>2021-08-07T14:37:19Z</time>
      </trkpt>
      <trkpt lat="44.94083" lon="3.67834">
        <ele>752</ele>
        <time>2021-08-07T14:37:21Z</time>
      </trkpt>
      <trkpt lat="44.94072" lon="3.67844">
        <ele>751.3</ele>
        <time>2021-08-07T14:37:23Z</time>
      </trkpt>
      <trkpt lat="44.94063" lon="3.67856">
        <ele>751.2</ele>
        <time>2021-08-07T14:37:25Z</time>
      </trkpt>
      <trkpt lat="44.94057" lon="3.67871">
        <ele>752.4</ele>
        <time>2021-08-07T14:37:27Z</time>
      </trkpt>
      <trkpt lat="44.9405" lon="3.67887">
        <ele>753.4</ele>
        <time>2021-08-07T14:37:29Z</time>
      </trkpt>
      <trkpt lat="44.9404" lon="3.679">
        <ele>753.1</ele>
        <time>2021-08-07T14:37:31Z</time>
      </trkpt>
      <trkpt lat="44.9403" lon="3.67912">
        <ele>751.8</ele>
        <time>2021-08-07T14:37:33Z</time>
      </trkpt>
      <trkpt lat="44.94019" lon="3.67923">
        <ele>750</ele>
        <time>2021-08-07T14:37:35Z</time>
      </trkpt>
      <trkpt lat="44.94009" lon="3.67936">
        <ele>748.6</ele>
        <time>2021-08-07T14:37:37Z</time>
      </trkpt>
      <trkpt lat="44.94002" lon="3.67952">
        <ele>748.5</ele>
        <time>2021-08-07T14:37:39Z</time>
      </trkpt>
      <trkpt lat="44.93995" lon="3.67965">
        <ele>748.7</ele>
        <time>2021-08-07T14:37:41Z</time>
      </trkpt>
      <trkpt lat="44.93983" lon="3.67973">
        <ele>748.3</ele>
        <time>2021-08-07T14:37:43Z</time>
      </trkpt>
      <trkpt lat="44.93971" lon="3.67976">
        <ele>747.4</ele>
        <time>2021-08-07T14:37:45Z</time>
      </trkpt>
      <trkpt lat="44.9396" lon="3.67982">
        <ele>746.9</ele>
        <time>2021-08-07T14:37:47Z</time>
      </trkpt>
      <trkpt lat="44.93949" lon="3.67993">
        <ele>747.4</ele>
        <time>2021-08-07T14:37:49Z</time>
      </trkpt>
      <trkpt lat="44.93938" lon="3.68005">
        <ele>748</ele>
        <time>2021-08-07T14:37:51Z</time>
      </trkpt>
      <trkpt lat="44.93928" lon="3.68016">
        <ele>747.9</ele>
        <time>2021-08-07T14:37:53Z</time>
      </trkpt>
      <trkpt lat="44.93917" lon="3.68023">
        <ele>747.1</ele>
        <time>2021-08-07T14:37:55Z</time>
      </trkpt>
      <trkpt lat="44.93904" lon="3.68024">
        <ele>744.4</ele>
        <time>2021-08-07T14:37:57Z</time>
      </trkpt>
      <trkpt lat="44.93892" lon="3.68028">
        <ele>741.7</ele>
        <time>2021-08-07T14:37:59Z</time>
      </trkpt>
      <trkpt lat="44.93881" lon="3.68037">
        <ele>739.4</ele>
        <time>2021-08-07T14:38:01Z</time>
      </trkpt>
      <trkpt lat="44.93877" lon="3.68043">
        <ele>738.6</ele>
        <time>2021-08-07T14:38:02Z</time>
      </trkpt>
      <trkpt lat="44.93871" lon="3.68068">
        <ele>737.8</ele>
        <time>2021-08-07T14:38:05Z</time>
      </trkpt>
      <trkpt lat="44.93872" lon="3.68086">
        <ele>738.8</ele>
        <time>2021-08-07T14:38:07Z</time>
      </trkpt>
      <trkpt lat="44.93873" lon="3.68104">
        <ele>740.5</ele>
        <time>2021-08-07T14:38:09Z</time>
      </trkpt>
      <trkpt lat="44.93875" lon="3.68123">
        <ele>742.4</ele>
        <time>2021-08-07T14:38:11Z</time>
      </trkpt>
      <trkpt lat="44.93875" lon="3.68141">
        <ele>743.8</ele>
        <time>2021-08-07T14:38:13Z</time>
      </trkpt>
      <trkpt lat="44.93876" lon="3.68157">
        <ele>744.9</ele>
        <time>2021-08-07T14:38:15Z</time>
      </trkpt>
      <trkpt lat="44.93874" lon="3.68164">
        <ele>745.1</ele>
        <time>2021-08-07T14:38:16Z</time>
      </trkpt>
      <trkpt lat="44.93865" lon="3.68182">
        <ele>745.2</ele>
        <time>2021-08-07T14:38:19Z</time>
      </trkpt>
      <trkpt lat="44.93856" lon="3.68189">
        <ele>744.2</ele>
        <time>2021-08-07T14:38:21Z</time>
      </trkpt>
      <trkpt lat="44.93847" lon="3.68196">
        <ele>742.9</ele>
        <time>2021-08-07T14:38:23Z</time>
      </trkpt>
      <trkpt lat="44.93836" lon="3.682">
        <ele>740.8</ele>
        <time>2021-08-07T14:38:25Z</time>
      </trkpt>
      <trkpt lat="44.93823" lon="3.68204">
        <ele>741.9</ele>
        <time>2021-08-07T14:38:27Z</time>
      </trkpt>
      <trkpt lat="44.9381" lon="3.682">
        <ele>742.9</ele>
        <time>2021-08-07T14:38:29Z</time>
      </trkpt>
      <trkpt lat="44.93797" lon="3.6819">
        <ele>742.3</ele>
        <time>2021-08-07T14:38:31Z</time>
      </trkpt>
      <trkpt lat="44.93788" lon="3.68178">
        <ele>740.7</ele>
        <time>2021-08-07T14:38:33Z</time>
      </trkpt>
      <trkpt lat="44.93781" lon="3.6816">
        <ele>737.8</ele>
        <time>2021-08-07T14:38:35Z</time>
      </trkpt>
      <trkpt lat="44.93777" lon="3.68144">
        <ele>735</ele>
        <time>2021-08-07T14:38:37Z</time>
      </trkpt>
      <trkpt lat="44.9377" lon="3.68128">
        <ele>732.2</ele>
        <time>2021-08-07T14:38:39Z</time>
      </trkpt>
      <trkpt lat="44.93761" lon="3.68115">
        <ele>729.5</ele>
        <time>2021-08-07T14:38:41Z</time>
      </trkpt>
      <trkpt lat="44.93749" lon="3.68105">
        <ele>727.2</ele>
        <time>2021-08-07T14:38:43Z</time>
      </trkpt>
      <trkpt lat="44.93737" lon="3.68104">
        <ele>726.7</ele>
        <time>2021-08-07T14:38:45Z</time>
      </trkpt>
      <trkpt lat="44.93724" lon="3.68111">
        <ele>727.8</ele>
        <time>2021-08-07T14:38:47Z</time>
      </trkpt>
      <trkpt lat="44.93712" lon="3.6812">
        <ele>729.3</ele>
        <time>2021-08-07T14:38:49Z</time>
      </trkpt>
      <trkpt lat="44.93701" lon="3.68132">
        <ele>730.8</ele>
        <time>2021-08-07T14:38:51Z</time>
      </trkpt>
      <trkpt lat="44.9369" lon="3.68142">
        <ele>731.7</ele>
        <time>2021-08-07T14:38:53Z</time>
      </trkpt>
      <trkpt lat="44.93678" lon="3.6815">
        <ele>731.9</ele>
        <time>2021-08-07T14:38:55Z</time>
      </trkpt>
      <trkpt lat="44.93666" lon="3.68156">
        <ele>731.5</ele>
        <time>2021-08-07T14:38:57Z</time>
      </trkpt>
      <trkpt lat="44.93655" lon="3.68164">
        <ele>730.1</ele>
        <time>2021-08-07T14:38:59Z</time>
      </trkpt>
      <trkpt lat="44.93643" lon="3.68173">
        <ele>729.3</ele>
        <time>2021-08-07T14:39:01Z</time>
      </trkpt>
      <trkpt lat="44.93632" lon="3.68182">
        <ele>728.9</ele>
        <time>2021-08-07T14:39:03Z</time>
      </trkpt>
      <trkpt lat="44.9362" lon="3.68191">
        <ele>728.4</ele>
        <time>2021-08-07T14:39:05Z</time>
      </trkpt>
      <trkpt lat="44.93609" lon="3.68201">
        <ele>728.3</ele>
        <time>2021-08-07T14:39:07Z</time>
      </trkpt>
      <trkpt lat="44.93603" lon="3.68205">
        <ele>728</ele>
        <time>2021-08-07T14:39:08Z</time>
      </trkpt>
      <trkpt lat="44.93591" lon="3.68209">
        <ele>726.3</ele>
        <time>2021-08-07T14:39:10Z</time>
      </trkpt>
      <trkpt lat="44.93573" lon="3.68208">
        <ele>721</ele>
        <time>2021-08-07T14:39:13Z</time>
      </trkpt>
      <trkpt lat="44.93568" lon="3.68208">
        <ele>719.1</ele>
        <time>2021-08-07T14:39:14Z</time>
      </trkpt>
      <trkpt lat="44.93555" lon="3.68206">
        <ele>714.6</ele>
        <time>2021-08-07T14:39:17Z</time>
      </trkpt>
      <trkpt lat="44.93548" lon="3.68208">
        <ele>712.6</ele>
        <time>2021-08-07T14:39:19Z</time>
      </trkpt>
      <trkpt lat="44.93543" lon="3.68211">
        <ele>711.7</ele>
        <time>2021-08-07T14:39:21Z</time>
      </trkpt>
      <trkpt lat="44.93539" lon="3.68214">
        <ele>711.4</ele>
        <time>2021-08-07T14:39:23Z</time>
      </trkpt>
      <trkpt lat="44.93536" lon="3.68218">
        <ele>711.3</ele>
        <time>2021-08-07T14:39:25Z</time>
      </trkpt>
      <trkpt lat="44.93533" lon="3.68222">
        <ele>711.4</ele>
        <time>2021-08-07T14:39:27Z</time>
      </trkpt>
      <trkpt lat="44.93529" lon="3.68226">
        <ele>711.4</ele>
        <time>2021-08-07T14:39:29Z</time>
      </trkpt>
      <trkpt lat="44.93525" lon="3.68231">
        <ele>711.5</ele>
        <time>2021-08-07T14:39:31Z</time>
      </trkpt>
      <trkpt lat="44.93521" lon="3.68237">
        <ele>712.1</ele>
        <time>2021-08-07T14:39:33Z</time>
      </trkpt>
      <trkpt lat="44.93517" lon="3.68245">
        <ele>713.4</ele>
        <time>2021-08-07T14:39:35Z</time>
      </trkpt>
      <trkpt lat="44.93512" lon="3.68254">
        <ele>714.8</ele>
        <time>2021-08-07T14:39:37Z</time>
      </trkpt>
      <trkpt lat="44.93508" lon="3.68264">
        <ele>716.3</ele>
        <time>2021-08-07T14:39:39Z</time>
      </trkpt>
      <trkpt lat="44.93503" lon="3.68274">
        <ele>717.9</ele>
        <time>2021-08-07T14:39:41Z</time>
      </trkpt>
      <trkpt lat="44.93496" lon="3.68285">
        <ele>720</ele>
        <time>2021-08-07T14:39:43Z</time>
      </trkpt>
      <trkpt lat="44.9349" lon="3.68294">
        <ele>722</ele>
        <time>2021-08-07T14:39:45Z</time>
      </trkpt>
      <trkpt lat="44.93481" lon="3.68301">
        <ele>722.9</ele>
        <time>2021-08-07T14:39:47Z</time>
      </trkpt>
      <trkpt lat="44.93472" lon="3.68304">
        <ele>722.8</ele>
        <time>2021-08-07T14:39:49Z</time>
      </trkpt>
      <trkpt lat="44.93464" lon="3.68301">
        <ele>720.8</ele>
        <time>2021-08-07T14:39:51Z</time>
      </trkpt>
      <trkpt lat="44.93455" lon="3.68298">
        <ele>718.5</ele>
        <time>2021-08-07T14:39:53Z</time>
      </trkpt>
      <trkpt lat="44.93448" lon="3.68292">
        <ele>715.7</ele>
        <time>2021-08-07T14:39:55Z</time>
      </trkpt>
      <trkpt lat="44.93442" lon="3.68287">
        <ele>712.8</ele>
        <time>2021-08-07T14:39:57Z</time>
      </trkpt>
      <trkpt lat="44.93436" lon="3.68282">
        <ele>710</ele>
        <time>2021-08-07T14:39:59Z</time>
      </trkpt>
      <trkpt lat="44.9343" lon="3.6828">
        <ele>708.4</ele>
        <time>2021-08-07T14:40:01Z</time>
      </trkpt>
      <trkpt lat="44.93427" lon="3.68278">
        <ele>707.1</ele>
        <time>2021-08-07T14:40:03Z</time>
      </trkpt>
      <trkpt lat="44.93426" lon="3.68277">
        <ele>706.2</ele>
        <time>2021-08-07T14:40:05Z</time>
      </trkpt>
      <trkpt lat="44.93425" lon="3.68277">
        <ele>706.2</ele>
        <time>2021-08-07T14:40:07Z</time>
      </trkpt>
      <trkpt lat="44.93423" lon="3.68277">
        <ele>706.3</ele>
        <time>2021-08-07T14:40:09Z</time>
      </trkpt>
      <trkpt lat="44.93422" lon="3.68278">
        <ele>706.5</ele>
        <time>2021-08-07T14:40:11Z</time>
      </trkpt>
      <trkpt lat="44.93421" lon="3.68279">
        <ele>706.5</ele>
        <time>2021-08-07T14:40:13Z</time>
      </trkpt>
      <trkpt lat="44.93418" lon="3.68279">
        <ele>706.1</ele>
        <time>2021-08-07T14:45:45Z</time>
      </trkpt>
      <trkpt lat="44.93418" lon="3.68279">
        <ele>706</ele>
        <time>2021-08-07T14:45:46Z</time>
      </trkpt>
      <trkpt lat="44.93418" lon="3.68279">
        <ele>706.1</ele>
        <time>2021-08-07T14:45:48Z</time>
      </trkpt>
      <trkpt lat="44.93418" lon="3.6828">
        <ele>706.2</ele>
        <time>2021-08-07T14:45:51Z</time>
      </trkpt>
      <trkpt lat="44.93417" lon="3.6828">
        <ele>706.2</ele>
        <time>2021-08-07T14:45:53Z</time>
      </trkpt>
      <trkpt lat="44.93416" lon="3.6828">
        <ele>706.3</ele>
        <time>2021-08-07T14:45:54Z</time>
      </trkpt>
      <trkpt lat="44.9341" lon="3.68284">
        <ele>706.8</ele>
        <time>2021-08-07T14:45:57Z</time>
      </trkpt>
      <trkpt lat="44.93406" lon="3.68287">
        <ele>707.5</ele>
        <time>2021-08-07T14:45:59Z</time>
      </trkpt>
      <trkpt lat="44.93402" lon="3.68291">
        <ele>708.5</ele>
        <time>2021-08-07T14:46:01Z</time>
      </trkpt>
      <trkpt lat="44.93398" lon="3.68294">
        <ele>709.6</ele>
        <time>2021-08-07T14:46:03Z</time>
      </trkpt>
      <trkpt lat="44.93398" lon="3.68295">
        <ele>709.8</ele>
        <time>2021-08-07T14:46:05Z</time>
      </trkpt>
      <trkpt lat="44.93398" lon="3.68294">
        <ele>709.7</ele>
        <time>2021-08-07T14:46:07Z</time>
      </trkpt>
      <trkpt lat="44.93398" lon="3.68295">
        <ele>709.7</ele>
        <time>2021-08-07T14:46:09Z</time>
      </trkpt>
      <trkpt lat="44.93398" lon="3.68295">
        <ele>709.7</ele>
        <time>2021-08-07T14:46:11Z</time>
      </trkpt>
      <trkpt lat="44.93398" lon="3.68295">
        <ele>709.7</ele>
        <time>2021-08-07T14:46:13Z</time>
      </trkpt>
      <trkpt lat="44.93394" lon="3.68298">
        <ele>711</ele>
        <time>2021-08-07T14:46:41Z</time>
      </trkpt>
      <trkpt lat="44.93391" lon="3.68302">
        <ele>712</ele>
        <time>2021-08-07T14:46:43Z</time>
      </trkpt>
      <trkpt lat="44.93388" lon="3.68305">
        <ele>713.1</ele>
        <time>2021-08-07T14:46:45Z</time>
      </trkpt>
      <trkpt lat="44.93383" lon="3.68306">
        <ele>713.3</ele>
        <time>2021-08-07T14:46:47Z</time>
      </trkpt>
      <trkpt lat="44.93379" lon="3.68308">
        <ele>713.8</ele>
        <time>2021-08-07T14:46:49Z</time>
      </trkpt>
      <trkpt lat="44.93373" lon="3.68308">
        <ele>713.1</ele>
        <time>2021-08-07T14:46:51Z</time>
      </trkpt>
      <trkpt lat="44.93368" lon="3.68308">
        <ele>712.9</ele>
        <time>2021-08-07T14:46:53Z</time>
      </trkpt>
      <trkpt lat="44.93363" lon="3.68309">
        <ele>712.5</ele>
        <time>2021-08-07T14:46:55Z</time>
      </trkpt>
      <trkpt lat="44.93359" lon="3.68308">
        <ele>711.7</ele>
        <time>2021-08-07T14:46:57Z</time>
      </trkpt>
      <trkpt lat="44.93355" lon="3.68308">
        <ele>711.3</ele>
        <time>2021-08-07T14:46:59Z</time>
      </trkpt>
      <trkpt lat="44.93352" lon="3.68308">
        <ele>711.1</ele>
        <time>2021-08-07T14:47:01Z</time>
      </trkpt>
      <trkpt lat="44.93353" lon="3.68308">
        <ele>711.3</ele>
        <time>2021-08-07T14:47:03Z</time>
      </trkpt>
      <trkpt lat="44.93353" lon="3.68308">
        <ele>711.2</ele>
        <time>2021-08-07T14:47:05Z</time>
      </trkpt>
      <trkpt lat="44.93353" lon="3.68308">
        <ele>711.1</ele>
        <time>2021-08-07T14:47:07Z</time>
      </trkpt>
      <trkpt lat="44.93353" lon="3.68308">
        <ele>710.9</ele>
        <time>2021-08-07T14:47:09Z</time>
      </trkpt>
      <trkpt lat="44.93344" lon="3.68313">
        <ele>713</ele>
        <time>2021-08-07T14:47:21Z</time>
      </trkpt>
      <trkpt lat="44.93341" lon="3.68314">
        <ele>713.6</ele>
        <time>2021-08-07T14:47:23Z</time>
      </trkpt>
      <trkpt lat="44.93338" lon="3.68317">
        <ele>714.7</ele>
        <time>2021-08-07T14:47:25Z</time>
      </trkpt>
      <trkpt lat="44.93334" lon="3.6832">
        <ele>715.9</ele>
        <time>2021-08-07T14:47:27Z</time>
      </trkpt>
      <trkpt lat="44.93329" lon="3.68321">
        <ele>715.7</ele>
        <time>2021-08-07T14:47:29Z</time>
      </trkpt>
      <trkpt lat="44.93323" lon="3.68321">
        <ele>715.2</ele>
        <time>2021-08-07T14:47:31Z</time>
      </trkpt>
      <trkpt lat="44.93317" lon="3.68321">
        <ele>713.9</ele>
        <time>2021-08-07T14:47:33Z</time>
      </trkpt>
      <trkpt lat="44.93312" lon="3.68319">
        <ele>711.7</ele>
        <time>2021-08-07T14:47:35Z</time>
      </trkpt>
      <trkpt lat="44.93306" lon="3.68316">
        <ele>709.2</ele>
        <time>2021-08-07T14:47:37Z</time>
      </trkpt>
      <trkpt lat="44.933" lon="3.68319">
        <ele>709.6</ele>
        <time>2021-08-07T14:47:39Z</time>
      </trkpt>
      <trkpt lat="44.93293" lon="3.68323">
        <ele>710.7</ele>
        <time>2021-08-07T14:47:41Z</time>
      </trkpt>
      <trkpt lat="44.93287" lon="3.68327">
        <ele>711.8</ele>
        <time>2021-08-07T14:47:43Z</time>
      </trkpt>
      <trkpt lat="44.93279" lon="3.68329">
        <ele>711.2</ele>
        <time>2021-08-07T14:47:45Z</time>
      </trkpt>
      <trkpt lat="44.93271" lon="3.68329">
        <ele>710.1</ele>
        <time>2021-08-07T14:47:47Z</time>
      </trkpt>
      <trkpt lat="44.93263" lon="3.68331">
        <ele>709.2</ele>
        <time>2021-08-07T14:47:49Z</time>
      </trkpt>
      <trkpt lat="44.93255" lon="3.68331">
        <ele>708</ele>
        <time>2021-08-07T14:47:51Z</time>
      </trkpt>
      <trkpt lat="44.93247" lon="3.68332">
        <ele>707.3</ele>
        <time>2021-08-07T14:47:53Z</time>
      </trkpt>
      <trkpt lat="44.93239" lon="3.68334">
        <ele>708.3</ele>
        <time>2021-08-07T14:47:55Z</time>
      </trkpt>
      <trkpt lat="44.93232" lon="3.68337">
        <ele>710.1</ele>
        <time>2021-08-07T14:47:57Z</time>
      </trkpt>
      <trkpt lat="44.93225" lon="3.68343">
        <ele>713.1</ele>
        <time>2021-08-07T14:47:59Z</time>
      </trkpt>
      <trkpt lat="44.93219" lon="3.68352">
        <ele>717.4</ele>
        <time>2021-08-07T14:48:01Z</time>
      </trkpt>
      <trkpt lat="44.93212" lon="3.68361">
        <ele>721.9</ele>
        <time>2021-08-07T14:48:03Z</time>
      </trkpt>
      <trkpt lat="44.93205" lon="3.68369">
        <ele>725.5</ele>
        <time>2021-08-07T14:48:05Z</time>
      </trkpt>
      <trkpt lat="44.93196" lon="3.68374">
        <ele>727.8</ele>
        <time>2021-08-07T14:48:07Z</time>
      </trkpt>
      <trkpt lat="44.93187" lon="3.68374">
        <ele>727.4</ele>
        <time>2021-08-07T14:48:09Z</time>
      </trkpt>
      <trkpt lat="44.93179" lon="3.68368">
        <ele>724.5</ele>
        <time>2021-08-07T14:48:11Z</time>
      </trkpt>
      <trkpt lat="44.93172" lon="3.6836">
        <ele>720.7</ele>
        <time>2021-08-07T14:48:13Z</time>
      </trkpt>
      <trkpt lat="44.93166" lon="3.68353">
        <ele>717.4</ele>
        <time>2021-08-07T14:48:15Z</time>
      </trkpt>
      <trkpt lat="44.93159" lon="3.68345">
        <ele>714.3</ele>
        <time>2021-08-07T14:48:17Z</time>
      </trkpt>
      <trkpt lat="44.93152" lon="3.68338">
        <ele>711.4</ele>
        <time>2021-08-07T14:48:19Z</time>
      </trkpt>
      <trkpt lat="44.93145" lon="3.68332">
        <ele>709.1</ele>
        <time>2021-08-07T14:48:21Z</time>
      </trkpt>
      <trkpt lat="44.93138" lon="3.68329">
        <ele>708.5</ele>
        <time>2021-08-07T14:48:23Z</time>
      </trkpt>
      <trkpt lat="44.93129" lon="3.68325">
        <ele>707.4</ele>
        <time>2021-08-07T14:48:25Z</time>
      </trkpt>
      <trkpt lat="44.93122" lon="3.68323">
        <ele>706.9</ele>
        <time>2021-08-07T14:48:27Z</time>
      </trkpt>
      <trkpt lat="44.93114" lon="3.6832">
        <ele>706</ele>
        <time>2021-08-07T14:48:29Z</time>
      </trkpt>
      <trkpt lat="44.93107" lon="3.68317">
        <ele>705.6</ele>
        <time>2021-08-07T14:48:31Z</time>
      </trkpt>
      <trkpt lat="44.931" lon="3.68316">
        <ele>705.4</ele>
        <time>2021-08-07T14:48:33Z</time>
      </trkpt>
      <trkpt lat="44.93092" lon="3.68316">
        <ele>705.9</ele>
        <time>2021-08-07T14:48:35Z</time>
      </trkpt>
      <trkpt lat="44.93085" lon="3.68316">
        <ele>706.5</ele>
        <time>2021-08-07T14:48:37Z</time>
      </trkpt>
      <trkpt lat="44.93077" lon="3.68317">
        <ele>706.8</ele>
        <time>2021-08-07T14:48:39Z</time>
      </trkpt>
      <trkpt lat="44.93069" lon="3.68317">
        <ele>706.4</ele>
        <time>2021-08-07T14:48:41Z</time>
      </trkpt>
      <trkpt lat="44.93061" lon="3.68317">
        <ele>706.5</ele>
        <time>2021-08-07T14:48:43Z</time>
      </trkpt>
      <trkpt lat="44.93053" lon="3.68318">
        <ele>706.5</ele>
        <time>2021-08-07T14:48:45Z</time>
      </trkpt>
      <trkpt lat="44.93045" lon="3.68318">
        <ele>705.9</ele>
        <time>2021-08-07T14:48:47Z</time>
      </trkpt>
      <trkpt lat="44.93036" lon="3.68318">
        <ele>705.7</ele>
        <time>2021-08-07T14:48:49Z</time>
      </trkpt>
      <trkpt lat="44.93028" lon="3.68319">
        <ele>705.7</ele>
        <time>2021-08-07T14:48:51Z</time>
      </trkpt>
      <trkpt lat="44.9302" lon="3.6832">
        <ele>706</ele>
        <time>2021-08-07T14:48:53Z</time>
      </trkpt>
      <trkpt lat="44.93012" lon="3.68319">
        <ele>705.3</ele>
        <time>2021-08-07T14:48:55Z</time>
      </trkpt>
      <trkpt lat="44.93005" lon="3.68317">
        <ele>703.9</ele>
        <time>2021-08-07T14:48:57Z</time>
      </trkpt>
      <trkpt lat="44.92998" lon="3.68315">
        <ele>702.7</ele>
        <time>2021-08-07T14:48:59Z</time>
      </trkpt>
      <trkpt lat="44.9299" lon="3.68316">
        <ele>702.6</ele>
        <time>2021-08-07T14:49:01Z</time>
      </trkpt>
      <trkpt lat="44.92982" lon="3.68318">
        <ele>702.5</ele>
        <time>2021-08-07T14:49:03Z</time>
      </trkpt>
      <trkpt lat="44.92974" lon="3.68319">
        <ele>702.4</ele>
        <time>2021-08-07T14:49:05Z</time>
      </trkpt>
      <trkpt lat="44.92966" lon="3.6832">
        <ele>702.2</ele>
        <time>2021-08-07T14:49:07Z</time>
      </trkpt>
      <trkpt lat="44.92961" lon="3.68321">
        <ele>702.2</ele>
        <time>2021-08-07T14:49:09Z</time>
      </trkpt>
      <trkpt lat="44.92961" lon="3.68322">
        <ele>702.5</ele>
        <time>2021-08-07T14:49:11Z</time>
      </trkpt>
      <trkpt lat="44.9296" lon="3.68323">
        <ele>702.7</ele>
        <time>2021-08-07T14:49:13Z</time>
      </trkpt>
      <trkpt lat="44.92958" lon="3.68324">
        <ele>703.1</ele>
        <time>2021-08-07T14:49:15Z</time>
      </trkpt>
      <trkpt lat="44.92953" lon="3.68327">
        <ele>703.9</ele>
        <time>2021-08-07T14:49:17Z</time>
      </trkpt>
      <trkpt lat="44.92948" lon="3.68328">
        <ele>703.9</ele>
        <time>2021-08-07T14:49:19Z</time>
      </trkpt>
      <trkpt lat="44.92941" lon="3.68328">
        <ele>703.3</ele>
        <time>2021-08-07T14:49:21Z</time>
      </trkpt>
      <trkpt lat="44.92937" lon="3.68328">
        <ele>702.8</ele>
        <time>2021-08-07T14:49:22Z</time>
      </trkpt>
      <trkpt lat="44.92926" lon="3.68325">
        <ele>700.6</ele>
        <time>2021-08-07T14:49:25Z</time>
      </trkpt>
      <trkpt lat="44.92918" lon="3.68325">
        <ele>700</ele>
        <time>2021-08-07T14:49:27Z</time>
      </trkpt>
      <trkpt lat="44.9291" lon="3.68327">
        <ele>699.7</ele>
        <time>2021-08-07T14:49:29Z</time>
      </trkpt>
      <trkpt lat="44.92902" lon="3.68328">
        <ele>699.2</ele>
        <time>2021-08-07T14:49:31Z</time>
      </trkpt>
      <trkpt lat="44.92894" lon="3.6833">
        <ele>698.9</ele>
        <time>2021-08-07T14:49:33Z</time>
      </trkpt>
      <trkpt lat="44.92888" lon="3.68331">
        <ele>698.8</ele>
        <time>2021-08-07T14:49:35Z</time>
      </trkpt>
      <trkpt lat="44.9288" lon="3.68333">
        <ele>698.6</ele>
        <time>2021-08-07T14:49:37Z</time>
      </trkpt>
      <trkpt lat="44.92873" lon="3.68335">
        <ele>698.5</ele>
        <time>2021-08-07T14:49:39Z</time>
      </trkpt>
      <trkpt lat="44.92865" lon="3.68337">
        <ele>698.3</ele>
        <time>2021-08-07T14:49:41Z</time>
      </trkpt>
      <trkpt lat="44.9286" lon="3.68337">
        <ele>698</ele>
        <time>2021-08-07T14:49:42Z</time>
      </trkpt>
      <trkpt lat="44.92848" lon="3.68337">
        <ele>696.3</ele>
        <time>2021-08-07T14:49:45Z</time>
      </trkpt>
      <trkpt lat="44.92839" lon="3.68335">
        <ele>694.4</ele>
        <time>2021-08-07T14:49:47Z</time>
      </trkpt>
      <trkpt lat="44.92831" lon="3.68335">
        <ele>693.5</ele>
        <time>2021-08-07T14:49:49Z</time>
      </trkpt>
      <trkpt lat="44.92823" lon="3.68336">
        <ele>694.1</ele>
        <time>2021-08-07T14:49:51Z</time>
      </trkpt>
      <trkpt lat="44.92815" lon="3.68341">
        <ele>695.9</ele>
        <time>2021-08-07T14:49:53Z</time>
      </trkpt>
      <trkpt lat="44.92809" lon="3.68349">
        <ele>699</ele>
        <time>2021-08-07T14:49:55Z</time>
      </trkpt>
      <trkpt lat="44.92806" lon="3.68354">
        <ele>701</ele>
        <time>2021-08-07T14:49:56Z</time>
      </trkpt>
      <trkpt lat="44.92799" lon="3.68369">
        <ele>706.9</ele>
        <time>2021-08-07T14:49:59Z</time>
      </trkpt>
      <trkpt lat="44.92793" lon="3.68379">
        <ele>710.6</ele>
        <time>2021-08-07T14:50:01Z</time>
      </trkpt>
      <trkpt lat="44.92787" lon="3.68388">
        <ele>713.9</ele>
        <time>2021-08-07T14:50:03Z</time>
      </trkpt>
      <trkpt lat="44.92777" lon="3.68392">
        <ele>715.4</ele>
        <time>2021-08-07T14:50:05Z</time>
      </trkpt>
      <trkpt lat="44.92768" lon="3.68392">
        <ele>715</ele>
        <time>2021-08-07T14:50:07Z</time>
      </trkpt>
      <trkpt lat="44.92761" lon="3.68386">
        <ele>712.7</ele>
        <time>2021-08-07T14:50:09Z</time>
      </trkpt>
      <trkpt lat="44.92758" lon="3.68376">
        <ele>709.1</ele>
        <time>2021-08-07T14:50:11Z</time>
      </trkpt>
      <trkpt lat="44.92754" lon="3.68367">
        <ele>705.5</ele>
        <time>2021-08-07T14:50:13Z</time>
      </trkpt>
      <trkpt lat="44.92751" lon="3.68356">
        <ele>701.6</ele>
        <time>2021-08-07T14:50:15Z</time>
      </trkpt>
      <trkpt lat="44.92745" lon="3.68348">
        <ele>699</ele>
        <time>2021-08-07T14:50:17Z</time>
      </trkpt>
      <trkpt lat="44.9274" lon="3.6834">
        <ele>696.6</ele>
        <time>2021-08-07T14:50:19Z</time>
      </trkpt>
      <trkpt lat="44.92734" lon="3.68334">
        <ele>695.2</ele>
        <time>2021-08-07T14:50:21Z</time>
      </trkpt>
      <trkpt lat="44.92726" lon="3.68331">
        <ele>695</ele>
        <time>2021-08-07T14:50:23Z</time>
      </trkpt>
      <trkpt lat="44.92718" lon="3.68331">
        <ele>695.8</ele>
        <time>2021-08-07T14:50:25Z</time>
      </trkpt>
      <trkpt lat="44.92709" lon="3.68334">
        <ele>697.6</ele>
        <time>2021-08-07T14:50:27Z</time>
      </trkpt>
      <trkpt lat="44.927" lon="3.68339">
        <ele>700.6</ele>
        <time>2021-08-07T14:50:29Z</time>
      </trkpt>
      <trkpt lat="44.9269" lon="3.68342">
        <ele>702.7</ele>
        <time>2021-08-07T14:50:31Z</time>
      </trkpt>
      <trkpt lat="44.92678" lon="3.68339">
        <ele>702.8</ele>
        <time>2021-08-07T14:50:33Z</time>
      </trkpt>
      <trkpt lat="44.92669" lon="3.68331">
        <ele>701.2</ele>
        <time>2021-08-07T14:50:35Z</time>
      </trkpt>
      <trkpt lat="44.92658" lon="3.68324">
        <ele>700.7</ele>
        <time>2021-08-07T14:50:37Z</time>
      </trkpt>
      <trkpt lat="44.92648" lon="3.68319">
        <ele>700.7</ele>
        <time>2021-08-07T14:50:39Z</time>
      </trkpt>
      <trkpt lat="44.92638" lon="3.68315">
        <ele>701.2</ele>
        <time>2021-08-07T14:50:41Z</time>
      </trkpt>
      <trkpt lat="44.92627" lon="3.68312">
        <ele>702.2</ele>
        <time>2021-08-07T14:50:43Z</time>
      </trkpt>
      <trkpt lat="44.92616" lon="3.68305">
        <ele>701.8</ele>
        <time>2021-08-07T14:50:45Z</time>
      </trkpt>
      <trkpt lat="44.92606" lon="3.68297">
        <ele>700.9</ele>
        <time>2021-08-07T14:50:47Z</time>
      </trkpt>
      <trkpt lat="44.92597" lon="3.68285">
        <ele>698.8</ele>
        <time>2021-08-07T14:50:49Z</time>
      </trkpt>
      <trkpt lat="44.92587" lon="3.68275">
        <ele>697.3</ele>
        <time>2021-08-07T14:50:51Z</time>
      </trkpt>
      <trkpt lat="44.92578" lon="3.68264">
        <ele>695.5</ele>
        <time>2021-08-07T14:50:53Z</time>
      </trkpt>
      <trkpt lat="44.92569" lon="3.68253">
        <ele>694.3</ele>
        <time>2021-08-07T14:50:55Z</time>
      </trkpt>
      <trkpt lat="44.92558" lon="3.68245">
        <ele>694.3</ele>
        <time>2021-08-07T14:50:57Z</time>
      </trkpt>
      <trkpt lat="44.92547" lon="3.68236">
        <ele>693.9</ele>
        <time>2021-08-07T14:50:59Z</time>
      </trkpt>
      <trkpt lat="44.92536" lon="3.68228">
        <ele>693.9</ele>
        <time>2021-08-07T14:51:01Z</time>
      </trkpt>
      <trkpt lat="44.92524" lon="3.68221">
        <ele>694.4</ele>
        <time>2021-08-07T14:51:03Z</time>
      </trkpt>
      <trkpt lat="44.92513" lon="3.68216">
        <ele>695.5</ele>
        <time>2021-08-07T14:51:05Z</time>
      </trkpt>
      <trkpt lat="44.92501" lon="3.6821">
        <ele>696.2</ele>
        <time>2021-08-07T14:51:07Z</time>
      </trkpt>
      <trkpt lat="44.9249" lon="3.68206">
        <ele>697.5</ele>
        <time>2021-08-07T14:51:09Z</time>
      </trkpt>
      <trkpt lat="44.92479" lon="3.68202">
        <ele>698.7</ele>
        <time>2021-08-07T14:51:11Z</time>
      </trkpt>
      <trkpt lat="44.92468" lon="3.68198">
        <ele>699.7</ele>
        <time>2021-08-07T14:51:13Z</time>
      </trkpt>
      <trkpt lat="44.9246" lon="3.6819">
        <ele>699.1</ele>
        <time>2021-08-07T14:51:15Z</time>
      </trkpt>
      <trkpt lat="44.92453" lon="3.68178">
        <ele>696.6</ele>
        <time>2021-08-07T14:51:17Z</time>
      </trkpt>
      <trkpt lat="44.92447" lon="3.68165">
        <ele>694.2</ele>
        <time>2021-08-07T14:51:19Z</time>
      </trkpt>
      <trkpt lat="44.9244" lon="3.68153">
        <ele>692.3</ele>
        <time>2021-08-07T14:51:21Z</time>
      </trkpt>
      <trkpt lat="44.92436" lon="3.68147">
        <ele>691.6</ele>
        <time>2021-08-07T14:51:22Z</time>
      </trkpt>
      <trkpt lat="44.92423" lon="3.68132">
        <ele>690.4</ele>
        <time>2021-08-07T14:51:25Z</time>
      </trkpt>
      <trkpt lat="44.92415" lon="3.6812">
        <ele>689.5</ele>
        <time>2021-08-07T14:51:27Z</time>
      </trkpt>
      <trkpt lat="44.92406" lon="3.68109">
        <ele>689.5</ele>
        <time>2021-08-07T14:51:29Z</time>
      </trkpt>
      <trkpt lat="44.924" lon="3.68096">
        <ele>688.1</ele>
        <time>2021-08-07T14:51:31Z</time>
      </trkpt>
      <trkpt lat="44.92394" lon="3.68081">
        <ele>686.7</ele>
        <time>2021-08-07T14:51:33Z</time>
      </trkpt>
      <trkpt lat="44.92387" lon="3.68067">
        <ele>686.9</ele>
        <time>2021-08-07T14:51:35Z</time>
      </trkpt>
      <trkpt lat="44.92384" lon="3.6806">
        <ele>686.7</ele>
        <time>2021-08-07T14:51:36Z</time>
      </trkpt>
      <trkpt lat="44.92376" lon="3.68038">
        <ele>686</ele>
        <time>2021-08-07T14:51:39Z</time>
      </trkpt>
      <trkpt lat="44.9237" lon="3.68024">
        <ele>685.5</ele>
        <time>2021-08-07T14:51:41Z</time>
      </trkpt>
      <trkpt lat="44.92364" lon="3.68009">
        <ele>684.7</ele>
        <time>2021-08-07T14:51:43Z</time>
      </trkpt>
      <trkpt lat="44.92358" lon="3.67995">
        <ele>684.1</ele>
        <time>2021-08-07T14:51:45Z</time>
      </trkpt>
      <trkpt lat="44.92352" lon="3.6798">
        <ele>683.8</ele>
        <time>2021-08-07T14:51:47Z</time>
      </trkpt>
      <trkpt lat="44.92347" lon="3.67966">
        <ele>683.2</ele>
        <time>2021-08-07T14:51:49Z</time>
      </trkpt>
      <trkpt lat="44.92341" lon="3.67955">
        <ele>683</ele>
        <time>2021-08-07T14:51:51Z</time>
      </trkpt>
      <trkpt lat="44.92338" lon="3.67946">
        <ele>682.3</ele>
        <time>2021-08-07T14:51:53Z</time>
      </trkpt>
      <trkpt lat="44.92336" lon="3.67942">
        <ele>682.2</ele>
        <time>2021-08-07T14:51:55Z</time>
      </trkpt>
      <trkpt lat="44.92337" lon="3.67942">
        <ele>682.2</ele>
        <time>2021-08-07T14:51:57Z</time>
      </trkpt>
      <trkpt lat="44.92336" lon="3.67942">
        <ele>682.1</ele>
        <time>2021-08-07T14:51:59Z</time>
      </trkpt>
      <trkpt lat="44.92336" lon="3.67941">
        <ele>682.1</ele>
        <time>2021-08-07T14:52:01Z</time>
      </trkpt>
      <trkpt lat="44.92336" lon="3.6794">
        <ele>682</ele>
        <time>2021-08-07T14:52:03Z</time>
      </trkpt>
      <trkpt lat="44.92322" lon="3.67918">
        <ele>682.7</ele>
        <time>2021-08-07T14:53:01Z</time>
      </trkpt>
      <trkpt lat="44.92316" lon="3.6791">
        <ele>683</ele>
        <time>2021-08-07T14:53:03Z</time>
      </trkpt>
      <trkpt lat="44.92311" lon="3.67901">
        <ele>683</ele>
        <time>2021-08-07T14:53:05Z</time>
      </trkpt>
      <trkpt lat="44.92305" lon="3.67891">
        <ele>683</ele>
        <time>2021-08-07T14:53:07Z</time>
      </trkpt>
      <trkpt lat="44.92298" lon="3.67879">
        <ele>682.6</ele>
        <time>2021-08-07T14:53:09Z</time>
      </trkpt>
      <trkpt lat="44.92292" lon="3.67868">
        <ele>682.1</ele>
        <time>2021-08-07T14:53:11Z</time>
      </trkpt>
      <trkpt lat="44.92284" lon="3.67856">
        <ele>681.5</ele>
        <time>2021-08-07T14:53:13Z</time>
      </trkpt>
      <trkpt lat="44.92277" lon="3.67845">
        <ele>680.5</ele>
        <time>2021-08-07T14:53:15Z</time>
      </trkpt>
      <trkpt lat="44.9227" lon="3.67833">
        <ele>679.3</ele>
        <time>2021-08-07T14:53:17Z</time>
      </trkpt>
      <trkpt lat="44.92262" lon="3.67821">
        <ele>679.1</ele>
        <time>2021-08-07T14:53:19Z</time>
      </trkpt>
      <trkpt lat="44.92255" lon="3.67809">
        <ele>678.8</ele>
        <time>2021-08-07T14:53:21Z</time>
      </trkpt>
      <trkpt lat="44.92247" lon="3.67796">
        <ele>678.2</ele>
        <time>2021-08-07T14:53:23Z</time>
      </trkpt>
      <trkpt lat="44.92239" lon="3.67783">
        <ele>677.7</ele>
        <time>2021-08-07T14:53:25Z</time>
      </trkpt>
      <trkpt lat="44.92232" lon="3.67771">
        <ele>677.1</ele>
        <time>2021-08-07T14:53:27Z</time>
      </trkpt>
      <trkpt lat="44.92224" lon="3.67758">
        <ele>676.1</ele>
        <time>2021-08-07T14:53:29Z</time>
      </trkpt>
      <trkpt lat="44.92217" lon="3.67746">
        <ele>675.4</ele>
        <time>2021-08-07T14:53:31Z</time>
      </trkpt>
      <trkpt lat="44.92209" lon="3.67734">
        <ele>675.1</ele>
        <time>2021-08-07T14:53:33Z</time>
      </trkpt>
      <trkpt lat="44.92202" lon="3.67723">
        <ele>674.7</ele>
        <time>2021-08-07T14:53:35Z</time>
      </trkpt>
      <trkpt lat="44.92195" lon="3.6771">
        <ele>674.1</ele>
        <time>2021-08-07T14:53:37Z</time>
      </trkpt>
      <trkpt lat="44.92188" lon="3.677">
        <ele>673.8</ele>
        <time>2021-08-07T14:53:39Z</time>
      </trkpt>
      <trkpt lat="44.92181" lon="3.6769">
        <ele>673.4</ele>
        <time>2021-08-07T14:53:41Z</time>
      </trkpt>
      <trkpt lat="44.92174" lon="3.67679">
        <ele>672.7</ele>
        <time>2021-08-07T14:53:43Z</time>
      </trkpt>
      <trkpt lat="44.92167" lon="3.67666">
        <ele>672</ele>
        <time>2021-08-07T14:53:45Z</time>
      </trkpt>
      <trkpt lat="44.92159" lon="3.67654">
        <ele>670</ele>
        <time>2021-08-07T14:53:47Z</time>
      </trkpt>
      <trkpt lat="44.92153" lon="3.67643">
        <ele>668.3</ele>
        <time>2021-08-07T14:53:49Z</time>
      </trkpt>
      <trkpt lat="44.92144" lon="3.67631">
        <ele>666.6</ele>
        <time>2021-08-07T14:53:51Z</time>
      </trkpt>
      <trkpt lat="44.92137" lon="3.67621">
        <ele>665.4</ele>
        <time>2021-08-07T14:53:53Z</time>
      </trkpt>
      <trkpt lat="44.92129" lon="3.67615">
        <ele>664.6</ele>
        <time>2021-08-07T14:53:55Z</time>
      </trkpt>
      <trkpt lat="44.92118" lon="3.67618">
        <ele>664.4</ele>
        <time>2021-08-07T14:53:57Z</time>
      </trkpt>
      <trkpt lat="44.92108" lon="3.67627">
        <ele>664.7</ele>
        <time>2021-08-07T14:53:59Z</time>
      </trkpt>
      <trkpt lat="44.921" lon="3.67638">
        <ele>664.9</ele>
        <time>2021-08-07T14:54:01Z</time>
      </trkpt>
      <trkpt lat="44.92093" lon="3.67652">
        <ele>665.2</ele>
        <time>2021-08-07T14:54:03Z</time>
      </trkpt>
      <trkpt lat="44.92091" lon="3.67669">
        <ele>665.9</ele>
        <time>2021-08-07T14:54:05Z</time>
      </trkpt>
      <trkpt lat="44.92089" lon="3.67687">
        <ele>667.5</ele>
        <time>2021-08-07T14:54:07Z</time>
      </trkpt>
      <trkpt lat="44.92087" lon="3.67705">
        <ele>669</ele>
        <time>2021-08-07T14:54:09Z</time>
      </trkpt>
      <trkpt lat="44.92081" lon="3.6772">
        <ele>670.6</ele>
        <time>2021-08-07T14:54:11Z</time>
      </trkpt>
      <trkpt lat="44.92071" lon="3.67731">
        <ele>673.2</ele>
        <time>2021-08-07T14:54:13Z</time>
      </trkpt>
      <trkpt lat="44.92059" lon="3.67734">
        <ele>675.2</ele>
        <time>2021-08-07T14:54:15Z</time>
      </trkpt>
      <trkpt lat="44.92049" lon="3.67732">
        <ele>676.6</ele>
        <time>2021-08-07T14:54:17Z</time>
      </trkpt>
      <trkpt lat="44.9204" lon="3.67724">
        <ele>677.6</ele>
        <time>2021-08-07T14:54:19Z</time>
      </trkpt>
      <trkpt lat="44.92034" lon="3.67713">
        <ele>677.8</ele>
        <time>2021-08-07T14:54:21Z</time>
      </trkpt>
      <trkpt lat="44.92032" lon="3.67707">
        <ele>677.8</ele>
        <time>2021-08-07T14:54:22Z</time>
      </trkpt>
      <trkpt lat="44.92029" lon="3.67688">
        <ele>677.3</ele>
        <time>2021-08-07T14:54:25Z</time>
      </trkpt>
      <trkpt lat="44.92028" lon="3.67677">
        <ele>676.9</ele>
        <time>2021-08-07T14:54:27Z</time>
      </trkpt>
      <trkpt lat="44.92027" lon="3.67667">
        <ele>676.4</ele>
        <time>2021-08-07T14:54:29Z</time>
      </trkpt>
      <trkpt lat="44.92025" lon="3.67659">
        <ele>676.5</ele>
        <time>2021-08-07T14:54:31Z</time>
      </trkpt>
      <trkpt lat="44.92025" lon="3.6765">
        <ele>676.2</ele>
        <time>2021-08-07T14:54:33Z</time>
      </trkpt>
      <trkpt lat="44.92025" lon="3.67643">
        <ele>676</ele>
        <time>2021-08-07T14:54:35Z</time>
      </trkpt>
      <trkpt lat="44.92024" lon="3.67636">
        <ele>676</ele>
        <time>2021-08-07T14:54:37Z</time>
      </trkpt>
      <trkpt lat="44.92023" lon="3.67629">
        <ele>675.9</ele>
        <time>2021-08-07T14:54:39Z</time>
      </trkpt>
      <trkpt lat="44.92023" lon="3.67621">
        <ele>675.7</ele>
        <time>2021-08-07T14:54:41Z</time>
      </trkpt>
      <trkpt lat="44.92021" lon="3.67614">
        <ele>675.8</ele>
        <time>2021-08-07T14:54:43Z</time>
      </trkpt>
      <trkpt lat="44.92022" lon="3.67607">
        <ele>675.4</ele>
        <time>2021-08-07T14:54:45Z</time>
      </trkpt>
      <trkpt lat="44.92022" lon="3.676">
        <ele>675.1</ele>
        <time>2021-08-07T14:54:47Z</time>
      </trkpt>
      <trkpt lat="44.92024" lon="3.67593">
        <ele>674.5</ele>
        <time>2021-08-07T14:54:49Z</time>
      </trkpt>
      <trkpt lat="44.92025" lon="3.67587">
        <ele>674</ele>
        <time>2021-08-07T14:54:51Z</time>
      </trkpt>
      <trkpt lat="44.92027" lon="3.6758">
        <ele>673.4</ele>
        <time>2021-08-07T14:54:53Z</time>
      </trkpt>
      <trkpt lat="44.92028" lon="3.67575">
        <ele>672.9</ele>
        <time>2021-08-07T14:54:55Z</time>
      </trkpt>
      <trkpt lat="44.9203" lon="3.67568">
        <ele>672.1</ele>
        <time>2021-08-07T14:54:57Z</time>
      </trkpt>
      <trkpt lat="44.92032" lon="3.67562">
        <ele>671.4</ele>
        <time>2021-08-07T14:54:59Z</time>
      </trkpt>
      <trkpt lat="44.92032" lon="3.67555">
        <ele>670.9</ele>
        <time>2021-08-07T14:55:01Z</time>
      </trkpt>
      <trkpt lat="44.92033" lon="3.67548">
        <ele>670.4</ele>
        <time>2021-08-07T14:55:03Z</time>
      </trkpt>
      <trkpt lat="44.92033" lon="3.67541">
        <ele>669.9</ele>
        <time>2021-08-07T14:55:05Z</time>
      </trkpt>
      <trkpt lat="44.92033" lon="3.67537">
        <ele>669.7</ele>
        <time>2021-08-07T14:55:06Z</time>
      </trkpt>
      <trkpt lat="44.92032" lon="3.67528">
        <ele>669.5</ele>
        <time>2021-08-07T14:55:09Z</time>
      </trkpt>
      <trkpt lat="44.92031" lon="3.67521">
        <ele>669.3</ele>
        <time>2021-08-07T14:55:11Z</time>
      </trkpt>
      <trkpt lat="44.9203" lon="3.67515">
        <ele>669.1</ele>
        <time>2021-08-07T14:55:13Z</time>
      </trkpt>
      <trkpt lat="44.92029" lon="3.6751">
        <ele>669</ele>
        <time>2021-08-07T14:55:15Z</time>
      </trkpt>
      <trkpt lat="44.92027" lon="3.67506">
        <ele>669.1</ele>
        <time>2021-08-07T14:55:17Z</time>
      </trkpt>
      <trkpt lat="44.92025" lon="3.675">
        <ele>669.2</ele>
        <time>2021-08-07T14:55:19Z</time>
      </trkpt>
      <trkpt lat="44.92023" lon="3.67496">
        <ele>669.1</ele>
        <time>2021-08-07T14:55:21Z</time>
      </trkpt>
      <trkpt lat="44.9202" lon="3.67493">
        <ele>669.3</ele>
        <time>2021-08-07T14:55:23Z</time>
      </trkpt>
      <trkpt lat="44.92018" lon="3.6749">
        <ele>669.5</ele>
        <time>2021-08-07T14:55:25Z</time>
      </trkpt>
      <trkpt lat="44.92015" lon="3.67486">
        <ele>669.6</ele>
        <time>2021-08-07T14:55:27Z</time>
      </trkpt>
      <trkpt lat="44.92013" lon="3.67483">
        <ele>669.8</ele>
        <time>2021-08-07T14:55:29Z</time>
      </trkpt>
      <trkpt lat="44.92011" lon="3.6748">
        <ele>669.8</ele>
        <time>2021-08-07T14:55:31Z</time>
      </trkpt>
      <trkpt lat="44.92009" lon="3.67478">
        <ele>670</ele>
        <time>2021-08-07T14:55:33Z</time>
      </trkpt>
      <trkpt lat="44.92006" lon="3.67477">
        <ele>670.3</ele>
        <time>2021-08-07T14:55:35Z</time>
      </trkpt>
      <trkpt lat="44.92004" lon="3.67477">
        <ele>670.7</ele>
        <time>2021-08-07T14:55:37Z</time>
      </trkpt>
      <trkpt lat="44.92004" lon="3.67477">
        <ele>670.8</ele>
        <time>2021-08-07T14:55:39Z</time>
      </trkpt>
      <trkpt lat="44.92004" lon="3.67477">
        <ele>670.7</ele>
        <time>2021-08-07T14:55:41Z</time>
      </trkpt>
      <trkpt lat="44.92004" lon="3.67477">
        <ele>670.7</ele>
        <time>2021-08-07T14:55:43Z</time>
      </trkpt>
      <trkpt lat="44.92004" lon="3.67477">
        <ele>670.7</ele>
        <time>2021-08-07T14:55:45Z</time>
      </trkpt>
      <trkpt lat="44.92004" lon="3.67477">
        <ele>670.7</ele>
        <time>2021-08-07T14:55:47Z</time>
      </trkpt>
      <trkpt lat="44.91991" lon="3.67472">
        <ele>672.1</ele>
        <time>2021-08-07T14:57:13Z</time>
      </trkpt>
      <trkpt lat="44.91988" lon="3.67471">
        <ele>672.5</ele>
        <time>2021-08-07T14:57:15Z</time>
      </trkpt>
      <trkpt lat="44.91983" lon="3.67466">
        <ele>672.7</ele>
        <time>2021-08-07T14:57:17Z</time>
      </trkpt>
      <trkpt lat="44.91981" lon="3.67459">
        <ele>672.5</ele>
        <time>2021-08-07T14:57:19Z</time>
      </trkpt>
      <trkpt lat="44.91979" lon="3.6745">
        <ele>672.1</ele>
        <time>2021-08-07T14:57:21Z</time>
      </trkpt>
      <trkpt lat="44.91977" lon="3.67441">
        <ele>671.6</ele>
        <time>2021-08-07T14:57:23Z</time>
      </trkpt>
      <trkpt lat="44.91975" lon="3.67432">
        <ele>671.2</ele>
        <time>2021-08-07T14:57:25Z</time>
      </trkpt>
      <trkpt lat="44.91974" lon="3.67425">
        <ele>670.7</ele>
        <time>2021-08-07T14:57:27Z</time>
      </trkpt>
      <trkpt lat="44.91974" lon="3.67418">
        <ele>670.3</ele>
        <time>2021-08-07T14:57:29Z</time>
      </trkpt>
      <trkpt lat="44.91973" lon="3.67412">
        <ele>669.7</ele>
        <time>2021-08-07T14:57:31Z</time>
      </trkpt>
      <trkpt lat="44.91973" lon="3.67406">
        <ele>669</ele>
        <time>2021-08-07T14:57:33Z</time>
      </trkpt>
      <trkpt lat="44.91973" lon="3.67401">
        <ele>668.5</ele>
        <time>2021-08-07T14:57:35Z</time>
      </trkpt>
      <trkpt lat="44.91973" lon="3.67396">
        <ele>667.9</ele>
        <time>2021-08-07T14:57:37Z</time>
      </trkpt>
      <trkpt lat="44.91973" lon="3.67391">
        <ele>667.3</ele>
        <time>2021-08-07T14:57:39Z</time>
      </trkpt>
      <trkpt lat="44.91974" lon="3.67384">
        <ele>666.5</ele>
        <time>2021-08-07T14:57:41Z</time>
      </trkpt>
      <trkpt lat="44.91974" lon="3.67379">
        <ele>665.9</ele>
        <time>2021-08-07T14:57:43Z</time>
      </trkpt>
      <trkpt lat="44.91972" lon="3.67373">
        <ele>665.4</ele>
        <time>2021-08-07T14:57:45Z</time>
      </trkpt>
      <trkpt lat="44.91972" lon="3.67366">
        <ele>664.7</ele>
        <time>2021-08-07T14:57:47Z</time>
      </trkpt>
      <trkpt lat="44.9197" lon="3.67363">
        <ele>664.6</ele>
        <time>2021-08-07T14:57:49Z</time>
      </trkpt>
      <trkpt lat="44.91968" lon="3.6736">
        <ele>664.6</ele>
        <time>2021-08-07T14:57:51Z</time>
      </trkpt>
      <trkpt lat="44.91965" lon="3.67358">
        <ele>664.6</ele>
        <time>2021-08-07T14:57:53Z</time>
      </trkpt>
      <trkpt lat="44.91961" lon="3.67355">
        <ele>664.7</ele>
        <time>2021-08-07T14:57:55Z</time>
      </trkpt>
      <trkpt lat="44.91956" lon="3.67352">
        <ele>664.8</ele>
        <time>2021-08-07T14:57:57Z</time>
      </trkpt>
      <trkpt lat="44.91956" lon="3.67351">
        <ele>664.8</ele>
        <time>2021-08-07T14:57:59Z</time>
      </trkpt>
      <trkpt lat="44.91956" lon="3.67351">
        <ele>664.7</ele>
        <time>2021-08-07T14:58:01Z</time>
      </trkpt>
      <trkpt lat="44.91957" lon="3.67351">
        <ele>664.7</ele>
        <time>2021-08-07T14:58:03Z</time>
      </trkpt>
      <trkpt lat="44.91957" lon="3.67351">
        <ele>664.7</ele>
        <time>2021-08-07T14:58:05Z</time>
      </trkpt>
      <trkpt lat="44.91957" lon="3.67351">
        <ele>664.6</ele>
        <time>2021-08-07T14:58:07Z</time>
      </trkpt>
      <trkpt lat="44.91945" lon="3.67342">
        <ele>665</ele>
        <time>2021-08-07T14:59:07Z</time>
      </trkpt>
      <trkpt lat="44.91942" lon="3.6734">
        <ele>665</ele>
        <time>2021-08-07T14:59:09Z</time>
      </trkpt>
      <trkpt lat="44.91938" lon="3.67337">
        <ele>665.1</ele>
        <time>2021-08-07T14:59:11Z</time>
      </trkpt>
      <trkpt lat="44.91935" lon="3.67335">
        <ele>665.2</ele>
        <time>2021-08-07T14:59:13Z</time>
      </trkpt>
      <trkpt lat="44.91929" lon="3.67332">
        <ele>665.5</ele>
        <time>2021-08-07T14:59:15Z</time>
      </trkpt>
      <trkpt lat="44.91924" lon="3.67328">
        <ele>665.7</ele>
        <time>2021-08-07T14:59:17Z</time>
      </trkpt>
      <trkpt lat="44.91919" lon="3.67324">
        <ele>666</ele>
        <time>2021-08-07T14:59:19Z</time>
      </trkpt>
      <trkpt lat="44.91912" lon="3.67319">
        <ele>666</ele>
        <time>2021-08-07T14:59:21Z</time>
      </trkpt>
      <trkpt lat="44.91907" lon="3.67315">
        <ele>666</ele>
        <time>2021-08-07T14:59:23Z</time>
      </trkpt>
      <trkpt lat="44.91901" lon="3.67311">
        <ele>665.9</ele>
        <time>2021-08-07T14:59:25Z</time>
      </trkpt>
      <trkpt lat="44.91896" lon="3.67306">
        <ele>665.7</ele>
        <time>2021-08-07T14:59:27Z</time>
      </trkpt>
      <trkpt lat="44.91893" lon="3.67302">
        <ele>665.5</ele>
        <time>2021-08-07T14:59:29Z</time>
      </trkpt>
      <trkpt lat="44.91888" lon="3.67301">
        <ele>665.6</ele>
        <time>2021-08-07T14:59:31Z</time>
      </trkpt>
      <trkpt lat="44.91883" lon="3.673">
        <ele>665.8</ele>
        <time>2021-08-07T14:59:33Z</time>
      </trkpt>
      <trkpt lat="44.91877" lon="3.67299">
        <ele>665.9</ele>
        <time>2021-08-07T14:59:35Z</time>
      </trkpt>
      <trkpt lat="44.91872" lon="3.67298">
        <ele>666</ele>
        <time>2021-08-07T14:59:37Z</time>
      </trkpt>
      <trkpt lat="44.91866" lon="3.67297">
        <ele>666.2</ele>
        <time>2021-08-07T14:59:39Z</time>
      </trkpt>
      <trkpt lat="44.91859" lon="3.67295">
        <ele>666.3</ele>
        <time>2021-08-07T14:59:41Z</time>
      </trkpt>
      <trkpt lat="44.91856" lon="3.67293">
        <ele>666.2</ele>
        <time>2021-08-07T14:59:42Z</time>
      </trkpt>
      <trkpt lat="44.9185" lon="3.67281">
        <ele>665.1</ele>
        <time>2021-08-07T14:59:45Z</time>
      </trkpt>
      <trkpt lat="44.91847" lon="3.6727">
        <ele>664</ele>
        <time>2021-08-07T14:59:47Z</time>
      </trkpt>
      <trkpt lat="44.91845" lon="3.67259">
        <ele>662.7</ele>
        <time>2021-08-07T14:59:49Z</time>
      </trkpt>
      <trkpt lat="44.91843" lon="3.67248">
        <ele>661.6</ele>
        <time>2021-08-07T14:59:51Z</time>
      </trkpt>
      <trkpt lat="44.9184" lon="3.67238">
        <ele>661.1</ele>
        <time>2021-08-07T14:59:53Z</time>
      </trkpt>
      <trkpt lat="44.91836" lon="3.67227">
        <ele>660.6</ele>
        <time>2021-08-07T14:59:55Z</time>
      </trkpt>
      <trkpt lat="44.91831" lon="3.67218">
        <ele>660.2</ele>
        <time>2021-08-07T14:59:57Z</time>
      </trkpt>
      <trkpt lat="44.91824" lon="3.67209">
        <ele>660.3</ele>
        <time>2021-08-07T14:59:59Z</time>
      </trkpt>
      <trkpt lat="44.91818" lon="3.67203">
        <ele>660.5</ele>
        <time>2021-08-07T15:00:01Z</time>
      </trkpt>
      <trkpt lat="44.91813" lon="3.67196">
        <ele>660.9</ele>
        <time>2021-08-07T15:00:03Z</time>
      </trkpt>
      <trkpt lat="44.91808" lon="3.67189">
        <ele>661.3</ele>
        <time>2021-08-07T15:00:05Z</time>
      </trkpt>
      <trkpt lat="44.91803" lon="3.67184">
        <ele>661.8</ele>
        <time>2021-08-07T15:00:07Z</time>
      </trkpt>
      <trkpt lat="44.91799" lon="3.67179">
        <ele>662.3</ele>
        <time>2021-08-07T15:00:09Z</time>
      </trkpt>
      <trkpt lat="44.91796" lon="3.67175">
        <ele>662.7</ele>
        <time>2021-08-07T15:00:11Z</time>
      </trkpt>
      <trkpt lat="44.91793" lon="3.67172">
        <ele>663.2</ele>
        <time>2021-08-07T15:00:13Z</time>
      </trkpt>
      <trkpt lat="44.91791" lon="3.67169">
        <ele>663.6</ele>
        <time>2021-08-07T15:00:15Z</time>
      </trkpt>
      <trkpt lat="44.91788" lon="3.67166">
        <ele>664.1</ele>
        <time>2021-08-07T15:00:17Z</time>
      </trkpt>
      <trkpt lat="44.91786" lon="3.67162">
        <ele>664.6</ele>
        <time>2021-08-07T15:00:19Z</time>
      </trkpt>
      <trkpt lat="44.91783" lon="3.67159">
        <ele>665</ele>
        <time>2021-08-07T15:00:21Z</time>
      </trkpt>
      <trkpt lat="44.91782" lon="3.67157">
        <ele>665.3</ele>
        <time>2021-08-07T15:00:23Z</time>
      </trkpt>
      <trkpt lat="44.91781" lon="3.67153">
        <ele>665.7</ele>
        <time>2021-08-07T15:00:25Z</time>
      </trkpt>
      <trkpt lat="44.91779" lon="3.67151">
        <ele>666.1</ele>
        <time>2021-08-07T15:00:27Z</time>
      </trkpt>
      <trkpt lat="44.91778" lon="3.67151">
        <ele>666.2</ele>
        <time>2021-08-07T15:00:29Z</time>
      </trkpt>
      <trkpt lat="44.91799" lon="3.67179">
        <ele>662.3</ele>
        <time>2021-08-07T15:08:59Z</time>
      </trkpt>
      <trkpt lat="44.91803" lon="3.67184">
        <ele>661.8</ele>
        <time>2021-08-07T15:09:01Z</time>
      </trkpt>
      <trkpt lat="44.91806" lon="3.67188">
        <ele>661.4</ele>
        <time>2021-08-07T15:09:03Z</time>
      </trkpt>
      <trkpt lat="44.91811" lon="3.67194">
        <ele>661</ele>
        <time>2021-08-07T15:09:05Z</time>
      </trkpt>
      <trkpt lat="44.91817" lon="3.67201">
        <ele>660.6</ele>
        <time>2021-08-07T15:09:07Z</time>
      </trkpt>
      <trkpt lat="44.91822" lon="3.67207">
        <ele>660.3</ele>
        <time>2021-08-07T15:09:09Z</time>
      </trkpt>
      <trkpt lat="44.91827" lon="3.67214">
        <ele>660.3</ele>
        <time>2021-08-07T15:09:11Z</time>
      </trkpt>
      <trkpt lat="44.91833" lon="3.67221">
        <ele>660.3</ele>
        <time>2021-08-07T15:09:13Z</time>
      </trkpt>
      <trkpt lat="44.91837" lon="3.67228">
        <ele>660.6</ele>
        <time>2021-08-07T15:09:15Z</time>
      </trkpt>
      <trkpt lat="44.91838" lon="3.67237">
        <ele>661.1</ele>
        <time>2021-08-07T15:09:17Z</time>
      </trkpt>
      <trkpt lat="44.91839" lon="3.67244">
        <ele>661.5</ele>
        <time>2021-08-07T15:09:19Z</time>
      </trkpt>
      <trkpt lat="44.91841" lon="3.6725">
        <ele>661.8</ele>
        <time>2021-08-07T15:09:21Z</time>
      </trkpt>
      <trkpt lat="44.91841" lon="3.67256">
        <ele>662.5</ele>
        <time>2021-08-07T15:09:23Z</time>
      </trkpt>
      <trkpt lat="44.91843" lon="3.67261">
        <ele>663.1</ele>
        <time>2021-08-07T15:09:25Z</time>
      </trkpt>
      <trkpt lat="44.91844" lon="3.67265">
        <ele>663.4</ele>
        <time>2021-08-07T15:09:27Z</time>
      </trkpt>
      <trkpt lat="44.91845" lon="3.67268">
        <ele>663.8</ele>
        <time>2021-08-07T15:09:29Z</time>
      </trkpt>
      <trkpt lat="44.91848" lon="3.6727">
        <ele>664</ele>
        <time>2021-08-07T15:09:31Z</time>
      </trkpt>
      <trkpt lat="44.91851" lon="3.67272">
        <ele>664</ele>
        <time>2021-08-07T15:09:33Z</time>
      </trkpt>
      <trkpt lat="44.91856" lon="3.67271">
        <ele>663.8</ele>
        <time>2021-08-07T15:09:35Z</time>
      </trkpt>
      <trkpt lat="44.91858" lon="3.67264">
        <ele>662.9</ele>
        <time>2021-08-07T15:09:37Z</time>
      </trkpt>
      <trkpt lat="44.9186" lon="3.67257">
        <ele>662.1</ele>
        <time>2021-08-07T15:09:39Z</time>
      </trkpt>
      <trkpt lat="44.91862" lon="3.67251">
        <ele>661.4</ele>
        <time>2021-08-07T15:09:41Z</time>
      </trkpt>
      <trkpt lat="44.91862" lon="3.67247">
        <ele>661.1</ele>
        <time>2021-08-07T15:09:43Z</time>
      </trkpt>
      <trkpt lat="44.91862" lon="3.67242">
        <ele>660.8</ele>
        <time>2021-08-07T15:09:45Z</time>
      </trkpt>
      <trkpt lat="44.91863" lon="3.67235">
        <ele>660.4</ele>
        <time>2021-08-07T15:09:47Z</time>
      </trkpt>
      <trkpt lat="44.91863" lon="3.67227">
        <ele>660</ele>
        <time>2021-08-07T15:09:49Z</time>
      </trkpt>
      <trkpt lat="44.91862" lon="3.6722">
        <ele>659.6</ele>
        <time>2021-08-07T15:09:51Z</time>
      </trkpt>
      <trkpt lat="44.9186" lon="3.67213">
        <ele>659.3</ele>
        <time>2021-08-07T15:09:53Z</time>
      </trkpt>
      <trkpt lat="44.91856" lon="3.67205">
        <ele>658.9</ele>
        <time>2021-08-07T15:09:55Z</time>
      </trkpt>
      <trkpt lat="44.91853" lon="3.67197">
        <ele>658.5</ele>
        <time>2021-08-07T15:09:57Z</time>
      </trkpt>
      <trkpt lat="44.91849" lon="3.67189">
        <ele>658.1</ele>
        <time>2021-08-07T15:09:59Z</time>
      </trkpt>
      <trkpt lat="44.91845" lon="3.67181">
        <ele>657.7</ele>
        <time>2021-08-07T15:10:01Z</time>
      </trkpt>
      <trkpt lat="44.91843" lon="3.67173">
        <ele>657.3</ele>
        <time>2021-08-07T15:10:03Z</time>
      </trkpt>
      <trkpt lat="44.91841" lon="3.67166">
        <ele>656.9</ele>
        <time>2021-08-07T15:10:05Z</time>
      </trkpt>
      <trkpt lat="44.91839" lon="3.67159">
        <ele>656.7</ele>
        <time>2021-08-07T15:10:07Z</time>
      </trkpt>
      <trkpt lat="44.91838" lon="3.6715">
        <ele>656.5</ele>
        <time>2021-08-07T15:10:09Z</time>
      </trkpt>
      <trkpt lat="44.91836" lon="3.6714">
        <ele>656.3</ele>
        <time>2021-08-07T15:10:11Z</time>
      </trkpt>
      <trkpt lat="44.91837" lon="3.67131">
        <ele>656.1</ele>
        <time>2021-08-07T15:10:13Z</time>
      </trkpt>
      <trkpt lat="44.91839" lon="3.67123">
        <ele>655.9</ele>
        <time>2021-08-07T15:10:15Z</time>
      </trkpt>
      <trkpt lat="44.91837" lon="3.67116">
        <ele>655.7</ele>
        <time>2021-08-07T15:10:17Z</time>
      </trkpt>
      <trkpt lat="44.91837" lon="3.6711">
        <ele>655.6</ele>
        <time>2021-08-07T15:10:19Z</time>
      </trkpt>
      <trkpt lat="44.91836" lon="3.67105">
        <ele>655.5</ele>
        <time>2021-08-07T15:10:21Z</time>
      </trkpt>
      <trkpt lat="44.91835" lon="3.671">
        <ele>655.4</ele>
        <time>2021-08-07T15:10:23Z</time>
      </trkpt>
      <trkpt lat="44.91834" lon="3.67095">
        <ele>655.3</ele>
        <time>2021-08-07T15:10:25Z</time>
      </trkpt>
      <trkpt lat="44.91832" lon="3.67088">
        <ele>655.4</ele>
        <time>2021-08-07T15:10:27Z</time>
      </trkpt>
      <trkpt lat="44.91831" lon="3.67082">
        <ele>655.6</ele>
        <time>2021-08-07T15:10:29Z</time>
      </trkpt>
      <trkpt lat="44.91829" lon="3.67074">
        <ele>656</ele>
        <time>2021-08-07T15:10:31Z</time>
      </trkpt>
      <trkpt lat="44.91827" lon="3.67067">
        <ele>656.6</ele>
        <time>2021-08-07T15:10:33Z</time>
      </trkpt>
      <trkpt lat="44.91824" lon="3.67061">
        <ele>657.1</ele>
        <time>2021-08-07T15:10:35Z</time>
      </trkpt>
      <trkpt lat="44.9182" lon="3.67055">
        <ele>657.9</ele>
        <time>2021-08-07T15:10:37Z</time>
      </trkpt>
      <trkpt lat="44.91817" lon="3.67048">
        <ele>658.6</ele>
        <time>2021-08-07T15:10:39Z</time>
      </trkpt>
      <trkpt lat="44.91814" lon="3.67041">
        <ele>659</ele>
        <time>2021-08-07T15:10:41Z</time>
      </trkpt>
      <trkpt lat="44.91811" lon="3.67034">
        <ele>659.4</ele>
        <time>2021-08-07T15:10:43Z</time>
      </trkpt>
      <trkpt lat="44.91807" lon="3.67027">
        <ele>659.9</ele>
        <time>2021-08-07T15:10:45Z</time>
      </trkpt>
      <trkpt lat="44.91803" lon="3.67021">
        <ele>660.4</ele>
        <time>2021-08-07T15:10:47Z</time>
      </trkpt>
      <trkpt lat="44.918" lon="3.67016">
        <ele>660.9</ele>
        <time>2021-08-07T15:10:49Z</time>
      </trkpt>
      <trkpt lat="44.91796" lon="3.6701">
        <ele>661.2</ele>
        <time>2021-08-07T15:10:51Z</time>
      </trkpt>
      <trkpt lat="44.91793" lon="3.67005">
        <ele>661.4</ele>
        <time>2021-08-07T15:10:53Z</time>
      </trkpt>
      <trkpt lat="44.9179" lon="3.66999">
        <ele>661.7</ele>
        <time>2021-08-07T15:10:55Z</time>
      </trkpt>
      <trkpt lat="44.91787" lon="3.66994">
        <ele>661.9</ele>
        <time>2021-08-07T15:10:57Z</time>
      </trkpt>
      <trkpt lat="44.91783" lon="3.6699">
        <ele>662.2</ele>
        <time>2021-08-07T15:10:59Z</time>
      </trkpt>
      <trkpt lat="44.9178" lon="3.66988">
        <ele>662.4</ele>
        <time>2021-08-07T15:11:01Z</time>
      </trkpt>
      <trkpt lat="44.91779" lon="3.66985">
        <ele>662.4</ele>
        <time>2021-08-07T15:11:02Z</time>
      </trkpt>
      <trkpt lat="44.91774" lon="3.66978">
        <ele>662.5</ele>
        <time>2021-08-07T15:11:05Z</time>
      </trkpt>
      <trkpt lat="44.91771" lon="3.66974">
        <ele>662.6</ele>
        <time>2021-08-07T15:11:07Z</time>
      </trkpt>
      <trkpt lat="44.91767" lon="3.6697">
        <ele>662.7</ele>
        <time>2021-08-07T15:11:09Z</time>
      </trkpt>
      <trkpt lat="44.91764" lon="3.66967">
        <ele>662.7</ele>
        <time>2021-08-07T15:11:11Z</time>
      </trkpt>
      <trkpt lat="44.91761" lon="3.66963">
        <ele>662.8</ele>
        <time>2021-08-07T15:11:13Z</time>
      </trkpt>
      <trkpt lat="44.91758" lon="3.66961">
        <ele>662.9</ele>
        <time>2021-08-07T15:11:15Z</time>
      </trkpt>
      <trkpt lat="44.91755" lon="3.66957">
        <ele>662.8</ele>
        <time>2021-08-07T15:11:17Z</time>
      </trkpt>
      <trkpt lat="44.91752" lon="3.66953">
        <ele>662.8</ele>
        <time>2021-08-07T15:11:19Z</time>
      </trkpt>
      <trkpt lat="44.9175" lon="3.66951">
        <ele>662.7</ele>
        <time>2021-08-07T15:11:21Z</time>
      </trkpt>
      <trkpt lat="44.91748" lon="3.66949">
        <ele>662.7</ele>
        <time>2021-08-07T15:11:22Z</time>
      </trkpt>
      <trkpt lat="44.91744" lon="3.66946">
        <ele>662.8</ele>
        <time>2021-08-07T15:11:25Z</time>
      </trkpt>
      <trkpt lat="44.9174" lon="3.66943">
        <ele>662.9</ele>
        <time>2021-08-07T15:11:27Z</time>
      </trkpt>
      <trkpt lat="44.91737" lon="3.6694">
        <ele>663</ele>
        <time>2021-08-07T15:11:29Z</time>
      </trkpt>
      <trkpt lat="44.91732" lon="3.66939">
        <ele>663.3</ele>
        <time>2021-08-07T15:11:31Z</time>
      </trkpt>
      <trkpt lat="44.91729" lon="3.66936">
        <ele>663.4</ele>
        <time>2021-08-07T15:11:33Z</time>
      </trkpt>
      <trkpt lat="44.91725" lon="3.66935">
        <ele>663.6</ele>
        <time>2021-08-07T15:11:35Z</time>
      </trkpt>
      <trkpt lat="44.91722" lon="3.66935">
        <ele>663.9</ele>
        <time>2021-08-07T15:11:36Z</time>
      </trkpt>
      <trkpt lat="44.91715" lon="3.66931">
        <ele>664.2</ele>
        <time>2021-08-07T15:11:39Z</time>
      </trkpt>
      <trkpt lat="44.91711" lon="3.66928">
        <ele>664.3</ele>
        <time>2021-08-07T15:11:41Z</time>
      </trkpt>
      <trkpt lat="44.91706" lon="3.66926">
        <ele>664.5</ele>
        <time>2021-08-07T15:11:43Z</time>
      </trkpt>
      <trkpt lat="44.91701" lon="3.66925">
        <ele>664.9</ele>
        <time>2021-08-07T15:11:45Z</time>
      </trkpt>
      <trkpt lat="44.91696" lon="3.66923">
        <ele>665</ele>
        <time>2021-08-07T15:11:47Z</time>
      </trkpt>
      <trkpt lat="44.91692" lon="3.66921">
        <ele>665.2</ele>
        <time>2021-08-07T15:11:49Z</time>
      </trkpt>
      <trkpt lat="44.91688" lon="3.66919">
        <ele>665.3</ele>
        <time>2021-08-07T15:11:51Z</time>
      </trkpt>
      <trkpt lat="44.91683" lon="3.66918">
        <ele>665.6</ele>
        <time>2021-08-07T15:11:53Z</time>
      </trkpt>
      <trkpt lat="44.91679" lon="3.66917">
        <ele>665.9</ele>
        <time>2021-08-07T15:11:55Z</time>
      </trkpt>
      <trkpt lat="44.91674" lon="3.66916">
        <ele>666.3</ele>
        <time>2021-08-07T15:11:57Z</time>
      </trkpt>
      <trkpt lat="44.91668" lon="3.66917">
        <ele>666.9</ele>
        <time>2021-08-07T15:11:59Z</time>
      </trkpt>
      <trkpt lat="44.91663" lon="3.66917">
        <ele>667</ele>
        <time>2021-08-07T15:12:01Z</time>
      </trkpt>
      <trkpt lat="44.91661" lon="3.66917">
        <ele>667</ele>
        <time>2021-08-07T15:12:02Z</time>
      </trkpt>
      <trkpt lat="44.91653" lon="3.66918">
        <ele>667</ele>
        <time>2021-08-07T15:12:05Z</time>
      </trkpt>
      <trkpt lat="44.91648" lon="3.66918">
        <ele>667.1</ele>
        <time>2021-08-07T15:12:07Z</time>
      </trkpt>
      <trkpt lat="44.91643" lon="3.66919">
        <ele>667.1</ele>
        <time>2021-08-07T15:12:09Z</time>
      </trkpt>
      <trkpt lat="44.91639" lon="3.66919">
        <ele>667.1</ele>
        <time>2021-08-07T15:12:11Z</time>
      </trkpt>
      <trkpt lat="44.91635" lon="3.66919">
        <ele>667</ele>
        <time>2021-08-07T15:12:13Z</time>
      </trkpt>
      <trkpt lat="44.91631" lon="3.66919">
        <ele>667</ele>
        <time>2021-08-07T15:12:15Z</time>
      </trkpt>
      <trkpt lat="44.91628" lon="3.66919">
        <ele>666.9</ele>
        <time>2021-08-07T15:12:17Z</time>
      </trkpt>
      <trkpt lat="44.91625" lon="3.66916">
        <ele>666.5</ele>
        <time>2021-08-07T15:12:19Z</time>
      </trkpt>
      <trkpt lat="44.91623" lon="3.66911">
        <ele>666.1</ele>
        <time>2021-08-07T15:12:21Z</time>
      </trkpt>
      <trkpt lat="44.91622" lon="3.66905">
        <ele>665.7</ele>
        <time>2021-08-07T15:12:23Z</time>
      </trkpt>
      <trkpt lat="44.91622" lon="3.66902">
        <ele>665.4</ele>
        <time>2021-08-07T15:12:25Z</time>
      </trkpt>
      <trkpt lat="44.91622" lon="3.66897">
        <ele>665.1</ele>
        <time>2021-08-07T15:12:27Z</time>
      </trkpt>
      <trkpt lat="44.91622" lon="3.66891">
        <ele>664.6</ele>
        <time>2021-08-07T15:12:29Z</time>
      </trkpt>
      <trkpt lat="44.91622" lon="3.66887">
        <ele>664.3</ele>
        <time>2021-08-07T15:12:31Z</time>
      </trkpt>
      <trkpt lat="44.91621" lon="3.66884">
        <ele>664.1</ele>
        <time>2021-08-07T15:12:33Z</time>
      </trkpt>
      <trkpt lat="44.9162" lon="3.66883">
        <ele>664.1</ele>
        <time>2021-08-07T15:12:35Z</time>
      </trkpt>
      <trkpt lat="44.9162" lon="3.66883">
        <ele>664.1</ele>
        <time>2021-08-07T15:12:37Z</time>
      </trkpt>
      <trkpt lat="44.9162" lon="3.66883">
        <ele>664.1</ele>
        <time>2021-08-07T15:12:39Z</time>
      </trkpt>
      <trkpt lat="44.9162" lon="3.66883">
        <ele>664.1</ele>
        <time>2021-08-07T15:12:41Z</time>
      </trkpt>
      <trkpt lat="44.9162" lon="3.66884">
        <ele>664.1</ele>
        <time>2021-08-07T15:12:42Z</time>
      </trkpt>
      <trkpt lat="44.9162" lon="3.66866">
        <ele>662.9</ele>
        <time>2021-08-07T15:14:43Z</time>
      </trkpt>
      <trkpt lat="44.91621" lon="3.6686">
        <ele>662.5</ele>
        <time>2021-08-07T15:14:45Z</time>
      </trkpt>
      <trkpt lat="44.91622" lon="3.66855">
        <ele>662.1</ele>
        <time>2021-08-07T15:14:47Z</time>
      </trkpt>
      <trkpt lat="44.91623" lon="3.66847">
        <ele>661.5</ele>
        <time>2021-08-07T15:14:49Z</time>
      </trkpt>
      <trkpt lat="44.91624" lon="3.66838">
        <ele>660.8</ele>
        <time>2021-08-07T15:14:51Z</time>
      </trkpt>
      <trkpt lat="44.91626" lon="3.6683">
        <ele>660.3</ele>
        <time>2021-08-07T15:14:53Z</time>
      </trkpt>
      <trkpt lat="44.91629" lon="3.66823">
        <ele>659.9</ele>
        <time>2021-08-07T15:14:55Z</time>
      </trkpt>
      <trkpt lat="44.91631" lon="3.66816">
        <ele>659.6</ele>
        <time>2021-08-07T15:14:57Z</time>
      </trkpt>
      <trkpt lat="44.91632" lon="3.6681">
        <ele>659.3</ele>
        <time>2021-08-07T15:14:59Z</time>
      </trkpt>
      <trkpt lat="44.91635" lon="3.66804">
        <ele>658.9</ele>
        <time>2021-08-07T15:15:01Z</time>
      </trkpt>
      <trkpt lat="44.9164" lon="3.66802">
        <ele>658.7</ele>
        <time>2021-08-07T15:15:03Z</time>
      </trkpt>
      <trkpt lat="44.91645" lon="3.66803">
        <ele>658.6</ele>
        <time>2021-08-07T15:15:05Z</time>
      </trkpt>
      <trkpt lat="44.91651" lon="3.66803">
        <ele>658.4</ele>
        <time>2021-08-07T15:15:07Z</time>
      </trkpt>
      <trkpt lat="44.91657" lon="3.66801">
        <ele>658.1</ele>
        <time>2021-08-07T15:15:09Z</time>
      </trkpt>
      <trkpt lat="44.9166" lon="3.66798">
        <ele>657.9</ele>
        <time>2021-08-07T15:15:11Z</time>
      </trkpt>
      <trkpt lat="44.91662" lon="3.66796">
        <ele>657.8</ele>
        <time>2021-08-07T15:15:13Z</time>
      </trkpt>
      <trkpt lat="44.91663" lon="3.66794">
        <ele>657.7</ele>
        <time>2021-08-07T15:15:15Z</time>
      </trkpt>
      <trkpt lat="44.91663" lon="3.6679">
        <ele>657.5</ele>
        <time>2021-08-07T15:15:17Z</time>
      </trkpt>
      <trkpt lat="44.91662" lon="3.66786">
        <ele>657.5</ele>
        <time>2021-08-07T15:15:19Z</time>
      </trkpt>
      <trkpt lat="44.91661" lon="3.66787">
        <ele>657.5</ele>
        <time>2021-08-07T15:15:21Z</time>
      </trkpt>
      <trkpt lat="44.91661" lon="3.66787">
        <ele>657.5</ele>
        <time>2021-08-07T15:15:23Z</time>
      </trkpt>
      <trkpt lat="44.91661" lon="3.66788">
        <ele>657.5</ele>
        <time>2021-08-07T15:15:25Z</time>
      </trkpt>
      <trkpt lat="44.91661" lon="3.66788">
        <ele>657.5</ele>
        <time>2021-08-07T15:15:27Z</time>
      </trkpt>
    </trkseg>
      <trkpt lat="44.91626" lon="3.669">
        <ele>665.3</ele>
        <time>2021-08-08T08:44:33Z</time>
      </trkpt>
      <trkpt lat="44.91624" lon="3.66905">
        <ele>665.6</ele>
        <time>2021-08-08T08:44:35Z</time>
      </trkpt>
      <trkpt lat="44.91625" lon="3.6691">
        <ele>666</ele>
        <time>2021-08-08T08:44:37Z</time>
      </trkpt>
      <trkpt lat="44.91625" lon="3.66915">
        <ele>666.4</ele>
        <time>2021-08-08T08:44:39Z</time>
      </trkpt>
      <trkpt lat="44.91625" lon="3.66919">
        <ele>666.9</ele>
        <time>2021-08-08T08:44:41Z</time>
      </trkpt>
      <trkpt lat="44.91626" lon="3.66921">
        <ele>667.4</ele>
        <time>2021-08-08T08:44:43Z</time>
      </trkpt>
      <trkpt lat="44.9163" lon="3.66922">
        <ele>667.6</ele>
        <time>2021-08-08T08:44:45Z</time>
      </trkpt>
      <trkpt lat="44.91635" lon="3.66922">
        <ele>667.5</ele>
        <time>2021-08-08T08:44:47Z</time>
      </trkpt>
      <trkpt lat="44.91639" lon="3.66921">
        <ele>667.4</ele>
        <time>2021-08-08T08:44:49Z</time>
      </trkpt>
      <trkpt lat="44.91643" lon="3.66921">
        <ele>667.5</ele>
        <time>2021-08-08T08:44:51Z</time>
      </trkpt>
      <trkpt lat="44.91647" lon="3.6692">
        <ele>667.3</ele>
        <time>2021-08-08T08:44:53Z</time>
      </trkpt>
      <trkpt lat="44.91652" lon="3.6692">
        <ele>667.3</ele>
        <time>2021-08-08T08:44:55Z</time>
      </trkpt>
      <trkpt lat="44.91657" lon="3.66919">
        <ele>667.2</ele>
        <time>2021-08-08T08:44:57Z</time>
      </trkpt>
      <trkpt lat="44.91662" lon="3.66918">
        <ele>667.1</ele>
        <time>2021-08-08T08:44:59Z</time>
      </trkpt>
      <trkpt lat="44.91668" lon="3.66918">
        <ele>667</ele>
        <time>2021-08-08T08:45:01Z</time>
      </trkpt>
      <trkpt lat="44.91673" lon="3.66918">
        <ele>666.5</ele>
        <time>2021-08-08T08:45:03Z</time>
      </trkpt>
      <trkpt lat="44.91678" lon="3.66919">
        <ele>666.2</ele>
        <time>2021-08-08T08:45:05Z</time>
      </trkpt>
      <trkpt lat="44.9168" lon="3.66919">
        <ele>666.1</ele>
        <time>2021-08-08T08:45:07Z</time>
      </trkpt>
      <trkpt lat="44.91684" lon="3.6692">
        <ele>665.8</ele>
        <time>2021-08-08T08:45:09Z</time>
      </trkpt>
      <trkpt lat="44.91685" lon="3.6692">
        <ele>665.8</ele>
        <time>2021-08-08T08:45:11Z</time>
      </trkpt>
      <trkpt lat="44.91689" lon="3.66921">
        <ele>665.5</ele>
        <time>2021-08-08T08:45:13Z</time>
      </trkpt>
      <trkpt lat="44.91693" lon="3.66923">
        <ele>665.3</ele>
        <time>2021-08-08T08:45:15Z</time>
      </trkpt>
      <trkpt lat="44.91698" lon="3.66925">
        <ele>665.1</ele>
        <time>2021-08-08T08:45:17Z</time>
      </trkpt>
      <trkpt lat="44.91704" lon="3.66926">
        <ele>664.8</ele>
        <time>2021-08-08T08:45:19Z</time>
      </trkpt>
      <trkpt lat="44.9171" lon="3.66928">
        <ele>664.4</ele>
        <time>2021-08-08T08:45:21Z</time>
      </trkpt>
      <trkpt lat="44.91715" lon="3.6693">
        <ele>664</ele>
        <time>2021-08-08T08:45:23Z</time>
      </trkpt>
      <trkpt lat="44.91721" lon="3.66933">
        <ele>663.7</ele>
        <time>2021-08-08T08:45:25Z</time>
      </trkpt>
      <trkpt lat="44.91727" lon="3.66936">
        <ele>663.5</ele>
        <time>2021-08-08T08:45:27Z</time>
      </trkpt>
      <trkpt lat="44.91734" lon="3.66939">
        <ele>663.2</ele>
        <time>2021-08-08T08:45:29Z</time>
      </trkpt>
      <trkpt lat="44.9174" lon="3.66942">
        <ele>662.9</ele>
        <time>2021-08-08T08:45:31Z</time>
      </trkpt>
      <trkpt lat="44.91746" lon="3.66947">
        <ele>662.7</ele>
        <time>2021-08-08T08:45:33Z</time>
      </trkpt>
      <trkpt lat="44.91752" lon="3.66952">
        <ele>662.6</ele>
        <time>2021-08-08T08:45:35Z</time>
      </trkpt>
      <trkpt lat="44.9176" lon="3.66958">
        <ele>662.5</ele>
        <time>2021-08-08T08:45:37Z</time>
      </trkpt>
      <trkpt lat="44.91766" lon="3.66965">
        <ele>662.3</ele>
        <time>2021-08-08T08:45:39Z</time>
      </trkpt>
      <trkpt lat="44.91772" lon="3.66974">
        <ele>662.4</ele>
        <time>2021-08-08T08:45:41Z</time>
      </trkpt>
      <trkpt lat="44.91779" lon="3.66983">
        <ele>662.1</ele>
        <time>2021-08-08T08:45:43Z</time>
      </trkpt>
      <trkpt lat="44.91787" lon="3.66992">
        <ele>661.8</ele>
        <time>2021-08-08T08:45:45Z</time>
      </trkpt>
      <trkpt lat="44.91794" lon="3.67004">
        <ele>661.3</ele>
        <time>2021-08-08T08:45:47Z</time>
      </trkpt>
      <trkpt lat="44.91802" lon="3.67015">
        <ele>660.5</ele>
        <time>2021-08-08T08:45:49Z</time>
      </trkpt>
      <trkpt lat="44.91808" lon="3.67028">
        <ele>659.7</ele>
        <time>2021-08-08T08:45:51Z</time>
      </trkpt>
      <trkpt lat="44.91816" lon="3.67041">
        <ele>658.6</ele>
        <time>2021-08-08T08:45:53Z</time>
      </trkpt>
      <trkpt lat="44.91822" lon="3.67053">
        <ele>657.4</ele>
        <time>2021-08-08T08:45:55Z</time>
      </trkpt>
      <trkpt lat="44.91828" lon="3.67065">
        <ele>656.3</ele>
        <time>2021-08-08T08:45:57Z</time>
      </trkpt>
      <trkpt lat="44.91832" lon="3.67077">
        <ele>655.2</ele>
        <time>2021-08-08T08:45:59Z</time>
      </trkpt>
      <trkpt lat="44.91836" lon="3.67088">
        <ele>655.1</ele>
        <time>2021-08-08T08:46:01Z</time>
      </trkpt>
      <trkpt lat="44.91839" lon="3.67101">
        <ele>655.4</ele>
        <time>2021-08-08T08:46:03Z</time>
      </trkpt>
      <trkpt lat="44.91839" lon="3.67112">
        <ele>655.6</ele>
        <time>2021-08-08T08:46:05Z</time>
      </trkpt>
      <trkpt lat="44.91839" lon="3.67126">
        <ele>656</ele>
        <time>2021-08-08T08:46:07Z</time>
      </trkpt>
      <trkpt lat="44.9184" lon="3.67142">
        <ele>656.3</ele>
        <time>2021-08-08T08:46:09Z</time>
      </trkpt>
      <trkpt lat="44.91841" lon="3.67156">
        <ele>656.6</ele>
        <time>2021-08-08T08:46:11Z</time>
      </trkpt>
      <trkpt lat="44.91845" lon="3.67168">
        <ele>656.9</ele>
        <time>2021-08-08T08:46:13Z</time>
      </trkpt>
      <trkpt lat="44.91849" lon="3.67178">
        <ele>657.5</ele>
        <time>2021-08-08T08:46:15Z</time>
      </trkpt>
      <trkpt lat="44.91853" lon="3.67188">
        <ele>658</ele>
        <time>2021-08-08T08:46:17Z</time>
      </trkpt>
      <trkpt lat="44.91856" lon="3.67197">
        <ele>658.4</ele>
        <time>2021-08-08T08:46:19Z</time>
      </trkpt>
      <trkpt lat="44.9186" lon="3.67204">
        <ele>658.8</ele>
        <time>2021-08-08T08:46:21Z</time>
      </trkpt>
      <trkpt lat="44.91861" lon="3.67212">
        <ele>659.2</ele>
        <time>2021-08-08T08:46:23Z</time>
      </trkpt>
      <trkpt lat="44.91863" lon="3.67218">
        <ele>659.5</ele>
        <time>2021-08-08T08:46:25Z</time>
      </trkpt>
      <trkpt lat="44.91863" lon="3.67223">
        <ele>659.8</ele>
        <time>2021-08-08T08:46:27Z</time>
      </trkpt>
      <trkpt lat="44.91863" lon="3.67228">
        <ele>660.1</ele>
        <time>2021-08-08T08:46:29Z</time>
      </trkpt>
      <trkpt lat="44.91865" lon="3.67232">
        <ele>660.2</ele>
        <time>2021-08-08T08:46:31Z</time>
      </trkpt>
      <trkpt lat="44.91866" lon="3.67237">
        <ele>660.5</ele>
        <time>2021-08-08T08:46:33Z</time>
      </trkpt>
      <trkpt lat="44.91867" lon="3.67241">
        <ele>660.7</ele>
        <time>2021-08-08T08:46:35Z</time>
      </trkpt>
      <trkpt lat="44.91867" lon="3.67246">
        <ele>661</ele>
        <time>2021-08-08T08:46:37Z</time>
      </trkpt>
      <trkpt lat="44.91865" lon="3.67251">
        <ele>661.3</ele>
        <time>2021-08-08T08:46:39Z</time>
      </trkpt>
      <trkpt lat="44.91864" lon="3.67256">
        <ele>661.9</ele>
        <time>2021-08-08T08:46:41Z</time>
      </trkpt>
      <trkpt lat="44.91862" lon="3.67261">
        <ele>662.5</ele>
        <time>2021-08-08T08:46:43Z</time>
      </trkpt>
      <trkpt lat="44.9186" lon="3.67265">
        <ele>663</ele>
        <time>2021-08-08T08:46:45Z</time>
      </trkpt>
      <trkpt lat="44.91857" lon="3.67268">
        <ele>663.5</ele>
        <time>2021-08-08T08:46:47Z</time>
      </trkpt>
      <trkpt lat="44.91855" lon="3.67273">
        <ele>664</ele>
        <time>2021-08-08T08:46:49Z</time>
      </trkpt>
      <trkpt lat="44.91854" lon="3.67278">
        <ele>664.6</ele>
        <time>2021-08-08T08:46:51Z</time>
      </trkpt>
      <trkpt lat="44.91851" lon="3.67279">
        <ele>664.8</ele>
        <time>2021-08-08T08:46:53Z</time>
      </trkpt>
      <trkpt lat="44.91848" lon="3.67276">
        <ele>664.6</ele>
        <time>2021-08-08T08:46:55Z</time>
      </trkpt>
      <trkpt lat="44.91847" lon="3.6727">
        <ele>664</ele>
        <time>2021-08-08T08:46:57Z</time>
      </trkpt>
      <trkpt lat="44.91846" lon="3.67263">
        <ele>663.2</ele>
        <time>2021-08-08T08:46:59Z</time>
      </trkpt>
      <trkpt lat="44.91845" lon="3.67255">
        <ele>662.3</ele>
        <time>2021-08-08T08:47:01Z</time>
      </trkpt>
      <trkpt lat="44.91843" lon="3.67245">
        <ele>661.5</ele>
        <time>2021-08-08T08:47:03Z</time>
      </trkpt>
      <trkpt lat="44.9184" lon="3.67235">
        <ele>661</ele>
        <time>2021-08-08T08:47:05Z</time>
      </trkpt>
      <trkpt lat="44.91837" lon="3.67226">
        <ele>660.5</ele>
        <time>2021-08-08T08:47:07Z</time>
      </trkpt>
      <trkpt lat="44.91832" lon="3.67218">
        <ele>660.2</ele>
        <time>2021-08-08T08:47:09Z</time>
      </trkpt>
      <trkpt lat="44.91826" lon="3.67211">
        <ele>660.2</ele>
        <time>2021-08-08T08:47:11Z</time>
      </trkpt>
      <trkpt lat="44.91821" lon="3.67204">
        <ele>660.3</ele>
        <time>2021-08-08T08:47:13Z</time>
      </trkpt>
      <trkpt lat="44.91815" lon="3.67198">
        <ele>660.6</ele>
        <time>2021-08-08T08:47:15Z</time>
      </trkpt>
      <trkpt lat="44.9181" lon="3.67191">
        <ele>661.1</ele>
        <time>2021-08-08T08:47:17Z</time>
      </trkpt>
      <trkpt lat="44.91804" lon="3.67186">
        <ele>661.6</ele>
        <time>2021-08-08T08:47:19Z</time>
      </trkpt>
      <trkpt lat="44.918" lon="3.67179">
        <ele>662.2</ele>
        <time>2021-08-08T08:47:21Z</time>
      </trkpt>
      <trkpt lat="44.91795" lon="3.67175">
        <ele>662.8</ele>
        <time>2021-08-08T08:47:23Z</time>
      </trkpt>
      <trkpt lat="44.91792" lon="3.67171">
        <ele>663.4</ele>
        <time>2021-08-08T08:47:25Z</time>
      </trkpt>
      <trkpt lat="44.91788" lon="3.67166">
        <ele>664.1</ele>
        <time>2021-08-08T08:47:27Z</time>
      </trkpt>
      <trkpt lat="44.91785" lon="3.67162">
        <ele>664.7</ele>
        <time>2021-08-08T08:47:29Z</time>
      </trkpt>
      <trkpt lat="44.9178" lon="3.6716">
        <ele>665.5</ele>
        <time>2021-08-08T08:47:31Z</time>
      </trkpt>
      <trkpt lat="44.91776" lon="3.67157">
        <ele>666.3</ele>
        <time>2021-08-08T08:47:33Z</time>
      </trkpt>
      <trkpt lat="44.91773" lon="3.67156">
        <ele>666.9</ele>
        <time>2021-08-08T08:47:35Z</time>
      </trkpt>
      <trkpt lat="44.91769" lon="3.67156">
        <ele>667.6</ele>
        <time>2021-08-08T08:47:37Z</time>
      </trkpt>
      <trkpt lat="44.91765" lon="3.67156">
        <ele>668.2</ele>
        <time>2021-08-08T08:47:39Z</time>
      </trkpt>
      <trkpt lat="44.91762" lon="3.67157">
        <ele>668.7</ele>
        <time>2021-08-08T08:47:41Z</time>
      </trkpt>
      <trkpt lat="44.91759" lon="3.67158">
        <ele>669.2</ele>
        <time>2021-08-08T08:47:43Z</time>
      </trkpt>
      <trkpt lat="44.91755" lon="3.6716">
        <ele>669.6</ele>
        <time>2021-08-08T08:47:45Z</time>
      </trkpt>
      <trkpt lat="44.91752" lon="3.67162">
        <ele>670.1</ele>
        <time>2021-08-08T08:47:47Z</time>
      </trkpt>
      <trkpt lat="44.91747" lon="3.67165">
        <ele>670.8</ele>
        <time>2021-08-08T08:47:49Z</time>
      </trkpt>
      <trkpt lat="44.91744" lon="3.67167">
        <ele>671.5</ele>
        <time>2021-08-08T08:47:51Z</time>
      </trkpt>
      <trkpt lat="44.9174" lon="3.6717">
        <ele>672.1</ele>
        <time>2021-08-08T08:47:53Z</time>
      </trkpt>
      <trkpt lat="44.91736" lon="3.67172">
        <ele>672.9</ele>
        <time>2021-08-08T08:47:55Z</time>
      </trkpt>
      <trkpt lat="44.91733" lon="3.67174">
        <ele>673.4</ele>
        <time>2021-08-08T08:47:57Z</time>
      </trkpt>
      <trkpt lat="44.9173" lon="3.67176">
        <ele>674.1</ele>
        <time>2021-08-08T08:47:59Z</time>
      </trkpt>
      <trkpt lat="44.91726" lon="3.67179">
        <ele>674.6</ele>
        <time>2021-08-08T08:48:01Z</time>
      </trkpt>
      <trkpt lat="44.91722" lon="3.6718">
        <ele>675.2</ele>
        <time>2021-08-08T08:48:03Z</time>
      </trkpt>
      <trkpt lat="44.91719" lon="3.67183">
        <ele>675.7</ele>
        <time>2021-08-08T08:48:05Z</time>
      </trkpt>
      <trkpt lat="44.91715" lon="3.67185">
        <ele>676.3</ele>
        <time>2021-08-08T08:48:07Z</time>
      </trkpt>
      <trkpt lat="44.91711" lon="3.67187">
        <ele>676.9</ele>
        <time>2021-08-08T08:48:09Z</time>
      </trkpt>
      <trkpt lat="44.91707" lon="3.67189">
        <ele>677.2</ele>
        <time>2021-08-08T08:48:11Z</time>
      </trkpt>
      <trkpt lat="44.91704" lon="3.67191">
        <ele>677.6</ele>
        <time>2021-08-08T08:48:13Z</time>
      </trkpt>
      <trkpt lat="44.91701" lon="3.67192">
        <ele>678</ele>
        <time>2021-08-08T08:48:15Z</time>
      </trkpt>
      <trkpt lat="44.91697" lon="3.67194">
        <ele>678.4</ele>
        <time>2021-08-08T08:48:17Z</time>
      </trkpt>
      <trkpt lat="44.91694" lon="3.67196">
        <ele>678.6</ele>
        <time>2021-08-08T08:48:19Z</time>
      </trkpt>
      <trkpt lat="44.9169" lon="3.67198">
        <ele>679</ele>
        <time>2021-08-08T08:48:21Z</time>
      </trkpt>
      <trkpt lat="44.91687" lon="3.672">
        <ele>679.4</ele>
        <time>2021-08-08T08:48:23Z</time>
      </trkpt>
      <trkpt lat="44.91683" lon="3.67201">
        <ele>679.7</ele>
        <time>2021-08-08T08:48:25Z</time>
      </trkpt>
      <trkpt lat="44.91679" lon="3.67202">
        <ele>680.3</ele>
        <time>2021-08-08T08:48:27Z</time>
      </trkpt>
      <trkpt lat="44.91675" lon="3.67204">
        <ele>680.5</ele>
        <time>2021-08-08T08:48:29Z</time>
      </trkpt>
      <trkpt lat="44.91672" lon="3.67205">
        <ele>680.8</ele>
        <time>2021-08-08T08:48:31Z</time>
      </trkpt>
      <trkpt lat="44.91668" lon="3.67207">
        <ele>681.1</ele>
        <time>2021-08-08T08:48:33Z</time>
      </trkpt>
      <trkpt lat="44.91664" lon="3.67209">
        <ele>681.2</ele>
        <time>2021-08-08T08:48:35Z</time>
      </trkpt>
      <trkpt lat="44.9166" lon="3.67211">
        <ele>681.4</ele>
        <time>2021-08-08T08:48:37Z</time>
      </trkpt>
      <trkpt lat="44.91657" lon="3.67213">
        <ele>681.3</ele>
        <time>2021-08-08T08:48:39Z</time>
      </trkpt>
      <trkpt lat="44.91653" lon="3.67216">
        <ele>681.4</ele>
        <time>2021-08-08T08:48:41Z</time>
      </trkpt>
      <trkpt lat="44.9165" lon="3.67218">
        <ele>681.4</ele>
        <time>2021-08-08T08:48:43Z</time>
      </trkpt>
      <trkpt lat="44.91646" lon="3.67221">
        <ele>681.3</ele>
        <time>2021-08-08T08:48:45Z</time>
      </trkpt>
      <trkpt lat="44.91643" lon="3.67223">
        <ele>681.3</ele>
        <time>2021-08-08T08:48:47Z</time>
      </trkpt>
      <trkpt lat="44.9164" lon="3.67226">
        <ele>681.3</ele>
        <time>2021-08-08T08:48:49Z</time>
      </trkpt>
      <trkpt lat="44.91637" lon="3.67228">
        <ele>681.4</ele>
        <time>2021-08-08T08:48:51Z</time>
      </trkpt>
      <trkpt lat="44.91633" lon="3.67231">
        <ele>681.2</ele>
        <time>2021-08-08T08:48:53Z</time>
      </trkpt>
      <trkpt lat="44.9163" lon="3.67234">
        <ele>681.2</ele>
        <time>2021-08-08T08:48:55Z</time>
      </trkpt>
      <trkpt lat="44.91627" lon="3.67237">
        <ele>681.1</ele>
        <time>2021-08-08T08:48:57Z</time>
      </trkpt>
      <trkpt lat="44.91624" lon="3.6724">
        <ele>681.1</ele>
        <time>2021-08-08T08:48:59Z</time>
      </trkpt>
      <trkpt lat="44.91621" lon="3.67242">
        <ele>681.1</ele>
        <time>2021-08-08T08:49:01Z</time>
      </trkpt>
      <trkpt lat="44.91618" lon="3.67246">
        <ele>680.9</ele>
        <time>2021-08-08T08:49:03Z</time>
      </trkpt>
      <trkpt lat="44.91615" lon="3.6725">
        <ele>680.6</ele>
        <time>2021-08-08T08:49:05Z</time>
      </trkpt>
      <trkpt lat="44.91611" lon="3.67254">
        <ele>680.8</ele>
        <time>2021-08-08T08:49:07Z</time>
      </trkpt>
      <trkpt lat="44.91606" lon="3.67258">
        <ele>681.1</ele>
        <time>2021-08-08T08:49:09Z</time>
      </trkpt>
      <trkpt lat="44.91602" lon="3.67263">
        <ele>681.1</ele>
        <time>2021-08-08T08:49:11Z</time>
      </trkpt>
      <trkpt lat="44.91597" lon="3.67267">
        <ele>681.1</ele>
        <time>2021-08-08T08:49:13Z</time>
      </trkpt>
      <trkpt lat="44.91592" lon="3.67272">
        <ele>681</ele>
        <time>2021-08-08T08:49:15Z</time>
      </trkpt>
      <trkpt lat="44.91587" lon="3.67277">
        <ele>680.9</ele>
        <time>2021-08-08T08:49:17Z</time>
      </trkpt>
      <trkpt lat="44.91582" lon="3.67282">
        <ele>680.3</ele>
        <time>2021-08-08T08:49:19Z</time>
      </trkpt>
      <trkpt lat="44.91577" lon="3.67287">
        <ele>678.5</ele>
        <time>2021-08-08T08:49:21Z</time>
      </trkpt>
      <trkpt lat="44.91571" lon="3.67292">
        <ele>677</ele>
        <time>2021-08-08T08:49:23Z</time>
      </trkpt>
      <trkpt lat="44.91566" lon="3.67296">
        <ele>675.5</ele>
        <time>2021-08-08T08:49:25Z</time>
      </trkpt>
      <trkpt lat="44.9156" lon="3.673">
        <ele>674.2</ele>
        <time>2021-08-08T08:49:27Z</time>
      </trkpt>
      <trkpt lat="44.91555" lon="3.67305">
        <ele>672.9</ele>
        <time>2021-08-08T08:49:29Z</time>
      </trkpt>
      <trkpt lat="44.91549" lon="3.67309">
        <ele>671.7</ele>
        <time>2021-08-08T08:49:31Z</time>
      </trkpt>
      <trkpt lat="44.91544" lon="3.67314">
        <ele>670.6</ele>
        <time>2021-08-08T08:49:33Z</time>
      </trkpt>
      <trkpt lat="44.91538" lon="3.67318">
        <ele>669.6</ele>
        <time>2021-08-08T08:49:35Z</time>
      </trkpt>
      <trkpt lat="44.91533" lon="3.67322">
        <ele>668.8</ele>
        <time>2021-08-08T08:49:37Z</time>
      </trkpt>
      <trkpt lat="44.91527" lon="3.67327">
        <ele>667.9</ele>
        <time>2021-08-08T08:49:39Z</time>
      </trkpt>
      <trkpt lat="44.91521" lon="3.67332">
        <ele>667.1</ele>
        <time>2021-08-08T08:49:41Z</time>
      </trkpt>
      <trkpt lat="44.91516" lon="3.67338">
        <ele>666.7</ele>
        <time>2021-08-08T08:49:43Z</time>
      </trkpt>
      <trkpt lat="44.91511" lon="3.67345">
        <ele>666.4</ele>
        <time>2021-08-08T08:49:45Z</time>
      </trkpt>
      <trkpt lat="44.91505" lon="3.67353">
        <ele>666.2</ele>
        <time>2021-08-08T08:49:47Z</time>
      </trkpt>
      <trkpt lat="44.91499" lon="3.67362">
        <ele>666</ele>
        <time>2021-08-08T08:49:49Z</time>
      </trkpt>
      <trkpt lat="44.91494" lon="3.67373">
        <ele>665.7</ele>
        <time>2021-08-08T08:49:51Z</time>
      </trkpt>
      <trkpt lat="44.9149" lon="3.67383">
        <ele>665.5</ele>
        <time>2021-08-08T08:49:53Z</time>
      </trkpt>
      <trkpt lat="44.91488" lon="3.67392">
        <ele>665.3</ele>
        <time>2021-08-08T08:49:55Z</time>
      </trkpt>
      <trkpt lat="44.91487" lon="3.67402">
        <ele>665.1</ele>
        <time>2021-08-08T08:49:57Z</time>
      </trkpt>
      <trkpt lat="44.91487" lon="3.67411">
        <ele>665.1</ele>
        <time>2021-08-08T08:49:59Z</time>
      </trkpt>
      <trkpt lat="44.91487" lon="3.6742">
        <ele>665.2</ele>
        <time>2021-08-08T08:50:01Z</time>
      </trkpt>
      <trkpt lat="44.91487" lon="3.67429">
        <ele>665.7</ele>
        <time>2021-08-08T08:50:03Z</time>
      </trkpt>
      <trkpt lat="44.91485" lon="3.67439">
        <ele>666</ele>
        <time>2021-08-08T08:50:05Z</time>
      </trkpt>
      <trkpt lat="44.91479" lon="3.67448">
        <ele>666.1</ele>
        <time>2021-08-08T08:50:07Z</time>
      </trkpt>
      <trkpt lat="44.91471" lon="3.67455">
        <ele>666.1</ele>
        <time>2021-08-08T08:50:09Z</time>
      </trkpt>
      <trkpt lat="44.91463" lon="3.67462">
        <ele>666.1</ele>
        <time>2021-08-08T08:50:11Z</time>
      </trkpt>
      <trkpt lat="44.91454" lon="3.67468">
        <ele>666.2</ele>
        <time>2021-08-08T08:50:13Z</time>
      </trkpt>
      <trkpt lat="44.91444" lon="3.67475">
        <ele>666.4</ele>
        <time>2021-08-08T08:50:15Z</time>
      </trkpt>
      <trkpt lat="44.91436" lon="3.67481">
        <ele>666.6</ele>
        <time>2021-08-08T08:50:17Z</time>
      </trkpt>
      <trkpt lat="44.91428" lon="3.67486">
        <ele>666.9</ele>
        <time>2021-08-08T08:50:19Z</time>
      </trkpt>
      <trkpt lat="44.91422" lon="3.67491">
        <ele>667.2</ele>
        <time>2021-08-08T08:50:21Z</time>
      </trkpt>
      <trkpt lat="44.91416" lon="3.67495">
        <ele>667.5</ele>
        <time>2021-08-08T08:50:23Z</time>
      </trkpt>
      <trkpt lat="44.91411" lon="3.67499">
        <ele>667.5</ele>
        <time>2021-08-08T08:50:25Z</time>
      </trkpt>
      <trkpt lat="44.91406" lon="3.67503">
        <ele>667.5</ele>
        <time>2021-08-08T08:50:27Z</time>
      </trkpt>
      <trkpt lat="44.91401" lon="3.67507">
        <ele>667.6</ele>
        <time>2021-08-08T08:50:29Z</time>
      </trkpt>
      <trkpt lat="44.91396" lon="3.67511">
        <ele>667.6</ele>
        <time>2021-08-08T08:50:31Z</time>
      </trkpt>
      <trkpt lat="44.91392" lon="3.67514">
        <ele>667.7</ele>
        <time>2021-08-08T08:50:33Z</time>
      </trkpt>
      <trkpt lat="44.91387" lon="3.67518">
        <ele>667.9</ele>
        <time>2021-08-08T08:50:35Z</time>
      </trkpt>
      <trkpt lat="44.91383" lon="3.67522">
        <ele>668.1</ele>
        <time>2021-08-08T08:50:37Z</time>
      </trkpt>
      <trkpt lat="44.91379" lon="3.67525">
        <ele>668.3</ele>
        <time>2021-08-08T08:50:39Z</time>
      </trkpt>
      <trkpt lat="44.91374" lon="3.67529">
        <ele>668.6</ele>
        <time>2021-08-08T08:50:41Z</time>
      </trkpt>
      <trkpt lat="44.9137" lon="3.67532">
        <ele>668.9</ele>
        <time>2021-08-08T08:50:43Z</time>
      </trkpt>
      <trkpt lat="44.91366" lon="3.67535">
        <ele>669.2</ele>
        <time>2021-08-08T08:50:45Z</time>
      </trkpt>
      <trkpt lat="44.91363" lon="3.67538">
        <ele>669.5</ele>
        <time>2021-08-08T08:50:47Z</time>
      </trkpt>
      <trkpt lat="44.9136" lon="3.67542">
        <ele>670</ele>
        <time>2021-08-08T08:50:49Z</time>
      </trkpt>
      <trkpt lat="44.91357" lon="3.67545">
        <ele>670.5</ele>
        <time>2021-08-08T08:50:51Z</time>
      </trkpt>
      <trkpt lat="44.91354" lon="3.67549">
        <ele>671</ele>
        <time>2021-08-08T08:50:53Z</time>
      </trkpt>
      <trkpt lat="44.91351" lon="3.67553">
        <ele>671.6</ele>
        <time>2021-08-08T08:50:55Z</time>
      </trkpt>
      <trkpt lat="44.91348" lon="3.67556">
        <ele>672.1</ele>
        <time>2021-08-08T08:50:57Z</time>
      </trkpt>
      <trkpt lat="44.91345" lon="3.67561">
        <ele>673</ele>
        <time>2021-08-08T08:50:59Z</time>
      </trkpt>
      <trkpt lat="44.91343" lon="3.67566">
        <ele>673.7</ele>
        <time>2021-08-08T08:51:01Z</time>
      </trkpt>
      <trkpt lat="44.91341" lon="3.67571">
        <ele>674.6</ele>
        <time>2021-08-08T08:51:03Z</time>
      </trkpt>
      <trkpt lat="44.91339" lon="3.67575">
        <ele>675.3</ele>
        <time>2021-08-08T08:51:05Z</time>
      </trkpt>
      <trkpt lat="44.91337" lon="3.67579">
        <ele>676.1</ele>
        <time>2021-08-08T08:51:07Z</time>
      </trkpt>
      <trkpt lat="44.91335" lon="3.67583">
        <ele>677</ele>
        <time>2021-08-08T08:51:09Z</time>
      </trkpt>
      <trkpt lat="44.91333" lon="3.67588">
        <ele>677.2</ele>
        <time>2021-08-08T08:51:11Z</time>
      </trkpt>
      <trkpt lat="44.91331" lon="3.67592">
        <ele>677.5</ele>
        <time>2021-08-08T08:51:13Z</time>
      </trkpt>
      <trkpt lat="44.91329" lon="3.67597">
        <ele>677.8</ele>
        <time>2021-08-08T08:51:15Z</time>
      </trkpt>
      <trkpt lat="44.91327" lon="3.67601">
        <ele>678.1</ele>
        <time>2021-08-08T08:51:17Z</time>
      </trkpt>
      <trkpt lat="44.91326" lon="3.67606">
        <ele>678.5</ele>
        <time>2021-08-08T08:51:19Z</time>
      </trkpt>
      <trkpt lat="44.91323" lon="3.6761">
        <ele>678.9</ele>
        <time>2021-08-08T08:51:21Z</time>
      </trkpt>
      <trkpt lat="44.91322" lon="3.67615">
        <ele>679.5</ele>
        <time>2021-08-08T08:51:23Z</time>
      </trkpt>
      <trkpt lat="44.9132" lon="3.67619">
        <ele>680</ele>
        <time>2021-08-08T08:51:25Z</time>
      </trkpt>
      <trkpt lat="44.91318" lon="3.67623">
        <ele>680.6</ele>
        <time>2021-08-08T08:51:27Z</time>
      </trkpt>
      <trkpt lat="44.91316" lon="3.67627">
        <ele>681.2</ele>
        <time>2021-08-08T08:51:29Z</time>
      </trkpt>
      <trkpt lat="44.91314" lon="3.67632">
        <ele>681.9</ele>
        <time>2021-08-08T08:51:31Z</time>
      </trkpt>
      <trkpt lat="44.91312" lon="3.67636">
        <ele>682.6</ele>
        <time>2021-08-08T08:51:33Z</time>
      </trkpt>
      <trkpt lat="44.9131" lon="3.67639">
        <ele>683.3</ele>
        <time>2021-08-08T08:51:35Z</time>
      </trkpt>
      <trkpt lat="44.91308" lon="3.67644">
        <ele>684.1</ele>
        <time>2021-08-08T08:51:37Z</time>
      </trkpt>
      <trkpt lat="44.91307" lon="3.67648">
        <ele>684.9</ele>
        <time>2021-08-08T08:51:39Z</time>
      </trkpt>
      <trkpt lat="44.91305" lon="3.67652">
        <ele>685.8</ele>
        <time>2021-08-08T08:51:41Z</time>
      </trkpt>
      <trkpt lat="44.91303" lon="3.67656">
        <ele>686.8</ele>
        <time>2021-08-08T08:51:43Z</time>
      </trkpt>
      <trkpt lat="44.91301" lon="3.67661">
        <ele>687.8</ele>
        <time>2021-08-08T08:51:45Z</time>
      </trkpt>
      <trkpt lat="44.913" lon="3.67665">
        <ele>688.8</ele>
        <time>2021-08-08T08:51:47Z</time>
      </trkpt>
      <trkpt lat="44.91298" lon="3.67669">
        <ele>689.5</ele>
        <time>2021-08-08T08:51:49Z</time>
      </trkpt>
      <trkpt lat="44.91296" lon="3.67673">
        <ele>689.9</ele>
        <time>2021-08-08T08:51:51Z</time>
      </trkpt>
      <trkpt lat="44.91294" lon="3.67677">
        <ele>690.2</ele>
        <time>2021-08-08T08:51:53Z</time>
      </trkpt>
      <trkpt lat="44.91292" lon="3.67681">
        <ele>690.7</ele>
        <time>2021-08-08T08:51:55Z</time>
      </trkpt>
      <trkpt lat="44.9129" lon="3.67685">
        <ele>691</ele>
        <time>2021-08-08T08:51:57Z</time>
      </trkpt>
      <trkpt lat="44.91288" lon="3.67689">
        <ele>691.4</ele>
        <time>2021-08-08T08:51:59Z</time>
      </trkpt>
      <trkpt lat="44.91286" lon="3.67692">
        <ele>691.8</ele>
        <time>2021-08-08T08:52:01Z</time>
      </trkpt>
      <trkpt lat="44.91285" lon="3.67697">
        <ele>692.2</ele>
        <time>2021-08-08T08:52:03Z</time>
      </trkpt>
      <trkpt lat="44.91283" lon="3.677">
        <ele>692.5</ele>
        <time>2021-08-08T08:52:05Z</time>
      </trkpt>
      <trkpt lat="44.91281" lon="3.67704">
        <ele>693</ele>
        <time>2021-08-08T08:52:07Z</time>
      </trkpt>
      <trkpt lat="44.91279" lon="3.67708">
        <ele>693.4</ele>
        <time>2021-08-08T08:52:09Z</time>
      </trkpt>
      <trkpt lat="44.91277" lon="3.67712">
        <ele>693.8</ele>
        <time>2021-08-08T08:52:11Z</time>
      </trkpt>
      <trkpt lat="44.91275" lon="3.67716">
        <ele>694.2</ele>
        <time>2021-08-08T08:52:13Z</time>
      </trkpt>
      <trkpt lat="44.91273" lon="3.6772">
        <ele>694.6</ele>
        <time>2021-08-08T08:52:15Z</time>
      </trkpt>
      <trkpt lat="44.91271" lon="3.67724">
        <ele>695</ele>
        <time>2021-08-08T08:52:17Z</time>
      </trkpt>
      <trkpt lat="44.91269" lon="3.67728">
        <ele>695.5</ele>
        <time>2021-08-08T08:52:19Z</time>
      </trkpt>
      <trkpt lat="44.91267" lon="3.67732">
        <ele>696</ele>
        <time>2021-08-08T08:52:21Z</time>
      </trkpt>
      <trkpt lat="44.91265" lon="3.67735">
        <ele>696.5</ele>
        <time>2021-08-08T08:52:23Z</time>
      </trkpt>
      <trkpt lat="44.91263" lon="3.67739">
        <ele>697</ele>
        <time>2021-08-08T08:52:25Z</time>
      </trkpt>
      <trkpt lat="44.9126" lon="3.67743">
        <ele>697.5</ele>
        <time>2021-08-08T08:52:27Z</time>
      </trkpt>
      <trkpt lat="44.91259" lon="3.67746">
        <ele>697.8</ele>
        <time>2021-08-08T08:52:29Z</time>
      </trkpt>
      <trkpt lat="44.91257" lon="3.67751">
        <ele>698.3</ele>
        <time>2021-08-08T08:52:31Z</time>
      </trkpt>
      <trkpt lat="44.91254" lon="3.67754">
        <ele>698.5</ele>
        <time>2021-08-08T08:52:33Z</time>
      </trkpt>
      <trkpt lat="44.91252" lon="3.67758">
        <ele>698.8</ele>
        <time>2021-08-08T08:52:35Z</time>
      </trkpt>
      <trkpt lat="44.9125" lon="3.67762">
        <ele>699.1</ele>
        <time>2021-08-08T08:52:37Z</time>
      </trkpt>
      <trkpt lat="44.91247" lon="3.67765">
        <ele>699.3</ele>
        <time>2021-08-08T08:52:39Z</time>
      </trkpt>
      <trkpt lat="44.91245" lon="3.67769">
        <ele>699.5</ele>
        <time>2021-08-08T08:52:41Z</time>
      </trkpt>
      <trkpt lat="44.91243" lon="3.67773">
        <ele>699.9</ele>
        <time>2021-08-08T08:52:43Z</time>
      </trkpt>
      <trkpt lat="44.9124" lon="3.67776">
        <ele>700.1</ele>
        <time>2021-08-08T08:52:45Z</time>
      </trkpt>
      <trkpt lat="44.91238" lon="3.6778">
        <ele>700.4</ele>
        <time>2021-08-08T08:52:47Z</time>
      </trkpt>
      <trkpt lat="44.91236" lon="3.67784">
        <ele>700.7</ele>
        <time>2021-08-08T08:52:49Z</time>
      </trkpt>
      <trkpt lat="44.91234" lon="3.67788">
        <ele>701.1</ele>
        <time>2021-08-08T08:52:51Z</time>
      </trkpt>
      <trkpt lat="44.91232" lon="3.67792">
        <ele>701.6</ele>
        <time>2021-08-08T08:52:53Z</time>
      </trkpt>
      <trkpt lat="44.91229" lon="3.67796">
        <ele>702</ele>
        <time>2021-08-08T08:52:55Z</time>
      </trkpt>
      <trkpt lat="44.91228" lon="3.678">
        <ele>702.1</ele>
        <time>2021-08-08T08:52:57Z</time>
      </trkpt>
      <trkpt lat="44.91227" lon="3.67805">
        <ele>702.4</ele>
        <time>2021-08-08T08:52:59Z</time>
      </trkpt>
      <trkpt lat="44.91226" lon="3.67809">
        <ele>702.6</ele>
        <time>2021-08-08T08:53:01Z</time>
      </trkpt>
      <trkpt lat="44.91225" lon="3.67813">
        <ele>702.6</ele>
        <time>2021-08-08T08:53:03Z</time>
      </trkpt>
      <trkpt lat="44.91224" lon="3.67818">
        <ele>703</ele>
        <time>2021-08-08T08:53:05Z</time>
      </trkpt>
      <trkpt lat="44.91223" lon="3.67823">
        <ele>702.9</ele>
        <time>2021-08-08T08:53:07Z</time>
      </trkpt>
      <trkpt lat="44.91223" lon="3.67828">
        <ele>702.8</ele>
        <time>2021-08-08T08:53:09Z</time>
      </trkpt>
      <trkpt lat="44.91222" lon="3.67832">
        <ele>703.1</ele>
        <time>2021-08-08T08:53:11Z</time>
      </trkpt>
      <trkpt lat="44.91221" lon="3.67837">
        <ele>703.5</ele>
        <time>2021-08-08T08:53:13Z</time>
      </trkpt>
      <trkpt lat="44.9122" lon="3.67842">
        <ele>703.8</ele>
        <time>2021-08-08T08:53:15Z</time>
      </trkpt>
      <trkpt lat="44.91219" lon="3.67847">
        <ele>704.1</ele>
        <time>2021-08-08T08:53:17Z</time>
      </trkpt>
      <trkpt lat="44.91218" lon="3.67852">
        <ele>704.4</ele>
        <time>2021-08-08T08:53:19Z</time>
      </trkpt>
      <trkpt lat="44.91218" lon="3.67856">
        <ele>704.7</ele>
        <time>2021-08-08T08:53:21Z</time>
      </trkpt>
      <trkpt lat="44.91217" lon="3.67861">
        <ele>704.9</ele>
        <time>2021-08-08T08:53:23Z</time>
      </trkpt>
      <trkpt lat="44.91216" lon="3.67866">
        <ele>705.2</ele>
        <time>2021-08-08T08:53:25Z</time>
      </trkpt>
      <trkpt lat="44.91215" lon="3.6787">
        <ele>705.5</ele>
        <time>2021-08-08T08:53:27Z</time>
      </trkpt>
      <trkpt lat="44.91215" lon="3.67875">
        <ele>705.8</ele>
        <time>2021-08-08T08:53:29Z</time>
      </trkpt>
      <trkpt lat="44.91214" lon="3.67879">
        <ele>706.1</ele>
        <time>2021-08-08T08:53:31Z</time>
      </trkpt>
      <trkpt lat="44.91214" lon="3.67884">
        <ele>706.3</ele>
        <time>2021-08-08T08:53:33Z</time>
      </trkpt>
      <trkpt lat="44.91213" lon="3.67888">
        <ele>706.4</ele>
        <time>2021-08-08T08:53:35Z</time>
      </trkpt>
      <trkpt lat="44.91213" lon="3.67893">
        <ele>706.6</ele>
        <time>2021-08-08T08:53:37Z</time>
      </trkpt>
      <trkpt lat="44.91211" lon="3.67898">
        <ele>707.2</ele>
        <time>2021-08-08T08:53:39Z</time>
      </trkpt>
      <trkpt lat="44.91211" lon="3.67903">
        <ele>707.5</ele>
        <time>2021-08-08T08:53:41Z</time>
      </trkpt>
      <trkpt lat="44.9121" lon="3.67907">
        <ele>707.8</ele>
        <time>2021-08-08T08:53:43Z</time>
      </trkpt>
      <trkpt lat="44.9121" lon="3.67912">
        <ele>707.9</ele>
        <time>2021-08-08T08:53:45Z</time>
      </trkpt>
      <trkpt lat="44.91209" lon="3.67917">
        <ele>708.3</ele>
        <time>2021-08-08T08:53:47Z</time>
      </trkpt>
      <trkpt lat="44.91207" lon="3.67922">
        <ele>708.7</ele>
        <time>2021-08-08T08:53:49Z</time>
      </trkpt>
      <trkpt lat="44.91206" lon="3.67927">
        <ele>709</ele>
        <time>2021-08-08T08:53:51Z</time>
      </trkpt>
      <trkpt lat="44.91205" lon="3.67931">
        <ele>709.2</ele>
        <time>2021-08-08T08:53:53Z</time>
      </trkpt>
      <trkpt lat="44.91204" lon="3.67936">
        <ele>709.6</ele>
        <time>2021-08-08T08:53:55Z</time>
      </trkpt>
      <trkpt lat="44.91203" lon="3.6794">
        <ele>709.9</ele>
        <time>2021-08-08T08:53:57Z</time>
      </trkpt>
      <trkpt lat="44.91201" lon="3.67944">
        <ele>710.4</ele>
        <time>2021-08-08T08:53:59Z</time>
      </trkpt>
      <trkpt lat="44.91199" lon="3.67949">
        <ele>710.9</ele>
        <time>2021-08-08T08:54:01Z</time>
      </trkpt>
      <trkpt lat="44.91197" lon="3.67953">
        <ele>711.3</ele>
        <time>2021-08-08T08:54:03Z</time>
      </trkpt>
      <trkpt lat="44.91196" lon="3.67957">
        <ele>711.6</ele>
        <time>2021-08-08T08:54:05Z</time>
      </trkpt>
      <trkpt lat="44.91194" lon="3.67961">
        <ele>712.2</ele>
        <time>2021-08-08T08:54:07Z</time>
      </trkpt>
      <trkpt lat="44.91192" lon="3.67965">
        <ele>712.8</ele>
        <time>2021-08-08T08:54:09Z</time>
      </trkpt>
      <trkpt lat="44.91189" lon="3.67968">
        <ele>713.5</ele>
        <time>2021-08-08T08:54:11Z</time>
      </trkpt>
      <trkpt lat="44.91187" lon="3.67972">
        <ele>714.1</ele>
        <time>2021-08-08T08:54:13Z</time>
      </trkpt>
      <trkpt lat="44.91184" lon="3.67976">
        <ele>714.8</ele>
        <time>2021-08-08T08:54:15Z</time>
      </trkpt>
      <trkpt lat="44.91182" lon="3.67979">
        <ele>715.3</ele>
        <time>2021-08-08T08:54:17Z</time>
      </trkpt>
      <trkpt lat="44.91179" lon="3.67982">
        <ele>716.1</ele>
        <time>2021-08-08T08:54:19Z</time>
      </trkpt>
      <trkpt lat="44.91176" lon="3.67985">
        <ele>716.9</ele>
        <time>2021-08-08T08:54:21Z</time>
      </trkpt>
      <trkpt lat="44.91173" lon="3.67988">
        <ele>717.7</ele>
        <time>2021-08-08T08:54:23Z</time>
      </trkpt>
      <trkpt lat="44.9117" lon="3.67991">
        <ele>718.6</ele>
        <time>2021-08-08T08:54:25Z</time>
      </trkpt>
      <trkpt lat="44.91167" lon="3.67994">
        <ele>719.5</ele>
        <time>2021-08-08T08:54:27Z</time>
      </trkpt>
      <trkpt lat="44.91164" lon="3.67996">
        <ele>719.8</ele>
        <time>2021-08-08T08:54:29Z</time>
      </trkpt>
      <trkpt lat="44.9116" lon="3.67999">
        <ele>720.1</ele>
        <time>2021-08-08T08:54:31Z</time>
      </trkpt>
      <trkpt lat="44.91158" lon="3.68001">
        <ele>720.4</ele>
        <time>2021-08-08T08:54:33Z</time>
      </trkpt>
      <trkpt lat="44.91155" lon="3.68004">
        <ele>720.5</ele>
        <time>2021-08-08T08:54:35Z</time>
      </trkpt>
      <trkpt lat="44.91152" lon="3.68007">
        <ele>720.6</ele>
        <time>2021-08-08T08:54:37Z</time>
      </trkpt>
      <trkpt lat="44.9115" lon="3.68008">
        <ele>720.8</ele>
        <time>2021-08-08T08:54:39Z</time>
      </trkpt>
      <trkpt lat="44.91147" lon="3.68011">
        <ele>721</ele>
        <time>2021-08-08T08:54:41Z</time>
      </trkpt>
      <trkpt lat="44.91145" lon="3.68014">
        <ele>721.2</ele>
        <time>2021-08-08T08:54:43Z</time>
      </trkpt>
      <trkpt lat="44.91142" lon="3.68017">
        <ele>721.4</ele>
        <time>2021-08-08T08:54:45Z</time>
      </trkpt>
      <trkpt lat="44.91139" lon="3.6802">
        <ele>721.6</ele>
        <time>2021-08-08T08:54:47Z</time>
      </trkpt>
      <trkpt lat="44.91137" lon="3.68022">
        <ele>721.8</ele>
        <time>2021-08-08T08:54:49Z</time>
      </trkpt>
      <trkpt lat="44.91134" lon="3.68026">
        <ele>721.9</ele>
        <time>2021-08-08T08:54:51Z</time>
      </trkpt>
      <trkpt lat="44.91132" lon="3.68029">
        <ele>722</ele>
        <time>2021-08-08T08:54:53Z</time>
      </trkpt>
      <trkpt lat="44.9113" lon="3.68032">
        <ele>722.3</ele>
        <time>2021-08-08T08:54:55Z</time>
      </trkpt>
      <trkpt lat="44.91127" lon="3.68035">
        <ele>722.7</ele>
        <time>2021-08-08T08:54:57Z</time>
      </trkpt>
      <trkpt lat="44.91125" lon="3.68038">
        <ele>722.9</ele>
        <time>2021-08-08T08:54:59Z</time>
      </trkpt>
      <trkpt lat="44.91122" lon="3.68042">
        <ele>723.3</ele>
        <time>2021-08-08T08:55:01Z</time>
      </trkpt>
      <trkpt lat="44.91119" lon="3.68044">
        <ele>723.6</ele>
        <time>2021-08-08T08:55:03Z</time>
      </trkpt>
      <trkpt lat="44.91117" lon="3.68048">
        <ele>724</ele>
        <time>2021-08-08T08:55:05Z</time>
      </trkpt>
      <trkpt lat="44.91115" lon="3.68051">
        <ele>724.2</ele>
        <time>2021-08-08T08:55:07Z</time>
      </trkpt>
      <trkpt lat="44.91112" lon="3.68054">
        <ele>724.5</ele>
        <time>2021-08-08T08:55:09Z</time>
      </trkpt>
      <trkpt lat="44.9111" lon="3.68057">
        <ele>724.9</ele>
        <time>2021-08-08T08:55:11Z</time>
      </trkpt>
      <trkpt lat="44.91108" lon="3.68061">
        <ele>725.2</ele>
        <time>2021-08-08T08:55:13Z</time>
      </trkpt>
      <trkpt lat="44.91106" lon="3.68065">
        <ele>725.6</ele>
        <time>2021-08-08T08:55:15Z</time>
      </trkpt>
      <trkpt lat="44.91104" lon="3.68068">
        <ele>725.8</ele>
        <time>2021-08-08T08:55:17Z</time>
      </trkpt>
      <trkpt lat="44.91102" lon="3.68071">
        <ele>726.4</ele>
        <time>2021-08-08T08:55:19Z</time>
      </trkpt>
      <trkpt lat="44.911" lon="3.68075">
        <ele>726.6</ele>
        <time>2021-08-08T08:55:21Z</time>
      </trkpt>
      <trkpt lat="44.91098" lon="3.68079">
        <ele>726.9</ele>
        <time>2021-08-08T08:55:23Z</time>
      </trkpt>
      <trkpt lat="44.91096" lon="3.68082">
        <ele>727.3</ele>
        <time>2021-08-08T08:55:25Z</time>
      </trkpt>
      <trkpt lat="44.91094" lon="3.68085">
        <ele>727.7</ele>
        <time>2021-08-08T08:55:27Z</time>
      </trkpt>
      <trkpt lat="44.91092" lon="3.68088">
        <ele>727.9</ele>
        <time>2021-08-08T08:55:29Z</time>
      </trkpt>
      <trkpt lat="44.9109" lon="3.68091">
        <ele>728</ele>
        <time>2021-08-08T08:55:31Z</time>
      </trkpt>
      <trkpt lat="44.91088" lon="3.68093">
        <ele>728.2</ele>
        <time>2021-08-08T08:55:33Z</time>
      </trkpt>
      <trkpt lat="44.91085" lon="3.68097">
        <ele>728.3</ele>
        <time>2021-08-08T08:55:35Z</time>
      </trkpt>
      <trkpt lat="44.91083" lon="3.681">
        <ele>728.4</ele>
        <time>2021-08-08T08:55:37Z</time>
      </trkpt>
      <trkpt lat="44.91081" lon="3.68103">
        <ele>728.3</ele>
        <time>2021-08-08T08:55:39Z</time>
      </trkpt>
      <trkpt lat="44.91079" lon="3.68106">
        <ele>728.2</ele>
        <time>2021-08-08T08:55:41Z</time>
      </trkpt>
      <trkpt lat="44.91076" lon="3.68109">
        <ele>728.1</ele>
        <time>2021-08-08T08:55:43Z</time>
      </trkpt>
      <trkpt lat="44.91074" lon="3.68112">
        <ele>728.1</ele>
        <time>2021-08-08T08:55:45Z</time>
      </trkpt>
      <trkpt lat="44.91071" lon="3.68115">
        <ele>728</ele>
        <time>2021-08-08T08:55:47Z</time>
      </trkpt>
      <trkpt lat="44.91068" lon="3.68118">
        <ele>728.1</ele>
        <time>2021-08-08T08:55:49Z</time>
      </trkpt>
      <trkpt lat="44.91066" lon="3.68121">
        <ele>728.1</ele>
        <time>2021-08-08T08:55:51Z</time>
      </trkpt>
      <trkpt lat="44.91063" lon="3.68123">
        <ele>728.3</ele>
        <time>2021-08-08T08:55:53Z</time>
      </trkpt>
      <trkpt lat="44.9106" lon="3.68125">
        <ele>728.5</ele>
        <time>2021-08-08T08:55:55Z</time>
      </trkpt>
      <trkpt lat="44.91057" lon="3.68127">
        <ele>728.7</ele>
        <time>2021-08-08T08:55:57Z</time>
      </trkpt>
      <trkpt lat="44.91055" lon="3.6813">
        <ele>728.9</ele>
        <time>2021-08-08T08:55:59Z</time>
      </trkpt>
      <trkpt lat="44.91052" lon="3.68132">
        <ele>729.2</ele>
        <time>2021-08-08T08:56:01Z</time>
      </trkpt>
      <trkpt lat="44.9105" lon="3.68134">
        <ele>729.3</ele>
        <time>2021-08-08T08:56:03Z</time>
      </trkpt>
      <trkpt lat="44.91047" lon="3.68137">
        <ele>729.5</ele>
        <time>2021-08-08T08:56:05Z</time>
      </trkpt>
      <trkpt lat="44.91044" lon="3.6814">
        <ele>729.8</ele>
        <time>2021-08-08T08:56:07Z</time>
      </trkpt>
      <trkpt lat="44.91041" lon="3.68142">
        <ele>730</ele>
        <time>2021-08-08T08:56:09Z</time>
      </trkpt>
      <trkpt lat="44.91039" lon="3.68145">
        <ele>730.2</ele>
        <time>2021-08-08T08:56:11Z</time>
      </trkpt>
      <trkpt lat="44.91037" lon="3.68148">
        <ele>730.4</ele>
        <time>2021-08-08T08:56:13Z</time>
      </trkpt>
      <trkpt lat="44.91034" lon="3.68151">
        <ele>730.6</ele>
        <time>2021-08-08T08:56:15Z</time>
      </trkpt>
      <trkpt lat="44.91032" lon="3.68154">
        <ele>730.8</ele>
        <time>2021-08-08T08:56:17Z</time>
      </trkpt>
      <trkpt lat="44.9103" lon="3.68157">
        <ele>731.1</ele>
        <time>2021-08-08T08:56:19Z</time>
      </trkpt>
      <trkpt lat="44.91027" lon="3.68159">
        <ele>731.5</ele>
        <time>2021-08-08T08:56:21Z</time>
      </trkpt>
      <trkpt lat="44.91025" lon="3.68162">
        <ele>731.7</ele>
        <time>2021-08-08T08:56:23Z</time>
      </trkpt>
      <trkpt lat="44.91023" lon="3.68165">
        <ele>731.9</ele>
        <time>2021-08-08T08:56:25Z</time>
      </trkpt>
      <trkpt lat="44.9102" lon="3.68168">
        <ele>732.3</ele>
        <time>2021-08-08T08:56:27Z</time>
      </trkpt>
      <trkpt lat="44.91018" lon="3.68171">
        <ele>732.5</ele>
        <time>2021-08-08T08:56:29Z</time>
      </trkpt>
      <trkpt lat="44.91015" lon="3.68175">
        <ele>732.7</ele>
        <time>2021-08-08T08:56:31Z</time>
      </trkpt>
      <trkpt lat="44.91013" lon="3.68178">
        <ele>733</ele>
        <time>2021-08-08T08:56:33Z</time>
      </trkpt>
      <trkpt lat="44.9101" lon="3.68181">
        <ele>733.1</ele>
        <time>2021-08-08T08:56:35Z</time>
      </trkpt>
      <trkpt lat="44.91008" lon="3.68186">
        <ele>733.2</ele>
        <time>2021-08-08T08:56:37Z</time>
      </trkpt>
      <trkpt lat="44.91005" lon="3.68189">
        <ele>733.4</ele>
        <time>2021-08-08T08:56:39Z</time>
      </trkpt>
      <trkpt lat="44.91003" lon="3.68192">
        <ele>733.6</ele>
        <time>2021-08-08T08:56:41Z</time>
      </trkpt>
      <trkpt lat="44.91" lon="3.68196">
        <ele>733.7</ele>
        <time>2021-08-08T08:56:43Z</time>
      </trkpt>
      <trkpt lat="44.90998" lon="3.682">
        <ele>733.8</ele>
        <time>2021-08-08T08:56:45Z</time>
      </trkpt>
      <trkpt lat="44.90995" lon="3.68203">
        <ele>733.9</ele>
        <time>2021-08-08T08:56:47Z</time>
      </trkpt>
      <trkpt lat="44.90994" lon="3.68207">
        <ele>733.9</ele>
        <time>2021-08-08T08:56:49Z</time>
      </trkpt>
      <trkpt lat="44.90991" lon="3.6821">
        <ele>734</ele>
        <time>2021-08-08T08:56:51Z</time>
      </trkpt>
      <trkpt lat="44.90989" lon="3.68214">
        <ele>734.2</ele>
        <time>2021-08-08T08:56:53Z</time>
      </trkpt>
      <trkpt lat="44.90987" lon="3.68218">
        <ele>734.3</ele>
        <time>2021-08-08T08:56:55Z</time>
      </trkpt>
      <trkpt lat="44.90984" lon="3.68221">
        <ele>734.5</ele>
        <time>2021-08-08T08:56:57Z</time>
      </trkpt>
      <trkpt lat="44.90982" lon="3.68225">
        <ele>734.6</ele>
        <time>2021-08-08T08:56:59Z</time>
      </trkpt>
      <trkpt lat="44.9098" lon="3.68229">
        <ele>734.8</ele>
        <time>2021-08-08T08:57:01Z</time>
      </trkpt>
      <trkpt lat="44.90977" lon="3.68232">
        <ele>735.1</ele>
        <time>2021-08-08T08:57:03Z</time>
      </trkpt>
      <trkpt lat="44.90975" lon="3.68236">
        <ele>735.3</ele>
        <time>2021-08-08T08:57:05Z</time>
      </trkpt>
      <trkpt lat="44.90973" lon="3.68239">
        <ele>735.6</ele>
        <time>2021-08-08T08:57:07Z</time>
      </trkpt>
      <trkpt lat="44.90971" lon="3.68243">
        <ele>735.9</ele>
        <time>2021-08-08T08:57:09Z</time>
      </trkpt>
      <trkpt lat="44.90969" lon="3.68245">
        <ele>736.2</ele>
        <time>2021-08-08T08:57:11Z</time>
      </trkpt>
      <trkpt lat="44.90966" lon="3.68249">
        <ele>736.6</ele>
        <time>2021-08-08T08:57:13Z</time>
      </trkpt>
      <trkpt lat="44.90964" lon="3.68252">
        <ele>736.9</ele>
        <time>2021-08-08T08:57:15Z</time>
      </trkpt>
      <trkpt lat="44.90961" lon="3.68256">
        <ele>737.3</ele>
        <time>2021-08-08T08:57:17Z</time>
      </trkpt>
      <trkpt lat="44.90959" lon="3.6826">
        <ele>737.7</ele>
        <time>2021-08-08T08:57:19Z</time>
      </trkpt>
      <trkpt lat="44.90957" lon="3.68263">
        <ele>737.9</ele>
        <time>2021-08-08T08:57:21Z</time>
      </trkpt>
      <trkpt lat="44.90955" lon="3.68267">
        <ele>738.3</ele>
        <time>2021-08-08T08:57:23Z</time>
      </trkpt>
      <trkpt lat="44.90953" lon="3.6827">
        <ele>738.6</ele>
        <time>2021-08-08T08:57:25Z</time>
      </trkpt>
      <trkpt lat="44.9095" lon="3.68274">
        <ele>738.9</ele>
        <time>2021-08-08T08:57:27Z</time>
      </trkpt>
      <trkpt lat="44.90948" lon="3.68278">
        <ele>739.1</ele>
        <time>2021-08-08T08:57:29Z</time>
      </trkpt>
      <trkpt lat="44.90946" lon="3.68281">
        <ele>739.5</ele>
        <time>2021-08-08T08:57:31Z</time>
      </trkpt>
      <trkpt lat="44.90945" lon="3.68286">
        <ele>739.5</ele>
        <time>2021-08-08T08:57:33Z</time>
      </trkpt>
      <trkpt lat="44.90943" lon="3.68289">
        <ele>739.7</ele>
        <time>2021-08-08T08:57:35Z</time>
      </trkpt>
      <trkpt lat="44.90942" lon="3.68293">
        <ele>739.7</ele>
        <time>2021-08-08T08:57:37Z</time>
      </trkpt>
      <trkpt lat="44.90939" lon="3.68297">
        <ele>740</ele>
        <time>2021-08-08T08:57:39Z</time>
      </trkpt>
      <trkpt lat="44.90939" lon="3.68301">
        <ele>739.9</ele>
        <time>2021-08-08T08:57:41Z</time>
      </trkpt>
      <trkpt lat="44.90936" lon="3.68304">
        <ele>740.3</ele>
        <time>2021-08-08T08:57:43Z</time>
      </trkpt>
      <trkpt lat="44.90934" lon="3.68308">
        <ele>740.5</ele>
        <time>2021-08-08T08:57:45Z</time>
      </trkpt>
      <trkpt lat="44.90933" lon="3.68312">
        <ele>740.5</ele>
        <time>2021-08-08T08:57:47Z</time>
      </trkpt>
      <trkpt lat="44.90931" lon="3.68315">
        <ele>740.8</ele>
        <time>2021-08-08T08:57:49Z</time>
      </trkpt>
      <trkpt lat="44.90929" lon="3.68319">
        <ele>741.1</ele>
        <time>2021-08-08T08:57:51Z</time>
      </trkpt>
      <trkpt lat="44.90927" lon="3.68322">
        <ele>741.3</ele>
        <time>2021-08-08T08:57:53Z</time>
      </trkpt>
      <trkpt lat="44.90924" lon="3.68325">
        <ele>741.7</ele>
        <time>2021-08-08T08:57:55Z</time>
      </trkpt>
      <trkpt lat="44.90922" lon="3.68328">
        <ele>742</ele>
        <time>2021-08-08T08:57:57Z</time>
      </trkpt>
      <trkpt lat="44.9092" lon="3.68331">
        <ele>742.3</ele>
        <time>2021-08-08T08:57:59Z</time>
      </trkpt>
      <trkpt lat="44.90917" lon="3.68334">
        <ele>742.8</ele>
        <time>2021-08-08T08:58:01Z</time>
      </trkpt>
      <trkpt lat="44.90914" lon="3.68336">
        <ele>743</ele>
        <time>2021-08-08T08:58:03Z</time>
      </trkpt>
      <trkpt lat="44.90911" lon="3.68339">
        <ele>743.1</ele>
        <time>2021-08-08T08:58:05Z</time>
      </trkpt>
      <trkpt lat="44.90908" lon="3.68341">
        <ele>743.3</ele>
        <time>2021-08-08T08:58:07Z</time>
      </trkpt>
      <trkpt lat="44.90906" lon="3.68343">
        <ele>743.4</ele>
        <time>2021-08-08T08:58:09Z</time>
      </trkpt>
      <trkpt lat="44.90903" lon="3.68345">
        <ele>743.6</ele>
        <time>2021-08-08T08:58:11Z</time>
      </trkpt>
      <trkpt lat="44.909" lon="3.68347">
        <ele>743.8</ele>
        <time>2021-08-08T08:58:13Z</time>
      </trkpt>
      <trkpt lat="44.90897" lon="3.68349">
        <ele>743.9</ele>
        <time>2021-08-08T08:58:15Z</time>
      </trkpt>
      <trkpt lat="44.90894" lon="3.68351">
        <ele>744.2</ele>
        <time>2021-08-08T08:58:17Z</time>
      </trkpt>
      <trkpt lat="44.90891" lon="3.68353">
        <ele>744.4</ele>
        <time>2021-08-08T08:58:19Z</time>
      </trkpt>
      <trkpt lat="44.90888" lon="3.68354">
        <ele>744.7</ele>
        <time>2021-08-08T08:58:21Z</time>
      </trkpt>
      <trkpt lat="44.90885" lon="3.68356">
        <ele>744.9</ele>
        <time>2021-08-08T08:58:23Z</time>
      </trkpt>
      <trkpt lat="44.90882" lon="3.68357">
        <ele>745.2</ele>
        <time>2021-08-08T08:58:25Z</time>
      </trkpt>
      <trkpt lat="44.90879" lon="3.68359">
        <ele>745.6</ele>
        <time>2021-08-08T08:58:27Z</time>
      </trkpt>
      <trkpt lat="44.90877" lon="3.68361">
        <ele>745.8</ele>
        <time>2021-08-08T08:58:29Z</time>
      </trkpt>
      <trkpt lat="44.90873" lon="3.68362">
        <ele>746.2</ele>
        <time>2021-08-08T08:58:31Z</time>
      </trkpt>
      <trkpt lat="44.9087" lon="3.68363">
        <ele>746.6</ele>
        <time>2021-08-08T08:58:33Z</time>
      </trkpt>
      <trkpt lat="44.90867" lon="3.68364">
        <ele>746.9</ele>
        <time>2021-08-08T08:58:35Z</time>
      </trkpt>
      <trkpt lat="44.90864" lon="3.68365">
        <ele>747.4</ele>
        <time>2021-08-08T08:58:37Z</time>
      </trkpt>
      <trkpt lat="44.9086" lon="3.68366">
        <ele>747.9</ele>
        <time>2021-08-08T08:58:39Z</time>
      </trkpt>
      <trkpt lat="44.90857" lon="3.68366">
        <ele>748.4</ele>
        <time>2021-08-08T08:58:41Z</time>
      </trkpt>
      <trkpt lat="44.90854" lon="3.68367">
        <ele>748.9</ele>
        <time>2021-08-08T08:58:43Z</time>
      </trkpt>
      <trkpt lat="44.90851" lon="3.68367">
        <ele>749.3</ele>
        <time>2021-08-08T08:58:45Z</time>
      </trkpt>
      <trkpt lat="44.90848" lon="3.68367">
        <ele>749.8</ele>
        <time>2021-08-08T08:58:47Z</time>
      </trkpt>
      <trkpt lat="44.90845" lon="3.68367">
        <ele>750.3</ele>
        <time>2021-08-08T08:58:49Z</time>
      </trkpt>
      <trkpt lat="44.90842" lon="3.68368">
        <ele>750.7</ele>
        <time>2021-08-08T08:58:51Z</time>
      </trkpt>
      <trkpt lat="44.90839" lon="3.68368">
        <ele>751.2</ele>
        <time>2021-08-08T08:58:53Z</time>
      </trkpt>
      <trkpt lat="44.90835" lon="3.68368">
        <ele>751.7</ele>
        <time>2021-08-08T08:58:55Z</time>
      </trkpt>
      <trkpt lat="44.90832" lon="3.68369">
        <ele>752.2</ele>
        <time>2021-08-08T08:58:57Z</time>
      </trkpt>
      <trkpt lat="44.90829" lon="3.68369">
        <ele>752.5</ele>
        <time>2021-08-08T08:58:59Z</time>
      </trkpt>
      <trkpt lat="44.90826" lon="3.68371">
        <ele>752.9</ele>
        <time>2021-08-08T08:59:01Z</time>
      </trkpt>
      <trkpt lat="44.90822" lon="3.68372">
        <ele>753.3</ele>
        <time>2021-08-08T08:59:03Z</time>
      </trkpt>
      <trkpt lat="44.90819" lon="3.68372">
        <ele>753.6</ele>
        <time>2021-08-08T08:59:05Z</time>
      </trkpt>
      <trkpt lat="44.90816" lon="3.68375">
        <ele>753.9</ele>
        <time>2021-08-08T08:59:07Z</time>
      </trkpt>
      <trkpt lat="44.90813" lon="3.68377">
        <ele>754.1</ele>
        <time>2021-08-08T08:59:09Z</time>
      </trkpt>
      <trkpt lat="44.90811" lon="3.68379">
        <ele>754.3</ele>
        <time>2021-08-08T08:59:11Z</time>
      </trkpt>
      <trkpt lat="44.90808" lon="3.68382">
        <ele>754.4</ele>
        <time>2021-08-08T08:59:13Z</time>
      </trkpt>
      <trkpt lat="44.90806" lon="3.68385">
        <ele>754.6</ele>
        <time>2021-08-08T08:59:15Z</time>
      </trkpt>
      <trkpt lat="44.90803" lon="3.68388">
        <ele>754.7</ele>
        <time>2021-08-08T08:59:17Z</time>
      </trkpt>
      <trkpt lat="44.90801" lon="3.68391">
        <ele>754.8</ele>
        <time>2021-08-08T08:59:19Z</time>
      </trkpt>
      <trkpt lat="44.90798" lon="3.68394">
        <ele>755</ele>
        <time>2021-08-08T08:59:21Z</time>
      </trkpt>
      <trkpt lat="44.90796" lon="3.68397">
        <ele>755.1</ele>
        <time>2021-08-08T08:59:23Z</time>
      </trkpt>
      <trkpt lat="44.90793" lon="3.68399">
        <ele>755.4</ele>
        <time>2021-08-08T08:59:25Z</time>
      </trkpt>
      <trkpt lat="44.90791" lon="3.68402">
        <ele>755.6</ele>
        <time>2021-08-08T08:59:27Z</time>
      </trkpt>
      <trkpt lat="44.90788" lon="3.68404">
        <ele>755.8</ele>
        <time>2021-08-08T08:59:29Z</time>
      </trkpt>
      <trkpt lat="44.90785" lon="3.68407">
        <ele>756.1</ele>
        <time>2021-08-08T08:59:31Z</time>
      </trkpt>
      <trkpt lat="44.90783" lon="3.68409">
        <ele>756.4</ele>
        <time>2021-08-08T08:59:33Z</time>
      </trkpt>
      <trkpt lat="44.9078" lon="3.68412">
        <ele>756.7</ele>
        <time>2021-08-08T08:59:35Z</time>
      </trkpt>
      <trkpt lat="44.90777" lon="3.68414">
        <ele>757</ele>
        <time>2021-08-08T08:59:37Z</time>
      </trkpt>
      <trkpt lat="44.90773" lon="3.68416">
        <ele>757.4</ele>
        <time>2021-08-08T08:59:39Z</time>
      </trkpt>
      <trkpt lat="44.90771" lon="3.68417">
        <ele>757.8</ele>
        <time>2021-08-08T08:59:41Z</time>
      </trkpt>
      <trkpt lat="44.90767" lon="3.68418">
        <ele>758.3</ele>
        <time>2021-08-08T08:59:43Z</time>
      </trkpt>
      <trkpt lat="44.90764" lon="3.68419">
        <ele>758.8</ele>
        <time>2021-08-08T08:59:45Z</time>
      </trkpt>
      <trkpt lat="44.9076" lon="3.6842">
        <ele>759.3</ele>
        <time>2021-08-08T08:59:47Z</time>
      </trkpt>
      <trkpt lat="44.90757" lon="3.6842">
        <ele>759.9</ele>
        <time>2021-08-08T08:59:49Z</time>
      </trkpt>
      <trkpt lat="44.90753" lon="3.6842">
        <ele>760.4</ele>
        <time>2021-08-08T08:59:51Z</time>
      </trkpt>
      <trkpt lat="44.9075" lon="3.68421">
        <ele>760.9</ele>
        <time>2021-08-08T08:59:53Z</time>
      </trkpt>
      <trkpt lat="44.90746" lon="3.68422">
        <ele>761.2</ele>
        <time>2021-08-08T08:59:55Z</time>
      </trkpt>
      <trkpt lat="44.90743" lon="3.68421">
        <ele>761.4</ele>
        <time>2021-08-08T08:59:57Z</time>
      </trkpt>
      <trkpt lat="44.90739" lon="3.68422">
        <ele>761.6</ele>
        <time>2021-08-08T08:59:59Z</time>
      </trkpt>
      <trkpt lat="44.90736" lon="3.68422">
        <ele>761.9</ele>
        <time>2021-08-08T09:00:01Z</time>
      </trkpt>
      <trkpt lat="44.90732" lon="3.68422">
        <ele>762.2</ele>
        <time>2021-08-08T09:00:03Z</time>
      </trkpt>
      <trkpt lat="44.90728" lon="3.68422">
        <ele>762.4</ele>
        <time>2021-08-08T09:00:05Z</time>
      </trkpt>
      <trkpt lat="44.90724" lon="3.68422">
        <ele>762.7</ele>
        <time>2021-08-08T09:00:07Z</time>
      </trkpt>
      <trkpt lat="44.9072" lon="3.68423">
        <ele>763</ele>
        <time>2021-08-08T09:00:09Z</time>
      </trkpt>
      <trkpt lat="44.90716" lon="3.68423">
        <ele>763.2</ele>
        <time>2021-08-08T09:00:11Z</time>
      </trkpt>
      <trkpt lat="44.90712" lon="3.68423">
        <ele>763.5</ele>
        <time>2021-08-08T09:00:13Z</time>
      </trkpt>
      <trkpt lat="44.90708" lon="3.68424">
        <ele>763.8</ele>
        <time>2021-08-08T09:00:15Z</time>
      </trkpt>
      <trkpt lat="44.90705" lon="3.68425">
        <ele>764</ele>
        <time>2021-08-08T09:00:17Z</time>
      </trkpt>
      <trkpt lat="44.90701" lon="3.68424">
        <ele>764.3</ele>
        <time>2021-08-08T09:00:19Z</time>
      </trkpt>
      <trkpt lat="44.90698" lon="3.68425">
        <ele>764.5</ele>
        <time>2021-08-08T09:00:21Z</time>
      </trkpt>
      <trkpt lat="44.90694" lon="3.68424">
        <ele>764.8</ele>
        <time>2021-08-08T09:00:23Z</time>
      </trkpt>
      <trkpt lat="44.9069" lon="3.68426">
        <ele>765</ele>
        <time>2021-08-08T09:00:25Z</time>
      </trkpt>
      <trkpt lat="44.90687" lon="3.68426">
        <ele>765.3</ele>
        <time>2021-08-08T09:00:27Z</time>
      </trkpt>
      <trkpt lat="44.90683" lon="3.68426">
        <ele>765.5</ele>
        <time>2021-08-08T09:00:29Z</time>
      </trkpt>
      <trkpt lat="44.90679" lon="3.68426">
        <ele>765.8</ele>
        <time>2021-08-08T09:00:31Z</time>
      </trkpt>
      <trkpt lat="44.90675" lon="3.68426">
        <ele>766.1</ele>
        <time>2021-08-08T09:00:33Z</time>
      </trkpt>
      <trkpt lat="44.90671" lon="3.68426">
        <ele>766.3</ele>
        <time>2021-08-08T09:00:35Z</time>
      </trkpt>
      <trkpt lat="44.90668" lon="3.68426">
        <ele>766.6</ele>
        <time>2021-08-08T09:00:37Z</time>
      </trkpt>
      <trkpt lat="44.90664" lon="3.68427">
        <ele>766.8</ele>
        <time>2021-08-08T09:00:39Z</time>
      </trkpt>
      <trkpt lat="44.90661" lon="3.68429">
        <ele>767.1</ele>
        <time>2021-08-08T09:00:41Z</time>
      </trkpt>
      <trkpt lat="44.90657" lon="3.68429">
        <ele>767.4</ele>
        <time>2021-08-08T09:00:43Z</time>
      </trkpt>
      <trkpt lat="44.90653" lon="3.68429">
        <ele>767.7</ele>
        <time>2021-08-08T09:00:45Z</time>
      </trkpt>
      <trkpt lat="44.9065" lon="3.6843">
        <ele>767.9</ele>
        <time>2021-08-08T09:00:47Z</time>
      </trkpt>
      <trkpt lat="44.90646" lon="3.68429">
        <ele>768.3</ele>
        <time>2021-08-08T09:00:49Z</time>
      </trkpt>
      <trkpt lat="44.90643" lon="3.68429">
        <ele>768.5</ele>
        <time>2021-08-08T09:00:51Z</time>
      </trkpt>
      <trkpt lat="44.90639" lon="3.6843">
        <ele>768.8</ele>
        <time>2021-08-08T09:00:53Z</time>
      </trkpt>
      <trkpt lat="44.90636" lon="3.6843">
        <ele>769.1</ele>
        <time>2021-08-08T09:00:55Z</time>
      </trkpt>
      <trkpt lat="44.90632" lon="3.68431">
        <ele>769.4</ele>
        <time>2021-08-08T09:00:57Z</time>
      </trkpt>
      <trkpt lat="44.90629" lon="3.68431">
        <ele>769.7</ele>
        <time>2021-08-08T09:00:59Z</time>
      </trkpt>
      <trkpt lat="44.90625" lon="3.68432">
        <ele>770</ele>
        <time>2021-08-08T09:01:01Z</time>
      </trkpt>
      <trkpt lat="44.90622" lon="3.68433">
        <ele>770.2</ele>
        <time>2021-08-08T09:01:03Z</time>
      </trkpt>
      <trkpt lat="44.90618" lon="3.68432">
        <ele>770.5</ele>
        <time>2021-08-08T09:01:05Z</time>
      </trkpt>
      <trkpt lat="44.90615" lon="3.68431">
        <ele>770.8</ele>
        <time>2021-08-08T09:01:07Z</time>
      </trkpt>
      <trkpt lat="44.90611" lon="3.68432">
        <ele>771.1</ele>
        <time>2021-08-08T09:01:09Z</time>
      </trkpt>
      <trkpt lat="44.90607" lon="3.68432">
        <ele>771.4</ele>
        <time>2021-08-08T09:01:11Z</time>
      </trkpt>
      <trkpt lat="44.90604" lon="3.68433">
        <ele>771.7</ele>
        <time>2021-08-08T09:01:13Z</time>
      </trkpt>
      <trkpt lat="44.90601" lon="3.68434">
        <ele>771.9</ele>
        <time>2021-08-08T09:01:15Z</time>
      </trkpt>
      <trkpt lat="44.90598" lon="3.68435">
        <ele>772.1</ele>
        <time>2021-08-08T09:01:17Z</time>
      </trkpt>
      <trkpt lat="44.90595" lon="3.68434">
        <ele>772.4</ele>
        <time>2021-08-08T09:01:19Z</time>
      </trkpt>
      <trkpt lat="44.90592" lon="3.68435">
        <ele>772.6</ele>
        <time>2021-08-08T09:01:21Z</time>
      </trkpt>
      <trkpt lat="44.9059" lon="3.68435">
        <ele>772.8</ele>
        <time>2021-08-08T09:01:23Z</time>
      </trkpt>
      <trkpt lat="44.90587" lon="3.68435">
        <ele>773</ele>
        <time>2021-08-08T09:01:25Z</time>
      </trkpt>
      <trkpt lat="44.90584" lon="3.68433">
        <ele>773.3</ele>
        <time>2021-08-08T09:01:27Z</time>
      </trkpt>
      <trkpt lat="44.90581" lon="3.68434">
        <ele>773.5</ele>
        <time>2021-08-08T09:01:29Z</time>
      </trkpt>
      <trkpt lat="44.90578" lon="3.68435">
        <ele>773.6</ele>
        <time>2021-08-08T09:01:31Z</time>
      </trkpt>
      <trkpt lat="44.90575" lon="3.68435">
        <ele>773.8</ele>
        <time>2021-08-08T09:01:33Z</time>
      </trkpt>
      <trkpt lat="44.90572" lon="3.68435">
        <ele>773.9</ele>
        <time>2021-08-08T09:01:35Z</time>
      </trkpt>
      <trkpt lat="44.90568" lon="3.68435">
        <ele>774.1</ele>
        <time>2021-08-08T09:01:37Z</time>
      </trkpt>
      <trkpt lat="44.90565" lon="3.68435">
        <ele>774.2</ele>
        <time>2021-08-08T09:01:39Z</time>
      </trkpt>
      <trkpt lat="44.90562" lon="3.68435">
        <ele>774.3</ele>
        <time>2021-08-08T09:01:41Z</time>
      </trkpt>
      <trkpt lat="44.9056" lon="3.68435">
        <ele>774.5</ele>
        <time>2021-08-08T09:01:43Z</time>
      </trkpt>
      <trkpt lat="44.90558" lon="3.68436">
        <ele>774.5</ele>
        <time>2021-08-08T09:01:45Z</time>
      </trkpt>
      <trkpt lat="44.90558" lon="3.6844">
        <ele>774.4</ele>
        <time>2021-08-08T09:01:47Z</time>
      </trkpt>
      <trkpt lat="44.9056" lon="3.68441">
        <ele>774.3</ele>
        <time>2021-08-08T09:01:49Z</time>
      </trkpt>
      <trkpt lat="44.9056" lon="3.6844">
        <ele>774.3</ele>
        <time>2021-08-08T09:01:51Z</time>
      </trkpt>
      <trkpt lat="44.9056" lon="3.6844">
        <ele>774.3</ele>
        <time>2021-08-08T09:01:53Z</time>
      </trkpt>
      <trkpt lat="44.9056" lon="3.6844">
        <ele>774.3</ele>
        <time>2021-08-08T09:01:55Z</time>
      </trkpt>
      <trkpt lat="44.9056" lon="3.68439">
        <ele>774.3</ele>
        <time>2021-08-08T09:01:57Z</time>
      </trkpt>
      <trkpt lat="44.90556" lon="3.68421">
        <ele>774.9</ele>
        <time>2021-08-08T09:05:43Z</time>
      </trkpt>
      <trkpt lat="44.90551" lon="3.68418">
        <ele>775.1</ele>
        <time>2021-08-08T09:05:45Z</time>
      </trkpt>
      <trkpt lat="44.90547" lon="3.68414">
        <ele>775.4</ele>
        <time>2021-08-08T09:05:47Z</time>
      </trkpt>
      <trkpt lat="44.90543" lon="3.68411">
        <ele>775.7</ele>
        <time>2021-08-08T09:05:49Z</time>
      </trkpt>
      <trkpt lat="44.90539" lon="3.68408">
        <ele>775.9</ele>
        <time>2021-08-08T09:05:51Z</time>
      </trkpt>
      <trkpt lat="44.90535" lon="3.68404">
        <ele>776.1</ele>
        <time>2021-08-08T09:05:53Z</time>
      </trkpt>
      <trkpt lat="44.90532" lon="3.68401">
        <ele>776.3</ele>
        <time>2021-08-08T09:05:55Z</time>
      </trkpt>
      <trkpt lat="44.90527" lon="3.68398">
        <ele>776.5</ele>
        <time>2021-08-08T09:05:57Z</time>
      </trkpt>
      <trkpt lat="44.90523" lon="3.68396">
        <ele>776.7</ele>
        <time>2021-08-08T09:05:59Z</time>
      </trkpt>
      <trkpt lat="44.90519" lon="3.68393">
        <ele>776.9</ele>
        <time>2021-08-08T09:06:01Z</time>
      </trkpt>
      <trkpt lat="44.90515" lon="3.68394">
        <ele>776.9</ele>
        <time>2021-08-08T09:06:03Z</time>
      </trkpt>
      <trkpt lat="44.90511" lon="3.68397">
        <ele>777</ele>
        <time>2021-08-08T09:06:05Z</time>
      </trkpt>
      <trkpt lat="44.90507" lon="3.68399">
        <ele>777</ele>
        <time>2021-08-08T09:06:07Z</time>
      </trkpt>
      <trkpt lat="44.90503" lon="3.68401">
        <ele>777.1</ele>
        <time>2021-08-08T09:06:09Z</time>
      </trkpt>
      <trkpt lat="44.905" lon="3.68402">
        <ele>777.2</ele>
        <time>2021-08-08T09:06:11Z</time>
      </trkpt>
      <trkpt lat="44.90497" lon="3.68405">
        <ele>777.1</ele>
        <time>2021-08-08T09:06:13Z</time>
      </trkpt>
      <trkpt lat="44.90495" lon="3.68408">
        <ele>777</ele>
        <time>2021-08-08T09:06:15Z</time>
      </trkpt>
      <trkpt lat="44.90492" lon="3.68411">
        <ele>776.9</ele>
        <time>2021-08-08T09:06:17Z</time>
      </trkpt>
      <trkpt lat="44.90489" lon="3.68413">
        <ele>776.9</ele>
        <time>2021-08-08T09:06:19Z</time>
      </trkpt>
      <trkpt lat="44.90488" lon="3.68417">
        <ele>776.9</ele>
        <time>2021-08-08T09:06:21Z</time>
      </trkpt>
      <trkpt lat="44.90487" lon="3.6842">
        <ele>776.9</ele>
        <time>2021-08-08T09:06:23Z</time>
      </trkpt>
      <trkpt lat="44.90486" lon="3.68422">
        <ele>776.9</ele>
        <time>2021-08-08T09:06:25Z</time>
      </trkpt>
      <trkpt lat="44.90485" lon="3.68424">
        <ele>777</ele>
        <time>2021-08-08T09:06:27Z</time>
      </trkpt>
      <trkpt lat="44.90485" lon="3.68426">
        <ele>777</ele>
        <time>2021-08-08T09:06:29Z</time>
      </trkpt>
      <trkpt lat="44.90485" lon="3.68425">
        <ele>777</ele>
        <time>2021-08-08T09:06:31Z</time>
      </trkpt>
      <trkpt lat="44.90485" lon="3.68425">
        <ele>777</ele>
        <time>2021-08-08T09:06:33Z</time>
      </trkpt>
      <trkpt lat="44.90485" lon="3.68425">
        <ele>777</ele>
        <time>2021-08-08T09:06:35Z</time>
      </trkpt>
      <trkpt lat="44.90479" lon="3.68442">
        <ele>777.3</ele>
        <time>2021-08-08T09:07:39Z</time>
      </trkpt>
      <trkpt lat="44.90477" lon="3.68448">
        <ele>777.4</ele>
        <time>2021-08-08T09:07:41Z</time>
      </trkpt>
      <trkpt lat="44.90475" lon="3.68453">
        <ele>777.5</ele>
        <time>2021-08-08T09:07:43Z</time>
      </trkpt>
      <trkpt lat="44.90474" lon="3.68458">
        <ele>777.7</ele>
        <time>2021-08-08T09:07:45Z</time>
      </trkpt>
      <trkpt lat="44.90472" lon="3.68464">
        <ele>777.8</ele>
        <time>2021-08-08T09:07:47Z</time>
      </trkpt>
      <trkpt lat="44.9047" lon="3.6847">
        <ele>778</ele>
        <time>2021-08-08T09:07:49Z</time>
      </trkpt>
      <trkpt lat="44.90468" lon="3.68475">
        <ele>778.1</ele>
        <time>2021-08-08T09:07:51Z</time>
      </trkpt>
      <trkpt lat="44.90466" lon="3.6848">
        <ele>778.3</ele>
        <time>2021-08-08T09:07:53Z</time>
      </trkpt>
      <trkpt lat="44.90464" lon="3.68486">
        <ele>778.5</ele>
        <time>2021-08-08T09:07:55Z</time>
      </trkpt>
      <trkpt lat="44.90462" lon="3.68491">
        <ele>778.7</ele>
        <time>2021-08-08T09:07:57Z</time>
      </trkpt>
      <trkpt lat="44.90461" lon="3.68497">
        <ele>778.8</ele>
        <time>2021-08-08T09:07:59Z</time>
      </trkpt>
      <trkpt lat="44.90459" lon="3.68502">
        <ele>779</ele>
        <time>2021-08-08T09:08:01Z</time>
      </trkpt>
      <trkpt lat="44.90457" lon="3.68507">
        <ele>779.2</ele>
        <time>2021-08-08T09:08:03Z</time>
      </trkpt>
      <trkpt lat="44.90456" lon="3.68513">
        <ele>779.4</ele>
        <time>2021-08-08T09:08:05Z</time>
      </trkpt>
      <trkpt lat="44.90454" lon="3.68518">
        <ele>779.6</ele>
        <time>2021-08-08T09:08:07Z</time>
      </trkpt>
      <trkpt lat="44.90453" lon="3.68522">
        <ele>779.8</ele>
        <time>2021-08-08T09:08:09Z</time>
      </trkpt>
      <trkpt lat="44.90451" lon="3.68527">
        <ele>780</ele>
        <time>2021-08-08T09:08:11Z</time>
      </trkpt>
      <trkpt lat="44.9045" lon="3.68532">
        <ele>780.2</ele>
        <time>2021-08-08T09:08:13Z</time>
      </trkpt>
      <trkpt lat="44.90448" lon="3.68538">
        <ele>780.4</ele>
        <time>2021-08-08T09:08:15Z</time>
      </trkpt>
      <trkpt lat="44.90446" lon="3.68543">
        <ele>780.6</ele>
        <time>2021-08-08T09:08:17Z</time>
      </trkpt>
      <trkpt lat="44.90445" lon="3.68548">
        <ele>780.9</ele>
        <time>2021-08-08T09:08:19Z</time>
      </trkpt>
      <trkpt lat="44.90443" lon="3.68553">
        <ele>781.1</ele>
        <time>2021-08-08T09:08:21Z</time>
      </trkpt>
      <trkpt lat="44.90441" lon="3.68558">
        <ele>781.3</ele>
        <time>2021-08-08T09:08:23Z</time>
      </trkpt>
      <trkpt lat="44.9044" lon="3.68563">
        <ele>781.5</ele>
        <time>2021-08-08T09:08:25Z</time>
      </trkpt>
      <trkpt lat="44.90438" lon="3.68568">
        <ele>781.7</ele>
        <time>2021-08-08T09:08:27Z</time>
      </trkpt>
      <trkpt lat="44.90437" lon="3.68573">
        <ele>781.9</ele>
        <time>2021-08-08T09:08:29Z</time>
      </trkpt>
      <trkpt lat="44.90436" lon="3.68579">
        <ele>782.2</ele>
        <time>2021-08-08T09:08:31Z</time>
      </trkpt>
      <trkpt lat="44.90435" lon="3.68585">
        <ele>782.5</ele>
        <time>2021-08-08T09:08:33Z</time>
      </trkpt>
      <trkpt lat="44.90433" lon="3.68591">
        <ele>782.9</ele>
        <time>2021-08-08T09:08:35Z</time>
      </trkpt>
      <trkpt lat="44.90432" lon="3.68597">
        <ele>783.3</ele>
        <time>2021-08-08T09:08:37Z</time>
      </trkpt>
      <trkpt lat="44.90429" lon="3.68602">
        <ele>783.8</ele>
        <time>2021-08-08T09:08:39Z</time>
      </trkpt>
      <trkpt lat="44.90427" lon="3.68607">
        <ele>784.2</ele>
        <time>2021-08-08T09:08:41Z</time>
      </trkpt>
      <trkpt lat="44.90425" lon="3.68612">
        <ele>784.6</ele>
        <time>2021-08-08T09:08:43Z</time>
      </trkpt>
      <trkpt lat="44.90424" lon="3.68617">
        <ele>785</ele>
        <time>2021-08-08T09:08:45Z</time>
      </trkpt>
      <trkpt lat="44.90423" lon="3.68623">
        <ele>785.5</ele>
        <time>2021-08-08T09:08:47Z</time>
      </trkpt>
      <trkpt lat="44.90421" lon="3.68628">
        <ele>785.9</ele>
        <time>2021-08-08T09:08:49Z</time>
      </trkpt>
      <trkpt lat="44.90419" lon="3.68633">
        <ele>786.4</ele>
        <time>2021-08-08T09:08:51Z</time>
      </trkpt>
      <trkpt lat="44.90417" lon="3.68638">
        <ele>786.9</ele>
        <time>2021-08-08T09:08:53Z</time>
      </trkpt>
      <trkpt lat="44.90415" lon="3.68643">
        <ele>787.4</ele>
        <time>2021-08-08T09:08:55Z</time>
      </trkpt>
      <trkpt lat="44.90412" lon="3.68647">
        <ele>788</ele>
        <time>2021-08-08T09:08:57Z</time>
      </trkpt>
      <trkpt lat="44.90409" lon="3.68651">
        <ele>788.6</ele>
        <time>2021-08-08T09:08:59Z</time>
      </trkpt>
      <trkpt lat="44.90406" lon="3.68654">
        <ele>789.1</ele>
        <time>2021-08-08T09:09:01Z</time>
      </trkpt>
      <trkpt lat="44.90403" lon="3.68657">
        <ele>789.7</ele>
        <time>2021-08-08T09:09:03Z</time>
      </trkpt>
      <trkpt lat="44.90399" lon="3.68659">
        <ele>790.2</ele>
        <time>2021-08-08T09:09:05Z</time>
      </trkpt>
      <trkpt lat="44.90396" lon="3.68661">
        <ele>790.8</ele>
        <time>2021-08-08T09:09:07Z</time>
      </trkpt>
      <trkpt lat="44.90392" lon="3.68661">
        <ele>791.2</ele>
        <time>2021-08-08T09:09:09Z</time>
      </trkpt>
      <trkpt lat="44.90388" lon="3.68661">
        <ele>791.6</ele>
        <time>2021-08-08T09:09:11Z</time>
      </trkpt>
      <trkpt lat="44.90383" lon="3.6866">
        <ele>792</ele>
        <time>2021-08-08T09:09:13Z</time>
      </trkpt>
      <trkpt lat="44.90379" lon="3.68659">
        <ele>792.3</ele>
        <time>2021-08-08T09:09:15Z</time>
      </trkpt>
      <trkpt lat="44.90374" lon="3.68657">
        <ele>792.6</ele>
        <time>2021-08-08T09:09:17Z</time>
      </trkpt>
      <trkpt lat="44.9037" lon="3.68654">
        <ele>792.8</ele>
        <time>2021-08-08T09:09:19Z</time>
      </trkpt>
      <trkpt lat="44.90366" lon="3.68652">
        <ele>793</ele>
        <time>2021-08-08T09:09:21Z</time>
      </trkpt>
      <trkpt lat="44.90362" lon="3.6865">
        <ele>793.2</ele>
        <time>2021-08-08T09:09:23Z</time>
      </trkpt>
      <trkpt lat="44.90358" lon="3.68648">
        <ele>793.3</ele>
        <time>2021-08-08T09:09:25Z</time>
      </trkpt>
      <trkpt lat="44.90354" lon="3.68645">
        <ele>793.4</ele>
        <time>2021-08-08T09:09:27Z</time>
      </trkpt>
      <trkpt lat="44.9035" lon="3.68643">
        <ele>793.6</ele>
        <time>2021-08-08T09:09:29Z</time>
      </trkpt>
      <trkpt lat="44.90346" lon="3.68641">
        <ele>793.8</ele>
        <time>2021-08-08T09:09:31Z</time>
      </trkpt>
      <trkpt lat="44.90342" lon="3.68639">
        <ele>793.9</ele>
        <time>2021-08-08T09:09:33Z</time>
      </trkpt>
      <trkpt lat="44.90338" lon="3.68636">
        <ele>793.9</ele>
        <time>2021-08-08T09:09:35Z</time>
      </trkpt>
      <trkpt lat="44.90334" lon="3.68633">
        <ele>793.9</ele>
        <time>2021-08-08T09:09:37Z</time>
      </trkpt>
      <trkpt lat="44.9033" lon="3.68631">
        <ele>794</ele>
        <time>2021-08-08T09:09:39Z</time>
      </trkpt>
      <trkpt lat="44.90326" lon="3.68628">
        <ele>794.1</ele>
        <time>2021-08-08T09:09:41Z</time>
      </trkpt>
      <trkpt lat="44.90322" lon="3.68625">
        <ele>794.1</ele>
        <time>2021-08-08T09:09:43Z</time>
      </trkpt>
      <trkpt lat="44.90317" lon="3.68623">
        <ele>794.2</ele>
        <time>2021-08-08T09:09:45Z</time>
      </trkpt>
      <trkpt lat="44.90313" lon="3.6862">
        <ele>794.3</ele>
        <time>2021-08-08T09:09:47Z</time>
      </trkpt>
      <trkpt lat="44.90309" lon="3.68618">
        <ele>794.4</ele>
        <time>2021-08-08T09:09:49Z</time>
      </trkpt>
      <trkpt lat="44.90304" lon="3.68615">
        <ele>794.4</ele>
        <time>2021-08-08T09:09:51Z</time>
      </trkpt>
      <trkpt lat="44.903" lon="3.68613">
        <ele>794.5</ele>
        <time>2021-08-08T09:09:53Z</time>
      </trkpt>
      <trkpt lat="44.90296" lon="3.6861">
        <ele>794.7</ele>
        <time>2021-08-08T09:09:55Z</time>
      </trkpt>
      <trkpt lat="44.90292" lon="3.68608">
        <ele>794.8</ele>
        <time>2021-08-08T09:09:57Z</time>
      </trkpt>
      <trkpt lat="44.90287" lon="3.68605">
        <ele>794.9</ele>
        <time>2021-08-08T09:09:59Z</time>
      </trkpt>
      <trkpt lat="44.90283" lon="3.68603">
        <ele>795</ele>
        <time>2021-08-08T09:10:01Z</time>
      </trkpt>
      <trkpt lat="44.90279" lon="3.686">
        <ele>795.1</ele>
        <time>2021-08-08T09:10:03Z</time>
      </trkpt>
      <trkpt lat="44.90274" lon="3.68597">
        <ele>795.2</ele>
        <time>2021-08-08T09:10:05Z</time>
      </trkpt>
      <trkpt lat="44.9027" lon="3.68594">
        <ele>795.3</ele>
        <time>2021-08-08T09:10:07Z</time>
      </trkpt>
      <trkpt lat="44.90265" lon="3.68592">
        <ele>795.4</ele>
        <time>2021-08-08T09:10:09Z</time>
      </trkpt>
      <trkpt lat="44.90261" lon="3.68588">
        <ele>795.5</ele>
        <time>2021-08-08T09:10:11Z</time>
      </trkpt>
      <trkpt lat="44.90257" lon="3.68585">
        <ele>795.5</ele>
        <time>2021-08-08T09:10:13Z</time>
      </trkpt>
      <trkpt lat="44.90252" lon="3.68581">
        <ele>795.6</ele>
        <time>2021-08-08T09:10:15Z</time>
      </trkpt>
      <trkpt lat="44.90248" lon="3.68578">
        <ele>795.7</ele>
        <time>2021-08-08T09:10:17Z</time>
      </trkpt>
      <trkpt lat="44.90244" lon="3.68574">
        <ele>795.8</ele>
        <time>2021-08-08T09:10:19Z</time>
      </trkpt>
      <trkpt lat="44.9024" lon="3.6857">
        <ele>795.9</ele>
        <time>2021-08-08T09:10:21Z</time>
      </trkpt>
      <trkpt lat="44.90236" lon="3.68566">
        <ele>796</ele>
        <time>2021-08-08T09:10:23Z</time>
      </trkpt>
      <trkpt lat="44.90232" lon="3.68563">
        <ele>796.1</ele>
        <time>2021-08-08T09:10:25Z</time>
      </trkpt>
      <trkpt lat="44.90228" lon="3.68559">
        <ele>796.1</ele>
        <time>2021-08-08T09:10:27Z</time>
      </trkpt>
      <trkpt lat="44.90224" lon="3.68556">
        <ele>796.1</ele>
        <time>2021-08-08T09:10:29Z</time>
      </trkpt>
      <trkpt lat="44.9022" lon="3.68552">
        <ele>796.2</ele>
        <time>2021-08-08T09:10:31Z</time>
      </trkpt>
      <trkpt lat="44.90217" lon="3.68548">
        <ele>796.1</ele>
        <time>2021-08-08T09:10:33Z</time>
      </trkpt>
      <trkpt lat="44.90214" lon="3.68545">
        <ele>796.1</ele>
        <time>2021-08-08T09:10:35Z</time>
      </trkpt>
      <trkpt lat="44.9021" lon="3.68541">
        <ele>796.1</ele>
        <time>2021-08-08T09:10:37Z</time>
      </trkpt>
      <trkpt lat="44.90207" lon="3.68538">
        <ele>796.1</ele>
        <time>2021-08-08T09:10:39Z</time>
      </trkpt>
      <trkpt lat="44.90203" lon="3.68534">
        <ele>795.9</ele>
        <time>2021-08-08T09:10:41Z</time>
      </trkpt>
      <trkpt lat="44.90199" lon="3.6853">
        <ele>795.8</ele>
        <time>2021-08-08T09:10:43Z</time>
      </trkpt>
      <trkpt lat="44.90196" lon="3.68526">
        <ele>795.7</ele>
        <time>2021-08-08T09:10:45Z</time>
      </trkpt>
      <trkpt lat="44.90192" lon="3.68523">
        <ele>795.6</ele>
        <time>2021-08-08T09:10:47Z</time>
      </trkpt>
      <trkpt lat="44.90189" lon="3.68519">
        <ele>795.5</ele>
        <time>2021-08-08T09:10:49Z</time>
      </trkpt>
      <trkpt lat="44.90185" lon="3.68515">
        <ele>795.3</ele>
        <time>2021-08-08T09:10:51Z</time>
      </trkpt>
      <trkpt lat="44.90182" lon="3.68511">
        <ele>795.2</ele>
        <time>2021-08-08T09:10:53Z</time>
      </trkpt>
      <trkpt lat="44.90179" lon="3.68507">
        <ele>795</ele>
        <time>2021-08-08T09:10:55Z</time>
      </trkpt>
      <trkpt lat="44.90175" lon="3.68503">
        <ele>794.7</ele>
        <time>2021-08-08T09:10:57Z</time>
      </trkpt>
      <trkpt lat="44.90172" lon="3.68499">
        <ele>794.6</ele>
        <time>2021-08-08T09:10:59Z</time>
      </trkpt>
      <trkpt lat="44.90169" lon="3.68495">
        <ele>794.7</ele>
        <time>2021-08-08T09:11:01Z</time>
      </trkpt>
      <trkpt lat="44.90165" lon="3.68491">
        <ele>794.8</ele>
        <time>2021-08-08T09:11:03Z</time>
      </trkpt>
      <trkpt lat="44.90162" lon="3.68486">
        <ele>794.6</ele>
        <time>2021-08-08T09:11:05Z</time>
      </trkpt>
      <trkpt lat="44.90159" lon="3.68482">
        <ele>794.5</ele>
        <time>2021-08-08T09:11:07Z</time>
      </trkpt>
      <trkpt lat="44.90156" lon="3.68478">
        <ele>794.3</ele>
        <time>2021-08-08T09:11:09Z</time>
      </trkpt>
      <trkpt lat="44.90153" lon="3.68473">
        <ele>794.2</ele>
        <time>2021-08-08T09:11:11Z</time>
      </trkpt>
      <trkpt lat="44.9015" lon="3.68469">
        <ele>794</ele>
        <time>2021-08-08T09:11:13Z</time>
      </trkpt>
      <trkpt lat="44.90147" lon="3.68464">
        <ele>793.9</ele>
        <time>2021-08-08T09:11:15Z</time>
      </trkpt>
      <trkpt lat="44.90144" lon="3.68459">
        <ele>793.8</ele>
        <time>2021-08-08T09:11:17Z</time>
      </trkpt>
      <trkpt lat="44.90141" lon="3.68455">
        <ele>793.6</ele>
        <time>2021-08-08T09:11:19Z</time>
      </trkpt>
      <trkpt lat="44.90138" lon="3.68451">
        <ele>793.5</ele>
        <time>2021-08-08T09:11:21Z</time>
      </trkpt>
      <trkpt lat="44.90136" lon="3.68446">
        <ele>793.3</ele>
        <time>2021-08-08T09:11:23Z</time>
      </trkpt>
      <trkpt lat="44.90133" lon="3.68442">
        <ele>793.2</ele>
        <time>2021-08-08T09:11:25Z</time>
      </trkpt>
      <trkpt lat="44.9013" lon="3.68438">
        <ele>793.1</ele>
        <time>2021-08-08T09:11:27Z</time>
      </trkpt>
      <trkpt lat="44.90127" lon="3.68433">
        <ele>792.9</ele>
        <time>2021-08-08T09:11:29Z</time>
      </trkpt>
      <trkpt lat="44.90124" lon="3.68429">
        <ele>792.8</ele>
        <time>2021-08-08T09:11:31Z</time>
      </trkpt>
      <trkpt lat="44.90121" lon="3.68426">
        <ele>792.7</ele>
        <time>2021-08-08T09:11:33Z</time>
      </trkpt>
      <trkpt lat="44.90118" lon="3.68423">
        <ele>792.6</ele>
        <time>2021-08-08T09:11:35Z</time>
      </trkpt>
      <trkpt lat="44.90114" lon="3.68422">
        <ele>792.5</ele>
        <time>2021-08-08T09:11:37Z</time>
      </trkpt>
      <trkpt lat="44.90111" lon="3.6842">
        <ele>792.4</ele>
        <time>2021-08-08T09:11:39Z</time>
      </trkpt>
      <trkpt lat="44.90108" lon="3.6842">
        <ele>792.4</ele>
        <time>2021-08-08T09:11:41Z</time>
      </trkpt>
      <trkpt lat="44.90105" lon="3.68421">
        <ele>792.4</ele>
        <time>2021-08-08T09:11:43Z</time>
      </trkpt>
      <trkpt lat="44.90101" lon="3.68422">
        <ele>792.3</ele>
        <time>2021-08-08T09:11:45Z</time>
      </trkpt>
      <trkpt lat="44.90098" lon="3.68422">
        <ele>792.3</ele>
        <time>2021-08-08T09:11:47Z</time>
      </trkpt>
      <trkpt lat="44.90095" lon="3.6842">
        <ele>792.2</ele>
        <time>2021-08-08T09:11:49Z</time>
      </trkpt>
      <trkpt lat="44.90092" lon="3.68418">
        <ele>792.1</ele>
        <time>2021-08-08T09:11:51Z</time>
      </trkpt>
      <trkpt lat="44.90089" lon="3.68416">
        <ele>792.1</ele>
        <time>2021-08-08T09:11:53Z</time>
      </trkpt>
      <trkpt lat="44.90088" lon="3.68412">
        <ele>792</ele>
        <time>2021-08-08T09:11:55Z</time>
      </trkpt>
      <trkpt lat="44.90087" lon="3.68407">
        <ele>792</ele>
        <time>2021-08-08T09:11:57Z</time>
      </trkpt>
      <trkpt lat="44.90086" lon="3.68403">
        <ele>792</ele>
        <time>2021-08-08T09:11:59Z</time>
      </trkpt>
      <trkpt lat="44.90085" lon="3.68402">
        <ele>792</ele>
        <time>2021-08-08T09:12:01Z</time>
      </trkpt>
      <trkpt lat="44.90085" lon="3.68402">
        <ele>792</ele>
        <time>2021-08-08T09:12:03Z</time>
      </trkpt>
      <trkpt lat="44.90085" lon="3.68402">
        <ele>792</ele>
        <time>2021-08-08T09:12:05Z</time>
      </trkpt>
      <trkpt lat="44.90085" lon="3.68401">
        <ele>792</ele>
        <time>2021-08-08T09:12:07Z</time>
      </trkpt>
      <trkpt lat="44.90085" lon="3.68399">
        <ele>792</ele>
        <time>2021-08-08T09:12:09Z</time>
      </trkpt>
      <trkpt lat="44.90093" lon="3.68461">
        <ele>793.2</ele>
        <time>2021-08-08T09:16:41Z</time>
      </trkpt>
      <trkpt lat="44.90095" lon="3.68466">
        <ele>793.3</ele>
        <time>2021-08-08T09:16:43Z</time>
      </trkpt>
      <trkpt lat="44.90098" lon="3.6847">
        <ele>793.5</ele>
        <time>2021-08-08T09:16:45Z</time>
      </trkpt>
      <trkpt lat="44.90101" lon="3.68474">
        <ele>793.6</ele>
        <time>2021-08-08T09:16:47Z</time>
      </trkpt>
      <trkpt lat="44.90104" lon="3.68479">
        <ele>793.7</ele>
        <time>2021-08-08T09:16:49Z</time>
      </trkpt>
      <trkpt lat="44.90106" lon="3.68484">
        <ele>793.9</ele>
        <time>2021-08-08T09:16:51Z</time>
      </trkpt>
      <trkpt lat="44.90109" lon="3.68488">
        <ele>794</ele>
        <time>2021-08-08T09:16:53Z</time>
      </trkpt>
      <trkpt lat="44.90112" lon="3.68493">
        <ele>794.2</ele>
        <time>2021-08-08T09:16:55Z</time>
      </trkpt>
      <trkpt lat="44.90115" lon="3.68498">
        <ele>794.3</ele>
        <time>2021-08-08T09:16:57Z</time>
      </trkpt>
      <trkpt lat="44.90117" lon="3.68502">
        <ele>794.8</ele>
        <time>2021-08-08T09:16:59Z</time>
      </trkpt>
      <trkpt lat="44.9012" lon="3.68507">
        <ele>795.8</ele>
        <time>2021-08-08T09:17:01Z</time>
      </trkpt>
      <trkpt lat="44.90123" lon="3.68513">
        <ele>796.7</ele>
        <time>2021-08-08T09:17:03Z</time>
      </trkpt>
      <trkpt lat="44.90125" lon="3.68517">
        <ele>797.5</ele>
        <time>2021-08-08T09:17:05Z</time>
      </trkpt>
      <trkpt lat="44.90127" lon="3.68522">
        <ele>798.4</ele>
        <time>2021-08-08T09:17:07Z</time>
      </trkpt>
      <trkpt lat="44.90129" lon="3.68527">
        <ele>799.2</ele>
        <time>2021-08-08T09:17:09Z</time>
      </trkpt>
      <trkpt lat="44.90131" lon="3.68532">
        <ele>799.9</ele>
        <time>2021-08-08T09:17:11Z</time>
      </trkpt>
      <trkpt lat="44.90133" lon="3.68536">
        <ele>800.5</ele>
        <time>2021-08-08T09:17:13Z</time>
      </trkpt>
      <trkpt lat="44.90135" lon="3.6854">
        <ele>801.1</ele>
        <time>2021-08-08T09:17:15Z</time>
      </trkpt>
      <trkpt lat="44.90137" lon="3.68545">
        <ele>801.7</ele>
        <time>2021-08-08T09:17:17Z</time>
      </trkpt>
      <trkpt lat="44.90139" lon="3.6855">
        <ele>802.4</ele>
        <time>2021-08-08T09:17:19Z</time>
      </trkpt>
      <trkpt lat="44.90141" lon="3.68554">
        <ele>803</ele>
        <time>2021-08-08T09:17:21Z</time>
      </trkpt>
      <trkpt lat="44.90142" lon="3.68559">
        <ele>803.6</ele>
        <time>2021-08-08T09:17:23Z</time>
      </trkpt>
      <trkpt lat="44.90144" lon="3.68564">
        <ele>804.2</ele>
        <time>2021-08-08T09:17:25Z</time>
      </trkpt>
      <trkpt lat="44.90146" lon="3.68568">
        <ele>804.7</ele>
        <time>2021-08-08T09:17:27Z</time>
      </trkpt>
      <trkpt lat="44.90148" lon="3.68572">
        <ele>805.2</ele>
        <time>2021-08-08T09:17:29Z</time>
      </trkpt>
      <trkpt lat="44.90149" lon="3.68577">
        <ele>805.7</ele>
        <time>2021-08-08T09:17:31Z</time>
      </trkpt>
      <trkpt lat="44.90151" lon="3.68582">
        <ele>806.3</ele>
        <time>2021-08-08T09:17:33Z</time>
      </trkpt>
      <trkpt lat="44.90152" lon="3.68586">
        <ele>806.8</ele>
        <time>2021-08-08T09:17:35Z</time>
      </trkpt>
      <trkpt lat="44.90154" lon="3.68591">
        <ele>807.3</ele>
        <time>2021-08-08T09:17:37Z</time>
      </trkpt>
      <trkpt lat="44.90155" lon="3.68596">
        <ele>807.9</ele>
        <time>2021-08-08T09:17:39Z</time>
      </trkpt>
      <trkpt lat="44.90157" lon="3.68601">
        <ele>808.5</ele>
        <time>2021-08-08T09:17:41Z</time>
      </trkpt>
      <trkpt lat="44.90158" lon="3.68606">
        <ele>809.2</ele>
        <time>2021-08-08T09:17:43Z</time>
      </trkpt>
      <trkpt lat="44.90159" lon="3.6861">
        <ele>809.8</ele>
        <time>2021-08-08T09:17:45Z</time>
      </trkpt>
      <trkpt lat="44.9016" lon="3.68615">
        <ele>810.5</ele>
        <time>2021-08-08T09:17:47Z</time>
      </trkpt>
      <trkpt lat="44.90161" lon="3.6862">
        <ele>811.3</ele>
        <time>2021-08-08T09:17:49Z</time>
      </trkpt>
      <trkpt lat="44.90163" lon="3.68625">
        <ele>812.1</ele>
        <time>2021-08-08T09:17:51Z</time>
      </trkpt>
      <trkpt lat="44.90165" lon="3.6863">
        <ele>812.8</ele>
        <time>2021-08-08T09:17:53Z</time>
      </trkpt>
      <trkpt lat="44.90165" lon="3.68635">
        <ele>813.7</ele>
        <time>2021-08-08T09:17:55Z</time>
      </trkpt>
      <trkpt lat="44.90166" lon="3.6864">
        <ele>814.6</ele>
        <time>2021-08-08T09:17:57Z</time>
      </trkpt>
      <trkpt lat="44.90168" lon="3.68646">
        <ele>815.3</ele>
        <time>2021-08-08T09:17:59Z</time>
      </trkpt>
      <trkpt lat="44.90169" lon="3.68651">
        <ele>816</ele>
        <time>2021-08-08T09:18:01Z</time>
      </trkpt>
      <trkpt lat="44.9017" lon="3.68656">
        <ele>816.7</ele>
        <time>2021-08-08T09:18:03Z</time>
      </trkpt>
      <trkpt lat="44.90172" lon="3.6866">
        <ele>817.1</ele>
        <time>2021-08-08T09:18:05Z</time>
      </trkpt>
      <trkpt lat="44.90172" lon="3.68665">
        <ele>817.8</ele>
        <time>2021-08-08T09:18:07Z</time>
      </trkpt>
      <trkpt lat="44.90174" lon="3.6867">
        <ele>818.4</ele>
        <time>2021-08-08T09:18:09Z</time>
      </trkpt>
      <trkpt lat="44.90174" lon="3.68675">
        <ele>818.9</ele>
        <time>2021-08-08T09:18:11Z</time>
      </trkpt>
      <trkpt lat="44.90176" lon="3.6868">
        <ele>819.4</ele>
        <time>2021-08-08T09:18:13Z</time>
      </trkpt>
      <trkpt lat="44.90178" lon="3.68685">
        <ele>819.9</ele>
        <time>2021-08-08T09:18:15Z</time>
      </trkpt>
      <trkpt lat="44.90179" lon="3.6869">
        <ele>820.3</ele>
        <time>2021-08-08T09:18:17Z</time>
      </trkpt>
      <trkpt lat="44.90181" lon="3.68694">
        <ele>820.8</ele>
        <time>2021-08-08T09:18:19Z</time>
      </trkpt>
      <trkpt lat="44.90182" lon="3.68699">
        <ele>821.3</ele>
        <time>2021-08-08T09:18:21Z</time>
      </trkpt>
      <trkpt lat="44.90184" lon="3.68703">
        <ele>821.6</ele>
        <time>2021-08-08T09:18:23Z</time>
      </trkpt>
      <trkpt lat="44.90185" lon="3.68708">
        <ele>822.2</ele>
        <time>2021-08-08T09:18:25Z</time>
      </trkpt>
      <trkpt lat="44.90187" lon="3.68712">
        <ele>822.5</ele>
        <time>2021-08-08T09:18:27Z</time>
      </trkpt>
      <trkpt lat="44.9019" lon="3.68716">
        <ele>822.7</ele>
        <time>2021-08-08T09:18:29Z</time>
      </trkpt>
      <trkpt lat="44.90192" lon="3.6872">
        <ele>823</ele>
        <time>2021-08-08T09:18:31Z</time>
      </trkpt>
      <trkpt lat="44.90195" lon="3.68723">
        <ele>823.2</ele>
        <time>2021-08-08T09:18:33Z</time>
      </trkpt>
      <trkpt lat="44.90197" lon="3.68728">
        <ele>823.4</ele>
        <time>2021-08-08T09:18:35Z</time>
      </trkpt>
      <trkpt lat="44.90201" lon="3.68731">
        <ele>823.5</ele>
        <time>2021-08-08T09:18:37Z</time>
      </trkpt>
      <trkpt lat="44.90203" lon="3.68735">
        <ele>823.7</ele>
        <time>2021-08-08T09:18:39Z</time>
      </trkpt>
      <trkpt lat="44.90207" lon="3.68738">
        <ele>823.8</ele>
        <time>2021-08-08T09:18:41Z</time>
      </trkpt>
      <trkpt lat="44.90209" lon="3.68742">
        <ele>824.1</ele>
        <time>2021-08-08T09:18:43Z</time>
      </trkpt>
      <trkpt lat="44.90212" lon="3.68745">
        <ele>824.2</ele>
        <time>2021-08-08T09:18:45Z</time>
      </trkpt>
      <trkpt lat="44.90215" lon="3.68748">
        <ele>824.4</ele>
        <time>2021-08-08T09:18:47Z</time>
      </trkpt>
      <trkpt lat="44.90218" lon="3.68751">
        <ele>824.5</ele>
        <time>2021-08-08T09:18:49Z</time>
      </trkpt>
      <trkpt lat="44.90221" lon="3.68755">
        <ele>824.6</ele>
        <time>2021-08-08T09:18:51Z</time>
      </trkpt>
      <trkpt lat="44.90224" lon="3.68758">
        <ele>824.8</ele>
        <time>2021-08-08T09:18:53Z</time>
      </trkpt>
      <trkpt lat="44.90227" lon="3.6876">
        <ele>824.9</ele>
        <time>2021-08-08T09:18:55Z</time>
      </trkpt>
      <trkpt lat="44.9023" lon="3.68763">
        <ele>825.1</ele>
        <time>2021-08-08T09:18:57Z</time>
      </trkpt>
      <trkpt lat="44.90233" lon="3.68767">
        <ele>825.3</ele>
        <time>2021-08-08T09:18:59Z</time>
      </trkpt>
      <trkpt lat="44.90237" lon="3.68769">
        <ele>825.5</ele>
        <time>2021-08-08T09:19:01Z</time>
      </trkpt>
      <trkpt lat="44.9024" lon="3.68772">
        <ele>825.6</ele>
        <time>2021-08-08T09:19:03Z</time>
      </trkpt>
      <trkpt lat="44.90243" lon="3.68776">
        <ele>826</ele>
        <time>2021-08-08T09:19:05Z</time>
      </trkpt>
      <trkpt lat="44.90246" lon="3.68779">
        <ele>826.3</ele>
        <time>2021-08-08T09:19:07Z</time>
      </trkpt>
      <trkpt lat="44.90249" lon="3.68783">
        <ele>826.7</ele>
        <time>2021-08-08T09:19:09Z</time>
      </trkpt>
      <trkpt lat="44.90252" lon="3.68786">
        <ele>827</ele>
        <time>2021-08-08T09:19:11Z</time>
      </trkpt>
      <trkpt lat="44.90255" lon="3.68789">
        <ele>827.3</ele>
        <time>2021-08-08T09:19:13Z</time>
      </trkpt>
      <trkpt lat="44.90258" lon="3.68794">
        <ele>827.7</ele>
        <time>2021-08-08T09:19:15Z</time>
      </trkpt>
      <trkpt lat="44.90261" lon="3.68798">
        <ele>828</ele>
        <time>2021-08-08T09:19:17Z</time>
      </trkpt>
      <trkpt lat="44.90263" lon="3.68802">
        <ele>828.4</ele>
        <time>2021-08-08T09:19:19Z</time>
      </trkpt>
      <trkpt lat="44.90266" lon="3.68806">
        <ele>828.8</ele>
        <time>2021-08-08T09:19:21Z</time>
      </trkpt>
      <trkpt lat="44.90268" lon="3.68811">
        <ele>829.3</ele>
        <time>2021-08-08T09:19:23Z</time>
      </trkpt>
      <trkpt lat="44.90271" lon="3.68815">
        <ele>829.6</ele>
        <time>2021-08-08T09:19:25Z</time>
      </trkpt>
      <trkpt lat="44.90274" lon="3.68819">
        <ele>829.9</ele>
        <time>2021-08-08T09:19:27Z</time>
      </trkpt>
      <trkpt lat="44.90277" lon="3.68824">
        <ele>830.3</ele>
        <time>2021-08-08T09:19:29Z</time>
      </trkpt>
      <trkpt lat="44.90279" lon="3.68829">
        <ele>830.7</ele>
        <time>2021-08-08T09:19:31Z</time>
      </trkpt>
      <trkpt lat="44.90281" lon="3.68833">
        <ele>830.9</ele>
        <time>2021-08-08T09:19:33Z</time>
      </trkpt>
      <trkpt lat="44.90284" lon="3.68837">
        <ele>831.2</ele>
        <time>2021-08-08T09:19:35Z</time>
      </trkpt>
      <trkpt lat="44.90286" lon="3.68842">
        <ele>831.6</ele>
        <time>2021-08-08T09:19:37Z</time>
      </trkpt>
      <trkpt lat="44.90288" lon="3.68846">
        <ele>831.9</ele>
        <time>2021-08-08T09:19:39Z</time>
      </trkpt>
      <trkpt lat="44.9029" lon="3.68851">
        <ele>832.3</ele>
        <time>2021-08-08T09:19:41Z</time>
      </trkpt>
      <trkpt lat="44.90292" lon="3.68855">
        <ele>832.6</ele>
        <time>2021-08-08T09:19:43Z</time>
      </trkpt>
      <trkpt lat="44.90294" lon="3.6886">
        <ele>833.1</ele>
        <time>2021-08-08T09:19:45Z</time>
      </trkpt>
      <trkpt lat="44.90296" lon="3.68864">
        <ele>833.6</ele>
        <time>2021-08-08T09:19:47Z</time>
      </trkpt>
      <trkpt lat="44.90297" lon="3.68869">
        <ele>834.1</ele>
        <time>2021-08-08T09:19:49Z</time>
      </trkpt>
      <trkpt lat="44.90299" lon="3.68874">
        <ele>834.5</ele>
        <time>2021-08-08T09:19:51Z</time>
      </trkpt>
      <trkpt lat="44.90301" lon="3.68878">
        <ele>835</ele>
        <time>2021-08-08T09:19:53Z</time>
      </trkpt>
      <trkpt lat="44.90303" lon="3.68883">
        <ele>835.5</ele>
        <time>2021-08-08T09:19:55Z</time>
      </trkpt>
      <trkpt lat="44.90304" lon="3.68889">
        <ele>836.1</ele>
        <time>2021-08-08T09:19:57Z</time>
      </trkpt>
      <trkpt lat="44.90306" lon="3.68893">
        <ele>836.6</ele>
        <time>2021-08-08T09:19:59Z</time>
      </trkpt>
      <trkpt lat="44.90308" lon="3.68898">
        <ele>837.1</ele>
        <time>2021-08-08T09:20:01Z</time>
      </trkpt>
      <trkpt lat="44.90309" lon="3.68903">
        <ele>837.7</ele>
        <time>2021-08-08T09:20:03Z</time>
      </trkpt>
      <trkpt lat="44.90311" lon="3.68909">
        <ele>838.2</ele>
        <time>2021-08-08T09:20:05Z</time>
      </trkpt>
      <trkpt lat="44.90312" lon="3.68913">
        <ele>838.8</ele>
        <time>2021-08-08T09:20:07Z</time>
      </trkpt>
      <trkpt lat="44.90313" lon="3.68918">
        <ele>839.3</ele>
        <time>2021-08-08T09:20:09Z</time>
      </trkpt>
      <trkpt lat="44.90313" lon="3.68924">
        <ele>839.5</ele>
        <time>2021-08-08T09:20:11Z</time>
      </trkpt>
      <trkpt lat="44.90315" lon="3.68929">
        <ele>839.7</ele>
        <time>2021-08-08T09:20:13Z</time>
      </trkpt>
      <trkpt lat="44.90316" lon="3.68934">
        <ele>839.7</ele>
        <time>2021-08-08T09:20:15Z</time>
      </trkpt>
      <trkpt lat="44.90317" lon="3.68939">
        <ele>839.9</ele>
        <time>2021-08-08T09:20:17Z</time>
      </trkpt>
      <trkpt lat="44.90317" lon="3.68944">
        <ele>840.2</ele>
        <time>2021-08-08T09:20:19Z</time>
      </trkpt>
      <trkpt lat="44.90316" lon="3.68949">
        <ele>840.6</ele>
        <time>2021-08-08T09:20:21Z</time>
      </trkpt>
      <trkpt lat="44.90317" lon="3.68954">
        <ele>840.9</ele>
        <time>2021-08-08T09:20:23Z</time>
      </trkpt>
      <trkpt lat="44.90317" lon="3.6896">
        <ele>841.2</ele>
        <time>2021-08-08T09:20:25Z</time>
      </trkpt>
      <trkpt lat="44.90317" lon="3.68966">
        <ele>841.5</ele>
        <time>2021-08-08T09:20:27Z</time>
      </trkpt>
      <trkpt lat="44.90318" lon="3.68971">
        <ele>841.8</ele>
        <time>2021-08-08T09:20:29Z</time>
      </trkpt>
      <trkpt lat="44.90318" lon="3.68977">
        <ele>842.2</ele>
        <time>2021-08-08T09:20:31Z</time>
      </trkpt>
      <trkpt lat="44.90318" lon="3.68982">
        <ele>842.6</ele>
        <time>2021-08-08T09:20:33Z</time>
      </trkpt>
      <trkpt lat="44.90318" lon="3.68988">
        <ele>842.9</ele>
        <time>2021-08-08T09:20:35Z</time>
      </trkpt>
      <trkpt lat="44.90317" lon="3.68994">
        <ele>843.4</ele>
        <time>2021-08-08T09:20:37Z</time>
      </trkpt>
      <trkpt lat="44.90316" lon="3.68999">
        <ele>844.1</ele>
        <time>2021-08-08T09:20:39Z</time>
      </trkpt>
      <trkpt lat="44.90315" lon="3.69005">
        <ele>844.3</ele>
        <time>2021-08-08T09:20:41Z</time>
      </trkpt>
      <trkpt lat="44.90314" lon="3.6901">
        <ele>844.3</ele>
        <time>2021-08-08T09:20:43Z</time>
      </trkpt>
      <trkpt lat="44.90314" lon="3.69015">
        <ele>844.1</ele>
        <time>2021-08-08T09:20:45Z</time>
      </trkpt>
      <trkpt lat="44.90313" lon="3.6902">
        <ele>844</ele>
        <time>2021-08-08T09:20:47Z</time>
      </trkpt>
      <trkpt lat="44.90313" lon="3.69025">
        <ele>844</ele>
        <time>2021-08-08T09:20:49Z</time>
      </trkpt>
      <trkpt lat="44.90312" lon="3.69031">
        <ele>844</ele>
        <time>2021-08-08T09:20:51Z</time>
      </trkpt>
      <trkpt lat="44.90312" lon="3.69036">
        <ele>843.7</ele>
        <time>2021-08-08T09:20:53Z</time>
      </trkpt>
      <trkpt lat="44.90312" lon="3.69042">
        <ele>843.4</ele>
        <time>2021-08-08T09:20:55Z</time>
      </trkpt>
      <trkpt lat="44.90312" lon="3.69047">
        <ele>843.4</ele>
        <time>2021-08-08T09:20:57Z</time>
      </trkpt>
      <trkpt lat="44.90311" lon="3.69052">
        <ele>843.4</ele>
        <time>2021-08-08T09:20:59Z</time>
      </trkpt>
      <trkpt lat="44.90311" lon="3.69057">
        <ele>843.3</ele>
        <time>2021-08-08T09:21:01Z</time>
      </trkpt>
      <trkpt lat="44.90311" lon="3.69063">
        <ele>843.1</ele>
        <time>2021-08-08T09:21:03Z</time>
      </trkpt>
      <trkpt lat="44.9031" lon="3.69068">
        <ele>843.2</ele>
        <time>2021-08-08T09:21:05Z</time>
      </trkpt>
      <trkpt lat="44.90308" lon="3.69073">
        <ele>843.5</ele>
        <time>2021-08-08T09:21:07Z</time>
      </trkpt>
      <trkpt lat="44.90306" lon="3.69078">
        <ele>843.9</ele>
        <time>2021-08-08T09:21:09Z</time>
      </trkpt>
      <trkpt lat="44.90305" lon="3.69082">
        <ele>844.4</ele>
        <time>2021-08-08T09:21:11Z</time>
      </trkpt>
      <trkpt lat="44.90302" lon="3.69087">
        <ele>845.2</ele>
        <time>2021-08-08T09:21:13Z</time>
      </trkpt>
      <trkpt lat="44.90301" lon="3.69091">
        <ele>845.9</ele>
        <time>2021-08-08T09:21:15Z</time>
      </trkpt>
      <trkpt lat="44.90299" lon="3.69096">
        <ele>846.6</ele>
        <time>2021-08-08T09:21:17Z</time>
      </trkpt>
      <trkpt lat="44.90297" lon="3.69101">
        <ele>847.3</ele>
        <time>2021-08-08T09:21:19Z</time>
      </trkpt>
      <trkpt lat="44.90296" lon="3.69105">
        <ele>847.8</ele>
        <time>2021-08-08T09:21:21Z</time>
      </trkpt>
      <trkpt lat="44.90294" lon="3.6911">
        <ele>848.3</ele>
        <time>2021-08-08T09:21:23Z</time>
      </trkpt>
      <trkpt lat="44.90293" lon="3.69115">
        <ele>848.9</ele>
        <time>2021-08-08T09:21:25Z</time>
      </trkpt>
      <trkpt lat="44.90291" lon="3.69119">
        <ele>849.3</ele>
        <time>2021-08-08T09:21:27Z</time>
      </trkpt>
      <trkpt lat="44.9029" lon="3.69124">
        <ele>849.8</ele>
        <time>2021-08-08T09:21:29Z</time>
      </trkpt>
      <trkpt lat="44.90289" lon="3.69129">
        <ele>850.2</ele>
        <time>2021-08-08T09:21:31Z</time>
      </trkpt>
      <trkpt lat="44.90287" lon="3.69134">
        <ele>850.6</ele>
        <time>2021-08-08T09:21:33Z</time>
      </trkpt>
      <trkpt lat="44.90286" lon="3.69139">
        <ele>850.9</ele>
        <time>2021-08-08T09:21:35Z</time>
      </trkpt>
      <trkpt lat="44.90285" lon="3.69144">
        <ele>851.3</ele>
        <time>2021-08-08T09:21:37Z</time>
      </trkpt>
      <trkpt lat="44.90284" lon="3.69149">
        <ele>851.5</ele>
        <time>2021-08-08T09:21:39Z</time>
      </trkpt>
      <trkpt lat="44.90283" lon="3.69155">
        <ele>851.8</ele>
        <time>2021-08-08T09:21:41Z</time>
      </trkpt>
      <trkpt lat="44.90282" lon="3.6916">
        <ele>852.1</ele>
        <time>2021-08-08T09:21:43Z</time>
      </trkpt>
      <trkpt lat="44.90281" lon="3.69165">
        <ele>852.4</ele>
        <time>2021-08-08T09:21:45Z</time>
      </trkpt>
      <trkpt lat="44.9028" lon="3.6917">
        <ele>852.7</ele>
        <time>2021-08-08T09:21:47Z</time>
      </trkpt>
      <trkpt lat="44.90279" lon="3.69176">
        <ele>853.2</ele>
        <time>2021-08-08T09:21:49Z</time>
      </trkpt>
      <trkpt lat="44.90277" lon="3.6918">
        <ele>853.7</ele>
        <time>2021-08-08T09:21:51Z</time>
      </trkpt>
      <trkpt lat="44.90276" lon="3.69185">
        <ele>854.1</ele>
        <time>2021-08-08T09:21:53Z</time>
      </trkpt>
      <trkpt lat="44.90275" lon="3.6919">
        <ele>854.6</ele>
        <time>2021-08-08T09:21:55Z</time>
      </trkpt>
      <trkpt lat="44.90274" lon="3.69195">
        <ele>855.1</ele>
        <time>2021-08-08T09:21:57Z</time>
      </trkpt>
      <trkpt lat="44.90272" lon="3.692">
        <ele>855.6</ele>
        <time>2021-08-08T09:21:59Z</time>
      </trkpt>
      <trkpt lat="44.90271" lon="3.69205">
        <ele>856.1</ele>
        <time>2021-08-08T09:22:01Z</time>
      </trkpt>
      <trkpt lat="44.90269" lon="3.6921">
        <ele>856.5</ele>
        <time>2021-08-08T09:22:03Z</time>
      </trkpt>
      <trkpt lat="44.90268" lon="3.69215">
        <ele>857</ele>
        <time>2021-08-08T09:22:05Z</time>
      </trkpt>
      <trkpt lat="44.90267" lon="3.69219">
        <ele>857.5</ele>
        <time>2021-08-08T09:22:07Z</time>
      </trkpt>
      <trkpt lat="44.90265" lon="3.69224">
        <ele>858</ele>
        <time>2021-08-08T09:22:09Z</time>
      </trkpt>
      <trkpt lat="44.90264" lon="3.69228">
        <ele>858.4</ele>
        <time>2021-08-08T09:22:11Z</time>
      </trkpt>
      <trkpt lat="44.90264" lon="3.69234">
        <ele>858.7</ele>
        <time>2021-08-08T09:22:13Z</time>
      </trkpt>
      <trkpt lat="44.90263" lon="3.69238">
        <ele>859.1</ele>
        <time>2021-08-08T09:22:15Z</time>
      </trkpt>
      <trkpt lat="44.90261" lon="3.69243">
        <ele>859.7</ele>
        <time>2021-08-08T09:22:17Z</time>
      </trkpt>
      <trkpt lat="44.90259" lon="3.69249">
        <ele>860.3</ele>
        <time>2021-08-08T09:22:19Z</time>
      </trkpt>
      <trkpt lat="44.90258" lon="3.69254">
        <ele>860.6</ele>
        <time>2021-08-08T09:22:21Z</time>
      </trkpt>
      <trkpt lat="44.90256" lon="3.69259">
        <ele>860.7</ele>
        <time>2021-08-08T09:22:23Z</time>
      </trkpt>
      <trkpt lat="44.90255" lon="3.69263">
        <ele>861</ele>
        <time>2021-08-08T09:22:25Z</time>
      </trkpt>
      <trkpt lat="44.90253" lon="3.69268">
        <ele>861.3</ele>
        <time>2021-08-08T09:22:27Z</time>
      </trkpt>
      <trkpt lat="44.90251" lon="3.69272">
        <ele>861.6</ele>
        <time>2021-08-08T09:22:29Z</time>
      </trkpt>
      <trkpt lat="44.90249" lon="3.69277">
        <ele>861.9</ele>
        <time>2021-08-08T09:22:31Z</time>
      </trkpt>
      <trkpt lat="44.90247" lon="3.69281">
        <ele>862.2</ele>
        <time>2021-08-08T09:22:33Z</time>
      </trkpt>
      <trkpt lat="44.90246" lon="3.69286">
        <ele>862.6</ele>
        <time>2021-08-08T09:22:35Z</time>
      </trkpt>
      <trkpt lat="44.90244" lon="3.69291">
        <ele>862.9</ele>
        <time>2021-08-08T09:22:37Z</time>
      </trkpt>
      <trkpt lat="44.90242" lon="3.69296">
        <ele>863.1</ele>
        <time>2021-08-08T09:22:39Z</time>
      </trkpt>
      <trkpt lat="44.90241" lon="3.69301">
        <ele>863.2</ele>
        <time>2021-08-08T09:22:41Z</time>
      </trkpt>
      <trkpt lat="44.90239" lon="3.69306">
        <ele>863.6</ele>
        <time>2021-08-08T09:22:43Z</time>
      </trkpt>
      <trkpt lat="44.90238" lon="3.69311">
        <ele>863.9</ele>
        <time>2021-08-08T09:22:45Z</time>
      </trkpt>
      <trkpt lat="44.90237" lon="3.69317">
        <ele>863.9</ele>
        <time>2021-08-08T09:22:47Z</time>
      </trkpt>
      <trkpt lat="44.90236" lon="3.69322">
        <ele>864.1</ele>
        <time>2021-08-08T09:22:49Z</time>
      </trkpt>
      <trkpt lat="44.90234" lon="3.69327">
        <ele>864.3</ele>
        <time>2021-08-08T09:22:51Z</time>
      </trkpt>
      <trkpt lat="44.90233" lon="3.69332">
        <ele>864.4</ele>
        <time>2021-08-08T09:22:53Z</time>
      </trkpt>
      <trkpt lat="44.90233" lon="3.69337">
        <ele>864.6</ele>
        <time>2021-08-08T09:22:55Z</time>
      </trkpt>
      <trkpt lat="44.90232" lon="3.69342">
        <ele>864.8</ele>
        <time>2021-08-08T09:22:57Z</time>
      </trkpt>
      <trkpt lat="44.90232" lon="3.69348">
        <ele>864.8</ele>
        <time>2021-08-08T09:22:59Z</time>
      </trkpt>
      <trkpt lat="44.9023" lon="3.69353">
        <ele>865.2</ele>
        <time>2021-08-08T09:23:01Z</time>
      </trkpt>
      <trkpt lat="44.9023" lon="3.69359">
        <ele>865.2</ele>
        <time>2021-08-08T09:23:03Z</time>
      </trkpt>
      <trkpt lat="44.9023" lon="3.69364">
        <ele>865.3</ele>
        <time>2021-08-08T09:23:05Z</time>
      </trkpt>
      <trkpt lat="44.9023" lon="3.6937">
        <ele>865.4</ele>
        <time>2021-08-08T09:23:07Z</time>
      </trkpt>
      <trkpt lat="44.90229" lon="3.69375">
        <ele>865.5</ele>
        <time>2021-08-08T09:23:09Z</time>
      </trkpt>
      <trkpt lat="44.9023" lon="3.69381">
        <ele>865.3</ele>
        <time>2021-08-08T09:23:11Z</time>
      </trkpt>
      <trkpt lat="44.90229" lon="3.69386">
        <ele>865.5</ele>
        <time>2021-08-08T09:23:13Z</time>
      </trkpt>
      <trkpt lat="44.90229" lon="3.69391">
        <ele>865.4</ele>
        <time>2021-08-08T09:23:15Z</time>
      </trkpt>
      <trkpt lat="44.90229" lon="3.69397">
        <ele>865.3</ele>
        <time>2021-08-08T09:23:17Z</time>
      </trkpt>
      <trkpt lat="44.90229" lon="3.69402">
        <ele>865.3</ele>
        <time>2021-08-08T09:23:19Z</time>
      </trkpt>
      <trkpt lat="44.90229" lon="3.69408">
        <ele>865.2</ele>
        <time>2021-08-08T09:23:21Z</time>
      </trkpt>
      <trkpt lat="44.9023" lon="3.69413">
        <ele>865.1</ele>
        <time>2021-08-08T09:23:23Z</time>
      </trkpt>
      <trkpt lat="44.90231" lon="3.69418">
        <ele>865</ele>
        <time>2021-08-08T09:23:25Z</time>
      </trkpt>
      <trkpt lat="44.90231" lon="3.69424">
        <ele>865.3</ele>
        <time>2021-08-08T09:23:27Z</time>
      </trkpt>
      <trkpt lat="44.90231" lon="3.69429">
        <ele>865.7</ele>
        <time>2021-08-08T09:23:29Z</time>
      </trkpt>
      <trkpt lat="44.90232" lon="3.69434">
        <ele>865.9</ele>
        <time>2021-08-08T09:23:31Z</time>
      </trkpt>
      <trkpt lat="44.90232" lon="3.6944">
        <ele>866.1</ele>
        <time>2021-08-08T09:23:33Z</time>
      </trkpt>
      <trkpt lat="44.90233" lon="3.69444">
        <ele>866.3</ele>
        <time>2021-08-08T09:23:35Z</time>
      </trkpt>
      <trkpt lat="44.90234" lon="3.69449">
        <ele>866.3</ele>
        <time>2021-08-08T09:23:37Z</time>
      </trkpt>
      <trkpt lat="44.90236" lon="3.69455">
        <ele>866.2</ele>
        <time>2021-08-08T09:23:39Z</time>
      </trkpt>
      <trkpt lat="44.90236" lon="3.69459">
        <ele>866.4</ele>
        <time>2021-08-08T09:23:41Z</time>
      </trkpt>
      <trkpt lat="44.90237" lon="3.69464">
        <ele>866.6</ele>
        <time>2021-08-08T09:23:43Z</time>
      </trkpt>
      <trkpt lat="44.90238" lon="3.69469">
        <ele>866.5</ele>
        <time>2021-08-08T09:23:45Z</time>
      </trkpt>
      <trkpt lat="44.90239" lon="3.69474">
        <ele>866.7</ele>
        <time>2021-08-08T09:23:47Z</time>
      </trkpt>
      <trkpt lat="44.90239" lon="3.69478">
        <ele>867</ele>
        <time>2021-08-08T09:23:49Z</time>
      </trkpt>
      <trkpt lat="44.90239" lon="3.69483">
        <ele>867.3</ele>
        <time>2021-08-08T09:23:51Z</time>
      </trkpt>
      <trkpt lat="44.9024" lon="3.69488">
        <ele>867.6</ele>
        <time>2021-08-08T09:23:53Z</time>
      </trkpt>
      <trkpt lat="44.90239" lon="3.69492">
        <ele>868</ele>
        <time>2021-08-08T09:23:55Z</time>
      </trkpt>
      <trkpt lat="44.90238" lon="3.69497">
        <ele>868.9</ele>
        <time>2021-08-08T09:23:57Z</time>
      </trkpt>
      <trkpt lat="44.90235" lon="3.69501">
        <ele>870.1</ele>
        <time>2021-08-08T09:23:59Z</time>
      </trkpt>
      <trkpt lat="44.90232" lon="3.69505">
        <ele>871.6</ele>
        <time>2021-08-08T09:24:01Z</time>
      </trkpt>
      <trkpt lat="44.90228" lon="3.69507">
        <ele>872.9</ele>
        <time>2021-08-08T09:24:03Z</time>
      </trkpt>
      <trkpt lat="44.90225" lon="3.69508">
        <ele>874.2</ele>
        <time>2021-08-08T09:24:05Z</time>
      </trkpt>
      <trkpt lat="44.90221" lon="3.69507">
        <ele>875.4</ele>
        <time>2021-08-08T09:24:07Z</time>
      </trkpt>
      <trkpt lat="44.90218" lon="3.69506">
        <ele>876.4</ele>
        <time>2021-08-08T09:24:09Z</time>
      </trkpt>
      <trkpt lat="44.90214" lon="3.69503">
        <ele>877.3</ele>
        <time>2021-08-08T09:24:11Z</time>
      </trkpt>
      <trkpt lat="44.90212" lon="3.695">
        <ele>877.9</ele>
        <time>2021-08-08T09:24:13Z</time>
      </trkpt>
      <trkpt lat="44.90208" lon="3.69496">
        <ele>878.6</ele>
        <time>2021-08-08T09:24:15Z</time>
      </trkpt>
      <trkpt lat="44.90206" lon="3.69493">
        <ele>879.3</ele>
        <time>2021-08-08T09:24:17Z</time>
      </trkpt>
      <trkpt lat="44.90204" lon="3.69489">
        <ele>879.4</ele>
        <time>2021-08-08T09:24:19Z</time>
      </trkpt>
      <trkpt lat="44.90203" lon="3.69483">
        <ele>879.2</ele>
        <time>2021-08-08T09:24:21Z</time>
      </trkpt>
      <trkpt lat="44.90201" lon="3.69479">
        <ele>879.3</ele>
        <time>2021-08-08T09:24:23Z</time>
      </trkpt>
      <trkpt lat="44.90201" lon="3.69473">
        <ele>879</ele>
        <time>2021-08-08T09:24:25Z</time>
      </trkpt>
      <trkpt lat="44.902" lon="3.69469">
        <ele>878.8</ele>
        <time>2021-08-08T09:24:27Z</time>
      </trkpt>
      <trkpt lat="44.902" lon="3.69464">
        <ele>878.3</ele>
        <time>2021-08-08T09:24:29Z</time>
      </trkpt>
      <trkpt lat="44.902" lon="3.69458">
        <ele>877.9</ele>
        <time>2021-08-08T09:24:31Z</time>
      </trkpt>
      <trkpt lat="44.90199" lon="3.69453">
        <ele>877.8</ele>
        <time>2021-08-08T09:24:33Z</time>
      </trkpt>
      <trkpt lat="44.90198" lon="3.69448">
        <ele>877.4</ele>
        <time>2021-08-08T09:24:35Z</time>
      </trkpt>
      <trkpt lat="44.90199" lon="3.69442">
        <ele>876.7</ele>
        <time>2021-08-08T09:24:37Z</time>
      </trkpt>
      <trkpt lat="44.90198" lon="3.69436">
        <ele>876.4</ele>
        <time>2021-08-08T09:24:39Z</time>
      </trkpt>
      <trkpt lat="44.90197" lon="3.6943">
        <ele>876.1</ele>
        <time>2021-08-08T09:24:41Z</time>
      </trkpt>
      <trkpt lat="44.90197" lon="3.69425">
        <ele>875.7</ele>
        <time>2021-08-08T09:24:43Z</time>
      </trkpt>
      <trkpt lat="44.90195" lon="3.69419">
        <ele>875.7</ele>
        <time>2021-08-08T09:24:45Z</time>
      </trkpt>
      <trkpt lat="44.90193" lon="3.69414">
        <ele>876</ele>
        <time>2021-08-08T09:24:47Z</time>
      </trkpt>
      <trkpt lat="44.90192" lon="3.69409">
        <ele>876.5</ele>
        <time>2021-08-08T09:24:49Z</time>
      </trkpt>
      <trkpt lat="44.90191" lon="3.69403">
        <ele>877</ele>
        <time>2021-08-08T09:24:51Z</time>
      </trkpt>
      <trkpt lat="44.90189" lon="3.69398">
        <ele>877.6</ele>
        <time>2021-08-08T09:24:53Z</time>
      </trkpt>
      <trkpt lat="44.90188" lon="3.69392">
        <ele>878.2</ele>
        <time>2021-08-08T09:24:55Z</time>
      </trkpt>
      <trkpt lat="44.90186" lon="3.69387">
        <ele>878.7</ele>
        <time>2021-08-08T09:24:57Z</time>
      </trkpt>
      <trkpt lat="44.90185" lon="3.69381">
        <ele>879.1</ele>
        <time>2021-08-08T09:24:59Z</time>
      </trkpt>
      <trkpt lat="44.90184" lon="3.69376">
        <ele>879.7</ele>
        <time>2021-08-08T09:25:01Z</time>
      </trkpt>
      <trkpt lat="44.90183" lon="3.69371">
        <ele>880.1</ele>
        <time>2021-08-08T09:25:03Z</time>
      </trkpt>
      <trkpt lat="44.90182" lon="3.69366">
        <ele>880.5</ele>
        <time>2021-08-08T09:25:05Z</time>
      </trkpt>
      <trkpt lat="44.90181" lon="3.69361">
        <ele>880.8</ele>
        <time>2021-08-08T09:25:07Z</time>
      </trkpt>
      <trkpt lat="44.9018" lon="3.69355">
        <ele>881.1</ele>
        <time>2021-08-08T09:25:09Z</time>
      </trkpt>
      <trkpt lat="44.9018" lon="3.6935">
        <ele>881.3</ele>
        <time>2021-08-08T09:25:11Z</time>
      </trkpt>
      <trkpt lat="44.9018" lon="3.69345">
        <ele>881.6</ele>
        <time>2021-08-08T09:25:13Z</time>
      </trkpt>
      <trkpt lat="44.9018" lon="3.69339">
        <ele>881.7</ele>
        <time>2021-08-08T09:25:15Z</time>
      </trkpt>
      <trkpt lat="44.9018" lon="3.69333">
        <ele>881.8</ele>
        <time>2021-08-08T09:25:17Z</time>
      </trkpt>
      <trkpt lat="44.9018" lon="3.69328">
        <ele>881.8</ele>
        <time>2021-08-08T09:25:19Z</time>
      </trkpt>
      <trkpt lat="44.9018" lon="3.69322">
        <ele>881.7</ele>
        <time>2021-08-08T09:25:21Z</time>
      </trkpt>
      <trkpt lat="44.9018" lon="3.69316">
        <ele>881.7</ele>
        <time>2021-08-08T09:25:23Z</time>
      </trkpt>
      <trkpt lat="44.90181" lon="3.69311">
        <ele>881.6</ele>
        <time>2021-08-08T09:25:25Z</time>
      </trkpt>
      <trkpt lat="44.90182" lon="3.69305">
        <ele>881.4</ele>
        <time>2021-08-08T09:25:27Z</time>
      </trkpt>
      <trkpt lat="44.90183" lon="3.693">
        <ele>881.1</ele>
        <time>2021-08-08T09:25:29Z</time>
      </trkpt>
      <trkpt lat="44.90184" lon="3.69294">
        <ele>880.9</ele>
        <time>2021-08-08T09:25:31Z</time>
      </trkpt>
      <trkpt lat="44.90185" lon="3.69288">
        <ele>880.7</ele>
        <time>2021-08-08T09:25:33Z</time>
      </trkpt>
      <trkpt lat="44.90185" lon="3.69283">
        <ele>880.5</ele>
        <time>2021-08-08T09:25:35Z</time>
      </trkpt>
      <trkpt lat="44.90187" lon="3.69278">
        <ele>880.2</ele>
        <time>2021-08-08T09:25:37Z</time>
      </trkpt>
      <trkpt lat="44.90187" lon="3.69272">
        <ele>880</ele>
        <time>2021-08-08T09:25:39Z</time>
      </trkpt>
      <trkpt lat="44.90188" lon="3.69266">
        <ele>879.9</ele>
        <time>2021-08-08T09:25:41Z</time>
      </trkpt>
      <trkpt lat="44.90188" lon="3.69261">
        <ele>879.9</ele>
        <time>2021-08-08T09:25:43Z</time>
      </trkpt>
      <trkpt lat="44.90189" lon="3.69255">
        <ele>879.8</ele>
        <time>2021-08-08T09:25:45Z</time>
      </trkpt>
      <trkpt lat="44.90189" lon="3.6925">
        <ele>879.7</ele>
        <time>2021-08-08T09:25:47Z</time>
      </trkpt>
      <trkpt lat="44.90189" lon="3.69245">
        <ele>879.6</ele>
        <time>2021-08-08T09:25:49Z</time>
      </trkpt>
      <trkpt lat="44.90189" lon="3.69239">
        <ele>879.4</ele>
        <time>2021-08-08T09:25:51Z</time>
      </trkpt>
      <trkpt lat="44.9019" lon="3.69233">
        <ele>879.1</ele>
        <time>2021-08-08T09:25:53Z</time>
      </trkpt>
      <trkpt lat="44.9019" lon="3.69228">
        <ele>878.9</ele>
        <time>2021-08-08T09:25:55Z</time>
      </trkpt>
      <trkpt lat="44.9019" lon="3.69222">
        <ele>878.6</ele>
        <time>2021-08-08T09:25:57Z</time>
      </trkpt>
      <trkpt lat="44.9019" lon="3.69216">
        <ele>878.4</ele>
        <time>2021-08-08T09:25:59Z</time>
      </trkpt>
      <trkpt lat="44.9019" lon="3.69211">
        <ele>878.3</ele>
        <time>2021-08-08T09:26:01Z</time>
      </trkpt>
      <trkpt lat="44.9019" lon="3.69205">
        <ele>878</ele>
        <time>2021-08-08T09:26:03Z</time>
      </trkpt>
      <trkpt lat="44.90191" lon="3.692">
        <ele>877.7</ele>
        <time>2021-08-08T09:26:05Z</time>
      </trkpt>
      <trkpt lat="44.90191" lon="3.69194">
        <ele>877.4</ele>
        <time>2021-08-08T09:26:07Z</time>
      </trkpt>
      <trkpt lat="44.90191" lon="3.69188">
        <ele>877.1</ele>
        <time>2021-08-08T09:26:09Z</time>
      </trkpt>
      <trkpt lat="44.90192" lon="3.69182">
        <ele>876.8</ele>
        <time>2021-08-08T09:26:11Z</time>
      </trkpt>
      <trkpt lat="44.90192" lon="3.69177">
        <ele>876.5</ele>
        <time>2021-08-08T09:26:13Z</time>
      </trkpt>
      <trkpt lat="44.90193" lon="3.69171">
        <ele>876.2</ele>
        <time>2021-08-08T09:26:15Z</time>
      </trkpt>
      <trkpt lat="44.90193" lon="3.69165">
        <ele>875.9</ele>
        <time>2021-08-08T09:26:17Z</time>
      </trkpt>
      <trkpt lat="44.90193" lon="3.6916">
        <ele>875.6</ele>
        <time>2021-08-08T09:26:19Z</time>
      </trkpt>
      <trkpt lat="44.90193" lon="3.69155">
        <ele>875.3</ele>
        <time>2021-08-08T09:26:21Z</time>
      </trkpt>
      <trkpt lat="44.90192" lon="3.69149">
        <ele>875.1</ele>
        <time>2021-08-08T09:26:23Z</time>
      </trkpt>
      <trkpt lat="44.9019" lon="3.69145">
        <ele>875.2</ele>
        <time>2021-08-08T09:26:25Z</time>
      </trkpt>
      <trkpt lat="44.90188" lon="3.6914">
        <ele>875.1</ele>
        <time>2021-08-08T09:26:27Z</time>
      </trkpt>
      <trkpt lat="44.90186" lon="3.69136">
        <ele>875.2</ele>
        <time>2021-08-08T09:26:29Z</time>
      </trkpt>
      <trkpt lat="44.90184" lon="3.69132">
        <ele>875.4</ele>
        <time>2021-08-08T09:26:31Z</time>
      </trkpt>
      <trkpt lat="44.9018" lon="3.69129">
        <ele>875.8</ele>
        <time>2021-08-08T09:26:33Z</time>
      </trkpt>
      <trkpt lat="44.90176" lon="3.69128">
        <ele>876.5</ele>
        <time>2021-08-08T09:26:35Z</time>
      </trkpt>
      <trkpt lat="44.90172" lon="3.69127">
        <ele>877.2</ele>
        <time>2021-08-08T09:26:37Z</time>
      </trkpt>
      <trkpt lat="44.90168" lon="3.69127">
        <ele>878</ele>
        <time>2021-08-08T09:26:39Z</time>
      </trkpt>
      <trkpt lat="44.90164" lon="3.69127">
        <ele>877.9</ele>
        <time>2021-08-08T09:26:41Z</time>
      </trkpt>
      <trkpt lat="44.90161" lon="3.69127">
        <ele>877.4</ele>
        <time>2021-08-08T09:26:43Z</time>
      </trkpt>
      <trkpt lat="44.90157" lon="3.69129">
        <ele>877.1</ele>
        <time>2021-08-08T09:26:45Z</time>
      </trkpt>
      <trkpt lat="44.90154" lon="3.69131">
        <ele>876.9</ele>
        <time>2021-08-08T09:26:47Z</time>
      </trkpt>
      <trkpt lat="44.9015" lon="3.69133">
        <ele>876.7</ele>
        <time>2021-08-08T09:26:49Z</time>
      </trkpt>
      <trkpt lat="44.90147" lon="3.69138">
        <ele>877</ele>
        <time>2021-08-08T09:26:51Z</time>
      </trkpt>
      <trkpt lat="44.90144" lon="3.69141">
        <ele>877.1</ele>
        <time>2021-08-08T09:26:53Z</time>
      </trkpt>
      <trkpt lat="44.9014" lon="3.69144">
        <ele>877</ele>
        <time>2021-08-08T09:26:55Z</time>
      </trkpt>
      <trkpt lat="44.90137" lon="3.69148">
        <ele>877.3</ele>
        <time>2021-08-08T09:26:57Z</time>
      </trkpt>
      <trkpt lat="44.90134" lon="3.69152">
        <ele>877.7</ele>
        <time>2021-08-08T09:26:59Z</time>
      </trkpt>
      <trkpt lat="44.90131" lon="3.69156">
        <ele>878.1</ele>
        <time>2021-08-08T09:27:01Z</time>
      </trkpt>
      <trkpt lat="44.90127" lon="3.6916">
        <ele>878.5</ele>
        <time>2021-08-08T09:27:03Z</time>
      </trkpt>
      <trkpt lat="44.90124" lon="3.69165">
        <ele>879.1</ele>
        <time>2021-08-08T09:27:05Z</time>
      </trkpt>
      <trkpt lat="44.9012" lon="3.6917">
        <ele>879.5</ele>
        <time>2021-08-08T09:27:07Z</time>
      </trkpt>
      <trkpt lat="44.90117" lon="3.69175">
        <ele>879.9</ele>
        <time>2021-08-08T09:27:09Z</time>
      </trkpt>
      <trkpt lat="44.90113" lon="3.69181">
        <ele>880.4</ele>
        <time>2021-08-08T09:27:11Z</time>
      </trkpt>
      <trkpt lat="44.9011" lon="3.69186">
        <ele>881</ele>
        <time>2021-08-08T09:27:13Z</time>
      </trkpt>
      <trkpt lat="44.90107" lon="3.69191">
        <ele>881.5</ele>
        <time>2021-08-08T09:27:15Z</time>
      </trkpt>
      <trkpt lat="44.90103" lon="3.69196">
        <ele>882.2</ele>
        <time>2021-08-08T09:27:17Z</time>
      </trkpt>
      <trkpt lat="44.901" lon="3.69201">
        <ele>882.9</ele>
        <time>2021-08-08T09:27:19Z</time>
      </trkpt>
      <trkpt lat="44.90098" lon="3.69207">
        <ele>883.9</ele>
        <time>2021-08-08T09:27:21Z</time>
      </trkpt>
      <trkpt lat="44.90096" lon="3.69213">
        <ele>884.8</ele>
        <time>2021-08-08T09:27:23Z</time>
      </trkpt>
      <trkpt lat="44.90094" lon="3.69219">
        <ele>885.9</ele>
        <time>2021-08-08T09:27:25Z</time>
      </trkpt>
      <trkpt lat="44.90092" lon="3.69225">
        <ele>887</ele>
        <time>2021-08-08T09:27:27Z</time>
      </trkpt>
      <trkpt lat="44.90091" lon="3.6923">
        <ele>888</ele>
        <time>2021-08-08T09:27:29Z</time>
      </trkpt>
      <trkpt lat="44.9009" lon="3.69236">
        <ele>889.1</ele>
        <time>2021-08-08T09:27:31Z</time>
      </trkpt>
      <trkpt lat="44.90089" lon="3.69242">
        <ele>890.2</ele>
        <time>2021-08-08T09:27:33Z</time>
      </trkpt>
      <trkpt lat="44.90088" lon="3.69249">
        <ele>891.4</ele>
        <time>2021-08-08T09:27:35Z</time>
      </trkpt>
      <trkpt lat="44.90088" lon="3.69255">
        <ele>892.1</ele>
        <time>2021-08-08T09:27:37Z</time>
      </trkpt>
      <trkpt lat="44.90087" lon="3.69261">
        <ele>892.7</ele>
        <time>2021-08-08T09:27:39Z</time>
      </trkpt>
      <trkpt lat="44.90086" lon="3.69267">
        <ele>893.4</ele>
        <time>2021-08-08T09:27:41Z</time>
      </trkpt>
      <trkpt lat="44.90086" lon="3.69272">
        <ele>893.9</ele>
        <time>2021-08-08T09:27:43Z</time>
      </trkpt>
      <trkpt lat="44.90085" lon="3.69278">
        <ele>894.5</ele>
        <time>2021-08-08T09:27:45Z</time>
      </trkpt>
      <trkpt lat="44.90084" lon="3.69284">
        <ele>895.1</ele>
        <time>2021-08-08T09:27:47Z</time>
      </trkpt>
      <trkpt lat="44.90084" lon="3.69289">
        <ele>895.7</ele>
        <time>2021-08-08T09:27:49Z</time>
      </trkpt>
      <trkpt lat="44.90082" lon="3.69294">
        <ele>896</ele>
        <time>2021-08-08T09:27:51Z</time>
      </trkpt>
      <trkpt lat="44.90081" lon="3.69299">
        <ele>896.3</ele>
        <time>2021-08-08T09:27:53Z</time>
      </trkpt>
      <trkpt lat="44.9008" lon="3.69304">
        <ele>896.5</ele>
        <time>2021-08-08T09:27:55Z</time>
      </trkpt>
      <trkpt lat="44.90079" lon="3.69309">
        <ele>896.7</ele>
        <time>2021-08-08T09:27:57Z</time>
      </trkpt>
      <trkpt lat="44.90077" lon="3.69313">
        <ele>896.8</ele>
        <time>2021-08-08T09:27:59Z</time>
      </trkpt>
      <trkpt lat="44.90076" lon="3.69318">
        <ele>897</ele>
        <time>2021-08-08T09:28:01Z</time>
      </trkpt>
      <trkpt lat="44.90074" lon="3.69322">
        <ele>897.2</ele>
        <time>2021-08-08T09:28:03Z</time>
      </trkpt>
      <trkpt lat="44.90073" lon="3.69326">
        <ele>897.4</ele>
        <time>2021-08-08T09:28:05Z</time>
      </trkpt>
      <trkpt lat="44.9007" lon="3.6933">
        <ele>897.3</ele>
        <time>2021-08-08T09:28:07Z</time>
      </trkpt>
      <trkpt lat="44.90067" lon="3.69334">
        <ele>897.4</ele>
        <time>2021-08-08T09:28:09Z</time>
      </trkpt>
      <trkpt lat="44.90065" lon="3.69337">
        <ele>897.3</ele>
        <time>2021-08-08T09:28:11Z</time>
      </trkpt>
      <trkpt lat="44.90063" lon="3.69341">
        <ele>897.2</ele>
        <time>2021-08-08T09:28:13Z</time>
      </trkpt>
      <trkpt lat="44.9006" lon="3.69345">
        <ele>897.1</ele>
        <time>2021-08-08T09:28:15Z</time>
      </trkpt>
      <trkpt lat="44.90057" lon="3.69349">
        <ele>897.1</ele>
        <time>2021-08-08T09:28:17Z</time>
      </trkpt>
      <trkpt lat="44.90055" lon="3.69352">
        <ele>897.1</ele>
        <time>2021-08-08T09:28:19Z</time>
      </trkpt>
      <trkpt lat="44.90052" lon="3.69356">
        <ele>897</ele>
        <time>2021-08-08T09:28:21Z</time>
      </trkpt>
      <trkpt lat="44.90049" lon="3.69359">
        <ele>897</ele>
        <time>2021-08-08T09:28:23Z</time>
      </trkpt>
      <trkpt lat="44.90047" lon="3.69363">
        <ele>897.1</ele>
        <time>2021-08-08T09:28:25Z</time>
      </trkpt>
      <trkpt lat="44.90044" lon="3.69367">
        <ele>897.1</ele>
        <time>2021-08-08T09:28:27Z</time>
      </trkpt>
      <trkpt lat="44.90042" lon="3.69369">
        <ele>897.1</ele>
        <time>2021-08-08T09:28:29Z</time>
      </trkpt>
      <trkpt lat="44.90039" lon="3.69373">
        <ele>897.3</ele>
        <time>2021-08-08T09:28:31Z</time>
      </trkpt>
      <trkpt lat="44.90037" lon="3.69376">
        <ele>897.3</ele>
        <time>2021-08-08T09:28:33Z</time>
      </trkpt>
      <trkpt lat="44.90034" lon="3.6938">
        <ele>897.5</ele>
        <time>2021-08-08T09:28:35Z</time>
      </trkpt>
      <trkpt lat="44.90031" lon="3.69384">
        <ele>897.7</ele>
        <time>2021-08-08T09:28:37Z</time>
      </trkpt>
      <trkpt lat="44.90028" lon="3.69388">
        <ele>897.9</ele>
        <time>2021-08-08T09:28:39Z</time>
      </trkpt>
      <trkpt lat="44.90026" lon="3.69391">
        <ele>898.1</ele>
        <time>2021-08-08T09:28:41Z</time>
      </trkpt>
      <trkpt lat="44.90023" lon="3.69395">
        <ele>898.4</ele>
        <time>2021-08-08T09:28:43Z</time>
      </trkpt>
      <trkpt lat="44.90021" lon="3.69399">
        <ele>898.8</ele>
        <time>2021-08-08T09:28:45Z</time>
      </trkpt>
      <trkpt lat="44.90019" lon="3.69402">
        <ele>899</ele>
        <time>2021-08-08T09:28:47Z</time>
      </trkpt>
      <trkpt lat="44.90017" lon="3.69407">
        <ele>899.6</ele>
        <time>2021-08-08T09:28:49Z</time>
      </trkpt>
      <trkpt lat="44.90015" lon="3.69411">
        <ele>900.1</ele>
        <time>2021-08-08T09:28:51Z</time>
      </trkpt>
      <trkpt lat="44.90013" lon="3.69416">
        <ele>900.7</ele>
        <time>2021-08-08T09:28:53Z</time>
      </trkpt>
      <trkpt lat="44.90012" lon="3.6942">
        <ele>901</ele>
        <time>2021-08-08T09:28:55Z</time>
      </trkpt>
      <trkpt lat="44.9001" lon="3.69425">
        <ele>901.2</ele>
        <time>2021-08-08T09:28:57Z</time>
      </trkpt>
      <trkpt lat="44.90008" lon="3.69429">
        <ele>901.3</ele>
        <time>2021-08-08T09:28:59Z</time>
      </trkpt>
      <trkpt lat="44.90006" lon="3.69434">
        <ele>901.6</ele>
        <time>2021-08-08T09:29:01Z</time>
      </trkpt>
      <trkpt lat="44.90005" lon="3.69438">
        <ele>901.9</ele>
        <time>2021-08-08T09:29:03Z</time>
      </trkpt>
      <trkpt lat="44.90003" lon="3.69443">
        <ele>902.1</ele>
        <time>2021-08-08T09:29:05Z</time>
      </trkpt>
      <trkpt lat="44.90002" lon="3.69448">
        <ele>902.4</ele>
        <time>2021-08-08T09:29:07Z</time>
      </trkpt>
      <trkpt lat="44.9" lon="3.69453">
        <ele>902.6</ele>
        <time>2021-08-08T09:29:09Z</time>
      </trkpt>
      <trkpt lat="44.89999" lon="3.69458">
        <ele>902.7</ele>
        <time>2021-08-08T09:29:11Z</time>
      </trkpt>
      <trkpt lat="44.89998" lon="3.69463">
        <ele>902.8</ele>
        <time>2021-08-08T09:29:13Z</time>
      </trkpt>
      <trkpt lat="44.89996" lon="3.69468">
        <ele>902.5</ele>
        <time>2021-08-08T09:29:15Z</time>
      </trkpt>
      <trkpt lat="44.89994" lon="3.69474">
        <ele>902.4</ele>
        <time>2021-08-08T09:29:17Z</time>
      </trkpt>
      <trkpt lat="44.89993" lon="3.6948">
        <ele>902.4</ele>
        <time>2021-08-08T09:29:19Z</time>
      </trkpt>
      <trkpt lat="44.89992" lon="3.69485">
        <ele>902.3</ele>
        <time>2021-08-08T09:29:21Z</time>
      </trkpt>
      <trkpt lat="44.8999" lon="3.69491">
        <ele>902.3</ele>
        <time>2021-08-08T09:29:23Z</time>
      </trkpt>
      <trkpt lat="44.89989" lon="3.69496">
        <ele>902.3</ele>
        <time>2021-08-08T09:29:25Z</time>
      </trkpt>
      <trkpt lat="44.89987" lon="3.69503">
        <ele>902.2</ele>
        <time>2021-08-08T09:29:27Z</time>
      </trkpt>
      <trkpt lat="44.89986" lon="3.69509">
        <ele>902.2</ele>
        <time>2021-08-08T09:29:29Z</time>
      </trkpt>
      <trkpt lat="44.89986" lon="3.69515">
        <ele>902.3</ele>
        <time>2021-08-08T09:29:31Z</time>
      </trkpt>
      <trkpt lat="44.89985" lon="3.69521">
        <ele>902.4</ele>
        <time>2021-08-08T09:29:33Z</time>
      </trkpt>
      <trkpt lat="44.89985" lon="3.69526">
        <ele>902.6</ele>
        <time>2021-08-08T09:29:35Z</time>
      </trkpt>
      <trkpt lat="44.89985" lon="3.69533">
        <ele>902.9</ele>
        <time>2021-08-08T09:29:37Z</time>
      </trkpt>
      <trkpt lat="44.89985" lon="3.6954">
        <ele>903.3</ele>
        <time>2021-08-08T09:29:39Z</time>
      </trkpt>
      <trkpt lat="44.89985" lon="3.69546">
        <ele>903.6</ele>
        <time>2021-08-08T09:29:41Z</time>
      </trkpt>
      <trkpt lat="44.89986" lon="3.69552">
        <ele>904.1</ele>
        <time>2021-08-08T09:29:43Z</time>
      </trkpt>
      <trkpt lat="44.89986" lon="3.69559">
        <ele>904.6</ele>
        <time>2021-08-08T09:29:45Z</time>
      </trkpt>
      <trkpt lat="44.89986" lon="3.69565">
        <ele>905</ele>
        <time>2021-08-08T09:29:47Z</time>
      </trkpt>
      <trkpt lat="44.89987" lon="3.69571">
        <ele>905.5</ele>
        <time>2021-08-08T09:29:49Z</time>
      </trkpt>
      <trkpt lat="44.89988" lon="3.69578">
        <ele>906.2</ele>
        <time>2021-08-08T09:29:51Z</time>
      </trkpt>
      <trkpt lat="44.89988" lon="3.69584">
        <ele>906.7</ele>
        <time>2021-08-08T09:29:53Z</time>
      </trkpt>
      <trkpt lat="44.89989" lon="3.69591">
        <ele>907.1</ele>
        <time>2021-08-08T09:29:55Z</time>
      </trkpt>
      <trkpt lat="44.89989" lon="3.69598">
        <ele>907.7</ele>
        <time>2021-08-08T09:29:57Z</time>
      </trkpt>
      <trkpt lat="44.89989" lon="3.69604">
        <ele>908</ele>
        <time>2021-08-08T09:29:59Z</time>
      </trkpt>
      <trkpt lat="44.89989" lon="3.69611">
        <ele>908.4</ele>
        <time>2021-08-08T09:30:01Z</time>
      </trkpt>
      <trkpt lat="44.89989" lon="3.69617">
        <ele>908.7</ele>
        <time>2021-08-08T09:30:03Z</time>
      </trkpt>
      <trkpt lat="44.89988" lon="3.69623">
        <ele>908.8</ele>
        <time>2021-08-08T09:30:05Z</time>
      </trkpt>
      <trkpt lat="44.89988" lon="3.6963">
        <ele>908.9</ele>
        <time>2021-08-08T09:30:07Z</time>
      </trkpt>
      <trkpt lat="44.89987" lon="3.69636">
        <ele>909</ele>
        <time>2021-08-08T09:30:09Z</time>
      </trkpt>
      <trkpt lat="44.89986" lon="3.69642">
        <ele>909</ele>
        <time>2021-08-08T09:30:11Z</time>
      </trkpt>
      <trkpt lat="44.89986" lon="3.69648">
        <ele>909.3</ele>
        <time>2021-08-08T09:30:13Z</time>
      </trkpt>
      <trkpt lat="44.89985" lon="3.69655">
        <ele>909.2</ele>
        <time>2021-08-08T09:30:15Z</time>
      </trkpt>
      <trkpt lat="44.89984" lon="3.69661">
        <ele>909.3</ele>
        <time>2021-08-08T09:30:17Z</time>
      </trkpt>
      <trkpt lat="44.89983" lon="3.69666">
        <ele>909.3</ele>
        <time>2021-08-08T09:30:19Z</time>
      </trkpt>
      <trkpt lat="44.89983" lon="3.69671">
        <ele>909.8</ele>
        <time>2021-08-08T09:30:21Z</time>
      </trkpt>
      <trkpt lat="44.89982" lon="3.69677">
        <ele>910</ele>
        <time>2021-08-08T09:30:23Z</time>
      </trkpt>
      <trkpt lat="44.89982" lon="3.69682">
        <ele>910.5</ele>
        <time>2021-08-08T09:30:25Z</time>
      </trkpt>
      <trkpt lat="44.89981" lon="3.69687">
        <ele>910.8</ele>
        <time>2021-08-08T09:30:27Z</time>
      </trkpt>
      <trkpt lat="44.89979" lon="3.69692">
        <ele>910.9</ele>
        <time>2021-08-08T09:30:29Z</time>
      </trkpt>
      <trkpt lat="44.89979" lon="3.69697">
        <ele>911.2</ele>
        <time>2021-08-08T09:30:31Z</time>
      </trkpt>
      <trkpt lat="44.89978" lon="3.69703">
        <ele>911.7</ele>
        <time>2021-08-08T09:30:33Z</time>
      </trkpt>
      <trkpt lat="44.89978" lon="3.69707">
        <ele>912.1</ele>
        <time>2021-08-08T09:30:35Z</time>
      </trkpt>
      <trkpt lat="44.89977" lon="3.69713">
        <ele>912.3</ele>
        <time>2021-08-08T09:30:37Z</time>
      </trkpt>
      <trkpt lat="44.89976" lon="3.69719">
        <ele>912.8</ele>
        <time>2021-08-08T09:30:39Z</time>
      </trkpt>
      <trkpt lat="44.89976" lon="3.69723">
        <ele>913.1</ele>
        <time>2021-08-08T09:30:41Z</time>
      </trkpt>
      <trkpt lat="44.89975" lon="3.69729">
        <ele>913.4</ele>
        <time>2021-08-08T09:30:43Z</time>
      </trkpt>
      <trkpt lat="44.89973" lon="3.69735">
        <ele>913.7</ele>
        <time>2021-08-08T09:30:45Z</time>
      </trkpt>
      <trkpt lat="44.89973" lon="3.6974">
        <ele>914.1</ele>
        <time>2021-08-08T09:30:47Z</time>
      </trkpt>
      <trkpt lat="44.89972" lon="3.69746">
        <ele>914.5</ele>
        <time>2021-08-08T09:30:49Z</time>
      </trkpt>
      <trkpt lat="44.89972" lon="3.69751">
        <ele>914.9</ele>
        <time>2021-08-08T09:30:51Z</time>
      </trkpt>
      <trkpt lat="44.89971" lon="3.69756">
        <ele>915.1</ele>
        <time>2021-08-08T09:30:53Z</time>
      </trkpt>
      <trkpt lat="44.89972" lon="3.69762">
        <ele>915.5</ele>
        <time>2021-08-08T09:30:55Z</time>
      </trkpt>
      <trkpt lat="44.89971" lon="3.69767">
        <ele>915.7</ele>
        <time>2021-08-08T09:30:57Z</time>
      </trkpt>
      <trkpt lat="44.8997" lon="3.69774">
        <ele>915.7</ele>
        <time>2021-08-08T09:30:59Z</time>
      </trkpt>
      <trkpt lat="44.8997" lon="3.6978">
        <ele>916.2</ele>
        <time>2021-08-08T09:31:01Z</time>
      </trkpt>
      <trkpt lat="44.8997" lon="3.69785">
        <ele>916.5</ele>
        <time>2021-08-08T09:31:03Z</time>
      </trkpt>
      <trkpt lat="44.8997" lon="3.69791">
        <ele>917</ele>
        <time>2021-08-08T09:31:05Z</time>
      </trkpt>
      <trkpt lat="44.8997" lon="3.69796">
        <ele>917.3</ele>
        <time>2021-08-08T09:31:07Z</time>
      </trkpt>
      <trkpt lat="44.8997" lon="3.69801">
        <ele>917.7</ele>
        <time>2021-08-08T09:31:09Z</time>
      </trkpt>
      <trkpt lat="44.89971" lon="3.69807">
        <ele>918.2</ele>
        <time>2021-08-08T09:31:11Z</time>
      </trkpt>
      <trkpt lat="44.89971" lon="3.69812">
        <ele>918.7</ele>
        <time>2021-08-08T09:31:13Z</time>
      </trkpt>
      <trkpt lat="44.89972" lon="3.69818">
        <ele>919.2</ele>
        <time>2021-08-08T09:31:15Z</time>
      </trkpt>
      <trkpt lat="44.89972" lon="3.69823">
        <ele>919.6</ele>
        <time>2021-08-08T09:31:17Z</time>
      </trkpt>
      <trkpt lat="44.89973" lon="3.69829">
        <ele>920.3</ele>
        <time>2021-08-08T09:31:19Z</time>
      </trkpt>
      <trkpt lat="44.89974" lon="3.69834">
        <ele>920.8</ele>
        <time>2021-08-08T09:31:21Z</time>
      </trkpt>
      <trkpt lat="44.89974" lon="3.69839">
        <ele>921.1</ele>
        <time>2021-08-08T09:31:23Z</time>
      </trkpt>
      <trkpt lat="44.89975" lon="3.69845">
        <ele>921.6</ele>
        <time>2021-08-08T09:31:25Z</time>
      </trkpt>
      <trkpt lat="44.89975" lon="3.6985">
        <ele>921.9</ele>
        <time>2021-08-08T09:31:27Z</time>
      </trkpt>
      <trkpt lat="44.89976" lon="3.69855">
        <ele>922.3</ele>
        <time>2021-08-08T09:31:29Z</time>
      </trkpt>
      <trkpt lat="44.89976" lon="3.69861">
        <ele>922.7</ele>
        <time>2021-08-08T09:31:31Z</time>
      </trkpt>
      <trkpt lat="44.89976" lon="3.69866">
        <ele>922.8</ele>
        <time>2021-08-08T09:31:33Z</time>
      </trkpt>
      <trkpt lat="44.89976" lon="3.69872">
        <ele>923.2</ele>
        <time>2021-08-08T09:31:35Z</time>
      </trkpt>
      <trkpt lat="44.89977" lon="3.69877">
        <ele>923.6</ele>
        <time>2021-08-08T09:31:37Z</time>
      </trkpt>
      <trkpt lat="44.89977" lon="3.69882">
        <ele>924</ele>
        <time>2021-08-08T09:31:39Z</time>
      </trkpt>
      <trkpt lat="44.89978" lon="3.69887">
        <ele>924.4</ele>
        <time>2021-08-08T09:31:41Z</time>
      </trkpt>
      <trkpt lat="44.89979" lon="3.69893">
        <ele>925</ele>
        <time>2021-08-08T09:31:43Z</time>
      </trkpt>
      <trkpt lat="44.89979" lon="3.69898">
        <ele>925.2</ele>
        <time>2021-08-08T09:31:45Z</time>
      </trkpt>
      <trkpt lat="44.8998" lon="3.69903">
        <ele>925.7</ele>
        <time>2021-08-08T09:31:47Z</time>
      </trkpt>
      <trkpt lat="44.8998" lon="3.69908">
        <ele>926</ele>
        <time>2021-08-08T09:31:49Z</time>
      </trkpt>
      <trkpt lat="44.89981" lon="3.69914">
        <ele>926.5</ele>
        <time>2021-08-08T09:31:51Z</time>
      </trkpt>
      <trkpt lat="44.89981" lon="3.69919">
        <ele>926.9</ele>
        <time>2021-08-08T09:31:53Z</time>
      </trkpt>
      <trkpt lat="44.89982" lon="3.69925">
        <ele>927.6</ele>
        <time>2021-08-08T09:31:55Z</time>
      </trkpt>
      <trkpt lat="44.89982" lon="3.6993">
        <ele>928.2</ele>
        <time>2021-08-08T09:31:57Z</time>
      </trkpt>
      <trkpt lat="44.89982" lon="3.69935">
        <ele>928.6</ele>
        <time>2021-08-08T09:31:59Z</time>
      </trkpt>
      <trkpt lat="44.89983" lon="3.69941">
        <ele>929.4</ele>
        <time>2021-08-08T09:32:01Z</time>
      </trkpt>
      <trkpt lat="44.89984" lon="3.69946">
        <ele>930</ele>
        <time>2021-08-08T09:32:03Z</time>
      </trkpt>
      <trkpt lat="44.89984" lon="3.69951">
        <ele>930.5</ele>
        <time>2021-08-08T09:32:05Z</time>
      </trkpt>
      <trkpt lat="44.89984" lon="3.69956">
        <ele>930.8</ele>
        <time>2021-08-08T09:32:07Z</time>
      </trkpt>
      <trkpt lat="44.89983" lon="3.69961">
        <ele>931.1</ele>
        <time>2021-08-08T09:32:09Z</time>
      </trkpt>
      <trkpt lat="44.89983" lon="3.69967">
        <ele>931.6</ele>
        <time>2021-08-08T09:32:11Z</time>
      </trkpt>
      <trkpt lat="44.89983" lon="3.69972">
        <ele>931.9</ele>
        <time>2021-08-08T09:32:13Z</time>
      </trkpt>
      <trkpt lat="44.89982" lon="3.69978">
        <ele>932.2</ele>
        <time>2021-08-08T09:32:15Z</time>
      </trkpt>
      <trkpt lat="44.89981" lon="3.69983">
        <ele>932.4</ele>
        <time>2021-08-08T09:32:17Z</time>
      </trkpt>
      <trkpt lat="44.8998" lon="3.69988">
        <ele>932.7</ele>
        <time>2021-08-08T09:32:19Z</time>
      </trkpt>
      <trkpt lat="44.89979" lon="3.69993">
        <ele>932.8</ele>
        <time>2021-08-08T09:32:21Z</time>
      </trkpt>
      <trkpt lat="44.89977" lon="3.69998">
        <ele>932.9</ele>
        <time>2021-08-08T09:32:23Z</time>
      </trkpt>
      <trkpt lat="44.89975" lon="3.70003">
        <ele>933.3</ele>
        <time>2021-08-08T09:32:25Z</time>
      </trkpt>
      <trkpt lat="44.89973" lon="3.70008">
        <ele>933.9</ele>
        <time>2021-08-08T09:32:27Z</time>
      </trkpt>
      <trkpt lat="44.89972" lon="3.70013">
        <ele>934.6</ele>
        <time>2021-08-08T09:32:29Z</time>
      </trkpt>
      <trkpt lat="44.8997" lon="3.70017">
        <ele>935</ele>
        <time>2021-08-08T09:32:31Z</time>
      </trkpt>
      <trkpt lat="44.89968" lon="3.70022">
        <ele>935.6</ele>
        <time>2021-08-08T09:32:33Z</time>
      </trkpt>
      <trkpt lat="44.89966" lon="3.70026">
        <ele>936.2</ele>
        <time>2021-08-08T09:32:35Z</time>
      </trkpt>
      <trkpt lat="44.89964" lon="3.70031">
        <ele>936.7</ele>
        <time>2021-08-08T09:32:37Z</time>
      </trkpt>
      <trkpt lat="44.89962" lon="3.70035">
        <ele>937.2</ele>
        <time>2021-08-08T09:32:39Z</time>
      </trkpt>
      <trkpt lat="44.8996" lon="3.70039">
        <ele>937.6</ele>
        <time>2021-08-08T09:32:41Z</time>
      </trkpt>
      <trkpt lat="44.89957" lon="3.70043">
        <ele>938.1</ele>
        <time>2021-08-08T09:32:43Z</time>
      </trkpt>
      <trkpt lat="44.89955" lon="3.70047">
        <ele>938.6</ele>
        <time>2021-08-08T09:32:45Z</time>
      </trkpt>
      <trkpt lat="44.89951" lon="3.7005">
        <ele>938.7</ele>
        <time>2021-08-08T09:32:47Z</time>
      </trkpt>
      <trkpt lat="44.89949" lon="3.70053">
        <ele>938.9</ele>
        <time>2021-08-08T09:32:49Z</time>
      </trkpt>
      <trkpt lat="44.89946" lon="3.70056">
        <ele>939.2</ele>
        <time>2021-08-08T09:32:51Z</time>
      </trkpt>
      <trkpt lat="44.89943" lon="3.70058">
        <ele>939.3</ele>
        <time>2021-08-08T09:32:53Z</time>
      </trkpt>
      <trkpt lat="44.8994" lon="3.70061">
        <ele>939.4</ele>
        <time>2021-08-08T09:32:55Z</time>
      </trkpt>
      <trkpt lat="44.89937" lon="3.70063">
        <ele>939.5</ele>
        <time>2021-08-08T09:32:57Z</time>
      </trkpt>
      <trkpt lat="44.89934" lon="3.70065">
        <ele>939.6</ele>
        <time>2021-08-08T09:32:59Z</time>
      </trkpt>
      <trkpt lat="44.8993" lon="3.70067">
        <ele>939.6</ele>
        <time>2021-08-08T09:33:01Z</time>
      </trkpt>
      <trkpt lat="44.89927" lon="3.70069">
        <ele>939.5</ele>
        <time>2021-08-08T09:33:03Z</time>
      </trkpt>
      <trkpt lat="44.89923" lon="3.70069">
        <ele>939.1</ele>
        <time>2021-08-08T09:33:05Z</time>
      </trkpt>
      <trkpt lat="44.89919" lon="3.70072">
        <ele>939.3</ele>
        <time>2021-08-08T09:33:07Z</time>
      </trkpt>
      <trkpt lat="44.89916" lon="3.70073">
        <ele>939.1</ele>
        <time>2021-08-08T09:33:09Z</time>
      </trkpt>
      <trkpt lat="44.89913" lon="3.70074">
        <ele>938.5</ele>
        <time>2021-08-08T09:33:11Z</time>
      </trkpt>
      <trkpt lat="44.89909" lon="3.70075">
        <ele>937.9</ele>
        <time>2021-08-08T09:33:13Z</time>
      </trkpt>
      <trkpt lat="44.89906" lon="3.70076">
        <ele>937.3</ele>
        <time>2021-08-08T09:33:15Z</time>
      </trkpt>
      <trkpt lat="44.89902" lon="3.70077">
        <ele>936.7</ele>
        <time>2021-08-08T09:33:17Z</time>
      </trkpt>
      <trkpt lat="44.89899" lon="3.70079">
        <ele>936.1</ele>
        <time>2021-08-08T09:33:19Z</time>
      </trkpt>
      <trkpt lat="44.89895" lon="3.70081">
        <ele>935.8</ele>
        <time>2021-08-08T09:33:21Z</time>
      </trkpt>
      <trkpt lat="44.89892" lon="3.70083">
        <ele>935.4</ele>
        <time>2021-08-08T09:33:23Z</time>
      </trkpt>
      <trkpt lat="44.89889" lon="3.70086">
        <ele>935</ele>
        <time>2021-08-08T09:33:25Z</time>
      </trkpt>
      <trkpt lat="44.89886" lon="3.70088">
        <ele>934.5</ele>
        <time>2021-08-08T09:33:27Z</time>
      </trkpt>
      <trkpt lat="44.89883" lon="3.70091">
        <ele>934.2</ele>
        <time>2021-08-08T09:33:29Z</time>
      </trkpt>
      <trkpt lat="44.89881" lon="3.70094">
        <ele>934</ele>
        <time>2021-08-08T09:33:31Z</time>
      </trkpt>
      <trkpt lat="44.89878" lon="3.70098">
        <ele>933.8</ele>
        <time>2021-08-08T09:33:33Z</time>
      </trkpt>
      <trkpt lat="44.89875" lon="3.70102">
        <ele>933.6</ele>
        <time>2021-08-08T09:33:35Z</time>
      </trkpt>
      <trkpt lat="44.89873" lon="3.70105">
        <ele>933.5</ele>
        <time>2021-08-08T09:33:37Z</time>
      </trkpt>
      <trkpt lat="44.89871" lon="3.7011">
        <ele>933.4</ele>
        <time>2021-08-08T09:33:39Z</time>
      </trkpt>
      <trkpt lat="44.8987" lon="3.70115">
        <ele>933.6</ele>
        <time>2021-08-08T09:33:41Z</time>
      </trkpt>
      <trkpt lat="44.89868" lon="3.7012">
        <ele>933.7</ele>
        <time>2021-08-08T09:33:43Z</time>
      </trkpt>
      <trkpt lat="44.89867" lon="3.70124">
        <ele>933.9</ele>
        <time>2021-08-08T09:33:45Z</time>
      </trkpt>
      <trkpt lat="44.89866" lon="3.70129">
        <ele>934</ele>
        <time>2021-08-08T09:33:47Z</time>
      </trkpt>
      <trkpt lat="44.89865" lon="3.70134">
        <ele>934.2</ele>
        <time>2021-08-08T09:33:49Z</time>
      </trkpt>
      <trkpt lat="44.89863" lon="3.70139">
        <ele>934.4</ele>
        <time>2021-08-08T09:33:51Z</time>
      </trkpt>
      <trkpt lat="44.89864" lon="3.70144">
        <ele>935</ele>
        <time>2021-08-08T09:33:53Z</time>
      </trkpt>
      <trkpt lat="44.89864" lon="3.7015">
        <ele>935.6</ele>
        <time>2021-08-08T09:33:55Z</time>
      </trkpt>
      <trkpt lat="44.89864" lon="3.70155">
        <ele>936.4</ele>
        <time>2021-08-08T09:33:57Z</time>
      </trkpt>
      <trkpt lat="44.89865" lon="3.7016">
        <ele>937.4</ele>
        <time>2021-08-08T09:33:59Z</time>
      </trkpt>
      <trkpt lat="44.89866" lon="3.70164">
        <ele>938.3</ele>
        <time>2021-08-08T09:34:01Z</time>
      </trkpt>
      <trkpt lat="44.89867" lon="3.70169">
        <ele>939.2</ele>
        <time>2021-08-08T09:34:03Z</time>
      </trkpt>
      <trkpt lat="44.89868" lon="3.70173">
        <ele>940.3</ele>
        <time>2021-08-08T09:34:05Z</time>
      </trkpt>
      <trkpt lat="44.8987" lon="3.70178">
        <ele>941.4</ele>
        <time>2021-08-08T09:34:07Z</time>
      </trkpt>
      <trkpt lat="44.89871" lon="3.70183">
        <ele>942.5</ele>
        <time>2021-08-08T09:34:09Z</time>
      </trkpt>
      <trkpt lat="44.89873" lon="3.70187">
        <ele>943.6</ele>
        <time>2021-08-08T09:34:11Z</time>
      </trkpt>
      <trkpt lat="44.89874" lon="3.70192">
        <ele>944.7</ele>
        <time>2021-08-08T09:34:13Z</time>
      </trkpt>
      <trkpt lat="44.89875" lon="3.70196">
        <ele>945.7</ele>
        <time>2021-08-08T09:34:15Z</time>
      </trkpt>
      <trkpt lat="44.89877" lon="3.70201">
        <ele>946.8</ele>
        <time>2021-08-08T09:34:17Z</time>
      </trkpt>
      <trkpt lat="44.89878" lon="3.70205">
        <ele>947.7</ele>
        <time>2021-08-08T09:34:19Z</time>
      </trkpt>
      <trkpt lat="44.89879" lon="3.7021">
        <ele>948.7</ele>
        <time>2021-08-08T09:34:21Z</time>
      </trkpt>
      <trkpt lat="44.8988" lon="3.70214">
        <ele>949.6</ele>
        <time>2021-08-08T09:34:23Z</time>
      </trkpt>
      <trkpt lat="44.89881" lon="3.70219">
        <ele>950.4</ele>
        <time>2021-08-08T09:34:25Z</time>
      </trkpt>
      <trkpt lat="44.89882" lon="3.70223">
        <ele>951.1</ele>
        <time>2021-08-08T09:34:27Z</time>
      </trkpt>
      <trkpt lat="44.89882" lon="3.70228">
        <ele>951.8</ele>
        <time>2021-08-08T09:34:29Z</time>
      </trkpt>
      <trkpt lat="44.89883" lon="3.70234">
        <ele>952.5</ele>
        <time>2021-08-08T09:34:31Z</time>
      </trkpt>
      <trkpt lat="44.89882" lon="3.70239">
        <ele>952.9</ele>
        <time>2021-08-08T09:34:33Z</time>
      </trkpt>
      <trkpt lat="44.89881" lon="3.70243">
        <ele>953.2</ele>
        <time>2021-08-08T09:34:35Z</time>
      </trkpt>
      <trkpt lat="44.8988" lon="3.70247">
        <ele>953.4</ele>
        <time>2021-08-08T09:34:37Z</time>
      </trkpt>
      <trkpt lat="44.89878" lon="3.70252">
        <ele>953.4</ele>
        <time>2021-08-08T09:34:39Z</time>
      </trkpt>
      <trkpt lat="44.89877" lon="3.70256">
        <ele>953.8</ele>
        <time>2021-08-08T09:34:41Z</time>
      </trkpt>
      <trkpt lat="44.89874" lon="3.70259">
        <ele>953.9</ele>
        <time>2021-08-08T09:34:43Z</time>
      </trkpt>
      <trkpt lat="44.89872" lon="3.70263">
        <ele>953.9</ele>
        <time>2021-08-08T09:34:45Z</time>
      </trkpt>
      <trkpt lat="44.8987" lon="3.70266">
        <ele>953.9</ele>
        <time>2021-08-08T09:34:47Z</time>
      </trkpt>
      <trkpt lat="44.89867" lon="3.70269">
        <ele>953.8</ele>
        <time>2021-08-08T09:34:49Z</time>
      </trkpt>
      <trkpt lat="44.89865" lon="3.70273">
        <ele>954</ele>
        <time>2021-08-08T09:34:51Z</time>
      </trkpt>
      <trkpt lat="44.89862" lon="3.70276">
        <ele>954.1</ele>
        <time>2021-08-08T09:34:53Z</time>
      </trkpt>
      <trkpt lat="44.89859" lon="3.70279">
        <ele>954</ele>
        <time>2021-08-08T09:34:55Z</time>
      </trkpt>
      <trkpt lat="44.89857" lon="3.70283">
        <ele>954.1</ele>
        <time>2021-08-08T09:34:57Z</time>
      </trkpt>
      <trkpt lat="44.89854" lon="3.70286">
        <ele>954</ele>
        <time>2021-08-08T09:34:59Z</time>
      </trkpt>
      <trkpt lat="44.89851" lon="3.70289">
        <ele>954</ele>
        <time>2021-08-08T09:35:01Z</time>
      </trkpt>
      <trkpt lat="44.89849" lon="3.70291">
        <ele>954.1</ele>
        <time>2021-08-08T09:35:03Z</time>
      </trkpt>
      <trkpt lat="44.89847" lon="3.70295">
        <ele>954.3</ele>
        <time>2021-08-08T09:35:05Z</time>
      </trkpt>
      <trkpt lat="44.89843" lon="3.70298">
        <ele>954.3</ele>
        <time>2021-08-08T09:35:07Z</time>
      </trkpt>
      <trkpt lat="44.89841" lon="3.70302">
        <ele>954.8</ele>
        <time>2021-08-08T09:35:09Z</time>
      </trkpt>
      <trkpt lat="44.89839" lon="3.70306">
        <ele>955.2</ele>
        <time>2021-08-08T09:35:11Z</time>
      </trkpt>
      <trkpt lat="44.89837" lon="3.7031">
        <ele>955.5</ele>
        <time>2021-08-08T09:35:13Z</time>
      </trkpt>
      <trkpt lat="44.89834" lon="3.70313">
        <ele>956</ele>
        <time>2021-08-08T09:35:15Z</time>
      </trkpt>
      <trkpt lat="44.89832" lon="3.70317">
        <ele>956.2</ele>
        <time>2021-08-08T09:35:17Z</time>
      </trkpt>
      <trkpt lat="44.8983" lon="3.70321">
        <ele>956.4</ele>
        <time>2021-08-08T09:35:19Z</time>
      </trkpt>
      <trkpt lat="44.89827" lon="3.70325">
        <ele>956.6</ele>
        <time>2021-08-08T09:35:21Z</time>
      </trkpt>
      <trkpt lat="44.89826" lon="3.70329">
        <ele>957.2</ele>
        <time>2021-08-08T09:35:23Z</time>
      </trkpt>
      <trkpt lat="44.89824" lon="3.70333">
        <ele>957.6</ele>
        <time>2021-08-08T09:35:25Z</time>
      </trkpt>
      <trkpt lat="44.89822" lon="3.70337">
        <ele>957.5</ele>
        <time>2021-08-08T09:35:27Z</time>
      </trkpt>
      <trkpt lat="44.8982" lon="3.70341">
        <ele>957.4</ele>
        <time>2021-08-08T09:35:29Z</time>
      </trkpt>
      <trkpt lat="44.89818" lon="3.70345">
        <ele>957.2</ele>
        <time>2021-08-08T09:35:31Z</time>
      </trkpt>
      <trkpt lat="44.89816" lon="3.70349">
        <ele>957.2</ele>
        <time>2021-08-08T09:35:33Z</time>
      </trkpt>
      <trkpt lat="44.89814" lon="3.70353">
        <ele>957.3</ele>
        <time>2021-08-08T09:35:35Z</time>
      </trkpt>
      <trkpt lat="44.89812" lon="3.70357">
        <ele>957.3</ele>
        <time>2021-08-08T09:35:37Z</time>
      </trkpt>
      <trkpt lat="44.89811" lon="3.70362">
        <ele>957.5</ele>
        <time>2021-08-08T09:35:39Z</time>
      </trkpt>
      <trkpt lat="44.89809" lon="3.70366">
        <ele>957.5</ele>
        <time>2021-08-08T09:35:41Z</time>
      </trkpt>
      <trkpt lat="44.89808" lon="3.7037">
        <ele>957.7</ele>
        <time>2021-08-08T09:35:43Z</time>
      </trkpt>
      <trkpt lat="44.89806" lon="3.70375">
        <ele>957.8</ele>
        <time>2021-08-08T09:35:45Z</time>
      </trkpt>
      <trkpt lat="44.89805" lon="3.7038">
        <ele>958</ele>
        <time>2021-08-08T09:35:47Z</time>
      </trkpt>
      <trkpt lat="44.89803" lon="3.70385">
        <ele>958.2</ele>
        <time>2021-08-08T09:35:49Z</time>
      </trkpt>
      <trkpt lat="44.89802" lon="3.7039">
        <ele>958.5</ele>
        <time>2021-08-08T09:35:51Z</time>
      </trkpt>
      <trkpt lat="44.89802" lon="3.70393">
        <ele>958.8</ele>
        <time>2021-08-08T09:35:53Z</time>
      </trkpt>
      <trkpt lat="44.89801" lon="3.70398">
        <ele>959.2</ele>
        <time>2021-08-08T09:35:55Z</time>
      </trkpt>
      <trkpt lat="44.898" lon="3.70403">
        <ele>959.8</ele>
        <time>2021-08-08T09:35:57Z</time>
      </trkpt>
      <trkpt lat="44.898" lon="3.70407">
        <ele>960.2</ele>
        <time>2021-08-08T09:35:59Z</time>
      </trkpt>
      <trkpt lat="44.898" lon="3.70412">
        <ele>960.9</ele>
        <time>2021-08-08T09:36:01Z</time>
      </trkpt>
      <trkpt lat="44.898" lon="3.70417">
        <ele>961.6</ele>
        <time>2021-08-08T09:36:03Z</time>
      </trkpt>
      <trkpt lat="44.89799" lon="3.70421">
        <ele>961.8</ele>
        <time>2021-08-08T09:36:05Z</time>
      </trkpt>
      <trkpt lat="44.89799" lon="3.70426">
        <ele>962</ele>
        <time>2021-08-08T09:36:07Z</time>
      </trkpt>
      <trkpt lat="44.89799" lon="3.70431">
        <ele>962.3</ele>
        <time>2021-08-08T09:36:09Z</time>
      </trkpt>
      <trkpt lat="44.89799" lon="3.70436">
        <ele>962.7</ele>
        <time>2021-08-08T09:36:11Z</time>
      </trkpt>
      <trkpt lat="44.89799" lon="3.70441">
        <ele>962.8</ele>
        <time>2021-08-08T09:36:13Z</time>
      </trkpt>
      <trkpt lat="44.89798" lon="3.70446">
        <ele>963</ele>
        <time>2021-08-08T09:36:15Z</time>
      </trkpt>
      <trkpt lat="44.89798" lon="3.7045">
        <ele>963.3</ele>
        <time>2021-08-08T09:36:17Z</time>
      </trkpt>
      <trkpt lat="44.89798" lon="3.70455">
        <ele>963.6</ele>
        <time>2021-08-08T09:36:19Z</time>
      </trkpt>
      <trkpt lat="44.89798" lon="3.7046">
        <ele>963.8</ele>
        <time>2021-08-08T09:36:21Z</time>
      </trkpt>
      <trkpt lat="44.89798" lon="3.70465">
        <ele>964</ele>
        <time>2021-08-08T09:36:23Z</time>
      </trkpt>
      <trkpt lat="44.89797" lon="3.7047">
        <ele>964.3</ele>
        <time>2021-08-08T09:36:25Z</time>
      </trkpt>
      <trkpt lat="44.89797" lon="3.70475">
        <ele>964.6</ele>
        <time>2021-08-08T09:36:27Z</time>
      </trkpt>
      <trkpt lat="44.89797" lon="3.7048">
        <ele>964.9</ele>
        <time>2021-08-08T09:36:29Z</time>
      </trkpt>
      <trkpt lat="44.89798" lon="3.70485">
        <ele>965.3</ele>
        <time>2021-08-08T09:36:31Z</time>
      </trkpt>
      <trkpt lat="44.89797" lon="3.7049">
        <ele>965.6</ele>
        <time>2021-08-08T09:36:33Z</time>
      </trkpt>
      <trkpt lat="44.89798" lon="3.70496">
        <ele>966</ele>
        <time>2021-08-08T09:36:35Z</time>
      </trkpt>
      <trkpt lat="44.89798" lon="3.705">
        <ele>966.3</ele>
        <time>2021-08-08T09:36:37Z</time>
      </trkpt>
      <trkpt lat="44.89798" lon="3.70505">
        <ele>967</ele>
        <time>2021-08-08T09:36:39Z</time>
      </trkpt>
      <trkpt lat="44.89798" lon="3.7051">
        <ele>967.6</ele>
        <time>2021-08-08T09:36:41Z</time>
      </trkpt>
      <trkpt lat="44.89798" lon="3.70515">
        <ele>968.2</ele>
        <time>2021-08-08T09:36:43Z</time>
      </trkpt>
      <trkpt lat="44.89798" lon="3.7052">
        <ele>968.6</ele>
        <time>2021-08-08T09:36:45Z</time>
      </trkpt>
      <trkpt lat="44.89798" lon="3.70525">
        <ele>969</ele>
        <time>2021-08-08T09:36:47Z</time>
      </trkpt>
      <trkpt lat="44.89797" lon="3.7053">
        <ele>969.3</ele>
        <time>2021-08-08T09:36:49Z</time>
      </trkpt>
      <trkpt lat="44.89796" lon="3.70535">
        <ele>969.6</ele>
        <time>2021-08-08T09:36:51Z</time>
      </trkpt>
      <trkpt lat="44.89795" lon="3.7054">
        <ele>969.9</ele>
        <time>2021-08-08T09:36:53Z</time>
      </trkpt>
      <trkpt lat="44.89794" lon="3.70545">
        <ele>970</ele>
        <time>2021-08-08T09:36:55Z</time>
      </trkpt>
      <trkpt lat="44.89793" lon="3.70549">
        <ele>970</ele>
        <time>2021-08-08T09:36:57Z</time>
      </trkpt>
      <trkpt lat="44.89791" lon="3.70554">
        <ele>970.1</ele>
        <time>2021-08-08T09:36:59Z</time>
      </trkpt>
      <trkpt lat="44.8979" lon="3.70559">
        <ele>970</ele>
        <time>2021-08-08T09:37:01Z</time>
      </trkpt>
      <trkpt lat="44.89788" lon="3.70563">
        <ele>970</ele>
        <time>2021-08-08T09:37:03Z</time>
      </trkpt>
      <trkpt lat="44.89786" lon="3.70568">
        <ele>969.9</ele>
        <time>2021-08-08T09:37:05Z</time>
      </trkpt>
      <trkpt lat="44.89784" lon="3.70573">
        <ele>969.9</ele>
        <time>2021-08-08T09:37:07Z</time>
      </trkpt>
      <trkpt lat="44.89783" lon="3.70577">
        <ele>969.9</ele>
        <time>2021-08-08T09:37:09Z</time>
      </trkpt>
      <trkpt lat="44.89781" lon="3.70582">
        <ele>970</ele>
        <time>2021-08-08T09:37:11Z</time>
      </trkpt>
      <trkpt lat="44.8978" lon="3.70587">
        <ele>970.1</ele>
        <time>2021-08-08T09:37:13Z</time>
      </trkpt>
      <trkpt lat="44.89778" lon="3.70591">
        <ele>969.8</ele>
        <time>2021-08-08T09:37:15Z</time>
      </trkpt>
      <trkpt lat="44.89776" lon="3.70596">
        <ele>969.9</ele>
        <time>2021-08-08T09:37:17Z</time>
      </trkpt>
      <trkpt lat="44.89775" lon="3.70601">
        <ele>969.9</ele>
        <time>2021-08-08T09:37:19Z</time>
      </trkpt>
      <trkpt lat="44.89773" lon="3.70607">
        <ele>969.9</ele>
        <time>2021-08-08T09:37:21Z</time>
      </trkpt>
      <trkpt lat="44.89772" lon="3.70611">
        <ele>969.9</ele>
        <time>2021-08-08T09:37:23Z</time>
      </trkpt>
      <trkpt lat="44.89771" lon="3.70616">
        <ele>970.1</ele>
        <time>2021-08-08T09:37:25Z</time>
      </trkpt>
      <trkpt lat="44.8977" lon="3.70621">
        <ele>970.2</ele>
        <time>2021-08-08T09:37:27Z</time>
      </trkpt>
      <trkpt lat="44.89768" lon="3.70627">
        <ele>970.4</ele>
        <time>2021-08-08T09:37:29Z</time>
      </trkpt>
      <trkpt lat="44.89767" lon="3.70632">
        <ele>970.6</ele>
        <time>2021-08-08T09:37:31Z</time>
      </trkpt>
      <trkpt lat="44.89766" lon="3.70637">
        <ele>970.8</ele>
        <time>2021-08-08T09:37:33Z</time>
      </trkpt>
      <trkpt lat="44.89766" lon="3.70642">
        <ele>971.2</ele>
        <time>2021-08-08T09:37:35Z</time>
      </trkpt>
      <trkpt lat="44.89765" lon="3.70647">
        <ele>971.4</ele>
        <time>2021-08-08T09:37:37Z</time>
      </trkpt>
      <trkpt lat="44.89764" lon="3.70653">
        <ele>971.8</ele>
        <time>2021-08-08T09:37:39Z</time>
      </trkpt>
      <trkpt lat="44.89764" lon="3.70658">
        <ele>972.2</ele>
        <time>2021-08-08T09:37:41Z</time>
      </trkpt>
      <trkpt lat="44.89764" lon="3.70663">
        <ele>972.7</ele>
        <time>2021-08-08T09:37:43Z</time>
      </trkpt>
      <trkpt lat="44.89764" lon="3.70668">
        <ele>973.2</ele>
        <time>2021-08-08T09:37:45Z</time>
      </trkpt>
      <trkpt lat="44.89765" lon="3.70673">
        <ele>973.6</ele>
        <time>2021-08-08T09:37:47Z</time>
      </trkpt>
      <trkpt lat="44.89765" lon="3.70679">
        <ele>974</ele>
        <time>2021-08-08T09:37:49Z</time>
      </trkpt>
      <trkpt lat="44.89766" lon="3.70685">
        <ele>974.5</ele>
        <time>2021-08-08T09:37:51Z</time>
      </trkpt>
      <trkpt lat="44.89767" lon="3.7069">
        <ele>974.9</ele>
        <time>2021-08-08T09:37:53Z</time>
      </trkpt>
      <trkpt lat="44.89768" lon="3.70695">
        <ele>975.3</ele>
        <time>2021-08-08T09:37:55Z</time>
      </trkpt>
      <trkpt lat="44.89769" lon="3.707">
        <ele>975.8</ele>
        <time>2021-08-08T09:37:57Z</time>
      </trkpt>
      <trkpt lat="44.8977" lon="3.70705">
        <ele>976.3</ele>
        <time>2021-08-08T09:37:59Z</time>
      </trkpt>
      <trkpt lat="44.89771" lon="3.70711">
        <ele>976.7</ele>
        <time>2021-08-08T09:38:01Z</time>
      </trkpt>
      <trkpt lat="44.89772" lon="3.70716">
        <ele>977.1</ele>
        <time>2021-08-08T09:38:03Z</time>
      </trkpt>
      <trkpt lat="44.89773" lon="3.70721">
        <ele>977.7</ele>
        <time>2021-08-08T09:38:05Z</time>
      </trkpt>
      <trkpt lat="44.89775" lon="3.70725">
        <ele>978.2</ele>
        <time>2021-08-08T09:38:07Z</time>
      </trkpt>
      <trkpt lat="44.89776" lon="3.70731">
        <ele>978.8</ele>
        <time>2021-08-08T09:38:09Z</time>
      </trkpt>
      <trkpt lat="44.89778" lon="3.70737">
        <ele>979.3</ele>
        <time>2021-08-08T09:38:11Z</time>
      </trkpt>
      <trkpt lat="44.89779" lon="3.70742">
        <ele>979.8</ele>
        <time>2021-08-08T09:38:13Z</time>
      </trkpt>
      <trkpt lat="44.89781" lon="3.70747">
        <ele>980.4</ele>
        <time>2021-08-08T09:38:15Z</time>
      </trkpt>
      <trkpt lat="44.89783" lon="3.70752">
        <ele>980.8</ele>
        <time>2021-08-08T09:38:17Z</time>
      </trkpt>
      <trkpt lat="44.89785" lon="3.70758">
        <ele>981.2</ele>
        <time>2021-08-08T09:38:19Z</time>
      </trkpt>
      <trkpt lat="44.89786" lon="3.70763">
        <ele>981.5</ele>
        <time>2021-08-08T09:38:21Z</time>
      </trkpt>
      <trkpt lat="44.89789" lon="3.70767">
        <ele>982</ele>
        <time>2021-08-08T09:38:23Z</time>
      </trkpt>
      <trkpt lat="44.8979" lon="3.70772">
        <ele>982.1</ele>
        <time>2021-08-08T09:38:25Z</time>
      </trkpt>
      <trkpt lat="44.89792" lon="3.70777">
        <ele>982.5</ele>
        <time>2021-08-08T09:38:27Z</time>
      </trkpt>
      <trkpt lat="44.89794" lon="3.70782">
        <ele>982.7</ele>
        <time>2021-08-08T09:38:29Z</time>
      </trkpt>
      <trkpt lat="44.89796" lon="3.70787">
        <ele>983</ele>
        <time>2021-08-08T09:38:31Z</time>
      </trkpt>
      <trkpt lat="44.89797" lon="3.70792">
        <ele>983.1</ele>
        <time>2021-08-08T09:38:33Z</time>
      </trkpt>
      <trkpt lat="44.89799" lon="3.70797">
        <ele>983.3</ele>
        <time>2021-08-08T09:38:35Z</time>
      </trkpt>
      <trkpt lat="44.89801" lon="3.70802">
        <ele>983.6</ele>
        <time>2021-08-08T09:38:37Z</time>
      </trkpt>
      <trkpt lat="44.89803" lon="3.70807">
        <ele>983.8</ele>
        <time>2021-08-08T09:38:39Z</time>
      </trkpt>
      <trkpt lat="44.89805" lon="3.70812">
        <ele>984</ele>
        <time>2021-08-08T09:38:41Z</time>
      </trkpt>
      <trkpt lat="44.89807" lon="3.70818">
        <ele>984.2</ele>
        <time>2021-08-08T09:38:43Z</time>
      </trkpt>
      <trkpt lat="44.89809" lon="3.70823">
        <ele>984.3</ele>
        <time>2021-08-08T09:38:45Z</time>
      </trkpt>
      <trkpt lat="44.89811" lon="3.70829">
        <ele>984.5</ele>
        <time>2021-08-08T09:38:47Z</time>
      </trkpt>
      <trkpt lat="44.89813" lon="3.70835">
        <ele>984.6</ele>
        <time>2021-08-08T09:38:49Z</time>
      </trkpt>
      <trkpt lat="44.89815" lon="3.70841">
        <ele>984.9</ele>
        <time>2021-08-08T09:38:51Z</time>
      </trkpt>
      <trkpt lat="44.89816" lon="3.70848">
        <ele>985.1</ele>
        <time>2021-08-08T09:38:53Z</time>
      </trkpt>
      <trkpt lat="44.89818" lon="3.70853">
        <ele>985.4</ele>
        <time>2021-08-08T09:38:55Z</time>
      </trkpt>
      <trkpt lat="44.89819" lon="3.70859">
        <ele>985.5</ele>
        <time>2021-08-08T09:38:57Z</time>
      </trkpt>
      <trkpt lat="44.8982" lon="3.70866">
        <ele>985.5</ele>
        <time>2021-08-08T09:38:59Z</time>
      </trkpt>
      <trkpt lat="44.8982" lon="3.70872">
        <ele>985.5</ele>
        <time>2021-08-08T09:39:01Z</time>
      </trkpt>
      <trkpt lat="44.89821" lon="3.70879">
        <ele>985.5</ele>
        <time>2021-08-08T09:39:03Z</time>
      </trkpt>
      <trkpt lat="44.89821" lon="3.70886">
        <ele>985.4</ele>
        <time>2021-08-08T09:39:05Z</time>
      </trkpt>
      <trkpt lat="44.89822" lon="3.70893">
        <ele>985.4</ele>
        <time>2021-08-08T09:39:07Z</time>
      </trkpt>
      <trkpt lat="44.89821" lon="3.70899">
        <ele>985.3</ele>
        <time>2021-08-08T09:39:09Z</time>
      </trkpt>
      <trkpt lat="44.89821" lon="3.70906">
        <ele>985.2</ele>
        <time>2021-08-08T09:39:11Z</time>
      </trkpt>
      <trkpt lat="44.8982" lon="3.70914">
        <ele>985.2</ele>
        <time>2021-08-08T09:39:13Z</time>
      </trkpt>
      <trkpt lat="44.8982" lon="3.70921">
        <ele>985.2</ele>
        <time>2021-08-08T09:39:15Z</time>
      </trkpt>
      <trkpt lat="44.89821" lon="3.70927">
        <ele>985.3</ele>
        <time>2021-08-08T09:39:17Z</time>
      </trkpt>
      <trkpt lat="44.89824" lon="3.7093">
        <ele>985.3</ele>
        <time>2021-08-08T09:39:19Z</time>
      </trkpt>
      <trkpt lat="44.89826" lon="3.70929">
        <ele>985.2</ele>
        <time>2021-08-08T09:39:21Z</time>
      </trkpt>
      <trkpt lat="44.89826" lon="3.70926">
        <ele>985.2</ele>
        <time>2021-08-08T09:39:23Z</time>
      </trkpt>
      <trkpt lat="44.89826" lon="3.70924">
        <ele>985.2</ele>
        <time>2021-08-08T09:39:25Z</time>
      </trkpt>
      <trkpt lat="44.89826" lon="3.70924">
        <ele>985.2</ele>
        <time>2021-08-08T09:39:27Z</time>
      </trkpt>
      <trkpt lat="44.89826" lon="3.70924">
        <ele>985.2</ele>
        <time>2021-08-08T09:39:29Z</time>
      </trkpt>
      <trkpt lat="44.89805" lon="3.70929">
        <ele>985.9</ele>
        <time>2021-08-08T09:42:31Z</time>
      </trkpt>
      <trkpt lat="44.89797" lon="3.70933">
        <ele>986.3</ele>
        <time>2021-08-08T09:42:33Z</time>
      </trkpt>
      <trkpt lat="44.89789" lon="3.70933">
        <ele>986.6</ele>
        <time>2021-08-08T09:42:35Z</time>
      </trkpt>
      <trkpt lat="44.8978" lon="3.70929">
        <ele>986.6</ele>
        <time>2021-08-08T09:42:37Z</time>
      </trkpt>
      <trkpt lat="44.89772" lon="3.70923">
        <ele>986.3</ele>
        <time>2021-08-08T09:42:39Z</time>
      </trkpt>
      <trkpt lat="44.89764" lon="3.70919">
        <ele>986.1</ele>
        <time>2021-08-08T09:42:41Z</time>
      </trkpt>
      <trkpt lat="44.89756" lon="3.70917">
        <ele>985.9</ele>
        <time>2021-08-08T09:42:43Z</time>
      </trkpt>
      <trkpt lat="44.89748" lon="3.70916">
        <ele>986.1</ele>
        <time>2021-08-08T09:42:45Z</time>
      </trkpt>
      <trkpt lat="44.89739" lon="3.70916">
        <ele>987.1</ele>
        <time>2021-08-08T09:42:47Z</time>
      </trkpt>
      <trkpt lat="44.89731" lon="3.70916">
        <ele>988.2</ele>
        <time>2021-08-08T09:42:49Z</time>
      </trkpt>
      <trkpt lat="44.89723" lon="3.70915">
        <ele>989</ele>
        <time>2021-08-08T09:42:51Z</time>
      </trkpt>
      <trkpt lat="44.89715" lon="3.70912">
        <ele>989.5</ele>
        <time>2021-08-08T09:42:53Z</time>
      </trkpt>
      <trkpt lat="44.89708" lon="3.70908">
        <ele>989.6</ele>
        <time>2021-08-08T09:42:55Z</time>
      </trkpt>
      <trkpt lat="44.89702" lon="3.70902">
        <ele>989.6</ele>
        <time>2021-08-08T09:42:57Z</time>
      </trkpt>
      <trkpt lat="44.89696" lon="3.70895">
        <ele>988.9</ele>
        <time>2021-08-08T09:42:59Z</time>
      </trkpt>
      <trkpt lat="44.89692" lon="3.70886">
        <ele>988.1</ele>
        <time>2021-08-08T09:43:01Z</time>
      </trkpt>
      <trkpt lat="44.89687" lon="3.7088">
        <ele>987.6</ele>
        <time>2021-08-08T09:43:03Z</time>
      </trkpt>
      <trkpt lat="44.89683" lon="3.70875">
        <ele>987.2</ele>
        <time>2021-08-08T09:43:05Z</time>
      </trkpt>
      <trkpt lat="44.89677" lon="3.70871">
        <ele>987.3</ele>
        <time>2021-08-08T09:43:07Z</time>
      </trkpt>
      <trkpt lat="44.89671" lon="3.7087">
        <ele>987.7</ele>
        <time>2021-08-08T09:43:09Z</time>
      </trkpt>
      <trkpt lat="44.89665" lon="3.7087">
        <ele>988.2</ele>
        <time>2021-08-08T09:43:11Z</time>
      </trkpt>
      <trkpt lat="44.89659" lon="3.70871">
        <ele>988.4</ele>
        <time>2021-08-08T09:43:13Z</time>
      </trkpt>
      <trkpt lat="44.89654" lon="3.70873">
        <ele>988.8</ele>
        <time>2021-08-08T09:43:15Z</time>
      </trkpt>
      <trkpt lat="44.89648" lon="3.70876">
        <ele>989.4</ele>
        <time>2021-08-08T09:43:17Z</time>
      </trkpt>
      <trkpt lat="44.89643" lon="3.70878">
        <ele>989.8</ele>
        <time>2021-08-08T09:43:19Z</time>
      </trkpt>
      <trkpt lat="44.89637" lon="3.70881">
        <ele>990.3</ele>
        <time>2021-08-08T09:43:21Z</time>
      </trkpt>
      <trkpt lat="44.89632" lon="3.70884">
        <ele>990.8</ele>
        <time>2021-08-08T09:43:23Z</time>
      </trkpt>
      <trkpt lat="44.89626" lon="3.70887">
        <ele>991.5</ele>
        <time>2021-08-08T09:43:25Z</time>
      </trkpt>
      <trkpt lat="44.8962" lon="3.70891">
        <ele>992.2</ele>
        <time>2021-08-08T09:43:27Z</time>
      </trkpt>
      <trkpt lat="44.89614" lon="3.70894">
        <ele>992.9</ele>
        <time>2021-08-08T09:43:29Z</time>
      </trkpt>
      <trkpt lat="44.89609" lon="3.70897">
        <ele>993.5</ele>
        <time>2021-08-08T09:43:31Z</time>
      </trkpt>
      <trkpt lat="44.89603" lon="3.70901">
        <ele>994.1</ele>
        <time>2021-08-08T09:43:33Z</time>
      </trkpt>
      <trkpt lat="44.89597" lon="3.70904">
        <ele>994.7</ele>
        <time>2021-08-08T09:43:35Z</time>
      </trkpt>
      <trkpt lat="44.89591" lon="3.70908">
        <ele>995.4</ele>
        <time>2021-08-08T09:43:37Z</time>
      </trkpt>
      <trkpt lat="44.89586" lon="3.70912">
        <ele>996.1</ele>
        <time>2021-08-08T09:43:39Z</time>
      </trkpt>
      <trkpt lat="44.8958" lon="3.70915">
        <ele>996.6</ele>
        <time>2021-08-08T09:43:41Z</time>
      </trkpt>
      <trkpt lat="44.89574" lon="3.70918">
        <ele>996.8</ele>
        <time>2021-08-08T09:43:43Z</time>
      </trkpt>
      <trkpt lat="44.89568" lon="3.70922">
        <ele>996.9</ele>
        <time>2021-08-08T09:43:45Z</time>
      </trkpt>
      <trkpt lat="44.89562" lon="3.70925">
        <ele>997.1</ele>
        <time>2021-08-08T09:43:47Z</time>
      </trkpt>
      <trkpt lat="44.89557" lon="3.70929">
        <ele>997.3</ele>
        <time>2021-08-08T09:43:49Z</time>
      </trkpt>
      <trkpt lat="44.89551" lon="3.70933">
        <ele>997.4</ele>
        <time>2021-08-08T09:43:51Z</time>
      </trkpt>
      <trkpt lat="44.89545" lon="3.70936">
        <ele>997.4</ele>
        <time>2021-08-08T09:43:53Z</time>
      </trkpt>
      <trkpt lat="44.89539" lon="3.7094">
        <ele>997.4</ele>
        <time>2021-08-08T09:43:55Z</time>
      </trkpt>
      <trkpt lat="44.89534" lon="3.70944">
        <ele>997.6</ele>
        <time>2021-08-08T09:43:57Z</time>
      </trkpt>
      <trkpt lat="44.89527" lon="3.70947">
        <ele>997.5</ele>
        <time>2021-08-08T09:43:59Z</time>
      </trkpt>
      <trkpt lat="44.89522" lon="3.70951">
        <ele>997.5</ele>
        <time>2021-08-08T09:44:01Z</time>
      </trkpt>
      <trkpt lat="44.89515" lon="3.70955">
        <ele>997.4</ele>
        <time>2021-08-08T09:44:03Z</time>
      </trkpt>
      <trkpt lat="44.89509" lon="3.70958">
        <ele>997.2</ele>
        <time>2021-08-08T09:44:05Z</time>
      </trkpt>
      <trkpt lat="44.89503" lon="3.70962">
        <ele>997</ele>
        <time>2021-08-08T09:44:07Z</time>
      </trkpt>
      <trkpt lat="44.89496" lon="3.70966">
        <ele>997.2</ele>
        <time>2021-08-08T09:44:09Z</time>
      </trkpt>
      <trkpt lat="44.8949" lon="3.7097">
        <ele>997.5</ele>
        <time>2021-08-08T09:44:11Z</time>
      </trkpt>
      <trkpt lat="44.89484" lon="3.70974">
        <ele>997.8</ele>
        <time>2021-08-08T09:44:13Z</time>
      </trkpt>
      <trkpt lat="44.89477" lon="3.70977">
        <ele>998</ele>
        <time>2021-08-08T09:44:15Z</time>
      </trkpt>
      <trkpt lat="44.89471" lon="3.70981">
        <ele>998.2</ele>
        <time>2021-08-08T09:44:17Z</time>
      </trkpt>
      <trkpt lat="44.89465" lon="3.70984">
        <ele>998.3</ele>
        <time>2021-08-08T09:44:19Z</time>
      </trkpt>
      <trkpt lat="44.89459" lon="3.70988">
        <ele>998.4</ele>
        <time>2021-08-08T09:44:21Z</time>
      </trkpt>
      <trkpt lat="44.89453" lon="3.70991">
        <ele>998.5</ele>
        <time>2021-08-08T09:44:23Z</time>
      </trkpt>
      <trkpt lat="44.89447" lon="3.70995">
        <ele>998.5</ele>
        <time>2021-08-08T09:44:25Z</time>
      </trkpt>
      <trkpt lat="44.89442" lon="3.70999">
        <ele>998.6</ele>
        <time>2021-08-08T09:44:27Z</time>
      </trkpt>
      <trkpt lat="44.89436" lon="3.71002">
        <ele>998.5</ele>
        <time>2021-08-08T09:44:29Z</time>
      </trkpt>
      <trkpt lat="44.89431" lon="3.71004">
        <ele>998.5</ele>
        <time>2021-08-08T09:44:31Z</time>
      </trkpt>
      <trkpt lat="44.89426" lon="3.71008">
        <ele>998.5</ele>
        <time>2021-08-08T09:44:33Z</time>
      </trkpt>
      <trkpt lat="44.89421" lon="3.7101">
        <ele>998.4</ele>
        <time>2021-08-08T09:44:35Z</time>
      </trkpt>
      <trkpt lat="44.89416" lon="3.71013">
        <ele>998.3</ele>
        <time>2021-08-08T09:44:37Z</time>
      </trkpt>
      <trkpt lat="44.89412" lon="3.71016">
        <ele>998.4</ele>
        <time>2021-08-08T09:44:39Z</time>
      </trkpt>
      <trkpt lat="44.89407" lon="3.71019">
        <ele>998.5</ele>
        <time>2021-08-08T09:44:41Z</time>
      </trkpt>
      <trkpt lat="44.89402" lon="3.71022">
        <ele>998.6</ele>
        <time>2021-08-08T09:44:43Z</time>
      </trkpt>
      <trkpt lat="44.89397" lon="3.71025">
        <ele>998.7</ele>
        <time>2021-08-08T09:44:45Z</time>
      </trkpt>
      <trkpt lat="44.89392" lon="3.71027">
        <ele>998.8</ele>
        <time>2021-08-08T09:44:47Z</time>
      </trkpt>
      <trkpt lat="44.89389" lon="3.7103">
        <ele>998.8</ele>
        <time>2021-08-08T09:44:49Z</time>
      </trkpt>
      <trkpt lat="44.89386" lon="3.71031">
        <ele>998.8</ele>
        <time>2021-08-08T09:44:51Z</time>
      </trkpt>
      <trkpt lat="44.89384" lon="3.71033">
        <ele>998.9</ele>
        <time>2021-08-08T09:44:53Z</time>
      </trkpt>
      <trkpt lat="44.89381" lon="3.71034">
        <ele>998.9</ele>
        <time>2021-08-08T09:44:55Z</time>
      </trkpt>
      <trkpt lat="44.89377" lon="3.71036">
        <ele>998.9</ele>
        <time>2021-08-08T09:44:57Z</time>
      </trkpt>
      <trkpt lat="44.89373" lon="3.71038">
        <ele>999</ele>
        <time>2021-08-08T09:44:59Z</time>
      </trkpt>
      <trkpt lat="44.89369" lon="3.7104">
        <ele>999</ele>
        <time>2021-08-08T09:45:01Z</time>
      </trkpt>
      <trkpt lat="44.89365" lon="3.71042">
        <ele>999</ele>
        <time>2021-08-08T09:45:03Z</time>
      </trkpt>
      <trkpt lat="44.89362" lon="3.71045">
        <ele>999</ele>
        <time>2021-08-08T09:45:05Z</time>
      </trkpt>
      <trkpt lat="44.8936" lon="3.71047">
        <ele>999</ele>
        <time>2021-08-08T09:45:07Z</time>
      </trkpt>
      <trkpt lat="44.89356" lon="3.71048">
        <ele>999</ele>
        <time>2021-08-08T09:45:09Z</time>
      </trkpt>
      <trkpt lat="44.89353" lon="3.7105">
        <ele>999</ele>
        <time>2021-08-08T09:45:11Z</time>
      </trkpt>
      <trkpt lat="44.8935" lon="3.71052">
        <ele>999</ele>
        <time>2021-08-08T09:45:13Z</time>
      </trkpt>
      <trkpt lat="44.89345" lon="3.71055">
        <ele>999</ele>
        <time>2021-08-08T09:45:15Z</time>
      </trkpt>
      <trkpt lat="44.89341" lon="3.71057">
        <ele>999</ele>
        <time>2021-08-08T09:45:17Z</time>
      </trkpt>
      <trkpt lat="44.89336" lon="3.7106">
        <ele>999</ele>
        <time>2021-08-08T09:45:19Z</time>
      </trkpt>
      <trkpt lat="44.89331" lon="3.71064">
        <ele>999.1</ele>
        <time>2021-08-08T09:45:21Z</time>
      </trkpt>
      <trkpt lat="44.89325" lon="3.71067">
        <ele>999.5</ele>
        <time>2021-08-08T09:45:23Z</time>
      </trkpt>
      <trkpt lat="44.8932" lon="3.71069">
        <ele>999.9</ele>
        <time>2021-08-08T09:45:25Z</time>
      </trkpt>
      <trkpt lat="44.89314" lon="3.71071">
        <ele>1000.4</ele>
        <time>2021-08-08T09:45:27Z</time>
      </trkpt>
      <trkpt lat="44.89309" lon="3.71073">
        <ele>1000.8</ele>
        <time>2021-08-08T09:45:29Z</time>
      </trkpt>
      <trkpt lat="44.89304" lon="3.71075">
        <ele>1001.3</ele>
        <time>2021-08-08T09:45:31Z</time>
      </trkpt>
      <trkpt lat="44.89301" lon="3.71079">
        <ele>1001.8</ele>
        <time>2021-08-08T09:45:33Z</time>
      </trkpt>
      <trkpt lat="44.89302" lon="3.71082">
        <ele>1001.9</ele>
        <time>2021-08-08T09:45:35Z</time>
      </trkpt>
      <trkpt lat="44.89302" lon="3.71082">
        <ele>1001.9</ele>
        <time>2021-08-08T09:45:37Z</time>
      </trkpt>
      <trkpt lat="44.89303" lon="3.71083">
        <ele>1001.9</ele>
        <time>2021-08-08T09:45:39Z</time>
      </trkpt>
      <trkpt lat="44.89303" lon="3.71082">
        <ele>1001.8</ele>
        <time>2021-08-08T09:45:41Z</time>
      </trkpt>
      <trkpt lat="44.89304" lon="3.71082">
        <ele>1001.7</ele>
        <time>2021-08-08T09:45:43Z</time>
      </trkpt>
      <trkpt lat="44.89286" lon="3.71063">
        <ele>1001.5</ele>
        <time>2021-08-08T09:53:51Z</time>
      </trkpt>
      <trkpt lat="44.89281" lon="3.71062">
        <ele>1001.6</ele>
        <time>2021-08-08T09:53:53Z</time>
      </trkpt>
      <trkpt lat="44.89277" lon="3.71058">
        <ele>1001.3</ele>
        <time>2021-08-08T09:53:55Z</time>
      </trkpt>
      <trkpt lat="44.89272" lon="3.71054">
        <ele>1001</ele>
        <time>2021-08-08T09:53:57Z</time>
      </trkpt>
      <trkpt lat="44.89266" lon="3.7105">
        <ele>1000.7</ele>
        <time>2021-08-08T09:53:59Z</time>
      </trkpt>
      <trkpt lat="44.8926" lon="3.71046">
        <ele>1000.1</ele>
        <time>2021-08-08T09:54:01Z</time>
      </trkpt>
      <trkpt lat="44.89252" lon="3.71042">
        <ele>999.6</ele>
        <time>2021-08-08T09:54:03Z</time>
      </trkpt>
      <trkpt lat="44.89246" lon="3.71037">
        <ele>998.9</ele>
        <time>2021-08-08T09:54:05Z</time>
      </trkpt>
      <trkpt lat="44.89239" lon="3.71032">
        <ele>998.5</ele>
        <time>2021-08-08T09:54:07Z</time>
      </trkpt>
      <trkpt lat="44.89232" lon="3.71029">
        <ele>998.2</ele>
        <time>2021-08-08T09:54:09Z</time>
      </trkpt>
      <trkpt lat="44.89224" lon="3.71024">
        <ele>997.8</ele>
        <time>2021-08-08T09:54:11Z</time>
      </trkpt>
      <trkpt lat="44.89217" lon="3.7102">
        <ele>997.4</ele>
        <time>2021-08-08T09:54:13Z</time>
      </trkpt>
      <trkpt lat="44.89208" lon="3.71015">
        <ele>997</ele>
        <time>2021-08-08T09:54:15Z</time>
      </trkpt>
      <trkpt lat="44.89199" lon="3.71011">
        <ele>996.6</ele>
        <time>2021-08-08T09:54:17Z</time>
      </trkpt>
      <trkpt lat="44.8919" lon="3.71007">
        <ele>996.3</ele>
        <time>2021-08-08T09:54:19Z</time>
      </trkpt>
      <trkpt lat="44.8918" lon="3.71004">
        <ele>996.2</ele>
        <time>2021-08-08T09:54:21Z</time>
      </trkpt>
      <trkpt lat="44.8917" lon="3.71002">
        <ele>996.2</ele>
        <time>2021-08-08T09:54:23Z</time>
      </trkpt>
      <trkpt lat="44.89159" lon="3.71002">
        <ele>995.9</ele>
        <time>2021-08-08T09:54:25Z</time>
      </trkpt>
      <trkpt lat="44.89148" lon="3.71004">
        <ele>995.2</ele>
        <time>2021-08-08T09:54:27Z</time>
      </trkpt>
      <trkpt lat="44.89137" lon="3.71007">
        <ele>994.7</ele>
        <time>2021-08-08T09:54:29Z</time>
      </trkpt>
      <trkpt lat="44.89127" lon="3.71011">
        <ele>994.5</ele>
        <time>2021-08-08T09:54:31Z</time>
      </trkpt>
      <trkpt lat="44.89116" lon="3.71018">
        <ele>994.5</ele>
        <time>2021-08-08T09:54:33Z</time>
      </trkpt>
      <trkpt lat="44.89107" lon="3.71026">
        <ele>994.6</ele>
        <time>2021-08-08T09:54:35Z</time>
      </trkpt>
      <trkpt lat="44.89097" lon="3.71033">
        <ele>994.6</ele>
        <time>2021-08-08T09:54:37Z</time>
      </trkpt>
      <trkpt lat="44.89087" lon="3.71042">
        <ele>994.6</ele>
        <time>2021-08-08T09:54:39Z</time>
      </trkpt>
      <trkpt lat="44.89078" lon="3.71053">
        <ele>994.8</ele>
        <time>2021-08-08T09:54:41Z</time>
      </trkpt>
      <trkpt lat="44.89069" lon="3.71066">
        <ele>995</ele>
        <time>2021-08-08T09:54:43Z</time>
      </trkpt>
      <trkpt lat="44.89061" lon="3.7108">
        <ele>994.7</ele>
        <time>2021-08-08T09:54:45Z</time>
      </trkpt>
      <trkpt lat="44.89053" lon="3.71094">
        <ele>994</ele>
        <time>2021-08-08T09:54:47Z</time>
      </trkpt>
      <trkpt lat="44.89046" lon="3.71109">
        <ele>993.1</ele>
        <time>2021-08-08T09:54:49Z</time>
      </trkpt>
      <trkpt lat="44.8904" lon="3.71126">
        <ele>992.1</ele>
        <time>2021-08-08T09:54:51Z</time>
      </trkpt>
      <trkpt lat="44.89033" lon="3.71143">
        <ele>990.9</ele>
        <time>2021-08-08T09:54:53Z</time>
      </trkpt>
      <trkpt lat="44.89029" lon="3.71162">
        <ele>989.8</ele>
        <time>2021-08-08T09:54:55Z</time>
      </trkpt>
      <trkpt lat="44.89023" lon="3.71181">
        <ele>989.6</ele>
        <time>2021-08-08T09:54:57Z</time>
      </trkpt>
      <trkpt lat="44.89017" lon="3.71198">
        <ele>989.3</ele>
        <time>2021-08-08T09:54:59Z</time>
      </trkpt>
      <trkpt lat="44.8901" lon="3.71216">
        <ele>988.5</ele>
        <time>2021-08-08T09:55:01Z</time>
      </trkpt>
      <trkpt lat="44.89003" lon="3.71233">
        <ele>987.6</ele>
        <time>2021-08-08T09:55:03Z</time>
      </trkpt>
      <trkpt lat="44.88995" lon="3.71251">
        <ele>986.6</ele>
        <time>2021-08-08T09:55:05Z</time>
      </trkpt>
      <trkpt lat="44.88987" lon="3.71268">
        <ele>986</ele>
        <time>2021-08-08T09:55:07Z</time>
      </trkpt>
      <trkpt lat="44.88979" lon="3.71284">
        <ele>984.8</ele>
        <time>2021-08-08T09:55:09Z</time>
      </trkpt>
      <trkpt lat="44.88972" lon="3.71302">
        <ele>983.7</ele>
        <time>2021-08-08T09:55:11Z</time>
      </trkpt>
      <trkpt lat="44.88966" lon="3.71321">
        <ele>982.7</ele>
        <time>2021-08-08T09:55:13Z</time>
      </trkpt>
      <trkpt lat="44.88962" lon="3.71341">
        <ele>981.9</ele>
        <time>2021-08-08T09:55:15Z</time>
      </trkpt>
      <trkpt lat="44.88958" lon="3.71361">
        <ele>980.3</ele>
        <time>2021-08-08T09:55:17Z</time>
      </trkpt>
      <trkpt lat="44.88955" lon="3.71382">
        <ele>979.3</ele>
        <time>2021-08-08T09:55:19Z</time>
      </trkpt>
      <trkpt lat="44.88954" lon="3.71403">
        <ele>978.7</ele>
        <time>2021-08-08T09:55:21Z</time>
      </trkpt>
      <trkpt lat="44.88953" lon="3.71424">
        <ele>977.7</ele>
        <time>2021-08-08T09:55:23Z</time>
      </trkpt>
      <trkpt lat="44.88954" lon="3.71446">
        <ele>976.8</ele>
        <time>2021-08-08T09:55:25Z</time>
      </trkpt>
      <trkpt lat="44.88959" lon="3.7147">
        <ele>976.9</ele>
        <time>2021-08-08T09:55:27Z</time>
      </trkpt>
      <trkpt lat="44.88965" lon="3.71494">
        <ele>977.3</ele>
        <time>2021-08-08T09:55:29Z</time>
      </trkpt>
      <trkpt lat="44.88966" lon="3.7152">
        <ele>975.9</ele>
        <time>2021-08-08T09:55:31Z</time>
      </trkpt>
      <trkpt lat="44.88966" lon="3.71544">
        <ele>974</ele>
        <time>2021-08-08T09:55:33Z</time>
      </trkpt>
      <trkpt lat="44.8897" lon="3.71566">
        <ele>973.6</ele>
        <time>2021-08-08T09:55:35Z</time>
      </trkpt>
      <trkpt lat="44.88978" lon="3.71584">
        <ele>974.7</ele>
        <time>2021-08-08T09:55:37Z</time>
      </trkpt>
      <trkpt lat="44.88986" lon="3.71602">
        <ele>976.8</ele>
        <time>2021-08-08T09:55:39Z</time>
      </trkpt>
      <trkpt lat="44.8899" lon="3.71622">
        <ele>977</ele>
        <time>2021-08-08T09:55:41Z</time>
      </trkpt>
      <trkpt lat="44.88989" lon="3.71641">
        <ele>975.9</ele>
        <time>2021-08-08T09:55:43Z</time>
      </trkpt>
      <trkpt lat="44.88986" lon="3.7166">
        <ele>974.3</ele>
        <time>2021-08-08T09:55:45Z</time>
      </trkpt>
      <trkpt lat="44.88984" lon="3.71678">
        <ele>973.2</ele>
        <time>2021-08-08T09:55:47Z</time>
      </trkpt>
      <trkpt lat="44.8898" lon="3.71696">
        <ele>972.1</ele>
        <time>2021-08-08T09:55:49Z</time>
      </trkpt>
      <trkpt lat="44.88977" lon="3.71713">
        <ele>971.2</ele>
        <time>2021-08-08T09:55:51Z</time>
      </trkpt>
      <trkpt lat="44.88974" lon="3.71729">
        <ele>970.5</ele>
        <time>2021-08-08T09:55:53Z</time>
      </trkpt>
      <trkpt lat="44.88973" lon="3.71746">
        <ele>970.2</ele>
        <time>2021-08-08T09:55:55Z</time>
      </trkpt>
      <trkpt lat="44.88975" lon="3.71762">
        <ele>969.5</ele>
        <time>2021-08-08T09:55:57Z</time>
      </trkpt>
      <trkpt lat="44.8898" lon="3.71776">
        <ele>969.2</ele>
        <time>2021-08-08T09:55:59Z</time>
      </trkpt>
      <trkpt lat="44.88984" lon="3.7179">
        <ele>968.6</ele>
        <time>2021-08-08T09:56:01Z</time>
      </trkpt>
      <trkpt lat="44.88989" lon="3.71805">
        <ele>968</ele>
        <time>2021-08-08T09:56:03Z</time>
      </trkpt>
      <trkpt lat="44.88995" lon="3.71818">
        <ele>967.7</ele>
        <time>2021-08-08T09:56:05Z</time>
      </trkpt>
      <trkpt lat="44.89002" lon="3.7183">
        <ele>967.6</ele>
        <time>2021-08-08T09:56:07Z</time>
      </trkpt>
      <trkpt lat="44.89011" lon="3.7184">
        <ele>967.2</ele>
        <time>2021-08-08T09:56:09Z</time>
      </trkpt>
      <trkpt lat="44.89021" lon="3.71848">
        <ele>967.1</ele>
        <time>2021-08-08T09:56:11Z</time>
      </trkpt>
      <trkpt lat="44.89032" lon="3.71852">
        <ele>967.8</ele>
        <time>2021-08-08T09:56:13Z</time>
      </trkpt>
      <trkpt lat="44.89044" lon="3.71854">
        <ele>969.1</ele>
        <time>2021-08-08T09:56:15Z</time>
      </trkpt>
      <trkpt lat="44.89057" lon="3.71855">
        <ele>970.7</ele>
        <time>2021-08-08T09:56:17Z</time>
      </trkpt>
      <trkpt lat="44.89071" lon="3.71855">
        <ele>972.4</ele>
        <time>2021-08-08T09:56:19Z</time>
      </trkpt>
      <trkpt lat="44.89083" lon="3.71858">
        <ele>973.6</ele>
        <time>2021-08-08T09:56:21Z</time>
      </trkpt>
      <trkpt lat="44.89094" lon="3.71864">
        <ele>974</ele>
        <time>2021-08-08T09:56:23Z</time>
      </trkpt>
      <trkpt lat="44.89105" lon="3.71872">
        <ele>974.3</ele>
        <time>2021-08-08T09:56:25Z</time>
      </trkpt>
      <trkpt lat="44.89113" lon="3.71882">
        <ele>974.3</ele>
        <time>2021-08-08T09:56:27Z</time>
      </trkpt>
      <trkpt lat="44.89118" lon="3.71894">
        <ele>973.8</ele>
        <time>2021-08-08T09:56:29Z</time>
      </trkpt>
      <trkpt lat="44.89119" lon="3.71906">
        <ele>972.9</ele>
        <time>2021-08-08T09:56:31Z</time>
      </trkpt>
      <trkpt lat="44.89118" lon="3.71917">
        <ele>971.8</ele>
        <time>2021-08-08T09:56:33Z</time>
      </trkpt>
      <trkpt lat="44.89116" lon="3.71925">
        <ele>972.7</ele>
        <time>2021-08-08T09:56:35Z</time>
      </trkpt>
      <trkpt lat="44.89114" lon="3.71931">
        <ele>973</ele>
        <time>2021-08-08T09:56:37Z</time>
      </trkpt>
      <trkpt lat="44.89112" lon="3.71936">
        <ele>973.5</ele>
        <time>2021-08-08T09:56:39Z</time>
      </trkpt>
      <trkpt lat="44.89111" lon="3.71942">
        <ele>974</ele>
        <time>2021-08-08T09:56:41Z</time>
      </trkpt>
      <trkpt lat="44.89109" lon="3.71947">
        <ele>974.2</ele>
        <time>2021-08-08T09:56:43Z</time>
      </trkpt>
      <trkpt lat="44.89106" lon="3.71953">
        <ele>974.4</ele>
        <time>2021-08-08T09:56:45Z</time>
      </trkpt>
      <trkpt lat="44.89103" lon="3.71959">
        <ele>974.5</ele>
        <time>2021-08-08T09:56:47Z</time>
      </trkpt>
      <trkpt lat="44.891" lon="3.71966">
        <ele>974.6</ele>
        <time>2021-08-08T09:56:49Z</time>
      </trkpt>
      <trkpt lat="44.89098" lon="3.71973">
        <ele>975</ele>
        <time>2021-08-08T09:56:51Z</time>
      </trkpt>
      <trkpt lat="44.89096" lon="3.7198">
        <ele>975.2</ele>
        <time>2021-08-08T09:56:53Z</time>
      </trkpt>
      <trkpt lat="44.89092" lon="3.71987">
        <ele>975</ele>
        <time>2021-08-08T09:56:55Z</time>
      </trkpt>
      <trkpt lat="44.89088" lon="3.71996">
        <ele>974.9</ele>
        <time>2021-08-08T09:56:57Z</time>
      </trkpt>
      <trkpt lat="44.89084" lon="3.72004">
        <ele>975.3</ele>
        <time>2021-08-08T09:56:59Z</time>
      </trkpt>
      <trkpt lat="44.8908" lon="3.72013">
        <ele>976.2</ele>
        <time>2021-08-08T09:57:01Z</time>
      </trkpt>
      <trkpt lat="44.89076" lon="3.7202">
        <ele>977.2</ele>
        <time>2021-08-08T09:57:03Z</time>
      </trkpt>
      <trkpt lat="44.89071" lon="3.72028">
        <ele>977.9</ele>
        <time>2021-08-08T09:57:05Z</time>
      </trkpt>
      <trkpt lat="44.89065" lon="3.72035">
        <ele>978.5</ele>
        <time>2021-08-08T09:57:07Z</time>
      </trkpt>
      <trkpt lat="44.89058" lon="3.7204">
        <ele>978.6</ele>
        <time>2021-08-08T09:57:09Z</time>
      </trkpt>
      <trkpt lat="44.89051" lon="3.72044">
        <ele>978.3</ele>
        <time>2021-08-08T09:57:11Z</time>
      </trkpt>
      <trkpt lat="44.89042" lon="3.72046">
        <ele>977.4</ele>
        <time>2021-08-08T09:57:13Z</time>
      </trkpt>
      <trkpt lat="44.89034" lon="3.72049">
        <ele>977</ele>
        <time>2021-08-08T09:57:15Z</time>
      </trkpt>
      <trkpt lat="44.89026" lon="3.7205">
        <ele>975.9</ele>
        <time>2021-08-08T09:57:17Z</time>
      </trkpt>
      <trkpt lat="44.89019" lon="3.72053">
        <ele>975.6</ele>
        <time>2021-08-08T09:57:19Z</time>
      </trkpt>
      <trkpt lat="44.89011" lon="3.72056">
        <ele>975</ele>
        <time>2021-08-08T09:57:21Z</time>
      </trkpt>
      <trkpt lat="44.89002" lon="3.72058">
        <ele>974.2</ele>
        <time>2021-08-08T09:57:23Z</time>
      </trkpt>
      <trkpt lat="44.88992" lon="3.72061">
        <ele>973.4</ele>
        <time>2021-08-08T09:57:25Z</time>
      </trkpt>
      <trkpt lat="44.88982" lon="3.72063">
        <ele>972.6</ele>
        <time>2021-08-08T09:57:27Z</time>
      </trkpt>
      <trkpt lat="44.88972" lon="3.72067">
        <ele>972.1</ele>
        <time>2021-08-08T09:57:29Z</time>
      </trkpt>
      <trkpt lat="44.88962" lon="3.72072">
        <ele>971.9</ele>
        <time>2021-08-08T09:57:31Z</time>
      </trkpt>
      <trkpt lat="44.88953" lon="3.72078">
        <ele>972.2</ele>
        <time>2021-08-08T09:57:33Z</time>
      </trkpt>
      <trkpt lat="44.88944" lon="3.72085">
        <ele>972.7</ele>
        <time>2021-08-08T09:57:35Z</time>
      </trkpt>
      <trkpt lat="44.88935" lon="3.72092">
        <ele>972.9</ele>
        <time>2021-08-08T09:57:37Z</time>
      </trkpt>
      <trkpt lat="44.88925" lon="3.72099">
        <ele>973.1</ele>
        <time>2021-08-08T09:57:39Z</time>
      </trkpt>
      <trkpt lat="44.88916" lon="3.72105">
        <ele>973.5</ele>
        <time>2021-08-08T09:57:41Z</time>
      </trkpt>
      <trkpt lat="44.88907" lon="3.72112">
        <ele>973.5</ele>
        <time>2021-08-08T09:57:43Z</time>
      </trkpt>
      <trkpt lat="44.88897" lon="3.72118">
        <ele>973.5</ele>
        <time>2021-08-08T09:57:45Z</time>
      </trkpt>
      <trkpt lat="44.88887" lon="3.72126">
        <ele>973.5</ele>
        <time>2021-08-08T09:57:47Z</time>
      </trkpt>
      <trkpt lat="44.88877" lon="3.72131">
        <ele>972.8</ele>
        <time>2021-08-08T09:57:49Z</time>
      </trkpt>
      <trkpt lat="44.88867" lon="3.72137">
        <ele>972.3</ele>
        <time>2021-08-08T09:57:51Z</time>
      </trkpt>
      <trkpt lat="44.88857" lon="3.72143">
        <ele>971.5</ele>
        <time>2021-08-08T09:57:53Z</time>
      </trkpt>
      <trkpt lat="44.88848" lon="3.7215">
        <ele>971</ele>
        <time>2021-08-08T09:57:55Z</time>
      </trkpt>
      <trkpt lat="44.88839" lon="3.72158">
        <ele>970.8</ele>
        <time>2021-08-08T09:57:57Z</time>
      </trkpt>
      <trkpt lat="44.88833" lon="3.72168">
        <ele>970.8</ele>
        <time>2021-08-08T09:57:59Z</time>
      </trkpt>
      <trkpt lat="44.88829" lon="3.7218">
        <ele>969.7</ele>
        <time>2021-08-08T09:58:01Z</time>
      </trkpt>
      <trkpt lat="44.88828" lon="3.72192">
        <ele>969.6</ele>
        <time>2021-08-08T09:58:03Z</time>
      </trkpt>
      <trkpt lat="44.88829" lon="3.72203">
        <ele>970</ele>
        <time>2021-08-08T09:58:05Z</time>
      </trkpt>
      <trkpt lat="44.88832" lon="3.72213">
        <ele>970.8</ele>
        <time>2021-08-08T09:58:07Z</time>
      </trkpt>
      <trkpt lat="44.88836" lon="3.72224">
        <ele>971.5</ele>
        <time>2021-08-08T09:58:09Z</time>
      </trkpt>
      <trkpt lat="44.8884" lon="3.72234">
        <ele>972.4</ele>
        <time>2021-08-08T09:58:11Z</time>
      </trkpt>
      <trkpt lat="44.88844" lon="3.72243">
        <ele>973.4</ele>
        <time>2021-08-08T09:58:13Z</time>
      </trkpt>
      <trkpt lat="44.88847" lon="3.72253">
        <ele>974.3</ele>
        <time>2021-08-08T09:58:15Z</time>
      </trkpt>
      <trkpt lat="44.88849" lon="3.72265">
        <ele>974.9</ele>
        <time>2021-08-08T09:58:17Z</time>
      </trkpt>
      <trkpt lat="44.88852" lon="3.72276">
        <ele>975.5</ele>
        <time>2021-08-08T09:58:19Z</time>
      </trkpt>
      <trkpt lat="44.88853" lon="3.72287">
        <ele>976</ele>
        <time>2021-08-08T09:58:21Z</time>
      </trkpt>
      <trkpt lat="44.88852" lon="3.72298">
        <ele>975.9</ele>
        <time>2021-08-08T09:58:23Z</time>
      </trkpt>
      <trkpt lat="44.88851" lon="3.72311">
        <ele>975.9</ele>
        <time>2021-08-08T09:58:25Z</time>
      </trkpt>
      <trkpt lat="44.88848" lon="3.72323">
        <ele>975.4</ele>
        <time>2021-08-08T09:58:27Z</time>
      </trkpt>
      <trkpt lat="44.88842" lon="3.72332">
        <ele>974.5</ele>
        <time>2021-08-08T09:58:29Z</time>
      </trkpt>
      <trkpt lat="44.88835" lon="3.7234">
        <ele>974.8</ele>
        <time>2021-08-08T09:58:31Z</time>
      </trkpt>
      <trkpt lat="44.88826" lon="3.72344">
        <ele>976.1</ele>
        <time>2021-08-08T09:58:33Z</time>
      </trkpt>
      <trkpt lat="44.88817" lon="3.72345">
        <ele>977</ele>
        <time>2021-08-08T09:58:35Z</time>
      </trkpt>
      <trkpt lat="44.88807" lon="3.72343">
        <ele>977.2</ele>
        <time>2021-08-08T09:58:37Z</time>
      </trkpt>
      <trkpt lat="44.88798" lon="3.72342">
        <ele>977.6</ele>
        <time>2021-08-08T09:58:39Z</time>
      </trkpt>
      <trkpt lat="44.88788" lon="3.72339">
        <ele>977.7</ele>
        <time>2021-08-08T09:58:41Z</time>
      </trkpt>
      <trkpt lat="44.8878" lon="3.72335">
        <ele>977.2</ele>
        <time>2021-08-08T09:58:43Z</time>
      </trkpt>
      <trkpt lat="44.88771" lon="3.7233">
        <ele>976.8</ele>
        <time>2021-08-08T09:58:45Z</time>
      </trkpt>
      <trkpt lat="44.88763" lon="3.72325">
        <ele>976.3</ele>
        <time>2021-08-08T09:58:47Z</time>
      </trkpt>
      <trkpt lat="44.88756" lon="3.72321">
        <ele>975.7</ele>
        <time>2021-08-08T09:58:49Z</time>
      </trkpt>
      <trkpt lat="44.88748" lon="3.72315">
        <ele>974.5</ele>
        <time>2021-08-08T09:58:51Z</time>
      </trkpt>
      <trkpt lat="44.8874" lon="3.7231">
        <ele>973.5</ele>
        <time>2021-08-08T09:58:53Z</time>
      </trkpt>
      <trkpt lat="44.88733" lon="3.72307">
        <ele>973.1</ele>
        <time>2021-08-08T09:58:55Z</time>
      </trkpt>
      <trkpt lat="44.88726" lon="3.72304">
        <ele>972.6</ele>
        <time>2021-08-08T09:58:57Z</time>
      </trkpt>
      <trkpt lat="44.88719" lon="3.72302">
        <ele>972.4</ele>
        <time>2021-08-08T09:58:59Z</time>
      </trkpt>
      <trkpt lat="44.88711" lon="3.723">
        <ele>972.5</ele>
        <time>2021-08-08T09:59:01Z</time>
      </trkpt>
      <trkpt lat="44.88704" lon="3.72299">
        <ele>972.7</ele>
        <time>2021-08-08T09:59:03Z</time>
      </trkpt>
      <trkpt lat="44.88697" lon="3.723">
        <ele>973.1</ele>
        <time>2021-08-08T09:59:05Z</time>
      </trkpt>
      <trkpt lat="44.88689" lon="3.72301">
        <ele>973.6</ele>
        <time>2021-08-08T09:59:07Z</time>
      </trkpt>
      <trkpt lat="44.88682" lon="3.72303">
        <ele>974.3</ele>
        <time>2021-08-08T09:59:09Z</time>
      </trkpt>
      <trkpt lat="44.88676" lon="3.72306">
        <ele>974.9</ele>
        <time>2021-08-08T09:59:11Z</time>
      </trkpt>
      <trkpt lat="44.8867" lon="3.72309">
        <ele>975.6</ele>
        <time>2021-08-08T09:59:13Z</time>
      </trkpt>
      <trkpt lat="44.88663" lon="3.72313">
        <ele>975.8</ele>
        <time>2021-08-08T09:59:15Z</time>
      </trkpt>
      <trkpt lat="44.88656" lon="3.72318">
        <ele>975.3</ele>
        <time>2021-08-08T09:59:17Z</time>
      </trkpt>
      <trkpt lat="44.8865" lon="3.72322">
        <ele>974.7</ele>
        <time>2021-08-08T09:59:19Z</time>
      </trkpt>
      <trkpt lat="44.88644" lon="3.72328">
        <ele>974.2</ele>
        <time>2021-08-08T09:59:21Z</time>
      </trkpt>
      <trkpt lat="44.88638" lon="3.72334">
        <ele>973.6</ele>
        <time>2021-08-08T09:59:23Z</time>
      </trkpt>
      <trkpt lat="44.88633" lon="3.7234">
        <ele>972.7</ele>
        <time>2021-08-08T09:59:25Z</time>
      </trkpt>
      <trkpt lat="44.88628" lon="3.72347">
        <ele>972</ele>
        <time>2021-08-08T09:59:27Z</time>
      </trkpt>
      <trkpt lat="44.88623" lon="3.72354">
        <ele>971.3</ele>
        <time>2021-08-08T09:59:29Z</time>
      </trkpt>
      <trkpt lat="44.88621" lon="3.72363">
        <ele>971</ele>
        <time>2021-08-08T09:59:31Z</time>
      </trkpt>
      <trkpt lat="44.8862" lon="3.72373">
        <ele>970.9</ele>
        <time>2021-08-08T09:59:33Z</time>
      </trkpt>
      <trkpt lat="44.88621" lon="3.72382">
        <ele>971.3</ele>
        <time>2021-08-08T09:59:35Z</time>
      </trkpt>
      <trkpt lat="44.88623" lon="3.72391">
        <ele>972.1</ele>
        <time>2021-08-08T09:59:37Z</time>
      </trkpt>
      <trkpt lat="44.88626" lon="3.72398">
        <ele>973.2</ele>
        <time>2021-08-08T09:59:39Z</time>
      </trkpt>
      <trkpt lat="44.88629" lon="3.72406">
        <ele>974.4</ele>
        <time>2021-08-08T09:59:41Z</time>
      </trkpt>
      <trkpt lat="44.88633" lon="3.72414">
        <ele>975.9</ele>
        <time>2021-08-08T09:59:43Z</time>
      </trkpt>
      <trkpt lat="44.88636" lon="3.72423">
        <ele>977.4</ele>
        <time>2021-08-08T09:59:45Z</time>
      </trkpt>
      <trkpt lat="44.8864" lon="3.72432">
        <ele>979.3</ele>
        <time>2021-08-08T09:59:47Z</time>
      </trkpt>
      <trkpt lat="44.88643" lon="3.72442">
        <ele>981.1</ele>
        <time>2021-08-08T09:59:49Z</time>
      </trkpt>
      <trkpt lat="44.88645" lon="3.72453">
        <ele>982.5</ele>
        <time>2021-08-08T09:59:51Z</time>
      </trkpt>
      <trkpt lat="44.88645" lon="3.72464">
        <ele>983.3</ele>
        <time>2021-08-08T09:59:53Z</time>
      </trkpt>
      <trkpt lat="44.88644" lon="3.72476">
        <ele>983.4</ele>
        <time>2021-08-08T09:59:55Z</time>
      </trkpt>
      <trkpt lat="44.8864" lon="3.72487">
        <ele>982.9</ele>
        <time>2021-08-08T09:59:57Z</time>
      </trkpt>
      <trkpt lat="44.88635" lon="3.72497">
        <ele>981.9</ele>
        <time>2021-08-08T09:59:59Z</time>
      </trkpt>
      <trkpt lat="44.88631" lon="3.72505">
        <ele>980.8</ele>
        <time>2021-08-08T10:00:01Z</time>
      </trkpt>
      <trkpt lat="44.88626" lon="3.72512">
        <ele>979.8</ele>
        <time>2021-08-08T10:00:03Z</time>
      </trkpt>
      <trkpt lat="44.88622" lon="3.7252">
        <ele>978.8</ele>
        <time>2021-08-08T10:00:05Z</time>
      </trkpt>
      <trkpt lat="44.88618" lon="3.72528">
        <ele>978.1</ele>
        <time>2021-08-08T10:00:07Z</time>
      </trkpt>
      <trkpt lat="44.88615" lon="3.72536">
        <ele>977.6</ele>
        <time>2021-08-08T10:00:09Z</time>
      </trkpt>
      <trkpt lat="44.88614" lon="3.72546">
        <ele>977.7</ele>
        <time>2021-08-08T10:00:11Z</time>
      </trkpt>
      <trkpt lat="44.88613" lon="3.72555">
        <ele>978.1</ele>
        <time>2021-08-08T10:00:13Z</time>
      </trkpt>
      <trkpt lat="44.88613" lon="3.72564">
        <ele>978.8</ele>
        <time>2021-08-08T10:00:15Z</time>
      </trkpt>
      <trkpt lat="44.88613" lon="3.72573">
        <ele>979.6</ele>
        <time>2021-08-08T10:00:17Z</time>
      </trkpt>
      <trkpt lat="44.88614" lon="3.72582">
        <ele>980.6</ele>
        <time>2021-08-08T10:00:19Z</time>
      </trkpt>
      <trkpt lat="44.88615" lon="3.7259">
        <ele>981.1</ele>
        <time>2021-08-08T10:00:21Z</time>
      </trkpt>
      <trkpt lat="44.88616" lon="3.726">
        <ele>981.9</ele>
        <time>2021-08-08T10:00:23Z</time>
      </trkpt>
      <trkpt lat="44.88616" lon="3.72609">
        <ele>982.3</ele>
        <time>2021-08-08T10:00:25Z</time>
      </trkpt>
      <trkpt lat="44.88617" lon="3.72618">
        <ele>982.6</ele>
        <time>2021-08-08T10:00:27Z</time>
      </trkpt>
      <trkpt lat="44.88617" lon="3.72628">
        <ele>983.1</ele>
        <time>2021-08-08T10:00:29Z</time>
      </trkpt>
      <trkpt lat="44.88618" lon="3.72637">
        <ele>983.5</ele>
        <time>2021-08-08T10:00:31Z</time>
      </trkpt>
      <trkpt lat="44.88618" lon="3.72646">
        <ele>983.9</ele>
        <time>2021-08-08T10:00:33Z</time>
      </trkpt>
      <trkpt lat="44.88619" lon="3.72655">
        <ele>984.4</ele>
        <time>2021-08-08T10:00:35Z</time>
      </trkpt>
      <trkpt lat="44.88618" lon="3.72664">
        <ele>984.5</ele>
        <time>2021-08-08T10:00:37Z</time>
      </trkpt>
      <trkpt lat="44.88618" lon="3.72674">
        <ele>984.5</ele>
        <time>2021-08-08T10:00:39Z</time>
      </trkpt>
      <trkpt lat="44.88617" lon="3.72683">
        <ele>984.4</ele>
        <time>2021-08-08T10:00:41Z</time>
      </trkpt>
      <trkpt lat="44.88616" lon="3.72693">
        <ele>984.1</ele>
        <time>2021-08-08T10:00:43Z</time>
      </trkpt>
      <trkpt lat="44.88614" lon="3.72702">
        <ele>983.7</ele>
        <time>2021-08-08T10:00:45Z</time>
      </trkpt>
      <trkpt lat="44.88611" lon="3.72711">
        <ele>983.1</ele>
        <time>2021-08-08T10:00:47Z</time>
      </trkpt>
      <trkpt lat="44.88609" lon="3.72721">
        <ele>982.8</ele>
        <time>2021-08-08T10:00:49Z</time>
      </trkpt>
      <trkpt lat="44.88607" lon="3.7273">
        <ele>982.5</ele>
        <time>2021-08-08T10:00:51Z</time>
      </trkpt>
      <trkpt lat="44.88606" lon="3.7274">
        <ele>982.3</ele>
        <time>2021-08-08T10:00:53Z</time>
      </trkpt>
      <trkpt lat="44.88604" lon="3.72749">
        <ele>982.2</ele>
        <time>2021-08-08T10:00:55Z</time>
      </trkpt>
      <trkpt lat="44.88603" lon="3.72758">
        <ele>983</ele>
        <time>2021-08-08T10:00:57Z</time>
      </trkpt>
      <trkpt lat="44.88602" lon="3.72766">
        <ele>984</ele>
        <time>2021-08-08T10:00:59Z</time>
      </trkpt>
      <trkpt lat="44.88602" lon="3.72775">
        <ele>984.9</ele>
        <time>2021-08-08T10:01:01Z</time>
      </trkpt>
      <trkpt lat="44.886" lon="3.72783">
        <ele>985.7</ele>
        <time>2021-08-08T10:01:03Z</time>
      </trkpt>
      <trkpt lat="44.88599" lon="3.72792">
        <ele>986.6</ele>
        <time>2021-08-08T10:01:05Z</time>
      </trkpt>
      <trkpt lat="44.88598" lon="3.72802">
        <ele>987.4</ele>
        <time>2021-08-08T10:01:07Z</time>
      </trkpt>
      <trkpt lat="44.88595" lon="3.72812">
        <ele>988</ele>
        <time>2021-08-08T10:01:09Z</time>
      </trkpt>
      <trkpt lat="44.88592" lon="3.72821">
        <ele>988.1</ele>
        <time>2021-08-08T10:01:11Z</time>
      </trkpt>
      <trkpt lat="44.88587" lon="3.72829">
        <ele>987.7</ele>
        <time>2021-08-08T10:01:13Z</time>
      </trkpt>
      <trkpt lat="44.88583" lon="3.72837">
        <ele>987.8</ele>
        <time>2021-08-08T10:01:15Z</time>
      </trkpt>
      <trkpt lat="44.88578" lon="3.72845">
        <ele>988.3</ele>
        <time>2021-08-08T10:01:17Z</time>
      </trkpt>
      <trkpt lat="44.88573" lon="3.72852">
        <ele>988.6</ele>
        <time>2021-08-08T10:01:19Z</time>
      </trkpt>
      <trkpt lat="44.88568" lon="3.7286">
        <ele>988.9</ele>
        <time>2021-08-08T10:01:21Z</time>
      </trkpt>
      <trkpt lat="44.88564" lon="3.72868">
        <ele>989.4</ele>
        <time>2021-08-08T10:01:23Z</time>
      </trkpt>
      <trkpt lat="44.88559" lon="3.72876">
        <ele>989.7</ele>
        <time>2021-08-08T10:01:25Z</time>
      </trkpt>
      <trkpt lat="44.88555" lon="3.72884">
        <ele>989.9</ele>
        <time>2021-08-08T10:01:27Z</time>
      </trkpt>
      <trkpt lat="44.8855" lon="3.72892">
        <ele>990.1</ele>
        <time>2021-08-08T10:01:29Z</time>
      </trkpt>
      <trkpt lat="44.88545" lon="3.72901">
        <ele>990.3</ele>
        <time>2021-08-08T10:01:31Z</time>
      </trkpt>
      <trkpt lat="44.88541" lon="3.72909">
        <ele>990.6</ele>
        <time>2021-08-08T10:01:33Z</time>
      </trkpt>
      <trkpt lat="44.88536" lon="3.72918">
        <ele>990.8</ele>
        <time>2021-08-08T10:01:35Z</time>
      </trkpt>
      <trkpt lat="44.88532" lon="3.72926">
        <ele>991.5</ele>
        <time>2021-08-08T10:01:37Z</time>
      </trkpt>
      <trkpt lat="44.88527" lon="3.72934">
        <ele>992.2</ele>
        <time>2021-08-08T10:01:39Z</time>
      </trkpt>
      <trkpt lat="44.88522" lon="3.72942">
        <ele>993</ele>
        <time>2021-08-08T10:01:41Z</time>
      </trkpt>
      <trkpt lat="44.88517" lon="3.7295">
        <ele>993.7</ele>
        <time>2021-08-08T10:01:43Z</time>
      </trkpt>
      <trkpt lat="44.88513" lon="3.72957">
        <ele>994.5</ele>
        <time>2021-08-08T10:01:45Z</time>
      </trkpt>
      <trkpt lat="44.88509" lon="3.72964">
        <ele>995.1</ele>
        <time>2021-08-08T10:01:47Z</time>
      </trkpt>
      <trkpt lat="44.88504" lon="3.72972">
        <ele>995.7</ele>
        <time>2021-08-08T10:01:49Z</time>
      </trkpt>
      <trkpt lat="44.88498" lon="3.72977">
        <ele>996</ele>
        <time>2021-08-08T10:01:51Z</time>
      </trkpt>
      <trkpt lat="44.88492" lon="3.72982">
        <ele>996.4</ele>
        <time>2021-08-08T10:01:53Z</time>
      </trkpt>
      <trkpt lat="44.88486" lon="3.72987">
        <ele>997.1</ele>
        <time>2021-08-08T10:01:55Z</time>
      </trkpt>
      <trkpt lat="44.88481" lon="3.72991">
        <ele>997.5</ele>
        <time>2021-08-08T10:01:57Z</time>
      </trkpt>
      <trkpt lat="44.88476" lon="3.72995">
        <ele>998</ele>
        <time>2021-08-08T10:01:59Z</time>
      </trkpt>
      <trkpt lat="44.88471" lon="3.72999">
        <ele>998.4</ele>
        <time>2021-08-08T10:02:01Z</time>
      </trkpt>
      <trkpt lat="44.88467" lon="3.73001">
        <ele>998.7</ele>
        <time>2021-08-08T10:02:03Z</time>
      </trkpt>
      <trkpt lat="44.88461" lon="3.73004">
        <ele>998.9</ele>
        <time>2021-08-08T10:02:05Z</time>
      </trkpt>
      <trkpt lat="44.88455" lon="3.73007">
        <ele>999.2</ele>
        <time>2021-08-08T10:02:07Z</time>
      </trkpt>
      <trkpt lat="44.8845" lon="3.7301">
        <ele>999.2</ele>
        <time>2021-08-08T10:02:09Z</time>
      </trkpt>
      <trkpt lat="44.88444" lon="3.73012">
        <ele>999.1</ele>
        <time>2021-08-08T10:02:11Z</time>
      </trkpt>
      <trkpt lat="44.88438" lon="3.73013">
        <ele>998.9</ele>
        <time>2021-08-08T10:02:13Z</time>
      </trkpt>
      <trkpt lat="44.88431" lon="3.73014">
        <ele>998.1</ele>
        <time>2021-08-08T10:02:15Z</time>
      </trkpt>
      <trkpt lat="44.88423" lon="3.73014">
        <ele>997</ele>
        <time>2021-08-08T10:02:17Z</time>
      </trkpt>
      <trkpt lat="44.88417" lon="3.73013">
        <ele>995.9</ele>
        <time>2021-08-08T10:02:19Z</time>
      </trkpt>
      <trkpt lat="44.8841" lon="3.73013">
        <ele>995.9</ele>
        <time>2021-08-08T10:02:21Z</time>
      </trkpt>
      <trkpt lat="44.88404" lon="3.73013">
        <ele>996.2</ele>
        <time>2021-08-08T10:02:23Z</time>
      </trkpt>
      <trkpt lat="44.88399" lon="3.73013">
        <ele>996.1</ele>
        <time>2021-08-08T10:02:25Z</time>
      </trkpt>
      <trkpt lat="44.88392" lon="3.73012">
        <ele>996</ele>
        <time>2021-08-08T10:02:27Z</time>
      </trkpt>
      <trkpt lat="44.88385" lon="3.73012">
        <ele>996.2</ele>
        <time>2021-08-08T10:02:29Z</time>
      </trkpt>
      <trkpt lat="44.88379" lon="3.73013">
        <ele>996.5</ele>
        <time>2021-08-08T10:02:31Z</time>
      </trkpt>
      <trkpt lat="44.88372" lon="3.73013">
        <ele>996.6</ele>
        <time>2021-08-08T10:02:33Z</time>
      </trkpt>
      <trkpt lat="44.88365" lon="3.73013">
        <ele>996.9</ele>
        <time>2021-08-08T10:02:35Z</time>
      </trkpt>
      <trkpt lat="44.88358" lon="3.73013">
        <ele>996.9</ele>
        <time>2021-08-08T10:02:37Z</time>
      </trkpt>
      <trkpt lat="44.88351" lon="3.73013">
        <ele>997.2</ele>
        <time>2021-08-08T10:02:39Z</time>
      </trkpt>
      <trkpt lat="44.88344" lon="3.73014">
        <ele>997.6</ele>
        <time>2021-08-08T10:02:41Z</time>
      </trkpt>
      <trkpt lat="44.88336" lon="3.73014">
        <ele>997.8</ele>
        <time>2021-08-08T10:02:43Z</time>
      </trkpt>
      <trkpt lat="44.88329" lon="3.73014">
        <ele>997.3</ele>
        <time>2021-08-08T10:02:45Z</time>
      </trkpt>
      <trkpt lat="44.88321" lon="3.73013">
        <ele>996.2</ele>
        <time>2021-08-08T10:02:47Z</time>
      </trkpt>
      <trkpt lat="44.88313" lon="3.73012">
        <ele>995</ele>
        <time>2021-08-08T10:02:49Z</time>
      </trkpt>
      <trkpt lat="44.88306" lon="3.73011">
        <ele>994.1</ele>
        <time>2021-08-08T10:02:51Z</time>
      </trkpt>
      <trkpt lat="44.88299" lon="3.73011">
        <ele>993.2</ele>
        <time>2021-08-08T10:02:53Z</time>
      </trkpt>
      <trkpt lat="44.88291" lon="3.73009">
        <ele>992.1</ele>
        <time>2021-08-08T10:02:55Z</time>
      </trkpt>
      <trkpt lat="44.88284" lon="3.73009">
        <ele>991.4</ele>
        <time>2021-08-08T10:02:57Z</time>
      </trkpt>
      <trkpt lat="44.88277" lon="3.73009">
        <ele>990.7</ele>
        <time>2021-08-08T10:02:59Z</time>
      </trkpt>
      <trkpt lat="44.88271" lon="3.73009">
        <ele>989.9</ele>
        <time>2021-08-08T10:03:01Z</time>
      </trkpt>
      <trkpt lat="44.88265" lon="3.7301">
        <ele>989.6</ele>
        <time>2021-08-08T10:03:03Z</time>
      </trkpt>
      <trkpt lat="44.88258" lon="3.73011">
        <ele>989.3</ele>
        <time>2021-08-08T10:03:05Z</time>
      </trkpt>
      <trkpt lat="44.88252" lon="3.73014">
        <ele>989.2</ele>
        <time>2021-08-08T10:03:07Z</time>
      </trkpt>
      <trkpt lat="44.88246" lon="3.73016">
        <ele>988</ele>
        <time>2021-08-08T10:03:09Z</time>
      </trkpt>
      <trkpt lat="44.88241" lon="3.73021">
        <ele>987.1</ele>
        <time>2021-08-08T10:03:11Z</time>
      </trkpt>
      <trkpt lat="44.88236" lon="3.73027">
        <ele>986.8</ele>
        <time>2021-08-08T10:03:13Z</time>
      </trkpt>
      <trkpt lat="44.88232" lon="3.73035">
        <ele>986.9</ele>
        <time>2021-08-08T10:03:15Z</time>
      </trkpt>
      <trkpt lat="44.88229" lon="3.73044">
        <ele>987.7</ele>
        <time>2021-08-08T10:03:17Z</time>
      </trkpt>
      <trkpt lat="44.88227" lon="3.73054">
        <ele>988.9</ele>
        <time>2021-08-08T10:03:19Z</time>
      </trkpt>
      <trkpt lat="44.88225" lon="3.73064">
        <ele>990</ele>
        <time>2021-08-08T10:03:21Z</time>
      </trkpt>
      <trkpt lat="44.88223" lon="3.73074">
        <ele>991</ele>
        <time>2021-08-08T10:03:23Z</time>
      </trkpt>
      <trkpt lat="44.8822" lon="3.73082">
        <ele>991.4</ele>
        <time>2021-08-08T10:03:25Z</time>
      </trkpt>
      <trkpt lat="44.88216" lon="3.73091">
        <ele>991.8</ele>
        <time>2021-08-08T10:03:27Z</time>
      </trkpt>
      <trkpt lat="44.88211" lon="3.73099">
        <ele>991.9</ele>
        <time>2021-08-08T10:03:29Z</time>
      </trkpt>
      <trkpt lat="44.88208" lon="3.73108">
        <ele>992.3</ele>
        <time>2021-08-08T10:03:31Z</time>
      </trkpt>
      <trkpt lat="44.88203" lon="3.73117">
        <ele>992.5</ele>
        <time>2021-08-08T10:03:33Z</time>
      </trkpt>
      <trkpt lat="44.88199" lon="3.73127">
        <ele>992.6</ele>
        <time>2021-08-08T10:03:35Z</time>
      </trkpt>
      <trkpt lat="44.88194" lon="3.73138">
        <ele>993</ele>
        <time>2021-08-08T10:03:37Z</time>
      </trkpt>
      <trkpt lat="44.88189" lon="3.73149">
        <ele>992.8</ele>
        <time>2021-08-08T10:03:39Z</time>
      </trkpt>
      <trkpt lat="44.88183" lon="3.7316">
        <ele>992.7</ele>
        <time>2021-08-08T10:03:41Z</time>
      </trkpt>
      <trkpt lat="44.88177" lon="3.73172">
        <ele>991.7</ele>
        <time>2021-08-08T10:03:43Z</time>
      </trkpt>
      <trkpt lat="44.8817" lon="3.73184">
        <ele>990.7</ele>
        <time>2021-08-08T10:03:45Z</time>
      </trkpt>
      <trkpt lat="44.88163" lon="3.73196">
        <ele>990.2</ele>
        <time>2021-08-08T10:03:47Z</time>
      </trkpt>
      <trkpt lat="44.88157" lon="3.73208">
        <ele>991</ele>
        <time>2021-08-08T10:03:49Z</time>
      </trkpt>
      <trkpt lat="44.88151" lon="3.73219">
        <ele>991.8</ele>
        <time>2021-08-08T10:03:51Z</time>
      </trkpt>
      <trkpt lat="44.88146" lon="3.73232">
        <ele>993.1</ele>
        <time>2021-08-08T10:03:53Z</time>
      </trkpt>
      <trkpt lat="44.88144" lon="3.73246">
        <ele>995</ele>
        <time>2021-08-08T10:03:55Z</time>
      </trkpt>
      <trkpt lat="44.88144" lon="3.7326">
        <ele>997</ele>
        <time>2021-08-08T10:03:57Z</time>
      </trkpt>
      <trkpt lat="44.88142" lon="3.73274">
        <ele>998.8</ele>
        <time>2021-08-08T10:03:59Z</time>
      </trkpt>
      <trkpt lat="44.88141" lon="3.73287">
        <ele>1000.5</ele>
        <time>2021-08-08T10:04:01Z</time>
      </trkpt>
      <trkpt lat="44.88139" lon="3.733">
        <ele>1002.1</ele>
        <time>2021-08-08T10:04:03Z</time>
      </trkpt>
      <trkpt lat="44.88133" lon="3.73312">
        <ele>1003.1</ele>
        <time>2021-08-08T10:04:05Z</time>
      </trkpt>
      <trkpt lat="44.88125" lon="3.73321">
        <ele>1003.4</ele>
        <time>2021-08-08T10:04:07Z</time>
      </trkpt>
      <trkpt lat="44.88115" lon="3.73323">
        <ele>1002.6</ele>
        <time>2021-08-08T10:04:09Z</time>
      </trkpt>
      <trkpt lat="44.88104" lon="3.73319">
        <ele>1000.8</ele>
        <time>2021-08-08T10:04:11Z</time>
      </trkpt>
      <trkpt lat="44.88096" lon="3.73311">
        <ele>998.2</ele>
        <time>2021-08-08T10:04:13Z</time>
      </trkpt>
      <trkpt lat="44.88089" lon="3.73302">
        <ele>995.4</ele>
        <time>2021-08-08T10:04:15Z</time>
      </trkpt>
      <trkpt lat="44.88082" lon="3.73292">
        <ele>992.9</ele>
        <time>2021-08-08T10:04:17Z</time>
      </trkpt>
      <trkpt lat="44.88074" lon="3.73284">
        <ele>992.2</ele>
        <time>2021-08-08T10:04:19Z</time>
      </trkpt>
      <trkpt lat="44.88066" lon="3.73275">
        <ele>991.4</ele>
        <time>2021-08-08T10:04:21Z</time>
      </trkpt>
      <trkpt lat="44.88058" lon="3.73266">
        <ele>990.3</ele>
        <time>2021-08-08T10:04:23Z</time>
      </trkpt>
      <trkpt lat="44.88052" lon="3.73256">
        <ele>989.2</ele>
        <time>2021-08-08T10:04:25Z</time>
      </trkpt>
      <trkpt lat="44.88046" lon="3.73247">
        <ele>987.9</ele>
        <time>2021-08-08T10:04:27Z</time>
      </trkpt>
      <trkpt lat="44.88041" lon="3.73235">
        <ele>986.3</ele>
        <time>2021-08-08T10:04:29Z</time>
      </trkpt>
      <trkpt lat="44.88037" lon="3.73223">
        <ele>984.6</ele>
        <time>2021-08-08T10:04:31Z</time>
      </trkpt>
      <trkpt lat="44.8803" lon="3.73214">
        <ele>983.8</ele>
        <time>2021-08-08T10:04:33Z</time>
      </trkpt>
      <trkpt lat="44.88019" lon="3.73208">
        <ele>983.8</ele>
        <time>2021-08-08T10:04:35Z</time>
      </trkpt>
      <trkpt lat="44.88007" lon="3.73209">
        <ele>985.3</ele>
        <time>2021-08-08T10:04:37Z</time>
      </trkpt>
      <trkpt lat="44.87996" lon="3.73211">
        <ele>986.3</ele>
        <time>2021-08-08T10:04:39Z</time>
      </trkpt>
      <trkpt lat="44.87986" lon="3.73214">
        <ele>986.4</ele>
        <time>2021-08-08T10:04:41Z</time>
      </trkpt>
      <trkpt lat="44.87976" lon="3.73218">
        <ele>986.7</ele>
        <time>2021-08-08T10:04:43Z</time>
      </trkpt>
      <trkpt lat="44.87966" lon="3.73221">
        <ele>986.7</ele>
        <time>2021-08-08T10:04:45Z</time>
      </trkpt>
      <trkpt lat="44.87957" lon="3.73225">
        <ele>986.8</ele>
        <time>2021-08-08T10:04:47Z</time>
      </trkpt>
      <trkpt lat="44.87947" lon="3.73228">
        <ele>986.6</ele>
        <time>2021-08-08T10:04:49Z</time>
      </trkpt>
      <trkpt lat="44.87936" lon="3.73227">
        <ele>985.9</ele>
        <time>2021-08-08T10:04:51Z</time>
      </trkpt>
      <trkpt lat="44.87925" lon="3.73227">
        <ele>985.3</ele>
        <time>2021-08-08T10:04:53Z</time>
      </trkpt>
      <trkpt lat="44.87915" lon="3.73226">
        <ele>984.4</ele>
        <time>2021-08-08T10:04:55Z</time>
      </trkpt>
      <trkpt lat="44.87905" lon="3.73225">
        <ele>982.6</ele>
        <time>2021-08-08T10:04:57Z</time>
      </trkpt>
      <trkpt lat="44.87895" lon="3.73224">
        <ele>980.9</ele>
        <time>2021-08-08T10:04:59Z</time>
      </trkpt>
      <trkpt lat="44.87885" lon="3.73225">
        <ele>979.4</ele>
        <time>2021-08-08T10:05:01Z</time>
      </trkpt>
      <trkpt lat="44.87876" lon="3.73228">
        <ele>978.1</ele>
        <time>2021-08-08T10:05:03Z</time>
      </trkpt>
      <trkpt lat="44.8787" lon="3.73238">
        <ele>977.8</ele>
        <time>2021-08-08T10:05:05Z</time>
      </trkpt>
      <trkpt lat="44.87867" lon="3.73252">
        <ele>978.1</ele>
        <time>2021-08-08T10:05:07Z</time>
      </trkpt>
      <trkpt lat="44.87868" lon="3.73267">
        <ele>977.7</ele>
        <time>2021-08-08T10:05:09Z</time>
      </trkpt>
      <trkpt lat="44.8787" lon="3.73282">
        <ele>977.9</ele>
        <time>2021-08-08T10:05:11Z</time>
      </trkpt>
      <trkpt lat="44.87873" lon="3.73295">
        <ele>978.2</ele>
        <time>2021-08-08T10:05:13Z</time>
      </trkpt>
      <trkpt lat="44.87876" lon="3.73307">
        <ele>978.7</ele>
        <time>2021-08-08T10:05:15Z</time>
      </trkpt>
      <trkpt lat="44.87879" lon="3.73318">
        <ele>979.4</ele>
        <time>2021-08-08T10:05:17Z</time>
      </trkpt>
      <trkpt lat="44.87882" lon="3.73327">
        <ele>980.4</ele>
        <time>2021-08-08T10:05:19Z</time>
      </trkpt>
      <trkpt lat="44.87885" lon="3.73335">
        <ele>981.5</ele>
        <time>2021-08-08T10:05:21Z</time>
      </trkpt>
      <trkpt lat="44.87889" lon="3.73344">
        <ele>982.5</ele>
        <time>2021-08-08T10:05:23Z</time>
      </trkpt>
      <trkpt lat="44.87892" lon="3.73353">
        <ele>983.5</ele>
        <time>2021-08-08T10:05:25Z</time>
      </trkpt>
      <trkpt lat="44.87895" lon="3.73365">
        <ele>984</ele>
        <time>2021-08-08T10:05:27Z</time>
      </trkpt>
      <trkpt lat="44.87895" lon="3.73377">
        <ele>984.1</ele>
        <time>2021-08-08T10:05:29Z</time>
      </trkpt>
      <trkpt lat="44.87897" lon="3.7339">
        <ele>984.3</ele>
        <time>2021-08-08T10:05:31Z</time>
      </trkpt>
      <trkpt lat="44.87899" lon="3.73403">
        <ele>984.8</ele>
        <time>2021-08-08T10:05:33Z</time>
      </trkpt>
      <trkpt lat="44.879" lon="3.73418">
        <ele>985.2</ele>
        <time>2021-08-08T10:05:35Z</time>
      </trkpt>
      <trkpt lat="44.87899" lon="3.73433">
        <ele>986.7</ele>
        <time>2021-08-08T10:05:37Z</time>
      </trkpt>
      <trkpt lat="44.87897" lon="3.73448">
        <ele>987.6</ele>
        <time>2021-08-08T10:05:39Z</time>
      </trkpt>
      <trkpt lat="44.87893" lon="3.73462">
        <ele>987.5</ele>
        <time>2021-08-08T10:05:41Z</time>
      </trkpt>
      <trkpt lat="44.87888" lon="3.73477">
        <ele>986.8</ele>
        <time>2021-08-08T10:05:43Z</time>
      </trkpt>
      <trkpt lat="44.87881" lon="3.7349">
        <ele>985.1</ele>
        <time>2021-08-08T10:05:45Z</time>
      </trkpt>
      <trkpt lat="44.87873" lon="3.735">
        <ele>982.7</ele>
        <time>2021-08-08T10:05:47Z</time>
      </trkpt>
      <trkpt lat="44.87865" lon="3.73509">
        <ele>980.7</ele>
        <time>2021-08-08T10:05:49Z</time>
      </trkpt>
      <trkpt lat="44.87858" lon="3.73518">
        <ele>979.1</ele>
        <time>2021-08-08T10:05:51Z</time>
      </trkpt>
      <trkpt lat="44.87852" lon="3.73528">
        <ele>978.3</ele>
        <time>2021-08-08T10:05:53Z</time>
      </trkpt>
      <trkpt lat="44.87846" lon="3.73539">
        <ele>978</ele>
        <time>2021-08-08T10:05:55Z</time>
      </trkpt>
      <trkpt lat="44.87841" lon="3.73551">
        <ele>977.9</ele>
        <time>2021-08-08T10:05:57Z</time>
      </trkpt>
      <trkpt lat="44.87837" lon="3.73565">
        <ele>978.2</ele>
        <time>2021-08-08T10:05:59Z</time>
      </trkpt>
      <trkpt lat="44.87833" lon="3.73579">
        <ele>979</ele>
        <time>2021-08-08T10:06:01Z</time>
      </trkpt>
      <trkpt lat="44.8783" lon="3.73593">
        <ele>979.9</ele>
        <time>2021-08-08T10:06:03Z</time>
      </trkpt>
      <trkpt lat="44.87826" lon="3.73608">
        <ele>980.7</ele>
        <time>2021-08-08T10:06:05Z</time>
      </trkpt>
      <trkpt lat="44.87823" lon="3.73623">
        <ele>981.2</ele>
        <time>2021-08-08T10:06:07Z</time>
      </trkpt>
      <trkpt lat="44.87819" lon="3.73637">
        <ele>981.6</ele>
        <time>2021-08-08T10:06:09Z</time>
      </trkpt>
      <trkpt lat="44.87813" lon="3.73652">
        <ele>981.2</ele>
        <time>2021-08-08T10:06:11Z</time>
      </trkpt>
      <trkpt lat="44.87808" lon="3.73667">
        <ele>980.9</ele>
        <time>2021-08-08T10:06:13Z</time>
      </trkpt>
      <trkpt lat="44.87804" lon="3.73681">
        <ele>979.3</ele>
        <time>2021-08-08T10:06:15Z</time>
      </trkpt>
      <trkpt lat="44.87801" lon="3.73697">
        <ele>978.8</ele>
        <time>2021-08-08T10:06:17Z</time>
      </trkpt>
      <trkpt lat="44.878" lon="3.73712">
        <ele>978.7</ele>
        <time>2021-08-08T10:06:19Z</time>
      </trkpt>
      <trkpt lat="44.878" lon="3.73727">
        <ele>979.2</ele>
        <time>2021-08-08T10:06:21Z</time>
      </trkpt>
      <trkpt lat="44.878" lon="3.73742">
        <ele>980</ele>
        <time>2021-08-08T10:06:23Z</time>
      </trkpt>
      <trkpt lat="44.87801" lon="3.73757">
        <ele>980.6</ele>
        <time>2021-08-08T10:06:25Z</time>
      </trkpt>
      <trkpt lat="44.87806" lon="3.73769">
        <ele>982</ele>
        <time>2021-08-08T10:06:27Z</time>
      </trkpt>
      <trkpt lat="44.87814" lon="3.73779">
        <ele>983.9</ele>
        <time>2021-08-08T10:06:29Z</time>
      </trkpt>
      <trkpt lat="44.87822" lon="3.7379">
        <ele>985.6</ele>
        <time>2021-08-08T10:06:31Z</time>
      </trkpt>
      <trkpt lat="44.8783" lon="3.73799">
        <ele>986.8</ele>
        <time>2021-08-08T10:06:33Z</time>
      </trkpt>
      <trkpt lat="44.87837" lon="3.73809">
        <ele>988</ele>
        <time>2021-08-08T10:06:35Z</time>
      </trkpt>
      <trkpt lat="44.87845" lon="3.73819">
        <ele>989.8</ele>
        <time>2021-08-08T10:06:37Z</time>
      </trkpt>
      <trkpt lat="44.87853" lon="3.73829">
        <ele>991.4</ele>
        <time>2021-08-08T10:06:39Z</time>
      </trkpt>
      <trkpt lat="44.8786" lon="3.73838">
        <ele>993.2</ele>
        <time>2021-08-08T10:06:41Z</time>
      </trkpt>
      <trkpt lat="44.87867" lon="3.73848">
        <ele>995.2</ele>
        <time>2021-08-08T10:06:43Z</time>
      </trkpt>
      <trkpt lat="44.87872" lon="3.7386">
        <ele>996.4</ele>
        <time>2021-08-08T10:06:45Z</time>
      </trkpt>
      <trkpt lat="44.87875" lon="3.73873">
        <ele>996.6</ele>
        <time>2021-08-08T10:06:47Z</time>
      </trkpt>
      <trkpt lat="44.87873" lon="3.73888">
        <ele>995.5</ele>
        <time>2021-08-08T10:06:49Z</time>
      </trkpt>
      <trkpt lat="44.87868" lon="3.73901">
        <ele>993.7</ele>
        <time>2021-08-08T10:06:51Z</time>
      </trkpt>
      <trkpt lat="44.87861" lon="3.7391">
        <ele>991.9</ele>
        <time>2021-08-08T10:06:53Z</time>
      </trkpt>
      <trkpt lat="44.87853" lon="3.73914">
        <ele>989.9</ele>
        <time>2021-08-08T10:06:55Z</time>
      </trkpt>
      <trkpt lat="44.87844" lon="3.73914">
        <ele>988.1</ele>
        <time>2021-08-08T10:06:57Z</time>
      </trkpt>
      <trkpt lat="44.87836" lon="3.7391">
        <ele>986.3</ele>
        <time>2021-08-08T10:06:59Z</time>
      </trkpt>
      <trkpt lat="44.87828" lon="3.73906">
        <ele>986</ele>
        <time>2021-08-08T10:07:01Z</time>
      </trkpt>
      <trkpt lat="44.8782" lon="3.73903">
        <ele>986.2</ele>
        <time>2021-08-08T10:07:03Z</time>
      </trkpt>
      <trkpt lat="44.87812" lon="3.73899">
        <ele>986.3</ele>
        <time>2021-08-08T10:07:05Z</time>
      </trkpt>
      <trkpt lat="44.87804" lon="3.73897">
        <ele>986.4</ele>
        <time>2021-08-08T10:07:07Z</time>
      </trkpt>
      <trkpt lat="44.87797" lon="3.73896">
        <ele>986.4</ele>
        <time>2021-08-08T10:07:09Z</time>
      </trkpt>
      <trkpt lat="44.87788" lon="3.73894">
        <ele>986.3</ele>
        <time>2021-08-08T10:07:11Z</time>
      </trkpt>
      <trkpt lat="44.8778" lon="3.73891">
        <ele>986</ele>
        <time>2021-08-08T10:07:13Z</time>
      </trkpt>
      <trkpt lat="44.87772" lon="3.73889">
        <ele>985.6</ele>
        <time>2021-08-08T10:07:15Z</time>
      </trkpt>
      <trkpt lat="44.87765" lon="3.73886">
        <ele>985</ele>
        <time>2021-08-08T10:07:17Z</time>
      </trkpt>
      <trkpt lat="44.87757" lon="3.73884">
        <ele>984.3</ele>
        <time>2021-08-08T10:07:19Z</time>
      </trkpt>
      <trkpt lat="44.87748" lon="3.73881">
        <ele>983.9</ele>
        <time>2021-08-08T10:07:21Z</time>
      </trkpt>
      <trkpt lat="44.8774" lon="3.73878">
        <ele>984.6</ele>
        <time>2021-08-08T10:07:23Z</time>
      </trkpt>
      <trkpt lat="44.87732" lon="3.73877">
        <ele>985.6</ele>
        <time>2021-08-08T10:07:25Z</time>
      </trkpt>
      <trkpt lat="44.87724" lon="3.73875">
        <ele>986.6</ele>
        <time>2021-08-08T10:07:27Z</time>
      </trkpt>
      <trkpt lat="44.87716" lon="3.73873">
        <ele>987.6</ele>
        <time>2021-08-08T10:07:29Z</time>
      </trkpt>
      <trkpt lat="44.87708" lon="3.73871">
        <ele>988.6</ele>
        <time>2021-08-08T10:07:31Z</time>
      </trkpt>
      <trkpt lat="44.87701" lon="3.7387">
        <ele>989.5</ele>
        <time>2021-08-08T10:07:33Z</time>
      </trkpt>
      <trkpt lat="44.87694" lon="3.73868">
        <ele>990.3</ele>
        <time>2021-08-08T10:07:35Z</time>
      </trkpt>
      <trkpt lat="44.87687" lon="3.73866">
        <ele>991.2</ele>
        <time>2021-08-08T10:07:37Z</time>
      </trkpt>
      <trkpt lat="44.87681" lon="3.73863">
        <ele>991.5</ele>
        <time>2021-08-08T10:07:39Z</time>
      </trkpt>
      <trkpt lat="44.87675" lon="3.73858">
        <ele>991.4</ele>
        <time>2021-08-08T10:07:41Z</time>
      </trkpt>
      <trkpt lat="44.8767" lon="3.73852">
        <ele>990.8</ele>
        <time>2021-08-08T10:07:43Z</time>
      </trkpt>
      <trkpt lat="44.87665" lon="3.73845">
        <ele>990.2</ele>
        <time>2021-08-08T10:07:45Z</time>
      </trkpt>
      <trkpt lat="44.8766" lon="3.73838">
        <ele>989.8</ele>
        <time>2021-08-08T10:07:47Z</time>
      </trkpt>
      <trkpt lat="44.87656" lon="3.73832">
        <ele>989.6</ele>
        <time>2021-08-08T10:07:49Z</time>
      </trkpt>
      <trkpt lat="44.87651" lon="3.73827">
        <ele>989.5</ele>
        <time>2021-08-08T10:07:51Z</time>
      </trkpt>
      <trkpt lat="44.87647" lon="3.73821">
        <ele>989.5</ele>
        <time>2021-08-08T10:07:53Z</time>
      </trkpt>
      <trkpt lat="44.87642" lon="3.73815">
        <ele>989.4</ele>
        <time>2021-08-08T10:07:55Z</time>
      </trkpt>
      <trkpt lat="44.87637" lon="3.7381">
        <ele>989.5</ele>
        <time>2021-08-08T10:07:57Z</time>
      </trkpt>
      <trkpt lat="44.87632" lon="3.73806">
        <ele>989.8</ele>
        <time>2021-08-08T10:07:59Z</time>
      </trkpt>
      <trkpt lat="44.87628" lon="3.738">
        <ele>989.8</ele>
        <time>2021-08-08T10:08:01Z</time>
      </trkpt>
      <trkpt lat="44.87623" lon="3.73794">
        <ele>989.6</ele>
        <time>2021-08-08T10:08:03Z</time>
      </trkpt>
      <trkpt lat="44.87618" lon="3.7379">
        <ele>990</ele>
        <time>2021-08-08T10:08:05Z</time>
      </trkpt>
      <trkpt lat="44.87612" lon="3.73785">
        <ele>990.3</ele>
        <time>2021-08-08T10:08:07Z</time>
      </trkpt>
      <trkpt lat="44.87607" lon="3.7378">
        <ele>990.5</ele>
        <time>2021-08-08T10:08:09Z</time>
      </trkpt>
      <trkpt lat="44.87602" lon="3.73776">
        <ele>991</ele>
        <time>2021-08-08T10:08:11Z</time>
      </trkpt>
      <trkpt lat="44.87596" lon="3.73772">
        <ele>991.7</ele>
        <time>2021-08-08T10:08:13Z</time>
      </trkpt>
      <trkpt lat="44.87591" lon="3.73769">
        <ele>992.4</ele>
        <time>2021-08-08T10:08:15Z</time>
      </trkpt>
      <trkpt lat="44.87585" lon="3.73766">
        <ele>993.1</ele>
        <time>2021-08-08T10:08:17Z</time>
      </trkpt>
      <trkpt lat="44.8758" lon="3.73762">
        <ele>993.4</ele>
        <time>2021-08-08T10:08:19Z</time>
      </trkpt>
      <trkpt lat="44.87575" lon="3.73758">
        <ele>993.7</ele>
        <time>2021-08-08T10:08:21Z</time>
      </trkpt>
      <trkpt lat="44.8757" lon="3.73754">
        <ele>994</ele>
        <time>2021-08-08T10:08:23Z</time>
      </trkpt>
      <trkpt lat="44.87566" lon="3.7375">
        <ele>994.2</ele>
        <time>2021-08-08T10:08:25Z</time>
      </trkpt>
      <trkpt lat="44.87561" lon="3.73746">
        <ele>994.3</ele>
        <time>2021-08-08T10:08:27Z</time>
      </trkpt>
      <trkpt lat="44.87557" lon="3.73742">
        <ele>994.3</ele>
        <time>2021-08-08T10:08:29Z</time>
      </trkpt>
      <trkpt lat="44.87552" lon="3.73736">
        <ele>994.1</ele>
        <time>2021-08-08T10:08:31Z</time>
      </trkpt>
      <trkpt lat="44.87547" lon="3.73729">
        <ele>993.8</ele>
        <time>2021-08-08T10:08:33Z</time>
      </trkpt>
      <trkpt lat="44.87541" lon="3.73724">
        <ele>993.8</ele>
        <time>2021-08-08T10:08:35Z</time>
      </trkpt>
      <trkpt lat="44.87537" lon="3.73718">
        <ele>993.5</ele>
        <time>2021-08-08T10:08:37Z</time>
      </trkpt>
      <trkpt lat="44.87533" lon="3.73713">
        <ele>993.2</ele>
        <time>2021-08-08T10:08:39Z</time>
      </trkpt>
      <trkpt lat="44.87529" lon="3.73708">
        <ele>993</ele>
        <time>2021-08-08T10:08:41Z</time>
      </trkpt>
      <trkpt lat="44.87525" lon="3.73703">
        <ele>993.1</ele>
        <time>2021-08-08T10:08:43Z</time>
      </trkpt>
      <trkpt lat="44.87521" lon="3.73699">
        <ele>993.1</ele>
        <time>2021-08-08T10:08:45Z</time>
      </trkpt>
      <trkpt lat="44.87516" lon="3.73694">
        <ele>993</ele>
        <time>2021-08-08T10:08:47Z</time>
      </trkpt>
      <trkpt lat="44.87512" lon="3.73689">
        <ele>992.9</ele>
        <time>2021-08-08T10:08:49Z</time>
      </trkpt>
      <trkpt lat="44.87508" lon="3.73684">
        <ele>993</ele>
        <time>2021-08-08T10:08:51Z</time>
      </trkpt>
      <trkpt lat="44.87504" lon="3.73679">
        <ele>992.9</ele>
        <time>2021-08-08T10:08:53Z</time>
      </trkpt>
      <trkpt lat="44.875" lon="3.73673">
        <ele>992.6</ele>
        <time>2021-08-08T10:08:55Z</time>
      </trkpt>
      <trkpt lat="44.87496" lon="3.73668">
        <ele>991.9</ele>
        <time>2021-08-08T10:08:57Z</time>
      </trkpt>
      <trkpt lat="44.87493" lon="3.73662">
        <ele>991.5</ele>
        <time>2021-08-08T10:08:59Z</time>
      </trkpt>
      <trkpt lat="44.87489" lon="3.73656">
        <ele>991.1</ele>
        <time>2021-08-08T10:09:01Z</time>
      </trkpt>
      <trkpt lat="44.87485" lon="3.7365">
        <ele>990.9</ele>
        <time>2021-08-08T10:09:03Z</time>
      </trkpt>
      <trkpt lat="44.87481" lon="3.73645">
        <ele>990.7</ele>
        <time>2021-08-08T10:09:05Z</time>
      </trkpt>
      <trkpt lat="44.87477" lon="3.73639">
        <ele>990.6</ele>
        <time>2021-08-08T10:09:07Z</time>
      </trkpt>
      <trkpt lat="44.87473" lon="3.73633">
        <ele>990.5</ele>
        <time>2021-08-08T10:09:09Z</time>
      </trkpt>
      <trkpt lat="44.8747" lon="3.73627">
        <ele>990.4</ele>
        <time>2021-08-08T10:09:11Z</time>
      </trkpt>
      <trkpt lat="44.87466" lon="3.73622">
        <ele>990.4</ele>
        <time>2021-08-08T10:09:13Z</time>
      </trkpt>
      <trkpt lat="44.87462" lon="3.73616">
        <ele>990.6</ele>
        <time>2021-08-08T10:09:15Z</time>
      </trkpt>
      <trkpt lat="44.87458" lon="3.73609">
        <ele>990.4</ele>
        <time>2021-08-08T10:09:17Z</time>
      </trkpt>
      <trkpt lat="44.87454" lon="3.73603">
        <ele>990.6</ele>
        <time>2021-08-08T10:09:19Z</time>
      </trkpt>
      <trkpt lat="44.8745" lon="3.73598">
        <ele>990.8</ele>
        <time>2021-08-08T10:09:21Z</time>
      </trkpt>
      <trkpt lat="44.87447" lon="3.73592">
        <ele>991.1</ele>
        <time>2021-08-08T10:09:23Z</time>
      </trkpt>
      <trkpt lat="44.87443" lon="3.73586">
        <ele>991.3</ele>
        <time>2021-08-08T10:09:25Z</time>
      </trkpt>
      <trkpt lat="44.8744" lon="3.73581">
        <ele>991.5</ele>
        <time>2021-08-08T10:09:27Z</time>
      </trkpt>
      <trkpt lat="44.87436" lon="3.73575">
        <ele>991.6</ele>
        <time>2021-08-08T10:09:29Z</time>
      </trkpt>
      <trkpt lat="44.87432" lon="3.73571">
        <ele>991.9</ele>
        <time>2021-08-08T10:09:31Z</time>
      </trkpt>
      <trkpt lat="44.87429" lon="3.73565">
        <ele>991.7</ele>
        <time>2021-08-08T10:09:33Z</time>
      </trkpt>
      <trkpt lat="44.87426" lon="3.73559">
        <ele>991.6</ele>
        <time>2021-08-08T10:09:35Z</time>
      </trkpt>
      <trkpt lat="44.87423" lon="3.73554">
        <ele>991.7</ele>
        <time>2021-08-08T10:09:37Z</time>
      </trkpt>
      <trkpt lat="44.87419" lon="3.73548">
        <ele>991.8</ele>
        <time>2021-08-08T10:09:39Z</time>
      </trkpt>
      <trkpt lat="44.87415" lon="3.73544">
        <ele>991.9</ele>
        <time>2021-08-08T10:09:41Z</time>
      </trkpt>
      <trkpt lat="44.87411" lon="3.7354">
        <ele>991.6</ele>
        <time>2021-08-08T10:09:43Z</time>
      </trkpt>
      <trkpt lat="44.87407" lon="3.73536">
        <ele>991.3</ele>
        <time>2021-08-08T10:09:45Z</time>
      </trkpt>
      <trkpt lat="44.87403" lon="3.73532">
        <ele>990.9</ele>
        <time>2021-08-08T10:09:47Z</time>
      </trkpt>
      <trkpt lat="44.87398" lon="3.73529">
        <ele>990.8</ele>
        <time>2021-08-08T10:09:49Z</time>
      </trkpt>
      <trkpt lat="44.87393" lon="3.73527">
        <ele>990.8</ele>
        <time>2021-08-08T10:09:51Z</time>
      </trkpt>
      <trkpt lat="44.87389" lon="3.73525">
        <ele>990.8</ele>
        <time>2021-08-08T10:09:53Z</time>
      </trkpt>
      <trkpt lat="44.87384" lon="3.73523">
        <ele>990.9</ele>
        <time>2021-08-08T10:09:55Z</time>
      </trkpt>
      <trkpt lat="44.87379" lon="3.73521">
        <ele>991.1</ele>
        <time>2021-08-08T10:09:57Z</time>
      </trkpt>
      <trkpt lat="44.87374" lon="3.7352">
        <ele>991.4</ele>
        <time>2021-08-08T10:09:59Z</time>
      </trkpt>
      <trkpt lat="44.87369" lon="3.73519">
        <ele>991.7</ele>
        <time>2021-08-08T10:10:01Z</time>
      </trkpt>
      <trkpt lat="44.87364" lon="3.73519">
        <ele>992</ele>
        <time>2021-08-08T10:10:03Z</time>
      </trkpt>
      <trkpt lat="44.8736" lon="3.73519">
        <ele>992.3</ele>
        <time>2021-08-08T10:10:05Z</time>
      </trkpt>
      <trkpt lat="44.87356" lon="3.7352">
        <ele>992.8</ele>
        <time>2021-08-08T10:10:07Z</time>
      </trkpt>
      <trkpt lat="44.87352" lon="3.73522">
        <ele>993.2</ele>
        <time>2021-08-08T10:10:09Z</time>
      </trkpt>
      <trkpt lat="44.87348" lon="3.73523">
        <ele>993.6</ele>
        <time>2021-08-08T10:10:11Z</time>
      </trkpt>
      <trkpt lat="44.87344" lon="3.73526">
        <ele>994.1</ele>
        <time>2021-08-08T10:10:13Z</time>
      </trkpt>
      <trkpt lat="44.87341" lon="3.73529">
        <ele>994.6</ele>
        <time>2021-08-08T10:10:15Z</time>
      </trkpt>
      <trkpt lat="44.87337" lon="3.7353">
        <ele>994.9</ele>
        <time>2021-08-08T10:10:17Z</time>
      </trkpt>
      <trkpt lat="44.87334" lon="3.73531">
        <ele>995.2</ele>
        <time>2021-08-08T10:10:19Z</time>
      </trkpt>
      <trkpt lat="44.87331" lon="3.73529">
        <ele>995</ele>
        <time>2021-08-08T10:10:21Z</time>
      </trkpt>
      <trkpt lat="44.8733" lon="3.73529">
        <ele>995</ele>
        <time>2021-08-08T10:10:23Z</time>
      </trkpt>
      <trkpt lat="44.8733" lon="3.73529">
        <ele>995</ele>
        <time>2021-08-08T10:10:25Z</time>
      </trkpt>
      <trkpt lat="44.8733" lon="3.73529">
        <ele>995</ele>
        <time>2021-08-08T10:10:27Z</time>
      </trkpt>
      <trkpt lat="44.8733" lon="3.73529">
        <ele>995</ele>
        <time>2021-08-08T10:10:29Z</time>
      </trkpt>
      <trkpt lat="44.8733" lon="3.73529">
        <ele>995</ele>
        <time>2021-08-08T10:10:31Z</time>
      </trkpt>
      <trkpt lat="44.87312" lon="3.73587">
        <ele>996.9</ele>
        <time>2021-08-08T10:27:17Z</time>
      </trkpt>
      <trkpt lat="44.87312" lon="3.73591">
        <ele>997</ele>
        <time>2021-08-08T10:27:19Z</time>
      </trkpt>
      <trkpt lat="44.87311" lon="3.73595">
        <ele>997</ele>
        <time>2021-08-08T10:27:21Z</time>
      </trkpt>
      <trkpt lat="44.87312" lon="3.73599">
        <ele>997.2</ele>
        <time>2021-08-08T10:27:23Z</time>
      </trkpt>
      <trkpt lat="44.87312" lon="3.73601">
        <ele>997.3</ele>
        <time>2021-08-08T10:27:25Z</time>
      </trkpt>
      <trkpt lat="44.87313" lon="3.73605">
        <ele>997.5</ele>
        <time>2021-08-08T10:27:27Z</time>
      </trkpt>
      <trkpt lat="44.87313" lon="3.73609">
        <ele>997.7</ele>
        <time>2021-08-08T10:27:29Z</time>
      </trkpt>
      <trkpt lat="44.87314" lon="3.73614">
        <ele>997.9</ele>
        <time>2021-08-08T10:27:31Z</time>
      </trkpt>
      <trkpt lat="44.87314" lon="3.73617">
        <ele>998.1</ele>
        <time>2021-08-08T10:27:33Z</time>
      </trkpt>
      <trkpt lat="44.87315" lon="3.73622">
        <ele>998.3</ele>
        <time>2021-08-08T10:27:35Z</time>
      </trkpt>
      <trkpt lat="44.87317" lon="3.73626">
        <ele>998.6</ele>
        <time>2021-08-08T10:27:37Z</time>
      </trkpt>
      <trkpt lat="44.87317" lon="3.7363">
        <ele>998.9</ele>
        <time>2021-08-08T10:27:39Z</time>
      </trkpt>
      <trkpt lat="44.87319" lon="3.73635">
        <ele>999.2</ele>
        <time>2021-08-08T10:27:41Z</time>
      </trkpt>
      <trkpt lat="44.8732" lon="3.73639">
        <ele>999.5</ele>
        <time>2021-08-08T10:27:43Z</time>
      </trkpt>
      <trkpt lat="44.87321" lon="3.73644">
        <ele>999.7</ele>
        <time>2021-08-08T10:27:45Z</time>
      </trkpt>
      <trkpt lat="44.87322" lon="3.73649">
        <ele>1000</ele>
        <time>2021-08-08T10:27:47Z</time>
      </trkpt>
      <trkpt lat="44.87323" lon="3.73653">
        <ele>1000.3</ele>
        <time>2021-08-08T10:27:49Z</time>
      </trkpt>
      <trkpt lat="44.87324" lon="3.73657">
        <ele>1000.6</ele>
        <time>2021-08-08T10:27:51Z</time>
      </trkpt>
      <trkpt lat="44.87325" lon="3.73662">
        <ele>1000.8</ele>
        <time>2021-08-08T10:27:53Z</time>
      </trkpt>
      <trkpt lat="44.87326" lon="3.73667">
        <ele>1001.1</ele>
        <time>2021-08-08T10:27:55Z</time>
      </trkpt>
      <trkpt lat="44.87327" lon="3.73671">
        <ele>1001.5</ele>
        <time>2021-08-08T10:27:57Z</time>
      </trkpt>
      <trkpt lat="44.87328" lon="3.73676">
        <ele>1001.8</ele>
        <time>2021-08-08T10:27:59Z</time>
      </trkpt>
      <trkpt lat="44.87328" lon="3.73681">
        <ele>1002.1</ele>
        <time>2021-08-08T10:28:01Z</time>
      </trkpt>
      <trkpt lat="44.8733" lon="3.73686">
        <ele>1002.5</ele>
        <time>2021-08-08T10:28:03Z</time>
      </trkpt>
      <trkpt lat="44.8733" lon="3.73691">
        <ele>1002.8</ele>
        <time>2021-08-08T10:28:05Z</time>
      </trkpt>
      <trkpt lat="44.87331" lon="3.73696">
        <ele>1003.1</ele>
        <time>2021-08-08T10:28:07Z</time>
      </trkpt>
      <trkpt lat="44.87332" lon="3.73701">
        <ele>1003.5</ele>
        <time>2021-08-08T10:28:09Z</time>
      </trkpt>
      <trkpt lat="44.87333" lon="3.73706">
        <ele>1003.9</ele>
        <time>2021-08-08T10:28:11Z</time>
      </trkpt>
      <trkpt lat="44.87334" lon="3.73711">
        <ele>1004.2</ele>
        <time>2021-08-08T10:28:13Z</time>
      </trkpt>
      <trkpt lat="44.87334" lon="3.73716">
        <ele>1004.4</ele>
        <time>2021-08-08T10:28:15Z</time>
      </trkpt>
      <trkpt lat="44.87334" lon="3.73721">
        <ele>1004.7</ele>
        <time>2021-08-08T10:28:17Z</time>
      </trkpt>
      <trkpt lat="44.87335" lon="3.73726">
        <ele>1005</ele>
        <time>2021-08-08T10:28:19Z</time>
      </trkpt>
      <trkpt lat="44.87335" lon="3.73731">
        <ele>1005.2</ele>
        <time>2021-08-08T10:28:21Z</time>
      </trkpt>
      <trkpt lat="44.87336" lon="3.73736">
        <ele>1005.5</ele>
        <time>2021-08-08T10:28:23Z</time>
      </trkpt>
      <trkpt lat="44.87336" lon="3.7374">
        <ele>1005.8</ele>
        <time>2021-08-08T10:28:25Z</time>
      </trkpt>
      <trkpt lat="44.87336" lon="3.73744">
        <ele>1006</ele>
        <time>2021-08-08T10:28:27Z</time>
      </trkpt>
      <trkpt lat="44.87336" lon="3.73749">
        <ele>1006.2</ele>
        <time>2021-08-08T10:28:29Z</time>
      </trkpt>
      <trkpt lat="44.87337" lon="3.73753">
        <ele>1006.6</ele>
        <time>2021-08-08T10:28:31Z</time>
      </trkpt>
      <trkpt lat="44.87336" lon="3.73758">
        <ele>1007</ele>
        <time>2021-08-08T10:28:33Z</time>
      </trkpt>
      <trkpt lat="44.87336" lon="3.73763">
        <ele>1007.4</ele>
        <time>2021-08-08T10:28:35Z</time>
      </trkpt>
      <trkpt lat="44.87336" lon="3.73768">
        <ele>1007.8</ele>
        <time>2021-08-08T10:28:37Z</time>
      </trkpt>
      <trkpt lat="44.87335" lon="3.73773">
        <ele>1008.2</ele>
        <time>2021-08-08T10:28:39Z</time>
      </trkpt>
      <trkpt lat="44.87335" lon="3.73778">
        <ele>1008.6</ele>
        <time>2021-08-08T10:28:41Z</time>
      </trkpt>
      <trkpt lat="44.87335" lon="3.73782">
        <ele>1008.9</ele>
        <time>2021-08-08T10:28:43Z</time>
      </trkpt>
      <trkpt lat="44.87335" lon="3.73787">
        <ele>1009.3</ele>
        <time>2021-08-08T10:28:45Z</time>
      </trkpt>
      <trkpt lat="44.87335" lon="3.73792">
        <ele>1009.8</ele>
        <time>2021-08-08T10:28:47Z</time>
      </trkpt>
      <trkpt lat="44.87334" lon="3.73797">
        <ele>1010.1</ele>
        <time>2021-08-08T10:28:49Z</time>
      </trkpt>
      <trkpt lat="44.87334" lon="3.73801">
        <ele>1010.4</ele>
        <time>2021-08-08T10:28:51Z</time>
      </trkpt>
      <trkpt lat="44.87334" lon="3.73806">
        <ele>1010.8</ele>
        <time>2021-08-08T10:28:53Z</time>
      </trkpt>
      <trkpt lat="44.87334" lon="3.73811">
        <ele>1011.2</ele>
        <time>2021-08-08T10:28:55Z</time>
      </trkpt>
      <trkpt lat="44.87333" lon="3.73815">
        <ele>1011.4</ele>
        <time>2021-08-08T10:28:57Z</time>
      </trkpt>
      <trkpt lat="44.87333" lon="3.7382">
        <ele>1011.8</ele>
        <time>2021-08-08T10:28:59Z</time>
      </trkpt>
      <trkpt lat="44.87333" lon="3.73825">
        <ele>1012.2</ele>
        <time>2021-08-08T10:29:01Z</time>
      </trkpt>
      <trkpt lat="44.87333" lon="3.73829">
        <ele>1012.6</ele>
        <time>2021-08-08T10:29:03Z</time>
      </trkpt>
      <trkpt lat="44.87332" lon="3.73834">
        <ele>1012.9</ele>
        <time>2021-08-08T10:29:05Z</time>
      </trkpt>
      <trkpt lat="44.87332" lon="3.73839">
        <ele>1013</ele>
        <time>2021-08-08T10:29:07Z</time>
      </trkpt>
      <trkpt lat="44.87333" lon="3.73843">
        <ele>1013.2</ele>
        <time>2021-08-08T10:29:09Z</time>
      </trkpt>
      <trkpt lat="44.87332" lon="3.73849">
        <ele>1013.3</ele>
        <time>2021-08-08T10:29:11Z</time>
      </trkpt>
      <trkpt lat="44.87331" lon="3.73853">
        <ele>1013.4</ele>
        <time>2021-08-08T10:29:13Z</time>
      </trkpt>
      <trkpt lat="44.87332" lon="3.73858">
        <ele>1013.6</ele>
        <time>2021-08-08T10:29:15Z</time>
      </trkpt>
      <trkpt lat="44.87332" lon="3.73863">
        <ele>1013.8</ele>
        <time>2021-08-08T10:29:17Z</time>
      </trkpt>
      <trkpt lat="44.87331" lon="3.73867">
        <ele>1013.9</ele>
        <time>2021-08-08T10:29:19Z</time>
      </trkpt>
      <trkpt lat="44.87332" lon="3.73873">
        <ele>1014.1</ele>
        <time>2021-08-08T10:29:21Z</time>
      </trkpt>
      <trkpt lat="44.87331" lon="3.73877">
        <ele>1014.2</ele>
        <time>2021-08-08T10:29:23Z</time>
      </trkpt>
      <trkpt lat="44.87331" lon="3.73882">
        <ele>1014.4</ele>
        <time>2021-08-08T10:29:25Z</time>
      </trkpt>
      <trkpt lat="44.87331" lon="3.73887">
        <ele>1014.5</ele>
        <time>2021-08-08T10:29:27Z</time>
      </trkpt>
      <trkpt lat="44.87331" lon="3.73892">
        <ele>1014.6</ele>
        <time>2021-08-08T10:29:29Z</time>
      </trkpt>
      <trkpt lat="44.8733" lon="3.73896">
        <ele>1014.8</ele>
        <time>2021-08-08T10:29:31Z</time>
      </trkpt>
      <trkpt lat="44.8733" lon="3.73901">
        <ele>1014.9</ele>
        <time>2021-08-08T10:29:33Z</time>
      </trkpt>
      <trkpt lat="44.8733" lon="3.73906">
        <ele>1015</ele>
        <time>2021-08-08T10:29:35Z</time>
      </trkpt>
      <trkpt lat="44.8733" lon="3.73909">
        <ele>1015.2</ele>
        <time>2021-08-08T10:29:37Z</time>
      </trkpt>
      <trkpt lat="44.8733" lon="3.73914">
        <ele>1015.3</ele>
        <time>2021-08-08T10:29:39Z</time>
      </trkpt>
      <trkpt lat="44.87329" lon="3.73918">
        <ele>1015.3</ele>
        <time>2021-08-08T10:29:41Z</time>
      </trkpt>
      <trkpt lat="44.87329" lon="3.73923">
        <ele>1015.3</ele>
        <time>2021-08-08T10:29:43Z</time>
      </trkpt>
      <trkpt lat="44.87328" lon="3.73928">
        <ele>1015.1</ele>
        <time>2021-08-08T10:29:45Z</time>
      </trkpt>
      <trkpt lat="44.87329" lon="3.73932">
        <ele>1015.1</ele>
        <time>2021-08-08T10:29:47Z</time>
      </trkpt>
      <trkpt lat="44.87329" lon="3.73937">
        <ele>1015.1</ele>
        <time>2021-08-08T10:29:49Z</time>
      </trkpt>
      <trkpt lat="44.87329" lon="3.73941">
        <ele>1015.1</ele>
        <time>2021-08-08T10:29:51Z</time>
      </trkpt>
      <trkpt lat="44.87331" lon="3.73946">
        <ele>1015.3</ele>
        <time>2021-08-08T10:29:53Z</time>
      </trkpt>
      <trkpt lat="44.87332" lon="3.7395">
        <ele>1015.4</ele>
        <time>2021-08-08T10:29:55Z</time>
      </trkpt>
      <trkpt lat="44.87334" lon="3.73954">
        <ele>1015.6</ele>
        <time>2021-08-08T10:29:57Z</time>
      </trkpt>
      <trkpt lat="44.87335" lon="3.73958">
        <ele>1016</ele>
        <time>2021-08-08T10:29:59Z</time>
      </trkpt>
      <trkpt lat="44.87337" lon="3.73961">
        <ele>1016.3</ele>
        <time>2021-08-08T10:30:01Z</time>
      </trkpt>
      <trkpt lat="44.87339" lon="3.73965">
        <ele>1016.7</ele>
        <time>2021-08-08T10:30:03Z</time>
      </trkpt>
      <trkpt lat="44.8734" lon="3.73968">
        <ele>1017.2</ele>
        <time>2021-08-08T10:30:05Z</time>
      </trkpt>
      <trkpt lat="44.87342" lon="3.73971">
        <ele>1017.6</ele>
        <time>2021-08-08T10:30:07Z</time>
      </trkpt>
      <trkpt lat="44.87344" lon="3.73974">
        <ele>1018.1</ele>
        <time>2021-08-08T10:30:09Z</time>
      </trkpt>
      <trkpt lat="44.87346" lon="3.73978">
        <ele>1018.6</ele>
        <time>2021-08-08T10:30:11Z</time>
      </trkpt>
      <trkpt lat="44.87348" lon="3.73981">
        <ele>1019.2</ele>
        <time>2021-08-08T10:30:13Z</time>
      </trkpt>
      <trkpt lat="44.8735" lon="3.73984">
        <ele>1019.6</ele>
        <time>2021-08-08T10:30:15Z</time>
      </trkpt>
      <trkpt lat="44.87353" lon="3.73988">
        <ele>1020.2</ele>
        <time>2021-08-08T10:30:17Z</time>
      </trkpt>
      <trkpt lat="44.87355" lon="3.73992">
        <ele>1020.8</ele>
        <time>2021-08-08T10:30:19Z</time>
      </trkpt>
      <trkpt lat="44.87357" lon="3.73996">
        <ele>1021.2</ele>
        <time>2021-08-08T10:30:21Z</time>
      </trkpt>
      <trkpt lat="44.87359" lon="3.74001">
        <ele>1021.7</ele>
        <time>2021-08-08T10:30:23Z</time>
      </trkpt>
      <trkpt lat="44.8736" lon="3.74005">
        <ele>1022.2</ele>
        <time>2021-08-08T10:30:25Z</time>
      </trkpt>
      <trkpt lat="44.87361" lon="3.7401">
        <ele>1022.6</ele>
        <time>2021-08-08T10:30:27Z</time>
      </trkpt>
      <trkpt lat="44.87362" lon="3.74014">
        <ele>1022.9</ele>
        <time>2021-08-08T10:30:29Z</time>
      </trkpt>
      <trkpt lat="44.87363" lon="3.74019">
        <ele>1023.2</ele>
        <time>2021-08-08T10:30:31Z</time>
      </trkpt>
      <trkpt lat="44.87364" lon="3.74024">
        <ele>1023.5</ele>
        <time>2021-08-08T10:30:33Z</time>
      </trkpt>
      <trkpt lat="44.87364" lon="3.74029">
        <ele>1023.7</ele>
        <time>2021-08-08T10:30:35Z</time>
      </trkpt>
      <trkpt lat="44.87365" lon="3.74034">
        <ele>1023.9</ele>
        <time>2021-08-08T10:30:37Z</time>
      </trkpt>
      <trkpt lat="44.87365" lon="3.74038">
        <ele>1024.1</ele>
        <time>2021-08-08T10:30:39Z</time>
      </trkpt>
      <trkpt lat="44.87365" lon="3.74043">
        <ele>1024.1</ele>
        <time>2021-08-08T10:30:41Z</time>
      </trkpt>
      <trkpt lat="44.87366" lon="3.74049">
        <ele>1024.3</ele>
        <time>2021-08-08T10:30:43Z</time>
      </trkpt>
      <trkpt lat="44.87366" lon="3.74053">
        <ele>1024.4</ele>
        <time>2021-08-08T10:30:45Z</time>
      </trkpt>
      <trkpt lat="44.87366" lon="3.74058">
        <ele>1024.5</ele>
        <time>2021-08-08T10:30:47Z</time>
      </trkpt>
      <trkpt lat="44.87367" lon="3.74063">
        <ele>1024.7</ele>
        <time>2021-08-08T10:30:49Z</time>
      </trkpt>
      <trkpt lat="44.87367" lon="3.74068">
        <ele>1024.9</ele>
        <time>2021-08-08T10:30:51Z</time>
      </trkpt>
      <trkpt lat="44.87368" lon="3.74073">
        <ele>1025.2</ele>
        <time>2021-08-08T10:30:53Z</time>
      </trkpt>
      <trkpt lat="44.87369" lon="3.74079">
        <ele>1025.4</ele>
        <time>2021-08-08T10:30:55Z</time>
      </trkpt>
      <trkpt lat="44.8737" lon="3.74084">
        <ele>1025.6</ele>
        <time>2021-08-08T10:30:57Z</time>
      </trkpt>
      <trkpt lat="44.87371" lon="3.74089">
        <ele>1026</ele>
        <time>2021-08-08T10:30:59Z</time>
      </trkpt>
      <trkpt lat="44.87372" lon="3.74093">
        <ele>1026.5</ele>
        <time>2021-08-08T10:31:01Z</time>
      </trkpt>
      <trkpt lat="44.87374" lon="3.74098">
        <ele>1026.9</ele>
        <time>2021-08-08T10:31:03Z</time>
      </trkpt>
      <trkpt lat="44.87375" lon="3.74103">
        <ele>1027.4</ele>
        <time>2021-08-08T10:31:05Z</time>
      </trkpt>
      <trkpt lat="44.87377" lon="3.74108">
        <ele>1027.8</ele>
        <time>2021-08-08T10:31:07Z</time>
      </trkpt>
      <trkpt lat="44.87379" lon="3.74113">
        <ele>1028.3</ele>
        <time>2021-08-08T10:31:09Z</time>
      </trkpt>
      <trkpt lat="44.8738" lon="3.74117">
        <ele>1028.6</ele>
        <time>2021-08-08T10:31:11Z</time>
      </trkpt>
      <trkpt lat="44.87382" lon="3.74121">
        <ele>1029.1</ele>
        <time>2021-08-08T10:31:13Z</time>
      </trkpt>
      <trkpt lat="44.87383" lon="3.74126">
        <ele>1029.5</ele>
        <time>2021-08-08T10:31:15Z</time>
      </trkpt>
      <trkpt lat="44.87385" lon="3.7413">
        <ele>1029.9</ele>
        <time>2021-08-08T10:31:17Z</time>
      </trkpt>
      <trkpt lat="44.87387" lon="3.74135">
        <ele>1030.2</ele>
        <time>2021-08-08T10:31:19Z</time>
      </trkpt>
      <trkpt lat="44.87389" lon="3.74139">
        <ele>1030.5</ele>
        <time>2021-08-08T10:31:21Z</time>
      </trkpt>
      <trkpt lat="44.8739" lon="3.74144">
        <ele>1030.9</ele>
        <time>2021-08-08T10:31:23Z</time>
      </trkpt>
      <trkpt lat="44.87392" lon="3.74148">
        <ele>1031.2</ele>
        <time>2021-08-08T10:31:25Z</time>
      </trkpt>
      <trkpt lat="44.87393" lon="3.74154">
        <ele>1031.4</ele>
        <time>2021-08-08T10:31:27Z</time>
      </trkpt>
      <trkpt lat="44.87395" lon="3.74159">
        <ele>1031.7</ele>
        <time>2021-08-08T10:31:29Z</time>
      </trkpt>
      <trkpt lat="44.87396" lon="3.74164">
        <ele>1031.9</ele>
        <time>2021-08-08T10:31:31Z</time>
      </trkpt>
      <trkpt lat="44.87396" lon="3.74169">
        <ele>1032.2</ele>
        <time>2021-08-08T10:31:33Z</time>
      </trkpt>
      <trkpt lat="44.87396" lon="3.74174">
        <ele>1032.6</ele>
        <time>2021-08-08T10:31:35Z</time>
      </trkpt>
      <trkpt lat="44.87395" lon="3.74179">
        <ele>1033.1</ele>
        <time>2021-08-08T10:31:37Z</time>
      </trkpt>
      <trkpt lat="44.87395" lon="3.74184">
        <ele>1033.4</ele>
        <time>2021-08-08T10:31:39Z</time>
      </trkpt>
      <trkpt lat="44.87394" lon="3.74189">
        <ele>1033.8</ele>
        <time>2021-08-08T10:31:41Z</time>
      </trkpt>
      <trkpt lat="44.87392" lon="3.74194">
        <ele>1034.1</ele>
        <time>2021-08-08T10:31:43Z</time>
      </trkpt>
      <trkpt lat="44.87391" lon="3.74198">
        <ele>1034.4</ele>
        <time>2021-08-08T10:31:45Z</time>
      </trkpt>
      <trkpt lat="44.87389" lon="3.74203">
        <ele>1034.7</ele>
        <time>2021-08-08T10:31:47Z</time>
      </trkpt>
      <trkpt lat="44.87387" lon="3.74207">
        <ele>1034.9</ele>
        <time>2021-08-08T10:31:49Z</time>
      </trkpt>
      <trkpt lat="44.87383" lon="3.74211">
        <ele>1035</ele>
        <time>2021-08-08T10:31:51Z</time>
      </trkpt>
      <trkpt lat="44.87381" lon="3.74216">
        <ele>1035.4</ele>
        <time>2021-08-08T10:31:53Z</time>
      </trkpt>
      <trkpt lat="44.87378" lon="3.74219">
        <ele>1035.5</ele>
        <time>2021-08-08T10:31:55Z</time>
      </trkpt>
      <trkpt lat="44.87375" lon="3.74223">
        <ele>1035.7</ele>
        <time>2021-08-08T10:31:57Z</time>
      </trkpt>
      <trkpt lat="44.87372" lon="3.74226">
        <ele>1035.9</ele>
        <time>2021-08-08T10:31:59Z</time>
      </trkpt>
      <trkpt lat="44.87369" lon="3.7423">
        <ele>1036.1</ele>
        <time>2021-08-08T10:32:01Z</time>
      </trkpt>
      <trkpt lat="44.87366" lon="3.74233">
        <ele>1036.4</ele>
        <time>2021-08-08T10:32:03Z</time>
      </trkpt>
      <trkpt lat="44.87363" lon="3.74236">
        <ele>1036.6</ele>
        <time>2021-08-08T10:32:05Z</time>
      </trkpt>
      <trkpt lat="44.8736" lon="3.74239">
        <ele>1036.8</ele>
        <time>2021-08-08T10:32:07Z</time>
      </trkpt>
      <trkpt lat="44.87357" lon="3.74242">
        <ele>1036.9</ele>
        <time>2021-08-08T10:32:09Z</time>
      </trkpt>
      <trkpt lat="44.87353" lon="3.74245">
        <ele>1037.1</ele>
        <time>2021-08-08T10:32:11Z</time>
      </trkpt>
      <trkpt lat="44.8735" lon="3.74246">
        <ele>1037.1</ele>
        <time>2021-08-08T10:32:13Z</time>
      </trkpt>
      <trkpt lat="44.87346" lon="3.74247">
        <ele>1037.1</ele>
        <time>2021-08-08T10:32:15Z</time>
      </trkpt>
      <trkpt lat="44.87342" lon="3.74248">
        <ele>1037.1</ele>
        <time>2021-08-08T10:32:17Z</time>
      </trkpt>
      <trkpt lat="44.87339" lon="3.74248">
        <ele>1037</ele>
        <time>2021-08-08T10:32:19Z</time>
      </trkpt>
      <trkpt lat="44.87335" lon="3.74248">
        <ele>1036.8</ele>
        <time>2021-08-08T10:32:21Z</time>
      </trkpt>
      <trkpt lat="44.87331" lon="3.74248">
        <ele>1036.9</ele>
        <time>2021-08-08T10:32:23Z</time>
      </trkpt>
      <trkpt lat="44.87327" lon="3.74248">
        <ele>1037.1</ele>
        <time>2021-08-08T10:32:25Z</time>
      </trkpt>
      <trkpt lat="44.87323" lon="3.74246">
        <ele>1037.3</ele>
        <time>2021-08-08T10:32:27Z</time>
      </trkpt>
      <trkpt lat="44.87319" lon="3.74244">
        <ele>1037.2</ele>
        <time>2021-08-08T10:32:29Z</time>
      </trkpt>
      <trkpt lat="44.87316" lon="3.74242">
        <ele>1037.3</ele>
        <time>2021-08-08T10:32:31Z</time>
      </trkpt>
      <trkpt lat="44.87312" lon="3.74241">
        <ele>1037.3</ele>
        <time>2021-08-08T10:32:33Z</time>
      </trkpt>
      <trkpt lat="44.87309" lon="3.74239">
        <ele>1037.3</ele>
        <time>2021-08-08T10:32:35Z</time>
      </trkpt>
      <trkpt lat="44.87305" lon="3.74238">
        <ele>1037.4</ele>
        <time>2021-08-08T10:32:37Z</time>
      </trkpt>
      <trkpt lat="44.87302" lon="3.74235">
        <ele>1037.4</ele>
        <time>2021-08-08T10:32:39Z</time>
      </trkpt>
      <trkpt lat="44.87299" lon="3.74234">
        <ele>1037.5</ele>
        <time>2021-08-08T10:32:41Z</time>
      </trkpt>
      <trkpt lat="44.87296" lon="3.74233">
        <ele>1037.5</ele>
        <time>2021-08-08T10:32:43Z</time>
      </trkpt>
      <trkpt lat="44.87293" lon="3.74231">
        <ele>1037.5</ele>
        <time>2021-08-08T10:32:45Z</time>
      </trkpt>
      <trkpt lat="44.8729" lon="3.7423">
        <ele>1037.6</ele>
        <time>2021-08-08T10:32:47Z</time>
      </trkpt>
      <trkpt lat="44.87287" lon="3.74228">
        <ele>1037.6</ele>
        <time>2021-08-08T10:32:49Z</time>
      </trkpt>
      <trkpt lat="44.87284" lon="3.74227">
        <ele>1037.6</ele>
        <time>2021-08-08T10:32:51Z</time>
      </trkpt>
      <trkpt lat="44.87281" lon="3.74225">
        <ele>1037.6</ele>
        <time>2021-08-08T10:32:53Z</time>
      </trkpt>
      <trkpt lat="44.87277" lon="3.74223">
        <ele>1037.7</ele>
        <time>2021-08-08T10:32:55Z</time>
      </trkpt>
      <trkpt lat="44.87274" lon="3.74222">
        <ele>1037.8</ele>
        <time>2021-08-08T10:32:57Z</time>
      </trkpt>
      <trkpt lat="44.8727" lon="3.74221">
        <ele>1037.9</ele>
        <time>2021-08-08T10:32:59Z</time>
      </trkpt>
      <trkpt lat="44.87267" lon="3.7422">
        <ele>1038.1</ele>
        <time>2021-08-08T10:33:01Z</time>
      </trkpt>
      <trkpt lat="44.87263" lon="3.74219">
        <ele>1038.2</ele>
        <time>2021-08-08T10:33:03Z</time>
      </trkpt>
      <trkpt lat="44.8726" lon="3.74219">
        <ele>1038.5</ele>
        <time>2021-08-08T10:33:05Z</time>
      </trkpt>
      <trkpt lat="44.87256" lon="3.74218">
        <ele>1038.7</ele>
        <time>2021-08-08T10:33:07Z</time>
      </trkpt>
      <trkpt lat="44.87252" lon="3.74218">
        <ele>1039</ele>
        <time>2021-08-08T10:33:09Z</time>
      </trkpt>
      <trkpt lat="44.87248" lon="3.74218">
        <ele>1039.4</ele>
        <time>2021-08-08T10:33:11Z</time>
      </trkpt>
      <trkpt lat="44.87244" lon="3.74218">
        <ele>1040</ele>
        <time>2021-08-08T10:33:13Z</time>
      </trkpt>
      <trkpt lat="44.87241" lon="3.74217">
        <ele>1040.5</ele>
        <time>2021-08-08T10:33:15Z</time>
      </trkpt>
      <trkpt lat="44.87237" lon="3.74216">
        <ele>1041</ele>
        <time>2021-08-08T10:33:17Z</time>
      </trkpt>
      <trkpt lat="44.87233" lon="3.74216">
        <ele>1041.6</ele>
        <time>2021-08-08T10:33:19Z</time>
      </trkpt>
      <trkpt lat="44.87229" lon="3.74217">
        <ele>1042.2</ele>
        <time>2021-08-08T10:33:21Z</time>
      </trkpt>
      <trkpt lat="44.87225" lon="3.74216">
        <ele>1042.8</ele>
        <time>2021-08-08T10:33:23Z</time>
      </trkpt>
      <trkpt lat="44.87221" lon="3.74216">
        <ele>1043.4</ele>
        <time>2021-08-08T10:33:25Z</time>
      </trkpt>
      <trkpt lat="44.87218" lon="3.74216">
        <ele>1043.9</ele>
        <time>2021-08-08T10:33:27Z</time>
      </trkpt>
      <trkpt lat="44.87214" lon="3.74216">
        <ele>1044.5</ele>
        <time>2021-08-08T10:33:29Z</time>
      </trkpt>
      <trkpt lat="44.8721" lon="3.74216">
        <ele>1045.1</ele>
        <time>2021-08-08T10:33:31Z</time>
      </trkpt>
      <trkpt lat="44.87206" lon="3.74216">
        <ele>1045.7</ele>
        <time>2021-08-08T10:33:33Z</time>
      </trkpt>
      <trkpt lat="44.87203" lon="3.74216">
        <ele>1046.3</ele>
        <time>2021-08-08T10:33:35Z</time>
      </trkpt>
      <trkpt lat="44.87199" lon="3.74216">
        <ele>1046.9</ele>
        <time>2021-08-08T10:33:37Z</time>
      </trkpt>
      <trkpt lat="44.87195" lon="3.74216">
        <ele>1047.4</ele>
        <time>2021-08-08T10:33:39Z</time>
      </trkpt>
      <trkpt lat="44.87191" lon="3.74216">
        <ele>1048.1</ele>
        <time>2021-08-08T10:33:41Z</time>
      </trkpt>
      <trkpt lat="44.87188" lon="3.74216">
        <ele>1048.7</ele>
        <time>2021-08-08T10:33:43Z</time>
      </trkpt>
      <trkpt lat="44.87184" lon="3.74216">
        <ele>1049.2</ele>
        <time>2021-08-08T10:33:45Z</time>
      </trkpt>
      <trkpt lat="44.87181" lon="3.74216">
        <ele>1049.7</ele>
        <time>2021-08-08T10:33:47Z</time>
      </trkpt>
      <trkpt lat="44.87178" lon="3.74216">
        <ele>1050.2</ele>
        <time>2021-08-08T10:33:49Z</time>
      </trkpt>
      <trkpt lat="44.87174" lon="3.74215">
        <ele>1050.7</ele>
        <time>2021-08-08T10:33:51Z</time>
      </trkpt>
      <trkpt lat="44.8717" lon="3.74214">
        <ele>1051.1</ele>
        <time>2021-08-08T10:33:53Z</time>
      </trkpt>
      <trkpt lat="44.87166" lon="3.74212">
        <ele>1051.4</ele>
        <time>2021-08-08T10:33:55Z</time>
      </trkpt>
      <trkpt lat="44.87163" lon="3.7421">
        <ele>1051.5</ele>
        <time>2021-08-08T10:33:57Z</time>
      </trkpt>
      <trkpt lat="44.87159" lon="3.74208">
        <ele>1051.6</ele>
        <time>2021-08-08T10:33:59Z</time>
      </trkpt>
      <trkpt lat="44.87156" lon="3.74206">
        <ele>1051.7</ele>
        <time>2021-08-08T10:34:01Z</time>
      </trkpt>
      <trkpt lat="44.87152" lon="3.74203">
        <ele>1051.7</ele>
        <time>2021-08-08T10:34:03Z</time>
      </trkpt>
      <trkpt lat="44.87149" lon="3.74201">
        <ele>1051.9</ele>
        <time>2021-08-08T10:34:05Z</time>
      </trkpt>
      <trkpt lat="44.87145" lon="3.742">
        <ele>1052.1</ele>
        <time>2021-08-08T10:34:07Z</time>
      </trkpt>
      <trkpt lat="44.87142" lon="3.742">
        <ele>1052.3</ele>
        <time>2021-08-08T10:34:09Z</time>
      </trkpt>
      <trkpt lat="44.87138" lon="3.74199">
        <ele>1052.6</ele>
        <time>2021-08-08T10:34:11Z</time>
      </trkpt>
      <trkpt lat="44.87134" lon="3.742">
        <ele>1053.1</ele>
        <time>2021-08-08T10:34:13Z</time>
      </trkpt>
      <trkpt lat="44.8713" lon="3.74201">
        <ele>1053.5</ele>
        <time>2021-08-08T10:34:15Z</time>
      </trkpt>
      <trkpt lat="44.87127" lon="3.74203">
        <ele>1054</ele>
        <time>2021-08-08T10:34:17Z</time>
      </trkpt>
      <trkpt lat="44.87124" lon="3.74205">
        <ele>1054.5</ele>
        <time>2021-08-08T10:34:19Z</time>
      </trkpt>
      <trkpt lat="44.87122" lon="3.74209">
        <ele>1055.1</ele>
        <time>2021-08-08T10:34:21Z</time>
      </trkpt>
      <trkpt lat="44.8712" lon="3.74213">
        <ele>1055.7</ele>
        <time>2021-08-08T10:34:23Z</time>
      </trkpt>
      <trkpt lat="44.87118" lon="3.74218">
        <ele>1056.4</ele>
        <time>2021-08-08T10:34:25Z</time>
      </trkpt>
      <trkpt lat="44.87116" lon="3.74223">
        <ele>1057</ele>
        <time>2021-08-08T10:34:27Z</time>
      </trkpt>
      <trkpt lat="44.87116" lon="3.74228">
        <ele>1057.6</ele>
        <time>2021-08-08T10:34:29Z</time>
      </trkpt>
      <trkpt lat="44.87117" lon="3.74234">
        <ele>1058</ele>
        <time>2021-08-08T10:34:31Z</time>
      </trkpt>
      <trkpt lat="44.87117" lon="3.74239">
        <ele>1058.5</ele>
        <time>2021-08-08T10:34:33Z</time>
      </trkpt>
      <trkpt lat="44.87118" lon="3.74244">
        <ele>1058.9</ele>
        <time>2021-08-08T10:34:35Z</time>
      </trkpt>
      <trkpt lat="44.8712" lon="3.74249">
        <ele>1059.2</ele>
        <time>2021-08-08T10:34:37Z</time>
      </trkpt>
      <trkpt lat="44.87122" lon="3.74253">
        <ele>1059.5</ele>
        <time>2021-08-08T10:34:39Z</time>
      </trkpt>
      <trkpt lat="44.87125" lon="3.74257">
        <ele>1059.7</ele>
        <time>2021-08-08T10:34:41Z</time>
      </trkpt>
      <trkpt lat="44.87128" lon="3.74261">
        <ele>1059.9</ele>
        <time>2021-08-08T10:34:43Z</time>
      </trkpt>
      <trkpt lat="44.8713" lon="3.74265">
        <ele>1060.1</ele>
        <time>2021-08-08T10:34:45Z</time>
      </trkpt>
      <trkpt lat="44.87134" lon="3.74269">
        <ele>1060.2</ele>
        <time>2021-08-08T10:34:47Z</time>
      </trkpt>
      <trkpt lat="44.87136" lon="3.74273">
        <ele>1060.3</ele>
        <time>2021-08-08T10:34:49Z</time>
      </trkpt>
      <trkpt lat="44.87139" lon="3.74276">
        <ele>1060.4</ele>
        <time>2021-08-08T10:34:51Z</time>
      </trkpt>
      <trkpt lat="44.87141" lon="3.74281">
        <ele>1060.6</ele>
        <time>2021-08-08T10:34:53Z</time>
      </trkpt>
      <trkpt lat="44.87144" lon="3.74284">
        <ele>1060.7</ele>
        <time>2021-08-08T10:34:55Z</time>
      </trkpt>
      <trkpt lat="44.87147" lon="3.74287">
        <ele>1060.8</ele>
        <time>2021-08-08T10:34:57Z</time>
      </trkpt>
      <trkpt lat="44.87149" lon="3.74291">
        <ele>1061</ele>
        <time>2021-08-08T10:34:59Z</time>
      </trkpt>
      <trkpt lat="44.87152" lon="3.74295">
        <ele>1061.1</ele>
        <time>2021-08-08T10:35:01Z</time>
      </trkpt>
      <trkpt lat="44.87154" lon="3.74299">
        <ele>1061.2</ele>
        <time>2021-08-08T10:35:03Z</time>
      </trkpt>
      <trkpt lat="44.87156" lon="3.74302">
        <ele>1061.3</ele>
        <time>2021-08-08T10:35:05Z</time>
      </trkpt>
      <trkpt lat="44.87159" lon="3.74306">
        <ele>1061.4</ele>
        <time>2021-08-08T10:35:07Z</time>
      </trkpt>
      <trkpt lat="44.87162" lon="3.7431">
        <ele>1061.5</ele>
        <time>2021-08-08T10:35:09Z</time>
      </trkpt>
      <trkpt lat="44.87164" lon="3.74313">
        <ele>1061.5</ele>
        <time>2021-08-08T10:35:11Z</time>
      </trkpt>
      <trkpt lat="44.87167" lon="3.74317">
        <ele>1061.6</ele>
        <time>2021-08-08T10:35:13Z</time>
      </trkpt>
      <trkpt lat="44.87169" lon="3.74322">
        <ele>1061.6</ele>
        <time>2021-08-08T10:35:15Z</time>
      </trkpt>
      <trkpt lat="44.87172" lon="3.74326">
        <ele>1061.6</ele>
        <time>2021-08-08T10:35:17Z</time>
      </trkpt>
      <trkpt lat="44.87174" lon="3.7433">
        <ele>1061.6</ele>
        <time>2021-08-08T10:35:19Z</time>
      </trkpt>
      <trkpt lat="44.87176" lon="3.74334">
        <ele>1061.7</ele>
        <time>2021-08-08T10:35:21Z</time>
      </trkpt>
      <trkpt lat="44.87178" lon="3.74338">
        <ele>1061.8</ele>
        <time>2021-08-08T10:35:23Z</time>
      </trkpt>
      <trkpt lat="44.87181" lon="3.74342">
        <ele>1062</ele>
        <time>2021-08-08T10:35:25Z</time>
      </trkpt>
      <trkpt lat="44.87182" lon="3.74347">
        <ele>1062.2</ele>
        <time>2021-08-08T10:35:27Z</time>
      </trkpt>
      <trkpt lat="44.87184" lon="3.74351">
        <ele>1062.4</ele>
        <time>2021-08-08T10:35:29Z</time>
      </trkpt>
      <trkpt lat="44.87186" lon="3.74356">
        <ele>1062.7</ele>
        <time>2021-08-08T10:35:31Z</time>
      </trkpt>
      <trkpt lat="44.87188" lon="3.7436">
        <ele>1062.9</ele>
        <time>2021-08-08T10:35:33Z</time>
      </trkpt>
      <trkpt lat="44.8719" lon="3.74365">
        <ele>1063.1</ele>
        <time>2021-08-08T10:35:35Z</time>
      </trkpt>
      <trkpt lat="44.87191" lon="3.74369">
        <ele>1063.4</ele>
        <time>2021-08-08T10:35:37Z</time>
      </trkpt>
      <trkpt lat="44.87193" lon="3.74374">
        <ele>1063.5</ele>
        <time>2021-08-08T10:35:39Z</time>
      </trkpt>
      <trkpt lat="44.87195" lon="3.74378">
        <ele>1063.7</ele>
        <time>2021-08-08T10:35:41Z</time>
      </trkpt>
      <trkpt lat="44.87196" lon="3.74383">
        <ele>1063.8</ele>
        <time>2021-08-08T10:35:43Z</time>
      </trkpt>
      <trkpt lat="44.87198" lon="3.74387">
        <ele>1064</ele>
        <time>2021-08-08T10:35:45Z</time>
      </trkpt>
      <trkpt lat="44.872" lon="3.74392">
        <ele>1064.2</ele>
        <time>2021-08-08T10:35:47Z</time>
      </trkpt>
      <trkpt lat="44.87201" lon="3.74396">
        <ele>1064.3</ele>
        <time>2021-08-08T10:35:49Z</time>
      </trkpt>
      <trkpt lat="44.87203" lon="3.74401">
        <ele>1064.4</ele>
        <time>2021-08-08T10:35:51Z</time>
      </trkpt>
      <trkpt lat="44.87205" lon="3.74405">
        <ele>1064.5</ele>
        <time>2021-08-08T10:35:53Z</time>
      </trkpt>
      <trkpt lat="44.87206" lon="3.74409">
        <ele>1064.6</ele>
        <time>2021-08-08T10:35:55Z</time>
      </trkpt>
      <trkpt lat="44.87208" lon="3.74414">
        <ele>1064.8</ele>
        <time>2021-08-08T10:35:57Z</time>
      </trkpt>
      <trkpt lat="44.8721" lon="3.74418">
        <ele>1064.9</ele>
        <time>2021-08-08T10:35:59Z</time>
      </trkpt>
      <trkpt lat="44.87211" lon="3.74422">
        <ele>1065.2</ele>
        <time>2021-08-08T10:36:01Z</time>
      </trkpt>
      <trkpt lat="44.87213" lon="3.74426">
        <ele>1065.4</ele>
        <time>2021-08-08T10:36:03Z</time>
      </trkpt>
      <trkpt lat="44.87215" lon="3.74431">
        <ele>1065.7</ele>
        <time>2021-08-08T10:36:05Z</time>
      </trkpt>
      <trkpt lat="44.87216" lon="3.74435">
        <ele>1066</ele>
        <time>2021-08-08T10:36:07Z</time>
      </trkpt>
      <trkpt lat="44.87218" lon="3.74439">
        <ele>1066.3</ele>
        <time>2021-08-08T10:36:09Z</time>
      </trkpt>
      <trkpt lat="44.87219" lon="3.74443">
        <ele>1066.6</ele>
        <time>2021-08-08T10:36:11Z</time>
      </trkpt>
      <trkpt lat="44.87221" lon="3.74447">
        <ele>1066.8</ele>
        <time>2021-08-08T10:36:13Z</time>
      </trkpt>
      <trkpt lat="44.87222" lon="3.74452">
        <ele>1067.2</ele>
        <time>2021-08-08T10:36:15Z</time>
      </trkpt>
      <trkpt lat="44.87224" lon="3.74456">
        <ele>1067.6</ele>
        <time>2021-08-08T10:36:17Z</time>
      </trkpt>
      <trkpt lat="44.87225" lon="3.7446">
        <ele>1067.9</ele>
        <time>2021-08-08T10:36:19Z</time>
      </trkpt>
      <trkpt lat="44.87227" lon="3.74464">
        <ele>1068.2</ele>
        <time>2021-08-08T10:36:21Z</time>
      </trkpt>
      <trkpt lat="44.87229" lon="3.74468">
        <ele>1068.4</ele>
        <time>2021-08-08T10:36:23Z</time>
      </trkpt>
      <trkpt lat="44.87231" lon="3.74472">
        <ele>1068.7</ele>
        <time>2021-08-08T10:36:25Z</time>
      </trkpt>
      <trkpt lat="44.87233" lon="3.74476">
        <ele>1069</ele>
        <time>2021-08-08T10:36:27Z</time>
      </trkpt>
      <trkpt lat="44.87234" lon="3.7448">
        <ele>1069.3</ele>
        <time>2021-08-08T10:36:29Z</time>
      </trkpt>
      <trkpt lat="44.87236" lon="3.74484">
        <ele>1069.6</ele>
        <time>2021-08-08T10:36:31Z</time>
      </trkpt>
      <trkpt lat="44.87239" lon="3.74488">
        <ele>1069.8</ele>
        <time>2021-08-08T10:36:33Z</time>
      </trkpt>
      <trkpt lat="44.87241" lon="3.74491">
        <ele>1069.9</ele>
        <time>2021-08-08T10:36:35Z</time>
      </trkpt>
      <trkpt lat="44.87244" lon="3.74494">
        <ele>1070</ele>
        <time>2021-08-08T10:36:37Z</time>
      </trkpt>
      <trkpt lat="44.87246" lon="3.74497">
        <ele>1070.2</ele>
        <time>2021-08-08T10:36:39Z</time>
      </trkpt>
      <trkpt lat="44.87249" lon="3.745">
        <ele>1070.2</ele>
        <time>2021-08-08T10:36:41Z</time>
      </trkpt>
      <trkpt lat="44.87251" lon="3.74504">
        <ele>1070.3</ele>
        <time>2021-08-08T10:36:43Z</time>
      </trkpt>
      <trkpt lat="44.87255" lon="3.74506">
        <ele>1070.2</ele>
        <time>2021-08-08T10:36:45Z</time>
      </trkpt>
      <trkpt lat="44.87258" lon="3.7451">
        <ele>1070.4</ele>
        <time>2021-08-08T10:36:47Z</time>
      </trkpt>
      <trkpt lat="44.87261" lon="3.74513">
        <ele>1070.4</ele>
        <time>2021-08-08T10:36:49Z</time>
      </trkpt>
      <trkpt lat="44.87263" lon="3.74515">
        <ele>1070.4</ele>
        <time>2021-08-08T10:36:51Z</time>
      </trkpt>
      <trkpt lat="44.87267" lon="3.74518">
        <ele>1070.5</ele>
        <time>2021-08-08T10:36:53Z</time>
      </trkpt>
      <trkpt lat="44.8727" lon="3.74521">
        <ele>1070.5</ele>
        <time>2021-08-08T10:36:55Z</time>
      </trkpt>
      <trkpt lat="44.87272" lon="3.74524">
        <ele>1070.6</ele>
        <time>2021-08-08T10:36:57Z</time>
      </trkpt>
      <trkpt lat="44.87275" lon="3.74527">
        <ele>1070.7</ele>
        <time>2021-08-08T10:36:59Z</time>
      </trkpt>
      <trkpt lat="44.87278" lon="3.74529">
        <ele>1070.7</ele>
        <time>2021-08-08T10:37:01Z</time>
      </trkpt>
      <trkpt lat="44.87281" lon="3.74532">
        <ele>1070.8</ele>
        <time>2021-08-08T10:37:03Z</time>
      </trkpt>
      <trkpt lat="44.87284" lon="3.74535">
        <ele>1070.9</ele>
        <time>2021-08-08T10:37:05Z</time>
      </trkpt>
      <trkpt lat="44.87287" lon="3.74538">
        <ele>1070.9</ele>
        <time>2021-08-08T10:37:07Z</time>
      </trkpt>
      <trkpt lat="44.8729" lon="3.7454">
        <ele>1071</ele>
        <time>2021-08-08T10:37:09Z</time>
      </trkpt>
      <trkpt lat="44.87293" lon="3.74543">
        <ele>1071.1</ele>
        <time>2021-08-08T10:37:11Z</time>
      </trkpt>
      <trkpt lat="44.87295" lon="3.74546">
        <ele>1071.2</ele>
        <time>2021-08-08T10:37:13Z</time>
      </trkpt>
      <trkpt lat="44.87298" lon="3.74549">
        <ele>1071.3</ele>
        <time>2021-08-08T10:37:15Z</time>
      </trkpt>
      <trkpt lat="44.87301" lon="3.74551">
        <ele>1071.4</ele>
        <time>2021-08-08T10:37:17Z</time>
      </trkpt>
      <trkpt lat="44.87304" lon="3.74554">
        <ele>1071.5</ele>
        <time>2021-08-08T10:37:19Z</time>
      </trkpt>
      <trkpt lat="44.87307" lon="3.74557">
        <ele>1071.6</ele>
        <time>2021-08-08T10:37:21Z</time>
      </trkpt>
      <trkpt lat="44.8731" lon="3.7456">
        <ele>1071.8</ele>
        <time>2021-08-08T10:37:23Z</time>
      </trkpt>
      <trkpt lat="44.87312" lon="3.74562">
        <ele>1071.9</ele>
        <time>2021-08-08T10:37:25Z</time>
      </trkpt>
      <trkpt lat="44.87315" lon="3.74565">
        <ele>1072</ele>
        <time>2021-08-08T10:37:27Z</time>
      </trkpt>
      <trkpt lat="44.87318" lon="3.74568">
        <ele>1072.1</ele>
        <time>2021-08-08T10:37:29Z</time>
      </trkpt>
      <trkpt lat="44.87321" lon="3.7457">
        <ele>1072.2</ele>
        <time>2021-08-08T10:37:31Z</time>
      </trkpt>
      <trkpt lat="44.87324" lon="3.74572">
        <ele>1072.3</ele>
        <time>2021-08-08T10:37:33Z</time>
      </trkpt>
      <trkpt lat="44.87326" lon="3.74575">
        <ele>1072.4</ele>
        <time>2021-08-08T10:37:35Z</time>
      </trkpt>
      <trkpt lat="44.87329" lon="3.74577">
        <ele>1072.4</ele>
        <time>2021-08-08T10:37:37Z</time>
      </trkpt>
      <trkpt lat="44.87332" lon="3.74579">
        <ele>1072.4</ele>
        <time>2021-08-08T10:37:39Z</time>
      </trkpt>
      <trkpt lat="44.87336" lon="3.7458">
        <ele>1072.7</ele>
        <time>2021-08-08T10:37:41Z</time>
      </trkpt>
      <trkpt lat="44.87339" lon="3.74582">
        <ele>1072.9</ele>
        <time>2021-08-08T10:37:43Z</time>
      </trkpt>
      <trkpt lat="44.87342" lon="3.74583">
        <ele>1073.1</ele>
        <time>2021-08-08T10:37:45Z</time>
      </trkpt>
      <trkpt lat="44.87346" lon="3.74585">
        <ele>1073.3</ele>
        <time>2021-08-08T10:37:47Z</time>
      </trkpt>
      <trkpt lat="44.87349" lon="3.74587">
        <ele>1073.5</ele>
        <time>2021-08-08T10:37:49Z</time>
      </trkpt>
      <trkpt lat="44.87353" lon="3.74588">
        <ele>1073.7</ele>
        <time>2021-08-08T10:37:51Z</time>
      </trkpt>
      <trkpt lat="44.87356" lon="3.7459">
        <ele>1073.9</ele>
        <time>2021-08-08T10:37:53Z</time>
      </trkpt>
      <trkpt lat="44.87359" lon="3.74592">
        <ele>1074.2</ele>
        <time>2021-08-08T10:37:55Z</time>
      </trkpt>
      <trkpt lat="44.87362" lon="3.74595">
        <ele>1074.5</ele>
        <time>2021-08-08T10:37:57Z</time>
      </trkpt>
      <trkpt lat="44.87364" lon="3.74598">
        <ele>1074.9</ele>
        <time>2021-08-08T10:37:59Z</time>
      </trkpt>
      <trkpt lat="44.87366" lon="3.74602">
        <ele>1075.3</ele>
        <time>2021-08-08T10:38:01Z</time>
      </trkpt>
      <trkpt lat="44.87368" lon="3.74606">
        <ele>1075.7</ele>
        <time>2021-08-08T10:38:03Z</time>
      </trkpt>
      <trkpt lat="44.87369" lon="3.74611">
        <ele>1076.2</ele>
        <time>2021-08-08T10:38:05Z</time>
      </trkpt>
      <trkpt lat="44.8737" lon="3.74616">
        <ele>1076.7</ele>
        <time>2021-08-08T10:38:07Z</time>
      </trkpt>
      <trkpt lat="44.8737" lon="3.74621">
        <ele>1077.2</ele>
        <time>2021-08-08T10:38:09Z</time>
      </trkpt>
      <trkpt lat="44.8737" lon="3.74626">
        <ele>1077.7</ele>
        <time>2021-08-08T10:38:11Z</time>
      </trkpt>
      <trkpt lat="44.87368" lon="3.7463">
        <ele>1078.2</ele>
        <time>2021-08-08T10:38:13Z</time>
      </trkpt>
      <trkpt lat="44.87366" lon="3.74635">
        <ele>1078.6</ele>
        <time>2021-08-08T10:38:15Z</time>
      </trkpt>
      <trkpt lat="44.87364" lon="3.74639">
        <ele>1078.9</ele>
        <time>2021-08-08T10:38:17Z</time>
      </trkpt>
      <trkpt lat="44.87362" lon="3.74643">
        <ele>1079.3</ele>
        <time>2021-08-08T10:38:19Z</time>
      </trkpt>
      <trkpt lat="44.87359" lon="3.74646">
        <ele>1079.6</ele>
        <time>2021-08-08T10:38:21Z</time>
      </trkpt>
      <trkpt lat="44.87356" lon="3.74649">
        <ele>1079.8</ele>
        <time>2021-08-08T10:38:23Z</time>
      </trkpt>
      <trkpt lat="44.87352" lon="3.74651">
        <ele>1080</ele>
        <time>2021-08-08T10:38:25Z</time>
      </trkpt>
      <trkpt lat="44.87349" lon="3.74654">
        <ele>1080.1</ele>
        <time>2021-08-08T10:38:27Z</time>
      </trkpt>
      <trkpt lat="44.87346" lon="3.74656">
        <ele>1080.2</ele>
        <time>2021-08-08T10:38:29Z</time>
      </trkpt>
      <trkpt lat="44.87342" lon="3.74658">
        <ele>1080.3</ele>
        <time>2021-08-08T10:38:31Z</time>
      </trkpt>
      <trkpt lat="44.87338" lon="3.74659">
        <ele>1080.4</ele>
        <time>2021-08-08T10:38:33Z</time>
      </trkpt>
      <trkpt lat="44.87335" lon="3.7466">
        <ele>1080.4</ele>
        <time>2021-08-08T10:38:35Z</time>
      </trkpt>
      <trkpt lat="44.87331" lon="3.74661">
        <ele>1080.5</ele>
        <time>2021-08-08T10:38:37Z</time>
      </trkpt>
      <trkpt lat="44.87328" lon="3.74662">
        <ele>1080.7</ele>
        <time>2021-08-08T10:38:39Z</time>
      </trkpt>
      <trkpt lat="44.87324" lon="3.74663">
        <ele>1080.9</ele>
        <time>2021-08-08T10:38:41Z</time>
      </trkpt>
      <trkpt lat="44.87321" lon="3.74664">
        <ele>1081.1</ele>
        <time>2021-08-08T10:38:43Z</time>
      </trkpt>
      <trkpt lat="44.87317" lon="3.74665">
        <ele>1081.2</ele>
        <time>2021-08-08T10:38:45Z</time>
      </trkpt>
      <trkpt lat="44.87314" lon="3.74666">
        <ele>1081.4</ele>
        <time>2021-08-08T10:38:47Z</time>
      </trkpt>
      <trkpt lat="44.87311" lon="3.74668">
        <ele>1081.6</ele>
        <time>2021-08-08T10:38:49Z</time>
      </trkpt>
      <trkpt lat="44.87307" lon="3.74668">
        <ele>1081.7</ele>
        <time>2021-08-08T10:38:51Z</time>
      </trkpt>
      <trkpt lat="44.87303" lon="3.74669">
        <ele>1081.9</ele>
        <time>2021-08-08T10:38:53Z</time>
      </trkpt>
      <trkpt lat="44.873" lon="3.74669">
        <ele>1082</ele>
        <time>2021-08-08T10:38:55Z</time>
      </trkpt>
      <trkpt lat="44.87296" lon="3.74671">
        <ele>1082.2</ele>
        <time>2021-08-08T10:38:57Z</time>
      </trkpt>
      <trkpt lat="44.87293" lon="3.74672">
        <ele>1082.4</ele>
        <time>2021-08-08T10:38:59Z</time>
      </trkpt>
      <trkpt lat="44.87289" lon="3.74672">
        <ele>1082.5</ele>
        <time>2021-08-08T10:39:01Z</time>
      </trkpt>
      <trkpt lat="44.87286" lon="3.74673">
        <ele>1082.7</ele>
        <time>2021-08-08T10:39:03Z</time>
      </trkpt>
      <trkpt lat="44.87283" lon="3.74675">
        <ele>1082.9</ele>
        <time>2021-08-08T10:39:05Z</time>
      </trkpt>
      <trkpt lat="44.87279" lon="3.74676">
        <ele>1083.1</ele>
        <time>2021-08-08T10:39:07Z</time>
      </trkpt>
      <trkpt lat="44.87276" lon="3.74676">
        <ele>1083.2</ele>
        <time>2021-08-08T10:39:09Z</time>
      </trkpt>
      <trkpt lat="44.87273" lon="3.74677">
        <ele>1083.3</ele>
        <time>2021-08-08T10:39:11Z</time>
      </trkpt>
      <trkpt lat="44.8727" lon="3.74679">
        <ele>1083.5</ele>
        <time>2021-08-08T10:39:13Z</time>
      </trkpt>
      <trkpt lat="44.87266" lon="3.7468">
        <ele>1083.7</ele>
        <time>2021-08-08T10:39:15Z</time>
      </trkpt>
      <trkpt lat="44.87263" lon="3.7468">
        <ele>1083.8</ele>
        <time>2021-08-08T10:39:17Z</time>
      </trkpt>
      <trkpt lat="44.8726" lon="3.74681">
        <ele>1084</ele>
        <time>2021-08-08T10:39:19Z</time>
      </trkpt>
      <trkpt lat="44.87256" lon="3.74682">
        <ele>1084.2</ele>
        <time>2021-08-08T10:39:21Z</time>
      </trkpt>
      <trkpt lat="44.87253" lon="3.74683">
        <ele>1084.3</ele>
        <time>2021-08-08T10:39:23Z</time>
      </trkpt>
      <trkpt lat="44.8725" lon="3.74684">
        <ele>1084.5</ele>
        <time>2021-08-08T10:39:25Z</time>
      </trkpt>
      <trkpt lat="44.87246" lon="3.74685">
        <ele>1084.8</ele>
        <time>2021-08-08T10:39:27Z</time>
      </trkpt>
      <trkpt lat="44.87243" lon="3.74686">
        <ele>1085.3</ele>
        <time>2021-08-08T10:39:29Z</time>
      </trkpt>
      <trkpt lat="44.8724" lon="3.74687">
        <ele>1085.6</ele>
        <time>2021-08-08T10:39:31Z</time>
      </trkpt>
      <trkpt lat="44.87236" lon="3.74687">
        <ele>1086</ele>
        <time>2021-08-08T10:39:33Z</time>
      </trkpt>
      <trkpt lat="44.87233" lon="3.74688">
        <ele>1086.3</ele>
        <time>2021-08-08T10:39:35Z</time>
      </trkpt>
      <trkpt lat="44.8723" lon="3.74689">
        <ele>1086.7</ele>
        <time>2021-08-08T10:39:37Z</time>
      </trkpt>
      <trkpt lat="44.87227" lon="3.74691">
        <ele>1087.1</ele>
        <time>2021-08-08T10:39:39Z</time>
      </trkpt>
      <trkpt lat="44.87223" lon="3.74691">
        <ele>1087.4</ele>
        <time>2021-08-08T10:39:41Z</time>
      </trkpt>
      <trkpt lat="44.87219" lon="3.74693">
        <ele>1087.8</ele>
        <time>2021-08-08T10:39:43Z</time>
      </trkpt>
      <trkpt lat="44.87216" lon="3.74694">
        <ele>1088.2</ele>
        <time>2021-08-08T10:39:45Z</time>
      </trkpt>
      <trkpt lat="44.87212" lon="3.74695">
        <ele>1088.5</ele>
        <time>2021-08-08T10:39:47Z</time>
      </trkpt>
      <trkpt lat="44.87209" lon="3.74695">
        <ele>1088.8</ele>
        <time>2021-08-08T10:39:49Z</time>
      </trkpt>
      <trkpt lat="44.87206" lon="3.74696">
        <ele>1089.1</ele>
        <time>2021-08-08T10:39:51Z</time>
      </trkpt>
      <trkpt lat="44.87202" lon="3.74697">
        <ele>1089.4</ele>
        <time>2021-08-08T10:39:53Z</time>
      </trkpt>
      <trkpt lat="44.87199" lon="3.74698">
        <ele>1089.7</ele>
        <time>2021-08-08T10:39:55Z</time>
      </trkpt>
      <trkpt lat="44.87196" lon="3.74699">
        <ele>1090</ele>
        <time>2021-08-08T10:39:57Z</time>
      </trkpt>
      <trkpt lat="44.87193" lon="3.74699">
        <ele>1090.3</ele>
        <time>2021-08-08T10:39:59Z</time>
      </trkpt>
      <trkpt lat="44.8719" lon="3.74701">
        <ele>1090.6</ele>
        <time>2021-08-08T10:40:01Z</time>
      </trkpt>
      <trkpt lat="44.87186" lon="3.74702">
        <ele>1090.9</ele>
        <time>2021-08-08T10:40:03Z</time>
      </trkpt>
      <trkpt lat="44.87183" lon="3.74703">
        <ele>1091.2</ele>
        <time>2021-08-08T10:40:05Z</time>
      </trkpt>
      <trkpt lat="44.8718" lon="3.74704">
        <ele>1091.5</ele>
        <time>2021-08-08T10:40:07Z</time>
      </trkpt>
      <trkpt lat="44.87176" lon="3.74705">
        <ele>1091.7</ele>
        <time>2021-08-08T10:40:09Z</time>
      </trkpt>
      <trkpt lat="44.87173" lon="3.74705">
        <ele>1092</ele>
        <time>2021-08-08T10:40:11Z</time>
      </trkpt>
      <trkpt lat="44.8717" lon="3.74707">
        <ele>1092.2</ele>
        <time>2021-08-08T10:40:13Z</time>
      </trkpt>
      <trkpt lat="44.87167" lon="3.74708">
        <ele>1092.5</ele>
        <time>2021-08-08T10:40:15Z</time>
      </trkpt>
      <trkpt lat="44.87163" lon="3.7471">
        <ele>1092.6</ele>
        <time>2021-08-08T10:40:17Z</time>
      </trkpt>
      <trkpt lat="44.8716" lon="3.74712">
        <ele>1092.8</ele>
        <time>2021-08-08T10:40:19Z</time>
      </trkpt>
      <trkpt lat="44.87156" lon="3.74713">
        <ele>1092.9</ele>
        <time>2021-08-08T10:40:21Z</time>
      </trkpt>
      <trkpt lat="44.87153" lon="3.74716">
        <ele>1093</ele>
        <time>2021-08-08T10:40:23Z</time>
      </trkpt>
      <trkpt lat="44.8715" lon="3.74718">
        <ele>1093.2</ele>
        <time>2021-08-08T10:40:25Z</time>
      </trkpt>
      <trkpt lat="44.87147" lon="3.7472">
        <ele>1093.3</ele>
        <time>2021-08-08T10:40:27Z</time>
      </trkpt>
      <trkpt lat="44.87144" lon="3.74724">
        <ele>1093.4</ele>
        <time>2021-08-08T10:40:29Z</time>
      </trkpt>
      <trkpt lat="44.87141" lon="3.74727">
        <ele>1093.5</ele>
        <time>2021-08-08T10:40:31Z</time>
      </trkpt>
      <trkpt lat="44.87138" lon="3.7473">
        <ele>1093.6</ele>
        <time>2021-08-08T10:40:33Z</time>
      </trkpt>
      <trkpt lat="44.87135" lon="3.74733">
        <ele>1093.7</ele>
        <time>2021-08-08T10:40:35Z</time>
      </trkpt>
      <trkpt lat="44.87132" lon="3.74737">
        <ele>1093.8</ele>
        <time>2021-08-08T10:40:37Z</time>
      </trkpt>
      <trkpt lat="44.87129" lon="3.7474">
        <ele>1093.9</ele>
        <time>2021-08-08T10:40:39Z</time>
      </trkpt>
      <trkpt lat="44.87127" lon="3.74743">
        <ele>1093.9</ele>
        <time>2021-08-08T10:40:41Z</time>
      </trkpt>
      <trkpt lat="44.87125" lon="3.74746">
        <ele>1094</ele>
        <time>2021-08-08T10:40:43Z</time>
      </trkpt>
      <trkpt lat="44.87122" lon="3.74749">
        <ele>1094.1</ele>
        <time>2021-08-08T10:40:45Z</time>
      </trkpt>
      <trkpt lat="44.8712" lon="3.74752">
        <ele>1094.1</ele>
        <time>2021-08-08T10:40:47Z</time>
      </trkpt>
      <trkpt lat="44.87119" lon="3.74755">
        <ele>1094.1</ele>
        <time>2021-08-08T10:40:49Z</time>
      </trkpt>
      <trkpt lat="44.87117" lon="3.74758">
        <ele>1094.2</ele>
        <time>2021-08-08T10:40:51Z</time>
      </trkpt>
      <trkpt lat="44.87115" lon="3.7476">
        <ele>1094.2</ele>
        <time>2021-08-08T10:40:53Z</time>
      </trkpt>
      <trkpt lat="44.87113" lon="3.74763">
        <ele>1094.2</ele>
        <time>2021-08-08T10:40:55Z</time>
      </trkpt>
      <trkpt lat="44.87112" lon="3.74765">
        <ele>1094.2</ele>
        <time>2021-08-08T10:40:57Z</time>
      </trkpt>
      <trkpt lat="44.8711" lon="3.74767">
        <ele>1094.2</ele>
        <time>2021-08-08T10:40:59Z</time>
      </trkpt>
      <trkpt lat="44.87109" lon="3.74771">
        <ele>1094.2</ele>
        <time>2021-08-08T10:41:01Z</time>
      </trkpt>
      <trkpt lat="44.87107" lon="3.74773">
        <ele>1094.2</ele>
        <time>2021-08-08T10:41:03Z</time>
      </trkpt>
      <trkpt lat="44.87106" lon="3.74776">
        <ele>1094.2</ele>
        <time>2021-08-08T10:41:05Z</time>
      </trkpt>
      <trkpt lat="44.87104" lon="3.74779">
        <ele>1094.2</ele>
        <time>2021-08-08T10:41:07Z</time>
      </trkpt>
      <trkpt lat="44.87102" lon="3.74782">
        <ele>1094.1</ele>
        <time>2021-08-08T10:41:09Z</time>
      </trkpt>
      <trkpt lat="44.871" lon="3.74786">
        <ele>1094.1</ele>
        <time>2021-08-08T10:41:11Z</time>
      </trkpt>
      <trkpt lat="44.87099" lon="3.7479">
        <ele>1094</ele>
        <time>2021-08-08T10:41:13Z</time>
      </trkpt>
      <trkpt lat="44.87097" lon="3.74794">
        <ele>1094</ele>
        <time>2021-08-08T10:41:15Z</time>
      </trkpt>
      <trkpt lat="44.87094" lon="3.74799">
        <ele>1093.9</ele>
        <time>2021-08-08T10:41:17Z</time>
      </trkpt>
      <trkpt lat="44.87092" lon="3.74804">
        <ele>1093.8</ele>
        <time>2021-08-08T10:41:19Z</time>
      </trkpt>
      <trkpt lat="44.87089" lon="3.74808">
        <ele>1093.7</ele>
        <time>2021-08-08T10:41:21Z</time>
      </trkpt>
      <trkpt lat="44.87087" lon="3.74814">
        <ele>1093.5</ele>
        <time>2021-08-08T10:41:23Z</time>
      </trkpt>
      <trkpt lat="44.87085" lon="3.74819">
        <ele>1093.4</ele>
        <time>2021-08-08T10:41:25Z</time>
      </trkpt>
      <trkpt lat="44.87082" lon="3.74825">
        <ele>1093</ele>
        <time>2021-08-08T10:41:27Z</time>
      </trkpt>
      <trkpt lat="44.8708" lon="3.74832">
        <ele>1092.4</ele>
        <time>2021-08-08T10:41:29Z</time>
      </trkpt>
      <trkpt lat="44.87078" lon="3.74837">
        <ele>1092.1</ele>
        <time>2021-08-08T10:41:31Z</time>
      </trkpt>
      <trkpt lat="44.87076" lon="3.74844">
        <ele>1091.7</ele>
        <time>2021-08-08T10:41:33Z</time>
      </trkpt>
      <trkpt lat="44.87074" lon="3.7485">
        <ele>1091.5</ele>
        <time>2021-08-08T10:41:35Z</time>
      </trkpt>
      <trkpt lat="44.87072" lon="3.74856">
        <ele>1091.3</ele>
        <time>2021-08-08T10:41:37Z</time>
      </trkpt>
      <trkpt lat="44.8707" lon="3.74862">
        <ele>1091</ele>
        <time>2021-08-08T10:41:39Z</time>
      </trkpt>
      <trkpt lat="44.87069" lon="3.74867">
        <ele>1090.8</ele>
        <time>2021-08-08T10:41:41Z</time>
      </trkpt>
      <trkpt lat="44.87068" lon="3.74872">
        <ele>1090.6</ele>
        <time>2021-08-08T10:41:43Z</time>
      </trkpt>
      <trkpt lat="44.87066" lon="3.74878">
        <ele>1090.4</ele>
        <time>2021-08-08T10:41:45Z</time>
      </trkpt>
      <trkpt lat="44.87064" lon="3.74884">
        <ele>1090.2</ele>
        <time>2021-08-08T10:41:47Z</time>
      </trkpt>
      <trkpt lat="44.87063" lon="3.7489">
        <ele>1090.1</ele>
        <time>2021-08-08T10:41:49Z</time>
      </trkpt>
      <trkpt lat="44.87062" lon="3.74897">
        <ele>1089.9</ele>
        <time>2021-08-08T10:41:51Z</time>
      </trkpt>
      <trkpt lat="44.87061" lon="3.74903">
        <ele>1089.8</ele>
        <time>2021-08-08T10:41:53Z</time>
      </trkpt>
      <trkpt lat="44.8706" lon="3.7491">
        <ele>1089.7</ele>
        <time>2021-08-08T10:41:55Z</time>
      </trkpt>
      <trkpt lat="44.87058" lon="3.74916">
        <ele>1089.5</ele>
        <time>2021-08-08T10:41:57Z</time>
      </trkpt>
      <trkpt lat="44.87057" lon="3.74923">
        <ele>1089.5</ele>
        <time>2021-08-08T10:41:59Z</time>
      </trkpt>
      <trkpt lat="44.87056" lon="3.7493">
        <ele>1089.7</ele>
        <time>2021-08-08T10:42:01Z</time>
      </trkpt>
      <trkpt lat="44.87055" lon="3.74936">
        <ele>1089.8</ele>
        <time>2021-08-08T10:42:03Z</time>
      </trkpt>
      <trkpt lat="44.87054" lon="3.74943">
        <ele>1089.8</ele>
        <time>2021-08-08T10:42:05Z</time>
      </trkpt>
      <trkpt lat="44.87053" lon="3.7495">
        <ele>1089.9</ele>
        <time>2021-08-08T10:42:07Z</time>
      </trkpt>
      <trkpt lat="44.87052" lon="3.74957">
        <ele>1090</ele>
        <time>2021-08-08T10:42:09Z</time>
      </trkpt>
      <trkpt lat="44.87051" lon="3.74964">
        <ele>1090.1</ele>
        <time>2021-08-08T10:42:11Z</time>
      </trkpt>
      <trkpt lat="44.87051" lon="3.74972">
        <ele>1090.4</ele>
        <time>2021-08-08T10:42:13Z</time>
      </trkpt>
      <trkpt lat="44.8705" lon="3.7498">
        <ele>1090.6</ele>
        <time>2021-08-08T10:42:15Z</time>
      </trkpt>
      <trkpt lat="44.8705" lon="3.74988">
        <ele>1090.9</ele>
        <time>2021-08-08T10:42:17Z</time>
      </trkpt>
      <trkpt lat="44.87049" lon="3.74997">
        <ele>1091.2</ele>
        <time>2021-08-08T10:42:19Z</time>
      </trkpt>
      <trkpt lat="44.87048" lon="3.75005">
        <ele>1091.3</ele>
        <time>2021-08-08T10:42:21Z</time>
      </trkpt>
      <trkpt lat="44.87048" lon="3.75013">
        <ele>1091.5</ele>
        <time>2021-08-08T10:42:23Z</time>
      </trkpt>
      <trkpt lat="44.87047" lon="3.75021">
        <ele>1091.8</ele>
        <time>2021-08-08T10:42:25Z</time>
      </trkpt>
      <trkpt lat="44.87047" lon="3.7503">
        <ele>1092</ele>
        <time>2021-08-08T10:42:27Z</time>
      </trkpt>
      <trkpt lat="44.87046" lon="3.75039">
        <ele>1092.3</ele>
        <time>2021-08-08T10:42:29Z</time>
      </trkpt>
      <trkpt lat="44.87046" lon="3.75048">
        <ele>1092.6</ele>
        <time>2021-08-08T10:42:31Z</time>
      </trkpt>
      <trkpt lat="44.87046" lon="3.75057">
        <ele>1092.8</ele>
        <time>2021-08-08T10:42:33Z</time>
      </trkpt>
      <trkpt lat="44.87046" lon="3.75066">
        <ele>1093.2</ele>
        <time>2021-08-08T10:42:35Z</time>
      </trkpt>
      <trkpt lat="44.87045" lon="3.75075">
        <ele>1093.4</ele>
        <time>2021-08-08T10:42:37Z</time>
      </trkpt>
      <trkpt lat="44.87045" lon="3.75083">
        <ele>1093.6</ele>
        <time>2021-08-08T10:42:39Z</time>
      </trkpt>
      <trkpt lat="44.87044" lon="3.75093">
        <ele>1093.9</ele>
        <time>2021-08-08T10:42:41Z</time>
      </trkpt>
      <trkpt lat="44.87043" lon="3.75102">
        <ele>1094.3</ele>
        <time>2021-08-08T10:42:43Z</time>
      </trkpt>
      <trkpt lat="44.87042" lon="3.7511">
        <ele>1094.5</ele>
        <time>2021-08-08T10:42:45Z</time>
      </trkpt>
      <trkpt lat="44.87041" lon="3.75119">
        <ele>1094.8</ele>
        <time>2021-08-08T10:42:47Z</time>
      </trkpt>
      <trkpt lat="44.8704" lon="3.75128">
        <ele>1095.1</ele>
        <time>2021-08-08T10:42:49Z</time>
      </trkpt>
      <trkpt lat="44.87039" lon="3.75136">
        <ele>1095.3</ele>
        <time>2021-08-08T10:42:51Z</time>
      </trkpt>
      <trkpt lat="44.87038" lon="3.75145">
        <ele>1095.6</ele>
        <time>2021-08-08T10:42:53Z</time>
      </trkpt>
      <trkpt lat="44.87036" lon="3.75153">
        <ele>1095.8</ele>
        <time>2021-08-08T10:42:55Z</time>
      </trkpt>
      <trkpt lat="44.87035" lon="3.7516">
        <ele>1095.9</ele>
        <time>2021-08-08T10:42:57Z</time>
      </trkpt>
      <trkpt lat="44.87033" lon="3.75168">
        <ele>1096</ele>
        <time>2021-08-08T10:42:59Z</time>
      </trkpt>
      <trkpt lat="44.87032" lon="3.75176">
        <ele>1095.8</ele>
        <time>2021-08-08T10:43:01Z</time>
      </trkpt>
      <trkpt lat="44.87031" lon="3.75184">
        <ele>1095.6</ele>
        <time>2021-08-08T10:43:03Z</time>
      </trkpt>
      <trkpt lat="44.8703" lon="3.75191">
        <ele>1095.4</ele>
        <time>2021-08-08T10:43:05Z</time>
      </trkpt>
      <trkpt lat="44.87029" lon="3.75198">
        <ele>1095.3</ele>
        <time>2021-08-08T10:43:07Z</time>
      </trkpt>
      <trkpt lat="44.87029" lon="3.75204">
        <ele>1095.2</ele>
        <time>2021-08-08T10:43:09Z</time>
      </trkpt>
      <trkpt lat="44.87029" lon="3.75206">
        <ele>1095.2</ele>
        <time>2021-08-08T10:43:11Z</time>
      </trkpt>
      <trkpt lat="44.87029" lon="3.75208">
        <ele>1095.2</ele>
        <time>2021-08-08T10:43:13Z</time>
      </trkpt>
      <trkpt lat="44.87029" lon="3.75208">
        <ele>1095.2</ele>
        <time>2021-08-08T10:43:15Z</time>
      </trkpt>
      <trkpt lat="44.87029" lon="3.75208">
        <ele>1095.2</ele>
        <time>2021-08-08T10:43:17Z</time>
      </trkpt>
      <trkpt lat="44.87029" lon="3.75208">
        <ele>1095.2</ele>
        <time>2021-08-08T10:43:19Z</time>
      </trkpt>
      <trkpt lat="44.87026" lon="3.75247">
        <ele>1094.7</ele>
        <time>2021-08-08T10:45:33Z</time>
      </trkpt>
      <trkpt lat="44.87023" lon="3.75262">
        <ele>1094.2</ele>
        <time>2021-08-08T10:45:35Z</time>
      </trkpt>
      <trkpt lat="44.87017" lon="3.75278">
        <ele>1093.2</ele>
        <time>2021-08-08T10:45:37Z</time>
      </trkpt>
      <trkpt lat="44.87008" lon="3.75292">
        <ele>1092</ele>
        <time>2021-08-08T10:45:39Z</time>
      </trkpt>
      <trkpt lat="44.86996" lon="3.75303">
        <ele>1091.5</ele>
        <time>2021-08-08T10:45:41Z</time>
      </trkpt>
      <trkpt lat="44.86985" lon="3.75312">
        <ele>1092.7</ele>
        <time>2021-08-08T10:45:43Z</time>
      </trkpt>
      <trkpt lat="44.86974" lon="3.75316">
        <ele>1093.7</ele>
        <time>2021-08-08T10:45:45Z</time>
      </trkpt>
      <trkpt lat="44.86964" lon="3.75314">
        <ele>1094.4</ele>
        <time>2021-08-08T10:45:47Z</time>
      </trkpt>
      <trkpt lat="44.86956" lon="3.75306">
        <ele>1094.5</ele>
        <time>2021-08-08T10:45:49Z</time>
      </trkpt>
      <trkpt lat="44.86951" lon="3.75298">
        <ele>1094.4</ele>
        <time>2021-08-08T10:45:51Z</time>
      </trkpt>
      <trkpt lat="44.86945" lon="3.75291">
        <ele>1094.2</ele>
        <time>2021-08-08T10:45:53Z</time>
      </trkpt>
      <trkpt lat="44.86941" lon="3.75285">
        <ele>1094</ele>
        <time>2021-08-08T10:45:55Z</time>
      </trkpt>
      <trkpt lat="44.86937" lon="3.7528">
        <ele>1093.8</ele>
        <time>2021-08-08T10:45:57Z</time>
      </trkpt>
      <trkpt lat="44.86934" lon="3.75276">
        <ele>1093.7</ele>
        <time>2021-08-08T10:45:59Z</time>
      </trkpt>
      <trkpt lat="44.86931" lon="3.75273">
        <ele>1093.6</ele>
        <time>2021-08-08T10:46:01Z</time>
      </trkpt>
      <trkpt lat="44.86927" lon="3.75269">
        <ele>1093.4</ele>
        <time>2021-08-08T10:46:03Z</time>
      </trkpt>
      <trkpt lat="44.86923" lon="3.75265">
        <ele>1093.2</ele>
        <time>2021-08-08T10:46:05Z</time>
      </trkpt>
      <trkpt lat="44.86919" lon="3.75262">
        <ele>1093.1</ele>
        <time>2021-08-08T10:46:07Z</time>
      </trkpt>
      <trkpt lat="44.86915" lon="3.75259">
        <ele>1093.1</ele>
        <time>2021-08-08T10:46:09Z</time>
      </trkpt>
      <trkpt lat="44.86911" lon="3.75255">
        <ele>1093.3</ele>
        <time>2021-08-08T10:46:11Z</time>
      </trkpt>
      <trkpt lat="44.86907" lon="3.75252">
        <ele>1093.5</ele>
        <time>2021-08-08T10:46:13Z</time>
      </trkpt>
      <trkpt lat="44.86903" lon="3.75248">
        <ele>1093.9</ele>
        <time>2021-08-08T10:46:15Z</time>
      </trkpt>
      <trkpt lat="44.86899" lon="3.75245">
        <ele>1094.4</ele>
        <time>2021-08-08T10:46:17Z</time>
      </trkpt>
      <trkpt lat="44.86896" lon="3.75242">
        <ele>1094.8</ele>
        <time>2021-08-08T10:46:19Z</time>
      </trkpt>
      <trkpt lat="44.86892" lon="3.75238">
        <ele>1095.2</ele>
        <time>2021-08-08T10:46:21Z</time>
      </trkpt>
      <trkpt lat="44.86888" lon="3.75236">
        <ele>1095.6</ele>
        <time>2021-08-08T10:46:23Z</time>
      </trkpt>
      <trkpt lat="44.86885" lon="3.75233">
        <ele>1096</ele>
        <time>2021-08-08T10:46:25Z</time>
      </trkpt>
      <trkpt lat="44.86882" lon="3.7523">
        <ele>1096.3</ele>
        <time>2021-08-08T10:46:27Z</time>
      </trkpt>
      <trkpt lat="44.86878" lon="3.75227">
        <ele>1096.6</ele>
        <time>2021-08-08T10:46:29Z</time>
      </trkpt>
      <trkpt lat="44.86875" lon="3.75224">
        <ele>1097</ele>
        <time>2021-08-08T10:46:31Z</time>
      </trkpt>
      <trkpt lat="44.86871" lon="3.75222">
        <ele>1097.4</ele>
        <time>2021-08-08T10:46:33Z</time>
      </trkpt>
      <trkpt lat="44.86867" lon="3.7522">
        <ele>1097.8</ele>
        <time>2021-08-08T10:46:35Z</time>
      </trkpt>
      <trkpt lat="44.86863" lon="3.75218">
        <ele>1098.2</ele>
        <time>2021-08-08T10:46:37Z</time>
      </trkpt>
      <trkpt lat="44.8686" lon="3.75217">
        <ele>1098.6</ele>
        <time>2021-08-08T10:46:39Z</time>
      </trkpt>
      <trkpt lat="44.86856" lon="3.75216">
        <ele>1099</ele>
        <time>2021-08-08T10:46:41Z</time>
      </trkpt>
      <trkpt lat="44.86853" lon="3.75216">
        <ele>1099.5</ele>
        <time>2021-08-08T10:46:43Z</time>
      </trkpt>
      <trkpt lat="44.86849" lon="3.75216">
        <ele>1099.9</ele>
        <time>2021-08-08T10:46:45Z</time>
      </trkpt>
      <trkpt lat="44.86845" lon="3.75216">
        <ele>1100.4</ele>
        <time>2021-08-08T10:46:47Z</time>
      </trkpt>
      <trkpt lat="44.86842" lon="3.75218">
        <ele>1101</ele>
        <time>2021-08-08T10:46:49Z</time>
      </trkpt>
      <trkpt lat="44.86838" lon="3.75218">
        <ele>1101.5</ele>
        <time>2021-08-08T10:46:51Z</time>
      </trkpt>
      <trkpt lat="44.86835" lon="3.7522">
        <ele>1102</ele>
        <time>2021-08-08T10:46:53Z</time>
      </trkpt>
      <trkpt lat="44.86831" lon="3.75222">
        <ele>1102.2</ele>
        <time>2021-08-08T10:46:55Z</time>
      </trkpt>
      <trkpt lat="44.86827" lon="3.75225">
        <ele>1102.2</ele>
        <time>2021-08-08T10:46:57Z</time>
      </trkpt>
      <trkpt lat="44.86824" lon="3.75227">
        <ele>1102.2</ele>
        <time>2021-08-08T10:46:59Z</time>
      </trkpt>
      <trkpt lat="44.86821" lon="3.75231">
        <ele>1102.2</ele>
        <time>2021-08-08T10:47:01Z</time>
      </trkpt>
      <trkpt lat="44.86818" lon="3.75234">
        <ele>1102.3</ele>
        <time>2021-08-08T10:47:03Z</time>
      </trkpt>
      <trkpt lat="44.86815" lon="3.75237">
        <ele>1102.3</ele>
        <time>2021-08-08T10:47:05Z</time>
      </trkpt>
      <trkpt lat="44.86813" lon="3.75241">
        <ele>1102.5</ele>
        <time>2021-08-08T10:47:07Z</time>
      </trkpt>
      <trkpt lat="44.86811" lon="3.75244">
        <ele>1102.6</ele>
        <time>2021-08-08T10:47:09Z</time>
      </trkpt>
      <trkpt lat="44.86808" lon="3.75248">
        <ele>1102.6</ele>
        <time>2021-08-08T10:47:11Z</time>
      </trkpt>
      <trkpt lat="44.86805" lon="3.75253">
        <ele>1102.8</ele>
        <time>2021-08-08T10:47:13Z</time>
      </trkpt>
      <trkpt lat="44.86803" lon="3.75257">
        <ele>1103</ele>
        <time>2021-08-08T10:47:15Z</time>
      </trkpt>
      <trkpt lat="44.868" lon="3.75261">
        <ele>1103</ele>
        <time>2021-08-08T10:47:17Z</time>
      </trkpt>
      <trkpt lat="44.86797" lon="3.75264">
        <ele>1103.1</ele>
        <time>2021-08-08T10:47:19Z</time>
      </trkpt>
      <trkpt lat="44.86794" lon="3.75269">
        <ele>1103.3</ele>
        <time>2021-08-08T10:47:21Z</time>
      </trkpt>
      <trkpt lat="44.8679" lon="3.75273">
        <ele>1103.5</ele>
        <time>2021-08-08T10:47:23Z</time>
      </trkpt>
      <trkpt lat="44.86787" lon="3.75276">
        <ele>1103.5</ele>
        <time>2021-08-08T10:47:25Z</time>
      </trkpt>
      <trkpt lat="44.86783" lon="3.7528">
        <ele>1103.7</ele>
        <time>2021-08-08T10:47:27Z</time>
      </trkpt>
      <trkpt lat="44.86779" lon="3.75285">
        <ele>1103.9</ele>
        <time>2021-08-08T10:47:29Z</time>
      </trkpt>
      <trkpt lat="44.86775" lon="3.75289">
        <ele>1104.1</ele>
        <time>2021-08-08T10:47:31Z</time>
      </trkpt>
      <trkpt lat="44.86771" lon="3.75294">
        <ele>1104.3</ele>
        <time>2021-08-08T10:47:33Z</time>
      </trkpt>
      <trkpt lat="44.86767" lon="3.75298">
        <ele>1104.5</ele>
        <time>2021-08-08T10:47:35Z</time>
      </trkpt>
      <trkpt lat="44.86763" lon="3.75302">
        <ele>1104.7</ele>
        <time>2021-08-08T10:47:37Z</time>
      </trkpt>
      <trkpt lat="44.8676" lon="3.75306">
        <ele>1104.9</ele>
        <time>2021-08-08T10:47:39Z</time>
      </trkpt>
      <trkpt lat="44.86756" lon="3.7531">
        <ele>1105.2</ele>
        <time>2021-08-08T10:47:41Z</time>
      </trkpt>
      <trkpt lat="44.86752" lon="3.75314">
        <ele>1105.4</ele>
        <time>2021-08-08T10:47:43Z</time>
      </trkpt>
      <trkpt lat="44.86748" lon="3.75319">
        <ele>1105.8</ele>
        <time>2021-08-08T10:47:45Z</time>
      </trkpt>
      <trkpt lat="44.86744" lon="3.75323">
        <ele>1105.9</ele>
        <time>2021-08-08T10:47:47Z</time>
      </trkpt>
      <trkpt lat="44.8674" lon="3.75328">
        <ele>1106.1</ele>
        <time>2021-08-08T10:47:49Z</time>
      </trkpt>
      <trkpt lat="44.86737" lon="3.75332">
        <ele>1106.3</ele>
        <time>2021-08-08T10:47:51Z</time>
      </trkpt>
      <trkpt lat="44.86733" lon="3.75337">
        <ele>1106.4</ele>
        <time>2021-08-08T10:47:53Z</time>
      </trkpt>
      <trkpt lat="44.86729" lon="3.75341">
        <ele>1106.4</ele>
        <time>2021-08-08T10:47:55Z</time>
      </trkpt>
      <trkpt lat="44.86725" lon="3.75345">
        <ele>1106.4</ele>
        <time>2021-08-08T10:47:57Z</time>
      </trkpt>
      <trkpt lat="44.86721" lon="3.7535">
        <ele>1106.4</ele>
        <time>2021-08-08T10:47:59Z</time>
      </trkpt>
      <trkpt lat="44.86718" lon="3.75356">
        <ele>1106.5</ele>
        <time>2021-08-08T10:48:01Z</time>
      </trkpt>
      <trkpt lat="44.86714" lon="3.7536">
        <ele>1106.6</ele>
        <time>2021-08-08T10:48:03Z</time>
      </trkpt>
      <trkpt lat="44.8671" lon="3.75365">
        <ele>1106.6</ele>
        <time>2021-08-08T10:48:05Z</time>
      </trkpt>
      <trkpt lat="44.86706" lon="3.7537">
        <ele>1106.6</ele>
        <time>2021-08-08T10:48:07Z</time>
      </trkpt>
      <trkpt lat="44.86701" lon="3.75375">
        <ele>1106.7</ele>
        <time>2021-08-08T10:48:09Z</time>
      </trkpt>
      <trkpt lat="44.86697" lon="3.7538">
        <ele>1106.7</ele>
        <time>2021-08-08T10:48:11Z</time>
      </trkpt>
      <trkpt lat="44.86692" lon="3.75385">
        <ele>1106.7</ele>
        <time>2021-08-08T10:48:13Z</time>
      </trkpt>
      <trkpt lat="44.86689" lon="3.7539">
        <ele>1106.8</ele>
        <time>2021-08-08T10:48:15Z</time>
      </trkpt>
      <trkpt lat="44.86685" lon="3.75395">
        <ele>1106.8</ele>
        <time>2021-08-08T10:48:17Z</time>
      </trkpt>
      <trkpt lat="44.86682" lon="3.75399">
        <ele>1106.9</ele>
        <time>2021-08-08T10:48:19Z</time>
      </trkpt>
      <trkpt lat="44.86678" lon="3.75404">
        <ele>1106.9</ele>
        <time>2021-08-08T10:48:21Z</time>
      </trkpt>
      <trkpt lat="44.86675" lon="3.75408">
        <ele>1107</ele>
        <time>2021-08-08T10:48:23Z</time>
      </trkpt>
      <trkpt lat="44.86671" lon="3.75413">
        <ele>1107</ele>
        <time>2021-08-08T10:48:25Z</time>
      </trkpt>
      <trkpt lat="44.86667" lon="3.75418">
        <ele>1107.1</ele>
        <time>2021-08-08T10:48:27Z</time>
      </trkpt>
      <trkpt lat="44.86663" lon="3.75422">
        <ele>1107.2</ele>
        <time>2021-08-08T10:48:29Z</time>
      </trkpt>
      <trkpt lat="44.86658" lon="3.75427">
        <ele>1107.5</ele>
        <time>2021-08-08T10:48:31Z</time>
      </trkpt>
      <trkpt lat="44.86654" lon="3.75433">
        <ele>1107.7</ele>
        <time>2021-08-08T10:48:33Z</time>
      </trkpt>
      <trkpt lat="44.86649" lon="3.75438">
        <ele>1107.9</ele>
        <time>2021-08-08T10:48:35Z</time>
      </trkpt>
      <trkpt lat="44.86645" lon="3.75443">
        <ele>1108.1</ele>
        <time>2021-08-08T10:48:37Z</time>
      </trkpt>
      <trkpt lat="44.86641" lon="3.7545">
        <ele>1108.4</ele>
        <time>2021-08-08T10:48:39Z</time>
      </trkpt>
      <trkpt lat="44.86636" lon="3.75455">
        <ele>1108.6</ele>
        <time>2021-08-08T10:48:41Z</time>
      </trkpt>
      <trkpt lat="44.86632" lon="3.7546">
        <ele>1108.8</ele>
        <time>2021-08-08T10:48:43Z</time>
      </trkpt>
      <trkpt lat="44.86627" lon="3.75465">
        <ele>1109</ele>
        <time>2021-08-08T10:48:45Z</time>
      </trkpt>
      <trkpt lat="44.86623" lon="3.75471">
        <ele>1109.1</ele>
        <time>2021-08-08T10:48:47Z</time>
      </trkpt>
      <trkpt lat="44.86619" lon="3.75476">
        <ele>1109.3</ele>
        <time>2021-08-08T10:48:49Z</time>
      </trkpt>
      <trkpt lat="44.86614" lon="3.7548">
        <ele>1109.4</ele>
        <time>2021-08-08T10:48:51Z</time>
      </trkpt>
      <trkpt lat="44.8661" lon="3.75486">
        <ele>1109.6</ele>
        <time>2021-08-08T10:48:53Z</time>
      </trkpt>
      <trkpt lat="44.86606" lon="3.75491">
        <ele>1109.7</ele>
        <time>2021-08-08T10:48:55Z</time>
      </trkpt>
      <trkpt lat="44.86602" lon="3.75496">
        <ele>1109.9</ele>
        <time>2021-08-08T10:48:57Z</time>
      </trkpt>
      <trkpt lat="44.86597" lon="3.755">
        <ele>1110</ele>
        <time>2021-08-08T10:48:59Z</time>
      </trkpt>
      <trkpt lat="44.86593" lon="3.75506">
        <ele>1110</ele>
        <time>2021-08-08T10:49:01Z</time>
      </trkpt>
      <trkpt lat="44.86589" lon="3.75511">
        <ele>1110</ele>
        <time>2021-08-08T10:49:03Z</time>
      </trkpt>
      <trkpt lat="44.86583" lon="3.75515">
        <ele>1110</ele>
        <time>2021-08-08T10:49:05Z</time>
      </trkpt>
      <trkpt lat="44.86578" lon="3.7552">
        <ele>1110</ele>
        <time>2021-08-08T10:49:07Z</time>
      </trkpt>
      <trkpt lat="44.86573" lon="3.75525">
        <ele>1109.9</ele>
        <time>2021-08-08T10:49:09Z</time>
      </trkpt>
      <trkpt lat="44.86568" lon="3.75529">
        <ele>1109.9</ele>
        <time>2021-08-08T10:49:11Z</time>
      </trkpt>
      <trkpt lat="44.86563" lon="3.75534">
        <ele>1109.9</ele>
        <time>2021-08-08T10:49:13Z</time>
      </trkpt>
      <trkpt lat="44.86558" lon="3.75539">
        <ele>1109.8</ele>
        <time>2021-08-08T10:49:15Z</time>
      </trkpt>
      <trkpt lat="44.86552" lon="3.75542">
        <ele>1109.8</ele>
        <time>2021-08-08T10:49:17Z</time>
      </trkpt>
      <trkpt lat="44.86547" lon="3.75546">
        <ele>1109.8</ele>
        <time>2021-08-08T10:49:19Z</time>
      </trkpt>
      <trkpt lat="44.86542" lon="3.75552">
        <ele>1109.8</ele>
        <time>2021-08-08T10:49:21Z</time>
      </trkpt>
      <trkpt lat="44.86536" lon="3.75557">
        <ele>1109.8</ele>
        <time>2021-08-08T10:49:23Z</time>
      </trkpt>
      <trkpt lat="44.86531" lon="3.75561">
        <ele>1109.8</ele>
        <time>2021-08-08T10:49:25Z</time>
      </trkpt>
      <trkpt lat="44.86526" lon="3.75565">
        <ele>1109.8</ele>
        <time>2021-08-08T10:49:27Z</time>
      </trkpt>
      <trkpt lat="44.8652" lon="3.7557">
        <ele>1109.9</ele>
        <time>2021-08-08T10:49:29Z</time>
      </trkpt>
      <trkpt lat="44.86515" lon="3.75575">
        <ele>1109.9</ele>
        <time>2021-08-08T10:49:31Z</time>
      </trkpt>
      <trkpt lat="44.86509" lon="3.7558">
        <ele>1110</ele>
        <time>2021-08-08T10:49:33Z</time>
      </trkpt>
      <trkpt lat="44.86503" lon="3.75586">
        <ele>1110.1</ele>
        <time>2021-08-08T10:49:35Z</time>
      </trkpt>
      <trkpt lat="44.86496" lon="3.75591">
        <ele>1109.9</ele>
        <time>2021-08-08T10:49:37Z</time>
      </trkpt>
      <trkpt lat="44.86489" lon="3.75597">
        <ele>1109.4</ele>
        <time>2021-08-08T10:49:39Z</time>
      </trkpt>
      <trkpt lat="44.86482" lon="3.75604">
        <ele>1109</ele>
        <time>2021-08-08T10:49:41Z</time>
      </trkpt>
      <trkpt lat="44.86475" lon="3.75611">
        <ele>1108.6</ele>
        <time>2021-08-08T10:49:43Z</time>
      </trkpt>
      <trkpt lat="44.86467" lon="3.75617">
        <ele>1108.1</ele>
        <time>2021-08-08T10:49:45Z</time>
      </trkpt>
      <trkpt lat="44.8646" lon="3.75624">
        <ele>1107.6</ele>
        <time>2021-08-08T10:49:47Z</time>
      </trkpt>
      <trkpt lat="44.86451" lon="3.7563">
        <ele>1107</ele>
        <time>2021-08-08T10:49:49Z</time>
      </trkpt>
      <trkpt lat="44.86443" lon="3.75637">
        <ele>1106.5</ele>
        <time>2021-08-08T10:49:51Z</time>
      </trkpt>
      <trkpt lat="44.86434" lon="3.75644">
        <ele>1105.9</ele>
        <time>2021-08-08T10:49:53Z</time>
      </trkpt>
      <trkpt lat="44.86425" lon="3.75652">
        <ele>1105.3</ele>
        <time>2021-08-08T10:49:55Z</time>
      </trkpt>
      <trkpt lat="44.86417" lon="3.7566">
        <ele>1104.8</ele>
        <time>2021-08-08T10:49:57Z</time>
      </trkpt>
      <trkpt lat="44.86408" lon="3.75668">
        <ele>1104.8</ele>
        <time>2021-08-08T10:49:59Z</time>
      </trkpt>
      <trkpt lat="44.86398" lon="3.75676">
        <ele>1104.9</ele>
        <time>2021-08-08T10:50:01Z</time>
      </trkpt>
      <trkpt lat="44.86388" lon="3.75685">
        <ele>1105.1</ele>
        <time>2021-08-08T10:50:03Z</time>
      </trkpt>
      <trkpt lat="44.86377" lon="3.75692">
        <ele>1105.1</ele>
        <time>2021-08-08T10:50:05Z</time>
      </trkpt>
      <trkpt lat="44.86365" lon="3.75696">
        <ele>1104.9</ele>
        <time>2021-08-08T10:50:07Z</time>
      </trkpt>
      <trkpt lat="44.86352" lon="3.75697">
        <ele>1104.5</ele>
        <time>2021-08-08T10:50:09Z</time>
      </trkpt>
      <trkpt lat="44.8634" lon="3.75696">
        <ele>1104</ele>
        <time>2021-08-08T10:50:11Z</time>
      </trkpt>
      <trkpt lat="44.86328" lon="3.75694">
        <ele>1103.4</ele>
        <time>2021-08-08T10:50:13Z</time>
      </trkpt>
      <trkpt lat="44.86319" lon="3.75693">
        <ele>1102.8</ele>
        <time>2021-08-08T10:50:15Z</time>
      </trkpt>
      <trkpt lat="44.8631" lon="3.75692">
        <ele>1102.3</ele>
        <time>2021-08-08T10:50:17Z</time>
      </trkpt>
      <trkpt lat="44.86301" lon="3.75694">
        <ele>1101.9</ele>
        <time>2021-08-08T10:50:19Z</time>
      </trkpt>
      <trkpt lat="44.86292" lon="3.75697">
        <ele>1101.7</ele>
        <time>2021-08-08T10:50:21Z</time>
      </trkpt>
      <trkpt lat="44.86282" lon="3.75702">
        <ele>1101.4</ele>
        <time>2021-08-08T10:50:23Z</time>
      </trkpt>
      <trkpt lat="44.86272" lon="3.75708">
        <ele>1101.2</ele>
        <time>2021-08-08T10:50:25Z</time>
      </trkpt>
      <trkpt lat="44.86261" lon="3.75714">
        <ele>1100.9</ele>
        <time>2021-08-08T10:50:27Z</time>
      </trkpt>
      <trkpt lat="44.8625" lon="3.75721">
        <ele>1100.6</ele>
        <time>2021-08-08T10:50:29Z</time>
      </trkpt>
      <trkpt lat="44.86238" lon="3.75728">
        <ele>1099.6</ele>
        <time>2021-08-08T10:50:31Z</time>
      </trkpt>
      <trkpt lat="44.86226" lon="3.75735">
        <ele>1098.5</ele>
        <time>2021-08-08T10:50:33Z</time>
      </trkpt>
      <trkpt lat="44.86215" lon="3.75742">
        <ele>1097.5</ele>
        <time>2021-08-08T10:50:35Z</time>
      </trkpt>
      <trkpt lat="44.86205" lon="3.75747">
        <ele>1096.6</ele>
        <time>2021-08-08T10:50:37Z</time>
      </trkpt>
      <trkpt lat="44.86195" lon="3.75751">
        <ele>1095.6</ele>
        <time>2021-08-08T10:50:39Z</time>
      </trkpt>
      <trkpt lat="44.86183" lon="3.75755">
        <ele>1094.3</ele>
        <time>2021-08-08T10:50:41Z</time>
      </trkpt>
      <trkpt lat="44.86168" lon="3.75758">
        <ele>1092.8</ele>
        <time>2021-08-08T10:50:43Z</time>
      </trkpt>
      <trkpt lat="44.86151" lon="3.75763">
        <ele>1091.4</ele>
        <time>2021-08-08T10:50:45Z</time>
      </trkpt>
      <trkpt lat="44.86133" lon="3.75767">
        <ele>1089.8</ele>
        <time>2021-08-08T10:50:47Z</time>
      </trkpt>
      <trkpt lat="44.86113" lon="3.75771">
        <ele>1087.9</ele>
        <time>2021-08-08T10:50:49Z</time>
      </trkpt>
      <trkpt lat="44.86091" lon="3.75773">
        <ele>1085.5</ele>
        <time>2021-08-08T10:50:51Z</time>
      </trkpt>
      <trkpt lat="44.86069" lon="3.75774">
        <ele>1083.4</ele>
        <time>2021-08-08T10:50:53Z</time>
      </trkpt>
      <trkpt lat="44.86046" lon="3.75775">
        <ele>1081.2</ele>
        <time>2021-08-08T10:50:55Z</time>
      </trkpt>
      <trkpt lat="44.86022" lon="3.75777">
        <ele>1079</ele>
        <time>2021-08-08T10:50:57Z</time>
      </trkpt>
      <trkpt lat="44.85998" lon="3.75779">
        <ele>1076.9</ele>
        <time>2021-08-08T10:50:59Z</time>
      </trkpt>
      <trkpt lat="44.85973" lon="3.7578">
        <ele>1074.4</ele>
        <time>2021-08-08T10:51:01Z</time>
      </trkpt>
      <trkpt lat="44.85948" lon="3.75782">
        <ele>1072</ele>
        <time>2021-08-08T10:51:03Z</time>
      </trkpt>
      <trkpt lat="44.85924" lon="3.75783">
        <ele>1069.7</ele>
        <time>2021-08-08T10:51:05Z</time>
      </trkpt>
      <trkpt lat="44.85899" lon="3.75785">
        <ele>1067.9</ele>
        <time>2021-08-08T10:51:07Z</time>
      </trkpt>
      <trkpt lat="44.85873" lon="3.75788">
        <ele>1066.4</ele>
        <time>2021-08-08T10:51:09Z</time>
      </trkpt>
      <trkpt lat="44.85848" lon="3.75787">
        <ele>1064.5</ele>
        <time>2021-08-08T10:51:11Z</time>
      </trkpt>
      <trkpt lat="44.85826" lon="3.75783">
        <ele>1062.8</ele>
        <time>2021-08-08T10:51:13Z</time>
      </trkpt>
      <trkpt lat="44.85809" lon="3.75776">
        <ele>1061.5</ele>
        <time>2021-08-08T10:51:15Z</time>
      </trkpt>
      <trkpt lat="44.85791" lon="3.75767">
        <ele>1060</ele>
        <time>2021-08-08T10:51:17Z</time>
      </trkpt>
      <trkpt lat="44.85773" lon="3.75758">
        <ele>1058.5</ele>
        <time>2021-08-08T10:51:19Z</time>
      </trkpt>
      <trkpt lat="44.85756" lon="3.75748">
        <ele>1056.9</ele>
        <time>2021-08-08T10:51:21Z</time>
      </trkpt>
      <trkpt lat="44.85738" lon="3.7574">
        <ele>1055.8</ele>
        <time>2021-08-08T10:51:23Z</time>
      </trkpt>
      <trkpt lat="44.85721" lon="3.75733">
        <ele>1054.8</ele>
        <time>2021-08-08T10:51:25Z</time>
      </trkpt>
      <trkpt lat="44.85702" lon="3.75726">
        <ele>1053.8</ele>
        <time>2021-08-08T10:51:27Z</time>
      </trkpt>
      <trkpt lat="44.85682" lon="3.75722">
        <ele>1053</ele>
        <time>2021-08-08T10:51:29Z</time>
      </trkpt>
      <trkpt lat="44.85664" lon="3.75715">
        <ele>1051.9</ele>
        <time>2021-08-08T10:51:31Z</time>
      </trkpt>
      <trkpt lat="44.85645" lon="3.75707">
        <ele>1050</ele>
        <time>2021-08-08T10:51:33Z</time>
      </trkpt>
      <trkpt lat="44.85626" lon="3.75701">
        <ele>1048.2</ele>
        <time>2021-08-08T10:51:35Z</time>
      </trkpt>
      <trkpt lat="44.85607" lon="3.75693">
        <ele>1046.4</ele>
        <time>2021-08-08T10:51:37Z</time>
      </trkpt>
      <trkpt lat="44.85588" lon="3.75685">
        <ele>1044.7</ele>
        <time>2021-08-08T10:51:39Z</time>
      </trkpt>
      <trkpt lat="44.85569" lon="3.75677">
        <ele>1042.9</ele>
        <time>2021-08-08T10:51:41Z</time>
      </trkpt>
      <trkpt lat="44.8555" lon="3.7567">
        <ele>1041.2</ele>
        <time>2021-08-08T10:51:43Z</time>
      </trkpt>
      <trkpt lat="44.8553" lon="3.75663">
        <ele>1039.8</ele>
        <time>2021-08-08T10:51:45Z</time>
      </trkpt>
      <trkpt lat="44.85509" lon="3.75655">
        <ele>1038.6</ele>
        <time>2021-08-08T10:51:47Z</time>
      </trkpt>
      <trkpt lat="44.85487" lon="3.75647">
        <ele>1037</ele>
        <time>2021-08-08T10:51:49Z</time>
      </trkpt>
      <trkpt lat="44.85466" lon="3.7564">
        <ele>1035</ele>
        <time>2021-08-08T10:51:51Z</time>
      </trkpt>
      <trkpt lat="44.85443" lon="3.75632">
        <ele>1032.9</ele>
        <time>2021-08-08T10:51:53Z</time>
      </trkpt>
      <trkpt lat="44.85422" lon="3.75624">
        <ele>1030.9</ele>
        <time>2021-08-08T10:51:55Z</time>
      </trkpt>
      <trkpt lat="44.85403" lon="3.75617">
        <ele>1029.1</ele>
        <time>2021-08-08T10:51:57Z</time>
      </trkpt>
      <trkpt lat="44.85385" lon="3.75611">
        <ele>1027.5</ele>
        <time>2021-08-08T10:51:59Z</time>
      </trkpt>
      <trkpt lat="44.85368" lon="3.75604">
        <ele>1026</ele>
        <time>2021-08-08T10:52:01Z</time>
      </trkpt>
      <trkpt lat="44.8535" lon="3.75597">
        <ele>1024.3</ele>
        <time>2021-08-08T10:52:03Z</time>
      </trkpt>
      <trkpt lat="44.85331" lon="3.7559">
        <ele>1022.5</ele>
        <time>2021-08-08T10:52:05Z</time>
      </trkpt>
      <trkpt lat="44.85311" lon="3.75582">
        <ele>1020.6</ele>
        <time>2021-08-08T10:52:07Z</time>
      </trkpt>
      <trkpt lat="44.85292" lon="3.75575">
        <ele>1018.8</ele>
        <time>2021-08-08T10:52:09Z</time>
      </trkpt>
      <trkpt lat="44.85274" lon="3.7557">
        <ele>1017.3</ele>
        <time>2021-08-08T10:52:11Z</time>
      </trkpt>
      <trkpt lat="44.85257" lon="3.75565">
        <ele>1015.8</ele>
        <time>2021-08-08T10:52:13Z</time>
      </trkpt>
      <trkpt lat="44.85241" lon="3.7556">
        <ele>1014.5</ele>
        <time>2021-08-08T10:52:15Z</time>
      </trkpt>
      <trkpt lat="44.85225" lon="3.75556">
        <ele>1013.2</ele>
        <time>2021-08-08T10:52:17Z</time>
      </trkpt>
      <trkpt lat="44.8521" lon="3.75553">
        <ele>1012</ele>
        <time>2021-08-08T10:52:19Z</time>
      </trkpt>
      <trkpt lat="44.85195" lon="3.75553">
        <ele>1011.2</ele>
        <time>2021-08-08T10:52:21Z</time>
      </trkpt>
      <trkpt lat="44.85178" lon="3.75556">
        <ele>1010.4</ele>
        <time>2021-08-08T10:52:23Z</time>
      </trkpt>
      <trkpt lat="44.85161" lon="3.75562">
        <ele>1009.6</ele>
        <time>2021-08-08T10:52:25Z</time>
      </trkpt>
      <trkpt lat="44.85144" lon="3.7557">
        <ele>1008.2</ele>
        <time>2021-08-08T10:52:27Z</time>
      </trkpt>
      <trkpt lat="44.85127" lon="3.75581">
        <ele>1007.1</ele>
        <time>2021-08-08T10:52:29Z</time>
      </trkpt>
      <trkpt lat="44.8511" lon="3.75594">
        <ele>1005.7</ele>
        <time>2021-08-08T10:52:31Z</time>
      </trkpt>
      <trkpt lat="44.85094" lon="3.75607">
        <ele>1004.3</ele>
        <time>2021-08-08T10:52:33Z</time>
      </trkpt>
      <trkpt lat="44.85077" lon="3.75621">
        <ele>1003.4</ele>
        <time>2021-08-08T10:52:35Z</time>
      </trkpt>
      <trkpt lat="44.85061" lon="3.75635">
        <ele>1003.3</ele>
        <time>2021-08-08T10:52:37Z</time>
      </trkpt>
      <trkpt lat="44.85044" lon="3.75649">
        <ele>1003.3</ele>
        <time>2021-08-08T10:52:39Z</time>
      </trkpt>
      <trkpt lat="44.85029" lon="3.75662">
        <ele>1003.6</ele>
        <time>2021-08-08T10:52:41Z</time>
      </trkpt>
      <trkpt lat="44.85014" lon="3.75674">
        <ele>1003.9</ele>
        <time>2021-08-08T10:52:43Z</time>
      </trkpt>
      <trkpt lat="44.85" lon="3.75685">
        <ele>1003.9</ele>
        <time>2021-08-08T10:52:45Z</time>
      </trkpt>
      <trkpt lat="44.84988" lon="3.75696">
        <ele>1003.2</ele>
        <time>2021-08-08T10:52:47Z</time>
      </trkpt>
      <trkpt lat="44.84976" lon="3.75707">
        <ele>1002.5</ele>
        <time>2021-08-08T10:52:49Z</time>
      </trkpt>
      <trkpt lat="44.84966" lon="3.7572">
        <ele>1001.8</ele>
        <time>2021-08-08T10:52:51Z</time>
      </trkpt>
      <trkpt lat="44.84957" lon="3.75734">
        <ele>1001</ele>
        <time>2021-08-08T10:52:53Z</time>
      </trkpt>
      <trkpt lat="44.8495" lon="3.75749">
        <ele>1000.4</ele>
        <time>2021-08-08T10:52:55Z</time>
      </trkpt>
      <trkpt lat="44.84946" lon="3.75766">
        <ele>999.7</ele>
        <time>2021-08-08T10:52:57Z</time>
      </trkpt>
      <trkpt lat="44.84943" lon="3.75785">
        <ele>999.2</ele>
        <time>2021-08-08T10:52:59Z</time>
      </trkpt>
      <trkpt lat="44.84943" lon="3.75806">
        <ele>998.9</ele>
        <time>2021-08-08T10:53:01Z</time>
      </trkpt>
      <trkpt lat="44.84943" lon="3.75826">
        <ele>998.9</ele>
        <time>2021-08-08T10:53:03Z</time>
      </trkpt>
      <trkpt lat="44.84944" lon="3.75849">
        <ele>998.3</ele>
        <time>2021-08-08T10:53:05Z</time>
      </trkpt>
      <trkpt lat="44.84945" lon="3.75873">
        <ele>997.6</ele>
        <time>2021-08-08T10:53:07Z</time>
      </trkpt>
      <trkpt lat="44.84946" lon="3.75897">
        <ele>996.9</ele>
        <time>2021-08-08T10:53:09Z</time>
      </trkpt>
      <trkpt lat="44.84946" lon="3.75921">
        <ele>996.2</ele>
        <time>2021-08-08T10:53:11Z</time>
      </trkpt>
      <trkpt lat="44.84947" lon="3.75941">
        <ele>995.5</ele>
        <time>2021-08-08T10:53:13Z</time>
      </trkpt>
      <trkpt lat="44.84948" lon="3.75958">
        <ele>994.9</ele>
        <time>2021-08-08T10:53:15Z</time>
      </trkpt>
      <trkpt lat="44.84949" lon="3.75972">
        <ele>994.4</ele>
        <time>2021-08-08T10:53:17Z</time>
      </trkpt>
      <trkpt lat="44.84951" lon="3.75989">
        <ele>993.9</ele>
        <time>2021-08-08T10:53:19Z</time>
      </trkpt>
      <trkpt lat="44.84952" lon="3.76008">
        <ele>993.9</ele>
        <time>2021-08-08T10:53:21Z</time>
      </trkpt>
      <trkpt lat="44.84947" lon="3.76027">
        <ele>994.3</ele>
        <time>2021-08-08T10:53:23Z</time>
      </trkpt>
      <trkpt lat="44.84934" lon="3.76039">
        <ele>994.5</ele>
        <time>2021-08-08T10:53:25Z</time>
      </trkpt>
      <trkpt lat="44.8492" lon="3.76044">
        <ele>994.4</ele>
        <time>2021-08-08T10:53:27Z</time>
      </trkpt>
      <trkpt lat="44.84906" lon="3.76042">
        <ele>995.9</ele>
        <time>2021-08-08T10:53:29Z</time>
      </trkpt>
      <trkpt lat="44.84895" lon="3.76035">
        <ele>996.8</ele>
        <time>2021-08-08T10:53:31Z</time>
      </trkpt>
      <trkpt lat="44.84886" lon="3.76026">
        <ele>997.1</ele>
        <time>2021-08-08T10:53:33Z</time>
      </trkpt>
      <trkpt lat="44.84877" lon="3.76015">
        <ele>997.1</ele>
        <time>2021-08-08T10:53:35Z</time>
      </trkpt>
      <trkpt lat="44.84868" lon="3.76003">
        <ele>996.8</ele>
        <time>2021-08-08T10:53:37Z</time>
      </trkpt>
      <trkpt lat="44.84859" lon="3.7599">
        <ele>996.6</ele>
        <time>2021-08-08T10:53:39Z</time>
      </trkpt>
      <trkpt lat="44.84852" lon="3.75977">
        <ele>995.9</ele>
        <time>2021-08-08T10:53:41Z</time>
      </trkpt>
      <trkpt lat="44.84846" lon="3.75962">
        <ele>994.6</ele>
        <time>2021-08-08T10:53:43Z</time>
      </trkpt>
      <trkpt lat="44.84841" lon="3.75948">
        <ele>992.9</ele>
        <time>2021-08-08T10:53:45Z</time>
      </trkpt>
      <trkpt lat="44.84835" lon="3.75934">
        <ele>990.9</ele>
        <time>2021-08-08T10:53:47Z</time>
      </trkpt>
      <trkpt lat="44.8483" lon="3.75921">
        <ele>989.4</ele>
        <time>2021-08-08T10:53:49Z</time>
      </trkpt>
      <trkpt lat="44.84825" lon="3.75908">
        <ele>988.7</ele>
        <time>2021-08-08T10:53:51Z</time>
      </trkpt>
      <trkpt lat="44.84819" lon="3.75895">
        <ele>988.3</ele>
        <time>2021-08-08T10:53:53Z</time>
      </trkpt>
      <trkpt lat="44.84815" lon="3.75885">
        <ele>988</ele>
        <time>2021-08-08T10:53:55Z</time>
      </trkpt>
      <trkpt lat="44.84811" lon="3.75875">
        <ele>987.5</ele>
        <time>2021-08-08T10:53:57Z</time>
      </trkpt>
      <trkpt lat="44.84807" lon="3.75867">
        <ele>987.3</ele>
        <time>2021-08-08T10:53:59Z</time>
      </trkpt>
      <trkpt lat="44.84804" lon="3.7586">
        <ele>987.2</ele>
        <time>2021-08-08T10:54:01Z</time>
      </trkpt>
      <trkpt lat="44.848" lon="3.75853">
        <ele>987.2</ele>
        <time>2021-08-08T10:54:03Z</time>
      </trkpt>
      <trkpt lat="44.84797" lon="3.75846">
        <ele>987</ele>
        <time>2021-08-08T10:54:05Z</time>
      </trkpt>
      <trkpt lat="44.84792" lon="3.75838">
        <ele>986.9</ele>
        <time>2021-08-08T10:54:07Z</time>
      </trkpt>
      <trkpt lat="44.84788" lon="3.75833">
        <ele>987.3</ele>
        <time>2021-08-08T10:54:09Z</time>
      </trkpt>
      <trkpt lat="44.84783" lon="3.75828">
        <ele>988</ele>
        <time>2021-08-08T10:54:11Z</time>
      </trkpt>
      <trkpt lat="44.84779" lon="3.75824">
        <ele>988.7</ele>
        <time>2021-08-08T10:54:13Z</time>
      </trkpt>
      <trkpt lat="44.84775" lon="3.7582">
        <ele>989.4</ele>
        <time>2021-08-08T10:54:15Z</time>
      </trkpt>
      <trkpt lat="44.84771" lon="3.75815">
        <ele>990</ele>
        <time>2021-08-08T10:54:17Z</time>
      </trkpt>
      <trkpt lat="44.84767" lon="3.75812">
        <ele>990.5</ele>
        <time>2021-08-08T10:54:19Z</time>
      </trkpt>
      <trkpt lat="44.84764" lon="3.75807">
        <ele>990.9</ele>
        <time>2021-08-08T10:54:21Z</time>
      </trkpt>
      <trkpt lat="44.84761" lon="3.75802">
        <ele>991.2</ele>
        <time>2021-08-08T10:54:23Z</time>
      </trkpt>
      <trkpt lat="44.84758" lon="3.75797">
        <ele>991.5</ele>
        <time>2021-08-08T10:54:25Z</time>
      </trkpt>
      <trkpt lat="44.84754" lon="3.75793">
        <ele>991.8</ele>
        <time>2021-08-08T10:54:27Z</time>
      </trkpt>
      <trkpt lat="44.84752" lon="3.75789">
        <ele>992.1</ele>
        <time>2021-08-08T10:54:29Z</time>
      </trkpt>
      <trkpt lat="44.84749" lon="3.75784">
        <ele>992.1</ele>
        <time>2021-08-08T10:54:31Z</time>
      </trkpt>
      <trkpt lat="44.84746" lon="3.7578">
        <ele>992.2</ele>
        <time>2021-08-08T10:54:33Z</time>
      </trkpt>
      <trkpt lat="44.84743" lon="3.75778">
        <ele>992.3</ele>
        <time>2021-08-08T10:54:35Z</time>
      </trkpt>
      <trkpt lat="44.8474" lon="3.75776">
        <ele>992.4</ele>
        <time>2021-08-08T10:54:37Z</time>
      </trkpt>
      <trkpt lat="44.84736" lon="3.75774">
        <ele>992.6</ele>
        <time>2021-08-08T10:54:39Z</time>
      </trkpt>
      <trkpt lat="44.84733" lon="3.75773">
        <ele>992.8</ele>
        <time>2021-08-08T10:54:41Z</time>
      </trkpt>
      <trkpt lat="44.8473" lon="3.75773">
        <ele>993.1</ele>
        <time>2021-08-08T10:54:43Z</time>
      </trkpt>
      <trkpt lat="44.84726" lon="3.75773">
        <ele>993.3</ele>
        <time>2021-08-08T10:54:45Z</time>
      </trkpt>
      <trkpt lat="44.84723" lon="3.75773">
        <ele>993.6</ele>
        <time>2021-08-08T10:54:47Z</time>
      </trkpt>
      <trkpt lat="44.8472" lon="3.75775">
        <ele>994</ele>
        <time>2021-08-08T10:54:49Z</time>
      </trkpt>
      <trkpt lat="44.84717" lon="3.75777">
        <ele>994.3</ele>
        <time>2021-08-08T10:54:51Z</time>
      </trkpt>
      <trkpt lat="44.84714" lon="3.75778">
        <ele>994.7</ele>
        <time>2021-08-08T10:54:53Z</time>
      </trkpt>
      <trkpt lat="44.84711" lon="3.75779">
        <ele>995</ele>
        <time>2021-08-08T10:54:55Z</time>
      </trkpt>
      <trkpt lat="44.84708" lon="3.75783">
        <ele>995.5</ele>
        <time>2021-08-08T10:54:57Z</time>
      </trkpt>
      <trkpt lat="44.84706" lon="3.75786">
        <ele>995.8</ele>
        <time>2021-08-08T10:54:59Z</time>
      </trkpt>
      <trkpt lat="44.84704" lon="3.7579">
        <ele>996.2</ele>
        <time>2021-08-08T10:55:01Z</time>
      </trkpt>
      <trkpt lat="44.84702" lon="3.75793">
        <ele>996.6</ele>
        <time>2021-08-08T10:55:03Z</time>
      </trkpt>
      <trkpt lat="44.84699" lon="3.75796">
        <ele>997</ele>
        <time>2021-08-08T10:55:05Z</time>
      </trkpt>
      <trkpt lat="44.84698" lon="3.758">
        <ele>997.3</ele>
        <time>2021-08-08T10:55:07Z</time>
      </trkpt>
      <trkpt lat="44.84697" lon="3.75804">
        <ele>997.7</ele>
        <time>2021-08-08T10:55:09Z</time>
      </trkpt>
      <trkpt lat="44.84696" lon="3.75808">
        <ele>998</ele>
        <time>2021-08-08T10:55:11Z</time>
      </trkpt>
      <trkpt lat="44.84694" lon="3.75811">
        <ele>998.4</ele>
        <time>2021-08-08T10:55:13Z</time>
      </trkpt>
      <trkpt lat="44.84692" lon="3.75816">
        <ele>998.8</ele>
        <time>2021-08-08T10:55:15Z</time>
      </trkpt>
      <trkpt lat="44.8469" lon="3.7582">
        <ele>999.2</ele>
        <time>2021-08-08T10:55:17Z</time>
      </trkpt>
      <trkpt lat="44.84689" lon="3.75824">
        <ele>999.6</ele>
        <time>2021-08-08T10:55:19Z</time>
      </trkpt>
      <trkpt lat="44.84687" lon="3.75828">
        <ele>1000</ele>
        <time>2021-08-08T10:55:21Z</time>
      </trkpt>
      <trkpt lat="44.84685" lon="3.75831">
        <ele>1000.3</ele>
        <time>2021-08-08T10:55:23Z</time>
      </trkpt>
      <trkpt lat="44.84683" lon="3.75833">
        <ele>1000.7</ele>
        <time>2021-08-08T10:55:25Z</time>
      </trkpt>
      <trkpt lat="44.8468" lon="3.75833">
        <ele>1000.9</ele>
        <time>2021-08-08T10:55:27Z</time>
      </trkpt>
      <trkpt lat="44.84677" lon="3.75833">
        <ele>1001.1</ele>
        <time>2021-08-08T10:55:29Z</time>
      </trkpt>
      <trkpt lat="44.84674" lon="3.75833">
        <ele>1001.4</ele>
        <time>2021-08-08T10:55:31Z</time>
      </trkpt>
      <trkpt lat="44.84673" lon="3.7583">
        <ele>1001.3</ele>
        <time>2021-08-08T10:55:33Z</time>
      </trkpt>
      <trkpt lat="44.84672" lon="3.75829">
        <ele>1001.3</ele>
        <time>2021-08-08T10:55:35Z</time>
      </trkpt>
      <trkpt lat="44.84672" lon="3.75829">
        <ele>1001.3</ele>
        <time>2021-08-08T10:55:37Z</time>
      </trkpt>
      <trkpt lat="44.84672" lon="3.75829">
        <ele>1001.3</ele>
        <time>2021-08-08T10:55:39Z</time>
      </trkpt>
      <trkpt lat="44.84672" lon="3.75829">
        <ele>1001.3</ele>
        <time>2021-08-08T10:55:41Z</time>
      </trkpt>
      <trkpt lat="44.84673" lon="3.75831">
        <ele>1001.3</ele>
        <time>2021-08-08T10:55:43Z</time>
      </trkpt>
      <trkpt lat="44.84671" lon="3.75828">
        <ele>1001.4</ele>
        <time>2021-08-08T12:37:12Z</time>
      </trkpt>
      <trkpt lat="44.84671" lon="3.75829">
        <ele>1001.4</ele>
        <time>2021-08-08T12:37:14Z</time>
      </trkpt>
      <trkpt lat="44.84671" lon="3.75828">
        <ele>1001.4</ele>
        <time>2021-08-08T12:37:16Z</time>
      </trkpt>
      <trkpt lat="44.84671" lon="3.75828">
        <ele>1001.3</ele>
        <time>2021-08-08T12:37:18Z</time>
      </trkpt>
      <trkpt lat="44.84671" lon="3.75829">
        <ele>1001.4</ele>
        <time>2021-08-08T12:37:20Z</time>
      </trkpt>
      <trkpt lat="44.8467" lon="3.75829">
        <ele>1001.5</ele>
        <time>2021-08-08T12:37:22Z</time>
      </trkpt>
      <trkpt lat="44.8467" lon="3.75829">
        <ele>1001.4</ele>
        <time>2021-08-08T12:37:24Z</time>
      </trkpt>
      <trkpt lat="44.84669" lon="3.7583">
        <ele>1001.6</ele>
        <time>2021-08-08T12:37:26Z</time>
      </trkpt>
      <trkpt lat="44.84666" lon="3.75831">
        <ele>1001.8</ele>
        <time>2021-08-08T12:37:28Z</time>
      </trkpt>
      <trkpt lat="44.84664" lon="3.75832">
        <ele>1001.7</ele>
        <time>2021-08-08T12:37:30Z</time>
      </trkpt>
      <trkpt lat="44.84662" lon="3.75833">
        <ele>1001.6</ele>
        <time>2021-08-08T12:37:32Z</time>
      </trkpt>
      <trkpt lat="44.84661" lon="3.75831">
        <ele>1001.4</ele>
        <time>2021-08-08T12:37:34Z</time>
      </trkpt>
      <trkpt lat="44.8466" lon="3.7583">
        <ele>1001.3</ele>
        <time>2021-08-08T12:37:36Z</time>
      </trkpt>
      <trkpt lat="44.8466" lon="3.7583">
        <ele>1001.2</ele>
        <time>2021-08-08T12:37:38Z</time>
      </trkpt>
      <trkpt lat="44.84659" lon="3.75829">
        <ele>1001.1</ele>
        <time>2021-08-08T12:37:40Z</time>
      </trkpt>
      <trkpt lat="44.84691" lon="3.7583">
        <ele>999.8</ele>
        <time>2021-08-08T12:54:26Z</time>
      </trkpt>
      <trkpt lat="44.84692" lon="3.75825">
        <ele>999.4</ele>
        <time>2021-08-08T12:54:28Z</time>
      </trkpt>
      <trkpt lat="44.84693" lon="3.75821">
        <ele>999.1</ele>
        <time>2021-08-08T12:54:30Z</time>
      </trkpt>
      <trkpt lat="44.84694" lon="3.75818">
        <ele>998.7</ele>
        <time>2021-08-08T12:54:32Z</time>
      </trkpt>
      <trkpt lat="44.84696" lon="3.75814">
        <ele>998.4</ele>
        <time>2021-08-08T12:54:34Z</time>
      </trkpt>
      <trkpt lat="44.84697" lon="3.7581">
        <ele>998</ele>
        <time>2021-08-08T12:54:36Z</time>
      </trkpt>
      <trkpt lat="44.84698" lon="3.75806">
        <ele>997.7</ele>
        <time>2021-08-08T12:54:38Z</time>
      </trkpt>
      <trkpt lat="44.84699" lon="3.75803">
        <ele>997.4</ele>
        <time>2021-08-08T12:54:40Z</time>
      </trkpt>
      <trkpt lat="44.84701" lon="3.75798">
        <ele>997</ele>
        <time>2021-08-08T12:54:42Z</time>
      </trkpt>
      <trkpt lat="44.84702" lon="3.75792">
        <ele>996.5</ele>
        <time>2021-08-08T12:54:44Z</time>
      </trkpt>
      <trkpt lat="44.84706" lon="3.75784">
        <ele>995.7</ele>
        <time>2021-08-08T12:54:46Z</time>
      </trkpt>
      <trkpt lat="44.84713" lon="3.75777">
        <ele>994.7</ele>
        <time>2021-08-08T12:54:48Z</time>
      </trkpt>
      <trkpt lat="44.84722" lon="3.75773">
        <ele>993.7</ele>
        <time>2021-08-08T12:54:50Z</time>
      </trkpt>
      <trkpt lat="44.84732" lon="3.75773">
        <ele>992.9</ele>
        <time>2021-08-08T12:54:52Z</time>
      </trkpt>
      <trkpt lat="44.84741" lon="3.75777">
        <ele>992.4</ele>
        <time>2021-08-08T12:54:54Z</time>
      </trkpt>
      <trkpt lat="44.84749" lon="3.75787">
        <ele>992.3</ele>
        <time>2021-08-08T12:54:56Z</time>
      </trkpt>
      <trkpt lat="44.84757" lon="3.75801">
        <ele>991.9</ele>
        <time>2021-08-08T12:54:58Z</time>
      </trkpt>
      <trkpt lat="44.84767" lon="3.75816">
        <ele>990.8</ele>
        <time>2021-08-08T12:55:00Z</time>
      </trkpt>
      <trkpt lat="44.84779" lon="3.75828">
        <ele>988.9</ele>
        <time>2021-08-08T12:55:02Z</time>
      </trkpt>
      <trkpt lat="44.84789" lon="3.75839">
        <ele>987.7</ele>
        <time>2021-08-08T12:55:04Z</time>
      </trkpt>
      <trkpt lat="44.84797" lon="3.75853">
        <ele>987.9</ele>
        <time>2021-08-08T12:55:06Z</time>
      </trkpt>
      <trkpt lat="44.84803" lon="3.75867">
        <ele>988.3</ele>
        <time>2021-08-08T12:55:08Z</time>
      </trkpt>
      <trkpt lat="44.84807" lon="3.75881">
        <ele>989.2</ele>
        <time>2021-08-08T12:55:10Z</time>
      </trkpt>
      <trkpt lat="44.8481" lon="3.75893">
        <ele>990</ele>
        <time>2021-08-08T12:55:12Z</time>
      </trkpt>
      <trkpt lat="44.84813" lon="3.75901">
        <ele>990.2</ele>
        <time>2021-08-08T12:55:14Z</time>
      </trkpt>
      <trkpt lat="44.84816" lon="3.75906">
        <ele>990.3</ele>
        <time>2021-08-08T12:55:16Z</time>
      </trkpt>
      <trkpt lat="44.84817" lon="3.75907">
        <ele>990.3</ele>
        <time>2021-08-08T12:55:18Z</time>
      </trkpt>
      <trkpt lat="44.84816" lon="3.75907">
        <ele>990.2</ele>
        <time>2021-08-08T12:55:20Z</time>
      </trkpt>
      <trkpt lat="44.84817" lon="3.75906">
        <ele>990.2</ele>
        <time>2021-08-08T12:55:22Z</time>
      </trkpt>
      <trkpt lat="44.84817" lon="3.75906">
        <ele>990</ele>
        <time>2021-08-08T12:55:24Z</time>
      </trkpt>
      <trkpt lat="44.84817" lon="3.75906">
        <ele>990</ele>
        <time>2021-08-08T12:55:26Z</time>
      </trkpt>
      <trkpt lat="44.84828" lon="3.75894">
        <ele>986.2</ele>
        <time>2021-08-08T12:56:18Z</time>
      </trkpt>
      <trkpt lat="44.84824" lon="3.75884">
        <ele>986</ele>
        <time>2021-08-08T12:56:20Z</time>
      </trkpt>
      <trkpt lat="44.84819" lon="3.75873">
        <ele>985.7</ele>
        <time>2021-08-08T12:56:22Z</time>
      </trkpt>
      <trkpt lat="44.84814" lon="3.75861">
        <ele>985.1</ele>
        <time>2021-08-08T12:56:24Z</time>
      </trkpt>
      <trkpt lat="44.84809" lon="3.75847">
        <ele>984.6</ele>
        <time>2021-08-08T12:56:26Z</time>
      </trkpt>
      <trkpt lat="44.84803" lon="3.75832">
        <ele>984.1</ele>
        <time>2021-08-08T12:56:28Z</time>
      </trkpt>
      <trkpt lat="44.84798" lon="3.75817">
        <ele>984.9</ele>
        <time>2021-08-08T12:56:30Z</time>
      </trkpt>
      <trkpt lat="44.84791" lon="3.758">
        <ele>985.8</ele>
        <time>2021-08-08T12:56:32Z</time>
      </trkpt>
      <trkpt lat="44.84784" lon="3.75783">
        <ele>986.5</ele>
        <time>2021-08-08T12:56:34Z</time>
      </trkpt>
      <trkpt lat="44.84777" lon="3.75765">
        <ele>986.9</ele>
        <time>2021-08-08T12:56:36Z</time>
      </trkpt>
      <trkpt lat="44.8477" lon="3.75746">
        <ele>987</ele>
        <time>2021-08-08T12:56:38Z</time>
      </trkpt>
      <trkpt lat="44.84762" lon="3.75725">
        <ele>985.7</ele>
        <time>2021-08-08T12:56:40Z</time>
      </trkpt>
      <trkpt lat="44.84754" lon="3.75704">
        <ele>983.8</ele>
        <time>2021-08-08T12:56:42Z</time>
      </trkpt>
      <trkpt lat="44.84749" lon="3.75681">
        <ele>981.1</ele>
        <time>2021-08-08T12:56:44Z</time>
      </trkpt>
      <trkpt lat="44.84746" lon="3.75657">
        <ele>978.8</ele>
        <time>2021-08-08T12:56:46Z</time>
      </trkpt>
      <trkpt lat="44.84747" lon="3.75632">
        <ele>976.8</ele>
        <time>2021-08-08T12:56:48Z</time>
      </trkpt>
      <trkpt lat="44.8475" lon="3.75606">
        <ele>974.6</ele>
        <time>2021-08-08T12:56:50Z</time>
      </trkpt>
      <trkpt lat="44.84754" lon="3.7558">
        <ele>972.9</ele>
        <time>2021-08-08T12:56:52Z</time>
      </trkpt>
      <trkpt lat="44.84759" lon="3.75556">
        <ele>970.8</ele>
        <time>2021-08-08T12:56:54Z</time>
      </trkpt>
      <trkpt lat="44.84765" lon="3.75533">
        <ele>968.9</ele>
        <time>2021-08-08T12:56:56Z</time>
      </trkpt>
      <trkpt lat="44.84765" lon="3.75512">
        <ele>966.9</ele>
        <time>2021-08-08T12:56:58Z</time>
      </trkpt>
      <trkpt lat="44.8476" lon="3.75494">
        <ele>964.9</ele>
        <time>2021-08-08T12:57:00Z</time>
      </trkpt>
      <trkpt lat="44.84749" lon="3.75481">
        <ele>962.9</ele>
        <time>2021-08-08T12:57:02Z</time>
      </trkpt>
      <trkpt lat="44.84736" lon="3.75473">
        <ele>961.1</ele>
        <time>2021-08-08T12:57:04Z</time>
      </trkpt>
      <trkpt lat="44.84721" lon="3.75472">
        <ele>959.8</ele>
        <time>2021-08-08T12:57:06Z</time>
      </trkpt>
      <trkpt lat="44.84705" lon="3.75475">
        <ele>958.8</ele>
        <time>2021-08-08T12:57:08Z</time>
      </trkpt>
      <trkpt lat="44.84688" lon="3.75478">
        <ele>957.8</ele>
        <time>2021-08-08T12:57:10Z</time>
      </trkpt>
      <trkpt lat="44.8467" lon="3.75483">
        <ele>956.8</ele>
        <time>2021-08-08T12:57:12Z</time>
      </trkpt>
      <trkpt lat="44.84652" lon="3.7549">
        <ele>955.4</ele>
        <time>2021-08-08T12:57:14Z</time>
      </trkpt>
      <trkpt lat="44.84634" lon="3.75498">
        <ele>953.6</ele>
        <time>2021-08-08T12:57:16Z</time>
      </trkpt>
      <trkpt lat="44.84617" lon="3.75505">
        <ele>952.5</ele>
        <time>2021-08-08T12:57:18Z</time>
      </trkpt>
      <trkpt lat="44.846" lon="3.75512">
        <ele>951.6</ele>
        <time>2021-08-08T12:57:20Z</time>
      </trkpt>
      <trkpt lat="44.84585" lon="3.75518">
        <ele>950.7</ele>
        <time>2021-08-08T12:57:22Z</time>
      </trkpt>
      <trkpt lat="44.84569" lon="3.75519">
        <ele>949.4</ele>
        <time>2021-08-08T12:57:24Z</time>
      </trkpt>
      <trkpt lat="44.84551" lon="3.75513">
        <ele>947</ele>
        <time>2021-08-08T12:57:26Z</time>
      </trkpt>
      <trkpt lat="44.84534" lon="3.75503">
        <ele>944</ele>
        <time>2021-08-08T12:57:28Z</time>
      </trkpt>
      <trkpt lat="44.84519" lon="3.75492">
        <ele>942.5</ele>
        <time>2021-08-08T12:57:30Z</time>
      </trkpt>
      <trkpt lat="44.84505" lon="3.75485">
        <ele>941.7</ele>
        <time>2021-08-08T12:57:32Z</time>
      </trkpt>
      <trkpt lat="44.84492" lon="3.75487">
        <ele>941.3</ele>
        <time>2021-08-08T12:57:34Z</time>
      </trkpt>
      <trkpt lat="44.84479" lon="3.75492">
        <ele>941.1</ele>
        <time>2021-08-08T12:57:36Z</time>
      </trkpt>
      <trkpt lat="44.84463" lon="3.75493">
        <ele>941.1</ele>
        <time>2021-08-08T12:57:38Z</time>
      </trkpt>
      <trkpt lat="44.84446" lon="3.75487">
        <ele>941</ele>
        <time>2021-08-08T12:57:40Z</time>
      </trkpt>
      <trkpt lat="44.8443" lon="3.75475">
        <ele>940.8</ele>
        <time>2021-08-08T12:57:42Z</time>
      </trkpt>
      <trkpt lat="44.84412" lon="3.75468">
        <ele>940.6</ele>
        <time>2021-08-08T12:57:44Z</time>
      </trkpt>
      <trkpt lat="44.84393" lon="3.75465">
        <ele>940.3</ele>
        <time>2021-08-08T12:57:46Z</time>
      </trkpt>
      <trkpt lat="44.84373" lon="3.75462">
        <ele>939.8</ele>
        <time>2021-08-08T12:57:48Z</time>
      </trkpt>
      <trkpt lat="44.84353" lon="3.75452">
        <ele>938.1</ele>
        <time>2021-08-08T12:57:50Z</time>
      </trkpt>
      <trkpt lat="44.84334" lon="3.75438">
        <ele>934.8</ele>
        <time>2021-08-08T12:57:52Z</time>
      </trkpt>
      <trkpt lat="44.84316" lon="3.75425">
        <ele>930.7</ele>
        <time>2021-08-08T12:57:54Z</time>
      </trkpt>
      <trkpt lat="44.843" lon="3.75412">
        <ele>927.8</ele>
        <time>2021-08-08T12:57:56Z</time>
      </trkpt>
      <trkpt lat="44.84288" lon="3.75394">
        <ele>928.3</ele>
        <time>2021-08-08T12:57:58Z</time>
      </trkpt>
      <trkpt lat="44.84277" lon="3.75377">
        <ele>928.7</ele>
        <time>2021-08-08T12:58:00Z</time>
      </trkpt>
      <trkpt lat="44.84262" lon="3.75367">
        <ele>928.1</ele>
        <time>2021-08-08T12:58:02Z</time>
      </trkpt>
      <trkpt lat="44.84246" lon="3.75365">
        <ele>926.8</ele>
        <time>2021-08-08T12:58:04Z</time>
      </trkpt>
      <trkpt lat="44.8423" lon="3.75365">
        <ele>926.2</ele>
        <time>2021-08-08T12:58:06Z</time>
      </trkpt>
      <trkpt lat="44.84215" lon="3.75365">
        <ele>925.6</ele>
        <time>2021-08-08T12:58:08Z</time>
      </trkpt>
      <trkpt lat="44.84199" lon="3.75366">
        <ele>925</ele>
        <time>2021-08-08T12:58:10Z</time>
      </trkpt>
      <trkpt lat="44.84183" lon="3.75368">
        <ele>924.1</ele>
        <time>2021-08-08T12:58:12Z</time>
      </trkpt>
      <trkpt lat="44.84168" lon="3.75372">
        <ele>922.6</ele>
        <time>2021-08-08T12:58:14Z</time>
      </trkpt>
      <trkpt lat="44.84154" lon="3.75379">
        <ele>920.8</ele>
        <time>2021-08-08T12:58:16Z</time>
      </trkpt>
      <trkpt lat="44.8414" lon="3.75383">
        <ele>919.4</ele>
        <time>2021-08-08T12:58:18Z</time>
      </trkpt>
      <trkpt lat="44.84125" lon="3.75387">
        <ele>918.1</ele>
        <time>2021-08-08T12:58:20Z</time>
      </trkpt>
      <trkpt lat="44.8411" lon="3.75388">
        <ele>917.2</ele>
        <time>2021-08-08T12:58:22Z</time>
      </trkpt>
      <trkpt lat="44.84096" lon="3.75385">
        <ele>917.3</ele>
        <time>2021-08-08T12:58:24Z</time>
      </trkpt>
      <trkpt lat="44.84082" lon="3.75377">
        <ele>918.3</ele>
        <time>2021-08-08T12:58:26Z</time>
      </trkpt>
      <trkpt lat="44.84069" lon="3.75365">
        <ele>918.7</ele>
        <time>2021-08-08T12:58:28Z</time>
      </trkpt>
      <trkpt lat="44.84056" lon="3.75351">
        <ele>919.1</ele>
        <time>2021-08-08T12:58:30Z</time>
      </trkpt>
      <trkpt lat="44.84044" lon="3.75337">
        <ele>919</ele>
        <time>2021-08-08T12:58:32Z</time>
      </trkpt>
      <trkpt lat="44.84032" lon="3.75323">
        <ele>918.7</ele>
        <time>2021-08-08T12:58:34Z</time>
      </trkpt>
      <trkpt lat="44.8402" lon="3.75311">
        <ele>918.3</ele>
        <time>2021-08-08T12:58:36Z</time>
      </trkpt>
      <trkpt lat="44.84008" lon="3.75304">
        <ele>917.5</ele>
        <time>2021-08-08T12:58:38Z</time>
      </trkpt>
      <trkpt lat="44.83994" lon="3.75301">
        <ele>915.5</ele>
        <time>2021-08-08T12:58:40Z</time>
      </trkpt>
      <trkpt lat="44.8398" lon="3.75298">
        <ele>913.3</ele>
        <time>2021-08-08T12:58:42Z</time>
      </trkpt>
      <trkpt lat="44.83964" lon="3.75294">
        <ele>911.2</ele>
        <time>2021-08-08T12:58:44Z</time>
      </trkpt>
      <trkpt lat="44.83949" lon="3.75287">
        <ele>909.5</ele>
        <time>2021-08-08T12:58:46Z</time>
      </trkpt>
      <trkpt lat="44.83934" lon="3.75279">
        <ele>908</ele>
        <time>2021-08-08T12:58:48Z</time>
      </trkpt>
      <trkpt lat="44.83922" lon="3.75266">
        <ele>907.5</ele>
        <time>2021-08-08T12:58:50Z</time>
      </trkpt>
      <trkpt lat="44.8391" lon="3.75254">
        <ele>907.2</ele>
        <time>2021-08-08T12:58:52Z</time>
      </trkpt>
      <trkpt lat="44.83896" lon="3.75244">
        <ele>906.2</ele>
        <time>2021-08-08T12:58:54Z</time>
      </trkpt>
      <trkpt lat="44.8388" lon="3.75235">
        <ele>905.1</ele>
        <time>2021-08-08T12:58:56Z</time>
      </trkpt>
      <trkpt lat="44.83864" lon="3.75226">
        <ele>904</ele>
        <time>2021-08-08T12:58:58Z</time>
      </trkpt>
      <trkpt lat="44.83849" lon="3.75215">
        <ele>903.3</ele>
        <time>2021-08-08T12:59:00Z</time>
      </trkpt>
      <trkpt lat="44.83833" lon="3.75204">
        <ele>902.6</ele>
        <time>2021-08-08T12:59:02Z</time>
      </trkpt>
      <trkpt lat="44.83815" lon="3.75197">
        <ele>900.5</ele>
        <time>2021-08-08T12:59:04Z</time>
      </trkpt>
      <trkpt lat="44.83798" lon="3.75189">
        <ele>898.5</ele>
        <time>2021-08-08T12:59:06Z</time>
      </trkpt>
      <trkpt lat="44.8378" lon="3.75181">
        <ele>896.2</ele>
        <time>2021-08-08T12:59:08Z</time>
      </trkpt>
      <trkpt lat="44.83763" lon="3.75173">
        <ele>893.9</ele>
        <time>2021-08-08T12:59:10Z</time>
      </trkpt>
      <trkpt lat="44.83748" lon="3.75162">
        <ele>892.7</ele>
        <time>2021-08-08T12:59:12Z</time>
      </trkpt>
      <trkpt lat="44.83732" lon="3.75153">
        <ele>891.9</ele>
        <time>2021-08-08T12:59:14Z</time>
      </trkpt>
      <trkpt lat="44.83717" lon="3.75141">
        <ele>891.1</ele>
        <time>2021-08-08T12:59:16Z</time>
      </trkpt>
      <trkpt lat="44.83703" lon="3.75124">
        <ele>891</ele>
        <time>2021-08-08T12:59:18Z</time>
      </trkpt>
      <trkpt lat="44.8369" lon="3.75109">
        <ele>890.1</ele>
        <time>2021-08-08T12:59:20Z</time>
      </trkpt>
      <trkpt lat="44.83674" lon="3.75094">
        <ele>887.9</ele>
        <time>2021-08-08T12:59:22Z</time>
      </trkpt>
      <trkpt lat="44.83661" lon="3.75077">
        <ele>886.5</ele>
        <time>2021-08-08T12:59:24Z</time>
      </trkpt>
      <trkpt lat="44.83649" lon="3.7506">
        <ele>885.9</ele>
        <time>2021-08-08T12:59:26Z</time>
      </trkpt>
      <trkpt lat="44.83636" lon="3.75049">
        <ele>883.4</ele>
        <time>2021-08-08T12:59:28Z</time>
      </trkpt>
      <trkpt lat="44.83621" lon="3.75047">
        <ele>879</ele>
        <time>2021-08-08T12:59:30Z</time>
      </trkpt>
      <trkpt lat="44.83607" lon="3.75044">
        <ele>874.6</ele>
        <time>2021-08-08T12:59:32Z</time>
      </trkpt>
      <trkpt lat="44.83596" lon="3.75039">
        <ele>871.1</ele>
        <time>2021-08-08T12:59:34Z</time>
      </trkpt>
      <trkpt lat="44.83588" lon="3.7503">
        <ele>868.6</ele>
        <time>2021-08-08T12:59:36Z</time>
      </trkpt>
      <trkpt lat="44.83586" lon="3.7501">
        <ele>868</ele>
        <time>2021-08-08T12:59:38Z</time>
      </trkpt>
      <trkpt lat="44.8359" lon="3.74987">
        <ele>867.7</ele>
        <time>2021-08-08T12:59:40Z</time>
      </trkpt>
      <trkpt lat="44.83594" lon="3.74965">
        <ele>866.2</ele>
        <time>2021-08-08T12:59:42Z</time>
      </trkpt>
      <trkpt lat="44.83596" lon="3.74941">
        <ele>864</ele>
        <time>2021-08-08T12:59:44Z</time>
      </trkpt>
      <trkpt lat="44.83599" lon="3.7492">
        <ele>862.8</ele>
        <time>2021-08-08T12:59:46Z</time>
      </trkpt>
      <trkpt lat="44.83607" lon="3.74901">
        <ele>862.9</ele>
        <time>2021-08-08T12:59:48Z</time>
      </trkpt>
      <trkpt lat="44.83615" lon="3.74884">
        <ele>863.6</ele>
        <time>2021-08-08T12:59:50Z</time>
      </trkpt>
      <trkpt lat="44.83623" lon="3.7487">
        <ele>864.8</ele>
        <time>2021-08-08T12:59:52Z</time>
      </trkpt>
      <trkpt lat="44.83632" lon="3.74855">
        <ele>865.9</ele>
        <time>2021-08-08T12:59:54Z</time>
      </trkpt>
      <trkpt lat="44.8364" lon="3.74838">
        <ele>866.4</ele>
        <time>2021-08-08T12:59:56Z</time>
      </trkpt>
      <trkpt lat="44.83648" lon="3.74821">
        <ele>865</ele>
        <time>2021-08-08T12:59:58Z</time>
      </trkpt>
      <trkpt lat="44.83655" lon="3.74805">
        <ele>862.9</ele>
        <time>2021-08-08T13:00:00Z</time>
      </trkpt>
      <trkpt lat="44.83662" lon="3.74792">
        <ele>861.5</ele>
        <time>2021-08-08T13:00:02Z</time>
      </trkpt>
      <trkpt lat="44.8367" lon="3.74779">
        <ele>859.6</ele>
        <time>2021-08-08T13:00:04Z</time>
      </trkpt>
      <trkpt lat="44.83678" lon="3.7477">
        <ele>857</ele>
        <time>2021-08-08T13:00:06Z</time>
      </trkpt>
      <trkpt lat="44.83686" lon="3.74763">
        <ele>855</ele>
        <time>2021-08-08T13:00:08Z</time>
      </trkpt>
      <trkpt lat="44.83693" lon="3.74759">
        <ele>853.8</ele>
        <time>2021-08-08T13:00:10Z</time>
      </trkpt>
      <trkpt lat="44.83701" lon="3.74757">
        <ele>853.4</ele>
        <time>2021-08-08T13:00:12Z</time>
      </trkpt>
      <trkpt lat="44.83709" lon="3.74755">
        <ele>853.1</ele>
        <time>2021-08-08T13:00:14Z</time>
      </trkpt>
      <trkpt lat="44.83717" lon="3.74753">
        <ele>852.8</ele>
        <time>2021-08-08T13:00:16Z</time>
      </trkpt>
      <trkpt lat="44.83725" lon="3.74752">
        <ele>852.7</ele>
        <time>2021-08-08T13:00:18Z</time>
      </trkpt>
      <trkpt lat="44.83733" lon="3.7475">
        <ele>852.2</ele>
        <time>2021-08-08T13:00:20Z</time>
      </trkpt>
      <trkpt lat="44.83742" lon="3.74748">
        <ele>851.8</ele>
        <time>2021-08-08T13:00:22Z</time>
      </trkpt>
      <trkpt lat="44.83752" lon="3.74746">
        <ele>851.4</ele>
        <time>2021-08-08T13:00:24Z</time>
      </trkpt>
      <trkpt lat="44.83761" lon="3.74744">
        <ele>850.3</ele>
        <time>2021-08-08T13:00:26Z</time>
      </trkpt>
      <trkpt lat="44.8377" lon="3.74744">
        <ele>850.1</ele>
        <time>2021-08-08T13:00:28Z</time>
      </trkpt>
      <trkpt lat="44.83779" lon="3.74745">
        <ele>850.8</ele>
        <time>2021-08-08T13:00:30Z</time>
      </trkpt>
      <trkpt lat="44.83788" lon="3.74746">
        <ele>851</ele>
        <time>2021-08-08T13:00:32Z</time>
      </trkpt>
      <trkpt lat="44.83796" lon="3.74745">
        <ele>850.9</ele>
        <time>2021-08-08T13:00:34Z</time>
      </trkpt>
      <trkpt lat="44.83803" lon="3.74746">
        <ele>851.3</ele>
        <time>2021-08-08T13:00:36Z</time>
      </trkpt>
      <trkpt lat="44.83812" lon="3.74747">
        <ele>851.7</ele>
        <time>2021-08-08T13:00:38Z</time>
      </trkpt>
      <trkpt lat="44.83819" lon="3.74748">
        <ele>852.2</ele>
        <time>2021-08-08T13:00:40Z</time>
      </trkpt>
      <trkpt lat="44.83828" lon="3.74749">
        <ele>852.4</ele>
        <time>2021-08-08T13:00:42Z</time>
      </trkpt>
      <trkpt lat="44.83837" lon="3.74747">
        <ele>851.9</ele>
        <time>2021-08-08T13:00:44Z</time>
      </trkpt>
      <trkpt lat="44.83845" lon="3.74745">
        <ele>851.9</ele>
        <time>2021-08-08T13:00:46Z</time>
      </trkpt>
      <trkpt lat="44.83854" lon="3.74741">
        <ele>851.3</ele>
        <time>2021-08-08T13:00:48Z</time>
      </trkpt>
      <trkpt lat="44.83863" lon="3.74737">
        <ele>850.3</ele>
        <time>2021-08-08T13:00:50Z</time>
      </trkpt>
      <trkpt lat="44.83873" lon="3.74732">
        <ele>849.7</ele>
        <time>2021-08-08T13:00:52Z</time>
      </trkpt>
      <trkpt lat="44.83884" lon="3.74728">
        <ele>849.2</ele>
        <time>2021-08-08T13:00:54Z</time>
      </trkpt>
      <trkpt lat="44.83895" lon="3.74722">
        <ele>848.2</ele>
        <time>2021-08-08T13:00:56Z</time>
      </trkpt>
      <trkpt lat="44.83906" lon="3.74714">
        <ele>846.4</ele>
        <time>2021-08-08T13:00:58Z</time>
      </trkpt>
      <trkpt lat="44.83916" lon="3.74705">
        <ele>844.1</ele>
        <time>2021-08-08T13:01:00Z</time>
      </trkpt>
      <trkpt lat="44.83924" lon="3.74694">
        <ele>842.2</ele>
        <time>2021-08-08T13:01:02Z</time>
      </trkpt>
      <trkpt lat="44.83933" lon="3.74682">
        <ele>840.1</ele>
        <time>2021-08-08T13:01:04Z</time>
      </trkpt>
      <trkpt lat="44.8394" lon="3.74669">
        <ele>837.7</ele>
        <time>2021-08-08T13:01:06Z</time>
      </trkpt>
      <trkpt lat="44.83947" lon="3.74656">
        <ele>836.9</ele>
        <time>2021-08-08T13:01:08Z</time>
      </trkpt>
      <trkpt lat="44.83955" lon="3.74642">
        <ele>836.7</ele>
        <time>2021-08-08T13:01:10Z</time>
      </trkpt>
      <trkpt lat="44.8396" lon="3.74628">
        <ele>835.7</ele>
        <time>2021-08-08T13:01:12Z</time>
      </trkpt>
      <trkpt lat="44.83965" lon="3.74613">
        <ele>834.6</ele>
        <time>2021-08-08T13:01:14Z</time>
      </trkpt>
      <trkpt lat="44.8397" lon="3.74598">
        <ele>833.2</ele>
        <time>2021-08-08T13:01:16Z</time>
      </trkpt>
      <trkpt lat="44.83974" lon="3.74582">
        <ele>831.1</ele>
        <time>2021-08-08T13:01:18Z</time>
      </trkpt>
      <trkpt lat="44.83974" lon="3.74565">
        <ele>828.3</ele>
        <time>2021-08-08T13:01:20Z</time>
      </trkpt>
      <trkpt lat="44.83972" lon="3.74548">
        <ele>825.1</ele>
        <time>2021-08-08T13:01:22Z</time>
      </trkpt>
      <trkpt lat="44.83973" lon="3.74532">
        <ele>822.8</ele>
        <time>2021-08-08T13:01:24Z</time>
      </trkpt>
      <trkpt lat="44.83979" lon="3.74515">
        <ele>821.5</ele>
        <time>2021-08-08T13:01:26Z</time>
      </trkpt>
      <trkpt lat="44.83987" lon="3.74499">
        <ele>821.4</ele>
        <time>2021-08-08T13:01:28Z</time>
      </trkpt>
      <trkpt lat="44.83993" lon="3.74481">
        <ele>820.1</ele>
        <time>2021-08-08T13:01:30Z</time>
      </trkpt>
      <trkpt lat="44.83993" lon="3.7446">
        <ele>817</ele>
        <time>2021-08-08T13:01:32Z</time>
      </trkpt>
      <trkpt lat="44.83994" lon="3.7444">
        <ele>814</ele>
        <time>2021-08-08T13:01:34Z</time>
      </trkpt>
      <trkpt lat="44.83996" lon="3.7442">
        <ele>812</ele>
        <time>2021-08-08T13:01:36Z</time>
      </trkpt>
      <trkpt lat="44.84003" lon="3.74399">
        <ele>810.1</ele>
        <time>2021-08-08T13:01:38Z</time>
      </trkpt>
      <trkpt lat="44.84012" lon="3.74379">
        <ele>809.5</ele>
        <time>2021-08-08T13:01:40Z</time>
      </trkpt>
      <trkpt lat="44.84023" lon="3.74359">
        <ele>809.4</ele>
        <time>2021-08-08T13:01:42Z</time>
      </trkpt>
      <trkpt lat="44.84034" lon="3.7434">
        <ele>809.2</ele>
        <time>2021-08-08T13:01:44Z</time>
      </trkpt>
      <trkpt lat="44.84045" lon="3.7432">
        <ele>808.4</ele>
        <time>2021-08-08T13:01:46Z</time>
      </trkpt>
      <trkpt lat="44.84056" lon="3.74301">
        <ele>807.4</ele>
        <time>2021-08-08T13:01:48Z</time>
      </trkpt>
      <trkpt lat="44.84068" lon="3.74284">
        <ele>806.9</ele>
        <time>2021-08-08T13:01:50Z</time>
      </trkpt>
      <trkpt lat="44.84078" lon="3.74266">
        <ele>805.5</ele>
        <time>2021-08-08T13:01:52Z</time>
      </trkpt>
      <trkpt lat="44.84085" lon="3.74247">
        <ele>803.2</ele>
        <time>2021-08-08T13:01:54Z</time>
      </trkpt>
      <trkpt lat="44.84088" lon="3.74228">
        <ele>801.1</ele>
        <time>2021-08-08T13:01:56Z</time>
      </trkpt>
      <trkpt lat="44.84086" lon="3.74208">
        <ele>797.6</ele>
        <time>2021-08-08T13:01:58Z</time>
      </trkpt>
      <trkpt lat="44.84085" lon="3.74186">
        <ele>794.3</ele>
        <time>2021-08-08T13:02:00Z</time>
      </trkpt>
      <trkpt lat="44.84087" lon="3.74164">
        <ele>791.3</ele>
        <time>2021-08-08T13:02:02Z</time>
      </trkpt>
      <trkpt lat="44.84089" lon="3.74142">
        <ele>788.4</ele>
        <time>2021-08-08T13:02:04Z</time>
      </trkpt>
      <trkpt lat="44.84091" lon="3.74121">
        <ele>785.5</ele>
        <time>2021-08-08T13:02:06Z</time>
      </trkpt>
      <trkpt lat="44.84094" lon="3.74102">
        <ele>782.8</ele>
        <time>2021-08-08T13:02:08Z</time>
      </trkpt>
      <trkpt lat="44.84095" lon="3.74081">
        <ele>779.6</ele>
        <time>2021-08-08T13:02:10Z</time>
      </trkpt>
      <trkpt lat="44.84092" lon="3.7406">
        <ele>776.7</ele>
        <time>2021-08-08T13:02:12Z</time>
      </trkpt>
      <trkpt lat="44.84087" lon="3.74041">
        <ele>774.4</ele>
        <time>2021-08-08T13:02:14Z</time>
      </trkpt>
      <trkpt lat="44.84084" lon="3.74024">
        <ele>772.5</ele>
        <time>2021-08-08T13:02:16Z</time>
      </trkpt>
      <trkpt lat="44.84081" lon="3.74008">
        <ele>770.1</ele>
        <time>2021-08-08T13:02:18Z</time>
      </trkpt>
      <trkpt lat="44.84078" lon="3.73994">
        <ele>767.7</ele>
        <time>2021-08-08T13:02:20Z</time>
      </trkpt>
      <trkpt lat="44.8408" lon="3.73983">
        <ele>767</ele>
        <time>2021-08-08T13:02:22Z</time>
      </trkpt>
      <trkpt lat="44.84089" lon="3.73977">
        <ele>766.5</ele>
        <time>2021-08-08T13:02:24Z</time>
      </trkpt>
      <trkpt lat="44.84099" lon="3.73985">
        <ele>766.2</ele>
        <time>2021-08-08T13:02:26Z</time>
      </trkpt>
      <trkpt lat="44.84106" lon="3.74001">
        <ele>767.5</ele>
        <time>2021-08-08T13:02:28Z</time>
      </trkpt>
      <trkpt lat="44.84115" lon="3.74016">
        <ele>769.3</ele>
        <time>2021-08-08T13:02:30Z</time>
      </trkpt>
      <trkpt lat="44.84126" lon="3.74029">
        <ele>771</ele>
        <time>2021-08-08T13:02:32Z</time>
      </trkpt>
      <trkpt lat="44.8414" lon="3.74041">
        <ele>773.3</ele>
        <time>2021-08-08T13:02:34Z</time>
      </trkpt>
      <trkpt lat="44.84155" lon="3.7405">
        <ele>775.6</ele>
        <time>2021-08-08T13:02:36Z</time>
      </trkpt>
      <trkpt lat="44.84173" lon="3.74058">
        <ele>777</ele>
        <time>2021-08-08T13:02:38Z</time>
      </trkpt>
      <trkpt lat="44.8419" lon="3.74066">
        <ele>776.2</ele>
        <time>2021-08-08T13:02:40Z</time>
      </trkpt>
      <trkpt lat="44.84207" lon="3.74074">
        <ele>775.4</ele>
        <time>2021-08-08T13:02:42Z</time>
      </trkpt>
      <trkpt lat="44.84223" lon="3.74084">
        <ele>775.5</ele>
        <time>2021-08-08T13:02:44Z</time>
      </trkpt>
      <trkpt lat="44.84237" lon="3.74097">
        <ele>776.6</ele>
        <time>2021-08-08T13:02:46Z</time>
      </trkpt>
      <trkpt lat="44.84247" lon="3.7411">
        <ele>778.2</ele>
        <time>2021-08-08T13:02:48Z</time>
      </trkpt>
      <trkpt lat="44.84258" lon="3.74114">
        <ele>777.2</ele>
        <time>2021-08-08T13:02:50Z</time>
      </trkpt>
      <trkpt lat="44.84266" lon="3.74106">
        <ele>773</ele>
        <time>2021-08-08T13:02:52Z</time>
      </trkpt>
      <trkpt lat="44.84269" lon="3.74094">
        <ele>768.9</ele>
        <time>2021-08-08T13:02:54Z</time>
      </trkpt>
      <trkpt lat="44.84262" lon="3.7408">
        <ele>766.2</ele>
        <time>2021-08-08T13:02:56Z</time>
      </trkpt>
      <trkpt lat="44.84248" lon="3.74073">
        <ele>767</ele>
        <time>2021-08-08T13:02:58Z</time>
      </trkpt>
      <trkpt lat="44.84234" lon="3.74064">
        <ele>766.8</ele>
        <time>2021-08-08T13:03:00Z</time>
      </trkpt>
      <trkpt lat="44.84222" lon="3.74051">
        <ele>765.1</ele>
        <time>2021-08-08T13:03:02Z</time>
      </trkpt>
      <trkpt lat="44.84208" lon="3.74037">
        <ele>763.1</ele>
        <time>2021-08-08T13:03:04Z</time>
      </trkpt>
      <trkpt lat="44.84194" lon="3.74024">
        <ele>761.9</ele>
        <time>2021-08-08T13:03:06Z</time>
      </trkpt>
      <trkpt lat="44.84181" lon="3.74009">
        <ele>759.9</ele>
        <time>2021-08-08T13:03:08Z</time>
      </trkpt>
      <trkpt lat="44.8417" lon="3.73993">
        <ele>758</ele>
        <time>2021-08-08T13:03:10Z</time>
      </trkpt>
      <trkpt lat="44.84162" lon="3.73974">
        <ele>756.2</ele>
        <time>2021-08-08T13:03:12Z</time>
      </trkpt>
      <trkpt lat="44.84157" lon="3.73957">
        <ele>754.2</ele>
        <time>2021-08-08T13:03:14Z</time>
      </trkpt>
      <trkpt lat="44.84151" lon="3.73941">
        <ele>752.5</ele>
        <time>2021-08-08T13:03:16Z</time>
      </trkpt>
      <trkpt lat="44.84146" lon="3.73928">
        <ele>751.3</ele>
        <time>2021-08-08T13:03:18Z</time>
      </trkpt>
      <trkpt lat="44.84142" lon="3.73917">
        <ele>750.3</ele>
        <time>2021-08-08T13:03:20Z</time>
      </trkpt>
      <trkpt lat="44.84143" lon="3.73914">
        <ele>749.8</ele>
        <time>2021-08-08T13:03:22Z</time>
      </trkpt>
      <trkpt lat="44.84145" lon="3.73913">
        <ele>749.2</ele>
        <time>2021-08-08T13:03:24Z</time>
      </trkpt>
      <trkpt lat="44.84145" lon="3.73913">
        <ele>749.3</ele>
        <time>2021-08-08T13:03:26Z</time>
      </trkpt>
      <trkpt lat="44.84146" lon="3.73913">
        <ele>749.2</ele>
        <time>2021-08-08T13:03:28Z</time>
      </trkpt>
      <trkpt lat="44.84146" lon="3.73913">
        <ele>749.1</ele>
        <time>2021-08-08T13:03:30Z</time>
      </trkpt>
      <trkpt lat="44.84146" lon="3.73913">
        <ele>749.1</ele>
        <time>2021-08-08T13:03:32Z</time>
      </trkpt>
      <trkpt lat="44.84138" lon="3.73891">
        <ele>748.1</ele>
        <time>2021-08-08T13:04:38Z</time>
      </trkpt>
      <trkpt lat="44.84134" lon="3.73879">
        <ele>747.4</ele>
        <time>2021-08-08T13:04:40Z</time>
      </trkpt>
      <trkpt lat="44.8413" lon="3.73864">
        <ele>746.4</ele>
        <time>2021-08-08T13:04:42Z</time>
      </trkpt>
      <trkpt lat="44.84125" lon="3.73849">
        <ele>745.3</ele>
        <time>2021-08-08T13:04:44Z</time>
      </trkpt>
      <trkpt lat="44.84119" lon="3.73835">
        <ele>744.3</ele>
        <time>2021-08-08T13:04:46Z</time>
      </trkpt>
      <trkpt lat="44.84113" lon="3.73822">
        <ele>743.9</ele>
        <time>2021-08-08T13:04:48Z</time>
      </trkpt>
      <trkpt lat="44.84106" lon="3.7381">
        <ele>743.7</ele>
        <time>2021-08-08T13:04:50Z</time>
      </trkpt>
      <trkpt lat="44.84098" lon="3.738">
        <ele>743.6</ele>
        <time>2021-08-08T13:04:52Z</time>
      </trkpt>
      <trkpt lat="44.84089" lon="3.73796">
        <ele>744.2</ele>
        <time>2021-08-08T13:04:54Z</time>
      </trkpt>
      <trkpt lat="44.84081" lon="3.73801">
        <ele>745.1</ele>
        <time>2021-08-08T13:04:56Z</time>
      </trkpt>
      <trkpt lat="44.84074" lon="3.73813">
        <ele>745.2</ele>
        <time>2021-08-08T13:04:58Z</time>
      </trkpt>
      <trkpt lat="44.84067" lon="3.73821">
        <ele>745</ele>
        <time>2021-08-08T13:05:00Z</time>
      </trkpt>
      <trkpt lat="44.84059" lon="3.73829">
        <ele>744.7</ele>
        <time>2021-08-08T13:05:02Z</time>
      </trkpt>
      <trkpt lat="44.84051" lon="3.73836">
        <ele>744.4</ele>
        <time>2021-08-08T13:05:04Z</time>
      </trkpt>
      <trkpt lat="44.84044" lon="3.73842">
        <ele>744.2</ele>
        <time>2021-08-08T13:05:06Z</time>
      </trkpt>
      <trkpt lat="44.84038" lon="3.73848">
        <ele>744</ele>
        <time>2021-08-08T13:05:08Z</time>
      </trkpt>
      <trkpt lat="44.84032" lon="3.73855">
        <ele>743.8</ele>
        <time>2021-08-08T13:05:10Z</time>
      </trkpt>
      <trkpt lat="44.84026" lon="3.73863">
        <ele>743.7</ele>
        <time>2021-08-08T13:05:12Z</time>
      </trkpt>
      <trkpt lat="44.84021" lon="3.73871">
        <ele>743.5</ele>
        <time>2021-08-08T13:05:14Z</time>
      </trkpt>
      <trkpt lat="44.84016" lon="3.73881">
        <ele>743.6</ele>
        <time>2021-08-08T13:05:16Z</time>
      </trkpt>
      <trkpt lat="44.84011" lon="3.73891">
        <ele>743.5</ele>
        <time>2021-08-08T13:05:18Z</time>
      </trkpt>
      <trkpt lat="44.84008" lon="3.73903">
        <ele>743.7</ele>
        <time>2021-08-08T13:05:20Z</time>
      </trkpt>
      <trkpt lat="44.84005" lon="3.73914">
        <ele>743.8</ele>
        <time>2021-08-08T13:05:22Z</time>
      </trkpt>
      <trkpt lat="44.84003" lon="3.73923">
        <ele>743.6</ele>
        <time>2021-08-08T13:05:24Z</time>
      </trkpt>
      <trkpt lat="44.84001" lon="3.7393">
        <ele>743</ele>
        <time>2021-08-08T13:05:26Z</time>
      </trkpt>
      <trkpt lat="44.83996" lon="3.73935">
        <ele>742.4</ele>
        <time>2021-08-08T13:05:28Z</time>
      </trkpt>
      <trkpt lat="44.8399" lon="3.73931">
        <ele>742</ele>
        <time>2021-08-08T13:05:30Z</time>
      </trkpt>
      <trkpt lat="44.83985" lon="3.73929">
        <ele>741.6</ele>
        <time>2021-08-08T13:05:32Z</time>
      </trkpt>
      <trkpt lat="44.8398" lon="3.73928">
        <ele>741.2</ele>
        <time>2021-08-08T13:05:34Z</time>
      </trkpt>
      <trkpt lat="44.83976" lon="3.73926">
        <ele>740.9</ele>
        <time>2021-08-08T13:05:36Z</time>
      </trkpt>
      <trkpt lat="44.83972" lon="3.73924">
        <ele>740.6</ele>
        <time>2021-08-08T13:05:38Z</time>
      </trkpt>
      <trkpt lat="44.8397" lon="3.73924">
        <ele>740.5</ele>
        <time>2021-08-08T13:05:40Z</time>
      </trkpt>
      <trkpt lat="44.83968" lon="3.73924">
        <ele>740.3</ele>
        <time>2021-08-08T13:05:42Z</time>
      </trkpt>
      <trkpt lat="44.83967" lon="3.73923">
        <ele>740.2</ele>
        <time>2021-08-08T13:05:44Z</time>
      </trkpt>
      <trkpt lat="44.83967" lon="3.73923">
        <ele>740.2</ele>
        <time>2021-08-08T13:05:46Z</time>
      </trkpt>
      <trkpt lat="44.83967" lon="3.73923">
        <ele>740.2</ele>
        <time>2021-08-08T13:05:48Z</time>
      </trkpt>
      <trkpt lat="44.84021" lon="3.73968">
        <ele>748.4</ele>
        <time>2021-08-08T13:09:32Z</time>
      </trkpt>
      <trkpt lat="44.84024" lon="3.73977">
        <ele>749.5</ele>
        <time>2021-08-08T13:09:34Z</time>
      </trkpt>
      <trkpt lat="44.84026" lon="3.73988">
        <ele>750.3</ele>
        <time>2021-08-08T13:09:36Z</time>
      </trkpt>
      <trkpt lat="44.84027" lon="3.73999">
        <ele>751.1</ele>
        <time>2021-08-08T13:09:38Z</time>
      </trkpt>
      <trkpt lat="44.84027" lon="3.7401">
        <ele>751.8</ele>
        <time>2021-08-08T13:09:40Z</time>
      </trkpt>
      <trkpt lat="44.84025" lon="3.74021">
        <ele>751.9</ele>
        <time>2021-08-08T13:09:42Z</time>
      </trkpt>
      <trkpt lat="44.84025" lon="3.74031">
        <ele>752.3</ele>
        <time>2021-08-08T13:09:44Z</time>
      </trkpt>
      <trkpt lat="44.84023" lon="3.74042">
        <ele>752.5</ele>
        <time>2021-08-08T13:09:46Z</time>
      </trkpt>
      <trkpt lat="44.84022" lon="3.74052">
        <ele>752.6</ele>
        <time>2021-08-08T13:09:48Z</time>
      </trkpt>
      <trkpt lat="44.8402" lon="3.74063">
        <ele>752.6</ele>
        <time>2021-08-08T13:09:50Z</time>
      </trkpt>
      <trkpt lat="44.84019" lon="3.74073">
        <ele>753</ele>
        <time>2021-08-08T13:09:52Z</time>
      </trkpt>
      <trkpt lat="44.84018" lon="3.74084">
        <ele>753</ele>
        <time>2021-08-08T13:09:54Z</time>
      </trkpt>
      <trkpt lat="44.84015" lon="3.74095">
        <ele>753.2</ele>
        <time>2021-08-08T13:09:56Z</time>
      </trkpt>
      <trkpt lat="44.84014" lon="3.74105">
        <ele>753.6</ele>
        <time>2021-08-08T13:09:58Z</time>
      </trkpt>
      <trkpt lat="44.84012" lon="3.74115">
        <ele>753.7</ele>
        <time>2021-08-08T13:10:00Z</time>
      </trkpt>
      <trkpt lat="44.8401" lon="3.74124">
        <ele>753.7</ele>
        <time>2021-08-08T13:10:02Z</time>
      </trkpt>
      <trkpt lat="44.84007" lon="3.74133">
        <ele>753.3</ele>
        <time>2021-08-08T13:10:04Z</time>
      </trkpt>
      <trkpt lat="44.84005" lon="3.74142">
        <ele>753</ele>
        <time>2021-08-08T13:10:06Z</time>
      </trkpt>
      <trkpt lat="44.84001" lon="3.74151">
        <ele>752.2</ele>
        <time>2021-08-08T13:10:08Z</time>
      </trkpt>
      <trkpt lat="44.83997" lon="3.7416">
        <ele>751.8</ele>
        <time>2021-08-08T13:10:10Z</time>
      </trkpt>
      <trkpt lat="44.83993" lon="3.74168">
        <ele>751.7</ele>
        <time>2021-08-08T13:10:12Z</time>
      </trkpt>
      <trkpt lat="44.83989" lon="3.74176">
        <ele>752.2</ele>
        <time>2021-08-08T13:10:14Z</time>
      </trkpt>
      <trkpt lat="44.83985" lon="3.74183">
        <ele>752.4</ele>
        <time>2021-08-08T13:10:16Z</time>
      </trkpt>
      <trkpt lat="44.8398" lon="3.74191">
        <ele>752.6</ele>
        <time>2021-08-08T13:10:18Z</time>
      </trkpt>
      <trkpt lat="44.83976" lon="3.74198">
        <ele>752.7</ele>
        <time>2021-08-08T13:10:20Z</time>
      </trkpt>
      <trkpt lat="44.83972" lon="3.74205">
        <ele>752.7</ele>
        <time>2021-08-08T13:10:22Z</time>
      </trkpt>
      <trkpt lat="44.83969" lon="3.74212">
        <ele>752.7</ele>
        <time>2021-08-08T13:10:24Z</time>
      </trkpt>
      <trkpt lat="44.83965" lon="3.7422">
        <ele>752.7</ele>
        <time>2021-08-08T13:10:26Z</time>
      </trkpt>
      <trkpt lat="44.83962" lon="3.74227">
        <ele>752.6</ele>
        <time>2021-08-08T13:10:28Z</time>
      </trkpt>
      <trkpt lat="44.83958" lon="3.74234">
        <ele>752.3</ele>
        <time>2021-08-08T13:10:30Z</time>
      </trkpt>
      <trkpt lat="44.83954" lon="3.74242">
        <ele>751.9</ele>
        <time>2021-08-08T13:10:32Z</time>
      </trkpt>
      <trkpt lat="44.8395" lon="3.74249">
        <ele>751.5</ele>
        <time>2021-08-08T13:10:34Z</time>
      </trkpt>
      <trkpt lat="44.83946" lon="3.74257">
        <ele>751.4</ele>
        <time>2021-08-08T13:10:36Z</time>
      </trkpt>
      <trkpt lat="44.83942" lon="3.74264">
        <ele>751.3</ele>
        <time>2021-08-08T13:10:38Z</time>
      </trkpt>
      <trkpt lat="44.83939" lon="3.74272">
        <ele>751.1</ele>
        <time>2021-08-08T13:10:40Z</time>
      </trkpt>
      <trkpt lat="44.83934" lon="3.74279">
        <ele>750.6</ele>
        <time>2021-08-08T13:10:42Z</time>
      </trkpt>
      <trkpt lat="44.83931" lon="3.74286">
        <ele>750.4</ele>
        <time>2021-08-08T13:10:44Z</time>
      </trkpt>
      <trkpt lat="44.83927" lon="3.74293">
        <ele>749.8</ele>
        <time>2021-08-08T13:10:46Z</time>
      </trkpt>
      <trkpt lat="44.83923" lon="3.74301">
        <ele>749.1</ele>
        <time>2021-08-08T13:10:48Z</time>
      </trkpt>
      <trkpt lat="44.83918" lon="3.74308">
        <ele>748.1</ele>
        <time>2021-08-08T13:10:50Z</time>
      </trkpt>
      <trkpt lat="44.83914" lon="3.74316">
        <ele>748.1</ele>
        <time>2021-08-08T13:10:52Z</time>
      </trkpt>
      <trkpt lat="44.83909" lon="3.74322">
        <ele>748.5</ele>
        <time>2021-08-08T13:10:54Z</time>
      </trkpt>
      <trkpt lat="44.83905" lon="3.7433">
        <ele>748.9</ele>
        <time>2021-08-08T13:10:56Z</time>
      </trkpt>
      <trkpt lat="44.839" lon="3.74335">
        <ele>749</ele>
        <time>2021-08-08T13:10:58Z</time>
      </trkpt>
      <trkpt lat="44.83895" lon="3.7434">
        <ele>749.7</ele>
        <time>2021-08-08T13:11:00Z</time>
      </trkpt>
      <trkpt lat="44.8389" lon="3.74346">
        <ele>750.4</ele>
        <time>2021-08-08T13:11:02Z</time>
      </trkpt>
      <trkpt lat="44.83886" lon="3.74351">
        <ele>751</ele>
        <time>2021-08-08T13:11:04Z</time>
      </trkpt>
      <trkpt lat="44.83882" lon="3.74357">
        <ele>751.6</ele>
        <time>2021-08-08T13:11:06Z</time>
      </trkpt>
      <trkpt lat="44.83878" lon="3.74364">
        <ele>752</ele>
        <time>2021-08-08T13:11:08Z</time>
      </trkpt>
      <trkpt lat="44.83873" lon="3.7437">
        <ele>752.2</ele>
        <time>2021-08-08T13:11:10Z</time>
      </trkpt>
      <trkpt lat="44.83869" lon="3.74375">
        <ele>752.2</ele>
        <time>2021-08-08T13:11:12Z</time>
      </trkpt>
      <trkpt lat="44.83866" lon="3.74381">
        <ele>752.3</ele>
        <time>2021-08-08T13:11:14Z</time>
      </trkpt>
      <trkpt lat="44.83862" lon="3.74388">
        <ele>752.6</ele>
        <time>2021-08-08T13:11:16Z</time>
      </trkpt>
      <trkpt lat="44.83859" lon="3.74394">
        <ele>752.6</ele>
        <time>2021-08-08T13:11:18Z</time>
      </trkpt>
      <trkpt lat="44.83856" lon="3.74402">
        <ele>752.6</ele>
        <time>2021-08-08T13:11:20Z</time>
      </trkpt>
      <trkpt lat="44.83852" lon="3.7441">
        <ele>752.6</ele>
        <time>2021-08-08T13:11:22Z</time>
      </trkpt>
      <trkpt lat="44.83849" lon="3.74418">
        <ele>752.6</ele>
        <time>2021-08-08T13:11:24Z</time>
      </trkpt>
      <trkpt lat="44.83845" lon="3.74426">
        <ele>753.3</ele>
        <time>2021-08-08T13:11:26Z</time>
      </trkpt>
      <trkpt lat="44.8384" lon="3.74434">
        <ele>754</ele>
        <time>2021-08-08T13:11:28Z</time>
      </trkpt>
      <trkpt lat="44.83836" lon="3.74442">
        <ele>754.5</ele>
        <time>2021-08-08T13:11:30Z</time>
      </trkpt>
      <trkpt lat="44.83831" lon="3.74449">
        <ele>755.3</ele>
        <time>2021-08-08T13:11:32Z</time>
      </trkpt>
      <trkpt lat="44.83825" lon="3.74456">
        <ele>756.4</ele>
        <time>2021-08-08T13:11:34Z</time>
      </trkpt>
      <trkpt lat="44.8382" lon="3.74462">
        <ele>757.2</ele>
        <time>2021-08-08T13:11:36Z</time>
      </trkpt>
      <trkpt lat="44.83814" lon="3.74467">
        <ele>757.4</ele>
        <time>2021-08-08T13:11:38Z</time>
      </trkpt>
      <trkpt lat="44.83808" lon="3.74473">
        <ele>757.6</ele>
        <time>2021-08-08T13:11:40Z</time>
      </trkpt>
      <trkpt lat="44.83801" lon="3.74478">
        <ele>757.4</ele>
        <time>2021-08-08T13:11:42Z</time>
      </trkpt>
      <trkpt lat="44.83795" lon="3.74484">
        <ele>757.1</ele>
        <time>2021-08-08T13:11:44Z</time>
      </trkpt>
      <trkpt lat="44.83788" lon="3.7449">
        <ele>756.4</ele>
        <time>2021-08-08T13:11:46Z</time>
      </trkpt>
      <trkpt lat="44.83781" lon="3.74496">
        <ele>755.5</ele>
        <time>2021-08-08T13:11:48Z</time>
      </trkpt>
      <trkpt lat="44.83775" lon="3.74501">
        <ele>754.3</ele>
        <time>2021-08-08T13:11:50Z</time>
      </trkpt>
      <trkpt lat="44.83768" lon="3.74506">
        <ele>754.4</ele>
        <time>2021-08-08T13:11:52Z</time>
      </trkpt>
      <trkpt lat="44.83761" lon="3.7451">
        <ele>754.4</ele>
        <time>2021-08-08T13:11:54Z</time>
      </trkpt>
      <trkpt lat="44.83754" lon="3.74515">
        <ele>754.4</ele>
        <time>2021-08-08T13:11:56Z</time>
      </trkpt>
      <trkpt lat="44.83747" lon="3.74519">
        <ele>755</ele>
        <time>2021-08-08T13:11:58Z</time>
      </trkpt>
      <trkpt lat="44.83739" lon="3.74523">
        <ele>756.4</ele>
        <time>2021-08-08T13:12:00Z</time>
      </trkpt>
      <trkpt lat="44.83732" lon="3.74528">
        <ele>758</ele>
        <time>2021-08-08T13:12:02Z</time>
      </trkpt>
      <trkpt lat="44.83725" lon="3.74533">
        <ele>759.4</ele>
        <time>2021-08-08T13:12:04Z</time>
      </trkpt>
      <trkpt lat="44.83718" lon="3.74537">
        <ele>760.6</ele>
        <time>2021-08-08T13:12:06Z</time>
      </trkpt>
      <trkpt lat="44.83711" lon="3.74542">
        <ele>761.5</ele>
        <time>2021-08-08T13:12:08Z</time>
      </trkpt>
      <trkpt lat="44.83704" lon="3.74546">
        <ele>762.4</ele>
        <time>2021-08-08T13:12:10Z</time>
      </trkpt>
      <trkpt lat="44.83696" lon="3.7455">
        <ele>762.7</ele>
        <time>2021-08-08T13:12:12Z</time>
      </trkpt>
      <trkpt lat="44.83688" lon="3.74555">
        <ele>763</ele>
        <time>2021-08-08T13:12:14Z</time>
      </trkpt>
      <trkpt lat="44.83679" lon="3.74558">
        <ele>763</ele>
        <time>2021-08-08T13:12:16Z</time>
      </trkpt>
      <trkpt lat="44.8367" lon="3.74561">
        <ele>762.5</ele>
        <time>2021-08-08T13:12:18Z</time>
      </trkpt>
      <trkpt lat="44.83661" lon="3.74564">
        <ele>761.9</ele>
        <time>2021-08-08T13:12:20Z</time>
      </trkpt>
      <trkpt lat="44.83653" lon="3.74566">
        <ele>761.4</ele>
        <time>2021-08-08T13:12:22Z</time>
      </trkpt>
      <trkpt lat="44.83645" lon="3.74568">
        <ele>760.8</ele>
        <time>2021-08-08T13:12:24Z</time>
      </trkpt>
      <trkpt lat="44.83636" lon="3.74571">
        <ele>759.9</ele>
        <time>2021-08-08T13:12:26Z</time>
      </trkpt>
      <trkpt lat="44.83627" lon="3.74573">
        <ele>758.8</ele>
        <time>2021-08-08T13:12:28Z</time>
      </trkpt>
      <trkpt lat="44.83618" lon="3.74576">
        <ele>757.7</ele>
        <time>2021-08-08T13:12:30Z</time>
      </trkpt>
      <trkpt lat="44.83609" lon="3.74578">
        <ele>756.4</ele>
        <time>2021-08-08T13:12:32Z</time>
      </trkpt>
      <trkpt lat="44.83599" lon="3.7458">
        <ele>754.8</ele>
        <time>2021-08-08T13:12:34Z</time>
      </trkpt>
      <trkpt lat="44.8359" lon="3.74582">
        <ele>753.2</ele>
        <time>2021-08-08T13:12:36Z</time>
      </trkpt>
      <trkpt lat="44.8358" lon="3.74586">
        <ele>752.8</ele>
        <time>2021-08-08T13:12:38Z</time>
      </trkpt>
      <trkpt lat="44.83571" lon="3.74588">
        <ele>753.5</ele>
        <time>2021-08-08T13:12:40Z</time>
      </trkpt>
      <trkpt lat="44.83562" lon="3.7459">
        <ele>753.4</ele>
        <time>2021-08-08T13:12:42Z</time>
      </trkpt>
      <trkpt lat="44.83553" lon="3.7459">
        <ele>753.2</ele>
        <time>2021-08-08T13:12:44Z</time>
      </trkpt>
      <trkpt lat="44.83545" lon="3.74591">
        <ele>752.9</ele>
        <time>2021-08-08T13:12:46Z</time>
      </trkpt>
      <trkpt lat="44.83537" lon="3.74592">
        <ele>752.8</ele>
        <time>2021-08-08T13:12:48Z</time>
      </trkpt>
      <trkpt lat="44.8353" lon="3.74593">
        <ele>752.8</ele>
        <time>2021-08-08T13:12:50Z</time>
      </trkpt>
      <trkpt lat="44.83522" lon="3.74594">
        <ele>752.7</ele>
        <time>2021-08-08T13:12:52Z</time>
      </trkpt>
      <trkpt lat="44.83514" lon="3.74596">
        <ele>752.7</ele>
        <time>2021-08-08T13:12:54Z</time>
      </trkpt>
      <trkpt lat="44.83506" lon="3.74598">
        <ele>752.5</ele>
        <time>2021-08-08T13:12:56Z</time>
      </trkpt>
      <trkpt lat="44.83498" lon="3.746">
        <ele>752.5</ele>
        <time>2021-08-08T13:12:58Z</time>
      </trkpt>
      <trkpt lat="44.83489" lon="3.74603">
        <ele>752.7</ele>
        <time>2021-08-08T13:13:00Z</time>
      </trkpt>
      <trkpt lat="44.83481" lon="3.74604">
        <ele>752.7</ele>
        <time>2021-08-08T13:13:02Z</time>
      </trkpt>
      <trkpt lat="44.83473" lon="3.74606">
        <ele>752.7</ele>
        <time>2021-08-08T13:13:04Z</time>
      </trkpt>
      <trkpt lat="44.83464" lon="3.74608">
        <ele>752.8</ele>
        <time>2021-08-08T13:13:06Z</time>
      </trkpt>
      <trkpt lat="44.83456" lon="3.7461">
        <ele>752.9</ele>
        <time>2021-08-08T13:13:08Z</time>
      </trkpt>
      <trkpt lat="44.83448" lon="3.74613">
        <ele>753</ele>
        <time>2021-08-08T13:13:10Z</time>
      </trkpt>
      <trkpt lat="44.8344" lon="3.74617">
        <ele>753.4</ele>
        <time>2021-08-08T13:13:12Z</time>
      </trkpt>
      <trkpt lat="44.83432" lon="3.74621">
        <ele>753.9</ele>
        <time>2021-08-08T13:13:14Z</time>
      </trkpt>
      <trkpt lat="44.83426" lon="3.74625">
        <ele>754.5</ele>
        <time>2021-08-08T13:13:16Z</time>
      </trkpt>
      <trkpt lat="44.83419" lon="3.74631">
        <ele>755.3</ele>
        <time>2021-08-08T13:13:18Z</time>
      </trkpt>
      <trkpt lat="44.83412" lon="3.74637">
        <ele>755.8</ele>
        <time>2021-08-08T13:13:20Z</time>
      </trkpt>
      <trkpt lat="44.83405" lon="3.74643">
        <ele>755.7</ele>
        <time>2021-08-08T13:13:22Z</time>
      </trkpt>
      <trkpt lat="44.83399" lon="3.74649">
        <ele>755.7</ele>
        <time>2021-08-08T13:13:24Z</time>
      </trkpt>
      <trkpt lat="44.83392" lon="3.74655">
        <ele>755.6</ele>
        <time>2021-08-08T13:13:26Z</time>
      </trkpt>
      <trkpt lat="44.83385" lon="3.74661">
        <ele>755.3</ele>
        <time>2021-08-08T13:13:28Z</time>
      </trkpt>
      <trkpt lat="44.83378" lon="3.74667">
        <ele>754.8</ele>
        <time>2021-08-08T13:13:30Z</time>
      </trkpt>
      <trkpt lat="44.83371" lon="3.74673">
        <ele>754.9</ele>
        <time>2021-08-08T13:13:32Z</time>
      </trkpt>
      <trkpt lat="44.83365" lon="3.74679">
        <ele>755.1</ele>
        <time>2021-08-08T13:13:34Z</time>
      </trkpt>
      <trkpt lat="44.83358" lon="3.74685">
        <ele>755</ele>
        <time>2021-08-08T13:13:36Z</time>
      </trkpt>
      <trkpt lat="44.83352" lon="3.74691">
        <ele>754.7</ele>
        <time>2021-08-08T13:13:38Z</time>
      </trkpt>
      <trkpt lat="44.83345" lon="3.74697">
        <ele>754.2</ele>
        <time>2021-08-08T13:13:40Z</time>
      </trkpt>
      <trkpt lat="44.83339" lon="3.74702">
        <ele>753.5</ele>
        <time>2021-08-08T13:13:42Z</time>
      </trkpt>
      <trkpt lat="44.83332" lon="3.74707">
        <ele>752.8</ele>
        <time>2021-08-08T13:13:44Z</time>
      </trkpt>
      <trkpt lat="44.83326" lon="3.74714">
        <ele>753.2</ele>
        <time>2021-08-08T13:13:46Z</time>
      </trkpt>
      <trkpt lat="44.83319" lon="3.7472">
        <ele>753.6</ele>
        <time>2021-08-08T13:13:48Z</time>
      </trkpt>
      <trkpt lat="44.83313" lon="3.74726">
        <ele>753.8</ele>
        <time>2021-08-08T13:13:50Z</time>
      </trkpt>
      <trkpt lat="44.83306" lon="3.74732">
        <ele>754</ele>
        <time>2021-08-08T13:13:52Z</time>
      </trkpt>
      <trkpt lat="44.833" lon="3.74737">
        <ele>754</ele>
        <time>2021-08-08T13:13:54Z</time>
      </trkpt>
      <trkpt lat="44.83294" lon="3.74743">
        <ele>754</ele>
        <time>2021-08-08T13:13:56Z</time>
      </trkpt>
      <trkpt lat="44.83287" lon="3.74749">
        <ele>753.7</ele>
        <time>2021-08-08T13:13:58Z</time>
      </trkpt>
      <trkpt lat="44.8328" lon="3.74755">
        <ele>754</ele>
        <time>2021-08-08T13:14:00Z</time>
      </trkpt>
      <trkpt lat="44.83273" lon="3.74761">
        <ele>754.3</ele>
        <time>2021-08-08T13:14:02Z</time>
      </trkpt>
      <trkpt lat="44.83266" lon="3.74767">
        <ele>754.4</ele>
        <time>2021-08-08T13:14:04Z</time>
      </trkpt>
      <trkpt lat="44.83259" lon="3.74774">
        <ele>754.5</ele>
        <time>2021-08-08T13:14:06Z</time>
      </trkpt>
      <trkpt lat="44.83252" lon="3.74779">
        <ele>754.1</ele>
        <time>2021-08-08T13:14:08Z</time>
      </trkpt>
      <trkpt lat="44.83244" lon="3.74783">
        <ele>755.1</ele>
        <time>2021-08-08T13:14:10Z</time>
      </trkpt>
      <trkpt lat="44.83235" lon="3.74785">
        <ele>756.3</ele>
        <time>2021-08-08T13:14:12Z</time>
      </trkpt>
      <trkpt lat="44.83227" lon="3.74784">
        <ele>757</ele>
        <time>2021-08-08T13:14:14Z</time>
      </trkpt>
      <trkpt lat="44.83219" lon="3.74783">
        <ele>757.3</ele>
        <time>2021-08-08T13:14:16Z</time>
      </trkpt>
      <trkpt lat="44.83211" lon="3.7478">
        <ele>757.4</ele>
        <time>2021-08-08T13:14:18Z</time>
      </trkpt>
      <trkpt lat="44.83202" lon="3.74777">
        <ele>757.3</ele>
        <time>2021-08-08T13:14:20Z</time>
      </trkpt>
      <trkpt lat="44.83194" lon="3.74773">
        <ele>756.9</ele>
        <time>2021-08-08T13:14:22Z</time>
      </trkpt>
      <trkpt lat="44.83186" lon="3.74771">
        <ele>756.7</ele>
        <time>2021-08-08T13:14:24Z</time>
      </trkpt>
      <trkpt lat="44.83178" lon="3.74769">
        <ele>756.5</ele>
        <time>2021-08-08T13:14:26Z</time>
      </trkpt>
      <trkpt lat="44.8317" lon="3.74766">
        <ele>756.1</ele>
        <time>2021-08-08T13:14:28Z</time>
      </trkpt>
      <trkpt lat="44.83162" lon="3.74761">
        <ele>755.4</ele>
        <time>2021-08-08T13:14:30Z</time>
      </trkpt>
      <trkpt lat="44.83153" lon="3.74756">
        <ele>755.2</ele>
        <time>2021-08-08T13:14:32Z</time>
      </trkpt>
      <trkpt lat="44.83144" lon="3.74753">
        <ele>755.5</ele>
        <time>2021-08-08T13:14:34Z</time>
      </trkpt>
      <trkpt lat="44.83136" lon="3.7475">
        <ele>755.8</ele>
        <time>2021-08-08T13:14:36Z</time>
      </trkpt>
      <trkpt lat="44.83127" lon="3.74746">
        <ele>756.5</ele>
        <time>2021-08-08T13:14:38Z</time>
      </trkpt>
      <trkpt lat="44.83119" lon="3.74742">
        <ele>757.1</ele>
        <time>2021-08-08T13:14:40Z</time>
      </trkpt>
      <trkpt lat="44.83111" lon="3.74739">
        <ele>757.7</ele>
        <time>2021-08-08T13:14:42Z</time>
      </trkpt>
      <trkpt lat="44.83102" lon="3.74735">
        <ele>758.2</ele>
        <time>2021-08-08T13:14:44Z</time>
      </trkpt>
      <trkpt lat="44.83093" lon="3.74731">
        <ele>758.6</ele>
        <time>2021-08-08T13:14:46Z</time>
      </trkpt>
      <trkpt lat="44.83085" lon="3.74728">
        <ele>759</ele>
        <time>2021-08-08T13:14:48Z</time>
      </trkpt>
      <trkpt lat="44.83076" lon="3.74724">
        <ele>758.8</ele>
        <time>2021-08-08T13:14:50Z</time>
      </trkpt>
      <trkpt lat="44.83067" lon="3.7472">
        <ele>758.5</ele>
        <time>2021-08-08T13:14:52Z</time>
      </trkpt>
      <trkpt lat="44.83059" lon="3.74717">
        <ele>758.2</ele>
        <time>2021-08-08T13:14:54Z</time>
      </trkpt>
      <trkpt lat="44.8305" lon="3.74713">
        <ele>757.7</ele>
        <time>2021-08-08T13:14:56Z</time>
      </trkpt>
      <trkpt lat="44.83041" lon="3.74709">
        <ele>757.4</ele>
        <time>2021-08-08T13:14:58Z</time>
      </trkpt>
      <trkpt lat="44.83033" lon="3.74706">
        <ele>757.2</ele>
        <time>2021-08-08T13:15:00Z</time>
      </trkpt>
      <trkpt lat="44.83024" lon="3.74704">
        <ele>757.2</ele>
        <time>2021-08-08T13:15:02Z</time>
      </trkpt>
      <trkpt lat="44.83016" lon="3.74704">
        <ele>757.6</ele>
        <time>2021-08-08T13:15:04Z</time>
      </trkpt>
      <trkpt lat="44.83008" lon="3.74704">
        <ele>758.1</ele>
        <time>2021-08-08T13:15:06Z</time>
      </trkpt>
      <trkpt lat="44.83" lon="3.74705">
        <ele>758.7</ele>
        <time>2021-08-08T13:15:08Z</time>
      </trkpt>
      <trkpt lat="44.82992" lon="3.74707">
        <ele>759.5</ele>
        <time>2021-08-08T13:15:10Z</time>
      </trkpt>
      <trkpt lat="44.82986" lon="3.74711">
        <ele>760.4</ele>
        <time>2021-08-08T13:15:12Z</time>
      </trkpt>
      <trkpt lat="44.82979" lon="3.74714">
        <ele>761</ele>
        <time>2021-08-08T13:15:14Z</time>
      </trkpt>
      <trkpt lat="44.82972" lon="3.74718">
        <ele>761.4</ele>
        <time>2021-08-08T13:15:16Z</time>
      </trkpt>
      <trkpt lat="44.82966" lon="3.74723">
        <ele>761.7</ele>
        <time>2021-08-08T13:15:18Z</time>
      </trkpt>
      <trkpt lat="44.82961" lon="3.7473">
        <ele>761.7</ele>
        <time>2021-08-08T13:15:20Z</time>
      </trkpt>
      <trkpt lat="44.82956" lon="3.74738">
        <ele>761.4</ele>
        <time>2021-08-08T13:15:22Z</time>
      </trkpt>
      <trkpt lat="44.82951" lon="3.74747">
        <ele>760.8</ele>
        <time>2021-08-08T13:15:24Z</time>
      </trkpt>
      <trkpt lat="44.82946" lon="3.74754">
        <ele>760.8</ele>
        <time>2021-08-08T13:15:26Z</time>
      </trkpt>
      <trkpt lat="44.82942" lon="3.74762">
        <ele>761.2</ele>
        <time>2021-08-08T13:15:28Z</time>
      </trkpt>
      <trkpt lat="44.82937" lon="3.7477">
        <ele>761.3</ele>
        <time>2021-08-08T13:15:30Z</time>
      </trkpt>
      <trkpt lat="44.82932" lon="3.74778">
        <ele>761.3</ele>
        <time>2021-08-08T13:15:32Z</time>
      </trkpt>
      <trkpt lat="44.82928" lon="3.74786">
        <ele>761</ele>
        <time>2021-08-08T13:15:34Z</time>
      </trkpt>
      <trkpt lat="44.82924" lon="3.74794">
        <ele>760.5</ele>
        <time>2021-08-08T13:15:36Z</time>
      </trkpt>
      <trkpt lat="44.8292" lon="3.74802">
        <ele>759.9</ele>
        <time>2021-08-08T13:15:38Z</time>
      </trkpt>
      <trkpt lat="44.82916" lon="3.74809">
        <ele>759.5</ele>
        <time>2021-08-08T13:15:40Z</time>
      </trkpt>
      <trkpt lat="44.82913" lon="3.74818">
        <ele>760.9</ele>
        <time>2021-08-08T13:15:42Z</time>
      </trkpt>
      <trkpt lat="44.82911" lon="3.74826">
        <ele>762.1</ele>
        <time>2021-08-08T13:15:44Z</time>
      </trkpt>
      <trkpt lat="44.82909" lon="3.74835">
        <ele>763.1</ele>
        <time>2021-08-08T13:15:46Z</time>
      </trkpt>
      <trkpt lat="44.82907" lon="3.74842">
        <ele>764.4</ele>
        <time>2021-08-08T13:15:48Z</time>
      </trkpt>
      <trkpt lat="44.82905" lon="3.74851">
        <ele>765.7</ele>
        <time>2021-08-08T13:15:50Z</time>
      </trkpt>
      <trkpt lat="44.82905" lon="3.74859">
        <ele>766.8</ele>
        <time>2021-08-08T13:15:52Z</time>
      </trkpt>
      <trkpt lat="44.82904" lon="3.74868">
        <ele>767.6</ele>
        <time>2021-08-08T13:15:54Z</time>
      </trkpt>
      <trkpt lat="44.82904" lon="3.74875">
        <ele>768.5</ele>
        <time>2021-08-08T13:15:56Z</time>
      </trkpt>
      <trkpt lat="44.82903" lon="3.74883">
        <ele>769.4</ele>
        <time>2021-08-08T13:15:58Z</time>
      </trkpt>
      <trkpt lat="44.82903" lon="3.74891">
        <ele>770.1</ele>
        <time>2021-08-08T13:16:00Z</time>
      </trkpt>
      <trkpt lat="44.82903" lon="3.74899">
        <ele>770.9</ele>
        <time>2021-08-08T13:16:02Z</time>
      </trkpt>
      <trkpt lat="44.82902" lon="3.74906">
        <ele>771.6</ele>
        <time>2021-08-08T13:16:04Z</time>
      </trkpt>
      <trkpt lat="44.82903" lon="3.74914">
        <ele>772.4</ele>
        <time>2021-08-08T13:16:06Z</time>
      </trkpt>
      <trkpt lat="44.82903" lon="3.74922">
        <ele>772.6</ele>
        <time>2021-08-08T13:16:08Z</time>
      </trkpt>
      <trkpt lat="44.82904" lon="3.74929">
        <ele>772.5</ele>
        <time>2021-08-08T13:16:10Z</time>
      </trkpt>
      <trkpt lat="44.82904" lon="3.74937">
        <ele>772.3</ele>
        <time>2021-08-08T13:16:12Z</time>
      </trkpt>
      <trkpt lat="44.82903" lon="3.74944">
        <ele>772.1</ele>
        <time>2021-08-08T13:16:14Z</time>
      </trkpt>
      <trkpt lat="44.82903" lon="3.74952">
        <ele>772</ele>
        <time>2021-08-08T13:16:16Z</time>
      </trkpt>
      <trkpt lat="44.82903" lon="3.7496">
        <ele>771.8</ele>
        <time>2021-08-08T13:16:18Z</time>
      </trkpt>
      <trkpt lat="44.82902" lon="3.74967">
        <ele>771.6</ele>
        <time>2021-08-08T13:16:20Z</time>
      </trkpt>
      <trkpt lat="44.82902" lon="3.74975">
        <ele>771.4</ele>
        <time>2021-08-08T13:16:22Z</time>
      </trkpt>
      <trkpt lat="44.82902" lon="3.74983">
        <ele>771.3</ele>
        <time>2021-08-08T13:16:24Z</time>
      </trkpt>
      <trkpt lat="44.82902" lon="3.74991">
        <ele>771.1</ele>
        <time>2021-08-08T13:16:26Z</time>
      </trkpt>
      <trkpt lat="44.82902" lon="3.74999">
        <ele>771</ele>
        <time>2021-08-08T13:16:28Z</time>
      </trkpt>
      <trkpt lat="44.82902" lon="3.75007">
        <ele>771.2</ele>
        <time>2021-08-08T13:16:30Z</time>
      </trkpt>
      <trkpt lat="44.82902" lon="3.75015">
        <ele>771.5</ele>
        <time>2021-08-08T13:16:32Z</time>
      </trkpt>
      <trkpt lat="44.82903" lon="3.75023">
        <ele>771.8</ele>
        <time>2021-08-08T13:16:34Z</time>
      </trkpt>
      <trkpt lat="44.82905" lon="3.7503">
        <ele>772.3</ele>
        <time>2021-08-08T13:16:36Z</time>
      </trkpt>
      <trkpt lat="44.82904" lon="3.75038">
        <ele>772.6</ele>
        <time>2021-08-08T13:16:38Z</time>
      </trkpt>
      <trkpt lat="44.82904" lon="3.75046">
        <ele>772.9</ele>
        <time>2021-08-08T13:16:40Z</time>
      </trkpt>
      <trkpt lat="44.82904" lon="3.75054">
        <ele>773.2</ele>
        <time>2021-08-08T13:16:42Z</time>
      </trkpt>
      <trkpt lat="44.82905" lon="3.75062">
        <ele>773.5</ele>
        <time>2021-08-08T13:16:44Z</time>
      </trkpt>
      <trkpt lat="44.82904" lon="3.75069">
        <ele>773.7</ele>
        <time>2021-08-08T13:16:46Z</time>
      </trkpt>
      <trkpt lat="44.82903" lon="3.75077">
        <ele>773.9</ele>
        <time>2021-08-08T13:16:48Z</time>
      </trkpt>
      <trkpt lat="44.82903" lon="3.75086">
        <ele>774.1</ele>
        <time>2021-08-08T13:16:50Z</time>
      </trkpt>
      <trkpt lat="44.82902" lon="3.75093">
        <ele>774</ele>
        <time>2021-08-08T13:16:52Z</time>
      </trkpt>
      <trkpt lat="44.82902" lon="3.75101">
        <ele>774.3</ele>
        <time>2021-08-08T13:16:54Z</time>
      </trkpt>
      <trkpt lat="44.829" lon="3.75109">
        <ele>774.1</ele>
        <time>2021-08-08T13:16:56Z</time>
      </trkpt>
      <trkpt lat="44.82899" lon="3.75117">
        <ele>774</ele>
        <time>2021-08-08T13:16:58Z</time>
      </trkpt>
      <trkpt lat="44.82898" lon="3.75124">
        <ele>774</ele>
        <time>2021-08-08T13:17:00Z</time>
      </trkpt>
      <trkpt lat="44.82897" lon="3.75132">
        <ele>773.9</ele>
        <time>2021-08-08T13:17:02Z</time>
      </trkpt>
      <trkpt lat="44.82895" lon="3.75139">
        <ele>773.8</ele>
        <time>2021-08-08T13:17:04Z</time>
      </trkpt>
      <trkpt lat="44.82894" lon="3.75147">
        <ele>773.6</ele>
        <time>2021-08-08T13:17:06Z</time>
      </trkpt>
      <trkpt lat="44.82893" lon="3.75154">
        <ele>773.4</ele>
        <time>2021-08-08T13:17:08Z</time>
      </trkpt>
      <trkpt lat="44.82891" lon="3.75161">
        <ele>773</ele>
        <time>2021-08-08T13:17:10Z</time>
      </trkpt>
      <trkpt lat="44.82888" lon="3.75168">
        <ele>772.7</ele>
        <time>2021-08-08T13:17:12Z</time>
      </trkpt>
      <trkpt lat="44.82886" lon="3.75175">
        <ele>773.2</ele>
        <time>2021-08-08T13:17:14Z</time>
      </trkpt>
      <trkpt lat="44.82883" lon="3.75183">
        <ele>773.5</ele>
        <time>2021-08-08T13:17:16Z</time>
      </trkpt>
      <trkpt lat="44.8288" lon="3.75189">
        <ele>773.7</ele>
        <time>2021-08-08T13:17:18Z</time>
      </trkpt>
      <trkpt lat="44.82878" lon="3.75193">
        <ele>773.9</ele>
        <time>2021-08-08T13:17:20Z</time>
      </trkpt>
      <trkpt lat="44.82875" lon="3.75197">
        <ele>773.8</ele>
        <time>2021-08-08T13:17:22Z</time>
      </trkpt>
      <trkpt lat="44.82873" lon="3.75199">
        <ele>773.7</ele>
        <time>2021-08-08T13:17:24Z</time>
      </trkpt>
      <trkpt lat="44.82872" lon="3.75201">
        <ele>773.7</ele>
        <time>2021-08-08T13:17:26Z</time>
      </trkpt>
      <trkpt lat="44.82872" lon="3.752">
        <ele>773.6</ele>
        <time>2021-08-08T13:17:28Z</time>
      </trkpt>
      <trkpt lat="44.82872" lon="3.75201">
        <ele>773.7</ele>
        <time>2021-08-08T13:17:30Z</time>
      </trkpt>
      <trkpt lat="44.82872" lon="3.75201">
        <ele>773.7</ele>
        <time>2021-08-08T13:17:32Z</time>
      </trkpt>
      <trkpt lat="44.82872" lon="3.75201">
        <ele>773.7</ele>
        <time>2021-08-08T13:17:34Z</time>
      </trkpt>
      <trkpt lat="44.8286" lon="3.75217">
        <ele>773.7</ele>
        <time>2021-08-08T13:19:26Z</time>
      </trkpt>
      <trkpt lat="44.82856" lon="3.7522">
        <ele>773.5</ele>
        <time>2021-08-08T13:19:28Z</time>
      </trkpt>
      <trkpt lat="44.82852" lon="3.75224">
        <ele>773.4</ele>
        <time>2021-08-08T13:19:30Z</time>
      </trkpt>
      <trkpt lat="44.82848" lon="3.7523">
        <ele>773.6</ele>
        <time>2021-08-08T13:19:32Z</time>
      </trkpt>
      <trkpt lat="44.82844" lon="3.75235">
        <ele>773.8</ele>
        <time>2021-08-08T13:19:34Z</time>
      </trkpt>
      <trkpt lat="44.8284" lon="3.7524">
        <ele>774.1</ele>
        <time>2021-08-08T13:19:36Z</time>
      </trkpt>
      <trkpt lat="44.82836" lon="3.75244">
        <ele>774.3</ele>
        <time>2021-08-08T13:19:38Z</time>
      </trkpt>
      <trkpt lat="44.82832" lon="3.75247">
        <ele>774.3</ele>
        <time>2021-08-08T13:19:40Z</time>
      </trkpt>
      <trkpt lat="44.82827" lon="3.7525">
        <ele>774.4</ele>
        <time>2021-08-08T13:19:42Z</time>
      </trkpt>
      <trkpt lat="44.82823" lon="3.75252">
        <ele>775.2</ele>
        <time>2021-08-08T13:19:44Z</time>
      </trkpt>
      <trkpt lat="44.82818" lon="3.75253">
        <ele>774.9</ele>
        <time>2021-08-08T13:19:46Z</time>
      </trkpt>
      <trkpt lat="44.82813" lon="3.75252">
        <ele>774.1</ele>
        <time>2021-08-08T13:19:48Z</time>
      </trkpt>
      <trkpt lat="44.82808" lon="3.75251">
        <ele>773.1</ele>
        <time>2021-08-08T13:19:50Z</time>
      </trkpt>
      <trkpt lat="44.82802" lon="3.7525">
        <ele>772.3</ele>
        <time>2021-08-08T13:19:52Z</time>
      </trkpt>
      <trkpt lat="44.82797" lon="3.7525">
        <ele>771.5</ele>
        <time>2021-08-08T13:19:54Z</time>
      </trkpt>
      <trkpt lat="44.82792" lon="3.75249">
        <ele>770.9</ele>
        <time>2021-08-08T13:19:56Z</time>
      </trkpt>
      <trkpt lat="44.82789" lon="3.75249">
        <ele>770.7</ele>
        <time>2021-08-08T13:19:58Z</time>
      </trkpt>
      <trkpt lat="44.82789" lon="3.75249">
        <ele>770.7</ele>
        <time>2021-08-08T13:20:00Z</time>
      </trkpt>
      <trkpt lat="44.82789" lon="3.7525">
        <ele>770.7</ele>
        <time>2021-08-08T13:20:02Z</time>
      </trkpt>
      <trkpt lat="44.82789" lon="3.75249">
        <ele>770.6</ele>
        <time>2021-08-08T13:20:04Z</time>
      </trkpt>
      <trkpt lat="44.82788" lon="3.75249">
        <ele>770.6</ele>
        <time>2021-08-08T13:20:06Z</time>
      </trkpt>
      <trkpt lat="44.82788" lon="3.75249">
        <ele>770.5</ele>
        <time>2021-08-08T13:20:08Z</time>
      </trkpt>
      <trkpt lat="44.82771" lon="3.75247">
        <ele>768.8</ele>
        <time>2021-08-08T13:20:58Z</time>
      </trkpt>
      <trkpt lat="44.82765" lon="3.75246">
        <ele>768.2</ele>
        <time>2021-08-08T13:21:00Z</time>
      </trkpt>
      <trkpt lat="44.82759" lon="3.75246">
        <ele>767.7</ele>
        <time>2021-08-08T13:21:02Z</time>
      </trkpt>
      <trkpt lat="44.82754" lon="3.75246">
        <ele>767.2</ele>
        <time>2021-08-08T13:21:04Z</time>
      </trkpt>
      <trkpt lat="44.82749" lon="3.75244">
        <ele>767</ele>
        <time>2021-08-08T13:21:06Z</time>
      </trkpt>
      <trkpt lat="44.82743" lon="3.75244">
        <ele>768.4</ele>
        <time>2021-08-08T13:21:08Z</time>
      </trkpt>
      <trkpt lat="44.82737" lon="3.75243">
        <ele>769.7</ele>
        <time>2021-08-08T13:21:10Z</time>
      </trkpt>
      <trkpt lat="44.82731" lon="3.75243">
        <ele>770.9</ele>
        <time>2021-08-08T13:21:12Z</time>
      </trkpt>
      <trkpt lat="44.82726" lon="3.75242">
        <ele>772.1</ele>
        <time>2021-08-08T13:21:14Z</time>
      </trkpt>
      <trkpt lat="44.8272" lon="3.75243">
        <ele>773.3</ele>
        <time>2021-08-08T13:21:16Z</time>
      </trkpt>
      <trkpt lat="44.82715" lon="3.75242">
        <ele>774.2</ele>
        <time>2021-08-08T13:21:18Z</time>
      </trkpt>
      <trkpt lat="44.8271" lon="3.75241">
        <ele>775.2</ele>
        <time>2021-08-08T13:21:20Z</time>
      </trkpt>
      <trkpt lat="44.82705" lon="3.7524">
        <ele>776.1</ele>
        <time>2021-08-08T13:21:22Z</time>
      </trkpt>
      <trkpt lat="44.82699" lon="3.7524">
        <ele>777.2</ele>
        <time>2021-08-08T13:21:24Z</time>
      </trkpt>
      <trkpt lat="44.82694" lon="3.75239">
        <ele>778</ele>
        <time>2021-08-08T13:21:26Z</time>
      </trkpt>
      <trkpt lat="44.82689" lon="3.75239">
        <ele>779.1</ele>
        <time>2021-08-08T13:21:28Z</time>
      </trkpt>
      <trkpt lat="44.82684" lon="3.75238">
        <ele>779.9</ele>
        <time>2021-08-08T13:21:30Z</time>
      </trkpt>
      <trkpt lat="44.82678" lon="3.75238">
        <ele>780.9</ele>
        <time>2021-08-08T13:21:32Z</time>
      </trkpt>
      <trkpt lat="44.82674" lon="3.75236">
        <ele>781.6</ele>
        <time>2021-08-08T13:21:34Z</time>
      </trkpt>
      <trkpt lat="44.82668" lon="3.75236">
        <ele>782.5</ele>
        <time>2021-08-08T13:21:36Z</time>
      </trkpt>
      <trkpt lat="44.82663" lon="3.75236">
        <ele>783</ele>
        <time>2021-08-08T13:21:38Z</time>
      </trkpt>
      <trkpt lat="44.82658" lon="3.75235">
        <ele>783.4</ele>
        <time>2021-08-08T13:21:40Z</time>
      </trkpt>
      <trkpt lat="44.82653" lon="3.75235">
        <ele>783.8</ele>
        <time>2021-08-08T13:21:42Z</time>
      </trkpt>
      <trkpt lat="44.82647" lon="3.75234">
        <ele>784.1</ele>
        <time>2021-08-08T13:21:44Z</time>
      </trkpt>
      <trkpt lat="44.82642" lon="3.75234">
        <ele>784.5</ele>
        <time>2021-08-08T13:21:46Z</time>
      </trkpt>
      <trkpt lat="44.82637" lon="3.75233">
        <ele>784.7</ele>
        <time>2021-08-08T13:21:48Z</time>
      </trkpt>
      <trkpt lat="44.82631" lon="3.75233">
        <ele>785.2</ele>
        <time>2021-08-08T13:21:50Z</time>
      </trkpt>
      <trkpt lat="44.82626" lon="3.75232">
        <ele>785.5</ele>
        <time>2021-08-08T13:21:52Z</time>
      </trkpt>
      <trkpt lat="44.82621" lon="3.75231">
        <ele>785.7</ele>
        <time>2021-08-08T13:21:54Z</time>
      </trkpt>
      <trkpt lat="44.82615" lon="3.7523">
        <ele>785.9</ele>
        <time>2021-08-08T13:21:56Z</time>
      </trkpt>
      <trkpt lat="44.82611" lon="3.7523">
        <ele>786.4</ele>
        <time>2021-08-08T13:21:58Z</time>
      </trkpt>
      <trkpt lat="44.82607" lon="3.7523">
        <ele>786.5</ele>
        <time>2021-08-08T13:22:00Z</time>
      </trkpt>
      <trkpt lat="44.82605" lon="3.7523">
        <ele>786.9</ele>
        <time>2021-08-08T13:22:02Z</time>
      </trkpt>
      <trkpt lat="44.82602" lon="3.7523">
        <ele>787.2</ele>
        <time>2021-08-08T13:22:04Z</time>
      </trkpt>
      <trkpt lat="44.82599" lon="3.75229">
        <ele>787</ele>
        <time>2021-08-08T13:22:06Z</time>
      </trkpt>
      <trkpt lat="44.82596" lon="3.75229">
        <ele>787.4</ele>
        <time>2021-08-08T13:22:08Z</time>
      </trkpt>
      <trkpt lat="44.82592" lon="3.75229">
        <ele>787.7</ele>
        <time>2021-08-08T13:22:10Z</time>
      </trkpt>
      <trkpt lat="44.82586" lon="3.75229">
        <ele>788.3</ele>
        <time>2021-08-08T13:22:12Z</time>
      </trkpt>
      <trkpt lat="44.82581" lon="3.75229">
        <ele>789</ele>
        <time>2021-08-08T13:22:14Z</time>
      </trkpt>
      <trkpt lat="44.82577" lon="3.75229">
        <ele>790</ele>
        <time>2021-08-08T13:22:16Z</time>
      </trkpt>
      <trkpt lat="44.82572" lon="3.75229">
        <ele>790.9</ele>
        <time>2021-08-08T13:22:18Z</time>
      </trkpt>
      <trkpt lat="44.82568" lon="3.75229">
        <ele>791.9</ele>
        <time>2021-08-08T13:22:20Z</time>
      </trkpt>
      <trkpt lat="44.82563" lon="3.75228">
        <ele>792.7</ele>
        <time>2021-08-08T13:22:22Z</time>
      </trkpt>
      <trkpt lat="44.82558" lon="3.75228">
        <ele>793.7</ele>
        <time>2021-08-08T13:22:24Z</time>
      </trkpt>
      <trkpt lat="44.82553" lon="3.75227">
        <ele>794.6</ele>
        <time>2021-08-08T13:22:26Z</time>
      </trkpt>
      <trkpt lat="44.82548" lon="3.75226">
        <ele>795.3</ele>
        <time>2021-08-08T13:22:28Z</time>
      </trkpt>
      <trkpt lat="44.82542" lon="3.75225">
        <ele>796.2</ele>
        <time>2021-08-08T13:22:30Z</time>
      </trkpt>
      <trkpt lat="44.82537" lon="3.75225">
        <ele>797.5</ele>
        <time>2021-08-08T13:22:32Z</time>
      </trkpt>
      <trkpt lat="44.82532" lon="3.75224">
        <ele>798.3</ele>
        <time>2021-08-08T13:22:34Z</time>
      </trkpt>
      <trkpt lat="44.82527" lon="3.75224">
        <ele>799.2</ele>
        <time>2021-08-08T13:22:36Z</time>
      </trkpt>
      <trkpt lat="44.82521" lon="3.75222">
        <ele>800</ele>
        <time>2021-08-08T13:22:38Z</time>
      </trkpt>
      <trkpt lat="44.82515" lon="3.7522">
        <ele>800.3</ele>
        <time>2021-08-08T13:22:40Z</time>
      </trkpt>
      <trkpt lat="44.8251" lon="3.75216">
        <ele>799.6</ele>
        <time>2021-08-08T13:22:42Z</time>
      </trkpt>
      <trkpt lat="44.82505" lon="3.75213">
        <ele>799</ele>
        <time>2021-08-08T13:22:44Z</time>
      </trkpt>
      <trkpt lat="44.82499" lon="3.75209">
        <ele>798.4</ele>
        <time>2021-08-08T13:22:46Z</time>
      </trkpt>
      <trkpt lat="44.82494" lon="3.75206">
        <ele>798.8</ele>
        <time>2021-08-08T13:22:48Z</time>
      </trkpt>
      <trkpt lat="44.82489" lon="3.75202">
        <ele>798.6</ele>
        <time>2021-08-08T13:22:50Z</time>
      </trkpt>
      <trkpt lat="44.82484" lon="3.75198">
        <ele>798.5</ele>
        <time>2021-08-08T13:22:52Z</time>
      </trkpt>
      <trkpt lat="44.82478" lon="3.75195">
        <ele>798.9</ele>
        <time>2021-08-08T13:22:54Z</time>
      </trkpt>
      <trkpt lat="44.82473" lon="3.75192">
        <ele>799.1</ele>
        <time>2021-08-08T13:22:56Z</time>
      </trkpt>
      <trkpt lat="44.82468" lon="3.75189">
        <ele>799.3</ele>
        <time>2021-08-08T13:22:58Z</time>
      </trkpt>
      <trkpt lat="44.82464" lon="3.75186">
        <ele>799.3</ele>
        <time>2021-08-08T13:23:00Z</time>
      </trkpt>
      <trkpt lat="44.82459" lon="3.75183">
        <ele>799.5</ele>
        <time>2021-08-08T13:23:02Z</time>
      </trkpt>
      <trkpt lat="44.82454" lon="3.7518">
        <ele>799.8</ele>
        <time>2021-08-08T13:23:04Z</time>
      </trkpt>
      <trkpt lat="44.82449" lon="3.75177">
        <ele>799.7</ele>
        <time>2021-08-08T13:23:06Z</time>
      </trkpt>
      <trkpt lat="44.82444" lon="3.75173">
        <ele>799.8</ele>
        <time>2021-08-08T13:23:08Z</time>
      </trkpt>
      <trkpt lat="44.8244" lon="3.7517">
        <ele>799.7</ele>
        <time>2021-08-08T13:23:10Z</time>
      </trkpt>
      <trkpt lat="44.82435" lon="3.75168">
        <ele>800.5</ele>
        <time>2021-08-08T13:23:12Z</time>
      </trkpt>
      <trkpt lat="44.82429" lon="3.75165">
        <ele>800.9</ele>
        <time>2021-08-08T13:23:14Z</time>
      </trkpt>
      <trkpt lat="44.82424" lon="3.75162">
        <ele>801.3</ele>
        <time>2021-08-08T13:23:16Z</time>
      </trkpt>
      <trkpt lat="44.82419" lon="3.75158">
        <ele>801.3</ele>
        <time>2021-08-08T13:23:18Z</time>
      </trkpt>
      <trkpt lat="44.82414" lon="3.75155">
        <ele>800.8</ele>
        <time>2021-08-08T13:23:20Z</time>
      </trkpt>
      <trkpt lat="44.82409" lon="3.75151">
        <ele>799.7</ele>
        <time>2021-08-08T13:23:22Z</time>
      </trkpt>
      <trkpt lat="44.82403" lon="3.75147">
        <ele>798.4</ele>
        <time>2021-08-08T13:23:24Z</time>
      </trkpt>
      <trkpt lat="44.82397" lon="3.75143">
        <ele>797.4</ele>
        <time>2021-08-08T13:23:26Z</time>
      </trkpt>
      <trkpt lat="44.82392" lon="3.75139">
        <ele>796.2</ele>
        <time>2021-08-08T13:23:28Z</time>
      </trkpt>
      <trkpt lat="44.82387" lon="3.75135">
        <ele>795.3</ele>
        <time>2021-08-08T13:23:30Z</time>
      </trkpt>
      <trkpt lat="44.82381" lon="3.75131">
        <ele>794.1</ele>
        <time>2021-08-08T13:23:32Z</time>
      </trkpt>
      <trkpt lat="44.82376" lon="3.75127">
        <ele>793.2</ele>
        <time>2021-08-08T13:23:34Z</time>
      </trkpt>
      <trkpt lat="44.8237" lon="3.75124">
        <ele>792.6</ele>
        <time>2021-08-08T13:23:36Z</time>
      </trkpt>
      <trkpt lat="44.82365" lon="3.75119">
        <ele>791.4</ele>
        <time>2021-08-08T13:23:38Z</time>
      </trkpt>
      <trkpt lat="44.8236" lon="3.75116">
        <ele>790.8</ele>
        <time>2021-08-08T13:23:40Z</time>
      </trkpt>
      <trkpt lat="44.82355" lon="3.75112">
        <ele>789.9</ele>
        <time>2021-08-08T13:23:42Z</time>
      </trkpt>
      <trkpt lat="44.8235" lon="3.75109">
        <ele>789.1</ele>
        <time>2021-08-08T13:23:44Z</time>
      </trkpt>
      <trkpt lat="44.82344" lon="3.75106">
        <ele>788.6</ele>
        <time>2021-08-08T13:23:46Z</time>
      </trkpt>
      <trkpt lat="44.82339" lon="3.75102">
        <ele>787.7</ele>
        <time>2021-08-08T13:23:48Z</time>
      </trkpt>
      <trkpt lat="44.82334" lon="3.75097">
        <ele>786.6</ele>
        <time>2021-08-08T13:23:50Z</time>
      </trkpt>
      <trkpt lat="44.82329" lon="3.75095">
        <ele>784.9</ele>
        <time>2021-08-08T13:23:52Z</time>
      </trkpt>
      <trkpt lat="44.82324" lon="3.75092">
        <ele>782.8</ele>
        <time>2021-08-08T13:23:54Z</time>
      </trkpt>
      <trkpt lat="44.8232" lon="3.75091">
        <ele>781.6</ele>
        <time>2021-08-08T13:23:56Z</time>
      </trkpt>
      <trkpt lat="44.82315" lon="3.75091">
        <ele>780.7</ele>
        <time>2021-08-08T13:23:58Z</time>
      </trkpt>
      <trkpt lat="44.8231" lon="3.75093">
        <ele>780.3</ele>
        <time>2021-08-08T13:24:00Z</time>
      </trkpt>
      <trkpt lat="44.82305" lon="3.75096">
        <ele>780.4</ele>
        <time>2021-08-08T13:24:02Z</time>
      </trkpt>
      <trkpt lat="44.82301" lon="3.75099">
        <ele>780.7</ele>
        <time>2021-08-08T13:24:04Z</time>
      </trkpt>
      <trkpt lat="44.82297" lon="3.75103">
        <ele>781.3</ele>
        <time>2021-08-08T13:24:06Z</time>
      </trkpt>
      <trkpt lat="44.82293" lon="3.75109">
        <ele>782.2</ele>
        <time>2021-08-08T13:24:08Z</time>
      </trkpt>
      <trkpt lat="44.8229" lon="3.75114">
        <ele>783.1</ele>
        <time>2021-08-08T13:24:10Z</time>
      </trkpt>
      <trkpt lat="44.82287" lon="3.7512">
        <ele>784.2</ele>
        <time>2021-08-08T13:24:12Z</time>
      </trkpt>
      <trkpt lat="44.82284" lon="3.75127">
        <ele>785.2</ele>
        <time>2021-08-08T13:24:14Z</time>
      </trkpt>
      <trkpt lat="44.82281" lon="3.75132">
        <ele>785.8</ele>
        <time>2021-08-08T13:24:16Z</time>
      </trkpt>
      <trkpt lat="44.82277" lon="3.75138">
        <ele>786.3</ele>
        <time>2021-08-08T13:24:18Z</time>
      </trkpt>
      <trkpt lat="44.82274" lon="3.75144">
        <ele>787</ele>
        <time>2021-08-08T13:24:20Z</time>
      </trkpt>
      <trkpt lat="44.82271" lon="3.75151">
        <ele>787.8</ele>
        <time>2021-08-08T13:24:22Z</time>
      </trkpt>
      <trkpt lat="44.82268" lon="3.75156">
        <ele>788.2</ele>
        <time>2021-08-08T13:24:24Z</time>
      </trkpt>
      <trkpt lat="44.82264" lon="3.75162">
        <ele>788.2</ele>
        <time>2021-08-08T13:24:26Z</time>
      </trkpt>
      <trkpt lat="44.82261" lon="3.75167">
        <ele>788.4</ele>
        <time>2021-08-08T13:24:28Z</time>
      </trkpt>
      <trkpt lat="44.82258" lon="3.75173">
        <ele>788.9</ele>
        <time>2021-08-08T13:24:30Z</time>
      </trkpt>
      <trkpt lat="44.82256" lon="3.75178">
        <ele>789.5</ele>
        <time>2021-08-08T13:24:32Z</time>
      </trkpt>
      <trkpt lat="44.82252" lon="3.75184">
        <ele>789.7</ele>
        <time>2021-08-08T13:24:34Z</time>
      </trkpt>
      <trkpt lat="44.82249" lon="3.75189">
        <ele>790.4</ele>
        <time>2021-08-08T13:24:36Z</time>
      </trkpt>
      <trkpt lat="44.82246" lon="3.75195">
        <ele>791.3</ele>
        <time>2021-08-08T13:24:38Z</time>
      </trkpt>
      <trkpt lat="44.82243" lon="3.75201">
        <ele>792.2</ele>
        <time>2021-08-08T13:24:40Z</time>
      </trkpt>
      <trkpt lat="44.82239" lon="3.75207">
        <ele>792.9</ele>
        <time>2021-08-08T13:24:42Z</time>
      </trkpt>
      <trkpt lat="44.82236" lon="3.75213">
        <ele>793.5</ele>
        <time>2021-08-08T13:24:44Z</time>
      </trkpt>
      <trkpt lat="44.82233" lon="3.75219">
        <ele>794.1</ele>
        <time>2021-08-08T13:24:46Z</time>
      </trkpt>
      <trkpt lat="44.8223" lon="3.75225">
        <ele>794.8</ele>
        <time>2021-08-08T13:24:48Z</time>
      </trkpt>
      <trkpt lat="44.82226" lon="3.7523">
        <ele>795</ele>
        <time>2021-08-08T13:24:50Z</time>
      </trkpt>
      <trkpt lat="44.82223" lon="3.75236">
        <ele>795.3</ele>
        <time>2021-08-08T13:24:52Z</time>
      </trkpt>
      <trkpt lat="44.8222" lon="3.75242">
        <ele>795.6</ele>
        <time>2021-08-08T13:24:54Z</time>
      </trkpt>
      <trkpt lat="44.82217" lon="3.75247">
        <ele>795.9</ele>
        <time>2021-08-08T13:24:56Z</time>
      </trkpt>
      <trkpt lat="44.82214" lon="3.75253">
        <ele>796.2</ele>
        <time>2021-08-08T13:24:58Z</time>
      </trkpt>
      <trkpt lat="44.82211" lon="3.75259">
        <ele>796.2</ele>
        <time>2021-08-08T13:25:00Z</time>
      </trkpt>
      <trkpt lat="44.82207" lon="3.75264">
        <ele>796.1</ele>
        <time>2021-08-08T13:25:02Z</time>
      </trkpt>
      <trkpt lat="44.82204" lon="3.7527">
        <ele>796.5</ele>
        <time>2021-08-08T13:25:04Z</time>
      </trkpt>
      <trkpt lat="44.82201" lon="3.75276">
        <ele>796.8</ele>
        <time>2021-08-08T13:25:06Z</time>
      </trkpt>
      <trkpt lat="44.82197" lon="3.75281">
        <ele>796.6</ele>
        <time>2021-08-08T13:25:08Z</time>
      </trkpt>
      <trkpt lat="44.82194" lon="3.75287">
        <ele>796.9</ele>
        <time>2021-08-08T13:25:10Z</time>
      </trkpt>
      <trkpt lat="44.82191" lon="3.75292">
        <ele>797</ele>
        <time>2021-08-08T13:25:12Z</time>
      </trkpt>
      <trkpt lat="44.82188" lon="3.75298">
        <ele>797</ele>
        <time>2021-08-08T13:25:14Z</time>
      </trkpt>
      <trkpt lat="44.82184" lon="3.75303">
        <ele>797</ele>
        <time>2021-08-08T13:25:16Z</time>
      </trkpt>
      <trkpt lat="44.82181" lon="3.75309">
        <ele>797</ele>
        <time>2021-08-08T13:25:18Z</time>
      </trkpt>
      <trkpt lat="44.82178" lon="3.75315">
        <ele>797.2</ele>
        <time>2021-08-08T13:25:20Z</time>
      </trkpt>
      <trkpt lat="44.82175" lon="3.7532">
        <ele>797.1</ele>
        <time>2021-08-08T13:25:22Z</time>
      </trkpt>
      <trkpt lat="44.82171" lon="3.75326">
        <ele>797.2</ele>
        <time>2021-08-08T13:25:24Z</time>
      </trkpt>
      <trkpt lat="44.82168" lon="3.75332">
        <ele>797.3</ele>
        <time>2021-08-08T13:25:26Z</time>
      </trkpt>
      <trkpt lat="44.82165" lon="3.75337">
        <ele>797.4</ele>
        <time>2021-08-08T13:25:28Z</time>
      </trkpt>
      <trkpt lat="44.82162" lon="3.75344">
        <ele>797.8</ele>
        <time>2021-08-08T13:25:30Z</time>
      </trkpt>
      <trkpt lat="44.8216" lon="3.7535">
        <ele>798.2</ele>
        <time>2021-08-08T13:25:32Z</time>
      </trkpt>
      <trkpt lat="44.82158" lon="3.75357">
        <ele>798.9</ele>
        <time>2021-08-08T13:25:34Z</time>
      </trkpt>
      <trkpt lat="44.82156" lon="3.75364">
        <ele>799.5</ele>
        <time>2021-08-08T13:25:36Z</time>
      </trkpt>
      <trkpt lat="44.82154" lon="3.7537">
        <ele>800</ele>
        <time>2021-08-08T13:25:38Z</time>
      </trkpt>
      <trkpt lat="44.82152" lon="3.75376">
        <ele>800.3</ele>
        <time>2021-08-08T13:25:40Z</time>
      </trkpt>
      <trkpt lat="44.82151" lon="3.75384">
        <ele>801.2</ele>
        <time>2021-08-08T13:25:42Z</time>
      </trkpt>
      <trkpt lat="44.82149" lon="3.7539">
        <ele>801.8</ele>
        <time>2021-08-08T13:25:44Z</time>
      </trkpt>
      <trkpt lat="44.82148" lon="3.75397">
        <ele>802.3</ele>
        <time>2021-08-08T13:25:46Z</time>
      </trkpt>
      <trkpt lat="44.82146" lon="3.75404">
        <ele>802.7</ele>
        <time>2021-08-08T13:25:48Z</time>
      </trkpt>
      <trkpt lat="44.82145" lon="3.7541">
        <ele>803</ele>
        <time>2021-08-08T13:25:50Z</time>
      </trkpt>
      <trkpt lat="44.82143" lon="3.75417">
        <ele>803.3</ele>
        <time>2021-08-08T13:25:52Z</time>
      </trkpt>
      <trkpt lat="44.82141" lon="3.75424">
        <ele>803.7</ele>
        <time>2021-08-08T13:25:54Z</time>
      </trkpt>
      <trkpt lat="44.8214" lon="3.7543">
        <ele>804</ele>
        <time>2021-08-08T13:25:56Z</time>
      </trkpt>
      <trkpt lat="44.82138" lon="3.75437">
        <ele>804.2</ele>
        <time>2021-08-08T13:25:58Z</time>
      </trkpt>
      <trkpt lat="44.82136" lon="3.75444">
        <ele>804.5</ele>
        <time>2021-08-08T13:26:00Z</time>
      </trkpt>
      <trkpt lat="44.82135" lon="3.7545">
        <ele>804.8</ele>
        <time>2021-08-08T13:26:02Z</time>
      </trkpt>
      <trkpt lat="44.82133" lon="3.75457">
        <ele>804.9</ele>
        <time>2021-08-08T13:26:04Z</time>
      </trkpt>
      <trkpt lat="44.82131" lon="3.75464">
        <ele>805.1</ele>
        <time>2021-08-08T13:26:06Z</time>
      </trkpt>
      <trkpt lat="44.8213" lon="3.7547">
        <ele>805.4</ele>
        <time>2021-08-08T13:26:08Z</time>
      </trkpt>
      <trkpt lat="44.82128" lon="3.75477">
        <ele>805.5</ele>
        <time>2021-08-08T13:26:10Z</time>
      </trkpt>
      <trkpt lat="44.82126" lon="3.75484">
        <ele>805.7</ele>
        <time>2021-08-08T13:26:12Z</time>
      </trkpt>
      <trkpt lat="44.82124" lon="3.75491">
        <ele>805.8</ele>
        <time>2021-08-08T13:26:14Z</time>
      </trkpt>
      <trkpt lat="44.82123" lon="3.75498">
        <ele>805.9</ele>
        <time>2021-08-08T13:26:16Z</time>
      </trkpt>
      <trkpt lat="44.82121" lon="3.75504">
        <ele>806.8</ele>
        <time>2021-08-08T13:26:18Z</time>
      </trkpt>
      <trkpt lat="44.82119" lon="3.75511">
        <ele>807.9</ele>
        <time>2021-08-08T13:26:20Z</time>
      </trkpt>
      <trkpt lat="44.82117" lon="3.75517">
        <ele>808.6</ele>
        <time>2021-08-08T13:26:22Z</time>
      </trkpt>
      <trkpt lat="44.82114" lon="3.75523">
        <ele>809.4</ele>
        <time>2021-08-08T13:26:24Z</time>
      </trkpt>
      <trkpt lat="44.82111" lon="3.75529">
        <ele>810.3</ele>
        <time>2021-08-08T13:26:26Z</time>
      </trkpt>
      <trkpt lat="44.82109" lon="3.75536">
        <ele>811.3</ele>
        <time>2021-08-08T13:26:28Z</time>
      </trkpt>
      <trkpt lat="44.82106" lon="3.75542">
        <ele>811.8</ele>
        <time>2021-08-08T13:26:30Z</time>
      </trkpt>
      <trkpt lat="44.82103" lon="3.75547">
        <ele>812.3</ele>
        <time>2021-08-08T13:26:32Z</time>
      </trkpt>
      <trkpt lat="44.821" lon="3.75553">
        <ele>812.6</ele>
        <time>2021-08-08T13:26:34Z</time>
      </trkpt>
      <trkpt lat="44.82096" lon="3.75559">
        <ele>812.9</ele>
        <time>2021-08-08T13:26:36Z</time>
      </trkpt>
      <trkpt lat="44.82092" lon="3.75564">
        <ele>813.2</ele>
        <time>2021-08-08T13:26:38Z</time>
      </trkpt>
      <trkpt lat="44.82089" lon="3.75569">
        <ele>813.1</ele>
        <time>2021-08-08T13:26:40Z</time>
      </trkpt>
      <trkpt lat="44.82085" lon="3.75574">
        <ele>813.6</ele>
        <time>2021-08-08T13:26:42Z</time>
      </trkpt>
      <trkpt lat="44.82081" lon="3.75579">
        <ele>813.9</ele>
        <time>2021-08-08T13:26:44Z</time>
      </trkpt>
      <trkpt lat="44.82078" lon="3.75584">
        <ele>814.7</ele>
        <time>2021-08-08T13:26:46Z</time>
      </trkpt>
      <trkpt lat="44.82074" lon="3.75589">
        <ele>815.8</ele>
        <time>2021-08-08T13:26:48Z</time>
      </trkpt>
      <trkpt lat="44.8207" lon="3.75594">
        <ele>816.5</ele>
        <time>2021-08-08T13:26:50Z</time>
      </trkpt>
      <trkpt lat="44.82066" lon="3.75598">
        <ele>817.3</ele>
        <time>2021-08-08T13:26:52Z</time>
      </trkpt>
      <trkpt lat="44.82062" lon="3.75604">
        <ele>818.3</ele>
        <time>2021-08-08T13:26:54Z</time>
      </trkpt>
      <trkpt lat="44.82057" lon="3.75608">
        <ele>818.8</ele>
        <time>2021-08-08T13:26:56Z</time>
      </trkpt>
      <trkpt lat="44.82052" lon="3.75612">
        <ele>818.7</ele>
        <time>2021-08-08T13:26:58Z</time>
      </trkpt>
      <trkpt lat="44.82047" lon="3.75616">
        <ele>819</ele>
        <time>2021-08-08T13:27:00Z</time>
      </trkpt>
      <trkpt lat="44.82043" lon="3.75619">
        <ele>818.9</ele>
        <time>2021-08-08T13:27:02Z</time>
      </trkpt>
      <trkpt lat="44.82038" lon="3.75622">
        <ele>818.8</ele>
        <time>2021-08-08T13:27:04Z</time>
      </trkpt>
      <trkpt lat="44.82032" lon="3.75625">
        <ele>818.1</ele>
        <time>2021-08-08T13:27:06Z</time>
      </trkpt>
      <trkpt lat="44.82027" lon="3.75627">
        <ele>817.4</ele>
        <time>2021-08-08T13:27:08Z</time>
      </trkpt>
      <trkpt lat="44.82022" lon="3.7563">
        <ele>816.8</ele>
        <time>2021-08-08T13:27:10Z</time>
      </trkpt>
      <trkpt lat="44.82017" lon="3.75633">
        <ele>816.3</ele>
        <time>2021-08-08T13:27:12Z</time>
      </trkpt>
      <trkpt lat="44.82011" lon="3.75635">
        <ele>815.3</ele>
        <time>2021-08-08T13:27:14Z</time>
      </trkpt>
      <trkpt lat="44.82005" lon="3.75638">
        <ele>814.3</ele>
        <time>2021-08-08T13:27:16Z</time>
      </trkpt>
      <trkpt lat="44.82" lon="3.75641">
        <ele>813.8</ele>
        <time>2021-08-08T13:27:18Z</time>
      </trkpt>
      <trkpt lat="44.81994" lon="3.75643">
        <ele>813.6</ele>
        <time>2021-08-08T13:27:20Z</time>
      </trkpt>
      <trkpt lat="44.81989" lon="3.75645">
        <ele>813.7</ele>
        <time>2021-08-08T13:27:22Z</time>
      </trkpt>
      <trkpt lat="44.81984" lon="3.75648">
        <ele>813.6</ele>
        <time>2021-08-08T13:27:24Z</time>
      </trkpt>
      <trkpt lat="44.81979" lon="3.75651">
        <ele>813.8</ele>
        <time>2021-08-08T13:27:26Z</time>
      </trkpt>
      <trkpt lat="44.81974" lon="3.75653">
        <ele>813.9</ele>
        <time>2021-08-08T13:27:28Z</time>
      </trkpt>
      <trkpt lat="44.81969" lon="3.75656">
        <ele>813.9</ele>
        <time>2021-08-08T13:27:30Z</time>
      </trkpt>
      <trkpt lat="44.81965" lon="3.7566">
        <ele>814.6</ele>
        <time>2021-08-08T13:27:32Z</time>
      </trkpt>
      <trkpt lat="44.81961" lon="3.75665">
        <ele>815.4</ele>
        <time>2021-08-08T13:27:34Z</time>
      </trkpt>
      <trkpt lat="44.81957" lon="3.7567">
        <ele>815.9</ele>
        <time>2021-08-08T13:27:36Z</time>
      </trkpt>
      <trkpt lat="44.81954" lon="3.75675">
        <ele>816.2</ele>
        <time>2021-08-08T13:27:38Z</time>
      </trkpt>
      <trkpt lat="44.81952" lon="3.7568">
        <ele>816.5</ele>
        <time>2021-08-08T13:27:40Z</time>
      </trkpt>
      <trkpt lat="44.8195" lon="3.75684">
        <ele>816.9</ele>
        <time>2021-08-08T13:27:42Z</time>
      </trkpt>
      <trkpt lat="44.81948" lon="3.75688">
        <ele>817.2</ele>
        <time>2021-08-08T13:27:44Z</time>
      </trkpt>
      <trkpt lat="44.81946" lon="3.75691">
        <ele>817.3</ele>
        <time>2021-08-08T13:27:46Z</time>
      </trkpt>
      <trkpt lat="44.81946" lon="3.75693">
        <ele>817.6</ele>
        <time>2021-08-08T13:27:48Z</time>
      </trkpt>
      <trkpt lat="44.81944" lon="3.75697">
        <ele>817.7</ele>
        <time>2021-08-08T13:27:50Z</time>
      </trkpt>
      <trkpt lat="44.81942" lon="3.75702">
        <ele>818.2</ele>
        <time>2021-08-08T13:27:52Z</time>
      </trkpt>
      <trkpt lat="44.8194" lon="3.75707">
        <ele>818.4</ele>
        <time>2021-08-08T13:27:54Z</time>
      </trkpt>
      <trkpt lat="44.81938" lon="3.75711">
        <ele>818.6</ele>
        <time>2021-08-08T13:27:56Z</time>
      </trkpt>
      <trkpt lat="44.81936" lon="3.75717">
        <ele>818.9</ele>
        <time>2021-08-08T13:27:58Z</time>
      </trkpt>
      <trkpt lat="44.81934" lon="3.75722">
        <ele>819.3</ele>
        <time>2021-08-08T13:28:00Z</time>
      </trkpt>
      <trkpt lat="44.81931" lon="3.75728">
        <ele>819.3</ele>
        <time>2021-08-08T13:28:02Z</time>
      </trkpt>
      <trkpt lat="44.81929" lon="3.75734">
        <ele>819.6</ele>
        <time>2021-08-08T13:28:04Z</time>
      </trkpt>
      <trkpt lat="44.81926" lon="3.7574">
        <ele>819.8</ele>
        <time>2021-08-08T13:28:06Z</time>
      </trkpt>
      <trkpt lat="44.81924" lon="3.75746">
        <ele>819.9</ele>
        <time>2021-08-08T13:28:08Z</time>
      </trkpt>
      <trkpt lat="44.81921" lon="3.75752">
        <ele>820</ele>
        <time>2021-08-08T13:28:10Z</time>
      </trkpt>
      <trkpt lat="44.81919" lon="3.75758">
        <ele>819.9</ele>
        <time>2021-08-08T13:28:12Z</time>
      </trkpt>
      <trkpt lat="44.81916" lon="3.75764">
        <ele>820.3</ele>
        <time>2021-08-08T13:28:14Z</time>
      </trkpt>
      <trkpt lat="44.81913" lon="3.7577">
        <ele>821.4</ele>
        <time>2021-08-08T13:28:16Z</time>
      </trkpt>
      <trkpt lat="44.81911" lon="3.75776">
        <ele>822.4</ele>
        <time>2021-08-08T13:28:18Z</time>
      </trkpt>
      <trkpt lat="44.81909" lon="3.75782">
        <ele>823.4</ele>
        <time>2021-08-08T13:28:20Z</time>
      </trkpt>
      <trkpt lat="44.81906" lon="3.75788">
        <ele>824.3</ele>
        <time>2021-08-08T13:28:22Z</time>
      </trkpt>
      <trkpt lat="44.81903" lon="3.75794">
        <ele>825.2</ele>
        <time>2021-08-08T13:28:24Z</time>
      </trkpt>
      <trkpt lat="44.81901" lon="3.758">
        <ele>826.1</ele>
        <time>2021-08-08T13:28:26Z</time>
      </trkpt>
      <trkpt lat="44.81898" lon="3.75806">
        <ele>826.8</ele>
        <time>2021-08-08T13:28:28Z</time>
      </trkpt>
      <trkpt lat="44.81896" lon="3.75812">
        <ele>827.5</ele>
        <time>2021-08-08T13:28:30Z</time>
      </trkpt>
      <trkpt lat="44.81893" lon="3.75819">
        <ele>828.2</ele>
        <time>2021-08-08T13:28:32Z</time>
      </trkpt>
      <trkpt lat="44.8189" lon="3.75824">
        <ele>828.8</ele>
        <time>2021-08-08T13:28:34Z</time>
      </trkpt>
      <trkpt lat="44.81888" lon="3.7583">
        <ele>829.3</ele>
        <time>2021-08-08T13:28:36Z</time>
      </trkpt>
      <trkpt lat="44.81884" lon="3.75837">
        <ele>829.6</ele>
        <time>2021-08-08T13:28:38Z</time>
      </trkpt>
      <trkpt lat="44.81882" lon="3.75843">
        <ele>829.8</ele>
        <time>2021-08-08T13:28:40Z</time>
      </trkpt>
      <trkpt lat="44.81879" lon="3.75848">
        <ele>829.9</ele>
        <time>2021-08-08T13:28:42Z</time>
      </trkpt>
      <trkpt lat="44.81877" lon="3.75855">
        <ele>829.9</ele>
        <time>2021-08-08T13:28:44Z</time>
      </trkpt>
      <trkpt lat="44.81874" lon="3.75861">
        <ele>829.9</ele>
        <time>2021-08-08T13:28:46Z</time>
      </trkpt>
      <trkpt lat="44.81872" lon="3.75867">
        <ele>829.9</ele>
        <time>2021-08-08T13:28:48Z</time>
      </trkpt>
      <trkpt lat="44.81869" lon="3.75873">
        <ele>829.8</ele>
        <time>2021-08-08T13:28:50Z</time>
      </trkpt>
      <trkpt lat="44.81867" lon="3.75879">
        <ele>829.6</ele>
        <time>2021-08-08T13:28:52Z</time>
      </trkpt>
      <trkpt lat="44.81864" lon="3.75885">
        <ele>829.3</ele>
        <time>2021-08-08T13:28:54Z</time>
      </trkpt>
      <trkpt lat="44.81861" lon="3.75892">
        <ele>829</ele>
        <time>2021-08-08T13:28:56Z</time>
      </trkpt>
      <trkpt lat="44.81858" lon="3.75898">
        <ele>828.7</ele>
        <time>2021-08-08T13:28:58Z</time>
      </trkpt>
      <trkpt lat="44.81856" lon="3.75905">
        <ele>828.3</ele>
        <time>2021-08-08T13:29:00Z</time>
      </trkpt>
      <trkpt lat="44.81853" lon="3.75911">
        <ele>827.8</ele>
        <time>2021-08-08T13:29:02Z</time>
      </trkpt>
      <trkpt lat="44.8185" lon="3.75918">
        <ele>827.3</ele>
        <time>2021-08-08T13:29:04Z</time>
      </trkpt>
      <trkpt lat="44.81847" lon="3.75924">
        <ele>827.3</ele>
        <time>2021-08-08T13:29:06Z</time>
      </trkpt>
      <trkpt lat="44.81845" lon="3.75931">
        <ele>827.2</ele>
        <time>2021-08-08T13:29:08Z</time>
      </trkpt>
      <trkpt lat="44.81842" lon="3.75937">
        <ele>827.1</ele>
        <time>2021-08-08T13:29:10Z</time>
      </trkpt>
      <trkpt lat="44.81839" lon="3.75943">
        <ele>826.9</ele>
        <time>2021-08-08T13:29:12Z</time>
      </trkpt>
      <trkpt lat="44.81836" lon="3.75949">
        <ele>826.6</ele>
        <time>2021-08-08T13:29:14Z</time>
      </trkpt>
      <trkpt lat="44.81834" lon="3.75955">
        <ele>826.4</ele>
        <time>2021-08-08T13:29:16Z</time>
      </trkpt>
      <trkpt lat="44.81831" lon="3.75961">
        <ele>826.2</ele>
        <time>2021-08-08T13:29:18Z</time>
      </trkpt>
      <trkpt lat="44.81829" lon="3.75967">
        <ele>826.1</ele>
        <time>2021-08-08T13:29:20Z</time>
      </trkpt>
      <trkpt lat="44.81826" lon="3.75973">
        <ele>825.8</ele>
        <time>2021-08-08T13:29:22Z</time>
      </trkpt>
      <trkpt lat="44.81824" lon="3.7598">
        <ele>825.7</ele>
        <time>2021-08-08T13:29:24Z</time>
      </trkpt>
      <trkpt lat="44.81822" lon="3.75986">
        <ele>825.5</ele>
        <time>2021-08-08T13:29:26Z</time>
      </trkpt>
      <trkpt lat="44.8182" lon="3.75993">
        <ele>825.5</ele>
        <time>2021-08-08T13:29:28Z</time>
      </trkpt>
      <trkpt lat="44.81819" lon="3.76">
        <ele>825.4</ele>
        <time>2021-08-08T13:29:30Z</time>
      </trkpt>
      <trkpt lat="44.81819" lon="3.76007">
        <ele>824.2</ele>
        <time>2021-08-08T13:29:32Z</time>
      </trkpt>
      <trkpt lat="44.8182" lon="3.76014">
        <ele>823.1</ele>
        <time>2021-08-08T13:29:34Z</time>
      </trkpt>
      <trkpt lat="44.81822" lon="3.7602">
        <ele>822.2</ele>
        <time>2021-08-08T13:29:36Z</time>
      </trkpt>
      <trkpt lat="44.81824" lon="3.76027">
        <ele>821.6</ele>
        <time>2021-08-08T13:29:38Z</time>
      </trkpt>
      <trkpt lat="44.81827" lon="3.76033">
        <ele>821.1</ele>
        <time>2021-08-08T13:29:40Z</time>
      </trkpt>
      <trkpt lat="44.81831" lon="3.76039">
        <ele>820.9</ele>
        <time>2021-08-08T13:29:42Z</time>
      </trkpt>
      <trkpt lat="44.81835" lon="3.76044">
        <ele>821</ele>
        <time>2021-08-08T13:29:44Z</time>
      </trkpt>
      <trkpt lat="44.81839" lon="3.76049">
        <ele>821.5</ele>
        <time>2021-08-08T13:29:46Z</time>
      </trkpt>
      <trkpt lat="44.81843" lon="3.76054">
        <ele>821.9</ele>
        <time>2021-08-08T13:29:48Z</time>
      </trkpt>
      <trkpt lat="44.81847" lon="3.76059">
        <ele>822.7</ele>
        <time>2021-08-08T13:29:50Z</time>
      </trkpt>
      <trkpt lat="44.81851" lon="3.76063">
        <ele>823.4</ele>
        <time>2021-08-08T13:29:52Z</time>
      </trkpt>
      <trkpt lat="44.81854" lon="3.76068">
        <ele>824</ele>
        <time>2021-08-08T13:29:54Z</time>
      </trkpt>
      <trkpt lat="44.81859" lon="3.76072">
        <ele>824.9</ele>
        <time>2021-08-08T13:29:56Z</time>
      </trkpt>
      <trkpt lat="44.81863" lon="3.76076">
        <ele>825.7</ele>
        <time>2021-08-08T13:29:58Z</time>
      </trkpt>
      <trkpt lat="44.81867" lon="3.76081">
        <ele>826.5</ele>
        <time>2021-08-08T13:30:00Z</time>
      </trkpt>
      <trkpt lat="44.8187" lon="3.76086">
        <ele>827.2</ele>
        <time>2021-08-08T13:30:02Z</time>
      </trkpt>
      <trkpt lat="44.81874" lon="3.76091">
        <ele>827.8</ele>
        <time>2021-08-08T13:30:04Z</time>
      </trkpt>
      <trkpt lat="44.81878" lon="3.76096">
        <ele>828.3</ele>
        <time>2021-08-08T13:30:06Z</time>
      </trkpt>
      <trkpt lat="44.81882" lon="3.761">
        <ele>828.9</ele>
        <time>2021-08-08T13:30:08Z</time>
      </trkpt>
      <trkpt lat="44.81886" lon="3.76105">
        <ele>829.6</ele>
        <time>2021-08-08T13:30:10Z</time>
      </trkpt>
      <trkpt lat="44.8189" lon="3.76109">
        <ele>830.2</ele>
        <time>2021-08-08T13:30:12Z</time>
      </trkpt>
      <trkpt lat="44.81894" lon="3.76115">
        <ele>830.8</ele>
        <time>2021-08-08T13:30:14Z</time>
      </trkpt>
      <trkpt lat="44.81898" lon="3.76119">
        <ele>831.1</ele>
        <time>2021-08-08T13:30:16Z</time>
      </trkpt>
      <trkpt lat="44.81902" lon="3.76125">
        <ele>831.7</ele>
        <time>2021-08-08T13:30:18Z</time>
      </trkpt>
      <trkpt lat="44.81906" lon="3.76129">
        <ele>832.3</ele>
        <time>2021-08-08T13:30:20Z</time>
      </trkpt>
      <trkpt lat="44.8191" lon="3.76134">
        <ele>832.7</ele>
        <time>2021-08-08T13:30:22Z</time>
      </trkpt>
      <trkpt lat="44.81914" lon="3.76138">
        <ele>833.2</ele>
        <time>2021-08-08T13:30:24Z</time>
      </trkpt>
      <trkpt lat="44.81918" lon="3.76143">
        <ele>833.6</ele>
        <time>2021-08-08T13:30:26Z</time>
      </trkpt>
      <trkpt lat="44.81922" lon="3.76148">
        <ele>834.1</ele>
        <time>2021-08-08T13:30:28Z</time>
      </trkpt>
      <trkpt lat="44.81926" lon="3.76152">
        <ele>834.6</ele>
        <time>2021-08-08T13:30:30Z</time>
      </trkpt>
      <trkpt lat="44.8193" lon="3.76157">
        <ele>835.3</ele>
        <time>2021-08-08T13:30:32Z</time>
      </trkpt>
      <trkpt lat="44.81934" lon="3.76162">
        <ele>835.8</ele>
        <time>2021-08-08T13:30:34Z</time>
      </trkpt>
      <trkpt lat="44.81938" lon="3.76166">
        <ele>836.5</ele>
        <time>2021-08-08T13:30:36Z</time>
      </trkpt>
      <trkpt lat="44.81942" lon="3.76171">
        <ele>837.9</ele>
        <time>2021-08-08T13:30:38Z</time>
      </trkpt>
      <trkpt lat="44.81946" lon="3.76175">
        <ele>839.3</ele>
        <time>2021-08-08T13:30:40Z</time>
      </trkpt>
      <trkpt lat="44.8195" lon="3.76181">
        <ele>840.6</ele>
        <time>2021-08-08T13:30:42Z</time>
      </trkpt>
      <trkpt lat="44.81953" lon="3.76187">
        <ele>841.5</ele>
        <time>2021-08-08T13:30:44Z</time>
      </trkpt>
      <trkpt lat="44.81955" lon="3.76194">
        <ele>842.2</ele>
        <time>2021-08-08T13:30:46Z</time>
      </trkpt>
      <trkpt lat="44.81956" lon="3.76201">
        <ele>842.3</ele>
        <time>2021-08-08T13:30:48Z</time>
      </trkpt>
      <trkpt lat="44.81955" lon="3.76209">
        <ele>841.7</ele>
        <time>2021-08-08T13:30:50Z</time>
      </trkpt>
      <trkpt lat="44.81953" lon="3.76216">
        <ele>840.8</ele>
        <time>2021-08-08T13:30:52Z</time>
      </trkpt>
      <trkpt lat="44.8195" lon="3.76222">
        <ele>839</ele>
        <time>2021-08-08T13:30:54Z</time>
      </trkpt>
      <trkpt lat="44.81946" lon="3.76228">
        <ele>837.3</ele>
        <time>2021-08-08T13:30:56Z</time>
      </trkpt>
      <trkpt lat="44.81943" lon="3.76234">
        <ele>835.6</ele>
        <time>2021-08-08T13:30:58Z</time>
      </trkpt>
      <trkpt lat="44.8194" lon="3.76239">
        <ele>834.2</ele>
        <time>2021-08-08T13:31:00Z</time>
      </trkpt>
      <trkpt lat="44.81937" lon="3.76245">
        <ele>832.8</ele>
        <time>2021-08-08T13:31:02Z</time>
      </trkpt>
      <trkpt lat="44.81935" lon="3.76251">
        <ele>831.5</ele>
        <time>2021-08-08T13:31:04Z</time>
      </trkpt>
      <trkpt lat="44.81933" lon="3.76258">
        <ele>830.2</ele>
        <time>2021-08-08T13:31:06Z</time>
      </trkpt>
      <trkpt lat="44.81933" lon="3.76265">
        <ele>829.7</ele>
        <time>2021-08-08T13:31:08Z</time>
      </trkpt>
      <trkpt lat="44.81932" lon="3.76273">
        <ele>829</ele>
        <time>2021-08-08T13:31:10Z</time>
      </trkpt>
      <trkpt lat="44.81934" lon="3.7628">
        <ele>829.2</ele>
        <time>2021-08-08T13:31:12Z</time>
      </trkpt>
      <trkpt lat="44.81935" lon="3.76287">
        <ele>829.4</ele>
        <time>2021-08-08T13:31:14Z</time>
      </trkpt>
      <trkpt lat="44.81936" lon="3.76294">
        <ele>829.5</ele>
        <time>2021-08-08T13:31:16Z</time>
      </trkpt>
      <trkpt lat="44.81939" lon="3.763">
        <ele>830.4</ele>
        <time>2021-08-08T13:31:18Z</time>
      </trkpt>
      <trkpt lat="44.81942" lon="3.76306">
        <ele>831.2</ele>
        <time>2021-08-08T13:31:20Z</time>
      </trkpt>
      <trkpt lat="44.81945" lon="3.76312">
        <ele>832.2</ele>
        <time>2021-08-08T13:31:22Z</time>
      </trkpt>
      <trkpt lat="44.81947" lon="3.76318">
        <ele>832.9</ele>
        <time>2021-08-08T13:31:24Z</time>
      </trkpt>
      <trkpt lat="44.8195" lon="3.76324">
        <ele>833.7</ele>
        <time>2021-08-08T13:31:26Z</time>
      </trkpt>
      <trkpt lat="44.81953" lon="3.76329">
        <ele>834.6</ele>
        <time>2021-08-08T13:31:28Z</time>
      </trkpt>
      <trkpt lat="44.81956" lon="3.76334">
        <ele>835.9</ele>
        <time>2021-08-08T13:31:30Z</time>
      </trkpt>
      <trkpt lat="44.8196" lon="3.76339">
        <ele>836.8</ele>
        <time>2021-08-08T13:31:32Z</time>
      </trkpt>
      <trkpt lat="44.81963" lon="3.76344">
        <ele>837.6</ele>
        <time>2021-08-08T13:31:34Z</time>
      </trkpt>
      <trkpt lat="44.81966" lon="3.7635">
        <ele>837.9</ele>
        <time>2021-08-08T13:31:36Z</time>
      </trkpt>
      <trkpt lat="44.81969" lon="3.76356">
        <ele>838.3</ele>
        <time>2021-08-08T13:31:38Z</time>
      </trkpt>
      <trkpt lat="44.81973" lon="3.76361">
        <ele>839.1</ele>
        <time>2021-08-08T13:31:40Z</time>
      </trkpt>
      <trkpt lat="44.81976" lon="3.76366">
        <ele>839.7</ele>
        <time>2021-08-08T13:31:42Z</time>
      </trkpt>
      <trkpt lat="44.8198" lon="3.76371">
        <ele>840.3</ele>
        <time>2021-08-08T13:31:44Z</time>
      </trkpt>
      <trkpt lat="44.81983" lon="3.76376">
        <ele>840.5</ele>
        <time>2021-08-08T13:31:46Z</time>
      </trkpt>
      <trkpt lat="44.81986" lon="3.76381">
        <ele>840.8</ele>
        <time>2021-08-08T13:31:48Z</time>
      </trkpt>
      <trkpt lat="44.81989" lon="3.76386">
        <ele>841.2</ele>
        <time>2021-08-08T13:31:50Z</time>
      </trkpt>
      <trkpt lat="44.81992" lon="3.7639">
        <ele>841.6</ele>
        <time>2021-08-08T13:31:52Z</time>
      </trkpt>
      <trkpt lat="44.81995" lon="3.76396">
        <ele>841.6</ele>
        <time>2021-08-08T13:31:54Z</time>
      </trkpt>
      <trkpt lat="44.81998" lon="3.764">
        <ele>841.7</ele>
        <time>2021-08-08T13:31:56Z</time>
      </trkpt>
      <trkpt lat="44.82001" lon="3.76405">
        <ele>841.6</ele>
        <time>2021-08-08T13:31:58Z</time>
      </trkpt>
      <trkpt lat="44.82004" lon="3.7641">
        <ele>841.6</ele>
        <time>2021-08-08T13:32:00Z</time>
      </trkpt>
      <trkpt lat="44.82007" lon="3.76414">
        <ele>841.7</ele>
        <time>2021-08-08T13:32:02Z</time>
      </trkpt>
      <trkpt lat="44.8201" lon="3.76418">
        <ele>842</ele>
        <time>2021-08-08T13:32:04Z</time>
      </trkpt>
      <trkpt lat="44.82013" lon="3.76422">
        <ele>842.7</ele>
        <time>2021-08-08T13:32:06Z</time>
      </trkpt>
      <trkpt lat="44.82017" lon="3.76426">
        <ele>843.4</ele>
        <time>2021-08-08T13:32:08Z</time>
      </trkpt>
      <trkpt lat="44.82021" lon="3.7643">
        <ele>844</ele>
        <time>2021-08-08T13:32:10Z</time>
      </trkpt>
      <trkpt lat="44.82025" lon="3.76434">
        <ele>844.7</ele>
        <time>2021-08-08T13:32:12Z</time>
      </trkpt>
      <trkpt lat="44.82028" lon="3.76436">
        <ele>845.4</ele>
        <time>2021-08-08T13:32:14Z</time>
      </trkpt>
      <trkpt lat="44.82032" lon="3.76438">
        <ele>846.2</ele>
        <time>2021-08-08T13:32:16Z</time>
      </trkpt>
      <trkpt lat="44.82036" lon="3.76441">
        <ele>846.9</ele>
        <time>2021-08-08T13:32:18Z</time>
      </trkpt>
      <trkpt lat="44.8204" lon="3.76443">
        <ele>847.4</ele>
        <time>2021-08-08T13:32:20Z</time>
      </trkpt>
      <trkpt lat="44.82044" lon="3.76445">
        <ele>848.3</ele>
        <time>2021-08-08T13:32:22Z</time>
      </trkpt>
      <trkpt lat="44.82049" lon="3.76448">
        <ele>849</ele>
        <time>2021-08-08T13:32:24Z</time>
      </trkpt>
      <trkpt lat="44.82054" lon="3.76451">
        <ele>849.7</ele>
        <time>2021-08-08T13:32:26Z</time>
      </trkpt>
      <trkpt lat="44.82058" lon="3.76453">
        <ele>850</ele>
        <time>2021-08-08T13:32:28Z</time>
      </trkpt>
      <trkpt lat="44.82064" lon="3.76455">
        <ele>850.9</ele>
        <time>2021-08-08T13:32:30Z</time>
      </trkpt>
      <trkpt lat="44.82068" lon="3.76458">
        <ele>851.3</ele>
        <time>2021-08-08T13:32:32Z</time>
      </trkpt>
      <trkpt lat="44.82073" lon="3.76461">
        <ele>851.8</ele>
        <time>2021-08-08T13:32:34Z</time>
      </trkpt>
      <trkpt lat="44.82077" lon="3.76464">
        <ele>851.9</ele>
        <time>2021-08-08T13:32:36Z</time>
      </trkpt>
      <trkpt lat="44.82081" lon="3.76466">
        <ele>852.1</ele>
        <time>2021-08-08T13:32:38Z</time>
      </trkpt>
      <trkpt lat="44.82085" lon="3.76469">
        <ele>852.2</ele>
        <time>2021-08-08T13:32:40Z</time>
      </trkpt>
      <trkpt lat="44.8209" lon="3.76472">
        <ele>852.3</ele>
        <time>2021-08-08T13:32:42Z</time>
      </trkpt>
      <trkpt lat="44.82094" lon="3.76475">
        <ele>852.7</ele>
        <time>2021-08-08T13:32:44Z</time>
      </trkpt>
      <trkpt lat="44.82098" lon="3.76478">
        <ele>852.7</ele>
        <time>2021-08-08T13:32:46Z</time>
      </trkpt>
      <trkpt lat="44.82103" lon="3.76481">
        <ele>853.1</ele>
        <time>2021-08-08T13:32:48Z</time>
      </trkpt>
      <trkpt lat="44.82107" lon="3.76483">
        <ele>853.2</ele>
        <time>2021-08-08T13:32:50Z</time>
      </trkpt>
      <trkpt lat="44.82111" lon="3.76486">
        <ele>853.6</ele>
        <time>2021-08-08T13:32:52Z</time>
      </trkpt>
      <trkpt lat="44.82115" lon="3.76488">
        <ele>853.9</ele>
        <time>2021-08-08T13:32:54Z</time>
      </trkpt>
      <trkpt lat="44.8212" lon="3.7649">
        <ele>854.4</ele>
        <time>2021-08-08T13:32:56Z</time>
      </trkpt>
      <trkpt lat="44.82125" lon="3.76493">
        <ele>854.7</ele>
        <time>2021-08-08T13:32:58Z</time>
      </trkpt>
      <trkpt lat="44.82129" lon="3.76496">
        <ele>854.9</ele>
        <time>2021-08-08T13:33:00Z</time>
      </trkpt>
      <trkpt lat="44.82134" lon="3.76498">
        <ele>855.3</ele>
        <time>2021-08-08T13:33:02Z</time>
      </trkpt>
      <trkpt lat="44.82139" lon="3.76502">
        <ele>856</ele>
        <time>2021-08-08T13:33:04Z</time>
      </trkpt>
      <trkpt lat="44.82143" lon="3.76504">
        <ele>856.9</ele>
        <time>2021-08-08T13:33:06Z</time>
      </trkpt>
      <trkpt lat="44.82148" lon="3.76507">
        <ele>857.7</ele>
        <time>2021-08-08T13:33:08Z</time>
      </trkpt>
      <trkpt lat="44.82152" lon="3.76509">
        <ele>858.4</ele>
        <time>2021-08-08T13:33:10Z</time>
      </trkpt>
      <trkpt lat="44.82156" lon="3.76511">
        <ele>859</ele>
        <time>2021-08-08T13:33:12Z</time>
      </trkpt>
      <trkpt lat="44.82161" lon="3.76514">
        <ele>859.7</ele>
        <time>2021-08-08T13:33:14Z</time>
      </trkpt>
      <trkpt lat="44.82165" lon="3.76516">
        <ele>860.1</ele>
        <time>2021-08-08T13:33:16Z</time>
      </trkpt>
      <trkpt lat="44.8217" lon="3.76519">
        <ele>860.7</ele>
        <time>2021-08-08T13:33:18Z</time>
      </trkpt>
      <trkpt lat="44.82174" lon="3.76522">
        <ele>861.3</ele>
        <time>2021-08-08T13:33:20Z</time>
      </trkpt>
      <trkpt lat="44.82178" lon="3.76524">
        <ele>861.8</ele>
        <time>2021-08-08T13:33:22Z</time>
      </trkpt>
      <trkpt lat="44.82183" lon="3.76526">
        <ele>862.2</ele>
        <time>2021-08-08T13:33:24Z</time>
      </trkpt>
      <trkpt lat="44.82187" lon="3.76529">
        <ele>862.7</ele>
        <time>2021-08-08T13:33:26Z</time>
      </trkpt>
      <trkpt lat="44.82191" lon="3.76531">
        <ele>863.1</ele>
        <time>2021-08-08T13:33:28Z</time>
      </trkpt>
      <trkpt lat="44.82195" lon="3.76534">
        <ele>863.4</ele>
        <time>2021-08-08T13:33:30Z</time>
      </trkpt>
      <trkpt lat="44.822" lon="3.76537">
        <ele>863.9</ele>
        <time>2021-08-08T13:33:32Z</time>
      </trkpt>
      <trkpt lat="44.82204" lon="3.7654">
        <ele>864.2</ele>
        <time>2021-08-08T13:33:34Z</time>
      </trkpt>
      <trkpt lat="44.82208" lon="3.76542">
        <ele>864.5</ele>
        <time>2021-08-08T13:33:36Z</time>
      </trkpt>
      <trkpt lat="44.82213" lon="3.76544">
        <ele>864.8</ele>
        <time>2021-08-08T13:33:38Z</time>
      </trkpt>
      <trkpt lat="44.82217" lon="3.76547">
        <ele>865.1</ele>
        <time>2021-08-08T13:33:40Z</time>
      </trkpt>
      <trkpt lat="44.82221" lon="3.76549">
        <ele>865.4</ele>
        <time>2021-08-08T13:33:42Z</time>
      </trkpt>
      <trkpt lat="44.82225" lon="3.76551">
        <ele>865.6</ele>
        <time>2021-08-08T13:33:44Z</time>
      </trkpt>
      <trkpt lat="44.82229" lon="3.76554">
        <ele>865.8</ele>
        <time>2021-08-08T13:33:46Z</time>
      </trkpt>
      <trkpt lat="44.82234" lon="3.76556">
        <ele>866</ele>
        <time>2021-08-08T13:33:48Z</time>
      </trkpt>
      <trkpt lat="44.82238" lon="3.76559">
        <ele>866.1</ele>
        <time>2021-08-08T13:33:50Z</time>
      </trkpt>
      <trkpt lat="44.82242" lon="3.76561">
        <ele>866.3</ele>
        <time>2021-08-08T13:33:52Z</time>
      </trkpt>
      <trkpt lat="44.82246" lon="3.76565">
        <ele>865.9</ele>
        <time>2021-08-08T13:33:54Z</time>
      </trkpt>
      <trkpt lat="44.8225" lon="3.76569">
        <ele>865.7</ele>
        <time>2021-08-08T13:33:56Z</time>
      </trkpt>
      <trkpt lat="44.82253" lon="3.76574">
        <ele>865.6</ele>
        <time>2021-08-08T13:33:58Z</time>
      </trkpt>
      <trkpt lat="44.82256" lon="3.7658">
        <ele>865.3</ele>
        <time>2021-08-08T13:34:00Z</time>
      </trkpt>
      <trkpt lat="44.82258" lon="3.76587">
        <ele>865.8</ele>
        <time>2021-08-08T13:34:02Z</time>
      </trkpt>
      <trkpt lat="44.82259" lon="3.76593">
        <ele>866.6</ele>
        <time>2021-08-08T13:34:04Z</time>
      </trkpt>
      <trkpt lat="44.82259" lon="3.766">
        <ele>867.2</ele>
        <time>2021-08-08T13:34:06Z</time>
      </trkpt>
      <trkpt lat="44.82259" lon="3.76608">
        <ele>867.5</ele>
        <time>2021-08-08T13:34:08Z</time>
      </trkpt>
      <trkpt lat="44.82256" lon="3.76615">
        <ele>867.5</ele>
        <time>2021-08-08T13:34:10Z</time>
      </trkpt>
      <trkpt lat="44.82253" lon="3.76621">
        <ele>867.3</ele>
        <time>2021-08-08T13:34:12Z</time>
      </trkpt>
      <trkpt lat="44.8225" lon="3.76625">
        <ele>867</ele>
        <time>2021-08-08T13:34:14Z</time>
      </trkpt>
      <trkpt lat="44.82246" lon="3.7663">
        <ele>867.4</ele>
        <time>2021-08-08T13:34:16Z</time>
      </trkpt>
      <trkpt lat="44.82242" lon="3.76633">
        <ele>867.8</ele>
        <time>2021-08-08T13:34:18Z</time>
      </trkpt>
      <trkpt lat="44.82236" lon="3.76635">
        <ele>868</ele>
        <time>2021-08-08T13:34:20Z</time>
      </trkpt>
      <trkpt lat="44.82232" lon="3.76635">
        <ele>868.1</ele>
        <time>2021-08-08T13:34:22Z</time>
      </trkpt>
      <trkpt lat="44.82227" lon="3.76635">
        <ele>868.1</ele>
        <time>2021-08-08T13:34:24Z</time>
      </trkpt>
      <trkpt lat="44.82222" lon="3.76634">
        <ele>868</ele>
        <time>2021-08-08T13:34:26Z</time>
      </trkpt>
      <trkpt lat="44.82217" lon="3.76633">
        <ele>867.8</ele>
        <time>2021-08-08T13:34:28Z</time>
      </trkpt>
      <trkpt lat="44.82212" lon="3.76632">
        <ele>867.6</ele>
        <time>2021-08-08T13:34:30Z</time>
      </trkpt>
      <trkpt lat="44.82208" lon="3.7663">
        <ele>867.3</ele>
        <time>2021-08-08T13:34:32Z</time>
      </trkpt>
      <trkpt lat="44.82203" lon="3.76629">
        <ele>867</ele>
        <time>2021-08-08T13:34:34Z</time>
      </trkpt>
      <trkpt lat="44.82198" lon="3.76629">
        <ele>866.8</ele>
        <time>2021-08-08T13:34:36Z</time>
      </trkpt>
      <trkpt lat="44.82193" lon="3.76628">
        <ele>866.7</ele>
        <time>2021-08-08T13:34:38Z</time>
      </trkpt>
      <trkpt lat="44.82188" lon="3.76627">
        <ele>866.4</ele>
        <time>2021-08-08T13:34:40Z</time>
      </trkpt>
      <trkpt lat="44.82183" lon="3.76626">
        <ele>866.1</ele>
        <time>2021-08-08T13:34:42Z</time>
      </trkpt>
      <trkpt lat="44.82177" lon="3.76626">
        <ele>865.9</ele>
        <time>2021-08-08T13:34:44Z</time>
      </trkpt>
      <trkpt lat="44.82172" lon="3.76626">
        <ele>865.7</ele>
        <time>2021-08-08T13:34:46Z</time>
      </trkpt>
      <trkpt lat="44.82167" lon="3.76626">
        <ele>865.7</ele>
        <time>2021-08-08T13:34:48Z</time>
      </trkpt>
      <trkpt lat="44.82161" lon="3.76626">
        <ele>866.1</ele>
        <time>2021-08-08T13:34:50Z</time>
      </trkpt>
      <trkpt lat="44.82156" lon="3.76625">
        <ele>866.2</ele>
        <time>2021-08-08T13:34:52Z</time>
      </trkpt>
      <trkpt lat="44.8215" lon="3.76623">
        <ele>866</ele>
        <time>2021-08-08T13:34:54Z</time>
      </trkpt>
      <trkpt lat="44.82145" lon="3.76622">
        <ele>866.1</ele>
        <time>2021-08-08T13:34:56Z</time>
      </trkpt>
      <trkpt lat="44.8214" lon="3.7662">
        <ele>865.8</ele>
        <time>2021-08-08T13:34:58Z</time>
      </trkpt>
      <trkpt lat="44.82135" lon="3.76618">
        <ele>865.8</ele>
        <time>2021-08-08T13:35:00Z</time>
      </trkpt>
      <trkpt lat="44.82129" lon="3.76617">
        <ele>865.8</ele>
        <time>2021-08-08T13:35:02Z</time>
      </trkpt>
      <trkpt lat="44.82125" lon="3.76616">
        <ele>865.8</ele>
        <time>2021-08-08T13:35:04Z</time>
      </trkpt>
      <trkpt lat="44.8212" lon="3.76614">
        <ele>865.7</ele>
        <time>2021-08-08T13:35:06Z</time>
      </trkpt>
      <trkpt lat="44.82114" lon="3.76613">
        <ele>865.7</ele>
        <time>2021-08-08T13:35:08Z</time>
      </trkpt>
      <trkpt lat="44.8211" lon="3.76611">
        <ele>865.4</ele>
        <time>2021-08-08T13:35:10Z</time>
      </trkpt>
      <trkpt lat="44.82105" lon="3.76609">
        <ele>865.4</ele>
        <time>2021-08-08T13:35:12Z</time>
      </trkpt>
      <trkpt lat="44.821" lon="3.76607">
        <ele>865</ele>
        <time>2021-08-08T13:35:14Z</time>
      </trkpt>
      <trkpt lat="44.82095" lon="3.76605">
        <ele>865</ele>
        <time>2021-08-08T13:35:16Z</time>
      </trkpt>
      <trkpt lat="44.8209" lon="3.76603">
        <ele>864.7</ele>
        <time>2021-08-08T13:35:18Z</time>
      </trkpt>
      <trkpt lat="44.82085" lon="3.76602">
        <ele>864.8</ele>
        <time>2021-08-08T13:35:20Z</time>
      </trkpt>
      <trkpt lat="44.8208" lon="3.76601">
        <ele>864.2</ele>
        <time>2021-08-08T13:35:22Z</time>
      </trkpt>
      <trkpt lat="44.82075" lon="3.76599">
        <ele>863.4</ele>
        <time>2021-08-08T13:35:24Z</time>
      </trkpt>
      <trkpt lat="44.82069" lon="3.76599">
        <ele>862.8</ele>
        <time>2021-08-08T13:35:26Z</time>
      </trkpt>
      <trkpt lat="44.82064" lon="3.76599">
        <ele>862.3</ele>
        <time>2021-08-08T13:35:28Z</time>
      </trkpt>
      <trkpt lat="44.82058" lon="3.76601">
        <ele>862.3</ele>
        <time>2021-08-08T13:35:30Z</time>
      </trkpt>
      <trkpt lat="44.82053" lon="3.76602">
        <ele>861.9</ele>
        <time>2021-08-08T13:35:32Z</time>
      </trkpt>
      <trkpt lat="44.82048" lon="3.76604">
        <ele>861.9</ele>
        <time>2021-08-08T13:35:34Z</time>
      </trkpt>
      <trkpt lat="44.82043" lon="3.76607">
        <ele>861.8</ele>
        <time>2021-08-08T13:35:36Z</time>
      </trkpt>
      <trkpt lat="44.82038" lon="3.7661">
        <ele>861.8</ele>
        <time>2021-08-08T13:35:38Z</time>
      </trkpt>
      <trkpt lat="44.82034" lon="3.76613">
        <ele>861.8</ele>
        <time>2021-08-08T13:35:40Z</time>
      </trkpt>
      <trkpt lat="44.8203" lon="3.76618">
        <ele>862.3</ele>
        <time>2021-08-08T13:35:42Z</time>
      </trkpt>
      <trkpt lat="44.82026" lon="3.76624">
        <ele>862.7</ele>
        <time>2021-08-08T13:35:44Z</time>
      </trkpt>
      <trkpt lat="44.82025" lon="3.76631">
        <ele>863.4</ele>
        <time>2021-08-08T13:35:46Z</time>
      </trkpt>
      <trkpt lat="44.82024" lon="3.76637">
        <ele>864.3</ele>
        <time>2021-08-08T13:35:48Z</time>
      </trkpt>
      <trkpt lat="44.82024" lon="3.76644">
        <ele>865.2</ele>
        <time>2021-08-08T13:35:50Z</time>
      </trkpt>
      <trkpt lat="44.82025" lon="3.76652">
        <ele>866.4</ele>
        <time>2021-08-08T13:35:52Z</time>
      </trkpt>
      <trkpt lat="44.82026" lon="3.76661">
        <ele>868</ele>
        <time>2021-08-08T13:35:54Z</time>
      </trkpt>
      <trkpt lat="44.82028" lon="3.76669">
        <ele>869.3</ele>
        <time>2021-08-08T13:35:56Z</time>
      </trkpt>
      <trkpt lat="44.82028" lon="3.76677">
        <ele>869.8</ele>
        <time>2021-08-08T13:35:58Z</time>
      </trkpt>
      <trkpt lat="44.82029" lon="3.76684">
        <ele>870.2</ele>
        <time>2021-08-08T13:36:00Z</time>
      </trkpt>
      <trkpt lat="44.82031" lon="3.76692">
        <ele>870.8</ele>
        <time>2021-08-08T13:36:02Z</time>
      </trkpt>
      <trkpt lat="44.82032" lon="3.76698">
        <ele>871.4</ele>
        <time>2021-08-08T13:36:04Z</time>
      </trkpt>
      <trkpt lat="44.82033" lon="3.76706">
        <ele>871.7</ele>
        <time>2021-08-08T13:36:06Z</time>
      </trkpt>
      <trkpt lat="44.82034" lon="3.76713">
        <ele>872.2</ele>
        <time>2021-08-08T13:36:08Z</time>
      </trkpt>
      <trkpt lat="44.82035" lon="3.76719">
        <ele>872.7</ele>
        <time>2021-08-08T13:36:10Z</time>
      </trkpt>
      <trkpt lat="44.82035" lon="3.76726">
        <ele>873.1</ele>
        <time>2021-08-08T13:36:12Z</time>
      </trkpt>
      <trkpt lat="44.82035" lon="3.76734">
        <ele>873.2</ele>
        <time>2021-08-08T13:36:14Z</time>
      </trkpt>
      <trkpt lat="44.82034" lon="3.76741">
        <ele>873.2</ele>
        <time>2021-08-08T13:36:16Z</time>
      </trkpt>
      <trkpt lat="44.82035" lon="3.76748">
        <ele>873.9</ele>
        <time>2021-08-08T13:36:18Z</time>
      </trkpt>
      <trkpt lat="44.82035" lon="3.76755">
        <ele>874.2</ele>
        <time>2021-08-08T13:36:20Z</time>
      </trkpt>
      <trkpt lat="44.82033" lon="3.76762">
        <ele>874.3</ele>
        <time>2021-08-08T13:36:22Z</time>
      </trkpt>
      <trkpt lat="44.82033" lon="3.76767">
        <ele>874.6</ele>
        <time>2021-08-08T13:36:24Z</time>
      </trkpt>
      <trkpt lat="44.8203" lon="3.76774">
        <ele>874.5</ele>
        <time>2021-08-08T13:36:26Z</time>
      </trkpt>
      <trkpt lat="44.82028" lon="3.7678">
        <ele>874.3</ele>
        <time>2021-08-08T13:36:28Z</time>
      </trkpt>
      <trkpt lat="44.82025" lon="3.76787">
        <ele>874.2</ele>
        <time>2021-08-08T13:36:30Z</time>
      </trkpt>
      <trkpt lat="44.82023" lon="3.76792">
        <ele>874</ele>
        <time>2021-08-08T13:36:32Z</time>
      </trkpt>
      <trkpt lat="44.82021" lon="3.76799">
        <ele>874</ele>
        <time>2021-08-08T13:36:34Z</time>
      </trkpt>
      <trkpt lat="44.82019" lon="3.76805">
        <ele>874.1</ele>
        <time>2021-08-08T13:36:36Z</time>
      </trkpt>
      <trkpt lat="44.82016" lon="3.76812">
        <ele>874</ele>
        <time>2021-08-08T13:36:38Z</time>
      </trkpt>
      <trkpt lat="44.82013" lon="3.76819">
        <ele>874</ele>
        <time>2021-08-08T13:36:40Z</time>
      </trkpt>
      <trkpt lat="44.82011" lon="3.76826">
        <ele>874.1</ele>
        <time>2021-08-08T13:36:42Z</time>
      </trkpt>
      <trkpt lat="44.82008" lon="3.76833">
        <ele>874.1</ele>
        <time>2021-08-08T13:36:44Z</time>
      </trkpt>
      <trkpt lat="44.82005" lon="3.76839">
        <ele>873.9</ele>
        <time>2021-08-08T13:36:46Z</time>
      </trkpt>
      <trkpt lat="44.82003" lon="3.76846">
        <ele>874</ele>
        <time>2021-08-08T13:36:48Z</time>
      </trkpt>
      <trkpt lat="44.82001" lon="3.76853">
        <ele>874</ele>
        <time>2021-08-08T13:36:50Z</time>
      </trkpt>
      <trkpt lat="44.81998" lon="3.76859">
        <ele>873.8</ele>
        <time>2021-08-08T13:36:52Z</time>
      </trkpt>
      <trkpt lat="44.81996" lon="3.76865">
        <ele>873.5</ele>
        <time>2021-08-08T13:36:54Z</time>
      </trkpt>
      <trkpt lat="44.81994" lon="3.76871">
        <ele>873.4</ele>
        <time>2021-08-08T13:36:56Z</time>
      </trkpt>
      <trkpt lat="44.81993" lon="3.76877">
        <ele>873.6</ele>
        <time>2021-08-08T13:36:58Z</time>
      </trkpt>
      <trkpt lat="44.81991" lon="3.76883">
        <ele>873.7</ele>
        <time>2021-08-08T13:37:00Z</time>
      </trkpt>
      <trkpt lat="44.8199" lon="3.7689">
        <ele>873.8</ele>
        <time>2021-08-08T13:37:02Z</time>
      </trkpt>
      <trkpt lat="44.81988" lon="3.76897">
        <ele>874.1</ele>
        <time>2021-08-08T13:37:04Z</time>
      </trkpt>
      <trkpt lat="44.81988" lon="3.76903">
        <ele>874.5</ele>
        <time>2021-08-08T13:37:06Z</time>
      </trkpt>
      <trkpt lat="44.81987" lon="3.7691">
        <ele>875.1</ele>
        <time>2021-08-08T13:37:08Z</time>
      </trkpt>
      <trkpt lat="44.81987" lon="3.76916">
        <ele>875.7</ele>
        <time>2021-08-08T13:37:10Z</time>
      </trkpt>
      <trkpt lat="44.81987" lon="3.76923">
        <ele>876.2</ele>
        <time>2021-08-08T13:37:12Z</time>
      </trkpt>
      <trkpt lat="44.81987" lon="3.7693">
        <ele>876.6</ele>
        <time>2021-08-08T13:37:14Z</time>
      </trkpt>
      <trkpt lat="44.81987" lon="3.76937">
        <ele>877.1</ele>
        <time>2021-08-08T13:37:16Z</time>
      </trkpt>
      <trkpt lat="44.81987" lon="3.76944">
        <ele>877.4</ele>
        <time>2021-08-08T13:37:18Z</time>
      </trkpt>
      <trkpt lat="44.81987" lon="3.76952">
        <ele>877.9</ele>
        <time>2021-08-08T13:37:20Z</time>
      </trkpt>
      <trkpt lat="44.81987" lon="3.76959">
        <ele>878.3</ele>
        <time>2021-08-08T13:37:22Z</time>
      </trkpt>
      <trkpt lat="44.81986" lon="3.76966">
        <ele>878.6</ele>
        <time>2021-08-08T13:37:24Z</time>
      </trkpt>
      <trkpt lat="44.81986" lon="3.76973">
        <ele>879</ele>
        <time>2021-08-08T13:37:26Z</time>
      </trkpt>
      <trkpt lat="44.81986" lon="3.7698">
        <ele>879.4</ele>
        <time>2021-08-08T13:37:28Z</time>
      </trkpt>
      <trkpt lat="44.81986" lon="3.76986">
        <ele>879.9</ele>
        <time>2021-08-08T13:37:30Z</time>
      </trkpt>
      <trkpt lat="44.81986" lon="3.76992">
        <ele>880.2</ele>
        <time>2021-08-08T13:37:32Z</time>
      </trkpt>
      <trkpt lat="44.81986" lon="3.76999">
        <ele>880.7</ele>
        <time>2021-08-08T13:37:34Z</time>
      </trkpt>
      <trkpt lat="44.81987" lon="3.77005">
        <ele>881.9</ele>
        <time>2021-08-08T13:37:36Z</time>
      </trkpt>
      <trkpt lat="44.81987" lon="3.77011">
        <ele>882.6</ele>
        <time>2021-08-08T13:37:38Z</time>
      </trkpt>
      <trkpt lat="44.81987" lon="3.77018">
        <ele>883.7</ele>
        <time>2021-08-08T13:37:40Z</time>
      </trkpt>
      <trkpt lat="44.81987" lon="3.77025">
        <ele>884.7</ele>
        <time>2021-08-08T13:37:42Z</time>
      </trkpt>
      <trkpt lat="44.81987" lon="3.77031">
        <ele>885.6</ele>
        <time>2021-08-08T13:37:44Z</time>
      </trkpt>
      <trkpt lat="44.81987" lon="3.77038">
        <ele>886.6</ele>
        <time>2021-08-08T13:37:46Z</time>
      </trkpt>
      <trkpt lat="44.81987" lon="3.77044">
        <ele>887.5</ele>
        <time>2021-08-08T13:37:48Z</time>
      </trkpt>
      <trkpt lat="44.81988" lon="3.7705">
        <ele>888.6</ele>
        <time>2021-08-08T13:37:50Z</time>
      </trkpt>
      <trkpt lat="44.81988" lon="3.77054">
        <ele>889.1</ele>
        <time>2021-08-08T13:37:52Z</time>
      </trkpt>
      <trkpt lat="44.81987" lon="3.7706">
        <ele>889.8</ele>
        <time>2021-08-08T13:37:54Z</time>
      </trkpt>
      <trkpt lat="44.81988" lon="3.77066">
        <ele>891</ele>
        <time>2021-08-08T13:37:56Z</time>
      </trkpt>
      <trkpt lat="44.81988" lon="3.77073">
        <ele>891.9</ele>
        <time>2021-08-08T13:37:58Z</time>
      </trkpt>
      <trkpt lat="44.81987" lon="3.77079">
        <ele>892.6</ele>
        <time>2021-08-08T13:38:00Z</time>
      </trkpt>
      <trkpt lat="44.81987" lon="3.77086">
        <ele>893.4</ele>
        <time>2021-08-08T13:38:02Z</time>
      </trkpt>
      <trkpt lat="44.81986" lon="3.77091">
        <ele>894.1</ele>
        <time>2021-08-08T13:38:04Z</time>
      </trkpt>
      <trkpt lat="44.81986" lon="3.77099">
        <ele>895</ele>
        <time>2021-08-08T13:38:06Z</time>
      </trkpt>
      <trkpt lat="44.81984" lon="3.77105">
        <ele>895.6</ele>
        <time>2021-08-08T13:38:08Z</time>
      </trkpt>
      <trkpt lat="44.81982" lon="3.77111">
        <ele>895.9</ele>
        <time>2021-08-08T13:38:10Z</time>
      </trkpt>
      <trkpt lat="44.81979" lon="3.77116">
        <ele>896.2</ele>
        <time>2021-08-08T13:38:12Z</time>
      </trkpt>
      <trkpt lat="44.81974" lon="3.7712">
        <ele>896</ele>
        <time>2021-08-08T13:38:14Z</time>
      </trkpt>
      <trkpt lat="44.81969" lon="3.77121">
        <ele>895.4</ele>
        <time>2021-08-08T13:38:16Z</time>
      </trkpt>
      <trkpt lat="44.81964" lon="3.77121">
        <ele>894.5</ele>
        <time>2021-08-08T13:38:18Z</time>
      </trkpt>
      <trkpt lat="44.81959" lon="3.77118">
        <ele>893.3</ele>
        <time>2021-08-08T13:38:20Z</time>
      </trkpt>
      <trkpt lat="44.81954" lon="3.77115">
        <ele>892.1</ele>
        <time>2021-08-08T13:38:22Z</time>
      </trkpt>
      <trkpt lat="44.8195" lon="3.77112">
        <ele>890.8</ele>
        <time>2021-08-08T13:38:24Z</time>
      </trkpt>
      <trkpt lat="44.81945" lon="3.77109">
        <ele>889.4</ele>
        <time>2021-08-08T13:38:26Z</time>
      </trkpt>
      <trkpt lat="44.81941" lon="3.77108">
        <ele>888.4</ele>
        <time>2021-08-08T13:38:28Z</time>
      </trkpt>
      <trkpt lat="44.81936" lon="3.77106">
        <ele>887.1</ele>
        <time>2021-08-08T13:38:30Z</time>
      </trkpt>
      <trkpt lat="44.81931" lon="3.77103">
        <ele>885.6</ele>
        <time>2021-08-08T13:38:32Z</time>
      </trkpt>
      <trkpt lat="44.81926" lon="3.77103">
        <ele>884.8</ele>
        <time>2021-08-08T13:38:34Z</time>
      </trkpt>
      <trkpt lat="44.81922" lon="3.77105">
        <ele>884.5</ele>
        <time>2021-08-08T13:38:36Z</time>
      </trkpt>
      <trkpt lat="44.81917" lon="3.77108">
        <ele>884.3</ele>
        <time>2021-08-08T13:38:38Z</time>
      </trkpt>
      <trkpt lat="44.81913" lon="3.77111">
        <ele>883.3</ele>
        <time>2021-08-08T13:38:40Z</time>
      </trkpt>
      <trkpt lat="44.81909" lon="3.77116">
        <ele>882.8</ele>
        <time>2021-08-08T13:38:42Z</time>
      </trkpt>
      <trkpt lat="44.81906" lon="3.77121">
        <ele>882.6</ele>
        <time>2021-08-08T13:38:44Z</time>
      </trkpt>
      <trkpt lat="44.81904" lon="3.77126">
        <ele>883.1</ele>
        <time>2021-08-08T13:38:46Z</time>
      </trkpt>
      <trkpt lat="44.81902" lon="3.77132">
        <ele>883.4</ele>
        <time>2021-08-08T13:38:48Z</time>
      </trkpt>
      <trkpt lat="44.819" lon="3.77137">
        <ele>883.9</ele>
        <time>2021-08-08T13:38:50Z</time>
      </trkpt>
      <trkpt lat="44.81898" lon="3.77143">
        <ele>884.3</ele>
        <time>2021-08-08T13:38:52Z</time>
      </trkpt>
      <trkpt lat="44.81896" lon="3.77148">
        <ele>884.6</ele>
        <time>2021-08-08T13:38:54Z</time>
      </trkpt>
      <trkpt lat="44.81894" lon="3.77154">
        <ele>884.9</ele>
        <time>2021-08-08T13:38:56Z</time>
      </trkpt>
      <trkpt lat="44.81892" lon="3.7716">
        <ele>885.2</ele>
        <time>2021-08-08T13:38:58Z</time>
      </trkpt>
      <trkpt lat="44.81889" lon="3.77165">
        <ele>885.5</ele>
        <time>2021-08-08T13:39:00Z</time>
      </trkpt>
      <trkpt lat="44.81887" lon="3.77171">
        <ele>885.5</ele>
        <time>2021-08-08T13:39:02Z</time>
      </trkpt>
      <trkpt lat="44.81886" lon="3.77177">
        <ele>885.6</ele>
        <time>2021-08-08T13:39:04Z</time>
      </trkpt>
      <trkpt lat="44.81883" lon="3.77182">
        <ele>885.3</ele>
        <time>2021-08-08T13:39:06Z</time>
      </trkpt>
      <trkpt lat="44.81881" lon="3.77188">
        <ele>885.3</ele>
        <time>2021-08-08T13:39:08Z</time>
      </trkpt>
      <trkpt lat="44.8188" lon="3.77194">
        <ele>885.4</ele>
        <time>2021-08-08T13:39:10Z</time>
      </trkpt>
      <trkpt lat="44.81879" lon="3.772">
        <ele>885.8</ele>
        <time>2021-08-08T13:39:12Z</time>
      </trkpt>
      <trkpt lat="44.81878" lon="3.77207">
        <ele>886.3</ele>
        <time>2021-08-08T13:39:14Z</time>
      </trkpt>
      <trkpt lat="44.81877" lon="3.77213">
        <ele>886.7</ele>
        <time>2021-08-08T13:39:16Z</time>
      </trkpt>
      <trkpt lat="44.81876" lon="3.77219">
        <ele>887.3</ele>
        <time>2021-08-08T13:39:18Z</time>
      </trkpt>
      <trkpt lat="44.81876" lon="3.77226">
        <ele>888.1</ele>
        <time>2021-08-08T13:39:20Z</time>
      </trkpt>
      <trkpt lat="44.81875" lon="3.77233">
        <ele>888.8</ele>
        <time>2021-08-08T13:39:22Z</time>
      </trkpt>
      <trkpt lat="44.81874" lon="3.77239">
        <ele>889.2</ele>
        <time>2021-08-08T13:39:24Z</time>
      </trkpt>
      <trkpt lat="44.81874" lon="3.77245">
        <ele>890.4</ele>
        <time>2021-08-08T13:39:26Z</time>
      </trkpt>
      <trkpt lat="44.81874" lon="3.77251">
        <ele>891.1</ele>
        <time>2021-08-08T13:39:28Z</time>
      </trkpt>
      <trkpt lat="44.81873" lon="3.77258">
        <ele>891.3</ele>
        <time>2021-08-08T13:39:30Z</time>
      </trkpt>
      <trkpt lat="44.81872" lon="3.77265">
        <ele>891.5</ele>
        <time>2021-08-08T13:39:32Z</time>
      </trkpt>
      <trkpt lat="44.81871" lon="3.77272">
        <ele>891.9</ele>
        <time>2021-08-08T13:39:34Z</time>
      </trkpt>
      <trkpt lat="44.81871" lon="3.77279">
        <ele>892.3</ele>
        <time>2021-08-08T13:39:36Z</time>
      </trkpt>
      <trkpt lat="44.8187" lon="3.77286">
        <ele>892.8</ele>
        <time>2021-08-08T13:39:38Z</time>
      </trkpt>
      <trkpt lat="44.81869" lon="3.77293">
        <ele>893</ele>
        <time>2021-08-08T13:39:40Z</time>
      </trkpt>
      <trkpt lat="44.81869" lon="3.773">
        <ele>893.6</ele>
        <time>2021-08-08T13:39:42Z</time>
      </trkpt>
      <trkpt lat="44.81868" lon="3.77307">
        <ele>893.8</ele>
        <time>2021-08-08T13:39:44Z</time>
      </trkpt>
      <trkpt lat="44.81867" lon="3.77314">
        <ele>894.1</ele>
        <time>2021-08-08T13:39:46Z</time>
      </trkpt>
      <trkpt lat="44.81867" lon="3.7732">
        <ele>894.7</ele>
        <time>2021-08-08T13:39:48Z</time>
      </trkpt>
      <trkpt lat="44.81866" lon="3.77326">
        <ele>894.6</ele>
        <time>2021-08-08T13:39:50Z</time>
      </trkpt>
      <trkpt lat="44.81866" lon="3.77333">
        <ele>895</ele>
        <time>2021-08-08T13:39:52Z</time>
      </trkpt>
      <trkpt lat="44.81864" lon="3.7734">
        <ele>895.4</ele>
        <time>2021-08-08T13:39:54Z</time>
      </trkpt>
      <trkpt lat="44.81863" lon="3.77347">
        <ele>895.5</ele>
        <time>2021-08-08T13:39:56Z</time>
      </trkpt>
      <trkpt lat="44.81861" lon="3.77354">
        <ele>895.9</ele>
        <time>2021-08-08T13:39:58Z</time>
      </trkpt>
      <trkpt lat="44.81859" lon="3.77361">
        <ele>896.2</ele>
        <time>2021-08-08T13:40:00Z</time>
      </trkpt>
      <trkpt lat="44.81857" lon="3.77368">
        <ele>896.4</ele>
        <time>2021-08-08T13:40:02Z</time>
      </trkpt>
      <trkpt lat="44.81856" lon="3.77374">
        <ele>896.7</ele>
        <time>2021-08-08T13:40:04Z</time>
      </trkpt>
      <trkpt lat="44.81854" lon="3.7738">
        <ele>896.8</ele>
        <time>2021-08-08T13:40:06Z</time>
      </trkpt>
      <trkpt lat="44.81852" lon="3.77388">
        <ele>897.2</ele>
        <time>2021-08-08T13:40:08Z</time>
      </trkpt>
      <trkpt lat="44.8185" lon="3.77393">
        <ele>897.1</ele>
        <time>2021-08-08T13:40:10Z</time>
      </trkpt>
      <trkpt lat="44.81848" lon="3.774">
        <ele>897.1</ele>
        <time>2021-08-08T13:40:12Z</time>
      </trkpt>
      <trkpt lat="44.81845" lon="3.77406">
        <ele>897.3</ele>
        <time>2021-08-08T13:40:14Z</time>
      </trkpt>
      <trkpt lat="44.81843" lon="3.77412">
        <ele>897.3</ele>
        <time>2021-08-08T13:40:16Z</time>
      </trkpt>
      <trkpt lat="44.81842" lon="3.77418">
        <ele>898</ele>
        <time>2021-08-08T13:40:18Z</time>
      </trkpt>
      <trkpt lat="44.81838" lon="3.77424">
        <ele>897.4</ele>
        <time>2021-08-08T13:40:20Z</time>
      </trkpt>
      <trkpt lat="44.81836" lon="3.77431">
        <ele>897.5</ele>
        <time>2021-08-08T13:40:22Z</time>
      </trkpt>
      <trkpt lat="44.81834" lon="3.77437">
        <ele>897.8</ele>
        <time>2021-08-08T13:40:24Z</time>
      </trkpt>
      <trkpt lat="44.81831" lon="3.77442">
        <ele>897.6</ele>
        <time>2021-08-08T13:40:26Z</time>
      </trkpt>
      <trkpt lat="44.81829" lon="3.77448">
        <ele>897.5</ele>
        <time>2021-08-08T13:40:28Z</time>
      </trkpt>
      <trkpt lat="44.81827" lon="3.77453">
        <ele>897.3</ele>
        <time>2021-08-08T13:40:30Z</time>
      </trkpt>
      <trkpt lat="44.81824" lon="3.77459">
        <ele>897.3</ele>
        <time>2021-08-08T13:40:32Z</time>
      </trkpt>
      <trkpt lat="44.81823" lon="3.77464">
        <ele>897.6</ele>
        <time>2021-08-08T13:40:34Z</time>
      </trkpt>
      <trkpt lat="44.81821" lon="3.7747">
        <ele>897.5</ele>
        <time>2021-08-08T13:40:36Z</time>
      </trkpt>
      <trkpt lat="44.81818" lon="3.77476">
        <ele>897.4</ele>
        <time>2021-08-08T13:40:38Z</time>
      </trkpt>
      <trkpt lat="44.81817" lon="3.77482">
        <ele>897.6</ele>
        <time>2021-08-08T13:40:40Z</time>
      </trkpt>
      <trkpt lat="44.81814" lon="3.77487">
        <ele>897.3</ele>
        <time>2021-08-08T13:40:42Z</time>
      </trkpt>
      <trkpt lat="44.81812" lon="3.77493">
        <ele>897.3</ele>
        <time>2021-08-08T13:40:44Z</time>
      </trkpt>
      <trkpt lat="44.81809" lon="3.77499">
        <ele>897.3</ele>
        <time>2021-08-08T13:40:46Z</time>
      </trkpt>
      <trkpt lat="44.81807" lon="3.77506">
        <ele>895.7</ele>
        <time>2021-08-08T13:40:48Z</time>
      </trkpt>
      <trkpt lat="44.81805" lon="3.77513">
        <ele>893.9</ele>
        <time>2021-08-08T13:40:50Z</time>
      </trkpt>
      <trkpt lat="44.81803" lon="3.77519">
        <ele>892.3</ele>
        <time>2021-08-08T13:40:52Z</time>
      </trkpt>
      <trkpt lat="44.81802" lon="3.77525">
        <ele>890.8</ele>
        <time>2021-08-08T13:40:54Z</time>
      </trkpt>
      <trkpt lat="44.818" lon="3.77531">
        <ele>889.3</ele>
        <time>2021-08-08T13:40:56Z</time>
      </trkpt>
      <trkpt lat="44.81799" lon="3.77538">
        <ele>887.9</ele>
        <time>2021-08-08T13:40:58Z</time>
      </trkpt>
      <trkpt lat="44.81798" lon="3.77545">
        <ele>887</ele>
        <time>2021-08-08T13:41:00Z</time>
      </trkpt>
      <trkpt lat="44.81798" lon="3.77551">
        <ele>886.2</ele>
        <time>2021-08-08T13:41:02Z</time>
      </trkpt>
      <trkpt lat="44.81799" lon="3.77557">
        <ele>885.7</ele>
        <time>2021-08-08T13:41:04Z</time>
      </trkpt>
      <trkpt lat="44.818" lon="3.77563">
        <ele>885.6</ele>
        <time>2021-08-08T13:41:06Z</time>
      </trkpt>
      <trkpt lat="44.81803" lon="3.77569">
        <ele>886</ele>
        <time>2021-08-08T13:41:08Z</time>
      </trkpt>
      <trkpt lat="44.81807" lon="3.77573">
        <ele>886.8</ele>
        <time>2021-08-08T13:41:10Z</time>
      </trkpt>
      <trkpt lat="44.81811" lon="3.77575">
        <ele>888</ele>
        <time>2021-08-08T13:41:12Z</time>
      </trkpt>
      <trkpt lat="44.81815" lon="3.77576">
        <ele>889.1</ele>
        <time>2021-08-08T13:41:14Z</time>
      </trkpt>
      <trkpt lat="44.8182" lon="3.77575">
        <ele>891</ele>
        <time>2021-08-08T13:41:16Z</time>
      </trkpt>
      <trkpt lat="44.81825" lon="3.77575">
        <ele>892.8</ele>
        <time>2021-08-08T13:41:18Z</time>
      </trkpt>
      <trkpt lat="44.8183" lon="3.77572">
        <ele>894.9</ele>
        <time>2021-08-08T13:41:20Z</time>
      </trkpt>
      <trkpt lat="44.81835" lon="3.7757">
        <ele>896.6</ele>
        <time>2021-08-08T13:41:22Z</time>
      </trkpt>
      <trkpt lat="44.81839" lon="3.77568">
        <ele>897.9</ele>
        <time>2021-08-08T13:41:24Z</time>
      </trkpt>
      <trkpt lat="44.81844" lon="3.77565">
        <ele>899.2</ele>
        <time>2021-08-08T13:41:26Z</time>
      </trkpt>
      <trkpt lat="44.8185" lon="3.77564">
        <ele>900.4</ele>
        <time>2021-08-08T13:41:28Z</time>
      </trkpt>
      <trkpt lat="44.81854" lon="3.77562">
        <ele>901.5</ele>
        <time>2021-08-08T13:41:30Z</time>
      </trkpt>
      <trkpt lat="44.8186" lon="3.7756">
        <ele>902.8</ele>
        <time>2021-08-08T13:41:32Z</time>
      </trkpt>
      <trkpt lat="44.81865" lon="3.77558">
        <ele>904</ele>
        <time>2021-08-08T13:41:34Z</time>
      </trkpt>
      <trkpt lat="44.8187" lon="3.77556">
        <ele>905.2</ele>
        <time>2021-08-08T13:41:36Z</time>
      </trkpt>
      <trkpt lat="44.81875" lon="3.77554">
        <ele>906.6</ele>
        <time>2021-08-08T13:41:38Z</time>
      </trkpt>
      <trkpt lat="44.8188" lon="3.77552">
        <ele>907.8</ele>
        <time>2021-08-08T13:41:40Z</time>
      </trkpt>
      <trkpt lat="44.81885" lon="3.77549">
        <ele>908.9</ele>
        <time>2021-08-08T13:41:42Z</time>
      </trkpt>
      <trkpt lat="44.8189" lon="3.77547">
        <ele>910.1</ele>
        <time>2021-08-08T13:41:44Z</time>
      </trkpt>
      <trkpt lat="44.81895" lon="3.77546">
        <ele>911.1</ele>
        <time>2021-08-08T13:41:46Z</time>
      </trkpt>
      <trkpt lat="44.81901" lon="3.77541">
        <ele>913</ele>
        <time>2021-08-08T13:41:48Z</time>
      </trkpt>
      <trkpt lat="44.81906" lon="3.77542">
        <ele>913.6</ele>
        <time>2021-08-08T13:41:50Z</time>
      </trkpt>
      <trkpt lat="44.81913" lon="3.77541">
        <ele>915</ele>
        <time>2021-08-08T13:41:52Z</time>
      </trkpt>
      <trkpt lat="44.81917" lon="3.77542">
        <ele>915.4</ele>
        <time>2021-08-08T13:41:54Z</time>
      </trkpt>
      <trkpt lat="44.81922" lon="3.77545">
        <ele>916.1</ele>
        <time>2021-08-08T13:41:56Z</time>
      </trkpt>
      <trkpt lat="44.81925" lon="3.7755">
        <ele>916.3</ele>
        <time>2021-08-08T13:41:58Z</time>
      </trkpt>
      <trkpt lat="44.81928" lon="3.77557">
        <ele>915.9</ele>
        <time>2021-08-08T13:42:00Z</time>
      </trkpt>
      <trkpt lat="44.81928" lon="3.77565">
        <ele>915</ele>
        <time>2021-08-08T13:42:02Z</time>
      </trkpt>
      <trkpt lat="44.81927" lon="3.77572">
        <ele>913.9</ele>
        <time>2021-08-08T13:42:04Z</time>
      </trkpt>
      <trkpt lat="44.81926" lon="3.77579">
        <ele>912.7</ele>
        <time>2021-08-08T13:42:06Z</time>
      </trkpt>
      <trkpt lat="44.81925" lon="3.77586">
        <ele>911.9</ele>
        <time>2021-08-08T13:42:08Z</time>
      </trkpt>
      <trkpt lat="44.81925" lon="3.77593">
        <ele>911.9</ele>
        <time>2021-08-08T13:42:10Z</time>
      </trkpt>
      <trkpt lat="44.81923" lon="3.776">
        <ele>911.6</ele>
        <time>2021-08-08T13:42:12Z</time>
      </trkpt>
      <trkpt lat="44.81922" lon="3.77606">
        <ele>911.4</ele>
        <time>2021-08-08T13:42:14Z</time>
      </trkpt>
      <trkpt lat="44.81921" lon="3.77612">
        <ele>911.2</ele>
        <time>2021-08-08T13:42:16Z</time>
      </trkpt>
      <trkpt lat="44.8192" lon="3.77619">
        <ele>911.1</ele>
        <time>2021-08-08T13:42:18Z</time>
      </trkpt>
      <trkpt lat="44.81919" lon="3.77626">
        <ele>910.7</ele>
        <time>2021-08-08T13:42:20Z</time>
      </trkpt>
      <trkpt lat="44.81918" lon="3.77633">
        <ele>910.5</ele>
        <time>2021-08-08T13:42:22Z</time>
      </trkpt>
      <trkpt lat="44.81916" lon="3.7764">
        <ele>910.1</ele>
        <time>2021-08-08T13:42:24Z</time>
      </trkpt>
      <trkpt lat="44.81914" lon="3.77647">
        <ele>909.7</ele>
        <time>2021-08-08T13:42:26Z</time>
      </trkpt>
      <trkpt lat="44.81913" lon="3.77655">
        <ele>909</ele>
        <time>2021-08-08T13:42:28Z</time>
      </trkpt>
      <trkpt lat="44.81911" lon="3.77662">
        <ele>908.3</ele>
        <time>2021-08-08T13:42:30Z</time>
      </trkpt>
      <trkpt lat="44.81909" lon="3.77668">
        <ele>907.3</ele>
        <time>2021-08-08T13:42:32Z</time>
      </trkpt>
      <trkpt lat="44.81907" lon="3.77675">
        <ele>906.3</ele>
        <time>2021-08-08T13:42:34Z</time>
      </trkpt>
      <trkpt lat="44.81905" lon="3.77681">
        <ele>905.1</ele>
        <time>2021-08-08T13:42:36Z</time>
      </trkpt>
      <trkpt lat="44.81903" lon="3.77688">
        <ele>904.1</ele>
        <time>2021-08-08T13:42:38Z</time>
      </trkpt>
      <trkpt lat="44.81901" lon="3.77695">
        <ele>902.9</ele>
        <time>2021-08-08T13:42:40Z</time>
      </trkpt>
      <trkpt lat="44.819" lon="3.77701">
        <ele>902.2</ele>
        <time>2021-08-08T13:42:42Z</time>
      </trkpt>
      <trkpt lat="44.81898" lon="3.77708">
        <ele>901.2</ele>
        <time>2021-08-08T13:42:44Z</time>
      </trkpt>
      <trkpt lat="44.81898" lon="3.77715">
        <ele>900.9</ele>
        <time>2021-08-08T13:42:46Z</time>
      </trkpt>
      <trkpt lat="44.819" lon="3.77722">
        <ele>901.5</ele>
        <time>2021-08-08T13:42:48Z</time>
      </trkpt>
      <trkpt lat="44.81903" lon="3.77728">
        <ele>902.6</ele>
        <time>2021-08-08T13:42:50Z</time>
      </trkpt>
      <trkpt lat="44.81906" lon="3.77733">
        <ele>904.1</ele>
        <time>2021-08-08T13:42:52Z</time>
      </trkpt>
      <trkpt lat="44.8191" lon="3.77736">
        <ele>906.1</ele>
        <time>2021-08-08T13:42:54Z</time>
      </trkpt>
      <trkpt lat="44.81915" lon="3.77738">
        <ele>908.6</ele>
        <time>2021-08-08T13:42:56Z</time>
      </trkpt>
      <trkpt lat="44.8192" lon="3.7774">
        <ele>910.4</ele>
        <time>2021-08-08T13:42:58Z</time>
      </trkpt>
      <trkpt lat="44.81926" lon="3.77741">
        <ele>912</ele>
        <time>2021-08-08T13:43:00Z</time>
      </trkpt>
      <trkpt lat="44.81931" lon="3.77742">
        <ele>913.7</ele>
        <time>2021-08-08T13:43:02Z</time>
      </trkpt>
      <trkpt lat="44.81935" lon="3.77744">
        <ele>915.1</ele>
        <time>2021-08-08T13:43:04Z</time>
      </trkpt>
      <trkpt lat="44.8194" lon="3.77744">
        <ele>916.4</ele>
        <time>2021-08-08T13:43:06Z</time>
      </trkpt>
      <trkpt lat="44.81945" lon="3.77745">
        <ele>918</ele>
        <time>2021-08-08T13:43:08Z</time>
      </trkpt>
      <trkpt lat="44.81949" lon="3.77747">
        <ele>919.3</ele>
        <time>2021-08-08T13:43:10Z</time>
      </trkpt>
      <trkpt lat="44.81955" lon="3.77748">
        <ele>921</ele>
        <time>2021-08-08T13:43:12Z</time>
      </trkpt>
      <trkpt lat="44.8196" lon="3.77748">
        <ele>922.5</ele>
        <time>2021-08-08T13:43:14Z</time>
      </trkpt>
      <trkpt lat="44.81963" lon="3.7775">
        <ele>923.5</ele>
        <time>2021-08-08T13:43:16Z</time>
      </trkpt>
      <trkpt lat="44.81967" lon="3.77751">
        <ele>924.8</ele>
        <time>2021-08-08T13:43:18Z</time>
      </trkpt>
      <trkpt lat="44.81971" lon="3.77753">
        <ele>926.1</ele>
        <time>2021-08-08T13:43:20Z</time>
      </trkpt>
      <trkpt lat="44.81977" lon="3.77753">
        <ele>927.7</ele>
        <time>2021-08-08T13:43:22Z</time>
      </trkpt>
      <trkpt lat="44.81981" lon="3.77755">
        <ele>929.1</ele>
        <time>2021-08-08T13:43:24Z</time>
      </trkpt>
      <trkpt lat="44.81986" lon="3.77756">
        <ele>930.5</ele>
        <time>2021-08-08T13:43:26Z</time>
      </trkpt>
      <trkpt lat="44.81989" lon="3.77758">
        <ele>931.5</ele>
        <time>2021-08-08T13:43:28Z</time>
      </trkpt>
      <trkpt lat="44.81994" lon="3.77761">
        <ele>932.7</ele>
        <time>2021-08-08T13:43:30Z</time>
      </trkpt>
      <trkpt lat="44.81998" lon="3.77764">
        <ele>934.1</ele>
        <time>2021-08-08T13:43:32Z</time>
      </trkpt>
      <trkpt lat="44.82002" lon="3.7777">
        <ele>934.8</ele>
        <time>2021-08-08T13:43:34Z</time>
      </trkpt>
      <trkpt lat="44.82005" lon="3.77776">
        <ele>935</ele>
        <time>2021-08-08T13:43:36Z</time>
      </trkpt>
      <trkpt lat="44.82007" lon="3.77783">
        <ele>935.1</ele>
        <time>2021-08-08T13:43:38Z</time>
      </trkpt>
      <trkpt lat="44.82006" lon="3.77789">
        <ele>934.7</ele>
        <time>2021-08-08T13:43:40Z</time>
      </trkpt>
      <trkpt lat="44.82003" lon="3.77796">
        <ele>934.3</ele>
        <time>2021-08-08T13:43:42Z</time>
      </trkpt>
      <trkpt lat="44.82" lon="3.77802">
        <ele>933.8</ele>
        <time>2021-08-08T13:43:44Z</time>
      </trkpt>
      <trkpt lat="44.81996" lon="3.77807">
        <ele>932.5</ele>
        <time>2021-08-08T13:43:46Z</time>
      </trkpt>
      <trkpt lat="44.81992" lon="3.77811">
        <ele>931.1</ele>
        <time>2021-08-08T13:43:48Z</time>
      </trkpt>
      <trkpt lat="44.81987" lon="3.77815">
        <ele>929.7</ele>
        <time>2021-08-08T13:43:50Z</time>
      </trkpt>
      <trkpt lat="44.81983" lon="3.77818">
        <ele>928.4</ele>
        <time>2021-08-08T13:43:52Z</time>
      </trkpt>
      <trkpt lat="44.81979" lon="3.77822">
        <ele>927.2</ele>
        <time>2021-08-08T13:43:54Z</time>
      </trkpt>
      <trkpt lat="44.81975" lon="3.77825">
        <ele>925.8</ele>
        <time>2021-08-08T13:43:56Z</time>
      </trkpt>
      <trkpt lat="44.81971" lon="3.7783">
        <ele>924.7</ele>
        <time>2021-08-08T13:43:58Z</time>
      </trkpt>
      <trkpt lat="44.81967" lon="3.77833">
        <ele>923.4</ele>
        <time>2021-08-08T13:44:00Z</time>
      </trkpt>
      <trkpt lat="44.81963" lon="3.77837">
        <ele>922.6</ele>
        <time>2021-08-08T13:44:02Z</time>
      </trkpt>
      <trkpt lat="44.81959" lon="3.77841">
        <ele>921.8</ele>
        <time>2021-08-08T13:44:04Z</time>
      </trkpt>
      <trkpt lat="44.81956" lon="3.77844">
        <ele>921.2</ele>
        <time>2021-08-08T13:44:06Z</time>
      </trkpt>
      <trkpt lat="44.81952" lon="3.77849">
        <ele>920.4</ele>
        <time>2021-08-08T13:44:08Z</time>
      </trkpt>
      <trkpt lat="44.81948" lon="3.77852">
        <ele>919.8</ele>
        <time>2021-08-08T13:44:10Z</time>
      </trkpt>
      <trkpt lat="44.81945" lon="3.77856">
        <ele>919.3</ele>
        <time>2021-08-08T13:44:12Z</time>
      </trkpt>
      <trkpt lat="44.81943" lon="3.77862">
        <ele>919</ele>
        <time>2021-08-08T13:44:14Z</time>
      </trkpt>
      <trkpt lat="44.8194" lon="3.77867">
        <ele>918.7</ele>
        <time>2021-08-08T13:44:16Z</time>
      </trkpt>
      <trkpt lat="44.81938" lon="3.77873">
        <ele>918.6</ele>
        <time>2021-08-08T13:44:18Z</time>
      </trkpt>
      <trkpt lat="44.81936" lon="3.7788">
        <ele>918.7</ele>
        <time>2021-08-08T13:44:20Z</time>
      </trkpt>
      <trkpt lat="44.81935" lon="3.77886">
        <ele>919.1</ele>
        <time>2021-08-08T13:44:22Z</time>
      </trkpt>
      <trkpt lat="44.81934" lon="3.77893">
        <ele>919.5</ele>
        <time>2021-08-08T13:44:24Z</time>
      </trkpt>
      <trkpt lat="44.81934" lon="3.779">
        <ele>920.1</ele>
        <time>2021-08-08T13:44:26Z</time>
      </trkpt>
      <trkpt lat="44.81934" lon="3.77907">
        <ele>920.8</ele>
        <time>2021-08-08T13:44:28Z</time>
      </trkpt>
      <trkpt lat="44.81935" lon="3.77913">
        <ele>921.6</ele>
        <time>2021-08-08T13:44:30Z</time>
      </trkpt>
      <trkpt lat="44.81936" lon="3.77918">
        <ele>921.8</ele>
        <time>2021-08-08T13:44:32Z</time>
      </trkpt>
      <trkpt lat="44.81936" lon="3.77925">
        <ele>920.9</ele>
        <time>2021-08-08T13:44:34Z</time>
      </trkpt>
      <trkpt lat="44.81938" lon="3.77931">
        <ele>920.2</ele>
        <time>2021-08-08T13:44:36Z</time>
      </trkpt>
      <trkpt lat="44.8194" lon="3.77937">
        <ele>919.7</ele>
        <time>2021-08-08T13:44:38Z</time>
      </trkpt>
      <trkpt lat="44.81943" lon="3.77942">
        <ele>919.5</ele>
        <time>2021-08-08T13:44:40Z</time>
      </trkpt>
      <trkpt lat="44.81946" lon="3.77946">
        <ele>919.4</ele>
        <time>2021-08-08T13:44:42Z</time>
      </trkpt>
      <trkpt lat="44.81949" lon="3.7795">
        <ele>919.6</ele>
        <time>2021-08-08T13:44:44Z</time>
      </trkpt>
      <trkpt lat="44.81953" lon="3.77953">
        <ele>920</ele>
        <time>2021-08-08T13:44:46Z</time>
      </trkpt>
      <trkpt lat="44.81956" lon="3.77956">
        <ele>920.3</ele>
        <time>2021-08-08T13:44:48Z</time>
      </trkpt>
      <trkpt lat="44.8196" lon="3.77958">
        <ele>920.7</ele>
        <time>2021-08-08T13:44:50Z</time>
      </trkpt>
      <trkpt lat="44.81964" lon="3.7796">
        <ele>921.3</ele>
        <time>2021-08-08T13:44:52Z</time>
      </trkpt>
      <trkpt lat="44.81969" lon="3.77962">
        <ele>921.9</ele>
        <time>2021-08-08T13:44:54Z</time>
      </trkpt>
      <trkpt lat="44.81973" lon="3.77965">
        <ele>922.3</ele>
        <time>2021-08-08T13:44:56Z</time>
      </trkpt>
      <trkpt lat="44.81977" lon="3.77969">
        <ele>922.5</ele>
        <time>2021-08-08T13:44:58Z</time>
      </trkpt>
      <trkpt lat="44.81982" lon="3.77971">
        <ele>923.2</ele>
        <time>2021-08-08T13:45:00Z</time>
      </trkpt>
      <trkpt lat="44.81987" lon="3.77974">
        <ele>923.7</ele>
        <time>2021-08-08T13:45:02Z</time>
      </trkpt>
      <trkpt lat="44.81991" lon="3.77977">
        <ele>924.1</ele>
        <time>2021-08-08T13:45:04Z</time>
      </trkpt>
      <trkpt lat="44.81995" lon="3.7798">
        <ele>924.3</ele>
        <time>2021-08-08T13:45:06Z</time>
      </trkpt>
      <trkpt lat="44.82" lon="3.77982">
        <ele>924.8</ele>
        <time>2021-08-08T13:45:08Z</time>
      </trkpt>
      <trkpt lat="44.82004" lon="3.77985">
        <ele>925.3</ele>
        <time>2021-08-08T13:45:10Z</time>
      </trkpt>
      <trkpt lat="44.82008" lon="3.77989">
        <ele>925.7</ele>
        <time>2021-08-08T13:45:12Z</time>
      </trkpt>
      <trkpt lat="44.82012" lon="3.77991">
        <ele>926.5</ele>
        <time>2021-08-08T13:45:14Z</time>
      </trkpt>
      <trkpt lat="44.82016" lon="3.77993">
        <ele>927.5</ele>
        <time>2021-08-08T13:45:16Z</time>
      </trkpt>
      <trkpt lat="44.8202" lon="3.77996">
        <ele>928.1</ele>
        <time>2021-08-08T13:45:18Z</time>
      </trkpt>
      <trkpt lat="44.82024" lon="3.77999">
        <ele>929</ele>
        <time>2021-08-08T13:45:20Z</time>
      </trkpt>
      <trkpt lat="44.82028" lon="3.78002">
        <ele>929.8</ele>
        <time>2021-08-08T13:45:22Z</time>
      </trkpt>
      <trkpt lat="44.82033" lon="3.78004">
        <ele>930.7</ele>
        <time>2021-08-08T13:45:24Z</time>
      </trkpt>
      <trkpt lat="44.82037" lon="3.78007">
        <ele>931.3</ele>
        <time>2021-08-08T13:45:26Z</time>
      </trkpt>
      <trkpt lat="44.82042" lon="3.7801">
        <ele>932.1</ele>
        <time>2021-08-08T13:45:28Z</time>
      </trkpt>
      <trkpt lat="44.82046" lon="3.78013">
        <ele>932.9</ele>
        <time>2021-08-08T13:45:30Z</time>
      </trkpt>
      <trkpt lat="44.8205" lon="3.78016">
        <ele>933.7</ele>
        <time>2021-08-08T13:45:32Z</time>
      </trkpt>
      <trkpt lat="44.82055" lon="3.78019">
        <ele>934.5</ele>
        <time>2021-08-08T13:45:34Z</time>
      </trkpt>
      <trkpt lat="44.82059" lon="3.78023">
        <ele>935.2</ele>
        <time>2021-08-08T13:45:36Z</time>
      </trkpt>
      <trkpt lat="44.82063" lon="3.78027">
        <ele>935.9</ele>
        <time>2021-08-08T13:45:38Z</time>
      </trkpt>
      <trkpt lat="44.82067" lon="3.78032">
        <ele>936.3</ele>
        <time>2021-08-08T13:45:40Z</time>
      </trkpt>
      <trkpt lat="44.82071" lon="3.78037">
        <ele>936.6</ele>
        <time>2021-08-08T13:45:42Z</time>
      </trkpt>
      <trkpt lat="44.82074" lon="3.78041">
        <ele>937</ele>
        <time>2021-08-08T13:45:44Z</time>
      </trkpt>
      <trkpt lat="44.82077" lon="3.78047">
        <ele>936.9</ele>
        <time>2021-08-08T13:45:46Z</time>
      </trkpt>
      <trkpt lat="44.82079" lon="3.78052">
        <ele>936.9</ele>
        <time>2021-08-08T13:45:48Z</time>
      </trkpt>
      <trkpt lat="44.82081" lon="3.78057">
        <ele>936.8</ele>
        <time>2021-08-08T13:45:50Z</time>
      </trkpt>
      <trkpt lat="44.82083" lon="3.78063">
        <ele>936.7</ele>
        <time>2021-08-08T13:45:52Z</time>
      </trkpt>
      <trkpt lat="44.82085" lon="3.78069">
        <ele>936.3</ele>
        <time>2021-08-08T13:45:54Z</time>
      </trkpt>
      <trkpt lat="44.82087" lon="3.78076">
        <ele>935.6</ele>
        <time>2021-08-08T13:45:56Z</time>
      </trkpt>
      <trkpt lat="44.82088" lon="3.78082">
        <ele>934.9</ele>
        <time>2021-08-08T13:45:58Z</time>
      </trkpt>
      <trkpt lat="44.82088" lon="3.7809">
        <ele>934.5</ele>
        <time>2021-08-08T13:46:00Z</time>
      </trkpt>
      <trkpt lat="44.82088" lon="3.78098">
        <ele>934.1</ele>
        <time>2021-08-08T13:46:02Z</time>
      </trkpt>
      <trkpt lat="44.82088" lon="3.78105">
        <ele>933.6</ele>
        <time>2021-08-08T13:46:04Z</time>
      </trkpt>
      <trkpt lat="44.82088" lon="3.78112">
        <ele>933.1</ele>
        <time>2021-08-08T13:46:06Z</time>
      </trkpt>
      <trkpt lat="44.82088" lon="3.78119">
        <ele>932.8</ele>
        <time>2021-08-08T13:46:08Z</time>
      </trkpt>
      <trkpt lat="44.82087" lon="3.78126">
        <ele>932.2</ele>
        <time>2021-08-08T13:46:10Z</time>
      </trkpt>
      <trkpt lat="44.82087" lon="3.78133">
        <ele>931.8</ele>
        <time>2021-08-08T13:46:12Z</time>
      </trkpt>
      <trkpt lat="44.82087" lon="3.7814">
        <ele>931.4</ele>
        <time>2021-08-08T13:46:14Z</time>
      </trkpt>
      <trkpt lat="44.82086" lon="3.78146">
        <ele>930.9</ele>
        <time>2021-08-08T13:46:16Z</time>
      </trkpt>
      <trkpt lat="44.82087" lon="3.78153">
        <ele>930.6</ele>
        <time>2021-08-08T13:46:18Z</time>
      </trkpt>
      <trkpt lat="44.82086" lon="3.78161">
        <ele>930.2</ele>
        <time>2021-08-08T13:46:20Z</time>
      </trkpt>
      <trkpt lat="44.82087" lon="3.78167">
        <ele>929.9</ele>
        <time>2021-08-08T13:46:22Z</time>
      </trkpt>
      <trkpt lat="44.82089" lon="3.78173">
        <ele>930.2</ele>
        <time>2021-08-08T13:46:24Z</time>
      </trkpt>
      <trkpt lat="44.82091" lon="3.78178">
        <ele>930.6</ele>
        <time>2021-08-08T13:46:26Z</time>
      </trkpt>
      <trkpt lat="44.82094" lon="3.78182">
        <ele>931.4</ele>
        <time>2021-08-08T13:46:28Z</time>
      </trkpt>
      <trkpt lat="44.82098" lon="3.78186">
        <ele>932</ele>
        <time>2021-08-08T13:46:30Z</time>
      </trkpt>
      <trkpt lat="44.82102" lon="3.78189">
        <ele>933</ele>
        <time>2021-08-08T13:46:32Z</time>
      </trkpt>
      <trkpt lat="44.82107" lon="3.78193">
        <ele>934</ele>
        <time>2021-08-08T13:46:34Z</time>
      </trkpt>
      <trkpt lat="44.82111" lon="3.78194">
        <ele>935.1</ele>
        <time>2021-08-08T13:46:36Z</time>
      </trkpt>
      <trkpt lat="44.82116" lon="3.78195">
        <ele>936.3</ele>
        <time>2021-08-08T13:46:38Z</time>
      </trkpt>
      <trkpt lat="44.82121" lon="3.78197">
        <ele>937.4</ele>
        <time>2021-08-08T13:46:40Z</time>
      </trkpt>
      <trkpt lat="44.82126" lon="3.78198">
        <ele>938.4</ele>
        <time>2021-08-08T13:46:42Z</time>
      </trkpt>
      <trkpt lat="44.8213" lon="3.782">
        <ele>939.2</ele>
        <time>2021-08-08T13:46:44Z</time>
      </trkpt>
      <trkpt lat="44.82134" lon="3.78202">
        <ele>940.1</ele>
        <time>2021-08-08T13:46:46Z</time>
      </trkpt>
      <trkpt lat="44.82138" lon="3.78204">
        <ele>941.1</ele>
        <time>2021-08-08T13:46:48Z</time>
      </trkpt>
      <trkpt lat="44.82143" lon="3.78207">
        <ele>941.8</ele>
        <time>2021-08-08T13:46:50Z</time>
      </trkpt>
      <trkpt lat="44.82146" lon="3.78212">
        <ele>942.2</ele>
        <time>2021-08-08T13:46:52Z</time>
      </trkpt>
      <trkpt lat="44.82149" lon="3.78219">
        <ele>942.2</ele>
        <time>2021-08-08T13:46:54Z</time>
      </trkpt>
      <trkpt lat="44.82149" lon="3.78225">
        <ele>941.8</ele>
        <time>2021-08-08T13:46:56Z</time>
      </trkpt>
      <trkpt lat="44.8215" lon="3.78232">
        <ele>941.3</ele>
        <time>2021-08-08T13:46:58Z</time>
      </trkpt>
      <trkpt lat="44.82148" lon="3.78239">
        <ele>940.3</ele>
        <time>2021-08-08T13:47:00Z</time>
      </trkpt>
      <trkpt lat="44.82146" lon="3.78245">
        <ele>939.2</ele>
        <time>2021-08-08T13:47:02Z</time>
      </trkpt>
      <trkpt lat="44.82142" lon="3.7825">
        <ele>938.1</ele>
        <time>2021-08-08T13:47:04Z</time>
      </trkpt>
      <trkpt lat="44.82138" lon="3.78254">
        <ele>937.5</ele>
        <time>2021-08-08T13:47:06Z</time>
      </trkpt>
      <trkpt lat="44.82134" lon="3.78257">
        <ele>936.8</ele>
        <time>2021-08-08T13:47:08Z</time>
      </trkpt>
      <trkpt lat="44.82129" lon="3.78261">
        <ele>936</ele>
        <time>2021-08-08T13:47:10Z</time>
      </trkpt>
      <trkpt lat="44.82125" lon="3.78264">
        <ele>935.2</ele>
        <time>2021-08-08T13:47:12Z</time>
      </trkpt>
      <trkpt lat="44.8212" lon="3.78268">
        <ele>934.4</ele>
        <time>2021-08-08T13:47:14Z</time>
      </trkpt>
      <trkpt lat="44.82116" lon="3.78272">
        <ele>933.7</ele>
        <time>2021-08-08T13:47:16Z</time>
      </trkpt>
      <trkpt lat="44.82113" lon="3.78278">
        <ele>933.2</ele>
        <time>2021-08-08T13:47:18Z</time>
      </trkpt>
      <trkpt lat="44.8211" lon="3.78283">
        <ele>932.8</ele>
        <time>2021-08-08T13:47:20Z</time>
      </trkpt>
      <trkpt lat="44.82108" lon="3.78289">
        <ele>932.7</ele>
        <time>2021-08-08T13:47:22Z</time>
      </trkpt>
      <trkpt lat="44.82107" lon="3.78296">
        <ele>932.7</ele>
        <time>2021-08-08T13:47:24Z</time>
      </trkpt>
      <trkpt lat="44.82107" lon="3.78303">
        <ele>933.1</ele>
        <time>2021-08-08T13:47:26Z</time>
      </trkpt>
      <trkpt lat="44.82109" lon="3.78309">
        <ele>933.7</ele>
        <time>2021-08-08T13:47:28Z</time>
      </trkpt>
      <trkpt lat="44.82111" lon="3.78316">
        <ele>934.5</ele>
        <time>2021-08-08T13:47:30Z</time>
      </trkpt>
      <trkpt lat="44.82112" lon="3.78323">
        <ele>935.2</ele>
        <time>2021-08-08T13:47:32Z</time>
      </trkpt>
      <trkpt lat="44.82114" lon="3.78329">
        <ele>936</ele>
        <time>2021-08-08T13:47:34Z</time>
      </trkpt>
      <trkpt lat="44.82116" lon="3.78336">
        <ele>936.6</ele>
        <time>2021-08-08T13:47:36Z</time>
      </trkpt>
      <trkpt lat="44.82118" lon="3.78343">
        <ele>936.7</ele>
        <time>2021-08-08T13:47:38Z</time>
      </trkpt>
      <trkpt lat="44.8212" lon="3.78349">
        <ele>937</ele>
        <time>2021-08-08T13:47:40Z</time>
      </trkpt>
      <trkpt lat="44.82122" lon="3.78356">
        <ele>936.9</ele>
        <time>2021-08-08T13:47:42Z</time>
      </trkpt>
      <trkpt lat="44.82124" lon="3.78361">
        <ele>937.1</ele>
        <time>2021-08-08T13:47:44Z</time>
      </trkpt>
      <trkpt lat="44.82126" lon="3.78368">
        <ele>937.1</ele>
        <time>2021-08-08T13:47:46Z</time>
      </trkpt>
      <trkpt lat="44.82129" lon="3.78374">
        <ele>937.3</ele>
        <time>2021-08-08T13:47:48Z</time>
      </trkpt>
      <trkpt lat="44.82132" lon="3.7838">
        <ele>937.5</ele>
        <time>2021-08-08T13:47:50Z</time>
      </trkpt>
      <trkpt lat="44.82135" lon="3.78385">
        <ele>937.8</ele>
        <time>2021-08-08T13:47:52Z</time>
      </trkpt>
      <trkpt lat="44.82139" lon="3.7839">
        <ele>938.1</ele>
        <time>2021-08-08T13:47:54Z</time>
      </trkpt>
      <trkpt lat="44.82143" lon="3.78393">
        <ele>938.5</ele>
        <time>2021-08-08T13:47:56Z</time>
      </trkpt>
      <trkpt lat="44.82146" lon="3.78396">
        <ele>938.9</ele>
        <time>2021-08-08T13:47:58Z</time>
      </trkpt>
      <trkpt lat="44.82151" lon="3.78396">
        <ele>939.8</ele>
        <time>2021-08-08T13:48:00Z</time>
      </trkpt>
      <trkpt lat="44.82156" lon="3.78395">
        <ele>940.7</ele>
        <time>2021-08-08T13:48:02Z</time>
      </trkpt>
      <trkpt lat="44.82162" lon="3.78393">
        <ele>942</ele>
        <time>2021-08-08T13:48:04Z</time>
      </trkpt>
      <trkpt lat="44.82166" lon="3.7839">
        <ele>943</ele>
        <time>2021-08-08T13:48:06Z</time>
      </trkpt>
      <trkpt lat="44.8217" lon="3.78387">
        <ele>944</ele>
        <time>2021-08-08T13:48:08Z</time>
      </trkpt>
      <trkpt lat="44.82175" lon="3.78386">
        <ele>945</ele>
        <time>2021-08-08T13:48:10Z</time>
      </trkpt>
      <trkpt lat="44.8218" lon="3.78384">
        <ele>946</ele>
        <time>2021-08-08T13:48:12Z</time>
      </trkpt>
      <trkpt lat="44.82185" lon="3.78383">
        <ele>946.9</ele>
        <time>2021-08-08T13:48:14Z</time>
      </trkpt>
      <trkpt lat="44.82191" lon="3.78382">
        <ele>947.8</ele>
        <time>2021-08-08T13:48:16Z</time>
      </trkpt>
      <trkpt lat="44.82196" lon="3.78383">
        <ele>948.4</ele>
        <time>2021-08-08T13:48:18Z</time>
      </trkpt>
      <trkpt lat="44.82201" lon="3.78384">
        <ele>949</ele>
        <time>2021-08-08T13:48:20Z</time>
      </trkpt>
      <trkpt lat="44.82206" lon="3.78387">
        <ele>949.4</ele>
        <time>2021-08-08T13:48:22Z</time>
      </trkpt>
      <trkpt lat="44.8221" lon="3.78392">
        <ele>949.6</ele>
        <time>2021-08-08T13:48:24Z</time>
      </trkpt>
      <trkpt lat="44.82214" lon="3.78395">
        <ele>950</ele>
        <time>2021-08-08T13:48:26Z</time>
      </trkpt>
      <trkpt lat="44.82219" lon="3.78399">
        <ele>950.3</ele>
        <time>2021-08-08T13:48:28Z</time>
      </trkpt>
      <trkpt lat="44.82223" lon="3.78405">
        <ele>950.5</ele>
        <time>2021-08-08T13:48:30Z</time>
      </trkpt>
      <trkpt lat="44.82226" lon="3.78409">
        <ele>950.6</ele>
        <time>2021-08-08T13:48:32Z</time>
      </trkpt>
      <trkpt lat="44.8223" lon="3.78413">
        <ele>950.9</ele>
        <time>2021-08-08T13:48:34Z</time>
      </trkpt>
      <trkpt lat="44.82234" lon="3.78418">
        <ele>951.2</ele>
        <time>2021-08-08T13:48:36Z</time>
      </trkpt>
      <trkpt lat="44.82237" lon="3.78421">
        <ele>951.3</ele>
        <time>2021-08-08T13:48:38Z</time>
      </trkpt>
      <trkpt lat="44.82241" lon="3.78425">
        <ele>951.5</ele>
        <time>2021-08-08T13:48:40Z</time>
      </trkpt>
      <trkpt lat="44.82244" lon="3.78429">
        <ele>951.7</ele>
        <time>2021-08-08T13:48:42Z</time>
      </trkpt>
      <trkpt lat="44.82247" lon="3.78433">
        <ele>951.8</ele>
        <time>2021-08-08T13:48:44Z</time>
      </trkpt>
      <trkpt lat="44.82252" lon="3.78437">
        <ele>952.2</ele>
        <time>2021-08-08T13:48:46Z</time>
      </trkpt>
      <trkpt lat="44.82255" lon="3.7844">
        <ele>952.9</ele>
        <time>2021-08-08T13:48:48Z</time>
      </trkpt>
      <trkpt lat="44.8226" lon="3.78443">
        <ele>953.8</ele>
        <time>2021-08-08T13:48:50Z</time>
      </trkpt>
      <trkpt lat="44.82264" lon="3.78445">
        <ele>954.8</ele>
        <time>2021-08-08T13:48:52Z</time>
      </trkpt>
      <trkpt lat="44.82268" lon="3.78447">
        <ele>955.6</ele>
        <time>2021-08-08T13:48:54Z</time>
      </trkpt>
      <trkpt lat="44.82273" lon="3.78449">
        <ele>956.5</ele>
        <time>2021-08-08T13:48:56Z</time>
      </trkpt>
      <trkpt lat="44.82277" lon="3.78451">
        <ele>957.4</ele>
        <time>2021-08-08T13:48:58Z</time>
      </trkpt>
      <trkpt lat="44.82281" lon="3.78454">
        <ele>958.2</ele>
        <time>2021-08-08T13:49:00Z</time>
      </trkpt>
      <trkpt lat="44.82286" lon="3.78456">
        <ele>959.3</ele>
        <time>2021-08-08T13:49:02Z</time>
      </trkpt>
      <trkpt lat="44.8229" lon="3.78459">
        <ele>960</ele>
        <time>2021-08-08T13:49:04Z</time>
      </trkpt>
      <trkpt lat="44.82295" lon="3.78462">
        <ele>960.9</ele>
        <time>2021-08-08T13:49:06Z</time>
      </trkpt>
      <trkpt lat="44.82299" lon="3.78464">
        <ele>961.8</ele>
        <time>2021-08-08T13:49:08Z</time>
      </trkpt>
      <trkpt lat="44.82302" lon="3.78469">
        <ele>962</ele>
        <time>2021-08-08T13:49:10Z</time>
      </trkpt>
      <trkpt lat="44.82306" lon="3.78474">
        <ele>962.2</ele>
        <time>2021-08-08T13:49:12Z</time>
      </trkpt>
      <trkpt lat="44.82308" lon="3.78479">
        <ele>962.4</ele>
        <time>2021-08-08T13:49:14Z</time>
      </trkpt>
      <trkpt lat="44.82311" lon="3.78485">
        <ele>962.2</ele>
        <time>2021-08-08T13:49:16Z</time>
      </trkpt>
      <trkpt lat="44.82313" lon="3.78491">
        <ele>962.1</ele>
        <time>2021-08-08T13:49:18Z</time>
      </trkpt>
      <trkpt lat="44.82315" lon="3.78497">
        <ele>961.8</ele>
        <time>2021-08-08T13:49:20Z</time>
      </trkpt>
      <trkpt lat="44.82316" lon="3.78505">
        <ele>961.5</ele>
        <time>2021-08-08T13:49:22Z</time>
      </trkpt>
      <trkpt lat="44.82316" lon="3.78512">
        <ele>961.4</ele>
        <time>2021-08-08T13:49:24Z</time>
      </trkpt>
      <trkpt lat="44.82316" lon="3.7852">
        <ele>961.2</ele>
        <time>2021-08-08T13:49:26Z</time>
      </trkpt>
      <trkpt lat="44.82316" lon="3.78527">
        <ele>961</ele>
        <time>2021-08-08T13:49:28Z</time>
      </trkpt>
      <trkpt lat="44.82316" lon="3.78533">
        <ele>960.8</ele>
        <time>2021-08-08T13:49:30Z</time>
      </trkpt>
      <trkpt lat="44.82316" lon="3.7854">
        <ele>960.7</ele>
        <time>2021-08-08T13:49:32Z</time>
      </trkpt>
      <trkpt lat="44.82317" lon="3.78547">
        <ele>960.6</ele>
        <time>2021-08-08T13:49:34Z</time>
      </trkpt>
      <trkpt lat="44.82317" lon="3.78553">
        <ele>960.5</ele>
        <time>2021-08-08T13:49:36Z</time>
      </trkpt>
      <trkpt lat="44.82317" lon="3.7856">
        <ele>960.3</ele>
        <time>2021-08-08T13:49:38Z</time>
      </trkpt>
      <trkpt lat="44.82319" lon="3.78566">
        <ele>960.2</ele>
        <time>2021-08-08T13:49:40Z</time>
      </trkpt>
      <trkpt lat="44.8232" lon="3.78572">
        <ele>960.1</ele>
        <time>2021-08-08T13:49:42Z</time>
      </trkpt>
      <trkpt lat="44.82322" lon="3.78577">
        <ele>960</ele>
        <time>2021-08-08T13:49:44Z</time>
      </trkpt>
      <trkpt lat="44.82323" lon="3.78583">
        <ele>959.8</ele>
        <time>2021-08-08T13:49:46Z</time>
      </trkpt>
      <trkpt lat="44.82325" lon="3.7859">
        <ele>959.8</ele>
        <time>2021-08-08T13:49:48Z</time>
      </trkpt>
      <trkpt lat="44.82327" lon="3.78596">
        <ele>959.8</ele>
        <time>2021-08-08T13:49:50Z</time>
      </trkpt>
      <trkpt lat="44.8233" lon="3.78603">
        <ele>959.8</ele>
        <time>2021-08-08T13:49:52Z</time>
      </trkpt>
      <trkpt lat="44.82332" lon="3.7861">
        <ele>959.7</ele>
        <time>2021-08-08T13:49:54Z</time>
      </trkpt>
      <trkpt lat="44.82334" lon="3.78616">
        <ele>959.8</ele>
        <time>2021-08-08T13:49:56Z</time>
      </trkpt>
      <trkpt lat="44.82335" lon="3.78623">
        <ele>960.1</ele>
        <time>2021-08-08T13:49:58Z</time>
      </trkpt>
      <trkpt lat="44.82336" lon="3.78629">
        <ele>960.4</ele>
        <time>2021-08-08T13:50:00Z</time>
      </trkpt>
      <trkpt lat="44.82337" lon="3.78636">
        <ele>960.6</ele>
        <time>2021-08-08T13:50:02Z</time>
      </trkpt>
      <trkpt lat="44.82338" lon="3.78642">
        <ele>961</ele>
        <time>2021-08-08T13:50:04Z</time>
      </trkpt>
      <trkpt lat="44.82339" lon="3.78649">
        <ele>961.1</ele>
        <time>2021-08-08T13:50:06Z</time>
      </trkpt>
      <trkpt lat="44.8234" lon="3.78655">
        <ele>961.4</ele>
        <time>2021-08-08T13:50:08Z</time>
      </trkpt>
      <trkpt lat="44.8234" lon="3.78662">
        <ele>961.4</ele>
        <time>2021-08-08T13:50:10Z</time>
      </trkpt>
      <trkpt lat="44.82341" lon="3.78669">
        <ele>961.5</ele>
        <time>2021-08-08T13:50:12Z</time>
      </trkpt>
      <trkpt lat="44.82342" lon="3.78677">
        <ele>961.5</ele>
        <time>2021-08-08T13:50:14Z</time>
      </trkpt>
      <trkpt lat="44.82342" lon="3.78683">
        <ele>961.5</ele>
        <time>2021-08-08T13:50:16Z</time>
      </trkpt>
      <trkpt lat="44.82343" lon="3.7869">
        <ele>961.6</ele>
        <time>2021-08-08T13:50:18Z</time>
      </trkpt>
      <trkpt lat="44.82344" lon="3.78697">
        <ele>961.7</ele>
        <time>2021-08-08T13:50:20Z</time>
      </trkpt>
      <trkpt lat="44.82346" lon="3.78704">
        <ele>961.9</ele>
        <time>2021-08-08T13:50:22Z</time>
      </trkpt>
      <trkpt lat="44.82348" lon="3.7871">
        <ele>962.2</ele>
        <time>2021-08-08T13:50:24Z</time>
      </trkpt>
      <trkpt lat="44.8235" lon="3.78716">
        <ele>962.5</ele>
        <time>2021-08-08T13:50:26Z</time>
      </trkpt>
      <trkpt lat="44.82354" lon="3.78721">
        <ele>963</ele>
        <time>2021-08-08T13:50:28Z</time>
      </trkpt>
      <trkpt lat="44.82357" lon="3.78726">
        <ele>963.3</ele>
        <time>2021-08-08T13:50:30Z</time>
      </trkpt>
      <trkpt lat="44.82361" lon="3.7873">
        <ele>963.7</ele>
        <time>2021-08-08T13:50:32Z</time>
      </trkpt>
      <trkpt lat="44.82365" lon="3.78735">
        <ele>964</ele>
        <time>2021-08-08T13:50:34Z</time>
      </trkpt>
      <trkpt lat="44.82369" lon="3.78739">
        <ele>964.3</ele>
        <time>2021-08-08T13:50:36Z</time>
      </trkpt>
      <trkpt lat="44.82374" lon="3.78743">
        <ele>964.5</ele>
        <time>2021-08-08T13:50:38Z</time>
      </trkpt>
      <trkpt lat="44.82378" lon="3.78747">
        <ele>964.6</ele>
        <time>2021-08-08T13:50:40Z</time>
      </trkpt>
      <trkpt lat="44.82382" lon="3.78751">
        <ele>964.8</ele>
        <time>2021-08-08T13:50:42Z</time>
      </trkpt>
      <trkpt lat="44.82386" lon="3.78754">
        <ele>965.3</ele>
        <time>2021-08-08T13:50:44Z</time>
      </trkpt>
      <trkpt lat="44.8239" lon="3.78758">
        <ele>965.7</ele>
        <time>2021-08-08T13:50:46Z</time>
      </trkpt>
      <trkpt lat="44.82394" lon="3.7876">
        <ele>966</ele>
        <time>2021-08-08T13:50:48Z</time>
      </trkpt>
      <trkpt lat="44.82399" lon="3.78762">
        <ele>966.4</ele>
        <time>2021-08-08T13:50:50Z</time>
      </trkpt>
      <trkpt lat="44.82404" lon="3.78763">
        <ele>966.7</ele>
        <time>2021-08-08T13:50:52Z</time>
      </trkpt>
      <trkpt lat="44.82408" lon="3.78764">
        <ele>967</ele>
        <time>2021-08-08T13:50:54Z</time>
      </trkpt>
      <trkpt lat="44.82412" lon="3.78764">
        <ele>967.3</ele>
        <time>2021-08-08T13:50:56Z</time>
      </trkpt>
      <trkpt lat="44.82417" lon="3.78763">
        <ele>967.8</ele>
        <time>2021-08-08T13:50:58Z</time>
      </trkpt>
      <trkpt lat="44.82421" lon="3.78763">
        <ele>968.3</ele>
        <time>2021-08-08T13:51:00Z</time>
      </trkpt>
      <trkpt lat="44.82426" lon="3.78763">
        <ele>968.8</ele>
        <time>2021-08-08T13:51:02Z</time>
      </trkpt>
      <trkpt lat="44.8243" lon="3.78762">
        <ele>969.4</ele>
        <time>2021-08-08T13:51:04Z</time>
      </trkpt>
      <trkpt lat="44.82434" lon="3.78762">
        <ele>969.9</ele>
        <time>2021-08-08T13:51:06Z</time>
      </trkpt>
      <trkpt lat="44.82438" lon="3.78764">
        <ele>970.3</ele>
        <time>2021-08-08T13:51:08Z</time>
      </trkpt>
      <trkpt lat="44.82444" lon="3.78763">
        <ele>971</ele>
        <time>2021-08-08T13:51:10Z</time>
      </trkpt>
      <trkpt lat="44.82449" lon="3.78764">
        <ele>971.5</ele>
        <time>2021-08-08T13:51:12Z</time>
      </trkpt>
      <trkpt lat="44.82453" lon="3.78763">
        <ele>972.2</ele>
        <time>2021-08-08T13:51:14Z</time>
      </trkpt>
      <trkpt lat="44.82458" lon="3.78763">
        <ele>972.8</ele>
        <time>2021-08-08T13:51:16Z</time>
      </trkpt>
      <trkpt lat="44.82463" lon="3.78763">
        <ele>973.3</ele>
        <time>2021-08-08T13:51:18Z</time>
      </trkpt>
      <trkpt lat="44.82469" lon="3.78764">
        <ele>973.9</ele>
        <time>2021-08-08T13:51:20Z</time>
      </trkpt>
      <trkpt lat="44.82472" lon="3.78765">
        <ele>974.1</ele>
        <time>2021-08-08T13:51:22Z</time>
      </trkpt>
      <trkpt lat="44.82477" lon="3.78768">
        <ele>974.3</ele>
        <time>2021-08-08T13:51:24Z</time>
      </trkpt>
      <trkpt lat="44.82481" lon="3.7877">
        <ele>974.4</ele>
        <time>2021-08-08T13:51:26Z</time>
      </trkpt>
      <trkpt lat="44.82486" lon="3.78773">
        <ele>974.5</ele>
        <time>2021-08-08T13:51:28Z</time>
      </trkpt>
      <trkpt lat="44.82491" lon="3.78777">
        <ele>974.5</ele>
        <time>2021-08-08T13:51:30Z</time>
      </trkpt>
      <trkpt lat="44.82495" lon="3.78781">
        <ele>974.3</ele>
        <time>2021-08-08T13:51:32Z</time>
      </trkpt>
      <trkpt lat="44.82499" lon="3.78786">
        <ele>973.8</ele>
        <time>2021-08-08T13:51:34Z</time>
      </trkpt>
      <trkpt lat="44.82504" lon="3.78791">
        <ele>973.9</ele>
        <time>2021-08-08T13:51:36Z</time>
      </trkpt>
      <trkpt lat="44.82507" lon="3.78797">
        <ele>973.6</ele>
        <time>2021-08-08T13:51:38Z</time>
      </trkpt>
      <trkpt lat="44.8251" lon="3.78803">
        <ele>973.3</ele>
        <time>2021-08-08T13:51:40Z</time>
      </trkpt>
      <trkpt lat="44.82514" lon="3.78809">
        <ele>973</ele>
        <time>2021-08-08T13:51:42Z</time>
      </trkpt>
      <trkpt lat="44.82516" lon="3.78816">
        <ele>972.4</ele>
        <time>2021-08-08T13:51:44Z</time>
      </trkpt>
      <trkpt lat="44.82518" lon="3.78823">
        <ele>971.9</ele>
        <time>2021-08-08T13:51:46Z</time>
      </trkpt>
      <trkpt lat="44.8252" lon="3.7883">
        <ele>971.2</ele>
        <time>2021-08-08T13:51:48Z</time>
      </trkpt>
      <trkpt lat="44.82521" lon="3.78837">
        <ele>970.8</ele>
        <time>2021-08-08T13:51:50Z</time>
      </trkpt>
      <trkpt lat="44.82523" lon="3.78845">
        <ele>970.9</ele>
        <time>2021-08-08T13:51:52Z</time>
      </trkpt>
      <trkpt lat="44.82524" lon="3.78853">
        <ele>971</ele>
        <time>2021-08-08T13:51:54Z</time>
      </trkpt>
      <trkpt lat="44.82525" lon="3.7886">
        <ele>970.8</ele>
        <time>2021-08-08T13:51:56Z</time>
      </trkpt>
      <trkpt lat="44.82526" lon="3.78867">
        <ele>970.9</ele>
        <time>2021-08-08T13:51:58Z</time>
      </trkpt>
      <trkpt lat="44.82527" lon="3.78873">
        <ele>970.8</ele>
        <time>2021-08-08T13:52:00Z</time>
      </trkpt>
      <trkpt lat="44.82527" lon="3.7888">
        <ele>970.6</ele>
        <time>2021-08-08T13:52:02Z</time>
      </trkpt>
      <trkpt lat="44.82527" lon="3.78887">
        <ele>970.5</ele>
        <time>2021-08-08T13:52:04Z</time>
      </trkpt>
      <trkpt lat="44.82528" lon="3.78894">
        <ele>970.4</ele>
        <time>2021-08-08T13:52:06Z</time>
      </trkpt>
      <trkpt lat="44.82529" lon="3.789">
        <ele>970.3</ele>
        <time>2021-08-08T13:52:08Z</time>
      </trkpt>
      <trkpt lat="44.82528" lon="3.78906">
        <ele>970</ele>
        <time>2021-08-08T13:52:10Z</time>
      </trkpt>
      <trkpt lat="44.82528" lon="3.78914">
        <ele>969.8</ele>
        <time>2021-08-08T13:52:12Z</time>
      </trkpt>
      <trkpt lat="44.82528" lon="3.78921">
        <ele>970.3</ele>
        <time>2021-08-08T13:52:14Z</time>
      </trkpt>
      <trkpt lat="44.82529" lon="3.78928">
        <ele>971.4</ele>
        <time>2021-08-08T13:52:16Z</time>
      </trkpt>
      <trkpt lat="44.82529" lon="3.78935">
        <ele>972.4</ele>
        <time>2021-08-08T13:52:18Z</time>
      </trkpt>
      <trkpt lat="44.8253" lon="3.78942">
        <ele>973.3</ele>
        <time>2021-08-08T13:52:20Z</time>
      </trkpt>
      <trkpt lat="44.82529" lon="3.78948">
        <ele>974.2</ele>
        <time>2021-08-08T13:52:22Z</time>
      </trkpt>
      <trkpt lat="44.82528" lon="3.78955">
        <ele>974.9</ele>
        <time>2021-08-08T13:52:24Z</time>
      </trkpt>
      <trkpt lat="44.82527" lon="3.78961">
        <ele>975.5</ele>
        <time>2021-08-08T13:52:26Z</time>
      </trkpt>
      <trkpt lat="44.82524" lon="3.78967">
        <ele>975.9</ele>
        <time>2021-08-08T13:52:28Z</time>
      </trkpt>
      <trkpt lat="44.82521" lon="3.78972">
        <ele>976.2</ele>
        <time>2021-08-08T13:52:30Z</time>
      </trkpt>
      <trkpt lat="44.82517" lon="3.78976">
        <ele>976.3</ele>
        <time>2021-08-08T13:52:32Z</time>
      </trkpt>
      <trkpt lat="44.82513" lon="3.7898">
        <ele>976.5</ele>
        <time>2021-08-08T13:52:34Z</time>
      </trkpt>
      <trkpt lat="44.82509" lon="3.78983">
        <ele>976.4</ele>
        <time>2021-08-08T13:52:36Z</time>
      </trkpt>
      <trkpt lat="44.82505" lon="3.78987">
        <ele>976.5</ele>
        <time>2021-08-08T13:52:38Z</time>
      </trkpt>
      <trkpt lat="44.82501" lon="3.7899">
        <ele>976.6</ele>
        <time>2021-08-08T13:52:40Z</time>
      </trkpt>
      <trkpt lat="44.82498" lon="3.78994">
        <ele>976.8</ele>
        <time>2021-08-08T13:52:42Z</time>
      </trkpt>
      <trkpt lat="44.82494" lon="3.78996">
        <ele>976.5</ele>
        <time>2021-08-08T13:52:44Z</time>
      </trkpt>
      <trkpt lat="44.8249" lon="3.78999">
        <ele>976.5</ele>
        <time>2021-08-08T13:52:46Z</time>
      </trkpt>
      <trkpt lat="44.82486" lon="3.79002">
        <ele>976.6</ele>
        <time>2021-08-08T13:52:48Z</time>
      </trkpt>
      <trkpt lat="44.82481" lon="3.79005">
        <ele>976.5</ele>
        <time>2021-08-08T13:52:50Z</time>
      </trkpt>
      <trkpt lat="44.82478" lon="3.79009">
        <ele>976.6</ele>
        <time>2021-08-08T13:52:52Z</time>
      </trkpt>
      <trkpt lat="44.82473" lon="3.79012">
        <ele>976.4</ele>
        <time>2021-08-08T13:52:54Z</time>
      </trkpt>
      <trkpt lat="44.8247" lon="3.79016">
        <ele>976.5</ele>
        <time>2021-08-08T13:52:56Z</time>
      </trkpt>
      <trkpt lat="44.82466" lon="3.79019">
        <ele>976.4</ele>
        <time>2021-08-08T13:52:58Z</time>
      </trkpt>
      <trkpt lat="44.82462" lon="3.79022">
        <ele>976.3</ele>
        <time>2021-08-08T13:53:00Z</time>
      </trkpt>
      <trkpt lat="44.82458" lon="3.79026">
        <ele>976.3</ele>
        <time>2021-08-08T13:53:02Z</time>
      </trkpt>
      <trkpt lat="44.82454" lon="3.7903">
        <ele>976.3</ele>
        <time>2021-08-08T13:53:04Z</time>
      </trkpt>
      <trkpt lat="44.82451" lon="3.79034">
        <ele>976.3</ele>
        <time>2021-08-08T13:53:06Z</time>
      </trkpt>
      <trkpt lat="44.82447" lon="3.79038">
        <ele>976.3</ele>
        <time>2021-08-08T13:53:08Z</time>
      </trkpt>
      <trkpt lat="44.82444" lon="3.79042">
        <ele>976.4</ele>
        <time>2021-08-08T13:53:10Z</time>
      </trkpt>
      <trkpt lat="44.82441" lon="3.79047">
        <ele>976.4</ele>
        <time>2021-08-08T13:53:12Z</time>
      </trkpt>
      <trkpt lat="44.82438" lon="3.79052">
        <ele>976.5</ele>
        <time>2021-08-08T13:53:14Z</time>
      </trkpt>
      <trkpt lat="44.82435" lon="3.79056">
        <ele>976.5</ele>
        <time>2021-08-08T13:53:16Z</time>
      </trkpt>
      <trkpt lat="44.82432" lon="3.79061">
        <ele>976.6</ele>
        <time>2021-08-08T13:53:18Z</time>
      </trkpt>
      <trkpt lat="44.82429" lon="3.79067">
        <ele>976.7</ele>
        <time>2021-08-08T13:53:20Z</time>
      </trkpt>
      <trkpt lat="44.82426" lon="3.79073">
        <ele>976.9</ele>
        <time>2021-08-08T13:53:22Z</time>
      </trkpt>
      <trkpt lat="44.82424" lon="3.79078">
        <ele>976.9</ele>
        <time>2021-08-08T13:53:24Z</time>
      </trkpt>
      <trkpt lat="44.82421" lon="3.79083">
        <ele>977</ele>
        <time>2021-08-08T13:53:26Z</time>
      </trkpt>
      <trkpt lat="44.82418" lon="3.79089">
        <ele>977.5</ele>
        <time>2021-08-08T13:53:28Z</time>
      </trkpt>
      <trkpt lat="44.82416" lon="3.79095">
        <ele>978.3</ele>
        <time>2021-08-08T13:53:30Z</time>
      </trkpt>
      <trkpt lat="44.82413" lon="3.791">
        <ele>979.2</ele>
        <time>2021-08-08T13:53:32Z</time>
      </trkpt>
      <trkpt lat="44.82411" lon="3.79106">
        <ele>980.2</ele>
        <time>2021-08-08T13:53:34Z</time>
      </trkpt>
      <trkpt lat="44.82408" lon="3.79112">
        <ele>981.1</ele>
        <time>2021-08-08T13:53:36Z</time>
      </trkpt>
      <trkpt lat="44.82406" lon="3.79118">
        <ele>982</ele>
        <time>2021-08-08T13:53:38Z</time>
      </trkpt>
      <trkpt lat="44.82403" lon="3.79124">
        <ele>982.7</ele>
        <time>2021-08-08T13:53:40Z</time>
      </trkpt>
      <trkpt lat="44.824" lon="3.79129">
        <ele>983.3</ele>
        <time>2021-08-08T13:53:42Z</time>
      </trkpt>
      <trkpt lat="44.82397" lon="3.79136">
        <ele>984.1</ele>
        <time>2021-08-08T13:53:44Z</time>
      </trkpt>
      <trkpt lat="44.82394" lon="3.79141">
        <ele>984.7</ele>
        <time>2021-08-08T13:53:46Z</time>
      </trkpt>
      <trkpt lat="44.82392" lon="3.79148">
        <ele>985.5</ele>
        <time>2021-08-08T13:53:48Z</time>
      </trkpt>
      <trkpt lat="44.82389" lon="3.79154">
        <ele>986.1</ele>
        <time>2021-08-08T13:53:50Z</time>
      </trkpt>
      <trkpt lat="44.82387" lon="3.7916">
        <ele>986.7</ele>
        <time>2021-08-08T13:53:52Z</time>
      </trkpt>
      <trkpt lat="44.82385" lon="3.79166">
        <ele>987.3</ele>
        <time>2021-08-08T13:53:54Z</time>
      </trkpt>
      <trkpt lat="44.82384" lon="3.79172">
        <ele>987.3</ele>
        <time>2021-08-08T13:53:56Z</time>
      </trkpt>
      <trkpt lat="44.82381" lon="3.79179">
        <ele>987.2</ele>
        <time>2021-08-08T13:53:58Z</time>
      </trkpt>
      <trkpt lat="44.82379" lon="3.79185">
        <ele>987.3</ele>
        <time>2021-08-08T13:54:00Z</time>
      </trkpt>
      <trkpt lat="44.82378" lon="3.79192">
        <ele>987.4</ele>
        <time>2021-08-08T13:54:02Z</time>
      </trkpt>
      <trkpt lat="44.82377" lon="3.79199">
        <ele>987.6</ele>
        <time>2021-08-08T13:54:04Z</time>
      </trkpt>
      <trkpt lat="44.82376" lon="3.79206">
        <ele>987.9</ele>
        <time>2021-08-08T13:54:06Z</time>
      </trkpt>
      <trkpt lat="44.82376" lon="3.79214">
        <ele>988.2</ele>
        <time>2021-08-08T13:54:08Z</time>
      </trkpt>
      <trkpt lat="44.82376" lon="3.79221">
        <ele>988.5</ele>
        <time>2021-08-08T13:54:10Z</time>
      </trkpt>
      <trkpt lat="44.82376" lon="3.79228">
        <ele>988.9</ele>
        <time>2021-08-08T13:54:12Z</time>
      </trkpt>
      <trkpt lat="44.82376" lon="3.79235">
        <ele>989.3</ele>
        <time>2021-08-08T13:54:14Z</time>
      </trkpt>
      <trkpt lat="44.82376" lon="3.79243">
        <ele>989.7</ele>
        <time>2021-08-08T13:54:16Z</time>
      </trkpt>
      <trkpt lat="44.82376" lon="3.7925">
        <ele>990.2</ele>
        <time>2021-08-08T13:54:18Z</time>
      </trkpt>
      <trkpt lat="44.82377" lon="3.79257">
        <ele>990</ele>
        <time>2021-08-08T13:54:20Z</time>
      </trkpt>
      <trkpt lat="44.82378" lon="3.79265">
        <ele>989.9</ele>
        <time>2021-08-08T13:54:22Z</time>
      </trkpt>
      <trkpt lat="44.82379" lon="3.7927">
        <ele>989.8</ele>
        <time>2021-08-08T13:54:24Z</time>
      </trkpt>
      <trkpt lat="44.8238" lon="3.79278">
        <ele>989.5</ele>
        <time>2021-08-08T13:54:26Z</time>
      </trkpt>
      <trkpt lat="44.8238" lon="3.79285">
        <ele>989.3</ele>
        <time>2021-08-08T13:54:28Z</time>
      </trkpt>
      <trkpt lat="44.82382" lon="3.79292">
        <ele>989.2</ele>
        <time>2021-08-08T13:54:30Z</time>
      </trkpt>
      <trkpt lat="44.82383" lon="3.79298">
        <ele>989</ele>
        <time>2021-08-08T13:54:32Z</time>
      </trkpt>
      <trkpt lat="44.82384" lon="3.79305">
        <ele>988.8</ele>
        <time>2021-08-08T13:54:34Z</time>
      </trkpt>
      <trkpt lat="44.82386" lon="3.79311">
        <ele>988.6</ele>
        <time>2021-08-08T13:54:36Z</time>
      </trkpt>
      <trkpt lat="44.82388" lon="3.79318">
        <ele>988.4</ele>
        <time>2021-08-08T13:54:38Z</time>
      </trkpt>
      <trkpt lat="44.8239" lon="3.79324">
        <ele>988.2</ele>
        <time>2021-08-08T13:54:40Z</time>
      </trkpt>
      <trkpt lat="44.82392" lon="3.79331">
        <ele>987.9</ele>
        <time>2021-08-08T13:54:42Z</time>
      </trkpt>
      <trkpt lat="44.82394" lon="3.79337">
        <ele>987.7</ele>
        <time>2021-08-08T13:54:44Z</time>
      </trkpt>
      <trkpt lat="44.82396" lon="3.79342">
        <ele>987.3</ele>
        <time>2021-08-08T13:54:46Z</time>
      </trkpt>
      <trkpt lat="44.82399" lon="3.79347">
        <ele>987</ele>
        <time>2021-08-08T13:54:48Z</time>
      </trkpt>
      <trkpt lat="44.82403" lon="3.79352">
        <ele>986.8</ele>
        <time>2021-08-08T13:54:50Z</time>
      </trkpt>
      <trkpt lat="44.82407" lon="3.79355">
        <ele>986.5</ele>
        <time>2021-08-08T13:54:52Z</time>
      </trkpt>
      <trkpt lat="44.82411" lon="3.79358">
        <ele>986.3</ele>
        <time>2021-08-08T13:54:54Z</time>
      </trkpt>
      <trkpt lat="44.82415" lon="3.7936">
        <ele>986.1</ele>
        <time>2021-08-08T13:54:56Z</time>
      </trkpt>
      <trkpt lat="44.8242" lon="3.79363">
        <ele>986.5</ele>
        <time>2021-08-08T13:54:58Z</time>
      </trkpt>
      <trkpt lat="44.82426" lon="3.79367">
        <ele>987</ele>
        <time>2021-08-08T13:55:00Z</time>
      </trkpt>
      <trkpt lat="44.82431" lon="3.79369">
        <ele>987.7</ele>
        <time>2021-08-08T13:55:02Z</time>
      </trkpt>
      <trkpt lat="44.82435" lon="3.79372">
        <ele>988.1</ele>
        <time>2021-08-08T13:55:04Z</time>
      </trkpt>
      <trkpt lat="44.82439" lon="3.79375">
        <ele>988.6</ele>
        <time>2021-08-08T13:55:06Z</time>
      </trkpt>
      <trkpt lat="44.82444" lon="3.79377">
        <ele>989.1</ele>
        <time>2021-08-08T13:55:08Z</time>
      </trkpt>
      <trkpt lat="44.82449" lon="3.7938">
        <ele>989.8</ele>
        <time>2021-08-08T13:55:10Z</time>
      </trkpt>
      <trkpt lat="44.82454" lon="3.79382">
        <ele>990.3</ele>
        <time>2021-08-08T13:55:12Z</time>
      </trkpt>
      <trkpt lat="44.82458" lon="3.79386">
        <ele>990.7</ele>
        <time>2021-08-08T13:55:14Z</time>
      </trkpt>
      <trkpt lat="44.82463" lon="3.79388">
        <ele>991.2</ele>
        <time>2021-08-08T13:55:16Z</time>
      </trkpt>
      <trkpt lat="44.82468" lon="3.79391">
        <ele>991.7</ele>
        <time>2021-08-08T13:55:18Z</time>
      </trkpt>
      <trkpt lat="44.82472" lon="3.79394">
        <ele>992.2</ele>
        <time>2021-08-08T13:55:20Z</time>
      </trkpt>
      <trkpt lat="44.82477" lon="3.79397">
        <ele>992.6</ele>
        <time>2021-08-08T13:55:22Z</time>
      </trkpt>
      <trkpt lat="44.82482" lon="3.794">
        <ele>993.1</ele>
        <time>2021-08-08T13:55:24Z</time>
      </trkpt>
      <trkpt lat="44.82487" lon="3.79405">
        <ele>993.3</ele>
        <time>2021-08-08T13:55:26Z</time>
      </trkpt>
      <trkpt lat="44.82492" lon="3.7941">
        <ele>993.5</ele>
        <time>2021-08-08T13:55:28Z</time>
      </trkpt>
      <trkpt lat="44.82496" lon="3.79415">
        <ele>993.5</ele>
        <time>2021-08-08T13:55:30Z</time>
      </trkpt>
      <trkpt lat="44.825" lon="3.7942">
        <ele>993.7</ele>
        <time>2021-08-08T13:55:32Z</time>
      </trkpt>
      <trkpt lat="44.82505" lon="3.79425">
        <ele>994.1</ele>
        <time>2021-08-08T13:55:34Z</time>
      </trkpt>
      <trkpt lat="44.82508" lon="3.79431">
        <ele>994.4</ele>
        <time>2021-08-08T13:55:36Z</time>
      </trkpt>
      <trkpt lat="44.82511" lon="3.79436">
        <ele>994.6</ele>
        <time>2021-08-08T13:55:38Z</time>
      </trkpt>
      <trkpt lat="44.82515" lon="3.79442">
        <ele>994.8</ele>
        <time>2021-08-08T13:55:40Z</time>
      </trkpt>
      <trkpt lat="44.82518" lon="3.79449">
        <ele>994.9</ele>
        <time>2021-08-08T13:55:42Z</time>
      </trkpt>
      <trkpt lat="44.8252" lon="3.79456">
        <ele>994.9</ele>
        <time>2021-08-08T13:55:44Z</time>
      </trkpt>
      <trkpt lat="44.82522" lon="3.79463">
        <ele>994.8</ele>
        <time>2021-08-08T13:55:46Z</time>
      </trkpt>
      <trkpt lat="44.82524" lon="3.79471">
        <ele>994.8</ele>
        <time>2021-08-08T13:55:48Z</time>
      </trkpt>
      <trkpt lat="44.82526" lon="3.79479">
        <ele>994.8</ele>
        <time>2021-08-08T13:55:50Z</time>
      </trkpt>
      <trkpt lat="44.82529" lon="3.79486">
        <ele>994.8</ele>
        <time>2021-08-08T13:55:52Z</time>
      </trkpt>
      <trkpt lat="44.8253" lon="3.79494">
        <ele>994.6</ele>
        <time>2021-08-08T13:55:54Z</time>
      </trkpt>
      <trkpt lat="44.82531" lon="3.79502">
        <ele>994.4</ele>
        <time>2021-08-08T13:55:56Z</time>
      </trkpt>
      <trkpt lat="44.82531" lon="3.79509">
        <ele>994.7</ele>
        <time>2021-08-08T13:55:58Z</time>
      </trkpt>
      <trkpt lat="44.82532" lon="3.79518">
        <ele>994.9</ele>
        <time>2021-08-08T13:56:00Z</time>
      </trkpt>
      <trkpt lat="44.82533" lon="3.79526">
        <ele>995.2</ele>
        <time>2021-08-08T13:56:02Z</time>
      </trkpt>
      <trkpt lat="44.82533" lon="3.79533">
        <ele>995</ele>
        <time>2021-08-08T13:56:04Z</time>
      </trkpt>
      <trkpt lat="44.82533" lon="3.79542">
        <ele>995.1</ele>
        <time>2021-08-08T13:56:06Z</time>
      </trkpt>
      <trkpt lat="44.82532" lon="3.79549">
        <ele>994.9</ele>
        <time>2021-08-08T13:56:08Z</time>
      </trkpt>
      <trkpt lat="44.82533" lon="3.79557">
        <ele>995</ele>
        <time>2021-08-08T13:56:10Z</time>
      </trkpt>
      <trkpt lat="44.82532" lon="3.79565">
        <ele>994.8</ele>
        <time>2021-08-08T13:56:12Z</time>
      </trkpt>
      <trkpt lat="44.82532" lon="3.79574">
        <ele>994.8</ele>
        <time>2021-08-08T13:56:14Z</time>
      </trkpt>
      <trkpt lat="44.82531" lon="3.79582">
        <ele>994.8</ele>
        <time>2021-08-08T13:56:16Z</time>
      </trkpt>
      <trkpt lat="44.82531" lon="3.7959">
        <ele>994.6</ele>
        <time>2021-08-08T13:56:18Z</time>
      </trkpt>
      <trkpt lat="44.82532" lon="3.79599">
        <ele>994.6</ele>
        <time>2021-08-08T13:56:20Z</time>
      </trkpt>
      <trkpt lat="44.82533" lon="3.79606">
        <ele>994.7</ele>
        <time>2021-08-08T13:56:22Z</time>
      </trkpt>
      <trkpt lat="44.82534" lon="3.79614">
        <ele>994.8</ele>
        <time>2021-08-08T13:56:24Z</time>
      </trkpt>
      <trkpt lat="44.82535" lon="3.79621">
        <ele>994.9</ele>
        <time>2021-08-08T13:56:26Z</time>
      </trkpt>
      <trkpt lat="44.82537" lon="3.79627">
        <ele>995.1</ele>
        <time>2021-08-08T13:56:28Z</time>
      </trkpt>
      <trkpt lat="44.8254" lon="3.79634">
        <ele>995.4</ele>
        <time>2021-08-08T13:56:30Z</time>
      </trkpt>
      <trkpt lat="44.82541" lon="3.7964">
        <ele>995.6</ele>
        <time>2021-08-08T13:56:32Z</time>
      </trkpt>
      <trkpt lat="44.82545" lon="3.79646">
        <ele>996</ele>
        <time>2021-08-08T13:56:34Z</time>
      </trkpt>
      <trkpt lat="44.82548" lon="3.79652">
        <ele>996.4</ele>
        <time>2021-08-08T13:56:36Z</time>
      </trkpt>
      <trkpt lat="44.82552" lon="3.79657">
        <ele>996.8</ele>
        <time>2021-08-08T13:56:38Z</time>
      </trkpt>
      <trkpt lat="44.82556" lon="3.79661">
        <ele>997.3</ele>
        <time>2021-08-08T13:56:40Z</time>
      </trkpt>
      <trkpt lat="44.82561" lon="3.79666">
        <ele>997.8</ele>
        <time>2021-08-08T13:56:42Z</time>
      </trkpt>
      <trkpt lat="44.82565" lon="3.79669">
        <ele>998.3</ele>
        <time>2021-08-08T13:56:44Z</time>
      </trkpt>
      <trkpt lat="44.8257" lon="3.79672">
        <ele>998.7</ele>
        <time>2021-08-08T13:56:46Z</time>
      </trkpt>
      <trkpt lat="44.82574" lon="3.79674">
        <ele>999.2</ele>
        <time>2021-08-08T13:56:48Z</time>
      </trkpt>
      <trkpt lat="44.82579" lon="3.79675">
        <ele>999.7</ele>
        <time>2021-08-08T13:56:50Z</time>
      </trkpt>
      <trkpt lat="44.82583" lon="3.79677">
        <ele>1000.2</ele>
        <time>2021-08-08T13:56:52Z</time>
      </trkpt>
      <trkpt lat="44.82588" lon="3.79678">
        <ele>1000.5</ele>
        <time>2021-08-08T13:56:54Z</time>
      </trkpt>
      <trkpt lat="44.82593" lon="3.7968">
        <ele>1000.8</ele>
        <time>2021-08-08T13:56:56Z</time>
      </trkpt>
      <trkpt lat="44.82598" lon="3.79681">
        <ele>1001.1</ele>
        <time>2021-08-08T13:56:58Z</time>
      </trkpt>
      <trkpt lat="44.82603" lon="3.79682">
        <ele>1001.5</ele>
        <time>2021-08-08T13:57:00Z</time>
      </trkpt>
      <trkpt lat="44.82608" lon="3.79684">
        <ele>1001.9</ele>
        <time>2021-08-08T13:57:02Z</time>
      </trkpt>
      <trkpt lat="44.82612" lon="3.79685">
        <ele>1002.2</ele>
        <time>2021-08-08T13:57:04Z</time>
      </trkpt>
      <trkpt lat="44.82617" lon="3.79685">
        <ele>1002.6</ele>
        <time>2021-08-08T13:57:06Z</time>
      </trkpt>
      <trkpt lat="44.82621" lon="3.79688">
        <ele>1002.9</ele>
        <time>2021-08-08T13:57:08Z</time>
      </trkpt>
      <trkpt lat="44.82625" lon="3.79689">
        <ele>1003.2</ele>
        <time>2021-08-08T13:57:10Z</time>
      </trkpt>
      <trkpt lat="44.8263" lon="3.7969">
        <ele>1003.6</ele>
        <time>2021-08-08T13:57:12Z</time>
      </trkpt>
      <trkpt lat="44.82634" lon="3.79692">
        <ele>1003.9</ele>
        <time>2021-08-08T13:57:14Z</time>
      </trkpt>
      <trkpt lat="44.82639" lon="3.79694">
        <ele>1004.3</ele>
        <time>2021-08-08T13:57:16Z</time>
      </trkpt>
      <trkpt lat="44.82644" lon="3.79695">
        <ele>1004.7</ele>
        <time>2021-08-08T13:57:18Z</time>
      </trkpt>
      <trkpt lat="44.82647" lon="3.79696">
        <ele>1004.9</ele>
        <time>2021-08-08T13:57:20Z</time>
      </trkpt>
      <trkpt lat="44.82652" lon="3.79698">
        <ele>1005.4</ele>
        <time>2021-08-08T13:57:22Z</time>
      </trkpt>
      <trkpt lat="44.82656" lon="3.79699">
        <ele>1005.8</ele>
        <time>2021-08-08T13:57:24Z</time>
      </trkpt>
      <trkpt lat="44.8266" lon="3.79699">
        <ele>1006.2</ele>
        <time>2021-08-08T13:57:26Z</time>
      </trkpt>
      <trkpt lat="44.82664" lon="3.797">
        <ele>1006.6</ele>
        <time>2021-08-08T13:57:28Z</time>
      </trkpt>
      <trkpt lat="44.82669" lon="3.79701">
        <ele>1007</ele>
        <time>2021-08-08T13:57:30Z</time>
      </trkpt>
      <trkpt lat="44.82673" lon="3.79703">
        <ele>1007.3</ele>
        <time>2021-08-08T13:57:32Z</time>
      </trkpt>
      <trkpt lat="44.82676" lon="3.79703">
        <ele>1007.5</ele>
        <time>2021-08-08T13:57:34Z</time>
      </trkpt>
      <trkpt lat="44.82679" lon="3.79705">
        <ele>1007.7</ele>
        <time>2021-08-08T13:57:36Z</time>
      </trkpt>
      <trkpt lat="44.82685" lon="3.79706">
        <ele>1008.1</ele>
        <time>2021-08-08T13:57:38Z</time>
      </trkpt>
      <trkpt lat="44.82689" lon="3.79709">
        <ele>1008.4</ele>
        <time>2021-08-08T13:57:40Z</time>
      </trkpt>
      <trkpt lat="44.82694" lon="3.7971">
        <ele>1008.7</ele>
        <time>2021-08-08T13:57:42Z</time>
      </trkpt>
      <trkpt lat="44.82698" lon="3.79711">
        <ele>1009</ele>
        <time>2021-08-08T13:57:44Z</time>
      </trkpt>
      <trkpt lat="44.82702" lon="3.79711">
        <ele>1009.3</ele>
        <time>2021-08-08T13:57:46Z</time>
      </trkpt>
      <trkpt lat="44.82709" lon="3.79714">
        <ele>1009.7</ele>
        <time>2021-08-08T13:57:48Z</time>
      </trkpt>
      <trkpt lat="44.82712" lon="3.79715">
        <ele>1010</ele>
        <time>2021-08-08T13:57:50Z</time>
      </trkpt>
      <trkpt lat="44.82718" lon="3.79716">
        <ele>1010.4</ele>
        <time>2021-08-08T13:57:52Z</time>
      </trkpt>
      <trkpt lat="44.82724" lon="3.79718">
        <ele>1010.8</ele>
        <time>2021-08-08T13:57:54Z</time>
      </trkpt>
      <trkpt lat="44.82727" lon="3.79721">
        <ele>1010.9</ele>
        <time>2021-08-08T13:57:56Z</time>
      </trkpt>
      <trkpt lat="44.82733" lon="3.79721">
        <ele>1011.3</ele>
        <time>2021-08-08T13:57:58Z</time>
      </trkpt>
      <trkpt lat="44.82737" lon="3.79722">
        <ele>1011.6</ele>
        <time>2021-08-08T13:58:00Z</time>
      </trkpt>
      <trkpt lat="44.82741" lon="3.79724">
        <ele>1011.9</ele>
        <time>2021-08-08T13:58:02Z</time>
      </trkpt>
      <trkpt lat="44.82746" lon="3.79725">
        <ele>1012.2</ele>
        <time>2021-08-08T13:58:04Z</time>
      </trkpt>
      <trkpt lat="44.8275" lon="3.79725">
        <ele>1012.5</ele>
        <time>2021-08-08T13:58:06Z</time>
      </trkpt>
      <trkpt lat="44.82755" lon="3.79726">
        <ele>1012.8</ele>
        <time>2021-08-08T13:58:08Z</time>
      </trkpt>
      <trkpt lat="44.82759" lon="3.79728">
        <ele>1013</ele>
        <time>2021-08-08T13:58:10Z</time>
      </trkpt>
      <trkpt lat="44.82761" lon="3.79729">
        <ele>1013.1</ele>
        <time>2021-08-08T13:58:12Z</time>
      </trkpt>
      <trkpt lat="44.82764" lon="3.79729">
        <ele>1013.3</ele>
        <time>2021-08-08T13:58:14Z</time>
      </trkpt>
      <trkpt lat="44.82767" lon="3.79731">
        <ele>1013.4</ele>
        <time>2021-08-08T13:58:16Z</time>
      </trkpt>
      <trkpt lat="44.8277" lon="3.79732">
        <ele>1013.6</ele>
        <time>2021-08-08T13:58:18Z</time>
      </trkpt>
      <trkpt lat="44.82775" lon="3.79734">
        <ele>1013.8</ele>
        <time>2021-08-08T13:58:20Z</time>
      </trkpt>
      <trkpt lat="44.82778" lon="3.79731">
        <ele>1014.3</ele>
        <time>2021-08-08T13:58:22Z</time>
      </trkpt>
      <trkpt lat="44.82781" lon="3.79728">
        <ele>1014.7</ele>
        <time>2021-08-08T13:58:24Z</time>
      </trkpt>
      <trkpt lat="44.82783" lon="3.79726">
        <ele>1014.9</ele>
        <time>2021-08-08T13:58:26Z</time>
      </trkpt>
      <trkpt lat="44.82785" lon="3.79726">
        <ele>1015</ele>
        <time>2021-08-08T13:58:28Z</time>
      </trkpt>
      <trkpt lat="44.82785" lon="3.79727">
        <ele>1015</ele>
        <time>2021-08-08T13:58:30Z</time>
      </trkpt>
      <trkpt lat="44.82785" lon="3.79727">
        <ele>1015</ele>
        <time>2021-08-08T13:58:32Z</time>
      </trkpt>
      <trkpt lat="44.82785" lon="3.79728">
        <ele>1015</ele>
        <time>2021-08-08T13:58:34Z</time>
      </trkpt>
      <trkpt lat="44.82785" lon="3.79727">
        <ele>1015</ele>
        <time>2021-08-08T13:58:36Z</time>
      </trkpt>
      <trkpt lat="44.82787" lon="3.79761">
        <ele>1014.2</ele>
        <time>2021-08-08T14:16:06Z</time>
      </trkpt>
      <trkpt lat="44.82787" lon="3.79767">
        <ele>1014.5</ele>
        <time>2021-08-08T14:16:08Z</time>
      </trkpt>
      <trkpt lat="44.82787" lon="3.79773">
        <ele>1014.8</ele>
        <time>2021-08-08T14:16:10Z</time>
      </trkpt>
      <trkpt lat="44.82785" lon="3.79779">
        <ele>1014.9</ele>
        <time>2021-08-08T14:16:12Z</time>
      </trkpt>
      <trkpt lat="44.82783" lon="3.79784">
        <ele>1015</ele>
        <time>2021-08-08T14:16:14Z</time>
      </trkpt>
      <trkpt lat="44.8278" lon="3.79788">
        <ele>1015</ele>
        <time>2021-08-08T14:16:16Z</time>
      </trkpt>
      <trkpt lat="44.82777" lon="3.79791">
        <ele>1014.9</ele>
        <time>2021-08-08T14:16:18Z</time>
      </trkpt>
      <trkpt lat="44.82773" lon="3.79793">
        <ele>1014.8</ele>
        <time>2021-08-08T14:16:20Z</time>
      </trkpt>
      <trkpt lat="44.8277" lon="3.79795">
        <ele>1014.6</ele>
        <time>2021-08-08T14:16:22Z</time>
      </trkpt>
      <trkpt lat="44.82765" lon="3.79797">
        <ele>1014.3</ele>
        <time>2021-08-08T14:16:24Z</time>
      </trkpt>
      <trkpt lat="44.82761" lon="3.79796">
        <ele>1014</ele>
        <time>2021-08-08T14:16:26Z</time>
      </trkpt>
      <trkpt lat="44.82757" lon="3.79796">
        <ele>1013.7</ele>
        <time>2021-08-08T14:16:28Z</time>
      </trkpt>
      <trkpt lat="44.82753" lon="3.79796">
        <ele>1013.4</ele>
        <time>2021-08-08T14:16:30Z</time>
      </trkpt>
      <trkpt lat="44.82749" lon="3.79796">
        <ele>1013.1</ele>
        <time>2021-08-08T14:16:32Z</time>
      </trkpt>
      <trkpt lat="44.82744" lon="3.79798">
        <ele>1012.7</ele>
        <time>2021-08-08T14:16:34Z</time>
      </trkpt>
      <trkpt lat="44.8274" lon="3.79798">
        <ele>1012.2</ele>
        <time>2021-08-08T14:16:36Z</time>
      </trkpt>
      <trkpt lat="44.82737" lon="3.798">
        <ele>1011.9</ele>
        <time>2021-08-08T14:16:38Z</time>
      </trkpt>
      <trkpt lat="44.82733" lon="3.79801">
        <ele>1011.5</ele>
        <time>2021-08-08T14:16:40Z</time>
      </trkpt>
      <trkpt lat="44.8273" lon="3.79801">
        <ele>1011.1</ele>
        <time>2021-08-08T14:16:42Z</time>
      </trkpt>
      <trkpt lat="44.82726" lon="3.79801">
        <ele>1010.7</ele>
        <time>2021-08-08T14:16:44Z</time>
      </trkpt>
      <trkpt lat="44.82723" lon="3.79801">
        <ele>1010.3</ele>
        <time>2021-08-08T14:16:46Z</time>
      </trkpt>
      <trkpt lat="44.82721" lon="3.798">
        <ele>1010.1</ele>
        <time>2021-08-08T14:16:48Z</time>
      </trkpt>
      <trkpt lat="44.82719" lon="3.79801">
        <ele>1009.9</ele>
        <time>2021-08-08T14:16:50Z</time>
      </trkpt>
      <trkpt lat="44.82718" lon="3.79801">
        <ele>1009.7</ele>
        <time>2021-08-08T14:16:52Z</time>
      </trkpt>
      <trkpt lat="44.82716" lon="3.79801">
        <ele>1009.5</ele>
        <time>2021-08-08T14:16:54Z</time>
      </trkpt>
      <trkpt lat="44.82716" lon="3.79801">
        <ele>1009.5</ele>
        <time>2021-08-08T14:16:56Z</time>
      </trkpt>
      <trkpt lat="44.82716" lon="3.79801">
        <ele>1009.5</ele>
        <time>2021-08-08T14:16:58Z</time>
      </trkpt>
      <trkpt lat="44.82699" lon="3.79806">
        <ele>1007.5</ele>
        <time>2021-08-08T14:18:02Z</time>
      </trkpt>
      <trkpt lat="44.82695" lon="3.79818">
        <ele>1007.1</ele>
        <time>2021-08-08T14:18:04Z</time>
      </trkpt>
      <trkpt lat="44.82695" lon="3.79832">
        <ele>1007.1</ele>
        <time>2021-08-08T14:18:06Z</time>
      </trkpt>
      <trkpt lat="44.82699" lon="3.79846">
        <ele>1007.1</ele>
        <time>2021-08-08T14:18:08Z</time>
      </trkpt>
      <trkpt lat="44.82707" lon="3.7986">
        <ele>1007.7</ele>
        <time>2021-08-08T14:18:10Z</time>
      </trkpt>
      <trkpt lat="44.82716" lon="3.79876">
        <ele>1008.3</ele>
        <time>2021-08-08T14:18:12Z</time>
      </trkpt>
      <trkpt lat="44.82725" lon="3.79892">
        <ele>1008.8</ele>
        <time>2021-08-08T14:18:14Z</time>
      </trkpt>
      <trkpt lat="44.82735" lon="3.79909">
        <ele>1009.3</ele>
        <time>2021-08-08T14:18:16Z</time>
      </trkpt>
      <trkpt lat="44.82744" lon="3.79928">
        <ele>1010.2</ele>
        <time>2021-08-08T14:18:18Z</time>
      </trkpt>
      <trkpt lat="44.82751" lon="3.79949">
        <ele>1010.7</ele>
        <time>2021-08-08T14:18:20Z</time>
      </trkpt>
      <trkpt lat="44.82751" lon="3.79969">
        <ele>1010.5</ele>
        <time>2021-08-08T14:18:22Z</time>
      </trkpt>
      <trkpt lat="44.82753" lon="3.79986">
        <ele>1010.3</ele>
        <time>2021-08-08T14:18:24Z</time>
      </trkpt>
      <trkpt lat="44.82746" lon="3.80003">
        <ele>1010.6</ele>
        <time>2021-08-08T14:18:26Z</time>
      </trkpt>
      <trkpt lat="44.82733" lon="3.80011">
        <ele>1012.3</ele>
        <time>2021-08-08T14:18:28Z</time>
      </trkpt>
      <trkpt lat="44.82718" lon="3.80009">
        <ele>1013.1</ele>
        <time>2021-08-08T14:18:30Z</time>
      </trkpt>
      <trkpt lat="44.82706" lon="3.80003">
        <ele>1013</ele>
        <time>2021-08-08T14:18:32Z</time>
      </trkpt>
      <trkpt lat="44.82695" lon="3.79996">
        <ele>1012.8</ele>
        <time>2021-08-08T14:18:34Z</time>
      </trkpt>
      <trkpt lat="44.82684" lon="3.79994">
        <ele>1013.1</ele>
        <time>2021-08-08T14:18:36Z</time>
      </trkpt>
      <trkpt lat="44.82675" lon="3.79993">
        <ele>1013.4</ele>
        <time>2021-08-08T14:18:38Z</time>
      </trkpt>
      <trkpt lat="44.82666" lon="3.79994">
        <ele>1013.8</ele>
        <time>2021-08-08T14:18:40Z</time>
      </trkpt>
      <trkpt lat="44.82657" lon="3.79995">
        <ele>1013.3</ele>
        <time>2021-08-08T14:18:42Z</time>
      </trkpt>
      <trkpt lat="44.82649" lon="3.79994">
        <ele>1012.6</ele>
        <time>2021-08-08T14:18:44Z</time>
      </trkpt>
      <trkpt lat="44.82642" lon="3.79992">
        <ele>1011.8</ele>
        <time>2021-08-08T14:18:46Z</time>
      </trkpt>
      <trkpt lat="44.82636" lon="3.79991">
        <ele>1011</ele>
        <time>2021-08-08T14:18:48Z</time>
      </trkpt>
      <trkpt lat="44.82629" lon="3.79989">
        <ele>1010.3</ele>
        <time>2021-08-08T14:18:50Z</time>
      </trkpt>
      <trkpt lat="44.82623" lon="3.79987">
        <ele>1009.6</ele>
        <time>2021-08-08T14:18:52Z</time>
      </trkpt>
      <trkpt lat="44.82618" lon="3.79985">
        <ele>1008.9</ele>
        <time>2021-08-08T14:18:54Z</time>
      </trkpt>
      <trkpt lat="44.82612" lon="3.79983">
        <ele>1008.3</ele>
        <time>2021-08-08T14:18:56Z</time>
      </trkpt>
      <trkpt lat="44.82607" lon="3.79982">
        <ele>1007.8</ele>
        <time>2021-08-08T14:18:58Z</time>
      </trkpt>
      <trkpt lat="44.82602" lon="3.79981">
        <ele>1007.4</ele>
        <time>2021-08-08T14:19:00Z</time>
      </trkpt>
      <trkpt lat="44.82597" lon="3.79981">
        <ele>1007.1</ele>
        <time>2021-08-08T14:19:02Z</time>
      </trkpt>
      <trkpt lat="44.82593" lon="3.79982">
        <ele>1006.9</ele>
        <time>2021-08-08T14:19:04Z</time>
      </trkpt>
      <trkpt lat="44.82588" lon="3.79986">
        <ele>1007</ele>
        <time>2021-08-08T14:19:06Z</time>
      </trkpt>
      <trkpt lat="44.82585" lon="3.7999">
        <ele>1007.1</ele>
        <time>2021-08-08T14:19:08Z</time>
      </trkpt>
      <trkpt lat="44.82581" lon="3.79995">
        <ele>1007.7</ele>
        <time>2021-08-08T14:19:10Z</time>
      </trkpt>
      <trkpt lat="44.82579" lon="3.80001">
        <ele>1008.4</ele>
        <time>2021-08-08T14:19:12Z</time>
      </trkpt>
      <trkpt lat="44.82577" lon="3.80007">
        <ele>1009.1</ele>
        <time>2021-08-08T14:19:14Z</time>
      </trkpt>
      <trkpt lat="44.82575" lon="3.80012">
        <ele>1009.6</ele>
        <time>2021-08-08T14:19:16Z</time>
      </trkpt>
      <trkpt lat="44.82574" lon="3.80019">
        <ele>1010.2</ele>
        <time>2021-08-08T14:19:18Z</time>
      </trkpt>
      <trkpt lat="44.82574" lon="3.80025">
        <ele>1010.7</ele>
        <time>2021-08-08T14:19:20Z</time>
      </trkpt>
      <trkpt lat="44.82574" lon="3.80032">
        <ele>1011.2</ele>
        <time>2021-08-08T14:19:22Z</time>
      </trkpt>
      <trkpt lat="44.82574" lon="3.80038">
        <ele>1011.6</ele>
        <time>2021-08-08T14:19:24Z</time>
      </trkpt>
      <trkpt lat="44.82574" lon="3.80044">
        <ele>1012.1</ele>
        <time>2021-08-08T14:19:26Z</time>
      </trkpt>
      <trkpt lat="44.82573" lon="3.80051">
        <ele>1012.6</ele>
        <time>2021-08-08T14:19:28Z</time>
      </trkpt>
      <trkpt lat="44.82573" lon="3.80057">
        <ele>1013.1</ele>
        <time>2021-08-08T14:19:30Z</time>
      </trkpt>
      <trkpt lat="44.82572" lon="3.80064">
        <ele>1013.6</ele>
        <time>2021-08-08T14:19:32Z</time>
      </trkpt>
      <trkpt lat="44.82572" lon="3.80069">
        <ele>1014</ele>
        <time>2021-08-08T14:19:34Z</time>
      </trkpt>
      <trkpt lat="44.8257" lon="3.80075">
        <ele>1014.4</ele>
        <time>2021-08-08T14:19:36Z</time>
      </trkpt>
      <trkpt lat="44.8257" lon="3.80081">
        <ele>1014.8</ele>
        <time>2021-08-08T14:19:38Z</time>
      </trkpt>
      <trkpt lat="44.82569" lon="3.80086">
        <ele>1015.2</ele>
        <time>2021-08-08T14:19:40Z</time>
      </trkpt>
      <trkpt lat="44.82568" lon="3.80091">
        <ele>1015.6</ele>
        <time>2021-08-08T14:19:42Z</time>
      </trkpt>
      <trkpt lat="44.82566" lon="3.80096">
        <ele>1016.1</ele>
        <time>2021-08-08T14:19:44Z</time>
      </trkpt>
      <trkpt lat="44.82565" lon="3.80102">
        <ele>1016.5</ele>
        <time>2021-08-08T14:19:46Z</time>
      </trkpt>
      <trkpt lat="44.82564" lon="3.80106">
        <ele>1016.9</ele>
        <time>2021-08-08T14:19:48Z</time>
      </trkpt>
      <trkpt lat="44.82562" lon="3.80112">
        <ele>1017.3</ele>
        <time>2021-08-08T14:19:50Z</time>
      </trkpt>
      <trkpt lat="44.82561" lon="3.80117">
        <ele>1017.7</ele>
        <time>2021-08-08T14:19:52Z</time>
      </trkpt>
      <trkpt lat="44.8256" lon="3.80122">
        <ele>1018.1</ele>
        <time>2021-08-08T14:19:54Z</time>
      </trkpt>
      <trkpt lat="44.82558" lon="3.80128">
        <ele>1018.6</ele>
        <time>2021-08-08T14:19:56Z</time>
      </trkpt>
      <trkpt lat="44.82556" lon="3.80133">
        <ele>1019</ele>
        <time>2021-08-08T14:19:58Z</time>
      </trkpt>
      <trkpt lat="44.82555" lon="3.80137">
        <ele>1019.3</ele>
        <time>2021-08-08T14:20:00Z</time>
      </trkpt>
      <trkpt lat="44.82553" lon="3.80143">
        <ele>1019.7</ele>
        <time>2021-08-08T14:20:02Z</time>
      </trkpt>
      <trkpt lat="44.82551" lon="3.80147">
        <ele>1020</ele>
        <time>2021-08-08T14:20:04Z</time>
      </trkpt>
      <trkpt lat="44.82547" lon="3.80151">
        <ele>1020.3</ele>
        <time>2021-08-08T14:20:06Z</time>
      </trkpt>
      <trkpt lat="44.82544" lon="3.80155">
        <ele>1020.6</ele>
        <time>2021-08-08T14:20:08Z</time>
      </trkpt>
      <trkpt lat="44.8254" lon="3.80158">
        <ele>1020.8</ele>
        <time>2021-08-08T14:20:10Z</time>
      </trkpt>
      <trkpt lat="44.82535" lon="3.80161">
        <ele>1021</ele>
        <time>2021-08-08T14:20:12Z</time>
      </trkpt>
      <trkpt lat="44.8253" lon="3.80163">
        <ele>1021.1</ele>
        <time>2021-08-08T14:20:14Z</time>
      </trkpt>
      <trkpt lat="44.82525" lon="3.80167">
        <ele>1021.3</ele>
        <time>2021-08-08T14:20:16Z</time>
      </trkpt>
      <trkpt lat="44.82519" lon="3.80168">
        <ele>1021.3</ele>
        <time>2021-08-08T14:20:18Z</time>
      </trkpt>
      <trkpt lat="44.82512" lon="3.80169">
        <ele>1021.2</ele>
        <time>2021-08-08T14:20:20Z</time>
      </trkpt>
      <trkpt lat="44.82505" lon="3.80169">
        <ele>1021.2</ele>
        <time>2021-08-08T14:20:22Z</time>
      </trkpt>
      <trkpt lat="44.82497" lon="3.80167">
        <ele>1020.8</ele>
        <time>2021-08-08T14:20:24Z</time>
      </trkpt>
      <trkpt lat="44.82489" lon="3.80165">
        <ele>1020.2</ele>
        <time>2021-08-08T14:20:26Z</time>
      </trkpt>
      <trkpt lat="44.82481" lon="3.8016">
        <ele>1019.5</ele>
        <time>2021-08-08T14:20:28Z</time>
      </trkpt>
      <trkpt lat="44.82473" lon="3.80155">
        <ele>1018.7</ele>
        <time>2021-08-08T14:20:30Z</time>
      </trkpt>
      <trkpt lat="44.82466" lon="3.80148">
        <ele>1017.9</ele>
        <time>2021-08-08T14:20:32Z</time>
      </trkpt>
      <trkpt lat="44.8246" lon="3.80139">
        <ele>1017.1</ele>
        <time>2021-08-08T14:20:34Z</time>
      </trkpt>
      <trkpt lat="44.82453" lon="3.80131">
        <ele>1016.3</ele>
        <time>2021-08-08T14:20:36Z</time>
      </trkpt>
      <trkpt lat="44.82448" lon="3.80122">
        <ele>1015.6</ele>
        <time>2021-08-08T14:20:38Z</time>
      </trkpt>
      <trkpt lat="44.82442" lon="3.80115">
        <ele>1015.1</ele>
        <time>2021-08-08T14:20:40Z</time>
      </trkpt>
      <trkpt lat="44.8244" lon="3.8011">
        <ele>1014.8</ele>
        <time>2021-08-08T14:20:42Z</time>
      </trkpt>
      <trkpt lat="44.8244" lon="3.80109">
        <ele>1014.7</ele>
        <time>2021-08-08T14:20:44Z</time>
      </trkpt>
      <trkpt lat="44.8244" lon="3.80109">
        <ele>1014.7</ele>
        <time>2021-08-08T14:20:46Z</time>
      </trkpt>
      <trkpt lat="44.8244" lon="3.80109">
        <ele>1014.7</ele>
        <time>2021-08-08T14:20:48Z</time>
      </trkpt>
      <trkpt lat="44.8244" lon="3.80109">
        <ele>1014.7</ele>
        <time>2021-08-08T14:20:50Z</time>
      </trkpt>
      <trkpt lat="44.8244" lon="3.80109">
        <ele>1014.7</ele>
        <time>2021-08-08T14:20:52Z</time>
      </trkpt>
      <trkpt lat="44.82427" lon="3.80091">
        <ele>1013.6</ele>
        <time>2021-08-08T14:23:30Z</time>
      </trkpt>
      <trkpt lat="44.82422" lon="3.80084">
        <ele>1013.2</ele>
        <time>2021-08-08T14:23:32Z</time>
      </trkpt>
      <trkpt lat="44.82416" lon="3.80077">
        <ele>1012.7</ele>
        <time>2021-08-08T14:23:34Z</time>
      </trkpt>
      <trkpt lat="44.8241" lon="3.80069">
        <ele>1012.2</ele>
        <time>2021-08-08T14:23:36Z</time>
      </trkpt>
      <trkpt lat="44.82404" lon="3.8006">
        <ele>1011.6</ele>
        <time>2021-08-08T14:23:38Z</time>
      </trkpt>
      <trkpt lat="44.82397" lon="3.80051">
        <ele>1011.1</ele>
        <time>2021-08-08T14:23:40Z</time>
      </trkpt>
      <trkpt lat="44.8239" lon="3.80041">
        <ele>1010.6</ele>
        <time>2021-08-08T14:23:42Z</time>
      </trkpt>
      <trkpt lat="44.82383" lon="3.80032">
        <ele>1010</ele>
        <time>2021-08-08T14:23:44Z</time>
      </trkpt>
      <trkpt lat="44.82376" lon="3.80021">
        <ele>1009.5</ele>
        <time>2021-08-08T14:23:46Z</time>
      </trkpt>
      <trkpt lat="44.82368" lon="3.8001">
        <ele>1009.1</ele>
        <time>2021-08-08T14:23:48Z</time>
      </trkpt>
      <trkpt lat="44.8236" lon="3.79998">
        <ele>1008.7</ele>
        <time>2021-08-08T14:23:50Z</time>
      </trkpt>
      <trkpt lat="44.82352" lon="3.79986">
        <ele>1008.5</ele>
        <time>2021-08-08T14:23:52Z</time>
      </trkpt>
      <trkpt lat="44.82344" lon="3.79973">
        <ele>1008.5</ele>
        <time>2021-08-08T14:23:54Z</time>
      </trkpt>
      <trkpt lat="44.82335" lon="3.79961">
        <ele>1008.5</ele>
        <time>2021-08-08T14:23:56Z</time>
      </trkpt>
      <trkpt lat="44.82326" lon="3.79949">
        <ele>1008.4</ele>
        <time>2021-08-08T14:23:58Z</time>
      </trkpt>
      <trkpt lat="44.82318" lon="3.79937">
        <ele>1008.4</ele>
        <time>2021-08-08T14:24:00Z</time>
      </trkpt>
      <trkpt lat="44.82309" lon="3.79925">
        <ele>1008.3</ele>
        <time>2021-08-08T14:24:02Z</time>
      </trkpt>
      <trkpt lat="44.823" lon="3.79914">
        <ele>1008.2</ele>
        <time>2021-08-08T14:24:04Z</time>
      </trkpt>
      <trkpt lat="44.82291" lon="3.79903">
        <ele>1007.9</ele>
        <time>2021-08-08T14:24:06Z</time>
      </trkpt>
      <trkpt lat="44.82282" lon="3.79893">
        <ele>1007.7</ele>
        <time>2021-08-08T14:24:08Z</time>
      </trkpt>
      <trkpt lat="44.82274" lon="3.79883">
        <ele>1007.5</ele>
        <time>2021-08-08T14:24:10Z</time>
      </trkpt>
      <trkpt lat="44.82266" lon="3.79872">
        <ele>1007.3</ele>
        <time>2021-08-08T14:24:12Z</time>
      </trkpt>
      <trkpt lat="44.82258" lon="3.79862">
        <ele>1007.1</ele>
        <time>2021-08-08T14:24:14Z</time>
      </trkpt>
      <trkpt lat="44.8225" lon="3.79853">
        <ele>1007</ele>
        <time>2021-08-08T14:24:16Z</time>
      </trkpt>
      <trkpt lat="44.82243" lon="3.79844">
        <ele>1006.8</ele>
        <time>2021-08-08T14:24:18Z</time>
      </trkpt>
      <trkpt lat="44.82235" lon="3.79834">
        <ele>1006.6</ele>
        <time>2021-08-08T14:24:20Z</time>
      </trkpt>
      <trkpt lat="44.82229" lon="3.79826">
        <ele>1006.5</ele>
        <time>2021-08-08T14:24:22Z</time>
      </trkpt>
      <trkpt lat="44.82224" lon="3.7982">
        <ele>1006.5</ele>
        <time>2021-08-08T14:24:24Z</time>
      </trkpt>
      <trkpt lat="44.82219" lon="3.79814">
        <ele>1006.4</ele>
        <time>2021-08-08T14:24:26Z</time>
      </trkpt>
      <trkpt lat="44.82216" lon="3.79809">
        <ele>1006.4</ele>
        <time>2021-08-08T14:24:28Z</time>
      </trkpt>
      <trkpt lat="44.82213" lon="3.79813">
        <ele>1006.3</ele>
        <time>2021-08-08T14:24:30Z</time>
      </trkpt>
      <trkpt lat="44.82213" lon="3.79814">
        <ele>1006.3</ele>
        <time>2021-08-08T14:24:32Z</time>
      </trkpt>
      <trkpt lat="44.82213" lon="3.79814">
        <ele>1006.3</ele>
        <time>2021-08-08T14:24:34Z</time>
      </trkpt>
      <trkpt lat="44.82213" lon="3.79814">
        <ele>1006.3</ele>
        <time>2021-08-08T14:24:36Z</time>
      </trkpt>
      <trkpt lat="44.82213" lon="3.79814">
        <ele>1006.3</ele>
        <time>2021-08-08T14:24:38Z</time>
      </trkpt>
      <trkpt lat="44.82213" lon="3.79813">
        <ele>1006.3</ele>
        <time>2021-08-08T14:24:40Z</time>
      </trkpt>
      <trkpt lat="44.82213" lon="3.79812">
        <ele>1006.3</ele>
        <time>2021-08-08T14:32:46Z</time>
      </trkpt>
      <trkpt lat="44.82213" lon="3.79813">
        <ele>1006.3</ele>
        <time>2021-08-08T14:32:48Z</time>
      </trkpt>
      <trkpt lat="44.82213" lon="3.79813">
        <ele>1006.3</ele>
        <time>2021-08-08T14:32:50Z</time>
      </trkpt>
      <trkpt lat="44.82213" lon="3.79814">
        <ele>1006.3</ele>
        <time>2021-08-08T14:32:52Z</time>
      </trkpt>
      <trkpt lat="44.82213" lon="3.79821">
        <ele>1006.2</ele>
        <time>2021-08-08T14:32:54Z</time>
      </trkpt>
      <trkpt lat="44.82216" lon="3.79825">
        <ele>1006.3</ele>
        <time>2021-08-08T14:32:56Z</time>
      </trkpt>
      <trkpt lat="44.8222" lon="3.79821">
        <ele>1006.4</ele>
        <time>2021-08-08T14:32:58Z</time>
      </trkpt>
      <trkpt lat="44.82217" lon="3.79817">
        <ele>1006.4</ele>
        <time>2021-08-08T14:33:00Z</time>
      </trkpt>
      <trkpt lat="44.82213" lon="3.79816">
        <ele>1006.3</ele>
        <time>2021-08-08T14:33:02Z</time>
      </trkpt>
      <trkpt lat="44.82213" lon="3.79813">
        <ele>1006.3</ele>
        <time>2021-08-08T14:33:04Z</time>
      </trkpt>
      <trkpt lat="44.82213" lon="3.79814">
        <ele>1006.3</ele>
        <time>2021-08-08T14:33:06Z</time>
      </trkpt>
      <trkpt lat="44.82213" lon="3.79814">
        <ele>1006.3</ele>
        <time>2021-08-08T14:33:08Z</time>
      </trkpt>
      <trkpt lat="44.82213" lon="3.79814">
        <ele>1006.3</ele>
        <time>2021-08-08T14:33:10Z</time>
      </trkpt>
      <trkpt lat="44.82213" lon="3.79814">
        <ele>1006.3</ele>
        <time>2021-08-08T14:33:12Z</time>
      </trkpt>
      <trkpt lat="44.82213" lon="3.79814">
        <ele>1006.3</ele>
        <time>2021-08-08T14:33:14Z</time>
      </trkpt>
      <trkpt lat="44.82211" lon="3.79795">
        <ele>1006.5</ele>
        <time>2021-08-08T14:35:32Z</time>
      </trkpt>
      <trkpt lat="44.82207" lon="3.79788">
        <ele>1006.5</ele>
        <time>2021-08-08T14:35:34Z</time>
      </trkpt>
      <trkpt lat="44.82203" lon="3.79781">
        <ele>1006.6</ele>
        <time>2021-08-08T14:35:36Z</time>
      </trkpt>
      <trkpt lat="44.82198" lon="3.79774">
        <ele>1006.6</ele>
        <time>2021-08-08T14:35:38Z</time>
      </trkpt>
      <trkpt lat="44.82193" lon="3.79766">
        <ele>1006.7</ele>
        <time>2021-08-08T14:35:40Z</time>
      </trkpt>
      <trkpt lat="44.82188" lon="3.79759">
        <ele>1006.8</ele>
        <time>2021-08-08T14:35:42Z</time>
      </trkpt>
      <trkpt lat="44.82183" lon="3.7975">
        <ele>1007</ele>
        <time>2021-08-08T14:35:44Z</time>
      </trkpt>
      <trkpt lat="44.82177" lon="3.79742">
        <ele>1006.8</ele>
        <time>2021-08-08T14:35:46Z</time>
      </trkpt>
      <trkpt lat="44.82172" lon="3.79733">
        <ele>1006.6</ele>
        <time>2021-08-08T14:35:48Z</time>
      </trkpt>
      <trkpt lat="44.82167" lon="3.79724">
        <ele>1006.4</ele>
        <time>2021-08-08T14:35:50Z</time>
      </trkpt>
      <trkpt lat="44.82163" lon="3.79714">
        <ele>1005.9</ele>
        <time>2021-08-08T14:35:52Z</time>
      </trkpt>
      <trkpt lat="44.82158" lon="3.79704">
        <ele>1005.4</ele>
        <time>2021-08-08T14:35:54Z</time>
      </trkpt>
      <trkpt lat="44.82154" lon="3.79695">
        <ele>1004.9</ele>
        <time>2021-08-08T14:35:56Z</time>
      </trkpt>
      <trkpt lat="44.8215" lon="3.79685">
        <ele>1004.4</ele>
        <time>2021-08-08T14:35:58Z</time>
      </trkpt>
      <trkpt lat="44.82145" lon="3.79677">
        <ele>1003.9</ele>
        <time>2021-08-08T14:36:00Z</time>
      </trkpt>
      <trkpt lat="44.82141" lon="3.79669">
        <ele>1003.5</ele>
        <time>2021-08-08T14:36:02Z</time>
      </trkpt>
      <trkpt lat="44.82136" lon="3.79661">
        <ele>1003.2</ele>
        <time>2021-08-08T14:36:04Z</time>
      </trkpt>
      <trkpt lat="44.82132" lon="3.79652">
        <ele>1002.9</ele>
        <time>2021-08-08T14:36:06Z</time>
      </trkpt>
      <trkpt lat="44.82126" lon="3.79643">
        <ele>1002.5</ele>
        <time>2021-08-08T14:36:08Z</time>
      </trkpt>
      <trkpt lat="44.8212" lon="3.79633">
        <ele>1002.3</ele>
        <time>2021-08-08T14:36:10Z</time>
      </trkpt>
      <trkpt lat="44.82114" lon="3.79623">
        <ele>1002</ele>
        <time>2021-08-08T14:36:12Z</time>
      </trkpt>
      <trkpt lat="44.82108" lon="3.79612">
        <ele>1001.7</ele>
        <time>2021-08-08T14:36:14Z</time>
      </trkpt>
      <trkpt lat="44.82101" lon="3.796">
        <ele>1001.5</ele>
        <time>2021-08-08T14:36:16Z</time>
      </trkpt>
      <trkpt lat="44.82095" lon="3.79586">
        <ele>1001.4</ele>
        <time>2021-08-08T14:36:18Z</time>
      </trkpt>
      <trkpt lat="44.82089" lon="3.79572">
        <ele>1001.2</ele>
        <time>2021-08-08T14:36:20Z</time>
      </trkpt>
      <trkpt lat="44.82084" lon="3.79558">
        <ele>1001</ele>
        <time>2021-08-08T14:36:22Z</time>
      </trkpt>
      <trkpt lat="44.82079" lon="3.79544">
        <ele>1000.6</ele>
        <time>2021-08-08T14:36:24Z</time>
      </trkpt>
      <trkpt lat="44.82074" lon="3.79529">
        <ele>1000.1</ele>
        <time>2021-08-08T14:36:26Z</time>
      </trkpt>
      <trkpt lat="44.82069" lon="3.79513">
        <ele>999.7</ele>
        <time>2021-08-08T14:36:28Z</time>
      </trkpt>
      <trkpt lat="44.82063" lon="3.79497">
        <ele>999.2</ele>
        <time>2021-08-08T14:36:30Z</time>
      </trkpt>
      <trkpt lat="44.82057" lon="3.7948">
        <ele>998.2</ele>
        <time>2021-08-08T14:36:32Z</time>
      </trkpt>
      <trkpt lat="44.8205" lon="3.79461">
        <ele>997.1</ele>
        <time>2021-08-08T14:36:34Z</time>
      </trkpt>
      <trkpt lat="44.82042" lon="3.79441">
        <ele>996.1</ele>
        <time>2021-08-08T14:36:36Z</time>
      </trkpt>
      <trkpt lat="44.82034" lon="3.79419">
        <ele>995.1</ele>
        <time>2021-08-08T14:36:38Z</time>
      </trkpt>
      <trkpt lat="44.82027" lon="3.79396">
        <ele>994.2</ele>
        <time>2021-08-08T14:36:40Z</time>
      </trkpt>
      <trkpt lat="44.8202" lon="3.79372">
        <ele>993.3</ele>
        <time>2021-08-08T14:36:42Z</time>
      </trkpt>
      <trkpt lat="44.82016" lon="3.79347">
        <ele>992.4</ele>
        <time>2021-08-08T14:36:44Z</time>
      </trkpt>
      <trkpt lat="44.82011" lon="3.79324">
        <ele>991.9</ele>
        <time>2021-08-08T14:36:46Z</time>
      </trkpt>
      <trkpt lat="44.82004" lon="3.79302">
        <ele>991.6</ele>
        <time>2021-08-08T14:36:48Z</time>
      </trkpt>
      <trkpt lat="44.81995" lon="3.79281">
        <ele>991.2</ele>
        <time>2021-08-08T14:36:50Z</time>
      </trkpt>
      <trkpt lat="44.81984" lon="3.79262">
        <ele>990.5</ele>
        <time>2021-08-08T14:36:52Z</time>
      </trkpt>
      <trkpt lat="44.81974" lon="3.79244">
        <ele>989.9</ele>
        <time>2021-08-08T14:36:54Z</time>
      </trkpt>
      <trkpt lat="44.81963" lon="3.79226">
        <ele>989.3</ele>
        <time>2021-08-08T14:36:56Z</time>
      </trkpt>
      <trkpt lat="44.81952" lon="3.79209">
        <ele>988.8</ele>
        <time>2021-08-08T14:36:58Z</time>
      </trkpt>
      <trkpt lat="44.81941" lon="3.7919">
        <ele>988.6</ele>
        <time>2021-08-08T14:37:00Z</time>
      </trkpt>
      <trkpt lat="44.8193" lon="3.79173">
        <ele>988.4</ele>
        <time>2021-08-08T14:37:02Z</time>
      </trkpt>
      <trkpt lat="44.81919" lon="3.79155">
        <ele>988</ele>
        <time>2021-08-08T14:37:04Z</time>
      </trkpt>
      <trkpt lat="44.81909" lon="3.79138">
        <ele>987.2</ele>
        <time>2021-08-08T14:37:06Z</time>
      </trkpt>
      <trkpt lat="44.81899" lon="3.79123">
        <ele>986.5</ele>
        <time>2021-08-08T14:37:08Z</time>
      </trkpt>
      <trkpt lat="44.81889" lon="3.79109">
        <ele>985.9</ele>
        <time>2021-08-08T14:37:10Z</time>
      </trkpt>
      <trkpt lat="44.81878" lon="3.79098">
        <ele>985.2</ele>
        <time>2021-08-08T14:37:12Z</time>
      </trkpt>
      <trkpt lat="44.81866" lon="3.79092">
        <ele>984.6</ele>
        <time>2021-08-08T14:37:14Z</time>
      </trkpt>
      <trkpt lat="44.81854" lon="3.79093">
        <ele>984</ele>
        <time>2021-08-08T14:37:16Z</time>
      </trkpt>
      <trkpt lat="44.81841" lon="3.79101">
        <ele>983.4</ele>
        <time>2021-08-08T14:37:18Z</time>
      </trkpt>
      <trkpt lat="44.8183" lon="3.79111">
        <ele>982.8</ele>
        <time>2021-08-08T14:37:20Z</time>
      </trkpt>
      <trkpt lat="44.81818" lon="3.7912">
        <ele>982.1</ele>
        <time>2021-08-08T14:37:22Z</time>
      </trkpt>
      <trkpt lat="44.81807" lon="3.79129">
        <ele>981.4</ele>
        <time>2021-08-08T14:37:24Z</time>
      </trkpt>
      <trkpt lat="44.81798" lon="3.7914">
        <ele>980.9</ele>
        <time>2021-08-08T14:37:26Z</time>
      </trkpt>
      <trkpt lat="44.81791" lon="3.79148">
        <ele>980.4</ele>
        <time>2021-08-08T14:37:28Z</time>
      </trkpt>
      <trkpt lat="44.81785" lon="3.79154">
        <ele>980.1</ele>
        <time>2021-08-08T14:37:30Z</time>
      </trkpt>
      <trkpt lat="44.8178" lon="3.79158">
        <ele>979.8</ele>
        <time>2021-08-08T14:37:32Z</time>
      </trkpt>
      <trkpt lat="44.81777" lon="3.79163">
        <ele>979.6</ele>
        <time>2021-08-08T14:37:34Z</time>
      </trkpt>
      <trkpt lat="44.81775" lon="3.79168">
        <ele>979.5</ele>
        <time>2021-08-08T14:37:36Z</time>
      </trkpt>
      <trkpt lat="44.8178" lon="3.79172">
        <ele>979.6</ele>
        <time>2021-08-08T14:37:38Z</time>
      </trkpt>
      <trkpt lat="44.81784" lon="3.79176">
        <ele>979.6</ele>
        <time>2021-08-08T14:37:40Z</time>
      </trkpt>
      <trkpt lat="44.81787" lon="3.79179">
        <ele>979.7</ele>
        <time>2021-08-08T14:37:42Z</time>
      </trkpt>
      <trkpt lat="44.8179" lon="3.79181">
        <ele>979.8</ele>
        <time>2021-08-08T14:37:44Z</time>
      </trkpt>
      <trkpt lat="44.81792" lon="3.79184">
        <ele>979.8</ele>
        <time>2021-08-08T14:37:46Z</time>
      </trkpt>
      <trkpt lat="44.81794" lon="3.79187">
        <ele>979.8</ele>
        <time>2021-08-08T14:37:48Z</time>
      </trkpt>
      <trkpt lat="44.81794" lon="3.79189">
        <ele>979.7</ele>
        <time>2021-08-08T14:37:50Z</time>
      </trkpt>
      <trkpt lat="44.81794" lon="3.79193">
        <ele>979.5</ele>
        <time>2021-08-08T14:37:52Z</time>
      </trkpt>
      <trkpt lat="44.81791" lon="3.79195">
        <ele>979.3</ele>
        <time>2021-08-08T14:37:54Z</time>
      </trkpt>
      <trkpt lat="44.8179" lon="3.79199">
        <ele>979</ele>
        <time>2021-08-08T14:37:56Z</time>
      </trkpt>
      <trkpt lat="44.81791" lon="3.79202">
        <ele>979</ele>
        <time>2021-08-08T14:37:58Z</time>
      </trkpt>
      <trkpt lat="44.81794" lon="3.79201">
        <ele>979.2</ele>
        <time>2021-08-08T14:38:00Z</time>
      </trkpt>
      <trkpt lat="44.81794" lon="3.79198">
        <ele>979.4</ele>
        <time>2021-08-08T14:38:02Z</time>
      </trkpt>
      <trkpt lat="44.81793" lon="3.79194">
        <ele>979.5</ele>
        <time>2021-08-08T14:38:04Z</time>
      </trkpt>
      <trkpt lat="44.81792" lon="3.7919">
        <ele>979.5</ele>
        <time>2021-08-08T14:38:06Z</time>
      </trkpt>
      <trkpt lat="44.81791" lon="3.79187">
        <ele>979.6</ele>
        <time>2021-08-08T14:38:08Z</time>
      </trkpt>
      <trkpt lat="44.8179" lon="3.79183">
        <ele>979.7</ele>
        <time>2021-08-08T14:38:10Z</time>
      </trkpt>
      <trkpt lat="44.81788" lon="3.79178">
        <ele>979.8</ele>
        <time>2021-08-08T14:38:12Z</time>
      </trkpt>
      <trkpt lat="44.81785" lon="3.79172">
        <ele>979.9</ele>
        <time>2021-08-08T14:38:14Z</time>
      </trkpt>
      <trkpt lat="44.81782" lon="3.79167">
        <ele>979.9</ele>
        <time>2021-08-08T14:38:16Z</time>
      </trkpt>
      <trkpt lat="44.81778" lon="3.79162">
        <ele>979.7</ele>
        <time>2021-08-08T14:38:18Z</time>
      </trkpt>
      <trkpt lat="44.81776" lon="3.79161">
        <ele>979.6</ele>
        <time>2021-08-08T14:38:20Z</time>
      </trkpt>
      <trkpt lat="44.81774" lon="3.7916">
        <ele>979.4</ele>
        <time>2021-08-08T14:38:22Z</time>
      </trkpt>
      <trkpt lat="44.81769" lon="3.79156">
        <ele>979.2</ele>
        <time>2021-08-08T14:38:24Z</time>
      </trkpt>
      <trkpt lat="44.81764" lon="3.79151">
        <ele>978.8</ele>
        <time>2021-08-08T14:38:26Z</time>
      </trkpt>
      <trkpt lat="44.81758" lon="3.79146">
        <ele>978.5</ele>
        <time>2021-08-08T14:38:28Z</time>
      </trkpt>
      <trkpt lat="44.81752" lon="3.7914">
        <ele>978.1</ele>
        <time>2021-08-08T14:38:30Z</time>
      </trkpt>
      <trkpt lat="44.81745" lon="3.79134">
        <ele>977.3</ele>
        <time>2021-08-08T14:38:32Z</time>
      </trkpt>
      <trkpt lat="44.81738" lon="3.79129">
        <ele>976.4</ele>
        <time>2021-08-08T14:38:34Z</time>
      </trkpt>
      <trkpt lat="44.81731" lon="3.79124">
        <ele>975.5</ele>
        <time>2021-08-08T14:38:36Z</time>
      </trkpt>
      <trkpt lat="44.81724" lon="3.79118">
        <ele>974.6</ele>
        <time>2021-08-08T14:38:38Z</time>
      </trkpt>
      <trkpt lat="44.81717" lon="3.79112">
        <ele>973.8</ele>
        <time>2021-08-08T14:38:40Z</time>
      </trkpt>
      <trkpt lat="44.8171" lon="3.79105">
        <ele>972.9</ele>
        <time>2021-08-08T14:38:42Z</time>
      </trkpt>
      <trkpt lat="44.81703" lon="3.79099">
        <ele>972.2</ele>
        <time>2021-08-08T14:38:44Z</time>
      </trkpt>
      <trkpt lat="44.81697" lon="3.79092">
        <ele>971.6</ele>
        <time>2021-08-08T14:38:46Z</time>
      </trkpt>
      <trkpt lat="44.81692" lon="3.79082">
        <ele>971.1</ele>
        <time>2021-08-08T14:38:48Z</time>
      </trkpt>
      <trkpt lat="44.8169" lon="3.79075">
        <ele>970.8</ele>
        <time>2021-08-08T14:38:50Z</time>
      </trkpt>
      <trkpt lat="44.81689" lon="3.7907">
        <ele>970.6</ele>
        <time>2021-08-08T14:38:52Z</time>
      </trkpt>
      <trkpt lat="44.81687" lon="3.79069">
        <ele>970.3</ele>
        <time>2021-08-08T14:38:54Z</time>
      </trkpt>
      <trkpt lat="44.81684" lon="3.79067">
        <ele>970</ele>
        <time>2021-08-08T14:38:56Z</time>
      </trkpt>
      <trkpt lat="44.81681" lon="3.79063">
        <ele>969.7</ele>
        <time>2021-08-08T14:38:58Z</time>
      </trkpt>
      <trkpt lat="44.8168" lon="3.79059">
        <ele>969.6</ele>
        <time>2021-08-08T14:39:00Z</time>
      </trkpt>
      <trkpt lat="44.81681" lon="3.79059">
        <ele>969.6</ele>
        <time>2021-08-08T14:39:02Z</time>
      </trkpt>
      <trkpt lat="44.81681" lon="3.79058">
        <ele>969.6</ele>
        <time>2021-08-08T14:39:04Z</time>
      </trkpt>
      <trkpt lat="44.81681" lon="3.79058">
        <ele>969.6</ele>
        <time>2021-08-08T14:39:06Z</time>
      </trkpt>
      <trkpt lat="44.81681" lon="3.79058">
        <ele>969.7</ele>
        <time>2021-08-08T14:39:08Z</time>
      </trkpt>
      <trkpt lat="44.81672" lon="3.79047">
        <ele>968.6</ele>
        <time>2021-08-08T14:39:28Z</time>
      </trkpt>
      <trkpt lat="44.81669" lon="3.79042">
        <ele>968.3</ele>
        <time>2021-08-08T14:39:30Z</time>
      </trkpt>
      <trkpt lat="44.81666" lon="3.79037">
        <ele>967.9</ele>
        <time>2021-08-08T14:39:32Z</time>
      </trkpt>
      <trkpt lat="44.81661" lon="3.79029">
        <ele>967.3</ele>
        <time>2021-08-08T14:39:34Z</time>
      </trkpt>
      <trkpt lat="44.81655" lon="3.79019">
        <ele>966.8</ele>
        <time>2021-08-08T14:39:36Z</time>
      </trkpt>
      <trkpt lat="44.81648" lon="3.79008">
        <ele>966.3</ele>
        <time>2021-08-08T14:39:38Z</time>
      </trkpt>
      <trkpt lat="44.81641" lon="3.78995">
        <ele>965.8</ele>
        <time>2021-08-08T14:39:40Z</time>
      </trkpt>
      <trkpt lat="44.81633" lon="3.78983">
        <ele>964.9</ele>
        <time>2021-08-08T14:39:42Z</time>
      </trkpt>
      <trkpt lat="44.81625" lon="3.7897">
        <ele>964.1</ele>
        <time>2021-08-08T14:39:44Z</time>
      </trkpt>
      <trkpt lat="44.81616" lon="3.78957">
        <ele>963.3</ele>
        <time>2021-08-08T14:39:46Z</time>
      </trkpt>
      <trkpt lat="44.81605" lon="3.78945">
        <ele>962.5</ele>
        <time>2021-08-08T14:39:48Z</time>
      </trkpt>
      <trkpt lat="44.81594" lon="3.78933">
        <ele>961.7</ele>
        <time>2021-08-08T14:39:50Z</time>
      </trkpt>
      <trkpt lat="44.81582" lon="3.78922">
        <ele>960.9</ele>
        <time>2021-08-08T14:39:52Z</time>
      </trkpt>
      <trkpt lat="44.81569" lon="3.78911">
        <ele>959.8</ele>
        <time>2021-08-08T14:39:54Z</time>
      </trkpt>
      <trkpt lat="44.81556" lon="3.78902">
        <ele>958.5</ele>
        <time>2021-08-08T14:39:56Z</time>
      </trkpt>
      <trkpt lat="44.81543" lon="3.78893">
        <ele>957.2</ele>
        <time>2021-08-08T14:39:58Z</time>
      </trkpt>
      <trkpt lat="44.81529" lon="3.78883">
        <ele>955.9</ele>
        <time>2021-08-08T14:40:00Z</time>
      </trkpt>
      <trkpt lat="44.81515" lon="3.78873">
        <ele>954.5</ele>
        <time>2021-08-08T14:40:02Z</time>
      </trkpt>
      <trkpt lat="44.81499" lon="3.78864">
        <ele>953.1</ele>
        <time>2021-08-08T14:40:04Z</time>
      </trkpt>
      <trkpt lat="44.81483" lon="3.78857">
        <ele>951.9</ele>
        <time>2021-08-08T14:40:06Z</time>
      </trkpt>
      <trkpt lat="44.81465" lon="3.78849">
        <ele>950.8</ele>
        <time>2021-08-08T14:40:08Z</time>
      </trkpt>
      <trkpt lat="44.81448" lon="3.78843">
        <ele>950.1</ele>
        <time>2021-08-08T14:40:10Z</time>
      </trkpt>
      <trkpt lat="44.8143" lon="3.7884">
        <ele>949.3</ele>
        <time>2021-08-08T14:40:12Z</time>
      </trkpt>
      <trkpt lat="44.81411" lon="3.78837">
        <ele>948.5</ele>
        <time>2021-08-08T14:40:14Z</time>
      </trkpt>
      <trkpt lat="44.81392" lon="3.78836">
        <ele>947.1</ele>
        <time>2021-08-08T14:40:16Z</time>
      </trkpt>
      <trkpt lat="44.81374" lon="3.78833">
        <ele>945.9</ele>
        <time>2021-08-08T14:40:18Z</time>
      </trkpt>
      <trkpt lat="44.81355" lon="3.78831">
        <ele>944.6</ele>
        <time>2021-08-08T14:40:20Z</time>
      </trkpt>
      <trkpt lat="44.81336" lon="3.78828">
        <ele>943.3</ele>
        <time>2021-08-08T14:40:22Z</time>
      </trkpt>
      <trkpt lat="44.81317" lon="3.78827">
        <ele>941.9</ele>
        <time>2021-08-08T14:40:24Z</time>
      </trkpt>
      <trkpt lat="44.81299" lon="3.78827">
        <ele>940.5</ele>
        <time>2021-08-08T14:40:26Z</time>
      </trkpt>
      <trkpt lat="44.8128" lon="3.78825">
        <ele>939</ele>
        <time>2021-08-08T14:40:28Z</time>
      </trkpt>
      <trkpt lat="44.8126" lon="3.78824">
        <ele>937.5</ele>
        <time>2021-08-08T14:40:30Z</time>
      </trkpt>
      <trkpt lat="44.81239" lon="3.78822">
        <ele>935.5</ele>
        <time>2021-08-08T14:40:32Z</time>
      </trkpt>
      <trkpt lat="44.81219" lon="3.7882">
        <ele>933.2</ele>
        <time>2021-08-08T14:40:34Z</time>
      </trkpt>
      <trkpt lat="44.812" lon="3.78818">
        <ele>931.1</ele>
        <time>2021-08-08T14:40:36Z</time>
      </trkpt>
      <trkpt lat="44.81183" lon="3.78815">
        <ele>929.3</ele>
        <time>2021-08-08T14:40:38Z</time>
      </trkpt>
      <trkpt lat="44.81168" lon="3.78811">
        <ele>928</ele>
        <time>2021-08-08T14:40:40Z</time>
      </trkpt>
      <trkpt lat="44.81156" lon="3.788">
        <ele>927.7</ele>
        <time>2021-08-08T14:40:42Z</time>
      </trkpt>
      <trkpt lat="44.81145" lon="3.78784">
        <ele>927.9</ele>
        <time>2021-08-08T14:40:44Z</time>
      </trkpt>
      <trkpt lat="44.81132" lon="3.78766">
        <ele>927.7</ele>
        <time>2021-08-08T14:40:46Z</time>
      </trkpt>
      <trkpt lat="44.81121" lon="3.78747">
        <ele>927.4</ele>
        <time>2021-08-08T14:40:48Z</time>
      </trkpt>
      <trkpt lat="44.81109" lon="3.7873">
        <ele>926.6</ele>
        <time>2021-08-08T14:40:50Z</time>
      </trkpt>
      <trkpt lat="44.81097" lon="3.78712">
        <ele>925.9</ele>
        <time>2021-08-08T14:40:52Z</time>
      </trkpt>
      <trkpt lat="44.81084" lon="3.78693">
        <ele>925.6</ele>
        <time>2021-08-08T14:40:54Z</time>
      </trkpt>
      <trkpt lat="44.81072" lon="3.78674">
        <ele>925.2</ele>
        <time>2021-08-08T14:40:56Z</time>
      </trkpt>
      <trkpt lat="44.81061" lon="3.78657">
        <ele>924.7</ele>
        <time>2021-08-08T14:40:58Z</time>
      </trkpt>
      <trkpt lat="44.81051" lon="3.78647">
        <ele>923.7</ele>
        <time>2021-08-08T14:41:00Z</time>
      </trkpt>
      <trkpt lat="44.8104" lon="3.78646">
        <ele>921.6</ele>
        <time>2021-08-08T14:41:02Z</time>
      </trkpt>
      <trkpt lat="44.81032" lon="3.78659">
        <ele>918.8</ele>
        <time>2021-08-08T14:41:04Z</time>
      </trkpt>
      <trkpt lat="44.81034" lon="3.78677">
        <ele>917.8</ele>
        <time>2021-08-08T14:41:06Z</time>
      </trkpt>
      <trkpt lat="44.81043" lon="3.78692">
        <ele>918.4</ele>
        <time>2021-08-08T14:41:08Z</time>
      </trkpt>
      <trkpt lat="44.81053" lon="3.78707">
        <ele>918.9</ele>
        <time>2021-08-08T14:41:10Z</time>
      </trkpt>
      <trkpt lat="44.81062" lon="3.78725">
        <ele>919</ele>
        <time>2021-08-08T14:41:12Z</time>
      </trkpt>
      <trkpt lat="44.8107" lon="3.78745">
        <ele>918.5</ele>
        <time>2021-08-08T14:41:14Z</time>
      </trkpt>
      <trkpt lat="44.81076" lon="3.78767">
        <ele>917.9</ele>
        <time>2021-08-08T14:41:16Z</time>
      </trkpt>
      <trkpt lat="44.81082" lon="3.78787">
        <ele>917.2</ele>
        <time>2021-08-08T14:41:18Z</time>
      </trkpt>
      <trkpt lat="44.81079" lon="3.78805">
        <ele>915.7</ele>
        <time>2021-08-08T14:41:20Z</time>
      </trkpt>
      <trkpt lat="44.81065" lon="3.78815">
        <ele>913.9</ele>
        <time>2021-08-08T14:41:22Z</time>
      </trkpt>
      <trkpt lat="44.81048" lon="3.78817">
        <ele>912.4</ele>
        <time>2021-08-08T14:41:24Z</time>
      </trkpt>
      <trkpt lat="44.8103" lon="3.78817">
        <ele>911.1</ele>
        <time>2021-08-08T14:41:26Z</time>
      </trkpt>
      <trkpt lat="44.81013" lon="3.78818">
        <ele>909.8</ele>
        <time>2021-08-08T14:41:28Z</time>
      </trkpt>
      <trkpt lat="44.80998" lon="3.78816">
        <ele>909.1</ele>
        <time>2021-08-08T14:41:30Z</time>
      </trkpt>
      <trkpt lat="44.80983" lon="3.78813">
        <ele>911</ele>
        <time>2021-08-08T14:41:32Z</time>
      </trkpt>
      <trkpt lat="44.80972" lon="3.78805">
        <ele>912.4</ele>
        <time>2021-08-08T14:41:34Z</time>
      </trkpt>
      <trkpt lat="44.80962" lon="3.78797">
        <ele>913.4</ele>
        <time>2021-08-08T14:41:36Z</time>
      </trkpt>
      <trkpt lat="44.80954" lon="3.7879">
        <ele>914.2</ele>
        <time>2021-08-08T14:41:38Z</time>
      </trkpt>
      <trkpt lat="44.80947" lon="3.78784">
        <ele>914.9</ele>
        <time>2021-08-08T14:41:40Z</time>
      </trkpt>
      <trkpt lat="44.80941" lon="3.78777">
        <ele>915.4</ele>
        <time>2021-08-08T14:41:42Z</time>
      </trkpt>
      <trkpt lat="44.80935" lon="3.78771">
        <ele>915.8</ele>
        <time>2021-08-08T14:41:44Z</time>
      </trkpt>
      <trkpt lat="44.8093" lon="3.78764">
        <ele>916.1</ele>
        <time>2021-08-08T14:41:46Z</time>
      </trkpt>
      <trkpt lat="44.80925" lon="3.78758">
        <ele>916.4</ele>
        <time>2021-08-08T14:41:48Z</time>
      </trkpt>
      <trkpt lat="44.80922" lon="3.78751">
        <ele>916.5</ele>
        <time>2021-08-08T14:41:50Z</time>
      </trkpt>
      <trkpt lat="44.80917" lon="3.78744">
        <ele>916.5</ele>
        <time>2021-08-08T14:41:52Z</time>
      </trkpt>
      <trkpt lat="44.80913" lon="3.78737">
        <ele>916.5</ele>
        <time>2021-08-08T14:41:54Z</time>
      </trkpt>
      <trkpt lat="44.80909" lon="3.7873">
        <ele>916.5</ele>
        <time>2021-08-08T14:41:56Z</time>
      </trkpt>
      <trkpt lat="44.80906" lon="3.78724">
        <ele>916.5</ele>
        <time>2021-08-08T14:41:58Z</time>
      </trkpt>
      <trkpt lat="44.80903" lon="3.78718">
        <ele>916.6</ele>
        <time>2021-08-08T14:42:00Z</time>
      </trkpt>
      <trkpt lat="44.80899" lon="3.78712">
        <ele>916.8</ele>
        <time>2021-08-08T14:42:02Z</time>
      </trkpt>
      <trkpt lat="44.80896" lon="3.78706">
        <ele>916.9</ele>
        <time>2021-08-08T14:42:04Z</time>
      </trkpt>
      <trkpt lat="44.80894" lon="3.78701">
        <ele>917</ele>
        <time>2021-08-08T14:42:06Z</time>
      </trkpt>
      <trkpt lat="44.80891" lon="3.78695">
        <ele>917</ele>
        <time>2021-08-08T14:42:08Z</time>
      </trkpt>
      <trkpt lat="44.80888" lon="3.7869">
        <ele>917.1</ele>
        <time>2021-08-08T14:42:10Z</time>
      </trkpt>
      <trkpt lat="44.80885" lon="3.78685">
        <ele>917.3</ele>
        <time>2021-08-08T14:42:12Z</time>
      </trkpt>
      <trkpt lat="44.80883" lon="3.78679">
        <ele>917.4</ele>
        <time>2021-08-08T14:42:14Z</time>
      </trkpt>
      <trkpt lat="44.8088" lon="3.78673">
        <ele>917.4</ele>
        <time>2021-08-08T14:42:16Z</time>
      </trkpt>
      <trkpt lat="44.80878" lon="3.78667">
        <ele>917.5</ele>
        <time>2021-08-08T14:42:18Z</time>
      </trkpt>
      <trkpt lat="44.80876" lon="3.78661">
        <ele>917.6</ele>
        <time>2021-08-08T14:42:20Z</time>
      </trkpt>
      <trkpt lat="44.80874" lon="3.78655">
        <ele>917.8</ele>
        <time>2021-08-08T14:42:22Z</time>
      </trkpt>
      <trkpt lat="44.80872" lon="3.78649">
        <ele>917.9</ele>
        <time>2021-08-08T14:42:24Z</time>
      </trkpt>
      <trkpt lat="44.80871" lon="3.78643">
        <ele>918</ele>
        <time>2021-08-08T14:42:26Z</time>
      </trkpt>
      <trkpt lat="44.80869" lon="3.78637">
        <ele>918.1</ele>
        <time>2021-08-08T14:42:28Z</time>
      </trkpt>
      <trkpt lat="44.80868" lon="3.78631">
        <ele>918.1</ele>
        <time>2021-08-08T14:42:30Z</time>
      </trkpt>
      <trkpt lat="44.80866" lon="3.78626">
        <ele>918.3</ele>
        <time>2021-08-08T14:42:32Z</time>
      </trkpt>
      <trkpt lat="44.80865" lon="3.7862">
        <ele>918.2</ele>
        <time>2021-08-08T14:42:34Z</time>
      </trkpt>
      <trkpt lat="44.80864" lon="3.78615">
        <ele>918.3</ele>
        <time>2021-08-08T14:42:36Z</time>
      </trkpt>
      <trkpt lat="44.80863" lon="3.7861">
        <ele>918.3</ele>
        <time>2021-08-08T14:42:38Z</time>
      </trkpt>
      <trkpt lat="44.80862" lon="3.78604">
        <ele>918.3</ele>
        <time>2021-08-08T14:42:40Z</time>
      </trkpt>
      <trkpt lat="44.8086" lon="3.786">
        <ele>918.5</ele>
        <time>2021-08-08T14:42:42Z</time>
      </trkpt>
      <trkpt lat="44.80859" lon="3.78594">
        <ele>918.5</ele>
        <time>2021-08-08T14:42:44Z</time>
      </trkpt>
      <trkpt lat="44.80858" lon="3.78589">
        <ele>918.4</ele>
        <time>2021-08-08T14:42:46Z</time>
      </trkpt>
      <trkpt lat="44.80858" lon="3.78584">
        <ele>918.4</ele>
        <time>2021-08-08T14:42:48Z</time>
      </trkpt>
      <trkpt lat="44.80856" lon="3.78579">
        <ele>918.4</ele>
        <time>2021-08-08T14:42:50Z</time>
      </trkpt>
      <trkpt lat="44.80855" lon="3.78574">
        <ele>918.3</ele>
        <time>2021-08-08T14:42:52Z</time>
      </trkpt>
      <trkpt lat="44.80854" lon="3.78569">
        <ele>918.3</ele>
        <time>2021-08-08T14:42:54Z</time>
      </trkpt>
      <trkpt lat="44.80852" lon="3.78565">
        <ele>918.3</ele>
        <time>2021-08-08T14:42:56Z</time>
      </trkpt>
      <trkpt lat="44.80851" lon="3.7856">
        <ele>918.3</ele>
        <time>2021-08-08T14:42:58Z</time>
      </trkpt>
      <trkpt lat="44.80849" lon="3.78556">
        <ele>918.4</ele>
        <time>2021-08-08T14:43:00Z</time>
      </trkpt>
      <trkpt lat="44.80849" lon="3.78551">
        <ele>918.2</ele>
        <time>2021-08-08T14:43:02Z</time>
      </trkpt>
      <trkpt lat="44.80848" lon="3.78546">
        <ele>918.1</ele>
        <time>2021-08-08T14:43:04Z</time>
      </trkpt>
      <trkpt lat="44.80846" lon="3.78541">
        <ele>918.2</ele>
        <time>2021-08-08T14:43:06Z</time>
      </trkpt>
      <trkpt lat="44.80845" lon="3.78537">
        <ele>918.2</ele>
        <time>2021-08-08T14:43:08Z</time>
      </trkpt>
      <trkpt lat="44.80842" lon="3.78533">
        <ele>918.4</ele>
        <time>2021-08-08T14:43:10Z</time>
      </trkpt>
      <trkpt lat="44.8084" lon="3.78527">
        <ele>918.5</ele>
        <time>2021-08-08T14:43:12Z</time>
      </trkpt>
      <trkpt lat="44.80837" lon="3.78522">
        <ele>918.6</ele>
        <time>2021-08-08T14:43:14Z</time>
      </trkpt>
      <trkpt lat="44.80834" lon="3.78518">
        <ele>919</ele>
        <time>2021-08-08T14:43:16Z</time>
      </trkpt>
      <trkpt lat="44.8083" lon="3.78513">
        <ele>919.2</ele>
        <time>2021-08-08T14:43:18Z</time>
      </trkpt>
      <trkpt lat="44.80826" lon="3.78509">
        <ele>919.6</ele>
        <time>2021-08-08T14:43:20Z</time>
      </trkpt>
      <trkpt lat="44.80821" lon="3.78505">
        <ele>920</ele>
        <time>2021-08-08T14:43:22Z</time>
      </trkpt>
      <trkpt lat="44.80816" lon="3.78501">
        <ele>920.5</ele>
        <time>2021-08-08T14:43:24Z</time>
      </trkpt>
      <trkpt lat="44.80811" lon="3.78496">
        <ele>920.7</ele>
        <time>2021-08-08T14:43:26Z</time>
      </trkpt>
      <trkpt lat="44.80806" lon="3.78492">
        <ele>921</ele>
        <time>2021-08-08T14:43:28Z</time>
      </trkpt>
      <trkpt lat="44.808" lon="3.78488">
        <ele>921.4</ele>
        <time>2021-08-08T14:43:30Z</time>
      </trkpt>
      <trkpt lat="44.80795" lon="3.78483">
        <ele>921.6</ele>
        <time>2021-08-08T14:43:32Z</time>
      </trkpt>
      <trkpt lat="44.80791" lon="3.7848">
        <ele>922</ele>
        <time>2021-08-08T14:43:34Z</time>
      </trkpt>
      <trkpt lat="44.80787" lon="3.78477">
        <ele>922.3</ele>
        <time>2021-08-08T14:43:36Z</time>
      </trkpt>
      <trkpt lat="44.80783" lon="3.78474">
        <ele>922.6</ele>
        <time>2021-08-08T14:43:38Z</time>
      </trkpt>
      <trkpt lat="44.80779" lon="3.78472">
        <ele>923</ele>
        <time>2021-08-08T14:43:40Z</time>
      </trkpt>
      <trkpt lat="44.80776" lon="3.7847">
        <ele>923.5</ele>
        <time>2021-08-08T14:43:42Z</time>
      </trkpt>
      <trkpt lat="44.80772" lon="3.78468">
        <ele>923.9</ele>
        <time>2021-08-08T14:43:44Z</time>
      </trkpt>
      <trkpt lat="44.80768" lon="3.78466">
        <ele>924.5</ele>
        <time>2021-08-08T14:43:46Z</time>
      </trkpt>
      <trkpt lat="44.80764" lon="3.78466">
        <ele>925.1</ele>
        <time>2021-08-08T14:43:48Z</time>
      </trkpt>
      <trkpt lat="44.8076" lon="3.78464">
        <ele>925.6</ele>
        <time>2021-08-08T14:43:50Z</time>
      </trkpt>
      <trkpt lat="44.80757" lon="3.78462">
        <ele>926.1</ele>
        <time>2021-08-08T14:43:52Z</time>
      </trkpt>
      <trkpt lat="44.80753" lon="3.78462">
        <ele>926.8</ele>
        <time>2021-08-08T14:43:54Z</time>
      </trkpt>
      <trkpt lat="44.80749" lon="3.78461">
        <ele>927.3</ele>
        <time>2021-08-08T14:43:56Z</time>
      </trkpt>
      <trkpt lat="44.80745" lon="3.78461">
        <ele>927.6</ele>
        <time>2021-08-08T14:43:58Z</time>
      </trkpt>
      <trkpt lat="44.80741" lon="3.78462">
        <ele>927.9</ele>
        <time>2021-08-08T14:44:00Z</time>
      </trkpt>
      <trkpt lat="44.80737" lon="3.78462">
        <ele>928.1</ele>
        <time>2021-08-08T14:44:02Z</time>
      </trkpt>
      <trkpt lat="44.80734" lon="3.78461">
        <ele>928.3</ele>
        <time>2021-08-08T14:44:04Z</time>
      </trkpt>
      <trkpt lat="44.8073" lon="3.78463">
        <ele>928.7</ele>
        <time>2021-08-08T14:44:06Z</time>
      </trkpt>
      <trkpt lat="44.80726" lon="3.78464">
        <ele>929</ele>
        <time>2021-08-08T14:44:08Z</time>
      </trkpt>
      <trkpt lat="44.80722" lon="3.78466">
        <ele>929.4</ele>
        <time>2021-08-08T14:44:10Z</time>
      </trkpt>
      <trkpt lat="44.80719" lon="3.78469">
        <ele>929.7</ele>
        <time>2021-08-08T14:44:12Z</time>
      </trkpt>
      <trkpt lat="44.80715" lon="3.78472">
        <ele>930.1</ele>
        <time>2021-08-08T14:44:14Z</time>
      </trkpt>
      <trkpt lat="44.80712" lon="3.78474">
        <ele>930.4</ele>
        <time>2021-08-08T14:44:16Z</time>
      </trkpt>
      <trkpt lat="44.80708" lon="3.78476">
        <ele>930.7</ele>
        <time>2021-08-08T14:44:18Z</time>
      </trkpt>
      <trkpt lat="44.80704" lon="3.78479">
        <ele>931</ele>
        <time>2021-08-08T14:44:20Z</time>
      </trkpt>
      <trkpt lat="44.80701" lon="3.78481">
        <ele>931.2</ele>
        <time>2021-08-08T14:44:22Z</time>
      </trkpt>
      <trkpt lat="44.80697" lon="3.78483">
        <ele>931.5</ele>
        <time>2021-08-08T14:44:24Z</time>
      </trkpt>
      <trkpt lat="44.80693" lon="3.78485">
        <ele>931.7</ele>
        <time>2021-08-08T14:44:26Z</time>
      </trkpt>
      <trkpt lat="44.8069" lon="3.78488">
        <ele>931.9</ele>
        <time>2021-08-08T14:44:28Z</time>
      </trkpt>
      <trkpt lat="44.80686" lon="3.7849">
        <ele>932.1</ele>
        <time>2021-08-08T14:44:30Z</time>
      </trkpt>
      <trkpt lat="44.80682" lon="3.78492">
        <ele>932.3</ele>
        <time>2021-08-08T14:44:32Z</time>
      </trkpt>
      <trkpt lat="44.80679" lon="3.78494">
        <ele>932.5</ele>
        <time>2021-08-08T14:44:34Z</time>
      </trkpt>
      <trkpt lat="44.80674" lon="3.78496">
        <ele>932.7</ele>
        <time>2021-08-08T14:44:36Z</time>
      </trkpt>
      <trkpt lat="44.8067" lon="3.78497">
        <ele>932.9</ele>
        <time>2021-08-08T14:44:38Z</time>
      </trkpt>
      <trkpt lat="44.80665" lon="3.78499">
        <ele>933</ele>
        <time>2021-08-08T14:44:40Z</time>
      </trkpt>
      <trkpt lat="44.8066" lon="3.78499">
        <ele>932.9</ele>
        <time>2021-08-08T14:44:42Z</time>
      </trkpt>
      <trkpt lat="44.80656" lon="3.78499">
        <ele>932.9</ele>
        <time>2021-08-08T14:44:44Z</time>
      </trkpt>
      <trkpt lat="44.80653" lon="3.78501">
        <ele>932.8</ele>
        <time>2021-08-08T14:44:46Z</time>
      </trkpt>
      <trkpt lat="44.8065" lon="3.78501">
        <ele>932.8</ele>
        <time>2021-08-08T14:44:48Z</time>
      </trkpt>
      <trkpt lat="44.80648" lon="3.785">
        <ele>932.8</ele>
        <time>2021-08-08T14:44:50Z</time>
      </trkpt>
      <trkpt lat="44.80648" lon="3.78499">
        <ele>932.8</ele>
        <time>2021-08-08T14:44:52Z</time>
      </trkpt>
      <trkpt lat="44.80648" lon="3.78499">
        <ele>932.8</ele>
        <time>2021-08-08T14:44:54Z</time>
      </trkpt>
      <trkpt lat="44.80648" lon="3.78499">
        <ele>932.8</ele>
        <time>2021-08-08T14:44:56Z</time>
      </trkpt>
      <trkpt lat="44.80648" lon="3.78499">
        <ele>932.8</ele>
        <time>2021-08-08T14:44:58Z</time>
      </trkpt>
      <trkpt lat="44.80633" lon="3.78499">
        <ele>932.6</ele>
        <time>2021-08-08T14:45:24Z</time>
      </trkpt>
      <trkpt lat="44.80627" lon="3.78498">
        <ele>932.5</ele>
        <time>2021-08-08T14:45:26Z</time>
      </trkpt>
      <trkpt lat="44.80621" lon="3.78498">
        <ele>932.5</ele>
        <time>2021-08-08T14:45:28Z</time>
      </trkpt>
      <trkpt lat="44.80614" lon="3.78498">
        <ele>932.4</ele>
        <time>2021-08-08T14:45:30Z</time>
      </trkpt>
      <trkpt lat="44.80607" lon="3.78496">
        <ele>932.3</ele>
        <time>2021-08-08T14:45:32Z</time>
      </trkpt>
      <trkpt lat="44.806" lon="3.78495">
        <ele>932.2</ele>
        <time>2021-08-08T14:45:34Z</time>
      </trkpt>
      <trkpt lat="44.80592" lon="3.78494">
        <ele>932.2</ele>
        <time>2021-08-08T14:45:36Z</time>
      </trkpt>
      <trkpt lat="44.80584" lon="3.78492">
        <ele>932.1</ele>
        <time>2021-08-08T14:45:38Z</time>
      </trkpt>
      <trkpt lat="44.80577" lon="3.7849">
        <ele>932.2</ele>
        <time>2021-08-08T14:45:40Z</time>
      </trkpt>
      <trkpt lat="44.80568" lon="3.78488">
        <ele>932.3</ele>
        <time>2021-08-08T14:45:42Z</time>
      </trkpt>
      <trkpt lat="44.8056" lon="3.78484">
        <ele>932.4</ele>
        <time>2021-08-08T14:45:44Z</time>
      </trkpt>
      <trkpt lat="44.80552" lon="3.78482">
        <ele>932.4</ele>
        <time>2021-08-08T14:45:46Z</time>
      </trkpt>
      <trkpt lat="44.80544" lon="3.78479">
        <ele>932.5</ele>
        <time>2021-08-08T14:45:48Z</time>
      </trkpt>
      <trkpt lat="44.80536" lon="3.78476">
        <ele>932.5</ele>
        <time>2021-08-08T14:45:50Z</time>
      </trkpt>
      <trkpt lat="44.80528" lon="3.78471">
        <ele>932.5</ele>
        <time>2021-08-08T14:45:52Z</time>
      </trkpt>
      <trkpt lat="44.80521" lon="3.78466">
        <ele>932.5</ele>
        <time>2021-08-08T14:45:54Z</time>
      </trkpt>
      <trkpt lat="44.80513" lon="3.7846">
        <ele>932.5</ele>
        <time>2021-08-08T14:45:56Z</time>
      </trkpt>
      <trkpt lat="44.80505" lon="3.78453">
        <ele>932.4</ele>
        <time>2021-08-08T14:45:58Z</time>
      </trkpt>
      <trkpt lat="44.80498" lon="3.78447">
        <ele>932.4</ele>
        <time>2021-08-08T14:46:00Z</time>
      </trkpt>
      <trkpt lat="44.8049" lon="3.7844">
        <ele>932.3</ele>
        <time>2021-08-08T14:46:02Z</time>
      </trkpt>
      <trkpt lat="44.80483" lon="3.78434">
        <ele>932.2</ele>
        <time>2021-08-08T14:46:04Z</time>
      </trkpt>
      <trkpt lat="44.80476" lon="3.78426">
        <ele>932.1</ele>
        <time>2021-08-08T14:46:06Z</time>
      </trkpt>
      <trkpt lat="44.80468" lon="3.78419">
        <ele>932</ele>
        <time>2021-08-08T14:46:08Z</time>
      </trkpt>
      <trkpt lat="44.80461" lon="3.78412">
        <ele>931.9</ele>
        <time>2021-08-08T14:46:10Z</time>
      </trkpt>
      <trkpt lat="44.80453" lon="3.78405">
        <ele>931.7</ele>
        <time>2021-08-08T14:46:12Z</time>
      </trkpt>
      <trkpt lat="44.80444" lon="3.78401">
        <ele>931.7</ele>
        <time>2021-08-08T14:46:14Z</time>
      </trkpt>
      <trkpt lat="44.80436" lon="3.784">
        <ele>931.7</ele>
        <time>2021-08-08T14:46:16Z</time>
      </trkpt>
      <trkpt lat="44.80427" lon="3.78404">
        <ele>931.8</ele>
        <time>2021-08-08T14:46:18Z</time>
      </trkpt>
      <trkpt lat="44.80419" lon="3.78407">
        <ele>931.9</ele>
        <time>2021-08-08T14:46:20Z</time>
      </trkpt>
      <trkpt lat="44.80411" lon="3.78411">
        <ele>931.9</ele>
        <time>2021-08-08T14:46:22Z</time>
      </trkpt>
      <trkpt lat="44.80402" lon="3.78416">
        <ele>932</ele>
        <time>2021-08-08T14:46:24Z</time>
      </trkpt>
      <trkpt lat="44.80394" lon="3.7842">
        <ele>932</ele>
        <time>2021-08-08T14:46:26Z</time>
      </trkpt>
      <trkpt lat="44.80385" lon="3.78421">
        <ele>932</ele>
        <time>2021-08-08T14:46:28Z</time>
      </trkpt>
      <trkpt lat="44.80377" lon="3.78418">
        <ele>932</ele>
        <time>2021-08-08T14:46:30Z</time>
      </trkpt>
      <trkpt lat="44.80369" lon="3.78416">
        <ele>932</ele>
        <time>2021-08-08T14:46:32Z</time>
      </trkpt>
      <trkpt lat="44.80361" lon="3.78414">
        <ele>932</ele>
        <time>2021-08-08T14:46:34Z</time>
      </trkpt>
      <trkpt lat="44.80353" lon="3.78411">
        <ele>931.9</ele>
        <time>2021-08-08T14:46:36Z</time>
      </trkpt>
      <trkpt lat="44.80344" lon="3.78408">
        <ele>931.9</ele>
        <time>2021-08-08T14:46:38Z</time>
      </trkpt>
      <trkpt lat="44.80335" lon="3.78405">
        <ele>931.9</ele>
        <time>2021-08-08T14:46:40Z</time>
      </trkpt>
      <trkpt lat="44.80326" lon="3.78403">
        <ele>931.6</ele>
        <time>2021-08-08T14:46:42Z</time>
      </trkpt>
      <trkpt lat="44.80317" lon="3.784">
        <ele>931.3</ele>
        <time>2021-08-08T14:46:44Z</time>
      </trkpt>
      <trkpt lat="44.80307" lon="3.78399">
        <ele>931</ele>
        <time>2021-08-08T14:46:46Z</time>
      </trkpt>
      <trkpt lat="44.80297" lon="3.784">
        <ele>930.7</ele>
        <time>2021-08-08T14:46:48Z</time>
      </trkpt>
      <trkpt lat="44.80286" lon="3.78402">
        <ele>930.3</ele>
        <time>2021-08-08T14:46:50Z</time>
      </trkpt>
      <trkpt lat="44.80274" lon="3.78404">
        <ele>929.9</ele>
        <time>2021-08-08T14:46:52Z</time>
      </trkpt>
      <trkpt lat="44.80262" lon="3.78407">
        <ele>929.5</ele>
        <time>2021-08-08T14:46:54Z</time>
      </trkpt>
      <trkpt lat="44.8025" lon="3.78409">
        <ele>929.1</ele>
        <time>2021-08-08T14:46:56Z</time>
      </trkpt>
      <trkpt lat="44.80238" lon="3.78412">
        <ele>928.4</ele>
        <time>2021-08-08T14:46:58Z</time>
      </trkpt>
      <trkpt lat="44.80226" lon="3.78416">
        <ele>927.8</ele>
        <time>2021-08-08T14:47:00Z</time>
      </trkpt>
      <trkpt lat="44.80214" lon="3.78421">
        <ele>927.3</ele>
        <time>2021-08-08T14:47:02Z</time>
      </trkpt>
      <trkpt lat="44.80201" lon="3.78427">
        <ele>926.7</ele>
        <time>2021-08-08T14:47:04Z</time>
      </trkpt>
      <trkpt lat="44.80189" lon="3.78434">
        <ele>926.1</ele>
        <time>2021-08-08T14:47:06Z</time>
      </trkpt>
      <trkpt lat="44.80177" lon="3.78441">
        <ele>925.5</ele>
        <time>2021-08-08T14:47:08Z</time>
      </trkpt>
      <trkpt lat="44.80167" lon="3.78447">
        <ele>925</ele>
        <time>2021-08-08T14:47:10Z</time>
      </trkpt>
      <trkpt lat="44.80158" lon="3.78453">
        <ele>924.6</ele>
        <time>2021-08-08T14:47:12Z</time>
      </trkpt>
      <trkpt lat="44.8015" lon="3.78463">
        <ele>924.3</ele>
        <time>2021-08-08T14:47:14Z</time>
      </trkpt>
      <trkpt lat="44.80145" lon="3.78475">
        <ele>924.2</ele>
        <time>2021-08-08T14:47:16Z</time>
      </trkpt>
      <trkpt lat="44.80142" lon="3.78488">
        <ele>924.3</ele>
        <time>2021-08-08T14:47:18Z</time>
      </trkpt>
      <trkpt lat="44.80139" lon="3.78502">
        <ele>924.4</ele>
        <time>2021-08-08T14:47:20Z</time>
      </trkpt>
      <trkpt lat="44.80137" lon="3.78516">
        <ele>924.5</ele>
        <time>2021-08-08T14:47:22Z</time>
      </trkpt>
      <trkpt lat="44.80135" lon="3.7853">
        <ele>924.6</ele>
        <time>2021-08-08T14:47:24Z</time>
      </trkpt>
      <trkpt lat="44.80132" lon="3.78544">
        <ele>924.8</ele>
        <time>2021-08-08T14:47:26Z</time>
      </trkpt>
      <trkpt lat="44.80129" lon="3.78557">
        <ele>925</ele>
        <time>2021-08-08T14:47:28Z</time>
      </trkpt>
      <trkpt lat="44.80125" lon="3.78569">
        <ele>925.2</ele>
        <time>2021-08-08T14:47:30Z</time>
      </trkpt>
      <trkpt lat="44.80121" lon="3.7858">
        <ele>925.5</ele>
        <time>2021-08-08T14:47:32Z</time>
      </trkpt>
      <trkpt lat="44.80118" lon="3.78593">
        <ele>925.9</ele>
        <time>2021-08-08T14:47:34Z</time>
      </trkpt>
      <trkpt lat="44.80114" lon="3.78604">
        <ele>926.2</ele>
        <time>2021-08-08T14:47:36Z</time>
      </trkpt>
      <trkpt lat="44.8011" lon="3.78616">
        <ele>926.6</ele>
        <time>2021-08-08T14:47:38Z</time>
      </trkpt>
      <trkpt lat="44.80107" lon="3.78628">
        <ele>926.9</ele>
        <time>2021-08-08T14:47:40Z</time>
      </trkpt>
      <trkpt lat="44.80105" lon="3.78639">
        <ele>927.3</ele>
        <time>2021-08-08T14:47:42Z</time>
      </trkpt>
      <trkpt lat="44.80103" lon="3.78651">
        <ele>927.6</ele>
        <time>2021-08-08T14:47:44Z</time>
      </trkpt>
      <trkpt lat="44.80101" lon="3.78663">
        <ele>927.9</ele>
        <time>2021-08-08T14:47:46Z</time>
      </trkpt>
      <trkpt lat="44.80099" lon="3.78674">
        <ele>928.1</ele>
        <time>2021-08-08T14:47:48Z</time>
      </trkpt>
      <trkpt lat="44.80097" lon="3.78685">
        <ele>928.3</ele>
        <time>2021-08-08T14:47:50Z</time>
      </trkpt>
      <trkpt lat="44.80096" lon="3.78696">
        <ele>928.5</ele>
        <time>2021-08-08T14:47:52Z</time>
      </trkpt>
      <trkpt lat="44.80094" lon="3.78706">
        <ele>928.6</ele>
        <time>2021-08-08T14:47:54Z</time>
      </trkpt>
      <trkpt lat="44.80092" lon="3.78716">
        <ele>928.7</ele>
        <time>2021-08-08T14:47:56Z</time>
      </trkpt>
      <trkpt lat="44.8009" lon="3.78726">
        <ele>928.8</ele>
        <time>2021-08-08T14:47:58Z</time>
      </trkpt>
      <trkpt lat="44.80089" lon="3.78735">
        <ele>928.9</ele>
        <time>2021-08-08T14:48:00Z</time>
      </trkpt>
      <trkpt lat="44.80087" lon="3.78744">
        <ele>929</ele>
        <time>2021-08-08T14:48:02Z</time>
      </trkpt>
      <trkpt lat="44.80085" lon="3.78753">
        <ele>929.1</ele>
        <time>2021-08-08T14:48:04Z</time>
      </trkpt>
      <trkpt lat="44.80084" lon="3.78762">
        <ele>929.1</ele>
        <time>2021-08-08T14:48:06Z</time>
      </trkpt>
      <trkpt lat="44.80082" lon="3.7877">
        <ele>929.3</ele>
        <time>2021-08-08T14:48:08Z</time>
      </trkpt>
      <trkpt lat="44.80081" lon="3.78779">
        <ele>929.5</ele>
        <time>2021-08-08T14:48:10Z</time>
      </trkpt>
      <trkpt lat="44.8008" lon="3.78788">
        <ele>929.6</ele>
        <time>2021-08-08T14:48:12Z</time>
      </trkpt>
      <trkpt lat="44.80078" lon="3.78797">
        <ele>929.8</ele>
        <time>2021-08-08T14:48:14Z</time>
      </trkpt>
      <trkpt lat="44.80077" lon="3.78806">
        <ele>930</ele>
        <time>2021-08-08T14:48:16Z</time>
      </trkpt>
      <trkpt lat="44.80075" lon="3.78814">
        <ele>930.1</ele>
        <time>2021-08-08T14:48:18Z</time>
      </trkpt>
      <trkpt lat="44.80074" lon="3.78823">
        <ele>930.3</ele>
        <time>2021-08-08T14:48:20Z</time>
      </trkpt>
      <trkpt lat="44.80072" lon="3.78831">
        <ele>930.5</ele>
        <time>2021-08-08T14:48:22Z</time>
      </trkpt>
      <trkpt lat="44.80071" lon="3.7884">
        <ele>930.7</ele>
        <time>2021-08-08T14:48:24Z</time>
      </trkpt>
      <trkpt lat="44.8007" lon="3.78849">
        <ele>930.9</ele>
        <time>2021-08-08T14:48:26Z</time>
      </trkpt>
      <trkpt lat="44.80069" lon="3.78857">
        <ele>931.1</ele>
        <time>2021-08-08T14:48:28Z</time>
      </trkpt>
      <trkpt lat="44.80067" lon="3.78866">
        <ele>931.3</ele>
        <time>2021-08-08T14:48:30Z</time>
      </trkpt>
      <trkpt lat="44.80066" lon="3.78875">
        <ele>931.5</ele>
        <time>2021-08-08T14:48:32Z</time>
      </trkpt>
      <trkpt lat="44.80065" lon="3.78883">
        <ele>931.7</ele>
        <time>2021-08-08T14:48:34Z</time>
      </trkpt>
      <trkpt lat="44.80065" lon="3.78892">
        <ele>931.8</ele>
        <time>2021-08-08T14:48:36Z</time>
      </trkpt>
      <trkpt lat="44.80065" lon="3.78901">
        <ele>932</ele>
        <time>2021-08-08T14:48:38Z</time>
      </trkpt>
      <trkpt lat="44.80065" lon="3.78909">
        <ele>932.1</ele>
        <time>2021-08-08T14:48:40Z</time>
      </trkpt>
      <trkpt lat="44.80065" lon="3.78918">
        <ele>932.2</ele>
        <time>2021-08-08T14:48:42Z</time>
      </trkpt>
      <trkpt lat="44.80066" lon="3.78927">
        <ele>932.4</ele>
        <time>2021-08-08T14:48:44Z</time>
      </trkpt>
      <trkpt lat="44.80067" lon="3.78936">
        <ele>932.5</ele>
        <time>2021-08-08T14:48:46Z</time>
      </trkpt>
      <trkpt lat="44.80068" lon="3.78946">
        <ele>932.6</ele>
        <time>2021-08-08T14:48:48Z</time>
      </trkpt>
      <trkpt lat="44.80069" lon="3.78955">
        <ele>932.7</ele>
        <time>2021-08-08T14:48:50Z</time>
      </trkpt>
      <trkpt lat="44.8007" lon="3.78965">
        <ele>932.8</ele>
        <time>2021-08-08T14:48:52Z</time>
      </trkpt>
      <trkpt lat="44.80072" lon="3.78974">
        <ele>932.9</ele>
        <time>2021-08-08T14:48:54Z</time>
      </trkpt>
      <trkpt lat="44.80073" lon="3.78983">
        <ele>933</ele>
        <time>2021-08-08T14:48:56Z</time>
      </trkpt>
      <trkpt lat="44.80074" lon="3.78992">
        <ele>933.1</ele>
        <time>2021-08-08T14:48:58Z</time>
      </trkpt>
      <trkpt lat="44.80076" lon="3.79001">
        <ele>933.2</ele>
        <time>2021-08-08T14:49:00Z</time>
      </trkpt>
      <trkpt lat="44.80077" lon="3.7901">
        <ele>933.2</ele>
        <time>2021-08-08T14:49:02Z</time>
      </trkpt>
      <trkpt lat="44.80079" lon="3.79019">
        <ele>933.1</ele>
        <time>2021-08-08T14:49:04Z</time>
      </trkpt>
      <trkpt lat="44.8008" lon="3.79027">
        <ele>933.1</ele>
        <time>2021-08-08T14:49:06Z</time>
      </trkpt>
      <trkpt lat="44.80081" lon="3.79036">
        <ele>933.1</ele>
        <time>2021-08-08T14:49:08Z</time>
      </trkpt>
      <trkpt lat="44.80083" lon="3.79045">
        <ele>933</ele>
        <time>2021-08-08T14:49:10Z</time>
      </trkpt>
      <trkpt lat="44.80084" lon="3.79053">
        <ele>933</ele>
        <time>2021-08-08T14:49:12Z</time>
      </trkpt>
      <trkpt lat="44.80085" lon="3.79063">
        <ele>933.1</ele>
        <time>2021-08-08T14:49:14Z</time>
      </trkpt>
      <trkpt lat="44.80085" lon="3.79072">
        <ele>933.1</ele>
        <time>2021-08-08T14:49:16Z</time>
      </trkpt>
      <trkpt lat="44.80086" lon="3.79082">
        <ele>933.1</ele>
        <time>2021-08-08T14:49:18Z</time>
      </trkpt>
      <trkpt lat="44.80086" lon="3.79091">
        <ele>933.3</ele>
        <time>2021-08-08T14:49:20Z</time>
      </trkpt>
      <trkpt lat="44.80086" lon="3.79101">
        <ele>933.5</ele>
        <time>2021-08-08T14:49:22Z</time>
      </trkpt>
      <trkpt lat="44.80085" lon="3.7911">
        <ele>933.7</ele>
        <time>2021-08-08T14:49:24Z</time>
      </trkpt>
      <trkpt lat="44.80085" lon="3.79119">
        <ele>933.9</ele>
        <time>2021-08-08T14:49:26Z</time>
      </trkpt>
      <trkpt lat="44.80084" lon="3.79128">
        <ele>934.1</ele>
        <time>2021-08-08T14:49:28Z</time>
      </trkpt>
      <trkpt lat="44.80082" lon="3.79138">
        <ele>934.3</ele>
        <time>2021-08-08T14:49:30Z</time>
      </trkpt>
      <trkpt lat="44.8008" lon="3.79147">
        <ele>934.6</ele>
        <time>2021-08-08T14:49:32Z</time>
      </trkpt>
      <trkpt lat="44.80077" lon="3.79156">
        <ele>934.9</ele>
        <time>2021-08-08T14:49:34Z</time>
      </trkpt>
      <trkpt lat="44.80074" lon="3.79165">
        <ele>935.2</ele>
        <time>2021-08-08T14:49:36Z</time>
      </trkpt>
      <trkpt lat="44.80072" lon="3.79174">
        <ele>935.4</ele>
        <time>2021-08-08T14:49:38Z</time>
      </trkpt>
      <trkpt lat="44.80068" lon="3.79184">
        <ele>935.7</ele>
        <time>2021-08-08T14:49:40Z</time>
      </trkpt>
      <trkpt lat="44.80065" lon="3.79194">
        <ele>935.9</ele>
        <time>2021-08-08T14:49:42Z</time>
      </trkpt>
      <trkpt lat="44.80062" lon="3.79203">
        <ele>936.2</ele>
        <time>2021-08-08T14:49:44Z</time>
      </trkpt>
      <trkpt lat="44.80058" lon="3.79214">
        <ele>936.4</ele>
        <time>2021-08-08T14:49:46Z</time>
      </trkpt>
      <trkpt lat="44.80055" lon="3.79224">
        <ele>936.6</ele>
        <time>2021-08-08T14:49:48Z</time>
      </trkpt>
      <trkpt lat="44.80052" lon="3.79234">
        <ele>936.8</ele>
        <time>2021-08-08T14:49:50Z</time>
      </trkpt>
      <trkpt lat="44.80048" lon="3.79244">
        <ele>936.9</ele>
        <time>2021-08-08T14:49:52Z</time>
      </trkpt>
      <trkpt lat="44.80045" lon="3.79255">
        <ele>937</ele>
        <time>2021-08-08T14:49:54Z</time>
      </trkpt>
      <trkpt lat="44.80041" lon="3.79265">
        <ele>936.9</ele>
        <time>2021-08-08T14:49:56Z</time>
      </trkpt>
      <trkpt lat="44.80038" lon="3.79276">
        <ele>936.8</ele>
        <time>2021-08-08T14:49:58Z</time>
      </trkpt>
      <trkpt lat="44.80035" lon="3.79286">
        <ele>936.8</ele>
        <time>2021-08-08T14:50:00Z</time>
      </trkpt>
      <trkpt lat="44.80032" lon="3.79295">
        <ele>936.7</ele>
        <time>2021-08-08T14:50:02Z</time>
      </trkpt>
      <trkpt lat="44.80029" lon="3.79305">
        <ele>936.6</ele>
        <time>2021-08-08T14:50:04Z</time>
      </trkpt>
      <trkpt lat="44.80025" lon="3.79315">
        <ele>936.5</ele>
        <time>2021-08-08T14:50:06Z</time>
      </trkpt>
      <trkpt lat="44.80022" lon="3.79325">
        <ele>936.3</ele>
        <time>2021-08-08T14:50:08Z</time>
      </trkpt>
      <trkpt lat="44.80019" lon="3.79335">
        <ele>936.2</ele>
        <time>2021-08-08T14:50:10Z</time>
      </trkpt>
      <trkpt lat="44.80015" lon="3.79345">
        <ele>936.3</ele>
        <time>2021-08-08T14:50:12Z</time>
      </trkpt>
      <trkpt lat="44.80012" lon="3.79356">
        <ele>936.4</ele>
        <time>2021-08-08T14:50:14Z</time>
      </trkpt>
      <trkpt lat="44.80009" lon="3.79366">
        <ele>936.5</ele>
        <time>2021-08-08T14:50:16Z</time>
      </trkpt>
      <trkpt lat="44.80006" lon="3.79376">
        <ele>936.5</ele>
        <time>2021-08-08T14:50:18Z</time>
      </trkpt>
      <trkpt lat="44.80003" lon="3.79386">
        <ele>936.6</ele>
        <time>2021-08-08T14:50:20Z</time>
      </trkpt>
      <trkpt lat="44.79999" lon="3.79395">
        <ele>936.7</ele>
        <time>2021-08-08T14:50:22Z</time>
      </trkpt>
      <trkpt lat="44.79996" lon="3.79405">
        <ele>936.9</ele>
        <time>2021-08-08T14:50:24Z</time>
      </trkpt>
      <trkpt lat="44.79994" lon="3.79415">
        <ele>937</ele>
        <time>2021-08-08T14:50:26Z</time>
      </trkpt>
      <trkpt lat="44.79992" lon="3.79426">
        <ele>937.1</ele>
        <time>2021-08-08T14:50:28Z</time>
      </trkpt>
      <trkpt lat="44.79992" lon="3.79437">
        <ele>937.2</ele>
        <time>2021-08-08T14:50:30Z</time>
      </trkpt>
      <trkpt lat="44.79993" lon="3.79448">
        <ele>937.3</ele>
        <time>2021-08-08T14:50:32Z</time>
      </trkpt>
      <trkpt lat="44.79995" lon="3.7946">
        <ele>937.5</ele>
        <time>2021-08-08T14:50:34Z</time>
      </trkpt>
      <trkpt lat="44.79998" lon="3.79471">
        <ele>937.6</ele>
        <time>2021-08-08T14:50:36Z</time>
      </trkpt>
      <trkpt lat="44.80001" lon="3.79481">
        <ele>937.8</ele>
        <time>2021-08-08T14:50:38Z</time>
      </trkpt>
      <trkpt lat="44.80005" lon="3.79491">
        <ele>937.9</ele>
        <time>2021-08-08T14:50:40Z</time>
      </trkpt>
      <trkpt lat="44.80008" lon="3.79501">
        <ele>938</ele>
        <time>2021-08-08T14:50:42Z</time>
      </trkpt>
      <trkpt lat="44.80011" lon="3.79512">
        <ele>938.1</ele>
        <time>2021-08-08T14:50:44Z</time>
      </trkpt>
      <trkpt lat="44.80015" lon="3.79522">
        <ele>938.3</ele>
        <time>2021-08-08T14:50:46Z</time>
      </trkpt>
      <trkpt lat="44.80017" lon="3.79532">
        <ele>938.4</ele>
        <time>2021-08-08T14:50:48Z</time>
      </trkpt>
      <trkpt lat="44.80019" lon="3.79542">
        <ele>938.5</ele>
        <time>2021-08-08T14:50:50Z</time>
      </trkpt>
      <trkpt lat="44.80021" lon="3.79552">
        <ele>938.6</ele>
        <time>2021-08-08T14:50:52Z</time>
      </trkpt>
      <trkpt lat="44.80022" lon="3.79563">
        <ele>938.8</ele>
        <time>2021-08-08T14:50:54Z</time>
      </trkpt>
      <trkpt lat="44.80022" lon="3.79573">
        <ele>938.9</ele>
        <time>2021-08-08T14:50:56Z</time>
      </trkpt>
      <trkpt lat="44.80022" lon="3.79583">
        <ele>939</ele>
        <time>2021-08-08T14:50:58Z</time>
      </trkpt>
      <trkpt lat="44.80022" lon="3.79594">
        <ele>939.3</ele>
        <time>2021-08-08T14:51:00Z</time>
      </trkpt>
      <trkpt lat="44.80022" lon="3.79604">
        <ele>939.7</ele>
        <time>2021-08-08T14:51:02Z</time>
      </trkpt>
      <trkpt lat="44.80022" lon="3.79615">
        <ele>940</ele>
        <time>2021-08-08T14:51:04Z</time>
      </trkpt>
      <trkpt lat="44.80022" lon="3.79625">
        <ele>940.4</ele>
        <time>2021-08-08T14:51:06Z</time>
      </trkpt>
      <trkpt lat="44.80022" lon="3.79635">
        <ele>940.7</ele>
        <time>2021-08-08T14:51:08Z</time>
      </trkpt>
      <trkpt lat="44.80022" lon="3.79645">
        <ele>941</ele>
        <time>2021-08-08T14:51:10Z</time>
      </trkpt>
      <trkpt lat="44.80022" lon="3.79654">
        <ele>941.3</ele>
        <time>2021-08-08T14:51:12Z</time>
      </trkpt>
      <trkpt lat="44.80022" lon="3.79663">
        <ele>941.6</ele>
        <time>2021-08-08T14:51:14Z</time>
      </trkpt>
      <trkpt lat="44.80022" lon="3.79672">
        <ele>941.8</ele>
        <time>2021-08-08T14:51:16Z</time>
      </trkpt>
      <trkpt lat="44.80022" lon="3.79682">
        <ele>941.9</ele>
        <time>2021-08-08T14:51:18Z</time>
      </trkpt>
      <trkpt lat="44.80022" lon="3.79691">
        <ele>942</ele>
        <time>2021-08-08T14:51:20Z</time>
      </trkpt>
      <trkpt lat="44.80022" lon="3.79701">
        <ele>942.1</ele>
        <time>2021-08-08T14:51:22Z</time>
      </trkpt>
      <trkpt lat="44.80021" lon="3.7971">
        <ele>942.3</ele>
        <time>2021-08-08T14:51:24Z</time>
      </trkpt>
      <trkpt lat="44.80022" lon="3.79719">
        <ele>942.4</ele>
        <time>2021-08-08T14:51:26Z</time>
      </trkpt>
      <trkpt lat="44.80022" lon="3.79729">
        <ele>942.5</ele>
        <time>2021-08-08T14:51:28Z</time>
      </trkpt>
      <trkpt lat="44.80021" lon="3.79738">
        <ele>942.6</ele>
        <time>2021-08-08T14:51:30Z</time>
      </trkpt>
      <trkpt lat="44.80021" lon="3.79747">
        <ele>942.7</ele>
        <time>2021-08-08T14:51:32Z</time>
      </trkpt>
      <trkpt lat="44.80021" lon="3.79757">
        <ele>942.7</ele>
        <time>2021-08-08T14:51:34Z</time>
      </trkpt>
      <trkpt lat="44.80021" lon="3.79766">
        <ele>942.7</ele>
        <time>2021-08-08T14:51:36Z</time>
      </trkpt>
      <trkpt lat="44.80021" lon="3.79776">
        <ele>942.7</ele>
        <time>2021-08-08T14:51:38Z</time>
      </trkpt>
      <trkpt lat="44.80021" lon="3.79785">
        <ele>942.6</ele>
        <time>2021-08-08T14:51:40Z</time>
      </trkpt>
      <trkpt lat="44.80021" lon="3.79795">
        <ele>942.6</ele>
        <time>2021-08-08T14:51:42Z</time>
      </trkpt>
      <trkpt lat="44.80022" lon="3.79805">
        <ele>942.6</ele>
        <time>2021-08-08T14:51:44Z</time>
      </trkpt>
      <trkpt lat="44.80022" lon="3.79815">
        <ele>942.6</ele>
        <time>2021-08-08T14:51:46Z</time>
      </trkpt>
      <trkpt lat="44.80024" lon="3.79826">
        <ele>942.6</ele>
        <time>2021-08-08T14:51:48Z</time>
      </trkpt>
      <trkpt lat="44.80026" lon="3.79836">
        <ele>942.7</ele>
        <time>2021-08-08T14:51:50Z</time>
      </trkpt>
      <trkpt lat="44.80029" lon="3.79847">
        <ele>942.8</ele>
        <time>2021-08-08T14:51:52Z</time>
      </trkpt>
      <trkpt lat="44.80032" lon="3.79857">
        <ele>943</ele>
        <time>2021-08-08T14:51:54Z</time>
      </trkpt>
      <trkpt lat="44.80035" lon="3.79868">
        <ele>943.2</ele>
        <time>2021-08-08T14:51:56Z</time>
      </trkpt>
      <trkpt lat="44.80038" lon="3.79878">
        <ele>943.4</ele>
        <time>2021-08-08T14:51:58Z</time>
      </trkpt>
      <trkpt lat="44.80041" lon="3.79888">
        <ele>943.6</ele>
        <time>2021-08-08T14:52:00Z</time>
      </trkpt>
      <trkpt lat="44.80044" lon="3.79899">
        <ele>943.9</ele>
        <time>2021-08-08T14:52:02Z</time>
      </trkpt>
      <trkpt lat="44.80047" lon="3.79911">
        <ele>944.2</ele>
        <time>2021-08-08T14:52:04Z</time>
      </trkpt>
      <trkpt lat="44.80048" lon="3.79924">
        <ele>944.4</ele>
        <time>2021-08-08T14:52:06Z</time>
      </trkpt>
      <trkpt lat="44.80045" lon="3.79937">
        <ele>944.6</ele>
        <time>2021-08-08T14:52:08Z</time>
      </trkpt>
      <trkpt lat="44.8004" lon="3.79949">
        <ele>944.7</ele>
        <time>2021-08-08T14:52:10Z</time>
      </trkpt>
      <trkpt lat="44.80032" lon="3.79958">
        <ele>944.6</ele>
        <time>2021-08-08T14:52:12Z</time>
      </trkpt>
      <trkpt lat="44.80023" lon="3.79964">
        <ele>944.5</ele>
        <time>2021-08-08T14:52:14Z</time>
      </trkpt>
      <trkpt lat="44.80012" lon="3.79968">
        <ele>944.3</ele>
        <time>2021-08-08T14:52:16Z</time>
      </trkpt>
      <trkpt lat="44.80001" lon="3.79967">
        <ele>943.9</ele>
        <time>2021-08-08T14:52:18Z</time>
      </trkpt>
      <trkpt lat="44.79991" lon="3.79965">
        <ele>943.7</ele>
        <time>2021-08-08T14:52:20Z</time>
      </trkpt>
      <trkpt lat="44.79979" lon="3.79963">
        <ele>943.6</ele>
        <time>2021-08-08T14:52:22Z</time>
      </trkpt>
      <trkpt lat="44.79968" lon="3.7996">
        <ele>943.4</ele>
        <time>2021-08-08T14:52:24Z</time>
      </trkpt>
      <trkpt lat="44.79956" lon="3.79957">
        <ele>943.2</ele>
        <time>2021-08-08T14:52:26Z</time>
      </trkpt>
      <trkpt lat="44.79943" lon="3.79952">
        <ele>942.9</ele>
        <time>2021-08-08T14:52:28Z</time>
      </trkpt>
      <trkpt lat="44.7993" lon="3.79946">
        <ele>942.5</ele>
        <time>2021-08-08T14:52:30Z</time>
      </trkpt>
      <trkpt lat="44.79918" lon="3.79937">
        <ele>942</ele>
        <time>2021-08-08T14:52:32Z</time>
      </trkpt>
      <trkpt lat="44.79905" lon="3.79928">
        <ele>941.1</ele>
        <time>2021-08-08T14:52:34Z</time>
      </trkpt>
      <trkpt lat="44.79893" lon="3.79918">
        <ele>940.2</ele>
        <time>2021-08-08T14:52:36Z</time>
      </trkpt>
      <trkpt lat="44.79881" lon="3.79909">
        <ele>939.2</ele>
        <time>2021-08-08T14:52:38Z</time>
      </trkpt>
      <trkpt lat="44.79867" lon="3.79902">
        <ele>938.1</ele>
        <time>2021-08-08T14:52:40Z</time>
      </trkpt>
      <trkpt lat="44.79853" lon="3.79901">
        <ele>937.3</ele>
        <time>2021-08-08T14:52:42Z</time>
      </trkpt>
      <trkpt lat="44.79837" lon="3.79901">
        <ele>936.6</ele>
        <time>2021-08-08T14:52:44Z</time>
      </trkpt>
      <trkpt lat="44.7982" lon="3.799">
        <ele>935.7</ele>
        <time>2021-08-08T14:52:46Z</time>
      </trkpt>
      <trkpt lat="44.79802" lon="3.79896">
        <ele>934.5</ele>
        <time>2021-08-08T14:52:48Z</time>
      </trkpt>
      <trkpt lat="44.79784" lon="3.79893">
        <ele>933.2</ele>
        <time>2021-08-08T14:52:50Z</time>
      </trkpt>
      <trkpt lat="44.79765" lon="3.7989">
        <ele>931.9</ele>
        <time>2021-08-08T14:52:52Z</time>
      </trkpt>
      <trkpt lat="44.79745" lon="3.79886">
        <ele>930.6</ele>
        <time>2021-08-08T14:52:54Z</time>
      </trkpt>
      <trkpt lat="44.79724" lon="3.79884">
        <ele>930</ele>
        <time>2021-08-08T14:52:56Z</time>
      </trkpt>
      <trkpt lat="44.79704" lon="3.79884">
        <ele>929.6</ele>
        <time>2021-08-08T14:52:58Z</time>
      </trkpt>
      <trkpt lat="44.79683" lon="3.79885">
        <ele>929.2</ele>
        <time>2021-08-08T14:53:00Z</time>
      </trkpt>
      <trkpt lat="44.79661" lon="3.79885">
        <ele>928.5</ele>
        <time>2021-08-08T14:53:02Z</time>
      </trkpt>
      <trkpt lat="44.79639" lon="3.79886">
        <ele>927.3</ele>
        <time>2021-08-08T14:53:04Z</time>
      </trkpt>
      <trkpt lat="44.79618" lon="3.79889">
        <ele>926</ele>
        <time>2021-08-08T14:53:06Z</time>
      </trkpt>
      <trkpt lat="44.79595" lon="3.79892">
        <ele>924.9</ele>
        <time>2021-08-08T14:53:08Z</time>
      </trkpt>
      <trkpt lat="44.79573" lon="3.799">
        <ele>923.7</ele>
        <time>2021-08-08T14:53:10Z</time>
      </trkpt>
      <trkpt lat="44.79551" lon="3.79912">
        <ele>922.9</ele>
        <time>2021-08-08T14:53:12Z</time>
      </trkpt>
      <trkpt lat="44.79528" lon="3.79925">
        <ele>921.8</ele>
        <time>2021-08-08T14:53:14Z</time>
      </trkpt>
      <trkpt lat="44.79506" lon="3.79938">
        <ele>920.4</ele>
        <time>2021-08-08T14:53:16Z</time>
      </trkpt>
      <trkpt lat="44.79484" lon="3.79946">
        <ele>919.7</ele>
        <time>2021-08-08T14:53:18Z</time>
      </trkpt>
      <trkpt lat="44.79462" lon="3.79953">
        <ele>919.3</ele>
        <time>2021-08-08T14:53:20Z</time>
      </trkpt>
      <trkpt lat="44.79441" lon="3.79959">
        <ele>918.9</ele>
        <time>2021-08-08T14:53:22Z</time>
      </trkpt>
      <trkpt lat="44.79421" lon="3.79963">
        <ele>918.6</ele>
        <time>2021-08-08T14:53:24Z</time>
      </trkpt>
      <trkpt lat="44.79403" lon="3.79967">
        <ele>918.8</ele>
        <time>2021-08-08T14:53:26Z</time>
      </trkpt>
      <trkpt lat="44.79385" lon="3.79971">
        <ele>919.1</ele>
        <time>2021-08-08T14:53:28Z</time>
      </trkpt>
      <trkpt lat="44.7937" lon="3.79976">
        <ele>919.5</ele>
        <time>2021-08-08T14:53:30Z</time>
      </trkpt>
      <trkpt lat="44.79357" lon="3.79982">
        <ele>919.9</ele>
        <time>2021-08-08T14:53:32Z</time>
      </trkpt>
      <trkpt lat="44.79344" lon="3.79989">
        <ele>920.4</ele>
        <time>2021-08-08T14:53:34Z</time>
      </trkpt>
      <trkpt lat="44.79333" lon="3.79994">
        <ele>920.8</ele>
        <time>2021-08-08T14:53:36Z</time>
      </trkpt>
      <trkpt lat="44.79323" lon="3.80001">
        <ele>921</ele>
        <time>2021-08-08T14:53:38Z</time>
      </trkpt>
      <trkpt lat="44.79314" lon="3.80006">
        <ele>921.2</ele>
        <time>2021-08-08T14:53:40Z</time>
      </trkpt>
      <trkpt lat="44.79306" lon="3.8001">
        <ele>921.3</ele>
        <time>2021-08-08T14:53:42Z</time>
      </trkpt>
      <trkpt lat="44.793" lon="3.80015">
        <ele>921.5</ele>
        <time>2021-08-08T14:53:44Z</time>
      </trkpt>
      <trkpt lat="44.79292" lon="3.80017">
        <ele>921.5</ele>
        <time>2021-08-08T14:53:46Z</time>
      </trkpt>
      <trkpt lat="44.79286" lon="3.8002">
        <ele>921.6</ele>
        <time>2021-08-08T14:53:48Z</time>
      </trkpt>
      <trkpt lat="44.79279" lon="3.80017">
        <ele>921.5</ele>
        <time>2021-08-08T14:53:50Z</time>
      </trkpt>
      <trkpt lat="44.79273" lon="3.8001">
        <ele>921.3</ele>
        <time>2021-08-08T14:53:52Z</time>
      </trkpt>
      <trkpt lat="44.79266" lon="3.80004">
        <ele>921.1</ele>
        <time>2021-08-08T14:53:54Z</time>
      </trkpt>
      <trkpt lat="44.79259" lon="3.79998">
        <ele>921</ele>
        <time>2021-08-08T14:53:56Z</time>
      </trkpt>
      <trkpt lat="44.79253" lon="3.79992">
        <ele>921</ele>
        <time>2021-08-08T14:53:58Z</time>
      </trkpt>
      <trkpt lat="44.79245" lon="3.79986">
        <ele>920.6</ele>
        <time>2021-08-08T14:54:00Z</time>
      </trkpt>
      <trkpt lat="44.79237" lon="3.79978">
        <ele>919.9</ele>
        <time>2021-08-08T14:54:02Z</time>
      </trkpt>
      <trkpt lat="44.79232" lon="3.79965">
        <ele>919.3</ele>
        <time>2021-08-08T14:54:04Z</time>
      </trkpt>
      <trkpt lat="44.79228" lon="3.79952">
        <ele>918.8</ele>
        <time>2021-08-08T14:54:06Z</time>
      </trkpt>
      <trkpt lat="44.79224" lon="3.79939">
        <ele>918.2</ele>
        <time>2021-08-08T14:54:08Z</time>
      </trkpt>
      <trkpt lat="44.79219" lon="3.79933">
        <ele>917.5</ele>
        <time>2021-08-08T14:54:10Z</time>
      </trkpt>
      <trkpt lat="44.79214" lon="3.7993">
        <ele>916.9</ele>
        <time>2021-08-08T14:54:12Z</time>
      </trkpt>
      <trkpt lat="44.7921" lon="3.79928">
        <ele>916.5</ele>
        <time>2021-08-08T14:54:14Z</time>
      </trkpt>
      <trkpt lat="44.79208" lon="3.79927">
        <ele>916.2</ele>
        <time>2021-08-08T14:54:16Z</time>
      </trkpt>
      <trkpt lat="44.79208" lon="3.79925">
        <ele>916.1</ele>
        <time>2021-08-08T14:54:18Z</time>
      </trkpt>
      <trkpt lat="44.79208" lon="3.79926">
        <ele>916.2</ele>
        <time>2021-08-08T14:54:20Z</time>
      </trkpt>
      <trkpt lat="44.79208" lon="3.79926">
        <ele>916.2</ele>
        <time>2021-08-08T14:54:22Z</time>
      </trkpt>
      <trkpt lat="44.79208" lon="3.79926">
        <ele>916.1</ele>
        <time>2021-08-08T14:54:24Z</time>
      </trkpt>
      <trkpt lat="44.79228" lon="3.79946">
        <ele>918.7</ele>
        <time>2021-08-08T15:24:46Z</time>
      </trkpt>
      <trkpt lat="44.79226" lon="3.79941">
        <ele>918.5</ele>
        <time>2021-08-08T15:24:48Z</time>
      </trkpt>
      <trkpt lat="44.79224" lon="3.79937">
        <ele>918.2</ele>
        <time>2021-08-08T15:24:50Z</time>
      </trkpt>
      <trkpt lat="44.79221" lon="3.79933">
        <ele>917.8</ele>
        <time>2021-08-08T15:24:52Z</time>
      </trkpt>
      <trkpt lat="44.79218" lon="3.79929">
        <ele>917.3</ele>
        <time>2021-08-08T15:24:54Z</time>
      </trkpt>
      <trkpt lat="44.79212" lon="3.79927">
        <ele>916.6</ele>
        <time>2021-08-08T15:24:56Z</time>
      </trkpt>
      <trkpt lat="44.79205" lon="3.79926">
        <ele>915.9</ele>
        <time>2021-08-08T15:24:58Z</time>
      </trkpt>
      <trkpt lat="44.79199" lon="3.79929">
        <ele>915.2</ele>
        <time>2021-08-08T15:25:00Z</time>
      </trkpt>
      <trkpt lat="44.79193" lon="3.79937">
        <ele>914.8</ele>
        <time>2021-08-08T15:25:02Z</time>
      </trkpt>
      <trkpt lat="44.79188" lon="3.79947">
        <ele>914.7</ele>
        <time>2021-08-08T15:25:04Z</time>
      </trkpt>
      <trkpt lat="44.79184" lon="3.79957">
        <ele>914.7</ele>
        <time>2021-08-08T15:25:06Z</time>
      </trkpt>
      <trkpt lat="44.79181" lon="3.79967">
        <ele>914.7</ele>
        <time>2021-08-08T15:25:08Z</time>
      </trkpt>
      <trkpt lat="44.79177" lon="3.79978">
        <ele>914.8</ele>
        <time>2021-08-08T15:25:10Z</time>
      </trkpt>
      <trkpt lat="44.79174" lon="3.7999">
        <ele>915.1</ele>
        <time>2021-08-08T15:25:12Z</time>
      </trkpt>
      <trkpt lat="44.79171" lon="3.80001">
        <ele>915.4</ele>
        <time>2021-08-08T15:25:14Z</time>
      </trkpt>
      <trkpt lat="44.79167" lon="3.8001">
        <ele>915.3</ele>
        <time>2021-08-08T15:25:16Z</time>
      </trkpt>
      <trkpt lat="44.79161" lon="3.80007">
        <ele>915</ele>
        <time>2021-08-08T15:25:18Z</time>
      </trkpt>
      <trkpt lat="44.79162" lon="3.79998">
        <ele>914.7</ele>
        <time>2021-08-08T15:25:20Z</time>
      </trkpt>
      <trkpt lat="44.79165" lon="3.79991">
        <ele>914.5</ele>
        <time>2021-08-08T15:25:22Z</time>
      </trkpt>
      <trkpt lat="44.79167" lon="3.79983">
        <ele>914.2</ele>
        <time>2021-08-08T15:25:24Z</time>
      </trkpt>
      <trkpt lat="44.79168" lon="3.79972">
        <ele>913.8</ele>
        <time>2021-08-08T15:25:26Z</time>
      </trkpt>
      <trkpt lat="44.7917" lon="3.79961">
        <ele>913.4</ele>
        <time>2021-08-08T15:25:28Z</time>
      </trkpt>
      <trkpt lat="44.79171" lon="3.79948">
        <ele>913</ele>
        <time>2021-08-08T15:25:30Z</time>
      </trkpt>
      <trkpt lat="44.79173" lon="3.79933">
        <ele>912.5</ele>
        <time>2021-08-08T15:25:32Z</time>
      </trkpt>
      <trkpt lat="44.79175" lon="3.79917">
        <ele>912.1</ele>
        <time>2021-08-08T15:25:34Z</time>
      </trkpt>
      <trkpt lat="44.79178" lon="3.79901">
        <ele>911.5</ele>
        <time>2021-08-08T15:25:36Z</time>
      </trkpt>
      <trkpt lat="44.79178" lon="3.79883">
        <ele>910.7</ele>
        <time>2021-08-08T15:25:38Z</time>
      </trkpt>
      <trkpt lat="44.79177" lon="3.79864">
        <ele>909.6</ele>
        <time>2021-08-08T15:25:40Z</time>
      </trkpt>
      <trkpt lat="44.79172" lon="3.79846">
        <ele>908.2</ele>
        <time>2021-08-08T15:25:42Z</time>
      </trkpt>
      <trkpt lat="44.79166" lon="3.79827">
        <ele>906.9</ele>
        <time>2021-08-08T15:25:44Z</time>
      </trkpt>
      <trkpt lat="44.7916" lon="3.79809">
        <ele>906.4</ele>
        <time>2021-08-08T15:25:46Z</time>
      </trkpt>
      <trkpt lat="44.79154" lon="3.7979">
        <ele>905.8</ele>
        <time>2021-08-08T15:25:48Z</time>
      </trkpt>
      <trkpt lat="44.79148" lon="3.7977">
        <ele>905.2</ele>
        <time>2021-08-08T15:25:50Z</time>
      </trkpt>
      <trkpt lat="44.79141" lon="3.7975">
        <ele>904.5</ele>
        <time>2021-08-08T15:25:52Z</time>
      </trkpt>
      <trkpt lat="44.79135" lon="3.79729">
        <ele>904</ele>
        <time>2021-08-08T15:25:54Z</time>
      </trkpt>
      <trkpt lat="44.79128" lon="3.7971">
        <ele>903.5</ele>
        <time>2021-08-08T15:25:56Z</time>
      </trkpt>
      <trkpt lat="44.79122" lon="3.7969">
        <ele>902.9</ele>
        <time>2021-08-08T15:25:58Z</time>
      </trkpt>
      <trkpt lat="44.79116" lon="3.79671">
        <ele>902.1</ele>
        <time>2021-08-08T15:26:00Z</time>
      </trkpt>
      <trkpt lat="44.79106" lon="3.79654">
        <ele>901.5</ele>
        <time>2021-08-08T15:26:02Z</time>
      </trkpt>
      <trkpt lat="44.79094" lon="3.79642">
        <ele>900.8</ele>
        <time>2021-08-08T15:26:04Z</time>
      </trkpt>
      <trkpt lat="44.7908" lon="3.79636">
        <ele>899.6</ele>
        <time>2021-08-08T15:26:06Z</time>
      </trkpt>
      <trkpt lat="44.79066" lon="3.79631">
        <ele>897.8</ele>
        <time>2021-08-08T15:26:08Z</time>
      </trkpt>
      <trkpt lat="44.79052" lon="3.79626">
        <ele>896.1</ele>
        <time>2021-08-08T15:26:10Z</time>
      </trkpt>
      <trkpt lat="44.79038" lon="3.79622">
        <ele>894.4</ele>
        <time>2021-08-08T15:26:12Z</time>
      </trkpt>
      <trkpt lat="44.79026" lon="3.79618">
        <ele>893</ele>
        <time>2021-08-08T15:26:14Z</time>
      </trkpt>
      <trkpt lat="44.79014" lon="3.79615">
        <ele>891.6</ele>
        <time>2021-08-08T15:26:16Z</time>
      </trkpt>
      <trkpt lat="44.79003" lon="3.79609">
        <ele>890.5</ele>
        <time>2021-08-08T15:26:18Z</time>
      </trkpt>
      <trkpt lat="44.78994" lon="3.79603">
        <ele>889.2</ele>
        <time>2021-08-08T15:26:20Z</time>
      </trkpt>
      <trkpt lat="44.78989" lon="3.79592">
        <ele>888.6</ele>
        <time>2021-08-08T15:26:22Z</time>
      </trkpt>
      <trkpt lat="44.78985" lon="3.79583">
        <ele>888.1</ele>
        <time>2021-08-08T15:26:24Z</time>
      </trkpt>
      <trkpt lat="44.78981" lon="3.79572">
        <ele>887.2</ele>
        <time>2021-08-08T15:26:26Z</time>
      </trkpt>
      <trkpt lat="44.7898" lon="3.79562">
        <ele>886.7</ele>
        <time>2021-08-08T15:26:28Z</time>
      </trkpt>
      <trkpt lat="44.7898" lon="3.7955">
        <ele>886.6</ele>
        <time>2021-08-08T15:26:30Z</time>
      </trkpt>
      <trkpt lat="44.7898" lon="3.79541">
        <ele>886.5</ele>
        <time>2021-08-08T15:26:32Z</time>
      </trkpt>
      <trkpt lat="44.78981" lon="3.79533">
        <ele>886.7</ele>
        <time>2021-08-08T15:26:34Z</time>
      </trkpt>
      <trkpt lat="44.78981" lon="3.79527">
        <ele>886.8</ele>
        <time>2021-08-08T15:26:36Z</time>
      </trkpt>
      <trkpt lat="44.78981" lon="3.79526">
        <ele>886.8</ele>
        <time>2021-08-08T15:26:38Z</time>
      </trkpt>
      <trkpt lat="44.78981" lon="3.79526">
        <ele>886.8</ele>
        <time>2021-08-08T15:26:40Z</time>
      </trkpt>
      <trkpt lat="44.78981" lon="3.79526">
        <ele>886.8</ele>
        <time>2021-08-08T15:26:42Z</time>
      </trkpt>
      <trkpt lat="44.78981" lon="3.79526">
        <ele>886.7</ele>
        <time>2021-08-08T15:26:44Z</time>
      </trkpt>
      <trkpt lat="44.78981" lon="3.79526">
        <ele>886.7</ele>
        <time>2021-08-08T15:26:46Z</time>
      </trkpt>
      <trkpt lat="44.7898" lon="3.79525">
        <ele>886.5</ele>
        <time>2021-08-08T15:26:58Z</time>
      </trkpt>
      <trkpt lat="44.7898" lon="3.79525">
        <ele>886.5</ele>
        <time>2021-08-08T15:27:00Z</time>
      </trkpt>
      <trkpt lat="44.7898" lon="3.79525">
        <ele>886.5</ele>
        <time>2021-08-08T15:27:02Z</time>
      </trkpt>
      <trkpt lat="44.7898" lon="3.79524">
        <ele>886.5</ele>
        <time>2021-08-08T15:27:04Z</time>
      </trkpt>
      <trkpt lat="44.7898" lon="3.79518">
        <ele>886.3</ele>
        <time>2021-08-08T15:27:06Z</time>
      </trkpt>
      <trkpt lat="44.7898" lon="3.79511">
        <ele>886.4</ele>
        <time>2021-08-08T15:27:08Z</time>
      </trkpt>
      <trkpt lat="44.78981" lon="3.79502">
        <ele>886.5</ele>
        <time>2021-08-08T15:27:10Z</time>
      </trkpt>
      <trkpt lat="44.78983" lon="3.79494">
        <ele>886</ele>
        <time>2021-08-08T15:27:12Z</time>
      </trkpt>
      <trkpt lat="44.78985" lon="3.79486">
        <ele>885.6</ele>
        <time>2021-08-08T15:27:14Z</time>
      </trkpt>
      <trkpt lat="44.78987" lon="3.7948">
        <ele>885.1</ele>
        <time>2021-08-08T15:27:16Z</time>
      </trkpt>
      <trkpt lat="44.78987" lon="3.79478">
        <ele>884.9</ele>
        <time>2021-08-08T15:27:18Z</time>
      </trkpt>
      <trkpt lat="44.78985" lon="3.79478">
        <ele>884.5</ele>
        <time>2021-08-08T15:27:20Z</time>
      </trkpt>
      <trkpt lat="44.78984" lon="3.79478">
        <ele>884.2</ele>
        <time>2021-08-08T15:27:22Z</time>
      </trkpt>
      <trkpt lat="44.78983" lon="3.79479">
        <ele>884</ele>
        <time>2021-08-08T15:27:24Z</time>
      </trkpt>
      <trkpt lat="44.78983" lon="3.79479">
        <ele>884.1</ele>
        <time>2021-08-08T15:27:26Z</time>
      </trkpt>
      <trkpt lat="44.78996" lon="3.7946">
        <ele>885.2</ele>
        <time>2021-08-08T15:27:50Z</time>
      </trkpt>
      <trkpt lat="44.79001" lon="3.79449">
        <ele>885.2</ele>
        <time>2021-08-08T15:27:52Z</time>
      </trkpt>
      <trkpt lat="44.79007" lon="3.79437">
        <ele>884.8</ele>
        <time>2021-08-08T15:27:54Z</time>
      </trkpt>
      <trkpt lat="44.79014" lon="3.79424">
        <ele>884.6</ele>
        <time>2021-08-08T15:27:56Z</time>
      </trkpt>
      <trkpt lat="44.79021" lon="3.79409">
        <ele>883.8</ele>
        <time>2021-08-08T15:27:58Z</time>
      </trkpt>
      <trkpt lat="44.79029" lon="3.79392">
        <ele>882.6</ele>
        <time>2021-08-08T15:28:00Z</time>
      </trkpt>
      <trkpt lat="44.79038" lon="3.79375">
        <ele>881.8</ele>
        <time>2021-08-08T15:28:02Z</time>
      </trkpt>
      <trkpt lat="44.79046" lon="3.79358">
        <ele>881.3</ele>
        <time>2021-08-08T15:28:04Z</time>
      </trkpt>
      <trkpt lat="44.79054" lon="3.79342">
        <ele>881.1</ele>
        <time>2021-08-08T15:28:06Z</time>
      </trkpt>
      <trkpt lat="44.79061" lon="3.79324">
        <ele>880.4</ele>
        <time>2021-08-08T15:28:08Z</time>
      </trkpt>
      <trkpt lat="44.79067" lon="3.79305">
        <ele>878.9</ele>
        <time>2021-08-08T15:28:10Z</time>
      </trkpt>
      <trkpt lat="44.79073" lon="3.79286">
        <ele>877.4</ele>
        <time>2021-08-08T15:28:12Z</time>
      </trkpt>
      <trkpt lat="44.79077" lon="3.79269">
        <ele>876.1</ele>
        <time>2021-08-08T15:28:14Z</time>
      </trkpt>
      <trkpt lat="44.79082" lon="3.79251">
        <ele>874.8</ele>
        <time>2021-08-08T15:28:16Z</time>
      </trkpt>
      <trkpt lat="44.79087" lon="3.79234">
        <ele>871</ele>
        <time>2021-08-08T15:28:18Z</time>
      </trkpt>
      <trkpt lat="44.79093" lon="3.79218">
        <ele>868</ele>
        <time>2021-08-08T15:28:20Z</time>
      </trkpt>
      <trkpt lat="44.79101" lon="3.79206">
        <ele>866.3</ele>
        <time>2021-08-08T15:28:22Z</time>
      </trkpt>
      <trkpt lat="44.79112" lon="3.79197">
        <ele>866.6</ele>
        <time>2021-08-08T15:28:24Z</time>
      </trkpt>
      <trkpt lat="44.79122" lon="3.7919">
        <ele>867.6</ele>
        <time>2021-08-08T15:28:26Z</time>
      </trkpt>
      <trkpt lat="44.79132" lon="3.79182">
        <ele>868.2</ele>
        <time>2021-08-08T15:28:28Z</time>
      </trkpt>
      <trkpt lat="44.79141" lon="3.79172">
        <ele>868</ele>
        <time>2021-08-08T15:28:30Z</time>
      </trkpt>
      <trkpt lat="44.79147" lon="3.79157">
        <ele>865.5</ele>
        <time>2021-08-08T15:28:32Z</time>
      </trkpt>
      <trkpt lat="44.79152" lon="3.79143">
        <ele>862.6</ele>
        <time>2021-08-08T15:28:34Z</time>
      </trkpt>
      <trkpt lat="44.79157" lon="3.79131">
        <ele>860.3</ele>
        <time>2021-08-08T15:28:36Z</time>
      </trkpt>
      <trkpt lat="44.79164" lon="3.79122">
        <ele>858.8</ele>
        <time>2021-08-08T15:28:38Z</time>
      </trkpt>
      <trkpt lat="44.79173" lon="3.79116">
        <ele>858.1</ele>
        <time>2021-08-08T15:28:40Z</time>
      </trkpt>
      <trkpt lat="44.79182" lon="3.79113">
        <ele>857.7</ele>
        <time>2021-08-08T15:28:42Z</time>
      </trkpt>
      <trkpt lat="44.79192" lon="3.79111">
        <ele>857.9</ele>
        <time>2021-08-08T15:28:44Z</time>
      </trkpt>
      <trkpt lat="44.79202" lon="3.79109">
        <ele>858.2</ele>
        <time>2021-08-08T15:28:46Z</time>
      </trkpt>
      <trkpt lat="44.79212" lon="3.79108">
        <ele>858.9</ele>
        <time>2021-08-08T15:28:48Z</time>
      </trkpt>
      <trkpt lat="44.79223" lon="3.79108">
        <ele>859.8</ele>
        <time>2021-08-08T15:28:50Z</time>
      </trkpt>
      <trkpt lat="44.79234" lon="3.7911">
        <ele>861.1</ele>
        <time>2021-08-08T15:28:52Z</time>
      </trkpt>
      <trkpt lat="44.79245" lon="3.79112">
        <ele>862.5</ele>
        <time>2021-08-08T15:28:54Z</time>
      </trkpt>
      <trkpt lat="44.79256" lon="3.79115">
        <ele>863.8</ele>
        <time>2021-08-08T15:28:56Z</time>
      </trkpt>
      <trkpt lat="44.79267" lon="3.79117">
        <ele>864.8</ele>
        <time>2021-08-08T15:28:58Z</time>
      </trkpt>
      <trkpt lat="44.79279" lon="3.79116">
        <ele>865.4</ele>
        <time>2021-08-08T15:29:00Z</time>
      </trkpt>
      <trkpt lat="44.79291" lon="3.79109">
        <ele>865.1</ele>
        <time>2021-08-08T15:29:02Z</time>
      </trkpt>
      <trkpt lat="44.79303" lon="3.79097">
        <ele>864.8</ele>
        <time>2021-08-08T15:29:04Z</time>
      </trkpt>
      <trkpt lat="44.79312" lon="3.79084">
        <ele>864.5</ele>
        <time>2021-08-08T15:29:06Z</time>
      </trkpt>
      <trkpt lat="44.79319" lon="3.79072">
        <ele>864.6</ele>
        <time>2021-08-08T15:29:08Z</time>
      </trkpt>
      <trkpt lat="44.79318" lon="3.7906">
        <ele>863.8</ele>
        <time>2021-08-08T15:29:10Z</time>
      </trkpt>
      <trkpt lat="44.79313" lon="3.79049">
        <ele>862.4</ele>
        <time>2021-08-08T15:29:12Z</time>
      </trkpt>
      <trkpt lat="44.79312" lon="3.79039">
        <ele>861.6</ele>
        <time>2021-08-08T15:29:14Z</time>
      </trkpt>
      <trkpt lat="44.79311" lon="3.79029">
        <ele>860.9</ele>
        <time>2021-08-08T15:29:16Z</time>
      </trkpt>
      <trkpt lat="44.7931" lon="3.7902">
        <ele>860.1</ele>
        <time>2021-08-08T15:29:18Z</time>
      </trkpt>
      <trkpt lat="44.79307" lon="3.79012">
        <ele>859.1</ele>
        <time>2021-08-08T15:29:20Z</time>
      </trkpt>
      <trkpt lat="44.79306" lon="3.79005">
        <ele>858.5</ele>
        <time>2021-08-08T15:29:22Z</time>
      </trkpt>
      <trkpt lat="44.79305" lon="3.78998">
        <ele>857.8</ele>
        <time>2021-08-08T15:29:24Z</time>
      </trkpt>
      <trkpt lat="44.79305" lon="3.78993">
        <ele>857.3</ele>
        <time>2021-08-08T15:29:26Z</time>
      </trkpt>
      <trkpt lat="44.79304" lon="3.78987">
        <ele>856.5</ele>
        <time>2021-08-08T15:29:28Z</time>
      </trkpt>
      <trkpt lat="44.79304" lon="3.78981">
        <ele>855.9</ele>
        <time>2021-08-08T15:29:30Z</time>
      </trkpt>
      <trkpt lat="44.79304" lon="3.78975">
        <ele>855.4</ele>
        <time>2021-08-08T15:29:32Z</time>
      </trkpt>
      <trkpt lat="44.79304" lon="3.78971">
        <ele>855.2</ele>
        <time>2021-08-08T15:29:34Z</time>
      </trkpt>
      <trkpt lat="44.79305" lon="3.78967">
        <ele>854.9</ele>
        <time>2021-08-08T15:29:36Z</time>
      </trkpt>
      <trkpt lat="44.79307" lon="3.78962">
        <ele>854.8</ele>
        <time>2021-08-08T15:29:38Z</time>
      </trkpt>
      <trkpt lat="44.79308" lon="3.78958">
        <ele>854.5</ele>
        <time>2021-08-08T15:29:40Z</time>
      </trkpt>
      <trkpt lat="44.79308" lon="3.78953">
        <ele>854.2</ele>
        <time>2021-08-08T15:29:42Z</time>
      </trkpt>
      <trkpt lat="44.79309" lon="3.78949">
        <ele>854</ele>
        <time>2021-08-08T15:29:44Z</time>
      </trkpt>
      <trkpt lat="44.79308" lon="3.78945">
        <ele>853.5</ele>
        <time>2021-08-08T15:29:46Z</time>
      </trkpt>
      <trkpt lat="44.79308" lon="3.78942">
        <ele>853.3</ele>
        <time>2021-08-08T15:29:48Z</time>
      </trkpt>
      <trkpt lat="44.79308" lon="3.78942">
        <ele>853.2</ele>
        <time>2021-08-08T15:29:50Z</time>
      </trkpt>
      <trkpt lat="44.79308" lon="3.78942">
        <ele>853.3</ele>
        <time>2021-08-08T15:29:52Z</time>
      </trkpt>
      <trkpt lat="44.79308" lon="3.78942">
        <ele>853.3</ele>
        <time>2021-08-08T15:29:54Z</time>
      </trkpt>
      <trkpt lat="44.79308" lon="3.78942">
        <ele>853.3</ele>
        <time>2021-08-08T15:29:56Z</time>
      </trkpt>
      <trkpt lat="44.79305" lon="3.78944">
        <ele>852.8</ele>
        <time>2021-08-08T15:34:14Z</time>
      </trkpt>
      <trkpt lat="44.79306" lon="3.78944">
        <ele>852.9</ele>
        <time>2021-08-08T15:34:16Z</time>
      </trkpt>
      <trkpt lat="44.79306" lon="3.78944">
        <ele>852.9</ele>
        <time>2021-08-08T15:34:18Z</time>
      </trkpt>
      <trkpt lat="44.79306" lon="3.78944">
        <ele>852.9</ele>
        <time>2021-08-08T15:34:20Z</time>
      </trkpt>
      <trkpt lat="44.79306" lon="3.78944">
        <ele>852.9</ele>
        <time>2021-08-08T15:34:22Z</time>
      </trkpt>
      <trkpt lat="44.79306" lon="3.78944">
        <ele>852.9</ele>
        <time>2021-08-08T15:34:24Z</time>
      </trkpt>
      <trkpt lat="44.79306" lon="3.78944">
        <ele>852.9</ele>
        <time>2021-08-08T15:34:26Z</time>
      </trkpt>
      <trkpt lat="44.79306" lon="3.78941">
        <ele>852.7</ele>
        <time>2021-08-08T15:34:28Z</time>
      </trkpt>
      <trkpt lat="44.79306" lon="3.78938">
        <ele>852.4</ele>
        <time>2021-08-08T15:34:30Z</time>
      </trkpt>
      <trkpt lat="44.79306" lon="3.78934">
        <ele>852</ele>
        <time>2021-08-08T15:34:32Z</time>
      </trkpt>
      <trkpt lat="44.79306" lon="3.78933">
        <ele>851.9</ele>
        <time>2021-08-08T15:34:34Z</time>
      </trkpt>
      <trkpt lat="44.79306" lon="3.78934">
        <ele>852</ele>
        <time>2021-08-08T15:34:36Z</time>
      </trkpt>
      <trkpt lat="44.79306" lon="3.78934">
        <ele>852</ele>
        <time>2021-08-08T15:34:38Z</time>
      </trkpt>
      <trkpt lat="44.79306" lon="3.78933">
        <ele>852</ele>
        <time>2021-08-08T15:34:40Z</time>
      </trkpt>
      <trkpt lat="44.79309" lon="3.78956">
        <ele>854.7</ele>
        <time>2021-08-08T15:38:44Z</time>
      </trkpt>
      <trkpt lat="44.79309" lon="3.78961">
        <ele>855.1</ele>
        <time>2021-08-08T15:38:46Z</time>
      </trkpt>
      <trkpt lat="44.79309" lon="3.78966">
        <ele>855.6</ele>
        <time>2021-08-08T15:38:48Z</time>
      </trkpt>
      <trkpt lat="44.79312" lon="3.78971">
        <ele>856.5</ele>
        <time>2021-08-08T15:38:50Z</time>
      </trkpt>
      <trkpt lat="44.79314" lon="3.78975">
        <ele>857.3</ele>
        <time>2021-08-08T15:38:52Z</time>
      </trkpt>
      <trkpt lat="44.79317" lon="3.78976">
        <ele>858</ele>
        <time>2021-08-08T15:38:54Z</time>
      </trkpt>
      <trkpt lat="44.79319" lon="3.78971">
        <ele>857.9</ele>
        <time>2021-08-08T15:38:56Z</time>
      </trkpt>
      <trkpt lat="44.7932" lon="3.78965">
        <ele>857.4</ele>
        <time>2021-08-08T15:38:58Z</time>
      </trkpt>
      <trkpt lat="44.7932" lon="3.78957">
        <ele>856.8</ele>
        <time>2021-08-08T15:39:00Z</time>
      </trkpt>
      <trkpt lat="44.7932" lon="3.78949">
        <ele>856.2</ele>
        <time>2021-08-08T15:39:02Z</time>
      </trkpt>
      <trkpt lat="44.79322" lon="3.78939">
        <ele>855.6</ele>
        <time>2021-08-08T15:39:04Z</time>
      </trkpt>
      <trkpt lat="44.79324" lon="3.78929">
        <ele>855.2</ele>
        <time>2021-08-08T15:39:06Z</time>
      </trkpt>
      <trkpt lat="44.79328" lon="3.7892">
        <ele>855.3</ele>
        <time>2021-08-08T15:39:08Z</time>
      </trkpt>
      <trkpt lat="44.79334" lon="3.78911">
        <ele>855.1</ele>
        <time>2021-08-08T15:39:10Z</time>
      </trkpt>
      <trkpt lat="44.7934" lon="3.78903">
        <ele>855.1</ele>
        <time>2021-08-08T15:39:12Z</time>
      </trkpt>
      <trkpt lat="44.79345" lon="3.78895">
        <ele>855.3</ele>
        <time>2021-08-08T15:39:14Z</time>
      </trkpt>
      <trkpt lat="44.7935" lon="3.78888">
        <ele>855</ele>
        <time>2021-08-08T15:39:16Z</time>
      </trkpt>
      <trkpt lat="44.79354" lon="3.78881">
        <ele>854.8</ele>
        <time>2021-08-08T15:39:18Z</time>
      </trkpt>
      <trkpt lat="44.79357" lon="3.78873">
        <ele>854.1</ele>
        <time>2021-08-08T15:39:20Z</time>
      </trkpt>
      <trkpt lat="44.79361" lon="3.78867">
        <ele>853.8</ele>
        <time>2021-08-08T15:39:22Z</time>
      </trkpt>
      <trkpt lat="44.79366" lon="3.7886">
        <ele>853.9</ele>
        <time>2021-08-08T15:39:24Z</time>
      </trkpt>
      <trkpt lat="44.79374" lon="3.78853">
        <ele>854.8</ele>
        <time>2021-08-08T15:39:26Z</time>
      </trkpt>
      <trkpt lat="44.79383" lon="3.78848">
        <ele>856.6</ele>
        <time>2021-08-08T15:39:28Z</time>
      </trkpt>
      <trkpt lat="44.79391" lon="3.78841">
        <ele>857.5</ele>
        <time>2021-08-08T15:39:30Z</time>
      </trkpt>
      <trkpt lat="44.79397" lon="3.78832">
        <ele>857.2</ele>
        <time>2021-08-08T15:39:32Z</time>
      </trkpt>
      <trkpt lat="44.79401" lon="3.78824">
        <ele>856.5</ele>
        <time>2021-08-08T15:39:34Z</time>
      </trkpt>
      <trkpt lat="44.79405" lon="3.78817">
        <ele>856.1</ele>
        <time>2021-08-08T15:39:36Z</time>
      </trkpt>
      <trkpt lat="44.7941" lon="3.78808">
        <ele>855.6</ele>
        <time>2021-08-08T15:39:38Z</time>
      </trkpt>
      <trkpt lat="44.79415" lon="3.78799">
        <ele>854.8</ele>
        <time>2021-08-08T15:39:40Z</time>
      </trkpt>
      <trkpt lat="44.7942" lon="3.78791">
        <ele>855.1</ele>
        <time>2021-08-08T15:39:42Z</time>
      </trkpt>
      <trkpt lat="44.79425" lon="3.78785">
        <ele>855.9</ele>
        <time>2021-08-08T15:39:44Z</time>
      </trkpt>
      <trkpt lat="44.79428" lon="3.78777">
        <ele>855.9</ele>
        <time>2021-08-08T15:39:46Z</time>
      </trkpt>
      <trkpt lat="44.79432" lon="3.7877">
        <ele>855.8</ele>
        <time>2021-08-08T15:39:48Z</time>
      </trkpt>
      <trkpt lat="44.79435" lon="3.78761">
        <ele>855.4</ele>
        <time>2021-08-08T15:39:50Z</time>
      </trkpt>
      <trkpt lat="44.79437" lon="3.78753">
        <ele>854.7</ele>
        <time>2021-08-08T15:39:52Z</time>
      </trkpt>
      <trkpt lat="44.79438" lon="3.78744">
        <ele>853.7</ele>
        <time>2021-08-08T15:39:54Z</time>
      </trkpt>
      <trkpt lat="44.79441" lon="3.78736">
        <ele>853.5</ele>
        <time>2021-08-08T15:39:56Z</time>
      </trkpt>
      <trkpt lat="44.79444" lon="3.78727">
        <ele>854</ele>
        <time>2021-08-08T15:39:58Z</time>
      </trkpt>
      <trkpt lat="44.7945" lon="3.78719">
        <ele>855.4</ele>
        <time>2021-08-08T15:40:00Z</time>
      </trkpt>
      <trkpt lat="44.79456" lon="3.78712">
        <ele>857.3</ele>
        <time>2021-08-08T15:40:02Z</time>
      </trkpt>
      <trkpt lat="44.79461" lon="3.78703">
        <ele>858.3</ele>
        <time>2021-08-08T15:40:04Z</time>
      </trkpt>
      <trkpt lat="44.7946" lon="3.7869">
        <ele>855.6</ele>
        <time>2021-08-08T15:40:06Z</time>
      </trkpt>
      <trkpt lat="44.79453" lon="3.78682">
        <ele>850.6</ele>
        <time>2021-08-08T15:40:08Z</time>
      </trkpt>
      <trkpt lat="44.79446" lon="3.78683">
        <ele>847.1</ele>
        <time>2021-08-08T15:40:10Z</time>
      </trkpt>
      <trkpt lat="44.79444" lon="3.78686">
        <ele>846.4</ele>
        <time>2021-08-08T15:40:12Z</time>
      </trkpt>
      <trkpt lat="44.79444" lon="3.78686">
        <ele>846.7</ele>
        <time>2021-08-08T15:40:14Z</time>
      </trkpt>
      <trkpt lat="44.79444" lon="3.78686">
        <ele>846.6</ele>
        <time>2021-08-08T15:40:16Z</time>
      </trkpt>
      <trkpt lat="44.79444" lon="3.78686">
        <ele>846.8</ele>
        <time>2021-08-08T15:40:18Z</time>
      </trkpt>
      <trkpt lat="44.79441" lon="3.78698">
        <ele>847.2</ele>
        <time>2021-08-08T15:40:48Z</time>
      </trkpt>
      <trkpt lat="44.79441" lon="3.78702">
        <ele>847.6</ele>
        <time>2021-08-08T15:40:50Z</time>
      </trkpt>
      <trkpt lat="44.79439" lon="3.78708">
        <ele>848</ele>
        <time>2021-08-08T15:40:52Z</time>
      </trkpt>
      <trkpt lat="44.79438" lon="3.78715">
        <ele>848.2</ele>
        <time>2021-08-08T15:40:54Z</time>
      </trkpt>
      <trkpt lat="44.79436" lon="3.78723">
        <ele>848.6</ele>
        <time>2021-08-08T15:40:56Z</time>
      </trkpt>
      <trkpt lat="44.79434" lon="3.78732">
        <ele>849.1</ele>
        <time>2021-08-08T15:40:58Z</time>
      </trkpt>
      <trkpt lat="44.79431" lon="3.78741">
        <ele>849.2</ele>
        <time>2021-08-08T15:41:00Z</time>
      </trkpt>
      <trkpt lat="44.79428" lon="3.78751">
        <ele>849.2</ele>
        <time>2021-08-08T15:41:02Z</time>
      </trkpt>
      <trkpt lat="44.79424" lon="3.78761">
        <ele>849.8</ele>
        <time>2021-08-08T15:41:04Z</time>
      </trkpt>
      <trkpt lat="44.79419" lon="3.78771">
        <ele>849.4</ele>
        <time>2021-08-08T15:41:06Z</time>
      </trkpt>
      <trkpt lat="44.79412" lon="3.7878">
        <ele>849.2</ele>
        <time>2021-08-08T15:41:08Z</time>
      </trkpt>
      <trkpt lat="44.79404" lon="3.78788">
        <ele>848.9</ele>
        <time>2021-08-08T15:41:10Z</time>
      </trkpt>
      <trkpt lat="44.79397" lon="3.78797">
        <ele>849</ele>
        <time>2021-08-08T15:41:12Z</time>
      </trkpt>
      <trkpt lat="44.79388" lon="3.78809">
        <ele>848.8</ele>
        <time>2021-08-08T15:41:14Z</time>
      </trkpt>
      <trkpt lat="44.7938" lon="3.78819">
        <ele>848.7</ele>
        <time>2021-08-08T15:41:16Z</time>
      </trkpt>
      <trkpt lat="44.79371" lon="3.78827">
        <ele>847.7</ele>
        <time>2021-08-08T15:41:18Z</time>
      </trkpt>
      <trkpt lat="44.79362" lon="3.78833">
        <ele>846</ele>
        <time>2021-08-08T15:41:20Z</time>
      </trkpt>
      <trkpt lat="44.79353" lon="3.78839">
        <ele>844.7</ele>
        <time>2021-08-08T15:41:22Z</time>
      </trkpt>
      <trkpt lat="44.79346" lon="3.7885">
        <ele>844.9</ele>
        <time>2021-08-08T15:41:24Z</time>
      </trkpt>
      <trkpt lat="44.7934" lon="3.78854">
        <ele>843.8</ele>
        <time>2021-08-08T15:41:26Z</time>
      </trkpt>
      <trkpt lat="44.79333" lon="3.78854">
        <ele>841.8</ele>
        <time>2021-08-08T15:41:28Z</time>
      </trkpt>
      <trkpt lat="44.79328" lon="3.78848">
        <ele>839.5</ele>
        <time>2021-08-08T15:41:30Z</time>
      </trkpt>
      <trkpt lat="44.79326" lon="3.78842">
        <ele>837.9</ele>
        <time>2021-08-08T15:41:32Z</time>
      </trkpt>
      <trkpt lat="44.79323" lon="3.78835">
        <ele>836.1</ele>
        <time>2021-08-08T15:41:34Z</time>
      </trkpt>
      <trkpt lat="44.79319" lon="3.78828">
        <ele>834.3</ele>
        <time>2021-08-08T15:41:36Z</time>
      </trkpt>
      <trkpt lat="44.79315" lon="3.78821">
        <ele>832.9</ele>
        <time>2021-08-08T15:41:38Z</time>
      </trkpt>
      <trkpt lat="44.79312" lon="3.78816">
        <ele>831.9</ele>
        <time>2021-08-08T15:41:40Z</time>
      </trkpt>
      <trkpt lat="44.79307" lon="3.7881">
        <ele>831</ele>
        <time>2021-08-08T15:41:42Z</time>
      </trkpt>
      <trkpt lat="44.79303" lon="3.78806">
        <ele>830.5</ele>
        <time>2021-08-08T15:41:44Z</time>
      </trkpt>
      <trkpt lat="44.79299" lon="3.78803">
        <ele>830</ele>
        <time>2021-08-08T15:41:46Z</time>
      </trkpt>
      <trkpt lat="44.79297" lon="3.78796">
        <ele>829.4</ele>
        <time>2021-08-08T15:41:48Z</time>
      </trkpt>
      <trkpt lat="44.79295" lon="3.78791">
        <ele>829.2</ele>
        <time>2021-08-08T15:41:50Z</time>
      </trkpt>
      <trkpt lat="44.79294" lon="3.78787">
        <ele>828.9</ele>
        <time>2021-08-08T15:41:52Z</time>
      </trkpt>
      <trkpt lat="44.79295" lon="3.78783">
        <ele>828.6</ele>
        <time>2021-08-08T15:41:54Z</time>
      </trkpt>
      <trkpt lat="44.79296" lon="3.78778">
        <ele>828.2</ele>
        <time>2021-08-08T15:41:56Z</time>
      </trkpt>
      <trkpt lat="44.79297" lon="3.78776">
        <ele>828</ele>
        <time>2021-08-08T15:41:58Z</time>
      </trkpt>
      <trkpt lat="44.79297" lon="3.78776">
        <ele>828</ele>
        <time>2021-08-08T15:42:00Z</time>
      </trkpt>
      <trkpt lat="44.79297" lon="3.78776">
        <ele>828</ele>
        <time>2021-08-08T15:42:02Z</time>
      </trkpt>
      <trkpt lat="44.79297" lon="3.78775">
        <ele>828</ele>
        <time>2021-08-08T15:42:04Z</time>
      </trkpt>
      <trkpt lat="44.79296" lon="3.78775">
        <ele>828</ele>
        <time>2021-08-08T15:42:06Z</time>
      </trkpt>
      <trkpt lat="44.79302" lon="3.78746">
        <ele>826.2</ele>
        <time>2021-08-08T15:43:50Z</time>
      </trkpt>
      <trkpt lat="44.79303" lon="3.78739">
        <ele>827.6</ele>
        <time>2021-08-08T15:43:52Z</time>
      </trkpt>
      <trkpt lat="44.79303" lon="3.78733">
        <ele>828.9</ele>
        <time>2021-08-08T15:43:54Z</time>
      </trkpt>
      <trkpt lat="44.79305" lon="3.78728">
        <ele>829.6</ele>
        <time>2021-08-08T15:43:56Z</time>
      </trkpt>
      <trkpt lat="44.79308" lon="3.78721">
        <ele>830.7</ele>
        <time>2021-08-08T15:43:58Z</time>
      </trkpt>
      <trkpt lat="44.79311" lon="3.78715">
        <ele>831.1</ele>
        <time>2021-08-08T15:44:00Z</time>
      </trkpt>
      <trkpt lat="44.79315" lon="3.7871">
        <ele>831.4</ele>
        <time>2021-08-08T15:44:02Z</time>
      </trkpt>
      <trkpt lat="44.79319" lon="3.78706">
        <ele>831.4</ele>
        <time>2021-08-08T15:44:04Z</time>
      </trkpt>
      <trkpt lat="44.79322" lon="3.78701">
        <ele>831.6</ele>
        <time>2021-08-08T15:44:06Z</time>
      </trkpt>
      <trkpt lat="44.79325" lon="3.78697">
        <ele>831.7</ele>
        <time>2021-08-08T15:44:08Z</time>
      </trkpt>
      <trkpt lat="44.79327" lon="3.78693">
        <ele>831.8</ele>
        <time>2021-08-08T15:44:10Z</time>
      </trkpt>
      <trkpt lat="44.7933" lon="3.7869">
        <ele>831.6</ele>
        <time>2021-08-08T15:44:12Z</time>
      </trkpt>
      <trkpt lat="44.79333" lon="3.78685">
        <ele>831.7</ele>
        <time>2021-08-08T15:44:14Z</time>
      </trkpt>
      <trkpt lat="44.79336" lon="3.78682">
        <ele>832.2</ele>
        <time>2021-08-08T15:44:16Z</time>
      </trkpt>
      <trkpt lat="44.79338" lon="3.78675">
        <ele>833.3</ele>
        <time>2021-08-08T15:44:18Z</time>
      </trkpt>
      <trkpt lat="44.7934" lon="3.7867">
        <ele>833.9</ele>
        <time>2021-08-08T15:44:20Z</time>
      </trkpt>
      <trkpt lat="44.7934" lon="3.78664">
        <ele>835</ele>
        <time>2021-08-08T15:44:22Z</time>
      </trkpt>
      <trkpt lat="44.79341" lon="3.7866">
        <ele>835.7</ele>
        <time>2021-08-08T15:44:24Z</time>
      </trkpt>
      <trkpt lat="44.79342" lon="3.78655">
        <ele>836.6</ele>
        <time>2021-08-08T15:44:26Z</time>
      </trkpt>
      <trkpt lat="44.79343" lon="3.7865">
        <ele>837.5</ele>
        <time>2021-08-08T15:44:28Z</time>
      </trkpt>
      <trkpt lat="44.79343" lon="3.78644">
        <ele>838.4</ele>
        <time>2021-08-08T15:44:30Z</time>
      </trkpt>
      <trkpt lat="44.79345" lon="3.7864">
        <ele>839</ele>
        <time>2021-08-08T15:44:32Z</time>
      </trkpt>
      <trkpt lat="44.79346" lon="3.78637">
        <ele>839.5</ele>
        <time>2021-08-08T15:44:34Z</time>
      </trkpt>
      <trkpt lat="44.79346" lon="3.78631">
        <ele>840.5</ele>
        <time>2021-08-08T15:44:36Z</time>
      </trkpt>
      <trkpt lat="44.79346" lon="3.78626">
        <ele>841.5</ele>
        <time>2021-08-08T15:44:38Z</time>
      </trkpt>
      <trkpt lat="44.79347" lon="3.78622">
        <ele>841.9</ele>
        <time>2021-08-08T15:44:40Z</time>
      </trkpt>
      <trkpt lat="44.79348" lon="3.78617">
        <ele>842.6</ele>
        <time>2021-08-08T15:44:42Z</time>
      </trkpt>
      <trkpt lat="44.79349" lon="3.78613">
        <ele>843.1</ele>
        <time>2021-08-08T15:44:44Z</time>
      </trkpt>
      <trkpt lat="44.7935" lon="3.78609">
        <ele>843.6</ele>
        <time>2021-08-08T15:44:46Z</time>
      </trkpt>
      <trkpt lat="44.7935" lon="3.78605">
        <ele>844.1</ele>
        <time>2021-08-08T15:44:48Z</time>
      </trkpt>
      <trkpt lat="44.79351" lon="3.786">
        <ele>844.7</ele>
        <time>2021-08-08T15:44:50Z</time>
      </trkpt>
      <trkpt lat="44.79352" lon="3.78596">
        <ele>845.2</ele>
        <time>2021-08-08T15:44:52Z</time>
      </trkpt>
      <trkpt lat="44.79353" lon="3.78592">
        <ele>845.5</ele>
        <time>2021-08-08T15:44:54Z</time>
      </trkpt>
      <trkpt lat="44.79355" lon="3.78588">
        <ele>845.6</ele>
        <time>2021-08-08T15:44:56Z</time>
      </trkpt>
      <trkpt lat="44.79355" lon="3.78582">
        <ele>846.5</ele>
        <time>2021-08-08T15:44:58Z</time>
      </trkpt>
      <trkpt lat="44.79357" lon="3.78577">
        <ele>847.1</ele>
        <time>2021-08-08T15:45:00Z</time>
      </trkpt>
      <trkpt lat="44.79359" lon="3.78573">
        <ele>847.4</ele>
        <time>2021-08-08T15:45:02Z</time>
      </trkpt>
      <trkpt lat="44.7936" lon="3.78567">
        <ele>848.2</ele>
        <time>2021-08-08T15:45:04Z</time>
      </trkpt>
      <trkpt lat="44.79361" lon="3.78563">
        <ele>848.8</ele>
        <time>2021-08-08T15:45:06Z</time>
      </trkpt>
      <trkpt lat="44.79362" lon="3.78557">
        <ele>849.3</ele>
        <time>2021-08-08T15:45:08Z</time>
      </trkpt>
      <trkpt lat="44.79364" lon="3.78553">
        <ele>849.6</ele>
        <time>2021-08-08T15:45:10Z</time>
      </trkpt>
      <trkpt lat="44.79366" lon="3.78549">
        <ele>849.8</ele>
        <time>2021-08-08T15:45:12Z</time>
      </trkpt>
      <trkpt lat="44.79367" lon="3.78545">
        <ele>849.9</ele>
        <time>2021-08-08T15:45:14Z</time>
      </trkpt>
      <trkpt lat="44.79369" lon="3.78541">
        <ele>850.1</ele>
        <time>2021-08-08T15:45:16Z</time>
      </trkpt>
      <trkpt lat="44.79371" lon="3.78536">
        <ele>850.3</ele>
        <time>2021-08-08T15:45:18Z</time>
      </trkpt>
      <trkpt lat="44.79373" lon="3.78532">
        <ele>850.2</ele>
        <time>2021-08-08T15:45:20Z</time>
      </trkpt>
      <trkpt lat="44.79375" lon="3.78527">
        <ele>850.4</ele>
        <time>2021-08-08T15:45:22Z</time>
      </trkpt>
      <trkpt lat="44.79376" lon="3.78523">
        <ele>850.6</ele>
        <time>2021-08-08T15:45:24Z</time>
      </trkpt>
      <trkpt lat="44.79378" lon="3.78519">
        <ele>850.6</ele>
        <time>2021-08-08T15:45:26Z</time>
      </trkpt>
      <trkpt lat="44.7938" lon="3.78516">
        <ele>850.5</ele>
        <time>2021-08-08T15:45:28Z</time>
      </trkpt>
      <trkpt lat="44.79381" lon="3.78512">
        <ele>850.9</ele>
        <time>2021-08-08T15:45:30Z</time>
      </trkpt>
      <trkpt lat="44.79384" lon="3.78507">
        <ele>850.3</ele>
        <time>2021-08-08T15:45:32Z</time>
      </trkpt>
      <trkpt lat="44.79386" lon="3.78503">
        <ele>850.1</ele>
        <time>2021-08-08T15:45:34Z</time>
      </trkpt>
      <trkpt lat="44.79388" lon="3.78499">
        <ele>849.8</ele>
        <time>2021-08-08T15:45:36Z</time>
      </trkpt>
      <trkpt lat="44.7939" lon="3.78495">
        <ele>850.1</ele>
        <time>2021-08-08T15:45:38Z</time>
      </trkpt>
      <trkpt lat="44.79392" lon="3.78491">
        <ele>850.3</ele>
        <time>2021-08-08T15:45:40Z</time>
      </trkpt>
      <trkpt lat="44.79394" lon="3.78485">
        <ele>851</ele>
        <time>2021-08-08T15:45:42Z</time>
      </trkpt>
      <trkpt lat="44.79397" lon="3.78482">
        <ele>850.8</ele>
        <time>2021-08-08T15:45:44Z</time>
      </trkpt>
      <trkpt lat="44.79398" lon="3.78477">
        <ele>851.4</ele>
        <time>2021-08-08T15:45:46Z</time>
      </trkpt>
      <trkpt lat="44.794" lon="3.78472">
        <ele>851.7</ele>
        <time>2021-08-08T15:45:48Z</time>
      </trkpt>
      <trkpt lat="44.79402" lon="3.78467">
        <ele>852.2</ele>
        <time>2021-08-08T15:45:50Z</time>
      </trkpt>
      <trkpt lat="44.79404" lon="3.78463">
        <ele>852.5</ele>
        <time>2021-08-08T15:45:52Z</time>
      </trkpt>
      <trkpt lat="44.79407" lon="3.78458">
        <ele>852.8</ele>
        <time>2021-08-08T15:45:54Z</time>
      </trkpt>
      <trkpt lat="44.79409" lon="3.78454">
        <ele>852.9</ele>
        <time>2021-08-08T15:45:56Z</time>
      </trkpt>
      <trkpt lat="44.79411" lon="3.78449">
        <ele>853.4</ele>
        <time>2021-08-08T15:45:58Z</time>
      </trkpt>
      <trkpt lat="44.79413" lon="3.78446">
        <ele>853.3</ele>
        <time>2021-08-08T15:46:00Z</time>
      </trkpt>
      <trkpt lat="44.79415" lon="3.78442">
        <ele>853.8</ele>
        <time>2021-08-08T15:46:02Z</time>
      </trkpt>
      <trkpt lat="44.79417" lon="3.78438">
        <ele>854.2</ele>
        <time>2021-08-08T15:46:04Z</time>
      </trkpt>
      <trkpt lat="44.79419" lon="3.78433">
        <ele>854.8</ele>
        <time>2021-08-08T15:46:06Z</time>
      </trkpt>
      <trkpt lat="44.7942" lon="3.78429">
        <ele>855.3</ele>
        <time>2021-08-08T15:46:08Z</time>
      </trkpt>
      <trkpt lat="44.79422" lon="3.78425">
        <ele>855.7</ele>
        <time>2021-08-08T15:46:10Z</time>
      </trkpt>
      <trkpt lat="44.79423" lon="3.7842">
        <ele>856.4</ele>
        <time>2021-08-08T15:46:12Z</time>
      </trkpt>
      <trkpt lat="44.79425" lon="3.78415">
        <ele>856.9</ele>
        <time>2021-08-08T15:46:14Z</time>
      </trkpt>
      <trkpt lat="44.79427" lon="3.78411">
        <ele>857.4</ele>
        <time>2021-08-08T15:46:16Z</time>
      </trkpt>
      <trkpt lat="44.79428" lon="3.78405">
        <ele>858.1</ele>
        <time>2021-08-08T15:46:18Z</time>
      </trkpt>
      <trkpt lat="44.7943" lon="3.784">
        <ele>858.7</ele>
        <time>2021-08-08T15:46:20Z</time>
      </trkpt>
      <trkpt lat="44.79432" lon="3.78396">
        <ele>858.6</ele>
        <time>2021-08-08T15:46:22Z</time>
      </trkpt>
      <trkpt lat="44.79435" lon="3.78392">
        <ele>858.6</ele>
        <time>2021-08-08T15:46:24Z</time>
      </trkpt>
      <trkpt lat="44.79437" lon="3.78388">
        <ele>858.8</ele>
        <time>2021-08-08T15:46:26Z</time>
      </trkpt>
      <trkpt lat="44.7944" lon="3.78384">
        <ele>858.4</ele>
        <time>2021-08-08T15:46:28Z</time>
      </trkpt>
      <trkpt lat="44.79441" lon="3.78379">
        <ele>859.1</ele>
        <time>2021-08-08T15:46:30Z</time>
      </trkpt>
      <trkpt lat="44.79441" lon="3.78374">
        <ele>860.3</ele>
        <time>2021-08-08T15:46:32Z</time>
      </trkpt>
      <trkpt lat="44.79442" lon="3.7837">
        <ele>860.6</ele>
        <time>2021-08-08T15:46:34Z</time>
      </trkpt>
      <trkpt lat="44.79444" lon="3.78365">
        <ele>861</ele>
        <time>2021-08-08T15:46:36Z</time>
      </trkpt>
      <trkpt lat="44.79446" lon="3.78361">
        <ele>861.1</ele>
        <time>2021-08-08T15:46:38Z</time>
      </trkpt>
      <trkpt lat="44.79448" lon="3.78356">
        <ele>861.2</ele>
        <time>2021-08-08T15:46:40Z</time>
      </trkpt>
      <trkpt lat="44.7945" lon="3.78351">
        <ele>861.7</ele>
        <time>2021-08-08T15:46:42Z</time>
      </trkpt>
      <trkpt lat="44.79451" lon="3.78347">
        <ele>862.1</ele>
        <time>2021-08-08T15:46:44Z</time>
      </trkpt>
      <trkpt lat="44.79453" lon="3.78341">
        <ele>862.4</ele>
        <time>2021-08-08T15:46:46Z</time>
      </trkpt>
      <trkpt lat="44.79455" lon="3.78337">
        <ele>862.4</ele>
        <time>2021-08-08T15:46:48Z</time>
      </trkpt>
      <trkpt lat="44.79456" lon="3.78333">
        <ele>862.6</ele>
        <time>2021-08-08T15:46:50Z</time>
      </trkpt>
      <trkpt lat="44.79458" lon="3.78327">
        <ele>862</ele>
        <time>2021-08-08T15:46:52Z</time>
      </trkpt>
      <trkpt lat="44.7946" lon="3.78323">
        <ele>861.5</ele>
        <time>2021-08-08T15:46:54Z</time>
      </trkpt>
      <trkpt lat="44.79462" lon="3.78319">
        <ele>860.8</ele>
        <time>2021-08-08T15:46:56Z</time>
      </trkpt>
      <trkpt lat="44.79465" lon="3.78313">
        <ele>860</ele>
        <time>2021-08-08T15:46:58Z</time>
      </trkpt>
      <trkpt lat="44.79467" lon="3.7831">
        <ele>859.4</ele>
        <time>2021-08-08T15:47:00Z</time>
      </trkpt>
      <trkpt lat="44.79469" lon="3.78304">
        <ele>859</ele>
        <time>2021-08-08T15:47:02Z</time>
      </trkpt>
      <trkpt lat="44.7947" lon="3.78301">
        <ele>858.9</ele>
        <time>2021-08-08T15:47:04Z</time>
      </trkpt>
      <trkpt lat="44.79471" lon="3.78296">
        <ele>859</ele>
        <time>2021-08-08T15:47:06Z</time>
      </trkpt>
      <trkpt lat="44.79472" lon="3.78291">
        <ele>858.8</ele>
        <time>2021-08-08T15:47:08Z</time>
      </trkpt>
      <trkpt lat="44.79473" lon="3.78286">
        <ele>859</ele>
        <time>2021-08-08T15:47:10Z</time>
      </trkpt>
      <trkpt lat="44.79472" lon="3.78282">
        <ele>859.5</ele>
        <time>2021-08-08T15:47:12Z</time>
      </trkpt>
      <trkpt lat="44.79473" lon="3.78277">
        <ele>859.9</ele>
        <time>2021-08-08T15:47:14Z</time>
      </trkpt>
      <trkpt lat="44.79471" lon="3.78274">
        <ele>860.8</ele>
        <time>2021-08-08T15:47:16Z</time>
      </trkpt>
      <trkpt lat="44.7947" lon="3.7827">
        <ele>861.9</ele>
        <time>2021-08-08T15:47:18Z</time>
      </trkpt>
      <trkpt lat="44.7947" lon="3.78265">
        <ele>862.5</ele>
        <time>2021-08-08T15:47:20Z</time>
      </trkpt>
      <trkpt lat="44.79469" lon="3.78261">
        <ele>862.9</ele>
        <time>2021-08-08T15:47:22Z</time>
      </trkpt>
      <trkpt lat="44.79468" lon="3.78257">
        <ele>863.8</ele>
        <time>2021-08-08T15:47:24Z</time>
      </trkpt>
      <trkpt lat="44.79468" lon="3.78252">
        <ele>864.4</ele>
        <time>2021-08-08T15:47:26Z</time>
      </trkpt>
      <trkpt lat="44.79467" lon="3.78248">
        <ele>864.9</ele>
        <time>2021-08-08T15:47:28Z</time>
      </trkpt>
      <trkpt lat="44.79467" lon="3.78242">
        <ele>864.8</ele>
        <time>2021-08-08T15:47:30Z</time>
      </trkpt>
      <trkpt lat="44.79466" lon="3.78238">
        <ele>864.9</ele>
        <time>2021-08-08T15:47:32Z</time>
      </trkpt>
      <trkpt lat="44.79466" lon="3.78234">
        <ele>864.8</ele>
        <time>2021-08-08T15:47:34Z</time>
      </trkpt>
      <trkpt lat="44.79465" lon="3.78228">
        <ele>864.9</ele>
        <time>2021-08-08T15:47:36Z</time>
      </trkpt>
      <trkpt lat="44.79464" lon="3.78223">
        <ele>865.2</ele>
        <time>2021-08-08T15:47:38Z</time>
      </trkpt>
      <trkpt lat="44.79464" lon="3.78218">
        <ele>864.9</ele>
        <time>2021-08-08T15:47:40Z</time>
      </trkpt>
      <trkpt lat="44.79463" lon="3.78213">
        <ele>864.8</ele>
        <time>2021-08-08T15:47:42Z</time>
      </trkpt>
      <trkpt lat="44.79463" lon="3.78208">
        <ele>864.6</ele>
        <time>2021-08-08T15:47:44Z</time>
      </trkpt>
      <trkpt lat="44.79463" lon="3.78202">
        <ele>864.2</ele>
        <time>2021-08-08T15:47:46Z</time>
      </trkpt>
      <trkpt lat="44.79463" lon="3.78198">
        <ele>864</ele>
        <time>2021-08-08T15:47:48Z</time>
      </trkpt>
      <trkpt lat="44.79462" lon="3.78193">
        <ele>864.3</ele>
        <time>2021-08-08T15:47:50Z</time>
      </trkpt>
      <trkpt lat="44.79462" lon="3.78188">
        <ele>864.1</ele>
        <time>2021-08-08T15:47:52Z</time>
      </trkpt>
      <trkpt lat="44.79462" lon="3.78183">
        <ele>864</ele>
        <time>2021-08-08T15:47:54Z</time>
      </trkpt>
      <trkpt lat="44.79461" lon="3.78179">
        <ele>864</ele>
        <time>2021-08-08T15:47:56Z</time>
      </trkpt>
      <trkpt lat="44.79461" lon="3.78174">
        <ele>864</ele>
        <time>2021-08-08T15:47:58Z</time>
      </trkpt>
      <trkpt lat="44.7946" lon="3.7817">
        <ele>864.1</ele>
        <time>2021-08-08T15:48:00Z</time>
      </trkpt>
      <trkpt lat="44.79459" lon="3.78166">
        <ele>864.4</ele>
        <time>2021-08-08T15:48:02Z</time>
      </trkpt>
      <trkpt lat="44.79458" lon="3.78161">
        <ele>864.3</ele>
        <time>2021-08-08T15:48:04Z</time>
      </trkpt>
      <trkpt lat="44.79456" lon="3.78157">
        <ele>864.8</ele>
        <time>2021-08-08T15:48:06Z</time>
      </trkpt>
      <trkpt lat="44.79456" lon="3.78152">
        <ele>864.7</ele>
        <time>2021-08-08T15:48:08Z</time>
      </trkpt>
      <trkpt lat="44.79455" lon="3.78147">
        <ele>864.7</ele>
        <time>2021-08-08T15:48:10Z</time>
      </trkpt>
      <trkpt lat="44.79454" lon="3.78142">
        <ele>864.6</ele>
        <time>2021-08-08T15:48:12Z</time>
      </trkpt>
      <trkpt lat="44.79454" lon="3.78137">
        <ele>864.5</ele>
        <time>2021-08-08T15:48:14Z</time>
      </trkpt>
      <trkpt lat="44.79454" lon="3.78132">
        <ele>864.1</ele>
        <time>2021-08-08T15:48:16Z</time>
      </trkpt>
      <trkpt lat="44.79454" lon="3.78128">
        <ele>863.8</ele>
        <time>2021-08-08T15:48:18Z</time>
      </trkpt>
      <trkpt lat="44.79454" lon="3.78123">
        <ele>863.4</ele>
        <time>2021-08-08T15:48:20Z</time>
      </trkpt>
      <trkpt lat="44.79454" lon="3.78118">
        <ele>863</ele>
        <time>2021-08-08T15:48:22Z</time>
      </trkpt>
      <trkpt lat="44.79455" lon="3.78114">
        <ele>862.4</ele>
        <time>2021-08-08T15:48:24Z</time>
      </trkpt>
      <trkpt lat="44.79456" lon="3.78109">
        <ele>861.8</ele>
        <time>2021-08-08T15:48:26Z</time>
      </trkpt>
      <trkpt lat="44.79455" lon="3.78104">
        <ele>861.6</ele>
        <time>2021-08-08T15:48:28Z</time>
      </trkpt>
      <trkpt lat="44.79455" lon="3.781">
        <ele>861.3</ele>
        <time>2021-08-08T15:48:30Z</time>
      </trkpt>
      <trkpt lat="44.79454" lon="3.78096">
        <ele>861.5</ele>
        <time>2021-08-08T15:48:32Z</time>
      </trkpt>
      <trkpt lat="44.79453" lon="3.78091">
        <ele>861.6</ele>
        <time>2021-08-08T15:48:34Z</time>
      </trkpt>
      <trkpt lat="44.79451" lon="3.78088">
        <ele>862.4</ele>
        <time>2021-08-08T15:48:36Z</time>
      </trkpt>
      <trkpt lat="44.79448" lon="3.78084">
        <ele>863.2</ele>
        <time>2021-08-08T15:48:38Z</time>
      </trkpt>
      <trkpt lat="44.79445" lon="3.78083">
        <ele>864.3</ele>
        <time>2021-08-08T15:48:40Z</time>
      </trkpt>
      <trkpt lat="44.79442" lon="3.78082">
        <ele>865.7</ele>
        <time>2021-08-08T15:48:42Z</time>
      </trkpt>
      <trkpt lat="44.79439" lon="3.78082">
        <ele>866.7</ele>
        <time>2021-08-08T15:48:44Z</time>
      </trkpt>
      <trkpt lat="44.79437" lon="3.78082">
        <ele>867.8</ele>
        <time>2021-08-08T15:48:46Z</time>
      </trkpt>
      <trkpt lat="44.79433" lon="3.78083">
        <ele>869.3</ele>
        <time>2021-08-08T15:48:48Z</time>
      </trkpt>
      <trkpt lat="44.79431" lon="3.78084">
        <ele>870.4</ele>
        <time>2021-08-08T15:48:50Z</time>
      </trkpt>
      <trkpt lat="44.79428" lon="3.78084">
        <ele>871.3</ele>
        <time>2021-08-08T15:48:52Z</time>
      </trkpt>
      <trkpt lat="44.79426" lon="3.78086">
        <ele>872.5</ele>
        <time>2021-08-08T15:48:54Z</time>
      </trkpt>
      <trkpt lat="44.79422" lon="3.78087">
        <ele>874.1</ele>
        <time>2021-08-08T15:48:56Z</time>
      </trkpt>
      <trkpt lat="44.79419" lon="3.78089">
        <ele>875.4</ele>
        <time>2021-08-08T15:48:58Z</time>
      </trkpt>
      <trkpt lat="44.79416" lon="3.7809">
        <ele>876.5</ele>
        <time>2021-08-08T15:49:00Z</time>
      </trkpt>
      <trkpt lat="44.79412" lon="3.78091">
        <ele>877.2</ele>
        <time>2021-08-08T15:49:02Z</time>
      </trkpt>
      <trkpt lat="44.79409" lon="3.78092">
        <ele>877.8</ele>
        <time>2021-08-08T15:49:04Z</time>
      </trkpt>
      <trkpt lat="44.79405" lon="3.78093">
        <ele>878.5</ele>
        <time>2021-08-08T15:49:06Z</time>
      </trkpt>
      <trkpt lat="44.79402" lon="3.78094">
        <ele>879</ele>
        <time>2021-08-08T15:49:08Z</time>
      </trkpt>
      <trkpt lat="44.79398" lon="3.78094">
        <ele>879.6</ele>
        <time>2021-08-08T15:49:10Z</time>
      </trkpt>
      <trkpt lat="44.79395" lon="3.78095">
        <ele>880.2</ele>
        <time>2021-08-08T15:49:12Z</time>
      </trkpt>
      <trkpt lat="44.79391" lon="3.78095">
        <ele>880.7</ele>
        <time>2021-08-08T15:49:14Z</time>
      </trkpt>
      <trkpt lat="44.79388" lon="3.78095">
        <ele>881.2</ele>
        <time>2021-08-08T15:49:16Z</time>
      </trkpt>
      <trkpt lat="44.79385" lon="3.78095">
        <ele>881.7</ele>
        <time>2021-08-08T15:49:18Z</time>
      </trkpt>
      <trkpt lat="44.79381" lon="3.78095">
        <ele>882.2</ele>
        <time>2021-08-08T15:49:20Z</time>
      </trkpt>
      <trkpt lat="44.79377" lon="3.78094">
        <ele>882.7</ele>
        <time>2021-08-08T15:49:22Z</time>
      </trkpt>
      <trkpt lat="44.79374" lon="3.78092">
        <ele>883.1</ele>
        <time>2021-08-08T15:49:24Z</time>
      </trkpt>
      <trkpt lat="44.7937" lon="3.78091">
        <ele>883.5</ele>
        <time>2021-08-08T15:49:26Z</time>
      </trkpt>
      <trkpt lat="44.79366" lon="3.7809">
        <ele>884</ele>
        <time>2021-08-08T15:49:28Z</time>
      </trkpt>
      <trkpt lat="44.79363" lon="3.78088">
        <ele>884.3</ele>
        <time>2021-08-08T15:49:30Z</time>
      </trkpt>
      <trkpt lat="44.7936" lon="3.78084">
        <ele>884.3</ele>
        <time>2021-08-08T15:49:32Z</time>
      </trkpt>
      <trkpt lat="44.79357" lon="3.78081">
        <ele>884.7</ele>
        <time>2021-08-08T15:49:34Z</time>
      </trkpt>
      <trkpt lat="44.79353" lon="3.78078">
        <ele>885.2</ele>
        <time>2021-08-08T15:49:36Z</time>
      </trkpt>
      <trkpt lat="44.79351" lon="3.78074">
        <ele>885.6</ele>
        <time>2021-08-08T15:49:38Z</time>
      </trkpt>
      <trkpt lat="44.79348" lon="3.7807">
        <ele>886.1</ele>
        <time>2021-08-08T15:49:40Z</time>
      </trkpt>
      <trkpt lat="44.79344" lon="3.78068">
        <ele>886.8</ele>
        <time>2021-08-08T15:49:42Z</time>
      </trkpt>
      <trkpt lat="44.79341" lon="3.78067">
        <ele>887.3</ele>
        <time>2021-08-08T15:49:44Z</time>
      </trkpt>
      <trkpt lat="44.79337" lon="3.78068">
        <ele>887.8</ele>
        <time>2021-08-08T15:49:46Z</time>
      </trkpt>
      <trkpt lat="44.79335" lon="3.7807">
        <ele>888.1</ele>
        <time>2021-08-08T15:49:48Z</time>
      </trkpt>
      <trkpt lat="44.79332" lon="3.78073">
        <ele>888.3</ele>
        <time>2021-08-08T15:49:50Z</time>
      </trkpt>
      <trkpt lat="44.7933" lon="3.78078">
        <ele>888.2</ele>
        <time>2021-08-08T15:49:52Z</time>
      </trkpt>
      <trkpt lat="44.79329" lon="3.78083">
        <ele>888.1</ele>
        <time>2021-08-08T15:49:54Z</time>
      </trkpt>
      <trkpt lat="44.7933" lon="3.78089">
        <ele>888.8</ele>
        <time>2021-08-08T15:49:56Z</time>
      </trkpt>
      <trkpt lat="44.79334" lon="3.78093">
        <ele>889.2</ele>
        <time>2021-08-08T15:49:58Z</time>
      </trkpt>
      <trkpt lat="44.79336" lon="3.78096">
        <ele>889.3</ele>
        <time>2021-08-08T15:50:00Z</time>
      </trkpt>
      <trkpt lat="44.79337" lon="3.781">
        <ele>889.5</ele>
        <time>2021-08-08T15:50:02Z</time>
      </trkpt>
      <trkpt lat="44.79341" lon="3.78101">
        <ele>889.2</ele>
        <time>2021-08-08T15:50:04Z</time>
      </trkpt>
      <trkpt lat="44.79344" lon="3.78102">
        <ele>888.8</ele>
        <time>2021-08-08T15:50:06Z</time>
      </trkpt>
      <trkpt lat="44.79348" lon="3.78104">
        <ele>888.3</ele>
        <time>2021-08-08T15:50:08Z</time>
      </trkpt>
      <trkpt lat="44.79352" lon="3.78104">
        <ele>887.8</ele>
        <time>2021-08-08T15:50:10Z</time>
      </trkpt>
      <trkpt lat="44.79355" lon="3.78105">
        <ele>887.4</ele>
        <time>2021-08-08T15:50:12Z</time>
      </trkpt>
      <trkpt lat="44.79358" lon="3.78108">
        <ele>887.2</ele>
        <time>2021-08-08T15:50:14Z</time>
      </trkpt>
      <trkpt lat="44.79362" lon="3.7811">
        <ele>886.8</ele>
        <time>2021-08-08T15:50:16Z</time>
      </trkpt>
      <trkpt lat="44.79365" lon="3.78112">
        <ele>886.6</ele>
        <time>2021-08-08T15:50:18Z</time>
      </trkpt>
      <trkpt lat="44.79368" lon="3.78115">
        <ele>886.3</ele>
        <time>2021-08-08T15:50:20Z</time>
      </trkpt>
      <trkpt lat="44.79372" lon="3.78117">
        <ele>886</ele>
        <time>2021-08-08T15:50:22Z</time>
      </trkpt>
      <trkpt lat="44.79375" lon="3.78121">
        <ele>885.8</ele>
        <time>2021-08-08T15:50:24Z</time>
      </trkpt>
      <trkpt lat="44.79379" lon="3.78123">
        <ele>885.4</ele>
        <time>2021-08-08T15:50:26Z</time>
      </trkpt>
      <trkpt lat="44.79382" lon="3.78126">
        <ele>885.2</ele>
        <time>2021-08-08T15:50:28Z</time>
      </trkpt>
      <trkpt lat="44.79385" lon="3.78129">
        <ele>884.9</ele>
        <time>2021-08-08T15:50:30Z</time>
      </trkpt>
      <trkpt lat="44.79388" lon="3.78132">
        <ele>884.6</ele>
        <time>2021-08-08T15:50:32Z</time>
      </trkpt>
      <trkpt lat="44.79391" lon="3.78136">
        <ele>884.5</ele>
        <time>2021-08-08T15:50:34Z</time>
      </trkpt>
      <trkpt lat="44.79393" lon="3.78141">
        <ele>884.6</ele>
        <time>2021-08-08T15:50:36Z</time>
      </trkpt>
      <trkpt lat="44.79394" lon="3.78146">
        <ele>884.8</ele>
        <time>2021-08-08T15:50:38Z</time>
      </trkpt>
      <trkpt lat="44.79396" lon="3.78152">
        <ele>885</ele>
        <time>2021-08-08T15:50:40Z</time>
      </trkpt>
      <trkpt lat="44.79396" lon="3.78157">
        <ele>885.4</ele>
        <time>2021-08-08T15:50:42Z</time>
      </trkpt>
      <trkpt lat="44.79397" lon="3.78163">
        <ele>885.7</ele>
        <time>2021-08-08T15:50:44Z</time>
      </trkpt>
      <trkpt lat="44.79397" lon="3.78168">
        <ele>886.1</ele>
        <time>2021-08-08T15:50:46Z</time>
      </trkpt>
      <trkpt lat="44.79396" lon="3.78173">
        <ele>886.6</ele>
        <time>2021-08-08T15:50:48Z</time>
      </trkpt>
      <trkpt lat="44.79396" lon="3.78179">
        <ele>887</ele>
        <time>2021-08-08T15:50:50Z</time>
      </trkpt>
      <trkpt lat="44.79395" lon="3.78184">
        <ele>887.5</ele>
        <time>2021-08-08T15:50:52Z</time>
      </trkpt>
      <trkpt lat="44.79394" lon="3.78189">
        <ele>888</ele>
        <time>2021-08-08T15:50:54Z</time>
      </trkpt>
      <trkpt lat="44.79393" lon="3.78193">
        <ele>888.5</ele>
        <time>2021-08-08T15:50:56Z</time>
      </trkpt>
      <trkpt lat="44.79391" lon="3.78198">
        <ele>889</ele>
        <time>2021-08-08T15:50:58Z</time>
      </trkpt>
      <trkpt lat="44.7939" lon="3.78203">
        <ele>889.5</ele>
        <time>2021-08-08T15:51:00Z</time>
      </trkpt>
      <trkpt lat="44.79389" lon="3.78208">
        <ele>890</ele>
        <time>2021-08-08T15:51:02Z</time>
      </trkpt>
      <trkpt lat="44.79387" lon="3.78213">
        <ele>890.5</ele>
        <time>2021-08-08T15:51:04Z</time>
      </trkpt>
      <trkpt lat="44.79386" lon="3.78217">
        <ele>891.1</ele>
        <time>2021-08-08T15:51:06Z</time>
      </trkpt>
      <trkpt lat="44.79384" lon="3.78222">
        <ele>891.6</ele>
        <time>2021-08-08T15:51:08Z</time>
      </trkpt>
      <trkpt lat="44.79382" lon="3.78225">
        <ele>892.2</ele>
        <time>2021-08-08T15:51:10Z</time>
      </trkpt>
      <trkpt lat="44.7938" lon="3.78228">
        <ele>892.6</ele>
        <time>2021-08-08T15:51:12Z</time>
      </trkpt>
      <trkpt lat="44.79378" lon="3.78232">
        <ele>893.1</ele>
        <time>2021-08-08T15:51:14Z</time>
      </trkpt>
      <trkpt lat="44.79375" lon="3.78237">
        <ele>893.8</ele>
        <time>2021-08-08T15:51:16Z</time>
      </trkpt>
      <trkpt lat="44.79373" lon="3.7824">
        <ele>894.4</ele>
        <time>2021-08-08T15:51:18Z</time>
      </trkpt>
      <trkpt lat="44.79371" lon="3.78244">
        <ele>894.9</ele>
        <time>2021-08-08T15:51:20Z</time>
      </trkpt>
      <trkpt lat="44.79368" lon="3.78248">
        <ele>895.4</ele>
        <time>2021-08-08T15:51:22Z</time>
      </trkpt>
      <trkpt lat="44.79366" lon="3.78251">
        <ele>895.9</ele>
        <time>2021-08-08T15:51:24Z</time>
      </trkpt>
      <trkpt lat="44.79363" lon="3.78254">
        <ele>896.2</ele>
        <time>2021-08-08T15:51:26Z</time>
      </trkpt>
      <trkpt lat="44.79361" lon="3.78258">
        <ele>896.4</ele>
        <time>2021-08-08T15:51:28Z</time>
      </trkpt>
      <trkpt lat="44.79358" lon="3.78261">
        <ele>896.8</ele>
        <time>2021-08-08T15:51:30Z</time>
      </trkpt>
      <trkpt lat="44.79355" lon="3.78264">
        <ele>897.2</ele>
        <time>2021-08-08T15:51:32Z</time>
      </trkpt>
      <trkpt lat="44.79352" lon="3.78267">
        <ele>897.7</ele>
        <time>2021-08-08T15:51:34Z</time>
      </trkpt>
      <trkpt lat="44.79349" lon="3.7827">
        <ele>898.1</ele>
        <time>2021-08-08T15:51:36Z</time>
      </trkpt>
      <trkpt lat="44.79345" lon="3.78273">
        <ele>898.6</ele>
        <time>2021-08-08T15:51:38Z</time>
      </trkpt>
      <trkpt lat="44.79342" lon="3.78276">
        <ele>899.1</ele>
        <time>2021-08-08T15:51:40Z</time>
      </trkpt>
      <trkpt lat="44.79339" lon="3.78279">
        <ele>899.6</ele>
        <time>2021-08-08T15:51:42Z</time>
      </trkpt>
      <trkpt lat="44.79336" lon="3.78281">
        <ele>900.1</ele>
        <time>2021-08-08T15:51:44Z</time>
      </trkpt>
      <trkpt lat="44.79333" lon="3.78284">
        <ele>900.7</ele>
        <time>2021-08-08T15:51:46Z</time>
      </trkpt>
      <trkpt lat="44.79329" lon="3.78286">
        <ele>901.2</ele>
        <time>2021-08-08T15:51:48Z</time>
      </trkpt>
      <trkpt lat="44.79326" lon="3.78287">
        <ele>901.7</ele>
        <time>2021-08-08T15:51:50Z</time>
      </trkpt>
      <trkpt lat="44.79323" lon="3.78289">
        <ele>902.2</ele>
        <time>2021-08-08T15:51:52Z</time>
      </trkpt>
      <trkpt lat="44.7932" lon="3.78291">
        <ele>902.6</ele>
        <time>2021-08-08T15:51:54Z</time>
      </trkpt>
      <trkpt lat="44.79317" lon="3.78292">
        <ele>903.1</ele>
        <time>2021-08-08T15:51:56Z</time>
      </trkpt>
      <trkpt lat="44.79315" lon="3.78294">
        <ele>903.4</ele>
        <time>2021-08-08T15:51:58Z</time>
      </trkpt>
      <trkpt lat="44.79313" lon="3.78295">
        <ele>903.8</ele>
        <time>2021-08-08T15:52:00Z</time>
      </trkpt>
      <trkpt lat="44.7931" lon="3.78296">
        <ele>904.3</ele>
        <time>2021-08-08T15:52:02Z</time>
      </trkpt>
      <trkpt lat="44.79308" lon="3.78298">
        <ele>904.7</ele>
        <time>2021-08-08T15:52:04Z</time>
      </trkpt>
      <trkpt lat="44.79306" lon="3.78299">
        <ele>904.9</ele>
        <time>2021-08-08T15:52:06Z</time>
      </trkpt>
      <trkpt lat="44.79303" lon="3.78302">
        <ele>905.4</ele>
        <time>2021-08-08T15:52:08Z</time>
      </trkpt>
      <trkpt lat="44.79302" lon="3.78303">
        <ele>905.6</ele>
        <time>2021-08-08T15:52:10Z</time>
      </trkpt>
      <trkpt lat="44.79298" lon="3.78305">
        <ele>906.2</ele>
        <time>2021-08-08T15:52:12Z</time>
      </trkpt>
      <trkpt lat="44.79296" lon="3.78307">
        <ele>906.7</ele>
        <time>2021-08-08T15:52:14Z</time>
      </trkpt>
      <trkpt lat="44.79293" lon="3.78308">
        <ele>907.2</ele>
        <time>2021-08-08T15:52:16Z</time>
      </trkpt>
      <trkpt lat="44.7929" lon="3.7831">
        <ele>907.7</ele>
        <time>2021-08-08T15:52:18Z</time>
      </trkpt>
      <trkpt lat="44.79288" lon="3.7831">
        <ele>908</ele>
        <time>2021-08-08T15:52:20Z</time>
      </trkpt>
      <trkpt lat="44.79285" lon="3.78313">
        <ele>908.4</ele>
        <time>2021-08-08T15:52:22Z</time>
      </trkpt>
      <trkpt lat="44.79282" lon="3.78314">
        <ele>909</ele>
        <time>2021-08-08T15:52:24Z</time>
      </trkpt>
      <trkpt lat="44.7928" lon="3.78316">
        <ele>909.4</ele>
        <time>2021-08-08T15:52:26Z</time>
      </trkpt>
      <trkpt lat="44.79276" lon="3.78319">
        <ele>910.1</ele>
        <time>2021-08-08T15:52:28Z</time>
      </trkpt>
      <trkpt lat="44.79274" lon="3.78321">
        <ele>910.5</ele>
        <time>2021-08-08T15:52:30Z</time>
      </trkpt>
      <trkpt lat="44.79272" lon="3.78325">
        <ele>910.9</ele>
        <time>2021-08-08T15:52:32Z</time>
      </trkpt>
      <trkpt lat="44.79269" lon="3.78329">
        <ele>911.4</ele>
        <time>2021-08-08T15:52:34Z</time>
      </trkpt>
      <trkpt lat="44.79267" lon="3.78333">
        <ele>912</ele>
        <time>2021-08-08T15:52:36Z</time>
      </trkpt>
      <trkpt lat="44.79265" lon="3.78338">
        <ele>912.1</ele>
        <time>2021-08-08T15:52:38Z</time>
      </trkpt>
      <trkpt lat="44.79263" lon="3.78342">
        <ele>912.2</ele>
        <time>2021-08-08T15:52:40Z</time>
      </trkpt>
      <trkpt lat="44.79261" lon="3.78347">
        <ele>912.3</ele>
        <time>2021-08-08T15:52:42Z</time>
      </trkpt>
      <trkpt lat="44.7926" lon="3.78351">
        <ele>912.2</ele>
        <time>2021-08-08T15:52:44Z</time>
      </trkpt>
      <trkpt lat="44.79259" lon="3.78356">
        <ele>912.2</ele>
        <time>2021-08-08T15:52:46Z</time>
      </trkpt>
      <trkpt lat="44.79259" lon="3.78358">
        <ele>912.2</ele>
        <time>2021-08-08T15:52:48Z</time>
      </trkpt>
      <trkpt lat="44.79257" lon="3.78362">
        <ele>912.3</ele>
        <time>2021-08-08T15:52:50Z</time>
      </trkpt>
      <trkpt lat="44.79255" lon="3.78366">
        <ele>912.4</ele>
        <time>2021-08-08T15:52:52Z</time>
      </trkpt>
      <trkpt lat="44.79254" lon="3.78369">
        <ele>912.5</ele>
        <time>2021-08-08T15:52:54Z</time>
      </trkpt>
      <trkpt lat="44.79252" lon="3.78372">
        <ele>912.7</ele>
        <time>2021-08-08T15:52:56Z</time>
      </trkpt>
      <trkpt lat="44.7925" lon="3.78375">
        <ele>912.9</ele>
        <time>2021-08-08T15:52:58Z</time>
      </trkpt>
      <trkpt lat="44.79248" lon="3.78377">
        <ele>913.1</ele>
        <time>2021-08-08T15:53:00Z</time>
      </trkpt>
      <trkpt lat="44.79243" lon="3.78381">
        <ele>913.4</ele>
        <time>2021-08-08T15:53:02Z</time>
      </trkpt>
      <trkpt lat="44.79241" lon="3.78383">
        <ele>913.5</ele>
        <time>2021-08-08T15:53:04Z</time>
      </trkpt>
      <trkpt lat="44.79238" lon="3.78384">
        <ele>913.7</ele>
        <time>2021-08-08T15:53:06Z</time>
      </trkpt>
      <trkpt lat="44.79234" lon="3.78385">
        <ele>914.1</ele>
        <time>2021-08-08T15:53:08Z</time>
      </trkpt>
      <trkpt lat="44.79229" lon="3.78386">
        <ele>914.5</ele>
        <time>2021-08-08T15:53:10Z</time>
      </trkpt>
      <trkpt lat="44.79226" lon="3.78385">
        <ele>914.9</ele>
        <time>2021-08-08T15:53:12Z</time>
      </trkpt>
      <trkpt lat="44.79222" lon="3.78386">
        <ele>915.3</ele>
        <time>2021-08-08T15:53:14Z</time>
      </trkpt>
      <trkpt lat="44.79218" lon="3.78386">
        <ele>915.7</ele>
        <time>2021-08-08T15:53:16Z</time>
      </trkpt>
      <trkpt lat="44.79213" lon="3.78387">
        <ele>916.1</ele>
        <time>2021-08-08T15:53:18Z</time>
      </trkpt>
      <trkpt lat="44.7921" lon="3.78388">
        <ele>916.4</ele>
        <time>2021-08-08T15:53:20Z</time>
      </trkpt>
      <trkpt lat="44.79207" lon="3.78389">
        <ele>916.7</ele>
        <time>2021-08-08T15:53:22Z</time>
      </trkpt>
      <trkpt lat="44.79203" lon="3.78389">
        <ele>917</ele>
        <time>2021-08-08T15:53:24Z</time>
      </trkpt>
      <trkpt lat="44.792" lon="3.78389">
        <ele>917.3</ele>
        <time>2021-08-08T15:53:26Z</time>
      </trkpt>
      <trkpt lat="44.79197" lon="3.7839">
        <ele>917.6</ele>
        <time>2021-08-08T15:53:28Z</time>
      </trkpt>
      <trkpt lat="44.79193" lon="3.78391">
        <ele>918</ele>
        <time>2021-08-08T15:53:30Z</time>
      </trkpt>
      <trkpt lat="44.79189" lon="3.78393">
        <ele>918.3</ele>
        <time>2021-08-08T15:53:32Z</time>
      </trkpt>
      <trkpt lat="44.79187" lon="3.78395">
        <ele>918.5</ele>
        <time>2021-08-08T15:53:34Z</time>
      </trkpt>
      <trkpt lat="44.79183" lon="3.78397">
        <ele>918.7</ele>
        <time>2021-08-08T15:53:36Z</time>
      </trkpt>
      <trkpt lat="44.7918" lon="3.78399">
        <ele>919.1</ele>
        <time>2021-08-08T15:53:38Z</time>
      </trkpt>
      <trkpt lat="44.79178" lon="3.78402">
        <ele>919.2</ele>
        <time>2021-08-08T15:53:40Z</time>
      </trkpt>
      <trkpt lat="44.79175" lon="3.78405">
        <ele>919.4</ele>
        <time>2021-08-08T15:53:42Z</time>
      </trkpt>
      <trkpt lat="44.7917" lon="3.78408">
        <ele>919.8</ele>
        <time>2021-08-08T15:53:44Z</time>
      </trkpt>
      <trkpt lat="44.79167" lon="3.78411">
        <ele>920.1</ele>
        <time>2021-08-08T15:53:46Z</time>
      </trkpt>
      <trkpt lat="44.79165" lon="3.78413">
        <ele>920.3</ele>
        <time>2021-08-08T15:53:48Z</time>
      </trkpt>
      <trkpt lat="44.79161" lon="3.78417">
        <ele>920.6</ele>
        <time>2021-08-08T15:53:50Z</time>
      </trkpt>
      <trkpt lat="44.79157" lon="3.78418">
        <ele>920.9</ele>
        <time>2021-08-08T15:53:52Z</time>
      </trkpt>
      <trkpt lat="44.79155" lon="3.7842">
        <ele>921.1</ele>
        <time>2021-08-08T15:53:54Z</time>
      </trkpt>
      <trkpt lat="44.79152" lon="3.78423">
        <ele>921.1</ele>
        <time>2021-08-08T15:53:56Z</time>
      </trkpt>
      <trkpt lat="44.79149" lon="3.78425">
        <ele>921.4</ele>
        <time>2021-08-08T15:53:58Z</time>
      </trkpt>
      <trkpt lat="44.79145" lon="3.78428">
        <ele>921.5</ele>
        <time>2021-08-08T15:54:00Z</time>
      </trkpt>
      <trkpt lat="44.79143" lon="3.7843">
        <ele>921.6</ele>
        <time>2021-08-08T15:54:02Z</time>
      </trkpt>
      <trkpt lat="44.79138" lon="3.78432">
        <ele>921.9</ele>
        <time>2021-08-08T15:54:04Z</time>
      </trkpt>
      <trkpt lat="44.79135" lon="3.78433">
        <ele>922.3</ele>
        <time>2021-08-08T15:54:06Z</time>
      </trkpt>
      <trkpt lat="44.7913" lon="3.78435">
        <ele>922.7</ele>
        <time>2021-08-08T15:54:08Z</time>
      </trkpt>
      <trkpt lat="44.79127" lon="3.78436">
        <ele>923.1</ele>
        <time>2021-08-08T15:54:10Z</time>
      </trkpt>
      <trkpt lat="44.79124" lon="3.78437">
        <ele>923.4</ele>
        <time>2021-08-08T15:54:12Z</time>
      </trkpt>
      <trkpt lat="44.79119" lon="3.78439">
        <ele>923.7</ele>
        <time>2021-08-08T15:54:14Z</time>
      </trkpt>
      <trkpt lat="44.79115" lon="3.7844">
        <ele>924.2</ele>
        <time>2021-08-08T15:54:16Z</time>
      </trkpt>
      <trkpt lat="44.79111" lon="3.78441">
        <ele>924.5</ele>
        <time>2021-08-08T15:54:18Z</time>
      </trkpt>
      <trkpt lat="44.79107" lon="3.78442">
        <ele>924.9</ele>
        <time>2021-08-08T15:54:20Z</time>
      </trkpt>
      <trkpt lat="44.79104" lon="3.78443">
        <ele>925.3</ele>
        <time>2021-08-08T15:54:22Z</time>
      </trkpt>
      <trkpt lat="44.79099" lon="3.78444">
        <ele>925.8</ele>
        <time>2021-08-08T15:54:24Z</time>
      </trkpt>
      <trkpt lat="44.79094" lon="3.78445">
        <ele>926.2</ele>
        <time>2021-08-08T15:54:26Z</time>
      </trkpt>
      <trkpt lat="44.79089" lon="3.78447">
        <ele>926.7</ele>
        <time>2021-08-08T15:54:28Z</time>
      </trkpt>
      <trkpt lat="44.79084" lon="3.78448">
        <ele>927.2</ele>
        <time>2021-08-08T15:54:30Z</time>
      </trkpt>
      <trkpt lat="44.7908" lon="3.78449">
        <ele>927.4</ele>
        <time>2021-08-08T15:54:32Z</time>
      </trkpt>
      <trkpt lat="44.79075" lon="3.7845">
        <ele>927.4</ele>
        <time>2021-08-08T15:54:34Z</time>
      </trkpt>
      <trkpt lat="44.79071" lon="3.7845">
        <ele>927.5</ele>
        <time>2021-08-08T15:54:36Z</time>
      </trkpt>
      <trkpt lat="44.79066" lon="3.7845">
        <ele>927.7</ele>
        <time>2021-08-08T15:54:38Z</time>
      </trkpt>
      <trkpt lat="44.79061" lon="3.7845">
        <ele>927.8</ele>
        <time>2021-08-08T15:54:40Z</time>
      </trkpt>
      <trkpt lat="44.79056" lon="3.7845">
        <ele>927.9</ele>
        <time>2021-08-08T15:54:42Z</time>
      </trkpt>
      <trkpt lat="44.79052" lon="3.78448">
        <ele>928.2</ele>
        <time>2021-08-08T15:54:44Z</time>
      </trkpt>
      <trkpt lat="44.79047" lon="3.78447">
        <ele>928.4</ele>
        <time>2021-08-08T15:54:46Z</time>
      </trkpt>
      <trkpt lat="44.79041" lon="3.78446">
        <ele>928.6</ele>
        <time>2021-08-08T15:54:48Z</time>
      </trkpt>
      <trkpt lat="44.79036" lon="3.78444">
        <ele>928.8</ele>
        <time>2021-08-08T15:54:50Z</time>
      </trkpt>
      <trkpt lat="44.7903" lon="3.78444">
        <ele>929</ele>
        <time>2021-08-08T15:54:52Z</time>
      </trkpt>
      <trkpt lat="44.79025" lon="3.78442">
        <ele>929.2</ele>
        <time>2021-08-08T15:54:54Z</time>
      </trkpt>
      <trkpt lat="44.7902" lon="3.7844">
        <ele>929.4</ele>
        <time>2021-08-08T15:54:56Z</time>
      </trkpt>
      <trkpt lat="44.79015" lon="3.78439">
        <ele>929.6</ele>
        <time>2021-08-08T15:54:58Z</time>
      </trkpt>
      <trkpt lat="44.79009" lon="3.78437">
        <ele>929.8</ele>
        <time>2021-08-08T15:55:00Z</time>
      </trkpt>
      <trkpt lat="44.79005" lon="3.78435">
        <ele>930</ele>
        <time>2021-08-08T15:55:02Z</time>
      </trkpt>
      <trkpt lat="44.79" lon="3.78434">
        <ele>930.2</ele>
        <time>2021-08-08T15:55:04Z</time>
      </trkpt>
      <trkpt lat="44.78995" lon="3.78434">
        <ele>930</ele>
        <time>2021-08-08T15:55:06Z</time>
      </trkpt>
      <trkpt lat="44.7899" lon="3.78433">
        <ele>929.8</ele>
        <time>2021-08-08T15:55:08Z</time>
      </trkpt>
      <trkpt lat="44.78985" lon="3.78433">
        <ele>929.7</ele>
        <time>2021-08-08T15:55:10Z</time>
      </trkpt>
      <trkpt lat="44.7898" lon="3.78432">
        <ele>929.5</ele>
        <time>2021-08-08T15:55:12Z</time>
      </trkpt>
      <trkpt lat="44.78976" lon="3.78431">
        <ele>929.3</ele>
        <time>2021-08-08T15:55:14Z</time>
      </trkpt>
      <trkpt lat="44.78971" lon="3.78431">
        <ele>929.1</ele>
        <time>2021-08-08T15:55:16Z</time>
      </trkpt>
      <trkpt lat="44.78966" lon="3.78432">
        <ele>928.9</ele>
        <time>2021-08-08T15:55:18Z</time>
      </trkpt>
      <trkpt lat="44.78961" lon="3.78433">
        <ele>928.7</ele>
        <time>2021-08-08T15:55:20Z</time>
      </trkpt>
      <trkpt lat="44.78956" lon="3.78435">
        <ele>928.5</ele>
        <time>2021-08-08T15:55:22Z</time>
      </trkpt>
      <trkpt lat="44.78952" lon="3.78437">
        <ele>928.3</ele>
        <time>2021-08-08T15:55:24Z</time>
      </trkpt>
      <trkpt lat="44.78947" lon="3.78439">
        <ele>928.1</ele>
        <time>2021-08-08T15:55:26Z</time>
      </trkpt>
      <trkpt lat="44.78943" lon="3.78443">
        <ele>927.9</ele>
        <time>2021-08-08T15:55:28Z</time>
      </trkpt>
      <trkpt lat="44.78938" lon="3.78445">
        <ele>927.7</ele>
        <time>2021-08-08T15:55:30Z</time>
      </trkpt>
      <trkpt lat="44.78934" lon="3.78448">
        <ele>927.5</ele>
        <time>2021-08-08T15:55:32Z</time>
      </trkpt>
      <trkpt lat="44.7893" lon="3.78452">
        <ele>927.4</ele>
        <time>2021-08-08T15:55:34Z</time>
      </trkpt>
      <trkpt lat="44.78926" lon="3.78457">
        <ele>927.2</ele>
        <time>2021-08-08T15:55:36Z</time>
      </trkpt>
      <trkpt lat="44.78922" lon="3.78461">
        <ele>927.1</ele>
        <time>2021-08-08T15:55:38Z</time>
      </trkpt>
      <trkpt lat="44.78918" lon="3.78466">
        <ele>927</ele>
        <time>2021-08-08T15:55:40Z</time>
      </trkpt>
      <trkpt lat="44.78915" lon="3.78471">
        <ele>927.1</ele>
        <time>2021-08-08T15:55:42Z</time>
      </trkpt>
      <trkpt lat="44.78912" lon="3.78476">
        <ele>927.2</ele>
        <time>2021-08-08T15:55:44Z</time>
      </trkpt>
      <trkpt lat="44.78908" lon="3.78481">
        <ele>927.3</ele>
        <time>2021-08-08T15:55:46Z</time>
      </trkpt>
      <trkpt lat="44.78905" lon="3.78487">
        <ele>927.4</ele>
        <time>2021-08-08T15:55:48Z</time>
      </trkpt>
      <trkpt lat="44.78901" lon="3.78491">
        <ele>927.4</ele>
        <time>2021-08-08T15:55:50Z</time>
      </trkpt>
      <trkpt lat="44.78897" lon="3.78495">
        <ele>927.5</ele>
        <time>2021-08-08T15:55:52Z</time>
      </trkpt>
      <trkpt lat="44.78893" lon="3.78497">
        <ele>927.6</ele>
        <time>2021-08-08T15:55:54Z</time>
      </trkpt>
      <trkpt lat="44.78888" lon="3.785">
        <ele>927.7</ele>
        <time>2021-08-08T15:55:56Z</time>
      </trkpt>
      <trkpt lat="44.78883" lon="3.78501">
        <ele>927.8</ele>
        <time>2021-08-08T15:55:58Z</time>
      </trkpt>
      <trkpt lat="44.78877" lon="3.78501">
        <ele>927.9</ele>
        <time>2021-08-08T15:56:00Z</time>
      </trkpt>
      <trkpt lat="44.78872" lon="3.78501">
        <ele>928</ele>
        <time>2021-08-08T15:56:02Z</time>
      </trkpt>
      <trkpt lat="44.78867" lon="3.78501">
        <ele>928.2</ele>
        <time>2021-08-08T15:56:04Z</time>
      </trkpt>
      <trkpt lat="44.78861" lon="3.78501">
        <ele>928.3</ele>
        <time>2021-08-08T15:56:06Z</time>
      </trkpt>
      <trkpt lat="44.78856" lon="3.78501">
        <ele>928.4</ele>
        <time>2021-08-08T15:56:08Z</time>
      </trkpt>
      <trkpt lat="44.78851" lon="3.785">
        <ele>928.6</ele>
        <time>2021-08-08T15:56:10Z</time>
      </trkpt>
      <trkpt lat="44.78846" lon="3.78499">
        <ele>928.7</ele>
        <time>2021-08-08T15:56:12Z</time>
      </trkpt>
      <trkpt lat="44.78841" lon="3.78499">
        <ele>928.8</ele>
        <time>2021-08-08T15:56:14Z</time>
      </trkpt>
      <trkpt lat="44.78837" lon="3.78498">
        <ele>929</ele>
        <time>2021-08-08T15:56:16Z</time>
      </trkpt>
      <trkpt lat="44.78832" lon="3.78498">
        <ele>929.2</ele>
        <time>2021-08-08T15:56:18Z</time>
      </trkpt>
      <trkpt lat="44.78827" lon="3.78498">
        <ele>929.8</ele>
        <time>2021-08-08T15:56:20Z</time>
      </trkpt>
      <trkpt lat="44.78823" lon="3.78497">
        <ele>930.3</ele>
        <time>2021-08-08T15:56:22Z</time>
      </trkpt>
      <trkpt lat="44.78818" lon="3.78497">
        <ele>930.7</ele>
        <time>2021-08-08T15:56:24Z</time>
      </trkpt>
      <trkpt lat="44.78814" lon="3.78496">
        <ele>931.2</ele>
        <time>2021-08-08T15:56:26Z</time>
      </trkpt>
      <trkpt lat="44.7881" lon="3.78496">
        <ele>931.7</ele>
        <time>2021-08-08T15:56:28Z</time>
      </trkpt>
      <trkpt lat="44.78806" lon="3.78495">
        <ele>932.2</ele>
        <time>2021-08-08T15:56:30Z</time>
      </trkpt>
      <trkpt lat="44.78802" lon="3.78495">
        <ele>932.7</ele>
        <time>2021-08-08T15:56:32Z</time>
      </trkpt>
      <trkpt lat="44.78798" lon="3.78494">
        <ele>933.1</ele>
        <time>2021-08-08T15:56:34Z</time>
      </trkpt>
      <trkpt lat="44.78794" lon="3.78494">
        <ele>933.5</ele>
        <time>2021-08-08T15:56:36Z</time>
      </trkpt>
      <trkpt lat="44.7879" lon="3.78493">
        <ele>934</ele>
        <time>2021-08-08T15:56:38Z</time>
      </trkpt>
      <trkpt lat="44.78786" lon="3.78493">
        <ele>934.4</ele>
        <time>2021-08-08T15:56:40Z</time>
      </trkpt>
      <trkpt lat="44.78782" lon="3.78493">
        <ele>934.8</ele>
        <time>2021-08-08T15:56:42Z</time>
      </trkpt>
      <trkpt lat="44.78779" lon="3.78493">
        <ele>935.3</ele>
        <time>2021-08-08T15:56:44Z</time>
      </trkpt>
      <trkpt lat="44.78775" lon="3.78492">
        <ele>935.7</ele>
        <time>2021-08-08T15:56:46Z</time>
      </trkpt>
      <trkpt lat="44.78771" lon="3.78492">
        <ele>936.2</ele>
        <time>2021-08-08T15:56:48Z</time>
      </trkpt>
      <trkpt lat="44.78767" lon="3.78491">
        <ele>936.7</ele>
        <time>2021-08-08T15:56:50Z</time>
      </trkpt>
      <trkpt lat="44.78763" lon="3.78491">
        <ele>937.1</ele>
        <time>2021-08-08T15:56:52Z</time>
      </trkpt>
      <trkpt lat="44.78759" lon="3.7849">
        <ele>937.6</ele>
        <time>2021-08-08T15:56:54Z</time>
      </trkpt>
      <trkpt lat="44.78756" lon="3.78491">
        <ele>937.9</ele>
        <time>2021-08-08T15:56:56Z</time>
      </trkpt>
      <trkpt lat="44.78752" lon="3.7849">
        <ele>938.4</ele>
        <time>2021-08-08T15:56:58Z</time>
      </trkpt>
      <trkpt lat="44.78748" lon="3.7849">
        <ele>938.9</ele>
        <time>2021-08-08T15:57:00Z</time>
      </trkpt>
      <trkpt lat="44.78744" lon="3.78489">
        <ele>939.4</ele>
        <time>2021-08-08T15:57:02Z</time>
      </trkpt>
      <trkpt lat="44.7874" lon="3.78488">
        <ele>939.8</ele>
        <time>2021-08-08T15:57:04Z</time>
      </trkpt>
      <trkpt lat="44.78736" lon="3.78487">
        <ele>940.3</ele>
        <time>2021-08-08T15:57:06Z</time>
      </trkpt>
      <trkpt lat="44.78732" lon="3.78487">
        <ele>940.7</ele>
        <time>2021-08-08T15:57:08Z</time>
      </trkpt>
      <trkpt lat="44.78728" lon="3.78487">
        <ele>941.2</ele>
        <time>2021-08-08T15:57:10Z</time>
      </trkpt>
      <trkpt lat="44.78724" lon="3.78485">
        <ele>941.6</ele>
        <time>2021-08-08T15:57:12Z</time>
      </trkpt>
      <trkpt lat="44.7872" lon="3.78484">
        <ele>942.1</ele>
        <time>2021-08-08T15:57:14Z</time>
      </trkpt>
      <trkpt lat="44.78716" lon="3.78483">
        <ele>942.6</ele>
        <time>2021-08-08T15:57:16Z</time>
      </trkpt>
      <trkpt lat="44.78712" lon="3.78482">
        <ele>943</ele>
        <time>2021-08-08T15:57:18Z</time>
      </trkpt>
      <trkpt lat="44.78708" lon="3.78481">
        <ele>943.5</ele>
        <time>2021-08-08T15:57:20Z</time>
      </trkpt>
      <trkpt lat="44.78704" lon="3.7848">
        <ele>943.9</ele>
        <time>2021-08-08T15:57:22Z</time>
      </trkpt>
      <trkpt lat="44.78701" lon="3.78479">
        <ele>944.3</ele>
        <time>2021-08-08T15:57:24Z</time>
      </trkpt>
      <trkpt lat="44.78697" lon="3.78477">
        <ele>944.7</ele>
        <time>2021-08-08T15:57:26Z</time>
      </trkpt>
      <trkpt lat="44.78694" lon="3.78476">
        <ele>945</ele>
        <time>2021-08-08T15:57:28Z</time>
      </trkpt>
      <trkpt lat="44.78689" lon="3.78475">
        <ele>945.5</ele>
        <time>2021-08-08T15:57:30Z</time>
      </trkpt>
      <trkpt lat="44.78686" lon="3.78473">
        <ele>945.8</ele>
        <time>2021-08-08T15:57:32Z</time>
      </trkpt>
      <trkpt lat="44.78683" lon="3.78472">
        <ele>946.1</ele>
        <time>2021-08-08T15:57:34Z</time>
      </trkpt>
      <trkpt lat="44.7868" lon="3.78471">
        <ele>946.4</ele>
        <time>2021-08-08T15:57:36Z</time>
      </trkpt>
      <trkpt lat="44.78677" lon="3.78469">
        <ele>946.7</ele>
        <time>2021-08-08T15:57:38Z</time>
      </trkpt>
      <trkpt lat="44.78674" lon="3.78467">
        <ele>947</ele>
        <time>2021-08-08T15:57:40Z</time>
      </trkpt>
      <trkpt lat="44.7867" lon="3.78465">
        <ele>947.2</ele>
        <time>2021-08-08T15:57:42Z</time>
      </trkpt>
      <trkpt lat="44.78667" lon="3.78463">
        <ele>947.5</ele>
        <time>2021-08-08T15:57:44Z</time>
      </trkpt>
      <trkpt lat="44.78664" lon="3.7846">
        <ele>947.8</ele>
        <time>2021-08-08T15:57:46Z</time>
      </trkpt>
      <trkpt lat="44.78661" lon="3.78459">
        <ele>948</ele>
        <time>2021-08-08T15:57:48Z</time>
      </trkpt>
      <trkpt lat="44.78658" lon="3.78457">
        <ele>948.4</ele>
        <time>2021-08-08T15:57:50Z</time>
      </trkpt>
      <trkpt lat="44.78654" lon="3.78455">
        <ele>948.7</ele>
        <time>2021-08-08T15:57:52Z</time>
      </trkpt>
      <trkpt lat="44.78651" lon="3.78453">
        <ele>948.9</ele>
        <time>2021-08-08T15:57:54Z</time>
      </trkpt>
      <trkpt lat="44.78647" lon="3.78451">
        <ele>949.3</ele>
        <time>2021-08-08T15:57:56Z</time>
      </trkpt>
      <trkpt lat="44.78644" lon="3.7845">
        <ele>949.6</ele>
        <time>2021-08-08T15:57:58Z</time>
      </trkpt>
      <trkpt lat="44.7864" lon="3.78449">
        <ele>950</ele>
        <time>2021-08-08T15:58:00Z</time>
      </trkpt>
      <trkpt lat="44.78637" lon="3.78447">
        <ele>950.3</ele>
        <time>2021-08-08T15:58:02Z</time>
      </trkpt>
      <trkpt lat="44.78633" lon="3.78447">
        <ele>950.7</ele>
        <time>2021-08-08T15:58:04Z</time>
      </trkpt>
      <trkpt lat="44.7863" lon="3.78445">
        <ele>951</ele>
        <time>2021-08-08T15:58:06Z</time>
      </trkpt>
      <trkpt lat="44.78627" lon="3.78444">
        <ele>951.3</ele>
        <time>2021-08-08T15:58:08Z</time>
      </trkpt>
      <trkpt lat="44.78624" lon="3.78443">
        <ele>951.6</ele>
        <time>2021-08-08T15:58:10Z</time>
      </trkpt>
      <trkpt lat="44.78621" lon="3.78442">
        <ele>951.9</ele>
        <time>2021-08-08T15:58:12Z</time>
      </trkpt>
      <trkpt lat="44.78618" lon="3.78442">
        <ele>952.2</ele>
        <time>2021-08-08T15:58:14Z</time>
      </trkpt>
      <trkpt lat="44.78616" lon="3.78443">
        <ele>952.4</ele>
        <time>2021-08-08T15:58:16Z</time>
      </trkpt>
      <trkpt lat="44.78613" lon="3.78444">
        <ele>952.7</ele>
        <time>2021-08-08T15:58:18Z</time>
      </trkpt>
      <trkpt lat="44.7861" lon="3.78445">
        <ele>953</ele>
        <time>2021-08-08T15:58:20Z</time>
      </trkpt>
      <trkpt lat="44.78607" lon="3.78446">
        <ele>953.3</ele>
        <time>2021-08-08T15:58:22Z</time>
      </trkpt>
      <trkpt lat="44.78604" lon="3.78449">
        <ele>953.6</ele>
        <time>2021-08-08T15:58:24Z</time>
      </trkpt>
      <trkpt lat="44.78601" lon="3.78451">
        <ele>953.9</ele>
        <time>2021-08-08T15:58:26Z</time>
      </trkpt>
      <trkpt lat="44.78598" lon="3.78453">
        <ele>954.1</ele>
        <time>2021-08-08T15:58:28Z</time>
      </trkpt>
      <trkpt lat="44.78594" lon="3.78456">
        <ele>954.4</ele>
        <time>2021-08-08T15:58:30Z</time>
      </trkpt>
      <trkpt lat="44.78591" lon="3.78458">
        <ele>954.8</ele>
        <time>2021-08-08T15:58:32Z</time>
      </trkpt>
      <trkpt lat="44.78588" lon="3.78459">
        <ele>955</ele>
        <time>2021-08-08T15:58:34Z</time>
      </trkpt>
      <trkpt lat="44.78587" lon="3.78461">
        <ele>955.1</ele>
        <time>2021-08-08T15:58:36Z</time>
      </trkpt>
      <trkpt lat="44.78584" lon="3.78462">
        <ele>955.4</ele>
        <time>2021-08-08T15:58:38Z</time>
      </trkpt>
      <trkpt lat="44.7858" lon="3.78464">
        <ele>955.5</ele>
        <time>2021-08-08T15:58:40Z</time>
      </trkpt>
      <trkpt lat="44.78576" lon="3.78465">
        <ele>955.7</ele>
        <time>2021-08-08T15:58:42Z</time>
      </trkpt>
      <trkpt lat="44.78572" lon="3.78467">
        <ele>955.8</ele>
        <time>2021-08-08T15:58:44Z</time>
      </trkpt>
      <trkpt lat="44.78569" lon="3.78469">
        <ele>955.9</ele>
        <time>2021-08-08T15:58:46Z</time>
      </trkpt>
      <trkpt lat="44.78566" lon="3.78471">
        <ele>956</ele>
        <time>2021-08-08T15:58:48Z</time>
      </trkpt>
      <trkpt lat="44.78563" lon="3.78472">
        <ele>956.1</ele>
        <time>2021-08-08T15:58:50Z</time>
      </trkpt>
      <trkpt lat="44.7856" lon="3.78472">
        <ele>956.3</ele>
        <time>2021-08-08T15:58:52Z</time>
      </trkpt>
      <trkpt lat="44.78556" lon="3.78473">
        <ele>956.4</ele>
        <time>2021-08-08T15:58:54Z</time>
      </trkpt>
      <trkpt lat="44.78553" lon="3.78473">
        <ele>956.5</ele>
        <time>2021-08-08T15:58:56Z</time>
      </trkpt>
      <trkpt lat="44.78549" lon="3.78474">
        <ele>956.7</ele>
        <time>2021-08-08T15:58:58Z</time>
      </trkpt>
      <trkpt lat="44.78546" lon="3.78474">
        <ele>956.8</ele>
        <time>2021-08-08T15:59:00Z</time>
      </trkpt>
      <trkpt lat="44.78543" lon="3.78474">
        <ele>957</ele>
        <time>2021-08-08T15:59:02Z</time>
      </trkpt>
      <trkpt lat="44.78539" lon="3.78472">
        <ele>957.1</ele>
        <time>2021-08-08T15:59:04Z</time>
      </trkpt>
      <trkpt lat="44.78535" lon="3.78471">
        <ele>957.3</ele>
        <time>2021-08-08T15:59:06Z</time>
      </trkpt>
      <trkpt lat="44.78531" lon="3.78469">
        <ele>957.4</ele>
        <time>2021-08-08T15:59:08Z</time>
      </trkpt>
      <trkpt lat="44.78527" lon="3.78468">
        <ele>957.6</ele>
        <time>2021-08-08T15:59:10Z</time>
      </trkpt>
      <trkpt lat="44.78524" lon="3.78465">
        <ele>957.7</ele>
        <time>2021-08-08T15:59:12Z</time>
      </trkpt>
      <trkpt lat="44.78521" lon="3.78461">
        <ele>957.8</ele>
        <time>2021-08-08T15:59:14Z</time>
      </trkpt>
      <trkpt lat="44.78518" lon="3.78458">
        <ele>957.9</ele>
        <time>2021-08-08T15:59:16Z</time>
      </trkpt>
      <trkpt lat="44.78516" lon="3.78455">
        <ele>957.9</ele>
        <time>2021-08-08T15:59:18Z</time>
      </trkpt>
      <trkpt lat="44.78512" lon="3.78451">
        <ele>958</ele>
        <time>2021-08-08T15:59:20Z</time>
      </trkpt>
      <trkpt lat="44.7851" lon="3.78446">
        <ele>958</ele>
        <time>2021-08-08T15:59:22Z</time>
      </trkpt>
      <trkpt lat="44.78507" lon="3.78443">
        <ele>958.1</ele>
        <time>2021-08-08T15:59:24Z</time>
      </trkpt>
      <trkpt lat="44.78505" lon="3.7844">
        <ele>958.1</ele>
        <time>2021-08-08T15:59:26Z</time>
      </trkpt>
      <trkpt lat="44.78501" lon="3.78438">
        <ele>958.2</ele>
        <time>2021-08-08T15:59:28Z</time>
      </trkpt>
      <trkpt lat="44.785" lon="3.78435">
        <ele>958.2</ele>
        <time>2021-08-08T15:59:30Z</time>
      </trkpt>
      <trkpt lat="44.78497" lon="3.78433">
        <ele>958.2</ele>
        <time>2021-08-08T15:59:32Z</time>
      </trkpt>
      <trkpt lat="44.78494" lon="3.78433">
        <ele>958.3</ele>
        <time>2021-08-08T15:59:34Z</time>
      </trkpt>
      <trkpt lat="44.78491" lon="3.78432">
        <ele>958.3</ele>
        <time>2021-08-08T15:59:36Z</time>
      </trkpt>
      <trkpt lat="44.78489" lon="3.78431">
        <ele>958.4</ele>
        <time>2021-08-08T15:59:38Z</time>
      </trkpt>
      <trkpt lat="44.78486" lon="3.7843">
        <ele>958.4</ele>
        <time>2021-08-08T15:59:40Z</time>
      </trkpt>
      <trkpt lat="44.78484" lon="3.7843">
        <ele>958.4</ele>
        <time>2021-08-08T15:59:42Z</time>
      </trkpt>
      <trkpt lat="44.78482" lon="3.7843">
        <ele>958.5</ele>
        <time>2021-08-08T15:59:44Z</time>
      </trkpt>
      <trkpt lat="44.78479" lon="3.78429">
        <ele>958.5</ele>
        <time>2021-08-08T15:59:46Z</time>
      </trkpt>
      <trkpt lat="44.78477" lon="3.78429">
        <ele>958.6</ele>
        <time>2021-08-08T15:59:48Z</time>
      </trkpt>
      <trkpt lat="44.78475" lon="3.7843">
        <ele>958.6</ele>
        <time>2021-08-08T15:59:50Z</time>
      </trkpt>
      <trkpt lat="44.78472" lon="3.78429">
        <ele>958.7</ele>
        <time>2021-08-08T15:59:52Z</time>
      </trkpt>
      <trkpt lat="44.78471" lon="3.78428">
        <ele>958.7</ele>
        <time>2021-08-08T15:59:54Z</time>
      </trkpt>
      <trkpt lat="44.78469" lon="3.78428">
        <ele>958.7</ele>
        <time>2021-08-08T15:59:56Z</time>
      </trkpt>
      <trkpt lat="44.78468" lon="3.78428">
        <ele>958.7</ele>
        <time>2021-08-08T15:59:58Z</time>
      </trkpt>
      <trkpt lat="44.78468" lon="3.78428">
        <ele>958.7</ele>
        <time>2021-08-08T16:00:00Z</time>
      </trkpt>
      <trkpt lat="44.78468" lon="3.78428">
        <ele>958.7</ele>
        <time>2021-08-08T16:00:02Z</time>
      </trkpt>
      <trkpt lat="44.78457" lon="3.78427">
        <ele>959</ele>
        <time>2021-08-08T16:00:28Z</time>
      </trkpt>
      <trkpt lat="44.78453" lon="3.78426">
        <ele>959</ele>
        <time>2021-08-08T16:00:30Z</time>
      </trkpt>
      <trkpt lat="44.78449" lon="3.78426">
        <ele>959.1</ele>
        <time>2021-08-08T16:00:32Z</time>
      </trkpt>
      <trkpt lat="44.78445" lon="3.78424">
        <ele>959.2</ele>
        <time>2021-08-08T16:00:34Z</time>
      </trkpt>
      <trkpt lat="44.78442" lon="3.78423">
        <ele>959.3</ele>
        <time>2021-08-08T16:00:36Z</time>
      </trkpt>
      <trkpt lat="44.78438" lon="3.78421">
        <ele>959.4</ele>
        <time>2021-08-08T16:00:38Z</time>
      </trkpt>
      <trkpt lat="44.78434" lon="3.78419">
        <ele>959.6</ele>
        <time>2021-08-08T16:00:40Z</time>
      </trkpt>
      <trkpt lat="44.78429" lon="3.78417">
        <ele>959.7</ele>
        <time>2021-08-08T16:00:42Z</time>
      </trkpt>
      <trkpt lat="44.78425" lon="3.78414">
        <ele>959.8</ele>
        <time>2021-08-08T16:00:44Z</time>
      </trkpt>
      <trkpt lat="44.78421" lon="3.78412">
        <ele>959.9</ele>
        <time>2021-08-08T16:00:46Z</time>
      </trkpt>
      <trkpt lat="44.78417" lon="3.78409">
        <ele>960.1</ele>
        <time>2021-08-08T16:00:48Z</time>
      </trkpt>
      <trkpt lat="44.78412" lon="3.78406">
        <ele>960.4</ele>
        <time>2021-08-08T16:00:50Z</time>
      </trkpt>
      <trkpt lat="44.78408" lon="3.78403">
        <ele>960.6</ele>
        <time>2021-08-08T16:00:52Z</time>
      </trkpt>
      <trkpt lat="44.78405" lon="3.78399">
        <ele>960.9</ele>
        <time>2021-08-08T16:00:54Z</time>
      </trkpt>
      <trkpt lat="44.784" lon="3.78396">
        <ele>961.1</ele>
        <time>2021-08-08T16:00:56Z</time>
      </trkpt>
      <trkpt lat="44.78396" lon="3.78393">
        <ele>961.4</ele>
        <time>2021-08-08T16:00:58Z</time>
      </trkpt>
      <trkpt lat="44.78392" lon="3.7839">
        <ele>961.6</ele>
        <time>2021-08-08T16:01:00Z</time>
      </trkpt>
      <trkpt lat="44.78388" lon="3.78387">
        <ele>961.8</ele>
        <time>2021-08-08T16:01:02Z</time>
      </trkpt>
      <trkpt lat="44.78385" lon="3.78384">
        <ele>962</ele>
        <time>2021-08-08T16:01:04Z</time>
      </trkpt>
      <trkpt lat="44.78381" lon="3.78382">
        <ele>962.2</ele>
        <time>2021-08-08T16:01:06Z</time>
      </trkpt>
      <trkpt lat="44.78377" lon="3.78379">
        <ele>962.4</ele>
        <time>2021-08-08T16:01:08Z</time>
      </trkpt>
      <trkpt lat="44.78374" lon="3.78376">
        <ele>962.6</ele>
        <time>2021-08-08T16:01:10Z</time>
      </trkpt>
      <trkpt lat="44.7837" lon="3.78374">
        <ele>962.7</ele>
        <time>2021-08-08T16:01:12Z</time>
      </trkpt>
      <trkpt lat="44.78366" lon="3.78372">
        <ele>962.9</ele>
        <time>2021-08-08T16:01:14Z</time>
      </trkpt>
      <trkpt lat="44.78362" lon="3.7837">
        <ele>963.1</ele>
        <time>2021-08-08T16:01:16Z</time>
      </trkpt>
      <trkpt lat="44.78359" lon="3.78368">
        <ele>963.2</ele>
        <time>2021-08-08T16:01:18Z</time>
      </trkpt>
      <trkpt lat="44.78355" lon="3.78367">
        <ele>963.4</ele>
        <time>2021-08-08T16:01:20Z</time>
      </trkpt>
      <trkpt lat="44.78351" lon="3.78366">
        <ele>963.6</ele>
        <time>2021-08-08T16:01:22Z</time>
      </trkpt>
      <trkpt lat="44.78346" lon="3.78365">
        <ele>963.8</ele>
        <time>2021-08-08T16:01:24Z</time>
      </trkpt>
      <trkpt lat="44.78342" lon="3.78364">
        <ele>964</ele>
        <time>2021-08-08T16:01:26Z</time>
      </trkpt>
      <trkpt lat="44.78338" lon="3.78363">
        <ele>964.2</ele>
        <time>2021-08-08T16:01:28Z</time>
      </trkpt>
      <trkpt lat="44.78333" lon="3.78362">
        <ele>964.3</ele>
        <time>2021-08-08T16:01:30Z</time>
      </trkpt>
      <trkpt lat="44.78328" lon="3.7836">
        <ele>964.4</ele>
        <time>2021-08-08T16:01:32Z</time>
      </trkpt>
      <trkpt lat="44.78324" lon="3.7836">
        <ele>964.5</ele>
        <time>2021-08-08T16:01:34Z</time>
      </trkpt>
      <trkpt lat="44.7832" lon="3.78358">
        <ele>964.5</ele>
        <time>2021-08-08T16:01:36Z</time>
      </trkpt>
      <trkpt lat="44.78315" lon="3.78356">
        <ele>964.6</ele>
        <time>2021-08-08T16:01:38Z</time>
      </trkpt>
      <trkpt lat="44.7831" lon="3.78354">
        <ele>964.6</ele>
        <time>2021-08-08T16:01:40Z</time>
      </trkpt>
      <trkpt lat="44.78305" lon="3.78351">
        <ele>964.6</ele>
        <time>2021-08-08T16:01:42Z</time>
      </trkpt>
      <trkpt lat="44.78301" lon="3.78349">
        <ele>964.7</ele>
        <time>2021-08-08T16:01:44Z</time>
      </trkpt>
      <trkpt lat="44.78296" lon="3.78346">
        <ele>964.7</ele>
        <time>2021-08-08T16:01:46Z</time>
      </trkpt>
      <trkpt lat="44.78291" lon="3.78344">
        <ele>964.7</ele>
        <time>2021-08-08T16:01:48Z</time>
      </trkpt>
      <trkpt lat="44.78286" lon="3.78341">
        <ele>964.7</ele>
        <time>2021-08-08T16:01:50Z</time>
      </trkpt>
      <trkpt lat="44.78282" lon="3.78338">
        <ele>964.7</ele>
        <time>2021-08-08T16:01:52Z</time>
      </trkpt>
      <trkpt lat="44.78277" lon="3.78336">
        <ele>964.7</ele>
        <time>2021-08-08T16:01:54Z</time>
      </trkpt>
      <trkpt lat="44.78272" lon="3.78333">
        <ele>964.7</ele>
        <time>2021-08-08T16:01:56Z</time>
      </trkpt>
      <trkpt lat="44.78267" lon="3.7833">
        <ele>964.9</ele>
        <time>2021-08-08T16:01:58Z</time>
      </trkpt>
      <trkpt lat="44.78263" lon="3.78328">
        <ele>965</ele>
        <time>2021-08-08T16:02:00Z</time>
      </trkpt>
      <trkpt lat="44.78258" lon="3.78325">
        <ele>965.2</ele>
        <time>2021-08-08T16:02:02Z</time>
      </trkpt>
      <trkpt lat="44.78253" lon="3.78322">
        <ele>965.4</ele>
        <time>2021-08-08T16:02:04Z</time>
      </trkpt>
      <trkpt lat="44.78248" lon="3.7832">
        <ele>965.5</ele>
        <time>2021-08-08T16:02:06Z</time>
      </trkpt>
      <trkpt lat="44.78244" lon="3.78317">
        <ele>965.8</ele>
        <time>2021-08-08T16:02:08Z</time>
      </trkpt>
      <trkpt lat="44.78239" lon="3.78314">
        <ele>966</ele>
        <time>2021-08-08T16:02:10Z</time>
      </trkpt>
      <trkpt lat="44.78235" lon="3.78312">
        <ele>966.2</ele>
        <time>2021-08-08T16:02:12Z</time>
      </trkpt>
      <trkpt lat="44.78231" lon="3.7831">
        <ele>966.4</ele>
        <time>2021-08-08T16:02:14Z</time>
      </trkpt>
      <trkpt lat="44.78227" lon="3.78307">
        <ele>966.7</ele>
        <time>2021-08-08T16:02:16Z</time>
      </trkpt>
      <trkpt lat="44.78223" lon="3.78305">
        <ele>966.9</ele>
        <time>2021-08-08T16:02:18Z</time>
      </trkpt>
      <trkpt lat="44.78218" lon="3.78303">
        <ele>967.1</ele>
        <time>2021-08-08T16:02:20Z</time>
      </trkpt>
      <trkpt lat="44.78214" lon="3.78301">
        <ele>967.4</ele>
        <time>2021-08-08T16:02:22Z</time>
      </trkpt>
      <trkpt lat="44.7821" lon="3.78299">
        <ele>967.6</ele>
        <time>2021-08-08T16:02:24Z</time>
      </trkpt>
      <trkpt lat="44.78206" lon="3.78296">
        <ele>967.9</ele>
        <time>2021-08-08T16:02:26Z</time>
      </trkpt>
      <trkpt lat="44.78202" lon="3.78293">
        <ele>968.1</ele>
        <time>2021-08-08T16:02:28Z</time>
      </trkpt>
      <trkpt lat="44.78199" lon="3.78291">
        <ele>968.4</ele>
        <time>2021-08-08T16:02:30Z</time>
      </trkpt>
      <trkpt lat="44.78195" lon="3.78289">
        <ele>968.6</ele>
        <time>2021-08-08T16:02:32Z</time>
      </trkpt>
      <trkpt lat="44.78191" lon="3.78286">
        <ele>968.9</ele>
        <time>2021-08-08T16:02:34Z</time>
      </trkpt>
      <trkpt lat="44.78187" lon="3.78283">
        <ele>969.3</ele>
        <time>2021-08-08T16:02:36Z</time>
      </trkpt>
      <trkpt lat="44.78183" lon="3.78279">
        <ele>969.6</ele>
        <time>2021-08-08T16:02:38Z</time>
      </trkpt>
      <trkpt lat="44.78179" lon="3.78275">
        <ele>970</ele>
        <time>2021-08-08T16:02:40Z</time>
      </trkpt>
      <trkpt lat="44.78176" lon="3.78271">
        <ele>970.3</ele>
        <time>2021-08-08T16:02:42Z</time>
      </trkpt>
      <trkpt lat="44.78172" lon="3.78267">
        <ele>970.7</ele>
        <time>2021-08-08T16:02:44Z</time>
      </trkpt>
      <trkpt lat="44.78168" lon="3.78264">
        <ele>971.1</ele>
        <time>2021-08-08T16:02:46Z</time>
      </trkpt>
      <trkpt lat="44.78164" lon="3.78261">
        <ele>971.3</ele>
        <time>2021-08-08T16:02:48Z</time>
      </trkpt>
      <trkpt lat="44.78161" lon="3.78257">
        <ele>971.5</ele>
        <time>2021-08-08T16:02:50Z</time>
      </trkpt>
      <trkpt lat="44.78157" lon="3.78252">
        <ele>971.7</ele>
        <time>2021-08-08T16:02:52Z</time>
      </trkpt>
      <trkpt lat="44.78153" lon="3.78249">
        <ele>971.9</ele>
        <time>2021-08-08T16:02:54Z</time>
      </trkpt>
      <trkpt lat="44.7815" lon="3.78244">
        <ele>972.3</ele>
        <time>2021-08-08T16:02:56Z</time>
      </trkpt>
      <trkpt lat="44.78146" lon="3.78239">
        <ele>972.7</ele>
        <time>2021-08-08T16:02:58Z</time>
      </trkpt>
      <trkpt lat="44.78142" lon="3.78235">
        <ele>973</ele>
        <time>2021-08-08T16:03:00Z</time>
      </trkpt>
      <trkpt lat="44.78138" lon="3.78231">
        <ele>973.2</ele>
        <time>2021-08-08T16:03:02Z</time>
      </trkpt>
      <trkpt lat="44.78134" lon="3.78227">
        <ele>973.5</ele>
        <time>2021-08-08T16:03:04Z</time>
      </trkpt>
      <trkpt lat="44.78129" lon="3.78223">
        <ele>973.7</ele>
        <time>2021-08-08T16:03:06Z</time>
      </trkpt>
      <trkpt lat="44.78125" lon="3.7822">
        <ele>973.8</ele>
        <time>2021-08-08T16:03:08Z</time>
      </trkpt>
      <trkpt lat="44.7812" lon="3.78218">
        <ele>973.9</ele>
        <time>2021-08-08T16:03:10Z</time>
      </trkpt>
      <trkpt lat="44.78115" lon="3.78216">
        <ele>973.9</ele>
        <time>2021-08-08T16:03:12Z</time>
      </trkpt>
      <trkpt lat="44.7811" lon="3.78214">
        <ele>973.9</ele>
        <time>2021-08-08T16:03:14Z</time>
      </trkpt>
      <trkpt lat="44.78105" lon="3.78212">
        <ele>973.9</ele>
        <time>2021-08-08T16:03:16Z</time>
      </trkpt>
      <trkpt lat="44.78101" lon="3.7821">
        <ele>974</ele>
        <time>2021-08-08T16:03:18Z</time>
      </trkpt>
      <trkpt lat="44.78096" lon="3.78206">
        <ele>974.1</ele>
        <time>2021-08-08T16:03:20Z</time>
      </trkpt>
      <trkpt lat="44.78092" lon="3.78201">
        <ele>974.2</ele>
        <time>2021-08-08T16:03:22Z</time>
      </trkpt>
      <trkpt lat="44.78087" lon="3.78197">
        <ele>974.3</ele>
        <time>2021-08-08T16:03:24Z</time>
      </trkpt>
      <trkpt lat="44.78083" lon="3.78193">
        <ele>974.4</ele>
        <time>2021-08-08T16:03:26Z</time>
      </trkpt>
      <trkpt lat="44.7808" lon="3.78189">
        <ele>974.7</ele>
        <time>2021-08-08T16:03:28Z</time>
      </trkpt>
      <trkpt lat="44.78076" lon="3.78185">
        <ele>975.1</ele>
        <time>2021-08-08T16:03:30Z</time>
      </trkpt>
      <trkpt lat="44.78072" lon="3.78181">
        <ele>975.4</ele>
        <time>2021-08-08T16:03:32Z</time>
      </trkpt>
      <trkpt lat="44.78069" lon="3.78177">
        <ele>975.7</ele>
        <time>2021-08-08T16:03:34Z</time>
      </trkpt>
      <trkpt lat="44.78064" lon="3.78174">
        <ele>976</ele>
        <time>2021-08-08T16:03:36Z</time>
      </trkpt>
      <trkpt lat="44.78061" lon="3.78169">
        <ele>976.4</ele>
        <time>2021-08-08T16:03:38Z</time>
      </trkpt>
      <trkpt lat="44.78057" lon="3.78165">
        <ele>976.8</ele>
        <time>2021-08-08T16:03:40Z</time>
      </trkpt>
      <trkpt lat="44.78053" lon="3.78162">
        <ele>977.2</ele>
        <time>2021-08-08T16:03:42Z</time>
      </trkpt>
      <trkpt lat="44.78048" lon="3.7816">
        <ele>977.5</ele>
        <time>2021-08-08T16:03:44Z</time>
      </trkpt>
      <trkpt lat="44.78043" lon="3.78159">
        <ele>977.8</ele>
        <time>2021-08-08T16:03:46Z</time>
      </trkpt>
      <trkpt lat="44.78038" lon="3.78159">
        <ele>977.9</ele>
        <time>2021-08-08T16:03:48Z</time>
      </trkpt>
      <trkpt lat="44.78033" lon="3.78158">
        <ele>978.1</ele>
        <time>2021-08-08T16:03:50Z</time>
      </trkpt>
      <trkpt lat="44.78029" lon="3.78158">
        <ele>978.2</ele>
        <time>2021-08-08T16:03:52Z</time>
      </trkpt>
      <trkpt lat="44.78024" lon="3.7816">
        <ele>978.1</ele>
        <time>2021-08-08T16:03:54Z</time>
      </trkpt>
      <trkpt lat="44.78019" lon="3.78161">
        <ele>978.1</ele>
        <time>2021-08-08T16:03:56Z</time>
      </trkpt>
      <trkpt lat="44.78015" lon="3.78161">
        <ele>978.2</ele>
        <time>2021-08-08T16:03:58Z</time>
      </trkpt>
      <trkpt lat="44.7801" lon="3.78162">
        <ele>978.2</ele>
        <time>2021-08-08T16:04:00Z</time>
      </trkpt>
      <trkpt lat="44.78005" lon="3.78164">
        <ele>978.1</ele>
        <time>2021-08-08T16:04:02Z</time>
      </trkpt>
      <trkpt lat="44.78" lon="3.78165">
        <ele>978.1</ele>
        <time>2021-08-08T16:04:04Z</time>
      </trkpt>
      <trkpt lat="44.77995" lon="3.78166">
        <ele>978.1</ele>
        <time>2021-08-08T16:04:06Z</time>
      </trkpt>
      <trkpt lat="44.7799" lon="3.78166">
        <ele>978</ele>
        <time>2021-08-08T16:04:08Z</time>
      </trkpt>
      <trkpt lat="44.77986" lon="3.78167">
        <ele>978</ele>
        <time>2021-08-08T16:04:10Z</time>
      </trkpt>
      <trkpt lat="44.77981" lon="3.78166">
        <ele>978.1</ele>
        <time>2021-08-08T16:04:12Z</time>
      </trkpt>
      <trkpt lat="44.77977" lon="3.78164">
        <ele>978.2</ele>
        <time>2021-08-08T16:04:14Z</time>
      </trkpt>
      <trkpt lat="44.77974" lon="3.78163">
        <ele>978.3</ele>
        <time>2021-08-08T16:04:16Z</time>
      </trkpt>
      <trkpt lat="44.77969" lon="3.78161">
        <ele>978.4</ele>
        <time>2021-08-08T16:04:18Z</time>
      </trkpt>
      <trkpt lat="44.77965" lon="3.78159">
        <ele>978.6</ele>
        <time>2021-08-08T16:04:20Z</time>
      </trkpt>
      <trkpt lat="44.77962" lon="3.78157">
        <ele>978.8</ele>
        <time>2021-08-08T16:04:22Z</time>
      </trkpt>
      <trkpt lat="44.77958" lon="3.78155">
        <ele>978.9</ele>
        <time>2021-08-08T16:04:24Z</time>
      </trkpt>
      <trkpt lat="44.77955" lon="3.78154">
        <ele>978.9</ele>
        <time>2021-08-08T16:04:26Z</time>
      </trkpt>
      <trkpt lat="44.77951" lon="3.78153">
        <ele>979</ele>
        <time>2021-08-08T16:04:28Z</time>
      </trkpt>
      <trkpt lat="44.77945" lon="3.78152">
        <ele>979</ele>
        <time>2021-08-08T16:04:30Z</time>
      </trkpt>
      <trkpt lat="44.7794" lon="3.78151">
        <ele>979.1</ele>
        <time>2021-08-08T16:04:32Z</time>
      </trkpt>
      <trkpt lat="44.77936" lon="3.78152">
        <ele>979</ele>
        <time>2021-08-08T16:04:34Z</time>
      </trkpt>
      <trkpt lat="44.77931" lon="3.78154">
        <ele>978.9</ele>
        <time>2021-08-08T16:04:36Z</time>
      </trkpt>
      <trkpt lat="44.77925" lon="3.78155">
        <ele>978.7</ele>
        <time>2021-08-08T16:04:38Z</time>
      </trkpt>
      <trkpt lat="44.77919" lon="3.78158">
        <ele>978.5</ele>
        <time>2021-08-08T16:04:40Z</time>
      </trkpt>
      <trkpt lat="44.77913" lon="3.78159">
        <ele>978.4</ele>
        <time>2021-08-08T16:04:42Z</time>
      </trkpt>
      <trkpt lat="44.77908" lon="3.78161">
        <ele>978.1</ele>
        <time>2021-08-08T16:04:44Z</time>
      </trkpt>
      <trkpt lat="44.77903" lon="3.78164">
        <ele>977.8</ele>
        <time>2021-08-08T16:04:46Z</time>
      </trkpt>
      <trkpt lat="44.77897" lon="3.78165">
        <ele>977.6</ele>
        <time>2021-08-08T16:04:48Z</time>
      </trkpt>
      <trkpt lat="44.77892" lon="3.78166">
        <ele>977.5</ele>
        <time>2021-08-08T16:04:50Z</time>
      </trkpt>
      <trkpt lat="44.77887" lon="3.78166">
        <ele>977.3</ele>
        <time>2021-08-08T16:04:52Z</time>
      </trkpt>
      <trkpt lat="44.77882" lon="3.78165">
        <ele>977.3</ele>
        <time>2021-08-08T16:04:54Z</time>
      </trkpt>
      <trkpt lat="44.77877" lon="3.78162">
        <ele>977.3</ele>
        <time>2021-08-08T16:04:56Z</time>
      </trkpt>
      <trkpt lat="44.77873" lon="3.7816">
        <ele>977.3</ele>
        <time>2021-08-08T16:04:58Z</time>
      </trkpt>
      <trkpt lat="44.7787" lon="3.78159">
        <ele>977.3</ele>
        <time>2021-08-08T16:05:00Z</time>
      </trkpt>
      <trkpt lat="44.77865" lon="3.7816">
        <ele>977.1</ele>
        <time>2021-08-08T16:05:02Z</time>
      </trkpt>
      <trkpt lat="44.77861" lon="3.78159">
        <ele>977.1</ele>
        <time>2021-08-08T16:05:04Z</time>
      </trkpt>
      <trkpt lat="44.77857" lon="3.78156">
        <ele>977.1</ele>
        <time>2021-08-08T16:05:06Z</time>
      </trkpt>
      <trkpt lat="44.77853" lon="3.78153">
        <ele>977.2</ele>
        <time>2021-08-08T16:05:08Z</time>
      </trkpt>
      <trkpt lat="44.77848" lon="3.78149">
        <ele>977.3</ele>
        <time>2021-08-08T16:05:10Z</time>
      </trkpt>
      <trkpt lat="44.77845" lon="3.78145">
        <ele>977.4</ele>
        <time>2021-08-08T16:05:12Z</time>
      </trkpt>
      <trkpt lat="44.77842" lon="3.78139">
        <ele>977.5</ele>
        <time>2021-08-08T16:05:14Z</time>
      </trkpt>
      <trkpt lat="44.77839" lon="3.78135">
        <ele>977.7</ele>
        <time>2021-08-08T16:05:16Z</time>
      </trkpt>
      <trkpt lat="44.77836" lon="3.7813">
        <ele>977.8</ele>
        <time>2021-08-08T16:05:18Z</time>
      </trkpt>
      <trkpt lat="44.77833" lon="3.78126">
        <ele>977.9</ele>
        <time>2021-08-08T16:05:20Z</time>
      </trkpt>
      <trkpt lat="44.77828" lon="3.78122">
        <ele>978.1</ele>
        <time>2021-08-08T16:05:22Z</time>
      </trkpt>
      <trkpt lat="44.77826" lon="3.78117">
        <ele>978.3</ele>
        <time>2021-08-08T16:05:24Z</time>
      </trkpt>
      <trkpt lat="44.77823" lon="3.78115">
        <ele>978.3</ele>
        <time>2021-08-08T16:05:26Z</time>
      </trkpt>
      <trkpt lat="44.7782" lon="3.78113">
        <ele>978.4</ele>
        <time>2021-08-08T16:05:28Z</time>
      </trkpt>
      <trkpt lat="44.77818" lon="3.78112">
        <ele>978.4</ele>
        <time>2021-08-08T16:05:30Z</time>
      </trkpt>
      <trkpt lat="44.77816" lon="3.78113">
        <ele>978.3</ele>
        <time>2021-08-08T16:05:32Z</time>
      </trkpt>
      <trkpt lat="44.77817" lon="3.78113">
        <ele>978.3</ele>
        <time>2021-08-08T16:05:34Z</time>
      </trkpt>
      <trkpt lat="44.77817" lon="3.78113">
        <ele>978.3</ele>
        <time>2021-08-08T16:05:36Z</time>
      </trkpt>
      <trkpt lat="44.77816" lon="3.78113">
        <ele>978.3</ele>
        <time>2021-08-08T16:05:38Z</time>
      </trkpt>
      <trkpt lat="44.77816" lon="3.78113">
        <ele>978.3</ele>
        <time>2021-08-08T16:05:40Z</time>
      </trkpt>
      <trkpt lat="44.7779" lon="3.78078">
        <ele>980</ele>
        <time>2021-08-08T16:08:22Z</time>
      </trkpt>
      <trkpt lat="44.77787" lon="3.78074">
        <ele>980.3</ele>
        <time>2021-08-08T16:08:24Z</time>
      </trkpt>
      <trkpt lat="44.77783" lon="3.78071">
        <ele>980.5</ele>
        <time>2021-08-08T16:08:26Z</time>
      </trkpt>
      <trkpt lat="44.77779" lon="3.78068">
        <ele>980.8</ele>
        <time>2021-08-08T16:08:28Z</time>
      </trkpt>
      <trkpt lat="44.77775" lon="3.78064">
        <ele>981.1</ele>
        <time>2021-08-08T16:08:30Z</time>
      </trkpt>
      <trkpt lat="44.77771" lon="3.7806">
        <ele>981.4</ele>
        <time>2021-08-08T16:08:32Z</time>
      </trkpt>
      <trkpt lat="44.77767" lon="3.78056">
        <ele>981.8</ele>
        <time>2021-08-08T16:08:34Z</time>
      </trkpt>
      <trkpt lat="44.77764" lon="3.78052">
        <ele>982.1</ele>
        <time>2021-08-08T16:08:36Z</time>
      </trkpt>
      <trkpt lat="44.7776" lon="3.78048">
        <ele>982.5</ele>
        <time>2021-08-08T16:08:38Z</time>
      </trkpt>
      <trkpt lat="44.77756" lon="3.78044">
        <ele>982.8</ele>
        <time>2021-08-08T16:08:40Z</time>
      </trkpt>
      <trkpt lat="44.77752" lon="3.7804">
        <ele>983.2</ele>
        <time>2021-08-08T16:08:42Z</time>
      </trkpt>
      <trkpt lat="44.77748" lon="3.78036">
        <ele>983.6</ele>
        <time>2021-08-08T16:08:44Z</time>
      </trkpt>
      <trkpt lat="44.77745" lon="3.78033">
        <ele>984.2</ele>
        <time>2021-08-08T16:08:46Z</time>
      </trkpt>
      <trkpt lat="44.77741" lon="3.7803">
        <ele>984.8</ele>
        <time>2021-08-08T16:08:48Z</time>
      </trkpt>
      <trkpt lat="44.77737" lon="3.78027">
        <ele>985.2</ele>
        <time>2021-08-08T16:08:50Z</time>
      </trkpt>
      <trkpt lat="44.77732" lon="3.78025">
        <ele>985.7</ele>
        <time>2021-08-08T16:08:52Z</time>
      </trkpt>
      <trkpt lat="44.77728" lon="3.78025">
        <ele>986</ele>
        <time>2021-08-08T16:08:54Z</time>
      </trkpt>
      <trkpt lat="44.77724" lon="3.78026">
        <ele>986.1</ele>
        <time>2021-08-08T16:08:56Z</time>
      </trkpt>
      <trkpt lat="44.7772" lon="3.78029">
        <ele>986.2</ele>
        <time>2021-08-08T16:08:58Z</time>
      </trkpt>
      <trkpt lat="44.77716" lon="3.78033">
        <ele>986.2</ele>
        <time>2021-08-08T16:09:00Z</time>
      </trkpt>
      <trkpt lat="44.77712" lon="3.78038">
        <ele>986</ele>
        <time>2021-08-08T16:09:02Z</time>
      </trkpt>
      <trkpt lat="44.7771" lon="3.78043">
        <ele>985.8</ele>
        <time>2021-08-08T16:09:04Z</time>
      </trkpt>
      <trkpt lat="44.77707" lon="3.78048">
        <ele>985.7</ele>
        <time>2021-08-08T16:09:06Z</time>
      </trkpt>
      <trkpt lat="44.77703" lon="3.78052">
        <ele>985.6</ele>
        <time>2021-08-08T16:09:08Z</time>
      </trkpt>
      <trkpt lat="44.77701" lon="3.78057">
        <ele>985.5</ele>
        <time>2021-08-08T16:09:10Z</time>
      </trkpt>
      <trkpt lat="44.77698" lon="3.78062">
        <ele>985.4</ele>
        <time>2021-08-08T16:09:12Z</time>
      </trkpt>
      <trkpt lat="44.77695" lon="3.78067">
        <ele>985.3</ele>
        <time>2021-08-08T16:09:14Z</time>
      </trkpt>
      <trkpt lat="44.77692" lon="3.78072">
        <ele>985.3</ele>
        <time>2021-08-08T16:09:16Z</time>
      </trkpt>
      <trkpt lat="44.77688" lon="3.78076">
        <ele>985.3</ele>
        <time>2021-08-08T16:09:18Z</time>
      </trkpt>
      <trkpt lat="44.77685" lon="3.78081">
        <ele>985.4</ele>
        <time>2021-08-08T16:09:20Z</time>
      </trkpt>
      <trkpt lat="44.77681" lon="3.78084">
        <ele>985.5</ele>
        <time>2021-08-08T16:09:22Z</time>
      </trkpt>
      <trkpt lat="44.77678" lon="3.78088">
        <ele>985.6</ele>
        <time>2021-08-08T16:09:24Z</time>
      </trkpt>
      <trkpt lat="44.77674" lon="3.78092">
        <ele>985.7</ele>
        <time>2021-08-08T16:09:26Z</time>
      </trkpt>
      <trkpt lat="44.77671" lon="3.78095">
        <ele>985.8</ele>
        <time>2021-08-08T16:09:28Z</time>
      </trkpt>
      <trkpt lat="44.77667" lon="3.78099">
        <ele>985.8</ele>
        <time>2021-08-08T16:09:30Z</time>
      </trkpt>
      <trkpt lat="44.77663" lon="3.78103">
        <ele>985.8</ele>
        <time>2021-08-08T16:09:32Z</time>
      </trkpt>
      <trkpt lat="44.77659" lon="3.78106">
        <ele>985.8</ele>
        <time>2021-08-08T16:09:34Z</time>
      </trkpt>
      <trkpt lat="44.77656" lon="3.7811">
        <ele>985.8</ele>
        <time>2021-08-08T16:09:36Z</time>
      </trkpt>
      <trkpt lat="44.77652" lon="3.78114">
        <ele>985.7</ele>
        <time>2021-08-08T16:09:38Z</time>
      </trkpt>
      <trkpt lat="44.77648" lon="3.78118">
        <ele>985.7</ele>
        <time>2021-08-08T16:09:40Z</time>
      </trkpt>
      <trkpt lat="44.77644" lon="3.78121">
        <ele>985.8</ele>
        <time>2021-08-08T16:09:42Z</time>
      </trkpt>
      <trkpt lat="44.7764" lon="3.78124">
        <ele>985.8</ele>
        <time>2021-08-08T16:09:44Z</time>
      </trkpt>
      <trkpt lat="44.77635" lon="3.78126">
        <ele>986</ele>
        <time>2021-08-08T16:09:46Z</time>
      </trkpt>
      <trkpt lat="44.77631" lon="3.78128">
        <ele>986.1</ele>
        <time>2021-08-08T16:09:48Z</time>
      </trkpt>
      <trkpt lat="44.77627" lon="3.7813">
        <ele>986.3</ele>
        <time>2021-08-08T16:09:50Z</time>
      </trkpt>
      <trkpt lat="44.77622" lon="3.78131">
        <ele>986.5</ele>
        <time>2021-08-08T16:09:52Z</time>
      </trkpt>
      <trkpt lat="44.77618" lon="3.7813">
        <ele>986.9</ele>
        <time>2021-08-08T16:09:54Z</time>
      </trkpt>
      <trkpt lat="44.77613" lon="3.78129">
        <ele>987.3</ele>
        <time>2021-08-08T16:09:56Z</time>
      </trkpt>
      <trkpt lat="44.77608" lon="3.78128">
        <ele>987.6</ele>
        <time>2021-08-08T16:09:58Z</time>
      </trkpt>
      <trkpt lat="44.77604" lon="3.78127">
        <ele>988</ele>
        <time>2021-08-08T16:10:00Z</time>
      </trkpt>
      <trkpt lat="44.776" lon="3.78125">
        <ele>988.4</ele>
        <time>2021-08-08T16:10:02Z</time>
      </trkpt>
      <trkpt lat="44.77596" lon="3.78122">
        <ele>988.9</ele>
        <time>2021-08-08T16:10:04Z</time>
      </trkpt>
      <trkpt lat="44.77592" lon="3.78119">
        <ele>989.3</ele>
        <time>2021-08-08T16:10:06Z</time>
      </trkpt>
      <trkpt lat="44.77588" lon="3.78115">
        <ele>989.8</ele>
        <time>2021-08-08T16:10:08Z</time>
      </trkpt>
      <trkpt lat="44.77585" lon="3.78111">
        <ele>990.2</ele>
        <time>2021-08-08T16:10:10Z</time>
      </trkpt>
      <trkpt lat="44.77581" lon="3.78107">
        <ele>990.5</ele>
        <time>2021-08-08T16:10:12Z</time>
      </trkpt>
      <trkpt lat="44.77577" lon="3.78103">
        <ele>990.7</ele>
        <time>2021-08-08T16:10:14Z</time>
      </trkpt>
      <trkpt lat="44.77574" lon="3.78099">
        <ele>991</ele>
        <time>2021-08-08T16:10:16Z</time>
      </trkpt>
      <trkpt lat="44.77571" lon="3.78094">
        <ele>991.2</ele>
        <time>2021-08-08T16:10:18Z</time>
      </trkpt>
      <trkpt lat="44.77569" lon="3.78089">
        <ele>991.5</ele>
        <time>2021-08-08T16:10:20Z</time>
      </trkpt>
      <trkpt lat="44.77565" lon="3.78085">
        <ele>991.7</ele>
        <time>2021-08-08T16:10:22Z</time>
      </trkpt>
      <trkpt lat="44.77562" lon="3.7808">
        <ele>991.9</ele>
        <time>2021-08-08T16:10:24Z</time>
      </trkpt>
      <trkpt lat="44.7756" lon="3.78075">
        <ele>992.1</ele>
        <time>2021-08-08T16:10:26Z</time>
      </trkpt>
      <trkpt lat="44.77557" lon="3.78071">
        <ele>992.4</ele>
        <time>2021-08-08T16:10:28Z</time>
      </trkpt>
      <trkpt lat="44.77554" lon="3.78066">
        <ele>992.6</ele>
        <time>2021-08-08T16:10:30Z</time>
      </trkpt>
      <trkpt lat="44.77551" lon="3.78062">
        <ele>992.8</ele>
        <time>2021-08-08T16:10:32Z</time>
      </trkpt>
      <trkpt lat="44.77548" lon="3.78058">
        <ele>993.1</ele>
        <time>2021-08-08T16:10:34Z</time>
      </trkpt>
      <trkpt lat="44.77546" lon="3.78054">
        <ele>993.3</ele>
        <time>2021-08-08T16:10:36Z</time>
      </trkpt>
      <trkpt lat="44.77543" lon="3.7805">
        <ele>993.5</ele>
        <time>2021-08-08T16:10:38Z</time>
      </trkpt>
      <trkpt lat="44.7754" lon="3.78046">
        <ele>993.7</ele>
        <time>2021-08-08T16:10:40Z</time>
      </trkpt>
      <trkpt lat="44.77537" lon="3.78042">
        <ele>994</ele>
        <time>2021-08-08T16:10:42Z</time>
      </trkpt>
      <trkpt lat="44.77535" lon="3.78038">
        <ele>994.2</ele>
        <time>2021-08-08T16:10:44Z</time>
      </trkpt>
      <trkpt lat="44.77532" lon="3.78034">
        <ele>994.5</ele>
        <time>2021-08-08T16:10:46Z</time>
      </trkpt>
      <trkpt lat="44.77529" lon="3.7803">
        <ele>994.7</ele>
        <time>2021-08-08T16:10:48Z</time>
      </trkpt>
      <trkpt lat="44.77527" lon="3.78026">
        <ele>995</ele>
        <time>2021-08-08T16:10:50Z</time>
      </trkpt>
      <trkpt lat="44.77524" lon="3.78022">
        <ele>995.3</ele>
        <time>2021-08-08T16:10:52Z</time>
      </trkpt>
      <trkpt lat="44.77522" lon="3.78018">
        <ele>995.5</ele>
        <time>2021-08-08T16:10:54Z</time>
      </trkpt>
      <trkpt lat="44.77519" lon="3.78015">
        <ele>995.8</ele>
        <time>2021-08-08T16:10:56Z</time>
      </trkpt>
      <trkpt lat="44.77517" lon="3.78011">
        <ele>996.1</ele>
        <time>2021-08-08T16:10:58Z</time>
      </trkpt>
      <trkpt lat="44.77515" lon="3.78006">
        <ele>996.4</ele>
        <time>2021-08-08T16:11:00Z</time>
      </trkpt>
      <trkpt lat="44.77512" lon="3.78001">
        <ele>996.8</ele>
        <time>2021-08-08T16:11:02Z</time>
      </trkpt>
      <trkpt lat="44.7751" lon="3.77997">
        <ele>997.1</ele>
        <time>2021-08-08T16:11:04Z</time>
      </trkpt>
      <trkpt lat="44.77508" lon="3.77992">
        <ele>997.4</ele>
        <time>2021-08-08T16:11:06Z</time>
      </trkpt>
      <trkpt lat="44.77505" lon="3.77988">
        <ele>997.7</ele>
        <time>2021-08-08T16:11:08Z</time>
      </trkpt>
      <trkpt lat="44.77504" lon="3.77983">
        <ele>998</ele>
        <time>2021-08-08T16:11:10Z</time>
      </trkpt>
      <trkpt lat="44.77502" lon="3.77978">
        <ele>998.3</ele>
        <time>2021-08-08T16:11:12Z</time>
      </trkpt>
      <trkpt lat="44.775" lon="3.77974">
        <ele>998.6</ele>
        <time>2021-08-08T16:11:14Z</time>
      </trkpt>
      <trkpt lat="44.77499" lon="3.77969">
        <ele>998.9</ele>
        <time>2021-08-08T16:11:16Z</time>
      </trkpt>
      <trkpt lat="44.77497" lon="3.77965">
        <ele>999.2</ele>
        <time>2021-08-08T16:11:18Z</time>
      </trkpt>
      <trkpt lat="44.77495" lon="3.7796">
        <ele>999.5</ele>
        <time>2021-08-08T16:11:20Z</time>
      </trkpt>
      <trkpt lat="44.77494" lon="3.77955">
        <ele>999.8</ele>
        <time>2021-08-08T16:11:22Z</time>
      </trkpt>
      <trkpt lat="44.77492" lon="3.7795">
        <ele>1000.2</ele>
        <time>2021-08-08T16:11:24Z</time>
      </trkpt>
      <trkpt lat="44.7749" lon="3.77945">
        <ele>1000.5</ele>
        <time>2021-08-08T16:11:26Z</time>
      </trkpt>
      <trkpt lat="44.77488" lon="3.77939">
        <ele>1000.9</ele>
        <time>2021-08-08T16:11:28Z</time>
      </trkpt>
      <trkpt lat="44.77485" lon="3.77933">
        <ele>1001.3</ele>
        <time>2021-08-08T16:11:30Z</time>
      </trkpt>
      <trkpt lat="44.77483" lon="3.77928">
        <ele>1001.7</ele>
        <time>2021-08-08T16:11:32Z</time>
      </trkpt>
      <trkpt lat="44.7748" lon="3.77923">
        <ele>1002.1</ele>
        <time>2021-08-08T16:11:34Z</time>
      </trkpt>
      <trkpt lat="44.77477" lon="3.77918">
        <ele>1002.4</ele>
        <time>2021-08-08T16:11:36Z</time>
      </trkpt>
      <trkpt lat="44.77474" lon="3.77914">
        <ele>1002.8</ele>
        <time>2021-08-08T16:11:38Z</time>
      </trkpt>
      <trkpt lat="44.77471" lon="3.7791">
        <ele>1003.2</ele>
        <time>2021-08-08T16:11:40Z</time>
      </trkpt>
      <trkpt lat="44.77467" lon="3.77906">
        <ele>1003.5</ele>
        <time>2021-08-08T16:11:42Z</time>
      </trkpt>
      <trkpt lat="44.77464" lon="3.77902">
        <ele>1003.9</ele>
        <time>2021-08-08T16:11:44Z</time>
      </trkpt>
      <trkpt lat="44.7746" lon="3.77899">
        <ele>1004.2</ele>
        <time>2021-08-08T16:11:46Z</time>
      </trkpt>
      <trkpt lat="44.77457" lon="3.77896">
        <ele>1004.5</ele>
        <time>2021-08-08T16:11:48Z</time>
      </trkpt>
      <trkpt lat="44.77454" lon="3.77893">
        <ele>1004.9</ele>
        <time>2021-08-08T16:11:50Z</time>
      </trkpt>
      <trkpt lat="44.7745" lon="3.7789">
        <ele>1005.1</ele>
        <time>2021-08-08T16:11:52Z</time>
      </trkpt>
      <trkpt lat="44.77448" lon="3.77888">
        <ele>1005.4</ele>
        <time>2021-08-08T16:11:54Z</time>
      </trkpt>
      <trkpt lat="44.77444" lon="3.77885">
        <ele>1005.7</ele>
        <time>2021-08-08T16:11:56Z</time>
      </trkpt>
      <trkpt lat="44.77441" lon="3.77883">
        <ele>1006</ele>
        <time>2021-08-08T16:11:58Z</time>
      </trkpt>
      <trkpt lat="44.77438" lon="3.7788">
        <ele>1006.3</ele>
        <time>2021-08-08T16:12:00Z</time>
      </trkpt>
      <trkpt lat="44.77435" lon="3.77879">
        <ele>1006.5</ele>
        <time>2021-08-08T16:12:02Z</time>
      </trkpt>
      <trkpt lat="44.77431" lon="3.77877">
        <ele>1006.8</ele>
        <time>2021-08-08T16:12:04Z</time>
      </trkpt>
      <trkpt lat="44.77428" lon="3.77874">
        <ele>1007.1</ele>
        <time>2021-08-08T16:12:06Z</time>
      </trkpt>
      <trkpt lat="44.77426" lon="3.77872">
        <ele>1007.4</ele>
        <time>2021-08-08T16:12:08Z</time>
      </trkpt>
      <trkpt lat="44.77422" lon="3.7787">
        <ele>1007.7</ele>
        <time>2021-08-08T16:12:10Z</time>
      </trkpt>
      <trkpt lat="44.7742" lon="3.77868">
        <ele>1008</ele>
        <time>2021-08-08T16:12:12Z</time>
      </trkpt>
      <trkpt lat="44.77416" lon="3.77865">
        <ele>1008.3</ele>
        <time>2021-08-08T16:12:14Z</time>
      </trkpt>
      <trkpt lat="44.77413" lon="3.77864">
        <ele>1008.7</ele>
        <time>2021-08-08T16:12:16Z</time>
      </trkpt>
      <trkpt lat="44.7741" lon="3.77861">
        <ele>1009</ele>
        <time>2021-08-08T16:12:18Z</time>
      </trkpt>
      <trkpt lat="44.77406" lon="3.77859">
        <ele>1009.4</ele>
        <time>2021-08-08T16:12:20Z</time>
      </trkpt>
      <trkpt lat="44.77403" lon="3.77857">
        <ele>1009.7</ele>
        <time>2021-08-08T16:12:22Z</time>
      </trkpt>
      <trkpt lat="44.774" lon="3.77854">
        <ele>1010</ele>
        <time>2021-08-08T16:12:24Z</time>
      </trkpt>
      <trkpt lat="44.77396" lon="3.77852">
        <ele>1010.4</ele>
        <time>2021-08-08T16:12:26Z</time>
      </trkpt>
      <trkpt lat="44.77393" lon="3.7785">
        <ele>1010.7</ele>
        <time>2021-08-08T16:12:28Z</time>
      </trkpt>
      <trkpt lat="44.77389" lon="3.77847">
        <ele>1011</ele>
        <time>2021-08-08T16:12:30Z</time>
      </trkpt>
      <trkpt lat="44.77386" lon="3.77845">
        <ele>1011.3</ele>
        <time>2021-08-08T16:12:32Z</time>
      </trkpt>
      <trkpt lat="44.77382" lon="3.77842">
        <ele>1011.6</ele>
        <time>2021-08-08T16:12:34Z</time>
      </trkpt>
      <trkpt lat="44.77378" lon="3.77839">
        <ele>1012</ele>
        <time>2021-08-08T16:12:36Z</time>
      </trkpt>
      <trkpt lat="44.77375" lon="3.77837">
        <ele>1012.2</ele>
        <time>2021-08-08T16:12:38Z</time>
      </trkpt>
      <trkpt lat="44.77371" lon="3.77835">
        <ele>1012.6</ele>
        <time>2021-08-08T16:12:40Z</time>
      </trkpt>
      <trkpt lat="44.77368" lon="3.77832">
        <ele>1012.8</ele>
        <time>2021-08-08T16:12:42Z</time>
      </trkpt>
      <trkpt lat="44.77364" lon="3.7783">
        <ele>1012.9</ele>
        <time>2021-08-08T16:12:44Z</time>
      </trkpt>
      <trkpt lat="44.7736" lon="3.77828">
        <ele>1013</ele>
        <time>2021-08-08T16:12:46Z</time>
      </trkpt>
      <trkpt lat="44.77356" lon="3.77826">
        <ele>1013.2</ele>
        <time>2021-08-08T16:12:48Z</time>
      </trkpt>
      <trkpt lat="44.77352" lon="3.77824">
        <ele>1013.3</ele>
        <time>2021-08-08T16:12:50Z</time>
      </trkpt>
      <trkpt lat="44.77348" lon="3.77823">
        <ele>1013.5</ele>
        <time>2021-08-08T16:12:52Z</time>
      </trkpt>
      <trkpt lat="44.77344" lon="3.77822">
        <ele>1013.6</ele>
        <time>2021-08-08T16:12:54Z</time>
      </trkpt>
      <trkpt lat="44.7734" lon="3.77821">
        <ele>1013.8</ele>
        <time>2021-08-08T16:12:56Z</time>
      </trkpt>
      <trkpt lat="44.77336" lon="3.77822">
        <ele>1013.9</ele>
        <time>2021-08-08T16:12:58Z</time>
      </trkpt>
      <trkpt lat="44.77332" lon="3.77823">
        <ele>1014.1</ele>
        <time>2021-08-08T16:13:00Z</time>
      </trkpt>
      <trkpt lat="44.77327" lon="3.77824">
        <ele>1014.3</ele>
        <time>2021-08-08T16:13:02Z</time>
      </trkpt>
      <trkpt lat="44.77323" lon="3.77825">
        <ele>1014.5</ele>
        <time>2021-08-08T16:13:04Z</time>
      </trkpt>
      <trkpt lat="44.77319" lon="3.77827">
        <ele>1014.7</ele>
        <time>2021-08-08T16:13:06Z</time>
      </trkpt>
      <trkpt lat="44.77316" lon="3.77829">
        <ele>1014.8</ele>
        <time>2021-08-08T16:13:08Z</time>
      </trkpt>
      <trkpt lat="44.77312" lon="3.7783">
        <ele>1015</ele>
        <time>2021-08-08T16:13:10Z</time>
      </trkpt>
      <trkpt lat="44.77308" lon="3.77832">
        <ele>1015.2</ele>
        <time>2021-08-08T16:13:12Z</time>
      </trkpt>
      <trkpt lat="44.77304" lon="3.77835">
        <ele>1015.3</ele>
        <time>2021-08-08T16:13:14Z</time>
      </trkpt>
      <trkpt lat="44.773" lon="3.77838">
        <ele>1015.5</ele>
        <time>2021-08-08T16:13:16Z</time>
      </trkpt>
      <trkpt lat="44.77296" lon="3.77841">
        <ele>1015.6</ele>
        <time>2021-08-08T16:13:18Z</time>
      </trkpt>
      <trkpt lat="44.77292" lon="3.77844">
        <ele>1015.7</ele>
        <time>2021-08-08T16:13:20Z</time>
      </trkpt>
      <trkpt lat="44.77287" lon="3.77847">
        <ele>1015.9</ele>
        <time>2021-08-08T16:13:22Z</time>
      </trkpt>
      <trkpt lat="44.77284" lon="3.7785">
        <ele>1016.1</ele>
        <time>2021-08-08T16:13:24Z</time>
      </trkpt>
      <trkpt lat="44.7728" lon="3.77854">
        <ele>1016.2</ele>
        <time>2021-08-08T16:13:26Z</time>
      </trkpt>
      <trkpt lat="44.77276" lon="3.77856">
        <ele>1016.4</ele>
        <time>2021-08-08T16:13:28Z</time>
      </trkpt>
      <trkpt lat="44.77271" lon="3.77859">
        <ele>1016.7</ele>
        <time>2021-08-08T16:13:30Z</time>
      </trkpt>
      <trkpt lat="44.77267" lon="3.77862">
        <ele>1016.9</ele>
        <time>2021-08-08T16:13:32Z</time>
      </trkpt>
      <trkpt lat="44.77263" lon="3.77865">
        <ele>1017.1</ele>
        <time>2021-08-08T16:13:34Z</time>
      </trkpt>
      <trkpt lat="44.77258" lon="3.77868">
        <ele>1017.4</ele>
        <time>2021-08-08T16:13:36Z</time>
      </trkpt>
      <trkpt lat="44.77254" lon="3.7787">
        <ele>1017.7</ele>
        <time>2021-08-08T16:13:38Z</time>
      </trkpt>
      <trkpt lat="44.7725" lon="3.77872">
        <ele>1018</ele>
        <time>2021-08-08T16:13:40Z</time>
      </trkpt>
      <trkpt lat="44.77245" lon="3.77874">
        <ele>1018.2</ele>
        <time>2021-08-08T16:13:42Z</time>
      </trkpt>
      <trkpt lat="44.77241" lon="3.77876">
        <ele>1018.4</ele>
        <time>2021-08-08T16:13:44Z</time>
      </trkpt>
      <trkpt lat="44.77237" lon="3.77878">
        <ele>1018.5</ele>
        <time>2021-08-08T16:13:46Z</time>
      </trkpt>
      <trkpt lat="44.77233" lon="3.7788">
        <ele>1018.7</ele>
        <time>2021-08-08T16:13:48Z</time>
      </trkpt>
      <trkpt lat="44.77228" lon="3.77881">
        <ele>1018.9</ele>
        <time>2021-08-08T16:13:50Z</time>
      </trkpt>
      <trkpt lat="44.77224" lon="3.77882">
        <ele>1019.1</ele>
        <time>2021-08-08T16:13:52Z</time>
      </trkpt>
      <trkpt lat="44.7722" lon="3.77883">
        <ele>1019.2</ele>
        <time>2021-08-08T16:13:54Z</time>
      </trkpt>
      <trkpt lat="44.77216" lon="3.77884">
        <ele>1019.4</ele>
        <time>2021-08-08T16:13:56Z</time>
      </trkpt>
      <trkpt lat="44.77212" lon="3.77885">
        <ele>1019.5</ele>
        <time>2021-08-08T16:13:58Z</time>
      </trkpt>
      <trkpt lat="44.77208" lon="3.77886">
        <ele>1019.7</ele>
        <time>2021-08-08T16:14:00Z</time>
      </trkpt>
      <trkpt lat="44.77203" lon="3.77888">
        <ele>1019.9</ele>
        <time>2021-08-08T16:14:02Z</time>
      </trkpt>
      <trkpt lat="44.77199" lon="3.77889">
        <ele>1020</ele>
        <time>2021-08-08T16:14:04Z</time>
      </trkpt>
      <trkpt lat="44.77195" lon="3.77889">
        <ele>1020.2</ele>
        <time>2021-08-08T16:14:06Z</time>
      </trkpt>
      <trkpt lat="44.77192" lon="3.77891">
        <ele>1020.3</ele>
        <time>2021-08-08T16:14:08Z</time>
      </trkpt>
      <trkpt lat="44.77189" lon="3.77894">
        <ele>1020.4</ele>
        <time>2021-08-08T16:14:10Z</time>
      </trkpt>
      <trkpt lat="44.77185" lon="3.77894">
        <ele>1020.5</ele>
        <time>2021-08-08T16:14:12Z</time>
      </trkpt>
      <trkpt lat="44.77181" lon="3.77893">
        <ele>1020.7</ele>
        <time>2021-08-08T16:14:14Z</time>
      </trkpt>
      <trkpt lat="44.77177" lon="3.77894">
        <ele>1020.9</ele>
        <time>2021-08-08T16:14:16Z</time>
      </trkpt>
      <trkpt lat="44.77174" lon="3.77895">
        <ele>1021</ele>
        <time>2021-08-08T16:14:18Z</time>
      </trkpt>
      <trkpt lat="44.7717" lon="3.77896">
        <ele>1021.1</ele>
        <time>2021-08-08T16:14:20Z</time>
      </trkpt>
      <trkpt lat="44.77166" lon="3.77898">
        <ele>1021.2</ele>
        <time>2021-08-08T16:14:22Z</time>
      </trkpt>
      <trkpt lat="44.77163" lon="3.77899">
        <ele>1021.6</ele>
        <time>2021-08-08T16:14:24Z</time>
      </trkpt>
      <trkpt lat="44.77159" lon="3.77899">
        <ele>1021.9</ele>
        <time>2021-08-08T16:14:26Z</time>
      </trkpt>
      <trkpt lat="44.77155" lon="3.77901">
        <ele>1022.3</ele>
        <time>2021-08-08T16:14:28Z</time>
      </trkpt>
      <trkpt lat="44.77151" lon="3.77902">
        <ele>1022.6</ele>
        <time>2021-08-08T16:14:30Z</time>
      </trkpt>
      <trkpt lat="44.77146" lon="3.77903">
        <ele>1023</ele>
        <time>2021-08-08T16:14:32Z</time>
      </trkpt>
      <trkpt lat="44.77142" lon="3.77903">
        <ele>1023.4</ele>
        <time>2021-08-08T16:14:34Z</time>
      </trkpt>
      <trkpt lat="44.77138" lon="3.77904">
        <ele>1023.7</ele>
        <time>2021-08-08T16:14:36Z</time>
      </trkpt>
      <trkpt lat="44.77134" lon="3.77905">
        <ele>1024</ele>
        <time>2021-08-08T16:14:38Z</time>
      </trkpt>
      <trkpt lat="44.7713" lon="3.77906">
        <ele>1024.4</ele>
        <time>2021-08-08T16:14:40Z</time>
      </trkpt>
      <trkpt lat="44.77126" lon="3.77908">
        <ele>1024.7</ele>
        <time>2021-08-08T16:14:42Z</time>
      </trkpt>
      <trkpt lat="44.77122" lon="3.77909">
        <ele>1025</ele>
        <time>2021-08-08T16:14:44Z</time>
      </trkpt>
      <trkpt lat="44.77118" lon="3.7791">
        <ele>1025.3</ele>
        <time>2021-08-08T16:14:46Z</time>
      </trkpt>
      <trkpt lat="44.77114" lon="3.77912">
        <ele>1025.6</ele>
        <time>2021-08-08T16:14:48Z</time>
      </trkpt>
      <trkpt lat="44.77109" lon="3.77913">
        <ele>1025.9</ele>
        <time>2021-08-08T16:14:50Z</time>
      </trkpt>
      <trkpt lat="44.77105" lon="3.77915">
        <ele>1026.2</ele>
        <time>2021-08-08T16:14:52Z</time>
      </trkpt>
      <trkpt lat="44.77101" lon="3.77917">
        <ele>1026.5</ele>
        <time>2021-08-08T16:14:54Z</time>
      </trkpt>
      <trkpt lat="44.77098" lon="3.77919">
        <ele>1026.7</ele>
        <time>2021-08-08T16:14:56Z</time>
      </trkpt>
      <trkpt lat="44.77094" lon="3.7792">
        <ele>1026.9</ele>
        <time>2021-08-08T16:14:58Z</time>
      </trkpt>
      <trkpt lat="44.7709" lon="3.77921">
        <ele>1027.2</ele>
        <time>2021-08-08T16:15:00Z</time>
      </trkpt>
      <trkpt lat="44.77086" lon="3.77923">
        <ele>1027.4</ele>
        <time>2021-08-08T16:15:02Z</time>
      </trkpt>
      <trkpt lat="44.77081" lon="3.77924">
        <ele>1027.7</ele>
        <time>2021-08-08T16:15:04Z</time>
      </trkpt>
      <trkpt lat="44.77077" lon="3.77926">
        <ele>1028.1</ele>
        <time>2021-08-08T16:15:06Z</time>
      </trkpt>
      <trkpt lat="44.77073" lon="3.77928">
        <ele>1028.4</ele>
        <time>2021-08-08T16:15:08Z</time>
      </trkpt>
      <trkpt lat="44.77069" lon="3.7793">
        <ele>1028.7</ele>
        <time>2021-08-08T16:15:10Z</time>
      </trkpt>
      <trkpt lat="44.77065" lon="3.77931">
        <ele>1029</ele>
        <time>2021-08-08T16:15:12Z</time>
      </trkpt>
      <trkpt lat="44.77061" lon="3.77933">
        <ele>1029.4</ele>
        <time>2021-08-08T16:15:14Z</time>
      </trkpt>
      <trkpt lat="44.77057" lon="3.77935">
        <ele>1029.7</ele>
        <time>2021-08-08T16:15:16Z</time>
      </trkpt>
      <trkpt lat="44.77053" lon="3.77937">
        <ele>1029.9</ele>
        <time>2021-08-08T16:15:18Z</time>
      </trkpt>
      <trkpt lat="44.77048" lon="3.77939">
        <ele>1030.2</ele>
        <time>2021-08-08T16:15:20Z</time>
      </trkpt>
      <trkpt lat="44.77044" lon="3.77941">
        <ele>1030.5</ele>
        <time>2021-08-08T16:15:22Z</time>
      </trkpt>
      <trkpt lat="44.7704" lon="3.77943">
        <ele>1030.8</ele>
        <time>2021-08-08T16:15:24Z</time>
      </trkpt>
      <trkpt lat="44.77036" lon="3.77946">
        <ele>1031</ele>
        <time>2021-08-08T16:15:26Z</time>
      </trkpt>
      <trkpt lat="44.77032" lon="3.77948">
        <ele>1031.2</ele>
        <time>2021-08-08T16:15:28Z</time>
      </trkpt>
      <trkpt lat="44.77028" lon="3.77951">
        <ele>1031.4</ele>
        <time>2021-08-08T16:15:30Z</time>
      </trkpt>
      <trkpt lat="44.77024" lon="3.77954">
        <ele>1031.6</ele>
        <time>2021-08-08T16:15:32Z</time>
      </trkpt>
      <trkpt lat="44.77019" lon="3.77957">
        <ele>1031.8</ele>
        <time>2021-08-08T16:15:34Z</time>
      </trkpt>
      <trkpt lat="44.77016" lon="3.7796">
        <ele>1031.8</ele>
        <time>2021-08-08T16:15:36Z</time>
      </trkpt>
      <trkpt lat="44.77012" lon="3.77964">
        <ele>1031.9</ele>
        <time>2021-08-08T16:15:38Z</time>
      </trkpt>
      <trkpt lat="44.77008" lon="3.77968">
        <ele>1032</ele>
        <time>2021-08-08T16:15:40Z</time>
      </trkpt>
      <trkpt lat="44.77005" lon="3.77971">
        <ele>1031.9</ele>
        <time>2021-08-08T16:15:42Z</time>
      </trkpt>
      <trkpt lat="44.77002" lon="3.77976">
        <ele>1031.8</ele>
        <time>2021-08-08T16:15:44Z</time>
      </trkpt>
      <trkpt lat="44.76998" lon="3.77981">
        <ele>1031.8</ele>
        <time>2021-08-08T16:15:46Z</time>
      </trkpt>
      <trkpt lat="44.76995" lon="3.77985">
        <ele>1031.7</ele>
        <time>2021-08-08T16:15:48Z</time>
      </trkpt>
      <trkpt lat="44.76992" lon="3.7799">
        <ele>1031.7</ele>
        <time>2021-08-08T16:15:50Z</time>
      </trkpt>
      <trkpt lat="44.76989" lon="3.77994">
        <ele>1031.7</ele>
        <time>2021-08-08T16:15:52Z</time>
      </trkpt>
      <trkpt lat="44.76986" lon="3.77999">
        <ele>1031.6</ele>
        <time>2021-08-08T16:15:54Z</time>
      </trkpt>
      <trkpt lat="44.76983" lon="3.78003">
        <ele>1031.6</ele>
        <time>2021-08-08T16:15:56Z</time>
      </trkpt>
      <trkpt lat="44.7698" lon="3.78007">
        <ele>1031.6</ele>
        <time>2021-08-08T16:15:58Z</time>
      </trkpt>
      <trkpt lat="44.76977" lon="3.78012">
        <ele>1031.7</ele>
        <time>2021-08-08T16:16:00Z</time>
      </trkpt>
      <trkpt lat="44.76974" lon="3.78016">
        <ele>1031.7</ele>
        <time>2021-08-08T16:16:02Z</time>
      </trkpt>
      <trkpt lat="44.76971" lon="3.78021">
        <ele>1031.7</ele>
        <time>2021-08-08T16:16:04Z</time>
      </trkpt>
      <trkpt lat="44.76968" lon="3.78025">
        <ele>1031.8</ele>
        <time>2021-08-08T16:16:06Z</time>
      </trkpt>
      <trkpt lat="44.76965" lon="3.7803">
        <ele>1031.8</ele>
        <time>2021-08-08T16:16:08Z</time>
      </trkpt>
      <trkpt lat="44.76962" lon="3.78034">
        <ele>1031.9</ele>
        <time>2021-08-08T16:16:10Z</time>
      </trkpt>
      <trkpt lat="44.76958" lon="3.78039">
        <ele>1031.9</ele>
        <time>2021-08-08T16:16:12Z</time>
      </trkpt>
      <trkpt lat="44.76955" lon="3.78043">
        <ele>1032</ele>
        <time>2021-08-08T16:16:14Z</time>
      </trkpt>
      <trkpt lat="44.76951" lon="3.78048">
        <ele>1032.1</ele>
        <time>2021-08-08T16:16:16Z</time>
      </trkpt>
      <trkpt lat="44.76948" lon="3.78052">
        <ele>1032.3</ele>
        <time>2021-08-08T16:16:18Z</time>
      </trkpt>
      <trkpt lat="44.76944" lon="3.78057">
        <ele>1032.4</ele>
        <time>2021-08-08T16:16:20Z</time>
      </trkpt>
      <trkpt lat="44.7694" lon="3.78062">
        <ele>1032.5</ele>
        <time>2021-08-08T16:16:22Z</time>
      </trkpt>
      <trkpt lat="44.76937" lon="3.78067">
        <ele>1032.6</ele>
        <time>2021-08-08T16:16:24Z</time>
      </trkpt>
      <trkpt lat="44.76933" lon="3.78072">
        <ele>1032.8</ele>
        <time>2021-08-08T16:16:26Z</time>
      </trkpt>
      <trkpt lat="44.76928" lon="3.78076">
        <ele>1033</ele>
        <time>2021-08-08T16:16:28Z</time>
      </trkpt>
      <trkpt lat="44.76924" lon="3.78081">
        <ele>1033.3</ele>
        <time>2021-08-08T16:16:30Z</time>
      </trkpt>
      <trkpt lat="44.7692" lon="3.78085">
        <ele>1033.5</ele>
        <time>2021-08-08T16:16:32Z</time>
      </trkpt>
      <trkpt lat="44.76915" lon="3.7809">
        <ele>1033.6</ele>
        <time>2021-08-08T16:16:34Z</time>
      </trkpt>
      <trkpt lat="44.76911" lon="3.78093">
        <ele>1033.7</ele>
        <time>2021-08-08T16:16:36Z</time>
      </trkpt>
      <trkpt lat="44.76906" lon="3.78096">
        <ele>1033.9</ele>
        <time>2021-08-08T16:16:38Z</time>
      </trkpt>
      <trkpt lat="44.76901" lon="3.78099">
        <ele>1034</ele>
        <time>2021-08-08T16:16:40Z</time>
      </trkpt>
      <trkpt lat="44.76897" lon="3.78102">
        <ele>1034.2</ele>
        <time>2021-08-08T16:16:42Z</time>
      </trkpt>
      <trkpt lat="44.76892" lon="3.78104">
        <ele>1034.3</ele>
        <time>2021-08-08T16:16:44Z</time>
      </trkpt>
      <trkpt lat="44.76886" lon="3.78107">
        <ele>1034.6</ele>
        <time>2021-08-08T16:16:46Z</time>
      </trkpt>
      <trkpt lat="44.76881" lon="3.78109">
        <ele>1034.9</ele>
        <time>2021-08-08T16:16:48Z</time>
      </trkpt>
      <trkpt lat="44.76875" lon="3.78111">
        <ele>1035.2</ele>
        <time>2021-08-08T16:16:50Z</time>
      </trkpt>
      <trkpt lat="44.7687" lon="3.78112">
        <ele>1035.5</ele>
        <time>2021-08-08T16:16:52Z</time>
      </trkpt>
      <trkpt lat="44.76865" lon="3.78113">
        <ele>1035.8</ele>
        <time>2021-08-08T16:16:54Z</time>
      </trkpt>
      <trkpt lat="44.76859" lon="3.78114">
        <ele>1036.1</ele>
        <time>2021-08-08T16:16:56Z</time>
      </trkpt>
      <trkpt lat="44.76854" lon="3.78115">
        <ele>1036.5</ele>
        <time>2021-08-08T16:16:58Z</time>
      </trkpt>
      <trkpt lat="44.76848" lon="3.78116">
        <ele>1036.9</ele>
        <time>2021-08-08T16:17:00Z</time>
      </trkpt>
      <trkpt lat="44.76842" lon="3.78118">
        <ele>1037.3</ele>
        <time>2021-08-08T16:17:02Z</time>
      </trkpt>
      <trkpt lat="44.76836" lon="3.78119">
        <ele>1037.6</ele>
        <time>2021-08-08T16:17:04Z</time>
      </trkpt>
      <trkpt lat="44.76831" lon="3.78121">
        <ele>1037.8</ele>
        <time>2021-08-08T16:17:06Z</time>
      </trkpt>
      <trkpt lat="44.76826" lon="3.78123">
        <ele>1037.6</ele>
        <time>2021-08-08T16:17:08Z</time>
      </trkpt>
      <trkpt lat="44.7682" lon="3.78125">
        <ele>1037.6</ele>
        <time>2021-08-08T16:17:10Z</time>
      </trkpt>
      <trkpt lat="44.76815" lon="3.78127">
        <ele>1037.5</ele>
        <time>2021-08-08T16:17:12Z</time>
      </trkpt>
      <trkpt lat="44.76809" lon="3.7813">
        <ele>1037.4</ele>
        <time>2021-08-08T16:17:14Z</time>
      </trkpt>
      <trkpt lat="44.76804" lon="3.78132">
        <ele>1037.3</ele>
        <time>2021-08-08T16:17:16Z</time>
      </trkpt>
      <trkpt lat="44.76799" lon="3.78135">
        <ele>1037.2</ele>
        <time>2021-08-08T16:17:18Z</time>
      </trkpt>
      <trkpt lat="44.76795" lon="3.78138">
        <ele>1037.2</ele>
        <time>2021-08-08T16:17:20Z</time>
      </trkpt>
      <trkpt lat="44.76792" lon="3.78141">
        <ele>1037.1</ele>
        <time>2021-08-08T16:17:22Z</time>
      </trkpt>
      <trkpt lat="44.76789" lon="3.78143">
        <ele>1037</ele>
        <time>2021-08-08T16:17:24Z</time>
      </trkpt>
      <trkpt lat="44.76786" lon="3.78146">
        <ele>1037</ele>
        <time>2021-08-08T16:17:26Z</time>
      </trkpt>
      <trkpt lat="44.76782" lon="3.78149">
        <ele>1036.9</ele>
        <time>2021-08-08T16:17:28Z</time>
      </trkpt>
      <trkpt lat="44.7678" lon="3.78152">
        <ele>1036.8</ele>
        <time>2021-08-08T16:17:30Z</time>
      </trkpt>
      <trkpt lat="44.76777" lon="3.78156">
        <ele>1036.7</ele>
        <time>2021-08-08T16:17:32Z</time>
      </trkpt>
      <trkpt lat="44.76773" lon="3.7816">
        <ele>1036.7</ele>
        <time>2021-08-08T16:17:34Z</time>
      </trkpt>
      <trkpt lat="44.7677" lon="3.78164">
        <ele>1036.6</ele>
        <time>2021-08-08T16:17:36Z</time>
      </trkpt>
      <trkpt lat="44.76767" lon="3.78169">
        <ele>1036.6</ele>
        <time>2021-08-08T16:17:38Z</time>
      </trkpt>
      <trkpt lat="44.76764" lon="3.78175">
        <ele>1036.6</ele>
        <time>2021-08-08T16:17:40Z</time>
      </trkpt>
      <trkpt lat="44.76762" lon="3.78181">
        <ele>1036.6</ele>
        <time>2021-08-08T16:17:42Z</time>
      </trkpt>
      <trkpt lat="44.7676" lon="3.78185">
        <ele>1036.7</ele>
        <time>2021-08-08T16:17:44Z</time>
      </trkpt>
      <trkpt lat="44.76759" lon="3.78188">
        <ele>1036.7</ele>
        <time>2021-08-08T16:17:46Z</time>
      </trkpt>
      <trkpt lat="44.76758" lon="3.78191">
        <ele>1036.7</ele>
        <time>2021-08-08T16:17:48Z</time>
      </trkpt>
      <trkpt lat="44.76756" lon="3.78197">
        <ele>1036.8</ele>
        <time>2021-08-08T16:17:50Z</time>
      </trkpt>
      <trkpt lat="44.76754" lon="3.78201">
        <ele>1036.8</ele>
        <time>2021-08-08T16:17:52Z</time>
      </trkpt>
      <trkpt lat="44.76752" lon="3.78206">
        <ele>1036.9</ele>
        <time>2021-08-08T16:17:54Z</time>
      </trkpt>
      <trkpt lat="44.76751" lon="3.78211">
        <ele>1037</ele>
        <time>2021-08-08T16:17:56Z</time>
      </trkpt>
      <trkpt lat="44.7675" lon="3.78217">
        <ele>1037</ele>
        <time>2021-08-08T16:17:58Z</time>
      </trkpt>
      <trkpt lat="44.76747" lon="3.78222">
        <ele>1036.9</ele>
        <time>2021-08-08T16:18:00Z</time>
      </trkpt>
      <trkpt lat="44.76745" lon="3.78227">
        <ele>1036.8</ele>
        <time>2021-08-08T16:18:02Z</time>
      </trkpt>
      <trkpt lat="44.76744" lon="3.78231">
        <ele>1036.7</ele>
        <time>2021-08-08T16:18:04Z</time>
      </trkpt>
      <trkpt lat="44.76743" lon="3.78237">
        <ele>1036.6</ele>
        <time>2021-08-08T16:18:06Z</time>
      </trkpt>
      <trkpt lat="44.76741" lon="3.78243">
        <ele>1036.6</ele>
        <time>2021-08-08T16:18:08Z</time>
      </trkpt>
      <trkpt lat="44.7674" lon="3.78249">
        <ele>1036.5</ele>
        <time>2021-08-08T16:18:10Z</time>
      </trkpt>
      <trkpt lat="44.76737" lon="3.78254">
        <ele>1036.5</ele>
        <time>2021-08-08T16:18:12Z</time>
      </trkpt>
      <trkpt lat="44.76736" lon="3.78259">
        <ele>1036.5</ele>
        <time>2021-08-08T16:18:14Z</time>
      </trkpt>
      <trkpt lat="44.76736" lon="3.78265">
        <ele>1036.6</ele>
        <time>2021-08-08T16:18:16Z</time>
      </trkpt>
      <trkpt lat="44.76733" lon="3.7827">
        <ele>1036.6</ele>
        <time>2021-08-08T16:18:18Z</time>
      </trkpt>
      <trkpt lat="44.76731" lon="3.78275">
        <ele>1036.6</ele>
        <time>2021-08-08T16:18:20Z</time>
      </trkpt>
      <trkpt lat="44.7673" lon="3.7828">
        <ele>1036.7</ele>
        <time>2021-08-08T16:18:22Z</time>
      </trkpt>
      <trkpt lat="44.76727" lon="3.78285">
        <ele>1036.7</ele>
        <time>2021-08-08T16:18:24Z</time>
      </trkpt>
      <trkpt lat="44.76726" lon="3.7829">
        <ele>1036.7</ele>
        <time>2021-08-08T16:18:26Z</time>
      </trkpt>
      <trkpt lat="44.76724" lon="3.78295">
        <ele>1036.7</ele>
        <time>2021-08-08T16:18:28Z</time>
      </trkpt>
      <trkpt lat="44.76722" lon="3.783">
        <ele>1036.7</ele>
        <time>2021-08-08T16:18:30Z</time>
      </trkpt>
      <trkpt lat="44.7672" lon="3.78304">
        <ele>1036.6</ele>
        <time>2021-08-08T16:18:32Z</time>
      </trkpt>
      <trkpt lat="44.76719" lon="3.78309">
        <ele>1036.7</ele>
        <time>2021-08-08T16:18:34Z</time>
      </trkpt>
      <trkpt lat="44.76717" lon="3.78313">
        <ele>1036.6</ele>
        <time>2021-08-08T16:18:36Z</time>
      </trkpt>
      <trkpt lat="44.76716" lon="3.78316">
        <ele>1036.6</ele>
        <time>2021-08-08T16:18:38Z</time>
      </trkpt>
      <trkpt lat="44.76714" lon="3.78321">
        <ele>1036.6</ele>
        <time>2021-08-08T16:18:40Z</time>
      </trkpt>
      <trkpt lat="44.76713" lon="3.78323">
        <ele>1036.6</ele>
        <time>2021-08-08T16:18:42Z</time>
      </trkpt>
      <trkpt lat="44.76713" lon="3.78329">
        <ele>1036.7</ele>
        <time>2021-08-08T16:18:44Z</time>
      </trkpt>
      <trkpt lat="44.76715" lon="3.78335">
        <ele>1037</ele>
        <time>2021-08-08T16:18:46Z</time>
      </trkpt>
      <trkpt lat="44.76721" lon="3.78336">
        <ele>1037.4</ele>
        <time>2021-08-08T16:18:48Z</time>
      </trkpt>
      <trkpt lat="44.76725" lon="3.78336">
        <ele>1037.6</ele>
        <time>2021-08-08T16:18:50Z</time>
      </trkpt>
      <trkpt lat="44.76727" lon="3.78335">
        <ele>1037.7</ele>
        <time>2021-08-08T16:18:52Z</time>
      </trkpt>
      <trkpt lat="44.76729" lon="3.78335">
        <ele>1037.8</ele>
        <time>2021-08-08T16:18:54Z</time>
      </trkpt>
      <trkpt lat="44.76731" lon="3.78336">
        <ele>1037.9</ele>
        <time>2021-08-08T16:18:56Z</time>
      </trkpt>
      <trkpt lat="44.76732" lon="3.78336">
        <ele>1038</ele>
        <time>2021-08-08T16:18:58Z</time>
      </trkpt>
      <trkpt lat="44.76732" lon="3.78336">
        <ele>1038</ele>
        <time>2021-08-08T16:19:00Z</time>
      </trkpt>
      <trkpt lat="44.76732" lon="3.78336">
        <ele>1038</ele>
        <time>2021-08-08T16:19:02Z</time>
      </trkpt>
      <trkpt lat="44.7674" lon="3.78299">
        <ele>1037.6</ele>
        <time>2021-08-08T16:19:40Z</time>
      </trkpt>
      <trkpt lat="44.76742" lon="3.78288">
        <ele>1037.5</ele>
        <time>2021-08-08T16:19:42Z</time>
      </trkpt>
      <trkpt lat="44.76744" lon="3.78277">
        <ele>1037.3</ele>
        <time>2021-08-08T16:19:44Z</time>
      </trkpt>
      <trkpt lat="44.76745" lon="3.78266">
        <ele>1037.2</ele>
        <time>2021-08-08T16:19:46Z</time>
      </trkpt>
      <trkpt lat="44.76746" lon="3.78255">
        <ele>1036.9</ele>
        <time>2021-08-08T16:19:48Z</time>
      </trkpt>
      <trkpt lat="44.76748" lon="3.78245">
        <ele>1036.9</ele>
        <time>2021-08-08T16:19:50Z</time>
      </trkpt>
      <trkpt lat="44.76749" lon="3.78236">
        <ele>1036.9</ele>
        <time>2021-08-08T16:19:52Z</time>
      </trkpt>
      <trkpt lat="44.76749" lon="3.78229">
        <ele>1037</ele>
        <time>2021-08-08T16:19:54Z</time>
      </trkpt>
      <trkpt lat="44.76751" lon="3.78221">
        <ele>1036.9</ele>
        <time>2021-08-08T16:19:56Z</time>
      </trkpt>
      <trkpt lat="44.76753" lon="3.78212">
        <ele>1036.9</ele>
        <time>2021-08-08T16:19:58Z</time>
      </trkpt>
      <trkpt lat="44.76755" lon="3.78205">
        <ele>1036.8</ele>
        <time>2021-08-08T16:20:00Z</time>
      </trkpt>
      <trkpt lat="44.76757" lon="3.78198">
        <ele>1036.8</ele>
        <time>2021-08-08T16:20:02Z</time>
      </trkpt>
      <trkpt lat="44.76757" lon="3.78197">
        <ele>1036.8</ele>
        <time>2021-08-08T16:20:04Z</time>
      </trkpt>
      <trkpt lat="44.76758" lon="3.78188">
        <ele>1036.7</ele>
        <time>2021-08-08T16:20:06Z</time>
      </trkpt>
      <trkpt lat="44.76759" lon="3.78186">
        <ele>1036.7</ele>
        <time>2021-08-08T16:20:08Z</time>
      </trkpt>
      <trkpt lat="44.7676" lon="3.78183">
        <ele>1036.7</ele>
        <time>2021-08-08T16:20:10Z</time>
      </trkpt>
      <trkpt lat="44.76761" lon="3.78182">
        <ele>1036.7</ele>
        <time>2021-08-08T16:20:12Z</time>
      </trkpt>
      <trkpt lat="44.76761" lon="3.78181">
        <ele>1036.7</ele>
        <time>2021-08-08T16:20:14Z</time>
      </trkpt>
      <trkpt lat="44.76761" lon="3.7818">
        <ele>1036.7</ele>
        <time>2021-08-08T16:20:16Z</time>
      </trkpt>
      <trkpt lat="44.76737" lon="3.7831">
        <ele>1037.7</ele>
        <time>2021-08-08T16:21:52Z</time>
      </trkpt>
      <trkpt lat="44.76736" lon="3.78318">
        <ele>1037.8</ele>
        <time>2021-08-08T16:21:54Z</time>
      </trkpt>
      <trkpt lat="44.76736" lon="3.78325">
        <ele>1038</ele>
        <time>2021-08-08T16:21:56Z</time>
      </trkpt>
      <trkpt lat="44.76735" lon="3.78332">
        <ele>1038.1</ele>
        <time>2021-08-08T16:21:58Z</time>
      </trkpt>
      <trkpt lat="44.76735" lon="3.78337">
        <ele>1038.2</ele>
        <time>2021-08-08T16:22:00Z</time>
      </trkpt>
      <trkpt lat="44.76736" lon="3.78342">
        <ele>1038.5</ele>
        <time>2021-08-08T16:22:02Z</time>
      </trkpt>
      <trkpt lat="44.76739" lon="3.78346">
        <ele>1038.8</ele>
        <time>2021-08-08T16:22:04Z</time>
      </trkpt>
      <trkpt lat="44.76743" lon="3.7835">
        <ele>1039.2</ele>
        <time>2021-08-08T16:22:06Z</time>
      </trkpt>
      <trkpt lat="44.76748" lon="3.78352">
        <ele>1039.6</ele>
        <time>2021-08-08T16:22:08Z</time>
      </trkpt>
      <trkpt lat="44.76752" lon="3.78355">
        <ele>1039.6</ele>
        <time>2021-08-08T16:22:10Z</time>
      </trkpt>
      <trkpt lat="44.76757" lon="3.78358">
        <ele>1039.4</ele>
        <time>2021-08-08T16:22:12Z</time>
      </trkpt>
      <trkpt lat="44.76761" lon="3.78361">
        <ele>1039.2</ele>
        <time>2021-08-08T16:22:14Z</time>
      </trkpt>
      <trkpt lat="44.76766" lon="3.78366">
        <ele>1039.1</ele>
        <time>2021-08-08T16:22:16Z</time>
      </trkpt>
      <trkpt lat="44.76771" lon="3.7837">
        <ele>1039</ele>
        <time>2021-08-08T16:22:18Z</time>
      </trkpt>
      <trkpt lat="44.76775" lon="3.78375">
        <ele>1039</ele>
        <time>2021-08-08T16:22:20Z</time>
      </trkpt>
      <trkpt lat="44.7678" lon="3.78381">
        <ele>1039</ele>
        <time>2021-08-08T16:22:22Z</time>
      </trkpt>
      <trkpt lat="44.76785" lon="3.78387">
        <ele>1039.1</ele>
        <time>2021-08-08T16:22:24Z</time>
      </trkpt>
      <trkpt lat="44.7679" lon="3.78392">
        <ele>1039.1</ele>
        <time>2021-08-08T16:22:26Z</time>
      </trkpt>
      <trkpt lat="44.76796" lon="3.78397">
        <ele>1039.1</ele>
        <time>2021-08-08T16:22:28Z</time>
      </trkpt>
      <trkpt lat="44.76802" lon="3.78403">
        <ele>1039.2</ele>
        <time>2021-08-08T16:22:30Z</time>
      </trkpt>
      <trkpt lat="44.76807" lon="3.78407">
        <ele>1039.3</ele>
        <time>2021-08-08T16:22:32Z</time>
      </trkpt>
      <trkpt lat="44.76813" lon="3.7841">
        <ele>1039.2</ele>
        <time>2021-08-08T16:22:34Z</time>
      </trkpt>
      <trkpt lat="44.76819" lon="3.78412">
        <ele>1039.2</ele>
        <time>2021-08-08T16:22:36Z</time>
      </trkpt>
      <trkpt lat="44.76826" lon="3.78414">
        <ele>1039</ele>
        <time>2021-08-08T16:22:38Z</time>
      </trkpt>
      <trkpt lat="44.76833" lon="3.78414">
        <ele>1038.8</ele>
        <time>2021-08-08T16:22:40Z</time>
      </trkpt>
      <trkpt lat="44.76842" lon="3.78412">
        <ele>1037.2</ele>
        <time>2021-08-08T16:22:42Z</time>
      </trkpt>
      <trkpt lat="44.76853" lon="3.78412">
        <ele>1035.5</ele>
        <time>2021-08-08T16:22:44Z</time>
      </trkpt>
      <trkpt lat="44.76864" lon="3.78416">
        <ele>1034.2</ele>
        <time>2021-08-08T16:22:46Z</time>
      </trkpt>
      <trkpt lat="44.76872" lon="3.78428">
        <ele>1034.2</ele>
        <time>2021-08-08T16:22:48Z</time>
      </trkpt>
      <trkpt lat="44.76879" lon="3.78441">
        <ele>1034.7</ele>
        <time>2021-08-08T16:22:50Z</time>
      </trkpt>
      <trkpt lat="44.76884" lon="3.78455">
        <ele>1035.3</ele>
        <time>2021-08-08T16:22:52Z</time>
      </trkpt>
      <trkpt lat="44.76889" lon="3.78469">
        <ele>1036.2</ele>
        <time>2021-08-08T16:22:54Z</time>
      </trkpt>
      <trkpt lat="44.76892" lon="3.78484">
        <ele>1037.3</ele>
        <time>2021-08-08T16:22:56Z</time>
      </trkpt>
      <trkpt lat="44.76895" lon="3.785">
        <ele>1038.7</ele>
        <time>2021-08-08T16:22:58Z</time>
      </trkpt>
      <trkpt lat="44.76896" lon="3.78514">
        <ele>1039.4</ele>
        <time>2021-08-08T16:23:00Z</time>
      </trkpt>
      <trkpt lat="44.76897" lon="3.7853">
        <ele>1040.2</ele>
        <time>2021-08-08T16:23:02Z</time>
      </trkpt>
      <trkpt lat="44.76902" lon="3.78546">
        <ele>1040.3</ele>
        <time>2021-08-08T16:23:04Z</time>
      </trkpt>
      <trkpt lat="44.76911" lon="3.78557">
        <ele>1039.4</ele>
        <time>2021-08-08T16:23:06Z</time>
      </trkpt>
      <trkpt lat="44.7692" lon="3.78566">
        <ele>1038.8</ele>
        <time>2021-08-08T16:23:08Z</time>
      </trkpt>
      <trkpt lat="44.7693" lon="3.78572">
        <ele>1038.5</ele>
        <time>2021-08-08T16:23:10Z</time>
      </trkpt>
      <trkpt lat="44.76941" lon="3.78577">
        <ele>1038</ele>
        <time>2021-08-08T16:23:12Z</time>
      </trkpt>
      <trkpt lat="44.7695" lon="3.78582">
        <ele>1037.5</ele>
        <time>2021-08-08T16:23:14Z</time>
      </trkpt>
      <trkpt lat="44.7696" lon="3.78585">
        <ele>1036.9</ele>
        <time>2021-08-08T16:23:16Z</time>
      </trkpt>
      <trkpt lat="44.76969" lon="3.78588">
        <ele>1036.4</ele>
        <time>2021-08-08T16:23:18Z</time>
      </trkpt>
      <trkpt lat="44.76976" lon="3.78589">
        <ele>1035.9</ele>
        <time>2021-08-08T16:23:20Z</time>
      </trkpt>
      <trkpt lat="44.76981" lon="3.7859">
        <ele>1035.6</ele>
        <time>2021-08-08T16:23:22Z</time>
      </trkpt>
      <trkpt lat="44.76985" lon="3.78594">
        <ele>1035.5</ele>
        <time>2021-08-08T16:23:24Z</time>
      </trkpt>
      <trkpt lat="44.76988" lon="3.78598">
        <ele>1035.4</ele>
        <time>2021-08-08T16:23:26Z</time>
      </trkpt>
      <trkpt lat="44.76991" lon="3.78601">
        <ele>1035.3</ele>
        <time>2021-08-08T16:23:28Z</time>
      </trkpt>
      <trkpt lat="44.76992" lon="3.78606">
        <ele>1035.4</ele>
        <time>2021-08-08T16:23:30Z</time>
      </trkpt>
      <trkpt lat="44.76992" lon="3.78611">
        <ele>1035.6</ele>
        <time>2021-08-08T16:23:32Z</time>
      </trkpt>
      <trkpt lat="44.76992" lon="3.78615">
        <ele>1035.7</ele>
        <time>2021-08-08T16:23:34Z</time>
      </trkpt>
      <trkpt lat="44.7699" lon="3.78619">
        <ele>1036</ele>
        <time>2021-08-08T16:23:36Z</time>
      </trkpt>
      <trkpt lat="44.7699" lon="3.78621">
        <ele>1036.1</ele>
        <time>2021-08-08T16:23:38Z</time>
      </trkpt>
      <trkpt lat="44.76989" lon="3.78625">
        <ele>1036.3</ele>
        <time>2021-08-08T16:23:40Z</time>
      </trkpt>
      <trkpt lat="44.76989" lon="3.78629">
        <ele>1036.5</ele>
        <time>2021-08-08T16:23:42Z</time>
      </trkpt>
      <trkpt lat="44.76989" lon="3.7863">
        <ele>1036.5</ele>
        <time>2021-08-08T16:23:44Z</time>
      </trkpt>
      <trkpt lat="44.76989" lon="3.78631">
        <ele>1036.5</ele>
        <time>2021-08-08T16:23:46Z</time>
      </trkpt>
      <trkpt lat="44.76976" lon="3.78651">
        <ele>1038.2</ele>
        <time>2021-08-08T16:26:30Z</time>
      </trkpt>
      <trkpt lat="44.76975" lon="3.78655">
        <ele>1038.4</ele>
        <time>2021-08-08T16:26:32Z</time>
      </trkpt>
      <trkpt lat="44.76975" lon="3.78658">
        <ele>1038.5</ele>
        <time>2021-08-08T16:26:34Z</time>
      </trkpt>
      <trkpt lat="44.76973" lon="3.78661">
        <ele>1038.7</ele>
        <time>2021-08-08T16:26:36Z</time>
      </trkpt>
      <trkpt lat="44.76974" lon="3.78662">
        <ele>1038.7</ele>
        <time>2021-08-08T16:26:38Z</time>
      </trkpt>
      <trkpt lat="44.76973" lon="3.78666">
        <ele>1038.9</ele>
        <time>2021-08-08T16:26:40Z</time>
      </trkpt>
      <trkpt lat="44.76975" lon="3.78668">
        <ele>1038.9</ele>
        <time>2021-08-08T16:26:42Z</time>
      </trkpt>
      <trkpt lat="44.76972" lon="3.78668">
        <ele>1039.1</ele>
        <time>2021-08-08T16:26:44Z</time>
      </trkpt>
      <trkpt lat="44.7697" lon="3.78671">
        <ele>1039.2</ele>
        <time>2021-08-08T16:26:46Z</time>
      </trkpt>
      <trkpt lat="44.76969" lon="3.78676">
        <ele>1039.5</ele>
        <time>2021-08-08T16:26:48Z</time>
      </trkpt>
      <trkpt lat="44.76968" lon="3.78678">
        <ele>1039.7</ele>
        <time>2021-08-08T16:26:50Z</time>
      </trkpt>
      <trkpt lat="44.76966" lon="3.78678">
        <ele>1039.8</ele>
        <time>2021-08-08T16:26:52Z</time>
      </trkpt>
      <trkpt lat="44.76966" lon="3.78679">
        <ele>1039.8</ele>
        <time>2021-08-08T16:26:54Z</time>
      </trkpt>
      <trkpt lat="44.76966" lon="3.78681">
        <ele>1039.9</ele>
        <time>2021-08-08T16:26:56Z</time>
      </trkpt>
      <trkpt lat="44.76965" lon="3.78682">
        <ele>1039.9</ele>
        <time>2021-08-08T16:26:58Z</time>
      </trkpt>
      <trkpt lat="44.76973" lon="3.78661">
        <ele>1038.7</ele>
        <time>2021-08-08T16:30:14Z</time>
      </trkpt>
      <trkpt lat="44.76971" lon="3.78663">
        <ele>1038.9</ele>
        <time>2021-08-08T16:30:16Z</time>
      </trkpt>
      <trkpt lat="44.76971" lon="3.78665">
        <ele>1039</ele>
        <time>2021-08-08T16:30:18Z</time>
      </trkpt>
      <trkpt lat="44.7697" lon="3.78669">
        <ele>1039.2</ele>
        <time>2021-08-08T16:30:20Z</time>
      </trkpt>
      <trkpt lat="44.76969" lon="3.78671">
        <ele>1039.4</ele>
        <time>2021-08-08T16:30:22Z</time>
      </trkpt>
      <trkpt lat="44.76967" lon="3.78673">
        <ele>1039.6</ele>
        <time>2021-08-08T16:30:24Z</time>
      </trkpt>
      <trkpt lat="44.76966" lon="3.78676">
        <ele>1039.7</ele>
        <time>2021-08-08T16:30:26Z</time>
      </trkpt>
      <trkpt lat="44.76966" lon="3.78679">
        <ele>1039.8</ele>
        <time>2021-08-08T16:30:28Z</time>
      </trkpt>
      <trkpt lat="44.76968" lon="3.78682">
        <ele>1039.7</ele>
        <time>2021-08-08T16:30:30Z</time>
      </trkpt>
      <trkpt lat="44.7697" lon="3.78684">
        <ele>1039.7</ele>
        <time>2021-08-08T16:30:32Z</time>
      </trkpt>
      <trkpt lat="44.76971" lon="3.78685">
        <ele>1039.6</ele>
        <time>2021-08-08T16:30:34Z</time>
      </trkpt>
      <trkpt lat="44.76971" lon="3.78688">
        <ele>1039.7</ele>
        <time>2021-08-08T16:30:36Z</time>
      </trkpt>
      <trkpt lat="44.76972" lon="3.7869">
        <ele>1039.7</ele>
        <time>2021-08-08T16:30:38Z</time>
      </trkpt>
      <trkpt lat="44.76974" lon="3.78692">
        <ele>1039.6</ele>
        <time>2021-08-08T16:30:40Z</time>
      </trkpt>
      <trkpt lat="44.76974" lon="3.78692">
        <ele>1039.6</ele>
        <time>2021-08-08T16:30:42Z</time>
      </trkpt>
      <trkpt lat="44.76987" lon="3.78685">
        <ele>1038.4</ele>
        <time>2021-08-08T16:31:04Z</time>
      </trkpt>
      <trkpt lat="44.76989" lon="3.78682">
        <ele>1038.2</ele>
        <time>2021-08-08T16:31:06Z</time>
      </trkpt>
      <trkpt lat="44.76992" lon="3.78681">
        <ele>1038</ele>
        <time>2021-08-08T16:31:08Z</time>
      </trkpt>
      <trkpt lat="44.76993" lon="3.78678">
        <ele>1037.7</ele>
        <time>2021-08-08T16:31:10Z</time>
      </trkpt>
      <trkpt lat="44.76995" lon="3.78676">
        <ele>1037.6</ele>
        <time>2021-08-08T16:31:12Z</time>
      </trkpt>
      <trkpt lat="44.76996" lon="3.78674">
        <ele>1037.4</ele>
        <time>2021-08-08T16:31:14Z</time>
      </trkpt>
      <trkpt lat="44.76998" lon="3.78671">
        <ele>1037.3</ele>
        <time>2021-08-08T16:31:16Z</time>
      </trkpt>
      <trkpt lat="44.76999" lon="3.78668">
        <ele>1037.1</ele>
        <time>2021-08-08T16:31:18Z</time>
      </trkpt>
      <trkpt lat="44.77001" lon="3.78665">
        <ele>1036.9</ele>
        <time>2021-08-08T16:31:20Z</time>
      </trkpt>
      <trkpt lat="44.77003" lon="3.78662">
        <ele>1036.7</ele>
        <time>2021-08-08T16:31:22Z</time>
      </trkpt>
      <trkpt lat="44.77005" lon="3.7866">
        <ele>1036.5</ele>
        <time>2021-08-08T16:31:24Z</time>
      </trkpt>
      <trkpt lat="44.77005" lon="3.78656">
        <ele>1036.4</ele>
        <time>2021-08-08T16:31:26Z</time>
      </trkpt>
      <trkpt lat="44.77005" lon="3.78654">
        <ele>1036.3</ele>
        <time>2021-08-08T16:31:28Z</time>
      </trkpt>
      <trkpt lat="44.77004" lon="3.7865">
        <ele>1036.2</ele>
        <time>2021-08-08T16:31:30Z</time>
      </trkpt>
      <trkpt lat="44.77006" lon="3.78647">
        <ele>1036</ele>
        <time>2021-08-08T16:31:32Z</time>
      </trkpt>
      <trkpt lat="44.77009" lon="3.78643">
        <ele>1035.7</ele>
        <time>2021-08-08T16:31:34Z</time>
      </trkpt>
      <trkpt lat="44.77009" lon="3.78641">
        <ele>1035.6</ele>
        <time>2021-08-08T16:31:36Z</time>
      </trkpt>
      <trkpt lat="44.7701" lon="3.78639">
        <ele>1035.5</ele>
        <time>2021-08-08T16:31:38Z</time>
      </trkpt>
      <trkpt lat="44.77009" lon="3.78639">
        <ele>1035.5</ele>
        <time>2021-08-08T16:31:40Z</time>
      </trkpt>
      <trkpt lat="44.77011" lon="3.7864">
        <ele>1035.5</ele>
        <time>2021-08-08T16:31:42Z</time>
      </trkpt>
      <trkpt lat="44.77012" lon="3.78642">
        <ele>1035.4</ele>
        <time>2021-08-08T16:31:44Z</time>
      </trkpt>
      <trkpt lat="44.77012" lon="3.7864">
        <ele>1035.4</ele>
        <time>2021-08-08T16:31:46Z</time>
      </trkpt>
      <trkpt lat="44.77007" lon="3.78615">
        <ele>1034.8</ele>
        <time>2021-08-08T16:34:12Z</time>
      </trkpt>
      <trkpt lat="44.77008" lon="3.78612">
        <ele>1034.7</ele>
        <time>2021-08-08T16:34:14Z</time>
      </trkpt>
      <trkpt lat="44.77007" lon="3.78608">
        <ele>1034.6</ele>
        <time>2021-08-08T16:34:16Z</time>
      </trkpt>
      <trkpt lat="44.77005" lon="3.78605">
        <ele>1034.6</ele>
        <time>2021-08-08T16:34:18Z</time>
      </trkpt>
      <trkpt lat="44.77002" lon="3.78603">
        <ele>1034.6</ele>
        <time>2021-08-08T16:34:20Z</time>
      </trkpt>
      <trkpt lat="44.77" lon="3.78604">
        <ele>1034.8</ele>
        <time>2021-08-08T16:34:22Z</time>
      </trkpt>
      <trkpt lat="44.76997" lon="3.78603">
        <ele>1034.9</ele>
        <time>2021-08-08T16:34:24Z</time>
      </trkpt>
      <trkpt lat="44.76995" lon="3.78604">
        <ele>1035.1</ele>
        <time>2021-08-08T16:34:26Z</time>
      </trkpt>
      <trkpt lat="44.76993" lon="3.78606">
        <ele>1035.3</ele>
        <time>2021-08-08T16:34:28Z</time>
      </trkpt>
      <trkpt lat="44.76992" lon="3.7861">
        <ele>1035.5</ele>
        <time>2021-08-08T16:34:30Z</time>
      </trkpt>
      <trkpt lat="44.76992" lon="3.78613">
        <ele>1035.7</ele>
        <time>2021-08-08T16:34:32Z</time>
      </trkpt>
      <trkpt lat="44.76992" lon="3.78616">
        <ele>1035.8</ele>
        <time>2021-08-08T16:34:34Z</time>
      </trkpt>
      <trkpt lat="44.76991" lon="3.78619">
        <ele>1035.9</ele>
        <time>2021-08-08T16:34:36Z</time>
      </trkpt>
      <trkpt lat="44.76989" lon="3.78622">
        <ele>1036.2</ele>
        <time>2021-08-08T16:34:38Z</time>
      </trkpt>
      <trkpt lat="44.76988" lon="3.78623">
        <ele>1036.3</ele>
        <time>2021-08-08T16:34:40Z</time>
      </trkpt>
      <trkpt lat="44.76987" lon="3.78626">
        <ele>1036.5</ele>
        <time>2021-08-08T16:34:42Z</time>
      </trkpt>
      <trkpt lat="44.76986" lon="3.78629">
        <ele>1036.6</ele>
        <time>2021-08-08T16:34:44Z</time>
      </trkpt>
      <trkpt lat="44.76986" lon="3.78631">
        <ele>1036.7</ele>
        <time>2021-08-08T16:34:46Z</time>
      </trkpt>
      <trkpt lat="44.77005" lon="3.78614">
        <ele>1034.9</ele>
        <time>2021-08-08T16:42:56Z</time>
      </trkpt>
      <trkpt lat="44.77005" lon="3.7862">
        <ele>1035.1</ele>
        <time>2021-08-08T16:42:58Z</time>
      </trkpt>
      <trkpt lat="44.77005" lon="3.78626">
        <ele>1035.3</ele>
        <time>2021-08-08T16:43:00Z</time>
      </trkpt>
      <trkpt lat="44.77005" lon="3.7863">
        <ele>1035.4</ele>
        <time>2021-08-08T16:43:02Z</time>
      </trkpt>
      <trkpt lat="44.77006" lon="3.78634">
        <ele>1035.5</ele>
        <time>2021-08-08T16:43:04Z</time>
      </trkpt>
      <trkpt lat="44.77005" lon="3.7864">
        <ele>1035.7</ele>
        <time>2021-08-08T16:43:06Z</time>
      </trkpt>
      <trkpt lat="44.77004" lon="3.78646">
        <ele>1036</ele>
        <time>2021-08-08T16:43:08Z</time>
      </trkpt>
      <trkpt lat="44.77003" lon="3.78651">
        <ele>1036.3</ele>
        <time>2021-08-08T16:43:10Z</time>
      </trkpt>
      <trkpt lat="44.77001" lon="3.78656">
        <ele>1036.5</ele>
        <time>2021-08-08T16:43:12Z</time>
      </trkpt>
      <trkpt lat="44.76999" lon="3.78661">
        <ele>1036.8</ele>
        <time>2021-08-08T16:43:14Z</time>
      </trkpt>
      <trkpt lat="44.76998" lon="3.78666">
        <ele>1037.1</ele>
        <time>2021-08-08T16:43:16Z</time>
      </trkpt>
      <trkpt lat="44.76996" lon="3.78671">
        <ele>1037.4</ele>
        <time>2021-08-08T16:43:18Z</time>
      </trkpt>
      <trkpt lat="44.76994" lon="3.78676">
        <ele>1037.6</ele>
        <time>2021-08-08T16:43:20Z</time>
      </trkpt>
      <trkpt lat="44.76992" lon="3.7868">
        <ele>1037.9</ele>
        <time>2021-08-08T16:43:22Z</time>
      </trkpt>
      <trkpt lat="44.76989" lon="3.78685">
        <ele>1038.2</ele>
        <time>2021-08-08T16:43:24Z</time>
      </trkpt>
      <trkpt lat="44.76986" lon="3.78689">
        <ele>1038.5</ele>
        <time>2021-08-08T16:43:26Z</time>
      </trkpt>
      <trkpt lat="44.76983" lon="3.7869">
        <ele>1038.8</ele>
        <time>2021-08-08T16:43:28Z</time>
      </trkpt>
      <trkpt lat="44.7698" lon="3.78692">
        <ele>1039.1</ele>
        <time>2021-08-08T16:43:30Z</time>
      </trkpt>
      <trkpt lat="44.76977" lon="3.78695">
        <ele>1039.4</ele>
        <time>2021-08-08T16:43:32Z</time>
      </trkpt>
      <trkpt lat="44.76973" lon="3.78697">
        <ele>1039.8</ele>
        <time>2021-08-08T16:43:34Z</time>
      </trkpt>
      <trkpt lat="44.7697" lon="3.78698">
        <ele>1040.1</ele>
        <time>2021-08-08T16:43:36Z</time>
      </trkpt>
      <trkpt lat="44.76967" lon="3.78699">
        <ele>1040.3</ele>
        <time>2021-08-08T16:43:38Z</time>
      </trkpt>
      <trkpt lat="44.76963" lon="3.78701">
        <ele>1040.6</ele>
        <time>2021-08-08T16:43:40Z</time>
      </trkpt>
      <trkpt lat="44.7696" lon="3.78703">
        <ele>1040.9</ele>
        <time>2021-08-08T16:43:42Z</time>
      </trkpt>
      <trkpt lat="44.76958" lon="3.78705">
        <ele>1041.2</ele>
        <time>2021-08-08T16:43:44Z</time>
      </trkpt>
      <trkpt lat="44.76955" lon="3.78706">
        <ele>1041.4</ele>
        <time>2021-08-08T16:43:46Z</time>
      </trkpt>
      <trkpt lat="44.76953" lon="3.78707">
        <ele>1041.6</ele>
        <time>2021-08-08T16:43:48Z</time>
      </trkpt>
      <trkpt lat="44.76951" lon="3.78709">
        <ele>1041.9</ele>
        <time>2021-08-08T16:43:50Z</time>
      </trkpt>
      <trkpt lat="44.76949" lon="3.78711">
        <ele>1042.1</ele>
        <time>2021-08-08T16:43:52Z</time>
      </trkpt>
      <trkpt lat="44.76947" lon="3.78713">
        <ele>1042.3</ele>
        <time>2021-08-08T16:43:54Z</time>
      </trkpt>
      <trkpt lat="44.76944" lon="3.78716">
        <ele>1042.6</ele>
        <time>2021-08-08T16:43:56Z</time>
      </trkpt>
      <trkpt lat="44.76943" lon="3.78716">
        <ele>1042.7</ele>
        <time>2021-08-08T16:43:58Z</time>
      </trkpt>
      <trkpt lat="44.7694" lon="3.78718">
        <ele>1043</ele>
        <time>2021-08-08T16:44:00Z</time>
      </trkpt>
      <trkpt lat="44.76937" lon="3.7872">
        <ele>1043.3</ele>
        <time>2021-08-08T16:44:02Z</time>
      </trkpt>
      <trkpt lat="44.76934" lon="3.78723">
        <ele>1043.7</ele>
        <time>2021-08-08T16:44:04Z</time>
      </trkpt>
      <trkpt lat="44.76931" lon="3.78726">
        <ele>1044</ele>
        <time>2021-08-08T16:44:06Z</time>
      </trkpt>
      <trkpt lat="44.76929" lon="3.78728">
        <ele>1044.2</ele>
        <time>2021-08-08T16:44:08Z</time>
      </trkpt>
      <trkpt lat="44.76925" lon="3.7873">
        <ele>1044.6</ele>
        <time>2021-08-08T16:44:10Z</time>
      </trkpt>
      <trkpt lat="44.76922" lon="3.78732">
        <ele>1044.9</ele>
        <time>2021-08-08T16:44:12Z</time>
      </trkpt>
      <trkpt lat="44.76919" lon="3.78734">
        <ele>1045.2</ele>
        <time>2021-08-08T16:44:14Z</time>
      </trkpt>
      <trkpt lat="44.76916" lon="3.78737">
        <ele>1045.5</ele>
        <time>2021-08-08T16:44:16Z</time>
      </trkpt>
      <trkpt lat="44.76914" lon="3.78739">
        <ele>1045.9</ele>
        <time>2021-08-08T16:44:18Z</time>
      </trkpt>
      <trkpt lat="44.76911" lon="3.78742">
        <ele>1046.3</ele>
        <time>2021-08-08T16:44:20Z</time>
      </trkpt>
      <trkpt lat="44.76908" lon="3.78744">
        <ele>1046.8</ele>
        <time>2021-08-08T16:44:22Z</time>
      </trkpt>
      <trkpt lat="44.76905" lon="3.78746">
        <ele>1047.2</ele>
        <time>2021-08-08T16:44:24Z</time>
      </trkpt>
      <trkpt lat="44.76902" lon="3.78749">
        <ele>1047.5</ele>
        <time>2021-08-08T16:44:26Z</time>
      </trkpt>
      <trkpt lat="44.769" lon="3.78752">
        <ele>1047.8</ele>
        <time>2021-08-08T16:44:28Z</time>
      </trkpt>
      <trkpt lat="44.76897" lon="3.78753">
        <ele>1048.1</ele>
        <time>2021-08-08T16:44:30Z</time>
      </trkpt>
      <trkpt lat="44.76894" lon="3.78754">
        <ele>1048.5</ele>
        <time>2021-08-08T16:44:32Z</time>
      </trkpt>
      <trkpt lat="44.76891" lon="3.78757">
        <ele>1048.8</ele>
        <time>2021-08-08T16:44:34Z</time>
      </trkpt>
      <trkpt lat="44.76889" lon="3.7876">
        <ele>1049</ele>
        <time>2021-08-08T16:44:36Z</time>
      </trkpt>
      <trkpt lat="44.76886" lon="3.78762">
        <ele>1049.3</ele>
        <time>2021-08-08T16:44:38Z</time>
      </trkpt>
      <trkpt lat="44.76883" lon="3.78763">
        <ele>1049.6</ele>
        <time>2021-08-08T16:44:40Z</time>
      </trkpt>
      <trkpt lat="44.7688" lon="3.78766">
        <ele>1049.9</ele>
        <time>2021-08-08T16:44:42Z</time>
      </trkpt>
      <trkpt lat="44.76878" lon="3.78767">
        <ele>1050.2</ele>
        <time>2021-08-08T16:44:44Z</time>
      </trkpt>
      <trkpt lat="44.76875" lon="3.7877">
        <ele>1050.5</ele>
        <time>2021-08-08T16:44:46Z</time>
      </trkpt>
      <trkpt lat="44.76872" lon="3.78772">
        <ele>1050.8</ele>
        <time>2021-08-08T16:44:48Z</time>
      </trkpt>
      <trkpt lat="44.76869" lon="3.78774">
        <ele>1051.1</ele>
        <time>2021-08-08T16:44:50Z</time>
      </trkpt>
      <trkpt lat="44.76867" lon="3.78777">
        <ele>1051.4</ele>
        <time>2021-08-08T16:44:52Z</time>
      </trkpt>
      <trkpt lat="44.76864" lon="3.78779">
        <ele>1051.7</ele>
        <time>2021-08-08T16:44:54Z</time>
      </trkpt>
      <trkpt lat="44.7686" lon="3.7878">
        <ele>1052.1</ele>
        <time>2021-08-08T16:44:56Z</time>
      </trkpt>
      <trkpt lat="44.76858" lon="3.78782">
        <ele>1052.4</ele>
        <time>2021-08-08T16:44:58Z</time>
      </trkpt>
      <trkpt lat="44.76855" lon="3.78784">
        <ele>1052.7</ele>
        <time>2021-08-08T16:45:00Z</time>
      </trkpt>
      <trkpt lat="44.76851" lon="3.78785">
        <ele>1053.1</ele>
        <time>2021-08-08T16:45:02Z</time>
      </trkpt>
      <trkpt lat="44.76847" lon="3.78787">
        <ele>1053.5</ele>
        <time>2021-08-08T16:45:04Z</time>
      </trkpt>
      <trkpt lat="44.76844" lon="3.78789">
        <ele>1053.9</ele>
        <time>2021-08-08T16:45:06Z</time>
      </trkpt>
      <trkpt lat="44.76842" lon="3.78789">
        <ele>1054.1</ele>
        <time>2021-08-08T16:45:08Z</time>
      </trkpt>
      <trkpt lat="44.7684" lon="3.78791">
        <ele>1054.3</ele>
        <time>2021-08-08T16:45:10Z</time>
      </trkpt>
      <trkpt lat="44.76837" lon="3.78792">
        <ele>1054.6</ele>
        <time>2021-08-08T16:45:12Z</time>
      </trkpt>
      <trkpt lat="44.76834" lon="3.78792">
        <ele>1054.9</ele>
        <time>2021-08-08T16:45:14Z</time>
      </trkpt>
      <trkpt lat="44.76831" lon="3.78793">
        <ele>1055.1</ele>
        <time>2021-08-08T16:45:16Z</time>
      </trkpt>
      <trkpt lat="44.76829" lon="3.78796">
        <ele>1055.2</ele>
        <time>2021-08-08T16:45:18Z</time>
      </trkpt>
      <trkpt lat="44.76827" lon="3.78798">
        <ele>1055.3</ele>
        <time>2021-08-08T16:45:20Z</time>
      </trkpt>
      <trkpt lat="44.76825" lon="3.78798">
        <ele>1055.4</ele>
        <time>2021-08-08T16:45:22Z</time>
      </trkpt>
      <trkpt lat="44.76823" lon="3.788">
        <ele>1055.5</ele>
        <time>2021-08-08T16:45:24Z</time>
      </trkpt>
      <trkpt lat="44.76821" lon="3.78802">
        <ele>1055.6</ele>
        <time>2021-08-08T16:45:26Z</time>
      </trkpt>
      <trkpt lat="44.76819" lon="3.78804">
        <ele>1055.8</ele>
        <time>2021-08-08T16:45:28Z</time>
      </trkpt>
      <trkpt lat="44.76817" lon="3.78806">
        <ele>1055.8</ele>
        <time>2021-08-08T16:45:30Z</time>
      </trkpt>
      <trkpt lat="44.76815" lon="3.78808">
        <ele>1055.9</ele>
        <time>2021-08-08T16:45:32Z</time>
      </trkpt>
      <trkpt lat="44.76813" lon="3.7881">
        <ele>1056</ele>
        <time>2021-08-08T16:45:34Z</time>
      </trkpt>
      <trkpt lat="44.76812" lon="3.78811">
        <ele>1056.1</ele>
        <time>2021-08-08T16:45:36Z</time>
      </trkpt>
      <trkpt lat="44.76811" lon="3.78812">
        <ele>1056.1</ele>
        <time>2021-08-08T16:45:38Z</time>
      </trkpt>
      <trkpt lat="44.76811" lon="3.78813">
        <ele>1056.1</ele>
        <time>2021-08-08T16:45:40Z</time>
      </trkpt>
      <trkpt lat="44.76811" lon="3.78813">
        <ele>1056.1</ele>
        <time>2021-08-08T16:45:42Z</time>
      </trkpt>
      <trkpt lat="44.76811" lon="3.78814">
        <ele>1056.1</ele>
        <time>2021-08-08T16:45:44Z</time>
      </trkpt>
      <trkpt lat="44.76801" lon="3.78824">
        <ele>1056.6</ele>
        <time>2021-08-08T16:47:08Z</time>
      </trkpt>
      <trkpt lat="44.76798" lon="3.78827">
        <ele>1056.7</ele>
        <time>2021-08-08T16:47:10Z</time>
      </trkpt>
      <trkpt lat="44.76794" lon="3.7883">
        <ele>1056.9</ele>
        <time>2021-08-08T16:47:12Z</time>
      </trkpt>
      <trkpt lat="44.7679" lon="3.78832">
        <ele>1057.1</ele>
        <time>2021-08-08T16:47:14Z</time>
      </trkpt>
      <trkpt lat="44.76786" lon="3.78835">
        <ele>1057.1</ele>
        <time>2021-08-08T16:47:16Z</time>
      </trkpt>
      <trkpt lat="44.76782" lon="3.78839">
        <ele>1057.1</ele>
        <time>2021-08-08T16:47:18Z</time>
      </trkpt>
      <trkpt lat="44.76778" lon="3.78841">
        <ele>1057.1</ele>
        <time>2021-08-08T16:47:20Z</time>
      </trkpt>
      <trkpt lat="44.76773" lon="3.78843">
        <ele>1057.2</ele>
        <time>2021-08-08T16:47:22Z</time>
      </trkpt>
      <trkpt lat="44.76769" lon="3.78846">
        <ele>1057.2</ele>
        <time>2021-08-08T16:47:24Z</time>
      </trkpt>
      <trkpt lat="44.76765" lon="3.78848">
        <ele>1057.2</ele>
        <time>2021-08-08T16:47:26Z</time>
      </trkpt>
      <trkpt lat="44.76761" lon="3.7885">
        <ele>1057.3</ele>
        <time>2021-08-08T16:47:28Z</time>
      </trkpt>
      <trkpt lat="44.76756" lon="3.78853">
        <ele>1057.3</ele>
        <time>2021-08-08T16:47:30Z</time>
      </trkpt>
      <trkpt lat="44.76751" lon="3.78856">
        <ele>1057.3</ele>
        <time>2021-08-08T16:47:32Z</time>
      </trkpt>
      <trkpt lat="44.76746" lon="3.78858">
        <ele>1057.5</ele>
        <time>2021-08-08T16:47:34Z</time>
      </trkpt>
      <trkpt lat="44.76742" lon="3.7886">
        <ele>1057.6</ele>
        <time>2021-08-08T16:47:36Z</time>
      </trkpt>
      <trkpt lat="44.76738" lon="3.78861">
        <ele>1057.8</ele>
        <time>2021-08-08T16:47:38Z</time>
      </trkpt>
      <trkpt lat="44.76733" lon="3.78863">
        <ele>1057.9</ele>
        <time>2021-08-08T16:47:40Z</time>
      </trkpt>
      <trkpt lat="44.76729" lon="3.78866">
        <ele>1058</ele>
        <time>2021-08-08T16:47:42Z</time>
      </trkpt>
      <trkpt lat="44.76724" lon="3.78868">
        <ele>1058.2</ele>
        <time>2021-08-08T16:47:44Z</time>
      </trkpt>
      <trkpt lat="44.76719" lon="3.78871">
        <ele>1058.3</ele>
        <time>2021-08-08T16:47:46Z</time>
      </trkpt>
      <trkpt lat="44.76714" lon="3.78873">
        <ele>1058.5</ele>
        <time>2021-08-08T16:47:48Z</time>
      </trkpt>
      <trkpt lat="44.76709" lon="3.78876">
        <ele>1058.6</ele>
        <time>2021-08-08T16:47:50Z</time>
      </trkpt>
      <trkpt lat="44.76705" lon="3.78878">
        <ele>1058.8</ele>
        <time>2021-08-08T16:47:52Z</time>
      </trkpt>
      <trkpt lat="44.767" lon="3.78881">
        <ele>1058.9</ele>
        <time>2021-08-08T16:47:54Z</time>
      </trkpt>
      <trkpt lat="44.76695" lon="3.78883">
        <ele>1059.1</ele>
        <time>2021-08-08T16:47:56Z</time>
      </trkpt>
      <trkpt lat="44.76691" lon="3.78886">
        <ele>1059.2</ele>
        <time>2021-08-08T16:47:58Z</time>
      </trkpt>
      <trkpt lat="44.76686" lon="3.78888">
        <ele>1059.4</ele>
        <time>2021-08-08T16:48:00Z</time>
      </trkpt>
      <trkpt lat="44.76682" lon="3.7889">
        <ele>1059.6</ele>
        <time>2021-08-08T16:48:02Z</time>
      </trkpt>
      <trkpt lat="44.76678" lon="3.78892">
        <ele>1059.7</ele>
        <time>2021-08-08T16:48:04Z</time>
      </trkpt>
      <trkpt lat="44.76674" lon="3.78894">
        <ele>1059.9</ele>
        <time>2021-08-08T16:48:06Z</time>
      </trkpt>
      <trkpt lat="44.7667" lon="3.78895">
        <ele>1060.1</ele>
        <time>2021-08-08T16:48:08Z</time>
      </trkpt>
      <trkpt lat="44.76666" lon="3.78898">
        <ele>1060.2</ele>
        <time>2021-08-08T16:48:10Z</time>
      </trkpt>
      <trkpt lat="44.76662" lon="3.789">
        <ele>1060.4</ele>
        <time>2021-08-08T16:48:12Z</time>
      </trkpt>
      <trkpt lat="44.7666" lon="3.78901">
        <ele>1060.5</ele>
        <time>2021-08-08T16:48:14Z</time>
      </trkpt>
      <trkpt lat="44.76658" lon="3.78903">
        <ele>1060.5</ele>
        <time>2021-08-08T16:48:16Z</time>
      </trkpt>
      <trkpt lat="44.76655" lon="3.78906">
        <ele>1060.6</ele>
        <time>2021-08-08T16:48:18Z</time>
      </trkpt>
      <trkpt lat="44.76653" lon="3.78909">
        <ele>1060.5</ele>
        <time>2021-08-08T16:48:20Z</time>
      </trkpt>
      <trkpt lat="44.76653" lon="3.78911">
        <ele>1060.5</ele>
        <time>2021-08-08T16:48:22Z</time>
      </trkpt>
      <trkpt lat="44.76653" lon="3.78911">
        <ele>1060.5</ele>
        <time>2021-08-08T16:48:24Z</time>
      </trkpt>
      <trkpt lat="44.76653" lon="3.7891">
        <ele>1060.5</ele>
        <time>2021-08-08T16:48:26Z</time>
      </trkpt>
      <trkpt lat="44.76653" lon="3.78911">
        <ele>1060.5</ele>
        <time>2021-08-08T16:48:28Z</time>
      </trkpt>
      <trkpt lat="44.76653" lon="3.78911">
        <ele>1060.5</ele>
        <time>2021-08-08T16:48:30Z</time>
      </trkpt>
      <trkpt lat="44.7664" lon="3.78925">
        <ele>1060.9</ele>
        <time>2021-08-08T16:48:42Z</time>
      </trkpt>
      <trkpt lat="44.76634" lon="3.78929">
        <ele>1061.2</ele>
        <time>2021-08-08T16:48:44Z</time>
      </trkpt>
      <trkpt lat="44.76629" lon="3.78934">
        <ele>1061.4</ele>
        <time>2021-08-08T16:48:46Z</time>
      </trkpt>
      <trkpt lat="44.76623" lon="3.78939">
        <ele>1061.6</ele>
        <time>2021-08-08T16:48:48Z</time>
      </trkpt>
      <trkpt lat="44.76618" lon="3.78944">
        <ele>1061.8</ele>
        <time>2021-08-08T16:48:50Z</time>
      </trkpt>
      <trkpt lat="44.76612" lon="3.7895">
        <ele>1062</ele>
        <time>2021-08-08T16:48:52Z</time>
      </trkpt>
      <trkpt lat="44.76605" lon="3.78955">
        <ele>1062.3</ele>
        <time>2021-08-08T16:48:54Z</time>
      </trkpt>
      <trkpt lat="44.766" lon="3.78961">
        <ele>1062.5</ele>
        <time>2021-08-08T16:48:56Z</time>
      </trkpt>
      <trkpt lat="44.76595" lon="3.78968">
        <ele>1062.6</ele>
        <time>2021-08-08T16:48:58Z</time>
      </trkpt>
      <trkpt lat="44.7659" lon="3.78974">
        <ele>1062.7</ele>
        <time>2021-08-08T16:49:00Z</time>
      </trkpt>
      <trkpt lat="44.76584" lon="3.78979">
        <ele>1062.9</ele>
        <time>2021-08-08T16:49:02Z</time>
      </trkpt>
      <trkpt lat="44.76579" lon="3.78986">
        <ele>1063.2</ele>
        <time>2021-08-08T16:49:04Z</time>
      </trkpt>
      <trkpt lat="44.76575" lon="3.78992">
        <ele>1063.5</ele>
        <time>2021-08-08T16:49:06Z</time>
      </trkpt>
      <trkpt lat="44.7657" lon="3.78998">
        <ele>1063.9</ele>
        <time>2021-08-08T16:49:08Z</time>
      </trkpt>
      <trkpt lat="44.76565" lon="3.79004">
        <ele>1064.4</ele>
        <time>2021-08-08T16:49:10Z</time>
      </trkpt>
      <trkpt lat="44.76561" lon="3.7901">
        <ele>1064.9</ele>
        <time>2021-08-08T16:49:12Z</time>
      </trkpt>
      <trkpt lat="44.76557" lon="3.79015">
        <ele>1065.4</ele>
        <time>2021-08-08T16:49:14Z</time>
      </trkpt>
      <trkpt lat="44.76552" lon="3.79019">
        <ele>1065.8</ele>
        <time>2021-08-08T16:49:16Z</time>
      </trkpt>
      <trkpt lat="44.76548" lon="3.79023">
        <ele>1066.3</ele>
        <time>2021-08-08T16:49:18Z</time>
      </trkpt>
      <trkpt lat="44.76545" lon="3.79026">
        <ele>1066.7</ele>
        <time>2021-08-08T16:49:20Z</time>
      </trkpt>
      <trkpt lat="44.76541" lon="3.79029">
        <ele>1067.1</ele>
        <time>2021-08-08T16:49:22Z</time>
      </trkpt>
      <trkpt lat="44.76538" lon="3.79033">
        <ele>1067.4</ele>
        <time>2021-08-08T16:49:24Z</time>
      </trkpt>
      <trkpt lat="44.76535" lon="3.79038">
        <ele>1067.6</ele>
        <time>2021-08-08T16:49:26Z</time>
      </trkpt>
      <trkpt lat="44.76532" lon="3.79043">
        <ele>1067.8</ele>
        <time>2021-08-08T16:49:28Z</time>
      </trkpt>
      <trkpt lat="44.76531" lon="3.79046">
        <ele>1067.9</ele>
        <time>2021-08-08T16:49:30Z</time>
      </trkpt>
      <trkpt lat="44.76529" lon="3.79048">
        <ele>1068</ele>
        <time>2021-08-08T16:49:32Z</time>
      </trkpt>
      <trkpt lat="44.76528" lon="3.79049">
        <ele>1068.1</ele>
        <time>2021-08-08T16:49:34Z</time>
      </trkpt>
      <trkpt lat="44.76527" lon="3.79051">
        <ele>1068.2</ele>
        <time>2021-08-08T16:49:36Z</time>
      </trkpt>
      <trkpt lat="44.76527" lon="3.7905">
        <ele>1068.2</ele>
        <time>2021-08-08T16:49:38Z</time>
      </trkpt>
      <trkpt lat="44.76527" lon="3.7905">
        <ele>1068.2</ele>
        <time>2021-08-08T16:49:40Z</time>
      </trkpt>
      <trkpt lat="44.76525" lon="3.79058">
        <ele>1068.2</ele>
        <time>2021-08-08T17:07:46Z</time>
      </trkpt>
      <trkpt lat="44.76526" lon="3.79055">
        <ele>1068.2</ele>
        <time>2021-08-08T17:07:48Z</time>
      </trkpt>
      <trkpt lat="44.76526" lon="3.79054">
        <ele>1068.3</ele>
        <time>2021-08-08T17:07:50Z</time>
      </trkpt>
      <trkpt lat="44.76525" lon="3.79053">
        <ele>1068.3</ele>
        <time>2021-08-08T17:07:52Z</time>
      </trkpt>
      <trkpt lat="44.76525" lon="3.79053">
        <ele>1068.4</ele>
        <time>2021-08-08T17:07:54Z</time>
      </trkpt>
      <trkpt lat="44.76525" lon="3.79052">
        <ele>1068.4</ele>
        <time>2021-08-08T17:07:56Z</time>
      </trkpt>
      <trkpt lat="44.76525" lon="3.79052">
        <ele>1068.4</ele>
        <time>2021-08-08T17:07:58Z</time>
      </trkpt>
      <trkpt lat="44.76524" lon="3.79053">
        <ele>1068.4</ele>
        <time>2021-08-08T17:08:00Z</time>
      </trkpt>
      <trkpt lat="44.76524" lon="3.79056">
        <ele>1068.4</ele>
        <time>2021-08-08T17:08:02Z</time>
      </trkpt>
      <trkpt lat="44.76524" lon="3.79058">
        <ele>1068.4</ele>
        <time>2021-08-08T17:08:04Z</time>
      </trkpt>
      <trkpt lat="44.76522" lon="3.7906">
        <ele>1068.5</ele>
        <time>2021-08-08T17:08:06Z</time>
      </trkpt>
      <trkpt lat="44.76521" lon="3.79062">
        <ele>1068.5</ele>
        <time>2021-08-08T17:08:08Z</time>
      </trkpt>
      <trkpt lat="44.76521" lon="3.79065">
        <ele>1068.4</ele>
        <time>2021-08-08T17:08:10Z</time>
      </trkpt>
    </trkseg>
      <trkpt lat="44.76544" lon="3.79006">
        <ele>1067.1</ele>
        <time>2021-08-09T07:52:00Z</time>
      </trkpt>
      <trkpt lat="44.76542" lon="3.79009">
        <ele>1067.2</ele>
        <time>2021-08-09T07:52:02Z</time>
      </trkpt>
      <trkpt lat="44.76541" lon="3.79011">
        <ele>1067.4</ele>
        <time>2021-08-09T07:52:04Z</time>
      </trkpt>
      <trkpt lat="44.7654" lon="3.79013">
        <ele>1067.5</ele>
        <time>2021-08-09T07:52:06Z</time>
      </trkpt>
      <trkpt lat="44.76538" lon="3.79015">
        <ele>1067.7</ele>
        <time>2021-08-09T07:52:08Z</time>
      </trkpt>
      <trkpt lat="44.76536" lon="3.79018">
        <ele>1067.8</ele>
        <time>2021-08-09T07:52:10Z</time>
      </trkpt>
      <trkpt lat="44.76535" lon="3.7902">
        <ele>1068</ele>
        <time>2021-08-09T07:52:12Z</time>
      </trkpt>
      <trkpt lat="44.76533" lon="3.79022">
        <ele>1068.1</ele>
        <time>2021-08-09T07:52:14Z</time>
      </trkpt>
      <trkpt lat="44.76532" lon="3.79024">
        <ele>1068.3</ele>
        <time>2021-08-09T07:52:16Z</time>
      </trkpt>
      <trkpt lat="44.76528" lon="3.79024">
        <ele>1068.7</ele>
        <time>2021-08-09T07:52:18Z</time>
      </trkpt>
      <trkpt lat="44.76527" lon="3.79027">
        <ele>1068.8</ele>
        <time>2021-08-09T07:52:20Z</time>
      </trkpt>
      <trkpt lat="44.76527" lon="3.7903">
        <ele>1068.8</ele>
        <time>2021-08-09T07:52:22Z</time>
      </trkpt>
      <trkpt lat="44.76526" lon="3.79033">
        <ele>1068.7</ele>
        <time>2021-08-09T07:52:24Z</time>
      </trkpt>
      <trkpt lat="44.76526" lon="3.79035">
        <ele>1068.7</ele>
        <time>2021-08-09T07:52:26Z</time>
      </trkpt>
      <trkpt lat="44.76527" lon="3.79038">
        <ele>1068.6</ele>
        <time>2021-08-09T07:52:28Z</time>
      </trkpt>
      <trkpt lat="44.76527" lon="3.7904">
        <ele>1068.4</ele>
        <time>2021-08-09T07:52:30Z</time>
      </trkpt>
      <trkpt lat="44.76528" lon="3.79041">
        <ele>1068.3</ele>
        <time>2021-08-09T07:52:32Z</time>
      </trkpt>
      <trkpt lat="44.7653" lon="3.79042">
        <ele>1068</ele>
        <time>2021-08-09T07:52:34Z</time>
      </trkpt>
      <trkpt lat="44.76531" lon="3.79043">
        <ele>1067.9</ele>
        <time>2021-08-09T07:52:36Z</time>
      </trkpt>
      <trkpt lat="44.76531" lon="3.79043">
        <ele>1067.9</ele>
        <time>2021-08-09T07:56:08Z</time>
      </trkpt>
      <trkpt lat="44.76531" lon="3.79044">
        <ele>1067.9</ele>
        <time>2021-08-09T07:56:10Z</time>
      </trkpt>
      <trkpt lat="44.76531" lon="3.79044">
        <ele>1067.9</ele>
        <time>2021-08-09T07:56:12Z</time>
      </trkpt>
      <trkpt lat="44.76531" lon="3.79044">
        <ele>1067.9</ele>
        <time>2021-08-09T07:56:14Z</time>
      </trkpt>
      <trkpt lat="44.76531" lon="3.79044">
        <ele>1067.9</ele>
        <time>2021-08-09T07:56:16Z</time>
      </trkpt>
      <trkpt lat="44.7653" lon="3.79047">
        <ele>1068</ele>
        <time>2021-08-09T07:56:18Z</time>
      </trkpt>
      <trkpt lat="44.76528" lon="3.7905">
        <ele>1068.1</ele>
        <time>2021-08-09T07:56:20Z</time>
      </trkpt>
      <trkpt lat="44.76527" lon="3.79052">
        <ele>1068.2</ele>
        <time>2021-08-09T07:56:22Z</time>
      </trkpt>
      <trkpt lat="44.76525" lon="3.79056">
        <ele>1068.3</ele>
        <time>2021-08-09T07:56:24Z</time>
      </trkpt>
      <trkpt lat="44.76523" lon="3.7906">
        <ele>1068.4</ele>
        <time>2021-08-09T07:56:26Z</time>
      </trkpt>
      <trkpt lat="44.76522" lon="3.79061">
        <ele>1068.5</ele>
        <time>2021-08-09T07:56:28Z</time>
      </trkpt>
      <trkpt lat="44.76522" lon="3.79061">
        <ele>1068.5</ele>
        <time>2021-08-09T07:56:30Z</time>
      </trkpt>
      <trkpt lat="44.76522" lon="3.79062">
        <ele>1068.5</ele>
        <time>2021-08-09T07:56:32Z</time>
      </trkpt>
      <trkpt lat="44.76522" lon="3.79062">
        <ele>1068.5</ele>
        <time>2021-08-09T07:56:34Z</time>
      </trkpt>
      <trkpt lat="44.76522" lon="3.79061">
        <ele>1068.5</ele>
        <time>2021-08-09T07:56:36Z</time>
      </trkpt>
      <trkpt lat="44.76519" lon="3.79064">
        <ele>1068.8</ele>
        <time>2021-08-09T07:56:54Z</time>
      </trkpt>
      <trkpt lat="44.76519" lon="3.79064">
        <ele>1068.8</ele>
        <time>2021-08-09T07:56:56Z</time>
      </trkpt>
      <trkpt lat="44.76519" lon="3.79064">
        <ele>1068.7</ele>
        <time>2021-08-09T07:56:58Z</time>
      </trkpt>
      <trkpt lat="44.76518" lon="3.79067">
        <ele>1068.7</ele>
        <time>2021-08-09T07:57:00Z</time>
      </trkpt>
      <trkpt lat="44.76516" lon="3.79071">
        <ele>1068.8</ele>
        <time>2021-08-09T07:57:02Z</time>
      </trkpt>
      <trkpt lat="44.76513" lon="3.79077">
        <ele>1068.9</ele>
        <time>2021-08-09T07:57:04Z</time>
      </trkpt>
      <trkpt lat="44.76511" lon="3.79082">
        <ele>1069</ele>
        <time>2021-08-09T07:57:06Z</time>
      </trkpt>
      <trkpt lat="44.76509" lon="3.79088">
        <ele>1068.8</ele>
        <time>2021-08-09T07:57:08Z</time>
      </trkpt>
      <trkpt lat="44.76506" lon="3.79092">
        <ele>1068.7</ele>
        <time>2021-08-09T07:57:10Z</time>
      </trkpt>
      <trkpt lat="44.76505" lon="3.79096">
        <ele>1068.6</ele>
        <time>2021-08-09T07:57:12Z</time>
      </trkpt>
      <trkpt lat="44.76505" lon="3.79096">
        <ele>1068.6</ele>
        <time>2021-08-09T07:57:14Z</time>
      </trkpt>
      <trkpt lat="44.76505" lon="3.79095">
        <ele>1068.6</ele>
        <time>2021-08-09T07:57:16Z</time>
      </trkpt>
      <trkpt lat="44.76505" lon="3.79095">
        <ele>1068.6</ele>
        <time>2021-08-09T07:57:18Z</time>
      </trkpt>
      <trkpt lat="44.76505" lon="3.79095">
        <ele>1068.6</ele>
        <time>2021-08-09T07:57:20Z</time>
      </trkpt>
      <trkpt lat="44.76504" lon="3.79095">
        <ele>1068.6</ele>
        <time>2021-08-09T07:57:22Z</time>
      </trkpt>
      <trkpt lat="44.76497" lon="3.79108">
        <ele>1067.8</ele>
        <time>2021-08-09T07:58:38Z</time>
      </trkpt>
      <trkpt lat="44.76495" lon="3.7911">
        <ele>1067.5</ele>
        <time>2021-08-09T07:58:40Z</time>
      </trkpt>
      <trkpt lat="44.76493" lon="3.79114">
        <ele>1067.1</ele>
        <time>2021-08-09T07:58:42Z</time>
      </trkpt>
      <trkpt lat="44.76491" lon="3.79118">
        <ele>1066.8</ele>
        <time>2021-08-09T07:58:44Z</time>
      </trkpt>
      <trkpt lat="44.76489" lon="3.79123">
        <ele>1066.3</ele>
        <time>2021-08-09T07:58:46Z</time>
      </trkpt>
      <trkpt lat="44.76485" lon="3.79128">
        <ele>1065.9</ele>
        <time>2021-08-09T07:58:48Z</time>
      </trkpt>
      <trkpt lat="44.7648" lon="3.79134">
        <ele>1065.3</ele>
        <time>2021-08-09T07:58:50Z</time>
      </trkpt>
      <trkpt lat="44.76475" lon="3.79139">
        <ele>1064.8</ele>
        <time>2021-08-09T07:58:52Z</time>
      </trkpt>
      <trkpt lat="44.76472" lon="3.79144">
        <ele>1064.5</ele>
        <time>2021-08-09T07:58:54Z</time>
      </trkpt>
      <trkpt lat="44.76467" lon="3.79149">
        <ele>1064</ele>
        <time>2021-08-09T07:58:56Z</time>
      </trkpt>
      <trkpt lat="44.76463" lon="3.79157">
        <ele>1063.5</ele>
        <time>2021-08-09T07:58:58Z</time>
      </trkpt>
      <trkpt lat="44.76457" lon="3.79166">
        <ele>1063</ele>
        <time>2021-08-09T07:59:00Z</time>
      </trkpt>
      <trkpt lat="44.76452" lon="3.79175">
        <ele>1062.8</ele>
        <time>2021-08-09T07:59:02Z</time>
      </trkpt>
      <trkpt lat="44.76447" lon="3.79183">
        <ele>1062.5</ele>
        <time>2021-08-09T07:59:04Z</time>
      </trkpt>
      <trkpt lat="44.76442" lon="3.79191">
        <ele>1062.3</ele>
        <time>2021-08-09T07:59:06Z</time>
      </trkpt>
      <trkpt lat="44.76437" lon="3.79199">
        <ele>1062.1</ele>
        <time>2021-08-09T07:59:08Z</time>
      </trkpt>
      <trkpt lat="44.76433" lon="3.79206">
        <ele>1062</ele>
        <time>2021-08-09T07:59:10Z</time>
      </trkpt>
      <trkpt lat="44.76429" lon="3.79212">
        <ele>1061.8</ele>
        <time>2021-08-09T07:59:12Z</time>
      </trkpt>
      <trkpt lat="44.76425" lon="3.79218">
        <ele>1061.7</ele>
        <time>2021-08-09T07:59:14Z</time>
      </trkpt>
      <trkpt lat="44.7642" lon="3.79225">
        <ele>1061.6</ele>
        <time>2021-08-09T07:59:16Z</time>
      </trkpt>
      <trkpt lat="44.76416" lon="3.79231">
        <ele>1061.5</ele>
        <time>2021-08-09T07:59:18Z</time>
      </trkpt>
      <trkpt lat="44.76412" lon="3.79237">
        <ele>1061.5</ele>
        <time>2021-08-09T07:59:20Z</time>
      </trkpt>
      <trkpt lat="44.76407" lon="3.79243">
        <ele>1061.5</ele>
        <time>2021-08-09T07:59:22Z</time>
      </trkpt>
      <trkpt lat="44.76403" lon="3.79249">
        <ele>1061.6</ele>
        <time>2021-08-09T07:59:24Z</time>
      </trkpt>
      <trkpt lat="44.76399" lon="3.79255">
        <ele>1061.7</ele>
        <time>2021-08-09T07:59:26Z</time>
      </trkpt>
      <trkpt lat="44.76394" lon="3.79261">
        <ele>1061.8</ele>
        <time>2021-08-09T07:59:28Z</time>
      </trkpt>
      <trkpt lat="44.7639" lon="3.7927">
        <ele>1061.7</ele>
        <time>2021-08-09T07:59:30Z</time>
      </trkpt>
      <trkpt lat="44.76385" lon="3.79279">
        <ele>1061.7</ele>
        <time>2021-08-09T07:59:32Z</time>
      </trkpt>
      <trkpt lat="44.76382" lon="3.79288">
        <ele>1061.7</ele>
        <time>2021-08-09T07:59:34Z</time>
      </trkpt>
      <trkpt lat="44.76379" lon="3.79298">
        <ele>1061.6</ele>
        <time>2021-08-09T07:59:36Z</time>
      </trkpt>
      <trkpt lat="44.76375" lon="3.79309">
        <ele>1061.6</ele>
        <time>2021-08-09T07:59:38Z</time>
      </trkpt>
      <trkpt lat="44.76372" lon="3.79319">
        <ele>1061.5</ele>
        <time>2021-08-09T07:59:40Z</time>
      </trkpt>
      <trkpt lat="44.76369" lon="3.7933">
        <ele>1061.5</ele>
        <time>2021-08-09T07:59:42Z</time>
      </trkpt>
      <trkpt lat="44.76366" lon="3.79341">
        <ele>1061.5</ele>
        <time>2021-08-09T07:59:44Z</time>
      </trkpt>
      <trkpt lat="44.76363" lon="3.79352">
        <ele>1061.6</ele>
        <time>2021-08-09T07:59:46Z</time>
      </trkpt>
      <trkpt lat="44.76358" lon="3.79363">
        <ele>1061.7</ele>
        <time>2021-08-09T07:59:48Z</time>
      </trkpt>
      <trkpt lat="44.76355" lon="3.79372">
        <ele>1061.9</ele>
        <time>2021-08-09T07:59:50Z</time>
      </trkpt>
      <trkpt lat="44.76352" lon="3.79381">
        <ele>1062</ele>
        <time>2021-08-09T07:59:52Z</time>
      </trkpt>
      <trkpt lat="44.76349" lon="3.79389">
        <ele>1062.1</ele>
        <time>2021-08-09T07:59:54Z</time>
      </trkpt>
      <trkpt lat="44.76347" lon="3.79397">
        <ele>1062.2</ele>
        <time>2021-08-09T07:59:56Z</time>
      </trkpt>
      <trkpt lat="44.76344" lon="3.79404">
        <ele>1062.2</ele>
        <time>2021-08-09T07:59:58Z</time>
      </trkpt>
      <trkpt lat="44.76342" lon="3.79412">
        <ele>1062.3</ele>
        <time>2021-08-09T08:00:00Z</time>
      </trkpt>
      <trkpt lat="44.7634" lon="3.7942">
        <ele>1062.1</ele>
        <time>2021-08-09T08:00:02Z</time>
      </trkpt>
      <trkpt lat="44.76338" lon="3.79429">
        <ele>1061.4</ele>
        <time>2021-08-09T08:00:04Z</time>
      </trkpt>
      <trkpt lat="44.76334" lon="3.79439">
        <ele>1060.8</ele>
        <time>2021-08-09T08:00:06Z</time>
      </trkpt>
      <trkpt lat="44.7633" lon="3.7945">
        <ele>1059.8</ele>
        <time>2021-08-09T08:00:08Z</time>
      </trkpt>
      <trkpt lat="44.76325" lon="3.79459">
        <ele>1058.8</ele>
        <time>2021-08-09T08:00:10Z</time>
      </trkpt>
      <trkpt lat="44.76321" lon="3.79467">
        <ele>1058.1</ele>
        <time>2021-08-09T08:00:12Z</time>
      </trkpt>
      <trkpt lat="44.76316" lon="3.7948">
        <ele>1057.1</ele>
        <time>2021-08-09T08:00:14Z</time>
      </trkpt>
      <trkpt lat="44.76312" lon="3.7949">
        <ele>1056.3</ele>
        <time>2021-08-09T08:00:16Z</time>
      </trkpt>
      <trkpt lat="44.76308" lon="3.79496">
        <ele>1055.9</ele>
        <time>2021-08-09T08:00:18Z</time>
      </trkpt>
      <trkpt lat="44.76306" lon="3.79501">
        <ele>1055.6</ele>
        <time>2021-08-09T08:00:20Z</time>
      </trkpt>
      <trkpt lat="44.76306" lon="3.79502">
        <ele>1055.5</ele>
        <time>2021-08-09T08:00:22Z</time>
      </trkpt>
      <trkpt lat="44.76306" lon="3.79502">
        <ele>1055.5</ele>
        <time>2021-08-09T08:00:24Z</time>
      </trkpt>
      <trkpt lat="44.76306" lon="3.79503">
        <ele>1055.5</ele>
        <time>2021-08-09T08:00:26Z</time>
      </trkpt>
      <trkpt lat="44.76306" lon="3.79503">
        <ele>1055.5</ele>
        <time>2021-08-09T08:00:28Z</time>
      </trkpt>
      <trkpt lat="44.76305" lon="3.79503">
        <ele>1055.5</ele>
        <time>2021-08-09T08:00:30Z</time>
      </trkpt>
      <trkpt lat="44.76293" lon="3.79529">
        <ele>1053.9</ele>
        <time>2021-08-09T08:04:36Z</time>
      </trkpt>
      <trkpt lat="44.7629" lon="3.79539">
        <ele>1053.2</ele>
        <time>2021-08-09T08:04:38Z</time>
      </trkpt>
      <trkpt lat="44.76286" lon="3.79549">
        <ele>1052.4</ele>
        <time>2021-08-09T08:04:40Z</time>
      </trkpt>
      <trkpt lat="44.76283" lon="3.79559">
        <ele>1051.7</ele>
        <time>2021-08-09T08:04:42Z</time>
      </trkpt>
      <trkpt lat="44.76279" lon="3.79567">
        <ele>1051</ele>
        <time>2021-08-09T08:04:44Z</time>
      </trkpt>
      <trkpt lat="44.76274" lon="3.79578">
        <ele>1050</ele>
        <time>2021-08-09T08:04:46Z</time>
      </trkpt>
      <trkpt lat="44.7627" lon="3.79588">
        <ele>1049.3</ele>
        <time>2021-08-09T08:04:48Z</time>
      </trkpt>
      <trkpt lat="44.76267" lon="3.79597">
        <ele>1048.9</ele>
        <time>2021-08-09T08:04:50Z</time>
      </trkpt>
      <trkpt lat="44.76266" lon="3.79606">
        <ele>1048.6</ele>
        <time>2021-08-09T08:04:52Z</time>
      </trkpt>
      <trkpt lat="44.76264" lon="3.79609">
        <ele>1048.5</ele>
        <time>2021-08-09T08:04:54Z</time>
      </trkpt>
      <trkpt lat="44.76264" lon="3.79609">
        <ele>1048.5</ele>
        <time>2021-08-09T08:04:56Z</time>
      </trkpt>
      <trkpt lat="44.76263" lon="3.79609">
        <ele>1048.5</ele>
        <time>2021-08-09T08:04:58Z</time>
      </trkpt>
      <trkpt lat="44.76263" lon="3.79609">
        <ele>1048.5</ele>
        <time>2021-08-09T08:05:00Z</time>
      </trkpt>
      <trkpt lat="44.76263" lon="3.79609">
        <ele>1048.5</ele>
        <time>2021-08-09T08:05:02Z</time>
      </trkpt>
      <trkpt lat="44.76256" lon="3.7963">
        <ele>1047.9</ele>
        <time>2021-08-09T08:08:28Z</time>
      </trkpt>
      <trkpt lat="44.76254" lon="3.79638">
        <ele>1047.7</ele>
        <time>2021-08-09T08:08:30Z</time>
      </trkpt>
      <trkpt lat="44.7625" lon="3.79647">
        <ele>1047.5</ele>
        <time>2021-08-09T08:08:32Z</time>
      </trkpt>
      <trkpt lat="44.76248" lon="3.79658">
        <ele>1047.2</ele>
        <time>2021-08-09T08:08:34Z</time>
      </trkpt>
      <trkpt lat="44.76245" lon="3.79669">
        <ele>1047.1</ele>
        <time>2021-08-09T08:08:36Z</time>
      </trkpt>
      <trkpt lat="44.76241" lon="3.79681">
        <ele>1047.4</ele>
        <time>2021-08-09T08:08:38Z</time>
      </trkpt>
      <trkpt lat="44.7624" lon="3.79695">
        <ele>1047.7</ele>
        <time>2021-08-09T08:08:40Z</time>
      </trkpt>
      <trkpt lat="44.76239" lon="3.79707">
        <ele>1048</ele>
        <time>2021-08-09T08:08:42Z</time>
      </trkpt>
      <trkpt lat="44.76237" lon="3.79719">
        <ele>1048.2</ele>
        <time>2021-08-09T08:08:44Z</time>
      </trkpt>
      <trkpt lat="44.76236" lon="3.79728">
        <ele>1048.5</ele>
        <time>2021-08-09T08:08:46Z</time>
      </trkpt>
      <trkpt lat="44.76237" lon="3.79737">
        <ele>1048.7</ele>
        <time>2021-08-09T08:08:48Z</time>
      </trkpt>
      <trkpt lat="44.76236" lon="3.79745">
        <ele>1048.9</ele>
        <time>2021-08-09T08:08:50Z</time>
      </trkpt>
      <trkpt lat="44.76234" lon="3.79753">
        <ele>1049</ele>
        <time>2021-08-09T08:08:52Z</time>
      </trkpt>
      <trkpt lat="44.76234" lon="3.7976">
        <ele>1048.9</ele>
        <time>2021-08-09T08:08:54Z</time>
      </trkpt>
      <trkpt lat="44.76233" lon="3.79765">
        <ele>1048.8</ele>
        <time>2021-08-09T08:08:56Z</time>
      </trkpt>
      <trkpt lat="44.76233" lon="3.79773">
        <ele>1048.7</ele>
        <time>2021-08-09T08:08:58Z</time>
      </trkpt>
      <trkpt lat="44.76231" lon="3.7978">
        <ele>1048.6</ele>
        <time>2021-08-09T08:09:00Z</time>
      </trkpt>
      <trkpt lat="44.76229" lon="3.79789">
        <ele>1048.4</ele>
        <time>2021-08-09T08:09:02Z</time>
      </trkpt>
      <trkpt lat="44.76227" lon="3.79801">
        <ele>1048.2</ele>
        <time>2021-08-09T08:09:04Z</time>
      </trkpt>
      <trkpt lat="44.76225" lon="3.79813">
        <ele>1048</ele>
        <time>2021-08-09T08:09:06Z</time>
      </trkpt>
      <trkpt lat="44.76221" lon="3.79825">
        <ele>1047.8</ele>
        <time>2021-08-09T08:09:08Z</time>
      </trkpt>
      <trkpt lat="44.76216" lon="3.79838">
        <ele>1047.4</ele>
        <time>2021-08-09T08:09:10Z</time>
      </trkpt>
      <trkpt lat="44.7621" lon="3.7985">
        <ele>1046.9</ele>
        <time>2021-08-09T08:09:12Z</time>
      </trkpt>
      <trkpt lat="44.76205" lon="3.79863">
        <ele>1046.2</ele>
        <time>2021-08-09T08:09:14Z</time>
      </trkpt>
      <trkpt lat="44.76201" lon="3.79873">
        <ele>1045.6</ele>
        <time>2021-08-09T08:09:16Z</time>
      </trkpt>
      <trkpt lat="44.76195" lon="3.79885">
        <ele>1044.9</ele>
        <time>2021-08-09T08:09:18Z</time>
      </trkpt>
      <trkpt lat="44.76189" lon="3.79897">
        <ele>1044.1</ele>
        <time>2021-08-09T08:09:20Z</time>
      </trkpt>
      <trkpt lat="44.76182" lon="3.79909">
        <ele>1043.1</ele>
        <time>2021-08-09T08:09:22Z</time>
      </trkpt>
      <trkpt lat="44.76174" lon="3.7992">
        <ele>1042.3</ele>
        <time>2021-08-09T08:09:24Z</time>
      </trkpt>
      <trkpt lat="44.76165" lon="3.7993">
        <ele>1041.7</ele>
        <time>2021-08-09T08:09:26Z</time>
      </trkpt>
      <trkpt lat="44.76155" lon="3.79939">
        <ele>1040.5</ele>
        <time>2021-08-09T08:09:28Z</time>
      </trkpt>
      <trkpt lat="44.76143" lon="3.79946">
        <ele>1039.1</ele>
        <time>2021-08-09T08:09:30Z</time>
      </trkpt>
      <trkpt lat="44.76132" lon="3.79957">
        <ele>1038</ele>
        <time>2021-08-09T08:09:32Z</time>
      </trkpt>
      <trkpt lat="44.7612" lon="3.7997">
        <ele>1037.1</ele>
        <time>2021-08-09T08:09:34Z</time>
      </trkpt>
      <trkpt lat="44.76107" lon="3.7998">
        <ele>1036.1</ele>
        <time>2021-08-09T08:09:36Z</time>
      </trkpt>
      <trkpt lat="44.76092" lon="3.79987">
        <ele>1035</ele>
        <time>2021-08-09T08:09:38Z</time>
      </trkpt>
      <trkpt lat="44.76077" lon="3.79995">
        <ele>1034.1</ele>
        <time>2021-08-09T08:09:40Z</time>
      </trkpt>
      <trkpt lat="44.76063" lon="3.80002">
        <ele>1032.8</ele>
        <time>2021-08-09T08:09:42Z</time>
      </trkpt>
      <trkpt lat="44.76047" lon="3.80005">
        <ele>1031.1</ele>
        <time>2021-08-09T08:09:44Z</time>
      </trkpt>
      <trkpt lat="44.76034" lon="3.80005">
        <ele>1029.7</ele>
        <time>2021-08-09T08:09:46Z</time>
      </trkpt>
      <trkpt lat="44.76024" lon="3.80009">
        <ele>1028.6</ele>
        <time>2021-08-09T08:09:48Z</time>
      </trkpt>
      <trkpt lat="44.76015" lon="3.80013">
        <ele>1027.7</ele>
        <time>2021-08-09T08:09:50Z</time>
      </trkpt>
      <trkpt lat="44.76007" lon="3.80016">
        <ele>1027</ele>
        <time>2021-08-09T08:09:52Z</time>
      </trkpt>
      <trkpt lat="44.76001" lon="3.80022">
        <ele>1026.3</ele>
        <time>2021-08-09T08:09:54Z</time>
      </trkpt>
      <trkpt lat="44.75993" lon="3.80031">
        <ele>1025.1</ele>
        <time>2021-08-09T08:09:56Z</time>
      </trkpt>
      <trkpt lat="44.75987" lon="3.80042">
        <ele>1024.2</ele>
        <time>2021-08-09T08:09:58Z</time>
      </trkpt>
      <trkpt lat="44.7598" lon="3.80053">
        <ele>1023.4</ele>
        <time>2021-08-09T08:10:00Z</time>
      </trkpt>
      <trkpt lat="44.75973" lon="3.80065">
        <ele>1022.7</ele>
        <time>2021-08-09T08:10:02Z</time>
      </trkpt>
      <trkpt lat="44.75966" lon="3.8008">
        <ele>1022.4</ele>
        <time>2021-08-09T08:10:04Z</time>
      </trkpt>
      <trkpt lat="44.75961" lon="3.80094">
        <ele>1020.9</ele>
        <time>2021-08-09T08:10:06Z</time>
      </trkpt>
      <trkpt lat="44.75958" lon="3.80107">
        <ele>1019.6</ele>
        <time>2021-08-09T08:10:08Z</time>
      </trkpt>
      <trkpt lat="44.75959" lon="3.80117">
        <ele>1018.9</ele>
        <time>2021-08-09T08:10:10Z</time>
      </trkpt>
      <trkpt lat="44.75962" lon="3.80127">
        <ele>1018.4</ele>
        <time>2021-08-09T08:10:12Z</time>
      </trkpt>
      <trkpt lat="44.75965" lon="3.80136">
        <ele>1018</ele>
        <time>2021-08-09T08:10:14Z</time>
      </trkpt>
      <trkpt lat="44.75962" lon="3.80145">
        <ele>1017</ele>
        <time>2021-08-09T08:10:16Z</time>
      </trkpt>
      <trkpt lat="44.75957" lon="3.80151">
        <ele>1016.1</ele>
        <time>2021-08-09T08:10:18Z</time>
      </trkpt>
      <trkpt lat="44.75952" lon="3.80158">
        <ele>1015.1</ele>
        <time>2021-08-09T08:10:20Z</time>
      </trkpt>
      <trkpt lat="44.75947" lon="3.80169">
        <ele>1013.9</ele>
        <time>2021-08-09T08:10:22Z</time>
      </trkpt>
      <trkpt lat="44.75942" lon="3.80179">
        <ele>1012.5</ele>
        <time>2021-08-09T08:10:24Z</time>
      </trkpt>
      <trkpt lat="44.75937" lon="3.80192">
        <ele>1010.9</ele>
        <time>2021-08-09T08:10:26Z</time>
      </trkpt>
      <trkpt lat="44.75938" lon="3.80206">
        <ele>1009.4</ele>
        <time>2021-08-09T08:10:28Z</time>
      </trkpt>
      <trkpt lat="44.75939" lon="3.80223">
        <ele>1007.7</ele>
        <time>2021-08-09T08:10:30Z</time>
      </trkpt>
      <trkpt lat="44.75941" lon="3.80239">
        <ele>1006</ele>
        <time>2021-08-09T08:10:32Z</time>
      </trkpt>
      <trkpt lat="44.75943" lon="3.80255">
        <ele>1004.8</ele>
        <time>2021-08-09T08:10:34Z</time>
      </trkpt>
      <trkpt lat="44.75938" lon="3.80271">
        <ele>1004.2</ele>
        <time>2021-08-09T08:10:36Z</time>
      </trkpt>
      <trkpt lat="44.75931" lon="3.80284">
        <ele>1004</ele>
        <time>2021-08-09T08:10:38Z</time>
      </trkpt>
      <trkpt lat="44.75922" lon="3.80295">
        <ele>1003.9</ele>
        <time>2021-08-09T08:10:40Z</time>
      </trkpt>
      <trkpt lat="44.75913" lon="3.80303">
        <ele>1003.9</ele>
        <time>2021-08-09T08:10:42Z</time>
      </trkpt>
      <trkpt lat="44.75904" lon="3.80307">
        <ele>1003.7</ele>
        <time>2021-08-09T08:10:44Z</time>
      </trkpt>
      <trkpt lat="44.75895" lon="3.80308">
        <ele>1003.4</ele>
        <time>2021-08-09T08:10:46Z</time>
      </trkpt>
      <trkpt lat="44.75886" lon="3.80306">
        <ele>1003.2</ele>
        <time>2021-08-09T08:10:48Z</time>
      </trkpt>
      <trkpt lat="44.75877" lon="3.80301">
        <ele>1002.7</ele>
        <time>2021-08-09T08:10:50Z</time>
      </trkpt>
      <trkpt lat="44.75868" lon="3.80294">
        <ele>1002.1</ele>
        <time>2021-08-09T08:10:52Z</time>
      </trkpt>
      <trkpt lat="44.75863" lon="3.80289">
        <ele>1001.6</ele>
        <time>2021-08-09T08:10:54Z</time>
      </trkpt>
      <trkpt lat="44.75857" lon="3.80285">
        <ele>1001.1</ele>
        <time>2021-08-09T08:10:56Z</time>
      </trkpt>
      <trkpt lat="44.75853" lon="3.80283">
        <ele>1000.8</ele>
        <time>2021-08-09T08:10:58Z</time>
      </trkpt>
      <trkpt lat="44.75849" lon="3.80282">
        <ele>1000.5</ele>
        <time>2021-08-09T08:11:00Z</time>
      </trkpt>
      <trkpt lat="44.75847" lon="3.80282">
        <ele>1000.4</ele>
        <time>2021-08-09T08:11:02Z</time>
      </trkpt>
      <trkpt lat="44.75843" lon="3.80282">
        <ele>1000.2</ele>
        <time>2021-08-09T08:11:04Z</time>
      </trkpt>
      <trkpt lat="44.75838" lon="3.80283">
        <ele>1000</ele>
        <time>2021-08-09T08:11:06Z</time>
      </trkpt>
      <trkpt lat="44.75834" lon="3.80282">
        <ele>999.8</ele>
        <time>2021-08-09T08:11:08Z</time>
      </trkpt>
      <trkpt lat="44.75829" lon="3.80282">
        <ele>999.2</ele>
        <time>2021-08-09T08:11:10Z</time>
      </trkpt>
      <trkpt lat="44.75823" lon="3.80283">
        <ele>998.5</ele>
        <time>2021-08-09T08:11:12Z</time>
      </trkpt>
      <trkpt lat="44.75817" lon="3.80284">
        <ele>998.1</ele>
        <time>2021-08-09T08:11:14Z</time>
      </trkpt>
      <trkpt lat="44.75814" lon="3.80285">
        <ele>997.7</ele>
        <time>2021-08-09T08:11:16Z</time>
      </trkpt>
      <trkpt lat="44.75812" lon="3.80284">
        <ele>997.4</ele>
        <time>2021-08-09T08:11:18Z</time>
      </trkpt>
      <trkpt lat="44.7581" lon="3.80284">
        <ele>997.2</ele>
        <time>2021-08-09T08:11:20Z</time>
      </trkpt>
      <trkpt lat="44.7581" lon="3.80284">
        <ele>997.2</ele>
        <time>2021-08-09T08:11:22Z</time>
      </trkpt>
      <trkpt lat="44.7581" lon="3.80284">
        <ele>997.1</ele>
        <time>2021-08-09T08:11:24Z</time>
      </trkpt>
      <trkpt lat="44.7581" lon="3.80284">
        <ele>997.1</ele>
        <time>2021-08-09T08:11:26Z</time>
      </trkpt>
      <trkpt lat="44.75792" lon="3.8029">
        <ele>995.6</ele>
        <time>2021-08-09T08:13:52Z</time>
      </trkpt>
      <trkpt lat="44.75787" lon="3.80292">
        <ele>995.2</ele>
        <time>2021-08-09T08:13:54Z</time>
      </trkpt>
      <trkpt lat="44.75784" lon="3.80293">
        <ele>995</ele>
        <time>2021-08-09T08:13:56Z</time>
      </trkpt>
      <trkpt lat="44.75779" lon="3.80298">
        <ele>994.9</ele>
        <time>2021-08-09T08:13:58Z</time>
      </trkpt>
      <trkpt lat="44.75775" lon="3.80303">
        <ele>994.9</ele>
        <time>2021-08-09T08:14:00Z</time>
      </trkpt>
      <trkpt lat="44.75771" lon="3.80305">
        <ele>994.6</ele>
        <time>2021-08-09T08:14:02Z</time>
      </trkpt>
      <trkpt lat="44.75766" lon="3.80309">
        <ele>994.5</ele>
        <time>2021-08-09T08:14:04Z</time>
      </trkpt>
      <trkpt lat="44.75762" lon="3.80313">
        <ele>994.3</ele>
        <time>2021-08-09T08:14:06Z</time>
      </trkpt>
      <trkpt lat="44.75757" lon="3.80318">
        <ele>994.3</ele>
        <time>2021-08-09T08:14:08Z</time>
      </trkpt>
      <trkpt lat="44.7575" lon="3.80324">
        <ele>994.2</ele>
        <time>2021-08-09T08:14:10Z</time>
      </trkpt>
      <trkpt lat="44.75745" lon="3.80331">
        <ele>993.6</ele>
        <time>2021-08-09T08:14:12Z</time>
      </trkpt>
      <trkpt lat="44.75741" lon="3.8034">
        <ele>993.4</ele>
        <time>2021-08-09T08:14:14Z</time>
      </trkpt>
      <trkpt lat="44.75736" lon="3.80347">
        <ele>992.9</ele>
        <time>2021-08-09T08:14:16Z</time>
      </trkpt>
      <trkpt lat="44.75732" lon="3.80355">
        <ele>992.7</ele>
        <time>2021-08-09T08:14:18Z</time>
      </trkpt>
      <trkpt lat="44.75728" lon="3.80364">
        <ele>992.6</ele>
        <time>2021-08-09T08:14:20Z</time>
      </trkpt>
      <trkpt lat="44.75724" lon="3.80373">
        <ele>992.6</ele>
        <time>2021-08-09T08:14:22Z</time>
      </trkpt>
      <trkpt lat="44.7572" lon="3.80382">
        <ele>992.5</ele>
        <time>2021-08-09T08:14:24Z</time>
      </trkpt>
      <trkpt lat="44.75715" lon="3.80391">
        <ele>992.3</ele>
        <time>2021-08-09T08:14:26Z</time>
      </trkpt>
      <trkpt lat="44.7571" lon="3.804">
        <ele>992.2</ele>
        <time>2021-08-09T08:14:28Z</time>
      </trkpt>
      <trkpt lat="44.75706" lon="3.80406">
        <ele>992</ele>
        <time>2021-08-09T08:14:30Z</time>
      </trkpt>
      <trkpt lat="44.75699" lon="3.80417">
        <ele>991.8</ele>
        <time>2021-08-09T08:14:32Z</time>
      </trkpt>
      <trkpt lat="44.75691" lon="3.80427">
        <ele>991</ele>
        <time>2021-08-09T08:14:34Z</time>
      </trkpt>
      <trkpt lat="44.75683" lon="3.80433">
        <ele>989.9</ele>
        <time>2021-08-09T08:14:36Z</time>
      </trkpt>
      <trkpt lat="44.75676" lon="3.80435">
        <ele>988.6</ele>
        <time>2021-08-09T08:14:38Z</time>
      </trkpt>
      <trkpt lat="44.7567" lon="3.80435">
        <ele>987.6</ele>
        <time>2021-08-09T08:14:40Z</time>
      </trkpt>
      <trkpt lat="44.75666" lon="3.80434">
        <ele>986.7</ele>
        <time>2021-08-09T08:14:42Z</time>
      </trkpt>
      <trkpt lat="44.75662" lon="3.80432">
        <ele>985.9</ele>
        <time>2021-08-09T08:14:44Z</time>
      </trkpt>
      <trkpt lat="44.75661" lon="3.80431">
        <ele>985.7</ele>
        <time>2021-08-09T08:14:46Z</time>
      </trkpt>
      <trkpt lat="44.75656" lon="3.80429">
        <ele>984.6</ele>
        <time>2021-08-09T08:14:48Z</time>
      </trkpt>
      <trkpt lat="44.75652" lon="3.80435">
        <ele>984.1</ele>
        <time>2021-08-09T08:14:50Z</time>
      </trkpt>
      <trkpt lat="44.75649" lon="3.80443">
        <ele>984</ele>
        <time>2021-08-09T08:14:52Z</time>
      </trkpt>
      <trkpt lat="44.75647" lon="3.80449">
        <ele>983.8</ele>
        <time>2021-08-09T08:14:54Z</time>
      </trkpt>
      <trkpt lat="44.75645" lon="3.80456">
        <ele>983.7</ele>
        <time>2021-08-09T08:14:56Z</time>
      </trkpt>
      <trkpt lat="44.75642" lon="3.80462">
        <ele>983.5</ele>
        <time>2021-08-09T08:14:58Z</time>
      </trkpt>
      <trkpt lat="44.75639" lon="3.80468">
        <ele>983.2</ele>
        <time>2021-08-09T08:15:00Z</time>
      </trkpt>
      <trkpt lat="44.75638" lon="3.80476">
        <ele>983.1</ele>
        <time>2021-08-09T08:15:02Z</time>
      </trkpt>
      <trkpt lat="44.75635" lon="3.80483">
        <ele>982.8</ele>
        <time>2021-08-09T08:15:04Z</time>
      </trkpt>
      <trkpt lat="44.75632" lon="3.80491">
        <ele>982.6</ele>
        <time>2021-08-09T08:15:06Z</time>
      </trkpt>
      <trkpt lat="44.75629" lon="3.805">
        <ele>982.3</ele>
        <time>2021-08-09T08:15:08Z</time>
      </trkpt>
      <trkpt lat="44.75626" lon="3.80509">
        <ele>982.3</ele>
        <time>2021-08-09T08:15:10Z</time>
      </trkpt>
      <trkpt lat="44.75622" lon="3.80518">
        <ele>982.1</ele>
        <time>2021-08-09T08:15:12Z</time>
      </trkpt>
      <trkpt lat="44.75619" lon="3.80528">
        <ele>982</ele>
        <time>2021-08-09T08:15:14Z</time>
      </trkpt>
      <trkpt lat="44.75615" lon="3.80537">
        <ele>981.8</ele>
        <time>2021-08-09T08:15:16Z</time>
      </trkpt>
      <trkpt lat="44.7561" lon="3.80547">
        <ele>981.3</ele>
        <time>2021-08-09T08:15:18Z</time>
      </trkpt>
      <trkpt lat="44.75605" lon="3.80557">
        <ele>980.8</ele>
        <time>2021-08-09T08:15:20Z</time>
      </trkpt>
      <trkpt lat="44.75599" lon="3.80567">
        <ele>979.9</ele>
        <time>2021-08-09T08:15:22Z</time>
      </trkpt>
      <trkpt lat="44.75592" lon="3.80577">
        <ele>978.8</ele>
        <time>2021-08-09T08:15:24Z</time>
      </trkpt>
      <trkpt lat="44.75584" lon="3.80587">
        <ele>977.7</ele>
        <time>2021-08-09T08:15:26Z</time>
      </trkpt>
      <trkpt lat="44.75575" lon="3.80596">
        <ele>977.7</ele>
        <time>2021-08-09T08:15:28Z</time>
      </trkpt>
      <trkpt lat="44.75566" lon="3.80603">
        <ele>977.4</ele>
        <time>2021-08-09T08:15:30Z</time>
      </trkpt>
      <trkpt lat="44.75556" lon="3.80609">
        <ele>976.7</ele>
        <time>2021-08-09T08:15:32Z</time>
      </trkpt>
      <trkpt lat="44.75547" lon="3.80614">
        <ele>976</ele>
        <time>2021-08-09T08:15:34Z</time>
      </trkpt>
      <trkpt lat="44.75537" lon="3.80621">
        <ele>975.3</ele>
        <time>2021-08-09T08:15:36Z</time>
      </trkpt>
      <trkpt lat="44.75527" lon="3.80627">
        <ele>974.6</ele>
        <time>2021-08-09T08:15:38Z</time>
      </trkpt>
      <trkpt lat="44.75517" lon="3.80634">
        <ele>974</ele>
        <time>2021-08-09T08:15:40Z</time>
      </trkpt>
      <trkpt lat="44.75507" lon="3.80643">
        <ele>973.8</ele>
        <time>2021-08-09T08:15:42Z</time>
      </trkpt>
      <trkpt lat="44.75498" lon="3.80653">
        <ele>973.6</ele>
        <time>2021-08-09T08:15:44Z</time>
      </trkpt>
      <trkpt lat="44.75489" lon="3.80665">
        <ele>973.7</ele>
        <time>2021-08-09T08:15:46Z</time>
      </trkpt>
      <trkpt lat="44.75481" lon="3.80679">
        <ele>974.1</ele>
        <time>2021-08-09T08:15:48Z</time>
      </trkpt>
      <trkpt lat="44.75474" lon="3.80693">
        <ele>974.5</ele>
        <time>2021-08-09T08:15:50Z</time>
      </trkpt>
      <trkpt lat="44.75466" lon="3.80708">
        <ele>974.5</ele>
        <time>2021-08-09T08:15:52Z</time>
      </trkpt>
      <trkpt lat="44.75458" lon="3.80723">
        <ele>974.3</ele>
        <time>2021-08-09T08:15:54Z</time>
      </trkpt>
      <trkpt lat="44.75449" lon="3.80739">
        <ele>973.8</ele>
        <time>2021-08-09T08:15:56Z</time>
      </trkpt>
      <trkpt lat="44.75441" lon="3.80754">
        <ele>973.2</ele>
        <time>2021-08-09T08:15:58Z</time>
      </trkpt>
      <trkpt lat="44.75432" lon="3.8077">
        <ele>972.9</ele>
        <time>2021-08-09T08:16:00Z</time>
      </trkpt>
      <trkpt lat="44.75424" lon="3.80786">
        <ele>972.7</ele>
        <time>2021-08-09T08:16:02Z</time>
      </trkpt>
      <trkpt lat="44.75415" lon="3.80802">
        <ele>972.5</ele>
        <time>2021-08-09T08:16:04Z</time>
      </trkpt>
      <trkpt lat="44.75406" lon="3.80818">
        <ele>972.1</ele>
        <time>2021-08-09T08:16:06Z</time>
      </trkpt>
      <trkpt lat="44.75398" lon="3.80835">
        <ele>971.5</ele>
        <time>2021-08-09T08:16:08Z</time>
      </trkpt>
      <trkpt lat="44.75389" lon="3.80851">
        <ele>970.7</ele>
        <time>2021-08-09T08:16:10Z</time>
      </trkpt>
      <trkpt lat="44.7538" lon="3.80866">
        <ele>970</ele>
        <time>2021-08-09T08:16:12Z</time>
      </trkpt>
      <trkpt lat="44.75371" lon="3.80883">
        <ele>969.7</ele>
        <time>2021-08-09T08:16:14Z</time>
      </trkpt>
      <trkpt lat="44.75362" lon="3.809">
        <ele>969.6</ele>
        <time>2021-08-09T08:16:16Z</time>
      </trkpt>
      <trkpt lat="44.75352" lon="3.80917">
        <ele>969.7</ele>
        <time>2021-08-09T08:16:18Z</time>
      </trkpt>
      <trkpt lat="44.75343" lon="3.80934">
        <ele>970.3</ele>
        <time>2021-08-09T08:16:20Z</time>
      </trkpt>
      <trkpt lat="44.75334" lon="3.80952">
        <ele>970.6</ele>
        <time>2021-08-09T08:16:22Z</time>
      </trkpt>
      <trkpt lat="44.75325" lon="3.80969">
        <ele>971.5</ele>
        <time>2021-08-09T08:16:24Z</time>
      </trkpt>
      <trkpt lat="44.75315" lon="3.80985">
        <ele>972.3</ele>
        <time>2021-08-09T08:16:26Z</time>
      </trkpt>
      <trkpt lat="44.75306" lon="3.81002">
        <ele>973.1</ele>
        <time>2021-08-09T08:16:28Z</time>
      </trkpt>
      <trkpt lat="44.75297" lon="3.81018">
        <ele>973.7</ele>
        <time>2021-08-09T08:16:30Z</time>
      </trkpt>
      <trkpt lat="44.75288" lon="3.81035">
        <ele>974.1</ele>
        <time>2021-08-09T08:16:32Z</time>
      </trkpt>
      <trkpt lat="44.75279" lon="3.81049">
        <ele>974.2</ele>
        <time>2021-08-09T08:16:34Z</time>
      </trkpt>
      <trkpt lat="44.75271" lon="3.81064">
        <ele>974.1</ele>
        <time>2021-08-09T08:16:36Z</time>
      </trkpt>
      <trkpt lat="44.75263" lon="3.81078">
        <ele>973.8</ele>
        <time>2021-08-09T08:16:38Z</time>
      </trkpt>
      <trkpt lat="44.75255" lon="3.81092">
        <ele>973.5</ele>
        <time>2021-08-09T08:16:40Z</time>
      </trkpt>
      <trkpt lat="44.75247" lon="3.81105">
        <ele>973.5</ele>
        <time>2021-08-09T08:16:42Z</time>
      </trkpt>
      <trkpt lat="44.75239" lon="3.81119">
        <ele>973.5</ele>
        <time>2021-08-09T08:16:44Z</time>
      </trkpt>
      <trkpt lat="44.75232" lon="3.81132">
        <ele>973.3</ele>
        <time>2021-08-09T08:16:46Z</time>
      </trkpt>
      <trkpt lat="44.75224" lon="3.81146">
        <ele>973.1</ele>
        <time>2021-08-09T08:16:48Z</time>
      </trkpt>
      <trkpt lat="44.75216" lon="3.81159">
        <ele>972.4</ele>
        <time>2021-08-09T08:16:50Z</time>
      </trkpt>
      <trkpt lat="44.75209" lon="3.81172">
        <ele>971.8</ele>
        <time>2021-08-09T08:16:52Z</time>
      </trkpt>
      <trkpt lat="44.75201" lon="3.81186">
        <ele>971.4</ele>
        <time>2021-08-09T08:16:54Z</time>
      </trkpt>
      <trkpt lat="44.75194" lon="3.81199">
        <ele>970.8</ele>
        <time>2021-08-09T08:16:56Z</time>
      </trkpt>
      <trkpt lat="44.75186" lon="3.81213">
        <ele>969.9</ele>
        <time>2021-08-09T08:16:58Z</time>
      </trkpt>
      <trkpt lat="44.75178" lon="3.81227">
        <ele>969.1</ele>
        <time>2021-08-09T08:17:00Z</time>
      </trkpt>
      <trkpt lat="44.75169" lon="3.81242">
        <ele>967.9</ele>
        <time>2021-08-09T08:17:02Z</time>
      </trkpt>
      <trkpt lat="44.7516" lon="3.81257">
        <ele>967.7</ele>
        <time>2021-08-09T08:17:04Z</time>
      </trkpt>
      <trkpt lat="44.75151" lon="3.81273">
        <ele>967.8</ele>
        <time>2021-08-09T08:17:06Z</time>
      </trkpt>
      <trkpt lat="44.75141" lon="3.8129">
        <ele>967.7</ele>
        <time>2021-08-09T08:17:08Z</time>
      </trkpt>
      <trkpt lat="44.75133" lon="3.81307">
        <ele>967.2</ele>
        <time>2021-08-09T08:17:10Z</time>
      </trkpt>
      <trkpt lat="44.75123" lon="3.81322">
        <ele>966.2</ele>
        <time>2021-08-09T08:17:12Z</time>
      </trkpt>
      <trkpt lat="44.75114" lon="3.81338">
        <ele>965.1</ele>
        <time>2021-08-09T08:17:14Z</time>
      </trkpt>
      <trkpt lat="44.75105" lon="3.81353">
        <ele>963.5</ele>
        <time>2021-08-09T08:17:16Z</time>
      </trkpt>
      <trkpt lat="44.75097" lon="3.8137">
        <ele>962.4</ele>
        <time>2021-08-09T08:17:18Z</time>
      </trkpt>
      <trkpt lat="44.75089" lon="3.81386">
        <ele>961.2</ele>
        <time>2021-08-09T08:17:20Z</time>
      </trkpt>
      <trkpt lat="44.75081" lon="3.81404">
        <ele>960.5</ele>
        <time>2021-08-09T08:17:22Z</time>
      </trkpt>
      <trkpt lat="44.75074" lon="3.81422">
        <ele>960</ele>
        <time>2021-08-09T08:17:24Z</time>
      </trkpt>
      <trkpt lat="44.75067" lon="3.81442">
        <ele>958.6</ele>
        <time>2021-08-09T08:17:26Z</time>
      </trkpt>
      <trkpt lat="44.75061" lon="3.81462">
        <ele>957.3</ele>
        <time>2021-08-09T08:17:28Z</time>
      </trkpt>
      <trkpt lat="44.75054" lon="3.81484">
        <ele>956</ele>
        <time>2021-08-09T08:17:30Z</time>
      </trkpt>
      <trkpt lat="44.75048" lon="3.81507">
        <ele>955.1</ele>
        <time>2021-08-09T08:17:32Z</time>
      </trkpt>
      <trkpt lat="44.75042" lon="3.81533">
        <ele>954.6</ele>
        <time>2021-08-09T08:17:34Z</time>
      </trkpt>
      <trkpt lat="44.75036" lon="3.81559">
        <ele>954</ele>
        <time>2021-08-09T08:17:36Z</time>
      </trkpt>
      <trkpt lat="44.7503" lon="3.81586">
        <ele>953.4</ele>
        <time>2021-08-09T08:17:38Z</time>
      </trkpt>
      <trkpt lat="44.75024" lon="3.81614">
        <ele>953.3</ele>
        <time>2021-08-09T08:17:40Z</time>
      </trkpt>
      <trkpt lat="44.75017" lon="3.81642">
        <ele>953.4</ele>
        <time>2021-08-09T08:17:42Z</time>
      </trkpt>
      <trkpt lat="44.75011" lon="3.81668">
        <ele>953.9</ele>
        <time>2021-08-09T08:17:44Z</time>
      </trkpt>
      <trkpt lat="44.75005" lon="3.81692">
        <ele>954.4</ele>
        <time>2021-08-09T08:17:46Z</time>
      </trkpt>
      <trkpt lat="44.75" lon="3.81714">
        <ele>954.9</ele>
        <time>2021-08-09T08:17:48Z</time>
      </trkpt>
      <trkpt lat="44.74996" lon="3.81733">
        <ele>955.6</ele>
        <time>2021-08-09T08:17:50Z</time>
      </trkpt>
      <trkpt lat="44.74991" lon="3.81751">
        <ele>956.3</ele>
        <time>2021-08-09T08:17:52Z</time>
      </trkpt>
      <trkpt lat="44.74987" lon="3.81766">
        <ele>957.5</ele>
        <time>2021-08-09T08:17:54Z</time>
      </trkpt>
      <trkpt lat="44.74982" lon="3.8178">
        <ele>958.2</ele>
        <time>2021-08-09T08:17:56Z</time>
      </trkpt>
      <trkpt lat="44.74977" lon="3.81793">
        <ele>958.6</ele>
        <time>2021-08-09T08:17:58Z</time>
      </trkpt>
      <trkpt lat="44.74972" lon="3.81805">
        <ele>958.7</ele>
        <time>2021-08-09T08:18:00Z</time>
      </trkpt>
      <trkpt lat="44.74966" lon="3.81817">
        <ele>958.6</ele>
        <time>2021-08-09T08:18:02Z</time>
      </trkpt>
      <trkpt lat="44.74961" lon="3.81829">
        <ele>958.3</ele>
        <time>2021-08-09T08:18:04Z</time>
      </trkpt>
      <trkpt lat="44.74955" lon="3.81841">
        <ele>958</ele>
        <time>2021-08-09T08:18:06Z</time>
      </trkpt>
      <trkpt lat="44.74949" lon="3.81854">
        <ele>957.7</ele>
        <time>2021-08-09T08:18:08Z</time>
      </trkpt>
      <trkpt lat="44.74943" lon="3.81867">
        <ele>957.4</ele>
        <time>2021-08-09T08:18:10Z</time>
      </trkpt>
      <trkpt lat="44.74937" lon="3.8188">
        <ele>956.9</ele>
        <time>2021-08-09T08:18:12Z</time>
      </trkpt>
      <trkpt lat="44.74931" lon="3.81894">
        <ele>956.3</ele>
        <time>2021-08-09T08:18:14Z</time>
      </trkpt>
      <trkpt lat="44.74925" lon="3.81907">
        <ele>955.7</ele>
        <time>2021-08-09T08:18:16Z</time>
      </trkpt>
      <trkpt lat="44.74919" lon="3.8192">
        <ele>954.9</ele>
        <time>2021-08-09T08:18:18Z</time>
      </trkpt>
      <trkpt lat="44.74913" lon="3.81933">
        <ele>955.4</ele>
        <time>2021-08-09T08:18:20Z</time>
      </trkpt>
      <trkpt lat="44.74906" lon="3.81947">
        <ele>956</ele>
        <time>2021-08-09T08:18:22Z</time>
      </trkpt>
      <trkpt lat="44.749" lon="3.81961">
        <ele>956.6</ele>
        <time>2021-08-09T08:18:24Z</time>
      </trkpt>
      <trkpt lat="44.74894" lon="3.81975">
        <ele>957.1</ele>
        <time>2021-08-09T08:18:26Z</time>
      </trkpt>
      <trkpt lat="44.74887" lon="3.81989">
        <ele>957.5</ele>
        <time>2021-08-09T08:18:28Z</time>
      </trkpt>
      <trkpt lat="44.7488" lon="3.82004">
        <ele>957.8</ele>
        <time>2021-08-09T08:18:30Z</time>
      </trkpt>
      <trkpt lat="44.74874" lon="3.82018">
        <ele>958.2</ele>
        <time>2021-08-09T08:18:32Z</time>
      </trkpt>
      <trkpt lat="44.74867" lon="3.82032">
        <ele>958.3</ele>
        <time>2021-08-09T08:18:34Z</time>
      </trkpt>
      <trkpt lat="44.74861" lon="3.82046">
        <ele>958.3</ele>
        <time>2021-08-09T08:18:36Z</time>
      </trkpt>
      <trkpt lat="44.74854" lon="3.8206">
        <ele>958.2</ele>
        <time>2021-08-09T08:18:38Z</time>
      </trkpt>
      <trkpt lat="44.74847" lon="3.82075">
        <ele>957.8</ele>
        <time>2021-08-09T08:18:40Z</time>
      </trkpt>
      <trkpt lat="44.74841" lon="3.82089">
        <ele>957.3</ele>
        <time>2021-08-09T08:18:42Z</time>
      </trkpt>
      <trkpt lat="44.74834" lon="3.82104">
        <ele>956.7</ele>
        <time>2021-08-09T08:18:44Z</time>
      </trkpt>
      <trkpt lat="44.74828" lon="3.82119">
        <ele>956.8</ele>
        <time>2021-08-09T08:18:46Z</time>
      </trkpt>
      <trkpt lat="44.74823" lon="3.82135">
        <ele>957.4</ele>
        <time>2021-08-09T08:18:48Z</time>
      </trkpt>
      <trkpt lat="44.74819" lon="3.82153">
        <ele>958.4</ele>
        <time>2021-08-09T08:18:50Z</time>
      </trkpt>
      <trkpt lat="44.74816" lon="3.8217">
        <ele>959.3</ele>
        <time>2021-08-09T08:18:52Z</time>
      </trkpt>
      <trkpt lat="44.74814" lon="3.82188">
        <ele>959.7</ele>
        <time>2021-08-09T08:18:54Z</time>
      </trkpt>
      <trkpt lat="44.74811" lon="3.82206">
        <ele>960</ele>
        <time>2021-08-09T08:18:56Z</time>
      </trkpt>
      <trkpt lat="44.74809" lon="3.82223">
        <ele>960.3</ele>
        <time>2021-08-09T08:18:58Z</time>
      </trkpt>
      <trkpt lat="44.74806" lon="3.82241">
        <ele>960.5</ele>
        <time>2021-08-09T08:19:00Z</time>
      </trkpt>
      <trkpt lat="44.74804" lon="3.82259">
        <ele>960.2</ele>
        <time>2021-08-09T08:19:02Z</time>
      </trkpt>
      <trkpt lat="44.74802" lon="3.82276">
        <ele>959.3</ele>
        <time>2021-08-09T08:19:04Z</time>
      </trkpt>
      <trkpt lat="44.748" lon="3.82294">
        <ele>958.6</ele>
        <time>2021-08-09T08:19:06Z</time>
      </trkpt>
      <trkpt lat="44.748" lon="3.82312">
        <ele>958.1</ele>
        <time>2021-08-09T08:19:08Z</time>
      </trkpt>
      <trkpt lat="44.74801" lon="3.8233">
        <ele>957.7</ele>
        <time>2021-08-09T08:19:10Z</time>
      </trkpt>
      <trkpt lat="44.74803" lon="3.82348">
        <ele>955.4</ele>
        <time>2021-08-09T08:19:12Z</time>
      </trkpt>
      <trkpt lat="44.74805" lon="3.82364">
        <ele>952.7</ele>
        <time>2021-08-09T08:19:14Z</time>
      </trkpt>
      <trkpt lat="44.74808" lon="3.82378">
        <ele>950.4</ele>
        <time>2021-08-09T08:19:16Z</time>
      </trkpt>
      <trkpt lat="44.7481" lon="3.8239">
        <ele>948.4</ele>
        <time>2021-08-09T08:19:18Z</time>
      </trkpt>
      <trkpt lat="44.74809" lon="3.82401">
        <ele>946.3</ele>
        <time>2021-08-09T08:19:20Z</time>
      </trkpt>
      <trkpt lat="44.74807" lon="3.82411">
        <ele>944.4</ele>
        <time>2021-08-09T08:19:22Z</time>
      </trkpt>
      <trkpt lat="44.74806" lon="3.82421">
        <ele>942.5</ele>
        <time>2021-08-09T08:19:24Z</time>
      </trkpt>
      <trkpt lat="44.74804" lon="3.82431">
        <ele>940.6</ele>
        <time>2021-08-09T08:19:26Z</time>
      </trkpt>
      <trkpt lat="44.74802" lon="3.82441">
        <ele>938.8</ele>
        <time>2021-08-09T08:19:28Z</time>
      </trkpt>
      <trkpt lat="44.748" lon="3.82452">
        <ele>937</ele>
        <time>2021-08-09T08:19:30Z</time>
      </trkpt>
      <trkpt lat="44.74799" lon="3.82463">
        <ele>935.2</ele>
        <time>2021-08-09T08:19:32Z</time>
      </trkpt>
      <trkpt lat="44.74798" lon="3.82474">
        <ele>933.5</ele>
        <time>2021-08-09T08:19:34Z</time>
      </trkpt>
      <trkpt lat="44.74796" lon="3.82486">
        <ele>931.8</ele>
        <time>2021-08-09T08:19:36Z</time>
      </trkpt>
      <trkpt lat="44.74795" lon="3.82497">
        <ele>930.3</ele>
        <time>2021-08-09T08:19:38Z</time>
      </trkpt>
      <trkpt lat="44.74793" lon="3.82508">
        <ele>930</ele>
        <time>2021-08-09T08:19:40Z</time>
      </trkpt>
      <trkpt lat="44.74791" lon="3.8252">
        <ele>930.1</ele>
        <time>2021-08-09T08:19:42Z</time>
      </trkpt>
      <trkpt lat="44.74789" lon="3.82531">
        <ele>930.4</ele>
        <time>2021-08-09T08:19:44Z</time>
      </trkpt>
      <trkpt lat="44.74787" lon="3.82543">
        <ele>930.6</ele>
        <time>2021-08-09T08:19:46Z</time>
      </trkpt>
      <trkpt lat="44.74786" lon="3.82555">
        <ele>930.7</ele>
        <time>2021-08-09T08:19:48Z</time>
      </trkpt>
      <trkpt lat="44.74784" lon="3.82568">
        <ele>931</ele>
        <time>2021-08-09T08:19:50Z</time>
      </trkpt>
      <trkpt lat="44.74782" lon="3.8258">
        <ele>931.3</ele>
        <time>2021-08-09T08:19:52Z</time>
      </trkpt>
      <trkpt lat="44.7478" lon="3.82592">
        <ele>932.7</ele>
        <time>2021-08-09T08:19:54Z</time>
      </trkpt>
      <trkpt lat="44.74778" lon="3.82604">
        <ele>934.4</ele>
        <time>2021-08-09T08:19:56Z</time>
      </trkpt>
      <trkpt lat="44.74777" lon="3.82616">
        <ele>935.9</ele>
        <time>2021-08-09T08:19:58Z</time>
      </trkpt>
      <trkpt lat="44.74776" lon="3.82626">
        <ele>937.3</ele>
        <time>2021-08-09T08:20:00Z</time>
      </trkpt>
      <trkpt lat="44.74774" lon="3.82637">
        <ele>938.7</ele>
        <time>2021-08-09T08:20:02Z</time>
      </trkpt>
      <trkpt lat="44.74774" lon="3.82647">
        <ele>939.9</ele>
        <time>2021-08-09T08:20:04Z</time>
      </trkpt>
      <trkpt lat="44.74774" lon="3.82657">
        <ele>940.8</ele>
        <time>2021-08-09T08:20:06Z</time>
      </trkpt>
      <trkpt lat="44.74773" lon="3.82665">
        <ele>941.9</ele>
        <time>2021-08-09T08:20:08Z</time>
      </trkpt>
      <trkpt lat="44.74774" lon="3.82667">
        <ele>941.9</ele>
        <time>2021-08-09T08:20:10Z</time>
      </trkpt>
      <trkpt lat="44.74775" lon="3.82669">
        <ele>941.9</ele>
        <time>2021-08-09T08:20:12Z</time>
      </trkpt>
      <trkpt lat="44.74776" lon="3.8267">
        <ele>941.8</ele>
        <time>2021-08-09T08:20:14Z</time>
      </trkpt>
      <trkpt lat="44.74777" lon="3.82671">
        <ele>941.8</ele>
        <time>2021-08-09T08:20:16Z</time>
      </trkpt>
      <trkpt lat="44.74777" lon="3.82671">
        <ele>941.8</ele>
        <time>2021-08-09T08:20:18Z</time>
      </trkpt>
      <trkpt lat="44.74775" lon="3.82673">
        <ele>942.4</ele>
        <time>2021-08-09T08:22:36Z</time>
      </trkpt>
      <trkpt lat="44.74773" lon="3.82674">
        <ele>943</ele>
        <time>2021-08-09T08:22:38Z</time>
      </trkpt>
      <trkpt lat="44.74771" lon="3.82674">
        <ele>943.5</ele>
        <time>2021-08-09T08:22:40Z</time>
      </trkpt>
      <trkpt lat="44.74768" lon="3.82672">
        <ele>943.9</ele>
        <time>2021-08-09T08:22:42Z</time>
      </trkpt>
      <trkpt lat="44.74764" lon="3.82672">
        <ele>944.7</ele>
        <time>2021-08-09T08:22:44Z</time>
      </trkpt>
      <trkpt lat="44.74759" lon="3.82672">
        <ele>945.9</ele>
        <time>2021-08-09T08:22:46Z</time>
      </trkpt>
      <trkpt lat="44.7475" lon="3.82669">
        <ele>947.4</ele>
        <time>2021-08-09T08:22:48Z</time>
      </trkpt>
      <trkpt lat="44.74744" lon="3.82667">
        <ele>946.8</ele>
        <time>2021-08-09T08:22:50Z</time>
      </trkpt>
      <trkpt lat="44.74739" lon="3.82666">
        <ele>946.5</ele>
        <time>2021-08-09T08:22:52Z</time>
      </trkpt>
      <trkpt lat="44.74735" lon="3.82663">
        <ele>946.2</ele>
        <time>2021-08-09T08:22:54Z</time>
      </trkpt>
      <trkpt lat="44.74733" lon="3.82662">
        <ele>946</ele>
        <time>2021-08-09T08:22:56Z</time>
      </trkpt>
      <trkpt lat="44.74731" lon="3.82661">
        <ele>945.9</ele>
        <time>2021-08-09T08:22:58Z</time>
      </trkpt>
      <trkpt lat="44.7473" lon="3.82661">
        <ele>945.8</ele>
        <time>2021-08-09T08:23:00Z</time>
      </trkpt>
      <trkpt lat="44.74729" lon="3.82661">
        <ele>945.8</ele>
        <time>2021-08-09T08:23:02Z</time>
      </trkpt>
      <trkpt lat="44.74729" lon="3.82661">
        <ele>945.8</ele>
        <time>2021-08-09T08:23:04Z</time>
      </trkpt>
      <trkpt lat="44.74711" lon="3.82663">
        <ele>945.4</ele>
        <time>2021-08-09T08:25:28Z</time>
      </trkpt>
      <trkpt lat="44.74706" lon="3.82665">
        <ele>945.3</ele>
        <time>2021-08-09T08:25:30Z</time>
      </trkpt>
      <trkpt lat="44.74701" lon="3.82668">
        <ele>945.4</ele>
        <time>2021-08-09T08:25:32Z</time>
      </trkpt>
      <trkpt lat="44.74697" lon="3.82671">
        <ele>945.6</ele>
        <time>2021-08-09T08:25:34Z</time>
      </trkpt>
      <trkpt lat="44.74694" lon="3.82674">
        <ele>945.8</ele>
        <time>2021-08-09T08:25:36Z</time>
      </trkpt>
      <trkpt lat="44.7469" lon="3.82678">
        <ele>946.2</ele>
        <time>2021-08-09T08:25:38Z</time>
      </trkpt>
      <trkpt lat="44.74688" lon="3.82682">
        <ele>946.6</ele>
        <time>2021-08-09T08:25:40Z</time>
      </trkpt>
      <trkpt lat="44.74685" lon="3.82686">
        <ele>947</ele>
        <time>2021-08-09T08:25:42Z</time>
      </trkpt>
      <trkpt lat="44.74682" lon="3.82691">
        <ele>947.3</ele>
        <time>2021-08-09T08:25:44Z</time>
      </trkpt>
      <trkpt lat="44.74679" lon="3.82697">
        <ele>947.8</ele>
        <time>2021-08-09T08:25:46Z</time>
      </trkpt>
      <trkpt lat="44.74677" lon="3.82703">
        <ele>948.4</ele>
        <time>2021-08-09T08:25:48Z</time>
      </trkpt>
      <trkpt lat="44.74674" lon="3.8271">
        <ele>949.1</ele>
        <time>2021-08-09T08:25:50Z</time>
      </trkpt>
      <trkpt lat="44.74672" lon="3.82717">
        <ele>949.8</ele>
        <time>2021-08-09T08:25:52Z</time>
      </trkpt>
      <trkpt lat="44.74671" lon="3.82724">
        <ele>950.5</ele>
        <time>2021-08-09T08:25:54Z</time>
      </trkpt>
      <trkpt lat="44.7467" lon="3.82731">
        <ele>951.2</ele>
        <time>2021-08-09T08:25:56Z</time>
      </trkpt>
      <trkpt lat="44.7467" lon="3.82738">
        <ele>951.9</ele>
        <time>2021-08-09T08:25:58Z</time>
      </trkpt>
      <trkpt lat="44.7467" lon="3.82745">
        <ele>952.7</ele>
        <time>2021-08-09T08:26:00Z</time>
      </trkpt>
      <trkpt lat="44.74669" lon="3.82753">
        <ele>953.3</ele>
        <time>2021-08-09T08:26:02Z</time>
      </trkpt>
      <trkpt lat="44.74669" lon="3.82762">
        <ele>953.6</ele>
        <time>2021-08-09T08:26:04Z</time>
      </trkpt>
      <trkpt lat="44.74668" lon="3.82771">
        <ele>953.9</ele>
        <time>2021-08-09T08:26:06Z</time>
      </trkpt>
      <trkpt lat="44.74667" lon="3.82781">
        <ele>954.2</ele>
        <time>2021-08-09T08:26:08Z</time>
      </trkpt>
      <trkpt lat="44.74666" lon="3.82791">
        <ele>954.4</ele>
        <time>2021-08-09T08:26:10Z</time>
      </trkpt>
      <trkpt lat="44.74665" lon="3.82801">
        <ele>954.7</ele>
        <time>2021-08-09T08:26:12Z</time>
      </trkpt>
      <trkpt lat="44.74664" lon="3.82812">
        <ele>954.9</ele>
        <time>2021-08-09T08:26:14Z</time>
      </trkpt>
      <trkpt lat="44.74662" lon="3.82823">
        <ele>955.1</ele>
        <time>2021-08-09T08:26:16Z</time>
      </trkpt>
      <trkpt lat="44.74661" lon="3.82834">
        <ele>955.4</ele>
        <time>2021-08-09T08:26:18Z</time>
      </trkpt>
      <trkpt lat="44.7466" lon="3.82845">
        <ele>956.1</ele>
        <time>2021-08-09T08:26:20Z</time>
      </trkpt>
      <trkpt lat="44.74659" lon="3.82856">
        <ele>956.7</ele>
        <time>2021-08-09T08:26:22Z</time>
      </trkpt>
      <trkpt lat="44.74657" lon="3.82867">
        <ele>957.3</ele>
        <time>2021-08-09T08:26:24Z</time>
      </trkpt>
      <trkpt lat="44.74655" lon="3.82878">
        <ele>957.8</ele>
        <time>2021-08-09T08:26:26Z</time>
      </trkpt>
      <trkpt lat="44.74651" lon="3.82888">
        <ele>958</ele>
        <time>2021-08-09T08:26:28Z</time>
      </trkpt>
      <trkpt lat="44.74645" lon="3.82898">
        <ele>958</ele>
        <time>2021-08-09T08:26:30Z</time>
      </trkpt>
      <trkpt lat="44.74639" lon="3.82907">
        <ele>957.8</ele>
        <time>2021-08-09T08:26:32Z</time>
      </trkpt>
      <trkpt lat="44.74632" lon="3.82915">
        <ele>957.3</ele>
        <time>2021-08-09T08:26:34Z</time>
      </trkpt>
      <trkpt lat="44.74624" lon="3.82921">
        <ele>956.9</ele>
        <time>2021-08-09T08:26:36Z</time>
      </trkpt>
      <trkpt lat="44.74616" lon="3.82925">
        <ele>956.3</ele>
        <time>2021-08-09T08:26:38Z</time>
      </trkpt>
      <trkpt lat="44.74607" lon="3.82927">
        <ele>955.4</ele>
        <time>2021-08-09T08:26:40Z</time>
      </trkpt>
      <trkpt lat="44.74597" lon="3.82927">
        <ele>954.3</ele>
        <time>2021-08-09T08:26:42Z</time>
      </trkpt>
      <trkpt lat="44.74588" lon="3.82927">
        <ele>953.1</ele>
        <time>2021-08-09T08:26:44Z</time>
      </trkpt>
      <trkpt lat="44.7458" lon="3.82925">
        <ele>952.1</ele>
        <time>2021-08-09T08:26:46Z</time>
      </trkpt>
      <trkpt lat="44.74571" lon="3.82923">
        <ele>951.4</ele>
        <time>2021-08-09T08:26:48Z</time>
      </trkpt>
      <trkpt lat="44.74562" lon="3.82922">
        <ele>950.7</ele>
        <time>2021-08-09T08:26:50Z</time>
      </trkpt>
      <trkpt lat="44.74553" lon="3.82921">
        <ele>950.1</ele>
        <time>2021-08-09T08:26:52Z</time>
      </trkpt>
      <trkpt lat="44.74544" lon="3.8292">
        <ele>949.5</ele>
        <time>2021-08-09T08:26:54Z</time>
      </trkpt>
      <trkpt lat="44.74535" lon="3.82919">
        <ele>949</ele>
        <time>2021-08-09T08:26:56Z</time>
      </trkpt>
      <trkpt lat="44.74526" lon="3.82918">
        <ele>948.5</ele>
        <time>2021-08-09T08:26:58Z</time>
      </trkpt>
      <trkpt lat="44.74517" lon="3.82918">
        <ele>948</ele>
        <time>2021-08-09T08:27:00Z</time>
      </trkpt>
      <trkpt lat="44.74508" lon="3.82919">
        <ele>947.7</ele>
        <time>2021-08-09T08:27:02Z</time>
      </trkpt>
      <trkpt lat="44.74499" lon="3.82921">
        <ele>947.5</ele>
        <time>2021-08-09T08:27:04Z</time>
      </trkpt>
      <trkpt lat="44.7449" lon="3.82923">
        <ele>947.5</ele>
        <time>2021-08-09T08:27:06Z</time>
      </trkpt>
      <trkpt lat="44.7448" lon="3.82926">
        <ele>947.6</ele>
        <time>2021-08-09T08:27:08Z</time>
      </trkpt>
      <trkpt lat="44.74472" lon="3.82931">
        <ele>947.8</ele>
        <time>2021-08-09T08:27:10Z</time>
      </trkpt>
      <trkpt lat="44.74463" lon="3.82936">
        <ele>948.1</ele>
        <time>2021-08-09T08:27:12Z</time>
      </trkpt>
      <trkpt lat="44.74455" lon="3.82941">
        <ele>948.5</ele>
        <time>2021-08-09T08:27:14Z</time>
      </trkpt>
      <trkpt lat="44.74447" lon="3.82947">
        <ele>948.9</ele>
        <time>2021-08-09T08:27:16Z</time>
      </trkpt>
      <trkpt lat="44.7444" lon="3.82954">
        <ele>949.4</ele>
        <time>2021-08-09T08:27:18Z</time>
      </trkpt>
      <trkpt lat="44.74432" lon="3.8296">
        <ele>949.8</ele>
        <time>2021-08-09T08:27:20Z</time>
      </trkpt>
      <trkpt lat="44.74424" lon="3.82965">
        <ele>950.2</ele>
        <time>2021-08-09T08:27:22Z</time>
      </trkpt>
      <trkpt lat="44.74416" lon="3.82971">
        <ele>950.5</ele>
        <time>2021-08-09T08:27:24Z</time>
      </trkpt>
      <trkpt lat="44.74408" lon="3.82978">
        <ele>950.7</ele>
        <time>2021-08-09T08:27:26Z</time>
      </trkpt>
      <trkpt lat="44.744" lon="3.82984">
        <ele>950.8</ele>
        <time>2021-08-09T08:27:28Z</time>
      </trkpt>
      <trkpt lat="44.74391" lon="3.8299">
        <ele>950.8</ele>
        <time>2021-08-09T08:27:30Z</time>
      </trkpt>
      <trkpt lat="44.74382" lon="3.82997">
        <ele>950.8</ele>
        <time>2021-08-09T08:27:32Z</time>
      </trkpt>
      <trkpt lat="44.74374" lon="3.83004">
        <ele>950.7</ele>
        <time>2021-08-09T08:27:34Z</time>
      </trkpt>
      <trkpt lat="44.74365" lon="3.8301">
        <ele>950.4</ele>
        <time>2021-08-09T08:27:36Z</time>
      </trkpt>
      <trkpt lat="44.74357" lon="3.83018">
        <ele>950.3</ele>
        <time>2021-08-09T08:27:38Z</time>
      </trkpt>
      <trkpt lat="44.74349" lon="3.83025">
        <ele>950.2</ele>
        <time>2021-08-09T08:27:40Z</time>
      </trkpt>
      <trkpt lat="44.74341" lon="3.83033">
        <ele>950.1</ele>
        <time>2021-08-09T08:27:42Z</time>
      </trkpt>
      <trkpt lat="44.74334" lon="3.83042">
        <ele>950</ele>
        <time>2021-08-09T08:27:44Z</time>
      </trkpt>
      <trkpt lat="44.74326" lon="3.8305">
        <ele>950</ele>
        <time>2021-08-09T08:27:46Z</time>
      </trkpt>
      <trkpt lat="44.74318" lon="3.83059">
        <ele>949.8</ele>
        <time>2021-08-09T08:27:48Z</time>
      </trkpt>
      <trkpt lat="44.7431" lon="3.83068">
        <ele>949.6</ele>
        <time>2021-08-09T08:27:50Z</time>
      </trkpt>
      <trkpt lat="44.74303" lon="3.83076">
        <ele>949.4</ele>
        <time>2021-08-09T08:27:52Z</time>
      </trkpt>
      <trkpt lat="44.74296" lon="3.83085">
        <ele>949.1</ele>
        <time>2021-08-09T08:27:54Z</time>
      </trkpt>
      <trkpt lat="44.7429" lon="3.83093">
        <ele>949.1</ele>
        <time>2021-08-09T08:27:56Z</time>
      </trkpt>
      <trkpt lat="44.74283" lon="3.83103">
        <ele>949.1</ele>
        <time>2021-08-09T08:27:58Z</time>
      </trkpt>
      <trkpt lat="44.74277" lon="3.83112">
        <ele>949.1</ele>
        <time>2021-08-09T08:28:00Z</time>
      </trkpt>
      <trkpt lat="44.74271" lon="3.83122">
        <ele>949.2</ele>
        <time>2021-08-09T08:28:02Z</time>
      </trkpt>
      <trkpt lat="44.74265" lon="3.83133">
        <ele>949.3</ele>
        <time>2021-08-09T08:28:04Z</time>
      </trkpt>
      <trkpt lat="44.74258" lon="3.83143">
        <ele>949.2</ele>
        <time>2021-08-09T08:28:06Z</time>
      </trkpt>
      <trkpt lat="44.74252" lon="3.83154">
        <ele>949.2</ele>
        <time>2021-08-09T08:28:08Z</time>
      </trkpt>
      <trkpt lat="44.74243" lon="3.83164">
        <ele>949.2</ele>
        <time>2021-08-09T08:28:10Z</time>
      </trkpt>
      <trkpt lat="44.74235" lon="3.83175">
        <ele>948.8</ele>
        <time>2021-08-09T08:28:12Z</time>
      </trkpt>
      <trkpt lat="44.74224" lon="3.83185">
        <ele>948.3</ele>
        <time>2021-08-09T08:28:14Z</time>
      </trkpt>
      <trkpt lat="44.74213" lon="3.83192">
        <ele>947.5</ele>
        <time>2021-08-09T08:28:16Z</time>
      </trkpt>
      <trkpt lat="44.74201" lon="3.83199">
        <ele>946.6</ele>
        <time>2021-08-09T08:28:18Z</time>
      </trkpt>
      <trkpt lat="44.74188" lon="3.83204">
        <ele>945.7</ele>
        <time>2021-08-09T08:28:20Z</time>
      </trkpt>
      <trkpt lat="44.74176" lon="3.83209">
        <ele>944.9</ele>
        <time>2021-08-09T08:28:22Z</time>
      </trkpt>
      <trkpt lat="44.74165" lon="3.83213">
        <ele>944.2</ele>
        <time>2021-08-09T08:28:24Z</time>
      </trkpt>
      <trkpt lat="44.74153" lon="3.83218">
        <ele>944.2</ele>
        <time>2021-08-09T08:28:26Z</time>
      </trkpt>
      <trkpt lat="44.74141" lon="3.83223">
        <ele>944.1</ele>
        <time>2021-08-09T08:28:28Z</time>
      </trkpt>
      <trkpt lat="44.74129" lon="3.83228">
        <ele>943.9</ele>
        <time>2021-08-09T08:28:30Z</time>
      </trkpt>
      <trkpt lat="44.74118" lon="3.83233">
        <ele>943.8</ele>
        <time>2021-08-09T08:28:32Z</time>
      </trkpt>
      <trkpt lat="44.74106" lon="3.83238">
        <ele>943.6</ele>
        <time>2021-08-09T08:28:34Z</time>
      </trkpt>
      <trkpt lat="44.74095" lon="3.83243">
        <ele>943.3</ele>
        <time>2021-08-09T08:28:36Z</time>
      </trkpt>
      <trkpt lat="44.74083" lon="3.83248">
        <ele>943</ele>
        <time>2021-08-09T08:28:38Z</time>
      </trkpt>
      <trkpt lat="44.74072" lon="3.83253">
        <ele>942.9</ele>
        <time>2021-08-09T08:28:40Z</time>
      </trkpt>
      <trkpt lat="44.7406" lon="3.83258">
        <ele>942.8</ele>
        <time>2021-08-09T08:28:42Z</time>
      </trkpt>
      <trkpt lat="44.74049" lon="3.83263">
        <ele>942.8</ele>
        <time>2021-08-09T08:28:44Z</time>
      </trkpt>
      <trkpt lat="44.74038" lon="3.83268">
        <ele>942.8</ele>
        <time>2021-08-09T08:28:46Z</time>
      </trkpt>
      <trkpt lat="44.74027" lon="3.83272">
        <ele>943</ele>
        <time>2021-08-09T08:28:48Z</time>
      </trkpt>
      <trkpt lat="44.74016" lon="3.83277">
        <ele>943.3</ele>
        <time>2021-08-09T08:28:50Z</time>
      </trkpt>
      <trkpt lat="44.74005" lon="3.83282">
        <ele>943.6</ele>
        <time>2021-08-09T08:28:52Z</time>
      </trkpt>
      <trkpt lat="44.73994" lon="3.83287">
        <ele>943.9</ele>
        <time>2021-08-09T08:28:54Z</time>
      </trkpt>
      <trkpt lat="44.73984" lon="3.83291">
        <ele>944.2</ele>
        <time>2021-08-09T08:28:56Z</time>
      </trkpt>
      <trkpt lat="44.73973" lon="3.83295">
        <ele>944.4</ele>
        <time>2021-08-09T08:28:58Z</time>
      </trkpt>
      <trkpt lat="44.73963" lon="3.833">
        <ele>944.7</ele>
        <time>2021-08-09T08:29:00Z</time>
      </trkpt>
      <trkpt lat="44.73952" lon="3.83305">
        <ele>945.1</ele>
        <time>2021-08-09T08:29:02Z</time>
      </trkpt>
      <trkpt lat="44.73943" lon="3.8331">
        <ele>945.4</ele>
        <time>2021-08-09T08:29:04Z</time>
      </trkpt>
      <trkpt lat="44.73935" lon="3.83316">
        <ele>945.8</ele>
        <time>2021-08-09T08:29:06Z</time>
      </trkpt>
      <trkpt lat="44.73929" lon="3.83322">
        <ele>946.2</ele>
        <time>2021-08-09T08:29:08Z</time>
      </trkpt>
      <trkpt lat="44.73923" lon="3.83328">
        <ele>946.6</ele>
        <time>2021-08-09T08:29:10Z</time>
      </trkpt>
      <trkpt lat="44.73918" lon="3.83333">
        <ele>947</ele>
        <time>2021-08-09T08:29:12Z</time>
      </trkpt>
      <trkpt lat="44.73913" lon="3.83338">
        <ele>947</ele>
        <time>2021-08-09T08:29:14Z</time>
      </trkpt>
      <trkpt lat="44.73909" lon="3.83344">
        <ele>947.1</ele>
        <time>2021-08-09T08:29:16Z</time>
      </trkpt>
      <trkpt lat="44.73905" lon="3.83349">
        <ele>947.2</ele>
        <time>2021-08-09T08:29:18Z</time>
      </trkpt>
      <trkpt lat="44.73901" lon="3.83355">
        <ele>947.3</ele>
        <time>2021-08-09T08:29:20Z</time>
      </trkpt>
      <trkpt lat="44.73897" lon="3.83361">
        <ele>947.4</ele>
        <time>2021-08-09T08:29:22Z</time>
      </trkpt>
      <trkpt lat="44.73894" lon="3.83367">
        <ele>947.6</ele>
        <time>2021-08-09T08:29:24Z</time>
      </trkpt>
      <trkpt lat="44.73889" lon="3.83373">
        <ele>947.8</ele>
        <time>2021-08-09T08:29:26Z</time>
      </trkpt>
      <trkpt lat="44.73885" lon="3.83378">
        <ele>948</ele>
        <time>2021-08-09T08:29:28Z</time>
      </trkpt>
      <trkpt lat="44.73881" lon="3.83384">
        <ele>948.2</ele>
        <time>2021-08-09T08:29:30Z</time>
      </trkpt>
      <trkpt lat="44.73877" lon="3.83389">
        <ele>948.5</ele>
        <time>2021-08-09T08:29:32Z</time>
      </trkpt>
      <trkpt lat="44.73874" lon="3.83395">
        <ele>948.7</ele>
        <time>2021-08-09T08:29:34Z</time>
      </trkpt>
      <trkpt lat="44.7387" lon="3.83399">
        <ele>949</ele>
        <time>2021-08-09T08:29:36Z</time>
      </trkpt>
      <trkpt lat="44.73867" lon="3.83405">
        <ele>949.3</ele>
        <time>2021-08-09T08:29:38Z</time>
      </trkpt>
      <trkpt lat="44.73864" lon="3.8341">
        <ele>949.6</ele>
        <time>2021-08-09T08:29:40Z</time>
      </trkpt>
      <trkpt lat="44.7386" lon="3.83415">
        <ele>950</ele>
        <time>2021-08-09T08:29:42Z</time>
      </trkpt>
      <trkpt lat="44.73857" lon="3.8342">
        <ele>950.4</ele>
        <time>2021-08-09T08:29:44Z</time>
      </trkpt>
      <trkpt lat="44.73854" lon="3.83425">
        <ele>950.9</ele>
        <time>2021-08-09T08:29:46Z</time>
      </trkpt>
      <trkpt lat="44.7385" lon="3.8343">
        <ele>951.4</ele>
        <time>2021-08-09T08:29:48Z</time>
      </trkpt>
      <trkpt lat="44.73847" lon="3.83435">
        <ele>951.9</ele>
        <time>2021-08-09T08:29:50Z</time>
      </trkpt>
      <trkpt lat="44.73844" lon="3.83441">
        <ele>952.5</ele>
        <time>2021-08-09T08:29:52Z</time>
      </trkpt>
      <trkpt lat="44.73841" lon="3.83446">
        <ele>953</ele>
        <time>2021-08-09T08:29:54Z</time>
      </trkpt>
      <trkpt lat="44.73837" lon="3.83451">
        <ele>953.6</ele>
        <time>2021-08-09T08:29:56Z</time>
      </trkpt>
      <trkpt lat="44.73834" lon="3.83456">
        <ele>954.2</ele>
        <time>2021-08-09T08:29:58Z</time>
      </trkpt>
      <trkpt lat="44.7383" lon="3.83461">
        <ele>954.8</ele>
        <time>2021-08-09T08:30:00Z</time>
      </trkpt>
      <trkpt lat="44.73827" lon="3.83466">
        <ele>955.3</ele>
        <time>2021-08-09T08:30:02Z</time>
      </trkpt>
      <trkpt lat="44.73824" lon="3.83471">
        <ele>955.8</ele>
        <time>2021-08-09T08:30:04Z</time>
      </trkpt>
      <trkpt lat="44.7382" lon="3.83476">
        <ele>956.4</ele>
        <time>2021-08-09T08:30:06Z</time>
      </trkpt>
      <trkpt lat="44.73817" lon="3.83481">
        <ele>956.9</ele>
        <time>2021-08-09T08:30:08Z</time>
      </trkpt>
      <trkpt lat="44.73814" lon="3.83486">
        <ele>957.4</ele>
        <time>2021-08-09T08:30:10Z</time>
      </trkpt>
      <trkpt lat="44.73811" lon="3.83491">
        <ele>958</ele>
        <time>2021-08-09T08:30:12Z</time>
      </trkpt>
      <trkpt lat="44.73807" lon="3.83497">
        <ele>958.6</ele>
        <time>2021-08-09T08:30:14Z</time>
      </trkpt>
      <trkpt lat="44.73804" lon="3.83502">
        <ele>959.2</ele>
        <time>2021-08-09T08:30:16Z</time>
      </trkpt>
      <trkpt lat="44.738" lon="3.83507">
        <ele>959.6</ele>
        <time>2021-08-09T08:30:18Z</time>
      </trkpt>
      <trkpt lat="44.73797" lon="3.83513">
        <ele>960</ele>
        <time>2021-08-09T08:30:20Z</time>
      </trkpt>
      <trkpt lat="44.73794" lon="3.83517">
        <ele>960.4</ele>
        <time>2021-08-09T08:30:22Z</time>
      </trkpt>
      <trkpt lat="44.73791" lon="3.83522">
        <ele>960.8</ele>
        <time>2021-08-09T08:30:24Z</time>
      </trkpt>
      <trkpt lat="44.73789" lon="3.83526">
        <ele>961.2</ele>
        <time>2021-08-09T08:30:26Z</time>
      </trkpt>
      <trkpt lat="44.73786" lon="3.83531">
        <ele>961.6</ele>
        <time>2021-08-09T08:30:28Z</time>
      </trkpt>
      <trkpt lat="44.73783" lon="3.83536">
        <ele>962</ele>
        <time>2021-08-09T08:30:30Z</time>
      </trkpt>
      <trkpt lat="44.7378" lon="3.8354">
        <ele>962.4</ele>
        <time>2021-08-09T08:30:32Z</time>
      </trkpt>
      <trkpt lat="44.73778" lon="3.83545">
        <ele>962.9</ele>
        <time>2021-08-09T08:30:34Z</time>
      </trkpt>
      <trkpt lat="44.73775" lon="3.83549">
        <ele>963.3</ele>
        <time>2021-08-09T08:30:36Z</time>
      </trkpt>
      <trkpt lat="44.73771" lon="3.83554">
        <ele>963.8</ele>
        <time>2021-08-09T08:30:38Z</time>
      </trkpt>
      <trkpt lat="44.73769" lon="3.83558">
        <ele>964.2</ele>
        <time>2021-08-09T08:30:40Z</time>
      </trkpt>
      <trkpt lat="44.73766" lon="3.83563">
        <ele>964.7</ele>
        <time>2021-08-09T08:30:42Z</time>
      </trkpt>
      <trkpt lat="44.73764" lon="3.83568">
        <ele>965.1</ele>
        <time>2021-08-09T08:30:44Z</time>
      </trkpt>
      <trkpt lat="44.7376" lon="3.83573">
        <ele>965.7</ele>
        <time>2021-08-09T08:30:46Z</time>
      </trkpt>
      <trkpt lat="44.73758" lon="3.83577">
        <ele>966.1</ele>
        <time>2021-08-09T08:30:48Z</time>
      </trkpt>
      <trkpt lat="44.73755" lon="3.83582">
        <ele>966.6</ele>
        <time>2021-08-09T08:30:50Z</time>
      </trkpt>
      <trkpt lat="44.73753" lon="3.83586">
        <ele>967</ele>
        <time>2021-08-09T08:30:52Z</time>
      </trkpt>
      <trkpt lat="44.7375" lon="3.83589">
        <ele>967.3</ele>
        <time>2021-08-09T08:30:54Z</time>
      </trkpt>
      <trkpt lat="44.73747" lon="3.83594">
        <ele>967.4</ele>
        <time>2021-08-09T08:30:56Z</time>
      </trkpt>
      <trkpt lat="44.73745" lon="3.83598">
        <ele>967.6</ele>
        <time>2021-08-09T08:30:58Z</time>
      </trkpt>
      <trkpt lat="44.73742" lon="3.83601">
        <ele>967.8</ele>
        <time>2021-08-09T08:31:00Z</time>
      </trkpt>
      <trkpt lat="44.73739" lon="3.83605">
        <ele>967.9</ele>
        <time>2021-08-09T08:31:02Z</time>
      </trkpt>
      <trkpt lat="44.73737" lon="3.83609">
        <ele>968.1</ele>
        <time>2021-08-09T08:31:04Z</time>
      </trkpt>
      <trkpt lat="44.73734" lon="3.83612">
        <ele>968.3</ele>
        <time>2021-08-09T08:31:06Z</time>
      </trkpt>
      <trkpt lat="44.73731" lon="3.83616">
        <ele>968.5</ele>
        <time>2021-08-09T08:31:08Z</time>
      </trkpt>
      <trkpt lat="44.73727" lon="3.8362">
        <ele>968.7</ele>
        <time>2021-08-09T08:31:10Z</time>
      </trkpt>
      <trkpt lat="44.73724" lon="3.83623">
        <ele>968.9</ele>
        <time>2021-08-09T08:31:12Z</time>
      </trkpt>
      <trkpt lat="44.73721" lon="3.83627">
        <ele>969.1</ele>
        <time>2021-08-09T08:31:14Z</time>
      </trkpt>
      <trkpt lat="44.73718" lon="3.8363">
        <ele>969.3</ele>
        <time>2021-08-09T08:31:16Z</time>
      </trkpt>
      <trkpt lat="44.73715" lon="3.83633">
        <ele>969.6</ele>
        <time>2021-08-09T08:31:18Z</time>
      </trkpt>
      <trkpt lat="44.73712" lon="3.83637">
        <ele>969.8</ele>
        <time>2021-08-09T08:31:20Z</time>
      </trkpt>
      <trkpt lat="44.73709" lon="3.8364">
        <ele>970.1</ele>
        <time>2021-08-09T08:31:22Z</time>
      </trkpt>
      <trkpt lat="44.73705" lon="3.83644">
        <ele>970.4</ele>
        <time>2021-08-09T08:31:24Z</time>
      </trkpt>
      <trkpt lat="44.73702" lon="3.83647">
        <ele>970.7</ele>
        <time>2021-08-09T08:31:26Z</time>
      </trkpt>
      <trkpt lat="44.73698" lon="3.8365">
        <ele>971</ele>
        <time>2021-08-09T08:31:28Z</time>
      </trkpt>
      <trkpt lat="44.73695" lon="3.83654">
        <ele>971.4</ele>
        <time>2021-08-09T08:31:30Z</time>
      </trkpt>
      <trkpt lat="44.73691" lon="3.83659">
        <ele>971.8</ele>
        <time>2021-08-09T08:31:32Z</time>
      </trkpt>
      <trkpt lat="44.73688" lon="3.83662">
        <ele>972.1</ele>
        <time>2021-08-09T08:31:34Z</time>
      </trkpt>
      <trkpt lat="44.73684" lon="3.83665">
        <ele>972.5</ele>
        <time>2021-08-09T08:31:36Z</time>
      </trkpt>
      <trkpt lat="44.7368" lon="3.83669">
        <ele>972.6</ele>
        <time>2021-08-09T08:31:38Z</time>
      </trkpt>
      <trkpt lat="44.73677" lon="3.83672">
        <ele>972.6</ele>
        <time>2021-08-09T08:31:40Z</time>
      </trkpt>
      <trkpt lat="44.73674" lon="3.83676">
        <ele>972.6</ele>
        <time>2021-08-09T08:31:42Z</time>
      </trkpt>
      <trkpt lat="44.7367" lon="3.8368">
        <ele>972.6</ele>
        <time>2021-08-09T08:31:44Z</time>
      </trkpt>
      <trkpt lat="44.73666" lon="3.83684">
        <ele>972.6</ele>
        <time>2021-08-09T08:31:46Z</time>
      </trkpt>
      <trkpt lat="44.73663" lon="3.83688">
        <ele>972.4</ele>
        <time>2021-08-09T08:31:48Z</time>
      </trkpt>
      <trkpt lat="44.73659" lon="3.83691">
        <ele>972.3</ele>
        <time>2021-08-09T08:31:50Z</time>
      </trkpt>
      <trkpt lat="44.73656" lon="3.83695">
        <ele>972.1</ele>
        <time>2021-08-09T08:31:52Z</time>
      </trkpt>
      <trkpt lat="44.73652" lon="3.83699">
        <ele>972</ele>
        <time>2021-08-09T08:31:54Z</time>
      </trkpt>
      <trkpt lat="44.73649" lon="3.83702">
        <ele>971.9</ele>
        <time>2021-08-09T08:31:56Z</time>
      </trkpt>
      <trkpt lat="44.73645" lon="3.83706">
        <ele>971.8</ele>
        <time>2021-08-09T08:31:58Z</time>
      </trkpt>
      <trkpt lat="44.73641" lon="3.8371">
        <ele>971.7</ele>
        <time>2021-08-09T08:32:00Z</time>
      </trkpt>
      <trkpt lat="44.73638" lon="3.83714">
        <ele>971.6</ele>
        <time>2021-08-09T08:32:02Z</time>
      </trkpt>
      <trkpt lat="44.73634" lon="3.83718">
        <ele>971.6</ele>
        <time>2021-08-09T08:32:04Z</time>
      </trkpt>
      <trkpt lat="44.73631" lon="3.83722">
        <ele>971.5</ele>
        <time>2021-08-09T08:32:06Z</time>
      </trkpt>
      <trkpt lat="44.73627" lon="3.83726">
        <ele>971.5</ele>
        <time>2021-08-09T08:32:08Z</time>
      </trkpt>
      <trkpt lat="44.73623" lon="3.83729">
        <ele>971.5</ele>
        <time>2021-08-09T08:32:10Z</time>
      </trkpt>
      <trkpt lat="44.7362" lon="3.83733">
        <ele>971.5</ele>
        <time>2021-08-09T08:32:12Z</time>
      </trkpt>
      <trkpt lat="44.73616" lon="3.83737">
        <ele>971.5</ele>
        <time>2021-08-09T08:32:14Z</time>
      </trkpt>
      <trkpt lat="44.73612" lon="3.83742">
        <ele>971.6</ele>
        <time>2021-08-09T08:32:16Z</time>
      </trkpt>
      <trkpt lat="44.73608" lon="3.83746">
        <ele>971.7</ele>
        <time>2021-08-09T08:32:18Z</time>
      </trkpt>
      <trkpt lat="44.73604" lon="3.8375">
        <ele>971.8</ele>
        <time>2021-08-09T08:32:20Z</time>
      </trkpt>
      <trkpt lat="44.736" lon="3.83754">
        <ele>971.9</ele>
        <time>2021-08-09T08:32:22Z</time>
      </trkpt>
      <trkpt lat="44.73596" lon="3.83758">
        <ele>972.1</ele>
        <time>2021-08-09T08:32:24Z</time>
      </trkpt>
      <trkpt lat="44.73592" lon="3.83762">
        <ele>972.4</ele>
        <time>2021-08-09T08:32:26Z</time>
      </trkpt>
      <trkpt lat="44.73588" lon="3.83766">
        <ele>972.6</ele>
        <time>2021-08-09T08:32:28Z</time>
      </trkpt>
      <trkpt lat="44.73584" lon="3.83771">
        <ele>973</ele>
        <time>2021-08-09T08:32:30Z</time>
      </trkpt>
      <trkpt lat="44.7358" lon="3.83775">
        <ele>973.4</ele>
        <time>2021-08-09T08:32:32Z</time>
      </trkpt>
      <trkpt lat="44.73575" lon="3.8378">
        <ele>973.8</ele>
        <time>2021-08-09T08:32:34Z</time>
      </trkpt>
      <trkpt lat="44.73571" lon="3.83784">
        <ele>974.3</ele>
        <time>2021-08-09T08:32:36Z</time>
      </trkpt>
      <trkpt lat="44.73567" lon="3.83789">
        <ele>974.7</ele>
        <time>2021-08-09T08:32:38Z</time>
      </trkpt>
      <trkpt lat="44.73564" lon="3.83794">
        <ele>975.2</ele>
        <time>2021-08-09T08:32:40Z</time>
      </trkpt>
      <trkpt lat="44.73559" lon="3.83798">
        <ele>975.6</ele>
        <time>2021-08-09T08:32:42Z</time>
      </trkpt>
      <trkpt lat="44.73555" lon="3.83802">
        <ele>976.1</ele>
        <time>2021-08-09T08:32:44Z</time>
      </trkpt>
      <trkpt lat="44.73551" lon="3.83806">
        <ele>976.5</ele>
        <time>2021-08-09T08:32:46Z</time>
      </trkpt>
      <trkpt lat="44.73547" lon="3.83811">
        <ele>977</ele>
        <time>2021-08-09T08:32:48Z</time>
      </trkpt>
      <trkpt lat="44.73543" lon="3.83815">
        <ele>977.4</ele>
        <time>2021-08-09T08:32:50Z</time>
      </trkpt>
      <trkpt lat="44.73539" lon="3.83819">
        <ele>977.9</ele>
        <time>2021-08-09T08:32:52Z</time>
      </trkpt>
      <trkpt lat="44.73535" lon="3.83823">
        <ele>978.3</ele>
        <time>2021-08-09T08:32:54Z</time>
      </trkpt>
      <trkpt lat="44.73531" lon="3.83827">
        <ele>978.8</ele>
        <time>2021-08-09T08:32:56Z</time>
      </trkpt>
      <trkpt lat="44.73527" lon="3.83831">
        <ele>979.2</ele>
        <time>2021-08-09T08:32:58Z</time>
      </trkpt>
      <trkpt lat="44.73524" lon="3.83836">
        <ele>979.5</ele>
        <time>2021-08-09T08:33:00Z</time>
      </trkpt>
      <trkpt lat="44.7352" lon="3.8384">
        <ele>979.8</ele>
        <time>2021-08-09T08:33:02Z</time>
      </trkpt>
      <trkpt lat="44.73516" lon="3.83845">
        <ele>980</ele>
        <time>2021-08-09T08:33:04Z</time>
      </trkpt>
      <trkpt lat="44.73511" lon="3.83849">
        <ele>980.3</ele>
        <time>2021-08-09T08:33:06Z</time>
      </trkpt>
      <trkpt lat="44.73507" lon="3.83853">
        <ele>980.5</ele>
        <time>2021-08-09T08:33:08Z</time>
      </trkpt>
      <trkpt lat="44.73503" lon="3.83858">
        <ele>980.8</ele>
        <time>2021-08-09T08:33:10Z</time>
      </trkpt>
      <trkpt lat="44.73498" lon="3.83862">
        <ele>981.1</ele>
        <time>2021-08-09T08:33:12Z</time>
      </trkpt>
      <trkpt lat="44.73494" lon="3.83866">
        <ele>981.2</ele>
        <time>2021-08-09T08:33:14Z</time>
      </trkpt>
      <trkpt lat="44.7349" lon="3.83871">
        <ele>981.4</ele>
        <time>2021-08-09T08:33:16Z</time>
      </trkpt>
      <trkpt lat="44.73486" lon="3.83875">
        <ele>981.7</ele>
        <time>2021-08-09T08:33:18Z</time>
      </trkpt>
      <trkpt lat="44.73482" lon="3.83879">
        <ele>981.9</ele>
        <time>2021-08-09T08:33:20Z</time>
      </trkpt>
      <trkpt lat="44.73478" lon="3.83883">
        <ele>982.2</ele>
        <time>2021-08-09T08:33:22Z</time>
      </trkpt>
      <trkpt lat="44.73473" lon="3.83888">
        <ele>982.5</ele>
        <time>2021-08-09T08:33:24Z</time>
      </trkpt>
      <trkpt lat="44.73469" lon="3.83891">
        <ele>982.8</ele>
        <time>2021-08-09T08:33:26Z</time>
      </trkpt>
      <trkpt lat="44.73464" lon="3.83895">
        <ele>983.2</ele>
        <time>2021-08-09T08:33:28Z</time>
      </trkpt>
      <trkpt lat="44.73459" lon="3.83899">
        <ele>983.5</ele>
        <time>2021-08-09T08:33:30Z</time>
      </trkpt>
      <trkpt lat="44.73455" lon="3.83903">
        <ele>983.9</ele>
        <time>2021-08-09T08:33:32Z</time>
      </trkpt>
      <trkpt lat="44.7345" lon="3.83906">
        <ele>984.3</ele>
        <time>2021-08-09T08:33:34Z</time>
      </trkpt>
      <trkpt lat="44.73445" lon="3.83909">
        <ele>984.7</ele>
        <time>2021-08-09T08:33:36Z</time>
      </trkpt>
      <trkpt lat="44.7344" lon="3.83912">
        <ele>985.1</ele>
        <time>2021-08-09T08:33:38Z</time>
      </trkpt>
      <trkpt lat="44.73436" lon="3.83915">
        <ele>985.6</ele>
        <time>2021-08-09T08:33:40Z</time>
      </trkpt>
      <trkpt lat="44.73431" lon="3.83918">
        <ele>986</ele>
        <time>2021-08-09T08:33:42Z</time>
      </trkpt>
      <trkpt lat="44.73426" lon="3.83921">
        <ele>986.5</ele>
        <time>2021-08-09T08:33:44Z</time>
      </trkpt>
      <trkpt lat="44.73421" lon="3.83924">
        <ele>986.9</ele>
        <time>2021-08-09T08:33:46Z</time>
      </trkpt>
      <trkpt lat="44.73416" lon="3.83927">
        <ele>987.4</ele>
        <time>2021-08-09T08:33:48Z</time>
      </trkpt>
      <trkpt lat="44.73411" lon="3.8393">
        <ele>987.7</ele>
        <time>2021-08-09T08:33:50Z</time>
      </trkpt>
      <trkpt lat="44.73407" lon="3.83932">
        <ele>988</ele>
        <time>2021-08-09T08:33:52Z</time>
      </trkpt>
      <trkpt lat="44.73401" lon="3.83935">
        <ele>988.3</ele>
        <time>2021-08-09T08:33:54Z</time>
      </trkpt>
      <trkpt lat="44.73396" lon="3.83937">
        <ele>988.7</ele>
        <time>2021-08-09T08:33:56Z</time>
      </trkpt>
      <trkpt lat="44.73391" lon="3.8394">
        <ele>989.1</ele>
        <time>2021-08-09T08:33:58Z</time>
      </trkpt>
      <trkpt lat="44.73385" lon="3.83942">
        <ele>989.5</ele>
        <time>2021-08-09T08:34:00Z</time>
      </trkpt>
      <trkpt lat="44.7338" lon="3.83944">
        <ele>989.9</ele>
        <time>2021-08-09T08:34:02Z</time>
      </trkpt>
      <trkpt lat="44.73374" lon="3.83946">
        <ele>990.4</ele>
        <time>2021-08-09T08:34:04Z</time>
      </trkpt>
      <trkpt lat="44.73369" lon="3.83948">
        <ele>990.8</ele>
        <time>2021-08-09T08:34:06Z</time>
      </trkpt>
      <trkpt lat="44.73364" lon="3.83951">
        <ele>991.3</ele>
        <time>2021-08-09T08:34:08Z</time>
      </trkpt>
      <trkpt lat="44.73357" lon="3.83953">
        <ele>991.9</ele>
        <time>2021-08-09T08:34:10Z</time>
      </trkpt>
      <trkpt lat="44.73351" lon="3.83956">
        <ele>992.6</ele>
        <time>2021-08-09T08:34:12Z</time>
      </trkpt>
      <trkpt lat="44.73346" lon="3.83959">
        <ele>993.3</ele>
        <time>2021-08-09T08:34:14Z</time>
      </trkpt>
      <trkpt lat="44.73339" lon="3.83962">
        <ele>994</ele>
        <time>2021-08-09T08:34:16Z</time>
      </trkpt>
      <trkpt lat="44.73332" lon="3.83965">
        <ele>994.7</ele>
        <time>2021-08-09T08:34:18Z</time>
      </trkpt>
      <trkpt lat="44.73326" lon="3.83968">
        <ele>994.7</ele>
        <time>2021-08-09T08:34:20Z</time>
      </trkpt>
      <trkpt lat="44.73319" lon="3.83971">
        <ele>994.7</ele>
        <time>2021-08-09T08:34:22Z</time>
      </trkpt>
      <trkpt lat="44.73313" lon="3.83974">
        <ele>994.6</ele>
        <time>2021-08-09T08:34:24Z</time>
      </trkpt>
      <trkpt lat="44.73307" lon="3.83977">
        <ele>994.6</ele>
        <time>2021-08-09T08:34:26Z</time>
      </trkpt>
      <trkpt lat="44.73302" lon="3.83979">
        <ele>994.6</ele>
        <time>2021-08-09T08:34:28Z</time>
      </trkpt>
      <trkpt lat="44.73297" lon="3.83983">
        <ele>994.6</ele>
        <time>2021-08-09T08:34:30Z</time>
      </trkpt>
      <trkpt lat="44.73291" lon="3.83986">
        <ele>994.7</ele>
        <time>2021-08-09T08:34:32Z</time>
      </trkpt>
      <trkpt lat="44.73285" lon="3.83988">
        <ele>994.6</ele>
        <time>2021-08-09T08:34:34Z</time>
      </trkpt>
      <trkpt lat="44.7328" lon="3.8399">
        <ele>994.6</ele>
        <time>2021-08-09T08:34:36Z</time>
      </trkpt>
      <trkpt lat="44.73274" lon="3.83993">
        <ele>994.5</ele>
        <time>2021-08-09T08:34:38Z</time>
      </trkpt>
      <trkpt lat="44.73269" lon="3.83995">
        <ele>994.5</ele>
        <time>2021-08-09T08:34:40Z</time>
      </trkpt>
      <trkpt lat="44.73264" lon="3.83997">
        <ele>994.4</ele>
        <time>2021-08-09T08:34:42Z</time>
      </trkpt>
      <trkpt lat="44.73258" lon="3.83999">
        <ele>994.4</ele>
        <time>2021-08-09T08:34:44Z</time>
      </trkpt>
      <trkpt lat="44.73253" lon="3.84002">
        <ele>994.3</ele>
        <time>2021-08-09T08:34:46Z</time>
      </trkpt>
      <trkpt lat="44.73247" lon="3.84004">
        <ele>994.2</ele>
        <time>2021-08-09T08:34:48Z</time>
      </trkpt>
      <trkpt lat="44.73241" lon="3.84007">
        <ele>994</ele>
        <time>2021-08-09T08:34:50Z</time>
      </trkpt>
      <trkpt lat="44.73233" lon="3.84009">
        <ele>993.7</ele>
        <time>2021-08-09T08:34:52Z</time>
      </trkpt>
      <trkpt lat="44.73226" lon="3.84012">
        <ele>993.4</ele>
        <time>2021-08-09T08:34:54Z</time>
      </trkpt>
      <trkpt lat="44.73219" lon="3.84014">
        <ele>993.1</ele>
        <time>2021-08-09T08:34:56Z</time>
      </trkpt>
      <trkpt lat="44.73211" lon="3.84017">
        <ele>992.7</ele>
        <time>2021-08-09T08:34:58Z</time>
      </trkpt>
      <trkpt lat="44.73204" lon="3.84019">
        <ele>992.3</ele>
        <time>2021-08-09T08:35:00Z</time>
      </trkpt>
      <trkpt lat="44.73196" lon="3.84021">
        <ele>991.8</ele>
        <time>2021-08-09T08:35:02Z</time>
      </trkpt>
      <trkpt lat="44.73188" lon="3.84022">
        <ele>991.3</ele>
        <time>2021-08-09T08:35:04Z</time>
      </trkpt>
      <trkpt lat="44.7318" lon="3.84022">
        <ele>990.8</ele>
        <time>2021-08-09T08:35:06Z</time>
      </trkpt>
      <trkpt lat="44.73171" lon="3.84022">
        <ele>990.1</ele>
        <time>2021-08-09T08:35:08Z</time>
      </trkpt>
      <trkpt lat="44.73162" lon="3.84021">
        <ele>989.4</ele>
        <time>2021-08-09T08:35:10Z</time>
      </trkpt>
      <trkpt lat="44.73152" lon="3.84018">
        <ele>988.5</ele>
        <time>2021-08-09T08:35:12Z</time>
      </trkpt>
      <trkpt lat="44.73141" lon="3.84013">
        <ele>987.4</ele>
        <time>2021-08-09T08:35:14Z</time>
      </trkpt>
      <trkpt lat="44.7313" lon="3.84008">
        <ele>986.2</ele>
        <time>2021-08-09T08:35:16Z</time>
      </trkpt>
      <trkpt lat="44.73118" lon="3.84001">
        <ele>984.9</ele>
        <time>2021-08-09T08:35:18Z</time>
      </trkpt>
      <trkpt lat="44.73105" lon="3.83994">
        <ele>983.7</ele>
        <time>2021-08-09T08:35:20Z</time>
      </trkpt>
      <trkpt lat="44.73092" lon="3.83988">
        <ele>982.6</ele>
        <time>2021-08-09T08:35:22Z</time>
      </trkpt>
      <trkpt lat="44.73078" lon="3.83984">
        <ele>981.8</ele>
        <time>2021-08-09T08:35:24Z</time>
      </trkpt>
      <trkpt lat="44.73065" lon="3.83983">
        <ele>981.4</ele>
        <time>2021-08-09T08:35:26Z</time>
      </trkpt>
      <trkpt lat="44.7305" lon="3.83984">
        <ele>981</ele>
        <time>2021-08-09T08:35:28Z</time>
      </trkpt>
      <trkpt lat="44.73035" lon="3.83987">
        <ele>980.4</ele>
        <time>2021-08-09T08:35:30Z</time>
      </trkpt>
      <trkpt lat="44.73019" lon="3.83991">
        <ele>979.9</ele>
        <time>2021-08-09T08:35:32Z</time>
      </trkpt>
      <trkpt lat="44.73003" lon="3.83995">
        <ele>979.2</ele>
        <time>2021-08-09T08:35:34Z</time>
      </trkpt>
      <trkpt lat="44.72986" lon="3.83999">
        <ele>978.5</ele>
        <time>2021-08-09T08:35:36Z</time>
      </trkpt>
      <trkpt lat="44.72968" lon="3.84004">
        <ele>977.8</ele>
        <time>2021-08-09T08:35:38Z</time>
      </trkpt>
      <trkpt lat="44.7295" lon="3.84008">
        <ele>977.1</ele>
        <time>2021-08-09T08:35:40Z</time>
      </trkpt>
      <trkpt lat="44.72931" lon="3.84013">
        <ele>976.2</ele>
        <time>2021-08-09T08:35:42Z</time>
      </trkpt>
      <trkpt lat="44.72913" lon="3.84018">
        <ele>975.4</ele>
        <time>2021-08-09T08:35:44Z</time>
      </trkpt>
      <trkpt lat="44.72895" lon="3.84023">
        <ele>975.2</ele>
        <time>2021-08-09T08:35:46Z</time>
      </trkpt>
      <trkpt lat="44.72877" lon="3.84027">
        <ele>975</ele>
        <time>2021-08-09T08:35:48Z</time>
      </trkpt>
      <trkpt lat="44.72859" lon="3.84032">
        <ele>974.7</ele>
        <time>2021-08-09T08:35:50Z</time>
      </trkpt>
      <trkpt lat="44.72841" lon="3.84037">
        <ele>974.4</ele>
        <time>2021-08-09T08:35:52Z</time>
      </trkpt>
      <trkpt lat="44.72823" lon="3.84041">
        <ele>974</ele>
        <time>2021-08-09T08:35:54Z</time>
      </trkpt>
      <trkpt lat="44.72806" lon="3.84046">
        <ele>973.7</ele>
        <time>2021-08-09T08:35:56Z</time>
      </trkpt>
      <trkpt lat="44.7279" lon="3.8405">
        <ele>973.5</ele>
        <time>2021-08-09T08:35:58Z</time>
      </trkpt>
      <trkpt lat="44.72774" lon="3.84054">
        <ele>973.3</ele>
        <time>2021-08-09T08:36:00Z</time>
      </trkpt>
      <trkpt lat="44.72759" lon="3.84057">
        <ele>973.2</ele>
        <time>2021-08-09T08:36:02Z</time>
      </trkpt>
      <trkpt lat="44.72745" lon="3.8406">
        <ele>972.9</ele>
        <time>2021-08-09T08:36:04Z</time>
      </trkpt>
      <trkpt lat="44.72731" lon="3.84061">
        <ele>972.3</ele>
        <time>2021-08-09T08:36:06Z</time>
      </trkpt>
      <trkpt lat="44.72718" lon="3.84061">
        <ele>971.8</ele>
        <time>2021-08-09T08:36:08Z</time>
      </trkpt>
      <trkpt lat="44.72706" lon="3.8406">
        <ele>971.4</ele>
        <time>2021-08-09T08:36:10Z</time>
      </trkpt>
      <trkpt lat="44.72696" lon="3.84057">
        <ele>971.1</ele>
        <time>2021-08-09T08:36:12Z</time>
      </trkpt>
      <trkpt lat="44.72691" lon="3.84053">
        <ele>971.1</ele>
        <time>2021-08-09T08:36:14Z</time>
      </trkpt>
      <trkpt lat="44.72688" lon="3.84051">
        <ele>971</ele>
        <time>2021-08-09T08:36:16Z</time>
      </trkpt>
      <trkpt lat="44.72685" lon="3.84048">
        <ele>971</ele>
        <time>2021-08-09T08:36:18Z</time>
      </trkpt>
      <trkpt lat="44.72682" lon="3.84045">
        <ele>971</ele>
        <time>2021-08-09T08:36:20Z</time>
      </trkpt>
      <trkpt lat="44.7268" lon="3.84039">
        <ele>971.2</ele>
        <time>2021-08-09T08:36:22Z</time>
      </trkpt>
      <trkpt lat="44.7268" lon="3.84037">
        <ele>971.3</ele>
        <time>2021-08-09T08:36:24Z</time>
      </trkpt>
      <trkpt lat="44.72681" lon="3.84035">
        <ele>971.3</ele>
        <time>2021-08-09T08:36:26Z</time>
      </trkpt>
      <trkpt lat="44.7268" lon="3.84035">
        <ele>971.3</ele>
        <time>2021-08-09T08:36:28Z</time>
      </trkpt>
      <trkpt lat="44.7268" lon="3.84035">
        <ele>971.3</ele>
        <time>2021-08-09T08:36:30Z</time>
      </trkpt>
      <trkpt lat="44.7268" lon="3.84035">
        <ele>971.3</ele>
        <time>2021-08-09T08:36:32Z</time>
      </trkpt>
      <trkpt lat="44.72685" lon="3.84008">
        <ele>972.6</ele>
        <time>2021-08-09T08:38:58Z</time>
      </trkpt>
      <trkpt lat="44.72686" lon="3.84003">
        <ele>972.8</ele>
        <time>2021-08-09T08:39:00Z</time>
      </trkpt>
      <trkpt lat="44.72688" lon="3.83997">
        <ele>973.1</ele>
        <time>2021-08-09T08:39:02Z</time>
      </trkpt>
      <trkpt lat="44.72688" lon="3.83992">
        <ele>973.2</ele>
        <time>2021-08-09T08:39:04Z</time>
      </trkpt>
      <trkpt lat="44.72689" lon="3.83986">
        <ele>973.4</ele>
        <time>2021-08-09T08:39:06Z</time>
      </trkpt>
      <trkpt lat="44.7269" lon="3.83981">
        <ele>973.6</ele>
        <time>2021-08-09T08:39:08Z</time>
      </trkpt>
      <trkpt lat="44.7269" lon="3.83976">
        <ele>973.7</ele>
        <time>2021-08-09T08:39:10Z</time>
      </trkpt>
      <trkpt lat="44.7269" lon="3.83971">
        <ele>973.8</ele>
        <time>2021-08-09T08:39:12Z</time>
      </trkpt>
      <trkpt lat="44.72691" lon="3.83967">
        <ele>973.9</ele>
        <time>2021-08-09T08:39:14Z</time>
      </trkpt>
      <trkpt lat="44.72691" lon="3.83964">
        <ele>974</ele>
        <time>2021-08-09T08:39:16Z</time>
      </trkpt>
      <trkpt lat="44.72691" lon="3.83958">
        <ele>974.2</ele>
        <time>2021-08-09T08:39:18Z</time>
      </trkpt>
      <trkpt lat="44.72691" lon="3.83953">
        <ele>974.3</ele>
        <time>2021-08-09T08:39:20Z</time>
      </trkpt>
      <trkpt lat="44.72691" lon="3.83947">
        <ele>974.4</ele>
        <time>2021-08-09T08:39:22Z</time>
      </trkpt>
      <trkpt lat="44.72692" lon="3.83941">
        <ele>974.6</ele>
        <time>2021-08-09T08:39:24Z</time>
      </trkpt>
      <trkpt lat="44.72692" lon="3.83935">
        <ele>974.8</ele>
        <time>2021-08-09T08:39:26Z</time>
      </trkpt>
      <trkpt lat="44.72692" lon="3.8393">
        <ele>974.9</ele>
        <time>2021-08-09T08:39:28Z</time>
      </trkpt>
      <trkpt lat="44.72693" lon="3.83925">
        <ele>975.1</ele>
        <time>2021-08-09T08:39:30Z</time>
      </trkpt>
      <trkpt lat="44.72693" lon="3.8392">
        <ele>975.2</ele>
        <time>2021-08-09T08:39:32Z</time>
      </trkpt>
      <trkpt lat="44.72694" lon="3.83915">
        <ele>975.2</ele>
        <time>2021-08-09T08:39:34Z</time>
      </trkpt>
      <trkpt lat="44.72694" lon="3.83911">
        <ele>975.1</ele>
        <time>2021-08-09T08:39:36Z</time>
      </trkpt>
      <trkpt lat="44.72695" lon="3.83908">
        <ele>975.1</ele>
        <time>2021-08-09T08:39:38Z</time>
      </trkpt>
      <trkpt lat="44.72696" lon="3.83905">
        <ele>975</ele>
        <time>2021-08-09T08:39:40Z</time>
      </trkpt>
      <trkpt lat="44.72697" lon="3.83902">
        <ele>975</ele>
        <time>2021-08-09T08:39:42Z</time>
      </trkpt>
      <trkpt lat="44.72697" lon="3.83899">
        <ele>974.8</ele>
        <time>2021-08-09T08:39:44Z</time>
      </trkpt>
      <trkpt lat="44.72712" lon="3.83859">
        <ele>974.5</ele>
        <time>2021-08-09T08:44:34Z</time>
      </trkpt>
      <trkpt lat="44.72717" lon="3.83858">
        <ele>974.9</ele>
        <time>2021-08-09T08:44:36Z</time>
      </trkpt>
      <trkpt lat="44.72721" lon="3.83856">
        <ele>975.1</ele>
        <time>2021-08-09T08:44:38Z</time>
      </trkpt>
      <trkpt lat="44.72726" lon="3.83855">
        <ele>975.5</ele>
        <time>2021-08-09T08:44:40Z</time>
      </trkpt>
      <trkpt lat="44.72731" lon="3.83853">
        <ele>975.8</ele>
        <time>2021-08-09T08:44:42Z</time>
      </trkpt>
      <trkpt lat="44.72735" lon="3.83852">
        <ele>976.1</ele>
        <time>2021-08-09T08:44:44Z</time>
      </trkpt>
      <trkpt lat="44.72739" lon="3.8385">
        <ele>976.4</ele>
        <time>2021-08-09T08:44:46Z</time>
      </trkpt>
      <trkpt lat="44.72744" lon="3.83849">
        <ele>976.7</ele>
        <time>2021-08-09T08:44:48Z</time>
      </trkpt>
      <trkpt lat="44.72748" lon="3.83847">
        <ele>977</ele>
        <time>2021-08-09T08:44:50Z</time>
      </trkpt>
      <trkpt lat="44.72753" lon="3.83845">
        <ele>977.3</ele>
        <time>2021-08-09T08:44:52Z</time>
      </trkpt>
      <trkpt lat="44.72757" lon="3.83843">
        <ele>977.5</ele>
        <time>2021-08-09T08:44:54Z</time>
      </trkpt>
      <trkpt lat="44.72762" lon="3.83841">
        <ele>977.7</ele>
        <time>2021-08-09T08:44:56Z</time>
      </trkpt>
      <trkpt lat="44.72767" lon="3.83839">
        <ele>977.9</ele>
        <time>2021-08-09T08:44:58Z</time>
      </trkpt>
      <trkpt lat="44.72772" lon="3.83839">
        <ele>978.1</ele>
        <time>2021-08-09T08:45:00Z</time>
      </trkpt>
      <trkpt lat="44.72777" lon="3.83838">
        <ele>978.3</ele>
        <time>2021-08-09T08:45:02Z</time>
      </trkpt>
      <trkpt lat="44.72782" lon="3.83837">
        <ele>978.6</ele>
        <time>2021-08-09T08:45:04Z</time>
      </trkpt>
      <trkpt lat="44.72787" lon="3.83838">
        <ele>978.8</ele>
        <time>2021-08-09T08:45:06Z</time>
      </trkpt>
      <trkpt lat="44.72793" lon="3.8384">
        <ele>979.1</ele>
        <time>2021-08-09T08:45:08Z</time>
      </trkpt>
      <trkpt lat="44.72798" lon="3.83843">
        <ele>979.3</ele>
        <time>2021-08-09T08:45:10Z</time>
      </trkpt>
      <trkpt lat="44.72802" lon="3.83846">
        <ele>979.6</ele>
        <time>2021-08-09T08:45:12Z</time>
      </trkpt>
      <trkpt lat="44.72807" lon="3.83848">
        <ele>979.8</ele>
        <time>2021-08-09T08:45:14Z</time>
      </trkpt>
      <trkpt lat="44.72812" lon="3.83849">
        <ele>980</ele>
        <time>2021-08-09T08:45:16Z</time>
      </trkpt>
      <trkpt lat="44.72817" lon="3.83852">
        <ele>980.3</ele>
        <time>2021-08-09T08:45:18Z</time>
      </trkpt>
      <trkpt lat="44.72822" lon="3.83854">
        <ele>980.5</ele>
        <time>2021-08-09T08:45:20Z</time>
      </trkpt>
      <trkpt lat="44.72827" lon="3.83856">
        <ele>980.7</ele>
        <time>2021-08-09T08:45:22Z</time>
      </trkpt>
      <trkpt lat="44.72831" lon="3.83859">
        <ele>980.9</ele>
        <time>2021-08-09T08:45:24Z</time>
      </trkpt>
      <trkpt lat="44.72836" lon="3.83861">
        <ele>981</ele>
        <time>2021-08-09T08:45:26Z</time>
      </trkpt>
      <trkpt lat="44.7284" lon="3.83863">
        <ele>981.1</ele>
        <time>2021-08-09T08:45:28Z</time>
      </trkpt>
      <trkpt lat="44.72845" lon="3.83865">
        <ele>981.1</ele>
        <time>2021-08-09T08:45:30Z</time>
      </trkpt>
      <trkpt lat="44.7285" lon="3.83867">
        <ele>981.2</ele>
        <time>2021-08-09T08:45:32Z</time>
      </trkpt>
      <trkpt lat="44.72854" lon="3.83869">
        <ele>981.2</ele>
        <time>2021-08-09T08:45:34Z</time>
      </trkpt>
      <trkpt lat="44.72859" lon="3.83871">
        <ele>981.2</ele>
        <time>2021-08-09T08:45:36Z</time>
      </trkpt>
      <trkpt lat="44.72863" lon="3.83873">
        <ele>981.2</ele>
        <time>2021-08-09T08:45:38Z</time>
      </trkpt>
      <trkpt lat="44.72868" lon="3.83875">
        <ele>981.2</ele>
        <time>2021-08-09T08:45:40Z</time>
      </trkpt>
      <trkpt lat="44.72872" lon="3.83876">
        <ele>981.2</ele>
        <time>2021-08-09T08:45:42Z</time>
      </trkpt>
      <trkpt lat="44.72877" lon="3.83878">
        <ele>981.2</ele>
        <time>2021-08-09T08:45:44Z</time>
      </trkpt>
      <trkpt lat="44.72881" lon="3.83878">
        <ele>981.2</ele>
        <time>2021-08-09T08:45:46Z</time>
      </trkpt>
      <trkpt lat="44.72885" lon="3.83877">
        <ele>981.3</ele>
        <time>2021-08-09T08:45:48Z</time>
      </trkpt>
      <trkpt lat="44.72888" lon="3.83872">
        <ele>981.4</ele>
        <time>2021-08-09T08:45:50Z</time>
      </trkpt>
      <trkpt lat="44.72889" lon="3.83867">
        <ele>981.5</ele>
        <time>2021-08-09T08:45:52Z</time>
      </trkpt>
      <trkpt lat="44.72888" lon="3.83862">
        <ele>981.6</ele>
        <time>2021-08-09T08:45:54Z</time>
      </trkpt>
      <trkpt lat="44.72889" lon="3.83858">
        <ele>981.7</ele>
        <time>2021-08-09T08:45:56Z</time>
      </trkpt>
      <trkpt lat="44.72891" lon="3.83854">
        <ele>981.9</ele>
        <time>2021-08-09T08:45:58Z</time>
      </trkpt>
      <trkpt lat="44.7289" lon="3.83851">
        <ele>981.9</ele>
        <time>2021-08-09T08:46:00Z</time>
      </trkpt>
      <trkpt lat="44.72889" lon="3.83847">
        <ele>982</ele>
        <time>2021-08-09T08:46:02Z</time>
      </trkpt>
      <trkpt lat="44.72892" lon="3.83844">
        <ele>982.1</ele>
        <time>2021-08-09T08:46:04Z</time>
      </trkpt>
      <trkpt lat="44.72894" lon="3.83843">
        <ele>982.2</ele>
        <time>2021-08-09T08:46:06Z</time>
      </trkpt>
      <trkpt lat="44.72805" lon="3.83846">
        <ele>979.7</ele>
        <time>2021-08-09T08:54:30Z</time>
      </trkpt>
      <trkpt lat="44.72799" lon="3.83843">
        <ele>979.4</ele>
        <time>2021-08-09T08:54:32Z</time>
      </trkpt>
      <trkpt lat="44.72792" lon="3.8384">
        <ele>979.1</ele>
        <time>2021-08-09T08:54:34Z</time>
      </trkpt>
      <trkpt lat="44.72786" lon="3.83838">
        <ele>978.8</ele>
        <time>2021-08-09T08:54:36Z</time>
      </trkpt>
      <trkpt lat="44.72779" lon="3.83838">
        <ele>978.5</ele>
        <time>2021-08-09T08:54:38Z</time>
      </trkpt>
      <trkpt lat="44.72773" lon="3.83839">
        <ele>978.1</ele>
        <time>2021-08-09T08:54:40Z</time>
      </trkpt>
      <trkpt lat="44.72766" lon="3.83841">
        <ele>977.8</ele>
        <time>2021-08-09T08:54:42Z</time>
      </trkpt>
      <trkpt lat="44.72759" lon="3.83843">
        <ele>977.5</ele>
        <time>2021-08-09T08:54:44Z</time>
      </trkpt>
      <trkpt lat="44.72751" lon="3.83846">
        <ele>977.2</ele>
        <time>2021-08-09T08:54:46Z</time>
      </trkpt>
      <trkpt lat="44.72743" lon="3.83848">
        <ele>976.6</ele>
        <time>2021-08-09T08:54:48Z</time>
      </trkpt>
      <trkpt lat="44.72735" lon="3.83851">
        <ele>976.1</ele>
        <time>2021-08-09T08:54:50Z</time>
      </trkpt>
      <trkpt lat="44.72727" lon="3.83854">
        <ele>975.5</ele>
        <time>2021-08-09T08:54:52Z</time>
      </trkpt>
      <trkpt lat="44.72719" lon="3.83856">
        <ele>974.9</ele>
        <time>2021-08-09T08:54:54Z</time>
      </trkpt>
      <trkpt lat="44.7271" lon="3.83859">
        <ele>974.4</ele>
        <time>2021-08-09T08:54:56Z</time>
      </trkpt>
      <trkpt lat="44.72701" lon="3.83863">
        <ele>973.9</ele>
        <time>2021-08-09T08:54:58Z</time>
      </trkpt>
      <trkpt lat="44.72696" lon="3.83872">
        <ele>973.8</ele>
        <time>2021-08-09T08:55:00Z</time>
      </trkpt>
      <trkpt lat="44.72696" lon="3.83884">
        <ele>974.2</ele>
        <time>2021-08-09T08:55:02Z</time>
      </trkpt>
      <trkpt lat="44.72695" lon="3.83894">
        <ele>974.6</ele>
        <time>2021-08-09T08:55:04Z</time>
      </trkpt>
      <trkpt lat="44.72694" lon="3.83904">
        <ele>974.9</ele>
        <time>2021-08-09T08:55:06Z</time>
      </trkpt>
      <trkpt lat="44.72693" lon="3.83913">
        <ele>975.1</ele>
        <time>2021-08-09T08:55:08Z</time>
      </trkpt>
      <trkpt lat="44.72693" lon="3.83922">
        <ele>975.2</ele>
        <time>2021-08-09T08:55:10Z</time>
      </trkpt>
      <trkpt lat="44.72693" lon="3.83931">
        <ele>974.9</ele>
        <time>2021-08-09T08:55:12Z</time>
      </trkpt>
      <trkpt lat="44.72692" lon="3.83941">
        <ele>974.6</ele>
        <time>2021-08-09T08:55:14Z</time>
      </trkpt>
      <trkpt lat="44.72691" lon="3.83952">
        <ele>974.3</ele>
        <time>2021-08-09T08:55:16Z</time>
      </trkpt>
      <trkpt lat="44.72691" lon="3.83963">
        <ele>974.1</ele>
        <time>2021-08-09T08:55:18Z</time>
      </trkpt>
      <trkpt lat="44.7269" lon="3.83973">
        <ele>973.8</ele>
        <time>2021-08-09T08:55:20Z</time>
      </trkpt>
      <trkpt lat="44.7269" lon="3.83984">
        <ele>973.5</ele>
        <time>2021-08-09T08:55:22Z</time>
      </trkpt>
      <trkpt lat="44.72689" lon="3.83996">
        <ele>973.1</ele>
        <time>2021-08-09T08:55:24Z</time>
      </trkpt>
      <trkpt lat="44.72685" lon="3.84009">
        <ele>972.5</ele>
        <time>2021-08-09T08:55:26Z</time>
      </trkpt>
      <trkpt lat="44.72681" lon="3.84021">
        <ele>971.9</ele>
        <time>2021-08-09T08:55:28Z</time>
      </trkpt>
      <trkpt lat="44.72676" lon="3.84032">
        <ele>971.3</ele>
        <time>2021-08-09T08:55:30Z</time>
      </trkpt>
      <trkpt lat="44.7267" lon="3.84039">
        <ele>970.7</ele>
        <time>2021-08-09T08:55:32Z</time>
      </trkpt>
      <trkpt lat="44.72665" lon="3.8404">
        <ele>970.5</ele>
        <time>2021-08-09T08:55:34Z</time>
      </trkpt>
      <trkpt lat="44.72662" lon="3.8404">
        <ele>970.5</ele>
        <time>2021-08-09T08:55:36Z</time>
      </trkpt>
      <trkpt lat="44.7266" lon="3.84041">
        <ele>970.4</ele>
        <time>2021-08-09T08:55:38Z</time>
      </trkpt>
      <trkpt lat="44.72655" lon="3.8404">
        <ele>970.4</ele>
        <time>2021-08-09T08:55:40Z</time>
      </trkpt>
      <trkpt lat="44.72649" lon="3.84039">
        <ele>970.3</ele>
        <time>2021-08-09T08:55:42Z</time>
      </trkpt>
      <trkpt lat="44.72642" lon="3.84037">
        <ele>970.2</ele>
        <time>2021-08-09T08:55:44Z</time>
      </trkpt>
      <trkpt lat="44.72635" lon="3.84033">
        <ele>970.2</ele>
        <time>2021-08-09T08:55:46Z</time>
      </trkpt>
      <trkpt lat="44.72627" lon="3.8403">
        <ele>970.1</ele>
        <time>2021-08-09T08:55:48Z</time>
      </trkpt>
      <trkpt lat="44.72619" lon="3.84027">
        <ele>970.1</ele>
        <time>2021-08-09T08:55:50Z</time>
      </trkpt>
      <trkpt lat="44.7261" lon="3.84023">
        <ele>970</ele>
        <time>2021-08-09T08:55:52Z</time>
      </trkpt>
      <trkpt lat="44.72603" lon="3.84018">
        <ele>970</ele>
        <time>2021-08-09T08:55:54Z</time>
      </trkpt>
      <trkpt lat="44.72595" lon="3.84012">
        <ele>970</ele>
        <time>2021-08-09T08:55:56Z</time>
      </trkpt>
      <trkpt lat="44.72587" lon="3.84006">
        <ele>970</ele>
        <time>2021-08-09T08:55:58Z</time>
      </trkpt>
      <trkpt lat="44.7258" lon="3.83998">
        <ele>969.9</ele>
        <time>2021-08-09T08:56:00Z</time>
      </trkpt>
      <trkpt lat="44.72573" lon="3.83988">
        <ele>969.5</ele>
        <time>2021-08-09T08:56:02Z</time>
      </trkpt>
      <trkpt lat="44.72566" lon="3.83979">
        <ele>969.1</ele>
        <time>2021-08-09T08:56:04Z</time>
      </trkpt>
      <trkpt lat="44.72559" lon="3.83969">
        <ele>968.6</ele>
        <time>2021-08-09T08:56:06Z</time>
      </trkpt>
      <trkpt lat="44.72552" lon="3.8396">
        <ele>968.2</ele>
        <time>2021-08-09T08:56:08Z</time>
      </trkpt>
      <trkpt lat="44.72545" lon="3.8395">
        <ele>967.7</ele>
        <time>2021-08-09T08:56:10Z</time>
      </trkpt>
      <trkpt lat="44.72536" lon="3.83943">
        <ele>967.3</ele>
        <time>2021-08-09T08:56:12Z</time>
      </trkpt>
      <trkpt lat="44.72528" lon="3.83938">
        <ele>966.8</ele>
        <time>2021-08-09T08:56:14Z</time>
      </trkpt>
      <trkpt lat="44.72519" lon="3.83935">
        <ele>966.3</ele>
        <time>2021-08-09T08:56:16Z</time>
      </trkpt>
      <trkpt lat="44.7251" lon="3.83934">
        <ele>965.9</ele>
        <time>2021-08-09T08:56:18Z</time>
      </trkpt>
      <trkpt lat="44.72502" lon="3.83936">
        <ele>965.5</ele>
        <time>2021-08-09T08:56:20Z</time>
      </trkpt>
      <trkpt lat="44.72492" lon="3.83941">
        <ele>965.2</ele>
        <time>2021-08-09T08:56:22Z</time>
      </trkpt>
      <trkpt lat="44.72481" lon="3.83949">
        <ele>964.8</ele>
        <time>2021-08-09T08:56:24Z</time>
      </trkpt>
      <trkpt lat="44.72471" lon="3.83958">
        <ele>964.6</ele>
        <time>2021-08-09T08:56:26Z</time>
      </trkpt>
      <trkpt lat="44.72464" lon="3.8397">
        <ele>964.5</ele>
        <time>2021-08-09T08:56:28Z</time>
      </trkpt>
      <trkpt lat="44.72457" lon="3.83981">
        <ele>964.5</ele>
        <time>2021-08-09T08:56:30Z</time>
      </trkpt>
      <trkpt lat="44.72451" lon="3.83993">
        <ele>964.5</ele>
        <time>2021-08-09T08:56:32Z</time>
      </trkpt>
      <trkpt lat="44.72444" lon="3.84006">
        <ele>964.2</ele>
        <time>2021-08-09T08:56:34Z</time>
      </trkpt>
      <trkpt lat="44.72439" lon="3.84022">
        <ele>963.8</ele>
        <time>2021-08-09T08:56:36Z</time>
      </trkpt>
      <trkpt lat="44.72435" lon="3.84037">
        <ele>963.4</ele>
        <time>2021-08-09T08:56:38Z</time>
      </trkpt>
      <trkpt lat="44.72429" lon="3.84053">
        <ele>963</ele>
        <time>2021-08-09T08:56:40Z</time>
      </trkpt>
      <trkpt lat="44.72423" lon="3.84067">
        <ele>962.5</ele>
        <time>2021-08-09T08:56:42Z</time>
      </trkpt>
      <trkpt lat="44.72414" lon="3.8408">
        <ele>962.1</ele>
        <time>2021-08-09T08:56:44Z</time>
      </trkpt>
      <trkpt lat="44.72404" lon="3.84092">
        <ele>962.2</ele>
        <time>2021-08-09T08:56:46Z</time>
      </trkpt>
      <trkpt lat="44.72394" lon="3.84104">
        <ele>962.4</ele>
        <time>2021-08-09T08:56:48Z</time>
      </trkpt>
      <trkpt lat="44.72384" lon="3.84117">
        <ele>962.5</ele>
        <time>2021-08-09T08:56:50Z</time>
      </trkpt>
      <trkpt lat="44.72374" lon="3.8413">
        <ele>962.7</ele>
        <time>2021-08-09T08:56:52Z</time>
      </trkpt>
      <trkpt lat="44.72364" lon="3.84142">
        <ele>963</ele>
        <time>2021-08-09T08:56:54Z</time>
      </trkpt>
      <trkpt lat="44.72355" lon="3.84153">
        <ele>963.2</ele>
        <time>2021-08-09T08:56:56Z</time>
      </trkpt>
      <trkpt lat="44.72347" lon="3.84165">
        <ele>963.5</ele>
        <time>2021-08-09T08:56:58Z</time>
      </trkpt>
      <trkpt lat="44.72338" lon="3.84176">
        <ele>963.5</ele>
        <time>2021-08-09T08:57:00Z</time>
      </trkpt>
      <trkpt lat="44.72329" lon="3.84187">
        <ele>963.5</ele>
        <time>2021-08-09T08:57:02Z</time>
      </trkpt>
      <trkpt lat="44.72321" lon="3.84197">
        <ele>963.5</ele>
        <time>2021-08-09T08:57:04Z</time>
      </trkpt>
      <trkpt lat="44.72313" lon="3.84208">
        <ele>963.4</ele>
        <time>2021-08-09T08:57:06Z</time>
      </trkpt>
      <trkpt lat="44.72305" lon="3.84218">
        <ele>963.2</ele>
        <time>2021-08-09T08:57:08Z</time>
      </trkpt>
      <trkpt lat="44.72297" lon="3.84228">
        <ele>963</ele>
        <time>2021-08-09T08:57:10Z</time>
      </trkpt>
      <trkpt lat="44.72289" lon="3.84238">
        <ele>962.8</ele>
        <time>2021-08-09T08:57:12Z</time>
      </trkpt>
      <trkpt lat="44.72281" lon="3.84247">
        <ele>962.4</ele>
        <time>2021-08-09T08:57:14Z</time>
      </trkpt>
      <trkpt lat="44.72273" lon="3.84257">
        <ele>962.2</ele>
        <time>2021-08-09T08:57:16Z</time>
      </trkpt>
      <trkpt lat="44.72265" lon="3.84267">
        <ele>962</ele>
        <time>2021-08-09T08:57:18Z</time>
      </trkpt>
      <trkpt lat="44.72258" lon="3.84276">
        <ele>961.9</ele>
        <time>2021-08-09T08:57:20Z</time>
      </trkpt>
      <trkpt lat="44.7225" lon="3.84286">
        <ele>961.7</ele>
        <time>2021-08-09T08:57:22Z</time>
      </trkpt>
      <trkpt lat="44.72242" lon="3.84296">
        <ele>960.6</ele>
        <time>2021-08-09T08:57:24Z</time>
      </trkpt>
      <trkpt lat="44.72235" lon="3.84305">
        <ele>959.4</ele>
        <time>2021-08-09T08:57:26Z</time>
      </trkpt>
      <trkpt lat="44.72228" lon="3.84314">
        <ele>958.1</ele>
        <time>2021-08-09T08:57:28Z</time>
      </trkpt>
      <trkpt lat="44.7222" lon="3.84322">
        <ele>956.7</ele>
        <time>2021-08-09T08:57:30Z</time>
      </trkpt>
      <trkpt lat="44.72211" lon="3.84329">
        <ele>955.1</ele>
        <time>2021-08-09T08:57:32Z</time>
      </trkpt>
      <trkpt lat="44.72199" lon="3.8433">
        <ele>953.5</ele>
        <time>2021-08-09T08:57:34Z</time>
      </trkpt>
      <trkpt lat="44.72188" lon="3.84326">
        <ele>952.5</ele>
        <time>2021-08-09T08:57:36Z</time>
      </trkpt>
      <trkpt lat="44.72178" lon="3.84317">
        <ele>952</ele>
        <time>2021-08-09T08:57:38Z</time>
      </trkpt>
      <trkpt lat="44.72168" lon="3.84307">
        <ele>952</ele>
        <time>2021-08-09T08:57:40Z</time>
      </trkpt>
      <trkpt lat="44.72157" lon="3.84297">
        <ele>951.8</ele>
        <time>2021-08-09T08:57:42Z</time>
      </trkpt>
      <trkpt lat="44.72147" lon="3.84286">
        <ele>951.9</ele>
        <time>2021-08-09T08:57:44Z</time>
      </trkpt>
      <trkpt lat="44.72137" lon="3.84277">
        <ele>952.1</ele>
        <time>2021-08-09T08:57:46Z</time>
      </trkpt>
      <trkpt lat="44.72127" lon="3.84267">
        <ele>952.6</ele>
        <time>2021-08-09T08:57:48Z</time>
      </trkpt>
      <trkpt lat="44.72119" lon="3.84257">
        <ele>953.5</ele>
        <time>2021-08-09T08:57:50Z</time>
      </trkpt>
      <trkpt lat="44.72112" lon="3.84248">
        <ele>954.3</ele>
        <time>2021-08-09T08:57:52Z</time>
      </trkpt>
      <trkpt lat="44.72105" lon="3.84237">
        <ele>955.1</ele>
        <time>2021-08-09T08:57:54Z</time>
      </trkpt>
      <trkpt lat="44.72099" lon="3.84227">
        <ele>956</ele>
        <time>2021-08-09T08:57:56Z</time>
      </trkpt>
      <trkpt lat="44.72092" lon="3.84221">
        <ele>956.3</ele>
        <time>2021-08-09T08:57:58Z</time>
      </trkpt>
      <trkpt lat="44.72088" lon="3.84219">
        <ele>956.3</ele>
        <time>2021-08-09T08:58:00Z</time>
      </trkpt>
      <trkpt lat="44.72086" lon="3.84219">
        <ele>956.2</ele>
        <time>2021-08-09T08:58:02Z</time>
      </trkpt>
      <trkpt lat="44.72085" lon="3.8422">
        <ele>956.1</ele>
        <time>2021-08-09T08:58:04Z</time>
      </trkpt>
      <trkpt lat="44.72085" lon="3.8422">
        <ele>956.1</ele>
        <time>2021-08-09T08:58:06Z</time>
      </trkpt>
      <trkpt lat="44.72085" lon="3.8422">
        <ele>956.1</ele>
        <time>2021-08-09T08:58:08Z</time>
      </trkpt>
      <trkpt lat="44.72085" lon="3.8422">
        <ele>956</ele>
        <time>2021-08-09T08:58:10Z</time>
      </trkpt>
      <trkpt lat="44.7209" lon="3.84252">
        <ele>952.2</ele>
        <time>2021-08-09T08:58:34Z</time>
      </trkpt>
      <trkpt lat="44.72099" lon="3.84261">
        <ele>951.1</ele>
        <time>2021-08-09T08:58:36Z</time>
      </trkpt>
      <trkpt lat="44.72108" lon="3.84273">
        <ele>950</ele>
        <time>2021-08-09T08:58:38Z</time>
      </trkpt>
      <trkpt lat="44.72118" lon="3.84285">
        <ele>949</ele>
        <time>2021-08-09T08:58:40Z</time>
      </trkpt>
      <trkpt lat="44.72127" lon="3.84298">
        <ele>948</ele>
        <time>2021-08-09T08:58:42Z</time>
      </trkpt>
      <trkpt lat="44.72136" lon="3.84311">
        <ele>947.3</ele>
        <time>2021-08-09T08:58:44Z</time>
      </trkpt>
      <trkpt lat="44.72145" lon="3.84324">
        <ele>946.8</ele>
        <time>2021-08-09T08:58:46Z</time>
      </trkpt>
      <trkpt lat="44.72155" lon="3.84338">
        <ele>946.6</ele>
        <time>2021-08-09T08:58:48Z</time>
      </trkpt>
      <trkpt lat="44.72164" lon="3.84354">
        <ele>946.3</ele>
        <time>2021-08-09T08:58:50Z</time>
      </trkpt>
      <trkpt lat="44.72173" lon="3.84372">
        <ele>945.8</ele>
        <time>2021-08-09T08:58:52Z</time>
      </trkpt>
      <trkpt lat="44.72181" lon="3.84389">
        <ele>945.5</ele>
        <time>2021-08-09T08:58:54Z</time>
      </trkpt>
      <trkpt lat="44.72188" lon="3.84408">
        <ele>944.8</ele>
        <time>2021-08-09T08:58:56Z</time>
      </trkpt>
      <trkpt lat="44.72194" lon="3.84427">
        <ele>944.3</ele>
        <time>2021-08-09T08:58:58Z</time>
      </trkpt>
      <trkpt lat="44.72199" lon="3.84446">
        <ele>943.9</ele>
        <time>2021-08-09T08:59:00Z</time>
      </trkpt>
      <trkpt lat="44.72205" lon="3.84467">
        <ele>943.3</ele>
        <time>2021-08-09T08:59:02Z</time>
      </trkpt>
      <trkpt lat="44.72207" lon="3.84489">
        <ele>942.1</ele>
        <time>2021-08-09T08:59:04Z</time>
      </trkpt>
      <trkpt lat="44.72211" lon="3.84511">
        <ele>941.3</ele>
        <time>2021-08-09T08:59:06Z</time>
      </trkpt>
      <trkpt lat="44.72213" lon="3.84532">
        <ele>940.4</ele>
        <time>2021-08-09T08:59:08Z</time>
      </trkpt>
      <trkpt lat="44.72216" lon="3.84553">
        <ele>939.7</ele>
        <time>2021-08-09T08:59:10Z</time>
      </trkpt>
      <trkpt lat="44.72218" lon="3.84575">
        <ele>938.9</ele>
        <time>2021-08-09T08:59:12Z</time>
      </trkpt>
      <trkpt lat="44.7222" lon="3.84598">
        <ele>938.4</ele>
        <time>2021-08-09T08:59:14Z</time>
      </trkpt>
      <trkpt lat="44.72221" lon="3.8462">
        <ele>938.2</ele>
        <time>2021-08-09T08:59:16Z</time>
      </trkpt>
      <trkpt lat="44.72221" lon="3.84643">
        <ele>937.6</ele>
        <time>2021-08-09T08:59:18Z</time>
      </trkpt>
      <trkpt lat="44.7222" lon="3.84666">
        <ele>936.7</ele>
        <time>2021-08-09T08:59:20Z</time>
      </trkpt>
      <trkpt lat="44.72218" lon="3.84688">
        <ele>936.1</ele>
        <time>2021-08-09T08:59:22Z</time>
      </trkpt>
      <trkpt lat="44.72215" lon="3.84711">
        <ele>935.3</ele>
        <time>2021-08-09T08:59:24Z</time>
      </trkpt>
      <trkpt lat="44.72213" lon="3.84733">
        <ele>934.8</ele>
        <time>2021-08-09T08:59:26Z</time>
      </trkpt>
      <trkpt lat="44.72213" lon="3.84756">
        <ele>934.2</ele>
        <time>2021-08-09T08:59:28Z</time>
      </trkpt>
      <trkpt lat="44.72212" lon="3.84779">
        <ele>932.7</ele>
        <time>2021-08-09T08:59:30Z</time>
      </trkpt>
      <trkpt lat="44.72213" lon="3.848">
        <ele>931.8</ele>
        <time>2021-08-09T08:59:32Z</time>
      </trkpt>
      <trkpt lat="44.72215" lon="3.84823">
        <ele>930.9</ele>
        <time>2021-08-09T08:59:34Z</time>
      </trkpt>
      <trkpt lat="44.72217" lon="3.84843">
        <ele>930</ele>
        <time>2021-08-09T08:59:36Z</time>
      </trkpt>
      <trkpt lat="44.7222" lon="3.84864">
        <ele>929.2</ele>
        <time>2021-08-09T08:59:38Z</time>
      </trkpt>
      <trkpt lat="44.72224" lon="3.84885">
        <ele>928.5</ele>
        <time>2021-08-09T08:59:40Z</time>
      </trkpt>
      <trkpt lat="44.72229" lon="3.84905">
        <ele>928</ele>
        <time>2021-08-09T08:59:42Z</time>
      </trkpt>
      <trkpt lat="44.72234" lon="3.84925">
        <ele>927.4</ele>
        <time>2021-08-09T08:59:44Z</time>
      </trkpt>
      <trkpt lat="44.7224" lon="3.84946">
        <ele>926.4</ele>
        <time>2021-08-09T08:59:46Z</time>
      </trkpt>
      <trkpt lat="44.72248" lon="3.84967">
        <ele>925.3</ele>
        <time>2021-08-09T08:59:48Z</time>
      </trkpt>
      <trkpt lat="44.72254" lon="3.84986">
        <ele>923.6</ele>
        <time>2021-08-09T08:59:50Z</time>
      </trkpt>
      <trkpt lat="44.72261" lon="3.85006">
        <ele>922.1</ele>
        <time>2021-08-09T08:59:52Z</time>
      </trkpt>
      <trkpt lat="44.72268" lon="3.85025">
        <ele>921.2</ele>
        <time>2021-08-09T08:59:54Z</time>
      </trkpt>
      <trkpt lat="44.72276" lon="3.85043">
        <ele>920.5</ele>
        <time>2021-08-09T08:59:56Z</time>
      </trkpt>
      <trkpt lat="44.72288" lon="3.85058">
        <ele>920.2</ele>
        <time>2021-08-09T08:59:58Z</time>
      </trkpt>
      <trkpt lat="44.72298" lon="3.85074">
        <ele>919.8</ele>
        <time>2021-08-09T09:00:00Z</time>
      </trkpt>
      <trkpt lat="44.72309" lon="3.85089">
        <ele>919.6</ele>
        <time>2021-08-09T09:00:02Z</time>
      </trkpt>
      <trkpt lat="44.72319" lon="3.85104">
        <ele>919.4</ele>
        <time>2021-08-09T09:00:04Z</time>
      </trkpt>
      <trkpt lat="44.72329" lon="3.85119">
        <ele>919.1</ele>
        <time>2021-08-09T09:00:06Z</time>
      </trkpt>
      <trkpt lat="44.72339" lon="3.85134">
        <ele>918.9</ele>
        <time>2021-08-09T09:00:08Z</time>
      </trkpt>
      <trkpt lat="44.72348" lon="3.85145">
        <ele>918.7</ele>
        <time>2021-08-09T09:00:10Z</time>
      </trkpt>
      <trkpt lat="44.72355" lon="3.85156">
        <ele>918.6</ele>
        <time>2021-08-09T09:00:12Z</time>
      </trkpt>
      <trkpt lat="44.72364" lon="3.85168">
        <ele>918.4</ele>
        <time>2021-08-09T09:00:14Z</time>
      </trkpt>
      <trkpt lat="44.72373" lon="3.85179">
        <ele>918.5</ele>
        <time>2021-08-09T09:00:16Z</time>
      </trkpt>
      <trkpt lat="44.7238" lon="3.85191">
        <ele>918.5</ele>
        <time>2021-08-09T09:00:18Z</time>
      </trkpt>
      <trkpt lat="44.72388" lon="3.852">
        <ele>918.6</ele>
        <time>2021-08-09T09:00:20Z</time>
      </trkpt>
      <trkpt lat="44.72396" lon="3.85212">
        <ele>918.5</ele>
        <time>2021-08-09T09:00:22Z</time>
      </trkpt>
      <trkpt lat="44.72404" lon="3.85222">
        <ele>918.5</ele>
        <time>2021-08-09T09:00:24Z</time>
      </trkpt>
      <trkpt lat="44.72413" lon="3.85233">
        <ele>918.5</ele>
        <time>2021-08-09T09:00:26Z</time>
      </trkpt>
      <trkpt lat="44.72422" lon="3.85245">
        <ele>918.7</ele>
        <time>2021-08-09T09:00:28Z</time>
      </trkpt>
      <trkpt lat="44.72431" lon="3.85257">
        <ele>919.1</ele>
        <time>2021-08-09T09:00:30Z</time>
      </trkpt>
      <trkpt lat="44.72439" lon="3.85269">
        <ele>919.3</ele>
        <time>2021-08-09T09:00:32Z</time>
      </trkpt>
      <trkpt lat="44.72449" lon="3.85281">
        <ele>919.5</ele>
        <time>2021-08-09T09:00:34Z</time>
      </trkpt>
      <trkpt lat="44.72458" lon="3.85292">
        <ele>919.8</ele>
        <time>2021-08-09T09:00:36Z</time>
      </trkpt>
      <trkpt lat="44.72466" lon="3.85304">
        <ele>919.7</ele>
        <time>2021-08-09T09:00:38Z</time>
      </trkpt>
      <trkpt lat="44.72475" lon="3.85315">
        <ele>919.7</ele>
        <time>2021-08-09T09:00:40Z</time>
      </trkpt>
      <trkpt lat="44.72482" lon="3.85327">
        <ele>919.4</ele>
        <time>2021-08-09T09:00:42Z</time>
      </trkpt>
      <trkpt lat="44.72492" lon="3.85338">
        <ele>919.3</ele>
        <time>2021-08-09T09:00:44Z</time>
      </trkpt>
      <trkpt lat="44.725" lon="3.85348">
        <ele>919.4</ele>
        <time>2021-08-09T09:00:46Z</time>
      </trkpt>
      <trkpt lat="44.72507" lon="3.8536">
        <ele>919.7</ele>
        <time>2021-08-09T09:00:48Z</time>
      </trkpt>
      <trkpt lat="44.72517" lon="3.85369">
        <ele>920</ele>
        <time>2021-08-09T09:00:50Z</time>
      </trkpt>
      <trkpt lat="44.72525" lon="3.85381">
        <ele>920</ele>
        <time>2021-08-09T09:00:52Z</time>
      </trkpt>
      <trkpt lat="44.72533" lon="3.85391">
        <ele>920</ele>
        <time>2021-08-09T09:00:54Z</time>
      </trkpt>
      <trkpt lat="44.72541" lon="3.85403">
        <ele>919.8</ele>
        <time>2021-08-09T09:00:56Z</time>
      </trkpt>
      <trkpt lat="44.7255" lon="3.85413">
        <ele>919.6</ele>
        <time>2021-08-09T09:00:58Z</time>
      </trkpt>
      <trkpt lat="44.72556" lon="3.85423">
        <ele>919.2</ele>
        <time>2021-08-09T09:01:00Z</time>
      </trkpt>
      <trkpt lat="44.72563" lon="3.85433">
        <ele>918.9</ele>
        <time>2021-08-09T09:01:02Z</time>
      </trkpt>
      <trkpt lat="44.7257" lon="3.85444">
        <ele>918.4</ele>
        <time>2021-08-09T09:01:04Z</time>
      </trkpt>
      <trkpt lat="44.72577" lon="3.85454">
        <ele>918</ele>
        <time>2021-08-09T09:01:06Z</time>
      </trkpt>
      <trkpt lat="44.72583" lon="3.85465">
        <ele>917.6</ele>
        <time>2021-08-09T09:01:08Z</time>
      </trkpt>
      <trkpt lat="44.72589" lon="3.85474">
        <ele>917.1</ele>
        <time>2021-08-09T09:01:10Z</time>
      </trkpt>
      <trkpt lat="44.72597" lon="3.85486">
        <ele>916.5</ele>
        <time>2021-08-09T09:01:12Z</time>
      </trkpt>
      <trkpt lat="44.72603" lon="3.85494">
        <ele>916.2</ele>
        <time>2021-08-09T09:01:14Z</time>
      </trkpt>
      <trkpt lat="44.7261" lon="3.85504">
        <ele>915.8</ele>
        <time>2021-08-09T09:01:16Z</time>
      </trkpt>
      <trkpt lat="44.72616" lon="3.85514">
        <ele>915.4</ele>
        <time>2021-08-09T09:01:18Z</time>
      </trkpt>
      <trkpt lat="44.72618" lon="3.85526">
        <ele>914.9</ele>
        <time>2021-08-09T09:01:20Z</time>
      </trkpt>
      <trkpt lat="44.72619" lon="3.85535">
        <ele>914.4</ele>
        <time>2021-08-09T09:01:22Z</time>
      </trkpt>
      <trkpt lat="44.72624" lon="3.85548">
        <ele>913.9</ele>
        <time>2021-08-09T09:01:24Z</time>
      </trkpt>
      <trkpt lat="44.72627" lon="3.8556">
        <ele>913.3</ele>
        <time>2021-08-09T09:01:26Z</time>
      </trkpt>
      <trkpt lat="44.7263" lon="3.85568">
        <ele>913</ele>
        <time>2021-08-09T09:01:28Z</time>
      </trkpt>
      <trkpt lat="44.72634" lon="3.85574">
        <ele>912.7</ele>
        <time>2021-08-09T09:01:30Z</time>
      </trkpt>
      <trkpt lat="44.72638" lon="3.85582">
        <ele>912.4</ele>
        <time>2021-08-09T09:01:32Z</time>
      </trkpt>
      <trkpt lat="44.72642" lon="3.85587">
        <ele>912.3</ele>
        <time>2021-08-09T09:01:34Z</time>
      </trkpt>
      <trkpt lat="44.72644" lon="3.85591">
        <ele>912.3</ele>
        <time>2021-08-09T09:01:36Z</time>
      </trkpt>
      <trkpt lat="44.72644" lon="3.85594">
        <ele>912.2</ele>
        <time>2021-08-09T09:01:38Z</time>
      </trkpt>
      <trkpt lat="44.72644" lon="3.85595">
        <ele>912.2</ele>
        <time>2021-08-09T09:01:40Z</time>
      </trkpt>
      <trkpt lat="44.72644" lon="3.85595">
        <ele>912.2</ele>
        <time>2021-08-09T09:01:42Z</time>
      </trkpt>
      <trkpt lat="44.72645" lon="3.85595">
        <ele>912.2</ele>
        <time>2021-08-09T09:01:44Z</time>
      </trkpt>
      <trkpt lat="44.72645" lon="3.85594">
        <ele>912.2</ele>
        <time>2021-08-09T09:01:46Z</time>
      </trkpt>
      <trkpt lat="44.72645" lon="3.85594">
        <ele>912.3</ele>
        <time>2021-08-09T09:01:48Z</time>
      </trkpt>
      <trkpt lat="44.72648" lon="3.85584">
        <ele>912.5</ele>
        <time>2021-08-09T09:05:20Z</time>
      </trkpt>
      <trkpt lat="44.72646" lon="3.85583">
        <ele>912.5</ele>
        <time>2021-08-09T09:05:22Z</time>
      </trkpt>
      <trkpt lat="44.72642" lon="3.85581">
        <ele>912.5</ele>
        <time>2021-08-09T09:05:24Z</time>
      </trkpt>
      <trkpt lat="44.7264" lon="3.85579">
        <ele>912.6</ele>
        <time>2021-08-09T09:05:26Z</time>
      </trkpt>
      <trkpt lat="44.72636" lon="3.85576">
        <ele>912.7</ele>
        <time>2021-08-09T09:05:28Z</time>
      </trkpt>
      <trkpt lat="44.72633" lon="3.85571">
        <ele>912.9</ele>
        <time>2021-08-09T09:05:30Z</time>
      </trkpt>
      <trkpt lat="44.72631" lon="3.85567">
        <ele>913</ele>
        <time>2021-08-09T09:05:32Z</time>
      </trkpt>
      <trkpt lat="44.72629" lon="3.85566">
        <ele>913</ele>
        <time>2021-08-09T09:05:34Z</time>
      </trkpt>
      <trkpt lat="44.72627" lon="3.85567">
        <ele>913</ele>
        <time>2021-08-09T09:05:36Z</time>
      </trkpt>
      <trkpt lat="44.72623" lon="3.85566">
        <ele>912.9</ele>
        <time>2021-08-09T09:05:38Z</time>
      </trkpt>
      <trkpt lat="44.72623" lon="3.85567">
        <ele>912.8</ele>
        <time>2021-08-09T09:05:40Z</time>
      </trkpt>
      <trkpt lat="44.72623" lon="3.85567">
        <ele>912.8</ele>
        <time>2021-08-09T09:05:42Z</time>
      </trkpt>
      <trkpt lat="44.72623" lon="3.85568">
        <ele>912.8</ele>
        <time>2021-08-09T09:05:44Z</time>
      </trkpt>
      <trkpt lat="44.72624" lon="3.85568">
        <ele>912.8</ele>
        <time>2021-08-09T09:05:46Z</time>
      </trkpt>
      <trkpt lat="44.72651" lon="3.85593">
        <ele>912.4</ele>
        <time>2021-08-09T09:41:29Z</time>
      </trkpt>
      <trkpt lat="44.7265" lon="3.85592">
        <ele>912.4</ele>
        <time>2021-08-09T09:41:31Z</time>
      </trkpt>
      <trkpt lat="44.72648" lon="3.85591">
        <ele>912.4</ele>
        <time>2021-08-09T09:41:33Z</time>
      </trkpt>
      <trkpt lat="44.72646" lon="3.8559">
        <ele>912.4</ele>
        <time>2021-08-09T09:41:35Z</time>
      </trkpt>
      <trkpt lat="44.72644" lon="3.85588">
        <ele>912.4</ele>
        <time>2021-08-09T09:41:37Z</time>
      </trkpt>
      <trkpt lat="44.72642" lon="3.85585">
        <ele>912.4</ele>
        <time>2021-08-09T09:41:39Z</time>
      </trkpt>
      <trkpt lat="44.72641" lon="3.85581">
        <ele>912.5</ele>
        <time>2021-08-09T09:41:41Z</time>
      </trkpt>
      <trkpt lat="44.72639" lon="3.85579">
        <ele>912.6</ele>
        <time>2021-08-09T09:41:43Z</time>
      </trkpt>
      <trkpt lat="44.72636" lon="3.85576">
        <ele>912.7</ele>
        <time>2021-08-09T09:41:45Z</time>
      </trkpt>
      <trkpt lat="44.72635" lon="3.85574">
        <ele>912.8</ele>
        <time>2021-08-09T09:41:47Z</time>
      </trkpt>
      <trkpt lat="44.72634" lon="3.85571">
        <ele>912.9</ele>
        <time>2021-08-09T09:41:49Z</time>
      </trkpt>
      <trkpt lat="44.72632" lon="3.8557">
        <ele>912.9</ele>
        <time>2021-08-09T09:41:51Z</time>
      </trkpt>
      <trkpt lat="44.7263" lon="3.85567">
        <ele>913</ele>
        <time>2021-08-09T09:41:53Z</time>
      </trkpt>
      <trkpt lat="44.72628" lon="3.85566">
        <ele>913</ele>
        <time>2021-08-09T09:41:55Z</time>
      </trkpt>
      <trkpt lat="44.72628" lon="3.85565">
        <ele>913.1</ele>
        <time>2021-08-09T09:41:57Z</time>
      </trkpt>
      <trkpt lat="44.72627" lon="3.85564">
        <ele>913.1</ele>
        <time>2021-08-09T09:41:59Z</time>
      </trkpt>
      <trkpt lat="44.72625" lon="3.85559">
        <ele>913.3</ele>
        <time>2021-08-09T09:42:01Z</time>
      </trkpt>
      <trkpt lat="44.72624" lon="3.85558">
        <ele>913.3</ele>
        <time>2021-08-09T09:42:03Z</time>
      </trkpt>
      <trkpt lat="44.72622" lon="3.85557">
        <ele>913.3</ele>
        <time>2021-08-09T09:42:05Z</time>
      </trkpt>
      <trkpt lat="44.72622" lon="3.85557">
        <ele>913.3</ele>
        <time>2021-08-09T09:42:07Z</time>
      </trkpt>
      <trkpt lat="44.72622" lon="3.85555">
        <ele>913.4</ele>
        <time>2021-08-09T09:42:09Z</time>
      </trkpt>
      <trkpt lat="44.72622" lon="3.85557">
        <ele>913.4</ele>
        <time>2021-08-09T09:42:11Z</time>
      </trkpt>
      <trkpt lat="44.72623" lon="3.85559">
        <ele>913.3</ele>
        <time>2021-08-09T09:42:13Z</time>
      </trkpt>
      <trkpt lat="44.72624" lon="3.8556">
        <ele>913.2</ele>
        <time>2021-08-09T09:42:15Z</time>
      </trkpt>
      <trkpt lat="44.72625" lon="3.85562">
        <ele>913.2</ele>
        <time>2021-08-09T09:42:17Z</time>
      </trkpt>
      <trkpt lat="44.72615" lon="3.85582">
        <ele>911.8</ele>
        <time>2021-08-09T09:43:05Z</time>
      </trkpt>
      <trkpt lat="44.7261" lon="3.85588">
        <ele>911.6</ele>
        <time>2021-08-09T09:43:07Z</time>
      </trkpt>
      <trkpt lat="44.72606" lon="3.85594">
        <ele>911.4</ele>
        <time>2021-08-09T09:43:09Z</time>
      </trkpt>
      <trkpt lat="44.72599" lon="3.85599">
        <ele>911.2</ele>
        <time>2021-08-09T09:43:11Z</time>
      </trkpt>
      <trkpt lat="44.72593" lon="3.85606">
        <ele>910.9</ele>
        <time>2021-08-09T09:43:13Z</time>
      </trkpt>
      <trkpt lat="44.72587" lon="3.85613">
        <ele>910.7</ele>
        <time>2021-08-09T09:43:15Z</time>
      </trkpt>
      <trkpt lat="44.7258" lon="3.85621">
        <ele>910.6</ele>
        <time>2021-08-09T09:43:17Z</time>
      </trkpt>
      <trkpt lat="44.72575" lon="3.8563">
        <ele>910.7</ele>
        <time>2021-08-09T09:43:19Z</time>
      </trkpt>
      <trkpt lat="44.72569" lon="3.85635">
        <ele>910.9</ele>
        <time>2021-08-09T09:43:21Z</time>
      </trkpt>
      <trkpt lat="44.72563" lon="3.85639">
        <ele>911.1</ele>
        <time>2021-08-09T09:43:23Z</time>
      </trkpt>
      <trkpt lat="44.7256" lon="3.85641">
        <ele>911.2</ele>
        <time>2021-08-09T09:43:25Z</time>
      </trkpt>
      <trkpt lat="44.72556" lon="3.85642">
        <ele>911.3</ele>
        <time>2021-08-09T09:43:27Z</time>
      </trkpt>
      <trkpt lat="44.72554" lon="3.85644">
        <ele>911.5</ele>
        <time>2021-08-09T09:43:29Z</time>
      </trkpt>
      <trkpt lat="44.7255" lon="3.85645">
        <ele>911.6</ele>
        <time>2021-08-09T09:43:31Z</time>
      </trkpt>
      <trkpt lat="44.72547" lon="3.85645">
        <ele>911.8</ele>
        <time>2021-08-09T09:43:33Z</time>
      </trkpt>
      <trkpt lat="44.72545" lon="3.85647">
        <ele>911.9</ele>
        <time>2021-08-09T09:43:35Z</time>
      </trkpt>
      <trkpt lat="44.72543" lon="3.85649">
        <ele>912</ele>
        <time>2021-08-09T09:43:37Z</time>
      </trkpt>
      <trkpt lat="44.7254" lon="3.85653">
        <ele>912.3</ele>
        <time>2021-08-09T09:43:39Z</time>
      </trkpt>
      <trkpt lat="44.7254" lon="3.8566">
        <ele>912.4</ele>
        <time>2021-08-09T09:43:41Z</time>
      </trkpt>
      <trkpt lat="44.72541" lon="3.85663">
        <ele>912.5</ele>
        <time>2021-08-09T09:43:43Z</time>
      </trkpt>
      <trkpt lat="44.72541" lon="3.85663">
        <ele>912.4</ele>
        <time>2021-08-09T09:43:45Z</time>
      </trkpt>
      <trkpt lat="44.72542" lon="3.85663">
        <ele>912.4</ele>
        <time>2021-08-09T09:43:47Z</time>
      </trkpt>
      <trkpt lat="44.72542" lon="3.85663">
        <ele>912.4</ele>
        <time>2021-08-09T09:43:49Z</time>
      </trkpt>
      <trkpt lat="44.72542" lon="3.85663">
        <ele>912.4</ele>
        <time>2021-08-09T09:43:51Z</time>
      </trkpt>
      <trkpt lat="44.72527" lon="3.85683">
        <ele>914.2</ele>
        <time>2021-08-09T09:44:39Z</time>
      </trkpt>
      <trkpt lat="44.72519" lon="3.85687">
        <ele>914.9</ele>
        <time>2021-08-09T09:44:41Z</time>
      </trkpt>
      <trkpt lat="44.72516" lon="3.85696">
        <ele>915.6</ele>
        <time>2021-08-09T09:44:43Z</time>
      </trkpt>
      <trkpt lat="44.72512" lon="3.85702">
        <ele>916.2</ele>
        <time>2021-08-09T09:44:45Z</time>
      </trkpt>
      <trkpt lat="44.72507" lon="3.85706">
        <ele>916.8</ele>
        <time>2021-08-09T09:44:47Z</time>
      </trkpt>
      <trkpt lat="44.72502" lon="3.85709">
        <ele>917.4</ele>
        <time>2021-08-09T09:44:49Z</time>
      </trkpt>
      <trkpt lat="44.72498" lon="3.85713">
        <ele>918</ele>
        <time>2021-08-09T09:44:51Z</time>
      </trkpt>
      <trkpt lat="44.72493" lon="3.85715">
        <ele>918.7</ele>
        <time>2021-08-09T09:44:53Z</time>
      </trkpt>
      <trkpt lat="44.72489" lon="3.85718">
        <ele>919.2</ele>
        <time>2021-08-09T09:44:55Z</time>
      </trkpt>
      <trkpt lat="44.72486" lon="3.85719">
        <ele>919.7</ele>
        <time>2021-08-09T09:44:57Z</time>
      </trkpt>
      <trkpt lat="44.72482" lon="3.8572">
        <ele>920.1</ele>
        <time>2021-08-09T09:44:59Z</time>
      </trkpt>
      <trkpt lat="44.7248" lon="3.85721">
        <ele>920.4</ele>
        <time>2021-08-09T09:45:01Z</time>
      </trkpt>
      <trkpt lat="44.72477" lon="3.85721">
        <ele>920.6</ele>
        <time>2021-08-09T09:45:03Z</time>
      </trkpt>
      <trkpt lat="44.72475" lon="3.85722">
        <ele>920.9</ele>
        <time>2021-08-09T09:45:05Z</time>
      </trkpt>
      <trkpt lat="44.72472" lon="3.85723">
        <ele>921.2</ele>
        <time>2021-08-09T09:45:07Z</time>
      </trkpt>
      <trkpt lat="44.72469" lon="3.85724">
        <ele>921.6</ele>
        <time>2021-08-09T09:45:09Z</time>
      </trkpt>
      <trkpt lat="44.72465" lon="3.85726">
        <ele>922.1</ele>
        <time>2021-08-09T09:45:11Z</time>
      </trkpt>
      <trkpt lat="44.72462" lon="3.85728">
        <ele>922.4</ele>
        <time>2021-08-09T09:45:13Z</time>
      </trkpt>
      <trkpt lat="44.72459" lon="3.8573">
        <ele>922.8</ele>
        <time>2021-08-09T09:45:15Z</time>
      </trkpt>
      <trkpt lat="44.72456" lon="3.85731">
        <ele>923.2</ele>
        <time>2021-08-09T09:45:17Z</time>
      </trkpt>
      <trkpt lat="44.72453" lon="3.85733">
        <ele>923.5</ele>
        <time>2021-08-09T09:45:19Z</time>
      </trkpt>
      <trkpt lat="44.72451" lon="3.85735">
        <ele>923.7</ele>
        <time>2021-08-09T09:45:21Z</time>
      </trkpt>
      <trkpt lat="44.72448" lon="3.85736">
        <ele>924</ele>
        <time>2021-08-09T09:45:23Z</time>
      </trkpt>
      <trkpt lat="44.72445" lon="3.85738">
        <ele>924.3</ele>
        <time>2021-08-09T09:45:25Z</time>
      </trkpt>
      <trkpt lat="44.72442" lon="3.85739">
        <ele>924.7</ele>
        <time>2021-08-09T09:45:27Z</time>
      </trkpt>
      <trkpt lat="44.72439" lon="3.85741">
        <ele>924.9</ele>
        <time>2021-08-09T09:45:29Z</time>
      </trkpt>
      <trkpt lat="44.72436" lon="3.85742">
        <ele>925.2</ele>
        <time>2021-08-09T09:45:31Z</time>
      </trkpt>
      <trkpt lat="44.72433" lon="3.85743">
        <ele>925.5</ele>
        <time>2021-08-09T09:45:33Z</time>
      </trkpt>
      <trkpt lat="44.7243" lon="3.85744">
        <ele>925.8</ele>
        <time>2021-08-09T09:45:35Z</time>
      </trkpt>
      <trkpt lat="44.72427" lon="3.85745">
        <ele>926.1</ele>
        <time>2021-08-09T09:45:37Z</time>
      </trkpt>
      <trkpt lat="44.72424" lon="3.85745">
        <ele>926.4</ele>
        <time>2021-08-09T09:45:39Z</time>
      </trkpt>
      <trkpt lat="44.72421" lon="3.85746">
        <ele>926.6</ele>
        <time>2021-08-09T09:45:41Z</time>
      </trkpt>
      <trkpt lat="44.72418" lon="3.85746">
        <ele>926.9</ele>
        <time>2021-08-09T09:45:43Z</time>
      </trkpt>
      <trkpt lat="44.72415" lon="3.85746">
        <ele>927.1</ele>
        <time>2021-08-09T09:45:45Z</time>
      </trkpt>
      <trkpt lat="44.72412" lon="3.85747">
        <ele>927.3</ele>
        <time>2021-08-09T09:45:47Z</time>
      </trkpt>
      <trkpt lat="44.72409" lon="3.85748">
        <ele>927.5</ele>
        <time>2021-08-09T09:45:49Z</time>
      </trkpt>
      <trkpt lat="44.72406" lon="3.85748">
        <ele>927.8</ele>
        <time>2021-08-09T09:45:51Z</time>
      </trkpt>
      <trkpt lat="44.72403" lon="3.85749">
        <ele>928</ele>
        <time>2021-08-09T09:45:53Z</time>
      </trkpt>
      <trkpt lat="44.724" lon="3.85751">
        <ele>928.2</ele>
        <time>2021-08-09T09:45:55Z</time>
      </trkpt>
      <trkpt lat="44.72399" lon="3.85753">
        <ele>928.4</ele>
        <time>2021-08-09T09:45:57Z</time>
      </trkpt>
      <trkpt lat="44.72396" lon="3.85754">
        <ele>928.7</ele>
        <time>2021-08-09T09:45:59Z</time>
      </trkpt>
      <trkpt lat="44.72393" lon="3.85754">
        <ele>928.9</ele>
        <time>2021-08-09T09:46:01Z</time>
      </trkpt>
      <trkpt lat="44.72389" lon="3.85753">
        <ele>929.1</ele>
        <time>2021-08-09T09:46:03Z</time>
      </trkpt>
      <trkpt lat="44.72387" lon="3.85753">
        <ele>929.3</ele>
        <time>2021-08-09T09:46:05Z</time>
      </trkpt>
      <trkpt lat="44.72385" lon="3.85755">
        <ele>929.5</ele>
        <time>2021-08-09T09:46:07Z</time>
      </trkpt>
      <trkpt lat="44.72381" lon="3.85756">
        <ele>929.8</ele>
        <time>2021-08-09T09:46:09Z</time>
      </trkpt>
      <trkpt lat="44.72379" lon="3.85757">
        <ele>930</ele>
        <time>2021-08-09T09:46:11Z</time>
      </trkpt>
      <trkpt lat="44.72375" lon="3.85757">
        <ele>930.3</ele>
        <time>2021-08-09T09:46:13Z</time>
      </trkpt>
      <trkpt lat="44.72373" lon="3.85759">
        <ele>930.5</ele>
        <time>2021-08-09T09:46:15Z</time>
      </trkpt>
      <trkpt lat="44.7237" lon="3.8576">
        <ele>930.8</ele>
        <time>2021-08-09T09:46:17Z</time>
      </trkpt>
      <trkpt lat="44.72367" lon="3.85762">
        <ele>931.1</ele>
        <time>2021-08-09T09:46:19Z</time>
      </trkpt>
      <trkpt lat="44.72364" lon="3.85762">
        <ele>931.3</ele>
        <time>2021-08-09T09:46:21Z</time>
      </trkpt>
      <trkpt lat="44.72361" lon="3.85762">
        <ele>931.5</ele>
        <time>2021-08-09T09:46:23Z</time>
      </trkpt>
      <trkpt lat="44.72359" lon="3.85763">
        <ele>931.7</ele>
        <time>2021-08-09T09:46:25Z</time>
      </trkpt>
      <trkpt lat="44.72356" lon="3.85764">
        <ele>931.9</ele>
        <time>2021-08-09T09:46:27Z</time>
      </trkpt>
      <trkpt lat="44.72353" lon="3.85766">
        <ele>932.2</ele>
        <time>2021-08-09T09:46:29Z</time>
      </trkpt>
      <trkpt lat="44.72351" lon="3.85767">
        <ele>932.4</ele>
        <time>2021-08-09T09:46:31Z</time>
      </trkpt>
      <trkpt lat="44.72348" lon="3.85767">
        <ele>932.6</ele>
        <time>2021-08-09T09:46:33Z</time>
      </trkpt>
      <trkpt lat="44.72345" lon="3.85768">
        <ele>932.8</ele>
        <time>2021-08-09T09:46:35Z</time>
      </trkpt>
      <trkpt lat="44.72343" lon="3.85769">
        <ele>933</ele>
        <time>2021-08-09T09:46:37Z</time>
      </trkpt>
      <trkpt lat="44.72341" lon="3.8577">
        <ele>933.2</ele>
        <time>2021-08-09T09:46:39Z</time>
      </trkpt>
      <trkpt lat="44.72338" lon="3.85771">
        <ele>933.4</ele>
        <time>2021-08-09T09:46:41Z</time>
      </trkpt>
      <trkpt lat="44.72335" lon="3.85771">
        <ele>933.7</ele>
        <time>2021-08-09T09:46:43Z</time>
      </trkpt>
      <trkpt lat="44.72332" lon="3.85772">
        <ele>933.8</ele>
        <time>2021-08-09T09:46:45Z</time>
      </trkpt>
      <trkpt lat="44.7233" lon="3.85773">
        <ele>933.9</ele>
        <time>2021-08-09T09:46:47Z</time>
      </trkpt>
      <trkpt lat="44.72326" lon="3.85774">
        <ele>934.1</ele>
        <time>2021-08-09T09:46:49Z</time>
      </trkpt>
      <trkpt lat="44.72324" lon="3.85776">
        <ele>934.2</ele>
        <time>2021-08-09T09:46:51Z</time>
      </trkpt>
      <trkpt lat="44.72321" lon="3.85777">
        <ele>934.4</ele>
        <time>2021-08-09T09:46:53Z</time>
      </trkpt>
      <trkpt lat="44.72318" lon="3.85778">
        <ele>934.5</ele>
        <time>2021-08-09T09:46:55Z</time>
      </trkpt>
      <trkpt lat="44.72314" lon="3.85779">
        <ele>934.6</ele>
        <time>2021-08-09T09:46:57Z</time>
      </trkpt>
      <trkpt lat="44.72311" lon="3.85778">
        <ele>934.7</ele>
        <time>2021-08-09T09:46:59Z</time>
      </trkpt>
      <trkpt lat="44.72307" lon="3.85777">
        <ele>934.8</ele>
        <time>2021-08-09T09:47:01Z</time>
      </trkpt>
      <trkpt lat="44.72304" lon="3.85778">
        <ele>935</ele>
        <time>2021-08-09T09:47:03Z</time>
      </trkpt>
      <trkpt lat="44.723" lon="3.85779">
        <ele>935.1</ele>
        <time>2021-08-09T09:47:05Z</time>
      </trkpt>
      <trkpt lat="44.72296" lon="3.85781">
        <ele>935.4</ele>
        <time>2021-08-09T09:47:07Z</time>
      </trkpt>
      <trkpt lat="44.72291" lon="3.85782">
        <ele>935.5</ele>
        <time>2021-08-09T09:47:09Z</time>
      </trkpt>
      <trkpt lat="44.72287" lon="3.85782">
        <ele>935.7</ele>
        <time>2021-08-09T09:47:11Z</time>
      </trkpt>
      <trkpt lat="44.72283" lon="3.85783">
        <ele>935.9</ele>
        <time>2021-08-09T09:47:13Z</time>
      </trkpt>
      <trkpt lat="44.72278" lon="3.85784">
        <ele>936.1</ele>
        <time>2021-08-09T09:47:15Z</time>
      </trkpt>
      <trkpt lat="44.72274" lon="3.85786">
        <ele>936.3</ele>
        <time>2021-08-09T09:47:17Z</time>
      </trkpt>
      <trkpt lat="44.72269" lon="3.85787">
        <ele>936.6</ele>
        <time>2021-08-09T09:47:19Z</time>
      </trkpt>
      <trkpt lat="44.72263" lon="3.85788">
        <ele>936.8</ele>
        <time>2021-08-09T09:47:21Z</time>
      </trkpt>
      <trkpt lat="44.72258" lon="3.85789">
        <ele>937</ele>
        <time>2021-08-09T09:47:23Z</time>
      </trkpt>
      <trkpt lat="44.72253" lon="3.8579">
        <ele>937.3</ele>
        <time>2021-08-09T09:47:25Z</time>
      </trkpt>
      <trkpt lat="44.72248" lon="3.85792">
        <ele>937.5</ele>
        <time>2021-08-09T09:47:27Z</time>
      </trkpt>
      <trkpt lat="44.72243" lon="3.85793">
        <ele>937.6</ele>
        <time>2021-08-09T09:47:29Z</time>
      </trkpt>
      <trkpt lat="44.72239" lon="3.85795">
        <ele>937.7</ele>
        <time>2021-08-09T09:47:31Z</time>
      </trkpt>
      <trkpt lat="44.72234" lon="3.85797">
        <ele>937.7</ele>
        <time>2021-08-09T09:47:33Z</time>
      </trkpt>
      <trkpt lat="44.7223" lon="3.85798">
        <ele>937.8</ele>
        <time>2021-08-09T09:47:35Z</time>
      </trkpt>
      <trkpt lat="44.72225" lon="3.85801">
        <ele>937.9</ele>
        <time>2021-08-09T09:47:37Z</time>
      </trkpt>
      <trkpt lat="44.72221" lon="3.85803">
        <ele>938.1</ele>
        <time>2021-08-09T09:47:39Z</time>
      </trkpt>
      <trkpt lat="44.72216" lon="3.85806">
        <ele>938.2</ele>
        <time>2021-08-09T09:47:41Z</time>
      </trkpt>
      <trkpt lat="44.72211" lon="3.85808">
        <ele>938.3</ele>
        <time>2021-08-09T09:47:43Z</time>
      </trkpt>
      <trkpt lat="44.72207" lon="3.8581">
        <ele>938.5</ele>
        <time>2021-08-09T09:47:45Z</time>
      </trkpt>
      <trkpt lat="44.72202" lon="3.85813">
        <ele>938.7</ele>
        <time>2021-08-09T09:47:47Z</time>
      </trkpt>
      <trkpt lat="44.72197" lon="3.85817">
        <ele>938.9</ele>
        <time>2021-08-09T09:47:49Z</time>
      </trkpt>
      <trkpt lat="44.72193" lon="3.85819">
        <ele>939</ele>
        <time>2021-08-09T09:47:51Z</time>
      </trkpt>
      <trkpt lat="44.72189" lon="3.85822">
        <ele>939.2</ele>
        <time>2021-08-09T09:47:53Z</time>
      </trkpt>
      <trkpt lat="44.72184" lon="3.85824">
        <ele>939.3</ele>
        <time>2021-08-09T09:47:55Z</time>
      </trkpt>
      <trkpt lat="44.7218" lon="3.85827">
        <ele>939.5</ele>
        <time>2021-08-09T09:47:57Z</time>
      </trkpt>
      <trkpt lat="44.72176" lon="3.85829">
        <ele>939.7</ele>
        <time>2021-08-09T09:47:59Z</time>
      </trkpt>
      <trkpt lat="44.72172" lon="3.85831">
        <ele>939.8</ele>
        <time>2021-08-09T09:48:01Z</time>
      </trkpt>
      <trkpt lat="44.72169" lon="3.85833">
        <ele>939.9</ele>
        <time>2021-08-09T09:48:03Z</time>
      </trkpt>
      <trkpt lat="44.72165" lon="3.85834">
        <ele>940.1</ele>
        <time>2021-08-09T09:48:05Z</time>
      </trkpt>
      <trkpt lat="44.72163" lon="3.85837">
        <ele>940.2</ele>
        <time>2021-08-09T09:48:07Z</time>
      </trkpt>
      <trkpt lat="44.7216" lon="3.85839">
        <ele>940.4</ele>
        <time>2021-08-09T09:48:09Z</time>
      </trkpt>
      <trkpt lat="44.72158" lon="3.85843">
        <ele>940.6</ele>
        <time>2021-08-09T09:48:11Z</time>
      </trkpt>
      <trkpt lat="44.72158" lon="3.85847">
        <ele>941</ele>
        <time>2021-08-09T09:48:13Z</time>
      </trkpt>
      <trkpt lat="44.72161" lon="3.85852">
        <ele>941.3</ele>
        <time>2021-08-09T09:48:15Z</time>
      </trkpt>
      <trkpt lat="44.72164" lon="3.85855">
        <ele>941.6</ele>
        <time>2021-08-09T09:48:17Z</time>
      </trkpt>
      <trkpt lat="44.72169" lon="3.85858">
        <ele>941.7</ele>
        <time>2021-08-09T09:48:19Z</time>
      </trkpt>
      <trkpt lat="44.72173" lon="3.85859">
        <ele>941.8</ele>
        <time>2021-08-09T09:48:21Z</time>
      </trkpt>
      <trkpt lat="44.72177" lon="3.85861">
        <ele>941.8</ele>
        <time>2021-08-09T09:48:23Z</time>
      </trkpt>
      <trkpt lat="44.72183" lon="3.85863">
        <ele>941.9</ele>
        <time>2021-08-09T09:48:25Z</time>
      </trkpt>
      <trkpt lat="44.72188" lon="3.85865">
        <ele>941.9</ele>
        <time>2021-08-09T09:48:27Z</time>
      </trkpt>
      <trkpt lat="44.72193" lon="3.85867">
        <ele>941.9</ele>
        <time>2021-08-09T09:48:29Z</time>
      </trkpt>
      <trkpt lat="44.72199" lon="3.8587">
        <ele>941.9</ele>
        <time>2021-08-09T09:48:31Z</time>
      </trkpt>
      <trkpt lat="44.72204" lon="3.85873">
        <ele>942</ele>
        <time>2021-08-09T09:48:33Z</time>
      </trkpt>
      <trkpt lat="44.7221" lon="3.85876">
        <ele>942</ele>
        <time>2021-08-09T09:48:35Z</time>
      </trkpt>
      <trkpt lat="44.72216" lon="3.85879">
        <ele>942</ele>
        <time>2021-08-09T09:48:37Z</time>
      </trkpt>
      <trkpt lat="44.72221" lon="3.85882">
        <ele>942</ele>
        <time>2021-08-09T09:48:39Z</time>
      </trkpt>
      <trkpt lat="44.72227" lon="3.85886">
        <ele>942</ele>
        <time>2021-08-09T09:48:41Z</time>
      </trkpt>
      <trkpt lat="44.72233" lon="3.85889">
        <ele>941.9</ele>
        <time>2021-08-09T09:48:43Z</time>
      </trkpt>
      <trkpt lat="44.72238" lon="3.85893">
        <ele>941.8</ele>
        <time>2021-08-09T09:48:45Z</time>
      </trkpt>
      <trkpt lat="44.72243" lon="3.85896">
        <ele>941.7</ele>
        <time>2021-08-09T09:48:47Z</time>
      </trkpt>
      <trkpt lat="44.72249" lon="3.859">
        <ele>941.6</ele>
        <time>2021-08-09T09:48:49Z</time>
      </trkpt>
      <trkpt lat="44.72254" lon="3.85905">
        <ele>941.5</ele>
        <time>2021-08-09T09:48:51Z</time>
      </trkpt>
      <trkpt lat="44.72259" lon="3.85909">
        <ele>941.3</ele>
        <time>2021-08-09T09:48:53Z</time>
      </trkpt>
      <trkpt lat="44.72262" lon="3.85915">
        <ele>941.2</ele>
        <time>2021-08-09T09:48:55Z</time>
      </trkpt>
      <trkpt lat="44.72266" lon="3.85922">
        <ele>941.2</ele>
        <time>2021-08-09T09:48:57Z</time>
      </trkpt>
      <trkpt lat="44.7227" lon="3.85929">
        <ele>941.2</ele>
        <time>2021-08-09T09:48:59Z</time>
      </trkpt>
      <trkpt lat="44.72274" lon="3.85935">
        <ele>941.2</ele>
        <time>2021-08-09T09:49:01Z</time>
      </trkpt>
      <trkpt lat="44.72278" lon="3.85941">
        <ele>941.1</ele>
        <time>2021-08-09T09:49:03Z</time>
      </trkpt>
      <trkpt lat="44.72282" lon="3.85947">
        <ele>941</ele>
        <time>2021-08-09T09:49:05Z</time>
      </trkpt>
      <trkpt lat="44.72286" lon="3.85953">
        <ele>941</ele>
        <time>2021-08-09T09:49:07Z</time>
      </trkpt>
      <trkpt lat="44.7229" lon="3.85959">
        <ele>940.9</ele>
        <time>2021-08-09T09:49:09Z</time>
      </trkpt>
      <trkpt lat="44.72296" lon="3.85965">
        <ele>940.6</ele>
        <time>2021-08-09T09:49:11Z</time>
      </trkpt>
      <trkpt lat="44.72302" lon="3.85972">
        <ele>940.4</ele>
        <time>2021-08-09T09:49:13Z</time>
      </trkpt>
      <trkpt lat="44.7231" lon="3.85979">
        <ele>940.1</ele>
        <time>2021-08-09T09:49:15Z</time>
      </trkpt>
      <trkpt lat="44.72318" lon="3.85986">
        <ele>939.8</ele>
        <time>2021-08-09T09:49:17Z</time>
      </trkpt>
      <trkpt lat="44.72326" lon="3.85993">
        <ele>939.4</ele>
        <time>2021-08-09T09:49:19Z</time>
      </trkpt>
      <trkpt lat="44.72334" lon="3.86002">
        <ele>939</ele>
        <time>2021-08-09T09:49:21Z</time>
      </trkpt>
      <trkpt lat="44.72343" lon="3.86008">
        <ele>938.4</ele>
        <time>2021-08-09T09:49:23Z</time>
      </trkpt>
      <trkpt lat="44.72353" lon="3.86015">
        <ele>937.9</ele>
        <time>2021-08-09T09:49:25Z</time>
      </trkpt>
      <trkpt lat="44.72362" lon="3.86021">
        <ele>937.4</ele>
        <time>2021-08-09T09:49:27Z</time>
      </trkpt>
      <trkpt lat="44.72371" lon="3.86027">
        <ele>936.8</ele>
        <time>2021-08-09T09:49:29Z</time>
      </trkpt>
      <trkpt lat="44.72378" lon="3.86032">
        <ele>936.5</ele>
        <time>2021-08-09T09:49:31Z</time>
      </trkpt>
      <trkpt lat="44.72381" lon="3.86037">
        <ele>936.2</ele>
        <time>2021-08-09T09:49:33Z</time>
      </trkpt>
      <trkpt lat="44.72381" lon="3.86043">
        <ele>936.2</ele>
        <time>2021-08-09T09:49:35Z</time>
      </trkpt>
      <trkpt lat="44.7238" lon="3.86049">
        <ele>936.2</ele>
        <time>2021-08-09T09:49:37Z</time>
      </trkpt>
      <trkpt lat="44.72379" lon="3.86056">
        <ele>936.1</ele>
        <time>2021-08-09T09:49:39Z</time>
      </trkpt>
      <trkpt lat="44.7238" lon="3.8606">
        <ele>936</ele>
        <time>2021-08-09T09:49:41Z</time>
      </trkpt>
      <trkpt lat="44.72381" lon="3.86061">
        <ele>936</ele>
        <time>2021-08-09T09:49:43Z</time>
      </trkpt>
      <trkpt lat="44.72384" lon="3.86065">
        <ele>935.8</ele>
        <time>2021-08-09T09:49:45Z</time>
      </trkpt>
      <trkpt lat="44.72386" lon="3.86071">
        <ele>935.6</ele>
        <time>2021-08-09T09:49:47Z</time>
      </trkpt>
      <trkpt lat="44.72384" lon="3.86079">
        <ele>935.6</ele>
        <time>2021-08-09T09:49:49Z</time>
      </trkpt>
      <trkpt lat="44.72383" lon="3.86086">
        <ele>935.6</ele>
        <time>2021-08-09T09:49:51Z</time>
      </trkpt>
      <trkpt lat="44.72382" lon="3.8609">
        <ele>935.5</ele>
        <time>2021-08-09T09:49:53Z</time>
      </trkpt>
      <trkpt lat="44.72381" lon="3.86095">
        <ele>935.3</ele>
        <time>2021-08-09T09:49:55Z</time>
      </trkpt>
      <trkpt lat="44.7238" lon="3.861">
        <ele>935.2</ele>
        <time>2021-08-09T09:49:57Z</time>
      </trkpt>
      <trkpt lat="44.72379" lon="3.86103">
        <ele>935.1</ele>
        <time>2021-08-09T09:49:59Z</time>
      </trkpt>
      <trkpt lat="44.72379" lon="3.86107">
        <ele>935</ele>
        <time>2021-08-09T09:50:01Z</time>
      </trkpt>
      <trkpt lat="44.72379" lon="3.86109">
        <ele>935</ele>
        <time>2021-08-09T09:50:03Z</time>
      </trkpt>
      <trkpt lat="44.72379" lon="3.86108">
        <ele>935</ele>
        <time>2021-08-09T09:50:05Z</time>
      </trkpt>
      <trkpt lat="44.72379" lon="3.86109">
        <ele>935</ele>
        <time>2021-08-09T09:50:07Z</time>
      </trkpt>
      <trkpt lat="44.72378" lon="3.86109">
        <ele>935</ele>
        <time>2021-08-09T09:50:09Z</time>
      </trkpt>
      <trkpt lat="44.72378" lon="3.8611">
        <ele>934.9</ele>
        <time>2021-08-09T09:50:11Z</time>
      </trkpt>
      <trkpt lat="44.72394" lon="3.86126">
        <ele>934</ele>
        <time>2021-08-09T10:35:46Z</time>
      </trkpt>
      <trkpt lat="44.72398" lon="3.86128">
        <ele>933.9</ele>
        <time>2021-08-09T10:35:48Z</time>
      </trkpt>
      <trkpt lat="44.72403" lon="3.8613">
        <ele>933.7</ele>
        <time>2021-08-09T10:35:50Z</time>
      </trkpt>
      <trkpt lat="44.72407" lon="3.86133">
        <ele>933.6</ele>
        <time>2021-08-09T10:35:52Z</time>
      </trkpt>
      <trkpt lat="44.72412" lon="3.86134">
        <ele>933.5</ele>
        <time>2021-08-09T10:35:54Z</time>
      </trkpt>
      <trkpt lat="44.72418" lon="3.86135">
        <ele>933.4</ele>
        <time>2021-08-09T10:35:56Z</time>
      </trkpt>
      <trkpt lat="44.72422" lon="3.86137">
        <ele>933.4</ele>
        <time>2021-08-09T10:35:58Z</time>
      </trkpt>
      <trkpt lat="44.72428" lon="3.86136">
        <ele>933.5</ele>
        <time>2021-08-09T10:36:00Z</time>
      </trkpt>
      <trkpt lat="44.72429" lon="3.86128">
        <ele>933.5</ele>
        <time>2021-08-09T10:36:02Z</time>
      </trkpt>
      <trkpt lat="44.72431" lon="3.86122">
        <ele>933.6</ele>
        <time>2021-08-09T10:36:04Z</time>
      </trkpt>
      <trkpt lat="44.72433" lon="3.86118">
        <ele>933.7</ele>
        <time>2021-08-09T10:36:06Z</time>
      </trkpt>
      <trkpt lat="44.72435" lon="3.86117">
        <ele>933.7</ele>
        <time>2021-08-09T10:36:08Z</time>
      </trkpt>
      <trkpt lat="44.72436" lon="3.86115">
        <ele>933.7</ele>
        <time>2021-08-09T10:36:10Z</time>
      </trkpt>
      <trkpt lat="44.72439" lon="3.86114">
        <ele>933.7</ele>
        <time>2021-08-09T10:36:12Z</time>
      </trkpt>
      <trkpt lat="44.72443" lon="3.86114">
        <ele>933.8</ele>
        <time>2021-08-09T10:36:14Z</time>
      </trkpt>
      <trkpt lat="44.72446" lon="3.8611">
        <ele>933.8</ele>
        <time>2021-08-09T10:36:16Z</time>
      </trkpt>
      <trkpt lat="44.7245" lon="3.86105">
        <ele>933.8</ele>
        <time>2021-08-09T10:36:18Z</time>
      </trkpt>
      <trkpt lat="44.72454" lon="3.86105">
        <ele>933.9</ele>
        <time>2021-08-09T10:36:20Z</time>
      </trkpt>
      <trkpt lat="44.72458" lon="3.86107">
        <ele>933.9</ele>
        <time>2021-08-09T10:36:22Z</time>
      </trkpt>
      <trkpt lat="44.72462" lon="3.86108">
        <ele>933.9</ele>
        <time>2021-08-09T10:36:24Z</time>
      </trkpt>
      <trkpt lat="44.72466" lon="3.86108">
        <ele>933.9</ele>
        <time>2021-08-09T10:36:26Z</time>
      </trkpt>
      <trkpt lat="44.72471" lon="3.86108">
        <ele>933.9</ele>
        <time>2021-08-09T10:36:28Z</time>
      </trkpt>
      <trkpt lat="44.72473" lon="3.86107">
        <ele>933.9</ele>
        <time>2021-08-09T10:36:30Z</time>
      </trkpt>
      <trkpt lat="44.72477" lon="3.86105">
        <ele>933.9</ele>
        <time>2021-08-09T10:36:32Z</time>
      </trkpt>
      <trkpt lat="44.7248" lon="3.86103">
        <ele>933.9</ele>
        <time>2021-08-09T10:36:34Z</time>
      </trkpt>
      <trkpt lat="44.72482" lon="3.86098">
        <ele>934</ele>
        <time>2021-08-09T10:36:36Z</time>
      </trkpt>
      <trkpt lat="44.72481" lon="3.86095">
        <ele>934</ele>
        <time>2021-08-09T10:36:38Z</time>
      </trkpt>
      <trkpt lat="44.72483" lon="3.86092">
        <ele>934</ele>
        <time>2021-08-09T10:36:40Z</time>
      </trkpt>
      <trkpt lat="44.72486" lon="3.86093">
        <ele>934</ele>
        <time>2021-08-09T10:36:42Z</time>
      </trkpt>
      <trkpt lat="44.72489" lon="3.86094">
        <ele>934</ele>
        <time>2021-08-09T10:36:44Z</time>
      </trkpt>
      <trkpt lat="44.72493" lon="3.86095">
        <ele>934</ele>
        <time>2021-08-09T10:36:46Z</time>
      </trkpt>
      <trkpt lat="44.72498" lon="3.86096">
        <ele>934</ele>
        <time>2021-08-09T10:36:48Z</time>
      </trkpt>
      <trkpt lat="44.72503" lon="3.86097">
        <ele>934</ele>
        <time>2021-08-09T10:36:50Z</time>
      </trkpt>
      <trkpt lat="44.72507" lon="3.86098">
        <ele>933.9</ele>
        <time>2021-08-09T10:36:52Z</time>
      </trkpt>
      <trkpt lat="44.72511" lon="3.86099">
        <ele>933.9</ele>
        <time>2021-08-09T10:36:54Z</time>
      </trkpt>
      <trkpt lat="44.72513" lon="3.86102">
        <ele>933.8</ele>
        <time>2021-08-09T10:36:56Z</time>
      </trkpt>
      <trkpt lat="44.72512" lon="3.86105">
        <ele>933.9</ele>
        <time>2021-08-09T10:36:58Z</time>
      </trkpt>
      <trkpt lat="44.72509" lon="3.86103">
        <ele>933.9</ele>
        <time>2021-08-09T10:37:00Z</time>
      </trkpt>
      <trkpt lat="44.72506" lon="3.86101">
        <ele>933.9</ele>
        <time>2021-08-09T10:37:02Z</time>
      </trkpt>
      <trkpt lat="44.72503" lon="3.861">
        <ele>934</ele>
        <time>2021-08-09T10:37:04Z</time>
      </trkpt>
      <trkpt lat="44.72499" lon="3.86099">
        <ele>934</ele>
        <time>2021-08-09T10:37:06Z</time>
      </trkpt>
      <trkpt lat="44.72496" lon="3.86098">
        <ele>934</ele>
        <time>2021-08-09T10:37:08Z</time>
      </trkpt>
      <trkpt lat="44.72497" lon="3.86093">
        <ele>934</ele>
        <time>2021-08-09T10:37:10Z</time>
      </trkpt>
      <trkpt lat="44.72499" lon="3.86093">
        <ele>934</ele>
        <time>2021-08-09T10:37:12Z</time>
      </trkpt>
      <trkpt lat="44.72501" lon="3.86095">
        <ele>934</ele>
        <time>2021-08-09T10:37:14Z</time>
      </trkpt>
      <trkpt lat="44.72504" lon="3.86098">
        <ele>934</ele>
        <time>2021-08-09T10:37:16Z</time>
      </trkpt>
      <trkpt lat="44.72507" lon="3.861">
        <ele>933.9</ele>
        <time>2021-08-09T10:37:18Z</time>
      </trkpt>
      <trkpt lat="44.72509" lon="3.861">
        <ele>933.9</ele>
        <time>2021-08-09T10:37:20Z</time>
      </trkpt>
      <trkpt lat="44.72512" lon="3.86097">
        <ele>933.9</ele>
        <time>2021-08-09T10:37:22Z</time>
      </trkpt>
      <trkpt lat="44.72514" lon="3.86096">
        <ele>933.8</ele>
        <time>2021-08-09T10:37:24Z</time>
      </trkpt>
      <trkpt lat="44.72517" lon="3.86098">
        <ele>933.8</ele>
        <time>2021-08-09T10:37:26Z</time>
      </trkpt>
      <trkpt lat="44.72521" lon="3.861">
        <ele>933.7</ele>
        <time>2021-08-09T10:37:28Z</time>
      </trkpt>
      <trkpt lat="44.72525" lon="3.86102">
        <ele>933.7</ele>
        <time>2021-08-09T10:37:30Z</time>
      </trkpt>
      <trkpt lat="44.72529" lon="3.86101">
        <ele>933.6</ele>
        <time>2021-08-09T10:37:32Z</time>
      </trkpt>
      <trkpt lat="44.72534" lon="3.86095">
        <ele>933.6</ele>
        <time>2021-08-09T10:37:34Z</time>
      </trkpt>
      <trkpt lat="44.72538" lon="3.86091">
        <ele>933.5</ele>
        <time>2021-08-09T10:37:36Z</time>
      </trkpt>
      <trkpt lat="44.72544" lon="3.86088">
        <ele>933.5</ele>
        <time>2021-08-09T10:37:38Z</time>
      </trkpt>
      <trkpt lat="44.7255" lon="3.86088">
        <ele>933.4</ele>
        <time>2021-08-09T10:37:40Z</time>
      </trkpt>
      <trkpt lat="44.72555" lon="3.8609">
        <ele>933.3</ele>
        <time>2021-08-09T10:37:42Z</time>
      </trkpt>
      <trkpt lat="44.7256" lon="3.86092">
        <ele>933.3</ele>
        <time>2021-08-09T10:37:44Z</time>
      </trkpt>
      <trkpt lat="44.72566" lon="3.86093">
        <ele>933.2</ele>
        <time>2021-08-09T10:37:46Z</time>
      </trkpt>
      <trkpt lat="44.72571" lon="3.86094">
        <ele>933.1</ele>
        <time>2021-08-09T10:37:48Z</time>
      </trkpt>
      <trkpt lat="44.72576" lon="3.86094">
        <ele>933.1</ele>
        <time>2021-08-09T10:37:50Z</time>
      </trkpt>
      <trkpt lat="44.7258" lon="3.86097">
        <ele>933</ele>
        <time>2021-08-09T10:37:52Z</time>
      </trkpt>
      <trkpt lat="44.7258" lon="3.86101">
        <ele>933</ele>
        <time>2021-08-09T10:37:54Z</time>
      </trkpt>
      <trkpt lat="44.72579" lon="3.86102">
        <ele>933.1</ele>
        <time>2021-08-09T10:37:56Z</time>
      </trkpt>
      <trkpt lat="44.72579" lon="3.86106">
        <ele>933.1</ele>
        <time>2021-08-09T10:37:58Z</time>
      </trkpt>
      <trkpt lat="44.72579" lon="3.86111">
        <ele>933</ele>
        <time>2021-08-09T10:38:00Z</time>
      </trkpt>
      <trkpt lat="44.72583" lon="3.86111">
        <ele>933</ele>
        <time>2021-08-09T10:38:02Z</time>
      </trkpt>
      <trkpt lat="44.72584" lon="3.86105">
        <ele>933</ele>
        <time>2021-08-09T10:38:04Z</time>
      </trkpt>
      <trkpt lat="44.72584" lon="3.86101">
        <ele>933</ele>
        <time>2021-08-09T10:38:06Z</time>
      </trkpt>
      <trkpt lat="44.72583" lon="3.86096">
        <ele>933</ele>
        <time>2021-08-09T10:38:08Z</time>
      </trkpt>
      <trkpt lat="44.72581" lon="3.86091">
        <ele>933</ele>
        <time>2021-08-09T10:38:10Z</time>
      </trkpt>
      <trkpt lat="44.72576" lon="3.86087">
        <ele>933.1</ele>
        <time>2021-08-09T10:38:12Z</time>
      </trkpt>
      <trkpt lat="44.7257" lon="3.86086">
        <ele>933.2</ele>
        <time>2021-08-09T10:38:14Z</time>
      </trkpt>
      <trkpt lat="44.72565" lon="3.86085">
        <ele>933.2</ele>
        <time>2021-08-09T10:38:16Z</time>
      </trkpt>
      <trkpt lat="44.7256" lon="3.86084">
        <ele>933.3</ele>
        <time>2021-08-09T10:38:18Z</time>
      </trkpt>
      <trkpt lat="44.72554" lon="3.86082">
        <ele>933.3</ele>
        <time>2021-08-09T10:38:20Z</time>
      </trkpt>
      <trkpt lat="44.72549" lon="3.86081">
        <ele>933.4</ele>
        <time>2021-08-09T10:38:22Z</time>
      </trkpt>
      <trkpt lat="44.72543" lon="3.8608">
        <ele>933.5</ele>
        <time>2021-08-09T10:38:24Z</time>
      </trkpt>
      <trkpt lat="44.72537" lon="3.86078">
        <ele>933.6</ele>
        <time>2021-08-09T10:38:26Z</time>
      </trkpt>
      <trkpt lat="44.72531" lon="3.86077">
        <ele>933.6</ele>
        <time>2021-08-09T10:38:28Z</time>
      </trkpt>
      <trkpt lat="44.72525" lon="3.86076">
        <ele>933.7</ele>
        <time>2021-08-09T10:38:30Z</time>
      </trkpt>
      <trkpt lat="44.72519" lon="3.86074">
        <ele>933.8</ele>
        <time>2021-08-09T10:38:32Z</time>
      </trkpt>
      <trkpt lat="44.72513" lon="3.86072">
        <ele>933.8</ele>
        <time>2021-08-09T10:38:34Z</time>
      </trkpt>
      <trkpt lat="44.72507" lon="3.86071">
        <ele>933.9</ele>
        <time>2021-08-09T10:38:36Z</time>
      </trkpt>
      <trkpt lat="44.72501" lon="3.86069">
        <ele>934</ele>
        <time>2021-08-09T10:38:38Z</time>
      </trkpt>
      <trkpt lat="44.72495" lon="3.86068">
        <ele>934</ele>
        <time>2021-08-09T10:38:40Z</time>
      </trkpt>
      <trkpt lat="44.72489" lon="3.86067">
        <ele>934</ele>
        <time>2021-08-09T10:38:42Z</time>
      </trkpt>
      <trkpt lat="44.72484" lon="3.86067">
        <ele>934</ele>
        <time>2021-08-09T10:38:44Z</time>
      </trkpt>
      <trkpt lat="44.72478" lon="3.86067">
        <ele>934.1</ele>
        <time>2021-08-09T10:38:46Z</time>
      </trkpt>
      <trkpt lat="44.72472" lon="3.86066">
        <ele>934.1</ele>
        <time>2021-08-09T10:38:48Z</time>
      </trkpt>
      <trkpt lat="44.72467" lon="3.86063">
        <ele>934.1</ele>
        <time>2021-08-09T10:38:50Z</time>
      </trkpt>
      <trkpt lat="44.72461" lon="3.86062">
        <ele>934.1</ele>
        <time>2021-08-09T10:38:52Z</time>
      </trkpt>
      <trkpt lat="44.72455" lon="3.86061">
        <ele>934.1</ele>
        <time>2021-08-09T10:38:54Z</time>
      </trkpt>
      <trkpt lat="44.7245" lon="3.8606">
        <ele>934.2</ele>
        <time>2021-08-09T10:38:56Z</time>
      </trkpt>
      <trkpt lat="44.72445" lon="3.86059">
        <ele>934.2</ele>
        <time>2021-08-09T10:38:58Z</time>
      </trkpt>
      <trkpt lat="44.7244" lon="3.86056">
        <ele>934.2</ele>
        <time>2021-08-09T10:39:00Z</time>
      </trkpt>
      <trkpt lat="44.72435" lon="3.86055">
        <ele>934.3</ele>
        <time>2021-08-09T10:39:02Z</time>
      </trkpt>
      <trkpt lat="44.72431" lon="3.86054">
        <ele>934.3</ele>
        <time>2021-08-09T10:39:04Z</time>
      </trkpt>
      <trkpt lat="44.72426" lon="3.86051">
        <ele>934.3</ele>
        <time>2021-08-09T10:39:06Z</time>
      </trkpt>
      <trkpt lat="44.72422" lon="3.8605">
        <ele>934.4</ele>
        <time>2021-08-09T10:39:08Z</time>
      </trkpt>
      <trkpt lat="44.72419" lon="3.86054">
        <ele>934.3</ele>
        <time>2021-08-09T10:39:10Z</time>
      </trkpt>
      <trkpt lat="44.72417" lon="3.86061">
        <ele>934.3</ele>
        <time>2021-08-09T10:39:12Z</time>
      </trkpt>
      <trkpt lat="44.72416" lon="3.86067">
        <ele>934.2</ele>
        <time>2021-08-09T10:39:14Z</time>
      </trkpt>
      <trkpt lat="44.72419" lon="3.86072">
        <ele>934.1</ele>
        <time>2021-08-09T10:39:16Z</time>
      </trkpt>
      <trkpt lat="44.72423" lon="3.86074">
        <ele>934.1</ele>
        <time>2021-08-09T10:39:18Z</time>
      </trkpt>
      <trkpt lat="44.72427" lon="3.86075">
        <ele>934.1</ele>
        <time>2021-08-09T10:39:20Z</time>
      </trkpt>
      <trkpt lat="44.7243" lon="3.86078">
        <ele>934.1</ele>
        <time>2021-08-09T10:39:22Z</time>
      </trkpt>
      <trkpt lat="44.72431" lon="3.86084">
        <ele>934</ele>
        <time>2021-08-09T10:39:24Z</time>
      </trkpt>
      <trkpt lat="44.72433" lon="3.86089">
        <ele>933.9</ele>
        <time>2021-08-09T10:39:26Z</time>
      </trkpt>
      <trkpt lat="44.72435" lon="3.86093">
        <ele>933.9</ele>
        <time>2021-08-09T10:39:28Z</time>
      </trkpt>
      <trkpt lat="44.72436" lon="3.86096">
        <ele>933.9</ele>
        <time>2021-08-09T10:39:30Z</time>
      </trkpt>
      <trkpt lat="44.72436" lon="3.86095">
        <ele>933.9</ele>
        <time>2021-08-09T10:39:32Z</time>
      </trkpt>
      <trkpt lat="44.72436" lon="3.86095">
        <ele>933.9</ele>
        <time>2021-08-09T10:39:34Z</time>
      </trkpt>
      <trkpt lat="44.72436" lon="3.86094">
        <ele>933.9</ele>
        <time>2021-08-09T10:39:36Z</time>
      </trkpt>
      <trkpt lat="44.72436" lon="3.86095">
        <ele>933.9</ele>
        <time>2021-08-09T10:39:38Z</time>
      </trkpt>
      <trkpt lat="44.72436" lon="3.86095">
        <ele>933.9</ele>
        <time>2021-08-09T10:39:40Z</time>
      </trkpt>
      <trkpt lat="44.72424" lon="3.86072">
        <ele>934.1</ele>
        <time>2021-08-09T10:40:24Z</time>
      </trkpt>
      <trkpt lat="44.72421" lon="3.86072">
        <ele>934.1</ele>
        <time>2021-08-09T10:40:26Z</time>
      </trkpt>
      <trkpt lat="44.72419" lon="3.86074">
        <ele>934.1</ele>
        <time>2021-08-09T10:40:28Z</time>
      </trkpt>
      <trkpt lat="44.72419" lon="3.8608">
        <ele>934</ele>
        <time>2021-08-09T10:40:30Z</time>
      </trkpt>
      <trkpt lat="44.72418" lon="3.86084">
        <ele>934</ele>
        <time>2021-08-09T10:40:32Z</time>
      </trkpt>
      <trkpt lat="44.72417" lon="3.86088">
        <ele>933.9</ele>
        <time>2021-08-09T10:40:34Z</time>
      </trkpt>
      <trkpt lat="44.72416" lon="3.86092">
        <ele>933.9</ele>
        <time>2021-08-09T10:40:36Z</time>
      </trkpt>
      <trkpt lat="44.72416" lon="3.86096">
        <ele>933.9</ele>
        <time>2021-08-09T10:40:38Z</time>
      </trkpt>
      <trkpt lat="44.72418" lon="3.86101">
        <ele>933.8</ele>
        <time>2021-08-09T10:40:40Z</time>
      </trkpt>
      <trkpt lat="44.72419" lon="3.86104">
        <ele>933.8</ele>
        <time>2021-08-09T10:40:42Z</time>
      </trkpt>
      <trkpt lat="44.72419" lon="3.86108">
        <ele>933.7</ele>
        <time>2021-08-09T10:40:44Z</time>
      </trkpt>
      <trkpt lat="44.72419" lon="3.8611">
        <ele>933.7</ele>
        <time>2021-08-09T10:40:46Z</time>
      </trkpt>
      <trkpt lat="44.72417" lon="3.86112">
        <ele>933.7</ele>
        <time>2021-08-09T10:40:48Z</time>
      </trkpt>
      <trkpt lat="44.72415" lon="3.86109">
        <ele>933.7</ele>
        <time>2021-08-09T10:40:50Z</time>
      </trkpt>
      <trkpt lat="44.72416" lon="3.86107">
        <ele>933.7</ele>
        <time>2021-08-09T10:40:52Z</time>
      </trkpt>
      <trkpt lat="44.72419" lon="3.86104">
        <ele>933.8</ele>
        <time>2021-08-09T10:40:54Z</time>
      </trkpt>
      <trkpt lat="44.72417" lon="3.86099">
        <ele>933.8</ele>
        <time>2021-08-09T10:40:56Z</time>
      </trkpt>
      <trkpt lat="44.72416" lon="3.86093">
        <ele>933.9</ele>
        <time>2021-08-09T10:40:58Z</time>
      </trkpt>
      <trkpt lat="44.72417" lon="3.86086">
        <ele>934</ele>
        <time>2021-08-09T10:41:00Z</time>
      </trkpt>
      <trkpt lat="44.72418" lon="3.86079">
        <ele>934</ele>
        <time>2021-08-09T10:41:02Z</time>
      </trkpt>
      <trkpt lat="44.7242" lon="3.86072">
        <ele>934.1</ele>
        <time>2021-08-09T10:41:04Z</time>
      </trkpt>
      <trkpt lat="44.72422" lon="3.86066">
        <ele>934.2</ele>
        <time>2021-08-09T10:41:06Z</time>
      </trkpt>
      <trkpt lat="44.72423" lon="3.8606">
        <ele>934.3</ele>
        <time>2021-08-09T10:41:08Z</time>
      </trkpt>
      <trkpt lat="44.72424" lon="3.86059">
        <ele>934.3</ele>
        <time>2021-08-09T10:41:10Z</time>
      </trkpt>
      <trkpt lat="44.72424" lon="3.86059">
        <ele>934.3</ele>
        <time>2021-08-09T10:41:12Z</time>
      </trkpt>
      <trkpt lat="44.72424" lon="3.86059">
        <ele>934.3</ele>
        <time>2021-08-09T10:41:14Z</time>
      </trkpt>
      <trkpt lat="44.72424" lon="3.86059">
        <ele>934.3</ele>
        <time>2021-08-09T10:41:16Z</time>
      </trkpt>
      <trkpt lat="44.72424" lon="3.86059">
        <ele>934.3</ele>
        <time>2021-08-09T10:41:18Z</time>
      </trkpt>
      <trkpt lat="44.72425" lon="3.8606">
        <ele>934.3</ele>
        <time>2021-08-09T10:41:52Z</time>
      </trkpt>
      <trkpt lat="44.72425" lon="3.8606">
        <ele>934.2</ele>
        <time>2021-08-09T10:41:54Z</time>
      </trkpt>
      <trkpt lat="44.72425" lon="3.8606">
        <ele>934.3</ele>
        <time>2021-08-09T10:41:56Z</time>
      </trkpt>
      <trkpt lat="44.72426" lon="3.86056">
        <ele>934.3</ele>
        <time>2021-08-09T10:41:58Z</time>
      </trkpt>
      <trkpt lat="44.72427" lon="3.86051">
        <ele>934.3</ele>
        <time>2021-08-09T10:42:00Z</time>
      </trkpt>
      <trkpt lat="44.72424" lon="3.86046">
        <ele>934.4</ele>
        <time>2021-08-09T10:42:02Z</time>
      </trkpt>
      <trkpt lat="44.72419" lon="3.86044">
        <ele>934.5</ele>
        <time>2021-08-09T10:42:04Z</time>
      </trkpt>
      <trkpt lat="44.72415" lon="3.86041">
        <ele>934.6</ele>
        <time>2021-08-09T10:42:06Z</time>
      </trkpt>
      <trkpt lat="44.72412" lon="3.86038">
        <ele>934.8</ele>
        <time>2021-08-09T10:42:08Z</time>
      </trkpt>
      <trkpt lat="44.7241" lon="3.86034">
        <ele>934.9</ele>
        <time>2021-08-09T10:42:10Z</time>
      </trkpt>
      <trkpt lat="44.72408" lon="3.86033">
        <ele>935</ele>
        <time>2021-08-09T10:42:12Z</time>
      </trkpt>
      <trkpt lat="44.72408" lon="3.86033">
        <ele>935</ele>
        <time>2021-08-09T10:42:14Z</time>
      </trkpt>
      <trkpt lat="44.72408" lon="3.86033">
        <ele>935</ele>
        <time>2021-08-09T10:42:16Z</time>
      </trkpt>
      <trkpt lat="44.72408" lon="3.86033">
        <ele>935</ele>
        <time>2021-08-09T10:42:18Z</time>
      </trkpt>
      <trkpt lat="44.72408" lon="3.86033">
        <ele>935</ele>
        <time>2021-08-09T10:42:20Z</time>
      </trkpt>
      <trkpt lat="44.72391" lon="3.86031">
        <ele>935.9</ele>
        <time>2021-08-09T10:43:24Z</time>
      </trkpt>
      <trkpt lat="44.72385" lon="3.86027">
        <ele>936.2</ele>
        <time>2021-08-09T10:43:26Z</time>
      </trkpt>
      <trkpt lat="44.72379" lon="3.86025">
        <ele>936.5</ele>
        <time>2021-08-09T10:43:28Z</time>
      </trkpt>
      <trkpt lat="44.72373" lon="3.86022">
        <ele>936.8</ele>
        <time>2021-08-09T10:43:30Z</time>
      </trkpt>
      <trkpt lat="44.72367" lon="3.8602">
        <ele>937.1</ele>
        <time>2021-08-09T10:43:32Z</time>
      </trkpt>
      <trkpt lat="44.72362" lon="3.86017">
        <ele>937.4</ele>
        <time>2021-08-09T10:43:34Z</time>
      </trkpt>
      <trkpt lat="44.72356" lon="3.86015">
        <ele>937.7</ele>
        <time>2021-08-09T10:43:36Z</time>
      </trkpt>
      <trkpt lat="44.72351" lon="3.86012">
        <ele>938</ele>
        <time>2021-08-09T10:43:38Z</time>
      </trkpt>
      <trkpt lat="44.72346" lon="3.86008">
        <ele>938.3</ele>
        <time>2021-08-09T10:43:40Z</time>
      </trkpt>
      <trkpt lat="44.72341" lon="3.86004">
        <ele>938.6</ele>
        <time>2021-08-09T10:43:42Z</time>
      </trkpt>
      <trkpt lat="44.72335" lon="3.86">
        <ele>938.9</ele>
        <time>2021-08-09T10:43:44Z</time>
      </trkpt>
      <trkpt lat="44.7233" lon="3.85995">
        <ele>939.1</ele>
        <time>2021-08-09T10:43:46Z</time>
      </trkpt>
      <trkpt lat="44.72326" lon="3.85991">
        <ele>939.3</ele>
        <time>2021-08-09T10:43:48Z</time>
      </trkpt>
      <trkpt lat="44.72322" lon="3.85986">
        <ele>939.5</ele>
        <time>2021-08-09T10:43:50Z</time>
      </trkpt>
      <trkpt lat="44.72317" lon="3.85982">
        <ele>939.7</ele>
        <time>2021-08-09T10:43:52Z</time>
      </trkpt>
      <trkpt lat="44.72312" lon="3.85978">
        <ele>939.9</ele>
        <time>2021-08-09T10:43:54Z</time>
      </trkpt>
      <trkpt lat="44.72308" lon="3.85972">
        <ele>940</ele>
        <time>2021-08-09T10:43:56Z</time>
      </trkpt>
      <trkpt lat="44.72304" lon="3.85968">
        <ele>940.2</ele>
        <time>2021-08-09T10:43:58Z</time>
      </trkpt>
      <trkpt lat="44.723" lon="3.85963">
        <ele>940.3</ele>
        <time>2021-08-09T10:44:00Z</time>
      </trkpt>
      <trkpt lat="44.72297" lon="3.85958">
        <ele>940.4</ele>
        <time>2021-08-09T10:44:02Z</time>
      </trkpt>
      <trkpt lat="44.72293" lon="3.85954">
        <ele>940.5</ele>
        <time>2021-08-09T10:44:04Z</time>
      </trkpt>
      <trkpt lat="44.72289" lon="3.8595">
        <ele>940.7</ele>
        <time>2021-08-09T10:44:06Z</time>
      </trkpt>
      <trkpt lat="44.72286" lon="3.85944">
        <ele>940.7</ele>
        <time>2021-08-09T10:44:08Z</time>
      </trkpt>
      <trkpt lat="44.72282" lon="3.85939">
        <ele>940.8</ele>
        <time>2021-08-09T10:44:10Z</time>
      </trkpt>
      <trkpt lat="44.72279" lon="3.85934">
        <ele>940.8</ele>
        <time>2021-08-09T10:44:12Z</time>
      </trkpt>
      <trkpt lat="44.72276" lon="3.85928">
        <ele>940.8</ele>
        <time>2021-08-09T10:44:14Z</time>
      </trkpt>
      <trkpt lat="44.72273" lon="3.85922">
        <ele>940.8</ele>
        <time>2021-08-09T10:44:16Z</time>
      </trkpt>
      <trkpt lat="44.72269" lon="3.85917">
        <ele>940.9</ele>
        <time>2021-08-09T10:44:18Z</time>
      </trkpt>
      <trkpt lat="44.72265" lon="3.85911">
        <ele>941</ele>
        <time>2021-08-09T10:44:20Z</time>
      </trkpt>
      <trkpt lat="44.7226" lon="3.85906">
        <ele>941.1</ele>
        <time>2021-08-09T10:44:22Z</time>
      </trkpt>
      <trkpt lat="44.72256" lon="3.85901">
        <ele>941.3</ele>
        <time>2021-08-09T10:44:24Z</time>
      </trkpt>
      <trkpt lat="44.72251" lon="3.85898">
        <ele>941.5</ele>
        <time>2021-08-09T10:44:26Z</time>
      </trkpt>
      <trkpt lat="44.72246" lon="3.85895">
        <ele>941.6</ele>
        <time>2021-08-09T10:44:28Z</time>
      </trkpt>
      <trkpt lat="44.7224" lon="3.85891">
        <ele>941.7</ele>
        <time>2021-08-09T10:44:30Z</time>
      </trkpt>
      <trkpt lat="44.72234" lon="3.85888">
        <ele>941.8</ele>
        <time>2021-08-09T10:44:32Z</time>
      </trkpt>
      <trkpt lat="44.72229" lon="3.85884">
        <ele>941.8</ele>
        <time>2021-08-09T10:44:34Z</time>
      </trkpt>
      <trkpt lat="44.72222" lon="3.85881">
        <ele>941.9</ele>
        <time>2021-08-09T10:44:36Z</time>
      </trkpt>
      <trkpt lat="44.72216" lon="3.85877">
        <ele>941.9</ele>
        <time>2021-08-09T10:44:38Z</time>
      </trkpt>
      <trkpt lat="44.72209" lon="3.85874">
        <ele>941.9</ele>
        <time>2021-08-09T10:44:40Z</time>
      </trkpt>
      <trkpt lat="44.72202" lon="3.8587">
        <ele>941.9</ele>
        <time>2021-08-09T10:44:42Z</time>
      </trkpt>
      <trkpt lat="44.72195" lon="3.85866">
        <ele>941.8</ele>
        <time>2021-08-09T10:44:44Z</time>
      </trkpt>
      <trkpt lat="44.72187" lon="3.85863">
        <ele>941.8</ele>
        <time>2021-08-09T10:44:46Z</time>
      </trkpt>
      <trkpt lat="44.7218" lon="3.8586">
        <ele>941.7</ele>
        <time>2021-08-09T10:44:48Z</time>
      </trkpt>
      <trkpt lat="44.72173" lon="3.85857">
        <ele>941.7</ele>
        <time>2021-08-09T10:44:50Z</time>
      </trkpt>
      <trkpt lat="44.72167" lon="3.85855">
        <ele>941.5</ele>
        <time>2021-08-09T10:44:52Z</time>
      </trkpt>
      <trkpt lat="44.72161" lon="3.8585">
        <ele>941.2</ele>
        <time>2021-08-09T10:44:54Z</time>
      </trkpt>
      <trkpt lat="44.72155" lon="3.85848">
        <ele>941</ele>
        <time>2021-08-09T10:44:56Z</time>
      </trkpt>
      <trkpt lat="44.72149" lon="3.85846">
        <ele>940.8</ele>
        <time>2021-08-09T10:44:58Z</time>
      </trkpt>
      <trkpt lat="44.72143" lon="3.85845">
        <ele>940.6</ele>
        <time>2021-08-09T10:45:00Z</time>
      </trkpt>
      <trkpt lat="44.72137" lon="3.85844">
        <ele>940.6</ele>
        <time>2021-08-09T10:45:02Z</time>
      </trkpt>
      <trkpt lat="44.72134" lon="3.85844">
        <ele>940.5</ele>
        <time>2021-08-09T10:45:04Z</time>
      </trkpt>
      <trkpt lat="44.72131" lon="3.85844">
        <ele>940.5</ele>
        <time>2021-08-09T10:45:06Z</time>
      </trkpt>
      <trkpt lat="44.72128" lon="3.85845">
        <ele>940.6</ele>
        <time>2021-08-09T10:45:08Z</time>
      </trkpt>
      <trkpt lat="44.72126" lon="3.85844">
        <ele>940.4</ele>
        <time>2021-08-09T10:45:10Z</time>
      </trkpt>
      <trkpt lat="44.72125" lon="3.85842">
        <ele>940.3</ele>
        <time>2021-08-09T10:45:12Z</time>
      </trkpt>
      <trkpt lat="44.72125" lon="3.85842">
        <ele>940.3</ele>
        <time>2021-08-09T10:45:14Z</time>
      </trkpt>
      <trkpt lat="44.72125" lon="3.85842">
        <ele>940.3</ele>
        <time>2021-08-09T10:45:16Z</time>
      </trkpt>
      <trkpt lat="44.72125" lon="3.85842">
        <ele>940.3</ele>
        <time>2021-08-09T10:45:18Z</time>
      </trkpt>
      <trkpt lat="44.72111" lon="3.85842">
        <ele>940.2</ele>
        <time>2021-08-09T10:45:34Z</time>
      </trkpt>
      <trkpt lat="44.72106" lon="3.85842">
        <ele>940.1</ele>
        <time>2021-08-09T10:45:36Z</time>
      </trkpt>
      <trkpt lat="44.72099" lon="3.85841">
        <ele>940</ele>
        <time>2021-08-09T10:45:38Z</time>
      </trkpt>
      <trkpt lat="44.72092" lon="3.8584">
        <ele>939.9</ele>
        <time>2021-08-09T10:45:40Z</time>
      </trkpt>
      <trkpt lat="44.72085" lon="3.85839">
        <ele>939.6</ele>
        <time>2021-08-09T10:45:42Z</time>
      </trkpt>
      <trkpt lat="44.72079" lon="3.8584">
        <ele>939.9</ele>
        <time>2021-08-09T10:45:44Z</time>
      </trkpt>
      <trkpt lat="44.72072" lon="3.85842">
        <ele>940.3</ele>
        <time>2021-08-09T10:45:46Z</time>
      </trkpt>
      <trkpt lat="44.72066" lon="3.85839">
        <ele>940.4</ele>
        <time>2021-08-09T10:45:48Z</time>
      </trkpt>
      <trkpt lat="44.7206" lon="3.85836">
        <ele>940.3</ele>
        <time>2021-08-09T10:45:50Z</time>
      </trkpt>
      <trkpt lat="44.72055" lon="3.85833">
        <ele>940.3</ele>
        <time>2021-08-09T10:45:52Z</time>
      </trkpt>
      <trkpt lat="44.72051" lon="3.85831">
        <ele>940.6</ele>
        <time>2021-08-09T10:45:54Z</time>
      </trkpt>
      <trkpt lat="44.72046" lon="3.85829">
        <ele>940.8</ele>
        <time>2021-08-09T10:45:56Z</time>
      </trkpt>
      <trkpt lat="44.72042" lon="3.85826">
        <ele>941.1</ele>
        <time>2021-08-09T10:45:58Z</time>
      </trkpt>
      <trkpt lat="44.72037" lon="3.85824">
        <ele>941.3</ele>
        <time>2021-08-09T10:46:00Z</time>
      </trkpt>
      <trkpt lat="44.72033" lon="3.85821">
        <ele>941.6</ele>
        <time>2021-08-09T10:46:02Z</time>
      </trkpt>
      <trkpt lat="44.72029" lon="3.85818">
        <ele>941.8</ele>
        <time>2021-08-09T10:46:04Z</time>
      </trkpt>
      <trkpt lat="44.72025" lon="3.85816">
        <ele>942.1</ele>
        <time>2021-08-09T10:46:06Z</time>
      </trkpt>
      <trkpt lat="44.72021" lon="3.85812">
        <ele>942.3</ele>
        <time>2021-08-09T10:46:08Z</time>
      </trkpt>
      <trkpt lat="44.72018" lon="3.8581">
        <ele>942.6</ele>
        <time>2021-08-09T10:46:10Z</time>
      </trkpt>
      <trkpt lat="44.72015" lon="3.85806">
        <ele>942.8</ele>
        <time>2021-08-09T10:46:12Z</time>
      </trkpt>
      <trkpt lat="44.72011" lon="3.85803">
        <ele>943.1</ele>
        <time>2021-08-09T10:46:14Z</time>
      </trkpt>
      <trkpt lat="44.72008" lon="3.85801">
        <ele>943.3</ele>
        <time>2021-08-09T10:46:16Z</time>
      </trkpt>
      <trkpt lat="44.72004" lon="3.85798">
        <ele>943.6</ele>
        <time>2021-08-09T10:46:18Z</time>
      </trkpt>
      <trkpt lat="44.72001" lon="3.85795">
        <ele>943.9</ele>
        <time>2021-08-09T10:46:20Z</time>
      </trkpt>
      <trkpt lat="44.71997" lon="3.85792">
        <ele>944.2</ele>
        <time>2021-08-09T10:46:22Z</time>
      </trkpt>
      <trkpt lat="44.71993" lon="3.85789">
        <ele>944.4</ele>
        <time>2021-08-09T10:46:24Z</time>
      </trkpt>
      <trkpt lat="44.71989" lon="3.85786">
        <ele>944.7</ele>
        <time>2021-08-09T10:46:26Z</time>
      </trkpt>
      <trkpt lat="44.71985" lon="3.85783">
        <ele>944.9</ele>
        <time>2021-08-09T10:46:28Z</time>
      </trkpt>
      <trkpt lat="44.71981" lon="3.8578">
        <ele>945.2</ele>
        <time>2021-08-09T10:46:30Z</time>
      </trkpt>
      <trkpt lat="44.71977" lon="3.85778">
        <ele>945.4</ele>
        <time>2021-08-09T10:46:32Z</time>
      </trkpt>
      <trkpt lat="44.71973" lon="3.85775">
        <ele>945.6</ele>
        <time>2021-08-09T10:46:34Z</time>
      </trkpt>
      <trkpt lat="44.7197" lon="3.85772">
        <ele>945.9</ele>
        <time>2021-08-09T10:46:36Z</time>
      </trkpt>
      <trkpt lat="44.71965" lon="3.85769">
        <ele>946.1</ele>
        <time>2021-08-09T10:46:38Z</time>
      </trkpt>
      <trkpt lat="44.71961" lon="3.85766">
        <ele>946.3</ele>
        <time>2021-08-09T10:46:40Z</time>
      </trkpt>
      <trkpt lat="44.71958" lon="3.85763">
        <ele>946.5</ele>
        <time>2021-08-09T10:46:42Z</time>
      </trkpt>
      <trkpt lat="44.71954" lon="3.85759">
        <ele>946.6</ele>
        <time>2021-08-09T10:46:44Z</time>
      </trkpt>
      <trkpt lat="44.71951" lon="3.85755">
        <ele>946.8</ele>
        <time>2021-08-09T10:46:46Z</time>
      </trkpt>
      <trkpt lat="44.71947" lon="3.85751">
        <ele>946.9</ele>
        <time>2021-08-09T10:46:48Z</time>
      </trkpt>
      <trkpt lat="44.71943" lon="3.85748">
        <ele>947.1</ele>
        <time>2021-08-09T10:46:50Z</time>
      </trkpt>
      <trkpt lat="44.71939" lon="3.85745">
        <ele>947.2</ele>
        <time>2021-08-09T10:46:52Z</time>
      </trkpt>
      <trkpt lat="44.71935" lon="3.85742">
        <ele>947.4</ele>
        <time>2021-08-09T10:46:54Z</time>
      </trkpt>
      <trkpt lat="44.71931" lon="3.85739">
        <ele>947.5</ele>
        <time>2021-08-09T10:46:56Z</time>
      </trkpt>
      <trkpt lat="44.71927" lon="3.85736">
        <ele>947.6</ele>
        <time>2021-08-09T10:46:58Z</time>
      </trkpt>
      <trkpt lat="44.71923" lon="3.85733">
        <ele>947.8</ele>
        <time>2021-08-09T10:47:00Z</time>
      </trkpt>
      <trkpt lat="44.71919" lon="3.8573">
        <ele>947.9</ele>
        <time>2021-08-09T10:47:02Z</time>
      </trkpt>
      <trkpt lat="44.71915" lon="3.85728">
        <ele>948.1</ele>
        <time>2021-08-09T10:47:04Z</time>
      </trkpt>
      <trkpt lat="44.71911" lon="3.85725">
        <ele>948.3</ele>
        <time>2021-08-09T10:47:06Z</time>
      </trkpt>
      <trkpt lat="44.71907" lon="3.85722">
        <ele>948.5</ele>
        <time>2021-08-09T10:47:08Z</time>
      </trkpt>
      <trkpt lat="44.71903" lon="3.85719">
        <ele>948.8</ele>
        <time>2021-08-09T10:47:10Z</time>
      </trkpt>
      <trkpt lat="44.71899" lon="3.85717">
        <ele>949</ele>
        <time>2021-08-09T10:47:12Z</time>
      </trkpt>
      <trkpt lat="44.71895" lon="3.85715">
        <ele>949.2</ele>
        <time>2021-08-09T10:47:14Z</time>
      </trkpt>
      <trkpt lat="44.7189" lon="3.85712">
        <ele>949.4</ele>
        <time>2021-08-09T10:47:16Z</time>
      </trkpt>
      <trkpt lat="44.71886" lon="3.85709">
        <ele>949.6</ele>
        <time>2021-08-09T10:47:18Z</time>
      </trkpt>
      <trkpt lat="44.71882" lon="3.85707">
        <ele>949.9</ele>
        <time>2021-08-09T10:47:20Z</time>
      </trkpt>
      <trkpt lat="44.71878" lon="3.85704">
        <ele>950.1</ele>
        <time>2021-08-09T10:47:22Z</time>
      </trkpt>
      <trkpt lat="44.71874" lon="3.85702">
        <ele>950.2</ele>
        <time>2021-08-09T10:47:24Z</time>
      </trkpt>
      <trkpt lat="44.7187" lon="3.857">
        <ele>950.5</ele>
        <time>2021-08-09T10:47:26Z</time>
      </trkpt>
      <trkpt lat="44.71866" lon="3.85699">
        <ele>950.7</ele>
        <time>2021-08-09T10:47:28Z</time>
      </trkpt>
      <trkpt lat="44.71862" lon="3.85697">
        <ele>950.9</ele>
        <time>2021-08-09T10:47:30Z</time>
      </trkpt>
      <trkpt lat="44.71857" lon="3.85695">
        <ele>951.1</ele>
        <time>2021-08-09T10:47:32Z</time>
      </trkpt>
      <trkpt lat="44.71853" lon="3.85693">
        <ele>951.3</ele>
        <time>2021-08-09T10:47:34Z</time>
      </trkpt>
      <trkpt lat="44.71849" lon="3.85691">
        <ele>951.5</ele>
        <time>2021-08-09T10:47:36Z</time>
      </trkpt>
      <trkpt lat="44.71845" lon="3.85689">
        <ele>951.7</ele>
        <time>2021-08-09T10:47:38Z</time>
      </trkpt>
      <trkpt lat="44.7184" lon="3.85687">
        <ele>951.9</ele>
        <time>2021-08-09T10:47:40Z</time>
      </trkpt>
      <trkpt lat="44.71836" lon="3.85685">
        <ele>952.1</ele>
        <time>2021-08-09T10:47:42Z</time>
      </trkpt>
      <trkpt lat="44.71832" lon="3.85683">
        <ele>952.3</ele>
        <time>2021-08-09T10:47:44Z</time>
      </trkpt>
      <trkpt lat="44.71827" lon="3.85682">
        <ele>952.6</ele>
        <time>2021-08-09T10:47:46Z</time>
      </trkpt>
      <trkpt lat="44.71823" lon="3.8568">
        <ele>952.8</ele>
        <time>2021-08-09T10:47:48Z</time>
      </trkpt>
      <trkpt lat="44.71818" lon="3.85678">
        <ele>953</ele>
        <time>2021-08-09T10:47:50Z</time>
      </trkpt>
      <trkpt lat="44.71814" lon="3.85676">
        <ele>953.3</ele>
        <time>2021-08-09T10:47:52Z</time>
      </trkpt>
      <trkpt lat="44.7181" lon="3.85674">
        <ele>953.5</ele>
        <time>2021-08-09T10:47:54Z</time>
      </trkpt>
      <trkpt lat="44.71806" lon="3.85672">
        <ele>953.8</ele>
        <time>2021-08-09T10:47:56Z</time>
      </trkpt>
      <trkpt lat="44.71802" lon="3.8567">
        <ele>954</ele>
        <time>2021-08-09T10:47:58Z</time>
      </trkpt>
      <trkpt lat="44.71798" lon="3.85668">
        <ele>954.2</ele>
        <time>2021-08-09T10:48:00Z</time>
      </trkpt>
      <trkpt lat="44.71793" lon="3.85665">
        <ele>954.4</ele>
        <time>2021-08-09T10:48:02Z</time>
      </trkpt>
      <trkpt lat="44.71789" lon="3.85663">
        <ele>954.6</ele>
        <time>2021-08-09T10:48:04Z</time>
      </trkpt>
      <trkpt lat="44.71785" lon="3.85661">
        <ele>954.8</ele>
        <time>2021-08-09T10:48:06Z</time>
      </trkpt>
      <trkpt lat="44.71781" lon="3.85659">
        <ele>955</ele>
        <time>2021-08-09T10:48:08Z</time>
      </trkpt>
      <trkpt lat="44.71777" lon="3.85657">
        <ele>955.2</ele>
        <time>2021-08-09T10:48:10Z</time>
      </trkpt>
      <trkpt lat="44.71773" lon="3.85654">
        <ele>955.3</ele>
        <time>2021-08-09T10:48:12Z</time>
      </trkpt>
      <trkpt lat="44.7177" lon="3.85652">
        <ele>955.5</ele>
        <time>2021-08-09T10:48:14Z</time>
      </trkpt>
      <trkpt lat="44.71765" lon="3.8565">
        <ele>955.7</ele>
        <time>2021-08-09T10:48:16Z</time>
      </trkpt>
      <trkpt lat="44.71761" lon="3.85647">
        <ele>955.9</ele>
        <time>2021-08-09T10:48:18Z</time>
      </trkpt>
      <trkpt lat="44.71757" lon="3.85644">
        <ele>956</ele>
        <time>2021-08-09T10:48:20Z</time>
      </trkpt>
      <trkpt lat="44.71754" lon="3.85641">
        <ele>956.2</ele>
        <time>2021-08-09T10:48:22Z</time>
      </trkpt>
      <trkpt lat="44.7175" lon="3.85638">
        <ele>956.3</ele>
        <time>2021-08-09T10:48:24Z</time>
      </trkpt>
      <trkpt lat="44.71747" lon="3.85634">
        <ele>956.4</ele>
        <time>2021-08-09T10:48:26Z</time>
      </trkpt>
      <trkpt lat="44.71743" lon="3.85631">
        <ele>956.6</ele>
        <time>2021-08-09T10:48:28Z</time>
      </trkpt>
      <trkpt lat="44.7174" lon="3.85628">
        <ele>956.7</ele>
        <time>2021-08-09T10:48:30Z</time>
      </trkpt>
      <trkpt lat="44.71736" lon="3.85625">
        <ele>956.8</ele>
        <time>2021-08-09T10:48:32Z</time>
      </trkpt>
      <trkpt lat="44.71733" lon="3.85621">
        <ele>957</ele>
        <time>2021-08-09T10:48:34Z</time>
      </trkpt>
      <trkpt lat="44.7173" lon="3.85618">
        <ele>957.1</ele>
        <time>2021-08-09T10:48:36Z</time>
      </trkpt>
      <trkpt lat="44.71727" lon="3.85615">
        <ele>957.1</ele>
        <time>2021-08-09T10:48:38Z</time>
      </trkpt>
      <trkpt lat="44.71726" lon="3.85609">
        <ele>957.1</ele>
        <time>2021-08-09T10:48:40Z</time>
      </trkpt>
      <trkpt lat="44.71723" lon="3.85604">
        <ele>957.1</ele>
        <time>2021-08-09T10:48:42Z</time>
      </trkpt>
      <trkpt lat="44.71718" lon="3.856">
        <ele>957.3</ele>
        <time>2021-08-09T10:48:44Z</time>
      </trkpt>
      <trkpt lat="44.71713" lon="3.85598">
        <ele>957.6</ele>
        <time>2021-08-09T10:48:46Z</time>
      </trkpt>
      <trkpt lat="44.71707" lon="3.85598">
        <ele>957.9</ele>
        <time>2021-08-09T10:48:48Z</time>
      </trkpt>
      <trkpt lat="44.71702" lon="3.85598">
        <ele>958.3</ele>
        <time>2021-08-09T10:48:50Z</time>
      </trkpt>
      <trkpt lat="44.71696" lon="3.85598">
        <ele>958.6</ele>
        <time>2021-08-09T10:48:52Z</time>
      </trkpt>
      <trkpt lat="44.71691" lon="3.85598">
        <ele>958.9</ele>
        <time>2021-08-09T10:48:54Z</time>
      </trkpt>
      <trkpt lat="44.71685" lon="3.85599">
        <ele>959.3</ele>
        <time>2021-08-09T10:48:56Z</time>
      </trkpt>
      <trkpt lat="44.7168" lon="3.85599">
        <ele>959.6</ele>
        <time>2021-08-09T10:48:58Z</time>
      </trkpt>
      <trkpt lat="44.71675" lon="3.85599">
        <ele>959.9</ele>
        <time>2021-08-09T10:49:00Z</time>
      </trkpt>
      <trkpt lat="44.71669" lon="3.85599">
        <ele>960.2</ele>
        <time>2021-08-09T10:49:02Z</time>
      </trkpt>
      <trkpt lat="44.71664" lon="3.85598">
        <ele>960.5</ele>
        <time>2021-08-09T10:49:04Z</time>
      </trkpt>
      <trkpt lat="44.71658" lon="3.85598">
        <ele>960.6</ele>
        <time>2021-08-09T10:49:06Z</time>
      </trkpt>
      <trkpt lat="44.71653" lon="3.85596">
        <ele>960.8</ele>
        <time>2021-08-09T10:49:08Z</time>
      </trkpt>
      <trkpt lat="44.71647" lon="3.85594">
        <ele>960.9</ele>
        <time>2021-08-09T10:49:10Z</time>
      </trkpt>
      <trkpt lat="44.71642" lon="3.8559">
        <ele>961</ele>
        <time>2021-08-09T10:49:12Z</time>
      </trkpt>
      <trkpt lat="44.71637" lon="3.85585">
        <ele>961.1</ele>
        <time>2021-08-09T10:49:14Z</time>
      </trkpt>
      <trkpt lat="44.71632" lon="3.8558">
        <ele>961.2</ele>
        <time>2021-08-09T10:49:16Z</time>
      </trkpt>
      <trkpt lat="44.71627" lon="3.85574">
        <ele>961.4</ele>
        <time>2021-08-09T10:49:18Z</time>
      </trkpt>
      <trkpt lat="44.71622" lon="3.85568">
        <ele>961.5</ele>
        <time>2021-08-09T10:49:20Z</time>
      </trkpt>
      <trkpt lat="44.71618" lon="3.8556">
        <ele>961.7</ele>
        <time>2021-08-09T10:49:22Z</time>
      </trkpt>
      <trkpt lat="44.71614" lon="3.85553">
        <ele>961.9</ele>
        <time>2021-08-09T10:49:24Z</time>
      </trkpt>
      <trkpt lat="44.71611" lon="3.85546">
        <ele>962.1</ele>
        <time>2021-08-09T10:49:26Z</time>
      </trkpt>
      <trkpt lat="44.71607" lon="3.85538">
        <ele>962.4</ele>
        <time>2021-08-09T10:49:28Z</time>
      </trkpt>
      <trkpt lat="44.71604" lon="3.8553">
        <ele>962.7</ele>
        <time>2021-08-09T10:49:30Z</time>
      </trkpt>
      <trkpt lat="44.71601" lon="3.85522">
        <ele>963</ele>
        <time>2021-08-09T10:49:32Z</time>
      </trkpt>
      <trkpt lat="44.71598" lon="3.85514">
        <ele>963.4</ele>
        <time>2021-08-09T10:49:34Z</time>
      </trkpt>
      <trkpt lat="44.71594" lon="3.85507">
        <ele>963.8</ele>
        <time>2021-08-09T10:49:36Z</time>
      </trkpt>
      <trkpt lat="44.71591" lon="3.855">
        <ele>964.2</ele>
        <time>2021-08-09T10:49:38Z</time>
      </trkpt>
      <trkpt lat="44.71588" lon="3.85493">
        <ele>964.4</ele>
        <time>2021-08-09T10:49:40Z</time>
      </trkpt>
      <trkpt lat="44.71585" lon="3.85487">
        <ele>964.7</ele>
        <time>2021-08-09T10:49:42Z</time>
      </trkpt>
      <trkpt lat="44.71582" lon="3.85481">
        <ele>964.8</ele>
        <time>2021-08-09T10:49:44Z</time>
      </trkpt>
      <trkpt lat="44.71579" lon="3.85475">
        <ele>964.8</ele>
        <time>2021-08-09T10:49:46Z</time>
      </trkpt>
      <trkpt lat="44.71576" lon="3.8547">
        <ele>964.9</ele>
        <time>2021-08-09T10:49:48Z</time>
      </trkpt>
      <trkpt lat="44.71573" lon="3.85464">
        <ele>965</ele>
        <time>2021-08-09T10:49:50Z</time>
      </trkpt>
      <trkpt lat="44.7157" lon="3.85459">
        <ele>965.1</ele>
        <time>2021-08-09T10:49:52Z</time>
      </trkpt>
      <trkpt lat="44.71567" lon="3.85454">
        <ele>965.2</ele>
        <time>2021-08-09T10:49:54Z</time>
      </trkpt>
      <trkpt lat="44.71564" lon="3.85448">
        <ele>965.3</ele>
        <time>2021-08-09T10:49:56Z</time>
      </trkpt>
      <trkpt lat="44.7156" lon="3.85443">
        <ele>965.4</ele>
        <time>2021-08-09T10:49:58Z</time>
      </trkpt>
      <trkpt lat="44.71557" lon="3.85438">
        <ele>965.6</ele>
        <time>2021-08-09T10:50:00Z</time>
      </trkpt>
      <trkpt lat="44.71553" lon="3.85434">
        <ele>965.8</ele>
        <time>2021-08-09T10:50:02Z</time>
      </trkpt>
      <trkpt lat="44.7155" lon="3.85429">
        <ele>966</ele>
        <time>2021-08-09T10:50:04Z</time>
      </trkpt>
      <trkpt lat="44.71547" lon="3.85425">
        <ele>966.2</ele>
        <time>2021-08-09T10:50:06Z</time>
      </trkpt>
      <trkpt lat="44.71543" lon="3.8542">
        <ele>966.4</ele>
        <time>2021-08-09T10:50:08Z</time>
      </trkpt>
      <trkpt lat="44.7154" lon="3.85416">
        <ele>966.6</ele>
        <time>2021-08-09T10:50:10Z</time>
      </trkpt>
      <trkpt lat="44.71537" lon="3.85412">
        <ele>966.9</ele>
        <time>2021-08-09T10:50:12Z</time>
      </trkpt>
      <trkpt lat="44.71534" lon="3.85408">
        <ele>967.3</ele>
        <time>2021-08-09T10:50:14Z</time>
      </trkpt>
      <trkpt lat="44.71531" lon="3.85404">
        <ele>967.5</ele>
        <time>2021-08-09T10:50:16Z</time>
      </trkpt>
      <trkpt lat="44.71528" lon="3.85399">
        <ele>967.9</ele>
        <time>2021-08-09T10:50:18Z</time>
      </trkpt>
      <trkpt lat="44.71525" lon="3.85394">
        <ele>968.2</ele>
        <time>2021-08-09T10:50:20Z</time>
      </trkpt>
      <trkpt lat="44.71521" lon="3.8539">
        <ele>968.6</ele>
        <time>2021-08-09T10:50:22Z</time>
      </trkpt>
      <trkpt lat="44.71519" lon="3.85384">
        <ele>968.9</ele>
        <time>2021-08-09T10:50:24Z</time>
      </trkpt>
      <trkpt lat="44.71516" lon="3.8538">
        <ele>969.3</ele>
        <time>2021-08-09T10:50:26Z</time>
      </trkpt>
      <trkpt lat="44.71514" lon="3.85374">
        <ele>969.6</ele>
        <time>2021-08-09T10:50:28Z</time>
      </trkpt>
      <trkpt lat="44.71511" lon="3.85369">
        <ele>970</ele>
        <time>2021-08-09T10:50:30Z</time>
      </trkpt>
      <trkpt lat="44.71508" lon="3.85366">
        <ele>970.3</ele>
        <time>2021-08-09T10:50:32Z</time>
      </trkpt>
      <trkpt lat="44.71505" lon="3.85361">
        <ele>970.6</ele>
        <time>2021-08-09T10:50:34Z</time>
      </trkpt>
      <trkpt lat="44.71503" lon="3.85357">
        <ele>971</ele>
        <time>2021-08-09T10:50:36Z</time>
      </trkpt>
      <trkpt lat="44.71499" lon="3.85353">
        <ele>971.3</ele>
        <time>2021-08-09T10:50:38Z</time>
      </trkpt>
      <trkpt lat="44.71497" lon="3.85348">
        <ele>971.5</ele>
        <time>2021-08-09T10:50:40Z</time>
      </trkpt>
      <trkpt lat="44.71493" lon="3.85344">
        <ele>971.7</ele>
        <time>2021-08-09T10:50:42Z</time>
      </trkpt>
      <trkpt lat="44.7149" lon="3.85341">
        <ele>971.8</ele>
        <time>2021-08-09T10:50:44Z</time>
      </trkpt>
      <trkpt lat="44.71487" lon="3.85336">
        <ele>972</ele>
        <time>2021-08-09T10:50:46Z</time>
      </trkpt>
      <trkpt lat="44.71484" lon="3.85332">
        <ele>972.2</ele>
        <time>2021-08-09T10:50:48Z</time>
      </trkpt>
      <trkpt lat="44.7148" lon="3.85328">
        <ele>972.3</ele>
        <time>2021-08-09T10:50:50Z</time>
      </trkpt>
      <trkpt lat="44.71477" lon="3.85324">
        <ele>972.4</ele>
        <time>2021-08-09T10:50:52Z</time>
      </trkpt>
      <trkpt lat="44.71474" lon="3.8532">
        <ele>972.6</ele>
        <time>2021-08-09T10:50:54Z</time>
      </trkpt>
      <trkpt lat="44.71471" lon="3.85317">
        <ele>972.7</ele>
        <time>2021-08-09T10:50:56Z</time>
      </trkpt>
      <trkpt lat="44.71467" lon="3.85313">
        <ele>972.8</ele>
        <time>2021-08-09T10:50:58Z</time>
      </trkpt>
      <trkpt lat="44.71464" lon="3.8531">
        <ele>973</ele>
        <time>2021-08-09T10:51:00Z</time>
      </trkpt>
      <trkpt lat="44.7146" lon="3.85307">
        <ele>973.1</ele>
        <time>2021-08-09T10:51:02Z</time>
      </trkpt>
      <trkpt lat="44.71457" lon="3.85304">
        <ele>973.2</ele>
        <time>2021-08-09T10:51:04Z</time>
      </trkpt>
      <trkpt lat="44.71453" lon="3.853">
        <ele>973.4</ele>
        <time>2021-08-09T10:51:06Z</time>
      </trkpt>
      <trkpt lat="44.71449" lon="3.85297">
        <ele>973.6</ele>
        <time>2021-08-09T10:51:08Z</time>
      </trkpt>
      <trkpt lat="44.71445" lon="3.85293">
        <ele>973.8</ele>
        <time>2021-08-09T10:51:10Z</time>
      </trkpt>
      <trkpt lat="44.71441" lon="3.8529">
        <ele>974</ele>
        <time>2021-08-09T10:51:12Z</time>
      </trkpt>
      <trkpt lat="44.71437" lon="3.85287">
        <ele>974.2</ele>
        <time>2021-08-09T10:51:14Z</time>
      </trkpt>
      <trkpt lat="44.71433" lon="3.85284">
        <ele>974.4</ele>
        <time>2021-08-09T10:51:16Z</time>
      </trkpt>
      <trkpt lat="44.71429" lon="3.85281">
        <ele>974.6</ele>
        <time>2021-08-09T10:51:18Z</time>
      </trkpt>
      <trkpt lat="44.71425" lon="3.85278">
        <ele>974.8</ele>
        <time>2021-08-09T10:51:20Z</time>
      </trkpt>
      <trkpt lat="44.71421" lon="3.85275">
        <ele>975</ele>
        <time>2021-08-09T10:51:22Z</time>
      </trkpt>
      <trkpt lat="44.71417" lon="3.85272">
        <ele>975.2</ele>
        <time>2021-08-09T10:51:24Z</time>
      </trkpt>
      <trkpt lat="44.71413" lon="3.85269">
        <ele>975.5</ele>
        <time>2021-08-09T10:51:26Z</time>
      </trkpt>
      <trkpt lat="44.7141" lon="3.85265">
        <ele>975.7</ele>
        <time>2021-08-09T10:51:28Z</time>
      </trkpt>
      <trkpt lat="44.71406" lon="3.85262">
        <ele>976</ele>
        <time>2021-08-09T10:51:30Z</time>
      </trkpt>
      <trkpt lat="44.71403" lon="3.85259">
        <ele>976.3</ele>
        <time>2021-08-09T10:51:32Z</time>
      </trkpt>
      <trkpt lat="44.71399" lon="3.85256">
        <ele>976.6</ele>
        <time>2021-08-09T10:51:34Z</time>
      </trkpt>
      <trkpt lat="44.71395" lon="3.85252">
        <ele>976.9</ele>
        <time>2021-08-09T10:51:36Z</time>
      </trkpt>
      <trkpt lat="44.71391" lon="3.85249">
        <ele>977.3</ele>
        <time>2021-08-09T10:51:38Z</time>
      </trkpt>
      <trkpt lat="44.71387" lon="3.85246">
        <ele>977.6</ele>
        <time>2021-08-09T10:51:40Z</time>
      </trkpt>
      <trkpt lat="44.71384" lon="3.85243">
        <ele>978</ele>
        <time>2021-08-09T10:51:42Z</time>
      </trkpt>
      <trkpt lat="44.7138" lon="3.8524">
        <ele>978.4</ele>
        <time>2021-08-09T10:51:44Z</time>
      </trkpt>
      <trkpt lat="44.71376" lon="3.85236">
        <ele>978.8</ele>
        <time>2021-08-09T10:51:46Z</time>
      </trkpt>
      <trkpt lat="44.71372" lon="3.85233">
        <ele>979.2</ele>
        <time>2021-08-09T10:51:48Z</time>
      </trkpt>
      <trkpt lat="44.71368" lon="3.8523">
        <ele>979.5</ele>
        <time>2021-08-09T10:51:50Z</time>
      </trkpt>
      <trkpt lat="44.71365" lon="3.85226">
        <ele>979.9</ele>
        <time>2021-08-09T10:51:52Z</time>
      </trkpt>
      <trkpt lat="44.71362" lon="3.85222">
        <ele>980.3</ele>
        <time>2021-08-09T10:51:54Z</time>
      </trkpt>
      <trkpt lat="44.71357" lon="3.85219">
        <ele>980.7</ele>
        <time>2021-08-09T10:51:56Z</time>
      </trkpt>
      <trkpt lat="44.71353" lon="3.85216">
        <ele>981.1</ele>
        <time>2021-08-09T10:51:58Z</time>
      </trkpt>
      <trkpt lat="44.71349" lon="3.85212">
        <ele>981.5</ele>
        <time>2021-08-09T10:52:00Z</time>
      </trkpt>
      <trkpt lat="44.71346" lon="3.85209">
        <ele>981.9</ele>
        <time>2021-08-09T10:52:02Z</time>
      </trkpt>
      <trkpt lat="44.71342" lon="3.85206">
        <ele>982.3</ele>
        <time>2021-08-09T10:52:04Z</time>
      </trkpt>
      <trkpt lat="44.71338" lon="3.85202">
        <ele>982.7</ele>
        <time>2021-08-09T10:52:06Z</time>
      </trkpt>
      <trkpt lat="44.71334" lon="3.85199">
        <ele>983</ele>
        <time>2021-08-09T10:52:08Z</time>
      </trkpt>
      <trkpt lat="44.7133" lon="3.85195">
        <ele>983.3</ele>
        <time>2021-08-09T10:52:10Z</time>
      </trkpt>
      <trkpt lat="44.71326" lon="3.85192">
        <ele>983.5</ele>
        <time>2021-08-09T10:52:12Z</time>
      </trkpt>
      <trkpt lat="44.71323" lon="3.85188">
        <ele>983.7</ele>
        <time>2021-08-09T10:52:14Z</time>
      </trkpt>
      <trkpt lat="44.71319" lon="3.85185">
        <ele>983.9</ele>
        <time>2021-08-09T10:52:16Z</time>
      </trkpt>
      <trkpt lat="44.71316" lon="3.85182">
        <ele>984.1</ele>
        <time>2021-08-09T10:52:18Z</time>
      </trkpt>
      <trkpt lat="44.71312" lon="3.85179">
        <ele>984.3</ele>
        <time>2021-08-09T10:52:20Z</time>
      </trkpt>
      <trkpt lat="44.71308" lon="3.85176">
        <ele>984.5</ele>
        <time>2021-08-09T10:52:22Z</time>
      </trkpt>
      <trkpt lat="44.71304" lon="3.85173">
        <ele>984.7</ele>
        <time>2021-08-09T10:52:24Z</time>
      </trkpt>
      <trkpt lat="44.713" lon="3.8517">
        <ele>984.8</ele>
        <time>2021-08-09T10:52:26Z</time>
      </trkpt>
      <trkpt lat="44.71296" lon="3.85167">
        <ele>985</ele>
        <time>2021-08-09T10:52:28Z</time>
      </trkpt>
      <trkpt lat="44.71293" lon="3.85164">
        <ele>985.1</ele>
        <time>2021-08-09T10:52:30Z</time>
      </trkpt>
      <trkpt lat="44.71289" lon="3.8516">
        <ele>985.3</ele>
        <time>2021-08-09T10:52:32Z</time>
      </trkpt>
      <trkpt lat="44.71285" lon="3.85157">
        <ele>985.4</ele>
        <time>2021-08-09T10:52:34Z</time>
      </trkpt>
      <trkpt lat="44.71282" lon="3.85154">
        <ele>985.6</ele>
        <time>2021-08-09T10:52:36Z</time>
      </trkpt>
      <trkpt lat="44.71278" lon="3.8515">
        <ele>985.8</ele>
        <time>2021-08-09T10:52:38Z</time>
      </trkpt>
      <trkpt lat="44.71275" lon="3.85146">
        <ele>986</ele>
        <time>2021-08-09T10:52:40Z</time>
      </trkpt>
      <trkpt lat="44.71272" lon="3.85142">
        <ele>986.2</ele>
        <time>2021-08-09T10:52:42Z</time>
      </trkpt>
      <trkpt lat="44.71269" lon="3.85138">
        <ele>986.5</ele>
        <time>2021-08-09T10:52:44Z</time>
      </trkpt>
      <trkpt lat="44.71266" lon="3.85134">
        <ele>986.7</ele>
        <time>2021-08-09T10:52:46Z</time>
      </trkpt>
      <trkpt lat="44.71264" lon="3.8513">
        <ele>987</ele>
        <time>2021-08-09T10:52:48Z</time>
      </trkpt>
      <trkpt lat="44.71261" lon="3.85125">
        <ele>987.3</ele>
        <time>2021-08-09T10:52:50Z</time>
      </trkpt>
      <trkpt lat="44.71259" lon="3.85121">
        <ele>987.5</ele>
        <time>2021-08-09T10:52:52Z</time>
      </trkpt>
      <trkpt lat="44.71256" lon="3.85117">
        <ele>987.9</ele>
        <time>2021-08-09T10:52:54Z</time>
      </trkpt>
      <trkpt lat="44.71254" lon="3.85111">
        <ele>988.2</ele>
        <time>2021-08-09T10:52:56Z</time>
      </trkpt>
      <trkpt lat="44.71251" lon="3.85106">
        <ele>988.6</ele>
        <time>2021-08-09T10:52:58Z</time>
      </trkpt>
      <trkpt lat="44.71249" lon="3.851">
        <ele>988.9</ele>
        <time>2021-08-09T10:53:00Z</time>
      </trkpt>
      <trkpt lat="44.71246" lon="3.85094">
        <ele>989.1</ele>
        <time>2021-08-09T10:53:02Z</time>
      </trkpt>
      <trkpt lat="44.71243" lon="3.85088">
        <ele>989.4</ele>
        <time>2021-08-09T10:53:04Z</time>
      </trkpt>
      <trkpt lat="44.7124" lon="3.85083">
        <ele>989.5</ele>
        <time>2021-08-09T10:53:06Z</time>
      </trkpt>
      <trkpt lat="44.71237" lon="3.85077">
        <ele>989.5</ele>
        <time>2021-08-09T10:53:08Z</time>
      </trkpt>
      <trkpt lat="44.71234" lon="3.85071">
        <ele>989.5</ele>
        <time>2021-08-09T10:53:10Z</time>
      </trkpt>
      <trkpt lat="44.71231" lon="3.85064">
        <ele>989.6</ele>
        <time>2021-08-09T10:53:12Z</time>
      </trkpt>
      <trkpt lat="44.71227" lon="3.85057">
        <ele>989.6</ele>
        <time>2021-08-09T10:53:14Z</time>
      </trkpt>
      <trkpt lat="44.71224" lon="3.8505">
        <ele>989.8</ele>
        <time>2021-08-09T10:53:16Z</time>
      </trkpt>
      <trkpt lat="44.7122" lon="3.85043">
        <ele>989.9</ele>
        <time>2021-08-09T10:53:18Z</time>
      </trkpt>
      <trkpt lat="44.71215" lon="3.85036">
        <ele>990.1</ele>
        <time>2021-08-09T10:53:20Z</time>
      </trkpt>
      <trkpt lat="44.71211" lon="3.8503">
        <ele>990.3</ele>
        <time>2021-08-09T10:53:22Z</time>
      </trkpt>
      <trkpt lat="44.71206" lon="3.85022">
        <ele>990.6</ele>
        <time>2021-08-09T10:53:24Z</time>
      </trkpt>
      <trkpt lat="44.71202" lon="3.85015">
        <ele>990.9</ele>
        <time>2021-08-09T10:53:26Z</time>
      </trkpt>
      <trkpt lat="44.71197" lon="3.85009">
        <ele>991.2</ele>
        <time>2021-08-09T10:53:28Z</time>
      </trkpt>
      <trkpt lat="44.71192" lon="3.85003">
        <ele>991.5</ele>
        <time>2021-08-09T10:53:30Z</time>
      </trkpt>
      <trkpt lat="44.71188" lon="3.84998">
        <ele>991.8</ele>
        <time>2021-08-09T10:53:32Z</time>
      </trkpt>
      <trkpt lat="44.71184" lon="3.84993">
        <ele>992.1</ele>
        <time>2021-08-09T10:53:34Z</time>
      </trkpt>
      <trkpt lat="44.71181" lon="3.84989">
        <ele>992.4</ele>
        <time>2021-08-09T10:53:36Z</time>
      </trkpt>
      <trkpt lat="44.71178" lon="3.84985">
        <ele>992.6</ele>
        <time>2021-08-09T10:53:38Z</time>
      </trkpt>
      <trkpt lat="44.71175" lon="3.84982">
        <ele>992.9</ele>
        <time>2021-08-09T10:53:40Z</time>
      </trkpt>
      <trkpt lat="44.71173" lon="3.84978">
        <ele>993.1</ele>
        <time>2021-08-09T10:53:42Z</time>
      </trkpt>
      <trkpt lat="44.71169" lon="3.84976">
        <ele>993.4</ele>
        <time>2021-08-09T10:53:44Z</time>
      </trkpt>
      <trkpt lat="44.71166" lon="3.84972">
        <ele>993.7</ele>
        <time>2021-08-09T10:53:46Z</time>
      </trkpt>
      <trkpt lat="44.71163" lon="3.8497">
        <ele>994.2</ele>
        <time>2021-08-09T10:53:48Z</time>
      </trkpt>
      <trkpt lat="44.71159" lon="3.84968">
        <ele>994.6</ele>
        <time>2021-08-09T10:53:50Z</time>
      </trkpt>
      <trkpt lat="44.71156" lon="3.84966">
        <ele>995</ele>
        <time>2021-08-09T10:53:52Z</time>
      </trkpt>
      <trkpt lat="44.71152" lon="3.84966">
        <ele>995.4</ele>
        <time>2021-08-09T10:53:54Z</time>
      </trkpt>
      <trkpt lat="44.71148" lon="3.84964">
        <ele>995.8</ele>
        <time>2021-08-09T10:53:56Z</time>
      </trkpt>
      <trkpt lat="44.71144" lon="3.84963">
        <ele>996.3</ele>
        <time>2021-08-09T10:53:58Z</time>
      </trkpt>
      <trkpt lat="44.71139" lon="3.84963">
        <ele>996.7</ele>
        <time>2021-08-09T10:54:00Z</time>
      </trkpt>
      <trkpt lat="44.71135" lon="3.84963">
        <ele>997</ele>
        <time>2021-08-09T10:54:02Z</time>
      </trkpt>
      <trkpt lat="44.71131" lon="3.84964">
        <ele>997.4</ele>
        <time>2021-08-09T10:54:04Z</time>
      </trkpt>
      <trkpt lat="44.71127" lon="3.84963">
        <ele>997.8</ele>
        <time>2021-08-09T10:54:06Z</time>
      </trkpt>
      <trkpt lat="44.71123" lon="3.84962">
        <ele>998.2</ele>
        <time>2021-08-09T10:54:08Z</time>
      </trkpt>
      <trkpt lat="44.71119" lon="3.84962">
        <ele>998.5</ele>
        <time>2021-08-09T10:54:10Z</time>
      </trkpt>
      <trkpt lat="44.71115" lon="3.84963">
        <ele>998.9</ele>
        <time>2021-08-09T10:54:12Z</time>
      </trkpt>
      <trkpt lat="44.71111" lon="3.84962">
        <ele>999.2</ele>
        <time>2021-08-09T10:54:14Z</time>
      </trkpt>
      <trkpt lat="44.71107" lon="3.84962">
        <ele>999.6</ele>
        <time>2021-08-09T10:54:16Z</time>
      </trkpt>
      <trkpt lat="44.71103" lon="3.84962">
        <ele>1000</ele>
        <time>2021-08-09T10:54:18Z</time>
      </trkpt>
      <trkpt lat="44.71099" lon="3.84962">
        <ele>1000.3</ele>
        <time>2021-08-09T10:54:20Z</time>
      </trkpt>
      <trkpt lat="44.71096" lon="3.84961">
        <ele>1000.7</ele>
        <time>2021-08-09T10:54:22Z</time>
      </trkpt>
      <trkpt lat="44.71091" lon="3.84962">
        <ele>1001</ele>
        <time>2021-08-09T10:54:24Z</time>
      </trkpt>
      <trkpt lat="44.71087" lon="3.84962">
        <ele>1001.4</ele>
        <time>2021-08-09T10:54:26Z</time>
      </trkpt>
      <trkpt lat="44.71084" lon="3.84961">
        <ele>1001.7</ele>
        <time>2021-08-09T10:54:28Z</time>
      </trkpt>
      <trkpt lat="44.71081" lon="3.84961">
        <ele>1002</ele>
        <time>2021-08-09T10:54:30Z</time>
      </trkpt>
      <trkpt lat="44.71077" lon="3.84961">
        <ele>1002.3</ele>
        <time>2021-08-09T10:54:32Z</time>
      </trkpt>
      <trkpt lat="44.71074" lon="3.8496">
        <ele>1002.5</ele>
        <time>2021-08-09T10:54:34Z</time>
      </trkpt>
      <trkpt lat="44.71071" lon="3.84959">
        <ele>1002.9</ele>
        <time>2021-08-09T10:54:36Z</time>
      </trkpt>
      <trkpt lat="44.71067" lon="3.84959">
        <ele>1003.1</ele>
        <time>2021-08-09T10:54:38Z</time>
      </trkpt>
      <trkpt lat="44.71064" lon="3.84957">
        <ele>1003.5</ele>
        <time>2021-08-09T10:54:40Z</time>
      </trkpt>
      <trkpt lat="44.71061" lon="3.84955">
        <ele>1003.8</ele>
        <time>2021-08-09T10:54:42Z</time>
      </trkpt>
      <trkpt lat="44.71058" lon="3.84954">
        <ele>1004.2</ele>
        <time>2021-08-09T10:54:44Z</time>
      </trkpt>
      <trkpt lat="44.71054" lon="3.84952">
        <ele>1004.6</ele>
        <time>2021-08-09T10:54:46Z</time>
      </trkpt>
      <trkpt lat="44.71051" lon="3.8495">
        <ele>1005</ele>
        <time>2021-08-09T10:54:48Z</time>
      </trkpt>
      <trkpt lat="44.71048" lon="3.84949">
        <ele>1005.3</ele>
        <time>2021-08-09T10:54:50Z</time>
      </trkpt>
      <trkpt lat="44.71045" lon="3.84947">
        <ele>1005.7</ele>
        <time>2021-08-09T10:54:52Z</time>
      </trkpt>
      <trkpt lat="44.71041" lon="3.84946">
        <ele>1006</ele>
        <time>2021-08-09T10:54:54Z</time>
      </trkpt>
      <trkpt lat="44.71038" lon="3.84945">
        <ele>1006.4</ele>
        <time>2021-08-09T10:54:56Z</time>
      </trkpt>
      <trkpt lat="44.71034" lon="3.84944">
        <ele>1006.8</ele>
        <time>2021-08-09T10:54:58Z</time>
      </trkpt>
      <trkpt lat="44.71031" lon="3.84943">
        <ele>1007.2</ele>
        <time>2021-08-09T10:55:00Z</time>
      </trkpt>
      <trkpt lat="44.71027" lon="3.84942">
        <ele>1007.5</ele>
        <time>2021-08-09T10:55:02Z</time>
      </trkpt>
      <trkpt lat="44.71024" lon="3.84941">
        <ele>1007.8</ele>
        <time>2021-08-09T10:55:04Z</time>
      </trkpt>
      <trkpt lat="44.7102" lon="3.84942">
        <ele>1008</ele>
        <time>2021-08-09T10:55:06Z</time>
      </trkpt>
      <trkpt lat="44.71017" lon="3.84942">
        <ele>1008.3</ele>
        <time>2021-08-09T10:55:08Z</time>
      </trkpt>
      <trkpt lat="44.71013" lon="3.84942">
        <ele>1008.6</ele>
        <time>2021-08-09T10:55:10Z</time>
      </trkpt>
      <trkpt lat="44.7101" lon="3.84942">
        <ele>1008.8</ele>
        <time>2021-08-09T10:55:12Z</time>
      </trkpt>
      <trkpt lat="44.71007" lon="3.84942">
        <ele>1009.1</ele>
        <time>2021-08-09T10:55:14Z</time>
      </trkpt>
      <trkpt lat="44.71003" lon="3.84942">
        <ele>1009.3</ele>
        <time>2021-08-09T10:55:16Z</time>
      </trkpt>
      <trkpt lat="44.71" lon="3.84943">
        <ele>1009.5</ele>
        <time>2021-08-09T10:55:18Z</time>
      </trkpt>
      <trkpt lat="44.70996" lon="3.84943">
        <ele>1009.7</ele>
        <time>2021-08-09T10:55:20Z</time>
      </trkpt>
      <trkpt lat="44.70993" lon="3.84942">
        <ele>1009.9</ele>
        <time>2021-08-09T10:55:22Z</time>
      </trkpt>
      <trkpt lat="44.70989" lon="3.84943">
        <ele>1010</ele>
        <time>2021-08-09T10:55:24Z</time>
      </trkpt>
      <trkpt lat="44.70986" lon="3.84942">
        <ele>1010.2</ele>
        <time>2021-08-09T10:55:26Z</time>
      </trkpt>
      <trkpt lat="44.70982" lon="3.84942">
        <ele>1010.4</ele>
        <time>2021-08-09T10:55:28Z</time>
      </trkpt>
      <trkpt lat="44.70979" lon="3.84943">
        <ele>1010.5</ele>
        <time>2021-08-09T10:55:30Z</time>
      </trkpt>
      <trkpt lat="44.70975" lon="3.84943">
        <ele>1010.6</ele>
        <time>2021-08-09T10:55:32Z</time>
      </trkpt>
      <trkpt lat="44.70972" lon="3.84942">
        <ele>1010.8</ele>
        <time>2021-08-09T10:55:34Z</time>
      </trkpt>
      <trkpt lat="44.70969" lon="3.84941">
        <ele>1011.1</ele>
        <time>2021-08-09T10:55:36Z</time>
      </trkpt>
      <trkpt lat="44.70965" lon="3.84941">
        <ele>1011.2</ele>
        <time>2021-08-09T10:55:38Z</time>
      </trkpt>
      <trkpt lat="44.70962" lon="3.84941">
        <ele>1011.4</ele>
        <time>2021-08-09T10:55:40Z</time>
      </trkpt>
      <trkpt lat="44.70959" lon="3.8494">
        <ele>1011.6</ele>
        <time>2021-08-09T10:55:42Z</time>
      </trkpt>
      <trkpt lat="44.70955" lon="3.8494">
        <ele>1011.8</ele>
        <time>2021-08-09T10:55:44Z</time>
      </trkpt>
      <trkpt lat="44.70952" lon="3.84938">
        <ele>1012.1</ele>
        <time>2021-08-09T10:55:46Z</time>
      </trkpt>
      <trkpt lat="44.70949" lon="3.84937">
        <ele>1012.3</ele>
        <time>2021-08-09T10:55:48Z</time>
      </trkpt>
      <trkpt lat="44.70945" lon="3.84937">
        <ele>1012.5</ele>
        <time>2021-08-09T10:55:50Z</time>
      </trkpt>
      <trkpt lat="44.70942" lon="3.84936">
        <ele>1012.7</ele>
        <time>2021-08-09T10:55:52Z</time>
      </trkpt>
      <trkpt lat="44.70939" lon="3.84936">
        <ele>1012.9</ele>
        <time>2021-08-09T10:55:54Z</time>
      </trkpt>
      <trkpt lat="44.70935" lon="3.84934">
        <ele>1013.1</ele>
        <time>2021-08-09T10:55:56Z</time>
      </trkpt>
      <trkpt lat="44.70932" lon="3.84933">
        <ele>1013.4</ele>
        <time>2021-08-09T10:55:58Z</time>
      </trkpt>
      <trkpt lat="44.70929" lon="3.84931">
        <ele>1013.6</ele>
        <time>2021-08-09T10:56:00Z</time>
      </trkpt>
      <trkpt lat="44.70925" lon="3.8493">
        <ele>1013.8</ele>
        <time>2021-08-09T10:56:02Z</time>
      </trkpt>
      <trkpt lat="44.70922" lon="3.84929">
        <ele>1014</ele>
        <time>2021-08-09T10:56:04Z</time>
      </trkpt>
      <trkpt lat="44.70918" lon="3.84928">
        <ele>1014.2</ele>
        <time>2021-08-09T10:56:06Z</time>
      </trkpt>
      <trkpt lat="44.70914" lon="3.84928">
        <ele>1014.4</ele>
        <time>2021-08-09T10:56:08Z</time>
      </trkpt>
      <trkpt lat="44.70911" lon="3.84926">
        <ele>1014.7</ele>
        <time>2021-08-09T10:56:10Z</time>
      </trkpt>
      <trkpt lat="44.70907" lon="3.84923">
        <ele>1015</ele>
        <time>2021-08-09T10:56:12Z</time>
      </trkpt>
      <trkpt lat="44.70903" lon="3.84922">
        <ele>1015.2</ele>
        <time>2021-08-09T10:56:14Z</time>
      </trkpt>
      <trkpt lat="44.70899" lon="3.8492">
        <ele>1015.5</ele>
        <time>2021-08-09T10:56:16Z</time>
      </trkpt>
      <trkpt lat="44.70895" lon="3.84918">
        <ele>1015.7</ele>
        <time>2021-08-09T10:56:18Z</time>
      </trkpt>
      <trkpt lat="44.70891" lon="3.84916">
        <ele>1015.9</ele>
        <time>2021-08-09T10:56:20Z</time>
      </trkpt>
      <trkpt lat="44.70887" lon="3.84913">
        <ele>1016.1</ele>
        <time>2021-08-09T10:56:22Z</time>
      </trkpt>
      <trkpt lat="44.70883" lon="3.84912">
        <ele>1016.3</ele>
        <time>2021-08-09T10:56:24Z</time>
      </trkpt>
      <trkpt lat="44.70878" lon="3.8491">
        <ele>1016.5</ele>
        <time>2021-08-09T10:56:26Z</time>
      </trkpt>
      <trkpt lat="44.70874" lon="3.84907">
        <ele>1016.7</ele>
        <time>2021-08-09T10:56:28Z</time>
      </trkpt>
      <trkpt lat="44.70869" lon="3.84904">
        <ele>1016.8</ele>
        <time>2021-08-09T10:56:30Z</time>
      </trkpt>
      <trkpt lat="44.70865" lon="3.84903">
        <ele>1017</ele>
        <time>2021-08-09T10:56:32Z</time>
      </trkpt>
      <trkpt lat="44.70861" lon="3.849">
        <ele>1017.1</ele>
        <time>2021-08-09T10:56:34Z</time>
      </trkpt>
      <trkpt lat="44.70857" lon="3.84896">
        <ele>1017.3</ele>
        <time>2021-08-09T10:56:36Z</time>
      </trkpt>
      <trkpt lat="44.70853" lon="3.84894">
        <ele>1017.4</ele>
        <time>2021-08-09T10:56:38Z</time>
      </trkpt>
      <trkpt lat="44.70848" lon="3.84894">
        <ele>1017.6</ele>
        <time>2021-08-09T10:56:40Z</time>
      </trkpt>
      <trkpt lat="44.70843" lon="3.8489">
        <ele>1017.7</ele>
        <time>2021-08-09T10:56:42Z</time>
      </trkpt>
      <trkpt lat="44.70838" lon="3.84886">
        <ele>1017.9</ele>
        <time>2021-08-09T10:56:44Z</time>
      </trkpt>
      <trkpt lat="44.70833" lon="3.84883">
        <ele>1018</ele>
        <time>2021-08-09T10:56:46Z</time>
      </trkpt>
      <trkpt lat="44.70827" lon="3.8488">
        <ele>1018.2</ele>
        <time>2021-08-09T10:56:48Z</time>
      </trkpt>
      <trkpt lat="44.70821" lon="3.84877">
        <ele>1018.4</ele>
        <time>2021-08-09T10:56:50Z</time>
      </trkpt>
      <trkpt lat="44.70815" lon="3.84874">
        <ele>1018.6</ele>
        <time>2021-08-09T10:56:52Z</time>
      </trkpt>
      <trkpt lat="44.70809" lon="3.84872">
        <ele>1018.7</ele>
        <time>2021-08-09T10:56:54Z</time>
      </trkpt>
      <trkpt lat="44.70803" lon="3.84869">
        <ele>1018.9</ele>
        <time>2021-08-09T10:56:56Z</time>
      </trkpt>
      <trkpt lat="44.70798" lon="3.84867">
        <ele>1019.1</ele>
        <time>2021-08-09T10:56:58Z</time>
      </trkpt>
      <trkpt lat="44.70793" lon="3.84863">
        <ele>1019.3</ele>
        <time>2021-08-09T10:57:00Z</time>
      </trkpt>
      <trkpt lat="44.70788" lon="3.8486">
        <ele>1019.5</ele>
        <time>2021-08-09T10:57:02Z</time>
      </trkpt>
      <trkpt lat="44.70783" lon="3.84856">
        <ele>1019.6</ele>
        <time>2021-08-09T10:57:04Z</time>
      </trkpt>
      <trkpt lat="44.70779" lon="3.84852">
        <ele>1019.8</ele>
        <time>2021-08-09T10:57:06Z</time>
      </trkpt>
      <trkpt lat="44.70775" lon="3.84848">
        <ele>1020</ele>
        <time>2021-08-09T10:57:08Z</time>
      </trkpt>
      <trkpt lat="44.70771" lon="3.84845">
        <ele>1020.2</ele>
        <time>2021-08-09T10:57:10Z</time>
      </trkpt>
      <trkpt lat="44.70766" lon="3.84843">
        <ele>1020.3</ele>
        <time>2021-08-09T10:57:12Z</time>
      </trkpt>
      <trkpt lat="44.70761" lon="3.84842">
        <ele>1020.5</ele>
        <time>2021-08-09T10:57:14Z</time>
      </trkpt>
      <trkpt lat="44.70756" lon="3.84839">
        <ele>1020.7</ele>
        <time>2021-08-09T10:57:16Z</time>
      </trkpt>
      <trkpt lat="44.70751" lon="3.84837">
        <ele>1020.9</ele>
        <time>2021-08-09T10:57:18Z</time>
      </trkpt>
      <trkpt lat="44.70745" lon="3.84835">
        <ele>1020.9</ele>
        <time>2021-08-09T10:57:20Z</time>
      </trkpt>
      <trkpt lat="44.7074" lon="3.84834">
        <ele>1020.7</ele>
        <time>2021-08-09T10:57:22Z</time>
      </trkpt>
      <trkpt lat="44.70735" lon="3.84832">
        <ele>1020.7</ele>
        <time>2021-08-09T10:57:24Z</time>
      </trkpt>
      <trkpt lat="44.7073" lon="3.84831">
        <ele>1020.7</ele>
        <time>2021-08-09T10:57:26Z</time>
      </trkpt>
      <trkpt lat="44.70726" lon="3.84829">
        <ele>1020.7</ele>
        <time>2021-08-09T10:57:28Z</time>
      </trkpt>
      <trkpt lat="44.70723" lon="3.84828">
        <ele>1020.7</ele>
        <time>2021-08-09T10:57:30Z</time>
      </trkpt>
      <trkpt lat="44.70718" lon="3.84827">
        <ele>1020.6</ele>
        <time>2021-08-09T10:57:32Z</time>
      </trkpt>
      <trkpt lat="44.70713" lon="3.84825">
        <ele>1020.7</ele>
        <time>2021-08-09T10:57:34Z</time>
      </trkpt>
      <trkpt lat="44.70709" lon="3.84823">
        <ele>1020.7</ele>
        <time>2021-08-09T10:57:36Z</time>
      </trkpt>
      <trkpt lat="44.70704" lon="3.84821">
        <ele>1020.7</ele>
        <time>2021-08-09T10:57:38Z</time>
      </trkpt>
      <trkpt lat="44.707" lon="3.8482">
        <ele>1020.7</ele>
        <time>2021-08-09T10:57:40Z</time>
      </trkpt>
      <trkpt lat="44.70696" lon="3.84819">
        <ele>1020.7</ele>
        <time>2021-08-09T10:57:42Z</time>
      </trkpt>
      <trkpt lat="44.70692" lon="3.84815">
        <ele>1021</ele>
        <time>2021-08-09T10:57:44Z</time>
      </trkpt>
      <trkpt lat="44.70688" lon="3.84812">
        <ele>1021.1</ele>
        <time>2021-08-09T10:57:46Z</time>
      </trkpt>
      <trkpt lat="44.70684" lon="3.84809">
        <ele>1021.3</ele>
        <time>2021-08-09T10:57:48Z</time>
      </trkpt>
      <trkpt lat="44.70679" lon="3.84807">
        <ele>1021.4</ele>
        <time>2021-08-09T10:57:50Z</time>
      </trkpt>
      <trkpt lat="44.70674" lon="3.84803">
        <ele>1021.6</ele>
        <time>2021-08-09T10:57:52Z</time>
      </trkpt>
      <trkpt lat="44.70668" lon="3.848">
        <ele>1021.8</ele>
        <time>2021-08-09T10:57:54Z</time>
      </trkpt>
      <trkpt lat="44.70663" lon="3.84796">
        <ele>1022</ele>
        <time>2021-08-09T10:57:56Z</time>
      </trkpt>
      <trkpt lat="44.70658" lon="3.84792">
        <ele>1022.3</ele>
        <time>2021-08-09T10:57:58Z</time>
      </trkpt>
      <trkpt lat="44.70653" lon="3.84789">
        <ele>1022.5</ele>
        <time>2021-08-09T10:58:00Z</time>
      </trkpt>
      <trkpt lat="44.70648" lon="3.84786">
        <ele>1022.6</ele>
        <time>2021-08-09T10:58:02Z</time>
      </trkpt>
      <trkpt lat="44.70643" lon="3.84782">
        <ele>1022.8</ele>
        <time>2021-08-09T10:58:04Z</time>
      </trkpt>
      <trkpt lat="44.70638" lon="3.8478">
        <ele>1022.9</ele>
        <time>2021-08-09T10:58:06Z</time>
      </trkpt>
      <trkpt lat="44.70633" lon="3.84777">
        <ele>1023</ele>
        <time>2021-08-09T10:58:08Z</time>
      </trkpt>
      <trkpt lat="44.70628" lon="3.84775">
        <ele>1023.1</ele>
        <time>2021-08-09T10:58:10Z</time>
      </trkpt>
      <trkpt lat="44.70623" lon="3.84771">
        <ele>1023.3</ele>
        <time>2021-08-09T10:58:12Z</time>
      </trkpt>
      <trkpt lat="44.70618" lon="3.84769">
        <ele>1023.4</ele>
        <time>2021-08-09T10:58:14Z</time>
      </trkpt>
      <trkpt lat="44.70612" lon="3.84766">
        <ele>1023.5</ele>
        <time>2021-08-09T10:58:16Z</time>
      </trkpt>
      <trkpt lat="44.70606" lon="3.84763">
        <ele>1023.6</ele>
        <time>2021-08-09T10:58:18Z</time>
      </trkpt>
      <trkpt lat="44.706" lon="3.84761">
        <ele>1023.6</ele>
        <time>2021-08-09T10:58:20Z</time>
      </trkpt>
      <trkpt lat="44.70595" lon="3.84757">
        <ele>1023.8</ele>
        <time>2021-08-09T10:58:22Z</time>
      </trkpt>
      <trkpt lat="44.7059" lon="3.84753">
        <ele>1023.9</ele>
        <time>2021-08-09T10:58:24Z</time>
      </trkpt>
      <trkpt lat="44.70585" lon="3.8475">
        <ele>1024</ele>
        <time>2021-08-09T10:58:26Z</time>
      </trkpt>
      <trkpt lat="44.7058" lon="3.84748">
        <ele>1023.9</ele>
        <time>2021-08-09T10:58:28Z</time>
      </trkpt>
      <trkpt lat="44.70575" lon="3.84746">
        <ele>1023.9</ele>
        <time>2021-08-09T10:58:30Z</time>
      </trkpt>
      <trkpt lat="44.70569" lon="3.84744">
        <ele>1023.8</ele>
        <time>2021-08-09T10:58:32Z</time>
      </trkpt>
      <trkpt lat="44.70564" lon="3.84742">
        <ele>1023.7</ele>
        <time>2021-08-09T10:58:34Z</time>
      </trkpt>
      <trkpt lat="44.70558" lon="3.84741">
        <ele>1023.6</ele>
        <time>2021-08-09T10:58:36Z</time>
      </trkpt>
      <trkpt lat="44.70553" lon="3.84739">
        <ele>1023.5</ele>
        <time>2021-08-09T10:58:38Z</time>
      </trkpt>
      <trkpt lat="44.70548" lon="3.84737">
        <ele>1023.4</ele>
        <time>2021-08-09T10:58:40Z</time>
      </trkpt>
      <trkpt lat="44.70541" lon="3.84737">
        <ele>1023.3</ele>
        <time>2021-08-09T10:58:42Z</time>
      </trkpt>
      <trkpt lat="44.70535" lon="3.84736">
        <ele>1023.2</ele>
        <time>2021-08-09T10:58:44Z</time>
      </trkpt>
      <trkpt lat="44.70529" lon="3.84737">
        <ele>1023.1</ele>
        <time>2021-08-09T10:58:46Z</time>
      </trkpt>
      <trkpt lat="44.70523" lon="3.84738">
        <ele>1022.9</ele>
        <time>2021-08-09T10:58:48Z</time>
      </trkpt>
      <trkpt lat="44.70517" lon="3.84739">
        <ele>1022.7</ele>
        <time>2021-08-09T10:58:50Z</time>
      </trkpt>
      <trkpt lat="44.70511" lon="3.8474">
        <ele>1022.6</ele>
        <time>2021-08-09T10:58:52Z</time>
      </trkpt>
      <trkpt lat="44.70504" lon="3.84742">
        <ele>1022.4</ele>
        <time>2021-08-09T10:58:54Z</time>
      </trkpt>
      <trkpt lat="44.70498" lon="3.84743">
        <ele>1022.2</ele>
        <time>2021-08-09T10:58:56Z</time>
      </trkpt>
      <trkpt lat="44.70491" lon="3.84743">
        <ele>1022.1</ele>
        <time>2021-08-09T10:58:58Z</time>
      </trkpt>
      <trkpt lat="44.70484" lon="3.84744">
        <ele>1021.9</ele>
        <time>2021-08-09T10:59:00Z</time>
      </trkpt>
      <trkpt lat="44.70477" lon="3.84746">
        <ele>1021.8</ele>
        <time>2021-08-09T10:59:02Z</time>
      </trkpt>
      <trkpt lat="44.7047" lon="3.84748">
        <ele>1021.6</ele>
        <time>2021-08-09T10:59:04Z</time>
      </trkpt>
      <trkpt lat="44.70463" lon="3.8475">
        <ele>1021.5</ele>
        <time>2021-08-09T10:59:06Z</time>
      </trkpt>
      <trkpt lat="44.70457" lon="3.84752">
        <ele>1021.4</ele>
        <time>2021-08-09T10:59:08Z</time>
      </trkpt>
      <trkpt lat="44.7045" lon="3.84755">
        <ele>1021.2</ele>
        <time>2021-08-09T10:59:10Z</time>
      </trkpt>
      <trkpt lat="44.70443" lon="3.84758">
        <ele>1021</ele>
        <time>2021-08-09T10:59:12Z</time>
      </trkpt>
      <trkpt lat="44.70436" lon="3.8476">
        <ele>1020.9</ele>
        <time>2021-08-09T10:59:14Z</time>
      </trkpt>
      <trkpt lat="44.7043" lon="3.84762">
        <ele>1020.8</ele>
        <time>2021-08-09T10:59:16Z</time>
      </trkpt>
      <trkpt lat="44.70424" lon="3.84764">
        <ele>1020.7</ele>
        <time>2021-08-09T10:59:18Z</time>
      </trkpt>
      <trkpt lat="44.70417" lon="3.84765">
        <ele>1020.6</ele>
        <time>2021-08-09T10:59:20Z</time>
      </trkpt>
      <trkpt lat="44.70411" lon="3.84767">
        <ele>1020.4</ele>
        <time>2021-08-09T10:59:22Z</time>
      </trkpt>
      <trkpt lat="44.70403" lon="3.8477">
        <ele>1020.1</ele>
        <time>2021-08-09T10:59:24Z</time>
      </trkpt>
      <trkpt lat="44.70396" lon="3.84771">
        <ele>1019.8</ele>
        <time>2021-08-09T10:59:26Z</time>
      </trkpt>
      <trkpt lat="44.70389" lon="3.84772">
        <ele>1019.5</ele>
        <time>2021-08-09T10:59:28Z</time>
      </trkpt>
      <trkpt lat="44.70381" lon="3.84773">
        <ele>1019.3</ele>
        <time>2021-08-09T10:59:30Z</time>
      </trkpt>
      <trkpt lat="44.70374" lon="3.84774">
        <ele>1019</ele>
        <time>2021-08-09T10:59:32Z</time>
      </trkpt>
      <trkpt lat="44.70366" lon="3.84774">
        <ele>1018.8</ele>
        <time>2021-08-09T10:59:34Z</time>
      </trkpt>
      <trkpt lat="44.70359" lon="3.84775">
        <ele>1018.5</ele>
        <time>2021-08-09T10:59:36Z</time>
      </trkpt>
      <trkpt lat="44.70352" lon="3.84775">
        <ele>1018.3</ele>
        <time>2021-08-09T10:59:38Z</time>
      </trkpt>
      <trkpt lat="44.70345" lon="3.84775">
        <ele>1018.1</ele>
        <time>2021-08-09T10:59:40Z</time>
      </trkpt>
      <trkpt lat="44.70338" lon="3.84775">
        <ele>1017.8</ele>
        <time>2021-08-09T10:59:42Z</time>
      </trkpt>
      <trkpt lat="44.7033" lon="3.84776">
        <ele>1017.7</ele>
        <time>2021-08-09T10:59:44Z</time>
      </trkpt>
      <trkpt lat="44.70323" lon="3.84776">
        <ele>1017.8</ele>
        <time>2021-08-09T10:59:46Z</time>
      </trkpt>
      <trkpt lat="44.70316" lon="3.84776">
        <ele>1017.8</ele>
        <time>2021-08-09T10:59:48Z</time>
      </trkpt>
      <trkpt lat="44.70308" lon="3.84777">
        <ele>1017.9</ele>
        <time>2021-08-09T10:59:50Z</time>
      </trkpt>
      <trkpt lat="44.70301" lon="3.84777">
        <ele>1017.9</ele>
        <time>2021-08-09T10:59:52Z</time>
      </trkpt>
      <trkpt lat="44.70294" lon="3.84777">
        <ele>1018</ele>
        <time>2021-08-09T10:59:54Z</time>
      </trkpt>
      <trkpt lat="44.70287" lon="3.84778">
        <ele>1018</ele>
        <time>2021-08-09T10:59:56Z</time>
      </trkpt>
      <trkpt lat="44.7028" lon="3.8478">
        <ele>1018.1</ele>
        <time>2021-08-09T10:59:58Z</time>
      </trkpt>
      <trkpt lat="44.70273" lon="3.84781">
        <ele>1018.2</ele>
        <time>2021-08-09T11:00:00Z</time>
      </trkpt>
      <trkpt lat="44.70266" lon="3.84782">
        <ele>1018.2</ele>
        <time>2021-08-09T11:00:02Z</time>
      </trkpt>
      <trkpt lat="44.70258" lon="3.84783">
        <ele>1018.3</ele>
        <time>2021-08-09T11:00:04Z</time>
      </trkpt>
      <trkpt lat="44.7025" lon="3.84785">
        <ele>1018.4</ele>
        <time>2021-08-09T11:00:06Z</time>
      </trkpt>
      <trkpt lat="44.70242" lon="3.84786">
        <ele>1018.9</ele>
        <time>2021-08-09T11:00:08Z</time>
      </trkpt>
      <trkpt lat="44.70233" lon="3.84788">
        <ele>1019.4</ele>
        <time>2021-08-09T11:00:10Z</time>
      </trkpt>
      <trkpt lat="44.70225" lon="3.84789">
        <ele>1020</ele>
        <time>2021-08-09T11:00:12Z</time>
      </trkpt>
      <trkpt lat="44.70216" lon="3.8479">
        <ele>1020.5</ele>
        <time>2021-08-09T11:00:14Z</time>
      </trkpt>
      <trkpt lat="44.70208" lon="3.84791">
        <ele>1021</ele>
        <time>2021-08-09T11:00:16Z</time>
      </trkpt>
      <trkpt lat="44.702" lon="3.84792">
        <ele>1021.5</ele>
        <time>2021-08-09T11:00:18Z</time>
      </trkpt>
      <trkpt lat="44.70193" lon="3.84792">
        <ele>1022</ele>
        <time>2021-08-09T11:00:20Z</time>
      </trkpt>
      <trkpt lat="44.70185" lon="3.84793">
        <ele>1022.4</ele>
        <time>2021-08-09T11:00:22Z</time>
      </trkpt>
      <trkpt lat="44.70177" lon="3.84794">
        <ele>1022.9</ele>
        <time>2021-08-09T11:00:24Z</time>
      </trkpt>
      <trkpt lat="44.7017" lon="3.84795">
        <ele>1023.3</ele>
        <time>2021-08-09T11:00:26Z</time>
      </trkpt>
      <trkpt lat="44.70163" lon="3.84795">
        <ele>1023.5</ele>
        <time>2021-08-09T11:00:28Z</time>
      </trkpt>
      <trkpt lat="44.70156" lon="3.84795">
        <ele>1023.3</ele>
        <time>2021-08-09T11:00:30Z</time>
      </trkpt>
      <trkpt lat="44.70149" lon="3.84795">
        <ele>1023.2</ele>
        <time>2021-08-09T11:00:32Z</time>
      </trkpt>
      <trkpt lat="44.70142" lon="3.84796">
        <ele>1023.1</ele>
        <time>2021-08-09T11:00:34Z</time>
      </trkpt>
      <trkpt lat="44.70134" lon="3.84795">
        <ele>1022.9</ele>
        <time>2021-08-09T11:00:36Z</time>
      </trkpt>
      <trkpt lat="44.70126" lon="3.84794">
        <ele>1022.8</ele>
        <time>2021-08-09T11:00:38Z</time>
      </trkpt>
      <trkpt lat="44.70119" lon="3.84792">
        <ele>1022.6</ele>
        <time>2021-08-09T11:00:40Z</time>
      </trkpt>
      <trkpt lat="44.70111" lon="3.8479">
        <ele>1022.5</ele>
        <time>2021-08-09T11:00:42Z</time>
      </trkpt>
      <trkpt lat="44.70104" lon="3.84788">
        <ele>1022.4</ele>
        <time>2021-08-09T11:00:44Z</time>
      </trkpt>
      <trkpt lat="44.70097" lon="3.84787">
        <ele>1022.2</ele>
        <time>2021-08-09T11:00:46Z</time>
      </trkpt>
      <trkpt lat="44.7009" lon="3.84785">
        <ele>1022.1</ele>
        <time>2021-08-09T11:00:48Z</time>
      </trkpt>
      <trkpt lat="44.70084" lon="3.84784">
        <ele>1022</ele>
        <time>2021-08-09T11:00:50Z</time>
      </trkpt>
      <trkpt lat="44.70076" lon="3.84782">
        <ele>1021.9</ele>
        <time>2021-08-09T11:00:52Z</time>
      </trkpt>
      <trkpt lat="44.70069" lon="3.8478">
        <ele>1021.8</ele>
        <time>2021-08-09T11:00:54Z</time>
      </trkpt>
      <trkpt lat="44.70061" lon="3.84778">
        <ele>1021.6</ele>
        <time>2021-08-09T11:00:56Z</time>
      </trkpt>
      <trkpt lat="44.70053" lon="3.84775">
        <ele>1021.5</ele>
        <time>2021-08-09T11:00:58Z</time>
      </trkpt>
      <trkpt lat="44.70046" lon="3.84774">
        <ele>1021.4</ele>
        <time>2021-08-09T11:01:00Z</time>
      </trkpt>
      <trkpt lat="44.70038" lon="3.84772">
        <ele>1021.2</ele>
        <time>2021-08-09T11:01:02Z</time>
      </trkpt>
      <trkpt lat="44.7003" lon="3.8477">
        <ele>1021</ele>
        <time>2021-08-09T11:01:04Z</time>
      </trkpt>
      <trkpt lat="44.70023" lon="3.84768">
        <ele>1020.9</ele>
        <time>2021-08-09T11:01:06Z</time>
      </trkpt>
      <trkpt lat="44.70016" lon="3.84767">
        <ele>1020.7</ele>
        <time>2021-08-09T11:01:08Z</time>
      </trkpt>
      <trkpt lat="44.70008" lon="3.84766">
        <ele>1020.6</ele>
        <time>2021-08-09T11:01:10Z</time>
      </trkpt>
      <trkpt lat="44.70001" lon="3.84766">
        <ele>1020.4</ele>
        <time>2021-08-09T11:01:12Z</time>
      </trkpt>
      <trkpt lat="44.69994" lon="3.84765">
        <ele>1020.4</ele>
        <time>2021-08-09T11:01:14Z</time>
      </trkpt>
      <trkpt lat="44.69986" lon="3.84765">
        <ele>1020.4</ele>
        <time>2021-08-09T11:01:16Z</time>
      </trkpt>
      <trkpt lat="44.69978" lon="3.84765">
        <ele>1020.4</ele>
        <time>2021-08-09T11:01:18Z</time>
      </trkpt>
      <trkpt lat="44.69971" lon="3.84765">
        <ele>1020.4</ele>
        <time>2021-08-09T11:01:20Z</time>
      </trkpt>
      <trkpt lat="44.69963" lon="3.84765">
        <ele>1020.4</ele>
        <time>2021-08-09T11:01:22Z</time>
      </trkpt>
      <trkpt lat="44.69955" lon="3.84765">
        <ele>1020.4</ele>
        <time>2021-08-09T11:01:24Z</time>
      </trkpt>
      <trkpt lat="44.69947" lon="3.84765">
        <ele>1020.3</ele>
        <time>2021-08-09T11:01:26Z</time>
      </trkpt>
      <trkpt lat="44.69939" lon="3.84764">
        <ele>1020.3</ele>
        <time>2021-08-09T11:01:28Z</time>
      </trkpt>
      <trkpt lat="44.69931" lon="3.84764">
        <ele>1020.3</ele>
        <time>2021-08-09T11:01:30Z</time>
      </trkpt>
      <trkpt lat="44.69923" lon="3.84763">
        <ele>1020.3</ele>
        <time>2021-08-09T11:01:32Z</time>
      </trkpt>
      <trkpt lat="44.69915" lon="3.84762">
        <ele>1020.4</ele>
        <time>2021-08-09T11:01:34Z</time>
      </trkpt>
      <trkpt lat="44.69908" lon="3.84762">
        <ele>1020.8</ele>
        <time>2021-08-09T11:01:36Z</time>
      </trkpt>
      <trkpt lat="44.69901" lon="3.84762">
        <ele>1021.2</ele>
        <time>2021-08-09T11:01:38Z</time>
      </trkpt>
      <trkpt lat="44.69894" lon="3.84761">
        <ele>1021.6</ele>
        <time>2021-08-09T11:01:40Z</time>
      </trkpt>
      <trkpt lat="44.69887" lon="3.8476">
        <ele>1022</ele>
        <time>2021-08-09T11:01:42Z</time>
      </trkpt>
      <trkpt lat="44.6988" lon="3.84759">
        <ele>1022.4</ele>
        <time>2021-08-09T11:01:44Z</time>
      </trkpt>
      <trkpt lat="44.69874" lon="3.84759">
        <ele>1022.8</ele>
        <time>2021-08-09T11:01:46Z</time>
      </trkpt>
      <trkpt lat="44.69867" lon="3.84758">
        <ele>1023.2</ele>
        <time>2021-08-09T11:01:48Z</time>
      </trkpt>
      <trkpt lat="44.69861" lon="3.84756">
        <ele>1023.5</ele>
        <time>2021-08-09T11:01:50Z</time>
      </trkpt>
      <trkpt lat="44.69855" lon="3.84754">
        <ele>1023.8</ele>
        <time>2021-08-09T11:01:52Z</time>
      </trkpt>
      <trkpt lat="44.69849" lon="3.84751">
        <ele>1024.1</ele>
        <time>2021-08-09T11:01:54Z</time>
      </trkpt>
      <trkpt lat="44.69845" lon="3.84749">
        <ele>1024.3</ele>
        <time>2021-08-09T11:01:56Z</time>
      </trkpt>
      <trkpt lat="44.6984" lon="3.84746">
        <ele>1024.4</ele>
        <time>2021-08-09T11:01:58Z</time>
      </trkpt>
      <trkpt lat="44.69835" lon="3.84744">
        <ele>1024.7</ele>
        <time>2021-08-09T11:02:00Z</time>
      </trkpt>
      <trkpt lat="44.6983" lon="3.84741">
        <ele>1025.3</ele>
        <time>2021-08-09T11:02:02Z</time>
      </trkpt>
      <trkpt lat="44.69826" lon="3.84739">
        <ele>1026.2</ele>
        <time>2021-08-09T11:02:04Z</time>
      </trkpt>
      <trkpt lat="44.69822" lon="3.84735">
        <ele>1026.9</ele>
        <time>2021-08-09T11:02:06Z</time>
      </trkpt>
      <trkpt lat="44.69817" lon="3.84731">
        <ele>1027.6</ele>
        <time>2021-08-09T11:02:08Z</time>
      </trkpt>
      <trkpt lat="44.69814" lon="3.84727">
        <ele>1028.1</ele>
        <time>2021-08-09T11:02:10Z</time>
      </trkpt>
      <trkpt lat="44.6981" lon="3.84725">
        <ele>1028.8</ele>
        <time>2021-08-09T11:02:12Z</time>
      </trkpt>
      <trkpt lat="44.69807" lon="3.84723">
        <ele>1029.3</ele>
        <time>2021-08-09T11:02:14Z</time>
      </trkpt>
      <trkpt lat="44.69804" lon="3.84721">
        <ele>1029.9</ele>
        <time>2021-08-09T11:02:16Z</time>
      </trkpt>
      <trkpt lat="44.69801" lon="3.84718">
        <ele>1030.4</ele>
        <time>2021-08-09T11:02:18Z</time>
      </trkpt>
      <trkpt lat="44.69798" lon="3.84717">
        <ele>1031</ele>
        <time>2021-08-09T11:02:20Z</time>
      </trkpt>
      <trkpt lat="44.69795" lon="3.84714">
        <ele>1031.3</ele>
        <time>2021-08-09T11:02:22Z</time>
      </trkpt>
      <trkpt lat="44.69793" lon="3.8471">
        <ele>1031.6</ele>
        <time>2021-08-09T11:02:24Z</time>
      </trkpt>
      <trkpt lat="44.6979" lon="3.84707">
        <ele>1032.1</ele>
        <time>2021-08-09T11:02:26Z</time>
      </trkpt>
      <trkpt lat="44.69787" lon="3.84705">
        <ele>1032.6</ele>
        <time>2021-08-09T11:02:28Z</time>
      </trkpt>
      <trkpt lat="44.69784" lon="3.84702">
        <ele>1032.9</ele>
        <time>2021-08-09T11:02:30Z</time>
      </trkpt>
      <trkpt lat="44.69781" lon="3.84699">
        <ele>1033.3</ele>
        <time>2021-08-09T11:02:32Z</time>
      </trkpt>
      <trkpt lat="44.69778" lon="3.84697">
        <ele>1033.7</ele>
        <time>2021-08-09T11:02:34Z</time>
      </trkpt>
      <trkpt lat="44.69775" lon="3.84695">
        <ele>1034.2</ele>
        <time>2021-08-09T11:02:36Z</time>
      </trkpt>
      <trkpt lat="44.69772" lon="3.84693">
        <ele>1034.7</ele>
        <time>2021-08-09T11:02:38Z</time>
      </trkpt>
      <trkpt lat="44.69769" lon="3.8469">
        <ele>1035.1</ele>
        <time>2021-08-09T11:02:40Z</time>
      </trkpt>
      <trkpt lat="44.69766" lon="3.84687">
        <ele>1035.4</ele>
        <time>2021-08-09T11:02:42Z</time>
      </trkpt>
      <trkpt lat="44.69763" lon="3.84685">
        <ele>1035.9</ele>
        <time>2021-08-09T11:02:44Z</time>
      </trkpt>
      <trkpt lat="44.6976" lon="3.84682">
        <ele>1036.2</ele>
        <time>2021-08-09T11:02:46Z</time>
      </trkpt>
      <trkpt lat="44.69757" lon="3.8468">
        <ele>1036.6</ele>
        <time>2021-08-09T11:02:48Z</time>
      </trkpt>
      <trkpt lat="44.69754" lon="3.84677">
        <ele>1037.1</ele>
        <time>2021-08-09T11:02:50Z</time>
      </trkpt>
      <trkpt lat="44.69751" lon="3.84675">
        <ele>1037.4</ele>
        <time>2021-08-09T11:02:52Z</time>
      </trkpt>
      <trkpt lat="44.69748" lon="3.84672">
        <ele>1037.6</ele>
        <time>2021-08-09T11:02:54Z</time>
      </trkpt>
      <trkpt lat="44.69746" lon="3.84669">
        <ele>1037.8</ele>
        <time>2021-08-09T11:02:56Z</time>
      </trkpt>
      <trkpt lat="44.69743" lon="3.84666">
        <ele>1038.1</ele>
        <time>2021-08-09T11:02:58Z</time>
      </trkpt>
      <trkpt lat="44.6974" lon="3.84664">
        <ele>1038.4</ele>
        <time>2021-08-09T11:03:00Z</time>
      </trkpt>
      <trkpt lat="44.69737" lon="3.84662">
        <ele>1038.8</ele>
        <time>2021-08-09T11:03:02Z</time>
      </trkpt>
      <trkpt lat="44.69734" lon="3.84659">
        <ele>1039.1</ele>
        <time>2021-08-09T11:03:04Z</time>
      </trkpt>
      <trkpt lat="44.69731" lon="3.84657">
        <ele>1039.4</ele>
        <time>2021-08-09T11:03:06Z</time>
      </trkpt>
      <trkpt lat="44.69728" lon="3.84655">
        <ele>1039.7</ele>
        <time>2021-08-09T11:03:08Z</time>
      </trkpt>
      <trkpt lat="44.69726" lon="3.84652">
        <ele>1039.9</ele>
        <time>2021-08-09T11:03:10Z</time>
      </trkpt>
      <trkpt lat="44.69722" lon="3.84649">
        <ele>1040.2</ele>
        <time>2021-08-09T11:03:12Z</time>
      </trkpt>
      <trkpt lat="44.69719" lon="3.84647">
        <ele>1040.5</ele>
        <time>2021-08-09T11:03:14Z</time>
      </trkpt>
      <trkpt lat="44.69716" lon="3.84645">
        <ele>1040.8</ele>
        <time>2021-08-09T11:03:16Z</time>
      </trkpt>
      <trkpt lat="44.69713" lon="3.84643">
        <ele>1041.1</ele>
        <time>2021-08-09T11:03:18Z</time>
      </trkpt>
      <trkpt lat="44.69711" lon="3.84641">
        <ele>1041.3</ele>
        <time>2021-08-09T11:03:20Z</time>
      </trkpt>
      <trkpt lat="44.69708" lon="3.84639">
        <ele>1041.6</ele>
        <time>2021-08-09T11:03:22Z</time>
      </trkpt>
      <trkpt lat="44.69704" lon="3.84636">
        <ele>1041.8</ele>
        <time>2021-08-09T11:03:24Z</time>
      </trkpt>
      <trkpt lat="44.69702" lon="3.84634">
        <ele>1042</ele>
        <time>2021-08-09T11:03:26Z</time>
      </trkpt>
      <trkpt lat="44.69699" lon="3.84632">
        <ele>1042.3</ele>
        <time>2021-08-09T11:03:28Z</time>
      </trkpt>
      <trkpt lat="44.69696" lon="3.8463">
        <ele>1042.5</ele>
        <time>2021-08-09T11:03:30Z</time>
      </trkpt>
      <trkpt lat="44.69693" lon="3.84628">
        <ele>1042.8</ele>
        <time>2021-08-09T11:03:32Z</time>
      </trkpt>
      <trkpt lat="44.6969" lon="3.84626">
        <ele>1043</ele>
        <time>2021-08-09T11:03:34Z</time>
      </trkpt>
      <trkpt lat="44.69687" lon="3.84625">
        <ele>1043.3</ele>
        <time>2021-08-09T11:03:36Z</time>
      </trkpt>
      <trkpt lat="44.69684" lon="3.84623">
        <ele>1043.5</ele>
        <time>2021-08-09T11:03:38Z</time>
      </trkpt>
      <trkpt lat="44.69681" lon="3.84622">
        <ele>1043.9</ele>
        <time>2021-08-09T11:03:40Z</time>
      </trkpt>
      <trkpt lat="44.69677" lon="3.84621">
        <ele>1044.2</ele>
        <time>2021-08-09T11:03:42Z</time>
      </trkpt>
      <trkpt lat="44.69674" lon="3.8462">
        <ele>1044.6</ele>
        <time>2021-08-09T11:03:44Z</time>
      </trkpt>
      <trkpt lat="44.69671" lon="3.84619">
        <ele>1045</ele>
        <time>2021-08-09T11:03:46Z</time>
      </trkpt>
      <trkpt lat="44.69668" lon="3.84619">
        <ele>1045.3</ele>
        <time>2021-08-09T11:03:48Z</time>
      </trkpt>
      <trkpt lat="44.69664" lon="3.84619">
        <ele>1045.5</ele>
        <time>2021-08-09T11:03:50Z</time>
      </trkpt>
      <trkpt lat="44.69661" lon="3.84619">
        <ele>1045.6</ele>
        <time>2021-08-09T11:03:52Z</time>
      </trkpt>
      <trkpt lat="44.69658" lon="3.84618">
        <ele>1045.6</ele>
        <time>2021-08-09T11:03:54Z</time>
      </trkpt>
      <trkpt lat="44.69654" lon="3.84618">
        <ele>1045.7</ele>
        <time>2021-08-09T11:03:56Z</time>
      </trkpt>
      <trkpt lat="44.69651" lon="3.84618">
        <ele>1045.8</ele>
        <time>2021-08-09T11:03:58Z</time>
      </trkpt>
      <trkpt lat="44.69648" lon="3.84617">
        <ele>1045.8</ele>
        <time>2021-08-09T11:04:00Z</time>
      </trkpt>
      <trkpt lat="44.69645" lon="3.84617">
        <ele>1045.8</ele>
        <time>2021-08-09T11:04:02Z</time>
      </trkpt>
      <trkpt lat="44.69642" lon="3.84619">
        <ele>1046.1</ele>
        <time>2021-08-09T11:04:04Z</time>
      </trkpt>
      <trkpt lat="44.6964" lon="3.84619">
        <ele>1046.2</ele>
        <time>2021-08-09T11:04:06Z</time>
      </trkpt>
      <trkpt lat="44.69637" lon="3.84618">
        <ele>1046.2</ele>
        <time>2021-08-09T11:04:08Z</time>
      </trkpt>
      <trkpt lat="44.69635" lon="3.84618">
        <ele>1046.2</ele>
        <time>2021-08-09T11:04:10Z</time>
      </trkpt>
      <trkpt lat="44.69633" lon="3.84617">
        <ele>1046.1</ele>
        <time>2021-08-09T11:04:12Z</time>
      </trkpt>
      <trkpt lat="44.69632" lon="3.84616">
        <ele>1046</ele>
        <time>2021-08-09T11:04:14Z</time>
      </trkpt>
      <trkpt lat="44.69632" lon="3.84616">
        <ele>1046</ele>
        <time>2021-08-09T11:04:16Z</time>
      </trkpt>
      <trkpt lat="44.69632" lon="3.84616">
        <ele>1046</ele>
        <time>2021-08-09T11:04:18Z</time>
      </trkpt>
      <trkpt lat="44.69632" lon="3.84616">
        <ele>1046</ele>
        <time>2021-08-09T11:04:20Z</time>
      </trkpt>
      <trkpt lat="44.69621" lon="3.84616">
        <ele>1046.4</ele>
        <time>2021-08-09T11:06:58Z</time>
      </trkpt>
      <trkpt lat="44.69617" lon="3.84617">
        <ele>1046.6</ele>
        <time>2021-08-09T11:07:00Z</time>
      </trkpt>
      <trkpt lat="44.69613" lon="3.84617">
        <ele>1046.7</ele>
        <time>2021-08-09T11:07:02Z</time>
      </trkpt>
      <trkpt lat="44.69609" lon="3.84617">
        <ele>1046.8</ele>
        <time>2021-08-09T11:07:04Z</time>
      </trkpt>
      <trkpt lat="44.69604" lon="3.84617">
        <ele>1046.9</ele>
        <time>2021-08-09T11:07:06Z</time>
      </trkpt>
      <trkpt lat="44.69599" lon="3.84617">
        <ele>1047.1</ele>
        <time>2021-08-09T11:07:08Z</time>
      </trkpt>
      <trkpt lat="44.69595" lon="3.84617">
        <ele>1047.2</ele>
        <time>2021-08-09T11:07:10Z</time>
      </trkpt>
      <trkpt lat="44.6959" lon="3.84617">
        <ele>1047.3</ele>
        <time>2021-08-09T11:07:12Z</time>
      </trkpt>
      <trkpt lat="44.69585" lon="3.84617">
        <ele>1047.4</ele>
        <time>2021-08-09T11:07:14Z</time>
      </trkpt>
      <trkpt lat="44.6958" lon="3.84617">
        <ele>1047.5</ele>
        <time>2021-08-09T11:07:16Z</time>
      </trkpt>
      <trkpt lat="44.69575" lon="3.84617">
        <ele>1047.5</ele>
        <time>2021-08-09T11:07:18Z</time>
      </trkpt>
      <trkpt lat="44.6957" lon="3.84617">
        <ele>1047.4</ele>
        <time>2021-08-09T11:07:20Z</time>
      </trkpt>
      <trkpt lat="44.69565" lon="3.84617">
        <ele>1047.4</ele>
        <time>2021-08-09T11:07:22Z</time>
      </trkpt>
      <trkpt lat="44.6956" lon="3.84617">
        <ele>1047.4</ele>
        <time>2021-08-09T11:07:24Z</time>
      </trkpt>
      <trkpt lat="44.69555" lon="3.84617">
        <ele>1047.3</ele>
        <time>2021-08-09T11:07:26Z</time>
      </trkpt>
      <trkpt lat="44.6955" lon="3.84616">
        <ele>1047.2</ele>
        <time>2021-08-09T11:07:28Z</time>
      </trkpt>
      <trkpt lat="44.69546" lon="3.84617">
        <ele>1047.4</ele>
        <time>2021-08-09T11:07:30Z</time>
      </trkpt>
      <trkpt lat="44.6954" lon="3.84617">
        <ele>1047.4</ele>
        <time>2021-08-09T11:07:32Z</time>
      </trkpt>
      <trkpt lat="44.69535" lon="3.84617">
        <ele>1047.4</ele>
        <time>2021-08-09T11:07:34Z</time>
      </trkpt>
      <trkpt lat="44.6953" lon="3.84618">
        <ele>1047.5</ele>
        <time>2021-08-09T11:07:36Z</time>
      </trkpt>
      <trkpt lat="44.69524" lon="3.84619">
        <ele>1047.6</ele>
        <time>2021-08-09T11:07:38Z</time>
      </trkpt>
      <trkpt lat="44.69518" lon="3.8462">
        <ele>1047.7</ele>
        <time>2021-08-09T11:07:40Z</time>
      </trkpt>
      <trkpt lat="44.69513" lon="3.84621">
        <ele>1047.8</ele>
        <time>2021-08-09T11:07:42Z</time>
      </trkpt>
      <trkpt lat="44.69507" lon="3.84622">
        <ele>1048</ele>
        <time>2021-08-09T11:07:44Z</time>
      </trkpt>
      <trkpt lat="44.69502" lon="3.84623">
        <ele>1048.2</ele>
        <time>2021-08-09T11:07:46Z</time>
      </trkpt>
      <trkpt lat="44.69496" lon="3.84624">
        <ele>1048.4</ele>
        <time>2021-08-09T11:07:48Z</time>
      </trkpt>
      <trkpt lat="44.69491" lon="3.84626">
        <ele>1048.5</ele>
        <time>2021-08-09T11:07:50Z</time>
      </trkpt>
      <trkpt lat="44.69486" lon="3.84628">
        <ele>1048.6</ele>
        <time>2021-08-09T11:07:52Z</time>
      </trkpt>
      <trkpt lat="44.69481" lon="3.84629">
        <ele>1048.7</ele>
        <time>2021-08-09T11:07:54Z</time>
      </trkpt>
      <trkpt lat="44.69475" lon="3.8463">
        <ele>1048.8</ele>
        <time>2021-08-09T11:07:56Z</time>
      </trkpt>
      <trkpt lat="44.69469" lon="3.84631">
        <ele>1048.9</ele>
        <time>2021-08-09T11:07:58Z</time>
      </trkpt>
      <trkpt lat="44.69465" lon="3.84633">
        <ele>1049.1</ele>
        <time>2021-08-09T11:08:00Z</time>
      </trkpt>
      <trkpt lat="44.69459" lon="3.84635">
        <ele>1049.3</ele>
        <time>2021-08-09T11:08:02Z</time>
      </trkpt>
      <trkpt lat="44.69453" lon="3.84636">
        <ele>1049.4</ele>
        <time>2021-08-09T11:08:04Z</time>
      </trkpt>
      <trkpt lat="44.69448" lon="3.84638">
        <ele>1049.7</ele>
        <time>2021-08-09T11:08:06Z</time>
      </trkpt>
      <trkpt lat="44.69443" lon="3.84641">
        <ele>1050</ele>
        <time>2021-08-09T11:08:08Z</time>
      </trkpt>
      <trkpt lat="44.69437" lon="3.84642">
        <ele>1050.1</ele>
        <time>2021-08-09T11:08:10Z</time>
      </trkpt>
      <trkpt lat="44.69431" lon="3.84644">
        <ele>1050.4</ele>
        <time>2021-08-09T11:08:12Z</time>
      </trkpt>
      <trkpt lat="44.69425" lon="3.84644">
        <ele>1050.4</ele>
        <time>2021-08-09T11:08:14Z</time>
      </trkpt>
      <trkpt lat="44.6942" lon="3.84646">
        <ele>1050.5</ele>
        <time>2021-08-09T11:08:16Z</time>
      </trkpt>
      <trkpt lat="44.69414" lon="3.84646">
        <ele>1050.4</ele>
        <time>2021-08-09T11:08:18Z</time>
      </trkpt>
      <trkpt lat="44.69407" lon="3.84647">
        <ele>1050.5</ele>
        <time>2021-08-09T11:08:20Z</time>
      </trkpt>
      <trkpt lat="44.69401" lon="3.84647">
        <ele>1050.3</ele>
        <time>2021-08-09T11:08:22Z</time>
      </trkpt>
      <trkpt lat="44.69394" lon="3.84647">
        <ele>1050.2</ele>
        <time>2021-08-09T11:08:24Z</time>
      </trkpt>
      <trkpt lat="44.69387" lon="3.84646">
        <ele>1049.9</ele>
        <time>2021-08-09T11:08:26Z</time>
      </trkpt>
      <trkpt lat="44.6938" lon="3.84646">
        <ele>1049.7</ele>
        <time>2021-08-09T11:08:28Z</time>
      </trkpt>
      <trkpt lat="44.69374" lon="3.84645">
        <ele>1049.5</ele>
        <time>2021-08-09T11:08:30Z</time>
      </trkpt>
      <trkpt lat="44.69368" lon="3.84644">
        <ele>1049.3</ele>
        <time>2021-08-09T11:08:32Z</time>
      </trkpt>
      <trkpt lat="44.69362" lon="3.84644">
        <ele>1049.1</ele>
        <time>2021-08-09T11:08:34Z</time>
      </trkpt>
      <trkpt lat="44.69356" lon="3.84644">
        <ele>1049.1</ele>
        <time>2021-08-09T11:08:36Z</time>
      </trkpt>
      <trkpt lat="44.69351" lon="3.84644">
        <ele>1048.9</ele>
        <time>2021-08-09T11:08:38Z</time>
      </trkpt>
      <trkpt lat="44.69345" lon="3.84645">
        <ele>1048.9</ele>
        <time>2021-08-09T11:08:40Z</time>
      </trkpt>
      <trkpt lat="44.6934" lon="3.84646">
        <ele>1048.9</ele>
        <time>2021-08-09T11:08:42Z</time>
      </trkpt>
      <trkpt lat="44.69335" lon="3.84648">
        <ele>1049</ele>
        <time>2021-08-09T11:08:44Z</time>
      </trkpt>
      <trkpt lat="44.6933" lon="3.8465">
        <ele>1049.2</ele>
        <time>2021-08-09T11:08:46Z</time>
      </trkpt>
      <trkpt lat="44.69325" lon="3.84651">
        <ele>1049.3</ele>
        <time>2021-08-09T11:08:48Z</time>
      </trkpt>
      <trkpt lat="44.6932" lon="3.84653">
        <ele>1049.6</ele>
        <time>2021-08-09T11:08:50Z</time>
      </trkpt>
      <trkpt lat="44.69315" lon="3.84655">
        <ele>1049.8</ele>
        <time>2021-08-09T11:08:52Z</time>
      </trkpt>
      <trkpt lat="44.6931" lon="3.84658">
        <ele>1050</ele>
        <time>2021-08-09T11:08:54Z</time>
      </trkpt>
      <trkpt lat="44.69304" lon="3.8466">
        <ele>1050.3</ele>
        <time>2021-08-09T11:08:56Z</time>
      </trkpt>
      <trkpt lat="44.69297" lon="3.84662">
        <ele>1050.5</ele>
        <time>2021-08-09T11:08:58Z</time>
      </trkpt>
      <trkpt lat="44.69291" lon="3.84663">
        <ele>1050.6</ele>
        <time>2021-08-09T11:09:00Z</time>
      </trkpt>
      <trkpt lat="44.69285" lon="3.84664">
        <ele>1050.8</ele>
        <time>2021-08-09T11:09:02Z</time>
      </trkpt>
      <trkpt lat="44.69279" lon="3.84666">
        <ele>1050.9</ele>
        <time>2021-08-09T11:09:04Z</time>
      </trkpt>
      <trkpt lat="44.69274" lon="3.84667">
        <ele>1051</ele>
        <time>2021-08-09T11:09:06Z</time>
      </trkpt>
      <trkpt lat="44.69268" lon="3.84668">
        <ele>1051.1</ele>
        <time>2021-08-09T11:09:08Z</time>
      </trkpt>
      <trkpt lat="44.69261" lon="3.8467">
        <ele>1051.1</ele>
        <time>2021-08-09T11:09:10Z</time>
      </trkpt>
      <trkpt lat="44.69255" lon="3.84671">
        <ele>1051.1</ele>
        <time>2021-08-09T11:09:12Z</time>
      </trkpt>
      <trkpt lat="44.69248" lon="3.84672">
        <ele>1051.1</ele>
        <time>2021-08-09T11:09:14Z</time>
      </trkpt>
      <trkpt lat="44.69241" lon="3.84675">
        <ele>1051.1</ele>
        <time>2021-08-09T11:09:16Z</time>
      </trkpt>
      <trkpt lat="44.69235" lon="3.84676">
        <ele>1051</ele>
        <time>2021-08-09T11:09:18Z</time>
      </trkpt>
      <trkpt lat="44.69228" lon="3.84679">
        <ele>1051</ele>
        <time>2021-08-09T11:09:20Z</time>
      </trkpt>
      <trkpt lat="44.6922" lon="3.8468">
        <ele>1051</ele>
        <time>2021-08-09T11:09:22Z</time>
      </trkpt>
      <trkpt lat="44.69214" lon="3.84682">
        <ele>1050.9</ele>
        <time>2021-08-09T11:09:24Z</time>
      </trkpt>
      <trkpt lat="44.69207" lon="3.84684">
        <ele>1050.9</ele>
        <time>2021-08-09T11:09:26Z</time>
      </trkpt>
      <trkpt lat="44.69201" lon="3.84684">
        <ele>1050.8</ele>
        <time>2021-08-09T11:09:28Z</time>
      </trkpt>
      <trkpt lat="44.69195" lon="3.84683">
        <ele>1050.7</ele>
        <time>2021-08-09T11:09:30Z</time>
      </trkpt>
      <trkpt lat="44.69188" lon="3.84683">
        <ele>1050.7</ele>
        <time>2021-08-09T11:09:32Z</time>
      </trkpt>
      <trkpt lat="44.69181" lon="3.84682">
        <ele>1050.5</ele>
        <time>2021-08-09T11:09:34Z</time>
      </trkpt>
      <trkpt lat="44.69174" lon="3.84681">
        <ele>1050.4</ele>
        <time>2021-08-09T11:09:36Z</time>
      </trkpt>
      <trkpt lat="44.69166" lon="3.8468">
        <ele>1050.3</ele>
        <time>2021-08-09T11:09:38Z</time>
      </trkpt>
      <trkpt lat="44.69159" lon="3.84678">
        <ele>1050.4</ele>
        <time>2021-08-09T11:09:40Z</time>
      </trkpt>
      <trkpt lat="44.69152" lon="3.84675">
        <ele>1050.5</ele>
        <time>2021-08-09T11:09:42Z</time>
      </trkpt>
      <trkpt lat="44.69144" lon="3.84673">
        <ele>1050.5</ele>
        <time>2021-08-09T11:09:44Z</time>
      </trkpt>
      <trkpt lat="44.69137" lon="3.84671">
        <ele>1050.6</ele>
        <time>2021-08-09T11:09:46Z</time>
      </trkpt>
      <trkpt lat="44.69129" lon="3.84669">
        <ele>1050.6</ele>
        <time>2021-08-09T11:09:48Z</time>
      </trkpt>
      <trkpt lat="44.69122" lon="3.84667">
        <ele>1050.6</ele>
        <time>2021-08-09T11:09:50Z</time>
      </trkpt>
      <trkpt lat="44.69115" lon="3.84665">
        <ele>1050.5</ele>
        <time>2021-08-09T11:09:52Z</time>
      </trkpt>
      <trkpt lat="44.69108" lon="3.84663">
        <ele>1050.5</ele>
        <time>2021-08-09T11:09:54Z</time>
      </trkpt>
      <trkpt lat="44.69101" lon="3.84661">
        <ele>1050.5</ele>
        <time>2021-08-09T11:09:56Z</time>
      </trkpt>
      <trkpt lat="44.69093" lon="3.84658">
        <ele>1050.5</ele>
        <time>2021-08-09T11:09:58Z</time>
      </trkpt>
      <trkpt lat="44.69086" lon="3.84657">
        <ele>1050.6</ele>
        <time>2021-08-09T11:10:00Z</time>
      </trkpt>
      <trkpt lat="44.69079" lon="3.84655">
        <ele>1050.8</ele>
        <time>2021-08-09T11:10:02Z</time>
      </trkpt>
      <trkpt lat="44.69072" lon="3.84653">
        <ele>1051.2</ele>
        <time>2021-08-09T11:10:04Z</time>
      </trkpt>
      <trkpt lat="44.69065" lon="3.84651">
        <ele>1051.5</ele>
        <time>2021-08-09T11:10:06Z</time>
      </trkpt>
      <trkpt lat="44.69058" lon="3.84649">
        <ele>1051.9</ele>
        <time>2021-08-09T11:10:08Z</time>
      </trkpt>
      <trkpt lat="44.69051" lon="3.84647">
        <ele>1052.2</ele>
        <time>2021-08-09T11:10:10Z</time>
      </trkpt>
      <trkpt lat="44.69045" lon="3.84645">
        <ele>1052.5</ele>
        <time>2021-08-09T11:10:12Z</time>
      </trkpt>
      <trkpt lat="44.69038" lon="3.84643">
        <ele>1052.9</ele>
        <time>2021-08-09T11:10:14Z</time>
      </trkpt>
      <trkpt lat="44.69032" lon="3.84641">
        <ele>1053.2</ele>
        <time>2021-08-09T11:10:16Z</time>
      </trkpt>
      <trkpt lat="44.69026" lon="3.8464">
        <ele>1053.5</ele>
        <time>2021-08-09T11:10:18Z</time>
      </trkpt>
      <trkpt lat="44.69019" lon="3.84638">
        <ele>1053.8</ele>
        <time>2021-08-09T11:10:20Z</time>
      </trkpt>
      <trkpt lat="44.69014" lon="3.84636">
        <ele>1054.1</ele>
        <time>2021-08-09T11:10:22Z</time>
      </trkpt>
      <trkpt lat="44.69008" lon="3.84633">
        <ele>1054.3</ele>
        <time>2021-08-09T11:10:24Z</time>
      </trkpt>
      <trkpt lat="44.69002" lon="3.84632">
        <ele>1054.6</ele>
        <time>2021-08-09T11:10:26Z</time>
      </trkpt>
      <trkpt lat="44.68997" lon="3.84631">
        <ele>1055</ele>
        <time>2021-08-09T11:10:28Z</time>
      </trkpt>
      <trkpt lat="44.68993" lon="3.84629">
        <ele>1055.3</ele>
        <time>2021-08-09T11:10:30Z</time>
      </trkpt>
      <trkpt lat="44.68988" lon="3.84628">
        <ele>1055.6</ele>
        <time>2021-08-09T11:10:32Z</time>
      </trkpt>
      <trkpt lat="44.68984" lon="3.84627">
        <ele>1056</ele>
        <time>2021-08-09T11:10:34Z</time>
      </trkpt>
      <trkpt lat="44.6898" lon="3.84626">
        <ele>1056.2</ele>
        <time>2021-08-09T11:10:36Z</time>
      </trkpt>
      <trkpt lat="44.68976" lon="3.84624">
        <ele>1056.5</ele>
        <time>2021-08-09T11:10:38Z</time>
      </trkpt>
      <trkpt lat="44.68972" lon="3.84621">
        <ele>1056.7</ele>
        <time>2021-08-09T11:10:40Z</time>
      </trkpt>
      <trkpt lat="44.68968" lon="3.84619">
        <ele>1056.9</ele>
        <time>2021-08-09T11:10:42Z</time>
      </trkpt>
      <trkpt lat="44.68964" lon="3.84617">
        <ele>1057.2</ele>
        <time>2021-08-09T11:10:44Z</time>
      </trkpt>
      <trkpt lat="44.6896" lon="3.84616">
        <ele>1057.4</ele>
        <time>2021-08-09T11:10:46Z</time>
      </trkpt>
      <trkpt lat="44.68956" lon="3.84613">
        <ele>1057.6</ele>
        <time>2021-08-09T11:10:48Z</time>
      </trkpt>
      <trkpt lat="44.68952" lon="3.84612">
        <ele>1057.9</ele>
        <time>2021-08-09T11:10:50Z</time>
      </trkpt>
      <trkpt lat="44.68948" lon="3.8461">
        <ele>1058.1</ele>
        <time>2021-08-09T11:10:52Z</time>
      </trkpt>
      <trkpt lat="44.68945" lon="3.84608">
        <ele>1058.3</ele>
        <time>2021-08-09T11:10:54Z</time>
      </trkpt>
      <trkpt lat="44.68941" lon="3.84606">
        <ele>1058.5</ele>
        <time>2021-08-09T11:10:56Z</time>
      </trkpt>
      <trkpt lat="44.68937" lon="3.84603">
        <ele>1058.6</ele>
        <time>2021-08-09T11:10:58Z</time>
      </trkpt>
      <trkpt lat="44.68933" lon="3.84601">
        <ele>1058.9</ele>
        <time>2021-08-09T11:11:00Z</time>
      </trkpt>
      <trkpt lat="44.68929" lon="3.846">
        <ele>1059</ele>
        <time>2021-08-09T11:11:02Z</time>
      </trkpt>
      <trkpt lat="44.68925" lon="3.84599">
        <ele>1059.3</ele>
        <time>2021-08-09T11:11:04Z</time>
      </trkpt>
      <trkpt lat="44.68922" lon="3.84596">
        <ele>1059.3</ele>
        <time>2021-08-09T11:11:06Z</time>
      </trkpt>
      <trkpt lat="44.68917" lon="3.84595">
        <ele>1059.7</ele>
        <time>2021-08-09T11:11:08Z</time>
      </trkpt>
      <trkpt lat="44.68913" lon="3.84594">
        <ele>1059.8</ele>
        <time>2021-08-09T11:11:10Z</time>
      </trkpt>
      <trkpt lat="44.68909" lon="3.84593">
        <ele>1059.9</ele>
        <time>2021-08-09T11:11:12Z</time>
      </trkpt>
      <trkpt lat="44.68904" lon="3.84592">
        <ele>1060</ele>
        <time>2021-08-09T11:11:14Z</time>
      </trkpt>
      <trkpt lat="44.689" lon="3.84591">
        <ele>1060.1</ele>
        <time>2021-08-09T11:11:16Z</time>
      </trkpt>
      <trkpt lat="44.68896" lon="3.84589">
        <ele>1060.2</ele>
        <time>2021-08-09T11:11:18Z</time>
      </trkpt>
      <trkpt lat="44.68892" lon="3.84589">
        <ele>1060.2</ele>
        <time>2021-08-09T11:11:20Z</time>
      </trkpt>
      <trkpt lat="44.68888" lon="3.84588">
        <ele>1060.4</ele>
        <time>2021-08-09T11:11:22Z</time>
      </trkpt>
      <trkpt lat="44.68884" lon="3.84587">
        <ele>1060.5</ele>
        <time>2021-08-09T11:11:24Z</time>
      </trkpt>
      <trkpt lat="44.68879" lon="3.84586">
        <ele>1060.5</ele>
        <time>2021-08-09T11:11:26Z</time>
      </trkpt>
      <trkpt lat="44.68875" lon="3.84585">
        <ele>1060.6</ele>
        <time>2021-08-09T11:11:28Z</time>
      </trkpt>
      <trkpt lat="44.68871" lon="3.84585">
        <ele>1060.7</ele>
        <time>2021-08-09T11:11:30Z</time>
      </trkpt>
      <trkpt lat="44.68867" lon="3.84584">
        <ele>1060.8</ele>
        <time>2021-08-09T11:11:32Z</time>
      </trkpt>
      <trkpt lat="44.68863" lon="3.84583">
        <ele>1060.9</ele>
        <time>2021-08-09T11:11:34Z</time>
      </trkpt>
      <trkpt lat="44.6886" lon="3.84583">
        <ele>1061</ele>
        <time>2021-08-09T11:11:36Z</time>
      </trkpt>
      <trkpt lat="44.68856" lon="3.84583">
        <ele>1061.1</ele>
        <time>2021-08-09T11:11:38Z</time>
      </trkpt>
      <trkpt lat="44.68852" lon="3.84582">
        <ele>1061.2</ele>
        <time>2021-08-09T11:11:40Z</time>
      </trkpt>
      <trkpt lat="44.68847" lon="3.84582">
        <ele>1061.4</ele>
        <time>2021-08-09T11:11:42Z</time>
      </trkpt>
      <trkpt lat="44.68842" lon="3.84582">
        <ele>1061.6</ele>
        <time>2021-08-09T11:11:44Z</time>
      </trkpt>
      <trkpt lat="44.68838" lon="3.84582">
        <ele>1061.8</ele>
        <time>2021-08-09T11:11:46Z</time>
      </trkpt>
      <trkpt lat="44.68833" lon="3.84583">
        <ele>1062</ele>
        <time>2021-08-09T11:11:48Z</time>
      </trkpt>
      <trkpt lat="44.68829" lon="3.84584">
        <ele>1062</ele>
        <time>2021-08-09T11:11:50Z</time>
      </trkpt>
      <trkpt lat="44.68823" lon="3.84584">
        <ele>1062.1</ele>
        <time>2021-08-09T11:11:52Z</time>
      </trkpt>
      <trkpt lat="44.68818" lon="3.84585">
        <ele>1062.2</ele>
        <time>2021-08-09T11:11:54Z</time>
      </trkpt>
      <trkpt lat="44.68813" lon="3.84587">
        <ele>1062.3</ele>
        <time>2021-08-09T11:11:56Z</time>
      </trkpt>
      <trkpt lat="44.68807" lon="3.84588">
        <ele>1062.4</ele>
        <time>2021-08-09T11:11:58Z</time>
      </trkpt>
      <trkpt lat="44.68802" lon="3.8459">
        <ele>1062.6</ele>
        <time>2021-08-09T11:12:00Z</time>
      </trkpt>
      <trkpt lat="44.68797" lon="3.84591">
        <ele>1062.7</ele>
        <time>2021-08-09T11:12:02Z</time>
      </trkpt>
      <trkpt lat="44.68791" lon="3.84593">
        <ele>1062.8</ele>
        <time>2021-08-09T11:12:04Z</time>
      </trkpt>
      <trkpt lat="44.68786" lon="3.84595">
        <ele>1063</ele>
        <time>2021-08-09T11:12:06Z</time>
      </trkpt>
      <trkpt lat="44.6878" lon="3.84597">
        <ele>1063.2</ele>
        <time>2021-08-09T11:12:08Z</time>
      </trkpt>
      <trkpt lat="44.68775" lon="3.84599">
        <ele>1063.3</ele>
        <time>2021-08-09T11:12:10Z</time>
      </trkpt>
      <trkpt lat="44.68769" lon="3.84602">
        <ele>1063.5</ele>
        <time>2021-08-09T11:12:12Z</time>
      </trkpt>
      <trkpt lat="44.68763" lon="3.84604">
        <ele>1063.7</ele>
        <time>2021-08-09T11:12:14Z</time>
      </trkpt>
      <trkpt lat="44.68758" lon="3.84606">
        <ele>1063.9</ele>
        <time>2021-08-09T11:12:16Z</time>
      </trkpt>
      <trkpt lat="44.68752" lon="3.84608">
        <ele>1064.1</ele>
        <time>2021-08-09T11:12:18Z</time>
      </trkpt>
      <trkpt lat="44.68746" lon="3.84611">
        <ele>1064.3</ele>
        <time>2021-08-09T11:12:20Z</time>
      </trkpt>
      <trkpt lat="44.68741" lon="3.84613">
        <ele>1064.4</ele>
        <time>2021-08-09T11:12:22Z</time>
      </trkpt>
      <trkpt lat="44.68735" lon="3.84616">
        <ele>1064.5</ele>
        <time>2021-08-09T11:12:24Z</time>
      </trkpt>
      <trkpt lat="44.68729" lon="3.84618">
        <ele>1064.7</ele>
        <time>2021-08-09T11:12:26Z</time>
      </trkpt>
      <trkpt lat="44.68723" lon="3.84621">
        <ele>1064.8</ele>
        <time>2021-08-09T11:12:28Z</time>
      </trkpt>
      <trkpt lat="44.68717" lon="3.84623">
        <ele>1064.9</ele>
        <time>2021-08-09T11:12:30Z</time>
      </trkpt>
      <trkpt lat="44.68711" lon="3.84625">
        <ele>1065.1</ele>
        <time>2021-08-09T11:12:32Z</time>
      </trkpt>
      <trkpt lat="44.68705" lon="3.84628">
        <ele>1065.2</ele>
        <time>2021-08-09T11:12:34Z</time>
      </trkpt>
      <trkpt lat="44.687" lon="3.8463">
        <ele>1065.3</ele>
        <time>2021-08-09T11:12:36Z</time>
      </trkpt>
      <trkpt lat="44.68694" lon="3.84632">
        <ele>1065.4</ele>
        <time>2021-08-09T11:12:38Z</time>
      </trkpt>
      <trkpt lat="44.68688" lon="3.84633">
        <ele>1065.4</ele>
        <time>2021-08-09T11:12:40Z</time>
      </trkpt>
      <trkpt lat="44.68682" lon="3.84634">
        <ele>1065.5</ele>
        <time>2021-08-09T11:12:42Z</time>
      </trkpt>
      <trkpt lat="44.68676" lon="3.84637">
        <ele>1065.6</ele>
        <time>2021-08-09T11:12:44Z</time>
      </trkpt>
      <trkpt lat="44.68669" lon="3.84638">
        <ele>1065.6</ele>
        <time>2021-08-09T11:12:46Z</time>
      </trkpt>
      <trkpt lat="44.68663" lon="3.84639">
        <ele>1065.9</ele>
        <time>2021-08-09T11:12:48Z</time>
      </trkpt>
      <trkpt lat="44.68657" lon="3.8464">
        <ele>1066.2</ele>
        <time>2021-08-09T11:12:50Z</time>
      </trkpt>
      <trkpt lat="44.68652" lon="3.8464">
        <ele>1066.4</ele>
        <time>2021-08-09T11:12:52Z</time>
      </trkpt>
      <trkpt lat="44.68646" lon="3.84639">
        <ele>1066.7</ele>
        <time>2021-08-09T11:12:54Z</time>
      </trkpt>
      <trkpt lat="44.68641" lon="3.84639">
        <ele>1067</ele>
        <time>2021-08-09T11:12:56Z</time>
      </trkpt>
      <trkpt lat="44.68635" lon="3.84639">
        <ele>1067.2</ele>
        <time>2021-08-09T11:12:58Z</time>
      </trkpt>
      <trkpt lat="44.6863" lon="3.84638">
        <ele>1067.4</ele>
        <time>2021-08-09T11:13:00Z</time>
      </trkpt>
      <trkpt lat="44.68624" lon="3.84637">
        <ele>1067.6</ele>
        <time>2021-08-09T11:13:02Z</time>
      </trkpt>
      <trkpt lat="44.68618" lon="3.84635">
        <ele>1067.7</ele>
        <time>2021-08-09T11:13:04Z</time>
      </trkpt>
      <trkpt lat="44.68613" lon="3.84632">
        <ele>1067.8</ele>
        <time>2021-08-09T11:13:06Z</time>
      </trkpt>
      <trkpt lat="44.68607" lon="3.8463">
        <ele>1068</ele>
        <time>2021-08-09T11:13:08Z</time>
      </trkpt>
      <trkpt lat="44.68601" lon="3.84626">
        <ele>1068.1</ele>
        <time>2021-08-09T11:13:10Z</time>
      </trkpt>
      <trkpt lat="44.68596" lon="3.84623">
        <ele>1068.2</ele>
        <time>2021-08-09T11:13:12Z</time>
      </trkpt>
      <trkpt lat="44.68591" lon="3.84619">
        <ele>1068.3</ele>
        <time>2021-08-09T11:13:14Z</time>
      </trkpt>
      <trkpt lat="44.68585" lon="3.84614">
        <ele>1068.3</ele>
        <time>2021-08-09T11:13:16Z</time>
      </trkpt>
      <trkpt lat="44.6858" lon="3.8461">
        <ele>1068.6</ele>
        <time>2021-08-09T11:13:18Z</time>
      </trkpt>
      <trkpt lat="44.68575" lon="3.84605">
        <ele>1068.9</ele>
        <time>2021-08-09T11:13:20Z</time>
      </trkpt>
      <trkpt lat="44.6857" lon="3.84601">
        <ele>1069.3</ele>
        <time>2021-08-09T11:13:22Z</time>
      </trkpt>
      <trkpt lat="44.68564" lon="3.84597">
        <ele>1069.6</ele>
        <time>2021-08-09T11:13:24Z</time>
      </trkpt>
      <trkpt lat="44.68559" lon="3.84592">
        <ele>1070</ele>
        <time>2021-08-09T11:13:26Z</time>
      </trkpt>
      <trkpt lat="44.68553" lon="3.84588">
        <ele>1070.4</ele>
        <time>2021-08-09T11:13:28Z</time>
      </trkpt>
      <trkpt lat="44.68548" lon="3.84584">
        <ele>1070.8</ele>
        <time>2021-08-09T11:13:30Z</time>
      </trkpt>
      <trkpt lat="44.68543" lon="3.8458">
        <ele>1071.3</ele>
        <time>2021-08-09T11:13:32Z</time>
      </trkpt>
      <trkpt lat="44.68538" lon="3.84577">
        <ele>1071.7</ele>
        <time>2021-08-09T11:13:34Z</time>
      </trkpt>
      <trkpt lat="44.68533" lon="3.84574">
        <ele>1072.2</ele>
        <time>2021-08-09T11:13:36Z</time>
      </trkpt>
      <trkpt lat="44.68529" lon="3.84571">
        <ele>1072.7</ele>
        <time>2021-08-09T11:13:38Z</time>
      </trkpt>
      <trkpt lat="44.68524" lon="3.84569">
        <ele>1073.1</ele>
        <time>2021-08-09T11:13:40Z</time>
      </trkpt>
      <trkpt lat="44.6852" lon="3.84566">
        <ele>1073.5</ele>
        <time>2021-08-09T11:13:42Z</time>
      </trkpt>
      <trkpt lat="44.68515" lon="3.84565">
        <ele>1074.1</ele>
        <time>2021-08-09T11:13:44Z</time>
      </trkpt>
      <trkpt lat="44.68511" lon="3.84563">
        <ele>1074.5</ele>
        <time>2021-08-09T11:13:46Z</time>
      </trkpt>
      <trkpt lat="44.68507" lon="3.8456">
        <ele>1074.9</ele>
        <time>2021-08-09T11:13:48Z</time>
      </trkpt>
      <trkpt lat="44.68504" lon="3.84559">
        <ele>1075.3</ele>
        <time>2021-08-09T11:13:50Z</time>
      </trkpt>
      <trkpt lat="44.685" lon="3.84556">
        <ele>1075.6</ele>
        <time>2021-08-09T11:13:52Z</time>
      </trkpt>
      <trkpt lat="44.68497" lon="3.84556">
        <ele>1076</ele>
        <time>2021-08-09T11:13:54Z</time>
      </trkpt>
      <trkpt lat="44.68494" lon="3.84554">
        <ele>1076.3</ele>
        <time>2021-08-09T11:13:56Z</time>
      </trkpt>
      <trkpt lat="44.6849" lon="3.84552">
        <ele>1076.7</ele>
        <time>2021-08-09T11:13:58Z</time>
      </trkpt>
      <trkpt lat="44.68487" lon="3.8455">
        <ele>1077</ele>
        <time>2021-08-09T11:14:00Z</time>
      </trkpt>
      <trkpt lat="44.68483" lon="3.84548">
        <ele>1077.4</ele>
        <time>2021-08-09T11:14:02Z</time>
      </trkpt>
      <trkpt lat="44.6848" lon="3.84546">
        <ele>1077.8</ele>
        <time>2021-08-09T11:14:04Z</time>
      </trkpt>
      <trkpt lat="44.68476" lon="3.84544">
        <ele>1078.2</ele>
        <time>2021-08-09T11:14:06Z</time>
      </trkpt>
      <trkpt lat="44.68473" lon="3.84542">
        <ele>1078.6</ele>
        <time>2021-08-09T11:14:08Z</time>
      </trkpt>
      <trkpt lat="44.6847" lon="3.8454">
        <ele>1078.9</ele>
        <time>2021-08-09T11:14:10Z</time>
      </trkpt>
      <trkpt lat="44.68468" lon="3.84538">
        <ele>1079.2</ele>
        <time>2021-08-09T11:14:12Z</time>
      </trkpt>
      <trkpt lat="44.68464" lon="3.84536">
        <ele>1079.6</ele>
        <time>2021-08-09T11:14:14Z</time>
      </trkpt>
      <trkpt lat="44.6846" lon="3.84534">
        <ele>1080.1</ele>
        <time>2021-08-09T11:14:16Z</time>
      </trkpt>
      <trkpt lat="44.68457" lon="3.84532">
        <ele>1080.5</ele>
        <time>2021-08-09T11:14:18Z</time>
      </trkpt>
      <trkpt lat="44.68454" lon="3.8453">
        <ele>1080.9</ele>
        <time>2021-08-09T11:14:20Z</time>
      </trkpt>
      <trkpt lat="44.6845" lon="3.84528">
        <ele>1081.3</ele>
        <time>2021-08-09T11:14:22Z</time>
      </trkpt>
      <trkpt lat="44.68447" lon="3.84525">
        <ele>1081.7</ele>
        <time>2021-08-09T11:14:24Z</time>
      </trkpt>
      <trkpt lat="44.68444" lon="3.84523">
        <ele>1082.1</ele>
        <time>2021-08-09T11:14:26Z</time>
      </trkpt>
      <trkpt lat="44.68441" lon="3.84521">
        <ele>1082.5</ele>
        <time>2021-08-09T11:14:28Z</time>
      </trkpt>
      <trkpt lat="44.68438" lon="3.84518">
        <ele>1082.9</ele>
        <time>2021-08-09T11:14:30Z</time>
      </trkpt>
      <trkpt lat="44.68434" lon="3.84516">
        <ele>1083.5</ele>
        <time>2021-08-09T11:14:32Z</time>
      </trkpt>
      <trkpt lat="44.6843" lon="3.84514">
        <ele>1083.9</ele>
        <time>2021-08-09T11:14:34Z</time>
      </trkpt>
      <trkpt lat="44.68428" lon="3.84511">
        <ele>1084.3</ele>
        <time>2021-08-09T11:14:36Z</time>
      </trkpt>
      <trkpt lat="44.68425" lon="3.84508">
        <ele>1084.8</ele>
        <time>2021-08-09T11:14:38Z</time>
      </trkpt>
      <trkpt lat="44.68421" lon="3.84506">
        <ele>1085.2</ele>
        <time>2021-08-09T11:14:40Z</time>
      </trkpt>
      <trkpt lat="44.68419" lon="3.84502">
        <ele>1085.6</ele>
        <time>2021-08-09T11:14:42Z</time>
      </trkpt>
      <trkpt lat="44.68416" lon="3.845">
        <ele>1086</ele>
        <time>2021-08-09T11:14:44Z</time>
      </trkpt>
      <trkpt lat="44.68413" lon="3.84497">
        <ele>1086</ele>
        <time>2021-08-09T11:14:46Z</time>
      </trkpt>
      <trkpt lat="44.6841" lon="3.84494">
        <ele>1086.1</ele>
        <time>2021-08-09T11:14:48Z</time>
      </trkpt>
      <trkpt lat="44.68407" lon="3.84492">
        <ele>1086.2</ele>
        <time>2021-08-09T11:14:50Z</time>
      </trkpt>
      <trkpt lat="44.68403" lon="3.8449">
        <ele>1086.3</ele>
        <time>2021-08-09T11:14:52Z</time>
      </trkpt>
      <trkpt lat="44.68401" lon="3.84488">
        <ele>1086.3</ele>
        <time>2021-08-09T11:14:54Z</time>
      </trkpt>
      <trkpt lat="44.68396" lon="3.84486">
        <ele>1086.5</ele>
        <time>2021-08-09T11:14:56Z</time>
      </trkpt>
      <trkpt lat="44.68393" lon="3.84483">
        <ele>1086.6</ele>
        <time>2021-08-09T11:14:58Z</time>
      </trkpt>
      <trkpt lat="44.6839" lon="3.84481">
        <ele>1086.7</ele>
        <time>2021-08-09T11:15:00Z</time>
      </trkpt>
      <trkpt lat="44.68386" lon="3.84478">
        <ele>1086.8</ele>
        <time>2021-08-09T11:15:02Z</time>
      </trkpt>
      <trkpt lat="44.68382" lon="3.84477">
        <ele>1087</ele>
        <time>2021-08-09T11:15:04Z</time>
      </trkpt>
      <trkpt lat="44.68378" lon="3.84475">
        <ele>1087.3</ele>
        <time>2021-08-09T11:15:06Z</time>
      </trkpt>
      <trkpt lat="44.68373" lon="3.84475">
        <ele>1087.5</ele>
        <time>2021-08-09T11:15:08Z</time>
      </trkpt>
      <trkpt lat="44.6837" lon="3.84473">
        <ele>1087.7</ele>
        <time>2021-08-09T11:15:10Z</time>
      </trkpt>
      <trkpt lat="44.68367" lon="3.84473">
        <ele>1088</ele>
        <time>2021-08-09T11:15:12Z</time>
      </trkpt>
      <trkpt lat="44.68363" lon="3.84472">
        <ele>1088.2</ele>
        <time>2021-08-09T11:15:14Z</time>
      </trkpt>
      <trkpt lat="44.68359" lon="3.84471">
        <ele>1088.4</ele>
        <time>2021-08-09T11:15:16Z</time>
      </trkpt>
      <trkpt lat="44.68355" lon="3.84471">
        <ele>1088.8</ele>
        <time>2021-08-09T11:15:18Z</time>
      </trkpt>
      <trkpt lat="44.68351" lon="3.84471">
        <ele>1089</ele>
        <time>2021-08-09T11:15:20Z</time>
      </trkpt>
      <trkpt lat="44.68347" lon="3.84471">
        <ele>1089.3</ele>
        <time>2021-08-09T11:15:22Z</time>
      </trkpt>
      <trkpt lat="44.68343" lon="3.84471">
        <ele>1089.6</ele>
        <time>2021-08-09T11:15:24Z</time>
      </trkpt>
      <trkpt lat="44.6834" lon="3.8447">
        <ele>1089.8</ele>
        <time>2021-08-09T11:15:26Z</time>
      </trkpt>
      <trkpt lat="44.68337" lon="3.84471">
        <ele>1090.1</ele>
        <time>2021-08-09T11:15:28Z</time>
      </trkpt>
      <trkpt lat="44.68333" lon="3.8447">
        <ele>1090.3</ele>
        <time>2021-08-09T11:15:30Z</time>
      </trkpt>
      <trkpt lat="44.68328" lon="3.84471">
        <ele>1090.4</ele>
        <time>2021-08-09T11:15:32Z</time>
      </trkpt>
      <trkpt lat="44.68324" lon="3.8447">
        <ele>1090.5</ele>
        <time>2021-08-09T11:15:34Z</time>
      </trkpt>
      <trkpt lat="44.68322" lon="3.8447">
        <ele>1090.5</ele>
        <time>2021-08-09T11:15:36Z</time>
      </trkpt>
      <trkpt lat="44.68318" lon="3.8447">
        <ele>1090.6</ele>
        <time>2021-08-09T11:15:38Z</time>
      </trkpt>
      <trkpt lat="44.68314" lon="3.84469">
        <ele>1090.7</ele>
        <time>2021-08-09T11:15:40Z</time>
      </trkpt>
      <trkpt lat="44.68311" lon="3.84468">
        <ele>1090.7</ele>
        <time>2021-08-09T11:15:42Z</time>
      </trkpt>
      <trkpt lat="44.68308" lon="3.84466">
        <ele>1090.7</ele>
        <time>2021-08-09T11:15:44Z</time>
      </trkpt>
      <trkpt lat="44.68304" lon="3.84466">
        <ele>1090.8</ele>
        <time>2021-08-09T11:15:46Z</time>
      </trkpt>
      <trkpt lat="44.68301" lon="3.84466">
        <ele>1090.9</ele>
        <time>2021-08-09T11:15:48Z</time>
      </trkpt>
      <trkpt lat="44.68296" lon="3.84465">
        <ele>1090.9</ele>
        <time>2021-08-09T11:15:50Z</time>
      </trkpt>
      <trkpt lat="44.68292" lon="3.84465">
        <ele>1091</ele>
        <time>2021-08-09T11:15:52Z</time>
      </trkpt>
      <trkpt lat="44.68288" lon="3.84465">
        <ele>1091.1</ele>
        <time>2021-08-09T11:15:54Z</time>
      </trkpt>
      <trkpt lat="44.68284" lon="3.84464">
        <ele>1091.1</ele>
        <time>2021-08-09T11:15:56Z</time>
      </trkpt>
      <trkpt lat="44.68279" lon="3.84463">
        <ele>1091.2</ele>
        <time>2021-08-09T11:15:58Z</time>
      </trkpt>
      <trkpt lat="44.68275" lon="3.84462">
        <ele>1091.2</ele>
        <time>2021-08-09T11:16:00Z</time>
      </trkpt>
      <trkpt lat="44.6827" lon="3.84461">
        <ele>1091.3</ele>
        <time>2021-08-09T11:16:02Z</time>
      </trkpt>
      <trkpt lat="44.68267" lon="3.8446">
        <ele>1091.3</ele>
        <time>2021-08-09T11:16:04Z</time>
      </trkpt>
      <trkpt lat="44.68263" lon="3.84458">
        <ele>1091.2</ele>
        <time>2021-08-09T11:16:06Z</time>
      </trkpt>
      <trkpt lat="44.68258" lon="3.84457">
        <ele>1091.3</ele>
        <time>2021-08-09T11:16:08Z</time>
      </trkpt>
      <trkpt lat="44.68253" lon="3.84456">
        <ele>1091.3</ele>
        <time>2021-08-09T11:16:10Z</time>
      </trkpt>
      <trkpt lat="44.68248" lon="3.84454">
        <ele>1091.3</ele>
        <time>2021-08-09T11:16:12Z</time>
      </trkpt>
      <trkpt lat="44.68243" lon="3.84452">
        <ele>1091.4</ele>
        <time>2021-08-09T11:16:14Z</time>
      </trkpt>
      <trkpt lat="44.68237" lon="3.84449">
        <ele>1091.5</ele>
        <time>2021-08-09T11:16:16Z</time>
      </trkpt>
      <trkpt lat="44.68232" lon="3.84447">
        <ele>1091.6</ele>
        <time>2021-08-09T11:16:18Z</time>
      </trkpt>
      <trkpt lat="44.68227" lon="3.84444">
        <ele>1091.7</ele>
        <time>2021-08-09T11:16:20Z</time>
      </trkpt>
      <trkpt lat="44.68221" lon="3.84443">
        <ele>1091.8</ele>
        <time>2021-08-09T11:16:22Z</time>
      </trkpt>
      <trkpt lat="44.68216" lon="3.84442">
        <ele>1092</ele>
        <time>2021-08-09T11:16:24Z</time>
      </trkpt>
      <trkpt lat="44.6821" lon="3.8444">
        <ele>1092.1</ele>
        <time>2021-08-09T11:16:26Z</time>
      </trkpt>
      <trkpt lat="44.68205" lon="3.84437">
        <ele>1092.1</ele>
        <time>2021-08-09T11:16:28Z</time>
      </trkpt>
      <trkpt lat="44.68199" lon="3.84435">
        <ele>1092.2</ele>
        <time>2021-08-09T11:16:30Z</time>
      </trkpt>
      <trkpt lat="44.68194" lon="3.84433">
        <ele>1092.3</ele>
        <time>2021-08-09T11:16:32Z</time>
      </trkpt>
      <trkpt lat="44.6819" lon="3.84431">
        <ele>1092.3</ele>
        <time>2021-08-09T11:16:34Z</time>
      </trkpt>
      <trkpt lat="44.68185" lon="3.84428">
        <ele>1092.2</ele>
        <time>2021-08-09T11:16:36Z</time>
      </trkpt>
      <trkpt lat="44.68181" lon="3.84426">
        <ele>1092.2</ele>
        <time>2021-08-09T11:16:38Z</time>
      </trkpt>
      <trkpt lat="44.68177" lon="3.84423">
        <ele>1092.1</ele>
        <time>2021-08-09T11:16:40Z</time>
      </trkpt>
      <trkpt lat="44.68173" lon="3.84419">
        <ele>1092</ele>
        <time>2021-08-09T11:16:42Z</time>
      </trkpt>
      <trkpt lat="44.68169" lon="3.84417">
        <ele>1091.9</ele>
        <time>2021-08-09T11:16:44Z</time>
      </trkpt>
      <trkpt lat="44.68165" lon="3.84414">
        <ele>1091.9</ele>
        <time>2021-08-09T11:16:46Z</time>
      </trkpt>
      <trkpt lat="44.68161" lon="3.84411">
        <ele>1091.9</ele>
        <time>2021-08-09T11:16:48Z</time>
      </trkpt>
      <trkpt lat="44.68157" lon="3.84408">
        <ele>1092</ele>
        <time>2021-08-09T11:16:50Z</time>
      </trkpt>
      <trkpt lat="44.68153" lon="3.84405">
        <ele>1092.1</ele>
        <time>2021-08-09T11:16:52Z</time>
      </trkpt>
      <trkpt lat="44.68149" lon="3.84402">
        <ele>1092.3</ele>
        <time>2021-08-09T11:16:54Z</time>
      </trkpt>
      <trkpt lat="44.68145" lon="3.84399">
        <ele>1092.4</ele>
        <time>2021-08-09T11:16:56Z</time>
      </trkpt>
      <trkpt lat="44.68141" lon="3.84396">
        <ele>1092.6</ele>
        <time>2021-08-09T11:16:58Z</time>
      </trkpt>
      <trkpt lat="44.68137" lon="3.84393">
        <ele>1092.7</ele>
        <time>2021-08-09T11:17:00Z</time>
      </trkpt>
      <trkpt lat="44.68133" lon="3.8439">
        <ele>1093</ele>
        <time>2021-08-09T11:17:02Z</time>
      </trkpt>
      <trkpt lat="44.68129" lon="3.84387">
        <ele>1093.1</ele>
        <time>2021-08-09T11:17:04Z</time>
      </trkpt>
      <trkpt lat="44.68125" lon="3.84384">
        <ele>1093.3</ele>
        <time>2021-08-09T11:17:06Z</time>
      </trkpt>
      <trkpt lat="44.68121" lon="3.84382">
        <ele>1093.5</ele>
        <time>2021-08-09T11:17:08Z</time>
      </trkpt>
      <trkpt lat="44.68117" lon="3.84379">
        <ele>1093.8</ele>
        <time>2021-08-09T11:17:10Z</time>
      </trkpt>
      <trkpt lat="44.68113" lon="3.84376">
        <ele>1094</ele>
        <time>2021-08-09T11:17:12Z</time>
      </trkpt>
      <trkpt lat="44.68109" lon="3.84373">
        <ele>1094.2</ele>
        <time>2021-08-09T11:17:14Z</time>
      </trkpt>
      <trkpt lat="44.68105" lon="3.8437">
        <ele>1094.4</ele>
        <time>2021-08-09T11:17:16Z</time>
      </trkpt>
      <trkpt lat="44.68102" lon="3.84367">
        <ele>1094.6</ele>
        <time>2021-08-09T11:17:18Z</time>
      </trkpt>
      <trkpt lat="44.68098" lon="3.84364">
        <ele>1094.9</ele>
        <time>2021-08-09T11:17:20Z</time>
      </trkpt>
      <trkpt lat="44.68094" lon="3.8436">
        <ele>1095</ele>
        <time>2021-08-09T11:17:22Z</time>
      </trkpt>
      <trkpt lat="44.6809" lon="3.84358">
        <ele>1095.4</ele>
        <time>2021-08-09T11:17:24Z</time>
      </trkpt>
      <trkpt lat="44.68085" lon="3.84356">
        <ele>1095.8</ele>
        <time>2021-08-09T11:17:26Z</time>
      </trkpt>
      <trkpt lat="44.68081" lon="3.84352">
        <ele>1096.1</ele>
        <time>2021-08-09T11:17:28Z</time>
      </trkpt>
      <trkpt lat="44.68077" lon="3.8435">
        <ele>1096.6</ele>
        <time>2021-08-09T11:17:30Z</time>
      </trkpt>
      <trkpt lat="44.68073" lon="3.84348">
        <ele>1097</ele>
        <time>2021-08-09T11:17:32Z</time>
      </trkpt>
      <trkpt lat="44.68069" lon="3.84345">
        <ele>1097.4</ele>
        <time>2021-08-09T11:17:34Z</time>
      </trkpt>
      <trkpt lat="44.68064" lon="3.84343">
        <ele>1097.9</ele>
        <time>2021-08-09T11:17:36Z</time>
      </trkpt>
      <trkpt lat="44.6806" lon="3.8434">
        <ele>1098.2</ele>
        <time>2021-08-09T11:17:38Z</time>
      </trkpt>
      <trkpt lat="44.68056" lon="3.84337">
        <ele>1098.7</ele>
        <time>2021-08-09T11:17:40Z</time>
      </trkpt>
      <trkpt lat="44.68051" lon="3.84336">
        <ele>1099.2</ele>
        <time>2021-08-09T11:17:42Z</time>
      </trkpt>
      <trkpt lat="44.68048" lon="3.84333">
        <ele>1099.5</ele>
        <time>2021-08-09T11:17:44Z</time>
      </trkpt>
      <trkpt lat="44.68043" lon="3.8433">
        <ele>1100.1</ele>
        <time>2021-08-09T11:17:46Z</time>
      </trkpt>
      <trkpt lat="44.68039" lon="3.84328">
        <ele>1100.6</ele>
        <time>2021-08-09T11:17:48Z</time>
      </trkpt>
      <trkpt lat="44.68035" lon="3.84326">
        <ele>1101.1</ele>
        <time>2021-08-09T11:17:50Z</time>
      </trkpt>
      <trkpt lat="44.68031" lon="3.84323">
        <ele>1101.6</ele>
        <time>2021-08-09T11:17:52Z</time>
      </trkpt>
      <trkpt lat="44.68027" lon="3.84321">
        <ele>1102.2</ele>
        <time>2021-08-09T11:17:54Z</time>
      </trkpt>
      <trkpt lat="44.68023" lon="3.84319">
        <ele>1102.6</ele>
        <time>2021-08-09T11:17:56Z</time>
      </trkpt>
      <trkpt lat="44.6802" lon="3.84317">
        <ele>1103.1</ele>
        <time>2021-08-09T11:17:58Z</time>
      </trkpt>
      <trkpt lat="44.68016" lon="3.84315">
        <ele>1103.6</ele>
        <time>2021-08-09T11:18:00Z</time>
      </trkpt>
      <trkpt lat="44.68012" lon="3.84313">
        <ele>1104.1</ele>
        <time>2021-08-09T11:18:02Z</time>
      </trkpt>
      <trkpt lat="44.68008" lon="3.84311">
        <ele>1104.7</ele>
        <time>2021-08-09T11:18:04Z</time>
      </trkpt>
      <trkpt lat="44.68005" lon="3.84309">
        <ele>1105.1</ele>
        <time>2021-08-09T11:18:06Z</time>
      </trkpt>
      <trkpt lat="44.68001" lon="3.84306">
        <ele>1105.5</ele>
        <time>2021-08-09T11:18:08Z</time>
      </trkpt>
      <trkpt lat="44.67997" lon="3.84304">
        <ele>1105.8</ele>
        <time>2021-08-09T11:18:10Z</time>
      </trkpt>
      <trkpt lat="44.67993" lon="3.84302">
        <ele>1105.9</ele>
        <time>2021-08-09T11:18:12Z</time>
      </trkpt>
      <trkpt lat="44.6799" lon="3.843">
        <ele>1106</ele>
        <time>2021-08-09T11:18:14Z</time>
      </trkpt>
      <trkpt lat="44.67986" lon="3.84298">
        <ele>1106.1</ele>
        <time>2021-08-09T11:18:16Z</time>
      </trkpt>
      <trkpt lat="44.67982" lon="3.84296">
        <ele>1106.2</ele>
        <time>2021-08-09T11:18:18Z</time>
      </trkpt>
      <trkpt lat="44.67978" lon="3.84293">
        <ele>1106.4</ele>
        <time>2021-08-09T11:18:20Z</time>
      </trkpt>
      <trkpt lat="44.67975" lon="3.8429">
        <ele>1106.5</ele>
        <time>2021-08-09T11:18:22Z</time>
      </trkpt>
      <trkpt lat="44.67971" lon="3.84288">
        <ele>1106.6</ele>
        <time>2021-08-09T11:18:24Z</time>
      </trkpt>
      <trkpt lat="44.67967" lon="3.84286">
        <ele>1106.8</ele>
        <time>2021-08-09T11:18:26Z</time>
      </trkpt>
      <trkpt lat="44.67963" lon="3.84284">
        <ele>1106.9</ele>
        <time>2021-08-09T11:18:28Z</time>
      </trkpt>
      <trkpt lat="44.67959" lon="3.84282">
        <ele>1107.1</ele>
        <time>2021-08-09T11:18:30Z</time>
      </trkpt>
      <trkpt lat="44.67956" lon="3.8428">
        <ele>1107.2</ele>
        <time>2021-08-09T11:18:32Z</time>
      </trkpt>
      <trkpt lat="44.67952" lon="3.84278">
        <ele>1107.4</ele>
        <time>2021-08-09T11:18:34Z</time>
      </trkpt>
      <trkpt lat="44.67948" lon="3.84276">
        <ele>1107.6</ele>
        <time>2021-08-09T11:18:36Z</time>
      </trkpt>
      <trkpt lat="44.67945" lon="3.84274">
        <ele>1107.8</ele>
        <time>2021-08-09T11:18:38Z</time>
      </trkpt>
      <trkpt lat="44.67941" lon="3.84272">
        <ele>1108</ele>
        <time>2021-08-09T11:18:40Z</time>
      </trkpt>
      <trkpt lat="44.67937" lon="3.84271">
        <ele>1108.2</ele>
        <time>2021-08-09T11:18:42Z</time>
      </trkpt>
      <trkpt lat="44.67934" lon="3.84271">
        <ele>1108.4</ele>
        <time>2021-08-09T11:18:44Z</time>
      </trkpt>
      <trkpt lat="44.6793" lon="3.84271">
        <ele>1108.6</ele>
        <time>2021-08-09T11:18:46Z</time>
      </trkpt>
      <trkpt lat="44.67928" lon="3.84271">
        <ele>1108.8</ele>
        <time>2021-08-09T11:18:48Z</time>
      </trkpt>
      <trkpt lat="44.67926" lon="3.84269">
        <ele>1108.8</ele>
        <time>2021-08-09T11:18:50Z</time>
      </trkpt>
      <trkpt lat="44.67925" lon="3.84266">
        <ele>1108.8</ele>
        <time>2021-08-09T11:18:52Z</time>
      </trkpt>
      <trkpt lat="44.67926" lon="3.84263">
        <ele>1108.6</ele>
        <time>2021-08-09T11:18:54Z</time>
      </trkpt>
      <trkpt lat="44.6793" lon="3.84262">
        <ele>1108.4</ele>
        <time>2021-08-09T11:18:56Z</time>
      </trkpt>
      <trkpt lat="44.67933" lon="3.84265">
        <ele>1108.2</ele>
        <time>2021-08-09T11:18:58Z</time>
      </trkpt>
      <trkpt lat="44.67932" lon="3.84271">
        <ele>1108.5</ele>
        <time>2021-08-09T11:19:00Z</time>
      </trkpt>
      <trkpt lat="44.67929" lon="3.84274">
        <ele>1108.7</ele>
        <time>2021-08-09T11:19:02Z</time>
      </trkpt>
      <trkpt lat="44.67926" lon="3.84273">
        <ele>1109</ele>
        <time>2021-08-09T11:19:04Z</time>
      </trkpt>
      <trkpt lat="44.67923" lon="3.84271">
        <ele>1109.1</ele>
        <time>2021-08-09T11:19:06Z</time>
      </trkpt>
      <trkpt lat="44.67921" lon="3.84272">
        <ele>1109.3</ele>
        <time>2021-08-09T11:19:08Z</time>
      </trkpt>
      <trkpt lat="44.67918" lon="3.84273">
        <ele>1109.4</ele>
        <time>2021-08-09T11:19:10Z</time>
      </trkpt>
      <trkpt lat="44.67917" lon="3.84275">
        <ele>1109.6</ele>
        <time>2021-08-09T11:19:12Z</time>
      </trkpt>
      <trkpt lat="44.67916" lon="3.84276">
        <ele>1109.6</ele>
        <time>2021-08-09T11:19:14Z</time>
      </trkpt>
      <trkpt lat="44.67916" lon="3.84277">
        <ele>1109.6</ele>
        <time>2021-08-09T11:19:16Z</time>
      </trkpt>
      <trkpt lat="44.67916" lon="3.84277">
        <ele>1109.6</ele>
        <time>2021-08-09T11:19:18Z</time>
      </trkpt>
      <trkpt lat="44.67916" lon="3.84277">
        <ele>1109.6</ele>
        <time>2021-08-09T11:19:20Z</time>
      </trkpt>
      <trkpt lat="44.67916" lon="3.84277">
        <ele>1109.6</ele>
        <time>2021-08-09T11:19:22Z</time>
      </trkpt>
      <trkpt lat="44.67916" lon="3.84277">
        <ele>1109.6</ele>
        <time>2021-08-09T11:19:24Z</time>
      </trkpt>
      <trkpt lat="44.67916" lon="3.84277">
        <ele>1109.6</ele>
        <time>2021-08-09T11:19:26Z</time>
      </trkpt>
      <trkpt lat="44.67915" lon="3.84277">
        <ele>1109.6</ele>
        <time>2021-08-09T11:19:28Z</time>
      </trkpt>
      <trkpt lat="44.67915" lon="3.84277">
        <ele>1109.6</ele>
        <time>2021-08-09T11:19:30Z</time>
      </trkpt>
      <trkpt lat="44.67915" lon="3.84278">
        <ele>1109.6</ele>
        <time>2021-08-09T11:19:32Z</time>
      </trkpt>
      <trkpt lat="44.67914" lon="3.84279">
        <ele>1109.6</ele>
        <time>2021-08-09T11:19:34Z</time>
      </trkpt>
      <trkpt lat="44.67912" lon="3.84282">
        <ele>1109.6</ele>
        <time>2021-08-09T11:19:36Z</time>
      </trkpt>
      <trkpt lat="44.67909" lon="3.84285">
        <ele>1109.6</ele>
        <time>2021-08-09T11:19:38Z</time>
      </trkpt>
      <trkpt lat="44.67907" lon="3.84286">
        <ele>1109.5</ele>
        <time>2021-08-09T11:19:40Z</time>
      </trkpt>
      <trkpt lat="44.67905" lon="3.84286">
        <ele>1109.5</ele>
        <time>2021-08-09T11:19:42Z</time>
      </trkpt>
      <trkpt lat="44.67904" lon="3.84288">
        <ele>1109.5</ele>
        <time>2021-08-09T11:19:44Z</time>
      </trkpt>
      <trkpt lat="44.67904" lon="3.84288">
        <ele>1109.5</ele>
        <time>2021-08-09T11:19:46Z</time>
      </trkpt>
      <trkpt lat="44.67904" lon="3.84288">
        <ele>1109.5</ele>
        <time>2021-08-09T11:19:48Z</time>
      </trkpt>
      <trkpt lat="44.67904" lon="3.84288">
        <ele>1109.5</ele>
        <time>2021-08-09T11:19:50Z</time>
      </trkpt>
      <trkpt lat="44.67904" lon="3.84288">
        <ele>1109.5</ele>
        <time>2021-08-09T11:19:52Z</time>
      </trkpt>
      <trkpt lat="44.6789" lon="3.84302">
        <ele>1109.6</ele>
        <time>2021-08-09T11:20:04Z</time>
      </trkpt>
      <trkpt lat="44.67887" lon="3.84305">
        <ele>1109.6</ele>
        <time>2021-08-09T11:20:06Z</time>
      </trkpt>
      <trkpt lat="44.67884" lon="3.84308">
        <ele>1109.6</ele>
        <time>2021-08-09T11:20:08Z</time>
      </trkpt>
      <trkpt lat="44.67882" lon="3.84311">
        <ele>1109.7</ele>
        <time>2021-08-09T11:20:10Z</time>
      </trkpt>
      <trkpt lat="44.67879" lon="3.84313">
        <ele>1109.7</ele>
        <time>2021-08-09T11:20:12Z</time>
      </trkpt>
      <trkpt lat="44.67876" lon="3.84317">
        <ele>1109.8</ele>
        <time>2021-08-09T11:20:14Z</time>
      </trkpt>
      <trkpt lat="44.67872" lon="3.8432">
        <ele>1109.9</ele>
        <time>2021-08-09T11:20:16Z</time>
      </trkpt>
      <trkpt lat="44.67869" lon="3.84325">
        <ele>1110</ele>
        <time>2021-08-09T11:20:18Z</time>
      </trkpt>
      <trkpt lat="44.67864" lon="3.84329">
        <ele>1110.2</ele>
        <time>2021-08-09T11:20:20Z</time>
      </trkpt>
      <trkpt lat="44.67861" lon="3.84334">
        <ele>1110.4</ele>
        <time>2021-08-09T11:20:22Z</time>
      </trkpt>
      <trkpt lat="44.67857" lon="3.84338">
        <ele>1110.5</ele>
        <time>2021-08-09T11:20:24Z</time>
      </trkpt>
      <trkpt lat="44.67853" lon="3.84341">
        <ele>1110.7</ele>
        <time>2021-08-09T11:20:26Z</time>
      </trkpt>
      <trkpt lat="44.67849" lon="3.84346">
        <ele>1110.8</ele>
        <time>2021-08-09T11:20:28Z</time>
      </trkpt>
      <trkpt lat="44.67846" lon="3.84349">
        <ele>1110.9</ele>
        <time>2021-08-09T11:20:30Z</time>
      </trkpt>
      <trkpt lat="44.67842" lon="3.84353">
        <ele>1111.1</ele>
        <time>2021-08-09T11:20:32Z</time>
      </trkpt>
      <trkpt lat="44.67838" lon="3.84357">
        <ele>1111.2</ele>
        <time>2021-08-09T11:20:34Z</time>
      </trkpt>
      <trkpt lat="44.67835" lon="3.84359">
        <ele>1111.3</ele>
        <time>2021-08-09T11:20:36Z</time>
      </trkpt>
      <trkpt lat="44.67831" lon="3.84364">
        <ele>1111.3</ele>
        <time>2021-08-09T11:20:38Z</time>
      </trkpt>
      <trkpt lat="44.67827" lon="3.84368">
        <ele>1111.2</ele>
        <time>2021-08-09T11:20:40Z</time>
      </trkpt>
      <trkpt lat="44.67823" lon="3.84371">
        <ele>1111.2</ele>
        <time>2021-08-09T11:20:42Z</time>
      </trkpt>
      <trkpt lat="44.6782" lon="3.84375">
        <ele>1111.2</ele>
        <time>2021-08-09T11:20:44Z</time>
      </trkpt>
      <trkpt lat="44.67817" lon="3.84378">
        <ele>1111.2</ele>
        <time>2021-08-09T11:20:46Z</time>
      </trkpt>
      <trkpt lat="44.67814" lon="3.84381">
        <ele>1111.2</ele>
        <time>2021-08-09T11:20:48Z</time>
      </trkpt>
      <trkpt lat="44.67811" lon="3.84384">
        <ele>1111.3</ele>
        <time>2021-08-09T11:20:50Z</time>
      </trkpt>
      <trkpt lat="44.67808" lon="3.84388">
        <ele>1111.4</ele>
        <time>2021-08-09T11:20:52Z</time>
      </trkpt>
      <trkpt lat="44.67805" lon="3.84391">
        <ele>1111.4</ele>
        <time>2021-08-09T11:20:54Z</time>
      </trkpt>
      <trkpt lat="44.67801" lon="3.84394">
        <ele>1111.5</ele>
        <time>2021-08-09T11:20:56Z</time>
      </trkpt>
      <trkpt lat="44.67797" lon="3.84397">
        <ele>1111.6</ele>
        <time>2021-08-09T11:20:58Z</time>
      </trkpt>
      <trkpt lat="44.67794" lon="3.844">
        <ele>1111.7</ele>
        <time>2021-08-09T11:21:00Z</time>
      </trkpt>
      <trkpt lat="44.67791" lon="3.84404">
        <ele>1111.9</ele>
        <time>2021-08-09T11:21:02Z</time>
      </trkpt>
      <trkpt lat="44.67788" lon="3.84407">
        <ele>1112.1</ele>
        <time>2021-08-09T11:21:04Z</time>
      </trkpt>
      <trkpt lat="44.67783" lon="3.84412">
        <ele>1112.3</ele>
        <time>2021-08-09T11:21:06Z</time>
      </trkpt>
      <trkpt lat="44.67779" lon="3.84415">
        <ele>1112.6</ele>
        <time>2021-08-09T11:21:08Z</time>
      </trkpt>
      <trkpt lat="44.67775" lon="3.84419">
        <ele>1112.8</ele>
        <time>2021-08-09T11:21:10Z</time>
      </trkpt>
      <trkpt lat="44.67771" lon="3.8442">
        <ele>1112.8</ele>
        <time>2021-08-09T11:21:12Z</time>
      </trkpt>
      <trkpt lat="44.6777" lon="3.84421">
        <ele>1112.8</ele>
        <time>2021-08-09T11:21:14Z</time>
      </trkpt>
      <trkpt lat="44.67768" lon="3.84421">
        <ele>1112.8</ele>
        <time>2021-08-09T11:21:16Z</time>
      </trkpt>
      <trkpt lat="44.67768" lon="3.84422">
        <ele>1112.8</ele>
        <time>2021-08-09T11:21:18Z</time>
      </trkpt>
      <trkpt lat="44.67767" lon="3.84422">
        <ele>1112.8</ele>
        <time>2021-08-09T11:21:20Z</time>
      </trkpt>
      <trkpt lat="44.67766" lon="3.84422">
        <ele>1112.8</ele>
        <time>2021-08-09T11:21:22Z</time>
      </trkpt>
      <trkpt lat="44.67746" lon="3.84429">
        <ele>1112.6</ele>
        <time>2021-08-09T11:22:12Z</time>
      </trkpt>
      <trkpt lat="44.67744" lon="3.84428">
        <ele>1112.3</ele>
        <time>2021-08-09T11:22:14Z</time>
      </trkpt>
      <trkpt lat="44.6774" lon="3.84428">
        <ele>1112.1</ele>
        <time>2021-08-09T11:22:16Z</time>
      </trkpt>
      <trkpt lat="44.67737" lon="3.84428">
        <ele>1111.7</ele>
        <time>2021-08-09T11:22:18Z</time>
      </trkpt>
      <trkpt lat="44.67732" lon="3.84428">
        <ele>1111.4</ele>
        <time>2021-08-09T11:22:20Z</time>
      </trkpt>
      <trkpt lat="44.67727" lon="3.84428">
        <ele>1111</ele>
        <time>2021-08-09T11:22:22Z</time>
      </trkpt>
      <trkpt lat="44.67722" lon="3.84428">
        <ele>1110.6</ele>
        <time>2021-08-09T11:22:24Z</time>
      </trkpt>
      <trkpt lat="44.67718" lon="3.84426">
        <ele>1110.2</ele>
        <time>2021-08-09T11:22:26Z</time>
      </trkpt>
      <trkpt lat="44.67714" lon="3.84424">
        <ele>1109.6</ele>
        <time>2021-08-09T11:22:28Z</time>
      </trkpt>
      <trkpt lat="44.67714" lon="3.84419">
        <ele>1109.2</ele>
        <time>2021-08-09T11:22:30Z</time>
      </trkpt>
      <trkpt lat="44.67717" lon="3.84415">
        <ele>1109.1</ele>
        <time>2021-08-09T11:22:32Z</time>
      </trkpt>
      <trkpt lat="44.67721" lon="3.84413">
        <ele>1109.1</ele>
        <time>2021-08-09T11:22:34Z</time>
      </trkpt>
      <trkpt lat="44.67721" lon="3.84414">
        <ele>1109.2</ele>
        <time>2021-08-09T11:22:36Z</time>
      </trkpt>
      <trkpt lat="44.67721" lon="3.84414">
        <ele>1109.2</ele>
        <time>2021-08-09T11:22:38Z</time>
      </trkpt>
      <trkpt lat="44.67721" lon="3.84413">
        <ele>1109.1</ele>
        <time>2021-08-09T11:22:40Z</time>
      </trkpt>
      <trkpt lat="44.67721" lon="3.84413">
        <ele>1109.1</ele>
        <time>2021-08-09T11:22:42Z</time>
      </trkpt>
      <trkpt lat="44.67721" lon="3.84413">
        <ele>1109.1</ele>
        <time>2021-08-09T11:22:44Z</time>
      </trkpt>
      <trkpt lat="44.67745" lon="3.84333">
        <ele>1101.5</ele>
        <time>2021-08-09T13:19:00Z</time>
      </trkpt>
      <trkpt lat="44.67745" lon="3.84333">
        <ele>1101.5</ele>
        <time>2021-08-09T13:19:04Z</time>
      </trkpt>
      <trkpt lat="44.67745" lon="3.84332">
        <ele>1101.4</ele>
        <time>2021-08-09T13:19:06Z</time>
      </trkpt>
      <trkpt lat="44.67744" lon="3.8433">
        <ele>1101.2</ele>
        <time>2021-08-09T13:19:08Z</time>
      </trkpt>
      <trkpt lat="44.67745" lon="3.8433">
        <ele>1101.3</ele>
        <time>2021-08-09T13:19:10Z</time>
      </trkpt>
      <trkpt lat="44.67744" lon="3.8433">
        <ele>1101.3</ele>
        <time>2021-08-09T13:19:12Z</time>
      </trkpt>
      <trkpt lat="44.67742" lon="3.84332">
        <ele>1101.2</ele>
        <time>2021-08-09T13:19:14Z</time>
      </trkpt>
      <trkpt lat="44.6774" lon="3.84335">
        <ele>1101.2</ele>
        <time>2021-08-09T13:19:16Z</time>
      </trkpt>
      <trkpt lat="44.67738" lon="3.84338">
        <ele>1101.4</ele>
        <time>2021-08-09T13:19:18Z</time>
      </trkpt>
      <trkpt lat="44.67737" lon="3.84342">
        <ele>1101.7</ele>
        <time>2021-08-09T13:19:20Z</time>
      </trkpt>
      <trkpt lat="44.67736" lon="3.84343">
        <ele>1101.9</ele>
        <time>2021-08-09T13:19:22Z</time>
      </trkpt>
      <trkpt lat="44.67736" lon="3.84342">
        <ele>1101.7</ele>
        <time>2021-08-09T13:19:24Z</time>
      </trkpt>
      <trkpt lat="44.67736" lon="3.84343">
        <ele>1101.8</ele>
        <time>2021-08-09T13:19:26Z</time>
      </trkpt>
      <trkpt lat="44.67737" lon="3.84342">
        <ele>1101.8</ele>
        <time>2021-08-09T13:19:28Z</time>
      </trkpt>
      <trkpt lat="44.67737" lon="3.84342">
        <ele>1101.8</ele>
        <time>2021-08-09T13:19:30Z</time>
      </trkpt>
      <trkpt lat="44.67733" lon="3.84357">
        <ele>1103.2</ele>
        <time>2021-08-09T13:19:44Z</time>
      </trkpt>
      <trkpt lat="44.67731" lon="3.84362">
        <ele>1103.7</ele>
        <time>2021-08-09T13:19:46Z</time>
      </trkpt>
      <trkpt lat="44.67729" lon="3.84367">
        <ele>1104.1</ele>
        <time>2021-08-09T13:19:48Z</time>
      </trkpt>
      <trkpt lat="44.67728" lon="3.84372">
        <ele>1104.6</ele>
        <time>2021-08-09T13:19:50Z</time>
      </trkpt>
      <trkpt lat="44.67725" lon="3.84377">
        <ele>1105</ele>
        <time>2021-08-09T13:19:52Z</time>
      </trkpt>
      <trkpt lat="44.67724" lon="3.84382">
        <ele>1105.5</ele>
        <time>2021-08-09T13:19:54Z</time>
      </trkpt>
      <trkpt lat="44.67721" lon="3.84387">
        <ele>1105.8</ele>
        <time>2021-08-09T13:19:56Z</time>
      </trkpt>
      <trkpt lat="44.6772" lon="3.84393">
        <ele>1106.6</ele>
        <time>2021-08-09T13:19:58Z</time>
      </trkpt>
      <trkpt lat="44.67718" lon="3.84399">
        <ele>1107.1</ele>
        <time>2021-08-09T13:20:00Z</time>
      </trkpt>
      <trkpt lat="44.67717" lon="3.84404">
        <ele>1107.6</ele>
        <time>2021-08-09T13:20:02Z</time>
      </trkpt>
      <trkpt lat="44.67715" lon="3.84409">
        <ele>1108.2</ele>
        <time>2021-08-09T13:20:04Z</time>
      </trkpt>
      <trkpt lat="44.67713" lon="3.84415">
        <ele>1108.7</ele>
        <time>2021-08-09T13:20:06Z</time>
      </trkpt>
      <trkpt lat="44.67712" lon="3.8442">
        <ele>1109.1</ele>
        <time>2021-08-09T13:20:08Z</time>
      </trkpt>
      <trkpt lat="44.67709" lon="3.84424">
        <ele>1109.2</ele>
        <time>2021-08-09T13:20:10Z</time>
      </trkpt>
      <trkpt lat="44.67706" lon="3.84426">
        <ele>1109.2</ele>
        <time>2021-08-09T13:20:12Z</time>
      </trkpt>
      <trkpt lat="44.67702" lon="3.84429">
        <ele>1109.1</ele>
        <time>2021-08-09T13:20:14Z</time>
      </trkpt>
      <trkpt lat="44.67699" lon="3.84429">
        <ele>1108.9</ele>
        <time>2021-08-09T13:20:16Z</time>
      </trkpt>
      <trkpt lat="44.67695" lon="3.84429">
        <ele>1108.5</ele>
        <time>2021-08-09T13:20:18Z</time>
      </trkpt>
      <trkpt lat="44.67691" lon="3.8443">
        <ele>1108.4</ele>
        <time>2021-08-09T13:20:20Z</time>
      </trkpt>
      <trkpt lat="44.67687" lon="3.84431">
        <ele>1108.2</ele>
        <time>2021-08-09T13:20:22Z</time>
      </trkpt>
      <trkpt lat="44.67683" lon="3.84433">
        <ele>1108.1</ele>
        <time>2021-08-09T13:20:24Z</time>
      </trkpt>
      <trkpt lat="44.67679" lon="3.84436">
        <ele>1108</ele>
        <time>2021-08-09T13:20:26Z</time>
      </trkpt>
      <trkpt lat="44.67675" lon="3.84439">
        <ele>1108</ele>
        <time>2021-08-09T13:20:28Z</time>
      </trkpt>
      <trkpt lat="44.67672" lon="3.84442">
        <ele>1108.1</ele>
        <time>2021-08-09T13:20:30Z</time>
      </trkpt>
      <trkpt lat="44.67669" lon="3.84446">
        <ele>1108.3</ele>
        <time>2021-08-09T13:20:32Z</time>
      </trkpt>
      <trkpt lat="44.67666" lon="3.8445">
        <ele>1108.5</ele>
        <time>2021-08-09T13:20:34Z</time>
      </trkpt>
      <trkpt lat="44.67664" lon="3.84454">
        <ele>1109</ele>
        <time>2021-08-09T13:20:36Z</time>
      </trkpt>
      <trkpt lat="44.67662" lon="3.84459">
        <ele>1109.4</ele>
        <time>2021-08-09T13:20:38Z</time>
      </trkpt>
      <trkpt lat="44.67659" lon="3.84462">
        <ele>1109.7</ele>
        <time>2021-08-09T13:20:40Z</time>
      </trkpt>
      <trkpt lat="44.67657" lon="3.84466">
        <ele>1110</ele>
        <time>2021-08-09T13:20:42Z</time>
      </trkpt>
      <trkpt lat="44.67656" lon="3.8447">
        <ele>1110.4</ele>
        <time>2021-08-09T13:20:44Z</time>
      </trkpt>
      <trkpt lat="44.67654" lon="3.84474">
        <ele>1110.8</ele>
        <time>2021-08-09T13:20:46Z</time>
      </trkpt>
      <trkpt lat="44.67652" lon="3.84477">
        <ele>1111.1</ele>
        <time>2021-08-09T13:20:48Z</time>
      </trkpt>
      <trkpt lat="44.6765" lon="3.84481">
        <ele>1111.4</ele>
        <time>2021-08-09T13:20:50Z</time>
      </trkpt>
      <trkpt lat="44.67647" lon="3.84484">
        <ele>1111.7</ele>
        <time>2021-08-09T13:20:52Z</time>
      </trkpt>
      <trkpt lat="44.67645" lon="3.84488">
        <ele>1112</ele>
        <time>2021-08-09T13:20:54Z</time>
      </trkpt>
      <trkpt lat="44.67643" lon="3.84492">
        <ele>1112.4</ele>
        <time>2021-08-09T13:20:56Z</time>
      </trkpt>
      <trkpt lat="44.67642" lon="3.84496">
        <ele>1112.7</ele>
        <time>2021-08-09T13:20:58Z</time>
      </trkpt>
      <trkpt lat="44.6764" lon="3.845">
        <ele>1113.1</ele>
        <time>2021-08-09T13:21:00Z</time>
      </trkpt>
      <trkpt lat="44.67638" lon="3.84503">
        <ele>1113.3</ele>
        <time>2021-08-09T13:21:02Z</time>
      </trkpt>
      <trkpt lat="44.67634" lon="3.84505">
        <ele>1113.4</ele>
        <time>2021-08-09T13:21:04Z</time>
      </trkpt>
      <trkpt lat="44.67631" lon="3.84508">
        <ele>1113.6</ele>
        <time>2021-08-09T13:21:06Z</time>
      </trkpt>
      <trkpt lat="44.67629" lon="3.8451">
        <ele>1113.8</ele>
        <time>2021-08-09T13:21:08Z</time>
      </trkpt>
      <trkpt lat="44.67625" lon="3.84512">
        <ele>1113.9</ele>
        <time>2021-08-09T13:21:10Z</time>
      </trkpt>
      <trkpt lat="44.67622" lon="3.84514">
        <ele>1114</ele>
        <time>2021-08-09T13:21:12Z</time>
      </trkpt>
      <trkpt lat="44.67619" lon="3.84516">
        <ele>1114.1</ele>
        <time>2021-08-09T13:21:14Z</time>
      </trkpt>
      <trkpt lat="44.67615" lon="3.84518">
        <ele>1114.2</ele>
        <time>2021-08-09T13:21:16Z</time>
      </trkpt>
      <trkpt lat="44.67612" lon="3.8452">
        <ele>1114.3</ele>
        <time>2021-08-09T13:21:18Z</time>
      </trkpt>
      <trkpt lat="44.67609" lon="3.84521">
        <ele>1114.4</ele>
        <time>2021-08-09T13:21:20Z</time>
      </trkpt>
      <trkpt lat="44.67605" lon="3.84523">
        <ele>1114.5</ele>
        <time>2021-08-09T13:21:22Z</time>
      </trkpt>
      <trkpt lat="44.67602" lon="3.84525">
        <ele>1114.6</ele>
        <time>2021-08-09T13:21:24Z</time>
      </trkpt>
      <trkpt lat="44.67599" lon="3.84528">
        <ele>1114.8</ele>
        <time>2021-08-09T13:21:26Z</time>
      </trkpt>
      <trkpt lat="44.67595" lon="3.84529">
        <ele>1114.9</ele>
        <time>2021-08-09T13:21:28Z</time>
      </trkpt>
      <trkpt lat="44.67592" lon="3.8453">
        <ele>1114.9</ele>
        <time>2021-08-09T13:21:30Z</time>
      </trkpt>
      <trkpt lat="44.67589" lon="3.84531">
        <ele>1115</ele>
        <time>2021-08-09T13:21:32Z</time>
      </trkpt>
      <trkpt lat="44.67585" lon="3.84533">
        <ele>1115</ele>
        <time>2021-08-09T13:21:34Z</time>
      </trkpt>
      <trkpt lat="44.67582" lon="3.84534">
        <ele>1115.2</ele>
        <time>2021-08-09T13:21:36Z</time>
      </trkpt>
      <trkpt lat="44.67579" lon="3.84536">
        <ele>1115.5</ele>
        <time>2021-08-09T13:21:38Z</time>
      </trkpt>
      <trkpt lat="44.67575" lon="3.84536">
        <ele>1115.7</ele>
        <time>2021-08-09T13:21:40Z</time>
      </trkpt>
      <trkpt lat="44.67571" lon="3.84537">
        <ele>1115.9</ele>
        <time>2021-08-09T13:21:42Z</time>
      </trkpt>
      <trkpt lat="44.67568" lon="3.84537">
        <ele>1116</ele>
        <time>2021-08-09T13:21:44Z</time>
      </trkpt>
      <trkpt lat="44.67564" lon="3.84538">
        <ele>1116.3</ele>
        <time>2021-08-09T13:21:46Z</time>
      </trkpt>
      <trkpt lat="44.67561" lon="3.84539">
        <ele>1116.5</ele>
        <time>2021-08-09T13:21:48Z</time>
      </trkpt>
      <trkpt lat="44.67557" lon="3.84539">
        <ele>1116.6</ele>
        <time>2021-08-09T13:21:50Z</time>
      </trkpt>
      <trkpt lat="44.67553" lon="3.8454">
        <ele>1116.9</ele>
        <time>2021-08-09T13:21:52Z</time>
      </trkpt>
      <trkpt lat="44.67549" lon="3.84541">
        <ele>1117.1</ele>
        <time>2021-08-09T13:21:54Z</time>
      </trkpt>
      <trkpt lat="44.67546" lon="3.84542">
        <ele>1117.4</ele>
        <time>2021-08-09T13:21:56Z</time>
      </trkpt>
      <trkpt lat="44.67542" lon="3.84543">
        <ele>1117.6</ele>
        <time>2021-08-09T13:21:58Z</time>
      </trkpt>
      <trkpt lat="44.67539" lon="3.84544">
        <ele>1117.8</ele>
        <time>2021-08-09T13:22:00Z</time>
      </trkpt>
      <trkpt lat="44.67534" lon="3.84544">
        <ele>1118</ele>
        <time>2021-08-09T13:22:02Z</time>
      </trkpt>
      <trkpt lat="44.67531" lon="3.84545">
        <ele>1118.3</ele>
        <time>2021-08-09T13:22:04Z</time>
      </trkpt>
      <trkpt lat="44.67526" lon="3.84546">
        <ele>1118.5</ele>
        <time>2021-08-09T13:22:06Z</time>
      </trkpt>
      <trkpt lat="44.67523" lon="3.84547">
        <ele>1118.8</ele>
        <time>2021-08-09T13:22:08Z</time>
      </trkpt>
      <trkpt lat="44.67519" lon="3.84547">
        <ele>1118.9</ele>
        <time>2021-08-09T13:22:10Z</time>
      </trkpt>
      <trkpt lat="44.67515" lon="3.84548">
        <ele>1119.2</ele>
        <time>2021-08-09T13:22:12Z</time>
      </trkpt>
      <trkpt lat="44.67511" lon="3.84549">
        <ele>1119.5</ele>
        <time>2021-08-09T13:22:14Z</time>
      </trkpt>
      <trkpt lat="44.67507" lon="3.84549">
        <ele>1119.6</ele>
        <time>2021-08-09T13:22:16Z</time>
      </trkpt>
      <trkpt lat="44.67503" lon="3.8455">
        <ele>1119.9</ele>
        <time>2021-08-09T13:22:18Z</time>
      </trkpt>
      <trkpt lat="44.67499" lon="3.84552">
        <ele>1120.2</ele>
        <time>2021-08-09T13:22:20Z</time>
      </trkpt>
      <trkpt lat="44.67495" lon="3.84553">
        <ele>1120.7</ele>
        <time>2021-08-09T13:22:22Z</time>
      </trkpt>
      <trkpt lat="44.67491" lon="3.84554">
        <ele>1121.1</ele>
        <time>2021-08-09T13:22:24Z</time>
      </trkpt>
      <trkpt lat="44.67487" lon="3.84555">
        <ele>1121.5</ele>
        <time>2021-08-09T13:22:26Z</time>
      </trkpt>
      <trkpt lat="44.67483" lon="3.84557">
        <ele>1122</ele>
        <time>2021-08-09T13:22:28Z</time>
      </trkpt>
      <trkpt lat="44.6748" lon="3.84558">
        <ele>1122.4</ele>
        <time>2021-08-09T13:22:30Z</time>
      </trkpt>
      <trkpt lat="44.67476" lon="3.84558">
        <ele>1122.8</ele>
        <time>2021-08-09T13:22:32Z</time>
      </trkpt>
      <trkpt lat="44.67472" lon="3.84559">
        <ele>1123.1</ele>
        <time>2021-08-09T13:22:34Z</time>
      </trkpt>
      <trkpt lat="44.67468" lon="3.8456">
        <ele>1123.5</ele>
        <time>2021-08-09T13:22:36Z</time>
      </trkpt>
      <trkpt lat="44.67464" lon="3.8456">
        <ele>1123.8</ele>
        <time>2021-08-09T13:22:38Z</time>
      </trkpt>
      <trkpt lat="44.6746" lon="3.8456">
        <ele>1124.1</ele>
        <time>2021-08-09T13:22:40Z</time>
      </trkpt>
      <trkpt lat="44.67456" lon="3.84561">
        <ele>1124.5</ele>
        <time>2021-08-09T13:22:42Z</time>
      </trkpt>
      <trkpt lat="44.67452" lon="3.84562">
        <ele>1124.8</ele>
        <time>2021-08-09T13:22:44Z</time>
      </trkpt>
      <trkpt lat="44.6745" lon="3.84562">
        <ele>1125.1</ele>
        <time>2021-08-09T13:22:46Z</time>
      </trkpt>
      <trkpt lat="44.67449" lon="3.84561">
        <ele>1124.9</ele>
        <time>2021-08-09T13:22:48Z</time>
      </trkpt>
      <trkpt lat="44.6745" lon="3.84561">
        <ele>1124.9</ele>
        <time>2021-08-09T13:22:50Z</time>
      </trkpt>
      <trkpt lat="44.6745" lon="3.84561">
        <ele>1124.9</ele>
        <time>2021-08-09T13:22:52Z</time>
      </trkpt>
      <trkpt lat="44.67449" lon="3.84561">
        <ele>1125</ele>
        <time>2021-08-09T13:22:54Z</time>
      </trkpt>
      <trkpt lat="44.67438" lon="3.84566">
        <ele>1126.4</ele>
        <time>2021-08-09T13:23:14Z</time>
      </trkpt>
      <trkpt lat="44.67435" lon="3.84566">
        <ele>1126.6</ele>
        <time>2021-08-09T13:23:16Z</time>
      </trkpt>
      <trkpt lat="44.67432" lon="3.84567">
        <ele>1127</ele>
        <time>2021-08-09T13:23:18Z</time>
      </trkpt>
      <trkpt lat="44.67428" lon="3.84568">
        <ele>1127.3</ele>
        <time>2021-08-09T13:23:20Z</time>
      </trkpt>
      <trkpt lat="44.67425" lon="3.84567">
        <ele>1127.5</ele>
        <time>2021-08-09T13:23:22Z</time>
      </trkpt>
      <trkpt lat="44.67422" lon="3.84568">
        <ele>1127.8</ele>
        <time>2021-08-09T13:23:24Z</time>
      </trkpt>
      <trkpt lat="44.67418" lon="3.84568">
        <ele>1128.1</ele>
        <time>2021-08-09T13:23:26Z</time>
      </trkpt>
      <trkpt lat="44.67415" lon="3.84569">
        <ele>1128.4</ele>
        <time>2021-08-09T13:23:28Z</time>
      </trkpt>
      <trkpt lat="44.67412" lon="3.8457">
        <ele>1128.8</ele>
        <time>2021-08-09T13:23:30Z</time>
      </trkpt>
      <trkpt lat="44.6741" lon="3.8457">
        <ele>1129.1</ele>
        <time>2021-08-09T13:23:32Z</time>
      </trkpt>
      <trkpt lat="44.67407" lon="3.84571">
        <ele>1129.5</ele>
        <time>2021-08-09T13:23:34Z</time>
      </trkpt>
      <trkpt lat="44.67404" lon="3.84572">
        <ele>1129.9</ele>
        <time>2021-08-09T13:23:36Z</time>
      </trkpt>
      <trkpt lat="44.67401" lon="3.84572">
        <ele>1130.2</ele>
        <time>2021-08-09T13:23:38Z</time>
      </trkpt>
      <trkpt lat="44.67398" lon="3.84573">
        <ele>1130.6</ele>
        <time>2021-08-09T13:23:40Z</time>
      </trkpt>
      <trkpt lat="44.67395" lon="3.84573">
        <ele>1130.9</ele>
        <time>2021-08-09T13:23:42Z</time>
      </trkpt>
      <trkpt lat="44.67392" lon="3.84574">
        <ele>1131.3</ele>
        <time>2021-08-09T13:23:44Z</time>
      </trkpt>
      <trkpt lat="44.67389" lon="3.84574">
        <ele>1131.6</ele>
        <time>2021-08-09T13:23:46Z</time>
      </trkpt>
      <trkpt lat="44.67386" lon="3.84574">
        <ele>1131.9</ele>
        <time>2021-08-09T13:23:48Z</time>
      </trkpt>
      <trkpt lat="44.67383" lon="3.84575">
        <ele>1132.3</ele>
        <time>2021-08-09T13:23:50Z</time>
      </trkpt>
      <trkpt lat="44.6738" lon="3.84576">
        <ele>1132.6</ele>
        <time>2021-08-09T13:23:52Z</time>
      </trkpt>
      <trkpt lat="44.67377" lon="3.84575">
        <ele>1132.8</ele>
        <time>2021-08-09T13:23:54Z</time>
      </trkpt>
      <trkpt lat="44.67374" lon="3.84576">
        <ele>1133.2</ele>
        <time>2021-08-09T13:23:56Z</time>
      </trkpt>
      <trkpt lat="44.67371" lon="3.84577">
        <ele>1133.6</ele>
        <time>2021-08-09T13:23:58Z</time>
      </trkpt>
      <trkpt lat="44.67368" lon="3.84578">
        <ele>1134</ele>
        <time>2021-08-09T13:24:00Z</time>
      </trkpt>
      <trkpt lat="44.67366" lon="3.84578">
        <ele>1134.3</ele>
        <time>2021-08-09T13:24:02Z</time>
      </trkpt>
      <trkpt lat="44.67363" lon="3.84579">
        <ele>1134.6</ele>
        <time>2021-08-09T13:24:04Z</time>
      </trkpt>
      <trkpt lat="44.6736" lon="3.84579">
        <ele>1135</ele>
        <time>2021-08-09T13:24:06Z</time>
      </trkpt>
      <trkpt lat="44.67358" lon="3.8458">
        <ele>1135.3</ele>
        <time>2021-08-09T13:24:08Z</time>
      </trkpt>
      <trkpt lat="44.67355" lon="3.84581">
        <ele>1135.7</ele>
        <time>2021-08-09T13:24:10Z</time>
      </trkpt>
      <trkpt lat="44.67352" lon="3.84582">
        <ele>1136.1</ele>
        <time>2021-08-09T13:24:12Z</time>
      </trkpt>
      <trkpt lat="44.67349" lon="3.84583">
        <ele>1136.5</ele>
        <time>2021-08-09T13:24:14Z</time>
      </trkpt>
      <trkpt lat="44.67346" lon="3.84584">
        <ele>1136.9</ele>
        <time>2021-08-09T13:24:16Z</time>
      </trkpt>
      <trkpt lat="44.67343" lon="3.84585">
        <ele>1137.2</ele>
        <time>2021-08-09T13:24:18Z</time>
      </trkpt>
      <trkpt lat="44.6734" lon="3.84587">
        <ele>1137.6</ele>
        <time>2021-08-09T13:24:20Z</time>
      </trkpt>
      <trkpt lat="44.67337" lon="3.84588">
        <ele>1138</ele>
        <time>2021-08-09T13:24:22Z</time>
      </trkpt>
      <trkpt lat="44.67334" lon="3.84589">
        <ele>1138.3</ele>
        <time>2021-08-09T13:24:24Z</time>
      </trkpt>
      <trkpt lat="44.67331" lon="3.84591">
        <ele>1138.7</ele>
        <time>2021-08-09T13:24:26Z</time>
      </trkpt>
      <trkpt lat="44.67329" lon="3.84593">
        <ele>1139.1</ele>
        <time>2021-08-09T13:24:28Z</time>
      </trkpt>
      <trkpt lat="44.67326" lon="3.84594">
        <ele>1139.5</ele>
        <time>2021-08-09T13:24:30Z</time>
      </trkpt>
      <trkpt lat="44.67323" lon="3.84597">
        <ele>1139.9</ele>
        <time>2021-08-09T13:24:32Z</time>
      </trkpt>
      <trkpt lat="44.6732" lon="3.84598">
        <ele>1140.3</ele>
        <time>2021-08-09T13:24:34Z</time>
      </trkpt>
      <trkpt lat="44.67318" lon="3.846">
        <ele>1140.7</ele>
        <time>2021-08-09T13:24:36Z</time>
      </trkpt>
      <trkpt lat="44.67315" lon="3.84602">
        <ele>1141.1</ele>
        <time>2021-08-09T13:24:38Z</time>
      </trkpt>
      <trkpt lat="44.67313" lon="3.84605">
        <ele>1141.4</ele>
        <time>2021-08-09T13:24:40Z</time>
      </trkpt>
      <trkpt lat="44.6731" lon="3.84606">
        <ele>1141.8</ele>
        <time>2021-08-09T13:24:42Z</time>
      </trkpt>
      <trkpt lat="44.67307" lon="3.84608">
        <ele>1142.1</ele>
        <time>2021-08-09T13:24:44Z</time>
      </trkpt>
      <trkpt lat="44.67305" lon="3.84609">
        <ele>1142.5</ele>
        <time>2021-08-09T13:24:46Z</time>
      </trkpt>
      <trkpt lat="44.67302" lon="3.84612">
        <ele>1142.9</ele>
        <time>2021-08-09T13:24:48Z</time>
      </trkpt>
      <trkpt lat="44.67299" lon="3.84614">
        <ele>1143.3</ele>
        <time>2021-08-09T13:24:50Z</time>
      </trkpt>
      <trkpt lat="44.67297" lon="3.84616">
        <ele>1143.7</ele>
        <time>2021-08-09T13:24:52Z</time>
      </trkpt>
      <trkpt lat="44.67294" lon="3.84618">
        <ele>1144.1</ele>
        <time>2021-08-09T13:24:54Z</time>
      </trkpt>
      <trkpt lat="44.67291" lon="3.8462">
        <ele>1144.5</ele>
        <time>2021-08-09T13:24:56Z</time>
      </trkpt>
      <trkpt lat="44.67288" lon="3.84621">
        <ele>1144.8</ele>
        <time>2021-08-09T13:24:58Z</time>
      </trkpt>
      <trkpt lat="44.67285" lon="3.84623">
        <ele>1145.2</ele>
        <time>2021-08-09T13:25:00Z</time>
      </trkpt>
      <trkpt lat="44.67282" lon="3.84625">
        <ele>1145.6</ele>
        <time>2021-08-09T13:25:02Z</time>
      </trkpt>
      <trkpt lat="44.67279" lon="3.84627">
        <ele>1146</ele>
        <time>2021-08-09T13:25:04Z</time>
      </trkpt>
      <trkpt lat="44.67276" lon="3.84629">
        <ele>1146.4</ele>
        <time>2021-08-09T13:25:06Z</time>
      </trkpt>
      <trkpt lat="44.67274" lon="3.8463">
        <ele>1146.7</ele>
        <time>2021-08-09T13:25:08Z</time>
      </trkpt>
      <trkpt lat="44.67271" lon="3.84632">
        <ele>1147.1</ele>
        <time>2021-08-09T13:25:10Z</time>
      </trkpt>
      <trkpt lat="44.67268" lon="3.84633">
        <ele>1147.4</ele>
        <time>2021-08-09T13:25:12Z</time>
      </trkpt>
      <trkpt lat="44.67265" lon="3.84635">
        <ele>1147.8</ele>
        <time>2021-08-09T13:25:14Z</time>
      </trkpt>
      <trkpt lat="44.67262" lon="3.84636">
        <ele>1148.1</ele>
        <time>2021-08-09T13:25:16Z</time>
      </trkpt>
      <trkpt lat="44.67259" lon="3.84637">
        <ele>1148.4</ele>
        <time>2021-08-09T13:25:18Z</time>
      </trkpt>
      <trkpt lat="44.67256" lon="3.84638">
        <ele>1148.7</ele>
        <time>2021-08-09T13:25:20Z</time>
      </trkpt>
      <trkpt lat="44.67253" lon="3.84639">
        <ele>1149.1</ele>
        <time>2021-08-09T13:25:22Z</time>
      </trkpt>
      <trkpt lat="44.6725" lon="3.84639">
        <ele>1149.3</ele>
        <time>2021-08-09T13:25:24Z</time>
      </trkpt>
      <trkpt lat="44.67247" lon="3.8464">
        <ele>1149.6</ele>
        <time>2021-08-09T13:25:26Z</time>
      </trkpt>
      <trkpt lat="44.67244" lon="3.8464">
        <ele>1149.8</ele>
        <time>2021-08-09T13:25:28Z</time>
      </trkpt>
      <trkpt lat="44.67241" lon="3.8464">
        <ele>1150</ele>
        <time>2021-08-09T13:25:30Z</time>
      </trkpt>
      <trkpt lat="44.67237" lon="3.84641">
        <ele>1150.2</ele>
        <time>2021-08-09T13:25:32Z</time>
      </trkpt>
      <trkpt lat="44.67234" lon="3.84641">
        <ele>1150.4</ele>
        <time>2021-08-09T13:25:34Z</time>
      </trkpt>
      <trkpt lat="44.67231" lon="3.8464">
        <ele>1150.6</ele>
        <time>2021-08-09T13:25:36Z</time>
      </trkpt>
      <trkpt lat="44.67228" lon="3.8464">
        <ele>1150.8</ele>
        <time>2021-08-09T13:25:38Z</time>
      </trkpt>
      <trkpt lat="44.67225" lon="3.8464">
        <ele>1151</ele>
        <time>2021-08-09T13:25:40Z</time>
      </trkpt>
      <trkpt lat="44.67221" lon="3.84639">
        <ele>1151.2</ele>
        <time>2021-08-09T13:25:42Z</time>
      </trkpt>
      <trkpt lat="44.67219" lon="3.84639">
        <ele>1151.4</ele>
        <time>2021-08-09T13:25:44Z</time>
      </trkpt>
      <trkpt lat="44.67215" lon="3.84639">
        <ele>1151.6</ele>
        <time>2021-08-09T13:25:46Z</time>
      </trkpt>
      <trkpt lat="44.67212" lon="3.84639">
        <ele>1151.7</ele>
        <time>2021-08-09T13:25:48Z</time>
      </trkpt>
      <trkpt lat="44.67209" lon="3.84638">
        <ele>1151.9</ele>
        <time>2021-08-09T13:25:50Z</time>
      </trkpt>
      <trkpt lat="44.67205" lon="3.84638">
        <ele>1152.1</ele>
        <time>2021-08-09T13:25:52Z</time>
      </trkpt>
      <trkpt lat="44.67202" lon="3.84637">
        <ele>1152.3</ele>
        <time>2021-08-09T13:25:54Z</time>
      </trkpt>
      <trkpt lat="44.67198" lon="3.84637">
        <ele>1152.6</ele>
        <time>2021-08-09T13:25:56Z</time>
      </trkpt>
      <trkpt lat="44.67194" lon="3.84637">
        <ele>1152.8</ele>
        <time>2021-08-09T13:25:58Z</time>
      </trkpt>
      <trkpt lat="44.67191" lon="3.84636">
        <ele>1153</ele>
        <time>2021-08-09T13:26:00Z</time>
      </trkpt>
      <trkpt lat="44.67187" lon="3.84636">
        <ele>1153.2</ele>
        <time>2021-08-09T13:26:02Z</time>
      </trkpt>
      <trkpt lat="44.67184" lon="3.84636">
        <ele>1153.4</ele>
        <time>2021-08-09T13:26:04Z</time>
      </trkpt>
      <trkpt lat="44.6718" lon="3.84636">
        <ele>1153.7</ele>
        <time>2021-08-09T13:26:06Z</time>
      </trkpt>
      <trkpt lat="44.67177" lon="3.84636">
        <ele>1153.9</ele>
        <time>2021-08-09T13:26:08Z</time>
      </trkpt>
      <trkpt lat="44.67173" lon="3.84636">
        <ele>1154.1</ele>
        <time>2021-08-09T13:26:10Z</time>
      </trkpt>
      <trkpt lat="44.67169" lon="3.84636">
        <ele>1154.4</ele>
        <time>2021-08-09T13:26:12Z</time>
      </trkpt>
      <trkpt lat="44.67165" lon="3.84635">
        <ele>1154.6</ele>
        <time>2021-08-09T13:26:14Z</time>
      </trkpt>
      <trkpt lat="44.67161" lon="3.84636">
        <ele>1154.7</ele>
        <time>2021-08-09T13:26:16Z</time>
      </trkpt>
      <trkpt lat="44.67157" lon="3.84636">
        <ele>1154.9</ele>
        <time>2021-08-09T13:26:18Z</time>
      </trkpt>
      <trkpt lat="44.67154" lon="3.84637">
        <ele>1155</ele>
        <time>2021-08-09T13:26:20Z</time>
      </trkpt>
      <trkpt lat="44.67149" lon="3.84638">
        <ele>1155.2</ele>
        <time>2021-08-09T13:26:22Z</time>
      </trkpt>
      <trkpt lat="44.67145" lon="3.84639">
        <ele>1155.3</ele>
        <time>2021-08-09T13:26:24Z</time>
      </trkpt>
      <trkpt lat="44.67142" lon="3.8464">
        <ele>1155.5</ele>
        <time>2021-08-09T13:26:26Z</time>
      </trkpt>
      <trkpt lat="44.67138" lon="3.84641">
        <ele>1155.7</ele>
        <time>2021-08-09T13:26:28Z</time>
      </trkpt>
      <trkpt lat="44.67134" lon="3.84642">
        <ele>1155.8</ele>
        <time>2021-08-09T13:26:30Z</time>
      </trkpt>
      <trkpt lat="44.67131" lon="3.84643">
        <ele>1156</ele>
        <time>2021-08-09T13:26:32Z</time>
      </trkpt>
      <trkpt lat="44.67127" lon="3.84645">
        <ele>1156.1</ele>
        <time>2021-08-09T13:26:34Z</time>
      </trkpt>
      <trkpt lat="44.67123" lon="3.84645">
        <ele>1156.3</ele>
        <time>2021-08-09T13:26:36Z</time>
      </trkpt>
      <trkpt lat="44.6712" lon="3.84647">
        <ele>1156.4</ele>
        <time>2021-08-09T13:26:38Z</time>
      </trkpt>
      <trkpt lat="44.67116" lon="3.84649">
        <ele>1156.6</ele>
        <time>2021-08-09T13:26:40Z</time>
      </trkpt>
      <trkpt lat="44.67113" lon="3.8465">
        <ele>1156.7</ele>
        <time>2021-08-09T13:26:42Z</time>
      </trkpt>
      <trkpt lat="44.67109" lon="3.84651">
        <ele>1156.9</ele>
        <time>2021-08-09T13:26:44Z</time>
      </trkpt>
      <trkpt lat="44.67104" lon="3.84653">
        <ele>1157.1</ele>
        <time>2021-08-09T13:26:46Z</time>
      </trkpt>
      <trkpt lat="44.671" lon="3.84654">
        <ele>1157.2</ele>
        <time>2021-08-09T13:26:48Z</time>
      </trkpt>
      <trkpt lat="44.67096" lon="3.84656">
        <ele>1157.4</ele>
        <time>2021-08-09T13:26:50Z</time>
      </trkpt>
      <trkpt lat="44.67092" lon="3.84658">
        <ele>1157.6</ele>
        <time>2021-08-09T13:26:52Z</time>
      </trkpt>
      <trkpt lat="44.67088" lon="3.8466">
        <ele>1157.7</ele>
        <time>2021-08-09T13:26:54Z</time>
      </trkpt>
      <trkpt lat="44.67083" lon="3.84662">
        <ele>1157.9</ele>
        <time>2021-08-09T13:26:56Z</time>
      </trkpt>
      <trkpt lat="44.67079" lon="3.84664">
        <ele>1158.1</ele>
        <time>2021-08-09T13:26:58Z</time>
      </trkpt>
      <trkpt lat="44.67075" lon="3.84666">
        <ele>1158.3</ele>
        <time>2021-08-09T13:27:00Z</time>
      </trkpt>
      <trkpt lat="44.6707" lon="3.84668">
        <ele>1158.5</ele>
        <time>2021-08-09T13:27:02Z</time>
      </trkpt>
      <trkpt lat="44.67065" lon="3.84671">
        <ele>1158.6</ele>
        <time>2021-08-09T13:27:04Z</time>
      </trkpt>
      <trkpt lat="44.6706" lon="3.84674">
        <ele>1158.8</ele>
        <time>2021-08-09T13:27:06Z</time>
      </trkpt>
      <trkpt lat="44.67054" lon="3.84675">
        <ele>1159</ele>
        <time>2021-08-09T13:27:08Z</time>
      </trkpt>
      <trkpt lat="44.67049" lon="3.84677">
        <ele>1159.1</ele>
        <time>2021-08-09T13:27:10Z</time>
      </trkpt>
      <trkpt lat="44.67043" lon="3.8468">
        <ele>1159.3</ele>
        <time>2021-08-09T13:27:12Z</time>
      </trkpt>
      <trkpt lat="44.67038" lon="3.84682">
        <ele>1159.5</ele>
        <time>2021-08-09T13:27:14Z</time>
      </trkpt>
      <trkpt lat="44.67034" lon="3.84685">
        <ele>1159.6</ele>
        <time>2021-08-09T13:27:16Z</time>
      </trkpt>
      <trkpt lat="44.67029" lon="3.84688">
        <ele>1159.7</ele>
        <time>2021-08-09T13:27:18Z</time>
      </trkpt>
      <trkpt lat="44.67024" lon="3.84691">
        <ele>1159.8</ele>
        <time>2021-08-09T13:27:20Z</time>
      </trkpt>
      <trkpt lat="44.67019" lon="3.84694">
        <ele>1160</ele>
        <time>2021-08-09T13:27:22Z</time>
      </trkpt>
      <trkpt lat="44.67015" lon="3.84698">
        <ele>1160.1</ele>
        <time>2021-08-09T13:27:24Z</time>
      </trkpt>
      <trkpt lat="44.6701" lon="3.84701">
        <ele>1160.2</ele>
        <time>2021-08-09T13:27:26Z</time>
      </trkpt>
      <trkpt lat="44.67005" lon="3.84705">
        <ele>1160.4</ele>
        <time>2021-08-09T13:27:28Z</time>
      </trkpt>
      <trkpt lat="44.66999" lon="3.84709">
        <ele>1160.5</ele>
        <time>2021-08-09T13:27:30Z</time>
      </trkpt>
      <trkpt lat="44.66994" lon="3.84713">
        <ele>1160.6</ele>
        <time>2021-08-09T13:27:32Z</time>
      </trkpt>
      <trkpt lat="44.66988" lon="3.84715">
        <ele>1160.7</ele>
        <time>2021-08-09T13:27:34Z</time>
      </trkpt>
      <trkpt lat="44.66982" lon="3.84717">
        <ele>1160.8</ele>
        <time>2021-08-09T13:27:36Z</time>
      </trkpt>
      <trkpt lat="44.66977" lon="3.84719">
        <ele>1160.9</ele>
        <time>2021-08-09T13:27:38Z</time>
      </trkpt>
      <trkpt lat="44.66971" lon="3.84721">
        <ele>1161</ele>
        <time>2021-08-09T13:27:40Z</time>
      </trkpt>
      <trkpt lat="44.66964" lon="3.84722">
        <ele>1161.1</ele>
        <time>2021-08-09T13:27:42Z</time>
      </trkpt>
      <trkpt lat="44.66958" lon="3.84723">
        <ele>1161.1</ele>
        <time>2021-08-09T13:27:44Z</time>
      </trkpt>
      <trkpt lat="44.66952" lon="3.84723">
        <ele>1161.3</ele>
        <time>2021-08-09T13:27:46Z</time>
      </trkpt>
      <trkpt lat="44.66945" lon="3.84722">
        <ele>1161.4</ele>
        <time>2021-08-09T13:27:48Z</time>
      </trkpt>
      <trkpt lat="44.66939" lon="3.84722">
        <ele>1161.6</ele>
        <time>2021-08-09T13:27:50Z</time>
      </trkpt>
      <trkpt lat="44.66932" lon="3.84722">
        <ele>1161.7</ele>
        <time>2021-08-09T13:27:52Z</time>
      </trkpt>
      <trkpt lat="44.66925" lon="3.84721">
        <ele>1161.9</ele>
        <time>2021-08-09T13:27:54Z</time>
      </trkpt>
      <trkpt lat="44.66919" lon="3.8472">
        <ele>1162</ele>
        <time>2021-08-09T13:27:56Z</time>
      </trkpt>
      <trkpt lat="44.66912" lon="3.8472">
        <ele>1162.2</ele>
        <time>2021-08-09T13:27:58Z</time>
      </trkpt>
      <trkpt lat="44.66905" lon="3.84718">
        <ele>1162.5</ele>
        <time>2021-08-09T13:28:00Z</time>
      </trkpt>
      <trkpt lat="44.66898" lon="3.84718">
        <ele>1162.7</ele>
        <time>2021-08-09T13:28:02Z</time>
      </trkpt>
      <trkpt lat="44.66892" lon="3.84717">
        <ele>1162.9</ele>
        <time>2021-08-09T13:28:04Z</time>
      </trkpt>
      <trkpt lat="44.66885" lon="3.84717">
        <ele>1163.1</ele>
        <time>2021-08-09T13:28:06Z</time>
      </trkpt>
      <trkpt lat="44.66879" lon="3.84716">
        <ele>1163.3</ele>
        <time>2021-08-09T13:28:08Z</time>
      </trkpt>
      <trkpt lat="44.66873" lon="3.84716">
        <ele>1163.5</ele>
        <time>2021-08-09T13:28:10Z</time>
      </trkpt>
      <trkpt lat="44.66867" lon="3.84716">
        <ele>1163.6</ele>
        <time>2021-08-09T13:28:12Z</time>
      </trkpt>
      <trkpt lat="44.66862" lon="3.84716">
        <ele>1163.8</ele>
        <time>2021-08-09T13:28:14Z</time>
      </trkpt>
      <trkpt lat="44.66856" lon="3.84716">
        <ele>1164</ele>
        <time>2021-08-09T13:28:16Z</time>
      </trkpt>
      <trkpt lat="44.6685" lon="3.84716">
        <ele>1164.2</ele>
        <time>2021-08-09T13:28:18Z</time>
      </trkpt>
      <trkpt lat="44.66845" lon="3.84715">
        <ele>1164.4</ele>
        <time>2021-08-09T13:28:20Z</time>
      </trkpt>
      <trkpt lat="44.66839" lon="3.84715">
        <ele>1164.5</ele>
        <time>2021-08-09T13:28:22Z</time>
      </trkpt>
      <trkpt lat="44.66833" lon="3.84716">
        <ele>1164.6</ele>
        <time>2021-08-09T13:28:24Z</time>
      </trkpt>
      <trkpt lat="44.66828" lon="3.84715">
        <ele>1164.9</ele>
        <time>2021-08-09T13:28:26Z</time>
      </trkpt>
      <trkpt lat="44.66823" lon="3.84715">
        <ele>1165.1</ele>
        <time>2021-08-09T13:28:28Z</time>
      </trkpt>
      <trkpt lat="44.66817" lon="3.84716">
        <ele>1165.2</ele>
        <time>2021-08-09T13:28:30Z</time>
      </trkpt>
      <trkpt lat="44.66812" lon="3.84716">
        <ele>1165.5</ele>
        <time>2021-08-09T13:28:32Z</time>
      </trkpt>
      <trkpt lat="44.66807" lon="3.84716">
        <ele>1165.6</ele>
        <time>2021-08-09T13:28:34Z</time>
      </trkpt>
      <trkpt lat="44.66802" lon="3.84716">
        <ele>1165.8</ele>
        <time>2021-08-09T13:28:36Z</time>
      </trkpt>
      <trkpt lat="44.66797" lon="3.84716">
        <ele>1166</ele>
        <time>2021-08-09T13:28:38Z</time>
      </trkpt>
      <trkpt lat="44.66793" lon="3.84716">
        <ele>1166.2</ele>
        <time>2021-08-09T13:28:40Z</time>
      </trkpt>
      <trkpt lat="44.66788" lon="3.84717">
        <ele>1166.3</ele>
        <time>2021-08-09T13:28:42Z</time>
      </trkpt>
      <trkpt lat="44.66783" lon="3.84716">
        <ele>1166.6</ele>
        <time>2021-08-09T13:28:44Z</time>
      </trkpt>
      <trkpt lat="44.66778" lon="3.84717">
        <ele>1166.7</ele>
        <time>2021-08-09T13:28:46Z</time>
      </trkpt>
      <trkpt lat="44.66773" lon="3.84717">
        <ele>1166.9</ele>
        <time>2021-08-09T13:28:48Z</time>
      </trkpt>
      <trkpt lat="44.66769" lon="3.84717">
        <ele>1167.1</ele>
        <time>2021-08-09T13:28:50Z</time>
      </trkpt>
      <trkpt lat="44.66764" lon="3.84717">
        <ele>1167.2</ele>
        <time>2021-08-09T13:28:52Z</time>
      </trkpt>
      <trkpt lat="44.66759" lon="3.84717">
        <ele>1167.4</ele>
        <time>2021-08-09T13:28:54Z</time>
      </trkpt>
      <trkpt lat="44.66754" lon="3.84717">
        <ele>1167.6</ele>
        <time>2021-08-09T13:28:56Z</time>
      </trkpt>
      <trkpt lat="44.66749" lon="3.84717">
        <ele>1167.8</ele>
        <time>2021-08-09T13:28:58Z</time>
      </trkpt>
      <trkpt lat="44.66744" lon="3.84717">
        <ele>1167.9</ele>
        <time>2021-08-09T13:29:00Z</time>
      </trkpt>
      <trkpt lat="44.66739" lon="3.84717">
        <ele>1168</ele>
        <time>2021-08-09T13:29:02Z</time>
      </trkpt>
      <trkpt lat="44.66734" lon="3.84717">
        <ele>1168.1</ele>
        <time>2021-08-09T13:29:04Z</time>
      </trkpt>
      <trkpt lat="44.66729" lon="3.84717">
        <ele>1168.1</ele>
        <time>2021-08-09T13:29:06Z</time>
      </trkpt>
      <trkpt lat="44.66724" lon="3.84717">
        <ele>1168.3</ele>
        <time>2021-08-09T13:29:08Z</time>
      </trkpt>
      <trkpt lat="44.66719" lon="3.84716">
        <ele>1168.5</ele>
        <time>2021-08-09T13:29:10Z</time>
      </trkpt>
      <trkpt lat="44.66714" lon="3.84716">
        <ele>1168.6</ele>
        <time>2021-08-09T13:29:12Z</time>
      </trkpt>
      <trkpt lat="44.66709" lon="3.84715">
        <ele>1168.8</ele>
        <time>2021-08-09T13:29:14Z</time>
      </trkpt>
      <trkpt lat="44.66704" lon="3.84713">
        <ele>1169.1</ele>
        <time>2021-08-09T13:29:16Z</time>
      </trkpt>
      <trkpt lat="44.66698" lon="3.84712">
        <ele>1169.3</ele>
        <time>2021-08-09T13:29:18Z</time>
      </trkpt>
      <trkpt lat="44.66693" lon="3.84711">
        <ele>1169.6</ele>
        <time>2021-08-09T13:29:20Z</time>
      </trkpt>
      <trkpt lat="44.66687" lon="3.84709">
        <ele>1169.9</ele>
        <time>2021-08-09T13:29:22Z</time>
      </trkpt>
      <trkpt lat="44.66681" lon="3.84707">
        <ele>1170.3</ele>
        <time>2021-08-09T13:29:24Z</time>
      </trkpt>
      <trkpt lat="44.66674" lon="3.84706">
        <ele>1170.6</ele>
        <time>2021-08-09T13:29:26Z</time>
      </trkpt>
      <trkpt lat="44.66668" lon="3.84705">
        <ele>1170.8</ele>
        <time>2021-08-09T13:29:28Z</time>
      </trkpt>
      <trkpt lat="44.66663" lon="3.84704">
        <ele>1171</ele>
        <time>2021-08-09T13:29:30Z</time>
      </trkpt>
      <trkpt lat="44.66658" lon="3.84702">
        <ele>1171</ele>
        <time>2021-08-09T13:29:32Z</time>
      </trkpt>
      <trkpt lat="44.66652" lon="3.84701">
        <ele>1171.1</ele>
        <time>2021-08-09T13:29:34Z</time>
      </trkpt>
      <trkpt lat="44.66646" lon="3.847">
        <ele>1171.1</ele>
        <time>2021-08-09T13:29:36Z</time>
      </trkpt>
      <trkpt lat="44.6664" lon="3.84698">
        <ele>1171.2</ele>
        <time>2021-08-09T13:29:38Z</time>
      </trkpt>
      <trkpt lat="44.66633" lon="3.84696">
        <ele>1171.3</ele>
        <time>2021-08-09T13:29:40Z</time>
      </trkpt>
      <trkpt lat="44.66627" lon="3.84694">
        <ele>1171.5</ele>
        <time>2021-08-09T13:29:42Z</time>
      </trkpt>
      <trkpt lat="44.6662" lon="3.84691">
        <ele>1171.8</ele>
        <time>2021-08-09T13:29:44Z</time>
      </trkpt>
      <trkpt lat="44.66612" lon="3.84687">
        <ele>1172.1</ele>
        <time>2021-08-09T13:29:46Z</time>
      </trkpt>
      <trkpt lat="44.66605" lon="3.84684">
        <ele>1172.4</ele>
        <time>2021-08-09T13:29:48Z</time>
      </trkpt>
      <trkpt lat="44.66597" lon="3.8468">
        <ele>1173</ele>
        <time>2021-08-09T13:29:50Z</time>
      </trkpt>
      <trkpt lat="44.66588" lon="3.84677">
        <ele>1173.4</ele>
        <time>2021-08-09T13:29:52Z</time>
      </trkpt>
      <trkpt lat="44.66579" lon="3.84673">
        <ele>1173.6</ele>
        <time>2021-08-09T13:29:54Z</time>
      </trkpt>
      <trkpt lat="44.66571" lon="3.8467">
        <ele>1173.4</ele>
        <time>2021-08-09T13:29:56Z</time>
      </trkpt>
      <trkpt lat="44.66563" lon="3.84666">
        <ele>1173.3</ele>
        <time>2021-08-09T13:29:58Z</time>
      </trkpt>
      <trkpt lat="44.66555" lon="3.84663">
        <ele>1173.2</ele>
        <time>2021-08-09T13:30:00Z</time>
      </trkpt>
      <trkpt lat="44.66547" lon="3.8466">
        <ele>1173</ele>
        <time>2021-08-09T13:30:02Z</time>
      </trkpt>
      <trkpt lat="44.66539" lon="3.84656">
        <ele>1173</ele>
        <time>2021-08-09T13:30:04Z</time>
      </trkpt>
      <trkpt lat="44.66531" lon="3.84653">
        <ele>1173</ele>
        <time>2021-08-09T13:30:06Z</time>
      </trkpt>
      <trkpt lat="44.66524" lon="3.84648">
        <ele>1173.2</ele>
        <time>2021-08-09T13:30:08Z</time>
      </trkpt>
      <trkpt lat="44.66516" lon="3.84645">
        <ele>1173.2</ele>
        <time>2021-08-09T13:30:10Z</time>
      </trkpt>
      <trkpt lat="44.66509" lon="3.8464">
        <ele>1173.5</ele>
        <time>2021-08-09T13:30:12Z</time>
      </trkpt>
      <trkpt lat="44.66502" lon="3.84636">
        <ele>1173.7</ele>
        <time>2021-08-09T13:30:14Z</time>
      </trkpt>
      <trkpt lat="44.66494" lon="3.84632">
        <ele>1174</ele>
        <time>2021-08-09T13:30:16Z</time>
      </trkpt>
      <trkpt lat="44.66487" lon="3.84627">
        <ele>1174.3</ele>
        <time>2021-08-09T13:30:18Z</time>
      </trkpt>
      <trkpt lat="44.66479" lon="3.84623">
        <ele>1174.6</ele>
        <time>2021-08-09T13:30:20Z</time>
      </trkpt>
      <trkpt lat="44.66472" lon="3.84619">
        <ele>1174.8</ele>
        <time>2021-08-09T13:30:22Z</time>
      </trkpt>
      <trkpt lat="44.66465" lon="3.84617">
        <ele>1174.8</ele>
        <time>2021-08-09T13:30:24Z</time>
      </trkpt>
      <trkpt lat="44.66459" lon="3.84612">
        <ele>1175.2</ele>
        <time>2021-08-09T13:30:26Z</time>
      </trkpt>
      <trkpt lat="44.66452" lon="3.84609">
        <ele>1175.4</ele>
        <time>2021-08-09T13:30:28Z</time>
      </trkpt>
      <trkpt lat="44.66447" lon="3.84604">
        <ele>1175.7</ele>
        <time>2021-08-09T13:30:30Z</time>
      </trkpt>
      <trkpt lat="44.66441" lon="3.84601">
        <ele>1175.9</ele>
        <time>2021-08-09T13:30:32Z</time>
      </trkpt>
      <trkpt lat="44.66434" lon="3.84598">
        <ele>1175.9</ele>
        <time>2021-08-09T13:30:34Z</time>
      </trkpt>
      <trkpt lat="44.66429" lon="3.84593">
        <ele>1176.3</ele>
        <time>2021-08-09T13:30:36Z</time>
      </trkpt>
      <trkpt lat="44.66422" lon="3.84591">
        <ele>1176.2</ele>
        <time>2021-08-09T13:30:38Z</time>
      </trkpt>
      <trkpt lat="44.66416" lon="3.84587">
        <ele>1176.4</ele>
        <time>2021-08-09T13:30:40Z</time>
      </trkpt>
      <trkpt lat="44.6641" lon="3.84584">
        <ele>1176</ele>
        <time>2021-08-09T13:30:42Z</time>
      </trkpt>
      <trkpt lat="44.66404" lon="3.84581">
        <ele>1175.7</ele>
        <time>2021-08-09T13:30:44Z</time>
      </trkpt>
      <trkpt lat="44.66397" lon="3.84577">
        <ele>1175.6</ele>
        <time>2021-08-09T13:30:46Z</time>
      </trkpt>
      <trkpt lat="44.66391" lon="3.84574">
        <ele>1175.3</ele>
        <time>2021-08-09T13:30:48Z</time>
      </trkpt>
      <trkpt lat="44.66385" lon="3.84571">
        <ele>1175</ele>
        <time>2021-08-09T13:30:50Z</time>
      </trkpt>
      <trkpt lat="44.66379" lon="3.84567">
        <ele>1174.9</ele>
        <time>2021-08-09T13:30:52Z</time>
      </trkpt>
      <trkpt lat="44.66372" lon="3.84563">
        <ele>1174.9</ele>
        <time>2021-08-09T13:30:54Z</time>
      </trkpt>
      <trkpt lat="44.66365" lon="3.84558">
        <ele>1174.9</ele>
        <time>2021-08-09T13:30:56Z</time>
      </trkpt>
      <trkpt lat="44.66357" lon="3.84553">
        <ele>1174.7</ele>
        <time>2021-08-09T13:30:58Z</time>
      </trkpt>
      <trkpt lat="44.6635" lon="3.84547">
        <ele>1174.8</ele>
        <time>2021-08-09T13:31:00Z</time>
      </trkpt>
      <trkpt lat="44.66344" lon="3.84543">
        <ele>1174.7</ele>
        <time>2021-08-09T13:31:02Z</time>
      </trkpt>
      <trkpt lat="44.66337" lon="3.8454">
        <ele>1174.3</ele>
        <time>2021-08-09T13:31:04Z</time>
      </trkpt>
      <trkpt lat="44.6633" lon="3.84536">
        <ele>1174.1</ele>
        <time>2021-08-09T13:31:06Z</time>
      </trkpt>
      <trkpt lat="44.66324" lon="3.84532">
        <ele>1173.4</ele>
        <time>2021-08-09T13:31:08Z</time>
      </trkpt>
      <trkpt lat="44.66318" lon="3.84529">
        <ele>1172.8</ele>
        <time>2021-08-09T13:31:10Z</time>
      </trkpt>
      <trkpt lat="44.66312" lon="3.84525">
        <ele>1172.4</ele>
        <time>2021-08-09T13:31:12Z</time>
      </trkpt>
      <trkpt lat="44.66306" lon="3.84521">
        <ele>1172.1</ele>
        <time>2021-08-09T13:31:14Z</time>
      </trkpt>
      <trkpt lat="44.66301" lon="3.84516">
        <ele>1172</ele>
        <time>2021-08-09T13:31:16Z</time>
      </trkpt>
      <trkpt lat="44.66296" lon="3.84512">
        <ele>1171.8</ele>
        <time>2021-08-09T13:31:18Z</time>
      </trkpt>
      <trkpt lat="44.66291" lon="3.84505">
        <ele>1172</ele>
        <time>2021-08-09T13:31:20Z</time>
      </trkpt>
      <trkpt lat="44.66287" lon="3.845">
        <ele>1172.1</ele>
        <time>2021-08-09T13:31:22Z</time>
      </trkpt>
      <trkpt lat="44.66283" lon="3.84493">
        <ele>1172.7</ele>
        <time>2021-08-09T13:31:24Z</time>
      </trkpt>
      <trkpt lat="44.6628" lon="3.84487">
        <ele>1173</ele>
        <time>2021-08-09T13:31:26Z</time>
      </trkpt>
      <trkpt lat="44.66276" lon="3.84481">
        <ele>1173.2</ele>
        <time>2021-08-09T13:31:28Z</time>
      </trkpt>
      <trkpt lat="44.66272" lon="3.84472">
        <ele>1174</ele>
        <time>2021-08-09T13:31:30Z</time>
      </trkpt>
      <trkpt lat="44.66268" lon="3.84464">
        <ele>1174.6</ele>
        <time>2021-08-09T13:31:32Z</time>
      </trkpt>
      <trkpt lat="44.66264" lon="3.84455">
        <ele>1175.2</ele>
        <time>2021-08-09T13:31:34Z</time>
      </trkpt>
      <trkpt lat="44.66258" lon="3.84445">
        <ele>1175.8</ele>
        <time>2021-08-09T13:31:36Z</time>
      </trkpt>
      <trkpt lat="44.66251" lon="3.84437">
        <ele>1175.9</ele>
        <time>2021-08-09T13:31:38Z</time>
      </trkpt>
      <trkpt lat="44.66245" lon="3.84429">
        <ele>1176.2</ele>
        <time>2021-08-09T13:31:40Z</time>
      </trkpt>
      <trkpt lat="44.66238" lon="3.84423">
        <ele>1176.6</ele>
        <time>2021-08-09T13:31:42Z</time>
      </trkpt>
      <trkpt lat="44.66231" lon="3.84417">
        <ele>1176.7</ele>
        <time>2021-08-09T13:31:44Z</time>
      </trkpt>
      <trkpt lat="44.66225" lon="3.84412">
        <ele>1176.5</ele>
        <time>2021-08-09T13:31:46Z</time>
      </trkpt>
      <trkpt lat="44.66218" lon="3.84409">
        <ele>1176.1</ele>
        <time>2021-08-09T13:31:48Z</time>
      </trkpt>
      <trkpt lat="44.66211" lon="3.84405">
        <ele>1176</ele>
        <time>2021-08-09T13:31:50Z</time>
      </trkpt>
      <trkpt lat="44.66205" lon="3.84401">
        <ele>1175.8</ele>
        <time>2021-08-09T13:31:52Z</time>
      </trkpt>
      <trkpt lat="44.66198" lon="3.84398">
        <ele>1175.6</ele>
        <time>2021-08-09T13:31:54Z</time>
      </trkpt>
      <trkpt lat="44.66192" lon="3.84394">
        <ele>1175.5</ele>
        <time>2021-08-09T13:31:56Z</time>
      </trkpt>
      <trkpt lat="44.66186" lon="3.84391">
        <ele>1175.4</ele>
        <time>2021-08-09T13:31:58Z</time>
      </trkpt>
      <trkpt lat="44.6618" lon="3.84388">
        <ele>1175.2</ele>
        <time>2021-08-09T13:32:00Z</time>
      </trkpt>
      <trkpt lat="44.66174" lon="3.84385">
        <ele>1175.1</ele>
        <time>2021-08-09T13:32:02Z</time>
      </trkpt>
      <trkpt lat="44.66168" lon="3.84383">
        <ele>1174.8</ele>
        <time>2021-08-09T13:32:04Z</time>
      </trkpt>
      <trkpt lat="44.66161" lon="3.8438">
        <ele>1175.2</ele>
        <time>2021-08-09T13:32:06Z</time>
      </trkpt>
      <trkpt lat="44.66154" lon="3.84376">
        <ele>1175.8</ele>
        <time>2021-08-09T13:32:08Z</time>
      </trkpt>
      <trkpt lat="44.66145" lon="3.84373">
        <ele>1176.2</ele>
        <time>2021-08-09T13:32:10Z</time>
      </trkpt>
      <trkpt lat="44.66136" lon="3.84371">
        <ele>1176.6</ele>
        <time>2021-08-09T13:32:12Z</time>
      </trkpt>
      <trkpt lat="44.66127" lon="3.84368">
        <ele>1176.9</ele>
        <time>2021-08-09T13:32:14Z</time>
      </trkpt>
      <trkpt lat="44.66119" lon="3.84367">
        <ele>1177</ele>
        <time>2021-08-09T13:32:16Z</time>
      </trkpt>
      <trkpt lat="44.66111" lon="3.84366">
        <ele>1177</ele>
        <time>2021-08-09T13:32:18Z</time>
      </trkpt>
      <trkpt lat="44.66103" lon="3.84367">
        <ele>1176.9</ele>
        <time>2021-08-09T13:32:20Z</time>
      </trkpt>
      <trkpt lat="44.66096" lon="3.84368">
        <ele>1176.8</ele>
        <time>2021-08-09T13:32:22Z</time>
      </trkpt>
      <trkpt lat="44.66088" lon="3.84369">
        <ele>1176.6</ele>
        <time>2021-08-09T13:32:24Z</time>
      </trkpt>
      <trkpt lat="44.66081" lon="3.8437">
        <ele>1176.5</ele>
        <time>2021-08-09T13:32:26Z</time>
      </trkpt>
      <trkpt lat="44.66075" lon="3.8437">
        <ele>1176.5</ele>
        <time>2021-08-09T13:32:28Z</time>
      </trkpt>
      <trkpt lat="44.66068" lon="3.84373">
        <ele>1176.3</ele>
        <time>2021-08-09T13:32:30Z</time>
      </trkpt>
      <trkpt lat="44.66061" lon="3.84373">
        <ele>1176.4</ele>
        <time>2021-08-09T13:32:32Z</time>
      </trkpt>
      <trkpt lat="44.66055" lon="3.84373">
        <ele>1176.4</ele>
        <time>2021-08-09T13:32:34Z</time>
      </trkpt>
      <trkpt lat="44.66048" lon="3.84373">
        <ele>1176.5</ele>
        <time>2021-08-09T13:32:36Z</time>
      </trkpt>
      <trkpt lat="44.66041" lon="3.84374">
        <ele>1176.5</ele>
        <time>2021-08-09T13:32:38Z</time>
      </trkpt>
      <trkpt lat="44.66036" lon="3.84374">
        <ele>1176.6</ele>
        <time>2021-08-09T13:32:40Z</time>
      </trkpt>
      <trkpt lat="44.66031" lon="3.84374">
        <ele>1176.7</ele>
        <time>2021-08-09T13:32:42Z</time>
      </trkpt>
      <trkpt lat="44.66026" lon="3.84373">
        <ele>1176.7</ele>
        <time>2021-08-09T13:32:44Z</time>
      </trkpt>
      <trkpt lat="44.66022" lon="3.84372">
        <ele>1176.8</ele>
        <time>2021-08-09T13:32:46Z</time>
      </trkpt>
      <trkpt lat="44.66017" lon="3.84371">
        <ele>1176.8</ele>
        <time>2021-08-09T13:32:48Z</time>
      </trkpt>
      <trkpt lat="44.66012" lon="3.84371">
        <ele>1176.8</ele>
        <time>2021-08-09T13:32:50Z</time>
      </trkpt>
      <trkpt lat="44.66008" lon="3.8437">
        <ele>1176.8</ele>
        <time>2021-08-09T13:32:52Z</time>
      </trkpt>
      <trkpt lat="44.66003" lon="3.84369">
        <ele>1176.8</ele>
        <time>2021-08-09T13:32:54Z</time>
      </trkpt>
      <trkpt lat="44.65998" lon="3.84368">
        <ele>1176.7</ele>
        <time>2021-08-09T13:32:56Z</time>
      </trkpt>
      <trkpt lat="44.65993" lon="3.84368">
        <ele>1176.5</ele>
        <time>2021-08-09T13:32:58Z</time>
      </trkpt>
      <trkpt lat="44.65988" lon="3.84367">
        <ele>1176.3</ele>
        <time>2021-08-09T13:33:00Z</time>
      </trkpt>
      <trkpt lat="44.65983" lon="3.84367">
        <ele>1176</ele>
        <time>2021-08-09T13:33:02Z</time>
      </trkpt>
      <trkpt lat="44.65977" lon="3.84367">
        <ele>1175.8</ele>
        <time>2021-08-09T13:33:04Z</time>
      </trkpt>
      <trkpt lat="44.6597" lon="3.84367">
        <ele>1175.5</ele>
        <time>2021-08-09T13:33:06Z</time>
      </trkpt>
      <trkpt lat="44.65963" lon="3.84367">
        <ele>1175.1</ele>
        <time>2021-08-09T13:33:08Z</time>
      </trkpt>
      <trkpt lat="44.65956" lon="3.84368">
        <ele>1174.8</ele>
        <time>2021-08-09T13:33:10Z</time>
      </trkpt>
      <trkpt lat="44.65949" lon="3.8437">
        <ele>1174.6</ele>
        <time>2021-08-09T13:33:12Z</time>
      </trkpt>
      <trkpt lat="44.65941" lon="3.84371">
        <ele>1174.3</ele>
        <time>2021-08-09T13:33:14Z</time>
      </trkpt>
      <trkpt lat="44.65932" lon="3.84373">
        <ele>1174</ele>
        <time>2021-08-09T13:33:16Z</time>
      </trkpt>
      <trkpt lat="44.65922" lon="3.84375">
        <ele>1173.7</ele>
        <time>2021-08-09T13:33:18Z</time>
      </trkpt>
      <trkpt lat="44.65911" lon="3.84377">
        <ele>1173.4</ele>
        <time>2021-08-09T13:33:20Z</time>
      </trkpt>
      <trkpt lat="44.659" lon="3.8438">
        <ele>1173.1</ele>
        <time>2021-08-09T13:33:22Z</time>
      </trkpt>
      <trkpt lat="44.65888" lon="3.84382">
        <ele>1172.8</ele>
        <time>2021-08-09T13:33:24Z</time>
      </trkpt>
      <trkpt lat="44.65877" lon="3.84386">
        <ele>1172.5</ele>
        <time>2021-08-09T13:33:26Z</time>
      </trkpt>
      <trkpt lat="44.65865" lon="3.8439">
        <ele>1172.4</ele>
        <time>2021-08-09T13:33:28Z</time>
      </trkpt>
      <trkpt lat="44.65853" lon="3.84396">
        <ele>1172.3</ele>
        <time>2021-08-09T13:33:30Z</time>
      </trkpt>
      <trkpt lat="44.65841" lon="3.84401">
        <ele>1172.2</ele>
        <time>2021-08-09T13:33:32Z</time>
      </trkpt>
      <trkpt lat="44.65828" lon="3.84408">
        <ele>1172.1</ele>
        <time>2021-08-09T13:33:34Z</time>
      </trkpt>
      <trkpt lat="44.65813" lon="3.84415">
        <ele>1171.7</ele>
        <time>2021-08-09T13:33:36Z</time>
      </trkpt>
      <trkpt lat="44.65798" lon="3.84423">
        <ele>1171.2</ele>
        <time>2021-08-09T13:33:38Z</time>
      </trkpt>
      <trkpt lat="44.65783" lon="3.8443">
        <ele>1170.7</ele>
        <time>2021-08-09T13:33:40Z</time>
      </trkpt>
      <trkpt lat="44.65768" lon="3.84435">
        <ele>1170.3</ele>
        <time>2021-08-09T13:33:42Z</time>
      </trkpt>
      <trkpt lat="44.65753" lon="3.84438">
        <ele>1169.7</ele>
        <time>2021-08-09T13:33:44Z</time>
      </trkpt>
      <trkpt lat="44.65737" lon="3.8444">
        <ele>1169.3</ele>
        <time>2021-08-09T13:33:46Z</time>
      </trkpt>
      <trkpt lat="44.6572" lon="3.84437">
        <ele>1168.6</ele>
        <time>2021-08-09T13:33:48Z</time>
      </trkpt>
      <trkpt lat="44.65703" lon="3.84433">
        <ele>1167.7</ele>
        <time>2021-08-09T13:33:50Z</time>
      </trkpt>
      <trkpt lat="44.65686" lon="3.8443">
        <ele>1166.9</ele>
        <time>2021-08-09T13:33:52Z</time>
      </trkpt>
      <trkpt lat="44.65668" lon="3.84427">
        <ele>1166.1</ele>
        <time>2021-08-09T13:33:54Z</time>
      </trkpt>
      <trkpt lat="44.65651" lon="3.84426">
        <ele>1165.3</ele>
        <time>2021-08-09T13:33:56Z</time>
      </trkpt>
      <trkpt lat="44.65633" lon="3.84422">
        <ele>1164.3</ele>
        <time>2021-08-09T13:33:58Z</time>
      </trkpt>
      <trkpt lat="44.65615" lon="3.84419">
        <ele>1163.3</ele>
        <time>2021-08-09T13:34:00Z</time>
      </trkpt>
      <trkpt lat="44.65597" lon="3.84415">
        <ele>1162.3</ele>
        <time>2021-08-09T13:34:02Z</time>
      </trkpt>
      <trkpt lat="44.6558" lon="3.84409">
        <ele>1161</ele>
        <time>2021-08-09T13:34:04Z</time>
      </trkpt>
      <trkpt lat="44.65563" lon="3.84402">
        <ele>1159.6</ele>
        <time>2021-08-09T13:34:06Z</time>
      </trkpt>
      <trkpt lat="44.65546" lon="3.84394">
        <ele>1158.2</ele>
        <time>2021-08-09T13:34:08Z</time>
      </trkpt>
      <trkpt lat="44.65529" lon="3.84389">
        <ele>1157.2</ele>
        <time>2021-08-09T13:34:10Z</time>
      </trkpt>
      <trkpt lat="44.65512" lon="3.84385">
        <ele>1156.3</ele>
        <time>2021-08-09T13:34:12Z</time>
      </trkpt>
      <trkpt lat="44.65494" lon="3.84382">
        <ele>1155.7</ele>
        <time>2021-08-09T13:34:14Z</time>
      </trkpt>
      <trkpt lat="44.65478" lon="3.84379">
        <ele>1155.4</ele>
        <time>2021-08-09T13:34:16Z</time>
      </trkpt>
      <trkpt lat="44.65461" lon="3.84379">
        <ele>1155.3</ele>
        <time>2021-08-09T13:34:18Z</time>
      </trkpt>
      <trkpt lat="44.65446" lon="3.84381">
        <ele>1155.5</ele>
        <time>2021-08-09T13:34:20Z</time>
      </trkpt>
      <trkpt lat="44.65432" lon="3.84385">
        <ele>1155.8</ele>
        <time>2021-08-09T13:34:22Z</time>
      </trkpt>
      <trkpt lat="44.65419" lon="3.84389">
        <ele>1156</ele>
        <time>2021-08-09T13:34:24Z</time>
      </trkpt>
      <trkpt lat="44.65407" lon="3.84394">
        <ele>1156.7</ele>
        <time>2021-08-09T13:34:26Z</time>
      </trkpt>
      <trkpt lat="44.65396" lon="3.844">
        <ele>1157.5</ele>
        <time>2021-08-09T13:34:28Z</time>
      </trkpt>
      <trkpt lat="44.65386" lon="3.84405">
        <ele>1158.2</ele>
        <time>2021-08-09T13:34:30Z</time>
      </trkpt>
      <trkpt lat="44.65378" lon="3.84412">
        <ele>1158.7</ele>
        <time>2021-08-09T13:34:32Z</time>
      </trkpt>
      <trkpt lat="44.65369" lon="3.84416">
        <ele>1159.1</ele>
        <time>2021-08-09T13:34:34Z</time>
      </trkpt>
      <trkpt lat="44.65359" lon="3.84419">
        <ele>1159.8</ele>
        <time>2021-08-09T13:34:36Z</time>
      </trkpt>
      <trkpt lat="44.65349" lon="3.84416">
        <ele>1159.6</ele>
        <time>2021-08-09T13:34:38Z</time>
      </trkpt>
      <trkpt lat="44.65343" lon="3.84404">
        <ele>1159.5</ele>
        <time>2021-08-09T13:34:40Z</time>
      </trkpt>
      <trkpt lat="44.65342" lon="3.84392">
        <ele>1159.4</ele>
        <time>2021-08-09T13:34:42Z</time>
      </trkpt>
      <trkpt lat="44.65341" lon="3.8438">
        <ele>1159.2</ele>
        <time>2021-08-09T13:34:44Z</time>
      </trkpt>
      <trkpt lat="44.65342" lon="3.8437">
        <ele>1159</ele>
        <time>2021-08-09T13:34:46Z</time>
      </trkpt>
      <trkpt lat="44.6534" lon="3.84362">
        <ele>1158.9</ele>
        <time>2021-08-09T13:34:48Z</time>
      </trkpt>
      <trkpt lat="44.65341" lon="3.84354">
        <ele>1158.7</ele>
        <time>2021-08-09T13:34:50Z</time>
      </trkpt>
      <trkpt lat="44.6534" lon="3.84346">
        <ele>1158.6</ele>
        <time>2021-08-09T13:34:52Z</time>
      </trkpt>
      <trkpt lat="44.6534" lon="3.84339">
        <ele>1158.6</ele>
        <time>2021-08-09T13:34:54Z</time>
      </trkpt>
      <trkpt lat="44.65339" lon="3.84333">
        <ele>1158.5</ele>
        <time>2021-08-09T13:34:56Z</time>
      </trkpt>
      <trkpt lat="44.65339" lon="3.84326">
        <ele>1158.6</ele>
        <time>2021-08-09T13:34:58Z</time>
      </trkpt>
      <trkpt lat="44.65339" lon="3.84321">
        <ele>1158.8</ele>
        <time>2021-08-09T13:35:00Z</time>
      </trkpt>
      <trkpt lat="44.65339" lon="3.84317">
        <ele>1158.9</ele>
        <time>2021-08-09T13:35:02Z</time>
      </trkpt>
      <trkpt lat="44.65338" lon="3.84312">
        <ele>1159</ele>
        <time>2021-08-09T13:35:04Z</time>
      </trkpt>
      <trkpt lat="44.65338" lon="3.84306">
        <ele>1159.2</ele>
        <time>2021-08-09T13:35:06Z</time>
      </trkpt>
      <trkpt lat="44.65337" lon="3.84299">
        <ele>1159.3</ele>
        <time>2021-08-09T13:35:08Z</time>
      </trkpt>
      <trkpt lat="44.65337" lon="3.84293">
        <ele>1159.5</ele>
        <time>2021-08-09T13:35:10Z</time>
      </trkpt>
      <trkpt lat="44.65336" lon="3.84287">
        <ele>1159.7</ele>
        <time>2021-08-09T13:35:12Z</time>
      </trkpt>
      <trkpt lat="44.65336" lon="3.84281">
        <ele>1159.9</ele>
        <time>2021-08-09T13:35:14Z</time>
      </trkpt>
      <trkpt lat="44.65336" lon="3.84275">
        <ele>1160.1</ele>
        <time>2021-08-09T13:35:16Z</time>
      </trkpt>
      <trkpt lat="44.65335" lon="3.84268">
        <ele>1160.3</ele>
        <time>2021-08-09T13:35:18Z</time>
      </trkpt>
      <trkpt lat="44.65335" lon="3.84261">
        <ele>1160.5</ele>
        <time>2021-08-09T13:35:20Z</time>
      </trkpt>
      <trkpt lat="44.65334" lon="3.84254">
        <ele>1160.7</ele>
        <time>2021-08-09T13:35:22Z</time>
      </trkpt>
      <trkpt lat="44.65333" lon="3.84247">
        <ele>1161.1</ele>
        <time>2021-08-09T13:35:24Z</time>
      </trkpt>
      <trkpt lat="44.65333" lon="3.84239">
        <ele>1161.5</ele>
        <time>2021-08-09T13:35:26Z</time>
      </trkpt>
      <trkpt lat="44.65333" lon="3.84231">
        <ele>1161.7</ele>
        <time>2021-08-09T13:35:28Z</time>
      </trkpt>
      <trkpt lat="44.65334" lon="3.84223">
        <ele>1161.9</ele>
        <time>2021-08-09T13:35:30Z</time>
      </trkpt>
      <trkpt lat="44.65334" lon="3.84216">
        <ele>1162.1</ele>
        <time>2021-08-09T13:35:32Z</time>
      </trkpt>
      <trkpt lat="44.65334" lon="3.84208">
        <ele>1162.4</ele>
        <time>2021-08-09T13:35:34Z</time>
      </trkpt>
      <trkpt lat="44.65334" lon="3.84201">
        <ele>1162.7</ele>
        <time>2021-08-09T13:35:36Z</time>
      </trkpt>
      <trkpt lat="44.65334" lon="3.84195">
        <ele>1162.8</ele>
        <time>2021-08-09T13:35:38Z</time>
      </trkpt>
      <trkpt lat="44.65334" lon="3.84188">
        <ele>1163.1</ele>
        <time>2021-08-09T13:35:40Z</time>
      </trkpt>
      <trkpt lat="44.65334" lon="3.84181">
        <ele>1163.3</ele>
        <time>2021-08-09T13:35:42Z</time>
      </trkpt>
      <trkpt lat="44.65334" lon="3.84173">
        <ele>1163.6</ele>
        <time>2021-08-09T13:35:44Z</time>
      </trkpt>
      <trkpt lat="44.65334" lon="3.84166">
        <ele>1163.9</ele>
        <time>2021-08-09T13:35:46Z</time>
      </trkpt>
      <trkpt lat="44.65334" lon="3.8416">
        <ele>1164.1</ele>
        <time>2021-08-09T13:35:48Z</time>
      </trkpt>
      <trkpt lat="44.65334" lon="3.84153">
        <ele>1164.3</ele>
        <time>2021-08-09T13:35:50Z</time>
      </trkpt>
      <trkpt lat="44.65334" lon="3.84146">
        <ele>1164.6</ele>
        <time>2021-08-09T13:35:52Z</time>
      </trkpt>
      <trkpt lat="44.65334" lon="3.84139">
        <ele>1164.9</ele>
        <time>2021-08-09T13:35:54Z</time>
      </trkpt>
      <trkpt lat="44.65334" lon="3.84132">
        <ele>1165.2</ele>
        <time>2021-08-09T13:35:56Z</time>
      </trkpt>
      <trkpt lat="44.65334" lon="3.84126">
        <ele>1165.4</ele>
        <time>2021-08-09T13:35:58Z</time>
      </trkpt>
      <trkpt lat="44.65334" lon="3.84119">
        <ele>1165.7</ele>
        <time>2021-08-09T13:36:00Z</time>
      </trkpt>
      <trkpt lat="44.65333" lon="3.84113">
        <ele>1166</ele>
        <time>2021-08-09T13:36:02Z</time>
      </trkpt>
      <trkpt lat="44.65332" lon="3.84107">
        <ele>1166.3</ele>
        <time>2021-08-09T13:36:04Z</time>
      </trkpt>
      <trkpt lat="44.65332" lon="3.841">
        <ele>1166.6</ele>
        <time>2021-08-09T13:36:06Z</time>
      </trkpt>
      <trkpt lat="44.65331" lon="3.84093">
        <ele>1167</ele>
        <time>2021-08-09T13:36:08Z</time>
      </trkpt>
      <trkpt lat="44.6533" lon="3.84087">
        <ele>1167.3</ele>
        <time>2021-08-09T13:36:10Z</time>
      </trkpt>
      <trkpt lat="44.65329" lon="3.8408">
        <ele>1167.6</ele>
        <time>2021-08-09T13:36:12Z</time>
      </trkpt>
      <trkpt lat="44.65329" lon="3.84074">
        <ele>1167.7</ele>
        <time>2021-08-09T13:36:14Z</time>
      </trkpt>
      <trkpt lat="44.65328" lon="3.84067">
        <ele>1167.8</ele>
        <time>2021-08-09T13:36:16Z</time>
      </trkpt>
      <trkpt lat="44.65327" lon="3.84061">
        <ele>1167.9</ele>
        <time>2021-08-09T13:36:18Z</time>
      </trkpt>
      <trkpt lat="44.65326" lon="3.84055">
        <ele>1168.1</ele>
        <time>2021-08-09T13:36:20Z</time>
      </trkpt>
      <trkpt lat="44.65325" lon="3.84049">
        <ele>1168.3</ele>
        <time>2021-08-09T13:36:22Z</time>
      </trkpt>
      <trkpt lat="44.65324" lon="3.84042">
        <ele>1168.4</ele>
        <time>2021-08-09T13:36:24Z</time>
      </trkpt>
      <trkpt lat="44.65323" lon="3.84036">
        <ele>1168.5</ele>
        <time>2021-08-09T13:36:26Z</time>
      </trkpt>
      <trkpt lat="44.65323" lon="3.8403">
        <ele>1168.6</ele>
        <time>2021-08-09T13:36:28Z</time>
      </trkpt>
      <trkpt lat="44.65322" lon="3.84024">
        <ele>1168.8</ele>
        <time>2021-08-09T13:36:30Z</time>
      </trkpt>
      <trkpt lat="44.65321" lon="3.84018">
        <ele>1168.9</ele>
        <time>2021-08-09T13:36:32Z</time>
      </trkpt>
      <trkpt lat="44.65319" lon="3.84011">
        <ele>1169.1</ele>
        <time>2021-08-09T13:36:34Z</time>
      </trkpt>
      <trkpt lat="44.65318" lon="3.84004">
        <ele>1169.3</ele>
        <time>2021-08-09T13:36:36Z</time>
      </trkpt>
      <trkpt lat="44.65317" lon="3.83997">
        <ele>1169.5</ele>
        <time>2021-08-09T13:36:38Z</time>
      </trkpt>
      <trkpt lat="44.65317" lon="3.8399">
        <ele>1169.6</ele>
        <time>2021-08-09T13:36:40Z</time>
      </trkpt>
      <trkpt lat="44.65316" lon="3.83983">
        <ele>1169.6</ele>
        <time>2021-08-09T13:36:42Z</time>
      </trkpt>
      <trkpt lat="44.65316" lon="3.83977">
        <ele>1169.7</ele>
        <time>2021-08-09T13:36:44Z</time>
      </trkpt>
      <trkpt lat="44.65315" lon="3.8397">
        <ele>1169.8</ele>
        <time>2021-08-09T13:36:46Z</time>
      </trkpt>
      <trkpt lat="44.65315" lon="3.83964">
        <ele>1169.8</ele>
        <time>2021-08-09T13:36:48Z</time>
      </trkpt>
      <trkpt lat="44.65314" lon="3.83958">
        <ele>1169.8</ele>
        <time>2021-08-09T13:36:50Z</time>
      </trkpt>
      <trkpt lat="44.65314" lon="3.83952">
        <ele>1169.9</ele>
        <time>2021-08-09T13:36:52Z</time>
      </trkpt>
      <trkpt lat="44.65314" lon="3.83945">
        <ele>1169.8</ele>
        <time>2021-08-09T13:36:54Z</time>
      </trkpt>
      <trkpt lat="44.65315" lon="3.83938">
        <ele>1169.7</ele>
        <time>2021-08-09T13:36:56Z</time>
      </trkpt>
      <trkpt lat="44.65314" lon="3.83932">
        <ele>1169.8</ele>
        <time>2021-08-09T13:36:58Z</time>
      </trkpt>
      <trkpt lat="44.65315" lon="3.83925">
        <ele>1169.7</ele>
        <time>2021-08-09T13:37:00Z</time>
      </trkpt>
      <trkpt lat="44.65315" lon="3.83919">
        <ele>1169.7</ele>
        <time>2021-08-09T13:37:02Z</time>
      </trkpt>
      <trkpt lat="44.65315" lon="3.83912">
        <ele>1169.7</ele>
        <time>2021-08-09T13:37:04Z</time>
      </trkpt>
      <trkpt lat="44.65314" lon="3.83906">
        <ele>1170</ele>
        <time>2021-08-09T13:37:06Z</time>
      </trkpt>
      <trkpt lat="44.65313" lon="3.839">
        <ele>1170.2</ele>
        <time>2021-08-09T13:37:08Z</time>
      </trkpt>
      <trkpt lat="44.65311" lon="3.83896">
        <ele>1170.6</ele>
        <time>2021-08-09T13:37:10Z</time>
      </trkpt>
      <trkpt lat="44.65308" lon="3.83892">
        <ele>1170.9</ele>
        <time>2021-08-09T13:37:12Z</time>
      </trkpt>
      <trkpt lat="44.65306" lon="3.83893">
        <ele>1171.3</ele>
        <time>2021-08-09T13:37:14Z</time>
      </trkpt>
      <trkpt lat="44.65305" lon="3.83895">
        <ele>1171.3</ele>
        <time>2021-08-09T13:37:16Z</time>
      </trkpt>
      <trkpt lat="44.65305" lon="3.83895">
        <ele>1171.3</ele>
        <time>2021-08-09T13:37:18Z</time>
      </trkpt>
      <trkpt lat="44.65305" lon="3.83895">
        <ele>1171.3</ele>
        <time>2021-08-09T13:37:20Z</time>
      </trkpt>
      <trkpt lat="44.65305" lon="3.83895">
        <ele>1171.3</ele>
        <time>2021-08-09T13:37:22Z</time>
      </trkpt>
      <trkpt lat="44.65305" lon="3.83895">
        <ele>1171.3</ele>
        <time>2021-08-09T13:37:24Z</time>
      </trkpt>
      <trkpt lat="44.65305" lon="3.83895">
        <ele>1171.3</ele>
        <time>2021-08-09T13:37:26Z</time>
      </trkpt>
      <trkpt lat="44.65305" lon="3.83895">
        <ele>1171.3</ele>
        <time>2021-08-09T13:37:30Z</time>
      </trkpt>
      <trkpt lat="44.65305" lon="3.83895">
        <ele>1171.3</ele>
        <time>2021-08-09T13:37:34Z</time>
      </trkpt>
      <trkpt lat="44.65305" lon="3.83896">
        <ele>1171.3</ele>
        <time>2021-08-09T13:37:38Z</time>
      </trkpt>
      <trkpt lat="44.65305" lon="3.83897">
        <ele>1171.3</ele>
        <time>2021-08-09T13:37:40Z</time>
      </trkpt>
      <trkpt lat="44.65306" lon="3.83899">
        <ele>1171.1</ele>
        <time>2021-08-09T13:37:42Z</time>
      </trkpt>
      <trkpt lat="44.65308" lon="3.83899">
        <ele>1170.9</ele>
        <time>2021-08-09T13:37:44Z</time>
      </trkpt>
      <trkpt lat="44.65309" lon="3.83897">
        <ele>1170.8</ele>
        <time>2021-08-09T13:37:46Z</time>
      </trkpt>
      <trkpt lat="44.6531" lon="3.83894">
        <ele>1170.7</ele>
        <time>2021-08-09T13:37:48Z</time>
      </trkpt>
      <trkpt lat="44.6531" lon="3.83891">
        <ele>1170.7</ele>
        <time>2021-08-09T13:37:50Z</time>
      </trkpt>
      <trkpt lat="44.6531" lon="3.83886">
        <ele>1170.8</ele>
        <time>2021-08-09T13:37:52Z</time>
      </trkpt>
      <trkpt lat="44.65311" lon="3.83881">
        <ele>1170.8</ele>
        <time>2021-08-09T13:37:54Z</time>
      </trkpt>
      <trkpt lat="44.65311" lon="3.83874">
        <ele>1170.8</ele>
        <time>2021-08-09T13:37:56Z</time>
      </trkpt>
      <trkpt lat="44.65311" lon="3.83868">
        <ele>1170.9</ele>
        <time>2021-08-09T13:37:58Z</time>
      </trkpt>
      <trkpt lat="44.65311" lon="3.83862">
        <ele>1171</ele>
        <time>2021-08-09T13:38:00Z</time>
      </trkpt>
      <trkpt lat="44.65311" lon="3.83854">
        <ele>1171.1</ele>
        <time>2021-08-09T13:38:02Z</time>
      </trkpt>
      <trkpt lat="44.65312" lon="3.83846">
        <ele>1171.1</ele>
        <time>2021-08-09T13:38:04Z</time>
      </trkpt>
      <trkpt lat="44.65312" lon="3.83839">
        <ele>1171.2</ele>
        <time>2021-08-09T13:38:06Z</time>
      </trkpt>
      <trkpt lat="44.65312" lon="3.83831">
        <ele>1171.3</ele>
        <time>2021-08-09T13:38:08Z</time>
      </trkpt>
      <trkpt lat="44.65313" lon="3.83823">
        <ele>1171.2</ele>
        <time>2021-08-09T13:38:10Z</time>
      </trkpt>
      <trkpt lat="44.65313" lon="3.83816">
        <ele>1171.2</ele>
        <time>2021-08-09T13:38:12Z</time>
      </trkpt>
      <trkpt lat="44.65314" lon="3.83808">
        <ele>1171.1</ele>
        <time>2021-08-09T13:38:14Z</time>
      </trkpt>
      <trkpt lat="44.65313" lon="3.83801">
        <ele>1171.2</ele>
        <time>2021-08-09T13:38:16Z</time>
      </trkpt>
      <trkpt lat="44.65312" lon="3.83794">
        <ele>1171.3</ele>
        <time>2021-08-09T13:38:18Z</time>
      </trkpt>
      <trkpt lat="44.65311" lon="3.83787">
        <ele>1171.3</ele>
        <time>2021-08-09T13:38:20Z</time>
      </trkpt>
      <trkpt lat="44.6531" lon="3.83782">
        <ele>1171.4</ele>
        <time>2021-08-09T13:38:22Z</time>
      </trkpt>
      <trkpt lat="44.65309" lon="3.83777">
        <ele>1171.5</ele>
        <time>2021-08-09T13:38:24Z</time>
      </trkpt>
      <trkpt lat="44.65307" lon="3.83771">
        <ele>1171.7</ele>
        <time>2021-08-09T13:38:26Z</time>
      </trkpt>
      <trkpt lat="44.65305" lon="3.83765">
        <ele>1171.8</ele>
        <time>2021-08-09T13:38:28Z</time>
      </trkpt>
      <trkpt lat="44.65303" lon="3.83759">
        <ele>1171.9</ele>
        <time>2021-08-09T13:38:30Z</time>
      </trkpt>
      <trkpt lat="44.653" lon="3.83753">
        <ele>1172</ele>
        <time>2021-08-09T13:38:32Z</time>
      </trkpt>
      <trkpt lat="44.65298" lon="3.83747">
        <ele>1172.1</ele>
        <time>2021-08-09T13:38:34Z</time>
      </trkpt>
      <trkpt lat="44.65295" lon="3.83741">
        <ele>1172.1</ele>
        <time>2021-08-09T13:38:36Z</time>
      </trkpt>
      <trkpt lat="44.65227" lon="3.83647">
        <ele>1172</ele>
        <time>2021-08-09T13:39:18Z</time>
      </trkpt>
      <trkpt lat="44.6522" lon="3.83642">
        <ele>1171.9</ele>
        <time>2021-08-09T13:39:20Z</time>
      </trkpt>
      <trkpt lat="44.65214" lon="3.83634">
        <ele>1171.4</ele>
        <time>2021-08-09T13:39:22Z</time>
      </trkpt>
      <trkpt lat="44.65207" lon="3.83625">
        <ele>1170.8</ele>
        <time>2021-08-09T13:39:24Z</time>
      </trkpt>
      <trkpt lat="44.65202" lon="3.83617">
        <ele>1170</ele>
        <time>2021-08-09T13:39:26Z</time>
      </trkpt>
      <trkpt lat="44.65201" lon="3.83613">
        <ele>1169.6</ele>
        <time>2021-08-09T13:39:28Z</time>
      </trkpt>
      <trkpt lat="44.65198" lon="3.83611">
        <ele>1169.4</ele>
        <time>2021-08-09T13:39:30Z</time>
      </trkpt>
      <trkpt lat="44.65192" lon="3.83613">
        <ele>1169.5</ele>
        <time>2021-08-09T13:39:32Z</time>
      </trkpt>
      <trkpt lat="44.65187" lon="3.83617">
        <ele>1169.8</ele>
        <time>2021-08-09T13:39:34Z</time>
      </trkpt>
      <trkpt lat="44.65183" lon="3.83622">
        <ele>1170.2</ele>
        <time>2021-08-09T13:39:36Z</time>
      </trkpt>
      <trkpt lat="44.65178" lon="3.83626">
        <ele>1170.7</ele>
        <time>2021-08-09T13:39:38Z</time>
      </trkpt>
      <trkpt lat="44.65174" lon="3.8363">
        <ele>1171.1</ele>
        <time>2021-08-09T13:39:40Z</time>
      </trkpt>
      <trkpt lat="44.6517" lon="3.83633">
        <ele>1171.5</ele>
        <time>2021-08-09T13:39:42Z</time>
      </trkpt>
      <trkpt lat="44.65166" lon="3.83636">
        <ele>1172</ele>
        <time>2021-08-09T13:39:44Z</time>
      </trkpt>
      <trkpt lat="44.65162" lon="3.83638">
        <ele>1172.8</ele>
        <time>2021-08-09T13:39:46Z</time>
      </trkpt>
      <trkpt lat="44.65158" lon="3.83641">
        <ele>1173.5</ele>
        <time>2021-08-09T13:39:48Z</time>
      </trkpt>
      <trkpt lat="44.65154" lon="3.83642">
        <ele>1174.2</ele>
        <time>2021-08-09T13:39:50Z</time>
      </trkpt>
      <trkpt lat="44.65149" lon="3.83642">
        <ele>1174.7</ele>
        <time>2021-08-09T13:39:52Z</time>
      </trkpt>
      <trkpt lat="44.65145" lon="3.8364">
        <ele>1174.9</ele>
        <time>2021-08-09T13:39:54Z</time>
      </trkpt>
      <trkpt lat="44.65141" lon="3.83637">
        <ele>1175</ele>
        <time>2021-08-09T13:39:56Z</time>
      </trkpt>
      <trkpt lat="44.65137" lon="3.83634">
        <ele>1175</ele>
        <time>2021-08-09T13:39:58Z</time>
      </trkpt>
      <trkpt lat="44.65133" lon="3.8363">
        <ele>1174.8</ele>
        <time>2021-08-09T13:40:00Z</time>
      </trkpt>
      <trkpt lat="44.65129" lon="3.83625">
        <ele>1174.4</ele>
        <time>2021-08-09T13:40:02Z</time>
      </trkpt>
      <trkpt lat="44.65125" lon="3.8362">
        <ele>1174</ele>
        <time>2021-08-09T13:40:04Z</time>
      </trkpt>
      <trkpt lat="44.65121" lon="3.83616">
        <ele>1173.7</ele>
        <time>2021-08-09T13:40:06Z</time>
      </trkpt>
      <trkpt lat="44.65115" lon="3.8361">
        <ele>1173.3</ele>
        <time>2021-08-09T13:40:08Z</time>
      </trkpt>
      <trkpt lat="44.65108" lon="3.83603">
        <ele>1172.6</ele>
        <time>2021-08-09T13:40:10Z</time>
      </trkpt>
      <trkpt lat="44.651" lon="3.83594">
        <ele>1171.7</ele>
        <time>2021-08-09T13:40:12Z</time>
      </trkpt>
      <trkpt lat="44.65091" lon="3.83585">
        <ele>1170.7</ele>
        <time>2021-08-09T13:40:14Z</time>
      </trkpt>
      <trkpt lat="44.65082" lon="3.83577">
        <ele>1170.2</ele>
        <time>2021-08-09T13:40:16Z</time>
      </trkpt>
      <trkpt lat="44.65074" lon="3.83571">
        <ele>1169.5</ele>
        <time>2021-08-09T13:40:18Z</time>
      </trkpt>
      <trkpt lat="44.65065" lon="3.83564">
        <ele>1168.9</ele>
        <time>2021-08-09T13:40:20Z</time>
      </trkpt>
      <trkpt lat="44.65055" lon="3.83558">
        <ele>1168.4</ele>
        <time>2021-08-09T13:40:22Z</time>
      </trkpt>
      <trkpt lat="44.65044" lon="3.83552">
        <ele>1167.9</ele>
        <time>2021-08-09T13:40:24Z</time>
      </trkpt>
      <trkpt lat="44.65031" lon="3.83545">
        <ele>1167.5</ele>
        <time>2021-08-09T13:40:26Z</time>
      </trkpt>
      <trkpt lat="44.65017" lon="3.83536">
        <ele>1166.9</ele>
        <time>2021-08-09T13:40:28Z</time>
      </trkpt>
      <trkpt lat="44.65005" lon="3.83522">
        <ele>1165.9</ele>
        <time>2021-08-09T13:40:30Z</time>
      </trkpt>
      <trkpt lat="44.64996" lon="3.83503">
        <ele>1164.9</ele>
        <time>2021-08-09T13:40:32Z</time>
      </trkpt>
      <trkpt lat="44.64988" lon="3.83484">
        <ele>1164.7</ele>
        <time>2021-08-09T13:40:34Z</time>
      </trkpt>
      <trkpt lat="44.6498" lon="3.83464">
        <ele>1164.7</ele>
        <time>2021-08-09T13:40:36Z</time>
      </trkpt>
      <trkpt lat="44.64973" lon="3.83445">
        <ele>1164.6</ele>
        <time>2021-08-09T13:40:38Z</time>
      </trkpt>
      <trkpt lat="44.64966" lon="3.83427">
        <ele>1164.6</ele>
        <time>2021-08-09T13:40:40Z</time>
      </trkpt>
      <trkpt lat="44.64958" lon="3.8341">
        <ele>1164.7</ele>
        <time>2021-08-09T13:40:42Z</time>
      </trkpt>
      <trkpt lat="44.64951" lon="3.83395">
        <ele>1164.9</ele>
        <time>2021-08-09T13:40:44Z</time>
      </trkpt>
      <trkpt lat="44.64943" lon="3.8338">
        <ele>1165.1</ele>
        <time>2021-08-09T13:40:46Z</time>
      </trkpt>
      <trkpt lat="44.64937" lon="3.83367">
        <ele>1165.4</ele>
        <time>2021-08-09T13:40:48Z</time>
      </trkpt>
      <trkpt lat="44.64931" lon="3.83355">
        <ele>1165.8</ele>
        <time>2021-08-09T13:40:50Z</time>
      </trkpt>
      <trkpt lat="44.64925" lon="3.83345">
        <ele>1166.2</ele>
        <time>2021-08-09T13:40:52Z</time>
      </trkpt>
      <trkpt lat="44.64919" lon="3.83335">
        <ele>1166.6</ele>
        <time>2021-08-09T13:40:54Z</time>
      </trkpt>
      <trkpt lat="44.64914" lon="3.83328">
        <ele>1166.5</ele>
        <time>2021-08-09T13:40:56Z</time>
      </trkpt>
      <trkpt lat="44.64909" lon="3.83321">
        <ele>1165.9</ele>
        <time>2021-08-09T13:40:58Z</time>
      </trkpt>
      <trkpt lat="44.64903" lon="3.83315">
        <ele>1165.2</ele>
        <time>2021-08-09T13:41:00Z</time>
      </trkpt>
      <trkpt lat="44.64897" lon="3.8331">
        <ele>1164.6</ele>
        <time>2021-08-09T13:41:02Z</time>
      </trkpt>
      <trkpt lat="44.64893" lon="3.83305">
        <ele>1164</ele>
        <time>2021-08-09T13:41:04Z</time>
      </trkpt>
      <trkpt lat="44.64888" lon="3.83302">
        <ele>1163.6</ele>
        <time>2021-08-09T13:41:06Z</time>
      </trkpt>
      <trkpt lat="44.64885" lon="3.83299">
        <ele>1163.2</ele>
        <time>2021-08-09T13:41:08Z</time>
      </trkpt>
      <trkpt lat="44.64882" lon="3.83297">
        <ele>1162.8</ele>
        <time>2021-08-09T13:41:10Z</time>
      </trkpt>
      <trkpt lat="44.64879" lon="3.83295">
        <ele>1162.5</ele>
        <time>2021-08-09T13:41:12Z</time>
      </trkpt>
      <trkpt lat="44.64875" lon="3.83294">
        <ele>1162.3</ele>
        <time>2021-08-09T13:41:14Z</time>
      </trkpt>
      <trkpt lat="44.64872" lon="3.83292">
        <ele>1162</ele>
        <time>2021-08-09T13:41:16Z</time>
      </trkpt>
      <trkpt lat="44.64869" lon="3.83291">
        <ele>1161.7</ele>
        <time>2021-08-09T13:41:18Z</time>
      </trkpt>
      <trkpt lat="44.64865" lon="3.8329">
        <ele>1161.5</ele>
        <time>2021-08-09T13:41:20Z</time>
      </trkpt>
      <trkpt lat="44.64862" lon="3.83289">
        <ele>1161.2</ele>
        <time>2021-08-09T13:41:22Z</time>
      </trkpt>
      <trkpt lat="44.6486" lon="3.8329">
        <ele>1161.2</ele>
        <time>2021-08-09T13:41:24Z</time>
      </trkpt>
      <trkpt lat="44.64859" lon="3.83289">
        <ele>1161.1</ele>
        <time>2021-08-09T13:41:26Z</time>
      </trkpt>
      <trkpt lat="44.64858" lon="3.83289">
        <ele>1161.1</ele>
        <time>2021-08-09T13:41:28Z</time>
      </trkpt>
      <trkpt lat="44.64858" lon="3.83289">
        <ele>1161</ele>
        <time>2021-08-09T13:41:30Z</time>
      </trkpt>
      <trkpt lat="44.64859" lon="3.83289">
        <ele>1161.1</ele>
        <time>2021-08-09T13:41:32Z</time>
      </trkpt>
      <trkpt lat="44.64839" lon="3.83292">
        <ele>1160.8</ele>
        <time>2021-08-09T13:48:30Z</time>
      </trkpt>
      <trkpt lat="44.64833" lon="3.83293">
        <ele>1160.6</ele>
        <time>2021-08-09T13:48:32Z</time>
      </trkpt>
      <trkpt lat="44.64825" lon="3.83296">
        <ele>1160</ele>
        <time>2021-08-09T13:48:34Z</time>
      </trkpt>
      <trkpt lat="44.64816" lon="3.83302">
        <ele>1159.5</ele>
        <time>2021-08-09T13:48:36Z</time>
      </trkpt>
      <trkpt lat="44.64804" lon="3.83309">
        <ele>1159.1</ele>
        <time>2021-08-09T13:48:38Z</time>
      </trkpt>
      <trkpt lat="44.64792" lon="3.83316">
        <ele>1158.8</ele>
        <time>2021-08-09T13:48:40Z</time>
      </trkpt>
      <trkpt lat="44.6478" lon="3.83323">
        <ele>1158.5</ele>
        <time>2021-08-09T13:48:42Z</time>
      </trkpt>
      <trkpt lat="44.64767" lon="3.83328">
        <ele>1158</ele>
        <time>2021-08-09T13:48:44Z</time>
      </trkpt>
      <trkpt lat="44.64755" lon="3.83332">
        <ele>1157.3</ele>
        <time>2021-08-09T13:48:46Z</time>
      </trkpt>
      <trkpt lat="44.64743" lon="3.83335">
        <ele>1156.3</ele>
        <time>2021-08-09T13:48:48Z</time>
      </trkpt>
      <trkpt lat="44.64732" lon="3.83337">
        <ele>1154.8</ele>
        <time>2021-08-09T13:48:50Z</time>
      </trkpt>
      <trkpt lat="44.64721" lon="3.83338">
        <ele>1153.4</ele>
        <time>2021-08-09T13:48:52Z</time>
      </trkpt>
      <trkpt lat="44.64711" lon="3.8334">
        <ele>1152.3</ele>
        <time>2021-08-09T13:48:54Z</time>
      </trkpt>
      <trkpt lat="44.64701" lon="3.83344">
        <ele>1151.6</ele>
        <time>2021-08-09T13:48:56Z</time>
      </trkpt>
      <trkpt lat="44.64691" lon="3.83349">
        <ele>1151.4</ele>
        <time>2021-08-09T13:48:58Z</time>
      </trkpt>
      <trkpt lat="44.6468" lon="3.83355">
        <ele>1151.2</ele>
        <time>2021-08-09T13:49:00Z</time>
      </trkpt>
      <trkpt lat="44.64669" lon="3.83361">
        <ele>1151.1</ele>
        <time>2021-08-09T13:49:02Z</time>
      </trkpt>
      <trkpt lat="44.64657" lon="3.83368">
        <ele>1150.6</ele>
        <time>2021-08-09T13:49:04Z</time>
      </trkpt>
      <trkpt lat="44.64644" lon="3.83374">
        <ele>1149.8</ele>
        <time>2021-08-09T13:49:06Z</time>
      </trkpt>
      <trkpt lat="44.64632" lon="3.83377">
        <ele>1148.1</ele>
        <time>2021-08-09T13:49:08Z</time>
      </trkpt>
      <trkpt lat="44.64621" lon="3.83381">
        <ele>1146.9</ele>
        <time>2021-08-09T13:49:10Z</time>
      </trkpt>
      <trkpt lat="44.6461" lon="3.83385">
        <ele>1145.5</ele>
        <time>2021-08-09T13:49:12Z</time>
      </trkpt>
      <trkpt lat="44.646" lon="3.83389">
        <ele>1144.5</ele>
        <time>2021-08-09T13:49:14Z</time>
      </trkpt>
      <trkpt lat="44.64589" lon="3.83395">
        <ele>1143.9</ele>
        <time>2021-08-09T13:49:16Z</time>
      </trkpt>
      <trkpt lat="44.64578" lon="3.83402">
        <ele>1143.6</ele>
        <time>2021-08-09T13:49:18Z</time>
      </trkpt>
      <trkpt lat="44.64567" lon="3.83407">
        <ele>1143.3</ele>
        <time>2021-08-09T13:49:20Z</time>
      </trkpt>
      <trkpt lat="44.64555" lon="3.83409">
        <ele>1142.5</ele>
        <time>2021-08-09T13:49:22Z</time>
      </trkpt>
      <trkpt lat="44.64542" lon="3.8341">
        <ele>1141</ele>
        <time>2021-08-09T13:49:24Z</time>
      </trkpt>
      <trkpt lat="44.64528" lon="3.8341">
        <ele>1139.1</ele>
        <time>2021-08-09T13:49:26Z</time>
      </trkpt>
      <trkpt lat="44.64515" lon="3.83409">
        <ele>1137.2</ele>
        <time>2021-08-09T13:49:28Z</time>
      </trkpt>
      <trkpt lat="44.64502" lon="3.83411">
        <ele>1136</ele>
        <time>2021-08-09T13:49:30Z</time>
      </trkpt>
      <trkpt lat="44.6449" lon="3.83418">
        <ele>1136.5</ele>
        <time>2021-08-09T13:49:32Z</time>
      </trkpt>
      <trkpt lat="44.64479" lon="3.83423">
        <ele>1137</ele>
        <time>2021-08-09T13:49:34Z</time>
      </trkpt>
      <trkpt lat="44.64468" lon="3.8342">
        <ele>1135.5</ele>
        <time>2021-08-09T13:49:36Z</time>
      </trkpt>
      <trkpt lat="44.64455" lon="3.83416">
        <ele>1133.5</ele>
        <time>2021-08-09T13:49:38Z</time>
      </trkpt>
      <trkpt lat="44.64439" lon="3.83411">
        <ele>1131.2</ele>
        <time>2021-08-09T13:49:40Z</time>
      </trkpt>
      <trkpt lat="44.64421" lon="3.83407">
        <ele>1129.1</ele>
        <time>2021-08-09T13:49:42Z</time>
      </trkpt>
      <trkpt lat="44.64404" lon="3.83403">
        <ele>1126.4</ele>
        <time>2021-08-09T13:49:44Z</time>
      </trkpt>
      <trkpt lat="44.64385" lon="3.83399">
        <ele>1123.6</ele>
        <time>2021-08-09T13:49:46Z</time>
      </trkpt>
      <trkpt lat="44.64369" lon="3.83395">
        <ele>1120.9</ele>
        <time>2021-08-09T13:49:48Z</time>
      </trkpt>
      <trkpt lat="44.64351" lon="3.83396">
        <ele>1119.5</ele>
        <time>2021-08-09T13:49:50Z</time>
      </trkpt>
      <trkpt lat="44.64335" lon="3.83401">
        <ele>1118.9</ele>
        <time>2021-08-09T13:49:52Z</time>
      </trkpt>
      <trkpt lat="44.64323" lon="3.83406">
        <ele>1118.2</ele>
        <time>2021-08-09T13:49:54Z</time>
      </trkpt>
      <trkpt lat="44.64315" lon="3.83409">
        <ele>1117.3</ele>
        <time>2021-08-09T13:49:56Z</time>
      </trkpt>
      <trkpt lat="44.64309" lon="3.83403">
        <ele>1115.3</ele>
        <time>2021-08-09T13:49:58Z</time>
      </trkpt>
      <trkpt lat="44.64311" lon="3.8339">
        <ele>1113</ele>
        <time>2021-08-09T13:50:00Z</time>
      </trkpt>
      <trkpt lat="44.64322" lon="3.8338">
        <ele>1112.6</ele>
        <time>2021-08-09T13:50:02Z</time>
      </trkpt>
      <trkpt lat="44.64332" lon="3.83369">
        <ele>1111.6</ele>
        <time>2021-08-09T13:50:04Z</time>
      </trkpt>
      <trkpt lat="44.64344" lon="3.83358">
        <ele>1110.3</ele>
        <time>2021-08-09T13:50:06Z</time>
      </trkpt>
      <trkpt lat="44.64357" lon="3.83348">
        <ele>1109.2</ele>
        <time>2021-08-09T13:50:08Z</time>
      </trkpt>
      <trkpt lat="44.64371" lon="3.83341">
        <ele>1108.9</ele>
        <time>2021-08-09T13:50:10Z</time>
      </trkpt>
      <trkpt lat="44.64383" lon="3.83337">
        <ele>1109.1</ele>
        <time>2021-08-09T13:50:12Z</time>
      </trkpt>
      <trkpt lat="44.64392" lon="3.83331">
        <ele>1108.5</ele>
        <time>2021-08-09T13:50:14Z</time>
      </trkpt>
      <trkpt lat="44.64398" lon="3.83321">
        <ele>1106.4</ele>
        <time>2021-08-09T13:50:16Z</time>
      </trkpt>
      <trkpt lat="44.64398" lon="3.83308">
        <ele>1103.6</ele>
        <time>2021-08-09T13:50:18Z</time>
      </trkpt>
      <trkpt lat="44.64394" lon="3.833">
        <ele>1101.3</ele>
        <time>2021-08-09T13:50:20Z</time>
      </trkpt>
      <trkpt lat="44.64386" lon="3.83299">
        <ele>1100.4</ele>
        <time>2021-08-09T13:50:22Z</time>
      </trkpt>
      <trkpt lat="44.6438" lon="3.833">
        <ele>1100.2</ele>
        <time>2021-08-09T13:50:24Z</time>
      </trkpt>
      <trkpt lat="44.64375" lon="3.83301">
        <ele>1100</ele>
        <time>2021-08-09T13:50:26Z</time>
      </trkpt>
      <trkpt lat="44.64367" lon="3.83301">
        <ele>1099.6</ele>
        <time>2021-08-09T13:50:28Z</time>
      </trkpt>
      <trkpt lat="44.64359" lon="3.83302">
        <ele>1099.3</ele>
        <time>2021-08-09T13:50:30Z</time>
      </trkpt>
      <trkpt lat="44.64351" lon="3.83303">
        <ele>1098.7</ele>
        <time>2021-08-09T13:50:32Z</time>
      </trkpt>
      <trkpt lat="44.64342" lon="3.83302">
        <ele>1097.9</ele>
        <time>2021-08-09T13:50:34Z</time>
      </trkpt>
      <trkpt lat="44.64334" lon="3.833">
        <ele>1096.9</ele>
        <time>2021-08-09T13:50:36Z</time>
      </trkpt>
      <trkpt lat="44.64324" lon="3.83298">
        <ele>1096</ele>
        <time>2021-08-09T13:50:38Z</time>
      </trkpt>
      <trkpt lat="44.64316" lon="3.83298">
        <ele>1095.4</ele>
        <time>2021-08-09T13:50:40Z</time>
      </trkpt>
      <trkpt lat="44.64308" lon="3.83296">
        <ele>1094.7</ele>
        <time>2021-08-09T13:50:42Z</time>
      </trkpt>
      <trkpt lat="44.64301" lon="3.83293">
        <ele>1093.9</ele>
        <time>2021-08-09T13:50:44Z</time>
      </trkpt>
      <trkpt lat="44.64294" lon="3.83291">
        <ele>1093.2</ele>
        <time>2021-08-09T13:50:46Z</time>
      </trkpt>
      <trkpt lat="44.64286" lon="3.83288">
        <ele>1092.5</ele>
        <time>2021-08-09T13:50:48Z</time>
      </trkpt>
      <trkpt lat="44.64279" lon="3.83284">
        <ele>1091.5</ele>
        <time>2021-08-09T13:50:50Z</time>
      </trkpt>
      <trkpt lat="44.64272" lon="3.8328">
        <ele>1090.6</ele>
        <time>2021-08-09T13:50:52Z</time>
      </trkpt>
      <trkpt lat="44.64265" lon="3.83274">
        <ele>1089.6</ele>
        <time>2021-08-09T13:50:54Z</time>
      </trkpt>
      <trkpt lat="44.6426" lon="3.83267">
        <ele>1088.3</ele>
        <time>2021-08-09T13:50:56Z</time>
      </trkpt>
      <trkpt lat="44.64253" lon="3.83259">
        <ele>1087.3</ele>
        <time>2021-08-09T13:50:58Z</time>
      </trkpt>
      <trkpt lat="44.64249" lon="3.83249">
        <ele>1086</ele>
        <time>2021-08-09T13:51:00Z</time>
      </trkpt>
      <trkpt lat="44.64246" lon="3.83239">
        <ele>1085.9</ele>
        <time>2021-08-09T13:51:02Z</time>
      </trkpt>
      <trkpt lat="44.64246" lon="3.83228">
        <ele>1085.4</ele>
        <time>2021-08-09T13:51:04Z</time>
      </trkpt>
      <trkpt lat="44.64248" lon="3.83218">
        <ele>1084.6</ele>
        <time>2021-08-09T13:51:06Z</time>
      </trkpt>
      <trkpt lat="44.64251" lon="3.83205">
        <ele>1083.8</ele>
        <time>2021-08-09T13:51:08Z</time>
      </trkpt>
      <trkpt lat="44.64257" lon="3.83195">
        <ele>1083.3</ele>
        <time>2021-08-09T13:51:10Z</time>
      </trkpt>
      <trkpt lat="44.64261" lon="3.83184">
        <ele>1082.7</ele>
        <time>2021-08-09T13:51:12Z</time>
      </trkpt>
      <trkpt lat="44.64264" lon="3.83172">
        <ele>1082.1</ele>
        <time>2021-08-09T13:51:14Z</time>
      </trkpt>
      <trkpt lat="44.64266" lon="3.8316">
        <ele>1081.9</ele>
        <time>2021-08-09T13:51:16Z</time>
      </trkpt>
      <trkpt lat="44.64269" lon="3.83148">
        <ele>1082.1</ele>
        <time>2021-08-09T13:51:18Z</time>
      </trkpt>
      <trkpt lat="44.64268" lon="3.83137">
        <ele>1082.3</ele>
        <time>2021-08-09T13:51:20Z</time>
      </trkpt>
      <trkpt lat="44.64265" lon="3.83128">
        <ele>1082.4</ele>
        <time>2021-08-09T13:51:22Z</time>
      </trkpt>
      <trkpt lat="44.64262" lon="3.83119">
        <ele>1082.6</ele>
        <time>2021-08-09T13:51:24Z</time>
      </trkpt>
      <trkpt lat="44.6426" lon="3.83111">
        <ele>1082.7</ele>
        <time>2021-08-09T13:51:26Z</time>
      </trkpt>
      <trkpt lat="44.64257" lon="3.83103">
        <ele>1082.8</ele>
        <time>2021-08-09T13:51:28Z</time>
      </trkpt>
      <trkpt lat="44.64256" lon="3.83094">
        <ele>1082.9</ele>
        <time>2021-08-09T13:51:30Z</time>
      </trkpt>
      <trkpt lat="44.64256" lon="3.83086">
        <ele>1083</ele>
        <time>2021-08-09T13:51:32Z</time>
      </trkpt>
      <trkpt lat="44.64255" lon="3.83078">
        <ele>1084</ele>
        <time>2021-08-09T13:51:34Z</time>
      </trkpt>
      <trkpt lat="44.64255" lon="3.83069">
        <ele>1085.3</ele>
        <time>2021-08-09T13:51:36Z</time>
      </trkpt>
      <trkpt lat="44.64255" lon="3.83062">
        <ele>1086.6</ele>
        <time>2021-08-09T13:51:38Z</time>
      </trkpt>
      <trkpt lat="44.64256" lon="3.83054">
        <ele>1087.8</ele>
        <time>2021-08-09T13:51:40Z</time>
      </trkpt>
      <trkpt lat="44.64258" lon="3.83047">
        <ele>1088.9</ele>
        <time>2021-08-09T13:51:42Z</time>
      </trkpt>
      <trkpt lat="44.64259" lon="3.83041">
        <ele>1089.9</ele>
        <time>2021-08-09T13:51:44Z</time>
      </trkpt>
      <trkpt lat="44.64262" lon="3.83036">
        <ele>1090.8</ele>
        <time>2021-08-09T13:51:46Z</time>
      </trkpt>
      <trkpt lat="44.64264" lon="3.83031">
        <ele>1091.4</ele>
        <time>2021-08-09T13:51:48Z</time>
      </trkpt>
      <trkpt lat="44.64267" lon="3.83028">
        <ele>1091.9</ele>
        <time>2021-08-09T13:51:50Z</time>
      </trkpt>
      <trkpt lat="44.6427" lon="3.83025">
        <ele>1092.2</ele>
        <time>2021-08-09T13:51:52Z</time>
      </trkpt>
      <trkpt lat="44.64273" lon="3.83022">
        <ele>1092.5</ele>
        <time>2021-08-09T13:51:54Z</time>
      </trkpt>
      <trkpt lat="44.64277" lon="3.8302">
        <ele>1092.7</ele>
        <time>2021-08-09T13:51:56Z</time>
      </trkpt>
      <trkpt lat="44.6428" lon="3.83018">
        <ele>1092.9</ele>
        <time>2021-08-09T13:51:58Z</time>
      </trkpt>
      <trkpt lat="44.64284" lon="3.83017">
        <ele>1092.9</ele>
        <time>2021-08-09T13:52:00Z</time>
      </trkpt>
      <trkpt lat="44.64287" lon="3.83017">
        <ele>1092.9</ele>
        <time>2021-08-09T13:52:02Z</time>
      </trkpt>
      <trkpt lat="44.6429" lon="3.83015">
        <ele>1093</ele>
        <time>2021-08-09T13:52:04Z</time>
      </trkpt>
      <trkpt lat="44.64293" lon="3.83013">
        <ele>1093.2</ele>
        <time>2021-08-09T13:52:06Z</time>
      </trkpt>
      <trkpt lat="44.64296" lon="3.8301">
        <ele>1093.4</ele>
        <time>2021-08-09T13:52:08Z</time>
      </trkpt>
      <trkpt lat="44.64299" lon="3.83008">
        <ele>1093.6</ele>
        <time>2021-08-09T13:52:10Z</time>
      </trkpt>
      <trkpt lat="44.64302" lon="3.83006">
        <ele>1093.7</ele>
        <time>2021-08-09T13:52:12Z</time>
      </trkpt>
      <trkpt lat="44.64305" lon="3.83003">
        <ele>1094</ele>
        <time>2021-08-09T13:52:14Z</time>
      </trkpt>
      <trkpt lat="44.64307" lon="3.83">
        <ele>1094.3</ele>
        <time>2021-08-09T13:52:16Z</time>
      </trkpt>
      <trkpt lat="44.6431" lon="3.82996">
        <ele>1094.7</ele>
        <time>2021-08-09T13:52:18Z</time>
      </trkpt>
      <trkpt lat="44.64312" lon="3.82992">
        <ele>1095.1</ele>
        <time>2021-08-09T13:52:20Z</time>
      </trkpt>
      <trkpt lat="44.64314" lon="3.82988">
        <ele>1095.4</ele>
        <time>2021-08-09T13:52:22Z</time>
      </trkpt>
      <trkpt lat="44.64316" lon="3.82983">
        <ele>1095.9</ele>
        <time>2021-08-09T13:52:24Z</time>
      </trkpt>
      <trkpt lat="44.64318" lon="3.82979">
        <ele>1096.2</ele>
        <time>2021-08-09T13:52:26Z</time>
      </trkpt>
      <trkpt lat="44.6432" lon="3.82976">
        <ele>1096.4</ele>
        <time>2021-08-09T13:52:28Z</time>
      </trkpt>
      <trkpt lat="44.64322" lon="3.82971">
        <ele>1096.8</ele>
        <time>2021-08-09T13:52:30Z</time>
      </trkpt>
      <trkpt lat="44.64324" lon="3.82968">
        <ele>1097</ele>
        <time>2021-08-09T13:52:32Z</time>
      </trkpt>
      <trkpt lat="44.64326" lon="3.82964">
        <ele>1097.2</ele>
        <time>2021-08-09T13:52:34Z</time>
      </trkpt>
      <trkpt lat="44.64327" lon="3.82959">
        <ele>1097.5</ele>
        <time>2021-08-09T13:52:36Z</time>
      </trkpt>
      <trkpt lat="44.64329" lon="3.82955">
        <ele>1097.9</ele>
        <time>2021-08-09T13:52:38Z</time>
      </trkpt>
      <trkpt lat="44.64329" lon="3.8295">
        <ele>1098.2</ele>
        <time>2021-08-09T13:52:40Z</time>
      </trkpt>
      <trkpt lat="44.64331" lon="3.82946">
        <ele>1098.5</ele>
        <time>2021-08-09T13:52:42Z</time>
      </trkpt>
      <trkpt lat="44.64333" lon="3.82942">
        <ele>1098.7</ele>
        <time>2021-08-09T13:52:44Z</time>
      </trkpt>
      <trkpt lat="44.64334" lon="3.82937">
        <ele>1099.1</ele>
        <time>2021-08-09T13:52:46Z</time>
      </trkpt>
      <trkpt lat="44.64336" lon="3.82932">
        <ele>1099.6</ele>
        <time>2021-08-09T13:52:48Z</time>
      </trkpt>
      <trkpt lat="44.64337" lon="3.82928">
        <ele>1100</ele>
        <time>2021-08-09T13:52:50Z</time>
      </trkpt>
      <trkpt lat="44.64338" lon="3.82924">
        <ele>1100.4</ele>
        <time>2021-08-09T13:52:52Z</time>
      </trkpt>
      <trkpt lat="44.6434" lon="3.82919">
        <ele>1100.9</ele>
        <time>2021-08-09T13:52:54Z</time>
      </trkpt>
      <trkpt lat="44.64341" lon="3.82915">
        <ele>1101.4</ele>
        <time>2021-08-09T13:52:56Z</time>
      </trkpt>
      <trkpt lat="44.64342" lon="3.8291">
        <ele>1101.8</ele>
        <time>2021-08-09T13:52:58Z</time>
      </trkpt>
      <trkpt lat="44.64343" lon="3.82905">
        <ele>1102.3</ele>
        <time>2021-08-09T13:53:00Z</time>
      </trkpt>
      <trkpt lat="44.64344" lon="3.82901">
        <ele>1102.7</ele>
        <time>2021-08-09T13:53:02Z</time>
      </trkpt>
      <trkpt lat="44.64345" lon="3.82896">
        <ele>1103.1</ele>
        <time>2021-08-09T13:53:04Z</time>
      </trkpt>
      <trkpt lat="44.64346" lon="3.82892">
        <ele>1103.5</ele>
        <time>2021-08-09T13:53:06Z</time>
      </trkpt>
      <trkpt lat="44.64347" lon="3.82887">
        <ele>1103.9</ele>
        <time>2021-08-09T13:53:08Z</time>
      </trkpt>
      <trkpt lat="44.64348" lon="3.82882">
        <ele>1104.3</ele>
        <time>2021-08-09T13:53:10Z</time>
      </trkpt>
      <trkpt lat="44.64349" lon="3.82878">
        <ele>1104.7</ele>
        <time>2021-08-09T13:53:12Z</time>
      </trkpt>
      <trkpt lat="44.6435" lon="3.82874">
        <ele>1105</ele>
        <time>2021-08-09T13:53:14Z</time>
      </trkpt>
      <trkpt lat="44.64351" lon="3.82869">
        <ele>1105.4</ele>
        <time>2021-08-09T13:53:16Z</time>
      </trkpt>
      <trkpt lat="44.64351" lon="3.82865">
        <ele>1105.7</ele>
        <time>2021-08-09T13:53:18Z</time>
      </trkpt>
      <trkpt lat="44.64352" lon="3.8286">
        <ele>1106.1</ele>
        <time>2021-08-09T13:53:20Z</time>
      </trkpt>
      <trkpt lat="44.64353" lon="3.82855">
        <ele>1106.5</ele>
        <time>2021-08-09T13:53:22Z</time>
      </trkpt>
      <trkpt lat="44.64354" lon="3.82851">
        <ele>1106.9</ele>
        <time>2021-08-09T13:53:24Z</time>
      </trkpt>
      <trkpt lat="44.64354" lon="3.82846">
        <ele>1107.2</ele>
        <time>2021-08-09T13:53:26Z</time>
      </trkpt>
      <trkpt lat="44.64355" lon="3.82841">
        <ele>1107.6</ele>
        <time>2021-08-09T13:53:28Z</time>
      </trkpt>
      <trkpt lat="44.64354" lon="3.82836">
        <ele>1108.1</ele>
        <time>2021-08-09T13:53:30Z</time>
      </trkpt>
      <trkpt lat="44.64355" lon="3.82831">
        <ele>1108.5</ele>
        <time>2021-08-09T13:53:32Z</time>
      </trkpt>
      <trkpt lat="44.64356" lon="3.82825">
        <ele>1108.9</ele>
        <time>2021-08-09T13:53:34Z</time>
      </trkpt>
      <trkpt lat="44.64356" lon="3.8282">
        <ele>1109.4</ele>
        <time>2021-08-09T13:53:36Z</time>
      </trkpt>
      <trkpt lat="44.64357" lon="3.82814">
        <ele>1109.8</ele>
        <time>2021-08-09T13:53:38Z</time>
      </trkpt>
      <trkpt lat="44.64359" lon="3.82807">
        <ele>1110.3</ele>
        <time>2021-08-09T13:53:40Z</time>
      </trkpt>
      <trkpt lat="44.6436" lon="3.828">
        <ele>1110.9</ele>
        <time>2021-08-09T13:53:42Z</time>
      </trkpt>
      <trkpt lat="44.64361" lon="3.82792">
        <ele>1111.5</ele>
        <time>2021-08-09T13:53:44Z</time>
      </trkpt>
      <trkpt lat="44.64362" lon="3.82784">
        <ele>1112</ele>
        <time>2021-08-09T13:53:46Z</time>
      </trkpt>
      <trkpt lat="44.64364" lon="3.82776">
        <ele>1112.6</ele>
        <time>2021-08-09T13:53:48Z</time>
      </trkpt>
      <trkpt lat="44.64366" lon="3.82767">
        <ele>1113.1</ele>
        <time>2021-08-09T13:53:50Z</time>
      </trkpt>
      <trkpt lat="44.64368" lon="3.82758">
        <ele>1113.7</ele>
        <time>2021-08-09T13:53:52Z</time>
      </trkpt>
      <trkpt lat="44.64371" lon="3.82748">
        <ele>1114.1</ele>
        <time>2021-08-09T13:53:54Z</time>
      </trkpt>
      <trkpt lat="44.64375" lon="3.82739">
        <ele>1114.3</ele>
        <time>2021-08-09T13:53:56Z</time>
      </trkpt>
      <trkpt lat="44.64381" lon="3.82732">
        <ele>1114</ele>
        <time>2021-08-09T13:53:58Z</time>
      </trkpt>
      <trkpt lat="44.64386" lon="3.82724">
        <ele>1113.8</ele>
        <time>2021-08-09T13:54:00Z</time>
      </trkpt>
      <trkpt lat="44.64391" lon="3.82718">
        <ele>1113.4</ele>
        <time>2021-08-09T13:54:02Z</time>
      </trkpt>
      <trkpt lat="44.64395" lon="3.82712">
        <ele>1113.2</ele>
        <time>2021-08-09T13:54:04Z</time>
      </trkpt>
      <trkpt lat="44.64399" lon="3.82705">
        <ele>1112.9</ele>
        <time>2021-08-09T13:54:06Z</time>
      </trkpt>
      <trkpt lat="44.64403" lon="3.827">
        <ele>1112.5</ele>
        <time>2021-08-09T13:54:08Z</time>
      </trkpt>
      <trkpt lat="44.64406" lon="3.82694">
        <ele>1112.2</ele>
        <time>2021-08-09T13:54:10Z</time>
      </trkpt>
      <trkpt lat="44.64409" lon="3.82688">
        <ele>1111.9</ele>
        <time>2021-08-09T13:54:12Z</time>
      </trkpt>
      <trkpt lat="44.64412" lon="3.82683">
        <ele>1111.6</ele>
        <time>2021-08-09T13:54:14Z</time>
      </trkpt>
      <trkpt lat="44.64414" lon="3.82678">
        <ele>1111.3</ele>
        <time>2021-08-09T13:54:16Z</time>
      </trkpt>
      <trkpt lat="44.64416" lon="3.82674">
        <ele>1110.9</ele>
        <time>2021-08-09T13:54:18Z</time>
      </trkpt>
      <trkpt lat="44.64419" lon="3.82669">
        <ele>1111.5</ele>
        <time>2021-08-09T13:54:20Z</time>
      </trkpt>
      <trkpt lat="44.64421" lon="3.82663">
        <ele>1112.3</ele>
        <time>2021-08-09T13:54:22Z</time>
      </trkpt>
      <trkpt lat="44.64422" lon="3.82658">
        <ele>1113</ele>
        <time>2021-08-09T13:54:24Z</time>
      </trkpt>
      <trkpt lat="44.64424" lon="3.82653">
        <ele>1113.7</ele>
        <time>2021-08-09T13:54:26Z</time>
      </trkpt>
      <trkpt lat="44.64425" lon="3.82649">
        <ele>1114.2</ele>
        <time>2021-08-09T13:54:28Z</time>
      </trkpt>
      <trkpt lat="44.64426" lon="3.82643">
        <ele>1114.9</ele>
        <time>2021-08-09T13:54:30Z</time>
      </trkpt>
      <trkpt lat="44.64428" lon="3.82639">
        <ele>1115.5</ele>
        <time>2021-08-09T13:54:32Z</time>
      </trkpt>
      <trkpt lat="44.64429" lon="3.82634">
        <ele>1116</ele>
        <time>2021-08-09T13:54:34Z</time>
      </trkpt>
      <trkpt lat="44.6443" lon="3.82628">
        <ele>1116.8</ele>
        <time>2021-08-09T13:54:36Z</time>
      </trkpt>
      <trkpt lat="44.64432" lon="3.82623">
        <ele>1117.4</ele>
        <time>2021-08-09T13:54:38Z</time>
      </trkpt>
      <trkpt lat="44.64433" lon="3.82618">
        <ele>1118</ele>
        <time>2021-08-09T13:54:40Z</time>
      </trkpt>
      <trkpt lat="44.64434" lon="3.82613">
        <ele>1118.6</ele>
        <time>2021-08-09T13:54:42Z</time>
      </trkpt>
      <trkpt lat="44.64435" lon="3.82608">
        <ele>1119</ele>
        <time>2021-08-09T13:54:44Z</time>
      </trkpt>
      <trkpt lat="44.64436" lon="3.82603">
        <ele>1119.5</ele>
        <time>2021-08-09T13:54:46Z</time>
      </trkpt>
      <trkpt lat="44.64438" lon="3.82598">
        <ele>1120.1</ele>
        <time>2021-08-09T13:54:48Z</time>
      </trkpt>
      <trkpt lat="44.64439" lon="3.82594">
        <ele>1120.5</ele>
        <time>2021-08-09T13:54:50Z</time>
      </trkpt>
      <trkpt lat="44.6444" lon="3.82588">
        <ele>1121.1</ele>
        <time>2021-08-09T13:54:52Z</time>
      </trkpt>
      <trkpt lat="44.64441" lon="3.82583">
        <ele>1121.6</ele>
        <time>2021-08-09T13:54:54Z</time>
      </trkpt>
      <trkpt lat="44.64442" lon="3.82578">
        <ele>1122.2</ele>
        <time>2021-08-09T13:54:56Z</time>
      </trkpt>
      <trkpt lat="44.64444" lon="3.82573">
        <ele>1122.9</ele>
        <time>2021-08-09T13:54:58Z</time>
      </trkpt>
      <trkpt lat="44.64445" lon="3.82568">
        <ele>1123.4</ele>
        <time>2021-08-09T13:55:00Z</time>
      </trkpt>
      <trkpt lat="44.64446" lon="3.82562">
        <ele>1124</ele>
        <time>2021-08-09T13:55:02Z</time>
      </trkpt>
      <trkpt lat="44.64449" lon="3.82555">
        <ele>1125</ele>
        <time>2021-08-09T13:55:04Z</time>
      </trkpt>
      <trkpt lat="44.6445" lon="3.82549">
        <ele>1125.6</ele>
        <time>2021-08-09T13:55:06Z</time>
      </trkpt>
      <trkpt lat="44.64452" lon="3.82543">
        <ele>1126.1</ele>
        <time>2021-08-09T13:55:08Z</time>
      </trkpt>
      <trkpt lat="44.64453" lon="3.82537">
        <ele>1126.6</ele>
        <time>2021-08-09T13:55:10Z</time>
      </trkpt>
      <trkpt lat="44.64454" lon="3.82532">
        <ele>1127.1</ele>
        <time>2021-08-09T13:55:12Z</time>
      </trkpt>
      <trkpt lat="44.64455" lon="3.82526">
        <ele>1127.5</ele>
        <time>2021-08-09T13:55:14Z</time>
      </trkpt>
      <trkpt lat="44.64457" lon="3.82521">
        <ele>1127.9</ele>
        <time>2021-08-09T13:55:16Z</time>
      </trkpt>
      <trkpt lat="44.64458" lon="3.82516">
        <ele>1128.3</ele>
        <time>2021-08-09T13:55:18Z</time>
      </trkpt>
      <trkpt lat="44.64459" lon="3.8251">
        <ele>1128.6</ele>
        <time>2021-08-09T13:55:20Z</time>
      </trkpt>
      <trkpt lat="44.6446" lon="3.82504">
        <ele>1129</ele>
        <time>2021-08-09T13:55:22Z</time>
      </trkpt>
      <trkpt lat="44.64461" lon="3.82499">
        <ele>1129.3</ele>
        <time>2021-08-09T13:55:24Z</time>
      </trkpt>
      <trkpt lat="44.64462" lon="3.82494">
        <ele>1129.5</ele>
        <time>2021-08-09T13:55:26Z</time>
      </trkpt>
      <trkpt lat="44.64462" lon="3.82489">
        <ele>1129.7</ele>
        <time>2021-08-09T13:55:28Z</time>
      </trkpt>
      <trkpt lat="44.64464" lon="3.82484">
        <ele>1129.9</ele>
        <time>2021-08-09T13:55:30Z</time>
      </trkpt>
      <trkpt lat="44.64465" lon="3.82479">
        <ele>1130.1</ele>
        <time>2021-08-09T13:55:32Z</time>
      </trkpt>
      <trkpt lat="44.64466" lon="3.82474">
        <ele>1130.3</ele>
        <time>2021-08-09T13:55:34Z</time>
      </trkpt>
      <trkpt lat="44.64466" lon="3.82469">
        <ele>1130.4</ele>
        <time>2021-08-09T13:55:36Z</time>
      </trkpt>
      <trkpt lat="44.64467" lon="3.82464">
        <ele>1130.6</ele>
        <time>2021-08-09T13:55:38Z</time>
      </trkpt>
      <trkpt lat="44.64468" lon="3.82459">
        <ele>1130.8</ele>
        <time>2021-08-09T13:55:40Z</time>
      </trkpt>
      <trkpt lat="44.64469" lon="3.82454">
        <ele>1130.9</ele>
        <time>2021-08-09T13:55:42Z</time>
      </trkpt>
      <trkpt lat="44.6447" lon="3.82449">
        <ele>1131</ele>
        <time>2021-08-09T13:55:44Z</time>
      </trkpt>
      <trkpt lat="44.64471" lon="3.82445">
        <ele>1131.1</ele>
        <time>2021-08-09T13:55:46Z</time>
      </trkpt>
      <trkpt lat="44.64471" lon="3.82441">
        <ele>1131.2</ele>
        <time>2021-08-09T13:55:48Z</time>
      </trkpt>
      <trkpt lat="44.64472" lon="3.82436">
        <ele>1131.4</ele>
        <time>2021-08-09T13:55:50Z</time>
      </trkpt>
      <trkpt lat="44.64473" lon="3.82431">
        <ele>1131.4</ele>
        <time>2021-08-09T13:55:52Z</time>
      </trkpt>
      <trkpt lat="44.64473" lon="3.82427">
        <ele>1131.5</ele>
        <time>2021-08-09T13:55:54Z</time>
      </trkpt>
      <trkpt lat="44.64474" lon="3.82422">
        <ele>1131.6</ele>
        <time>2021-08-09T13:55:56Z</time>
      </trkpt>
      <trkpt lat="44.64475" lon="3.82418">
        <ele>1131.7</ele>
        <time>2021-08-09T13:55:58Z</time>
      </trkpt>
      <trkpt lat="44.64476" lon="3.82413">
        <ele>1131.7</ele>
        <time>2021-08-09T13:56:00Z</time>
      </trkpt>
      <trkpt lat="44.64477" lon="3.82409">
        <ele>1131.7</ele>
        <time>2021-08-09T13:56:02Z</time>
      </trkpt>
      <trkpt lat="44.64478" lon="3.82405">
        <ele>1131.7</ele>
        <time>2021-08-09T13:56:04Z</time>
      </trkpt>
      <trkpt lat="44.64478" lon="3.82402">
        <ele>1131.7</ele>
        <time>2021-08-09T13:56:06Z</time>
      </trkpt>
      <trkpt lat="44.64479" lon="3.82397">
        <ele>1131.7</ele>
        <time>2021-08-09T13:56:08Z</time>
      </trkpt>
      <trkpt lat="44.6448" lon="3.82393">
        <ele>1131.7</ele>
        <time>2021-08-09T13:56:10Z</time>
      </trkpt>
      <trkpt lat="44.64481" lon="3.82389">
        <ele>1131.7</ele>
        <time>2021-08-09T13:56:12Z</time>
      </trkpt>
      <trkpt lat="44.64481" lon="3.82385">
        <ele>1131.7</ele>
        <time>2021-08-09T13:56:14Z</time>
      </trkpt>
      <trkpt lat="44.64482" lon="3.82381">
        <ele>1131.7</ele>
        <time>2021-08-09T13:56:16Z</time>
      </trkpt>
      <trkpt lat="44.64483" lon="3.82376">
        <ele>1131.7</ele>
        <time>2021-08-09T13:56:18Z</time>
      </trkpt>
      <trkpt lat="44.64483" lon="3.82371">
        <ele>1131.7</ele>
        <time>2021-08-09T13:56:20Z</time>
      </trkpt>
      <trkpt lat="44.64484" lon="3.82367">
        <ele>1131.7</ele>
        <time>2021-08-09T13:56:22Z</time>
      </trkpt>
      <trkpt lat="44.64484" lon="3.82363">
        <ele>1131.7</ele>
        <time>2021-08-09T13:56:24Z</time>
      </trkpt>
      <trkpt lat="44.64485" lon="3.82358">
        <ele>1131.6</ele>
        <time>2021-08-09T13:56:26Z</time>
      </trkpt>
      <trkpt lat="44.64485" lon="3.82353">
        <ele>1131.6</ele>
        <time>2021-08-09T13:56:28Z</time>
      </trkpt>
      <trkpt lat="44.64485" lon="3.82348">
        <ele>1131.6</ele>
        <time>2021-08-09T13:56:30Z</time>
      </trkpt>
      <trkpt lat="44.64486" lon="3.82344">
        <ele>1131.5</ele>
        <time>2021-08-09T13:56:32Z</time>
      </trkpt>
      <trkpt lat="44.64487" lon="3.82339">
        <ele>1131.5</ele>
        <time>2021-08-09T13:56:34Z</time>
      </trkpt>
      <trkpt lat="44.64488" lon="3.82335">
        <ele>1131.5</ele>
        <time>2021-08-09T13:56:36Z</time>
      </trkpt>
      <trkpt lat="44.64488" lon="3.8233">
        <ele>1131.6</ele>
        <time>2021-08-09T13:56:38Z</time>
      </trkpt>
      <trkpt lat="44.64489" lon="3.82325">
        <ele>1131.7</ele>
        <time>2021-08-09T13:56:40Z</time>
      </trkpt>
      <trkpt lat="44.64489" lon="3.82321">
        <ele>1131.8</ele>
        <time>2021-08-09T13:56:42Z</time>
      </trkpt>
      <trkpt lat="44.6449" lon="3.82316">
        <ele>1131.9</ele>
        <time>2021-08-09T13:56:44Z</time>
      </trkpt>
      <trkpt lat="44.64491" lon="3.82312">
        <ele>1132</ele>
        <time>2021-08-09T13:56:46Z</time>
      </trkpt>
      <trkpt lat="44.64492" lon="3.82307">
        <ele>1132.1</ele>
        <time>2021-08-09T13:56:48Z</time>
      </trkpt>
      <trkpt lat="44.64492" lon="3.82303">
        <ele>1132.2</ele>
        <time>2021-08-09T13:56:50Z</time>
      </trkpt>
      <trkpt lat="44.64493" lon="3.82299">
        <ele>1132.3</ele>
        <time>2021-08-09T13:56:52Z</time>
      </trkpt>
      <trkpt lat="44.64494" lon="3.82295">
        <ele>1132.4</ele>
        <time>2021-08-09T13:56:54Z</time>
      </trkpt>
      <trkpt lat="44.64495" lon="3.82291">
        <ele>1132.5</ele>
        <time>2021-08-09T13:56:56Z</time>
      </trkpt>
      <trkpt lat="44.64495" lon="3.82286">
        <ele>1132.6</ele>
        <time>2021-08-09T13:56:58Z</time>
      </trkpt>
      <trkpt lat="44.64496" lon="3.82281">
        <ele>1132.6</ele>
        <time>2021-08-09T13:57:00Z</time>
      </trkpt>
      <trkpt lat="44.64496" lon="3.82277">
        <ele>1132.7</ele>
        <time>2021-08-09T13:57:02Z</time>
      </trkpt>
      <trkpt lat="44.64497" lon="3.82272">
        <ele>1132.8</ele>
        <time>2021-08-09T13:57:04Z</time>
      </trkpt>
      <trkpt lat="44.64497" lon="3.82267">
        <ele>1132.9</ele>
        <time>2021-08-09T13:57:06Z</time>
      </trkpt>
      <trkpt lat="44.64498" lon="3.82262">
        <ele>1132.9</ele>
        <time>2021-08-09T13:57:08Z</time>
      </trkpt>
      <trkpt lat="44.64498" lon="3.82257">
        <ele>1133</ele>
        <time>2021-08-09T13:57:10Z</time>
      </trkpt>
      <trkpt lat="44.64498" lon="3.82253">
        <ele>1133.1</ele>
        <time>2021-08-09T13:57:12Z</time>
      </trkpt>
      <trkpt lat="44.64499" lon="3.82248">
        <ele>1133.2</ele>
        <time>2021-08-09T13:57:14Z</time>
      </trkpt>
      <trkpt lat="44.645" lon="3.82244">
        <ele>1133.6</ele>
        <time>2021-08-09T13:57:16Z</time>
      </trkpt>
      <trkpt lat="44.645" lon="3.82239">
        <ele>1134.1</ele>
        <time>2021-08-09T13:57:18Z</time>
      </trkpt>
      <trkpt lat="44.64501" lon="3.82235">
        <ele>1134.7</ele>
        <time>2021-08-09T13:57:20Z</time>
      </trkpt>
      <trkpt lat="44.64502" lon="3.8223">
        <ele>1135.3</ele>
        <time>2021-08-09T13:57:22Z</time>
      </trkpt>
      <trkpt lat="44.64502" lon="3.82225">
        <ele>1135.8</ele>
        <time>2021-08-09T13:57:24Z</time>
      </trkpt>
      <trkpt lat="44.64503" lon="3.82221">
        <ele>1136.5</ele>
        <time>2021-08-09T13:57:26Z</time>
      </trkpt>
      <trkpt lat="44.64504" lon="3.82216">
        <ele>1137.1</ele>
        <time>2021-08-09T13:57:28Z</time>
      </trkpt>
      <trkpt lat="44.64504" lon="3.82211">
        <ele>1137.7</ele>
        <time>2021-08-09T13:57:30Z</time>
      </trkpt>
      <trkpt lat="44.64504" lon="3.82207">
        <ele>1138.1</ele>
        <time>2021-08-09T13:57:32Z</time>
      </trkpt>
      <trkpt lat="44.64505" lon="3.82202">
        <ele>1138.6</ele>
        <time>2021-08-09T13:57:34Z</time>
      </trkpt>
      <trkpt lat="44.64505" lon="3.82198">
        <ele>1139.1</ele>
        <time>2021-08-09T13:57:36Z</time>
      </trkpt>
      <trkpt lat="44.64506" lon="3.82193">
        <ele>1139.7</ele>
        <time>2021-08-09T13:57:38Z</time>
      </trkpt>
      <trkpt lat="44.64507" lon="3.82188">
        <ele>1140.4</ele>
        <time>2021-08-09T13:57:40Z</time>
      </trkpt>
      <trkpt lat="44.64509" lon="3.82185">
        <ele>1141</ele>
        <time>2021-08-09T13:57:42Z</time>
      </trkpt>
      <trkpt lat="44.6451" lon="3.82181">
        <ele>1141.7</ele>
        <time>2021-08-09T13:57:44Z</time>
      </trkpt>
      <trkpt lat="44.64511" lon="3.82176">
        <ele>1142.3</ele>
        <time>2021-08-09T13:57:46Z</time>
      </trkpt>
      <trkpt lat="44.64512" lon="3.82172">
        <ele>1143</ele>
        <time>2021-08-09T13:57:48Z</time>
      </trkpt>
      <trkpt lat="44.64513" lon="3.82168">
        <ele>1143.5</ele>
        <time>2021-08-09T13:57:50Z</time>
      </trkpt>
      <trkpt lat="44.64514" lon="3.82164">
        <ele>1144.1</ele>
        <time>2021-08-09T13:57:52Z</time>
      </trkpt>
      <trkpt lat="44.64515" lon="3.8216">
        <ele>1144.5</ele>
        <time>2021-08-09T13:57:54Z</time>
      </trkpt>
      <trkpt lat="44.64516" lon="3.82157">
        <ele>1145</ele>
        <time>2021-08-09T13:57:56Z</time>
      </trkpt>
      <trkpt lat="44.64517" lon="3.82153">
        <ele>1145.5</ele>
        <time>2021-08-09T13:57:58Z</time>
      </trkpt>
      <trkpt lat="44.64518" lon="3.82149">
        <ele>1146</ele>
        <time>2021-08-09T13:58:00Z</time>
      </trkpt>
      <trkpt lat="44.64519" lon="3.82146">
        <ele>1146.4</ele>
        <time>2021-08-09T13:58:02Z</time>
      </trkpt>
      <trkpt lat="44.6452" lon="3.82143">
        <ele>1146.8</ele>
        <time>2021-08-09T13:58:04Z</time>
      </trkpt>
      <trkpt lat="44.64521" lon="3.82139">
        <ele>1147.3</ele>
        <time>2021-08-09T13:58:06Z</time>
      </trkpt>
      <trkpt lat="44.64522" lon="3.82136">
        <ele>1147.8</ele>
        <time>2021-08-09T13:58:08Z</time>
      </trkpt>
      <trkpt lat="44.64523" lon="3.82132">
        <ele>1148.2</ele>
        <time>2021-08-09T13:58:10Z</time>
      </trkpt>
      <trkpt lat="44.64524" lon="3.82127">
        <ele>1148.8</ele>
        <time>2021-08-09T13:58:12Z</time>
      </trkpt>
      <trkpt lat="44.64526" lon="3.82123">
        <ele>1149.3</ele>
        <time>2021-08-09T13:58:14Z</time>
      </trkpt>
      <trkpt lat="44.64527" lon="3.8212">
        <ele>1149.8</ele>
        <time>2021-08-09T13:58:16Z</time>
      </trkpt>
      <trkpt lat="44.64528" lon="3.82115">
        <ele>1150.2</ele>
        <time>2021-08-09T13:58:18Z</time>
      </trkpt>
      <trkpt lat="44.6453" lon="3.82111">
        <ele>1150.7</ele>
        <time>2021-08-09T13:58:20Z</time>
      </trkpt>
      <trkpt lat="44.6453" lon="3.82107">
        <ele>1151</ele>
        <time>2021-08-09T13:58:22Z</time>
      </trkpt>
      <trkpt lat="44.64531" lon="3.82103">
        <ele>1151.5</ele>
        <time>2021-08-09T13:58:24Z</time>
      </trkpt>
      <trkpt lat="44.64533" lon="3.82099">
        <ele>1152</ele>
        <time>2021-08-09T13:58:26Z</time>
      </trkpt>
      <trkpt lat="44.64534" lon="3.82097">
        <ele>1152.3</ele>
        <time>2021-08-09T13:58:28Z</time>
      </trkpt>
      <trkpt lat="44.64535" lon="3.82093">
        <ele>1152.7</ele>
        <time>2021-08-09T13:58:30Z</time>
      </trkpt>
      <trkpt lat="44.64536" lon="3.8209">
        <ele>1153</ele>
        <time>2021-08-09T13:58:32Z</time>
      </trkpt>
      <trkpt lat="44.64537" lon="3.82086">
        <ele>1153.5</ele>
        <time>2021-08-09T13:58:34Z</time>
      </trkpt>
      <trkpt lat="44.64539" lon="3.82082">
        <ele>1154.1</ele>
        <time>2021-08-09T13:58:36Z</time>
      </trkpt>
      <trkpt lat="44.64541" lon="3.82078">
        <ele>1154.7</ele>
        <time>2021-08-09T13:58:38Z</time>
      </trkpt>
      <trkpt lat="44.64543" lon="3.82073">
        <ele>1155.4</ele>
        <time>2021-08-09T13:58:40Z</time>
      </trkpt>
      <trkpt lat="44.64544" lon="3.8207">
        <ele>1156</ele>
        <time>2021-08-09T13:58:42Z</time>
      </trkpt>
      <trkpt lat="44.64546" lon="3.82067">
        <ele>1156.5</ele>
        <time>2021-08-09T13:58:44Z</time>
      </trkpt>
      <trkpt lat="44.64548" lon="3.82063">
        <ele>1157.1</ele>
        <time>2021-08-09T13:58:46Z</time>
      </trkpt>
      <trkpt lat="44.64549" lon="3.8206">
        <ele>1157.5</ele>
        <time>2021-08-09T13:58:48Z</time>
      </trkpt>
      <trkpt lat="44.6455" lon="3.82056">
        <ele>1158</ele>
        <time>2021-08-09T13:58:50Z</time>
      </trkpt>
      <trkpt lat="44.64551" lon="3.82053">
        <ele>1158.4</ele>
        <time>2021-08-09T13:58:52Z</time>
      </trkpt>
      <trkpt lat="44.64552" lon="3.82048">
        <ele>1158.9</ele>
        <time>2021-08-09T13:58:54Z</time>
      </trkpt>
      <trkpt lat="44.64553" lon="3.82043">
        <ele>1159.3</ele>
        <time>2021-08-09T13:58:56Z</time>
      </trkpt>
      <trkpt lat="44.64554" lon="3.82039">
        <ele>1159.8</ele>
        <time>2021-08-09T13:58:58Z</time>
      </trkpt>
      <trkpt lat="44.64555" lon="3.82034">
        <ele>1160.2</ele>
        <time>2021-08-09T13:59:00Z</time>
      </trkpt>
      <trkpt lat="44.64556" lon="3.8203">
        <ele>1160.5</ele>
        <time>2021-08-09T13:59:02Z</time>
      </trkpt>
      <trkpt lat="44.64557" lon="3.82027">
        <ele>1160.9</ele>
        <time>2021-08-09T13:59:04Z</time>
      </trkpt>
      <trkpt lat="44.64558" lon="3.82023">
        <ele>1161.3</ele>
        <time>2021-08-09T13:59:06Z</time>
      </trkpt>
      <trkpt lat="44.64558" lon="3.82019">
        <ele>1161.6</ele>
        <time>2021-08-09T13:59:08Z</time>
      </trkpt>
      <trkpt lat="44.64559" lon="3.82017">
        <ele>1161.8</ele>
        <time>2021-08-09T13:59:10Z</time>
      </trkpt>
      <trkpt lat="44.6456" lon="3.82014">
        <ele>1162.1</ele>
        <time>2021-08-09T13:59:12Z</time>
      </trkpt>
      <trkpt lat="44.64561" lon="3.82012">
        <ele>1162.4</ele>
        <time>2021-08-09T13:59:14Z</time>
      </trkpt>
      <trkpt lat="44.64561" lon="3.82012">
        <ele>1162.3</ele>
        <time>2021-08-09T13:59:16Z</time>
      </trkpt>
      <trkpt lat="44.64561" lon="3.82011">
        <ele>1162.5</ele>
        <time>2021-08-09T13:59:18Z</time>
      </trkpt>
      <trkpt lat="44.64561" lon="3.8201">
        <ele>1162.5</ele>
        <time>2021-08-09T13:59:20Z</time>
      </trkpt>
      <trkpt lat="44.64561" lon="3.8201">
        <ele>1162.6</ele>
        <time>2021-08-09T13:59:22Z</time>
      </trkpt>
      <trkpt lat="44.64565" lon="3.81993">
        <ele>1163.7</ele>
        <time>2021-08-09T14:00:24Z</time>
      </trkpt>
      <trkpt lat="44.64565" lon="3.81989">
        <ele>1163.9</ele>
        <time>2021-08-09T14:00:26Z</time>
      </trkpt>
      <trkpt lat="44.64566" lon="3.81987">
        <ele>1164.1</ele>
        <time>2021-08-09T14:00:28Z</time>
      </trkpt>
      <trkpt lat="44.64566" lon="3.81984">
        <ele>1164.2</ele>
        <time>2021-08-09T14:00:30Z</time>
      </trkpt>
      <trkpt lat="44.64567" lon="3.8198">
        <ele>1164.3</ele>
        <time>2021-08-09T14:00:32Z</time>
      </trkpt>
      <trkpt lat="44.64567" lon="3.81977">
        <ele>1164.5</ele>
        <time>2021-08-09T14:00:34Z</time>
      </trkpt>
      <trkpt lat="44.64568" lon="3.81974">
        <ele>1164.6</ele>
        <time>2021-08-09T14:00:36Z</time>
      </trkpt>
      <trkpt lat="44.64568" lon="3.81969">
        <ele>1164.8</ele>
        <time>2021-08-09T14:00:38Z</time>
      </trkpt>
      <trkpt lat="44.64569" lon="3.81968">
        <ele>1164.8</ele>
        <time>2021-08-09T14:00:40Z</time>
      </trkpt>
      <trkpt lat="44.64569" lon="3.81963">
        <ele>1164.9</ele>
        <time>2021-08-09T14:00:42Z</time>
      </trkpt>
      <trkpt lat="44.64569" lon="3.8196">
        <ele>1165</ele>
        <time>2021-08-09T14:00:44Z</time>
      </trkpt>
      <trkpt lat="44.64569" lon="3.8196">
        <ele>1165</ele>
        <time>2021-08-09T14:00:46Z</time>
      </trkpt>
      <trkpt lat="44.64568" lon="3.81957">
        <ele>1165</ele>
        <time>2021-08-09T14:00:48Z</time>
      </trkpt>
      <trkpt lat="44.64567" lon="3.81954">
        <ele>1165</ele>
        <time>2021-08-09T14:00:50Z</time>
      </trkpt>
      <trkpt lat="44.64567" lon="3.81954">
        <ele>1165</ele>
        <time>2021-08-09T14:00:52Z</time>
      </trkpt>
      <trkpt lat="44.64567" lon="3.81953">
        <ele>1165</ele>
        <time>2021-08-09T14:00:54Z</time>
      </trkpt>
      <trkpt lat="44.64568" lon="3.81954">
        <ele>1165.1</ele>
        <time>2021-08-09T14:00:56Z</time>
      </trkpt>
      <trkpt lat="44.64568" lon="3.81953">
        <ele>1165.1</ele>
        <time>2021-08-09T14:00:58Z</time>
      </trkpt>
      <trkpt lat="44.64576" lon="3.81913">
        <ele>1166.4</ele>
        <time>2021-08-09T14:03:30Z</time>
      </trkpt>
      <trkpt lat="44.64577" lon="3.81909">
        <ele>1166.8</ele>
        <time>2021-08-09T14:03:32Z</time>
      </trkpt>
      <trkpt lat="44.64577" lon="3.81905">
        <ele>1167.2</ele>
        <time>2021-08-09T14:03:34Z</time>
      </trkpt>
      <trkpt lat="44.64578" lon="3.819">
        <ele>1167.7</ele>
        <time>2021-08-09T14:03:36Z</time>
      </trkpt>
      <trkpt lat="44.64578" lon="3.81896">
        <ele>1168</ele>
        <time>2021-08-09T14:03:38Z</time>
      </trkpt>
      <trkpt lat="44.64579" lon="3.81892">
        <ele>1168.4</ele>
        <time>2021-08-09T14:03:40Z</time>
      </trkpt>
      <trkpt lat="44.64579" lon="3.81889">
        <ele>1168.8</ele>
        <time>2021-08-09T14:03:42Z</time>
      </trkpt>
      <trkpt lat="44.6458" lon="3.81885">
        <ele>1169.1</ele>
        <time>2021-08-09T14:03:44Z</time>
      </trkpt>
      <trkpt lat="44.64581" lon="3.81881">
        <ele>1169.5</ele>
        <time>2021-08-09T14:03:46Z</time>
      </trkpt>
      <trkpt lat="44.64582" lon="3.81878">
        <ele>1169.8</ele>
        <time>2021-08-09T14:03:48Z</time>
      </trkpt>
      <trkpt lat="44.64582" lon="3.81874">
        <ele>1170.2</ele>
        <time>2021-08-09T14:03:50Z</time>
      </trkpt>
      <trkpt lat="44.64582" lon="3.81871">
        <ele>1170.4</ele>
        <time>2021-08-09T14:03:52Z</time>
      </trkpt>
      <trkpt lat="44.64581" lon="3.81867">
        <ele>1170.8</ele>
        <time>2021-08-09T14:03:54Z</time>
      </trkpt>
      <trkpt lat="44.6458" lon="3.81864">
        <ele>1171.1</ele>
        <time>2021-08-09T14:03:56Z</time>
      </trkpt>
      <trkpt lat="44.6458" lon="3.81862">
        <ele>1171.4</ele>
        <time>2021-08-09T14:03:58Z</time>
      </trkpt>
      <trkpt lat="44.64579" lon="3.81859">
        <ele>1171.7</ele>
        <time>2021-08-09T14:04:00Z</time>
      </trkpt>
      <trkpt lat="44.64579" lon="3.81856">
        <ele>1172</ele>
        <time>2021-08-09T14:04:02Z</time>
      </trkpt>
      <trkpt lat="44.64579" lon="3.81853">
        <ele>1172.3</ele>
        <time>2021-08-09T14:04:04Z</time>
      </trkpt>
      <trkpt lat="44.64578" lon="3.81851">
        <ele>1172.6</ele>
        <time>2021-08-09T14:04:06Z</time>
      </trkpt>
      <trkpt lat="44.64577" lon="3.81848">
        <ele>1172.9</ele>
        <time>2021-08-09T14:04:08Z</time>
      </trkpt>
      <trkpt lat="44.64577" lon="3.81844">
        <ele>1173.3</ele>
        <time>2021-08-09T14:04:10Z</time>
      </trkpt>
      <trkpt lat="44.64576" lon="3.81841">
        <ele>1173.7</ele>
        <time>2021-08-09T14:04:12Z</time>
      </trkpt>
      <trkpt lat="44.64575" lon="3.81838">
        <ele>1174</ele>
        <time>2021-08-09T14:04:14Z</time>
      </trkpt>
      <trkpt lat="44.64574" lon="3.81834">
        <ele>1174.5</ele>
        <time>2021-08-09T14:04:16Z</time>
      </trkpt>
      <trkpt lat="44.64573" lon="3.81831">
        <ele>1174.8</ele>
        <time>2021-08-09T14:04:18Z</time>
      </trkpt>
      <trkpt lat="44.64572" lon="3.81828">
        <ele>1175.3</ele>
        <time>2021-08-09T14:04:20Z</time>
      </trkpt>
      <trkpt lat="44.64572" lon="3.81824">
        <ele>1175.7</ele>
        <time>2021-08-09T14:04:22Z</time>
      </trkpt>
      <trkpt lat="44.64571" lon="3.8182">
        <ele>1176.1</ele>
        <time>2021-08-09T14:04:24Z</time>
      </trkpt>
      <trkpt lat="44.64571" lon="3.81816">
        <ele>1176.6</ele>
        <time>2021-08-09T14:04:26Z</time>
      </trkpt>
      <trkpt lat="44.64571" lon="3.81813">
        <ele>1176.9</ele>
        <time>2021-08-09T14:04:28Z</time>
      </trkpt>
      <trkpt lat="44.6457" lon="3.81809">
        <ele>1177.3</ele>
        <time>2021-08-09T14:04:30Z</time>
      </trkpt>
      <trkpt lat="44.6457" lon="3.81806">
        <ele>1177.7</ele>
        <time>2021-08-09T14:04:32Z</time>
      </trkpt>
      <trkpt lat="44.64571" lon="3.81803">
        <ele>1178</ele>
        <time>2021-08-09T14:04:34Z</time>
      </trkpt>
      <trkpt lat="44.6457" lon="3.81799">
        <ele>1178.4</ele>
        <time>2021-08-09T14:04:36Z</time>
      </trkpt>
      <trkpt lat="44.6457" lon="3.81796">
        <ele>1178.7</ele>
        <time>2021-08-09T14:04:38Z</time>
      </trkpt>
      <trkpt lat="44.64571" lon="3.81793">
        <ele>1179</ele>
        <time>2021-08-09T14:04:40Z</time>
      </trkpt>
      <trkpt lat="44.6457" lon="3.8179">
        <ele>1179.4</ele>
        <time>2021-08-09T14:04:42Z</time>
      </trkpt>
      <trkpt lat="44.6457" lon="3.81786">
        <ele>1179.8</ele>
        <time>2021-08-09T14:04:44Z</time>
      </trkpt>
      <trkpt lat="44.6457" lon="3.81783">
        <ele>1180.1</ele>
        <time>2021-08-09T14:04:46Z</time>
      </trkpt>
      <trkpt lat="44.64572" lon="3.8178">
        <ele>1180.4</ele>
        <time>2021-08-09T14:04:48Z</time>
      </trkpt>
      <trkpt lat="44.64572" lon="3.81776">
        <ele>1180.8</ele>
        <time>2021-08-09T14:04:50Z</time>
      </trkpt>
      <trkpt lat="44.64573" lon="3.81772">
        <ele>1181.2</ele>
        <time>2021-08-09T14:04:52Z</time>
      </trkpt>
      <trkpt lat="44.64573" lon="3.81768">
        <ele>1181.6</ele>
        <time>2021-08-09T14:04:54Z</time>
      </trkpt>
      <trkpt lat="44.64575" lon="3.81765">
        <ele>1181.8</ele>
        <time>2021-08-09T14:04:56Z</time>
      </trkpt>
      <trkpt lat="44.64576" lon="3.81761">
        <ele>1182.2</ele>
        <time>2021-08-09T14:04:58Z</time>
      </trkpt>
      <trkpt lat="44.64576" lon="3.81757">
        <ele>1182.5</ele>
        <time>2021-08-09T14:05:00Z</time>
      </trkpt>
      <trkpt lat="44.64578" lon="3.81754">
        <ele>1182.8</ele>
        <time>2021-08-09T14:05:02Z</time>
      </trkpt>
      <trkpt lat="44.64578" lon="3.81751">
        <ele>1183.1</ele>
        <time>2021-08-09T14:05:04Z</time>
      </trkpt>
      <trkpt lat="44.64579" lon="3.81748">
        <ele>1183.4</ele>
        <time>2021-08-09T14:05:06Z</time>
      </trkpt>
      <trkpt lat="44.64579" lon="3.81744">
        <ele>1183.8</ele>
        <time>2021-08-09T14:05:08Z</time>
      </trkpt>
      <trkpt lat="44.64579" lon="3.81741">
        <ele>1184.1</ele>
        <time>2021-08-09T14:05:10Z</time>
      </trkpt>
      <trkpt lat="44.6458" lon="3.81738">
        <ele>1184.4</ele>
        <time>2021-08-09T14:05:12Z</time>
      </trkpt>
      <trkpt lat="44.6458" lon="3.81734">
        <ele>1184.7</ele>
        <time>2021-08-09T14:05:14Z</time>
      </trkpt>
      <trkpt lat="44.64579" lon="3.8173">
        <ele>1185.1</ele>
        <time>2021-08-09T14:05:16Z</time>
      </trkpt>
      <trkpt lat="44.64579" lon="3.81726">
        <ele>1185.5</ele>
        <time>2021-08-09T14:05:18Z</time>
      </trkpt>
      <trkpt lat="44.64579" lon="3.81723">
        <ele>1185.8</ele>
        <time>2021-08-09T14:05:20Z</time>
      </trkpt>
      <trkpt lat="44.64579" lon="3.81719">
        <ele>1186.2</ele>
        <time>2021-08-09T14:05:22Z</time>
      </trkpt>
      <trkpt lat="44.64579" lon="3.81717">
        <ele>1186.4</ele>
        <time>2021-08-09T14:05:24Z</time>
      </trkpt>
      <trkpt lat="44.64579" lon="3.81714">
        <ele>1186.7</ele>
        <time>2021-08-09T14:05:26Z</time>
      </trkpt>
      <trkpt lat="44.64579" lon="3.81712">
        <ele>1186.9</ele>
        <time>2021-08-09T14:05:28Z</time>
      </trkpt>
      <trkpt lat="44.64579" lon="3.81708">
        <ele>1187.2</ele>
        <time>2021-08-09T14:05:30Z</time>
      </trkpt>
      <trkpt lat="44.6458" lon="3.81707">
        <ele>1187.3</ele>
        <time>2021-08-09T14:05:32Z</time>
      </trkpt>
      <trkpt lat="44.6458" lon="3.81707">
        <ele>1187.3</ele>
        <time>2021-08-09T14:05:34Z</time>
      </trkpt>
      <trkpt lat="44.6458" lon="3.81707">
        <ele>1187.3</ele>
        <time>2021-08-09T14:05:36Z</time>
      </trkpt>
      <trkpt lat="44.64579" lon="3.81706">
        <ele>1187.4</ele>
        <time>2021-08-09T14:05:38Z</time>
      </trkpt>
      <trkpt lat="44.6458" lon="3.81706">
        <ele>1187.4</ele>
        <time>2021-08-09T14:05:40Z</time>
      </trkpt>
      <trkpt lat="44.64584" lon="3.81689">
        <ele>1189.1</ele>
        <time>2021-08-09T14:06:34Z</time>
      </trkpt>
      <trkpt lat="44.64585" lon="3.81685">
        <ele>1189.7</ele>
        <time>2021-08-09T14:06:36Z</time>
      </trkpt>
      <trkpt lat="44.64586" lon="3.81681">
        <ele>1190.2</ele>
        <time>2021-08-09T14:06:38Z</time>
      </trkpt>
      <trkpt lat="44.64586" lon="3.81677">
        <ele>1190.7</ele>
        <time>2021-08-09T14:06:40Z</time>
      </trkpt>
      <trkpt lat="44.64587" lon="3.81673">
        <ele>1191.3</ele>
        <time>2021-08-09T14:06:42Z</time>
      </trkpt>
      <trkpt lat="44.64588" lon="3.81669">
        <ele>1191.9</ele>
        <time>2021-08-09T14:06:44Z</time>
      </trkpt>
      <trkpt lat="44.64589" lon="3.81665">
        <ele>1192.5</ele>
        <time>2021-08-09T14:06:46Z</time>
      </trkpt>
      <trkpt lat="44.6459" lon="3.81661">
        <ele>1193.2</ele>
        <time>2021-08-09T14:06:48Z</time>
      </trkpt>
      <trkpt lat="44.64591" lon="3.81657">
        <ele>1193.8</ele>
        <time>2021-08-09T14:06:50Z</time>
      </trkpt>
      <trkpt lat="44.64593" lon="3.81653">
        <ele>1194.4</ele>
        <time>2021-08-09T14:06:52Z</time>
      </trkpt>
      <trkpt lat="44.64594" lon="3.81649">
        <ele>1195.1</ele>
        <time>2021-08-09T14:06:54Z</time>
      </trkpt>
      <trkpt lat="44.64595" lon="3.81645">
        <ele>1195.6</ele>
        <time>2021-08-09T14:06:56Z</time>
      </trkpt>
      <trkpt lat="44.64595" lon="3.8164">
        <ele>1196.1</ele>
        <time>2021-08-09T14:06:58Z</time>
      </trkpt>
      <trkpt lat="44.64596" lon="3.81636">
        <ele>1196.7</ele>
        <time>2021-08-09T14:07:00Z</time>
      </trkpt>
      <trkpt lat="44.64597" lon="3.81631">
        <ele>1197.2</ele>
        <time>2021-08-09T14:07:02Z</time>
      </trkpt>
      <trkpt lat="44.64596" lon="3.81626">
        <ele>1197.6</ele>
        <time>2021-08-09T14:07:04Z</time>
      </trkpt>
      <trkpt lat="44.64597" lon="3.81622">
        <ele>1198</ele>
        <time>2021-08-09T14:07:06Z</time>
      </trkpt>
      <trkpt lat="44.64598" lon="3.8162">
        <ele>1198.5</ele>
        <time>2021-08-09T14:07:08Z</time>
      </trkpt>
      <trkpt lat="44.64598" lon="3.81617">
        <ele>1198.7</ele>
        <time>2021-08-09T14:07:10Z</time>
      </trkpt>
      <trkpt lat="44.64597" lon="3.81613">
        <ele>1198.8</ele>
        <time>2021-08-09T14:07:12Z</time>
      </trkpt>
      <trkpt lat="44.64598" lon="3.8161">
        <ele>1199.2</ele>
        <time>2021-08-09T14:07:14Z</time>
      </trkpt>
      <trkpt lat="44.64598" lon="3.81606">
        <ele>1199.6</ele>
        <time>2021-08-09T14:07:16Z</time>
      </trkpt>
      <trkpt lat="44.646" lon="3.81602">
        <ele>1200.2</ele>
        <time>2021-08-09T14:07:18Z</time>
      </trkpt>
      <trkpt lat="44.646" lon="3.816">
        <ele>1200.6</ele>
        <time>2021-08-09T14:07:20Z</time>
      </trkpt>
      <trkpt lat="44.646" lon="3.81595">
        <ele>1200.9</ele>
        <time>2021-08-09T14:07:22Z</time>
      </trkpt>
      <trkpt lat="44.646" lon="3.81591">
        <ele>1201.2</ele>
        <time>2021-08-09T14:07:24Z</time>
      </trkpt>
      <trkpt lat="44.64599" lon="3.81588">
        <ele>1201.2</ele>
        <time>2021-08-09T14:07:26Z</time>
      </trkpt>
      <trkpt lat="44.64599" lon="3.81584">
        <ele>1201.6</ele>
        <time>2021-08-09T14:07:28Z</time>
      </trkpt>
      <trkpt lat="44.64599" lon="3.8158">
        <ele>1201.8</ele>
        <time>2021-08-09T14:07:30Z</time>
      </trkpt>
      <trkpt lat="44.64598" lon="3.81576">
        <ele>1202</ele>
        <time>2021-08-09T14:07:32Z</time>
      </trkpt>
      <trkpt lat="44.64598" lon="3.81572">
        <ele>1202.1</ele>
        <time>2021-08-09T14:07:34Z</time>
      </trkpt>
      <trkpt lat="44.64598" lon="3.81568">
        <ele>1202.3</ele>
        <time>2021-08-09T14:07:36Z</time>
      </trkpt>
      <trkpt lat="44.64597" lon="3.81564">
        <ele>1202.5</ele>
        <time>2021-08-09T14:07:38Z</time>
      </trkpt>
      <trkpt lat="44.64597" lon="3.8156">
        <ele>1202.6</ele>
        <time>2021-08-09T14:07:40Z</time>
      </trkpt>
      <trkpt lat="44.64596" lon="3.81556">
        <ele>1202.8</ele>
        <time>2021-08-09T14:07:42Z</time>
      </trkpt>
      <trkpt lat="44.64596" lon="3.81552">
        <ele>1203</ele>
        <time>2021-08-09T14:07:44Z</time>
      </trkpt>
      <trkpt lat="44.64596" lon="3.81548">
        <ele>1203.2</ele>
        <time>2021-08-09T14:07:46Z</time>
      </trkpt>
      <trkpt lat="44.64595" lon="3.81544">
        <ele>1203.3</ele>
        <time>2021-08-09T14:07:48Z</time>
      </trkpt>
      <trkpt lat="44.64595" lon="3.8154">
        <ele>1203.5</ele>
        <time>2021-08-09T14:07:50Z</time>
      </trkpt>
      <trkpt lat="44.64594" lon="3.81535">
        <ele>1203.6</ele>
        <time>2021-08-09T14:07:52Z</time>
      </trkpt>
      <trkpt lat="44.64594" lon="3.81531">
        <ele>1203.9</ele>
        <time>2021-08-09T14:07:54Z</time>
      </trkpt>
      <trkpt lat="44.64594" lon="3.81526">
        <ele>1204.2</ele>
        <time>2021-08-09T14:07:56Z</time>
      </trkpt>
      <trkpt lat="44.64594" lon="3.81523">
        <ele>1204.3</ele>
        <time>2021-08-09T14:07:58Z</time>
      </trkpt>
      <trkpt lat="44.64594" lon="3.81519">
        <ele>1204.5</ele>
        <time>2021-08-09T14:08:00Z</time>
      </trkpt>
      <trkpt lat="44.64593" lon="3.81516">
        <ele>1204.7</ele>
        <time>2021-08-09T14:08:02Z</time>
      </trkpt>
      <trkpt lat="44.64592" lon="3.81512">
        <ele>1204.7</ele>
        <time>2021-08-09T14:08:04Z</time>
      </trkpt>
      <trkpt lat="44.64592" lon="3.81508">
        <ele>1204.8</ele>
        <time>2021-08-09T14:08:06Z</time>
      </trkpt>
      <trkpt lat="44.64593" lon="3.81505">
        <ele>1205.2</ele>
        <time>2021-08-09T14:08:08Z</time>
      </trkpt>
      <trkpt lat="44.64593" lon="3.81501">
        <ele>1205.4</ele>
        <time>2021-08-09T14:08:10Z</time>
      </trkpt>
      <trkpt lat="44.64592" lon="3.81497">
        <ele>1205.5</ele>
        <time>2021-08-09T14:08:12Z</time>
      </trkpt>
      <trkpt lat="44.64593" lon="3.81494">
        <ele>1205.6</ele>
        <time>2021-08-09T14:08:14Z</time>
      </trkpt>
      <trkpt lat="44.64592" lon="3.8149">
        <ele>1205.7</ele>
        <time>2021-08-09T14:08:16Z</time>
      </trkpt>
      <trkpt lat="44.64592" lon="3.81485">
        <ele>1205.7</ele>
        <time>2021-08-09T14:08:18Z</time>
      </trkpt>
      <trkpt lat="44.64591" lon="3.81482">
        <ele>1205.8</ele>
        <time>2021-08-09T14:08:20Z</time>
      </trkpt>
      <trkpt lat="44.64591" lon="3.81478">
        <ele>1205.8</ele>
        <time>2021-08-09T14:08:22Z</time>
      </trkpt>
      <trkpt lat="44.64591" lon="3.81475">
        <ele>1206</ele>
        <time>2021-08-09T14:08:24Z</time>
      </trkpt>
      <trkpt lat="44.6459" lon="3.81471">
        <ele>1206</ele>
        <time>2021-08-09T14:08:26Z</time>
      </trkpt>
      <trkpt lat="44.6459" lon="3.81467">
        <ele>1206.1</ele>
        <time>2021-08-09T14:08:28Z</time>
      </trkpt>
      <trkpt lat="44.6459" lon="3.81463">
        <ele>1206.2</ele>
        <time>2021-08-09T14:08:30Z</time>
      </trkpt>
      <trkpt lat="44.64589" lon="3.81459">
        <ele>1206.2</ele>
        <time>2021-08-09T14:08:32Z</time>
      </trkpt>
      <trkpt lat="44.64588" lon="3.81454">
        <ele>1206.3</ele>
        <time>2021-08-09T14:08:34Z</time>
      </trkpt>
      <trkpt lat="44.64588" lon="3.8145">
        <ele>1206.4</ele>
        <time>2021-08-09T14:08:36Z</time>
      </trkpt>
      <trkpt lat="44.64588" lon="3.81447">
        <ele>1206.5</ele>
        <time>2021-08-09T14:08:38Z</time>
      </trkpt>
      <trkpt lat="44.64588" lon="3.81444">
        <ele>1206.6</ele>
        <time>2021-08-09T14:08:40Z</time>
      </trkpt>
      <trkpt lat="44.64588" lon="3.8144">
        <ele>1206.6</ele>
        <time>2021-08-09T14:08:42Z</time>
      </trkpt>
      <trkpt lat="44.64587" lon="3.81436">
        <ele>1206.7</ele>
        <time>2021-08-09T14:08:44Z</time>
      </trkpt>
      <trkpt lat="44.64586" lon="3.81432">
        <ele>1206.8</ele>
        <time>2021-08-09T14:08:46Z</time>
      </trkpt>
      <trkpt lat="44.64586" lon="3.81427">
        <ele>1206.9</ele>
        <time>2021-08-09T14:08:48Z</time>
      </trkpt>
      <trkpt lat="44.64585" lon="3.81423">
        <ele>1207</ele>
        <time>2021-08-09T14:08:50Z</time>
      </trkpt>
      <trkpt lat="44.64585" lon="3.81418">
        <ele>1207.1</ele>
        <time>2021-08-09T14:08:52Z</time>
      </trkpt>
      <trkpt lat="44.64584" lon="3.81414">
        <ele>1207</ele>
        <time>2021-08-09T14:08:54Z</time>
      </trkpt>
      <trkpt lat="44.64584" lon="3.8141">
        <ele>1206.9</ele>
        <time>2021-08-09T14:08:56Z</time>
      </trkpt>
      <trkpt lat="44.64584" lon="3.81406">
        <ele>1206.9</ele>
        <time>2021-08-09T14:08:58Z</time>
      </trkpt>
      <trkpt lat="44.64584" lon="3.81401">
        <ele>1206.7</ele>
        <time>2021-08-09T14:09:00Z</time>
      </trkpt>
      <trkpt lat="44.64584" lon="3.81397">
        <ele>1206.6</ele>
        <time>2021-08-09T14:09:02Z</time>
      </trkpt>
      <trkpt lat="44.64585" lon="3.81394">
        <ele>1206.6</ele>
        <time>2021-08-09T14:09:04Z</time>
      </trkpt>
      <trkpt lat="44.64585" lon="3.8139">
        <ele>1206.5</ele>
        <time>2021-08-09T14:09:06Z</time>
      </trkpt>
      <trkpt lat="44.64585" lon="3.81387">
        <ele>1206.4</ele>
        <time>2021-08-09T14:09:08Z</time>
      </trkpt>
      <trkpt lat="44.64584" lon="3.81383">
        <ele>1206.3</ele>
        <time>2021-08-09T14:09:10Z</time>
      </trkpt>
      <trkpt lat="44.64585" lon="3.8138">
        <ele>1206.3</ele>
        <time>2021-08-09T14:09:12Z</time>
      </trkpt>
      <trkpt lat="44.64586" lon="3.81377">
        <ele>1206.3</ele>
        <time>2021-08-09T14:09:14Z</time>
      </trkpt>
      <trkpt lat="44.64587" lon="3.81374">
        <ele>1206.4</ele>
        <time>2021-08-09T14:09:16Z</time>
      </trkpt>
      <trkpt lat="44.64588" lon="3.8137">
        <ele>1206.3</ele>
        <time>2021-08-09T14:09:18Z</time>
      </trkpt>
      <trkpt lat="44.64585" lon="3.81368">
        <ele>1206.1</ele>
        <time>2021-08-09T14:09:20Z</time>
      </trkpt>
      <trkpt lat="44.64582" lon="3.81368">
        <ele>1205.9</ele>
        <time>2021-08-09T14:09:22Z</time>
      </trkpt>
      <trkpt lat="44.6458" lon="3.81368">
        <ele>1206.1</ele>
        <time>2021-08-09T14:09:24Z</time>
      </trkpt>
      <trkpt lat="44.64577" lon="3.81371">
        <ele>1206.4</ele>
        <time>2021-08-09T14:09:26Z</time>
      </trkpt>
      <trkpt lat="44.64577" lon="3.81375">
        <ele>1206.5</ele>
        <time>2021-08-09T14:09:28Z</time>
      </trkpt>
      <trkpt lat="44.64574" lon="3.81376">
        <ele>1206.7</ele>
        <time>2021-08-09T14:09:30Z</time>
      </trkpt>
      <trkpt lat="44.64573" lon="3.81373">
        <ele>1206.7</ele>
        <time>2021-08-09T14:09:32Z</time>
      </trkpt>
      <trkpt lat="44.64574" lon="3.81373">
        <ele>1206.7</ele>
        <time>2021-08-09T14:09:34Z</time>
      </trkpt>
      <trkpt lat="44.64573" lon="3.81373">
        <ele>1206.7</ele>
        <time>2021-08-09T14:09:36Z</time>
      </trkpt>
      <trkpt lat="44.64574" lon="3.81374">
        <ele>1206.7</ele>
        <time>2021-08-09T14:09:38Z</time>
      </trkpt>
      <trkpt lat="44.64574" lon="3.81374">
        <ele>1206.7</ele>
        <time>2021-08-09T14:09:40Z</time>
      </trkpt>
      <trkpt lat="44.64586" lon="3.81366">
        <ele>1206.1</ele>
        <time>2021-08-09T14:45:08Z</time>
      </trkpt>
      <trkpt lat="44.64587" lon="3.81361">
        <ele>1206</ele>
        <time>2021-08-09T14:45:10Z</time>
      </trkpt>
      <trkpt lat="44.64588" lon="3.81356">
        <ele>1206</ele>
        <time>2021-08-09T14:45:12Z</time>
      </trkpt>
      <trkpt lat="44.64589" lon="3.81353">
        <ele>1206.1</ele>
        <time>2021-08-09T14:45:14Z</time>
      </trkpt>
      <trkpt lat="44.6459" lon="3.81349">
        <ele>1206.1</ele>
        <time>2021-08-09T14:45:16Z</time>
      </trkpt>
      <trkpt lat="44.64592" lon="3.81345">
        <ele>1206.2</ele>
        <time>2021-08-09T14:45:18Z</time>
      </trkpt>
      <trkpt lat="44.64594" lon="3.8134">
        <ele>1206.3</ele>
        <time>2021-08-09T14:45:20Z</time>
      </trkpt>
      <trkpt lat="44.64594" lon="3.81334">
        <ele>1206.2</ele>
        <time>2021-08-09T14:45:22Z</time>
      </trkpt>
      <trkpt lat="44.64597" lon="3.81326">
        <ele>1206</ele>
        <time>2021-08-09T14:45:24Z</time>
      </trkpt>
      <trkpt lat="44.646" lon="3.81316">
        <ele>1205.8</ele>
        <time>2021-08-09T14:45:26Z</time>
      </trkpt>
      <trkpt lat="44.64603" lon="3.81306">
        <ele>1205.6</ele>
        <time>2021-08-09T14:45:28Z</time>
      </trkpt>
      <trkpt lat="44.64606" lon="3.81296">
        <ele>1205.2</ele>
        <time>2021-08-09T14:45:30Z</time>
      </trkpt>
      <trkpt lat="44.64609" lon="3.81285">
        <ele>1204.9</ele>
        <time>2021-08-09T14:45:32Z</time>
      </trkpt>
      <trkpt lat="44.64612" lon="3.81272">
        <ele>1204.4</ele>
        <time>2021-08-09T14:45:34Z</time>
      </trkpt>
      <trkpt lat="44.64616" lon="3.81257">
        <ele>1203.8</ele>
        <time>2021-08-09T14:45:36Z</time>
      </trkpt>
      <trkpt lat="44.6462" lon="3.81242">
        <ele>1203.1</ele>
        <time>2021-08-09T14:45:38Z</time>
      </trkpt>
      <trkpt lat="44.64624" lon="3.81226">
        <ele>1202.2</ele>
        <time>2021-08-09T14:45:40Z</time>
      </trkpt>
      <trkpt lat="44.64627" lon="3.81209">
        <ele>1201.1</ele>
        <time>2021-08-09T14:45:42Z</time>
      </trkpt>
      <trkpt lat="44.6463" lon="3.81193">
        <ele>1199.9</ele>
        <time>2021-08-09T14:45:44Z</time>
      </trkpt>
      <trkpt lat="44.64633" lon="3.81181">
        <ele>1199</ele>
        <time>2021-08-09T14:45:46Z</time>
      </trkpt>
      <trkpt lat="44.64634" lon="3.81169">
        <ele>1197.9</ele>
        <time>2021-08-09T14:45:48Z</time>
      </trkpt>
      <trkpt lat="44.64636" lon="3.81154">
        <ele>1196.4</ele>
        <time>2021-08-09T14:45:50Z</time>
      </trkpt>
      <trkpt lat="44.64639" lon="3.81138">
        <ele>1194.5</ele>
        <time>2021-08-09T14:45:52Z</time>
      </trkpt>
      <trkpt lat="44.64643" lon="3.81122">
        <ele>1192.3</ele>
        <time>2021-08-09T14:45:54Z</time>
      </trkpt>
      <trkpt lat="44.64648" lon="3.81106">
        <ele>1189.8</ele>
        <time>2021-08-09T14:45:56Z</time>
      </trkpt>
      <trkpt lat="44.64655" lon="3.81088">
        <ele>1186.6</ele>
        <time>2021-08-09T14:45:58Z</time>
      </trkpt>
      <trkpt lat="44.64662" lon="3.81071">
        <ele>1184</ele>
        <time>2021-08-09T14:46:00Z</time>
      </trkpt>
      <trkpt lat="44.64672" lon="3.81056">
        <ele>1182.8</ele>
        <time>2021-08-09T14:46:02Z</time>
      </trkpt>
      <trkpt lat="44.64681" lon="3.81041">
        <ele>1183.1</ele>
        <time>2021-08-09T14:46:04Z</time>
      </trkpt>
      <trkpt lat="44.64688" lon="3.81026">
        <ele>1182.9</ele>
        <time>2021-08-09T14:46:06Z</time>
      </trkpt>
      <trkpt lat="44.64693" lon="3.81009">
        <ele>1182</ele>
        <time>2021-08-09T14:46:08Z</time>
      </trkpt>
      <trkpt lat="44.64696" lon="3.80991">
        <ele>1181</ele>
        <time>2021-08-09T14:46:10Z</time>
      </trkpt>
      <trkpt lat="44.64699" lon="3.80971">
        <ele>1180</ele>
        <time>2021-08-09T14:46:12Z</time>
      </trkpt>
      <trkpt lat="44.64699" lon="3.80952">
        <ele>1178.8</ele>
        <time>2021-08-09T14:46:14Z</time>
      </trkpt>
      <trkpt lat="44.64697" lon="3.80934">
        <ele>1177.5</ele>
        <time>2021-08-09T14:46:16Z</time>
      </trkpt>
      <trkpt lat="44.64697" lon="3.80916">
        <ele>1176.4</ele>
        <time>2021-08-09T14:46:18Z</time>
      </trkpt>
      <trkpt lat="44.647" lon="3.80898">
        <ele>1174.8</ele>
        <time>2021-08-09T14:46:20Z</time>
      </trkpt>
      <trkpt lat="44.64706" lon="3.80881">
        <ele>1173.2</ele>
        <time>2021-08-09T14:46:22Z</time>
      </trkpt>
      <trkpt lat="44.64708" lon="3.80865">
        <ele>1171.4</ele>
        <time>2021-08-09T14:46:24Z</time>
      </trkpt>
      <trkpt lat="44.64709" lon="3.8085">
        <ele>1169.7</ele>
        <time>2021-08-09T14:46:26Z</time>
      </trkpt>
      <trkpt lat="44.64709" lon="3.80834">
        <ele>1168</ele>
        <time>2021-08-09T14:46:28Z</time>
      </trkpt>
      <trkpt lat="44.64711" lon="3.80818">
        <ele>1166.5</ele>
        <time>2021-08-09T14:46:30Z</time>
      </trkpt>
      <trkpt lat="44.64713" lon="3.80802">
        <ele>1164.9</ele>
        <time>2021-08-09T14:46:32Z</time>
      </trkpt>
      <trkpt lat="44.64715" lon="3.80785">
        <ele>1163.1</ele>
        <time>2021-08-09T14:46:34Z</time>
      </trkpt>
      <trkpt lat="44.64718" lon="3.8077">
        <ele>1161.1</ele>
        <time>2021-08-09T14:46:36Z</time>
      </trkpt>
      <trkpt lat="44.64721" lon="3.80754">
        <ele>1158.9</ele>
        <time>2021-08-09T14:46:38Z</time>
      </trkpt>
      <trkpt lat="44.64724" lon="3.80738">
        <ele>1156.9</ele>
        <time>2021-08-09T14:46:40Z</time>
      </trkpt>
      <trkpt lat="44.64726" lon="3.80724">
        <ele>1155.1</ele>
        <time>2021-08-09T14:46:42Z</time>
      </trkpt>
      <trkpt lat="44.64729" lon="3.80708">
        <ele>1152.8</ele>
        <time>2021-08-09T14:46:44Z</time>
      </trkpt>
      <trkpt lat="44.64733" lon="3.80691">
        <ele>1150.2</ele>
        <time>2021-08-09T14:46:46Z</time>
      </trkpt>
      <trkpt lat="44.64736" lon="3.80672">
        <ele>1147.2</ele>
        <time>2021-08-09T14:46:48Z</time>
      </trkpt>
      <trkpt lat="44.64738" lon="3.80652">
        <ele>1145.1</ele>
        <time>2021-08-09T14:46:50Z</time>
      </trkpt>
      <trkpt lat="44.64739" lon="3.80632">
        <ele>1143.8</ele>
        <time>2021-08-09T14:46:52Z</time>
      </trkpt>
      <trkpt lat="44.6474" lon="3.80611">
        <ele>1142.1</ele>
        <time>2021-08-09T14:46:54Z</time>
      </trkpt>
      <trkpt lat="44.64744" lon="3.80593">
        <ele>1139.7</ele>
        <time>2021-08-09T14:46:56Z</time>
      </trkpt>
      <trkpt lat="44.64749" lon="3.80575">
        <ele>1136.3</ele>
        <time>2021-08-09T14:46:58Z</time>
      </trkpt>
      <trkpt lat="44.64753" lon="3.80557">
        <ele>1134.3</ele>
        <time>2021-08-09T14:47:00Z</time>
      </trkpt>
      <trkpt lat="44.64757" lon="3.8054">
        <ele>1132.6</ele>
        <time>2021-08-09T14:47:02Z</time>
      </trkpt>
      <trkpt lat="44.64761" lon="3.80525">
        <ele>1131</ele>
        <time>2021-08-09T14:47:04Z</time>
      </trkpt>
      <trkpt lat="44.64765" lon="3.8051">
        <ele>1129.2</ele>
        <time>2021-08-09T14:47:06Z</time>
      </trkpt>
      <trkpt lat="44.6477" lon="3.80496">
        <ele>1127.7</ele>
        <time>2021-08-09T14:47:08Z</time>
      </trkpt>
      <trkpt lat="44.64778" lon="3.80486">
        <ele>1126.8</ele>
        <time>2021-08-09T14:47:10Z</time>
      </trkpt>
      <trkpt lat="44.64786" lon="3.80476">
        <ele>1125.8</ele>
        <time>2021-08-09T14:47:12Z</time>
      </trkpt>
      <trkpt lat="44.64791" lon="3.80461">
        <ele>1123.9</ele>
        <time>2021-08-09T14:47:14Z</time>
      </trkpt>
      <trkpt lat="44.64793" lon="3.80445">
        <ele>1121.6</ele>
        <time>2021-08-09T14:47:16Z</time>
      </trkpt>
      <trkpt lat="44.64794" lon="3.80432">
        <ele>1119.7</ele>
        <time>2021-08-09T14:47:18Z</time>
      </trkpt>
      <trkpt lat="44.64795" lon="3.80426">
        <ele>1118.8</ele>
        <time>2021-08-09T14:47:20Z</time>
      </trkpt>
      <trkpt lat="44.64795" lon="3.80418">
        <ele>1117.7</ele>
        <time>2021-08-09T14:47:22Z</time>
      </trkpt>
      <trkpt lat="44.64796" lon="3.80416">
        <ele>1117.5</ele>
        <time>2021-08-09T14:47:24Z</time>
      </trkpt>
      <trkpt lat="44.64796" lon="3.80416">
        <ele>1117.5</ele>
        <time>2021-08-09T14:47:26Z</time>
      </trkpt>
      <trkpt lat="44.64796" lon="3.80416">
        <ele>1117.5</ele>
        <time>2021-08-09T14:47:28Z</time>
      </trkpt>
      <trkpt lat="44.64796" lon="3.80416">
        <ele>1117.5</ele>
        <time>2021-08-09T14:47:30Z</time>
      </trkpt>
      <trkpt lat="44.64796" lon="3.80416">
        <ele>1117.5</ele>
        <time>2021-08-09T14:47:32Z</time>
      </trkpt>
      <trkpt lat="44.64797" lon="3.80398">
        <ele>1117.8</ele>
        <time>2021-08-09T14:47:44Z</time>
      </trkpt>
      <trkpt lat="44.64796" lon="3.80394">
        <ele>1117.9</ele>
        <time>2021-08-09T14:47:46Z</time>
      </trkpt>
      <trkpt lat="44.64796" lon="3.80389">
        <ele>1118</ele>
        <time>2021-08-09T14:47:48Z</time>
      </trkpt>
      <trkpt lat="44.64796" lon="3.80384">
        <ele>1118.1</ele>
        <time>2021-08-09T14:47:50Z</time>
      </trkpt>
      <trkpt lat="44.64796" lon="3.80379">
        <ele>1118.1</ele>
        <time>2021-08-09T14:47:52Z</time>
      </trkpt>
      <trkpt lat="44.64795" lon="3.80374">
        <ele>1118.2</ele>
        <time>2021-08-09T14:47:54Z</time>
      </trkpt>
      <trkpt lat="44.64795" lon="3.8037">
        <ele>1118.3</ele>
        <time>2021-08-09T14:47:56Z</time>
      </trkpt>
      <trkpt lat="44.64795" lon="3.80367">
        <ele>1118.4</ele>
        <time>2021-08-09T14:47:58Z</time>
      </trkpt>
      <trkpt lat="44.64796" lon="3.80364">
        <ele>1118.4</ele>
        <time>2021-08-09T14:48:00Z</time>
      </trkpt>
      <trkpt lat="44.64797" lon="3.80362">
        <ele>1118.5</ele>
        <time>2021-08-09T14:48:02Z</time>
      </trkpt>
      <trkpt lat="44.64797" lon="3.8036">
        <ele>1118.5</ele>
        <time>2021-08-09T14:48:04Z</time>
      </trkpt>
      <trkpt lat="44.64797" lon="3.80358">
        <ele>1118.5</ele>
        <time>2021-08-09T14:48:06Z</time>
      </trkpt>
      <trkpt lat="44.64796" lon="3.80355">
        <ele>1118.6</ele>
        <time>2021-08-09T14:48:08Z</time>
      </trkpt>
      <trkpt lat="44.64795" lon="3.80356">
        <ele>1118.6</ele>
        <time>2021-08-09T14:48:10Z</time>
      </trkpt>
      <trkpt lat="44.64794" lon="3.80358">
        <ele>1118.6</ele>
        <time>2021-08-09T14:48:12Z</time>
      </trkpt>
      <trkpt lat="44.64794" lon="3.80362">
        <ele>1118.5</ele>
        <time>2021-08-09T14:48:14Z</time>
      </trkpt>
      <trkpt lat="44.64794" lon="3.80365">
        <ele>1118.4</ele>
        <time>2021-08-09T14:48:16Z</time>
      </trkpt>
      <trkpt lat="44.64794" lon="3.80364">
        <ele>1118.4</ele>
        <time>2021-08-09T14:48:18Z</time>
      </trkpt>
      <trkpt lat="44.64794" lon="3.80364">
        <ele>1118.4</ele>
        <time>2021-08-09T14:48:20Z</time>
      </trkpt>
      <trkpt lat="44.64794" lon="3.80364">
        <ele>1118.4</ele>
        <time>2021-08-09T14:48:22Z</time>
      </trkpt>
      <trkpt lat="44.64794" lon="3.80364">
        <ele>1118.4</ele>
        <time>2021-08-09T14:48:24Z</time>
      </trkpt>
      <trkpt lat="44.64798" lon="3.80346">
        <ele>1118.8</ele>
        <time>2021-08-09T14:52:18Z</time>
      </trkpt>
      <trkpt lat="44.64799" lon="3.80342">
        <ele>1118.8</ele>
        <time>2021-08-09T14:52:20Z</time>
      </trkpt>
      <trkpt lat="44.64798" lon="3.80337">
        <ele>1118.9</ele>
        <time>2021-08-09T14:52:22Z</time>
      </trkpt>
      <trkpt lat="44.64796" lon="3.80335">
        <ele>1119</ele>
        <time>2021-08-09T14:52:24Z</time>
      </trkpt>
      <trkpt lat="44.64793" lon="3.80333">
        <ele>1119</ele>
        <time>2021-08-09T14:52:26Z</time>
      </trkpt>
      <trkpt lat="44.64791" lon="3.80331">
        <ele>1119.2</ele>
        <time>2021-08-09T14:52:28Z</time>
      </trkpt>
      <trkpt lat="44.64788" lon="3.80329">
        <ele>1119.4</ele>
        <time>2021-08-09T14:52:30Z</time>
      </trkpt>
      <trkpt lat="44.64785" lon="3.80328">
        <ele>1119.5</ele>
        <time>2021-08-09T14:52:32Z</time>
      </trkpt>
      <trkpt lat="44.64782" lon="3.80326">
        <ele>1119.6</ele>
        <time>2021-08-09T14:52:34Z</time>
      </trkpt>
      <trkpt lat="44.64779" lon="3.80326">
        <ele>1119.6</ele>
        <time>2021-08-09T14:52:36Z</time>
      </trkpt>
      <trkpt lat="44.64776" lon="3.80327">
        <ele>1119.5</ele>
        <time>2021-08-09T14:52:38Z</time>
      </trkpt>
      <trkpt lat="44.64773" lon="3.80326">
        <ele>1119.6</ele>
        <time>2021-08-09T14:52:40Z</time>
      </trkpt>
      <trkpt lat="44.64772" lon="3.80326">
        <ele>1119.6</ele>
        <time>2021-08-09T14:52:42Z</time>
      </trkpt>
      <trkpt lat="44.64768" lon="3.80327">
        <ele>1119.5</ele>
        <time>2021-08-09T14:52:44Z</time>
      </trkpt>
      <trkpt lat="44.64766" lon="3.80329">
        <ele>1119.3</ele>
        <time>2021-08-09T14:52:46Z</time>
      </trkpt>
      <trkpt lat="44.64763" lon="3.80329">
        <ele>1119.3</ele>
        <time>2021-08-09T14:52:48Z</time>
      </trkpt>
      <trkpt lat="44.64759" lon="3.80328">
        <ele>1119.4</ele>
        <time>2021-08-09T14:52:50Z</time>
      </trkpt>
      <trkpt lat="44.64756" lon="3.80327">
        <ele>1119.4</ele>
        <time>2021-08-09T14:52:52Z</time>
      </trkpt>
      <trkpt lat="44.64752" lon="3.80328">
        <ele>1119.3</ele>
        <time>2021-08-09T14:52:54Z</time>
      </trkpt>
      <trkpt lat="44.64749" lon="3.80329">
        <ele>1119.3</ele>
        <time>2021-08-09T14:52:56Z</time>
      </trkpt>
      <trkpt lat="44.64746" lon="3.8033">
        <ele>1119.4</ele>
        <time>2021-08-09T14:52:58Z</time>
      </trkpt>
      <trkpt lat="44.64743" lon="3.80331">
        <ele>1119.5</ele>
        <time>2021-08-09T14:53:00Z</time>
      </trkpt>
      <trkpt lat="44.64739" lon="3.8033">
        <ele>1119.8</ele>
        <time>2021-08-09T14:53:02Z</time>
      </trkpt>
      <trkpt lat="44.64735" lon="3.80331">
        <ele>1119.9</ele>
        <time>2021-08-09T14:53:04Z</time>
      </trkpt>
      <trkpt lat="44.64731" lon="3.8033">
        <ele>1120.2</ele>
        <time>2021-08-09T14:53:06Z</time>
      </trkpt>
      <trkpt lat="44.64728" lon="3.8033">
        <ele>1120.4</ele>
        <time>2021-08-09T14:53:08Z</time>
      </trkpt>
      <trkpt lat="44.64723" lon="3.8033">
        <ele>1120.6</ele>
        <time>2021-08-09T14:53:10Z</time>
      </trkpt>
      <trkpt lat="44.64719" lon="3.80329">
        <ele>1120.9</ele>
        <time>2021-08-09T14:53:12Z</time>
      </trkpt>
      <trkpt lat="44.64716" lon="3.8033">
        <ele>1121</ele>
        <time>2021-08-09T14:53:14Z</time>
      </trkpt>
      <trkpt lat="44.64712" lon="3.8033">
        <ele>1121.2</ele>
        <time>2021-08-09T14:53:16Z</time>
      </trkpt>
      <trkpt lat="44.64708" lon="3.8033">
        <ele>1121.4</ele>
        <time>2021-08-09T14:53:18Z</time>
      </trkpt>
      <trkpt lat="44.64704" lon="3.80331">
        <ele>1121.5</ele>
        <time>2021-08-09T14:53:20Z</time>
      </trkpt>
      <trkpt lat="44.64699" lon="3.80332">
        <ele>1121.6</ele>
        <time>2021-08-09T14:53:22Z</time>
      </trkpt>
      <trkpt lat="44.64696" lon="3.80334">
        <ele>1121.6</ele>
        <time>2021-08-09T14:53:24Z</time>
      </trkpt>
      <trkpt lat="44.64692" lon="3.80336">
        <ele>1121.8</ele>
        <time>2021-08-09T14:53:26Z</time>
      </trkpt>
      <trkpt lat="44.64688" lon="3.80337">
        <ele>1122</ele>
        <time>2021-08-09T14:53:28Z</time>
      </trkpt>
      <trkpt lat="44.64684" lon="3.80339">
        <ele>1122.2</ele>
        <time>2021-08-09T14:53:30Z</time>
      </trkpt>
      <trkpt lat="44.64679" lon="3.8034">
        <ele>1122.4</ele>
        <time>2021-08-09T14:53:32Z</time>
      </trkpt>
      <trkpt lat="44.64675" lon="3.8034">
        <ele>1122.6</ele>
        <time>2021-08-09T14:53:34Z</time>
      </trkpt>
      <trkpt lat="44.64671" lon="3.8034">
        <ele>1122.8</ele>
        <time>2021-08-09T14:53:36Z</time>
      </trkpt>
      <trkpt lat="44.64667" lon="3.80339">
        <ele>1123</ele>
        <time>2021-08-09T14:53:38Z</time>
      </trkpt>
      <trkpt lat="44.64662" lon="3.80337">
        <ele>1123</ele>
        <time>2021-08-09T14:53:40Z</time>
      </trkpt>
      <trkpt lat="44.64658" lon="3.80336">
        <ele>1122.9</ele>
        <time>2021-08-09T14:53:42Z</time>
      </trkpt>
      <trkpt lat="44.64654" lon="3.80335">
        <ele>1122.9</ele>
        <time>2021-08-09T14:53:44Z</time>
      </trkpt>
      <trkpt lat="44.6465" lon="3.80333">
        <ele>1122.8</ele>
        <time>2021-08-09T14:53:46Z</time>
      </trkpt>
      <trkpt lat="44.64646" lon="3.80332">
        <ele>1123</ele>
        <time>2021-08-09T14:53:48Z</time>
      </trkpt>
      <trkpt lat="44.64643" lon="3.80329">
        <ele>1123.4</ele>
        <time>2021-08-09T14:53:50Z</time>
      </trkpt>
      <trkpt lat="44.64639" lon="3.80327">
        <ele>1123.7</ele>
        <time>2021-08-09T14:53:52Z</time>
      </trkpt>
      <trkpt lat="44.64635" lon="3.80325">
        <ele>1123.9</ele>
        <time>2021-08-09T14:53:54Z</time>
      </trkpt>
      <trkpt lat="44.64631" lon="3.80324">
        <ele>1124</ele>
        <time>2021-08-09T14:53:56Z</time>
      </trkpt>
      <trkpt lat="44.64626" lon="3.80324">
        <ele>1124</ele>
        <time>2021-08-09T14:53:58Z</time>
      </trkpt>
      <trkpt lat="44.64622" lon="3.80325">
        <ele>1123.7</ele>
        <time>2021-08-09T14:54:00Z</time>
      </trkpt>
      <trkpt lat="44.64618" lon="3.80327">
        <ele>1123.3</ele>
        <time>2021-08-09T14:54:02Z</time>
      </trkpt>
      <trkpt lat="44.64614" lon="3.80332">
        <ele>1122.5</ele>
        <time>2021-08-09T14:54:04Z</time>
      </trkpt>
      <trkpt lat="44.6461" lon="3.80337">
        <ele>1122.5</ele>
        <time>2021-08-09T14:54:06Z</time>
      </trkpt>
      <trkpt lat="44.64607" lon="3.80344">
        <ele>1122.6</ele>
        <time>2021-08-09T14:54:08Z</time>
      </trkpt>
      <trkpt lat="44.64603" lon="3.8035">
        <ele>1122.8</ele>
        <time>2021-08-09T14:54:10Z</time>
      </trkpt>
      <trkpt lat="44.64598" lon="3.80355">
        <ele>1123</ele>
        <time>2021-08-09T14:54:12Z</time>
      </trkpt>
      <trkpt lat="44.64594" lon="3.80362">
        <ele>1123.3</ele>
        <time>2021-08-09T14:54:14Z</time>
      </trkpt>
      <trkpt lat="44.6459" lon="3.80366">
        <ele>1123.5</ele>
        <time>2021-08-09T14:54:16Z</time>
      </trkpt>
      <trkpt lat="44.64586" lon="3.8037">
        <ele>1123.7</ele>
        <time>2021-08-09T14:54:18Z</time>
      </trkpt>
      <trkpt lat="44.64583" lon="3.80375">
        <ele>1124.1</ele>
        <time>2021-08-09T14:54:20Z</time>
      </trkpt>
      <trkpt lat="44.64581" lon="3.80379">
        <ele>1124.7</ele>
        <time>2021-08-09T14:54:22Z</time>
      </trkpt>
      <trkpt lat="44.64579" lon="3.80384">
        <ele>1125.3</ele>
        <time>2021-08-09T14:54:24Z</time>
      </trkpt>
      <trkpt lat="44.64578" lon="3.80389">
        <ele>1125.7</ele>
        <time>2021-08-09T14:54:26Z</time>
      </trkpt>
      <trkpt lat="44.64577" lon="3.80395">
        <ele>1126.1</ele>
        <time>2021-08-09T14:54:28Z</time>
      </trkpt>
      <trkpt lat="44.64578" lon="3.80401">
        <ele>1126.1</ele>
        <time>2021-08-09T14:54:30Z</time>
      </trkpt>
      <trkpt lat="44.64579" lon="3.80406">
        <ele>1126.2</ele>
        <time>2021-08-09T14:54:32Z</time>
      </trkpt>
      <trkpt lat="44.64581" lon="3.80411">
        <ele>1126.1</ele>
        <time>2021-08-09T14:54:34Z</time>
      </trkpt>
      <trkpt lat="44.64583" lon="3.80416">
        <ele>1126</ele>
        <time>2021-08-09T14:54:36Z</time>
      </trkpt>
      <trkpt lat="44.64584" lon="3.80421">
        <ele>1126.7</ele>
        <time>2021-08-09T14:54:38Z</time>
      </trkpt>
      <trkpt lat="44.64584" lon="3.80427">
        <ele>1127.7</ele>
        <time>2021-08-09T14:54:40Z</time>
      </trkpt>
      <trkpt lat="44.64583" lon="3.80432">
        <ele>1128.5</ele>
        <time>2021-08-09T14:54:42Z</time>
      </trkpt>
      <trkpt lat="44.64581" lon="3.80436">
        <ele>1129.6</ele>
        <time>2021-08-09T14:54:44Z</time>
      </trkpt>
      <trkpt lat="44.64579" lon="3.80441">
        <ele>1130.5</ele>
        <time>2021-08-09T14:54:46Z</time>
      </trkpt>
      <trkpt lat="44.64577" lon="3.80445">
        <ele>1131.4</ele>
        <time>2021-08-09T14:54:48Z</time>
      </trkpt>
      <trkpt lat="44.64575" lon="3.80449">
        <ele>1132.2</ele>
        <time>2021-08-09T14:54:50Z</time>
      </trkpt>
      <trkpt lat="44.64572" lon="3.80453">
        <ele>1132.9</ele>
        <time>2021-08-09T14:54:52Z</time>
      </trkpt>
      <trkpt lat="44.64569" lon="3.80457">
        <ele>1133.6</ele>
        <time>2021-08-09T14:54:54Z</time>
      </trkpt>
      <trkpt lat="44.64566" lon="3.8046">
        <ele>1134.3</ele>
        <time>2021-08-09T14:54:56Z</time>
      </trkpt>
      <trkpt lat="44.64564" lon="3.80464">
        <ele>1134.8</ele>
        <time>2021-08-09T14:54:58Z</time>
      </trkpt>
      <trkpt lat="44.64561" lon="3.80468">
        <ele>1135.4</ele>
        <time>2021-08-09T14:55:00Z</time>
      </trkpt>
      <trkpt lat="44.64558" lon="3.80472">
        <ele>1135.9</ele>
        <time>2021-08-09T14:55:02Z</time>
      </trkpt>
      <trkpt lat="44.64556" lon="3.80475">
        <ele>1136.3</ele>
        <time>2021-08-09T14:55:04Z</time>
      </trkpt>
      <trkpt lat="44.64553" lon="3.80479">
        <ele>1136.6</ele>
        <time>2021-08-09T14:55:06Z</time>
      </trkpt>
      <trkpt lat="44.64551" lon="3.80483">
        <ele>1137</ele>
        <time>2021-08-09T14:55:08Z</time>
      </trkpt>
      <trkpt lat="44.64548" lon="3.80486">
        <ele>1137.2</ele>
        <time>2021-08-09T14:55:10Z</time>
      </trkpt>
      <trkpt lat="44.64546" lon="3.80489">
        <ele>1137.4</ele>
        <time>2021-08-09T14:55:12Z</time>
      </trkpt>
      <trkpt lat="44.64543" lon="3.80493">
        <ele>1137.6</ele>
        <time>2021-08-09T14:55:14Z</time>
      </trkpt>
      <trkpt lat="44.64541" lon="3.80496">
        <ele>1137.8</ele>
        <time>2021-08-09T14:55:16Z</time>
      </trkpt>
      <trkpt lat="44.64538" lon="3.805">
        <ele>1137.8</ele>
        <time>2021-08-09T14:55:18Z</time>
      </trkpt>
      <trkpt lat="44.64535" lon="3.80503">
        <ele>1138.2</ele>
        <time>2021-08-09T14:55:20Z</time>
      </trkpt>
      <trkpt lat="44.64533" lon="3.80507">
        <ele>1138.5</ele>
        <time>2021-08-09T14:55:22Z</time>
      </trkpt>
      <trkpt lat="44.64531" lon="3.80511">
        <ele>1138.9</ele>
        <time>2021-08-09T14:55:24Z</time>
      </trkpt>
      <trkpt lat="44.64529" lon="3.80515">
        <ele>1139.1</ele>
        <time>2021-08-09T14:55:26Z</time>
      </trkpt>
      <trkpt lat="44.64526" lon="3.80519">
        <ele>1139.2</ele>
        <time>2021-08-09T14:55:28Z</time>
      </trkpt>
      <trkpt lat="44.64523" lon="3.80523">
        <ele>1139.4</ele>
        <time>2021-08-09T14:55:30Z</time>
      </trkpt>
      <trkpt lat="44.64521" lon="3.80526">
        <ele>1139.4</ele>
        <time>2021-08-09T14:55:32Z</time>
      </trkpt>
      <trkpt lat="44.64519" lon="3.8053">
        <ele>1139.5</ele>
        <time>2021-08-09T14:55:34Z</time>
      </trkpt>
      <trkpt lat="44.64516" lon="3.80534">
        <ele>1139.5</ele>
        <time>2021-08-09T14:55:36Z</time>
      </trkpt>
      <trkpt lat="44.64514" lon="3.80538">
        <ele>1139.5</ele>
        <time>2021-08-09T14:55:38Z</time>
      </trkpt>
      <trkpt lat="44.64512" lon="3.80542">
        <ele>1139.5</ele>
        <time>2021-08-09T14:55:40Z</time>
      </trkpt>
      <trkpt lat="44.6451" lon="3.80546">
        <ele>1139.4</ele>
        <time>2021-08-09T14:55:42Z</time>
      </trkpt>
      <trkpt lat="44.64509" lon="3.8055">
        <ele>1139.4</ele>
        <time>2021-08-09T14:55:44Z</time>
      </trkpt>
      <trkpt lat="44.64507" lon="3.80554">
        <ele>1139.4</ele>
        <time>2021-08-09T14:55:46Z</time>
      </trkpt>
      <trkpt lat="44.64506" lon="3.80559">
        <ele>1139.4</ele>
        <time>2021-08-09T14:55:48Z</time>
      </trkpt>
      <trkpt lat="44.64505" lon="3.80563">
        <ele>1139.4</ele>
        <time>2021-08-09T14:55:50Z</time>
      </trkpt>
      <trkpt lat="44.64505" lon="3.80568">
        <ele>1139.6</ele>
        <time>2021-08-09T14:55:52Z</time>
      </trkpt>
      <trkpt lat="44.64506" lon="3.80573">
        <ele>1140</ele>
        <time>2021-08-09T14:55:54Z</time>
      </trkpt>
      <trkpt lat="44.64505" lon="3.80578">
        <ele>1140.2</ele>
        <time>2021-08-09T14:55:56Z</time>
      </trkpt>
      <trkpt lat="44.64505" lon="3.80583">
        <ele>1140.3</ele>
        <time>2021-08-09T14:55:58Z</time>
      </trkpt>
      <trkpt lat="44.64505" lon="3.80588">
        <ele>1141</ele>
        <time>2021-08-09T14:56:00Z</time>
      </trkpt>
      <trkpt lat="44.64505" lon="3.80593">
        <ele>1141.6</ele>
        <time>2021-08-09T14:56:02Z</time>
      </trkpt>
      <trkpt lat="44.64503" lon="3.80597">
        <ele>1142</ele>
        <time>2021-08-09T14:56:04Z</time>
      </trkpt>
      <trkpt lat="44.64502" lon="3.80602">
        <ele>1142.4</ele>
        <time>2021-08-09T14:56:06Z</time>
      </trkpt>
      <trkpt lat="44.645" lon="3.80606">
        <ele>1142.4</ele>
        <time>2021-08-09T14:56:08Z</time>
      </trkpt>
      <trkpt lat="44.64497" lon="3.80609">
        <ele>1143.4</ele>
        <time>2021-08-09T14:56:10Z</time>
      </trkpt>
      <trkpt lat="44.64493" lon="3.8061">
        <ele>1144.4</ele>
        <time>2021-08-09T14:56:12Z</time>
      </trkpt>
      <trkpt lat="44.6449" lon="3.80609">
        <ele>1145.3</ele>
        <time>2021-08-09T14:56:14Z</time>
      </trkpt>
      <trkpt lat="44.64486" lon="3.80608">
        <ele>1146</ele>
        <time>2021-08-09T14:56:16Z</time>
      </trkpt>
      <trkpt lat="44.64483" lon="3.80606">
        <ele>1146.7</ele>
        <time>2021-08-09T14:56:18Z</time>
      </trkpt>
      <trkpt lat="44.64479" lon="3.80604">
        <ele>1147.5</ele>
        <time>2021-08-09T14:56:20Z</time>
      </trkpt>
      <trkpt lat="44.64476" lon="3.80601">
        <ele>1147.9</ele>
        <time>2021-08-09T14:56:22Z</time>
      </trkpt>
      <trkpt lat="44.64473" lon="3.80597">
        <ele>1148.2</ele>
        <time>2021-08-09T14:56:24Z</time>
      </trkpt>
      <trkpt lat="44.64471" lon="3.80593">
        <ele>1148.5</ele>
        <time>2021-08-09T14:56:26Z</time>
      </trkpt>
      <trkpt lat="44.64469" lon="3.80589">
        <ele>1148.7</ele>
        <time>2021-08-09T14:56:28Z</time>
      </trkpt>
      <trkpt lat="44.64468" lon="3.80585">
        <ele>1148.8</ele>
        <time>2021-08-09T14:56:30Z</time>
      </trkpt>
      <trkpt lat="44.64468" lon="3.8058">
        <ele>1148.6</ele>
        <time>2021-08-09T14:56:32Z</time>
      </trkpt>
      <trkpt lat="44.64467" lon="3.80575">
        <ele>1148.7</ele>
        <time>2021-08-09T14:56:34Z</time>
      </trkpt>
      <trkpt lat="44.64467" lon="3.8057">
        <ele>1148.6</ele>
        <time>2021-08-09T14:56:36Z</time>
      </trkpt>
      <trkpt lat="44.64466" lon="3.80565">
        <ele>1148.6</ele>
        <time>2021-08-09T14:56:38Z</time>
      </trkpt>
      <trkpt lat="44.64467" lon="3.80561">
        <ele>1148.3</ele>
        <time>2021-08-09T14:56:40Z</time>
      </trkpt>
      <trkpt lat="44.64466" lon="3.80556">
        <ele>1148.2</ele>
        <time>2021-08-09T14:56:42Z</time>
      </trkpt>
      <trkpt lat="44.64467" lon="3.80551">
        <ele>1148</ele>
        <time>2021-08-09T14:56:44Z</time>
      </trkpt>
      <trkpt lat="44.64467" lon="3.80545">
        <ele>1147.7</ele>
        <time>2021-08-09T14:56:46Z</time>
      </trkpt>
      <trkpt lat="44.64467" lon="3.80541">
        <ele>1147.6</ele>
        <time>2021-08-09T14:56:48Z</time>
      </trkpt>
      <trkpt lat="44.64468" lon="3.80536">
        <ele>1147.2</ele>
        <time>2021-08-09T14:56:50Z</time>
      </trkpt>
      <trkpt lat="44.64468" lon="3.80531">
        <ele>1147.1</ele>
        <time>2021-08-09T14:56:52Z</time>
      </trkpt>
      <trkpt lat="44.64467" lon="3.80526">
        <ele>1147.1</ele>
        <time>2021-08-09T14:56:54Z</time>
      </trkpt>
      <trkpt lat="44.64468" lon="3.80521">
        <ele>1146.8</ele>
        <time>2021-08-09T14:56:56Z</time>
      </trkpt>
      <trkpt lat="44.64468" lon="3.80516">
        <ele>1146.5</ele>
        <time>2021-08-09T14:56:58Z</time>
      </trkpt>
      <trkpt lat="44.64469" lon="3.80511">
        <ele>1146.1</ele>
        <time>2021-08-09T14:57:00Z</time>
      </trkpt>
      <trkpt lat="44.6447" lon="3.80506">
        <ele>1145.6</ele>
        <time>2021-08-09T14:57:02Z</time>
      </trkpt>
      <trkpt lat="44.64471" lon="3.80501">
        <ele>1145.2</ele>
        <time>2021-08-09T14:57:04Z</time>
      </trkpt>
      <trkpt lat="44.64472" lon="3.80496">
        <ele>1145</ele>
        <time>2021-08-09T14:57:06Z</time>
      </trkpt>
      <trkpt lat="44.64473" lon="3.80491">
        <ele>1144.8</ele>
        <time>2021-08-09T14:57:08Z</time>
      </trkpt>
      <trkpt lat="44.64474" lon="3.80487">
        <ele>1144.6</ele>
        <time>2021-08-09T14:57:10Z</time>
      </trkpt>
      <trkpt lat="44.64475" lon="3.80483">
        <ele>1144.6</ele>
        <time>2021-08-09T14:57:12Z</time>
      </trkpt>
      <trkpt lat="44.64475" lon="3.80477">
        <ele>1144.7</ele>
        <time>2021-08-09T14:57:14Z</time>
      </trkpt>
      <trkpt lat="44.64475" lon="3.80473">
        <ele>1144.8</ele>
        <time>2021-08-09T14:57:16Z</time>
      </trkpt>
      <trkpt lat="44.64476" lon="3.80467">
        <ele>1144.9</ele>
        <time>2021-08-09T14:57:18Z</time>
      </trkpt>
      <trkpt lat="44.64476" lon="3.80462">
        <ele>1144.9</ele>
        <time>2021-08-09T14:57:20Z</time>
      </trkpt>
      <trkpt lat="44.64476" lon="3.80457">
        <ele>1145.2</ele>
        <time>2021-08-09T14:57:22Z</time>
      </trkpt>
      <trkpt lat="44.64475" lon="3.80452">
        <ele>1145.7</ele>
        <time>2021-08-09T14:57:24Z</time>
      </trkpt>
      <trkpt lat="44.64474" lon="3.80447">
        <ele>1146.2</ele>
        <time>2021-08-09T14:57:26Z</time>
      </trkpt>
      <trkpt lat="44.64474" lon="3.80442">
        <ele>1146.5</ele>
        <time>2021-08-09T14:57:28Z</time>
      </trkpt>
      <trkpt lat="44.64473" lon="3.80437">
        <ele>1146.9</ele>
        <time>2021-08-09T14:57:30Z</time>
      </trkpt>
      <trkpt lat="44.64473" lon="3.80433">
        <ele>1147.2</ele>
        <time>2021-08-09T14:57:32Z</time>
      </trkpt>
      <trkpt lat="44.64473" lon="3.80428">
        <ele>1147.4</ele>
        <time>2021-08-09T14:57:34Z</time>
      </trkpt>
      <trkpt lat="44.64473" lon="3.80423">
        <ele>1147.5</ele>
        <time>2021-08-09T14:57:36Z</time>
      </trkpt>
      <trkpt lat="44.64474" lon="3.80419">
        <ele>1147.4</ele>
        <time>2021-08-09T14:57:38Z</time>
      </trkpt>
      <trkpt lat="44.64475" lon="3.80414">
        <ele>1147.2</ele>
        <time>2021-08-09T14:57:40Z</time>
      </trkpt>
      <trkpt lat="44.64476" lon="3.8041">
        <ele>1147.1</ele>
        <time>2021-08-09T14:57:42Z</time>
      </trkpt>
      <trkpt lat="44.64478" lon="3.80406">
        <ele>1146.8</ele>
        <time>2021-08-09T14:57:44Z</time>
      </trkpt>
      <trkpt lat="44.6448" lon="3.80402">
        <ele>1146.4</ele>
        <time>2021-08-09T14:57:46Z</time>
      </trkpt>
      <trkpt lat="44.64482" lon="3.80398">
        <ele>1146</ele>
        <time>2021-08-09T14:57:48Z</time>
      </trkpt>
      <trkpt lat="44.64485" lon="3.80393">
        <ele>1145.2</ele>
        <time>2021-08-09T14:57:50Z</time>
      </trkpt>
      <trkpt lat="44.64488" lon="3.80389">
        <ele>1144.6</ele>
        <time>2021-08-09T14:57:52Z</time>
      </trkpt>
      <trkpt lat="44.64491" lon="3.80385">
        <ele>1144</ele>
        <time>2021-08-09T14:57:54Z</time>
      </trkpt>
      <trkpt lat="44.64493" lon="3.80381">
        <ele>1143.3</ele>
        <time>2021-08-09T14:57:56Z</time>
      </trkpt>
      <trkpt lat="44.64496" lon="3.80376">
        <ele>1142.8</ele>
        <time>2021-08-09T14:57:58Z</time>
      </trkpt>
      <trkpt lat="44.64498" lon="3.80371">
        <ele>1142.4</ele>
        <time>2021-08-09T14:58:00Z</time>
      </trkpt>
      <trkpt lat="44.64499" lon="3.80366">
        <ele>1142.1</ele>
        <time>2021-08-09T14:58:02Z</time>
      </trkpt>
      <trkpt lat="44.645" lon="3.80361">
        <ele>1142.1</ele>
        <time>2021-08-09T14:58:04Z</time>
      </trkpt>
      <trkpt lat="44.64499" lon="3.80355">
        <ele>1142.5</ele>
        <time>2021-08-09T14:58:06Z</time>
      </trkpt>
      <trkpt lat="44.64498" lon="3.8035">
        <ele>1142.9</ele>
        <time>2021-08-09T14:58:08Z</time>
      </trkpt>
      <trkpt lat="44.64497" lon="3.80345">
        <ele>1143.7</ele>
        <time>2021-08-09T14:58:10Z</time>
      </trkpt>
      <trkpt lat="44.64495" lon="3.80341">
        <ele>1144.5</ele>
        <time>2021-08-09T14:58:12Z</time>
      </trkpt>
      <trkpt lat="44.64492" lon="3.80337">
        <ele>1145.5</ele>
        <time>2021-08-09T14:58:14Z</time>
      </trkpt>
      <trkpt lat="44.6449" lon="3.80332">
        <ele>1146.3</ele>
        <time>2021-08-09T14:58:16Z</time>
      </trkpt>
      <trkpt lat="44.64487" lon="3.80328">
        <ele>1147</ele>
        <time>2021-08-09T14:58:18Z</time>
      </trkpt>
      <trkpt lat="44.64484" lon="3.80324">
        <ele>1147.7</ele>
        <time>2021-08-09T14:58:20Z</time>
      </trkpt>
      <trkpt lat="44.64482" lon="3.80319">
        <ele>1148.2</ele>
        <time>2021-08-09T14:58:22Z</time>
      </trkpt>
      <trkpt lat="44.6448" lon="3.80315">
        <ele>1148.8</ele>
        <time>2021-08-09T14:58:24Z</time>
      </trkpt>
      <trkpt lat="44.64477" lon="3.8031">
        <ele>1149.4</ele>
        <time>2021-08-09T14:58:26Z</time>
      </trkpt>
      <trkpt lat="44.64476" lon="3.80305">
        <ele>1149.7</ele>
        <time>2021-08-09T14:58:28Z</time>
      </trkpt>
      <trkpt lat="44.64473" lon="3.80301">
        <ele>1150.5</ele>
        <time>2021-08-09T14:58:30Z</time>
      </trkpt>
      <trkpt lat="44.64472" lon="3.80296">
        <ele>1150.7</ele>
        <time>2021-08-09T14:58:32Z</time>
      </trkpt>
      <trkpt lat="44.6447" lon="3.80291">
        <ele>1151.3</ele>
        <time>2021-08-09T14:58:34Z</time>
      </trkpt>
      <trkpt lat="44.64468" lon="3.80286">
        <ele>1151.7</ele>
        <time>2021-08-09T14:58:36Z</time>
      </trkpt>
      <trkpt lat="44.64467" lon="3.80281">
        <ele>1152.1</ele>
        <time>2021-08-09T14:58:38Z</time>
      </trkpt>
      <trkpt lat="44.64465" lon="3.80277">
        <ele>1152.5</ele>
        <time>2021-08-09T14:58:40Z</time>
      </trkpt>
      <trkpt lat="44.64463" lon="3.80272">
        <ele>1153.2</ele>
        <time>2021-08-09T14:58:42Z</time>
      </trkpt>
      <trkpt lat="44.64461" lon="3.80267">
        <ele>1153.7</ele>
        <time>2021-08-09T14:58:44Z</time>
      </trkpt>
      <trkpt lat="44.6446" lon="3.80262">
        <ele>1154.3</ele>
        <time>2021-08-09T14:58:46Z</time>
      </trkpt>
      <trkpt lat="44.64457" lon="3.80257">
        <ele>1155</ele>
        <time>2021-08-09T14:58:48Z</time>
      </trkpt>
      <trkpt lat="44.64456" lon="3.80252">
        <ele>1155.5</ele>
        <time>2021-08-09T14:58:50Z</time>
      </trkpt>
      <trkpt lat="44.64455" lon="3.80247">
        <ele>1155.6</ele>
        <time>2021-08-09T14:58:52Z</time>
      </trkpt>
      <trkpt lat="44.64454" lon="3.80242">
        <ele>1155.9</ele>
        <time>2021-08-09T14:58:54Z</time>
      </trkpt>
      <trkpt lat="44.64453" lon="3.80237">
        <ele>1156.2</ele>
        <time>2021-08-09T14:58:56Z</time>
      </trkpt>
      <trkpt lat="44.64451" lon="3.80233">
        <ele>1156.5</ele>
        <time>2021-08-09T14:58:58Z</time>
      </trkpt>
      <trkpt lat="44.6445" lon="3.80228">
        <ele>1156.7</ele>
        <time>2021-08-09T14:59:00Z</time>
      </trkpt>
      <trkpt lat="44.64448" lon="3.80223">
        <ele>1157.2</ele>
        <time>2021-08-09T14:59:02Z</time>
      </trkpt>
      <trkpt lat="44.64447" lon="3.80219">
        <ele>1157.5</ele>
        <time>2021-08-09T14:59:04Z</time>
      </trkpt>
      <trkpt lat="44.64445" lon="3.80214">
        <ele>1157.9</ele>
        <time>2021-08-09T14:59:06Z</time>
      </trkpt>
      <trkpt lat="44.64444" lon="3.80209">
        <ele>1158.2</ele>
        <time>2021-08-09T14:59:08Z</time>
      </trkpt>
      <trkpt lat="44.64442" lon="3.80204">
        <ele>1158.5</ele>
        <time>2021-08-09T14:59:10Z</time>
      </trkpt>
      <trkpt lat="44.64441" lon="3.80199">
        <ele>1158.6</ele>
        <time>2021-08-09T14:59:12Z</time>
      </trkpt>
      <trkpt lat="44.6444" lon="3.80194">
        <ele>1158.8</ele>
        <time>2021-08-09T14:59:14Z</time>
      </trkpt>
      <trkpt lat="44.64439" lon="3.80189">
        <ele>1159</ele>
        <time>2021-08-09T14:59:16Z</time>
      </trkpt>
      <trkpt lat="44.64438" lon="3.80184">
        <ele>1159</ele>
        <time>2021-08-09T14:59:18Z</time>
      </trkpt>
      <trkpt lat="44.64436" lon="3.80179">
        <ele>1159.3</ele>
        <time>2021-08-09T14:59:20Z</time>
      </trkpt>
      <trkpt lat="44.64435" lon="3.80174">
        <ele>1159.6</ele>
        <time>2021-08-09T14:59:22Z</time>
      </trkpt>
      <trkpt lat="44.64433" lon="3.8017">
        <ele>1159.9</ele>
        <time>2021-08-09T14:59:24Z</time>
      </trkpt>
      <trkpt lat="44.64432" lon="3.80165">
        <ele>1160.1</ele>
        <time>2021-08-09T14:59:26Z</time>
      </trkpt>
      <trkpt lat="44.64431" lon="3.8016">
        <ele>1160.3</ele>
        <time>2021-08-09T14:59:28Z</time>
      </trkpt>
      <trkpt lat="44.64429" lon="3.80154">
        <ele>1160.5</ele>
        <time>2021-08-09T14:59:30Z</time>
      </trkpt>
      <trkpt lat="44.64428" lon="3.80149">
        <ele>1160.7</ele>
        <time>2021-08-09T14:59:32Z</time>
      </trkpt>
      <trkpt lat="44.64426" lon="3.80145">
        <ele>1160.9</ele>
        <time>2021-08-09T14:59:34Z</time>
      </trkpt>
      <trkpt lat="44.64425" lon="3.8014">
        <ele>1161.2</ele>
        <time>2021-08-09T14:59:36Z</time>
      </trkpt>
      <trkpt lat="44.64424" lon="3.80135">
        <ele>1161.2</ele>
        <time>2021-08-09T14:59:38Z</time>
      </trkpt>
      <trkpt lat="44.64422" lon="3.8013">
        <ele>1161.4</ele>
        <time>2021-08-09T14:59:40Z</time>
      </trkpt>
      <trkpt lat="44.6442" lon="3.80125">
        <ele>1161.7</ele>
        <time>2021-08-09T14:59:42Z</time>
      </trkpt>
      <trkpt lat="44.64419" lon="3.80119">
        <ele>1161.7</ele>
        <time>2021-08-09T14:59:44Z</time>
      </trkpt>
      <trkpt lat="44.64418" lon="3.80114">
        <ele>1161.8</ele>
        <time>2021-08-09T14:59:46Z</time>
      </trkpt>
      <trkpt lat="44.64416" lon="3.80109">
        <ele>1161.9</ele>
        <time>2021-08-09T14:59:48Z</time>
      </trkpt>
      <trkpt lat="44.64415" lon="3.80103">
        <ele>1162</ele>
        <time>2021-08-09T14:59:50Z</time>
      </trkpt>
      <trkpt lat="44.64414" lon="3.80098">
        <ele>1162</ele>
        <time>2021-08-09T14:59:52Z</time>
      </trkpt>
      <trkpt lat="44.64413" lon="3.80093">
        <ele>1162.2</ele>
        <time>2021-08-09T14:59:54Z</time>
      </trkpt>
      <trkpt lat="44.64412" lon="3.80089">
        <ele>1162.1</ele>
        <time>2021-08-09T14:59:56Z</time>
      </trkpt>
      <trkpt lat="44.64411" lon="3.80084">
        <ele>1162.1</ele>
        <time>2021-08-09T14:59:58Z</time>
      </trkpt>
      <trkpt lat="44.6441" lon="3.80079">
        <ele>1161.9</ele>
        <time>2021-08-09T15:00:00Z</time>
      </trkpt>
      <trkpt lat="44.64409" lon="3.80075">
        <ele>1161.7</ele>
        <time>2021-08-09T15:00:02Z</time>
      </trkpt>
      <trkpt lat="44.64408" lon="3.8007">
        <ele>1161.2</ele>
        <time>2021-08-09T15:00:04Z</time>
      </trkpt>
      <trkpt lat="44.64408" lon="3.80065">
        <ele>1160.7</ele>
        <time>2021-08-09T15:00:06Z</time>
      </trkpt>
      <trkpt lat="44.64407" lon="3.8006">
        <ele>1160.3</ele>
        <time>2021-08-09T15:00:08Z</time>
      </trkpt>
      <trkpt lat="44.64406" lon="3.80055">
        <ele>1159.8</ele>
        <time>2021-08-09T15:00:10Z</time>
      </trkpt>
      <trkpt lat="44.64406" lon="3.8005">
        <ele>1159.2</ele>
        <time>2021-08-09T15:00:12Z</time>
      </trkpt>
      <trkpt lat="44.64405" lon="3.80045">
        <ele>1158.8</ele>
        <time>2021-08-09T15:00:14Z</time>
      </trkpt>
      <trkpt lat="44.64404" lon="3.80041">
        <ele>1158.4</ele>
        <time>2021-08-09T15:00:16Z</time>
      </trkpt>
      <trkpt lat="44.64403" lon="3.80036">
        <ele>1158</ele>
        <time>2021-08-09T15:00:18Z</time>
      </trkpt>
      <trkpt lat="44.64402" lon="3.80032">
        <ele>1157.8</ele>
        <time>2021-08-09T15:00:20Z</time>
      </trkpt>
      <trkpt lat="44.64401" lon="3.80027">
        <ele>1157.4</ele>
        <time>2021-08-09T15:00:22Z</time>
      </trkpt>
      <trkpt lat="44.644" lon="3.80022">
        <ele>1157.1</ele>
        <time>2021-08-09T15:00:24Z</time>
      </trkpt>
      <trkpt lat="44.64398" lon="3.80018">
        <ele>1157.1</ele>
        <time>2021-08-09T15:00:26Z</time>
      </trkpt>
      <trkpt lat="44.64396" lon="3.80014">
        <ele>1157.1</ele>
        <time>2021-08-09T15:00:28Z</time>
      </trkpt>
      <trkpt lat="44.64395" lon="3.8001">
        <ele>1157.2</ele>
        <time>2021-08-09T15:00:30Z</time>
      </trkpt>
      <trkpt lat="44.64392" lon="3.80006">
        <ele>1157.4</ele>
        <time>2021-08-09T15:00:32Z</time>
      </trkpt>
      <trkpt lat="44.6439" lon="3.80003">
        <ele>1157.6</ele>
        <time>2021-08-09T15:00:34Z</time>
      </trkpt>
      <trkpt lat="44.64387" lon="3.8">
        <ele>1158.2</ele>
        <time>2021-08-09T15:00:36Z</time>
      </trkpt>
      <trkpt lat="44.64385" lon="3.79998">
        <ele>1158.8</ele>
        <time>2021-08-09T15:00:38Z</time>
      </trkpt>
      <trkpt lat="44.64382" lon="3.79995">
        <ele>1159.2</ele>
        <time>2021-08-09T15:00:40Z</time>
      </trkpt>
      <trkpt lat="44.64379" lon="3.79993">
        <ele>1159.7</ele>
        <time>2021-08-09T15:00:42Z</time>
      </trkpt>
      <trkpt lat="44.64376" lon="3.79991">
        <ele>1160.4</ele>
        <time>2021-08-09T15:00:44Z</time>
      </trkpt>
      <trkpt lat="44.64374" lon="3.79989">
        <ele>1160.9</ele>
        <time>2021-08-09T15:00:46Z</time>
      </trkpt>
      <trkpt lat="44.64371" lon="3.79986">
        <ele>1161.5</ele>
        <time>2021-08-09T15:00:48Z</time>
      </trkpt>
      <trkpt lat="44.64367" lon="3.79984">
        <ele>1162.1</ele>
        <time>2021-08-09T15:00:50Z</time>
      </trkpt>
      <trkpt lat="44.64365" lon="3.79983">
        <ele>1162.7</ele>
        <time>2021-08-09T15:00:52Z</time>
      </trkpt>
      <trkpt lat="44.64362" lon="3.79981">
        <ele>1163.3</ele>
        <time>2021-08-09T15:00:54Z</time>
      </trkpt>
      <trkpt lat="44.64359" lon="3.79979">
        <ele>1163.7</ele>
        <time>2021-08-09T15:00:56Z</time>
      </trkpt>
      <trkpt lat="44.64356" lon="3.79978">
        <ele>1164.3</ele>
        <time>2021-08-09T15:00:58Z</time>
      </trkpt>
      <trkpt lat="44.64354" lon="3.79975">
        <ele>1164.6</ele>
        <time>2021-08-09T15:01:00Z</time>
      </trkpt>
      <trkpt lat="44.64351" lon="3.79973">
        <ele>1164.9</ele>
        <time>2021-08-09T15:01:02Z</time>
      </trkpt>
      <trkpt lat="44.64348" lon="3.79971">
        <ele>1165.3</ele>
        <time>2021-08-09T15:01:04Z</time>
      </trkpt>
      <trkpt lat="44.64345" lon="3.79969">
        <ele>1165.8</ele>
        <time>2021-08-09T15:01:06Z</time>
      </trkpt>
      <trkpt lat="44.64341" lon="3.79967">
        <ele>1166.4</ele>
        <time>2021-08-09T15:01:08Z</time>
      </trkpt>
      <trkpt lat="44.64338" lon="3.79965">
        <ele>1166.8</ele>
        <time>2021-08-09T15:01:10Z</time>
      </trkpt>
      <trkpt lat="44.64335" lon="3.79963">
        <ele>1167.1</ele>
        <time>2021-08-09T15:01:12Z</time>
      </trkpt>
      <trkpt lat="44.64332" lon="3.7996">
        <ele>1167.2</ele>
        <time>2021-08-09T15:01:14Z</time>
      </trkpt>
      <trkpt lat="44.64329" lon="3.79958">
        <ele>1167.2</ele>
        <time>2021-08-09T15:01:16Z</time>
      </trkpt>
      <trkpt lat="44.64326" lon="3.79956">
        <ele>1167.1</ele>
        <time>2021-08-09T15:01:18Z</time>
      </trkpt>
      <trkpt lat="44.64323" lon="3.79954">
        <ele>1167</ele>
        <time>2021-08-09T15:01:20Z</time>
      </trkpt>
      <trkpt lat="44.6432" lon="3.79951">
        <ele>1166.8</ele>
        <time>2021-08-09T15:01:22Z</time>
      </trkpt>
      <trkpt lat="44.64317" lon="3.79948">
        <ele>1166.7</ele>
        <time>2021-08-09T15:01:24Z</time>
      </trkpt>
      <trkpt lat="44.64314" lon="3.79946">
        <ele>1166.6</ele>
        <time>2021-08-09T15:01:26Z</time>
      </trkpt>
      <trkpt lat="44.6431" lon="3.79942">
        <ele>1166.2</ele>
        <time>2021-08-09T15:01:28Z</time>
      </trkpt>
      <trkpt lat="44.64307" lon="3.79939">
        <ele>1166.2</ele>
        <time>2021-08-09T15:01:30Z</time>
      </trkpt>
      <trkpt lat="44.64303" lon="3.79937">
        <ele>1166.2</ele>
        <time>2021-08-09T15:01:32Z</time>
      </trkpt>
      <trkpt lat="44.643" lon="3.79934">
        <ele>1165.9</ele>
        <time>2021-08-09T15:01:34Z</time>
      </trkpt>
      <trkpt lat="44.64297" lon="3.7993">
        <ele>1165.6</ele>
        <time>2021-08-09T15:01:36Z</time>
      </trkpt>
      <trkpt lat="44.64294" lon="3.79927">
        <ele>1165.1</ele>
        <time>2021-08-09T15:01:38Z</time>
      </trkpt>
      <trkpt lat="44.64292" lon="3.79923">
        <ele>1164.5</ele>
        <time>2021-08-09T15:01:40Z</time>
      </trkpt>
      <trkpt lat="44.64289" lon="3.79919">
        <ele>1164.1</ele>
        <time>2021-08-09T15:01:42Z</time>
      </trkpt>
      <trkpt lat="44.64285" lon="3.79917">
        <ele>1164.1</ele>
        <time>2021-08-09T15:01:44Z</time>
      </trkpt>
      <trkpt lat="44.64283" lon="3.79915">
        <ele>1164.2</ele>
        <time>2021-08-09T15:01:46Z</time>
      </trkpt>
      <trkpt lat="44.6428" lon="3.79912">
        <ele>1164.1</ele>
        <time>2021-08-09T15:01:48Z</time>
      </trkpt>
      <trkpt lat="44.64277" lon="3.7991">
        <ele>1164.2</ele>
        <time>2021-08-09T15:01:50Z</time>
      </trkpt>
      <trkpt lat="44.64274" lon="3.79909">
        <ele>1164.4</ele>
        <time>2021-08-09T15:01:52Z</time>
      </trkpt>
      <trkpt lat="44.64271" lon="3.79908">
        <ele>1164.7</ele>
        <time>2021-08-09T15:01:54Z</time>
      </trkpt>
      <trkpt lat="44.64268" lon="3.79907">
        <ele>1165</ele>
        <time>2021-08-09T15:01:56Z</time>
      </trkpt>
      <trkpt lat="44.64265" lon="3.79908">
        <ele>1165.7</ele>
        <time>2021-08-09T15:01:58Z</time>
      </trkpt>
      <trkpt lat="44.64262" lon="3.79909">
        <ele>1166.4</ele>
        <time>2021-08-09T15:02:00Z</time>
      </trkpt>
      <trkpt lat="44.64259" lon="3.7991">
        <ele>1167.1</ele>
        <time>2021-08-09T15:02:02Z</time>
      </trkpt>
      <trkpt lat="44.64257" lon="3.79913">
        <ele>1168.1</ele>
        <time>2021-08-09T15:02:04Z</time>
      </trkpt>
      <trkpt lat="44.64254" lon="3.79916">
        <ele>1169.2</ele>
        <time>2021-08-09T15:02:06Z</time>
      </trkpt>
      <trkpt lat="44.64252" lon="3.79919">
        <ele>1170.3</ele>
        <time>2021-08-09T15:02:08Z</time>
      </trkpt>
      <trkpt lat="44.64249" lon="3.79922">
        <ele>1171.4</ele>
        <time>2021-08-09T15:02:10Z</time>
      </trkpt>
      <trkpt lat="44.64247" lon="3.79925">
        <ele>1171.8</ele>
        <time>2021-08-09T15:02:12Z</time>
      </trkpt>
      <trkpt lat="44.64244" lon="3.79929">
        <ele>1172.4</ele>
        <time>2021-08-09T15:02:14Z</time>
      </trkpt>
      <trkpt lat="44.64241" lon="3.79933">
        <ele>1173</ele>
        <time>2021-08-09T15:02:16Z</time>
      </trkpt>
      <trkpt lat="44.64238" lon="3.79936">
        <ele>1173.4</ele>
        <time>2021-08-09T15:02:18Z</time>
      </trkpt>
      <trkpt lat="44.64236" lon="3.7994">
        <ele>1174</ele>
        <time>2021-08-09T15:02:20Z</time>
      </trkpt>
      <trkpt lat="44.64233" lon="3.79943">
        <ele>1174.6</ele>
        <time>2021-08-09T15:02:22Z</time>
      </trkpt>
      <trkpt lat="44.6423" lon="3.79946">
        <ele>1174.9</ele>
        <time>2021-08-09T15:02:24Z</time>
      </trkpt>
      <trkpt lat="44.64226" lon="3.79949">
        <ele>1175.2</ele>
        <time>2021-08-09T15:02:26Z</time>
      </trkpt>
      <trkpt lat="44.64223" lon="3.79952">
        <ele>1175.4</ele>
        <time>2021-08-09T15:02:28Z</time>
      </trkpt>
      <trkpt lat="44.64219" lon="3.79955">
        <ele>1175.7</ele>
        <time>2021-08-09T15:02:30Z</time>
      </trkpt>
      <trkpt lat="44.64214" lon="3.79957">
        <ele>1175.5</ele>
        <time>2021-08-09T15:02:32Z</time>
      </trkpt>
      <trkpt lat="44.6421" lon="3.7996">
        <ele>1175.7</ele>
        <time>2021-08-09T15:02:34Z</time>
      </trkpt>
      <trkpt lat="44.64207" lon="3.79963">
        <ele>1175.9</ele>
        <time>2021-08-09T15:02:36Z</time>
      </trkpt>
      <trkpt lat="44.64203" lon="3.79966">
        <ele>1176.1</ele>
        <time>2021-08-09T15:02:38Z</time>
      </trkpt>
      <trkpt lat="44.64199" lon="3.7997">
        <ele>1176.4</ele>
        <time>2021-08-09T15:02:40Z</time>
      </trkpt>
      <trkpt lat="44.64195" lon="3.79975">
        <ele>1176.9</ele>
        <time>2021-08-09T15:02:42Z</time>
      </trkpt>
      <trkpt lat="44.64191" lon="3.7998">
        <ele>1177.4</ele>
        <time>2021-08-09T15:02:44Z</time>
      </trkpt>
      <trkpt lat="44.64188" lon="3.79984">
        <ele>1178</ele>
        <time>2021-08-09T15:02:46Z</time>
      </trkpt>
      <trkpt lat="44.64184" lon="3.79989">
        <ele>1178.4</ele>
        <time>2021-08-09T15:02:48Z</time>
      </trkpt>
      <trkpt lat="44.64181" lon="3.79994">
        <ele>1179</ele>
        <time>2021-08-09T15:02:50Z</time>
      </trkpt>
      <trkpt lat="44.64177" lon="3.79999">
        <ele>1179.4</ele>
        <time>2021-08-09T15:02:52Z</time>
      </trkpt>
      <trkpt lat="44.64173" lon="3.80004">
        <ele>1180</ele>
        <time>2021-08-09T15:02:54Z</time>
      </trkpt>
      <trkpt lat="44.64169" lon="3.80009">
        <ele>1180.8</ele>
        <time>2021-08-09T15:02:56Z</time>
      </trkpt>
      <trkpt lat="44.64164" lon="3.80014">
        <ele>1181.7</ele>
        <time>2021-08-09T15:02:58Z</time>
      </trkpt>
      <trkpt lat="44.6416" lon="3.80019">
        <ele>1182.8</ele>
        <time>2021-08-09T15:03:00Z</time>
      </trkpt>
      <trkpt lat="44.64156" lon="3.80023">
        <ele>1183.7</ele>
        <time>2021-08-09T15:03:02Z</time>
      </trkpt>
      <trkpt lat="44.64152" lon="3.80028">
        <ele>1184.9</ele>
        <time>2021-08-09T15:03:04Z</time>
      </trkpt>
      <trkpt lat="44.64148" lon="3.80032">
        <ele>1185.9</ele>
        <time>2021-08-09T15:03:06Z</time>
      </trkpt>
      <trkpt lat="44.64145" lon="3.80036">
        <ele>1186.7</ele>
        <time>2021-08-09T15:03:08Z</time>
      </trkpt>
      <trkpt lat="44.64141" lon="3.80039">
        <ele>1187.4</ele>
        <time>2021-08-09T15:03:10Z</time>
      </trkpt>
      <trkpt lat="44.64137" lon="3.80041">
        <ele>1187.8</ele>
        <time>2021-08-09T15:03:12Z</time>
      </trkpt>
      <trkpt lat="44.64133" lon="3.80044">
        <ele>1188.4</ele>
        <time>2021-08-09T15:03:14Z</time>
      </trkpt>
      <trkpt lat="44.64128" lon="3.80047">
        <ele>1189</ele>
        <time>2021-08-09T15:03:16Z</time>
      </trkpt>
      <trkpt lat="44.64125" lon="3.8005">
        <ele>1189.5</ele>
        <time>2021-08-09T15:03:18Z</time>
      </trkpt>
      <trkpt lat="44.6412" lon="3.80053">
        <ele>1190.2</ele>
        <time>2021-08-09T15:03:20Z</time>
      </trkpt>
      <trkpt lat="44.64115" lon="3.80055">
        <ele>1190.4</ele>
        <time>2021-08-09T15:03:22Z</time>
      </trkpt>
      <trkpt lat="44.64111" lon="3.80057">
        <ele>1190.9</ele>
        <time>2021-08-09T15:03:24Z</time>
      </trkpt>
      <trkpt lat="44.64106" lon="3.80059">
        <ele>1191</ele>
        <time>2021-08-09T15:03:26Z</time>
      </trkpt>
      <trkpt lat="44.64101" lon="3.80059">
        <ele>1191</ele>
        <time>2021-08-09T15:03:28Z</time>
      </trkpt>
      <trkpt lat="44.64095" lon="3.80061">
        <ele>1191.1</ele>
        <time>2021-08-09T15:03:30Z</time>
      </trkpt>
      <trkpt lat="44.64091" lon="3.80062">
        <ele>1191.2</ele>
        <time>2021-08-09T15:03:32Z</time>
      </trkpt>
      <trkpt lat="44.64086" lon="3.80063">
        <ele>1191.2</ele>
        <time>2021-08-09T15:03:34Z</time>
      </trkpt>
      <trkpt lat="44.64081" lon="3.80063">
        <ele>1191.2</ele>
        <time>2021-08-09T15:03:36Z</time>
      </trkpt>
      <trkpt lat="44.64077" lon="3.80065">
        <ele>1191.7</ele>
        <time>2021-08-09T15:03:38Z</time>
      </trkpt>
      <trkpt lat="44.64072" lon="3.80067">
        <ele>1192.2</ele>
        <time>2021-08-09T15:03:40Z</time>
      </trkpt>
      <trkpt lat="44.64067" lon="3.80067">
        <ele>1192.2</ele>
        <time>2021-08-09T15:03:42Z</time>
      </trkpt>
      <trkpt lat="44.64062" lon="3.80067">
        <ele>1192.1</ele>
        <time>2021-08-09T15:03:44Z</time>
      </trkpt>
      <trkpt lat="44.64056" lon="3.80068">
        <ele>1192.2</ele>
        <time>2021-08-09T15:03:46Z</time>
      </trkpt>
      <trkpt lat="44.6405" lon="3.80069">
        <ele>1192.5</ele>
        <time>2021-08-09T15:03:48Z</time>
      </trkpt>
      <trkpt lat="44.64045" lon="3.80069">
        <ele>1192.4</ele>
        <time>2021-08-09T15:03:50Z</time>
      </trkpt>
      <trkpt lat="44.6404" lon="3.8007">
        <ele>1192.7</ele>
        <time>2021-08-09T15:03:52Z</time>
      </trkpt>
      <trkpt lat="44.64035" lon="3.80068">
        <ele>1192.2</ele>
        <time>2021-08-09T15:03:54Z</time>
      </trkpt>
      <trkpt lat="44.64029" lon="3.8007">
        <ele>1192.5</ele>
        <time>2021-08-09T15:03:56Z</time>
      </trkpt>
      <trkpt lat="44.64024" lon="3.8007">
        <ele>1192.5</ele>
        <time>2021-08-09T15:03:58Z</time>
      </trkpt>
      <trkpt lat="44.64019" lon="3.80071">
        <ele>1192.5</ele>
        <time>2021-08-09T15:04:00Z</time>
      </trkpt>
      <trkpt lat="44.64013" lon="3.80072">
        <ele>1192.8</ele>
        <time>2021-08-09T15:04:02Z</time>
      </trkpt>
      <trkpt lat="44.64007" lon="3.80072">
        <ele>1192.7</ele>
        <time>2021-08-09T15:04:04Z</time>
      </trkpt>
      <trkpt lat="44.64001" lon="3.80071">
        <ele>1192.3</ele>
        <time>2021-08-09T15:04:06Z</time>
      </trkpt>
      <trkpt lat="44.63996" lon="3.8007">
        <ele>1191.7</ele>
        <time>2021-08-09T15:04:08Z</time>
      </trkpt>
      <trkpt lat="44.63991" lon="3.80068">
        <ele>1191.1</ele>
        <time>2021-08-09T15:04:10Z</time>
      </trkpt>
      <trkpt lat="44.63985" lon="3.80067">
        <ele>1190.4</ele>
        <time>2021-08-09T15:04:12Z</time>
      </trkpt>
      <trkpt lat="44.6398" lon="3.80065">
        <ele>1189.8</ele>
        <time>2021-08-09T15:04:14Z</time>
      </trkpt>
      <trkpt lat="44.63974" lon="3.80064">
        <ele>1189.2</ele>
        <time>2021-08-09T15:04:16Z</time>
      </trkpt>
      <trkpt lat="44.6397" lon="3.80064">
        <ele>1188.9</ele>
        <time>2021-08-09T15:04:18Z</time>
      </trkpt>
      <trkpt lat="44.63965" lon="3.80065">
        <ele>1188.8</ele>
        <time>2021-08-09T15:04:20Z</time>
      </trkpt>
      <trkpt lat="44.63959" lon="3.80067">
        <ele>1188.7</ele>
        <time>2021-08-09T15:04:22Z</time>
      </trkpt>
      <trkpt lat="44.63955" lon="3.8007">
        <ele>1188.7</ele>
        <time>2021-08-09T15:04:24Z</time>
      </trkpt>
      <trkpt lat="44.63951" lon="3.80072">
        <ele>1188.7</ele>
        <time>2021-08-09T15:04:26Z</time>
      </trkpt>
      <trkpt lat="44.63947" lon="3.80077">
        <ele>1188.7</ele>
        <time>2021-08-09T15:04:28Z</time>
      </trkpt>
      <trkpt lat="44.63944" lon="3.80081">
        <ele>1188.8</ele>
        <time>2021-08-09T15:04:30Z</time>
      </trkpt>
      <trkpt lat="44.63941" lon="3.80086">
        <ele>1189.2</ele>
        <time>2021-08-09T15:04:32Z</time>
      </trkpt>
      <trkpt lat="44.63938" lon="3.80091">
        <ele>1190.2</ele>
        <time>2021-08-09T15:04:34Z</time>
      </trkpt>
      <trkpt lat="44.63935" lon="3.80097">
        <ele>1191.4</ele>
        <time>2021-08-09T15:04:36Z</time>
      </trkpt>
      <trkpt lat="44.63933" lon="3.80103">
        <ele>1192.8</ele>
        <time>2021-08-09T15:04:38Z</time>
      </trkpt>
      <trkpt lat="44.63931" lon="3.80109">
        <ele>1194.1</ele>
        <time>2021-08-09T15:04:40Z</time>
      </trkpt>
      <trkpt lat="44.63928" lon="3.80115">
        <ele>1195.3</ele>
        <time>2021-08-09T15:04:42Z</time>
      </trkpt>
      <trkpt lat="44.63926" lon="3.80121">
        <ele>1196.6</ele>
        <time>2021-08-09T15:04:44Z</time>
      </trkpt>
      <trkpt lat="44.63922" lon="3.80128">
        <ele>1197.8</ele>
        <time>2021-08-09T15:04:46Z</time>
      </trkpt>
      <trkpt lat="44.6392" lon="3.80133">
        <ele>1198.9</ele>
        <time>2021-08-09T15:04:48Z</time>
      </trkpt>
      <trkpt lat="44.63916" lon="3.80138">
        <ele>1199.8</ele>
        <time>2021-08-09T15:04:50Z</time>
      </trkpt>
      <trkpt lat="44.63912" lon="3.80143">
        <ele>1200.7</ele>
        <time>2021-08-09T15:04:52Z</time>
      </trkpt>
      <trkpt lat="44.63907" lon="3.80147">
        <ele>1201.2</ele>
        <time>2021-08-09T15:04:54Z</time>
      </trkpt>
      <trkpt lat="44.63903" lon="3.80151">
        <ele>1201.7</ele>
        <time>2021-08-09T15:04:56Z</time>
      </trkpt>
      <trkpt lat="44.63899" lon="3.80154">
        <ele>1201.9</ele>
        <time>2021-08-09T15:04:58Z</time>
      </trkpt>
      <trkpt lat="44.63894" lon="3.80158">
        <ele>1202.3</ele>
        <time>2021-08-09T15:05:00Z</time>
      </trkpt>
      <trkpt lat="44.63891" lon="3.80161">
        <ele>1202.6</ele>
        <time>2021-08-09T15:05:02Z</time>
      </trkpt>
      <trkpt lat="44.63886" lon="3.80164">
        <ele>1202.7</ele>
        <time>2021-08-09T15:05:04Z</time>
      </trkpt>
      <trkpt lat="44.63883" lon="3.80166">
        <ele>1202.8</ele>
        <time>2021-08-09T15:05:06Z</time>
      </trkpt>
      <trkpt lat="44.63878" lon="3.80168">
        <ele>1202.8</ele>
        <time>2021-08-09T15:05:08Z</time>
      </trkpt>
      <trkpt lat="44.63875" lon="3.8017">
        <ele>1202.8</ele>
        <time>2021-08-09T15:05:10Z</time>
      </trkpt>
      <trkpt lat="44.6387" lon="3.80171">
        <ele>1202.3</ele>
        <time>2021-08-09T15:05:12Z</time>
      </trkpt>
      <trkpt lat="44.63864" lon="3.80173">
        <ele>1202.1</ele>
        <time>2021-08-09T15:05:14Z</time>
      </trkpt>
      <trkpt lat="44.63859" lon="3.80174">
        <ele>1201.8</ele>
        <time>2021-08-09T15:05:16Z</time>
      </trkpt>
      <trkpt lat="44.63853" lon="3.80176">
        <ele>1201.5</ele>
        <time>2021-08-09T15:05:18Z</time>
      </trkpt>
      <trkpt lat="44.63848" lon="3.80178">
        <ele>1201.4</ele>
        <time>2021-08-09T15:05:20Z</time>
      </trkpt>
      <trkpt lat="44.63843" lon="3.80181">
        <ele>1201.6</ele>
        <time>2021-08-09T15:05:22Z</time>
      </trkpt>
      <trkpt lat="44.63838" lon="3.80183">
        <ele>1201.5</ele>
        <time>2021-08-09T15:05:24Z</time>
      </trkpt>
      <trkpt lat="44.63834" lon="3.80185">
        <ele>1201.5</ele>
        <time>2021-08-09T15:05:26Z</time>
      </trkpt>
      <trkpt lat="44.63829" lon="3.80187">
        <ele>1201.8</ele>
        <time>2021-08-09T15:05:28Z</time>
      </trkpt>
      <trkpt lat="44.63824" lon="3.80188">
        <ele>1202.1</ele>
        <time>2021-08-09T15:05:30Z</time>
      </trkpt>
      <trkpt lat="44.63818" lon="3.8019">
        <ele>1202.5</ele>
        <time>2021-08-09T15:05:32Z</time>
      </trkpt>
      <trkpt lat="44.63814" lon="3.80191">
        <ele>1202.6</ele>
        <time>2021-08-09T15:05:34Z</time>
      </trkpt>
      <trkpt lat="44.63808" lon="3.80192">
        <ele>1202.9</ele>
        <time>2021-08-09T15:05:36Z</time>
      </trkpt>
      <trkpt lat="44.63803" lon="3.80191">
        <ele>1202.7</ele>
        <time>2021-08-09T15:05:38Z</time>
      </trkpt>
      <trkpt lat="44.63798" lon="3.8019">
        <ele>1202.4</ele>
        <time>2021-08-09T15:05:40Z</time>
      </trkpt>
      <trkpt lat="44.63793" lon="3.80189">
        <ele>1202</ele>
        <time>2021-08-09T15:05:42Z</time>
      </trkpt>
      <trkpt lat="44.63787" lon="3.80187">
        <ele>1201.3</ele>
        <time>2021-08-09T15:05:44Z</time>
      </trkpt>
      <trkpt lat="44.63781" lon="3.80185">
        <ele>1200.7</ele>
        <time>2021-08-09T15:05:46Z</time>
      </trkpt>
      <trkpt lat="44.63776" lon="3.80183">
        <ele>1200.2</ele>
        <time>2021-08-09T15:05:48Z</time>
      </trkpt>
      <trkpt lat="44.63771" lon="3.80181">
        <ele>1199.5</ele>
        <time>2021-08-09T15:05:50Z</time>
      </trkpt>
      <trkpt lat="44.63764" lon="3.80179">
        <ele>1198.8</ele>
        <time>2021-08-09T15:05:52Z</time>
      </trkpt>
      <trkpt lat="44.63759" lon="3.80177">
        <ele>1198.3</ele>
        <time>2021-08-09T15:05:54Z</time>
      </trkpt>
      <trkpt lat="44.63753" lon="3.80176">
        <ele>1197.9</ele>
        <time>2021-08-09T15:05:56Z</time>
      </trkpt>
      <trkpt lat="44.63748" lon="3.80175">
        <ele>1197.7</ele>
        <time>2021-08-09T15:05:58Z</time>
      </trkpt>
      <trkpt lat="44.63743" lon="3.80175">
        <ele>1197.6</ele>
        <time>2021-08-09T15:06:00Z</time>
      </trkpt>
      <trkpt lat="44.63738" lon="3.80174">
        <ele>1197.8</ele>
        <time>2021-08-09T15:06:02Z</time>
      </trkpt>
      <trkpt lat="44.63733" lon="3.80174">
        <ele>1198</ele>
        <time>2021-08-09T15:06:04Z</time>
      </trkpt>
      <trkpt lat="44.63728" lon="3.80175">
        <ele>1198.5</ele>
        <time>2021-08-09T15:06:06Z</time>
      </trkpt>
      <trkpt lat="44.63724" lon="3.80177">
        <ele>1199</ele>
        <time>2021-08-09T15:06:08Z</time>
      </trkpt>
      <trkpt lat="44.6372" lon="3.80178">
        <ele>1199.5</ele>
        <time>2021-08-09T15:06:10Z</time>
      </trkpt>
      <trkpt lat="44.63716" lon="3.80179">
        <ele>1200.1</ele>
        <time>2021-08-09T15:06:12Z</time>
      </trkpt>
      <trkpt lat="44.63711" lon="3.8018">
        <ele>1200.6</ele>
        <time>2021-08-09T15:06:14Z</time>
      </trkpt>
      <trkpt lat="44.63707" lon="3.80181">
        <ele>1201.2</ele>
        <time>2021-08-09T15:06:16Z</time>
      </trkpt>
      <trkpt lat="44.63703" lon="3.80183">
        <ele>1201.8</ele>
        <time>2021-08-09T15:06:18Z</time>
      </trkpt>
      <trkpt lat="44.63699" lon="3.80183">
        <ele>1202.1</ele>
        <time>2021-08-09T15:06:20Z</time>
      </trkpt>
      <trkpt lat="44.63694" lon="3.80185">
        <ele>1202.8</ele>
        <time>2021-08-09T15:06:22Z</time>
      </trkpt>
      <trkpt lat="44.6369" lon="3.80187">
        <ele>1203.5</ele>
        <time>2021-08-09T15:06:24Z</time>
      </trkpt>
      <trkpt lat="44.63687" lon="3.80188">
        <ele>1204</ele>
        <time>2021-08-09T15:06:26Z</time>
      </trkpt>
      <trkpt lat="44.63682" lon="3.80191">
        <ele>1205.1</ele>
        <time>2021-08-09T15:06:28Z</time>
      </trkpt>
      <trkpt lat="44.63678" lon="3.80191">
        <ele>1205.5</ele>
        <time>2021-08-09T15:06:30Z</time>
      </trkpt>
      <trkpt lat="44.63673" lon="3.80193">
        <ele>1206.4</ele>
        <time>2021-08-09T15:06:32Z</time>
      </trkpt>
      <trkpt lat="44.63667" lon="3.80193">
        <ele>1206.5</ele>
        <time>2021-08-09T15:06:34Z</time>
      </trkpt>
      <trkpt lat="44.63663" lon="3.80194">
        <ele>1207.1</ele>
        <time>2021-08-09T15:06:36Z</time>
      </trkpt>
      <trkpt lat="44.63657" lon="3.80194">
        <ele>1207.7</ele>
        <time>2021-08-09T15:06:38Z</time>
      </trkpt>
      <trkpt lat="44.63652" lon="3.80194">
        <ele>1207.8</ele>
        <time>2021-08-09T15:06:40Z</time>
      </trkpt>
      <trkpt lat="44.63647" lon="3.80193">
        <ele>1208.1</ele>
        <time>2021-08-09T15:06:42Z</time>
      </trkpt>
      <trkpt lat="44.63641" lon="3.80192">
        <ele>1208</ele>
        <time>2021-08-09T15:06:44Z</time>
      </trkpt>
      <trkpt lat="44.63637" lon="3.80189">
        <ele>1207.6</ele>
        <time>2021-08-09T15:06:46Z</time>
      </trkpt>
      <trkpt lat="44.63631" lon="3.80187">
        <ele>1207.4</ele>
        <time>2021-08-09T15:06:48Z</time>
      </trkpt>
      <trkpt lat="44.63625" lon="3.80184">
        <ele>1207.1</ele>
        <time>2021-08-09T15:06:50Z</time>
      </trkpt>
      <trkpt lat="44.6362" lon="3.80182">
        <ele>1207</ele>
        <time>2021-08-09T15:06:52Z</time>
      </trkpt>
      <trkpt lat="44.63615" lon="3.80179">
        <ele>1206.6</ele>
        <time>2021-08-09T15:06:54Z</time>
      </trkpt>
      <trkpt lat="44.63609" lon="3.80177">
        <ele>1206.4</ele>
        <time>2021-08-09T15:06:56Z</time>
      </trkpt>
      <trkpt lat="44.63604" lon="3.80175">
        <ele>1206.4</ele>
        <time>2021-08-09T15:06:58Z</time>
      </trkpt>
      <trkpt lat="44.63598" lon="3.80174">
        <ele>1206.5</ele>
        <time>2021-08-09T15:07:00Z</time>
      </trkpt>
      <trkpt lat="44.63593" lon="3.80174">
        <ele>1206.9</ele>
        <time>2021-08-09T15:07:02Z</time>
      </trkpt>
      <trkpt lat="44.63589" lon="3.80174">
        <ele>1207.3</ele>
        <time>2021-08-09T15:07:04Z</time>
      </trkpt>
      <trkpt lat="44.63584" lon="3.80174">
        <ele>1207.8</ele>
        <time>2021-08-09T15:07:06Z</time>
      </trkpt>
      <trkpt lat="44.63579" lon="3.80174">
        <ele>1208</ele>
        <time>2021-08-09T15:07:08Z</time>
      </trkpt>
      <trkpt lat="44.63573" lon="3.80174">
        <ele>1207.9</ele>
        <time>2021-08-09T15:07:10Z</time>
      </trkpt>
      <trkpt lat="44.63568" lon="3.80175">
        <ele>1208.3</ele>
        <time>2021-08-09T15:07:12Z</time>
      </trkpt>
      <trkpt lat="44.63564" lon="3.80175">
        <ele>1208.4</ele>
        <time>2021-08-09T15:07:14Z</time>
      </trkpt>
      <trkpt lat="44.63558" lon="3.80176">
        <ele>1208.5</ele>
        <time>2021-08-09T15:07:16Z</time>
      </trkpt>
      <trkpt lat="44.63553" lon="3.80176">
        <ele>1208.7</ele>
        <time>2021-08-09T15:07:18Z</time>
      </trkpt>
      <trkpt lat="44.63549" lon="3.80176">
        <ele>1208.5</ele>
        <time>2021-08-09T15:07:20Z</time>
      </trkpt>
      <trkpt lat="44.63544" lon="3.80175">
        <ele>1208.5</ele>
        <time>2021-08-09T15:07:22Z</time>
      </trkpt>
      <trkpt lat="44.63539" lon="3.80174">
        <ele>1208.3</ele>
        <time>2021-08-09T15:07:24Z</time>
      </trkpt>
      <trkpt lat="44.63533" lon="3.80176">
        <ele>1208.7</ele>
        <time>2021-08-09T15:07:26Z</time>
      </trkpt>
      <trkpt lat="44.63528" lon="3.80176">
        <ele>1208.7</ele>
        <time>2021-08-09T15:07:28Z</time>
      </trkpt>
      <trkpt lat="44.63522" lon="3.80177">
        <ele>1208.8</ele>
        <time>2021-08-09T15:07:30Z</time>
      </trkpt>
      <trkpt lat="44.63517" lon="3.80178">
        <ele>1209.1</ele>
        <time>2021-08-09T15:07:32Z</time>
      </trkpt>
      <trkpt lat="44.63511" lon="3.80177">
        <ele>1208.9</ele>
        <time>2021-08-09T15:07:34Z</time>
      </trkpt>
      <trkpt lat="44.63507" lon="3.80179">
        <ele>1209.4</ele>
        <time>2021-08-09T15:07:36Z</time>
      </trkpt>
      <trkpt lat="44.635" lon="3.80181">
        <ele>1209.7</ele>
        <time>2021-08-09T15:07:38Z</time>
      </trkpt>
      <trkpt lat="44.63495" lon="3.80183">
        <ele>1210.2</ele>
        <time>2021-08-09T15:07:40Z</time>
      </trkpt>
      <trkpt lat="44.63491" lon="3.80187">
        <ele>1211</ele>
        <time>2021-08-09T15:07:42Z</time>
      </trkpt>
      <trkpt lat="44.63486" lon="3.80189">
        <ele>1211.5</ele>
        <time>2021-08-09T15:07:44Z</time>
      </trkpt>
      <trkpt lat="44.63481" lon="3.80193">
        <ele>1212.3</ele>
        <time>2021-08-09T15:07:46Z</time>
      </trkpt>
      <trkpt lat="44.63476" lon="3.80197">
        <ele>1213.1</ele>
        <time>2021-08-09T15:07:48Z</time>
      </trkpt>
      <trkpt lat="44.63471" lon="3.80201">
        <ele>1213.8</ele>
        <time>2021-08-09T15:07:50Z</time>
      </trkpt>
      <trkpt lat="44.63467" lon="3.80205">
        <ele>1214.6</ele>
        <time>2021-08-09T15:07:52Z</time>
      </trkpt>
      <trkpt lat="44.63463" lon="3.80208">
        <ele>1215.1</ele>
        <time>2021-08-09T15:07:54Z</time>
      </trkpt>
      <trkpt lat="44.63458" lon="3.80212">
        <ele>1215.9</ele>
        <time>2021-08-09T15:07:56Z</time>
      </trkpt>
      <trkpt lat="44.63454" lon="3.80216">
        <ele>1216.7</ele>
        <time>2021-08-09T15:07:58Z</time>
      </trkpt>
      <trkpt lat="44.63449" lon="3.80219">
        <ele>1217.1</ele>
        <time>2021-08-09T15:08:00Z</time>
      </trkpt>
      <trkpt lat="44.63442" lon="3.80219">
        <ele>1217.2</ele>
        <time>2021-08-09T15:08:02Z</time>
      </trkpt>
      <trkpt lat="44.63436" lon="3.80217">
        <ele>1216.9</ele>
        <time>2021-08-09T15:08:04Z</time>
      </trkpt>
      <trkpt lat="44.6343" lon="3.80214">
        <ele>1216.3</ele>
        <time>2021-08-09T15:08:06Z</time>
      </trkpt>
      <trkpt lat="44.63425" lon="3.80209">
        <ele>1215.6</ele>
        <time>2021-08-09T15:08:08Z</time>
      </trkpt>
      <trkpt lat="44.63421" lon="3.80205">
        <ele>1214.9</ele>
        <time>2021-08-09T15:08:10Z</time>
      </trkpt>
      <trkpt lat="44.63417" lon="3.80199">
        <ele>1214.1</ele>
        <time>2021-08-09T15:08:12Z</time>
      </trkpt>
      <trkpt lat="44.63414" lon="3.80196">
        <ele>1213.8</ele>
        <time>2021-08-09T15:08:14Z</time>
      </trkpt>
      <trkpt lat="44.6341" lon="3.80192">
        <ele>1213.5</ele>
        <time>2021-08-09T15:08:16Z</time>
      </trkpt>
      <trkpt lat="44.63406" lon="3.80189">
        <ele>1213.2</ele>
        <time>2021-08-09T15:08:18Z</time>
      </trkpt>
      <trkpt lat="44.63402" lon="3.80186">
        <ele>1213.2</ele>
        <time>2021-08-09T15:08:20Z</time>
      </trkpt>
      <trkpt lat="44.63398" lon="3.80183">
        <ele>1213</ele>
        <time>2021-08-09T15:08:22Z</time>
      </trkpt>
      <trkpt lat="44.63395" lon="3.80181">
        <ele>1212.9</ele>
        <time>2021-08-09T15:08:24Z</time>
      </trkpt>
      <trkpt lat="44.63389" lon="3.80181">
        <ele>1213.3</ele>
        <time>2021-08-09T15:08:26Z</time>
      </trkpt>
      <trkpt lat="44.63385" lon="3.8018">
        <ele>1213.5</ele>
        <time>2021-08-09T15:08:28Z</time>
      </trkpt>
      <trkpt lat="44.6338" lon="3.8018">
        <ele>1213.9</ele>
        <time>2021-08-09T15:08:30Z</time>
      </trkpt>
      <trkpt lat="44.63375" lon="3.80179">
        <ele>1214.1</ele>
        <time>2021-08-09T15:08:32Z</time>
      </trkpt>
      <trkpt lat="44.63371" lon="3.80179">
        <ele>1214.5</ele>
        <time>2021-08-09T15:08:34Z</time>
      </trkpt>
      <trkpt lat="44.63367" lon="3.8018">
        <ele>1215</ele>
        <time>2021-08-09T15:08:36Z</time>
      </trkpt>
      <trkpt lat="44.63361" lon="3.80181">
        <ele>1215.5</ele>
        <time>2021-08-09T15:08:38Z</time>
      </trkpt>
      <trkpt lat="44.63356" lon="3.80181">
        <ele>1216</ele>
        <time>2021-08-09T15:08:40Z</time>
      </trkpt>
      <trkpt lat="44.63351" lon="3.8018">
        <ele>1216.2</ele>
        <time>2021-08-09T15:08:42Z</time>
      </trkpt>
      <trkpt lat="44.63346" lon="3.80181">
        <ele>1216.7</ele>
        <time>2021-08-09T15:08:44Z</time>
      </trkpt>
      <trkpt lat="44.63342" lon="3.80181">
        <ele>1217.1</ele>
        <time>2021-08-09T15:08:46Z</time>
      </trkpt>
      <trkpt lat="44.63337" lon="3.80183">
        <ele>1217.8</ele>
        <time>2021-08-09T15:08:48Z</time>
      </trkpt>
      <trkpt lat="44.63333" lon="3.80184">
        <ele>1218.2</ele>
        <time>2021-08-09T15:08:50Z</time>
      </trkpt>
      <trkpt lat="44.63328" lon="3.80186">
        <ele>1218.4</ele>
        <time>2021-08-09T15:08:52Z</time>
      </trkpt>
      <trkpt lat="44.63323" lon="3.80187">
        <ele>1218.4</ele>
        <time>2021-08-09T15:08:54Z</time>
      </trkpt>
      <trkpt lat="44.63318" lon="3.80188">
        <ele>1218.4</ele>
        <time>2021-08-09T15:08:56Z</time>
      </trkpt>
      <trkpt lat="44.63313" lon="3.80189">
        <ele>1218.5</ele>
        <time>2021-08-09T15:08:58Z</time>
      </trkpt>
      <trkpt lat="44.63309" lon="3.80192">
        <ele>1218.7</ele>
        <time>2021-08-09T15:09:00Z</time>
      </trkpt>
      <trkpt lat="44.63304" lon="3.80194">
        <ele>1218.9</ele>
        <time>2021-08-09T15:09:02Z</time>
      </trkpt>
      <trkpt lat="44.63298" lon="3.80196">
        <ele>1219.1</ele>
        <time>2021-08-09T15:09:04Z</time>
      </trkpt>
      <trkpt lat="44.63294" lon="3.802">
        <ele>1219.6</ele>
        <time>2021-08-09T15:09:06Z</time>
      </trkpt>
      <trkpt lat="44.6329" lon="3.80202">
        <ele>1220</ele>
        <time>2021-08-09T15:09:08Z</time>
      </trkpt>
      <trkpt lat="44.63284" lon="3.80205">
        <ele>1220.3</ele>
        <time>2021-08-09T15:09:10Z</time>
      </trkpt>
      <trkpt lat="44.6328" lon="3.80208">
        <ele>1220.7</ele>
        <time>2021-08-09T15:09:12Z</time>
      </trkpt>
      <trkpt lat="44.63274" lon="3.80211">
        <ele>1221.1</ele>
        <time>2021-08-09T15:09:14Z</time>
      </trkpt>
      <trkpt lat="44.63269" lon="3.80215">
        <ele>1221.6</ele>
        <time>2021-08-09T15:09:16Z</time>
      </trkpt>
      <trkpt lat="44.63266" lon="3.80216">
        <ele>1221.8</ele>
        <time>2021-08-09T15:09:18Z</time>
      </trkpt>
      <trkpt lat="44.63259" lon="3.80219">
        <ele>1222.1</ele>
        <time>2021-08-09T15:09:20Z</time>
      </trkpt>
      <trkpt lat="44.63255" lon="3.80222">
        <ele>1222.4</ele>
        <time>2021-08-09T15:09:22Z</time>
      </trkpt>
      <trkpt lat="44.63248" lon="3.80225">
        <ele>1222.9</ele>
        <time>2021-08-09T15:09:24Z</time>
      </trkpt>
      <trkpt lat="44.63243" lon="3.80227">
        <ele>1223.3</ele>
        <time>2021-08-09T15:09:26Z</time>
      </trkpt>
      <trkpt lat="44.63239" lon="3.80228">
        <ele>1223.7</ele>
        <time>2021-08-09T15:09:28Z</time>
      </trkpt>
      <trkpt lat="44.63235" lon="3.8023">
        <ele>1224</ele>
        <time>2021-08-09T15:09:30Z</time>
      </trkpt>
      <trkpt lat="44.63228" lon="3.80231">
        <ele>1224.4</ele>
        <time>2021-08-09T15:09:32Z</time>
      </trkpt>
      <trkpt lat="44.63222" lon="3.80232">
        <ele>1224.6</ele>
        <time>2021-08-09T15:09:34Z</time>
      </trkpt>
      <trkpt lat="44.63217" lon="3.80234">
        <ele>1225</ele>
        <time>2021-08-09T15:09:36Z</time>
      </trkpt>
      <trkpt lat="44.63212" lon="3.80235">
        <ele>1225.4</ele>
        <time>2021-08-09T15:09:38Z</time>
      </trkpt>
      <trkpt lat="44.63207" lon="3.80237">
        <ele>1225.7</ele>
        <time>2021-08-09T15:09:40Z</time>
      </trkpt>
      <trkpt lat="44.63202" lon="3.8024">
        <ele>1226.3</ele>
        <time>2021-08-09T15:09:42Z</time>
      </trkpt>
      <trkpt lat="44.63197" lon="3.80242">
        <ele>1226.6</ele>
        <time>2021-08-09T15:09:44Z</time>
      </trkpt>
      <trkpt lat="44.63193" lon="3.80244">
        <ele>1227</ele>
        <time>2021-08-09T15:09:46Z</time>
      </trkpt>
      <trkpt lat="44.63188" lon="3.80246">
        <ele>1227.3</ele>
        <time>2021-08-09T15:09:48Z</time>
      </trkpt>
      <trkpt lat="44.63185" lon="3.80247">
        <ele>1227.5</ele>
        <time>2021-08-09T15:09:50Z</time>
      </trkpt>
      <trkpt lat="44.63179" lon="3.80249">
        <ele>1227.8</ele>
        <time>2021-08-09T15:09:52Z</time>
      </trkpt>
      <trkpt lat="44.63175" lon="3.8025">
        <ele>1228.1</ele>
        <time>2021-08-09T15:09:54Z</time>
      </trkpt>
      <trkpt lat="44.63169" lon="3.80251">
        <ele>1228.1</ele>
        <time>2021-08-09T15:09:56Z</time>
      </trkpt>
      <trkpt lat="44.63164" lon="3.80249">
        <ele>1228.3</ele>
        <time>2021-08-09T15:09:58Z</time>
      </trkpt>
      <trkpt lat="44.63161" lon="3.80246">
        <ele>1228.9</ele>
        <time>2021-08-09T15:10:00Z</time>
      </trkpt>
      <trkpt lat="44.63157" lon="3.80243">
        <ele>1229.2</ele>
        <time>2021-08-09T15:10:02Z</time>
      </trkpt>
      <trkpt lat="44.63153" lon="3.80238">
        <ele>1229.4</ele>
        <time>2021-08-09T15:10:04Z</time>
      </trkpt>
      <trkpt lat="44.6315" lon="3.80232">
        <ele>1229.4</ele>
        <time>2021-08-09T15:10:06Z</time>
      </trkpt>
      <trkpt lat="44.63147" lon="3.80226">
        <ele>1229.3</ele>
        <time>2021-08-09T15:10:08Z</time>
      </trkpt>
      <trkpt lat="44.63144" lon="3.8022">
        <ele>1229.2</ele>
        <time>2021-08-09T15:10:10Z</time>
      </trkpt>
      <trkpt lat="44.63142" lon="3.80214">
        <ele>1228.9</ele>
        <time>2021-08-09T15:10:12Z</time>
      </trkpt>
      <trkpt lat="44.6314" lon="3.80208">
        <ele>1228.7</ele>
        <time>2021-08-09T15:10:14Z</time>
      </trkpt>
      <trkpt lat="44.63137" lon="3.80203">
        <ele>1228.7</ele>
        <time>2021-08-09T15:10:16Z</time>
      </trkpt>
      <trkpt lat="44.63134" lon="3.80197">
        <ele>1228.7</ele>
        <time>2021-08-09T15:10:18Z</time>
      </trkpt>
      <trkpt lat="44.63132" lon="3.80191">
        <ele>1228.7</ele>
        <time>2021-08-09T15:10:20Z</time>
      </trkpt>
      <trkpt lat="44.63129" lon="3.80186">
        <ele>1228.8</ele>
        <time>2021-08-09T15:10:22Z</time>
      </trkpt>
      <trkpt lat="44.63126" lon="3.80181">
        <ele>1228.9</ele>
        <time>2021-08-09T15:10:24Z</time>
      </trkpt>
      <trkpt lat="44.63124" lon="3.80176">
        <ele>1229.1</ele>
        <time>2021-08-09T15:10:26Z</time>
      </trkpt>
      <trkpt lat="44.63121" lon="3.80171">
        <ele>1229.2</ele>
        <time>2021-08-09T15:10:28Z</time>
      </trkpt>
      <trkpt lat="44.63119" lon="3.80166">
        <ele>1229.3</ele>
        <time>2021-08-09T15:10:30Z</time>
      </trkpt>
      <trkpt lat="44.63116" lon="3.80161">
        <ele>1229.3</ele>
        <time>2021-08-09T15:10:32Z</time>
      </trkpt>
      <trkpt lat="44.63113" lon="3.80157">
        <ele>1229.2</ele>
        <time>2021-08-09T15:10:34Z</time>
      </trkpt>
      <trkpt lat="44.6311" lon="3.80152">
        <ele>1229.1</ele>
        <time>2021-08-09T15:10:36Z</time>
      </trkpt>
      <trkpt lat="44.63107" lon="3.80148">
        <ele>1229.1</ele>
        <time>2021-08-09T15:10:38Z</time>
      </trkpt>
      <trkpt lat="44.63104" lon="3.80143">
        <ele>1228.9</ele>
        <time>2021-08-09T15:10:40Z</time>
      </trkpt>
      <trkpt lat="44.63101" lon="3.80138">
        <ele>1228.6</ele>
        <time>2021-08-09T15:10:42Z</time>
      </trkpt>
      <trkpt lat="44.63099" lon="3.80134">
        <ele>1228.4</ele>
        <time>2021-08-09T15:10:44Z</time>
      </trkpt>
      <trkpt lat="44.63095" lon="3.80129">
        <ele>1228.1</ele>
        <time>2021-08-09T15:10:46Z</time>
      </trkpt>
      <trkpt lat="44.63092" lon="3.80125">
        <ele>1228</ele>
        <time>2021-08-09T15:10:48Z</time>
      </trkpt>
      <trkpt lat="44.63088" lon="3.80121">
        <ele>1227.8</ele>
        <time>2021-08-09T15:10:50Z</time>
      </trkpt>
      <trkpt lat="44.63085" lon="3.80117">
        <ele>1227.6</ele>
        <time>2021-08-09T15:10:52Z</time>
      </trkpt>
      <trkpt lat="44.63081" lon="3.80114">
        <ele>1227.5</ele>
        <time>2021-08-09T15:10:54Z</time>
      </trkpt>
      <trkpt lat="44.63077" lon="3.80111">
        <ele>1227</ele>
        <time>2021-08-09T15:10:56Z</time>
      </trkpt>
      <trkpt lat="44.63073" lon="3.80109">
        <ele>1226.8</ele>
        <time>2021-08-09T15:10:58Z</time>
      </trkpt>
      <trkpt lat="44.63068" lon="3.80106">
        <ele>1226.6</ele>
        <time>2021-08-09T15:11:00Z</time>
      </trkpt>
      <trkpt lat="44.63065" lon="3.80105">
        <ele>1226.4</ele>
        <time>2021-08-09T15:11:02Z</time>
      </trkpt>
      <trkpt lat="44.63061" lon="3.80103">
        <ele>1226.2</ele>
        <time>2021-08-09T15:11:04Z</time>
      </trkpt>
      <trkpt lat="44.63057" lon="3.80101">
        <ele>1226.3</ele>
        <time>2021-08-09T15:11:06Z</time>
      </trkpt>
      <trkpt lat="44.63052" lon="3.801">
        <ele>1226.3</ele>
        <time>2021-08-09T15:11:08Z</time>
      </trkpt>
      <trkpt lat="44.63048" lon="3.80099">
        <ele>1226.4</ele>
        <time>2021-08-09T15:11:10Z</time>
      </trkpt>
      <trkpt lat="44.63043" lon="3.80099">
        <ele>1226.5</ele>
        <time>2021-08-09T15:11:12Z</time>
      </trkpt>
      <trkpt lat="44.63039" lon="3.80098">
        <ele>1226.7</ele>
        <time>2021-08-09T15:11:14Z</time>
      </trkpt>
      <trkpt lat="44.63035" lon="3.80097">
        <ele>1226.8</ele>
        <time>2021-08-09T15:11:16Z</time>
      </trkpt>
      <trkpt lat="44.6303" lon="3.80096">
        <ele>1226.9</ele>
        <time>2021-08-09T15:11:18Z</time>
      </trkpt>
      <trkpt lat="44.63026" lon="3.80096">
        <ele>1227.1</ele>
        <time>2021-08-09T15:11:20Z</time>
      </trkpt>
      <trkpt lat="44.63021" lon="3.80096">
        <ele>1227.4</ele>
        <time>2021-08-09T15:11:22Z</time>
      </trkpt>
      <trkpt lat="44.63017" lon="3.80095">
        <ele>1227.6</ele>
        <time>2021-08-09T15:11:24Z</time>
      </trkpt>
      <trkpt lat="44.63012" lon="3.80095">
        <ele>1227.9</ele>
        <time>2021-08-09T15:11:26Z</time>
      </trkpt>
      <trkpt lat="44.63008" lon="3.80095">
        <ele>1228.2</ele>
        <time>2021-08-09T15:11:28Z</time>
      </trkpt>
      <trkpt lat="44.63004" lon="3.80095">
        <ele>1228.5</ele>
        <time>2021-08-09T15:11:30Z</time>
      </trkpt>
      <trkpt lat="44.62999" lon="3.80095">
        <ele>1228.9</ele>
        <time>2021-08-09T15:11:32Z</time>
      </trkpt>
      <trkpt lat="44.62995" lon="3.80095">
        <ele>1229.5</ele>
        <time>2021-08-09T15:11:34Z</time>
      </trkpt>
      <trkpt lat="44.6299" lon="3.80095">
        <ele>1230.1</ele>
        <time>2021-08-09T15:11:36Z</time>
      </trkpt>
      <trkpt lat="44.62986" lon="3.80094">
        <ele>1230.6</ele>
        <time>2021-08-09T15:11:38Z</time>
      </trkpt>
      <trkpt lat="44.62982" lon="3.80093">
        <ele>1231</ele>
        <time>2021-08-09T15:11:40Z</time>
      </trkpt>
      <trkpt lat="44.62977" lon="3.80092">
        <ele>1231.4</ele>
        <time>2021-08-09T15:11:42Z</time>
      </trkpt>
      <trkpt lat="44.62973" lon="3.80091">
        <ele>1231.7</ele>
        <time>2021-08-09T15:11:44Z</time>
      </trkpt>
      <trkpt lat="44.62969" lon="3.80089">
        <ele>1232.2</ele>
        <time>2021-08-09T15:11:46Z</time>
      </trkpt>
      <trkpt lat="44.62964" lon="3.80088">
        <ele>1232.6</ele>
        <time>2021-08-09T15:11:48Z</time>
      </trkpt>
      <trkpt lat="44.6296" lon="3.80085">
        <ele>1232.7</ele>
        <time>2021-08-09T15:11:50Z</time>
      </trkpt>
      <trkpt lat="44.62956" lon="3.80083">
        <ele>1232.8</ele>
        <time>2021-08-09T15:11:52Z</time>
      </trkpt>
      <trkpt lat="44.62951" lon="3.80081">
        <ele>1233.2</ele>
        <time>2021-08-09T15:11:54Z</time>
      </trkpt>
      <trkpt lat="44.62946" lon="3.80077">
        <ele>1233.3</ele>
        <time>2021-08-09T15:11:56Z</time>
      </trkpt>
      <trkpt lat="44.62942" lon="3.80075">
        <ele>1233.4</ele>
        <time>2021-08-09T15:11:58Z</time>
      </trkpt>
      <trkpt lat="44.62938" lon="3.80072">
        <ele>1233.5</ele>
        <time>2021-08-09T15:12:00Z</time>
      </trkpt>
      <trkpt lat="44.62933" lon="3.80069">
        <ele>1233.7</ele>
        <time>2021-08-09T15:12:02Z</time>
      </trkpt>
      <trkpt lat="44.62929" lon="3.80066">
        <ele>1233.8</ele>
        <time>2021-08-09T15:12:04Z</time>
      </trkpt>
      <trkpt lat="44.62925" lon="3.80064">
        <ele>1233.8</ele>
        <time>2021-08-09T15:12:06Z</time>
      </trkpt>
      <trkpt lat="44.62921" lon="3.80061">
        <ele>1233.8</ele>
        <time>2021-08-09T15:12:08Z</time>
      </trkpt>
      <trkpt lat="44.62916" lon="3.80058">
        <ele>1234</ele>
        <time>2021-08-09T15:12:10Z</time>
      </trkpt>
      <trkpt lat="44.62912" lon="3.80057">
        <ele>1234.2</ele>
        <time>2021-08-09T15:12:12Z</time>
      </trkpt>
      <trkpt lat="44.62908" lon="3.80054">
        <ele>1234.4</ele>
        <time>2021-08-09T15:12:14Z</time>
      </trkpt>
      <trkpt lat="44.62902" lon="3.80052">
        <ele>1234.9</ele>
        <time>2021-08-09T15:12:16Z</time>
      </trkpt>
      <trkpt lat="44.62898" lon="3.8005">
        <ele>1235.1</ele>
        <time>2021-08-09T15:12:18Z</time>
      </trkpt>
      <trkpt lat="44.62893" lon="3.80048">
        <ele>1235.5</ele>
        <time>2021-08-09T15:12:20Z</time>
      </trkpt>
      <trkpt lat="44.62888" lon="3.80046">
        <ele>1235.9</ele>
        <time>2021-08-09T15:12:22Z</time>
      </trkpt>
      <trkpt lat="44.62883" lon="3.80044">
        <ele>1236.5</ele>
        <time>2021-08-09T15:12:24Z</time>
      </trkpt>
      <trkpt lat="44.62877" lon="3.80043">
        <ele>1237.1</ele>
        <time>2021-08-09T15:12:26Z</time>
      </trkpt>
      <trkpt lat="44.62873" lon="3.80041">
        <ele>1237.5</ele>
        <time>2021-08-09T15:12:28Z</time>
      </trkpt>
      <trkpt lat="44.62868" lon="3.80039">
        <ele>1238</ele>
        <time>2021-08-09T15:12:30Z</time>
      </trkpt>
      <trkpt lat="44.62864" lon="3.80037">
        <ele>1238.4</ele>
        <time>2021-08-09T15:12:32Z</time>
      </trkpt>
      <trkpt lat="44.62858" lon="3.80035">
        <ele>1238.9</ele>
        <time>2021-08-09T15:12:34Z</time>
      </trkpt>
      <trkpt lat="44.62854" lon="3.80032">
        <ele>1239.1</ele>
        <time>2021-08-09T15:12:36Z</time>
      </trkpt>
      <trkpt lat="44.62849" lon="3.80031">
        <ele>1239.7</ele>
        <time>2021-08-09T15:12:38Z</time>
      </trkpt>
      <trkpt lat="44.62844" lon="3.80028">
        <ele>1240.2</ele>
        <time>2021-08-09T15:12:40Z</time>
      </trkpt>
      <trkpt lat="44.62839" lon="3.80025">
        <ele>1240.7</ele>
        <time>2021-08-09T15:12:42Z</time>
      </trkpt>
      <trkpt lat="44.62833" lon="3.80022">
        <ele>1241.2</ele>
        <time>2021-08-09T15:12:44Z</time>
      </trkpt>
      <trkpt lat="44.62829" lon="3.8002">
        <ele>1241.4</ele>
        <time>2021-08-09T15:12:46Z</time>
      </trkpt>
      <trkpt lat="44.62824" lon="3.80018">
        <ele>1241.8</ele>
        <time>2021-08-09T15:12:48Z</time>
      </trkpt>
      <trkpt lat="44.62818" lon="3.80015">
        <ele>1242.1</ele>
        <time>2021-08-09T15:12:50Z</time>
      </trkpt>
      <trkpt lat="44.62814" lon="3.80013">
        <ele>1242.4</ele>
        <time>2021-08-09T15:12:52Z</time>
      </trkpt>
      <trkpt lat="44.62808" lon="3.8001">
        <ele>1242.7</ele>
        <time>2021-08-09T15:12:54Z</time>
      </trkpt>
      <trkpt lat="44.62803" lon="3.80007">
        <ele>1243</ele>
        <time>2021-08-09T15:12:56Z</time>
      </trkpt>
      <trkpt lat="44.62799" lon="3.80005">
        <ele>1243.2</ele>
        <time>2021-08-09T15:12:58Z</time>
      </trkpt>
      <trkpt lat="44.62794" lon="3.80003">
        <ele>1243.7</ele>
        <time>2021-08-09T15:13:00Z</time>
      </trkpt>
      <trkpt lat="44.62789" lon="3.80003">
        <ele>1244.2</ele>
        <time>2021-08-09T15:13:02Z</time>
      </trkpt>
      <trkpt lat="44.62785" lon="3.79999">
        <ele>1244.2</ele>
        <time>2021-08-09T15:13:04Z</time>
      </trkpt>
      <trkpt lat="44.6278" lon="3.79996">
        <ele>1244.2</ele>
        <time>2021-08-09T15:13:06Z</time>
      </trkpt>
      <trkpt lat="44.62775" lon="3.79993">
        <ele>1244.2</ele>
        <time>2021-08-09T15:13:08Z</time>
      </trkpt>
      <trkpt lat="44.62769" lon="3.79991">
        <ele>1244.4</ele>
        <time>2021-08-09T15:13:10Z</time>
      </trkpt>
      <trkpt lat="44.62764" lon="3.79988">
        <ele>1244.3</ele>
        <time>2021-08-09T15:13:12Z</time>
      </trkpt>
      <trkpt lat="44.62759" lon="3.79985">
        <ele>1244.2</ele>
        <time>2021-08-09T15:13:14Z</time>
      </trkpt>
      <trkpt lat="44.62755" lon="3.79984">
        <ele>1244.5</ele>
        <time>2021-08-09T15:13:16Z</time>
      </trkpt>
      <trkpt lat="44.6275" lon="3.79981">
        <ele>1244.5</ele>
        <time>2021-08-09T15:13:18Z</time>
      </trkpt>
      <trkpt lat="44.62745" lon="3.7998">
        <ele>1244.7</ele>
        <time>2021-08-09T15:13:20Z</time>
      </trkpt>
      <trkpt lat="44.6274" lon="3.79979">
        <ele>1244.7</ele>
        <time>2021-08-09T15:13:22Z</time>
      </trkpt>
      <trkpt lat="44.62734" lon="3.79977">
        <ele>1244.8</ele>
        <time>2021-08-09T15:13:24Z</time>
      </trkpt>
      <trkpt lat="44.62731" lon="3.79976">
        <ele>1244.8</ele>
        <time>2021-08-09T15:13:26Z</time>
      </trkpt>
      <trkpt lat="44.62726" lon="3.79976">
        <ele>1245</ele>
        <time>2021-08-09T15:13:28Z</time>
      </trkpt>
      <trkpt lat="44.62721" lon="3.79974">
        <ele>1245</ele>
        <time>2021-08-09T15:13:30Z</time>
      </trkpt>
      <trkpt lat="44.62715" lon="3.79974">
        <ele>1245.4</ele>
        <time>2021-08-09T15:13:32Z</time>
      </trkpt>
      <trkpt lat="44.62711" lon="3.79972">
        <ele>1245.3</ele>
        <time>2021-08-09T15:13:34Z</time>
      </trkpt>
      <trkpt lat="44.62705" lon="3.79971">
        <ele>1245.4</ele>
        <time>2021-08-09T15:13:36Z</time>
      </trkpt>
      <trkpt lat="44.627" lon="3.7997">
        <ele>1245.6</ele>
        <time>2021-08-09T15:13:38Z</time>
      </trkpt>
      <trkpt lat="44.62695" lon="3.79969">
        <ele>1245.9</ele>
        <time>2021-08-09T15:13:40Z</time>
      </trkpt>
      <trkpt lat="44.6269" lon="3.79969">
        <ele>1246.2</ele>
        <time>2021-08-09T15:13:42Z</time>
      </trkpt>
      <trkpt lat="44.62685" lon="3.79968">
        <ele>1246.4</ele>
        <time>2021-08-09T15:13:44Z</time>
      </trkpt>
      <trkpt lat="44.6268" lon="3.79968">
        <ele>1246.7</ele>
        <time>2021-08-09T15:13:46Z</time>
      </trkpt>
      <trkpt lat="44.62676" lon="3.79968">
        <ele>1247</ele>
        <time>2021-08-09T15:13:48Z</time>
      </trkpt>
      <trkpt lat="44.62671" lon="3.79967">
        <ele>1247.3</ele>
        <time>2021-08-09T15:13:50Z</time>
      </trkpt>
      <trkpt lat="44.62665" lon="3.79967">
        <ele>1247.7</ele>
        <time>2021-08-09T15:13:52Z</time>
      </trkpt>
      <trkpt lat="44.62661" lon="3.79967">
        <ele>1247.9</ele>
        <time>2021-08-09T15:13:54Z</time>
      </trkpt>
      <trkpt lat="44.62656" lon="3.79967">
        <ele>1248.3</ele>
        <time>2021-08-09T15:13:56Z</time>
      </trkpt>
      <trkpt lat="44.62651" lon="3.79967">
        <ele>1248.6</ele>
        <time>2021-08-09T15:13:58Z</time>
      </trkpt>
      <trkpt lat="44.62647" lon="3.79967">
        <ele>1248.8</ele>
        <time>2021-08-09T15:14:00Z</time>
      </trkpt>
      <trkpt lat="44.62643" lon="3.79966">
        <ele>1249</ele>
        <time>2021-08-09T15:14:02Z</time>
      </trkpt>
      <trkpt lat="44.62639" lon="3.79966">
        <ele>1249.3</ele>
        <time>2021-08-09T15:14:04Z</time>
      </trkpt>
      <trkpt lat="44.62633" lon="3.79965">
        <ele>1249.5</ele>
        <time>2021-08-09T15:14:06Z</time>
      </trkpt>
      <trkpt lat="44.62626" lon="3.79963">
        <ele>1249.7</ele>
        <time>2021-08-09T15:14:08Z</time>
      </trkpt>
      <trkpt lat="44.62621" lon="3.79962">
        <ele>1249.8</ele>
        <time>2021-08-09T15:14:10Z</time>
      </trkpt>
      <trkpt lat="44.62616" lon="3.79961">
        <ele>1250.1</ele>
        <time>2021-08-09T15:14:12Z</time>
      </trkpt>
      <trkpt lat="44.6261" lon="3.79959">
        <ele>1250.1</ele>
        <time>2021-08-09T15:14:14Z</time>
      </trkpt>
      <trkpt lat="44.62605" lon="3.79958">
        <ele>1250.2</ele>
        <time>2021-08-09T15:14:16Z</time>
      </trkpt>
      <trkpt lat="44.626" lon="3.79958">
        <ele>1250.6</ele>
        <time>2021-08-09T15:14:18Z</time>
      </trkpt>
      <trkpt lat="44.62596" lon="3.79957">
        <ele>1250.8</ele>
        <time>2021-08-09T15:14:20Z</time>
      </trkpt>
      <trkpt lat="44.6259" lon="3.79956">
        <ele>1251.1</ele>
        <time>2021-08-09T15:14:22Z</time>
      </trkpt>
      <trkpt lat="44.62585" lon="3.79957">
        <ele>1251.6</ele>
        <time>2021-08-09T15:14:24Z</time>
      </trkpt>
      <trkpt lat="44.6258" lon="3.79956">
        <ele>1251.9</ele>
        <time>2021-08-09T15:14:26Z</time>
      </trkpt>
      <trkpt lat="44.62574" lon="3.79957">
        <ele>1252.6</ele>
        <time>2021-08-09T15:14:28Z</time>
      </trkpt>
      <trkpt lat="44.6257" lon="3.79958">
        <ele>1253.1</ele>
        <time>2021-08-09T15:14:30Z</time>
      </trkpt>
      <trkpt lat="44.62565" lon="3.79957">
        <ele>1253.5</ele>
        <time>2021-08-09T15:14:32Z</time>
      </trkpt>
      <trkpt lat="44.62561" lon="3.79956">
        <ele>1253.7</ele>
        <time>2021-08-09T15:14:34Z</time>
      </trkpt>
      <trkpt lat="44.62556" lon="3.79957">
        <ele>1254.3</ele>
        <time>2021-08-09T15:14:36Z</time>
      </trkpt>
      <trkpt lat="44.62551" lon="3.79958">
        <ele>1254.8</ele>
        <time>2021-08-09T15:14:38Z</time>
      </trkpt>
      <trkpt lat="44.62545" lon="3.79957">
        <ele>1255.2</ele>
        <time>2021-08-09T15:14:40Z</time>
      </trkpt>
      <trkpt lat="44.6254" lon="3.79956">
        <ele>1255.6</ele>
        <time>2021-08-09T15:14:42Z</time>
      </trkpt>
      <trkpt lat="44.62534" lon="3.79954">
        <ele>1255.8</ele>
        <time>2021-08-09T15:14:44Z</time>
      </trkpt>
      <trkpt lat="44.62528" lon="3.79951">
        <ele>1255.9</ele>
        <time>2021-08-09T15:14:46Z</time>
      </trkpt>
      <trkpt lat="44.62522" lon="3.79947">
        <ele>1255.9</ele>
        <time>2021-08-09T15:14:48Z</time>
      </trkpt>
      <trkpt lat="44.62517" lon="3.79942">
        <ele>1255.7</ele>
        <time>2021-08-09T15:14:50Z</time>
      </trkpt>
      <trkpt lat="44.62512" lon="3.79937">
        <ele>1255.4</ele>
        <time>2021-08-09T15:14:52Z</time>
      </trkpt>
      <trkpt lat="44.62508" lon="3.79931">
        <ele>1255</ele>
        <time>2021-08-09T15:14:54Z</time>
      </trkpt>
      <trkpt lat="44.62504" lon="3.79925">
        <ele>1254.6</ele>
        <time>2021-08-09T15:14:56Z</time>
      </trkpt>
      <trkpt lat="44.625" lon="3.79919">
        <ele>1254.3</ele>
        <time>2021-08-09T15:14:58Z</time>
      </trkpt>
      <trkpt lat="44.62496" lon="3.79913">
        <ele>1254.2</ele>
        <time>2021-08-09T15:15:00Z</time>
      </trkpt>
      <trkpt lat="44.62493" lon="3.79907">
        <ele>1253.8</ele>
        <time>2021-08-09T15:15:02Z</time>
      </trkpt>
      <trkpt lat="44.6249" lon="3.799">
        <ele>1253.4</ele>
        <time>2021-08-09T15:15:04Z</time>
      </trkpt>
      <trkpt lat="44.62486" lon="3.79893">
        <ele>1253.1</ele>
        <time>2021-08-09T15:15:06Z</time>
      </trkpt>
      <trkpt lat="44.62483" lon="3.79887">
        <ele>1252.7</ele>
        <time>2021-08-09T15:15:08Z</time>
      </trkpt>
      <trkpt lat="44.6248" lon="3.79882">
        <ele>1252.7</ele>
        <time>2021-08-09T15:15:10Z</time>
      </trkpt>
      <trkpt lat="44.62477" lon="3.79876">
        <ele>1252.1</ele>
        <time>2021-08-09T15:15:12Z</time>
      </trkpt>
      <trkpt lat="44.62472" lon="3.79871">
        <ele>1252.1</ele>
        <time>2021-08-09T15:15:14Z</time>
      </trkpt>
      <trkpt lat="44.62469" lon="3.79866">
        <ele>1251.9</ele>
        <time>2021-08-09T15:15:16Z</time>
      </trkpt>
      <trkpt lat="44.62465" lon="3.79862">
        <ele>1252.2</ele>
        <time>2021-08-09T15:15:18Z</time>
      </trkpt>
      <trkpt lat="44.62461" lon="3.79859">
        <ele>1252.2</ele>
        <time>2021-08-09T15:15:20Z</time>
      </trkpt>
      <trkpt lat="44.62456" lon="3.79855">
        <ele>1252.4</ele>
        <time>2021-08-09T15:15:22Z</time>
      </trkpt>
      <trkpt lat="44.62452" lon="3.79854">
        <ele>1252.8</ele>
        <time>2021-08-09T15:15:24Z</time>
      </trkpt>
      <trkpt lat="44.62448" lon="3.79851">
        <ele>1253.1</ele>
        <time>2021-08-09T15:15:26Z</time>
      </trkpt>
      <trkpt lat="44.62444" lon="3.7985">
        <ele>1253.6</ele>
        <time>2021-08-09T15:15:28Z</time>
      </trkpt>
      <trkpt lat="44.6244" lon="3.79848">
        <ele>1254</ele>
        <time>2021-08-09T15:15:30Z</time>
      </trkpt>
      <trkpt lat="44.62436" lon="3.79844">
        <ele>1253.9</ele>
        <time>2021-08-09T15:15:32Z</time>
      </trkpt>
      <trkpt lat="44.62431" lon="3.79842">
        <ele>1254.3</ele>
        <time>2021-08-09T15:15:34Z</time>
      </trkpt>
      <trkpt lat="44.62426" lon="3.79841">
        <ele>1254.9</ele>
        <time>2021-08-09T15:15:36Z</time>
      </trkpt>
      <trkpt lat="44.62422" lon="3.79838">
        <ele>1255.1</ele>
        <time>2021-08-09T15:15:38Z</time>
      </trkpt>
      <trkpt lat="44.62417" lon="3.79835">
        <ele>1255.2</ele>
        <time>2021-08-09T15:15:40Z</time>
      </trkpt>
      <trkpt lat="44.62412" lon="3.79832">
        <ele>1254.9</ele>
        <time>2021-08-09T15:15:42Z</time>
      </trkpt>
      <trkpt lat="44.62406" lon="3.79831">
        <ele>1254.9</ele>
        <time>2021-08-09T15:15:44Z</time>
      </trkpt>
      <trkpt lat="44.62401" lon="3.79828">
        <ele>1254.3</ele>
        <time>2021-08-09T15:15:46Z</time>
      </trkpt>
      <trkpt lat="44.62395" lon="3.79826">
        <ele>1254.1</ele>
        <time>2021-08-09T15:15:48Z</time>
      </trkpt>
      <trkpt lat="44.6239" lon="3.79823">
        <ele>1253.8</ele>
        <time>2021-08-09T15:15:50Z</time>
      </trkpt>
      <trkpt lat="44.62384" lon="3.79821">
        <ele>1253.5</ele>
        <time>2021-08-09T15:15:52Z</time>
      </trkpt>
      <trkpt lat="44.62379" lon="3.7982">
        <ele>1253.5</ele>
        <time>2021-08-09T15:15:54Z</time>
      </trkpt>
      <trkpt lat="44.62374" lon="3.79818">
        <ele>1253.3</ele>
        <time>2021-08-09T15:15:56Z</time>
      </trkpt>
      <trkpt lat="44.6237" lon="3.79817">
        <ele>1253.4</ele>
        <time>2021-08-09T15:15:58Z</time>
      </trkpt>
      <trkpt lat="44.62364" lon="3.79817">
        <ele>1253.6</ele>
        <time>2021-08-09T15:16:00Z</time>
      </trkpt>
      <trkpt lat="44.62359" lon="3.79815">
        <ele>1253.6</ele>
        <time>2021-08-09T15:16:02Z</time>
      </trkpt>
      <trkpt lat="44.62354" lon="3.79814">
        <ele>1253.6</ele>
        <time>2021-08-09T15:16:04Z</time>
      </trkpt>
      <trkpt lat="44.62349" lon="3.79814">
        <ele>1253.9</ele>
        <time>2021-08-09T15:16:06Z</time>
      </trkpt>
      <trkpt lat="44.62343" lon="3.79814">
        <ele>1254.4</ele>
        <time>2021-08-09T15:16:08Z</time>
      </trkpt>
      <trkpt lat="44.62338" lon="3.79813">
        <ele>1254.3</ele>
        <time>2021-08-09T15:16:10Z</time>
      </trkpt>
      <trkpt lat="44.62331" lon="3.79812">
        <ele>1254.6</ele>
        <time>2021-08-09T15:16:12Z</time>
      </trkpt>
      <trkpt lat="44.62323" lon="3.7981">
        <ele>1255.1</ele>
        <time>2021-08-09T15:16:14Z</time>
      </trkpt>
      <trkpt lat="44.62317" lon="3.79806">
        <ele>1254.9</ele>
        <time>2021-08-09T15:16:16Z</time>
      </trkpt>
      <trkpt lat="44.62312" lon="3.79803">
        <ele>1254.9</ele>
        <time>2021-08-09T15:16:18Z</time>
      </trkpt>
      <trkpt lat="44.62307" lon="3.798">
        <ele>1254.9</ele>
        <time>2021-08-09T15:16:20Z</time>
      </trkpt>
      <trkpt lat="44.62301" lon="3.79797">
        <ele>1255</ele>
        <time>2021-08-09T15:16:22Z</time>
      </trkpt>
      <trkpt lat="44.62295" lon="3.79794">
        <ele>1255.2</ele>
        <time>2021-08-09T15:16:24Z</time>
      </trkpt>
      <trkpt lat="44.62288" lon="3.79793">
        <ele>1255.9</ele>
        <time>2021-08-09T15:16:26Z</time>
      </trkpt>
      <trkpt lat="44.62282" lon="3.79792">
        <ele>1256.6</ele>
        <time>2021-08-09T15:16:28Z</time>
      </trkpt>
      <trkpt lat="44.62276" lon="3.79794">
        <ele>1257.8</ele>
        <time>2021-08-09T15:16:30Z</time>
      </trkpt>
      <trkpt lat="44.62269" lon="3.79794">
        <ele>1258.9</ele>
        <time>2021-08-09T15:16:32Z</time>
      </trkpt>
      <trkpt lat="44.62262" lon="3.79794">
        <ele>1259.9</ele>
        <time>2021-08-09T15:16:34Z</time>
      </trkpt>
      <trkpt lat="44.62255" lon="3.79792">
        <ele>1260.3</ele>
        <time>2021-08-09T15:16:36Z</time>
      </trkpt>
      <trkpt lat="44.62248" lon="3.79785">
        <ele>1259.9</ele>
        <time>2021-08-09T15:16:38Z</time>
      </trkpt>
      <trkpt lat="44.62243" lon="3.79777">
        <ele>1259.6</ele>
        <time>2021-08-09T15:16:40Z</time>
      </trkpt>
      <trkpt lat="44.62237" lon="3.79769">
        <ele>1259.1</ele>
        <time>2021-08-09T15:16:42Z</time>
      </trkpt>
      <trkpt lat="44.62234" lon="3.7976">
        <ele>1258</ele>
        <time>2021-08-09T15:16:44Z</time>
      </trkpt>
      <trkpt lat="44.62229" lon="3.79751">
        <ele>1257.5</ele>
        <time>2021-08-09T15:16:46Z</time>
      </trkpt>
      <trkpt lat="44.62223" lon="3.79743">
        <ele>1257.3</ele>
        <time>2021-08-09T15:16:48Z</time>
      </trkpt>
      <trkpt lat="44.62218" lon="3.79735">
        <ele>1256.8</ele>
        <time>2021-08-09T15:16:50Z</time>
      </trkpt>
      <trkpt lat="44.62212" lon="3.7973">
        <ele>1257</ele>
        <time>2021-08-09T15:16:52Z</time>
      </trkpt>
      <trkpt lat="44.62207" lon="3.79723">
        <ele>1256.7</ele>
        <time>2021-08-09T15:16:54Z</time>
      </trkpt>
      <trkpt lat="44.62201" lon="3.79718">
        <ele>1256.8</ele>
        <time>2021-08-09T15:16:56Z</time>
      </trkpt>
      <trkpt lat="44.62195" lon="3.79712">
        <ele>1256.9</ele>
        <time>2021-08-09T15:16:58Z</time>
      </trkpt>
      <trkpt lat="44.62189" lon="3.79707">
        <ele>1256.9</ele>
        <time>2021-08-09T15:17:00Z</time>
      </trkpt>
      <trkpt lat="44.62183" lon="3.79702">
        <ele>1256.9</ele>
        <time>2021-08-09T15:17:02Z</time>
      </trkpt>
      <trkpt lat="44.62177" lon="3.79699">
        <ele>1257.5</ele>
        <time>2021-08-09T15:17:04Z</time>
      </trkpt>
      <trkpt lat="44.62172" lon="3.79695">
        <ele>1257.6</ele>
        <time>2021-08-09T15:17:06Z</time>
      </trkpt>
      <trkpt lat="44.62165" lon="3.79692">
        <ele>1258</ele>
        <time>2021-08-09T15:17:08Z</time>
      </trkpt>
      <trkpt lat="44.6216" lon="3.79687">
        <ele>1257.2</ele>
        <time>2021-08-09T15:17:10Z</time>
      </trkpt>
      <trkpt lat="44.62154" lon="3.79681">
        <ele>1256.1</ele>
        <time>2021-08-09T15:17:12Z</time>
      </trkpt>
      <trkpt lat="44.62148" lon="3.79677">
        <ele>1255.7</ele>
        <time>2021-08-09T15:17:14Z</time>
      </trkpt>
      <trkpt lat="44.62143" lon="3.79673">
        <ele>1255.2</ele>
        <time>2021-08-09T15:17:16Z</time>
      </trkpt>
      <trkpt lat="44.62137" lon="3.79668">
        <ele>1254.5</ele>
        <time>2021-08-09T15:17:18Z</time>
      </trkpt>
      <trkpt lat="44.62132" lon="3.79664">
        <ele>1254</ele>
        <time>2021-08-09T15:17:20Z</time>
      </trkpt>
      <trkpt lat="44.62126" lon="3.79661">
        <ele>1253.9</ele>
        <time>2021-08-09T15:17:22Z</time>
      </trkpt>
      <trkpt lat="44.62121" lon="3.79655">
        <ele>1253.2</ele>
        <time>2021-08-09T15:17:24Z</time>
      </trkpt>
      <trkpt lat="44.62116" lon="3.79652">
        <ele>1253</ele>
        <time>2021-08-09T15:17:26Z</time>
      </trkpt>
      <trkpt lat="44.6211" lon="3.79649">
        <ele>1252.9</ele>
        <time>2021-08-09T15:17:28Z</time>
      </trkpt>
      <trkpt lat="44.62104" lon="3.79646">
        <ele>1252.9</ele>
        <time>2021-08-09T15:17:30Z</time>
      </trkpt>
      <trkpt lat="44.62099" lon="3.79644">
        <ele>1252.9</ele>
        <time>2021-08-09T15:17:32Z</time>
      </trkpt>
      <trkpt lat="44.62092" lon="3.79641">
        <ele>1252.9</ele>
        <time>2021-08-09T15:17:34Z</time>
      </trkpt>
      <trkpt lat="44.62086" lon="3.79639">
        <ele>1253.1</ele>
        <time>2021-08-09T15:17:36Z</time>
      </trkpt>
      <trkpt lat="44.62079" lon="3.79637">
        <ele>1253.2</ele>
        <time>2021-08-09T15:17:38Z</time>
      </trkpt>
      <trkpt lat="44.62073" lon="3.79634">
        <ele>1253.4</ele>
        <time>2021-08-09T15:17:40Z</time>
      </trkpt>
      <trkpt lat="44.62067" lon="3.79632">
        <ele>1253.4</ele>
        <time>2021-08-09T15:17:42Z</time>
      </trkpt>
      <trkpt lat="44.62059" lon="3.7963">
        <ele>1254</ele>
        <time>2021-08-09T15:17:44Z</time>
      </trkpt>
      <trkpt lat="44.62053" lon="3.79628">
        <ele>1254.3</ele>
        <time>2021-08-09T15:17:46Z</time>
      </trkpt>
      <trkpt lat="44.62046" lon="3.79626">
        <ele>1254.5</ele>
        <time>2021-08-09T15:17:48Z</time>
      </trkpt>
      <trkpt lat="44.6204" lon="3.79624">
        <ele>1255</ele>
        <time>2021-08-09T15:17:50Z</time>
      </trkpt>
      <trkpt lat="44.62033" lon="3.79623">
        <ele>1255.6</ele>
        <time>2021-08-09T15:17:52Z</time>
      </trkpt>
      <trkpt lat="44.62027" lon="3.79621">
        <ele>1256</ele>
        <time>2021-08-09T15:17:54Z</time>
      </trkpt>
      <trkpt lat="44.6202" lon="3.79621">
        <ele>1256.8</ele>
        <time>2021-08-09T15:17:56Z</time>
      </trkpt>
      <trkpt lat="44.62013" lon="3.79618">
        <ele>1257.2</ele>
        <time>2021-08-09T15:17:58Z</time>
      </trkpt>
      <trkpt lat="44.62007" lon="3.79618">
        <ele>1257.9</ele>
        <time>2021-08-09T15:18:00Z</time>
      </trkpt>
      <trkpt lat="44.62" lon="3.79615">
        <ele>1258.2</ele>
        <time>2021-08-09T15:18:02Z</time>
      </trkpt>
      <trkpt lat="44.61994" lon="3.79614">
        <ele>1259.2</ele>
        <time>2021-08-09T15:18:04Z</time>
      </trkpt>
      <trkpt lat="44.61987" lon="3.79612">
        <ele>1260.7</ele>
        <time>2021-08-09T15:18:06Z</time>
      </trkpt>
      <trkpt lat="44.61981" lon="3.7961">
        <ele>1261.5</ele>
        <time>2021-08-09T15:18:08Z</time>
      </trkpt>
      <trkpt lat="44.61975" lon="3.79609">
        <ele>1262.7</ele>
        <time>2021-08-09T15:18:10Z</time>
      </trkpt>
      <trkpt lat="44.61968" lon="3.79606">
        <ele>1263.5</ele>
        <time>2021-08-09T15:18:12Z</time>
      </trkpt>
      <trkpt lat="44.61962" lon="3.79601">
        <ele>1264</ele>
        <time>2021-08-09T15:18:14Z</time>
      </trkpt>
      <trkpt lat="44.61957" lon="3.79594">
        <ele>1264.1</ele>
        <time>2021-08-09T15:18:16Z</time>
      </trkpt>
      <trkpt lat="44.61952" lon="3.79587">
        <ele>1263.8</ele>
        <time>2021-08-09T15:18:18Z</time>
      </trkpt>
      <trkpt lat="44.61947" lon="3.79579">
        <ele>1263.4</ele>
        <time>2021-08-09T15:18:20Z</time>
      </trkpt>
      <trkpt lat="44.61943" lon="3.79571">
        <ele>1262.6</ele>
        <time>2021-08-09T15:18:22Z</time>
      </trkpt>
      <trkpt lat="44.61938" lon="3.79564">
        <ele>1262.3</ele>
        <time>2021-08-09T15:18:24Z</time>
      </trkpt>
      <trkpt lat="44.61934" lon="3.79558">
        <ele>1262</ele>
        <time>2021-08-09T15:18:26Z</time>
      </trkpt>
      <trkpt lat="44.61929" lon="3.79552">
        <ele>1262</ele>
        <time>2021-08-09T15:18:28Z</time>
      </trkpt>
      <trkpt lat="44.61924" lon="3.79543">
        <ele>1261.1</ele>
        <time>2021-08-09T15:18:30Z</time>
      </trkpt>
      <trkpt lat="44.6192" lon="3.79537">
        <ele>1260.5</ele>
        <time>2021-08-09T15:18:32Z</time>
      </trkpt>
      <trkpt lat="44.61916" lon="3.79529">
        <ele>1259.9</ele>
        <time>2021-08-09T15:18:34Z</time>
      </trkpt>
      <trkpt lat="44.6191" lon="3.79523">
        <ele>1260.2</ele>
        <time>2021-08-09T15:18:36Z</time>
      </trkpt>
      <trkpt lat="44.61903" lon="3.79518">
        <ele>1260.8</ele>
        <time>2021-08-09T15:18:38Z</time>
      </trkpt>
      <trkpt lat="44.61899" lon="3.79512">
        <ele>1260.5</ele>
        <time>2021-08-09T15:18:40Z</time>
      </trkpt>
      <trkpt lat="44.61893" lon="3.79507">
        <ele>1261.3</ele>
        <time>2021-08-09T15:18:42Z</time>
      </trkpt>
      <trkpt lat="44.61888" lon="3.79502">
        <ele>1261.7</ele>
        <time>2021-08-09T15:18:44Z</time>
      </trkpt>
      <trkpt lat="44.61883" lon="3.79495">
        <ele>1261.6</ele>
        <time>2021-08-09T15:18:46Z</time>
      </trkpt>
      <trkpt lat="44.61879" lon="3.79491">
        <ele>1262.1</ele>
        <time>2021-08-09T15:18:48Z</time>
      </trkpt>
      <trkpt lat="44.61876" lon="3.79486">
        <ele>1261.9</ele>
        <time>2021-08-09T15:18:50Z</time>
      </trkpt>
      <trkpt lat="44.61874" lon="3.79484">
        <ele>1262</ele>
        <time>2021-08-09T15:18:52Z</time>
      </trkpt>
      <trkpt lat="44.61873" lon="3.79482">
        <ele>1261.8</ele>
        <time>2021-08-09T15:18:54Z</time>
      </trkpt>
      <trkpt lat="44.61874" lon="3.79483">
        <ele>1261.6</ele>
        <time>2021-08-09T15:18:56Z</time>
      </trkpt>
      <trkpt lat="44.61874" lon="3.79482">
        <ele>1261.4</ele>
        <time>2021-08-09T15:18:58Z</time>
      </trkpt>
      <trkpt lat="44.61874" lon="3.79481">
        <ele>1261.2</ele>
        <time>2021-08-09T15:19:00Z</time>
      </trkpt>
      <trkpt lat="44.61874" lon="3.79481">
        <ele>1261.2</ele>
        <time>2021-08-09T15:19:02Z</time>
      </trkpt>
      <trkpt lat="44.6186" lon="3.79472">
        <ele>1263.1</ele>
        <time>2021-08-09T15:19:58Z</time>
      </trkpt>
      <trkpt lat="44.61856" lon="3.79469">
        <ele>1263.3</ele>
        <time>2021-08-09T15:20:00Z</time>
      </trkpt>
      <trkpt lat="44.61852" lon="3.79465">
        <ele>1263.5</ele>
        <time>2021-08-09T15:20:02Z</time>
      </trkpt>
      <trkpt lat="44.61846" lon="3.79462">
        <ele>1264.3</ele>
        <time>2021-08-09T15:20:04Z</time>
      </trkpt>
      <trkpt lat="44.61839" lon="3.79459">
        <ele>1265.2</ele>
        <time>2021-08-09T15:20:06Z</time>
      </trkpt>
      <trkpt lat="44.61833" lon="3.79454">
        <ele>1265.6</ele>
        <time>2021-08-09T15:20:08Z</time>
      </trkpt>
      <trkpt lat="44.61828" lon="3.79449">
        <ele>1264.7</ele>
        <time>2021-08-09T15:20:10Z</time>
      </trkpt>
      <trkpt lat="44.61822" lon="3.79445">
        <ele>1264.5</ele>
        <time>2021-08-09T15:20:12Z</time>
      </trkpt>
      <trkpt lat="44.61815" lon="3.7944">
        <ele>1263.9</ele>
        <time>2021-08-09T15:20:14Z</time>
      </trkpt>
      <trkpt lat="44.6181" lon="3.79435">
        <ele>1263.3</ele>
        <time>2021-08-09T15:20:16Z</time>
      </trkpt>
      <trkpt lat="44.61803" lon="3.7943">
        <ele>1263</ele>
        <time>2021-08-09T15:20:18Z</time>
      </trkpt>
      <trkpt lat="44.61798" lon="3.79424">
        <ele>1262.3</ele>
        <time>2021-08-09T15:20:20Z</time>
      </trkpt>
      <trkpt lat="44.61791" lon="3.79418">
        <ele>1261.8</ele>
        <time>2021-08-09T15:20:22Z</time>
      </trkpt>
      <trkpt lat="44.61785" lon="3.79413">
        <ele>1261.5</ele>
        <time>2021-08-09T15:20:24Z</time>
      </trkpt>
      <trkpt lat="44.61778" lon="3.79408">
        <ele>1261.3</ele>
        <time>2021-08-09T15:20:26Z</time>
      </trkpt>
      <trkpt lat="44.61773" lon="3.79402">
        <ele>1260.7</ele>
        <time>2021-08-09T15:20:28Z</time>
      </trkpt>
      <trkpt lat="44.61766" lon="3.79398">
        <ele>1260.9</ele>
        <time>2021-08-09T15:20:30Z</time>
      </trkpt>
      <trkpt lat="44.6176" lon="3.79393">
        <ele>1260.5</ele>
        <time>2021-08-09T15:20:32Z</time>
      </trkpt>
      <trkpt lat="44.61753" lon="3.7939">
        <ele>1260.6</ele>
        <time>2021-08-09T15:20:34Z</time>
      </trkpt>
      <trkpt lat="44.61747" lon="3.79387">
        <ele>1260.1</ele>
        <time>2021-08-09T15:20:36Z</time>
      </trkpt>
      <trkpt lat="44.61741" lon="3.79386">
        <ele>1259.5</ele>
        <time>2021-08-09T15:20:38Z</time>
      </trkpt>
      <trkpt lat="44.61734" lon="3.79385">
        <ele>1258.9</ele>
        <time>2021-08-09T15:20:40Z</time>
      </trkpt>
      <trkpt lat="44.61728" lon="3.79384">
        <ele>1258.2</ele>
        <time>2021-08-09T15:20:42Z</time>
      </trkpt>
      <trkpt lat="44.61721" lon="3.79384">
        <ele>1257.9</ele>
        <time>2021-08-09T15:20:44Z</time>
      </trkpt>
      <trkpt lat="44.61715" lon="3.79383">
        <ele>1257.3</ele>
        <time>2021-08-09T15:20:46Z</time>
      </trkpt>
      <trkpt lat="44.61709" lon="3.79384">
        <ele>1257.2</ele>
        <time>2021-08-09T15:20:48Z</time>
      </trkpt>
      <trkpt lat="44.61703" lon="3.79386">
        <ele>1257.2</ele>
        <time>2021-08-09T15:20:50Z</time>
      </trkpt>
      <trkpt lat="44.61698" lon="3.7939">
        <ele>1257.5</ele>
        <time>2021-08-09T15:20:52Z</time>
      </trkpt>
      <trkpt lat="44.61692" lon="3.79392">
        <ele>1257.5</ele>
        <time>2021-08-09T15:20:54Z</time>
      </trkpt>
      <trkpt lat="44.61687" lon="3.79397">
        <ele>1257.9</ele>
        <time>2021-08-09T15:20:56Z</time>
      </trkpt>
      <trkpt lat="44.61684" lon="3.79399">
        <ele>1257.9</ele>
        <time>2021-08-09T15:20:58Z</time>
      </trkpt>
      <trkpt lat="44.61684" lon="3.79399">
        <ele>1258</ele>
        <time>2021-08-09T15:21:00Z</time>
      </trkpt>
      <trkpt lat="44.61684" lon="3.794">
        <ele>1258.1</ele>
        <time>2021-08-09T15:21:02Z</time>
      </trkpt>
      <trkpt lat="44.61683" lon="3.794">
        <ele>1258.1</ele>
        <time>2021-08-09T15:21:04Z</time>
      </trkpt>
      <trkpt lat="44.61684" lon="3.79401">
        <ele>1258.2</ele>
        <time>2021-08-09T15:21:06Z</time>
      </trkpt>
      <trkpt lat="44.61684" lon="3.79401">
        <ele>1258.3</ele>
        <time>2021-08-09T15:21:08Z</time>
      </trkpt>
      <trkpt lat="44.61673" lon="3.79408">
        <ele>1258.4</ele>
        <time>2021-08-09T15:22:28Z</time>
      </trkpt>
      <trkpt lat="44.61668" lon="3.79412">
        <ele>1258.5</ele>
        <time>2021-08-09T15:22:30Z</time>
      </trkpt>
      <trkpt lat="44.61662" lon="3.79415">
        <ele>1258.6</ele>
        <time>2021-08-09T15:22:32Z</time>
      </trkpt>
      <trkpt lat="44.61656" lon="3.79417">
        <ele>1258.6</ele>
        <time>2021-08-09T15:22:34Z</time>
      </trkpt>
      <trkpt lat="44.6165" lon="3.7942">
        <ele>1258.7</ele>
        <time>2021-08-09T15:22:36Z</time>
      </trkpt>
      <trkpt lat="44.61644" lon="3.79422">
        <ele>1258.6</ele>
        <time>2021-08-09T15:22:38Z</time>
      </trkpt>
      <trkpt lat="44.61637" lon="3.79424">
        <ele>1258.6</ele>
        <time>2021-08-09T15:22:40Z</time>
      </trkpt>
      <trkpt lat="44.6163" lon="3.79426">
        <ele>1258.6</ele>
        <time>2021-08-09T15:22:42Z</time>
      </trkpt>
      <trkpt lat="44.61623" lon="3.79427">
        <ele>1258.5</ele>
        <time>2021-08-09T15:22:44Z</time>
      </trkpt>
      <trkpt lat="44.61617" lon="3.79428">
        <ele>1258.4</ele>
        <time>2021-08-09T15:22:46Z</time>
      </trkpt>
      <trkpt lat="44.6161" lon="3.79429">
        <ele>1258.2</ele>
        <time>2021-08-09T15:22:48Z</time>
      </trkpt>
      <trkpt lat="44.61603" lon="3.79433">
        <ele>1258.4</ele>
        <time>2021-08-09T15:22:50Z</time>
      </trkpt>
      <trkpt lat="44.61597" lon="3.79435">
        <ele>1258.4</ele>
        <time>2021-08-09T15:22:52Z</time>
      </trkpt>
      <trkpt lat="44.61591" lon="3.79436">
        <ele>1258.4</ele>
        <time>2021-08-09T15:22:54Z</time>
      </trkpt>
      <trkpt lat="44.61584" lon="3.79439">
        <ele>1258.6</ele>
        <time>2021-08-09T15:22:56Z</time>
      </trkpt>
      <trkpt lat="44.61578" lon="3.79442">
        <ele>1259.1</ele>
        <time>2021-08-09T15:22:58Z</time>
      </trkpt>
      <trkpt lat="44.61571" lon="3.79445">
        <ele>1259.7</ele>
        <time>2021-08-09T15:23:00Z</time>
      </trkpt>
      <trkpt lat="44.61566" lon="3.79449">
        <ele>1260.4</ele>
        <time>2021-08-09T15:23:02Z</time>
      </trkpt>
      <trkpt lat="44.61559" lon="3.79451">
        <ele>1260.9</ele>
        <time>2021-08-09T15:23:04Z</time>
      </trkpt>
      <trkpt lat="44.61551" lon="3.79454">
        <ele>1261.6</ele>
        <time>2021-08-09T15:23:06Z</time>
      </trkpt>
      <trkpt lat="44.61544" lon="3.79454">
        <ele>1261.7</ele>
        <time>2021-08-09T15:23:08Z</time>
      </trkpt>
      <trkpt lat="44.61536" lon="3.79454">
        <ele>1261.9</ele>
        <time>2021-08-09T15:23:10Z</time>
      </trkpt>
      <trkpt lat="44.6153" lon="3.79453">
        <ele>1261.8</ele>
        <time>2021-08-09T15:23:12Z</time>
      </trkpt>
      <trkpt lat="44.61523" lon="3.79452">
        <ele>1261.8</ele>
        <time>2021-08-09T15:23:14Z</time>
      </trkpt>
      <trkpt lat="44.61516" lon="3.79452">
        <ele>1261.9</ele>
        <time>2021-08-09T15:23:16Z</time>
      </trkpt>
      <trkpt lat="44.61509" lon="3.79451">
        <ele>1262</ele>
        <time>2021-08-09T15:23:18Z</time>
      </trkpt>
      <trkpt lat="44.61501" lon="3.79449">
        <ele>1261.8</ele>
        <time>2021-08-09T15:23:20Z</time>
      </trkpt>
      <trkpt lat="44.61493" lon="3.79446">
        <ele>1261.7</ele>
        <time>2021-08-09T15:23:22Z</time>
      </trkpt>
      <trkpt lat="44.61487" lon="3.79436">
        <ele>1260.3</ele>
        <time>2021-08-09T15:23:24Z</time>
      </trkpt>
      <trkpt lat="44.61485" lon="3.79423">
        <ele>1257.9</ele>
        <time>2021-08-09T15:23:26Z</time>
      </trkpt>
      <trkpt lat="44.61488" lon="3.79409">
        <ele>1256.7</ele>
        <time>2021-08-09T15:23:28Z</time>
      </trkpt>
      <trkpt lat="44.61494" lon="3.79398">
        <ele>1256.3</ele>
        <time>2021-08-09T15:23:30Z</time>
      </trkpt>
      <trkpt lat="44.61504" lon="3.79392">
        <ele>1255.8</ele>
        <time>2021-08-09T15:23:32Z</time>
      </trkpt>
      <trkpt lat="44.61513" lon="3.79387">
        <ele>1255.3</ele>
        <time>2021-08-09T15:23:34Z</time>
      </trkpt>
      <trkpt lat="44.61522" lon="3.7938">
        <ele>1254.5</ele>
        <time>2021-08-09T15:23:36Z</time>
      </trkpt>
      <trkpt lat="44.6153" lon="3.79369">
        <ele>1253.6</ele>
        <time>2021-08-09T15:23:38Z</time>
      </trkpt>
      <trkpt lat="44.61537" lon="3.79359">
        <ele>1252.5</ele>
        <time>2021-08-09T15:23:40Z</time>
      </trkpt>
      <trkpt lat="44.61541" lon="3.79347">
        <ele>1251.4</ele>
        <time>2021-08-09T15:23:42Z</time>
      </trkpt>
      <trkpt lat="44.61541" lon="3.79334">
        <ele>1250.6</ele>
        <time>2021-08-09T15:23:44Z</time>
      </trkpt>
      <trkpt lat="44.61538" lon="3.79323">
        <ele>1250.8</ele>
        <time>2021-08-09T15:23:46Z</time>
      </trkpt>
      <trkpt lat="44.61533" lon="3.79314">
        <ele>1251.3</ele>
        <time>2021-08-09T15:23:48Z</time>
      </trkpt>
      <trkpt lat="44.61526" lon="3.79308">
        <ele>1251.9</ele>
        <time>2021-08-09T15:23:50Z</time>
      </trkpt>
      <trkpt lat="44.6152" lon="3.79304">
        <ele>1252.4</ele>
        <time>2021-08-09T15:23:52Z</time>
      </trkpt>
      <trkpt lat="44.61514" lon="3.79301">
        <ele>1252.8</ele>
        <time>2021-08-09T15:23:54Z</time>
      </trkpt>
      <trkpt lat="44.61508" lon="3.79298">
        <ele>1253.2</ele>
        <time>2021-08-09T15:23:56Z</time>
      </trkpt>
      <trkpt lat="44.61503" lon="3.79296">
        <ele>1253.5</ele>
        <time>2021-08-09T15:23:58Z</time>
      </trkpt>
      <trkpt lat="44.61498" lon="3.79293">
        <ele>1253.8</ele>
        <time>2021-08-09T15:24:00Z</time>
      </trkpt>
      <trkpt lat="44.61493" lon="3.7929">
        <ele>1254.1</ele>
        <time>2021-08-09T15:24:02Z</time>
      </trkpt>
      <trkpt lat="44.61488" lon="3.79289">
        <ele>1254.4</ele>
        <time>2021-08-09T15:24:04Z</time>
      </trkpt>
      <trkpt lat="44.61483" lon="3.79287">
        <ele>1254.7</ele>
        <time>2021-08-09T15:24:06Z</time>
      </trkpt>
      <trkpt lat="44.61479" lon="3.79286">
        <ele>1255</ele>
        <time>2021-08-09T15:24:08Z</time>
      </trkpt>
      <trkpt lat="44.61475" lon="3.79283">
        <ele>1255.2</ele>
        <time>2021-08-09T15:24:10Z</time>
      </trkpt>
      <trkpt lat="44.61471" lon="3.79281">
        <ele>1255.4</ele>
        <time>2021-08-09T15:24:12Z</time>
      </trkpt>
      <trkpt lat="44.61466" lon="3.79279">
        <ele>1255.7</ele>
        <time>2021-08-09T15:24:14Z</time>
      </trkpt>
      <trkpt lat="44.61461" lon="3.79276">
        <ele>1256</ele>
        <time>2021-08-09T15:24:16Z</time>
      </trkpt>
      <trkpt lat="44.61456" lon="3.79274">
        <ele>1256.3</ele>
        <time>2021-08-09T15:24:18Z</time>
      </trkpt>
      <trkpt lat="44.61451" lon="3.79272">
        <ele>1256.6</ele>
        <time>2021-08-09T15:24:20Z</time>
      </trkpt>
      <trkpt lat="44.61446" lon="3.7927">
        <ele>1256.9</ele>
        <time>2021-08-09T15:24:22Z</time>
      </trkpt>
      <trkpt lat="44.61441" lon="3.79268">
        <ele>1257.2</ele>
        <time>2021-08-09T15:24:24Z</time>
      </trkpt>
      <trkpt lat="44.61436" lon="3.79266">
        <ele>1257.5</ele>
        <time>2021-08-09T15:24:26Z</time>
      </trkpt>
      <trkpt lat="44.61431" lon="3.79263">
        <ele>1257.7</ele>
        <time>2021-08-09T15:24:28Z</time>
      </trkpt>
      <trkpt lat="44.61426" lon="3.79261">
        <ele>1258</ele>
        <time>2021-08-09T15:24:30Z</time>
      </trkpt>
      <trkpt lat="44.61421" lon="3.79258">
        <ele>1258.2</ele>
        <time>2021-08-09T15:24:32Z</time>
      </trkpt>
      <trkpt lat="44.61417" lon="3.79255">
        <ele>1258.3</ele>
        <time>2021-08-09T15:24:34Z</time>
      </trkpt>
      <trkpt lat="44.61412" lon="3.79251">
        <ele>1258.8</ele>
        <time>2021-08-09T15:24:36Z</time>
      </trkpt>
      <trkpt lat="44.61408" lon="3.79248">
        <ele>1259.3</ele>
        <time>2021-08-09T15:24:38Z</time>
      </trkpt>
      <trkpt lat="44.61404" lon="3.79244">
        <ele>1259.8</ele>
        <time>2021-08-09T15:24:40Z</time>
      </trkpt>
      <trkpt lat="44.61399" lon="3.7924">
        <ele>1260.3</ele>
        <time>2021-08-09T15:24:42Z</time>
      </trkpt>
      <trkpt lat="44.61395" lon="3.79236">
        <ele>1260.7</ele>
        <time>2021-08-09T15:24:44Z</time>
      </trkpt>
      <trkpt lat="44.6139" lon="3.79232">
        <ele>1261.1</ele>
        <time>2021-08-09T15:24:46Z</time>
      </trkpt>
      <trkpt lat="44.61385" lon="3.79228">
        <ele>1261.4</ele>
        <time>2021-08-09T15:24:48Z</time>
      </trkpt>
      <trkpt lat="44.61381" lon="3.79223">
        <ele>1261.7</ele>
        <time>2021-08-09T15:24:50Z</time>
      </trkpt>
      <trkpt lat="44.61377" lon="3.79219">
        <ele>1261.8</ele>
        <time>2021-08-09T15:24:52Z</time>
      </trkpt>
      <trkpt lat="44.61373" lon="3.79216">
        <ele>1262</ele>
        <time>2021-08-09T15:24:54Z</time>
      </trkpt>
      <trkpt lat="44.61368" lon="3.79212">
        <ele>1262.2</ele>
        <time>2021-08-09T15:24:56Z</time>
      </trkpt>
      <trkpt lat="44.61364" lon="3.79207">
        <ele>1262.3</ele>
        <time>2021-08-09T15:24:58Z</time>
      </trkpt>
      <trkpt lat="44.61359" lon="3.79205">
        <ele>1262.5</ele>
        <time>2021-08-09T15:25:00Z</time>
      </trkpt>
      <trkpt lat="44.61355" lon="3.79202">
        <ele>1262.6</ele>
        <time>2021-08-09T15:25:02Z</time>
      </trkpt>
      <trkpt lat="44.6135" lon="3.79198">
        <ele>1262.7</ele>
        <time>2021-08-09T15:25:04Z</time>
      </trkpt>
      <trkpt lat="44.61345" lon="3.79195">
        <ele>1262.7</ele>
        <time>2021-08-09T15:25:06Z</time>
      </trkpt>
      <trkpt lat="44.61341" lon="3.79192">
        <ele>1262.7</ele>
        <time>2021-08-09T15:25:08Z</time>
      </trkpt>
      <trkpt lat="44.61336" lon="3.79188">
        <ele>1262.6</ele>
        <time>2021-08-09T15:25:10Z</time>
      </trkpt>
      <trkpt lat="44.61331" lon="3.79185">
        <ele>1262.8</ele>
        <time>2021-08-09T15:25:12Z</time>
      </trkpt>
      <trkpt lat="44.61326" lon="3.79181">
        <ele>1263</ele>
        <time>2021-08-09T15:25:14Z</time>
      </trkpt>
      <trkpt lat="44.61321" lon="3.79178">
        <ele>1263.3</ele>
        <time>2021-08-09T15:25:16Z</time>
      </trkpt>
      <trkpt lat="44.61316" lon="3.79175">
        <ele>1263.5</ele>
        <time>2021-08-09T15:25:18Z</time>
      </trkpt>
      <trkpt lat="44.61312" lon="3.79172">
        <ele>1263.8</ele>
        <time>2021-08-09T15:25:20Z</time>
      </trkpt>
      <trkpt lat="44.61307" lon="3.79169">
        <ele>1264.1</ele>
        <time>2021-08-09T15:25:22Z</time>
      </trkpt>
      <trkpt lat="44.61302" lon="3.79166">
        <ele>1264.5</ele>
        <time>2021-08-09T15:25:24Z</time>
      </trkpt>
      <trkpt lat="44.61298" lon="3.79163">
        <ele>1265.2</ele>
        <time>2021-08-09T15:25:26Z</time>
      </trkpt>
      <trkpt lat="44.61293" lon="3.7916">
        <ele>1265.9</ele>
        <time>2021-08-09T15:25:28Z</time>
      </trkpt>
      <trkpt lat="44.61288" lon="3.79158">
        <ele>1266.5</ele>
        <time>2021-08-09T15:25:30Z</time>
      </trkpt>
      <trkpt lat="44.61284" lon="3.79156">
        <ele>1267.1</ele>
        <time>2021-08-09T15:25:32Z</time>
      </trkpt>
      <trkpt lat="44.6128" lon="3.79153">
        <ele>1267.7</ele>
        <time>2021-08-09T15:25:34Z</time>
      </trkpt>
      <trkpt lat="44.61276" lon="3.7915">
        <ele>1268.2</ele>
        <time>2021-08-09T15:25:36Z</time>
      </trkpt>
      <trkpt lat="44.61271" lon="3.79147">
        <ele>1268.7</ele>
        <time>2021-08-09T15:25:38Z</time>
      </trkpt>
      <trkpt lat="44.61267" lon="3.79145">
        <ele>1269.2</ele>
        <time>2021-08-09T15:25:40Z</time>
      </trkpt>
      <trkpt lat="44.61262" lon="3.79142">
        <ele>1269.7</ele>
        <time>2021-08-09T15:25:42Z</time>
      </trkpt>
      <trkpt lat="44.61257" lon="3.79139">
        <ele>1270.2</ele>
        <time>2021-08-09T15:25:44Z</time>
      </trkpt>
      <trkpt lat="44.61252" lon="3.79136">
        <ele>1270.6</ele>
        <time>2021-08-09T15:25:46Z</time>
      </trkpt>
      <trkpt lat="44.61248" lon="3.79133">
        <ele>1271</ele>
        <time>2021-08-09T15:25:48Z</time>
      </trkpt>
      <trkpt lat="44.61243" lon="3.7913">
        <ele>1271.3</ele>
        <time>2021-08-09T15:25:50Z</time>
      </trkpt>
      <trkpt lat="44.61238" lon="3.79127">
        <ele>1271.6</ele>
        <time>2021-08-09T15:25:52Z</time>
      </trkpt>
      <trkpt lat="44.61233" lon="3.79125">
        <ele>1271.9</ele>
        <time>2021-08-09T15:25:54Z</time>
      </trkpt>
      <trkpt lat="44.61229" lon="3.79122">
        <ele>1272.1</ele>
        <time>2021-08-09T15:25:56Z</time>
      </trkpt>
      <trkpt lat="44.61224" lon="3.79119">
        <ele>1272.3</ele>
        <time>2021-08-09T15:25:58Z</time>
      </trkpt>
      <trkpt lat="44.61219" lon="3.79117">
        <ele>1272.5</ele>
        <time>2021-08-09T15:26:00Z</time>
      </trkpt>
      <trkpt lat="44.61215" lon="3.79115">
        <ele>1272.7</ele>
        <time>2021-08-09T15:26:02Z</time>
      </trkpt>
      <trkpt lat="44.6121" lon="3.79113">
        <ele>1272.9</ele>
        <time>2021-08-09T15:26:04Z</time>
      </trkpt>
      <trkpt lat="44.61205" lon="3.79112">
        <ele>1273.1</ele>
        <time>2021-08-09T15:26:06Z</time>
      </trkpt>
      <trkpt lat="44.61201" lon="3.79111">
        <ele>1273.3</ele>
        <time>2021-08-09T15:26:08Z</time>
      </trkpt>
      <trkpt lat="44.61196" lon="3.79109">
        <ele>1273.4</ele>
        <time>2021-08-09T15:26:10Z</time>
      </trkpt>
      <trkpt lat="44.61192" lon="3.79107">
        <ele>1273.6</ele>
        <time>2021-08-09T15:26:12Z</time>
      </trkpt>
      <trkpt lat="44.61187" lon="3.79106">
        <ele>1273.7</ele>
        <time>2021-08-09T15:26:14Z</time>
      </trkpt>
      <trkpt lat="44.61183" lon="3.79105">
        <ele>1273.8</ele>
        <time>2021-08-09T15:26:16Z</time>
      </trkpt>
      <trkpt lat="44.61178" lon="3.79104">
        <ele>1274</ele>
        <time>2021-08-09T15:26:18Z</time>
      </trkpt>
      <trkpt lat="44.61174" lon="3.79103">
        <ele>1274.1</ele>
        <time>2021-08-09T15:26:20Z</time>
      </trkpt>
      <trkpt lat="44.6117" lon="3.79102">
        <ele>1274.2</ele>
        <time>2021-08-09T15:26:22Z</time>
      </trkpt>
      <trkpt lat="44.61165" lon="3.791">
        <ele>1274.3</ele>
        <time>2021-08-09T15:26:24Z</time>
      </trkpt>
      <trkpt lat="44.61161" lon="3.79099">
        <ele>1274.6</ele>
        <time>2021-08-09T15:26:26Z</time>
      </trkpt>
      <trkpt lat="44.61156" lon="3.79097">
        <ele>1274.8</ele>
        <time>2021-08-09T15:26:28Z</time>
      </trkpt>
      <trkpt lat="44.61152" lon="3.79096">
        <ele>1275</ele>
        <time>2021-08-09T15:26:30Z</time>
      </trkpt>
      <trkpt lat="44.61148" lon="3.79095">
        <ele>1275.3</ele>
        <time>2021-08-09T15:26:32Z</time>
      </trkpt>
      <trkpt lat="44.61143" lon="3.79094">
        <ele>1275.5</ele>
        <time>2021-08-09T15:26:34Z</time>
      </trkpt>
      <trkpt lat="44.61139" lon="3.79093">
        <ele>1275.7</ele>
        <time>2021-08-09T15:26:36Z</time>
      </trkpt>
      <trkpt lat="44.61135" lon="3.79092">
        <ele>1275.9</ele>
        <time>2021-08-09T15:26:38Z</time>
      </trkpt>
      <trkpt lat="44.61131" lon="3.7909">
        <ele>1276.1</ele>
        <time>2021-08-09T15:26:40Z</time>
      </trkpt>
      <trkpt lat="44.61127" lon="3.7909">
        <ele>1276.4</ele>
        <time>2021-08-09T15:26:42Z</time>
      </trkpt>
      <trkpt lat="44.61123" lon="3.79089">
        <ele>1276.5</ele>
        <time>2021-08-09T15:26:44Z</time>
      </trkpt>
      <trkpt lat="44.61118" lon="3.79088">
        <ele>1276.7</ele>
        <time>2021-08-09T15:26:46Z</time>
      </trkpt>
      <trkpt lat="44.61114" lon="3.79086">
        <ele>1276.8</ele>
        <time>2021-08-09T15:26:48Z</time>
      </trkpt>
      <trkpt lat="44.6111" lon="3.79084">
        <ele>1276.8</ele>
        <time>2021-08-09T15:26:50Z</time>
      </trkpt>
      <trkpt lat="44.61106" lon="3.79082">
        <ele>1277.1</ele>
        <time>2021-08-09T15:26:52Z</time>
      </trkpt>
      <trkpt lat="44.61102" lon="3.7908">
        <ele>1277.5</ele>
        <time>2021-08-09T15:26:54Z</time>
      </trkpt>
      <trkpt lat="44.61098" lon="3.79077">
        <ele>1277.8</ele>
        <time>2021-08-09T15:26:56Z</time>
      </trkpt>
      <trkpt lat="44.61094" lon="3.79075">
        <ele>1278.2</ele>
        <time>2021-08-09T15:26:58Z</time>
      </trkpt>
      <trkpt lat="44.6109" lon="3.79072">
        <ele>1278.5</ele>
        <time>2021-08-09T15:27:00Z</time>
      </trkpt>
      <trkpt lat="44.61086" lon="3.79069">
        <ele>1278.8</ele>
        <time>2021-08-09T15:27:02Z</time>
      </trkpt>
      <trkpt lat="44.61082" lon="3.79066">
        <ele>1279.2</ele>
        <time>2021-08-09T15:27:04Z</time>
      </trkpt>
      <trkpt lat="44.61079" lon="3.79062">
        <ele>1279.9</ele>
        <time>2021-08-09T15:27:06Z</time>
      </trkpt>
      <trkpt lat="44.61075" lon="3.79058">
        <ele>1280.4</ele>
        <time>2021-08-09T15:27:08Z</time>
      </trkpt>
      <trkpt lat="44.61072" lon="3.79054">
        <ele>1281</ele>
        <time>2021-08-09T15:27:10Z</time>
      </trkpt>
      <trkpt lat="44.61067" lon="3.79052">
        <ele>1281.7</ele>
        <time>2021-08-09T15:27:12Z</time>
      </trkpt>
      <trkpt lat="44.61064" lon="3.79048">
        <ele>1282.1</ele>
        <time>2021-08-09T15:27:14Z</time>
      </trkpt>
      <trkpt lat="44.61061" lon="3.79044">
        <ele>1282.6</ele>
        <time>2021-08-09T15:27:16Z</time>
      </trkpt>
      <trkpt lat="44.61057" lon="3.7904">
        <ele>1283</ele>
        <time>2021-08-09T15:27:18Z</time>
      </trkpt>
      <trkpt lat="44.61053" lon="3.79036">
        <ele>1283.5</ele>
        <time>2021-08-09T15:27:20Z</time>
      </trkpt>
      <trkpt lat="44.61049" lon="3.79032">
        <ele>1283.8</ele>
        <time>2021-08-09T15:27:22Z</time>
      </trkpt>
      <trkpt lat="44.61046" lon="3.79026">
        <ele>1283.9</ele>
        <time>2021-08-09T15:27:24Z</time>
      </trkpt>
      <trkpt lat="44.61045" lon="3.79018">
        <ele>1283.6</ele>
        <time>2021-08-09T15:27:26Z</time>
      </trkpt>
      <trkpt lat="44.61046" lon="3.79011">
        <ele>1283.2</ele>
        <time>2021-08-09T15:27:28Z</time>
      </trkpt>
      <trkpt lat="44.61048" lon="3.79005">
        <ele>1282.6</ele>
        <time>2021-08-09T15:27:30Z</time>
      </trkpt>
      <trkpt lat="44.61051" lon="3.79">
        <ele>1282.1</ele>
        <time>2021-08-09T15:27:32Z</time>
      </trkpt>
      <trkpt lat="44.61054" lon="3.78997">
        <ele>1282.5</ele>
        <time>2021-08-09T15:27:34Z</time>
      </trkpt>
      <trkpt lat="44.61059" lon="3.78995">
        <ele>1282.6</ele>
        <time>2021-08-09T15:27:36Z</time>
      </trkpt>
      <trkpt lat="44.61063" lon="3.78994">
        <ele>1282.5</ele>
        <time>2021-08-09T15:27:38Z</time>
      </trkpt>
      <trkpt lat="44.61067" lon="3.78993">
        <ele>1282.2</ele>
        <time>2021-08-09T15:27:40Z</time>
      </trkpt>
      <trkpt lat="44.61071" lon="3.78993">
        <ele>1281.9</ele>
        <time>2021-08-09T15:27:42Z</time>
      </trkpt>
      <trkpt lat="44.61075" lon="3.78993">
        <ele>1281.5</ele>
        <time>2021-08-09T15:27:44Z</time>
      </trkpt>
      <trkpt lat="44.61079" lon="3.78993">
        <ele>1281.1</ele>
        <time>2021-08-09T15:27:46Z</time>
      </trkpt>
      <trkpt lat="44.61083" lon="3.78993">
        <ele>1280.8</ele>
        <time>2021-08-09T15:27:48Z</time>
      </trkpt>
      <trkpt lat="44.61087" lon="3.78993">
        <ele>1280.7</ele>
        <time>2021-08-09T15:27:50Z</time>
      </trkpt>
      <trkpt lat="44.61091" lon="3.78994">
        <ele>1280.6</ele>
        <time>2021-08-09T15:27:52Z</time>
      </trkpt>
      <trkpt lat="44.61094" lon="3.78995">
        <ele>1280.5</ele>
        <time>2021-08-09T15:27:54Z</time>
      </trkpt>
      <trkpt lat="44.61098" lon="3.78996">
        <ele>1280.3</ele>
        <time>2021-08-09T15:27:56Z</time>
      </trkpt>
      <trkpt lat="44.61102" lon="3.78996">
        <ele>1280.2</ele>
        <time>2021-08-09T15:27:58Z</time>
      </trkpt>
      <trkpt lat="44.61106" lon="3.78997">
        <ele>1279.9</ele>
        <time>2021-08-09T15:28:00Z</time>
      </trkpt>
      <trkpt lat="44.6111" lon="3.78998">
        <ele>1279.7</ele>
        <time>2021-08-09T15:28:02Z</time>
      </trkpt>
      <trkpt lat="44.61114" lon="3.78999">
        <ele>1279.6</ele>
        <time>2021-08-09T15:28:04Z</time>
      </trkpt>
      <trkpt lat="44.61117" lon="3.79">
        <ele>1279.4</ele>
        <time>2021-08-09T15:28:06Z</time>
      </trkpt>
      <trkpt lat="44.61121" lon="3.79001">
        <ele>1279.4</ele>
        <time>2021-08-09T15:28:08Z</time>
      </trkpt>
      <trkpt lat="44.61125" lon="3.79001">
        <ele>1279.4</ele>
        <time>2021-08-09T15:28:10Z</time>
      </trkpt>
      <trkpt lat="44.61129" lon="3.79002">
        <ele>1279.4</ele>
        <time>2021-08-09T15:28:12Z</time>
      </trkpt>
      <trkpt lat="44.61133" lon="3.79002">
        <ele>1279.5</ele>
        <time>2021-08-09T15:28:14Z</time>
      </trkpt>
      <trkpt lat="44.61137" lon="3.79002">
        <ele>1279.5</ele>
        <time>2021-08-09T15:28:16Z</time>
      </trkpt>
      <trkpt lat="44.61141" lon="3.79001">
        <ele>1279.6</ele>
        <time>2021-08-09T15:28:18Z</time>
      </trkpt>
      <trkpt lat="44.61144" lon="3.79001">
        <ele>1279.6</ele>
        <time>2021-08-09T15:28:20Z</time>
      </trkpt>
      <trkpt lat="44.61148" lon="3.79001">
        <ele>1279.7</ele>
        <time>2021-08-09T15:28:22Z</time>
      </trkpt>
      <trkpt lat="44.61152" lon="3.78999">
        <ele>1280</ele>
        <time>2021-08-09T15:28:24Z</time>
      </trkpt>
      <trkpt lat="44.61156" lon="3.78999">
        <ele>1280.2</ele>
        <time>2021-08-09T15:28:26Z</time>
      </trkpt>
      <trkpt lat="44.6116" lon="3.78997">
        <ele>1280.5</ele>
        <time>2021-08-09T15:28:28Z</time>
      </trkpt>
      <trkpt lat="44.61164" lon="3.78996">
        <ele>1280.7</ele>
        <time>2021-08-09T15:28:30Z</time>
      </trkpt>
      <trkpt lat="44.61167" lon="3.78995">
        <ele>1281</ele>
        <time>2021-08-09T15:28:32Z</time>
      </trkpt>
      <trkpt lat="44.61171" lon="3.78994">
        <ele>1281.2</ele>
        <time>2021-08-09T15:28:34Z</time>
      </trkpt>
      <trkpt lat="44.61175" lon="3.78993">
        <ele>1281.3</ele>
        <time>2021-08-09T15:28:36Z</time>
      </trkpt>
      <trkpt lat="44.61178" lon="3.78992">
        <ele>1281.5</ele>
        <time>2021-08-09T15:28:38Z</time>
      </trkpt>
      <trkpt lat="44.61182" lon="3.78991">
        <ele>1281.7</ele>
        <time>2021-08-09T15:28:40Z</time>
      </trkpt>
      <trkpt lat="44.61185" lon="3.78989">
        <ele>1282</ele>
        <time>2021-08-09T15:28:42Z</time>
      </trkpt>
      <trkpt lat="44.61188" lon="3.78986">
        <ele>1282.4</ele>
        <time>2021-08-09T15:28:44Z</time>
      </trkpt>
      <trkpt lat="44.61192" lon="3.78983">
        <ele>1282.9</ele>
        <time>2021-08-09T15:28:46Z</time>
      </trkpt>
      <trkpt lat="44.61194" lon="3.7898">
        <ele>1283.3</ele>
        <time>2021-08-09T15:28:48Z</time>
      </trkpt>
      <trkpt lat="44.61197" lon="3.78977">
        <ele>1283.8</ele>
        <time>2021-08-09T15:28:50Z</time>
      </trkpt>
      <trkpt lat="44.612" lon="3.78973">
        <ele>1284.3</ele>
        <time>2021-08-09T15:28:52Z</time>
      </trkpt>
      <trkpt lat="44.61202" lon="3.78968">
        <ele>1285</ele>
        <time>2021-08-09T15:28:54Z</time>
      </trkpt>
      <trkpt lat="44.61204" lon="3.78963">
        <ele>1285.7</ele>
        <time>2021-08-09T15:28:56Z</time>
      </trkpt>
      <trkpt lat="44.61206" lon="3.78959">
        <ele>1286.3</ele>
        <time>2021-08-09T15:28:58Z</time>
      </trkpt>
      <trkpt lat="44.61207" lon="3.78954">
        <ele>1287</ele>
        <time>2021-08-09T15:29:00Z</time>
      </trkpt>
      <trkpt lat="44.61209" lon="3.78949">
        <ele>1287.8</ele>
        <time>2021-08-09T15:29:02Z</time>
      </trkpt>
      <trkpt lat="44.6121" lon="3.78944">
        <ele>1288.4</ele>
        <time>2021-08-09T15:29:04Z</time>
      </trkpt>
      <trkpt lat="44.61211" lon="3.78939">
        <ele>1289.1</ele>
        <time>2021-08-09T15:29:06Z</time>
      </trkpt>
      <trkpt lat="44.61212" lon="3.78934">
        <ele>1289.8</ele>
        <time>2021-08-09T15:29:08Z</time>
      </trkpt>
      <trkpt lat="44.61213" lon="3.78929">
        <ele>1290.5</ele>
        <time>2021-08-09T15:29:10Z</time>
      </trkpt>
      <trkpt lat="44.61214" lon="3.78923">
        <ele>1291.3</ele>
        <time>2021-08-09T15:29:12Z</time>
      </trkpt>
      <trkpt lat="44.61215" lon="3.78918">
        <ele>1292</ele>
        <time>2021-08-09T15:29:14Z</time>
      </trkpt>
      <trkpt lat="44.61216" lon="3.78913">
        <ele>1292.5</ele>
        <time>2021-08-09T15:29:16Z</time>
      </trkpt>
      <trkpt lat="44.61217" lon="3.78907">
        <ele>1293</ele>
        <time>2021-08-09T15:29:18Z</time>
      </trkpt>
      <trkpt lat="44.61217" lon="3.78903">
        <ele>1293.3</ele>
        <time>2021-08-09T15:29:20Z</time>
      </trkpt>
      <trkpt lat="44.61218" lon="3.78898">
        <ele>1293.7</ele>
        <time>2021-08-09T15:29:22Z</time>
      </trkpt>
      <trkpt lat="44.61219" lon="3.78893">
        <ele>1294.1</ele>
        <time>2021-08-09T15:29:24Z</time>
      </trkpt>
      <trkpt lat="44.61219" lon="3.78888">
        <ele>1294.5</ele>
        <time>2021-08-09T15:29:26Z</time>
      </trkpt>
      <trkpt lat="44.6122" lon="3.78884">
        <ele>1294.8</ele>
        <time>2021-08-09T15:29:28Z</time>
      </trkpt>
      <trkpt lat="44.61221" lon="3.78879">
        <ele>1295.1</ele>
        <time>2021-08-09T15:29:30Z</time>
      </trkpt>
      <trkpt lat="44.61222" lon="3.78874">
        <ele>1295.4</ele>
        <time>2021-08-09T15:29:32Z</time>
      </trkpt>
      <trkpt lat="44.61223" lon="3.7887">
        <ele>1295.6</ele>
        <time>2021-08-09T15:29:34Z</time>
      </trkpt>
      <trkpt lat="44.61225" lon="3.78866">
        <ele>1295.8</ele>
        <time>2021-08-09T15:29:36Z</time>
      </trkpt>
      <trkpt lat="44.61226" lon="3.78861">
        <ele>1296</ele>
        <time>2021-08-09T15:29:38Z</time>
      </trkpt>
      <trkpt lat="44.61227" lon="3.78856">
        <ele>1296.3</ele>
        <time>2021-08-09T15:29:40Z</time>
      </trkpt>
      <trkpt lat="44.61228" lon="3.78851">
        <ele>1296.5</ele>
        <time>2021-08-09T15:29:42Z</time>
      </trkpt>
      <trkpt lat="44.61229" lon="3.78846">
        <ele>1296.6</ele>
        <time>2021-08-09T15:29:44Z</time>
      </trkpt>
      <trkpt lat="44.6123" lon="3.78841">
        <ele>1296.9</ele>
        <time>2021-08-09T15:29:46Z</time>
      </trkpt>
      <trkpt lat="44.61231" lon="3.78837">
        <ele>1296.9</ele>
        <time>2021-08-09T15:29:48Z</time>
      </trkpt>
      <trkpt lat="44.61233" lon="3.78833">
        <ele>1297</ele>
        <time>2021-08-09T15:29:50Z</time>
      </trkpt>
      <trkpt lat="44.61233" lon="3.78828">
        <ele>1297.3</ele>
        <time>2021-08-09T15:29:52Z</time>
      </trkpt>
      <trkpt lat="44.61235" lon="3.78824">
        <ele>1297.4</ele>
        <time>2021-08-09T15:29:54Z</time>
      </trkpt>
      <trkpt lat="44.61236" lon="3.78819">
        <ele>1297.7</ele>
        <time>2021-08-09T15:29:56Z</time>
      </trkpt>
      <trkpt lat="44.61238" lon="3.78815">
        <ele>1297.7</ele>
        <time>2021-08-09T15:29:58Z</time>
      </trkpt>
      <trkpt lat="44.61239" lon="3.78811">
        <ele>1297.9</ele>
        <time>2021-08-09T15:30:00Z</time>
      </trkpt>
      <trkpt lat="44.61239" lon="3.78807">
        <ele>1298.4</ele>
        <time>2021-08-09T15:30:02Z</time>
      </trkpt>
      <trkpt lat="44.6124" lon="3.78802">
        <ele>1298.6</ele>
        <time>2021-08-09T15:30:04Z</time>
      </trkpt>
      <trkpt lat="44.61242" lon="3.78797">
        <ele>1298.8</ele>
        <time>2021-08-09T15:30:06Z</time>
      </trkpt>
      <trkpt lat="44.61243" lon="3.78793">
        <ele>1299</ele>
        <time>2021-08-09T15:30:08Z</time>
      </trkpt>
      <trkpt lat="44.61243" lon="3.78788">
        <ele>1299.5</ele>
        <time>2021-08-09T15:30:10Z</time>
      </trkpt>
      <trkpt lat="44.61244" lon="3.78783">
        <ele>1299.8</ele>
        <time>2021-08-09T15:30:12Z</time>
      </trkpt>
      <trkpt lat="44.61245" lon="3.78777">
        <ele>1300.2</ele>
        <time>2021-08-09T15:30:14Z</time>
      </trkpt>
      <trkpt lat="44.61245" lon="3.78772">
        <ele>1300.7</ele>
        <time>2021-08-09T15:30:16Z</time>
      </trkpt>
      <trkpt lat="44.61246" lon="3.78766">
        <ele>1301.1</ele>
        <time>2021-08-09T15:30:18Z</time>
      </trkpt>
      <trkpt lat="44.61247" lon="3.78761">
        <ele>1301.5</ele>
        <time>2021-08-09T15:30:20Z</time>
      </trkpt>
      <trkpt lat="44.61247" lon="3.78756">
        <ele>1302</ele>
        <time>2021-08-09T15:30:22Z</time>
      </trkpt>
      <trkpt lat="44.61247" lon="3.78751">
        <ele>1302.5</ele>
        <time>2021-08-09T15:30:24Z</time>
      </trkpt>
      <trkpt lat="44.61246" lon="3.78746">
        <ele>1302.8</ele>
        <time>2021-08-09T15:30:26Z</time>
      </trkpt>
      <trkpt lat="44.61246" lon="3.78741">
        <ele>1302.8</ele>
        <time>2021-08-09T15:30:28Z</time>
      </trkpt>
      <trkpt lat="44.61246" lon="3.78736">
        <ele>1303</ele>
        <time>2021-08-09T15:30:30Z</time>
      </trkpt>
      <trkpt lat="44.61245" lon="3.7873">
        <ele>1303.1</ele>
        <time>2021-08-09T15:30:32Z</time>
      </trkpt>
      <trkpt lat="44.61244" lon="3.78725">
        <ele>1303.3</ele>
        <time>2021-08-09T15:30:34Z</time>
      </trkpt>
      <trkpt lat="44.61243" lon="3.7872">
        <ele>1303.5</ele>
        <time>2021-08-09T15:30:36Z</time>
      </trkpt>
      <trkpt lat="44.61242" lon="3.78715">
        <ele>1303.9</ele>
        <time>2021-08-09T15:30:38Z</time>
      </trkpt>
      <trkpt lat="44.6124" lon="3.78711">
        <ele>1304.2</ele>
        <time>2021-08-09T15:30:40Z</time>
      </trkpt>
      <trkpt lat="44.61238" lon="3.78707">
        <ele>1304.6</ele>
        <time>2021-08-09T15:30:42Z</time>
      </trkpt>
      <trkpt lat="44.61237" lon="3.78702">
        <ele>1305.1</ele>
        <time>2021-08-09T15:30:44Z</time>
      </trkpt>
      <trkpt lat="44.61234" lon="3.78698">
        <ele>1305.6</ele>
        <time>2021-08-09T15:30:46Z</time>
      </trkpt>
      <trkpt lat="44.61232" lon="3.78694">
        <ele>1306.2</ele>
        <time>2021-08-09T15:30:48Z</time>
      </trkpt>
      <trkpt lat="44.6123" lon="3.7869">
        <ele>1306.7</ele>
        <time>2021-08-09T15:30:50Z</time>
      </trkpt>
      <trkpt lat="44.61228" lon="3.78686">
        <ele>1307.1</ele>
        <time>2021-08-09T15:30:52Z</time>
      </trkpt>
      <trkpt lat="44.61226" lon="3.78682">
        <ele>1307.5</ele>
        <time>2021-08-09T15:30:54Z</time>
      </trkpt>
      <trkpt lat="44.61224" lon="3.78679">
        <ele>1308.1</ele>
        <time>2021-08-09T15:30:56Z</time>
      </trkpt>
      <trkpt lat="44.61222" lon="3.78675">
        <ele>1308.5</ele>
        <time>2021-08-09T15:30:58Z</time>
      </trkpt>
      <trkpt lat="44.61221" lon="3.78671">
        <ele>1308.9</ele>
        <time>2021-08-09T15:31:00Z</time>
      </trkpt>
      <trkpt lat="44.61219" lon="3.78668">
        <ele>1309.5</ele>
        <time>2021-08-09T15:31:02Z</time>
      </trkpt>
      <trkpt lat="44.61217" lon="3.78663">
        <ele>1309.6</ele>
        <time>2021-08-09T15:31:04Z</time>
      </trkpt>
      <trkpt lat="44.61215" lon="3.78659">
        <ele>1309.7</ele>
        <time>2021-08-09T15:31:06Z</time>
      </trkpt>
      <trkpt lat="44.61214" lon="3.78654">
        <ele>1309.7</ele>
        <time>2021-08-09T15:31:08Z</time>
      </trkpt>
      <trkpt lat="44.61211" lon="3.7865">
        <ele>1310.1</ele>
        <time>2021-08-09T15:31:10Z</time>
      </trkpt>
      <trkpt lat="44.61209" lon="3.78646">
        <ele>1310.2</ele>
        <time>2021-08-09T15:31:12Z</time>
      </trkpt>
      <trkpt lat="44.61207" lon="3.78642">
        <ele>1310.5</ele>
        <time>2021-08-09T15:31:14Z</time>
      </trkpt>
      <trkpt lat="44.61205" lon="3.78638">
        <ele>1310.6</ele>
        <time>2021-08-09T15:31:16Z</time>
      </trkpt>
      <trkpt lat="44.61203" lon="3.78633">
        <ele>1310.8</ele>
        <time>2021-08-09T15:31:18Z</time>
      </trkpt>
      <trkpt lat="44.612" lon="3.7863">
        <ele>1311.3</ele>
        <time>2021-08-09T15:31:20Z</time>
      </trkpt>
      <trkpt lat="44.61199" lon="3.78625">
        <ele>1311.4</ele>
        <time>2021-08-09T15:31:22Z</time>
      </trkpt>
      <trkpt lat="44.61196" lon="3.78621">
        <ele>1311.7</ele>
        <time>2021-08-09T15:31:24Z</time>
      </trkpt>
      <trkpt lat="44.61194" lon="3.78618">
        <ele>1312</ele>
        <time>2021-08-09T15:31:26Z</time>
      </trkpt>
      <trkpt lat="44.61192" lon="3.78614">
        <ele>1312.4</ele>
        <time>2021-08-09T15:31:28Z</time>
      </trkpt>
      <trkpt lat="44.6119" lon="3.7861">
        <ele>1312.8</ele>
        <time>2021-08-09T15:31:30Z</time>
      </trkpt>
      <trkpt lat="44.61188" lon="3.78606">
        <ele>1313.1</ele>
        <time>2021-08-09T15:31:32Z</time>
      </trkpt>
      <trkpt lat="44.61185" lon="3.78603">
        <ele>1313.6</ele>
        <time>2021-08-09T15:31:34Z</time>
      </trkpt>
      <trkpt lat="44.61183" lon="3.78599">
        <ele>1314.1</ele>
        <time>2021-08-09T15:31:36Z</time>
      </trkpt>
      <trkpt lat="44.6118" lon="3.78596">
        <ele>1314.6</ele>
        <time>2021-08-09T15:31:38Z</time>
      </trkpt>
      <trkpt lat="44.61178" lon="3.78592">
        <ele>1315</ele>
        <time>2021-08-09T15:31:40Z</time>
      </trkpt>
      <trkpt lat="44.61177" lon="3.78588">
        <ele>1315.2</ele>
        <time>2021-08-09T15:31:42Z</time>
      </trkpt>
      <trkpt lat="44.61174" lon="3.78584">
        <ele>1315.8</ele>
        <time>2021-08-09T15:31:44Z</time>
      </trkpt>
      <trkpt lat="44.61173" lon="3.7858">
        <ele>1315.9</ele>
        <time>2021-08-09T15:31:46Z</time>
      </trkpt>
      <trkpt lat="44.6117" lon="3.78577">
        <ele>1316.6</ele>
        <time>2021-08-09T15:31:48Z</time>
      </trkpt>
      <trkpt lat="44.61167" lon="3.78573">
        <ele>1316.9</ele>
        <time>2021-08-09T15:31:50Z</time>
      </trkpt>
      <trkpt lat="44.61165" lon="3.78569">
        <ele>1317.2</ele>
        <time>2021-08-09T15:31:52Z</time>
      </trkpt>
      <trkpt lat="44.61163" lon="3.78566">
        <ele>1317.4</ele>
        <time>2021-08-09T15:31:54Z</time>
      </trkpt>
      <trkpt lat="44.61161" lon="3.78562">
        <ele>1317.6</ele>
        <time>2021-08-09T15:31:56Z</time>
      </trkpt>
      <trkpt lat="44.61159" lon="3.78558">
        <ele>1317.6</ele>
        <time>2021-08-09T15:31:58Z</time>
      </trkpt>
      <trkpt lat="44.61156" lon="3.78555">
        <ele>1317.9</ele>
        <time>2021-08-09T15:32:00Z</time>
      </trkpt>
      <trkpt lat="44.61154" lon="3.78551">
        <ele>1318.1</ele>
        <time>2021-08-09T15:32:02Z</time>
      </trkpt>
      <trkpt lat="44.61152" lon="3.78547">
        <ele>1318.2</ele>
        <time>2021-08-09T15:32:04Z</time>
      </trkpt>
      <trkpt lat="44.6115" lon="3.78543">
        <ele>1318.3</ele>
        <time>2021-08-09T15:32:06Z</time>
      </trkpt>
      <trkpt lat="44.61148" lon="3.78539">
        <ele>1318.6</ele>
        <time>2021-08-09T15:32:08Z</time>
      </trkpt>
      <trkpt lat="44.61145" lon="3.78536">
        <ele>1319.1</ele>
        <time>2021-08-09T15:32:10Z</time>
      </trkpt>
      <trkpt lat="44.61142" lon="3.78532">
        <ele>1319.4</ele>
        <time>2021-08-09T15:32:12Z</time>
      </trkpt>
      <trkpt lat="44.6114" lon="3.78529">
        <ele>1319.6</ele>
        <time>2021-08-09T15:32:14Z</time>
      </trkpt>
      <trkpt lat="44.61137" lon="3.78525">
        <ele>1320</ele>
        <time>2021-08-09T15:32:16Z</time>
      </trkpt>
      <trkpt lat="44.61134" lon="3.78523">
        <ele>1320.5</ele>
        <time>2021-08-09T15:32:18Z</time>
      </trkpt>
      <trkpt lat="44.61132" lon="3.78518">
        <ele>1320.7</ele>
        <time>2021-08-09T15:32:20Z</time>
      </trkpt>
      <trkpt lat="44.6113" lon="3.78515">
        <ele>1320.9</ele>
        <time>2021-08-09T15:32:22Z</time>
      </trkpt>
      <trkpt lat="44.61127" lon="3.78512">
        <ele>1321.4</ele>
        <time>2021-08-09T15:32:24Z</time>
      </trkpt>
      <trkpt lat="44.61124" lon="3.78508">
        <ele>1321.8</ele>
        <time>2021-08-09T15:32:26Z</time>
      </trkpt>
      <trkpt lat="44.61122" lon="3.78504">
        <ele>1322</ele>
        <time>2021-08-09T15:32:28Z</time>
      </trkpt>
      <trkpt lat="44.61119" lon="3.78501">
        <ele>1322.4</ele>
        <time>2021-08-09T15:32:30Z</time>
      </trkpt>
      <trkpt lat="44.61117" lon="3.78497">
        <ele>1322.8</ele>
        <time>2021-08-09T15:32:32Z</time>
      </trkpt>
      <trkpt lat="44.61114" lon="3.78494">
        <ele>1323.3</ele>
        <time>2021-08-09T15:32:34Z</time>
      </trkpt>
      <trkpt lat="44.61112" lon="3.7849">
        <ele>1323.7</ele>
        <time>2021-08-09T15:32:36Z</time>
      </trkpt>
      <trkpt lat="44.61109" lon="3.78486">
        <ele>1323.9</ele>
        <time>2021-08-09T15:32:38Z</time>
      </trkpt>
      <trkpt lat="44.61108" lon="3.78482">
        <ele>1324.1</ele>
        <time>2021-08-09T15:32:40Z</time>
      </trkpt>
      <trkpt lat="44.61106" lon="3.78479">
        <ele>1324.3</ele>
        <time>2021-08-09T15:32:42Z</time>
      </trkpt>
      <trkpt lat="44.61103" lon="3.78476">
        <ele>1324.8</ele>
        <time>2021-08-09T15:32:44Z</time>
      </trkpt>
      <trkpt lat="44.61101" lon="3.78474">
        <ele>1325.2</ele>
        <time>2021-08-09T15:32:46Z</time>
      </trkpt>
      <trkpt lat="44.61099" lon="3.7847">
        <ele>1325.4</ele>
        <time>2021-08-09T15:32:48Z</time>
      </trkpt>
      <trkpt lat="44.61097" lon="3.78467">
        <ele>1325.7</ele>
        <time>2021-08-09T15:32:50Z</time>
      </trkpt>
      <trkpt lat="44.61094" lon="3.78464">
        <ele>1326.1</ele>
        <time>2021-08-09T15:32:52Z</time>
      </trkpt>
      <trkpt lat="44.61092" lon="3.7846">
        <ele>1326.3</ele>
        <time>2021-08-09T15:32:54Z</time>
      </trkpt>
      <trkpt lat="44.61089" lon="3.78458">
        <ele>1326.8</ele>
        <time>2021-08-09T15:32:56Z</time>
      </trkpt>
      <trkpt lat="44.61087" lon="3.78454">
        <ele>1327</ele>
        <time>2021-08-09T15:32:58Z</time>
      </trkpt>
      <trkpt lat="44.61084" lon="3.78451">
        <ele>1327.4</ele>
        <time>2021-08-09T15:33:00Z</time>
      </trkpt>
      <trkpt lat="44.61081" lon="3.78448">
        <ele>1327.5</ele>
        <time>2021-08-09T15:33:02Z</time>
      </trkpt>
      <trkpt lat="44.61078" lon="3.78445">
        <ele>1327.6</ele>
        <time>2021-08-09T15:33:04Z</time>
      </trkpt>
      <trkpt lat="44.61075" lon="3.78442">
        <ele>1327.8</ele>
        <time>2021-08-09T15:33:06Z</time>
      </trkpt>
      <trkpt lat="44.61072" lon="3.78438">
        <ele>1327.9</ele>
        <time>2021-08-09T15:33:08Z</time>
      </trkpt>
      <trkpt lat="44.6107" lon="3.78434">
        <ele>1327.9</ele>
        <time>2021-08-09T15:33:10Z</time>
      </trkpt>
      <trkpt lat="44.61067" lon="3.78432">
        <ele>1328</ele>
        <time>2021-08-09T15:33:12Z</time>
      </trkpt>
      <trkpt lat="44.61065" lon="3.78428">
        <ele>1328.1</ele>
        <time>2021-08-09T15:33:14Z</time>
      </trkpt>
      <trkpt lat="44.61062" lon="3.78425">
        <ele>1328.1</ele>
        <time>2021-08-09T15:33:16Z</time>
      </trkpt>
      <trkpt lat="44.61059" lon="3.78423">
        <ele>1328.3</ele>
        <time>2021-08-09T15:33:18Z</time>
      </trkpt>
      <trkpt lat="44.61057" lon="3.78419">
        <ele>1328.4</ele>
        <time>2021-08-09T15:33:20Z</time>
      </trkpt>
      <trkpt lat="44.61054" lon="3.78416">
        <ele>1328.5</ele>
        <time>2021-08-09T15:33:22Z</time>
      </trkpt>
      <trkpt lat="44.61051" lon="3.78414">
        <ele>1328.7</ele>
        <time>2021-08-09T15:33:24Z</time>
      </trkpt>
      <trkpt lat="44.61048" lon="3.78412">
        <ele>1328.8</ele>
        <time>2021-08-09T15:33:26Z</time>
      </trkpt>
      <trkpt lat="44.61045" lon="3.78409">
        <ele>1328.9</ele>
        <time>2021-08-09T15:33:28Z</time>
      </trkpt>
      <trkpt lat="44.61041" lon="3.78407">
        <ele>1329.1</ele>
        <time>2021-08-09T15:33:30Z</time>
      </trkpt>
      <trkpt lat="44.61038" lon="3.78404">
        <ele>1329.2</ele>
        <time>2021-08-09T15:33:32Z</time>
      </trkpt>
      <trkpt lat="44.61035" lon="3.78402">
        <ele>1329.4</ele>
        <time>2021-08-09T15:33:34Z</time>
      </trkpt>
      <trkpt lat="44.61032" lon="3.784">
        <ele>1329.5</ele>
        <time>2021-08-09T15:33:36Z</time>
      </trkpt>
      <trkpt lat="44.61029" lon="3.78399">
        <ele>1329.7</ele>
        <time>2021-08-09T15:33:38Z</time>
      </trkpt>
      <trkpt lat="44.61026" lon="3.78397">
        <ele>1329.9</ele>
        <time>2021-08-09T15:33:40Z</time>
      </trkpt>
      <trkpt lat="44.61023" lon="3.78395">
        <ele>1330</ele>
        <time>2021-08-09T15:33:42Z</time>
      </trkpt>
      <trkpt lat="44.6102" lon="3.78393">
        <ele>1330.1</ele>
        <time>2021-08-09T15:33:44Z</time>
      </trkpt>
      <trkpt lat="44.61018" lon="3.7839">
        <ele>1330.2</ele>
        <time>2021-08-09T15:33:46Z</time>
      </trkpt>
      <trkpt lat="44.61015" lon="3.78388">
        <ele>1330.2</ele>
        <time>2021-08-09T15:33:48Z</time>
      </trkpt>
      <trkpt lat="44.61012" lon="3.78387">
        <ele>1330.5</ele>
        <time>2021-08-09T15:33:50Z</time>
      </trkpt>
      <trkpt lat="44.61009" lon="3.78385">
        <ele>1330.6</ele>
        <time>2021-08-09T15:33:52Z</time>
      </trkpt>
      <trkpt lat="44.61005" lon="3.78384">
        <ele>1330.9</ele>
        <time>2021-08-09T15:33:54Z</time>
      </trkpt>
      <trkpt lat="44.61002" lon="3.78383">
        <ele>1331.1</ele>
        <time>2021-08-09T15:33:56Z</time>
      </trkpt>
      <trkpt lat="44.60998" lon="3.78381">
        <ele>1331.3</ele>
        <time>2021-08-09T15:33:58Z</time>
      </trkpt>
      <trkpt lat="44.60995" lon="3.78381">
        <ele>1331.5</ele>
        <time>2021-08-09T15:34:00Z</time>
      </trkpt>
      <trkpt lat="44.60992" lon="3.78379">
        <ele>1331.6</ele>
        <time>2021-08-09T15:34:02Z</time>
      </trkpt>
      <trkpt lat="44.60988" lon="3.78379">
        <ele>1331.9</ele>
        <time>2021-08-09T15:34:04Z</time>
      </trkpt>
      <trkpt lat="44.60985" lon="3.78378">
        <ele>1332.1</ele>
        <time>2021-08-09T15:34:06Z</time>
      </trkpt>
      <trkpt lat="44.60981" lon="3.78377">
        <ele>1332.3</ele>
        <time>2021-08-09T15:34:08Z</time>
      </trkpt>
      <trkpt lat="44.60978" lon="3.78377">
        <ele>1332.5</ele>
        <time>2021-08-09T15:34:10Z</time>
      </trkpt>
      <trkpt lat="44.60975" lon="3.78376">
        <ele>1332.7</ele>
        <time>2021-08-09T15:34:12Z</time>
      </trkpt>
      <trkpt lat="44.60971" lon="3.78375">
        <ele>1332.9</ele>
        <time>2021-08-09T15:34:14Z</time>
      </trkpt>
      <trkpt lat="44.60968" lon="3.78375">
        <ele>1333.2</ele>
        <time>2021-08-09T15:34:16Z</time>
      </trkpt>
      <trkpt lat="44.60966" lon="3.78375">
        <ele>1333.4</ele>
        <time>2021-08-09T15:34:18Z</time>
      </trkpt>
      <trkpt lat="44.60962" lon="3.78374">
        <ele>1333.6</ele>
        <time>2021-08-09T15:34:20Z</time>
      </trkpt>
      <trkpt lat="44.60958" lon="3.78375">
        <ele>1334</ele>
        <time>2021-08-09T15:34:22Z</time>
      </trkpt>
      <trkpt lat="44.60955" lon="3.78374">
        <ele>1334.2</ele>
        <time>2021-08-09T15:34:24Z</time>
      </trkpt>
      <trkpt lat="44.60951" lon="3.78374">
        <ele>1334.6</ele>
        <time>2021-08-09T15:34:26Z</time>
      </trkpt>
      <trkpt lat="44.60947" lon="3.78374">
        <ele>1334.9</ele>
        <time>2021-08-09T15:34:28Z</time>
      </trkpt>
      <trkpt lat="44.60944" lon="3.78373">
        <ele>1335</ele>
        <time>2021-08-09T15:34:30Z</time>
      </trkpt>
      <trkpt lat="44.6094" lon="3.78373">
        <ele>1335.4</ele>
        <time>2021-08-09T15:34:32Z</time>
      </trkpt>
      <trkpt lat="44.60937" lon="3.78372">
        <ele>1335.5</ele>
        <time>2021-08-09T15:34:34Z</time>
      </trkpt>
      <trkpt lat="44.60934" lon="3.78371">
        <ele>1335.7</ele>
        <time>2021-08-09T15:34:36Z</time>
      </trkpt>
      <trkpt lat="44.60929" lon="3.78371">
        <ele>1336.1</ele>
        <time>2021-08-09T15:34:38Z</time>
      </trkpt>
      <trkpt lat="44.60926" lon="3.7837">
        <ele>1336.3</ele>
        <time>2021-08-09T15:34:40Z</time>
      </trkpt>
      <trkpt lat="44.60923" lon="3.78369">
        <ele>1336.5</ele>
        <time>2021-08-09T15:34:42Z</time>
      </trkpt>
      <trkpt lat="44.60919" lon="3.78368">
        <ele>1336.8</ele>
        <time>2021-08-09T15:34:44Z</time>
      </trkpt>
      <trkpt lat="44.60915" lon="3.78368">
        <ele>1337.1</ele>
        <time>2021-08-09T15:34:46Z</time>
      </trkpt>
      <trkpt lat="44.60912" lon="3.78367">
        <ele>1337.5</ele>
        <time>2021-08-09T15:34:48Z</time>
      </trkpt>
      <trkpt lat="44.60908" lon="3.78366">
        <ele>1338</ele>
        <time>2021-08-09T15:34:50Z</time>
      </trkpt>
      <trkpt lat="44.60905" lon="3.78366">
        <ele>1338.5</ele>
        <time>2021-08-09T15:34:52Z</time>
      </trkpt>
      <trkpt lat="44.60901" lon="3.78364">
        <ele>1338.9</ele>
        <time>2021-08-09T15:34:54Z</time>
      </trkpt>
      <trkpt lat="44.60897" lon="3.78363">
        <ele>1339.4</ele>
        <time>2021-08-09T15:34:56Z</time>
      </trkpt>
      <trkpt lat="44.60894" lon="3.78361">
        <ele>1339.7</ele>
        <time>2021-08-09T15:34:58Z</time>
      </trkpt>
      <trkpt lat="44.6089" lon="3.7836">
        <ele>1340.2</ele>
        <time>2021-08-09T15:35:00Z</time>
      </trkpt>
      <trkpt lat="44.60886" lon="3.78358">
        <ele>1340.6</ele>
        <time>2021-08-09T15:35:02Z</time>
      </trkpt>
      <trkpt lat="44.60882" lon="3.78357">
        <ele>1341</ele>
        <time>2021-08-09T15:35:04Z</time>
      </trkpt>
      <trkpt lat="44.60879" lon="3.78355">
        <ele>1341.3</ele>
        <time>2021-08-09T15:35:06Z</time>
      </trkpt>
      <trkpt lat="44.60876" lon="3.78353">
        <ele>1341.6</ele>
        <time>2021-08-09T15:35:08Z</time>
      </trkpt>
      <trkpt lat="44.60873" lon="3.78351">
        <ele>1341.9</ele>
        <time>2021-08-09T15:35:10Z</time>
      </trkpt>
      <trkpt lat="44.6087" lon="3.78349">
        <ele>1342.1</ele>
        <time>2021-08-09T15:35:12Z</time>
      </trkpt>
      <trkpt lat="44.60867" lon="3.78346">
        <ele>1342.3</ele>
        <time>2021-08-09T15:35:14Z</time>
      </trkpt>
      <trkpt lat="44.60864" lon="3.78344">
        <ele>1342.6</ele>
        <time>2021-08-09T15:35:16Z</time>
      </trkpt>
      <trkpt lat="44.60861" lon="3.78341">
        <ele>1342.8</ele>
        <time>2021-08-09T15:35:18Z</time>
      </trkpt>
      <trkpt lat="44.60857" lon="3.78338">
        <ele>1343</ele>
        <time>2021-08-09T15:35:20Z</time>
      </trkpt>
      <trkpt lat="44.60855" lon="3.78336">
        <ele>1343.1</ele>
        <time>2021-08-09T15:35:22Z</time>
      </trkpt>
      <trkpt lat="44.60852" lon="3.78334">
        <ele>1343.4</ele>
        <time>2021-08-09T15:35:24Z</time>
      </trkpt>
      <trkpt lat="44.60848" lon="3.78331">
        <ele>1343.6</ele>
        <time>2021-08-09T15:35:26Z</time>
      </trkpt>
      <trkpt lat="44.60845" lon="3.78328">
        <ele>1343.6</ele>
        <time>2021-08-09T15:35:28Z</time>
      </trkpt>
      <trkpt lat="44.60841" lon="3.78325">
        <ele>1343.8</ele>
        <time>2021-08-09T15:35:30Z</time>
      </trkpt>
      <trkpt lat="44.60837" lon="3.78322">
        <ele>1343.9</ele>
        <time>2021-08-09T15:35:32Z</time>
      </trkpt>
      <trkpt lat="44.60834" lon="3.78318">
        <ele>1343.9</ele>
        <time>2021-08-09T15:35:34Z</time>
      </trkpt>
      <trkpt lat="44.60831" lon="3.78315">
        <ele>1343.8</ele>
        <time>2021-08-09T15:35:36Z</time>
      </trkpt>
      <trkpt lat="44.60828" lon="3.78311">
        <ele>1343.8</ele>
        <time>2021-08-09T15:35:38Z</time>
      </trkpt>
      <trkpt lat="44.60825" lon="3.78309">
        <ele>1344</ele>
        <time>2021-08-09T15:35:40Z</time>
      </trkpt>
      <trkpt lat="44.60821" lon="3.78307">
        <ele>1344.4</ele>
        <time>2021-08-09T15:35:42Z</time>
      </trkpt>
      <trkpt lat="44.60819" lon="3.78303">
        <ele>1344.2</ele>
        <time>2021-08-09T15:35:44Z</time>
      </trkpt>
      <trkpt lat="44.60816" lon="3.78301">
        <ele>1344.4</ele>
        <time>2021-08-09T15:35:46Z</time>
      </trkpt>
      <trkpt lat="44.60812" lon="3.78298">
        <ele>1344.5</ele>
        <time>2021-08-09T15:35:48Z</time>
      </trkpt>
      <trkpt lat="44.6081" lon="3.78294">
        <ele>1344.6</ele>
        <time>2021-08-09T15:35:50Z</time>
      </trkpt>
      <trkpt lat="44.60807" lon="3.7829">
        <ele>1344.6</ele>
        <time>2021-08-09T15:35:52Z</time>
      </trkpt>
      <trkpt lat="44.60804" lon="3.78286">
        <ele>1344.6</ele>
        <time>2021-08-09T15:35:54Z</time>
      </trkpt>
      <trkpt lat="44.60802" lon="3.78283">
        <ele>1344.7</ele>
        <time>2021-08-09T15:35:56Z</time>
      </trkpt>
      <trkpt lat="44.60798" lon="3.7828">
        <ele>1345</ele>
        <time>2021-08-09T15:35:58Z</time>
      </trkpt>
      <trkpt lat="44.60795" lon="3.78276">
        <ele>1345.2</ele>
        <time>2021-08-09T15:36:00Z</time>
      </trkpt>
      <trkpt lat="44.60793" lon="3.78273">
        <ele>1345.4</ele>
        <time>2021-08-09T15:36:02Z</time>
      </trkpt>
      <trkpt lat="44.6079" lon="3.7827">
        <ele>1345.7</ele>
        <time>2021-08-09T15:36:04Z</time>
      </trkpt>
      <trkpt lat="44.60787" lon="3.78266">
        <ele>1345.9</ele>
        <time>2021-08-09T15:36:06Z</time>
      </trkpt>
      <trkpt lat="44.60785" lon="3.78262">
        <ele>1346</ele>
        <time>2021-08-09T15:36:08Z</time>
      </trkpt>
      <trkpt lat="44.60782" lon="3.7826">
        <ele>1346.3</ele>
        <time>2021-08-09T15:36:10Z</time>
      </trkpt>
      <trkpt lat="44.60778" lon="3.78257">
        <ele>1346.8</ele>
        <time>2021-08-09T15:36:12Z</time>
      </trkpt>
      <trkpt lat="44.60776" lon="3.78254">
        <ele>1347</ele>
        <time>2021-08-09T15:36:14Z</time>
      </trkpt>
      <trkpt lat="44.60774" lon="3.7825">
        <ele>1347.1</ele>
        <time>2021-08-09T15:36:16Z</time>
      </trkpt>
      <trkpt lat="44.60772" lon="3.78248">
        <ele>1347.5</ele>
        <time>2021-08-09T15:36:18Z</time>
      </trkpt>
      <trkpt lat="44.60769" lon="3.78245">
        <ele>1348</ele>
        <time>2021-08-09T15:36:20Z</time>
      </trkpt>
      <trkpt lat="44.60767" lon="3.78242">
        <ele>1348.4</ele>
        <time>2021-08-09T15:36:22Z</time>
      </trkpt>
      <trkpt lat="44.60765" lon="3.78238">
        <ele>1348.7</ele>
        <time>2021-08-09T15:36:24Z</time>
      </trkpt>
      <trkpt lat="44.60762" lon="3.78235">
        <ele>1349.2</ele>
        <time>2021-08-09T15:36:26Z</time>
      </trkpt>
      <trkpt lat="44.60759" lon="3.78231">
        <ele>1349.6</ele>
        <time>2021-08-09T15:36:28Z</time>
      </trkpt>
      <trkpt lat="44.60757" lon="3.78229">
        <ele>1350.1</ele>
        <time>2021-08-09T15:36:30Z</time>
      </trkpt>
      <trkpt lat="44.60754" lon="3.78226">
        <ele>1350.5</ele>
        <time>2021-08-09T15:36:32Z</time>
      </trkpt>
      <trkpt lat="44.60751" lon="3.78222">
        <ele>1351.1</ele>
        <time>2021-08-09T15:36:34Z</time>
      </trkpt>
      <trkpt lat="44.60749" lon="3.78219">
        <ele>1351.4</ele>
        <time>2021-08-09T15:36:36Z</time>
      </trkpt>
      <trkpt lat="44.60746" lon="3.78216">
        <ele>1351.7</ele>
        <time>2021-08-09T15:36:38Z</time>
      </trkpt>
      <trkpt lat="44.60743" lon="3.78213">
        <ele>1352</ele>
        <time>2021-08-09T15:36:40Z</time>
      </trkpt>
      <trkpt lat="44.6074" lon="3.7821">
        <ele>1352.3</ele>
        <time>2021-08-09T15:36:42Z</time>
      </trkpt>
      <trkpt lat="44.60737" lon="3.78207">
        <ele>1352.6</ele>
        <time>2021-08-09T15:36:44Z</time>
      </trkpt>
      <trkpt lat="44.60734" lon="3.78204">
        <ele>1353</ele>
        <time>2021-08-09T15:36:46Z</time>
      </trkpt>
      <trkpt lat="44.6073" lon="3.78201">
        <ele>1353.4</ele>
        <time>2021-08-09T15:36:48Z</time>
      </trkpt>
      <trkpt lat="44.60727" lon="3.78198">
        <ele>1353.7</ele>
        <time>2021-08-09T15:36:50Z</time>
      </trkpt>
      <trkpt lat="44.60724" lon="3.78195">
        <ele>1354.1</ele>
        <time>2021-08-09T15:36:52Z</time>
      </trkpt>
      <trkpt lat="44.60722" lon="3.78191">
        <ele>1354.4</ele>
        <time>2021-08-09T15:36:54Z</time>
      </trkpt>
      <trkpt lat="44.60719" lon="3.78188">
        <ele>1354.7</ele>
        <time>2021-08-09T15:36:56Z</time>
      </trkpt>
      <trkpt lat="44.60717" lon="3.78184">
        <ele>1354.9</ele>
        <time>2021-08-09T15:36:58Z</time>
      </trkpt>
      <trkpt lat="44.60715" lon="3.78179">
        <ele>1355.2</ele>
        <time>2021-08-09T15:37:00Z</time>
      </trkpt>
      <trkpt lat="44.60712" lon="3.78176">
        <ele>1355.6</ele>
        <time>2021-08-09T15:37:02Z</time>
      </trkpt>
      <trkpt lat="44.6071" lon="3.78172">
        <ele>1355.8</ele>
        <time>2021-08-09T15:37:04Z</time>
      </trkpt>
      <trkpt lat="44.60707" lon="3.78168">
        <ele>1356.2</ele>
        <time>2021-08-09T15:37:06Z</time>
      </trkpt>
      <trkpt lat="44.60705" lon="3.78164">
        <ele>1356.5</ele>
        <time>2021-08-09T15:37:08Z</time>
      </trkpt>
      <trkpt lat="44.60703" lon="3.78161">
        <ele>1356.8</ele>
        <time>2021-08-09T15:37:10Z</time>
      </trkpt>
      <trkpt lat="44.607" lon="3.78158">
        <ele>1357.2</ele>
        <time>2021-08-09T15:37:12Z</time>
      </trkpt>
      <trkpt lat="44.60698" lon="3.78154">
        <ele>1357.5</ele>
        <time>2021-08-09T15:37:14Z</time>
      </trkpt>
      <trkpt lat="44.60695" lon="3.78151">
        <ele>1358</ele>
        <time>2021-08-09T15:37:16Z</time>
      </trkpt>
      <trkpt lat="44.60692" lon="3.78148">
        <ele>1358.4</ele>
        <time>2021-08-09T15:37:18Z</time>
      </trkpt>
      <trkpt lat="44.6069" lon="3.78144">
        <ele>1358.8</ele>
        <time>2021-08-09T15:37:20Z</time>
      </trkpt>
      <trkpt lat="44.60687" lon="3.7814">
        <ele>1359.3</ele>
        <time>2021-08-09T15:37:22Z</time>
      </trkpt>
      <trkpt lat="44.60685" lon="3.78136">
        <ele>1359.6</ele>
        <time>2021-08-09T15:37:24Z</time>
      </trkpt>
      <trkpt lat="44.60683" lon="3.78132">
        <ele>1360.1</ele>
        <time>2021-08-09T15:37:26Z</time>
      </trkpt>
      <trkpt lat="44.6068" lon="3.78129">
        <ele>1360.5</ele>
        <time>2021-08-09T15:37:28Z</time>
      </trkpt>
      <trkpt lat="44.60678" lon="3.78125">
        <ele>1361</ele>
        <time>2021-08-09T15:37:30Z</time>
      </trkpt>
      <trkpt lat="44.60675" lon="3.78121">
        <ele>1361.6</ele>
        <time>2021-08-09T15:37:32Z</time>
      </trkpt>
      <trkpt lat="44.60674" lon="3.78117">
        <ele>1361.9</ele>
        <time>2021-08-09T15:37:34Z</time>
      </trkpt>
      <trkpt lat="44.60672" lon="3.78112">
        <ele>1362.3</ele>
        <time>2021-08-09T15:37:36Z</time>
      </trkpt>
      <trkpt lat="44.6067" lon="3.78108">
        <ele>1362.8</ele>
        <time>2021-08-09T15:37:38Z</time>
      </trkpt>
      <trkpt lat="44.60668" lon="3.78104">
        <ele>1363.2</ele>
        <time>2021-08-09T15:37:40Z</time>
      </trkpt>
      <trkpt lat="44.60667" lon="3.78099">
        <ele>1363.6</ele>
        <time>2021-08-09T15:37:42Z</time>
      </trkpt>
      <trkpt lat="44.60665" lon="3.78095">
        <ele>1363.9</ele>
        <time>2021-08-09T15:37:44Z</time>
      </trkpt>
      <trkpt lat="44.60663" lon="3.78091">
        <ele>1364.2</ele>
        <time>2021-08-09T15:37:46Z</time>
      </trkpt>
      <trkpt lat="44.60662" lon="3.78086">
        <ele>1364.5</ele>
        <time>2021-08-09T15:37:48Z</time>
      </trkpt>
      <trkpt lat="44.6066" lon="3.78082">
        <ele>1364.8</ele>
        <time>2021-08-09T15:37:50Z</time>
      </trkpt>
      <trkpt lat="44.60659" lon="3.78077">
        <ele>1364.9</ele>
        <time>2021-08-09T15:37:52Z</time>
      </trkpt>
      <trkpt lat="44.60658" lon="3.78072">
        <ele>1365.1</ele>
        <time>2021-08-09T15:37:54Z</time>
      </trkpt>
      <trkpt lat="44.60657" lon="3.78067">
        <ele>1365.3</ele>
        <time>2021-08-09T15:37:56Z</time>
      </trkpt>
      <trkpt lat="44.60657" lon="3.78061">
        <ele>1365.4</ele>
        <time>2021-08-09T15:37:58Z</time>
      </trkpt>
      <trkpt lat="44.60656" lon="3.78056">
        <ele>1365.5</ele>
        <time>2021-08-09T15:38:00Z</time>
      </trkpt>
      <trkpt lat="44.60656" lon="3.78051">
        <ele>1365.6</ele>
        <time>2021-08-09T15:38:02Z</time>
      </trkpt>
      <trkpt lat="44.60656" lon="3.78046">
        <ele>1365.6</ele>
        <time>2021-08-09T15:38:04Z</time>
      </trkpt>
      <trkpt lat="44.60656" lon="3.7804">
        <ele>1365.6</ele>
        <time>2021-08-09T15:38:06Z</time>
      </trkpt>
      <trkpt lat="44.60656" lon="3.78034">
        <ele>1365.7</ele>
        <time>2021-08-09T15:38:08Z</time>
      </trkpt>
      <trkpt lat="44.60656" lon="3.78029">
        <ele>1365.7</ele>
        <time>2021-08-09T15:38:10Z</time>
      </trkpt>
      <trkpt lat="44.60656" lon="3.78024">
        <ele>1365.8</ele>
        <time>2021-08-09T15:38:12Z</time>
      </trkpt>
      <trkpt lat="44.60656" lon="3.78019">
        <ele>1365.8</ele>
        <time>2021-08-09T15:38:14Z</time>
      </trkpt>
      <trkpt lat="44.60656" lon="3.78014">
        <ele>1365.9</ele>
        <time>2021-08-09T15:38:16Z</time>
      </trkpt>
      <trkpt lat="44.60655" lon="3.78009">
        <ele>1366</ele>
        <time>2021-08-09T15:38:18Z</time>
      </trkpt>
      <trkpt lat="44.60655" lon="3.78003">
        <ele>1366.1</ele>
        <time>2021-08-09T15:38:20Z</time>
      </trkpt>
      <trkpt lat="44.60654" lon="3.77998">
        <ele>1366.3</ele>
        <time>2021-08-09T15:38:22Z</time>
      </trkpt>
      <trkpt lat="44.60654" lon="3.77993">
        <ele>1366.4</ele>
        <time>2021-08-09T15:38:24Z</time>
      </trkpt>
      <trkpt lat="44.60654" lon="3.77988">
        <ele>1366.6</ele>
        <time>2021-08-09T15:38:26Z</time>
      </trkpt>
      <trkpt lat="44.60654" lon="3.77983">
        <ele>1366.7</ele>
        <time>2021-08-09T15:38:28Z</time>
      </trkpt>
      <trkpt lat="44.60653" lon="3.77978">
        <ele>1366.9</ele>
        <time>2021-08-09T15:38:30Z</time>
      </trkpt>
      <trkpt lat="44.60653" lon="3.77973">
        <ele>1367.2</ele>
        <time>2021-08-09T15:38:32Z</time>
      </trkpt>
      <trkpt lat="44.60652" lon="3.77968">
        <ele>1367.4</ele>
        <time>2021-08-09T15:38:34Z</time>
      </trkpt>
      <trkpt lat="44.60651" lon="3.77963">
        <ele>1367.7</ele>
        <time>2021-08-09T15:38:36Z</time>
      </trkpt>
      <trkpt lat="44.6065" lon="3.77958">
        <ele>1368</ele>
        <time>2021-08-09T15:38:38Z</time>
      </trkpt>
      <trkpt lat="44.6065" lon="3.77952">
        <ele>1368.2</ele>
        <time>2021-08-09T15:38:40Z</time>
      </trkpt>
      <trkpt lat="44.60649" lon="3.77948">
        <ele>1368.4</ele>
        <time>2021-08-09T15:38:42Z</time>
      </trkpt>
      <trkpt lat="44.60649" lon="3.77942">
        <ele>1368.5</ele>
        <time>2021-08-09T15:38:44Z</time>
      </trkpt>
      <trkpt lat="44.60648" lon="3.77937">
        <ele>1368.8</ele>
        <time>2021-08-09T15:38:46Z</time>
      </trkpt>
      <trkpt lat="44.60648" lon="3.77932">
        <ele>1368.9</ele>
        <time>2021-08-09T15:38:48Z</time>
      </trkpt>
      <trkpt lat="44.60646" lon="3.77929">
        <ele>1369.4</ele>
        <time>2021-08-09T15:38:50Z</time>
      </trkpt>
      <trkpt lat="44.60646" lon="3.77923">
        <ele>1369.5</ele>
        <time>2021-08-09T15:38:52Z</time>
      </trkpt>
      <trkpt lat="44.60646" lon="3.77918">
        <ele>1369.6</ele>
        <time>2021-08-09T15:38:54Z</time>
      </trkpt>
      <trkpt lat="44.60646" lon="3.77913">
        <ele>1369.7</ele>
        <time>2021-08-09T15:38:56Z</time>
      </trkpt>
      <trkpt lat="44.60645" lon="3.77908">
        <ele>1369.8</ele>
        <time>2021-08-09T15:38:58Z</time>
      </trkpt>
      <trkpt lat="44.60644" lon="3.77904">
        <ele>1370</ele>
        <time>2021-08-09T15:39:00Z</time>
      </trkpt>
      <trkpt lat="44.60644" lon="3.77899">
        <ele>1370</ele>
        <time>2021-08-09T15:39:02Z</time>
      </trkpt>
      <trkpt lat="44.60643" lon="3.77894">
        <ele>1370</ele>
        <time>2021-08-09T15:39:04Z</time>
      </trkpt>
      <trkpt lat="44.60643" lon="3.77889">
        <ele>1370.1</ele>
        <time>2021-08-09T15:39:06Z</time>
      </trkpt>
      <trkpt lat="44.60642" lon="3.77885">
        <ele>1370.2</ele>
        <time>2021-08-09T15:39:08Z</time>
      </trkpt>
      <trkpt lat="44.60641" lon="3.77881">
        <ele>1370.2</ele>
        <time>2021-08-09T15:39:10Z</time>
      </trkpt>
      <trkpt lat="44.60641" lon="3.77876">
        <ele>1370.2</ele>
        <time>2021-08-09T15:39:12Z</time>
      </trkpt>
      <trkpt lat="44.60641" lon="3.77871">
        <ele>1370.1</ele>
        <time>2021-08-09T15:39:14Z</time>
      </trkpt>
      <trkpt lat="44.60641" lon="3.77866">
        <ele>1370.1</ele>
        <time>2021-08-09T15:39:16Z</time>
      </trkpt>
      <trkpt lat="44.60641" lon="3.7786">
        <ele>1370</ele>
        <time>2021-08-09T15:39:18Z</time>
      </trkpt>
      <trkpt lat="44.60642" lon="3.77855">
        <ele>1369.9</ele>
        <time>2021-08-09T15:39:20Z</time>
      </trkpt>
      <trkpt lat="44.60642" lon="3.7785">
        <ele>1369.9</ele>
        <time>2021-08-09T15:39:22Z</time>
      </trkpt>
      <trkpt lat="44.60642" lon="3.77844">
        <ele>1369.7</ele>
        <time>2021-08-09T15:39:24Z</time>
      </trkpt>
      <trkpt lat="44.60643" lon="3.77839">
        <ele>1369.6</ele>
        <time>2021-08-09T15:39:26Z</time>
      </trkpt>
      <trkpt lat="44.60643" lon="3.77834">
        <ele>1369.6</ele>
        <time>2021-08-09T15:39:28Z</time>
      </trkpt>
      <trkpt lat="44.60644" lon="3.77828">
        <ele>1369.3</ele>
        <time>2021-08-09T15:39:30Z</time>
      </trkpt>
      <trkpt lat="44.60645" lon="3.77824">
        <ele>1369.1</ele>
        <time>2021-08-09T15:39:32Z</time>
      </trkpt>
      <trkpt lat="44.60645" lon="3.77818">
        <ele>1369</ele>
        <time>2021-08-09T15:39:34Z</time>
      </trkpt>
      <trkpt lat="44.60646" lon="3.77813">
        <ele>1368.8</ele>
        <time>2021-08-09T15:39:36Z</time>
      </trkpt>
      <trkpt lat="44.60646" lon="3.77808">
        <ele>1368.7</ele>
        <time>2021-08-09T15:39:38Z</time>
      </trkpt>
      <trkpt lat="44.60647" lon="3.77803">
        <ele>1368.5</ele>
        <time>2021-08-09T15:39:40Z</time>
      </trkpt>
      <trkpt lat="44.60647" lon="3.77797">
        <ele>1368.4</ele>
        <time>2021-08-09T15:39:42Z</time>
      </trkpt>
      <trkpt lat="44.60647" lon="3.77792">
        <ele>1368.3</ele>
        <time>2021-08-09T15:39:44Z</time>
      </trkpt>
      <trkpt lat="44.60645" lon="3.77788">
        <ele>1368.3</ele>
        <time>2021-08-09T15:39:46Z</time>
      </trkpt>
      <trkpt lat="44.60645" lon="3.77783">
        <ele>1368.2</ele>
        <time>2021-08-09T15:39:48Z</time>
      </trkpt>
      <trkpt lat="44.60644" lon="3.77778">
        <ele>1368.2</ele>
        <time>2021-08-09T15:39:50Z</time>
      </trkpt>
      <trkpt lat="44.60643" lon="3.77773">
        <ele>1368.1</ele>
        <time>2021-08-09T15:39:52Z</time>
      </trkpt>
      <trkpt lat="44.6064" lon="3.77769">
        <ele>1368.2</ele>
        <time>2021-08-09T15:39:54Z</time>
      </trkpt>
      <trkpt lat="44.60638" lon="3.77765">
        <ele>1368.1</ele>
        <time>2021-08-09T15:39:56Z</time>
      </trkpt>
      <trkpt lat="44.60636" lon="3.77761">
        <ele>1368.1</ele>
        <time>2021-08-09T15:39:58Z</time>
      </trkpt>
      <trkpt lat="44.60633" lon="3.77759">
        <ele>1368.1</ele>
        <time>2021-08-09T15:40:00Z</time>
      </trkpt>
      <trkpt lat="44.6063" lon="3.77757">
        <ele>1368.1</ele>
        <time>2021-08-09T15:40:02Z</time>
      </trkpt>
      <trkpt lat="44.60627" lon="3.77754">
        <ele>1368.1</ele>
        <time>2021-08-09T15:40:04Z</time>
      </trkpt>
      <trkpt lat="44.60624" lon="3.77752">
        <ele>1368.1</ele>
        <time>2021-08-09T15:40:06Z</time>
      </trkpt>
      <trkpt lat="44.60621" lon="3.77749">
        <ele>1368.1</ele>
        <time>2021-08-09T15:40:08Z</time>
      </trkpt>
      <trkpt lat="44.60617" lon="3.77748">
        <ele>1368.1</ele>
        <time>2021-08-09T15:40:10Z</time>
      </trkpt>
      <trkpt lat="44.60614" lon="3.77748">
        <ele>1368.2</ele>
        <time>2021-08-09T15:40:12Z</time>
      </trkpt>
      <trkpt lat="44.6061" lon="3.77746">
        <ele>1368.2</ele>
        <time>2021-08-09T15:40:14Z</time>
      </trkpt>
      <trkpt lat="44.60608" lon="3.77744">
        <ele>1368.2</ele>
        <time>2021-08-09T15:40:16Z</time>
      </trkpt>
      <trkpt lat="44.60604" lon="3.77744">
        <ele>1368.2</ele>
        <time>2021-08-09T15:40:18Z</time>
      </trkpt>
      <trkpt lat="44.606" lon="3.77743">
        <ele>1368.3</ele>
        <time>2021-08-09T15:40:20Z</time>
      </trkpt>
      <trkpt lat="44.60597" lon="3.77742">
        <ele>1368.3</ele>
        <time>2021-08-09T15:40:22Z</time>
      </trkpt>
      <trkpt lat="44.60594" lon="3.7774">
        <ele>1368.3</ele>
        <time>2021-08-09T15:40:24Z</time>
      </trkpt>
      <trkpt lat="44.60589" lon="3.77739">
        <ele>1368.3</ele>
        <time>2021-08-09T15:40:26Z</time>
      </trkpt>
      <trkpt lat="44.60584" lon="3.77738">
        <ele>1368.3</ele>
        <time>2021-08-09T15:40:28Z</time>
      </trkpt>
      <trkpt lat="44.60578" lon="3.77738">
        <ele>1368.4</ele>
        <time>2021-08-09T15:40:30Z</time>
      </trkpt>
      <trkpt lat="44.60573" lon="3.77736">
        <ele>1368.5</ele>
        <time>2021-08-09T15:40:32Z</time>
      </trkpt>
      <trkpt lat="44.60567" lon="3.77735">
        <ele>1368.6</ele>
        <time>2021-08-09T15:40:34Z</time>
      </trkpt>
      <trkpt lat="44.60561" lon="3.77734">
        <ele>1368.6</ele>
        <time>2021-08-09T15:40:36Z</time>
      </trkpt>
      <trkpt lat="44.60556" lon="3.77733">
        <ele>1368.7</ele>
        <time>2021-08-09T15:40:38Z</time>
      </trkpt>
      <trkpt lat="44.60552" lon="3.77733">
        <ele>1368.8</ele>
        <time>2021-08-09T15:40:40Z</time>
      </trkpt>
      <trkpt lat="44.60546" lon="3.77732">
        <ele>1368.8</ele>
        <time>2021-08-09T15:40:42Z</time>
      </trkpt>
      <trkpt lat="44.60541" lon="3.77732">
        <ele>1369</ele>
        <time>2021-08-09T15:40:44Z</time>
      </trkpt>
      <trkpt lat="44.60536" lon="3.77731">
        <ele>1369</ele>
        <time>2021-08-09T15:40:46Z</time>
      </trkpt>
      <trkpt lat="44.60531" lon="3.77732">
        <ele>1369.2</ele>
        <time>2021-08-09T15:40:48Z</time>
      </trkpt>
      <trkpt lat="44.60528" lon="3.77732">
        <ele>1369.3</ele>
        <time>2021-08-09T15:40:50Z</time>
      </trkpt>
      <trkpt lat="44.60523" lon="3.77732">
        <ele>1369.5</ele>
        <time>2021-08-09T15:40:52Z</time>
      </trkpt>
      <trkpt lat="44.6052" lon="3.77734">
        <ele>1369.7</ele>
        <time>2021-08-09T15:40:54Z</time>
      </trkpt>
      <trkpt lat="44.60517" lon="3.77738">
        <ele>1370.2</ele>
        <time>2021-08-09T15:40:56Z</time>
      </trkpt>
      <trkpt lat="44.60514" lon="3.77738">
        <ele>1370.3</ele>
        <time>2021-08-09T15:40:58Z</time>
      </trkpt>
      <trkpt lat="44.60509" lon="3.77737">
        <ele>1370.3</ele>
        <time>2021-08-09T15:41:00Z</time>
      </trkpt>
      <trkpt lat="44.60505" lon="3.77738">
        <ele>1370.5</ele>
        <time>2021-08-09T15:41:02Z</time>
      </trkpt>
      <trkpt lat="44.60501" lon="3.77739">
        <ele>1370.8</ele>
        <time>2021-08-09T15:41:04Z</time>
      </trkpt>
      <trkpt lat="44.60498" lon="3.7774">
        <ele>1370.8</ele>
        <time>2021-08-09T15:41:06Z</time>
      </trkpt>
      <trkpt lat="44.60496" lon="3.7774">
        <ele>1370.7</ele>
        <time>2021-08-09T15:41:08Z</time>
      </trkpt>
      <trkpt lat="44.60493" lon="3.77741">
        <ele>1370.6</ele>
        <time>2021-08-09T15:41:10Z</time>
      </trkpt>
      <trkpt lat="44.60489" lon="3.77742">
        <ele>1370.5</ele>
        <time>2021-08-09T15:41:12Z</time>
      </trkpt>
      <trkpt lat="44.60486" lon="3.77744">
        <ele>1370.5</ele>
        <time>2021-08-09T15:41:14Z</time>
      </trkpt>
      <trkpt lat="44.60483" lon="3.77745">
        <ele>1370.4</ele>
        <time>2021-08-09T15:41:16Z</time>
      </trkpt>
      <trkpt lat="44.6048" lon="3.77746">
        <ele>1370.4</ele>
        <time>2021-08-09T15:41:18Z</time>
      </trkpt>
      <trkpt lat="44.60476" lon="3.77747">
        <ele>1370.3</ele>
        <time>2021-08-09T15:41:20Z</time>
      </trkpt>
      <trkpt lat="44.60472" lon="3.77749">
        <ele>1370.2</ele>
        <time>2021-08-09T15:41:22Z</time>
      </trkpt>
      <trkpt lat="44.60469" lon="3.77749">
        <ele>1370.1</ele>
        <time>2021-08-09T15:41:24Z</time>
      </trkpt>
      <trkpt lat="44.60466" lon="3.77751">
        <ele>1370.1</ele>
        <time>2021-08-09T15:41:26Z</time>
      </trkpt>
      <trkpt lat="44.60463" lon="3.77752">
        <ele>1370</ele>
        <time>2021-08-09T15:41:28Z</time>
      </trkpt>
      <trkpt lat="44.60459" lon="3.77754">
        <ele>1370</ele>
        <time>2021-08-09T15:41:30Z</time>
      </trkpt>
      <trkpt lat="44.60456" lon="3.77756">
        <ele>1370.1</ele>
        <time>2021-08-09T15:41:32Z</time>
      </trkpt>
      <trkpt lat="44.60452" lon="3.77758">
        <ele>1370.1</ele>
        <time>2021-08-09T15:41:34Z</time>
      </trkpt>
      <trkpt lat="44.60449" lon="3.7776">
        <ele>1370.1</ele>
        <time>2021-08-09T15:41:36Z</time>
      </trkpt>
      <trkpt lat="44.60445" lon="3.77762">
        <ele>1370.1</ele>
        <time>2021-08-09T15:41:38Z</time>
      </trkpt>
      <trkpt lat="44.60443" lon="3.77764">
        <ele>1370.3</ele>
        <time>2021-08-09T15:41:40Z</time>
      </trkpt>
      <trkpt lat="44.60438" lon="3.77766">
        <ele>1370.2</ele>
        <time>2021-08-09T15:41:42Z</time>
      </trkpt>
      <trkpt lat="44.60433" lon="3.77767">
        <ele>1370.1</ele>
        <time>2021-08-09T15:41:44Z</time>
      </trkpt>
      <trkpt lat="44.6043" lon="3.77768">
        <ele>1370</ele>
        <time>2021-08-09T15:41:46Z</time>
      </trkpt>
      <trkpt lat="44.60426" lon="3.7777">
        <ele>1370</ele>
        <time>2021-08-09T15:41:48Z</time>
      </trkpt>
      <trkpt lat="44.60423" lon="3.77772">
        <ele>1370</ele>
        <time>2021-08-09T15:41:50Z</time>
      </trkpt>
      <trkpt lat="44.6042" lon="3.77775">
        <ele>1370.2</ele>
        <time>2021-08-09T15:41:52Z</time>
      </trkpt>
      <trkpt lat="44.60415" lon="3.77777">
        <ele>1370.1</ele>
        <time>2021-08-09T15:41:54Z</time>
      </trkpt>
      <trkpt lat="44.60412" lon="3.77779">
        <ele>1370.2</ele>
        <time>2021-08-09T15:41:56Z</time>
      </trkpt>
      <trkpt lat="44.60408" lon="3.77781">
        <ele>1370.4</ele>
        <time>2021-08-09T15:41:58Z</time>
      </trkpt>
      <trkpt lat="44.60403" lon="3.77784">
        <ele>1370.4</ele>
        <time>2021-08-09T15:42:00Z</time>
      </trkpt>
      <trkpt lat="44.60399" lon="3.77786">
        <ele>1370.6</ele>
        <time>2021-08-09T15:42:02Z</time>
      </trkpt>
      <trkpt lat="44.60396" lon="3.77788">
        <ele>1370.5</ele>
        <time>2021-08-09T15:42:04Z</time>
      </trkpt>
      <trkpt lat="44.60391" lon="3.77792">
        <ele>1370.8</ele>
        <time>2021-08-09T15:42:06Z</time>
      </trkpt>
      <trkpt lat="44.60387" lon="3.77791">
        <ele>1370.5</ele>
        <time>2021-08-09T15:42:08Z</time>
      </trkpt>
      <trkpt lat="44.60382" lon="3.77794">
        <ele>1370.6</ele>
        <time>2021-08-09T15:42:10Z</time>
      </trkpt>
      <trkpt lat="44.60377" lon="3.77799">
        <ele>1370.8</ele>
        <time>2021-08-09T15:42:12Z</time>
      </trkpt>
      <trkpt lat="44.60373" lon="3.77801">
        <ele>1370.8</ele>
        <time>2021-08-09T15:42:14Z</time>
      </trkpt>
      <trkpt lat="44.60368" lon="3.77803">
        <ele>1370.7</ele>
        <time>2021-08-09T15:42:16Z</time>
      </trkpt>
      <trkpt lat="44.60362" lon="3.77804">
        <ele>1370.5</ele>
        <time>2021-08-09T15:42:18Z</time>
      </trkpt>
      <trkpt lat="44.60358" lon="3.77806">
        <ele>1370.4</ele>
        <time>2021-08-09T15:42:20Z</time>
      </trkpt>
      <trkpt lat="44.60353" lon="3.77808">
        <ele>1370.3</ele>
        <time>2021-08-09T15:42:22Z</time>
      </trkpt>
      <trkpt lat="44.60348" lon="3.77809">
        <ele>1370.1</ele>
        <time>2021-08-09T15:42:24Z</time>
      </trkpt>
      <trkpt lat="44.60342" lon="3.77811">
        <ele>1369.9</ele>
        <time>2021-08-09T15:42:26Z</time>
      </trkpt>
      <trkpt lat="44.60336" lon="3.77814">
        <ele>1369.7</ele>
        <time>2021-08-09T15:42:28Z</time>
      </trkpt>
      <trkpt lat="44.60332" lon="3.77816">
        <ele>1369.7</ele>
        <time>2021-08-09T15:42:30Z</time>
      </trkpt>
      <trkpt lat="44.60325" lon="3.77817">
        <ele>1369.5</ele>
        <time>2021-08-09T15:42:32Z</time>
      </trkpt>
      <trkpt lat="44.60318" lon="3.77819">
        <ele>1369.4</ele>
        <time>2021-08-09T15:42:34Z</time>
      </trkpt>
      <trkpt lat="44.60315" lon="3.77819">
        <ele>1369.3</ele>
        <time>2021-08-09T15:42:36Z</time>
      </trkpt>
      <trkpt lat="44.60315" lon="3.7782">
        <ele>1369.3</ele>
        <time>2021-08-09T15:42:38Z</time>
      </trkpt>
      <trkpt lat="44.60314" lon="3.7782">
        <ele>1369.3</ele>
        <time>2021-08-09T15:42:40Z</time>
      </trkpt>
      <trkpt lat="44.60312" lon="3.77821">
        <ele>1369.3</ele>
        <time>2021-08-09T15:42:42Z</time>
      </trkpt>
      <trkpt lat="44.60311" lon="3.77821">
        <ele>1369.3</ele>
        <time>2021-08-09T15:42:44Z</time>
      </trkpt>
      <trkpt lat="44.60309" lon="3.77821">
        <ele>1369.3</ele>
        <time>2021-08-09T15:42:46Z</time>
      </trkpt>
      <trkpt lat="44.60288" lon="3.7783">
        <ele>1369.1</ele>
        <time>2021-08-09T15:43:10Z</time>
      </trkpt>
      <trkpt lat="44.60284" lon="3.77829">
        <ele>1368.9</ele>
        <time>2021-08-09T15:43:12Z</time>
      </trkpt>
      <trkpt lat="44.60277" lon="3.7783">
        <ele>1368.7</ele>
        <time>2021-08-09T15:43:14Z</time>
      </trkpt>
      <trkpt lat="44.60273" lon="3.77831">
        <ele>1368.6</ele>
        <time>2021-08-09T15:43:16Z</time>
      </trkpt>
      <trkpt lat="44.60268" lon="3.77833">
        <ele>1368.6</ele>
        <time>2021-08-09T15:43:18Z</time>
      </trkpt>
      <trkpt lat="44.60262" lon="3.77834">
        <ele>1368.6</ele>
        <time>2021-08-09T15:43:20Z</time>
      </trkpt>
      <trkpt lat="44.60257" lon="3.77835">
        <ele>1368.5</ele>
        <time>2021-08-09T15:43:22Z</time>
      </trkpt>
      <trkpt lat="44.60251" lon="3.77837">
        <ele>1368.6</ele>
        <time>2021-08-09T15:43:24Z</time>
      </trkpt>
      <trkpt lat="44.60244" lon="3.77837">
        <ele>1369</ele>
        <time>2021-08-09T15:43:26Z</time>
      </trkpt>
      <trkpt lat="44.60239" lon="3.77839">
        <ele>1369.6</ele>
        <time>2021-08-09T15:43:28Z</time>
      </trkpt>
      <trkpt lat="44.60231" lon="3.7784">
        <ele>1370.1</ele>
        <time>2021-08-09T15:43:30Z</time>
      </trkpt>
      <trkpt lat="44.60224" lon="3.77841">
        <ele>1370.7</ele>
        <time>2021-08-09T15:43:32Z</time>
      </trkpt>
      <trkpt lat="44.60215" lon="3.77843">
        <ele>1371.6</ele>
        <time>2021-08-09T15:43:34Z</time>
      </trkpt>
      <trkpt lat="44.60208" lon="3.77843">
        <ele>1372</ele>
        <time>2021-08-09T15:43:36Z</time>
      </trkpt>
      <trkpt lat="44.602" lon="3.77844">
        <ele>1372.6</ele>
        <time>2021-08-09T15:43:38Z</time>
      </trkpt>
      <trkpt lat="44.60194" lon="3.77845">
        <ele>1373.1</ele>
        <time>2021-08-09T15:43:40Z</time>
      </trkpt>
      <trkpt lat="44.60187" lon="3.77845">
        <ele>1373.4</ele>
        <time>2021-08-09T15:43:42Z</time>
      </trkpt>
      <trkpt lat="44.6018" lon="3.77846">
        <ele>1374</ele>
        <time>2021-08-09T15:43:44Z</time>
      </trkpt>
      <trkpt lat="44.60174" lon="3.77847">
        <ele>1374.5</ele>
        <time>2021-08-09T15:43:46Z</time>
      </trkpt>
      <trkpt lat="44.60166" lon="3.77849">
        <ele>1375.1</ele>
        <time>2021-08-09T15:43:48Z</time>
      </trkpt>
      <trkpt lat="44.60159" lon="3.7785">
        <ele>1375.4</ele>
        <time>2021-08-09T15:43:50Z</time>
      </trkpt>
      <trkpt lat="44.60152" lon="3.77852">
        <ele>1375.8</ele>
        <time>2021-08-09T15:43:52Z</time>
      </trkpt>
      <trkpt lat="44.60144" lon="3.7785">
        <ele>1375.8</ele>
        <time>2021-08-09T15:43:54Z</time>
      </trkpt>
      <trkpt lat="44.60136" lon="3.77853">
        <ele>1376.3</ele>
        <time>2021-08-09T15:43:56Z</time>
      </trkpt>
      <trkpt lat="44.60128" lon="3.77853">
        <ele>1376.5</ele>
        <time>2021-08-09T15:43:58Z</time>
      </trkpt>
      <trkpt lat="44.60124" lon="3.77854">
        <ele>1376.8</ele>
        <time>2021-08-09T15:44:00Z</time>
      </trkpt>
      <trkpt lat="44.60123" lon="3.77857">
        <ele>1377.2</ele>
        <time>2021-08-09T15:44:02Z</time>
      </trkpt>
      <trkpt lat="44.60111" lon="3.77856">
        <ele>1377.3</ele>
        <time>2021-08-09T15:44:04Z</time>
      </trkpt>
      <trkpt lat="44.60104" lon="3.77855">
        <ele>1377.4</ele>
        <time>2021-08-09T15:44:06Z</time>
      </trkpt>
      <trkpt lat="44.60094" lon="3.77857">
        <ele>1377.8</ele>
        <time>2021-08-09T15:44:08Z</time>
      </trkpt>
      <trkpt lat="44.60085" lon="3.77857">
        <ele>1378.1</ele>
        <time>2021-08-09T15:44:10Z</time>
      </trkpt>
      <trkpt lat="44.60078" lon="3.77857">
        <ele>1377.8</ele>
        <time>2021-08-09T15:44:12Z</time>
      </trkpt>
      <trkpt lat="44.60068" lon="3.77858">
        <ele>1377.5</ele>
        <time>2021-08-09T15:44:14Z</time>
      </trkpt>
      <trkpt lat="44.60058" lon="3.77857">
        <ele>1376.9</ele>
        <time>2021-08-09T15:44:16Z</time>
      </trkpt>
      <trkpt lat="44.6005" lon="3.77859">
        <ele>1376.7</ele>
        <time>2021-08-09T15:44:18Z</time>
      </trkpt>
      <trkpt lat="44.6004" lon="3.77859">
        <ele>1376.2</ele>
        <time>2021-08-09T15:44:20Z</time>
      </trkpt>
      <trkpt lat="44.6003" lon="3.77859">
        <ele>1375.8</ele>
        <time>2021-08-09T15:44:22Z</time>
      </trkpt>
      <trkpt lat="44.6002" lon="3.77861">
        <ele>1375.6</ele>
        <time>2021-08-09T15:44:24Z</time>
      </trkpt>
      <trkpt lat="44.60012" lon="3.77861">
        <ele>1375.3</ele>
        <time>2021-08-09T15:44:26Z</time>
      </trkpt>
      <trkpt lat="44.60003" lon="3.77862">
        <ele>1374.9</ele>
        <time>2021-08-09T15:44:28Z</time>
      </trkpt>
      <trkpt lat="44.59994" lon="3.77864">
        <ele>1374.9</ele>
        <time>2021-08-09T15:44:30Z</time>
      </trkpt>
      <trkpt lat="44.59986" lon="3.77861">
        <ele>1374.3</ele>
        <time>2021-08-09T15:44:32Z</time>
      </trkpt>
      <trkpt lat="44.59975" lon="3.77862">
        <ele>1374</ele>
        <time>2021-08-09T15:44:34Z</time>
      </trkpt>
      <trkpt lat="44.59965" lon="3.77862">
        <ele>1373.8</ele>
        <time>2021-08-09T15:44:36Z</time>
      </trkpt>
      <trkpt lat="44.59956" lon="3.7786">
        <ele>1373.4</ele>
        <time>2021-08-09T15:44:38Z</time>
      </trkpt>
      <trkpt lat="44.59945" lon="3.77861">
        <ele>1373.1</ele>
        <time>2021-08-09T15:44:40Z</time>
      </trkpt>
      <trkpt lat="44.59934" lon="3.77858">
        <ele>1372.4</ele>
        <time>2021-08-09T15:44:42Z</time>
      </trkpt>
      <trkpt lat="44.59922" lon="3.77857">
        <ele>1371.8</ele>
        <time>2021-08-09T15:44:44Z</time>
      </trkpt>
      <trkpt lat="44.5991" lon="3.77858">
        <ele>1371.9</ele>
        <time>2021-08-09T15:44:46Z</time>
      </trkpt>
      <trkpt lat="44.599" lon="3.77854">
        <ele>1371.4</ele>
        <time>2021-08-09T15:44:48Z</time>
      </trkpt>
      <trkpt lat="44.5989" lon="3.77852">
        <ele>1371.2</ele>
        <time>2021-08-09T15:44:50Z</time>
      </trkpt>
      <trkpt lat="44.5988" lon="3.7785">
        <ele>1370.9</ele>
        <time>2021-08-09T15:44:52Z</time>
      </trkpt>
      <trkpt lat="44.5987" lon="3.77846">
        <ele>1370.5</ele>
        <time>2021-08-09T15:44:54Z</time>
      </trkpt>
      <trkpt lat="44.59861" lon="3.77843">
        <ele>1370.1</ele>
        <time>2021-08-09T15:44:56Z</time>
      </trkpt>
      <trkpt lat="44.59851" lon="3.77842">
        <ele>1370.1</ele>
        <time>2021-08-09T15:44:58Z</time>
      </trkpt>
      <trkpt lat="44.59844" lon="3.77839">
        <ele>1369.7</ele>
        <time>2021-08-09T15:45:00Z</time>
      </trkpt>
      <trkpt lat="44.59834" lon="3.77836">
        <ele>1369.4</ele>
        <time>2021-08-09T15:45:02Z</time>
      </trkpt>
      <trkpt lat="44.59825" lon="3.77835">
        <ele>1369.3</ele>
        <time>2021-08-09T15:45:04Z</time>
      </trkpt>
      <trkpt lat="44.59817" lon="3.77834">
        <ele>1369</ele>
        <time>2021-08-09T15:45:06Z</time>
      </trkpt>
      <trkpt lat="44.5981" lon="3.77833">
        <ele>1369</ele>
        <time>2021-08-09T15:45:08Z</time>
      </trkpt>
      <trkpt lat="44.59802" lon="3.77831">
        <ele>1368.8</ele>
        <time>2021-08-09T15:45:10Z</time>
      </trkpt>
      <trkpt lat="44.59794" lon="3.7783">
        <ele>1368.6</ele>
        <time>2021-08-09T15:45:12Z</time>
      </trkpt>
      <trkpt lat="44.59785" lon="3.77828">
        <ele>1368.4</ele>
        <time>2021-08-09T15:45:14Z</time>
      </trkpt>
      <trkpt lat="44.59778" lon="3.77827">
        <ele>1368.2</ele>
        <time>2021-08-09T15:45:16Z</time>
      </trkpt>
      <trkpt lat="44.5977" lon="3.77826">
        <ele>1368.1</ele>
        <time>2021-08-09T15:45:18Z</time>
      </trkpt>
      <trkpt lat="44.59763" lon="3.77823">
        <ele>1367.7</ele>
        <time>2021-08-09T15:45:20Z</time>
      </trkpt>
      <trkpt lat="44.59755" lon="3.77822">
        <ele>1367.6</ele>
        <time>2021-08-09T15:45:22Z</time>
      </trkpt>
      <trkpt lat="44.59747" lon="3.77819">
        <ele>1367.5</ele>
        <time>2021-08-09T15:45:24Z</time>
      </trkpt>
      <trkpt lat="44.59737" lon="3.77817">
        <ele>1367.8</ele>
        <time>2021-08-09T15:45:26Z</time>
      </trkpt>
      <trkpt lat="44.59727" lon="3.77814">
        <ele>1368.2</ele>
        <time>2021-08-09T15:45:28Z</time>
      </trkpt>
      <trkpt lat="44.59719" lon="3.7781">
        <ele>1368.1</ele>
        <time>2021-08-09T15:45:30Z</time>
      </trkpt>
      <trkpt lat="44.59709" lon="3.77808">
        <ele>1368.6</ele>
        <time>2021-08-09T15:45:32Z</time>
      </trkpt>
      <trkpt lat="44.59697" lon="3.77807">
        <ele>1369.3</ele>
        <time>2021-08-09T15:45:34Z</time>
      </trkpt>
      <trkpt lat="44.59686" lon="3.77803">
        <ele>1369.5</ele>
        <time>2021-08-09T15:45:36Z</time>
      </trkpt>
      <trkpt lat="44.59675" lon="3.77798">
        <ele>1369.6</ele>
        <time>2021-08-09T15:45:38Z</time>
      </trkpt>
      <trkpt lat="44.59662" lon="3.77795">
        <ele>1369.9</ele>
        <time>2021-08-09T15:45:40Z</time>
      </trkpt>
      <trkpt lat="44.59647" lon="3.77792">
        <ele>1369.9</ele>
        <time>2021-08-09T15:45:42Z</time>
      </trkpt>
      <trkpt lat="44.59636" lon="3.77785">
        <ele>1369.3</ele>
        <time>2021-08-09T15:45:44Z</time>
      </trkpt>
      <trkpt lat="44.59623" lon="3.77779">
        <ele>1368.8</ele>
        <time>2021-08-09T15:45:46Z</time>
      </trkpt>
      <trkpt lat="44.5961" lon="3.77772">
        <ele>1368.2</ele>
        <time>2021-08-09T15:45:48Z</time>
      </trkpt>
      <trkpt lat="44.59597" lon="3.77763">
        <ele>1367.4</ele>
        <time>2021-08-09T15:45:50Z</time>
      </trkpt>
      <trkpt lat="44.59586" lon="3.77752">
        <ele>1366.2</ele>
        <time>2021-08-09T15:45:52Z</time>
      </trkpt>
      <trkpt lat="44.59575" lon="3.77742">
        <ele>1365.6</ele>
        <time>2021-08-09T15:45:54Z</time>
      </trkpt>
      <trkpt lat="44.59564" lon="3.77731">
        <ele>1365.2</ele>
        <time>2021-08-09T15:45:56Z</time>
      </trkpt>
      <trkpt lat="44.59553" lon="3.77718">
        <ele>1364.5</ele>
        <time>2021-08-09T15:45:58Z</time>
      </trkpt>
      <trkpt lat="44.59542" lon="3.77708">
        <ele>1364.2</ele>
        <time>2021-08-09T15:46:00Z</time>
      </trkpt>
      <trkpt lat="44.59531" lon="3.77699">
        <ele>1364</ele>
        <time>2021-08-09T15:46:02Z</time>
      </trkpt>
      <trkpt lat="44.5952" lon="3.77687">
        <ele>1363.6</ele>
        <time>2021-08-09T15:46:04Z</time>
      </trkpt>
      <trkpt lat="44.59509" lon="3.77677">
        <ele>1363.3</ele>
        <time>2021-08-09T15:46:06Z</time>
      </trkpt>
      <trkpt lat="44.59498" lon="3.77669">
        <ele>1363.3</ele>
        <time>2021-08-09T15:46:08Z</time>
      </trkpt>
      <trkpt lat="44.5949" lon="3.77655">
        <ele>1363.3</ele>
        <time>2021-08-09T15:46:10Z</time>
      </trkpt>
      <trkpt lat="44.59483" lon="3.77643">
        <ele>1363.4</ele>
        <time>2021-08-09T15:46:12Z</time>
      </trkpt>
      <trkpt lat="44.59476" lon="3.77629">
        <ele>1363.4</ele>
        <time>2021-08-09T15:46:14Z</time>
      </trkpt>
      <trkpt lat="44.59469" lon="3.77616">
        <ele>1363.4</ele>
        <time>2021-08-09T15:46:16Z</time>
      </trkpt>
      <trkpt lat="44.59461" lon="3.77605">
        <ele>1363.6</ele>
        <time>2021-08-09T15:46:18Z</time>
      </trkpt>
      <trkpt lat="44.59454" lon="3.77595">
        <ele>1363.7</ele>
        <time>2021-08-09T15:46:20Z</time>
      </trkpt>
      <trkpt lat="44.59448" lon="3.77584">
        <ele>1363.8</ele>
        <time>2021-08-09T15:46:22Z</time>
      </trkpt>
      <trkpt lat="44.59441" lon="3.77573">
        <ele>1364.2</ele>
        <time>2021-08-09T15:46:24Z</time>
      </trkpt>
      <trkpt lat="44.59436" lon="3.77561">
        <ele>1364.5</ele>
        <time>2021-08-09T15:46:26Z</time>
      </trkpt>
      <trkpt lat="44.59429" lon="3.77551">
        <ele>1364.8</ele>
        <time>2021-08-09T15:46:28Z</time>
      </trkpt>
      <trkpt lat="44.59423" lon="3.77541">
        <ele>1365.1</ele>
        <time>2021-08-09T15:46:30Z</time>
      </trkpt>
      <trkpt lat="44.59417" lon="3.77531">
        <ele>1365.4</ele>
        <time>2021-08-09T15:46:32Z</time>
      </trkpt>
      <trkpt lat="44.59411" lon="3.7752">
        <ele>1365.4</ele>
        <time>2021-08-09T15:46:34Z</time>
      </trkpt>
      <trkpt lat="44.59405" lon="3.7751">
        <ele>1365.3</ele>
        <time>2021-08-09T15:46:36Z</time>
      </trkpt>
      <trkpt lat="44.59399" lon="3.775">
        <ele>1365.2</ele>
        <time>2021-08-09T15:46:38Z</time>
      </trkpt>
      <trkpt lat="44.59393" lon="3.77488">
        <ele>1365</ele>
        <time>2021-08-09T15:46:40Z</time>
      </trkpt>
      <trkpt lat="44.59388" lon="3.77478">
        <ele>1364.7</ele>
        <time>2021-08-09T15:46:42Z</time>
      </trkpt>
      <trkpt lat="44.59383" lon="3.77467">
        <ele>1364.4</ele>
        <time>2021-08-09T15:46:44Z</time>
      </trkpt>
      <trkpt lat="44.59378" lon="3.77458">
        <ele>1364</ele>
        <time>2021-08-09T15:46:46Z</time>
      </trkpt>
      <trkpt lat="44.59373" lon="3.7745">
        <ele>1363.7</ele>
        <time>2021-08-09T15:46:48Z</time>
      </trkpt>
      <trkpt lat="44.59368" lon="3.77443">
        <ele>1363.3</ele>
        <time>2021-08-09T15:46:50Z</time>
      </trkpt>
      <trkpt lat="44.59362" lon="3.77437">
        <ele>1362.9</ele>
        <time>2021-08-09T15:46:52Z</time>
      </trkpt>
      <trkpt lat="44.59357" lon="3.77432">
        <ele>1362.5</ele>
        <time>2021-08-09T15:46:54Z</time>
      </trkpt>
      <trkpt lat="44.59352" lon="3.77428">
        <ele>1362.2</ele>
        <time>2021-08-09T15:46:56Z</time>
      </trkpt>
      <trkpt lat="44.59346" lon="3.77427">
        <ele>1362</ele>
        <time>2021-08-09T15:46:58Z</time>
      </trkpt>
      <trkpt lat="44.59342" lon="3.77425">
        <ele>1361.8</ele>
        <time>2021-08-09T15:47:00Z</time>
      </trkpt>
      <trkpt lat="44.59337" lon="3.77424">
        <ele>1361.5</ele>
        <time>2021-08-09T15:47:02Z</time>
      </trkpt>
      <trkpt lat="44.59333" lon="3.77424">
        <ele>1361.4</ele>
        <time>2021-08-09T15:47:04Z</time>
      </trkpt>
      <trkpt lat="44.59329" lon="3.77424">
        <ele>1361.2</ele>
        <time>2021-08-09T15:47:06Z</time>
      </trkpt>
      <trkpt lat="44.59327" lon="3.77424">
        <ele>1361.1</ele>
        <time>2021-08-09T15:47:08Z</time>
      </trkpt>
      <trkpt lat="44.59325" lon="3.77424">
        <ele>1361</ele>
        <time>2021-08-09T15:47:10Z</time>
      </trkpt>
      <trkpt lat="44.59324" lon="3.77424">
        <ele>1360.9</ele>
        <time>2021-08-09T15:47:12Z</time>
      </trkpt>
      <trkpt lat="44.59323" lon="3.77426">
        <ele>1360.9</ele>
        <time>2021-08-09T15:47:14Z</time>
      </trkpt>
      <trkpt lat="44.59323" lon="3.77429">
        <ele>1361.2</ele>
        <time>2021-08-09T15:47:16Z</time>
      </trkpt>
      <trkpt lat="44.59324" lon="3.77433">
        <ele>1361.5</ele>
        <time>2021-08-09T15:47:18Z</time>
      </trkpt>
      <trkpt lat="44.59324" lon="3.77436">
        <ele>1361.7</ele>
        <time>2021-08-09T15:47:20Z</time>
      </trkpt>
      <trkpt lat="44.59324" lon="3.77436">
        <ele>1361.7</ele>
        <time>2021-08-09T15:47:22Z</time>
      </trkpt>
      <trkpt lat="44.59324" lon="3.77436">
        <ele>1361.7</ele>
        <time>2021-08-09T15:47:24Z</time>
      </trkpt>
      <trkpt lat="44.59325" lon="3.77436">
        <ele>1361.7</ele>
        <time>2021-08-09T15:47:26Z</time>
      </trkpt>
      <trkpt lat="44.59325" lon="3.77435">
        <ele>1361.7</ele>
        <time>2021-08-09T15:47:28Z</time>
      </trkpt>
      <trkpt lat="44.5933" lon="3.77449">
        <ele>1362.8</ele>
        <time>2021-08-09T15:48:32Z</time>
      </trkpt>
      <trkpt lat="44.59329" lon="3.77455">
        <ele>1363.1</ele>
        <time>2021-08-09T15:48:34Z</time>
      </trkpt>
      <trkpt lat="44.59327" lon="3.77462">
        <ele>1363.5</ele>
        <time>2021-08-09T15:48:36Z</time>
      </trkpt>
      <trkpt lat="44.59325" lon="3.77468">
        <ele>1363.8</ele>
        <time>2021-08-09T15:48:38Z</time>
      </trkpt>
      <trkpt lat="44.59324" lon="3.77474">
        <ele>1364.1</ele>
        <time>2021-08-09T15:48:40Z</time>
      </trkpt>
      <trkpt lat="44.59323" lon="3.7748">
        <ele>1364.5</ele>
        <time>2021-08-09T15:48:42Z</time>
      </trkpt>
      <trkpt lat="44.59321" lon="3.77487">
        <ele>1364.8</ele>
        <time>2021-08-09T15:48:44Z</time>
      </trkpt>
      <trkpt lat="44.5932" lon="3.77493">
        <ele>1365.2</ele>
        <time>2021-08-09T15:48:46Z</time>
      </trkpt>
      <trkpt lat="44.59318" lon="3.77499">
        <ele>1365.5</ele>
        <time>2021-08-09T15:48:48Z</time>
      </trkpt>
      <trkpt lat="44.59316" lon="3.77504">
        <ele>1365.8</ele>
        <time>2021-08-09T15:48:50Z</time>
      </trkpt>
      <trkpt lat="44.59314" lon="3.77508">
        <ele>1365.9</ele>
        <time>2021-08-09T15:48:52Z</time>
      </trkpt>
      <trkpt lat="44.59311" lon="3.77513">
        <ele>1366.1</ele>
        <time>2021-08-09T15:48:54Z</time>
      </trkpt>
      <trkpt lat="44.59309" lon="3.77518">
        <ele>1366.3</ele>
        <time>2021-08-09T15:48:56Z</time>
      </trkpt>
      <trkpt lat="44.59306" lon="3.77523">
        <ele>1366.5</ele>
        <time>2021-08-09T15:48:58Z</time>
      </trkpt>
      <trkpt lat="44.59303" lon="3.77526">
        <ele>1366.6</ele>
        <time>2021-08-09T15:49:00Z</time>
      </trkpt>
      <trkpt lat="44.593" lon="3.7753">
        <ele>1366.8</ele>
        <time>2021-08-09T15:49:02Z</time>
      </trkpt>
      <trkpt lat="44.59297" lon="3.77534">
        <ele>1366.9</ele>
        <time>2021-08-09T15:49:04Z</time>
      </trkpt>
      <trkpt lat="44.59295" lon="3.77536">
        <ele>1367</ele>
        <time>2021-08-09T15:49:06Z</time>
      </trkpt>
      <trkpt lat="44.59292" lon="3.77541">
        <ele>1367.2</ele>
        <time>2021-08-09T15:49:08Z</time>
      </trkpt>
      <trkpt lat="44.5929" lon="3.77545">
        <ele>1367.4</ele>
        <time>2021-08-09T15:49:10Z</time>
      </trkpt>
      <trkpt lat="44.59289" lon="3.77549">
        <ele>1367.6</ele>
        <time>2021-08-09T15:49:12Z</time>
      </trkpt>
      <trkpt lat="44.59287" lon="3.77553">
        <ele>1367.8</ele>
        <time>2021-08-09T15:49:14Z</time>
      </trkpt>
      <trkpt lat="44.59286" lon="3.77558">
        <ele>1368.1</ele>
        <time>2021-08-09T15:49:16Z</time>
      </trkpt>
      <trkpt lat="44.59284" lon="3.77563">
        <ele>1368.3</ele>
        <time>2021-08-09T15:49:18Z</time>
      </trkpt>
      <trkpt lat="44.59283" lon="3.77568">
        <ele>1368.6</ele>
        <time>2021-08-09T15:49:20Z</time>
      </trkpt>
      <trkpt lat="44.59282" lon="3.77572">
        <ele>1368.8</ele>
        <time>2021-08-09T15:49:22Z</time>
      </trkpt>
      <trkpt lat="44.59281" lon="3.77577">
        <ele>1369</ele>
        <time>2021-08-09T15:49:24Z</time>
      </trkpt>
      <trkpt lat="44.59281" lon="3.77582">
        <ele>1369.3</ele>
        <time>2021-08-09T15:49:26Z</time>
      </trkpt>
      <trkpt lat="44.5928" lon="3.77587">
        <ele>1369.6</ele>
        <time>2021-08-09T15:49:28Z</time>
      </trkpt>
      <trkpt lat="44.59279" lon="3.77592">
        <ele>1369.9</ele>
        <time>2021-08-09T15:49:30Z</time>
      </trkpt>
      <trkpt lat="44.59279" lon="3.77596">
        <ele>1370.2</ele>
        <time>2021-08-09T15:49:32Z</time>
      </trkpt>
      <trkpt lat="44.59278" lon="3.77601">
        <ele>1370.5</ele>
        <time>2021-08-09T15:49:34Z</time>
      </trkpt>
      <trkpt lat="44.59278" lon="3.77606">
        <ele>1370.8</ele>
        <time>2021-08-09T15:49:36Z</time>
      </trkpt>
      <trkpt lat="44.59278" lon="3.7761">
        <ele>1371</ele>
        <time>2021-08-09T15:49:38Z</time>
      </trkpt>
      <trkpt lat="44.59277" lon="3.77613">
        <ele>1371.3</ele>
        <time>2021-08-09T15:49:40Z</time>
      </trkpt>
      <trkpt lat="44.59276" lon="3.77619">
        <ele>1371.6</ele>
        <time>2021-08-09T15:49:42Z</time>
      </trkpt>
      <trkpt lat="44.59275" lon="3.77624">
        <ele>1371.9</ele>
        <time>2021-08-09T15:49:44Z</time>
      </trkpt>
      <trkpt lat="44.59275" lon="3.77629">
        <ele>1372.2</ele>
        <time>2021-08-09T15:49:46Z</time>
      </trkpt>
      <trkpt lat="44.59274" lon="3.77633">
        <ele>1372.5</ele>
        <time>2021-08-09T15:49:48Z</time>
      </trkpt>
      <trkpt lat="44.59274" lon="3.77637">
        <ele>1372.8</ele>
        <time>2021-08-09T15:49:50Z</time>
      </trkpt>
      <trkpt lat="44.59273" lon="3.77642">
        <ele>1373.1</ele>
        <time>2021-08-09T15:49:52Z</time>
      </trkpt>
      <trkpt lat="44.59272" lon="3.77646">
        <ele>1373.4</ele>
        <time>2021-08-09T15:49:54Z</time>
      </trkpt>
      <trkpt lat="44.59271" lon="3.7765">
        <ele>1373.7</ele>
        <time>2021-08-09T15:49:56Z</time>
      </trkpt>
      <trkpt lat="44.59271" lon="3.77654">
        <ele>1373.9</ele>
        <time>2021-08-09T15:49:58Z</time>
      </trkpt>
      <trkpt lat="44.59271" lon="3.77659">
        <ele>1374.2</ele>
        <time>2021-08-09T15:50:00Z</time>
      </trkpt>
      <trkpt lat="44.5927" lon="3.77663">
        <ele>1374.5</ele>
        <time>2021-08-09T15:50:02Z</time>
      </trkpt>
      <trkpt lat="44.5927" lon="3.77667">
        <ele>1374.8</ele>
        <time>2021-08-09T15:50:04Z</time>
      </trkpt>
      <trkpt lat="44.59271" lon="3.77671">
        <ele>1375.1</ele>
        <time>2021-08-09T15:50:06Z</time>
      </trkpt>
      <trkpt lat="44.5927" lon="3.77676">
        <ele>1375.4</ele>
        <time>2021-08-09T15:50:08Z</time>
      </trkpt>
      <trkpt lat="44.59271" lon="3.7768">
        <ele>1375.7</ele>
        <time>2021-08-09T15:50:10Z</time>
      </trkpt>
      <trkpt lat="44.5927" lon="3.77685">
        <ele>1376.1</ele>
        <time>2021-08-09T15:50:12Z</time>
      </trkpt>
      <trkpt lat="44.59269" lon="3.7769">
        <ele>1376.4</ele>
        <time>2021-08-09T15:50:14Z</time>
      </trkpt>
      <trkpt lat="44.59268" lon="3.77694">
        <ele>1376.7</ele>
        <time>2021-08-09T15:50:16Z</time>
      </trkpt>
      <trkpt lat="44.59267" lon="3.77698">
        <ele>1377.1</ele>
        <time>2021-08-09T15:50:18Z</time>
      </trkpt>
      <trkpt lat="44.59267" lon="3.77702">
        <ele>1377.3</ele>
        <time>2021-08-09T15:50:20Z</time>
      </trkpt>
      <trkpt lat="44.59266" lon="3.77706">
        <ele>1377.6</ele>
        <time>2021-08-09T15:50:22Z</time>
      </trkpt>
      <trkpt lat="44.59265" lon="3.7771">
        <ele>1378</ele>
        <time>2021-08-09T15:50:24Z</time>
      </trkpt>
      <trkpt lat="44.59265" lon="3.77713">
        <ele>1378.2</ele>
        <time>2021-08-09T15:50:26Z</time>
      </trkpt>
      <trkpt lat="44.59265" lon="3.77716">
        <ele>1378.4</ele>
        <time>2021-08-09T15:50:28Z</time>
      </trkpt>
      <trkpt lat="44.59264" lon="3.7772">
        <ele>1378.7</ele>
        <time>2021-08-09T15:50:30Z</time>
      </trkpt>
      <trkpt lat="44.59264" lon="3.77724">
        <ele>1379</ele>
        <time>2021-08-09T15:50:32Z</time>
      </trkpt>
      <trkpt lat="44.59263" lon="3.77728">
        <ele>1379.3</ele>
        <time>2021-08-09T15:50:34Z</time>
      </trkpt>
      <trkpt lat="44.59263" lon="3.77732">
        <ele>1379.6</ele>
        <time>2021-08-09T15:50:36Z</time>
      </trkpt>
      <trkpt lat="44.59262" lon="3.77736">
        <ele>1379.8</ele>
        <time>2021-08-09T15:50:38Z</time>
      </trkpt>
      <trkpt lat="44.59261" lon="3.7774">
        <ele>1380.2</ele>
        <time>2021-08-09T15:50:40Z</time>
      </trkpt>
      <trkpt lat="44.59262" lon="3.77744">
        <ele>1380.4</ele>
        <time>2021-08-09T15:50:42Z</time>
      </trkpt>
      <trkpt lat="44.59262" lon="3.77749">
        <ele>1380.8</ele>
        <time>2021-08-09T15:50:44Z</time>
      </trkpt>
      <trkpt lat="44.59263" lon="3.77753">
        <ele>1381</ele>
        <time>2021-08-09T15:50:46Z</time>
      </trkpt>
      <trkpt lat="44.59263" lon="3.77757">
        <ele>1381.4</ele>
        <time>2021-08-09T15:50:48Z</time>
      </trkpt>
      <trkpt lat="44.59263" lon="3.77761">
        <ele>1381.7</ele>
        <time>2021-08-09T15:50:50Z</time>
      </trkpt>
      <trkpt lat="44.59262" lon="3.77766">
        <ele>1382.1</ele>
        <time>2021-08-09T15:50:52Z</time>
      </trkpt>
      <trkpt lat="44.59263" lon="3.7777">
        <ele>1382.4</ele>
        <time>2021-08-09T15:50:54Z</time>
      </trkpt>
      <trkpt lat="44.59263" lon="3.77775">
        <ele>1382.7</ele>
        <time>2021-08-09T15:50:56Z</time>
      </trkpt>
      <trkpt lat="44.59263" lon="3.77779">
        <ele>1383.1</ele>
        <time>2021-08-09T15:50:58Z</time>
      </trkpt>
      <trkpt lat="44.59262" lon="3.77784">
        <ele>1383.4</ele>
        <time>2021-08-09T15:51:00Z</time>
      </trkpt>
      <trkpt lat="44.59262" lon="3.77788">
        <ele>1383.7</ele>
        <time>2021-08-09T15:51:02Z</time>
      </trkpt>
      <trkpt lat="44.5926" lon="3.77792">
        <ele>1384</ele>
        <time>2021-08-09T15:51:04Z</time>
      </trkpt>
      <trkpt lat="44.5926" lon="3.77796">
        <ele>1384.3</ele>
        <time>2021-08-09T15:51:06Z</time>
      </trkpt>
      <trkpt lat="44.59259" lon="3.778">
        <ele>1384.6</ele>
        <time>2021-08-09T15:51:08Z</time>
      </trkpt>
      <trkpt lat="44.59259" lon="3.77804">
        <ele>1384.9</ele>
        <time>2021-08-09T15:51:10Z</time>
      </trkpt>
      <trkpt lat="44.59257" lon="3.77807">
        <ele>1385.2</ele>
        <time>2021-08-09T15:51:12Z</time>
      </trkpt>
      <trkpt lat="44.59257" lon="3.77811">
        <ele>1385.4</ele>
        <time>2021-08-09T15:51:14Z</time>
      </trkpt>
      <trkpt lat="44.59257" lon="3.77814">
        <ele>1385.7</ele>
        <time>2021-08-09T15:51:16Z</time>
      </trkpt>
      <trkpt lat="44.59256" lon="3.77818">
        <ele>1385.9</ele>
        <time>2021-08-09T15:51:18Z</time>
      </trkpt>
      <trkpt lat="44.59255" lon="3.77821">
        <ele>1386.2</ele>
        <time>2021-08-09T15:51:20Z</time>
      </trkpt>
      <trkpt lat="44.59255" lon="3.77825">
        <ele>1386.4</ele>
        <time>2021-08-09T15:51:22Z</time>
      </trkpt>
      <trkpt lat="44.59255" lon="3.77828">
        <ele>1386.7</ele>
        <time>2021-08-09T15:51:24Z</time>
      </trkpt>
      <trkpt lat="44.59254" lon="3.77832">
        <ele>1387</ele>
        <time>2021-08-09T15:51:26Z</time>
      </trkpt>
      <trkpt lat="44.59254" lon="3.77835">
        <ele>1387.2</ele>
        <time>2021-08-09T15:51:28Z</time>
      </trkpt>
      <trkpt lat="44.59254" lon="3.77839">
        <ele>1387.5</ele>
        <time>2021-08-09T15:51:30Z</time>
      </trkpt>
      <trkpt lat="44.59252" lon="3.77843">
        <ele>1387.7</ele>
        <time>2021-08-09T15:51:32Z</time>
      </trkpt>
      <trkpt lat="44.5925" lon="3.77846">
        <ele>1387.9</ele>
        <time>2021-08-09T15:51:34Z</time>
      </trkpt>
      <trkpt lat="44.5925" lon="3.77849">
        <ele>1388.1</ele>
        <time>2021-08-09T15:51:36Z</time>
      </trkpt>
      <trkpt lat="44.59249" lon="3.77852">
        <ele>1388.2</ele>
        <time>2021-08-09T15:51:38Z</time>
      </trkpt>
      <trkpt lat="44.59249" lon="3.77855">
        <ele>1388.4</ele>
        <time>2021-08-09T15:51:40Z</time>
      </trkpt>
      <trkpt lat="44.59248" lon="3.77858">
        <ele>1388.4</ele>
        <time>2021-08-09T15:51:42Z</time>
      </trkpt>
      <trkpt lat="44.59246" lon="3.7786">
        <ele>1388.4</ele>
        <time>2021-08-09T15:51:44Z</time>
      </trkpt>
      <trkpt lat="44.59245" lon="3.77863">
        <ele>1388.5</ele>
        <time>2021-08-09T15:51:46Z</time>
      </trkpt>
      <trkpt lat="44.59245" lon="3.77864">
        <ele>1388.5</ele>
        <time>2021-08-09T15:51:48Z</time>
      </trkpt>
      <trkpt lat="44.59246" lon="3.77863">
        <ele>1388.6</ele>
        <time>2021-08-09T15:51:50Z</time>
      </trkpt>
      <trkpt lat="44.59246" lon="3.77864">
        <ele>1388.6</ele>
        <time>2021-08-09T15:51:52Z</time>
      </trkpt>
      <trkpt lat="44.59237" lon="3.7787">
        <ele>1387.9</ele>
        <time>2021-08-09T15:55:38Z</time>
      </trkpt>
      <trkpt lat="44.59236" lon="3.77874">
        <ele>1388.1</ele>
        <time>2021-08-09T15:55:40Z</time>
      </trkpt>
      <trkpt lat="44.59236" lon="3.77877">
        <ele>1388.3</ele>
        <time>2021-08-09T15:55:42Z</time>
      </trkpt>
      <trkpt lat="44.59235" lon="3.7788">
        <ele>1388.4</ele>
        <time>2021-08-09T15:55:44Z</time>
      </trkpt>
      <trkpt lat="44.59235" lon="3.77883">
        <ele>1388.6</ele>
        <time>2021-08-09T15:55:46Z</time>
      </trkpt>
      <trkpt lat="44.59234" lon="3.77886">
        <ele>1388.7</ele>
        <time>2021-08-09T15:55:48Z</time>
      </trkpt>
      <trkpt lat="44.59233" lon="3.77889">
        <ele>1388.8</ele>
        <time>2021-08-09T15:55:50Z</time>
      </trkpt>
      <trkpt lat="44.59233" lon="3.77892">
        <ele>1389</ele>
        <time>2021-08-09T15:55:52Z</time>
      </trkpt>
      <trkpt lat="44.59231" lon="3.77895">
        <ele>1389.1</ele>
        <time>2021-08-09T15:55:54Z</time>
      </trkpt>
      <trkpt lat="44.59231" lon="3.77898">
        <ele>1389.2</ele>
        <time>2021-08-09T15:55:56Z</time>
      </trkpt>
      <trkpt lat="44.5923" lon="3.779">
        <ele>1389.3</ele>
        <time>2021-08-09T15:55:58Z</time>
      </trkpt>
      <trkpt lat="44.59228" lon="3.77901">
        <ele>1389.2</ele>
        <time>2021-08-09T15:56:00Z</time>
      </trkpt>
      <trkpt lat="44.59227" lon="3.77901">
        <ele>1389</ele>
        <time>2021-08-09T15:56:02Z</time>
      </trkpt>
      <trkpt lat="44.59227" lon="3.779">
        <ele>1389</ele>
        <time>2021-08-09T15:56:04Z</time>
      </trkpt>
      <trkpt lat="44.59227" lon="3.779">
        <ele>1388.9</ele>
        <time>2021-08-09T15:56:06Z</time>
      </trkpt>
      <trkpt lat="44.59215" lon="3.77906">
        <ele>1387.9</ele>
        <time>2021-08-09T16:09:04Z</time>
      </trkpt>
      <trkpt lat="44.59215" lon="3.77907">
        <ele>1388</ele>
        <time>2021-08-09T16:09:06Z</time>
      </trkpt>
      <trkpt lat="44.59214" lon="3.77909">
        <ele>1388.1</ele>
        <time>2021-08-09T16:09:08Z</time>
      </trkpt>
      <trkpt lat="44.59214" lon="3.77912">
        <ele>1388.2</ele>
        <time>2021-08-09T16:09:10Z</time>
      </trkpt>
      <trkpt lat="44.59215" lon="3.77913">
        <ele>1388.5</ele>
        <time>2021-08-09T16:09:12Z</time>
      </trkpt>
      <trkpt lat="44.59217" lon="3.77914">
        <ele>1388.8</ele>
        <time>2021-08-09T16:09:14Z</time>
      </trkpt>
      <trkpt lat="44.59219" lon="3.77912">
        <ele>1389</ele>
        <time>2021-08-09T16:09:16Z</time>
      </trkpt>
      <trkpt lat="44.59222" lon="3.77908">
        <ele>1389</ele>
        <time>2021-08-09T16:09:18Z</time>
      </trkpt>
      <trkpt lat="44.59224" lon="3.77905">
        <ele>1388.9</ele>
        <time>2021-08-09T16:09:20Z</time>
      </trkpt>
      <trkpt lat="44.59225" lon="3.77901">
        <ele>1388.7</ele>
        <time>2021-08-09T16:09:22Z</time>
      </trkpt>
      <trkpt lat="44.59226" lon="3.77899">
        <ele>1388.7</ele>
        <time>2021-08-09T16:09:24Z</time>
      </trkpt>
      <trkpt lat="44.59226" lon="3.77898">
        <ele>1388.6</ele>
        <time>2021-08-09T16:09:26Z</time>
      </trkpt>
      <trkpt lat="44.59226" lon="3.77897">
        <ele>1388.5</ele>
        <time>2021-08-09T16:09:28Z</time>
      </trkpt>
      <trkpt lat="44.59225" lon="3.77872">
        <ele>1386.4</ele>
        <time>2021-08-09T16:09:46Z</time>
      </trkpt>
      <trkpt lat="44.59227" lon="3.77867">
        <ele>1386.3</ele>
        <time>2021-08-09T16:09:48Z</time>
      </trkpt>
      <trkpt lat="44.59231" lon="3.77861">
        <ele>1386.4</ele>
        <time>2021-08-09T16:09:50Z</time>
      </trkpt>
      <trkpt lat="44.59234" lon="3.77854">
        <ele>1386.3</ele>
        <time>2021-08-09T16:09:52Z</time>
      </trkpt>
      <trkpt lat="44.59235" lon="3.77849">
        <ele>1386</ele>
        <time>2021-08-09T16:09:54Z</time>
      </trkpt>
      <trkpt lat="44.59237" lon="3.77844">
        <ele>1385.9</ele>
        <time>2021-08-09T16:09:56Z</time>
      </trkpt>
      <trkpt lat="44.5924" lon="3.77837">
        <ele>1385.8</ele>
        <time>2021-08-09T16:09:58Z</time>
      </trkpt>
      <trkpt lat="44.59244" lon="3.77834">
        <ele>1386.2</ele>
        <time>2021-08-09T16:10:00Z</time>
      </trkpt>
      <trkpt lat="44.59245" lon="3.7783">
        <ele>1386</ele>
        <time>2021-08-09T16:10:02Z</time>
      </trkpt>
      <trkpt lat="44.59247" lon="3.77823">
        <ele>1385.9</ele>
        <time>2021-08-09T16:10:04Z</time>
      </trkpt>
      <trkpt lat="44.59247" lon="3.77822">
        <ele>1385.8</ele>
        <time>2021-08-09T16:10:06Z</time>
      </trkpt>
      <trkpt lat="44.59247" lon="3.7782">
        <ele>1385.7</ele>
        <time>2021-08-09T16:10:08Z</time>
      </trkpt>
      <trkpt lat="44.59247" lon="3.77821">
        <ele>1385.7</ele>
        <time>2021-08-09T16:10:10Z</time>
      </trkpt>
      <trkpt lat="44.59246" lon="3.7782">
        <ele>1385.6</ele>
        <time>2021-08-09T16:10:12Z</time>
      </trkpt>
      <trkpt lat="44.59246" lon="3.77819">
        <ele>1385.4</ele>
        <time>2021-08-09T16:10:14Z</time>
      </trkpt>
      <trkpt lat="44.59253" lon="3.77794">
        <ele>1384.2</ele>
        <time>2021-08-09T16:10:46Z</time>
      </trkpt>
      <trkpt lat="44.59255" lon="3.77782">
        <ele>1383.3</ele>
        <time>2021-08-09T16:10:48Z</time>
      </trkpt>
      <trkpt lat="44.59256" lon="3.77773">
        <ele>1382.6</ele>
        <time>2021-08-09T16:10:50Z</time>
      </trkpt>
      <trkpt lat="44.59256" lon="3.7776">
        <ele>1381.7</ele>
        <time>2021-08-09T16:10:52Z</time>
      </trkpt>
      <trkpt lat="44.59256" lon="3.77747">
        <ele>1380.7</ele>
        <time>2021-08-09T16:10:54Z</time>
      </trkpt>
      <trkpt lat="44.59255" lon="3.77734">
        <ele>1379.8</ele>
        <time>2021-08-09T16:10:56Z</time>
      </trkpt>
      <trkpt lat="44.59257" lon="3.7772">
        <ele>1378.8</ele>
        <time>2021-08-09T16:10:58Z</time>
      </trkpt>
      <trkpt lat="44.5926" lon="3.77707">
        <ele>1377.8</ele>
        <time>2021-08-09T16:11:00Z</time>
      </trkpt>
      <trkpt lat="44.59263" lon="3.77689">
        <ele>1376.5</ele>
        <time>2021-08-09T16:11:02Z</time>
      </trkpt>
      <trkpt lat="44.59264" lon="3.77672">
        <ele>1375.2</ele>
        <time>2021-08-09T16:11:04Z</time>
      </trkpt>
      <trkpt lat="44.59266" lon="3.77656">
        <ele>1374.1</ele>
        <time>2021-08-09T16:11:06Z</time>
      </trkpt>
      <trkpt lat="44.59267" lon="3.77647">
        <ele>1373.5</ele>
        <time>2021-08-09T16:11:08Z</time>
      </trkpt>
      <trkpt lat="44.59267" lon="3.7764">
        <ele>1373</ele>
        <time>2021-08-09T16:11:10Z</time>
      </trkpt>
      <trkpt lat="44.59268" lon="3.77633">
        <ele>1372.5</ele>
        <time>2021-08-09T16:11:12Z</time>
      </trkpt>
      <trkpt lat="44.59269" lon="3.77623">
        <ele>1371.9</ele>
        <time>2021-08-09T16:11:14Z</time>
      </trkpt>
      <trkpt lat="44.5927" lon="3.77615">
        <ele>1371.3</ele>
        <time>2021-08-09T16:11:16Z</time>
      </trkpt>
      <trkpt lat="44.59271" lon="3.77606">
        <ele>1370.8</ele>
        <time>2021-08-09T16:11:18Z</time>
      </trkpt>
      <trkpt lat="44.59272" lon="3.77595">
        <ele>1370.1</ele>
        <time>2021-08-09T16:11:20Z</time>
      </trkpt>
      <trkpt lat="44.59273" lon="3.77586">
        <ele>1369.5</ele>
        <time>2021-08-09T16:11:22Z</time>
      </trkpt>
      <trkpt lat="44.59274" lon="3.77579">
        <ele>1369.1</ele>
        <time>2021-08-09T16:11:24Z</time>
      </trkpt>
      <trkpt lat="44.59274" lon="3.77568">
        <ele>1368.4</ele>
        <time>2021-08-09T16:11:26Z</time>
      </trkpt>
      <trkpt lat="44.59276" lon="3.77555">
        <ele>1367.7</ele>
        <time>2021-08-09T16:11:28Z</time>
      </trkpt>
      <trkpt lat="44.59283" lon="3.7754">
        <ele>1367</ele>
        <time>2021-08-09T16:11:30Z</time>
      </trkpt>
      <trkpt lat="44.59293" lon="3.77524">
        <ele>1366.3</ele>
        <time>2021-08-09T16:11:32Z</time>
      </trkpt>
      <trkpt lat="44.59304" lon="3.7751">
        <ele>1365.8</ele>
        <time>2021-08-09T16:11:34Z</time>
      </trkpt>
      <trkpt lat="44.59313" lon="3.77495">
        <ele>1365.2</ele>
        <time>2021-08-09T16:11:36Z</time>
      </trkpt>
      <trkpt lat="44.59318" lon="3.77479">
        <ele>1364.2</ele>
        <time>2021-08-09T16:11:38Z</time>
      </trkpt>
      <trkpt lat="44.5932" lon="3.77465">
        <ele>1363.4</ele>
        <time>2021-08-09T16:11:40Z</time>
      </trkpt>
      <trkpt lat="44.59324" lon="3.77453">
        <ele>1362.7</ele>
        <time>2021-08-09T16:11:42Z</time>
      </trkpt>
      <trkpt lat="44.59325" lon="3.77442">
        <ele>1362.1</ele>
        <time>2021-08-09T16:11:44Z</time>
      </trkpt>
      <trkpt lat="44.59327" lon="3.77432">
        <ele>1361.6</ele>
        <time>2021-08-09T16:11:46Z</time>
      </trkpt>
      <trkpt lat="44.59323" lon="3.77424">
        <ele>1360.9</ele>
        <time>2021-08-09T16:11:48Z</time>
      </trkpt>
      <trkpt lat="44.59317" lon="3.77421">
        <ele>1360.3</ele>
        <time>2021-08-09T16:11:50Z</time>
      </trkpt>
      <trkpt lat="44.59312" lon="3.77424">
        <ele>1360.2</ele>
        <time>2021-08-09T16:11:52Z</time>
      </trkpt>
      <trkpt lat="44.59306" lon="3.77425">
        <ele>1360</ele>
        <time>2021-08-09T16:11:54Z</time>
      </trkpt>
      <trkpt lat="44.593" lon="3.77427">
        <ele>1359.8</ele>
        <time>2021-08-09T16:11:56Z</time>
      </trkpt>
      <trkpt lat="44.59295" lon="3.77431">
        <ele>1359.8</ele>
        <time>2021-08-09T16:11:58Z</time>
      </trkpt>
      <trkpt lat="44.59288" lon="3.77436">
        <ele>1359.8</ele>
        <time>2021-08-09T16:12:00Z</time>
      </trkpt>
      <trkpt lat="44.5928" lon="3.77438">
        <ele>1359.6</ele>
        <time>2021-08-09T16:12:02Z</time>
      </trkpt>
      <trkpt lat="44.59271" lon="3.77444">
        <ele>1359.6</ele>
        <time>2021-08-09T16:12:04Z</time>
      </trkpt>
      <trkpt lat="44.59262" lon="3.77448">
        <ele>1359.6</ele>
        <time>2021-08-09T16:12:06Z</time>
      </trkpt>
      <trkpt lat="44.59253" lon="3.77452">
        <ele>1359.5</ele>
        <time>2021-08-09T16:12:08Z</time>
      </trkpt>
      <trkpt lat="44.59242" lon="3.77457">
        <ele>1359.1</ele>
        <time>2021-08-09T16:12:10Z</time>
      </trkpt>
      <trkpt lat="44.59231" lon="3.77462">
        <ele>1358.3</ele>
        <time>2021-08-09T16:12:12Z</time>
      </trkpt>
      <trkpt lat="44.59222" lon="3.77468">
        <ele>1357.9</ele>
        <time>2021-08-09T16:12:14Z</time>
      </trkpt>
      <trkpt lat="44.59212" lon="3.77473">
        <ele>1357.3</ele>
        <time>2021-08-09T16:12:16Z</time>
      </trkpt>
      <trkpt lat="44.59203" lon="3.77478">
        <ele>1356.8</ele>
        <time>2021-08-09T16:12:18Z</time>
      </trkpt>
      <trkpt lat="44.59194" lon="3.77483">
        <ele>1356.3</ele>
        <time>2021-08-09T16:12:20Z</time>
      </trkpt>
      <trkpt lat="44.59185" lon="3.77488">
        <ele>1355.8</ele>
        <time>2021-08-09T16:12:22Z</time>
      </trkpt>
      <trkpt lat="44.59176" lon="3.77494">
        <ele>1355.4</ele>
        <time>2021-08-09T16:12:24Z</time>
      </trkpt>
      <trkpt lat="44.59167" lon="3.77499">
        <ele>1354.9</ele>
        <time>2021-08-09T16:12:26Z</time>
      </trkpt>
      <trkpt lat="44.59156" lon="3.77503">
        <ele>1354</ele>
        <time>2021-08-09T16:12:28Z</time>
      </trkpt>
      <trkpt lat="44.59146" lon="3.77508">
        <ele>1353.3</ele>
        <time>2021-08-09T16:12:30Z</time>
      </trkpt>
      <trkpt lat="44.59138" lon="3.77513">
        <ele>1352.8</ele>
        <time>2021-08-09T16:12:32Z</time>
      </trkpt>
      <trkpt lat="44.59129" lon="3.77517">
        <ele>1352.1</ele>
        <time>2021-08-09T16:12:34Z</time>
      </trkpt>
      <trkpt lat="44.59119" lon="3.77524">
        <ele>1351.6</ele>
        <time>2021-08-09T16:12:36Z</time>
      </trkpt>
      <trkpt lat="44.5911" lon="3.7753">
        <ele>1351.2</ele>
        <time>2021-08-09T16:12:38Z</time>
      </trkpt>
      <trkpt lat="44.59101" lon="3.77539">
        <ele>1351.1</ele>
        <time>2021-08-09T16:12:40Z</time>
      </trkpt>
      <trkpt lat="44.59093" lon="3.77547">
        <ele>1351</ele>
        <time>2021-08-09T16:12:42Z</time>
      </trkpt>
      <trkpt lat="44.59086" lon="3.77556">
        <ele>1351.1</ele>
        <time>2021-08-09T16:12:44Z</time>
      </trkpt>
      <trkpt lat="44.5908" lon="3.77564">
        <ele>1351</ele>
        <time>2021-08-09T16:12:46Z</time>
      </trkpt>
      <trkpt lat="44.59074" lon="3.77575">
        <ele>1351</ele>
        <time>2021-08-09T16:12:48Z</time>
      </trkpt>
      <trkpt lat="44.59069" lon="3.77587">
        <ele>1350.8</ele>
        <time>2021-08-09T16:12:50Z</time>
      </trkpt>
      <trkpt lat="44.59063" lon="3.776">
        <ele>1349.8</ele>
        <time>2021-08-09T16:12:52Z</time>
      </trkpt>
      <trkpt lat="44.5906" lon="3.77614">
        <ele>1349.3</ele>
        <time>2021-08-09T16:12:54Z</time>
      </trkpt>
      <trkpt lat="44.59057" lon="3.77628">
        <ele>1349</ele>
        <time>2021-08-09T16:12:56Z</time>
      </trkpt>
      <trkpt lat="44.59058" lon="3.77643">
        <ele>1349.6</ele>
        <time>2021-08-09T16:12:58Z</time>
      </trkpt>
      <trkpt lat="44.5906" lon="3.77658">
        <ele>1350.4</ele>
        <time>2021-08-09T16:13:00Z</time>
      </trkpt>
      <trkpt lat="44.59066" lon="3.77672">
        <ele>1351.7</ele>
        <time>2021-08-09T16:13:02Z</time>
      </trkpt>
      <trkpt lat="44.59072" lon="3.77686">
        <ele>1353</ele>
        <time>2021-08-09T16:13:04Z</time>
      </trkpt>
      <trkpt lat="44.59074" lon="3.77703">
        <ele>1353.4</ele>
        <time>2021-08-09T16:13:06Z</time>
      </trkpt>
      <trkpt lat="44.5907" lon="3.77721">
        <ele>1353.2</ele>
        <time>2021-08-09T16:13:08Z</time>
      </trkpt>
      <trkpt lat="44.59058" lon="3.77734">
        <ele>1352.5</ele>
        <time>2021-08-09T16:13:10Z</time>
      </trkpt>
      <trkpt lat="44.5904" lon="3.77732">
        <ele>1351.2</ele>
        <time>2021-08-09T16:13:12Z</time>
      </trkpt>
      <trkpt lat="44.59028" lon="3.7772">
        <ele>1349.2</ele>
        <time>2021-08-09T16:13:14Z</time>
      </trkpt>
      <trkpt lat="44.59012" lon="3.77712">
        <ele>1346.8</ele>
        <time>2021-08-09T16:13:16Z</time>
      </trkpt>
      <trkpt lat="44.58996" lon="3.77704">
        <ele>1344.3</ele>
        <time>2021-08-09T16:13:18Z</time>
      </trkpt>
      <trkpt lat="44.58981" lon="3.77692">
        <ele>1342.2</ele>
        <time>2021-08-09T16:13:20Z</time>
      </trkpt>
      <trkpt lat="44.58969" lon="3.77679">
        <ele>1340.1</ele>
        <time>2021-08-09T16:13:22Z</time>
      </trkpt>
      <trkpt lat="44.58955" lon="3.77668">
        <ele>1338.1</ele>
        <time>2021-08-09T16:13:24Z</time>
      </trkpt>
      <trkpt lat="44.58941" lon="3.77659">
        <ele>1336.7</ele>
        <time>2021-08-09T16:13:26Z</time>
      </trkpt>
      <trkpt lat="44.58925" lon="3.77656">
        <ele>1335.7</ele>
        <time>2021-08-09T16:13:28Z</time>
      </trkpt>
      <trkpt lat="44.5891" lon="3.77651">
        <ele>1334.3</ele>
        <time>2021-08-09T16:13:30Z</time>
      </trkpt>
      <trkpt lat="44.58895" lon="3.77651">
        <ele>1333.6</ele>
        <time>2021-08-09T16:13:32Z</time>
      </trkpt>
      <trkpt lat="44.58881" lon="3.77651">
        <ele>1333</ele>
        <time>2021-08-09T16:13:34Z</time>
      </trkpt>
      <trkpt lat="44.58869" lon="3.77652">
        <ele>1332.5</ele>
        <time>2021-08-09T16:13:36Z</time>
      </trkpt>
      <trkpt lat="44.58857" lon="3.77652">
        <ele>1331.9</ele>
        <time>2021-08-09T16:13:38Z</time>
      </trkpt>
      <trkpt lat="44.58843" lon="3.77652">
        <ele>1331.3</ele>
        <time>2021-08-09T16:13:40Z</time>
      </trkpt>
      <trkpt lat="44.5883" lon="3.77653">
        <ele>1330.9</ele>
        <time>2021-08-09T16:13:42Z</time>
      </trkpt>
      <trkpt lat="44.58818" lon="3.77658">
        <ele>1331.2</ele>
        <time>2021-08-09T16:13:44Z</time>
      </trkpt>
      <trkpt lat="44.58805" lon="3.77666">
        <ele>1331.9</ele>
        <time>2021-08-09T16:13:46Z</time>
      </trkpt>
      <trkpt lat="44.58793" lon="3.77674">
        <ele>1332.3</ele>
        <time>2021-08-09T16:13:48Z</time>
      </trkpt>
      <trkpt lat="44.58781" lon="3.77682">
        <ele>1332.5</ele>
        <time>2021-08-09T16:13:50Z</time>
      </trkpt>
      <trkpt lat="44.58768" lon="3.77688">
        <ele>1332.4</ele>
        <time>2021-08-09T16:13:52Z</time>
      </trkpt>
      <trkpt lat="44.58753" lon="3.77686">
        <ele>1331.5</ele>
        <time>2021-08-09T16:13:54Z</time>
      </trkpt>
      <trkpt lat="44.5874" lon="3.77677">
        <ele>1332.4</ele>
        <time>2021-08-09T16:13:56Z</time>
      </trkpt>
      <trkpt lat="44.58731" lon="3.77662">
        <ele>1332.4</ele>
        <time>2021-08-09T16:13:58Z</time>
      </trkpt>
      <trkpt lat="44.5873" lon="3.77644">
        <ele>1329.9</ele>
        <time>2021-08-09T16:14:00Z</time>
      </trkpt>
      <trkpt lat="44.58725" lon="3.77628">
        <ele>1328.2</ele>
        <time>2021-08-09T16:14:02Z</time>
      </trkpt>
      <trkpt lat="44.58717" lon="3.77613">
        <ele>1326.7</ele>
        <time>2021-08-09T16:14:04Z</time>
      </trkpt>
      <trkpt lat="44.58707" lon="3.77599">
        <ele>1325.8</ele>
        <time>2021-08-09T16:14:06Z</time>
      </trkpt>
      <trkpt lat="44.58695" lon="3.77585">
        <ele>1324.9</ele>
        <time>2021-08-09T16:14:08Z</time>
      </trkpt>
      <trkpt lat="44.58683" lon="3.77571">
        <ele>1324</ele>
        <time>2021-08-09T16:14:10Z</time>
      </trkpt>
      <trkpt lat="44.58671" lon="3.77558">
        <ele>1323</ele>
        <time>2021-08-09T16:14:12Z</time>
      </trkpt>
      <trkpt lat="44.58658" lon="3.77545">
        <ele>1321.7</ele>
        <time>2021-08-09T16:14:14Z</time>
      </trkpt>
      <trkpt lat="44.58645" lon="3.77535">
        <ele>1320.6</ele>
        <time>2021-08-09T16:14:16Z</time>
      </trkpt>
      <trkpt lat="44.58634" lon="3.77524">
        <ele>1319.1</ele>
        <time>2021-08-09T16:14:18Z</time>
      </trkpt>
      <trkpt lat="44.58623" lon="3.77516">
        <ele>1318.1</ele>
        <time>2021-08-09T16:14:20Z</time>
      </trkpt>
      <trkpt lat="44.58611" lon="3.77508">
        <ele>1317.2</ele>
        <time>2021-08-09T16:14:22Z</time>
      </trkpt>
      <trkpt lat="44.58599" lon="3.77502">
        <ele>1316.7</ele>
        <time>2021-08-09T16:14:24Z</time>
      </trkpt>
      <trkpt lat="44.58585" lon="3.77497">
        <ele>1316.5</ele>
        <time>2021-08-09T16:14:26Z</time>
      </trkpt>
      <trkpt lat="44.58571" lon="3.77494">
        <ele>1316.7</ele>
        <time>2021-08-09T16:14:28Z</time>
      </trkpt>
      <trkpt lat="44.58558" lon="3.7749">
        <ele>1316.7</ele>
        <time>2021-08-09T16:14:30Z</time>
      </trkpt>
      <trkpt lat="44.58544" lon="3.77486">
        <ele>1316.9</ele>
        <time>2021-08-09T16:14:32Z</time>
      </trkpt>
      <trkpt lat="44.58529" lon="3.77482">
        <ele>1317</ele>
        <time>2021-08-09T16:14:34Z</time>
      </trkpt>
      <trkpt lat="44.58515" lon="3.77477">
        <ele>1316.9</ele>
        <time>2021-08-09T16:14:36Z</time>
      </trkpt>
      <trkpt lat="44.58501" lon="3.7747">
        <ele>1316.7</ele>
        <time>2021-08-09T16:14:38Z</time>
      </trkpt>
      <trkpt lat="44.58488" lon="3.77461">
        <ele>1316.6</ele>
        <time>2021-08-09T16:14:40Z</time>
      </trkpt>
      <trkpt lat="44.58475" lon="3.7745">
        <ele>1316.2</ele>
        <time>2021-08-09T16:14:42Z</time>
      </trkpt>
      <trkpt lat="44.58462" lon="3.77439">
        <ele>1315.4</ele>
        <time>2021-08-09T16:14:44Z</time>
      </trkpt>
      <trkpt lat="44.58449" lon="3.7743">
        <ele>1314.6</ele>
        <time>2021-08-09T16:14:46Z</time>
      </trkpt>
      <trkpt lat="44.58436" lon="3.77418">
        <ele>1313.2</ele>
        <time>2021-08-09T16:14:48Z</time>
      </trkpt>
      <trkpt lat="44.58422" lon="3.77407">
        <ele>1311.8</ele>
        <time>2021-08-09T16:14:50Z</time>
      </trkpt>
      <trkpt lat="44.58408" lon="3.77395">
        <ele>1311.2</ele>
        <time>2021-08-09T16:14:52Z</time>
      </trkpt>
      <trkpt lat="44.58394" lon="3.77383">
        <ele>1310.7</ele>
        <time>2021-08-09T16:14:54Z</time>
      </trkpt>
      <trkpt lat="44.5838" lon="3.77369">
        <ele>1309.5</ele>
        <time>2021-08-09T16:14:56Z</time>
      </trkpt>
      <trkpt lat="44.58367" lon="3.77353">
        <ele>1307.7</ele>
        <time>2021-08-09T16:14:58Z</time>
      </trkpt>
      <trkpt lat="44.58356" lon="3.77337">
        <ele>1305.3</ele>
        <time>2021-08-09T16:15:00Z</time>
      </trkpt>
      <trkpt lat="44.58344" lon="3.77321">
        <ele>1304</ele>
        <time>2021-08-09T16:15:02Z</time>
      </trkpt>
      <trkpt lat="44.58332" lon="3.77305">
        <ele>1302.8</ele>
        <time>2021-08-09T16:15:04Z</time>
      </trkpt>
      <trkpt lat="44.58318" lon="3.7729">
        <ele>1301.9</ele>
        <time>2021-08-09T16:15:06Z</time>
      </trkpt>
      <trkpt lat="44.58304" lon="3.77275">
        <ele>1300.9</ele>
        <time>2021-08-09T16:15:08Z</time>
      </trkpt>
      <trkpt lat="44.5829" lon="3.77262">
        <ele>1300.1</ele>
        <time>2021-08-09T16:15:10Z</time>
      </trkpt>
      <trkpt lat="44.58274" lon="3.7725">
        <ele>1299.7</ele>
        <time>2021-08-09T16:15:12Z</time>
      </trkpt>
      <trkpt lat="44.58257" lon="3.77239">
        <ele>1299.6</ele>
        <time>2021-08-09T16:15:14Z</time>
      </trkpt>
      <trkpt lat="44.58242" lon="3.77229">
        <ele>1299.8</ele>
        <time>2021-08-09T16:15:16Z</time>
      </trkpt>
      <trkpt lat="44.58226" lon="3.77219">
        <ele>1300.3</ele>
        <time>2021-08-09T16:15:18Z</time>
      </trkpt>
      <trkpt lat="44.58212" lon="3.77205">
        <ele>1299.7</ele>
        <time>2021-08-09T16:15:20Z</time>
      </trkpt>
      <trkpt lat="44.58198" lon="3.77189">
        <ele>1298.6</ele>
        <time>2021-08-09T16:15:22Z</time>
      </trkpt>
      <trkpt lat="44.58184" lon="3.77171">
        <ele>1296.8</ele>
        <time>2021-08-09T16:15:24Z</time>
      </trkpt>
      <trkpt lat="44.58171" lon="3.77153">
        <ele>1295.2</ele>
        <time>2021-08-09T16:15:26Z</time>
      </trkpt>
      <trkpt lat="44.58157" lon="3.77137">
        <ele>1294.3</ele>
        <time>2021-08-09T16:15:28Z</time>
      </trkpt>
      <trkpt lat="44.58142" lon="3.7712">
        <ele>1293.4</ele>
        <time>2021-08-09T16:15:30Z</time>
      </trkpt>
      <trkpt lat="44.58128" lon="3.77104">
        <ele>1292.5</ele>
        <time>2021-08-09T16:15:32Z</time>
      </trkpt>
      <trkpt lat="44.58115" lon="3.77088">
        <ele>1291.4</ele>
        <time>2021-08-09T16:15:34Z</time>
      </trkpt>
      <trkpt lat="44.58101" lon="3.77072">
        <ele>1291.1</ele>
        <time>2021-08-09T16:15:36Z</time>
      </trkpt>
      <trkpt lat="44.58086" lon="3.77055">
        <ele>1290.8</ele>
        <time>2021-08-09T16:15:38Z</time>
      </trkpt>
      <trkpt lat="44.58072" lon="3.77039">
        <ele>1289.8</ele>
        <time>2021-08-09T16:15:40Z</time>
      </trkpt>
      <trkpt lat="44.58057" lon="3.77024">
        <ele>1288.7</ele>
        <time>2021-08-09T16:15:42Z</time>
      </trkpt>
      <trkpt lat="44.58042" lon="3.77008">
        <ele>1287.5</ele>
        <time>2021-08-09T16:15:44Z</time>
      </trkpt>
      <trkpt lat="44.58027" lon="3.76992">
        <ele>1286.6</ele>
        <time>2021-08-09T16:15:46Z</time>
      </trkpt>
      <trkpt lat="44.58015" lon="3.76972">
        <ele>1285.5</ele>
        <time>2021-08-09T16:15:48Z</time>
      </trkpt>
      <trkpt lat="44.58002" lon="3.76953">
        <ele>1284.4</ele>
        <time>2021-08-09T16:15:50Z</time>
      </trkpt>
      <trkpt lat="44.57988" lon="3.76934">
        <ele>1283.8</ele>
        <time>2021-08-09T16:15:52Z</time>
      </trkpt>
      <trkpt lat="44.57974" lon="3.76916">
        <ele>1283.1</ele>
        <time>2021-08-09T16:15:54Z</time>
      </trkpt>
      <trkpt lat="44.57959" lon="3.76896">
        <ele>1282.8</ele>
        <time>2021-08-09T16:15:56Z</time>
      </trkpt>
      <trkpt lat="44.57946" lon="3.76875">
        <ele>1282.1</ele>
        <time>2021-08-09T16:15:58Z</time>
      </trkpt>
      <trkpt lat="44.57935" lon="3.76853">
        <ele>1280.8</ele>
        <time>2021-08-09T16:16:00Z</time>
      </trkpt>
      <trkpt lat="44.57924" lon="3.76828">
        <ele>1279.3</ele>
        <time>2021-08-09T16:16:02Z</time>
      </trkpt>
      <trkpt lat="44.57914" lon="3.76804">
        <ele>1278.5</ele>
        <time>2021-08-09T16:16:04Z</time>
      </trkpt>
      <trkpt lat="44.57903" lon="3.7678">
        <ele>1277.7</ele>
        <time>2021-08-09T16:16:06Z</time>
      </trkpt>
      <trkpt lat="44.57892" lon="3.76755">
        <ele>1276.8</ele>
        <time>2021-08-09T16:16:08Z</time>
      </trkpt>
      <trkpt lat="44.5788" lon="3.76732">
        <ele>1276</ele>
        <time>2021-08-09T16:16:10Z</time>
      </trkpt>
      <trkpt lat="44.57869" lon="3.7671">
        <ele>1275.3</ele>
        <time>2021-08-09T16:16:12Z</time>
      </trkpt>
      <trkpt lat="44.57858" lon="3.76687">
        <ele>1274.6</ele>
        <time>2021-08-09T16:16:14Z</time>
      </trkpt>
      <trkpt lat="44.57848" lon="3.76663">
        <ele>1273.8</ele>
        <time>2021-08-09T16:16:16Z</time>
      </trkpt>
      <trkpt lat="44.5784" lon="3.76637">
        <ele>1272.8</ele>
        <time>2021-08-09T16:16:18Z</time>
      </trkpt>
      <trkpt lat="44.57832" lon="3.76611">
        <ele>1271.7</ele>
        <time>2021-08-09T16:16:20Z</time>
      </trkpt>
      <trkpt lat="44.57821" lon="3.76586">
        <ele>1270.3</ele>
        <time>2021-08-09T16:16:22Z</time>
      </trkpt>
      <trkpt lat="44.57809" lon="3.76561">
        <ele>1269.2</ele>
        <time>2021-08-09T16:16:24Z</time>
      </trkpt>
      <trkpt lat="44.57795" lon="3.76537">
        <ele>1268</ele>
        <time>2021-08-09T16:16:26Z</time>
      </trkpt>
      <trkpt lat="44.57788" lon="3.76511">
        <ele>1266.6</ele>
        <time>2021-08-09T16:16:28Z</time>
      </trkpt>
      <trkpt lat="44.57777" lon="3.76485">
        <ele>1265.6</ele>
        <time>2021-08-09T16:16:30Z</time>
      </trkpt>
      <trkpt lat="44.57765" lon="3.7646">
        <ele>1265</ele>
        <time>2021-08-09T16:16:32Z</time>
      </trkpt>
      <trkpt lat="44.57755" lon="3.76435">
        <ele>1264.4</ele>
        <time>2021-08-09T16:16:34Z</time>
      </trkpt>
      <trkpt lat="44.57745" lon="3.76411">
        <ele>1263.8</ele>
        <time>2021-08-09T16:16:36Z</time>
      </trkpt>
      <trkpt lat="44.57736" lon="3.76389">
        <ele>1263.2</ele>
        <time>2021-08-09T16:16:38Z</time>
      </trkpt>
      <trkpt lat="44.57728" lon="3.76366">
        <ele>1262.5</ele>
        <time>2021-08-09T16:16:40Z</time>
      </trkpt>
      <trkpt lat="44.57725" lon="3.7634">
        <ele>1261.9</ele>
        <time>2021-08-09T16:16:42Z</time>
      </trkpt>
      <trkpt lat="44.57722" lon="3.76314">
        <ele>1261.2</ele>
        <time>2021-08-09T16:16:44Z</time>
      </trkpt>
      <trkpt lat="44.5772" lon="3.76289">
        <ele>1260.6</ele>
        <time>2021-08-09T16:16:46Z</time>
      </trkpt>
      <trkpt lat="44.57717" lon="3.76265">
        <ele>1260</ele>
        <time>2021-08-09T16:16:48Z</time>
      </trkpt>
      <trkpt lat="44.57715" lon="3.76245">
        <ele>1259.5</ele>
        <time>2021-08-09T16:16:50Z</time>
      </trkpt>
      <trkpt lat="44.57714" lon="3.76225">
        <ele>1259</ele>
        <time>2021-08-09T16:16:52Z</time>
      </trkpt>
      <trkpt lat="44.57712" lon="3.76208">
        <ele>1258.5</ele>
        <time>2021-08-09T16:16:54Z</time>
      </trkpt>
      <trkpt lat="44.57711" lon="3.7619">
        <ele>1258.1</ele>
        <time>2021-08-09T16:16:56Z</time>
      </trkpt>
      <trkpt lat="44.57708" lon="3.76173">
        <ele>1257.6</ele>
        <time>2021-08-09T16:16:58Z</time>
      </trkpt>
      <trkpt lat="44.57701" lon="3.76156">
        <ele>1257.3</ele>
        <time>2021-08-09T16:17:00Z</time>
      </trkpt>
      <trkpt lat="44.57692" lon="3.76141">
        <ele>1257.1</ele>
        <time>2021-08-09T16:17:02Z</time>
      </trkpt>
      <trkpt lat="44.57678" lon="3.76129">
        <ele>1256.7</ele>
        <time>2021-08-09T16:17:04Z</time>
      </trkpt>
      <trkpt lat="44.57664" lon="3.76119">
        <ele>1256.2</ele>
        <time>2021-08-09T16:17:06Z</time>
      </trkpt>
      <trkpt lat="44.57649" lon="3.76111">
        <ele>1254.8</ele>
        <time>2021-08-09T16:17:08Z</time>
      </trkpt>
      <trkpt lat="44.57633" lon="3.76106">
        <ele>1253.5</ele>
        <time>2021-08-09T16:17:10Z</time>
      </trkpt>
      <trkpt lat="44.57619" lon="3.76103">
        <ele>1252.2</ele>
        <time>2021-08-09T16:17:12Z</time>
      </trkpt>
      <trkpt lat="44.57604" lon="3.761">
        <ele>1251</ele>
        <time>2021-08-09T16:17:14Z</time>
      </trkpt>
      <trkpt lat="44.57591" lon="3.761">
        <ele>1249.8</ele>
        <time>2021-08-09T16:17:16Z</time>
      </trkpt>
      <trkpt lat="44.57578" lon="3.76102">
        <ele>1248.6</ele>
        <time>2021-08-09T16:17:18Z</time>
      </trkpt>
      <trkpt lat="44.57567" lon="3.76106">
        <ele>1247.3</ele>
        <time>2021-08-09T16:17:20Z</time>
      </trkpt>
      <trkpt lat="44.57557" lon="3.76113">
        <ele>1246.3</ele>
        <time>2021-08-09T16:17:22Z</time>
      </trkpt>
      <trkpt lat="44.57547" lon="3.76121">
        <ele>1245.3</ele>
        <time>2021-08-09T16:17:24Z</time>
      </trkpt>
      <trkpt lat="44.57538" lon="3.76133">
        <ele>1244.4</ele>
        <time>2021-08-09T16:17:26Z</time>
      </trkpt>
      <trkpt lat="44.57528" lon="3.76146">
        <ele>1243.7</ele>
        <time>2021-08-09T16:17:28Z</time>
      </trkpt>
      <trkpt lat="44.57519" lon="3.7616">
        <ele>1242.9</ele>
        <time>2021-08-09T16:17:30Z</time>
      </trkpt>
      <trkpt lat="44.57509" lon="3.76175">
        <ele>1242.3</ele>
        <time>2021-08-09T16:17:32Z</time>
      </trkpt>
      <trkpt lat="44.575" lon="3.76189">
        <ele>1241.8</ele>
        <time>2021-08-09T16:17:34Z</time>
      </trkpt>
      <trkpt lat="44.5749" lon="3.76204">
        <ele>1240.5</ele>
        <time>2021-08-09T16:17:36Z</time>
      </trkpt>
      <trkpt lat="44.57477" lon="3.76212">
        <ele>1238.6</ele>
        <time>2021-08-09T16:17:38Z</time>
      </trkpt>
      <trkpt lat="44.57465" lon="3.7621">
        <ele>1236.4</ele>
        <time>2021-08-09T16:17:40Z</time>
      </trkpt>
      <trkpt lat="44.57456" lon="3.76194">
        <ele>1234.5</ele>
        <time>2021-08-09T16:17:42Z</time>
      </trkpt>
      <trkpt lat="44.57455" lon="3.76172">
        <ele>1233.7</ele>
        <time>2021-08-09T16:17:44Z</time>
      </trkpt>
      <trkpt lat="44.57455" lon="3.7615">
        <ele>1233.4</ele>
        <time>2021-08-09T16:17:46Z</time>
      </trkpt>
      <trkpt lat="44.57451" lon="3.76127">
        <ele>1232.7</ele>
        <time>2021-08-09T16:17:48Z</time>
      </trkpt>
      <trkpt lat="44.57442" lon="3.76104">
        <ele>1231.3</ele>
        <time>2021-08-09T16:17:50Z</time>
      </trkpt>
      <trkpt lat="44.57428" lon="3.76085">
        <ele>1229.5</ele>
        <time>2021-08-09T16:17:52Z</time>
      </trkpt>
      <trkpt lat="44.57413" lon="3.76071">
        <ele>1228.5</ele>
        <time>2021-08-09T16:17:54Z</time>
      </trkpt>
      <trkpt lat="44.57397" lon="3.76064">
        <ele>1227.5</ele>
        <time>2021-08-09T16:17:56Z</time>
      </trkpt>
      <trkpt lat="44.57378" lon="3.76061">
        <ele>1226.3</ele>
        <time>2021-08-09T16:17:58Z</time>
      </trkpt>
      <trkpt lat="44.5736" lon="3.76066">
        <ele>1224.3</ele>
        <time>2021-08-09T16:18:00Z</time>
      </trkpt>
      <trkpt lat="44.57342" lon="3.76076">
        <ele>1221.7</ele>
        <time>2021-08-09T16:18:02Z</time>
      </trkpt>
      <trkpt lat="44.57323" lon="3.7608">
        <ele>1219.6</ele>
        <time>2021-08-09T16:18:04Z</time>
      </trkpt>
      <trkpt lat="44.57304" lon="3.76082">
        <ele>1218</ele>
        <time>2021-08-09T16:18:06Z</time>
      </trkpt>
      <trkpt lat="44.57284" lon="3.76086">
        <ele>1216.2</ele>
        <time>2021-08-09T16:18:08Z</time>
      </trkpt>
      <trkpt lat="44.57265" lon="3.76091">
        <ele>1214.2</ele>
        <time>2021-08-09T16:18:10Z</time>
      </trkpt>
      <trkpt lat="44.57246" lon="3.76096">
        <ele>1212.3</ele>
        <time>2021-08-09T16:18:12Z</time>
      </trkpt>
      <trkpt lat="44.57228" lon="3.76101">
        <ele>1210.3</ele>
        <time>2021-08-09T16:18:14Z</time>
      </trkpt>
      <trkpt lat="44.57209" lon="3.76106">
        <ele>1208.2</ele>
        <time>2021-08-09T16:18:16Z</time>
      </trkpt>
      <trkpt lat="44.57189" lon="3.76106">
        <ele>1206.5</ele>
        <time>2021-08-09T16:18:18Z</time>
      </trkpt>
      <trkpt lat="44.5717" lon="3.76099">
        <ele>1205.6</ele>
        <time>2021-08-09T16:18:20Z</time>
      </trkpt>
      <trkpt lat="44.57152" lon="3.76089">
        <ele>1203.4</ele>
        <time>2021-08-09T16:18:22Z</time>
      </trkpt>
      <trkpt lat="44.57137" lon="3.76075">
        <ele>1201.8</ele>
        <time>2021-08-09T16:18:24Z</time>
      </trkpt>
      <trkpt lat="44.57124" lon="3.76057">
        <ele>1200.7</ele>
        <time>2021-08-09T16:18:26Z</time>
      </trkpt>
      <trkpt lat="44.57113" lon="3.76036">
        <ele>1200.2</ele>
        <time>2021-08-09T16:18:28Z</time>
      </trkpt>
      <trkpt lat="44.57104" lon="3.76015">
        <ele>1199.9</ele>
        <time>2021-08-09T16:18:30Z</time>
      </trkpt>
      <trkpt lat="44.57094" lon="3.75992">
        <ele>1199.2</ele>
        <time>2021-08-09T16:18:32Z</time>
      </trkpt>
      <trkpt lat="44.57083" lon="3.75968">
        <ele>1198.2</ele>
        <time>2021-08-09T16:18:34Z</time>
      </trkpt>
      <trkpt lat="44.57073" lon="3.75946">
        <ele>1197.5</ele>
        <time>2021-08-09T16:18:36Z</time>
      </trkpt>
      <trkpt lat="44.57064" lon="3.75926">
        <ele>1196.4</ele>
        <time>2021-08-09T16:18:38Z</time>
      </trkpt>
      <trkpt lat="44.57054" lon="3.75908">
        <ele>1194.5</ele>
        <time>2021-08-09T16:18:40Z</time>
      </trkpt>
      <trkpt lat="44.57045" lon="3.75892">
        <ele>1192.3</ele>
        <time>2021-08-09T16:18:42Z</time>
      </trkpt>
      <trkpt lat="44.57037" lon="3.75877">
        <ele>1190.4</ele>
        <time>2021-08-09T16:18:44Z</time>
      </trkpt>
      <trkpt lat="44.57028" lon="3.75861">
        <ele>1188.5</ele>
        <time>2021-08-09T16:18:46Z</time>
      </trkpt>
      <trkpt lat="44.57021" lon="3.75846">
        <ele>1187</ele>
        <time>2021-08-09T16:18:48Z</time>
      </trkpt>
      <trkpt lat="44.57019" lon="3.75831">
        <ele>1186.8</ele>
        <time>2021-08-09T16:18:50Z</time>
      </trkpt>
      <trkpt lat="44.57021" lon="3.75814">
        <ele>1187.9</ele>
        <time>2021-08-09T16:18:52Z</time>
      </trkpt>
      <trkpt lat="44.57021" lon="3.75799">
        <ele>1188.3</ele>
        <time>2021-08-09T16:18:54Z</time>
      </trkpt>
      <trkpt lat="44.5702" lon="3.75786">
        <ele>1188.2</ele>
        <time>2021-08-09T16:18:56Z</time>
      </trkpt>
      <trkpt lat="44.57017" lon="3.75772">
        <ele>1188</ele>
        <time>2021-08-09T16:18:58Z</time>
      </trkpt>
      <trkpt lat="44.57012" lon="3.75761">
        <ele>1187.2</ele>
        <time>2021-08-09T16:19:00Z</time>
      </trkpt>
      <trkpt lat="44.57006" lon="3.75749">
        <ele>1186.3</ele>
        <time>2021-08-09T16:19:02Z</time>
      </trkpt>
      <trkpt lat="44.57" lon="3.75737">
        <ele>1185.1</ele>
        <time>2021-08-09T16:19:04Z</time>
      </trkpt>
      <trkpt lat="44.56995" lon="3.75729">
        <ele>1184.3</ele>
        <time>2021-08-09T16:19:06Z</time>
      </trkpt>
      <trkpt lat="44.56991" lon="3.75718">
        <ele>1183.8</ele>
        <time>2021-08-09T16:19:08Z</time>
      </trkpt>
      <trkpt lat="44.56995" lon="3.75703">
        <ele>1184.3</ele>
        <time>2021-08-09T16:19:10Z</time>
      </trkpt>
      <trkpt lat="44.56998" lon="3.75689">
        <ele>1184.8</ele>
        <time>2021-08-09T16:19:12Z</time>
      </trkpt>
      <trkpt lat="44.56999" lon="3.75673">
        <ele>1184.9</ele>
        <time>2021-08-09T16:19:14Z</time>
      </trkpt>
      <trkpt lat="44.56995" lon="3.75659">
        <ele>1184.7</ele>
        <time>2021-08-09T16:19:16Z</time>
      </trkpt>
      <trkpt lat="44.56986" lon="3.75648">
        <ele>1184</ele>
        <time>2021-08-09T16:19:18Z</time>
      </trkpt>
      <trkpt lat="44.56976" lon="3.75638">
        <ele>1183.4</ele>
        <time>2021-08-09T16:19:20Z</time>
      </trkpt>
      <trkpt lat="44.56965" lon="3.75629">
        <ele>1182.4</ele>
        <time>2021-08-09T16:19:22Z</time>
      </trkpt>
      <trkpt lat="44.56952" lon="3.75622">
        <ele>1181.1</ele>
        <time>2021-08-09T16:19:24Z</time>
      </trkpt>
      <trkpt lat="44.56939" lon="3.75618">
        <ele>1179.6</ele>
        <time>2021-08-09T16:19:26Z</time>
      </trkpt>
      <trkpt lat="44.56926" lon="3.75615">
        <ele>1178.3</ele>
        <time>2021-08-09T16:19:28Z</time>
      </trkpt>
      <trkpt lat="44.56914" lon="3.75612">
        <ele>1177</ele>
        <time>2021-08-09T16:19:30Z</time>
      </trkpt>
      <trkpt lat="44.56903" lon="3.75608">
        <ele>1176.3</ele>
        <time>2021-08-09T16:19:32Z</time>
      </trkpt>
      <trkpt lat="44.56893" lon="3.75603">
        <ele>1175.6</ele>
        <time>2021-08-09T16:19:34Z</time>
      </trkpt>
      <trkpt lat="44.56884" lon="3.75597">
        <ele>1175.1</ele>
        <time>2021-08-09T16:19:36Z</time>
      </trkpt>
      <trkpt lat="44.56876" lon="3.75591">
        <ele>1174.6</ele>
        <time>2021-08-09T16:19:38Z</time>
      </trkpt>
      <trkpt lat="44.56866" lon="3.75584">
        <ele>1174.1</ele>
        <time>2021-08-09T16:19:40Z</time>
      </trkpt>
      <trkpt lat="44.56857" lon="3.7558">
        <ele>1173.4</ele>
        <time>2021-08-09T16:19:42Z</time>
      </trkpt>
      <trkpt lat="44.56849" lon="3.75577">
        <ele>1173</ele>
        <time>2021-08-09T16:19:44Z</time>
      </trkpt>
      <trkpt lat="44.56843" lon="3.75571">
        <ele>1172.7</ele>
        <time>2021-08-09T16:19:46Z</time>
      </trkpt>
      <trkpt lat="44.56837" lon="3.75562">
        <ele>1172.7</ele>
        <time>2021-08-09T16:19:48Z</time>
      </trkpt>
      <trkpt lat="44.56833" lon="3.75548">
        <ele>1173.1</ele>
        <time>2021-08-09T16:19:50Z</time>
      </trkpt>
      <trkpt lat="44.56828" lon="3.75533">
        <ele>1173.4</ele>
        <time>2021-08-09T16:19:52Z</time>
      </trkpt>
      <trkpt lat="44.56823" lon="3.75517">
        <ele>1173.7</ele>
        <time>2021-08-09T16:19:54Z</time>
      </trkpt>
      <trkpt lat="44.56818" lon="3.75501">
        <ele>1174.1</ele>
        <time>2021-08-09T16:19:56Z</time>
      </trkpt>
      <trkpt lat="44.56813" lon="3.75486">
        <ele>1174.4</ele>
        <time>2021-08-09T16:19:58Z</time>
      </trkpt>
      <trkpt lat="44.56808" lon="3.75472">
        <ele>1174.7</ele>
        <time>2021-08-09T16:20:00Z</time>
      </trkpt>
      <trkpt lat="44.56803" lon="3.7546">
        <ele>1174.8</ele>
        <time>2021-08-09T16:20:02Z</time>
      </trkpt>
      <trkpt lat="44.56798" lon="3.75452">
        <ele>1174.6</ele>
        <time>2021-08-09T16:20:04Z</time>
      </trkpt>
      <trkpt lat="44.56792" lon="3.75447">
        <ele>1174.2</ele>
        <time>2021-08-09T16:20:06Z</time>
      </trkpt>
      <trkpt lat="44.56786" lon="3.75444">
        <ele>1173.7</ele>
        <time>2021-08-09T16:20:08Z</time>
      </trkpt>
      <trkpt lat="44.56781" lon="3.75442">
        <ele>1173.2</ele>
        <time>2021-08-09T16:20:10Z</time>
      </trkpt>
      <trkpt lat="44.56777" lon="3.75441">
        <ele>1172.8</ele>
        <time>2021-08-09T16:20:12Z</time>
      </trkpt>
      <trkpt lat="44.56774" lon="3.7544">
        <ele>1172.5</ele>
        <time>2021-08-09T16:20:14Z</time>
      </trkpt>
      <trkpt lat="44.5677" lon="3.75438">
        <ele>1172.2</ele>
        <time>2021-08-09T16:20:16Z</time>
      </trkpt>
      <trkpt lat="44.56766" lon="3.75434">
        <ele>1171.9</ele>
        <time>2021-08-09T16:20:18Z</time>
      </trkpt>
      <trkpt lat="44.56762" lon="3.75428">
        <ele>1171.7</ele>
        <time>2021-08-09T16:20:20Z</time>
      </trkpt>
      <trkpt lat="44.56759" lon="3.75422">
        <ele>1171.8</ele>
        <time>2021-08-09T16:20:22Z</time>
      </trkpt>
      <trkpt lat="44.56757" lon="3.75416">
        <ele>1171.8</ele>
        <time>2021-08-09T16:20:24Z</time>
      </trkpt>
      <trkpt lat="44.56754" lon="3.7541">
        <ele>1171.8</ele>
        <time>2021-08-09T16:20:26Z</time>
      </trkpt>
      <trkpt lat="44.56753" lon="3.75403">
        <ele>1171.9</ele>
        <time>2021-08-09T16:20:28Z</time>
      </trkpt>
      <trkpt lat="44.56751" lon="3.75397">
        <ele>1171.9</ele>
        <time>2021-08-09T16:20:30Z</time>
      </trkpt>
      <trkpt lat="44.5675" lon="3.75392">
        <ele>1171.9</ele>
        <time>2021-08-09T16:20:32Z</time>
      </trkpt>
      <trkpt lat="44.56748" lon="3.75386">
        <ele>1172</ele>
        <time>2021-08-09T16:20:34Z</time>
      </trkpt>
      <trkpt lat="44.56747" lon="3.75381">
        <ele>1172.1</ele>
        <time>2021-08-09T16:20:36Z</time>
      </trkpt>
      <trkpt lat="44.56745" lon="3.75376">
        <ele>1172.2</ele>
        <time>2021-08-09T16:20:38Z</time>
      </trkpt>
      <trkpt lat="44.56743" lon="3.75372">
        <ele>1172.3</ele>
        <time>2021-08-09T16:20:40Z</time>
      </trkpt>
      <trkpt lat="44.5674" lon="3.75374">
        <ele>1172</ele>
        <time>2021-08-09T16:20:42Z</time>
      </trkpt>
      <trkpt lat="44.5674" lon="3.75379">
        <ele>1171.9</ele>
        <time>2021-08-09T16:20:44Z</time>
      </trkpt>
      <trkpt lat="44.56742" lon="3.75384">
        <ele>1171.8</ele>
        <time>2021-08-09T16:20:46Z</time>
      </trkpt>
      <trkpt lat="44.56744" lon="3.75388">
        <ele>1171.7</ele>
        <time>2021-08-09T16:20:48Z</time>
      </trkpt>
      <trkpt lat="44.56745" lon="3.75393">
        <ele>1171.6</ele>
        <time>2021-08-09T16:20:50Z</time>
      </trkpt>
      <trkpt lat="44.56746" lon="3.75395">
        <ele>1171.6</ele>
        <time>2021-08-09T16:20:52Z</time>
      </trkpt>
      <trkpt lat="44.56747" lon="3.75398">
        <ele>1171.5</ele>
        <time>2021-08-09T16:20:54Z</time>
      </trkpt>
      <trkpt lat="44.56748" lon="3.75399">
        <ele>1171.5</ele>
        <time>2021-08-09T16:20:56Z</time>
      </trkpt>
      <trkpt lat="44.56749" lon="3.754">
        <ele>1171.5</ele>
        <time>2021-08-09T16:20:58Z</time>
      </trkpt>
      <trkpt lat="44.56749" lon="3.754">
        <ele>1171.6</ele>
        <time>2021-08-09T16:21:00Z</time>
      </trkpt>
      <trkpt lat="44.56752" lon="3.75402">
        <ele>1171.7</ele>
        <time>2021-08-09T16:21:22Z</time>
      </trkpt>
      <trkpt lat="44.56752" lon="3.75406">
        <ele>1171.6</ele>
        <time>2021-08-09T16:21:24Z</time>
      </trkpt>
      <trkpt lat="44.56754" lon="3.7541">
        <ele>1171.7</ele>
        <time>2021-08-09T16:21:26Z</time>
      </trkpt>
      <trkpt lat="44.56756" lon="3.75415">
        <ele>1171.7</ele>
        <time>2021-08-09T16:21:28Z</time>
      </trkpt>
      <trkpt lat="44.56758" lon="3.7542">
        <ele>1171.8</ele>
        <time>2021-08-09T16:21:30Z</time>
      </trkpt>
      <trkpt lat="44.5676" lon="3.75425">
        <ele>1171.8</ele>
        <time>2021-08-09T16:21:32Z</time>
      </trkpt>
      <trkpt lat="44.56762" lon="3.7543">
        <ele>1171.6</ele>
        <time>2021-08-09T16:21:34Z</time>
      </trkpt>
      <trkpt lat="44.56764" lon="3.75436">
        <ele>1171.5</ele>
        <time>2021-08-09T16:21:36Z</time>
      </trkpt>
      <trkpt lat="44.56765" lon="3.75441">
        <ele>1171.4</ele>
        <time>2021-08-09T16:21:38Z</time>
      </trkpt>
      <trkpt lat="44.56767" lon="3.75446">
        <ele>1171.2</ele>
        <time>2021-08-09T16:21:40Z</time>
      </trkpt>
      <trkpt lat="44.56768" lon="3.75448">
        <ele>1171.2</ele>
        <time>2021-08-09T16:21:42Z</time>
      </trkpt>
      <trkpt lat="44.5677" lon="3.7545">
        <ele>1171.4</ele>
        <time>2021-08-09T16:21:44Z</time>
      </trkpt>
      <trkpt lat="44.56772" lon="3.75449">
        <ele>1171.8</ele>
        <time>2021-08-09T16:21:46Z</time>
      </trkpt>
      <trkpt lat="44.56774" lon="3.75448">
        <ele>1172.1</ele>
        <time>2021-08-09T16:21:48Z</time>
      </trkpt>
      <trkpt lat="44.56775" lon="3.75448">
        <ele>1172.2</ele>
        <time>2021-08-09T16:21:50Z</time>
      </trkpt>
      <trkpt lat="44.56775" lon="3.75448">
        <ele>1172.2</ele>
        <time>2021-08-09T16:21:52Z</time>
      </trkpt>
      <trkpt lat="44.56775" lon="3.75448">
        <ele>1172.1</ele>
        <time>2021-08-09T16:21:54Z</time>
      </trkpt>
      <trkpt lat="44.56775" lon="3.75448">
        <ele>1172.1</ele>
        <time>2021-08-09T16:21:56Z</time>
      </trkpt>
      <trkpt lat="44.56775" lon="3.75448">
        <ele>1172.1</ele>
        <time>2021-08-09T16:21:58Z</time>
      </trkpt>
      <trkpt lat="44.56775" lon="3.75448">
        <ele>1172.1</ele>
        <time>2021-08-09T16:22:00Z</time>
      </trkpt>
      <trkpt lat="44.56775" lon="3.75448">
        <ele>1172.1</ele>
        <time>2021-08-09T16:22:02Z</time>
      </trkpt>
      <trkpt lat="44.56775" lon="3.75448">
        <ele>1172.1</ele>
        <time>2021-08-09T16:22:04Z</time>
      </trkpt>
      <trkpt lat="44.56774" lon="3.75448">
        <ele>1172</ele>
        <time>2021-08-09T16:22:06Z</time>
      </trkpt>
      <trkpt lat="44.56774" lon="3.75448">
        <ele>1172</ele>
        <time>2021-08-09T16:22:08Z</time>
      </trkpt>
      <trkpt lat="44.56774" lon="3.75448">
        <ele>1172</ele>
        <time>2021-08-09T16:22:10Z</time>
      </trkpt>
      <trkpt lat="44.56774" lon="3.75448">
        <ele>1172</ele>
        <time>2021-08-09T16:22:12Z</time>
      </trkpt>
      <trkpt lat="44.56774" lon="3.75448">
        <ele>1172</ele>
        <time>2021-08-09T16:22:14Z</time>
      </trkpt>
      <trkpt lat="44.56774" lon="3.75448">
        <ele>1172</ele>
        <time>2021-08-09T16:22:16Z</time>
      </trkpt>
      <trkpt lat="44.56774" lon="3.75448">
        <ele>1172</ele>
        <time>2021-08-09T16:22:18Z</time>
      </trkpt>
      <trkpt lat="44.56774" lon="3.75447">
        <ele>1172</ele>
        <time>2021-08-09T16:22:20Z</time>
      </trkpt>
      <trkpt lat="44.56775" lon="3.75447">
        <ele>1172.1</ele>
        <time>2021-08-09T16:22:22Z</time>
      </trkpt>
      <trkpt lat="44.56775" lon="3.75447">
        <ele>1172.2</ele>
        <time>2021-08-09T16:22:24Z</time>
      </trkpt>
      <trkpt lat="44.56775" lon="3.75447">
        <ele>1172.2</ele>
        <time>2021-08-09T16:22:26Z</time>
      </trkpt>
      <trkpt lat="44.56775" lon="3.75447">
        <ele>1172.2</ele>
        <time>2021-08-09T16:22:28Z</time>
      </trkpt>
      <trkpt lat="44.56775" lon="3.75447">
        <ele>1172.2</ele>
        <time>2021-08-09T16:22:30Z</time>
      </trkpt>
      <trkpt lat="44.56775" lon="3.75447">
        <ele>1172.2</ele>
        <time>2021-08-09T16:22:32Z</time>
      </trkpt>
      <trkpt lat="44.56775" lon="3.75447">
        <ele>1172.2</ele>
        <time>2021-08-09T16:22:34Z</time>
      </trkpt>
      <trkpt lat="44.56775" lon="3.75447">
        <ele>1172.2</ele>
        <time>2021-08-09T16:22:38Z</time>
      </trkpt>
      <trkpt lat="44.56775" lon="3.75447">
        <ele>1172.2</ele>
        <time>2021-08-09T16:22:42Z</time>
      </trkpt>
      <trkpt lat="44.56775" lon="3.75447">
        <ele>1172.2</ele>
        <time>2021-08-09T16:22:46Z</time>
      </trkpt>
      <trkpt lat="44.56775" lon="3.75447">
        <ele>1172.2</ele>
        <time>2021-08-09T16:22:50Z</time>
      </trkpt>
      <trkpt lat="44.56775" lon="3.75447">
        <ele>1172.2</ele>
        <time>2021-08-09T16:22:54Z</time>
      </trkpt>
      <trkpt lat="44.56775" lon="3.75447">
        <ele>1172.2</ele>
        <time>2021-08-09T16:22:58Z</time>
      </trkpt>
      <trkpt lat="44.56775" lon="3.75447">
        <ele>1172.2</ele>
        <time>2021-08-09T16:23:02Z</time>
      </trkpt>
      <trkpt lat="44.56775" lon="3.75447">
        <ele>1172.2</ele>
        <time>2021-08-09T16:23:06Z</time>
      </trkpt>
      <trkpt lat="44.56775" lon="3.75447">
        <ele>1172.2</ele>
        <time>2021-08-09T16:23:10Z</time>
      </trkpt>
      <trkpt lat="44.56775" lon="3.75447">
        <ele>1172.2</ele>
        <time>2021-08-09T16:23:14Z</time>
      </trkpt>
      <trkpt lat="44.56775" lon="3.75447">
        <ele>1172.2</ele>
        <time>2021-08-09T16:23:18Z</time>
      </trkpt>
      <trkpt lat="44.56775" lon="3.75447">
        <ele>1172.2</ele>
        <time>2021-08-09T16:23:22Z</time>
      </trkpt>
      <trkpt lat="44.56775" lon="3.75447">
        <ele>1172.2</ele>
        <time>2021-08-09T16:23:26Z</time>
      </trkpt>
      <trkpt lat="44.56775" lon="3.75447">
        <ele>1172.2</ele>
        <time>2021-08-09T16:23:30Z</time>
      </trkpt>
      <trkpt lat="44.56775" lon="3.75447">
        <ele>1172.2</ele>
        <time>2021-08-09T16:23:34Z</time>
      </trkpt>
      <trkpt lat="44.56775" lon="3.75447">
        <ele>1172.2</ele>
        <time>2021-08-09T16:23:38Z</time>
      </trkpt>
      <trkpt lat="44.56775" lon="3.75447">
        <ele>1172.2</ele>
        <time>2021-08-09T16:23:42Z</time>
      </trkpt>
      <trkpt lat="44.56775" lon="3.75447">
        <ele>1172.2</ele>
        <time>2021-08-09T16:23:46Z</time>
      </trkpt>
      <trkpt lat="44.56775" lon="3.75447">
        <ele>1172.2</ele>
        <time>2021-08-09T16:23:50Z</time>
      </trkpt>
      <trkpt lat="44.56775" lon="3.75447">
        <ele>1172.2</ele>
        <time>2021-08-09T16:23:54Z</time>
      </trkpt>
      <trkpt lat="44.56775" lon="3.75447">
        <ele>1172.2</ele>
        <time>2021-08-09T16:23:58Z</time>
      </trkpt>
      <trkpt lat="44.56775" lon="3.75447">
        <ele>1172.2</ele>
        <time>2021-08-09T16:24:02Z</time>
      </trkpt>
      <trkpt lat="44.56775" lon="3.75447">
        <ele>1172.2</ele>
        <time>2021-08-09T16:24:06Z</time>
      </trkpt>
      <trkpt lat="44.56775" lon="3.75447">
        <ele>1172.2</ele>
        <time>2021-08-09T16:24:10Z</time>
      </trkpt>
      <trkpt lat="44.56775" lon="3.75447">
        <ele>1172.2</ele>
        <time>2021-08-09T16:24:14Z</time>
      </trkpt>
      <trkpt lat="44.56775" lon="3.75447">
        <ele>1172.2</ele>
        <time>2021-08-09T16:24:18Z</time>
      </trkpt>
      <trkpt lat="44.56775" lon="3.75447">
        <ele>1172.2</ele>
        <time>2021-08-09T16:24:22Z</time>
      </trkpt>
      <trkpt lat="44.56775" lon="3.75447">
        <ele>1172.2</ele>
        <time>2021-08-09T16:24:26Z</time>
      </trkpt>
      <trkpt lat="44.56775" lon="3.75447">
        <ele>1172.2</ele>
        <time>2021-08-09T16:24:30Z</time>
      </trkpt>
      <trkpt lat="44.56775" lon="3.75447">
        <ele>1172.2</ele>
        <time>2021-08-09T16:24:34Z</time>
      </trkpt>
      <trkpt lat="44.56775" lon="3.75447">
        <ele>1172.2</ele>
        <time>2021-08-09T16:24:38Z</time>
      </trkpt>
      <trkpt lat="44.56774" lon="3.75444">
        <ele>1172.3</ele>
        <time>2021-08-09T16:24:40Z</time>
      </trkpt>
      <trkpt lat="44.56774" lon="3.75444">
        <ele>1172.3</ele>
        <time>2021-08-09T16:24:42Z</time>
      </trkpt>
      <trkpt lat="44.56774" lon="3.75444">
        <ele>1172.3</ele>
        <time>2021-08-09T16:24:44Z</time>
      </trkpt>
      <trkpt lat="44.56774" lon="3.75444">
        <ele>1172.3</ele>
        <time>2021-08-09T16:24:48Z</time>
      </trkpt>
      <trkpt lat="44.56774" lon="3.75444">
        <ele>1172.3</ele>
        <time>2021-08-09T16:24:52Z</time>
      </trkpt>
      <trkpt lat="44.56774" lon="3.75444">
        <ele>1172.3</ele>
        <time>2021-08-09T16:24:56Z</time>
      </trkpt>
      <trkpt lat="44.56774" lon="3.75444">
        <ele>1172.3</ele>
        <time>2021-08-09T16:25:00Z</time>
      </trkpt>
      <trkpt lat="44.56774" lon="3.75444">
        <ele>1172.3</ele>
        <time>2021-08-09T16:25:04Z</time>
      </trkpt>
      <trkpt lat="44.56774" lon="3.75444">
        <ele>1172.3</ele>
        <time>2021-08-09T16:25:08Z</time>
      </trkpt>
      <trkpt lat="44.56773" lon="3.75444">
        <ele>1172.2</ele>
        <time>2021-08-09T16:25:10Z</time>
      </trkpt>
      <trkpt lat="44.56773" lon="3.75444">
        <ele>1172.2</ele>
        <time>2021-08-09T16:25:12Z</time>
      </trkpt>
      <trkpt lat="44.56773" lon="3.75444">
        <ele>1172.2</ele>
        <time>2021-08-09T16:25:16Z</time>
      </trkpt>
      <trkpt lat="44.56773" lon="3.75444">
        <ele>1172.1</ele>
        <time>2021-08-09T16:25:18Z</time>
      </trkpt>
      <trkpt lat="44.56773" lon="3.75444">
        <ele>1172.1</ele>
        <time>2021-08-09T16:25:20Z</time>
      </trkpt>
      <trkpt lat="44.56773" lon="3.75444">
        <ele>1172.1</ele>
        <time>2021-08-09T16:25:22Z</time>
      </trkpt>
      <trkpt lat="44.56773" lon="3.75444">
        <ele>1172.1</ele>
        <time>2021-08-09T16:25:24Z</time>
      </trkpt>
      <trkpt lat="44.56773" lon="3.75444">
        <ele>1172.1</ele>
        <time>2021-08-09T16:25:26Z</time>
      </trkpt>
      <trkpt lat="44.56773" lon="3.75444">
        <ele>1172.1</ele>
        <time>2021-08-09T16:25:28Z</time>
      </trkpt>
      <trkpt lat="44.56773" lon="3.75444">
        <ele>1172.1</ele>
        <time>2021-08-09T16:25:32Z</time>
      </trkpt>
      <trkpt lat="44.56773" lon="3.75444">
        <ele>1172.1</ele>
        <time>2021-08-09T16:25:36Z</time>
      </trkpt>
      <trkpt lat="44.56773" lon="3.75444">
        <ele>1172.1</ele>
        <time>2021-08-09T16:25:40Z</time>
      </trkpt>
      <trkpt lat="44.56773" lon="3.75444">
        <ele>1172.1</ele>
        <time>2021-08-09T16:25:44Z</time>
      </trkpt>
      <trkpt lat="44.56773" lon="3.75444">
        <ele>1172.1</ele>
        <time>2021-08-09T16:25:46Z</time>
      </trkpt>
      <trkpt lat="44.56773" lon="3.75444">
        <ele>1172.1</ele>
        <time>2021-08-09T16:25:48Z</time>
      </trkpt>
      <trkpt lat="44.56773" lon="3.75444">
        <ele>1172.1</ele>
        <time>2021-08-09T16:25:52Z</time>
      </trkpt>
      <trkpt lat="44.56773" lon="3.75444">
        <ele>1172.1</ele>
        <time>2021-08-09T16:25:56Z</time>
      </trkpt>
      <trkpt lat="44.56774" lon="3.75445">
        <ele>1172.2</ele>
        <time>2021-08-09T16:26:00Z</time>
      </trkpt>
      <trkpt lat="44.56774" lon="3.75445">
        <ele>1172.2</ele>
        <time>2021-08-09T16:26:02Z</time>
      </trkpt>
      <trkpt lat="44.56774" lon="3.75445">
        <ele>1172.2</ele>
        <time>2021-08-09T16:26:04Z</time>
      </trkpt>
      <trkpt lat="44.56774" lon="3.75445">
        <ele>1172.2</ele>
        <time>2021-08-09T16:26:06Z</time>
      </trkpt>
      <trkpt lat="44.56774" lon="3.75445">
        <ele>1172.2</ele>
        <time>2021-08-09T16:26:10Z</time>
      </trkpt>
      <trkpt lat="44.56774" lon="3.75445">
        <ele>1172.2</ele>
        <time>2021-08-09T16:26:14Z</time>
      </trkpt>
      <trkpt lat="44.56774" lon="3.75445">
        <ele>1172.2</ele>
        <time>2021-08-09T16:26:18Z</time>
      </trkpt>
      <trkpt lat="44.56774" lon="3.75445">
        <ele>1172.2</ele>
        <time>2021-08-09T16:26:22Z</time>
      </trkpt>
      <trkpt lat="44.56774" lon="3.75445">
        <ele>1172.2</ele>
        <time>2021-08-09T16:26:26Z</time>
      </trkpt>
      <trkpt lat="44.56774" lon="3.75445">
        <ele>1172.2</ele>
        <time>2021-08-09T16:26:28Z</time>
      </trkpt>
      <trkpt lat="44.56773" lon="3.75445">
        <ele>1172.1</ele>
        <time>2021-08-09T16:26:30Z</time>
      </trkpt>
      <trkpt lat="44.56773" lon="3.75445">
        <ele>1172</ele>
        <time>2021-08-09T16:26:32Z</time>
      </trkpt>
      <trkpt lat="44.56773" lon="3.75445">
        <ele>1172</ele>
        <time>2021-08-09T16:26:34Z</time>
      </trkpt>
      <trkpt lat="44.56773" lon="3.75445">
        <ele>1172</ele>
        <time>2021-08-09T16:26:36Z</time>
      </trkpt>
      <trkpt lat="44.56773" lon="3.75445">
        <ele>1172</ele>
        <time>2021-08-09T16:26:38Z</time>
      </trkpt>
      <trkpt lat="44.56773" lon="3.75446">
        <ele>1172</ele>
        <time>2021-08-09T16:26:40Z</time>
      </trkpt>
      <trkpt lat="44.56773" lon="3.75446">
        <ele>1172</ele>
        <time>2021-08-09T16:26:42Z</time>
      </trkpt>
      <trkpt lat="44.56773" lon="3.75446">
        <ele>1172</ele>
        <time>2021-08-09T16:26:44Z</time>
      </trkpt>
      <trkpt lat="44.56773" lon="3.75446">
        <ele>1172</ele>
        <time>2021-08-09T16:26:46Z</time>
      </trkpt>
      <trkpt lat="44.56773" lon="3.75446">
        <ele>1172</ele>
        <time>2021-08-09T16:26:48Z</time>
      </trkpt>
      <trkpt lat="44.56773" lon="3.75446">
        <ele>1172</ele>
        <time>2021-08-09T16:26:50Z</time>
      </trkpt>
      <trkpt lat="44.56774" lon="3.75446">
        <ele>1172</ele>
        <time>2021-08-09T16:26:52Z</time>
      </trkpt>
      <trkpt lat="44.56774" lon="3.75447">
        <ele>1172.1</ele>
        <time>2021-08-09T16:26:54Z</time>
      </trkpt>
      <trkpt lat="44.56774" lon="3.75447">
        <ele>1172.1</ele>
        <time>2021-08-09T16:26:56Z</time>
      </trkpt>
      <trkpt lat="44.56774" lon="3.75447">
        <ele>1172.1</ele>
        <time>2021-08-09T16:26:58Z</time>
      </trkpt>
      <trkpt lat="44.56774" lon="3.75447">
        <ele>1172.1</ele>
        <time>2021-08-09T16:27:00Z</time>
      </trkpt>
      <trkpt lat="44.56774" lon="3.75447">
        <ele>1172</ele>
        <time>2021-08-09T16:27:02Z</time>
      </trkpt>
      <trkpt lat="44.56774" lon="3.75447">
        <ele>1172.1</ele>
        <time>2021-08-09T16:27:04Z</time>
      </trkpt>
      <trkpt lat="44.56774" lon="3.75447">
        <ele>1172.1</ele>
        <time>2021-08-09T16:27:06Z</time>
      </trkpt>
      <trkpt lat="44.56774" lon="3.75447">
        <ele>1172.1</ele>
        <time>2021-08-09T16:27:08Z</time>
      </trkpt>
      <trkpt lat="44.56774" lon="3.75447">
        <ele>1172.1</ele>
        <time>2021-08-09T16:27:10Z</time>
      </trkpt>
      <trkpt lat="44.56774" lon="3.75447">
        <ele>1172.1</ele>
        <time>2021-08-09T16:27:12Z</time>
      </trkpt>
      <trkpt lat="44.56774" lon="3.75447">
        <ele>1172.1</ele>
        <time>2021-08-09T16:27:14Z</time>
      </trkpt>
      <trkpt lat="44.56774" lon="3.75447">
        <ele>1172.1</ele>
        <time>2021-08-09T16:27:16Z</time>
      </trkpt>
      <trkpt lat="44.56774" lon="3.75447">
        <ele>1172.1</ele>
        <time>2021-08-09T16:27:18Z</time>
      </trkpt>
      <trkpt lat="44.56774" lon="3.75447">
        <ele>1172.1</ele>
        <time>2021-08-09T16:27:20Z</time>
      </trkpt>
      <trkpt lat="44.56774" lon="3.75447">
        <ele>1172.1</ele>
        <time>2021-08-09T16:27:22Z</time>
      </trkpt>
      <trkpt lat="44.56774" lon="3.75447">
        <ele>1172.1</ele>
        <time>2021-08-09T16:27:24Z</time>
      </trkpt>
      <trkpt lat="44.56774" lon="3.75447">
        <ele>1172.1</ele>
        <time>2021-08-09T16:27:26Z</time>
      </trkpt>
      <trkpt lat="44.56774" lon="3.75447">
        <ele>1172.1</ele>
        <time>2021-08-09T16:27:28Z</time>
      </trkpt>
      <trkpt lat="44.56774" lon="3.75447">
        <ele>1172.1</ele>
        <time>2021-08-09T16:27:30Z</time>
      </trkpt>
      <trkpt lat="44.56774" lon="3.75447">
        <ele>1172.1</ele>
        <time>2021-08-09T16:27:32Z</time>
      </trkpt>
      <trkpt lat="44.56774" lon="3.75447">
        <ele>1172.1</ele>
        <time>2021-08-09T16:27:34Z</time>
      </trkpt>
      <trkpt lat="44.56774" lon="3.75447">
        <ele>1172.1</ele>
        <time>2021-08-09T16:27:36Z</time>
      </trkpt>
      <trkpt lat="44.56774" lon="3.75447">
        <ele>1172.1</ele>
        <time>2021-08-09T16:27:38Z</time>
      </trkpt>
      <trkpt lat="44.56774" lon="3.75448">
        <ele>1172</ele>
        <time>2021-08-09T16:27:40Z</time>
      </trkpt>
      <trkpt lat="44.56774" lon="3.75448">
        <ele>1172</ele>
        <time>2021-08-09T16:27:42Z</time>
      </trkpt>
      <trkpt lat="44.56774" lon="3.75448">
        <ele>1172</ele>
        <time>2021-08-09T16:27:44Z</time>
      </trkpt>
      <trkpt lat="44.56774" lon="3.75448">
        <ele>1172</ele>
        <time>2021-08-09T16:27:46Z</time>
      </trkpt>
      <trkpt lat="44.56774" lon="3.75448">
        <ele>1172</ele>
        <time>2021-08-09T16:27:48Z</time>
      </trkpt>
      <trkpt lat="44.56774" lon="3.75448">
        <ele>1172</ele>
        <time>2021-08-09T16:27:50Z</time>
      </trkpt>
      <trkpt lat="44.56774" lon="3.75449">
        <ele>1171.9</ele>
        <time>2021-08-09T16:27:52Z</time>
      </trkpt>
      <trkpt lat="44.56774" lon="3.75449">
        <ele>1171.9</ele>
        <time>2021-08-09T16:27:54Z</time>
      </trkpt>
      <trkpt lat="44.56774" lon="3.75449">
        <ele>1171.9</ele>
        <time>2021-08-09T16:27:56Z</time>
      </trkpt>
      <trkpt lat="44.56772" lon="3.75447">
        <ele>1171.8</ele>
        <time>2021-08-09T16:27:58Z</time>
      </trkpt>
      <trkpt lat="44.56771" lon="3.75445">
        <ele>1171.8</ele>
        <time>2021-08-09T16:28:00Z</time>
      </trkpt>
      <trkpt lat="44.56771" lon="3.75444">
        <ele>1171.8</ele>
        <time>2021-08-09T16:28:02Z</time>
      </trkpt>
      <trkpt lat="44.5677" lon="3.75441">
        <ele>1172</ele>
        <time>2021-08-09T16:28:04Z</time>
      </trkpt>
      <trkpt lat="44.56769" lon="3.75438">
        <ele>1172</ele>
        <time>2021-08-09T16:28:06Z</time>
      </trkpt>
      <trkpt lat="44.56766" lon="3.75435">
        <ele>1171.8</ele>
        <time>2021-08-09T16:28:08Z</time>
      </trkpt>
      <trkpt lat="44.56764" lon="3.75431">
        <ele>1171.8</ele>
        <time>2021-08-09T16:28:10Z</time>
      </trkpt>
      <trkpt lat="44.56762" lon="3.75427">
        <ele>1171.8</ele>
        <time>2021-08-09T16:28:12Z</time>
      </trkpt>
      <trkpt lat="44.56759" lon="3.75421">
        <ele>1171.8</ele>
        <time>2021-08-09T16:28:14Z</time>
      </trkpt>
      <trkpt lat="44.56756" lon="3.75415">
        <ele>1171.8</ele>
        <time>2021-08-09T16:28:16Z</time>
      </trkpt>
      <trkpt lat="44.56755" lon="3.75409">
        <ele>1171.8</ele>
        <time>2021-08-09T16:28:18Z</time>
      </trkpt>
      <trkpt lat="44.56753" lon="3.75402">
        <ele>1171.9</ele>
        <time>2021-08-09T16:28:20Z</time>
      </trkpt>
      <trkpt lat="44.56751" lon="3.75395">
        <ele>1171.9</ele>
        <time>2021-08-09T16:28:22Z</time>
      </trkpt>
      <trkpt lat="44.56749" lon="3.75388">
        <ele>1172</ele>
        <time>2021-08-09T16:28:24Z</time>
      </trkpt>
      <trkpt lat="44.56747" lon="3.75382">
        <ele>1172.1</ele>
        <time>2021-08-09T16:28:26Z</time>
      </trkpt>
      <trkpt lat="44.56745" lon="3.75376">
        <ele>1172.2</ele>
        <time>2021-08-09T16:28:28Z</time>
      </trkpt>
      <trkpt lat="44.56744" lon="3.75371">
        <ele>1172.4</ele>
        <time>2021-08-09T16:28:30Z</time>
      </trkpt>
      <trkpt lat="44.56742" lon="3.75367">
        <ele>1172.4</ele>
        <time>2021-08-09T16:28:32Z</time>
      </trkpt>
      <trkpt lat="44.5674" lon="3.75363">
        <ele>1172.4</ele>
        <time>2021-08-09T16:28:34Z</time>
      </trkpt>
      <trkpt lat="44.56736" lon="3.75357">
        <ele>1172.5</ele>
        <time>2021-08-09T16:28:36Z</time>
      </trkpt>
      <trkpt lat="44.56732" lon="3.75352">
        <ele>1172.5</ele>
        <time>2021-08-09T16:28:38Z</time>
      </trkpt>
      <trkpt lat="44.56726" lon="3.75346">
        <ele>1172.4</ele>
        <time>2021-08-09T16:28:40Z</time>
      </trkpt>
      <trkpt lat="44.56721" lon="3.75341">
        <ele>1172.3</ele>
        <time>2021-08-09T16:28:42Z</time>
      </trkpt>
      <trkpt lat="44.56713" lon="3.75334">
        <ele>1172.2</ele>
        <time>2021-08-09T16:28:44Z</time>
      </trkpt>
      <trkpt lat="44.56707" lon="3.7533">
        <ele>1172.1</ele>
        <time>2021-08-09T16:28:46Z</time>
      </trkpt>
      <trkpt lat="44.56701" lon="3.75327">
        <ele>1172</ele>
        <time>2021-08-09T16:28:48Z</time>
      </trkpt>
      <trkpt lat="44.56694" lon="3.75323">
        <ele>1171.9</ele>
        <time>2021-08-09T16:28:50Z</time>
      </trkpt>
      <trkpt lat="44.56689" lon="3.7532">
        <ele>1171.9</ele>
        <time>2021-08-09T16:28:52Z</time>
      </trkpt>
      <trkpt lat="44.56683" lon="3.75317">
        <ele>1171.8</ele>
        <time>2021-08-09T16:28:54Z</time>
      </trkpt>
      <trkpt lat="44.56678" lon="3.75315">
        <ele>1171.7</ele>
        <time>2021-08-09T16:28:56Z</time>
      </trkpt>
      <trkpt lat="44.56673" lon="3.75312">
        <ele>1171.7</ele>
        <time>2021-08-09T16:28:58Z</time>
      </trkpt>
      <trkpt lat="44.56668" lon="3.7531">
        <ele>1171.7</ele>
        <time>2021-08-09T16:29:00Z</time>
      </trkpt>
      <trkpt lat="44.56664" lon="3.75309">
        <ele>1171.6</ele>
        <time>2021-08-09T16:29:02Z</time>
      </trkpt>
      <trkpt lat="44.5666" lon="3.75309">
        <ele>1171.4</ele>
        <time>2021-08-09T16:29:04Z</time>
      </trkpt>
      <trkpt lat="44.56657" lon="3.75314">
        <ele>1170.9</ele>
        <time>2021-08-09T16:29:06Z</time>
      </trkpt>
      <trkpt lat="44.56656" lon="3.75319">
        <ele>1170.5</ele>
        <time>2021-08-09T16:29:08Z</time>
      </trkpt>
      <trkpt lat="44.56656" lon="3.75324">
        <ele>1170.2</ele>
        <time>2021-08-09T16:29:10Z</time>
      </trkpt>
      <trkpt lat="44.56657" lon="3.75325">
        <ele>1170.1</ele>
        <time>2021-08-09T16:29:12Z</time>
      </trkpt>
      <trkpt lat="44.56657" lon="3.75325">
        <ele>1170.1</ele>
        <time>2021-08-09T16:29:14Z</time>
      </trkpt>
      <trkpt lat="44.56657" lon="3.75325">
        <ele>1170.1</ele>
        <time>2021-08-09T16:29:16Z</time>
      </trkpt>
      <trkpt lat="44.56657" lon="3.75324">
        <ele>1170.2</ele>
        <time>2021-08-09T16:29:18Z</time>
      </trkpt>
      <trkpt lat="44.56608" lon="3.75304">
        <ele>1169</ele>
        <time>2021-08-09T16:30:50Z</time>
      </trkpt>
      <trkpt lat="44.56602" lon="3.753">
        <ele>1169</ele>
        <time>2021-08-09T16:30:52Z</time>
      </trkpt>
      <trkpt lat="44.56595" lon="3.75295">
        <ele>1169</ele>
        <time>2021-08-09T16:30:54Z</time>
      </trkpt>
      <trkpt lat="44.56588" lon="3.75288">
        <ele>1169</ele>
        <time>2021-08-09T16:30:56Z</time>
      </trkpt>
      <trkpt lat="44.56582" lon="3.7528">
        <ele>1169.1</ele>
        <time>2021-08-09T16:30:58Z</time>
      </trkpt>
      <trkpt lat="44.56575" lon="3.75273">
        <ele>1169.4</ele>
        <time>2021-08-09T16:31:00Z</time>
      </trkpt>
      <trkpt lat="44.56569" lon="3.75266">
        <ele>1169.5</ele>
        <time>2021-08-09T16:31:02Z</time>
      </trkpt>
      <trkpt lat="44.56562" lon="3.7526">
        <ele>1169.6</ele>
        <time>2021-08-09T16:31:04Z</time>
      </trkpt>
      <trkpt lat="44.56556" lon="3.75254">
        <ele>1169.5</ele>
        <time>2021-08-09T16:31:06Z</time>
      </trkpt>
      <trkpt lat="44.56551" lon="3.75249">
        <ele>1169.5</ele>
        <time>2021-08-09T16:31:08Z</time>
      </trkpt>
      <trkpt lat="44.56546" lon="3.75249">
        <ele>1169.3</ele>
        <time>2021-08-09T16:31:10Z</time>
      </trkpt>
      <trkpt lat="44.56541" lon="3.7525">
        <ele>1169</ele>
        <time>2021-08-09T16:31:12Z</time>
      </trkpt>
      <trkpt lat="44.56535" lon="3.75252">
        <ele>1168.7</ele>
        <time>2021-08-09T16:31:14Z</time>
      </trkpt>
      <trkpt lat="44.56529" lon="3.75254">
        <ele>1168.3</ele>
        <time>2021-08-09T16:31:16Z</time>
      </trkpt>
      <trkpt lat="44.56522" lon="3.75257">
        <ele>1168</ele>
        <time>2021-08-09T16:31:18Z</time>
      </trkpt>
      <trkpt lat="44.56515" lon="3.75261">
        <ele>1167.7</ele>
        <time>2021-08-09T16:31:20Z</time>
      </trkpt>
      <trkpt lat="44.56508" lon="3.75264">
        <ele>1167.4</ele>
        <time>2021-08-09T16:31:22Z</time>
      </trkpt>
      <trkpt lat="44.565" lon="3.75267">
        <ele>1167.2</ele>
        <time>2021-08-09T16:31:24Z</time>
      </trkpt>
      <trkpt lat="44.56493" lon="3.75271">
        <ele>1167.7</ele>
        <time>2021-08-09T16:31:26Z</time>
      </trkpt>
      <trkpt lat="44.56486" lon="3.75274">
        <ele>1168.3</ele>
        <time>2021-08-09T16:31:28Z</time>
      </trkpt>
      <trkpt lat="44.56479" lon="3.75277">
        <ele>1168.9</ele>
        <time>2021-08-09T16:31:30Z</time>
      </trkpt>
      <trkpt lat="44.56471" lon="3.75281">
        <ele>1169.6</ele>
        <time>2021-08-09T16:31:32Z</time>
      </trkpt>
      <trkpt lat="44.56464" lon="3.75282">
        <ele>1170.2</ele>
        <time>2021-08-09T16:31:34Z</time>
      </trkpt>
      <trkpt lat="44.56458" lon="3.75279">
        <ele>1170.6</ele>
        <time>2021-08-09T16:31:36Z</time>
      </trkpt>
      <trkpt lat="44.56452" lon="3.75275">
        <ele>1170.8</ele>
        <time>2021-08-09T16:31:38Z</time>
      </trkpt>
      <trkpt lat="44.56448" lon="3.7527">
        <ele>1170.9</ele>
        <time>2021-08-09T16:31:40Z</time>
      </trkpt>
      <trkpt lat="44.56445" lon="3.75265">
        <ele>1170.9</ele>
        <time>2021-08-09T16:31:42Z</time>
      </trkpt>
      <trkpt lat="44.56443" lon="3.7526">
        <ele>1170.9</ele>
        <time>2021-08-09T16:31:44Z</time>
      </trkpt>
      <trkpt lat="44.56442" lon="3.75255">
        <ele>1170.7</ele>
        <time>2021-08-09T16:31:46Z</time>
      </trkpt>
      <trkpt lat="44.5644" lon="3.75249">
        <ele>1170.6</ele>
        <time>2021-08-09T16:31:48Z</time>
      </trkpt>
      <trkpt lat="44.56438" lon="3.75244">
        <ele>1170.7</ele>
        <time>2021-08-09T16:31:50Z</time>
      </trkpt>
      <trkpt lat="44.56436" lon="3.75239">
        <ele>1170.7</ele>
        <time>2021-08-09T16:31:52Z</time>
      </trkpt>
      <trkpt lat="44.56433" lon="3.75236">
        <ele>1170.9</ele>
        <time>2021-08-09T16:31:54Z</time>
      </trkpt>
      <trkpt lat="44.56431" lon="3.75231">
        <ele>1171</ele>
        <time>2021-08-09T16:31:56Z</time>
      </trkpt>
      <trkpt lat="44.56429" lon="3.75226">
        <ele>1171.1</ele>
        <time>2021-08-09T16:31:58Z</time>
      </trkpt>
      <trkpt lat="44.56426" lon="3.75221">
        <ele>1171.2</ele>
        <time>2021-08-09T16:32:00Z</time>
      </trkpt>
      <trkpt lat="44.56424" lon="3.75216">
        <ele>1171.2</ele>
        <time>2021-08-09T16:32:02Z</time>
      </trkpt>
      <trkpt lat="44.56422" lon="3.75212">
        <ele>1171.3</ele>
        <time>2021-08-09T16:32:04Z</time>
      </trkpt>
      <trkpt lat="44.56419" lon="3.75207">
        <ele>1171.4</ele>
        <time>2021-08-09T16:32:06Z</time>
      </trkpt>
      <trkpt lat="44.56418" lon="3.75204">
        <ele>1171.4</ele>
        <time>2021-08-09T16:32:08Z</time>
      </trkpt>
      <trkpt lat="44.56416" lon="3.75202">
        <ele>1171.5</ele>
        <time>2021-08-09T16:32:10Z</time>
      </trkpt>
      <trkpt lat="44.56415" lon="3.75198">
        <ele>1171.5</ele>
        <time>2021-08-09T16:32:12Z</time>
      </trkpt>
      <trkpt lat="44.56413" lon="3.75195">
        <ele>1171.7</ele>
        <time>2021-08-09T16:32:14Z</time>
      </trkpt>
      <trkpt lat="44.56411" lon="3.75192">
        <ele>1171.8</ele>
        <time>2021-08-09T16:32:16Z</time>
      </trkpt>
      <trkpt lat="44.56409" lon="3.7519">
        <ele>1172</ele>
        <time>2021-08-09T16:32:18Z</time>
      </trkpt>
      <trkpt lat="44.56394" lon="3.75184">
        <ele>1173.5</ele>
        <time>2021-08-09T16:32:28Z</time>
      </trkpt>
      <trkpt lat="44.56391" lon="3.75186">
        <ele>1173.8</ele>
        <time>2021-08-09T16:32:30Z</time>
      </trkpt>
      <trkpt lat="44.56388" lon="3.75188">
        <ele>1174.1</ele>
        <time>2021-08-09T16:32:32Z</time>
      </trkpt>
      <trkpt lat="44.56385" lon="3.75189">
        <ele>1174.4</ele>
        <time>2021-08-09T16:32:34Z</time>
      </trkpt>
      <trkpt lat="44.56382" lon="3.75193">
        <ele>1174.7</ele>
        <time>2021-08-09T16:32:36Z</time>
      </trkpt>
      <trkpt lat="44.56379" lon="3.75196">
        <ele>1175</ele>
        <time>2021-08-09T16:32:38Z</time>
      </trkpt>
      <trkpt lat="44.56376" lon="3.75198">
        <ele>1175.2</ele>
        <time>2021-08-09T16:32:40Z</time>
      </trkpt>
      <trkpt lat="44.56373" lon="3.75202">
        <ele>1175.5</ele>
        <time>2021-08-09T16:32:42Z</time>
      </trkpt>
      <trkpt lat="44.5637" lon="3.75205">
        <ele>1175.7</ele>
        <time>2021-08-09T16:32:44Z</time>
      </trkpt>
      <trkpt lat="44.56367" lon="3.75208">
        <ele>1175.9</ele>
        <time>2021-08-09T16:32:46Z</time>
      </trkpt>
      <trkpt lat="44.56364" lon="3.75212">
        <ele>1176.2</ele>
        <time>2021-08-09T16:32:48Z</time>
      </trkpt>
      <trkpt lat="44.56362" lon="3.75215">
        <ele>1176.4</ele>
        <time>2021-08-09T16:32:50Z</time>
      </trkpt>
      <trkpt lat="44.56359" lon="3.75218">
        <ele>1176.5</ele>
        <time>2021-08-09T16:32:52Z</time>
      </trkpt>
      <trkpt lat="44.56356" lon="3.75221">
        <ele>1176.7</ele>
        <time>2021-08-09T16:32:54Z</time>
      </trkpt>
      <trkpt lat="44.56354" lon="3.75225">
        <ele>1176.9</ele>
        <time>2021-08-09T16:32:56Z</time>
      </trkpt>
      <trkpt lat="44.56351" lon="3.75228">
        <ele>1177.1</ele>
        <time>2021-08-09T16:32:58Z</time>
      </trkpt>
      <trkpt lat="44.56348" lon="3.75231">
        <ele>1177.3</ele>
        <time>2021-08-09T16:33:00Z</time>
      </trkpt>
      <trkpt lat="44.56345" lon="3.75235">
        <ele>1177.4</ele>
        <time>2021-08-09T16:33:02Z</time>
      </trkpt>
      <trkpt lat="44.56343" lon="3.75238">
        <ele>1177.6</ele>
        <time>2021-08-09T16:33:04Z</time>
      </trkpt>
      <trkpt lat="44.5634" lon="3.75241">
        <ele>1177.7</ele>
        <time>2021-08-09T16:33:06Z</time>
      </trkpt>
      <trkpt lat="44.56338" lon="3.75244">
        <ele>1177.8</ele>
        <time>2021-08-09T16:33:08Z</time>
      </trkpt>
      <trkpt lat="44.56335" lon="3.75247">
        <ele>1177.9</ele>
        <time>2021-08-09T16:33:10Z</time>
      </trkpt>
      <trkpt lat="44.56332" lon="3.7525">
        <ele>1178.1</ele>
        <time>2021-08-09T16:33:12Z</time>
      </trkpt>
      <trkpt lat="44.5633" lon="3.75253">
        <ele>1178.6</ele>
        <time>2021-08-09T16:33:14Z</time>
      </trkpt>
      <trkpt lat="44.56327" lon="3.75257">
        <ele>1179.1</ele>
        <time>2021-08-09T16:33:16Z</time>
      </trkpt>
      <trkpt lat="44.56324" lon="3.7526">
        <ele>1179.6</ele>
        <time>2021-08-09T16:33:18Z</time>
      </trkpt>
      <trkpt lat="44.56322" lon="3.75262">
        <ele>1180</ele>
        <time>2021-08-09T16:33:20Z</time>
      </trkpt>
      <trkpt lat="44.56319" lon="3.75265">
        <ele>1180.3</ele>
        <time>2021-08-09T16:33:22Z</time>
      </trkpt>
      <trkpt lat="44.56318" lon="3.75267">
        <ele>1180.6</ele>
        <time>2021-08-09T16:33:24Z</time>
      </trkpt>
      <trkpt lat="44.56316" lon="3.7527">
        <ele>1180.9</ele>
        <time>2021-08-09T16:33:26Z</time>
      </trkpt>
      <trkpt lat="44.56314" lon="3.75273">
        <ele>1181.3</ele>
        <time>2021-08-09T16:33:28Z</time>
      </trkpt>
      <trkpt lat="44.5631" lon="3.75277">
        <ele>1181.8</ele>
        <time>2021-08-09T16:33:30Z</time>
      </trkpt>
      <trkpt lat="44.56307" lon="3.7528">
        <ele>1182.1</ele>
        <time>2021-08-09T16:33:32Z</time>
      </trkpt>
      <trkpt lat="44.56305" lon="3.75283">
        <ele>1182.4</ele>
        <time>2021-08-09T16:33:34Z</time>
      </trkpt>
      <trkpt lat="44.56302" lon="3.75286">
        <ele>1182.7</ele>
        <time>2021-08-09T16:33:36Z</time>
      </trkpt>
      <trkpt lat="44.563" lon="3.75289">
        <ele>1183</ele>
        <time>2021-08-09T16:33:38Z</time>
      </trkpt>
      <trkpt lat="44.56297" lon="3.75292">
        <ele>1183.2</ele>
        <time>2021-08-09T16:33:40Z</time>
      </trkpt>
      <trkpt lat="44.56295" lon="3.75295">
        <ele>1183.4</ele>
        <time>2021-08-09T16:33:42Z</time>
      </trkpt>
      <trkpt lat="44.56293" lon="3.75298">
        <ele>1183.7</ele>
        <time>2021-08-09T16:33:44Z</time>
      </trkpt>
      <trkpt lat="44.56291" lon="3.753">
        <ele>1183.9</ele>
        <time>2021-08-09T16:33:46Z</time>
      </trkpt>
      <trkpt lat="44.56288" lon="3.75303">
        <ele>1184.1</ele>
        <time>2021-08-09T16:33:48Z</time>
      </trkpt>
      <trkpt lat="44.56286" lon="3.75306">
        <ele>1184.2</ele>
        <time>2021-08-09T16:33:50Z</time>
      </trkpt>
      <trkpt lat="44.56284" lon="3.7531">
        <ele>1184.4</ele>
        <time>2021-08-09T16:33:52Z</time>
      </trkpt>
      <trkpt lat="44.56282" lon="3.75312">
        <ele>1184.6</ele>
        <time>2021-08-09T16:33:54Z</time>
      </trkpt>
      <trkpt lat="44.56279" lon="3.75315">
        <ele>1184.7</ele>
        <time>2021-08-09T16:33:56Z</time>
      </trkpt>
      <trkpt lat="44.56277" lon="3.75318">
        <ele>1184.9</ele>
        <time>2021-08-09T16:33:58Z</time>
      </trkpt>
      <trkpt lat="44.56274" lon="3.75322">
        <ele>1185</ele>
        <time>2021-08-09T16:34:00Z</time>
      </trkpt>
      <trkpt lat="44.56271" lon="3.75325">
        <ele>1185.1</ele>
        <time>2021-08-09T16:34:02Z</time>
      </trkpt>
      <trkpt lat="44.56269" lon="3.75328">
        <ele>1185.2</ele>
        <time>2021-08-09T16:34:04Z</time>
      </trkpt>
      <trkpt lat="44.56266" lon="3.7533">
        <ele>1185.3</ele>
        <time>2021-08-09T16:34:06Z</time>
      </trkpt>
      <trkpt lat="44.56264" lon="3.75333">
        <ele>1185.3</ele>
        <time>2021-08-09T16:34:08Z</time>
      </trkpt>
      <trkpt lat="44.56261" lon="3.75337">
        <ele>1185.6</ele>
        <time>2021-08-09T16:34:10Z</time>
      </trkpt>
      <trkpt lat="44.56258" lon="3.7534">
        <ele>1185.8</ele>
        <time>2021-08-09T16:34:12Z</time>
      </trkpt>
      <trkpt lat="44.56256" lon="3.75343">
        <ele>1186</ele>
        <time>2021-08-09T16:34:14Z</time>
      </trkpt>
      <trkpt lat="44.56252" lon="3.75346">
        <ele>1186.2</ele>
        <time>2021-08-09T16:34:16Z</time>
      </trkpt>
      <trkpt lat="44.56249" lon="3.75349">
        <ele>1186.4</ele>
        <time>2021-08-09T16:34:18Z</time>
      </trkpt>
      <trkpt lat="44.56246" lon="3.75352">
        <ele>1186.7</ele>
        <time>2021-08-09T16:34:20Z</time>
      </trkpt>
      <trkpt lat="44.56244" lon="3.75355">
        <ele>1186.9</ele>
        <time>2021-08-09T16:34:22Z</time>
      </trkpt>
      <trkpt lat="44.56241" lon="3.75359">
        <ele>1187.2</ele>
        <time>2021-08-09T16:34:24Z</time>
      </trkpt>
      <trkpt lat="44.56238" lon="3.75362">
        <ele>1187.4</ele>
        <time>2021-08-09T16:34:26Z</time>
      </trkpt>
      <trkpt lat="44.56236" lon="3.75365">
        <ele>1187.6</ele>
        <time>2021-08-09T16:34:28Z</time>
      </trkpt>
      <trkpt lat="44.56233" lon="3.75368">
        <ele>1187.8</ele>
        <time>2021-08-09T16:34:30Z</time>
      </trkpt>
      <trkpt lat="44.5623" lon="3.75371">
        <ele>1188</ele>
        <time>2021-08-09T16:34:32Z</time>
      </trkpt>
      <trkpt lat="44.56227" lon="3.75375">
        <ele>1188.2</ele>
        <time>2021-08-09T16:34:34Z</time>
      </trkpt>
      <trkpt lat="44.56224" lon="3.75378">
        <ele>1188.4</ele>
        <time>2021-08-09T16:34:36Z</time>
      </trkpt>
      <trkpt lat="44.56221" lon="3.75382">
        <ele>1188.6</ele>
        <time>2021-08-09T16:34:38Z</time>
      </trkpt>
      <trkpt lat="44.56218" lon="3.75385">
        <ele>1188.8</ele>
        <time>2021-08-09T16:34:40Z</time>
      </trkpt>
      <trkpt lat="44.56216" lon="3.75388">
        <ele>1189</ele>
        <time>2021-08-09T16:34:42Z</time>
      </trkpt>
      <trkpt lat="44.56213" lon="3.75391">
        <ele>1189.1</ele>
        <time>2021-08-09T16:34:44Z</time>
      </trkpt>
      <trkpt lat="44.5621" lon="3.75394">
        <ele>1189.3</ele>
        <time>2021-08-09T16:34:46Z</time>
      </trkpt>
      <trkpt lat="44.56207" lon="3.75397">
        <ele>1189.4</ele>
        <time>2021-08-09T16:34:48Z</time>
      </trkpt>
      <trkpt lat="44.56205" lon="3.75399">
        <ele>1189.6</ele>
        <time>2021-08-09T16:34:50Z</time>
      </trkpt>
      <trkpt lat="44.56202" lon="3.754">
        <ele>1189.7</ele>
        <time>2021-08-09T16:34:52Z</time>
      </trkpt>
      <trkpt lat="44.56199" lon="3.75401">
        <ele>1189.8</ele>
        <time>2021-08-09T16:34:54Z</time>
      </trkpt>
      <trkpt lat="44.56197" lon="3.75401">
        <ele>1189.9</ele>
        <time>2021-08-09T16:34:56Z</time>
      </trkpt>
      <trkpt lat="44.56195" lon="3.75402">
        <ele>1190</ele>
        <time>2021-08-09T16:34:58Z</time>
      </trkpt>
      <trkpt lat="44.56193" lon="3.75404">
        <ele>1190.1</ele>
        <time>2021-08-09T16:35:00Z</time>
      </trkpt>
      <trkpt lat="44.56191" lon="3.75407">
        <ele>1190.1</ele>
        <time>2021-08-09T16:35:02Z</time>
      </trkpt>
      <trkpt lat="44.56176" lon="3.75432">
        <ele>1191</ele>
        <time>2021-08-09T16:36:20Z</time>
      </trkpt>
      <trkpt lat="44.56174" lon="3.75435">
        <ele>1191.2</ele>
        <time>2021-08-09T16:36:22Z</time>
      </trkpt>
      <trkpt lat="44.56172" lon="3.7544">
        <ele>1191.4</ele>
        <time>2021-08-09T16:36:24Z</time>
      </trkpt>
      <trkpt lat="44.56169" lon="3.75443">
        <ele>1191.6</ele>
        <time>2021-08-09T16:36:26Z</time>
      </trkpt>
      <trkpt lat="44.56167" lon="3.75447">
        <ele>1191.7</ele>
        <time>2021-08-09T16:36:28Z</time>
      </trkpt>
      <trkpt lat="44.56165" lon="3.75451">
        <ele>1191.9</ele>
        <time>2021-08-09T16:36:30Z</time>
      </trkpt>
      <trkpt lat="44.56163" lon="3.75456">
        <ele>1192.1</ele>
        <time>2021-08-09T16:36:32Z</time>
      </trkpt>
      <trkpt lat="44.56161" lon="3.7546">
        <ele>1192.3</ele>
        <time>2021-08-09T16:36:34Z</time>
      </trkpt>
      <trkpt lat="44.56158" lon="3.75463">
        <ele>1192.5</ele>
        <time>2021-08-09T16:36:36Z</time>
      </trkpt>
      <trkpt lat="44.56156" lon="3.75468">
        <ele>1192.8</ele>
        <time>2021-08-09T16:36:38Z</time>
      </trkpt>
      <trkpt lat="44.56153" lon="3.75472">
        <ele>1193</ele>
        <time>2021-08-09T16:36:40Z</time>
      </trkpt>
      <trkpt lat="44.56151" lon="3.75475">
        <ele>1193.1</ele>
        <time>2021-08-09T16:36:42Z</time>
      </trkpt>
      <trkpt lat="44.56149" lon="3.7548">
        <ele>1193.3</ele>
        <time>2021-08-09T16:36:44Z</time>
      </trkpt>
      <trkpt lat="44.56148" lon="3.75484">
        <ele>1193.4</ele>
        <time>2021-08-09T16:36:46Z</time>
      </trkpt>
      <trkpt lat="44.56145" lon="3.75488">
        <ele>1193.6</ele>
        <time>2021-08-09T16:36:48Z</time>
      </trkpt>
      <trkpt lat="44.56142" lon="3.75492">
        <ele>1193.8</ele>
        <time>2021-08-09T16:36:50Z</time>
      </trkpt>
      <trkpt lat="44.56139" lon="3.75497">
        <ele>1194</ele>
        <time>2021-08-09T16:36:52Z</time>
      </trkpt>
      <trkpt lat="44.56136" lon="3.75502">
        <ele>1194.1</ele>
        <time>2021-08-09T16:36:54Z</time>
      </trkpt>
      <trkpt lat="44.56134" lon="3.75506">
        <ele>1194.4</ele>
        <time>2021-08-09T16:36:56Z</time>
      </trkpt>
      <trkpt lat="44.56131" lon="3.75511">
        <ele>1194.6</ele>
        <time>2021-08-09T16:36:58Z</time>
      </trkpt>
      <trkpt lat="44.56128" lon="3.75516">
        <ele>1194.8</ele>
        <time>2021-08-09T16:37:00Z</time>
      </trkpt>
      <trkpt lat="44.56124" lon="3.75519">
        <ele>1195</ele>
        <time>2021-08-09T16:37:02Z</time>
      </trkpt>
      <trkpt lat="44.56121" lon="3.75522">
        <ele>1195.2</ele>
        <time>2021-08-09T16:37:04Z</time>
      </trkpt>
      <trkpt lat="44.56118" lon="3.75527">
        <ele>1195.3</ele>
        <time>2021-08-09T16:37:06Z</time>
      </trkpt>
      <trkpt lat="44.56115" lon="3.75531">
        <ele>1195.5</ele>
        <time>2021-08-09T16:37:08Z</time>
      </trkpt>
      <trkpt lat="44.5611" lon="3.75533">
        <ele>1195.7</ele>
        <time>2021-08-09T16:37:10Z</time>
      </trkpt>
      <trkpt lat="44.56106" lon="3.75536">
        <ele>1195.8</ele>
        <time>2021-08-09T16:37:12Z</time>
      </trkpt>
      <trkpt lat="44.56102" lon="3.75539">
        <ele>1196</ele>
        <time>2021-08-09T16:37:14Z</time>
      </trkpt>
      <trkpt lat="44.56098" lon="3.75542">
        <ele>1196.1</ele>
        <time>2021-08-09T16:37:16Z</time>
      </trkpt>
      <trkpt lat="44.56094" lon="3.75545">
        <ele>1196.3</ele>
        <time>2021-08-09T16:37:18Z</time>
      </trkpt>
      <trkpt lat="44.5609" lon="3.75549">
        <ele>1196.4</ele>
        <time>2021-08-09T16:37:20Z</time>
      </trkpt>
      <trkpt lat="44.56086" lon="3.75553">
        <ele>1196.6</ele>
        <time>2021-08-09T16:37:22Z</time>
      </trkpt>
      <trkpt lat="44.56081" lon="3.75556">
        <ele>1196.8</ele>
        <time>2021-08-09T16:37:24Z</time>
      </trkpt>
      <trkpt lat="44.56077" lon="3.7556">
        <ele>1197.2</ele>
        <time>2021-08-09T16:37:26Z</time>
      </trkpt>
      <trkpt lat="44.56072" lon="3.75563">
        <ele>1197.5</ele>
        <time>2021-08-09T16:37:28Z</time>
      </trkpt>
      <trkpt lat="44.56069" lon="3.75567">
        <ele>1197.9</ele>
        <time>2021-08-09T16:37:30Z</time>
      </trkpt>
      <trkpt lat="44.56064" lon="3.75573">
        <ele>1198.2</ele>
        <time>2021-08-09T16:37:32Z</time>
      </trkpt>
      <trkpt lat="44.5606" lon="3.75577">
        <ele>1198.6</ele>
        <time>2021-08-09T16:37:34Z</time>
      </trkpt>
      <trkpt lat="44.56056" lon="3.75581">
        <ele>1198.9</ele>
        <time>2021-08-09T16:37:36Z</time>
      </trkpt>
      <trkpt lat="44.56053" lon="3.75585">
        <ele>1199.2</ele>
        <time>2021-08-09T16:37:38Z</time>
      </trkpt>
      <trkpt lat="44.56049" lon="3.75589">
        <ele>1199.4</ele>
        <time>2021-08-09T16:37:40Z</time>
      </trkpt>
      <trkpt lat="44.56045" lon="3.75593">
        <ele>1199.5</ele>
        <time>2021-08-09T16:37:42Z</time>
      </trkpt>
      <trkpt lat="44.56042" lon="3.75597">
        <ele>1199.6</ele>
        <time>2021-08-09T16:37:44Z</time>
      </trkpt>
      <trkpt lat="44.56039" lon="3.756">
        <ele>1199.8</ele>
        <time>2021-08-09T16:37:46Z</time>
      </trkpt>
      <trkpt lat="44.56035" lon="3.75604">
        <ele>1199.8</ele>
        <time>2021-08-09T16:37:48Z</time>
      </trkpt>
      <trkpt lat="44.56031" lon="3.75608">
        <ele>1199.9</ele>
        <time>2021-08-09T16:37:50Z</time>
      </trkpt>
      <trkpt lat="44.56027" lon="3.75611">
        <ele>1200</ele>
        <time>2021-08-09T16:37:52Z</time>
      </trkpt>
      <trkpt lat="44.56024" lon="3.75615">
        <ele>1200</ele>
        <time>2021-08-09T16:37:54Z</time>
      </trkpt>
      <trkpt lat="44.5602" lon="3.75619">
        <ele>1200</ele>
        <time>2021-08-09T16:37:56Z</time>
      </trkpt>
      <trkpt lat="44.56017" lon="3.75622">
        <ele>1200</ele>
        <time>2021-08-09T16:37:58Z</time>
      </trkpt>
      <trkpt lat="44.56013" lon="3.75625">
        <ele>1200</ele>
        <time>2021-08-09T16:38:00Z</time>
      </trkpt>
      <trkpt lat="44.56009" lon="3.75628">
        <ele>1200</ele>
        <time>2021-08-09T16:38:02Z</time>
      </trkpt>
      <trkpt lat="44.56004" lon="3.75631">
        <ele>1200</ele>
        <time>2021-08-09T16:38:04Z</time>
      </trkpt>
      <trkpt lat="44.55998" lon="3.75632">
        <ele>1199.9</ele>
        <time>2021-08-09T16:38:06Z</time>
      </trkpt>
      <trkpt lat="44.55992" lon="3.75633">
        <ele>1199.5</ele>
        <time>2021-08-09T16:38:08Z</time>
      </trkpt>
      <trkpt lat="44.55988" lon="3.75634">
        <ele>1199.3</ele>
        <time>2021-08-09T16:38:10Z</time>
      </trkpt>
      <trkpt lat="44.55987" lon="3.75634">
        <ele>1199.2</ele>
        <time>2021-08-09T16:38:12Z</time>
      </trkpt>
      <trkpt lat="44.55983" lon="3.75634">
        <ele>1198.9</ele>
        <time>2021-08-09T16:38:14Z</time>
      </trkpt>
      <trkpt lat="44.55978" lon="3.75633">
        <ele>1198.7</ele>
        <time>2021-08-09T16:38:16Z</time>
      </trkpt>
      <trkpt lat="44.55973" lon="3.75632">
        <ele>1198.4</ele>
        <time>2021-08-09T16:38:18Z</time>
      </trkpt>
      <trkpt lat="44.55967" lon="3.75631">
        <ele>1198.1</ele>
        <time>2021-08-09T16:38:20Z</time>
      </trkpt>
      <trkpt lat="44.55962" lon="3.7563">
        <ele>1197.9</ele>
        <time>2021-08-09T16:38:22Z</time>
      </trkpt>
      <trkpt lat="44.55955" lon="3.75629">
        <ele>1197.5</ele>
        <time>2021-08-09T16:38:24Z</time>
      </trkpt>
      <trkpt lat="44.55948" lon="3.75628">
        <ele>1197.1</ele>
        <time>2021-08-09T16:38:26Z</time>
      </trkpt>
      <trkpt lat="44.5594" lon="3.75627">
        <ele>1196.7</ele>
        <time>2021-08-09T16:38:28Z</time>
      </trkpt>
      <trkpt lat="44.5593" lon="3.75626">
        <ele>1196.2</ele>
        <time>2021-08-09T16:38:30Z</time>
      </trkpt>
      <trkpt lat="44.55921" lon="3.75625">
        <ele>1195.8</ele>
        <time>2021-08-09T16:38:32Z</time>
      </trkpt>
      <trkpt lat="44.55911" lon="3.75624">
        <ele>1195.3</ele>
        <time>2021-08-09T16:38:34Z</time>
      </trkpt>
      <trkpt lat="44.55901" lon="3.75623">
        <ele>1194.8</ele>
        <time>2021-08-09T16:38:36Z</time>
      </trkpt>
      <trkpt lat="44.55889" lon="3.75625">
        <ele>1194</ele>
        <time>2021-08-09T16:38:38Z</time>
      </trkpt>
      <trkpt lat="44.55878" lon="3.7563">
        <ele>1193</ele>
        <time>2021-08-09T16:38:40Z</time>
      </trkpt>
      <trkpt lat="44.55867" lon="3.75632">
        <ele>1192.1</ele>
        <time>2021-08-09T16:38:42Z</time>
      </trkpt>
      <trkpt lat="44.55855" lon="3.75636">
        <ele>1191.2</ele>
        <time>2021-08-09T16:38:44Z</time>
      </trkpt>
      <trkpt lat="44.55845" lon="3.75642">
        <ele>1190</ele>
        <time>2021-08-09T16:38:46Z</time>
      </trkpt>
      <trkpt lat="44.55838" lon="3.75654">
        <ele>1188.4</ele>
        <time>2021-08-09T16:38:48Z</time>
      </trkpt>
      <trkpt lat="44.55834" lon="3.75671">
        <ele>1187</ele>
        <time>2021-08-09T16:38:50Z</time>
      </trkpt>
      <trkpt lat="44.55834" lon="3.7569">
        <ele>1186.5</ele>
        <time>2021-08-09T16:38:52Z</time>
      </trkpt>
      <trkpt lat="44.55839" lon="3.75707">
        <ele>1186.3</ele>
        <time>2021-08-09T16:38:54Z</time>
      </trkpt>
      <trkpt lat="44.55839" lon="3.75727">
        <ele>1185.9</ele>
        <time>2021-08-09T16:38:56Z</time>
      </trkpt>
      <trkpt lat="44.55834" lon="3.75747">
        <ele>1185.1</ele>
        <time>2021-08-09T16:38:58Z</time>
      </trkpt>
      <trkpt lat="44.55827" lon="3.75768">
        <ele>1185</ele>
        <time>2021-08-09T16:39:00Z</time>
      </trkpt>
      <trkpt lat="44.55819" lon="3.75789">
        <ele>1185.1</ele>
        <time>2021-08-09T16:39:02Z</time>
      </trkpt>
      <trkpt lat="44.55814" lon="3.7581">
        <ele>1185.2</ele>
        <time>2021-08-09T16:39:04Z</time>
      </trkpt>
      <trkpt lat="44.55816" lon="3.75829">
        <ele>1185.1</ele>
        <time>2021-08-09T16:39:06Z</time>
      </trkpt>
      <trkpt lat="44.5582" lon="3.75844">
        <ele>1185.3</ele>
        <time>2021-08-09T16:39:08Z</time>
      </trkpt>
      <trkpt lat="44.55824" lon="3.75856">
        <ele>1185.5</ele>
        <time>2021-08-09T16:39:10Z</time>
      </trkpt>
      <trkpt lat="44.55827" lon="3.75868">
        <ele>1185.7</ele>
        <time>2021-08-09T16:39:12Z</time>
      </trkpt>
      <trkpt lat="44.5583" lon="3.75878">
        <ele>1185.9</ele>
        <time>2021-08-09T16:39:14Z</time>
      </trkpt>
      <trkpt lat="44.55833" lon="3.75886">
        <ele>1185.9</ele>
        <time>2021-08-09T16:39:16Z</time>
      </trkpt>
      <trkpt lat="44.55835" lon="3.75894">
        <ele>1186.2</ele>
        <time>2021-08-09T16:39:18Z</time>
      </trkpt>
      <trkpt lat="44.55837" lon="3.759">
        <ele>1186.3</ele>
        <time>2021-08-09T16:39:20Z</time>
      </trkpt>
      <trkpt lat="44.55839" lon="3.75906">
        <ele>1186.4</ele>
        <time>2021-08-09T16:39:22Z</time>
      </trkpt>
      <trkpt lat="44.55841" lon="3.75911">
        <ele>1186.5</ele>
        <time>2021-08-09T16:39:24Z</time>
      </trkpt>
      <trkpt lat="44.55843" lon="3.75916">
        <ele>1186.5</ele>
        <time>2021-08-09T16:39:26Z</time>
      </trkpt>
      <trkpt lat="44.55845" lon="3.75921">
        <ele>1186.7</ele>
        <time>2021-08-09T16:39:28Z</time>
      </trkpt>
      <trkpt lat="44.55847" lon="3.75927">
        <ele>1186.8</ele>
        <time>2021-08-09T16:39:30Z</time>
      </trkpt>
      <trkpt lat="44.55849" lon="3.75932">
        <ele>1186.9</ele>
        <time>2021-08-09T16:39:32Z</time>
      </trkpt>
      <trkpt lat="44.55851" lon="3.75937">
        <ele>1186.9</ele>
        <time>2021-08-09T16:39:34Z</time>
      </trkpt>
      <trkpt lat="44.55853" lon="3.75941">
        <ele>1187</ele>
        <time>2021-08-09T16:39:36Z</time>
      </trkpt>
      <trkpt lat="44.55855" lon="3.75946">
        <ele>1187</ele>
        <time>2021-08-09T16:39:38Z</time>
      </trkpt>
      <trkpt lat="44.55857" lon="3.75949">
        <ele>1186.9</ele>
        <time>2021-08-09T16:39:40Z</time>
      </trkpt>
      <trkpt lat="44.5586" lon="3.75954">
        <ele>1186.8</ele>
        <time>2021-08-09T16:39:42Z</time>
      </trkpt>
      <trkpt lat="44.55861" lon="3.75958">
        <ele>1186.8</ele>
        <time>2021-08-09T16:39:44Z</time>
      </trkpt>
      <trkpt lat="44.55864" lon="3.75962">
        <ele>1186.7</ele>
        <time>2021-08-09T16:39:46Z</time>
      </trkpt>
      <trkpt lat="44.55866" lon="3.75966">
        <ele>1186.6</ele>
        <time>2021-08-09T16:39:48Z</time>
      </trkpt>
      <trkpt lat="44.55868" lon="3.7597">
        <ele>1186.4</ele>
        <time>2021-08-09T16:39:50Z</time>
      </trkpt>
      <trkpt lat="44.5587" lon="3.75974">
        <ele>1186.3</ele>
        <time>2021-08-09T16:39:52Z</time>
      </trkpt>
      <trkpt lat="44.55872" lon="3.75978">
        <ele>1186.1</ele>
        <time>2021-08-09T16:39:54Z</time>
      </trkpt>
      <trkpt lat="44.55873" lon="3.75983">
        <ele>1186</ele>
        <time>2021-08-09T16:39:56Z</time>
      </trkpt>
      <trkpt lat="44.55874" lon="3.75987">
        <ele>1185.9</ele>
        <time>2021-08-09T16:39:58Z</time>
      </trkpt>
      <trkpt lat="44.55875" lon="3.75991">
        <ele>1185.9</ele>
        <time>2021-08-09T16:40:00Z</time>
      </trkpt>
      <trkpt lat="44.55877" lon="3.75995">
        <ele>1185.7</ele>
        <time>2021-08-09T16:40:02Z</time>
      </trkpt>
      <trkpt lat="44.55879" lon="3.75999">
        <ele>1185.4</ele>
        <time>2021-08-09T16:40:04Z</time>
      </trkpt>
      <trkpt lat="44.55881" lon="3.76003">
        <ele>1185.3</ele>
        <time>2021-08-09T16:40:06Z</time>
      </trkpt>
      <trkpt lat="44.55883" lon="3.76007">
        <ele>1185.5</ele>
        <time>2021-08-09T16:40:08Z</time>
      </trkpt>
      <trkpt lat="44.55884" lon="3.76011">
        <ele>1185.6</ele>
        <time>2021-08-09T16:40:10Z</time>
      </trkpt>
      <trkpt lat="44.55886" lon="3.76016">
        <ele>1185.8</ele>
        <time>2021-08-09T16:40:12Z</time>
      </trkpt>
      <trkpt lat="44.55887" lon="3.7602">
        <ele>1186.1</ele>
        <time>2021-08-09T16:40:14Z</time>
      </trkpt>
      <trkpt lat="44.55888" lon="3.76024">
        <ele>1186.4</ele>
        <time>2021-08-09T16:40:16Z</time>
      </trkpt>
      <trkpt lat="44.55888" lon="3.76029">
        <ele>1186.7</ele>
        <time>2021-08-09T16:40:18Z</time>
      </trkpt>
      <trkpt lat="44.55889" lon="3.76034">
        <ele>1187.1</ele>
        <time>2021-08-09T16:40:20Z</time>
      </trkpt>
      <trkpt lat="44.5589" lon="3.76039">
        <ele>1187.5</ele>
        <time>2021-08-09T16:40:22Z</time>
      </trkpt>
      <trkpt lat="44.5589" lon="3.76044">
        <ele>1188</ele>
        <time>2021-08-09T16:40:24Z</time>
      </trkpt>
      <trkpt lat="44.55888" lon="3.76049">
        <ele>1188.6</ele>
        <time>2021-08-09T16:40:26Z</time>
      </trkpt>
      <trkpt lat="44.55886" lon="3.76054">
        <ele>1189.1</ele>
        <time>2021-08-09T16:40:28Z</time>
      </trkpt>
      <trkpt lat="44.55884" lon="3.76058">
        <ele>1189.6</ele>
        <time>2021-08-09T16:40:30Z</time>
      </trkpt>
      <trkpt lat="44.55881" lon="3.76062">
        <ele>1190.1</ele>
        <time>2021-08-09T16:40:32Z</time>
      </trkpt>
      <trkpt lat="44.55877" lon="3.76065">
        <ele>1190.6</ele>
        <time>2021-08-09T16:40:34Z</time>
      </trkpt>
      <trkpt lat="44.55874" lon="3.76068">
        <ele>1191</ele>
        <time>2021-08-09T16:40:36Z</time>
      </trkpt>
      <trkpt lat="44.5587" lon="3.76072">
        <ele>1191.4</ele>
        <time>2021-08-09T16:40:38Z</time>
      </trkpt>
      <trkpt lat="44.55866" lon="3.76076">
        <ele>1191.7</ele>
        <time>2021-08-09T16:40:40Z</time>
      </trkpt>
      <trkpt lat="44.55863" lon="3.76079">
        <ele>1192</ele>
        <time>2021-08-09T16:40:42Z</time>
      </trkpt>
      <trkpt lat="44.5586" lon="3.76082">
        <ele>1192.3</ele>
        <time>2021-08-09T16:40:44Z</time>
      </trkpt>
      <trkpt lat="44.55856" lon="3.76086">
        <ele>1192.4</ele>
        <time>2021-08-09T16:40:46Z</time>
      </trkpt>
      <trkpt lat="44.55853" lon="3.7609">
        <ele>1192.4</ele>
        <time>2021-08-09T16:40:48Z</time>
      </trkpt>
      <trkpt lat="44.5585" lon="3.76095">
        <ele>1192.4</ele>
        <time>2021-08-09T16:40:50Z</time>
      </trkpt>
      <trkpt lat="44.55847" lon="3.761">
        <ele>1192.4</ele>
        <time>2021-08-09T16:40:52Z</time>
      </trkpt>
      <trkpt lat="44.55846" lon="3.76105">
        <ele>1192.3</ele>
        <time>2021-08-09T16:40:54Z</time>
      </trkpt>
      <trkpt lat="44.55845" lon="3.76111">
        <ele>1192.2</ele>
        <time>2021-08-09T16:40:56Z</time>
      </trkpt>
      <trkpt lat="44.55844" lon="3.76117">
        <ele>1192.1</ele>
        <time>2021-08-09T16:40:58Z</time>
      </trkpt>
      <trkpt lat="44.55842" lon="3.76124">
        <ele>1192</ele>
        <time>2021-08-09T16:41:00Z</time>
      </trkpt>
      <trkpt lat="44.55842" lon="3.7613">
        <ele>1191.9</ele>
        <time>2021-08-09T16:41:02Z</time>
      </trkpt>
      <trkpt lat="44.55841" lon="3.76135">
        <ele>1191.8</ele>
        <time>2021-08-09T16:41:04Z</time>
      </trkpt>
      <trkpt lat="44.5584" lon="3.76142">
        <ele>1191.7</ele>
        <time>2021-08-09T16:41:06Z</time>
      </trkpt>
      <trkpt lat="44.55839" lon="3.76149">
        <ele>1191.5</ele>
        <time>2021-08-09T16:41:08Z</time>
      </trkpt>
      <trkpt lat="44.55838" lon="3.76156">
        <ele>1191.3</ele>
        <time>2021-08-09T16:41:10Z</time>
      </trkpt>
      <trkpt lat="44.55838" lon="3.76164">
        <ele>1191.2</ele>
        <time>2021-08-09T16:41:12Z</time>
      </trkpt>
      <trkpt lat="44.55837" lon="3.76171">
        <ele>1191</ele>
        <time>2021-08-09T16:41:14Z</time>
      </trkpt>
      <trkpt lat="44.55836" lon="3.76178">
        <ele>1190.9</ele>
        <time>2021-08-09T16:41:16Z</time>
      </trkpt>
      <trkpt lat="44.55835" lon="3.76186">
        <ele>1190.8</ele>
        <time>2021-08-09T16:41:18Z</time>
      </trkpt>
      <trkpt lat="44.55834" lon="3.76193">
        <ele>1190.7</ele>
        <time>2021-08-09T16:41:20Z</time>
      </trkpt>
      <trkpt lat="44.55833" lon="3.762">
        <ele>1190.6</ele>
        <time>2021-08-09T16:41:22Z</time>
      </trkpt>
      <trkpt lat="44.55832" lon="3.76208">
        <ele>1190.5</ele>
        <time>2021-08-09T16:41:24Z</time>
      </trkpt>
      <trkpt lat="44.5583" lon="3.76215">
        <ele>1190.5</ele>
        <time>2021-08-09T16:41:26Z</time>
      </trkpt>
      <trkpt lat="44.55827" lon="3.76223">
        <ele>1190.5</ele>
        <time>2021-08-09T16:41:28Z</time>
      </trkpt>
      <trkpt lat="44.55826" lon="3.76231">
        <ele>1190.4</ele>
        <time>2021-08-09T16:41:30Z</time>
      </trkpt>
      <trkpt lat="44.55824" lon="3.76239">
        <ele>1190.3</ele>
        <time>2021-08-09T16:41:32Z</time>
      </trkpt>
      <trkpt lat="44.55822" lon="3.76246">
        <ele>1190.3</ele>
        <time>2021-08-09T16:41:34Z</time>
      </trkpt>
      <trkpt lat="44.55819" lon="3.76253">
        <ele>1190.3</ele>
        <time>2021-08-09T16:41:36Z</time>
      </trkpt>
      <trkpt lat="44.55816" lon="3.76261">
        <ele>1190.1</ele>
        <time>2021-08-09T16:41:38Z</time>
      </trkpt>
      <trkpt lat="44.55814" lon="3.76269">
        <ele>1190</ele>
        <time>2021-08-09T16:41:40Z</time>
      </trkpt>
      <trkpt lat="44.55812" lon="3.76276">
        <ele>1189.9</ele>
        <time>2021-08-09T16:41:42Z</time>
      </trkpt>
      <trkpt lat="44.55809" lon="3.76284">
        <ele>1189.8</ele>
        <time>2021-08-09T16:41:44Z</time>
      </trkpt>
      <trkpt lat="44.55806" lon="3.76291">
        <ele>1189.7</ele>
        <time>2021-08-09T16:41:46Z</time>
      </trkpt>
      <trkpt lat="44.55803" lon="3.76295">
        <ele>1189.7</ele>
        <time>2021-08-09T16:41:48Z</time>
      </trkpt>
      <trkpt lat="44.55802" lon="3.76299">
        <ele>1189.6</ele>
        <time>2021-08-09T16:41:50Z</time>
      </trkpt>
      <trkpt lat="44.55802" lon="3.76306">
        <ele>1189.4</ele>
        <time>2021-08-09T16:41:52Z</time>
      </trkpt>
      <trkpt lat="44.55802" lon="3.76312">
        <ele>1189.3</ele>
        <time>2021-08-09T16:41:54Z</time>
      </trkpt>
      <trkpt lat="44.55802" lon="3.76318">
        <ele>1189.1</ele>
        <time>2021-08-09T16:41:56Z</time>
      </trkpt>
      <trkpt lat="44.55802" lon="3.76323">
        <ele>1189</ele>
        <time>2021-08-09T16:41:58Z</time>
      </trkpt>
      <trkpt lat="44.55801" lon="3.76326">
        <ele>1188.9</ele>
        <time>2021-08-09T16:42:00Z</time>
      </trkpt>
      <trkpt lat="44.55797" lon="3.76327">
        <ele>1189</ele>
        <time>2021-08-09T16:42:02Z</time>
      </trkpt>
      <trkpt lat="44.55793" lon="3.76327">
        <ele>1189.1</ele>
        <time>2021-08-09T16:42:04Z</time>
      </trkpt>
      <trkpt lat="44.55786" lon="3.76327">
        <ele>1189.3</ele>
        <time>2021-08-09T16:42:06Z</time>
      </trkpt>
      <trkpt lat="44.55779" lon="3.7633">
        <ele>1189.4</ele>
        <time>2021-08-09T16:42:08Z</time>
      </trkpt>
      <trkpt lat="44.5577" lon="3.76332">
        <ele>1189.5</ele>
        <time>2021-08-09T16:42:10Z</time>
      </trkpt>
      <trkpt lat="44.55763" lon="3.76334">
        <ele>1189.7</ele>
        <time>2021-08-09T16:42:12Z</time>
      </trkpt>
      <trkpt lat="44.55756" lon="3.76334">
        <ele>1189.8</ele>
        <time>2021-08-09T16:42:14Z</time>
      </trkpt>
      <trkpt lat="44.55751" lon="3.76336">
        <ele>1189.7</ele>
        <time>2021-08-09T16:42:16Z</time>
      </trkpt>
      <trkpt lat="44.55748" lon="3.76339">
        <ele>1189.6</ele>
        <time>2021-08-09T16:42:18Z</time>
      </trkpt>
      <trkpt lat="44.55745" lon="3.76343">
        <ele>1189.4</ele>
        <time>2021-08-09T16:42:20Z</time>
      </trkpt>
      <trkpt lat="44.55744" lon="3.76346">
        <ele>1189.3</ele>
        <time>2021-08-09T16:42:22Z</time>
      </trkpt>
      <trkpt lat="44.55744" lon="3.76348">
        <ele>1189.1</ele>
        <time>2021-08-09T16:42:24Z</time>
      </trkpt>
      <trkpt lat="44.55742" lon="3.7635">
        <ele>1189.1</ele>
        <time>2021-08-09T16:42:26Z</time>
      </trkpt>
      <trkpt lat="44.55741" lon="3.76348">
        <ele>1189.3</ele>
        <time>2021-08-09T16:42:28Z</time>
      </trkpt>
      <trkpt lat="44.55742" lon="3.76346">
        <ele>1189.4</ele>
        <time>2021-08-09T16:42:30Z</time>
      </trkpt>
      <trkpt lat="44.55746" lon="3.76343">
        <ele>1189.4</ele>
        <time>2021-08-09T16:42:32Z</time>
      </trkpt>
      <trkpt lat="44.5575" lon="3.7634">
        <ele>1189.4</ele>
        <time>2021-08-09T16:42:34Z</time>
      </trkpt>
      <trkpt lat="44.55754" lon="3.76339">
        <ele>1189.4</ele>
        <time>2021-08-09T16:42:36Z</time>
      </trkpt>
      <trkpt lat="44.55759" lon="3.76338">
        <ele>1189.4</ele>
        <time>2021-08-09T16:42:38Z</time>
      </trkpt>
      <trkpt lat="44.55763" lon="3.76337">
        <ele>1189.4</ele>
        <time>2021-08-09T16:42:40Z</time>
      </trkpt>
      <trkpt lat="44.55767" lon="3.76337">
        <ele>1189.3</ele>
        <time>2021-08-09T16:42:42Z</time>
      </trkpt>
      <trkpt lat="44.55771" lon="3.76336">
        <ele>1189.3</ele>
        <time>2021-08-09T16:42:44Z</time>
      </trkpt>
      <trkpt lat="44.55775" lon="3.76335">
        <ele>1189.2</ele>
        <time>2021-08-09T16:42:46Z</time>
      </trkpt>
      <trkpt lat="44.55779" lon="3.76335">
        <ele>1189.2</ele>
        <time>2021-08-09T16:42:48Z</time>
      </trkpt>
      <trkpt lat="44.55782" lon="3.76334">
        <ele>1189.1</ele>
        <time>2021-08-09T16:42:50Z</time>
      </trkpt>
      <trkpt lat="44.55786" lon="3.76334">
        <ele>1189.1</ele>
        <time>2021-08-09T16:42:52Z</time>
      </trkpt>
      <trkpt lat="44.5579" lon="3.76333">
        <ele>1189.1</ele>
        <time>2021-08-09T16:42:54Z</time>
      </trkpt>
      <trkpt lat="44.55793" lon="3.76333">
        <ele>1189</ele>
        <time>2021-08-09T16:42:56Z</time>
      </trkpt>
      <trkpt lat="44.55796" lon="3.76331">
        <ele>1189</ele>
        <time>2021-08-09T16:42:58Z</time>
      </trkpt>
      <trkpt lat="44.55798" lon="3.76328">
        <ele>1189</ele>
        <time>2021-08-09T16:43:00Z</time>
      </trkpt>
      <trkpt lat="44.55799" lon="3.76326">
        <ele>1189</ele>
        <time>2021-08-09T16:43:02Z</time>
      </trkpt>
      <trkpt lat="44.558" lon="3.76323">
        <ele>1189</ele>
        <time>2021-08-09T16:43:04Z</time>
      </trkpt>
      <trkpt lat="44.55801" lon="3.76321">
        <ele>1189.1</ele>
        <time>2021-08-09T16:43:06Z</time>
      </trkpt>
      <trkpt lat="44.55805" lon="3.76322">
        <ele>1189</ele>
        <time>2021-08-09T16:43:08Z</time>
      </trkpt>
      <trkpt lat="44.55808" lon="3.76324">
        <ele>1188.8</ele>
        <time>2021-08-09T16:43:10Z</time>
      </trkpt>
      <trkpt lat="44.55811" lon="3.76328">
        <ele>1188.7</ele>
        <time>2021-08-09T16:43:12Z</time>
      </trkpt>
      <trkpt lat="44.55814" lon="3.7633">
        <ele>1188.6</ele>
        <time>2021-08-09T16:43:14Z</time>
      </trkpt>
      <trkpt lat="44.55817" lon="3.76332">
        <ele>1188.4</ele>
        <time>2021-08-09T16:43:16Z</time>
      </trkpt>
      <trkpt lat="44.5582" lon="3.76332">
        <ele>1188.4</ele>
        <time>2021-08-09T16:43:18Z</time>
      </trkpt>
      <trkpt lat="44.55822" lon="3.76332">
        <ele>1188.3</ele>
        <time>2021-08-09T16:43:20Z</time>
      </trkpt>
      <trkpt lat="44.55825" lon="3.76332">
        <ele>1188.2</ele>
        <time>2021-08-09T16:43:22Z</time>
      </trkpt>
      <trkpt lat="44.55826" lon="3.76331">
        <ele>1188.2</ele>
        <time>2021-08-09T16:43:24Z</time>
      </trkpt>
      <trkpt lat="44.55828" lon="3.7633">
        <ele>1188.2</ele>
        <time>2021-08-09T16:43:26Z</time>
      </trkpt>
      <trkpt lat="44.5583" lon="3.7633">
        <ele>1188.2</ele>
        <time>2021-08-09T16:43:28Z</time>
      </trkpt>
      <trkpt lat="44.5583" lon="3.7633">
        <ele>1188.2</ele>
        <time>2021-08-09T16:43:30Z</time>
      </trkpt>
      <trkpt lat="44.5583" lon="3.7633">
        <ele>1188.2</ele>
        <time>2021-08-09T16:43:32Z</time>
      </trkpt>
      <trkpt lat="44.5583" lon="3.76331">
        <ele>1188.2</ele>
        <time>2021-08-09T16:43:34Z</time>
      </trkpt>
      <trkpt lat="44.5583" lon="3.7633">
        <ele>1188.1</ele>
        <time>2021-08-09T16:43:36Z</time>
      </trkpt>
      <trkpt lat="44.5583" lon="3.76331">
        <ele>1188.1</ele>
        <time>2021-08-09T16:43:38Z</time>
      </trkpt>
      <trkpt lat="44.5583" lon="3.76331">
        <ele>1188.1</ele>
        <time>2021-08-09T16:43:40Z</time>
      </trkpt>
      <trkpt lat="44.5583" lon="3.76331">
        <ele>1188.1</ele>
        <time>2021-08-09T16:43:42Z</time>
      </trkpt>
      <trkpt lat="44.5583" lon="3.76331">
        <ele>1188.1</ele>
        <time>2021-08-09T16:43:44Z</time>
      </trkpt>
      <trkpt lat="44.55831" lon="3.76331">
        <ele>1188.1</ele>
        <time>2021-08-09T16:43:46Z</time>
      </trkpt>
      <trkpt lat="44.55831" lon="3.76331">
        <ele>1188.1</ele>
        <time>2021-08-09T16:43:48Z</time>
      </trkpt>
      <trkpt lat="44.55831" lon="3.76331">
        <ele>1188.1</ele>
        <time>2021-08-09T16:43:50Z</time>
      </trkpt>
      <trkpt lat="44.55831" lon="3.76331">
        <ele>1188.1</ele>
        <time>2021-08-09T16:43:52Z</time>
      </trkpt>
      <trkpt lat="44.55831" lon="3.76331">
        <ele>1188.1</ele>
        <time>2021-08-09T16:43:54Z</time>
      </trkpt>
      <trkpt lat="44.55831" lon="3.76331">
        <ele>1188.1</ele>
        <time>2021-08-09T16:43:56Z</time>
      </trkpt>
      <trkpt lat="44.55831" lon="3.76331">
        <ele>1188.1</ele>
        <time>2021-08-09T16:43:58Z</time>
      </trkpt>
      <trkpt lat="44.55831" lon="3.76331">
        <ele>1188.1</ele>
        <time>2021-08-09T16:44:00Z</time>
      </trkpt>
      <trkpt lat="44.55831" lon="3.76331">
        <ele>1188.1</ele>
        <time>2021-08-09T16:44:02Z</time>
      </trkpt>
      <trkpt lat="44.5583" lon="3.76331">
        <ele>1188.1</ele>
        <time>2021-08-09T16:44:04Z</time>
      </trkpt>
      <trkpt lat="44.5583" lon="3.76332">
        <ele>1188.1</ele>
        <time>2021-08-09T16:44:06Z</time>
      </trkpt>
      <trkpt lat="44.55831" lon="3.76332">
        <ele>1188.1</ele>
        <time>2021-08-09T16:44:08Z</time>
      </trkpt>
      <trkpt lat="44.55831" lon="3.76332">
        <ele>1188.1</ele>
        <time>2021-08-09T16:44:10Z</time>
      </trkpt>
      <trkpt lat="44.55831" lon="3.76332">
        <ele>1188.1</ele>
        <time>2021-08-09T16:44:12Z</time>
      </trkpt>
      <trkpt lat="44.55831" lon="3.76332">
        <ele>1188.1</ele>
        <time>2021-08-09T16:44:14Z</time>
      </trkpt>
      <trkpt lat="44.55831" lon="3.76332">
        <ele>1188.1</ele>
        <time>2021-08-09T16:44:16Z</time>
      </trkpt>
      <trkpt lat="44.55832" lon="3.76332">
        <ele>1188.1</ele>
        <time>2021-08-09T16:44:18Z</time>
      </trkpt>
      <trkpt lat="44.55832" lon="3.76331">
        <ele>1188.1</ele>
        <time>2021-08-09T16:44:22Z</time>
      </trkpt>
      <trkpt lat="44.55832" lon="3.76331">
        <ele>1188.1</ele>
        <time>2021-08-09T16:44:26Z</time>
      </trkpt>
      <trkpt lat="44.55832" lon="3.76331">
        <ele>1188.1</ele>
        <time>2021-08-09T16:44:30Z</time>
      </trkpt>
      <trkpt lat="44.55832" lon="3.76331">
        <ele>1188.1</ele>
        <time>2021-08-09T16:44:32Z</time>
      </trkpt>
      <trkpt lat="44.55832" lon="3.76331">
        <ele>1188.1</ele>
        <time>2021-08-09T16:44:34Z</time>
      </trkpt>
      <trkpt lat="44.55832" lon="3.76331">
        <ele>1188.1</ele>
        <time>2021-08-09T16:44:38Z</time>
      </trkpt>
      <trkpt lat="44.55832" lon="3.76331">
        <ele>1188.1</ele>
        <time>2021-08-09T16:44:40Z</time>
      </trkpt>
      <trkpt lat="44.55832" lon="3.76331">
        <ele>1188.1</ele>
        <time>2021-08-09T16:44:42Z</time>
      </trkpt>
      <trkpt lat="44.55831" lon="3.76331">
        <ele>1188.1</ele>
        <time>2021-08-09T16:44:44Z</time>
      </trkpt>
      <trkpt lat="44.55832" lon="3.76331">
        <ele>1188.1</ele>
        <time>2021-08-09T16:44:46Z</time>
      </trkpt>
      <trkpt lat="44.55831" lon="3.76331">
        <ele>1188.1</ele>
        <time>2021-08-09T16:44:48Z</time>
      </trkpt>
      <trkpt lat="44.55832" lon="3.76331">
        <ele>1188.1</ele>
        <time>2021-08-09T16:44:50Z</time>
      </trkpt>
      <trkpt lat="44.55831" lon="3.76331">
        <ele>1188.1</ele>
        <time>2021-08-09T16:44:52Z</time>
      </trkpt>
      <trkpt lat="44.55831" lon="3.7633">
        <ele>1188.1</ele>
        <time>2021-08-09T16:44:54Z</time>
      </trkpt>
      <trkpt lat="44.55831" lon="3.7633">
        <ele>1188.1</ele>
        <time>2021-08-09T16:44:56Z</time>
      </trkpt>
      <trkpt lat="44.55831" lon="3.7633">
        <ele>1188.1</ele>
        <time>2021-08-09T16:44:58Z</time>
      </trkpt>
      <trkpt lat="44.55831" lon="3.7633">
        <ele>1188.1</ele>
        <time>2021-08-09T16:45:00Z</time>
      </trkpt>
      <trkpt lat="44.55831" lon="3.7633">
        <ele>1188.1</ele>
        <time>2021-08-09T16:45:02Z</time>
      </trkpt>
      <trkpt lat="44.55831" lon="3.7633">
        <ele>1188.1</ele>
        <time>2021-08-09T16:45:04Z</time>
      </trkpt>
      <trkpt lat="44.5583" lon="3.7633">
        <ele>1188.1</ele>
        <time>2021-08-09T16:45:06Z</time>
      </trkpt>
      <trkpt lat="44.55831" lon="3.7633">
        <ele>1188.1</ele>
        <time>2021-08-09T16:45:08Z</time>
      </trkpt>
      <trkpt lat="44.55832" lon="3.7633">
        <ele>1188.1</ele>
        <time>2021-08-09T16:45:10Z</time>
      </trkpt>
      <trkpt lat="44.55832" lon="3.7633">
        <ele>1188.1</ele>
        <time>2021-08-09T16:45:12Z</time>
      </trkpt>
      <trkpt lat="44.55832" lon="3.7633">
        <ele>1188.1</ele>
        <time>2021-08-09T16:45:14Z</time>
      </trkpt>
      <trkpt lat="44.55832" lon="3.7633">
        <ele>1188.1</ele>
        <time>2021-08-09T16:45:16Z</time>
      </trkpt>
      <trkpt lat="44.55832" lon="3.76329">
        <ele>1188.1</ele>
        <time>2021-08-09T16:45:18Z</time>
      </trkpt>
      <trkpt lat="44.55832" lon="3.76329">
        <ele>1188.1</ele>
        <time>2021-08-09T16:45:20Z</time>
      </trkpt>
      <trkpt lat="44.55831" lon="3.76329">
        <ele>1188.2</ele>
        <time>2021-08-09T16:45:22Z</time>
      </trkpt>
      <trkpt lat="44.55832" lon="3.76329">
        <ele>1188.2</ele>
        <time>2021-08-09T16:45:24Z</time>
      </trkpt>
      <trkpt lat="44.55832" lon="3.76329">
        <ele>1188.1</ele>
        <time>2021-08-09T16:45:26Z</time>
      </trkpt>
      <trkpt lat="44.55832" lon="3.76329">
        <ele>1188.1</ele>
        <time>2021-08-09T16:45:28Z</time>
      </trkpt>
      <trkpt lat="44.55832" lon="3.76329">
        <ele>1188.1</ele>
        <time>2021-08-09T16:45:30Z</time>
      </trkpt>
      <trkpt lat="44.55832" lon="3.76329">
        <ele>1188.1</ele>
        <time>2021-08-09T16:45:32Z</time>
      </trkpt>
      <trkpt lat="44.55832" lon="3.76329">
        <ele>1188.1</ele>
        <time>2021-08-09T16:45:34Z</time>
      </trkpt>
      <trkpt lat="44.55832" lon="3.76329">
        <ele>1188.1</ele>
        <time>2021-08-09T16:45:36Z</time>
      </trkpt>
      <trkpt lat="44.55832" lon="3.76329">
        <ele>1188.1</ele>
        <time>2021-08-09T16:45:38Z</time>
      </trkpt>
      <trkpt lat="44.55832" lon="3.76329">
        <ele>1188.1</ele>
        <time>2021-08-09T16:45:40Z</time>
      </trkpt>
      <trkpt lat="44.55832" lon="3.76329">
        <ele>1188.1</ele>
        <time>2021-08-09T16:45:42Z</time>
      </trkpt>
      <trkpt lat="44.55833" lon="3.76329">
        <ele>1188.1</ele>
        <time>2021-08-09T16:45:44Z</time>
      </trkpt>
      <trkpt lat="44.55832" lon="3.76329">
        <ele>1188.1</ele>
        <time>2021-08-09T16:45:46Z</time>
      </trkpt>
      <trkpt lat="44.55833" lon="3.7633">
        <ele>1188.1</ele>
        <time>2021-08-09T16:45:48Z</time>
      </trkpt>
      <trkpt lat="44.55833" lon="3.7633">
        <ele>1188.1</ele>
        <time>2021-08-09T16:45:50Z</time>
      </trkpt>
      <trkpt lat="44.55832" lon="3.7633">
        <ele>1188.1</ele>
        <time>2021-08-09T16:45:52Z</time>
      </trkpt>
      <trkpt lat="44.55832" lon="3.7633">
        <ele>1188.1</ele>
        <time>2021-08-09T16:45:54Z</time>
      </trkpt>
      <trkpt lat="44.55832" lon="3.7633">
        <ele>1188.1</ele>
        <time>2021-08-09T16:45:56Z</time>
      </trkpt>
      <trkpt lat="44.55832" lon="3.7633">
        <ele>1188.1</ele>
        <time>2021-08-09T16:45:58Z</time>
      </trkpt>
      <trkpt lat="44.55832" lon="3.7633">
        <ele>1188.1</ele>
        <time>2021-08-09T16:46:00Z</time>
      </trkpt>
      <trkpt lat="44.55832" lon="3.7633">
        <ele>1188.1</ele>
        <time>2021-08-09T16:46:02Z</time>
      </trkpt>
      <trkpt lat="44.55832" lon="3.7633">
        <ele>1188.1</ele>
        <time>2021-08-09T16:46:04Z</time>
      </trkpt>
      <trkpt lat="44.55832" lon="3.7633">
        <ele>1188.1</ele>
        <time>2021-08-09T16:46:06Z</time>
      </trkpt>
      <trkpt lat="44.55832" lon="3.7633">
        <ele>1188.1</ele>
        <time>2021-08-09T16:46:08Z</time>
      </trkpt>
      <trkpt lat="44.55832" lon="3.7633">
        <ele>1188.1</ele>
        <time>2021-08-09T16:46:10Z</time>
      </trkpt>
      <trkpt lat="44.55832" lon="3.7633">
        <ele>1188.1</ele>
        <time>2021-08-09T16:46:12Z</time>
      </trkpt>
      <trkpt lat="44.55832" lon="3.7633">
        <ele>1188.1</ele>
        <time>2021-08-09T16:46:14Z</time>
      </trkpt>
      <trkpt lat="44.55832" lon="3.7633">
        <ele>1188.1</ele>
        <time>2021-08-09T16:46:16Z</time>
      </trkpt>
      <trkpt lat="44.55832" lon="3.7633">
        <ele>1188.1</ele>
        <time>2021-08-09T16:46:18Z</time>
      </trkpt>
      <trkpt lat="44.55832" lon="3.7633">
        <ele>1188.1</ele>
        <time>2021-08-09T16:46:20Z</time>
      </trkpt>
      <trkpt lat="44.55832" lon="3.7633">
        <ele>1188.1</ele>
        <time>2021-08-09T16:46:22Z</time>
      </trkpt>
      <trkpt lat="44.55832" lon="3.7633">
        <ele>1188.1</ele>
        <time>2021-08-09T16:46:24Z</time>
      </trkpt>
      <trkpt lat="44.55832" lon="3.7633">
        <ele>1188.1</ele>
        <time>2021-08-09T16:46:26Z</time>
      </trkpt>
      <trkpt lat="44.55831" lon="3.7633">
        <ele>1188.1</ele>
        <time>2021-08-09T16:46:28Z</time>
      </trkpt>
      <trkpt lat="44.55832" lon="3.7633">
        <ele>1188.1</ele>
        <time>2021-08-09T16:46:30Z</time>
      </trkpt>
      <trkpt lat="44.55831" lon="3.7633">
        <ele>1188.1</ele>
        <time>2021-08-09T16:46:32Z</time>
      </trkpt>
      <trkpt lat="44.55831" lon="3.7633">
        <ele>1188.1</ele>
        <time>2021-08-09T16:46:34Z</time>
      </trkpt>
      <trkpt lat="44.55831" lon="3.7633">
        <ele>1188.1</ele>
        <time>2021-08-09T16:46:36Z</time>
      </trkpt>
      <trkpt lat="44.55831" lon="3.7633">
        <ele>1188.1</ele>
        <time>2021-08-09T16:46:38Z</time>
      </trkpt>
      <trkpt lat="44.55831" lon="3.76331">
        <ele>1188.1</ele>
        <time>2021-08-09T16:46:40Z</time>
      </trkpt>
      <trkpt lat="44.55831" lon="3.76331">
        <ele>1188.1</ele>
        <time>2021-08-09T16:46:42Z</time>
      </trkpt>
      <trkpt lat="44.55831" lon="3.76331">
        <ele>1188.1</ele>
        <time>2021-08-09T16:46:44Z</time>
      </trkpt>
      <trkpt lat="44.55831" lon="3.76331">
        <ele>1188.1</ele>
        <time>2021-08-09T16:46:46Z</time>
      </trkpt>
      <trkpt lat="44.55831" lon="3.7633">
        <ele>1188.1</ele>
        <time>2021-08-09T16:46:48Z</time>
      </trkpt>
      <trkpt lat="44.55831" lon="3.7633">
        <ele>1188.1</ele>
        <time>2021-08-09T16:46:50Z</time>
      </trkpt>
      <trkpt lat="44.55831" lon="3.7633">
        <ele>1188.1</ele>
        <time>2021-08-09T16:46:52Z</time>
      </trkpt>
      <trkpt lat="44.55831" lon="3.7633">
        <ele>1188.1</ele>
        <time>2021-08-09T16:46:54Z</time>
      </trkpt>
      <trkpt lat="44.55831" lon="3.7633">
        <ele>1188.1</ele>
        <time>2021-08-09T16:46:56Z</time>
      </trkpt>
      <trkpt lat="44.55831" lon="3.7633">
        <ele>1188.1</ele>
        <time>2021-08-09T16:46:58Z</time>
      </trkpt>
      <trkpt lat="44.55831" lon="3.7633">
        <ele>1188.1</ele>
        <time>2021-08-09T16:47:00Z</time>
      </trkpt>
      <trkpt lat="44.55831" lon="3.7633">
        <ele>1188.1</ele>
        <time>2021-08-09T16:47:02Z</time>
      </trkpt>
      <trkpt lat="44.55831" lon="3.76331">
        <ele>1188.1</ele>
        <time>2021-08-09T16:47:04Z</time>
      </trkpt>
      <trkpt lat="44.55831" lon="3.7633">
        <ele>1188.1</ele>
        <time>2021-08-09T16:47:06Z</time>
      </trkpt>
      <trkpt lat="44.55831" lon="3.7633">
        <ele>1188.1</ele>
        <time>2021-08-09T16:47:08Z</time>
      </trkpt>
      <trkpt lat="44.55831" lon="3.7633">
        <ele>1188.1</ele>
        <time>2021-08-09T16:47:10Z</time>
      </trkpt>
      <trkpt lat="44.55832" lon="3.76331">
        <ele>1188.1</ele>
        <time>2021-08-09T16:47:12Z</time>
      </trkpt>
      <trkpt lat="44.55832" lon="3.76331">
        <ele>1188.1</ele>
        <time>2021-08-09T16:47:14Z</time>
      </trkpt>
      <trkpt lat="44.55833" lon="3.76331">
        <ele>1188.1</ele>
        <time>2021-08-09T16:47:16Z</time>
      </trkpt>
      <trkpt lat="44.55833" lon="3.76331">
        <ele>1188.1</ele>
        <time>2021-08-09T16:47:18Z</time>
      </trkpt>
      <trkpt lat="44.55833" lon="3.76331">
        <ele>1188.1</ele>
        <time>2021-08-09T16:47:20Z</time>
      </trkpt>
      <trkpt lat="44.55833" lon="3.76331">
        <ele>1188.1</ele>
        <time>2021-08-09T16:47:22Z</time>
      </trkpt>
      <trkpt lat="44.55833" lon="3.7633">
        <ele>1188.1</ele>
        <time>2021-08-09T16:47:24Z</time>
      </trkpt>
      <trkpt lat="44.55834" lon="3.7633">
        <ele>1188.1</ele>
        <time>2021-08-09T16:47:26Z</time>
      </trkpt>
      <trkpt lat="44.55834" lon="3.7633">
        <ele>1188.1</ele>
        <time>2021-08-09T16:47:28Z</time>
      </trkpt>
      <trkpt lat="44.55834" lon="3.7633">
        <ele>1188.1</ele>
        <time>2021-08-09T16:47:30Z</time>
      </trkpt>
      <trkpt lat="44.55834" lon="3.7633">
        <ele>1188.1</ele>
        <time>2021-08-09T16:47:32Z</time>
      </trkpt>
      <trkpt lat="44.55834" lon="3.7633">
        <ele>1188.1</ele>
        <time>2021-08-09T16:47:34Z</time>
      </trkpt>
      <trkpt lat="44.55834" lon="3.76331">
        <ele>1188.1</ele>
        <time>2021-08-09T16:47:36Z</time>
      </trkpt>
      <trkpt lat="44.55834" lon="3.76331">
        <ele>1188.1</ele>
        <time>2021-08-09T16:47:38Z</time>
      </trkpt>
      <trkpt lat="44.55834" lon="3.76331">
        <ele>1188.1</ele>
        <time>2021-08-09T16:47:40Z</time>
      </trkpt>
      <trkpt lat="44.55834" lon="3.76331">
        <ele>1188.1</ele>
        <time>2021-08-09T16:47:42Z</time>
      </trkpt>
      <trkpt lat="44.55834" lon="3.76331">
        <ele>1188.1</ele>
        <time>2021-08-09T16:47:44Z</time>
      </trkpt>
      <trkpt lat="44.55834" lon="3.76331">
        <ele>1188.1</ele>
        <time>2021-08-09T16:47:46Z</time>
      </trkpt>
      <trkpt lat="44.55833" lon="3.76331">
        <ele>1188.1</ele>
        <time>2021-08-09T16:47:48Z</time>
      </trkpt>
      <trkpt lat="44.55833" lon="3.76331">
        <ele>1188.1</ele>
        <time>2021-08-09T16:47:50Z</time>
      </trkpt>
      <trkpt lat="44.55833" lon="3.76331">
        <ele>1188</ele>
        <time>2021-08-09T16:47:52Z</time>
      </trkpt>
      <trkpt lat="44.55833" lon="3.76331">
        <ele>1188.1</ele>
        <time>2021-08-09T16:47:54Z</time>
      </trkpt>
      <trkpt lat="44.55832" lon="3.76332">
        <ele>1188.1</ele>
        <time>2021-08-09T16:47:56Z</time>
      </trkpt>
      <trkpt lat="44.55833" lon="3.76331">
        <ele>1188</ele>
        <time>2021-08-09T16:47:58Z</time>
      </trkpt>
      <trkpt lat="44.55833" lon="3.76331">
        <ele>1188.1</ele>
        <time>2021-08-09T16:48:00Z</time>
      </trkpt>
      <trkpt lat="44.55833" lon="3.76331">
        <ele>1188</ele>
        <time>2021-08-09T16:48:02Z</time>
      </trkpt>
      <trkpt lat="44.55833" lon="3.76331">
        <ele>1188</ele>
        <time>2021-08-09T16:48:04Z</time>
      </trkpt>
      <trkpt lat="44.55833" lon="3.76331">
        <ele>1188.1</ele>
        <time>2021-08-09T16:48:06Z</time>
      </trkpt>
      <trkpt lat="44.55833" lon="3.76331">
        <ele>1188.1</ele>
        <time>2021-08-09T16:48:08Z</time>
      </trkpt>
      <trkpt lat="44.55833" lon="3.76331">
        <ele>1188</ele>
        <time>2021-08-09T16:48:10Z</time>
      </trkpt>
      <trkpt lat="44.55833" lon="3.76331">
        <ele>1188</ele>
        <time>2021-08-09T16:48:12Z</time>
      </trkpt>
      <trkpt lat="44.55833" lon="3.76331">
        <ele>1188</ele>
        <time>2021-08-09T16:48:14Z</time>
      </trkpt>
      <trkpt lat="44.55833" lon="3.76331">
        <ele>1188</ele>
        <time>2021-08-09T16:48:16Z</time>
      </trkpt>
      <trkpt lat="44.55833" lon="3.76332">
        <ele>1188</ele>
        <time>2021-08-09T16:48:18Z</time>
      </trkpt>
      <trkpt lat="44.55833" lon="3.76331">
        <ele>1188</ele>
        <time>2021-08-09T16:48:20Z</time>
      </trkpt>
      <trkpt lat="44.55834" lon="3.7633">
        <ele>1188.1</ele>
        <time>2021-08-09T16:48:22Z</time>
      </trkpt>
      <trkpt lat="44.55834" lon="3.7633">
        <ele>1188.1</ele>
        <time>2021-08-09T16:48:24Z</time>
      </trkpt>
      <trkpt lat="44.55835" lon="3.7633">
        <ele>1188.1</ele>
        <time>2021-08-09T16:48:26Z</time>
      </trkpt>
      <trkpt lat="44.55835" lon="3.7633">
        <ele>1188.1</ele>
        <time>2021-08-09T16:48:28Z</time>
      </trkpt>
      <trkpt lat="44.55835" lon="3.76331">
        <ele>1188.1</ele>
        <time>2021-08-09T16:48:30Z</time>
      </trkpt>
      <trkpt lat="44.55834" lon="3.76332">
        <ele>1188</ele>
        <time>2021-08-09T16:48:32Z</time>
      </trkpt>
      <trkpt lat="44.55833" lon="3.76332">
        <ele>1188</ele>
        <time>2021-08-09T16:48:34Z</time>
      </trkpt>
      <trkpt lat="44.55833" lon="3.76332">
        <ele>1188</ele>
        <time>2021-08-09T16:48:36Z</time>
      </trkpt>
      <trkpt lat="44.55833" lon="3.76332">
        <ele>1188</ele>
        <time>2021-08-09T16:48:38Z</time>
      </trkpt>
      <trkpt lat="44.55833" lon="3.76332">
        <ele>1188</ele>
        <time>2021-08-09T16:48:40Z</time>
      </trkpt>
      <trkpt lat="44.55832" lon="3.76332">
        <ele>1188.1</ele>
        <time>2021-08-09T16:48:42Z</time>
      </trkpt>
      <trkpt lat="44.55831" lon="3.76333">
        <ele>1188.1</ele>
        <time>2021-08-09T16:48:44Z</time>
      </trkpt>
      <trkpt lat="44.55829" lon="3.76332">
        <ele>1188.1</ele>
        <time>2021-08-09T16:48:46Z</time>
      </trkpt>
      <trkpt lat="44.55827" lon="3.76331">
        <ele>1188.2</ele>
        <time>2021-08-09T16:48:48Z</time>
      </trkpt>
      <trkpt lat="44.55826" lon="3.76331">
        <ele>1188.2</ele>
        <time>2021-08-09T16:48:50Z</time>
      </trkpt>
      <trkpt lat="44.55825" lon="3.76331">
        <ele>1188.2</ele>
        <time>2021-08-09T16:48:52Z</time>
      </trkpt>
      <trkpt lat="44.55825" lon="3.76331">
        <ele>1188.2</ele>
        <time>2021-08-09T16:48:54Z</time>
      </trkpt>
      <trkpt lat="44.55825" lon="3.76331">
        <ele>1188.2</ele>
        <time>2021-08-09T16:48:56Z</time>
      </trkpt>
      <trkpt lat="44.55825" lon="3.76331">
        <ele>1188.2</ele>
        <time>2021-08-09T16:48:58Z</time>
      </trkpt>
      <trkpt lat="44.55825" lon="3.76331">
        <ele>1188.2</ele>
        <time>2021-08-09T16:49:00Z</time>
      </trkpt>
      <trkpt lat="44.55825" lon="3.76331">
        <ele>1188.2</ele>
        <time>2021-08-09T16:49:02Z</time>
      </trkpt>
      <trkpt lat="44.55825" lon="3.76331">
        <ele>1188.2</ele>
        <time>2021-08-09T16:49:06Z</time>
      </trkpt>
      <trkpt lat="44.55825" lon="3.76332">
        <ele>1188.2</ele>
        <time>2021-08-09T16:49:10Z</time>
      </trkpt>
      <trkpt lat="44.55825" lon="3.76332">
        <ele>1188.2</ele>
        <time>2021-08-09T16:49:12Z</time>
      </trkpt>
      <trkpt lat="44.55825" lon="3.76332">
        <ele>1188.2</ele>
        <time>2021-08-09T16:49:14Z</time>
      </trkpt>
      <trkpt lat="44.55825" lon="3.76332">
        <ele>1188.2</ele>
        <time>2021-08-09T16:49:16Z</time>
      </trkpt>
      <trkpt lat="44.55825" lon="3.76332">
        <ele>1188.2</ele>
        <time>2021-08-09T16:49:18Z</time>
      </trkpt>
      <trkpt lat="44.55825" lon="3.76332">
        <ele>1188.2</ele>
        <time>2021-08-09T16:49:20Z</time>
      </trkpt>
      <trkpt lat="44.55825" lon="3.76332">
        <ele>1188.2</ele>
        <time>2021-08-09T16:49:22Z</time>
      </trkpt>
      <trkpt lat="44.55825" lon="3.76333">
        <ele>1188.2</ele>
        <time>2021-08-09T16:49:24Z</time>
      </trkpt>
      <trkpt lat="44.55822" lon="3.76332">
        <ele>1188.3</ele>
        <time>2021-08-09T16:49:26Z</time>
      </trkpt>
      <trkpt lat="44.55819" lon="3.76331">
        <ele>1188.4</ele>
        <time>2021-08-09T16:49:28Z</time>
      </trkpt>
      <trkpt lat="44.55816" lon="3.7633">
        <ele>1188.5</ele>
        <time>2021-08-09T16:49:30Z</time>
      </trkpt>
      <trkpt lat="44.55813" lon="3.76327">
        <ele>1188.6</ele>
        <time>2021-08-09T16:49:32Z</time>
      </trkpt>
      <trkpt lat="44.55811" lon="3.76325">
        <ele>1188.7</ele>
        <time>2021-08-09T16:49:34Z</time>
      </trkpt>
      <trkpt lat="44.55809" lon="3.76323">
        <ele>1188.8</ele>
        <time>2021-08-09T16:49:36Z</time>
      </trkpt>
      <trkpt lat="44.55807" lon="3.76322">
        <ele>1188.9</ele>
        <time>2021-08-09T16:49:38Z</time>
      </trkpt>
      <trkpt lat="44.55806" lon="3.76321">
        <ele>1189</ele>
        <time>2021-08-09T16:49:40Z</time>
      </trkpt>
      <trkpt lat="44.55806" lon="3.76321">
        <ele>1189</ele>
        <time>2021-08-09T16:49:42Z</time>
      </trkpt>
      <trkpt lat="44.55806" lon="3.76321">
        <ele>1189</ele>
        <time>2021-08-09T16:49:44Z</time>
      </trkpt>
      <trkpt lat="44.55806" lon="3.7632">
        <ele>1189</ele>
        <time>2021-08-09T16:49:46Z</time>
      </trkpt>
      <trkpt lat="44.55806" lon="3.7632">
        <ele>1189</ele>
        <time>2021-08-09T16:49:48Z</time>
      </trkpt>
      <trkpt lat="44.55805" lon="3.76321">
        <ele>1189</ele>
        <time>2021-08-09T16:49:50Z</time>
      </trkpt>
      <trkpt lat="44.55804" lon="3.76321">
        <ele>1189</ele>
        <time>2021-08-09T16:49:52Z</time>
      </trkpt>
      <trkpt lat="44.55803" lon="3.76321">
        <ele>1189</ele>
        <time>2021-08-09T16:49:54Z</time>
      </trkpt>
      <trkpt lat="44.55803" lon="3.76321">
        <ele>1189</ele>
        <time>2021-08-09T16:49:56Z</time>
      </trkpt>
      <trkpt lat="44.55802" lon="3.76322">
        <ele>1189</ele>
        <time>2021-08-09T16:49:58Z</time>
      </trkpt>
      <trkpt lat="44.55802" lon="3.76325">
        <ele>1189</ele>
        <time>2021-08-09T16:50:00Z</time>
      </trkpt>
      <trkpt lat="44.55801" lon="3.76328">
        <ele>1188.9</ele>
        <time>2021-08-09T16:50:02Z</time>
      </trkpt>
      <trkpt lat="44.55799" lon="3.7633">
        <ele>1188.9</ele>
        <time>2021-08-09T16:50:04Z</time>
      </trkpt>
      <trkpt lat="44.55798" lon="3.7633">
        <ele>1188.9</ele>
        <time>2021-08-09T16:50:06Z</time>
      </trkpt>
      <trkpt lat="44.55798" lon="3.7633">
        <ele>1188.9</ele>
        <time>2021-08-09T16:50:08Z</time>
      </trkpt>
      <trkpt lat="44.55798" lon="3.7633">
        <ele>1188.9</ele>
        <time>2021-08-09T16:50:10Z</time>
      </trkpt>
      <trkpt lat="44.55796" lon="3.76329">
        <ele>1189</ele>
        <time>2021-08-09T16:50:12Z</time>
      </trkpt>
      <trkpt lat="44.55795" lon="3.76329">
        <ele>1189</ele>
        <time>2021-08-09T16:50:14Z</time>
      </trkpt>
      <trkpt lat="44.55795" lon="3.76329">
        <ele>1189</ele>
        <time>2021-08-09T16:50:16Z</time>
      </trkpt>
      <trkpt lat="44.55795" lon="3.76329">
        <ele>1189</ele>
        <time>2021-08-09T16:50:18Z</time>
      </trkpt>
      <trkpt lat="44.55795" lon="3.76329">
        <ele>1189</ele>
        <time>2021-08-09T16:50:20Z</time>
      </trkpt>
      <trkpt lat="44.55795" lon="3.76329">
        <ele>1189</ele>
        <time>2021-08-09T16:50:22Z</time>
      </trkpt>
      <trkpt lat="44.55795" lon="3.76332">
        <ele>1189</ele>
        <time>2021-08-09T16:50:24Z</time>
      </trkpt>
      <trkpt lat="44.55797" lon="3.76332">
        <ele>1188.9</ele>
        <time>2021-08-09T16:50:26Z</time>
      </trkpt>
      <trkpt lat="44.55799" lon="3.76331">
        <ele>1188.9</ele>
        <time>2021-08-09T16:50:28Z</time>
      </trkpt>
      <trkpt lat="44.558" lon="3.76328">
        <ele>1188.9</ele>
        <time>2021-08-09T16:50:30Z</time>
      </trkpt>
      <trkpt lat="44.55802" lon="3.76326">
        <ele>1188.9</ele>
        <time>2021-08-09T16:50:32Z</time>
      </trkpt>
      <trkpt lat="44.55803" lon="3.76324">
        <ele>1189</ele>
        <time>2021-08-09T16:50:34Z</time>
      </trkpt>
      <trkpt lat="44.55803" lon="3.76321">
        <ele>1189</ele>
        <time>2021-08-09T16:50:36Z</time>
      </trkpt>
      <trkpt lat="44.55804" lon="3.76318">
        <ele>1189.1</ele>
        <time>2021-08-09T16:50:38Z</time>
      </trkpt>
      <trkpt lat="44.55803" lon="3.76315">
        <ele>1189.2</ele>
        <time>2021-08-09T16:50:40Z</time>
      </trkpt>
      <trkpt lat="44.55801" lon="3.76311">
        <ele>1189.3</ele>
        <time>2021-08-09T16:50:42Z</time>
      </trkpt>
      <trkpt lat="44.558" lon="3.76307">
        <ele>1189.4</ele>
        <time>2021-08-09T16:50:44Z</time>
      </trkpt>
      <trkpt lat="44.55798" lon="3.76304">
        <ele>1189.5</ele>
        <time>2021-08-09T16:50:46Z</time>
      </trkpt>
      <trkpt lat="44.55796" lon="3.76302">
        <ele>1189.6</ele>
        <time>2021-08-09T16:50:48Z</time>
      </trkpt>
      <trkpt lat="44.55794" lon="3.763">
        <ele>1189.7</ele>
        <time>2021-08-09T16:50:50Z</time>
      </trkpt>
      <trkpt lat="44.55793" lon="3.76297">
        <ele>1189.8</ele>
        <time>2021-08-09T16:50:52Z</time>
      </trkpt>
      <trkpt lat="44.55791" lon="3.76295">
        <ele>1189.9</ele>
        <time>2021-08-09T16:50:54Z</time>
      </trkpt>
      <trkpt lat="44.55788" lon="3.76292">
        <ele>1190.1</ele>
        <time>2021-08-09T16:50:56Z</time>
      </trkpt>
      <trkpt lat="44.55787" lon="3.76288">
        <ele>1190.2</ele>
        <time>2021-08-09T16:50:58Z</time>
      </trkpt>
      <trkpt lat="44.55786" lon="3.76284">
        <ele>1190.3</ele>
        <time>2021-08-09T16:51:00Z</time>
      </trkpt>
      <trkpt lat="44.55783" lon="3.76281">
        <ele>1190.5</ele>
        <time>2021-08-09T16:51:02Z</time>
      </trkpt>
      <trkpt lat="44.55781" lon="3.76278">
        <ele>1190.6</ele>
        <time>2021-08-09T16:51:04Z</time>
      </trkpt>
      <trkpt lat="44.55779" lon="3.76274">
        <ele>1190.7</ele>
        <time>2021-08-09T16:51:06Z</time>
      </trkpt>
      <trkpt lat="44.55777" lon="3.7627">
        <ele>1190.9</ele>
        <time>2021-08-09T16:51:08Z</time>
      </trkpt>
      <trkpt lat="44.55775" lon="3.76267">
        <ele>1191</ele>
        <time>2021-08-09T16:51:10Z</time>
      </trkpt>
      <trkpt lat="44.55772" lon="3.76263">
        <ele>1191.2</ele>
        <time>2021-08-09T16:51:12Z</time>
      </trkpt>
      <trkpt lat="44.5577" lon="3.76259">
        <ele>1191.3</ele>
        <time>2021-08-09T16:51:14Z</time>
      </trkpt>
      <trkpt lat="44.55767" lon="3.76255">
        <ele>1191.5</ele>
        <time>2021-08-09T16:51:16Z</time>
      </trkpt>
      <trkpt lat="44.55765" lon="3.76251">
        <ele>1191.6</ele>
        <time>2021-08-09T16:51:18Z</time>
      </trkpt>
      <trkpt lat="44.55762" lon="3.76246">
        <ele>1191.7</ele>
        <time>2021-08-09T16:51:20Z</time>
      </trkpt>
      <trkpt lat="44.5576" lon="3.76241">
        <ele>1191.9</ele>
        <time>2021-08-09T16:51:22Z</time>
      </trkpt>
      <trkpt lat="44.55758" lon="3.76237">
        <ele>1192</ele>
        <time>2021-08-09T16:51:24Z</time>
      </trkpt>
      <trkpt lat="44.55755" lon="3.76232">
        <ele>1192.1</ele>
        <time>2021-08-09T16:51:26Z</time>
      </trkpt>
      <trkpt lat="44.55753" lon="3.76228">
        <ele>1192.2</ele>
        <time>2021-08-09T16:51:28Z</time>
      </trkpt>
      <trkpt lat="44.55751" lon="3.76223">
        <ele>1192.3</ele>
        <time>2021-08-09T16:51:30Z</time>
      </trkpt>
      <trkpt lat="44.55749" lon="3.76219">
        <ele>1192.4</ele>
        <time>2021-08-09T16:51:32Z</time>
      </trkpt>
      <trkpt lat="44.55747" lon="3.76215">
        <ele>1192.6</ele>
        <time>2021-08-09T16:51:34Z</time>
      </trkpt>
      <trkpt lat="44.55744" lon="3.76211">
        <ele>1192.8</ele>
        <time>2021-08-09T16:51:36Z</time>
      </trkpt>
      <trkpt lat="44.55742" lon="3.76207">
        <ele>1193</ele>
        <time>2021-08-09T16:51:38Z</time>
      </trkpt>
      <trkpt lat="44.5574" lon="3.76202">
        <ele>1193.1</ele>
        <time>2021-08-09T16:51:40Z</time>
      </trkpt>
      <trkpt lat="44.55737" lon="3.76198">
        <ele>1193.3</ele>
        <time>2021-08-09T16:51:42Z</time>
      </trkpt>
      <trkpt lat="44.55735" lon="3.76194">
        <ele>1193.5</ele>
        <time>2021-08-09T16:51:44Z</time>
      </trkpt>
      <trkpt lat="44.55732" lon="3.7619">
        <ele>1193.7</ele>
        <time>2021-08-09T16:51:46Z</time>
      </trkpt>
      <trkpt lat="44.5573" lon="3.76186">
        <ele>1193.9</ele>
        <time>2021-08-09T16:51:48Z</time>
      </trkpt>
      <trkpt lat="44.55728" lon="3.76182">
        <ele>1194.1</ele>
        <time>2021-08-09T16:51:50Z</time>
      </trkpt>
      <trkpt lat="44.55725" lon="3.76178">
        <ele>1194.3</ele>
        <time>2021-08-09T16:51:52Z</time>
      </trkpt>
      <trkpt lat="44.55722" lon="3.76174">
        <ele>1194.5</ele>
        <time>2021-08-09T16:51:54Z</time>
      </trkpt>
      <trkpt lat="44.5572" lon="3.7617">
        <ele>1194.7</ele>
        <time>2021-08-09T16:51:56Z</time>
      </trkpt>
      <trkpt lat="44.55718" lon="3.76165">
        <ele>1195</ele>
        <time>2021-08-09T16:51:58Z</time>
      </trkpt>
      <trkpt lat="44.55715" lon="3.7616">
        <ele>1195.2</ele>
        <time>2021-08-09T16:52:00Z</time>
      </trkpt>
      <trkpt lat="44.55713" lon="3.76155">
        <ele>1195.5</ele>
        <time>2021-08-09T16:52:02Z</time>
      </trkpt>
      <trkpt lat="44.55711" lon="3.7615">
        <ele>1195.7</ele>
        <time>2021-08-09T16:52:04Z</time>
      </trkpt>
      <trkpt lat="44.55709" lon="3.76144">
        <ele>1196</ele>
        <time>2021-08-09T16:52:06Z</time>
      </trkpt>
      <trkpt lat="44.55707" lon="3.76139">
        <ele>1196.2</ele>
        <time>2021-08-09T16:52:08Z</time>
      </trkpt>
      <trkpt lat="44.55705" lon="3.76133">
        <ele>1196.5</ele>
        <time>2021-08-09T16:52:10Z</time>
      </trkpt>
      <trkpt lat="44.55703" lon="3.76127">
        <ele>1196.8</ele>
        <time>2021-08-09T16:52:12Z</time>
      </trkpt>
      <trkpt lat="44.557" lon="3.7612">
        <ele>1197.1</ele>
        <time>2021-08-09T16:52:14Z</time>
      </trkpt>
      <trkpt lat="44.55698" lon="3.76113">
        <ele>1197.4</ele>
        <time>2021-08-09T16:52:16Z</time>
      </trkpt>
      <trkpt lat="44.55695" lon="3.76107">
        <ele>1197.7</ele>
        <time>2021-08-09T16:52:18Z</time>
      </trkpt>
      <trkpt lat="44.55692" lon="3.76102">
        <ele>1198</ele>
        <time>2021-08-09T16:52:20Z</time>
      </trkpt>
      <trkpt lat="44.5564" lon="3.76011">
        <ele>1196.6</ele>
        <time>2021-08-09T16:52:56Z</time>
      </trkpt>
      <trkpt lat="44.55635" lon="3.76005">
        <ele>1196.2</ele>
        <time>2021-08-09T16:52:58Z</time>
      </trkpt>
      <trkpt lat="44.5563" lon="3.75999">
        <ele>1196</ele>
        <time>2021-08-09T16:53:00Z</time>
      </trkpt>
      <trkpt lat="44.55624" lon="3.75993">
        <ele>1195.7</ele>
        <time>2021-08-09T16:53:02Z</time>
      </trkpt>
      <trkpt lat="44.55618" lon="3.75985">
        <ele>1195.5</ele>
        <time>2021-08-09T16:53:04Z</time>
      </trkpt>
      <trkpt lat="44.55611" lon="3.75979">
        <ele>1195.3</ele>
        <time>2021-08-09T16:53:06Z</time>
      </trkpt>
      <trkpt lat="44.55604" lon="3.75975">
        <ele>1195.1</ele>
        <time>2021-08-09T16:53:08Z</time>
      </trkpt>
      <trkpt lat="44.55597" lon="3.75971">
        <ele>1194.9</ele>
        <time>2021-08-09T16:53:10Z</time>
      </trkpt>
      <trkpt lat="44.55591" lon="3.75968">
        <ele>1194.8</ele>
        <time>2021-08-09T16:53:12Z</time>
      </trkpt>
      <trkpt lat="44.55585" lon="3.75965">
        <ele>1194.7</ele>
        <time>2021-08-09T16:53:14Z</time>
      </trkpt>
      <trkpt lat="44.55581" lon="3.75963">
        <ele>1194.6</ele>
        <time>2021-08-09T16:53:16Z</time>
      </trkpt>
      <trkpt lat="44.55576" lon="3.7596">
        <ele>1194.4</ele>
        <time>2021-08-09T16:53:18Z</time>
      </trkpt>
      <trkpt lat="44.55575" lon="3.7596">
        <ele>1194.3</ele>
        <time>2021-08-09T16:53:20Z</time>
      </trkpt>
      <trkpt lat="44.55574" lon="3.75958">
        <ele>1194.3</ele>
        <time>2021-08-09T16:53:22Z</time>
      </trkpt>
      <trkpt lat="44.55574" lon="3.75958">
        <ele>1194.3</ele>
        <time>2021-08-09T16:53:24Z</time>
      </trkpt>
      <trkpt lat="44.55574" lon="3.75958">
        <ele>1194.3</ele>
        <time>2021-08-09T16:53:26Z</time>
      </trkpt>
      <trkpt lat="44.55574" lon="3.75958">
        <ele>1194.3</ele>
        <time>2021-08-09T16:53:28Z</time>
      </trkpt>
      <trkpt lat="44.55574" lon="3.75958">
        <ele>1194.3</ele>
        <time>2021-08-09T16:56:08Z</time>
      </trkpt>
      <trkpt lat="44.55576" lon="3.75959">
        <ele>1194.4</ele>
        <time>2021-08-09T16:56:10Z</time>
      </trkpt>
      <trkpt lat="44.55579" lon="3.75961">
        <ele>1194.5</ele>
        <time>2021-08-09T16:56:12Z</time>
      </trkpt>
      <trkpt lat="44.55581" lon="3.75963">
        <ele>1194.6</ele>
        <time>2021-08-09T16:56:14Z</time>
      </trkpt>
      <trkpt lat="44.55584" lon="3.75965">
        <ele>1194.7</ele>
        <time>2021-08-09T16:56:16Z</time>
      </trkpt>
      <trkpt lat="44.55587" lon="3.75966">
        <ele>1194.8</ele>
        <time>2021-08-09T16:56:18Z</time>
      </trkpt>
      <trkpt lat="44.5559" lon="3.75967">
        <ele>1194.8</ele>
        <time>2021-08-09T16:56:20Z</time>
      </trkpt>
      <trkpt lat="44.55592" lon="3.75968">
        <ele>1194.9</ele>
        <time>2021-08-09T16:56:22Z</time>
      </trkpt>
      <trkpt lat="44.55594" lon="3.7597">
        <ele>1194.9</ele>
        <time>2021-08-09T16:56:24Z</time>
      </trkpt>
      <trkpt lat="44.55597" lon="3.75971">
        <ele>1195</ele>
        <time>2021-08-09T16:56:26Z</time>
      </trkpt>
      <trkpt lat="44.55599" lon="3.75972">
        <ele>1195</ele>
        <time>2021-08-09T16:56:28Z</time>
      </trkpt>
      <trkpt lat="44.556" lon="3.75971">
        <ele>1194.9</ele>
        <time>2021-08-09T16:56:30Z</time>
      </trkpt>
      <trkpt lat="44.55599" lon="3.75971">
        <ele>1195</ele>
        <time>2021-08-09T16:56:32Z</time>
      </trkpt>
      <trkpt lat="44.55599" lon="3.75971">
        <ele>1195</ele>
        <time>2021-08-09T16:56:34Z</time>
      </trkpt>
      <trkpt lat="44.55599" lon="3.75971">
        <ele>1195</ele>
        <time>2021-08-09T16:56:36Z</time>
      </trkpt>
      <trkpt lat="44.55612" lon="3.7598">
        <ele>1195.3</ele>
        <time>2021-08-09T17:03:22Z</time>
      </trkpt>
      <trkpt lat="44.55614" lon="3.75982">
        <ele>1195.4</ele>
        <time>2021-08-09T17:03:24Z</time>
      </trkpt>
      <trkpt lat="44.55616" lon="3.75985">
        <ele>1195.5</ele>
        <time>2021-08-09T17:03:26Z</time>
      </trkpt>
      <trkpt lat="44.55619" lon="3.75987">
        <ele>1195.5</ele>
        <time>2021-08-09T17:03:28Z</time>
      </trkpt>
      <trkpt lat="44.55622" lon="3.7599">
        <ele>1195.6</ele>
        <time>2021-08-09T17:03:30Z</time>
      </trkpt>
      <trkpt lat="44.55624" lon="3.75993">
        <ele>1195.7</ele>
        <time>2021-08-09T17:03:32Z</time>
      </trkpt>
      <trkpt lat="44.55626" lon="3.75995">
        <ele>1195.8</ele>
        <time>2021-08-09T17:03:34Z</time>
      </trkpt>
      <trkpt lat="44.55629" lon="3.75998">
        <ele>1195.9</ele>
        <time>2021-08-09T17:03:36Z</time>
      </trkpt>
      <trkpt lat="44.55631" lon="3.76001">
        <ele>1196.1</ele>
        <time>2021-08-09T17:03:38Z</time>
      </trkpt>
      <trkpt lat="44.55634" lon="3.76004">
        <ele>1196.2</ele>
        <time>2021-08-09T17:03:40Z</time>
      </trkpt>
      <trkpt lat="44.55636" lon="3.76006">
        <ele>1196.3</ele>
        <time>2021-08-09T17:03:42Z</time>
      </trkpt>
      <trkpt lat="44.55638" lon="3.76008">
        <ele>1196.4</ele>
        <time>2021-08-09T17:03:44Z</time>
      </trkpt>
      <trkpt lat="44.5564" lon="3.76011">
        <ele>1196.6</ele>
        <time>2021-08-09T17:03:46Z</time>
      </trkpt>
      <trkpt lat="44.55642" lon="3.76013">
        <ele>1196.7</ele>
        <time>2021-08-09T17:03:48Z</time>
      </trkpt>
      <trkpt lat="44.55645" lon="3.76016">
        <ele>1196.8</ele>
        <time>2021-08-09T17:03:50Z</time>
      </trkpt>
      <trkpt lat="44.55647" lon="3.76019">
        <ele>1197</ele>
        <time>2021-08-09T17:03:52Z</time>
      </trkpt>
      <trkpt lat="44.55649" lon="3.76022">
        <ele>1197.1</ele>
        <time>2021-08-09T17:03:54Z</time>
      </trkpt>
      <trkpt lat="44.55651" lon="3.76025">
        <ele>1197.2</ele>
        <time>2021-08-09T17:03:56Z</time>
      </trkpt>
      <trkpt lat="44.55653" lon="3.76028">
        <ele>1197.4</ele>
        <time>2021-08-09T17:03:58Z</time>
      </trkpt>
      <trkpt lat="44.55655" lon="3.76031">
        <ele>1197.5</ele>
        <time>2021-08-09T17:04:00Z</time>
      </trkpt>
      <trkpt lat="44.55658" lon="3.76034">
        <ele>1197.7</ele>
        <time>2021-08-09T17:04:02Z</time>
      </trkpt>
      <trkpt lat="44.55659" lon="3.76038">
        <ele>1197.9</ele>
        <time>2021-08-09T17:04:04Z</time>
      </trkpt>
      <trkpt lat="44.55662" lon="3.76041">
        <ele>1198</ele>
        <time>2021-08-09T17:04:06Z</time>
      </trkpt>
      <trkpt lat="44.55664" lon="3.76044">
        <ele>1198.1</ele>
        <time>2021-08-09T17:04:08Z</time>
      </trkpt>
      <trkpt lat="44.55665" lon="3.76047">
        <ele>1198.3</ele>
        <time>2021-08-09T17:04:10Z</time>
      </trkpt>
      <trkpt lat="44.55667" lon="3.76047">
        <ele>1198.2</ele>
        <time>2021-08-09T17:04:12Z</time>
      </trkpt>
      <trkpt lat="44.55667" lon="3.76046">
        <ele>1198.2</ele>
        <time>2021-08-09T17:04:14Z</time>
      </trkpt>
      <trkpt lat="44.55667" lon="3.76046">
        <ele>1198.2</ele>
        <time>2021-08-09T17:04:16Z</time>
      </trkpt>
      <trkpt lat="44.55667" lon="3.76046">
        <ele>1198.2</ele>
        <time>2021-08-09T17:04:18Z</time>
      </trkpt>
      <trkpt lat="44.55667" lon="3.76046">
        <ele>1198.2</ele>
        <time>2021-08-09T17:04:20Z</time>
      </trkpt>
      <trkpt lat="44.55668" lon="3.76032">
        <ele>1197.5</ele>
        <time>2021-08-09T17:10:44Z</time>
      </trkpt>
      <trkpt lat="44.55668" lon="3.76032">
        <ele>1197.5</ele>
        <time>2021-08-09T17:10:48Z</time>
      </trkpt>
      <trkpt lat="44.55668" lon="3.76032">
        <ele>1197.5</ele>
        <time>2021-08-09T17:10:52Z</time>
      </trkpt>
      <trkpt lat="44.55668" lon="3.76032">
        <ele>1197.5</ele>
        <time>2021-08-09T17:10:56Z</time>
      </trkpt>
      <trkpt lat="44.55668" lon="3.76032">
        <ele>1197.5</ele>
        <time>2021-08-09T17:11:00Z</time>
      </trkpt>
      <trkpt lat="44.55668" lon="3.76032">
        <ele>1197.5</ele>
        <time>2021-08-09T17:11:04Z</time>
      </trkpt>
      <trkpt lat="44.55668" lon="3.76032">
        <ele>1197.5</ele>
        <time>2021-08-09T17:11:06Z</time>
      </trkpt>
      <trkpt lat="44.55668" lon="3.7603">
        <ele>1197.4</ele>
        <time>2021-08-09T17:11:08Z</time>
      </trkpt>
      <trkpt lat="44.55668" lon="3.76031">
        <ele>1197.5</ele>
        <time>2021-08-09T17:11:10Z</time>
      </trkpt>
      <trkpt lat="44.55668" lon="3.76031">
        <ele>1197.5</ele>
        <time>2021-08-09T17:11:12Z</time>
      </trkpt>
    </trkseg>
      <trkpt lat="44.55647" lon="3.76016">
        <ele>1196.8</ele>
        <time>2021-08-10T07:15:24Z</time>
      </trkpt>
      <trkpt lat="44.55643" lon="3.76012">
        <ele>1196.6</ele>
        <time>2021-08-10T07:15:26Z</time>
      </trkpt>
      <trkpt lat="44.5564" lon="3.76007">
        <ele>1196.3</ele>
        <time>2021-08-10T07:15:28Z</time>
      </trkpt>
      <trkpt lat="44.55635" lon="3.76001">
        <ele>1196.1</ele>
        <time>2021-08-10T07:15:30Z</time>
      </trkpt>
      <trkpt lat="44.5563" lon="3.75996">
        <ele>1195.8</ele>
        <time>2021-08-10T07:15:32Z</time>
      </trkpt>
      <trkpt lat="44.55624" lon="3.75989">
        <ele>1195.6</ele>
        <time>2021-08-10T07:15:34Z</time>
      </trkpt>
      <trkpt lat="44.55618" lon="3.75981">
        <ele>1195.3</ele>
        <time>2021-08-10T07:15:36Z</time>
      </trkpt>
      <trkpt lat="44.55609" lon="3.75974">
        <ele>1195</ele>
        <time>2021-08-10T07:15:38Z</time>
      </trkpt>
      <trkpt lat="44.55599" lon="3.75967">
        <ele>1194.8</ele>
        <time>2021-08-10T07:15:40Z</time>
      </trkpt>
      <trkpt lat="44.55588" lon="3.75963">
        <ele>1194.7</ele>
        <time>2021-08-10T07:15:42Z</time>
      </trkpt>
      <trkpt lat="44.55578" lon="3.75957">
        <ele>1194.3</ele>
        <time>2021-08-10T07:15:44Z</time>
      </trkpt>
      <trkpt lat="44.55568" lon="3.75951">
        <ele>1194</ele>
        <time>2021-08-10T07:15:46Z</time>
      </trkpt>
      <trkpt lat="44.55559" lon="3.75942">
        <ele>1193.7</ele>
        <time>2021-08-10T07:15:48Z</time>
      </trkpt>
      <trkpt lat="44.55552" lon="3.75934">
        <ele>1193.5</ele>
        <time>2021-08-10T07:15:50Z</time>
      </trkpt>
      <trkpt lat="44.55546" lon="3.75924">
        <ele>1193.5</ele>
        <time>2021-08-10T07:15:52Z</time>
      </trkpt>
      <trkpt lat="44.5554" lon="3.75915">
        <ele>1193.5</ele>
        <time>2021-08-10T07:15:54Z</time>
      </trkpt>
      <trkpt lat="44.55535" lon="3.75909">
        <ele>1193.7</ele>
        <time>2021-08-10T07:15:56Z</time>
      </trkpt>
      <trkpt lat="44.5553" lon="3.75904">
        <ele>1193.8</ele>
        <time>2021-08-10T07:15:58Z</time>
      </trkpt>
      <trkpt lat="44.55525" lon="3.75897">
        <ele>1194</ele>
        <time>2021-08-10T07:16:00Z</time>
      </trkpt>
      <trkpt lat="44.5552" lon="3.75891">
        <ele>1194.2</ele>
        <time>2021-08-10T07:16:02Z</time>
      </trkpt>
      <trkpt lat="44.55515" lon="3.75887">
        <ele>1194.4</ele>
        <time>2021-08-10T07:16:04Z</time>
      </trkpt>
      <trkpt lat="44.55509" lon="3.75882">
        <ele>1194.6</ele>
        <time>2021-08-10T07:16:06Z</time>
      </trkpt>
      <trkpt lat="44.55505" lon="3.75877">
        <ele>1194.8</ele>
        <time>2021-08-10T07:16:08Z</time>
      </trkpt>
      <trkpt lat="44.55501" lon="3.75873">
        <ele>1195</ele>
        <time>2021-08-10T07:16:10Z</time>
      </trkpt>
      <trkpt lat="44.55498" lon="3.75869">
        <ele>1195.4</ele>
        <time>2021-08-10T07:16:12Z</time>
      </trkpt>
      <trkpt lat="44.55494" lon="3.75866">
        <ele>1195.8</ele>
        <time>2021-08-10T07:16:14Z</time>
      </trkpt>
      <trkpt lat="44.55491" lon="3.75863">
        <ele>1196.2</ele>
        <time>2021-08-10T07:16:16Z</time>
      </trkpt>
      <trkpt lat="44.55488" lon="3.7586">
        <ele>1196.7</ele>
        <time>2021-08-10T07:16:18Z</time>
      </trkpt>
      <trkpt lat="44.55484" lon="3.75857">
        <ele>1197.1</ele>
        <time>2021-08-10T07:16:20Z</time>
      </trkpt>
      <trkpt lat="44.5548" lon="3.75854">
        <ele>1197.7</ele>
        <time>2021-08-10T07:16:22Z</time>
      </trkpt>
      <trkpt lat="44.55476" lon="3.75851">
        <ele>1198.1</ele>
        <time>2021-08-10T07:16:24Z</time>
      </trkpt>
      <trkpt lat="44.55473" lon="3.75848">
        <ele>1198.6</ele>
        <time>2021-08-10T07:16:26Z</time>
      </trkpt>
      <trkpt lat="44.5547" lon="3.75845">
        <ele>1199</ele>
        <time>2021-08-10T07:16:28Z</time>
      </trkpt>
      <trkpt lat="44.55466" lon="3.75843">
        <ele>1199.4</ele>
        <time>2021-08-10T07:16:30Z</time>
      </trkpt>
      <trkpt lat="44.55463" lon="3.7584">
        <ele>1199.8</ele>
        <time>2021-08-10T07:16:32Z</time>
      </trkpt>
      <trkpt lat="44.5546" lon="3.75837">
        <ele>1200.3</ele>
        <time>2021-08-10T07:16:34Z</time>
      </trkpt>
      <trkpt lat="44.55457" lon="3.75834">
        <ele>1200.7</ele>
        <time>2021-08-10T07:16:36Z</time>
      </trkpt>
      <trkpt lat="44.55453" lon="3.75832">
        <ele>1201</ele>
        <time>2021-08-10T07:16:38Z</time>
      </trkpt>
      <trkpt lat="44.5545" lon="3.75829">
        <ele>1201.4</ele>
        <time>2021-08-10T07:16:40Z</time>
      </trkpt>
      <trkpt lat="44.55447" lon="3.75827">
        <ele>1201.7</ele>
        <time>2021-08-10T07:16:42Z</time>
      </trkpt>
      <trkpt lat="44.55443" lon="3.75825">
        <ele>1202.1</ele>
        <time>2021-08-10T07:16:44Z</time>
      </trkpt>
      <trkpt lat="44.5544" lon="3.75822">
        <ele>1202.5</ele>
        <time>2021-08-10T07:16:46Z</time>
      </trkpt>
      <trkpt lat="44.55437" lon="3.7582">
        <ele>1202.8</ele>
        <time>2021-08-10T07:16:48Z</time>
      </trkpt>
      <trkpt lat="44.55434" lon="3.75817">
        <ele>1203.1</ele>
        <time>2021-08-10T07:16:50Z</time>
      </trkpt>
      <trkpt lat="44.5543" lon="3.75814">
        <ele>1203.4</ele>
        <time>2021-08-10T07:16:52Z</time>
      </trkpt>
      <trkpt lat="44.55427" lon="3.75812">
        <ele>1203.7</ele>
        <time>2021-08-10T07:16:54Z</time>
      </trkpt>
      <trkpt lat="44.55424" lon="3.75809">
        <ele>1203.9</ele>
        <time>2021-08-10T07:16:56Z</time>
      </trkpt>
      <trkpt lat="44.55421" lon="3.75807">
        <ele>1204.3</ele>
        <time>2021-08-10T07:16:58Z</time>
      </trkpt>
      <trkpt lat="44.55418" lon="3.75804">
        <ele>1204.5</ele>
        <time>2021-08-10T07:17:00Z</time>
      </trkpt>
      <trkpt lat="44.55416" lon="3.75802">
        <ele>1204.7</ele>
        <time>2021-08-10T07:17:02Z</time>
      </trkpt>
      <trkpt lat="44.55413" lon="3.75799">
        <ele>1204.8</ele>
        <time>2021-08-10T07:17:04Z</time>
      </trkpt>
      <trkpt lat="44.5541" lon="3.75796">
        <ele>1204.9</ele>
        <time>2021-08-10T07:17:06Z</time>
      </trkpt>
      <trkpt lat="44.55407" lon="3.75793">
        <ele>1205.1</ele>
        <time>2021-08-10T07:17:08Z</time>
      </trkpt>
      <trkpt lat="44.55404" lon="3.7579">
        <ele>1205.3</ele>
        <time>2021-08-10T07:17:10Z</time>
      </trkpt>
      <trkpt lat="44.55401" lon="3.75787">
        <ele>1205.4</ele>
        <time>2021-08-10T07:17:12Z</time>
      </trkpt>
      <trkpt lat="44.55398" lon="3.75784">
        <ele>1205.7</ele>
        <time>2021-08-10T07:17:14Z</time>
      </trkpt>
      <trkpt lat="44.55395" lon="3.75781">
        <ele>1205.9</ele>
        <time>2021-08-10T07:17:16Z</time>
      </trkpt>
      <trkpt lat="44.55392" lon="3.75778">
        <ele>1206.1</ele>
        <time>2021-08-10T07:17:18Z</time>
      </trkpt>
      <trkpt lat="44.55389" lon="3.75775">
        <ele>1206.4</ele>
        <time>2021-08-10T07:17:20Z</time>
      </trkpt>
      <trkpt lat="44.55386" lon="3.75773">
        <ele>1206.6</ele>
        <time>2021-08-10T07:17:22Z</time>
      </trkpt>
      <trkpt lat="44.55383" lon="3.75769">
        <ele>1206.9</ele>
        <time>2021-08-10T07:17:24Z</time>
      </trkpt>
      <trkpt lat="44.5538" lon="3.75767">
        <ele>1207.2</ele>
        <time>2021-08-10T07:17:26Z</time>
      </trkpt>
      <trkpt lat="44.55377" lon="3.75764">
        <ele>1207.5</ele>
        <time>2021-08-10T07:17:28Z</time>
      </trkpt>
      <trkpt lat="44.55374" lon="3.75761">
        <ele>1207.8</ele>
        <time>2021-08-10T07:17:30Z</time>
      </trkpt>
      <trkpt lat="44.55372" lon="3.75757">
        <ele>1208.1</ele>
        <time>2021-08-10T07:17:32Z</time>
      </trkpt>
      <trkpt lat="44.55369" lon="3.75754">
        <ele>1208.5</ele>
        <time>2021-08-10T07:17:34Z</time>
      </trkpt>
      <trkpt lat="44.55366" lon="3.75751">
        <ele>1208.8</ele>
        <time>2021-08-10T07:17:36Z</time>
      </trkpt>
      <trkpt lat="44.55363" lon="3.75747">
        <ele>1209.2</ele>
        <time>2021-08-10T07:17:38Z</time>
      </trkpt>
      <trkpt lat="44.55361" lon="3.75744">
        <ele>1209.6</ele>
        <time>2021-08-10T07:17:40Z</time>
      </trkpt>
      <trkpt lat="44.55358" lon="3.75741">
        <ele>1210</ele>
        <time>2021-08-10T07:17:42Z</time>
      </trkpt>
      <trkpt lat="44.55356" lon="3.75737">
        <ele>1210.4</ele>
        <time>2021-08-10T07:17:44Z</time>
      </trkpt>
      <trkpt lat="44.55353" lon="3.75734">
        <ele>1210.8</ele>
        <time>2021-08-10T07:17:46Z</time>
      </trkpt>
      <trkpt lat="44.5535" lon="3.75731">
        <ele>1211.2</ele>
        <time>2021-08-10T07:17:48Z</time>
      </trkpt>
      <trkpt lat="44.55347" lon="3.75728">
        <ele>1211.5</ele>
        <time>2021-08-10T07:17:50Z</time>
      </trkpt>
      <trkpt lat="44.55344" lon="3.75725">
        <ele>1211.9</ele>
        <time>2021-08-10T07:17:52Z</time>
      </trkpt>
      <trkpt lat="44.55342" lon="3.75721">
        <ele>1212.3</ele>
        <time>2021-08-10T07:17:54Z</time>
      </trkpt>
      <trkpt lat="44.55339" lon="3.75719">
        <ele>1212.7</ele>
        <time>2021-08-10T07:17:56Z</time>
      </trkpt>
      <trkpt lat="44.55336" lon="3.75716">
        <ele>1213</ele>
        <time>2021-08-10T07:17:58Z</time>
      </trkpt>
      <trkpt lat="44.55333" lon="3.75712">
        <ele>1213.4</ele>
        <time>2021-08-10T07:18:00Z</time>
      </trkpt>
      <trkpt lat="44.5533" lon="3.75709">
        <ele>1213.5</ele>
        <time>2021-08-10T07:18:02Z</time>
      </trkpt>
      <trkpt lat="44.55328" lon="3.75706">
        <ele>1213.7</ele>
        <time>2021-08-10T07:18:04Z</time>
      </trkpt>
      <trkpt lat="44.55325" lon="3.75704">
        <ele>1213.8</ele>
        <time>2021-08-10T07:18:06Z</time>
      </trkpt>
      <trkpt lat="44.55322" lon="3.75701">
        <ele>1214</ele>
        <time>2021-08-10T07:18:08Z</time>
      </trkpt>
      <trkpt lat="44.55319" lon="3.75699">
        <ele>1214.1</ele>
        <time>2021-08-10T07:18:10Z</time>
      </trkpt>
      <trkpt lat="44.55316" lon="3.75696">
        <ele>1214.3</ele>
        <time>2021-08-10T07:18:12Z</time>
      </trkpt>
      <trkpt lat="44.55312" lon="3.75692">
        <ele>1214.5</ele>
        <time>2021-08-10T07:18:14Z</time>
      </trkpt>
      <trkpt lat="44.55309" lon="3.75689">
        <ele>1214.7</ele>
        <time>2021-08-10T07:18:16Z</time>
      </trkpt>
      <trkpt lat="44.55306" lon="3.75686">
        <ele>1214.9</ele>
        <time>2021-08-10T07:18:18Z</time>
      </trkpt>
      <trkpt lat="44.55303" lon="3.75683">
        <ele>1215.1</ele>
        <time>2021-08-10T07:18:20Z</time>
      </trkpt>
      <trkpt lat="44.55301" lon="3.75679">
        <ele>1215.3</ele>
        <time>2021-08-10T07:18:22Z</time>
      </trkpt>
      <trkpt lat="44.55299" lon="3.75675">
        <ele>1215.5</ele>
        <time>2021-08-10T07:18:24Z</time>
      </trkpt>
      <trkpt lat="44.55296" lon="3.7567">
        <ele>1215.8</ele>
        <time>2021-08-10T07:18:26Z</time>
      </trkpt>
      <trkpt lat="44.55293" lon="3.75665">
        <ele>1216.1</ele>
        <time>2021-08-10T07:18:28Z</time>
      </trkpt>
      <trkpt lat="44.55289" lon="3.75661">
        <ele>1216.6</ele>
        <time>2021-08-10T07:18:30Z</time>
      </trkpt>
      <trkpt lat="44.55286" lon="3.75659">
        <ele>1216.9</ele>
        <time>2021-08-10T07:18:32Z</time>
      </trkpt>
      <trkpt lat="44.55282" lon="3.75657">
        <ele>1217.2</ele>
        <time>2021-08-10T07:18:34Z</time>
      </trkpt>
      <trkpt lat="44.55278" lon="3.75656">
        <ele>1217.4</ele>
        <time>2021-08-10T07:18:36Z</time>
      </trkpt>
      <trkpt lat="44.55275" lon="3.75654">
        <ele>1217.7</ele>
        <time>2021-08-10T07:18:38Z</time>
      </trkpt>
      <trkpt lat="44.55271" lon="3.75652">
        <ele>1217.9</ele>
        <time>2021-08-10T07:18:40Z</time>
      </trkpt>
      <trkpt lat="44.55268" lon="3.75651">
        <ele>1218.1</ele>
        <time>2021-08-10T07:18:42Z</time>
      </trkpt>
      <trkpt lat="44.55265" lon="3.7565">
        <ele>1218.4</ele>
        <time>2021-08-10T07:18:44Z</time>
      </trkpt>
      <trkpt lat="44.55262" lon="3.75648">
        <ele>1218.7</ele>
        <time>2021-08-10T07:18:46Z</time>
      </trkpt>
      <trkpt lat="44.55259" lon="3.75647">
        <ele>1218.9</ele>
        <time>2021-08-10T07:18:48Z</time>
      </trkpt>
      <trkpt lat="44.55255" lon="3.75646">
        <ele>1219.1</ele>
        <time>2021-08-10T07:18:50Z</time>
      </trkpt>
      <trkpt lat="44.55252" lon="3.75644">
        <ele>1219.4</ele>
        <time>2021-08-10T07:18:52Z</time>
      </trkpt>
      <trkpt lat="44.55249" lon="3.75642">
        <ele>1219.6</ele>
        <time>2021-08-10T07:18:54Z</time>
      </trkpt>
      <trkpt lat="44.55246" lon="3.7564">
        <ele>1219.7</ele>
        <time>2021-08-10T07:18:56Z</time>
      </trkpt>
      <trkpt lat="44.55243" lon="3.75639">
        <ele>1219.7</ele>
        <time>2021-08-10T07:18:58Z</time>
      </trkpt>
      <trkpt lat="44.5524" lon="3.75638">
        <ele>1219.6</ele>
        <time>2021-08-10T07:19:00Z</time>
      </trkpt>
      <trkpt lat="44.55236" lon="3.75636">
        <ele>1219.6</ele>
        <time>2021-08-10T07:19:02Z</time>
      </trkpt>
      <trkpt lat="44.55233" lon="3.75634">
        <ele>1219.7</ele>
        <time>2021-08-10T07:19:04Z</time>
      </trkpt>
      <trkpt lat="44.55229" lon="3.75632">
        <ele>1219.7</ele>
        <time>2021-08-10T07:19:06Z</time>
      </trkpt>
      <trkpt lat="44.55225" lon="3.75631">
        <ele>1219.7</ele>
        <time>2021-08-10T07:19:08Z</time>
      </trkpt>
      <trkpt lat="44.55222" lon="3.75629">
        <ele>1219.7</ele>
        <time>2021-08-10T07:19:10Z</time>
      </trkpt>
      <trkpt lat="44.55218" lon="3.75628">
        <ele>1219.7</ele>
        <time>2021-08-10T07:19:12Z</time>
      </trkpt>
      <trkpt lat="44.55214" lon="3.75625">
        <ele>1219.7</ele>
        <time>2021-08-10T07:19:14Z</time>
      </trkpt>
      <trkpt lat="44.5521" lon="3.75624">
        <ele>1219.7</ele>
        <time>2021-08-10T07:19:16Z</time>
      </trkpt>
      <trkpt lat="44.55207" lon="3.75622">
        <ele>1219.7</ele>
        <time>2021-08-10T07:19:18Z</time>
      </trkpt>
      <trkpt lat="44.55203" lon="3.7562">
        <ele>1219.8</ele>
        <time>2021-08-10T07:19:20Z</time>
      </trkpt>
      <trkpt lat="44.55198" lon="3.75618">
        <ele>1219.8</ele>
        <time>2021-08-10T07:19:22Z</time>
      </trkpt>
      <trkpt lat="44.55194" lon="3.75617">
        <ele>1219.7</ele>
        <time>2021-08-10T07:19:24Z</time>
      </trkpt>
      <trkpt lat="44.5519" lon="3.75615">
        <ele>1219.7</ele>
        <time>2021-08-10T07:19:26Z</time>
      </trkpt>
      <trkpt lat="44.55186" lon="3.75612">
        <ele>1219.8</ele>
        <time>2021-08-10T07:19:28Z</time>
      </trkpt>
      <trkpt lat="44.55182" lon="3.7561">
        <ele>1219.8</ele>
        <time>2021-08-10T07:19:30Z</time>
      </trkpt>
      <trkpt lat="44.55178" lon="3.75609">
        <ele>1219.8</ele>
        <time>2021-08-10T07:19:32Z</time>
      </trkpt>
      <trkpt lat="44.55174" lon="3.75607">
        <ele>1219.8</ele>
        <time>2021-08-10T07:19:34Z</time>
      </trkpt>
      <trkpt lat="44.5517" lon="3.75606">
        <ele>1219.8</ele>
        <time>2021-08-10T07:19:36Z</time>
      </trkpt>
      <trkpt lat="44.55166" lon="3.75604">
        <ele>1219.7</ele>
        <time>2021-08-10T07:19:38Z</time>
      </trkpt>
      <trkpt lat="44.55162" lon="3.75601">
        <ele>1219.8</ele>
        <time>2021-08-10T07:19:40Z</time>
      </trkpt>
      <trkpt lat="44.55158" lon="3.75599">
        <ele>1219.7</ele>
        <time>2021-08-10T07:19:42Z</time>
      </trkpt>
      <trkpt lat="44.55154" lon="3.75595">
        <ele>1219.8</ele>
        <time>2021-08-10T07:19:44Z</time>
      </trkpt>
      <trkpt lat="44.55151" lon="3.75589">
        <ele>1220.3</ele>
        <time>2021-08-10T07:19:46Z</time>
      </trkpt>
      <trkpt lat="44.55149" lon="3.75584">
        <ele>1220.7</ele>
        <time>2021-08-10T07:19:48Z</time>
      </trkpt>
      <trkpt lat="44.55148" lon="3.75578">
        <ele>1221</ele>
        <time>2021-08-10T07:19:50Z</time>
      </trkpt>
      <trkpt lat="44.55148" lon="3.75572">
        <ele>1221.4</ele>
        <time>2021-08-10T07:19:52Z</time>
      </trkpt>
      <trkpt lat="44.55148" lon="3.75566">
        <ele>1221.8</ele>
        <time>2021-08-10T07:19:54Z</time>
      </trkpt>
      <trkpt lat="44.55148" lon="3.75561">
        <ele>1222.2</ele>
        <time>2021-08-10T07:19:56Z</time>
      </trkpt>
      <trkpt lat="44.55148" lon="3.75556">
        <ele>1222.6</ele>
        <time>2021-08-10T07:19:58Z</time>
      </trkpt>
      <trkpt lat="44.55148" lon="3.7555">
        <ele>1222.9</ele>
        <time>2021-08-10T07:20:00Z</time>
      </trkpt>
      <trkpt lat="44.55148" lon="3.75545">
        <ele>1223.3</ele>
        <time>2021-08-10T07:20:02Z</time>
      </trkpt>
      <trkpt lat="44.55148" lon="3.7554">
        <ele>1223.7</ele>
        <time>2021-08-10T07:20:04Z</time>
      </trkpt>
      <trkpt lat="44.55148" lon="3.75535">
        <ele>1224.1</ele>
        <time>2021-08-10T07:20:06Z</time>
      </trkpt>
      <trkpt lat="44.55148" lon="3.7553">
        <ele>1224.4</ele>
        <time>2021-08-10T07:20:08Z</time>
      </trkpt>
      <trkpt lat="44.55148" lon="3.75524">
        <ele>1224.8</ele>
        <time>2021-08-10T07:20:10Z</time>
      </trkpt>
      <trkpt lat="44.55148" lon="3.75519">
        <ele>1225.2</ele>
        <time>2021-08-10T07:20:12Z</time>
      </trkpt>
      <trkpt lat="44.55147" lon="3.75514">
        <ele>1225.5</ele>
        <time>2021-08-10T07:20:14Z</time>
      </trkpt>
      <trkpt lat="44.55147" lon="3.75509">
        <ele>1225.8</ele>
        <time>2021-08-10T07:20:16Z</time>
      </trkpt>
      <trkpt lat="44.55147" lon="3.75503">
        <ele>1226.2</ele>
        <time>2021-08-10T07:20:18Z</time>
      </trkpt>
      <trkpt lat="44.55147" lon="3.75498">
        <ele>1226.6</ele>
        <time>2021-08-10T07:20:20Z</time>
      </trkpt>
      <trkpt lat="44.55147" lon="3.75492">
        <ele>1227</ele>
        <time>2021-08-10T07:20:22Z</time>
      </trkpt>
      <trkpt lat="44.55147" lon="3.75487">
        <ele>1227.3</ele>
        <time>2021-08-10T07:20:24Z</time>
      </trkpt>
      <trkpt lat="44.55148" lon="3.75481">
        <ele>1227.7</ele>
        <time>2021-08-10T07:20:26Z</time>
      </trkpt>
      <trkpt lat="44.55148" lon="3.75476">
        <ele>1228.1</ele>
        <time>2021-08-10T07:20:28Z</time>
      </trkpt>
      <trkpt lat="44.55148" lon="3.75471">
        <ele>1228.4</ele>
        <time>2021-08-10T07:20:30Z</time>
      </trkpt>
      <trkpt lat="44.55147" lon="3.75466">
        <ele>1228.7</ele>
        <time>2021-08-10T07:20:32Z</time>
      </trkpt>
      <trkpt lat="44.55148" lon="3.75461">
        <ele>1229</ele>
        <time>2021-08-10T07:20:34Z</time>
      </trkpt>
      <trkpt lat="44.55147" lon="3.75456">
        <ele>1229.3</ele>
        <time>2021-08-10T07:20:36Z</time>
      </trkpt>
      <trkpt lat="44.55147" lon="3.7545">
        <ele>1229.6</ele>
        <time>2021-08-10T07:20:38Z</time>
      </trkpt>
      <trkpt lat="44.55147" lon="3.75445">
        <ele>1229.9</ele>
        <time>2021-08-10T07:20:40Z</time>
      </trkpt>
      <trkpt lat="44.55147" lon="3.75439">
        <ele>1230.2</ele>
        <time>2021-08-10T07:20:42Z</time>
      </trkpt>
      <trkpt lat="44.55147" lon="3.75434">
        <ele>1230.6</ele>
        <time>2021-08-10T07:20:44Z</time>
      </trkpt>
      <trkpt lat="44.55147" lon="3.75429">
        <ele>1231</ele>
        <time>2021-08-10T07:20:46Z</time>
      </trkpt>
      <trkpt lat="44.55147" lon="3.75423">
        <ele>1231.3</ele>
        <time>2021-08-10T07:20:48Z</time>
      </trkpt>
      <trkpt lat="44.55147" lon="3.75418">
        <ele>1231.7</ele>
        <time>2021-08-10T07:20:50Z</time>
      </trkpt>
      <trkpt lat="44.55147" lon="3.75412">
        <ele>1232.2</ele>
        <time>2021-08-10T07:20:52Z</time>
      </trkpt>
      <trkpt lat="44.55148" lon="3.75407">
        <ele>1232.8</ele>
        <time>2021-08-10T07:20:54Z</time>
      </trkpt>
      <trkpt lat="44.55148" lon="3.75402">
        <ele>1233.3</ele>
        <time>2021-08-10T07:20:56Z</time>
      </trkpt>
      <trkpt lat="44.55149" lon="3.75396">
        <ele>1233.9</ele>
        <time>2021-08-10T07:20:58Z</time>
      </trkpt>
      <trkpt lat="44.55149" lon="3.75391">
        <ele>1234.3</ele>
        <time>2021-08-10T07:21:00Z</time>
      </trkpt>
      <trkpt lat="44.55149" lon="3.75385">
        <ele>1234.7</ele>
        <time>2021-08-10T07:21:02Z</time>
      </trkpt>
      <trkpt lat="44.55149" lon="3.7538">
        <ele>1235.3</ele>
        <time>2021-08-10T07:21:04Z</time>
      </trkpt>
      <trkpt lat="44.5515" lon="3.75374">
        <ele>1235.9</ele>
        <time>2021-08-10T07:21:06Z</time>
      </trkpt>
      <trkpt lat="44.5515" lon="3.75369">
        <ele>1236.3</ele>
        <time>2021-08-10T07:21:08Z</time>
      </trkpt>
      <trkpt lat="44.5515" lon="3.75363">
        <ele>1236.8</ele>
        <time>2021-08-10T07:21:10Z</time>
      </trkpt>
      <trkpt lat="44.5515" lon="3.75357">
        <ele>1237.4</ele>
        <time>2021-08-10T07:21:12Z</time>
      </trkpt>
      <trkpt lat="44.5515" lon="3.75352">
        <ele>1237.9</ele>
        <time>2021-08-10T07:21:14Z</time>
      </trkpt>
      <trkpt lat="44.5515" lon="3.75346">
        <ele>1238.3</ele>
        <time>2021-08-10T07:21:16Z</time>
      </trkpt>
      <trkpt lat="44.55151" lon="3.7534">
        <ele>1239</ele>
        <time>2021-08-10T07:21:18Z</time>
      </trkpt>
      <trkpt lat="44.5515" lon="3.75334">
        <ele>1239.5</ele>
        <time>2021-08-10T07:21:20Z</time>
      </trkpt>
      <trkpt lat="44.55151" lon="3.75328">
        <ele>1239.9</ele>
        <time>2021-08-10T07:21:22Z</time>
      </trkpt>
      <trkpt lat="44.5515" lon="3.75323">
        <ele>1240.1</ele>
        <time>2021-08-10T07:21:24Z</time>
      </trkpt>
      <trkpt lat="44.55151" lon="3.75317">
        <ele>1240.7</ele>
        <time>2021-08-10T07:21:26Z</time>
      </trkpt>
      <trkpt lat="44.55152" lon="3.75312">
        <ele>1241.3</ele>
        <time>2021-08-10T07:21:28Z</time>
      </trkpt>
      <trkpt lat="44.55153" lon="3.75307">
        <ele>1241.7</ele>
        <time>2021-08-10T07:21:30Z</time>
      </trkpt>
      <trkpt lat="44.55153" lon="3.75301">
        <ele>1242.1</ele>
        <time>2021-08-10T07:21:32Z</time>
      </trkpt>
      <trkpt lat="44.55153" lon="3.75295">
        <ele>1242.3</ele>
        <time>2021-08-10T07:21:34Z</time>
      </trkpt>
      <trkpt lat="44.55153" lon="3.7529">
        <ele>1242.7</ele>
        <time>2021-08-10T07:21:36Z</time>
      </trkpt>
      <trkpt lat="44.55153" lon="3.75284">
        <ele>1243</ele>
        <time>2021-08-10T07:21:38Z</time>
      </trkpt>
      <trkpt lat="44.55153" lon="3.75279">
        <ele>1243.4</ele>
        <time>2021-08-10T07:21:40Z</time>
      </trkpt>
      <trkpt lat="44.55153" lon="3.75273">
        <ele>1243.6</ele>
        <time>2021-08-10T07:21:42Z</time>
      </trkpt>
      <trkpt lat="44.55152" lon="3.75267">
        <ele>1243.9</ele>
        <time>2021-08-10T07:21:44Z</time>
      </trkpt>
      <trkpt lat="44.55152" lon="3.75262">
        <ele>1244.2</ele>
        <time>2021-08-10T07:21:46Z</time>
      </trkpt>
      <trkpt lat="44.55152" lon="3.75256">
        <ele>1244.4</ele>
        <time>2021-08-10T07:21:48Z</time>
      </trkpt>
      <trkpt lat="44.55152" lon="3.75251">
        <ele>1244.6</ele>
        <time>2021-08-10T07:21:50Z</time>
      </trkpt>
      <trkpt lat="44.55152" lon="3.75245">
        <ele>1244.9</ele>
        <time>2021-08-10T07:21:52Z</time>
      </trkpt>
      <trkpt lat="44.55151" lon="3.7524">
        <ele>1245.1</ele>
        <time>2021-08-10T07:21:54Z</time>
      </trkpt>
      <trkpt lat="44.55151" lon="3.75235">
        <ele>1245.2</ele>
        <time>2021-08-10T07:21:56Z</time>
      </trkpt>
      <trkpt lat="44.55151" lon="3.75229">
        <ele>1245.5</ele>
        <time>2021-08-10T07:21:58Z</time>
      </trkpt>
      <trkpt lat="44.55151" lon="3.75224">
        <ele>1245.8</ele>
        <time>2021-08-10T07:22:00Z</time>
      </trkpt>
      <trkpt lat="44.55151" lon="3.75219">
        <ele>1245.9</ele>
        <time>2021-08-10T07:22:02Z</time>
      </trkpt>
      <trkpt lat="44.5515" lon="3.75214">
        <ele>1246</ele>
        <time>2021-08-10T07:22:04Z</time>
      </trkpt>
      <trkpt lat="44.5515" lon="3.75209">
        <ele>1246.2</ele>
        <time>2021-08-10T07:22:06Z</time>
      </trkpt>
      <trkpt lat="44.5515" lon="3.75205">
        <ele>1246.5</ele>
        <time>2021-08-10T07:22:08Z</time>
      </trkpt>
      <trkpt lat="44.5515" lon="3.75199">
        <ele>1246.7</ele>
        <time>2021-08-10T07:22:10Z</time>
      </trkpt>
      <trkpt lat="44.5515" lon="3.75194">
        <ele>1246.9</ele>
        <time>2021-08-10T07:22:12Z</time>
      </trkpt>
      <trkpt lat="44.5515" lon="3.7519">
        <ele>1247.2</ele>
        <time>2021-08-10T07:22:14Z</time>
      </trkpt>
      <trkpt lat="44.5515" lon="3.75185">
        <ele>1247.3</ele>
        <time>2021-08-10T07:22:16Z</time>
      </trkpt>
      <trkpt lat="44.55149" lon="3.7518">
        <ele>1247.4</ele>
        <time>2021-08-10T07:22:18Z</time>
      </trkpt>
      <trkpt lat="44.55149" lon="3.75175">
        <ele>1247.6</ele>
        <time>2021-08-10T07:22:20Z</time>
      </trkpt>
      <trkpt lat="44.55149" lon="3.7517">
        <ele>1247.8</ele>
        <time>2021-08-10T07:22:22Z</time>
      </trkpt>
      <trkpt lat="44.55149" lon="3.75165">
        <ele>1248.1</ele>
        <time>2021-08-10T07:22:24Z</time>
      </trkpt>
      <trkpt lat="44.55149" lon="3.7516">
        <ele>1248.4</ele>
        <time>2021-08-10T07:22:26Z</time>
      </trkpt>
      <trkpt lat="44.55149" lon="3.75155">
        <ele>1248.5</ele>
        <time>2021-08-10T07:22:28Z</time>
      </trkpt>
      <trkpt lat="44.55149" lon="3.7515">
        <ele>1248.7</ele>
        <time>2021-08-10T07:22:30Z</time>
      </trkpt>
      <trkpt lat="44.55149" lon="3.75145">
        <ele>1248.9</ele>
        <time>2021-08-10T07:22:32Z</time>
      </trkpt>
      <trkpt lat="44.55149" lon="3.7514">
        <ele>1249.1</ele>
        <time>2021-08-10T07:22:34Z</time>
      </trkpt>
      <trkpt lat="44.55149" lon="3.75135">
        <ele>1249.3</ele>
        <time>2021-08-10T07:22:36Z</time>
      </trkpt>
      <trkpt lat="44.55149" lon="3.7513">
        <ele>1249.7</ele>
        <time>2021-08-10T07:22:38Z</time>
      </trkpt>
      <trkpt lat="44.55149" lon="3.75125">
        <ele>1249.9</ele>
        <time>2021-08-10T07:22:40Z</time>
      </trkpt>
      <trkpt lat="44.55149" lon="3.7512">
        <ele>1250.1</ele>
        <time>2021-08-10T07:22:42Z</time>
      </trkpt>
      <trkpt lat="44.55149" lon="3.75115">
        <ele>1250.4</ele>
        <time>2021-08-10T07:22:44Z</time>
      </trkpt>
      <trkpt lat="44.55148" lon="3.7511">
        <ele>1250.5</ele>
        <time>2021-08-10T07:22:46Z</time>
      </trkpt>
      <trkpt lat="44.55148" lon="3.75105">
        <ele>1250.7</ele>
        <time>2021-08-10T07:22:48Z</time>
      </trkpt>
      <trkpt lat="44.55148" lon="3.751">
        <ele>1250.9</ele>
        <time>2021-08-10T07:22:50Z</time>
      </trkpt>
      <trkpt lat="44.55148" lon="3.75094">
        <ele>1251.2</ele>
        <time>2021-08-10T07:22:52Z</time>
      </trkpt>
      <trkpt lat="44.55148" lon="3.75089">
        <ele>1251.5</ele>
        <time>2021-08-10T07:22:54Z</time>
      </trkpt>
      <trkpt lat="44.55148" lon="3.75084">
        <ele>1251.7</ele>
        <time>2021-08-10T07:22:56Z</time>
      </trkpt>
      <trkpt lat="44.55148" lon="3.75079">
        <ele>1252.1</ele>
        <time>2021-08-10T07:22:58Z</time>
      </trkpt>
      <trkpt lat="44.55149" lon="3.75074">
        <ele>1252.6</ele>
        <time>2021-08-10T07:23:00Z</time>
      </trkpt>
      <trkpt lat="44.55149" lon="3.75068">
        <ele>1253</ele>
        <time>2021-08-10T07:23:02Z</time>
      </trkpt>
      <trkpt lat="44.55149" lon="3.75063">
        <ele>1253.4</ele>
        <time>2021-08-10T07:23:04Z</time>
      </trkpt>
      <trkpt lat="44.55149" lon="3.75058">
        <ele>1253.8</ele>
        <time>2021-08-10T07:23:06Z</time>
      </trkpt>
      <trkpt lat="44.55149" lon="3.75053">
        <ele>1254.1</ele>
        <time>2021-08-10T07:23:08Z</time>
      </trkpt>
      <trkpt lat="44.55149" lon="3.75048">
        <ele>1254.5</ele>
        <time>2021-08-10T07:23:10Z</time>
      </trkpt>
      <trkpt lat="44.55148" lon="3.75043">
        <ele>1254.7</ele>
        <time>2021-08-10T07:23:12Z</time>
      </trkpt>
      <trkpt lat="44.55148" lon="3.75038">
        <ele>1255</ele>
        <time>2021-08-10T07:23:14Z</time>
      </trkpt>
      <trkpt lat="44.55147" lon="3.75033">
        <ele>1255.3</ele>
        <time>2021-08-10T07:23:16Z</time>
      </trkpt>
      <trkpt lat="44.55145" lon="3.75028">
        <ele>1255.4</ele>
        <time>2021-08-10T07:23:18Z</time>
      </trkpt>
      <trkpt lat="44.55143" lon="3.75024">
        <ele>1255.6</ele>
        <time>2021-08-10T07:23:20Z</time>
      </trkpt>
      <trkpt lat="44.55141" lon="3.75019">
        <ele>1255.8</ele>
        <time>2021-08-10T07:23:22Z</time>
      </trkpt>
      <trkpt lat="44.55139" lon="3.75015">
        <ele>1255.9</ele>
        <time>2021-08-10T07:23:24Z</time>
      </trkpt>
      <trkpt lat="44.55136" lon="3.75011">
        <ele>1256.1</ele>
        <time>2021-08-10T07:23:26Z</time>
      </trkpt>
      <trkpt lat="44.55134" lon="3.75007">
        <ele>1256.3</ele>
        <time>2021-08-10T07:23:28Z</time>
      </trkpt>
      <trkpt lat="44.55132" lon="3.75003">
        <ele>1256.6</ele>
        <time>2021-08-10T07:23:30Z</time>
      </trkpt>
      <trkpt lat="44.5513" lon="3.75">
        <ele>1256.8</ele>
        <time>2021-08-10T07:23:32Z</time>
      </trkpt>
      <trkpt lat="44.55127" lon="3.74997">
        <ele>1256.9</ele>
        <time>2021-08-10T07:23:34Z</time>
      </trkpt>
      <trkpt lat="44.55124" lon="3.74993">
        <ele>1257.1</ele>
        <time>2021-08-10T07:23:36Z</time>
      </trkpt>
      <trkpt lat="44.55122" lon="3.7499">
        <ele>1257.2</ele>
        <time>2021-08-10T07:23:38Z</time>
      </trkpt>
      <trkpt lat="44.55118" lon="3.74987">
        <ele>1257.3</ele>
        <time>2021-08-10T07:23:40Z</time>
      </trkpt>
      <trkpt lat="44.55116" lon="3.74983">
        <ele>1257.5</ele>
        <time>2021-08-10T07:23:42Z</time>
      </trkpt>
      <trkpt lat="44.55113" lon="3.7498">
        <ele>1257.7</ele>
        <time>2021-08-10T07:23:44Z</time>
      </trkpt>
      <trkpt lat="44.5511" lon="3.74976">
        <ele>1257.9</ele>
        <time>2021-08-10T07:23:46Z</time>
      </trkpt>
      <trkpt lat="44.55107" lon="3.74973">
        <ele>1258</ele>
        <time>2021-08-10T07:23:48Z</time>
      </trkpt>
      <trkpt lat="44.55104" lon="3.7497">
        <ele>1258.2</ele>
        <time>2021-08-10T07:23:50Z</time>
      </trkpt>
      <trkpt lat="44.55101" lon="3.74967">
        <ele>1258.3</ele>
        <time>2021-08-10T07:23:52Z</time>
      </trkpt>
      <trkpt lat="44.55097" lon="3.74964">
        <ele>1258.5</ele>
        <time>2021-08-10T07:23:54Z</time>
      </trkpt>
      <trkpt lat="44.55094" lon="3.74962">
        <ele>1258.6</ele>
        <time>2021-08-10T07:23:56Z</time>
      </trkpt>
      <trkpt lat="44.55091" lon="3.74959">
        <ele>1258.7</ele>
        <time>2021-08-10T07:23:58Z</time>
      </trkpt>
      <trkpt lat="44.55087" lon="3.74957">
        <ele>1258.9</ele>
        <time>2021-08-10T07:24:00Z</time>
      </trkpt>
      <trkpt lat="44.55084" lon="3.74954">
        <ele>1259</ele>
        <time>2021-08-10T07:24:02Z</time>
      </trkpt>
      <trkpt lat="44.5508" lon="3.74951">
        <ele>1259.4</ele>
        <time>2021-08-10T07:24:04Z</time>
      </trkpt>
      <trkpt lat="44.55076" lon="3.74949">
        <ele>1259.8</ele>
        <time>2021-08-10T07:24:06Z</time>
      </trkpt>
      <trkpt lat="44.55072" lon="3.74947">
        <ele>1260.2</ele>
        <time>2021-08-10T07:24:08Z</time>
      </trkpt>
      <trkpt lat="44.55069" lon="3.74945">
        <ele>1260.7</ele>
        <time>2021-08-10T07:24:10Z</time>
      </trkpt>
      <trkpt lat="44.55065" lon="3.74943">
        <ele>1261</ele>
        <time>2021-08-10T07:24:12Z</time>
      </trkpt>
      <trkpt lat="44.55062" lon="3.74941">
        <ele>1261.4</ele>
        <time>2021-08-10T07:24:14Z</time>
      </trkpt>
      <trkpt lat="44.55058" lon="3.74938">
        <ele>1261.9</ele>
        <time>2021-08-10T07:24:16Z</time>
      </trkpt>
      <trkpt lat="44.55053" lon="3.74937">
        <ele>1262.3</ele>
        <time>2021-08-10T07:24:18Z</time>
      </trkpt>
      <trkpt lat="44.55049" lon="3.74935">
        <ele>1262.8</ele>
        <time>2021-08-10T07:24:20Z</time>
      </trkpt>
      <trkpt lat="44.55046" lon="3.74933">
        <ele>1263.3</ele>
        <time>2021-08-10T07:24:22Z</time>
      </trkpt>
      <trkpt lat="44.55042" lon="3.7493">
        <ele>1263.8</ele>
        <time>2021-08-10T07:24:24Z</time>
      </trkpt>
      <trkpt lat="44.55038" lon="3.74927">
        <ele>1264.4</ele>
        <time>2021-08-10T07:24:26Z</time>
      </trkpt>
      <trkpt lat="44.55034" lon="3.74925">
        <ele>1264.9</ele>
        <time>2021-08-10T07:24:28Z</time>
      </trkpt>
      <trkpt lat="44.55031" lon="3.74922">
        <ele>1265.4</ele>
        <time>2021-08-10T07:24:30Z</time>
      </trkpt>
      <trkpt lat="44.55027" lon="3.7492">
        <ele>1266</ele>
        <time>2021-08-10T07:24:32Z</time>
      </trkpt>
      <trkpt lat="44.55024" lon="3.74918">
        <ele>1266.4</ele>
        <time>2021-08-10T07:24:34Z</time>
      </trkpt>
      <trkpt lat="44.5502" lon="3.74915">
        <ele>1266.9</ele>
        <time>2021-08-10T07:24:36Z</time>
      </trkpt>
      <trkpt lat="44.55015" lon="3.74913">
        <ele>1267.2</ele>
        <time>2021-08-10T07:24:38Z</time>
      </trkpt>
      <trkpt lat="44.55011" lon="3.74909">
        <ele>1267.7</ele>
        <time>2021-08-10T07:24:40Z</time>
      </trkpt>
      <trkpt lat="44.55006" lon="3.74907">
        <ele>1268.1</ele>
        <time>2021-08-10T07:24:42Z</time>
      </trkpt>
      <trkpt lat="44.55002" lon="3.74904">
        <ele>1268.5</ele>
        <time>2021-08-10T07:24:44Z</time>
      </trkpt>
      <trkpt lat="44.54998" lon="3.74902">
        <ele>1268.8</ele>
        <time>2021-08-10T07:24:46Z</time>
      </trkpt>
      <trkpt lat="44.54994" lon="3.74899">
        <ele>1269.1</ele>
        <time>2021-08-10T07:24:48Z</time>
      </trkpt>
      <trkpt lat="44.5499" lon="3.74897">
        <ele>1269.4</ele>
        <time>2021-08-10T07:24:50Z</time>
      </trkpt>
      <trkpt lat="44.54986" lon="3.74895">
        <ele>1269.7</ele>
        <time>2021-08-10T07:24:52Z</time>
      </trkpt>
      <trkpt lat="44.54983" lon="3.74893">
        <ele>1270</ele>
        <time>2021-08-10T07:24:54Z</time>
      </trkpt>
      <trkpt lat="44.54979" lon="3.7489">
        <ele>1270.3</ele>
        <time>2021-08-10T07:24:56Z</time>
      </trkpt>
      <trkpt lat="44.54976" lon="3.74888">
        <ele>1270.5</ele>
        <time>2021-08-10T07:24:58Z</time>
      </trkpt>
      <trkpt lat="44.54972" lon="3.74886">
        <ele>1270.8</ele>
        <time>2021-08-10T07:25:00Z</time>
      </trkpt>
      <trkpt lat="44.54968" lon="3.74883">
        <ele>1271.1</ele>
        <time>2021-08-10T07:25:02Z</time>
      </trkpt>
      <trkpt lat="44.54964" lon="3.74881">
        <ele>1271.4</ele>
        <time>2021-08-10T07:25:04Z</time>
      </trkpt>
      <trkpt lat="44.5496" lon="3.74879">
        <ele>1271.7</ele>
        <time>2021-08-10T07:25:06Z</time>
      </trkpt>
      <trkpt lat="44.54956" lon="3.74876">
        <ele>1272</ele>
        <time>2021-08-10T07:25:08Z</time>
      </trkpt>
      <trkpt lat="44.54952" lon="3.74875">
        <ele>1272.3</ele>
        <time>2021-08-10T07:25:10Z</time>
      </trkpt>
      <trkpt lat="44.54948" lon="3.74873">
        <ele>1272.6</ele>
        <time>2021-08-10T07:25:12Z</time>
      </trkpt>
      <trkpt lat="44.54945" lon="3.7487">
        <ele>1272.9</ele>
        <time>2021-08-10T07:25:14Z</time>
      </trkpt>
      <trkpt lat="44.54941" lon="3.74868">
        <ele>1273.2</ele>
        <time>2021-08-10T07:25:16Z</time>
      </trkpt>
      <trkpt lat="44.54937" lon="3.74866">
        <ele>1273.5</ele>
        <time>2021-08-10T07:25:18Z</time>
      </trkpt>
      <trkpt lat="44.54933" lon="3.74864">
        <ele>1273.8</ele>
        <time>2021-08-10T07:25:20Z</time>
      </trkpt>
      <trkpt lat="44.54929" lon="3.74861">
        <ele>1274.1</ele>
        <time>2021-08-10T07:25:22Z</time>
      </trkpt>
      <trkpt lat="44.54924" lon="3.74858">
        <ele>1274.4</ele>
        <time>2021-08-10T07:25:24Z</time>
      </trkpt>
      <trkpt lat="44.54921" lon="3.74856">
        <ele>1274.7</ele>
        <time>2021-08-10T07:25:26Z</time>
      </trkpt>
      <trkpt lat="44.54917" lon="3.74854">
        <ele>1275</ele>
        <time>2021-08-10T07:25:28Z</time>
      </trkpt>
      <trkpt lat="44.54912" lon="3.74852">
        <ele>1275.3</ele>
        <time>2021-08-10T07:25:30Z</time>
      </trkpt>
      <trkpt lat="44.54908" lon="3.7485">
        <ele>1275.5</ele>
        <time>2021-08-10T07:25:32Z</time>
      </trkpt>
      <trkpt lat="44.54904" lon="3.74848">
        <ele>1275.7</ele>
        <time>2021-08-10T07:25:34Z</time>
      </trkpt>
      <trkpt lat="44.549" lon="3.74846">
        <ele>1276</ele>
        <time>2021-08-10T07:25:36Z</time>
      </trkpt>
      <trkpt lat="44.54895" lon="3.74844">
        <ele>1276.2</ele>
        <time>2021-08-10T07:25:38Z</time>
      </trkpt>
      <trkpt lat="44.54891" lon="3.74842">
        <ele>1276.5</ele>
        <time>2021-08-10T07:25:40Z</time>
      </trkpt>
      <trkpt lat="44.54886" lon="3.7484">
        <ele>1276.7</ele>
        <time>2021-08-10T07:25:42Z</time>
      </trkpt>
      <trkpt lat="44.54882" lon="3.74838">
        <ele>1277</ele>
        <time>2021-08-10T07:25:44Z</time>
      </trkpt>
      <trkpt lat="44.54877" lon="3.74837">
        <ele>1277.2</ele>
        <time>2021-08-10T07:25:46Z</time>
      </trkpt>
      <trkpt lat="44.54873" lon="3.74835">
        <ele>1277.5</ele>
        <time>2021-08-10T07:25:48Z</time>
      </trkpt>
      <trkpt lat="44.54868" lon="3.74834">
        <ele>1277.7</ele>
        <time>2021-08-10T07:25:50Z</time>
      </trkpt>
      <trkpt lat="44.54863" lon="3.74833">
        <ele>1277.9</ele>
        <time>2021-08-10T07:25:52Z</time>
      </trkpt>
      <trkpt lat="44.54858" lon="3.74831">
        <ele>1278.1</ele>
        <time>2021-08-10T07:25:54Z</time>
      </trkpt>
      <trkpt lat="44.54853" lon="3.74829">
        <ele>1278.3</ele>
        <time>2021-08-10T07:25:56Z</time>
      </trkpt>
      <trkpt lat="44.54848" lon="3.74828">
        <ele>1278.5</ele>
        <time>2021-08-10T07:25:58Z</time>
      </trkpt>
      <trkpt lat="44.54843" lon="3.74826">
        <ele>1278.7</ele>
        <time>2021-08-10T07:26:00Z</time>
      </trkpt>
      <trkpt lat="44.54838" lon="3.74825">
        <ele>1278.8</ele>
        <time>2021-08-10T07:26:02Z</time>
      </trkpt>
      <trkpt lat="44.54832" lon="3.74824">
        <ele>1279</ele>
        <time>2021-08-10T07:26:04Z</time>
      </trkpt>
      <trkpt lat="44.54827" lon="3.74822">
        <ele>1279.1</ele>
        <time>2021-08-10T07:26:06Z</time>
      </trkpt>
      <trkpt lat="44.54822" lon="3.74821">
        <ele>1279.3</ele>
        <time>2021-08-10T07:26:08Z</time>
      </trkpt>
      <trkpt lat="44.54817" lon="3.74819">
        <ele>1279.4</ele>
        <time>2021-08-10T07:26:10Z</time>
      </trkpt>
      <trkpt lat="44.54812" lon="3.74818">
        <ele>1279.5</ele>
        <time>2021-08-10T07:26:12Z</time>
      </trkpt>
      <trkpt lat="44.54806" lon="3.74817">
        <ele>1279.6</ele>
        <time>2021-08-10T07:26:14Z</time>
      </trkpt>
      <trkpt lat="44.54801" lon="3.74816">
        <ele>1279.7</ele>
        <time>2021-08-10T07:26:16Z</time>
      </trkpt>
      <trkpt lat="44.54796" lon="3.74815">
        <ele>1279.8</ele>
        <time>2021-08-10T07:26:18Z</time>
      </trkpt>
      <trkpt lat="44.54791" lon="3.74813">
        <ele>1279.9</ele>
        <time>2021-08-10T07:26:20Z</time>
      </trkpt>
      <trkpt lat="44.54786" lon="3.74813">
        <ele>1280</ele>
        <time>2021-08-10T07:26:22Z</time>
      </trkpt>
      <trkpt lat="44.54781" lon="3.74811">
        <ele>1280.1</ele>
        <time>2021-08-10T07:26:24Z</time>
      </trkpt>
      <trkpt lat="44.54776" lon="3.74811">
        <ele>1280.2</ele>
        <time>2021-08-10T07:26:26Z</time>
      </trkpt>
      <trkpt lat="44.54772" lon="3.74811">
        <ele>1280.3</ele>
        <time>2021-08-10T07:26:28Z</time>
      </trkpt>
      <trkpt lat="44.54767" lon="3.7481">
        <ele>1280.4</ele>
        <time>2021-08-10T07:26:30Z</time>
      </trkpt>
      <trkpt lat="44.54762" lon="3.7481">
        <ele>1280.5</ele>
        <time>2021-08-10T07:26:32Z</time>
      </trkpt>
      <trkpt lat="44.54757" lon="3.74809">
        <ele>1280.6</ele>
        <time>2021-08-10T07:26:34Z</time>
      </trkpt>
      <trkpt lat="44.54752" lon="3.74809">
        <ele>1280.7</ele>
        <time>2021-08-10T07:26:36Z</time>
      </trkpt>
      <trkpt lat="44.54747" lon="3.7481">
        <ele>1280.9</ele>
        <time>2021-08-10T07:26:38Z</time>
      </trkpt>
      <trkpt lat="44.54742" lon="3.7481">
        <ele>1281.1</ele>
        <time>2021-08-10T07:26:40Z</time>
      </trkpt>
      <trkpt lat="44.54737" lon="3.74809">
        <ele>1281.3</ele>
        <time>2021-08-10T07:26:42Z</time>
      </trkpt>
      <trkpt lat="44.54732" lon="3.74808">
        <ele>1281.6</ele>
        <time>2021-08-10T07:26:44Z</time>
      </trkpt>
      <trkpt lat="44.54727" lon="3.74808">
        <ele>1281.8</ele>
        <time>2021-08-10T07:26:46Z</time>
      </trkpt>
      <trkpt lat="44.54722" lon="3.74808">
        <ele>1282.1</ele>
        <time>2021-08-10T07:26:48Z</time>
      </trkpt>
      <trkpt lat="44.54718" lon="3.74807">
        <ele>1282.3</ele>
        <time>2021-08-10T07:26:50Z</time>
      </trkpt>
      <trkpt lat="44.54712" lon="3.74805">
        <ele>1282.4</ele>
        <time>2021-08-10T07:26:52Z</time>
      </trkpt>
      <trkpt lat="44.54707" lon="3.74803">
        <ele>1282.6</ele>
        <time>2021-08-10T07:26:54Z</time>
      </trkpt>
      <trkpt lat="44.54702" lon="3.74801">
        <ele>1282.8</ele>
        <time>2021-08-10T07:26:56Z</time>
      </trkpt>
      <trkpt lat="44.54698" lon="3.74797">
        <ele>1282.9</ele>
        <time>2021-08-10T07:26:58Z</time>
      </trkpt>
      <trkpt lat="44.54693" lon="3.74794">
        <ele>1283</ele>
        <time>2021-08-10T07:27:00Z</time>
      </trkpt>
      <trkpt lat="44.54689" lon="3.7479">
        <ele>1283</ele>
        <time>2021-08-10T07:27:02Z</time>
      </trkpt>
      <trkpt lat="44.54684" lon="3.74786">
        <ele>1283</ele>
        <time>2021-08-10T07:27:04Z</time>
      </trkpt>
      <trkpt lat="44.54679" lon="3.74783">
        <ele>1283.1</ele>
        <time>2021-08-10T07:27:06Z</time>
      </trkpt>
      <trkpt lat="44.54675" lon="3.74779">
        <ele>1283.1</ele>
        <time>2021-08-10T07:27:08Z</time>
      </trkpt>
      <trkpt lat="44.5467" lon="3.74776">
        <ele>1283.1</ele>
        <time>2021-08-10T07:27:10Z</time>
      </trkpt>
      <trkpt lat="44.54666" lon="3.74772">
        <ele>1283.3</ele>
        <time>2021-08-10T07:27:12Z</time>
      </trkpt>
      <trkpt lat="44.54661" lon="3.74768">
        <ele>1283.8</ele>
        <time>2021-08-10T07:27:14Z</time>
      </trkpt>
      <trkpt lat="44.54657" lon="3.74765">
        <ele>1284.4</ele>
        <time>2021-08-10T07:27:16Z</time>
      </trkpt>
      <trkpt lat="44.54652" lon="3.74761">
        <ele>1284.9</ele>
        <time>2021-08-10T07:27:18Z</time>
      </trkpt>
      <trkpt lat="44.54648" lon="3.74757">
        <ele>1285.4</ele>
        <time>2021-08-10T07:27:20Z</time>
      </trkpt>
      <trkpt lat="44.54643" lon="3.74754">
        <ele>1286</ele>
        <time>2021-08-10T07:27:22Z</time>
      </trkpt>
      <trkpt lat="44.54638" lon="3.74751">
        <ele>1286.5</ele>
        <time>2021-08-10T07:27:24Z</time>
      </trkpt>
      <trkpt lat="44.54633" lon="3.74748">
        <ele>1286.9</ele>
        <time>2021-08-10T07:27:26Z</time>
      </trkpt>
      <trkpt lat="44.54628" lon="3.74746">
        <ele>1287.3</ele>
        <time>2021-08-10T07:27:28Z</time>
      </trkpt>
      <trkpt lat="44.54624" lon="3.74745">
        <ele>1287.7</ele>
        <time>2021-08-10T07:27:30Z</time>
      </trkpt>
      <trkpt lat="44.54618" lon="3.74744">
        <ele>1288.3</ele>
        <time>2021-08-10T07:27:32Z</time>
      </trkpt>
      <trkpt lat="44.54613" lon="3.74743">
        <ele>1288.9</ele>
        <time>2021-08-10T07:27:34Z</time>
      </trkpt>
      <trkpt lat="44.54608" lon="3.74742">
        <ele>1289.5</ele>
        <time>2021-08-10T07:27:36Z</time>
      </trkpt>
      <trkpt lat="44.54603" lon="3.7474">
        <ele>1290</ele>
        <time>2021-08-10T07:27:38Z</time>
      </trkpt>
      <trkpt lat="44.54598" lon="3.74738">
        <ele>1290.3</ele>
        <time>2021-08-10T07:27:40Z</time>
      </trkpt>
      <trkpt lat="44.54594" lon="3.74736">
        <ele>1290.7</ele>
        <time>2021-08-10T07:27:42Z</time>
      </trkpt>
      <trkpt lat="44.54589" lon="3.74733">
        <ele>1290.9</ele>
        <time>2021-08-10T07:27:44Z</time>
      </trkpt>
      <trkpt lat="44.54585" lon="3.7473">
        <ele>1290.8</ele>
        <time>2021-08-10T07:27:46Z</time>
      </trkpt>
      <trkpt lat="44.54582" lon="3.74726">
        <ele>1290.6</ele>
        <time>2021-08-10T07:27:48Z</time>
      </trkpt>
      <trkpt lat="44.54579" lon="3.74722">
        <ele>1290.6</ele>
        <time>2021-08-10T07:27:50Z</time>
      </trkpt>
      <trkpt lat="44.54575" lon="3.74718">
        <ele>1290.5</ele>
        <time>2021-08-10T07:27:52Z</time>
      </trkpt>
      <trkpt lat="44.54573" lon="3.74714">
        <ele>1290</ele>
        <time>2021-08-10T07:27:54Z</time>
      </trkpt>
      <trkpt lat="44.54569" lon="3.74711">
        <ele>1289.9</ele>
        <time>2021-08-10T07:27:56Z</time>
      </trkpt>
      <trkpt lat="44.54567" lon="3.74709">
        <ele>1289.9</ele>
        <time>2021-08-10T07:27:58Z</time>
      </trkpt>
      <trkpt lat="44.54563" lon="3.74706">
        <ele>1289.9</ele>
        <time>2021-08-10T07:28:00Z</time>
      </trkpt>
      <trkpt lat="44.5456" lon="3.74703">
        <ele>1289.9</ele>
        <time>2021-08-10T07:28:02Z</time>
      </trkpt>
      <trkpt lat="44.54556" lon="3.74702">
        <ele>1290.1</ele>
        <time>2021-08-10T07:28:04Z</time>
      </trkpt>
      <trkpt lat="44.54552" lon="3.74699">
        <ele>1290</ele>
        <time>2021-08-10T07:28:06Z</time>
      </trkpt>
      <trkpt lat="44.54549" lon="3.74696">
        <ele>1290.1</ele>
        <time>2021-08-10T07:28:08Z</time>
      </trkpt>
      <trkpt lat="44.54545" lon="3.74695">
        <ele>1290.2</ele>
        <time>2021-08-10T07:28:10Z</time>
      </trkpt>
      <trkpt lat="44.54541" lon="3.74693">
        <ele>1290.5</ele>
        <time>2021-08-10T07:28:12Z</time>
      </trkpt>
      <trkpt lat="44.54538" lon="3.74692">
        <ele>1290.6</ele>
        <time>2021-08-10T07:28:14Z</time>
      </trkpt>
      <trkpt lat="44.54534" lon="3.7469">
        <ele>1290.7</ele>
        <time>2021-08-10T07:28:16Z</time>
      </trkpt>
      <trkpt lat="44.54531" lon="3.74688">
        <ele>1290.6</ele>
        <time>2021-08-10T07:28:18Z</time>
      </trkpt>
      <trkpt lat="44.54528" lon="3.74687">
        <ele>1290.8</ele>
        <time>2021-08-10T07:28:20Z</time>
      </trkpt>
      <trkpt lat="44.54524" lon="3.74685">
        <ele>1291</ele>
        <time>2021-08-10T07:28:22Z</time>
      </trkpt>
      <trkpt lat="44.5452" lon="3.74684">
        <ele>1291.2</ele>
        <time>2021-08-10T07:28:24Z</time>
      </trkpt>
      <trkpt lat="44.54517" lon="3.74683">
        <ele>1291.5</ele>
        <time>2021-08-10T07:28:26Z</time>
      </trkpt>
      <trkpt lat="44.54513" lon="3.74683">
        <ele>1291.9</ele>
        <time>2021-08-10T07:28:28Z</time>
      </trkpt>
      <trkpt lat="44.5451" lon="3.74682">
        <ele>1292.1</ele>
        <time>2021-08-10T07:28:30Z</time>
      </trkpt>
      <trkpt lat="44.54506" lon="3.74683">
        <ele>1292.9</ele>
        <time>2021-08-10T07:28:32Z</time>
      </trkpt>
      <trkpt lat="44.54502" lon="3.74684">
        <ele>1293.9</ele>
        <time>2021-08-10T07:28:34Z</time>
      </trkpt>
      <trkpt lat="44.54498" lon="3.74684">
        <ele>1294</ele>
        <time>2021-08-10T07:28:36Z</time>
      </trkpt>
      <trkpt lat="44.54495" lon="3.74685">
        <ele>1294.2</ele>
        <time>2021-08-10T07:28:38Z</time>
      </trkpt>
      <trkpt lat="44.54491" lon="3.74686">
        <ele>1294.3</ele>
        <time>2021-08-10T07:28:40Z</time>
      </trkpt>
      <trkpt lat="44.54488" lon="3.74687">
        <ele>1294.3</ele>
        <time>2021-08-10T07:28:42Z</time>
      </trkpt>
      <trkpt lat="44.54485" lon="3.74688">
        <ele>1294.6</ele>
        <time>2021-08-10T07:28:44Z</time>
      </trkpt>
      <trkpt lat="44.54482" lon="3.74689">
        <ele>1294.6</ele>
        <time>2021-08-10T07:28:46Z</time>
      </trkpt>
      <trkpt lat="44.54479" lon="3.7469">
        <ele>1294.8</ele>
        <time>2021-08-10T07:28:48Z</time>
      </trkpt>
      <trkpt lat="44.54476" lon="3.74691">
        <ele>1295.1</ele>
        <time>2021-08-10T07:28:50Z</time>
      </trkpt>
      <trkpt lat="44.54473" lon="3.74693">
        <ele>1295.3</ele>
        <time>2021-08-10T07:28:52Z</time>
      </trkpt>
      <trkpt lat="44.5447" lon="3.74694">
        <ele>1295.6</ele>
        <time>2021-08-10T07:28:54Z</time>
      </trkpt>
      <trkpt lat="44.54467" lon="3.74696">
        <ele>1295.9</ele>
        <time>2021-08-10T07:28:56Z</time>
      </trkpt>
      <trkpt lat="44.54464" lon="3.74698">
        <ele>1296.3</ele>
        <time>2021-08-10T07:28:58Z</time>
      </trkpt>
      <trkpt lat="44.54462" lon="3.747">
        <ele>1296.9</ele>
        <time>2021-08-10T07:29:00Z</time>
      </trkpt>
      <trkpt lat="44.54459" lon="3.74703">
        <ele>1297.4</ele>
        <time>2021-08-10T07:29:02Z</time>
      </trkpt>
      <trkpt lat="44.54456" lon="3.74705">
        <ele>1297.9</ele>
        <time>2021-08-10T07:29:04Z</time>
      </trkpt>
      <trkpt lat="44.54453" lon="3.74706">
        <ele>1298.2</ele>
        <time>2021-08-10T07:29:06Z</time>
      </trkpt>
      <trkpt lat="44.54451" lon="3.74709">
        <ele>1298.8</ele>
        <time>2021-08-10T07:29:08Z</time>
      </trkpt>
      <trkpt lat="44.54448" lon="3.74712">
        <ele>1299.4</ele>
        <time>2021-08-10T07:29:10Z</time>
      </trkpt>
      <trkpt lat="44.54445" lon="3.74714">
        <ele>1300</ele>
        <time>2021-08-10T07:29:12Z</time>
      </trkpt>
      <trkpt lat="44.54443" lon="3.74717">
        <ele>1300.5</ele>
        <time>2021-08-10T07:29:14Z</time>
      </trkpt>
      <trkpt lat="44.5444" lon="3.74719">
        <ele>1301</ele>
        <time>2021-08-10T07:29:16Z</time>
      </trkpt>
      <trkpt lat="44.54437" lon="3.74721">
        <ele>1301.4</ele>
        <time>2021-08-10T07:29:18Z</time>
      </trkpt>
      <trkpt lat="44.54435" lon="3.74724">
        <ele>1302</ele>
        <time>2021-08-10T07:29:20Z</time>
      </trkpt>
      <trkpt lat="44.54432" lon="3.74726">
        <ele>1302.6</ele>
        <time>2021-08-10T07:29:22Z</time>
      </trkpt>
      <trkpt lat="44.5443" lon="3.74729">
        <ele>1303.2</ele>
        <time>2021-08-10T07:29:24Z</time>
      </trkpt>
      <trkpt lat="44.54427" lon="3.74731">
        <ele>1303.6</ele>
        <time>2021-08-10T07:29:26Z</time>
      </trkpt>
      <trkpt lat="44.54425" lon="3.74733">
        <ele>1303.9</ele>
        <time>2021-08-10T07:29:28Z</time>
      </trkpt>
      <trkpt lat="44.54422" lon="3.74736">
        <ele>1304.6</ele>
        <time>2021-08-10T07:29:30Z</time>
      </trkpt>
      <trkpt lat="44.54419" lon="3.74738">
        <ele>1304.9</ele>
        <time>2021-08-10T07:29:32Z</time>
      </trkpt>
      <trkpt lat="44.54416" lon="3.74741">
        <ele>1305.5</ele>
        <time>2021-08-10T07:29:34Z</time>
      </trkpt>
      <trkpt lat="44.54413" lon="3.74743">
        <ele>1305.9</ele>
        <time>2021-08-10T07:29:36Z</time>
      </trkpt>
      <trkpt lat="44.5441" lon="3.74745">
        <ele>1306.5</ele>
        <time>2021-08-10T07:29:38Z</time>
      </trkpt>
      <trkpt lat="44.54408" lon="3.74747">
        <ele>1306.8</ele>
        <time>2021-08-10T07:29:40Z</time>
      </trkpt>
      <trkpt lat="44.54405" lon="3.7475">
        <ele>1307.3</ele>
        <time>2021-08-10T07:29:42Z</time>
      </trkpt>
      <trkpt lat="44.54402" lon="3.74753">
        <ele>1308</ele>
        <time>2021-08-10T07:29:44Z</time>
      </trkpt>
      <trkpt lat="44.544" lon="3.74756">
        <ele>1308.6</ele>
        <time>2021-08-10T07:29:46Z</time>
      </trkpt>
      <trkpt lat="44.54397" lon="3.74759">
        <ele>1309.3</ele>
        <time>2021-08-10T07:29:48Z</time>
      </trkpt>
      <trkpt lat="44.54393" lon="3.74762">
        <ele>1309.8</ele>
        <time>2021-08-10T07:29:50Z</time>
      </trkpt>
      <trkpt lat="44.54391" lon="3.74765">
        <ele>1310.5</ele>
        <time>2021-08-10T07:29:52Z</time>
      </trkpt>
      <trkpt lat="44.54388" lon="3.74768">
        <ele>1311</ele>
        <time>2021-08-10T07:29:54Z</time>
      </trkpt>
      <trkpt lat="44.54385" lon="3.74771">
        <ele>1311.6</ele>
        <time>2021-08-10T07:29:56Z</time>
      </trkpt>
      <trkpt lat="44.54382" lon="3.74773">
        <ele>1311.9</ele>
        <time>2021-08-10T07:29:58Z</time>
      </trkpt>
      <trkpt lat="44.54379" lon="3.74776">
        <ele>1312.4</ele>
        <time>2021-08-10T07:30:00Z</time>
      </trkpt>
      <trkpt lat="44.54376" lon="3.74778">
        <ele>1312.8</ele>
        <time>2021-08-10T07:30:02Z</time>
      </trkpt>
      <trkpt lat="44.54373" lon="3.7478">
        <ele>1313.2</ele>
        <time>2021-08-10T07:30:04Z</time>
      </trkpt>
      <trkpt lat="44.5437" lon="3.74783">
        <ele>1313.6</ele>
        <time>2021-08-10T07:30:06Z</time>
      </trkpt>
      <trkpt lat="44.54367" lon="3.74786">
        <ele>1314.1</ele>
        <time>2021-08-10T07:30:08Z</time>
      </trkpt>
      <trkpt lat="44.54364" lon="3.74788">
        <ele>1314.4</ele>
        <time>2021-08-10T07:30:10Z</time>
      </trkpt>
      <trkpt lat="44.54361" lon="3.7479">
        <ele>1314.7</ele>
        <time>2021-08-10T07:30:12Z</time>
      </trkpt>
      <trkpt lat="44.54358" lon="3.74792">
        <ele>1315</ele>
        <time>2021-08-10T07:30:14Z</time>
      </trkpt>
      <trkpt lat="44.54355" lon="3.74794">
        <ele>1315.4</ele>
        <time>2021-08-10T07:30:16Z</time>
      </trkpt>
      <trkpt lat="44.54352" lon="3.74797">
        <ele>1315.8</ele>
        <time>2021-08-10T07:30:18Z</time>
      </trkpt>
      <trkpt lat="44.54349" lon="3.74799">
        <ele>1316.1</ele>
        <time>2021-08-10T07:30:20Z</time>
      </trkpt>
      <trkpt lat="44.54346" lon="3.74801">
        <ele>1316.3</ele>
        <time>2021-08-10T07:30:22Z</time>
      </trkpt>
      <trkpt lat="44.54343" lon="3.74804">
        <ele>1316.7</ele>
        <time>2021-08-10T07:30:24Z</time>
      </trkpt>
      <trkpt lat="44.5434" lon="3.74806">
        <ele>1316.9</ele>
        <time>2021-08-10T07:30:26Z</time>
      </trkpt>
      <trkpt lat="44.54337" lon="3.74808">
        <ele>1317.3</ele>
        <time>2021-08-10T07:30:28Z</time>
      </trkpt>
      <trkpt lat="44.54334" lon="3.74811">
        <ele>1317.7</ele>
        <time>2021-08-10T07:30:30Z</time>
      </trkpt>
      <trkpt lat="44.54331" lon="3.74813">
        <ele>1317.9</ele>
        <time>2021-08-10T07:30:32Z</time>
      </trkpt>
      <trkpt lat="44.54328" lon="3.74815">
        <ele>1318.3</ele>
        <time>2021-08-10T07:30:34Z</time>
      </trkpt>
      <trkpt lat="44.54325" lon="3.74818">
        <ele>1318.7</ele>
        <time>2021-08-10T07:30:36Z</time>
      </trkpt>
      <trkpt lat="44.54322" lon="3.74819">
        <ele>1318.9</ele>
        <time>2021-08-10T07:30:38Z</time>
      </trkpt>
      <trkpt lat="44.54319" lon="3.74822">
        <ele>1319.3</ele>
        <time>2021-08-10T07:30:40Z</time>
      </trkpt>
      <trkpt lat="44.54316" lon="3.74824">
        <ele>1319.4</ele>
        <time>2021-08-10T07:30:42Z</time>
      </trkpt>
      <trkpt lat="44.54314" lon="3.74828">
        <ele>1320</ele>
        <time>2021-08-10T07:30:44Z</time>
      </trkpt>
      <trkpt lat="44.54311" lon="3.7483">
        <ele>1320.1</ele>
        <time>2021-08-10T07:30:46Z</time>
      </trkpt>
      <trkpt lat="44.54307" lon="3.74832">
        <ele>1320.2</ele>
        <time>2021-08-10T07:30:48Z</time>
      </trkpt>
      <trkpt lat="44.54305" lon="3.74834">
        <ele>1320.4</ele>
        <time>2021-08-10T07:30:50Z</time>
      </trkpt>
      <trkpt lat="44.54302" lon="3.74836">
        <ele>1320.7</ele>
        <time>2021-08-10T07:30:52Z</time>
      </trkpt>
      <trkpt lat="44.54299" lon="3.74839">
        <ele>1321</ele>
        <time>2021-08-10T07:30:54Z</time>
      </trkpt>
      <trkpt lat="44.54296" lon="3.74842">
        <ele>1321.4</ele>
        <time>2021-08-10T07:30:56Z</time>
      </trkpt>
      <trkpt lat="44.54293" lon="3.74844">
        <ele>1321.7</ele>
        <time>2021-08-10T07:30:58Z</time>
      </trkpt>
      <trkpt lat="44.54291" lon="3.74847">
        <ele>1322.1</ele>
        <time>2021-08-10T07:31:00Z</time>
      </trkpt>
      <trkpt lat="44.54288" lon="3.7485">
        <ele>1322.5</ele>
        <time>2021-08-10T07:31:02Z</time>
      </trkpt>
      <trkpt lat="44.54284" lon="3.74851">
        <ele>1322.6</ele>
        <time>2021-08-10T07:31:04Z</time>
      </trkpt>
      <trkpt lat="44.54282" lon="3.74854">
        <ele>1323</ele>
        <time>2021-08-10T07:31:06Z</time>
      </trkpt>
      <trkpt lat="44.5428" lon="3.74857">
        <ele>1323.5</ele>
        <time>2021-08-10T07:31:08Z</time>
      </trkpt>
      <trkpt lat="44.54277" lon="3.7486">
        <ele>1323.8</ele>
        <time>2021-08-10T07:31:10Z</time>
      </trkpt>
      <trkpt lat="44.54274" lon="3.74863">
        <ele>1324.3</ele>
        <time>2021-08-10T07:31:12Z</time>
      </trkpt>
      <trkpt lat="44.54271" lon="3.74865">
        <ele>1324.5</ele>
        <time>2021-08-10T07:31:14Z</time>
      </trkpt>
      <trkpt lat="44.54268" lon="3.74868">
        <ele>1324.7</ele>
        <time>2021-08-10T07:31:16Z</time>
      </trkpt>
      <trkpt lat="44.54266" lon="3.7487">
        <ele>1325.1</ele>
        <time>2021-08-10T07:31:18Z</time>
      </trkpt>
      <trkpt lat="44.54263" lon="3.74873">
        <ele>1325.4</ele>
        <time>2021-08-10T07:31:20Z</time>
      </trkpt>
      <trkpt lat="44.5426" lon="3.74876">
        <ele>1325.7</ele>
        <time>2021-08-10T07:31:22Z</time>
      </trkpt>
      <trkpt lat="44.54258" lon="3.74879">
        <ele>1326.2</ele>
        <time>2021-08-10T07:31:24Z</time>
      </trkpt>
      <trkpt lat="44.54255" lon="3.74882">
        <ele>1326.7</ele>
        <time>2021-08-10T07:31:26Z</time>
      </trkpt>
      <trkpt lat="44.54253" lon="3.74885">
        <ele>1327.1</ele>
        <time>2021-08-10T07:31:28Z</time>
      </trkpt>
      <trkpt lat="44.5425" lon="3.74888">
        <ele>1327.5</ele>
        <time>2021-08-10T07:31:30Z</time>
      </trkpt>
      <trkpt lat="44.54247" lon="3.74892">
        <ele>1328</ele>
        <time>2021-08-10T07:31:32Z</time>
      </trkpt>
      <trkpt lat="44.54245" lon="3.74895">
        <ele>1328.5</ele>
        <time>2021-08-10T07:31:34Z</time>
      </trkpt>
      <trkpt lat="44.54242" lon="3.74898">
        <ele>1328.9</ele>
        <time>2021-08-10T07:31:36Z</time>
      </trkpt>
      <trkpt lat="44.5424" lon="3.74901">
        <ele>1329.3</ele>
        <time>2021-08-10T07:31:38Z</time>
      </trkpt>
      <trkpt lat="44.54237" lon="3.74904">
        <ele>1329.7</ele>
        <time>2021-08-10T07:31:40Z</time>
      </trkpt>
      <trkpt lat="44.54234" lon="3.74907">
        <ele>1329.9</ele>
        <time>2021-08-10T07:31:42Z</time>
      </trkpt>
      <trkpt lat="44.54232" lon="3.74909">
        <ele>1330.1</ele>
        <time>2021-08-10T07:31:44Z</time>
      </trkpt>
      <trkpt lat="44.54229" lon="3.74912">
        <ele>1330.4</ele>
        <time>2021-08-10T07:31:46Z</time>
      </trkpt>
      <trkpt lat="44.54226" lon="3.74915">
        <ele>1330.6</ele>
        <time>2021-08-10T07:31:48Z</time>
      </trkpt>
      <trkpt lat="44.54224" lon="3.74918">
        <ele>1330.8</ele>
        <time>2021-08-10T07:31:50Z</time>
      </trkpt>
      <trkpt lat="44.54221" lon="3.74921">
        <ele>1331.1</ele>
        <time>2021-08-10T07:31:52Z</time>
      </trkpt>
      <trkpt lat="44.54218" lon="3.74924">
        <ele>1331.4</ele>
        <time>2021-08-10T07:31:54Z</time>
      </trkpt>
      <trkpt lat="44.54216" lon="3.74927">
        <ele>1331.6</ele>
        <time>2021-08-10T07:31:56Z</time>
      </trkpt>
      <trkpt lat="44.54213" lon="3.7493">
        <ele>1331.9</ele>
        <time>2021-08-10T07:31:58Z</time>
      </trkpt>
      <trkpt lat="44.5421" lon="3.74933">
        <ele>1332.1</ele>
        <time>2021-08-10T07:32:00Z</time>
      </trkpt>
      <trkpt lat="44.54208" lon="3.74935">
        <ele>1332.3</ele>
        <time>2021-08-10T07:32:02Z</time>
      </trkpt>
      <trkpt lat="44.54205" lon="3.74938">
        <ele>1332.5</ele>
        <time>2021-08-10T07:32:04Z</time>
      </trkpt>
      <trkpt lat="44.54202" lon="3.7494">
        <ele>1332.4</ele>
        <time>2021-08-10T07:32:06Z</time>
      </trkpt>
      <trkpt lat="44.54199" lon="3.74942">
        <ele>1332.6</ele>
        <time>2021-08-10T07:32:08Z</time>
      </trkpt>
      <trkpt lat="44.54196" lon="3.74945">
        <ele>1332.8</ele>
        <time>2021-08-10T07:32:10Z</time>
      </trkpt>
      <trkpt lat="44.54193" lon="3.74947">
        <ele>1332.8</ele>
        <time>2021-08-10T07:32:12Z</time>
      </trkpt>
      <trkpt lat="44.5419" lon="3.74949">
        <ele>1332.9</ele>
        <time>2021-08-10T07:32:14Z</time>
      </trkpt>
      <trkpt lat="44.54187" lon="3.74952">
        <ele>1333</ele>
        <time>2021-08-10T07:32:16Z</time>
      </trkpt>
      <trkpt lat="44.54184" lon="3.74953">
        <ele>1332.9</ele>
        <time>2021-08-10T07:32:18Z</time>
      </trkpt>
      <trkpt lat="44.5418" lon="3.74956">
        <ele>1332.9</ele>
        <time>2021-08-10T07:32:20Z</time>
      </trkpt>
      <trkpt lat="44.54177" lon="3.74958">
        <ele>1332.8</ele>
        <time>2021-08-10T07:32:22Z</time>
      </trkpt>
      <trkpt lat="44.54174" lon="3.7496">
        <ele>1332.8</ele>
        <time>2021-08-10T07:32:24Z</time>
      </trkpt>
      <trkpt lat="44.54171" lon="3.7496">
        <ele>1332.4</ele>
        <time>2021-08-10T07:32:26Z</time>
      </trkpt>
      <trkpt lat="44.54168" lon="3.7496">
        <ele>1332</ele>
        <time>2021-08-10T07:32:28Z</time>
      </trkpt>
      <trkpt lat="44.54168" lon="3.7496">
        <ele>1332.1</ele>
        <time>2021-08-10T07:32:30Z</time>
      </trkpt>
      <trkpt lat="44.54168" lon="3.7496">
        <ele>1332.1</ele>
        <time>2021-08-10T07:32:32Z</time>
      </trkpt>
      <trkpt lat="44.54168" lon="3.7496">
        <ele>1332</ele>
        <time>2021-08-10T07:32:34Z</time>
      </trkpt>
      <trkpt lat="44.54167" lon="3.74961">
        <ele>1332.1</ele>
        <time>2021-08-10T07:32:36Z</time>
      </trkpt>
      <trkpt lat="44.5416" lon="3.7497">
        <ele>1334.1</ele>
        <time>2021-08-10T07:39:14Z</time>
      </trkpt>
      <trkpt lat="44.54157" lon="3.74972">
        <ele>1334.4</ele>
        <time>2021-08-10T07:39:16Z</time>
      </trkpt>
      <trkpt lat="44.54155" lon="3.74974">
        <ele>1334.8</ele>
        <time>2021-08-10T07:39:18Z</time>
      </trkpt>
      <trkpt lat="44.54152" lon="3.74977">
        <ele>1335.3</ele>
        <time>2021-08-10T07:39:20Z</time>
      </trkpt>
      <trkpt lat="44.5415" lon="3.74979">
        <ele>1335.7</ele>
        <time>2021-08-10T07:39:22Z</time>
      </trkpt>
      <trkpt lat="44.54149" lon="3.74982">
        <ele>1336.1</ele>
        <time>2021-08-10T07:39:24Z</time>
      </trkpt>
      <trkpt lat="44.54146" lon="3.74985">
        <ele>1336.6</ele>
        <time>2021-08-10T07:39:26Z</time>
      </trkpt>
      <trkpt lat="44.54144" lon="3.74988">
        <ele>1337.1</ele>
        <time>2021-08-10T07:39:28Z</time>
      </trkpt>
      <trkpt lat="44.54142" lon="3.74992">
        <ele>1337.6</ele>
        <time>2021-08-10T07:39:30Z</time>
      </trkpt>
      <trkpt lat="44.5414" lon="3.74995">
        <ele>1338</ele>
        <time>2021-08-10T07:39:32Z</time>
      </trkpt>
      <trkpt lat="44.54138" lon="3.74999">
        <ele>1338.4</ele>
        <time>2021-08-10T07:39:34Z</time>
      </trkpt>
      <trkpt lat="44.54137" lon="3.75002">
        <ele>1338.9</ele>
        <time>2021-08-10T07:39:36Z</time>
      </trkpt>
      <trkpt lat="44.54135" lon="3.75006">
        <ele>1339.4</ele>
        <time>2021-08-10T07:39:38Z</time>
      </trkpt>
      <trkpt lat="44.54134" lon="3.75009">
        <ele>1339.8</ele>
        <time>2021-08-10T07:39:40Z</time>
      </trkpt>
      <trkpt lat="44.54132" lon="3.75014">
        <ele>1340.4</ele>
        <time>2021-08-10T07:39:42Z</time>
      </trkpt>
      <trkpt lat="44.54131" lon="3.75018">
        <ele>1340.8</ele>
        <time>2021-08-10T07:39:44Z</time>
      </trkpt>
      <trkpt lat="44.54129" lon="3.75022">
        <ele>1341.3</ele>
        <time>2021-08-10T07:39:46Z</time>
      </trkpt>
      <trkpt lat="44.54128" lon="3.75026">
        <ele>1341.8</ele>
        <time>2021-08-10T07:39:48Z</time>
      </trkpt>
      <trkpt lat="44.54128" lon="3.7503">
        <ele>1342.4</ele>
        <time>2021-08-10T07:39:50Z</time>
      </trkpt>
      <trkpt lat="44.54126" lon="3.75034">
        <ele>1342.8</ele>
        <time>2021-08-10T07:39:52Z</time>
      </trkpt>
      <trkpt lat="44.54125" lon="3.75038">
        <ele>1343.2</ele>
        <time>2021-08-10T07:39:54Z</time>
      </trkpt>
      <trkpt lat="44.54125" lon="3.75042">
        <ele>1343.8</ele>
        <time>2021-08-10T07:39:56Z</time>
      </trkpt>
      <trkpt lat="44.54124" lon="3.75046">
        <ele>1344.3</ele>
        <time>2021-08-10T07:39:58Z</time>
      </trkpt>
      <trkpt lat="44.54123" lon="3.7505">
        <ele>1344.7</ele>
        <time>2021-08-10T07:40:00Z</time>
      </trkpt>
      <trkpt lat="44.54122" lon="3.75054">
        <ele>1345.1</ele>
        <time>2021-08-10T07:40:02Z</time>
      </trkpt>
      <trkpt lat="44.54121" lon="3.75058">
        <ele>1345.6</ele>
        <time>2021-08-10T07:40:04Z</time>
      </trkpt>
      <trkpt lat="44.54121" lon="3.75063">
        <ele>1346.1</ele>
        <time>2021-08-10T07:40:06Z</time>
      </trkpt>
      <trkpt lat="44.5412" lon="3.75067">
        <ele>1346.6</ele>
        <time>2021-08-10T07:40:08Z</time>
      </trkpt>
      <trkpt lat="44.54119" lon="3.75071">
        <ele>1347.1</ele>
        <time>2021-08-10T07:40:10Z</time>
      </trkpt>
      <trkpt lat="44.54118" lon="3.75075">
        <ele>1347.6</ele>
        <time>2021-08-10T07:40:12Z</time>
      </trkpt>
      <trkpt lat="44.54118" lon="3.7508">
        <ele>1348.1</ele>
        <time>2021-08-10T07:40:14Z</time>
      </trkpt>
      <trkpt lat="44.54118" lon="3.75084">
        <ele>1348.7</ele>
        <time>2021-08-10T07:40:16Z</time>
      </trkpt>
      <trkpt lat="44.54117" lon="3.75088">
        <ele>1349.2</ele>
        <time>2021-08-10T07:40:18Z</time>
      </trkpt>
      <trkpt lat="44.54117" lon="3.75092">
        <ele>1349.8</ele>
        <time>2021-08-10T07:40:20Z</time>
      </trkpt>
      <trkpt lat="44.54117" lon="3.75097">
        <ele>1350.5</ele>
        <time>2021-08-10T07:40:22Z</time>
      </trkpt>
      <trkpt lat="44.54117" lon="3.75101">
        <ele>1351.3</ele>
        <time>2021-08-10T07:40:24Z</time>
      </trkpt>
      <trkpt lat="44.54117" lon="3.75106">
        <ele>1351.9</ele>
        <time>2021-08-10T07:40:26Z</time>
      </trkpt>
      <trkpt lat="44.54117" lon="3.7511">
        <ele>1352.6</ele>
        <time>2021-08-10T07:40:28Z</time>
      </trkpt>
      <trkpt lat="44.54117" lon="3.75115">
        <ele>1353.3</ele>
        <time>2021-08-10T07:40:30Z</time>
      </trkpt>
      <trkpt lat="44.54117" lon="3.75119">
        <ele>1354.1</ele>
        <time>2021-08-10T07:40:32Z</time>
      </trkpt>
      <trkpt lat="44.54118" lon="3.75123">
        <ele>1354.8</ele>
        <time>2021-08-10T07:40:34Z</time>
      </trkpt>
      <trkpt lat="44.54118" lon="3.75128">
        <ele>1355.5</ele>
        <time>2021-08-10T07:40:36Z</time>
      </trkpt>
      <trkpt lat="44.54117" lon="3.75132">
        <ele>1356</ele>
        <time>2021-08-10T07:40:38Z</time>
      </trkpt>
      <trkpt lat="44.54117" lon="3.75136">
        <ele>1356.7</ele>
        <time>2021-08-10T07:40:40Z</time>
      </trkpt>
      <trkpt lat="44.54116" lon="3.7514">
        <ele>1357.3</ele>
        <time>2021-08-10T07:40:42Z</time>
      </trkpt>
      <trkpt lat="44.54115" lon="3.75144">
        <ele>1357.7</ele>
        <time>2021-08-10T07:40:44Z</time>
      </trkpt>
      <trkpt lat="44.54113" lon="3.75148">
        <ele>1358.1</ele>
        <time>2021-08-10T07:40:46Z</time>
      </trkpt>
      <trkpt lat="44.54112" lon="3.75152">
        <ele>1358.6</ele>
        <time>2021-08-10T07:40:48Z</time>
      </trkpt>
      <trkpt lat="44.54111" lon="3.75156">
        <ele>1359</ele>
        <time>2021-08-10T07:40:50Z</time>
      </trkpt>
      <trkpt lat="44.54109" lon="3.75159">
        <ele>1359.3</ele>
        <time>2021-08-10T07:40:52Z</time>
      </trkpt>
      <trkpt lat="44.54108" lon="3.75163">
        <ele>1359.7</ele>
        <time>2021-08-10T07:40:54Z</time>
      </trkpt>
      <trkpt lat="44.54106" lon="3.75166">
        <ele>1360</ele>
        <time>2021-08-10T07:40:56Z</time>
      </trkpt>
      <trkpt lat="44.54105" lon="3.7517">
        <ele>1360.4</ele>
        <time>2021-08-10T07:40:58Z</time>
      </trkpt>
      <trkpt lat="44.54104" lon="3.75173">
        <ele>1360.8</ele>
        <time>2021-08-10T07:41:00Z</time>
      </trkpt>
      <trkpt lat="44.54102" lon="3.75177">
        <ele>1361.1</ele>
        <time>2021-08-10T07:41:02Z</time>
      </trkpt>
      <trkpt lat="44.54101" lon="3.7518">
        <ele>1361.5</ele>
        <time>2021-08-10T07:41:04Z</time>
      </trkpt>
      <trkpt lat="44.54099" lon="3.75183">
        <ele>1361.7</ele>
        <time>2021-08-10T07:41:06Z</time>
      </trkpt>
      <trkpt lat="44.54097" lon="3.75187">
        <ele>1362.2</ele>
        <time>2021-08-10T07:41:08Z</time>
      </trkpt>
      <trkpt lat="44.54096" lon="3.7519">
        <ele>1362.5</ele>
        <time>2021-08-10T07:41:10Z</time>
      </trkpt>
      <trkpt lat="44.54095" lon="3.75194">
        <ele>1363</ele>
        <time>2021-08-10T07:41:12Z</time>
      </trkpt>
      <trkpt lat="44.54093" lon="3.75198">
        <ele>1363.4</ele>
        <time>2021-08-10T07:41:14Z</time>
      </trkpt>
      <trkpt lat="44.54092" lon="3.75202">
        <ele>1363.7</ele>
        <time>2021-08-10T07:41:16Z</time>
      </trkpt>
      <trkpt lat="44.5409" lon="3.75205">
        <ele>1363.8</ele>
        <time>2021-08-10T07:41:18Z</time>
      </trkpt>
      <trkpt lat="44.54087" lon="3.75207">
        <ele>1363.9</ele>
        <time>2021-08-10T07:41:20Z</time>
      </trkpt>
      <trkpt lat="44.54085" lon="3.7521">
        <ele>1364</ele>
        <time>2021-08-10T07:41:22Z</time>
      </trkpt>
      <trkpt lat="44.54083" lon="3.75213">
        <ele>1364.3</ele>
        <time>2021-08-10T07:41:24Z</time>
      </trkpt>
      <trkpt lat="44.5408" lon="3.75213">
        <ele>1364.7</ele>
        <time>2021-08-10T07:41:26Z</time>
      </trkpt>
      <trkpt lat="44.54077" lon="3.75212">
        <ele>1365</ele>
        <time>2021-08-10T07:41:28Z</time>
      </trkpt>
      <trkpt lat="44.54074" lon="3.7521">
        <ele>1365</ele>
        <time>2021-08-10T07:41:30Z</time>
      </trkpt>
      <trkpt lat="44.54071" lon="3.75208">
        <ele>1365</ele>
        <time>2021-08-10T07:41:32Z</time>
      </trkpt>
      <trkpt lat="44.54069" lon="3.75205">
        <ele>1365</ele>
        <time>2021-08-10T07:41:34Z</time>
      </trkpt>
      <trkpt lat="44.54066" lon="3.75203">
        <ele>1365</ele>
        <time>2021-08-10T07:41:36Z</time>
      </trkpt>
      <trkpt lat="44.54063" lon="3.752">
        <ele>1364.9</ele>
        <time>2021-08-10T07:41:38Z</time>
      </trkpt>
      <trkpt lat="44.54061" lon="3.75197">
        <ele>1364.8</ele>
        <time>2021-08-10T07:41:40Z</time>
      </trkpt>
      <trkpt lat="44.54058" lon="3.75194">
        <ele>1364.7</ele>
        <time>2021-08-10T07:41:42Z</time>
      </trkpt>
      <trkpt lat="44.54055" lon="3.75191">
        <ele>1364.7</ele>
        <time>2021-08-10T07:41:44Z</time>
      </trkpt>
      <trkpt lat="44.54052" lon="3.75189">
        <ele>1364.7</ele>
        <time>2021-08-10T07:41:46Z</time>
      </trkpt>
      <trkpt lat="44.5405" lon="3.75186">
        <ele>1364.6</ele>
        <time>2021-08-10T07:41:48Z</time>
      </trkpt>
      <trkpt lat="44.54047" lon="3.75183">
        <ele>1364.4</ele>
        <time>2021-08-10T07:41:50Z</time>
      </trkpt>
      <trkpt lat="44.54044" lon="3.7518">
        <ele>1364.4</ele>
        <time>2021-08-10T07:41:52Z</time>
      </trkpt>
      <trkpt lat="44.54041" lon="3.75178">
        <ele>1364.4</ele>
        <time>2021-08-10T07:41:54Z</time>
      </trkpt>
      <trkpt lat="44.54038" lon="3.75176">
        <ele>1364.4</ele>
        <time>2021-08-10T07:41:56Z</time>
      </trkpt>
      <trkpt lat="44.54036" lon="3.75174">
        <ele>1364.5</ele>
        <time>2021-08-10T07:41:58Z</time>
      </trkpt>
      <trkpt lat="44.54032" lon="3.75172">
        <ele>1364.6</ele>
        <time>2021-08-10T07:42:00Z</time>
      </trkpt>
      <trkpt lat="44.54029" lon="3.75171">
        <ele>1364.8</ele>
        <time>2021-08-10T07:42:02Z</time>
      </trkpt>
      <trkpt lat="44.54026" lon="3.75169">
        <ele>1364.9</ele>
        <time>2021-08-10T07:42:04Z</time>
      </trkpt>
      <trkpt lat="44.54023" lon="3.75168">
        <ele>1365.1</ele>
        <time>2021-08-10T07:42:06Z</time>
      </trkpt>
      <trkpt lat="44.5402" lon="3.75167">
        <ele>1365.4</ele>
        <time>2021-08-10T07:42:08Z</time>
      </trkpt>
      <trkpt lat="44.54017" lon="3.75166">
        <ele>1365.7</ele>
        <time>2021-08-10T07:42:10Z</time>
      </trkpt>
      <trkpt lat="44.54014" lon="3.75165">
        <ele>1366</ele>
        <time>2021-08-10T07:42:12Z</time>
      </trkpt>
      <trkpt lat="44.54011" lon="3.75164">
        <ele>1366.3</ele>
        <time>2021-08-10T07:42:14Z</time>
      </trkpt>
      <trkpt lat="44.54008" lon="3.75163">
        <ele>1366.6</ele>
        <time>2021-08-10T07:42:16Z</time>
      </trkpt>
      <trkpt lat="44.54004" lon="3.75162">
        <ele>1367</ele>
        <time>2021-08-10T07:42:18Z</time>
      </trkpt>
      <trkpt lat="44.54001" lon="3.75161">
        <ele>1367.4</ele>
        <time>2021-08-10T07:42:20Z</time>
      </trkpt>
      <trkpt lat="44.53998" lon="3.75159">
        <ele>1367.8</ele>
        <time>2021-08-10T07:42:22Z</time>
      </trkpt>
      <trkpt lat="44.53995" lon="3.75158">
        <ele>1368.3</ele>
        <time>2021-08-10T07:42:24Z</time>
      </trkpt>
      <trkpt lat="44.53992" lon="3.75157">
        <ele>1368.8</ele>
        <time>2021-08-10T07:42:26Z</time>
      </trkpt>
      <trkpt lat="44.53989" lon="3.75156">
        <ele>1369.4</ele>
        <time>2021-08-10T07:42:28Z</time>
      </trkpt>
      <trkpt lat="44.53986" lon="3.75155">
        <ele>1370.1</ele>
        <time>2021-08-10T07:42:30Z</time>
      </trkpt>
      <trkpt lat="44.53983" lon="3.75154">
        <ele>1370.6</ele>
        <time>2021-08-10T07:42:32Z</time>
      </trkpt>
      <trkpt lat="44.5398" lon="3.75152">
        <ele>1371.1</ele>
        <time>2021-08-10T07:42:34Z</time>
      </trkpt>
      <trkpt lat="44.53977" lon="3.75151">
        <ele>1371.7</ele>
        <time>2021-08-10T07:42:36Z</time>
      </trkpt>
      <trkpt lat="44.53974" lon="3.7515">
        <ele>1372.2</ele>
        <time>2021-08-10T07:42:38Z</time>
      </trkpt>
      <trkpt lat="44.53971" lon="3.75149">
        <ele>1372.9</ele>
        <time>2021-08-10T07:42:40Z</time>
      </trkpt>
      <trkpt lat="44.53968" lon="3.75148">
        <ele>1373.4</ele>
        <time>2021-08-10T07:42:42Z</time>
      </trkpt>
      <trkpt lat="44.53965" lon="3.75146">
        <ele>1373.9</ele>
        <time>2021-08-10T07:42:44Z</time>
      </trkpt>
      <trkpt lat="44.53961" lon="3.75145">
        <ele>1374.5</ele>
        <time>2021-08-10T07:42:46Z</time>
      </trkpt>
      <trkpt lat="44.53958" lon="3.75144">
        <ele>1375</ele>
        <time>2021-08-10T07:42:48Z</time>
      </trkpt>
      <trkpt lat="44.53956" lon="3.75143">
        <ele>1375.6</ele>
        <time>2021-08-10T07:42:50Z</time>
      </trkpt>
      <trkpt lat="44.53953" lon="3.75141">
        <ele>1376</ele>
        <time>2021-08-10T07:42:52Z</time>
      </trkpt>
      <trkpt lat="44.5395" lon="3.7514">
        <ele>1376.6</ele>
        <time>2021-08-10T07:42:54Z</time>
      </trkpt>
      <trkpt lat="44.53946" lon="3.75139">
        <ele>1377.3</ele>
        <time>2021-08-10T07:42:56Z</time>
      </trkpt>
      <trkpt lat="44.53943" lon="3.75138">
        <ele>1377.8</ele>
        <time>2021-08-10T07:42:58Z</time>
      </trkpt>
      <trkpt lat="44.5394" lon="3.75137">
        <ele>1378.4</ele>
        <time>2021-08-10T07:43:00Z</time>
      </trkpt>
      <trkpt lat="44.53937" lon="3.75136">
        <ele>1379</ele>
        <time>2021-08-10T07:43:02Z</time>
      </trkpt>
      <trkpt lat="44.53934" lon="3.75135">
        <ele>1379.6</ele>
        <time>2021-08-10T07:43:04Z</time>
      </trkpt>
      <trkpt lat="44.53931" lon="3.75133">
        <ele>1380.1</ele>
        <time>2021-08-10T07:43:06Z</time>
      </trkpt>
      <trkpt lat="44.53928" lon="3.75132">
        <ele>1380.6</ele>
        <time>2021-08-10T07:43:08Z</time>
      </trkpt>
      <trkpt lat="44.53925" lon="3.75131">
        <ele>1381.2</ele>
        <time>2021-08-10T07:43:10Z</time>
      </trkpt>
      <trkpt lat="44.53922" lon="3.75129">
        <ele>1381.7</ele>
        <time>2021-08-10T07:43:12Z</time>
      </trkpt>
      <trkpt lat="44.53919" lon="3.75128">
        <ele>1382.2</ele>
        <time>2021-08-10T07:43:14Z</time>
      </trkpt>
      <trkpt lat="44.53916" lon="3.75126">
        <ele>1382.8</ele>
        <time>2021-08-10T07:43:16Z</time>
      </trkpt>
      <trkpt lat="44.53913" lon="3.75125">
        <ele>1383.5</ele>
        <time>2021-08-10T07:43:18Z</time>
      </trkpt>
      <trkpt lat="44.5391" lon="3.75123">
        <ele>1384.2</ele>
        <time>2021-08-10T07:43:20Z</time>
      </trkpt>
      <trkpt lat="44.53907" lon="3.75122">
        <ele>1384.9</ele>
        <time>2021-08-10T07:43:22Z</time>
      </trkpt>
      <trkpt lat="44.53904" lon="3.75121">
        <ele>1385.5</ele>
        <time>2021-08-10T07:43:24Z</time>
      </trkpt>
      <trkpt lat="44.53901" lon="3.7512">
        <ele>1386.3</ele>
        <time>2021-08-10T07:43:26Z</time>
      </trkpt>
      <trkpt lat="44.53898" lon="3.75119">
        <ele>1387.1</ele>
        <time>2021-08-10T07:43:28Z</time>
      </trkpt>
      <trkpt lat="44.53895" lon="3.75117">
        <ele>1387.7</ele>
        <time>2021-08-10T07:43:30Z</time>
      </trkpt>
      <trkpt lat="44.53892" lon="3.75115">
        <ele>1388.4</ele>
        <time>2021-08-10T07:43:32Z</time>
      </trkpt>
      <trkpt lat="44.53889" lon="3.75112">
        <ele>1388.9</ele>
        <time>2021-08-10T07:43:34Z</time>
      </trkpt>
      <trkpt lat="44.53887" lon="3.75109">
        <ele>1389.4</ele>
        <time>2021-08-10T07:43:36Z</time>
      </trkpt>
      <trkpt lat="44.53885" lon="3.75105">
        <ele>1389.6</ele>
        <time>2021-08-10T07:43:38Z</time>
      </trkpt>
      <trkpt lat="44.53884" lon="3.751">
        <ele>1389.5</ele>
        <time>2021-08-10T07:43:40Z</time>
      </trkpt>
      <trkpt lat="44.53883" lon="3.75095">
        <ele>1389.1</ele>
        <time>2021-08-10T07:43:42Z</time>
      </trkpt>
      <trkpt lat="44.53884" lon="3.7509">
        <ele>1388.6</ele>
        <time>2021-08-10T07:43:44Z</time>
      </trkpt>
      <trkpt lat="44.53885" lon="3.75086">
        <ele>1388</ele>
        <time>2021-08-10T07:43:46Z</time>
      </trkpt>
      <trkpt lat="44.53887" lon="3.75081">
        <ele>1387.3</ele>
        <time>2021-08-10T07:43:48Z</time>
      </trkpt>
      <trkpt lat="44.53889" lon="3.75077">
        <ele>1387.1</ele>
        <time>2021-08-10T07:43:50Z</time>
      </trkpt>
      <trkpt lat="44.53891" lon="3.75073">
        <ele>1387</ele>
        <time>2021-08-10T07:43:52Z</time>
      </trkpt>
      <trkpt lat="44.53893" lon="3.75069">
        <ele>1386.6</ele>
        <time>2021-08-10T07:43:54Z</time>
      </trkpt>
      <trkpt lat="44.53895" lon="3.75065">
        <ele>1386.4</ele>
        <time>2021-08-10T07:43:56Z</time>
      </trkpt>
      <trkpt lat="44.53897" lon="3.75061">
        <ele>1386.2</ele>
        <time>2021-08-10T07:43:58Z</time>
      </trkpt>
      <trkpt lat="44.539" lon="3.75057">
        <ele>1385.8</ele>
        <time>2021-08-10T07:44:00Z</time>
      </trkpt>
      <trkpt lat="44.53902" lon="3.75052">
        <ele>1385.5</ele>
        <time>2021-08-10T07:44:02Z</time>
      </trkpt>
      <trkpt lat="44.53904" lon="3.75048">
        <ele>1385.3</ele>
        <time>2021-08-10T07:44:04Z</time>
      </trkpt>
      <trkpt lat="44.53905" lon="3.75044">
        <ele>1385.2</ele>
        <time>2021-08-10T07:44:06Z</time>
      </trkpt>
      <trkpt lat="44.53906" lon="3.75039">
        <ele>1385.1</ele>
        <time>2021-08-10T07:44:08Z</time>
      </trkpt>
      <trkpt lat="44.53908" lon="3.75035">
        <ele>1385</ele>
        <time>2021-08-10T07:44:10Z</time>
      </trkpt>
      <trkpt lat="44.53909" lon="3.75031">
        <ele>1384.9</ele>
        <time>2021-08-10T07:44:12Z</time>
      </trkpt>
      <trkpt lat="44.53911" lon="3.75026">
        <ele>1384.8</ele>
        <time>2021-08-10T07:44:14Z</time>
      </trkpt>
      <trkpt lat="44.53911" lon="3.75022">
        <ele>1385</ele>
        <time>2021-08-10T07:44:16Z</time>
      </trkpt>
      <trkpt lat="44.53912" lon="3.75018">
        <ele>1385</ele>
        <time>2021-08-10T07:44:18Z</time>
      </trkpt>
      <trkpt lat="44.53913" lon="3.75014">
        <ele>1385.1</ele>
        <time>2021-08-10T07:44:20Z</time>
      </trkpt>
      <trkpt lat="44.53913" lon="3.75009">
        <ele>1385.3</ele>
        <time>2021-08-10T07:44:22Z</time>
      </trkpt>
      <trkpt lat="44.53914" lon="3.75004">
        <ele>1385.5</ele>
        <time>2021-08-10T07:44:24Z</time>
      </trkpt>
      <trkpt lat="44.53915" lon="3.75">
        <ele>1385.6</ele>
        <time>2021-08-10T07:44:26Z</time>
      </trkpt>
      <trkpt lat="44.53915" lon="3.74996">
        <ele>1385.7</ele>
        <time>2021-08-10T07:44:28Z</time>
      </trkpt>
      <trkpt lat="44.53916" lon="3.74991">
        <ele>1385.7</ele>
        <time>2021-08-10T07:44:30Z</time>
      </trkpt>
      <trkpt lat="44.53916" lon="3.74987">
        <ele>1385.7</ele>
        <time>2021-08-10T07:44:32Z</time>
      </trkpt>
      <trkpt lat="44.53916" lon="3.74982">
        <ele>1385.9</ele>
        <time>2021-08-10T07:44:34Z</time>
      </trkpt>
      <trkpt lat="44.53916" lon="3.74977">
        <ele>1386.2</ele>
        <time>2021-08-10T07:44:36Z</time>
      </trkpt>
      <trkpt lat="44.53916" lon="3.74973">
        <ele>1386.2</ele>
        <time>2021-08-10T07:44:38Z</time>
      </trkpt>
      <trkpt lat="44.53916" lon="3.74968">
        <ele>1386.4</ele>
        <time>2021-08-10T07:44:40Z</time>
      </trkpt>
      <trkpt lat="44.53916" lon="3.74964">
        <ele>1386.6</ele>
        <time>2021-08-10T07:44:42Z</time>
      </trkpt>
      <trkpt lat="44.53916" lon="3.74959">
        <ele>1386.7</ele>
        <time>2021-08-10T07:44:44Z</time>
      </trkpt>
      <trkpt lat="44.53916" lon="3.74955">
        <ele>1386.9</ele>
        <time>2021-08-10T07:44:46Z</time>
      </trkpt>
      <trkpt lat="44.53915" lon="3.7495">
        <ele>1387.2</ele>
        <time>2021-08-10T07:44:48Z</time>
      </trkpt>
      <trkpt lat="44.53915" lon="3.74946">
        <ele>1387.4</ele>
        <time>2021-08-10T07:44:50Z</time>
      </trkpt>
      <trkpt lat="44.53915" lon="3.74941">
        <ele>1387.6</ele>
        <time>2021-08-10T07:44:52Z</time>
      </trkpt>
      <trkpt lat="44.53915" lon="3.74936">
        <ele>1387.8</ele>
        <time>2021-08-10T07:44:54Z</time>
      </trkpt>
      <trkpt lat="44.53914" lon="3.74932">
        <ele>1388.3</ele>
        <time>2021-08-10T07:44:56Z</time>
      </trkpt>
      <trkpt lat="44.53915" lon="3.74927">
        <ele>1388.2</ele>
        <time>2021-08-10T07:44:58Z</time>
      </trkpt>
      <trkpt lat="44.53915" lon="3.74923">
        <ele>1388.5</ele>
        <time>2021-08-10T07:45:00Z</time>
      </trkpt>
      <trkpt lat="44.53914" lon="3.74918">
        <ele>1388.8</ele>
        <time>2021-08-10T07:45:02Z</time>
      </trkpt>
      <trkpt lat="44.53914" lon="3.74914">
        <ele>1389.2</ele>
        <time>2021-08-10T07:45:04Z</time>
      </trkpt>
      <trkpt lat="44.53913" lon="3.74909">
        <ele>1389.7</ele>
        <time>2021-08-10T07:45:06Z</time>
      </trkpt>
      <trkpt lat="44.53913" lon="3.74905">
        <ele>1390.1</ele>
        <time>2021-08-10T07:45:08Z</time>
      </trkpt>
      <trkpt lat="44.53913" lon="3.74901">
        <ele>1390.5</ele>
        <time>2021-08-10T07:45:10Z</time>
      </trkpt>
      <trkpt lat="44.53912" lon="3.74896">
        <ele>1391.2</ele>
        <time>2021-08-10T07:45:12Z</time>
      </trkpt>
      <trkpt lat="44.53912" lon="3.74892">
        <ele>1391.6</ele>
        <time>2021-08-10T07:45:14Z</time>
      </trkpt>
      <trkpt lat="44.53911" lon="3.74888">
        <ele>1392.3</ele>
        <time>2021-08-10T07:45:16Z</time>
      </trkpt>
      <trkpt lat="44.5391" lon="3.74883">
        <ele>1392.9</ele>
        <time>2021-08-10T07:45:18Z</time>
      </trkpt>
      <trkpt lat="44.53909" lon="3.74879">
        <ele>1393.5</ele>
        <time>2021-08-10T07:45:20Z</time>
      </trkpt>
      <trkpt lat="44.53909" lon="3.74875">
        <ele>1393.8</ele>
        <time>2021-08-10T07:45:22Z</time>
      </trkpt>
      <trkpt lat="44.53909" lon="3.7487">
        <ele>1394.4</ele>
        <time>2021-08-10T07:45:24Z</time>
      </trkpt>
      <trkpt lat="44.53909" lon="3.74865">
        <ele>1394.8</ele>
        <time>2021-08-10T07:45:26Z</time>
      </trkpt>
      <trkpt lat="44.53908" lon="3.7486">
        <ele>1395.5</ele>
        <time>2021-08-10T07:45:28Z</time>
      </trkpt>
      <trkpt lat="44.53908" lon="3.74856">
        <ele>1396</ele>
        <time>2021-08-10T07:45:30Z</time>
      </trkpt>
      <trkpt lat="44.53907" lon="3.74852">
        <ele>1396.6</ele>
        <time>2021-08-10T07:45:32Z</time>
      </trkpt>
      <trkpt lat="44.53907" lon="3.74847">
        <ele>1396.9</ele>
        <time>2021-08-10T07:45:34Z</time>
      </trkpt>
      <trkpt lat="44.53907" lon="3.74842">
        <ele>1397.3</ele>
        <time>2021-08-10T07:45:36Z</time>
      </trkpt>
      <trkpt lat="44.53907" lon="3.74838">
        <ele>1397.8</ele>
        <time>2021-08-10T07:45:38Z</time>
      </trkpt>
      <trkpt lat="44.53907" lon="3.74833">
        <ele>1398.2</ele>
        <time>2021-08-10T07:45:40Z</time>
      </trkpt>
      <trkpt lat="44.53907" lon="3.74828">
        <ele>1398.7</ele>
        <time>2021-08-10T07:45:42Z</time>
      </trkpt>
      <trkpt lat="44.53907" lon="3.74824">
        <ele>1399.2</ele>
        <time>2021-08-10T07:45:44Z</time>
      </trkpt>
      <trkpt lat="44.53907" lon="3.74819">
        <ele>1399.5</ele>
        <time>2021-08-10T07:45:46Z</time>
      </trkpt>
      <trkpt lat="44.53907" lon="3.74814">
        <ele>1400</ele>
        <time>2021-08-10T07:45:48Z</time>
      </trkpt>
      <trkpt lat="44.53907" lon="3.74809">
        <ele>1400.5</ele>
        <time>2021-08-10T07:45:50Z</time>
      </trkpt>
      <trkpt lat="44.53907" lon="3.74804">
        <ele>1400.9</ele>
        <time>2021-08-10T07:45:52Z</time>
      </trkpt>
      <trkpt lat="44.53908" lon="3.74799">
        <ele>1401.2</ele>
        <time>2021-08-10T07:45:54Z</time>
      </trkpt>
      <trkpt lat="44.53909" lon="3.74795">
        <ele>1401.4</ele>
        <time>2021-08-10T07:45:56Z</time>
      </trkpt>
      <trkpt lat="44.53909" lon="3.74791">
        <ele>1401.6</ele>
        <time>2021-08-10T07:45:58Z</time>
      </trkpt>
      <trkpt lat="44.5391" lon="3.74786">
        <ele>1401.8</ele>
        <time>2021-08-10T07:46:00Z</time>
      </trkpt>
      <trkpt lat="44.53911" lon="3.74782">
        <ele>1402</ele>
        <time>2021-08-10T07:46:02Z</time>
      </trkpt>
      <trkpt lat="44.53912" lon="3.74777">
        <ele>1402.1</ele>
        <time>2021-08-10T07:46:04Z</time>
      </trkpt>
      <trkpt lat="44.53913" lon="3.74773">
        <ele>1402.2</ele>
        <time>2021-08-10T07:46:06Z</time>
      </trkpt>
      <trkpt lat="44.53914" lon="3.74768">
        <ele>1402.3</ele>
        <time>2021-08-10T07:46:08Z</time>
      </trkpt>
      <trkpt lat="44.53915" lon="3.74764">
        <ele>1402.4</ele>
        <time>2021-08-10T07:46:10Z</time>
      </trkpt>
      <trkpt lat="44.53915" lon="3.74759">
        <ele>1402.7</ele>
        <time>2021-08-10T07:46:12Z</time>
      </trkpt>
      <trkpt lat="44.53916" lon="3.74755">
        <ele>1402.6</ele>
        <time>2021-08-10T07:46:14Z</time>
      </trkpt>
      <trkpt lat="44.53918" lon="3.7475">
        <ele>1402.7</ele>
        <time>2021-08-10T07:46:16Z</time>
      </trkpt>
      <trkpt lat="44.53919" lon="3.74746">
        <ele>1403</ele>
        <time>2021-08-10T07:46:18Z</time>
      </trkpt>
      <trkpt lat="44.53919" lon="3.74741">
        <ele>1403.4</ele>
        <time>2021-08-10T07:46:20Z</time>
      </trkpt>
      <trkpt lat="44.5392" lon="3.74737">
        <ele>1403.7</ele>
        <time>2021-08-10T07:46:22Z</time>
      </trkpt>
      <trkpt lat="44.53921" lon="3.74733">
        <ele>1404</ele>
        <time>2021-08-10T07:46:24Z</time>
      </trkpt>
      <trkpt lat="44.53922" lon="3.74728">
        <ele>1404.4</ele>
        <time>2021-08-10T07:46:26Z</time>
      </trkpt>
      <trkpt lat="44.53923" lon="3.74724">
        <ele>1404.6</ele>
        <time>2021-08-10T07:46:28Z</time>
      </trkpt>
      <trkpt lat="44.53924" lon="3.7472">
        <ele>1404.8</ele>
        <time>2021-08-10T07:46:30Z</time>
      </trkpt>
      <trkpt lat="44.53926" lon="3.74715">
        <ele>1405.2</ele>
        <time>2021-08-10T07:46:32Z</time>
      </trkpt>
      <trkpt lat="44.53926" lon="3.74711">
        <ele>1405.7</ele>
        <time>2021-08-10T07:46:34Z</time>
      </trkpt>
      <trkpt lat="44.53927" lon="3.74706">
        <ele>1406.1</ele>
        <time>2021-08-10T07:46:36Z</time>
      </trkpt>
      <trkpt lat="44.53928" lon="3.74702">
        <ele>1406.2</ele>
        <time>2021-08-10T07:46:38Z</time>
      </trkpt>
      <trkpt lat="44.53929" lon="3.74697">
        <ele>1406.5</ele>
        <time>2021-08-10T07:46:40Z</time>
      </trkpt>
      <trkpt lat="44.53931" lon="3.74693">
        <ele>1406.8</ele>
        <time>2021-08-10T07:46:42Z</time>
      </trkpt>
      <trkpt lat="44.53932" lon="3.74689">
        <ele>1407.1</ele>
        <time>2021-08-10T07:46:44Z</time>
      </trkpt>
      <trkpt lat="44.53933" lon="3.74685">
        <ele>1407.4</ele>
        <time>2021-08-10T07:46:46Z</time>
      </trkpt>
      <trkpt lat="44.53934" lon="3.74681">
        <ele>1407.5</ele>
        <time>2021-08-10T07:46:48Z</time>
      </trkpt>
      <trkpt lat="44.53935" lon="3.74676">
        <ele>1407.8</ele>
        <time>2021-08-10T07:46:50Z</time>
      </trkpt>
      <trkpt lat="44.53937" lon="3.74671">
        <ele>1408</ele>
        <time>2021-08-10T07:46:52Z</time>
      </trkpt>
      <trkpt lat="44.53939" lon="3.74667">
        <ele>1408.1</ele>
        <time>2021-08-10T07:46:54Z</time>
      </trkpt>
      <trkpt lat="44.53941" lon="3.74663">
        <ele>1407.8</ele>
        <time>2021-08-10T07:46:56Z</time>
      </trkpt>
      <trkpt lat="44.53942" lon="3.74658">
        <ele>1407.5</ele>
        <time>2021-08-10T07:46:58Z</time>
      </trkpt>
      <trkpt lat="44.53943" lon="3.74654">
        <ele>1407.3</ele>
        <time>2021-08-10T07:47:00Z</time>
      </trkpt>
      <trkpt lat="44.53945" lon="3.7465">
        <ele>1407</ele>
        <time>2021-08-10T07:47:02Z</time>
      </trkpt>
      <trkpt lat="44.53947" lon="3.74645">
        <ele>1406.7</ele>
        <time>2021-08-10T07:47:04Z</time>
      </trkpt>
      <trkpt lat="44.53948" lon="3.7464">
        <ele>1406.5</ele>
        <time>2021-08-10T07:47:06Z</time>
      </trkpt>
      <trkpt lat="44.53949" lon="3.74635">
        <ele>1406.5</ele>
        <time>2021-08-10T07:47:08Z</time>
      </trkpt>
      <trkpt lat="44.53949" lon="3.74629">
        <ele>1406.9</ele>
        <time>2021-08-10T07:47:10Z</time>
      </trkpt>
      <trkpt lat="44.53946" lon="3.74625">
        <ele>1407.9</ele>
        <time>2021-08-10T07:47:12Z</time>
      </trkpt>
      <trkpt lat="44.53943" lon="3.74622">
        <ele>1409.1</ele>
        <time>2021-08-10T07:47:14Z</time>
      </trkpt>
      <trkpt lat="44.53939" lon="3.74621">
        <ele>1410.4</ele>
        <time>2021-08-10T07:47:16Z</time>
      </trkpt>
      <trkpt lat="44.53936" lon="3.74623">
        <ele>1411.4</ele>
        <time>2021-08-10T07:47:18Z</time>
      </trkpt>
      <trkpt lat="44.53932" lon="3.74627">
        <ele>1412.3</ele>
        <time>2021-08-10T07:47:20Z</time>
      </trkpt>
      <trkpt lat="44.53931" lon="3.74633">
        <ele>1412.4</ele>
        <time>2021-08-10T07:47:22Z</time>
      </trkpt>
      <trkpt lat="44.53929" lon="3.74639">
        <ele>1412.6</ele>
        <time>2021-08-10T07:47:24Z</time>
      </trkpt>
      <trkpt lat="44.53928" lon="3.74645">
        <ele>1412.8</ele>
        <time>2021-08-10T07:47:26Z</time>
      </trkpt>
      <trkpt lat="44.53926" lon="3.74651">
        <ele>1412.9</ele>
        <time>2021-08-10T07:47:28Z</time>
      </trkpt>
      <trkpt lat="44.53924" lon="3.74656">
        <ele>1413.2</ele>
        <time>2021-08-10T07:47:30Z</time>
      </trkpt>
      <trkpt lat="44.53922" lon="3.74662">
        <ele>1413.5</ele>
        <time>2021-08-10T07:47:32Z</time>
      </trkpt>
      <trkpt lat="44.5392" lon="3.74668">
        <ele>1413.8</ele>
        <time>2021-08-10T07:47:34Z</time>
      </trkpt>
      <trkpt lat="44.53917" lon="3.74672">
        <ele>1414.1</ele>
        <time>2021-08-10T07:47:36Z</time>
      </trkpt>
      <trkpt lat="44.53915" lon="3.74676">
        <ele>1414.2</ele>
        <time>2021-08-10T07:47:38Z</time>
      </trkpt>
      <trkpt lat="44.53912" lon="3.7468">
        <ele>1414.5</ele>
        <time>2021-08-10T07:47:40Z</time>
      </trkpt>
      <trkpt lat="44.5391" lon="3.74684">
        <ele>1414.7</ele>
        <time>2021-08-10T07:47:42Z</time>
      </trkpt>
      <trkpt lat="44.53908" lon="3.74688">
        <ele>1414.9</ele>
        <time>2021-08-10T07:47:44Z</time>
      </trkpt>
      <trkpt lat="44.53905" lon="3.74692">
        <ele>1415.3</ele>
        <time>2021-08-10T07:47:46Z</time>
      </trkpt>
      <trkpt lat="44.53903" lon="3.74696">
        <ele>1415.5</ele>
        <time>2021-08-10T07:47:48Z</time>
      </trkpt>
      <trkpt lat="44.53901" lon="3.74699">
        <ele>1415.9</ele>
        <time>2021-08-10T07:47:50Z</time>
      </trkpt>
      <trkpt lat="44.53899" lon="3.74703">
        <ele>1416.2</ele>
        <time>2021-08-10T07:47:52Z</time>
      </trkpt>
      <trkpt lat="44.53897" lon="3.74706">
        <ele>1416.5</ele>
        <time>2021-08-10T07:47:54Z</time>
      </trkpt>
      <trkpt lat="44.53894" lon="3.7471">
        <ele>1416.9</ele>
        <time>2021-08-10T07:47:56Z</time>
      </trkpt>
      <trkpt lat="44.53892" lon="3.74713">
        <ele>1417.2</ele>
        <time>2021-08-10T07:47:58Z</time>
      </trkpt>
      <trkpt lat="44.5389" lon="3.74717">
        <ele>1417.6</ele>
        <time>2021-08-10T07:48:00Z</time>
      </trkpt>
      <trkpt lat="44.53888" lon="3.74721">
        <ele>1418.1</ele>
        <time>2021-08-10T07:48:02Z</time>
      </trkpt>
      <trkpt lat="44.53885" lon="3.74724">
        <ele>1418.6</ele>
        <time>2021-08-10T07:48:04Z</time>
      </trkpt>
      <trkpt lat="44.53883" lon="3.74727">
        <ele>1419.2</ele>
        <time>2021-08-10T07:48:06Z</time>
      </trkpt>
      <trkpt lat="44.5388" lon="3.74732">
        <ele>1419.7</ele>
        <time>2021-08-10T07:48:08Z</time>
      </trkpt>
      <trkpt lat="44.53878" lon="3.74736">
        <ele>1420.1</ele>
        <time>2021-08-10T07:48:10Z</time>
      </trkpt>
      <trkpt lat="44.53876" lon="3.7474">
        <ele>1420.5</ele>
        <time>2021-08-10T07:48:12Z</time>
      </trkpt>
      <trkpt lat="44.53874" lon="3.74744">
        <ele>1420.9</ele>
        <time>2021-08-10T07:48:14Z</time>
      </trkpt>
      <trkpt lat="44.53873" lon="3.74748">
        <ele>1421</ele>
        <time>2021-08-10T07:48:16Z</time>
      </trkpt>
      <trkpt lat="44.53871" lon="3.74752">
        <ele>1421.7</ele>
        <time>2021-08-10T07:48:18Z</time>
      </trkpt>
      <trkpt lat="44.53869" lon="3.74756">
        <ele>1422</ele>
        <time>2021-08-10T07:48:20Z</time>
      </trkpt>
      <trkpt lat="44.53867" lon="3.74759">
        <ele>1422.3</ele>
        <time>2021-08-10T07:48:22Z</time>
      </trkpt>
      <trkpt lat="44.53866" lon="3.74764">
        <ele>1422.4</ele>
        <time>2021-08-10T07:48:24Z</time>
      </trkpt>
      <trkpt lat="44.53864" lon="3.74768">
        <ele>1422.6</ele>
        <time>2021-08-10T07:48:26Z</time>
      </trkpt>
      <trkpt lat="44.53863" lon="3.74773">
        <ele>1422.7</ele>
        <time>2021-08-10T07:48:28Z</time>
      </trkpt>
      <trkpt lat="44.53861" lon="3.74777">
        <ele>1423</ele>
        <time>2021-08-10T07:48:30Z</time>
      </trkpt>
      <trkpt lat="44.5386" lon="3.74782">
        <ele>1423</ele>
        <time>2021-08-10T07:48:32Z</time>
      </trkpt>
      <trkpt lat="44.53858" lon="3.74786">
        <ele>1423.3</ele>
        <time>2021-08-10T07:48:34Z</time>
      </trkpt>
      <trkpt lat="44.53857" lon="3.7479">
        <ele>1423.4</ele>
        <time>2021-08-10T07:48:36Z</time>
      </trkpt>
      <trkpt lat="44.53855" lon="3.74794">
        <ele>1423.7</ele>
        <time>2021-08-10T07:48:38Z</time>
      </trkpt>
      <trkpt lat="44.53854" lon="3.74799">
        <ele>1423.7</ele>
        <time>2021-08-10T07:48:40Z</time>
      </trkpt>
      <trkpt lat="44.53853" lon="3.74803">
        <ele>1423.9</ele>
        <time>2021-08-10T07:48:42Z</time>
      </trkpt>
      <trkpt lat="44.53851" lon="3.74807">
        <ele>1424</ele>
        <time>2021-08-10T07:48:44Z</time>
      </trkpt>
      <trkpt lat="44.5385" lon="3.74811">
        <ele>1424.4</ele>
        <time>2021-08-10T07:48:46Z</time>
      </trkpt>
      <trkpt lat="44.53849" lon="3.74816">
        <ele>1424.2</ele>
        <time>2021-08-10T07:48:48Z</time>
      </trkpt>
      <trkpt lat="44.53847" lon="3.7482">
        <ele>1424.5</ele>
        <time>2021-08-10T07:48:50Z</time>
      </trkpt>
      <trkpt lat="44.53845" lon="3.74824">
        <ele>1424.8</ele>
        <time>2021-08-10T07:48:52Z</time>
      </trkpt>
      <trkpt lat="44.53844" lon="3.74828">
        <ele>1425</ele>
        <time>2021-08-10T07:48:54Z</time>
      </trkpt>
      <trkpt lat="44.53843" lon="3.74832">
        <ele>1425.2</ele>
        <time>2021-08-10T07:48:56Z</time>
      </trkpt>
      <trkpt lat="44.53841" lon="3.74837">
        <ele>1425.3</ele>
        <time>2021-08-10T07:48:58Z</time>
      </trkpt>
      <trkpt lat="44.53839" lon="3.74841">
        <ele>1425.5</ele>
        <time>2021-08-10T07:49:00Z</time>
      </trkpt>
      <trkpt lat="44.53838" lon="3.74845">
        <ele>1425.6</ele>
        <time>2021-08-10T07:49:02Z</time>
      </trkpt>
      <trkpt lat="44.53836" lon="3.74849">
        <ele>1425.4</ele>
        <time>2021-08-10T07:49:04Z</time>
      </trkpt>
      <trkpt lat="44.53835" lon="3.74853">
        <ele>1425.5</ele>
        <time>2021-08-10T07:49:06Z</time>
      </trkpt>
      <trkpt lat="44.53833" lon="3.74857">
        <ele>1425.7</ele>
        <time>2021-08-10T07:49:08Z</time>
      </trkpt>
      <trkpt lat="44.53832" lon="3.74861">
        <ele>1425.5</ele>
        <time>2021-08-10T07:49:10Z</time>
      </trkpt>
      <trkpt lat="44.53829" lon="3.74865">
        <ele>1425.6</ele>
        <time>2021-08-10T07:49:12Z</time>
      </trkpt>
      <trkpt lat="44.53828" lon="3.74869">
        <ele>1425.6</ele>
        <time>2021-08-10T07:49:14Z</time>
      </trkpt>
      <trkpt lat="44.53826" lon="3.74873">
        <ele>1425.4</ele>
        <time>2021-08-10T07:49:16Z</time>
      </trkpt>
      <trkpt lat="44.53825" lon="3.74877">
        <ele>1425.4</ele>
        <time>2021-08-10T07:49:18Z</time>
      </trkpt>
      <trkpt lat="44.53823" lon="3.74881">
        <ele>1425.4</ele>
        <time>2021-08-10T07:49:20Z</time>
      </trkpt>
      <trkpt lat="44.53821" lon="3.74885">
        <ele>1425.4</ele>
        <time>2021-08-10T07:49:22Z</time>
      </trkpt>
      <trkpt lat="44.5382" lon="3.7489">
        <ele>1425</ele>
        <time>2021-08-10T07:49:24Z</time>
      </trkpt>
      <trkpt lat="44.53818" lon="3.74894">
        <ele>1425.1</ele>
        <time>2021-08-10T07:49:26Z</time>
      </trkpt>
      <trkpt lat="44.53816" lon="3.74898">
        <ele>1425.3</ele>
        <time>2021-08-10T07:49:28Z</time>
      </trkpt>
      <trkpt lat="44.53814" lon="3.74902">
        <ele>1425.5</ele>
        <time>2021-08-10T07:49:30Z</time>
      </trkpt>
      <trkpt lat="44.53812" lon="3.74906">
        <ele>1425.6</ele>
        <time>2021-08-10T07:49:32Z</time>
      </trkpt>
      <trkpt lat="44.5381" lon="3.7491">
        <ele>1425.9</ele>
        <time>2021-08-10T07:49:34Z</time>
      </trkpt>
      <trkpt lat="44.53808" lon="3.74914">
        <ele>1426.1</ele>
        <time>2021-08-10T07:49:36Z</time>
      </trkpt>
      <trkpt lat="44.53806" lon="3.74917">
        <ele>1426.4</ele>
        <time>2021-08-10T07:49:38Z</time>
      </trkpt>
      <trkpt lat="44.53804" lon="3.7492">
        <ele>1426.8</ele>
        <time>2021-08-10T07:49:40Z</time>
      </trkpt>
      <trkpt lat="44.53802" lon="3.74924">
        <ele>1427.3</ele>
        <time>2021-08-10T07:49:42Z</time>
      </trkpt>
      <trkpt lat="44.53799" lon="3.74927">
        <ele>1427.9</ele>
        <time>2021-08-10T07:49:44Z</time>
      </trkpt>
      <trkpt lat="44.53797" lon="3.74931">
        <ele>1428.4</ele>
        <time>2021-08-10T07:49:46Z</time>
      </trkpt>
      <trkpt lat="44.53794" lon="3.74934">
        <ele>1428.8</ele>
        <time>2021-08-10T07:49:48Z</time>
      </trkpt>
      <trkpt lat="44.53792" lon="3.74938">
        <ele>1429.4</ele>
        <time>2021-08-10T07:49:50Z</time>
      </trkpt>
      <trkpt lat="44.53789" lon="3.74941">
        <ele>1430</ele>
        <time>2021-08-10T07:49:52Z</time>
      </trkpt>
      <trkpt lat="44.53786" lon="3.74944">
        <ele>1430.5</ele>
        <time>2021-08-10T07:49:54Z</time>
      </trkpt>
      <trkpt lat="44.53783" lon="3.74947">
        <ele>1431.1</ele>
        <time>2021-08-10T07:49:56Z</time>
      </trkpt>
      <trkpt lat="44.53781" lon="3.7495">
        <ele>1431.7</ele>
        <time>2021-08-10T07:49:58Z</time>
      </trkpt>
      <trkpt lat="44.53778" lon="3.74953">
        <ele>1432.3</ele>
        <time>2021-08-10T07:50:00Z</time>
      </trkpt>
      <trkpt lat="44.53775" lon="3.74956">
        <ele>1432.9</ele>
        <time>2021-08-10T07:50:02Z</time>
      </trkpt>
      <trkpt lat="44.53773" lon="3.74959">
        <ele>1433.3</ele>
        <time>2021-08-10T07:50:04Z</time>
      </trkpt>
      <trkpt lat="44.5377" lon="3.74962">
        <ele>1433.9</ele>
        <time>2021-08-10T07:50:06Z</time>
      </trkpt>
      <trkpt lat="44.53767" lon="3.74965">
        <ele>1434.5</ele>
        <time>2021-08-10T07:50:08Z</time>
      </trkpt>
      <trkpt lat="44.53765" lon="3.74968">
        <ele>1435.1</ele>
        <time>2021-08-10T07:50:10Z</time>
      </trkpt>
      <trkpt lat="44.53762" lon="3.74971">
        <ele>1435.5</ele>
        <time>2021-08-10T07:50:12Z</time>
      </trkpt>
      <trkpt lat="44.5376" lon="3.74974">
        <ele>1436</ele>
        <time>2021-08-10T07:50:14Z</time>
      </trkpt>
      <trkpt lat="44.53757" lon="3.74977">
        <ele>1436.5</ele>
        <time>2021-08-10T07:50:16Z</time>
      </trkpt>
      <trkpt lat="44.53755" lon="3.7498">
        <ele>1436.9</ele>
        <time>2021-08-10T07:50:18Z</time>
      </trkpt>
      <trkpt lat="44.53752" lon="3.74984">
        <ele>1437.2</ele>
        <time>2021-08-10T07:50:20Z</time>
      </trkpt>
      <trkpt lat="44.5375" lon="3.74987">
        <ele>1437.6</ele>
        <time>2021-08-10T07:50:22Z</time>
      </trkpt>
      <trkpt lat="44.53747" lon="3.7499">
        <ele>1437.7</ele>
        <time>2021-08-10T07:50:24Z</time>
      </trkpt>
      <trkpt lat="44.53744" lon="3.74993">
        <ele>1437.9</ele>
        <time>2021-08-10T07:50:26Z</time>
      </trkpt>
      <trkpt lat="44.53742" lon="3.74996">
        <ele>1438</ele>
        <time>2021-08-10T07:50:28Z</time>
      </trkpt>
      <trkpt lat="44.53739" lon="3.74999">
        <ele>1438.2</ele>
        <time>2021-08-10T07:50:30Z</time>
      </trkpt>
      <trkpt lat="44.53737" lon="3.75002">
        <ele>1438.4</ele>
        <time>2021-08-10T07:50:32Z</time>
      </trkpt>
      <trkpt lat="44.53734" lon="3.75005">
        <ele>1438.7</ele>
        <time>2021-08-10T07:50:34Z</time>
      </trkpt>
      <trkpt lat="44.53732" lon="3.75007">
        <ele>1439</ele>
        <time>2021-08-10T07:50:36Z</time>
      </trkpt>
      <trkpt lat="44.53729" lon="3.7501">
        <ele>1439.2</ele>
        <time>2021-08-10T07:50:38Z</time>
      </trkpt>
      <trkpt lat="44.53727" lon="3.75013">
        <ele>1439.6</ele>
        <time>2021-08-10T07:50:40Z</time>
      </trkpt>
      <trkpt lat="44.53724" lon="3.75016">
        <ele>1439.8</ele>
        <time>2021-08-10T07:50:42Z</time>
      </trkpt>
      <trkpt lat="44.53722" lon="3.75019">
        <ele>1440.2</ele>
        <time>2021-08-10T07:50:44Z</time>
      </trkpt>
      <trkpt lat="44.5372" lon="3.75022">
        <ele>1440.5</ele>
        <time>2021-08-10T07:50:46Z</time>
      </trkpt>
      <trkpt lat="44.53717" lon="3.75026">
        <ele>1440.8</ele>
        <time>2021-08-10T07:50:48Z</time>
      </trkpt>
      <trkpt lat="44.53715" lon="3.75029">
        <ele>1441.1</ele>
        <time>2021-08-10T07:50:50Z</time>
      </trkpt>
      <trkpt lat="44.53712" lon="3.75032">
        <ele>1441.4</ele>
        <time>2021-08-10T07:50:52Z</time>
      </trkpt>
      <trkpt lat="44.5371" lon="3.75035">
        <ele>1441.7</ele>
        <time>2021-08-10T07:50:54Z</time>
      </trkpt>
      <trkpt lat="44.53707" lon="3.75038">
        <ele>1442.2</ele>
        <time>2021-08-10T07:50:56Z</time>
      </trkpt>
      <trkpt lat="44.53705" lon="3.75041">
        <ele>1442.6</ele>
        <time>2021-08-10T07:50:58Z</time>
      </trkpt>
      <trkpt lat="44.53702" lon="3.75044">
        <ele>1443</ele>
        <time>2021-08-10T07:51:00Z</time>
      </trkpt>
      <trkpt lat="44.537" lon="3.75047">
        <ele>1443.4</ele>
        <time>2021-08-10T07:51:02Z</time>
      </trkpt>
      <trkpt lat="44.53697" lon="3.7505">
        <ele>1443.8</ele>
        <time>2021-08-10T07:51:04Z</time>
      </trkpt>
      <trkpt lat="44.53695" lon="3.75054">
        <ele>1444.2</ele>
        <time>2021-08-10T07:51:06Z</time>
      </trkpt>
      <trkpt lat="44.53693" lon="3.75056">
        <ele>1444.6</ele>
        <time>2021-08-10T07:51:08Z</time>
      </trkpt>
      <trkpt lat="44.5369" lon="3.75059">
        <ele>1445.1</ele>
        <time>2021-08-10T07:51:10Z</time>
      </trkpt>
      <trkpt lat="44.53688" lon="3.75063">
        <ele>1445.3</ele>
        <time>2021-08-10T07:51:12Z</time>
      </trkpt>
      <trkpt lat="44.53686" lon="3.75066">
        <ele>1445.7</ele>
        <time>2021-08-10T07:51:14Z</time>
      </trkpt>
      <trkpt lat="44.53684" lon="3.75069">
        <ele>1446.2</ele>
        <time>2021-08-10T07:51:16Z</time>
      </trkpt>
      <trkpt lat="44.53681" lon="3.75071">
        <ele>1446.8</ele>
        <time>2021-08-10T07:51:18Z</time>
      </trkpt>
      <trkpt lat="44.53679" lon="3.75075">
        <ele>1447.3</ele>
        <time>2021-08-10T07:51:20Z</time>
      </trkpt>
      <trkpt lat="44.53676" lon="3.75078">
        <ele>1447.8</ele>
        <time>2021-08-10T07:51:22Z</time>
      </trkpt>
      <trkpt lat="44.53674" lon="3.75082">
        <ele>1448.3</ele>
        <time>2021-08-10T07:51:24Z</time>
      </trkpt>
      <trkpt lat="44.53672" lon="3.75086">
        <ele>1448.7</ele>
        <time>2021-08-10T07:51:26Z</time>
      </trkpt>
      <trkpt lat="44.53669" lon="3.75089">
        <ele>1449.3</ele>
        <time>2021-08-10T07:51:28Z</time>
      </trkpt>
      <trkpt lat="44.53667" lon="3.75092">
        <ele>1449.9</ele>
        <time>2021-08-10T07:51:30Z</time>
      </trkpt>
      <trkpt lat="44.53665" lon="3.75097">
        <ele>1450.1</ele>
        <time>2021-08-10T07:51:32Z</time>
      </trkpt>
      <trkpt lat="44.53663" lon="3.751">
        <ele>1450.2</ele>
        <time>2021-08-10T07:51:34Z</time>
      </trkpt>
      <trkpt lat="44.53661" lon="3.75104">
        <ele>1450.3</ele>
        <time>2021-08-10T07:51:36Z</time>
      </trkpt>
      <trkpt lat="44.5366" lon="3.75108">
        <ele>1450.4</ele>
        <time>2021-08-10T07:51:38Z</time>
      </trkpt>
      <trkpt lat="44.53657" lon="3.75111">
        <ele>1450.6</ele>
        <time>2021-08-10T07:51:40Z</time>
      </trkpt>
      <trkpt lat="44.53656" lon="3.75116">
        <ele>1450.7</ele>
        <time>2021-08-10T07:51:42Z</time>
      </trkpt>
      <trkpt lat="44.53654" lon="3.7512">
        <ele>1450.8</ele>
        <time>2021-08-10T07:51:44Z</time>
      </trkpt>
      <trkpt lat="44.53652" lon="3.75124">
        <ele>1450.9</ele>
        <time>2021-08-10T07:51:46Z</time>
      </trkpt>
      <trkpt lat="44.53651" lon="3.75128">
        <ele>1451</ele>
        <time>2021-08-10T07:51:48Z</time>
      </trkpt>
      <trkpt lat="44.5365" lon="3.75132">
        <ele>1451.2</ele>
        <time>2021-08-10T07:51:50Z</time>
      </trkpt>
      <trkpt lat="44.53648" lon="3.75136">
        <ele>1451.3</ele>
        <time>2021-08-10T07:51:52Z</time>
      </trkpt>
      <trkpt lat="44.53646" lon="3.7514">
        <ele>1451.5</ele>
        <time>2021-08-10T07:51:54Z</time>
      </trkpt>
      <trkpt lat="44.53644" lon="3.75144">
        <ele>1451.7</ele>
        <time>2021-08-10T07:51:56Z</time>
      </trkpt>
      <trkpt lat="44.53643" lon="3.75148">
        <ele>1451.8</ele>
        <time>2021-08-10T07:51:58Z</time>
      </trkpt>
      <trkpt lat="44.53641" lon="3.75152">
        <ele>1452</ele>
        <time>2021-08-10T07:52:00Z</time>
      </trkpt>
      <trkpt lat="44.5364" lon="3.75157">
        <ele>1452.1</ele>
        <time>2021-08-10T07:52:02Z</time>
      </trkpt>
      <trkpt lat="44.53639" lon="3.75161">
        <ele>1452.3</ele>
        <time>2021-08-10T07:52:04Z</time>
      </trkpt>
      <trkpt lat="44.53637" lon="3.75165">
        <ele>1452.5</ele>
        <time>2021-08-10T07:52:06Z</time>
      </trkpt>
      <trkpt lat="44.53634" lon="3.75168">
        <ele>1452.8</ele>
        <time>2021-08-10T07:52:08Z</time>
      </trkpt>
      <trkpt lat="44.53633" lon="3.75173">
        <ele>1453.2</ele>
        <time>2021-08-10T07:52:10Z</time>
      </trkpt>
      <trkpt lat="44.53631" lon="3.75177">
        <ele>1453.6</ele>
        <time>2021-08-10T07:52:12Z</time>
      </trkpt>
      <trkpt lat="44.53629" lon="3.75181">
        <ele>1454</ele>
        <time>2021-08-10T07:52:14Z</time>
      </trkpt>
      <trkpt lat="44.53628" lon="3.75185">
        <ele>1454.4</ele>
        <time>2021-08-10T07:52:16Z</time>
      </trkpt>
      <trkpt lat="44.53626" lon="3.75189">
        <ele>1454.8</ele>
        <time>2021-08-10T07:52:18Z</time>
      </trkpt>
      <trkpt lat="44.53623" lon="3.75193">
        <ele>1455.2</ele>
        <time>2021-08-10T07:52:20Z</time>
      </trkpt>
      <trkpt lat="44.53621" lon="3.75197">
        <ele>1455.7</ele>
        <time>2021-08-10T07:52:22Z</time>
      </trkpt>
      <trkpt lat="44.53619" lon="3.75202">
        <ele>1456.1</ele>
        <time>2021-08-10T07:52:24Z</time>
      </trkpt>
      <trkpt lat="44.53617" lon="3.75206">
        <ele>1456.5</ele>
        <time>2021-08-10T07:52:26Z</time>
      </trkpt>
      <trkpt lat="44.53615" lon="3.7521">
        <ele>1456.9</ele>
        <time>2021-08-10T07:52:28Z</time>
      </trkpt>
      <trkpt lat="44.53613" lon="3.75214">
        <ele>1457.4</ele>
        <time>2021-08-10T07:52:30Z</time>
      </trkpt>
      <trkpt lat="44.53611" lon="3.75219">
        <ele>1457.8</ele>
        <time>2021-08-10T07:52:32Z</time>
      </trkpt>
      <trkpt lat="44.53608" lon="3.75222">
        <ele>1458.3</ele>
        <time>2021-08-10T07:52:34Z</time>
      </trkpt>
      <trkpt lat="44.53606" lon="3.75226">
        <ele>1458.7</ele>
        <time>2021-08-10T07:52:36Z</time>
      </trkpt>
      <trkpt lat="44.53603" lon="3.7523">
        <ele>1459.2</ele>
        <time>2021-08-10T07:52:38Z</time>
      </trkpt>
      <trkpt lat="44.536" lon="3.75233">
        <ele>1459.6</ele>
        <time>2021-08-10T07:52:40Z</time>
      </trkpt>
      <trkpt lat="44.53597" lon="3.75236">
        <ele>1460</ele>
        <time>2021-08-10T07:52:42Z</time>
      </trkpt>
      <trkpt lat="44.53595" lon="3.7524">
        <ele>1460.4</ele>
        <time>2021-08-10T07:52:44Z</time>
      </trkpt>
      <trkpt lat="44.53594" lon="3.75244">
        <ele>1460.7</ele>
        <time>2021-08-10T07:52:46Z</time>
      </trkpt>
      <trkpt lat="44.53592" lon="3.75247">
        <ele>1461.1</ele>
        <time>2021-08-10T07:52:48Z</time>
      </trkpt>
      <trkpt lat="44.5359" lon="3.7525">
        <ele>1461.5</ele>
        <time>2021-08-10T07:52:50Z</time>
      </trkpt>
      <trkpt lat="44.53588" lon="3.75253">
        <ele>1461.6</ele>
        <time>2021-08-10T07:52:52Z</time>
      </trkpt>
      <trkpt lat="44.53586" lon="3.75257">
        <ele>1461.9</ele>
        <time>2021-08-10T07:52:54Z</time>
      </trkpt>
      <trkpt lat="44.53585" lon="3.75262">
        <ele>1462</ele>
        <time>2021-08-10T07:52:56Z</time>
      </trkpt>
      <trkpt lat="44.53588" lon="3.75267">
        <ele>1461.9</ele>
        <time>2021-08-10T07:52:58Z</time>
      </trkpt>
      <trkpt lat="44.5359" lon="3.7527">
        <ele>1461.9</ele>
        <time>2021-08-10T07:53:00Z</time>
      </trkpt>
      <trkpt lat="44.53591" lon="3.75272">
        <ele>1461.8</ele>
        <time>2021-08-10T07:53:02Z</time>
      </trkpt>
      <trkpt lat="44.53591" lon="3.75271">
        <ele>1461.8</ele>
        <time>2021-08-10T07:53:04Z</time>
      </trkpt>
      <trkpt lat="44.53591" lon="3.75271">
        <ele>1461.8</ele>
        <time>2021-08-10T07:53:06Z</time>
      </trkpt>
      <trkpt lat="44.53591" lon="3.75271">
        <ele>1461.8</ele>
        <time>2021-08-10T07:53:08Z</time>
      </trkpt>
      <trkpt lat="44.53591" lon="3.75271">
        <ele>1461.8</ele>
        <time>2021-08-10T07:53:10Z</time>
      </trkpt>
      <trkpt lat="44.53586" lon="3.75247">
        <ele>1461.5</ele>
        <time>2021-08-10T08:32:58Z</time>
      </trkpt>
      <trkpt lat="44.53583" lon="3.75245">
        <ele>1461.7</ele>
        <time>2021-08-10T08:33:00Z</time>
      </trkpt>
      <trkpt lat="44.5358" lon="3.75244">
        <ele>1461.4</ele>
        <time>2021-08-10T08:33:02Z</time>
      </trkpt>
      <trkpt lat="44.53578" lon="3.7524">
        <ele>1461</ele>
        <time>2021-08-10T08:33:04Z</time>
      </trkpt>
      <trkpt lat="44.53575" lon="3.75237">
        <ele>1460.6</ele>
        <time>2021-08-10T08:33:06Z</time>
      </trkpt>
      <trkpt lat="44.53574" lon="3.75233">
        <ele>1460.3</ele>
        <time>2021-08-10T08:33:08Z</time>
      </trkpt>
      <trkpt lat="44.53573" lon="3.75231">
        <ele>1460.1</ele>
        <time>2021-08-10T08:33:10Z</time>
      </trkpt>
      <trkpt lat="44.53572" lon="3.75228">
        <ele>1459.9</ele>
        <time>2021-08-10T08:33:12Z</time>
      </trkpt>
      <trkpt lat="44.5357" lon="3.75226">
        <ele>1459.7</ele>
        <time>2021-08-10T08:33:14Z</time>
      </trkpt>
      <trkpt lat="44.53567" lon="3.75225">
        <ele>1459.4</ele>
        <time>2021-08-10T08:33:16Z</time>
      </trkpt>
      <trkpt lat="44.53565" lon="3.75222">
        <ele>1459.1</ele>
        <time>2021-08-10T08:33:18Z</time>
      </trkpt>
      <trkpt lat="44.53565" lon="3.75217">
        <ele>1458.9</ele>
        <time>2021-08-10T08:33:20Z</time>
      </trkpt>
      <trkpt lat="44.53562" lon="3.75214">
        <ele>1458.6</ele>
        <time>2021-08-10T08:33:22Z</time>
      </trkpt>
      <trkpt lat="44.53559" lon="3.7521">
        <ele>1458.3</ele>
        <time>2021-08-10T08:33:24Z</time>
      </trkpt>
      <trkpt lat="44.53556" lon="3.75205">
        <ele>1457.9</ele>
        <time>2021-08-10T08:33:26Z</time>
      </trkpt>
      <trkpt lat="44.53552" lon="3.75198">
        <ele>1457.4</ele>
        <time>2021-08-10T08:33:28Z</time>
      </trkpt>
      <trkpt lat="44.53547" lon="3.7519">
        <ele>1456.9</ele>
        <time>2021-08-10T08:33:30Z</time>
      </trkpt>
      <trkpt lat="44.53542" lon="3.75181">
        <ele>1456.4</ele>
        <time>2021-08-10T08:33:32Z</time>
      </trkpt>
      <trkpt lat="44.53535" lon="3.75173">
        <ele>1456</ele>
        <time>2021-08-10T08:33:34Z</time>
      </trkpt>
      <trkpt lat="44.53529" lon="3.75162">
        <ele>1455.5</ele>
        <time>2021-08-10T08:33:36Z</time>
      </trkpt>
      <trkpt lat="44.53523" lon="3.75151">
        <ele>1454.9</ele>
        <time>2021-08-10T08:33:38Z</time>
      </trkpt>
      <trkpt lat="44.53516" lon="3.75139">
        <ele>1454.1</ele>
        <time>2021-08-10T08:33:40Z</time>
      </trkpt>
      <trkpt lat="44.53509" lon="3.75127">
        <ele>1453.4</ele>
        <time>2021-08-10T08:33:42Z</time>
      </trkpt>
      <trkpt lat="44.53502" lon="3.75115">
        <ele>1452.6</ele>
        <time>2021-08-10T08:33:44Z</time>
      </trkpt>
      <trkpt lat="44.53495" lon="3.75104">
        <ele>1451.4</ele>
        <time>2021-08-10T08:33:46Z</time>
      </trkpt>
      <trkpt lat="44.53488" lon="3.7509">
        <ele>1449.8</ele>
        <time>2021-08-10T08:33:48Z</time>
      </trkpt>
      <trkpt lat="44.53479" lon="3.75074">
        <ele>1448.3</ele>
        <time>2021-08-10T08:33:50Z</time>
      </trkpt>
      <trkpt lat="44.53468" lon="3.75055">
        <ele>1446.6</ele>
        <time>2021-08-10T08:33:52Z</time>
      </trkpt>
      <trkpt lat="44.53458" lon="3.75037">
        <ele>1444.9</ele>
        <time>2021-08-10T08:33:54Z</time>
      </trkpt>
      <trkpt lat="44.53448" lon="3.75019">
        <ele>1443.1</ele>
        <time>2021-08-10T08:33:56Z</time>
      </trkpt>
      <trkpt lat="44.53438" lon="3.75001">
        <ele>1441.1</ele>
        <time>2021-08-10T08:33:58Z</time>
      </trkpt>
      <trkpt lat="44.53426" lon="3.74983">
        <ele>1438.8</ele>
        <time>2021-08-10T08:34:00Z</time>
      </trkpt>
      <trkpt lat="44.53412" lon="3.74963">
        <ele>1436</ele>
        <time>2021-08-10T08:34:02Z</time>
      </trkpt>
      <trkpt lat="44.53399" lon="3.74943">
        <ele>1433.6</ele>
        <time>2021-08-10T08:34:04Z</time>
      </trkpt>
      <trkpt lat="44.53383" lon="3.74926">
        <ele>1431.5</ele>
        <time>2021-08-10T08:34:06Z</time>
      </trkpt>
      <trkpt lat="44.53367" lon="3.7491">
        <ele>1429.1</ele>
        <time>2021-08-10T08:34:08Z</time>
      </trkpt>
      <trkpt lat="44.5335" lon="3.74895">
        <ele>1426.5</ele>
        <time>2021-08-10T08:34:10Z</time>
      </trkpt>
      <trkpt lat="44.53334" lon="3.74882">
        <ele>1424.4</ele>
        <time>2021-08-10T08:34:12Z</time>
      </trkpt>
      <trkpt lat="44.53318" lon="3.74872">
        <ele>1422.9</ele>
        <time>2021-08-10T08:34:14Z</time>
      </trkpt>
      <trkpt lat="44.533" lon="3.74864">
        <ele>1421.6</ele>
        <time>2021-08-10T08:34:16Z</time>
      </trkpt>
      <trkpt lat="44.53281" lon="3.74862">
        <ele>1420.6</ele>
        <time>2021-08-10T08:34:18Z</time>
      </trkpt>
      <trkpt lat="44.53262" lon="3.74867">
        <ele>1419.5</ele>
        <time>2021-08-10T08:34:20Z</time>
      </trkpt>
      <trkpt lat="44.53244" lon="3.74876">
        <ele>1418.4</ele>
        <time>2021-08-10T08:34:22Z</time>
      </trkpt>
      <trkpt lat="44.53227" lon="3.74888">
        <ele>1417.6</ele>
        <time>2021-08-10T08:34:24Z</time>
      </trkpt>
      <trkpt lat="44.5321" lon="3.74903">
        <ele>1416.6</ele>
        <time>2021-08-10T08:34:26Z</time>
      </trkpt>
      <trkpt lat="44.53194" lon="3.74919">
        <ele>1415.4</ele>
        <time>2021-08-10T08:34:28Z</time>
      </trkpt>
      <trkpt lat="44.53178" lon="3.74936">
        <ele>1413.8</ele>
        <time>2021-08-10T08:34:30Z</time>
      </trkpt>
      <trkpt lat="44.53162" lon="3.74953">
        <ele>1412.3</ele>
        <time>2021-08-10T08:34:32Z</time>
      </trkpt>
      <trkpt lat="44.53147" lon="3.74971">
        <ele>1410.8</ele>
        <time>2021-08-10T08:34:34Z</time>
      </trkpt>
      <trkpt lat="44.53132" lon="3.74988">
        <ele>1409.4</ele>
        <time>2021-08-10T08:34:36Z</time>
      </trkpt>
      <trkpt lat="44.53116" lon="3.75005">
        <ele>1407.9</ele>
        <time>2021-08-10T08:34:38Z</time>
      </trkpt>
      <trkpt lat="44.531" lon="3.75022">
        <ele>1406.3</ele>
        <time>2021-08-10T08:34:40Z</time>
      </trkpt>
      <trkpt lat="44.53084" lon="3.75039">
        <ele>1405.2</ele>
        <time>2021-08-10T08:34:42Z</time>
      </trkpt>
      <trkpt lat="44.53069" lon="3.75056">
        <ele>1403.9</ele>
        <time>2021-08-10T08:34:44Z</time>
      </trkpt>
      <trkpt lat="44.53053" lon="3.75072">
        <ele>1402.7</ele>
        <time>2021-08-10T08:34:46Z</time>
      </trkpt>
      <trkpt lat="44.53035" lon="3.75087">
        <ele>1401.3</ele>
        <time>2021-08-10T08:34:48Z</time>
      </trkpt>
      <trkpt lat="44.53017" lon="3.75103">
        <ele>1398.7</ele>
        <time>2021-08-10T08:34:50Z</time>
      </trkpt>
      <trkpt lat="44.52997" lon="3.75118">
        <ele>1396.4</ele>
        <time>2021-08-10T08:34:52Z</time>
      </trkpt>
      <trkpt lat="44.52976" lon="3.75134">
        <ele>1393.1</ele>
        <time>2021-08-10T08:34:54Z</time>
      </trkpt>
      <trkpt lat="44.52954" lon="3.7515">
        <ele>1390.7</ele>
        <time>2021-08-10T08:34:56Z</time>
      </trkpt>
      <trkpt lat="44.52933" lon="3.75164">
        <ele>1389.2</ele>
        <time>2021-08-10T08:34:58Z</time>
      </trkpt>
      <trkpt lat="44.52912" lon="3.75177">
        <ele>1387.1</ele>
        <time>2021-08-10T08:35:00Z</time>
      </trkpt>
      <trkpt lat="44.52892" lon="3.7519">
        <ele>1384.7</ele>
        <time>2021-08-10T08:35:02Z</time>
      </trkpt>
      <trkpt lat="44.52874" lon="3.75201">
        <ele>1383.2</ele>
        <time>2021-08-10T08:35:04Z</time>
      </trkpt>
      <trkpt lat="44.52859" lon="3.75211">
        <ele>1382.6</ele>
        <time>2021-08-10T08:35:06Z</time>
      </trkpt>
      <trkpt lat="44.52844" lon="3.75218">
        <ele>1382.5</ele>
        <time>2021-08-10T08:35:08Z</time>
      </trkpt>
      <trkpt lat="44.52831" lon="3.7522">
        <ele>1382.4</ele>
        <time>2021-08-10T08:35:10Z</time>
      </trkpt>
      <trkpt lat="44.52817" lon="3.75214">
        <ele>1380.9</ele>
        <time>2021-08-10T08:35:12Z</time>
      </trkpt>
      <trkpt lat="44.52804" lon="3.75201">
        <ele>1379.3</ele>
        <time>2021-08-10T08:35:14Z</time>
      </trkpt>
      <trkpt lat="44.52792" lon="3.75185">
        <ele>1377.6</ele>
        <time>2021-08-10T08:35:16Z</time>
      </trkpt>
      <trkpt lat="44.5278" lon="3.7517">
        <ele>1375.7</ele>
        <time>2021-08-10T08:35:18Z</time>
      </trkpt>
      <trkpt lat="44.52768" lon="3.75158">
        <ele>1373.7</ele>
        <time>2021-08-10T08:35:20Z</time>
      </trkpt>
      <trkpt lat="44.52753" lon="3.75154">
        <ele>1371.5</ele>
        <time>2021-08-10T08:35:22Z</time>
      </trkpt>
      <trkpt lat="44.52737" lon="3.75157">
        <ele>1369.9</ele>
        <time>2021-08-10T08:35:24Z</time>
      </trkpt>
      <trkpt lat="44.5272" lon="3.75162">
        <ele>1368.5</ele>
        <time>2021-08-10T08:35:26Z</time>
      </trkpt>
      <trkpt lat="44.52703" lon="3.75167">
        <ele>1366.9</ele>
        <time>2021-08-10T08:35:28Z</time>
      </trkpt>
      <trkpt lat="44.52686" lon="3.7517">
        <ele>1365.3</ele>
        <time>2021-08-10T08:35:30Z</time>
      </trkpt>
      <trkpt lat="44.52671" lon="3.75173">
        <ele>1363.9</ele>
        <time>2021-08-10T08:35:32Z</time>
      </trkpt>
      <trkpt lat="44.52658" lon="3.75179">
        <ele>1362.5</ele>
        <time>2021-08-10T08:35:34Z</time>
      </trkpt>
      <trkpt lat="44.52647" lon="3.75182">
        <ele>1361.3</ele>
        <time>2021-08-10T08:35:36Z</time>
      </trkpt>
      <trkpt lat="44.52638" lon="3.75174">
        <ele>1359.7</ele>
        <time>2021-08-10T08:35:38Z</time>
      </trkpt>
      <trkpt lat="44.52635" lon="3.75155">
        <ele>1358.2</ele>
        <time>2021-08-10T08:35:40Z</time>
      </trkpt>
      <trkpt lat="44.52634" lon="3.75133">
        <ele>1357</ele>
        <time>2021-08-10T08:35:42Z</time>
      </trkpt>
      <trkpt lat="44.52633" lon="3.75109">
        <ele>1355.6</ele>
        <time>2021-08-10T08:35:44Z</time>
      </trkpt>
      <trkpt lat="44.52631" lon="3.75085">
        <ele>1354.2</ele>
        <time>2021-08-10T08:35:46Z</time>
      </trkpt>
      <trkpt lat="44.52624" lon="3.75067">
        <ele>1351.9</ele>
        <time>2021-08-10T08:35:48Z</time>
      </trkpt>
      <trkpt lat="44.52612" lon="3.75052">
        <ele>1349.7</ele>
        <time>2021-08-10T08:35:50Z</time>
      </trkpt>
      <trkpt lat="44.52596" lon="3.7504">
        <ele>1347.8</ele>
        <time>2021-08-10T08:35:52Z</time>
      </trkpt>
      <trkpt lat="44.52578" lon="3.75027">
        <ele>1345.7</ele>
        <time>2021-08-10T08:35:54Z</time>
      </trkpt>
      <trkpt lat="44.52558" lon="3.75014">
        <ele>1343</ele>
        <time>2021-08-10T08:35:56Z</time>
      </trkpt>
      <trkpt lat="44.52536" lon="3.74999">
        <ele>1340.3</ele>
        <time>2021-08-10T08:35:58Z</time>
      </trkpt>
      <trkpt lat="44.52513" lon="3.74983">
        <ele>1337.2</ele>
        <time>2021-08-10T08:36:00Z</time>
      </trkpt>
      <trkpt lat="44.5249" lon="3.74967">
        <ele>1334.8</ele>
        <time>2021-08-10T08:36:02Z</time>
      </trkpt>
      <trkpt lat="44.52465" lon="3.74951">
        <ele>1333</ele>
        <time>2021-08-10T08:36:04Z</time>
      </trkpt>
      <trkpt lat="44.52441" lon="3.74935">
        <ele>1332.1</ele>
        <time>2021-08-10T08:36:06Z</time>
      </trkpt>
      <trkpt lat="44.52417" lon="3.74918">
        <ele>1332</ele>
        <time>2021-08-10T08:36:08Z</time>
      </trkpt>
      <trkpt lat="44.52396" lon="3.74897">
        <ele>1329.3</ele>
        <time>2021-08-10T08:36:10Z</time>
      </trkpt>
      <trkpt lat="44.52375" lon="3.74877">
        <ele>1327.3</ele>
        <time>2021-08-10T08:36:12Z</time>
      </trkpt>
      <trkpt lat="44.52356" lon="3.74857">
        <ele>1326.3</ele>
        <time>2021-08-10T08:36:14Z</time>
      </trkpt>
      <trkpt lat="44.52337" lon="3.74839">
        <ele>1326</ele>
        <time>2021-08-10T08:36:16Z</time>
      </trkpt>
      <trkpt lat="44.5232" lon="3.74821">
        <ele>1324.7</ele>
        <time>2021-08-10T08:36:18Z</time>
      </trkpt>
      <trkpt lat="44.52303" lon="3.74804">
        <ele>1323.6</ele>
        <time>2021-08-10T08:36:20Z</time>
      </trkpt>
      <trkpt lat="44.52287" lon="3.74787">
        <ele>1323.2</ele>
        <time>2021-08-10T08:36:22Z</time>
      </trkpt>
      <trkpt lat="44.52271" lon="3.74771">
        <ele>1323.6</ele>
        <time>2021-08-10T08:36:24Z</time>
      </trkpt>
      <trkpt lat="44.52256" lon="3.74754">
        <ele>1324.5</ele>
        <time>2021-08-10T08:36:26Z</time>
      </trkpt>
      <trkpt lat="44.52241" lon="3.74738">
        <ele>1323.6</ele>
        <time>2021-08-10T08:36:28Z</time>
      </trkpt>
      <trkpt lat="44.52226" lon="3.74721">
        <ele>1321.7</ele>
        <time>2021-08-10T08:36:30Z</time>
      </trkpt>
      <trkpt lat="44.5221" lon="3.74704">
        <ele>1320.4</ele>
        <time>2021-08-10T08:36:32Z</time>
      </trkpt>
      <trkpt lat="44.52195" lon="3.74686">
        <ele>1319.6</ele>
        <time>2021-08-10T08:36:34Z</time>
      </trkpt>
      <trkpt lat="44.5218" lon="3.74669">
        <ele>1319.4</ele>
        <time>2021-08-10T08:36:36Z</time>
      </trkpt>
      <trkpt lat="44.52164" lon="3.74652">
        <ele>1319</ele>
        <time>2021-08-10T08:36:38Z</time>
      </trkpt>
      <trkpt lat="44.52149" lon="3.74634">
        <ele>1318</ele>
        <time>2021-08-10T08:36:40Z</time>
      </trkpt>
      <trkpt lat="44.52134" lon="3.74617">
        <ele>1317.5</ele>
        <time>2021-08-10T08:36:42Z</time>
      </trkpt>
      <trkpt lat="44.5212" lon="3.74599">
        <ele>1317.5</ele>
        <time>2021-08-10T08:36:44Z</time>
      </trkpt>
      <trkpt lat="44.52105" lon="3.74582">
        <ele>1317.8</ele>
        <time>2021-08-10T08:36:46Z</time>
      </trkpt>
      <trkpt lat="44.5209" lon="3.74569">
        <ele>1317.6</ele>
        <time>2021-08-10T08:36:48Z</time>
      </trkpt>
      <trkpt lat="44.52075" lon="3.74558">
        <ele>1318.6</ele>
        <time>2021-08-10T08:36:50Z</time>
      </trkpt>
      <trkpt lat="44.52059" lon="3.74553">
        <ele>1320.1</ele>
        <time>2021-08-10T08:36:52Z</time>
      </trkpt>
      <trkpt lat="44.52044" lon="3.74549">
        <ele>1321.6</ele>
        <time>2021-08-10T08:36:54Z</time>
      </trkpt>
      <trkpt lat="44.52031" lon="3.74547">
        <ele>1322.8</ele>
        <time>2021-08-10T08:36:56Z</time>
      </trkpt>
      <trkpt lat="44.52018" lon="3.74547">
        <ele>1324</ele>
        <time>2021-08-10T08:36:58Z</time>
      </trkpt>
      <trkpt lat="44.52006" lon="3.74547">
        <ele>1324.9</ele>
        <time>2021-08-10T08:37:00Z</time>
      </trkpt>
      <trkpt lat="44.51996" lon="3.74548">
        <ele>1325.6</ele>
        <time>2021-08-10T08:37:02Z</time>
      </trkpt>
      <trkpt lat="44.51986" lon="3.74549">
        <ele>1326.1</ele>
        <time>2021-08-10T08:37:04Z</time>
      </trkpt>
      <trkpt lat="44.51976" lon="3.74549">
        <ele>1326.6</ele>
        <time>2021-08-10T08:37:06Z</time>
      </trkpt>
      <trkpt lat="44.51968" lon="3.74551">
        <ele>1326.9</ele>
        <time>2021-08-10T08:37:08Z</time>
      </trkpt>
      <trkpt lat="44.51959" lon="3.74552">
        <ele>1327.3</ele>
        <time>2021-08-10T08:37:10Z</time>
      </trkpt>
      <trkpt lat="44.51952" lon="3.74553">
        <ele>1327.6</ele>
        <time>2021-08-10T08:37:12Z</time>
      </trkpt>
      <trkpt lat="44.51944" lon="3.74554">
        <ele>1328</ele>
        <time>2021-08-10T08:37:14Z</time>
      </trkpt>
      <trkpt lat="44.51937" lon="3.74555">
        <ele>1328.2</ele>
        <time>2021-08-10T08:37:16Z</time>
      </trkpt>
      <trkpt lat="44.51931" lon="3.74556">
        <ele>1328.5</ele>
        <time>2021-08-10T08:37:18Z</time>
      </trkpt>
      <trkpt lat="44.51924" lon="3.74557">
        <ele>1328.8</ele>
        <time>2021-08-10T08:37:20Z</time>
      </trkpt>
      <trkpt lat="44.51918" lon="3.74558">
        <ele>1329</ele>
        <time>2021-08-10T08:37:22Z</time>
      </trkpt>
      <trkpt lat="44.51912" lon="3.74559">
        <ele>1329</ele>
        <time>2021-08-10T08:37:24Z</time>
      </trkpt>
      <trkpt lat="44.51906" lon="3.74558">
        <ele>1328.9</ele>
        <time>2021-08-10T08:37:26Z</time>
      </trkpt>
      <trkpt lat="44.51901" lon="3.74559">
        <ele>1328.7</ele>
        <time>2021-08-10T08:37:28Z</time>
      </trkpt>
      <trkpt lat="44.51895" lon="3.7456">
        <ele>1328.6</ele>
        <time>2021-08-10T08:37:30Z</time>
      </trkpt>
      <trkpt lat="44.5189" lon="3.7456">
        <ele>1328.4</ele>
        <time>2021-08-10T08:37:32Z</time>
      </trkpt>
      <trkpt lat="44.51885" lon="3.7456">
        <ele>1328.3</ele>
        <time>2021-08-10T08:37:34Z</time>
      </trkpt>
      <trkpt lat="44.5188" lon="3.74561">
        <ele>1328.2</ele>
        <time>2021-08-10T08:37:36Z</time>
      </trkpt>
      <trkpt lat="44.51875" lon="3.74561">
        <ele>1328.1</ele>
        <time>2021-08-10T08:37:38Z</time>
      </trkpt>
      <trkpt lat="44.5187" lon="3.74561">
        <ele>1328</ele>
        <time>2021-08-10T08:37:40Z</time>
      </trkpt>
      <trkpt lat="44.51864" lon="3.74562">
        <ele>1327.9</ele>
        <time>2021-08-10T08:37:42Z</time>
      </trkpt>
      <trkpt lat="44.5186" lon="3.74561">
        <ele>1327.8</ele>
        <time>2021-08-10T08:37:44Z</time>
      </trkpt>
      <trkpt lat="44.51855" lon="3.74561">
        <ele>1327.7</ele>
        <time>2021-08-10T08:37:46Z</time>
      </trkpt>
      <trkpt lat="44.5185" lon="3.74561">
        <ele>1327.7</ele>
        <time>2021-08-10T08:37:48Z</time>
      </trkpt>
      <trkpt lat="44.51845" lon="3.7456">
        <ele>1327.6</ele>
        <time>2021-08-10T08:37:50Z</time>
      </trkpt>
      <trkpt lat="44.51839" lon="3.7456">
        <ele>1327.5</ele>
        <time>2021-08-10T08:37:52Z</time>
      </trkpt>
      <trkpt lat="44.51834" lon="3.7456">
        <ele>1327.4</ele>
        <time>2021-08-10T08:37:54Z</time>
      </trkpt>
      <trkpt lat="44.51828" lon="3.74559">
        <ele>1327.4</ele>
        <time>2021-08-10T08:37:56Z</time>
      </trkpt>
      <trkpt lat="44.51823" lon="3.74559">
        <ele>1327.2</ele>
        <time>2021-08-10T08:37:58Z</time>
      </trkpt>
      <trkpt lat="44.51817" lon="3.74557">
        <ele>1327.2</ele>
        <time>2021-08-10T08:38:00Z</time>
      </trkpt>
      <trkpt lat="44.51811" lon="3.74555">
        <ele>1327.1</ele>
        <time>2021-08-10T08:38:02Z</time>
      </trkpt>
      <trkpt lat="44.51804" lon="3.74553">
        <ele>1327.1</ele>
        <time>2021-08-10T08:38:04Z</time>
      </trkpt>
      <trkpt lat="44.51796" lon="3.74551">
        <ele>1327</ele>
        <time>2021-08-10T08:38:06Z</time>
      </trkpt>
      <trkpt lat="44.51787" lon="3.74548">
        <ele>1327</ele>
        <time>2021-08-10T08:38:08Z</time>
      </trkpt>
      <trkpt lat="44.51777" lon="3.74544">
        <ele>1327</ele>
        <time>2021-08-10T08:38:10Z</time>
      </trkpt>
      <trkpt lat="44.51766" lon="3.74539">
        <ele>1327</ele>
        <time>2021-08-10T08:38:12Z</time>
      </trkpt>
      <trkpt lat="44.51754" lon="3.74533">
        <ele>1327.1</ele>
        <time>2021-08-10T08:38:14Z</time>
      </trkpt>
      <trkpt lat="44.5174" lon="3.74526">
        <ele>1326.4</ele>
        <time>2021-08-10T08:38:16Z</time>
      </trkpt>
      <trkpt lat="44.51725" lon="3.74518">
        <ele>1325.1</ele>
        <time>2021-08-10T08:38:18Z</time>
      </trkpt>
      <trkpt lat="44.51709" lon="3.74509">
        <ele>1323.6</ele>
        <time>2021-08-10T08:38:20Z</time>
      </trkpt>
      <trkpt lat="44.51691" lon="3.745">
        <ele>1322</ele>
        <time>2021-08-10T08:38:22Z</time>
      </trkpt>
      <trkpt lat="44.51673" lon="3.74491">
        <ele>1320.3</ele>
        <time>2021-08-10T08:38:24Z</time>
      </trkpt>
      <trkpt lat="44.51655" lon="3.74481">
        <ele>1319.2</ele>
        <time>2021-08-10T08:38:26Z</time>
      </trkpt>
      <trkpt lat="44.51636" lon="3.74471">
        <ele>1318.3</ele>
        <time>2021-08-10T08:38:28Z</time>
      </trkpt>
      <trkpt lat="44.51617" lon="3.74462">
        <ele>1317.4</ele>
        <time>2021-08-10T08:38:30Z</time>
      </trkpt>
      <trkpt lat="44.51599" lon="3.74452">
        <ele>1316.7</ele>
        <time>2021-08-10T08:38:32Z</time>
      </trkpt>
      <trkpt lat="44.51582" lon="3.74443">
        <ele>1316</ele>
        <time>2021-08-10T08:38:34Z</time>
      </trkpt>
      <trkpt lat="44.51564" lon="3.74433">
        <ele>1315</ele>
        <time>2021-08-10T08:38:36Z</time>
      </trkpt>
      <trkpt lat="44.51547" lon="3.74423">
        <ele>1314.1</ele>
        <time>2021-08-10T08:38:38Z</time>
      </trkpt>
      <trkpt lat="44.51529" lon="3.74411">
        <ele>1313</ele>
        <time>2021-08-10T08:38:40Z</time>
      </trkpt>
      <trkpt lat="44.5151" lon="3.74399">
        <ele>1311.8</ele>
        <time>2021-08-10T08:38:42Z</time>
      </trkpt>
      <trkpt lat="44.51491" lon="3.74387">
        <ele>1310.2</ele>
        <time>2021-08-10T08:38:44Z</time>
      </trkpt>
      <trkpt lat="44.5147" lon="3.74373">
        <ele>1307.8</ele>
        <time>2021-08-10T08:38:46Z</time>
      </trkpt>
      <trkpt lat="44.51448" lon="3.74359">
        <ele>1305.1</ele>
        <time>2021-08-10T08:38:48Z</time>
      </trkpt>
      <trkpt lat="44.51427" lon="3.74347">
        <ele>1302.2</ele>
        <time>2021-08-10T08:38:50Z</time>
      </trkpt>
      <trkpt lat="44.51406" lon="3.74334">
        <ele>1299.8</ele>
        <time>2021-08-10T08:38:52Z</time>
      </trkpt>
      <trkpt lat="44.51385" lon="3.74321">
        <ele>1298.1</ele>
        <time>2021-08-10T08:38:54Z</time>
      </trkpt>
      <trkpt lat="44.51365" lon="3.7431">
        <ele>1296.6</ele>
        <time>2021-08-10T08:38:56Z</time>
      </trkpt>
      <trkpt lat="44.51344" lon="3.74298">
        <ele>1295.2</ele>
        <time>2021-08-10T08:38:58Z</time>
      </trkpt>
      <trkpt lat="44.51324" lon="3.74288">
        <ele>1293.7</ele>
        <time>2021-08-10T08:39:00Z</time>
      </trkpt>
      <trkpt lat="44.51303" lon="3.7428">
        <ele>1292.1</ele>
        <time>2021-08-10T08:39:02Z</time>
      </trkpt>
      <trkpt lat="44.51282" lon="3.74271">
        <ele>1290.3</ele>
        <time>2021-08-10T08:39:04Z</time>
      </trkpt>
      <trkpt lat="44.51261" lon="3.74264">
        <ele>1288.6</ele>
        <time>2021-08-10T08:39:06Z</time>
      </trkpt>
      <trkpt lat="44.5124" lon="3.74262">
        <ele>1286.9</ele>
        <time>2021-08-10T08:39:08Z</time>
      </trkpt>
      <trkpt lat="44.51218" lon="3.74261">
        <ele>1285.7</ele>
        <time>2021-08-10T08:39:10Z</time>
      </trkpt>
      <trkpt lat="44.51197" lon="3.74261">
        <ele>1284.5</ele>
        <time>2021-08-10T08:39:12Z</time>
      </trkpt>
      <trkpt lat="44.51178" lon="3.74262">
        <ele>1283.5</ele>
        <time>2021-08-10T08:39:14Z</time>
      </trkpt>
      <trkpt lat="44.51161" lon="3.74261">
        <ele>1282.5</ele>
        <time>2021-08-10T08:39:16Z</time>
      </trkpt>
      <trkpt lat="44.51144" lon="3.74257">
        <ele>1281.5</ele>
        <time>2021-08-10T08:39:18Z</time>
      </trkpt>
      <trkpt lat="44.51126" lon="3.74252">
        <ele>1280.6</ele>
        <time>2021-08-10T08:39:20Z</time>
      </trkpt>
      <trkpt lat="44.5111" lon="3.74246">
        <ele>1279.7</ele>
        <time>2021-08-10T08:39:22Z</time>
      </trkpt>
      <trkpt lat="44.51094" lon="3.7424">
        <ele>1278.8</ele>
        <time>2021-08-10T08:39:24Z</time>
      </trkpt>
      <trkpt lat="44.51079" lon="3.74235">
        <ele>1277.5</ele>
        <time>2021-08-10T08:39:26Z</time>
      </trkpt>
      <trkpt lat="44.51063" lon="3.74231">
        <ele>1275.1</ele>
        <time>2021-08-10T08:39:28Z</time>
      </trkpt>
      <trkpt lat="44.51044" lon="3.74232">
        <ele>1272.2</ele>
        <time>2021-08-10T08:39:30Z</time>
      </trkpt>
      <trkpt lat="44.51026" lon="3.74236">
        <ele>1269.4</ele>
        <time>2021-08-10T08:39:32Z</time>
      </trkpt>
      <trkpt lat="44.51007" lon="3.74242">
        <ele>1266.7</ele>
        <time>2021-08-10T08:39:34Z</time>
      </trkpt>
      <trkpt lat="44.50989" lon="3.74249">
        <ele>1264.2</ele>
        <time>2021-08-10T08:39:36Z</time>
      </trkpt>
      <trkpt lat="44.50972" lon="3.74255">
        <ele>1261.4</ele>
        <time>2021-08-10T08:39:38Z</time>
      </trkpt>
      <trkpt lat="44.50955" lon="3.74263">
        <ele>1258.9</ele>
        <time>2021-08-10T08:39:40Z</time>
      </trkpt>
      <trkpt lat="44.50939" lon="3.74271">
        <ele>1256.2</ele>
        <time>2021-08-10T08:39:42Z</time>
      </trkpt>
      <trkpt lat="44.50924" lon="3.74277">
        <ele>1253.9</ele>
        <time>2021-08-10T08:39:44Z</time>
      </trkpt>
      <trkpt lat="44.5091" lon="3.74285">
        <ele>1251.7</ele>
        <time>2021-08-10T08:39:46Z</time>
      </trkpt>
      <trkpt lat="44.50899" lon="3.74295">
        <ele>1249.9</ele>
        <time>2021-08-10T08:39:48Z</time>
      </trkpt>
      <trkpt lat="44.5089" lon="3.74303">
        <ele>1248.3</ele>
        <time>2021-08-10T08:39:50Z</time>
      </trkpt>
      <trkpt lat="44.50881" lon="3.74309">
        <ele>1246.6</ele>
        <time>2021-08-10T08:39:52Z</time>
      </trkpt>
      <trkpt lat="44.5087" lon="3.7431">
        <ele>1244.6</ele>
        <time>2021-08-10T08:39:54Z</time>
      </trkpt>
      <trkpt lat="44.50858" lon="3.74297">
        <ele>1242.5</ele>
        <time>2021-08-10T08:39:56Z</time>
      </trkpt>
      <trkpt lat="44.50852" lon="3.74277">
        <ele>1241.5</ele>
        <time>2021-08-10T08:39:58Z</time>
      </trkpt>
      <trkpt lat="44.50846" lon="3.74255">
        <ele>1240.9</ele>
        <time>2021-08-10T08:40:00Z</time>
      </trkpt>
      <trkpt lat="44.50842" lon="3.7423">
        <ele>1239.3</ele>
        <time>2021-08-10T08:40:02Z</time>
      </trkpt>
      <trkpt lat="44.50838" lon="3.74203">
        <ele>1237.5</ele>
        <time>2021-08-10T08:40:04Z</time>
      </trkpt>
      <trkpt lat="44.50835" lon="3.7418">
        <ele>1235.9</ele>
        <time>2021-08-10T08:40:06Z</time>
      </trkpt>
      <trkpt lat="44.50829" lon="3.74158">
        <ele>1234.4</ele>
        <time>2021-08-10T08:40:08Z</time>
      </trkpt>
      <trkpt lat="44.50819" lon="3.74141">
        <ele>1232.9</ele>
        <time>2021-08-10T08:40:10Z</time>
      </trkpt>
      <trkpt lat="44.50803" lon="3.74128">
        <ele>1231.2</ele>
        <time>2021-08-10T08:40:12Z</time>
      </trkpt>
      <trkpt lat="44.50784" lon="3.74119">
        <ele>1229.2</ele>
        <time>2021-08-10T08:40:14Z</time>
      </trkpt>
      <trkpt lat="44.50764" lon="3.7411">
        <ele>1227.3</ele>
        <time>2021-08-10T08:40:16Z</time>
      </trkpt>
      <trkpt lat="44.50743" lon="3.74099">
        <ele>1225.2</ele>
        <time>2021-08-10T08:40:18Z</time>
      </trkpt>
      <trkpt lat="44.50723" lon="3.74089">
        <ele>1223</ele>
        <time>2021-08-10T08:40:20Z</time>
      </trkpt>
      <trkpt lat="44.50702" lon="3.74078">
        <ele>1220.7</ele>
        <time>2021-08-10T08:40:22Z</time>
      </trkpt>
      <trkpt lat="44.50682" lon="3.7407">
        <ele>1218.7</ele>
        <time>2021-08-10T08:40:24Z</time>
      </trkpt>
      <trkpt lat="44.50662" lon="3.74066">
        <ele>1217</ele>
        <time>2021-08-10T08:40:26Z</time>
      </trkpt>
      <trkpt lat="44.50641" lon="3.74068">
        <ele>1216.3</ele>
        <time>2021-08-10T08:40:28Z</time>
      </trkpt>
      <trkpt lat="44.50619" lon="3.74073">
        <ele>1215.4</ele>
        <time>2021-08-10T08:40:30Z</time>
      </trkpt>
      <trkpt lat="44.50596" lon="3.74078">
        <ele>1214.5</ele>
        <time>2021-08-10T08:40:32Z</time>
      </trkpt>
      <trkpt lat="44.50574" lon="3.74084">
        <ele>1213.4</ele>
        <time>2021-08-10T08:40:34Z</time>
      </trkpt>
      <trkpt lat="44.50551" lon="3.74089">
        <ele>1212</ele>
        <time>2021-08-10T08:40:36Z</time>
      </trkpt>
      <trkpt lat="44.5053" lon="3.74093">
        <ele>1210.7</ele>
        <time>2021-08-10T08:40:38Z</time>
      </trkpt>
      <trkpt lat="44.50509" lon="3.741">
        <ele>1209.6</ele>
        <time>2021-08-10T08:40:40Z</time>
      </trkpt>
      <trkpt lat="44.50489" lon="3.74108">
        <ele>1208.4</ele>
        <time>2021-08-10T08:40:42Z</time>
      </trkpt>
      <trkpt lat="44.50469" lon="3.74118">
        <ele>1207</ele>
        <time>2021-08-10T08:40:44Z</time>
      </trkpt>
      <trkpt lat="44.50449" lon="3.74126">
        <ele>1205.6</ele>
        <time>2021-08-10T08:40:46Z</time>
      </trkpt>
      <trkpt lat="44.5043" lon="3.74132">
        <ele>1204.2</ele>
        <time>2021-08-10T08:40:48Z</time>
      </trkpt>
      <trkpt lat="44.50412" lon="3.74137">
        <ele>1203.1</ele>
        <time>2021-08-10T08:40:50Z</time>
      </trkpt>
      <trkpt lat="44.50392" lon="3.74141">
        <ele>1202.3</ele>
        <time>2021-08-10T08:40:52Z</time>
      </trkpt>
      <trkpt lat="44.50373" lon="3.74145">
        <ele>1201.7</ele>
        <time>2021-08-10T08:40:54Z</time>
      </trkpt>
      <trkpt lat="44.50354" lon="3.74148">
        <ele>1200.9</ele>
        <time>2021-08-10T08:40:56Z</time>
      </trkpt>
      <trkpt lat="44.50338" lon="3.74149">
        <ele>1200.3</ele>
        <time>2021-08-10T08:40:58Z</time>
      </trkpt>
      <trkpt lat="44.50323" lon="3.74149">
        <ele>1199.5</ele>
        <time>2021-08-10T08:41:00Z</time>
      </trkpt>
      <trkpt lat="44.50308" lon="3.74146">
        <ele>1198.5</ele>
        <time>2021-08-10T08:41:02Z</time>
      </trkpt>
      <trkpt lat="44.50295" lon="3.74145">
        <ele>1197.7</ele>
        <time>2021-08-10T08:41:04Z</time>
      </trkpt>
      <trkpt lat="44.50281" lon="3.74145">
        <ele>1196.8</ele>
        <time>2021-08-10T08:41:06Z</time>
      </trkpt>
      <trkpt lat="44.50267" lon="3.74143">
        <ele>1195.9</ele>
        <time>2021-08-10T08:41:08Z</time>
      </trkpt>
      <trkpt lat="44.50254" lon="3.7414">
        <ele>1195</ele>
        <time>2021-08-10T08:41:10Z</time>
      </trkpt>
      <trkpt lat="44.5024" lon="3.74139">
        <ele>1193.7</ele>
        <time>2021-08-10T08:41:12Z</time>
      </trkpt>
      <trkpt lat="44.50226" lon="3.74135">
        <ele>1192.1</ele>
        <time>2021-08-10T08:41:14Z</time>
      </trkpt>
      <trkpt lat="44.50212" lon="3.74133">
        <ele>1190.6</ele>
        <time>2021-08-10T08:41:16Z</time>
      </trkpt>
      <trkpt lat="44.50197" lon="3.74128">
        <ele>1188.8</ele>
        <time>2021-08-10T08:41:18Z</time>
      </trkpt>
      <trkpt lat="44.50183" lon="3.74124">
        <ele>1187.1</ele>
        <time>2021-08-10T08:41:20Z</time>
      </trkpt>
      <trkpt lat="44.50168" lon="3.7412">
        <ele>1185.4</ele>
        <time>2021-08-10T08:41:22Z</time>
      </trkpt>
      <trkpt lat="44.50153" lon="3.74116">
        <ele>1183.9</ele>
        <time>2021-08-10T08:41:24Z</time>
      </trkpt>
      <trkpt lat="44.50137" lon="3.74111">
        <ele>1182.3</ele>
        <time>2021-08-10T08:41:26Z</time>
      </trkpt>
      <trkpt lat="44.50121" lon="3.74106">
        <ele>1180.8</ele>
        <time>2021-08-10T08:41:28Z</time>
      </trkpt>
      <trkpt lat="44.50106" lon="3.74101">
        <ele>1179.4</ele>
        <time>2021-08-10T08:41:30Z</time>
      </trkpt>
      <trkpt lat="44.50089" lon="3.74096">
        <ele>1177.9</ele>
        <time>2021-08-10T08:41:32Z</time>
      </trkpt>
      <trkpt lat="44.50072" lon="3.74091">
        <ele>1176.2</ele>
        <time>2021-08-10T08:41:34Z</time>
      </trkpt>
      <trkpt lat="44.50056" lon="3.74086">
        <ele>1174.5</ele>
        <time>2021-08-10T08:41:36Z</time>
      </trkpt>
      <trkpt lat="44.50039" lon="3.74081">
        <ele>1172.5</ele>
        <time>2021-08-10T08:41:38Z</time>
      </trkpt>
      <trkpt lat="44.50022" lon="3.74074">
        <ele>1170.3</ele>
        <time>2021-08-10T08:41:40Z</time>
      </trkpt>
      <trkpt lat="44.50003" lon="3.74067">
        <ele>1167.8</ele>
        <time>2021-08-10T08:41:42Z</time>
      </trkpt>
      <trkpt lat="44.49983" lon="3.74059">
        <ele>1164.8</ele>
        <time>2021-08-10T08:41:44Z</time>
      </trkpt>
      <trkpt lat="44.49963" lon="3.74053">
        <ele>1162</ele>
        <time>2021-08-10T08:41:46Z</time>
      </trkpt>
      <trkpt lat="44.49945" lon="3.74044">
        <ele>1159.4</ele>
        <time>2021-08-10T08:41:48Z</time>
      </trkpt>
      <trkpt lat="44.49926" lon="3.74035">
        <ele>1156.8</ele>
        <time>2021-08-10T08:41:50Z</time>
      </trkpt>
      <trkpt lat="44.49906" lon="3.74023">
        <ele>1154.7</ele>
        <time>2021-08-10T08:41:52Z</time>
      </trkpt>
      <trkpt lat="44.49887" lon="3.74011">
        <ele>1152.8</ele>
        <time>2021-08-10T08:41:54Z</time>
      </trkpt>
      <trkpt lat="44.49866" lon="3.73999">
        <ele>1150.7</ele>
        <time>2021-08-10T08:41:56Z</time>
      </trkpt>
      <trkpt lat="44.49846" lon="3.73988">
        <ele>1148.5</ele>
        <time>2021-08-10T08:41:58Z</time>
      </trkpt>
      <trkpt lat="44.49827" lon="3.73979">
        <ele>1146.4</ele>
        <time>2021-08-10T08:42:00Z</time>
      </trkpt>
      <trkpt lat="44.49808" lon="3.73971">
        <ele>1144.4</ele>
        <time>2021-08-10T08:42:02Z</time>
      </trkpt>
      <trkpt lat="44.49789" lon="3.73966">
        <ele>1142.5</ele>
        <time>2021-08-10T08:42:04Z</time>
      </trkpt>
      <trkpt lat="44.49767" lon="3.73962">
        <ele>1140.6</ele>
        <time>2021-08-10T08:42:06Z</time>
      </trkpt>
      <trkpt lat="44.49745" lon="3.73959">
        <ele>1138.5</ele>
        <time>2021-08-10T08:42:08Z</time>
      </trkpt>
      <trkpt lat="44.49721" lon="3.73957">
        <ele>1136.4</ele>
        <time>2021-08-10T08:42:10Z</time>
      </trkpt>
      <trkpt lat="44.49697" lon="3.73957">
        <ele>1134.2</ele>
        <time>2021-08-10T08:42:12Z</time>
      </trkpt>
      <trkpt lat="44.49674" lon="3.73956">
        <ele>1132.2</ele>
        <time>2021-08-10T08:42:14Z</time>
      </trkpt>
      <trkpt lat="44.49652" lon="3.73957">
        <ele>1130.2</ele>
        <time>2021-08-10T08:42:16Z</time>
      </trkpt>
      <trkpt lat="44.49631" lon="3.73957">
        <ele>1128.2</ele>
        <time>2021-08-10T08:42:18Z</time>
      </trkpt>
      <trkpt lat="44.49609" lon="3.73956">
        <ele>1126.2</ele>
        <time>2021-08-10T08:42:20Z</time>
      </trkpt>
      <trkpt lat="44.49587" lon="3.73954">
        <ele>1124.2</ele>
        <time>2021-08-10T08:42:22Z</time>
      </trkpt>
      <trkpt lat="44.49567" lon="3.73951">
        <ele>1122.6</ele>
        <time>2021-08-10T08:42:24Z</time>
      </trkpt>
      <trkpt lat="44.49548" lon="3.73948">
        <ele>1121.1</ele>
        <time>2021-08-10T08:42:26Z</time>
      </trkpt>
      <trkpt lat="44.49529" lon="3.73946">
        <ele>1119.6</ele>
        <time>2021-08-10T08:42:28Z</time>
      </trkpt>
      <trkpt lat="44.4951" lon="3.73942">
        <ele>1118</ele>
        <time>2021-08-10T08:42:30Z</time>
      </trkpt>
      <trkpt lat="44.4949" lon="3.73936">
        <ele>1116.6</ele>
        <time>2021-08-10T08:42:32Z</time>
      </trkpt>
      <trkpt lat="44.4947" lon="3.73929">
        <ele>1115.3</ele>
        <time>2021-08-10T08:42:34Z</time>
      </trkpt>
      <trkpt lat="44.4945" lon="3.73924">
        <ele>1114</ele>
        <time>2021-08-10T08:42:36Z</time>
      </trkpt>
      <trkpt lat="44.49429" lon="3.7392">
        <ele>1112.7</ele>
        <time>2021-08-10T08:42:38Z</time>
      </trkpt>
      <trkpt lat="44.49409" lon="3.73916">
        <ele>1111.1</ele>
        <time>2021-08-10T08:42:40Z</time>
      </trkpt>
      <trkpt lat="44.49389" lon="3.7391">
        <ele>1108.7</ele>
        <time>2021-08-10T08:42:42Z</time>
      </trkpt>
      <trkpt lat="44.49369" lon="3.73904">
        <ele>1106.4</ele>
        <time>2021-08-10T08:42:44Z</time>
      </trkpt>
      <trkpt lat="44.49349" lon="3.73897">
        <ele>1104.2</ele>
        <time>2021-08-10T08:42:46Z</time>
      </trkpt>
      <trkpt lat="44.4933" lon="3.73891">
        <ele>1102.3</ele>
        <time>2021-08-10T08:42:48Z</time>
      </trkpt>
      <trkpt lat="44.49311" lon="3.73885">
        <ele>1100.5</ele>
        <time>2021-08-10T08:42:50Z</time>
      </trkpt>
      <trkpt lat="44.49293" lon="3.7388">
        <ele>1098.8</ele>
        <time>2021-08-10T08:42:52Z</time>
      </trkpt>
      <trkpt lat="44.49276" lon="3.73878">
        <ele>1097.3</ele>
        <time>2021-08-10T08:42:54Z</time>
      </trkpt>
      <trkpt lat="44.49259" lon="3.73877">
        <ele>1095.8</ele>
        <time>2021-08-10T08:42:56Z</time>
      </trkpt>
      <trkpt lat="44.49243" lon="3.73874">
        <ele>1094.3</ele>
        <time>2021-08-10T08:42:58Z</time>
      </trkpt>
      <trkpt lat="44.49227" lon="3.73874">
        <ele>1093</ele>
        <time>2021-08-10T08:43:00Z</time>
      </trkpt>
      <trkpt lat="44.49212" lon="3.73875">
        <ele>1091.6</ele>
        <time>2021-08-10T08:43:02Z</time>
      </trkpt>
      <trkpt lat="44.49198" lon="3.73878">
        <ele>1090.3</ele>
        <time>2021-08-10T08:43:04Z</time>
      </trkpt>
      <trkpt lat="44.49184" lon="3.73886">
        <ele>1088.7</ele>
        <time>2021-08-10T08:43:06Z</time>
      </trkpt>
      <trkpt lat="44.49172" lon="3.73894">
        <ele>1087.3</ele>
        <time>2021-08-10T08:43:08Z</time>
      </trkpt>
      <trkpt lat="44.49162" lon="3.73899">
        <ele>1086.1</ele>
        <time>2021-08-10T08:43:10Z</time>
      </trkpt>
      <trkpt lat="44.49149" lon="3.73901">
        <ele>1084.5</ele>
        <time>2021-08-10T08:43:12Z</time>
      </trkpt>
      <trkpt lat="44.49136" lon="3.73904">
        <ele>1083</ele>
        <time>2021-08-10T08:43:14Z</time>
      </trkpt>
      <trkpt lat="44.49123" lon="3.73907">
        <ele>1081.4</ele>
        <time>2021-08-10T08:43:16Z</time>
      </trkpt>
      <trkpt lat="44.49109" lon="3.73909">
        <ele>1079.8</ele>
        <time>2021-08-10T08:43:18Z</time>
      </trkpt>
      <trkpt lat="44.49097" lon="3.73909">
        <ele>1078.4</ele>
        <time>2021-08-10T08:43:20Z</time>
      </trkpt>
      <trkpt lat="44.49085" lon="3.73913">
        <ele>1077.2</ele>
        <time>2021-08-10T08:43:22Z</time>
      </trkpt>
      <trkpt lat="44.49074" lon="3.73923">
        <ele>1075.9</ele>
        <time>2021-08-10T08:43:24Z</time>
      </trkpt>
      <trkpt lat="44.49065" lon="3.73937">
        <ele>1074.4</ele>
        <time>2021-08-10T08:43:26Z</time>
      </trkpt>
      <trkpt lat="44.4906" lon="3.73954">
        <ele>1073.4</ele>
        <time>2021-08-10T08:43:28Z</time>
      </trkpt>
      <trkpt lat="44.4906" lon="3.73972">
        <ele>1072.6</ele>
        <time>2021-08-10T08:43:30Z</time>
      </trkpt>
      <trkpt lat="44.49063" lon="3.73988">
        <ele>1072.2</ele>
        <time>2021-08-10T08:43:32Z</time>
      </trkpt>
      <trkpt lat="44.49067" lon="3.73999">
        <ele>1072.1</ele>
        <time>2021-08-10T08:43:34Z</time>
      </trkpt>
      <trkpt lat="44.49072" lon="3.74008">
        <ele>1072.2</ele>
        <time>2021-08-10T08:43:36Z</time>
      </trkpt>
      <trkpt lat="44.49073" lon="3.74017">
        <ele>1072.2</ele>
        <time>2021-08-10T08:43:38Z</time>
      </trkpt>
      <trkpt lat="44.49073" lon="3.74026">
        <ele>1072.1</ele>
        <time>2021-08-10T08:43:40Z</time>
      </trkpt>
      <trkpt lat="44.4907" lon="3.74033">
        <ele>1071.9</ele>
        <time>2021-08-10T08:43:42Z</time>
      </trkpt>
      <trkpt lat="44.49067" lon="3.74036">
        <ele>1071.7</ele>
        <time>2021-08-10T08:43:44Z</time>
      </trkpt>
      <trkpt lat="44.49067" lon="3.74035">
        <ele>1071.7</ele>
        <time>2021-08-10T08:43:46Z</time>
      </trkpt>
      <trkpt lat="44.49068" lon="3.74035">
        <ele>1071.7</ele>
        <time>2021-08-10T08:43:48Z</time>
      </trkpt>
      <trkpt lat="44.49068" lon="3.74035">
        <ele>1071.7</ele>
        <time>2021-08-10T08:43:50Z</time>
      </trkpt>
      <trkpt lat="44.49067" lon="3.74035">
        <ele>1071.7</ele>
        <time>2021-08-10T08:43:52Z</time>
      </trkpt>
      <trkpt lat="44.49067" lon="3.74035">
        <ele>1071.7</ele>
        <time>2021-08-10T08:43:54Z</time>
      </trkpt>
      <trkpt lat="44.49067" lon="3.74035">
        <ele>1071.7</ele>
        <time>2021-08-10T08:43:56Z</time>
      </trkpt>
      <trkpt lat="44.49067" lon="3.74036">
        <ele>1071.7</ele>
        <time>2021-08-10T08:43:58Z</time>
      </trkpt>
      <trkpt lat="44.49066" lon="3.74036">
        <ele>1071.6</ele>
        <time>2021-08-10T08:44:00Z</time>
      </trkpt>
      <trkpt lat="44.49066" lon="3.74036">
        <ele>1071.6</ele>
        <time>2021-08-10T08:44:02Z</time>
      </trkpt>
      <trkpt lat="44.49066" lon="3.74036">
        <ele>1071.6</ele>
        <time>2021-08-10T08:44:04Z</time>
      </trkpt>
      <trkpt lat="44.49064" lon="3.74038">
        <ele>1071.5</ele>
        <time>2021-08-10T08:44:06Z</time>
      </trkpt>
      <trkpt lat="44.49061" lon="3.7404">
        <ele>1071.3</ele>
        <time>2021-08-10T08:44:08Z</time>
      </trkpt>
      <trkpt lat="44.4906" lon="3.74042">
        <ele>1071.2</ele>
        <time>2021-08-10T08:44:10Z</time>
      </trkpt>
      <trkpt lat="44.49059" lon="3.74043">
        <ele>1071.2</ele>
        <time>2021-08-10T08:44:12Z</time>
      </trkpt>
      <trkpt lat="44.49059" lon="3.74043">
        <ele>1071.2</ele>
        <time>2021-08-10T08:44:14Z</time>
      </trkpt>
      <trkpt lat="44.49059" lon="3.74043">
        <ele>1071.2</ele>
        <time>2021-08-10T08:44:16Z</time>
      </trkpt>
      <trkpt lat="44.49059" lon="3.74043">
        <ele>1071.2</ele>
        <time>2021-08-10T08:44:18Z</time>
      </trkpt>
      <trkpt lat="44.49039" lon="3.74011">
        <ele>1070.3</ele>
        <time>2021-08-10T08:52:22Z</time>
      </trkpt>
      <trkpt lat="44.49035" lon="3.74006">
        <ele>1070.1</ele>
        <time>2021-08-10T08:52:24Z</time>
      </trkpt>
      <trkpt lat="44.49032" lon="3.74">
        <ele>1069.9</ele>
        <time>2021-08-10T08:52:26Z</time>
      </trkpt>
      <trkpt lat="44.49029" lon="3.73994">
        <ele>1069.9</ele>
        <time>2021-08-10T08:52:28Z</time>
      </trkpt>
      <trkpt lat="44.49026" lon="3.73989">
        <ele>1069.8</ele>
        <time>2021-08-10T08:52:30Z</time>
      </trkpt>
      <trkpt lat="44.49024" lon="3.73981">
        <ele>1069.9</ele>
        <time>2021-08-10T08:52:32Z</time>
      </trkpt>
      <trkpt lat="44.49022" lon="3.73974">
        <ele>1069.9</ele>
        <time>2021-08-10T08:52:34Z</time>
      </trkpt>
      <trkpt lat="44.49021" lon="3.73967">
        <ele>1069.9</ele>
        <time>2021-08-10T08:52:36Z</time>
      </trkpt>
      <trkpt lat="44.49019" lon="3.73961">
        <ele>1070</ele>
        <time>2021-08-10T08:52:38Z</time>
      </trkpt>
      <trkpt lat="44.49018" lon="3.73956">
        <ele>1070</ele>
        <time>2021-08-10T08:52:40Z</time>
      </trkpt>
      <trkpt lat="44.49015" lon="3.7395">
        <ele>1069.8</ele>
        <time>2021-08-10T08:52:42Z</time>
      </trkpt>
      <trkpt lat="44.4901" lon="3.73947">
        <ele>1069.5</ele>
        <time>2021-08-10T08:52:44Z</time>
      </trkpt>
      <trkpt lat="44.49006" lon="3.73948">
        <ele>1069.2</ele>
        <time>2021-08-10T08:52:46Z</time>
      </trkpt>
      <trkpt lat="44.49002" lon="3.73947">
        <ele>1068.8</ele>
        <time>2021-08-10T08:52:48Z</time>
      </trkpt>
      <trkpt lat="44.48996" lon="3.73944">
        <ele>1068.7</ele>
        <time>2021-08-10T08:52:50Z</time>
      </trkpt>
      <trkpt lat="44.48989" lon="3.73942">
        <ele>1068.7</ele>
        <time>2021-08-10T08:52:52Z</time>
      </trkpt>
      <trkpt lat="44.48981" lon="3.73941">
        <ele>1068.7</ele>
        <time>2021-08-10T08:52:54Z</time>
      </trkpt>
      <trkpt lat="44.48972" lon="3.7394">
        <ele>1068.8</ele>
        <time>2021-08-10T08:52:56Z</time>
      </trkpt>
      <trkpt lat="44.48964" lon="3.73938">
        <ele>1068.8</ele>
        <time>2021-08-10T08:52:58Z</time>
      </trkpt>
      <trkpt lat="44.48954" lon="3.73938">
        <ele>1068.8</ele>
        <time>2021-08-10T08:53:00Z</time>
      </trkpt>
      <trkpt lat="44.48944" lon="3.73934">
        <ele>1068.7</ele>
        <time>2021-08-10T08:53:02Z</time>
      </trkpt>
      <trkpt lat="44.48934" lon="3.7393">
        <ele>1068.6</ele>
        <time>2021-08-10T08:53:04Z</time>
      </trkpt>
      <trkpt lat="44.48925" lon="3.73922">
        <ele>1068.3</ele>
        <time>2021-08-10T08:53:06Z</time>
      </trkpt>
      <trkpt lat="44.48918" lon="3.73911">
        <ele>1068</ele>
        <time>2021-08-10T08:53:08Z</time>
      </trkpt>
      <trkpt lat="44.48915" lon="3.73898">
        <ele>1068.4</ele>
        <time>2021-08-10T08:53:10Z</time>
      </trkpt>
      <trkpt lat="44.48913" lon="3.73886">
        <ele>1069.1</ele>
        <time>2021-08-10T08:53:12Z</time>
      </trkpt>
      <trkpt lat="44.48911" lon="3.73876">
        <ele>1069.5</ele>
        <time>2021-08-10T08:53:14Z</time>
      </trkpt>
      <trkpt lat="44.48908" lon="3.73867">
        <ele>1069.9</ele>
        <time>2021-08-10T08:53:16Z</time>
      </trkpt>
      <trkpt lat="44.48906" lon="3.7386">
        <ele>1070.3</ele>
        <time>2021-08-10T08:53:18Z</time>
      </trkpt>
      <trkpt lat="44.48905" lon="3.73855">
        <ele>1070.6</ele>
        <time>2021-08-10T08:53:20Z</time>
      </trkpt>
      <trkpt lat="44.48904" lon="3.7385">
        <ele>1070.8</ele>
        <time>2021-08-10T08:53:22Z</time>
      </trkpt>
      <trkpt lat="44.48902" lon="3.73844">
        <ele>1071</ele>
        <time>2021-08-10T08:53:24Z</time>
      </trkpt>
      <trkpt lat="44.48901" lon="3.73839">
        <ele>1071.2</ele>
        <time>2021-08-10T08:53:26Z</time>
      </trkpt>
      <trkpt lat="44.489" lon="3.73833">
        <ele>1071.3</ele>
        <time>2021-08-10T08:53:28Z</time>
      </trkpt>
      <trkpt lat="44.48898" lon="3.73828">
        <ele>1071.5</ele>
        <time>2021-08-10T08:53:30Z</time>
      </trkpt>
      <trkpt lat="44.48898" lon="3.73824">
        <ele>1071.5</ele>
        <time>2021-08-10T08:53:32Z</time>
      </trkpt>
      <trkpt lat="44.48898" lon="3.73821">
        <ele>1071.5</ele>
        <time>2021-08-10T08:53:34Z</time>
      </trkpt>
      <trkpt lat="44.48897" lon="3.73816">
        <ele>1071.5</ele>
        <time>2021-08-10T08:53:36Z</time>
      </trkpt>
      <trkpt lat="44.48896" lon="3.73811">
        <ele>1071.6</ele>
        <time>2021-08-10T08:53:38Z</time>
      </trkpt>
      <trkpt lat="44.48895" lon="3.73805">
        <ele>1071.8</ele>
        <time>2021-08-10T08:53:40Z</time>
      </trkpt>
      <trkpt lat="44.48894" lon="3.73798">
        <ele>1071.8</ele>
        <time>2021-08-10T08:53:42Z</time>
      </trkpt>
      <trkpt lat="44.48893" lon="3.73791">
        <ele>1072</ele>
        <time>2021-08-10T08:53:44Z</time>
      </trkpt>
      <trkpt lat="44.48892" lon="3.73784">
        <ele>1072.1</ele>
        <time>2021-08-10T08:53:46Z</time>
      </trkpt>
      <trkpt lat="44.48891" lon="3.73776">
        <ele>1072.1</ele>
        <time>2021-08-10T08:53:48Z</time>
      </trkpt>
      <trkpt lat="44.4889" lon="3.73768">
        <ele>1072.2</ele>
        <time>2021-08-10T08:53:50Z</time>
      </trkpt>
      <trkpt lat="44.48888" lon="3.73759">
        <ele>1072.2</ele>
        <time>2021-08-10T08:53:52Z</time>
      </trkpt>
      <trkpt lat="44.48886" lon="3.7375">
        <ele>1072.4</ele>
        <time>2021-08-10T08:53:54Z</time>
      </trkpt>
      <trkpt lat="44.48883" lon="3.73741">
        <ele>1072.2</ele>
        <time>2021-08-10T08:53:56Z</time>
      </trkpt>
      <trkpt lat="44.4888" lon="3.73733">
        <ele>1072.2</ele>
        <time>2021-08-10T08:53:58Z</time>
      </trkpt>
      <trkpt lat="44.48876" lon="3.73724">
        <ele>1072.1</ele>
        <time>2021-08-10T08:54:00Z</time>
      </trkpt>
      <trkpt lat="44.48872" lon="3.73716">
        <ele>1072.2</ele>
        <time>2021-08-10T08:54:02Z</time>
      </trkpt>
      <trkpt lat="44.48866" lon="3.73708">
        <ele>1072.3</ele>
        <time>2021-08-10T08:54:04Z</time>
      </trkpt>
      <trkpt lat="44.48862" lon="3.73699">
        <ele>1072.3</ele>
        <time>2021-08-10T08:54:06Z</time>
      </trkpt>
      <trkpt lat="44.48856" lon="3.7369">
        <ele>1072.3</ele>
        <time>2021-08-10T08:54:08Z</time>
      </trkpt>
      <trkpt lat="44.48851" lon="3.73681">
        <ele>1072.2</ele>
        <time>2021-08-10T08:54:10Z</time>
      </trkpt>
      <trkpt lat="44.48846" lon="3.73672">
        <ele>1072.1</ele>
        <time>2021-08-10T08:54:12Z</time>
      </trkpt>
      <trkpt lat="44.4884" lon="3.73663">
        <ele>1072</ele>
        <time>2021-08-10T08:54:14Z</time>
      </trkpt>
      <trkpt lat="44.48835" lon="3.73654">
        <ele>1071.8</ele>
        <time>2021-08-10T08:54:16Z</time>
      </trkpt>
      <trkpt lat="44.48829" lon="3.73645">
        <ele>1071.9</ele>
        <time>2021-08-10T08:54:18Z</time>
      </trkpt>
      <trkpt lat="44.48824" lon="3.73635">
        <ele>1071.9</ele>
        <time>2021-08-10T08:54:20Z</time>
      </trkpt>
      <trkpt lat="44.48818" lon="3.73625">
        <ele>1072</ele>
        <time>2021-08-10T08:54:22Z</time>
      </trkpt>
      <trkpt lat="44.48813" lon="3.73615">
        <ele>1071.9</ele>
        <time>2021-08-10T08:54:24Z</time>
      </trkpt>
      <trkpt lat="44.48808" lon="3.73605">
        <ele>1071.7</ele>
        <time>2021-08-10T08:54:26Z</time>
      </trkpt>
      <trkpt lat="44.48803" lon="3.73594">
        <ele>1071.1</ele>
        <time>2021-08-10T08:54:28Z</time>
      </trkpt>
      <trkpt lat="44.48799" lon="3.73583">
        <ele>1070.6</ele>
        <time>2021-08-10T08:54:30Z</time>
      </trkpt>
      <trkpt lat="44.48793" lon="3.73573">
        <ele>1070.8</ele>
        <time>2021-08-10T08:54:32Z</time>
      </trkpt>
      <trkpt lat="44.48787" lon="3.73563">
        <ele>1071</ele>
        <time>2021-08-10T08:54:34Z</time>
      </trkpt>
      <trkpt lat="44.4878" lon="3.73553">
        <ele>1071.1</ele>
        <time>2021-08-10T08:54:36Z</time>
      </trkpt>
      <trkpt lat="44.48771" lon="3.73545">
        <ele>1071.2</ele>
        <time>2021-08-10T08:54:38Z</time>
      </trkpt>
      <trkpt lat="44.48763" lon="3.73538">
        <ele>1071.2</ele>
        <time>2021-08-10T08:54:40Z</time>
      </trkpt>
      <trkpt lat="44.48754" lon="3.73531">
        <ele>1071.1</ele>
        <time>2021-08-10T08:54:42Z</time>
      </trkpt>
      <trkpt lat="44.48746" lon="3.73525">
        <ele>1070.9</ele>
        <time>2021-08-10T08:54:44Z</time>
      </trkpt>
      <trkpt lat="44.48737" lon="3.73519">
        <ele>1070.7</ele>
        <time>2021-08-10T08:54:46Z</time>
      </trkpt>
      <trkpt lat="44.48729" lon="3.73513">
        <ele>1070.3</ele>
        <time>2021-08-10T08:54:48Z</time>
      </trkpt>
      <trkpt lat="44.4872" lon="3.73507">
        <ele>1069.9</ele>
        <time>2021-08-10T08:54:50Z</time>
      </trkpt>
      <trkpt lat="44.48712" lon="3.735">
        <ele>1069.4</ele>
        <time>2021-08-10T08:54:52Z</time>
      </trkpt>
      <trkpt lat="44.48704" lon="3.73495">
        <ele>1069.7</ele>
        <time>2021-08-10T08:54:54Z</time>
      </trkpt>
      <trkpt lat="44.48696" lon="3.7349">
        <ele>1070</ele>
        <time>2021-08-10T08:54:56Z</time>
      </trkpt>
      <trkpt lat="44.48688" lon="3.73485">
        <ele>1070.2</ele>
        <time>2021-08-10T08:54:58Z</time>
      </trkpt>
      <trkpt lat="44.48681" lon="3.7348">
        <ele>1070.3</ele>
        <time>2021-08-10T08:55:00Z</time>
      </trkpt>
      <trkpt lat="44.48675" lon="3.73475">
        <ele>1070.3</ele>
        <time>2021-08-10T08:55:02Z</time>
      </trkpt>
      <trkpt lat="44.48667" lon="3.7347">
        <ele>1070.3</ele>
        <time>2021-08-10T08:55:04Z</time>
      </trkpt>
      <trkpt lat="44.4866" lon="3.73465">
        <ele>1070.4</ele>
        <time>2021-08-10T08:55:06Z</time>
      </trkpt>
      <trkpt lat="44.48652" lon="3.73458">
        <ele>1070.5</ele>
        <time>2021-08-10T08:55:08Z</time>
      </trkpt>
      <trkpt lat="44.48645" lon="3.73453">
        <ele>1070.6</ele>
        <time>2021-08-10T08:55:10Z</time>
      </trkpt>
      <trkpt lat="44.48638" lon="3.73449">
        <ele>1070.7</ele>
        <time>2021-08-10T08:55:12Z</time>
      </trkpt>
      <trkpt lat="44.48631" lon="3.73447">
        <ele>1070.8</ele>
        <time>2021-08-10T08:55:14Z</time>
      </trkpt>
      <trkpt lat="44.48625" lon="3.73446">
        <ele>1070.9</ele>
        <time>2021-08-10T08:55:16Z</time>
      </trkpt>
      <trkpt lat="44.4862" lon="3.73449">
        <ele>1071.2</ele>
        <time>2021-08-10T08:55:18Z</time>
      </trkpt>
      <trkpt lat="44.48617" lon="3.73452">
        <ele>1071.5</ele>
        <time>2021-08-10T08:55:20Z</time>
      </trkpt>
      <trkpt lat="44.48616" lon="3.73455">
        <ele>1071.6</ele>
        <time>2021-08-10T08:55:22Z</time>
      </trkpt>
      <trkpt lat="44.48616" lon="3.73458">
        <ele>1071.8</ele>
        <time>2021-08-10T08:55:24Z</time>
      </trkpt>
      <trkpt lat="44.48615" lon="3.7346">
        <ele>1071.9</ele>
        <time>2021-08-10T08:55:26Z</time>
      </trkpt>
      <trkpt lat="44.48616" lon="3.73462">
        <ele>1072</ele>
        <time>2021-08-10T08:55:28Z</time>
      </trkpt>
      <trkpt lat="44.48617" lon="3.73463">
        <ele>1072</ele>
        <time>2021-08-10T08:55:30Z</time>
      </trkpt>
      <trkpt lat="44.48617" lon="3.73462">
        <ele>1072</ele>
        <time>2021-08-10T08:55:32Z</time>
      </trkpt>
      <trkpt lat="44.48627" lon="3.73477">
        <ele>1072.3</ele>
        <time>2021-08-10T08:55:54Z</time>
      </trkpt>
      <trkpt lat="44.48628" lon="3.73481">
        <ele>1072.4</ele>
        <time>2021-08-10T08:55:56Z</time>
      </trkpt>
      <trkpt lat="44.4863" lon="3.73485">
        <ele>1072.5</ele>
        <time>2021-08-10T08:55:58Z</time>
      </trkpt>
      <trkpt lat="44.48633" lon="3.73489">
        <ele>1072.5</ele>
        <time>2021-08-10T08:56:00Z</time>
      </trkpt>
      <trkpt lat="44.48634" lon="3.73493">
        <ele>1072.6</ele>
        <time>2021-08-10T08:56:02Z</time>
      </trkpt>
      <trkpt lat="44.48637" lon="3.73497">
        <ele>1072.7</ele>
        <time>2021-08-10T08:56:04Z</time>
      </trkpt>
      <trkpt lat="44.48638" lon="3.735">
        <ele>1072.8</ele>
        <time>2021-08-10T08:56:06Z</time>
      </trkpt>
      <trkpt lat="44.48639" lon="3.73504">
        <ele>1073.3</ele>
        <time>2021-08-10T08:56:08Z</time>
      </trkpt>
      <trkpt lat="44.48641" lon="3.73508">
        <ele>1073.8</ele>
        <time>2021-08-10T08:56:10Z</time>
      </trkpt>
      <trkpt lat="44.48642" lon="3.73512">
        <ele>1074.2</ele>
        <time>2021-08-10T08:56:12Z</time>
      </trkpt>
      <trkpt lat="44.48645" lon="3.73515">
        <ele>1074.5</ele>
        <time>2021-08-10T08:56:14Z</time>
      </trkpt>
      <trkpt lat="44.48647" lon="3.73518">
        <ele>1074.9</ele>
        <time>2021-08-10T08:56:16Z</time>
      </trkpt>
      <trkpt lat="44.48648" lon="3.73522">
        <ele>1075.4</ele>
        <time>2021-08-10T08:56:18Z</time>
      </trkpt>
      <trkpt lat="44.48649" lon="3.73525">
        <ele>1075.9</ele>
        <time>2021-08-10T08:56:20Z</time>
      </trkpt>
      <trkpt lat="44.48651" lon="3.73528">
        <ele>1076.3</ele>
        <time>2021-08-10T08:56:22Z</time>
      </trkpt>
      <trkpt lat="44.48653" lon="3.73529">
        <ele>1076.5</ele>
        <time>2021-08-10T08:56:24Z</time>
      </trkpt>
      <trkpt lat="44.48655" lon="3.73531">
        <ele>1076.7</ele>
        <time>2021-08-10T08:56:26Z</time>
      </trkpt>
      <trkpt lat="44.48657" lon="3.73533">
        <ele>1076.8</ele>
        <time>2021-08-10T08:56:28Z</time>
      </trkpt>
      <trkpt lat="44.48659" lon="3.73534">
        <ele>1077.1</ele>
        <time>2021-08-10T08:56:30Z</time>
      </trkpt>
      <trkpt lat="44.48661" lon="3.73537">
        <ele>1077.4</ele>
        <time>2021-08-10T08:56:32Z</time>
      </trkpt>
      <trkpt lat="44.48663" lon="3.73539">
        <ele>1077.7</ele>
        <time>2021-08-10T08:56:34Z</time>
      </trkpt>
      <trkpt lat="44.48665" lon="3.73542">
        <ele>1078</ele>
        <time>2021-08-10T08:56:36Z</time>
      </trkpt>
      <trkpt lat="44.48667" lon="3.73543">
        <ele>1078.3</ele>
        <time>2021-08-10T08:56:38Z</time>
      </trkpt>
      <trkpt lat="44.48668" lon="3.73545">
        <ele>1078.4</ele>
        <time>2021-08-10T08:56:40Z</time>
      </trkpt>
      <trkpt lat="44.48669" lon="3.73546">
        <ele>1078.7</ele>
        <time>2021-08-10T08:56:42Z</time>
      </trkpt>
      <trkpt lat="44.4867" lon="3.73546">
        <ele>1078.5</ele>
        <time>2021-08-10T08:56:44Z</time>
      </trkpt>
      <trkpt lat="44.48669" lon="3.73546">
        <ele>1078.6</ele>
        <time>2021-08-10T08:56:46Z</time>
      </trkpt>
      <trkpt lat="44.48667" lon="3.7355">
        <ele>1079.3</ele>
        <time>2021-08-10T08:56:48Z</time>
      </trkpt>
      <trkpt lat="44.48664" lon="3.73554">
        <ele>1080.1</ele>
        <time>2021-08-10T08:56:50Z</time>
      </trkpt>
      <trkpt lat="44.48662" lon="3.73558">
        <ele>1080.9</ele>
        <time>2021-08-10T08:56:52Z</time>
      </trkpt>
      <trkpt lat="44.4866" lon="3.73558">
        <ele>1080.9</ele>
        <time>2021-08-10T08:56:54Z</time>
      </trkpt>
      <trkpt lat="44.48656" lon="3.73559">
        <ele>1081.1</ele>
        <time>2021-08-10T08:56:56Z</time>
      </trkpt>
      <trkpt lat="44.48653" lon="3.73557">
        <ele>1080.8</ele>
        <time>2021-08-10T08:56:58Z</time>
      </trkpt>
      <trkpt lat="44.4865" lon="3.73559">
        <ele>1081.2</ele>
        <time>2021-08-10T08:57:00Z</time>
      </trkpt>
      <trkpt lat="44.48648" lon="3.73561">
        <ele>1081.6</ele>
        <time>2021-08-10T08:57:02Z</time>
      </trkpt>
      <trkpt lat="44.48646" lon="3.73563">
        <ele>1081.8</ele>
        <time>2021-08-10T08:57:04Z</time>
      </trkpt>
      <trkpt lat="44.48644" lon="3.73565">
        <ele>1082.3</ele>
        <time>2021-08-10T08:57:06Z</time>
      </trkpt>
      <trkpt lat="44.48642" lon="3.73567">
        <ele>1082.6</ele>
        <time>2021-08-10T08:57:08Z</time>
      </trkpt>
      <trkpt lat="44.48639" lon="3.73568">
        <ele>1082.7</ele>
        <time>2021-08-10T08:57:10Z</time>
      </trkpt>
      <trkpt lat="44.48636" lon="3.73569">
        <ele>1083</ele>
        <time>2021-08-10T08:57:12Z</time>
      </trkpt>
      <trkpt lat="44.48634" lon="3.7357">
        <ele>1083.1</ele>
        <time>2021-08-10T08:57:14Z</time>
      </trkpt>
      <trkpt lat="44.48632" lon="3.73574">
        <ele>1083.7</ele>
        <time>2021-08-10T08:57:16Z</time>
      </trkpt>
      <trkpt lat="44.48633" lon="3.73578">
        <ele>1084.3</ele>
        <time>2021-08-10T08:57:18Z</time>
      </trkpt>
      <trkpt lat="44.48633" lon="3.73582">
        <ele>1084.8</ele>
        <time>2021-08-10T08:57:20Z</time>
      </trkpt>
      <trkpt lat="44.48632" lon="3.73586">
        <ele>1085.3</ele>
        <time>2021-08-10T08:57:22Z</time>
      </trkpt>
      <trkpt lat="44.48632" lon="3.73589">
        <ele>1085.8</ele>
        <time>2021-08-10T08:57:24Z</time>
      </trkpt>
      <trkpt lat="44.48631" lon="3.73592">
        <ele>1086.2</ele>
        <time>2021-08-10T08:57:26Z</time>
      </trkpt>
      <trkpt lat="44.48629" lon="3.73593">
        <ele>1086.3</ele>
        <time>2021-08-10T08:57:28Z</time>
      </trkpt>
      <trkpt lat="44.48626" lon="3.73594">
        <ele>1086.4</ele>
        <time>2021-08-10T08:57:30Z</time>
      </trkpt>
      <trkpt lat="44.48622" lon="3.73594">
        <ele>1086.5</ele>
        <time>2021-08-10T08:57:32Z</time>
      </trkpt>
      <trkpt lat="44.4862" lon="3.73596">
        <ele>1086.7</ele>
        <time>2021-08-10T08:57:34Z</time>
      </trkpt>
      <trkpt lat="44.48617" lon="3.73598">
        <ele>1087</ele>
        <time>2021-08-10T08:57:36Z</time>
      </trkpt>
      <trkpt lat="44.48614" lon="3.73599">
        <ele>1087.1</ele>
        <time>2021-08-10T08:57:38Z</time>
      </trkpt>
      <trkpt lat="44.48612" lon="3.736">
        <ele>1087.3</ele>
        <time>2021-08-10T08:57:40Z</time>
      </trkpt>
      <trkpt lat="44.48609" lon="3.73602">
        <ele>1087.5</ele>
        <time>2021-08-10T08:57:42Z</time>
      </trkpt>
      <trkpt lat="44.48606" lon="3.73601">
        <ele>1087.4</ele>
        <time>2021-08-10T08:57:44Z</time>
      </trkpt>
      <trkpt lat="44.48604" lon="3.736">
        <ele>1087.3</ele>
        <time>2021-08-10T08:57:46Z</time>
      </trkpt>
      <trkpt lat="44.48603" lon="3.73598">
        <ele>1087</ele>
        <time>2021-08-10T08:57:48Z</time>
      </trkpt>
      <trkpt lat="44.486" lon="3.73601">
        <ele>1087.4</ele>
        <time>2021-08-10T08:57:50Z</time>
      </trkpt>
      <trkpt lat="44.486" lon="3.73604">
        <ele>1087.8</ele>
        <time>2021-08-10T08:57:52Z</time>
      </trkpt>
      <trkpt lat="44.48602" lon="3.73605">
        <ele>1087.9</ele>
        <time>2021-08-10T08:57:54Z</time>
      </trkpt>
      <trkpt lat="44.48605" lon="3.73604">
        <ele>1087.8</ele>
        <time>2021-08-10T08:57:56Z</time>
      </trkpt>
      <trkpt lat="44.48608" lon="3.73603">
        <ele>1087.7</ele>
        <time>2021-08-10T08:57:58Z</time>
      </trkpt>
      <trkpt lat="44.48612" lon="3.736">
        <ele>1087.2</ele>
        <time>2021-08-10T08:58:00Z</time>
      </trkpt>
      <trkpt lat="44.48617" lon="3.73597">
        <ele>1086.8</ele>
        <time>2021-08-10T08:58:02Z</time>
      </trkpt>
      <trkpt lat="44.48621" lon="3.73595">
        <ele>1086.6</ele>
        <time>2021-08-10T08:58:04Z</time>
      </trkpt>
      <trkpt lat="44.48623" lon="3.73595">
        <ele>1086.6</ele>
        <time>2021-08-10T08:58:06Z</time>
      </trkpt>
      <trkpt lat="44.48625" lon="3.73595">
        <ele>1086.6</ele>
        <time>2021-08-10T08:58:08Z</time>
      </trkpt>
      <trkpt lat="44.48626" lon="3.73594">
        <ele>1086.5</ele>
        <time>2021-08-10T08:58:10Z</time>
      </trkpt>
      <trkpt lat="44.48629" lon="3.73592">
        <ele>1086.2</ele>
        <time>2021-08-10T08:58:12Z</time>
      </trkpt>
      <trkpt lat="44.48632" lon="3.7359">
        <ele>1085.9</ele>
        <time>2021-08-10T08:58:14Z</time>
      </trkpt>
      <trkpt lat="44.48635" lon="3.73588">
        <ele>1085.6</ele>
        <time>2021-08-10T08:58:16Z</time>
      </trkpt>
      <trkpt lat="44.48638" lon="3.73587">
        <ele>1085.5</ele>
        <time>2021-08-10T08:58:18Z</time>
      </trkpt>
      <trkpt lat="44.4864" lon="3.73586">
        <ele>1085.4</ele>
        <time>2021-08-10T08:58:20Z</time>
      </trkpt>
      <trkpt lat="44.48642" lon="3.73586">
        <ele>1085.4</ele>
        <time>2021-08-10T08:58:22Z</time>
      </trkpt>
      <trkpt lat="44.48642" lon="3.73586">
        <ele>1085.4</ele>
        <time>2021-08-10T08:58:24Z</time>
      </trkpt>
      <trkpt lat="44.48642" lon="3.73586">
        <ele>1085.4</ele>
        <time>2021-08-10T08:58:26Z</time>
      </trkpt>
      <trkpt lat="44.48642" lon="3.73586">
        <ele>1085.4</ele>
        <time>2021-08-10T08:58:28Z</time>
      </trkpt>
      <trkpt lat="44.48641" lon="3.73586">
        <ele>1085.4</ele>
        <time>2021-08-10T08:58:30Z</time>
      </trkpt>
      <trkpt lat="44.48653" lon="3.73588">
        <ele>1085.7</ele>
        <time>2021-08-10T08:58:52Z</time>
      </trkpt>
      <trkpt lat="44.48657" lon="3.73588">
        <ele>1085.7</ele>
        <time>2021-08-10T08:58:54Z</time>
      </trkpt>
      <trkpt lat="44.48659" lon="3.7359">
        <ele>1085.9</ele>
        <time>2021-08-10T08:58:56Z</time>
      </trkpt>
      <trkpt lat="44.48663" lon="3.73589">
        <ele>1085.8</ele>
        <time>2021-08-10T08:58:58Z</time>
      </trkpt>
      <trkpt lat="44.48666" lon="3.7359">
        <ele>1086</ele>
        <time>2021-08-10T08:59:00Z</time>
      </trkpt>
      <trkpt lat="44.48669" lon="3.73591">
        <ele>1085.8</ele>
        <time>2021-08-10T08:59:02Z</time>
      </trkpt>
      <trkpt lat="44.48672" lon="3.73593">
        <ele>1085.8</ele>
        <time>2021-08-10T08:59:04Z</time>
      </trkpt>
      <trkpt lat="44.48676" lon="3.73594">
        <ele>1085.6</ele>
        <time>2021-08-10T08:59:06Z</time>
      </trkpt>
      <trkpt lat="44.48679" lon="3.73597">
        <ele>1085.8</ele>
        <time>2021-08-10T08:59:08Z</time>
      </trkpt>
      <trkpt lat="44.48681" lon="3.736">
        <ele>1086</ele>
        <time>2021-08-10T08:59:10Z</time>
      </trkpt>
      <trkpt lat="44.48683" lon="3.73604">
        <ele>1086.4</ele>
        <time>2021-08-10T08:59:12Z</time>
      </trkpt>
      <trkpt lat="44.48685" lon="3.73607">
        <ele>1086.6</ele>
        <time>2021-08-10T08:59:14Z</time>
      </trkpt>
      <trkpt lat="44.48688" lon="3.7361">
        <ele>1086.7</ele>
        <time>2021-08-10T08:59:16Z</time>
      </trkpt>
      <trkpt lat="44.48691" lon="3.73613">
        <ele>1086.9</ele>
        <time>2021-08-10T08:59:18Z</time>
      </trkpt>
      <trkpt lat="44.48694" lon="3.73614">
        <ele>1086.8</ele>
        <time>2021-08-10T08:59:20Z</time>
      </trkpt>
      <trkpt lat="44.48697" lon="3.73616">
        <ele>1086.9</ele>
        <time>2021-08-10T08:59:22Z</time>
      </trkpt>
      <trkpt lat="44.48699" lon="3.73619">
        <ele>1087</ele>
        <time>2021-08-10T08:59:24Z</time>
      </trkpt>
      <trkpt lat="44.48701" lon="3.73621">
        <ele>1087.2</ele>
        <time>2021-08-10T08:59:26Z</time>
      </trkpt>
      <trkpt lat="44.48703" lon="3.73622">
        <ele>1087.1</ele>
        <time>2021-08-10T08:59:28Z</time>
      </trkpt>
      <trkpt lat="44.48706" lon="3.73624">
        <ele>1087.1</ele>
        <time>2021-08-10T08:59:30Z</time>
      </trkpt>
      <trkpt lat="44.48709" lon="3.73626">
        <ele>1087.1</ele>
        <time>2021-08-10T08:59:32Z</time>
      </trkpt>
      <trkpt lat="44.48712" lon="3.73628">
        <ele>1087.1</ele>
        <time>2021-08-10T08:59:34Z</time>
      </trkpt>
      <trkpt lat="44.48714" lon="3.73631">
        <ele>1087.2</ele>
        <time>2021-08-10T08:59:36Z</time>
      </trkpt>
      <trkpt lat="44.48717" lon="3.73634">
        <ele>1087.4</ele>
        <time>2021-08-10T08:59:38Z</time>
      </trkpt>
      <trkpt lat="44.48719" lon="3.73636">
        <ele>1087.5</ele>
        <time>2021-08-10T08:59:40Z</time>
      </trkpt>
      <trkpt lat="44.48721" lon="3.73638">
        <ele>1087.7</ele>
        <time>2021-08-10T08:59:42Z</time>
      </trkpt>
      <trkpt lat="44.48724" lon="3.7364">
        <ele>1087.7</ele>
        <time>2021-08-10T08:59:44Z</time>
      </trkpt>
      <trkpt lat="44.48726" lon="3.73642">
        <ele>1087.7</ele>
        <time>2021-08-10T08:59:46Z</time>
      </trkpt>
      <trkpt lat="44.48729" lon="3.73645">
        <ele>1088</ele>
        <time>2021-08-10T08:59:48Z</time>
      </trkpt>
      <trkpt lat="44.48731" lon="3.73647">
        <ele>1088.1</ele>
        <time>2021-08-10T08:59:50Z</time>
      </trkpt>
      <trkpt lat="44.48733" lon="3.7365">
        <ele>1088.2</ele>
        <time>2021-08-10T08:59:52Z</time>
      </trkpt>
      <trkpt lat="44.48735" lon="3.73651">
        <ele>1088.2</ele>
        <time>2021-08-10T08:59:54Z</time>
      </trkpt>
      <trkpt lat="44.48738" lon="3.73654">
        <ele>1088.3</ele>
        <time>2021-08-10T08:59:56Z</time>
      </trkpt>
      <trkpt lat="44.4874" lon="3.73657">
        <ele>1088.6</ele>
        <time>2021-08-10T08:59:58Z</time>
      </trkpt>
      <trkpt lat="44.48743" lon="3.73659">
        <ele>1088.6</ele>
        <time>2021-08-10T09:00:00Z</time>
      </trkpt>
      <trkpt lat="44.48747" lon="3.73662">
        <ele>1088.7</ele>
        <time>2021-08-10T09:00:02Z</time>
      </trkpt>
      <trkpt lat="44.48751" lon="3.73665">
        <ele>1088.4</ele>
        <time>2021-08-10T09:00:04Z</time>
      </trkpt>
      <trkpt lat="44.48754" lon="3.73668">
        <ele>1088.3</ele>
        <time>2021-08-10T09:00:06Z</time>
      </trkpt>
      <trkpt lat="44.48756" lon="3.73672">
        <ele>1088.5</ele>
        <time>2021-08-10T09:00:08Z</time>
      </trkpt>
      <trkpt lat="44.48758" lon="3.73674">
        <ele>1088.3</ele>
        <time>2021-08-10T09:00:10Z</time>
      </trkpt>
      <trkpt lat="44.48759" lon="3.73671">
        <ele>1087.7</ele>
        <time>2021-08-10T09:00:12Z</time>
      </trkpt>
      <trkpt lat="44.48756" lon="3.73668">
        <ele>1088</ele>
        <time>2021-08-10T09:00:14Z</time>
      </trkpt>
      <trkpt lat="44.48752" lon="3.73669">
        <ele>1088.8</ele>
        <time>2021-08-10T09:00:16Z</time>
      </trkpt>
      <trkpt lat="44.48749" lon="3.73666">
        <ele>1089.1</ele>
        <time>2021-08-10T09:00:18Z</time>
      </trkpt>
      <trkpt lat="44.48746" lon="3.73663">
        <ele>1088.8</ele>
        <time>2021-08-10T09:00:20Z</time>
      </trkpt>
      <trkpt lat="44.48743" lon="3.73659">
        <ele>1088.6</ele>
        <time>2021-08-10T09:00:22Z</time>
      </trkpt>
      <trkpt lat="44.48739" lon="3.73657">
        <ele>1088.6</ele>
        <time>2021-08-10T09:00:24Z</time>
      </trkpt>
      <trkpt lat="44.48736" lon="3.73654">
        <ele>1088.4</ele>
        <time>2021-08-10T09:00:26Z</time>
      </trkpt>
      <trkpt lat="44.48733" lon="3.73651">
        <ele>1088.4</ele>
        <time>2021-08-10T09:00:28Z</time>
      </trkpt>
      <trkpt lat="44.4873" lon="3.73649">
        <ele>1088.4</ele>
        <time>2021-08-10T09:00:30Z</time>
      </trkpt>
      <trkpt lat="44.48727" lon="3.73646">
        <ele>1088.3</ele>
        <time>2021-08-10T09:00:32Z</time>
      </trkpt>
      <trkpt lat="44.48724" lon="3.73643">
        <ele>1088.1</ele>
        <time>2021-08-10T09:00:34Z</time>
      </trkpt>
      <trkpt lat="44.48721" lon="3.7364">
        <ele>1087.9</ele>
        <time>2021-08-10T09:00:36Z</time>
      </trkpt>
      <trkpt lat="44.48717" lon="3.73637">
        <ele>1087.9</ele>
        <time>2021-08-10T09:00:38Z</time>
      </trkpt>
      <trkpt lat="44.48713" lon="3.73633">
        <ele>1087.7</ele>
        <time>2021-08-10T09:00:40Z</time>
      </trkpt>
      <trkpt lat="44.4871" lon="3.73629">
        <ele>1087.5</ele>
        <time>2021-08-10T09:00:42Z</time>
      </trkpt>
      <trkpt lat="44.48706" lon="3.73625">
        <ele>1087.2</ele>
        <time>2021-08-10T09:00:44Z</time>
      </trkpt>
      <trkpt lat="44.48703" lon="3.73622">
        <ele>1087.1</ele>
        <time>2021-08-10T09:00:46Z</time>
      </trkpt>
      <trkpt lat="44.48698" lon="3.73617">
        <ele>1086.8</ele>
        <time>2021-08-10T09:00:48Z</time>
      </trkpt>
      <trkpt lat="44.48693" lon="3.73613">
        <ele>1086.7</ele>
        <time>2021-08-10T09:00:50Z</time>
      </trkpt>
      <trkpt lat="44.48689" lon="3.73608">
        <ele>1086.4</ele>
        <time>2021-08-10T09:00:52Z</time>
      </trkpt>
      <trkpt lat="44.48684" lon="3.73602">
        <ele>1086</ele>
        <time>2021-08-10T09:00:54Z</time>
      </trkpt>
      <trkpt lat="44.48681" lon="3.73595">
        <ele>1085.4</ele>
        <time>2021-08-10T09:00:56Z</time>
      </trkpt>
      <trkpt lat="44.48675" lon="3.73592">
        <ele>1085.4</ele>
        <time>2021-08-10T09:00:58Z</time>
      </trkpt>
      <trkpt lat="44.4867" lon="3.73592">
        <ele>1085.9</ele>
        <time>2021-08-10T09:01:00Z</time>
      </trkpt>
      <trkpt lat="44.48666" lon="3.73591">
        <ele>1086.2</ele>
        <time>2021-08-10T09:01:02Z</time>
      </trkpt>
      <trkpt lat="44.48662" lon="3.73591">
        <ele>1086.1</ele>
        <time>2021-08-10T09:01:04Z</time>
      </trkpt>
      <trkpt lat="44.48661" lon="3.73591">
        <ele>1086.1</ele>
        <time>2021-08-10T09:01:06Z</time>
      </trkpt>
      <trkpt lat="44.48661" lon="3.73591">
        <ele>1086.1</ele>
        <time>2021-08-10T09:01:08Z</time>
      </trkpt>
      <trkpt lat="44.48661" lon="3.73591">
        <ele>1086.1</ele>
        <time>2021-08-10T09:01:10Z</time>
      </trkpt>
      <trkpt lat="44.48661" lon="3.73591">
        <ele>1086.1</ele>
        <time>2021-08-10T09:01:12Z</time>
      </trkpt>
      <trkpt lat="44.48661" lon="3.73591">
        <ele>1086.1</ele>
        <time>2021-08-10T09:01:14Z</time>
      </trkpt>
      <trkpt lat="44.48647" lon="3.73589">
        <ele>1085.9</ele>
        <time>2021-08-10T09:02:16Z</time>
      </trkpt>
      <trkpt lat="44.48642" lon="3.73589">
        <ele>1085.8</ele>
        <time>2021-08-10T09:02:18Z</time>
      </trkpt>
      <trkpt lat="44.48639" lon="3.73589">
        <ele>1085.8</ele>
        <time>2021-08-10T09:02:20Z</time>
      </trkpt>
      <trkpt lat="44.48637" lon="3.73589">
        <ele>1085.8</ele>
        <time>2021-08-10T09:02:22Z</time>
      </trkpt>
      <trkpt lat="44.48632" lon="3.73591">
        <ele>1086.1</ele>
        <time>2021-08-10T09:02:24Z</time>
      </trkpt>
      <trkpt lat="44.48626" lon="3.73594">
        <ele>1086.4</ele>
        <time>2021-08-10T09:02:26Z</time>
      </trkpt>
      <trkpt lat="44.48621" lon="3.73596">
        <ele>1086.7</ele>
        <time>2021-08-10T09:02:28Z</time>
      </trkpt>
      <trkpt lat="44.48617" lon="3.73597">
        <ele>1086.9</ele>
        <time>2021-08-10T09:02:30Z</time>
      </trkpt>
      <trkpt lat="44.48613" lon="3.73598">
        <ele>1087</ele>
        <time>2021-08-10T09:02:32Z</time>
      </trkpt>
      <trkpt lat="44.48609" lon="3.736">
        <ele>1087.3</ele>
        <time>2021-08-10T09:02:34Z</time>
      </trkpt>
      <trkpt lat="44.48604" lon="3.73602">
        <ele>1087.5</ele>
        <time>2021-08-10T09:02:36Z</time>
      </trkpt>
      <trkpt lat="44.486" lon="3.73602">
        <ele>1087.5</ele>
        <time>2021-08-10T09:02:38Z</time>
      </trkpt>
      <trkpt lat="44.48596" lon="3.73602">
        <ele>1087.5</ele>
        <time>2021-08-10T09:02:40Z</time>
      </trkpt>
      <trkpt lat="44.48592" lon="3.73603">
        <ele>1087.6</ele>
        <time>2021-08-10T09:02:42Z</time>
      </trkpt>
      <trkpt lat="44.48588" lon="3.73604">
        <ele>1087.7</ele>
        <time>2021-08-10T09:02:44Z</time>
      </trkpt>
      <trkpt lat="44.48585" lon="3.73604">
        <ele>1087.7</ele>
        <time>2021-08-10T09:02:46Z</time>
      </trkpt>
      <trkpt lat="44.48582" lon="3.73604">
        <ele>1087.8</ele>
        <time>2021-08-10T09:02:48Z</time>
      </trkpt>
      <trkpt lat="44.48579" lon="3.73601">
        <ele>1087.7</ele>
        <time>2021-08-10T09:02:50Z</time>
      </trkpt>
      <trkpt lat="44.48576" lon="3.73598">
        <ele>1087.7</ele>
        <time>2021-08-10T09:02:52Z</time>
      </trkpt>
      <trkpt lat="44.48572" lon="3.73594">
        <ele>1087.6</ele>
        <time>2021-08-10T09:02:54Z</time>
      </trkpt>
      <trkpt lat="44.4857" lon="3.73589">
        <ele>1087.2</ele>
        <time>2021-08-10T09:02:56Z</time>
      </trkpt>
      <trkpt lat="44.48567" lon="3.73583">
        <ele>1086.8</ele>
        <time>2021-08-10T09:02:58Z</time>
      </trkpt>
      <trkpt lat="44.48565" lon="3.73577">
        <ele>1086.3</ele>
        <time>2021-08-10T09:03:00Z</time>
      </trkpt>
      <trkpt lat="44.48564" lon="3.73571">
        <ele>1085.7</ele>
        <time>2021-08-10T09:03:02Z</time>
      </trkpt>
      <trkpt lat="44.48561" lon="3.73566">
        <ele>1085.4</ele>
        <time>2021-08-10T09:03:04Z</time>
      </trkpt>
      <trkpt lat="44.48557" lon="3.73563">
        <ele>1085.4</ele>
        <time>2021-08-10T09:03:06Z</time>
      </trkpt>
      <trkpt lat="44.48554" lon="3.73558">
        <ele>1085.1</ele>
        <time>2021-08-10T09:03:08Z</time>
      </trkpt>
      <trkpt lat="44.48552" lon="3.73555">
        <ele>1085</ele>
        <time>2021-08-10T09:03:10Z</time>
      </trkpt>
      <trkpt lat="44.4855" lon="3.73552">
        <ele>1084.8</ele>
        <time>2021-08-10T09:03:12Z</time>
      </trkpt>
      <trkpt lat="44.48547" lon="3.73549">
        <ele>1084.6</ele>
        <time>2021-08-10T09:03:14Z</time>
      </trkpt>
      <trkpt lat="44.48545" lon="3.73546">
        <ele>1084.4</ele>
        <time>2021-08-10T09:03:16Z</time>
      </trkpt>
      <trkpt lat="44.48543" lon="3.73544">
        <ele>1084.4</ele>
        <time>2021-08-10T09:03:18Z</time>
      </trkpt>
      <trkpt lat="44.48541" lon="3.73541">
        <ele>1084.3</ele>
        <time>2021-08-10T09:03:20Z</time>
      </trkpt>
      <trkpt lat="44.48538" lon="3.73539">
        <ele>1084.3</ele>
        <time>2021-08-10T09:03:22Z</time>
      </trkpt>
      <trkpt lat="44.48536" lon="3.73538">
        <ele>1084.3</ele>
        <time>2021-08-10T09:03:24Z</time>
      </trkpt>
      <trkpt lat="44.48534" lon="3.73535">
        <ele>1084.2</ele>
        <time>2021-08-10T09:03:26Z</time>
      </trkpt>
      <trkpt lat="44.48558" lon="3.73566">
        <ele>1085.6</ele>
        <time>2021-08-10T09:16:26Z</time>
      </trkpt>
      <trkpt lat="44.4856" lon="3.73567">
        <ele>1085.6</ele>
        <time>2021-08-10T09:16:28Z</time>
      </trkpt>
      <trkpt lat="44.48564" lon="3.73566">
        <ele>1085.1</ele>
        <time>2021-08-10T09:16:30Z</time>
      </trkpt>
      <trkpt lat="44.48566" lon="3.73556">
        <ele>1083.8</ele>
        <time>2021-08-10T09:16:32Z</time>
      </trkpt>
      <trkpt lat="44.48565" lon="3.73548">
        <ele>1082.9</ele>
        <time>2021-08-10T09:16:34Z</time>
      </trkpt>
      <trkpt lat="44.48565" lon="3.73542">
        <ele>1082.1</ele>
        <time>2021-08-10T09:16:36Z</time>
      </trkpt>
      <trkpt lat="44.48565" lon="3.73535">
        <ele>1081.3</ele>
        <time>2021-08-10T09:16:38Z</time>
      </trkpt>
      <trkpt lat="44.48566" lon="3.73528">
        <ele>1080.5</ele>
        <time>2021-08-10T09:16:40Z</time>
      </trkpt>
      <trkpt lat="44.48563" lon="3.7352">
        <ele>1079.8</ele>
        <time>2021-08-10T09:16:42Z</time>
      </trkpt>
      <trkpt lat="44.48558" lon="3.73515">
        <ele>1079.6</ele>
        <time>2021-08-10T09:16:44Z</time>
      </trkpt>
      <trkpt lat="44.48553" lon="3.73511">
        <ele>1079.6</ele>
        <time>2021-08-10T09:16:46Z</time>
      </trkpt>
      <trkpt lat="44.48547" lon="3.73508">
        <ele>1079.5</ele>
        <time>2021-08-10T09:16:48Z</time>
      </trkpt>
      <trkpt lat="44.48542" lon="3.73505">
        <ele>1079.6</ele>
        <time>2021-08-10T09:16:50Z</time>
      </trkpt>
      <trkpt lat="44.48537" lon="3.73505">
        <ele>1080</ele>
        <time>2021-08-10T09:16:52Z</time>
      </trkpt>
      <trkpt lat="44.48534" lon="3.73504">
        <ele>1080.1</ele>
        <time>2021-08-10T09:16:54Z</time>
      </trkpt>
      <trkpt lat="44.48533" lon="3.73504">
        <ele>1080.1</ele>
        <time>2021-08-10T09:16:56Z</time>
      </trkpt>
      <trkpt lat="44.48534" lon="3.73504">
        <ele>1080.1</ele>
        <time>2021-08-10T09:16:58Z</time>
      </trkpt>
      <trkpt lat="44.48534" lon="3.73504">
        <ele>1080.1</ele>
        <time>2021-08-10T09:17:00Z</time>
      </trkpt>
      <trkpt lat="44.48534" lon="3.73504">
        <ele>1080</ele>
        <time>2021-08-10T09:17:02Z</time>
      </trkpt>
      <trkpt lat="44.48535" lon="3.73504">
        <ele>1080</ele>
        <time>2021-08-10T09:17:04Z</time>
      </trkpt>
      <trkpt lat="44.48555" lon="3.73504">
        <ele>1078.6</ele>
        <time>2021-08-10T09:18:16Z</time>
      </trkpt>
      <trkpt lat="44.48559" lon="3.73504">
        <ele>1078.2</ele>
        <time>2021-08-10T09:18:18Z</time>
      </trkpt>
      <trkpt lat="44.48562" lon="3.73505">
        <ele>1078.1</ele>
        <time>2021-08-10T09:18:20Z</time>
      </trkpt>
      <trkpt lat="44.48568" lon="3.73504">
        <ele>1077.6</ele>
        <time>2021-08-10T09:18:22Z</time>
      </trkpt>
      <trkpt lat="44.48573" lon="3.73505">
        <ele>1077.3</ele>
        <time>2021-08-10T09:18:24Z</time>
      </trkpt>
      <trkpt lat="44.48577" lon="3.73506">
        <ele>1077.1</ele>
        <time>2021-08-10T09:18:26Z</time>
      </trkpt>
      <trkpt lat="44.48582" lon="3.73509">
        <ele>1077</ele>
        <time>2021-08-10T09:18:28Z</time>
      </trkpt>
      <trkpt lat="44.48585" lon="3.73511">
        <ele>1077</ele>
        <time>2021-08-10T09:18:30Z</time>
      </trkpt>
      <trkpt lat="44.48589" lon="3.73512">
        <ele>1077</ele>
        <time>2021-08-10T09:18:32Z</time>
      </trkpt>
      <trkpt lat="44.48592" lon="3.73513">
        <ele>1077</ele>
        <time>2021-08-10T09:18:34Z</time>
      </trkpt>
      <trkpt lat="44.48596" lon="3.73514">
        <ele>1076.9</ele>
        <time>2021-08-10T09:18:36Z</time>
      </trkpt>
      <trkpt lat="44.486" lon="3.73514">
        <ele>1076.6</ele>
        <time>2021-08-10T09:18:38Z</time>
      </trkpt>
      <trkpt lat="44.48605" lon="3.73512">
        <ele>1076.2</ele>
        <time>2021-08-10T09:18:40Z</time>
      </trkpt>
      <trkpt lat="44.48609" lon="3.73513">
        <ele>1076.1</ele>
        <time>2021-08-10T09:18:42Z</time>
      </trkpt>
      <trkpt lat="44.48614" lon="3.73512">
        <ele>1075.7</ele>
        <time>2021-08-10T09:18:44Z</time>
      </trkpt>
      <trkpt lat="44.48619" lon="3.7351">
        <ele>1075.1</ele>
        <time>2021-08-10T09:18:46Z</time>
      </trkpt>
      <trkpt lat="44.48622" lon="3.73506">
        <ele>1074.5</ele>
        <time>2021-08-10T09:18:48Z</time>
      </trkpt>
      <trkpt lat="44.48627" lon="3.73504">
        <ele>1073.9</ele>
        <time>2021-08-10T09:18:50Z</time>
      </trkpt>
      <trkpt lat="44.48631" lon="3.73502">
        <ele>1073.4</ele>
        <time>2021-08-10T09:18:52Z</time>
      </trkpt>
      <trkpt lat="44.48632" lon="3.73497">
        <ele>1072.9</ele>
        <time>2021-08-10T09:18:54Z</time>
      </trkpt>
      <trkpt lat="44.4863" lon="3.73491">
        <ele>1072.8</ele>
        <time>2021-08-10T09:18:56Z</time>
      </trkpt>
      <trkpt lat="44.48626" lon="3.73485">
        <ele>1072.7</ele>
        <time>2021-08-10T09:18:58Z</time>
      </trkpt>
      <trkpt lat="44.48624" lon="3.7348">
        <ele>1072.6</ele>
        <time>2021-08-10T09:19:00Z</time>
      </trkpt>
      <trkpt lat="44.48622" lon="3.73473">
        <ele>1072.3</ele>
        <time>2021-08-10T09:19:02Z</time>
      </trkpt>
      <trkpt lat="44.48618" lon="3.73466">
        <ele>1072.1</ele>
        <time>2021-08-10T09:19:04Z</time>
      </trkpt>
      <trkpt lat="44.48618" lon="3.7346">
        <ele>1071.9</ele>
        <time>2021-08-10T09:19:06Z</time>
      </trkpt>
      <trkpt lat="44.48618" lon="3.73456">
        <ele>1071.6</ele>
        <time>2021-08-10T09:19:08Z</time>
      </trkpt>
      <trkpt lat="44.48617" lon="3.73451">
        <ele>1071.4</ele>
        <time>2021-08-10T09:19:10Z</time>
      </trkpt>
      <trkpt lat="44.48616" lon="3.73446">
        <ele>1071.2</ele>
        <time>2021-08-10T09:19:12Z</time>
      </trkpt>
      <trkpt lat="44.48614" lon="3.73439">
        <ele>1070.9</ele>
        <time>2021-08-10T09:19:14Z</time>
      </trkpt>
      <trkpt lat="44.48611" lon="3.73435">
        <ele>1070.7</ele>
        <time>2021-08-10T09:19:16Z</time>
      </trkpt>
      <trkpt lat="44.48611" lon="3.73429">
        <ele>1070.4</ele>
        <time>2021-08-10T09:19:18Z</time>
      </trkpt>
      <trkpt lat="44.48611" lon="3.73423">
        <ele>1070</ele>
        <time>2021-08-10T09:19:20Z</time>
      </trkpt>
      <trkpt lat="44.48611" lon="3.73417">
        <ele>1069.7</ele>
        <time>2021-08-10T09:19:22Z</time>
      </trkpt>
      <trkpt lat="44.4861" lon="3.73411">
        <ele>1070.2</ele>
        <time>2021-08-10T09:19:24Z</time>
      </trkpt>
      <trkpt lat="44.4861" lon="3.73404">
        <ele>1070.8</ele>
        <time>2021-08-10T09:19:26Z</time>
      </trkpt>
      <trkpt lat="44.48608" lon="3.73399">
        <ele>1071.2</ele>
        <time>2021-08-10T09:19:28Z</time>
      </trkpt>
      <trkpt lat="44.48605" lon="3.73393">
        <ele>1071.7</ele>
        <time>2021-08-10T09:19:30Z</time>
      </trkpt>
      <trkpt lat="44.48602" lon="3.73388">
        <ele>1072</ele>
        <time>2021-08-10T09:19:32Z</time>
      </trkpt>
      <trkpt lat="44.48599" lon="3.73385">
        <ele>1072.2</ele>
        <time>2021-08-10T09:19:34Z</time>
      </trkpt>
      <trkpt lat="44.48596" lon="3.73381">
        <ele>1072.5</ele>
        <time>2021-08-10T09:19:36Z</time>
      </trkpt>
      <trkpt lat="44.48593" lon="3.73377">
        <ele>1072.7</ele>
        <time>2021-08-10T09:19:38Z</time>
      </trkpt>
      <trkpt lat="44.4859" lon="3.73372">
        <ele>1072.9</ele>
        <time>2021-08-10T09:19:40Z</time>
      </trkpt>
      <trkpt lat="44.48587" lon="3.7337">
        <ele>1072.9</ele>
        <time>2021-08-10T09:19:42Z</time>
      </trkpt>
      <trkpt lat="44.48583" lon="3.73366">
        <ele>1073</ele>
        <time>2021-08-10T09:19:44Z</time>
      </trkpt>
      <trkpt lat="44.4858" lon="3.73362">
        <ele>1073.3</ele>
        <time>2021-08-10T09:19:46Z</time>
      </trkpt>
      <trkpt lat="44.48577" lon="3.73358">
        <ele>1073.5</ele>
        <time>2021-08-10T09:19:48Z</time>
      </trkpt>
      <trkpt lat="44.48574" lon="3.73354">
        <ele>1073.8</ele>
        <time>2021-08-10T09:19:50Z</time>
      </trkpt>
      <trkpt lat="44.48571" lon="3.73349">
        <ele>1074</ele>
        <time>2021-08-10T09:19:52Z</time>
      </trkpt>
      <trkpt lat="44.48568" lon="3.73345">
        <ele>1074.2</ele>
        <time>2021-08-10T09:19:54Z</time>
      </trkpt>
      <trkpt lat="44.48565" lon="3.73341">
        <ele>1074.4</ele>
        <time>2021-08-10T09:19:56Z</time>
      </trkpt>
      <trkpt lat="44.48561" lon="3.73336">
        <ele>1074.6</ele>
        <time>2021-08-10T09:19:58Z</time>
      </trkpt>
      <trkpt lat="44.48558" lon="3.73332">
        <ele>1074.9</ele>
        <time>2021-08-10T09:20:00Z</time>
      </trkpt>
      <trkpt lat="44.48555" lon="3.73328">
        <ele>1075.3</ele>
        <time>2021-08-10T09:20:02Z</time>
      </trkpt>
      <trkpt lat="44.48552" lon="3.73323">
        <ele>1075.9</ele>
        <time>2021-08-10T09:20:04Z</time>
      </trkpt>
      <trkpt lat="44.48549" lon="3.7332">
        <ele>1076.2</ele>
        <time>2021-08-10T09:20:06Z</time>
      </trkpt>
      <trkpt lat="44.48545" lon="3.73317">
        <ele>1076.6</ele>
        <time>2021-08-10T09:20:08Z</time>
      </trkpt>
      <trkpt lat="44.48542" lon="3.73314">
        <ele>1076.8</ele>
        <time>2021-08-10T09:20:10Z</time>
      </trkpt>
      <trkpt lat="44.48538" lon="3.7331">
        <ele>1077.1</ele>
        <time>2021-08-10T09:20:12Z</time>
      </trkpt>
      <trkpt lat="44.48535" lon="3.73307">
        <ele>1077.4</ele>
        <time>2021-08-10T09:20:14Z</time>
      </trkpt>
      <trkpt lat="44.48532" lon="3.73304">
        <ele>1077.6</ele>
        <time>2021-08-10T09:20:16Z</time>
      </trkpt>
      <trkpt lat="44.48529" lon="3.733">
        <ele>1077.9</ele>
        <time>2021-08-10T09:20:18Z</time>
      </trkpt>
      <trkpt lat="44.48526" lon="3.73297">
        <ele>1078.2</ele>
        <time>2021-08-10T09:20:20Z</time>
      </trkpt>
      <trkpt lat="44.48523" lon="3.73293">
        <ele>1078.4</ele>
        <time>2021-08-10T09:20:22Z</time>
      </trkpt>
      <trkpt lat="44.4852" lon="3.7329">
        <ele>1078.6</ele>
        <time>2021-08-10T09:20:24Z</time>
      </trkpt>
      <trkpt lat="44.48517" lon="3.73287">
        <ele>1078.8</ele>
        <time>2021-08-10T09:20:26Z</time>
      </trkpt>
      <trkpt lat="44.48514" lon="3.73284">
        <ele>1078.9</ele>
        <time>2021-08-10T09:20:28Z</time>
      </trkpt>
      <trkpt lat="44.48511" lon="3.73281">
        <ele>1079</ele>
        <time>2021-08-10T09:20:30Z</time>
      </trkpt>
      <trkpt lat="44.48508" lon="3.73278">
        <ele>1079.1</ele>
        <time>2021-08-10T09:20:32Z</time>
      </trkpt>
      <trkpt lat="44.48505" lon="3.73275">
        <ele>1079.2</ele>
        <time>2021-08-10T09:20:34Z</time>
      </trkpt>
      <trkpt lat="44.48502" lon="3.73272">
        <ele>1079.3</ele>
        <time>2021-08-10T09:20:36Z</time>
      </trkpt>
      <trkpt lat="44.48499" lon="3.73269">
        <ele>1079.4</ele>
        <time>2021-08-10T09:20:38Z</time>
      </trkpt>
      <trkpt lat="44.48497" lon="3.73266">
        <ele>1079.6</ele>
        <time>2021-08-10T09:20:40Z</time>
      </trkpt>
      <trkpt lat="44.48494" lon="3.73264">
        <ele>1079.8</ele>
        <time>2021-08-10T09:20:42Z</time>
      </trkpt>
      <trkpt lat="44.48491" lon="3.73261">
        <ele>1080</ele>
        <time>2021-08-10T09:20:44Z</time>
      </trkpt>
      <trkpt lat="44.48487" lon="3.73258">
        <ele>1080.2</ele>
        <time>2021-08-10T09:20:46Z</time>
      </trkpt>
      <trkpt lat="44.48484" lon="3.73256">
        <ele>1080.3</ele>
        <time>2021-08-10T09:20:48Z</time>
      </trkpt>
      <trkpt lat="44.4848" lon="3.73254">
        <ele>1080.4</ele>
        <time>2021-08-10T09:20:50Z</time>
      </trkpt>
      <trkpt lat="44.48477" lon="3.73252">
        <ele>1080.6</ele>
        <time>2021-08-10T09:20:52Z</time>
      </trkpt>
      <trkpt lat="44.48473" lon="3.73249">
        <ele>1080.9</ele>
        <time>2021-08-10T09:20:54Z</time>
      </trkpt>
      <trkpt lat="44.48469" lon="3.73247">
        <ele>1081.2</ele>
        <time>2021-08-10T09:20:56Z</time>
      </trkpt>
      <trkpt lat="44.48465" lon="3.73245">
        <ele>1081.4</ele>
        <time>2021-08-10T09:20:58Z</time>
      </trkpt>
      <trkpt lat="44.48461" lon="3.73243">
        <ele>1081.6</ele>
        <time>2021-08-10T09:21:00Z</time>
      </trkpt>
      <trkpt lat="44.48456" lon="3.73242">
        <ele>1081.8</ele>
        <time>2021-08-10T09:21:02Z</time>
      </trkpt>
      <trkpt lat="44.48452" lon="3.73241">
        <ele>1082</ele>
        <time>2021-08-10T09:21:04Z</time>
      </trkpt>
      <trkpt lat="44.48448" lon="3.73238">
        <ele>1082.3</ele>
        <time>2021-08-10T09:21:06Z</time>
      </trkpt>
      <trkpt lat="44.48444" lon="3.73236">
        <ele>1082.6</ele>
        <time>2021-08-10T09:21:08Z</time>
      </trkpt>
      <trkpt lat="44.48439" lon="3.73234">
        <ele>1082.9</ele>
        <time>2021-08-10T09:21:10Z</time>
      </trkpt>
      <trkpt lat="44.48434" lon="3.73232">
        <ele>1083.1</ele>
        <time>2021-08-10T09:21:12Z</time>
      </trkpt>
      <trkpt lat="44.48429" lon="3.7323">
        <ele>1083.4</ele>
        <time>2021-08-10T09:21:14Z</time>
      </trkpt>
      <trkpt lat="44.48425" lon="3.73228">
        <ele>1083.8</ele>
        <time>2021-08-10T09:21:16Z</time>
      </trkpt>
      <trkpt lat="44.4842" lon="3.73226">
        <ele>1084.1</ele>
        <time>2021-08-10T09:21:18Z</time>
      </trkpt>
      <trkpt lat="44.48415" lon="3.73224">
        <ele>1084.4</ele>
        <time>2021-08-10T09:21:20Z</time>
      </trkpt>
      <trkpt lat="44.48409" lon="3.73222">
        <ele>1084.4</ele>
        <time>2021-08-10T09:21:22Z</time>
      </trkpt>
      <trkpt lat="44.48404" lon="3.7322">
        <ele>1084.7</ele>
        <time>2021-08-10T09:21:24Z</time>
      </trkpt>
      <trkpt lat="44.48399" lon="3.73217">
        <ele>1084.9</ele>
        <time>2021-08-10T09:21:26Z</time>
      </trkpt>
      <trkpt lat="44.48395" lon="3.73215">
        <ele>1085.1</ele>
        <time>2021-08-10T09:21:28Z</time>
      </trkpt>
      <trkpt lat="44.4839" lon="3.73213">
        <ele>1085.3</ele>
        <time>2021-08-10T09:21:30Z</time>
      </trkpt>
      <trkpt lat="44.48385" lon="3.73211">
        <ele>1085.4</ele>
        <time>2021-08-10T09:21:32Z</time>
      </trkpt>
      <trkpt lat="44.4838" lon="3.73209">
        <ele>1085.6</ele>
        <time>2021-08-10T09:21:34Z</time>
      </trkpt>
      <trkpt lat="44.48375" lon="3.73206">
        <ele>1085.9</ele>
        <time>2021-08-10T09:21:36Z</time>
      </trkpt>
      <trkpt lat="44.4837" lon="3.73204">
        <ele>1086.1</ele>
        <time>2021-08-10T09:21:38Z</time>
      </trkpt>
      <trkpt lat="44.48364" lon="3.73201">
        <ele>1086.3</ele>
        <time>2021-08-10T09:21:40Z</time>
      </trkpt>
      <trkpt lat="44.48358" lon="3.73198">
        <ele>1086.6</ele>
        <time>2021-08-10T09:21:42Z</time>
      </trkpt>
      <trkpt lat="44.48353" lon="3.73196">
        <ele>1086.8</ele>
        <time>2021-08-10T09:21:44Z</time>
      </trkpt>
      <trkpt lat="44.48347" lon="3.73193">
        <ele>1087</ele>
        <time>2021-08-10T09:21:46Z</time>
      </trkpt>
      <trkpt lat="44.48342" lon="3.73191">
        <ele>1087.2</ele>
        <time>2021-08-10T09:21:48Z</time>
      </trkpt>
      <trkpt lat="44.48336" lon="3.73188">
        <ele>1087.5</ele>
        <time>2021-08-10T09:21:50Z</time>
      </trkpt>
      <trkpt lat="44.48331" lon="3.73186">
        <ele>1087.5</ele>
        <time>2021-08-10T09:21:52Z</time>
      </trkpt>
      <trkpt lat="44.48325" lon="3.73183">
        <ele>1087.5</ele>
        <time>2021-08-10T09:21:54Z</time>
      </trkpt>
      <trkpt lat="44.4832" lon="3.73181">
        <ele>1087.5</ele>
        <time>2021-08-10T09:21:56Z</time>
      </trkpt>
      <trkpt lat="44.48315" lon="3.73177">
        <ele>1087.7</ele>
        <time>2021-08-10T09:21:58Z</time>
      </trkpt>
      <trkpt lat="44.48309" lon="3.73174">
        <ele>1087.7</ele>
        <time>2021-08-10T09:22:00Z</time>
      </trkpt>
      <trkpt lat="44.48304" lon="3.73171">
        <ele>1087.6</ele>
        <time>2021-08-10T09:22:02Z</time>
      </trkpt>
      <trkpt lat="44.48299" lon="3.73166">
        <ele>1087.8</ele>
        <time>2021-08-10T09:22:04Z</time>
      </trkpt>
      <trkpt lat="44.48294" lon="3.73162">
        <ele>1088.1</ele>
        <time>2021-08-10T09:22:06Z</time>
      </trkpt>
      <trkpt lat="44.48289" lon="3.73158">
        <ele>1088.4</ele>
        <time>2021-08-10T09:22:08Z</time>
      </trkpt>
      <trkpt lat="44.48283" lon="3.73155">
        <ele>1088.5</ele>
        <time>2021-08-10T09:22:10Z</time>
      </trkpt>
      <trkpt lat="44.48277" lon="3.73151">
        <ele>1088.7</ele>
        <time>2021-08-10T09:22:12Z</time>
      </trkpt>
      <trkpt lat="44.48272" lon="3.73147">
        <ele>1088.8</ele>
        <time>2021-08-10T09:22:14Z</time>
      </trkpt>
      <trkpt lat="44.48267" lon="3.73143">
        <ele>1089</ele>
        <time>2021-08-10T09:22:16Z</time>
      </trkpt>
      <trkpt lat="44.48262" lon="3.73139">
        <ele>1089.1</ele>
        <time>2021-08-10T09:22:18Z</time>
      </trkpt>
      <trkpt lat="44.48256" lon="3.73135">
        <ele>1089.2</ele>
        <time>2021-08-10T09:22:20Z</time>
      </trkpt>
      <trkpt lat="44.48252" lon="3.7313">
        <ele>1089.3</ele>
        <time>2021-08-10T09:22:22Z</time>
      </trkpt>
      <trkpt lat="44.48246" lon="3.73126">
        <ele>1089.5</ele>
        <time>2021-08-10T09:22:24Z</time>
      </trkpt>
      <trkpt lat="44.48241" lon="3.73122">
        <ele>1089.7</ele>
        <time>2021-08-10T09:22:26Z</time>
      </trkpt>
      <trkpt lat="44.48236" lon="3.73117">
        <ele>1090</ele>
        <time>2021-08-10T09:22:28Z</time>
      </trkpt>
      <trkpt lat="44.48231" lon="3.73112">
        <ele>1090.3</ele>
        <time>2021-08-10T09:22:30Z</time>
      </trkpt>
      <trkpt lat="44.48225" lon="3.73107">
        <ele>1090.6</ele>
        <time>2021-08-10T09:22:32Z</time>
      </trkpt>
      <trkpt lat="44.48221" lon="3.73099">
        <ele>1091.3</ele>
        <time>2021-08-10T09:22:34Z</time>
      </trkpt>
      <trkpt lat="44.48217" lon="3.73092">
        <ele>1091.9</ele>
        <time>2021-08-10T09:22:36Z</time>
      </trkpt>
      <trkpt lat="44.48213" lon="3.73084">
        <ele>1092.5</ele>
        <time>2021-08-10T09:22:38Z</time>
      </trkpt>
      <trkpt lat="44.4821" lon="3.73076">
        <ele>1093</ele>
        <time>2021-08-10T09:22:40Z</time>
      </trkpt>
      <trkpt lat="44.48207" lon="3.73068">
        <ele>1093.5</ele>
        <time>2021-08-10T09:22:42Z</time>
      </trkpt>
      <trkpt lat="44.48203" lon="3.7306">
        <ele>1093.9</ele>
        <time>2021-08-10T09:22:44Z</time>
      </trkpt>
      <trkpt lat="44.48199" lon="3.73053">
        <ele>1094.1</ele>
        <time>2021-08-10T09:22:46Z</time>
      </trkpt>
      <trkpt lat="44.48195" lon="3.73049">
        <ele>1094.2</ele>
        <time>2021-08-10T09:22:48Z</time>
      </trkpt>
      <trkpt lat="44.48191" lon="3.73045">
        <ele>1094.1</ele>
        <time>2021-08-10T09:22:50Z</time>
      </trkpt>
      <trkpt lat="44.48188" lon="3.73043">
        <ele>1093.9</ele>
        <time>2021-08-10T09:22:52Z</time>
      </trkpt>
      <trkpt lat="44.48185" lon="3.7304">
        <ele>1093.8</ele>
        <time>2021-08-10T09:22:54Z</time>
      </trkpt>
      <trkpt lat="44.48181" lon="3.73039">
        <ele>1093.5</ele>
        <time>2021-08-10T09:22:56Z</time>
      </trkpt>
      <trkpt lat="44.48176" lon="3.73036">
        <ele>1093.2</ele>
        <time>2021-08-10T09:22:58Z</time>
      </trkpt>
      <trkpt lat="44.48171" lon="3.73034">
        <ele>1092.9</ele>
        <time>2021-08-10T09:23:00Z</time>
      </trkpt>
      <trkpt lat="44.48165" lon="3.73032">
        <ele>1092.5</ele>
        <time>2021-08-10T09:23:02Z</time>
      </trkpt>
      <trkpt lat="44.4816" lon="3.7303">
        <ele>1092.5</ele>
        <time>2021-08-10T09:23:04Z</time>
      </trkpt>
      <trkpt lat="44.48155" lon="3.73029">
        <ele>1092.4</ele>
        <time>2021-08-10T09:23:06Z</time>
      </trkpt>
      <trkpt lat="44.4815" lon="3.73027">
        <ele>1092.3</ele>
        <time>2021-08-10T09:23:08Z</time>
      </trkpt>
      <trkpt lat="44.48144" lon="3.73025">
        <ele>1092.3</ele>
        <time>2021-08-10T09:23:10Z</time>
      </trkpt>
      <trkpt lat="44.48139" lon="3.73024">
        <ele>1092.2</ele>
        <time>2021-08-10T09:23:12Z</time>
      </trkpt>
      <trkpt lat="44.48133" lon="3.73023">
        <ele>1092.1</ele>
        <time>2021-08-10T09:23:14Z</time>
      </trkpt>
      <trkpt lat="44.48128" lon="3.73021">
        <ele>1092.1</ele>
        <time>2021-08-10T09:23:16Z</time>
      </trkpt>
      <trkpt lat="44.48122" lon="3.7302">
        <ele>1092</ele>
        <time>2021-08-10T09:23:18Z</time>
      </trkpt>
      <trkpt lat="44.48116" lon="3.73017">
        <ele>1092.1</ele>
        <time>2021-08-10T09:23:20Z</time>
      </trkpt>
      <trkpt lat="44.48111" lon="3.73015">
        <ele>1092.1</ele>
        <time>2021-08-10T09:23:22Z</time>
      </trkpt>
      <trkpt lat="44.48105" lon="3.73012">
        <ele>1092.2</ele>
        <time>2021-08-10T09:23:24Z</time>
      </trkpt>
      <trkpt lat="44.48099" lon="3.7301">
        <ele>1092.3</ele>
        <time>2021-08-10T09:23:26Z</time>
      </trkpt>
      <trkpt lat="44.48094" lon="3.73008">
        <ele>1092.3</ele>
        <time>2021-08-10T09:23:28Z</time>
      </trkpt>
      <trkpt lat="44.48088" lon="3.73005">
        <ele>1092.5</ele>
        <time>2021-08-10T09:23:30Z</time>
      </trkpt>
      <trkpt lat="44.48082" lon="3.73003">
        <ele>1092.6</ele>
        <time>2021-08-10T09:23:32Z</time>
      </trkpt>
      <trkpt lat="44.48076" lon="3.73">
        <ele>1092.8</ele>
        <time>2021-08-10T09:23:34Z</time>
      </trkpt>
      <trkpt lat="44.4807" lon="3.72998">
        <ele>1093.4</ele>
        <time>2021-08-10T09:23:36Z</time>
      </trkpt>
      <trkpt lat="44.48064" lon="3.72995">
        <ele>1093.9</ele>
        <time>2021-08-10T09:23:38Z</time>
      </trkpt>
      <trkpt lat="44.48058" lon="3.72993">
        <ele>1094.4</ele>
        <time>2021-08-10T09:23:40Z</time>
      </trkpt>
      <trkpt lat="44.48052" lon="3.7299">
        <ele>1095</ele>
        <time>2021-08-10T09:23:42Z</time>
      </trkpt>
      <trkpt lat="44.48046" lon="3.72988">
        <ele>1095.3</ele>
        <time>2021-08-10T09:23:44Z</time>
      </trkpt>
      <trkpt lat="44.4804" lon="3.72986">
        <ele>1095.8</ele>
        <time>2021-08-10T09:23:46Z</time>
      </trkpt>
      <trkpt lat="44.48034" lon="3.72984">
        <ele>1096.1</ele>
        <time>2021-08-10T09:23:48Z</time>
      </trkpt>
      <trkpt lat="44.48028" lon="3.72981">
        <ele>1096.5</ele>
        <time>2021-08-10T09:23:50Z</time>
      </trkpt>
      <trkpt lat="44.48022" lon="3.7298">
        <ele>1096.7</ele>
        <time>2021-08-10T09:23:52Z</time>
      </trkpt>
      <trkpt lat="44.48016" lon="3.72977">
        <ele>1097.1</ele>
        <time>2021-08-10T09:23:54Z</time>
      </trkpt>
      <trkpt lat="44.4801" lon="3.72975">
        <ele>1097.3</ele>
        <time>2021-08-10T09:23:56Z</time>
      </trkpt>
      <trkpt lat="44.48004" lon="3.72973">
        <ele>1097.6</ele>
        <time>2021-08-10T09:23:58Z</time>
      </trkpt>
      <trkpt lat="44.47998" lon="3.72971">
        <ele>1097.7</ele>
        <time>2021-08-10T09:24:00Z</time>
      </trkpt>
      <trkpt lat="44.47991" lon="3.72969">
        <ele>1097.8</ele>
        <time>2021-08-10T09:24:02Z</time>
      </trkpt>
      <trkpt lat="44.47985" lon="3.72967">
        <ele>1097.7</ele>
        <time>2021-08-10T09:24:04Z</time>
      </trkpt>
      <trkpt lat="44.47979" lon="3.72964">
        <ele>1097.7</ele>
        <time>2021-08-10T09:24:06Z</time>
      </trkpt>
      <trkpt lat="44.47972" lon="3.72962">
        <ele>1097.7</ele>
        <time>2021-08-10T09:24:08Z</time>
      </trkpt>
      <trkpt lat="44.47965" lon="3.72959">
        <ele>1097.7</ele>
        <time>2021-08-10T09:24:10Z</time>
      </trkpt>
      <trkpt lat="44.47959" lon="3.72956">
        <ele>1097.8</ele>
        <time>2021-08-10T09:24:12Z</time>
      </trkpt>
      <trkpt lat="44.47953" lon="3.72953">
        <ele>1097.9</ele>
        <time>2021-08-10T09:24:14Z</time>
      </trkpt>
      <trkpt lat="44.47947" lon="3.72949">
        <ele>1098</ele>
        <time>2021-08-10T09:24:16Z</time>
      </trkpt>
      <trkpt lat="44.47941" lon="3.72946">
        <ele>1098.2</ele>
        <time>2021-08-10T09:24:18Z</time>
      </trkpt>
      <trkpt lat="44.47935" lon="3.72942">
        <ele>1098.3</ele>
        <time>2021-08-10T09:24:20Z</time>
      </trkpt>
      <trkpt lat="44.47929" lon="3.72937">
        <ele>1098.6</ele>
        <time>2021-08-10T09:24:22Z</time>
      </trkpt>
      <trkpt lat="44.47923" lon="3.72933">
        <ele>1098.7</ele>
        <time>2021-08-10T09:24:24Z</time>
      </trkpt>
      <trkpt lat="44.47917" lon="3.72929">
        <ele>1098.8</ele>
        <time>2021-08-10T09:24:26Z</time>
      </trkpt>
      <trkpt lat="44.47911" lon="3.72925">
        <ele>1099</ele>
        <time>2021-08-10T09:24:28Z</time>
      </trkpt>
      <trkpt lat="44.47905" lon="3.72922">
        <ele>1099.1</ele>
        <time>2021-08-10T09:24:30Z</time>
      </trkpt>
      <trkpt lat="44.47899" lon="3.72917">
        <ele>1099.2</ele>
        <time>2021-08-10T09:24:32Z</time>
      </trkpt>
      <trkpt lat="44.47893" lon="3.72913">
        <ele>1099.6</ele>
        <time>2021-08-10T09:24:34Z</time>
      </trkpt>
      <trkpt lat="44.47887" lon="3.72909">
        <ele>1099.8</ele>
        <time>2021-08-10T09:24:36Z</time>
      </trkpt>
      <trkpt lat="44.4788" lon="3.72905">
        <ele>1100.2</ele>
        <time>2021-08-10T09:24:38Z</time>
      </trkpt>
      <trkpt lat="44.47874" lon="3.72901">
        <ele>1100.5</ele>
        <time>2021-08-10T09:24:40Z</time>
      </trkpt>
      <trkpt lat="44.47868" lon="3.72896">
        <ele>1100.8</ele>
        <time>2021-08-10T09:24:42Z</time>
      </trkpt>
      <trkpt lat="44.47862" lon="3.72892">
        <ele>1100.9</ele>
        <time>2021-08-10T09:24:44Z</time>
      </trkpt>
      <trkpt lat="44.47856" lon="3.72887">
        <ele>1101.2</ele>
        <time>2021-08-10T09:24:46Z</time>
      </trkpt>
      <trkpt lat="44.4785" lon="3.72883">
        <ele>1101.5</ele>
        <time>2021-08-10T09:24:48Z</time>
      </trkpt>
      <trkpt lat="44.47844" lon="3.72878">
        <ele>1101.8</ele>
        <time>2021-08-10T09:24:50Z</time>
      </trkpt>
      <trkpt lat="44.47839" lon="3.72872">
        <ele>1102.4</ele>
        <time>2021-08-10T09:24:52Z</time>
      </trkpt>
      <trkpt lat="44.47833" lon="3.72868">
        <ele>1102.4</ele>
        <time>2021-08-10T09:24:54Z</time>
      </trkpt>
      <trkpt lat="44.47827" lon="3.72862">
        <ele>1102.9</ele>
        <time>2021-08-10T09:24:56Z</time>
      </trkpt>
      <trkpt lat="44.47821" lon="3.72857">
        <ele>1103.2</ele>
        <time>2021-08-10T09:24:58Z</time>
      </trkpt>
      <trkpt lat="44.47815" lon="3.72853">
        <ele>1103.2</ele>
        <time>2021-08-10T09:25:00Z</time>
      </trkpt>
      <trkpt lat="44.47808" lon="3.72848">
        <ele>1103.2</ele>
        <time>2021-08-10T09:25:02Z</time>
      </trkpt>
      <trkpt lat="44.47801" lon="3.72844">
        <ele>1103.1</ele>
        <time>2021-08-10T09:25:04Z</time>
      </trkpt>
      <trkpt lat="44.47794" lon="3.7284">
        <ele>1102.9</ele>
        <time>2021-08-10T09:25:06Z</time>
      </trkpt>
      <trkpt lat="44.47787" lon="3.72835">
        <ele>1102.7</ele>
        <time>2021-08-10T09:25:08Z</time>
      </trkpt>
      <trkpt lat="44.47781" lon="3.7283">
        <ele>1102.6</ele>
        <time>2021-08-10T09:25:10Z</time>
      </trkpt>
      <trkpt lat="44.47774" lon="3.72826">
        <ele>1102.3</ele>
        <time>2021-08-10T09:25:12Z</time>
      </trkpt>
      <trkpt lat="44.47767" lon="3.72822">
        <ele>1101.9</ele>
        <time>2021-08-10T09:25:14Z</time>
      </trkpt>
      <trkpt lat="44.47761" lon="3.72818">
        <ele>1101.7</ele>
        <time>2021-08-10T09:25:16Z</time>
      </trkpt>
      <trkpt lat="44.47754" lon="3.72814">
        <ele>1101.2</ele>
        <time>2021-08-10T09:25:18Z</time>
      </trkpt>
      <trkpt lat="44.47747" lon="3.72808">
        <ele>1101.1</ele>
        <time>2021-08-10T09:25:20Z</time>
      </trkpt>
      <trkpt lat="44.47741" lon="3.72803">
        <ele>1101.2</ele>
        <time>2021-08-10T09:25:22Z</time>
      </trkpt>
      <trkpt lat="44.47733" lon="3.72798">
        <ele>1101.2</ele>
        <time>2021-08-10T09:25:24Z</time>
      </trkpt>
      <trkpt lat="44.47726" lon="3.72793">
        <ele>1101.2</ele>
        <time>2021-08-10T09:25:26Z</time>
      </trkpt>
      <trkpt lat="44.47718" lon="3.72788">
        <ele>1101.1</ele>
        <time>2021-08-10T09:25:28Z</time>
      </trkpt>
      <trkpt lat="44.4771" lon="3.72782">
        <ele>1100.9</ele>
        <time>2021-08-10T09:25:30Z</time>
      </trkpt>
      <trkpt lat="44.47703" lon="3.72777">
        <ele>1100.7</ele>
        <time>2021-08-10T09:25:32Z</time>
      </trkpt>
      <trkpt lat="44.47695" lon="3.72773">
        <ele>1100.3</ele>
        <time>2021-08-10T09:25:34Z</time>
      </trkpt>
      <trkpt lat="44.47687" lon="3.72768">
        <ele>1099.9</ele>
        <time>2021-08-10T09:25:36Z</time>
      </trkpt>
      <trkpt lat="44.4768" lon="3.72763">
        <ele>1099.5</ele>
        <time>2021-08-10T09:25:38Z</time>
      </trkpt>
      <trkpt lat="44.47672" lon="3.72759">
        <ele>1099</ele>
        <time>2021-08-10T09:25:40Z</time>
      </trkpt>
      <trkpt lat="44.47664" lon="3.72755">
        <ele>1098.5</ele>
        <time>2021-08-10T09:25:42Z</time>
      </trkpt>
      <trkpt lat="44.47656" lon="3.72752">
        <ele>1098.3</ele>
        <time>2021-08-10T09:25:44Z</time>
      </trkpt>
      <trkpt lat="44.47647" lon="3.7275">
        <ele>1098.1</ele>
        <time>2021-08-10T09:25:46Z</time>
      </trkpt>
      <trkpt lat="44.47639" lon="3.72748">
        <ele>1097.8</ele>
        <time>2021-08-10T09:25:48Z</time>
      </trkpt>
      <trkpt lat="44.47629" lon="3.72747">
        <ele>1097.4</ele>
        <time>2021-08-10T09:25:50Z</time>
      </trkpt>
      <trkpt lat="44.4762" lon="3.72748">
        <ele>1096.9</ele>
        <time>2021-08-10T09:25:52Z</time>
      </trkpt>
      <trkpt lat="44.47611" lon="3.72747">
        <ele>1096.5</ele>
        <time>2021-08-10T09:25:54Z</time>
      </trkpt>
      <trkpt lat="44.47601" lon="3.72749">
        <ele>1096</ele>
        <time>2021-08-10T09:25:56Z</time>
      </trkpt>
      <trkpt lat="44.47591" lon="3.7275">
        <ele>1095.4</ele>
        <time>2021-08-10T09:25:58Z</time>
      </trkpt>
      <trkpt lat="44.47581" lon="3.72753">
        <ele>1095</ele>
        <time>2021-08-10T09:26:00Z</time>
      </trkpt>
      <trkpt lat="44.47571" lon="3.72754">
        <ele>1095.2</ele>
        <time>2021-08-10T09:26:02Z</time>
      </trkpt>
      <trkpt lat="44.47562" lon="3.72756">
        <ele>1095.4</ele>
        <time>2021-08-10T09:26:04Z</time>
      </trkpt>
      <trkpt lat="44.47552" lon="3.72759">
        <ele>1095.6</ele>
        <time>2021-08-10T09:26:06Z</time>
      </trkpt>
      <trkpt lat="44.47542" lon="3.72761">
        <ele>1095.8</ele>
        <time>2021-08-10T09:26:08Z</time>
      </trkpt>
      <trkpt lat="44.47533" lon="3.72763">
        <ele>1096</ele>
        <time>2021-08-10T09:26:10Z</time>
      </trkpt>
      <trkpt lat="44.47523" lon="3.72765">
        <ele>1096.2</ele>
        <time>2021-08-10T09:26:12Z</time>
      </trkpt>
      <trkpt lat="44.47513" lon="3.72767">
        <ele>1096.4</ele>
        <time>2021-08-10T09:26:14Z</time>
      </trkpt>
      <trkpt lat="44.47504" lon="3.72769">
        <ele>1096.7</ele>
        <time>2021-08-10T09:26:16Z</time>
      </trkpt>
      <trkpt lat="44.47495" lon="3.72771">
        <ele>1097.1</ele>
        <time>2021-08-10T09:26:18Z</time>
      </trkpt>
      <trkpt lat="44.47485" lon="3.72773">
        <ele>1097.6</ele>
        <time>2021-08-10T09:26:20Z</time>
      </trkpt>
      <trkpt lat="44.47476" lon="3.72772">
        <ele>1098.2</ele>
        <time>2021-08-10T09:26:22Z</time>
      </trkpt>
      <trkpt lat="44.47468" lon="3.72769">
        <ele>1098.7</ele>
        <time>2021-08-10T09:26:24Z</time>
      </trkpt>
      <trkpt lat="44.4746" lon="3.72764">
        <ele>1099.1</ele>
        <time>2021-08-10T09:26:26Z</time>
      </trkpt>
      <trkpt lat="44.47451" lon="3.72761">
        <ele>1099.5</ele>
        <time>2021-08-10T09:26:28Z</time>
      </trkpt>
      <trkpt lat="44.47443" lon="3.72758">
        <ele>1099.9</ele>
        <time>2021-08-10T09:26:30Z</time>
      </trkpt>
      <trkpt lat="44.47436" lon="3.72753">
        <ele>1100.2</ele>
        <time>2021-08-10T09:26:32Z</time>
      </trkpt>
      <trkpt lat="44.47428" lon="3.72751">
        <ele>1100.5</ele>
        <time>2021-08-10T09:26:34Z</time>
      </trkpt>
      <trkpt lat="44.47422" lon="3.72747">
        <ele>1100.8</ele>
        <time>2021-08-10T09:26:36Z</time>
      </trkpt>
      <trkpt lat="44.47415" lon="3.72745">
        <ele>1101.2</ele>
        <time>2021-08-10T09:26:38Z</time>
      </trkpt>
      <trkpt lat="44.47408" lon="3.72742">
        <ele>1101.5</ele>
        <time>2021-08-10T09:26:40Z</time>
      </trkpt>
      <trkpt lat="44.47401" lon="3.72739">
        <ele>1101.8</ele>
        <time>2021-08-10T09:26:42Z</time>
      </trkpt>
      <trkpt lat="44.47394" lon="3.72736">
        <ele>1102.1</ele>
        <time>2021-08-10T09:26:44Z</time>
      </trkpt>
      <trkpt lat="44.47387" lon="3.72733">
        <ele>1102.3</ele>
        <time>2021-08-10T09:26:46Z</time>
      </trkpt>
      <trkpt lat="44.4738" lon="3.7273">
        <ele>1102.6</ele>
        <time>2021-08-10T09:26:48Z</time>
      </trkpt>
      <trkpt lat="44.47374" lon="3.72727">
        <ele>1102.8</ele>
        <time>2021-08-10T09:26:50Z</time>
      </trkpt>
      <trkpt lat="44.47367" lon="3.72725">
        <ele>1103</ele>
        <time>2021-08-10T09:26:52Z</time>
      </trkpt>
      <trkpt lat="44.47361" lon="3.72722">
        <ele>1103.2</ele>
        <time>2021-08-10T09:26:54Z</time>
      </trkpt>
      <trkpt lat="44.47354" lon="3.72718">
        <ele>1103.4</ele>
        <time>2021-08-10T09:26:56Z</time>
      </trkpt>
      <trkpt lat="44.47348" lon="3.72714">
        <ele>1103.6</ele>
        <time>2021-08-10T09:26:58Z</time>
      </trkpt>
      <trkpt lat="44.47342" lon="3.72709">
        <ele>1103.8</ele>
        <time>2021-08-10T09:27:00Z</time>
      </trkpt>
      <trkpt lat="44.47336" lon="3.72705">
        <ele>1103.9</ele>
        <time>2021-08-10T09:27:02Z</time>
      </trkpt>
      <trkpt lat="44.4733" lon="3.727">
        <ele>1104</ele>
        <time>2021-08-10T09:27:04Z</time>
      </trkpt>
      <trkpt lat="44.47325" lon="3.72696">
        <ele>1104.1</ele>
        <time>2021-08-10T09:27:06Z</time>
      </trkpt>
      <trkpt lat="44.47319" lon="3.72693">
        <ele>1104.1</ele>
        <time>2021-08-10T09:27:08Z</time>
      </trkpt>
      <trkpt lat="44.47313" lon="3.72689">
        <ele>1104.1</ele>
        <time>2021-08-10T09:27:10Z</time>
      </trkpt>
      <trkpt lat="44.47307" lon="3.72686">
        <ele>1104.1</ele>
        <time>2021-08-10T09:27:12Z</time>
      </trkpt>
      <trkpt lat="44.47301" lon="3.72684">
        <ele>1104.2</ele>
        <time>2021-08-10T09:27:14Z</time>
      </trkpt>
      <trkpt lat="44.47296" lon="3.72681">
        <ele>1104.2</ele>
        <time>2021-08-10T09:27:16Z</time>
      </trkpt>
      <trkpt lat="44.4729" lon="3.72679">
        <ele>1104.2</ele>
        <time>2021-08-10T09:27:18Z</time>
      </trkpt>
      <trkpt lat="44.47284" lon="3.72677">
        <ele>1104.1</ele>
        <time>2021-08-10T09:27:20Z</time>
      </trkpt>
      <trkpt lat="44.47279" lon="3.72675">
        <ele>1104.1</ele>
        <time>2021-08-10T09:27:22Z</time>
      </trkpt>
      <trkpt lat="44.47274" lon="3.72673">
        <ele>1104.1</ele>
        <time>2021-08-10T09:27:24Z</time>
      </trkpt>
      <trkpt lat="44.47269" lon="3.7267">
        <ele>1104.1</ele>
        <time>2021-08-10T09:27:26Z</time>
      </trkpt>
      <trkpt lat="44.47264" lon="3.72667">
        <ele>1104</ele>
        <time>2021-08-10T09:27:28Z</time>
      </trkpt>
      <trkpt lat="44.47259" lon="3.72666">
        <ele>1104</ele>
        <time>2021-08-10T09:27:30Z</time>
      </trkpt>
      <trkpt lat="44.47254" lon="3.72665">
        <ele>1104.1</ele>
        <time>2021-08-10T09:27:32Z</time>
      </trkpt>
      <trkpt lat="44.47249" lon="3.72666">
        <ele>1104</ele>
        <time>2021-08-10T09:27:34Z</time>
      </trkpt>
      <trkpt lat="44.47244" lon="3.72669">
        <ele>1104.1</ele>
        <time>2021-08-10T09:27:36Z</time>
      </trkpt>
      <trkpt lat="44.4724" lon="3.72673">
        <ele>1104.3</ele>
        <time>2021-08-10T09:27:38Z</time>
      </trkpt>
      <trkpt lat="44.47235" lon="3.72677">
        <ele>1104.6</ele>
        <time>2021-08-10T09:27:40Z</time>
      </trkpt>
      <trkpt lat="44.47231" lon="3.72681">
        <ele>1104.8</ele>
        <time>2021-08-10T09:27:42Z</time>
      </trkpt>
      <trkpt lat="44.47226" lon="3.72685">
        <ele>1105.1</ele>
        <time>2021-08-10T09:27:44Z</time>
      </trkpt>
      <trkpt lat="44.47222" lon="3.7269">
        <ele>1105.5</ele>
        <time>2021-08-10T09:27:46Z</time>
      </trkpt>
      <trkpt lat="44.47217" lon="3.72694">
        <ele>1105.8</ele>
        <time>2021-08-10T09:27:48Z</time>
      </trkpt>
      <trkpt lat="44.47213" lon="3.72698">
        <ele>1106.2</ele>
        <time>2021-08-10T09:27:50Z</time>
      </trkpt>
      <trkpt lat="44.47209" lon="3.72702">
        <ele>1106.6</ele>
        <time>2021-08-10T09:27:52Z</time>
      </trkpt>
      <trkpt lat="44.47205" lon="3.72706">
        <ele>1107</ele>
        <time>2021-08-10T09:27:54Z</time>
      </trkpt>
      <trkpt lat="44.47201" lon="3.72709">
        <ele>1107.4</ele>
        <time>2021-08-10T09:27:56Z</time>
      </trkpt>
      <trkpt lat="44.47197" lon="3.72713">
        <ele>1107.9</ele>
        <time>2021-08-10T09:27:58Z</time>
      </trkpt>
      <trkpt lat="44.47193" lon="3.72716">
        <ele>1108.4</ele>
        <time>2021-08-10T09:28:00Z</time>
      </trkpt>
      <trkpt lat="44.47188" lon="3.72719">
        <ele>1108.8</ele>
        <time>2021-08-10T09:28:02Z</time>
      </trkpt>
      <trkpt lat="44.47184" lon="3.72722">
        <ele>1109.3</ele>
        <time>2021-08-10T09:28:04Z</time>
      </trkpt>
      <trkpt lat="44.47179" lon="3.72725">
        <ele>1109.8</ele>
        <time>2021-08-10T09:28:06Z</time>
      </trkpt>
      <trkpt lat="44.47175" lon="3.72727">
        <ele>1110.2</ele>
        <time>2021-08-10T09:28:08Z</time>
      </trkpt>
      <trkpt lat="44.47171" lon="3.72729">
        <ele>1110.7</ele>
        <time>2021-08-10T09:28:10Z</time>
      </trkpt>
      <trkpt lat="44.47167" lon="3.7273">
        <ele>1111.1</ele>
        <time>2021-08-10T09:28:12Z</time>
      </trkpt>
      <trkpt lat="44.47162" lon="3.72731">
        <ele>1111.3</ele>
        <time>2021-08-10T09:28:14Z</time>
      </trkpt>
      <trkpt lat="44.47158" lon="3.72732">
        <ele>1111.6</ele>
        <time>2021-08-10T09:28:16Z</time>
      </trkpt>
      <trkpt lat="44.47153" lon="3.72733">
        <ele>1111.9</ele>
        <time>2021-08-10T09:28:18Z</time>
      </trkpt>
      <trkpt lat="44.47149" lon="3.72733">
        <ele>1112.1</ele>
        <time>2021-08-10T09:28:20Z</time>
      </trkpt>
      <trkpt lat="44.47144" lon="3.72733">
        <ele>1112.3</ele>
        <time>2021-08-10T09:28:22Z</time>
      </trkpt>
      <trkpt lat="44.47139" lon="3.72734">
        <ele>1112.5</ele>
        <time>2021-08-10T09:28:24Z</time>
      </trkpt>
      <trkpt lat="44.47135" lon="3.72733">
        <ele>1112.6</ele>
        <time>2021-08-10T09:28:26Z</time>
      </trkpt>
      <trkpt lat="44.47131" lon="3.72733">
        <ele>1112.8</ele>
        <time>2021-08-10T09:28:28Z</time>
      </trkpt>
      <trkpt lat="44.47126" lon="3.72734">
        <ele>1113</ele>
        <time>2021-08-10T09:28:30Z</time>
      </trkpt>
      <trkpt lat="44.47122" lon="3.72733">
        <ele>1113.1</ele>
        <time>2021-08-10T09:28:32Z</time>
      </trkpt>
      <trkpt lat="44.47117" lon="3.72734">
        <ele>1113.4</ele>
        <time>2021-08-10T09:28:34Z</time>
      </trkpt>
      <trkpt lat="44.47113" lon="3.72734">
        <ele>1113.5</ele>
        <time>2021-08-10T09:28:36Z</time>
      </trkpt>
      <trkpt lat="44.47108" lon="3.72735">
        <ele>1113.8</ele>
        <time>2021-08-10T09:28:38Z</time>
      </trkpt>
      <trkpt lat="44.47104" lon="3.72735">
        <ele>1114</ele>
        <time>2021-08-10T09:28:40Z</time>
      </trkpt>
      <trkpt lat="44.471" lon="3.72736">
        <ele>1114.2</ele>
        <time>2021-08-10T09:28:42Z</time>
      </trkpt>
      <trkpt lat="44.47096" lon="3.72736">
        <ele>1114.3</ele>
        <time>2021-08-10T09:28:44Z</time>
      </trkpt>
      <trkpt lat="44.47092" lon="3.72736">
        <ele>1114.5</ele>
        <time>2021-08-10T09:28:46Z</time>
      </trkpt>
      <trkpt lat="44.47087" lon="3.72737">
        <ele>1114.7</ele>
        <time>2021-08-10T09:28:48Z</time>
      </trkpt>
      <trkpt lat="44.47083" lon="3.72737">
        <ele>1114.9</ele>
        <time>2021-08-10T09:28:50Z</time>
      </trkpt>
      <trkpt lat="44.47079" lon="3.72737">
        <ele>1115.4</ele>
        <time>2021-08-10T09:28:52Z</time>
      </trkpt>
      <trkpt lat="44.47074" lon="3.72737">
        <ele>1116</ele>
        <time>2021-08-10T09:28:54Z</time>
      </trkpt>
      <trkpt lat="44.4707" lon="3.72737">
        <ele>1116.5</ele>
        <time>2021-08-10T09:28:56Z</time>
      </trkpt>
      <trkpt lat="44.47066" lon="3.72736">
        <ele>1116.9</ele>
        <time>2021-08-10T09:28:58Z</time>
      </trkpt>
      <trkpt lat="44.47061" lon="3.72735">
        <ele>1117.3</ele>
        <time>2021-08-10T09:29:00Z</time>
      </trkpt>
      <trkpt lat="44.47057" lon="3.72734">
        <ele>1117.6</ele>
        <time>2021-08-10T09:29:02Z</time>
      </trkpt>
      <trkpt lat="44.47053" lon="3.72733">
        <ele>1118</ele>
        <time>2021-08-10T09:29:04Z</time>
      </trkpt>
      <trkpt lat="44.47049" lon="3.72731">
        <ele>1118.4</ele>
        <time>2021-08-10T09:29:06Z</time>
      </trkpt>
      <trkpt lat="44.47044" lon="3.7273">
        <ele>1118.8</ele>
        <time>2021-08-10T09:29:08Z</time>
      </trkpt>
      <trkpt lat="44.4704" lon="3.72729">
        <ele>1119.2</ele>
        <time>2021-08-10T09:29:10Z</time>
      </trkpt>
      <trkpt lat="44.47035" lon="3.72727">
        <ele>1119.5</ele>
        <time>2021-08-10T09:29:12Z</time>
      </trkpt>
      <trkpt lat="44.47031" lon="3.72725">
        <ele>1119.7</ele>
        <time>2021-08-10T09:29:14Z</time>
      </trkpt>
      <trkpt lat="44.47027" lon="3.72724">
        <ele>1120.1</ele>
        <time>2021-08-10T09:29:16Z</time>
      </trkpt>
      <trkpt lat="44.47023" lon="3.72722">
        <ele>1120.4</ele>
        <time>2021-08-10T09:29:18Z</time>
      </trkpt>
      <trkpt lat="44.47019" lon="3.72721">
        <ele>1120.8</ele>
        <time>2021-08-10T09:29:20Z</time>
      </trkpt>
      <trkpt lat="44.47015" lon="3.72719">
        <ele>1121</ele>
        <time>2021-08-10T09:29:22Z</time>
      </trkpt>
      <trkpt lat="44.47011" lon="3.72718">
        <ele>1121.3</ele>
        <time>2021-08-10T09:29:24Z</time>
      </trkpt>
      <trkpt lat="44.47007" lon="3.72717">
        <ele>1121.7</ele>
        <time>2021-08-10T09:29:26Z</time>
      </trkpt>
      <trkpt lat="44.47002" lon="3.72715">
        <ele>1122</ele>
        <time>2021-08-10T09:29:28Z</time>
      </trkpt>
      <trkpt lat="44.46998" lon="3.72714">
        <ele>1122.3</ele>
        <time>2021-08-10T09:29:30Z</time>
      </trkpt>
      <trkpt lat="44.46994" lon="3.72713">
        <ele>1122.5</ele>
        <time>2021-08-10T09:29:32Z</time>
      </trkpt>
      <trkpt lat="44.46989" lon="3.72711">
        <ele>1122.7</ele>
        <time>2021-08-10T09:29:34Z</time>
      </trkpt>
      <trkpt lat="44.46985" lon="3.7271">
        <ele>1122.9</ele>
        <time>2021-08-10T09:29:36Z</time>
      </trkpt>
      <trkpt lat="44.46981" lon="3.72709">
        <ele>1123</ele>
        <time>2021-08-10T09:29:38Z</time>
      </trkpt>
      <trkpt lat="44.46977" lon="3.72708">
        <ele>1123.2</ele>
        <time>2021-08-10T09:29:40Z</time>
      </trkpt>
      <trkpt lat="44.46973" lon="3.72706">
        <ele>1123.3</ele>
        <time>2021-08-10T09:29:42Z</time>
      </trkpt>
      <trkpt lat="44.46969" lon="3.72705">
        <ele>1123.5</ele>
        <time>2021-08-10T09:29:44Z</time>
      </trkpt>
      <trkpt lat="44.46965" lon="3.72704">
        <ele>1123.7</ele>
        <time>2021-08-10T09:29:46Z</time>
      </trkpt>
      <trkpt lat="44.46961" lon="3.72703">
        <ele>1123.8</ele>
        <time>2021-08-10T09:29:48Z</time>
      </trkpt>
      <trkpt lat="44.46957" lon="3.72702">
        <ele>1123.9</ele>
        <time>2021-08-10T09:29:50Z</time>
      </trkpt>
      <trkpt lat="44.46953" lon="3.72701">
        <ele>1124</ele>
        <time>2021-08-10T09:29:52Z</time>
      </trkpt>
      <trkpt lat="44.46949" lon="3.727">
        <ele>1124.2</ele>
        <time>2021-08-10T09:29:54Z</time>
      </trkpt>
      <trkpt lat="44.46945" lon="3.72701">
        <ele>1124.5</ele>
        <time>2021-08-10T09:29:56Z</time>
      </trkpt>
      <trkpt lat="44.4694" lon="3.72701">
        <ele>1124.9</ele>
        <time>2021-08-10T09:29:58Z</time>
      </trkpt>
      <trkpt lat="44.46936" lon="3.72701">
        <ele>1125.1</ele>
        <time>2021-08-10T09:30:00Z</time>
      </trkpt>
      <trkpt lat="44.46932" lon="3.727">
        <ele>1125.4</ele>
        <time>2021-08-10T09:30:02Z</time>
      </trkpt>
      <trkpt lat="44.46928" lon="3.72701">
        <ele>1125.7</ele>
        <time>2021-08-10T09:30:04Z</time>
      </trkpt>
      <trkpt lat="44.46924" lon="3.72701">
        <ele>1126.1</ele>
        <time>2021-08-10T09:30:06Z</time>
      </trkpt>
      <trkpt lat="44.4692" lon="3.72702">
        <ele>1126.5</ele>
        <time>2021-08-10T09:30:08Z</time>
      </trkpt>
      <trkpt lat="44.46916" lon="3.72702">
        <ele>1126.8</ele>
        <time>2021-08-10T09:30:10Z</time>
      </trkpt>
      <trkpt lat="44.46912" lon="3.72702">
        <ele>1127.1</ele>
        <time>2021-08-10T09:30:12Z</time>
      </trkpt>
      <trkpt lat="44.46908" lon="3.72703">
        <ele>1127.5</ele>
        <time>2021-08-10T09:30:14Z</time>
      </trkpt>
      <trkpt lat="44.46904" lon="3.72703">
        <ele>1127.7</ele>
        <time>2021-08-10T09:30:16Z</time>
      </trkpt>
      <trkpt lat="44.469" lon="3.72703">
        <ele>1128</ele>
        <time>2021-08-10T09:30:18Z</time>
      </trkpt>
      <trkpt lat="44.46895" lon="3.72703">
        <ele>1128.3</ele>
        <time>2021-08-10T09:30:20Z</time>
      </trkpt>
      <trkpt lat="44.46892" lon="3.72703">
        <ele>1128.4</ele>
        <time>2021-08-10T09:30:22Z</time>
      </trkpt>
      <trkpt lat="44.46888" lon="3.72703">
        <ele>1128.7</ele>
        <time>2021-08-10T09:30:24Z</time>
      </trkpt>
      <trkpt lat="44.46885" lon="3.72703">
        <ele>1128.8</ele>
        <time>2021-08-10T09:30:26Z</time>
      </trkpt>
      <trkpt lat="44.46881" lon="3.72703">
        <ele>1129</ele>
        <time>2021-08-10T09:30:28Z</time>
      </trkpt>
      <trkpt lat="44.46878" lon="3.72703">
        <ele>1129.2</ele>
        <time>2021-08-10T09:30:30Z</time>
      </trkpt>
      <trkpt lat="44.46874" lon="3.72703">
        <ele>1129.4</ele>
        <time>2021-08-10T09:30:32Z</time>
      </trkpt>
      <trkpt lat="44.46871" lon="3.72703">
        <ele>1129.6</ele>
        <time>2021-08-10T09:30:34Z</time>
      </trkpt>
      <trkpt lat="44.46868" lon="3.72703">
        <ele>1129.9</ele>
        <time>2021-08-10T09:30:36Z</time>
      </trkpt>
      <trkpt lat="44.46864" lon="3.72703">
        <ele>1130.1</ele>
        <time>2021-08-10T09:30:38Z</time>
      </trkpt>
      <trkpt lat="44.46861" lon="3.72703">
        <ele>1130.3</ele>
        <time>2021-08-10T09:30:40Z</time>
      </trkpt>
      <trkpt lat="44.46858" lon="3.72704">
        <ele>1130.7</ele>
        <time>2021-08-10T09:30:42Z</time>
      </trkpt>
      <trkpt lat="44.46855" lon="3.72705">
        <ele>1130.9</ele>
        <time>2021-08-10T09:30:44Z</time>
      </trkpt>
      <trkpt lat="44.46851" lon="3.72705">
        <ele>1131.2</ele>
        <time>2021-08-10T09:30:46Z</time>
      </trkpt>
      <trkpt lat="44.46848" lon="3.72705">
        <ele>1131.4</ele>
        <time>2021-08-10T09:30:48Z</time>
      </trkpt>
      <trkpt lat="44.46845" lon="3.72705">
        <ele>1131.6</ele>
        <time>2021-08-10T09:30:50Z</time>
      </trkpt>
      <trkpt lat="44.46842" lon="3.72706">
        <ele>1132</ele>
        <time>2021-08-10T09:30:52Z</time>
      </trkpt>
      <trkpt lat="44.46838" lon="3.72706">
        <ele>1132.2</ele>
        <time>2021-08-10T09:30:54Z</time>
      </trkpt>
      <trkpt lat="44.46835" lon="3.72707">
        <ele>1132.5</ele>
        <time>2021-08-10T09:30:56Z</time>
      </trkpt>
      <trkpt lat="44.46832" lon="3.72707">
        <ele>1132.9</ele>
        <time>2021-08-10T09:30:58Z</time>
      </trkpt>
      <trkpt lat="44.46828" lon="3.72708">
        <ele>1133.3</ele>
        <time>2021-08-10T09:31:00Z</time>
      </trkpt>
      <trkpt lat="44.46825" lon="3.72708">
        <ele>1133.7</ele>
        <time>2021-08-10T09:31:02Z</time>
      </trkpt>
      <trkpt lat="44.46822" lon="3.72708">
        <ele>1133.9</ele>
        <time>2021-08-10T09:31:04Z</time>
      </trkpt>
      <trkpt lat="44.46818" lon="3.72708">
        <ele>1134.2</ele>
        <time>2021-08-10T09:31:06Z</time>
      </trkpt>
      <trkpt lat="44.46815" lon="3.72708">
        <ele>1134.5</ele>
        <time>2021-08-10T09:31:08Z</time>
      </trkpt>
      <trkpt lat="44.46812" lon="3.72709">
        <ele>1134.9</ele>
        <time>2021-08-10T09:31:10Z</time>
      </trkpt>
      <trkpt lat="44.46808" lon="3.72709">
        <ele>1135.2</ele>
        <time>2021-08-10T09:31:12Z</time>
      </trkpt>
      <trkpt lat="44.46805" lon="3.72709">
        <ele>1135.4</ele>
        <time>2021-08-10T09:31:14Z</time>
      </trkpt>
      <trkpt lat="44.46802" lon="3.72709">
        <ele>1135.7</ele>
        <time>2021-08-10T09:31:16Z</time>
      </trkpt>
      <trkpt lat="44.46798" lon="3.7271">
        <ele>1136</ele>
        <time>2021-08-10T09:31:18Z</time>
      </trkpt>
      <trkpt lat="44.46795" lon="3.7271">
        <ele>1136.4</ele>
        <time>2021-08-10T09:31:20Z</time>
      </trkpt>
      <trkpt lat="44.46791" lon="3.7271">
        <ele>1136.6</ele>
        <time>2021-08-10T09:31:22Z</time>
      </trkpt>
      <trkpt lat="44.46788" lon="3.7271">
        <ele>1137</ele>
        <time>2021-08-10T09:31:24Z</time>
      </trkpt>
      <trkpt lat="44.46785" lon="3.7271">
        <ele>1137.3</ele>
        <time>2021-08-10T09:31:26Z</time>
      </trkpt>
      <trkpt lat="44.46781" lon="3.7271">
        <ele>1137.6</ele>
        <time>2021-08-10T09:31:28Z</time>
      </trkpt>
      <trkpt lat="44.46778" lon="3.7271">
        <ele>1137.8</ele>
        <time>2021-08-10T09:31:30Z</time>
      </trkpt>
      <trkpt lat="44.46774" lon="3.7271">
        <ele>1138</ele>
        <time>2021-08-10T09:31:32Z</time>
      </trkpt>
      <trkpt lat="44.46771" lon="3.72709">
        <ele>1138.2</ele>
        <time>2021-08-10T09:31:34Z</time>
      </trkpt>
      <trkpt lat="44.46767" lon="3.72709">
        <ele>1138.2</ele>
        <time>2021-08-10T09:31:36Z</time>
      </trkpt>
      <trkpt lat="44.46764" lon="3.72708">
        <ele>1138.4</ele>
        <time>2021-08-10T09:31:38Z</time>
      </trkpt>
      <trkpt lat="44.4676" lon="3.72708">
        <ele>1138.6</ele>
        <time>2021-08-10T09:31:40Z</time>
      </trkpt>
      <trkpt lat="44.46757" lon="3.72707">
        <ele>1138.7</ele>
        <time>2021-08-10T09:31:42Z</time>
      </trkpt>
      <trkpt lat="44.46753" lon="3.72706">
        <ele>1138.8</ele>
        <time>2021-08-10T09:31:44Z</time>
      </trkpt>
      <trkpt lat="44.46749" lon="3.72706">
        <ele>1139.1</ele>
        <time>2021-08-10T09:31:46Z</time>
      </trkpt>
      <trkpt lat="44.46744" lon="3.72705">
        <ele>1139.6</ele>
        <time>2021-08-10T09:31:48Z</time>
      </trkpt>
      <trkpt lat="44.4674" lon="3.72705">
        <ele>1140.1</ele>
        <time>2021-08-10T09:31:50Z</time>
      </trkpt>
      <trkpt lat="44.46737" lon="3.72704">
        <ele>1140.4</ele>
        <time>2021-08-10T09:31:52Z</time>
      </trkpt>
      <trkpt lat="44.46733" lon="3.72704">
        <ele>1141.1</ele>
        <time>2021-08-10T09:31:54Z</time>
      </trkpt>
      <trkpt lat="44.46729" lon="3.72704">
        <ele>1141.6</ele>
        <time>2021-08-10T09:31:56Z</time>
      </trkpt>
      <trkpt lat="44.46725" lon="3.72704">
        <ele>1142.3</ele>
        <time>2021-08-10T09:31:58Z</time>
      </trkpt>
      <trkpt lat="44.46721" lon="3.72705">
        <ele>1143</ele>
        <time>2021-08-10T09:32:00Z</time>
      </trkpt>
      <trkpt lat="44.46718" lon="3.72707">
        <ele>1144.1</ele>
        <time>2021-08-10T09:32:02Z</time>
      </trkpt>
      <trkpt lat="44.46715" lon="3.72708">
        <ele>1145</ele>
        <time>2021-08-10T09:32:04Z</time>
      </trkpt>
      <trkpt lat="44.46711" lon="3.72709">
        <ele>1145.8</ele>
        <time>2021-08-10T09:32:06Z</time>
      </trkpt>
      <trkpt lat="44.46708" lon="3.72711">
        <ele>1147</ele>
        <time>2021-08-10T09:32:08Z</time>
      </trkpt>
      <trkpt lat="44.46705" lon="3.72713">
        <ele>1148</ele>
        <time>2021-08-10T09:32:10Z</time>
      </trkpt>
      <trkpt lat="44.46701" lon="3.72715">
        <ele>1149.1</ele>
        <time>2021-08-10T09:32:12Z</time>
      </trkpt>
      <trkpt lat="44.46698" lon="3.72717">
        <ele>1150</ele>
        <time>2021-08-10T09:32:14Z</time>
      </trkpt>
      <trkpt lat="44.46694" lon="3.72717">
        <ele>1150.7</ele>
        <time>2021-08-10T09:32:16Z</time>
      </trkpt>
      <trkpt lat="44.4669" lon="3.72716">
        <ele>1151.2</ele>
        <time>2021-08-10T09:32:18Z</time>
      </trkpt>
      <trkpt lat="44.46686" lon="3.72716">
        <ele>1151.6</ele>
        <time>2021-08-10T09:32:20Z</time>
      </trkpt>
      <trkpt lat="44.46683" lon="3.72714">
        <ele>1151.8</ele>
        <time>2021-08-10T09:32:22Z</time>
      </trkpt>
      <trkpt lat="44.4668" lon="3.72712">
        <ele>1151.7</ele>
        <time>2021-08-10T09:32:24Z</time>
      </trkpt>
      <trkpt lat="44.46677" lon="3.7271">
        <ele>1151.5</ele>
        <time>2021-08-10T09:32:26Z</time>
      </trkpt>
      <trkpt lat="44.46674" lon="3.72708">
        <ele>1151.3</ele>
        <time>2021-08-10T09:32:28Z</time>
      </trkpt>
      <trkpt lat="44.46671" lon="3.72706">
        <ele>1151.3</ele>
        <time>2021-08-10T09:32:30Z</time>
      </trkpt>
      <trkpt lat="44.46668" lon="3.72705">
        <ele>1151.3</ele>
        <time>2021-08-10T09:32:32Z</time>
      </trkpt>
      <trkpt lat="44.46664" lon="3.72703">
        <ele>1151.2</ele>
        <time>2021-08-10T09:32:34Z</time>
      </trkpt>
      <trkpt lat="44.46661" lon="3.72701">
        <ele>1151.3</ele>
        <time>2021-08-10T09:32:36Z</time>
      </trkpt>
      <trkpt lat="44.46657" lon="3.72699">
        <ele>1151.4</ele>
        <time>2021-08-10T09:32:38Z</time>
      </trkpt>
      <trkpt lat="44.46654" lon="3.72698">
        <ele>1151.8</ele>
        <time>2021-08-10T09:32:40Z</time>
      </trkpt>
      <trkpt lat="44.4665" lon="3.72695">
        <ele>1151.6</ele>
        <time>2021-08-10T09:32:42Z</time>
      </trkpt>
      <trkpt lat="44.46646" lon="3.72693">
        <ele>1151.7</ele>
        <time>2021-08-10T09:32:44Z</time>
      </trkpt>
      <trkpt lat="44.46642" lon="3.72691">
        <ele>1151.8</ele>
        <time>2021-08-10T09:32:46Z</time>
      </trkpt>
      <trkpt lat="44.46638" lon="3.72689">
        <ele>1152</ele>
        <time>2021-08-10T09:32:48Z</time>
      </trkpt>
      <trkpt lat="44.46634" lon="3.72687">
        <ele>1152.2</ele>
        <time>2021-08-10T09:32:50Z</time>
      </trkpt>
      <trkpt lat="44.46631" lon="3.72685">
        <ele>1152.2</ele>
        <time>2021-08-10T09:32:52Z</time>
      </trkpt>
      <trkpt lat="44.46627" lon="3.72682">
        <ele>1152.2</ele>
        <time>2021-08-10T09:32:54Z</time>
      </trkpt>
      <trkpt lat="44.46623" lon="3.7268">
        <ele>1152.3</ele>
        <time>2021-08-10T09:32:56Z</time>
      </trkpt>
      <trkpt lat="44.46619" lon="3.72677">
        <ele>1152.1</ele>
        <time>2021-08-10T09:32:58Z</time>
      </trkpt>
      <trkpt lat="44.46615" lon="3.72675">
        <ele>1152.3</ele>
        <time>2021-08-10T09:33:00Z</time>
      </trkpt>
      <trkpt lat="44.46612" lon="3.72672">
        <ele>1152.1</ele>
        <time>2021-08-10T09:33:02Z</time>
      </trkpt>
      <trkpt lat="44.46609" lon="3.7267">
        <ele>1152</ele>
        <time>2021-08-10T09:33:04Z</time>
      </trkpt>
      <trkpt lat="44.46605" lon="3.72668">
        <ele>1152.3</ele>
        <time>2021-08-10T09:33:06Z</time>
      </trkpt>
      <trkpt lat="44.46601" lon="3.72667">
        <ele>1152.5</ele>
        <time>2021-08-10T09:33:08Z</time>
      </trkpt>
      <trkpt lat="44.46597" lon="3.72665">
        <ele>1152.9</ele>
        <time>2021-08-10T09:33:10Z</time>
      </trkpt>
      <trkpt lat="44.46594" lon="3.72662">
        <ele>1153.1</ele>
        <time>2021-08-10T09:33:12Z</time>
      </trkpt>
      <trkpt lat="44.4659" lon="3.72659">
        <ele>1153.3</ele>
        <time>2021-08-10T09:33:14Z</time>
      </trkpt>
      <trkpt lat="44.46587" lon="3.72657">
        <ele>1153.4</ele>
        <time>2021-08-10T09:33:16Z</time>
      </trkpt>
      <trkpt lat="44.46583" lon="3.72654">
        <ele>1153.5</ele>
        <time>2021-08-10T09:33:18Z</time>
      </trkpt>
      <trkpt lat="44.4658" lon="3.72654">
        <ele>1154.1</ele>
        <time>2021-08-10T09:33:20Z</time>
      </trkpt>
      <trkpt lat="44.46576" lon="3.72651">
        <ele>1154.6</ele>
        <time>2021-08-10T09:33:22Z</time>
      </trkpt>
      <trkpt lat="44.46573" lon="3.7265">
        <ele>1155.2</ele>
        <time>2021-08-10T09:33:24Z</time>
      </trkpt>
      <trkpt lat="44.46569" lon="3.7265">
        <ele>1156</ele>
        <time>2021-08-10T09:33:26Z</time>
      </trkpt>
      <trkpt lat="44.46566" lon="3.7265">
        <ele>1156.8</ele>
        <time>2021-08-10T09:33:28Z</time>
      </trkpt>
      <trkpt lat="44.46562" lon="3.72651">
        <ele>1157.8</ele>
        <time>2021-08-10T09:33:30Z</time>
      </trkpt>
      <trkpt lat="44.46558" lon="3.72652">
        <ele>1159</ele>
        <time>2021-08-10T09:33:32Z</time>
      </trkpt>
      <trkpt lat="44.46554" lon="3.72654">
        <ele>1160.2</ele>
        <time>2021-08-10T09:33:34Z</time>
      </trkpt>
      <trkpt lat="44.4655" lon="3.72655">
        <ele>1161.4</ele>
        <time>2021-08-10T09:33:36Z</time>
      </trkpt>
      <trkpt lat="44.46546" lon="3.72656">
        <ele>1162.4</ele>
        <time>2021-08-10T09:33:38Z</time>
      </trkpt>
      <trkpt lat="44.46543" lon="3.72654">
        <ele>1163</ele>
        <time>2021-08-10T09:33:40Z</time>
      </trkpt>
      <trkpt lat="44.46539" lon="3.72653">
        <ele>1163.6</ele>
        <time>2021-08-10T09:33:42Z</time>
      </trkpt>
      <trkpt lat="44.46536" lon="3.7265">
        <ele>1163.7</ele>
        <time>2021-08-10T09:33:44Z</time>
      </trkpt>
      <trkpt lat="44.46534" lon="3.72647">
        <ele>1163.6</ele>
        <time>2021-08-10T09:33:46Z</time>
      </trkpt>
      <trkpt lat="44.46532" lon="3.72643">
        <ele>1163.5</ele>
        <time>2021-08-10T09:33:48Z</time>
      </trkpt>
      <trkpt lat="44.46529" lon="3.72639">
        <ele>1163.4</ele>
        <time>2021-08-10T09:33:50Z</time>
      </trkpt>
      <trkpt lat="44.46528" lon="3.72635">
        <ele>1163</ele>
        <time>2021-08-10T09:33:52Z</time>
      </trkpt>
      <trkpt lat="44.46526" lon="3.72631">
        <ele>1162.6</ele>
        <time>2021-08-10T09:33:54Z</time>
      </trkpt>
      <trkpt lat="44.46525" lon="3.72627">
        <ele>1162.3</ele>
        <time>2021-08-10T09:33:56Z</time>
      </trkpt>
      <trkpt lat="44.46522" lon="3.72623">
        <ele>1162.2</ele>
        <time>2021-08-10T09:33:58Z</time>
      </trkpt>
      <trkpt lat="44.46522" lon="3.72618">
        <ele>1161.5</ele>
        <time>2021-08-10T09:34:00Z</time>
      </trkpt>
      <trkpt lat="44.4652" lon="3.72613">
        <ele>1161</ele>
        <time>2021-08-10T09:34:02Z</time>
      </trkpt>
      <trkpt lat="44.46518" lon="3.72607">
        <ele>1160.5</ele>
        <time>2021-08-10T09:34:04Z</time>
      </trkpt>
      <trkpt lat="44.46516" lon="3.72602">
        <ele>1160</ele>
        <time>2021-08-10T09:34:06Z</time>
      </trkpt>
      <trkpt lat="44.46515" lon="3.72597">
        <ele>1159.3</ele>
        <time>2021-08-10T09:34:08Z</time>
      </trkpt>
      <trkpt lat="44.46513" lon="3.72592">
        <ele>1159.1</ele>
        <time>2021-08-10T09:34:10Z</time>
      </trkpt>
      <trkpt lat="44.46511" lon="3.72587">
        <ele>1158.7</ele>
        <time>2021-08-10T09:34:12Z</time>
      </trkpt>
      <trkpt lat="44.46509" lon="3.72582">
        <ele>1158.4</ele>
        <time>2021-08-10T09:34:14Z</time>
      </trkpt>
      <trkpt lat="44.46507" lon="3.72579">
        <ele>1158.5</ele>
        <time>2021-08-10T09:34:16Z</time>
      </trkpt>
      <trkpt lat="44.46503" lon="3.72576">
        <ele>1158.7</ele>
        <time>2021-08-10T09:34:18Z</time>
      </trkpt>
      <trkpt lat="44.465" lon="3.72573">
        <ele>1159</ele>
        <time>2021-08-10T09:34:20Z</time>
      </trkpt>
      <trkpt lat="44.46497" lon="3.7257">
        <ele>1158.7</ele>
        <time>2021-08-10T09:34:22Z</time>
      </trkpt>
      <trkpt lat="44.46494" lon="3.72568">
        <ele>1158.8</ele>
        <time>2021-08-10T09:34:24Z</time>
      </trkpt>
      <trkpt lat="44.4649" lon="3.72568">
        <ele>1159.1</ele>
        <time>2021-08-10T09:34:26Z</time>
      </trkpt>
      <trkpt lat="44.46486" lon="3.72567">
        <ele>1159.4</ele>
        <time>2021-08-10T09:34:28Z</time>
      </trkpt>
      <trkpt lat="44.46483" lon="3.72568">
        <ele>1159.9</ele>
        <time>2021-08-10T09:34:30Z</time>
      </trkpt>
      <trkpt lat="44.46479" lon="3.72568">
        <ele>1160.3</ele>
        <time>2021-08-10T09:34:32Z</time>
      </trkpt>
      <trkpt lat="44.46476" lon="3.72569">
        <ele>1161</ele>
        <time>2021-08-10T09:34:34Z</time>
      </trkpt>
      <trkpt lat="44.46473" lon="3.7257">
        <ele>1161.5</ele>
        <time>2021-08-10T09:34:36Z</time>
      </trkpt>
      <trkpt lat="44.4647" lon="3.72572">
        <ele>1162.2</ele>
        <time>2021-08-10T09:34:38Z</time>
      </trkpt>
      <trkpt lat="44.46466" lon="3.72573">
        <ele>1162.8</ele>
        <time>2021-08-10T09:34:40Z</time>
      </trkpt>
      <trkpt lat="44.46463" lon="3.72574">
        <ele>1163.4</ele>
        <time>2021-08-10T09:34:42Z</time>
      </trkpt>
      <trkpt lat="44.46459" lon="3.72576">
        <ele>1164.2</ele>
        <time>2021-08-10T09:34:44Z</time>
      </trkpt>
      <trkpt lat="44.46456" lon="3.72577">
        <ele>1164.8</ele>
        <time>2021-08-10T09:34:46Z</time>
      </trkpt>
      <trkpt lat="44.46452" lon="3.72578">
        <ele>1165.5</ele>
        <time>2021-08-10T09:34:48Z</time>
      </trkpt>
      <trkpt lat="44.46449" lon="3.72579">
        <ele>1166.2</ele>
        <time>2021-08-10T09:34:50Z</time>
      </trkpt>
      <trkpt lat="44.46446" lon="3.72581">
        <ele>1167</ele>
        <time>2021-08-10T09:34:52Z</time>
      </trkpt>
      <trkpt lat="44.46442" lon="3.72583">
        <ele>1167.9</ele>
        <time>2021-08-10T09:34:54Z</time>
      </trkpt>
      <trkpt lat="44.46439" lon="3.72585">
        <ele>1168.7</ele>
        <time>2021-08-10T09:34:56Z</time>
      </trkpt>
      <trkpt lat="44.46435" lon="3.72586">
        <ele>1169.4</ele>
        <time>2021-08-10T09:34:58Z</time>
      </trkpt>
      <trkpt lat="44.46431" lon="3.72587">
        <ele>1170.4</ele>
        <time>2021-08-10T09:35:00Z</time>
      </trkpt>
      <trkpt lat="44.46427" lon="3.72588">
        <ele>1171.2</ele>
        <time>2021-08-10T09:35:02Z</time>
      </trkpt>
      <trkpt lat="44.46424" lon="3.7259">
        <ele>1172.1</ele>
        <time>2021-08-10T09:35:04Z</time>
      </trkpt>
      <trkpt lat="44.4642" lon="3.72591">
        <ele>1172.8</ele>
        <time>2021-08-10T09:35:06Z</time>
      </trkpt>
      <trkpt lat="44.46416" lon="3.72591">
        <ele>1173.5</ele>
        <time>2021-08-10T09:35:08Z</time>
      </trkpt>
      <trkpt lat="44.46412" lon="3.72592">
        <ele>1174.1</ele>
        <time>2021-08-10T09:35:10Z</time>
      </trkpt>
      <trkpt lat="44.46408" lon="3.72592">
        <ele>1174.8</ele>
        <time>2021-08-10T09:35:12Z</time>
      </trkpt>
      <trkpt lat="44.46404" lon="3.72592">
        <ele>1175.2</ele>
        <time>2021-08-10T09:35:14Z</time>
      </trkpt>
      <trkpt lat="44.464" lon="3.72593">
        <ele>1176</ele>
        <time>2021-08-10T09:35:16Z</time>
      </trkpt>
      <trkpt lat="44.46396" lon="3.72593">
        <ele>1176.4</ele>
        <time>2021-08-10T09:35:18Z</time>
      </trkpt>
      <trkpt lat="44.46392" lon="3.72593">
        <ele>1177</ele>
        <time>2021-08-10T09:35:20Z</time>
      </trkpt>
      <trkpt lat="44.46389" lon="3.72592">
        <ele>1177.1</ele>
        <time>2021-08-10T09:35:22Z</time>
      </trkpt>
      <trkpt lat="44.46386" lon="3.72591">
        <ele>1177</ele>
        <time>2021-08-10T09:35:24Z</time>
      </trkpt>
      <trkpt lat="44.46382" lon="3.7259">
        <ele>1177</ele>
        <time>2021-08-10T09:35:26Z</time>
      </trkpt>
      <trkpt lat="44.46378" lon="3.72587">
        <ele>1176.7</ele>
        <time>2021-08-10T09:35:28Z</time>
      </trkpt>
      <trkpt lat="44.46375" lon="3.72585">
        <ele>1176.6</ele>
        <time>2021-08-10T09:35:30Z</time>
      </trkpt>
      <trkpt lat="44.46372" lon="3.72583">
        <ele>1176.1</ele>
        <time>2021-08-10T09:35:32Z</time>
      </trkpt>
      <trkpt lat="44.46369" lon="3.72579">
        <ele>1175.7</ele>
        <time>2021-08-10T09:35:34Z</time>
      </trkpt>
      <trkpt lat="44.46366" lon="3.72577">
        <ele>1175.3</ele>
        <time>2021-08-10T09:35:36Z</time>
      </trkpt>
      <trkpt lat="44.46363" lon="3.72573">
        <ele>1174.9</ele>
        <time>2021-08-10T09:35:38Z</time>
      </trkpt>
      <trkpt lat="44.4636" lon="3.7257">
        <ele>1174.6</ele>
        <time>2021-08-10T09:35:40Z</time>
      </trkpt>
      <trkpt lat="44.46356" lon="3.72568">
        <ele>1174.3</ele>
        <time>2021-08-10T09:35:42Z</time>
      </trkpt>
      <trkpt lat="44.46353" lon="3.72565">
        <ele>1173.9</ele>
        <time>2021-08-10T09:35:44Z</time>
      </trkpt>
      <trkpt lat="44.4635" lon="3.72561">
        <ele>1173.4</ele>
        <time>2021-08-10T09:35:46Z</time>
      </trkpt>
      <trkpt lat="44.46347" lon="3.72558">
        <ele>1173.1</ele>
        <time>2021-08-10T09:35:48Z</time>
      </trkpt>
      <trkpt lat="44.46344" lon="3.72555">
        <ele>1172.6</ele>
        <time>2021-08-10T09:35:50Z</time>
      </trkpt>
      <trkpt lat="44.46341" lon="3.72553">
        <ele>1172.3</ele>
        <time>2021-08-10T09:35:52Z</time>
      </trkpt>
      <trkpt lat="44.46338" lon="3.7255">
        <ele>1172</ele>
        <time>2021-08-10T09:35:54Z</time>
      </trkpt>
      <trkpt lat="44.46334" lon="3.72547">
        <ele>1171.9</ele>
        <time>2021-08-10T09:35:56Z</time>
      </trkpt>
      <trkpt lat="44.4633" lon="3.72546">
        <ele>1171.1</ele>
        <time>2021-08-10T09:35:58Z</time>
      </trkpt>
      <trkpt lat="44.46327" lon="3.72543">
        <ele>1170</ele>
        <time>2021-08-10T09:36:00Z</time>
      </trkpt>
      <trkpt lat="44.46323" lon="3.72542">
        <ele>1169.1</ele>
        <time>2021-08-10T09:36:02Z</time>
      </trkpt>
      <trkpt lat="44.4632" lon="3.72542">
        <ele>1168.5</ele>
        <time>2021-08-10T09:36:04Z</time>
      </trkpt>
      <trkpt lat="44.46316" lon="3.72542">
        <ele>1168.2</ele>
        <time>2021-08-10T09:36:06Z</time>
      </trkpt>
      <trkpt lat="44.46313" lon="3.72542">
        <ele>1167.6</ele>
        <time>2021-08-10T09:36:08Z</time>
      </trkpt>
      <trkpt lat="44.4631" lon="3.72543">
        <ele>1167.4</ele>
        <time>2021-08-10T09:36:10Z</time>
      </trkpt>
      <trkpt lat="44.46307" lon="3.72545">
        <ele>1167.5</ele>
        <time>2021-08-10T09:36:12Z</time>
      </trkpt>
      <trkpt lat="44.46304" lon="3.72548">
        <ele>1167.7</ele>
        <time>2021-08-10T09:36:14Z</time>
      </trkpt>
      <trkpt lat="44.46302" lon="3.72551">
        <ele>1168</ele>
        <time>2021-08-10T09:36:16Z</time>
      </trkpt>
      <trkpt lat="44.463" lon="3.72554">
        <ele>1168.3</ele>
        <time>2021-08-10T09:36:18Z</time>
      </trkpt>
      <trkpt lat="44.46299" lon="3.72558">
        <ele>1168.9</ele>
        <time>2021-08-10T09:36:20Z</time>
      </trkpt>
      <trkpt lat="44.46297" lon="3.72562">
        <ele>1169.4</ele>
        <time>2021-08-10T09:36:22Z</time>
      </trkpt>
      <trkpt lat="44.46296" lon="3.72566">
        <ele>1170</ele>
        <time>2021-08-10T09:36:24Z</time>
      </trkpt>
      <trkpt lat="44.46294" lon="3.7257">
        <ele>1170.5</ele>
        <time>2021-08-10T09:36:26Z</time>
      </trkpt>
      <trkpt lat="44.46292" lon="3.72574">
        <ele>1170.8</ele>
        <time>2021-08-10T09:36:28Z</time>
      </trkpt>
      <trkpt lat="44.46291" lon="3.72578">
        <ele>1171.4</ele>
        <time>2021-08-10T09:36:30Z</time>
      </trkpt>
      <trkpt lat="44.46289" lon="3.72583">
        <ele>1171.9</ele>
        <time>2021-08-10T09:36:32Z</time>
      </trkpt>
      <trkpt lat="44.46287" lon="3.72587">
        <ele>1172.7</ele>
        <time>2021-08-10T09:36:34Z</time>
      </trkpt>
      <trkpt lat="44.46286" lon="3.72591">
        <ele>1173.5</ele>
        <time>2021-08-10T09:36:36Z</time>
      </trkpt>
      <trkpt lat="44.46285" lon="3.72595">
        <ele>1174.6</ele>
        <time>2021-08-10T09:36:38Z</time>
      </trkpt>
      <trkpt lat="44.46283" lon="3.726">
        <ele>1175.5</ele>
        <time>2021-08-10T09:36:40Z</time>
      </trkpt>
      <trkpt lat="44.46281" lon="3.72604">
        <ele>1176.5</ele>
        <time>2021-08-10T09:36:42Z</time>
      </trkpt>
      <trkpt lat="44.4628" lon="3.72609">
        <ele>1177.4</ele>
        <time>2021-08-10T09:36:44Z</time>
      </trkpt>
      <trkpt lat="44.46278" lon="3.72613">
        <ele>1178.4</ele>
        <time>2021-08-10T09:36:46Z</time>
      </trkpt>
      <trkpt lat="44.46277" lon="3.72618">
        <ele>1179.5</ele>
        <time>2021-08-10T09:36:48Z</time>
      </trkpt>
      <trkpt lat="44.46275" lon="3.72623">
        <ele>1180.4</ele>
        <time>2021-08-10T09:36:50Z</time>
      </trkpt>
      <trkpt lat="44.46273" lon="3.72627">
        <ele>1181.2</ele>
        <time>2021-08-10T09:36:52Z</time>
      </trkpt>
      <trkpt lat="44.46271" lon="3.72632">
        <ele>1182.2</ele>
        <time>2021-08-10T09:36:54Z</time>
      </trkpt>
      <trkpt lat="44.46269" lon="3.72637">
        <ele>1183.1</ele>
        <time>2021-08-10T09:36:56Z</time>
      </trkpt>
      <trkpt lat="44.46266" lon="3.72641">
        <ele>1183.7</ele>
        <time>2021-08-10T09:36:58Z</time>
      </trkpt>
      <trkpt lat="44.46265" lon="3.72645">
        <ele>1184.6</ele>
        <time>2021-08-10T09:37:00Z</time>
      </trkpt>
      <trkpt lat="44.46263" lon="3.7265">
        <ele>1185.2</ele>
        <time>2021-08-10T09:37:02Z</time>
      </trkpt>
      <trkpt lat="44.4626" lon="3.72654">
        <ele>1185.9</ele>
        <time>2021-08-10T09:37:04Z</time>
      </trkpt>
      <trkpt lat="44.46257" lon="3.72658">
        <ele>1186.4</ele>
        <time>2021-08-10T09:37:06Z</time>
      </trkpt>
      <trkpt lat="44.46255" lon="3.72663">
        <ele>1187</ele>
        <time>2021-08-10T09:37:08Z</time>
      </trkpt>
      <trkpt lat="44.46251" lon="3.72666">
        <ele>1187.2</ele>
        <time>2021-08-10T09:37:10Z</time>
      </trkpt>
      <trkpt lat="44.46249" lon="3.7267">
        <ele>1188.1</ele>
        <time>2021-08-10T09:37:12Z</time>
      </trkpt>
      <trkpt lat="44.46245" lon="3.72674">
        <ele>1189</ele>
        <time>2021-08-10T09:37:14Z</time>
      </trkpt>
      <trkpt lat="44.46242" lon="3.72677">
        <ele>1189.8</ele>
        <time>2021-08-10T09:37:16Z</time>
      </trkpt>
      <trkpt lat="44.46239" lon="3.7268">
        <ele>1190.5</ele>
        <time>2021-08-10T09:37:18Z</time>
      </trkpt>
      <trkpt lat="44.46235" lon="3.72684">
        <ele>1191.2</ele>
        <time>2021-08-10T09:37:20Z</time>
      </trkpt>
      <trkpt lat="44.46232" lon="3.72687">
        <ele>1192</ele>
        <time>2021-08-10T09:37:22Z</time>
      </trkpt>
      <trkpt lat="44.46229" lon="3.72691">
        <ele>1192.8</ele>
        <time>2021-08-10T09:37:24Z</time>
      </trkpt>
      <trkpt lat="44.46226" lon="3.72693">
        <ele>1193.4</ele>
        <time>2021-08-10T09:37:26Z</time>
      </trkpt>
      <trkpt lat="44.46222" lon="3.72696">
        <ele>1193.8</ele>
        <time>2021-08-10T09:37:28Z</time>
      </trkpt>
      <trkpt lat="44.46219" lon="3.72698">
        <ele>1194.3</ele>
        <time>2021-08-10T09:37:30Z</time>
      </trkpt>
      <trkpt lat="44.46215" lon="3.727">
        <ele>1194.6</ele>
        <time>2021-08-10T09:37:32Z</time>
      </trkpt>
      <trkpt lat="44.46212" lon="3.72703">
        <ele>1195.1</ele>
        <time>2021-08-10T09:37:34Z</time>
      </trkpt>
      <trkpt lat="44.46208" lon="3.72706">
        <ele>1195.5</ele>
        <time>2021-08-10T09:37:36Z</time>
      </trkpt>
      <trkpt lat="44.46204" lon="3.72707">
        <ele>1195.6</ele>
        <time>2021-08-10T09:37:38Z</time>
      </trkpt>
      <trkpt lat="44.462" lon="3.7271">
        <ele>1196</ele>
        <time>2021-08-10T09:37:40Z</time>
      </trkpt>
      <trkpt lat="44.46197" lon="3.72712">
        <ele>1196.2</ele>
        <time>2021-08-10T09:37:42Z</time>
      </trkpt>
      <trkpt lat="44.46193" lon="3.72714">
        <ele>1196.4</ele>
        <time>2021-08-10T09:37:44Z</time>
      </trkpt>
      <trkpt lat="44.4619" lon="3.72716">
        <ele>1196.7</ele>
        <time>2021-08-10T09:37:46Z</time>
      </trkpt>
      <trkpt lat="44.46186" lon="3.72718">
        <ele>1196.8</ele>
        <time>2021-08-10T09:37:48Z</time>
      </trkpt>
      <trkpt lat="44.46182" lon="3.7272">
        <ele>1197.1</ele>
        <time>2021-08-10T09:37:50Z</time>
      </trkpt>
      <trkpt lat="44.46178" lon="3.72722">
        <ele>1197.4</ele>
        <time>2021-08-10T09:37:52Z</time>
      </trkpt>
      <trkpt lat="44.46174" lon="3.72724">
        <ele>1197.5</ele>
        <time>2021-08-10T09:37:54Z</time>
      </trkpt>
      <trkpt lat="44.46171" lon="3.72725">
        <ele>1197.7</ele>
        <time>2021-08-10T09:37:56Z</time>
      </trkpt>
      <trkpt lat="44.46167" lon="3.72727">
        <ele>1197.8</ele>
        <time>2021-08-10T09:37:58Z</time>
      </trkpt>
      <trkpt lat="44.46164" lon="3.72729">
        <ele>1198.6</ele>
        <time>2021-08-10T09:38:00Z</time>
      </trkpt>
      <trkpt lat="44.4616" lon="3.7273">
        <ele>1199.3</ele>
        <time>2021-08-10T09:38:02Z</time>
      </trkpt>
      <trkpt lat="44.46157" lon="3.72732">
        <ele>1200.1</ele>
        <time>2021-08-10T09:38:04Z</time>
      </trkpt>
      <trkpt lat="44.46152" lon="3.72732">
        <ele>1200.7</ele>
        <time>2021-08-10T09:38:06Z</time>
      </trkpt>
      <trkpt lat="44.46149" lon="3.72733">
        <ele>1201.2</ele>
        <time>2021-08-10T09:38:08Z</time>
      </trkpt>
      <trkpt lat="44.46144" lon="3.72733">
        <ele>1201.7</ele>
        <time>2021-08-10T09:38:10Z</time>
      </trkpt>
      <trkpt lat="44.4614" lon="3.72733">
        <ele>1201.7</ele>
        <time>2021-08-10T09:38:12Z</time>
      </trkpt>
      <trkpt lat="44.46136" lon="3.72731">
        <ele>1201.6</ele>
        <time>2021-08-10T09:38:14Z</time>
      </trkpt>
      <trkpt lat="44.46132" lon="3.7273">
        <ele>1201.4</ele>
        <time>2021-08-10T09:38:16Z</time>
      </trkpt>
      <trkpt lat="44.46129" lon="3.72729">
        <ele>1201.2</ele>
        <time>2021-08-10T09:38:18Z</time>
      </trkpt>
      <trkpt lat="44.46125" lon="3.72727">
        <ele>1200.7</ele>
        <time>2021-08-10T09:38:20Z</time>
      </trkpt>
      <trkpt lat="44.46121" lon="3.72724">
        <ele>1200.2</ele>
        <time>2021-08-10T09:38:22Z</time>
      </trkpt>
      <trkpt lat="44.46118" lon="3.72722">
        <ele>1199.8</ele>
        <time>2021-08-10T09:38:24Z</time>
      </trkpt>
      <trkpt lat="44.46115" lon="3.7272">
        <ele>1199.3</ele>
        <time>2021-08-10T09:38:26Z</time>
      </trkpt>
      <trkpt lat="44.46111" lon="3.72718">
        <ele>1198.6</ele>
        <time>2021-08-10T09:38:28Z</time>
      </trkpt>
      <trkpt lat="44.46108" lon="3.72715">
        <ele>1198.1</ele>
        <time>2021-08-10T09:38:30Z</time>
      </trkpt>
      <trkpt lat="44.46105" lon="3.72713">
        <ele>1197.5</ele>
        <time>2021-08-10T09:38:32Z</time>
      </trkpt>
      <trkpt lat="44.46101" lon="3.72711">
        <ele>1197</ele>
        <time>2021-08-10T09:38:34Z</time>
      </trkpt>
      <trkpt lat="44.46098" lon="3.72709">
        <ele>1196.7</ele>
        <time>2021-08-10T09:38:36Z</time>
      </trkpt>
      <trkpt lat="44.46094" lon="3.72707">
        <ele>1196.3</ele>
        <time>2021-08-10T09:38:38Z</time>
      </trkpt>
      <trkpt lat="44.4609" lon="3.72705">
        <ele>1195.9</ele>
        <time>2021-08-10T09:38:40Z</time>
      </trkpt>
      <trkpt lat="44.46087" lon="3.72704">
        <ele>1195.6</ele>
        <time>2021-08-10T09:38:42Z</time>
      </trkpt>
      <trkpt lat="44.46083" lon="3.72702">
        <ele>1195.2</ele>
        <time>2021-08-10T09:38:44Z</time>
      </trkpt>
      <trkpt lat="44.46079" lon="3.72701">
        <ele>1194.7</ele>
        <time>2021-08-10T09:38:46Z</time>
      </trkpt>
      <trkpt lat="44.46075" lon="3.72701">
        <ele>1194.5</ele>
        <time>2021-08-10T09:38:48Z</time>
      </trkpt>
      <trkpt lat="44.46072" lon="3.72702">
        <ele>1194.6</ele>
        <time>2021-08-10T09:38:50Z</time>
      </trkpt>
      <trkpt lat="44.46068" lon="3.72703">
        <ele>1194.6</ele>
        <time>2021-08-10T09:38:52Z</time>
      </trkpt>
      <trkpt lat="44.46065" lon="3.72705">
        <ele>1195.1</ele>
        <time>2021-08-10T09:38:54Z</time>
      </trkpt>
      <trkpt lat="44.46062" lon="3.72708">
        <ele>1195.6</ele>
        <time>2021-08-10T09:38:56Z</time>
      </trkpt>
      <trkpt lat="44.46059" lon="3.7271">
        <ele>1196.1</ele>
        <time>2021-08-10T09:38:58Z</time>
      </trkpt>
      <trkpt lat="44.46056" lon="3.72712">
        <ele>1196.5</ele>
        <time>2021-08-10T09:39:00Z</time>
      </trkpt>
      <trkpt lat="44.46053" lon="3.72714">
        <ele>1196.9</ele>
        <time>2021-08-10T09:39:02Z</time>
      </trkpt>
      <trkpt lat="44.46049" lon="3.72716">
        <ele>1197.3</ele>
        <time>2021-08-10T09:39:04Z</time>
      </trkpt>
      <trkpt lat="44.46046" lon="3.72719">
        <ele>1197.8</ele>
        <time>2021-08-10T09:39:06Z</time>
      </trkpt>
      <trkpt lat="44.46043" lon="3.72721">
        <ele>1198.2</ele>
        <time>2021-08-10T09:39:08Z</time>
      </trkpt>
      <trkpt lat="44.4604" lon="3.72723">
        <ele>1198.5</ele>
        <time>2021-08-10T09:39:10Z</time>
      </trkpt>
      <trkpt lat="44.46037" lon="3.72726">
        <ele>1199.1</ele>
        <time>2021-08-10T09:39:12Z</time>
      </trkpt>
      <trkpt lat="44.46034" lon="3.72729">
        <ele>1199.5</ele>
        <time>2021-08-10T09:39:14Z</time>
      </trkpt>
      <trkpt lat="44.46031" lon="3.72731">
        <ele>1200</ele>
        <time>2021-08-10T09:39:16Z</time>
      </trkpt>
      <trkpt lat="44.46028" lon="3.72734">
        <ele>1200.3</ele>
        <time>2021-08-10T09:39:18Z</time>
      </trkpt>
      <trkpt lat="44.46024" lon="3.72736">
        <ele>1200.6</ele>
        <time>2021-08-10T09:39:20Z</time>
      </trkpt>
      <trkpt lat="44.46021" lon="3.72739">
        <ele>1200.8</ele>
        <time>2021-08-10T09:39:22Z</time>
      </trkpt>
      <trkpt lat="44.46017" lon="3.72741">
        <ele>1201.1</ele>
        <time>2021-08-10T09:39:24Z</time>
      </trkpt>
      <trkpt lat="44.46014" lon="3.72744">
        <ele>1201.2</ele>
        <time>2021-08-10T09:39:26Z</time>
      </trkpt>
      <trkpt lat="44.46011" lon="3.72747">
        <ele>1201.7</ele>
        <time>2021-08-10T09:39:28Z</time>
      </trkpt>
      <trkpt lat="44.46008" lon="3.7275">
        <ele>1202.2</ele>
        <time>2021-08-10T09:39:30Z</time>
      </trkpt>
      <trkpt lat="44.46005" lon="3.72753">
        <ele>1202.9</ele>
        <time>2021-08-10T09:39:32Z</time>
      </trkpt>
      <trkpt lat="44.46001" lon="3.72756">
        <ele>1204.1</ele>
        <time>2021-08-10T09:39:34Z</time>
      </trkpt>
      <trkpt lat="44.45998" lon="3.72759">
        <ele>1204.9</ele>
        <time>2021-08-10T09:39:36Z</time>
      </trkpt>
      <trkpt lat="44.45994" lon="3.72763">
        <ele>1206</ele>
        <time>2021-08-10T09:39:38Z</time>
      </trkpt>
      <trkpt lat="44.45991" lon="3.72766">
        <ele>1207</ele>
        <time>2021-08-10T09:39:40Z</time>
      </trkpt>
      <trkpt lat="44.45988" lon="3.72769">
        <ele>1207.9</ele>
        <time>2021-08-10T09:39:42Z</time>
      </trkpt>
      <trkpt lat="44.45985" lon="3.72772">
        <ele>1208.3</ele>
        <time>2021-08-10T09:39:44Z</time>
      </trkpt>
      <trkpt lat="44.45981" lon="3.72774">
        <ele>1208.6</ele>
        <time>2021-08-10T09:39:46Z</time>
      </trkpt>
      <trkpt lat="44.45978" lon="3.72777">
        <ele>1209.3</ele>
        <time>2021-08-10T09:39:48Z</time>
      </trkpt>
      <trkpt lat="44.45974" lon="3.72778">
        <ele>1208.9</ele>
        <time>2021-08-10T09:39:50Z</time>
      </trkpt>
      <trkpt lat="44.4597" lon="3.72779">
        <ele>1208.5</ele>
        <time>2021-08-10T09:39:52Z</time>
      </trkpt>
      <trkpt lat="44.45966" lon="3.72779">
        <ele>1207.8</ele>
        <time>2021-08-10T09:39:54Z</time>
      </trkpt>
      <trkpt lat="44.45962" lon="3.7278">
        <ele>1207.5</ele>
        <time>2021-08-10T09:39:56Z</time>
      </trkpt>
      <trkpt lat="44.45957" lon="3.72781">
        <ele>1206.8</ele>
        <time>2021-08-10T09:39:58Z</time>
      </trkpt>
      <trkpt lat="44.45953" lon="3.72781">
        <ele>1206.2</ele>
        <time>2021-08-10T09:40:00Z</time>
      </trkpt>
      <trkpt lat="44.45949" lon="3.72781">
        <ele>1205.4</ele>
        <time>2021-08-10T09:40:02Z</time>
      </trkpt>
      <trkpt lat="44.45945" lon="3.72782">
        <ele>1205</ele>
        <time>2021-08-10T09:40:04Z</time>
      </trkpt>
      <trkpt lat="44.45941" lon="3.72782">
        <ele>1204.2</ele>
        <time>2021-08-10T09:40:06Z</time>
      </trkpt>
      <trkpt lat="44.45937" lon="3.72783">
        <ele>1203.8</ele>
        <time>2021-08-10T09:40:08Z</time>
      </trkpt>
      <trkpt lat="44.45933" lon="3.72784">
        <ele>1203.3</ele>
        <time>2021-08-10T09:40:10Z</time>
      </trkpt>
      <trkpt lat="44.4593" lon="3.72785">
        <ele>1202.8</ele>
        <time>2021-08-10T09:40:12Z</time>
      </trkpt>
      <trkpt lat="44.45926" lon="3.72786">
        <ele>1202.4</ele>
        <time>2021-08-10T09:40:14Z</time>
      </trkpt>
      <trkpt lat="44.45923" lon="3.72788">
        <ele>1202.3</ele>
        <time>2021-08-10T09:40:16Z</time>
      </trkpt>
      <trkpt lat="44.4592" lon="3.7279">
        <ele>1202.3</ele>
        <time>2021-08-10T09:40:18Z</time>
      </trkpt>
      <trkpt lat="44.45917" lon="3.72794">
        <ele>1202.5</ele>
        <time>2021-08-10T09:40:20Z</time>
      </trkpt>
      <trkpt lat="44.45914" lon="3.72796">
        <ele>1203.3</ele>
        <time>2021-08-10T09:40:22Z</time>
      </trkpt>
      <trkpt lat="44.45911" lon="3.728">
        <ele>1204.4</ele>
        <time>2021-08-10T09:40:24Z</time>
      </trkpt>
      <trkpt lat="44.45909" lon="3.72805">
        <ele>1205.4</ele>
        <time>2021-08-10T09:40:26Z</time>
      </trkpt>
      <trkpt lat="44.45908" lon="3.72809">
        <ele>1206.4</ele>
        <time>2021-08-10T09:40:28Z</time>
      </trkpt>
      <trkpt lat="44.45907" lon="3.72814">
        <ele>1207.4</ele>
        <time>2021-08-10T09:40:30Z</time>
      </trkpt>
      <trkpt lat="44.45906" lon="3.72819">
        <ele>1208.4</ele>
        <time>2021-08-10T09:40:32Z</time>
      </trkpt>
      <trkpt lat="44.45906" lon="3.72824">
        <ele>1209.5</ele>
        <time>2021-08-10T09:40:34Z</time>
      </trkpt>
      <trkpt lat="44.45905" lon="3.72828">
        <ele>1210.3</ele>
        <time>2021-08-10T09:40:36Z</time>
      </trkpt>
      <trkpt lat="44.45905" lon="3.72833">
        <ele>1211.3</ele>
        <time>2021-08-10T09:40:38Z</time>
      </trkpt>
      <trkpt lat="44.45904" lon="3.72838">
        <ele>1212.4</ele>
        <time>2021-08-10T09:40:40Z</time>
      </trkpt>
      <trkpt lat="44.45904" lon="3.72842">
        <ele>1213.5</ele>
        <time>2021-08-10T09:40:42Z</time>
      </trkpt>
      <trkpt lat="44.45904" lon="3.72847">
        <ele>1214.4</ele>
        <time>2021-08-10T09:40:44Z</time>
      </trkpt>
      <trkpt lat="44.45904" lon="3.72851">
        <ele>1215.5</ele>
        <time>2021-08-10T09:40:46Z</time>
      </trkpt>
      <trkpt lat="44.45903" lon="3.72856">
        <ele>1216.5</ele>
        <time>2021-08-10T09:40:48Z</time>
      </trkpt>
      <trkpt lat="44.45902" lon="3.7286">
        <ele>1217.3</ele>
        <time>2021-08-10T09:40:50Z</time>
      </trkpt>
      <trkpt lat="44.45901" lon="3.72864">
        <ele>1218</ele>
        <time>2021-08-10T09:40:52Z</time>
      </trkpt>
      <trkpt lat="44.45899" lon="3.72869">
        <ele>1218.7</ele>
        <time>2021-08-10T09:40:54Z</time>
      </trkpt>
      <trkpt lat="44.45898" lon="3.72873">
        <ele>1219.3</ele>
        <time>2021-08-10T09:40:56Z</time>
      </trkpt>
      <trkpt lat="44.45896" lon="3.72877">
        <ele>1219.9</ele>
        <time>2021-08-10T09:40:58Z</time>
      </trkpt>
      <trkpt lat="44.45895" lon="3.72881">
        <ele>1220.3</ele>
        <time>2021-08-10T09:41:00Z</time>
      </trkpt>
      <trkpt lat="44.45893" lon="3.72885">
        <ele>1220.8</ele>
        <time>2021-08-10T09:41:02Z</time>
      </trkpt>
      <trkpt lat="44.45892" lon="3.7289">
        <ele>1221.4</ele>
        <time>2021-08-10T09:41:04Z</time>
      </trkpt>
      <trkpt lat="44.45889" lon="3.72894">
        <ele>1221.5</ele>
        <time>2021-08-10T09:41:06Z</time>
      </trkpt>
      <trkpt lat="44.45887" lon="3.72897">
        <ele>1221.7</ele>
        <time>2021-08-10T09:41:08Z</time>
      </trkpt>
      <trkpt lat="44.45885" lon="3.72901">
        <ele>1221.8</ele>
        <time>2021-08-10T09:41:10Z</time>
      </trkpt>
      <trkpt lat="44.45883" lon="3.72905">
        <ele>1221.9</ele>
        <time>2021-08-10T09:41:12Z</time>
      </trkpt>
      <trkpt lat="44.45881" lon="3.72908">
        <ele>1221.9</ele>
        <time>2021-08-10T09:41:14Z</time>
      </trkpt>
      <trkpt lat="44.45879" lon="3.72912">
        <ele>1221.8</ele>
        <time>2021-08-10T09:41:16Z</time>
      </trkpt>
      <trkpt lat="44.45877" lon="3.72916">
        <ele>1221.9</ele>
        <time>2021-08-10T09:41:18Z</time>
      </trkpt>
      <trkpt lat="44.45874" lon="3.72919">
        <ele>1221.8</ele>
        <time>2021-08-10T09:41:20Z</time>
      </trkpt>
      <trkpt lat="44.45871" lon="3.72923">
        <ele>1221.9</ele>
        <time>2021-08-10T09:41:22Z</time>
      </trkpt>
      <trkpt lat="44.45869" lon="3.72927">
        <ele>1222.1</ele>
        <time>2021-08-10T09:41:24Z</time>
      </trkpt>
      <trkpt lat="44.45867" lon="3.72931">
        <ele>1222.3</ele>
        <time>2021-08-10T09:41:26Z</time>
      </trkpt>
      <trkpt lat="44.45865" lon="3.72935">
        <ele>1222.6</ele>
        <time>2021-08-10T09:41:28Z</time>
      </trkpt>
      <trkpt lat="44.45863" lon="3.72938">
        <ele>1222.8</ele>
        <time>2021-08-10T09:41:30Z</time>
      </trkpt>
      <trkpt lat="44.45861" lon="3.72942">
        <ele>1223</ele>
        <time>2021-08-10T09:41:32Z</time>
      </trkpt>
      <trkpt lat="44.45858" lon="3.72946">
        <ele>1223.1</ele>
        <time>2021-08-10T09:41:34Z</time>
      </trkpt>
      <trkpt lat="44.45856" lon="3.72949">
        <ele>1223.3</ele>
        <time>2021-08-10T09:41:36Z</time>
      </trkpt>
      <trkpt lat="44.45854" lon="3.72953">
        <ele>1223.4</ele>
        <time>2021-08-10T09:41:38Z</time>
      </trkpt>
      <trkpt lat="44.45851" lon="3.72957">
        <ele>1223.5</ele>
        <time>2021-08-10T09:41:40Z</time>
      </trkpt>
      <trkpt lat="44.45849" lon="3.7296">
        <ele>1223.7</ele>
        <time>2021-08-10T09:41:42Z</time>
      </trkpt>
      <trkpt lat="44.45847" lon="3.72964">
        <ele>1223.9</ele>
        <time>2021-08-10T09:41:44Z</time>
      </trkpt>
      <trkpt lat="44.45845" lon="3.72968">
        <ele>1224.1</ele>
        <time>2021-08-10T09:41:46Z</time>
      </trkpt>
      <trkpt lat="44.45843" lon="3.72972">
        <ele>1224.2</ele>
        <time>2021-08-10T09:41:48Z</time>
      </trkpt>
      <trkpt lat="44.4584" lon="3.72975">
        <ele>1224.2</ele>
        <time>2021-08-10T09:41:50Z</time>
      </trkpt>
      <trkpt lat="44.45837" lon="3.72978">
        <ele>1224.2</ele>
        <time>2021-08-10T09:41:52Z</time>
      </trkpt>
      <trkpt lat="44.45835" lon="3.72982">
        <ele>1224</ele>
        <time>2021-08-10T09:41:54Z</time>
      </trkpt>
      <trkpt lat="44.45832" lon="3.72985">
        <ele>1224.1</ele>
        <time>2021-08-10T09:41:56Z</time>
      </trkpt>
      <trkpt lat="44.45829" lon="3.72988">
        <ele>1224.1</ele>
        <time>2021-08-10T09:41:58Z</time>
      </trkpt>
      <trkpt lat="44.45826" lon="3.72991">
        <ele>1224.4</ele>
        <time>2021-08-10T09:42:00Z</time>
      </trkpt>
      <trkpt lat="44.45823" lon="3.72993">
        <ele>1224.3</ele>
        <time>2021-08-10T09:42:02Z</time>
      </trkpt>
      <trkpt lat="44.4582" lon="3.72994">
        <ele>1223.8</ele>
        <time>2021-08-10T09:42:04Z</time>
      </trkpt>
      <trkpt lat="44.45817" lon="3.72997">
        <ele>1223.6</ele>
        <time>2021-08-10T09:42:06Z</time>
      </trkpt>
      <trkpt lat="44.45814" lon="3.72998">
        <ele>1223.3</ele>
        <time>2021-08-10T09:42:08Z</time>
      </trkpt>
      <trkpt lat="44.4581" lon="3.73001">
        <ele>1222.9</ele>
        <time>2021-08-10T09:42:10Z</time>
      </trkpt>
      <trkpt lat="44.45807" lon="3.73004">
        <ele>1222.7</ele>
        <time>2021-08-10T09:42:12Z</time>
      </trkpt>
      <trkpt lat="44.45804" lon="3.73006">
        <ele>1222.3</ele>
        <time>2021-08-10T09:42:14Z</time>
      </trkpt>
      <trkpt lat="44.45801" lon="3.73009">
        <ele>1222.1</ele>
        <time>2021-08-10T09:42:16Z</time>
      </trkpt>
      <trkpt lat="44.45798" lon="3.73013">
        <ele>1222</ele>
        <time>2021-08-10T09:42:18Z</time>
      </trkpt>
      <trkpt lat="44.45794" lon="3.73017">
        <ele>1221.8</ele>
        <time>2021-08-10T09:42:20Z</time>
      </trkpt>
      <trkpt lat="44.45792" lon="3.73021">
        <ele>1221.8</ele>
        <time>2021-08-10T09:42:22Z</time>
      </trkpt>
      <trkpt lat="44.45789" lon="3.73026">
        <ele>1221.9</ele>
        <time>2021-08-10T09:42:24Z</time>
      </trkpt>
      <trkpt lat="44.45788" lon="3.73032">
        <ele>1222.4</ele>
        <time>2021-08-10T09:42:26Z</time>
      </trkpt>
      <trkpt lat="44.45787" lon="3.73038">
        <ele>1223.1</ele>
        <time>2021-08-10T09:42:28Z</time>
      </trkpt>
      <trkpt lat="44.45786" lon="3.73043">
        <ele>1223.7</ele>
        <time>2021-08-10T09:42:30Z</time>
      </trkpt>
      <trkpt lat="44.45785" lon="3.73049">
        <ele>1224.3</ele>
        <time>2021-08-10T09:42:32Z</time>
      </trkpt>
      <trkpt lat="44.45785" lon="3.73055">
        <ele>1225</ele>
        <time>2021-08-10T09:42:34Z</time>
      </trkpt>
      <trkpt lat="44.45784" lon="3.73061">
        <ele>1225.6</ele>
        <time>2021-08-10T09:42:36Z</time>
      </trkpt>
      <trkpt lat="44.45784" lon="3.73066">
        <ele>1226.3</ele>
        <time>2021-08-10T09:42:38Z</time>
      </trkpt>
      <trkpt lat="44.45783" lon="3.73072">
        <ele>1226.9</ele>
        <time>2021-08-10T09:42:40Z</time>
      </trkpt>
      <trkpt lat="44.45783" lon="3.73077">
        <ele>1227.6</ele>
        <time>2021-08-10T09:42:42Z</time>
      </trkpt>
      <trkpt lat="44.45783" lon="3.73083">
        <ele>1228.3</ele>
        <time>2021-08-10T09:42:44Z</time>
      </trkpt>
      <trkpt lat="44.45783" lon="3.73089">
        <ele>1228.8</ele>
        <time>2021-08-10T09:42:46Z</time>
      </trkpt>
      <trkpt lat="44.45783" lon="3.73094">
        <ele>1229.2</ele>
        <time>2021-08-10T09:42:48Z</time>
      </trkpt>
      <trkpt lat="44.45783" lon="3.731">
        <ele>1229.5</ele>
        <time>2021-08-10T09:42:50Z</time>
      </trkpt>
      <trkpt lat="44.45783" lon="3.73105">
        <ele>1229.9</ele>
        <time>2021-08-10T09:42:52Z</time>
      </trkpt>
      <trkpt lat="44.45782" lon="3.73111">
        <ele>1230.2</ele>
        <time>2021-08-10T09:42:54Z</time>
      </trkpt>
      <trkpt lat="44.45782" lon="3.73116">
        <ele>1230.6</ele>
        <time>2021-08-10T09:42:56Z</time>
      </trkpt>
      <trkpt lat="44.45782" lon="3.73122">
        <ele>1230.9</ele>
        <time>2021-08-10T09:42:58Z</time>
      </trkpt>
      <trkpt lat="44.45782" lon="3.73127">
        <ele>1231.2</ele>
        <time>2021-08-10T09:43:00Z</time>
      </trkpt>
      <trkpt lat="44.45782" lon="3.73133">
        <ele>1231.6</ele>
        <time>2021-08-10T09:43:02Z</time>
      </trkpt>
      <trkpt lat="44.45782" lon="3.73138">
        <ele>1231.9</ele>
        <time>2021-08-10T09:43:04Z</time>
      </trkpt>
      <trkpt lat="44.45781" lon="3.73144">
        <ele>1232.2</ele>
        <time>2021-08-10T09:43:06Z</time>
      </trkpt>
      <trkpt lat="44.45781" lon="3.73149">
        <ele>1232.5</ele>
        <time>2021-08-10T09:43:08Z</time>
      </trkpt>
      <trkpt lat="44.45781" lon="3.73154">
        <ele>1232.9</ele>
        <time>2021-08-10T09:43:10Z</time>
      </trkpt>
      <trkpt lat="44.45782" lon="3.7316">
        <ele>1233.5</ele>
        <time>2021-08-10T09:43:12Z</time>
      </trkpt>
      <trkpt lat="44.45782" lon="3.73165">
        <ele>1233.8</ele>
        <time>2021-08-10T09:43:14Z</time>
      </trkpt>
      <trkpt lat="44.45781" lon="3.7317">
        <ele>1234.1</ele>
        <time>2021-08-10T09:43:16Z</time>
      </trkpt>
      <trkpt lat="44.45781" lon="3.73176">
        <ele>1234.4</ele>
        <time>2021-08-10T09:43:18Z</time>
      </trkpt>
      <trkpt lat="44.45781" lon="3.73182">
        <ele>1234.6</ele>
        <time>2021-08-10T09:43:20Z</time>
      </trkpt>
      <trkpt lat="44.4578" lon="3.73187">
        <ele>1234.8</ele>
        <time>2021-08-10T09:43:22Z</time>
      </trkpt>
      <trkpt lat="44.4578" lon="3.73192">
        <ele>1235</ele>
        <time>2021-08-10T09:43:24Z</time>
      </trkpt>
      <trkpt lat="44.45779" lon="3.73198">
        <ele>1235.1</ele>
        <time>2021-08-10T09:43:26Z</time>
      </trkpt>
      <trkpt lat="44.45778" lon="3.73203">
        <ele>1235</ele>
        <time>2021-08-10T09:43:28Z</time>
      </trkpt>
      <trkpt lat="44.45777" lon="3.73208">
        <ele>1235</ele>
        <time>2021-08-10T09:43:30Z</time>
      </trkpt>
      <trkpt lat="44.45776" lon="3.73213">
        <ele>1235</ele>
        <time>2021-08-10T09:43:32Z</time>
      </trkpt>
      <trkpt lat="44.45775" lon="3.73218">
        <ele>1235.1</ele>
        <time>2021-08-10T09:43:34Z</time>
      </trkpt>
      <trkpt lat="44.45774" lon="3.73224">
        <ele>1234.9</ele>
        <time>2021-08-10T09:43:36Z</time>
      </trkpt>
      <trkpt lat="44.45773" lon="3.73228">
        <ele>1234.8</ele>
        <time>2021-08-10T09:43:38Z</time>
      </trkpt>
      <trkpt lat="44.45773" lon="3.73233">
        <ele>1235</ele>
        <time>2021-08-10T09:43:40Z</time>
      </trkpt>
      <trkpt lat="44.45771" lon="3.73239">
        <ele>1234.8</ele>
        <time>2021-08-10T09:43:42Z</time>
      </trkpt>
      <trkpt lat="44.4577" lon="3.73244">
        <ele>1234.7</ele>
        <time>2021-08-10T09:43:44Z</time>
      </trkpt>
      <trkpt lat="44.45769" lon="3.73249">
        <ele>1234.5</ele>
        <time>2021-08-10T09:43:46Z</time>
      </trkpt>
      <trkpt lat="44.45768" lon="3.73254">
        <ele>1234.9</ele>
        <time>2021-08-10T09:43:48Z</time>
      </trkpt>
      <trkpt lat="44.45767" lon="3.73259">
        <ele>1235.3</ele>
        <time>2021-08-10T09:43:50Z</time>
      </trkpt>
      <trkpt lat="44.45766" lon="3.73264">
        <ele>1235.6</ele>
        <time>2021-08-10T09:43:52Z</time>
      </trkpt>
      <trkpt lat="44.45765" lon="3.73269">
        <ele>1236</ele>
        <time>2021-08-10T09:43:54Z</time>
      </trkpt>
      <trkpt lat="44.45764" lon="3.73275">
        <ele>1236.2</ele>
        <time>2021-08-10T09:43:56Z</time>
      </trkpt>
      <trkpt lat="44.45763" lon="3.7328">
        <ele>1236.6</ele>
        <time>2021-08-10T09:43:58Z</time>
      </trkpt>
      <trkpt lat="44.45762" lon="3.73284">
        <ele>1236.9</ele>
        <time>2021-08-10T09:44:00Z</time>
      </trkpt>
      <trkpt lat="44.45761" lon="3.7329">
        <ele>1237.3</ele>
        <time>2021-08-10T09:44:02Z</time>
      </trkpt>
      <trkpt lat="44.4576" lon="3.73295">
        <ele>1237.7</ele>
        <time>2021-08-10T09:44:04Z</time>
      </trkpt>
      <trkpt lat="44.45759" lon="3.733">
        <ele>1237.9</ele>
        <time>2021-08-10T09:44:06Z</time>
      </trkpt>
      <trkpt lat="44.45758" lon="3.73305">
        <ele>1238.2</ele>
        <time>2021-08-10T09:44:08Z</time>
      </trkpt>
      <trkpt lat="44.45757" lon="3.7331">
        <ele>1238.7</ele>
        <time>2021-08-10T09:44:10Z</time>
      </trkpt>
      <trkpt lat="44.45757" lon="3.73315">
        <ele>1239.1</ele>
        <time>2021-08-10T09:44:12Z</time>
      </trkpt>
      <trkpt lat="44.45755" lon="3.73321">
        <ele>1239.4</ele>
        <time>2021-08-10T09:44:14Z</time>
      </trkpt>
      <trkpt lat="44.45754" lon="3.73325">
        <ele>1239.5</ele>
        <time>2021-08-10T09:44:16Z</time>
      </trkpt>
      <trkpt lat="44.45753" lon="3.73331">
        <ele>1240</ele>
        <time>2021-08-10T09:44:18Z</time>
      </trkpt>
      <trkpt lat="44.45752" lon="3.73336">
        <ele>1240</ele>
        <time>2021-08-10T09:44:20Z</time>
      </trkpt>
      <trkpt lat="44.45751" lon="3.73341">
        <ele>1239.9</ele>
        <time>2021-08-10T09:44:22Z</time>
      </trkpt>
      <trkpt lat="44.4575" lon="3.73346">
        <ele>1239.7</ele>
        <time>2021-08-10T09:44:24Z</time>
      </trkpt>
      <trkpt lat="44.45749" lon="3.73351">
        <ele>1239.9</ele>
        <time>2021-08-10T09:44:26Z</time>
      </trkpt>
      <trkpt lat="44.45748" lon="3.73357">
        <ele>1240.1</ele>
        <time>2021-08-10T09:44:28Z</time>
      </trkpt>
      <trkpt lat="44.45748" lon="3.73362">
        <ele>1240.3</ele>
        <time>2021-08-10T09:44:30Z</time>
      </trkpt>
      <trkpt lat="44.45747" lon="3.73367">
        <ele>1240.6</ele>
        <time>2021-08-10T09:44:32Z</time>
      </trkpt>
      <trkpt lat="44.45747" lon="3.73372">
        <ele>1240.8</ele>
        <time>2021-08-10T09:44:34Z</time>
      </trkpt>
      <trkpt lat="44.45747" lon="3.73377">
        <ele>1241</ele>
        <time>2021-08-10T09:44:36Z</time>
      </trkpt>
      <trkpt lat="44.45747" lon="3.73381">
        <ele>1241.2</ele>
        <time>2021-08-10T09:44:38Z</time>
      </trkpt>
      <trkpt lat="44.45748" lon="3.73386">
        <ele>1241.5</ele>
        <time>2021-08-10T09:44:40Z</time>
      </trkpt>
      <trkpt lat="44.45748" lon="3.73391">
        <ele>1241.7</ele>
        <time>2021-08-10T09:44:42Z</time>
      </trkpt>
      <trkpt lat="44.4575" lon="3.73394">
        <ele>1241.9</ele>
        <time>2021-08-10T09:44:44Z</time>
      </trkpt>
      <trkpt lat="44.45751" lon="3.73398">
        <ele>1242.3</ele>
        <time>2021-08-10T09:44:46Z</time>
      </trkpt>
      <trkpt lat="44.45751" lon="3.73402">
        <ele>1242.6</ele>
        <time>2021-08-10T09:44:48Z</time>
      </trkpt>
      <trkpt lat="44.45752" lon="3.73406">
        <ele>1243.2</ele>
        <time>2021-08-10T09:44:50Z</time>
      </trkpt>
      <trkpt lat="44.45753" lon="3.73411">
        <ele>1243.9</ele>
        <time>2021-08-10T09:44:52Z</time>
      </trkpt>
      <trkpt lat="44.45754" lon="3.73415">
        <ele>1244.5</ele>
        <time>2021-08-10T09:44:54Z</time>
      </trkpt>
      <trkpt lat="44.45756" lon="3.73418">
        <ele>1245.4</ele>
        <time>2021-08-10T09:44:56Z</time>
      </trkpt>
      <trkpt lat="44.45757" lon="3.73423">
        <ele>1246.2</ele>
        <time>2021-08-10T09:44:58Z</time>
      </trkpt>
      <trkpt lat="44.45759" lon="3.73426">
        <ele>1247.2</ele>
        <time>2021-08-10T09:45:00Z</time>
      </trkpt>
      <trkpt lat="44.45762" lon="3.73429">
        <ele>1248.2</ele>
        <time>2021-08-10T09:45:02Z</time>
      </trkpt>
      <trkpt lat="44.45764" lon="3.73432">
        <ele>1249.2</ele>
        <time>2021-08-10T09:45:04Z</time>
      </trkpt>
      <trkpt lat="44.45767" lon="3.73435">
        <ele>1250.1</ele>
        <time>2021-08-10T09:45:06Z</time>
      </trkpt>
      <trkpt lat="44.45769" lon="3.73437">
        <ele>1251</ele>
        <time>2021-08-10T09:45:08Z</time>
      </trkpt>
      <trkpt lat="44.45772" lon="3.7344">
        <ele>1251.9</ele>
        <time>2021-08-10T09:45:10Z</time>
      </trkpt>
      <trkpt lat="44.45775" lon="3.73443">
        <ele>1252.9</ele>
        <time>2021-08-10T09:45:12Z</time>
      </trkpt>
      <trkpt lat="44.45777" lon="3.73446">
        <ele>1253.5</ele>
        <time>2021-08-10T09:45:14Z</time>
      </trkpt>
      <trkpt lat="44.4578" lon="3.73449">
        <ele>1254.2</ele>
        <time>2021-08-10T09:45:16Z</time>
      </trkpt>
      <trkpt lat="44.45783" lon="3.73452">
        <ele>1254.9</ele>
        <time>2021-08-10T09:45:18Z</time>
      </trkpt>
      <trkpt lat="44.45785" lon="3.73455">
        <ele>1255.4</ele>
        <time>2021-08-10T09:45:20Z</time>
      </trkpt>
      <trkpt lat="44.45788" lon="3.73458">
        <ele>1256</ele>
        <time>2021-08-10T09:45:22Z</time>
      </trkpt>
      <trkpt lat="44.45791" lon="3.73461">
        <ele>1256.5</ele>
        <time>2021-08-10T09:45:24Z</time>
      </trkpt>
      <trkpt lat="44.45793" lon="3.73464">
        <ele>1256.9</ele>
        <time>2021-08-10T09:45:26Z</time>
      </trkpt>
      <trkpt lat="44.45795" lon="3.73466">
        <ele>1257.2</ele>
        <time>2021-08-10T09:45:28Z</time>
      </trkpt>
      <trkpt lat="44.45798" lon="3.73469">
        <ele>1257.5</ele>
        <time>2021-08-10T09:45:30Z</time>
      </trkpt>
      <trkpt lat="44.45801" lon="3.73472">
        <ele>1257.8</ele>
        <time>2021-08-10T09:45:32Z</time>
      </trkpt>
      <trkpt lat="44.45804" lon="3.73475">
        <ele>1258.1</ele>
        <time>2021-08-10T09:45:34Z</time>
      </trkpt>
      <trkpt lat="44.45807" lon="3.73478">
        <ele>1258.2</ele>
        <time>2021-08-10T09:45:36Z</time>
      </trkpt>
      <trkpt lat="44.45809" lon="3.73481">
        <ele>1258.3</ele>
        <time>2021-08-10T09:45:38Z</time>
      </trkpt>
      <trkpt lat="44.45812" lon="3.73484">
        <ele>1258.3</ele>
        <time>2021-08-10T09:45:40Z</time>
      </trkpt>
      <trkpt lat="44.45814" lon="3.73487">
        <ele>1258.3</ele>
        <time>2021-08-10T09:45:42Z</time>
      </trkpt>
      <trkpt lat="44.45816" lon="3.7349">
        <ele>1258.1</ele>
        <time>2021-08-10T09:45:44Z</time>
      </trkpt>
      <trkpt lat="44.45818" lon="3.73494">
        <ele>1257.8</ele>
        <time>2021-08-10T09:45:46Z</time>
      </trkpt>
      <trkpt lat="44.45819" lon="3.73499">
        <ele>1257.2</ele>
        <time>2021-08-10T09:45:48Z</time>
      </trkpt>
      <trkpt lat="44.45819" lon="3.73505">
        <ele>1257.9</ele>
        <time>2021-08-10T09:45:50Z</time>
      </trkpt>
      <trkpt lat="44.45817" lon="3.7351">
        <ele>1258.7</ele>
        <time>2021-08-10T09:45:52Z</time>
      </trkpt>
      <trkpt lat="44.45814" lon="3.73514">
        <ele>1259.1</ele>
        <time>2021-08-10T09:45:54Z</time>
      </trkpt>
      <trkpt lat="44.4581" lon="3.73515">
        <ele>1259.1</ele>
        <time>2021-08-10T09:45:56Z</time>
      </trkpt>
      <trkpt lat="44.45807" lon="3.73514">
        <ele>1258.9</ele>
        <time>2021-08-10T09:45:58Z</time>
      </trkpt>
      <trkpt lat="44.45803" lon="3.73513">
        <ele>1258.5</ele>
        <time>2021-08-10T09:46:00Z</time>
      </trkpt>
      <trkpt lat="44.458" lon="3.73512">
        <ele>1258</ele>
        <time>2021-08-10T09:46:02Z</time>
      </trkpt>
      <trkpt lat="44.45797" lon="3.7351">
        <ele>1257.6</ele>
        <time>2021-08-10T09:46:04Z</time>
      </trkpt>
      <trkpt lat="44.45793" lon="3.73508">
        <ele>1257.1</ele>
        <time>2021-08-10T09:46:06Z</time>
      </trkpt>
      <trkpt lat="44.4579" lon="3.73507">
        <ele>1256.7</ele>
        <time>2021-08-10T09:46:08Z</time>
      </trkpt>
      <trkpt lat="44.45787" lon="3.73505">
        <ele>1256.2</ele>
        <time>2021-08-10T09:46:10Z</time>
      </trkpt>
      <trkpt lat="44.45784" lon="3.73504">
        <ele>1255.7</ele>
        <time>2021-08-10T09:46:12Z</time>
      </trkpt>
      <trkpt lat="44.4578" lon="3.73502">
        <ele>1255.2</ele>
        <time>2021-08-10T09:46:14Z</time>
      </trkpt>
      <trkpt lat="44.45777" lon="3.73501">
        <ele>1254.8</ele>
        <time>2021-08-10T09:46:16Z</time>
      </trkpt>
      <trkpt lat="44.45773" lon="3.73499">
        <ele>1254.4</ele>
        <time>2021-08-10T09:46:18Z</time>
      </trkpt>
      <trkpt lat="44.4577" lon="3.73499">
        <ele>1254.1</ele>
        <time>2021-08-10T09:46:20Z</time>
      </trkpt>
      <trkpt lat="44.45767" lon="3.73498">
        <ele>1253.9</ele>
        <time>2021-08-10T09:46:22Z</time>
      </trkpt>
      <trkpt lat="44.45763" lon="3.73497">
        <ele>1253.6</ele>
        <time>2021-08-10T09:46:24Z</time>
      </trkpt>
      <trkpt lat="44.4576" lon="3.73497">
        <ele>1253.3</ele>
        <time>2021-08-10T09:46:26Z</time>
      </trkpt>
      <trkpt lat="44.45756" lon="3.73497">
        <ele>1253.1</ele>
        <time>2021-08-10T09:46:28Z</time>
      </trkpt>
      <trkpt lat="44.45753" lon="3.73498">
        <ele>1253</ele>
        <time>2021-08-10T09:46:30Z</time>
      </trkpt>
      <trkpt lat="44.4575" lon="3.73499">
        <ele>1252.8</ele>
        <time>2021-08-10T09:46:32Z</time>
      </trkpt>
      <trkpt lat="44.45746" lon="3.73499">
        <ele>1252.5</ele>
        <time>2021-08-10T09:46:34Z</time>
      </trkpt>
      <trkpt lat="44.45743" lon="3.735">
        <ele>1252.3</ele>
        <time>2021-08-10T09:46:36Z</time>
      </trkpt>
      <trkpt lat="44.45739" lon="3.73501">
        <ele>1252.2</ele>
        <time>2021-08-10T09:46:38Z</time>
      </trkpt>
      <trkpt lat="44.45736" lon="3.73502">
        <ele>1252.2</ele>
        <time>2021-08-10T09:46:40Z</time>
      </trkpt>
      <trkpt lat="44.45733" lon="3.73504">
        <ele>1252.2</ele>
        <time>2021-08-10T09:46:42Z</time>
      </trkpt>
      <trkpt lat="44.4573" lon="3.73505">
        <ele>1252.1</ele>
        <time>2021-08-10T09:46:44Z</time>
      </trkpt>
      <trkpt lat="44.45727" lon="3.73506">
        <ele>1252.1</ele>
        <time>2021-08-10T09:46:46Z</time>
      </trkpt>
      <trkpt lat="44.45724" lon="3.73508">
        <ele>1252.1</ele>
        <time>2021-08-10T09:46:48Z</time>
      </trkpt>
      <trkpt lat="44.45721" lon="3.7351">
        <ele>1252.2</ele>
        <time>2021-08-10T09:46:50Z</time>
      </trkpt>
      <trkpt lat="44.45718" lon="3.73512">
        <ele>1252.3</ele>
        <time>2021-08-10T09:46:52Z</time>
      </trkpt>
      <trkpt lat="44.45715" lon="3.73514">
        <ele>1252.3</ele>
        <time>2021-08-10T09:46:54Z</time>
      </trkpt>
      <trkpt lat="44.45713" lon="3.73517">
        <ele>1252.6</ele>
        <time>2021-08-10T09:46:56Z</time>
      </trkpt>
      <trkpt lat="44.4571" lon="3.7352">
        <ele>1252.9</ele>
        <time>2021-08-10T09:46:58Z</time>
      </trkpt>
      <trkpt lat="44.45708" lon="3.73523">
        <ele>1253.3</ele>
        <time>2021-08-10T09:47:00Z</time>
      </trkpt>
      <trkpt lat="44.45706" lon="3.73528">
        <ele>1253.8</ele>
        <time>2021-08-10T09:47:02Z</time>
      </trkpt>
      <trkpt lat="44.45704" lon="3.73531">
        <ele>1254.3</ele>
        <time>2021-08-10T09:47:04Z</time>
      </trkpt>
      <trkpt lat="44.45702" lon="3.73535">
        <ele>1254.7</ele>
        <time>2021-08-10T09:47:06Z</time>
      </trkpt>
      <trkpt lat="44.45701" lon="3.73539">
        <ele>1255.3</ele>
        <time>2021-08-10T09:47:08Z</time>
      </trkpt>
      <trkpt lat="44.457" lon="3.73543">
        <ele>1255.9</ele>
        <time>2021-08-10T09:47:10Z</time>
      </trkpt>
      <trkpt lat="44.45698" lon="3.73547">
        <ele>1256.3</ele>
        <time>2021-08-10T09:47:12Z</time>
      </trkpt>
      <trkpt lat="44.45696" lon="3.73552">
        <ele>1256.8</ele>
        <time>2021-08-10T09:47:14Z</time>
      </trkpt>
      <trkpt lat="44.45695" lon="3.73556">
        <ele>1257.4</ele>
        <time>2021-08-10T09:47:16Z</time>
      </trkpt>
      <trkpt lat="44.45693" lon="3.7356">
        <ele>1257.9</ele>
        <time>2021-08-10T09:47:18Z</time>
      </trkpt>
      <trkpt lat="44.45692" lon="3.73565">
        <ele>1258.4</ele>
        <time>2021-08-10T09:47:20Z</time>
      </trkpt>
      <trkpt lat="44.4569" lon="3.73569">
        <ele>1258.8</ele>
        <time>2021-08-10T09:47:22Z</time>
      </trkpt>
      <trkpt lat="44.45689" lon="3.73573">
        <ele>1259.3</ele>
        <time>2021-08-10T09:47:24Z</time>
      </trkpt>
      <trkpt lat="44.45687" lon="3.73578">
        <ele>1259.7</ele>
        <time>2021-08-10T09:47:26Z</time>
      </trkpt>
      <trkpt lat="44.45686" lon="3.73582">
        <ele>1260.1</ele>
        <time>2021-08-10T09:47:28Z</time>
      </trkpt>
      <trkpt lat="44.45684" lon="3.73586">
        <ele>1260.5</ele>
        <time>2021-08-10T09:47:30Z</time>
      </trkpt>
      <trkpt lat="44.45683" lon="3.7359">
        <ele>1260.7</ele>
        <time>2021-08-10T09:47:32Z</time>
      </trkpt>
      <trkpt lat="44.45681" lon="3.73594">
        <ele>1261</ele>
        <time>2021-08-10T09:47:34Z</time>
      </trkpt>
      <trkpt lat="44.4568" lon="3.73598">
        <ele>1261.3</ele>
        <time>2021-08-10T09:47:36Z</time>
      </trkpt>
      <trkpt lat="44.45679" lon="3.73603">
        <ele>1261.6</ele>
        <time>2021-08-10T09:47:38Z</time>
      </trkpt>
      <trkpt lat="44.45677" lon="3.73607">
        <ele>1261.9</ele>
        <time>2021-08-10T09:47:40Z</time>
      </trkpt>
      <trkpt lat="44.45676" lon="3.73611">
        <ele>1262.3</ele>
        <time>2021-08-10T09:47:42Z</time>
      </trkpt>
      <trkpt lat="44.45676" lon="3.73616">
        <ele>1262.8</ele>
        <time>2021-08-10T09:47:44Z</time>
      </trkpt>
      <trkpt lat="44.45675" lon="3.73621">
        <ele>1263.3</ele>
        <time>2021-08-10T09:47:46Z</time>
      </trkpt>
      <trkpt lat="44.45675" lon="3.73625">
        <ele>1263.7</ele>
        <time>2021-08-10T09:47:48Z</time>
      </trkpt>
      <trkpt lat="44.45675" lon="3.7363">
        <ele>1264.3</ele>
        <time>2021-08-10T09:47:50Z</time>
      </trkpt>
      <trkpt lat="44.45674" lon="3.73634">
        <ele>1264.7</ele>
        <time>2021-08-10T09:47:52Z</time>
      </trkpt>
      <trkpt lat="44.45674" lon="3.73639">
        <ele>1265.2</ele>
        <time>2021-08-10T09:47:54Z</time>
      </trkpt>
      <trkpt lat="44.45673" lon="3.73643">
        <ele>1265.7</ele>
        <time>2021-08-10T09:47:56Z</time>
      </trkpt>
      <trkpt lat="44.45673" lon="3.73648">
        <ele>1266.2</ele>
        <time>2021-08-10T09:47:58Z</time>
      </trkpt>
      <trkpt lat="44.45673" lon="3.73652">
        <ele>1266.7</ele>
        <time>2021-08-10T09:48:00Z</time>
      </trkpt>
      <trkpt lat="44.45673" lon="3.73657">
        <ele>1267.2</ele>
        <time>2021-08-10T09:48:02Z</time>
      </trkpt>
      <trkpt lat="44.45673" lon="3.73661">
        <ele>1267.8</ele>
        <time>2021-08-10T09:48:04Z</time>
      </trkpt>
      <trkpt lat="44.45672" lon="3.73666">
        <ele>1268.3</ele>
        <time>2021-08-10T09:48:06Z</time>
      </trkpt>
      <trkpt lat="44.45672" lon="3.73671">
        <ele>1268.6</ele>
        <time>2021-08-10T09:48:08Z</time>
      </trkpt>
      <trkpt lat="44.45672" lon="3.73675">
        <ele>1269</ele>
        <time>2021-08-10T09:48:10Z</time>
      </trkpt>
      <trkpt lat="44.45671" lon="3.7368">
        <ele>1269.3</ele>
        <time>2021-08-10T09:48:12Z</time>
      </trkpt>
      <trkpt lat="44.45671" lon="3.73685">
        <ele>1269.6</ele>
        <time>2021-08-10T09:48:14Z</time>
      </trkpt>
      <trkpt lat="44.45671" lon="3.73689">
        <ele>1270.1</ele>
        <time>2021-08-10T09:48:16Z</time>
      </trkpt>
      <trkpt lat="44.45671" lon="3.73694">
        <ele>1270.5</ele>
        <time>2021-08-10T09:48:18Z</time>
      </trkpt>
      <trkpt lat="44.45672" lon="3.73699">
        <ele>1271.1</ele>
        <time>2021-08-10T09:48:20Z</time>
      </trkpt>
      <trkpt lat="44.45673" lon="3.73703">
        <ele>1271.6</ele>
        <time>2021-08-10T09:48:22Z</time>
      </trkpt>
      <trkpt lat="44.45673" lon="3.73707">
        <ele>1272.1</ele>
        <time>2021-08-10T09:48:24Z</time>
      </trkpt>
      <trkpt lat="44.45675" lon="3.73712">
        <ele>1272.9</ele>
        <time>2021-08-10T09:48:26Z</time>
      </trkpt>
      <trkpt lat="44.45676" lon="3.73716">
        <ele>1273.5</ele>
        <time>2021-08-10T09:48:28Z</time>
      </trkpt>
      <trkpt lat="44.45678" lon="3.7372">
        <ele>1274.3</ele>
        <time>2021-08-10T09:48:30Z</time>
      </trkpt>
      <trkpt lat="44.45679" lon="3.73724">
        <ele>1275</ele>
        <time>2021-08-10T09:48:32Z</time>
      </trkpt>
      <trkpt lat="44.45681" lon="3.73728">
        <ele>1275.6</ele>
        <time>2021-08-10T09:48:34Z</time>
      </trkpt>
      <trkpt lat="44.45682" lon="3.73732">
        <ele>1276.3</ele>
        <time>2021-08-10T09:48:36Z</time>
      </trkpt>
      <trkpt lat="44.45684" lon="3.73736">
        <ele>1277.1</ele>
        <time>2021-08-10T09:48:38Z</time>
      </trkpt>
      <trkpt lat="44.45685" lon="3.7374">
        <ele>1277.9</ele>
        <time>2021-08-10T09:48:40Z</time>
      </trkpt>
      <trkpt lat="44.45687" lon="3.73744">
        <ele>1278.6</ele>
        <time>2021-08-10T09:48:42Z</time>
      </trkpt>
      <trkpt lat="44.45688" lon="3.73749">
        <ele>1279.2</ele>
        <time>2021-08-10T09:48:44Z</time>
      </trkpt>
      <trkpt lat="44.45688" lon="3.73753">
        <ele>1279.6</ele>
        <time>2021-08-10T09:48:46Z</time>
      </trkpt>
      <trkpt lat="44.45689" lon="3.73757">
        <ele>1280</ele>
        <time>2021-08-10T09:48:48Z</time>
      </trkpt>
      <trkpt lat="44.4569" lon="3.73762">
        <ele>1280.4</ele>
        <time>2021-08-10T09:48:50Z</time>
      </trkpt>
      <trkpt lat="44.4569" lon="3.73766">
        <ele>1280.7</ele>
        <time>2021-08-10T09:48:52Z</time>
      </trkpt>
      <trkpt lat="44.4569" lon="3.73771">
        <ele>1281</ele>
        <time>2021-08-10T09:48:54Z</time>
      </trkpt>
      <trkpt lat="44.45691" lon="3.73775">
        <ele>1281.3</ele>
        <time>2021-08-10T09:48:56Z</time>
      </trkpt>
      <trkpt lat="44.45691" lon="3.7378">
        <ele>1281.6</ele>
        <time>2021-08-10T09:48:58Z</time>
      </trkpt>
      <trkpt lat="44.45691" lon="3.73785">
        <ele>1281.9</ele>
        <time>2021-08-10T09:49:00Z</time>
      </trkpt>
      <trkpt lat="44.45691" lon="3.73789">
        <ele>1282.1</ele>
        <time>2021-08-10T09:49:02Z</time>
      </trkpt>
      <trkpt lat="44.45691" lon="3.73794">
        <ele>1282.3</ele>
        <time>2021-08-10T09:49:04Z</time>
      </trkpt>
      <trkpt lat="44.45691" lon="3.73799">
        <ele>1282.5</ele>
        <time>2021-08-10T09:49:06Z</time>
      </trkpt>
      <trkpt lat="44.45691" lon="3.73803">
        <ele>1282.7</ele>
        <time>2021-08-10T09:49:08Z</time>
      </trkpt>
      <trkpt lat="44.4569" lon="3.73808">
        <ele>1282.8</ele>
        <time>2021-08-10T09:49:10Z</time>
      </trkpt>
      <trkpt lat="44.4569" lon="3.73812">
        <ele>1282.9</ele>
        <time>2021-08-10T09:49:12Z</time>
      </trkpt>
      <trkpt lat="44.45689" lon="3.73817">
        <ele>1283</ele>
        <time>2021-08-10T09:49:14Z</time>
      </trkpt>
      <trkpt lat="44.45689" lon="3.73821">
        <ele>1283</ele>
        <time>2021-08-10T09:49:16Z</time>
      </trkpt>
      <trkpt lat="44.45688" lon="3.73826">
        <ele>1283</ele>
        <time>2021-08-10T09:49:18Z</time>
      </trkpt>
      <trkpt lat="44.45687" lon="3.7383">
        <ele>1282.9</ele>
        <time>2021-08-10T09:49:20Z</time>
      </trkpt>
      <trkpt lat="44.45686" lon="3.73835">
        <ele>1282.9</ele>
        <time>2021-08-10T09:49:22Z</time>
      </trkpt>
      <trkpt lat="44.45685" lon="3.73839">
        <ele>1283</ele>
        <time>2021-08-10T09:49:24Z</time>
      </trkpt>
      <trkpt lat="44.45684" lon="3.73843">
        <ele>1283</ele>
        <time>2021-08-10T09:49:26Z</time>
      </trkpt>
      <trkpt lat="44.45684" lon="3.73848">
        <ele>1283.1</ele>
        <time>2021-08-10T09:49:28Z</time>
      </trkpt>
      <trkpt lat="44.45683" lon="3.73853">
        <ele>1283.1</ele>
        <time>2021-08-10T09:49:30Z</time>
      </trkpt>
      <trkpt lat="44.45682" lon="3.73857">
        <ele>1283.3</ele>
        <time>2021-08-10T09:49:32Z</time>
      </trkpt>
      <trkpt lat="44.45681" lon="3.73862">
        <ele>1283.3</ele>
        <time>2021-08-10T09:49:34Z</time>
      </trkpt>
      <trkpt lat="44.45681" lon="3.73867">
        <ele>1283.5</ele>
        <time>2021-08-10T09:49:36Z</time>
      </trkpt>
      <trkpt lat="44.4568" lon="3.73872">
        <ele>1283.6</ele>
        <time>2021-08-10T09:49:38Z</time>
      </trkpt>
      <trkpt lat="44.45679" lon="3.73877">
        <ele>1283.8</ele>
        <time>2021-08-10T09:49:40Z</time>
      </trkpt>
      <trkpt lat="44.45678" lon="3.73882">
        <ele>1283.9</ele>
        <time>2021-08-10T09:49:42Z</time>
      </trkpt>
      <trkpt lat="44.45678" lon="3.73886">
        <ele>1284.1</ele>
        <time>2021-08-10T09:49:44Z</time>
      </trkpt>
      <trkpt lat="44.45678" lon="3.73891">
        <ele>1284.3</ele>
        <time>2021-08-10T09:49:46Z</time>
      </trkpt>
      <trkpt lat="44.45677" lon="3.73896">
        <ele>1284.4</ele>
        <time>2021-08-10T09:49:48Z</time>
      </trkpt>
      <trkpt lat="44.45677" lon="3.739">
        <ele>1284.7</ele>
        <time>2021-08-10T09:49:50Z</time>
      </trkpt>
      <trkpt lat="44.45676" lon="3.73906">
        <ele>1285</ele>
        <time>2021-08-10T09:49:52Z</time>
      </trkpt>
      <trkpt lat="44.45676" lon="3.7391">
        <ele>1285.2</ele>
        <time>2021-08-10T09:49:54Z</time>
      </trkpt>
      <trkpt lat="44.45676" lon="3.73915">
        <ele>1285.5</ele>
        <time>2021-08-10T09:49:56Z</time>
      </trkpt>
      <trkpt lat="44.45675" lon="3.73919">
        <ele>1285.6</ele>
        <time>2021-08-10T09:49:58Z</time>
      </trkpt>
      <trkpt lat="44.45675" lon="3.73923">
        <ele>1285.8</ele>
        <time>2021-08-10T09:50:00Z</time>
      </trkpt>
      <trkpt lat="44.45675" lon="3.73928">
        <ele>1286.2</ele>
        <time>2021-08-10T09:50:02Z</time>
      </trkpt>
      <trkpt lat="44.45675" lon="3.73933">
        <ele>1286.5</ele>
        <time>2021-08-10T09:50:04Z</time>
      </trkpt>
      <trkpt lat="44.45675" lon="3.73938">
        <ele>1286.8</ele>
        <time>2021-08-10T09:50:06Z</time>
      </trkpt>
      <trkpt lat="44.45675" lon="3.73943">
        <ele>1287.3</ele>
        <time>2021-08-10T09:50:08Z</time>
      </trkpt>
      <trkpt lat="44.45675" lon="3.73948">
        <ele>1287.6</ele>
        <time>2021-08-10T09:50:10Z</time>
      </trkpt>
      <trkpt lat="44.45675" lon="3.73953">
        <ele>1288.1</ele>
        <time>2021-08-10T09:50:12Z</time>
      </trkpt>
      <trkpt lat="44.45676" lon="3.73958">
        <ele>1288.6</ele>
        <time>2021-08-10T09:50:14Z</time>
      </trkpt>
      <trkpt lat="44.45677" lon="3.73962">
        <ele>1289.2</ele>
        <time>2021-08-10T09:50:16Z</time>
      </trkpt>
      <trkpt lat="44.45678" lon="3.73967">
        <ele>1289.8</ele>
        <time>2021-08-10T09:50:18Z</time>
      </trkpt>
      <trkpt lat="44.45678" lon="3.73972">
        <ele>1290.3</ele>
        <time>2021-08-10T09:50:20Z</time>
      </trkpt>
      <trkpt lat="44.45679" lon="3.73976">
        <ele>1290.8</ele>
        <time>2021-08-10T09:50:22Z</time>
      </trkpt>
      <trkpt lat="44.45679" lon="3.73981">
        <ele>1291.1</ele>
        <time>2021-08-10T09:50:24Z</time>
      </trkpt>
      <trkpt lat="44.4568" lon="3.73985">
        <ele>1291.7</ele>
        <time>2021-08-10T09:50:26Z</time>
      </trkpt>
      <trkpt lat="44.45681" lon="3.7399">
        <ele>1292.3</ele>
        <time>2021-08-10T09:50:28Z</time>
      </trkpt>
      <trkpt lat="44.45681" lon="3.73995">
        <ele>1292.7</ele>
        <time>2021-08-10T09:50:30Z</time>
      </trkpt>
      <trkpt lat="44.45681" lon="3.74">
        <ele>1293.2</ele>
        <time>2021-08-10T09:50:32Z</time>
      </trkpt>
      <trkpt lat="44.45682" lon="3.74004">
        <ele>1293.6</ele>
        <time>2021-08-10T09:50:34Z</time>
      </trkpt>
      <trkpt lat="44.45682" lon="3.74008">
        <ele>1294.1</ele>
        <time>2021-08-10T09:50:36Z</time>
      </trkpt>
      <trkpt lat="44.45682" lon="3.74014">
        <ele>1294.6</ele>
        <time>2021-08-10T09:50:38Z</time>
      </trkpt>
      <trkpt lat="44.45682" lon="3.74019">
        <ele>1295</ele>
        <time>2021-08-10T09:50:40Z</time>
      </trkpt>
      <trkpt lat="44.45683" lon="3.74024">
        <ele>1295.4</ele>
        <time>2021-08-10T09:50:42Z</time>
      </trkpt>
      <trkpt lat="44.45683" lon="3.74029">
        <ele>1295.8</ele>
        <time>2021-08-10T09:50:44Z</time>
      </trkpt>
      <trkpt lat="44.45683" lon="3.74033">
        <ele>1296.2</ele>
        <time>2021-08-10T09:50:46Z</time>
      </trkpt>
      <trkpt lat="44.45683" lon="3.74038">
        <ele>1296.7</ele>
        <time>2021-08-10T09:50:48Z</time>
      </trkpt>
      <trkpt lat="44.45684" lon="3.74043">
        <ele>1297.1</ele>
        <time>2021-08-10T09:50:50Z</time>
      </trkpt>
      <trkpt lat="44.45684" lon="3.74047">
        <ele>1297.4</ele>
        <time>2021-08-10T09:50:52Z</time>
      </trkpt>
      <trkpt lat="44.45684" lon="3.74052">
        <ele>1297.8</ele>
        <time>2021-08-10T09:50:54Z</time>
      </trkpt>
      <trkpt lat="44.45684" lon="3.74056">
        <ele>1298.1</ele>
        <time>2021-08-10T09:50:56Z</time>
      </trkpt>
      <trkpt lat="44.45683" lon="3.74061">
        <ele>1298.3</ele>
        <time>2021-08-10T09:50:58Z</time>
      </trkpt>
      <trkpt lat="44.45683" lon="3.74065">
        <ele>1298.6</ele>
        <time>2021-08-10T09:51:00Z</time>
      </trkpt>
      <trkpt lat="44.45683" lon="3.7407">
        <ele>1299</ele>
        <time>2021-08-10T09:51:02Z</time>
      </trkpt>
      <trkpt lat="44.45683" lon="3.74075">
        <ele>1299.3</ele>
        <time>2021-08-10T09:51:04Z</time>
      </trkpt>
      <trkpt lat="44.45683" lon="3.7408">
        <ele>1299.7</ele>
        <time>2021-08-10T09:51:06Z</time>
      </trkpt>
      <trkpt lat="44.45682" lon="3.74084">
        <ele>1299.8</ele>
        <time>2021-08-10T09:51:08Z</time>
      </trkpt>
      <trkpt lat="44.45682" lon="3.74089">
        <ele>1300.1</ele>
        <time>2021-08-10T09:51:10Z</time>
      </trkpt>
      <trkpt lat="44.45683" lon="3.74092">
        <ele>1300.3</ele>
        <time>2021-08-10T09:51:12Z</time>
      </trkpt>
      <trkpt lat="44.45682" lon="3.74096">
        <ele>1300.5</ele>
        <time>2021-08-10T09:51:14Z</time>
      </trkpt>
      <trkpt lat="44.45682" lon="3.74099">
        <ele>1300.6</ele>
        <time>2021-08-10T09:51:16Z</time>
      </trkpt>
      <trkpt lat="44.45682" lon="3.741">
        <ele>1300.7</ele>
        <time>2021-08-10T09:51:18Z</time>
      </trkpt>
      <trkpt lat="44.45682" lon="3.741">
        <ele>1300.7</ele>
        <time>2021-08-10T09:51:20Z</time>
      </trkpt>
      <trkpt lat="44.45682" lon="3.74101">
        <ele>1300.7</ele>
        <time>2021-08-10T09:51:22Z</time>
      </trkpt>
      <trkpt lat="44.45682" lon="3.74104">
        <ele>1300.9</ele>
        <time>2021-08-10T09:51:24Z</time>
      </trkpt>
      <trkpt lat="44.45682" lon="3.74107">
        <ele>1301</ele>
        <time>2021-08-10T09:51:26Z</time>
      </trkpt>
      <trkpt lat="44.45682" lon="3.7411">
        <ele>1301.1</ele>
        <time>2021-08-10T09:51:28Z</time>
      </trkpt>
      <trkpt lat="44.45682" lon="3.74112">
        <ele>1301.3</ele>
        <time>2021-08-10T09:51:30Z</time>
      </trkpt>
      <trkpt lat="44.45682" lon="3.74115">
        <ele>1301.5</ele>
        <time>2021-08-10T09:51:32Z</time>
      </trkpt>
      <trkpt lat="44.45682" lon="3.74118">
        <ele>1301.7</ele>
        <time>2021-08-10T09:51:34Z</time>
      </trkpt>
      <trkpt lat="44.45682" lon="3.74121">
        <ele>1301.9</ele>
        <time>2021-08-10T09:51:36Z</time>
      </trkpt>
      <trkpt lat="44.45682" lon="3.74124">
        <ele>1302.1</ele>
        <time>2021-08-10T09:51:38Z</time>
      </trkpt>
      <trkpt lat="44.45681" lon="3.74127">
        <ele>1302.1</ele>
        <time>2021-08-10T09:51:40Z</time>
      </trkpt>
      <trkpt lat="44.45681" lon="3.7413">
        <ele>1302.3</ele>
        <time>2021-08-10T09:51:42Z</time>
      </trkpt>
      <trkpt lat="44.45681" lon="3.74133">
        <ele>1302.4</ele>
        <time>2021-08-10T09:51:44Z</time>
      </trkpt>
      <trkpt lat="44.45681" lon="3.74133">
        <ele>1302.4</ele>
        <time>2021-08-10T09:51:46Z</time>
      </trkpt>
      <trkpt lat="44.45681" lon="3.74133">
        <ele>1302.4</ele>
        <time>2021-08-10T09:51:48Z</time>
      </trkpt>
      <trkpt lat="44.45681" lon="3.74133">
        <ele>1302.3</ele>
        <time>2021-08-10T09:51:50Z</time>
      </trkpt>
      <trkpt lat="44.45681" lon="3.74133">
        <ele>1302.3</ele>
        <time>2021-08-10T09:51:52Z</time>
      </trkpt>
      <trkpt lat="44.45682" lon="3.74154">
        <ele>1303.8</ele>
        <time>2021-08-10T09:57:34Z</time>
      </trkpt>
      <trkpt lat="44.45682" lon="3.74158">
        <ele>1303.9</ele>
        <time>2021-08-10T09:57:36Z</time>
      </trkpt>
      <trkpt lat="44.45681" lon="3.74162">
        <ele>1303.9</ele>
        <time>2021-08-10T09:57:38Z</time>
      </trkpt>
      <trkpt lat="44.4568" lon="3.74166">
        <ele>1304.1</ele>
        <time>2021-08-10T09:57:40Z</time>
      </trkpt>
      <trkpt lat="44.4568" lon="3.7417">
        <ele>1304.2</ele>
        <time>2021-08-10T09:57:42Z</time>
      </trkpt>
      <trkpt lat="44.45679" lon="3.74174">
        <ele>1304.3</ele>
        <time>2021-08-10T09:57:44Z</time>
      </trkpt>
      <trkpt lat="44.45679" lon="3.74178">
        <ele>1304.5</ele>
        <time>2021-08-10T09:57:46Z</time>
      </trkpt>
      <trkpt lat="44.45679" lon="3.74182">
        <ele>1304.6</ele>
        <time>2021-08-10T09:57:48Z</time>
      </trkpt>
      <trkpt lat="44.45678" lon="3.74187">
        <ele>1304.7</ele>
        <time>2021-08-10T09:57:50Z</time>
      </trkpt>
      <trkpt lat="44.45678" lon="3.74191">
        <ele>1304.8</ele>
        <time>2021-08-10T09:57:52Z</time>
      </trkpt>
      <trkpt lat="44.45678" lon="3.74195">
        <ele>1305</ele>
        <time>2021-08-10T09:57:54Z</time>
      </trkpt>
      <trkpt lat="44.45677" lon="3.742">
        <ele>1305.2</ele>
        <time>2021-08-10T09:57:56Z</time>
      </trkpt>
      <trkpt lat="44.45677" lon="3.74204">
        <ele>1305.4</ele>
        <time>2021-08-10T09:57:58Z</time>
      </trkpt>
      <trkpt lat="44.45676" lon="3.74208">
        <ele>1305.5</ele>
        <time>2021-08-10T09:58:00Z</time>
      </trkpt>
      <trkpt lat="44.45676" lon="3.74212">
        <ele>1305.6</ele>
        <time>2021-08-10T09:58:02Z</time>
      </trkpt>
      <trkpt lat="44.45675" lon="3.74218">
        <ele>1305.8</ele>
        <time>2021-08-10T09:58:04Z</time>
      </trkpt>
      <trkpt lat="44.45675" lon="3.74223">
        <ele>1305.9</ele>
        <time>2021-08-10T09:58:06Z</time>
      </trkpt>
      <trkpt lat="44.45673" lon="3.74228">
        <ele>1305.9</ele>
        <time>2021-08-10T09:58:08Z</time>
      </trkpt>
      <trkpt lat="44.45671" lon="3.74234">
        <ele>1305.9</ele>
        <time>2021-08-10T09:58:10Z</time>
      </trkpt>
      <trkpt lat="44.45668" lon="3.74239">
        <ele>1305.7</ele>
        <time>2021-08-10T09:58:12Z</time>
      </trkpt>
      <trkpt lat="44.45665" lon="3.74242">
        <ele>1305.7</ele>
        <time>2021-08-10T09:58:14Z</time>
      </trkpt>
      <trkpt lat="44.45662" lon="3.74245">
        <ele>1306.4</ele>
        <time>2021-08-10T09:58:16Z</time>
      </trkpt>
      <trkpt lat="44.45658" lon="3.74246">
        <ele>1307</ele>
        <time>2021-08-10T09:58:18Z</time>
      </trkpt>
      <trkpt lat="44.45653" lon="3.74247">
        <ele>1307.6</ele>
        <time>2021-08-10T09:58:20Z</time>
      </trkpt>
      <trkpt lat="44.4565" lon="3.74246">
        <ele>1308</ele>
        <time>2021-08-10T09:58:22Z</time>
      </trkpt>
      <trkpt lat="44.45646" lon="3.74245">
        <ele>1308.5</ele>
        <time>2021-08-10T09:58:24Z</time>
      </trkpt>
      <trkpt lat="44.45643" lon="3.74243">
        <ele>1308.9</ele>
        <time>2021-08-10T09:58:26Z</time>
      </trkpt>
      <trkpt lat="44.45639" lon="3.74239">
        <ele>1309.2</ele>
        <time>2021-08-10T09:58:28Z</time>
      </trkpt>
      <trkpt lat="44.45636" lon="3.74236">
        <ele>1309.6</ele>
        <time>2021-08-10T09:58:30Z</time>
      </trkpt>
      <trkpt lat="44.45633" lon="3.74231">
        <ele>1309.8</ele>
        <time>2021-08-10T09:58:32Z</time>
      </trkpt>
      <trkpt lat="44.4563" lon="3.74226">
        <ele>1310</ele>
        <time>2021-08-10T09:58:34Z</time>
      </trkpt>
      <trkpt lat="44.45629" lon="3.74221">
        <ele>1310</ele>
        <time>2021-08-10T09:58:36Z</time>
      </trkpt>
      <trkpt lat="44.45628" lon="3.74217">
        <ele>1310.1</ele>
        <time>2021-08-10T09:58:38Z</time>
      </trkpt>
      <trkpt lat="44.45626" lon="3.74212">
        <ele>1310.1</ele>
        <time>2021-08-10T09:58:40Z</time>
      </trkpt>
      <trkpt lat="44.45625" lon="3.74207">
        <ele>1310.2</ele>
        <time>2021-08-10T09:58:42Z</time>
      </trkpt>
      <trkpt lat="44.45624" lon="3.74202">
        <ele>1310.2</ele>
        <time>2021-08-10T09:58:44Z</time>
      </trkpt>
      <trkpt lat="44.45623" lon="3.74197">
        <ele>1310.3</ele>
        <time>2021-08-10T09:58:46Z</time>
      </trkpt>
      <trkpt lat="44.45622" lon="3.74192">
        <ele>1310.3</ele>
        <time>2021-08-10T09:58:48Z</time>
      </trkpt>
      <trkpt lat="44.45621" lon="3.74188">
        <ele>1310.3</ele>
        <time>2021-08-10T09:58:50Z</time>
      </trkpt>
      <trkpt lat="44.4562" lon="3.74183">
        <ele>1310.4</ele>
        <time>2021-08-10T09:58:52Z</time>
      </trkpt>
      <trkpt lat="44.45619" lon="3.74178">
        <ele>1310.4</ele>
        <time>2021-08-10T09:58:54Z</time>
      </trkpt>
      <trkpt lat="44.45618" lon="3.74173">
        <ele>1310.5</ele>
        <time>2021-08-10T09:58:56Z</time>
      </trkpt>
      <trkpt lat="44.45617" lon="3.74169">
        <ele>1310.6</ele>
        <time>2021-08-10T09:58:58Z</time>
      </trkpt>
      <trkpt lat="44.45616" lon="3.74164">
        <ele>1310.7</ele>
        <time>2021-08-10T09:59:00Z</time>
      </trkpt>
      <trkpt lat="44.45615" lon="3.7416">
        <ele>1310.8</ele>
        <time>2021-08-10T09:59:02Z</time>
      </trkpt>
      <trkpt lat="44.45614" lon="3.74155">
        <ele>1310.9</ele>
        <time>2021-08-10T09:59:04Z</time>
      </trkpt>
      <trkpt lat="44.45613" lon="3.7415">
        <ele>1311</ele>
        <time>2021-08-10T09:59:06Z</time>
      </trkpt>
      <trkpt lat="44.45612" lon="3.74145">
        <ele>1311.1</ele>
        <time>2021-08-10T09:59:08Z</time>
      </trkpt>
      <trkpt lat="44.4561" lon="3.7414">
        <ele>1311.3</ele>
        <time>2021-08-10T09:59:10Z</time>
      </trkpt>
      <trkpt lat="44.45609" lon="3.74135">
        <ele>1311.5</ele>
        <time>2021-08-10T09:59:12Z</time>
      </trkpt>
      <trkpt lat="44.45608" lon="3.7413">
        <ele>1311.6</ele>
        <time>2021-08-10T09:59:14Z</time>
      </trkpt>
      <trkpt lat="44.45607" lon="3.74125">
        <ele>1311.8</ele>
        <time>2021-08-10T09:59:16Z</time>
      </trkpt>
      <trkpt lat="44.45605" lon="3.7412">
        <ele>1312</ele>
        <time>2021-08-10T09:59:18Z</time>
      </trkpt>
      <trkpt lat="44.45604" lon="3.74114">
        <ele>1312.3</ele>
        <time>2021-08-10T09:59:20Z</time>
      </trkpt>
      <trkpt lat="44.45602" lon="3.74109">
        <ele>1312.5</ele>
        <time>2021-08-10T09:59:22Z</time>
      </trkpt>
      <trkpt lat="44.45601" lon="3.74104">
        <ele>1312.8</ele>
        <time>2021-08-10T09:59:24Z</time>
      </trkpt>
      <trkpt lat="44.456" lon="3.74098">
        <ele>1313</ele>
        <time>2021-08-10T09:59:26Z</time>
      </trkpt>
      <trkpt lat="44.45599" lon="3.74093">
        <ele>1313.2</ele>
        <time>2021-08-10T09:59:28Z</time>
      </trkpt>
      <trkpt lat="44.45598" lon="3.74088">
        <ele>1313.4</ele>
        <time>2021-08-10T09:59:30Z</time>
      </trkpt>
      <trkpt lat="44.45596" lon="3.74083">
        <ele>1313.7</ele>
        <time>2021-08-10T09:59:32Z</time>
      </trkpt>
      <trkpt lat="44.45595" lon="3.74077">
        <ele>1313.4</ele>
        <time>2021-08-10T09:59:34Z</time>
      </trkpt>
      <trkpt lat="44.45593" lon="3.74072">
        <ele>1313.3</ele>
        <time>2021-08-10T09:59:36Z</time>
      </trkpt>
      <trkpt lat="44.45592" lon="3.74067">
        <ele>1312.9</ele>
        <time>2021-08-10T09:59:38Z</time>
      </trkpt>
      <trkpt lat="44.45591" lon="3.74061">
        <ele>1312.6</ele>
        <time>2021-08-10T09:59:40Z</time>
      </trkpt>
      <trkpt lat="44.45589" lon="3.74056">
        <ele>1312.3</ele>
        <time>2021-08-10T09:59:42Z</time>
      </trkpt>
      <trkpt lat="44.45588" lon="3.74051">
        <ele>1312.1</ele>
        <time>2021-08-10T09:59:44Z</time>
      </trkpt>
      <trkpt lat="44.45586" lon="3.74046">
        <ele>1311.8</ele>
        <time>2021-08-10T09:59:46Z</time>
      </trkpt>
      <trkpt lat="44.45585" lon="3.74041">
        <ele>1311.6</ele>
        <time>2021-08-10T09:59:48Z</time>
      </trkpt>
      <trkpt lat="44.45583" lon="3.74036">
        <ele>1311.3</ele>
        <time>2021-08-10T09:59:50Z</time>
      </trkpt>
      <trkpt lat="44.45582" lon="3.7403">
        <ele>1311.2</ele>
        <time>2021-08-10T09:59:52Z</time>
      </trkpt>
      <trkpt lat="44.4558" lon="3.74026">
        <ele>1311.2</ele>
        <time>2021-08-10T09:59:54Z</time>
      </trkpt>
      <trkpt lat="44.45578" lon="3.7402">
        <ele>1311.1</ele>
        <time>2021-08-10T09:59:56Z</time>
      </trkpt>
      <trkpt lat="44.45577" lon="3.74015">
        <ele>1311</ele>
        <time>2021-08-10T09:59:58Z</time>
      </trkpt>
      <trkpt lat="44.45575" lon="3.74011">
        <ele>1311</ele>
        <time>2021-08-10T10:00:00Z</time>
      </trkpt>
      <trkpt lat="44.45573" lon="3.74005">
        <ele>1311</ele>
        <time>2021-08-10T10:00:02Z</time>
      </trkpt>
      <trkpt lat="44.45571" lon="3.74">
        <ele>1310.9</ele>
        <time>2021-08-10T10:00:04Z</time>
      </trkpt>
      <trkpt lat="44.45569" lon="3.73995">
        <ele>1311.2</ele>
        <time>2021-08-10T10:00:06Z</time>
      </trkpt>
      <trkpt lat="44.45568" lon="3.7399">
        <ele>1311.2</ele>
        <time>2021-08-10T10:00:08Z</time>
      </trkpt>
      <trkpt lat="44.45565" lon="3.73985">
        <ele>1311.5</ele>
        <time>2021-08-10T10:00:10Z</time>
      </trkpt>
      <trkpt lat="44.45563" lon="3.7398">
        <ele>1311.6</ele>
        <time>2021-08-10T10:00:12Z</time>
      </trkpt>
      <trkpt lat="44.45561" lon="3.73975">
        <ele>1311.8</ele>
        <time>2021-08-10T10:00:14Z</time>
      </trkpt>
      <trkpt lat="44.45559" lon="3.7397">
        <ele>1312</ele>
        <time>2021-08-10T10:00:16Z</time>
      </trkpt>
      <trkpt lat="44.45557" lon="3.73965">
        <ele>1312.3</ele>
        <time>2021-08-10T10:00:18Z</time>
      </trkpt>
      <trkpt lat="44.45555" lon="3.7396">
        <ele>1312.5</ele>
        <time>2021-08-10T10:00:20Z</time>
      </trkpt>
      <trkpt lat="44.45553" lon="3.73955">
        <ele>1312.6</ele>
        <time>2021-08-10T10:00:22Z</time>
      </trkpt>
      <trkpt lat="44.4555" lon="3.73951">
        <ele>1312.9</ele>
        <time>2021-08-10T10:00:24Z</time>
      </trkpt>
      <trkpt lat="44.45548" lon="3.73946">
        <ele>1313.1</ele>
        <time>2021-08-10T10:00:26Z</time>
      </trkpt>
      <trkpt lat="44.45546" lon="3.73941">
        <ele>1313.3</ele>
        <time>2021-08-10T10:00:28Z</time>
      </trkpt>
      <trkpt lat="44.45543" lon="3.73937">
        <ele>1313.6</ele>
        <time>2021-08-10T10:00:30Z</time>
      </trkpt>
      <trkpt lat="44.45541" lon="3.73931">
        <ele>1313.6</ele>
        <time>2021-08-10T10:00:32Z</time>
      </trkpt>
      <trkpt lat="44.45539" lon="3.73926">
        <ele>1313.8</ele>
        <time>2021-08-10T10:00:34Z</time>
      </trkpt>
      <trkpt lat="44.45537" lon="3.73922">
        <ele>1313.9</ele>
        <time>2021-08-10T10:00:36Z</time>
      </trkpt>
      <trkpt lat="44.45535" lon="3.73918">
        <ele>1314.1</ele>
        <time>2021-08-10T10:00:38Z</time>
      </trkpt>
      <trkpt lat="44.45533" lon="3.73914">
        <ele>1314.3</ele>
        <time>2021-08-10T10:00:40Z</time>
      </trkpt>
      <trkpt lat="44.45531" lon="3.73909">
        <ele>1314.4</ele>
        <time>2021-08-10T10:00:42Z</time>
      </trkpt>
      <trkpt lat="44.45529" lon="3.73905">
        <ele>1314.6</ele>
        <time>2021-08-10T10:00:44Z</time>
      </trkpt>
      <trkpt lat="44.45527" lon="3.73901">
        <ele>1314.7</ele>
        <time>2021-08-10T10:00:46Z</time>
      </trkpt>
      <trkpt lat="44.45525" lon="3.73897">
        <ele>1314.9</ele>
        <time>2021-08-10T10:00:48Z</time>
      </trkpt>
      <trkpt lat="44.45523" lon="3.73893">
        <ele>1315</ele>
        <time>2021-08-10T10:00:50Z</time>
      </trkpt>
      <trkpt lat="44.45521" lon="3.73889">
        <ele>1315.1</ele>
        <time>2021-08-10T10:00:52Z</time>
      </trkpt>
      <trkpt lat="44.45519" lon="3.73884">
        <ele>1315.3</ele>
        <time>2021-08-10T10:00:54Z</time>
      </trkpt>
      <trkpt lat="44.45517" lon="3.7388">
        <ele>1315.3</ele>
        <time>2021-08-10T10:00:56Z</time>
      </trkpt>
      <trkpt lat="44.45515" lon="3.73875">
        <ele>1315.4</ele>
        <time>2021-08-10T10:00:58Z</time>
      </trkpt>
      <trkpt lat="44.45513" lon="3.73871">
        <ele>1315.5</ele>
        <time>2021-08-10T10:01:00Z</time>
      </trkpt>
      <trkpt lat="44.45511" lon="3.73866">
        <ele>1315.7</ele>
        <time>2021-08-10T10:01:02Z</time>
      </trkpt>
      <trkpt lat="44.45509" lon="3.73862">
        <ele>1315.7</ele>
        <time>2021-08-10T10:01:04Z</time>
      </trkpt>
      <trkpt lat="44.45507" lon="3.73858">
        <ele>1315.8</ele>
        <time>2021-08-10T10:01:06Z</time>
      </trkpt>
      <trkpt lat="44.45505" lon="3.73854">
        <ele>1316</ele>
        <time>2021-08-10T10:01:08Z</time>
      </trkpt>
      <trkpt lat="44.45502" lon="3.73851">
        <ele>1316.4</ele>
        <time>2021-08-10T10:01:10Z</time>
      </trkpt>
      <trkpt lat="44.45499" lon="3.73848">
        <ele>1316.6</ele>
        <time>2021-08-10T10:01:12Z</time>
      </trkpt>
      <trkpt lat="44.45496" lon="3.73845">
        <ele>1316.3</ele>
        <time>2021-08-10T10:01:14Z</time>
      </trkpt>
      <trkpt lat="44.45492" lon="3.73843">
        <ele>1316.1</ele>
        <time>2021-08-10T10:01:16Z</time>
      </trkpt>
      <trkpt lat="44.45489" lon="3.73842">
        <ele>1316</ele>
        <time>2021-08-10T10:01:18Z</time>
      </trkpt>
      <trkpt lat="44.45485" lon="3.73841">
        <ele>1316</ele>
        <time>2021-08-10T10:01:20Z</time>
      </trkpt>
      <trkpt lat="44.45482" lon="3.7384">
        <ele>1315.9</ele>
        <time>2021-08-10T10:01:22Z</time>
      </trkpt>
      <trkpt lat="44.45478" lon="3.73841">
        <ele>1316</ele>
        <time>2021-08-10T10:01:24Z</time>
      </trkpt>
      <trkpt lat="44.45475" lon="3.73841">
        <ele>1316.2</ele>
        <time>2021-08-10T10:01:26Z</time>
      </trkpt>
      <trkpt lat="44.45472" lon="3.73843">
        <ele>1316.4</ele>
        <time>2021-08-10T10:01:28Z</time>
      </trkpt>
      <trkpt lat="44.45468" lon="3.73844">
        <ele>1316.7</ele>
        <time>2021-08-10T10:01:30Z</time>
      </trkpt>
      <trkpt lat="44.45465" lon="3.73846">
        <ele>1316.9</ele>
        <time>2021-08-10T10:01:32Z</time>
      </trkpt>
      <trkpt lat="44.45461" lon="3.73847">
        <ele>1317.2</ele>
        <time>2021-08-10T10:01:34Z</time>
      </trkpt>
      <trkpt lat="44.45458" lon="3.73848">
        <ele>1317.5</ele>
        <time>2021-08-10T10:01:36Z</time>
      </trkpt>
      <trkpt lat="44.45455" lon="3.7385">
        <ele>1317.9</ele>
        <time>2021-08-10T10:01:38Z</time>
      </trkpt>
      <trkpt lat="44.45452" lon="3.73852">
        <ele>1318.4</ele>
        <time>2021-08-10T10:01:40Z</time>
      </trkpt>
      <trkpt lat="44.45448" lon="3.73854">
        <ele>1318.8</ele>
        <time>2021-08-10T10:01:42Z</time>
      </trkpt>
      <trkpt lat="44.45445" lon="3.73856">
        <ele>1319.3</ele>
        <time>2021-08-10T10:01:44Z</time>
      </trkpt>
      <trkpt lat="44.45442" lon="3.73859">
        <ele>1319.9</ele>
        <time>2021-08-10T10:01:46Z</time>
      </trkpt>
      <trkpt lat="44.45439" lon="3.73861">
        <ele>1320.5</ele>
        <time>2021-08-10T10:01:48Z</time>
      </trkpt>
      <trkpt lat="44.45436" lon="3.73864">
        <ele>1321.1</ele>
        <time>2021-08-10T10:01:50Z</time>
      </trkpt>
      <trkpt lat="44.45433" lon="3.73866">
        <ele>1321.7</ele>
        <time>2021-08-10T10:01:52Z</time>
      </trkpt>
      <trkpt lat="44.4543" lon="3.73868">
        <ele>1322.3</ele>
        <time>2021-08-10T10:01:54Z</time>
      </trkpt>
      <trkpt lat="44.45427" lon="3.73871">
        <ele>1323.1</ele>
        <time>2021-08-10T10:01:56Z</time>
      </trkpt>
      <trkpt lat="44.45424" lon="3.73874">
        <ele>1323.8</ele>
        <time>2021-08-10T10:01:58Z</time>
      </trkpt>
      <trkpt lat="44.45421" lon="3.73876">
        <ele>1324.5</ele>
        <time>2021-08-10T10:02:00Z</time>
      </trkpt>
      <trkpt lat="44.45418" lon="3.73879">
        <ele>1325.4</ele>
        <time>2021-08-10T10:02:02Z</time>
      </trkpt>
      <trkpt lat="44.45416" lon="3.73882">
        <ele>1326.1</ele>
        <time>2021-08-10T10:02:04Z</time>
      </trkpt>
      <trkpt lat="44.45413" lon="3.73885">
        <ele>1326.5</ele>
        <time>2021-08-10T10:02:06Z</time>
      </trkpt>
      <trkpt lat="44.4541" lon="3.73887">
        <ele>1327.1</ele>
        <time>2021-08-10T10:02:08Z</time>
      </trkpt>
      <trkpt lat="44.45407" lon="3.7389">
        <ele>1327.6</ele>
        <time>2021-08-10T10:02:10Z</time>
      </trkpt>
      <trkpt lat="44.45403" lon="3.73892">
        <ele>1328.1</ele>
        <time>2021-08-10T10:02:12Z</time>
      </trkpt>
      <trkpt lat="44.454" lon="3.73894">
        <ele>1328.6</ele>
        <time>2021-08-10T10:02:14Z</time>
      </trkpt>
      <trkpt lat="44.45398" lon="3.73897">
        <ele>1329</ele>
        <time>2021-08-10T10:02:16Z</time>
      </trkpt>
      <trkpt lat="44.45395" lon="3.73898">
        <ele>1329.3</ele>
        <time>2021-08-10T10:02:18Z</time>
      </trkpt>
      <trkpt lat="44.45391" lon="3.739">
        <ele>1329.7</ele>
        <time>2021-08-10T10:02:20Z</time>
      </trkpt>
      <trkpt lat="44.45388" lon="3.73901">
        <ele>1330</ele>
        <time>2021-08-10T10:02:22Z</time>
      </trkpt>
      <trkpt lat="44.45385" lon="3.73903">
        <ele>1330.5</ele>
        <time>2021-08-10T10:02:24Z</time>
      </trkpt>
      <trkpt lat="44.45382" lon="3.73905">
        <ele>1330.9</ele>
        <time>2021-08-10T10:02:26Z</time>
      </trkpt>
      <trkpt lat="44.45379" lon="3.73907">
        <ele>1331.3</ele>
        <time>2021-08-10T10:02:28Z</time>
      </trkpt>
      <trkpt lat="44.45376" lon="3.73908">
        <ele>1331.5</ele>
        <time>2021-08-10T10:02:30Z</time>
      </trkpt>
      <trkpt lat="44.45373" lon="3.73909">
        <ele>1331.9</ele>
        <time>2021-08-10T10:02:32Z</time>
      </trkpt>
      <trkpt lat="44.4537" lon="3.7391">
        <ele>1332.2</ele>
        <time>2021-08-10T10:02:34Z</time>
      </trkpt>
      <trkpt lat="44.45367" lon="3.73912">
        <ele>1332.6</ele>
        <time>2021-08-10T10:02:36Z</time>
      </trkpt>
      <trkpt lat="44.45363" lon="3.73913">
        <ele>1333</ele>
        <time>2021-08-10T10:02:38Z</time>
      </trkpt>
      <trkpt lat="44.4536" lon="3.73915">
        <ele>1333.4</ele>
        <time>2021-08-10T10:02:40Z</time>
      </trkpt>
      <trkpt lat="44.45357" lon="3.73916">
        <ele>1333.8</ele>
        <time>2021-08-10T10:02:42Z</time>
      </trkpt>
      <trkpt lat="44.45354" lon="3.73917">
        <ele>1334.2</ele>
        <time>2021-08-10T10:02:44Z</time>
      </trkpt>
      <trkpt lat="44.45351" lon="3.73919">
        <ele>1334.7</ele>
        <time>2021-08-10T10:02:46Z</time>
      </trkpt>
      <trkpt lat="44.45348" lon="3.7392">
        <ele>1335.1</ele>
        <time>2021-08-10T10:02:48Z</time>
      </trkpt>
      <trkpt lat="44.45345" lon="3.73922">
        <ele>1335.7</ele>
        <time>2021-08-10T10:02:50Z</time>
      </trkpt>
      <trkpt lat="44.45342" lon="3.73923">
        <ele>1336.2</ele>
        <time>2021-08-10T10:02:52Z</time>
      </trkpt>
      <trkpt lat="44.45339" lon="3.73924">
        <ele>1336.7</ele>
        <time>2021-08-10T10:02:54Z</time>
      </trkpt>
      <trkpt lat="44.45336" lon="3.73926">
        <ele>1337.1</ele>
        <time>2021-08-10T10:02:56Z</time>
      </trkpt>
      <trkpt lat="44.45333" lon="3.73927">
        <ele>1337.5</ele>
        <time>2021-08-10T10:02:58Z</time>
      </trkpt>
      <trkpt lat="44.45329" lon="3.73929">
        <ele>1337.9</ele>
        <time>2021-08-10T10:03:00Z</time>
      </trkpt>
      <trkpt lat="44.45327" lon="3.7393">
        <ele>1338</ele>
        <time>2021-08-10T10:03:02Z</time>
      </trkpt>
      <trkpt lat="44.45323" lon="3.73932">
        <ele>1338.1</ele>
        <time>2021-08-10T10:03:04Z</time>
      </trkpt>
      <trkpt lat="44.4532" lon="3.73933">
        <ele>1338.3</ele>
        <time>2021-08-10T10:03:06Z</time>
      </trkpt>
      <trkpt lat="44.45318" lon="3.73935">
        <ele>1338.6</ele>
        <time>2021-08-10T10:03:08Z</time>
      </trkpt>
      <trkpt lat="44.45315" lon="3.73936">
        <ele>1338.8</ele>
        <time>2021-08-10T10:03:10Z</time>
      </trkpt>
      <trkpt lat="44.45312" lon="3.73938">
        <ele>1339</ele>
        <time>2021-08-10T10:03:12Z</time>
      </trkpt>
      <trkpt lat="44.45309" lon="3.73939">
        <ele>1339.1</ele>
        <time>2021-08-10T10:03:14Z</time>
      </trkpt>
      <trkpt lat="44.45306" lon="3.73941">
        <ele>1339.3</ele>
        <time>2021-08-10T10:03:16Z</time>
      </trkpt>
      <trkpt lat="44.45302" lon="3.73942">
        <ele>1339.6</ele>
        <time>2021-08-10T10:03:18Z</time>
      </trkpt>
      <trkpt lat="44.453" lon="3.73944">
        <ele>1340</ele>
        <time>2021-08-10T10:03:20Z</time>
      </trkpt>
      <trkpt lat="44.45297" lon="3.73946">
        <ele>1340.2</ele>
        <time>2021-08-10T10:03:22Z</time>
      </trkpt>
      <trkpt lat="44.45293" lon="3.73948">
        <ele>1340.5</ele>
        <time>2021-08-10T10:03:24Z</time>
      </trkpt>
      <trkpt lat="44.45291" lon="3.73949">
        <ele>1340.8</ele>
        <time>2021-08-10T10:03:26Z</time>
      </trkpt>
      <trkpt lat="44.45288" lon="3.73952">
        <ele>1341.6</ele>
        <time>2021-08-10T10:03:28Z</time>
      </trkpt>
      <trkpt lat="44.45285" lon="3.73954">
        <ele>1342</ele>
        <time>2021-08-10T10:03:30Z</time>
      </trkpt>
      <trkpt lat="44.45282" lon="3.73956">
        <ele>1342.6</ele>
        <time>2021-08-10T10:03:32Z</time>
      </trkpt>
      <trkpt lat="44.45279" lon="3.73959">
        <ele>1343.1</ele>
        <time>2021-08-10T10:03:34Z</time>
      </trkpt>
      <trkpt lat="44.45276" lon="3.73961">
        <ele>1343.6</ele>
        <time>2021-08-10T10:03:36Z</time>
      </trkpt>
      <trkpt lat="44.45273" lon="3.73963">
        <ele>1344.1</ele>
        <time>2021-08-10T10:03:38Z</time>
      </trkpt>
      <trkpt lat="44.4527" lon="3.73965">
        <ele>1344.7</ele>
        <time>2021-08-10T10:03:40Z</time>
      </trkpt>
      <trkpt lat="44.45268" lon="3.73968">
        <ele>1345.4</ele>
        <time>2021-08-10T10:03:42Z</time>
      </trkpt>
      <trkpt lat="44.45264" lon="3.7397">
        <ele>1345.8</ele>
        <time>2021-08-10T10:03:44Z</time>
      </trkpt>
      <trkpt lat="44.45262" lon="3.73972">
        <ele>1346.5</ele>
        <time>2021-08-10T10:03:46Z</time>
      </trkpt>
      <trkpt lat="44.45259" lon="3.73975">
        <ele>1347.2</ele>
        <time>2021-08-10T10:03:48Z</time>
      </trkpt>
      <trkpt lat="44.45256" lon="3.73977">
        <ele>1347.8</ele>
        <time>2021-08-10T10:03:50Z</time>
      </trkpt>
      <trkpt lat="44.45253" lon="3.7398">
        <ele>1348.5</ele>
        <time>2021-08-10T10:03:52Z</time>
      </trkpt>
      <trkpt lat="44.4525" lon="3.73982">
        <ele>1349.2</ele>
        <time>2021-08-10T10:03:54Z</time>
      </trkpt>
      <trkpt lat="44.45247" lon="3.73984">
        <ele>1349.3</ele>
        <time>2021-08-10T10:03:56Z</time>
      </trkpt>
      <trkpt lat="44.45245" lon="3.73987">
        <ele>1349.7</ele>
        <time>2021-08-10T10:03:58Z</time>
      </trkpt>
      <trkpt lat="44.45243" lon="3.7399">
        <ele>1350.1</ele>
        <time>2021-08-10T10:04:00Z</time>
      </trkpt>
      <trkpt lat="44.4524" lon="3.73992">
        <ele>1350</ele>
        <time>2021-08-10T10:04:02Z</time>
      </trkpt>
      <trkpt lat="44.45237" lon="3.73995">
        <ele>1350.3</ele>
        <time>2021-08-10T10:04:04Z</time>
      </trkpt>
      <trkpt lat="44.45234" lon="3.73997">
        <ele>1350.2</ele>
        <time>2021-08-10T10:04:06Z</time>
      </trkpt>
      <trkpt lat="44.45231" lon="3.74">
        <ele>1350.4</ele>
        <time>2021-08-10T10:04:08Z</time>
      </trkpt>
      <trkpt lat="44.45229" lon="3.74002">
        <ele>1350.4</ele>
        <time>2021-08-10T10:04:10Z</time>
      </trkpt>
      <trkpt lat="44.45226" lon="3.74005">
        <ele>1350.4</ele>
        <time>2021-08-10T10:04:12Z</time>
      </trkpt>
      <trkpt lat="44.45223" lon="3.74007">
        <ele>1350.2</ele>
        <time>2021-08-10T10:04:14Z</time>
      </trkpt>
      <trkpt lat="44.45221" lon="3.7401">
        <ele>1350.4</ele>
        <time>2021-08-10T10:04:16Z</time>
      </trkpt>
      <trkpt lat="44.45219" lon="3.74013">
        <ele>1350.8</ele>
        <time>2021-08-10T10:04:18Z</time>
      </trkpt>
      <trkpt lat="44.45216" lon="3.74016">
        <ele>1350.8</ele>
        <time>2021-08-10T10:04:20Z</time>
      </trkpt>
      <trkpt lat="44.45213" lon="3.74019">
        <ele>1350.8</ele>
        <time>2021-08-10T10:04:22Z</time>
      </trkpt>
      <trkpt lat="44.45211" lon="3.74022">
        <ele>1351.1</ele>
        <time>2021-08-10T10:04:24Z</time>
      </trkpt>
      <trkpt lat="44.45208" lon="3.74025">
        <ele>1351.2</ele>
        <time>2021-08-10T10:04:26Z</time>
      </trkpt>
      <trkpt lat="44.45206" lon="3.74028">
        <ele>1351.4</ele>
        <time>2021-08-10T10:04:28Z</time>
      </trkpt>
      <trkpt lat="44.45204" lon="3.74031">
        <ele>1352</ele>
        <time>2021-08-10T10:04:30Z</time>
      </trkpt>
      <trkpt lat="44.45202" lon="3.74034">
        <ele>1352.1</ele>
        <time>2021-08-10T10:04:32Z</time>
      </trkpt>
      <trkpt lat="44.452" lon="3.74037">
        <ele>1352.4</ele>
        <time>2021-08-10T10:04:34Z</time>
      </trkpt>
      <trkpt lat="44.45197" lon="3.7404">
        <ele>1352.7</ele>
        <time>2021-08-10T10:04:36Z</time>
      </trkpt>
      <trkpt lat="44.45196" lon="3.74044">
        <ele>1353.6</ele>
        <time>2021-08-10T10:04:38Z</time>
      </trkpt>
      <trkpt lat="44.45194" lon="3.74047">
        <ele>1353.9</ele>
        <time>2021-08-10T10:04:40Z</time>
      </trkpt>
      <trkpt lat="44.45192" lon="3.74051">
        <ele>1354.4</ele>
        <time>2021-08-10T10:04:42Z</time>
      </trkpt>
      <trkpt lat="44.4519" lon="3.74054">
        <ele>1354.9</ele>
        <time>2021-08-10T10:04:44Z</time>
      </trkpt>
      <trkpt lat="44.45187" lon="3.74058">
        <ele>1355.3</ele>
        <time>2021-08-10T10:04:46Z</time>
      </trkpt>
      <trkpt lat="44.45185" lon="3.74061">
        <ele>1355.4</ele>
        <time>2021-08-10T10:04:48Z</time>
      </trkpt>
      <trkpt lat="44.45183" lon="3.74065">
        <ele>1356.1</ele>
        <time>2021-08-10T10:04:50Z</time>
      </trkpt>
      <trkpt lat="44.45181" lon="3.74068">
        <ele>1356.3</ele>
        <time>2021-08-10T10:04:52Z</time>
      </trkpt>
      <trkpt lat="44.45178" lon="3.74071">
        <ele>1356.7</ele>
        <time>2021-08-10T10:04:54Z</time>
      </trkpt>
      <trkpt lat="44.45175" lon="3.74074">
        <ele>1356.8</ele>
        <time>2021-08-10T10:04:56Z</time>
      </trkpt>
      <trkpt lat="44.45173" lon="3.74078">
        <ele>1357.1</ele>
        <time>2021-08-10T10:04:58Z</time>
      </trkpt>
      <trkpt lat="44.4517" lon="3.74081">
        <ele>1357.2</ele>
        <time>2021-08-10T10:05:00Z</time>
      </trkpt>
      <trkpt lat="44.45167" lon="3.74085">
        <ele>1357.4</ele>
        <time>2021-08-10T10:05:02Z</time>
      </trkpt>
      <trkpt lat="44.45165" lon="3.74088">
        <ele>1357.7</ele>
        <time>2021-08-10T10:05:04Z</time>
      </trkpt>
      <trkpt lat="44.45162" lon="3.74092">
        <ele>1357.9</ele>
        <time>2021-08-10T10:05:06Z</time>
      </trkpt>
      <trkpt lat="44.4516" lon="3.74096">
        <ele>1358.3</ele>
        <time>2021-08-10T10:05:08Z</time>
      </trkpt>
      <trkpt lat="44.45157" lon="3.74099">
        <ele>1358.3</ele>
        <time>2021-08-10T10:05:10Z</time>
      </trkpt>
      <trkpt lat="44.45155" lon="3.74102">
        <ele>1358.5</ele>
        <time>2021-08-10T10:05:12Z</time>
      </trkpt>
      <trkpt lat="44.45153" lon="3.74107">
        <ele>1358.9</ele>
        <time>2021-08-10T10:05:14Z</time>
      </trkpt>
      <trkpt lat="44.4515" lon="3.7411">
        <ele>1359.1</ele>
        <time>2021-08-10T10:05:16Z</time>
      </trkpt>
      <trkpt lat="44.45148" lon="3.74114">
        <ele>1359.4</ele>
        <time>2021-08-10T10:05:18Z</time>
      </trkpt>
      <trkpt lat="44.45145" lon="3.74117">
        <ele>1359.5</ele>
        <time>2021-08-10T10:05:20Z</time>
      </trkpt>
      <trkpt lat="44.45143" lon="3.74121">
        <ele>1359.7</ele>
        <time>2021-08-10T10:05:22Z</time>
      </trkpt>
      <trkpt lat="44.4514" lon="3.74125">
        <ele>1359.8</ele>
        <time>2021-08-10T10:05:24Z</time>
      </trkpt>
      <trkpt lat="44.45138" lon="3.74128">
        <ele>1359.9</ele>
        <time>2021-08-10T10:05:26Z</time>
      </trkpt>
      <trkpt lat="44.45135" lon="3.74131">
        <ele>1359.8</ele>
        <time>2021-08-10T10:05:28Z</time>
      </trkpt>
      <trkpt lat="44.45132" lon="3.74135">
        <ele>1360</ele>
        <time>2021-08-10T10:05:30Z</time>
      </trkpt>
      <trkpt lat="44.45129" lon="3.74138">
        <ele>1359.9</ele>
        <time>2021-08-10T10:05:32Z</time>
      </trkpt>
      <trkpt lat="44.45127" lon="3.74142">
        <ele>1359.9</ele>
        <time>2021-08-10T10:05:34Z</time>
      </trkpt>
      <trkpt lat="44.45124" lon="3.74145">
        <ele>1359.9</ele>
        <time>2021-08-10T10:05:36Z</time>
      </trkpt>
      <trkpt lat="44.45121" lon="3.74148">
        <ele>1359.5</ele>
        <time>2021-08-10T10:05:38Z</time>
      </trkpt>
      <trkpt lat="44.45118" lon="3.74151">
        <ele>1359.4</ele>
        <time>2021-08-10T10:05:40Z</time>
      </trkpt>
      <trkpt lat="44.45115" lon="3.74154">
        <ele>1359.3</ele>
        <time>2021-08-10T10:05:42Z</time>
      </trkpt>
      <trkpt lat="44.45112" lon="3.74157">
        <ele>1359.2</ele>
        <time>2021-08-10T10:05:44Z</time>
      </trkpt>
      <trkpt lat="44.4511" lon="3.7416">
        <ele>1358.9</ele>
        <time>2021-08-10T10:05:46Z</time>
      </trkpt>
      <trkpt lat="44.45107" lon="3.74163">
        <ele>1358.7</ele>
        <time>2021-08-10T10:05:48Z</time>
      </trkpt>
      <trkpt lat="44.45104" lon="3.74166">
        <ele>1358.5</ele>
        <time>2021-08-10T10:05:50Z</time>
      </trkpt>
      <trkpt lat="44.45101" lon="3.74169">
        <ele>1358.3</ele>
        <time>2021-08-10T10:05:52Z</time>
      </trkpt>
      <trkpt lat="44.45099" lon="3.74173">
        <ele>1358.1</ele>
        <time>2021-08-10T10:05:54Z</time>
      </trkpt>
      <trkpt lat="44.45097" lon="3.74177">
        <ele>1358</ele>
        <time>2021-08-10T10:05:56Z</time>
      </trkpt>
      <trkpt lat="44.45095" lon="3.74181">
        <ele>1358.1</ele>
        <time>2021-08-10T10:05:58Z</time>
      </trkpt>
      <trkpt lat="44.45094" lon="3.74185">
        <ele>1358.3</ele>
        <time>2021-08-10T10:06:00Z</time>
      </trkpt>
      <trkpt lat="44.45093" lon="3.7419">
        <ele>1358.7</ele>
        <time>2021-08-10T10:06:02Z</time>
      </trkpt>
      <trkpt lat="44.45092" lon="3.74194">
        <ele>1359.4</ele>
        <time>2021-08-10T10:06:04Z</time>
      </trkpt>
      <trkpt lat="44.45091" lon="3.74199">
        <ele>1359.9</ele>
        <time>2021-08-10T10:06:06Z</time>
      </trkpt>
      <trkpt lat="44.45091" lon="3.74204">
        <ele>1360.7</ele>
        <time>2021-08-10T10:06:08Z</time>
      </trkpt>
      <trkpt lat="44.45091" lon="3.74209">
        <ele>1361.4</ele>
        <time>2021-08-10T10:06:10Z</time>
      </trkpt>
      <trkpt lat="44.45091" lon="3.74214">
        <ele>1362.3</ele>
        <time>2021-08-10T10:06:12Z</time>
      </trkpt>
      <trkpt lat="44.45092" lon="3.74218">
        <ele>1363.2</ele>
        <time>2021-08-10T10:06:14Z</time>
      </trkpt>
      <trkpt lat="44.45092" lon="3.74223">
        <ele>1364</ele>
        <time>2021-08-10T10:06:16Z</time>
      </trkpt>
      <trkpt lat="44.45092" lon="3.74228">
        <ele>1364.9</ele>
        <time>2021-08-10T10:06:18Z</time>
      </trkpt>
      <trkpt lat="44.45093" lon="3.74232">
        <ele>1365.8</ele>
        <time>2021-08-10T10:06:20Z</time>
      </trkpt>
      <trkpt lat="44.45093" lon="3.74237">
        <ele>1366.6</ele>
        <time>2021-08-10T10:06:22Z</time>
      </trkpt>
      <trkpt lat="44.45093" lon="3.74242">
        <ele>1367.5</ele>
        <time>2021-08-10T10:06:24Z</time>
      </trkpt>
      <trkpt lat="44.45094" lon="3.74246">
        <ele>1368.5</ele>
        <time>2021-08-10T10:06:26Z</time>
      </trkpt>
      <trkpt lat="44.45094" lon="3.74251">
        <ele>1369.3</ele>
        <time>2021-08-10T10:06:28Z</time>
      </trkpt>
      <trkpt lat="44.45095" lon="3.74256">
        <ele>1369.9</ele>
        <time>2021-08-10T10:06:30Z</time>
      </trkpt>
      <trkpt lat="44.45095" lon="3.7426">
        <ele>1370.6</ele>
        <time>2021-08-10T10:06:32Z</time>
      </trkpt>
      <trkpt lat="44.45096" lon="3.74265">
        <ele>1371.3</ele>
        <time>2021-08-10T10:06:34Z</time>
      </trkpt>
      <trkpt lat="44.45096" lon="3.7427">
        <ele>1371.9</ele>
        <time>2021-08-10T10:06:36Z</time>
      </trkpt>
      <trkpt lat="44.45097" lon="3.74274">
        <ele>1372.6</ele>
        <time>2021-08-10T10:06:38Z</time>
      </trkpt>
      <trkpt lat="44.45098" lon="3.74279">
        <ele>1373.3</ele>
        <time>2021-08-10T10:06:40Z</time>
      </trkpt>
      <trkpt lat="44.45099" lon="3.74283">
        <ele>1374</ele>
        <time>2021-08-10T10:06:42Z</time>
      </trkpt>
      <trkpt lat="44.45099" lon="3.74288">
        <ele>1374.6</ele>
        <time>2021-08-10T10:06:44Z</time>
      </trkpt>
      <trkpt lat="44.451" lon="3.74292">
        <ele>1375.3</ele>
        <time>2021-08-10T10:06:46Z</time>
      </trkpt>
      <trkpt lat="44.45101" lon="3.74297">
        <ele>1376</ele>
        <time>2021-08-10T10:06:48Z</time>
      </trkpt>
      <trkpt lat="44.45103" lon="3.74301">
        <ele>1376.7</ele>
        <time>2021-08-10T10:06:50Z</time>
      </trkpt>
      <trkpt lat="44.45104" lon="3.74305">
        <ele>1377.4</ele>
        <time>2021-08-10T10:06:52Z</time>
      </trkpt>
      <trkpt lat="44.45105" lon="3.74309">
        <ele>1378.1</ele>
        <time>2021-08-10T10:06:54Z</time>
      </trkpt>
      <trkpt lat="44.45105" lon="3.74314">
        <ele>1378.5</ele>
        <time>2021-08-10T10:06:56Z</time>
      </trkpt>
      <trkpt lat="44.45108" lon="3.74319">
        <ele>1379.4</ele>
        <time>2021-08-10T10:06:58Z</time>
      </trkpt>
      <trkpt lat="44.45109" lon="3.74323">
        <ele>1380.1</ele>
        <time>2021-08-10T10:07:00Z</time>
      </trkpt>
      <trkpt lat="44.45109" lon="3.74328">
        <ele>1380.6</ele>
        <time>2021-08-10T10:07:02Z</time>
      </trkpt>
      <trkpt lat="44.4511" lon="3.74333">
        <ele>1381.1</ele>
        <time>2021-08-10T10:07:04Z</time>
      </trkpt>
      <trkpt lat="44.45111" lon="3.74337">
        <ele>1381.5</ele>
        <time>2021-08-10T10:07:06Z</time>
      </trkpt>
      <trkpt lat="44.45111" lon="3.74341">
        <ele>1382</ele>
        <time>2021-08-10T10:07:08Z</time>
      </trkpt>
      <trkpt lat="44.45113" lon="3.74346">
        <ele>1382.6</ele>
        <time>2021-08-10T10:07:10Z</time>
      </trkpt>
      <trkpt lat="44.45114" lon="3.7435">
        <ele>1383</ele>
        <time>2021-08-10T10:07:12Z</time>
      </trkpt>
      <trkpt lat="44.45115" lon="3.74354">
        <ele>1383.4</ele>
        <time>2021-08-10T10:07:14Z</time>
      </trkpt>
      <trkpt lat="44.45116" lon="3.74359">
        <ele>1383.8</ele>
        <time>2021-08-10T10:07:16Z</time>
      </trkpt>
      <trkpt lat="44.45117" lon="3.74364">
        <ele>1384.2</ele>
        <time>2021-08-10T10:07:18Z</time>
      </trkpt>
      <trkpt lat="44.45117" lon="3.74368">
        <ele>1384.6</ele>
        <time>2021-08-10T10:07:20Z</time>
      </trkpt>
      <trkpt lat="44.45118" lon="3.74373">
        <ele>1385</ele>
        <time>2021-08-10T10:07:22Z</time>
      </trkpt>
      <trkpt lat="44.45119" lon="3.74378">
        <ele>1385.4</ele>
        <time>2021-08-10T10:07:24Z</time>
      </trkpt>
      <trkpt lat="44.4512" lon="3.74382">
        <ele>1385.8</ele>
        <time>2021-08-10T10:07:26Z</time>
      </trkpt>
      <trkpt lat="44.45121" lon="3.74387">
        <ele>1386.1</ele>
        <time>2021-08-10T10:07:28Z</time>
      </trkpt>
      <trkpt lat="44.45122" lon="3.74391">
        <ele>1386.4</ele>
        <time>2021-08-10T10:07:30Z</time>
      </trkpt>
      <trkpt lat="44.45123" lon="3.74396">
        <ele>1386.7</ele>
        <time>2021-08-10T10:07:32Z</time>
      </trkpt>
      <trkpt lat="44.45124" lon="3.744">
        <ele>1387</ele>
        <time>2021-08-10T10:07:34Z</time>
      </trkpt>
      <trkpt lat="44.45124" lon="3.74404">
        <ele>1387.3</ele>
        <time>2021-08-10T10:07:36Z</time>
      </trkpt>
      <trkpt lat="44.45124" lon="3.74409">
        <ele>1387.6</ele>
        <time>2021-08-10T10:07:38Z</time>
      </trkpt>
      <trkpt lat="44.45124" lon="3.74413">
        <ele>1387.8</ele>
        <time>2021-08-10T10:07:40Z</time>
      </trkpt>
      <trkpt lat="44.45124" lon="3.74418">
        <ele>1388.1</ele>
        <time>2021-08-10T10:07:42Z</time>
      </trkpt>
      <trkpt lat="44.45122" lon="3.74422">
        <ele>1388.4</ele>
        <time>2021-08-10T10:07:44Z</time>
      </trkpt>
      <trkpt lat="44.45119" lon="3.74425">
        <ele>1388.8</ele>
        <time>2021-08-10T10:07:46Z</time>
      </trkpt>
      <trkpt lat="44.45115" lon="3.74426">
        <ele>1388.8</ele>
        <time>2021-08-10T10:07:48Z</time>
      </trkpt>
      <trkpt lat="44.45111" lon="3.74425">
        <ele>1388.7</ele>
        <time>2021-08-10T10:07:50Z</time>
      </trkpt>
      <trkpt lat="44.45108" lon="3.74423">
        <ele>1388.4</ele>
        <time>2021-08-10T10:07:52Z</time>
      </trkpt>
      <trkpt lat="44.45106" lon="3.74419">
        <ele>1387.8</ele>
        <time>2021-08-10T10:07:54Z</time>
      </trkpt>
      <trkpt lat="44.45104" lon="3.74415">
        <ele>1387.4</ele>
        <time>2021-08-10T10:07:56Z</time>
      </trkpt>
      <trkpt lat="44.45102" lon="3.74412">
        <ele>1387</ele>
        <time>2021-08-10T10:07:58Z</time>
      </trkpt>
      <trkpt lat="44.451" lon="3.74408">
        <ele>1386.6</ele>
        <time>2021-08-10T10:08:00Z</time>
      </trkpt>
      <trkpt lat="44.45098" lon="3.74405">
        <ele>1386.2</ele>
        <time>2021-08-10T10:08:02Z</time>
      </trkpt>
      <trkpt lat="44.45096" lon="3.74401">
        <ele>1385.8</ele>
        <time>2021-08-10T10:08:04Z</time>
      </trkpt>
      <trkpt lat="44.45094" lon="3.74398">
        <ele>1385.3</ele>
        <time>2021-08-10T10:08:06Z</time>
      </trkpt>
      <trkpt lat="44.45092" lon="3.74396">
        <ele>1385</ele>
        <time>2021-08-10T10:08:08Z</time>
      </trkpt>
      <trkpt lat="44.45089" lon="3.74392">
        <ele>1384.4</ele>
        <time>2021-08-10T10:08:10Z</time>
      </trkpt>
      <trkpt lat="44.45087" lon="3.74389">
        <ele>1383.9</ele>
        <time>2021-08-10T10:08:12Z</time>
      </trkpt>
      <trkpt lat="44.45084" lon="3.74385">
        <ele>1383.3</ele>
        <time>2021-08-10T10:08:14Z</time>
      </trkpt>
      <trkpt lat="44.45081" lon="3.74383">
        <ele>1383.2</ele>
        <time>2021-08-10T10:08:16Z</time>
      </trkpt>
      <trkpt lat="44.45079" lon="3.7438">
        <ele>1383.1</ele>
        <time>2021-08-10T10:08:18Z</time>
      </trkpt>
      <trkpt lat="44.45076" lon="3.74378">
        <ele>1383.2</ele>
        <time>2021-08-10T10:08:20Z</time>
      </trkpt>
      <trkpt lat="44.45074" lon="3.74375">
        <ele>1383.1</ele>
        <time>2021-08-10T10:08:22Z</time>
      </trkpt>
      <trkpt lat="44.45071" lon="3.74373">
        <ele>1383.2</ele>
        <time>2021-08-10T10:08:24Z</time>
      </trkpt>
      <trkpt lat="44.45068" lon="3.74371">
        <ele>1383.3</ele>
        <time>2021-08-10T10:08:26Z</time>
      </trkpt>
      <trkpt lat="44.45065" lon="3.74369">
        <ele>1383.3</ele>
        <time>2021-08-10T10:08:28Z</time>
      </trkpt>
      <trkpt lat="44.45063" lon="3.74368">
        <ele>1383.4</ele>
        <time>2021-08-10T10:08:30Z</time>
      </trkpt>
      <trkpt lat="44.45059" lon="3.74366">
        <ele>1383.4</ele>
        <time>2021-08-10T10:08:32Z</time>
      </trkpt>
      <trkpt lat="44.45057" lon="3.74365">
        <ele>1383.5</ele>
        <time>2021-08-10T10:08:34Z</time>
      </trkpt>
      <trkpt lat="44.45054" lon="3.74362">
        <ele>1383.4</ele>
        <time>2021-08-10T10:08:36Z</time>
      </trkpt>
      <trkpt lat="44.45051" lon="3.7436">
        <ele>1383.5</ele>
        <time>2021-08-10T10:08:38Z</time>
      </trkpt>
      <trkpt lat="44.45048" lon="3.74359">
        <ele>1383.6</ele>
        <time>2021-08-10T10:08:40Z</time>
      </trkpt>
      <trkpt lat="44.45045" lon="3.74358">
        <ele>1383.6</ele>
        <time>2021-08-10T10:08:42Z</time>
      </trkpt>
      <trkpt lat="44.45042" lon="3.74357">
        <ele>1383.7</ele>
        <time>2021-08-10T10:08:44Z</time>
      </trkpt>
      <trkpt lat="44.45039" lon="3.74356">
        <ele>1383.9</ele>
        <time>2021-08-10T10:08:46Z</time>
      </trkpt>
      <trkpt lat="44.45035" lon="3.74355">
        <ele>1384.1</ele>
        <time>2021-08-10T10:08:48Z</time>
      </trkpt>
      <trkpt lat="44.45032" lon="3.74356">
        <ele>1384.6</ele>
        <time>2021-08-10T10:08:50Z</time>
      </trkpt>
      <trkpt lat="44.45029" lon="3.74358">
        <ele>1385.3</ele>
        <time>2021-08-10T10:08:52Z</time>
      </trkpt>
      <trkpt lat="44.45027" lon="3.74363">
        <ele>1386.2</ele>
        <time>2021-08-10T10:08:54Z</time>
      </trkpt>
      <trkpt lat="44.45026" lon="3.74368">
        <ele>1387.2</ele>
        <time>2021-08-10T10:08:56Z</time>
      </trkpt>
      <trkpt lat="44.45026" lon="3.74372">
        <ele>1388.1</ele>
        <time>2021-08-10T10:08:58Z</time>
      </trkpt>
      <trkpt lat="44.45027" lon="3.74376">
        <ele>1388.7</ele>
        <time>2021-08-10T10:09:00Z</time>
      </trkpt>
      <trkpt lat="44.45029" lon="3.7438">
        <ele>1389.1</ele>
        <time>2021-08-10T10:09:02Z</time>
      </trkpt>
      <trkpt lat="44.45031" lon="3.74383">
        <ele>1389.4</ele>
        <time>2021-08-10T10:09:04Z</time>
      </trkpt>
      <trkpt lat="44.45034" lon="3.74386">
        <ele>1389.5</ele>
        <time>2021-08-10T10:09:06Z</time>
      </trkpt>
      <trkpt lat="44.45036" lon="3.74389">
        <ele>1389.7</ele>
        <time>2021-08-10T10:09:08Z</time>
      </trkpt>
      <trkpt lat="44.45039" lon="3.74391">
        <ele>1389.8</ele>
        <time>2021-08-10T10:09:10Z</time>
      </trkpt>
      <trkpt lat="44.45041" lon="3.74394">
        <ele>1389.9</ele>
        <time>2021-08-10T10:09:12Z</time>
      </trkpt>
      <trkpt lat="44.45044" lon="3.74397">
        <ele>1390</ele>
        <time>2021-08-10T10:09:14Z</time>
      </trkpt>
      <trkpt lat="44.45046" lon="3.74399">
        <ele>1390</ele>
        <time>2021-08-10T10:09:16Z</time>
      </trkpt>
      <trkpt lat="44.45048" lon="3.74402">
        <ele>1390.2</ele>
        <time>2021-08-10T10:09:18Z</time>
      </trkpt>
      <trkpt lat="44.45051" lon="3.74405">
        <ele>1390.3</ele>
        <time>2021-08-10T10:09:20Z</time>
      </trkpt>
      <trkpt lat="44.45053" lon="3.74409">
        <ele>1390.5</ele>
        <time>2021-08-10T10:09:22Z</time>
      </trkpt>
      <trkpt lat="44.45055" lon="3.74412">
        <ele>1390.8</ele>
        <time>2021-08-10T10:09:24Z</time>
      </trkpt>
      <trkpt lat="44.45057" lon="3.74416">
        <ele>1391.1</ele>
        <time>2021-08-10T10:09:26Z</time>
      </trkpt>
      <trkpt lat="44.45058" lon="3.7442">
        <ele>1391.4</ele>
        <time>2021-08-10T10:09:28Z</time>
      </trkpt>
      <trkpt lat="44.45061" lon="3.74424">
        <ele>1391.6</ele>
        <time>2021-08-10T10:09:30Z</time>
      </trkpt>
      <trkpt lat="44.45063" lon="3.74428">
        <ele>1391.9</ele>
        <time>2021-08-10T10:09:32Z</time>
      </trkpt>
      <trkpt lat="44.45064" lon="3.74432">
        <ele>1392.4</ele>
        <time>2021-08-10T10:09:34Z</time>
      </trkpt>
      <trkpt lat="44.45066" lon="3.74437">
        <ele>1392.8</ele>
        <time>2021-08-10T10:09:36Z</time>
      </trkpt>
      <trkpt lat="44.45068" lon="3.74441">
        <ele>1393.1</ele>
        <time>2021-08-10T10:09:38Z</time>
      </trkpt>
      <trkpt lat="44.45069" lon="3.74445">
        <ele>1393.6</ele>
        <time>2021-08-10T10:09:40Z</time>
      </trkpt>
      <trkpt lat="44.45071" lon="3.74449">
        <ele>1394</ele>
        <time>2021-08-10T10:09:42Z</time>
      </trkpt>
      <trkpt lat="44.45073" lon="3.74454">
        <ele>1394.5</ele>
        <time>2021-08-10T10:09:44Z</time>
      </trkpt>
      <trkpt lat="44.45074" lon="3.74458">
        <ele>1395</ele>
        <time>2021-08-10T10:09:46Z</time>
      </trkpt>
      <trkpt lat="44.45075" lon="3.74462">
        <ele>1395.4</ele>
        <time>2021-08-10T10:09:48Z</time>
      </trkpt>
      <trkpt lat="44.45077" lon="3.74467">
        <ele>1395.8</ele>
        <time>2021-08-10T10:09:50Z</time>
      </trkpt>
      <trkpt lat="44.45079" lon="3.74471">
        <ele>1396.2</ele>
        <time>2021-08-10T10:09:52Z</time>
      </trkpt>
      <trkpt lat="44.45081" lon="3.74475">
        <ele>1396.6</ele>
        <time>2021-08-10T10:09:54Z</time>
      </trkpt>
      <trkpt lat="44.45082" lon="3.7448">
        <ele>1397.1</ele>
        <time>2021-08-10T10:09:56Z</time>
      </trkpt>
      <trkpt lat="44.45083" lon="3.74485">
        <ele>1397.6</ele>
        <time>2021-08-10T10:09:58Z</time>
      </trkpt>
      <trkpt lat="44.45085" lon="3.74489">
        <ele>1398.1</ele>
        <time>2021-08-10T10:10:00Z</time>
      </trkpt>
      <trkpt lat="44.45086" lon="3.74493">
        <ele>1398.7</ele>
        <time>2021-08-10T10:10:02Z</time>
      </trkpt>
      <trkpt lat="44.45088" lon="3.74497">
        <ele>1399.2</ele>
        <time>2021-08-10T10:10:04Z</time>
      </trkpt>
      <trkpt lat="44.45089" lon="3.74501">
        <ele>1399.7</ele>
        <time>2021-08-10T10:10:06Z</time>
      </trkpt>
      <trkpt lat="44.45091" lon="3.74506">
        <ele>1400</ele>
        <time>2021-08-10T10:10:08Z</time>
      </trkpt>
      <trkpt lat="44.45093" lon="3.7451">
        <ele>1400.4</ele>
        <time>2021-08-10T10:10:10Z</time>
      </trkpt>
      <trkpt lat="44.45094" lon="3.74514">
        <ele>1400.8</ele>
        <time>2021-08-10T10:10:12Z</time>
      </trkpt>
      <trkpt lat="44.45095" lon="3.74519">
        <ele>1401.1</ele>
        <time>2021-08-10T10:10:14Z</time>
      </trkpt>
      <trkpt lat="44.45097" lon="3.74523">
        <ele>1401.5</ele>
        <time>2021-08-10T10:10:16Z</time>
      </trkpt>
      <trkpt lat="44.45098" lon="3.74528">
        <ele>1401.9</ele>
        <time>2021-08-10T10:10:18Z</time>
      </trkpt>
      <trkpt lat="44.451" lon="3.74532">
        <ele>1402.3</ele>
        <time>2021-08-10T10:10:20Z</time>
      </trkpt>
      <trkpt lat="44.45101" lon="3.74537">
        <ele>1402.6</ele>
        <time>2021-08-10T10:10:22Z</time>
      </trkpt>
      <trkpt lat="44.45103" lon="3.74542">
        <ele>1403</ele>
        <time>2021-08-10T10:10:24Z</time>
      </trkpt>
      <trkpt lat="44.45104" lon="3.74546">
        <ele>1403.4</ele>
        <time>2021-08-10T10:10:26Z</time>
      </trkpt>
      <trkpt lat="44.45105" lon="3.7455">
        <ele>1403.7</ele>
        <time>2021-08-10T10:10:28Z</time>
      </trkpt>
      <trkpt lat="44.45107" lon="3.74555">
        <ele>1404</ele>
        <time>2021-08-10T10:10:30Z</time>
      </trkpt>
      <trkpt lat="44.45108" lon="3.74559">
        <ele>1404.4</ele>
        <time>2021-08-10T10:10:32Z</time>
      </trkpt>
      <trkpt lat="44.4511" lon="3.74563">
        <ele>1404.7</ele>
        <time>2021-08-10T10:10:34Z</time>
      </trkpt>
      <trkpt lat="44.45111" lon="3.74568">
        <ele>1405</ele>
        <time>2021-08-10T10:10:36Z</time>
      </trkpt>
      <trkpt lat="44.45113" lon="3.74572">
        <ele>1405.3</ele>
        <time>2021-08-10T10:10:38Z</time>
      </trkpt>
      <trkpt lat="44.45114" lon="3.74577">
        <ele>1405.6</ele>
        <time>2021-08-10T10:10:40Z</time>
      </trkpt>
      <trkpt lat="44.45116" lon="3.74581">
        <ele>1405.9</ele>
        <time>2021-08-10T10:10:42Z</time>
      </trkpt>
      <trkpt lat="44.45117" lon="3.74585">
        <ele>1406.1</ele>
        <time>2021-08-10T10:10:44Z</time>
      </trkpt>
      <trkpt lat="44.45119" lon="3.7459">
        <ele>1406.3</ele>
        <time>2021-08-10T10:10:46Z</time>
      </trkpt>
      <trkpt lat="44.4512" lon="3.74594">
        <ele>1406.4</ele>
        <time>2021-08-10T10:10:48Z</time>
      </trkpt>
      <trkpt lat="44.45122" lon="3.74598">
        <ele>1406.6</ele>
        <time>2021-08-10T10:10:50Z</time>
      </trkpt>
      <trkpt lat="44.45123" lon="3.74603">
        <ele>1406.9</ele>
        <time>2021-08-10T10:10:52Z</time>
      </trkpt>
      <trkpt lat="44.45125" lon="3.74607">
        <ele>1407</ele>
        <time>2021-08-10T10:10:54Z</time>
      </trkpt>
      <trkpt lat="44.45126" lon="3.74611">
        <ele>1407.3</ele>
        <time>2021-08-10T10:10:56Z</time>
      </trkpt>
      <trkpt lat="44.45128" lon="3.74616">
        <ele>1407.5</ele>
        <time>2021-08-10T10:10:58Z</time>
      </trkpt>
      <trkpt lat="44.45129" lon="3.7462">
        <ele>1407.7</ele>
        <time>2021-08-10T10:11:00Z</time>
      </trkpt>
      <trkpt lat="44.45131" lon="3.74624">
        <ele>1407.9</ele>
        <time>2021-08-10T10:11:02Z</time>
      </trkpt>
      <trkpt lat="44.45132" lon="3.74629">
        <ele>1408.2</ele>
        <time>2021-08-10T10:11:04Z</time>
      </trkpt>
      <trkpt lat="44.45134" lon="3.74633">
        <ele>1408.5</ele>
        <time>2021-08-10T10:11:06Z</time>
      </trkpt>
      <trkpt lat="44.45136" lon="3.74637">
        <ele>1408.7</ele>
        <time>2021-08-10T10:11:08Z</time>
      </trkpt>
      <trkpt lat="44.45137" lon="3.74642">
        <ele>1409.1</ele>
        <time>2021-08-10T10:11:10Z</time>
      </trkpt>
      <trkpt lat="44.45138" lon="3.74646">
        <ele>1409.4</ele>
        <time>2021-08-10T10:11:12Z</time>
      </trkpt>
      <trkpt lat="44.4514" lon="3.74651">
        <ele>1409.7</ele>
        <time>2021-08-10T10:11:14Z</time>
      </trkpt>
      <trkpt lat="44.45142" lon="3.74655">
        <ele>1410</ele>
        <time>2021-08-10T10:11:16Z</time>
      </trkpt>
      <trkpt lat="44.45144" lon="3.74659">
        <ele>1410.3</ele>
        <time>2021-08-10T10:11:18Z</time>
      </trkpt>
      <trkpt lat="44.45145" lon="3.74663">
        <ele>1410.7</ele>
        <time>2021-08-10T10:11:20Z</time>
      </trkpt>
      <trkpt lat="44.45147" lon="3.74667">
        <ele>1411</ele>
        <time>2021-08-10T10:11:22Z</time>
      </trkpt>
      <trkpt lat="44.45148" lon="3.74671">
        <ele>1411</ele>
        <time>2021-08-10T10:11:24Z</time>
      </trkpt>
      <trkpt lat="44.45151" lon="3.74675">
        <ele>1411</ele>
        <time>2021-08-10T10:11:26Z</time>
      </trkpt>
      <trkpt lat="44.45152" lon="3.74679">
        <ele>1411.1</ele>
        <time>2021-08-10T10:11:28Z</time>
      </trkpt>
      <trkpt lat="44.45154" lon="3.74683">
        <ele>1411.2</ele>
        <time>2021-08-10T10:11:30Z</time>
      </trkpt>
      <trkpt lat="44.45156" lon="3.74688">
        <ele>1411.2</ele>
        <time>2021-08-10T10:11:32Z</time>
      </trkpt>
      <trkpt lat="44.45157" lon="3.74692">
        <ele>1411.3</ele>
        <time>2021-08-10T10:11:34Z</time>
      </trkpt>
      <trkpt lat="44.45159" lon="3.74696">
        <ele>1411.3</ele>
        <time>2021-08-10T10:11:36Z</time>
      </trkpt>
      <trkpt lat="44.45162" lon="3.74699">
        <ele>1411.4</ele>
        <time>2021-08-10T10:11:38Z</time>
      </trkpt>
      <trkpt lat="44.45163" lon="3.74703">
        <ele>1411.5</ele>
        <time>2021-08-10T10:11:40Z</time>
      </trkpt>
      <trkpt lat="44.45165" lon="3.74707">
        <ele>1411.5</ele>
        <time>2021-08-10T10:11:42Z</time>
      </trkpt>
      <trkpt lat="44.45168" lon="3.7471">
        <ele>1411.6</ele>
        <time>2021-08-10T10:11:44Z</time>
      </trkpt>
      <trkpt lat="44.4517" lon="3.74714">
        <ele>1411.8</ele>
        <time>2021-08-10T10:11:46Z</time>
      </trkpt>
      <trkpt lat="44.45172" lon="3.74718">
        <ele>1411.9</ele>
        <time>2021-08-10T10:11:48Z</time>
      </trkpt>
      <trkpt lat="44.45174" lon="3.74721">
        <ele>1412.1</ele>
        <time>2021-08-10T10:11:50Z</time>
      </trkpt>
      <trkpt lat="44.45176" lon="3.74725">
        <ele>1412.3</ele>
        <time>2021-08-10T10:11:52Z</time>
      </trkpt>
      <trkpt lat="44.45178" lon="3.74729">
        <ele>1412.5</ele>
        <time>2021-08-10T10:11:54Z</time>
      </trkpt>
      <trkpt lat="44.4518" lon="3.74733">
        <ele>1412.7</ele>
        <time>2021-08-10T10:11:56Z</time>
      </trkpt>
      <trkpt lat="44.45183" lon="3.74737">
        <ele>1413</ele>
        <time>2021-08-10T10:11:58Z</time>
      </trkpt>
      <trkpt lat="44.45184" lon="3.74741">
        <ele>1413.2</ele>
        <time>2021-08-10T10:12:00Z</time>
      </trkpt>
      <trkpt lat="44.45185" lon="3.74747">
        <ele>1413.5</ele>
        <time>2021-08-10T10:12:02Z</time>
      </trkpt>
      <trkpt lat="44.45185" lon="3.74752">
        <ele>1413.7</ele>
        <time>2021-08-10T10:12:04Z</time>
      </trkpt>
      <trkpt lat="44.45185" lon="3.74757">
        <ele>1413.6</ele>
        <time>2021-08-10T10:12:06Z</time>
      </trkpt>
      <trkpt lat="44.45184" lon="3.74761">
        <ele>1413.5</ele>
        <time>2021-08-10T10:12:08Z</time>
      </trkpt>
      <trkpt lat="44.45182" lon="3.74765">
        <ele>1413.4</ele>
        <time>2021-08-10T10:12:10Z</time>
      </trkpt>
      <trkpt lat="44.4518" lon="3.74769">
        <ele>1413.3</ele>
        <time>2021-08-10T10:12:12Z</time>
      </trkpt>
      <trkpt lat="44.45177" lon="3.74772">
        <ele>1413.2</ele>
        <time>2021-08-10T10:12:14Z</time>
      </trkpt>
      <trkpt lat="44.45174" lon="3.74774">
        <ele>1413</ele>
        <time>2021-08-10T10:12:16Z</time>
      </trkpt>
      <trkpt lat="44.4517" lon="3.74776">
        <ele>1412.8</ele>
        <time>2021-08-10T10:12:18Z</time>
      </trkpt>
      <trkpt lat="44.45167" lon="3.74776">
        <ele>1412.7</ele>
        <time>2021-08-10T10:12:20Z</time>
      </trkpt>
      <trkpt lat="44.45164" lon="3.74777">
        <ele>1412.7</ele>
        <time>2021-08-10T10:12:22Z</time>
      </trkpt>
      <trkpt lat="44.4516" lon="3.74779">
        <ele>1412.8</ele>
        <time>2021-08-10T10:12:24Z</time>
      </trkpt>
      <trkpt lat="44.45157" lon="3.74781">
        <ele>1412.9</ele>
        <time>2021-08-10T10:12:26Z</time>
      </trkpt>
      <trkpt lat="44.45154" lon="3.74783">
        <ele>1412.9</ele>
        <time>2021-08-10T10:12:28Z</time>
      </trkpt>
      <trkpt lat="44.45151" lon="3.74785">
        <ele>1413</ele>
        <time>2021-08-10T10:12:30Z</time>
      </trkpt>
      <trkpt lat="44.45148" lon="3.74788">
        <ele>1413</ele>
        <time>2021-08-10T10:12:32Z</time>
      </trkpt>
      <trkpt lat="44.45145" lon="3.74789">
        <ele>1413.1</ele>
        <time>2021-08-10T10:12:34Z</time>
      </trkpt>
      <trkpt lat="44.45142" lon="3.7479">
        <ele>1413.1</ele>
        <time>2021-08-10T10:12:36Z</time>
      </trkpt>
      <trkpt lat="44.45138" lon="3.74793">
        <ele>1413.2</ele>
        <time>2021-08-10T10:12:38Z</time>
      </trkpt>
      <trkpt lat="44.45135" lon="3.74795">
        <ele>1413.2</ele>
        <time>2021-08-10T10:12:40Z</time>
      </trkpt>
      <trkpt lat="44.45132" lon="3.74797">
        <ele>1413.3</ele>
        <time>2021-08-10T10:12:42Z</time>
      </trkpt>
      <trkpt lat="44.45129" lon="3.74798">
        <ele>1413.3</ele>
        <time>2021-08-10T10:12:44Z</time>
      </trkpt>
      <trkpt lat="44.45127" lon="3.74799">
        <ele>1413.4</ele>
        <time>2021-08-10T10:12:46Z</time>
      </trkpt>
      <trkpt lat="44.45124" lon="3.748">
        <ele>1413.4</ele>
        <time>2021-08-10T10:12:48Z</time>
      </trkpt>
      <trkpt lat="44.45124" lon="3.748">
        <ele>1413.4</ele>
        <time>2021-08-10T10:12:50Z</time>
      </trkpt>
      <trkpt lat="44.45124" lon="3.748">
        <ele>1413.4</ele>
        <time>2021-08-10T10:12:52Z</time>
      </trkpt>
      <trkpt lat="44.45124" lon="3.74799">
        <ele>1413.4</ele>
        <time>2021-08-10T10:12:54Z</time>
      </trkpt>
      <trkpt lat="44.45123" lon="3.74799">
        <ele>1413.4</ele>
        <time>2021-08-10T10:12:56Z</time>
      </trkpt>
      <trkpt lat="44.45124" lon="3.748">
        <ele>1413.4</ele>
        <time>2021-08-10T10:12:58Z</time>
      </trkpt>
      <trkpt lat="44.45072" lon="3.74784">
        <ele>1415.3</ele>
        <time>2021-08-10T10:58:47Z</time>
      </trkpt>
      <trkpt lat="44.45069" lon="3.74783">
        <ele>1415.5</ele>
        <time>2021-08-10T10:58:49Z</time>
      </trkpt>
      <trkpt lat="44.45066" lon="3.74782">
        <ele>1415.7</ele>
        <time>2021-08-10T10:58:51Z</time>
      </trkpt>
      <trkpt lat="44.45063" lon="3.74782">
        <ele>1416</ele>
        <time>2021-08-10T10:58:53Z</time>
      </trkpt>
      <trkpt lat="44.4506" lon="3.74781">
        <ele>1416.2</ele>
        <time>2021-08-10T10:58:55Z</time>
      </trkpt>
      <trkpt lat="44.45057" lon="3.7478">
        <ele>1416.4</ele>
        <time>2021-08-10T10:58:57Z</time>
      </trkpt>
      <trkpt lat="44.45054" lon="3.74779">
        <ele>1416.6</ele>
        <time>2021-08-10T10:58:59Z</time>
      </trkpt>
      <trkpt lat="44.45051" lon="3.74779">
        <ele>1416.8</ele>
        <time>2021-08-10T10:59:01Z</time>
      </trkpt>
      <trkpt lat="44.45049" lon="3.74778">
        <ele>1417</ele>
        <time>2021-08-10T10:59:03Z</time>
      </trkpt>
      <trkpt lat="44.45046" lon="3.74776">
        <ele>1417.3</ele>
        <time>2021-08-10T10:59:05Z</time>
      </trkpt>
      <trkpt lat="44.45042" lon="3.74775">
        <ele>1417.6</ele>
        <time>2021-08-10T10:59:07Z</time>
      </trkpt>
      <trkpt lat="44.4504" lon="3.74773">
        <ele>1417.8</ele>
        <time>2021-08-10T10:59:09Z</time>
      </trkpt>
      <trkpt lat="44.45039" lon="3.74769">
        <ele>1418</ele>
        <time>2021-08-10T10:59:11Z</time>
      </trkpt>
      <trkpt lat="44.45039" lon="3.74765">
        <ele>1418.2</ele>
        <time>2021-08-10T10:59:13Z</time>
      </trkpt>
      <trkpt lat="44.45038" lon="3.74762">
        <ele>1418.3</ele>
        <time>2021-08-10T10:59:15Z</time>
      </trkpt>
      <trkpt lat="44.45036" lon="3.74758">
        <ele>1418.6</ele>
        <time>2021-08-10T10:59:17Z</time>
      </trkpt>
      <trkpt lat="44.45033" lon="3.74756">
        <ele>1418.9</ele>
        <time>2021-08-10T10:59:19Z</time>
      </trkpt>
      <trkpt lat="44.45031" lon="3.74755">
        <ele>1419.2</ele>
        <time>2021-08-10T10:59:21Z</time>
      </trkpt>
      <trkpt lat="44.45028" lon="3.74754">
        <ele>1419.5</ele>
        <time>2021-08-10T10:59:23Z</time>
      </trkpt>
      <trkpt lat="44.45025" lon="3.74753">
        <ele>1419.8</ele>
        <time>2021-08-10T10:59:25Z</time>
      </trkpt>
      <trkpt lat="44.45022" lon="3.74752">
        <ele>1420.1</ele>
        <time>2021-08-10T10:59:27Z</time>
      </trkpt>
      <trkpt lat="44.45019" lon="3.74751">
        <ele>1420.3</ele>
        <time>2021-08-10T10:59:29Z</time>
      </trkpt>
      <trkpt lat="44.45016" lon="3.7475">
        <ele>1420.6</ele>
        <time>2021-08-10T10:59:31Z</time>
      </trkpt>
      <trkpt lat="44.45014" lon="3.74749">
        <ele>1420.8</ele>
        <time>2021-08-10T10:59:33Z</time>
      </trkpt>
      <trkpt lat="44.45011" lon="3.74748">
        <ele>1421.1</ele>
        <time>2021-08-10T10:59:35Z</time>
      </trkpt>
      <trkpt lat="44.45009" lon="3.74747">
        <ele>1421.3</ele>
        <time>2021-08-10T10:59:37Z</time>
      </trkpt>
      <trkpt lat="44.45006" lon="3.74746">
        <ele>1421.6</ele>
        <time>2021-08-10T10:59:39Z</time>
      </trkpt>
      <trkpt lat="44.45003" lon="3.74745">
        <ele>1421.9</ele>
        <time>2021-08-10T10:59:41Z</time>
      </trkpt>
      <trkpt lat="44.45001" lon="3.74744">
        <ele>1422.1</ele>
        <time>2021-08-10T10:59:43Z</time>
      </trkpt>
      <trkpt lat="44.44998" lon="3.74743">
        <ele>1422.3</ele>
        <time>2021-08-10T10:59:45Z</time>
      </trkpt>
      <trkpt lat="44.44995" lon="3.74742">
        <ele>1422.6</ele>
        <time>2021-08-10T10:59:47Z</time>
      </trkpt>
      <trkpt lat="44.44992" lon="3.74741">
        <ele>1422.9</ele>
        <time>2021-08-10T10:59:49Z</time>
      </trkpt>
      <trkpt lat="44.4499" lon="3.7474">
        <ele>1423.1</ele>
        <time>2021-08-10T10:59:51Z</time>
      </trkpt>
      <trkpt lat="44.44987" lon="3.74739">
        <ele>1423.4</ele>
        <time>2021-08-10T10:59:53Z</time>
      </trkpt>
      <trkpt lat="44.44984" lon="3.74738">
        <ele>1423.7</ele>
        <time>2021-08-10T10:59:55Z</time>
      </trkpt>
      <trkpt lat="44.44981" lon="3.74737">
        <ele>1424</ele>
        <time>2021-08-10T10:59:57Z</time>
      </trkpt>
      <trkpt lat="44.44978" lon="3.74736">
        <ele>1424.2</ele>
        <time>2021-08-10T10:59:59Z</time>
      </trkpt>
      <trkpt lat="44.44976" lon="3.74735">
        <ele>1424.5</ele>
        <time>2021-08-10T11:00:01Z</time>
      </trkpt>
      <trkpt lat="44.44973" lon="3.74734">
        <ele>1424.8</ele>
        <time>2021-08-10T11:00:03Z</time>
      </trkpt>
      <trkpt lat="44.4497" lon="3.74733">
        <ele>1425</ele>
        <time>2021-08-10T11:00:05Z</time>
      </trkpt>
      <trkpt lat="44.44967" lon="3.74732">
        <ele>1425.3</ele>
        <time>2021-08-10T11:00:07Z</time>
      </trkpt>
      <trkpt lat="44.44965" lon="3.74731">
        <ele>1425.6</ele>
        <time>2021-08-10T11:00:09Z</time>
      </trkpt>
      <trkpt lat="44.44962" lon="3.7473">
        <ele>1425.9</ele>
        <time>2021-08-10T11:00:11Z</time>
      </trkpt>
      <trkpt lat="44.44959" lon="3.7473">
        <ele>1426.2</ele>
        <time>2021-08-10T11:00:13Z</time>
      </trkpt>
      <trkpt lat="44.44956" lon="3.74728">
        <ele>1426.5</ele>
        <time>2021-08-10T11:00:15Z</time>
      </trkpt>
      <trkpt lat="44.44953" lon="3.74728">
        <ele>1426.8</ele>
        <time>2021-08-10T11:00:17Z</time>
      </trkpt>
      <trkpt lat="44.4495" lon="3.74726">
        <ele>1427.1</ele>
        <time>2021-08-10T11:00:19Z</time>
      </trkpt>
      <trkpt lat="44.44947" lon="3.74725">
        <ele>1427.4</ele>
        <time>2021-08-10T11:00:21Z</time>
      </trkpt>
      <trkpt lat="44.44945" lon="3.74724">
        <ele>1427.7</ele>
        <time>2021-08-10T11:00:23Z</time>
      </trkpt>
      <trkpt lat="44.44942" lon="3.74723">
        <ele>1428</ele>
        <time>2021-08-10T11:00:25Z</time>
      </trkpt>
      <trkpt lat="44.44939" lon="3.74722">
        <ele>1428.3</ele>
        <time>2021-08-10T11:00:27Z</time>
      </trkpt>
      <trkpt lat="44.44936" lon="3.74721">
        <ele>1428.6</ele>
        <time>2021-08-10T11:00:29Z</time>
      </trkpt>
      <trkpt lat="44.44933" lon="3.7472">
        <ele>1428.9</ele>
        <time>2021-08-10T11:00:31Z</time>
      </trkpt>
      <trkpt lat="44.4493" lon="3.74719">
        <ele>1429.2</ele>
        <time>2021-08-10T11:00:33Z</time>
      </trkpt>
      <trkpt lat="44.44927" lon="3.74719">
        <ele>1429.5</ele>
        <time>2021-08-10T11:00:35Z</time>
      </trkpt>
      <trkpt lat="44.44924" lon="3.74718">
        <ele>1429.8</ele>
        <time>2021-08-10T11:00:37Z</time>
      </trkpt>
      <trkpt lat="44.44921" lon="3.74717">
        <ele>1430.2</ele>
        <time>2021-08-10T11:00:39Z</time>
      </trkpt>
      <trkpt lat="44.44918" lon="3.74716">
        <ele>1430.5</ele>
        <time>2021-08-10T11:00:41Z</time>
      </trkpt>
      <trkpt lat="44.44915" lon="3.74715">
        <ele>1430.7</ele>
        <time>2021-08-10T11:00:43Z</time>
      </trkpt>
      <trkpt lat="44.44912" lon="3.74715">
        <ele>1430.9</ele>
        <time>2021-08-10T11:00:45Z</time>
      </trkpt>
      <trkpt lat="44.44909" lon="3.74715">
        <ele>1431.1</ele>
        <time>2021-08-10T11:00:47Z</time>
      </trkpt>
      <trkpt lat="44.44906" lon="3.74714">
        <ele>1431.3</ele>
        <time>2021-08-10T11:00:49Z</time>
      </trkpt>
      <trkpt lat="44.44904" lon="3.74714">
        <ele>1431.5</ele>
        <time>2021-08-10T11:00:51Z</time>
      </trkpt>
      <trkpt lat="44.449" lon="3.74714">
        <ele>1431.7</ele>
        <time>2021-08-10T11:00:53Z</time>
      </trkpt>
      <trkpt lat="44.44897" lon="3.74713">
        <ele>1432</ele>
        <time>2021-08-10T11:00:55Z</time>
      </trkpt>
      <trkpt lat="44.44894" lon="3.74713">
        <ele>1432.2</ele>
        <time>2021-08-10T11:00:57Z</time>
      </trkpt>
      <trkpt lat="44.44891" lon="3.74713">
        <ele>1432.3</ele>
        <time>2021-08-10T11:00:59Z</time>
      </trkpt>
      <trkpt lat="44.44888" lon="3.74712">
        <ele>1432.6</ele>
        <time>2021-08-10T11:01:01Z</time>
      </trkpt>
      <trkpt lat="44.44885" lon="3.74711">
        <ele>1432.8</ele>
        <time>2021-08-10T11:01:03Z</time>
      </trkpt>
      <trkpt lat="44.44882" lon="3.7471">
        <ele>1433</ele>
        <time>2021-08-10T11:01:05Z</time>
      </trkpt>
      <trkpt lat="44.44879" lon="3.7471">
        <ele>1433.2</ele>
        <time>2021-08-10T11:01:07Z</time>
      </trkpt>
      <trkpt lat="44.44876" lon="3.7471">
        <ele>1433.4</ele>
        <time>2021-08-10T11:01:09Z</time>
      </trkpt>
      <trkpt lat="44.44873" lon="3.7471">
        <ele>1433.6</ele>
        <time>2021-08-10T11:01:11Z</time>
      </trkpt>
      <trkpt lat="44.4487" lon="3.74709">
        <ele>1433.8</ele>
        <time>2021-08-10T11:01:13Z</time>
      </trkpt>
      <trkpt lat="44.44867" lon="3.74709">
        <ele>1434</ele>
        <time>2021-08-10T11:01:15Z</time>
      </trkpt>
      <trkpt lat="44.44864" lon="3.74708">
        <ele>1434.2</ele>
        <time>2021-08-10T11:01:17Z</time>
      </trkpt>
      <trkpt lat="44.44861" lon="3.74708">
        <ele>1434.4</ele>
        <time>2021-08-10T11:01:19Z</time>
      </trkpt>
      <trkpt lat="44.44858" lon="3.74707">
        <ele>1434.6</ele>
        <time>2021-08-10T11:01:21Z</time>
      </trkpt>
      <trkpt lat="44.44855" lon="3.74706">
        <ele>1434.8</ele>
        <time>2021-08-10T11:01:23Z</time>
      </trkpt>
      <trkpt lat="44.44852" lon="3.74706">
        <ele>1435</ele>
        <time>2021-08-10T11:01:25Z</time>
      </trkpt>
      <trkpt lat="44.44848" lon="3.74706">
        <ele>1435.2</ele>
        <time>2021-08-10T11:01:27Z</time>
      </trkpt>
      <trkpt lat="44.44845" lon="3.74705">
        <ele>1435.4</ele>
        <time>2021-08-10T11:01:29Z</time>
      </trkpt>
      <trkpt lat="44.44843" lon="3.74704">
        <ele>1435.6</ele>
        <time>2021-08-10T11:01:31Z</time>
      </trkpt>
      <trkpt lat="44.44839" lon="3.74704">
        <ele>1435.8</ele>
        <time>2021-08-10T11:01:33Z</time>
      </trkpt>
      <trkpt lat="44.44836" lon="3.74703">
        <ele>1436</ele>
        <time>2021-08-10T11:01:35Z</time>
      </trkpt>
      <trkpt lat="44.44833" lon="3.74702">
        <ele>1436.2</ele>
        <time>2021-08-10T11:01:37Z</time>
      </trkpt>
      <trkpt lat="44.4483" lon="3.74702">
        <ele>1436.4</ele>
        <time>2021-08-10T11:01:39Z</time>
      </trkpt>
      <trkpt lat="44.44827" lon="3.74702">
        <ele>1436.5</ele>
        <time>2021-08-10T11:01:41Z</time>
      </trkpt>
      <trkpt lat="44.44824" lon="3.74701">
        <ele>1436.7</ele>
        <time>2021-08-10T11:01:43Z</time>
      </trkpt>
      <trkpt lat="44.44821" lon="3.74701">
        <ele>1436.9</ele>
        <time>2021-08-10T11:01:45Z</time>
      </trkpt>
      <trkpt lat="44.44818" lon="3.747">
        <ele>1437.1</ele>
        <time>2021-08-10T11:01:47Z</time>
      </trkpt>
      <trkpt lat="44.44815" lon="3.747">
        <ele>1437.3</ele>
        <time>2021-08-10T11:01:49Z</time>
      </trkpt>
      <trkpt lat="44.44812" lon="3.74699">
        <ele>1437.5</ele>
        <time>2021-08-10T11:01:51Z</time>
      </trkpt>
      <trkpt lat="44.44809" lon="3.74699">
        <ele>1437.7</ele>
        <time>2021-08-10T11:01:53Z</time>
      </trkpt>
      <trkpt lat="44.44806" lon="3.74699">
        <ele>1437.9</ele>
        <time>2021-08-10T11:01:55Z</time>
      </trkpt>
      <trkpt lat="44.44803" lon="3.74698">
        <ele>1438.1</ele>
        <time>2021-08-10T11:01:57Z</time>
      </trkpt>
      <trkpt lat="44.448" lon="3.74698">
        <ele>1438.3</ele>
        <time>2021-08-10T11:01:59Z</time>
      </trkpt>
      <trkpt lat="44.44797" lon="3.74698">
        <ele>1438.5</ele>
        <time>2021-08-10T11:02:01Z</time>
      </trkpt>
      <trkpt lat="44.44794" lon="3.74698">
        <ele>1438.7</ele>
        <time>2021-08-10T11:02:03Z</time>
      </trkpt>
      <trkpt lat="44.44791" lon="3.74698">
        <ele>1438.9</ele>
        <time>2021-08-10T11:02:05Z</time>
      </trkpt>
      <trkpt lat="44.44788" lon="3.74698">
        <ele>1439.1</ele>
        <time>2021-08-10T11:02:07Z</time>
      </trkpt>
      <trkpt lat="44.44784" lon="3.74698">
        <ele>1439.3</ele>
        <time>2021-08-10T11:02:09Z</time>
      </trkpt>
      <trkpt lat="44.44781" lon="3.74698">
        <ele>1439.4</ele>
        <time>2021-08-10T11:02:11Z</time>
      </trkpt>
      <trkpt lat="44.44778" lon="3.74698">
        <ele>1439.6</ele>
        <time>2021-08-10T11:02:13Z</time>
      </trkpt>
      <trkpt lat="44.44775" lon="3.74698">
        <ele>1439.8</ele>
        <time>2021-08-10T11:02:15Z</time>
      </trkpt>
      <trkpt lat="44.44772" lon="3.74698">
        <ele>1440</ele>
        <time>2021-08-10T11:02:17Z</time>
      </trkpt>
      <trkpt lat="44.44769" lon="3.74698">
        <ele>1440.2</ele>
        <time>2021-08-10T11:02:19Z</time>
      </trkpt>
      <trkpt lat="44.44766" lon="3.74699">
        <ele>1440.4</ele>
        <time>2021-08-10T11:02:21Z</time>
      </trkpt>
      <trkpt lat="44.44763" lon="3.74699">
        <ele>1440.6</ele>
        <time>2021-08-10T11:02:23Z</time>
      </trkpt>
      <trkpt lat="44.4476" lon="3.747">
        <ele>1440.8</ele>
        <time>2021-08-10T11:02:25Z</time>
      </trkpt>
      <trkpt lat="44.44757" lon="3.747">
        <ele>1441</ele>
        <time>2021-08-10T11:02:27Z</time>
      </trkpt>
      <trkpt lat="44.44754" lon="3.74701">
        <ele>1441.2</ele>
        <time>2021-08-10T11:02:29Z</time>
      </trkpt>
      <trkpt lat="44.44751" lon="3.74701">
        <ele>1441.4</ele>
        <time>2021-08-10T11:02:31Z</time>
      </trkpt>
      <trkpt lat="44.44747" lon="3.74702">
        <ele>1441.7</ele>
        <time>2021-08-10T11:02:33Z</time>
      </trkpt>
      <trkpt lat="44.44744" lon="3.74703">
        <ele>1442.1</ele>
        <time>2021-08-10T11:02:35Z</time>
      </trkpt>
      <trkpt lat="44.44741" lon="3.74704">
        <ele>1442.4</ele>
        <time>2021-08-10T11:02:37Z</time>
      </trkpt>
      <trkpt lat="44.44738" lon="3.74705">
        <ele>1442.8</ele>
        <time>2021-08-10T11:02:39Z</time>
      </trkpt>
      <trkpt lat="44.44735" lon="3.74706">
        <ele>1443.2</ele>
        <time>2021-08-10T11:02:41Z</time>
      </trkpt>
      <trkpt lat="44.44731" lon="3.74707">
        <ele>1443.6</ele>
        <time>2021-08-10T11:02:43Z</time>
      </trkpt>
      <trkpt lat="44.44728" lon="3.74708">
        <ele>1444</ele>
        <time>2021-08-10T11:02:45Z</time>
      </trkpt>
      <trkpt lat="44.44725" lon="3.74709">
        <ele>1444.3</ele>
        <time>2021-08-10T11:02:47Z</time>
      </trkpt>
      <trkpt lat="44.44722" lon="3.74711">
        <ele>1444.7</ele>
        <time>2021-08-10T11:02:49Z</time>
      </trkpt>
      <trkpt lat="44.44719" lon="3.74712">
        <ele>1445.1</ele>
        <time>2021-08-10T11:02:51Z</time>
      </trkpt>
      <trkpt lat="44.44716" lon="3.74714">
        <ele>1445.6</ele>
        <time>2021-08-10T11:02:53Z</time>
      </trkpt>
      <trkpt lat="44.44713" lon="3.74715">
        <ele>1445.9</ele>
        <time>2021-08-10T11:02:55Z</time>
      </trkpt>
      <trkpt lat="44.4471" lon="3.74716">
        <ele>1446.3</ele>
        <time>2021-08-10T11:02:57Z</time>
      </trkpt>
      <trkpt lat="44.44707" lon="3.74718">
        <ele>1446.7</ele>
        <time>2021-08-10T11:02:59Z</time>
      </trkpt>
      <trkpt lat="44.44704" lon="3.7472">
        <ele>1447.2</ele>
        <time>2021-08-10T11:03:01Z</time>
      </trkpt>
      <trkpt lat="44.44701" lon="3.74722">
        <ele>1447.6</ele>
        <time>2021-08-10T11:03:03Z</time>
      </trkpt>
      <trkpt lat="44.44698" lon="3.74724">
        <ele>1448</ele>
        <time>2021-08-10T11:03:05Z</time>
      </trkpt>
      <trkpt lat="44.44695" lon="3.74725">
        <ele>1448.4</ele>
        <time>2021-08-10T11:03:07Z</time>
      </trkpt>
      <trkpt lat="44.44692" lon="3.74728">
        <ele>1448.8</ele>
        <time>2021-08-10T11:03:09Z</time>
      </trkpt>
      <trkpt lat="44.44689" lon="3.74729">
        <ele>1449.3</ele>
        <time>2021-08-10T11:03:11Z</time>
      </trkpt>
      <trkpt lat="44.44686" lon="3.74731">
        <ele>1449.7</ele>
        <time>2021-08-10T11:03:13Z</time>
      </trkpt>
      <trkpt lat="44.44683" lon="3.74733">
        <ele>1450.1</ele>
        <time>2021-08-10T11:03:15Z</time>
      </trkpt>
      <trkpt lat="44.44681" lon="3.74735">
        <ele>1450.5</ele>
        <time>2021-08-10T11:03:17Z</time>
      </trkpt>
      <trkpt lat="44.44678" lon="3.74737">
        <ele>1451</ele>
        <time>2021-08-10T11:03:19Z</time>
      </trkpt>
      <trkpt lat="44.44675" lon="3.74739">
        <ele>1451.4</ele>
        <time>2021-08-10T11:03:21Z</time>
      </trkpt>
      <trkpt lat="44.44672" lon="3.74741">
        <ele>1451.8</ele>
        <time>2021-08-10T11:03:23Z</time>
      </trkpt>
      <trkpt lat="44.44669" lon="3.74743">
        <ele>1452.3</ele>
        <time>2021-08-10T11:03:25Z</time>
      </trkpt>
      <trkpt lat="44.44666" lon="3.74745">
        <ele>1452.8</ele>
        <time>2021-08-10T11:03:27Z</time>
      </trkpt>
      <trkpt lat="44.44664" lon="3.74746">
        <ele>1453.2</ele>
        <time>2021-08-10T11:03:29Z</time>
      </trkpt>
      <trkpt lat="44.44661" lon="3.74748">
        <ele>1453.6</ele>
        <time>2021-08-10T11:03:31Z</time>
      </trkpt>
      <trkpt lat="44.44659" lon="3.7475">
        <ele>1454</ele>
        <time>2021-08-10T11:03:33Z</time>
      </trkpt>
      <trkpt lat="44.44657" lon="3.74751">
        <ele>1454.3</ele>
        <time>2021-08-10T11:03:35Z</time>
      </trkpt>
      <trkpt lat="44.44654" lon="3.74753">
        <ele>1454.5</ele>
        <time>2021-08-10T11:03:37Z</time>
      </trkpt>
      <trkpt lat="44.44652" lon="3.74755">
        <ele>1454.8</ele>
        <time>2021-08-10T11:03:39Z</time>
      </trkpt>
      <trkpt lat="44.44649" lon="3.74757">
        <ele>1455.1</ele>
        <time>2021-08-10T11:03:41Z</time>
      </trkpt>
      <trkpt lat="44.44647" lon="3.74758">
        <ele>1455.3</ele>
        <time>2021-08-10T11:03:43Z</time>
      </trkpt>
      <trkpt lat="44.44644" lon="3.7476">
        <ele>1455.6</ele>
        <time>2021-08-10T11:03:45Z</time>
      </trkpt>
      <trkpt lat="44.44641" lon="3.74762">
        <ele>1455.9</ele>
        <time>2021-08-10T11:03:47Z</time>
      </trkpt>
      <trkpt lat="44.44638" lon="3.74763">
        <ele>1456.3</ele>
        <time>2021-08-10T11:03:49Z</time>
      </trkpt>
      <trkpt lat="44.44636" lon="3.74765">
        <ele>1456.6</ele>
        <time>2021-08-10T11:03:51Z</time>
      </trkpt>
      <trkpt lat="44.44633" lon="3.74767">
        <ele>1456.9</ele>
        <time>2021-08-10T11:03:53Z</time>
      </trkpt>
      <trkpt lat="44.4463" lon="3.74769">
        <ele>1457.2</ele>
        <time>2021-08-10T11:03:55Z</time>
      </trkpt>
      <trkpt lat="44.44627" lon="3.7477">
        <ele>1457.6</ele>
        <time>2021-08-10T11:03:57Z</time>
      </trkpt>
      <trkpt lat="44.44625" lon="3.74773">
        <ele>1457.9</ele>
        <time>2021-08-10T11:03:59Z</time>
      </trkpt>
      <trkpt lat="44.44622" lon="3.74775">
        <ele>1458.2</ele>
        <time>2021-08-10T11:04:01Z</time>
      </trkpt>
      <trkpt lat="44.44619" lon="3.74776">
        <ele>1458.5</ele>
        <time>2021-08-10T11:04:03Z</time>
      </trkpt>
      <trkpt lat="44.44616" lon="3.74778">
        <ele>1458.9</ele>
        <time>2021-08-10T11:04:05Z</time>
      </trkpt>
      <trkpt lat="44.44614" lon="3.7478">
        <ele>1459.2</ele>
        <time>2021-08-10T11:04:07Z</time>
      </trkpt>
      <trkpt lat="44.44611" lon="3.74782">
        <ele>1459.6</ele>
        <time>2021-08-10T11:04:09Z</time>
      </trkpt>
      <trkpt lat="44.44608" lon="3.74784">
        <ele>1459.9</ele>
        <time>2021-08-10T11:04:11Z</time>
      </trkpt>
      <trkpt lat="44.44606" lon="3.74785">
        <ele>1460.3</ele>
        <time>2021-08-10T11:04:13Z</time>
      </trkpt>
      <trkpt lat="44.44603" lon="3.74787">
        <ele>1460.7</ele>
        <time>2021-08-10T11:04:15Z</time>
      </trkpt>
      <trkpt lat="44.446" lon="3.74789">
        <ele>1461</ele>
        <time>2021-08-10T11:04:17Z</time>
      </trkpt>
      <trkpt lat="44.44597" lon="3.74791">
        <ele>1461.4</ele>
        <time>2021-08-10T11:04:19Z</time>
      </trkpt>
      <trkpt lat="44.44595" lon="3.74793">
        <ele>1461.7</ele>
        <time>2021-08-10T11:04:21Z</time>
      </trkpt>
      <trkpt lat="44.44592" lon="3.74795">
        <ele>1462.1</ele>
        <time>2021-08-10T11:04:23Z</time>
      </trkpt>
      <trkpt lat="44.4459" lon="3.74796">
        <ele>1462.5</ele>
        <time>2021-08-10T11:04:25Z</time>
      </trkpt>
      <trkpt lat="44.44587" lon="3.74798">
        <ele>1462.8</ele>
        <time>2021-08-10T11:04:27Z</time>
      </trkpt>
      <trkpt lat="44.44584" lon="3.748">
        <ele>1463.2</ele>
        <time>2021-08-10T11:04:29Z</time>
      </trkpt>
      <trkpt lat="44.44582" lon="3.74803">
        <ele>1463.6</ele>
        <time>2021-08-10T11:04:31Z</time>
      </trkpt>
      <trkpt lat="44.44579" lon="3.74804">
        <ele>1464</ele>
        <time>2021-08-10T11:04:33Z</time>
      </trkpt>
      <trkpt lat="44.44576" lon="3.74806">
        <ele>1464.4</ele>
        <time>2021-08-10T11:04:35Z</time>
      </trkpt>
      <trkpt lat="44.44573" lon="3.74808">
        <ele>1464.9</ele>
        <time>2021-08-10T11:04:37Z</time>
      </trkpt>
      <trkpt lat="44.44571" lon="3.7481">
        <ele>1465.3</ele>
        <time>2021-08-10T11:04:39Z</time>
      </trkpt>
      <trkpt lat="44.44568" lon="3.74812">
        <ele>1465.7</ele>
        <time>2021-08-10T11:04:41Z</time>
      </trkpt>
      <trkpt lat="44.44565" lon="3.74814">
        <ele>1466</ele>
        <time>2021-08-10T11:04:43Z</time>
      </trkpt>
      <trkpt lat="44.44563" lon="3.74816">
        <ele>1466.4</ele>
        <time>2021-08-10T11:04:45Z</time>
      </trkpt>
      <trkpt lat="44.4456" lon="3.74818">
        <ele>1466.8</ele>
        <time>2021-08-10T11:04:47Z</time>
      </trkpt>
      <trkpt lat="44.44558" lon="3.74819">
        <ele>1467.2</ele>
        <time>2021-08-10T11:04:49Z</time>
      </trkpt>
      <trkpt lat="44.44555" lon="3.7482">
        <ele>1467.6</ele>
        <time>2021-08-10T11:04:51Z</time>
      </trkpt>
      <trkpt lat="44.44552" lon="3.74822">
        <ele>1468</ele>
        <time>2021-08-10T11:04:53Z</time>
      </trkpt>
      <trkpt lat="44.44549" lon="3.74824">
        <ele>1468.4</ele>
        <time>2021-08-10T11:04:55Z</time>
      </trkpt>
      <trkpt lat="44.44547" lon="3.74826">
        <ele>1468.8</ele>
        <time>2021-08-10T11:04:57Z</time>
      </trkpt>
      <trkpt lat="44.44543" lon="3.74827">
        <ele>1469.3</ele>
        <time>2021-08-10T11:04:59Z</time>
      </trkpt>
      <trkpt lat="44.44541" lon="3.74829">
        <ele>1469.7</ele>
        <time>2021-08-10T11:05:01Z</time>
      </trkpt>
      <trkpt lat="44.44538" lon="3.74831">
        <ele>1470</ele>
        <time>2021-08-10T11:05:03Z</time>
      </trkpt>
      <trkpt lat="44.44536" lon="3.74833">
        <ele>1470.5</ele>
        <time>2021-08-10T11:05:05Z</time>
      </trkpt>
      <trkpt lat="44.44533" lon="3.74834">
        <ele>1470.8</ele>
        <time>2021-08-10T11:05:07Z</time>
      </trkpt>
      <trkpt lat="44.44531" lon="3.74836">
        <ele>1471</ele>
        <time>2021-08-10T11:05:09Z</time>
      </trkpt>
      <trkpt lat="44.44528" lon="3.74837">
        <ele>1471.3</ele>
        <time>2021-08-10T11:05:11Z</time>
      </trkpt>
      <trkpt lat="44.44526" lon="3.74839">
        <ele>1471.5</ele>
        <time>2021-08-10T11:05:13Z</time>
      </trkpt>
      <trkpt lat="44.44523" lon="3.74841">
        <ele>1471.8</ele>
        <time>2021-08-10T11:05:15Z</time>
      </trkpt>
      <trkpt lat="44.44521" lon="3.74843">
        <ele>1472</ele>
        <time>2021-08-10T11:05:17Z</time>
      </trkpt>
      <trkpt lat="44.44518" lon="3.74844">
        <ele>1472.2</ele>
        <time>2021-08-10T11:05:19Z</time>
      </trkpt>
      <trkpt lat="44.44517" lon="3.74848">
        <ele>1472</ele>
        <time>2021-08-10T11:05:21Z</time>
      </trkpt>
      <trkpt lat="44.44516" lon="3.74851">
        <ele>1472</ele>
        <time>2021-08-10T11:05:23Z</time>
      </trkpt>
      <trkpt lat="44.44512" lon="3.74849">
        <ele>1472.7</ele>
        <time>2021-08-10T11:05:25Z</time>
      </trkpt>
      <trkpt lat="44.44509" lon="3.7485">
        <ele>1473.1</ele>
        <time>2021-08-10T11:05:27Z</time>
      </trkpt>
      <trkpt lat="44.44506" lon="3.74852">
        <ele>1473.3</ele>
        <time>2021-08-10T11:05:29Z</time>
      </trkpt>
      <trkpt lat="44.44503" lon="3.74854">
        <ele>1473.6</ele>
        <time>2021-08-10T11:05:31Z</time>
      </trkpt>
      <trkpt lat="44.445" lon="3.74856">
        <ele>1473.7</ele>
        <time>2021-08-10T11:05:33Z</time>
      </trkpt>
      <trkpt lat="44.44498" lon="3.74858">
        <ele>1473.9</ele>
        <time>2021-08-10T11:05:35Z</time>
      </trkpt>
      <trkpt lat="44.44495" lon="3.7486">
        <ele>1474.2</ele>
        <time>2021-08-10T11:05:37Z</time>
      </trkpt>
      <trkpt lat="44.44492" lon="3.74861">
        <ele>1474.4</ele>
        <time>2021-08-10T11:05:39Z</time>
      </trkpt>
      <trkpt lat="44.44489" lon="3.74863">
        <ele>1474.6</ele>
        <time>2021-08-10T11:05:41Z</time>
      </trkpt>
      <trkpt lat="44.44486" lon="3.74865">
        <ele>1474.7</ele>
        <time>2021-08-10T11:05:43Z</time>
      </trkpt>
      <trkpt lat="44.44483" lon="3.74868">
        <ele>1474.9</ele>
        <time>2021-08-10T11:05:45Z</time>
      </trkpt>
      <trkpt lat="44.44481" lon="3.74869">
        <ele>1475.1</ele>
        <time>2021-08-10T11:05:47Z</time>
      </trkpt>
      <trkpt lat="44.44478" lon="3.74871">
        <ele>1475.3</ele>
        <time>2021-08-10T11:05:49Z</time>
      </trkpt>
      <trkpt lat="44.44475" lon="3.74873">
        <ele>1475.5</ele>
        <time>2021-08-10T11:05:51Z</time>
      </trkpt>
      <trkpt lat="44.44472" lon="3.74875">
        <ele>1475.7</ele>
        <time>2021-08-10T11:05:53Z</time>
      </trkpt>
      <trkpt lat="44.44469" lon="3.74877">
        <ele>1475.9</ele>
        <time>2021-08-10T11:05:55Z</time>
      </trkpt>
      <trkpt lat="44.44466" lon="3.74879">
        <ele>1476.2</ele>
        <time>2021-08-10T11:05:57Z</time>
      </trkpt>
      <trkpt lat="44.44463" lon="3.74881">
        <ele>1476.3</ele>
        <time>2021-08-10T11:05:59Z</time>
      </trkpt>
      <trkpt lat="44.4446" lon="3.74883">
        <ele>1476.5</ele>
        <time>2021-08-10T11:06:01Z</time>
      </trkpt>
      <trkpt lat="44.44457" lon="3.74885">
        <ele>1476.7</ele>
        <time>2021-08-10T11:06:03Z</time>
      </trkpt>
      <trkpt lat="44.44454" lon="3.74887">
        <ele>1476.9</ele>
        <time>2021-08-10T11:06:05Z</time>
      </trkpt>
      <trkpt lat="44.44451" lon="3.74888">
        <ele>1477.2</ele>
        <time>2021-08-10T11:06:07Z</time>
      </trkpt>
      <trkpt lat="44.44448" lon="3.7489">
        <ele>1477.3</ele>
        <time>2021-08-10T11:06:09Z</time>
      </trkpt>
      <trkpt lat="44.44446" lon="3.74892">
        <ele>1477.5</ele>
        <time>2021-08-10T11:06:11Z</time>
      </trkpt>
      <trkpt lat="44.44442" lon="3.74894">
        <ele>1477.8</ele>
        <time>2021-08-10T11:06:13Z</time>
      </trkpt>
      <trkpt lat="44.4444" lon="3.74896">
        <ele>1477.9</ele>
        <time>2021-08-10T11:06:15Z</time>
      </trkpt>
      <trkpt lat="44.44437" lon="3.74898">
        <ele>1478.1</ele>
        <time>2021-08-10T11:06:17Z</time>
      </trkpt>
      <trkpt lat="44.44434" lon="3.749">
        <ele>1478.3</ele>
        <time>2021-08-10T11:06:19Z</time>
      </trkpt>
      <trkpt lat="44.44431" lon="3.74902">
        <ele>1478.6</ele>
        <time>2021-08-10T11:06:21Z</time>
      </trkpt>
      <trkpt lat="44.44428" lon="3.74904">
        <ele>1478.7</ele>
        <time>2021-08-10T11:06:23Z</time>
      </trkpt>
      <trkpt lat="44.44425" lon="3.74906">
        <ele>1478.9</ele>
        <time>2021-08-10T11:06:25Z</time>
      </trkpt>
      <trkpt lat="44.44422" lon="3.74909">
        <ele>1479.1</ele>
        <time>2021-08-10T11:06:27Z</time>
      </trkpt>
      <trkpt lat="44.44419" lon="3.74911">
        <ele>1479.3</ele>
        <time>2021-08-10T11:06:29Z</time>
      </trkpt>
      <trkpt lat="44.44416" lon="3.74914">
        <ele>1479.5</ele>
        <time>2021-08-10T11:06:31Z</time>
      </trkpt>
      <trkpt lat="44.44413" lon="3.74916">
        <ele>1480</ele>
        <time>2021-08-10T11:06:33Z</time>
      </trkpt>
      <trkpt lat="44.4441" lon="3.74918">
        <ele>1480.4</ele>
        <time>2021-08-10T11:06:35Z</time>
      </trkpt>
      <trkpt lat="44.44407" lon="3.74921">
        <ele>1480.6</ele>
        <time>2021-08-10T11:06:37Z</time>
      </trkpt>
      <trkpt lat="44.44404" lon="3.74923">
        <ele>1481</ele>
        <time>2021-08-10T11:06:39Z</time>
      </trkpt>
      <trkpt lat="44.44401" lon="3.74925">
        <ele>1481.4</ele>
        <time>2021-08-10T11:06:41Z</time>
      </trkpt>
      <trkpt lat="44.44398" lon="3.74927">
        <ele>1481.7</ele>
        <time>2021-08-10T11:06:43Z</time>
      </trkpt>
      <trkpt lat="44.44395" lon="3.7493">
        <ele>1482</ele>
        <time>2021-08-10T11:06:45Z</time>
      </trkpt>
      <trkpt lat="44.44393" lon="3.74931">
        <ele>1482.4</ele>
        <time>2021-08-10T11:06:47Z</time>
      </trkpt>
      <trkpt lat="44.4439" lon="3.74934">
        <ele>1482.7</ele>
        <time>2021-08-10T11:06:49Z</time>
      </trkpt>
      <trkpt lat="44.44388" lon="3.74937">
        <ele>1482.8</ele>
        <time>2021-08-10T11:06:51Z</time>
      </trkpt>
      <trkpt lat="44.44385" lon="3.74939">
        <ele>1483.3</ele>
        <time>2021-08-10T11:06:53Z</time>
      </trkpt>
      <trkpt lat="44.44382" lon="3.74941">
        <ele>1483.6</ele>
        <time>2021-08-10T11:06:55Z</time>
      </trkpt>
      <trkpt lat="44.44379" lon="3.74944">
        <ele>1483.9</ele>
        <time>2021-08-10T11:06:57Z</time>
      </trkpt>
      <trkpt lat="44.44376" lon="3.74947">
        <ele>1484.2</ele>
        <time>2021-08-10T11:06:59Z</time>
      </trkpt>
      <trkpt lat="44.44373" lon="3.7495">
        <ele>1484.5</ele>
        <time>2021-08-10T11:07:01Z</time>
      </trkpt>
      <trkpt lat="44.4437" lon="3.74952">
        <ele>1485</ele>
        <time>2021-08-10T11:07:03Z</time>
      </trkpt>
      <trkpt lat="44.44368" lon="3.74955">
        <ele>1485.2</ele>
        <time>2021-08-10T11:07:05Z</time>
      </trkpt>
      <trkpt lat="44.44365" lon="3.74957">
        <ele>1485.6</ele>
        <time>2021-08-10T11:07:07Z</time>
      </trkpt>
      <trkpt lat="44.44362" lon="3.7496">
        <ele>1486.1</ele>
        <time>2021-08-10T11:07:09Z</time>
      </trkpt>
      <trkpt lat="44.4436" lon="3.74963">
        <ele>1486.3</ele>
        <time>2021-08-10T11:07:11Z</time>
      </trkpt>
      <trkpt lat="44.44357" lon="3.74966">
        <ele>1486.7</ele>
        <time>2021-08-10T11:07:13Z</time>
      </trkpt>
      <trkpt lat="44.44354" lon="3.74969">
        <ele>1487</ele>
        <time>2021-08-10T11:07:15Z</time>
      </trkpt>
      <trkpt lat="44.44352" lon="3.74972">
        <ele>1487.3</ele>
        <time>2021-08-10T11:07:17Z</time>
      </trkpt>
      <trkpt lat="44.44349" lon="3.74975">
        <ele>1487.5</ele>
        <time>2021-08-10T11:07:19Z</time>
      </trkpt>
      <trkpt lat="44.44346" lon="3.74977">
        <ele>1488</ele>
        <time>2021-08-10T11:07:21Z</time>
      </trkpt>
      <trkpt lat="44.44344" lon="3.7498">
        <ele>1488.4</ele>
        <time>2021-08-10T11:07:23Z</time>
      </trkpt>
      <trkpt lat="44.44341" lon="3.74983">
        <ele>1488.7</ele>
        <time>2021-08-10T11:07:25Z</time>
      </trkpt>
      <trkpt lat="44.44338" lon="3.74986">
        <ele>1489.2</ele>
        <time>2021-08-10T11:07:27Z</time>
      </trkpt>
      <trkpt lat="44.44336" lon="3.74989">
        <ele>1489.6</ele>
        <time>2021-08-10T11:07:29Z</time>
      </trkpt>
      <trkpt lat="44.44333" lon="3.74992">
        <ele>1490</ele>
        <time>2021-08-10T11:07:31Z</time>
      </trkpt>
      <trkpt lat="44.4433" lon="3.74995">
        <ele>1490.3</ele>
        <time>2021-08-10T11:07:33Z</time>
      </trkpt>
      <trkpt lat="44.44328" lon="3.74998">
        <ele>1490.8</ele>
        <time>2021-08-10T11:07:35Z</time>
      </trkpt>
      <trkpt lat="44.44325" lon="3.75001">
        <ele>1491.1</ele>
        <time>2021-08-10T11:07:37Z</time>
      </trkpt>
      <trkpt lat="44.44322" lon="3.75003">
        <ele>1491.5</ele>
        <time>2021-08-10T11:07:39Z</time>
      </trkpt>
      <trkpt lat="44.44319" lon="3.75006">
        <ele>1491.7</ele>
        <time>2021-08-10T11:07:41Z</time>
      </trkpt>
      <trkpt lat="44.44316" lon="3.75009">
        <ele>1492</ele>
        <time>2021-08-10T11:07:43Z</time>
      </trkpt>
      <trkpt lat="44.44314" lon="3.75012">
        <ele>1492.3</ele>
        <time>2021-08-10T11:07:45Z</time>
      </trkpt>
      <trkpt lat="44.44311" lon="3.75015">
        <ele>1492.5</ele>
        <time>2021-08-10T11:07:47Z</time>
      </trkpt>
      <trkpt lat="44.44308" lon="3.75017">
        <ele>1492.9</ele>
        <time>2021-08-10T11:07:49Z</time>
      </trkpt>
      <trkpt lat="44.44306" lon="3.7502">
        <ele>1493.1</ele>
        <time>2021-08-10T11:07:51Z</time>
      </trkpt>
      <trkpt lat="44.44303" lon="3.75023">
        <ele>1493.3</ele>
        <time>2021-08-10T11:07:53Z</time>
      </trkpt>
      <trkpt lat="44.443" lon="3.75026">
        <ele>1493.7</ele>
        <time>2021-08-10T11:07:55Z</time>
      </trkpt>
      <trkpt lat="44.44298" lon="3.75029">
        <ele>1493.9</ele>
        <time>2021-08-10T11:07:57Z</time>
      </trkpt>
      <trkpt lat="44.44294" lon="3.75032">
        <ele>1494.2</ele>
        <time>2021-08-10T11:07:59Z</time>
      </trkpt>
      <trkpt lat="44.44292" lon="3.75035">
        <ele>1494.5</ele>
        <time>2021-08-10T11:08:01Z</time>
      </trkpt>
      <trkpt lat="44.44289" lon="3.75038">
        <ele>1494.8</ele>
        <time>2021-08-10T11:08:03Z</time>
      </trkpt>
      <trkpt lat="44.44286" lon="3.75042">
        <ele>1494.9</ele>
        <time>2021-08-10T11:08:05Z</time>
      </trkpt>
      <trkpt lat="44.44283" lon="3.75045">
        <ele>1495.2</ele>
        <time>2021-08-10T11:08:07Z</time>
      </trkpt>
      <trkpt lat="44.4428" lon="3.75048">
        <ele>1495.5</ele>
        <time>2021-08-10T11:08:09Z</time>
      </trkpt>
      <trkpt lat="44.44277" lon="3.75052">
        <ele>1495.8</ele>
        <time>2021-08-10T11:08:11Z</time>
      </trkpt>
      <trkpt lat="44.44274" lon="3.75055">
        <ele>1496</ele>
        <time>2021-08-10T11:08:13Z</time>
      </trkpt>
      <trkpt lat="44.44271" lon="3.75058">
        <ele>1496.2</ele>
        <time>2021-08-10T11:08:15Z</time>
      </trkpt>
      <trkpt lat="44.44268" lon="3.75061">
        <ele>1496.6</ele>
        <time>2021-08-10T11:08:17Z</time>
      </trkpt>
      <trkpt lat="44.44266" lon="3.75065">
        <ele>1496.8</ele>
        <time>2021-08-10T11:08:19Z</time>
      </trkpt>
      <trkpt lat="44.44263" lon="3.75068">
        <ele>1496.9</ele>
        <time>2021-08-10T11:08:21Z</time>
      </trkpt>
      <trkpt lat="44.44261" lon="3.75071">
        <ele>1497.1</ele>
        <time>2021-08-10T11:08:23Z</time>
      </trkpt>
      <trkpt lat="44.44258" lon="3.75075">
        <ele>1497.3</ele>
        <time>2021-08-10T11:08:25Z</time>
      </trkpt>
      <trkpt lat="44.44255" lon="3.75078">
        <ele>1497.5</ele>
        <time>2021-08-10T11:08:27Z</time>
      </trkpt>
      <trkpt lat="44.44253" lon="3.75081">
        <ele>1497.6</ele>
        <time>2021-08-10T11:08:29Z</time>
      </trkpt>
      <trkpt lat="44.4425" lon="3.75084">
        <ele>1497.8</ele>
        <time>2021-08-10T11:08:31Z</time>
      </trkpt>
      <trkpt lat="44.44248" lon="3.75087">
        <ele>1497.4</ele>
        <time>2021-08-10T11:08:33Z</time>
      </trkpt>
      <trkpt lat="44.44246" lon="3.7509">
        <ele>1497.1</ele>
        <time>2021-08-10T11:08:35Z</time>
      </trkpt>
      <trkpt lat="44.44244" lon="3.75093">
        <ele>1496.7</ele>
        <time>2021-08-10T11:08:37Z</time>
      </trkpt>
      <trkpt lat="44.44241" lon="3.75097">
        <ele>1496.3</ele>
        <time>2021-08-10T11:08:39Z</time>
      </trkpt>
      <trkpt lat="44.44238" lon="3.751">
        <ele>1496</ele>
        <time>2021-08-10T11:08:41Z</time>
      </trkpt>
      <trkpt lat="44.44235" lon="3.75103">
        <ele>1495.8</ele>
        <time>2021-08-10T11:08:43Z</time>
      </trkpt>
      <trkpt lat="44.44232" lon="3.75107">
        <ele>1495.5</ele>
        <time>2021-08-10T11:08:45Z</time>
      </trkpt>
      <trkpt lat="44.44229" lon="3.75111">
        <ele>1495</ele>
        <time>2021-08-10T11:08:47Z</time>
      </trkpt>
      <trkpt lat="44.44226" lon="3.75115">
        <ele>1494.7</ele>
        <time>2021-08-10T11:08:49Z</time>
      </trkpt>
      <trkpt lat="44.44223" lon="3.75118">
        <ele>1494.4</ele>
        <time>2021-08-10T11:08:51Z</time>
      </trkpt>
      <trkpt lat="44.4422" lon="3.7512">
        <ele>1494.5</ele>
        <time>2021-08-10T11:08:53Z</time>
      </trkpt>
      <trkpt lat="44.44218" lon="3.75124">
        <ele>1494.1</ele>
        <time>2021-08-10T11:08:55Z</time>
      </trkpt>
      <trkpt lat="44.44215" lon="3.75127">
        <ele>1493.8</ele>
        <time>2021-08-10T11:08:57Z</time>
      </trkpt>
      <trkpt lat="44.44212" lon="3.7513">
        <ele>1493.8</ele>
        <time>2021-08-10T11:08:59Z</time>
      </trkpt>
      <trkpt lat="44.44209" lon="3.75132">
        <ele>1493.9</ele>
        <time>2021-08-10T11:09:01Z</time>
      </trkpt>
      <trkpt lat="44.44207" lon="3.75134">
        <ele>1493.9</ele>
        <time>2021-08-10T11:09:03Z</time>
      </trkpt>
      <trkpt lat="44.44204" lon="3.75137">
        <ele>1493.8</ele>
        <time>2021-08-10T11:09:05Z</time>
      </trkpt>
      <trkpt lat="44.44202" lon="3.7514">
        <ele>1493.5</ele>
        <time>2021-08-10T11:09:07Z</time>
      </trkpt>
      <trkpt lat="44.44201" lon="3.75142">
        <ele>1493.5</ele>
        <time>2021-08-10T11:09:09Z</time>
      </trkpt>
      <trkpt lat="44.44201" lon="3.75141">
        <ele>1493.6</ele>
        <time>2021-08-10T11:09:11Z</time>
      </trkpt>
      <trkpt lat="44.44201" lon="3.75141">
        <ele>1493.6</ele>
        <time>2021-08-10T11:09:13Z</time>
      </trkpt>
      <trkpt lat="44.44201" lon="3.75141">
        <ele>1493.6</ele>
        <time>2021-08-10T11:09:15Z</time>
      </trkpt>
      <trkpt lat="44.44201" lon="3.75141">
        <ele>1493.6</ele>
        <time>2021-08-10T11:09:17Z</time>
      </trkpt>
      <trkpt lat="44.44186" lon="3.75141">
        <ele>1495.8</ele>
        <time>2021-08-10T11:12:25Z</time>
      </trkpt>
      <trkpt lat="44.44182" lon="3.75142">
        <ele>1496.2</ele>
        <time>2021-08-10T11:12:27Z</time>
      </trkpt>
      <trkpt lat="44.44178" lon="3.75144">
        <ele>1496.5</ele>
        <time>2021-08-10T11:12:29Z</time>
      </trkpt>
      <trkpt lat="44.44173" lon="3.75147">
        <ele>1496.8</ele>
        <time>2021-08-10T11:12:31Z</time>
      </trkpt>
      <trkpt lat="44.44169" lon="3.75149">
        <ele>1497.2</ele>
        <time>2021-08-10T11:12:33Z</time>
      </trkpt>
      <trkpt lat="44.44163" lon="3.75152">
        <ele>1497.4</ele>
        <time>2021-08-10T11:12:35Z</time>
      </trkpt>
      <trkpt lat="44.44158" lon="3.75155">
        <ele>1497.2</ele>
        <time>2021-08-10T11:12:37Z</time>
      </trkpt>
      <trkpt lat="44.44152" lon="3.75157">
        <ele>1497.2</ele>
        <time>2021-08-10T11:12:39Z</time>
      </trkpt>
      <trkpt lat="44.44146" lon="3.7516">
        <ele>1497</ele>
        <time>2021-08-10T11:12:41Z</time>
      </trkpt>
      <trkpt lat="44.4414" lon="3.75162">
        <ele>1496.9</ele>
        <time>2021-08-10T11:12:43Z</time>
      </trkpt>
      <trkpt lat="44.44134" lon="3.75165">
        <ele>1496.8</ele>
        <time>2021-08-10T11:12:45Z</time>
      </trkpt>
      <trkpt lat="44.44128" lon="3.75168">
        <ele>1496.5</ele>
        <time>2021-08-10T11:12:47Z</time>
      </trkpt>
      <trkpt lat="44.44121" lon="3.75171">
        <ele>1496.2</ele>
        <time>2021-08-10T11:12:49Z</time>
      </trkpt>
      <trkpt lat="44.44114" lon="3.75173">
        <ele>1496</ele>
        <time>2021-08-10T11:12:51Z</time>
      </trkpt>
      <trkpt lat="44.44107" lon="3.75176">
        <ele>1495.9</ele>
        <time>2021-08-10T11:12:53Z</time>
      </trkpt>
      <trkpt lat="44.44099" lon="3.75178">
        <ele>1495.9</ele>
        <time>2021-08-10T11:12:55Z</time>
      </trkpt>
      <trkpt lat="44.44091" lon="3.7518">
        <ele>1495.9</ele>
        <time>2021-08-10T11:12:57Z</time>
      </trkpt>
      <trkpt lat="44.44084" lon="3.75181">
        <ele>1496</ele>
        <time>2021-08-10T11:12:59Z</time>
      </trkpt>
      <trkpt lat="44.44077" lon="3.75183">
        <ele>1496.1</ele>
        <time>2021-08-10T11:13:01Z</time>
      </trkpt>
      <trkpt lat="44.44069" lon="3.75184">
        <ele>1496.3</ele>
        <time>2021-08-10T11:13:03Z</time>
      </trkpt>
      <trkpt lat="44.44061" lon="3.75185">
        <ele>1496.4</ele>
        <time>2021-08-10T11:13:05Z</time>
      </trkpt>
      <trkpt lat="44.44053" lon="3.75186">
        <ele>1496.7</ele>
        <time>2021-08-10T11:13:07Z</time>
      </trkpt>
      <trkpt lat="44.44045" lon="3.75186">
        <ele>1497</ele>
        <time>2021-08-10T11:13:09Z</time>
      </trkpt>
      <trkpt lat="44.44037" lon="3.75186">
        <ele>1497.4</ele>
        <time>2021-08-10T11:13:11Z</time>
      </trkpt>
      <trkpt lat="44.44029" lon="3.75186">
        <ele>1497.8</ele>
        <time>2021-08-10T11:13:13Z</time>
      </trkpt>
      <trkpt lat="44.44021" lon="3.75185">
        <ele>1498.4</ele>
        <time>2021-08-10T11:13:15Z</time>
      </trkpt>
      <trkpt lat="44.44014" lon="3.75184">
        <ele>1498.9</ele>
        <time>2021-08-10T11:13:17Z</time>
      </trkpt>
      <trkpt lat="44.44006" lon="3.75183">
        <ele>1499.5</ele>
        <time>2021-08-10T11:13:19Z</time>
      </trkpt>
      <trkpt lat="44.43998" lon="3.75183">
        <ele>1499.8</ele>
        <time>2021-08-10T11:13:21Z</time>
      </trkpt>
      <trkpt lat="44.4399" lon="3.75183">
        <ele>1499.9</ele>
        <time>2021-08-10T11:13:23Z</time>
      </trkpt>
      <trkpt lat="44.43981" lon="3.75182">
        <ele>1500</ele>
        <time>2021-08-10T11:13:25Z</time>
      </trkpt>
      <trkpt lat="44.43972" lon="3.75182">
        <ele>1500.1</ele>
        <time>2021-08-10T11:13:27Z</time>
      </trkpt>
      <trkpt lat="44.43964" lon="3.75181">
        <ele>1500.3</ele>
        <time>2021-08-10T11:13:29Z</time>
      </trkpt>
      <trkpt lat="44.43955" lon="3.7518">
        <ele>1500.4</ele>
        <time>2021-08-10T11:13:31Z</time>
      </trkpt>
      <trkpt lat="44.43946" lon="3.7518">
        <ele>1500.6</ele>
        <time>2021-08-10T11:13:33Z</time>
      </trkpt>
      <trkpt lat="44.43937" lon="3.75179">
        <ele>1500.8</ele>
        <time>2021-08-10T11:13:35Z</time>
      </trkpt>
      <trkpt lat="44.43927" lon="3.75178">
        <ele>1500.9</ele>
        <time>2021-08-10T11:13:37Z</time>
      </trkpt>
      <trkpt lat="44.43917" lon="3.75178">
        <ele>1500.9</ele>
        <time>2021-08-10T11:13:39Z</time>
      </trkpt>
      <trkpt lat="44.43907" lon="3.75179">
        <ele>1501.2</ele>
        <time>2021-08-10T11:13:41Z</time>
      </trkpt>
      <trkpt lat="44.43897" lon="3.7518">
        <ele>1501.5</ele>
        <time>2021-08-10T11:13:43Z</time>
      </trkpt>
      <trkpt lat="44.43887" lon="3.7518">
        <ele>1501.8</ele>
        <time>2021-08-10T11:13:45Z</time>
      </trkpt>
      <trkpt lat="44.43878" lon="3.75183">
        <ele>1501.8</ele>
        <time>2021-08-10T11:13:47Z</time>
      </trkpt>
      <trkpt lat="44.4387" lon="3.75185">
        <ele>1501.8</ele>
        <time>2021-08-10T11:13:49Z</time>
      </trkpt>
      <trkpt lat="44.43861" lon="3.75187">
        <ele>1501.8</ele>
        <time>2021-08-10T11:13:51Z</time>
      </trkpt>
      <trkpt lat="44.43853" lon="3.7519">
        <ele>1501.8</ele>
        <time>2021-08-10T11:13:53Z</time>
      </trkpt>
      <trkpt lat="44.43845" lon="3.75192">
        <ele>1501.7</ele>
        <time>2021-08-10T11:13:55Z</time>
      </trkpt>
      <trkpt lat="44.43837" lon="3.75195">
        <ele>1501.7</ele>
        <time>2021-08-10T11:13:57Z</time>
      </trkpt>
      <trkpt lat="44.4383" lon="3.75199">
        <ele>1501.7</ele>
        <time>2021-08-10T11:13:59Z</time>
      </trkpt>
      <trkpt lat="44.43822" lon="3.75202">
        <ele>1502</ele>
        <time>2021-08-10T11:14:01Z</time>
      </trkpt>
      <trkpt lat="44.43815" lon="3.75206">
        <ele>1502.2</ele>
        <time>2021-08-10T11:14:03Z</time>
      </trkpt>
      <trkpt lat="44.43808" lon="3.7521">
        <ele>1502.4</ele>
        <time>2021-08-10T11:14:05Z</time>
      </trkpt>
      <trkpt lat="44.43802" lon="3.75215">
        <ele>1502.4</ele>
        <time>2021-08-10T11:14:07Z</time>
      </trkpt>
      <trkpt lat="44.43795" lon="3.75219">
        <ele>1502.6</ele>
        <time>2021-08-10T11:14:09Z</time>
      </trkpt>
      <trkpt lat="44.43789" lon="3.75224">
        <ele>1502.6</ele>
        <time>2021-08-10T11:14:11Z</time>
      </trkpt>
      <trkpt lat="44.43783" lon="3.75228">
        <ele>1502.7</ele>
        <time>2021-08-10T11:14:13Z</time>
      </trkpt>
      <trkpt lat="44.43776" lon="3.75233">
        <ele>1502.8</ele>
        <time>2021-08-10T11:14:15Z</time>
      </trkpt>
      <trkpt lat="44.4377" lon="3.75238">
        <ele>1502.9</ele>
        <time>2021-08-10T11:14:17Z</time>
      </trkpt>
      <trkpt lat="44.43764" lon="3.75243">
        <ele>1503.1</ele>
        <time>2021-08-10T11:14:19Z</time>
      </trkpt>
      <trkpt lat="44.43758" lon="3.75248">
        <ele>1503.3</ele>
        <time>2021-08-10T11:14:21Z</time>
      </trkpt>
      <trkpt lat="44.43752" lon="3.75252">
        <ele>1503.6</ele>
        <time>2021-08-10T11:14:23Z</time>
      </trkpt>
      <trkpt lat="44.43746" lon="3.75257">
        <ele>1503.8</ele>
        <time>2021-08-10T11:14:25Z</time>
      </trkpt>
      <trkpt lat="44.4374" lon="3.75262">
        <ele>1503.9</ele>
        <time>2021-08-10T11:14:27Z</time>
      </trkpt>
      <trkpt lat="44.43734" lon="3.75266">
        <ele>1504</ele>
        <time>2021-08-10T11:14:29Z</time>
      </trkpt>
      <trkpt lat="44.43728" lon="3.75271">
        <ele>1504</ele>
        <time>2021-08-10T11:14:31Z</time>
      </trkpt>
      <trkpt lat="44.43723" lon="3.75274">
        <ele>1504.1</ele>
        <time>2021-08-10T11:14:33Z</time>
      </trkpt>
      <trkpt lat="44.43717" lon="3.75279">
        <ele>1504.1</ele>
        <time>2021-08-10T11:14:35Z</time>
      </trkpt>
      <trkpt lat="44.43711" lon="3.75283">
        <ele>1504.1</ele>
        <time>2021-08-10T11:14:37Z</time>
      </trkpt>
      <trkpt lat="44.43705" lon="3.75287">
        <ele>1504.1</ele>
        <time>2021-08-10T11:14:39Z</time>
      </trkpt>
      <trkpt lat="44.43699" lon="3.75292">
        <ele>1504</ele>
        <time>2021-08-10T11:14:41Z</time>
      </trkpt>
      <trkpt lat="44.43693" lon="3.75296">
        <ele>1503.9</ele>
        <time>2021-08-10T11:14:43Z</time>
      </trkpt>
      <trkpt lat="44.43686" lon="3.75299">
        <ele>1503.9</ele>
        <time>2021-08-10T11:14:45Z</time>
      </trkpt>
      <trkpt lat="44.4368" lon="3.75303">
        <ele>1503.8</ele>
        <time>2021-08-10T11:14:47Z</time>
      </trkpt>
      <trkpt lat="44.43674" lon="3.75306">
        <ele>1503.8</ele>
        <time>2021-08-10T11:14:49Z</time>
      </trkpt>
      <trkpt lat="44.43667" lon="3.75309">
        <ele>1503.8</ele>
        <time>2021-08-10T11:14:51Z</time>
      </trkpt>
      <trkpt lat="44.4366" lon="3.7531">
        <ele>1504</ele>
        <time>2021-08-10T11:14:53Z</time>
      </trkpt>
      <trkpt lat="44.43654" lon="3.75311">
        <ele>1504.2</ele>
        <time>2021-08-10T11:14:55Z</time>
      </trkpt>
      <trkpt lat="44.43647" lon="3.75313">
        <ele>1504.3</ele>
        <time>2021-08-10T11:14:57Z</time>
      </trkpt>
      <trkpt lat="44.43641" lon="3.75313">
        <ele>1504.6</ele>
        <time>2021-08-10T11:14:59Z</time>
      </trkpt>
      <trkpt lat="44.43634" lon="3.75314">
        <ele>1504.8</ele>
        <time>2021-08-10T11:15:01Z</time>
      </trkpt>
      <trkpt lat="44.43627" lon="3.75314">
        <ele>1505.3</ele>
        <time>2021-08-10T11:15:03Z</time>
      </trkpt>
      <trkpt lat="44.43621" lon="3.75314">
        <ele>1505.5</ele>
        <time>2021-08-10T11:15:05Z</time>
      </trkpt>
      <trkpt lat="44.43614" lon="3.75315">
        <ele>1505.8</ele>
        <time>2021-08-10T11:15:07Z</time>
      </trkpt>
      <trkpt lat="44.43607" lon="3.75316">
        <ele>1506.1</ele>
        <time>2021-08-10T11:15:09Z</time>
      </trkpt>
      <trkpt lat="44.436" lon="3.75316">
        <ele>1506.4</ele>
        <time>2021-08-10T11:15:11Z</time>
      </trkpt>
      <trkpt lat="44.43594" lon="3.75317">
        <ele>1506.5</ele>
        <time>2021-08-10T11:15:13Z</time>
      </trkpt>
      <trkpt lat="44.43587" lon="3.75319">
        <ele>1506.6</ele>
        <time>2021-08-10T11:15:15Z</time>
      </trkpt>
      <trkpt lat="44.43581" lon="3.75321">
        <ele>1506.8</ele>
        <time>2021-08-10T11:15:17Z</time>
      </trkpt>
      <trkpt lat="44.43575" lon="3.75324">
        <ele>1507</ele>
        <time>2021-08-10T11:15:19Z</time>
      </trkpt>
      <trkpt lat="44.43569" lon="3.75328">
        <ele>1507.2</ele>
        <time>2021-08-10T11:15:21Z</time>
      </trkpt>
      <trkpt lat="44.43563" lon="3.75333">
        <ele>1507.2</ele>
        <time>2021-08-10T11:15:23Z</time>
      </trkpt>
      <trkpt lat="44.43558" lon="3.75337">
        <ele>1507.4</ele>
        <time>2021-08-10T11:15:25Z</time>
      </trkpt>
      <trkpt lat="44.43553" lon="3.75343">
        <ele>1507.3</ele>
        <time>2021-08-10T11:15:27Z</time>
      </trkpt>
      <trkpt lat="44.43548" lon="3.75349">
        <ele>1507.2</ele>
        <time>2021-08-10T11:15:29Z</time>
      </trkpt>
      <trkpt lat="44.43543" lon="3.75356">
        <ele>1507.1</ele>
        <time>2021-08-10T11:15:31Z</time>
      </trkpt>
      <trkpt lat="44.43539" lon="3.75363">
        <ele>1506.8</ele>
        <time>2021-08-10T11:15:33Z</time>
      </trkpt>
      <trkpt lat="44.43535" lon="3.75371">
        <ele>1506.6</ele>
        <time>2021-08-10T11:15:35Z</time>
      </trkpt>
      <trkpt lat="44.43531" lon="3.75378">
        <ele>1506.2</ele>
        <time>2021-08-10T11:15:37Z</time>
      </trkpt>
      <trkpt lat="44.43527" lon="3.75385">
        <ele>1506</ele>
        <time>2021-08-10T11:15:39Z</time>
      </trkpt>
      <trkpt lat="44.43522" lon="3.75393">
        <ele>1505.9</ele>
        <time>2021-08-10T11:15:41Z</time>
      </trkpt>
      <trkpt lat="44.43518" lon="3.75401">
        <ele>1505.6</ele>
        <time>2021-08-10T11:15:43Z</time>
      </trkpt>
      <trkpt lat="44.43513" lon="3.75408">
        <ele>1505.5</ele>
        <time>2021-08-10T11:15:45Z</time>
      </trkpt>
      <trkpt lat="44.43508" lon="3.75415">
        <ele>1505.6</ele>
        <time>2021-08-10T11:15:47Z</time>
      </trkpt>
      <trkpt lat="44.43503" lon="3.75422">
        <ele>1505.8</ele>
        <time>2021-08-10T11:15:49Z</time>
      </trkpt>
      <trkpt lat="44.43498" lon="3.75429">
        <ele>1506.1</ele>
        <time>2021-08-10T11:15:51Z</time>
      </trkpt>
      <trkpt lat="44.43492" lon="3.75436">
        <ele>1506.3</ele>
        <time>2021-08-10T11:15:53Z</time>
      </trkpt>
      <trkpt lat="44.43487" lon="3.75442">
        <ele>1506.5</ele>
        <time>2021-08-10T11:15:55Z</time>
      </trkpt>
      <trkpt lat="44.43481" lon="3.75448">
        <ele>1506.7</ele>
        <time>2021-08-10T11:15:57Z</time>
      </trkpt>
      <trkpt lat="44.43476" lon="3.75455">
        <ele>1506.9</ele>
        <time>2021-08-10T11:15:59Z</time>
      </trkpt>
      <trkpt lat="44.4347" lon="3.75461">
        <ele>1507.2</ele>
        <time>2021-08-10T11:16:01Z</time>
      </trkpt>
      <trkpt lat="44.43464" lon="3.75468">
        <ele>1507.5</ele>
        <time>2021-08-10T11:16:03Z</time>
      </trkpt>
      <trkpt lat="44.43459" lon="3.75474">
        <ele>1507.7</ele>
        <time>2021-08-10T11:16:05Z</time>
      </trkpt>
      <trkpt lat="44.43454" lon="3.7548">
        <ele>1508</ele>
        <time>2021-08-10T11:16:07Z</time>
      </trkpt>
      <trkpt lat="44.43449" lon="3.75486">
        <ele>1508.2</ele>
        <time>2021-08-10T11:16:09Z</time>
      </trkpt>
      <trkpt lat="44.43443" lon="3.75492">
        <ele>1508.6</ele>
        <time>2021-08-10T11:16:11Z</time>
      </trkpt>
      <trkpt lat="44.43438" lon="3.75498">
        <ele>1508.8</ele>
        <time>2021-08-10T11:16:13Z</time>
      </trkpt>
      <trkpt lat="44.43433" lon="3.75504">
        <ele>1509.2</ele>
        <time>2021-08-10T11:16:15Z</time>
      </trkpt>
      <trkpt lat="44.43428" lon="3.75509">
        <ele>1509.6</ele>
        <time>2021-08-10T11:16:17Z</time>
      </trkpt>
      <trkpt lat="44.43423" lon="3.75514">
        <ele>1510.1</ele>
        <time>2021-08-10T11:16:19Z</time>
      </trkpt>
      <trkpt lat="44.43418" lon="3.7552">
        <ele>1510.4</ele>
        <time>2021-08-10T11:16:21Z</time>
      </trkpt>
      <trkpt lat="44.43413" lon="3.75526">
        <ele>1510.7</ele>
        <time>2021-08-10T11:16:23Z</time>
      </trkpt>
      <trkpt lat="44.43407" lon="3.75531">
        <ele>1511</ele>
        <time>2021-08-10T11:16:25Z</time>
      </trkpt>
      <trkpt lat="44.43402" lon="3.75537">
        <ele>1511.3</ele>
        <time>2021-08-10T11:16:27Z</time>
      </trkpt>
      <trkpt lat="44.43396" lon="3.75544">
        <ele>1511.5</ele>
        <time>2021-08-10T11:16:29Z</time>
      </trkpt>
      <trkpt lat="44.43391" lon="3.7555">
        <ele>1511.8</ele>
        <time>2021-08-10T11:16:31Z</time>
      </trkpt>
      <trkpt lat="44.43385" lon="3.75556">
        <ele>1512.1</ele>
        <time>2021-08-10T11:16:33Z</time>
      </trkpt>
      <trkpt lat="44.4338" lon="3.75562">
        <ele>1512.4</ele>
        <time>2021-08-10T11:16:35Z</time>
      </trkpt>
      <trkpt lat="44.43374" lon="3.75569">
        <ele>1512.7</ele>
        <time>2021-08-10T11:16:37Z</time>
      </trkpt>
      <trkpt lat="44.43368" lon="3.75575">
        <ele>1513</ele>
        <time>2021-08-10T11:16:39Z</time>
      </trkpt>
      <trkpt lat="44.43363" lon="3.75582">
        <ele>1513.2</ele>
        <time>2021-08-10T11:16:41Z</time>
      </trkpt>
      <trkpt lat="44.43358" lon="3.7559">
        <ele>1513.7</ele>
        <time>2021-08-10T11:16:43Z</time>
      </trkpt>
      <trkpt lat="44.43353" lon="3.75598">
        <ele>1514.2</ele>
        <time>2021-08-10T11:16:45Z</time>
      </trkpt>
      <trkpt lat="44.4335" lon="3.75608">
        <ele>1514.4</ele>
        <time>2021-08-10T11:16:47Z</time>
      </trkpt>
      <trkpt lat="44.43347" lon="3.75617">
        <ele>1514.5</ele>
        <time>2021-08-10T11:16:49Z</time>
      </trkpt>
      <trkpt lat="44.43346" lon="3.75627">
        <ele>1514.5</ele>
        <time>2021-08-10T11:16:51Z</time>
      </trkpt>
      <trkpt lat="44.43345" lon="3.75637">
        <ele>1514.4</ele>
        <time>2021-08-10T11:16:53Z</time>
      </trkpt>
      <trkpt lat="44.43345" lon="3.75647">
        <ele>1514.2</ele>
        <time>2021-08-10T11:16:55Z</time>
      </trkpt>
      <trkpt lat="44.43346" lon="3.75658">
        <ele>1514</ele>
        <time>2021-08-10T11:16:57Z</time>
      </trkpt>
      <trkpt lat="44.43347" lon="3.75668">
        <ele>1513.7</ele>
        <time>2021-08-10T11:16:59Z</time>
      </trkpt>
      <trkpt lat="44.43347" lon="3.75679">
        <ele>1513.6</ele>
        <time>2021-08-10T11:17:01Z</time>
      </trkpt>
      <trkpt lat="44.43348" lon="3.7569">
        <ele>1513.5</ele>
        <time>2021-08-10T11:17:03Z</time>
      </trkpt>
      <trkpt lat="44.43349" lon="3.75701">
        <ele>1513.4</ele>
        <time>2021-08-10T11:17:05Z</time>
      </trkpt>
      <trkpt lat="44.4335" lon="3.75712">
        <ele>1513.3</ele>
        <time>2021-08-10T11:17:07Z</time>
      </trkpt>
      <trkpt lat="44.4335" lon="3.75723">
        <ele>1513.2</ele>
        <time>2021-08-10T11:17:09Z</time>
      </trkpt>
      <trkpt lat="44.43351" lon="3.75734">
        <ele>1513.2</ele>
        <time>2021-08-10T11:17:11Z</time>
      </trkpt>
      <trkpt lat="44.43351" lon="3.75744">
        <ele>1513.1</ele>
        <time>2021-08-10T11:17:13Z</time>
      </trkpt>
      <trkpt lat="44.43352" lon="3.75755">
        <ele>1513.2</ele>
        <time>2021-08-10T11:17:15Z</time>
      </trkpt>
      <trkpt lat="44.43353" lon="3.75766">
        <ele>1513.3</ele>
        <time>2021-08-10T11:17:17Z</time>
      </trkpt>
      <trkpt lat="44.43353" lon="3.75777">
        <ele>1513.5</ele>
        <time>2021-08-10T11:17:19Z</time>
      </trkpt>
      <trkpt lat="44.43352" lon="3.75787">
        <ele>1513.6</ele>
        <time>2021-08-10T11:17:21Z</time>
      </trkpt>
      <trkpt lat="44.43351" lon="3.75798">
        <ele>1513.8</ele>
        <time>2021-08-10T11:17:23Z</time>
      </trkpt>
      <trkpt lat="44.4335" lon="3.75809">
        <ele>1514</ele>
        <time>2021-08-10T11:17:25Z</time>
      </trkpt>
      <trkpt lat="44.43348" lon="3.7582">
        <ele>1514.3</ele>
        <time>2021-08-10T11:17:27Z</time>
      </trkpt>
      <trkpt lat="44.43347" lon="3.7583">
        <ele>1514.5</ele>
        <time>2021-08-10T11:17:29Z</time>
      </trkpt>
      <trkpt lat="44.43345" lon="3.7584">
        <ele>1514.6</ele>
        <time>2021-08-10T11:17:31Z</time>
      </trkpt>
      <trkpt lat="44.43343" lon="3.75851">
        <ele>1514.6</ele>
        <time>2021-08-10T11:17:33Z</time>
      </trkpt>
      <trkpt lat="44.43341" lon="3.7586">
        <ele>1514.7</ele>
        <time>2021-08-10T11:17:35Z</time>
      </trkpt>
      <trkpt lat="44.43339" lon="3.7587">
        <ele>1514.7</ele>
        <time>2021-08-10T11:17:37Z</time>
      </trkpt>
      <trkpt lat="44.43336" lon="3.7588">
        <ele>1514.8</ele>
        <time>2021-08-10T11:17:39Z</time>
      </trkpt>
      <trkpt lat="44.43334" lon="3.7589">
        <ele>1515</ele>
        <time>2021-08-10T11:17:41Z</time>
      </trkpt>
      <trkpt lat="44.43331" lon="3.75899">
        <ele>1515.2</ele>
        <time>2021-08-10T11:17:43Z</time>
      </trkpt>
      <trkpt lat="44.43329" lon="3.75908">
        <ele>1515.6</ele>
        <time>2021-08-10T11:17:45Z</time>
      </trkpt>
      <trkpt lat="44.43326" lon="3.75917">
        <ele>1515.9</ele>
        <time>2021-08-10T11:17:47Z</time>
      </trkpt>
      <trkpt lat="44.43322" lon="3.75926">
        <ele>1516.4</ele>
        <time>2021-08-10T11:17:49Z</time>
      </trkpt>
      <trkpt lat="44.43319" lon="3.75935">
        <ele>1516.9</ele>
        <time>2021-08-10T11:17:51Z</time>
      </trkpt>
      <trkpt lat="44.43315" lon="3.75943">
        <ele>1517.3</ele>
        <time>2021-08-10T11:17:53Z</time>
      </trkpt>
      <trkpt lat="44.43311" lon="3.75952">
        <ele>1517.7</ele>
        <time>2021-08-10T11:17:55Z</time>
      </trkpt>
      <trkpt lat="44.43307" lon="3.75961">
        <ele>1518.2</ele>
        <time>2021-08-10T11:17:57Z</time>
      </trkpt>
      <trkpt lat="44.43303" lon="3.7597">
        <ele>1518.6</ele>
        <time>2021-08-10T11:17:59Z</time>
      </trkpt>
      <trkpt lat="44.43299" lon="3.75979">
        <ele>1518.9</ele>
        <time>2021-08-10T11:18:01Z</time>
      </trkpt>
      <trkpt lat="44.43295" lon="3.75988">
        <ele>1519.3</ele>
        <time>2021-08-10T11:18:03Z</time>
      </trkpt>
      <trkpt lat="44.43291" lon="3.75996">
        <ele>1519.5</ele>
        <time>2021-08-10T11:18:05Z</time>
      </trkpt>
      <trkpt lat="44.43288" lon="3.76005">
        <ele>1519.8</ele>
        <time>2021-08-10T11:18:07Z</time>
      </trkpt>
      <trkpt lat="44.43285" lon="3.76015">
        <ele>1520</ele>
        <time>2021-08-10T11:18:09Z</time>
      </trkpt>
      <trkpt lat="44.43282" lon="3.76024">
        <ele>1520.1</ele>
        <time>2021-08-10T11:18:11Z</time>
      </trkpt>
      <trkpt lat="44.43279" lon="3.76035">
        <ele>1520.3</ele>
        <time>2021-08-10T11:18:13Z</time>
      </trkpt>
      <trkpt lat="44.43276" lon="3.76045">
        <ele>1520.4</ele>
        <time>2021-08-10T11:18:15Z</time>
      </trkpt>
      <trkpt lat="44.43273" lon="3.76055">
        <ele>1520.6</ele>
        <time>2021-08-10T11:18:17Z</time>
      </trkpt>
      <trkpt lat="44.43271" lon="3.76066">
        <ele>1520.7</ele>
        <time>2021-08-10T11:18:19Z</time>
      </trkpt>
      <trkpt lat="44.43268" lon="3.76076">
        <ele>1520.8</ele>
        <time>2021-08-10T11:18:21Z</time>
      </trkpt>
      <trkpt lat="44.43266" lon="3.76086">
        <ele>1520.9</ele>
        <time>2021-08-10T11:18:23Z</time>
      </trkpt>
      <trkpt lat="44.43263" lon="3.76096">
        <ele>1521</ele>
        <time>2021-08-10T11:18:25Z</time>
      </trkpt>
      <trkpt lat="44.43261" lon="3.76106">
        <ele>1521.2</ele>
        <time>2021-08-10T11:18:27Z</time>
      </trkpt>
      <trkpt lat="44.43259" lon="3.76115">
        <ele>1521.3</ele>
        <time>2021-08-10T11:18:29Z</time>
      </trkpt>
      <trkpt lat="44.43256" lon="3.76125">
        <ele>1521.5</ele>
        <time>2021-08-10T11:18:31Z</time>
      </trkpt>
      <trkpt lat="44.43254" lon="3.76134">
        <ele>1521.7</ele>
        <time>2021-08-10T11:18:33Z</time>
      </trkpt>
      <trkpt lat="44.43252" lon="3.76143">
        <ele>1521.8</ele>
        <time>2021-08-10T11:18:35Z</time>
      </trkpt>
      <trkpt lat="44.4325" lon="3.76153">
        <ele>1522</ele>
        <time>2021-08-10T11:18:37Z</time>
      </trkpt>
      <trkpt lat="44.43249" lon="3.76162">
        <ele>1522.2</ele>
        <time>2021-08-10T11:18:39Z</time>
      </trkpt>
      <trkpt lat="44.43247" lon="3.76171">
        <ele>1522.4</ele>
        <time>2021-08-10T11:18:41Z</time>
      </trkpt>
      <trkpt lat="44.43246" lon="3.7618">
        <ele>1522.6</ele>
        <time>2021-08-10T11:18:43Z</time>
      </trkpt>
      <trkpt lat="44.43246" lon="3.76189">
        <ele>1522.6</ele>
        <time>2021-08-10T11:18:45Z</time>
      </trkpt>
      <trkpt lat="44.43247" lon="3.76198">
        <ele>1522.5</ele>
        <time>2021-08-10T11:18:47Z</time>
      </trkpt>
      <trkpt lat="44.43248" lon="3.76207">
        <ele>1522.4</ele>
        <time>2021-08-10T11:18:49Z</time>
      </trkpt>
      <trkpt lat="44.43248" lon="3.76215">
        <ele>1522.3</ele>
        <time>2021-08-10T11:18:51Z</time>
      </trkpt>
      <trkpt lat="44.4325" lon="3.76222">
        <ele>1522</ele>
        <time>2021-08-10T11:18:53Z</time>
      </trkpt>
      <trkpt lat="44.43252" lon="3.76228">
        <ele>1521.8</ele>
        <time>2021-08-10T11:18:55Z</time>
      </trkpt>
      <trkpt lat="44.43254" lon="3.7623">
        <ele>1521.7</ele>
        <time>2021-08-10T11:18:57Z</time>
      </trkpt>
      <trkpt lat="44.43255" lon="3.7623">
        <ele>1521.6</ele>
        <time>2021-08-10T11:18:59Z</time>
      </trkpt>
      <trkpt lat="44.43255" lon="3.76229">
        <ele>1521.6</ele>
        <time>2021-08-10T11:19:01Z</time>
      </trkpt>
      <trkpt lat="44.43255" lon="3.7623">
        <ele>1521.6</ele>
        <time>2021-08-10T11:19:03Z</time>
      </trkpt>
      <trkpt lat="44.43255" lon="3.7623">
        <ele>1521.6</ele>
        <time>2021-08-10T11:19:05Z</time>
      </trkpt>
      <trkpt lat="44.43255" lon="3.7623">
        <ele>1521.6</ele>
        <time>2021-08-10T11:19:07Z</time>
      </trkpt>
      <trkpt lat="44.43249" lon="3.76247">
        <ele>1522.1</ele>
        <time>2021-08-10T11:23:19Z</time>
      </trkpt>
      <trkpt lat="44.43248" lon="3.76255">
        <ele>1522.2</ele>
        <time>2021-08-10T11:23:21Z</time>
      </trkpt>
      <trkpt lat="44.43247" lon="3.76263">
        <ele>1522.2</ele>
        <time>2021-08-10T11:23:23Z</time>
      </trkpt>
      <trkpt lat="44.43246" lon="3.76272">
        <ele>1522.2</ele>
        <time>2021-08-10T11:23:25Z</time>
      </trkpt>
      <trkpt lat="44.43245" lon="3.76281">
        <ele>1522.2</ele>
        <time>2021-08-10T11:23:27Z</time>
      </trkpt>
      <trkpt lat="44.43244" lon="3.7629">
        <ele>1522.3</ele>
        <time>2021-08-10T11:23:29Z</time>
      </trkpt>
      <trkpt lat="44.43242" lon="3.76298">
        <ele>1522.3</ele>
        <time>2021-08-10T11:23:31Z</time>
      </trkpt>
      <trkpt lat="44.4324" lon="3.76307">
        <ele>1522.4</ele>
        <time>2021-08-10T11:23:33Z</time>
      </trkpt>
      <trkpt lat="44.43239" lon="3.76316">
        <ele>1522.5</ele>
        <time>2021-08-10T11:23:35Z</time>
      </trkpt>
      <trkpt lat="44.43237" lon="3.76324">
        <ele>1522.6</ele>
        <time>2021-08-10T11:23:37Z</time>
      </trkpt>
      <trkpt lat="44.43234" lon="3.76332">
        <ele>1522.8</ele>
        <time>2021-08-10T11:23:39Z</time>
      </trkpt>
      <trkpt lat="44.43231" lon="3.7634">
        <ele>1522.7</ele>
        <time>2021-08-10T11:23:41Z</time>
      </trkpt>
      <trkpt lat="44.43227" lon="3.76348">
        <ele>1522.7</ele>
        <time>2021-08-10T11:23:43Z</time>
      </trkpt>
      <trkpt lat="44.43222" lon="3.76354">
        <ele>1522.8</ele>
        <time>2021-08-10T11:23:45Z</time>
      </trkpt>
      <trkpt lat="44.43217" lon="3.76361">
        <ele>1523</ele>
        <time>2021-08-10T11:23:47Z</time>
      </trkpt>
      <trkpt lat="44.43212" lon="3.76367">
        <ele>1523.1</ele>
        <time>2021-08-10T11:23:49Z</time>
      </trkpt>
      <trkpt lat="44.43206" lon="3.76372">
        <ele>1523.4</ele>
        <time>2021-08-10T11:23:51Z</time>
      </trkpt>
      <trkpt lat="44.43201" lon="3.76378">
        <ele>1523.5</ele>
        <time>2021-08-10T11:23:53Z</time>
      </trkpt>
      <trkpt lat="44.43196" lon="3.76383">
        <ele>1523.7</ele>
        <time>2021-08-10T11:23:55Z</time>
      </trkpt>
      <trkpt lat="44.43191" lon="3.76388">
        <ele>1523.8</ele>
        <time>2021-08-10T11:23:57Z</time>
      </trkpt>
      <trkpt lat="44.43186" lon="3.76393">
        <ele>1523.9</ele>
        <time>2021-08-10T11:23:59Z</time>
      </trkpt>
      <trkpt lat="44.43181" lon="3.76398">
        <ele>1524.1</ele>
        <time>2021-08-10T11:24:01Z</time>
      </trkpt>
      <trkpt lat="44.43175" lon="3.76404">
        <ele>1524.2</ele>
        <time>2021-08-10T11:24:03Z</time>
      </trkpt>
      <trkpt lat="44.4317" lon="3.7641">
        <ele>1524.2</ele>
        <time>2021-08-10T11:24:05Z</time>
      </trkpt>
      <trkpt lat="44.43164" lon="3.76414">
        <ele>1524.4</ele>
        <time>2021-08-10T11:24:07Z</time>
      </trkpt>
      <trkpt lat="44.43159" lon="3.76419">
        <ele>1524.4</ele>
        <time>2021-08-10T11:24:09Z</time>
      </trkpt>
      <trkpt lat="44.43153" lon="3.76424">
        <ele>1524.5</ele>
        <time>2021-08-10T11:24:11Z</time>
      </trkpt>
      <trkpt lat="44.43147" lon="3.7643">
        <ele>1524.5</ele>
        <time>2021-08-10T11:24:13Z</time>
      </trkpt>
      <trkpt lat="44.43141" lon="3.76435">
        <ele>1524.6</ele>
        <time>2021-08-10T11:24:15Z</time>
      </trkpt>
      <trkpt lat="44.43135" lon="3.76441">
        <ele>1524.6</ele>
        <time>2021-08-10T11:24:17Z</time>
      </trkpt>
      <trkpt lat="44.4313" lon="3.76446">
        <ele>1524.7</ele>
        <time>2021-08-10T11:24:19Z</time>
      </trkpt>
      <trkpt lat="44.43124" lon="3.76451">
        <ele>1524.8</ele>
        <time>2021-08-10T11:24:21Z</time>
      </trkpt>
      <trkpt lat="44.43118" lon="3.76457">
        <ele>1524.9</ele>
        <time>2021-08-10T11:24:23Z</time>
      </trkpt>
      <trkpt lat="44.43112" lon="3.76462">
        <ele>1525</ele>
        <time>2021-08-10T11:24:25Z</time>
      </trkpt>
      <trkpt lat="44.43107" lon="3.76468">
        <ele>1525.1</ele>
        <time>2021-08-10T11:24:27Z</time>
      </trkpt>
      <trkpt lat="44.43101" lon="3.76473">
        <ele>1525.2</ele>
        <time>2021-08-10T11:24:29Z</time>
      </trkpt>
      <trkpt lat="44.43095" lon="3.76479">
        <ele>1525.3</ele>
        <time>2021-08-10T11:24:31Z</time>
      </trkpt>
      <trkpt lat="44.43089" lon="3.76484">
        <ele>1525.4</ele>
        <time>2021-08-10T11:24:33Z</time>
      </trkpt>
      <trkpt lat="44.43083" lon="3.7649">
        <ele>1525.6</ele>
        <time>2021-08-10T11:24:35Z</time>
      </trkpt>
      <trkpt lat="44.43077" lon="3.76495">
        <ele>1525.5</ele>
        <time>2021-08-10T11:24:37Z</time>
      </trkpt>
      <trkpt lat="44.4307" lon="3.76499">
        <ele>1525.4</ele>
        <time>2021-08-10T11:24:39Z</time>
      </trkpt>
      <trkpt lat="44.43064" lon="3.76503">
        <ele>1525.3</ele>
        <time>2021-08-10T11:24:41Z</time>
      </trkpt>
      <trkpt lat="44.43057" lon="3.76505">
        <ele>1525.4</ele>
        <time>2021-08-10T11:24:43Z</time>
      </trkpt>
      <trkpt lat="44.4305" lon="3.76507">
        <ele>1525.4</ele>
        <time>2021-08-10T11:24:45Z</time>
      </trkpt>
      <trkpt lat="44.43043" lon="3.76508">
        <ele>1525.5</ele>
        <time>2021-08-10T11:24:47Z</time>
      </trkpt>
      <trkpt lat="44.43036" lon="3.76509">
        <ele>1525.7</ele>
        <time>2021-08-10T11:24:49Z</time>
      </trkpt>
      <trkpt lat="44.4303" lon="3.76508">
        <ele>1525.8</ele>
        <time>2021-08-10T11:24:51Z</time>
      </trkpt>
      <trkpt lat="44.43023" lon="3.76506">
        <ele>1526.1</ele>
        <time>2021-08-10T11:24:53Z</time>
      </trkpt>
      <trkpt lat="44.43017" lon="3.76504">
        <ele>1526.3</ele>
        <time>2021-08-10T11:24:55Z</time>
      </trkpt>
      <trkpt lat="44.43011" lon="3.76502">
        <ele>1526.6</ele>
        <time>2021-08-10T11:24:57Z</time>
      </trkpt>
      <trkpt lat="44.43004" lon="3.765">
        <ele>1526.9</ele>
        <time>2021-08-10T11:24:59Z</time>
      </trkpt>
      <trkpt lat="44.42998" lon="3.76498">
        <ele>1527.1</ele>
        <time>2021-08-10T11:25:01Z</time>
      </trkpt>
      <trkpt lat="44.42992" lon="3.76495">
        <ele>1527.2</ele>
        <time>2021-08-10T11:25:03Z</time>
      </trkpt>
      <trkpt lat="44.42986" lon="3.76493">
        <ele>1527.2</ele>
        <time>2021-08-10T11:25:05Z</time>
      </trkpt>
      <trkpt lat="44.4298" lon="3.7649">
        <ele>1527.2</ele>
        <time>2021-08-10T11:25:07Z</time>
      </trkpt>
      <trkpt lat="44.42974" lon="3.76486">
        <ele>1527.3</ele>
        <time>2021-08-10T11:25:09Z</time>
      </trkpt>
      <trkpt lat="44.42968" lon="3.76483">
        <ele>1527.4</ele>
        <time>2021-08-10T11:25:11Z</time>
      </trkpt>
      <trkpt lat="44.42962" lon="3.7648">
        <ele>1527.5</ele>
        <time>2021-08-10T11:25:13Z</time>
      </trkpt>
      <trkpt lat="44.42956" lon="3.76478">
        <ele>1527.5</ele>
        <time>2021-08-10T11:25:15Z</time>
      </trkpt>
      <trkpt lat="44.4295" lon="3.76475">
        <ele>1527.7</ele>
        <time>2021-08-10T11:25:17Z</time>
      </trkpt>
      <trkpt lat="44.42943" lon="3.76472">
        <ele>1527.8</ele>
        <time>2021-08-10T11:25:19Z</time>
      </trkpt>
      <trkpt lat="44.42937" lon="3.76469">
        <ele>1527.9</ele>
        <time>2021-08-10T11:25:21Z</time>
      </trkpt>
      <trkpt lat="44.4293" lon="3.76466">
        <ele>1528</ele>
        <time>2021-08-10T11:25:23Z</time>
      </trkpt>
      <trkpt lat="44.42923" lon="3.76464">
        <ele>1528.1</ele>
        <time>2021-08-10T11:25:25Z</time>
      </trkpt>
      <trkpt lat="44.42917" lon="3.76461">
        <ele>1528.2</ele>
        <time>2021-08-10T11:25:27Z</time>
      </trkpt>
      <trkpt lat="44.4291" lon="3.76459">
        <ele>1528.1</ele>
        <time>2021-08-10T11:25:29Z</time>
      </trkpt>
      <trkpt lat="44.42903" lon="3.76458">
        <ele>1527.9</ele>
        <time>2021-08-10T11:25:31Z</time>
      </trkpt>
      <trkpt lat="44.42897" lon="3.76456">
        <ele>1527.7</ele>
        <time>2021-08-10T11:25:33Z</time>
      </trkpt>
      <trkpt lat="44.4289" lon="3.76454">
        <ele>1527.6</ele>
        <time>2021-08-10T11:25:35Z</time>
      </trkpt>
      <trkpt lat="44.42883" lon="3.76454">
        <ele>1527.3</ele>
        <time>2021-08-10T11:25:37Z</time>
      </trkpt>
      <trkpt lat="44.42878" lon="3.76453">
        <ele>1527.1</ele>
        <time>2021-08-10T11:25:39Z</time>
      </trkpt>
      <trkpt lat="44.42872" lon="3.76453">
        <ele>1526.9</ele>
        <time>2021-08-10T11:25:41Z</time>
      </trkpt>
      <trkpt lat="44.42866" lon="3.76452">
        <ele>1526.6</ele>
        <time>2021-08-10T11:25:43Z</time>
      </trkpt>
      <trkpt lat="44.42859" lon="3.76452">
        <ele>1526.4</ele>
        <time>2021-08-10T11:25:45Z</time>
      </trkpt>
      <trkpt lat="44.42854" lon="3.76452">
        <ele>1526</ele>
        <time>2021-08-10T11:25:47Z</time>
      </trkpt>
      <trkpt lat="44.42848" lon="3.76452">
        <ele>1525.8</ele>
        <time>2021-08-10T11:25:49Z</time>
      </trkpt>
      <trkpt lat="44.42842" lon="3.76451">
        <ele>1525.5</ele>
        <time>2021-08-10T11:25:51Z</time>
      </trkpt>
      <trkpt lat="44.42835" lon="3.76451">
        <ele>1525.2</ele>
        <time>2021-08-10T11:25:53Z</time>
      </trkpt>
      <trkpt lat="44.42829" lon="3.76451">
        <ele>1525.2</ele>
        <time>2021-08-10T11:25:55Z</time>
      </trkpt>
      <trkpt lat="44.42823" lon="3.76452">
        <ele>1525.3</ele>
        <time>2021-08-10T11:25:57Z</time>
      </trkpt>
      <trkpt lat="44.42817" lon="3.76452">
        <ele>1525.4</ele>
        <time>2021-08-10T11:25:59Z</time>
      </trkpt>
      <trkpt lat="44.42811" lon="3.76451">
        <ele>1525.6</ele>
        <time>2021-08-10T11:26:01Z</time>
      </trkpt>
      <trkpt lat="44.42806" lon="3.76452">
        <ele>1525.7</ele>
        <time>2021-08-10T11:26:03Z</time>
      </trkpt>
      <trkpt lat="44.428" lon="3.76452">
        <ele>1525.7</ele>
        <time>2021-08-10T11:26:05Z</time>
      </trkpt>
      <trkpt lat="44.42796" lon="3.76452">
        <ele>1525.9</ele>
        <time>2021-08-10T11:26:07Z</time>
      </trkpt>
      <trkpt lat="44.42791" lon="3.76452">
        <ele>1525.9</ele>
        <time>2021-08-10T11:26:09Z</time>
      </trkpt>
      <trkpt lat="44.42787" lon="3.76453">
        <ele>1526</ele>
        <time>2021-08-10T11:26:11Z</time>
      </trkpt>
      <trkpt lat="44.42785" lon="3.76452">
        <ele>1526.1</ele>
        <time>2021-08-10T11:26:13Z</time>
      </trkpt>
      <trkpt lat="44.42785" lon="3.76452">
        <ele>1526.1</ele>
        <time>2021-08-10T11:26:15Z</time>
      </trkpt>
      <trkpt lat="44.42785" lon="3.76452">
        <ele>1526.1</ele>
        <time>2021-08-10T11:26:17Z</time>
      </trkpt>
      <trkpt lat="44.42785" lon="3.76452">
        <ele>1526.1</ele>
        <time>2021-08-10T11:26:19Z</time>
      </trkpt>
      <trkpt lat="44.42785" lon="3.76452">
        <ele>1526.1</ele>
        <time>2021-08-10T11:26:21Z</time>
      </trkpt>
      <trkpt lat="44.42785" lon="3.76452">
        <ele>1526.1</ele>
        <time>2021-08-10T11:26:23Z</time>
      </trkpt>
      <trkpt lat="44.42769" lon="3.76453">
        <ele>1526.4</ele>
        <time>2021-08-10T11:26:53Z</time>
      </trkpt>
      <trkpt lat="44.42763" lon="3.76452">
        <ele>1526.6</ele>
        <time>2021-08-10T11:26:55Z</time>
      </trkpt>
      <trkpt lat="44.42756" lon="3.76453">
        <ele>1526.7</ele>
        <time>2021-08-10T11:26:57Z</time>
      </trkpt>
      <trkpt lat="44.42749" lon="3.76453">
        <ele>1526.8</ele>
        <time>2021-08-10T11:26:59Z</time>
      </trkpt>
      <trkpt lat="44.42743" lon="3.76455">
        <ele>1527.4</ele>
        <time>2021-08-10T11:27:01Z</time>
      </trkpt>
      <trkpt lat="44.42737" lon="3.76458">
        <ele>1527.9</ele>
        <time>2021-08-10T11:27:03Z</time>
      </trkpt>
      <trkpt lat="44.4273" lon="3.76461">
        <ele>1528.3</ele>
        <time>2021-08-10T11:27:05Z</time>
      </trkpt>
      <trkpt lat="44.42725" lon="3.76464">
        <ele>1528.7</ele>
        <time>2021-08-10T11:27:07Z</time>
      </trkpt>
      <trkpt lat="44.4272" lon="3.76469">
        <ele>1528.8</ele>
        <time>2021-08-10T11:27:09Z</time>
      </trkpt>
      <trkpt lat="44.42714" lon="3.76473">
        <ele>1529.1</ele>
        <time>2021-08-10T11:27:11Z</time>
      </trkpt>
      <trkpt lat="44.42709" lon="3.76477">
        <ele>1529.3</ele>
        <time>2021-08-10T11:27:13Z</time>
      </trkpt>
      <trkpt lat="44.42704" lon="3.76481">
        <ele>1529.4</ele>
        <time>2021-08-10T11:27:15Z</time>
      </trkpt>
      <trkpt lat="44.42699" lon="3.76484">
        <ele>1529.6</ele>
        <time>2021-08-10T11:27:17Z</time>
      </trkpt>
      <trkpt lat="44.42695" lon="3.76488">
        <ele>1529.7</ele>
        <time>2021-08-10T11:27:19Z</time>
      </trkpt>
      <trkpt lat="44.4269" lon="3.76491">
        <ele>1529.7</ele>
        <time>2021-08-10T11:27:21Z</time>
      </trkpt>
      <trkpt lat="44.42686" lon="3.76494">
        <ele>1529.9</ele>
        <time>2021-08-10T11:27:23Z</time>
      </trkpt>
      <trkpt lat="44.42681" lon="3.76498">
        <ele>1530</ele>
        <time>2021-08-10T11:27:25Z</time>
      </trkpt>
      <trkpt lat="44.42676" lon="3.76501">
        <ele>1530.1</ele>
        <time>2021-08-10T11:27:27Z</time>
      </trkpt>
      <trkpt lat="44.42672" lon="3.76505">
        <ele>1530.3</ele>
        <time>2021-08-10T11:27:29Z</time>
      </trkpt>
      <trkpt lat="44.42667" lon="3.76508">
        <ele>1530.5</ele>
        <time>2021-08-10T11:27:31Z</time>
      </trkpt>
      <trkpt lat="44.42662" lon="3.76511">
        <ele>1530.7</ele>
        <time>2021-08-10T11:27:33Z</time>
      </trkpt>
      <trkpt lat="44.42658" lon="3.76515">
        <ele>1530.9</ele>
        <time>2021-08-10T11:27:35Z</time>
      </trkpt>
      <trkpt lat="44.42653" lon="3.76517">
        <ele>1531.2</ele>
        <time>2021-08-10T11:27:37Z</time>
      </trkpt>
      <trkpt lat="44.42648" lon="3.7652">
        <ele>1531.4</ele>
        <time>2021-08-10T11:27:39Z</time>
      </trkpt>
      <trkpt lat="44.42643" lon="3.76523">
        <ele>1531.6</ele>
        <time>2021-08-10T11:27:41Z</time>
      </trkpt>
      <trkpt lat="44.42639" lon="3.76524">
        <ele>1531.9</ele>
        <time>2021-08-10T11:27:43Z</time>
      </trkpt>
      <trkpt lat="44.42633" lon="3.76526">
        <ele>1532.2</ele>
        <time>2021-08-10T11:27:45Z</time>
      </trkpt>
      <trkpt lat="44.42628" lon="3.76528">
        <ele>1532.6</ele>
        <time>2021-08-10T11:27:47Z</time>
      </trkpt>
      <trkpt lat="44.42623" lon="3.7653">
        <ele>1532.8</ele>
        <time>2021-08-10T11:27:49Z</time>
      </trkpt>
      <trkpt lat="44.4262" lon="3.76532">
        <ele>1533</ele>
        <time>2021-08-10T11:27:51Z</time>
      </trkpt>
      <trkpt lat="44.42615" lon="3.76532">
        <ele>1533.4</ele>
        <time>2021-08-10T11:27:53Z</time>
      </trkpt>
      <trkpt lat="44.4261" lon="3.76533">
        <ele>1533.7</ele>
        <time>2021-08-10T11:27:55Z</time>
      </trkpt>
      <trkpt lat="44.42606" lon="3.76534">
        <ele>1533.9</ele>
        <time>2021-08-10T11:27:57Z</time>
      </trkpt>
      <trkpt lat="44.42601" lon="3.76534">
        <ele>1534.2</ele>
        <time>2021-08-10T11:27:59Z</time>
      </trkpt>
      <trkpt lat="44.42597" lon="3.76535">
        <ele>1534.6</ele>
        <time>2021-08-10T11:28:01Z</time>
      </trkpt>
      <trkpt lat="44.42592" lon="3.76536">
        <ele>1534.9</ele>
        <time>2021-08-10T11:28:03Z</time>
      </trkpt>
      <trkpt lat="44.42588" lon="3.76536">
        <ele>1535.2</ele>
        <time>2021-08-10T11:28:05Z</time>
      </trkpt>
      <trkpt lat="44.42583" lon="3.76536">
        <ele>1535.6</ele>
        <time>2021-08-10T11:28:07Z</time>
      </trkpt>
      <trkpt lat="44.42579" lon="3.76536">
        <ele>1536</ele>
        <time>2021-08-10T11:28:09Z</time>
      </trkpt>
      <trkpt lat="44.42575" lon="3.76536">
        <ele>1536.3</ele>
        <time>2021-08-10T11:28:11Z</time>
      </trkpt>
      <trkpt lat="44.42571" lon="3.76537">
        <ele>1536.7</ele>
        <time>2021-08-10T11:28:13Z</time>
      </trkpt>
      <trkpt lat="44.42566" lon="3.76537">
        <ele>1537.1</ele>
        <time>2021-08-10T11:28:15Z</time>
      </trkpt>
      <trkpt lat="44.42562" lon="3.76537">
        <ele>1537.4</ele>
        <time>2021-08-10T11:28:17Z</time>
      </trkpt>
      <trkpt lat="44.42558" lon="3.76538">
        <ele>1537.8</ele>
        <time>2021-08-10T11:28:19Z</time>
      </trkpt>
      <trkpt lat="44.42554" lon="3.76538">
        <ele>1538.2</ele>
        <time>2021-08-10T11:28:21Z</time>
      </trkpt>
      <trkpt lat="44.4255" lon="3.76537">
        <ele>1538.7</ele>
        <time>2021-08-10T11:28:23Z</time>
      </trkpt>
      <trkpt lat="44.42545" lon="3.76538">
        <ele>1539</ele>
        <time>2021-08-10T11:28:25Z</time>
      </trkpt>
      <trkpt lat="44.42541" lon="3.76539">
        <ele>1539.3</ele>
        <time>2021-08-10T11:28:27Z</time>
      </trkpt>
      <trkpt lat="44.42537" lon="3.76539">
        <ele>1539.7</ele>
        <time>2021-08-10T11:28:29Z</time>
      </trkpt>
      <trkpt lat="44.42533" lon="3.76539">
        <ele>1540.2</ele>
        <time>2021-08-10T11:28:31Z</time>
      </trkpt>
      <trkpt lat="44.42528" lon="3.76539">
        <ele>1540.6</ele>
        <time>2021-08-10T11:28:33Z</time>
      </trkpt>
      <trkpt lat="44.42524" lon="3.76539">
        <ele>1540.9</ele>
        <time>2021-08-10T11:28:35Z</time>
      </trkpt>
      <trkpt lat="44.4252" lon="3.7654">
        <ele>1541.2</ele>
        <time>2021-08-10T11:28:37Z</time>
      </trkpt>
      <trkpt lat="44.42516" lon="3.76541">
        <ele>1541.5</ele>
        <time>2021-08-10T11:28:39Z</time>
      </trkpt>
      <trkpt lat="44.42512" lon="3.76541">
        <ele>1541.9</ele>
        <time>2021-08-10T11:28:41Z</time>
      </trkpt>
      <trkpt lat="44.42508" lon="3.76541">
        <ele>1542.2</ele>
        <time>2021-08-10T11:28:43Z</time>
      </trkpt>
      <trkpt lat="44.42504" lon="3.76542">
        <ele>1542.5</ele>
        <time>2021-08-10T11:28:45Z</time>
      </trkpt>
      <trkpt lat="44.425" lon="3.76544">
        <ele>1542.7</ele>
        <time>2021-08-10T11:28:47Z</time>
      </trkpt>
      <trkpt lat="44.42495" lon="3.76548">
        <ele>1542.9</ele>
        <time>2021-08-10T11:28:49Z</time>
      </trkpt>
      <trkpt lat="44.42489" lon="3.76552">
        <ele>1543</ele>
        <time>2021-08-10T11:28:51Z</time>
      </trkpt>
      <trkpt lat="44.42485" lon="3.76558">
        <ele>1543</ele>
        <time>2021-08-10T11:28:53Z</time>
      </trkpt>
      <trkpt lat="44.42481" lon="3.76564">
        <ele>1542.8</ele>
        <time>2021-08-10T11:28:55Z</time>
      </trkpt>
      <trkpt lat="44.42477" lon="3.76572">
        <ele>1542.6</ele>
        <time>2021-08-10T11:28:57Z</time>
      </trkpt>
      <trkpt lat="44.42476" lon="3.7658">
        <ele>1542.2</ele>
        <time>2021-08-10T11:28:59Z</time>
      </trkpt>
      <trkpt lat="44.42475" lon="3.76587">
        <ele>1541.9</ele>
        <time>2021-08-10T11:29:01Z</time>
      </trkpt>
      <trkpt lat="44.42476" lon="3.76595">
        <ele>1541.8</ele>
        <time>2021-08-10T11:29:03Z</time>
      </trkpt>
      <trkpt lat="44.42475" lon="3.76602">
        <ele>1541.8</ele>
        <time>2021-08-10T11:29:05Z</time>
      </trkpt>
      <trkpt lat="44.42475" lon="3.7661">
        <ele>1541.7</ele>
        <time>2021-08-10T11:29:07Z</time>
      </trkpt>
      <trkpt lat="44.42473" lon="3.76618">
        <ele>1541.7</ele>
        <time>2021-08-10T11:29:09Z</time>
      </trkpt>
      <trkpt lat="44.42474" lon="3.76626">
        <ele>1541.6</ele>
        <time>2021-08-10T11:29:11Z</time>
      </trkpt>
      <trkpt lat="44.42474" lon="3.76634">
        <ele>1541.5</ele>
        <time>2021-08-10T11:29:13Z</time>
      </trkpt>
      <trkpt lat="44.42473" lon="3.76642">
        <ele>1541.5</ele>
        <time>2021-08-10T11:29:15Z</time>
      </trkpt>
      <trkpt lat="44.42472" lon="3.76651">
        <ele>1541.5</ele>
        <time>2021-08-10T11:29:17Z</time>
      </trkpt>
      <trkpt lat="44.42472" lon="3.7666">
        <ele>1541.4</ele>
        <time>2021-08-10T11:29:19Z</time>
      </trkpt>
      <trkpt lat="44.42472" lon="3.76668">
        <ele>1541.4</ele>
        <time>2021-08-10T11:29:21Z</time>
      </trkpt>
      <trkpt lat="44.42471" lon="3.76676">
        <ele>1541.4</ele>
        <time>2021-08-10T11:29:23Z</time>
      </trkpt>
      <trkpt lat="44.4247" lon="3.76685">
        <ele>1541.4</ele>
        <time>2021-08-10T11:29:25Z</time>
      </trkpt>
      <trkpt lat="44.42469" lon="3.76693">
        <ele>1541.5</ele>
        <time>2021-08-10T11:29:27Z</time>
      </trkpt>
      <trkpt lat="44.42467" lon="3.76701">
        <ele>1541.7</ele>
        <time>2021-08-10T11:29:29Z</time>
      </trkpt>
      <trkpt lat="44.42465" lon="3.7671">
        <ele>1541.8</ele>
        <time>2021-08-10T11:29:31Z</time>
      </trkpt>
      <trkpt lat="44.42463" lon="3.76717">
        <ele>1541.9</ele>
        <time>2021-08-10T11:29:33Z</time>
      </trkpt>
      <trkpt lat="44.42461" lon="3.76724">
        <ele>1542.1</ele>
        <time>2021-08-10T11:29:35Z</time>
      </trkpt>
      <trkpt lat="44.42458" lon="3.76732">
        <ele>1542.3</ele>
        <time>2021-08-10T11:29:37Z</time>
      </trkpt>
      <trkpt lat="44.42456" lon="3.76739">
        <ele>1542.4</ele>
        <time>2021-08-10T11:29:39Z</time>
      </trkpt>
      <trkpt lat="44.42455" lon="3.76746">
        <ele>1542.5</ele>
        <time>2021-08-10T11:29:41Z</time>
      </trkpt>
      <trkpt lat="44.42453" lon="3.76752">
        <ele>1542.5</ele>
        <time>2021-08-10T11:29:43Z</time>
      </trkpt>
      <trkpt lat="44.42451" lon="3.76759">
        <ele>1542.6</ele>
        <time>2021-08-10T11:29:45Z</time>
      </trkpt>
      <trkpt lat="44.42448" lon="3.76766">
        <ele>1542.6</ele>
        <time>2021-08-10T11:29:47Z</time>
      </trkpt>
      <trkpt lat="44.42445" lon="3.76772">
        <ele>1542.7</ele>
        <time>2021-08-10T11:29:49Z</time>
      </trkpt>
      <trkpt lat="44.42443" lon="3.76778">
        <ele>1542.7</ele>
        <time>2021-08-10T11:29:51Z</time>
      </trkpt>
      <trkpt lat="44.42441" lon="3.76784">
        <ele>1542.7</ele>
        <time>2021-08-10T11:29:53Z</time>
      </trkpt>
      <trkpt lat="44.42439" lon="3.76789">
        <ele>1542.7</ele>
        <time>2021-08-10T11:29:55Z</time>
      </trkpt>
      <trkpt lat="44.42436" lon="3.76794">
        <ele>1542.8</ele>
        <time>2021-08-10T11:29:57Z</time>
      </trkpt>
      <trkpt lat="44.42434" lon="3.76799">
        <ele>1542.9</ele>
        <time>2021-08-10T11:29:59Z</time>
      </trkpt>
      <trkpt lat="44.42431" lon="3.76803">
        <ele>1542.9</ele>
        <time>2021-08-10T11:30:01Z</time>
      </trkpt>
      <trkpt lat="44.42429" lon="3.76808">
        <ele>1542.9</ele>
        <time>2021-08-10T11:30:03Z</time>
      </trkpt>
      <trkpt lat="44.42428" lon="3.76812">
        <ele>1542.9</ele>
        <time>2021-08-10T11:30:05Z</time>
      </trkpt>
      <trkpt lat="44.42426" lon="3.76817">
        <ele>1542.8</ele>
        <time>2021-08-10T11:30:07Z</time>
      </trkpt>
      <trkpt lat="44.42424" lon="3.7682">
        <ele>1542.9</ele>
        <time>2021-08-10T11:30:09Z</time>
      </trkpt>
      <trkpt lat="44.42421" lon="3.76824">
        <ele>1543</ele>
        <time>2021-08-10T11:30:11Z</time>
      </trkpt>
      <trkpt lat="44.42421" lon="3.76829">
        <ele>1542.8</ele>
        <time>2021-08-10T11:30:13Z</time>
      </trkpt>
      <trkpt lat="44.42422" lon="3.76833">
        <ele>1542.5</ele>
        <time>2021-08-10T11:30:15Z</time>
      </trkpt>
      <trkpt lat="44.42424" lon="3.76837">
        <ele>1542.2</ele>
        <time>2021-08-10T11:30:17Z</time>
      </trkpt>
      <trkpt lat="44.42425" lon="3.76838">
        <ele>1542.1</ele>
        <time>2021-08-10T11:30:19Z</time>
      </trkpt>
      <trkpt lat="44.42425" lon="3.76838">
        <ele>1542.1</ele>
        <time>2021-08-10T11:30:21Z</time>
      </trkpt>
      <trkpt lat="44.42425" lon="3.76838">
        <ele>1542.1</ele>
        <time>2021-08-10T11:30:23Z</time>
      </trkpt>
      <trkpt lat="44.42425" lon="3.76838">
        <ele>1542.1</ele>
        <time>2021-08-10T11:30:25Z</time>
      </trkpt>
      <trkpt lat="44.42424" lon="3.76838">
        <ele>1542.2</ele>
        <time>2021-08-10T11:30:27Z</time>
      </trkpt>
      <trkpt lat="44.42395" lon="3.76879">
        <ele>1543.8</ele>
        <time>2021-08-10T11:42:41Z</time>
      </trkpt>
      <trkpt lat="44.42393" lon="3.76883">
        <ele>1543.9</ele>
        <time>2021-08-10T11:42:43Z</time>
      </trkpt>
      <trkpt lat="44.42391" lon="3.76887">
        <ele>1543.9</ele>
        <time>2021-08-10T11:42:45Z</time>
      </trkpt>
      <trkpt lat="44.42389" lon="3.76891">
        <ele>1543.9</ele>
        <time>2021-08-10T11:42:47Z</time>
      </trkpt>
      <trkpt lat="44.42386" lon="3.76896">
        <ele>1544</ele>
        <time>2021-08-10T11:42:49Z</time>
      </trkpt>
      <trkpt lat="44.42384" lon="3.769">
        <ele>1544</ele>
        <time>2021-08-10T11:42:51Z</time>
      </trkpt>
      <trkpt lat="44.42381" lon="3.76905">
        <ele>1544</ele>
        <time>2021-08-10T11:42:53Z</time>
      </trkpt>
      <trkpt lat="44.42378" lon="3.7691">
        <ele>1544</ele>
        <time>2021-08-10T11:42:55Z</time>
      </trkpt>
      <trkpt lat="44.42375" lon="3.76915">
        <ele>1544.1</ele>
        <time>2021-08-10T11:42:57Z</time>
      </trkpt>
      <trkpt lat="44.42372" lon="3.7692">
        <ele>1544.2</ele>
        <time>2021-08-10T11:42:59Z</time>
      </trkpt>
      <trkpt lat="44.42368" lon="3.76925">
        <ele>1544.3</ele>
        <time>2021-08-10T11:43:01Z</time>
      </trkpt>
      <trkpt lat="44.42364" lon="3.76929">
        <ele>1544.5</ele>
        <time>2021-08-10T11:43:03Z</time>
      </trkpt>
      <trkpt lat="44.4236" lon="3.76933">
        <ele>1544.7</ele>
        <time>2021-08-10T11:43:05Z</time>
      </trkpt>
      <trkpt lat="44.42357" lon="3.76937">
        <ele>1544.8</ele>
        <time>2021-08-10T11:43:07Z</time>
      </trkpt>
      <trkpt lat="44.42352" lon="3.76942">
        <ele>1545</ele>
        <time>2021-08-10T11:43:09Z</time>
      </trkpt>
      <trkpt lat="44.42347" lon="3.76945">
        <ele>1545.1</ele>
        <time>2021-08-10T11:43:11Z</time>
      </trkpt>
      <trkpt lat="44.42342" lon="3.7695">
        <ele>1545.3</ele>
        <time>2021-08-10T11:43:13Z</time>
      </trkpt>
      <trkpt lat="44.42337" lon="3.76954">
        <ele>1545.4</ele>
        <time>2021-08-10T11:43:15Z</time>
      </trkpt>
      <trkpt lat="44.42333" lon="3.76957">
        <ele>1545.6</ele>
        <time>2021-08-10T11:43:17Z</time>
      </trkpt>
      <trkpt lat="44.42327" lon="3.76961">
        <ele>1545.6</ele>
        <time>2021-08-10T11:43:19Z</time>
      </trkpt>
      <trkpt lat="44.42322" lon="3.76964">
        <ele>1545.6</ele>
        <time>2021-08-10T11:43:21Z</time>
      </trkpt>
      <trkpt lat="44.42317" lon="3.76968">
        <ele>1545.5</ele>
        <time>2021-08-10T11:43:23Z</time>
      </trkpt>
      <trkpt lat="44.42311" lon="3.76972">
        <ele>1545.4</ele>
        <time>2021-08-10T11:43:25Z</time>
      </trkpt>
      <trkpt lat="44.42305" lon="3.76977">
        <ele>1545.3</ele>
        <time>2021-08-10T11:43:27Z</time>
      </trkpt>
      <trkpt lat="44.42299" lon="3.76981">
        <ele>1545.1</ele>
        <time>2021-08-10T11:43:29Z</time>
      </trkpt>
      <trkpt lat="44.42293" lon="3.76985">
        <ele>1545</ele>
        <time>2021-08-10T11:43:31Z</time>
      </trkpt>
      <trkpt lat="44.42286" lon="3.7699">
        <ele>1544.7</ele>
        <time>2021-08-10T11:43:33Z</time>
      </trkpt>
      <trkpt lat="44.42279" lon="3.76994">
        <ele>1544.5</ele>
        <time>2021-08-10T11:43:35Z</time>
      </trkpt>
      <trkpt lat="44.42272" lon="3.76999">
        <ele>1544.1</ele>
        <time>2021-08-10T11:43:37Z</time>
      </trkpt>
      <trkpt lat="44.42264" lon="3.77003">
        <ele>1543.8</ele>
        <time>2021-08-10T11:43:39Z</time>
      </trkpt>
      <trkpt lat="44.42256" lon="3.77008">
        <ele>1543.5</ele>
        <time>2021-08-10T11:43:41Z</time>
      </trkpt>
      <trkpt lat="44.42247" lon="3.77011">
        <ele>1543.3</ele>
        <time>2021-08-10T11:43:43Z</time>
      </trkpt>
      <trkpt lat="44.42238" lon="3.77015">
        <ele>1542.9</ele>
        <time>2021-08-10T11:43:45Z</time>
      </trkpt>
      <trkpt lat="44.42227" lon="3.77017">
        <ele>1542.5</ele>
        <time>2021-08-10T11:43:47Z</time>
      </trkpt>
      <trkpt lat="44.42216" lon="3.77018">
        <ele>1542.2</ele>
        <time>2021-08-10T11:43:49Z</time>
      </trkpt>
      <trkpt lat="44.42204" lon="3.77019">
        <ele>1541.9</ele>
        <time>2021-08-10T11:43:51Z</time>
      </trkpt>
      <trkpt lat="44.42192" lon="3.77021">
        <ele>1541.5</ele>
        <time>2021-08-10T11:43:53Z</time>
      </trkpt>
      <trkpt lat="44.42179" lon="3.77021">
        <ele>1541.2</ele>
        <time>2021-08-10T11:43:55Z</time>
      </trkpt>
      <trkpt lat="44.42166" lon="3.77021">
        <ele>1541</ele>
        <time>2021-08-10T11:43:57Z</time>
      </trkpt>
      <trkpt lat="44.42153" lon="3.77021">
        <ele>1540.7</ele>
        <time>2021-08-10T11:43:59Z</time>
      </trkpt>
      <trkpt lat="44.42139" lon="3.77022">
        <ele>1540.4</ele>
        <time>2021-08-10T11:44:01Z</time>
      </trkpt>
      <trkpt lat="44.42125" lon="3.77022">
        <ele>1540.1</ele>
        <time>2021-08-10T11:44:03Z</time>
      </trkpt>
      <trkpt lat="44.42111" lon="3.77023">
        <ele>1539.8</ele>
        <time>2021-08-10T11:44:05Z</time>
      </trkpt>
      <trkpt lat="44.42096" lon="3.77024">
        <ele>1539.4</ele>
        <time>2021-08-10T11:44:07Z</time>
      </trkpt>
      <trkpt lat="44.42081" lon="3.77024">
        <ele>1539</ele>
        <time>2021-08-10T11:44:09Z</time>
      </trkpt>
      <trkpt lat="44.42066" lon="3.77027">
        <ele>1538.4</ele>
        <time>2021-08-10T11:44:11Z</time>
      </trkpt>
      <trkpt lat="44.42051" lon="3.7703">
        <ele>1537.8</ele>
        <time>2021-08-10T11:44:13Z</time>
      </trkpt>
      <trkpt lat="44.42035" lon="3.77033">
        <ele>1537</ele>
        <time>2021-08-10T11:44:15Z</time>
      </trkpt>
      <trkpt lat="44.4202" lon="3.77035">
        <ele>1536.4</ele>
        <time>2021-08-10T11:44:17Z</time>
      </trkpt>
      <trkpt lat="44.42005" lon="3.77038">
        <ele>1535.7</ele>
        <time>2021-08-10T11:44:19Z</time>
      </trkpt>
      <trkpt lat="44.41991" lon="3.7704">
        <ele>1535.5</ele>
        <time>2021-08-10T11:44:21Z</time>
      </trkpt>
      <trkpt lat="44.41979" lon="3.77042">
        <ele>1535.7</ele>
        <time>2021-08-10T11:44:23Z</time>
      </trkpt>
      <trkpt lat="44.41967" lon="3.77045">
        <ele>1535.5</ele>
        <time>2021-08-10T11:44:25Z</time>
      </trkpt>
      <trkpt lat="44.41955" lon="3.77048">
        <ele>1535.2</ele>
        <time>2021-08-10T11:44:27Z</time>
      </trkpt>
      <trkpt lat="44.41944" lon="3.77051">
        <ele>1535.1</ele>
        <time>2021-08-10T11:44:29Z</time>
      </trkpt>
      <trkpt lat="44.41932" lon="3.77056">
        <ele>1534.5</ele>
        <time>2021-08-10T11:44:31Z</time>
      </trkpt>
      <trkpt lat="44.41921" lon="3.77062">
        <ele>1533.8</ele>
        <time>2021-08-10T11:44:33Z</time>
      </trkpt>
      <trkpt lat="44.41911" lon="3.77067">
        <ele>1533.2</ele>
        <time>2021-08-10T11:44:35Z</time>
      </trkpt>
      <trkpt lat="44.41901" lon="3.77074">
        <ele>1532.4</ele>
        <time>2021-08-10T11:44:37Z</time>
      </trkpt>
      <trkpt lat="44.41891" lon="3.77084">
        <ele>1531.2</ele>
        <time>2021-08-10T11:44:39Z</time>
      </trkpt>
      <trkpt lat="44.4188" lon="3.77092">
        <ele>1530.5</ele>
        <time>2021-08-10T11:44:41Z</time>
      </trkpt>
      <trkpt lat="44.41867" lon="3.77098">
        <ele>1530.1</ele>
        <time>2021-08-10T11:44:43Z</time>
      </trkpt>
      <trkpt lat="44.41853" lon="3.77105">
        <ele>1529.5</ele>
        <time>2021-08-10T11:44:45Z</time>
      </trkpt>
      <trkpt lat="44.41839" lon="3.77109">
        <ele>1529.2</ele>
        <time>2021-08-10T11:44:47Z</time>
      </trkpt>
      <trkpt lat="44.41823" lon="3.77114">
        <ele>1528.8</ele>
        <time>2021-08-10T11:44:49Z</time>
      </trkpt>
      <trkpt lat="44.41808" lon="3.77123">
        <ele>1528</ele>
        <time>2021-08-10T11:44:51Z</time>
      </trkpt>
      <trkpt lat="44.41793" lon="3.77134">
        <ele>1526.7</ele>
        <time>2021-08-10T11:44:53Z</time>
      </trkpt>
      <trkpt lat="44.41778" lon="3.77145">
        <ele>1525.3</ele>
        <time>2021-08-10T11:44:55Z</time>
      </trkpt>
      <trkpt lat="44.41763" lon="3.77159">
        <ele>1523.6</ele>
        <time>2021-08-10T11:44:57Z</time>
      </trkpt>
      <trkpt lat="44.41748" lon="3.77171">
        <ele>1522.5</ele>
        <time>2021-08-10T11:44:59Z</time>
      </trkpt>
      <trkpt lat="44.41734" lon="3.77185">
        <ele>1521.3</ele>
        <time>2021-08-10T11:45:01Z</time>
      </trkpt>
      <trkpt lat="44.41718" lon="3.772">
        <ele>1520.1</ele>
        <time>2021-08-10T11:45:03Z</time>
      </trkpt>
      <trkpt lat="44.41703" lon="3.77212">
        <ele>1519.2</ele>
        <time>2021-08-10T11:45:05Z</time>
      </trkpt>
      <trkpt lat="44.41685" lon="3.77222">
        <ele>1518.8</ele>
        <time>2021-08-10T11:45:07Z</time>
      </trkpt>
      <trkpt lat="44.41666" lon="3.77229">
        <ele>1518.7</ele>
        <time>2021-08-10T11:45:09Z</time>
      </trkpt>
      <trkpt lat="44.41648" lon="3.77237">
        <ele>1517.9</ele>
        <time>2021-08-10T11:45:11Z</time>
      </trkpt>
      <trkpt lat="44.41631" lon="3.77243">
        <ele>1517.3</ele>
        <time>2021-08-10T11:45:13Z</time>
      </trkpt>
      <trkpt lat="44.41614" lon="3.77249">
        <ele>1516.7</ele>
        <time>2021-08-10T11:45:15Z</time>
      </trkpt>
      <trkpt lat="44.41598" lon="3.77258">
        <ele>1516.1</ele>
        <time>2021-08-10T11:45:17Z</time>
      </trkpt>
      <trkpt lat="44.41583" lon="3.7727">
        <ele>1515.3</ele>
        <time>2021-08-10T11:45:19Z</time>
      </trkpt>
      <trkpt lat="44.41568" lon="3.77282">
        <ele>1514.1</ele>
        <time>2021-08-10T11:45:21Z</time>
      </trkpt>
      <trkpt lat="44.41554" lon="3.77292">
        <ele>1513.1</ele>
        <time>2021-08-10T11:45:23Z</time>
      </trkpt>
      <trkpt lat="44.41539" lon="3.77301">
        <ele>1512.3</ele>
        <time>2021-08-10T11:45:25Z</time>
      </trkpt>
      <trkpt lat="44.41524" lon="3.77313">
        <ele>1511.4</ele>
        <time>2021-08-10T11:45:27Z</time>
      </trkpt>
      <trkpt lat="44.4151" lon="3.77323">
        <ele>1510.6</ele>
        <time>2021-08-10T11:45:29Z</time>
      </trkpt>
      <trkpt lat="44.41497" lon="3.77335">
        <ele>1509.6</ele>
        <time>2021-08-10T11:45:31Z</time>
      </trkpt>
      <trkpt lat="44.41483" lon="3.77345">
        <ele>1508.1</ele>
        <time>2021-08-10T11:45:33Z</time>
      </trkpt>
      <trkpt lat="44.41469" lon="3.7735">
        <ele>1506.7</ele>
        <time>2021-08-10T11:45:35Z</time>
      </trkpt>
      <trkpt lat="44.41454" lon="3.77346">
        <ele>1505.7</ele>
        <time>2021-08-10T11:45:37Z</time>
      </trkpt>
      <trkpt lat="44.41442" lon="3.77331">
        <ele>1505.2</ele>
        <time>2021-08-10T11:45:39Z</time>
      </trkpt>
      <trkpt lat="44.41436" lon="3.77309">
        <ele>1505.4</ele>
        <time>2021-08-10T11:45:41Z</time>
      </trkpt>
      <trkpt lat="44.41429" lon="3.77285">
        <ele>1505.5</ele>
        <time>2021-08-10T11:45:43Z</time>
      </trkpt>
      <trkpt lat="44.41423" lon="3.77259">
        <ele>1505.5</ele>
        <time>2021-08-10T11:45:45Z</time>
      </trkpt>
      <trkpt lat="44.41417" lon="3.77236">
        <ele>1505.5</ele>
        <time>2021-08-10T11:45:47Z</time>
      </trkpt>
      <trkpt lat="44.41405" lon="3.77217">
        <ele>1504.6</ele>
        <time>2021-08-10T11:45:49Z</time>
      </trkpt>
      <trkpt lat="44.41391" lon="3.77201">
        <ele>1503.2</ele>
        <time>2021-08-10T11:45:51Z</time>
      </trkpt>
      <trkpt lat="44.41375" lon="3.7719">
        <ele>1501.5</ele>
        <time>2021-08-10T11:45:53Z</time>
      </trkpt>
      <trkpt lat="44.41357" lon="3.77178">
        <ele>1499.6</ele>
        <time>2021-08-10T11:45:55Z</time>
      </trkpt>
      <trkpt lat="44.4134" lon="3.77165">
        <ele>1498</ele>
        <time>2021-08-10T11:45:57Z</time>
      </trkpt>
      <trkpt lat="44.41323" lon="3.77151">
        <ele>1497.7</ele>
        <time>2021-08-10T11:45:59Z</time>
      </trkpt>
      <trkpt lat="44.41307" lon="3.77137">
        <ele>1497.8</ele>
        <time>2021-08-10T11:46:01Z</time>
      </trkpt>
      <trkpt lat="44.41293" lon="3.77126">
        <ele>1497.7</ele>
        <time>2021-08-10T11:46:03Z</time>
      </trkpt>
      <trkpt lat="44.41276" lon="3.77118">
        <ele>1497.2</ele>
        <time>2021-08-10T11:46:05Z</time>
      </trkpt>
      <trkpt lat="44.4126" lon="3.77115">
        <ele>1496.1</ele>
        <time>2021-08-10T11:46:07Z</time>
      </trkpt>
      <trkpt lat="44.41242" lon="3.77116">
        <ele>1494.5</ele>
        <time>2021-08-10T11:46:09Z</time>
      </trkpt>
      <trkpt lat="44.41224" lon="3.77119">
        <ele>1493</ele>
        <time>2021-08-10T11:46:11Z</time>
      </trkpt>
      <trkpt lat="44.41205" lon="3.77124">
        <ele>1491.2</ele>
        <time>2021-08-10T11:46:13Z</time>
      </trkpt>
      <trkpt lat="44.41186" lon="3.77126">
        <ele>1489.7</ele>
        <time>2021-08-10T11:46:15Z</time>
      </trkpt>
      <trkpt lat="44.41167" lon="3.77129">
        <ele>1488</ele>
        <time>2021-08-10T11:46:17Z</time>
      </trkpt>
      <trkpt lat="44.41147" lon="3.77132">
        <ele>1486.2</ele>
        <time>2021-08-10T11:46:19Z</time>
      </trkpt>
      <trkpt lat="44.41129" lon="3.77134">
        <ele>1484.5</ele>
        <time>2021-08-10T11:46:21Z</time>
      </trkpt>
      <trkpt lat="44.41111" lon="3.77136">
        <ele>1482.9</ele>
        <time>2021-08-10T11:46:23Z</time>
      </trkpt>
      <trkpt lat="44.41093" lon="3.77135">
        <ele>1481.7</ele>
        <time>2021-08-10T11:46:25Z</time>
      </trkpt>
      <trkpt lat="44.41077" lon="3.77133">
        <ele>1480.4</ele>
        <time>2021-08-10T11:46:27Z</time>
      </trkpt>
      <trkpt lat="44.41062" lon="3.77128">
        <ele>1479.3</ele>
        <time>2021-08-10T11:46:29Z</time>
      </trkpt>
      <trkpt lat="44.41046" lon="3.77123">
        <ele>1477.9</ele>
        <time>2021-08-10T11:46:31Z</time>
      </trkpt>
      <trkpt lat="44.41032" lon="3.77119">
        <ele>1476.6</ele>
        <time>2021-08-10T11:46:33Z</time>
      </trkpt>
      <trkpt lat="44.41018" lon="3.77116">
        <ele>1475.3</ele>
        <time>2021-08-10T11:46:35Z</time>
      </trkpt>
      <trkpt lat="44.41006" lon="3.77111">
        <ele>1474.4</ele>
        <time>2021-08-10T11:46:37Z</time>
      </trkpt>
      <trkpt lat="44.40994" lon="3.77107">
        <ele>1473.2</ele>
        <time>2021-08-10T11:46:39Z</time>
      </trkpt>
      <trkpt lat="44.40982" lon="3.77101">
        <ele>1472</ele>
        <time>2021-08-10T11:46:41Z</time>
      </trkpt>
      <trkpt lat="44.40972" lon="3.77091">
        <ele>1471.6</ele>
        <time>2021-08-10T11:46:43Z</time>
      </trkpt>
      <trkpt lat="44.40963" lon="3.77079">
        <ele>1471.4</ele>
        <time>2021-08-10T11:46:45Z</time>
      </trkpt>
      <trkpt lat="44.40954" lon="3.77066">
        <ele>1471.3</ele>
        <time>2021-08-10T11:46:47Z</time>
      </trkpt>
      <trkpt lat="44.40945" lon="3.77053">
        <ele>1470.8</ele>
        <time>2021-08-10T11:46:49Z</time>
      </trkpt>
      <trkpt lat="44.40937" lon="3.7704">
        <ele>1470.3</ele>
        <time>2021-08-10T11:46:51Z</time>
      </trkpt>
      <trkpt lat="44.40929" lon="3.77028">
        <ele>1469.7</ele>
        <time>2021-08-10T11:46:53Z</time>
      </trkpt>
      <trkpt lat="44.40922" lon="3.77016">
        <ele>1468.9</ele>
        <time>2021-08-10T11:46:55Z</time>
      </trkpt>
      <trkpt lat="44.40915" lon="3.77003">
        <ele>1468.3</ele>
        <time>2021-08-10T11:46:57Z</time>
      </trkpt>
      <trkpt lat="44.40908" lon="3.7699">
        <ele>1467.3</ele>
        <time>2021-08-10T11:46:59Z</time>
      </trkpt>
      <trkpt lat="44.409" lon="3.76974">
        <ele>1466.3</ele>
        <time>2021-08-10T11:47:01Z</time>
      </trkpt>
      <trkpt lat="44.40892" lon="3.76959">
        <ele>1465.3</ele>
        <time>2021-08-10T11:47:03Z</time>
      </trkpt>
      <trkpt lat="44.40886" lon="3.76943">
        <ele>1464.8</ele>
        <time>2021-08-10T11:47:05Z</time>
      </trkpt>
      <trkpt lat="44.40883" lon="3.76925">
        <ele>1465.2</ele>
        <time>2021-08-10T11:47:07Z</time>
      </trkpt>
      <trkpt lat="44.4088" lon="3.76906">
        <ele>1465.4</ele>
        <time>2021-08-10T11:47:09Z</time>
      </trkpt>
      <trkpt lat="44.40877" lon="3.76886">
        <ele>1465.1</ele>
        <time>2021-08-10T11:47:11Z</time>
      </trkpt>
      <trkpt lat="44.40873" lon="3.76865">
        <ele>1464.6</ele>
        <time>2021-08-10T11:47:13Z</time>
      </trkpt>
      <trkpt lat="44.40868" lon="3.76843">
        <ele>1464</ele>
        <time>2021-08-10T11:47:15Z</time>
      </trkpt>
      <trkpt lat="44.40863" lon="3.76821">
        <ele>1463.2</ele>
        <time>2021-08-10T11:47:17Z</time>
      </trkpt>
      <trkpt lat="44.40859" lon="3.768">
        <ele>1462.4</ele>
        <time>2021-08-10T11:47:19Z</time>
      </trkpt>
      <trkpt lat="44.40855" lon="3.7678">
        <ele>1461.8</ele>
        <time>2021-08-10T11:47:21Z</time>
      </trkpt>
      <trkpt lat="44.4085" lon="3.7676">
        <ele>1461.1</ele>
        <time>2021-08-10T11:47:23Z</time>
      </trkpt>
      <trkpt lat="44.40844" lon="3.76741">
        <ele>1460.9</ele>
        <time>2021-08-10T11:47:25Z</time>
      </trkpt>
      <trkpt lat="44.40837" lon="3.76725">
        <ele>1460.6</ele>
        <time>2021-08-10T11:47:27Z</time>
      </trkpt>
      <trkpt lat="44.40828" lon="3.7671">
        <ele>1460.2</ele>
        <time>2021-08-10T11:47:29Z</time>
      </trkpt>
      <trkpt lat="44.40819" lon="3.76694">
        <ele>1460.2</ele>
        <time>2021-08-10T11:47:31Z</time>
      </trkpt>
      <trkpt lat="44.40807" lon="3.76682">
        <ele>1459.1</ele>
        <time>2021-08-10T11:47:33Z</time>
      </trkpt>
      <trkpt lat="44.40794" lon="3.76669">
        <ele>1458.1</ele>
        <time>2021-08-10T11:47:35Z</time>
      </trkpt>
      <trkpt lat="44.4078" lon="3.76656">
        <ele>1457</ele>
        <time>2021-08-10T11:47:37Z</time>
      </trkpt>
      <trkpt lat="44.40766" lon="3.76643">
        <ele>1455.6</ele>
        <time>2021-08-10T11:47:39Z</time>
      </trkpt>
      <trkpt lat="44.40753" lon="3.76632">
        <ele>1454.4</ele>
        <time>2021-08-10T11:47:41Z</time>
      </trkpt>
      <trkpt lat="44.4074" lon="3.76621">
        <ele>1453.5</ele>
        <time>2021-08-10T11:47:43Z</time>
      </trkpt>
      <trkpt lat="44.40727" lon="3.76613">
        <ele>1452.5</ele>
        <time>2021-08-10T11:47:45Z</time>
      </trkpt>
      <trkpt lat="44.40714" lon="3.76606">
        <ele>1451.4</ele>
        <time>2021-08-10T11:47:47Z</time>
      </trkpt>
      <trkpt lat="44.40701" lon="3.766">
        <ele>1450.1</ele>
        <time>2021-08-10T11:47:49Z</time>
      </trkpt>
      <trkpt lat="44.40687" lon="3.76596">
        <ele>1448.6</ele>
        <time>2021-08-10T11:47:51Z</time>
      </trkpt>
      <trkpt lat="44.40673" lon="3.76594">
        <ele>1446.8</ele>
        <time>2021-08-10T11:47:53Z</time>
      </trkpt>
      <trkpt lat="44.40658" lon="3.76594">
        <ele>1445.1</ele>
        <time>2021-08-10T11:47:55Z</time>
      </trkpt>
      <trkpt lat="44.40644" lon="3.76592">
        <ele>1444</ele>
        <time>2021-08-10T11:47:57Z</time>
      </trkpt>
      <trkpt lat="44.4063" lon="3.76591">
        <ele>1442.8</ele>
        <time>2021-08-10T11:47:59Z</time>
      </trkpt>
      <trkpt lat="44.40618" lon="3.7659">
        <ele>1441.9</ele>
        <time>2021-08-10T11:48:01Z</time>
      </trkpt>
      <trkpt lat="44.40606" lon="3.76584">
        <ele>1441.1</ele>
        <time>2021-08-10T11:48:03Z</time>
      </trkpt>
      <trkpt lat="44.40596" lon="3.76575">
        <ele>1439.7</ele>
        <time>2021-08-10T11:48:05Z</time>
      </trkpt>
      <trkpt lat="44.4059" lon="3.7656">
        <ele>1437.9</ele>
        <time>2021-08-10T11:48:07Z</time>
      </trkpt>
      <trkpt lat="44.40589" lon="3.76543">
        <ele>1436.5</ele>
        <time>2021-08-10T11:48:09Z</time>
      </trkpt>
      <trkpt lat="44.40592" lon="3.76527">
        <ele>1435.7</ele>
        <time>2021-08-10T11:48:11Z</time>
      </trkpt>
      <trkpt lat="44.40598" lon="3.7651">
        <ele>1435.7</ele>
        <time>2021-08-10T11:48:13Z</time>
      </trkpt>
      <trkpt lat="44.40605" lon="3.76493">
        <ele>1435.9</ele>
        <time>2021-08-10T11:48:15Z</time>
      </trkpt>
      <trkpt lat="44.40612" lon="3.76476">
        <ele>1436.4</ele>
        <time>2021-08-10T11:48:17Z</time>
      </trkpt>
      <trkpt lat="44.4062" lon="3.76459">
        <ele>1437.1</ele>
        <time>2021-08-10T11:48:19Z</time>
      </trkpt>
      <trkpt lat="44.40627" lon="3.76443">
        <ele>1438</ele>
        <time>2021-08-10T11:48:21Z</time>
      </trkpt>
      <trkpt lat="44.40635" lon="3.76427">
        <ele>1439</ele>
        <time>2021-08-10T11:48:23Z</time>
      </trkpt>
      <trkpt lat="44.40641" lon="3.7641">
        <ele>1440.2</ele>
        <time>2021-08-10T11:48:25Z</time>
      </trkpt>
      <trkpt lat="44.40647" lon="3.76395">
        <ele>1441.5</ele>
        <time>2021-08-10T11:48:27Z</time>
      </trkpt>
      <trkpt lat="44.40648" lon="3.76377">
        <ele>1441.8</ele>
        <time>2021-08-10T11:48:29Z</time>
      </trkpt>
      <trkpt lat="44.40644" lon="3.76358">
        <ele>1440.6</ele>
        <time>2021-08-10T11:48:31Z</time>
      </trkpt>
      <trkpt lat="44.40635" lon="3.76344">
        <ele>1438.5</ele>
        <time>2021-08-10T11:48:33Z</time>
      </trkpt>
      <trkpt lat="44.40623" lon="3.76332">
        <ele>1436.2</ele>
        <time>2021-08-10T11:48:35Z</time>
      </trkpt>
      <trkpt lat="44.40609" lon="3.76325">
        <ele>1433.9</ele>
        <time>2021-08-10T11:48:37Z</time>
      </trkpt>
      <trkpt lat="44.40594" lon="3.76324">
        <ele>1431</ele>
        <time>2021-08-10T11:48:39Z</time>
      </trkpt>
      <trkpt lat="44.4058" lon="3.76323">
        <ele>1428.5</ele>
        <time>2021-08-10T11:48:41Z</time>
      </trkpt>
      <trkpt lat="44.40565" lon="3.76322">
        <ele>1426.6</ele>
        <time>2021-08-10T11:48:43Z</time>
      </trkpt>
      <trkpt lat="44.40551" lon="3.76321">
        <ele>1424.8</ele>
        <time>2021-08-10T11:48:45Z</time>
      </trkpt>
      <trkpt lat="44.40537" lon="3.7632">
        <ele>1423.1</ele>
        <time>2021-08-10T11:48:47Z</time>
      </trkpt>
      <trkpt lat="44.40524" lon="3.76315">
        <ele>1421.9</ele>
        <time>2021-08-10T11:48:49Z</time>
      </trkpt>
      <trkpt lat="44.40511" lon="3.76306">
        <ele>1421.1</ele>
        <time>2021-08-10T11:48:51Z</time>
      </trkpt>
      <trkpt lat="44.40499" lon="3.763">
        <ele>1420.1</ele>
        <time>2021-08-10T11:48:53Z</time>
      </trkpt>
      <trkpt lat="44.40485" lon="3.76299">
        <ele>1419.2</ele>
        <time>2021-08-10T11:48:55Z</time>
      </trkpt>
      <trkpt lat="44.40472" lon="3.76302">
        <ele>1418</ele>
        <time>2021-08-10T11:48:57Z</time>
      </trkpt>
      <trkpt lat="44.4046" lon="3.76307">
        <ele>1416.8</ele>
        <time>2021-08-10T11:48:59Z</time>
      </trkpt>
      <trkpt lat="44.40447" lon="3.76312">
        <ele>1415.7</ele>
        <time>2021-08-10T11:49:01Z</time>
      </trkpt>
      <trkpt lat="44.40432" lon="3.76311">
        <ele>1414.8</ele>
        <time>2021-08-10T11:49:03Z</time>
      </trkpt>
      <trkpt lat="44.40417" lon="3.76308">
        <ele>1414</ele>
        <time>2021-08-10T11:49:05Z</time>
      </trkpt>
      <trkpt lat="44.40403" lon="3.76303">
        <ele>1412.8</ele>
        <time>2021-08-10T11:49:07Z</time>
      </trkpt>
      <trkpt lat="44.4039" lon="3.76294">
        <ele>1411.7</ele>
        <time>2021-08-10T11:49:09Z</time>
      </trkpt>
      <trkpt lat="44.40381" lon="3.76284">
        <ele>1411.1</ele>
        <time>2021-08-10T11:49:11Z</time>
      </trkpt>
      <trkpt lat="44.40374" lon="3.76278">
        <ele>1410.4</ele>
        <time>2021-08-10T11:49:13Z</time>
      </trkpt>
      <trkpt lat="44.40369" lon="3.76275">
        <ele>1409.9</ele>
        <time>2021-08-10T11:49:15Z</time>
      </trkpt>
      <trkpt lat="44.40368" lon="3.76277">
        <ele>1409.7</ele>
        <time>2021-08-10T11:49:17Z</time>
      </trkpt>
      <trkpt lat="44.40363" lon="3.76276">
        <ele>1409.2</ele>
        <time>2021-08-10T11:49:19Z</time>
      </trkpt>
      <trkpt lat="44.40358" lon="3.76273">
        <ele>1408.7</ele>
        <time>2021-08-10T11:49:21Z</time>
      </trkpt>
      <trkpt lat="44.40352" lon="3.76272">
        <ele>1408</ele>
        <time>2021-08-10T11:49:23Z</time>
      </trkpt>
      <trkpt lat="44.40346" lon="3.76271">
        <ele>1407.4</ele>
        <time>2021-08-10T11:49:25Z</time>
      </trkpt>
      <trkpt lat="44.40339" lon="3.7627">
        <ele>1406.7</ele>
        <time>2021-08-10T11:49:27Z</time>
      </trkpt>
      <trkpt lat="44.40332" lon="3.76268">
        <ele>1406</ele>
        <time>2021-08-10T11:49:29Z</time>
      </trkpt>
      <trkpt lat="44.40329" lon="3.76264">
        <ele>1405.9</ele>
        <time>2021-08-10T11:49:31Z</time>
      </trkpt>
      <trkpt lat="44.40328" lon="3.76263">
        <ele>1405.8</ele>
        <time>2021-08-10T11:49:33Z</time>
      </trkpt>
      <trkpt lat="44.40329" lon="3.76264">
        <ele>1405.9</ele>
        <time>2021-08-10T11:49:35Z</time>
      </trkpt>
      <trkpt lat="44.40329" lon="3.76264">
        <ele>1405.9</ele>
        <time>2021-08-10T11:49:37Z</time>
      </trkpt>
      <trkpt lat="44.40329" lon="3.76264">
        <ele>1405.9</ele>
        <time>2021-08-10T11:49:39Z</time>
      </trkpt>
      <trkpt lat="44.40328" lon="3.76264">
        <ele>1405.9</ele>
        <time>2021-08-10T11:49:41Z</time>
      </trkpt>
      <trkpt lat="44.40327" lon="3.76264">
        <ele>1405.8</ele>
        <time>2021-08-10T12:07:07Z</time>
      </trkpt>
      <trkpt lat="44.40327" lon="3.76264">
        <ele>1405.8</ele>
        <time>2021-08-10T12:07:09Z</time>
      </trkpt>
      <trkpt lat="44.40327" lon="3.76263">
        <ele>1405.8</ele>
        <time>2021-08-10T12:07:11Z</time>
      </trkpt>
      <trkpt lat="44.40327" lon="3.76258">
        <ele>1405.8</ele>
        <time>2021-08-10T12:07:13Z</time>
      </trkpt>
      <trkpt lat="44.40325" lon="3.76253">
        <ele>1405.7</ele>
        <time>2021-08-10T12:07:15Z</time>
      </trkpt>
      <trkpt lat="44.40323" lon="3.76249">
        <ele>1405.6</ele>
        <time>2021-08-10T12:07:17Z</time>
      </trkpt>
      <trkpt lat="44.40322" lon="3.76243">
        <ele>1405.4</ele>
        <time>2021-08-10T12:07:19Z</time>
      </trkpt>
      <trkpt lat="44.4032" lon="3.76237">
        <ele>1405.2</ele>
        <time>2021-08-10T12:07:21Z</time>
      </trkpt>
      <trkpt lat="44.40319" lon="3.7623">
        <ele>1404.9</ele>
        <time>2021-08-10T12:07:23Z</time>
      </trkpt>
      <trkpt lat="44.40319" lon="3.76225">
        <ele>1404.8</ele>
        <time>2021-08-10T12:07:25Z</time>
      </trkpt>
      <trkpt lat="44.40318" lon="3.76223">
        <ele>1404.7</ele>
        <time>2021-08-10T12:07:27Z</time>
      </trkpt>
      <trkpt lat="44.40318" lon="3.76224">
        <ele>1404.7</ele>
        <time>2021-08-10T12:07:29Z</time>
      </trkpt>
      <trkpt lat="44.40318" lon="3.76224">
        <ele>1404.7</ele>
        <time>2021-08-10T12:07:31Z</time>
      </trkpt>
      <trkpt lat="44.40319" lon="3.76224">
        <ele>1404.7</ele>
        <time>2021-08-10T12:07:33Z</time>
      </trkpt>
      <trkpt lat="44.40319" lon="3.76224">
        <ele>1404.7</ele>
        <time>2021-08-10T12:07:35Z</time>
      </trkpt>
      <trkpt lat="44.40317" lon="3.76205">
        <ele>1404.1</ele>
        <time>2021-08-10T12:07:43Z</time>
      </trkpt>
      <trkpt lat="44.40317" lon="3.76198">
        <ele>1403.9</ele>
        <time>2021-08-10T12:07:45Z</time>
      </trkpt>
      <trkpt lat="44.40317" lon="3.76191">
        <ele>1403.7</ele>
        <time>2021-08-10T12:07:47Z</time>
      </trkpt>
      <trkpt lat="44.40314" lon="3.76182">
        <ele>1403.3</ele>
        <time>2021-08-10T12:07:49Z</time>
      </trkpt>
      <trkpt lat="44.40314" lon="3.7617">
        <ele>1402.9</ele>
        <time>2021-08-10T12:07:51Z</time>
      </trkpt>
      <trkpt lat="44.40315" lon="3.7616">
        <ele>1402.2</ele>
        <time>2021-08-10T12:07:53Z</time>
      </trkpt>
      <trkpt lat="44.40319" lon="3.7615">
        <ele>1401.3</ele>
        <time>2021-08-10T12:07:55Z</time>
      </trkpt>
      <trkpt lat="44.40323" lon="3.7614">
        <ele>1400.4</ele>
        <time>2021-08-10T12:07:57Z</time>
      </trkpt>
      <trkpt lat="44.4033" lon="3.76128">
        <ele>1399.2</ele>
        <time>2021-08-10T12:07:59Z</time>
      </trkpt>
      <trkpt lat="44.40337" lon="3.76115">
        <ele>1398.2</ele>
        <time>2021-08-10T12:08:01Z</time>
      </trkpt>
      <trkpt lat="44.40343" lon="3.76102">
        <ele>1397.2</ele>
        <time>2021-08-10T12:08:03Z</time>
      </trkpt>
      <trkpt lat="44.40349" lon="3.76088">
        <ele>1396.1</ele>
        <time>2021-08-10T12:08:05Z</time>
      </trkpt>
      <trkpt lat="44.40355" lon="3.76075">
        <ele>1394.6</ele>
        <time>2021-08-10T12:08:07Z</time>
      </trkpt>
      <trkpt lat="44.40361" lon="3.76061">
        <ele>1392.5</ele>
        <time>2021-08-10T12:08:09Z</time>
      </trkpt>
      <trkpt lat="44.40369" lon="3.76047">
        <ele>1390.5</ele>
        <time>2021-08-10T12:08:11Z</time>
      </trkpt>
      <trkpt lat="44.40378" lon="3.76035">
        <ele>1389</ele>
        <time>2021-08-10T12:08:13Z</time>
      </trkpt>
      <trkpt lat="44.40387" lon="3.76025">
        <ele>1387.9</ele>
        <time>2021-08-10T12:08:15Z</time>
      </trkpt>
      <trkpt lat="44.40398" lon="3.76019">
        <ele>1387.4</ele>
        <time>2021-08-10T12:08:17Z</time>
      </trkpt>
      <trkpt lat="44.4041" lon="3.76016">
        <ele>1387.8</ele>
        <time>2021-08-10T12:08:19Z</time>
      </trkpt>
      <trkpt lat="44.40422" lon="3.76016">
        <ele>1389.1</ele>
        <time>2021-08-10T12:08:21Z</time>
      </trkpt>
      <trkpt lat="44.40435" lon="3.76014">
        <ele>1390.4</ele>
        <time>2021-08-10T12:08:23Z</time>
      </trkpt>
      <trkpt lat="44.40447" lon="3.76007">
        <ele>1390.9</ele>
        <time>2021-08-10T12:08:25Z</time>
      </trkpt>
      <trkpt lat="44.40457" lon="3.75999">
        <ele>1391.1</ele>
        <time>2021-08-10T12:08:27Z</time>
      </trkpt>
      <trkpt lat="44.40468" lon="3.75986">
        <ele>1390.7</ele>
        <time>2021-08-10T12:08:29Z</time>
      </trkpt>
      <trkpt lat="44.40475" lon="3.75969">
        <ele>1389</ele>
        <time>2021-08-10T12:08:31Z</time>
      </trkpt>
      <trkpt lat="44.40478" lon="3.75947">
        <ele>1386</ele>
        <time>2021-08-10T12:08:33Z</time>
      </trkpt>
      <trkpt lat="44.40479" lon="3.75925">
        <ele>1382.8</ele>
        <time>2021-08-10T12:08:35Z</time>
      </trkpt>
      <trkpt lat="44.40481" lon="3.75904">
        <ele>1379.6</ele>
        <time>2021-08-10T12:08:37Z</time>
      </trkpt>
      <trkpt lat="44.40484" lon="3.75884">
        <ele>1376.7</ele>
        <time>2021-08-10T12:08:39Z</time>
      </trkpt>
      <trkpt lat="44.40489" lon="3.75866">
        <ele>1374.5</ele>
        <time>2021-08-10T12:08:41Z</time>
      </trkpt>
      <trkpt lat="44.40494" lon="3.75851">
        <ele>1372.8</ele>
        <time>2021-08-10T12:08:43Z</time>
      </trkpt>
      <trkpt lat="44.405" lon="3.75835">
        <ele>1371.3</ele>
        <time>2021-08-10T12:08:45Z</time>
      </trkpt>
      <trkpt lat="44.40503" lon="3.75816">
        <ele>1368.7</ele>
        <time>2021-08-10T12:08:47Z</time>
      </trkpt>
      <trkpt lat="44.40517" lon="3.75804">
        <ele>1369.2</ele>
        <time>2021-08-10T12:08:49Z</time>
      </trkpt>
      <trkpt lat="44.40527" lon="3.7579">
        <ele>1368.3</ele>
        <time>2021-08-10T12:08:51Z</time>
      </trkpt>
      <trkpt lat="44.40538" lon="3.75778">
        <ele>1367.5</ele>
        <time>2021-08-10T12:08:53Z</time>
      </trkpt>
      <trkpt lat="44.40548" lon="3.75765">
        <ele>1366.4</ele>
        <time>2021-08-10T12:08:55Z</time>
      </trkpt>
      <trkpt lat="44.40558" lon="3.7575">
        <ele>1364.8</ele>
        <time>2021-08-10T12:08:57Z</time>
      </trkpt>
      <trkpt lat="44.40567" lon="3.75738">
        <ele>1363.8</ele>
        <time>2021-08-10T12:08:59Z</time>
      </trkpt>
      <trkpt lat="44.40577" lon="3.75729">
        <ele>1363.4</ele>
        <time>2021-08-10T12:09:01Z</time>
      </trkpt>
      <trkpt lat="44.4059" lon="3.75722">
        <ele>1363</ele>
        <time>2021-08-10T12:09:03Z</time>
      </trkpt>
      <trkpt lat="44.40605" lon="3.75714">
        <ele>1361.7</ele>
        <time>2021-08-10T12:09:05Z</time>
      </trkpt>
      <trkpt lat="44.40621" lon="3.75706">
        <ele>1360.3</ele>
        <time>2021-08-10T12:09:07Z</time>
      </trkpt>
      <trkpt lat="44.40637" lon="3.75698">
        <ele>1358.7</ele>
        <time>2021-08-10T12:09:09Z</time>
      </trkpt>
      <trkpt lat="44.40653" lon="3.75691">
        <ele>1357.3</ele>
        <time>2021-08-10T12:09:11Z</time>
      </trkpt>
      <trkpt lat="44.40669" lon="3.75683">
        <ele>1355.6</ele>
        <time>2021-08-10T12:09:13Z</time>
      </trkpt>
      <trkpt lat="44.40686" lon="3.75675">
        <ele>1354.2</ele>
        <time>2021-08-10T12:09:15Z</time>
      </trkpt>
      <trkpt lat="44.40703" lon="3.75666">
        <ele>1352.8</ele>
        <time>2021-08-10T12:09:17Z</time>
      </trkpt>
      <trkpt lat="44.40718" lon="3.75658">
        <ele>1351.8</ele>
        <time>2021-08-10T12:09:19Z</time>
      </trkpt>
      <trkpt lat="44.40734" lon="3.75651">
        <ele>1350.8</ele>
        <time>2021-08-10T12:09:21Z</time>
      </trkpt>
      <trkpt lat="44.40749" lon="3.75644">
        <ele>1350.2</ele>
        <time>2021-08-10T12:09:23Z</time>
      </trkpt>
      <trkpt lat="44.40762" lon="3.75635">
        <ele>1350.1</ele>
        <time>2021-08-10T12:09:25Z</time>
      </trkpt>
      <trkpt lat="44.40773" lon="3.75622">
        <ele>1349.1</ele>
        <time>2021-08-10T12:09:27Z</time>
      </trkpt>
      <trkpt lat="44.40779" lon="3.75604">
        <ele>1347</ele>
        <time>2021-08-10T12:09:29Z</time>
      </trkpt>
      <trkpt lat="44.40784" lon="3.75582">
        <ele>1344.3</ele>
        <time>2021-08-10T12:09:31Z</time>
      </trkpt>
      <trkpt lat="44.40789" lon="3.75561">
        <ele>1342.3</ele>
        <time>2021-08-10T12:09:33Z</time>
      </trkpt>
      <trkpt lat="44.40796" lon="3.7554">
        <ele>1340.3</ele>
        <time>2021-08-10T12:09:35Z</time>
      </trkpt>
      <trkpt lat="44.40802" lon="3.75518">
        <ele>1338.3</ele>
        <time>2021-08-10T12:09:37Z</time>
      </trkpt>
      <trkpt lat="44.40809" lon="3.75495">
        <ele>1336.5</ele>
        <time>2021-08-10T12:09:39Z</time>
      </trkpt>
      <trkpt lat="44.40817" lon="3.75475">
        <ele>1335.8</ele>
        <time>2021-08-10T12:09:41Z</time>
      </trkpt>
      <trkpt lat="44.40822" lon="3.75454">
        <ele>1334.7</ele>
        <time>2021-08-10T12:09:43Z</time>
      </trkpt>
      <trkpt lat="44.40823" lon="3.75434">
        <ele>1333.1</ele>
        <time>2021-08-10T12:09:45Z</time>
      </trkpt>
      <trkpt lat="44.4082" lon="3.75415">
        <ele>1331.1</ele>
        <time>2021-08-10T12:09:47Z</time>
      </trkpt>
      <trkpt lat="44.4082" lon="3.75395">
        <ele>1329.2</ele>
        <time>2021-08-10T12:09:49Z</time>
      </trkpt>
      <trkpt lat="44.40823" lon="3.75372">
        <ele>1327.5</ele>
        <time>2021-08-10T12:09:51Z</time>
      </trkpt>
      <trkpt lat="44.4083" lon="3.75348">
        <ele>1325.9</ele>
        <time>2021-08-10T12:09:53Z</time>
      </trkpt>
      <trkpt lat="44.40836" lon="3.75323">
        <ele>1324.6</ele>
        <time>2021-08-10T12:09:55Z</time>
      </trkpt>
      <trkpt lat="44.40842" lon="3.75299">
        <ele>1323.5</ele>
        <time>2021-08-10T12:09:57Z</time>
      </trkpt>
      <trkpt lat="44.40847" lon="3.75278">
        <ele>1322.6</ele>
        <time>2021-08-10T12:09:59Z</time>
      </trkpt>
      <trkpt lat="44.40853" lon="3.75256">
        <ele>1321.9</ele>
        <time>2021-08-10T12:10:01Z</time>
      </trkpt>
      <trkpt lat="44.40859" lon="3.75233">
        <ele>1320.6</ele>
        <time>2021-08-10T12:10:03Z</time>
      </trkpt>
      <trkpt lat="44.40864" lon="3.75207">
        <ele>1318.9</ele>
        <time>2021-08-10T12:10:05Z</time>
      </trkpt>
      <trkpt lat="44.40869" lon="3.75181">
        <ele>1317.1</ele>
        <time>2021-08-10T12:10:07Z</time>
      </trkpt>
      <trkpt lat="44.40874" lon="3.75155">
        <ele>1316.1</ele>
        <time>2021-08-10T12:10:09Z</time>
      </trkpt>
      <trkpt lat="44.40878" lon="3.75136">
        <ele>1316.4</ele>
        <time>2021-08-10T12:10:11Z</time>
      </trkpt>
      <trkpt lat="44.40881" lon="3.7512">
        <ele>1316.6</ele>
        <time>2021-08-10T12:10:13Z</time>
      </trkpt>
      <trkpt lat="44.40884" lon="3.75104">
        <ele>1316.8</ele>
        <time>2021-08-10T12:10:15Z</time>
      </trkpt>
      <trkpt lat="44.40883" lon="3.75087">
        <ele>1316.4</ele>
        <time>2021-08-10T12:10:17Z</time>
      </trkpt>
      <trkpt lat="44.40875" lon="3.75076">
        <ele>1316.3</ele>
        <time>2021-08-10T12:10:19Z</time>
      </trkpt>
      <trkpt lat="44.40863" lon="3.75071">
        <ele>1315.3</ele>
        <time>2021-08-10T12:10:21Z</time>
      </trkpt>
      <trkpt lat="44.4085" lon="3.75065">
        <ele>1314.2</ele>
        <time>2021-08-10T12:10:23Z</time>
      </trkpt>
      <trkpt lat="44.40838" lon="3.75059">
        <ele>1313.4</ele>
        <time>2021-08-10T12:10:25Z</time>
      </trkpt>
      <trkpt lat="44.40825" lon="3.75053">
        <ele>1312.7</ele>
        <time>2021-08-10T12:10:27Z</time>
      </trkpt>
      <trkpt lat="44.40809" lon="3.75052">
        <ele>1310.9</ele>
        <time>2021-08-10T12:10:29Z</time>
      </trkpt>
      <trkpt lat="44.40795" lon="3.75053">
        <ele>1308.6</ele>
        <time>2021-08-10T12:10:31Z</time>
      </trkpt>
      <trkpt lat="44.4078" lon="3.75056">
        <ele>1306.2</ele>
        <time>2021-08-10T12:10:33Z</time>
      </trkpt>
      <trkpt lat="44.40765" lon="3.75057">
        <ele>1304.1</ele>
        <time>2021-08-10T12:10:35Z</time>
      </trkpt>
      <trkpt lat="44.4075" lon="3.75057">
        <ele>1302.1</ele>
        <time>2021-08-10T12:10:37Z</time>
      </trkpt>
      <trkpt lat="44.40736" lon="3.75053">
        <ele>1300.4</ele>
        <time>2021-08-10T12:10:39Z</time>
      </trkpt>
      <trkpt lat="44.40722" lon="3.75045">
        <ele>1299.1</ele>
        <time>2021-08-10T12:10:41Z</time>
      </trkpt>
      <trkpt lat="44.40707" lon="3.75036">
        <ele>1297.4</ele>
        <time>2021-08-10T12:10:43Z</time>
      </trkpt>
      <trkpt lat="44.40693" lon="3.75023">
        <ele>1295.8</ele>
        <time>2021-08-10T12:10:45Z</time>
      </trkpt>
      <trkpt lat="44.4068" lon="3.75011">
        <ele>1294.1</ele>
        <time>2021-08-10T12:10:47Z</time>
      </trkpt>
      <trkpt lat="44.40667" lon="3.75">
        <ele>1292.1</ele>
        <time>2021-08-10T12:10:49Z</time>
      </trkpt>
      <trkpt lat="44.40657" lon="3.74988">
        <ele>1290.7</ele>
        <time>2021-08-10T12:10:51Z</time>
      </trkpt>
      <trkpt lat="44.40648" lon="3.74969">
        <ele>1289.8</ele>
        <time>2021-08-10T12:10:53Z</time>
      </trkpt>
      <trkpt lat="44.40642" lon="3.74947">
        <ele>1289.3</ele>
        <time>2021-08-10T12:10:55Z</time>
      </trkpt>
      <trkpt lat="44.40637" lon="3.74922">
        <ele>1289.3</ele>
        <time>2021-08-10T12:10:57Z</time>
      </trkpt>
      <trkpt lat="44.4063" lon="3.74901">
        <ele>1288.1</ele>
        <time>2021-08-10T12:10:59Z</time>
      </trkpt>
      <trkpt lat="44.40619" lon="3.74882">
        <ele>1285.6</ele>
        <time>2021-08-10T12:11:01Z</time>
      </trkpt>
      <trkpt lat="44.40608" lon="3.74864">
        <ele>1283.1</ele>
        <time>2021-08-10T12:11:03Z</time>
      </trkpt>
      <trkpt lat="44.40602" lon="3.7484">
        <ele>1281.5</ele>
        <time>2021-08-10T12:11:05Z</time>
      </trkpt>
      <trkpt lat="44.40599" lon="3.74814">
        <ele>1280.3</ele>
        <time>2021-08-10T12:11:07Z</time>
      </trkpt>
      <trkpt lat="44.40592" lon="3.74793">
        <ele>1277.9</ele>
        <time>2021-08-10T12:11:09Z</time>
      </trkpt>
      <trkpt lat="44.40581" lon="3.74773">
        <ele>1275</ele>
        <time>2021-08-10T12:11:11Z</time>
      </trkpt>
      <trkpt lat="44.40572" lon="3.74751">
        <ele>1272.6</ele>
        <time>2021-08-10T12:11:13Z</time>
      </trkpt>
      <trkpt lat="44.40568" lon="3.74725">
        <ele>1270</ele>
        <time>2021-08-10T12:11:15Z</time>
      </trkpt>
      <trkpt lat="44.4057" lon="3.747">
        <ele>1268.7</ele>
        <time>2021-08-10T12:11:17Z</time>
      </trkpt>
      <trkpt lat="44.40575" lon="3.74675">
        <ele>1268.4</ele>
        <time>2021-08-10T12:11:19Z</time>
      </trkpt>
      <trkpt lat="44.40579" lon="3.74652">
        <ele>1267.7</ele>
        <time>2021-08-10T12:11:21Z</time>
      </trkpt>
      <trkpt lat="44.40584" lon="3.74631">
        <ele>1267.1</ele>
        <time>2021-08-10T12:11:23Z</time>
      </trkpt>
      <trkpt lat="44.40592" lon="3.74612">
        <ele>1267.1</ele>
        <time>2021-08-10T12:11:25Z</time>
      </trkpt>
      <trkpt lat="44.406" lon="3.74593">
        <ele>1267</ele>
        <time>2021-08-10T12:11:27Z</time>
      </trkpt>
      <trkpt lat="44.40607" lon="3.74575">
        <ele>1267.6</ele>
        <time>2021-08-10T12:11:29Z</time>
      </trkpt>
      <trkpt lat="44.40612" lon="3.74557">
        <ele>1268.5</ele>
        <time>2021-08-10T12:11:31Z</time>
      </trkpt>
      <trkpt lat="44.40611" lon="3.7454">
        <ele>1268.4</ele>
        <time>2021-08-10T12:11:33Z</time>
      </trkpt>
      <trkpt lat="44.40602" lon="3.74526">
        <ele>1267.3</ele>
        <time>2021-08-10T12:11:35Z</time>
      </trkpt>
      <trkpt lat="44.40588" lon="3.74523">
        <ele>1265.7</ele>
        <time>2021-08-10T12:11:37Z</time>
      </trkpt>
      <trkpt lat="44.40575" lon="3.74531">
        <ele>1263.7</ele>
        <time>2021-08-10T12:11:39Z</time>
      </trkpt>
      <trkpt lat="44.40561" lon="3.74542">
        <ele>1261.1</ele>
        <time>2021-08-10T12:11:41Z</time>
      </trkpt>
      <trkpt lat="44.40544" lon="3.74548">
        <ele>1258.2</ele>
        <time>2021-08-10T12:11:43Z</time>
      </trkpt>
      <trkpt lat="44.40527" lon="3.74549">
        <ele>1255.6</ele>
        <time>2021-08-10T12:11:45Z</time>
      </trkpt>
      <trkpt lat="44.40509" lon="3.74542">
        <ele>1253.3</ele>
        <time>2021-08-10T12:11:47Z</time>
      </trkpt>
      <trkpt lat="44.40492" lon="3.74531">
        <ele>1251.2</ele>
        <time>2021-08-10T12:11:49Z</time>
      </trkpt>
      <trkpt lat="44.40477" lon="3.7452">
        <ele>1249</ele>
        <time>2021-08-10T12:11:51Z</time>
      </trkpt>
      <trkpt lat="44.40464" lon="3.74513">
        <ele>1246.8</ele>
        <time>2021-08-10T12:11:53Z</time>
      </trkpt>
      <trkpt lat="44.40453" lon="3.74499">
        <ele>1245.5</ele>
        <time>2021-08-10T12:11:55Z</time>
      </trkpt>
      <trkpt lat="44.40445" lon="3.74481">
        <ele>1245.2</ele>
        <time>2021-08-10T12:11:57Z</time>
      </trkpt>
      <trkpt lat="44.40437" lon="3.74463">
        <ele>1244.9</ele>
        <time>2021-08-10T12:11:59Z</time>
      </trkpt>
      <trkpt lat="44.4043" lon="3.74446">
        <ele>1244.8</ele>
        <time>2021-08-10T12:12:01Z</time>
      </trkpt>
      <trkpt lat="44.40426" lon="3.7443">
        <ele>1245.1</ele>
        <time>2021-08-10T12:12:03Z</time>
      </trkpt>
      <trkpt lat="44.40423" lon="3.74418">
        <ele>1245.2</ele>
        <time>2021-08-10T12:12:05Z</time>
      </trkpt>
      <trkpt lat="44.40415" lon="3.74415">
        <ele>1243.9</ele>
        <time>2021-08-10T12:12:07Z</time>
      </trkpt>
      <trkpt lat="44.40407" lon="3.74425">
        <ele>1242.2</ele>
        <time>2021-08-10T12:12:09Z</time>
      </trkpt>
      <trkpt lat="44.4041" lon="3.7444">
        <ele>1241.5</ele>
        <time>2021-08-10T12:12:11Z</time>
      </trkpt>
      <trkpt lat="44.40418" lon="3.74452">
        <ele>1241.7</ele>
        <time>2021-08-10T12:12:13Z</time>
      </trkpt>
      <trkpt lat="44.40422" lon="3.74466">
        <ele>1241.6</ele>
        <time>2021-08-10T12:12:15Z</time>
      </trkpt>
      <trkpt lat="44.40422" lon="3.74481">
        <ele>1240.6</ele>
        <time>2021-08-10T12:12:17Z</time>
      </trkpt>
      <trkpt lat="44.4042" lon="3.74494">
        <ele>1239.1</ele>
        <time>2021-08-10T12:12:19Z</time>
      </trkpt>
      <trkpt lat="44.40418" lon="3.74505">
        <ele>1238</ele>
        <time>2021-08-10T12:12:21Z</time>
      </trkpt>
      <trkpt lat="44.40416" lon="3.74517">
        <ele>1237.1</ele>
        <time>2021-08-10T12:12:23Z</time>
      </trkpt>
      <trkpt lat="44.40415" lon="3.7453">
        <ele>1236.3</ele>
        <time>2021-08-10T12:12:25Z</time>
      </trkpt>
      <trkpt lat="44.40413" lon="3.74544">
        <ele>1235.5</ele>
        <time>2021-08-10T12:12:27Z</time>
      </trkpt>
      <trkpt lat="44.40408" lon="3.74558">
        <ele>1234.1</ele>
        <time>2021-08-10T12:12:29Z</time>
      </trkpt>
      <trkpt lat="44.40402" lon="3.74572">
        <ele>1232.7</ele>
        <time>2021-08-10T12:12:31Z</time>
      </trkpt>
      <trkpt lat="44.40398" lon="3.7459">
        <ele>1231.6</ele>
        <time>2021-08-10T12:12:33Z</time>
      </trkpt>
      <trkpt lat="44.40397" lon="3.74609">
        <ele>1231.7</ele>
        <time>2021-08-10T12:12:35Z</time>
      </trkpt>
      <trkpt lat="44.40398" lon="3.74629">
        <ele>1232</ele>
        <time>2021-08-10T12:12:37Z</time>
      </trkpt>
      <trkpt lat="44.40396" lon="3.74648">
        <ele>1231.9</ele>
        <time>2021-08-10T12:12:39Z</time>
      </trkpt>
      <trkpt lat="44.40392" lon="3.74666">
        <ele>1231.4</ele>
        <time>2021-08-10T12:12:41Z</time>
      </trkpt>
      <trkpt lat="44.40385" lon="3.74681">
        <ele>1231.1</ele>
        <time>2021-08-10T12:12:43Z</time>
      </trkpt>
      <trkpt lat="44.40379" lon="3.74695">
        <ele>1230.8</ele>
        <time>2021-08-10T12:12:45Z</time>
      </trkpt>
      <trkpt lat="44.40372" lon="3.74709">
        <ele>1230.3</ele>
        <time>2021-08-10T12:12:47Z</time>
      </trkpt>
      <trkpt lat="44.40365" lon="3.74724">
        <ele>1229.9</ele>
        <time>2021-08-10T12:12:49Z</time>
      </trkpt>
      <trkpt lat="44.40358" lon="3.7474">
        <ele>1229.4</ele>
        <time>2021-08-10T12:12:51Z</time>
      </trkpt>
      <trkpt lat="44.4035" lon="3.74757">
        <ele>1229.2</ele>
        <time>2021-08-10T12:12:53Z</time>
      </trkpt>
      <trkpt lat="44.40341" lon="3.74775">
        <ele>1229.3</ele>
        <time>2021-08-10T12:12:55Z</time>
      </trkpt>
      <trkpt lat="44.40329" lon="3.74789">
        <ele>1228.8</ele>
        <time>2021-08-10T12:12:57Z</time>
      </trkpt>
      <trkpt lat="44.40316" lon="3.748">
        <ele>1227.7</ele>
        <time>2021-08-10T12:12:59Z</time>
      </trkpt>
      <trkpt lat="44.403" lon="3.74809">
        <ele>1226.3</ele>
        <time>2021-08-10T12:13:01Z</time>
      </trkpt>
      <trkpt lat="44.40284" lon="3.74815">
        <ele>1224.4</ele>
        <time>2021-08-10T12:13:03Z</time>
      </trkpt>
      <trkpt lat="44.40266" lon="3.7482">
        <ele>1222.3</ele>
        <time>2021-08-10T12:13:05Z</time>
      </trkpt>
      <trkpt lat="44.40247" lon="3.74822">
        <ele>1219.9</ele>
        <time>2021-08-10T12:13:07Z</time>
      </trkpt>
      <trkpt lat="44.40228" lon="3.74825">
        <ele>1217.6</ele>
        <time>2021-08-10T12:13:09Z</time>
      </trkpt>
      <trkpt lat="44.40209" lon="3.74832">
        <ele>1215.5</ele>
        <time>2021-08-10T12:13:11Z</time>
      </trkpt>
      <trkpt lat="44.40192" lon="3.74844">
        <ele>1213.7</ele>
        <time>2021-08-10T12:13:13Z</time>
      </trkpt>
      <trkpt lat="44.40179" lon="3.74861">
        <ele>1212.5</ele>
        <time>2021-08-10T12:13:15Z</time>
      </trkpt>
      <trkpt lat="44.4017" lon="3.74883">
        <ele>1212.2</ele>
        <time>2021-08-10T12:13:17Z</time>
      </trkpt>
      <trkpt lat="44.40163" lon="3.74905">
        <ele>1212.3</ele>
        <time>2021-08-10T12:13:19Z</time>
      </trkpt>
      <trkpt lat="44.4015" lon="3.74923">
        <ele>1212.3</ele>
        <time>2021-08-10T12:13:21Z</time>
      </trkpt>
      <trkpt lat="44.40135" lon="3.74935">
        <ele>1212.1</ele>
        <time>2021-08-10T12:13:23Z</time>
      </trkpt>
      <trkpt lat="44.40118" lon="3.74942">
        <ele>1211.7</ele>
        <time>2021-08-10T12:13:25Z</time>
      </trkpt>
      <trkpt lat="44.40102" lon="3.74936">
        <ele>1210.4</ele>
        <time>2021-08-10T12:13:27Z</time>
      </trkpt>
      <trkpt lat="44.40087" lon="3.7493">
        <ele>1209.1</ele>
        <time>2021-08-10T12:13:29Z</time>
      </trkpt>
      <trkpt lat="44.4007" lon="3.74928">
        <ele>1208.3</ele>
        <time>2021-08-10T12:13:31Z</time>
      </trkpt>
      <trkpt lat="44.40054" lon="3.7493">
        <ele>1207.8</ele>
        <time>2021-08-10T12:13:33Z</time>
      </trkpt>
      <trkpt lat="44.4004" lon="3.74935">
        <ele>1207.5</ele>
        <time>2021-08-10T12:13:35Z</time>
      </trkpt>
      <trkpt lat="44.40026" lon="3.74938">
        <ele>1207.1</ele>
        <time>2021-08-10T12:13:37Z</time>
      </trkpt>
      <trkpt lat="44.40013" lon="3.7494">
        <ele>1206.7</ele>
        <time>2021-08-10T12:13:39Z</time>
      </trkpt>
      <trkpt lat="44.4" lon="3.74947">
        <ele>1206.5</ele>
        <time>2021-08-10T12:13:41Z</time>
      </trkpt>
      <trkpt lat="44.39989" lon="3.74956">
        <ele>1206.3</ele>
        <time>2021-08-10T12:13:43Z</time>
      </trkpt>
      <trkpt lat="44.39978" lon="3.74967">
        <ele>1206.3</ele>
        <time>2021-08-10T12:13:45Z</time>
      </trkpt>
      <trkpt lat="44.39965" lon="3.74973">
        <ele>1205.9</ele>
        <time>2021-08-10T12:13:47Z</time>
      </trkpt>
      <trkpt lat="44.39952" lon="3.74979">
        <ele>1205.5</ele>
        <time>2021-08-10T12:13:49Z</time>
      </trkpt>
      <trkpt lat="44.39939" lon="3.74986">
        <ele>1205.3</ele>
        <time>2021-08-10T12:13:51Z</time>
      </trkpt>
      <trkpt lat="44.39925" lon="3.74992">
        <ele>1204.9</ele>
        <time>2021-08-10T12:13:53Z</time>
      </trkpt>
      <trkpt lat="44.39911" lon="3.74998">
        <ele>1204.2</ele>
        <time>2021-08-10T12:13:55Z</time>
      </trkpt>
      <trkpt lat="44.39898" lon="3.75004">
        <ele>1202.7</ele>
        <time>2021-08-10T12:13:57Z</time>
      </trkpt>
      <trkpt lat="44.39887" lon="3.7501">
        <ele>1201.5</ele>
        <time>2021-08-10T12:13:59Z</time>
      </trkpt>
      <trkpt lat="44.39875" lon="3.75018">
        <ele>1200.2</ele>
        <time>2021-08-10T12:14:01Z</time>
      </trkpt>
      <trkpt lat="44.39866" lon="3.75031">
        <ele>1199.6</ele>
        <time>2021-08-10T12:14:03Z</time>
      </trkpt>
      <trkpt lat="44.39859" lon="3.75047">
        <ele>1199</ele>
        <time>2021-08-10T12:14:05Z</time>
      </trkpt>
      <trkpt lat="44.39852" lon="3.75062">
        <ele>1198.4</ele>
        <time>2021-08-10T12:14:07Z</time>
      </trkpt>
      <trkpt lat="44.39846" lon="3.75077">
        <ele>1197.9</ele>
        <time>2021-08-10T12:14:09Z</time>
      </trkpt>
      <trkpt lat="44.39843" lon="3.75095">
        <ele>1198</ele>
        <time>2021-08-10T12:14:11Z</time>
      </trkpt>
      <trkpt lat="44.39843" lon="3.75114">
        <ele>1198.6</ele>
        <time>2021-08-10T12:14:13Z</time>
      </trkpt>
      <trkpt lat="44.39844" lon="3.75133">
        <ele>1199.5</ele>
        <time>2021-08-10T12:14:15Z</time>
      </trkpt>
      <trkpt lat="44.39837" lon="3.7515">
        <ele>1199</ele>
        <time>2021-08-10T12:14:17Z</time>
      </trkpt>
      <trkpt lat="44.39824" lon="3.75162">
        <ele>1197.8</ele>
        <time>2021-08-10T12:14:19Z</time>
      </trkpt>
      <trkpt lat="44.39807" lon="3.7516">
        <ele>1195.8</ele>
        <time>2021-08-10T12:14:21Z</time>
      </trkpt>
      <trkpt lat="44.3979" lon="3.75155">
        <ele>1193.3</ele>
        <time>2021-08-10T12:14:23Z</time>
      </trkpt>
      <trkpt lat="44.39772" lon="3.75156">
        <ele>1191.2</ele>
        <time>2021-08-10T12:14:25Z</time>
      </trkpt>
      <trkpt lat="44.39755" lon="3.75163">
        <ele>1190.1</ele>
        <time>2021-08-10T12:14:27Z</time>
      </trkpt>
      <trkpt lat="44.39744" lon="3.75178">
        <ele>1191.4</ele>
        <time>2021-08-10T12:14:29Z</time>
      </trkpt>
      <trkpt lat="44.39733" lon="3.75194">
        <ele>1193</ele>
        <time>2021-08-10T12:14:31Z</time>
      </trkpt>
      <trkpt lat="44.39719" lon="3.75205">
        <ele>1193.8</ele>
        <time>2021-08-10T12:14:33Z</time>
      </trkpt>
      <trkpt lat="44.39703" lon="3.75206">
        <ele>1193</ele>
        <time>2021-08-10T12:14:35Z</time>
      </trkpt>
      <trkpt lat="44.39687" lon="3.75198">
        <ele>1190.5</ele>
        <time>2021-08-10T12:14:37Z</time>
      </trkpt>
      <trkpt lat="44.39674" lon="3.75181">
        <ele>1186.4</ele>
        <time>2021-08-10T12:14:39Z</time>
      </trkpt>
      <trkpt lat="44.39663" lon="3.75163">
        <ele>1182.5</ele>
        <time>2021-08-10T12:14:41Z</time>
      </trkpt>
      <trkpt lat="44.39654" lon="3.75146">
        <ele>1179.9</ele>
        <time>2021-08-10T12:14:43Z</time>
      </trkpt>
      <trkpt lat="44.39645" lon="3.75129">
        <ele>1177.4</ele>
        <time>2021-08-10T12:14:45Z</time>
      </trkpt>
      <trkpt lat="44.39631" lon="3.75118">
        <ele>1175.5</ele>
        <time>2021-08-10T12:14:47Z</time>
      </trkpt>
      <trkpt lat="44.39615" lon="3.75115">
        <ele>1175.1</ele>
        <time>2021-08-10T12:14:49Z</time>
      </trkpt>
      <trkpt lat="44.396" lon="3.75118">
        <ele>1175.7</ele>
        <time>2021-08-10T12:14:51Z</time>
      </trkpt>
      <trkpt lat="44.39586" lon="3.75122">
        <ele>1176.4</ele>
        <time>2021-08-10T12:14:53Z</time>
      </trkpt>
      <trkpt lat="44.39571" lon="3.75126">
        <ele>1175.9</ele>
        <time>2021-08-10T12:14:55Z</time>
      </trkpt>
      <trkpt lat="44.39556" lon="3.7513">
        <ele>1175.3</ele>
        <time>2021-08-10T12:14:57Z</time>
      </trkpt>
      <trkpt lat="44.39541" lon="3.75135">
        <ele>1174.6</ele>
        <time>2021-08-10T12:14:59Z</time>
      </trkpt>
      <trkpt lat="44.39525" lon="3.75139">
        <ele>1173.8</ele>
        <time>2021-08-10T12:15:01Z</time>
      </trkpt>
      <trkpt lat="44.39508" lon="3.75144">
        <ele>1173.3</ele>
        <time>2021-08-10T12:15:03Z</time>
      </trkpt>
      <trkpt lat="44.39492" lon="3.75151">
        <ele>1172.6</ele>
        <time>2021-08-10T12:15:05Z</time>
      </trkpt>
      <trkpt lat="44.39475" lon="3.75159">
        <ele>1171.7</ele>
        <time>2021-08-10T12:15:07Z</time>
      </trkpt>
      <trkpt lat="44.39458" lon="3.75168">
        <ele>1170.7</ele>
        <time>2021-08-10T12:15:09Z</time>
      </trkpt>
      <trkpt lat="44.39442" lon="3.75175">
        <ele>1170.1</ele>
        <time>2021-08-10T12:15:11Z</time>
      </trkpt>
      <trkpt lat="44.39426" lon="3.75183">
        <ele>1169.5</ele>
        <time>2021-08-10T12:15:13Z</time>
      </trkpt>
      <trkpt lat="44.3941" lon="3.7519">
        <ele>1169</ele>
        <time>2021-08-10T12:15:15Z</time>
      </trkpt>
      <trkpt lat="44.39395" lon="3.75197">
        <ele>1168.7</ele>
        <time>2021-08-10T12:15:17Z</time>
      </trkpt>
      <trkpt lat="44.39379" lon="3.75205">
        <ele>1168.6</ele>
        <time>2021-08-10T12:15:19Z</time>
      </trkpt>
      <trkpt lat="44.39362" lon="3.75213">
        <ele>1168</ele>
        <time>2021-08-10T12:15:21Z</time>
      </trkpt>
      <trkpt lat="44.39344" lon="3.75217">
        <ele>1166.3</ele>
        <time>2021-08-10T12:15:23Z</time>
      </trkpt>
      <trkpt lat="44.39326" lon="3.75221">
        <ele>1165.5</ele>
        <time>2021-08-10T12:15:25Z</time>
      </trkpt>
      <trkpt lat="44.39309" lon="3.75223">
        <ele>1165.7</ele>
        <time>2021-08-10T12:15:27Z</time>
      </trkpt>
      <trkpt lat="44.39293" lon="3.75224">
        <ele>1165.3</ele>
        <time>2021-08-10T12:15:29Z</time>
      </trkpt>
      <trkpt lat="44.39276" lon="3.75217">
        <ele>1163.6</ele>
        <time>2021-08-10T12:15:31Z</time>
      </trkpt>
      <trkpt lat="44.39262" lon="3.75201">
        <ele>1160.3</ele>
        <time>2021-08-10T12:15:33Z</time>
      </trkpt>
      <trkpt lat="44.39255" lon="3.75179">
        <ele>1156.3</ele>
        <time>2021-08-10T12:15:35Z</time>
      </trkpt>
      <trkpt lat="44.39248" lon="3.75159">
        <ele>1152.6</ele>
        <time>2021-08-10T12:15:37Z</time>
      </trkpt>
      <trkpt lat="44.39237" lon="3.75141">
        <ele>1149.3</ele>
        <time>2021-08-10T12:15:39Z</time>
      </trkpt>
      <trkpt lat="44.39222" lon="3.75128">
        <ele>1147.2</ele>
        <time>2021-08-10T12:15:41Z</time>
      </trkpt>
      <trkpt lat="44.39206" lon="3.7512">
        <ele>1146.1</ele>
        <time>2021-08-10T12:15:43Z</time>
      </trkpt>
      <trkpt lat="44.39192" lon="3.7512">
        <ele>1146.1</ele>
        <time>2021-08-10T12:15:45Z</time>
      </trkpt>
      <trkpt lat="44.39177" lon="3.75124">
        <ele>1146.8</ele>
        <time>2021-08-10T12:15:47Z</time>
      </trkpt>
      <trkpt lat="44.39162" lon="3.75133">
        <ele>1147.1</ele>
        <time>2021-08-10T12:15:49Z</time>
      </trkpt>
      <trkpt lat="44.39149" lon="3.75147">
        <ele>1146.2</ele>
        <time>2021-08-10T12:15:51Z</time>
      </trkpt>
      <trkpt lat="44.39138" lon="3.75167">
        <ele>1145.8</ele>
        <time>2021-08-10T12:15:53Z</time>
      </trkpt>
      <trkpt lat="44.39126" lon="3.75189">
        <ele>1146</ele>
        <time>2021-08-10T12:15:55Z</time>
      </trkpt>
      <trkpt lat="44.39114" lon="3.75209">
        <ele>1145.8</ele>
        <time>2021-08-10T12:15:57Z</time>
      </trkpt>
      <trkpt lat="44.39103" lon="3.75229">
        <ele>1145.5</ele>
        <time>2021-08-10T12:15:59Z</time>
      </trkpt>
      <trkpt lat="44.39091" lon="3.75248">
        <ele>1144.8</ele>
        <time>2021-08-10T12:16:01Z</time>
      </trkpt>
      <trkpt lat="44.39078" lon="3.75266">
        <ele>1144.8</ele>
        <time>2021-08-10T12:16:03Z</time>
      </trkpt>
      <trkpt lat="44.39064" lon="3.75284">
        <ele>1144.5</ele>
        <time>2021-08-10T12:16:05Z</time>
      </trkpt>
      <trkpt lat="44.3905" lon="3.75299">
        <ele>1144.4</ele>
        <time>2021-08-10T12:16:07Z</time>
      </trkpt>
      <trkpt lat="44.39034" lon="3.75311">
        <ele>1143.3</ele>
        <time>2021-08-10T12:16:09Z</time>
      </trkpt>
      <trkpt lat="44.39017" lon="3.75321">
        <ele>1141.8</ele>
        <time>2021-08-10T12:16:11Z</time>
      </trkpt>
      <trkpt lat="44.39" lon="3.75331">
        <ele>1140.6</ele>
        <time>2021-08-10T12:16:13Z</time>
      </trkpt>
      <trkpt lat="44.38982" lon="3.75341">
        <ele>1140.4</ele>
        <time>2021-08-10T12:16:15Z</time>
      </trkpt>
      <trkpt lat="44.38965" lon="3.75344">
        <ele>1138.8</ele>
        <time>2021-08-10T12:16:17Z</time>
      </trkpt>
      <trkpt lat="44.38947" lon="3.75347">
        <ele>1137.1</ele>
        <time>2021-08-10T12:16:19Z</time>
      </trkpt>
      <trkpt lat="44.38931" lon="3.7535">
        <ele>1135.6</ele>
        <time>2021-08-10T12:16:21Z</time>
      </trkpt>
      <trkpt lat="44.38917" lon="3.75343">
        <ele>1131.7</ele>
        <time>2021-08-10T12:16:23Z</time>
      </trkpt>
      <trkpt lat="44.38904" lon="3.75331">
        <ele>1127.7</ele>
        <time>2021-08-10T12:16:25Z</time>
      </trkpt>
      <trkpt lat="44.38892" lon="3.75317">
        <ele>1123.5</ele>
        <time>2021-08-10T12:16:27Z</time>
      </trkpt>
      <trkpt lat="44.38877" lon="3.75313">
        <ele>1121.3</ele>
        <time>2021-08-10T12:16:29Z</time>
      </trkpt>
      <trkpt lat="44.3886" lon="3.75318">
        <ele>1121.7</ele>
        <time>2021-08-10T12:16:31Z</time>
      </trkpt>
      <trkpt lat="44.38843" lon="3.75325">
        <ele>1122.3</ele>
        <time>2021-08-10T12:16:33Z</time>
      </trkpt>
      <trkpt lat="44.38826" lon="3.75335">
        <ele>1123.9</ele>
        <time>2021-08-10T12:16:35Z</time>
      </trkpt>
      <trkpt lat="44.38808" lon="3.75337">
        <ele>1123.6</ele>
        <time>2021-08-10T12:16:37Z</time>
      </trkpt>
      <trkpt lat="44.38791" lon="3.75327">
        <ele>1120</ele>
        <time>2021-08-10T12:16:39Z</time>
      </trkpt>
      <trkpt lat="44.38777" lon="3.75312">
        <ele>1114.7</ele>
        <time>2021-08-10T12:16:41Z</time>
      </trkpt>
      <trkpt lat="44.38762" lon="3.75299">
        <ele>1110.1</ele>
        <time>2021-08-10T12:16:43Z</time>
      </trkpt>
      <trkpt lat="44.38748" lon="3.75291">
        <ele>1106.7</ele>
        <time>2021-08-10T12:16:45Z</time>
      </trkpt>
      <trkpt lat="44.38735" lon="3.75289">
        <ele>1104.9</ele>
        <time>2021-08-10T12:16:47Z</time>
      </trkpt>
      <trkpt lat="44.38721" lon="3.75291">
        <ele>1104.1</ele>
        <time>2021-08-10T12:16:49Z</time>
      </trkpt>
      <trkpt lat="44.38706" lon="3.75293">
        <ele>1103.5</ele>
        <time>2021-08-10T12:16:51Z</time>
      </trkpt>
      <trkpt lat="44.38691" lon="3.75297">
        <ele>1103.3</ele>
        <time>2021-08-10T12:16:53Z</time>
      </trkpt>
      <trkpt lat="44.38674" lon="3.75302">
        <ele>1103.6</ele>
        <time>2021-08-10T12:16:55Z</time>
      </trkpt>
      <trkpt lat="44.38658" lon="3.75307">
        <ele>1103.1</ele>
        <time>2021-08-10T12:16:57Z</time>
      </trkpt>
      <trkpt lat="44.38641" lon="3.75312">
        <ele>1101.9</ele>
        <time>2021-08-10T12:16:59Z</time>
      </trkpt>
      <trkpt lat="44.38625" lon="3.75316">
        <ele>1100.7</ele>
        <time>2021-08-10T12:17:01Z</time>
      </trkpt>
      <trkpt lat="44.38608" lon="3.7532">
        <ele>1099.5</ele>
        <time>2021-08-10T12:17:03Z</time>
      </trkpt>
      <trkpt lat="44.38592" lon="3.75324">
        <ele>1098.2</ele>
        <time>2021-08-10T12:17:05Z</time>
      </trkpt>
      <trkpt lat="44.38576" lon="3.75327">
        <ele>1097.1</ele>
        <time>2021-08-10T12:17:07Z</time>
      </trkpt>
      <trkpt lat="44.3856" lon="3.7533">
        <ele>1096.4</ele>
        <time>2021-08-10T12:17:09Z</time>
      </trkpt>
      <trkpt lat="44.38543" lon="3.75332">
        <ele>1095.3</ele>
        <time>2021-08-10T12:17:11Z</time>
      </trkpt>
      <trkpt lat="44.38527" lon="3.75333">
        <ele>1093.6</ele>
        <time>2021-08-10T12:17:13Z</time>
      </trkpt>
      <trkpt lat="44.38511" lon="3.75334">
        <ele>1092.3</ele>
        <time>2021-08-10T12:17:15Z</time>
      </trkpt>
      <trkpt lat="44.38495" lon="3.75335">
        <ele>1090.9</ele>
        <time>2021-08-10T12:17:17Z</time>
      </trkpt>
      <trkpt lat="44.38479" lon="3.75336">
        <ele>1089.2</ele>
        <time>2021-08-10T12:17:19Z</time>
      </trkpt>
      <trkpt lat="44.38464" lon="3.75335">
        <ele>1087</ele>
        <time>2021-08-10T12:17:21Z</time>
      </trkpt>
      <trkpt lat="44.38452" lon="3.75333">
        <ele>1085</ele>
        <time>2021-08-10T12:17:23Z</time>
      </trkpt>
      <trkpt lat="44.38441" lon="3.75332">
        <ele>1083.4</ele>
        <time>2021-08-10T12:17:25Z</time>
      </trkpt>
      <trkpt lat="44.38433" lon="3.75332">
        <ele>1082.4</ele>
        <time>2021-08-10T12:17:27Z</time>
      </trkpt>
      <trkpt lat="44.38428" lon="3.75332">
        <ele>1081.8</ele>
        <time>2021-08-10T12:17:29Z</time>
      </trkpt>
      <trkpt lat="44.38424" lon="3.75331">
        <ele>1081.3</ele>
        <time>2021-08-10T12:17:31Z</time>
      </trkpt>
      <trkpt lat="44.38422" lon="3.75333">
        <ele>1081.4</ele>
        <time>2021-08-10T12:17:33Z</time>
      </trkpt>
      <trkpt lat="44.38422" lon="3.75332">
        <ele>1081.4</ele>
        <time>2021-08-10T12:17:35Z</time>
      </trkpt>
      <trkpt lat="44.38422" lon="3.75332">
        <ele>1081.4</ele>
        <time>2021-08-10T12:17:37Z</time>
      </trkpt>
      <trkpt lat="44.38422" lon="3.75333">
        <ele>1081.4</ele>
        <time>2021-08-10T12:17:39Z</time>
      </trkpt>
      <trkpt lat="44.38422" lon="3.75332">
        <ele>1081.4</ele>
        <time>2021-08-10T12:17:41Z</time>
      </trkpt>
      <trkpt lat="44.38401" lon="3.75355">
        <ele>1082</ele>
        <time>2021-08-10T12:22:39Z</time>
      </trkpt>
      <trkpt lat="44.38393" lon="3.75368">
        <ele>1082.2</ele>
        <time>2021-08-10T12:22:41Z</time>
      </trkpt>
      <trkpt lat="44.38383" lon="3.75381">
        <ele>1082.3</ele>
        <time>2021-08-10T12:22:43Z</time>
      </trkpt>
      <trkpt lat="44.38374" lon="3.75395">
        <ele>1082.2</ele>
        <time>2021-08-10T12:22:45Z</time>
      </trkpt>
      <trkpt lat="44.38365" lon="3.75409">
        <ele>1082.1</ele>
        <time>2021-08-10T12:22:47Z</time>
      </trkpt>
      <trkpt lat="44.3836" lon="3.75427">
        <ele>1083.2</ele>
        <time>2021-08-10T12:22:49Z</time>
      </trkpt>
      <trkpt lat="44.38356" lon="3.75445">
        <ele>1084.3</ele>
        <time>2021-08-10T12:22:51Z</time>
      </trkpt>
      <trkpt lat="44.38353" lon="3.75464">
        <ele>1085.7</ele>
        <time>2021-08-10T12:22:53Z</time>
      </trkpt>
      <trkpt lat="44.38349" lon="3.7548">
        <ele>1086.5</ele>
        <time>2021-08-10T12:22:55Z</time>
      </trkpt>
      <trkpt lat="44.38342" lon="3.75495">
        <ele>1086.1</ele>
        <time>2021-08-10T12:22:57Z</time>
      </trkpt>
      <trkpt lat="44.38334" lon="3.75506">
        <ele>1084.7</ele>
        <time>2021-08-10T12:22:59Z</time>
      </trkpt>
      <trkpt lat="44.38328" lon="3.75518">
        <ele>1085.2</ele>
        <time>2021-08-10T12:23:01Z</time>
      </trkpt>
      <trkpt lat="44.38326" lon="3.75527">
        <ele>1086</ele>
        <time>2021-08-10T12:23:03Z</time>
      </trkpt>
      <trkpt lat="44.38325" lon="3.75533">
        <ele>1086.4</ele>
        <time>2021-08-10T12:23:05Z</time>
      </trkpt>
      <trkpt lat="44.38326" lon="3.75537">
        <ele>1086.6</ele>
        <time>2021-08-10T12:23:07Z</time>
      </trkpt>
      <trkpt lat="44.38328" lon="3.75541">
        <ele>1086.8</ele>
        <time>2021-08-10T12:23:09Z</time>
      </trkpt>
      <trkpt lat="44.38329" lon="3.75549">
        <ele>1087.3</ele>
        <time>2021-08-10T12:23:11Z</time>
      </trkpt>
      <trkpt lat="44.38325" lon="3.75561">
        <ele>1088.4</ele>
        <time>2021-08-10T12:23:13Z</time>
      </trkpt>
      <trkpt lat="44.38318" lon="3.75569">
        <ele>1089.8</ele>
        <time>2021-08-10T12:23:15Z</time>
      </trkpt>
      <trkpt lat="44.38312" lon="3.75577">
        <ele>1091.2</ele>
        <time>2021-08-10T12:23:17Z</time>
      </trkpt>
      <trkpt lat="44.38305" lon="3.75582">
        <ele>1092.6</ele>
        <time>2021-08-10T12:23:19Z</time>
      </trkpt>
      <trkpt lat="44.38296" lon="3.75579">
        <ele>1093.4</ele>
        <time>2021-08-10T12:23:21Z</time>
      </trkpt>
      <trkpt lat="44.38287" lon="3.75574">
        <ele>1093.9</ele>
        <time>2021-08-10T12:23:23Z</time>
      </trkpt>
      <trkpt lat="44.38278" lon="3.75565">
        <ele>1093.6</ele>
        <time>2021-08-10T12:23:25Z</time>
      </trkpt>
      <trkpt lat="44.38273" lon="3.75547">
        <ele>1091.3</ele>
        <time>2021-08-10T12:23:27Z</time>
      </trkpt>
      <trkpt lat="44.38266" lon="3.75532">
        <ele>1089.3</ele>
        <time>2021-08-10T12:23:29Z</time>
      </trkpt>
      <trkpt lat="44.38257" lon="3.75516">
        <ele>1086.8</ele>
        <time>2021-08-10T12:23:31Z</time>
      </trkpt>
      <trkpt lat="44.38251" lon="3.75495">
        <ele>1083.4</ele>
        <time>2021-08-10T12:23:33Z</time>
      </trkpt>
      <trkpt lat="44.38248" lon="3.75476">
        <ele>1081.6</ele>
        <time>2021-08-10T12:23:35Z</time>
      </trkpt>
      <trkpt lat="44.38246" lon="3.75456">
        <ele>1079.6</ele>
        <time>2021-08-10T12:23:37Z</time>
      </trkpt>
      <trkpt lat="44.38248" lon="3.75435">
        <ele>1076.2</ele>
        <time>2021-08-10T12:23:39Z</time>
      </trkpt>
      <trkpt lat="44.3825" lon="3.75415">
        <ele>1072.9</ele>
        <time>2021-08-10T12:23:41Z</time>
      </trkpt>
      <trkpt lat="44.38256" lon="3.75396">
        <ele>1070.7</ele>
        <time>2021-08-10T12:23:43Z</time>
      </trkpt>
      <trkpt lat="44.38257" lon="3.75376">
        <ele>1068.3</ele>
        <time>2021-08-10T12:23:45Z</time>
      </trkpt>
      <trkpt lat="44.38257" lon="3.75354">
        <ele>1065.9</ele>
        <time>2021-08-10T12:23:47Z</time>
      </trkpt>
      <trkpt lat="44.38258" lon="3.75333">
        <ele>1063.4</ele>
        <time>2021-08-10T12:23:49Z</time>
      </trkpt>
      <trkpt lat="44.3826" lon="3.75314">
        <ele>1058.3</ele>
        <time>2021-08-10T12:23:51Z</time>
      </trkpt>
      <trkpt lat="44.38257" lon="3.75297">
        <ele>1054.2</ele>
        <time>2021-08-10T12:23:53Z</time>
      </trkpt>
      <trkpt lat="44.38249" lon="3.75285">
        <ele>1051.3</ele>
        <time>2021-08-10T12:23:55Z</time>
      </trkpt>
      <trkpt lat="44.38235" lon="3.75278">
        <ele>1050.4</ele>
        <time>2021-08-10T12:23:57Z</time>
      </trkpt>
      <trkpt lat="44.38219" lon="3.75277">
        <ele>1051</ele>
        <time>2021-08-10T12:23:59Z</time>
      </trkpt>
      <trkpt lat="44.38203" lon="3.75278">
        <ele>1052.4</ele>
        <time>2021-08-10T12:24:01Z</time>
      </trkpt>
      <trkpt lat="44.38184" lon="3.75279">
        <ele>1053.6</ele>
        <time>2021-08-10T12:24:03Z</time>
      </trkpt>
      <trkpt lat="44.38166" lon="3.75282">
        <ele>1056</ele>
        <time>2021-08-10T12:24:05Z</time>
      </trkpt>
      <trkpt lat="44.38148" lon="3.75284">
        <ele>1057</ele>
        <time>2021-08-10T12:24:07Z</time>
      </trkpt>
      <trkpt lat="44.3813" lon="3.75283">
        <ele>1056.5</ele>
        <time>2021-08-10T12:24:09Z</time>
      </trkpt>
      <trkpt lat="44.38113" lon="3.75281">
        <ele>1055.6</ele>
        <time>2021-08-10T12:24:11Z</time>
      </trkpt>
      <trkpt lat="44.38096" lon="3.75281">
        <ele>1055.3</ele>
        <time>2021-08-10T12:24:13Z</time>
      </trkpt>
      <trkpt lat="44.38078" lon="3.75282">
        <ele>1055.7</ele>
        <time>2021-08-10T12:24:15Z</time>
      </trkpt>
      <trkpt lat="44.38062" lon="3.75285">
        <ele>1056.9</ele>
        <time>2021-08-10T12:24:17Z</time>
      </trkpt>
      <trkpt lat="44.38046" lon="3.75285">
        <ele>1057</ele>
        <time>2021-08-10T12:24:19Z</time>
      </trkpt>
      <trkpt lat="44.38028" lon="3.75277">
        <ele>1053.4</ele>
        <time>2021-08-10T12:24:21Z</time>
      </trkpt>
      <trkpt lat="44.38011" lon="3.75264">
        <ele>1048.4</ele>
        <time>2021-08-10T12:24:23Z</time>
      </trkpt>
      <trkpt lat="44.37995" lon="3.75255">
        <ele>1044.9</ele>
        <time>2021-08-10T12:24:25Z</time>
      </trkpt>
      <trkpt lat="44.37978" lon="3.75246">
        <ele>1041.4</ele>
        <time>2021-08-10T12:24:27Z</time>
      </trkpt>
      <trkpt lat="44.37961" lon="3.75238">
        <ele>1038.4</ele>
        <time>2021-08-10T12:24:29Z</time>
      </trkpt>
      <trkpt lat="44.37943" lon="3.75232">
        <ele>1036.2</ele>
        <time>2021-08-10T12:24:31Z</time>
      </trkpt>
      <trkpt lat="44.37925" lon="3.75228">
        <ele>1034.6</ele>
        <time>2021-08-10T12:24:33Z</time>
      </trkpt>
      <trkpt lat="44.37907" lon="3.75227">
        <ele>1033.8</ele>
        <time>2021-08-10T12:24:35Z</time>
      </trkpt>
      <trkpt lat="44.37889" lon="3.75227">
        <ele>1033.2</ele>
        <time>2021-08-10T12:24:37Z</time>
      </trkpt>
      <trkpt lat="44.37871" lon="3.75229">
        <ele>1033.2</ele>
        <time>2021-08-10T12:24:39Z</time>
      </trkpt>
      <trkpt lat="44.37854" lon="3.75233">
        <ele>1034</ele>
        <time>2021-08-10T12:24:41Z</time>
      </trkpt>
      <trkpt lat="44.37837" lon="3.75233">
        <ele>1033.2</ele>
        <time>2021-08-10T12:24:43Z</time>
      </trkpt>
      <trkpt lat="44.3782" lon="3.75224">
        <ele>1030.1</ele>
        <time>2021-08-10T12:24:45Z</time>
      </trkpt>
      <trkpt lat="44.37801" lon="3.75217">
        <ele>1027.6</ele>
        <time>2021-08-10T12:24:47Z</time>
      </trkpt>
      <trkpt lat="44.37783" lon="3.7521">
        <ele>1025.3</ele>
        <time>2021-08-10T12:24:49Z</time>
      </trkpt>
      <trkpt lat="44.37764" lon="3.75205">
        <ele>1023.4</ele>
        <time>2021-08-10T12:24:51Z</time>
      </trkpt>
      <trkpt lat="44.37745" lon="3.75202">
        <ele>1021.8</ele>
        <time>2021-08-10T12:24:53Z</time>
      </trkpt>
      <trkpt lat="44.37725" lon="3.75199">
        <ele>1020.1</ele>
        <time>2021-08-10T12:24:55Z</time>
      </trkpt>
      <trkpt lat="44.37705" lon="3.75201">
        <ele>1019.5</ele>
        <time>2021-08-10T12:24:57Z</time>
      </trkpt>
      <trkpt lat="44.37686" lon="3.75202">
        <ele>1018.7</ele>
        <time>2021-08-10T12:24:59Z</time>
      </trkpt>
      <trkpt lat="44.37666" lon="3.75203">
        <ele>1017.9</ele>
        <time>2021-08-10T12:25:01Z</time>
      </trkpt>
      <trkpt lat="44.37646" lon="3.75205">
        <ele>1019.2</ele>
        <time>2021-08-10T12:25:03Z</time>
      </trkpt>
      <trkpt lat="44.37628" lon="3.75203">
        <ele>1019.3</ele>
        <time>2021-08-10T12:25:05Z</time>
      </trkpt>
      <trkpt lat="44.3761" lon="3.75201">
        <ele>1019.4</ele>
        <time>2021-08-10T12:25:07Z</time>
      </trkpt>
      <trkpt lat="44.37593" lon="3.75198">
        <ele>1018.9</ele>
        <time>2021-08-10T12:25:09Z</time>
      </trkpt>
      <trkpt lat="44.37575" lon="3.7519">
        <ele>1017.1</ele>
        <time>2021-08-10T12:25:11Z</time>
      </trkpt>
      <trkpt lat="44.37559" lon="3.75178">
        <ele>1014.2</ele>
        <time>2021-08-10T12:25:13Z</time>
      </trkpt>
      <trkpt lat="44.37543" lon="3.75171">
        <ele>1012.3</ele>
        <time>2021-08-10T12:25:15Z</time>
      </trkpt>
      <trkpt lat="44.37527" lon="3.75163">
        <ele>1010.6</ele>
        <time>2021-08-10T12:25:17Z</time>
      </trkpt>
      <trkpt lat="44.37511" lon="3.75154">
        <ele>1008.7</ele>
        <time>2021-08-10T12:25:19Z</time>
      </trkpt>
      <trkpt lat="44.37494" lon="3.75148">
        <ele>1007.2</ele>
        <time>2021-08-10T12:25:21Z</time>
      </trkpt>
      <trkpt lat="44.37476" lon="3.75152">
        <ele>1006.9</ele>
        <time>2021-08-10T12:25:23Z</time>
      </trkpt>
      <trkpt lat="44.37459" lon="3.75155">
        <ele>1006.6</ele>
        <time>2021-08-10T12:25:25Z</time>
      </trkpt>
      <trkpt lat="44.3744" lon="3.7515">
        <ele>1004.1</ele>
        <time>2021-08-10T12:25:27Z</time>
      </trkpt>
      <trkpt lat="44.37421" lon="3.75142">
        <ele>1000.9</ele>
        <time>2021-08-10T12:25:29Z</time>
      </trkpt>
      <trkpt lat="44.37402" lon="3.75134">
        <ele>998.3</ele>
        <time>2021-08-10T12:25:31Z</time>
      </trkpt>
      <trkpt lat="44.37382" lon="3.75131">
        <ele>997.2</ele>
        <time>2021-08-10T12:25:33Z</time>
      </trkpt>
      <trkpt lat="44.37362" lon="3.75131">
        <ele>996.7</ele>
        <time>2021-08-10T12:25:35Z</time>
      </trkpt>
      <trkpt lat="44.37343" lon="3.75126">
        <ele>995</ele>
        <time>2021-08-10T12:25:37Z</time>
      </trkpt>
      <trkpt lat="44.37325" lon="3.75119">
        <ele>992.8</ele>
        <time>2021-08-10T12:25:39Z</time>
      </trkpt>
      <trkpt lat="44.37304" lon="3.75114">
        <ele>991.5</ele>
        <time>2021-08-10T12:25:41Z</time>
      </trkpt>
      <trkpt lat="44.37283" lon="3.75111">
        <ele>990.9</ele>
        <time>2021-08-10T12:25:43Z</time>
      </trkpt>
      <trkpt lat="44.37264" lon="3.7511">
        <ele>990.8</ele>
        <time>2021-08-10T12:25:45Z</time>
      </trkpt>
      <trkpt lat="44.37245" lon="3.75107">
        <ele>990.3</ele>
        <time>2021-08-10T12:25:47Z</time>
      </trkpt>
      <trkpt lat="44.37226" lon="3.75103">
        <ele>989.5</ele>
        <time>2021-08-10T12:25:49Z</time>
      </trkpt>
      <trkpt lat="44.37207" lon="3.75092">
        <ele>987</ele>
        <time>2021-08-10T12:25:51Z</time>
      </trkpt>
      <trkpt lat="44.3719" lon="3.75082">
        <ele>985</ele>
        <time>2021-08-10T12:25:53Z</time>
      </trkpt>
      <trkpt lat="44.37174" lon="3.75072">
        <ele>983.4</ele>
        <time>2021-08-10T12:25:55Z</time>
      </trkpt>
      <trkpt lat="44.37157" lon="3.75059">
        <ele>982.9</ele>
        <time>2021-08-10T12:25:57Z</time>
      </trkpt>
      <trkpt lat="44.37144" lon="3.75043">
        <ele>981.6</ele>
        <time>2021-08-10T12:25:59Z</time>
      </trkpt>
      <trkpt lat="44.37131" lon="3.75023">
        <ele>979.1</ele>
        <time>2021-08-10T12:26:01Z</time>
      </trkpt>
      <trkpt lat="44.3712" lon="3.75005">
        <ele>976.5</ele>
        <time>2021-08-10T12:26:03Z</time>
      </trkpt>
      <trkpt lat="44.37107" lon="3.7499">
        <ele>975.5</ele>
        <time>2021-08-10T12:26:05Z</time>
      </trkpt>
      <trkpt lat="44.37091" lon="3.74983">
        <ele>975.9</ele>
        <time>2021-08-10T12:26:07Z</time>
      </trkpt>
      <trkpt lat="44.37075" lon="3.74978">
        <ele>977.5</ele>
        <time>2021-08-10T12:26:09Z</time>
      </trkpt>
      <trkpt lat="44.3706" lon="3.74968">
        <ele>978.5</ele>
        <time>2021-08-10T12:26:11Z</time>
      </trkpt>
      <trkpt lat="44.3705" lon="3.74948">
        <ele>975.2</ele>
        <time>2021-08-10T12:26:13Z</time>
      </trkpt>
      <trkpt lat="44.37041" lon="3.74928">
        <ele>970.8</ele>
        <time>2021-08-10T12:26:15Z</time>
      </trkpt>
      <trkpt lat="44.3703" lon="3.74912">
        <ele>968.3</ele>
        <time>2021-08-10T12:26:17Z</time>
      </trkpt>
      <trkpt lat="44.37017" lon="3.74901">
        <ele>968.1</ele>
        <time>2021-08-10T12:26:19Z</time>
      </trkpt>
      <trkpt lat="44.37002" lon="3.74891">
        <ele>967.1</ele>
        <time>2021-08-10T12:26:21Z</time>
      </trkpt>
      <trkpt lat="44.36986" lon="3.74883">
        <ele>965.9</ele>
        <time>2021-08-10T12:26:23Z</time>
      </trkpt>
      <trkpt lat="44.3697" lon="3.74875">
        <ele>964.6</ele>
        <time>2021-08-10T12:26:25Z</time>
      </trkpt>
      <trkpt lat="44.36956" lon="3.74869">
        <ele>963.2</ele>
        <time>2021-08-10T12:26:27Z</time>
      </trkpt>
      <trkpt lat="44.36938" lon="3.74865">
        <ele>962.4</ele>
        <time>2021-08-10T12:26:29Z</time>
      </trkpt>
      <trkpt lat="44.3692" lon="3.74865">
        <ele>962.4</ele>
        <time>2021-08-10T12:26:31Z</time>
      </trkpt>
      <trkpt lat="44.36902" lon="3.74865">
        <ele>962</ele>
        <time>2021-08-10T12:26:33Z</time>
      </trkpt>
      <trkpt lat="44.36884" lon="3.74866">
        <ele>962</ele>
        <time>2021-08-10T12:26:35Z</time>
      </trkpt>
      <trkpt lat="44.36867" lon="3.74867">
        <ele>962.1</ele>
        <time>2021-08-10T12:26:37Z</time>
      </trkpt>
      <trkpt lat="44.36848" lon="3.74864">
        <ele>960.7</ele>
        <time>2021-08-10T12:26:39Z</time>
      </trkpt>
      <trkpt lat="44.36831" lon="3.7486">
        <ele>959.2</ele>
        <time>2021-08-10T12:26:41Z</time>
      </trkpt>
      <trkpt lat="44.36813" lon="3.74857">
        <ele>960.2</ele>
        <time>2021-08-10T12:26:43Z</time>
      </trkpt>
      <trkpt lat="44.36797" lon="3.74851">
        <ele>959.7</ele>
        <time>2021-08-10T12:26:45Z</time>
      </trkpt>
      <trkpt lat="44.36782" lon="3.74843">
        <ele>958.4</ele>
        <time>2021-08-10T12:26:47Z</time>
      </trkpt>
      <trkpt lat="44.36767" lon="3.74827">
        <ele>954.9</ele>
        <time>2021-08-10T12:26:49Z</time>
      </trkpt>
      <trkpt lat="44.36755" lon="3.74806">
        <ele>950.7</ele>
        <time>2021-08-10T12:26:51Z</time>
      </trkpt>
      <trkpt lat="44.36744" lon="3.74782">
        <ele>946.2</ele>
        <time>2021-08-10T12:26:53Z</time>
      </trkpt>
      <trkpt lat="44.36734" lon="3.74758">
        <ele>942</ele>
        <time>2021-08-10T12:26:55Z</time>
      </trkpt>
      <trkpt lat="44.36723" lon="3.74738">
        <ele>938.9</ele>
        <time>2021-08-10T12:26:57Z</time>
      </trkpt>
      <trkpt lat="44.36711" lon="3.74721">
        <ele>936.6</ele>
        <time>2021-08-10T12:26:59Z</time>
      </trkpt>
      <trkpt lat="44.36696" lon="3.74707">
        <ele>934.8</ele>
        <time>2021-08-10T12:27:01Z</time>
      </trkpt>
      <trkpt lat="44.36677" lon="3.74699">
        <ele>934.2</ele>
        <time>2021-08-10T12:27:03Z</time>
      </trkpt>
      <trkpt lat="44.36657" lon="3.74695">
        <ele>933.8</ele>
        <time>2021-08-10T12:27:05Z</time>
      </trkpt>
      <trkpt lat="44.36638" lon="3.74693">
        <ele>932.8</ele>
        <time>2021-08-10T12:27:07Z</time>
      </trkpt>
      <trkpt lat="44.36619" lon="3.7469">
        <ele>932</ele>
        <time>2021-08-10T12:27:09Z</time>
      </trkpt>
      <trkpt lat="44.366" lon="3.74689">
        <ele>931.4</ele>
        <time>2021-08-10T12:27:11Z</time>
      </trkpt>
      <trkpt lat="44.36582" lon="3.74687">
        <ele>930.5</ele>
        <time>2021-08-10T12:27:13Z</time>
      </trkpt>
      <trkpt lat="44.36566" lon="3.74683">
        <ele>929.4</ele>
        <time>2021-08-10T12:27:15Z</time>
      </trkpt>
      <trkpt lat="44.36554" lon="3.74678">
        <ele>927.8</ele>
        <time>2021-08-10T12:27:17Z</time>
      </trkpt>
      <trkpt lat="44.36542" lon="3.74671">
        <ele>925.9</ele>
        <time>2021-08-10T12:27:19Z</time>
      </trkpt>
      <trkpt lat="44.36533" lon="3.74666">
        <ele>924.4</ele>
        <time>2021-08-10T12:27:21Z</time>
      </trkpt>
      <trkpt lat="44.36522" lon="3.74661">
        <ele>923.2</ele>
        <time>2021-08-10T12:27:23Z</time>
      </trkpt>
      <trkpt lat="44.36511" lon="3.74654">
        <ele>921.8</ele>
        <time>2021-08-10T12:27:25Z</time>
      </trkpt>
      <trkpt lat="44.36497" lon="3.74651">
        <ele>920.7</ele>
        <time>2021-08-10T12:27:27Z</time>
      </trkpt>
      <trkpt lat="44.36483" lon="3.74648">
        <ele>918.6</ele>
        <time>2021-08-10T12:27:29Z</time>
      </trkpt>
      <trkpt lat="44.36471" lon="3.74647">
        <ele>917.2</ele>
        <time>2021-08-10T12:27:31Z</time>
      </trkpt>
      <trkpt lat="44.36458" lon="3.74648">
        <ele>916.1</ele>
        <time>2021-08-10T12:27:33Z</time>
      </trkpt>
      <trkpt lat="44.36444" lon="3.74649">
        <ele>914.9</ele>
        <time>2021-08-10T12:27:35Z</time>
      </trkpt>
      <trkpt lat="44.36431" lon="3.7465">
        <ele>913.9</ele>
        <time>2021-08-10T12:27:37Z</time>
      </trkpt>
      <trkpt lat="44.3642" lon="3.74652">
        <ele>913</ele>
        <time>2021-08-10T12:27:39Z</time>
      </trkpt>
      <trkpt lat="44.36409" lon="3.74654">
        <ele>910.8</ele>
        <time>2021-08-10T12:27:41Z</time>
      </trkpt>
      <trkpt lat="44.364" lon="3.74659">
        <ele>908.5</ele>
        <time>2021-08-10T12:27:43Z</time>
      </trkpt>
      <trkpt lat="44.36391" lon="3.74667">
        <ele>906.5</ele>
        <time>2021-08-10T12:27:45Z</time>
      </trkpt>
      <trkpt lat="44.36386" lon="3.74678">
        <ele>906</ele>
        <time>2021-08-10T12:27:47Z</time>
      </trkpt>
      <trkpt lat="44.36382" lon="3.74689">
        <ele>906</ele>
        <time>2021-08-10T12:27:49Z</time>
      </trkpt>
      <trkpt lat="44.3638" lon="3.74701">
        <ele>906.8</ele>
        <time>2021-08-10T12:27:51Z</time>
      </trkpt>
      <trkpt lat="44.36379" lon="3.74713">
        <ele>907.9</ele>
        <time>2021-08-10T12:27:53Z</time>
      </trkpt>
      <trkpt lat="44.36378" lon="3.74724">
        <ele>908.5</ele>
        <time>2021-08-10T12:27:55Z</time>
      </trkpt>
      <trkpt lat="44.36374" lon="3.7473">
        <ele>907.6</ele>
        <time>2021-08-10T12:27:57Z</time>
      </trkpt>
      <trkpt lat="44.36368" lon="3.74729">
        <ele>904.8</ele>
        <time>2021-08-10T12:27:59Z</time>
      </trkpt>
      <trkpt lat="44.36367" lon="3.74718">
        <ele>903</ele>
        <time>2021-08-10T12:28:01Z</time>
      </trkpt>
      <trkpt lat="44.3637" lon="3.74704">
        <ele>903.1</ele>
        <time>2021-08-10T12:28:03Z</time>
      </trkpt>
      <trkpt lat="44.36373" lon="3.74692">
        <ele>903.1</ele>
        <time>2021-08-10T12:28:05Z</time>
      </trkpt>
      <trkpt lat="44.36376" lon="3.74678">
        <ele>902.5</ele>
        <time>2021-08-10T12:28:07Z</time>
      </trkpt>
      <trkpt lat="44.36378" lon="3.74666">
        <ele>901.8</ele>
        <time>2021-08-10T12:28:09Z</time>
      </trkpt>
      <trkpt lat="44.3638" lon="3.74653">
        <ele>901.6</ele>
        <time>2021-08-10T12:28:11Z</time>
      </trkpt>
      <trkpt lat="44.36384" lon="3.7464">
        <ele>901.5</ele>
        <time>2021-08-10T12:28:13Z</time>
      </trkpt>
      <trkpt lat="44.36388" lon="3.74624">
        <ele>901.3</ele>
        <time>2021-08-10T12:28:15Z</time>
      </trkpt>
      <trkpt lat="44.36391" lon="3.7461">
        <ele>900.5</ele>
        <time>2021-08-10T12:28:17Z</time>
      </trkpt>
      <trkpt lat="44.36394" lon="3.74594">
        <ele>899.3</ele>
        <time>2021-08-10T12:28:19Z</time>
      </trkpt>
      <trkpt lat="44.36397" lon="3.74581">
        <ele>898.5</ele>
        <time>2021-08-10T12:28:21Z</time>
      </trkpt>
      <trkpt lat="44.364" lon="3.74568">
        <ele>897.8</ele>
        <time>2021-08-10T12:28:23Z</time>
      </trkpt>
      <trkpt lat="44.36403" lon="3.74556">
        <ele>897</ele>
        <time>2021-08-10T12:28:25Z</time>
      </trkpt>
      <trkpt lat="44.36402" lon="3.74544">
        <ele>895.7</ele>
        <time>2021-08-10T12:28:27Z</time>
      </trkpt>
      <trkpt lat="44.36397" lon="3.74535">
        <ele>894.2</ele>
        <time>2021-08-10T12:28:29Z</time>
      </trkpt>
      <trkpt lat="44.36389" lon="3.74531">
        <ele>892.7</ele>
        <time>2021-08-10T12:28:31Z</time>
      </trkpt>
      <trkpt lat="44.36384" lon="3.74532">
        <ele>892.2</ele>
        <time>2021-08-10T12:28:33Z</time>
      </trkpt>
      <trkpt lat="44.3638" lon="3.74534">
        <ele>891.8</ele>
        <time>2021-08-10T12:28:35Z</time>
      </trkpt>
      <trkpt lat="44.36377" lon="3.74531">
        <ele>891.1</ele>
        <time>2021-08-10T12:28:37Z</time>
      </trkpt>
      <trkpt lat="44.36375" lon="3.74521">
        <ele>890.1</ele>
        <time>2021-08-10T12:28:39Z</time>
      </trkpt>
      <trkpt lat="44.36374" lon="3.74513">
        <ele>889.4</ele>
        <time>2021-08-10T12:28:41Z</time>
      </trkpt>
      <trkpt lat="44.36373" lon="3.74508">
        <ele>888.9</ele>
        <time>2021-08-10T12:28:43Z</time>
      </trkpt>
      <trkpt lat="44.36372" lon="3.74503">
        <ele>888.5</ele>
        <time>2021-08-10T12:28:45Z</time>
      </trkpt>
      <trkpt lat="44.36369" lon="3.74498">
        <ele>887.8</ele>
        <time>2021-08-10T12:28:47Z</time>
      </trkpt>
      <trkpt lat="44.36368" lon="3.74493">
        <ele>887.3</ele>
        <time>2021-08-10T12:28:49Z</time>
      </trkpt>
      <trkpt lat="44.36367" lon="3.74488">
        <ele>886.9</ele>
        <time>2021-08-10T12:28:51Z</time>
      </trkpt>
      <trkpt lat="44.36366" lon="3.74484">
        <ele>886.6</ele>
        <time>2021-08-10T12:28:53Z</time>
      </trkpt>
      <trkpt lat="44.36366" lon="3.74481">
        <ele>886.5</ele>
        <time>2021-08-10T12:28:55Z</time>
      </trkpt>
      <trkpt lat="44.36367" lon="3.74478">
        <ele>886.5</ele>
        <time>2021-08-10T12:28:57Z</time>
      </trkpt>
      <trkpt lat="44.36368" lon="3.74476">
        <ele>886.5</ele>
        <time>2021-08-10T12:28:59Z</time>
      </trkpt>
      <trkpt lat="44.36369" lon="3.74474">
        <ele>886.5</ele>
        <time>2021-08-10T12:29:01Z</time>
      </trkpt>
      <trkpt lat="44.3637" lon="3.74473">
        <ele>886.4</ele>
        <time>2021-08-10T12:29:03Z</time>
      </trkpt>
      <trkpt lat="44.36368" lon="3.74466">
        <ele>885.8</ele>
        <time>2021-08-10T12:29:09Z</time>
      </trkpt>
      <trkpt lat="44.36367" lon="3.74463">
        <ele>885.6</ele>
        <time>2021-08-10T12:29:11Z</time>
      </trkpt>
      <trkpt lat="44.36367" lon="3.74457">
        <ele>885.2</ele>
        <time>2021-08-10T12:29:13Z</time>
      </trkpt>
      <trkpt lat="44.36365" lon="3.74449">
        <ele>884.6</ele>
        <time>2021-08-10T12:29:15Z</time>
      </trkpt>
      <trkpt lat="44.36363" lon="3.74442">
        <ele>884</ele>
        <time>2021-08-10T12:29:17Z</time>
      </trkpt>
      <trkpt lat="44.36362" lon="3.74435">
        <ele>883.4</ele>
        <time>2021-08-10T12:29:19Z</time>
      </trkpt>
      <trkpt lat="44.3636" lon="3.74428">
        <ele>882.9</ele>
        <time>2021-08-10T12:29:21Z</time>
      </trkpt>
      <trkpt lat="44.36359" lon="3.74421">
        <ele>882.3</ele>
        <time>2021-08-10T12:29:23Z</time>
      </trkpt>
      <trkpt lat="44.36359" lon="3.74415">
        <ele>882</ele>
        <time>2021-08-10T12:29:25Z</time>
      </trkpt>
      <trkpt lat="44.36359" lon="3.7441">
        <ele>881.9</ele>
        <time>2021-08-10T12:29:27Z</time>
      </trkpt>
      <trkpt lat="44.36357" lon="3.74407">
        <ele>881.7</ele>
        <time>2021-08-10T12:29:29Z</time>
      </trkpt>
      <trkpt lat="44.36357" lon="3.74404">
        <ele>881.6</ele>
        <time>2021-08-10T12:29:31Z</time>
      </trkpt>
      <trkpt lat="44.36357" lon="3.744">
        <ele>881.5</ele>
        <time>2021-08-10T12:29:33Z</time>
      </trkpt>
      <trkpt lat="44.36357" lon="3.74398">
        <ele>881.4</ele>
        <time>2021-08-10T12:29:35Z</time>
      </trkpt>
      <trkpt lat="44.36357" lon="3.74398">
        <ele>881.3</ele>
        <time>2021-08-10T12:29:37Z</time>
      </trkpt>
      <trkpt lat="44.36357" lon="3.74398">
        <ele>881.3</ele>
        <time>2021-08-10T12:29:39Z</time>
      </trkpt>
      <trkpt lat="44.36357" lon="3.74398">
        <ele>881.4</ele>
        <time>2021-08-10T12:29:41Z</time>
      </trkpt>
      <trkpt lat="44.36357" lon="3.74398">
        <ele>881.4</ele>
        <time>2021-08-10T12:29:43Z</time>
      </trkpt>
      <trkpt lat="44.36357" lon="3.74397">
        <ele>881.4</ele>
        <time>2021-08-10T12:29:47Z</time>
      </trkpt>
      <trkpt lat="44.36357" lon="3.74397">
        <ele>881.4</ele>
        <time>2021-08-10T12:29:49Z</time>
      </trkpt>
      <trkpt lat="44.36357" lon="3.74397">
        <ele>881.4</ele>
        <time>2021-08-10T12:29:51Z</time>
      </trkpt>
      <trkpt lat="44.36357" lon="3.74397">
        <ele>881.4</ele>
        <time>2021-08-10T12:29:53Z</time>
      </trkpt>
      <trkpt lat="44.36357" lon="3.74396">
        <ele>881.3</ele>
        <time>2021-08-10T12:29:55Z</time>
      </trkpt>
      <trkpt lat="44.36357" lon="3.74396">
        <ele>881.3</ele>
        <time>2021-08-10T12:29:57Z</time>
      </trkpt>
      <trkpt lat="44.36357" lon="3.74395">
        <ele>881.4</ele>
        <time>2021-08-10T12:29:59Z</time>
      </trkpt>
      <trkpt lat="44.36358" lon="3.74395">
        <ele>881.4</ele>
        <time>2021-08-10T12:30:01Z</time>
      </trkpt>
      <trkpt lat="44.36358" lon="3.74395">
        <ele>881.4</ele>
        <time>2021-08-10T12:30:03Z</time>
      </trkpt>
      <trkpt lat="44.36358" lon="3.74395">
        <ele>881.4</ele>
        <time>2021-08-10T12:30:05Z</time>
      </trkpt>
      <trkpt lat="44.36357" lon="3.74397">
        <ele>881.4</ele>
        <time>2021-08-10T12:30:07Z</time>
      </trkpt>
      <trkpt lat="44.36358" lon="3.74398">
        <ele>881.5</ele>
        <time>2021-08-10T12:30:09Z</time>
      </trkpt>
      <trkpt lat="44.36358" lon="3.74401">
        <ele>881.6</ele>
        <time>2021-08-10T12:30:11Z</time>
      </trkpt>
      <trkpt lat="44.36358" lon="3.74404">
        <ele>881.6</ele>
        <time>2021-08-10T12:30:13Z</time>
      </trkpt>
      <trkpt lat="44.36358" lon="3.74406">
        <ele>881.7</ele>
        <time>2021-08-10T12:30:15Z</time>
      </trkpt>
      <trkpt lat="44.36358" lon="3.74408">
        <ele>881.8</ele>
        <time>2021-08-10T12:30:17Z</time>
      </trkpt>
      <trkpt lat="44.36358" lon="3.74411">
        <ele>881.9</ele>
        <time>2021-08-10T12:30:19Z</time>
      </trkpt>
      <trkpt lat="44.36358" lon="3.74415">
        <ele>882</ele>
        <time>2021-08-10T12:30:21Z</time>
      </trkpt>
      <trkpt lat="44.36358" lon="3.74418">
        <ele>882.1</ele>
        <time>2021-08-10T12:30:23Z</time>
      </trkpt>
      <trkpt lat="44.36359" lon="3.74421">
        <ele>882.3</ele>
        <time>2021-08-10T12:30:25Z</time>
      </trkpt>
      <trkpt lat="44.36359" lon="3.74424">
        <ele>882.5</ele>
        <time>2021-08-10T12:30:27Z</time>
      </trkpt>
      <trkpt lat="44.3636" lon="3.74427">
        <ele>882.7</ele>
        <time>2021-08-10T12:30:29Z</time>
      </trkpt>
      <trkpt lat="44.3636" lon="3.7443">
        <ele>882.9</ele>
        <time>2021-08-10T12:30:31Z</time>
      </trkpt>
      <trkpt lat="44.36361" lon="3.74432">
        <ele>883.2</ele>
        <time>2021-08-10T12:30:33Z</time>
      </trkpt>
      <trkpt lat="44.36361" lon="3.74435">
        <ele>883.4</ele>
        <time>2021-08-10T12:30:35Z</time>
      </trkpt>
      <trkpt lat="44.36362" lon="3.74438">
        <ele>883.6</ele>
        <time>2021-08-10T12:30:37Z</time>
      </trkpt>
      <trkpt lat="44.36362" lon="3.74441">
        <ele>883.8</ele>
        <time>2021-08-10T12:30:39Z</time>
      </trkpt>
      <trkpt lat="44.36362" lon="3.74444">
        <ele>884</ele>
        <time>2021-08-10T12:30:41Z</time>
      </trkpt>
      <trkpt lat="44.36363" lon="3.74447">
        <ele>884.3</ele>
        <time>2021-08-10T12:30:43Z</time>
      </trkpt>
      <trkpt lat="44.36365" lon="3.7445">
        <ele>884.6</ele>
        <time>2021-08-10T12:30:45Z</time>
      </trkpt>
      <trkpt lat="44.36366" lon="3.74453">
        <ele>884.9</ele>
        <time>2021-08-10T12:30:47Z</time>
      </trkpt>
      <trkpt lat="44.36366" lon="3.74455">
        <ele>885.1</ele>
        <time>2021-08-10T12:30:49Z</time>
      </trkpt>
      <trkpt lat="44.36366" lon="3.74456">
        <ele>885.1</ele>
        <time>2021-08-10T12:30:51Z</time>
      </trkpt>
      <trkpt lat="44.36365" lon="3.74457">
        <ele>885.1</ele>
        <time>2021-08-10T12:30:53Z</time>
      </trkpt>
      <trkpt lat="44.36366" lon="3.74459">
        <ele>885.2</ele>
        <time>2021-08-10T12:30:55Z</time>
      </trkpt>
      <trkpt lat="44.36366" lon="3.7446">
        <ele>885.3</ele>
        <time>2021-08-10T12:30:57Z</time>
      </trkpt>
      <trkpt lat="44.36366" lon="3.74462">
        <ele>885.5</ele>
        <time>2021-08-10T12:30:59Z</time>
      </trkpt>
      <trkpt lat="44.36367" lon="3.74464">
        <ele>885.7</ele>
        <time>2021-08-10T12:31:01Z</time>
      </trkpt>
      <trkpt lat="44.36367" lon="3.74467">
        <ele>885.9</ele>
        <time>2021-08-10T12:31:03Z</time>
      </trkpt>
      <trkpt lat="44.36367" lon="3.7447">
        <ele>885.9</ele>
        <time>2021-08-10T12:31:05Z</time>
      </trkpt>
      <trkpt lat="44.36365" lon="3.74471">
        <ele>885.9</ele>
        <time>2021-08-10T12:31:07Z</time>
      </trkpt>
      <trkpt lat="44.36364" lon="3.74472">
        <ele>885.8</ele>
        <time>2021-08-10T12:31:09Z</time>
      </trkpt>
      <trkpt lat="44.36364" lon="3.74473">
        <ele>885.8</ele>
        <time>2021-08-10T12:31:11Z</time>
      </trkpt>
      <trkpt lat="44.36364" lon="3.74475">
        <ele>885.9</ele>
        <time>2021-08-10T12:31:13Z</time>
      </trkpt>
      <trkpt lat="44.36364" lon="3.74478">
        <ele>886.2</ele>
        <time>2021-08-10T12:31:15Z</time>
      </trkpt>
      <trkpt lat="44.36365" lon="3.7448">
        <ele>886.3</ele>
        <time>2021-08-10T12:31:17Z</time>
      </trkpt>
      <trkpt lat="44.36365" lon="3.74482">
        <ele>886.4</ele>
        <time>2021-08-10T12:31:19Z</time>
      </trkpt>
      <trkpt lat="44.36365" lon="3.74484">
        <ele>886.6</ele>
        <time>2021-08-10T12:31:21Z</time>
      </trkpt>
      <trkpt lat="44.36366" lon="3.74487">
        <ele>886.8</ele>
        <time>2021-08-10T12:31:23Z</time>
      </trkpt>
      <trkpt lat="44.36367" lon="3.74489">
        <ele>887</ele>
        <time>2021-08-10T12:31:25Z</time>
      </trkpt>
      <trkpt lat="44.36367" lon="3.74491">
        <ele>887.1</ele>
        <time>2021-08-10T12:31:27Z</time>
      </trkpt>
      <trkpt lat="44.36367" lon="3.74493">
        <ele>887.3</ele>
        <time>2021-08-10T12:31:29Z</time>
      </trkpt>
      <trkpt lat="44.36368" lon="3.74495">
        <ele>887.5</ele>
        <time>2021-08-10T12:31:31Z</time>
      </trkpt>
      <trkpt lat="44.36369" lon="3.74497">
        <ele>887.7</ele>
        <time>2021-08-10T12:31:33Z</time>
      </trkpt>
      <trkpt lat="44.36369" lon="3.74499">
        <ele>887.8</ele>
        <time>2021-08-10T12:31:35Z</time>
      </trkpt>
      <trkpt lat="44.3637" lon="3.74501">
        <ele>888.1</ele>
        <time>2021-08-10T12:31:37Z</time>
      </trkpt>
      <trkpt lat="44.36371" lon="3.74503">
        <ele>888.3</ele>
        <time>2021-08-10T12:31:39Z</time>
      </trkpt>
      <trkpt lat="44.36372" lon="3.74505">
        <ele>888.5</ele>
        <time>2021-08-10T12:31:41Z</time>
      </trkpt>
      <trkpt lat="44.36373" lon="3.74507">
        <ele>888.8</ele>
        <time>2021-08-10T12:31:43Z</time>
      </trkpt>
      <trkpt lat="44.36374" lon="3.74509">
        <ele>889</ele>
        <time>2021-08-10T12:31:45Z</time>
      </trkpt>
      <trkpt lat="44.36374" lon="3.74511">
        <ele>889.3</ele>
        <time>2021-08-10T12:31:47Z</time>
      </trkpt>
      <trkpt lat="44.36375" lon="3.74511">
        <ele>889.3</ele>
        <time>2021-08-10T12:31:49Z</time>
      </trkpt>
      <trkpt lat="44.36375" lon="3.74511">
        <ele>889.3</ele>
        <time>2021-08-10T12:31:51Z</time>
      </trkpt>
      <trkpt lat="44.36375" lon="3.74511">
        <ele>889.4</ele>
        <time>2021-08-10T12:31:53Z</time>
      </trkpt>
      <trkpt lat="44.36376" lon="3.74512">
        <ele>889.5</ele>
        <time>2021-08-10T12:31:55Z</time>
      </trkpt>
      <trkpt lat="44.36376" lon="3.74514">
        <ele>889.7</ele>
        <time>2021-08-10T12:31:57Z</time>
      </trkpt>
      <trkpt lat="44.36376" lon="3.74515">
        <ele>889.8</ele>
        <time>2021-08-10T12:31:59Z</time>
      </trkpt>
      <trkpt lat="44.36377" lon="3.74516">
        <ele>889.9</ele>
        <time>2021-08-10T12:32:01Z</time>
      </trkpt>
      <trkpt lat="44.36377" lon="3.74517">
        <ele>890.1</ele>
        <time>2021-08-10T12:32:03Z</time>
      </trkpt>
      <trkpt lat="44.36378" lon="3.74519">
        <ele>890.3</ele>
        <time>2021-08-10T12:32:05Z</time>
      </trkpt>
      <trkpt lat="44.36378" lon="3.74522">
        <ele>890.6</ele>
        <time>2021-08-10T12:32:07Z</time>
      </trkpt>
      <trkpt lat="44.36378" lon="3.74525">
        <ele>890.8</ele>
        <time>2021-08-10T12:32:09Z</time>
      </trkpt>
      <trkpt lat="44.36379" lon="3.74526">
        <ele>891</ele>
        <time>2021-08-10T12:32:11Z</time>
      </trkpt>
      <trkpt lat="44.36379" lon="3.74527">
        <ele>891.1</ele>
        <time>2021-08-10T12:32:13Z</time>
      </trkpt>
      <trkpt lat="44.36379" lon="3.74528">
        <ele>891.2</ele>
        <time>2021-08-10T12:32:15Z</time>
      </trkpt>
      <trkpt lat="44.36359" lon="3.74577">
        <ele>891.9</ele>
        <time>2021-08-10T12:32:43Z</time>
      </trkpt>
      <trkpt lat="44.36353" lon="3.74587">
        <ele>891.5</ele>
        <time>2021-08-10T12:32:45Z</time>
      </trkpt>
      <trkpt lat="44.36348" lon="3.74599">
        <ele>890.8</ele>
        <time>2021-08-10T12:32:47Z</time>
      </trkpt>
      <trkpt lat="44.36346" lon="3.7461">
        <ele>890.4</ele>
        <time>2021-08-10T12:32:49Z</time>
      </trkpt>
      <trkpt lat="44.36343" lon="3.74621">
        <ele>889.9</ele>
        <time>2021-08-10T12:32:51Z</time>
      </trkpt>
      <trkpt lat="44.36341" lon="3.74633">
        <ele>889.6</ele>
        <time>2021-08-10T12:32:53Z</time>
      </trkpt>
      <trkpt lat="44.3634" lon="3.74644">
        <ele>889.3</ele>
        <time>2021-08-10T12:32:55Z</time>
      </trkpt>
      <trkpt lat="44.36341" lon="3.74654">
        <ele>889.4</ele>
        <time>2021-08-10T12:32:57Z</time>
      </trkpt>
      <trkpt lat="44.36341" lon="3.74665">
        <ele>889.7</ele>
        <time>2021-08-10T12:32:59Z</time>
      </trkpt>
      <trkpt lat="44.36342" lon="3.74673">
        <ele>890.3</ele>
        <time>2021-08-10T12:33:01Z</time>
      </trkpt>
      <trkpt lat="44.36344" lon="3.74681">
        <ele>891.3</ele>
        <time>2021-08-10T12:33:03Z</time>
      </trkpt>
      <trkpt lat="44.36344" lon="3.74689">
        <ele>891.9</ele>
        <time>2021-08-10T12:33:05Z</time>
      </trkpt>
      <trkpt lat="44.36344" lon="3.74693">
        <ele>891.9</ele>
        <time>2021-08-10T12:33:07Z</time>
      </trkpt>
      <trkpt lat="44.36339" lon="3.74693">
        <ele>890</ele>
        <time>2021-08-10T12:33:09Z</time>
      </trkpt>
      <trkpt lat="44.36334" lon="3.74686">
        <ele>888</ele>
        <time>2021-08-10T12:33:11Z</time>
      </trkpt>
      <trkpt lat="44.36332" lon="3.74677">
        <ele>887.3</ele>
        <time>2021-08-10T12:33:13Z</time>
      </trkpt>
      <trkpt lat="44.36327" lon="3.74666">
        <ele>886.9</ele>
        <time>2021-08-10T12:33:15Z</time>
      </trkpt>
      <trkpt lat="44.36322" lon="3.74656">
        <ele>886.8</ele>
        <time>2021-08-10T12:33:17Z</time>
      </trkpt>
      <trkpt lat="44.36318" lon="3.74645">
        <ele>886.7</ele>
        <time>2021-08-10T12:33:19Z</time>
      </trkpt>
      <trkpt lat="44.36314" lon="3.74636">
        <ele>886.5</ele>
        <time>2021-08-10T12:33:21Z</time>
      </trkpt>
      <trkpt lat="44.36311" lon="3.74628">
        <ele>886.3</ele>
        <time>2021-08-10T12:33:23Z</time>
      </trkpt>
      <trkpt lat="44.36309" lon="3.74619">
        <ele>886.1</ele>
        <time>2021-08-10T12:33:25Z</time>
      </trkpt>
      <trkpt lat="44.36308" lon="3.74608">
        <ele>886</ele>
        <time>2021-08-10T12:33:27Z</time>
      </trkpt>
      <trkpt lat="44.36308" lon="3.74596">
        <ele>886</ele>
        <time>2021-08-10T12:33:29Z</time>
      </trkpt>
      <trkpt lat="44.36307" lon="3.74584">
        <ele>885.8</ele>
        <time>2021-08-10T12:33:31Z</time>
      </trkpt>
      <trkpt lat="44.36306" lon="3.74573">
        <ele>885.3</ele>
        <time>2021-08-10T12:33:33Z</time>
      </trkpt>
      <trkpt lat="44.36306" lon="3.74562">
        <ele>884.8</ele>
        <time>2021-08-10T12:33:35Z</time>
      </trkpt>
      <trkpt lat="44.36306" lon="3.74553">
        <ele>884.4</ele>
        <time>2021-08-10T12:33:37Z</time>
      </trkpt>
      <trkpt lat="44.36305" lon="3.74543">
        <ele>883.9</ele>
        <time>2021-08-10T12:33:39Z</time>
      </trkpt>
      <trkpt lat="44.36306" lon="3.74533">
        <ele>883.5</ele>
        <time>2021-08-10T12:33:41Z</time>
      </trkpt>
      <trkpt lat="44.36305" lon="3.74523">
        <ele>883</ele>
        <time>2021-08-10T12:33:43Z</time>
      </trkpt>
      <trkpt lat="44.36304" lon="3.74515">
        <ele>882.6</ele>
        <time>2021-08-10T12:33:45Z</time>
      </trkpt>
      <trkpt lat="44.36304" lon="3.74506">
        <ele>882.1</ele>
        <time>2021-08-10T12:33:47Z</time>
      </trkpt>
      <trkpt lat="44.36303" lon="3.74495">
        <ele>881.6</ele>
        <time>2021-08-10T12:33:49Z</time>
      </trkpt>
      <trkpt lat="44.36303" lon="3.74486">
        <ele>881.3</ele>
        <time>2021-08-10T12:33:51Z</time>
      </trkpt>
      <trkpt lat="44.36305" lon="3.74476">
        <ele>881</ele>
        <time>2021-08-10T12:33:53Z</time>
      </trkpt>
      <trkpt lat="44.36307" lon="3.74466">
        <ele>880.7</ele>
        <time>2021-08-10T12:33:55Z</time>
      </trkpt>
      <trkpt lat="44.36309" lon="3.74458">
        <ele>880.5</ele>
        <time>2021-08-10T12:33:57Z</time>
      </trkpt>
      <trkpt lat="44.3631" lon="3.7445">
        <ele>880.2</ele>
        <time>2021-08-10T12:33:59Z</time>
      </trkpt>
      <trkpt lat="44.36312" lon="3.74442">
        <ele>879.9</ele>
        <time>2021-08-10T12:34:01Z</time>
      </trkpt>
      <trkpt lat="44.36313" lon="3.74434">
        <ele>879.6</ele>
        <time>2021-08-10T12:34:03Z</time>
      </trkpt>
      <trkpt lat="44.36315" lon="3.74427">
        <ele>879.2</ele>
        <time>2021-08-10T12:34:05Z</time>
      </trkpt>
      <trkpt lat="44.36316" lon="3.7442">
        <ele>879</ele>
        <time>2021-08-10T12:34:07Z</time>
      </trkpt>
      <trkpt lat="44.36317" lon="3.74414">
        <ele>878.7</ele>
        <time>2021-08-10T12:34:09Z</time>
      </trkpt>
      <trkpt lat="44.36319" lon="3.74406">
        <ele>878.6</ele>
        <time>2021-08-10T12:34:11Z</time>
      </trkpt>
      <trkpt lat="44.36321" lon="3.74398">
        <ele>878.3</ele>
        <time>2021-08-10T12:34:13Z</time>
      </trkpt>
      <trkpt lat="44.36324" lon="3.74391">
        <ele>878.1</ele>
        <time>2021-08-10T12:34:15Z</time>
      </trkpt>
      <trkpt lat="44.36326" lon="3.74383">
        <ele>877.7</ele>
        <time>2021-08-10T12:34:17Z</time>
      </trkpt>
      <trkpt lat="44.36326" lon="3.74376">
        <ele>877.4</ele>
        <time>2021-08-10T12:34:19Z</time>
      </trkpt>
      <trkpt lat="44.36328" lon="3.74369">
        <ele>877.1</ele>
        <time>2021-08-10T12:34:21Z</time>
      </trkpt>
      <trkpt lat="44.36327" lon="3.74363">
        <ele>876.9</ele>
        <time>2021-08-10T12:34:23Z</time>
      </trkpt>
      <trkpt lat="44.36323" lon="3.74358">
        <ele>877</ele>
        <time>2021-08-10T12:34:25Z</time>
      </trkpt>
      <trkpt lat="44.36318" lon="3.74357">
        <ele>877.4</ele>
        <time>2021-08-10T12:34:27Z</time>
      </trkpt>
      <trkpt lat="44.36317" lon="3.74356">
        <ele>877.5</ele>
        <time>2021-08-10T12:34:29Z</time>
      </trkpt>
      <trkpt lat="44.36315" lon="3.74354">
        <ele>877.6</ele>
        <time>2021-08-10T12:34:31Z</time>
      </trkpt>
      <trkpt lat="44.36312" lon="3.74353">
        <ele>877.8</ele>
        <time>2021-08-10T12:34:33Z</time>
      </trkpt>
      <trkpt lat="44.36308" lon="3.74352">
        <ele>878.2</ele>
        <time>2021-08-10T12:34:35Z</time>
      </trkpt>
      <trkpt lat="44.36304" lon="3.74351">
        <ele>878.5</ele>
        <time>2021-08-10T12:34:37Z</time>
      </trkpt>
      <trkpt lat="44.363" lon="3.74349">
        <ele>878.9</ele>
        <time>2021-08-10T12:34:39Z</time>
      </trkpt>
      <trkpt lat="44.36296" lon="3.74347">
        <ele>879.3</ele>
        <time>2021-08-10T12:34:41Z</time>
      </trkpt>
      <trkpt lat="44.36293" lon="3.74346">
        <ele>879.7</ele>
        <time>2021-08-10T12:34:43Z</time>
      </trkpt>
      <trkpt lat="44.36289" lon="3.74345">
        <ele>880.1</ele>
        <time>2021-08-10T12:34:45Z</time>
      </trkpt>
      <trkpt lat="44.36286" lon="3.74345">
        <ele>880.4</ele>
        <time>2021-08-10T12:34:47Z</time>
      </trkpt>
      <trkpt lat="44.36284" lon="3.74348">
        <ele>880.5</ele>
        <time>2021-08-10T12:34:49Z</time>
      </trkpt>
      <trkpt lat="44.36282" lon="3.74352">
        <ele>880.5</ele>
        <time>2021-08-10T12:34:51Z</time>
      </trkpt>
      <trkpt lat="44.36281" lon="3.74357">
        <ele>880.5</ele>
        <time>2021-08-10T12:34:53Z</time>
      </trkpt>
      <trkpt lat="44.36279" lon="3.74362">
        <ele>880.4</ele>
        <time>2021-08-10T12:34:55Z</time>
      </trkpt>
      <trkpt lat="44.36277" lon="3.74366">
        <ele>880.5</ele>
        <time>2021-08-10T12:34:57Z</time>
      </trkpt>
      <trkpt lat="44.36276" lon="3.74369">
        <ele>880.4</ele>
        <time>2021-08-10T12:34:59Z</time>
      </trkpt>
      <trkpt lat="44.36274" lon="3.74373">
        <ele>880.3</ele>
        <time>2021-08-10T12:35:01Z</time>
      </trkpt>
      <trkpt lat="44.36274" lon="3.74375">
        <ele>880.2</ele>
        <time>2021-08-10T12:35:03Z</time>
      </trkpt>
      <trkpt lat="44.36272" lon="3.7438">
        <ele>880.1</ele>
        <time>2021-08-10T12:35:05Z</time>
      </trkpt>
      <trkpt lat="44.36271" lon="3.74384">
        <ele>879.9</ele>
        <time>2021-08-10T12:35:07Z</time>
      </trkpt>
      <trkpt lat="44.36268" lon="3.74388">
        <ele>879.8</ele>
        <time>2021-08-10T12:35:09Z</time>
      </trkpt>
      <trkpt lat="44.36266" lon="3.74391">
        <ele>879.7</ele>
        <time>2021-08-10T12:35:11Z</time>
      </trkpt>
      <trkpt lat="44.36264" lon="3.74396">
        <ele>879.5</ele>
        <time>2021-08-10T12:35:13Z</time>
      </trkpt>
      <trkpt lat="44.36262" lon="3.744">
        <ele>879.2</ele>
        <time>2021-08-10T12:35:15Z</time>
      </trkpt>
      <trkpt lat="44.36259" lon="3.74404">
        <ele>879</ele>
        <time>2021-08-10T12:35:17Z</time>
      </trkpt>
      <trkpt lat="44.36256" lon="3.74408">
        <ele>878.7</ele>
        <time>2021-08-10T12:35:19Z</time>
      </trkpt>
      <trkpt lat="44.36255" lon="3.74411">
        <ele>878.5</ele>
        <time>2021-08-10T12:35:21Z</time>
      </trkpt>
      <trkpt lat="44.36255" lon="3.74413">
        <ele>878.4</ele>
        <time>2021-08-10T12:35:23Z</time>
      </trkpt>
      <trkpt lat="44.36255" lon="3.74413">
        <ele>878.4</ele>
        <time>2021-08-10T12:35:25Z</time>
      </trkpt>
      <trkpt lat="44.36254" lon="3.74414">
        <ele>878.2</ele>
        <time>2021-08-10T12:35:27Z</time>
      </trkpt>
      <trkpt lat="44.36253" lon="3.74417">
        <ele>878</ele>
        <time>2021-08-10T12:35:29Z</time>
      </trkpt>
      <trkpt lat="44.36324" lon="3.74362">
        <ele>877.1</ele>
        <time>2021-08-10T15:47:22Z</time>
      </trkpt>
      <trkpt lat="44.3632" lon="3.74358">
        <ele>877.2</ele>
        <time>2021-08-10T15:47:24Z</time>
      </trkpt>
      <trkpt lat="44.36317" lon="3.74355">
        <ele>877.4</ele>
        <time>2021-08-10T15:47:26Z</time>
      </trkpt>
      <trkpt lat="44.36315" lon="3.74354">
        <ele>877.6</ele>
        <time>2021-08-10T15:47:28Z</time>
      </trkpt>
      <trkpt lat="44.36315" lon="3.74354">
        <ele>877.6</ele>
        <time>2021-08-10T15:47:30Z</time>
      </trkpt>
      <trkpt lat="44.36312" lon="3.74354">
        <ele>877.9</ele>
        <time>2021-08-10T15:47:32Z</time>
      </trkpt>
      <trkpt lat="44.36307" lon="3.74351">
        <ele>878.3</ele>
        <time>2021-08-10T15:47:34Z</time>
      </trkpt>
      <trkpt lat="44.36302" lon="3.74349">
        <ele>878.8</ele>
        <time>2021-08-10T15:47:36Z</time>
      </trkpt>
      <trkpt lat="44.36296" lon="3.74348">
        <ele>879.3</ele>
        <time>2021-08-10T15:47:38Z</time>
      </trkpt>
      <trkpt lat="44.36292" lon="3.74347">
        <ele>879.7</ele>
        <time>2021-08-10T15:47:40Z</time>
      </trkpt>
      <trkpt lat="44.36288" lon="3.74345">
        <ele>880.1</ele>
        <time>2021-08-10T15:47:42Z</time>
      </trkpt>
      <trkpt lat="44.36286" lon="3.74341">
        <ele>880.5</ele>
        <time>2021-08-10T15:47:44Z</time>
      </trkpt>
      <trkpt lat="44.36289" lon="3.74334">
        <ele>880.3</ele>
        <time>2021-08-10T15:47:46Z</time>
      </trkpt>
      <trkpt lat="44.36291" lon="3.74328">
        <ele>880.9</ele>
        <time>2021-08-10T15:47:48Z</time>
      </trkpt>
      <trkpt lat="44.36292" lon="3.74322">
        <ele>881.5</ele>
        <time>2021-08-10T15:47:50Z</time>
      </trkpt>
      <trkpt lat="44.36293" lon="3.74316">
        <ele>882.2</ele>
        <time>2021-08-10T15:47:52Z</time>
      </trkpt>
      <trkpt lat="44.36295" lon="3.7431">
        <ele>882.7</ele>
        <time>2021-08-10T15:47:54Z</time>
      </trkpt>
      <trkpt lat="44.36297" lon="3.74303">
        <ele>883.2</ele>
        <time>2021-08-10T15:47:56Z</time>
      </trkpt>
      <trkpt lat="44.36299" lon="3.74297">
        <ele>883.4</ele>
        <time>2021-08-10T15:47:58Z</time>
      </trkpt>
      <trkpt lat="44.36302" lon="3.7429">
        <ele>883.7</ele>
        <time>2021-08-10T15:48:00Z</time>
      </trkpt>
      <trkpt lat="44.36306" lon="3.74284">
        <ele>883.3</ele>
        <time>2021-08-10T15:48:02Z</time>
      </trkpt>
      <trkpt lat="44.36307" lon="3.74277">
        <ele>883.7</ele>
        <time>2021-08-10T15:48:04Z</time>
      </trkpt>
      <trkpt lat="44.36307" lon="3.74271">
        <ele>884.4</ele>
        <time>2021-08-10T15:48:06Z</time>
      </trkpt>
      <trkpt lat="44.36307" lon="3.74265">
        <ele>885.1</ele>
        <time>2021-08-10T15:48:08Z</time>
      </trkpt>
      <trkpt lat="44.36307" lon="3.7426">
        <ele>885.5</ele>
        <time>2021-08-10T15:48:10Z</time>
      </trkpt>
      <trkpt lat="44.36308" lon="3.74253">
        <ele>885.8</ele>
        <time>2021-08-10T15:48:12Z</time>
      </trkpt>
      <trkpt lat="44.36309" lon="3.74246">
        <ele>886.5</ele>
        <time>2021-08-10T15:48:14Z</time>
      </trkpt>
      <trkpt lat="44.3631" lon="3.74241">
        <ele>887.1</ele>
        <time>2021-08-10T15:48:16Z</time>
      </trkpt>
      <trkpt lat="44.3631" lon="3.74235">
        <ele>887.8</ele>
        <time>2021-08-10T15:48:18Z</time>
      </trkpt>
      <trkpt lat="44.36313" lon="3.7423">
        <ele>887.7</ele>
        <time>2021-08-10T15:48:20Z</time>
      </trkpt>
      <trkpt lat="44.36314" lon="3.74225">
        <ele>888</ele>
        <time>2021-08-10T15:48:22Z</time>
      </trkpt>
      <trkpt lat="44.36316" lon="3.7422">
        <ele>888.1</ele>
        <time>2021-08-10T15:48:24Z</time>
      </trkpt>
      <trkpt lat="44.36317" lon="3.74214">
        <ele>888.4</ele>
        <time>2021-08-10T15:48:26Z</time>
      </trkpt>
      <trkpt lat="44.36319" lon="3.74209">
        <ele>888.5</ele>
        <time>2021-08-10T15:48:28Z</time>
      </trkpt>
      <trkpt lat="44.3632" lon="3.74204">
        <ele>888.6</ele>
        <time>2021-08-10T15:48:30Z</time>
      </trkpt>
      <trkpt lat="44.36322" lon="3.74199">
        <ele>888.6</ele>
        <time>2021-08-10T15:48:32Z</time>
      </trkpt>
      <trkpt lat="44.36323" lon="3.74194">
        <ele>888.6</ele>
        <time>2021-08-10T15:48:34Z</time>
      </trkpt>
      <trkpt lat="44.36325" lon="3.74189">
        <ele>888.5</ele>
        <time>2021-08-10T15:48:36Z</time>
      </trkpt>
      <trkpt lat="44.36326" lon="3.74185">
        <ele>888.6</ele>
        <time>2021-08-10T15:48:38Z</time>
      </trkpt>
      <trkpt lat="44.36327" lon="3.7418">
        <ele>888.5</ele>
        <time>2021-08-10T15:48:40Z</time>
      </trkpt>
      <trkpt lat="44.36329" lon="3.74176">
        <ele>888.3</ele>
        <time>2021-08-10T15:48:42Z</time>
      </trkpt>
      <trkpt lat="44.3633" lon="3.74171">
        <ele>888.1</ele>
        <time>2021-08-10T15:48:44Z</time>
      </trkpt>
      <trkpt lat="44.36331" lon="3.74166">
        <ele>888</ele>
        <time>2021-08-10T15:48:46Z</time>
      </trkpt>
      <trkpt lat="44.36332" lon="3.74161">
        <ele>888.6</ele>
        <time>2021-08-10T15:48:48Z</time>
      </trkpt>
      <trkpt lat="44.36334" lon="3.74157">
        <ele>889</ele>
        <time>2021-08-10T15:48:50Z</time>
      </trkpt>
      <trkpt lat="44.36336" lon="3.74152">
        <ele>889.8</ele>
        <time>2021-08-10T15:48:52Z</time>
      </trkpt>
      <trkpt lat="44.36336" lon="3.74146">
        <ele>890.7</ele>
        <time>2021-08-10T15:48:54Z</time>
      </trkpt>
      <trkpt lat="44.36337" lon="3.74142">
        <ele>891.3</ele>
        <time>2021-08-10T15:48:56Z</time>
      </trkpt>
      <trkpt lat="44.36339" lon="3.74137">
        <ele>892</ele>
        <time>2021-08-10T15:48:58Z</time>
      </trkpt>
      <trkpt lat="44.36341" lon="3.74132">
        <ele>892.6</ele>
        <time>2021-08-10T15:49:00Z</time>
      </trkpt>
      <trkpt lat="44.36342" lon="3.74127">
        <ele>893.1</ele>
        <time>2021-08-10T15:49:02Z</time>
      </trkpt>
      <trkpt lat="44.36344" lon="3.74122">
        <ele>893.6</ele>
        <time>2021-08-10T15:49:04Z</time>
      </trkpt>
      <trkpt lat="44.36345" lon="3.74119">
        <ele>893.9</ele>
        <time>2021-08-10T15:49:06Z</time>
      </trkpt>
      <trkpt lat="44.36347" lon="3.74116">
        <ele>893.9</ele>
        <time>2021-08-10T15:49:08Z</time>
      </trkpt>
      <trkpt lat="44.36347" lon="3.7411">
        <ele>894.7</ele>
        <time>2021-08-10T15:49:10Z</time>
      </trkpt>
      <trkpt lat="44.36348" lon="3.74105">
        <ele>895.3</ele>
        <time>2021-08-10T15:49:12Z</time>
      </trkpt>
      <trkpt lat="44.3635" lon="3.74102">
        <ele>895.2</ele>
        <time>2021-08-10T15:49:14Z</time>
      </trkpt>
      <trkpt lat="44.36352" lon="3.74096">
        <ele>895.3</ele>
        <time>2021-08-10T15:49:16Z</time>
      </trkpt>
      <trkpt lat="44.36353" lon="3.74091">
        <ele>895.7</ele>
        <time>2021-08-10T15:49:18Z</time>
      </trkpt>
      <trkpt lat="44.36355" lon="3.74086">
        <ele>895.7</ele>
        <time>2021-08-10T15:49:20Z</time>
      </trkpt>
      <trkpt lat="44.36357" lon="3.74081">
        <ele>895.9</ele>
        <time>2021-08-10T15:49:22Z</time>
      </trkpt>
      <trkpt lat="44.36359" lon="3.74075">
        <ele>895.6</ele>
        <time>2021-08-10T15:49:24Z</time>
      </trkpt>
      <trkpt lat="44.36361" lon="3.74071">
        <ele>895.2</ele>
        <time>2021-08-10T15:49:26Z</time>
      </trkpt>
      <trkpt lat="44.36363" lon="3.74066">
        <ele>894.9</ele>
        <time>2021-08-10T15:49:28Z</time>
      </trkpt>
      <trkpt lat="44.36364" lon="3.74062">
        <ele>894.6</ele>
        <time>2021-08-10T15:49:30Z</time>
      </trkpt>
      <trkpt lat="44.36366" lon="3.74056">
        <ele>894.5</ele>
        <time>2021-08-10T15:49:32Z</time>
      </trkpt>
      <trkpt lat="44.36367" lon="3.74052">
        <ele>894.4</ele>
        <time>2021-08-10T15:49:34Z</time>
      </trkpt>
      <trkpt lat="44.36368" lon="3.74046">
        <ele>894.5</ele>
        <time>2021-08-10T15:49:36Z</time>
      </trkpt>
      <trkpt lat="44.36369" lon="3.74042">
        <ele>894.3</ele>
        <time>2021-08-10T15:49:38Z</time>
      </trkpt>
      <trkpt lat="44.3637" lon="3.74037">
        <ele>894.5</ele>
        <time>2021-08-10T15:49:40Z</time>
      </trkpt>
      <trkpt lat="44.36371" lon="3.74032">
        <ele>894.3</ele>
        <time>2021-08-10T15:49:42Z</time>
      </trkpt>
      <trkpt lat="44.36372" lon="3.74027">
        <ele>894.2</ele>
        <time>2021-08-10T15:49:44Z</time>
      </trkpt>
      <trkpt lat="44.36373" lon="3.74022">
        <ele>894.2</ele>
        <time>2021-08-10T15:49:46Z</time>
      </trkpt>
      <trkpt lat="44.36374" lon="3.74017">
        <ele>894</ele>
        <time>2021-08-10T15:49:48Z</time>
      </trkpt>
      <trkpt lat="44.36375" lon="3.74012">
        <ele>894.2</ele>
        <time>2021-08-10T15:49:50Z</time>
      </trkpt>
      <trkpt lat="44.36376" lon="3.74007">
        <ele>894.2</ele>
        <time>2021-08-10T15:49:52Z</time>
      </trkpt>
      <trkpt lat="44.36376" lon="3.74001">
        <ele>894.5</ele>
        <time>2021-08-10T15:49:54Z</time>
      </trkpt>
      <trkpt lat="44.36376" lon="3.73996">
        <ele>894.8</ele>
        <time>2021-08-10T15:49:56Z</time>
      </trkpt>
      <trkpt lat="44.36376" lon="3.73991">
        <ele>895.2</ele>
        <time>2021-08-10T15:49:58Z</time>
      </trkpt>
      <trkpt lat="44.36375" lon="3.73987">
        <ele>895.6</ele>
        <time>2021-08-10T15:50:00Z</time>
      </trkpt>
      <trkpt lat="44.36375" lon="3.73982">
        <ele>896</ele>
        <time>2021-08-10T15:50:02Z</time>
      </trkpt>
      <trkpt lat="44.36376" lon="3.73978">
        <ele>895.9</ele>
        <time>2021-08-10T15:50:04Z</time>
      </trkpt>
      <trkpt lat="44.36376" lon="3.73974">
        <ele>896.1</ele>
        <time>2021-08-10T15:50:06Z</time>
      </trkpt>
      <trkpt lat="44.36377" lon="3.73969">
        <ele>895.9</ele>
        <time>2021-08-10T15:50:08Z</time>
      </trkpt>
      <trkpt lat="44.36377" lon="3.73964">
        <ele>895.9</ele>
        <time>2021-08-10T15:50:10Z</time>
      </trkpt>
      <trkpt lat="44.36378" lon="3.73959">
        <ele>895.8</ele>
        <time>2021-08-10T15:50:12Z</time>
      </trkpt>
      <trkpt lat="44.36379" lon="3.73954">
        <ele>895.9</ele>
        <time>2021-08-10T15:50:14Z</time>
      </trkpt>
      <trkpt lat="44.36379" lon="3.73948">
        <ele>896.2</ele>
        <time>2021-08-10T15:50:16Z</time>
      </trkpt>
      <trkpt lat="44.36379" lon="3.73942">
        <ele>896.7</ele>
        <time>2021-08-10T15:50:18Z</time>
      </trkpt>
      <trkpt lat="44.3638" lon="3.73937">
        <ele>896.5</ele>
        <time>2021-08-10T15:50:20Z</time>
      </trkpt>
      <trkpt lat="44.3638" lon="3.73932">
        <ele>896.7</ele>
        <time>2021-08-10T15:50:22Z</time>
      </trkpt>
      <trkpt lat="44.3638" lon="3.73927">
        <ele>897</ele>
        <time>2021-08-10T15:50:24Z</time>
      </trkpt>
      <trkpt lat="44.36381" lon="3.73921">
        <ele>897</ele>
        <time>2021-08-10T15:50:26Z</time>
      </trkpt>
      <trkpt lat="44.36381" lon="3.73916">
        <ele>897.2</ele>
        <time>2021-08-10T15:50:28Z</time>
      </trkpt>
      <trkpt lat="44.36381" lon="3.73911">
        <ele>897</ele>
        <time>2021-08-10T15:50:30Z</time>
      </trkpt>
      <trkpt lat="44.36381" lon="3.73907">
        <ele>896.5</ele>
        <time>2021-08-10T15:50:32Z</time>
      </trkpt>
      <trkpt lat="44.36382" lon="3.73901">
        <ele>896.2</ele>
        <time>2021-08-10T15:50:34Z</time>
      </trkpt>
      <trkpt lat="44.36383" lon="3.73896">
        <ele>895.5</ele>
        <time>2021-08-10T15:50:36Z</time>
      </trkpt>
      <trkpt lat="44.36382" lon="3.73892">
        <ele>895.6</ele>
        <time>2021-08-10T15:50:38Z</time>
      </trkpt>
      <trkpt lat="44.36383" lon="3.73886">
        <ele>894.9</ele>
        <time>2021-08-10T15:50:40Z</time>
      </trkpt>
      <trkpt lat="44.36384" lon="3.73882">
        <ele>894.5</ele>
        <time>2021-08-10T15:50:42Z</time>
      </trkpt>
      <trkpt lat="44.36385" lon="3.73876">
        <ele>893.7</ele>
        <time>2021-08-10T15:50:44Z</time>
      </trkpt>
      <trkpt lat="44.36387" lon="3.73871">
        <ele>893.1</ele>
        <time>2021-08-10T15:50:46Z</time>
      </trkpt>
      <trkpt lat="44.36388" lon="3.73865">
        <ele>892.4</ele>
        <time>2021-08-10T15:50:48Z</time>
      </trkpt>
      <trkpt lat="44.3639" lon="3.7386">
        <ele>891.8</ele>
        <time>2021-08-10T15:50:50Z</time>
      </trkpt>
      <trkpt lat="44.36392" lon="3.73855">
        <ele>891.2</ele>
        <time>2021-08-10T15:50:52Z</time>
      </trkpt>
      <trkpt lat="44.36393" lon="3.7385">
        <ele>890.7</ele>
        <time>2021-08-10T15:50:54Z</time>
      </trkpt>
      <trkpt lat="44.36395" lon="3.73845">
        <ele>890.3</ele>
        <time>2021-08-10T15:50:56Z</time>
      </trkpt>
      <trkpt lat="44.36396" lon="3.73839">
        <ele>889.9</ele>
        <time>2021-08-10T15:50:58Z</time>
      </trkpt>
      <trkpt lat="44.36397" lon="3.73835">
        <ele>889.5</ele>
        <time>2021-08-10T15:51:00Z</time>
      </trkpt>
      <trkpt lat="44.36399" lon="3.73831">
        <ele>888.7</ele>
        <time>2021-08-10T15:51:02Z</time>
      </trkpt>
      <trkpt lat="44.364" lon="3.73827">
        <ele>887.7</ele>
        <time>2021-08-10T15:51:04Z</time>
      </trkpt>
      <trkpt lat="44.36402" lon="3.73822">
        <ele>886.6</ele>
        <time>2021-08-10T15:51:06Z</time>
      </trkpt>
      <trkpt lat="44.36404" lon="3.73817">
        <ele>885.5</ele>
        <time>2021-08-10T15:51:08Z</time>
      </trkpt>
      <trkpt lat="44.36405" lon="3.73811">
        <ele>884.4</ele>
        <time>2021-08-10T15:51:10Z</time>
      </trkpt>
      <trkpt lat="44.36404" lon="3.73806">
        <ele>883.6</ele>
        <time>2021-08-10T15:51:12Z</time>
      </trkpt>
      <trkpt lat="44.36403" lon="3.73801">
        <ele>882.9</ele>
        <time>2021-08-10T15:51:14Z</time>
      </trkpt>
      <trkpt lat="44.364" lon="3.73798">
        <ele>882.6</ele>
        <time>2021-08-10T15:51:16Z</time>
      </trkpt>
      <trkpt lat="44.36396" lon="3.73796">
        <ele>882.7</ele>
        <time>2021-08-10T15:51:18Z</time>
      </trkpt>
      <trkpt lat="44.36392" lon="3.73795">
        <ele>883</ele>
        <time>2021-08-10T15:51:20Z</time>
      </trkpt>
      <trkpt lat="44.36388" lon="3.73797">
        <ele>883.6</ele>
        <time>2021-08-10T15:51:22Z</time>
      </trkpt>
      <trkpt lat="44.36384" lon="3.73797">
        <ele>884.1</ele>
        <time>2021-08-10T15:51:24Z</time>
      </trkpt>
      <trkpt lat="44.3638" lon="3.73798">
        <ele>884.7</ele>
        <time>2021-08-10T15:51:26Z</time>
      </trkpt>
      <trkpt lat="44.36376" lon="3.73799">
        <ele>885.3</ele>
        <time>2021-08-10T15:51:28Z</time>
      </trkpt>
      <trkpt lat="44.36373" lon="3.73799">
        <ele>885.7</ele>
        <time>2021-08-10T15:51:30Z</time>
      </trkpt>
      <trkpt lat="44.3637" lon="3.738">
        <ele>886.3</ele>
        <time>2021-08-10T15:51:32Z</time>
      </trkpt>
      <trkpt lat="44.36366" lon="3.73801">
        <ele>886.9</ele>
        <time>2021-08-10T15:51:34Z</time>
      </trkpt>
      <trkpt lat="44.36362" lon="3.73802">
        <ele>887.7</ele>
        <time>2021-08-10T15:51:36Z</time>
      </trkpt>
      <trkpt lat="44.36358" lon="3.73804">
        <ele>888.6</ele>
        <time>2021-08-10T15:51:38Z</time>
      </trkpt>
      <trkpt lat="44.36355" lon="3.73804">
        <ele>889.1</ele>
        <time>2021-08-10T15:51:40Z</time>
      </trkpt>
      <trkpt lat="44.36351" lon="3.73805">
        <ele>889.9</ele>
        <time>2021-08-10T15:51:42Z</time>
      </trkpt>
      <trkpt lat="44.36348" lon="3.73807">
        <ele>890.6</ele>
        <time>2021-08-10T15:51:44Z</time>
      </trkpt>
      <trkpt lat="44.36344" lon="3.73808">
        <ele>891.3</ele>
        <time>2021-08-10T15:51:46Z</time>
      </trkpt>
      <trkpt lat="44.36339" lon="3.73809">
        <ele>892.2</ele>
        <time>2021-08-10T15:51:48Z</time>
      </trkpt>
      <trkpt lat="44.36335" lon="3.7381">
        <ele>893.1</ele>
        <time>2021-08-10T15:51:50Z</time>
      </trkpt>
      <trkpt lat="44.36331" lon="3.7381">
        <ele>893.5</ele>
        <time>2021-08-10T15:51:52Z</time>
      </trkpt>
      <trkpt lat="44.36327" lon="3.73811">
        <ele>893.6</ele>
        <time>2021-08-10T15:51:54Z</time>
      </trkpt>
      <trkpt lat="44.36324" lon="3.73811">
        <ele>893.8</ele>
        <time>2021-08-10T15:51:56Z</time>
      </trkpt>
      <trkpt lat="44.36321" lon="3.73812">
        <ele>893.9</ele>
        <time>2021-08-10T15:51:58Z</time>
      </trkpt>
      <trkpt lat="44.36316" lon="3.73814">
        <ele>894.3</ele>
        <time>2021-08-10T15:52:00Z</time>
      </trkpt>
      <trkpt lat="44.36313" lon="3.73815">
        <ele>894.8</ele>
        <time>2021-08-10T15:52:02Z</time>
      </trkpt>
      <trkpt lat="44.36309" lon="3.73816">
        <ele>895.2</ele>
        <time>2021-08-10T15:52:04Z</time>
      </trkpt>
      <trkpt lat="44.36305" lon="3.73818">
        <ele>895.7</ele>
        <time>2021-08-10T15:52:06Z</time>
      </trkpt>
      <trkpt lat="44.36302" lon="3.73819">
        <ele>895.8</ele>
        <time>2021-08-10T15:52:08Z</time>
      </trkpt>
      <trkpt lat="44.36299" lon="3.7382">
        <ele>896.2</ele>
        <time>2021-08-10T15:52:10Z</time>
      </trkpt>
      <trkpt lat="44.36295" lon="3.73823">
        <ele>897</ele>
        <time>2021-08-10T15:52:12Z</time>
      </trkpt>
      <trkpt lat="44.36291" lon="3.73824">
        <ele>897.5</ele>
        <time>2021-08-10T15:52:14Z</time>
      </trkpt>
      <trkpt lat="44.36287" lon="3.73826">
        <ele>898.1</ele>
        <time>2021-08-10T15:52:16Z</time>
      </trkpt>
      <trkpt lat="44.36283" lon="3.73828">
        <ele>898.8</ele>
        <time>2021-08-10T15:52:18Z</time>
      </trkpt>
      <trkpt lat="44.3628" lon="3.7383">
        <ele>899.2</ele>
        <time>2021-08-10T15:52:20Z</time>
      </trkpt>
      <trkpt lat="44.36276" lon="3.73832">
        <ele>900</ele>
        <time>2021-08-10T15:52:22Z</time>
      </trkpt>
      <trkpt lat="44.36272" lon="3.73833">
        <ele>900.3</ele>
        <time>2021-08-10T15:52:24Z</time>
      </trkpt>
      <trkpt lat="44.36268" lon="3.73836">
        <ele>901.1</ele>
        <time>2021-08-10T15:52:26Z</time>
      </trkpt>
      <trkpt lat="44.36265" lon="3.73837">
        <ele>901.4</ele>
        <time>2021-08-10T15:52:28Z</time>
      </trkpt>
      <trkpt lat="44.36261" lon="3.73839">
        <ele>901.9</ele>
        <time>2021-08-10T15:52:30Z</time>
      </trkpt>
      <trkpt lat="44.36257" lon="3.7384">
        <ele>902.2</ele>
        <time>2021-08-10T15:52:32Z</time>
      </trkpt>
      <trkpt lat="44.36254" lon="3.7384">
        <ele>902.5</ele>
        <time>2021-08-10T15:52:34Z</time>
      </trkpt>
      <trkpt lat="44.36249" lon="3.73842">
        <ele>903.2</ele>
        <time>2021-08-10T15:52:36Z</time>
      </trkpt>
      <trkpt lat="44.36246" lon="3.73844">
        <ele>903.9</ele>
        <time>2021-08-10T15:52:38Z</time>
      </trkpt>
      <trkpt lat="44.36242" lon="3.73845">
        <ele>904.7</ele>
        <time>2021-08-10T15:52:40Z</time>
      </trkpt>
      <trkpt lat="44.36239" lon="3.73847">
        <ele>905.3</ele>
        <time>2021-08-10T15:52:42Z</time>
      </trkpt>
      <trkpt lat="44.36236" lon="3.73847">
        <ele>905.7</ele>
        <time>2021-08-10T15:52:44Z</time>
      </trkpt>
      <trkpt lat="44.36233" lon="3.73848">
        <ele>906</ele>
        <time>2021-08-10T15:52:46Z</time>
      </trkpt>
      <trkpt lat="44.36229" lon="3.73849">
        <ele>906.5</ele>
        <time>2021-08-10T15:52:48Z</time>
      </trkpt>
      <trkpt lat="44.36225" lon="3.73849">
        <ele>906.8</ele>
        <time>2021-08-10T15:52:50Z</time>
      </trkpt>
      <trkpt lat="44.3622" lon="3.73849">
        <ele>907.1</ele>
        <time>2021-08-10T15:52:52Z</time>
      </trkpt>
      <trkpt lat="44.36216" lon="3.73848">
        <ele>906.9</ele>
        <time>2021-08-10T15:52:54Z</time>
      </trkpt>
      <trkpt lat="44.36212" lon="3.73849">
        <ele>907.4</ele>
        <time>2021-08-10T15:52:56Z</time>
      </trkpt>
      <trkpt lat="44.36208" lon="3.73849">
        <ele>907.5</ele>
        <time>2021-08-10T15:52:58Z</time>
      </trkpt>
      <trkpt lat="44.36204" lon="3.73848">
        <ele>907.5</ele>
        <time>2021-08-10T15:53:00Z</time>
      </trkpt>
      <trkpt lat="44.36198" lon="3.73849">
        <ele>908.2</ele>
        <time>2021-08-10T15:53:02Z</time>
      </trkpt>
      <trkpt lat="44.36194" lon="3.73849">
        <ele>908.5</ele>
        <time>2021-08-10T15:53:04Z</time>
      </trkpt>
      <trkpt lat="44.3619" lon="3.73849">
        <ele>908.6</ele>
        <time>2021-08-10T15:53:06Z</time>
      </trkpt>
      <trkpt lat="44.36185" lon="3.7385">
        <ele>909.2</ele>
        <time>2021-08-10T15:53:08Z</time>
      </trkpt>
      <trkpt lat="44.36181" lon="3.73851">
        <ele>909.7</ele>
        <time>2021-08-10T15:53:10Z</time>
      </trkpt>
      <trkpt lat="44.36177" lon="3.73851">
        <ele>909.9</ele>
        <time>2021-08-10T15:53:12Z</time>
      </trkpt>
      <trkpt lat="44.36175" lon="3.73851">
        <ele>909.8</ele>
        <time>2021-08-10T15:53:14Z</time>
      </trkpt>
      <trkpt lat="44.36169" lon="3.7385">
        <ele>909.7</ele>
        <time>2021-08-10T15:53:16Z</time>
      </trkpt>
      <trkpt lat="44.36168" lon="3.73849">
        <ele>909.5</ele>
        <time>2021-08-10T15:53:18Z</time>
      </trkpt>
      <trkpt lat="44.36164" lon="3.73848">
        <ele>910.4</ele>
        <time>2021-08-10T15:53:20Z</time>
      </trkpt>
      <trkpt lat="44.3616" lon="3.73847">
        <ele>911.1</ele>
        <time>2021-08-10T15:53:22Z</time>
      </trkpt>
      <trkpt lat="44.36157" lon="3.73845">
        <ele>911.7</ele>
        <time>2021-08-10T15:53:24Z</time>
      </trkpt>
      <trkpt lat="44.36152" lon="3.73843">
        <ele>912.9</ele>
        <time>2021-08-10T15:53:26Z</time>
      </trkpt>
      <trkpt lat="44.36147" lon="3.7384">
        <ele>913.5</ele>
        <time>2021-08-10T15:53:28Z</time>
      </trkpt>
      <trkpt lat="44.36144" lon="3.73836">
        <ele>913.3</ele>
        <time>2021-08-10T15:53:30Z</time>
      </trkpt>
      <trkpt lat="44.36139" lon="3.73833">
        <ele>913.6</ele>
        <time>2021-08-10T15:53:32Z</time>
      </trkpt>
      <trkpt lat="44.36136" lon="3.73829">
        <ele>913.1</ele>
        <time>2021-08-10T15:53:34Z</time>
      </trkpt>
      <trkpt lat="44.36133" lon="3.73824">
        <ele>912</ele>
        <time>2021-08-10T15:53:36Z</time>
      </trkpt>
      <trkpt lat="44.36131" lon="3.73819">
        <ele>911</ele>
        <time>2021-08-10T15:53:38Z</time>
      </trkpt>
      <trkpt lat="44.36128" lon="3.73815">
        <ele>910.1</ele>
        <time>2021-08-10T15:53:40Z</time>
      </trkpt>
      <trkpt lat="44.36124" lon="3.73811">
        <ele>909.3</ele>
        <time>2021-08-10T15:53:42Z</time>
      </trkpt>
      <trkpt lat="44.36121" lon="3.73808">
        <ele>909.5</ele>
        <time>2021-08-10T15:53:44Z</time>
      </trkpt>
      <trkpt lat="44.36117" lon="3.73804">
        <ele>909.2</ele>
        <time>2021-08-10T15:53:46Z</time>
      </trkpt>
      <trkpt lat="44.36114" lon="3.73802">
        <ele>909</ele>
        <time>2021-08-10T15:53:48Z</time>
      </trkpt>
      <trkpt lat="44.3611" lon="3.73799">
        <ele>909.2</ele>
        <time>2021-08-10T15:53:50Z</time>
      </trkpt>
      <trkpt lat="44.36107" lon="3.73797">
        <ele>909</ele>
        <time>2021-08-10T15:53:52Z</time>
      </trkpt>
      <trkpt lat="44.36104" lon="3.73796">
        <ele>909.8</ele>
        <time>2021-08-10T15:53:54Z</time>
      </trkpt>
      <trkpt lat="44.36099" lon="3.73795">
        <ele>911.1</ele>
        <time>2021-08-10T15:53:56Z</time>
      </trkpt>
      <trkpt lat="44.36094" lon="3.73794">
        <ele>911.8</ele>
        <time>2021-08-10T15:53:58Z</time>
      </trkpt>
      <trkpt lat="44.36091" lon="3.73792">
        <ele>912.2</ele>
        <time>2021-08-10T15:54:00Z</time>
      </trkpt>
      <trkpt lat="44.36087" lon="3.73789">
        <ele>912</ele>
        <time>2021-08-10T15:54:02Z</time>
      </trkpt>
      <trkpt lat="44.36083" lon="3.73787">
        <ele>912.1</ele>
        <time>2021-08-10T15:54:04Z</time>
      </trkpt>
      <trkpt lat="44.36081" lon="3.73784">
        <ele>912.3</ele>
        <time>2021-08-10T15:54:06Z</time>
      </trkpt>
      <trkpt lat="44.36077" lon="3.73782">
        <ele>913.2</ele>
        <time>2021-08-10T15:54:08Z</time>
      </trkpt>
      <trkpt lat="44.36073" lon="3.73778">
        <ele>913.4</ele>
        <time>2021-08-10T15:54:10Z</time>
      </trkpt>
      <trkpt lat="44.36069" lon="3.73776">
        <ele>914.3</ele>
        <time>2021-08-10T15:54:12Z</time>
      </trkpt>
      <trkpt lat="44.36066" lon="3.73772">
        <ele>914.3</ele>
        <time>2021-08-10T15:54:14Z</time>
      </trkpt>
      <trkpt lat="44.36063" lon="3.73768">
        <ele>913.7</ele>
        <time>2021-08-10T15:54:16Z</time>
      </trkpt>
      <trkpt lat="44.3606" lon="3.73763">
        <ele>913.4</ele>
        <time>2021-08-10T15:54:18Z</time>
      </trkpt>
      <trkpt lat="44.36057" lon="3.7376">
        <ele>913.3</ele>
        <time>2021-08-10T15:54:20Z</time>
      </trkpt>
      <trkpt lat="44.36053" lon="3.73755">
        <ele>913.2</ele>
        <time>2021-08-10T15:54:22Z</time>
      </trkpt>
      <trkpt lat="44.3605" lon="3.73754">
        <ele>914.3</ele>
        <time>2021-08-10T15:54:24Z</time>
      </trkpt>
      <trkpt lat="44.36046" lon="3.73753">
        <ele>915.8</ele>
        <time>2021-08-10T15:54:26Z</time>
      </trkpt>
      <trkpt lat="44.36043" lon="3.73753">
        <ele>917.6</ele>
        <time>2021-08-10T15:54:28Z</time>
      </trkpt>
      <trkpt lat="44.36038" lon="3.73753">
        <ele>920.1</ele>
        <time>2021-08-10T15:54:30Z</time>
      </trkpt>
      <trkpt lat="44.36035" lon="3.7375">
        <ele>920.9</ele>
        <time>2021-08-10T15:54:32Z</time>
      </trkpt>
      <trkpt lat="44.36032" lon="3.73746">
        <ele>920.5</ele>
        <time>2021-08-10T15:54:34Z</time>
      </trkpt>
      <trkpt lat="44.36031" lon="3.73741">
        <ele>919.4</ele>
        <time>2021-08-10T15:54:36Z</time>
      </trkpt>
      <trkpt lat="44.36028" lon="3.73737">
        <ele>918.9</ele>
        <time>2021-08-10T15:54:38Z</time>
      </trkpt>
      <trkpt lat="44.36025" lon="3.73733">
        <ele>919</ele>
        <time>2021-08-10T15:54:40Z</time>
      </trkpt>
      <trkpt lat="44.36021" lon="3.73731">
        <ele>920.6</ele>
        <time>2021-08-10T15:54:42Z</time>
      </trkpt>
      <trkpt lat="44.36018" lon="3.7373">
        <ele>922.2</ele>
        <time>2021-08-10T15:54:44Z</time>
      </trkpt>
      <trkpt lat="44.36014" lon="3.73731">
        <ele>924.2</ele>
        <time>2021-08-10T15:54:46Z</time>
      </trkpt>
      <trkpt lat="44.3601" lon="3.7373">
        <ele>926.2</ele>
        <time>2021-08-10T15:54:48Z</time>
      </trkpt>
      <trkpt lat="44.36007" lon="3.73728">
        <ele>927.3</ele>
        <time>2021-08-10T15:54:50Z</time>
      </trkpt>
      <trkpt lat="44.36003" lon="3.73725">
        <ele>927.8</ele>
        <time>2021-08-10T15:54:52Z</time>
      </trkpt>
      <trkpt lat="44.36001" lon="3.73721">
        <ele>927.3</ele>
        <time>2021-08-10T15:54:54Z</time>
      </trkpt>
      <trkpt lat="44.35999" lon="3.73717">
        <ele>927</ele>
        <time>2021-08-10T15:54:56Z</time>
      </trkpt>
      <trkpt lat="44.35996" lon="3.73712">
        <ele>927.2</ele>
        <time>2021-08-10T15:54:58Z</time>
      </trkpt>
      <trkpt lat="44.35994" lon="3.73707">
        <ele>926.8</ele>
        <time>2021-08-10T15:55:00Z</time>
      </trkpt>
      <trkpt lat="44.3599" lon="3.73702">
        <ele>927.3</ele>
        <time>2021-08-10T15:55:02Z</time>
      </trkpt>
      <trkpt lat="44.35987" lon="3.73698">
        <ele>927.5</ele>
        <time>2021-08-10T15:55:04Z</time>
      </trkpt>
      <trkpt lat="44.35984" lon="3.73695">
        <ele>928.9</ele>
        <time>2021-08-10T15:55:06Z</time>
      </trkpt>
      <trkpt lat="44.35981" lon="3.7369">
        <ele>928.9</ele>
        <time>2021-08-10T15:55:08Z</time>
      </trkpt>
      <trkpt lat="44.35978" lon="3.73685">
        <ele>928.9</ele>
        <time>2021-08-10T15:55:10Z</time>
      </trkpt>
      <trkpt lat="44.35976" lon="3.73681">
        <ele>928.9</ele>
        <time>2021-08-10T15:55:12Z</time>
      </trkpt>
      <trkpt lat="44.35974" lon="3.73676">
        <ele>928.4</ele>
        <time>2021-08-10T15:55:14Z</time>
      </trkpt>
      <trkpt lat="44.35973" lon="3.73671">
        <ele>927.4</ele>
        <time>2021-08-10T15:55:16Z</time>
      </trkpt>
      <trkpt lat="44.35972" lon="3.73666">
        <ele>925.9</ele>
        <time>2021-08-10T15:55:18Z</time>
      </trkpt>
      <trkpt lat="44.35973" lon="3.7366">
        <ele>923.6</ele>
        <time>2021-08-10T15:55:20Z</time>
      </trkpt>
      <trkpt lat="44.35972" lon="3.73653">
        <ele>921.9</ele>
        <time>2021-08-10T15:55:22Z</time>
      </trkpt>
      <trkpt lat="44.3597" lon="3.73647">
        <ele>921.5</ele>
        <time>2021-08-10T15:55:24Z</time>
      </trkpt>
      <trkpt lat="44.35968" lon="3.73642">
        <ele>921.5</ele>
        <time>2021-08-10T15:55:26Z</time>
      </trkpt>
      <trkpt lat="44.35964" lon="3.73639">
        <ele>922.8</ele>
        <time>2021-08-10T15:55:28Z</time>
      </trkpt>
      <trkpt lat="44.35962" lon="3.73635">
        <ele>923.1</ele>
        <time>2021-08-10T15:55:30Z</time>
      </trkpt>
      <trkpt lat="44.35959" lon="3.73631">
        <ele>924.2</ele>
        <time>2021-08-10T15:55:32Z</time>
      </trkpt>
      <trkpt lat="44.35956" lon="3.73629">
        <ele>925.5</ele>
        <time>2021-08-10T15:55:34Z</time>
      </trkpt>
      <trkpt lat="44.35953" lon="3.73626">
        <ele>926.4</ele>
        <time>2021-08-10T15:55:36Z</time>
      </trkpt>
      <trkpt lat="44.35949" lon="3.73626">
        <ele>929</ele>
        <time>2021-08-10T15:55:38Z</time>
      </trkpt>
      <trkpt lat="44.35945" lon="3.73624">
        <ele>930.9</ele>
        <time>2021-08-10T15:55:40Z</time>
      </trkpt>
      <trkpt lat="44.35941" lon="3.73622">
        <ele>932.9</ele>
        <time>2021-08-10T15:55:42Z</time>
      </trkpt>
      <trkpt lat="44.35938" lon="3.73618">
        <ele>934</ele>
        <time>2021-08-10T15:55:44Z</time>
      </trkpt>
      <trkpt lat="44.35935" lon="3.73615">
        <ele>934.8</ele>
        <time>2021-08-10T15:55:46Z</time>
      </trkpt>
      <trkpt lat="44.35932" lon="3.73611">
        <ele>935.9</ele>
        <time>2021-08-10T15:55:48Z</time>
      </trkpt>
      <trkpt lat="44.35929" lon="3.73607">
        <ele>936.7</ele>
        <time>2021-08-10T15:55:50Z</time>
      </trkpt>
      <trkpt lat="44.35926" lon="3.73602">
        <ele>937.1</ele>
        <time>2021-08-10T15:55:52Z</time>
      </trkpt>
      <trkpt lat="44.35921" lon="3.73599">
        <ele>939</ele>
        <time>2021-08-10T15:55:54Z</time>
      </trkpt>
      <trkpt lat="44.35918" lon="3.73595">
        <ele>940</ele>
        <time>2021-08-10T15:55:56Z</time>
      </trkpt>
      <trkpt lat="44.35915" lon="3.7359">
        <ele>940</ele>
        <time>2021-08-10T15:55:58Z</time>
      </trkpt>
      <trkpt lat="44.35913" lon="3.73585">
        <ele>939.7</ele>
        <time>2021-08-10T15:56:00Z</time>
      </trkpt>
      <trkpt lat="44.35911" lon="3.73582">
        <ele>940.2</ele>
        <time>2021-08-10T15:56:02Z</time>
      </trkpt>
      <trkpt lat="44.35908" lon="3.73579">
        <ele>941.8</ele>
        <time>2021-08-10T15:56:04Z</time>
      </trkpt>
      <trkpt lat="44.35905" lon="3.73577">
        <ele>943</ele>
        <time>2021-08-10T15:56:06Z</time>
      </trkpt>
      <trkpt lat="44.35902" lon="3.73574">
        <ele>944.5</ele>
        <time>2021-08-10T15:56:08Z</time>
      </trkpt>
      <trkpt lat="44.359" lon="3.73571">
        <ele>945.3</ele>
        <time>2021-08-10T15:56:10Z</time>
      </trkpt>
      <trkpt lat="44.35896" lon="3.73567">
        <ele>947.2</ele>
        <time>2021-08-10T15:56:12Z</time>
      </trkpt>
      <trkpt lat="44.35893" lon="3.73565">
        <ele>949.1</ele>
        <time>2021-08-10T15:56:14Z</time>
      </trkpt>
      <trkpt lat="44.3589" lon="3.73561">
        <ele>950.5</ele>
        <time>2021-08-10T15:56:16Z</time>
      </trkpt>
      <trkpt lat="44.35887" lon="3.73557">
        <ele>951.9</ele>
        <time>2021-08-10T15:56:18Z</time>
      </trkpt>
      <trkpt lat="44.35884" lon="3.73552">
        <ele>953.3</ele>
        <time>2021-08-10T15:56:20Z</time>
      </trkpt>
      <trkpt lat="44.35882" lon="3.73548">
        <ele>954.1</ele>
        <time>2021-08-10T15:56:22Z</time>
      </trkpt>
      <trkpt lat="44.3588" lon="3.73544">
        <ele>954.6</ele>
        <time>2021-08-10T15:56:24Z</time>
      </trkpt>
      <trkpt lat="44.35879" lon="3.73539">
        <ele>955.1</ele>
        <time>2021-08-10T15:56:26Z</time>
      </trkpt>
      <trkpt lat="44.35877" lon="3.73533">
        <ele>955.8</ele>
        <time>2021-08-10T15:56:28Z</time>
      </trkpt>
      <trkpt lat="44.35877" lon="3.73526">
        <ele>955.2</ele>
        <time>2021-08-10T15:56:30Z</time>
      </trkpt>
      <trkpt lat="44.35876" lon="3.73522">
        <ele>955.2</ele>
        <time>2021-08-10T15:56:32Z</time>
      </trkpt>
      <trkpt lat="44.35876" lon="3.73516">
        <ele>955</ele>
        <time>2021-08-10T15:56:34Z</time>
      </trkpt>
      <trkpt lat="44.35878" lon="3.73509">
        <ele>953</ele>
        <time>2021-08-10T15:56:36Z</time>
      </trkpt>
      <trkpt lat="44.35878" lon="3.73503">
        <ele>952.1</ele>
        <time>2021-08-10T15:56:38Z</time>
      </trkpt>
      <trkpt lat="44.35879" lon="3.73496">
        <ele>950.9</ele>
        <time>2021-08-10T15:56:40Z</time>
      </trkpt>
      <trkpt lat="44.35881" lon="3.7349">
        <ele>949.7</ele>
        <time>2021-08-10T15:56:42Z</time>
      </trkpt>
      <trkpt lat="44.35883" lon="3.73484">
        <ele>948.9</ele>
        <time>2021-08-10T15:56:44Z</time>
      </trkpt>
      <trkpt lat="44.35884" lon="3.73477">
        <ele>948</ele>
        <time>2021-08-10T15:56:46Z</time>
      </trkpt>
      <trkpt lat="44.35885" lon="3.73471">
        <ele>947.3</ele>
        <time>2021-08-10T15:56:48Z</time>
      </trkpt>
      <trkpt lat="44.35886" lon="3.73466">
        <ele>946.9</ele>
        <time>2021-08-10T15:56:50Z</time>
      </trkpt>
      <trkpt lat="44.35886" lon="3.73462">
        <ele>946.8</ele>
        <time>2021-08-10T15:56:52Z</time>
      </trkpt>
      <trkpt lat="44.35887" lon="3.73457">
        <ele>946.7</ele>
        <time>2021-08-10T15:56:54Z</time>
      </trkpt>
      <trkpt lat="44.35886" lon="3.73453">
        <ele>947.3</ele>
        <time>2021-08-10T15:56:56Z</time>
      </trkpt>
      <trkpt lat="44.35887" lon="3.73447">
        <ele>947</ele>
        <time>2021-08-10T15:56:58Z</time>
      </trkpt>
      <trkpt lat="44.35888" lon="3.73443">
        <ele>946.5</ele>
        <time>2021-08-10T15:57:00Z</time>
      </trkpt>
      <trkpt lat="44.35887" lon="3.73437">
        <ele>947.1</ele>
        <time>2021-08-10T15:57:02Z</time>
      </trkpt>
      <trkpt lat="44.35888" lon="3.73431">
        <ele>946.5</ele>
        <time>2021-08-10T15:57:04Z</time>
      </trkpt>
      <trkpt lat="44.35889" lon="3.73425">
        <ele>946.3</ele>
        <time>2021-08-10T15:57:06Z</time>
      </trkpt>
      <trkpt lat="44.3589" lon="3.73419">
        <ele>945.9</ele>
        <time>2021-08-10T15:57:08Z</time>
      </trkpt>
      <trkpt lat="44.35892" lon="3.73412">
        <ele>945.1</ele>
        <time>2021-08-10T15:57:10Z</time>
      </trkpt>
      <trkpt lat="44.35894" lon="3.73407">
        <ele>943.7</ele>
        <time>2021-08-10T15:57:12Z</time>
      </trkpt>
      <trkpt lat="44.35896" lon="3.73401">
        <ele>943.1</ele>
        <time>2021-08-10T15:57:14Z</time>
      </trkpt>
      <trkpt lat="44.35897" lon="3.73395">
        <ele>942.7</ele>
        <time>2021-08-10T15:57:16Z</time>
      </trkpt>
      <trkpt lat="44.35898" lon="3.73389">
        <ele>942.4</ele>
        <time>2021-08-10T15:57:18Z</time>
      </trkpt>
      <trkpt lat="44.35898" lon="3.73384">
        <ele>942.9</ele>
        <time>2021-08-10T15:57:20Z</time>
      </trkpt>
      <trkpt lat="44.35898" lon="3.73378">
        <ele>943</ele>
        <time>2021-08-10T15:57:22Z</time>
      </trkpt>
      <trkpt lat="44.35899" lon="3.73373">
        <ele>942.7</ele>
        <time>2021-08-10T15:57:24Z</time>
      </trkpt>
      <trkpt lat="44.359" lon="3.73367">
        <ele>942.4</ele>
        <time>2021-08-10T15:57:26Z</time>
      </trkpt>
      <trkpt lat="44.35902" lon="3.73362">
        <ele>941.8</ele>
        <time>2021-08-10T15:57:28Z</time>
      </trkpt>
      <trkpt lat="44.35903" lon="3.73356">
        <ele>941.6</ele>
        <time>2021-08-10T15:57:30Z</time>
      </trkpt>
      <trkpt lat="44.35904" lon="3.73351">
        <ele>941.1</ele>
        <time>2021-08-10T15:57:32Z</time>
      </trkpt>
      <trkpt lat="44.35903" lon="3.73346">
        <ele>942</ele>
        <time>2021-08-10T15:57:34Z</time>
      </trkpt>
      <trkpt lat="44.35902" lon="3.7334">
        <ele>943.4</ele>
        <time>2021-08-10T15:57:36Z</time>
      </trkpt>
      <trkpt lat="44.35899" lon="3.73336">
        <ele>945.2</ele>
        <time>2021-08-10T15:57:38Z</time>
      </trkpt>
      <trkpt lat="44.35896" lon="3.73333">
        <ele>947.5</ele>
        <time>2021-08-10T15:57:40Z</time>
      </trkpt>
      <trkpt lat="44.35894" lon="3.73328">
        <ele>949.6</ele>
        <time>2021-08-10T15:57:42Z</time>
      </trkpt>
      <trkpt lat="44.35892" lon="3.73325">
        <ele>951.3</ele>
        <time>2021-08-10T15:57:44Z</time>
      </trkpt>
      <trkpt lat="44.35889" lon="3.73323">
        <ele>953.4</ele>
        <time>2021-08-10T15:57:46Z</time>
      </trkpt>
      <trkpt lat="44.35887" lon="3.73319">
        <ele>955.2</ele>
        <time>2021-08-10T15:57:48Z</time>
      </trkpt>
      <trkpt lat="44.35884" lon="3.73316">
        <ele>957.3</ele>
        <time>2021-08-10T15:57:50Z</time>
      </trkpt>
      <trkpt lat="44.35883" lon="3.73311">
        <ele>958.1</ele>
        <time>2021-08-10T15:57:52Z</time>
      </trkpt>
      <trkpt lat="44.35883" lon="3.73305">
        <ele>959</ele>
        <time>2021-08-10T15:57:54Z</time>
      </trkpt>
      <trkpt lat="44.35884" lon="3.73299">
        <ele>958.8</ele>
        <time>2021-08-10T15:57:56Z</time>
      </trkpt>
      <trkpt lat="44.35885" lon="3.73292">
        <ele>958.6</ele>
        <time>2021-08-10T15:57:58Z</time>
      </trkpt>
      <trkpt lat="44.35886" lon="3.73288">
        <ele>958.6</ele>
        <time>2021-08-10T15:58:00Z</time>
      </trkpt>
      <trkpt lat="44.35887" lon="3.73282">
        <ele>958.7</ele>
        <time>2021-08-10T15:58:02Z</time>
      </trkpt>
      <trkpt lat="44.35888" lon="3.73276">
        <ele>958.6</ele>
        <time>2021-08-10T15:58:04Z</time>
      </trkpt>
      <trkpt lat="44.35889" lon="3.73271">
        <ele>958.4</ele>
        <time>2021-08-10T15:58:06Z</time>
      </trkpt>
      <trkpt lat="44.35891" lon="3.73265">
        <ele>957.9</ele>
        <time>2021-08-10T15:58:08Z</time>
      </trkpt>
      <trkpt lat="44.35891" lon="3.7326">
        <ele>958.2</ele>
        <time>2021-08-10T15:58:10Z</time>
      </trkpt>
      <trkpt lat="44.35893" lon="3.73255">
        <ele>957.6</ele>
        <time>2021-08-10T15:58:12Z</time>
      </trkpt>
      <trkpt lat="44.35895" lon="3.7325">
        <ele>956.6</ele>
        <time>2021-08-10T15:58:14Z</time>
      </trkpt>
      <trkpt lat="44.35897" lon="3.73245">
        <ele>955.7</ele>
        <time>2021-08-10T15:58:16Z</time>
      </trkpt>
      <trkpt lat="44.359" lon="3.73241">
        <ele>954.2</ele>
        <time>2021-08-10T15:58:18Z</time>
      </trkpt>
      <trkpt lat="44.35904" lon="3.73238">
        <ele>952.1</ele>
        <time>2021-08-10T15:58:20Z</time>
      </trkpt>
      <trkpt lat="44.35909" lon="3.73237">
        <ele>949.4</ele>
        <time>2021-08-10T15:58:22Z</time>
      </trkpt>
      <trkpt lat="44.35913" lon="3.73236">
        <ele>947</ele>
        <time>2021-08-10T15:58:24Z</time>
      </trkpt>
      <trkpt lat="44.35917" lon="3.73233">
        <ele>945.1</ele>
        <time>2021-08-10T15:58:26Z</time>
      </trkpt>
      <trkpt lat="44.3592" lon="3.73229">
        <ele>943.5</ele>
        <time>2021-08-10T15:58:28Z</time>
      </trkpt>
      <trkpt lat="44.35922" lon="3.73224">
        <ele>942.3</ele>
        <time>2021-08-10T15:58:30Z</time>
      </trkpt>
      <trkpt lat="44.35925" lon="3.73219">
        <ele>941</ele>
        <time>2021-08-10T15:58:32Z</time>
      </trkpt>
      <trkpt lat="44.35926" lon="3.73213">
        <ele>940.5</ele>
        <time>2021-08-10T15:58:34Z</time>
      </trkpt>
      <trkpt lat="44.35928" lon="3.73208">
        <ele>940.2</ele>
        <time>2021-08-10T15:58:36Z</time>
      </trkpt>
      <trkpt lat="44.35928" lon="3.73202">
        <ele>940.3</ele>
        <time>2021-08-10T15:58:38Z</time>
      </trkpt>
      <trkpt lat="44.35929" lon="3.73196">
        <ele>940.4</ele>
        <time>2021-08-10T15:58:40Z</time>
      </trkpt>
      <trkpt lat="44.35929" lon="3.7319">
        <ele>940.4</ele>
        <time>2021-08-10T15:58:42Z</time>
      </trkpt>
      <trkpt lat="44.3593" lon="3.73184">
        <ele>940.6</ele>
        <time>2021-08-10T15:58:44Z</time>
      </trkpt>
      <trkpt lat="44.35929" lon="3.73179">
        <ele>941.7</ele>
        <time>2021-08-10T15:58:46Z</time>
      </trkpt>
      <trkpt lat="44.35927" lon="3.73173">
        <ele>943.4</ele>
        <time>2021-08-10T15:58:48Z</time>
      </trkpt>
      <trkpt lat="44.35925" lon="3.73168">
        <ele>945</ele>
        <time>2021-08-10T15:58:50Z</time>
      </trkpt>
      <trkpt lat="44.35923" lon="3.73164">
        <ele>946</ele>
        <time>2021-08-10T15:58:52Z</time>
      </trkpt>
      <trkpt lat="44.35921" lon="3.73159">
        <ele>946.8</ele>
        <time>2021-08-10T15:58:54Z</time>
      </trkpt>
      <trkpt lat="44.35918" lon="3.73155">
        <ele>948</ele>
        <time>2021-08-10T15:58:56Z</time>
      </trkpt>
      <trkpt lat="44.35915" lon="3.73151">
        <ele>949</ele>
        <time>2021-08-10T15:58:58Z</time>
      </trkpt>
      <trkpt lat="44.35913" lon="3.73147">
        <ele>949.9</ele>
        <time>2021-08-10T15:59:00Z</time>
      </trkpt>
      <trkpt lat="44.3591" lon="3.73144">
        <ele>950.6</ele>
        <time>2021-08-10T15:59:02Z</time>
      </trkpt>
      <trkpt lat="44.35908" lon="3.7314">
        <ele>951.2</ele>
        <time>2021-08-10T15:59:04Z</time>
      </trkpt>
      <trkpt lat="44.35906" lon="3.73136">
        <ele>951.6</ele>
        <time>2021-08-10T15:59:06Z</time>
      </trkpt>
      <trkpt lat="44.35904" lon="3.73131">
        <ele>951.9</ele>
        <time>2021-08-10T15:59:08Z</time>
      </trkpt>
      <trkpt lat="44.35901" lon="3.73126">
        <ele>952.5</ele>
        <time>2021-08-10T15:59:10Z</time>
      </trkpt>
      <trkpt lat="44.35899" lon="3.73122">
        <ele>952.9</ele>
        <time>2021-08-10T15:59:12Z</time>
      </trkpt>
      <trkpt lat="44.35897" lon="3.73116">
        <ele>953</ele>
        <time>2021-08-10T15:59:14Z</time>
      </trkpt>
      <trkpt lat="44.35895" lon="3.7311">
        <ele>952.8</ele>
        <time>2021-08-10T15:59:16Z</time>
      </trkpt>
      <trkpt lat="44.35893" lon="3.73104">
        <ele>952.8</ele>
        <time>2021-08-10T15:59:18Z</time>
      </trkpt>
      <trkpt lat="44.35893" lon="3.73098">
        <ele>952.2</ele>
        <time>2021-08-10T15:59:20Z</time>
      </trkpt>
      <trkpt lat="44.35892" lon="3.73091">
        <ele>951.5</ele>
        <time>2021-08-10T15:59:22Z</time>
      </trkpt>
      <trkpt lat="44.3589" lon="3.73085">
        <ele>951.4</ele>
        <time>2021-08-10T15:59:24Z</time>
      </trkpt>
      <trkpt lat="44.35889" lon="3.73078">
        <ele>950.2</ele>
        <time>2021-08-10T15:59:26Z</time>
      </trkpt>
      <trkpt lat="44.35887" lon="3.73073">
        <ele>949.6</ele>
        <time>2021-08-10T15:59:28Z</time>
      </trkpt>
      <trkpt lat="44.35884" lon="3.73069">
        <ele>949.2</ele>
        <time>2021-08-10T15:59:30Z</time>
      </trkpt>
      <trkpt lat="44.35881" lon="3.73066">
        <ele>949.3</ele>
        <time>2021-08-10T15:59:32Z</time>
      </trkpt>
      <trkpt lat="44.35878" lon="3.73063">
        <ele>949.5</ele>
        <time>2021-08-10T15:59:34Z</time>
      </trkpt>
      <trkpt lat="44.35874" lon="3.73061">
        <ele>950</ele>
        <time>2021-08-10T15:59:36Z</time>
      </trkpt>
      <trkpt lat="44.35871" lon="3.73058">
        <ele>950.2</ele>
        <time>2021-08-10T15:59:38Z</time>
      </trkpt>
      <trkpt lat="44.35868" lon="3.73057">
        <ele>951</ele>
        <time>2021-08-10T15:59:40Z</time>
      </trkpt>
      <trkpt lat="44.35864" lon="3.73057">
        <ele>952</ele>
        <time>2021-08-10T15:59:42Z</time>
      </trkpt>
      <trkpt lat="44.3586" lon="3.73056">
        <ele>953.1</ele>
        <time>2021-08-10T15:59:44Z</time>
      </trkpt>
      <trkpt lat="44.35857" lon="3.73056">
        <ele>954</ele>
        <time>2021-08-10T15:59:46Z</time>
      </trkpt>
      <trkpt lat="44.35853" lon="3.73056">
        <ele>955.2</ele>
        <time>2021-08-10T15:59:48Z</time>
      </trkpt>
      <trkpt lat="44.35849" lon="3.73056">
        <ele>956.5</ele>
        <time>2021-08-10T15:59:50Z</time>
      </trkpt>
      <trkpt lat="44.35845" lon="3.73056">
        <ele>958</ele>
        <time>2021-08-10T15:59:52Z</time>
      </trkpt>
      <trkpt lat="44.35841" lon="3.73057">
        <ele>959.3</ele>
        <time>2021-08-10T15:59:54Z</time>
      </trkpt>
      <trkpt lat="44.35838" lon="3.73058">
        <ele>960.7</ele>
        <time>2021-08-10T15:59:56Z</time>
      </trkpt>
      <trkpt lat="44.35836" lon="3.73059">
        <ele>961.6</ele>
        <time>2021-08-10T15:59:58Z</time>
      </trkpt>
      <trkpt lat="44.35834" lon="3.73061">
        <ele>963</ele>
        <time>2021-08-10T16:00:00Z</time>
      </trkpt>
      <trkpt lat="44.3583" lon="3.73061">
        <ele>963.9</ele>
        <time>2021-08-10T16:00:02Z</time>
      </trkpt>
      <trkpt lat="44.35828" lon="3.73062">
        <ele>964.9</ele>
        <time>2021-08-10T16:00:04Z</time>
      </trkpt>
      <trkpt lat="44.35825" lon="3.73061">
        <ele>965.4</ele>
        <time>2021-08-10T16:00:06Z</time>
      </trkpt>
      <trkpt lat="44.3582" lon="3.7306">
        <ele>966</ele>
        <time>2021-08-10T16:00:08Z</time>
      </trkpt>
      <trkpt lat="44.35817" lon="3.73058">
        <ele>966.2</ele>
        <time>2021-08-10T16:00:10Z</time>
      </trkpt>
      <trkpt lat="44.35814" lon="3.73056">
        <ele>966.5</ele>
        <time>2021-08-10T16:00:12Z</time>
      </trkpt>
      <trkpt lat="44.3581" lon="3.73054">
        <ele>966.6</ele>
        <time>2021-08-10T16:00:14Z</time>
      </trkpt>
      <trkpt lat="44.35806" lon="3.73052">
        <ele>967.4</ele>
        <time>2021-08-10T16:00:16Z</time>
      </trkpt>
      <trkpt lat="44.35802" lon="3.73049">
        <ele>967.4</ele>
        <time>2021-08-10T16:00:18Z</time>
      </trkpt>
      <trkpt lat="44.358" lon="3.73047">
        <ele>967.1</ele>
        <time>2021-08-10T16:00:20Z</time>
      </trkpt>
      <trkpt lat="44.35796" lon="3.73044">
        <ele>967.4</ele>
        <time>2021-08-10T16:00:22Z</time>
      </trkpt>
      <trkpt lat="44.35791" lon="3.73042">
        <ele>968.4</ele>
        <time>2021-08-10T16:00:24Z</time>
      </trkpt>
      <trkpt lat="44.35787" lon="3.7304">
        <ele>968.9</ele>
        <time>2021-08-10T16:00:26Z</time>
      </trkpt>
      <trkpt lat="44.35783" lon="3.73037">
        <ele>969.2</ele>
        <time>2021-08-10T16:00:28Z</time>
      </trkpt>
      <trkpt lat="44.35778" lon="3.73035">
        <ele>970</ele>
        <time>2021-08-10T16:00:30Z</time>
      </trkpt>
      <trkpt lat="44.35775" lon="3.73032">
        <ele>970.1</ele>
        <time>2021-08-10T16:00:32Z</time>
      </trkpt>
      <trkpt lat="44.35771" lon="3.7303">
        <ele>970.8</ele>
        <time>2021-08-10T16:00:34Z</time>
      </trkpt>
      <trkpt lat="44.35767" lon="3.73027">
        <ele>971.3</ele>
        <time>2021-08-10T16:00:36Z</time>
      </trkpt>
      <trkpt lat="44.35766" lon="3.73024">
        <ele>971.2</ele>
        <time>2021-08-10T16:00:38Z</time>
      </trkpt>
      <trkpt lat="44.35762" lon="3.73022">
        <ele>971.8</ele>
        <time>2021-08-10T16:00:40Z</time>
      </trkpt>
      <trkpt lat="44.35758" lon="3.73021">
        <ele>972.9</ele>
        <time>2021-08-10T16:00:42Z</time>
      </trkpt>
      <trkpt lat="44.35754" lon="3.73018">
        <ele>973.4</ele>
        <time>2021-08-10T16:00:44Z</time>
      </trkpt>
      <trkpt lat="44.35751" lon="3.73016">
        <ele>974</ele>
        <time>2021-08-10T16:00:46Z</time>
      </trkpt>
      <trkpt lat="44.35748" lon="3.73013">
        <ele>974.4</ele>
        <time>2021-08-10T16:00:48Z</time>
      </trkpt>
      <trkpt lat="44.35747" lon="3.73009">
        <ele>974.2</ele>
        <time>2021-08-10T16:00:50Z</time>
      </trkpt>
      <trkpt lat="44.35744" lon="3.73005">
        <ele>974.6</ele>
        <time>2021-08-10T16:00:52Z</time>
      </trkpt>
      <trkpt lat="44.35742" lon="3.73">
        <ele>974.7</ele>
        <time>2021-08-10T16:00:54Z</time>
      </trkpt>
      <trkpt lat="44.35741" lon="3.72996">
        <ele>975.2</ele>
        <time>2021-08-10T16:00:56Z</time>
      </trkpt>
      <trkpt lat="44.3574" lon="3.72989">
        <ele>975.6</ele>
        <time>2021-08-10T16:00:58Z</time>
      </trkpt>
      <trkpt lat="44.3574" lon="3.72982">
        <ele>974.9</ele>
        <time>2021-08-10T16:01:00Z</time>
      </trkpt>
      <trkpt lat="44.35741" lon="3.72976">
        <ele>974.3</ele>
        <time>2021-08-10T16:01:02Z</time>
      </trkpt>
      <trkpt lat="44.3574" lon="3.72969">
        <ele>974.6</ele>
        <time>2021-08-10T16:01:04Z</time>
      </trkpt>
      <trkpt lat="44.35739" lon="3.72962">
        <ele>975</ele>
        <time>2021-08-10T16:01:06Z</time>
      </trkpt>
      <trkpt lat="44.3574" lon="3.72959">
        <ele>974.4</ele>
        <time>2021-08-10T16:01:08Z</time>
      </trkpt>
      <trkpt lat="44.3574" lon="3.72953">
        <ele>974.4</ele>
        <time>2021-08-10T16:01:10Z</time>
      </trkpt>
      <trkpt lat="44.3574" lon="3.72948">
        <ele>974.4</ele>
        <time>2021-08-10T16:01:12Z</time>
      </trkpt>
      <trkpt lat="44.35741" lon="3.72943">
        <ele>973.6</ele>
        <time>2021-08-10T16:01:14Z</time>
      </trkpt>
      <trkpt lat="44.35741" lon="3.72936">
        <ele>973.1</ele>
        <time>2021-08-10T16:01:16Z</time>
      </trkpt>
      <trkpt lat="44.35743" lon="3.7293">
        <ele>971.7</ele>
        <time>2021-08-10T16:01:18Z</time>
      </trkpt>
      <trkpt lat="44.35744" lon="3.72924">
        <ele>971.2</ele>
        <time>2021-08-10T16:01:20Z</time>
      </trkpt>
      <trkpt lat="44.35744" lon="3.72918">
        <ele>971</ele>
        <time>2021-08-10T16:01:22Z</time>
      </trkpt>
      <trkpt lat="44.35744" lon="3.72912">
        <ele>970.5</ele>
        <time>2021-08-10T16:01:24Z</time>
      </trkpt>
      <trkpt lat="44.35744" lon="3.72907">
        <ele>970</ele>
        <time>2021-08-10T16:01:26Z</time>
      </trkpt>
      <trkpt lat="44.35743" lon="3.72903">
        <ele>970.2</ele>
        <time>2021-08-10T16:01:28Z</time>
      </trkpt>
      <trkpt lat="44.35742" lon="3.72897">
        <ele>970.5</ele>
        <time>2021-08-10T16:01:30Z</time>
      </trkpt>
      <trkpt lat="44.35741" lon="3.72892">
        <ele>970.8</ele>
        <time>2021-08-10T16:01:32Z</time>
      </trkpt>
      <trkpt lat="44.35739" lon="3.72887">
        <ele>971.7</ele>
        <time>2021-08-10T16:01:34Z</time>
      </trkpt>
      <trkpt lat="44.35738" lon="3.72882">
        <ele>972.3</ele>
        <time>2021-08-10T16:01:36Z</time>
      </trkpt>
      <trkpt lat="44.35737" lon="3.72878">
        <ele>972.3</ele>
        <time>2021-08-10T16:01:38Z</time>
      </trkpt>
      <trkpt lat="44.35737" lon="3.72873">
        <ele>972.4</ele>
        <time>2021-08-10T16:01:40Z</time>
      </trkpt>
      <trkpt lat="44.35735" lon="3.72869">
        <ele>973.6</ele>
        <time>2021-08-10T16:01:42Z</time>
      </trkpt>
      <trkpt lat="44.35733" lon="3.72867">
        <ele>974.5</ele>
        <time>2021-08-10T16:01:44Z</time>
      </trkpt>
      <trkpt lat="44.35732" lon="3.72865">
        <ele>974.8</ele>
        <time>2021-08-10T16:01:46Z</time>
      </trkpt>
      <trkpt lat="44.35733" lon="3.72865">
        <ele>974.5</ele>
        <time>2021-08-10T16:01:48Z</time>
      </trkpt>
      <trkpt lat="44.35733" lon="3.72864">
        <ele>974.3</ele>
        <time>2021-08-10T16:01:50Z</time>
      </trkpt>
      <trkpt lat="44.35734" lon="3.72863">
        <ele>973.6</ele>
        <time>2021-08-10T16:01:52Z</time>
      </trkpt>
      <trkpt lat="44.35733" lon="3.72862">
        <ele>973.9</ele>
        <time>2021-08-10T16:01:54Z</time>
      </trkpt>
      <trkpt lat="44.35731" lon="3.72843">
        <ele>974.5</ele>
        <time>2021-08-10T16:08:28Z</time>
      </trkpt>
      <trkpt lat="44.35729" lon="3.7284">
        <ele>975.4</ele>
        <time>2021-08-10T16:08:30Z</time>
      </trkpt>
      <trkpt lat="44.35727" lon="3.72837">
        <ele>976.3</ele>
        <time>2021-08-10T16:08:32Z</time>
      </trkpt>
      <trkpt lat="44.35725" lon="3.72832">
        <ele>977.2</ele>
        <time>2021-08-10T16:08:34Z</time>
      </trkpt>
      <trkpt lat="44.35723" lon="3.72828">
        <ele>978.1</ele>
        <time>2021-08-10T16:08:36Z</time>
      </trkpt>
      <trkpt lat="44.35722" lon="3.72824">
        <ele>978.3</ele>
        <time>2021-08-10T16:08:38Z</time>
      </trkpt>
      <trkpt lat="44.3572" lon="3.72819">
        <ele>978.6</ele>
        <time>2021-08-10T16:08:40Z</time>
      </trkpt>
      <trkpt lat="44.35718" lon="3.72816">
        <ele>979.6</ele>
        <time>2021-08-10T16:08:42Z</time>
      </trkpt>
      <trkpt lat="44.35717" lon="3.72813">
        <ele>979.7</ele>
        <time>2021-08-10T16:08:44Z</time>
      </trkpt>
      <trkpt lat="44.35716" lon="3.72809">
        <ele>979.7</ele>
        <time>2021-08-10T16:08:46Z</time>
      </trkpt>
      <trkpt lat="44.35714" lon="3.72805">
        <ele>980</ele>
        <time>2021-08-10T16:08:48Z</time>
      </trkpt>
      <trkpt lat="44.35713" lon="3.728">
        <ele>980.2</ele>
        <time>2021-08-10T16:08:50Z</time>
      </trkpt>
      <trkpt lat="44.35711" lon="3.72797">
        <ele>980.4</ele>
        <time>2021-08-10T16:08:52Z</time>
      </trkpt>
      <trkpt lat="44.35709" lon="3.72793">
        <ele>981.2</ele>
        <time>2021-08-10T16:08:54Z</time>
      </trkpt>
      <trkpt lat="44.35707" lon="3.7279">
        <ele>982.1</ele>
        <time>2021-08-10T16:08:56Z</time>
      </trkpt>
      <trkpt lat="44.35705" lon="3.72786">
        <ele>982.8</ele>
        <time>2021-08-10T16:08:58Z</time>
      </trkpt>
      <trkpt lat="44.35703" lon="3.72782">
        <ele>983.2</ele>
        <time>2021-08-10T16:09:00Z</time>
      </trkpt>
      <trkpt lat="44.35701" lon="3.72778">
        <ele>983.7</ele>
        <time>2021-08-10T16:09:02Z</time>
      </trkpt>
      <trkpt lat="44.35699" lon="3.72773">
        <ele>984.1</ele>
        <time>2021-08-10T16:09:04Z</time>
      </trkpt>
      <trkpt lat="44.35697" lon="3.72769">
        <ele>984.6</ele>
        <time>2021-08-10T16:09:06Z</time>
      </trkpt>
      <trkpt lat="44.35695" lon="3.72766">
        <ele>985.5</ele>
        <time>2021-08-10T16:09:08Z</time>
      </trkpt>
      <trkpt lat="44.35692" lon="3.72761">
        <ele>985.7</ele>
        <time>2021-08-10T16:09:10Z</time>
      </trkpt>
      <trkpt lat="44.35691" lon="3.72757">
        <ele>986.2</ele>
        <time>2021-08-10T16:09:12Z</time>
      </trkpt>
      <trkpt lat="44.35688" lon="3.72753">
        <ele>987</ele>
        <time>2021-08-10T16:09:14Z</time>
      </trkpt>
      <trkpt lat="44.35686" lon="3.72748">
        <ele>987.2</ele>
        <time>2021-08-10T16:09:16Z</time>
      </trkpt>
      <trkpt lat="44.35686" lon="3.72742">
        <ele>986.4</ele>
        <time>2021-08-10T16:09:18Z</time>
      </trkpt>
      <trkpt lat="44.35684" lon="3.72738">
        <ele>986.5</ele>
        <time>2021-08-10T16:09:20Z</time>
      </trkpt>
      <trkpt lat="44.35681" lon="3.72734">
        <ele>987.3</ele>
        <time>2021-08-10T16:09:22Z</time>
      </trkpt>
      <trkpt lat="44.35681" lon="3.72729">
        <ele>986.6</ele>
        <time>2021-08-10T16:09:24Z</time>
      </trkpt>
      <trkpt lat="44.35681" lon="3.72725">
        <ele>985.6</ele>
        <time>2021-08-10T16:09:26Z</time>
      </trkpt>
      <trkpt lat="44.35678" lon="3.7272">
        <ele>986.2</ele>
        <time>2021-08-10T16:09:28Z</time>
      </trkpt>
      <trkpt lat="44.35676" lon="3.72715">
        <ele>986.8</ele>
        <time>2021-08-10T16:09:30Z</time>
      </trkpt>
      <trkpt lat="44.35675" lon="3.72711">
        <ele>986.5</ele>
        <time>2021-08-10T16:09:32Z</time>
      </trkpt>
      <trkpt lat="44.35673" lon="3.72706">
        <ele>986.4</ele>
        <time>2021-08-10T16:09:34Z</time>
      </trkpt>
      <trkpt lat="44.35671" lon="3.72701">
        <ele>986.4</ele>
        <time>2021-08-10T16:09:36Z</time>
      </trkpt>
      <trkpt lat="44.3567" lon="3.72696">
        <ele>986.3</ele>
        <time>2021-08-10T16:09:38Z</time>
      </trkpt>
      <trkpt lat="44.35668" lon="3.72691">
        <ele>986.2</ele>
        <time>2021-08-10T16:09:40Z</time>
      </trkpt>
      <trkpt lat="44.35666" lon="3.72686">
        <ele>986.5</ele>
        <time>2021-08-10T16:09:42Z</time>
      </trkpt>
      <trkpt lat="44.35663" lon="3.72682">
        <ele>986.8</ele>
        <time>2021-08-10T16:09:44Z</time>
      </trkpt>
      <trkpt lat="44.35662" lon="3.72676">
        <ele>986.5</ele>
        <time>2021-08-10T16:09:46Z</time>
      </trkpt>
      <trkpt lat="44.3566" lon="3.72672">
        <ele>986.4</ele>
        <time>2021-08-10T16:09:48Z</time>
      </trkpt>
      <trkpt lat="44.35659" lon="3.72666">
        <ele>985.7</ele>
        <time>2021-08-10T16:09:50Z</time>
      </trkpt>
      <trkpt lat="44.35657" lon="3.7266">
        <ele>985.8</ele>
        <time>2021-08-10T16:09:52Z</time>
      </trkpt>
      <trkpt lat="44.35656" lon="3.72655">
        <ele>985.8</ele>
        <time>2021-08-10T16:09:54Z</time>
      </trkpt>
      <trkpt lat="44.35655" lon="3.7265">
        <ele>985.8</ele>
        <time>2021-08-10T16:09:56Z</time>
      </trkpt>
      <trkpt lat="44.35654" lon="3.72644">
        <ele>985.5</ele>
        <time>2021-08-10T16:09:58Z</time>
      </trkpt>
      <trkpt lat="44.35654" lon="3.72639">
        <ele>985.2</ele>
        <time>2021-08-10T16:10:00Z</time>
      </trkpt>
      <trkpt lat="44.35653" lon="3.72633">
        <ele>984.9</ele>
        <time>2021-08-10T16:10:02Z</time>
      </trkpt>
      <trkpt lat="44.35652" lon="3.72628">
        <ele>984.6</ele>
        <time>2021-08-10T16:10:04Z</time>
      </trkpt>
      <trkpt lat="44.35651" lon="3.72622">
        <ele>984.1</ele>
        <time>2021-08-10T16:10:06Z</time>
      </trkpt>
      <trkpt lat="44.35651" lon="3.72616">
        <ele>983.6</ele>
        <time>2021-08-10T16:10:08Z</time>
      </trkpt>
      <trkpt lat="44.35652" lon="3.7261">
        <ele>982.6</ele>
        <time>2021-08-10T16:10:10Z</time>
      </trkpt>
      <trkpt lat="44.35652" lon="3.72605">
        <ele>982</ele>
        <time>2021-08-10T16:10:12Z</time>
      </trkpt>
      <trkpt lat="44.35652" lon="3.726">
        <ele>981.3</ele>
        <time>2021-08-10T16:10:14Z</time>
      </trkpt>
      <trkpt lat="44.35653" lon="3.72594">
        <ele>980.6</ele>
        <time>2021-08-10T16:10:16Z</time>
      </trkpt>
      <trkpt lat="44.35653" lon="3.72589">
        <ele>979.8</ele>
        <time>2021-08-10T16:10:18Z</time>
      </trkpt>
      <trkpt lat="44.35654" lon="3.72583">
        <ele>979</ele>
        <time>2021-08-10T16:10:20Z</time>
      </trkpt>
      <trkpt lat="44.35655" lon="3.72578">
        <ele>977.5</ele>
        <time>2021-08-10T16:10:22Z</time>
      </trkpt>
      <trkpt lat="44.35655" lon="3.72573">
        <ele>976.1</ele>
        <time>2021-08-10T16:10:24Z</time>
      </trkpt>
      <trkpt lat="44.35654" lon="3.72567">
        <ele>974.8</ele>
        <time>2021-08-10T16:10:26Z</time>
      </trkpt>
      <trkpt lat="44.35654" lon="3.72562">
        <ele>973.3</ele>
        <time>2021-08-10T16:10:28Z</time>
      </trkpt>
      <trkpt lat="44.35653" lon="3.72557">
        <ele>972.2</ele>
        <time>2021-08-10T16:10:30Z</time>
      </trkpt>
      <trkpt lat="44.35651" lon="3.72553">
        <ele>971.7</ele>
        <time>2021-08-10T16:10:32Z</time>
      </trkpt>
      <trkpt lat="44.35649" lon="3.7255">
        <ele>971.3</ele>
        <time>2021-08-10T16:10:34Z</time>
      </trkpt>
      <trkpt lat="44.35647" lon="3.72547">
        <ele>970.9</ele>
        <time>2021-08-10T16:10:36Z</time>
      </trkpt>
      <trkpt lat="44.35647" lon="3.72544">
        <ele>970.3</ele>
        <time>2021-08-10T16:10:38Z</time>
      </trkpt>
      <trkpt lat="44.35646" lon="3.72544">
        <ele>970.3</ele>
        <time>2021-08-10T16:10:40Z</time>
      </trkpt>
      <trkpt lat="44.35646" lon="3.72544">
        <ele>970.2</ele>
        <time>2021-08-10T16:10:42Z</time>
      </trkpt>
      <trkpt lat="44.35646" lon="3.72544">
        <ele>970.2</ele>
        <time>2021-08-10T16:10:44Z</time>
      </trkpt>
      <trkpt lat="44.35647" lon="3.72544">
        <ele>970.2</ele>
        <time>2021-08-10T16:10:46Z</time>
      </trkpt>
      <trkpt lat="44.35637" lon="3.7254">
        <ele>971</ele>
        <time>2021-08-10T16:13:46Z</time>
      </trkpt>
      <trkpt lat="44.35634" lon="3.72538">
        <ele>970.9</ele>
        <time>2021-08-10T16:13:48Z</time>
      </trkpt>
      <trkpt lat="44.35631" lon="3.72537">
        <ele>971.2</ele>
        <time>2021-08-10T16:13:50Z</time>
      </trkpt>
      <trkpt lat="44.35627" lon="3.72536">
        <ele>971.4</ele>
        <time>2021-08-10T16:13:52Z</time>
      </trkpt>
      <trkpt lat="44.35624" lon="3.72535">
        <ele>971.6</ele>
        <time>2021-08-10T16:13:54Z</time>
      </trkpt>
      <trkpt lat="44.35621" lon="3.72535">
        <ele>972.3</ele>
        <time>2021-08-10T16:13:56Z</time>
      </trkpt>
      <trkpt lat="44.35618" lon="3.72535">
        <ele>972.7</ele>
        <time>2021-08-10T16:13:58Z</time>
      </trkpt>
      <trkpt lat="44.35614" lon="3.72535">
        <ele>973.3</ele>
        <time>2021-08-10T16:14:00Z</time>
      </trkpt>
      <trkpt lat="44.35611" lon="3.72536">
        <ele>974.3</ele>
        <time>2021-08-10T16:14:02Z</time>
      </trkpt>
      <trkpt lat="44.35608" lon="3.72537">
        <ele>975.1</ele>
        <time>2021-08-10T16:14:04Z</time>
      </trkpt>
      <trkpt lat="44.35604" lon="3.72538">
        <ele>976.1</ele>
        <time>2021-08-10T16:14:06Z</time>
      </trkpt>
      <trkpt lat="44.35601" lon="3.7254">
        <ele>977.1</ele>
        <time>2021-08-10T16:14:08Z</time>
      </trkpt>
      <trkpt lat="44.35597" lon="3.72542">
        <ele>978.5</ele>
        <time>2021-08-10T16:14:10Z</time>
      </trkpt>
      <trkpt lat="44.35594" lon="3.72544">
        <ele>979.8</ele>
        <time>2021-08-10T16:14:12Z</time>
      </trkpt>
      <trkpt lat="44.35591" lon="3.72546">
        <ele>981.1</ele>
        <time>2021-08-10T16:14:14Z</time>
      </trkpt>
      <trkpt lat="44.35587" lon="3.72547">
        <ele>982.3</ele>
        <time>2021-08-10T16:14:16Z</time>
      </trkpt>
      <trkpt lat="44.35584" lon="3.72549">
        <ele>983.6</ele>
        <time>2021-08-10T16:14:18Z</time>
      </trkpt>
      <trkpt lat="44.3558" lon="3.72551">
        <ele>984.7</ele>
        <time>2021-08-10T16:14:20Z</time>
      </trkpt>
      <trkpt lat="44.35577" lon="3.72552">
        <ele>985.5</ele>
        <time>2021-08-10T16:14:22Z</time>
      </trkpt>
      <trkpt lat="44.35573" lon="3.72554">
        <ele>986.7</ele>
        <time>2021-08-10T16:14:24Z</time>
      </trkpt>
      <trkpt lat="44.3557" lon="3.72556">
        <ele>987.7</ele>
        <time>2021-08-10T16:14:26Z</time>
      </trkpt>
      <trkpt lat="44.35567" lon="3.72558">
        <ele>988.7</ele>
        <time>2021-08-10T16:14:28Z</time>
      </trkpt>
      <trkpt lat="44.35563" lon="3.72559">
        <ele>989.6</ele>
        <time>2021-08-10T16:14:30Z</time>
      </trkpt>
      <trkpt lat="44.35559" lon="3.7256">
        <ele>990.4</ele>
        <time>2021-08-10T16:14:32Z</time>
      </trkpt>
      <trkpt lat="44.35556" lon="3.72561">
        <ele>991.2</ele>
        <time>2021-08-10T16:14:34Z</time>
      </trkpt>
      <trkpt lat="44.35552" lon="3.72562">
        <ele>991.8</ele>
        <time>2021-08-10T16:14:36Z</time>
      </trkpt>
      <trkpt lat="44.35549" lon="3.72563">
        <ele>992.4</ele>
        <time>2021-08-10T16:14:38Z</time>
      </trkpt>
      <trkpt lat="44.35545" lon="3.72563">
        <ele>993.1</ele>
        <time>2021-08-10T16:14:40Z</time>
      </trkpt>
      <trkpt lat="44.35542" lon="3.72563">
        <ele>993.5</ele>
        <time>2021-08-10T16:14:42Z</time>
      </trkpt>
      <trkpt lat="44.35539" lon="3.72564">
        <ele>993.9</ele>
        <time>2021-08-10T16:14:44Z</time>
      </trkpt>
      <trkpt lat="44.35535" lon="3.72564">
        <ele>994.6</ele>
        <time>2021-08-10T16:14:46Z</time>
      </trkpt>
      <trkpt lat="44.35532" lon="3.72564">
        <ele>994.7</ele>
        <time>2021-08-10T16:14:48Z</time>
      </trkpt>
      <trkpt lat="44.35529" lon="3.72564">
        <ele>995.2</ele>
        <time>2021-08-10T16:14:50Z</time>
      </trkpt>
      <trkpt lat="44.35525" lon="3.72564">
        <ele>995.8</ele>
        <time>2021-08-10T16:14:52Z</time>
      </trkpt>
      <trkpt lat="44.35522" lon="3.72566">
        <ele>996.8</ele>
        <time>2021-08-10T16:14:54Z</time>
      </trkpt>
      <trkpt lat="44.35519" lon="3.72567">
        <ele>997.5</ele>
        <time>2021-08-10T16:14:56Z</time>
      </trkpt>
      <trkpt lat="44.35514" lon="3.72568">
        <ele>998.3</ele>
        <time>2021-08-10T16:14:58Z</time>
      </trkpt>
      <trkpt lat="44.35511" lon="3.7257">
        <ele>999.1</ele>
        <time>2021-08-10T16:15:00Z</time>
      </trkpt>
      <trkpt lat="44.35508" lon="3.7257">
        <ele>999.7</ele>
        <time>2021-08-10T16:15:02Z</time>
      </trkpt>
      <trkpt lat="44.35505" lon="3.7257">
        <ele>1000</ele>
        <time>2021-08-10T16:15:04Z</time>
      </trkpt>
      <trkpt lat="44.35501" lon="3.72572">
        <ele>1000.9</ele>
        <time>2021-08-10T16:15:06Z</time>
      </trkpt>
      <trkpt lat="44.35497" lon="3.72572">
        <ele>1001.4</ele>
        <time>2021-08-10T16:15:08Z</time>
      </trkpt>
      <trkpt lat="44.35495" lon="3.72573">
        <ele>1001.9</ele>
        <time>2021-08-10T16:15:10Z</time>
      </trkpt>
      <trkpt lat="44.35491" lon="3.72573">
        <ele>1002.4</ele>
        <time>2021-08-10T16:15:12Z</time>
      </trkpt>
      <trkpt lat="44.35491" lon="3.72576">
        <ele>1003.2</ele>
        <time>2021-08-10T16:15:14Z</time>
      </trkpt>
      <trkpt lat="44.35491" lon="3.72576">
        <ele>1003.1</ele>
        <time>2021-08-10T16:15:16Z</time>
      </trkpt>
      <trkpt lat="44.35491" lon="3.72576">
        <ele>1003.3</ele>
        <time>2021-08-10T16:15:18Z</time>
      </trkpt>
      <trkpt lat="44.35491" lon="3.72574">
        <ele>1002.8</ele>
        <time>2021-08-10T16:15:20Z</time>
      </trkpt>
      <trkpt lat="44.35491" lon="3.72574">
        <ele>1002.6</ele>
        <time>2021-08-10T16:15:22Z</time>
      </trkpt>
      <trkpt lat="44.35472" lon="3.72566">
        <ele>1002</ele>
        <time>2021-08-10T16:15:40Z</time>
      </trkpt>
      <trkpt lat="44.35469" lon="3.72565">
        <ele>1002.2</ele>
        <time>2021-08-10T16:15:42Z</time>
      </trkpt>
      <trkpt lat="44.35466" lon="3.72563">
        <ele>1002</ele>
        <time>2021-08-10T16:15:44Z</time>
      </trkpt>
      <trkpt lat="44.35461" lon="3.72562">
        <ele>1002.1</ele>
        <time>2021-08-10T16:15:46Z</time>
      </trkpt>
      <trkpt lat="44.35457" lon="3.7256">
        <ele>1002.1</ele>
        <time>2021-08-10T16:15:48Z</time>
      </trkpt>
      <trkpt lat="44.35454" lon="3.72558">
        <ele>1001.9</ele>
        <time>2021-08-10T16:15:50Z</time>
      </trkpt>
      <trkpt lat="44.3545" lon="3.72555">
        <ele>1001.8</ele>
        <time>2021-08-10T16:15:52Z</time>
      </trkpt>
      <trkpt lat="44.35447" lon="3.72553">
        <ele>1001.6</ele>
        <time>2021-08-10T16:15:54Z</time>
      </trkpt>
      <trkpt lat="44.35443" lon="3.72551">
        <ele>1001.6</ele>
        <time>2021-08-10T16:15:56Z</time>
      </trkpt>
      <trkpt lat="44.3544" lon="3.72549">
        <ele>1001.5</ele>
        <time>2021-08-10T16:15:58Z</time>
      </trkpt>
      <trkpt lat="44.35437" lon="3.72547">
        <ele>1001.6</ele>
        <time>2021-08-10T16:16:00Z</time>
      </trkpt>
      <trkpt lat="44.35433" lon="3.72544">
        <ele>1001.6</ele>
        <time>2021-08-10T16:16:02Z</time>
      </trkpt>
      <trkpt lat="44.3543" lon="3.72542">
        <ele>1001.5</ele>
        <time>2021-08-10T16:16:04Z</time>
      </trkpt>
      <trkpt lat="44.35427" lon="3.72538">
        <ele>1001.3</ele>
        <time>2021-08-10T16:16:06Z</time>
      </trkpt>
      <trkpt lat="44.35425" lon="3.72534">
        <ele>1000.9</ele>
        <time>2021-08-10T16:16:08Z</time>
      </trkpt>
      <trkpt lat="44.35422" lon="3.7253">
        <ele>1000.5</ele>
        <time>2021-08-10T16:16:10Z</time>
      </trkpt>
      <trkpt lat="44.35419" lon="3.72526">
        <ele>1000.2</ele>
        <time>2021-08-10T16:16:12Z</time>
      </trkpt>
      <trkpt lat="44.35417" lon="3.72522">
        <ele>1000</ele>
        <time>2021-08-10T16:16:14Z</time>
      </trkpt>
      <trkpt lat="44.35414" lon="3.72518">
        <ele>999.7</ele>
        <time>2021-08-10T16:16:16Z</time>
      </trkpt>
      <trkpt lat="44.35412" lon="3.72515">
        <ele>999.5</ele>
        <time>2021-08-10T16:16:18Z</time>
      </trkpt>
      <trkpt lat="44.35409" lon="3.72511">
        <ele>999.2</ele>
        <time>2021-08-10T16:16:20Z</time>
      </trkpt>
      <trkpt lat="44.35406" lon="3.72509">
        <ele>999.3</ele>
        <time>2021-08-10T16:16:22Z</time>
      </trkpt>
      <trkpt lat="44.35403" lon="3.72507">
        <ele>999.6</ele>
        <time>2021-08-10T16:16:24Z</time>
      </trkpt>
      <trkpt lat="44.35399" lon="3.72505">
        <ele>1000.1</ele>
        <time>2021-08-10T16:16:26Z</time>
      </trkpt>
      <trkpt lat="44.35395" lon="3.72504">
        <ele>1000.6</ele>
        <time>2021-08-10T16:16:28Z</time>
      </trkpt>
      <trkpt lat="44.35391" lon="3.72503">
        <ele>1001.1</ele>
        <time>2021-08-10T16:16:30Z</time>
      </trkpt>
      <trkpt lat="44.35387" lon="3.72502">
        <ele>1001.6</ele>
        <time>2021-08-10T16:16:32Z</time>
      </trkpt>
      <trkpt lat="44.35384" lon="3.725">
        <ele>1001.9</ele>
        <time>2021-08-10T16:16:34Z</time>
      </trkpt>
      <trkpt lat="44.3538" lon="3.72499">
        <ele>1002.6</ele>
        <time>2021-08-10T16:16:36Z</time>
      </trkpt>
      <trkpt lat="44.35376" lon="3.72497">
        <ele>1003</ele>
        <time>2021-08-10T16:16:38Z</time>
      </trkpt>
      <trkpt lat="44.35373" lon="3.72497">
        <ele>1003.6</ele>
        <time>2021-08-10T16:16:40Z</time>
      </trkpt>
      <trkpt lat="44.35369" lon="3.72496">
        <ele>1004.2</ele>
        <time>2021-08-10T16:16:42Z</time>
      </trkpt>
      <trkpt lat="44.35365" lon="3.72495">
        <ele>1004.8</ele>
        <time>2021-08-10T16:16:44Z</time>
      </trkpt>
      <trkpt lat="44.35362" lon="3.72493">
        <ele>1005.4</ele>
        <time>2021-08-10T16:16:46Z</time>
      </trkpt>
      <trkpt lat="44.35358" lon="3.72492">
        <ele>1006</ele>
        <time>2021-08-10T16:16:48Z</time>
      </trkpt>
      <trkpt lat="44.35354" lon="3.72491">
        <ele>1006.7</ele>
        <time>2021-08-10T16:16:50Z</time>
      </trkpt>
      <trkpt lat="44.35351" lon="3.72489">
        <ele>1007.3</ele>
        <time>2021-08-10T16:16:52Z</time>
      </trkpt>
      <trkpt lat="44.35348" lon="3.72487">
        <ele>1007.7</ele>
        <time>2021-08-10T16:16:54Z</time>
      </trkpt>
      <trkpt lat="44.35345" lon="3.72485">
        <ele>1008.1</ele>
        <time>2021-08-10T16:16:56Z</time>
      </trkpt>
      <trkpt lat="44.35343" lon="3.72481">
        <ele>1008.4</ele>
        <time>2021-08-10T16:16:58Z</time>
      </trkpt>
      <trkpt lat="44.35342" lon="3.72477">
        <ele>1008.4</ele>
        <time>2021-08-10T16:17:00Z</time>
      </trkpt>
      <trkpt lat="44.35341" lon="3.72472">
        <ele>1008.3</ele>
        <time>2021-08-10T16:17:02Z</time>
      </trkpt>
      <trkpt lat="44.3534" lon="3.72467">
        <ele>1008.3</ele>
        <time>2021-08-10T16:17:04Z</time>
      </trkpt>
      <trkpt lat="44.35339" lon="3.72462">
        <ele>1008.2</ele>
        <time>2021-08-10T16:17:06Z</time>
      </trkpt>
      <trkpt lat="44.35339" lon="3.72457">
        <ele>1008.1</ele>
        <time>2021-08-10T16:17:08Z</time>
      </trkpt>
      <trkpt lat="44.35338" lon="3.72452">
        <ele>1008</ele>
        <time>2021-08-10T16:17:10Z</time>
      </trkpt>
      <trkpt lat="44.35339" lon="3.72447">
        <ele>1007.7</ele>
        <time>2021-08-10T16:17:12Z</time>
      </trkpt>
      <trkpt lat="44.35339" lon="3.72442">
        <ele>1007.5</ele>
        <time>2021-08-10T16:17:14Z</time>
      </trkpt>
      <trkpt lat="44.3534" lon="3.72437">
        <ele>1007</ele>
        <time>2021-08-10T16:17:16Z</time>
      </trkpt>
      <trkpt lat="44.3534" lon="3.72432">
        <ele>1006.7</ele>
        <time>2021-08-10T16:17:18Z</time>
      </trkpt>
      <trkpt lat="44.35341" lon="3.72427">
        <ele>1006.3</ele>
        <time>2021-08-10T16:17:20Z</time>
      </trkpt>
      <trkpt lat="44.35341" lon="3.72422">
        <ele>1005.8</ele>
        <time>2021-08-10T16:17:22Z</time>
      </trkpt>
      <trkpt lat="44.35342" lon="3.72417">
        <ele>1005.4</ele>
        <time>2021-08-10T16:17:24Z</time>
      </trkpt>
      <trkpt lat="44.35342" lon="3.72412">
        <ele>1005.3</ele>
        <time>2021-08-10T16:17:26Z</time>
      </trkpt>
      <trkpt lat="44.35343" lon="3.72407">
        <ele>1005.1</ele>
        <time>2021-08-10T16:17:28Z</time>
      </trkpt>
      <trkpt lat="44.35343" lon="3.72402">
        <ele>1005.1</ele>
        <time>2021-08-10T16:17:30Z</time>
      </trkpt>
      <trkpt lat="44.35344" lon="3.72397">
        <ele>1004.9</ele>
        <time>2021-08-10T16:17:32Z</time>
      </trkpt>
      <trkpt lat="44.35344" lon="3.72391">
        <ele>1005</ele>
        <time>2021-08-10T16:17:34Z</time>
      </trkpt>
      <trkpt lat="44.35343" lon="3.72386">
        <ele>1005.1</ele>
        <time>2021-08-10T16:17:36Z</time>
      </trkpt>
      <trkpt lat="44.35342" lon="3.72381">
        <ele>1005.4</ele>
        <time>2021-08-10T16:17:38Z</time>
      </trkpt>
      <trkpt lat="44.35342" lon="3.72377">
        <ele>1005.6</ele>
        <time>2021-08-10T16:17:40Z</time>
      </trkpt>
      <trkpt lat="44.3534" lon="3.72372">
        <ele>1006</ele>
        <time>2021-08-10T16:17:42Z</time>
      </trkpt>
      <trkpt lat="44.35339" lon="3.72368">
        <ele>1006.4</ele>
        <time>2021-08-10T16:17:44Z</time>
      </trkpt>
      <trkpt lat="44.35338" lon="3.72363">
        <ele>1007.1</ele>
        <time>2021-08-10T16:17:46Z</time>
      </trkpt>
      <trkpt lat="44.35336" lon="3.72359">
        <ele>1007.5</ele>
        <time>2021-08-10T16:17:48Z</time>
      </trkpt>
      <trkpt lat="44.35335" lon="3.72355">
        <ele>1008.1</ele>
        <time>2021-08-10T16:17:50Z</time>
      </trkpt>
      <trkpt lat="44.35333" lon="3.7235">
        <ele>1008.8</ele>
        <time>2021-08-10T16:17:52Z</time>
      </trkpt>
      <trkpt lat="44.35332" lon="3.72346">
        <ele>1009.3</ele>
        <time>2021-08-10T16:17:54Z</time>
      </trkpt>
      <trkpt lat="44.3533" lon="3.72341">
        <ele>1009.7</ele>
        <time>2021-08-10T16:17:56Z</time>
      </trkpt>
      <trkpt lat="44.35329" lon="3.72336">
        <ele>1010</ele>
        <time>2021-08-10T16:17:58Z</time>
      </trkpt>
      <trkpt lat="44.35328" lon="3.72331">
        <ele>1010.3</ele>
        <time>2021-08-10T16:18:00Z</time>
      </trkpt>
      <trkpt lat="44.35327" lon="3.72326">
        <ele>1010.4</ele>
        <time>2021-08-10T16:18:02Z</time>
      </trkpt>
      <trkpt lat="44.35326" lon="3.72322">
        <ele>1010.5</ele>
        <time>2021-08-10T16:18:04Z</time>
      </trkpt>
      <trkpt lat="44.35325" lon="3.72317">
        <ele>1010.4</ele>
        <time>2021-08-10T16:18:06Z</time>
      </trkpt>
      <trkpt lat="44.35325" lon="3.72312">
        <ele>1010.3</ele>
        <time>2021-08-10T16:18:08Z</time>
      </trkpt>
      <trkpt lat="44.35325" lon="3.72307">
        <ele>1010.2</ele>
        <time>2021-08-10T16:18:10Z</time>
      </trkpt>
      <trkpt lat="44.35325" lon="3.72301">
        <ele>1010</ele>
        <time>2021-08-10T16:18:12Z</time>
      </trkpt>
      <trkpt lat="44.35326" lon="3.72296">
        <ele>1009.7</ele>
        <time>2021-08-10T16:18:14Z</time>
      </trkpt>
      <trkpt lat="44.35326" lon="3.72291">
        <ele>1009.4</ele>
        <time>2021-08-10T16:18:16Z</time>
      </trkpt>
      <trkpt lat="44.35327" lon="3.72286">
        <ele>1009.1</ele>
        <time>2021-08-10T16:18:18Z</time>
      </trkpt>
      <trkpt lat="44.35327" lon="3.72281">
        <ele>1008.8</ele>
        <time>2021-08-10T16:18:20Z</time>
      </trkpt>
      <trkpt lat="44.35328" lon="3.72276">
        <ele>1008.6</ele>
        <time>2021-08-10T16:18:22Z</time>
      </trkpt>
      <trkpt lat="44.35329" lon="3.72271">
        <ele>1008.3</ele>
        <time>2021-08-10T16:18:24Z</time>
      </trkpt>
      <trkpt lat="44.35329" lon="3.72266">
        <ele>1008</ele>
        <time>2021-08-10T16:18:26Z</time>
      </trkpt>
      <trkpt lat="44.35329" lon="3.72261">
        <ele>1007.9</ele>
        <time>2021-08-10T16:18:28Z</time>
      </trkpt>
      <trkpt lat="44.35329" lon="3.72257">
        <ele>1007.8</ele>
        <time>2021-08-10T16:18:30Z</time>
      </trkpt>
      <trkpt lat="44.35328" lon="3.72252">
        <ele>1007.8</ele>
        <time>2021-08-10T16:18:32Z</time>
      </trkpt>
      <trkpt lat="44.35326" lon="3.72248">
        <ele>1007.7</ele>
        <time>2021-08-10T16:18:34Z</time>
      </trkpt>
      <trkpt lat="44.35324" lon="3.72245">
        <ele>1007.4</ele>
        <time>2021-08-10T16:18:36Z</time>
      </trkpt>
      <trkpt lat="44.35322" lon="3.72242">
        <ele>1007.3</ele>
        <time>2021-08-10T16:18:38Z</time>
      </trkpt>
      <trkpt lat="44.35319" lon="3.72239">
        <ele>1007.2</ele>
        <time>2021-08-10T16:18:40Z</time>
      </trkpt>
      <trkpt lat="44.35316" lon="3.72236">
        <ele>1007.1</ele>
        <time>2021-08-10T16:18:42Z</time>
      </trkpt>
      <trkpt lat="44.35313" lon="3.72234">
        <ele>1007.1</ele>
        <time>2021-08-10T16:18:44Z</time>
      </trkpt>
      <trkpt lat="44.3531" lon="3.72231">
        <ele>1007</ele>
        <time>2021-08-10T16:18:46Z</time>
      </trkpt>
      <trkpt lat="44.35308" lon="3.72228">
        <ele>1006.7</ele>
        <time>2021-08-10T16:18:48Z</time>
      </trkpt>
      <trkpt lat="44.35306" lon="3.72224">
        <ele>1006.3</ele>
        <time>2021-08-10T16:18:50Z</time>
      </trkpt>
      <trkpt lat="44.35304" lon="3.72221">
        <ele>1006</ele>
        <time>2021-08-10T16:18:52Z</time>
      </trkpt>
      <trkpt lat="44.35302" lon="3.72217">
        <ele>1005.4</ele>
        <time>2021-08-10T16:18:54Z</time>
      </trkpt>
      <trkpt lat="44.35302" lon="3.72212">
        <ele>1004.7</ele>
        <time>2021-08-10T16:18:56Z</time>
      </trkpt>
      <trkpt lat="44.353" lon="3.72209">
        <ele>1004.2</ele>
        <time>2021-08-10T16:18:58Z</time>
      </trkpt>
      <trkpt lat="44.35298" lon="3.72206">
        <ele>1004</ele>
        <time>2021-08-10T16:19:00Z</time>
      </trkpt>
      <trkpt lat="44.35295" lon="3.72204">
        <ele>1003.9</ele>
        <time>2021-08-10T16:19:02Z</time>
      </trkpt>
      <trkpt lat="44.35293" lon="3.72203">
        <ele>1004</ele>
        <time>2021-08-10T16:19:04Z</time>
      </trkpt>
      <trkpt lat="44.3529" lon="3.72204">
        <ele>1004.4</ele>
        <time>2021-08-10T16:19:06Z</time>
      </trkpt>
      <trkpt lat="44.35288" lon="3.72206">
        <ele>1004.9</ele>
        <time>2021-08-10T16:19:08Z</time>
      </trkpt>
      <trkpt lat="44.35287" lon="3.72206">
        <ele>1004.9</ele>
        <time>2021-08-10T16:19:10Z</time>
      </trkpt>
      <trkpt lat="44.35288" lon="3.72206">
        <ele>1004.9</ele>
        <time>2021-08-10T16:19:12Z</time>
      </trkpt>
      <trkpt lat="44.35286" lon="3.72206">
        <ele>1005.2</ele>
        <time>2021-08-10T16:19:14Z</time>
      </trkpt>
      <trkpt lat="44.35285" lon="3.72206">
        <ele>1005.3</ele>
        <time>2021-08-10T16:19:16Z</time>
      </trkpt>
      <trkpt lat="44.35285" lon="3.72206">
        <ele>1005.2</ele>
        <time>2021-08-10T16:19:18Z</time>
      </trkpt>
      <trkpt lat="44.35278" lon="3.72219">
        <ele>1008.4</ele>
        <time>2021-08-10T16:19:58Z</time>
      </trkpt>
      <trkpt lat="44.35276" lon="3.72223">
        <ele>1009.2</ele>
        <time>2021-08-10T16:20:00Z</time>
      </trkpt>
      <trkpt lat="44.35275" lon="3.72226">
        <ele>1010.1</ele>
        <time>2021-08-10T16:20:02Z</time>
      </trkpt>
      <trkpt lat="44.35274" lon="3.72231">
        <ele>1011</ele>
        <time>2021-08-10T16:20:04Z</time>
      </trkpt>
      <trkpt lat="44.35273" lon="3.72234">
        <ele>1011.9</ele>
        <time>2021-08-10T16:20:06Z</time>
      </trkpt>
      <trkpt lat="44.35272" lon="3.72239">
        <ele>1012.8</ele>
        <time>2021-08-10T16:20:08Z</time>
      </trkpt>
      <trkpt lat="44.35271" lon="3.72242">
        <ele>1013.7</ele>
        <time>2021-08-10T16:20:10Z</time>
      </trkpt>
      <trkpt lat="44.35271" lon="3.72247">
        <ele>1014.6</ele>
        <time>2021-08-10T16:20:12Z</time>
      </trkpt>
      <trkpt lat="44.3527" lon="3.72251">
        <ele>1015.5</ele>
        <time>2021-08-10T16:20:14Z</time>
      </trkpt>
      <trkpt lat="44.3527" lon="3.72255">
        <ele>1016</ele>
        <time>2021-08-10T16:20:16Z</time>
      </trkpt>
      <trkpt lat="44.35269" lon="3.72259">
        <ele>1016.6</ele>
        <time>2021-08-10T16:20:18Z</time>
      </trkpt>
      <trkpt lat="44.35269" lon="3.72264">
        <ele>1017.2</ele>
        <time>2021-08-10T16:20:20Z</time>
      </trkpt>
      <trkpt lat="44.35268" lon="3.72268">
        <ele>1017.8</ele>
        <time>2021-08-10T16:20:22Z</time>
      </trkpt>
      <trkpt lat="44.35267" lon="3.72272">
        <ele>1018.5</ele>
        <time>2021-08-10T16:20:24Z</time>
      </trkpt>
      <trkpt lat="44.35267" lon="3.72271">
        <ele>1018.3</ele>
        <time>2021-08-10T16:20:26Z</time>
      </trkpt>
      <trkpt lat="44.35267" lon="3.72271">
        <ele>1018.3</ele>
        <time>2021-08-10T16:20:28Z</time>
      </trkpt>
      <trkpt lat="44.35267" lon="3.72271">
        <ele>1018.3</ele>
        <time>2021-08-10T16:20:30Z</time>
      </trkpt>
      <trkpt lat="44.35267" lon="3.72271">
        <ele>1018.3</ele>
        <time>2021-08-10T16:20:32Z</time>
      </trkpt>
      <trkpt lat="44.35267" lon="3.72272">
        <ele>1018.3</ele>
        <time>2021-08-10T16:20:34Z</time>
      </trkpt>
      <trkpt lat="44.35261" lon="3.72285">
        <ele>1021</ele>
        <time>2021-08-10T16:21:52Z</time>
      </trkpt>
      <trkpt lat="44.35259" lon="3.72288">
        <ele>1021.8</ele>
        <time>2021-08-10T16:21:54Z</time>
      </trkpt>
      <trkpt lat="44.35257" lon="3.72292">
        <ele>1022.7</ele>
        <time>2021-08-10T16:21:56Z</time>
      </trkpt>
      <trkpt lat="44.35254" lon="3.72294">
        <ele>1023.6</ele>
        <time>2021-08-10T16:21:58Z</time>
      </trkpt>
      <trkpt lat="44.35251" lon="3.72297">
        <ele>1024.6</ele>
        <time>2021-08-10T16:22:00Z</time>
      </trkpt>
      <trkpt lat="44.35248" lon="3.72299">
        <ele>1024.8</ele>
        <time>2021-08-10T16:22:02Z</time>
      </trkpt>
      <trkpt lat="44.35244" lon="3.72301">
        <ele>1024.5</ele>
        <time>2021-08-10T16:22:04Z</time>
      </trkpt>
      <trkpt lat="44.35241" lon="3.72303">
        <ele>1024.4</ele>
        <time>2021-08-10T16:22:06Z</time>
      </trkpt>
      <trkpt lat="44.35239" lon="3.72305">
        <ele>1024.3</ele>
        <time>2021-08-10T16:22:08Z</time>
      </trkpt>
      <trkpt lat="44.35236" lon="3.72308">
        <ele>1024.4</ele>
        <time>2021-08-10T16:22:10Z</time>
      </trkpt>
      <trkpt lat="44.35233" lon="3.72311">
        <ele>1024.4</ele>
        <time>2021-08-10T16:22:12Z</time>
      </trkpt>
      <trkpt lat="44.35231" lon="3.72314">
        <ele>1024.6</ele>
        <time>2021-08-10T16:22:14Z</time>
      </trkpt>
      <trkpt lat="44.35228" lon="3.72317">
        <ele>1024.7</ele>
        <time>2021-08-10T16:22:16Z</time>
      </trkpt>
      <trkpt lat="44.35226" lon="3.7232">
        <ele>1025</ele>
        <time>2021-08-10T16:22:18Z</time>
      </trkpt>
      <trkpt lat="44.35225" lon="3.72323">
        <ele>1025.3</ele>
        <time>2021-08-10T16:22:20Z</time>
      </trkpt>
      <trkpt lat="44.35224" lon="3.72324">
        <ele>1025.4</ele>
        <time>2021-08-10T16:22:22Z</time>
      </trkpt>
      <trkpt lat="44.35224" lon="3.72324">
        <ele>1025.3</ele>
        <time>2021-08-10T16:22:24Z</time>
      </trkpt>
      <trkpt lat="44.35224" lon="3.72324">
        <ele>1025.3</ele>
        <time>2021-08-10T16:22:26Z</time>
      </trkpt>
      <trkpt lat="44.35224" lon="3.72324">
        <ele>1025.4</ele>
        <time>2021-08-10T16:22:28Z</time>
      </trkpt>
      <trkpt lat="44.35224" lon="3.72324">
        <ele>1025.4</ele>
        <time>2021-08-10T16:22:30Z</time>
      </trkpt>
      <trkpt lat="44.35219" lon="3.72336">
        <ele>1026.5</ele>
        <time>2021-08-10T16:23:16Z</time>
      </trkpt>
      <trkpt lat="44.35218" lon="3.7234">
        <ele>1026.6</ele>
        <time>2021-08-10T16:23:18Z</time>
      </trkpt>
      <trkpt lat="44.35216" lon="3.72344">
        <ele>1026.8</ele>
        <time>2021-08-10T16:23:20Z</time>
      </trkpt>
      <trkpt lat="44.35215" lon="3.72348">
        <ele>1027</ele>
        <time>2021-08-10T16:23:22Z</time>
      </trkpt>
      <trkpt lat="44.35213" lon="3.72352">
        <ele>1027.1</ele>
        <time>2021-08-10T16:23:24Z</time>
      </trkpt>
      <trkpt lat="44.3521" lon="3.72355">
        <ele>1027.2</ele>
        <time>2021-08-10T16:23:26Z</time>
      </trkpt>
      <trkpt lat="44.35208" lon="3.72358">
        <ele>1027.3</ele>
        <time>2021-08-10T16:23:28Z</time>
      </trkpt>
      <trkpt lat="44.35205" lon="3.72361">
        <ele>1027.4</ele>
        <time>2021-08-10T16:23:30Z</time>
      </trkpt>
      <trkpt lat="44.35203" lon="3.72364">
        <ele>1027.7</ele>
        <time>2021-08-10T16:23:32Z</time>
      </trkpt>
      <trkpt lat="44.352" lon="3.72366">
        <ele>1027.8</ele>
        <time>2021-08-10T16:23:34Z</time>
      </trkpt>
      <trkpt lat="44.35198" lon="3.72369">
        <ele>1028.1</ele>
        <time>2021-08-10T16:23:36Z</time>
      </trkpt>
      <trkpt lat="44.35195" lon="3.72373">
        <ele>1028.4</ele>
        <time>2021-08-10T16:23:38Z</time>
      </trkpt>
      <trkpt lat="44.35193" lon="3.72377">
        <ele>1028.9</ele>
        <time>2021-08-10T16:23:40Z</time>
      </trkpt>
      <trkpt lat="44.35191" lon="3.7238">
        <ele>1029.3</ele>
        <time>2021-08-10T16:23:42Z</time>
      </trkpt>
      <trkpt lat="44.35189" lon="3.72383">
        <ele>1029.7</ele>
        <time>2021-08-10T16:23:44Z</time>
      </trkpt>
      <trkpt lat="44.35187" lon="3.72387">
        <ele>1030.2</ele>
        <time>2021-08-10T16:23:46Z</time>
      </trkpt>
      <trkpt lat="44.35184" lon="3.7239">
        <ele>1030.7</ele>
        <time>2021-08-10T16:23:48Z</time>
      </trkpt>
      <trkpt lat="44.35182" lon="3.72393">
        <ele>1031.2</ele>
        <time>2021-08-10T16:23:50Z</time>
      </trkpt>
      <trkpt lat="44.35179" lon="3.72395">
        <ele>1031.7</ele>
        <time>2021-08-10T16:23:52Z</time>
      </trkpt>
      <trkpt lat="44.35176" lon="3.72398">
        <ele>1032.2</ele>
        <time>2021-08-10T16:23:54Z</time>
      </trkpt>
      <trkpt lat="44.35173" lon="3.72401">
        <ele>1032.7</ele>
        <time>2021-08-10T16:23:56Z</time>
      </trkpt>
      <trkpt lat="44.35171" lon="3.72403">
        <ele>1033.3</ele>
        <time>2021-08-10T16:23:58Z</time>
      </trkpt>
      <trkpt lat="44.35168" lon="3.72406">
        <ele>1034</ele>
        <time>2021-08-10T16:24:00Z</time>
      </trkpt>
      <trkpt lat="44.35165" lon="3.7241">
        <ele>1034.5</ele>
        <time>2021-08-10T16:24:02Z</time>
      </trkpt>
      <trkpt lat="44.35162" lon="3.72413">
        <ele>1034.9</ele>
        <time>2021-08-10T16:24:04Z</time>
      </trkpt>
      <trkpt lat="44.3516" lon="3.72416">
        <ele>1035.2</ele>
        <time>2021-08-10T16:24:06Z</time>
      </trkpt>
      <trkpt lat="44.35158" lon="3.72419">
        <ele>1035.2</ele>
        <time>2021-08-10T16:24:08Z</time>
      </trkpt>
      <trkpt lat="44.35156" lon="3.72423">
        <ele>1035.2</ele>
        <time>2021-08-10T16:24:10Z</time>
      </trkpt>
      <trkpt lat="44.35154" lon="3.72426">
        <ele>1035.2</ele>
        <time>2021-08-10T16:24:12Z</time>
      </trkpt>
      <trkpt lat="44.35151" lon="3.7243">
        <ele>1035.3</ele>
        <time>2021-08-10T16:24:14Z</time>
      </trkpt>
      <trkpt lat="44.35149" lon="3.72433">
        <ele>1035.3</ele>
        <time>2021-08-10T16:24:16Z</time>
      </trkpt>
      <trkpt lat="44.35147" lon="3.72437">
        <ele>1035.4</ele>
        <time>2021-08-10T16:24:18Z</time>
      </trkpt>
      <trkpt lat="44.35145" lon="3.7244">
        <ele>1035.5</ele>
        <time>2021-08-10T16:24:20Z</time>
      </trkpt>
      <trkpt lat="44.35143" lon="3.72444">
        <ele>1035.7</ele>
        <time>2021-08-10T16:24:22Z</time>
      </trkpt>
      <trkpt lat="44.3514" lon="3.72448">
        <ele>1035.9</ele>
        <time>2021-08-10T16:24:24Z</time>
      </trkpt>
      <trkpt lat="44.35138" lon="3.72453">
        <ele>1036.1</ele>
        <time>2021-08-10T16:24:26Z</time>
      </trkpt>
      <trkpt lat="44.35136" lon="3.72457">
        <ele>1036.4</ele>
        <time>2021-08-10T16:24:28Z</time>
      </trkpt>
      <trkpt lat="44.35133" lon="3.7246">
        <ele>1036.6</ele>
        <time>2021-08-10T16:24:30Z</time>
      </trkpt>
      <trkpt lat="44.35131" lon="3.72464">
        <ele>1036.8</ele>
        <time>2021-08-10T16:24:32Z</time>
      </trkpt>
      <trkpt lat="44.35129" lon="3.72467">
        <ele>1037.1</ele>
        <time>2021-08-10T16:24:34Z</time>
      </trkpt>
      <trkpt lat="44.35127" lon="3.72471">
        <ele>1037.4</ele>
        <time>2021-08-10T16:24:36Z</time>
      </trkpt>
      <trkpt lat="44.35124" lon="3.72474">
        <ele>1037.7</ele>
        <time>2021-08-10T16:24:38Z</time>
      </trkpt>
      <trkpt lat="44.35122" lon="3.72478">
        <ele>1038.1</ele>
        <time>2021-08-10T16:24:40Z</time>
      </trkpt>
      <trkpt lat="44.3512" lon="3.72481">
        <ele>1038.4</ele>
        <time>2021-08-10T16:24:42Z</time>
      </trkpt>
      <trkpt lat="44.35118" lon="3.72484">
        <ele>1038.7</ele>
        <time>2021-08-10T16:24:44Z</time>
      </trkpt>
      <trkpt lat="44.35116" lon="3.72488">
        <ele>1039.1</ele>
        <time>2021-08-10T16:24:46Z</time>
      </trkpt>
      <trkpt lat="44.35114" lon="3.72491">
        <ele>1039.5</ele>
        <time>2021-08-10T16:24:48Z</time>
      </trkpt>
      <trkpt lat="44.35111" lon="3.72493">
        <ele>1039.8</ele>
        <time>2021-08-10T16:24:50Z</time>
      </trkpt>
      <trkpt lat="44.35109" lon="3.72496">
        <ele>1040.1</ele>
        <time>2021-08-10T16:24:52Z</time>
      </trkpt>
      <trkpt lat="44.35106" lon="3.72499">
        <ele>1040.5</ele>
        <time>2021-08-10T16:24:54Z</time>
      </trkpt>
      <trkpt lat="44.35104" lon="3.72502">
        <ele>1040.8</ele>
        <time>2021-08-10T16:24:56Z</time>
      </trkpt>
      <trkpt lat="44.35101" lon="3.72505">
        <ele>1040.9</ele>
        <time>2021-08-10T16:24:58Z</time>
      </trkpt>
      <trkpt lat="44.35098" lon="3.72508">
        <ele>1041</ele>
        <time>2021-08-10T16:25:00Z</time>
      </trkpt>
      <trkpt lat="44.35094" lon="3.72512">
        <ele>1041.2</ele>
        <time>2021-08-10T16:25:02Z</time>
      </trkpt>
      <trkpt lat="44.35091" lon="3.72515">
        <ele>1041.4</ele>
        <time>2021-08-10T16:25:04Z</time>
      </trkpt>
      <trkpt lat="44.35087" lon="3.72518">
        <ele>1041.6</ele>
        <time>2021-08-10T16:25:06Z</time>
      </trkpt>
      <trkpt lat="44.35084" lon="3.72522">
        <ele>1041.8</ele>
        <time>2021-08-10T16:25:08Z</time>
      </trkpt>
      <trkpt lat="44.35079" lon="3.72526">
        <ele>1041.6</ele>
        <time>2021-08-10T16:25:10Z</time>
      </trkpt>
      <trkpt lat="44.35075" lon="3.7253">
        <ele>1041.5</ele>
        <time>2021-08-10T16:25:12Z</time>
      </trkpt>
      <trkpt lat="44.3507" lon="3.72534">
        <ele>1041.4</ele>
        <time>2021-08-10T16:25:14Z</time>
      </trkpt>
      <trkpt lat="44.35066" lon="3.72538">
        <ele>1041.4</ele>
        <time>2021-08-10T16:25:16Z</time>
      </trkpt>
      <trkpt lat="44.35062" lon="3.72543">
        <ele>1041.4</ele>
        <time>2021-08-10T16:25:18Z</time>
      </trkpt>
      <trkpt lat="44.35059" lon="3.72548">
        <ele>1041.6</ele>
        <time>2021-08-10T16:25:20Z</time>
      </trkpt>
      <trkpt lat="44.35055" lon="3.72553">
        <ele>1041.7</ele>
        <time>2021-08-10T16:25:22Z</time>
      </trkpt>
      <trkpt lat="44.35052" lon="3.72556">
        <ele>1041.8</ele>
        <time>2021-08-10T16:25:24Z</time>
      </trkpt>
      <trkpt lat="44.35049" lon="3.72559">
        <ele>1041.9</ele>
        <time>2021-08-10T16:25:26Z</time>
      </trkpt>
      <trkpt lat="44.35046" lon="3.72563">
        <ele>1042</ele>
        <time>2021-08-10T16:25:28Z</time>
      </trkpt>
      <trkpt lat="44.35043" lon="3.72566">
        <ele>1042.2</ele>
        <time>2021-08-10T16:25:30Z</time>
      </trkpt>
      <trkpt lat="44.3504" lon="3.72569">
        <ele>1042.3</ele>
        <time>2021-08-10T16:25:32Z</time>
      </trkpt>
      <trkpt lat="44.35037" lon="3.72573">
        <ele>1042.6</ele>
        <time>2021-08-10T16:25:34Z</time>
      </trkpt>
      <trkpt lat="44.35035" lon="3.72576">
        <ele>1042.8</ele>
        <time>2021-08-10T16:25:36Z</time>
      </trkpt>
      <trkpt lat="44.35032" lon="3.72579">
        <ele>1043</ele>
        <time>2021-08-10T16:25:38Z</time>
      </trkpt>
      <trkpt lat="44.35029" lon="3.72582">
        <ele>1043.2</ele>
        <time>2021-08-10T16:25:40Z</time>
      </trkpt>
      <trkpt lat="44.35027" lon="3.72585">
        <ele>1043.4</ele>
        <time>2021-08-10T16:25:42Z</time>
      </trkpt>
      <trkpt lat="44.35025" lon="3.72587">
        <ele>1043.4</ele>
        <time>2021-08-10T16:25:44Z</time>
      </trkpt>
      <trkpt lat="44.35022" lon="3.7259">
        <ele>1043.5</ele>
        <time>2021-08-10T16:25:46Z</time>
      </trkpt>
      <trkpt lat="44.3502" lon="3.72592">
        <ele>1043.6</ele>
        <time>2021-08-10T16:25:48Z</time>
      </trkpt>
      <trkpt lat="44.35018" lon="3.72595">
        <ele>1043.7</ele>
        <time>2021-08-10T16:25:50Z</time>
      </trkpt>
      <trkpt lat="44.35016" lon="3.72597">
        <ele>1043.7</ele>
        <time>2021-08-10T16:25:52Z</time>
      </trkpt>
      <trkpt lat="44.35014" lon="3.726">
        <ele>1043.8</ele>
        <time>2021-08-10T16:25:54Z</time>
      </trkpt>
      <trkpt lat="44.35012" lon="3.72603">
        <ele>1043.9</ele>
        <time>2021-08-10T16:25:56Z</time>
      </trkpt>
      <trkpt lat="44.35012" lon="3.72606">
        <ele>1043.9</ele>
        <time>2021-08-10T16:25:58Z</time>
      </trkpt>
      <trkpt lat="44.35014" lon="3.72607">
        <ele>1044</ele>
        <time>2021-08-10T16:26:00Z</time>
      </trkpt>
      <trkpt lat="44.35015" lon="3.72605">
        <ele>1044</ele>
        <time>2021-08-10T16:26:02Z</time>
      </trkpt>
      <trkpt lat="44.35016" lon="3.72602">
        <ele>1043.9</ele>
        <time>2021-08-10T16:26:04Z</time>
      </trkpt>
      <trkpt lat="44.35015" lon="3.72602">
        <ele>1043.9</ele>
        <time>2021-08-10T16:26:06Z</time>
      </trkpt>
      <trkpt lat="44.35016" lon="3.72602">
        <ele>1043.9</ele>
        <time>2021-08-10T16:26:08Z</time>
      </trkpt>
      <trkpt lat="44.35016" lon="3.72602">
        <ele>1043.9</ele>
        <time>2021-08-10T16:26:10Z</time>
      </trkpt>
      <trkpt lat="44.35016" lon="3.72602">
        <ele>1043.9</ele>
        <time>2021-08-10T16:26:12Z</time>
      </trkpt>
      <trkpt lat="44.35009" lon="3.72624">
        <ele>1044.6</ele>
        <time>2021-08-10T16:38:18Z</time>
      </trkpt>
      <trkpt lat="44.35009" lon="3.72624">
        <ele>1044.6</ele>
        <time>2021-08-10T16:38:22Z</time>
      </trkpt>
      <trkpt lat="44.35009" lon="3.72624">
        <ele>1044.6</ele>
        <time>2021-08-10T16:38:26Z</time>
      </trkpt>
      <trkpt lat="44.35009" lon="3.72624">
        <ele>1044.6</ele>
        <time>2021-08-10T16:38:30Z</time>
      </trkpt>
      <trkpt lat="44.35009" lon="3.72624">
        <ele>1044.6</ele>
        <time>2021-08-10T16:38:34Z</time>
      </trkpt>
      <trkpt lat="44.35009" lon="3.72624">
        <ele>1044.6</ele>
        <time>2021-08-10T16:38:36Z</time>
      </trkpt>
      <trkpt lat="44.3501" lon="3.72624">
        <ele>1044.6</ele>
        <time>2021-08-10T16:38:38Z</time>
      </trkpt>
      <trkpt lat="44.35009" lon="3.72624">
        <ele>1044.6</ele>
        <time>2021-08-10T16:38:40Z</time>
      </trkpt>
      <trkpt lat="44.35009" lon="3.72624">
        <ele>1044.6</ele>
        <time>2021-08-10T16:38:42Z</time>
      </trkpt>
      <trkpt lat="44.35009" lon="3.72624">
        <ele>1044.6</ele>
        <time>2021-08-10T16:38:44Z</time>
      </trkpt>
    </trkseg>
      <trkpt lat="44.35007" lon="3.72633">
        <ele>1044.9</ele>
        <time>2021-08-11T06:56:10Z</time>
      </trkpt>
      <trkpt lat="44.3501" lon="3.72632">
        <ele>1044.9</ele>
        <time>2021-08-11T06:56:12Z</time>
      </trkpt>
      <trkpt lat="44.35012" lon="3.72629">
        <ele>1044.8</ele>
        <time>2021-08-11T06:56:14Z</time>
      </trkpt>
      <trkpt lat="44.35013" lon="3.72626">
        <ele>1044.7</ele>
        <time>2021-08-11T06:56:16Z</time>
      </trkpt>
      <trkpt lat="44.35014" lon="3.72622">
        <ele>1044.6</ele>
        <time>2021-08-11T06:56:18Z</time>
      </trkpt>
      <trkpt lat="44.35014" lon="3.72618">
        <ele>1044.4</ele>
        <time>2021-08-11T06:56:20Z</time>
      </trkpt>
      <trkpt lat="44.35015" lon="3.72613">
        <ele>1044.3</ele>
        <time>2021-08-11T06:56:22Z</time>
      </trkpt>
      <trkpt lat="44.35017" lon="3.72609">
        <ele>1044.1</ele>
        <time>2021-08-11T06:56:24Z</time>
      </trkpt>
      <trkpt lat="44.3502" lon="3.7261">
        <ele>1044.2</ele>
        <time>2021-08-11T06:56:26Z</time>
      </trkpt>
      <trkpt lat="44.3502" lon="3.72612">
        <ele>1044.3</ele>
        <time>2021-08-11T06:56:28Z</time>
      </trkpt>
      <trkpt lat="44.35021" lon="3.72614">
        <ele>1044.4</ele>
        <time>2021-08-11T06:56:30Z</time>
      </trkpt>
      <trkpt lat="44.35021" lon="3.72617">
        <ele>1044.5</ele>
        <time>2021-08-11T06:56:32Z</time>
      </trkpt>
      <trkpt lat="44.35019" lon="3.72616">
        <ele>1044.4</ele>
        <time>2021-08-11T06:56:34Z</time>
      </trkpt>
      <trkpt lat="44.35018" lon="3.72615">
        <ele>1044.4</ele>
        <time>2021-08-11T06:56:36Z</time>
      </trkpt>
      <trkpt lat="44.35018" lon="3.72616">
        <ele>1044.4</ele>
        <time>2021-08-11T06:56:38Z</time>
      </trkpt>
      <trkpt lat="44.35023" lon="3.72614">
        <ele>1044.4</ele>
        <time>2021-08-11T06:58:16Z</time>
      </trkpt>
      <trkpt lat="44.35025" lon="3.72617">
        <ele>1044.5</ele>
        <time>2021-08-11T06:58:18Z</time>
      </trkpt>
      <trkpt lat="44.35027" lon="3.7262">
        <ele>1044.6</ele>
        <time>2021-08-11T06:58:20Z</time>
      </trkpt>
      <trkpt lat="44.35028" lon="3.72624">
        <ele>1044.8</ele>
        <time>2021-08-11T06:58:22Z</time>
      </trkpt>
      <trkpt lat="44.3503" lon="3.72628">
        <ele>1045</ele>
        <time>2021-08-11T06:58:24Z</time>
      </trkpt>
      <trkpt lat="44.35032" lon="3.72633">
        <ele>1045.2</ele>
        <time>2021-08-11T06:58:26Z</time>
      </trkpt>
      <trkpt lat="44.35033" lon="3.72637">
        <ele>1045.3</ele>
        <time>2021-08-11T06:58:28Z</time>
      </trkpt>
      <trkpt lat="44.35034" lon="3.72642">
        <ele>1045.5</ele>
        <time>2021-08-11T06:58:30Z</time>
      </trkpt>
      <trkpt lat="44.35036" lon="3.72647">
        <ele>1045.7</ele>
        <time>2021-08-11T06:58:32Z</time>
      </trkpt>
      <trkpt lat="44.35037" lon="3.72652">
        <ele>1045.9</ele>
        <time>2021-08-11T06:58:34Z</time>
      </trkpt>
      <trkpt lat="44.35039" lon="3.72658">
        <ele>1046.1</ele>
        <time>2021-08-11T06:58:36Z</time>
      </trkpt>
      <trkpt lat="44.3504" lon="3.72663">
        <ele>1046.3</ele>
        <time>2021-08-11T06:58:38Z</time>
      </trkpt>
      <trkpt lat="44.35041" lon="3.72668">
        <ele>1046.6</ele>
        <time>2021-08-11T06:58:40Z</time>
      </trkpt>
      <trkpt lat="44.35043" lon="3.72673">
        <ele>1047</ele>
        <time>2021-08-11T06:58:42Z</time>
      </trkpt>
      <trkpt lat="44.35044" lon="3.72678">
        <ele>1047.4</ele>
        <time>2021-08-11T06:58:44Z</time>
      </trkpt>
      <trkpt lat="44.35046" lon="3.72683">
        <ele>1047.8</ele>
        <time>2021-08-11T06:58:46Z</time>
      </trkpt>
      <trkpt lat="44.35047" lon="3.72688">
        <ele>1048.2</ele>
        <time>2021-08-11T06:58:48Z</time>
      </trkpt>
      <trkpt lat="44.35049" lon="3.72693">
        <ele>1048.7</ele>
        <time>2021-08-11T06:58:50Z</time>
      </trkpt>
      <trkpt lat="44.3505" lon="3.72699">
        <ele>1049.1</ele>
        <time>2021-08-11T06:58:52Z</time>
      </trkpt>
      <trkpt lat="44.35052" lon="3.72704">
        <ele>1049.6</ele>
        <time>2021-08-11T06:58:54Z</time>
      </trkpt>
      <trkpt lat="44.35053" lon="3.72709">
        <ele>1050.1</ele>
        <time>2021-08-11T06:58:56Z</time>
      </trkpt>
      <trkpt lat="44.35055" lon="3.72714">
        <ele>1050.7</ele>
        <time>2021-08-11T06:58:58Z</time>
      </trkpt>
      <trkpt lat="44.35057" lon="3.72719">
        <ele>1051.1</ele>
        <time>2021-08-11T06:59:00Z</time>
      </trkpt>
      <trkpt lat="44.35058" lon="3.72724">
        <ele>1051.7</ele>
        <time>2021-08-11T06:59:02Z</time>
      </trkpt>
      <trkpt lat="44.3506" lon="3.72729">
        <ele>1052.2</ele>
        <time>2021-08-11T06:59:04Z</time>
      </trkpt>
      <trkpt lat="44.35061" lon="3.72734">
        <ele>1052.7</ele>
        <time>2021-08-11T06:59:06Z</time>
      </trkpt>
      <trkpt lat="44.35062" lon="3.72739">
        <ele>1053.2</ele>
        <time>2021-08-11T06:59:08Z</time>
      </trkpt>
      <trkpt lat="44.35061" lon="3.72744">
        <ele>1053.6</ele>
        <time>2021-08-11T06:59:10Z</time>
      </trkpt>
      <trkpt lat="44.3506" lon="3.72748">
        <ele>1053.8</ele>
        <time>2021-08-11T06:59:12Z</time>
      </trkpt>
      <trkpt lat="44.35058" lon="3.72752">
        <ele>1054</ele>
        <time>2021-08-11T06:59:14Z</time>
      </trkpt>
      <trkpt lat="44.35056" lon="3.72755">
        <ele>1054.4</ele>
        <time>2021-08-11T06:59:16Z</time>
      </trkpt>
      <trkpt lat="44.35055" lon="3.72759">
        <ele>1054.7</ele>
        <time>2021-08-11T06:59:18Z</time>
      </trkpt>
      <trkpt lat="44.35053" lon="3.72762">
        <ele>1055</ele>
        <time>2021-08-11T06:59:20Z</time>
      </trkpt>
      <trkpt lat="44.35053" lon="3.72765">
        <ele>1055.4</ele>
        <time>2021-08-11T06:59:22Z</time>
      </trkpt>
      <trkpt lat="44.35053" lon="3.72766">
        <ele>1055.5</ele>
        <time>2021-08-11T06:59:24Z</time>
      </trkpt>
      <trkpt lat="44.35053" lon="3.72766">
        <ele>1055.5</ele>
        <time>2021-08-11T06:59:26Z</time>
      </trkpt>
      <trkpt lat="44.35053" lon="3.72766">
        <ele>1055.5</ele>
        <time>2021-08-11T06:59:28Z</time>
      </trkpt>
      <trkpt lat="44.35054" lon="3.72766">
        <ele>1055.5</ele>
        <time>2021-08-11T06:59:30Z</time>
      </trkpt>
      <trkpt lat="44.35062" lon="3.7274">
        <ele>1053.3</ele>
        <time>2021-08-11T07:09:26Z</time>
      </trkpt>
      <trkpt lat="44.35062" lon="3.72735">
        <ele>1052.9</ele>
        <time>2021-08-11T07:09:28Z</time>
      </trkpt>
      <trkpt lat="44.35061" lon="3.7273">
        <ele>1052.4</ele>
        <time>2021-08-11T07:09:30Z</time>
      </trkpt>
      <trkpt lat="44.35058" lon="3.72726">
        <ele>1051.8</ele>
        <time>2021-08-11T07:09:32Z</time>
      </trkpt>
      <trkpt lat="44.35057" lon="3.7272">
        <ele>1051.2</ele>
        <time>2021-08-11T07:09:34Z</time>
      </trkpt>
      <trkpt lat="44.35055" lon="3.72714">
        <ele>1050.6</ele>
        <time>2021-08-11T07:09:36Z</time>
      </trkpt>
      <trkpt lat="44.35053" lon="3.72708">
        <ele>1050</ele>
        <time>2021-08-11T07:09:38Z</time>
      </trkpt>
      <trkpt lat="44.35052" lon="3.72701">
        <ele>1049.4</ele>
        <time>2021-08-11T07:09:40Z</time>
      </trkpt>
      <trkpt lat="44.3505" lon="3.72695">
        <ele>1048.8</ele>
        <time>2021-08-11T07:09:42Z</time>
      </trkpt>
      <trkpt lat="44.35048" lon="3.72689">
        <ele>1048.3</ele>
        <time>2021-08-11T07:09:44Z</time>
      </trkpt>
      <trkpt lat="44.35046" lon="3.72683">
        <ele>1047.8</ele>
        <time>2021-08-11T07:09:46Z</time>
      </trkpt>
      <trkpt lat="44.35044" lon="3.72676">
        <ele>1047.2</ele>
        <time>2021-08-11T07:09:48Z</time>
      </trkpt>
      <trkpt lat="44.35043" lon="3.72669">
        <ele>1046.7</ele>
        <time>2021-08-11T07:09:50Z</time>
      </trkpt>
      <trkpt lat="44.35041" lon="3.72661">
        <ele>1046.3</ele>
        <time>2021-08-11T07:09:52Z</time>
      </trkpt>
      <trkpt lat="44.35039" lon="3.72653">
        <ele>1046</ele>
        <time>2021-08-11T07:09:54Z</time>
      </trkpt>
      <trkpt lat="44.35037" lon="3.72646">
        <ele>1045.7</ele>
        <time>2021-08-11T07:09:56Z</time>
      </trkpt>
      <trkpt lat="44.35035" lon="3.72641">
        <ele>1045.5</ele>
        <time>2021-08-11T07:09:58Z</time>
      </trkpt>
      <trkpt lat="44.35033" lon="3.72634">
        <ele>1045.2</ele>
        <time>2021-08-11T07:10:00Z</time>
      </trkpt>
      <trkpt lat="44.3503" lon="3.72628">
        <ele>1045</ele>
        <time>2021-08-11T07:10:02Z</time>
      </trkpt>
      <trkpt lat="44.35028" lon="3.72622">
        <ele>1044.7</ele>
        <time>2021-08-11T07:10:04Z</time>
      </trkpt>
      <trkpt lat="44.35025" lon="3.72617">
        <ele>1044.5</ele>
        <time>2021-08-11T07:10:06Z</time>
      </trkpt>
      <trkpt lat="44.35023" lon="3.72612">
        <ele>1044.3</ele>
        <time>2021-08-11T07:10:08Z</time>
      </trkpt>
      <trkpt lat="44.3502" lon="3.72609">
        <ele>1044.2</ele>
        <time>2021-08-11T07:10:10Z</time>
      </trkpt>
      <trkpt lat="44.35016" lon="3.72606">
        <ele>1044</ele>
        <time>2021-08-11T07:10:12Z</time>
      </trkpt>
      <trkpt lat="44.35013" lon="3.72604">
        <ele>1043.9</ele>
        <time>2021-08-11T07:10:14Z</time>
      </trkpt>
      <trkpt lat="44.35009" lon="3.72605">
        <ele>1043.9</ele>
        <time>2021-08-11T07:10:16Z</time>
      </trkpt>
      <trkpt lat="44.35005" lon="3.72609">
        <ele>1044</ele>
        <time>2021-08-11T07:10:18Z</time>
      </trkpt>
      <trkpt lat="44.35001" lon="3.72612">
        <ele>1044</ele>
        <time>2021-08-11T07:10:20Z</time>
      </trkpt>
      <trkpt lat="44.34997" lon="3.72616">
        <ele>1043.8</ele>
        <time>2021-08-11T07:10:22Z</time>
      </trkpt>
      <trkpt lat="44.34992" lon="3.7262">
        <ele>1043.5</ele>
        <time>2021-08-11T07:10:24Z</time>
      </trkpt>
      <trkpt lat="44.34988" lon="3.72624">
        <ele>1043.2</ele>
        <time>2021-08-11T07:10:26Z</time>
      </trkpt>
      <trkpt lat="44.34984" lon="3.72628">
        <ele>1042.9</ele>
        <time>2021-08-11T07:10:28Z</time>
      </trkpt>
      <trkpt lat="44.3498" lon="3.72633">
        <ele>1042.7</ele>
        <time>2021-08-11T07:10:30Z</time>
      </trkpt>
      <trkpt lat="44.34977" lon="3.72639">
        <ele>1042.6</ele>
        <time>2021-08-11T07:10:32Z</time>
      </trkpt>
      <trkpt lat="44.34975" lon="3.72645">
        <ele>1042.5</ele>
        <time>2021-08-11T07:10:34Z</time>
      </trkpt>
      <trkpt lat="44.34972" lon="3.72651">
        <ele>1042.4</ele>
        <time>2021-08-11T07:10:36Z</time>
      </trkpt>
      <trkpt lat="44.34969" lon="3.72657">
        <ele>1042.3</ele>
        <time>2021-08-11T07:10:38Z</time>
      </trkpt>
      <trkpt lat="44.34966" lon="3.72662">
        <ele>1042.1</ele>
        <time>2021-08-11T07:10:40Z</time>
      </trkpt>
      <trkpt lat="44.34962" lon="3.72666">
        <ele>1041.9</ele>
        <time>2021-08-11T07:10:42Z</time>
      </trkpt>
      <trkpt lat="44.34959" lon="3.72671">
        <ele>1041.7</ele>
        <time>2021-08-11T07:10:44Z</time>
      </trkpt>
      <trkpt lat="44.34955" lon="3.72675">
        <ele>1041.4</ele>
        <time>2021-08-11T07:10:46Z</time>
      </trkpt>
      <trkpt lat="44.34952" lon="3.7268">
        <ele>1041.2</ele>
        <time>2021-08-11T07:10:48Z</time>
      </trkpt>
      <trkpt lat="44.34947" lon="3.72685">
        <ele>1040.7</ele>
        <time>2021-08-11T07:10:50Z</time>
      </trkpt>
      <trkpt lat="44.34942" lon="3.72689">
        <ele>1040.3</ele>
        <time>2021-08-11T07:10:52Z</time>
      </trkpt>
      <trkpt lat="44.34938" lon="3.72692">
        <ele>1040</ele>
        <time>2021-08-11T07:10:54Z</time>
      </trkpt>
      <trkpt lat="44.34935" lon="3.72696">
        <ele>1039.8</ele>
        <time>2021-08-11T07:10:56Z</time>
      </trkpt>
      <trkpt lat="44.34932" lon="3.72697">
        <ele>1039.5</ele>
        <time>2021-08-11T07:10:58Z</time>
      </trkpt>
      <trkpt lat="44.34929" lon="3.72698">
        <ele>1039.2</ele>
        <time>2021-08-11T07:11:00Z</time>
      </trkpt>
      <trkpt lat="44.34927" lon="3.72698">
        <ele>1038.9</ele>
        <time>2021-08-11T07:11:02Z</time>
      </trkpt>
      <trkpt lat="44.34924" lon="3.72697">
        <ele>1038.5</ele>
        <time>2021-08-11T07:11:04Z</time>
      </trkpt>
      <trkpt lat="44.34921" lon="3.72696">
        <ele>1038.2</ele>
        <time>2021-08-11T07:11:06Z</time>
      </trkpt>
      <trkpt lat="44.34918" lon="3.72695">
        <ele>1037.8</ele>
        <time>2021-08-11T07:11:08Z</time>
      </trkpt>
      <trkpt lat="44.34915" lon="3.72692">
        <ele>1037.4</ele>
        <time>2021-08-11T07:11:10Z</time>
      </trkpt>
      <trkpt lat="44.34912" lon="3.7269">
        <ele>1037</ele>
        <time>2021-08-11T07:11:12Z</time>
      </trkpt>
      <trkpt lat="44.34909" lon="3.7269">
        <ele>1036.7</ele>
        <time>2021-08-11T07:11:14Z</time>
      </trkpt>
      <trkpt lat="44.34908" lon="3.72691">
        <ele>1036.5</ele>
        <time>2021-08-11T07:11:16Z</time>
      </trkpt>
      <trkpt lat="44.34906" lon="3.72694">
        <ele>1036.4</ele>
        <time>2021-08-11T07:11:18Z</time>
      </trkpt>
      <trkpt lat="44.34904" lon="3.72698">
        <ele>1036.4</ele>
        <time>2021-08-11T07:11:20Z</time>
      </trkpt>
      <trkpt lat="44.34903" lon="3.72702">
        <ele>1036.3</ele>
        <time>2021-08-11T07:11:22Z</time>
      </trkpt>
      <trkpt lat="44.34903" lon="3.72705">
        <ele>1036.4</ele>
        <time>2021-08-11T07:11:24Z</time>
      </trkpt>
      <trkpt lat="44.34902" lon="3.72707">
        <ele>1036.3</ele>
        <time>2021-08-11T07:11:26Z</time>
      </trkpt>
      <trkpt lat="44.34901" lon="3.72709">
        <ele>1036.3</ele>
        <time>2021-08-11T07:11:28Z</time>
      </trkpt>
      <trkpt lat="44.349" lon="3.72712">
        <ele>1036.3</ele>
        <time>2021-08-11T07:11:30Z</time>
      </trkpt>
      <trkpt lat="44.34899" lon="3.72716">
        <ele>1036.4</ele>
        <time>2021-08-11T07:11:32Z</time>
      </trkpt>
      <trkpt lat="44.34899" lon="3.72722">
        <ele>1036.5</ele>
        <time>2021-08-11T07:11:34Z</time>
      </trkpt>
      <trkpt lat="44.34899" lon="3.72727">
        <ele>1036.7</ele>
        <time>2021-08-11T07:11:36Z</time>
      </trkpt>
      <trkpt lat="44.34898" lon="3.72732">
        <ele>1036.8</ele>
        <time>2021-08-11T07:11:38Z</time>
      </trkpt>
      <trkpt lat="44.34897" lon="3.72737">
        <ele>1036.9</ele>
        <time>2021-08-11T07:11:40Z</time>
      </trkpt>
      <trkpt lat="44.34896" lon="3.72742">
        <ele>1037</ele>
        <time>2021-08-11T07:11:42Z</time>
      </trkpt>
      <trkpt lat="44.34896" lon="3.72747">
        <ele>1037.1</ele>
        <time>2021-08-11T07:11:44Z</time>
      </trkpt>
      <trkpt lat="44.34894" lon="3.72752">
        <ele>1037.2</ele>
        <time>2021-08-11T07:11:46Z</time>
      </trkpt>
      <trkpt lat="44.34893" lon="3.72756">
        <ele>1037.6</ele>
        <time>2021-08-11T07:11:48Z</time>
      </trkpt>
      <trkpt lat="44.34892" lon="3.7276">
        <ele>1037.9</ele>
        <time>2021-08-11T07:11:50Z</time>
      </trkpt>
      <trkpt lat="44.34891" lon="3.72764">
        <ele>1038</ele>
        <time>2021-08-11T07:11:52Z</time>
      </trkpt>
      <trkpt lat="44.3489" lon="3.72767">
        <ele>1038.3</ele>
        <time>2021-08-11T07:11:54Z</time>
      </trkpt>
      <trkpt lat="44.34889" lon="3.72771">
        <ele>1038.5</ele>
        <time>2021-08-11T07:11:56Z</time>
      </trkpt>
      <trkpt lat="44.34888" lon="3.72774">
        <ele>1038.7</ele>
        <time>2021-08-11T07:11:58Z</time>
      </trkpt>
      <trkpt lat="44.34888" lon="3.72774">
        <ele>1038.7</ele>
        <time>2021-08-11T07:12:00Z</time>
      </trkpt>
      <trkpt lat="44.34888" lon="3.72774">
        <ele>1038.7</ele>
        <time>2021-08-11T07:12:02Z</time>
      </trkpt>
      <trkpt lat="44.34888" lon="3.72774">
        <ele>1038.7</ele>
        <time>2021-08-11T07:12:04Z</time>
      </trkpt>
      <trkpt lat="44.34888" lon="3.72774">
        <ele>1038.7</ele>
        <time>2021-08-11T07:12:06Z</time>
      </trkpt>
      <trkpt lat="44.34882" lon="3.7279">
        <ele>1039.5</ele>
        <time>2021-08-11T07:14:16Z</time>
      </trkpt>
      <trkpt lat="44.3488" lon="3.72795">
        <ele>1039.8</ele>
        <time>2021-08-11T07:14:18Z</time>
      </trkpt>
      <trkpt lat="44.34877" lon="3.72798">
        <ele>1039.7</ele>
        <time>2021-08-11T07:14:20Z</time>
      </trkpt>
      <trkpt lat="44.34874" lon="3.72803">
        <ele>1039.9</ele>
        <time>2021-08-11T07:14:22Z</time>
      </trkpt>
      <trkpt lat="44.34871" lon="3.72806">
        <ele>1039.8</ele>
        <time>2021-08-11T07:14:24Z</time>
      </trkpt>
      <trkpt lat="44.34868" lon="3.72809">
        <ele>1039.7</ele>
        <time>2021-08-11T07:14:26Z</time>
      </trkpt>
      <trkpt lat="44.34864" lon="3.72811">
        <ele>1039.5</ele>
        <time>2021-08-11T07:14:28Z</time>
      </trkpt>
      <trkpt lat="44.34861" lon="3.72812">
        <ele>1039.3</ele>
        <time>2021-08-11T07:14:30Z</time>
      </trkpt>
      <trkpt lat="44.34857" lon="3.72813">
        <ele>1039</ele>
        <time>2021-08-11T07:14:32Z</time>
      </trkpt>
      <trkpt lat="44.34853" lon="3.72814">
        <ele>1038.7</ele>
        <time>2021-08-11T07:14:34Z</time>
      </trkpt>
      <trkpt lat="44.34851" lon="3.72816">
        <ele>1038.5</ele>
        <time>2021-08-11T07:14:36Z</time>
      </trkpt>
      <trkpt lat="44.34848" lon="3.72819">
        <ele>1038.5</ele>
        <time>2021-08-11T07:14:38Z</time>
      </trkpt>
      <trkpt lat="44.34846" lon="3.72821">
        <ele>1038.4</ele>
        <time>2021-08-11T07:14:40Z</time>
      </trkpt>
      <trkpt lat="44.34843" lon="3.72824">
        <ele>1038.4</ele>
        <time>2021-08-11T07:14:42Z</time>
      </trkpt>
      <trkpt lat="44.34841" lon="3.72827">
        <ele>1038.4</ele>
        <time>2021-08-11T07:14:44Z</time>
      </trkpt>
      <trkpt lat="44.34838" lon="3.7283">
        <ele>1038.3</ele>
        <time>2021-08-11T07:14:46Z</time>
      </trkpt>
      <trkpt lat="44.34836" lon="3.72835">
        <ele>1038.5</ele>
        <time>2021-08-11T07:14:48Z</time>
      </trkpt>
      <trkpt lat="44.34833" lon="3.72839">
        <ele>1038.9</ele>
        <time>2021-08-11T07:14:50Z</time>
      </trkpt>
      <trkpt lat="44.3483" lon="3.72842">
        <ele>1039.1</ele>
        <time>2021-08-11T07:14:52Z</time>
      </trkpt>
      <trkpt lat="44.34827" lon="3.72847">
        <ele>1039.5</ele>
        <time>2021-08-11T07:14:54Z</time>
      </trkpt>
      <trkpt lat="44.34825" lon="3.72851">
        <ele>1039.8</ele>
        <time>2021-08-11T07:14:56Z</time>
      </trkpt>
      <trkpt lat="44.34822" lon="3.72856">
        <ele>1040.1</ele>
        <time>2021-08-11T07:14:58Z</time>
      </trkpt>
      <trkpt lat="44.34819" lon="3.7286">
        <ele>1040.4</ele>
        <time>2021-08-11T07:15:00Z</time>
      </trkpt>
      <trkpt lat="44.34816" lon="3.72864">
        <ele>1040.7</ele>
        <time>2021-08-11T07:15:02Z</time>
      </trkpt>
      <trkpt lat="44.34813" lon="3.72869">
        <ele>1041</ele>
        <time>2021-08-11T07:15:04Z</time>
      </trkpt>
      <trkpt lat="44.3481" lon="3.72873">
        <ele>1041.3</ele>
        <time>2021-08-11T07:15:06Z</time>
      </trkpt>
      <trkpt lat="44.34806" lon="3.72878">
        <ele>1041.5</ele>
        <time>2021-08-11T07:15:08Z</time>
      </trkpt>
      <trkpt lat="44.34804" lon="3.72882">
        <ele>1041.8</ele>
        <time>2021-08-11T07:15:10Z</time>
      </trkpt>
      <trkpt lat="44.348" lon="3.72886">
        <ele>1041.9</ele>
        <time>2021-08-11T07:15:12Z</time>
      </trkpt>
      <trkpt lat="44.34798" lon="3.72891">
        <ele>1042.2</ele>
        <time>2021-08-11T07:15:14Z</time>
      </trkpt>
      <trkpt lat="44.34794" lon="3.72895">
        <ele>1042.4</ele>
        <time>2021-08-11T07:15:16Z</time>
      </trkpt>
      <trkpt lat="44.34791" lon="3.729">
        <ele>1042.7</ele>
        <time>2021-08-11T07:15:18Z</time>
      </trkpt>
      <trkpt lat="44.34787" lon="3.72904">
        <ele>1042.7</ele>
        <time>2021-08-11T07:15:20Z</time>
      </trkpt>
      <trkpt lat="44.34784" lon="3.7291">
        <ele>1043</ele>
        <time>2021-08-11T07:15:22Z</time>
      </trkpt>
      <trkpt lat="44.34781" lon="3.72916">
        <ele>1043.3</ele>
        <time>2021-08-11T07:15:24Z</time>
      </trkpt>
      <trkpt lat="44.34777" lon="3.72921">
        <ele>1043.7</ele>
        <time>2021-08-11T07:15:26Z</time>
      </trkpt>
      <trkpt lat="44.34773" lon="3.72928">
        <ele>1044.3</ele>
        <time>2021-08-11T07:15:28Z</time>
      </trkpt>
      <trkpt lat="44.34768" lon="3.72936">
        <ele>1044.7</ele>
        <time>2021-08-11T07:15:30Z</time>
      </trkpt>
      <trkpt lat="44.34764" lon="3.72943">
        <ele>1045.2</ele>
        <time>2021-08-11T07:15:32Z</time>
      </trkpt>
      <trkpt lat="44.3476" lon="3.72951">
        <ele>1045.8</ele>
        <time>2021-08-11T07:15:34Z</time>
      </trkpt>
      <trkpt lat="44.34757" lon="3.72958">
        <ele>1046.4</ele>
        <time>2021-08-11T07:15:36Z</time>
      </trkpt>
      <trkpt lat="44.34756" lon="3.72962">
        <ele>1046.8</ele>
        <time>2021-08-11T07:15:38Z</time>
      </trkpt>
      <trkpt lat="44.34754" lon="3.72967">
        <ele>1047</ele>
        <time>2021-08-11T07:15:40Z</time>
      </trkpt>
      <trkpt lat="44.34751" lon="3.72971">
        <ele>1047.2</ele>
        <time>2021-08-11T07:15:42Z</time>
      </trkpt>
      <trkpt lat="44.34749" lon="3.72976">
        <ele>1047.5</ele>
        <time>2021-08-11T07:15:44Z</time>
      </trkpt>
      <trkpt lat="44.34747" lon="3.7298">
        <ele>1047.8</ele>
        <time>2021-08-11T07:15:46Z</time>
      </trkpt>
      <trkpt lat="44.34744" lon="3.72983">
        <ele>1048</ele>
        <time>2021-08-11T07:15:48Z</time>
      </trkpt>
      <trkpt lat="44.34742" lon="3.72987">
        <ele>1048.3</ele>
        <time>2021-08-11T07:15:50Z</time>
      </trkpt>
      <trkpt lat="44.3474" lon="3.7299">
        <ele>1048.5</ele>
        <time>2021-08-11T07:15:52Z</time>
      </trkpt>
      <trkpt lat="44.34737" lon="3.72995">
        <ele>1048.9</ele>
        <time>2021-08-11T07:15:54Z</time>
      </trkpt>
      <trkpt lat="44.34735" lon="3.72999">
        <ele>1049.3</ele>
        <time>2021-08-11T07:15:56Z</time>
      </trkpt>
      <trkpt lat="44.34733" lon="3.73002">
        <ele>1049.7</ele>
        <time>2021-08-11T07:15:58Z</time>
      </trkpt>
      <trkpt lat="44.34731" lon="3.73006">
        <ele>1050.1</ele>
        <time>2021-08-11T07:16:00Z</time>
      </trkpt>
      <trkpt lat="44.34729" lon="3.7301">
        <ele>1050.7</ele>
        <time>2021-08-11T07:16:02Z</time>
      </trkpt>
      <trkpt lat="44.34727" lon="3.73014">
        <ele>1051.3</ele>
        <time>2021-08-11T07:16:04Z</time>
      </trkpt>
      <trkpt lat="44.34725" lon="3.73018">
        <ele>1051.8</ele>
        <time>2021-08-11T07:16:06Z</time>
      </trkpt>
      <trkpt lat="44.34722" lon="3.73021">
        <ele>1052.1</ele>
        <time>2021-08-11T07:16:08Z</time>
      </trkpt>
      <trkpt lat="44.34718" lon="3.73024">
        <ele>1052.2</ele>
        <time>2021-08-11T07:16:10Z</time>
      </trkpt>
      <trkpt lat="44.34716" lon="3.73026">
        <ele>1052.2</ele>
        <time>2021-08-11T07:16:12Z</time>
      </trkpt>
      <trkpt lat="44.34711" lon="3.73028">
        <ele>1051.9</ele>
        <time>2021-08-11T07:16:14Z</time>
      </trkpt>
      <trkpt lat="44.34708" lon="3.73027">
        <ele>1051.4</ele>
        <time>2021-08-11T07:16:16Z</time>
      </trkpt>
      <trkpt lat="44.34704" lon="3.73028">
        <ele>1051</ele>
        <time>2021-08-11T07:16:18Z</time>
      </trkpt>
      <trkpt lat="44.347" lon="3.73028">
        <ele>1050.4</ele>
        <time>2021-08-11T07:16:20Z</time>
      </trkpt>
      <trkpt lat="44.34696" lon="3.7303">
        <ele>1050.1</ele>
        <time>2021-08-11T07:16:22Z</time>
      </trkpt>
      <trkpt lat="44.34692" lon="3.73032">
        <ele>1049.9</ele>
        <time>2021-08-11T07:16:24Z</time>
      </trkpt>
      <trkpt lat="44.34688" lon="3.73035">
        <ele>1049.7</ele>
        <time>2021-08-11T07:16:26Z</time>
      </trkpt>
      <trkpt lat="44.34684" lon="3.73039">
        <ele>1049.8</ele>
        <time>2021-08-11T07:16:28Z</time>
      </trkpt>
      <trkpt lat="44.34681" lon="3.73042">
        <ele>1049.9</ele>
        <time>2021-08-11T07:16:30Z</time>
      </trkpt>
      <trkpt lat="44.34678" lon="3.73047">
        <ele>1050.1</ele>
        <time>2021-08-11T07:16:32Z</time>
      </trkpt>
      <trkpt lat="44.34675" lon="3.73052">
        <ele>1050.4</ele>
        <time>2021-08-11T07:16:34Z</time>
      </trkpt>
      <trkpt lat="44.34673" lon="3.73057">
        <ele>1050.6</ele>
        <time>2021-08-11T07:16:36Z</time>
      </trkpt>
      <trkpt lat="44.3467" lon="3.73061">
        <ele>1050.7</ele>
        <time>2021-08-11T07:16:38Z</time>
      </trkpt>
      <trkpt lat="44.34668" lon="3.73065">
        <ele>1050.8</ele>
        <time>2021-08-11T07:16:40Z</time>
      </trkpt>
      <trkpt lat="44.34665" lon="3.73069">
        <ele>1050.9</ele>
        <time>2021-08-11T07:16:42Z</time>
      </trkpt>
      <trkpt lat="44.34663" lon="3.73074">
        <ele>1051.2</ele>
        <time>2021-08-11T07:16:44Z</time>
      </trkpt>
      <trkpt lat="44.34661" lon="3.73078">
        <ele>1051.4</ele>
        <time>2021-08-11T07:16:46Z</time>
      </trkpt>
      <trkpt lat="44.34659" lon="3.73082">
        <ele>1051.7</ele>
        <time>2021-08-11T07:16:48Z</time>
      </trkpt>
      <trkpt lat="44.34656" lon="3.73086">
        <ele>1051.8</ele>
        <time>2021-08-11T07:16:50Z</time>
      </trkpt>
      <trkpt lat="44.34654" lon="3.7309">
        <ele>1052.1</ele>
        <time>2021-08-11T07:16:52Z</time>
      </trkpt>
      <trkpt lat="44.34651" lon="3.73095">
        <ele>1052.5</ele>
        <time>2021-08-11T07:16:54Z</time>
      </trkpt>
      <trkpt lat="44.34648" lon="3.731">
        <ele>1052.7</ele>
        <time>2021-08-11T07:16:56Z</time>
      </trkpt>
      <trkpt lat="44.34645" lon="3.73104">
        <ele>1052.9</ele>
        <time>2021-08-11T07:16:58Z</time>
      </trkpt>
      <trkpt lat="44.34643" lon="3.73108">
        <ele>1053.1</ele>
        <time>2021-08-11T07:17:00Z</time>
      </trkpt>
      <trkpt lat="44.3464" lon="3.73111">
        <ele>1053.2</ele>
        <time>2021-08-11T07:17:02Z</time>
      </trkpt>
      <trkpt lat="44.34637" lon="3.73115">
        <ele>1053.4</ele>
        <time>2021-08-11T07:17:04Z</time>
      </trkpt>
      <trkpt lat="44.34635" lon="3.73119">
        <ele>1053.7</ele>
        <time>2021-08-11T07:17:06Z</time>
      </trkpt>
      <trkpt lat="44.34633" lon="3.73124">
        <ele>1054</ele>
        <time>2021-08-11T07:17:08Z</time>
      </trkpt>
      <trkpt lat="44.3463" lon="3.73128">
        <ele>1054.3</ele>
        <time>2021-08-11T07:17:10Z</time>
      </trkpt>
      <trkpt lat="44.34628" lon="3.73132">
        <ele>1054.5</ele>
        <time>2021-08-11T07:17:12Z</time>
      </trkpt>
      <trkpt lat="44.34626" lon="3.73135">
        <ele>1054.7</ele>
        <time>2021-08-11T07:17:14Z</time>
      </trkpt>
      <trkpt lat="44.34623" lon="3.73139">
        <ele>1055</ele>
        <time>2021-08-11T07:17:16Z</time>
      </trkpt>
      <trkpt lat="44.3462" lon="3.73144">
        <ele>1055.2</ele>
        <time>2021-08-11T07:17:18Z</time>
      </trkpt>
      <trkpt lat="44.34618" lon="3.73147">
        <ele>1055.4</ele>
        <time>2021-08-11T07:17:20Z</time>
      </trkpt>
      <trkpt lat="44.34615" lon="3.73152">
        <ele>1055.5</ele>
        <time>2021-08-11T07:17:22Z</time>
      </trkpt>
      <trkpt lat="44.34612" lon="3.73156">
        <ele>1055.7</ele>
        <time>2021-08-11T07:17:24Z</time>
      </trkpt>
      <trkpt lat="44.34609" lon="3.7316">
        <ele>1055.9</ele>
        <time>2021-08-11T07:17:26Z</time>
      </trkpt>
      <trkpt lat="44.34606" lon="3.73164">
        <ele>1056.1</ele>
        <time>2021-08-11T07:17:28Z</time>
      </trkpt>
      <trkpt lat="44.34604" lon="3.73167">
        <ele>1056.4</ele>
        <time>2021-08-11T07:17:30Z</time>
      </trkpt>
      <trkpt lat="44.34601" lon="3.73172">
        <ele>1056.6</ele>
        <time>2021-08-11T07:17:32Z</time>
      </trkpt>
      <trkpt lat="44.34599" lon="3.73176">
        <ele>1056.9</ele>
        <time>2021-08-11T07:17:34Z</time>
      </trkpt>
      <trkpt lat="44.34596" lon="3.73179">
        <ele>1057.2</ele>
        <time>2021-08-11T07:17:36Z</time>
      </trkpt>
      <trkpt lat="44.34593" lon="3.73183">
        <ele>1057.3</ele>
        <time>2021-08-11T07:17:38Z</time>
      </trkpt>
      <trkpt lat="44.34591" lon="3.73186">
        <ele>1057.5</ele>
        <time>2021-08-11T07:17:40Z</time>
      </trkpt>
      <trkpt lat="44.34589" lon="3.7319">
        <ele>1057.7</ele>
        <time>2021-08-11T07:17:42Z</time>
      </trkpt>
      <trkpt lat="44.34586" lon="3.73193">
        <ele>1057.8</ele>
        <time>2021-08-11T07:17:44Z</time>
      </trkpt>
      <trkpt lat="44.34584" lon="3.73196">
        <ele>1058</ele>
        <time>2021-08-11T07:17:46Z</time>
      </trkpt>
      <trkpt lat="44.34581" lon="3.73199">
        <ele>1058.3</ele>
        <time>2021-08-11T07:17:48Z</time>
      </trkpt>
      <trkpt lat="44.34579" lon="3.73201">
        <ele>1058.4</ele>
        <time>2021-08-11T07:17:50Z</time>
      </trkpt>
      <trkpt lat="44.34577" lon="3.73203">
        <ele>1058.5</ele>
        <time>2021-08-11T07:17:52Z</time>
      </trkpt>
      <trkpt lat="44.34575" lon="3.73205">
        <ele>1058.7</ele>
        <time>2021-08-11T07:17:54Z</time>
      </trkpt>
      <trkpt lat="44.34572" lon="3.73206">
        <ele>1058.6</ele>
        <time>2021-08-11T07:17:56Z</time>
      </trkpt>
      <trkpt lat="44.34569" lon="3.73206">
        <ele>1058.3</ele>
        <time>2021-08-11T07:17:58Z</time>
      </trkpt>
      <trkpt lat="44.34565" lon="3.73207">
        <ele>1058.1</ele>
        <time>2021-08-11T07:18:00Z</time>
      </trkpt>
      <trkpt lat="44.34562" lon="3.73208">
        <ele>1057.9</ele>
        <time>2021-08-11T07:18:02Z</time>
      </trkpt>
      <trkpt lat="44.34558" lon="3.73208">
        <ele>1057.6</ele>
        <time>2021-08-11T07:18:04Z</time>
      </trkpt>
      <trkpt lat="44.34554" lon="3.73208">
        <ele>1057.4</ele>
        <time>2021-08-11T07:18:06Z</time>
      </trkpt>
      <trkpt lat="44.34551" lon="3.73209">
        <ele>1057.3</ele>
        <time>2021-08-11T07:18:08Z</time>
      </trkpt>
      <trkpt lat="44.34547" lon="3.7321">
        <ele>1057.1</ele>
        <time>2021-08-11T07:18:10Z</time>
      </trkpt>
      <trkpt lat="44.34544" lon="3.73211">
        <ele>1057</ele>
        <time>2021-08-11T07:18:12Z</time>
      </trkpt>
      <trkpt lat="44.34541" lon="3.73213">
        <ele>1057.2</ele>
        <time>2021-08-11T07:18:14Z</time>
      </trkpt>
      <trkpt lat="44.34538" lon="3.73215">
        <ele>1057.3</ele>
        <time>2021-08-11T07:18:16Z</time>
      </trkpt>
      <trkpt lat="44.34535" lon="3.73217">
        <ele>1057.4</ele>
        <time>2021-08-11T07:18:18Z</time>
      </trkpt>
      <trkpt lat="44.34531" lon="3.7322">
        <ele>1057.7</ele>
        <time>2021-08-11T07:18:20Z</time>
      </trkpt>
      <trkpt lat="44.34528" lon="3.73223">
        <ele>1058.1</ele>
        <time>2021-08-11T07:18:22Z</time>
      </trkpt>
      <trkpt lat="44.34526" lon="3.73225">
        <ele>1058.4</ele>
        <time>2021-08-11T07:18:24Z</time>
      </trkpt>
      <trkpt lat="44.34522" lon="3.73228">
        <ele>1058.7</ele>
        <time>2021-08-11T07:18:26Z</time>
      </trkpt>
      <trkpt lat="44.34519" lon="3.73231">
        <ele>1059.2</ele>
        <time>2021-08-11T07:18:28Z</time>
      </trkpt>
      <trkpt lat="44.34517" lon="3.73234">
        <ele>1059.7</ele>
        <time>2021-08-11T07:18:30Z</time>
      </trkpt>
      <trkpt lat="44.34514" lon="3.73238">
        <ele>1060.1</ele>
        <time>2021-08-11T07:18:32Z</time>
      </trkpt>
      <trkpt lat="44.34511" lon="3.73241">
        <ele>1060.6</ele>
        <time>2021-08-11T07:18:34Z</time>
      </trkpt>
      <trkpt lat="44.34508" lon="3.73244">
        <ele>1061.2</ele>
        <time>2021-08-11T07:18:36Z</time>
      </trkpt>
      <trkpt lat="44.34506" lon="3.73247">
        <ele>1061.7</ele>
        <time>2021-08-11T07:18:38Z</time>
      </trkpt>
      <trkpt lat="44.34503" lon="3.7325">
        <ele>1062.2</ele>
        <time>2021-08-11T07:18:40Z</time>
      </trkpt>
      <trkpt lat="44.345" lon="3.73253">
        <ele>1062.5</ele>
        <time>2021-08-11T07:18:42Z</time>
      </trkpt>
      <trkpt lat="44.34498" lon="3.73256">
        <ele>1062.6</ele>
        <time>2021-08-11T07:18:44Z</time>
      </trkpt>
      <trkpt lat="44.34495" lon="3.73259">
        <ele>1062.7</ele>
        <time>2021-08-11T07:18:46Z</time>
      </trkpt>
      <trkpt lat="44.34493" lon="3.73262">
        <ele>1062.8</ele>
        <time>2021-08-11T07:18:48Z</time>
      </trkpt>
      <trkpt lat="44.3449" lon="3.73265">
        <ele>1062.8</ele>
        <time>2021-08-11T07:18:50Z</time>
      </trkpt>
      <trkpt lat="44.34487" lon="3.73268">
        <ele>1062.9</ele>
        <time>2021-08-11T07:18:52Z</time>
      </trkpt>
      <trkpt lat="44.34485" lon="3.73272">
        <ele>1063.2</ele>
        <time>2021-08-11T07:18:54Z</time>
      </trkpt>
      <trkpt lat="44.34482" lon="3.73276">
        <ele>1063.4</ele>
        <time>2021-08-11T07:18:56Z</time>
      </trkpt>
      <trkpt lat="44.34481" lon="3.7328">
        <ele>1063.8</ele>
        <time>2021-08-11T07:18:58Z</time>
      </trkpt>
      <trkpt lat="44.34479" lon="3.73284">
        <ele>1064.2</ele>
        <time>2021-08-11T07:19:00Z</time>
      </trkpt>
      <trkpt lat="44.34477" lon="3.73288">
        <ele>1064.5</ele>
        <time>2021-08-11T07:19:02Z</time>
      </trkpt>
      <trkpt lat="44.34475" lon="3.73293">
        <ele>1064.9</ele>
        <time>2021-08-11T07:19:04Z</time>
      </trkpt>
      <trkpt lat="44.34473" lon="3.73297">
        <ele>1065.1</ele>
        <time>2021-08-11T07:19:06Z</time>
      </trkpt>
      <trkpt lat="44.34471" lon="3.73301">
        <ele>1065.6</ele>
        <time>2021-08-11T07:19:08Z</time>
      </trkpt>
      <trkpt lat="44.3447" lon="3.73306">
        <ele>1066.1</ele>
        <time>2021-08-11T07:19:10Z</time>
      </trkpt>
      <trkpt lat="44.34468" lon="3.73311">
        <ele>1066.6</ele>
        <time>2021-08-11T07:19:12Z</time>
      </trkpt>
      <trkpt lat="44.34467" lon="3.73316">
        <ele>1067.1</ele>
        <time>2021-08-11T07:19:14Z</time>
      </trkpt>
      <trkpt lat="44.34466" lon="3.7332">
        <ele>1067.6</ele>
        <time>2021-08-11T07:19:16Z</time>
      </trkpt>
      <trkpt lat="44.34464" lon="3.73323">
        <ele>1067.9</ele>
        <time>2021-08-11T07:19:18Z</time>
      </trkpt>
      <trkpt lat="44.34464" lon="3.73327">
        <ele>1068.5</ele>
        <time>2021-08-11T07:19:20Z</time>
      </trkpt>
      <trkpt lat="44.34464" lon="3.73331">
        <ele>1068.9</ele>
        <time>2021-08-11T07:19:22Z</time>
      </trkpt>
      <trkpt lat="44.34463" lon="3.73333">
        <ele>1069.1</ele>
        <time>2021-08-11T07:19:24Z</time>
      </trkpt>
      <trkpt lat="44.34464" lon="3.73332">
        <ele>1069.1</ele>
        <time>2021-08-11T07:19:26Z</time>
      </trkpt>
      <trkpt lat="44.34464" lon="3.73333">
        <ele>1069.1</ele>
        <time>2021-08-11T07:19:28Z</time>
      </trkpt>
      <trkpt lat="44.34464" lon="3.73334">
        <ele>1069.2</ele>
        <time>2021-08-11T07:19:30Z</time>
      </trkpt>
      <trkpt lat="44.34464" lon="3.73335">
        <ele>1069.3</ele>
        <time>2021-08-11T07:19:32Z</time>
      </trkpt>
      <trkpt lat="44.34453" lon="3.73352">
        <ele>1069</ele>
        <time>2021-08-11T07:27:18Z</time>
      </trkpt>
      <trkpt lat="44.34451" lon="3.73356">
        <ele>1068.9</ele>
        <time>2021-08-11T07:27:20Z</time>
      </trkpt>
      <trkpt lat="44.34448" lon="3.73361">
        <ele>1068.8</ele>
        <time>2021-08-11T07:27:22Z</time>
      </trkpt>
      <trkpt lat="44.34446" lon="3.73366">
        <ele>1068.8</ele>
        <time>2021-08-11T07:27:24Z</time>
      </trkpt>
      <trkpt lat="44.34443" lon="3.73372">
        <ele>1068.9</ele>
        <time>2021-08-11T07:27:26Z</time>
      </trkpt>
      <trkpt lat="44.34442" lon="3.73378">
        <ele>1069.1</ele>
        <time>2021-08-11T07:27:28Z</time>
      </trkpt>
      <trkpt lat="44.34441" lon="3.73385">
        <ele>1069.4</ele>
        <time>2021-08-11T07:27:30Z</time>
      </trkpt>
      <trkpt lat="44.34441" lon="3.73393">
        <ele>1069.7</ele>
        <time>2021-08-11T07:27:32Z</time>
      </trkpt>
      <trkpt lat="44.34442" lon="3.734">
        <ele>1070.3</ele>
        <time>2021-08-11T07:27:34Z</time>
      </trkpt>
      <trkpt lat="44.34443" lon="3.73408">
        <ele>1071</ele>
        <time>2021-08-11T07:27:36Z</time>
      </trkpt>
      <trkpt lat="44.34444" lon="3.73416">
        <ele>1071.5</ele>
        <time>2021-08-11T07:27:38Z</time>
      </trkpt>
      <trkpt lat="44.34445" lon="3.73423">
        <ele>1072</ele>
        <time>2021-08-11T07:27:40Z</time>
      </trkpt>
      <trkpt lat="44.34446" lon="3.7343">
        <ele>1072.5</ele>
        <time>2021-08-11T07:27:42Z</time>
      </trkpt>
      <trkpt lat="44.34446" lon="3.73437">
        <ele>1072.7</ele>
        <time>2021-08-11T07:27:44Z</time>
      </trkpt>
      <trkpt lat="44.34445" lon="3.73442">
        <ele>1072.9</ele>
        <time>2021-08-11T07:27:46Z</time>
      </trkpt>
      <trkpt lat="44.34443" lon="3.73447">
        <ele>1072.8</ele>
        <time>2021-08-11T07:27:48Z</time>
      </trkpt>
      <trkpt lat="44.34441" lon="3.73452">
        <ele>1072.7</ele>
        <time>2021-08-11T07:27:50Z</time>
      </trkpt>
      <trkpt lat="44.34439" lon="3.73456">
        <ele>1072.7</ele>
        <time>2021-08-11T07:27:52Z</time>
      </trkpt>
      <trkpt lat="44.34436" lon="3.7346">
        <ele>1072.6</ele>
        <time>2021-08-11T07:27:54Z</time>
      </trkpt>
      <trkpt lat="44.34435" lon="3.73465">
        <ele>1072.6</ele>
        <time>2021-08-11T07:27:56Z</time>
      </trkpt>
      <trkpt lat="44.34433" lon="3.7347">
        <ele>1072.7</ele>
        <time>2021-08-11T07:27:58Z</time>
      </trkpt>
      <trkpt lat="44.34433" lon="3.73476">
        <ele>1072.8</ele>
        <time>2021-08-11T07:28:00Z</time>
      </trkpt>
      <trkpt lat="44.34431" lon="3.73481">
        <ele>1072.9</ele>
        <time>2021-08-11T07:28:02Z</time>
      </trkpt>
      <trkpt lat="44.3443" lon="3.73487">
        <ele>1073.1</ele>
        <time>2021-08-11T07:28:04Z</time>
      </trkpt>
      <trkpt lat="44.3443" lon="3.73494">
        <ele>1073.3</ele>
        <time>2021-08-11T07:28:06Z</time>
      </trkpt>
      <trkpt lat="44.34429" lon="3.735">
        <ele>1073.6</ele>
        <time>2021-08-11T07:28:08Z</time>
      </trkpt>
      <trkpt lat="44.34428" lon="3.73506">
        <ele>1074.2</ele>
        <time>2021-08-11T07:28:10Z</time>
      </trkpt>
      <trkpt lat="44.34427" lon="3.73512">
        <ele>1074.8</ele>
        <time>2021-08-11T07:28:12Z</time>
      </trkpt>
      <trkpt lat="44.34426" lon="3.73518">
        <ele>1075.4</ele>
        <time>2021-08-11T07:28:14Z</time>
      </trkpt>
      <trkpt lat="44.34425" lon="3.73523">
        <ele>1075.9</ele>
        <time>2021-08-11T07:28:16Z</time>
      </trkpt>
      <trkpt lat="44.34423" lon="3.73527">
        <ele>1076.3</ele>
        <time>2021-08-11T07:28:18Z</time>
      </trkpt>
      <trkpt lat="44.34421" lon="3.73532">
        <ele>1076.6</ele>
        <time>2021-08-11T07:28:20Z</time>
      </trkpt>
      <trkpt lat="44.34419" lon="3.73536">
        <ele>1077</ele>
        <time>2021-08-11T07:28:22Z</time>
      </trkpt>
      <trkpt lat="44.34417" lon="3.73541">
        <ele>1077.4</ele>
        <time>2021-08-11T07:28:24Z</time>
      </trkpt>
      <trkpt lat="44.34415" lon="3.73544">
        <ele>1077.7</ele>
        <time>2021-08-11T07:28:26Z</time>
      </trkpt>
      <trkpt lat="44.34413" lon="3.73547">
        <ele>1078.2</ele>
        <time>2021-08-11T07:28:28Z</time>
      </trkpt>
      <trkpt lat="44.3441" lon="3.73551">
        <ele>1078.7</ele>
        <time>2021-08-11T07:28:30Z</time>
      </trkpt>
      <trkpt lat="44.34407" lon="3.73555">
        <ele>1079.2</ele>
        <time>2021-08-11T07:28:32Z</time>
      </trkpt>
      <trkpt lat="44.34404" lon="3.73557">
        <ele>1079.4</ele>
        <time>2021-08-11T07:28:34Z</time>
      </trkpt>
      <trkpt lat="44.344" lon="3.7356">
        <ele>1079.8</ele>
        <time>2021-08-11T07:28:36Z</time>
      </trkpt>
      <trkpt lat="44.34397" lon="3.73561">
        <ele>1079.9</ele>
        <time>2021-08-11T07:28:38Z</time>
      </trkpt>
      <trkpt lat="44.34393" lon="3.73562">
        <ele>1080</ele>
        <time>2021-08-11T07:28:40Z</time>
      </trkpt>
      <trkpt lat="44.34388" lon="3.73562">
        <ele>1079.9</ele>
        <time>2021-08-11T07:28:42Z</time>
      </trkpt>
      <trkpt lat="44.34383" lon="3.7356">
        <ele>1079.6</ele>
        <time>2021-08-11T07:28:44Z</time>
      </trkpt>
      <trkpt lat="44.34379" lon="3.73558">
        <ele>1079.4</ele>
        <time>2021-08-11T07:28:46Z</time>
      </trkpt>
      <trkpt lat="44.34375" lon="3.73555">
        <ele>1079</ele>
        <time>2021-08-11T07:28:48Z</time>
      </trkpt>
      <trkpt lat="44.34371" lon="3.73552">
        <ele>1078.5</ele>
        <time>2021-08-11T07:28:50Z</time>
      </trkpt>
      <trkpt lat="44.34368" lon="3.73548">
        <ele>1078</ele>
        <time>2021-08-11T07:28:52Z</time>
      </trkpt>
      <trkpt lat="44.34364" lon="3.73545">
        <ele>1077.6</ele>
        <time>2021-08-11T07:28:54Z</time>
      </trkpt>
      <trkpt lat="44.3436" lon="3.73542">
        <ele>1077.2</ele>
        <time>2021-08-11T07:28:56Z</time>
      </trkpt>
      <trkpt lat="44.34355" lon="3.73541">
        <ele>1077</ele>
        <time>2021-08-11T07:28:58Z</time>
      </trkpt>
      <trkpt lat="44.34351" lon="3.73541">
        <ele>1077.1</ele>
        <time>2021-08-11T07:29:00Z</time>
      </trkpt>
      <trkpt lat="44.34346" lon="3.73544">
        <ele>1077.3</ele>
        <time>2021-08-11T07:29:02Z</time>
      </trkpt>
      <trkpt lat="44.34342" lon="3.73545">
        <ele>1077.4</ele>
        <time>2021-08-11T07:29:04Z</time>
      </trkpt>
      <trkpt lat="44.34337" lon="3.73547">
        <ele>1077.7</ele>
        <time>2021-08-11T07:29:06Z</time>
      </trkpt>
      <trkpt lat="44.34333" lon="3.7355">
        <ele>1078</ele>
        <time>2021-08-11T07:29:08Z</time>
      </trkpt>
      <trkpt lat="44.34329" lon="3.73553">
        <ele>1078.6</ele>
        <time>2021-08-11T07:29:10Z</time>
      </trkpt>
      <trkpt lat="44.34324" lon="3.73557">
        <ele>1079.1</ele>
        <time>2021-08-11T07:29:12Z</time>
      </trkpt>
      <trkpt lat="44.3432" lon="3.7356">
        <ele>1079.7</ele>
        <time>2021-08-11T07:29:14Z</time>
      </trkpt>
      <trkpt lat="44.34316" lon="3.73564">
        <ele>1080.3</ele>
        <time>2021-08-11T07:29:16Z</time>
      </trkpt>
      <trkpt lat="44.34311" lon="3.73567">
        <ele>1080.8</ele>
        <time>2021-08-11T07:29:18Z</time>
      </trkpt>
      <trkpt lat="44.34307" lon="3.73571">
        <ele>1081.3</ele>
        <time>2021-08-11T07:29:20Z</time>
      </trkpt>
      <trkpt lat="44.34302" lon="3.73574">
        <ele>1081.7</ele>
        <time>2021-08-11T07:29:22Z</time>
      </trkpt>
      <trkpt lat="44.34298" lon="3.73577">
        <ele>1082.1</ele>
        <time>2021-08-11T07:29:24Z</time>
      </trkpt>
      <trkpt lat="44.34294" lon="3.73579">
        <ele>1082.5</ele>
        <time>2021-08-11T07:29:26Z</time>
      </trkpt>
      <trkpt lat="44.3429" lon="3.73582">
        <ele>1082.9</ele>
        <time>2021-08-11T07:29:28Z</time>
      </trkpt>
      <trkpt lat="44.34286" lon="3.73584">
        <ele>1083.2</ele>
        <time>2021-08-11T07:29:30Z</time>
      </trkpt>
      <trkpt lat="44.34282" lon="3.73588">
        <ele>1083.6</ele>
        <time>2021-08-11T07:29:32Z</time>
      </trkpt>
      <trkpt lat="44.34278" lon="3.7359">
        <ele>1083.8</ele>
        <time>2021-08-11T07:29:34Z</time>
      </trkpt>
      <trkpt lat="44.34273" lon="3.73592">
        <ele>1084.1</ele>
        <time>2021-08-11T07:29:36Z</time>
      </trkpt>
      <trkpt lat="44.34269" lon="3.73593">
        <ele>1084.3</ele>
        <time>2021-08-11T07:29:38Z</time>
      </trkpt>
      <trkpt lat="44.34264" lon="3.73593">
        <ele>1084.4</ele>
        <time>2021-08-11T07:29:40Z</time>
      </trkpt>
      <trkpt lat="44.3426" lon="3.73593">
        <ele>1084.5</ele>
        <time>2021-08-11T07:29:42Z</time>
      </trkpt>
      <trkpt lat="44.34255" lon="3.73593">
        <ele>1084.6</ele>
        <time>2021-08-11T07:29:44Z</time>
      </trkpt>
      <trkpt lat="44.3425" lon="3.73591">
        <ele>1084.5</ele>
        <time>2021-08-11T07:29:46Z</time>
      </trkpt>
      <trkpt lat="44.34246" lon="3.73588">
        <ele>1084.7</ele>
        <time>2021-08-11T07:29:48Z</time>
      </trkpt>
      <trkpt lat="44.34241" lon="3.73586">
        <ele>1085</ele>
        <time>2021-08-11T07:29:50Z</time>
      </trkpt>
      <trkpt lat="44.34237" lon="3.73583">
        <ele>1085</ele>
        <time>2021-08-11T07:29:52Z</time>
      </trkpt>
      <trkpt lat="44.34233" lon="3.7358">
        <ele>1085.1</ele>
        <time>2021-08-11T07:29:54Z</time>
      </trkpt>
      <trkpt lat="44.3423" lon="3.73579">
        <ele>1085.2</ele>
        <time>2021-08-11T07:29:56Z</time>
      </trkpt>
      <trkpt lat="44.34227" lon="3.73576">
        <ele>1085.1</ele>
        <time>2021-08-11T07:29:58Z</time>
      </trkpt>
      <trkpt lat="44.34223" lon="3.73574">
        <ele>1085.1</ele>
        <time>2021-08-11T07:30:00Z</time>
      </trkpt>
      <trkpt lat="44.3422" lon="3.7357">
        <ele>1084.9</ele>
        <time>2021-08-11T07:30:02Z</time>
      </trkpt>
      <trkpt lat="44.34216" lon="3.73567">
        <ele>1084.7</ele>
        <time>2021-08-11T07:30:04Z</time>
      </trkpt>
      <trkpt lat="44.34212" lon="3.73564">
        <ele>1084.7</ele>
        <time>2021-08-11T07:30:06Z</time>
      </trkpt>
      <trkpt lat="44.34208" lon="3.73564">
        <ele>1084.8</ele>
        <time>2021-08-11T07:30:08Z</time>
      </trkpt>
      <trkpt lat="44.34204" lon="3.73563">
        <ele>1085</ele>
        <time>2021-08-11T07:30:10Z</time>
      </trkpt>
      <trkpt lat="44.342" lon="3.73564">
        <ele>1085.3</ele>
        <time>2021-08-11T07:30:12Z</time>
      </trkpt>
      <trkpt lat="44.34195" lon="3.73565">
        <ele>1085.7</ele>
        <time>2021-08-11T07:30:14Z</time>
      </trkpt>
      <trkpt lat="44.34191" lon="3.73567">
        <ele>1086.4</ele>
        <time>2021-08-11T07:30:16Z</time>
      </trkpt>
      <trkpt lat="44.34187" lon="3.73569">
        <ele>1086.9</ele>
        <time>2021-08-11T07:30:18Z</time>
      </trkpt>
      <trkpt lat="44.34185" lon="3.7357">
        <ele>1087.2</ele>
        <time>2021-08-11T07:30:20Z</time>
      </trkpt>
      <trkpt lat="44.34186" lon="3.7357">
        <ele>1087.1</ele>
        <time>2021-08-11T07:30:22Z</time>
      </trkpt>
      <trkpt lat="44.34186" lon="3.7357">
        <ele>1087.2</ele>
        <time>2021-08-11T07:30:24Z</time>
      </trkpt>
      <trkpt lat="44.34184" lon="3.73571">
        <ele>1087.4</ele>
        <time>2021-08-11T07:30:26Z</time>
      </trkpt>
      <trkpt lat="44.34181" lon="3.73572">
        <ele>1087.8</ele>
        <time>2021-08-11T07:30:28Z</time>
      </trkpt>
      <trkpt lat="44.34177" lon="3.73573">
        <ele>1088.4</ele>
        <time>2021-08-11T07:30:30Z</time>
      </trkpt>
      <trkpt lat="44.34171" lon="3.73573">
        <ele>1088.7</ele>
        <time>2021-08-11T07:30:32Z</time>
      </trkpt>
      <trkpt lat="44.34167" lon="3.73571">
        <ele>1088.7</ele>
        <time>2021-08-11T07:30:34Z</time>
      </trkpt>
      <trkpt lat="44.34163" lon="3.7357">
        <ele>1088.7</ele>
        <time>2021-08-11T07:30:36Z</time>
      </trkpt>
      <trkpt lat="44.34158" lon="3.73569">
        <ele>1088.7</ele>
        <time>2021-08-11T07:30:38Z</time>
      </trkpt>
      <trkpt lat="44.34155" lon="3.73569">
        <ele>1088.7</ele>
        <time>2021-08-11T07:30:40Z</time>
      </trkpt>
      <trkpt lat="44.3415" lon="3.73567">
        <ele>1088.6</ele>
        <time>2021-08-11T07:30:42Z</time>
      </trkpt>
      <trkpt lat="44.34146" lon="3.73565">
        <ele>1088.4</ele>
        <time>2021-08-11T07:30:44Z</time>
      </trkpt>
      <trkpt lat="44.34141" lon="3.73563">
        <ele>1088.2</ele>
        <time>2021-08-11T07:30:46Z</time>
      </trkpt>
      <trkpt lat="44.34135" lon="3.73561">
        <ele>1088.1</ele>
        <time>2021-08-11T07:30:48Z</time>
      </trkpt>
      <trkpt lat="44.3413" lon="3.73557">
        <ele>1087.6</ele>
        <time>2021-08-11T07:30:50Z</time>
      </trkpt>
      <trkpt lat="44.34124" lon="3.73555">
        <ele>1087.5</ele>
        <time>2021-08-11T07:30:52Z</time>
      </trkpt>
      <trkpt lat="44.34117" lon="3.73553">
        <ele>1087.3</ele>
        <time>2021-08-11T07:30:54Z</time>
      </trkpt>
      <trkpt lat="44.34111" lon="3.7355">
        <ele>1087</ele>
        <time>2021-08-11T07:30:56Z</time>
      </trkpt>
      <trkpt lat="44.34103" lon="3.73549">
        <ele>1087.1</ele>
        <time>2021-08-11T07:30:58Z</time>
      </trkpt>
      <trkpt lat="44.34095" lon="3.73549">
        <ele>1087.5</ele>
        <time>2021-08-11T07:31:00Z</time>
      </trkpt>
      <trkpt lat="44.34086" lon="3.7355">
        <ele>1088.1</ele>
        <time>2021-08-11T07:31:02Z</time>
      </trkpt>
      <trkpt lat="44.34077" lon="3.73552">
        <ele>1088.8</ele>
        <time>2021-08-11T07:31:04Z</time>
      </trkpt>
      <trkpt lat="44.34068" lon="3.73554">
        <ele>1089.5</ele>
        <time>2021-08-11T07:31:06Z</time>
      </trkpt>
      <trkpt lat="44.3406" lon="3.73557">
        <ele>1090.2</ele>
        <time>2021-08-11T07:31:08Z</time>
      </trkpt>
      <trkpt lat="44.34051" lon="3.73559">
        <ele>1090.7</ele>
        <time>2021-08-11T07:31:10Z</time>
      </trkpt>
      <trkpt lat="44.34043" lon="3.7356">
        <ele>1091.1</ele>
        <time>2021-08-11T07:31:12Z</time>
      </trkpt>
      <trkpt lat="44.34035" lon="3.7356">
        <ele>1091.2</ele>
        <time>2021-08-11T07:31:14Z</time>
      </trkpt>
      <trkpt lat="44.34027" lon="3.73557">
        <ele>1091</ele>
        <time>2021-08-11T07:31:16Z</time>
      </trkpt>
      <trkpt lat="44.3402" lon="3.73551">
        <ele>1090.6</ele>
        <time>2021-08-11T07:31:18Z</time>
      </trkpt>
      <trkpt lat="44.34013" lon="3.73545">
        <ele>1090.2</ele>
        <time>2021-08-11T07:31:20Z</time>
      </trkpt>
      <trkpt lat="44.34008" lon="3.73536">
        <ele>1089.6</ele>
        <time>2021-08-11T07:31:22Z</time>
      </trkpt>
      <trkpt lat="44.34005" lon="3.73527">
        <ele>1088.9</ele>
        <time>2021-08-11T07:31:24Z</time>
      </trkpt>
      <trkpt lat="44.34003" lon="3.73516">
        <ele>1088.1</ele>
        <time>2021-08-11T07:31:26Z</time>
      </trkpt>
      <trkpt lat="44.34001" lon="3.73507">
        <ele>1087.5</ele>
        <time>2021-08-11T07:31:28Z</time>
      </trkpt>
      <trkpt lat="44.34" lon="3.73497">
        <ele>1087.1</ele>
        <time>2021-08-11T07:31:30Z</time>
      </trkpt>
      <trkpt lat="44.34" lon="3.73489">
        <ele>1087.5</ele>
        <time>2021-08-11T07:31:32Z</time>
      </trkpt>
      <trkpt lat="44.34001" lon="3.73481">
        <ele>1087.8</ele>
        <time>2021-08-11T07:31:34Z</time>
      </trkpt>
      <trkpt lat="44.34" lon="3.73474">
        <ele>1088.3</ele>
        <time>2021-08-11T07:31:36Z</time>
      </trkpt>
      <trkpt lat="44.34" lon="3.73468">
        <ele>1088.5</ele>
        <time>2021-08-11T07:31:38Z</time>
      </trkpt>
      <trkpt lat="44.33999" lon="3.73461">
        <ele>1088.9</ele>
        <time>2021-08-11T07:31:40Z</time>
      </trkpt>
      <trkpt lat="44.33998" lon="3.73455">
        <ele>1089.4</ele>
        <time>2021-08-11T07:31:42Z</time>
      </trkpt>
      <trkpt lat="44.33997" lon="3.73449">
        <ele>1089.8</ele>
        <time>2021-08-11T07:31:44Z</time>
      </trkpt>
      <trkpt lat="44.33996" lon="3.73443">
        <ele>1090.2</ele>
        <time>2021-08-11T07:31:46Z</time>
      </trkpt>
      <trkpt lat="44.33995" lon="3.73437">
        <ele>1090.6</ele>
        <time>2021-08-11T07:31:48Z</time>
      </trkpt>
      <trkpt lat="44.33993" lon="3.73431">
        <ele>1091.1</ele>
        <time>2021-08-11T07:31:50Z</time>
      </trkpt>
      <trkpt lat="44.33992" lon="3.73426">
        <ele>1091.5</ele>
        <time>2021-08-11T07:31:52Z</time>
      </trkpt>
      <trkpt lat="44.33991" lon="3.73421">
        <ele>1091.8</ele>
        <time>2021-08-11T07:31:54Z</time>
      </trkpt>
      <trkpt lat="44.33989" lon="3.73415">
        <ele>1092.2</ele>
        <time>2021-08-11T07:31:56Z</time>
      </trkpt>
      <trkpt lat="44.33988" lon="3.73411">
        <ele>1092.4</ele>
        <time>2021-08-11T07:31:58Z</time>
      </trkpt>
      <trkpt lat="44.33986" lon="3.73405">
        <ele>1092.8</ele>
        <time>2021-08-11T07:32:00Z</time>
      </trkpt>
      <trkpt lat="44.33985" lon="3.73398">
        <ele>1093.1</ele>
        <time>2021-08-11T07:32:02Z</time>
      </trkpt>
      <trkpt lat="44.33983" lon="3.73392">
        <ele>1093.4</ele>
        <time>2021-08-11T07:32:04Z</time>
      </trkpt>
      <trkpt lat="44.33981" lon="3.73386">
        <ele>1093.7</ele>
        <time>2021-08-11T07:32:06Z</time>
      </trkpt>
      <trkpt lat="44.33979" lon="3.7338">
        <ele>1094</ele>
        <time>2021-08-11T07:32:08Z</time>
      </trkpt>
      <trkpt lat="44.33977" lon="3.73375">
        <ele>1094.3</ele>
        <time>2021-08-11T07:32:10Z</time>
      </trkpt>
      <trkpt lat="44.33973" lon="3.7337">
        <ele>1094.7</ele>
        <time>2021-08-11T07:32:12Z</time>
      </trkpt>
      <trkpt lat="44.3397" lon="3.73366">
        <ele>1094.9</ele>
        <time>2021-08-11T07:32:14Z</time>
      </trkpt>
      <trkpt lat="44.33967" lon="3.73362">
        <ele>1095.2</ele>
        <time>2021-08-11T07:32:16Z</time>
      </trkpt>
      <trkpt lat="44.33963" lon="3.73358">
        <ele>1095.5</ele>
        <time>2021-08-11T07:32:18Z</time>
      </trkpt>
      <trkpt lat="44.33959" lon="3.73352">
        <ele>1095.8</ele>
        <time>2021-08-11T07:32:20Z</time>
      </trkpt>
      <trkpt lat="44.33955" lon="3.73348">
        <ele>1096.1</ele>
        <time>2021-08-11T07:32:22Z</time>
      </trkpt>
      <trkpt lat="44.3395" lon="3.73342">
        <ele>1096.4</ele>
        <time>2021-08-11T07:32:24Z</time>
      </trkpt>
      <trkpt lat="44.33946" lon="3.73336">
        <ele>1096.6</ele>
        <time>2021-08-11T07:32:26Z</time>
      </trkpt>
      <trkpt lat="44.33941" lon="3.7333">
        <ele>1096.8</ele>
        <time>2021-08-11T07:32:28Z</time>
      </trkpt>
      <trkpt lat="44.33936" lon="3.73323">
        <ele>1097</ele>
        <time>2021-08-11T07:32:30Z</time>
      </trkpt>
      <trkpt lat="44.33932" lon="3.73319">
        <ele>1097.2</ele>
        <time>2021-08-11T07:32:32Z</time>
      </trkpt>
      <trkpt lat="44.33926" lon="3.7331">
        <ele>1097.4</ele>
        <time>2021-08-11T07:32:34Z</time>
      </trkpt>
      <trkpt lat="44.33922" lon="3.73303">
        <ele>1097.7</ele>
        <time>2021-08-11T07:32:36Z</time>
      </trkpt>
      <trkpt lat="44.33917" lon="3.73296">
        <ele>1098</ele>
        <time>2021-08-11T07:32:38Z</time>
      </trkpt>
      <trkpt lat="44.33912" lon="3.73289">
        <ele>1098</ele>
        <time>2021-08-11T07:32:40Z</time>
      </trkpt>
      <trkpt lat="44.33908" lon="3.73283">
        <ele>1098</ele>
        <time>2021-08-11T07:32:42Z</time>
      </trkpt>
      <trkpt lat="44.33903" lon="3.73276">
        <ele>1098</ele>
        <time>2021-08-11T07:32:44Z</time>
      </trkpt>
      <trkpt lat="44.33899" lon="3.7327">
        <ele>1098</ele>
        <time>2021-08-11T07:32:46Z</time>
      </trkpt>
      <trkpt lat="44.33894" lon="3.73264">
        <ele>1098</ele>
        <time>2021-08-11T07:32:48Z</time>
      </trkpt>
      <trkpt lat="44.33889" lon="3.73256">
        <ele>1098</ele>
        <time>2021-08-11T07:32:50Z</time>
      </trkpt>
      <trkpt lat="44.33885" lon="3.7325">
        <ele>1098</ele>
        <time>2021-08-11T07:32:52Z</time>
      </trkpt>
      <trkpt lat="44.33882" lon="3.73242">
        <ele>1098</ele>
        <time>2021-08-11T07:32:54Z</time>
      </trkpt>
      <trkpt lat="44.33876" lon="3.73236">
        <ele>1098.1</ele>
        <time>2021-08-11T07:32:56Z</time>
      </trkpt>
      <trkpt lat="44.33873" lon="3.7323">
        <ele>1098.1</ele>
        <time>2021-08-11T07:32:58Z</time>
      </trkpt>
      <trkpt lat="44.33868" lon="3.73224">
        <ele>1098.2</ele>
        <time>2021-08-11T07:33:00Z</time>
      </trkpt>
      <trkpt lat="44.33864" lon="3.73218">
        <ele>1098.2</ele>
        <time>2021-08-11T07:33:02Z</time>
      </trkpt>
      <trkpt lat="44.33861" lon="3.73211">
        <ele>1098.3</ele>
        <time>2021-08-11T07:33:04Z</time>
      </trkpt>
      <trkpt lat="44.33857" lon="3.73203">
        <ele>1098.4</ele>
        <time>2021-08-11T07:33:06Z</time>
      </trkpt>
      <trkpt lat="44.33856" lon="3.73194">
        <ele>1098.5</ele>
        <time>2021-08-11T07:33:08Z</time>
      </trkpt>
      <trkpt lat="44.33852" lon="3.73184">
        <ele>1098.6</ele>
        <time>2021-08-11T07:33:10Z</time>
      </trkpt>
      <trkpt lat="44.33851" lon="3.73175">
        <ele>1098.7</ele>
        <time>2021-08-11T07:33:12Z</time>
      </trkpt>
      <trkpt lat="44.33851" lon="3.73165">
        <ele>1098.9</ele>
        <time>2021-08-11T07:33:14Z</time>
      </trkpt>
      <trkpt lat="44.33851" lon="3.73156">
        <ele>1099.2</ele>
        <time>2021-08-11T07:33:16Z</time>
      </trkpt>
      <trkpt lat="44.33851" lon="3.73146">
        <ele>1099.6</ele>
        <time>2021-08-11T07:33:18Z</time>
      </trkpt>
      <trkpt lat="44.3385" lon="3.73136">
        <ele>1100</ele>
        <time>2021-08-11T07:33:20Z</time>
      </trkpt>
      <trkpt lat="44.33849" lon="3.73126">
        <ele>1100.3</ele>
        <time>2021-08-11T07:33:22Z</time>
      </trkpt>
      <trkpt lat="44.33848" lon="3.73117">
        <ele>1100.7</ele>
        <time>2021-08-11T07:33:24Z</time>
      </trkpt>
      <trkpt lat="44.33846" lon="3.73109">
        <ele>1101</ele>
        <time>2021-08-11T07:33:26Z</time>
      </trkpt>
      <trkpt lat="44.33844" lon="3.73101">
        <ele>1101.3</ele>
        <time>2021-08-11T07:33:28Z</time>
      </trkpt>
      <trkpt lat="44.33841" lon="3.73094">
        <ele>1101.6</ele>
        <time>2021-08-11T07:33:30Z</time>
      </trkpt>
      <trkpt lat="44.33838" lon="3.73086">
        <ele>1101.9</ele>
        <time>2021-08-11T07:33:32Z</time>
      </trkpt>
      <trkpt lat="44.33835" lon="3.7308">
        <ele>1102.2</ele>
        <time>2021-08-11T07:33:34Z</time>
      </trkpt>
      <trkpt lat="44.33831" lon="3.73075">
        <ele>1102.4</ele>
        <time>2021-08-11T07:33:36Z</time>
      </trkpt>
      <trkpt lat="44.33826" lon="3.7307">
        <ele>1102.4</ele>
        <time>2021-08-11T07:33:38Z</time>
      </trkpt>
      <trkpt lat="44.33822" lon="3.73067">
        <ele>1102.5</ele>
        <time>2021-08-11T07:33:40Z</time>
      </trkpt>
      <trkpt lat="44.33819" lon="3.73062">
        <ele>1102.6</ele>
        <time>2021-08-11T07:33:42Z</time>
      </trkpt>
      <trkpt lat="44.33814" lon="3.73057">
        <ele>1102.7</ele>
        <time>2021-08-11T07:33:44Z</time>
      </trkpt>
      <trkpt lat="44.33812" lon="3.73054">
        <ele>1102.7</ele>
        <time>2021-08-11T07:33:46Z</time>
      </trkpt>
      <trkpt lat="44.33809" lon="3.73049">
        <ele>1102.8</ele>
        <time>2021-08-11T07:33:48Z</time>
      </trkpt>
      <trkpt lat="44.33805" lon="3.73046">
        <ele>1102.8</ele>
        <time>2021-08-11T07:33:50Z</time>
      </trkpt>
      <trkpt lat="44.33801" lon="3.73042">
        <ele>1102.8</ele>
        <time>2021-08-11T07:33:52Z</time>
      </trkpt>
      <trkpt lat="44.33797" lon="3.73037">
        <ele>1102.9</ele>
        <time>2021-08-11T07:33:54Z</time>
      </trkpt>
      <trkpt lat="44.33794" lon="3.73033">
        <ele>1102.9</ele>
        <time>2021-08-11T07:33:56Z</time>
      </trkpt>
      <trkpt lat="44.33791" lon="3.73028">
        <ele>1102.9</ele>
        <time>2021-08-11T07:33:58Z</time>
      </trkpt>
      <trkpt lat="44.33788" lon="3.73022">
        <ele>1103</ele>
        <time>2021-08-11T07:34:00Z</time>
      </trkpt>
      <trkpt lat="44.33785" lon="3.73016">
        <ele>1103.1</ele>
        <time>2021-08-11T07:34:02Z</time>
      </trkpt>
      <trkpt lat="44.33783" lon="3.73009">
        <ele>1103.3</ele>
        <time>2021-08-11T07:34:04Z</time>
      </trkpt>
      <trkpt lat="44.33781" lon="3.73003">
        <ele>1103.4</ele>
        <time>2021-08-11T07:34:06Z</time>
      </trkpt>
      <trkpt lat="44.33781" lon="3.72994">
        <ele>1103.4</ele>
        <time>2021-08-11T07:34:08Z</time>
      </trkpt>
      <trkpt lat="44.33781" lon="3.72985">
        <ele>1103.4</ele>
        <time>2021-08-11T07:34:10Z</time>
      </trkpt>
      <trkpt lat="44.33781" lon="3.72975">
        <ele>1103.4</ele>
        <time>2021-08-11T07:34:12Z</time>
      </trkpt>
      <trkpt lat="44.3378" lon="3.72964">
        <ele>1103.3</ele>
        <time>2021-08-11T07:34:14Z</time>
      </trkpt>
      <trkpt lat="44.33778" lon="3.72953">
        <ele>1103.2</ele>
        <time>2021-08-11T07:34:16Z</time>
      </trkpt>
      <trkpt lat="44.33776" lon="3.72942">
        <ele>1103</ele>
        <time>2021-08-11T07:34:18Z</time>
      </trkpt>
      <trkpt lat="44.33774" lon="3.72933">
        <ele>1102.8</ele>
        <time>2021-08-11T07:34:20Z</time>
      </trkpt>
      <trkpt lat="44.33771" lon="3.72922">
        <ele>1102.5</ele>
        <time>2021-08-11T07:34:22Z</time>
      </trkpt>
      <trkpt lat="44.33767" lon="3.72913">
        <ele>1102.4</ele>
        <time>2021-08-11T07:34:24Z</time>
      </trkpt>
      <trkpt lat="44.33762" lon="3.72903">
        <ele>1102.4</ele>
        <time>2021-08-11T07:34:26Z</time>
      </trkpt>
      <trkpt lat="44.33756" lon="3.72896">
        <ele>1102.4</ele>
        <time>2021-08-11T07:34:28Z</time>
      </trkpt>
      <trkpt lat="44.3375" lon="3.7289">
        <ele>1102.3</ele>
        <time>2021-08-11T07:34:30Z</time>
      </trkpt>
      <trkpt lat="44.33743" lon="3.72885">
        <ele>1102.4</ele>
        <time>2021-08-11T07:34:32Z</time>
      </trkpt>
      <trkpt lat="44.33736" lon="3.72879">
        <ele>1102.5</ele>
        <time>2021-08-11T07:34:34Z</time>
      </trkpt>
      <trkpt lat="44.3373" lon="3.72876">
        <ele>1102.6</ele>
        <time>2021-08-11T07:34:36Z</time>
      </trkpt>
      <trkpt lat="44.33723" lon="3.72871">
        <ele>1102.8</ele>
        <time>2021-08-11T07:34:38Z</time>
      </trkpt>
      <trkpt lat="44.33717" lon="3.72867">
        <ele>1103</ele>
        <time>2021-08-11T07:34:40Z</time>
      </trkpt>
      <trkpt lat="44.33711" lon="3.72864">
        <ele>1103.1</ele>
        <time>2021-08-11T07:34:42Z</time>
      </trkpt>
      <trkpt lat="44.33705" lon="3.72861">
        <ele>1103.3</ele>
        <time>2021-08-11T07:34:44Z</time>
      </trkpt>
      <trkpt lat="44.33699" lon="3.72858">
        <ele>1103.5</ele>
        <time>2021-08-11T07:34:46Z</time>
      </trkpt>
      <trkpt lat="44.33694" lon="3.72854">
        <ele>1103.8</ele>
        <time>2021-08-11T07:34:48Z</time>
      </trkpt>
      <trkpt lat="44.33688" lon="3.7285">
        <ele>1104.2</ele>
        <time>2021-08-11T07:34:50Z</time>
      </trkpt>
      <trkpt lat="44.33683" lon="3.72845">
        <ele>1104.6</ele>
        <time>2021-08-11T07:34:52Z</time>
      </trkpt>
      <trkpt lat="44.33677" lon="3.72842">
        <ele>1105</ele>
        <time>2021-08-11T07:34:54Z</time>
      </trkpt>
      <trkpt lat="44.33671" lon="3.72838">
        <ele>1105.4</ele>
        <time>2021-08-11T07:34:56Z</time>
      </trkpt>
      <trkpt lat="44.33664" lon="3.72832">
        <ele>1105.9</ele>
        <time>2021-08-11T07:34:58Z</time>
      </trkpt>
      <trkpt lat="44.33657" lon="3.72826">
        <ele>1106</ele>
        <time>2021-08-11T07:35:00Z</time>
      </trkpt>
      <trkpt lat="44.33651" lon="3.72816">
        <ele>1106.5</ele>
        <time>2021-08-11T07:35:02Z</time>
      </trkpt>
      <trkpt lat="44.33644" lon="3.72807">
        <ele>1106.8</ele>
        <time>2021-08-11T07:35:04Z</time>
      </trkpt>
      <trkpt lat="44.33635" lon="3.728">
        <ele>1107</ele>
        <time>2021-08-11T07:35:06Z</time>
      </trkpt>
      <trkpt lat="44.33627" lon="3.72792">
        <ele>1107.3</ele>
        <time>2021-08-11T07:35:08Z</time>
      </trkpt>
      <trkpt lat="44.33618" lon="3.72783">
        <ele>1107.8</ele>
        <time>2021-08-11T07:35:10Z</time>
      </trkpt>
      <trkpt lat="44.3361" lon="3.72776">
        <ele>1108.1</ele>
        <time>2021-08-11T07:35:12Z</time>
      </trkpt>
      <trkpt lat="44.33602" lon="3.72772">
        <ele>1108.2</ele>
        <time>2021-08-11T07:35:14Z</time>
      </trkpt>
      <trkpt lat="44.33594" lon="3.72771">
        <ele>1108</ele>
        <time>2021-08-11T07:35:16Z</time>
      </trkpt>
      <trkpt lat="44.33585" lon="3.72769">
        <ele>1107.8</ele>
        <time>2021-08-11T07:35:18Z</time>
      </trkpt>
      <trkpt lat="44.33579" lon="3.72775">
        <ele>1107.1</ele>
        <time>2021-08-11T07:35:20Z</time>
      </trkpt>
      <trkpt lat="44.33574" lon="3.7278">
        <ele>1106.5</ele>
        <time>2021-08-11T07:35:22Z</time>
      </trkpt>
      <trkpt lat="44.33568" lon="3.72786">
        <ele>1106.1</ele>
        <time>2021-08-11T07:35:24Z</time>
      </trkpt>
      <trkpt lat="44.33564" lon="3.7279">
        <ele>1105.8</ele>
        <time>2021-08-11T07:35:26Z</time>
      </trkpt>
      <trkpt lat="44.3356" lon="3.72792">
        <ele>1105.7</ele>
        <time>2021-08-11T07:35:28Z</time>
      </trkpt>
      <trkpt lat="44.33556" lon="3.72795">
        <ele>1105.5</ele>
        <time>2021-08-11T07:35:30Z</time>
      </trkpt>
      <trkpt lat="44.33551" lon="3.72797">
        <ele>1105.4</ele>
        <time>2021-08-11T07:35:32Z</time>
      </trkpt>
      <trkpt lat="44.33546" lon="3.728">
        <ele>1105.4</ele>
        <time>2021-08-11T07:35:34Z</time>
      </trkpt>
      <trkpt lat="44.33542" lon="3.72802">
        <ele>1105.3</ele>
        <time>2021-08-11T07:35:36Z</time>
      </trkpt>
      <trkpt lat="44.33536" lon="3.72804">
        <ele>1105.3</ele>
        <time>2021-08-11T07:35:38Z</time>
      </trkpt>
      <trkpt lat="44.33531" lon="3.72807">
        <ele>1105.4</ele>
        <time>2021-08-11T07:35:40Z</time>
      </trkpt>
      <trkpt lat="44.33525" lon="3.72808">
        <ele>1105.4</ele>
        <time>2021-08-11T07:35:42Z</time>
      </trkpt>
      <trkpt lat="44.3352" lon="3.72808">
        <ele>1105.7</ele>
        <time>2021-08-11T07:35:44Z</time>
      </trkpt>
      <trkpt lat="44.33515" lon="3.72806">
        <ele>1106.1</ele>
        <time>2021-08-11T07:35:46Z</time>
      </trkpt>
      <trkpt lat="44.3351" lon="3.72803">
        <ele>1106.4</ele>
        <time>2021-08-11T07:35:48Z</time>
      </trkpt>
      <trkpt lat="44.33504" lon="3.72799">
        <ele>1106.9</ele>
        <time>2021-08-11T07:35:50Z</time>
      </trkpt>
      <trkpt lat="44.335" lon="3.72794">
        <ele>1107.3</ele>
        <time>2021-08-11T07:35:52Z</time>
      </trkpt>
      <trkpt lat="44.33494" lon="3.7279">
        <ele>1107.3</ele>
        <time>2021-08-11T07:35:54Z</time>
      </trkpt>
      <trkpt lat="44.3349" lon="3.72784">
        <ele>1107.5</ele>
        <time>2021-08-11T07:35:56Z</time>
      </trkpt>
      <trkpt lat="44.33484" lon="3.72775">
        <ele>1107.5</ele>
        <time>2021-08-11T07:35:58Z</time>
      </trkpt>
      <trkpt lat="44.33479" lon="3.72762">
        <ele>1107.8</ele>
        <time>2021-08-11T07:36:00Z</time>
      </trkpt>
      <trkpt lat="44.33474" lon="3.72749">
        <ele>1107.8</ele>
        <time>2021-08-11T07:36:02Z</time>
      </trkpt>
      <trkpt lat="44.33468" lon="3.72734">
        <ele>1107.2</ele>
        <time>2021-08-11T07:36:04Z</time>
      </trkpt>
      <trkpt lat="44.33462" lon="3.72719">
        <ele>1106.6</ele>
        <time>2021-08-11T07:36:06Z</time>
      </trkpt>
      <trkpt lat="44.33457" lon="3.72703">
        <ele>1105.7</ele>
        <time>2021-08-11T07:36:08Z</time>
      </trkpt>
      <trkpt lat="44.33453" lon="3.72686">
        <ele>1105.1</ele>
        <time>2021-08-11T07:36:10Z</time>
      </trkpt>
      <trkpt lat="44.33452" lon="3.72669">
        <ele>1104.5</ele>
        <time>2021-08-11T07:36:12Z</time>
      </trkpt>
      <trkpt lat="44.33452" lon="3.72649">
        <ele>1104.1</ele>
        <time>2021-08-11T07:36:14Z</time>
      </trkpt>
      <trkpt lat="44.33454" lon="3.72631">
        <ele>1104</ele>
        <time>2021-08-11T07:36:16Z</time>
      </trkpt>
      <trkpt lat="44.33454" lon="3.72613">
        <ele>1103.7</ele>
        <time>2021-08-11T07:36:18Z</time>
      </trkpt>
      <trkpt lat="44.3345" lon="3.72596">
        <ele>1102.7</ele>
        <time>2021-08-11T07:36:20Z</time>
      </trkpt>
      <trkpt lat="44.33442" lon="3.72578">
        <ele>1101.1</ele>
        <time>2021-08-11T07:36:22Z</time>
      </trkpt>
      <trkpt lat="44.33435" lon="3.72556">
        <ele>1099.1</ele>
        <time>2021-08-11T07:36:24Z</time>
      </trkpt>
      <trkpt lat="44.33431" lon="3.72531">
        <ele>1097.6</ele>
        <time>2021-08-11T07:36:26Z</time>
      </trkpt>
      <trkpt lat="44.33429" lon="3.72506">
        <ele>1096.3</ele>
        <time>2021-08-11T07:36:28Z</time>
      </trkpt>
      <trkpt lat="44.33425" lon="3.72481">
        <ele>1094.9</ele>
        <time>2021-08-11T07:36:30Z</time>
      </trkpt>
      <trkpt lat="44.3342" lon="3.72456">
        <ele>1093.6</ele>
        <time>2021-08-11T07:36:32Z</time>
      </trkpt>
      <trkpt lat="44.33416" lon="3.72431">
        <ele>1092.5</ele>
        <time>2021-08-11T07:36:34Z</time>
      </trkpt>
      <trkpt lat="44.33411" lon="3.72407">
        <ele>1091.2</ele>
        <time>2021-08-11T07:36:36Z</time>
      </trkpt>
      <trkpt lat="44.33409" lon="3.72387">
        <ele>1090.4</ele>
        <time>2021-08-11T07:36:38Z</time>
      </trkpt>
      <trkpt lat="44.33406" lon="3.72371">
        <ele>1089.7</ele>
        <time>2021-08-11T07:36:40Z</time>
      </trkpt>
      <trkpt lat="44.33401" lon="3.72361">
        <ele>1089</ele>
        <time>2021-08-11T07:36:42Z</time>
      </trkpt>
      <trkpt lat="44.33391" lon="3.72359">
        <ele>1088.4</ele>
        <time>2021-08-11T07:36:44Z</time>
      </trkpt>
      <trkpt lat="44.33384" lon="3.7236">
        <ele>1088</ele>
        <time>2021-08-11T07:36:46Z</time>
      </trkpt>
      <trkpt lat="44.33378" lon="3.72363">
        <ele>1087.7</ele>
        <time>2021-08-11T07:36:48Z</time>
      </trkpt>
      <trkpt lat="44.33372" lon="3.72364">
        <ele>1087.4</ele>
        <time>2021-08-11T07:36:50Z</time>
      </trkpt>
      <trkpt lat="44.33367" lon="3.72365">
        <ele>1087.1</ele>
        <time>2021-08-11T07:36:52Z</time>
      </trkpt>
      <trkpt lat="44.33362" lon="3.72366">
        <ele>1086.8</ele>
        <time>2021-08-11T07:36:54Z</time>
      </trkpt>
      <trkpt lat="44.33359" lon="3.72365">
        <ele>1086.6</ele>
        <time>2021-08-11T07:36:56Z</time>
      </trkpt>
      <trkpt lat="44.33357" lon="3.72362">
        <ele>1086.4</ele>
        <time>2021-08-11T07:36:58Z</time>
      </trkpt>
      <trkpt lat="44.33359" lon="3.72356">
        <ele>1086.5</ele>
        <time>2021-08-11T07:37:00Z</time>
      </trkpt>
      <trkpt lat="44.33363" lon="3.7235">
        <ele>1086.6</ele>
        <time>2021-08-11T07:37:02Z</time>
      </trkpt>
      <trkpt lat="44.33368" lon="3.72345">
        <ele>1086.8</ele>
        <time>2021-08-11T07:37:04Z</time>
      </trkpt>
      <trkpt lat="44.33374" lon="3.7234">
        <ele>1087.1</ele>
        <time>2021-08-11T07:37:06Z</time>
      </trkpt>
      <trkpt lat="44.3338" lon="3.72336">
        <ele>1087.3</ele>
        <time>2021-08-11T07:37:08Z</time>
      </trkpt>
      <trkpt lat="44.33384" lon="3.72331">
        <ele>1087.4</ele>
        <time>2021-08-11T07:37:10Z</time>
      </trkpt>
      <trkpt lat="44.33388" lon="3.72326">
        <ele>1087.4</ele>
        <time>2021-08-11T07:37:12Z</time>
      </trkpt>
      <trkpt lat="44.33393" lon="3.72322">
        <ele>1087.5</ele>
        <time>2021-08-11T07:37:14Z</time>
      </trkpt>
      <trkpt lat="44.33398" lon="3.72318">
        <ele>1087.6</ele>
        <time>2021-08-11T07:37:16Z</time>
      </trkpt>
      <trkpt lat="44.33402" lon="3.72315">
        <ele>1087.7</ele>
        <time>2021-08-11T07:37:18Z</time>
      </trkpt>
      <trkpt lat="44.33406" lon="3.72313">
        <ele>1087.8</ele>
        <time>2021-08-11T07:37:20Z</time>
      </trkpt>
      <trkpt lat="44.33412" lon="3.72311">
        <ele>1088</ele>
        <time>2021-08-11T07:37:22Z</time>
      </trkpt>
      <trkpt lat="44.33417" lon="3.72311">
        <ele>1088.2</ele>
        <time>2021-08-11T07:37:24Z</time>
      </trkpt>
      <trkpt lat="44.33423" lon="3.72311">
        <ele>1088.2</ele>
        <time>2021-08-11T07:37:26Z</time>
      </trkpt>
      <trkpt lat="44.33429" lon="3.72311">
        <ele>1088.2</ele>
        <time>2021-08-11T07:37:28Z</time>
      </trkpt>
      <trkpt lat="44.33435" lon="3.72313">
        <ele>1088.3</ele>
        <time>2021-08-11T07:37:30Z</time>
      </trkpt>
      <trkpt lat="44.33441" lon="3.72315">
        <ele>1088.4</ele>
        <time>2021-08-11T07:37:32Z</time>
      </trkpt>
      <trkpt lat="44.33448" lon="3.72319">
        <ele>1088.6</ele>
        <time>2021-08-11T07:37:34Z</time>
      </trkpt>
      <trkpt lat="44.33455" lon="3.72325">
        <ele>1088.7</ele>
        <time>2021-08-11T07:37:36Z</time>
      </trkpt>
      <trkpt lat="44.33463" lon="3.72331">
        <ele>1088.9</ele>
        <time>2021-08-11T07:37:38Z</time>
      </trkpt>
      <trkpt lat="44.33472" lon="3.72336">
        <ele>1089.1</ele>
        <time>2021-08-11T07:37:40Z</time>
      </trkpt>
      <trkpt lat="44.33479" lon="3.72341">
        <ele>1089.5</ele>
        <time>2021-08-11T07:37:42Z</time>
      </trkpt>
      <trkpt lat="44.33488" lon="3.72343">
        <ele>1089.6</ele>
        <time>2021-08-11T07:37:44Z</time>
      </trkpt>
      <trkpt lat="44.33496" lon="3.72345">
        <ele>1089.8</ele>
        <time>2021-08-11T07:37:46Z</time>
      </trkpt>
      <trkpt lat="44.33504" lon="3.72346">
        <ele>1090</ele>
        <time>2021-08-11T07:37:48Z</time>
      </trkpt>
      <trkpt lat="44.33512" lon="3.72346">
        <ele>1090.3</ele>
        <time>2021-08-11T07:37:50Z</time>
      </trkpt>
      <trkpt lat="44.3352" lon="3.72346">
        <ele>1090.5</ele>
        <time>2021-08-11T07:37:52Z</time>
      </trkpt>
      <trkpt lat="44.33526" lon="3.72345">
        <ele>1090.6</ele>
        <time>2021-08-11T07:37:54Z</time>
      </trkpt>
      <trkpt lat="44.33533" lon="3.72345">
        <ele>1090.8</ele>
        <time>2021-08-11T07:37:56Z</time>
      </trkpt>
      <trkpt lat="44.3354" lon="3.72344">
        <ele>1090.9</ele>
        <time>2021-08-11T07:37:58Z</time>
      </trkpt>
      <trkpt lat="44.33548" lon="3.72342">
        <ele>1091</ele>
        <time>2021-08-11T07:38:00Z</time>
      </trkpt>
      <trkpt lat="44.33555" lon="3.72339">
        <ele>1090.9</ele>
        <time>2021-08-11T07:38:02Z</time>
      </trkpt>
      <trkpt lat="44.33563" lon="3.72333">
        <ele>1090.5</ele>
        <time>2021-08-11T07:38:04Z</time>
      </trkpt>
      <trkpt lat="44.3357" lon="3.72329">
        <ele>1090.7</ele>
        <time>2021-08-11T07:38:06Z</time>
      </trkpt>
      <trkpt lat="44.33576" lon="3.72324">
        <ele>1090.8</ele>
        <time>2021-08-11T07:38:08Z</time>
      </trkpt>
      <trkpt lat="44.33584" lon="3.7232">
        <ele>1091</ele>
        <time>2021-08-11T07:38:10Z</time>
      </trkpt>
      <trkpt lat="44.3359" lon="3.72316">
        <ele>1091.4</ele>
        <time>2021-08-11T07:38:12Z</time>
      </trkpt>
      <trkpt lat="44.33598" lon="3.72311">
        <ele>1091.7</ele>
        <time>2021-08-11T07:38:14Z</time>
      </trkpt>
      <trkpt lat="44.33605" lon="3.72305">
        <ele>1092</ele>
        <time>2021-08-11T07:38:16Z</time>
      </trkpt>
      <trkpt lat="44.33613" lon="3.723">
        <ele>1092.3</ele>
        <time>2021-08-11T07:38:18Z</time>
      </trkpt>
      <trkpt lat="44.3362" lon="3.72292">
        <ele>1092.6</ele>
        <time>2021-08-11T07:38:20Z</time>
      </trkpt>
      <trkpt lat="44.33629" lon="3.72285">
        <ele>1092.8</ele>
        <time>2021-08-11T07:38:22Z</time>
      </trkpt>
      <trkpt lat="44.33635" lon="3.72278">
        <ele>1092.9</ele>
        <time>2021-08-11T07:38:24Z</time>
      </trkpt>
      <trkpt lat="44.33643" lon="3.72271">
        <ele>1093</ele>
        <time>2021-08-11T07:38:26Z</time>
      </trkpt>
      <trkpt lat="44.33647" lon="3.72263">
        <ele>1092.9</ele>
        <time>2021-08-11T07:38:28Z</time>
      </trkpt>
      <trkpt lat="44.33652" lon="3.72259">
        <ele>1092.9</ele>
        <time>2021-08-11T07:38:30Z</time>
      </trkpt>
      <trkpt lat="44.33657" lon="3.72254">
        <ele>1092.9</ele>
        <time>2021-08-11T07:38:32Z</time>
      </trkpt>
      <trkpt lat="44.33661" lon="3.72252">
        <ele>1092.9</ele>
        <time>2021-08-11T07:38:34Z</time>
      </trkpt>
      <trkpt lat="44.33668" lon="3.72248">
        <ele>1093.2</ele>
        <time>2021-08-11T07:38:36Z</time>
      </trkpt>
      <trkpt lat="44.33673" lon="3.72243">
        <ele>1093.8</ele>
        <time>2021-08-11T07:38:38Z</time>
      </trkpt>
      <trkpt lat="44.33677" lon="3.72237">
        <ele>1094.3</ele>
        <time>2021-08-11T07:38:40Z</time>
      </trkpt>
      <trkpt lat="44.33681" lon="3.72232">
        <ele>1094.8</ele>
        <time>2021-08-11T07:38:42Z</time>
      </trkpt>
      <trkpt lat="44.33685" lon="3.72226">
        <ele>1095.3</ele>
        <time>2021-08-11T07:38:44Z</time>
      </trkpt>
      <trkpt lat="44.33688" lon="3.72222">
        <ele>1095.6</ele>
        <time>2021-08-11T07:38:46Z</time>
      </trkpt>
      <trkpt lat="44.33691" lon="3.72215">
        <ele>1096</ele>
        <time>2021-08-11T07:38:48Z</time>
      </trkpt>
      <trkpt lat="44.33693" lon="3.72209">
        <ele>1096.4</ele>
        <time>2021-08-11T07:38:50Z</time>
      </trkpt>
      <trkpt lat="44.33696" lon="3.72204">
        <ele>1096.8</ele>
        <time>2021-08-11T07:38:52Z</time>
      </trkpt>
      <trkpt lat="44.33698" lon="3.72198">
        <ele>1097</ele>
        <time>2021-08-11T07:38:54Z</time>
      </trkpt>
      <trkpt lat="44.337" lon="3.72192">
        <ele>1097.3</ele>
        <time>2021-08-11T07:38:56Z</time>
      </trkpt>
      <trkpt lat="44.33702" lon="3.72187">
        <ele>1097.6</ele>
        <time>2021-08-11T07:38:58Z</time>
      </trkpt>
      <trkpt lat="44.33704" lon="3.72181">
        <ele>1097.9</ele>
        <time>2021-08-11T07:39:00Z</time>
      </trkpt>
      <trkpt lat="44.33706" lon="3.72175">
        <ele>1098.2</ele>
        <time>2021-08-11T07:39:02Z</time>
      </trkpt>
      <trkpt lat="44.33708" lon="3.7217">
        <ele>1098.4</ele>
        <time>2021-08-11T07:39:04Z</time>
      </trkpt>
      <trkpt lat="44.33711" lon="3.72164">
        <ele>1098.7</ele>
        <time>2021-08-11T07:39:06Z</time>
      </trkpt>
      <trkpt lat="44.33713" lon="3.7216">
        <ele>1099</ele>
        <time>2021-08-11T07:39:08Z</time>
      </trkpt>
      <trkpt lat="44.33717" lon="3.72155">
        <ele>1099.4</ele>
        <time>2021-08-11T07:39:10Z</time>
      </trkpt>
      <trkpt lat="44.3372" lon="3.7215">
        <ele>1099.7</ele>
        <time>2021-08-11T07:39:12Z</time>
      </trkpt>
      <trkpt lat="44.33724" lon="3.72146">
        <ele>1100</ele>
        <time>2021-08-11T07:39:14Z</time>
      </trkpt>
      <trkpt lat="44.33727" lon="3.72142">
        <ele>1100.3</ele>
        <time>2021-08-11T07:39:16Z</time>
      </trkpt>
      <trkpt lat="44.33731" lon="3.72138">
        <ele>1100.6</ele>
        <time>2021-08-11T07:39:18Z</time>
      </trkpt>
      <trkpt lat="44.33734" lon="3.72134">
        <ele>1100.9</ele>
        <time>2021-08-11T07:39:20Z</time>
      </trkpt>
      <trkpt lat="44.33738" lon="3.7213">
        <ele>1101.2</ele>
        <time>2021-08-11T07:39:22Z</time>
      </trkpt>
      <trkpt lat="44.33741" lon="3.72126">
        <ele>1101.4</ele>
        <time>2021-08-11T07:39:24Z</time>
      </trkpt>
      <trkpt lat="44.33745" lon="3.72121">
        <ele>1101.7</ele>
        <time>2021-08-11T07:39:26Z</time>
      </trkpt>
      <trkpt lat="44.33748" lon="3.72116">
        <ele>1101.9</ele>
        <time>2021-08-11T07:39:28Z</time>
      </trkpt>
      <trkpt lat="44.33751" lon="3.72112">
        <ele>1102.1</ele>
        <time>2021-08-11T07:39:30Z</time>
      </trkpt>
      <trkpt lat="44.33754" lon="3.72107">
        <ele>1102.4</ele>
        <time>2021-08-11T07:39:32Z</time>
      </trkpt>
      <trkpt lat="44.33757" lon="3.72101">
        <ele>1102.7</ele>
        <time>2021-08-11T07:39:34Z</time>
      </trkpt>
      <trkpt lat="44.33759" lon="3.72096">
        <ele>1103</ele>
        <time>2021-08-11T07:39:36Z</time>
      </trkpt>
      <trkpt lat="44.33762" lon="3.7209">
        <ele>1103.2</ele>
        <time>2021-08-11T07:39:38Z</time>
      </trkpt>
      <trkpt lat="44.33763" lon="3.72083">
        <ele>1103.4</ele>
        <time>2021-08-11T07:39:40Z</time>
      </trkpt>
      <trkpt lat="44.33764" lon="3.72077">
        <ele>1103.5</ele>
        <time>2021-08-11T07:39:42Z</time>
      </trkpt>
      <trkpt lat="44.33766" lon="3.7207">
        <ele>1103.7</ele>
        <time>2021-08-11T07:39:44Z</time>
      </trkpt>
      <trkpt lat="44.33769" lon="3.72064">
        <ele>1103.8</ele>
        <time>2021-08-11T07:39:46Z</time>
      </trkpt>
      <trkpt lat="44.3377" lon="3.72058">
        <ele>1104</ele>
        <time>2021-08-11T07:39:48Z</time>
      </trkpt>
      <trkpt lat="44.33772" lon="3.72051">
        <ele>1104.1</ele>
        <time>2021-08-11T07:39:50Z</time>
      </trkpt>
      <trkpt lat="44.33775" lon="3.72044">
        <ele>1104.3</ele>
        <time>2021-08-11T07:39:52Z</time>
      </trkpt>
      <trkpt lat="44.33778" lon="3.72038">
        <ele>1104.7</ele>
        <time>2021-08-11T07:39:54Z</time>
      </trkpt>
      <trkpt lat="44.33782" lon="3.72032">
        <ele>1105</ele>
        <time>2021-08-11T07:39:56Z</time>
      </trkpt>
      <trkpt lat="44.33785" lon="3.72026">
        <ele>1105.4</ele>
        <time>2021-08-11T07:39:58Z</time>
      </trkpt>
      <trkpt lat="44.33787" lon="3.72019">
        <ele>1105.6</ele>
        <time>2021-08-11T07:40:00Z</time>
      </trkpt>
      <trkpt lat="44.33791" lon="3.72013">
        <ele>1106</ele>
        <time>2021-08-11T07:40:02Z</time>
      </trkpt>
      <trkpt lat="44.33794" lon="3.72007">
        <ele>1106.3</ele>
        <time>2021-08-11T07:40:04Z</time>
      </trkpt>
      <trkpt lat="44.33797" lon="3.72001">
        <ele>1106.6</ele>
        <time>2021-08-11T07:40:06Z</time>
      </trkpt>
      <trkpt lat="44.338" lon="3.71995">
        <ele>1106.9</ele>
        <time>2021-08-11T07:40:08Z</time>
      </trkpt>
      <trkpt lat="44.33804" lon="3.7199">
        <ele>1107.3</ele>
        <time>2021-08-11T07:40:10Z</time>
      </trkpt>
      <trkpt lat="44.33807" lon="3.71984">
        <ele>1107.5</ele>
        <time>2021-08-11T07:40:12Z</time>
      </trkpt>
      <trkpt lat="44.3381" lon="3.71977">
        <ele>1107.7</ele>
        <time>2021-08-11T07:40:14Z</time>
      </trkpt>
      <trkpt lat="44.33813" lon="3.7197">
        <ele>1107.9</ele>
        <time>2021-08-11T07:40:16Z</time>
      </trkpt>
      <trkpt lat="44.33816" lon="3.71964">
        <ele>1108.1</ele>
        <time>2021-08-11T07:40:18Z</time>
      </trkpt>
      <trkpt lat="44.3382" lon="3.71957">
        <ele>1108.2</ele>
        <time>2021-08-11T07:40:20Z</time>
      </trkpt>
      <trkpt lat="44.33823" lon="3.71949">
        <ele>1108.3</ele>
        <time>2021-08-11T07:40:22Z</time>
      </trkpt>
      <trkpt lat="44.33827" lon="3.71943">
        <ele>1108.5</ele>
        <time>2021-08-11T07:40:24Z</time>
      </trkpt>
      <trkpt lat="44.3383" lon="3.71936">
        <ele>1108.5</ele>
        <time>2021-08-11T07:40:26Z</time>
      </trkpt>
      <trkpt lat="44.33835" lon="3.7193">
        <ele>1108.5</ele>
        <time>2021-08-11T07:40:28Z</time>
      </trkpt>
      <trkpt lat="44.3384" lon="3.71923">
        <ele>1108.3</ele>
        <time>2021-08-11T07:40:30Z</time>
      </trkpt>
      <trkpt lat="44.33845" lon="3.71919">
        <ele>1108.2</ele>
        <time>2021-08-11T07:40:32Z</time>
      </trkpt>
      <trkpt lat="44.3385" lon="3.71914">
        <ele>1108.2</ele>
        <time>2021-08-11T07:40:34Z</time>
      </trkpt>
      <trkpt lat="44.33855" lon="3.71908">
        <ele>1108.3</ele>
        <time>2021-08-11T07:40:36Z</time>
      </trkpt>
      <trkpt lat="44.3386" lon="3.71903">
        <ele>1108.3</ele>
        <time>2021-08-11T07:40:38Z</time>
      </trkpt>
      <trkpt lat="44.33865" lon="3.71898">
        <ele>1108.4</ele>
        <time>2021-08-11T07:40:40Z</time>
      </trkpt>
      <trkpt lat="44.33871" lon="3.71891">
        <ele>1108.4</ele>
        <time>2021-08-11T07:40:42Z</time>
      </trkpt>
      <trkpt lat="44.33876" lon="3.71886">
        <ele>1108.5</ele>
        <time>2021-08-11T07:40:44Z</time>
      </trkpt>
      <trkpt lat="44.33883" lon="3.71881">
        <ele>1108.6</ele>
        <time>2021-08-11T07:40:46Z</time>
      </trkpt>
      <trkpt lat="44.33888" lon="3.71875">
        <ele>1108.7</ele>
        <time>2021-08-11T07:40:48Z</time>
      </trkpt>
      <trkpt lat="44.33894" lon="3.71868">
        <ele>1108.7</ele>
        <time>2021-08-11T07:40:50Z</time>
      </trkpt>
      <trkpt lat="44.33899" lon="3.7186">
        <ele>1108.8</ele>
        <time>2021-08-11T07:40:52Z</time>
      </trkpt>
      <trkpt lat="44.33903" lon="3.71853">
        <ele>1108.8</ele>
        <time>2021-08-11T07:40:54Z</time>
      </trkpt>
      <trkpt lat="44.33907" lon="3.71844">
        <ele>1108.9</ele>
        <time>2021-08-11T07:40:56Z</time>
      </trkpt>
      <trkpt lat="44.3391" lon="3.71836">
        <ele>1108.9</ele>
        <time>2021-08-11T07:40:58Z</time>
      </trkpt>
      <trkpt lat="44.33913" lon="3.71828">
        <ele>1109.1</ele>
        <time>2021-08-11T07:41:00Z</time>
      </trkpt>
      <trkpt lat="44.33916" lon="3.7182">
        <ele>1109.5</ele>
        <time>2021-08-11T07:41:02Z</time>
      </trkpt>
      <trkpt lat="44.33919" lon="3.71813">
        <ele>1109.8</ele>
        <time>2021-08-11T07:41:04Z</time>
      </trkpt>
      <trkpt lat="44.33923" lon="3.71806">
        <ele>1110.1</ele>
        <time>2021-08-11T07:41:06Z</time>
      </trkpt>
      <trkpt lat="44.33927" lon="3.71799">
        <ele>1110.4</ele>
        <time>2021-08-11T07:41:08Z</time>
      </trkpt>
      <trkpt lat="44.3393" lon="3.71793">
        <ele>1110.6</ele>
        <time>2021-08-11T07:41:10Z</time>
      </trkpt>
      <trkpt lat="44.33933" lon="3.71786">
        <ele>1110.9</ele>
        <time>2021-08-11T07:41:12Z</time>
      </trkpt>
      <trkpt lat="44.33936" lon="3.7178">
        <ele>1111.1</ele>
        <time>2021-08-11T07:41:14Z</time>
      </trkpt>
      <trkpt lat="44.33939" lon="3.71773">
        <ele>1111.3</ele>
        <time>2021-08-11T07:41:16Z</time>
      </trkpt>
      <trkpt lat="44.33942" lon="3.71766">
        <ele>1111.5</ele>
        <time>2021-08-11T07:41:18Z</time>
      </trkpt>
      <trkpt lat="44.33945" lon="3.7176">
        <ele>1111.7</ele>
        <time>2021-08-11T07:41:20Z</time>
      </trkpt>
      <trkpt lat="44.33947" lon="3.71754">
        <ele>1111.9</ele>
        <time>2021-08-11T07:41:22Z</time>
      </trkpt>
      <trkpt lat="44.3395" lon="3.71748">
        <ele>1112</ele>
        <time>2021-08-11T07:41:24Z</time>
      </trkpt>
      <trkpt lat="44.33954" lon="3.71743">
        <ele>1112.1</ele>
        <time>2021-08-11T07:41:26Z</time>
      </trkpt>
      <trkpt lat="44.33958" lon="3.71737">
        <ele>1112.1</ele>
        <time>2021-08-11T07:41:28Z</time>
      </trkpt>
      <trkpt lat="44.33962" lon="3.71732">
        <ele>1112.1</ele>
        <time>2021-08-11T07:41:30Z</time>
      </trkpt>
      <trkpt lat="44.33967" lon="3.71726">
        <ele>1112.1</ele>
        <time>2021-08-11T07:41:32Z</time>
      </trkpt>
      <trkpt lat="44.33972" lon="3.7172">
        <ele>1112</ele>
        <time>2021-08-11T07:41:34Z</time>
      </trkpt>
      <trkpt lat="44.33977" lon="3.71714">
        <ele>1111.9</ele>
        <time>2021-08-11T07:41:36Z</time>
      </trkpt>
      <trkpt lat="44.33982" lon="3.71707">
        <ele>1111.8</ele>
        <time>2021-08-11T07:41:38Z</time>
      </trkpt>
      <trkpt lat="44.33985" lon="3.717">
        <ele>1111.7</ele>
        <time>2021-08-11T07:41:40Z</time>
      </trkpt>
      <trkpt lat="44.3399" lon="3.71695">
        <ele>1111.6</ele>
        <time>2021-08-11T07:41:42Z</time>
      </trkpt>
      <trkpt lat="44.33996" lon="3.71689">
        <ele>1111.4</ele>
        <time>2021-08-11T07:41:44Z</time>
      </trkpt>
      <trkpt lat="44.34001" lon="3.71683">
        <ele>1111.2</ele>
        <time>2021-08-11T07:41:46Z</time>
      </trkpt>
      <trkpt lat="44.34007" lon="3.71678">
        <ele>1110.9</ele>
        <time>2021-08-11T07:41:48Z</time>
      </trkpt>
      <trkpt lat="44.34013" lon="3.71672">
        <ele>1110.7</ele>
        <time>2021-08-11T07:41:50Z</time>
      </trkpt>
      <trkpt lat="44.34019" lon="3.71667">
        <ele>1110.5</ele>
        <time>2021-08-11T07:41:52Z</time>
      </trkpt>
      <trkpt lat="44.34025" lon="3.71662">
        <ele>1110.4</ele>
        <time>2021-08-11T07:41:54Z</time>
      </trkpt>
      <trkpt lat="44.34031" lon="3.71658">
        <ele>1110.2</ele>
        <time>2021-08-11T07:41:56Z</time>
      </trkpt>
      <trkpt lat="44.34037" lon="3.71654">
        <ele>1110.1</ele>
        <time>2021-08-11T07:41:58Z</time>
      </trkpt>
      <trkpt lat="44.34044" lon="3.7165">
        <ele>1110</ele>
        <time>2021-08-11T07:42:00Z</time>
      </trkpt>
      <trkpt lat="44.34052" lon="3.71646">
        <ele>1109.9</ele>
        <time>2021-08-11T07:42:02Z</time>
      </trkpt>
      <trkpt lat="44.34059" lon="3.71643">
        <ele>1109.8</ele>
        <time>2021-08-11T07:42:04Z</time>
      </trkpt>
      <trkpt lat="44.34066" lon="3.71638">
        <ele>1109.8</ele>
        <time>2021-08-11T07:42:06Z</time>
      </trkpt>
      <trkpt lat="44.34073" lon="3.71633">
        <ele>1109.9</ele>
        <time>2021-08-11T07:42:08Z</time>
      </trkpt>
      <trkpt lat="44.34079" lon="3.71626">
        <ele>1110</ele>
        <time>2021-08-11T07:42:10Z</time>
      </trkpt>
      <trkpt lat="44.34085" lon="3.7162">
        <ele>1110.1</ele>
        <time>2021-08-11T07:42:12Z</time>
      </trkpt>
      <trkpt lat="44.3409" lon="3.71613">
        <ele>1110.1</ele>
        <time>2021-08-11T07:42:14Z</time>
      </trkpt>
      <trkpt lat="44.34095" lon="3.71606">
        <ele>1110.1</ele>
        <time>2021-08-11T07:42:16Z</time>
      </trkpt>
      <trkpt lat="44.34099" lon="3.716">
        <ele>1110.1</ele>
        <time>2021-08-11T07:42:18Z</time>
      </trkpt>
      <trkpt lat="44.34105" lon="3.71594">
        <ele>1110</ele>
        <time>2021-08-11T07:42:20Z</time>
      </trkpt>
      <trkpt lat="44.3411" lon="3.71588">
        <ele>1110</ele>
        <time>2021-08-11T07:42:22Z</time>
      </trkpt>
      <trkpt lat="44.34115" lon="3.71583">
        <ele>1109.8</ele>
        <time>2021-08-11T07:42:24Z</time>
      </trkpt>
      <trkpt lat="44.34121" lon="3.71577">
        <ele>1109.7</ele>
        <time>2021-08-11T07:42:26Z</time>
      </trkpt>
      <trkpt lat="44.34126" lon="3.71572">
        <ele>1109.5</ele>
        <time>2021-08-11T07:42:28Z</time>
      </trkpt>
      <trkpt lat="44.34132" lon="3.71567">
        <ele>1109.4</ele>
        <time>2021-08-11T07:42:30Z</time>
      </trkpt>
      <trkpt lat="44.34138" lon="3.71562">
        <ele>1109.4</ele>
        <time>2021-08-11T07:42:32Z</time>
      </trkpt>
      <trkpt lat="44.34143" lon="3.71557">
        <ele>1109.3</ele>
        <time>2021-08-11T07:42:34Z</time>
      </trkpt>
      <trkpt lat="44.34149" lon="3.71552">
        <ele>1109.4</ele>
        <time>2021-08-11T07:42:36Z</time>
      </trkpt>
      <trkpt lat="44.34154" lon="3.71548">
        <ele>1109.4</ele>
        <time>2021-08-11T07:42:38Z</time>
      </trkpt>
      <trkpt lat="44.34159" lon="3.71543">
        <ele>1109.5</ele>
        <time>2021-08-11T07:42:40Z</time>
      </trkpt>
      <trkpt lat="44.34165" lon="3.71539">
        <ele>1109.6</ele>
        <time>2021-08-11T07:42:42Z</time>
      </trkpt>
      <trkpt lat="44.34169" lon="3.71535">
        <ele>1109.7</ele>
        <time>2021-08-11T07:42:44Z</time>
      </trkpt>
      <trkpt lat="44.34174" lon="3.7153">
        <ele>1109.8</ele>
        <time>2021-08-11T07:42:46Z</time>
      </trkpt>
      <trkpt lat="44.34178" lon="3.71526">
        <ele>1109.9</ele>
        <time>2021-08-11T07:42:48Z</time>
      </trkpt>
      <trkpt lat="44.34182" lon="3.7152">
        <ele>1110</ele>
        <time>2021-08-11T07:42:50Z</time>
      </trkpt>
      <trkpt lat="44.34185" lon="3.71514">
        <ele>1110.2</ele>
        <time>2021-08-11T07:42:52Z</time>
      </trkpt>
      <trkpt lat="44.34189" lon="3.71507">
        <ele>1110.3</ele>
        <time>2021-08-11T07:42:54Z</time>
      </trkpt>
      <trkpt lat="44.34195" lon="3.71501">
        <ele>1110.3</ele>
        <time>2021-08-11T07:42:56Z</time>
      </trkpt>
      <trkpt lat="44.342" lon="3.71494">
        <ele>1110.2</ele>
        <time>2021-08-11T07:42:58Z</time>
      </trkpt>
      <trkpt lat="44.34206" lon="3.71487">
        <ele>1110.2</ele>
        <time>2021-08-11T07:43:00Z</time>
      </trkpt>
      <trkpt lat="44.34212" lon="3.71481">
        <ele>1110</ele>
        <time>2021-08-11T07:43:02Z</time>
      </trkpt>
      <trkpt lat="44.34218" lon="3.71475">
        <ele>1109.9</ele>
        <time>2021-08-11T07:43:04Z</time>
      </trkpt>
      <trkpt lat="44.34224" lon="3.7147">
        <ele>1109.7</ele>
        <time>2021-08-11T07:43:06Z</time>
      </trkpt>
      <trkpt lat="44.34231" lon="3.71465">
        <ele>1109.5</ele>
        <time>2021-08-11T07:43:08Z</time>
      </trkpt>
      <trkpt lat="44.34239" lon="3.71461">
        <ele>1109.3</ele>
        <time>2021-08-11T07:43:10Z</time>
      </trkpt>
      <trkpt lat="44.34247" lon="3.71458">
        <ele>1109.1</ele>
        <time>2021-08-11T07:43:12Z</time>
      </trkpt>
      <trkpt lat="44.34255" lon="3.71458">
        <ele>1108.7</ele>
        <time>2021-08-11T07:43:14Z</time>
      </trkpt>
      <trkpt lat="44.34264" lon="3.71454">
        <ele>1108.3</ele>
        <time>2021-08-11T07:43:16Z</time>
      </trkpt>
      <trkpt lat="44.34272" lon="3.71451">
        <ele>1107.8</ele>
        <time>2021-08-11T07:43:18Z</time>
      </trkpt>
      <trkpt lat="44.3428" lon="3.71448">
        <ele>1107.4</ele>
        <time>2021-08-11T07:43:20Z</time>
      </trkpt>
      <trkpt lat="44.34287" lon="3.71445">
        <ele>1107.1</ele>
        <time>2021-08-11T07:43:22Z</time>
      </trkpt>
      <trkpt lat="44.34293" lon="3.71443">
        <ele>1106.8</ele>
        <time>2021-08-11T07:43:24Z</time>
      </trkpt>
      <trkpt lat="44.343" lon="3.71439">
        <ele>1106.5</ele>
        <time>2021-08-11T07:43:26Z</time>
      </trkpt>
      <trkpt lat="44.34307" lon="3.71434">
        <ele>1106.1</ele>
        <time>2021-08-11T07:43:28Z</time>
      </trkpt>
      <trkpt lat="44.34314" lon="3.71428">
        <ele>1105.8</ele>
        <time>2021-08-11T07:43:30Z</time>
      </trkpt>
      <trkpt lat="44.34321" lon="3.71423">
        <ele>1105.5</ele>
        <time>2021-08-11T07:43:32Z</time>
      </trkpt>
      <trkpt lat="44.34328" lon="3.71416">
        <ele>1105.3</ele>
        <time>2021-08-11T07:43:34Z</time>
      </trkpt>
      <trkpt lat="44.34335" lon="3.71409">
        <ele>1104.9</ele>
        <time>2021-08-11T07:43:36Z</time>
      </trkpt>
      <trkpt lat="44.34343" lon="3.71402">
        <ele>1104.8</ele>
        <time>2021-08-11T07:43:38Z</time>
      </trkpt>
      <trkpt lat="44.3435" lon="3.71394">
        <ele>1104.7</ele>
        <time>2021-08-11T07:43:40Z</time>
      </trkpt>
      <trkpt lat="44.34356" lon="3.71387">
        <ele>1104.6</ele>
        <time>2021-08-11T07:43:42Z</time>
      </trkpt>
      <trkpt lat="44.34363" lon="3.71381">
        <ele>1104.4</ele>
        <time>2021-08-11T07:43:44Z</time>
      </trkpt>
      <trkpt lat="44.34369" lon="3.71373">
        <ele>1104.2</ele>
        <time>2021-08-11T07:43:46Z</time>
      </trkpt>
      <trkpt lat="44.34375" lon="3.71365">
        <ele>1104.1</ele>
        <time>2021-08-11T07:43:48Z</time>
      </trkpt>
      <trkpt lat="44.34381" lon="3.71357">
        <ele>1103.9</ele>
        <time>2021-08-11T07:43:50Z</time>
      </trkpt>
      <trkpt lat="44.34386" lon="3.71349">
        <ele>1103.7</ele>
        <time>2021-08-11T07:43:52Z</time>
      </trkpt>
      <trkpt lat="44.34389" lon="3.7134">
        <ele>1103.5</ele>
        <time>2021-08-11T07:43:54Z</time>
      </trkpt>
      <trkpt lat="44.34393" lon="3.7133">
        <ele>1103.2</ele>
        <time>2021-08-11T07:43:56Z</time>
      </trkpt>
      <trkpt lat="44.34395" lon="3.71321">
        <ele>1102.8</ele>
        <time>2021-08-11T07:43:58Z</time>
      </trkpt>
      <trkpt lat="44.34397" lon="3.71311">
        <ele>1102.4</ele>
        <time>2021-08-11T07:44:00Z</time>
      </trkpt>
      <trkpt lat="44.34398" lon="3.71301">
        <ele>1102</ele>
        <time>2021-08-11T07:44:02Z</time>
      </trkpt>
      <trkpt lat="44.344" lon="3.71291">
        <ele>1101.6</ele>
        <time>2021-08-11T07:44:04Z</time>
      </trkpt>
      <trkpt lat="44.34402" lon="3.7128">
        <ele>1101.1</ele>
        <time>2021-08-11T07:44:06Z</time>
      </trkpt>
      <trkpt lat="44.34404" lon="3.71269">
        <ele>1100.7</ele>
        <time>2021-08-11T07:44:08Z</time>
      </trkpt>
      <trkpt lat="44.34405" lon="3.71259">
        <ele>1100.3</ele>
        <time>2021-08-11T07:44:10Z</time>
      </trkpt>
      <trkpt lat="44.34408" lon="3.7125">
        <ele>1100</ele>
        <time>2021-08-11T07:44:12Z</time>
      </trkpt>
      <trkpt lat="44.34409" lon="3.7124">
        <ele>1099.5</ele>
        <time>2021-08-11T07:44:14Z</time>
      </trkpt>
      <trkpt lat="44.34411" lon="3.7123">
        <ele>1099</ele>
        <time>2021-08-11T07:44:16Z</time>
      </trkpt>
      <trkpt lat="44.34415" lon="3.71221">
        <ele>1098.6</ele>
        <time>2021-08-11T07:44:18Z</time>
      </trkpt>
      <trkpt lat="44.34419" lon="3.71213">
        <ele>1098.2</ele>
        <time>2021-08-11T07:44:20Z</time>
      </trkpt>
      <trkpt lat="44.34424" lon="3.71204">
        <ele>1097.9</ele>
        <time>2021-08-11T07:44:22Z</time>
      </trkpt>
      <trkpt lat="44.34429" lon="3.71196">
        <ele>1097.5</ele>
        <time>2021-08-11T07:44:24Z</time>
      </trkpt>
      <trkpt lat="44.34434" lon="3.71189">
        <ele>1097.3</ele>
        <time>2021-08-11T07:44:26Z</time>
      </trkpt>
      <trkpt lat="44.34439" lon="3.71182">
        <ele>1097</ele>
        <time>2021-08-11T07:44:28Z</time>
      </trkpt>
      <trkpt lat="44.34444" lon="3.71175">
        <ele>1096.7</ele>
        <time>2021-08-11T07:44:30Z</time>
      </trkpt>
      <trkpt lat="44.34448" lon="3.71167">
        <ele>1096.4</ele>
        <time>2021-08-11T07:44:32Z</time>
      </trkpt>
      <trkpt lat="44.34452" lon="3.71158">
        <ele>1096</ele>
        <time>2021-08-11T07:44:34Z</time>
      </trkpt>
      <trkpt lat="44.34454" lon="3.71146">
        <ele>1095.5</ele>
        <time>2021-08-11T07:44:36Z</time>
      </trkpt>
      <trkpt lat="44.34457" lon="3.71133">
        <ele>1094.9</ele>
        <time>2021-08-11T07:44:38Z</time>
      </trkpt>
      <trkpt lat="44.3446" lon="3.71119">
        <ele>1094.2</ele>
        <time>2021-08-11T07:44:40Z</time>
      </trkpt>
      <trkpt lat="44.34462" lon="3.71106">
        <ele>1093.5</ele>
        <time>2021-08-11T07:44:42Z</time>
      </trkpt>
      <trkpt lat="44.34464" lon="3.71093">
        <ele>1092.8</ele>
        <time>2021-08-11T07:44:44Z</time>
      </trkpt>
      <trkpt lat="44.34467" lon="3.7108">
        <ele>1092</ele>
        <time>2021-08-11T07:44:46Z</time>
      </trkpt>
      <trkpt lat="44.34469" lon="3.71068">
        <ele>1091.3</ele>
        <time>2021-08-11T07:44:48Z</time>
      </trkpt>
      <trkpt lat="44.34471" lon="3.71056">
        <ele>1090.5</ele>
        <time>2021-08-11T07:44:50Z</time>
      </trkpt>
      <trkpt lat="44.34474" lon="3.71046">
        <ele>1089.8</ele>
        <time>2021-08-11T07:44:52Z</time>
      </trkpt>
      <trkpt lat="44.34477" lon="3.71035">
        <ele>1089.1</ele>
        <time>2021-08-11T07:44:54Z</time>
      </trkpt>
      <trkpt lat="44.3448" lon="3.71026">
        <ele>1088.5</ele>
        <time>2021-08-11T07:44:56Z</time>
      </trkpt>
      <trkpt lat="44.34483" lon="3.71016">
        <ele>1087.8</ele>
        <time>2021-08-11T07:44:58Z</time>
      </trkpt>
      <trkpt lat="44.34486" lon="3.71006">
        <ele>1087</ele>
        <time>2021-08-11T07:45:00Z</time>
      </trkpt>
      <trkpt lat="44.34491" lon="3.70995">
        <ele>1086.4</ele>
        <time>2021-08-11T07:45:02Z</time>
      </trkpt>
      <trkpt lat="44.34497" lon="3.70985">
        <ele>1086</ele>
        <time>2021-08-11T07:45:04Z</time>
      </trkpt>
      <trkpt lat="44.34503" lon="3.70977">
        <ele>1085.3</ele>
        <time>2021-08-11T07:45:06Z</time>
      </trkpt>
      <trkpt lat="44.34508" lon="3.70967">
        <ele>1084.5</ele>
        <time>2021-08-11T07:45:08Z</time>
      </trkpt>
      <trkpt lat="44.34513" lon="3.70956">
        <ele>1083.8</ele>
        <time>2021-08-11T07:45:10Z</time>
      </trkpt>
      <trkpt lat="44.34517" lon="3.70945">
        <ele>1083.2</ele>
        <time>2021-08-11T07:45:12Z</time>
      </trkpt>
      <trkpt lat="44.3452" lon="3.70934">
        <ele>1082.8</ele>
        <time>2021-08-11T07:45:14Z</time>
      </trkpt>
      <trkpt lat="44.34522" lon="3.70923">
        <ele>1082.3</ele>
        <time>2021-08-11T07:45:16Z</time>
      </trkpt>
      <trkpt lat="44.34525" lon="3.70911">
        <ele>1081.9</ele>
        <time>2021-08-11T07:45:18Z</time>
      </trkpt>
      <trkpt lat="44.34528" lon="3.70899">
        <ele>1081.3</ele>
        <time>2021-08-11T07:45:20Z</time>
      </trkpt>
      <trkpt lat="44.34532" lon="3.70887">
        <ele>1080.7</ele>
        <time>2021-08-11T07:45:22Z</time>
      </trkpt>
      <trkpt lat="44.34535" lon="3.70875">
        <ele>1080.2</ele>
        <time>2021-08-11T07:45:24Z</time>
      </trkpt>
      <trkpt lat="44.34537" lon="3.70863">
        <ele>1079.8</ele>
        <time>2021-08-11T07:45:26Z</time>
      </trkpt>
      <trkpt lat="44.34539" lon="3.70852">
        <ele>1079.5</ele>
        <time>2021-08-11T07:45:28Z</time>
      </trkpt>
      <trkpt lat="44.34539" lon="3.70841">
        <ele>1079.3</ele>
        <time>2021-08-11T07:45:30Z</time>
      </trkpt>
      <trkpt lat="44.34539" lon="3.70827">
        <ele>1078.9</ele>
        <time>2021-08-11T07:45:32Z</time>
      </trkpt>
      <trkpt lat="44.34536" lon="3.70812">
        <ele>1078.4</ele>
        <time>2021-08-11T07:45:34Z</time>
      </trkpt>
      <trkpt lat="44.34531" lon="3.70794">
        <ele>1077.9</ele>
        <time>2021-08-11T07:45:36Z</time>
      </trkpt>
      <trkpt lat="44.34526" lon="3.70776">
        <ele>1077.4</ele>
        <time>2021-08-11T07:45:38Z</time>
      </trkpt>
      <trkpt lat="44.34521" lon="3.70757">
        <ele>1076.8</ele>
        <time>2021-08-11T07:45:40Z</time>
      </trkpt>
      <trkpt lat="44.3452" lon="3.70737">
        <ele>1076.3</ele>
        <time>2021-08-11T07:45:42Z</time>
      </trkpt>
      <trkpt lat="44.34523" lon="3.70717">
        <ele>1075.9</ele>
        <time>2021-08-11T07:45:44Z</time>
      </trkpt>
      <trkpt lat="44.34532" lon="3.70702">
        <ele>1075.5</ele>
        <time>2021-08-11T07:45:46Z</time>
      </trkpt>
      <trkpt lat="44.34543" lon="3.7069">
        <ele>1075.3</ele>
        <time>2021-08-11T07:45:48Z</time>
      </trkpt>
      <trkpt lat="44.34553" lon="3.7068">
        <ele>1075.4</ele>
        <time>2021-08-11T07:45:50Z</time>
      </trkpt>
      <trkpt lat="44.34563" lon="3.70669">
        <ele>1075.7</ele>
        <time>2021-08-11T07:45:52Z</time>
      </trkpt>
      <trkpt lat="44.34571" lon="3.70659">
        <ele>1075.6</ele>
        <time>2021-08-11T07:45:54Z</time>
      </trkpt>
      <trkpt lat="44.34577" lon="3.70648">
        <ele>1075.4</ele>
        <time>2021-08-11T07:45:56Z</time>
      </trkpt>
      <trkpt lat="44.34581" lon="3.70636">
        <ele>1075.2</ele>
        <time>2021-08-11T07:45:58Z</time>
      </trkpt>
      <trkpt lat="44.34585" lon="3.70624">
        <ele>1075</ele>
        <time>2021-08-11T07:46:00Z</time>
      </trkpt>
      <trkpt lat="44.3459" lon="3.70614">
        <ele>1074.7</ele>
        <time>2021-08-11T07:46:02Z</time>
      </trkpt>
      <trkpt lat="44.34596" lon="3.70603">
        <ele>1074.6</ele>
        <time>2021-08-11T07:46:04Z</time>
      </trkpt>
      <trkpt lat="44.34602" lon="3.70591">
        <ele>1074.7</ele>
        <time>2021-08-11T07:46:06Z</time>
      </trkpt>
      <trkpt lat="44.34608" lon="3.7058">
        <ele>1074.8</ele>
        <time>2021-08-11T07:46:08Z</time>
      </trkpt>
      <trkpt lat="44.34614" lon="3.7057">
        <ele>1074.9</ele>
        <time>2021-08-11T07:46:10Z</time>
      </trkpt>
      <trkpt lat="44.3462" lon="3.7056">
        <ele>1075</ele>
        <time>2021-08-11T07:46:12Z</time>
      </trkpt>
      <trkpt lat="44.34624" lon="3.7055">
        <ele>1075.1</ele>
        <time>2021-08-11T07:46:14Z</time>
      </trkpt>
      <trkpt lat="44.34626" lon="3.70539">
        <ele>1075</ele>
        <time>2021-08-11T07:46:16Z</time>
      </trkpt>
      <trkpt lat="44.34626" lon="3.70527">
        <ele>1074.9</ele>
        <time>2021-08-11T07:46:18Z</time>
      </trkpt>
      <trkpt lat="44.34625" lon="3.70515">
        <ele>1074.7</ele>
        <time>2021-08-11T07:46:20Z</time>
      </trkpt>
      <trkpt lat="44.34623" lon="3.70504">
        <ele>1074.4</ele>
        <time>2021-08-11T07:46:22Z</time>
      </trkpt>
      <trkpt lat="44.34619" lon="3.70491">
        <ele>1074.3</ele>
        <time>2021-08-11T07:46:24Z</time>
      </trkpt>
      <trkpt lat="44.34615" lon="3.70479">
        <ele>1074.3</ele>
        <time>2021-08-11T07:46:26Z</time>
      </trkpt>
      <trkpt lat="44.34612" lon="3.70467">
        <ele>1074.3</ele>
        <time>2021-08-11T07:46:28Z</time>
      </trkpt>
      <trkpt lat="44.34609" lon="3.70457">
        <ele>1074.5</ele>
        <time>2021-08-11T07:46:30Z</time>
      </trkpt>
      <trkpt lat="44.34607" lon="3.70446">
        <ele>1074.6</ele>
        <time>2021-08-11T07:46:32Z</time>
      </trkpt>
      <trkpt lat="44.34606" lon="3.70436">
        <ele>1074.8</ele>
        <time>2021-08-11T07:46:34Z</time>
      </trkpt>
      <trkpt lat="44.34605" lon="3.70425">
        <ele>1075.1</ele>
        <time>2021-08-11T07:46:36Z</time>
      </trkpt>
      <trkpt lat="44.34604" lon="3.70417">
        <ele>1075.2</ele>
        <time>2021-08-11T07:46:38Z</time>
      </trkpt>
      <trkpt lat="44.34602" lon="3.70408">
        <ele>1076</ele>
        <time>2021-08-11T07:46:40Z</time>
      </trkpt>
      <trkpt lat="44.34601" lon="3.70399">
        <ele>1076.7</ele>
        <time>2021-08-11T07:46:42Z</time>
      </trkpt>
      <trkpt lat="44.346" lon="3.70394">
        <ele>1077.1</ele>
        <time>2021-08-11T07:46:44Z</time>
      </trkpt>
      <trkpt lat="44.34599" lon="3.70387">
        <ele>1077.7</ele>
        <time>2021-08-11T07:46:46Z</time>
      </trkpt>
      <trkpt lat="44.34597" lon="3.70381">
        <ele>1078.3</ele>
        <time>2021-08-11T07:46:48Z</time>
      </trkpt>
      <trkpt lat="44.34595" lon="3.70374">
        <ele>1078.9</ele>
        <time>2021-08-11T07:46:50Z</time>
      </trkpt>
      <trkpt lat="44.34593" lon="3.70369">
        <ele>1079.4</ele>
        <time>2021-08-11T07:46:52Z</time>
      </trkpt>
      <trkpt lat="44.3459" lon="3.70365">
        <ele>1079.8</ele>
        <time>2021-08-11T07:46:54Z</time>
      </trkpt>
      <trkpt lat="44.34586" lon="3.70364">
        <ele>1080</ele>
        <time>2021-08-11T07:46:56Z</time>
      </trkpt>
      <trkpt lat="44.34582" lon="3.70363">
        <ele>1080.1</ele>
        <time>2021-08-11T07:46:58Z</time>
      </trkpt>
      <trkpt lat="44.34578" lon="3.70364">
        <ele>1080.1</ele>
        <time>2021-08-11T07:47:00Z</time>
      </trkpt>
      <trkpt lat="44.34573" lon="3.70364">
        <ele>1080</ele>
        <time>2021-08-11T07:47:02Z</time>
      </trkpt>
      <trkpt lat="44.34568" lon="3.70365">
        <ele>1079.9</ele>
        <time>2021-08-11T07:47:04Z</time>
      </trkpt>
      <trkpt lat="44.34563" lon="3.70366">
        <ele>1079.8</ele>
        <time>2021-08-11T07:47:06Z</time>
      </trkpt>
      <trkpt lat="44.34558" lon="3.70368">
        <ele>1079.6</ele>
        <time>2021-08-11T07:47:08Z</time>
      </trkpt>
      <trkpt lat="44.34553" lon="3.70369">
        <ele>1079.5</ele>
        <time>2021-08-11T07:47:10Z</time>
      </trkpt>
      <trkpt lat="44.34548" lon="3.70371">
        <ele>1079.3</ele>
        <time>2021-08-11T07:47:12Z</time>
      </trkpt>
      <trkpt lat="44.34543" lon="3.70374">
        <ele>1079.1</ele>
        <time>2021-08-11T07:47:14Z</time>
      </trkpt>
      <trkpt lat="44.34538" lon="3.70377">
        <ele>1078.8</ele>
        <time>2021-08-11T07:47:16Z</time>
      </trkpt>
      <trkpt lat="44.34532" lon="3.70382">
        <ele>1078.5</ele>
        <time>2021-08-11T07:47:18Z</time>
      </trkpt>
      <trkpt lat="44.34526" lon="3.70384">
        <ele>1078.3</ele>
        <time>2021-08-11T07:47:20Z</time>
      </trkpt>
      <trkpt lat="44.3452" lon="3.70386">
        <ele>1078.2</ele>
        <time>2021-08-11T07:47:22Z</time>
      </trkpt>
      <trkpt lat="44.34514" lon="3.70386">
        <ele>1078.2</ele>
        <time>2021-08-11T07:47:24Z</time>
      </trkpt>
      <trkpt lat="44.34507" lon="3.70383">
        <ele>1078.4</ele>
        <time>2021-08-11T07:47:26Z</time>
      </trkpt>
      <trkpt lat="44.34501" lon="3.7038">
        <ele>1078.6</ele>
        <time>2021-08-11T07:47:28Z</time>
      </trkpt>
      <trkpt lat="44.34495" lon="3.70376">
        <ele>1078.6</ele>
        <time>2021-08-11T07:47:30Z</time>
      </trkpt>
      <trkpt lat="44.3449" lon="3.70372">
        <ele>1078.5</ele>
        <time>2021-08-11T07:47:32Z</time>
      </trkpt>
      <trkpt lat="44.34485" lon="3.70367">
        <ele>1078.4</ele>
        <time>2021-08-11T07:47:34Z</time>
      </trkpt>
      <trkpt lat="44.3448" lon="3.70363">
        <ele>1078.3</ele>
        <time>2021-08-11T07:47:36Z</time>
      </trkpt>
      <trkpt lat="44.34476" lon="3.70358">
        <ele>1078.3</ele>
        <time>2021-08-11T07:47:38Z</time>
      </trkpt>
      <trkpt lat="44.34472" lon="3.70354">
        <ele>1078.2</ele>
        <time>2021-08-11T07:47:40Z</time>
      </trkpt>
      <trkpt lat="44.34468" lon="3.7035">
        <ele>1078.2</ele>
        <time>2021-08-11T07:47:42Z</time>
      </trkpt>
      <trkpt lat="44.34464" lon="3.70345">
        <ele>1078.2</ele>
        <time>2021-08-11T07:47:44Z</time>
      </trkpt>
      <trkpt lat="44.34461" lon="3.70339">
        <ele>1078.3</ele>
        <time>2021-08-11T07:47:46Z</time>
      </trkpt>
      <trkpt lat="44.34458" lon="3.70333">
        <ele>1078.5</ele>
        <time>2021-08-11T07:47:48Z</time>
      </trkpt>
      <trkpt lat="44.34456" lon="3.70328">
        <ele>1078.9</ele>
        <time>2021-08-11T07:47:50Z</time>
      </trkpt>
      <trkpt lat="44.34453" lon="3.70322">
        <ele>1079.3</ele>
        <time>2021-08-11T07:47:52Z</time>
      </trkpt>
      <trkpt lat="44.3445" lon="3.70313">
        <ele>1080</ele>
        <time>2021-08-11T07:47:54Z</time>
      </trkpt>
      <trkpt lat="44.34446" lon="3.70305">
        <ele>1080.5</ele>
        <time>2021-08-11T07:47:56Z</time>
      </trkpt>
      <trkpt lat="44.34442" lon="3.70296">
        <ele>1081</ele>
        <time>2021-08-11T07:47:58Z</time>
      </trkpt>
      <trkpt lat="44.34439" lon="3.70287">
        <ele>1081.5</ele>
        <time>2021-08-11T07:48:00Z</time>
      </trkpt>
      <trkpt lat="44.34435" lon="3.70278">
        <ele>1082</ele>
        <time>2021-08-11T07:48:02Z</time>
      </trkpt>
      <trkpt lat="44.34431" lon="3.70269">
        <ele>1082.3</ele>
        <time>2021-08-11T07:48:04Z</time>
      </trkpt>
      <trkpt lat="44.34428" lon="3.70261">
        <ele>1082.6</ele>
        <time>2021-08-11T07:48:06Z</time>
      </trkpt>
      <trkpt lat="44.34425" lon="3.70253">
        <ele>1082.9</ele>
        <time>2021-08-11T07:48:08Z</time>
      </trkpt>
      <trkpt lat="44.34422" lon="3.70244">
        <ele>1083.4</ele>
        <time>2021-08-11T07:48:10Z</time>
      </trkpt>
      <trkpt lat="44.34419" lon="3.70235">
        <ele>1083.8</ele>
        <time>2021-08-11T07:48:12Z</time>
      </trkpt>
      <trkpt lat="44.34415" lon="3.70225">
        <ele>1084.2</ele>
        <time>2021-08-11T07:48:14Z</time>
      </trkpt>
      <trkpt lat="44.34411" lon="3.70215">
        <ele>1084.5</ele>
        <time>2021-08-11T07:48:16Z</time>
      </trkpt>
      <trkpt lat="44.34405" lon="3.70207">
        <ele>1084.5</ele>
        <time>2021-08-11T07:48:18Z</time>
      </trkpt>
      <trkpt lat="44.34399" lon="3.70199">
        <ele>1084.3</ele>
        <time>2021-08-11T07:48:20Z</time>
      </trkpt>
      <trkpt lat="44.34392" lon="3.70191">
        <ele>1083.9</ele>
        <time>2021-08-11T07:48:22Z</time>
      </trkpt>
      <trkpt lat="44.34385" lon="3.70185">
        <ele>1083.3</ele>
        <time>2021-08-11T07:48:24Z</time>
      </trkpt>
      <trkpt lat="44.34378" lon="3.70177">
        <ele>1082.8</ele>
        <time>2021-08-11T07:48:26Z</time>
      </trkpt>
      <trkpt lat="44.34373" lon="3.70166">
        <ele>1082.6</ele>
        <time>2021-08-11T07:48:28Z</time>
      </trkpt>
      <trkpt lat="44.34367" lon="3.70154">
        <ele>1082.4</ele>
        <time>2021-08-11T07:48:30Z</time>
      </trkpt>
      <trkpt lat="44.34362" lon="3.70143">
        <ele>1082.1</ele>
        <time>2021-08-11T07:48:32Z</time>
      </trkpt>
      <trkpt lat="44.34356" lon="3.70131">
        <ele>1081.6</ele>
        <time>2021-08-11T07:48:34Z</time>
      </trkpt>
      <trkpt lat="44.3435" lon="3.7012">
        <ele>1081</ele>
        <time>2021-08-11T07:48:36Z</time>
      </trkpt>
      <trkpt lat="44.34343" lon="3.7011">
        <ele>1080.4</ele>
        <time>2021-08-11T07:48:38Z</time>
      </trkpt>
      <trkpt lat="44.34336" lon="3.70101">
        <ele>1079.6</ele>
        <time>2021-08-11T07:48:40Z</time>
      </trkpt>
      <trkpt lat="44.34329" lon="3.70091">
        <ele>1079.4</ele>
        <time>2021-08-11T07:48:42Z</time>
      </trkpt>
      <trkpt lat="44.34322" lon="3.70083">
        <ele>1079.5</ele>
        <time>2021-08-11T07:48:44Z</time>
      </trkpt>
      <trkpt lat="44.34314" lon="3.70075">
        <ele>1079.1</ele>
        <time>2021-08-11T07:48:46Z</time>
      </trkpt>
      <trkpt lat="44.34306" lon="3.70066">
        <ele>1078.7</ele>
        <time>2021-08-11T07:48:48Z</time>
      </trkpt>
      <trkpt lat="44.34299" lon="3.70058">
        <ele>1078.3</ele>
        <time>2021-08-11T07:48:50Z</time>
      </trkpt>
      <trkpt lat="44.34292" lon="3.7005">
        <ele>1077.8</ele>
        <time>2021-08-11T07:48:52Z</time>
      </trkpt>
      <trkpt lat="44.34286" lon="3.70042">
        <ele>1077.3</ele>
        <time>2021-08-11T07:48:54Z</time>
      </trkpt>
      <trkpt lat="44.34281" lon="3.70032">
        <ele>1076.9</ele>
        <time>2021-08-11T07:48:56Z</time>
      </trkpt>
      <trkpt lat="44.34279" lon="3.70021">
        <ele>1076.6</ele>
        <time>2021-08-11T07:48:58Z</time>
      </trkpt>
      <trkpt lat="44.34278" lon="3.7001">
        <ele>1076.5</ele>
        <time>2021-08-11T07:49:00Z</time>
      </trkpt>
      <trkpt lat="44.34278" lon="3.7">
        <ele>1076.4</ele>
        <time>2021-08-11T07:49:02Z</time>
      </trkpt>
      <trkpt lat="44.34279" lon="3.69991">
        <ele>1076</ele>
        <time>2021-08-11T07:49:04Z</time>
      </trkpt>
      <trkpt lat="44.34279" lon="3.69982">
        <ele>1075.6</ele>
        <time>2021-08-11T07:49:06Z</time>
      </trkpt>
      <trkpt lat="44.34279" lon="3.69974">
        <ele>1075.3</ele>
        <time>2021-08-11T07:49:08Z</time>
      </trkpt>
      <trkpt lat="44.34276" lon="3.6997">
        <ele>1074.7</ele>
        <time>2021-08-11T07:49:10Z</time>
      </trkpt>
      <trkpt lat="44.34271" lon="3.69967">
        <ele>1074</ele>
        <time>2021-08-11T07:49:12Z</time>
      </trkpt>
      <trkpt lat="44.34267" lon="3.69962">
        <ele>1073.2</ele>
        <time>2021-08-11T07:49:14Z</time>
      </trkpt>
      <trkpt lat="44.34265" lon="3.69954">
        <ele>1072.5</ele>
        <time>2021-08-11T07:49:16Z</time>
      </trkpt>
      <trkpt lat="44.34266" lon="3.69946">
        <ele>1072.3</ele>
        <time>2021-08-11T07:49:18Z</time>
      </trkpt>
      <trkpt lat="44.34267" lon="3.69939">
        <ele>1072</ele>
        <time>2021-08-11T07:49:20Z</time>
      </trkpt>
      <trkpt lat="44.34268" lon="3.69932">
        <ele>1071.7</ele>
        <time>2021-08-11T07:49:22Z</time>
      </trkpt>
      <trkpt lat="44.34268" lon="3.69923">
        <ele>1071.2</ele>
        <time>2021-08-11T07:49:24Z</time>
      </trkpt>
      <trkpt lat="44.34269" lon="3.69914">
        <ele>1070.7</ele>
        <time>2021-08-11T07:49:26Z</time>
      </trkpt>
      <trkpt lat="44.34272" lon="3.69906">
        <ele>1070.5</ele>
        <time>2021-08-11T07:49:28Z</time>
      </trkpt>
      <trkpt lat="44.34274" lon="3.69899">
        <ele>1070.2</ele>
        <time>2021-08-11T07:49:30Z</time>
      </trkpt>
      <trkpt lat="44.34277" lon="3.69893">
        <ele>1070.3</ele>
        <time>2021-08-11T07:49:32Z</time>
      </trkpt>
      <trkpt lat="44.34281" lon="3.69889">
        <ele>1070.5</ele>
        <time>2021-08-11T07:49:34Z</time>
      </trkpt>
      <trkpt lat="44.34284" lon="3.69884">
        <ele>1070.7</ele>
        <time>2021-08-11T07:49:36Z</time>
      </trkpt>
      <trkpt lat="44.34288" lon="3.69879">
        <ele>1070.9</ele>
        <time>2021-08-11T07:49:38Z</time>
      </trkpt>
      <trkpt lat="44.34291" lon="3.69874">
        <ele>1071.1</ele>
        <time>2021-08-11T07:49:40Z</time>
      </trkpt>
      <trkpt lat="44.34295" lon="3.69869">
        <ele>1071.3</ele>
        <time>2021-08-11T07:49:42Z</time>
      </trkpt>
      <trkpt lat="44.34299" lon="3.69868">
        <ele>1072</ele>
        <time>2021-08-11T07:49:44Z</time>
      </trkpt>
      <trkpt lat="44.34302" lon="3.69868">
        <ele>1072.6</ele>
        <time>2021-08-11T07:49:46Z</time>
      </trkpt>
      <trkpt lat="44.34306" lon="3.6987">
        <ele>1073.3</ele>
        <time>2021-08-11T07:49:48Z</time>
      </trkpt>
      <trkpt lat="44.34309" lon="3.69873">
        <ele>1074.1</ele>
        <time>2021-08-11T07:49:50Z</time>
      </trkpt>
      <trkpt lat="44.3431" lon="3.69879">
        <ele>1074.7</ele>
        <time>2021-08-11T07:49:52Z</time>
      </trkpt>
      <trkpt lat="44.34307" lon="3.69886">
        <ele>1074.8</ele>
        <time>2021-08-11T07:49:54Z</time>
      </trkpt>
      <trkpt lat="44.34304" lon="3.69892">
        <ele>1074.6</ele>
        <time>2021-08-11T07:49:56Z</time>
      </trkpt>
      <trkpt lat="44.34301" lon="3.69896">
        <ele>1074.3</ele>
        <time>2021-08-11T07:49:58Z</time>
      </trkpt>
      <trkpt lat="44.34297" lon="3.69897">
        <ele>1073.9</ele>
        <time>2021-08-11T07:50:00Z</time>
      </trkpt>
      <trkpt lat="44.34295" lon="3.69897">
        <ele>1073.5</ele>
        <time>2021-08-11T07:50:02Z</time>
      </trkpt>
      <trkpt lat="44.34293" lon="3.69898">
        <ele>1073.3</ele>
        <time>2021-08-11T07:50:04Z</time>
      </trkpt>
      <trkpt lat="44.34292" lon="3.69901">
        <ele>1073.4</ele>
        <time>2021-08-11T07:50:06Z</time>
      </trkpt>
      <trkpt lat="44.34293" lon="3.69902">
        <ele>1073.5</ele>
        <time>2021-08-11T07:50:08Z</time>
      </trkpt>
      <trkpt lat="44.34293" lon="3.69902">
        <ele>1073.5</ele>
        <time>2021-08-11T07:50:10Z</time>
      </trkpt>
      <trkpt lat="44.34289" lon="3.6992">
        <ele>1074.2</ele>
        <time>2021-08-11T08:22:18Z</time>
      </trkpt>
      <trkpt lat="44.34288" lon="3.69923">
        <ele>1074.1</ele>
        <time>2021-08-11T08:22:20Z</time>
      </trkpt>
      <trkpt lat="44.34286" lon="3.69926">
        <ele>1074</ele>
        <time>2021-08-11T08:22:22Z</time>
      </trkpt>
      <trkpt lat="44.34285" lon="3.69929">
        <ele>1074</ele>
        <time>2021-08-11T08:22:24Z</time>
      </trkpt>
      <trkpt lat="44.34285" lon="3.69934">
        <ele>1074.2</ele>
        <time>2021-08-11T08:22:26Z</time>
      </trkpt>
      <trkpt lat="44.34284" lon="3.69939">
        <ele>1074.3</ele>
        <time>2021-08-11T08:22:28Z</time>
      </trkpt>
      <trkpt lat="44.34284" lon="3.69943">
        <ele>1074.4</ele>
        <time>2021-08-11T08:22:30Z</time>
      </trkpt>
      <trkpt lat="44.34283" lon="3.69947">
        <ele>1074.4</ele>
        <time>2021-08-11T08:22:32Z</time>
      </trkpt>
      <trkpt lat="44.3428" lon="3.6995">
        <ele>1074.3</ele>
        <time>2021-08-11T08:22:34Z</time>
      </trkpt>
      <trkpt lat="44.34279" lon="3.69953">
        <ele>1074.3</ele>
        <time>2021-08-11T08:22:36Z</time>
      </trkpt>
      <trkpt lat="44.34279" lon="3.69956">
        <ele>1074.4</ele>
        <time>2021-08-11T08:22:38Z</time>
      </trkpt>
      <trkpt lat="44.34279" lon="3.69957">
        <ele>1074.5</ele>
        <time>2021-08-11T08:22:40Z</time>
      </trkpt>
      <trkpt lat="44.34279" lon="3.69957">
        <ele>1074.5</ele>
        <time>2021-08-11T08:22:42Z</time>
      </trkpt>
      <trkpt lat="44.34279" lon="3.69957">
        <ele>1074.5</ele>
        <time>2021-08-11T08:22:44Z</time>
      </trkpt>
      <trkpt lat="44.3428" lon="3.69957">
        <ele>1074.5</ele>
        <time>2021-08-11T08:22:46Z</time>
      </trkpt>
      <trkpt lat="44.34279" lon="3.69977">
        <ele>1075.3</ele>
        <time>2021-08-11T08:23:00Z</time>
      </trkpt>
      <trkpt lat="44.34279" lon="3.69985">
        <ele>1075.7</ele>
        <time>2021-08-11T08:23:02Z</time>
      </trkpt>
      <trkpt lat="44.34279" lon="3.69992">
        <ele>1076</ele>
        <time>2021-08-11T08:23:04Z</time>
      </trkpt>
      <trkpt lat="44.34278" lon="3.69999">
        <ele>1076.3</ele>
        <time>2021-08-11T08:23:06Z</time>
      </trkpt>
      <trkpt lat="44.34277" lon="3.70006">
        <ele>1076.4</ele>
        <time>2021-08-11T08:23:08Z</time>
      </trkpt>
      <trkpt lat="44.34277" lon="3.70014">
        <ele>1076.4</ele>
        <time>2021-08-11T08:23:10Z</time>
      </trkpt>
      <trkpt lat="44.34278" lon="3.70022">
        <ele>1076.6</ele>
        <time>2021-08-11T08:23:12Z</time>
      </trkpt>
      <trkpt lat="44.34279" lon="3.70031">
        <ele>1076.8</ele>
        <time>2021-08-11T08:23:14Z</time>
      </trkpt>
      <trkpt lat="44.34283" lon="3.70038">
        <ele>1077.1</ele>
        <time>2021-08-11T08:23:16Z</time>
      </trkpt>
      <trkpt lat="44.34287" lon="3.70046">
        <ele>1077.5</ele>
        <time>2021-08-11T08:23:18Z</time>
      </trkpt>
      <trkpt lat="44.34291" lon="3.70052">
        <ele>1077.8</ele>
        <time>2021-08-11T08:23:20Z</time>
      </trkpt>
      <trkpt lat="44.34296" lon="3.70057">
        <ele>1078.1</ele>
        <time>2021-08-11T08:23:22Z</time>
      </trkpt>
      <trkpt lat="44.343" lon="3.70062">
        <ele>1078.3</ele>
        <time>2021-08-11T08:23:24Z</time>
      </trkpt>
      <trkpt lat="44.34304" lon="3.70067">
        <ele>1078.6</ele>
        <time>2021-08-11T08:23:26Z</time>
      </trkpt>
      <trkpt lat="44.34308" lon="3.70071">
        <ele>1078.8</ele>
        <time>2021-08-11T08:23:28Z</time>
      </trkpt>
      <trkpt lat="44.34311" lon="3.70075">
        <ele>1079</ele>
        <time>2021-08-11T08:23:30Z</time>
      </trkpt>
      <trkpt lat="44.34316" lon="3.7008">
        <ele>1079.2</ele>
        <time>2021-08-11T08:23:32Z</time>
      </trkpt>
      <trkpt lat="44.3432" lon="3.70085">
        <ele>1079.3</ele>
        <time>2021-08-11T08:23:34Z</time>
      </trkpt>
      <trkpt lat="44.34324" lon="3.70089">
        <ele>1079.3</ele>
        <time>2021-08-11T08:23:36Z</time>
      </trkpt>
      <trkpt lat="44.34328" lon="3.70094">
        <ele>1079.2</ele>
        <time>2021-08-11T08:23:38Z</time>
      </trkpt>
      <trkpt lat="44.34331" lon="3.70099">
        <ele>1079.2</ele>
        <time>2021-08-11T08:23:40Z</time>
      </trkpt>
      <trkpt lat="44.34335" lon="3.70103">
        <ele>1079.3</ele>
        <time>2021-08-11T08:23:42Z</time>
      </trkpt>
      <trkpt lat="44.34339" lon="3.70109">
        <ele>1079.7</ele>
        <time>2021-08-11T08:23:44Z</time>
      </trkpt>
      <trkpt lat="44.34342" lon="3.70115">
        <ele>1080.1</ele>
        <time>2021-08-11T08:23:46Z</time>
      </trkpt>
      <trkpt lat="44.34346" lon="3.7012">
        <ele>1080.4</ele>
        <time>2021-08-11T08:23:48Z</time>
      </trkpt>
      <trkpt lat="44.34349" lon="3.70125">
        <ele>1080.7</ele>
        <time>2021-08-11T08:23:50Z</time>
      </trkpt>
      <trkpt lat="44.34352" lon="3.70131">
        <ele>1081</ele>
        <time>2021-08-11T08:23:52Z</time>
      </trkpt>
      <trkpt lat="44.34355" lon="3.70137">
        <ele>1081.2</ele>
        <time>2021-08-11T08:23:54Z</time>
      </trkpt>
      <trkpt lat="44.34359" lon="3.70142">
        <ele>1081.5</ele>
        <time>2021-08-11T08:23:56Z</time>
      </trkpt>
      <trkpt lat="44.34362" lon="3.70148">
        <ele>1081.7</ele>
        <time>2021-08-11T08:23:58Z</time>
      </trkpt>
      <trkpt lat="44.34365" lon="3.70154">
        <ele>1081.9</ele>
        <time>2021-08-11T08:24:00Z</time>
      </trkpt>
      <trkpt lat="44.34368" lon="3.7016">
        <ele>1082.1</ele>
        <time>2021-08-11T08:24:02Z</time>
      </trkpt>
      <trkpt lat="44.3437" lon="3.70167">
        <ele>1082.2</ele>
        <time>2021-08-11T08:24:04Z</time>
      </trkpt>
      <trkpt lat="44.34373" lon="3.70172">
        <ele>1082.3</ele>
        <time>2021-08-11T08:24:06Z</time>
      </trkpt>
      <trkpt lat="44.34376" lon="3.70178">
        <ele>1082.4</ele>
        <time>2021-08-11T08:24:08Z</time>
      </trkpt>
      <trkpt lat="44.34379" lon="3.70182">
        <ele>1082.6</ele>
        <time>2021-08-11T08:24:10Z</time>
      </trkpt>
      <trkpt lat="44.34383" lon="3.70187">
        <ele>1082.8</ele>
        <time>2021-08-11T08:24:12Z</time>
      </trkpt>
      <trkpt lat="44.34388" lon="3.70191">
        <ele>1083.2</ele>
        <time>2021-08-11T08:24:14Z</time>
      </trkpt>
      <trkpt lat="44.34392" lon="3.70195">
        <ele>1083.6</ele>
        <time>2021-08-11T08:24:16Z</time>
      </trkpt>
      <trkpt lat="44.34396" lon="3.70199">
        <ele>1083.9</ele>
        <time>2021-08-11T08:24:18Z</time>
      </trkpt>
      <trkpt lat="44.344" lon="3.70203">
        <ele>1084.1</ele>
        <time>2021-08-11T08:24:20Z</time>
      </trkpt>
      <trkpt lat="44.34404" lon="3.70209">
        <ele>1084.2</ele>
        <time>2021-08-11T08:24:22Z</time>
      </trkpt>
      <trkpt lat="44.34407" lon="3.70214">
        <ele>1084.1</ele>
        <time>2021-08-11T08:24:24Z</time>
      </trkpt>
      <trkpt lat="44.34411" lon="3.7022">
        <ele>1084.1</ele>
        <time>2021-08-11T08:24:26Z</time>
      </trkpt>
      <trkpt lat="44.34414" lon="3.70227">
        <ele>1083.9</ele>
        <time>2021-08-11T08:24:28Z</time>
      </trkpt>
      <trkpt lat="44.34417" lon="3.70234">
        <ele>1083.5</ele>
        <time>2021-08-11T08:24:30Z</time>
      </trkpt>
      <trkpt lat="44.34419" lon="3.70241">
        <ele>1083.3</ele>
        <time>2021-08-11T08:24:32Z</time>
      </trkpt>
      <trkpt lat="44.34422" lon="3.70248">
        <ele>1082.9</ele>
        <time>2021-08-11T08:24:34Z</time>
      </trkpt>
      <trkpt lat="44.34424" lon="3.70254">
        <ele>1082.6</ele>
        <time>2021-08-11T08:24:36Z</time>
      </trkpt>
      <trkpt lat="44.34426" lon="3.7026">
        <ele>1082.4</ele>
        <time>2021-08-11T08:24:38Z</time>
      </trkpt>
      <trkpt lat="44.34428" lon="3.70267">
        <ele>1082.1</ele>
        <time>2021-08-11T08:24:40Z</time>
      </trkpt>
      <trkpt lat="44.3443" lon="3.70273">
        <ele>1081.8</ele>
        <time>2021-08-11T08:24:42Z</time>
      </trkpt>
      <trkpt lat="44.34433" lon="3.7028">
        <ele>1081.5</ele>
        <time>2021-08-11T08:24:44Z</time>
      </trkpt>
      <trkpt lat="44.34436" lon="3.70287">
        <ele>1081.2</ele>
        <time>2021-08-11T08:24:46Z</time>
      </trkpt>
      <trkpt lat="44.34439" lon="3.70294">
        <ele>1080.8</ele>
        <time>2021-08-11T08:24:48Z</time>
      </trkpt>
      <trkpt lat="44.34443" lon="3.70302">
        <ele>1080.4</ele>
        <time>2021-08-11T08:24:50Z</time>
      </trkpt>
      <trkpt lat="44.34446" lon="3.70309">
        <ele>1080</ele>
        <time>2021-08-11T08:24:52Z</time>
      </trkpt>
      <trkpt lat="44.34448" lon="3.70315">
        <ele>1079.6</ele>
        <time>2021-08-11T08:24:54Z</time>
      </trkpt>
      <trkpt lat="44.34451" lon="3.70322">
        <ele>1079.2</ele>
        <time>2021-08-11T08:24:56Z</time>
      </trkpt>
      <trkpt lat="44.34454" lon="3.70328">
        <ele>1078.7</ele>
        <time>2021-08-11T08:24:58Z</time>
      </trkpt>
      <trkpt lat="44.34456" lon="3.70333">
        <ele>1078.3</ele>
        <time>2021-08-11T08:25:00Z</time>
      </trkpt>
      <trkpt lat="44.34458" lon="3.70339">
        <ele>1078.1</ele>
        <time>2021-08-11T08:25:02Z</time>
      </trkpt>
      <trkpt lat="44.34461" lon="3.70344">
        <ele>1078</ele>
        <time>2021-08-11T08:25:04Z</time>
      </trkpt>
      <trkpt lat="44.34464" lon="3.70349">
        <ele>1077.9</ele>
        <time>2021-08-11T08:25:06Z</time>
      </trkpt>
      <trkpt lat="44.34468" lon="3.70354">
        <ele>1077.9</ele>
        <time>2021-08-11T08:25:08Z</time>
      </trkpt>
      <trkpt lat="44.34473" lon="3.7036">
        <ele>1077.9</ele>
        <time>2021-08-11T08:25:10Z</time>
      </trkpt>
      <trkpt lat="44.34478" lon="3.70365">
        <ele>1078</ele>
        <time>2021-08-11T08:25:12Z</time>
      </trkpt>
      <trkpt lat="44.34483" lon="3.70369">
        <ele>1078.1</ele>
        <time>2021-08-11T08:25:14Z</time>
      </trkpt>
      <trkpt lat="44.34488" lon="3.70374">
        <ele>1078.1</ele>
        <time>2021-08-11T08:25:16Z</time>
      </trkpt>
      <trkpt lat="44.34494" lon="3.70378">
        <ele>1078.3</ele>
        <time>2021-08-11T08:25:18Z</time>
      </trkpt>
      <trkpt lat="44.345" lon="3.70383">
        <ele>1078.4</ele>
        <time>2021-08-11T08:25:20Z</time>
      </trkpt>
      <trkpt lat="44.34506" lon="3.70386">
        <ele>1078.2</ele>
        <time>2021-08-11T08:25:22Z</time>
      </trkpt>
      <trkpt lat="44.34512" lon="3.70388">
        <ele>1078</ele>
        <time>2021-08-11T08:25:24Z</time>
      </trkpt>
      <trkpt lat="44.34519" lon="3.70388">
        <ele>1078</ele>
        <time>2021-08-11T08:25:26Z</time>
      </trkpt>
      <trkpt lat="44.34525" lon="3.70386">
        <ele>1078.1</ele>
        <time>2021-08-11T08:25:28Z</time>
      </trkpt>
      <trkpt lat="44.34531" lon="3.70383">
        <ele>1078.3</ele>
        <time>2021-08-11T08:25:30Z</time>
      </trkpt>
      <trkpt lat="44.34537" lon="3.70379">
        <ele>1078.7</ele>
        <time>2021-08-11T08:25:32Z</time>
      </trkpt>
      <trkpt lat="44.34542" lon="3.70375">
        <ele>1079</ele>
        <time>2021-08-11T08:25:34Z</time>
      </trkpt>
      <trkpt lat="44.34548" lon="3.70372">
        <ele>1079.2</ele>
        <time>2021-08-11T08:25:36Z</time>
      </trkpt>
      <trkpt lat="44.34552" lon="3.7037">
        <ele>1079.4</ele>
        <time>2021-08-11T08:25:38Z</time>
      </trkpt>
      <trkpt lat="44.34558" lon="3.70369">
        <ele>1079.5</ele>
        <time>2021-08-11T08:25:40Z</time>
      </trkpt>
      <trkpt lat="44.34563" lon="3.70367">
        <ele>1079.7</ele>
        <time>2021-08-11T08:25:42Z</time>
      </trkpt>
      <trkpt lat="44.34568" lon="3.70367">
        <ele>1079.8</ele>
        <time>2021-08-11T08:25:44Z</time>
      </trkpt>
      <trkpt lat="44.34573" lon="3.70366">
        <ele>1079.8</ele>
        <time>2021-08-11T08:25:46Z</time>
      </trkpt>
      <trkpt lat="44.34578" lon="3.70365">
        <ele>1079.9</ele>
        <time>2021-08-11T08:25:48Z</time>
      </trkpt>
      <trkpt lat="44.34582" lon="3.70365">
        <ele>1080</ele>
        <time>2021-08-11T08:25:50Z</time>
      </trkpt>
      <trkpt lat="44.34585" lon="3.70365">
        <ele>1079.9</ele>
        <time>2021-08-11T08:25:52Z</time>
      </trkpt>
      <trkpt lat="44.34588" lon="3.70368">
        <ele>1079.6</ele>
        <time>2021-08-11T08:25:54Z</time>
      </trkpt>
      <trkpt lat="44.34591" lon="3.70371">
        <ele>1079.2</ele>
        <time>2021-08-11T08:25:56Z</time>
      </trkpt>
      <trkpt lat="44.34594" lon="3.70377">
        <ele>1078.6</ele>
        <time>2021-08-11T08:25:58Z</time>
      </trkpt>
      <trkpt lat="44.34595" lon="3.70385">
        <ele>1077.9</ele>
        <time>2021-08-11T08:26:00Z</time>
      </trkpt>
      <trkpt lat="44.34598" lon="3.70393">
        <ele>1077.2</ele>
        <time>2021-08-11T08:26:02Z</time>
      </trkpt>
      <trkpt lat="44.34599" lon="3.70403">
        <ele>1076.4</ele>
        <time>2021-08-11T08:26:04Z</time>
      </trkpt>
      <trkpt lat="44.34601" lon="3.70414">
        <ele>1075.5</ele>
        <time>2021-08-11T08:26:06Z</time>
      </trkpt>
      <trkpt lat="44.34603" lon="3.70426">
        <ele>1075</ele>
        <time>2021-08-11T08:26:08Z</time>
      </trkpt>
      <trkpt lat="44.34605" lon="3.70439">
        <ele>1074.7</ele>
        <time>2021-08-11T08:26:10Z</time>
      </trkpt>
      <trkpt lat="44.34607" lon="3.70451">
        <ele>1074.5</ele>
        <time>2021-08-11T08:26:12Z</time>
      </trkpt>
      <trkpt lat="44.34609" lon="3.70465">
        <ele>1074.3</ele>
        <time>2021-08-11T08:26:14Z</time>
      </trkpt>
      <trkpt lat="44.34613" lon="3.70476">
        <ele>1074.2</ele>
        <time>2021-08-11T08:26:16Z</time>
      </trkpt>
      <trkpt lat="44.34616" lon="3.70488">
        <ele>1074.2</ele>
        <time>2021-08-11T08:26:18Z</time>
      </trkpt>
      <trkpt lat="44.3462" lon="3.70498">
        <ele>1074.2</ele>
        <time>2021-08-11T08:26:20Z</time>
      </trkpt>
      <trkpt lat="44.34622" lon="3.70509">
        <ele>1074.5</ele>
        <time>2021-08-11T08:26:22Z</time>
      </trkpt>
      <trkpt lat="44.34624" lon="3.70519">
        <ele>1074.7</ele>
        <time>2021-08-11T08:26:24Z</time>
      </trkpt>
      <trkpt lat="44.34625" lon="3.70529">
        <ele>1074.9</ele>
        <time>2021-08-11T08:26:26Z</time>
      </trkpt>
      <trkpt lat="44.34626" lon="3.70538">
        <ele>1075</ele>
        <time>2021-08-11T08:26:28Z</time>
      </trkpt>
      <trkpt lat="44.34624" lon="3.70545">
        <ele>1075</ele>
        <time>2021-08-11T08:26:30Z</time>
      </trkpt>
      <trkpt lat="44.34622" lon="3.70552">
        <ele>1075</ele>
        <time>2021-08-11T08:26:32Z</time>
      </trkpt>
      <trkpt lat="44.3462" lon="3.70558">
        <ele>1075</ele>
        <time>2021-08-11T08:26:34Z</time>
      </trkpt>
      <trkpt lat="44.34617" lon="3.70564">
        <ele>1074.9</ele>
        <time>2021-08-11T08:26:36Z</time>
      </trkpt>
      <trkpt lat="44.34614" lon="3.7057">
        <ele>1074.9</ele>
        <time>2021-08-11T08:26:38Z</time>
      </trkpt>
      <trkpt lat="44.3461" lon="3.70576">
        <ele>1074.9</ele>
        <time>2021-08-11T08:26:40Z</time>
      </trkpt>
      <trkpt lat="44.34607" lon="3.70582">
        <ele>1074.8</ele>
        <time>2021-08-11T08:26:42Z</time>
      </trkpt>
      <trkpt lat="44.34604" lon="3.70588">
        <ele>1074.7</ele>
        <time>2021-08-11T08:26:44Z</time>
      </trkpt>
      <trkpt lat="44.34601" lon="3.70594">
        <ele>1074.6</ele>
        <time>2021-08-11T08:26:46Z</time>
      </trkpt>
      <trkpt lat="44.34597" lon="3.706">
        <ele>1074.6</ele>
        <time>2021-08-11T08:26:48Z</time>
      </trkpt>
      <trkpt lat="44.34594" lon="3.70605">
        <ele>1074.6</ele>
        <time>2021-08-11T08:26:50Z</time>
      </trkpt>
      <trkpt lat="44.34592" lon="3.7061">
        <ele>1074.7</ele>
        <time>2021-08-11T08:26:52Z</time>
      </trkpt>
      <trkpt lat="44.34589" lon="3.70615">
        <ele>1074.7</ele>
        <time>2021-08-11T08:26:54Z</time>
      </trkpt>
      <trkpt lat="44.34587" lon="3.7062">
        <ele>1074.8</ele>
        <time>2021-08-11T08:26:56Z</time>
      </trkpt>
      <trkpt lat="44.34585" lon="3.70625">
        <ele>1075</ele>
        <time>2021-08-11T08:26:58Z</time>
      </trkpt>
      <trkpt lat="44.34583" lon="3.7063">
        <ele>1075.1</ele>
        <time>2021-08-11T08:27:00Z</time>
      </trkpt>
      <trkpt lat="44.34581" lon="3.70636">
        <ele>1075.2</ele>
        <time>2021-08-11T08:27:02Z</time>
      </trkpt>
      <trkpt lat="44.34579" lon="3.7064">
        <ele>1075.3</ele>
        <time>2021-08-11T08:27:04Z</time>
      </trkpt>
      <trkpt lat="44.34578" lon="3.70645">
        <ele>1075.4</ele>
        <time>2021-08-11T08:27:06Z</time>
      </trkpt>
      <trkpt lat="44.34576" lon="3.7065">
        <ele>1075.5</ele>
        <time>2021-08-11T08:27:08Z</time>
      </trkpt>
      <trkpt lat="44.34573" lon="3.70655">
        <ele>1075.6</ele>
        <time>2021-08-11T08:27:10Z</time>
      </trkpt>
      <trkpt lat="44.34569" lon="3.70662">
        <ele>1075.7</ele>
        <time>2021-08-11T08:27:12Z</time>
      </trkpt>
      <trkpt lat="44.34565" lon="3.70668">
        <ele>1075.7</ele>
        <time>2021-08-11T08:27:14Z</time>
      </trkpt>
      <trkpt lat="44.34559" lon="3.70675">
        <ele>1075.5</ele>
        <time>2021-08-11T08:27:16Z</time>
      </trkpt>
      <trkpt lat="44.34553" lon="3.70681">
        <ele>1075.4</ele>
        <time>2021-08-11T08:27:18Z</time>
      </trkpt>
      <trkpt lat="44.34547" lon="3.70686">
        <ele>1075.3</ele>
        <time>2021-08-11T08:27:20Z</time>
      </trkpt>
      <trkpt lat="44.34542" lon="3.70691">
        <ele>1075.4</ele>
        <time>2021-08-11T08:27:22Z</time>
      </trkpt>
      <trkpt lat="44.34536" lon="3.70697">
        <ele>1075.4</ele>
        <time>2021-08-11T08:27:24Z</time>
      </trkpt>
      <trkpt lat="44.34531" lon="3.70703">
        <ele>1075.5</ele>
        <time>2021-08-11T08:27:26Z</time>
      </trkpt>
      <trkpt lat="44.34526" lon="3.7071">
        <ele>1075.7</ele>
        <time>2021-08-11T08:27:28Z</time>
      </trkpt>
      <trkpt lat="44.34522" lon="3.70719">
        <ele>1076</ele>
        <time>2021-08-11T08:27:30Z</time>
      </trkpt>
      <trkpt lat="44.3452" lon="3.70728">
        <ele>1076.2</ele>
        <time>2021-08-11T08:27:32Z</time>
      </trkpt>
      <trkpt lat="44.3452" lon="3.70737">
        <ele>1076.4</ele>
        <time>2021-08-11T08:27:34Z</time>
      </trkpt>
      <trkpt lat="44.3452" lon="3.70746">
        <ele>1076.5</ele>
        <time>2021-08-11T08:27:36Z</time>
      </trkpt>
      <trkpt lat="44.3452" lon="3.70755">
        <ele>1076.8</ele>
        <time>2021-08-11T08:27:38Z</time>
      </trkpt>
      <trkpt lat="44.34522" lon="3.70764">
        <ele>1077.1</ele>
        <time>2021-08-11T08:27:40Z</time>
      </trkpt>
      <trkpt lat="44.34524" lon="3.70772">
        <ele>1077.3</ele>
        <time>2021-08-11T08:27:42Z</time>
      </trkpt>
      <trkpt lat="44.34526" lon="3.70779">
        <ele>1077.5</ele>
        <time>2021-08-11T08:27:44Z</time>
      </trkpt>
      <trkpt lat="44.34528" lon="3.70786">
        <ele>1077.7</ele>
        <time>2021-08-11T08:27:46Z</time>
      </trkpt>
      <trkpt lat="44.3453" lon="3.70793">
        <ele>1077.9</ele>
        <time>2021-08-11T08:27:48Z</time>
      </trkpt>
      <trkpt lat="44.34532" lon="3.708">
        <ele>1078.1</ele>
        <time>2021-08-11T08:27:50Z</time>
      </trkpt>
      <trkpt lat="44.34534" lon="3.70806">
        <ele>1078.3</ele>
        <time>2021-08-11T08:27:52Z</time>
      </trkpt>
      <trkpt lat="44.34535" lon="3.70812">
        <ele>1078.4</ele>
        <time>2021-08-11T08:27:54Z</time>
      </trkpt>
      <trkpt lat="44.34537" lon="3.70818">
        <ele>1078.6</ele>
        <time>2021-08-11T08:27:56Z</time>
      </trkpt>
      <trkpt lat="44.34538" lon="3.70824">
        <ele>1078.8</ele>
        <time>2021-08-11T08:27:58Z</time>
      </trkpt>
      <trkpt lat="44.34538" lon="3.70829">
        <ele>1079</ele>
        <time>2021-08-11T08:28:00Z</time>
      </trkpt>
      <trkpt lat="44.34538" lon="3.70834">
        <ele>1079.2</ele>
        <time>2021-08-11T08:28:02Z</time>
      </trkpt>
      <trkpt lat="44.34538" lon="3.7084">
        <ele>1079.3</ele>
        <time>2021-08-11T08:28:04Z</time>
      </trkpt>
      <trkpt lat="44.34539" lon="3.70844">
        <ele>1079.3</ele>
        <time>2021-08-11T08:28:06Z</time>
      </trkpt>
      <trkpt lat="44.34538" lon="3.70849">
        <ele>1079.5</ele>
        <time>2021-08-11T08:28:08Z</time>
      </trkpt>
      <trkpt lat="44.34538" lon="3.70854">
        <ele>1079.6</ele>
        <time>2021-08-11T08:28:10Z</time>
      </trkpt>
      <trkpt lat="44.34538" lon="3.70859">
        <ele>1079.6</ele>
        <time>2021-08-11T08:28:12Z</time>
      </trkpt>
      <trkpt lat="44.34536" lon="3.70864">
        <ele>1079.8</ele>
        <time>2021-08-11T08:28:14Z</time>
      </trkpt>
      <trkpt lat="44.34535" lon="3.7087">
        <ele>1080.1</ele>
        <time>2021-08-11T08:28:16Z</time>
      </trkpt>
      <trkpt lat="44.34533" lon="3.70876">
        <ele>1080.3</ele>
        <time>2021-08-11T08:28:18Z</time>
      </trkpt>
      <trkpt lat="44.34532" lon="3.70881">
        <ele>1080.5</ele>
        <time>2021-08-11T08:28:20Z</time>
      </trkpt>
      <trkpt lat="44.34531" lon="3.70885">
        <ele>1080.8</ele>
        <time>2021-08-11T08:28:22Z</time>
      </trkpt>
      <trkpt lat="44.34531" lon="3.70886">
        <ele>1080.8</ele>
        <time>2021-08-11T08:28:24Z</time>
      </trkpt>
      <trkpt lat="44.3453" lon="3.7089">
        <ele>1080.9</ele>
        <time>2021-08-11T08:28:26Z</time>
      </trkpt>
      <trkpt lat="44.34529" lon="3.70895">
        <ele>1081.1</ele>
        <time>2021-08-11T08:28:28Z</time>
      </trkpt>
      <trkpt lat="44.34527" lon="3.70901">
        <ele>1081.5</ele>
        <time>2021-08-11T08:28:30Z</time>
      </trkpt>
      <trkpt lat="44.34525" lon="3.70906">
        <ele>1081.7</ele>
        <time>2021-08-11T08:28:32Z</time>
      </trkpt>
      <trkpt lat="44.34524" lon="3.70912">
        <ele>1082</ele>
        <time>2021-08-11T08:28:34Z</time>
      </trkpt>
      <trkpt lat="44.34523" lon="3.70917">
        <ele>1082.3</ele>
        <time>2021-08-11T08:28:36Z</time>
      </trkpt>
      <trkpt lat="44.34521" lon="3.70923">
        <ele>1082.5</ele>
        <time>2021-08-11T08:28:38Z</time>
      </trkpt>
      <trkpt lat="44.3452" lon="3.70928">
        <ele>1082.7</ele>
        <time>2021-08-11T08:28:40Z</time>
      </trkpt>
      <trkpt lat="44.34519" lon="3.70933">
        <ele>1082.9</ele>
        <time>2021-08-11T08:28:42Z</time>
      </trkpt>
      <trkpt lat="44.34518" lon="3.70938">
        <ele>1083</ele>
        <time>2021-08-11T08:28:44Z</time>
      </trkpt>
      <trkpt lat="44.34516" lon="3.70944">
        <ele>1083.2</ele>
        <time>2021-08-11T08:28:46Z</time>
      </trkpt>
      <trkpt lat="44.34515" lon="3.70948">
        <ele>1083.5</ele>
        <time>2021-08-11T08:28:48Z</time>
      </trkpt>
      <trkpt lat="44.34514" lon="3.70953">
        <ele>1083.7</ele>
        <time>2021-08-11T08:28:50Z</time>
      </trkpt>
      <trkpt lat="44.34512" lon="3.70957">
        <ele>1083.9</ele>
        <time>2021-08-11T08:28:52Z</time>
      </trkpt>
      <trkpt lat="44.3451" lon="3.70962">
        <ele>1084.2</ele>
        <time>2021-08-11T08:28:54Z</time>
      </trkpt>
      <trkpt lat="44.34508" lon="3.70966">
        <ele>1084.6</ele>
        <time>2021-08-11T08:28:56Z</time>
      </trkpt>
      <trkpt lat="44.34505" lon="3.70971">
        <ele>1084.9</ele>
        <time>2021-08-11T08:28:58Z</time>
      </trkpt>
      <trkpt lat="44.34503" lon="3.70975">
        <ele>1085.3</ele>
        <time>2021-08-11T08:29:00Z</time>
      </trkpt>
      <trkpt lat="44.345" lon="3.70979">
        <ele>1085.7</ele>
        <time>2021-08-11T08:29:02Z</time>
      </trkpt>
      <trkpt lat="44.34498" lon="3.70984">
        <ele>1085.9</ele>
        <time>2021-08-11T08:29:04Z</time>
      </trkpt>
      <trkpt lat="44.34496" lon="3.70988">
        <ele>1086</ele>
        <time>2021-08-11T08:29:06Z</time>
      </trkpt>
      <trkpt lat="44.34493" lon="3.70991">
        <ele>1086.2</ele>
        <time>2021-08-11T08:29:08Z</time>
      </trkpt>
      <trkpt lat="44.34491" lon="3.70995">
        <ele>1086.3</ele>
        <time>2021-08-11T08:29:10Z</time>
      </trkpt>
      <trkpt lat="44.34489" lon="3.70999">
        <ele>1086.5</ele>
        <time>2021-08-11T08:29:12Z</time>
      </trkpt>
      <trkpt lat="44.34487" lon="3.71003">
        <ele>1086.8</ele>
        <time>2021-08-11T08:29:14Z</time>
      </trkpt>
      <trkpt lat="44.34485" lon="3.71008">
        <ele>1087.2</ele>
        <time>2021-08-11T08:29:16Z</time>
      </trkpt>
      <trkpt lat="44.34483" lon="3.71012">
        <ele>1087.5</ele>
        <time>2021-08-11T08:29:18Z</time>
      </trkpt>
      <trkpt lat="44.34482" lon="3.71017">
        <ele>1087.8</ele>
        <time>2021-08-11T08:29:20Z</time>
      </trkpt>
      <trkpt lat="44.34481" lon="3.71021">
        <ele>1088.1</ele>
        <time>2021-08-11T08:29:22Z</time>
      </trkpt>
      <trkpt lat="44.34479" lon="3.71025">
        <ele>1088.5</ele>
        <time>2021-08-11T08:29:24Z</time>
      </trkpt>
      <trkpt lat="44.34478" lon="3.7103">
        <ele>1088.8</ele>
        <time>2021-08-11T08:29:26Z</time>
      </trkpt>
      <trkpt lat="44.34476" lon="3.71035">
        <ele>1089.1</ele>
        <time>2021-08-11T08:29:28Z</time>
      </trkpt>
      <trkpt lat="44.34475" lon="3.7104">
        <ele>1089.5</ele>
        <time>2021-08-11T08:29:30Z</time>
      </trkpt>
      <trkpt lat="44.34473" lon="3.71045">
        <ele>1089.8</ele>
        <time>2021-08-11T08:29:32Z</time>
      </trkpt>
      <trkpt lat="44.34472" lon="3.71051">
        <ele>1090.2</ele>
        <time>2021-08-11T08:29:34Z</time>
      </trkpt>
      <trkpt lat="44.34471" lon="3.71056">
        <ele>1090.5</ele>
        <time>2021-08-11T08:29:36Z</time>
      </trkpt>
      <trkpt lat="44.3447" lon="3.71061">
        <ele>1090.9</ele>
        <time>2021-08-11T08:29:38Z</time>
      </trkpt>
      <trkpt lat="44.34469" lon="3.71066">
        <ele>1091.2</ele>
        <time>2021-08-11T08:29:40Z</time>
      </trkpt>
      <trkpt lat="44.34468" lon="3.71072">
        <ele>1091.5</ele>
        <time>2021-08-11T08:29:42Z</time>
      </trkpt>
      <trkpt lat="44.34466" lon="3.71077">
        <ele>1091.9</ele>
        <time>2021-08-11T08:29:44Z</time>
      </trkpt>
      <trkpt lat="44.34465" lon="3.71083">
        <ele>1092.2</ele>
        <time>2021-08-11T08:29:46Z</time>
      </trkpt>
      <trkpt lat="44.34464" lon="3.71089">
        <ele>1092.6</ele>
        <time>2021-08-11T08:29:48Z</time>
      </trkpt>
      <trkpt lat="44.34463" lon="3.71095">
        <ele>1092.9</ele>
        <time>2021-08-11T08:29:50Z</time>
      </trkpt>
      <trkpt lat="44.34462" lon="3.71101">
        <ele>1093.2</ele>
        <time>2021-08-11T08:29:52Z</time>
      </trkpt>
      <trkpt lat="44.34461" lon="3.71106">
        <ele>1093.5</ele>
        <time>2021-08-11T08:29:54Z</time>
      </trkpt>
      <trkpt lat="44.3446" lon="3.71112">
        <ele>1093.8</ele>
        <time>2021-08-11T08:29:56Z</time>
      </trkpt>
      <trkpt lat="44.34459" lon="3.71117">
        <ele>1094.1</ele>
        <time>2021-08-11T08:29:58Z</time>
      </trkpt>
      <trkpt lat="44.34458" lon="3.71123">
        <ele>1094.4</ele>
        <time>2021-08-11T08:30:00Z</time>
      </trkpt>
      <trkpt lat="44.34457" lon="3.71128">
        <ele>1094.7</ele>
        <time>2021-08-11T08:30:02Z</time>
      </trkpt>
      <trkpt lat="44.34457" lon="3.71133">
        <ele>1094.9</ele>
        <time>2021-08-11T08:30:04Z</time>
      </trkpt>
      <trkpt lat="44.34456" lon="3.71138">
        <ele>1095.2</ele>
        <time>2021-08-11T08:30:06Z</time>
      </trkpt>
      <trkpt lat="44.34455" lon="3.71143">
        <ele>1095.4</ele>
        <time>2021-08-11T08:30:08Z</time>
      </trkpt>
      <trkpt lat="44.34453" lon="3.71149">
        <ele>1095.6</ele>
        <time>2021-08-11T08:30:10Z</time>
      </trkpt>
      <trkpt lat="44.34452" lon="3.71154">
        <ele>1095.8</ele>
        <time>2021-08-11T08:30:12Z</time>
      </trkpt>
      <trkpt lat="44.3445" lon="3.71159">
        <ele>1096.1</ele>
        <time>2021-08-11T08:30:14Z</time>
      </trkpt>
      <trkpt lat="44.34449" lon="3.71164">
        <ele>1096.3</ele>
        <time>2021-08-11T08:30:16Z</time>
      </trkpt>
      <trkpt lat="44.34447" lon="3.71168">
        <ele>1096.4</ele>
        <time>2021-08-11T08:30:18Z</time>
      </trkpt>
      <trkpt lat="44.34445" lon="3.71172">
        <ele>1096.6</ele>
        <time>2021-08-11T08:30:20Z</time>
      </trkpt>
      <trkpt lat="44.34442" lon="3.71176">
        <ele>1096.8</ele>
        <time>2021-08-11T08:30:22Z</time>
      </trkpt>
      <trkpt lat="44.3444" lon="3.7118">
        <ele>1096.9</ele>
        <time>2021-08-11T08:30:24Z</time>
      </trkpt>
      <trkpt lat="44.34437" lon="3.71184">
        <ele>1097.1</ele>
        <time>2021-08-11T08:30:26Z</time>
      </trkpt>
      <trkpt lat="44.34434" lon="3.71187">
        <ele>1097.2</ele>
        <time>2021-08-11T08:30:28Z</time>
      </trkpt>
      <trkpt lat="44.34432" lon="3.71191">
        <ele>1097.4</ele>
        <time>2021-08-11T08:30:30Z</time>
      </trkpt>
      <trkpt lat="44.34429" lon="3.71195">
        <ele>1097.5</ele>
        <time>2021-08-11T08:30:32Z</time>
      </trkpt>
      <trkpt lat="44.34426" lon="3.71199">
        <ele>1097.7</ele>
        <time>2021-08-11T08:30:34Z</time>
      </trkpt>
      <trkpt lat="44.34424" lon="3.71203">
        <ele>1097.8</ele>
        <time>2021-08-11T08:30:36Z</time>
      </trkpt>
      <trkpt lat="44.34421" lon="3.71207">
        <ele>1098</ele>
        <time>2021-08-11T08:30:38Z</time>
      </trkpt>
      <trkpt lat="44.34419" lon="3.71212">
        <ele>1098.2</ele>
        <time>2021-08-11T08:30:40Z</time>
      </trkpt>
      <trkpt lat="44.34416" lon="3.71217">
        <ele>1098.4</ele>
        <time>2021-08-11T08:30:42Z</time>
      </trkpt>
      <trkpt lat="44.34414" lon="3.71222">
        <ele>1098.6</ele>
        <time>2021-08-11T08:30:44Z</time>
      </trkpt>
      <trkpt lat="44.34412" lon="3.71227">
        <ele>1098.8</ele>
        <time>2021-08-11T08:30:46Z</time>
      </trkpt>
      <trkpt lat="44.3441" lon="3.71232">
        <ele>1099.1</ele>
        <time>2021-08-11T08:30:48Z</time>
      </trkpt>
      <trkpt lat="44.34408" lon="3.71238">
        <ele>1099.4</ele>
        <time>2021-08-11T08:30:50Z</time>
      </trkpt>
      <trkpt lat="44.34407" lon="3.71244">
        <ele>1099.7</ele>
        <time>2021-08-11T08:30:52Z</time>
      </trkpt>
      <trkpt lat="44.34406" lon="3.7125">
        <ele>1100</ele>
        <time>2021-08-11T08:30:54Z</time>
      </trkpt>
      <trkpt lat="44.34405" lon="3.71256">
        <ele>1100.2</ele>
        <time>2021-08-11T08:30:56Z</time>
      </trkpt>
      <trkpt lat="44.34404" lon="3.71262">
        <ele>1100.5</ele>
        <time>2021-08-11T08:30:58Z</time>
      </trkpt>
      <trkpt lat="44.34403" lon="3.71269">
        <ele>1100.7</ele>
        <time>2021-08-11T08:31:00Z</time>
      </trkpt>
      <trkpt lat="44.34402" lon="3.71276">
        <ele>1101</ele>
        <time>2021-08-11T08:31:02Z</time>
      </trkpt>
      <trkpt lat="44.34401" lon="3.71283">
        <ele>1101.3</ele>
        <time>2021-08-11T08:31:04Z</time>
      </trkpt>
      <trkpt lat="44.34399" lon="3.7129">
        <ele>1101.5</ele>
        <time>2021-08-11T08:31:06Z</time>
      </trkpt>
      <trkpt lat="44.34398" lon="3.71297">
        <ele>1101.8</ele>
        <time>2021-08-11T08:31:08Z</time>
      </trkpt>
      <trkpt lat="44.34397" lon="3.71304">
        <ele>1102.1</ele>
        <time>2021-08-11T08:31:10Z</time>
      </trkpt>
      <trkpt lat="44.34395" lon="3.71311">
        <ele>1102.4</ele>
        <time>2021-08-11T08:31:12Z</time>
      </trkpt>
      <trkpt lat="44.34394" lon="3.71318">
        <ele>1102.7</ele>
        <time>2021-08-11T08:31:14Z</time>
      </trkpt>
      <trkpt lat="44.34393" lon="3.71325">
        <ele>1103</ele>
        <time>2021-08-11T08:31:16Z</time>
      </trkpt>
      <trkpt lat="44.34391" lon="3.71332">
        <ele>1103.3</ele>
        <time>2021-08-11T08:31:18Z</time>
      </trkpt>
      <trkpt lat="44.34389" lon="3.71338">
        <ele>1103.4</ele>
        <time>2021-08-11T08:31:20Z</time>
      </trkpt>
      <trkpt lat="44.34386" lon="3.71345">
        <ele>1103.6</ele>
        <time>2021-08-11T08:31:22Z</time>
      </trkpt>
      <trkpt lat="44.34383" lon="3.71351">
        <ele>1103.7</ele>
        <time>2021-08-11T08:31:24Z</time>
      </trkpt>
      <trkpt lat="44.34381" lon="3.71356">
        <ele>1103.9</ele>
        <time>2021-08-11T08:31:26Z</time>
      </trkpt>
      <trkpt lat="44.34377" lon="3.71362">
        <ele>1104</ele>
        <time>2021-08-11T08:31:28Z</time>
      </trkpt>
      <trkpt lat="44.34374" lon="3.71367">
        <ele>1104.1</ele>
        <time>2021-08-11T08:31:30Z</time>
      </trkpt>
      <trkpt lat="44.3437" lon="3.71372">
        <ele>1104.2</ele>
        <time>2021-08-11T08:31:32Z</time>
      </trkpt>
      <trkpt lat="44.34365" lon="3.71377">
        <ele>1104.3</ele>
        <time>2021-08-11T08:31:34Z</time>
      </trkpt>
      <trkpt lat="44.34361" lon="3.71381">
        <ele>1104.4</ele>
        <time>2021-08-11T08:31:36Z</time>
      </trkpt>
      <trkpt lat="44.34357" lon="3.71386">
        <ele>1104.5</ele>
        <time>2021-08-11T08:31:38Z</time>
      </trkpt>
      <trkpt lat="44.34353" lon="3.71391">
        <ele>1104.6</ele>
        <time>2021-08-11T08:31:40Z</time>
      </trkpt>
      <trkpt lat="44.34348" lon="3.71396">
        <ele>1104.7</ele>
        <time>2021-08-11T08:31:42Z</time>
      </trkpt>
      <trkpt lat="44.34344" lon="3.714">
        <ele>1104.8</ele>
        <time>2021-08-11T08:31:44Z</time>
      </trkpt>
      <trkpt lat="44.34339" lon="3.71404">
        <ele>1104.8</ele>
        <time>2021-08-11T08:31:46Z</time>
      </trkpt>
      <trkpt lat="44.34335" lon="3.71409">
        <ele>1104.9</ele>
        <time>2021-08-11T08:31:48Z</time>
      </trkpt>
      <trkpt lat="44.34331" lon="3.71413">
        <ele>1105.1</ele>
        <time>2021-08-11T08:31:50Z</time>
      </trkpt>
      <trkpt lat="44.34326" lon="3.71417">
        <ele>1105.3</ele>
        <time>2021-08-11T08:31:52Z</time>
      </trkpt>
      <trkpt lat="44.34322" lon="3.71421">
        <ele>1105.5</ele>
        <time>2021-08-11T08:31:54Z</time>
      </trkpt>
      <trkpt lat="44.34318" lon="3.71425">
        <ele>1105.7</ele>
        <time>2021-08-11T08:31:56Z</time>
      </trkpt>
      <trkpt lat="44.34313" lon="3.71428">
        <ele>1105.9</ele>
        <time>2021-08-11T08:31:58Z</time>
      </trkpt>
      <trkpt lat="44.34308" lon="3.71432">
        <ele>1106.1</ele>
        <time>2021-08-11T08:32:00Z</time>
      </trkpt>
      <trkpt lat="44.34304" lon="3.71435">
        <ele>1106.3</ele>
        <time>2021-08-11T08:32:02Z</time>
      </trkpt>
      <trkpt lat="44.34299" lon="3.71438">
        <ele>1106.5</ele>
        <time>2021-08-11T08:32:04Z</time>
      </trkpt>
      <trkpt lat="44.34294" lon="3.71441">
        <ele>1106.7</ele>
        <time>2021-08-11T08:32:06Z</time>
      </trkpt>
      <trkpt lat="44.3429" lon="3.71443">
        <ele>1106.9</ele>
        <time>2021-08-11T08:32:08Z</time>
      </trkpt>
      <trkpt lat="44.34285" lon="3.71445">
        <ele>1107.2</ele>
        <time>2021-08-11T08:32:10Z</time>
      </trkpt>
      <trkpt lat="44.34279" lon="3.71447">
        <ele>1107.5</ele>
        <time>2021-08-11T08:32:12Z</time>
      </trkpt>
      <trkpt lat="44.34274" lon="3.7145">
        <ele>1107.7</ele>
        <time>2021-08-11T08:32:14Z</time>
      </trkpt>
      <trkpt lat="44.34269" lon="3.71451">
        <ele>1108</ele>
        <time>2021-08-11T08:32:16Z</time>
      </trkpt>
      <trkpt lat="44.34263" lon="3.71454">
        <ele>1108.3</ele>
        <time>2021-08-11T08:32:18Z</time>
      </trkpt>
      <trkpt lat="44.34258" lon="3.71455">
        <ele>1108.6</ele>
        <time>2021-08-11T08:32:20Z</time>
      </trkpt>
      <trkpt lat="44.34254" lon="3.71457">
        <ele>1108.8</ele>
        <time>2021-08-11T08:32:22Z</time>
      </trkpt>
      <trkpt lat="44.34248" lon="3.71458">
        <ele>1109.1</ele>
        <time>2021-08-11T08:32:24Z</time>
      </trkpt>
      <trkpt lat="44.34243" lon="3.71461">
        <ele>1109.2</ele>
        <time>2021-08-11T08:32:26Z</time>
      </trkpt>
      <trkpt lat="44.34237" lon="3.71462">
        <ele>1109.4</ele>
        <time>2021-08-11T08:32:28Z</time>
      </trkpt>
      <trkpt lat="44.34232" lon="3.71465">
        <ele>1109.5</ele>
        <time>2021-08-11T08:32:30Z</time>
      </trkpt>
      <trkpt lat="44.34227" lon="3.71468">
        <ele>1109.7</ele>
        <time>2021-08-11T08:32:32Z</time>
      </trkpt>
      <trkpt lat="44.34222" lon="3.71472">
        <ele>1109.8</ele>
        <time>2021-08-11T08:32:34Z</time>
      </trkpt>
      <trkpt lat="44.34217" lon="3.71476">
        <ele>1109.9</ele>
        <time>2021-08-11T08:32:36Z</time>
      </trkpt>
      <trkpt lat="44.34213" lon="3.71479">
        <ele>1110</ele>
        <time>2021-08-11T08:32:38Z</time>
      </trkpt>
      <trkpt lat="44.34209" lon="3.71484">
        <ele>1110.1</ele>
        <time>2021-08-11T08:32:40Z</time>
      </trkpt>
      <trkpt lat="44.34204" lon="3.71489">
        <ele>1110.2</ele>
        <time>2021-08-11T08:32:42Z</time>
      </trkpt>
      <trkpt lat="44.342" lon="3.71494">
        <ele>1110.2</ele>
        <time>2021-08-11T08:32:44Z</time>
      </trkpt>
      <trkpt lat="44.34196" lon="3.71499">
        <ele>1110.3</ele>
        <time>2021-08-11T08:32:46Z</time>
      </trkpt>
      <trkpt lat="44.34192" lon="3.71505">
        <ele>1110.3</ele>
        <time>2021-08-11T08:32:48Z</time>
      </trkpt>
      <trkpt lat="44.34188" lon="3.71511">
        <ele>1110.2</ele>
        <time>2021-08-11T08:32:50Z</time>
      </trkpt>
      <trkpt lat="44.34184" lon="3.71516">
        <ele>1110.1</ele>
        <time>2021-08-11T08:32:52Z</time>
      </trkpt>
      <trkpt lat="44.34181" lon="3.71521">
        <ele>1110</ele>
        <time>2021-08-11T08:32:54Z</time>
      </trkpt>
      <trkpt lat="44.34177" lon="3.71524">
        <ele>1110</ele>
        <time>2021-08-11T08:32:56Z</time>
      </trkpt>
      <trkpt lat="44.34174" lon="3.71528">
        <ele>1109.9</ele>
        <time>2021-08-11T08:32:58Z</time>
      </trkpt>
      <trkpt lat="44.3417" lon="3.71532">
        <ele>1109.8</ele>
        <time>2021-08-11T08:33:00Z</time>
      </trkpt>
      <trkpt lat="44.34166" lon="3.71536">
        <ele>1109.7</ele>
        <time>2021-08-11T08:33:02Z</time>
      </trkpt>
      <trkpt lat="44.34162" lon="3.7154">
        <ele>1109.6</ele>
        <time>2021-08-11T08:33:04Z</time>
      </trkpt>
      <trkpt lat="44.34159" lon="3.71545">
        <ele>1109.5</ele>
        <time>2021-08-11T08:33:06Z</time>
      </trkpt>
      <trkpt lat="44.34156" lon="3.71548">
        <ele>1109.4</ele>
        <time>2021-08-11T08:33:08Z</time>
      </trkpt>
      <trkpt lat="44.34152" lon="3.71552">
        <ele>1109.3</ele>
        <time>2021-08-11T08:33:10Z</time>
      </trkpt>
      <trkpt lat="44.34148" lon="3.71554">
        <ele>1109.3</ele>
        <time>2021-08-11T08:33:12Z</time>
      </trkpt>
      <trkpt lat="44.34143" lon="3.71559">
        <ele>1109.3</ele>
        <time>2021-08-11T08:33:14Z</time>
      </trkpt>
      <trkpt lat="44.34138" lon="3.71563">
        <ele>1109.3</ele>
        <time>2021-08-11T08:33:16Z</time>
      </trkpt>
      <trkpt lat="44.34133" lon="3.71568">
        <ele>1109.4</ele>
        <time>2021-08-11T08:33:18Z</time>
      </trkpt>
      <trkpt lat="44.34128" lon="3.71573">
        <ele>1109.5</ele>
        <time>2021-08-11T08:33:20Z</time>
      </trkpt>
      <trkpt lat="44.34122" lon="3.71578">
        <ele>1109.6</ele>
        <time>2021-08-11T08:33:22Z</time>
      </trkpt>
      <trkpt lat="44.34117" lon="3.71583">
        <ele>1109.8</ele>
        <time>2021-08-11T08:33:24Z</time>
      </trkpt>
      <trkpt lat="44.34112" lon="3.71588">
        <ele>1109.9</ele>
        <time>2021-08-11T08:33:26Z</time>
      </trkpt>
      <trkpt lat="44.34107" lon="3.71594">
        <ele>1110</ele>
        <time>2021-08-11T08:33:28Z</time>
      </trkpt>
      <trkpt lat="44.34102" lon="3.71601">
        <ele>1110</ele>
        <time>2021-08-11T08:33:30Z</time>
      </trkpt>
      <trkpt lat="44.34096" lon="3.71607">
        <ele>1110</ele>
        <time>2021-08-11T08:33:32Z</time>
      </trkpt>
      <trkpt lat="44.34091" lon="3.71613">
        <ele>1110.1</ele>
        <time>2021-08-11T08:33:34Z</time>
      </trkpt>
      <trkpt lat="44.34085" lon="3.71621">
        <ele>1110.1</ele>
        <time>2021-08-11T08:33:36Z</time>
      </trkpt>
      <trkpt lat="44.34079" lon="3.71628">
        <ele>1109.9</ele>
        <time>2021-08-11T08:33:38Z</time>
      </trkpt>
      <trkpt lat="44.34073" lon="3.71635">
        <ele>1109.8</ele>
        <time>2021-08-11T08:33:40Z</time>
      </trkpt>
      <trkpt lat="44.34065" lon="3.71641">
        <ele>1109.8</ele>
        <time>2021-08-11T08:33:42Z</time>
      </trkpt>
      <trkpt lat="44.34058" lon="3.71646">
        <ele>1109.8</ele>
        <time>2021-08-11T08:33:44Z</time>
      </trkpt>
      <trkpt lat="44.3405" lon="3.7165">
        <ele>1109.9</ele>
        <time>2021-08-11T08:33:46Z</time>
      </trkpt>
      <trkpt lat="44.34042" lon="3.71655">
        <ele>1110</ele>
        <time>2021-08-11T08:33:48Z</time>
      </trkpt>
      <trkpt lat="44.34034" lon="3.7166">
        <ele>1110.1</ele>
        <time>2021-08-11T08:33:50Z</time>
      </trkpt>
      <trkpt lat="44.34027" lon="3.71666">
        <ele>1110.3</ele>
        <time>2021-08-11T08:33:52Z</time>
      </trkpt>
      <trkpt lat="44.34019" lon="3.71673">
        <ele>1110.5</ele>
        <time>2021-08-11T08:33:54Z</time>
      </trkpt>
      <trkpt lat="44.34011" lon="3.7168">
        <ele>1110.8</ele>
        <time>2021-08-11T08:33:56Z</time>
      </trkpt>
      <trkpt lat="44.34004" lon="3.71687">
        <ele>1111.1</ele>
        <time>2021-08-11T08:33:58Z</time>
      </trkpt>
      <trkpt lat="44.33998" lon="3.71694">
        <ele>1111.4</ele>
        <time>2021-08-11T08:34:00Z</time>
      </trkpt>
      <trkpt lat="44.33991" lon="3.71702">
        <ele>1111.6</ele>
        <time>2021-08-11T08:34:02Z</time>
      </trkpt>
      <trkpt lat="44.33985" lon="3.71711">
        <ele>1111.8</ele>
        <time>2021-08-11T08:34:04Z</time>
      </trkpt>
      <trkpt lat="44.33978" lon="3.71718">
        <ele>1111.9</ele>
        <time>2021-08-11T08:34:06Z</time>
      </trkpt>
      <trkpt lat="44.33973" lon="3.71726">
        <ele>1112</ele>
        <time>2021-08-11T08:34:08Z</time>
      </trkpt>
      <trkpt lat="44.33966" lon="3.71735">
        <ele>1112</ele>
        <time>2021-08-11T08:34:10Z</time>
      </trkpt>
      <trkpt lat="44.3396" lon="3.71742">
        <ele>1112</ele>
        <time>2021-08-11T08:34:12Z</time>
      </trkpt>
      <trkpt lat="44.33956" lon="3.7175">
        <ele>1112</ele>
        <time>2021-08-11T08:34:14Z</time>
      </trkpt>
      <trkpt lat="44.33951" lon="3.71759">
        <ele>1111.8</ele>
        <time>2021-08-11T08:34:16Z</time>
      </trkpt>
      <trkpt lat="44.33946" lon="3.71769">
        <ele>1111.5</ele>
        <time>2021-08-11T08:34:18Z</time>
      </trkpt>
      <trkpt lat="44.33943" lon="3.71779">
        <ele>1111.2</ele>
        <time>2021-08-11T08:34:20Z</time>
      </trkpt>
      <trkpt lat="44.33938" lon="3.71789">
        <ele>1110.8</ele>
        <time>2021-08-11T08:34:22Z</time>
      </trkpt>
      <trkpt lat="44.33933" lon="3.71799">
        <ele>1110.5</ele>
        <time>2021-08-11T08:34:24Z</time>
      </trkpt>
      <trkpt lat="44.33928" lon="3.71809">
        <ele>1110.1</ele>
        <time>2021-08-11T08:34:26Z</time>
      </trkpt>
      <trkpt lat="44.33923" lon="3.71818">
        <ele>1109.7</ele>
        <time>2021-08-11T08:34:28Z</time>
      </trkpt>
      <trkpt lat="44.33919" lon="3.71828">
        <ele>1109.2</ele>
        <time>2021-08-11T08:34:30Z</time>
      </trkpt>
      <trkpt lat="44.33915" lon="3.71839">
        <ele>1109</ele>
        <time>2021-08-11T08:34:32Z</time>
      </trkpt>
      <trkpt lat="44.3391" lon="3.71851">
        <ele>1108.9</ele>
        <time>2021-08-11T08:34:34Z</time>
      </trkpt>
      <trkpt lat="44.33904" lon="3.71862">
        <ele>1108.8</ele>
        <time>2021-08-11T08:34:36Z</time>
      </trkpt>
      <trkpt lat="44.33897" lon="3.71871">
        <ele>1108.8</ele>
        <time>2021-08-11T08:34:38Z</time>
      </trkpt>
      <trkpt lat="44.3389" lon="3.7188">
        <ele>1108.7</ele>
        <time>2021-08-11T08:34:40Z</time>
      </trkpt>
      <trkpt lat="44.33882" lon="3.71888">
        <ele>1108.6</ele>
        <time>2021-08-11T08:34:42Z</time>
      </trkpt>
      <trkpt lat="44.33875" lon="3.71895">
        <ele>1108.5</ele>
        <time>2021-08-11T08:34:44Z</time>
      </trkpt>
      <trkpt lat="44.33868" lon="3.71902">
        <ele>1108.4</ele>
        <time>2021-08-11T08:34:46Z</time>
      </trkpt>
      <trkpt lat="44.33861" lon="3.71909">
        <ele>1108.3</ele>
        <time>2021-08-11T08:34:48Z</time>
      </trkpt>
      <trkpt lat="44.33854" lon="3.71916">
        <ele>1108.3</ele>
        <time>2021-08-11T08:34:50Z</time>
      </trkpt>
      <trkpt lat="44.33847" lon="3.71925">
        <ele>1108.5</ele>
        <time>2021-08-11T08:34:52Z</time>
      </trkpt>
      <trkpt lat="44.33841" lon="3.71934">
        <ele>1108.7</ele>
        <time>2021-08-11T08:34:54Z</time>
      </trkpt>
      <trkpt lat="44.33834" lon="3.71943">
        <ele>1108.9</ele>
        <time>2021-08-11T08:34:56Z</time>
      </trkpt>
      <trkpt lat="44.33828" lon="3.71952">
        <ele>1108.8</ele>
        <time>2021-08-11T08:34:58Z</time>
      </trkpt>
      <trkpt lat="44.33823" lon="3.71962">
        <ele>1108.7</ele>
        <time>2021-08-11T08:35:00Z</time>
      </trkpt>
      <trkpt lat="44.33818" lon="3.71971">
        <ele>1108.5</ele>
        <time>2021-08-11T08:35:02Z</time>
      </trkpt>
      <trkpt lat="44.33814" lon="3.7198">
        <ele>1108.2</ele>
        <time>2021-08-11T08:35:04Z</time>
      </trkpt>
      <trkpt lat="44.33809" lon="3.71988">
        <ele>1107.9</ele>
        <time>2021-08-11T08:35:06Z</time>
      </trkpt>
      <trkpt lat="44.33804" lon="3.71997">
        <ele>1107.4</ele>
        <time>2021-08-11T08:35:08Z</time>
      </trkpt>
      <trkpt lat="44.33799" lon="3.72006">
        <ele>1106.9</ele>
        <time>2021-08-11T08:35:10Z</time>
      </trkpt>
      <trkpt lat="44.33794" lon="3.72016">
        <ele>1106.4</ele>
        <time>2021-08-11T08:35:12Z</time>
      </trkpt>
      <trkpt lat="44.33789" lon="3.72026">
        <ele>1105.8</ele>
        <time>2021-08-11T08:35:14Z</time>
      </trkpt>
      <trkpt lat="44.33784" lon="3.72036">
        <ele>1105.4</ele>
        <time>2021-08-11T08:35:16Z</time>
      </trkpt>
      <trkpt lat="44.33779" lon="3.72046">
        <ele>1104.9</ele>
        <time>2021-08-11T08:35:18Z</time>
      </trkpt>
      <trkpt lat="44.33775" lon="3.72056">
        <ele>1104.5</ele>
        <time>2021-08-11T08:35:20Z</time>
      </trkpt>
      <trkpt lat="44.33771" lon="3.72067">
        <ele>1104.2</ele>
        <time>2021-08-11T08:35:22Z</time>
      </trkpt>
      <trkpt lat="44.33769" lon="3.72078">
        <ele>1104</ele>
        <time>2021-08-11T08:35:24Z</time>
      </trkpt>
      <trkpt lat="44.33766" lon="3.72089">
        <ele>1103.7</ele>
        <time>2021-08-11T08:35:26Z</time>
      </trkpt>
      <trkpt lat="44.33762" lon="3.72099">
        <ele>1103.2</ele>
        <time>2021-08-11T08:35:28Z</time>
      </trkpt>
      <trkpt lat="44.33757" lon="3.72109">
        <ele>1102.7</ele>
        <time>2021-08-11T08:35:30Z</time>
      </trkpt>
      <trkpt lat="44.33751" lon="3.72117">
        <ele>1102.1</ele>
        <time>2021-08-11T08:35:32Z</time>
      </trkpt>
      <trkpt lat="44.33745" lon="3.72125">
        <ele>1101.7</ele>
        <time>2021-08-11T08:35:34Z</time>
      </trkpt>
      <trkpt lat="44.33739" lon="3.72131">
        <ele>1101.2</ele>
        <time>2021-08-11T08:35:36Z</time>
      </trkpt>
      <trkpt lat="44.33735" lon="3.72135">
        <ele>1100.9</ele>
        <time>2021-08-11T08:35:38Z</time>
      </trkpt>
      <trkpt lat="44.3373" lon="3.72139">
        <ele>1100.6</ele>
        <time>2021-08-11T08:35:40Z</time>
      </trkpt>
      <trkpt lat="44.33726" lon="3.72146">
        <ele>1100.2</ele>
        <time>2021-08-11T08:35:42Z</time>
      </trkpt>
      <trkpt lat="44.33721" lon="3.72151">
        <ele>1099.7</ele>
        <time>2021-08-11T08:35:44Z</time>
      </trkpt>
      <trkpt lat="44.33716" lon="3.72161">
        <ele>1099.2</ele>
        <time>2021-08-11T08:35:46Z</time>
      </trkpt>
      <trkpt lat="44.33711" lon="3.72171">
        <ele>1098.6</ele>
        <time>2021-08-11T08:35:48Z</time>
      </trkpt>
      <trkpt lat="44.33707" lon="3.72182">
        <ele>1098.1</ele>
        <time>2021-08-11T08:35:50Z</time>
      </trkpt>
      <trkpt lat="44.33703" lon="3.72193">
        <ele>1097.6</ele>
        <time>2021-08-11T08:35:52Z</time>
      </trkpt>
      <trkpt lat="44.33699" lon="3.72204">
        <ele>1097</ele>
        <time>2021-08-11T08:35:54Z</time>
      </trkpt>
      <trkpt lat="44.33695" lon="3.72216">
        <ele>1096.4</ele>
        <time>2021-08-11T08:35:56Z</time>
      </trkpt>
      <trkpt lat="44.33689" lon="3.72228">
        <ele>1095.6</ele>
        <time>2021-08-11T08:35:58Z</time>
      </trkpt>
      <trkpt lat="44.33683" lon="3.72239">
        <ele>1094.8</ele>
        <time>2021-08-11T08:36:00Z</time>
      </trkpt>
      <trkpt lat="44.33673" lon="3.72249">
        <ele>1093.7</ele>
        <time>2021-08-11T08:36:02Z</time>
      </trkpt>
      <trkpt lat="44.33662" lon="3.72255">
        <ele>1093.1</ele>
        <time>2021-08-11T08:36:04Z</time>
      </trkpt>
      <trkpt lat="44.3365" lon="3.72264">
        <ele>1093</ele>
        <time>2021-08-11T08:36:06Z</time>
      </trkpt>
      <trkpt lat="44.33638" lon="3.72278">
        <ele>1093</ele>
        <time>2021-08-11T08:36:08Z</time>
      </trkpt>
      <trkpt lat="44.33626" lon="3.72293">
        <ele>1092.8</ele>
        <time>2021-08-11T08:36:10Z</time>
      </trkpt>
      <trkpt lat="44.33614" lon="3.72304">
        <ele>1092.5</ele>
        <time>2021-08-11T08:36:12Z</time>
      </trkpt>
      <trkpt lat="44.33603" lon="3.72312">
        <ele>1092</ele>
        <time>2021-08-11T08:36:14Z</time>
      </trkpt>
      <trkpt lat="44.33593" lon="3.72319">
        <ele>1091.5</ele>
        <time>2021-08-11T08:36:16Z</time>
      </trkpt>
      <trkpt lat="44.33584" lon="3.72323">
        <ele>1091</ele>
        <time>2021-08-11T08:36:18Z</time>
      </trkpt>
      <trkpt lat="44.33576" lon="3.72328">
        <ele>1090.8</ele>
        <time>2021-08-11T08:36:20Z</time>
      </trkpt>
      <trkpt lat="44.33568" lon="3.72333">
        <ele>1090.6</ele>
        <time>2021-08-11T08:36:22Z</time>
      </trkpt>
      <trkpt lat="44.3356" lon="3.72338">
        <ele>1090.9</ele>
        <time>2021-08-11T08:36:24Z</time>
      </trkpt>
      <trkpt lat="44.33551" lon="3.72342">
        <ele>1091</ele>
        <time>2021-08-11T08:36:26Z</time>
      </trkpt>
      <trkpt lat="44.33542" lon="3.72345">
        <ele>1091.1</ele>
        <time>2021-08-11T08:36:28Z</time>
      </trkpt>
      <trkpt lat="44.3353" lon="3.72345">
        <ele>1090.7</ele>
        <time>2021-08-11T08:36:30Z</time>
      </trkpt>
      <trkpt lat="44.33519" lon="3.72346">
        <ele>1090.4</ele>
        <time>2021-08-11T08:36:32Z</time>
      </trkpt>
      <trkpt lat="44.33508" lon="3.72345">
        <ele>1090</ele>
        <time>2021-08-11T08:36:34Z</time>
      </trkpt>
      <trkpt lat="44.33497" lon="3.72343">
        <ele>1089.7</ele>
        <time>2021-08-11T08:36:36Z</time>
      </trkpt>
      <trkpt lat="44.33485" lon="3.72342">
        <ele>1089.5</ele>
        <time>2021-08-11T08:36:38Z</time>
      </trkpt>
      <trkpt lat="44.33476" lon="3.72336">
        <ele>1089.2</ele>
        <time>2021-08-11T08:36:40Z</time>
      </trkpt>
      <trkpt lat="44.33467" lon="3.72331">
        <ele>1088.9</ele>
        <time>2021-08-11T08:36:42Z</time>
      </trkpt>
      <trkpt lat="44.33459" lon="3.72324">
        <ele>1088.7</ele>
        <time>2021-08-11T08:36:44Z</time>
      </trkpt>
      <trkpt lat="44.33451" lon="3.72319">
        <ele>1088.5</ele>
        <time>2021-08-11T08:36:46Z</time>
      </trkpt>
      <trkpt lat="44.33444" lon="3.72315">
        <ele>1088.4</ele>
        <time>2021-08-11T08:36:48Z</time>
      </trkpt>
      <trkpt lat="44.33437" lon="3.72314">
        <ele>1088.4</ele>
        <time>2021-08-11T08:36:50Z</time>
      </trkpt>
      <trkpt lat="44.3343" lon="3.72312">
        <ele>1088.3</ele>
        <time>2021-08-11T08:36:52Z</time>
      </trkpt>
      <trkpt lat="44.33422" lon="3.72312">
        <ele>1088.3</ele>
        <time>2021-08-11T08:36:54Z</time>
      </trkpt>
      <trkpt lat="44.33414" lon="3.72312">
        <ele>1088.1</ele>
        <time>2021-08-11T08:36:56Z</time>
      </trkpt>
      <trkpt lat="44.33408" lon="3.72313">
        <ele>1087.9</ele>
        <time>2021-08-11T08:36:58Z</time>
      </trkpt>
      <trkpt lat="44.33402" lon="3.72315">
        <ele>1087.7</ele>
        <time>2021-08-11T08:37:00Z</time>
      </trkpt>
      <trkpt lat="44.33396" lon="3.72318">
        <ele>1087.5</ele>
        <time>2021-08-11T08:37:02Z</time>
      </trkpt>
      <trkpt lat="44.33389" lon="3.72322">
        <ele>1087.3</ele>
        <time>2021-08-11T08:37:04Z</time>
      </trkpt>
      <trkpt lat="44.33384" lon="3.72327">
        <ele>1087.2</ele>
        <time>2021-08-11T08:37:06Z</time>
      </trkpt>
      <trkpt lat="44.33377" lon="3.72332">
        <ele>1087.1</ele>
        <time>2021-08-11T08:37:08Z</time>
      </trkpt>
      <trkpt lat="44.33371" lon="3.72338">
        <ele>1086.9</ele>
        <time>2021-08-11T08:37:10Z</time>
      </trkpt>
      <trkpt lat="44.33365" lon="3.72342">
        <ele>1086.6</ele>
        <time>2021-08-11T08:37:12Z</time>
      </trkpt>
      <trkpt lat="44.33359" lon="3.72349">
        <ele>1086.4</ele>
        <time>2021-08-11T08:37:14Z</time>
      </trkpt>
      <trkpt lat="44.33355" lon="3.72353">
        <ele>1086.2</ele>
        <time>2021-08-11T08:37:16Z</time>
      </trkpt>
      <trkpt lat="44.33351" lon="3.72356">
        <ele>1086</ele>
        <time>2021-08-11T08:37:18Z</time>
      </trkpt>
      <trkpt lat="44.33348" lon="3.7236">
        <ele>1085.9</ele>
        <time>2021-08-11T08:37:20Z</time>
      </trkpt>
      <trkpt lat="44.33344" lon="3.72363">
        <ele>1085.6</ele>
        <time>2021-08-11T08:37:22Z</time>
      </trkpt>
      <trkpt lat="44.3334" lon="3.72366">
        <ele>1085.4</ele>
        <time>2021-08-11T08:37:24Z</time>
      </trkpt>
      <trkpt lat="44.33338" lon="3.72368">
        <ele>1085.3</ele>
        <time>2021-08-11T08:37:26Z</time>
      </trkpt>
      <trkpt lat="44.33336" lon="3.72372">
        <ele>1085.2</ele>
        <time>2021-08-11T08:37:28Z</time>
      </trkpt>
      <trkpt lat="44.33334" lon="3.72376">
        <ele>1085</ele>
        <time>2021-08-11T08:37:30Z</time>
      </trkpt>
      <trkpt lat="44.33332" lon="3.72379">
        <ele>1085</ele>
        <time>2021-08-11T08:37:32Z</time>
      </trkpt>
      <trkpt lat="44.33328" lon="3.72383">
        <ele>1085.1</ele>
        <time>2021-08-11T08:37:34Z</time>
      </trkpt>
      <trkpt lat="44.33325" lon="3.72387">
        <ele>1085.2</ele>
        <time>2021-08-11T08:37:36Z</time>
      </trkpt>
      <trkpt lat="44.33323" lon="3.72392">
        <ele>1085.3</ele>
        <time>2021-08-11T08:37:38Z</time>
      </trkpt>
      <trkpt lat="44.3332" lon="3.72395">
        <ele>1085.4</ele>
        <time>2021-08-11T08:37:40Z</time>
      </trkpt>
      <trkpt lat="44.33317" lon="3.72394">
        <ele>1085.5</ele>
        <time>2021-08-11T08:37:42Z</time>
      </trkpt>
      <trkpt lat="44.33317" lon="3.72394">
        <ele>1085.5</ele>
        <time>2021-08-11T08:37:44Z</time>
      </trkpt>
      <trkpt lat="44.33317" lon="3.72394">
        <ele>1085.5</ele>
        <time>2021-08-11T08:37:46Z</time>
      </trkpt>
      <trkpt lat="44.33317" lon="3.72394">
        <ele>1085.5</ele>
        <time>2021-08-11T08:37:48Z</time>
      </trkpt>
      <trkpt lat="44.33317" lon="3.72394">
        <ele>1085.5</ele>
        <time>2021-08-11T08:37:50Z</time>
      </trkpt>
      <trkpt lat="44.33321" lon="3.72425">
        <ele>1085.7</ele>
        <time>2021-08-11T08:39:26Z</time>
      </trkpt>
      <trkpt lat="44.33322" lon="3.72432">
        <ele>1085.7</ele>
        <time>2021-08-11T08:39:28Z</time>
      </trkpt>
      <trkpt lat="44.33323" lon="3.72439">
        <ele>1085.8</ele>
        <time>2021-08-11T08:39:30Z</time>
      </trkpt>
      <trkpt lat="44.33324" lon="3.72444">
        <ele>1085.8</ele>
        <time>2021-08-11T08:39:32Z</time>
      </trkpt>
      <trkpt lat="44.33325" lon="3.72449">
        <ele>1085.8</ele>
        <time>2021-08-11T08:39:34Z</time>
      </trkpt>
      <trkpt lat="44.33325" lon="3.72456">
        <ele>1085.9</ele>
        <time>2021-08-11T08:39:36Z</time>
      </trkpt>
      <trkpt lat="44.33325" lon="3.72464">
        <ele>1086</ele>
        <time>2021-08-11T08:39:38Z</time>
      </trkpt>
      <trkpt lat="44.33323" lon="3.72471">
        <ele>1086.2</ele>
        <time>2021-08-11T08:39:40Z</time>
      </trkpt>
      <trkpt lat="44.33323" lon="3.72481">
        <ele>1086.3</ele>
        <time>2021-08-11T08:39:42Z</time>
      </trkpt>
      <trkpt lat="44.33323" lon="3.72491">
        <ele>1086.5</ele>
        <time>2021-08-11T08:39:44Z</time>
      </trkpt>
      <trkpt lat="44.33323" lon="3.72502">
        <ele>1086.6</ele>
        <time>2021-08-11T08:39:46Z</time>
      </trkpt>
      <trkpt lat="44.33322" lon="3.7251">
        <ele>1086.6</ele>
        <time>2021-08-11T08:39:48Z</time>
      </trkpt>
      <trkpt lat="44.33321" lon="3.7252">
        <ele>1086.7</ele>
        <time>2021-08-11T08:39:50Z</time>
      </trkpt>
      <trkpt lat="44.33321" lon="3.72531">
        <ele>1086.7</ele>
        <time>2021-08-11T08:39:52Z</time>
      </trkpt>
      <trkpt lat="44.3332" lon="3.72543">
        <ele>1086.7</ele>
        <time>2021-08-11T08:39:54Z</time>
      </trkpt>
      <trkpt lat="44.33319" lon="3.72557">
        <ele>1086.7</ele>
        <time>2021-08-11T08:39:56Z</time>
      </trkpt>
      <trkpt lat="44.33319" lon="3.72571">
        <ele>1086.7</ele>
        <time>2021-08-11T08:39:58Z</time>
      </trkpt>
      <trkpt lat="44.33317" lon="3.72586">
        <ele>1086.7</ele>
        <time>2021-08-11T08:40:00Z</time>
      </trkpt>
      <trkpt lat="44.33316" lon="3.72602">
        <ele>1086.2</ele>
        <time>2021-08-11T08:40:02Z</time>
      </trkpt>
      <trkpt lat="44.33317" lon="3.72618">
        <ele>1085.7</ele>
        <time>2021-08-11T08:40:04Z</time>
      </trkpt>
      <trkpt lat="44.33314" lon="3.72633">
        <ele>1085.2</ele>
        <time>2021-08-11T08:40:06Z</time>
      </trkpt>
      <trkpt lat="44.33312" lon="3.72648">
        <ele>1084.7</ele>
        <time>2021-08-11T08:40:08Z</time>
      </trkpt>
      <trkpt lat="44.33311" lon="3.72663">
        <ele>1084.1</ele>
        <time>2021-08-11T08:40:10Z</time>
      </trkpt>
      <trkpt lat="44.33312" lon="3.72677">
        <ele>1084.2</ele>
        <time>2021-08-11T08:40:12Z</time>
      </trkpt>
      <trkpt lat="44.33312" lon="3.72691">
        <ele>1084.5</ele>
        <time>2021-08-11T08:40:14Z</time>
      </trkpt>
      <trkpt lat="44.33309" lon="3.72703">
        <ele>1084.5</ele>
        <time>2021-08-11T08:40:16Z</time>
      </trkpt>
      <trkpt lat="44.33305" lon="3.72715">
        <ele>1084.2</ele>
        <time>2021-08-11T08:40:18Z</time>
      </trkpt>
      <trkpt lat="44.33299" lon="3.72727">
        <ele>1083.5</ele>
        <time>2021-08-11T08:40:20Z</time>
      </trkpt>
      <trkpt lat="44.33292" lon="3.72738">
        <ele>1082.7</ele>
        <time>2021-08-11T08:40:22Z</time>
      </trkpt>
      <trkpt lat="44.33286" lon="3.72751">
        <ele>1081.6</ele>
        <time>2021-08-11T08:40:24Z</time>
      </trkpt>
      <trkpt lat="44.3328" lon="3.72765">
        <ele>1081</ele>
        <time>2021-08-11T08:40:26Z</time>
      </trkpt>
      <trkpt lat="44.33275" lon="3.72774">
        <ele>1080.4</ele>
        <time>2021-08-11T08:40:28Z</time>
      </trkpt>
      <trkpt lat="44.33273" lon="3.72779">
        <ele>1080.1</ele>
        <time>2021-08-11T08:40:30Z</time>
      </trkpt>
      <trkpt lat="44.33273" lon="3.7278">
        <ele>1080</ele>
        <time>2021-08-11T08:40:32Z</time>
      </trkpt>
      <trkpt lat="44.33273" lon="3.7278">
        <ele>1080</ele>
        <time>2021-08-11T08:40:34Z</time>
      </trkpt>
      <trkpt lat="44.33273" lon="3.7278">
        <ele>1080</ele>
        <time>2021-08-11T08:40:36Z</time>
      </trkpt>
      <trkpt lat="44.33272" lon="3.7278">
        <ele>1079.9</ele>
        <time>2021-08-11T08:40:38Z</time>
      </trkpt>
      <trkpt lat="44.33272" lon="3.7278">
        <ele>1079.8</ele>
        <time>2021-08-11T08:40:40Z</time>
      </trkpt>
      <trkpt lat="44.33283" lon="3.72755">
        <ele>1081.3</ele>
        <time>2021-08-11T08:41:06Z</time>
      </trkpt>
      <trkpt lat="44.33286" lon="3.72749">
        <ele>1081.6</ele>
        <time>2021-08-11T08:41:08Z</time>
      </trkpt>
      <trkpt lat="44.33289" lon="3.72744">
        <ele>1082.2</ele>
        <time>2021-08-11T08:41:10Z</time>
      </trkpt>
      <trkpt lat="44.33292" lon="3.72739">
        <ele>1082.7</ele>
        <time>2021-08-11T08:41:12Z</time>
      </trkpt>
      <trkpt lat="44.33295" lon="3.72734">
        <ele>1083</ele>
        <time>2021-08-11T08:41:14Z</time>
      </trkpt>
      <trkpt lat="44.33298" lon="3.7273">
        <ele>1083.4</ele>
        <time>2021-08-11T08:41:16Z</time>
      </trkpt>
      <trkpt lat="44.333" lon="3.72725">
        <ele>1083.7</ele>
        <time>2021-08-11T08:41:18Z</time>
      </trkpt>
      <trkpt lat="44.33303" lon="3.72719">
        <ele>1084</ele>
        <time>2021-08-11T08:41:20Z</time>
      </trkpt>
      <trkpt lat="44.33305" lon="3.72713">
        <ele>1084.1</ele>
        <time>2021-08-11T08:41:22Z</time>
      </trkpt>
      <trkpt lat="44.33307" lon="3.72706">
        <ele>1084.3</ele>
        <time>2021-08-11T08:41:24Z</time>
      </trkpt>
      <trkpt lat="44.33308" lon="3.72699">
        <ele>1084.3</ele>
        <time>2021-08-11T08:41:26Z</time>
      </trkpt>
      <trkpt lat="44.33309" lon="3.72693">
        <ele>1084.3</ele>
        <time>2021-08-11T08:41:28Z</time>
      </trkpt>
      <trkpt lat="44.33309" lon="3.72685">
        <ele>1084.1</ele>
        <time>2021-08-11T08:41:30Z</time>
      </trkpt>
      <trkpt lat="44.33309" lon="3.72679">
        <ele>1084</ele>
        <time>2021-08-11T08:41:32Z</time>
      </trkpt>
      <trkpt lat="44.33309" lon="3.72672">
        <ele>1083.9</ele>
        <time>2021-08-11T08:41:34Z</time>
      </trkpt>
      <trkpt lat="44.33308" lon="3.72665">
        <ele>1083.8</ele>
        <time>2021-08-11T08:41:36Z</time>
      </trkpt>
      <trkpt lat="44.33309" lon="3.72658">
        <ele>1084.1</ele>
        <time>2021-08-11T08:41:38Z</time>
      </trkpt>
      <trkpt lat="44.3331" lon="3.72651">
        <ele>1084.5</ele>
        <time>2021-08-11T08:41:40Z</time>
      </trkpt>
      <trkpt lat="44.3331" lon="3.72645">
        <ele>1084.7</ele>
        <time>2021-08-11T08:41:42Z</time>
      </trkpt>
      <trkpt lat="44.33311" lon="3.72638">
        <ele>1085</ele>
        <time>2021-08-11T08:41:44Z</time>
      </trkpt>
      <trkpt lat="44.33312" lon="3.72631">
        <ele>1085.3</ele>
        <time>2021-08-11T08:41:46Z</time>
      </trkpt>
      <trkpt lat="44.33313" lon="3.72624">
        <ele>1085.5</ele>
        <time>2021-08-11T08:41:48Z</time>
      </trkpt>
      <trkpt lat="44.33314" lon="3.72618">
        <ele>1085.7</ele>
        <time>2021-08-11T08:41:50Z</time>
      </trkpt>
      <trkpt lat="44.33315" lon="3.7261">
        <ele>1086</ele>
        <time>2021-08-11T08:41:52Z</time>
      </trkpt>
      <trkpt lat="44.33316" lon="3.72604">
        <ele>1086.2</ele>
        <time>2021-08-11T08:41:54Z</time>
      </trkpt>
      <trkpt lat="44.33316" lon="3.72595">
        <ele>1086.5</ele>
        <time>2021-08-11T08:41:56Z</time>
      </trkpt>
      <trkpt lat="44.33317" lon="3.72588">
        <ele>1086.6</ele>
        <time>2021-08-11T08:41:58Z</time>
      </trkpt>
      <trkpt lat="44.33317" lon="3.72581">
        <ele>1086.8</ele>
        <time>2021-08-11T08:42:00Z</time>
      </trkpt>
      <trkpt lat="44.33318" lon="3.72573">
        <ele>1086.8</ele>
        <time>2021-08-11T08:42:02Z</time>
      </trkpt>
      <trkpt lat="44.33318" lon="3.72566">
        <ele>1086.8</ele>
        <time>2021-08-11T08:42:04Z</time>
      </trkpt>
      <trkpt lat="44.33318" lon="3.72559">
        <ele>1086.8</ele>
        <time>2021-08-11T08:42:06Z</time>
      </trkpt>
      <trkpt lat="44.33319" lon="3.72553">
        <ele>1086.8</ele>
        <time>2021-08-11T08:42:08Z</time>
      </trkpt>
      <trkpt lat="44.33319" lon="3.72546">
        <ele>1086.8</ele>
        <time>2021-08-11T08:42:10Z</time>
      </trkpt>
      <trkpt lat="44.3332" lon="3.72539">
        <ele>1086.7</ele>
        <time>2021-08-11T08:42:12Z</time>
      </trkpt>
      <trkpt lat="44.3332" lon="3.72532">
        <ele>1086.8</ele>
        <time>2021-08-11T08:42:14Z</time>
      </trkpt>
      <trkpt lat="44.3332" lon="3.72526">
        <ele>1086.7</ele>
        <time>2021-08-11T08:42:16Z</time>
      </trkpt>
      <trkpt lat="44.3332" lon="3.7252">
        <ele>1086.7</ele>
        <time>2021-08-11T08:42:18Z</time>
      </trkpt>
      <trkpt lat="44.33321" lon="3.72514">
        <ele>1086.7</ele>
        <time>2021-08-11T08:42:20Z</time>
      </trkpt>
      <trkpt lat="44.33321" lon="3.72507">
        <ele>1086.7</ele>
        <time>2021-08-11T08:42:22Z</time>
      </trkpt>
      <trkpt lat="44.33321" lon="3.72501">
        <ele>1086.7</ele>
        <time>2021-08-11T08:42:24Z</time>
      </trkpt>
      <trkpt lat="44.33322" lon="3.72494">
        <ele>1086.6</ele>
        <time>2021-08-11T08:42:26Z</time>
      </trkpt>
      <trkpt lat="44.33322" lon="3.72488">
        <ele>1086.5</ele>
        <time>2021-08-11T08:42:28Z</time>
      </trkpt>
      <trkpt lat="44.33322" lon="3.72481">
        <ele>1086.4</ele>
        <time>2021-08-11T08:42:30Z</time>
      </trkpt>
      <trkpt lat="44.33323" lon="3.72474">
        <ele>1086.3</ele>
        <time>2021-08-11T08:42:32Z</time>
      </trkpt>
      <trkpt lat="44.33323" lon="3.72466">
        <ele>1086.2</ele>
        <time>2021-08-11T08:42:34Z</time>
      </trkpt>
      <trkpt lat="44.33324" lon="3.72459">
        <ele>1086</ele>
        <time>2021-08-11T08:42:36Z</time>
      </trkpt>
      <trkpt lat="44.33324" lon="3.72452">
        <ele>1085.9</ele>
        <time>2021-08-11T08:42:38Z</time>
      </trkpt>
      <trkpt lat="44.33324" lon="3.72445">
        <ele>1085.8</ele>
        <time>2021-08-11T08:42:40Z</time>
      </trkpt>
      <trkpt lat="44.33324" lon="3.72438">
        <ele>1085.7</ele>
        <time>2021-08-11T08:42:42Z</time>
      </trkpt>
      <trkpt lat="44.33322" lon="3.72431">
        <ele>1085.7</ele>
        <time>2021-08-11T08:42:44Z</time>
      </trkpt>
      <trkpt lat="44.33322" lon="3.72424">
        <ele>1085.7</ele>
        <time>2021-08-11T08:42:46Z</time>
      </trkpt>
      <trkpt lat="44.33321" lon="3.72417">
        <ele>1085.6</ele>
        <time>2021-08-11T08:42:48Z</time>
      </trkpt>
      <trkpt lat="44.33319" lon="3.72411">
        <ele>1085.6</ele>
        <time>2021-08-11T08:42:50Z</time>
      </trkpt>
      <trkpt lat="44.33317" lon="3.72404">
        <ele>1085.6</ele>
        <time>2021-08-11T08:42:52Z</time>
      </trkpt>
      <trkpt lat="44.33314" lon="3.72399">
        <ele>1085.7</ele>
        <time>2021-08-11T08:42:54Z</time>
      </trkpt>
      <trkpt lat="44.33311" lon="3.72394">
        <ele>1085.7</ele>
        <time>2021-08-11T08:42:56Z</time>
      </trkpt>
      <trkpt lat="44.33307" lon="3.72389">
        <ele>1085.7</ele>
        <time>2021-08-11T08:42:58Z</time>
      </trkpt>
      <trkpt lat="44.33303" lon="3.72385">
        <ele>1085.8</ele>
        <time>2021-08-11T08:43:00Z</time>
      </trkpt>
      <trkpt lat="44.33299" lon="3.72381">
        <ele>1085.8</ele>
        <time>2021-08-11T08:43:02Z</time>
      </trkpt>
      <trkpt lat="44.33294" lon="3.7238">
        <ele>1085.9</ele>
        <time>2021-08-11T08:43:04Z</time>
      </trkpt>
      <trkpt lat="44.33289" lon="3.72378">
        <ele>1085.9</ele>
        <time>2021-08-11T08:43:06Z</time>
      </trkpt>
      <trkpt lat="44.33284" lon="3.72376">
        <ele>1085.9</ele>
        <time>2021-08-11T08:43:08Z</time>
      </trkpt>
      <trkpt lat="44.33279" lon="3.72375">
        <ele>1086</ele>
        <time>2021-08-11T08:43:10Z</time>
      </trkpt>
      <trkpt lat="44.33274" lon="3.72373">
        <ele>1086</ele>
        <time>2021-08-11T08:43:12Z</time>
      </trkpt>
      <trkpt lat="44.33269" lon="3.72372">
        <ele>1086</ele>
        <time>2021-08-11T08:43:14Z</time>
      </trkpt>
      <trkpt lat="44.33263" lon="3.7237">
        <ele>1086</ele>
        <time>2021-08-11T08:43:16Z</time>
      </trkpt>
      <trkpt lat="44.33258" lon="3.72367">
        <ele>1085.9</ele>
        <time>2021-08-11T08:43:18Z</time>
      </trkpt>
      <trkpt lat="44.33253" lon="3.72367">
        <ele>1086</ele>
        <time>2021-08-11T08:43:20Z</time>
      </trkpt>
      <trkpt lat="44.33248" lon="3.72366">
        <ele>1086.1</ele>
        <time>2021-08-11T08:43:22Z</time>
      </trkpt>
      <trkpt lat="44.33243" lon="3.72365">
        <ele>1086.3</ele>
        <time>2021-08-11T08:43:24Z</time>
      </trkpt>
      <trkpt lat="44.33238" lon="3.72364">
        <ele>1086.6</ele>
        <time>2021-08-11T08:43:26Z</time>
      </trkpt>
      <trkpt lat="44.33234" lon="3.72363">
        <ele>1086.9</ele>
        <time>2021-08-11T08:43:28Z</time>
      </trkpt>
      <trkpt lat="44.33229" lon="3.72361">
        <ele>1087.1</ele>
        <time>2021-08-11T08:43:30Z</time>
      </trkpt>
      <trkpt lat="44.33224" lon="3.72359">
        <ele>1087.3</ele>
        <time>2021-08-11T08:43:32Z</time>
      </trkpt>
      <trkpt lat="44.3322" lon="3.72357">
        <ele>1087.5</ele>
        <time>2021-08-11T08:43:34Z</time>
      </trkpt>
      <trkpt lat="44.33214" lon="3.72354">
        <ele>1087.7</ele>
        <time>2021-08-11T08:43:36Z</time>
      </trkpt>
      <trkpt lat="44.33209" lon="3.7235">
        <ele>1087.9</ele>
        <time>2021-08-11T08:43:38Z</time>
      </trkpt>
      <trkpt lat="44.33203" lon="3.72345">
        <ele>1088</ele>
        <time>2021-08-11T08:43:40Z</time>
      </trkpt>
      <trkpt lat="44.33197" lon="3.7234">
        <ele>1088.1</ele>
        <time>2021-08-11T08:43:42Z</time>
      </trkpt>
      <trkpt lat="44.33192" lon="3.72333">
        <ele>1088.1</ele>
        <time>2021-08-11T08:43:44Z</time>
      </trkpt>
      <trkpt lat="44.33187" lon="3.72327">
        <ele>1087.8</ele>
        <time>2021-08-11T08:43:46Z</time>
      </trkpt>
      <trkpt lat="44.33183" lon="3.72318">
        <ele>1087.3</ele>
        <time>2021-08-11T08:43:48Z</time>
      </trkpt>
      <trkpt lat="44.33178" lon="3.7231">
        <ele>1086.8</ele>
        <time>2021-08-11T08:43:50Z</time>
      </trkpt>
      <trkpt lat="44.33172" lon="3.72302">
        <ele>1086.3</ele>
        <time>2021-08-11T08:43:52Z</time>
      </trkpt>
      <trkpt lat="44.33168" lon="3.72292">
        <ele>1085.5</ele>
        <time>2021-08-11T08:43:54Z</time>
      </trkpt>
      <trkpt lat="44.33164" lon="3.72283">
        <ele>1084.8</ele>
        <time>2021-08-11T08:43:56Z</time>
      </trkpt>
      <trkpt lat="44.3316" lon="3.72274">
        <ele>1084.3</ele>
        <time>2021-08-11T08:43:58Z</time>
      </trkpt>
      <trkpt lat="44.33156" lon="3.72265">
        <ele>1083.7</ele>
        <time>2021-08-11T08:44:00Z</time>
      </trkpt>
      <trkpt lat="44.33151" lon="3.72256">
        <ele>1083.1</ele>
        <time>2021-08-11T08:44:02Z</time>
      </trkpt>
      <trkpt lat="44.33148" lon="3.72246">
        <ele>1082.3</ele>
        <time>2021-08-11T08:44:04Z</time>
      </trkpt>
      <trkpt lat="44.33144" lon="3.72237">
        <ele>1081.5</ele>
        <time>2021-08-11T08:44:06Z</time>
      </trkpt>
      <trkpt lat="44.33142" lon="3.72227">
        <ele>1080.6</ele>
        <time>2021-08-11T08:44:08Z</time>
      </trkpt>
      <trkpt lat="44.33138" lon="3.72217">
        <ele>1079.6</ele>
        <time>2021-08-11T08:44:10Z</time>
      </trkpt>
      <trkpt lat="44.33133" lon="3.7221">
        <ele>1079.1</ele>
        <time>2021-08-11T08:44:12Z</time>
      </trkpt>
      <trkpt lat="44.33128" lon="3.72206">
        <ele>1079</ele>
        <time>2021-08-11T08:44:14Z</time>
      </trkpt>
      <trkpt lat="44.33121" lon="3.72207">
        <ele>1079.6</ele>
        <time>2021-08-11T08:44:16Z</time>
      </trkpt>
      <trkpt lat="44.33114" lon="3.7221">
        <ele>1080.5</ele>
        <time>2021-08-11T08:44:18Z</time>
      </trkpt>
      <trkpt lat="44.33107" lon="3.72213">
        <ele>1081.5</ele>
        <time>2021-08-11T08:44:20Z</time>
      </trkpt>
      <trkpt lat="44.331" lon="3.72214">
        <ele>1082.1</ele>
        <time>2021-08-11T08:44:22Z</time>
      </trkpt>
      <trkpt lat="44.33093" lon="3.72214">
        <ele>1082.7</ele>
        <time>2021-08-11T08:44:24Z</time>
      </trkpt>
      <trkpt lat="44.33085" lon="3.72215">
        <ele>1083.5</ele>
        <time>2021-08-11T08:44:26Z</time>
      </trkpt>
      <trkpt lat="44.33076" lon="3.72215">
        <ele>1083.8</ele>
        <time>2021-08-11T08:44:28Z</time>
      </trkpt>
      <trkpt lat="44.33068" lon="3.72214">
        <ele>1083.7</ele>
        <time>2021-08-11T08:44:30Z</time>
      </trkpt>
      <trkpt lat="44.3306" lon="3.72209">
        <ele>1083.2</ele>
        <time>2021-08-11T08:44:32Z</time>
      </trkpt>
      <trkpt lat="44.33053" lon="3.722">
        <ele>1082</ele>
        <time>2021-08-11T08:44:34Z</time>
      </trkpt>
      <trkpt lat="44.33049" lon="3.72189">
        <ele>1080.6</ele>
        <time>2021-08-11T08:44:36Z</time>
      </trkpt>
      <trkpt lat="44.33048" lon="3.72177">
        <ele>1078.8</ele>
        <time>2021-08-11T08:44:38Z</time>
      </trkpt>
      <trkpt lat="44.33048" lon="3.72165">
        <ele>1077.2</ele>
        <time>2021-08-11T08:44:40Z</time>
      </trkpt>
      <trkpt lat="44.33049" lon="3.72154">
        <ele>1076.7</ele>
        <time>2021-08-11T08:44:42Z</time>
      </trkpt>
      <trkpt lat="44.33049" lon="3.72142">
        <ele>1076.2</ele>
        <time>2021-08-11T08:44:44Z</time>
      </trkpt>
      <trkpt lat="44.33044" lon="3.72131">
        <ele>1076.3</ele>
        <time>2021-08-11T08:44:46Z</time>
      </trkpt>
      <trkpt lat="44.33034" lon="3.72126">
        <ele>1077</ele>
        <time>2021-08-11T08:44:48Z</time>
      </trkpt>
      <trkpt lat="44.33023" lon="3.7213">
        <ele>1078</ele>
        <time>2021-08-11T08:44:50Z</time>
      </trkpt>
      <trkpt lat="44.33015" lon="3.7214">
        <ele>1078.6</ele>
        <time>2021-08-11T08:44:52Z</time>
      </trkpt>
      <trkpt lat="44.33005" lon="3.72149">
        <ele>1079.1</ele>
        <time>2021-08-11T08:44:54Z</time>
      </trkpt>
      <trkpt lat="44.32996" lon="3.72157">
        <ele>1079.6</ele>
        <time>2021-08-11T08:44:56Z</time>
      </trkpt>
      <trkpt lat="44.32988" lon="3.72168">
        <ele>1080.1</ele>
        <time>2021-08-11T08:44:58Z</time>
      </trkpt>
      <trkpt lat="44.32979" lon="3.72177">
        <ele>1081.9</ele>
        <time>2021-08-11T08:45:00Z</time>
      </trkpt>
      <trkpt lat="44.32969" lon="3.72185">
        <ele>1083.3</ele>
        <time>2021-08-11T08:45:02Z</time>
      </trkpt>
      <trkpt lat="44.32959" lon="3.72191">
        <ele>1084.4</ele>
        <time>2021-08-11T08:45:04Z</time>
      </trkpt>
      <trkpt lat="44.32949" lon="3.72197">
        <ele>1085.3</ele>
        <time>2021-08-11T08:45:06Z</time>
      </trkpt>
      <trkpt lat="44.32939" lon="3.72195">
        <ele>1085.6</ele>
        <time>2021-08-11T08:45:08Z</time>
      </trkpt>
      <trkpt lat="44.32934" lon="3.72179">
        <ele>1085.1</ele>
        <time>2021-08-11T08:45:10Z</time>
      </trkpt>
      <trkpt lat="44.32939" lon="3.72166">
        <ele>1084.2</ele>
        <time>2021-08-11T08:45:12Z</time>
      </trkpt>
      <trkpt lat="44.32945" lon="3.72156">
        <ele>1084.5</ele>
        <time>2021-08-11T08:45:14Z</time>
      </trkpt>
      <trkpt lat="44.32951" lon="3.72146">
        <ele>1084.8</ele>
        <time>2021-08-11T08:45:16Z</time>
      </trkpt>
      <trkpt lat="44.32956" lon="3.72136">
        <ele>1085</ele>
        <time>2021-08-11T08:45:18Z</time>
      </trkpt>
      <trkpt lat="44.32961" lon="3.72126">
        <ele>1085.1</ele>
        <time>2021-08-11T08:45:20Z</time>
      </trkpt>
      <trkpt lat="44.32965" lon="3.72118">
        <ele>1085</ele>
        <time>2021-08-11T08:45:22Z</time>
      </trkpt>
      <trkpt lat="44.3297" lon="3.7211">
        <ele>1084.9</ele>
        <time>2021-08-11T08:45:24Z</time>
      </trkpt>
      <trkpt lat="44.32974" lon="3.72102">
        <ele>1084.6</ele>
        <time>2021-08-11T08:45:26Z</time>
      </trkpt>
      <trkpt lat="44.32979" lon="3.72094">
        <ele>1084.3</ele>
        <time>2021-08-11T08:45:28Z</time>
      </trkpt>
      <trkpt lat="44.32985" lon="3.72087">
        <ele>1083.6</ele>
        <time>2021-08-11T08:45:30Z</time>
      </trkpt>
      <trkpt lat="44.3299" lon="3.72081">
        <ele>1083.1</ele>
        <time>2021-08-11T08:45:32Z</time>
      </trkpt>
      <trkpt lat="44.32996" lon="3.72075">
        <ele>1082.7</ele>
        <time>2021-08-11T08:45:34Z</time>
      </trkpt>
      <trkpt lat="44.33002" lon="3.7207">
        <ele>1082.1</ele>
        <time>2021-08-11T08:45:36Z</time>
      </trkpt>
      <trkpt lat="44.33007" lon="3.72065">
        <ele>1081.9</ele>
        <time>2021-08-11T08:45:38Z</time>
      </trkpt>
      <trkpt lat="44.33012" lon="3.72059">
        <ele>1081.6</ele>
        <time>2021-08-11T08:45:40Z</time>
      </trkpt>
      <trkpt lat="44.33017" lon="3.72053">
        <ele>1081.4</ele>
        <time>2021-08-11T08:45:42Z</time>
      </trkpt>
      <trkpt lat="44.33021" lon="3.72046">
        <ele>1081.2</ele>
        <time>2021-08-11T08:45:44Z</time>
      </trkpt>
      <trkpt lat="44.33025" lon="3.72039">
        <ele>1081.2</ele>
        <time>2021-08-11T08:45:46Z</time>
      </trkpt>
      <trkpt lat="44.33028" lon="3.72032">
        <ele>1081</ele>
        <time>2021-08-11T08:45:48Z</time>
      </trkpt>
      <trkpt lat="44.3303" lon="3.72025">
        <ele>1081.2</ele>
        <time>2021-08-11T08:45:50Z</time>
      </trkpt>
      <trkpt lat="44.33033" lon="3.72018">
        <ele>1081.2</ele>
        <time>2021-08-11T08:45:52Z</time>
      </trkpt>
      <trkpt lat="44.33034" lon="3.72011">
        <ele>1081.3</ele>
        <time>2021-08-11T08:45:54Z</time>
      </trkpt>
      <trkpt lat="44.33037" lon="3.72002">
        <ele>1081.5</ele>
        <time>2021-08-11T08:45:56Z</time>
      </trkpt>
      <trkpt lat="44.33039" lon="3.71994">
        <ele>1081.4</ele>
        <time>2021-08-11T08:45:58Z</time>
      </trkpt>
      <trkpt lat="44.33041" lon="3.71985">
        <ele>1081.1</ele>
        <time>2021-08-11T08:46:00Z</time>
      </trkpt>
      <trkpt lat="44.33043" lon="3.71977">
        <ele>1080.9</ele>
        <time>2021-08-11T08:46:02Z</time>
      </trkpt>
      <trkpt lat="44.33044" lon="3.71969">
        <ele>1080.9</ele>
        <time>2021-08-11T08:46:04Z</time>
      </trkpt>
      <trkpt lat="44.33044" lon="3.71961">
        <ele>1081.3</ele>
        <time>2021-08-11T08:46:06Z</time>
      </trkpt>
      <trkpt lat="44.33043" lon="3.71952">
        <ele>1081.7</ele>
        <time>2021-08-11T08:46:08Z</time>
      </trkpt>
      <trkpt lat="44.3304" lon="3.71943">
        <ele>1082.5</ele>
        <time>2021-08-11T08:46:10Z</time>
      </trkpt>
      <trkpt lat="44.33036" lon="3.71935">
        <ele>1083.7</ele>
        <time>2021-08-11T08:46:12Z</time>
      </trkpt>
      <trkpt lat="44.33032" lon="3.71926">
        <ele>1084.7</ele>
        <time>2021-08-11T08:46:14Z</time>
      </trkpt>
      <trkpt lat="44.33028" lon="3.71916">
        <ele>1086</ele>
        <time>2021-08-11T08:46:16Z</time>
      </trkpt>
      <trkpt lat="44.33025" lon="3.71906">
        <ele>1085.5</ele>
        <time>2021-08-11T08:46:18Z</time>
      </trkpt>
      <trkpt lat="44.33023" lon="3.71894">
        <ele>1084.6</ele>
        <time>2021-08-11T08:46:20Z</time>
      </trkpt>
      <trkpt lat="44.33023" lon="3.71882">
        <ele>1083.3</ele>
        <time>2021-08-11T08:46:22Z</time>
      </trkpt>
      <trkpt lat="44.33024" lon="3.7187">
        <ele>1081.8</ele>
        <time>2021-08-11T08:46:24Z</time>
      </trkpt>
      <trkpt lat="44.33028" lon="3.71859">
        <ele>1080</ele>
        <time>2021-08-11T08:46:26Z</time>
      </trkpt>
      <trkpt lat="44.33032" lon="3.71848">
        <ele>1078.2</ele>
        <time>2021-08-11T08:46:28Z</time>
      </trkpt>
      <trkpt lat="44.33037" lon="3.71836">
        <ele>1076.4</ele>
        <time>2021-08-11T08:46:30Z</time>
      </trkpt>
      <trkpt lat="44.33039" lon="3.71822">
        <ele>1075.1</ele>
        <time>2021-08-11T08:46:32Z</time>
      </trkpt>
      <trkpt lat="44.33035" lon="3.71809">
        <ele>1074.5</ele>
        <time>2021-08-11T08:46:34Z</time>
      </trkpt>
      <trkpt lat="44.33025" lon="3.71802">
        <ele>1075.1</ele>
        <time>2021-08-11T08:46:36Z</time>
      </trkpt>
      <trkpt lat="44.33013" lon="3.71801">
        <ele>1076.4</ele>
        <time>2021-08-11T08:46:38Z</time>
      </trkpt>
      <trkpt lat="44.33001" lon="3.71802">
        <ele>1077.8</ele>
        <time>2021-08-11T08:46:40Z</time>
      </trkpt>
      <trkpt lat="44.32989" lon="3.71802">
        <ele>1079</ele>
        <time>2021-08-11T08:46:42Z</time>
      </trkpt>
      <trkpt lat="44.32976" lon="3.71801">
        <ele>1080.1</ele>
        <time>2021-08-11T08:46:44Z</time>
      </trkpt>
      <trkpt lat="44.32965" lon="3.71801">
        <ele>1081.2</ele>
        <time>2021-08-11T08:46:46Z</time>
      </trkpt>
      <trkpt lat="44.32955" lon="3.71799">
        <ele>1081.9</ele>
        <time>2021-08-11T08:46:48Z</time>
      </trkpt>
      <trkpt lat="44.32946" lon="3.71795">
        <ele>1082.6</ele>
        <time>2021-08-11T08:46:50Z</time>
      </trkpt>
      <trkpt lat="44.3294" lon="3.71785">
        <ele>1082.9</ele>
        <time>2021-08-11T08:46:52Z</time>
      </trkpt>
      <trkpt lat="44.32938" lon="3.71772">
        <ele>1082.7</ele>
        <time>2021-08-11T08:46:54Z</time>
      </trkpt>
      <trkpt lat="44.3294" lon="3.71759">
        <ele>1082</ele>
        <time>2021-08-11T08:46:56Z</time>
      </trkpt>
      <trkpt lat="44.32945" lon="3.71748">
        <ele>1081.1</ele>
        <time>2021-08-11T08:46:58Z</time>
      </trkpt>
      <trkpt lat="44.32949" lon="3.71737">
        <ele>1081.9</ele>
        <time>2021-08-11T08:47:00Z</time>
      </trkpt>
      <trkpt lat="44.32955" lon="3.71727">
        <ele>1082.1</ele>
        <time>2021-08-11T08:47:02Z</time>
      </trkpt>
      <trkpt lat="44.32962" lon="3.71718">
        <ele>1082.2</ele>
        <time>2021-08-11T08:47:04Z</time>
      </trkpt>
      <trkpt lat="44.32968" lon="3.71711">
        <ele>1081.8</ele>
        <time>2021-08-11T08:47:06Z</time>
      </trkpt>
      <trkpt lat="44.32974" lon="3.71702">
        <ele>1081.8</ele>
        <time>2021-08-11T08:47:08Z</time>
      </trkpt>
      <trkpt lat="44.32981" lon="3.71695">
        <ele>1081.5</ele>
        <time>2021-08-11T08:47:10Z</time>
      </trkpt>
      <trkpt lat="44.32987" lon="3.71686">
        <ele>1081.4</ele>
        <time>2021-08-11T08:47:12Z</time>
      </trkpt>
      <trkpt lat="44.32994" lon="3.71681">
        <ele>1080.6</ele>
        <time>2021-08-11T08:47:14Z</time>
      </trkpt>
      <trkpt lat="44.33002" lon="3.71676">
        <ele>1079.8</ele>
        <time>2021-08-11T08:47:16Z</time>
      </trkpt>
      <trkpt lat="44.33009" lon="3.71672">
        <ele>1079.1</ele>
        <time>2021-08-11T08:47:18Z</time>
      </trkpt>
      <trkpt lat="44.33017" lon="3.71671">
        <ele>1078</ele>
        <time>2021-08-11T08:47:20Z</time>
      </trkpt>
      <trkpt lat="44.33023" lon="3.71668">
        <ele>1077.2</ele>
        <time>2021-08-11T08:47:22Z</time>
      </trkpt>
      <trkpt lat="44.3303" lon="3.71664">
        <ele>1076.7</ele>
        <time>2021-08-11T08:47:24Z</time>
      </trkpt>
      <trkpt lat="44.33036" lon="3.71658">
        <ele>1076.4</ele>
        <time>2021-08-11T08:47:26Z</time>
      </trkpt>
      <trkpt lat="44.33041" lon="3.7165">
        <ele>1076.6</ele>
        <time>2021-08-11T08:47:28Z</time>
      </trkpt>
      <trkpt lat="44.33045" lon="3.71642">
        <ele>1076.8</ele>
        <time>2021-08-11T08:47:30Z</time>
      </trkpt>
      <trkpt lat="44.33049" lon="3.71633">
        <ele>1077.1</ele>
        <time>2021-08-11T08:47:32Z</time>
      </trkpt>
      <trkpt lat="44.33052" lon="3.71624">
        <ele>1077.5</ele>
        <time>2021-08-11T08:47:34Z</time>
      </trkpt>
      <trkpt lat="44.33055" lon="3.71615">
        <ele>1077.9</ele>
        <time>2021-08-11T08:47:36Z</time>
      </trkpt>
      <trkpt lat="44.33058" lon="3.71605">
        <ele>1078.2</ele>
        <time>2021-08-11T08:47:38Z</time>
      </trkpt>
      <trkpt lat="44.33061" lon="3.71596">
        <ele>1078.6</ele>
        <time>2021-08-11T08:47:40Z</time>
      </trkpt>
      <trkpt lat="44.33064" lon="3.71586">
        <ele>1078.9</ele>
        <time>2021-08-11T08:47:42Z</time>
      </trkpt>
      <trkpt lat="44.33066" lon="3.71577">
        <ele>1079</ele>
        <time>2021-08-11T08:47:44Z</time>
      </trkpt>
      <trkpt lat="44.33066" lon="3.71567">
        <ele>1079.2</ele>
        <time>2021-08-11T08:47:46Z</time>
      </trkpt>
      <trkpt lat="44.33064" lon="3.71557">
        <ele>1079.9</ele>
        <time>2021-08-11T08:47:48Z</time>
      </trkpt>
      <trkpt lat="44.3306" lon="3.7155">
        <ele>1081.3</ele>
        <time>2021-08-11T08:47:50Z</time>
      </trkpt>
      <trkpt lat="44.33054" lon="3.71543">
        <ele>1082.7</ele>
        <time>2021-08-11T08:47:52Z</time>
      </trkpt>
      <trkpt lat="44.33048" lon="3.71538">
        <ele>1084.3</ele>
        <time>2021-08-11T08:47:54Z</time>
      </trkpt>
      <trkpt lat="44.33044" lon="3.7153">
        <ele>1085.7</ele>
        <time>2021-08-11T08:47:56Z</time>
      </trkpt>
      <trkpt lat="44.33041" lon="3.7152">
        <ele>1086.8</ele>
        <time>2021-08-11T08:47:58Z</time>
      </trkpt>
      <trkpt lat="44.33042" lon="3.7151">
        <ele>1087.1</ele>
        <time>2021-08-11T08:48:00Z</time>
      </trkpt>
      <trkpt lat="44.33044" lon="3.715">
        <ele>1086.8</ele>
        <time>2021-08-11T08:48:02Z</time>
      </trkpt>
      <trkpt lat="44.33049" lon="3.71493">
        <ele>1086.3</ele>
        <time>2021-08-11T08:48:04Z</time>
      </trkpt>
      <trkpt lat="44.33054" lon="3.71485">
        <ele>1085.6</ele>
        <time>2021-08-11T08:48:06Z</time>
      </trkpt>
      <trkpt lat="44.33059" lon="3.71478">
        <ele>1085.1</ele>
        <time>2021-08-11T08:48:08Z</time>
      </trkpt>
      <trkpt lat="44.33063" lon="3.7147">
        <ele>1085</ele>
        <time>2021-08-11T08:48:10Z</time>
      </trkpt>
      <trkpt lat="44.33067" lon="3.71463">
        <ele>1084.4</ele>
        <time>2021-08-11T08:48:12Z</time>
      </trkpt>
      <trkpt lat="44.33071" lon="3.71457">
        <ele>1084</ele>
        <time>2021-08-11T08:48:14Z</time>
      </trkpt>
      <trkpt lat="44.33075" lon="3.7145">
        <ele>1083.6</ele>
        <time>2021-08-11T08:48:16Z</time>
      </trkpt>
      <trkpt lat="44.3308" lon="3.71442">
        <ele>1083.4</ele>
        <time>2021-08-11T08:48:18Z</time>
      </trkpt>
      <trkpt lat="44.33084" lon="3.71434">
        <ele>1083.3</ele>
        <time>2021-08-11T08:48:20Z</time>
      </trkpt>
      <trkpt lat="44.33086" lon="3.71425">
        <ele>1083.9</ele>
        <time>2021-08-11T08:48:22Z</time>
      </trkpt>
      <trkpt lat="44.33088" lon="3.71416">
        <ele>1084.6</ele>
        <time>2021-08-11T08:48:24Z</time>
      </trkpt>
      <trkpt lat="44.33089" lon="3.71409">
        <ele>1085.6</ele>
        <time>2021-08-11T08:48:26Z</time>
      </trkpt>
      <trkpt lat="44.33089" lon="3.71398">
        <ele>1087.1</ele>
        <time>2021-08-11T08:48:28Z</time>
      </trkpt>
      <trkpt lat="44.3309" lon="3.71388">
        <ele>1088.5</ele>
        <time>2021-08-11T08:48:30Z</time>
      </trkpt>
      <trkpt lat="44.33093" lon="3.7138">
        <ele>1089.6</ele>
        <time>2021-08-11T08:48:32Z</time>
      </trkpt>
      <trkpt lat="44.33097" lon="3.71373">
        <ele>1090.2</ele>
        <time>2021-08-11T08:48:34Z</time>
      </trkpt>
      <trkpt lat="44.33104" lon="3.7137">
        <ele>1090.3</ele>
        <time>2021-08-11T08:48:36Z</time>
      </trkpt>
      <trkpt lat="44.33108" lon="3.7137">
        <ele>1090</ele>
        <time>2021-08-11T08:48:38Z</time>
      </trkpt>
      <trkpt lat="44.33115" lon="3.71371">
        <ele>1089.3</ele>
        <time>2021-08-11T08:48:40Z</time>
      </trkpt>
      <trkpt lat="44.33121" lon="3.71371">
        <ele>1088.9</ele>
        <time>2021-08-11T08:48:42Z</time>
      </trkpt>
      <trkpt lat="44.33127" lon="3.71372">
        <ele>1088.3</ele>
        <time>2021-08-11T08:48:44Z</time>
      </trkpt>
      <trkpt lat="44.33133" lon="3.71373">
        <ele>1087.8</ele>
        <time>2021-08-11T08:48:46Z</time>
      </trkpt>
      <trkpt lat="44.33139" lon="3.71372">
        <ele>1087.5</ele>
        <time>2021-08-11T08:48:48Z</time>
      </trkpt>
      <trkpt lat="44.33146" lon="3.71372">
        <ele>1087</ele>
        <time>2021-08-11T08:48:50Z</time>
      </trkpt>
      <trkpt lat="44.33152" lon="3.71372">
        <ele>1086.7</ele>
        <time>2021-08-11T08:48:52Z</time>
      </trkpt>
      <trkpt lat="44.33159" lon="3.71371">
        <ele>1086.2</ele>
        <time>2021-08-11T08:48:54Z</time>
      </trkpt>
      <trkpt lat="44.33166" lon="3.71371">
        <ele>1085.8</ele>
        <time>2021-08-11T08:48:56Z</time>
      </trkpt>
      <trkpt lat="44.33173" lon="3.71372">
        <ele>1084.8</ele>
        <time>2021-08-11T08:48:58Z</time>
      </trkpt>
      <trkpt lat="44.3318" lon="3.71375">
        <ele>1083.3</ele>
        <time>2021-08-11T08:49:00Z</time>
      </trkpt>
      <trkpt lat="44.33187" lon="3.71378">
        <ele>1082.1</ele>
        <time>2021-08-11T08:49:02Z</time>
      </trkpt>
      <trkpt lat="44.33194" lon="3.71379">
        <ele>1081.1</ele>
        <time>2021-08-11T08:49:04Z</time>
      </trkpt>
      <trkpt lat="44.33201" lon="3.71379">
        <ele>1080.4</ele>
        <time>2021-08-11T08:49:06Z</time>
      </trkpt>
      <trkpt lat="44.33207" lon="3.71375">
        <ele>1080.1</ele>
        <time>2021-08-11T08:49:08Z</time>
      </trkpt>
      <trkpt lat="44.33212" lon="3.71368">
        <ele>1080.3</ele>
        <time>2021-08-11T08:49:10Z</time>
      </trkpt>
      <trkpt lat="44.33215" lon="3.7136">
        <ele>1080.8</ele>
        <time>2021-08-11T08:49:12Z</time>
      </trkpt>
      <trkpt lat="44.33216" lon="3.71351">
        <ele>1081.6</ele>
        <time>2021-08-11T08:49:14Z</time>
      </trkpt>
      <trkpt lat="44.33216" lon="3.71342">
        <ele>1082.6</ele>
        <time>2021-08-11T08:49:16Z</time>
      </trkpt>
      <trkpt lat="44.33215" lon="3.71333">
        <ele>1083.7</ele>
        <time>2021-08-11T08:49:18Z</time>
      </trkpt>
      <trkpt lat="44.33214" lon="3.71326">
        <ele>1084.3</ele>
        <time>2021-08-11T08:49:20Z</time>
      </trkpt>
      <trkpt lat="44.33213" lon="3.71315">
        <ele>1085.2</ele>
        <time>2021-08-11T08:49:22Z</time>
      </trkpt>
      <trkpt lat="44.33212" lon="3.71306">
        <ele>1085.9</ele>
        <time>2021-08-11T08:49:24Z</time>
      </trkpt>
      <trkpt lat="44.33211" lon="3.71296">
        <ele>1086.6</ele>
        <time>2021-08-11T08:49:26Z</time>
      </trkpt>
      <trkpt lat="44.3321" lon="3.71287">
        <ele>1087.4</ele>
        <time>2021-08-11T08:49:28Z</time>
      </trkpt>
      <trkpt lat="44.33209" lon="3.71277">
        <ele>1088.2</ele>
        <time>2021-08-11T08:49:30Z</time>
      </trkpt>
      <trkpt lat="44.33209" lon="3.71267">
        <ele>1088.8</ele>
        <time>2021-08-11T08:49:32Z</time>
      </trkpt>
      <trkpt lat="44.33209" lon="3.71258">
        <ele>1089.4</ele>
        <time>2021-08-11T08:49:34Z</time>
      </trkpt>
      <trkpt lat="44.33209" lon="3.71247">
        <ele>1089.8</ele>
        <time>2021-08-11T08:49:36Z</time>
      </trkpt>
      <trkpt lat="44.33211" lon="3.71238">
        <ele>1089.3</ele>
        <time>2021-08-11T08:49:38Z</time>
      </trkpt>
      <trkpt lat="44.33213" lon="3.71227">
        <ele>1088.8</ele>
        <time>2021-08-11T08:49:40Z</time>
      </trkpt>
      <trkpt lat="44.33215" lon="3.71218">
        <ele>1088.2</ele>
        <time>2021-08-11T08:49:42Z</time>
      </trkpt>
      <trkpt lat="44.33217" lon="3.71209">
        <ele>1087.8</ele>
        <time>2021-08-11T08:49:44Z</time>
      </trkpt>
      <trkpt lat="44.33217" lon="3.71201">
        <ele>1087.8</ele>
        <time>2021-08-11T08:49:46Z</time>
      </trkpt>
      <trkpt lat="44.33215" lon="3.71193">
        <ele>1088</ele>
        <time>2021-08-11T08:49:48Z</time>
      </trkpt>
      <trkpt lat="44.3321" lon="3.71187">
        <ele>1088.6</ele>
        <time>2021-08-11T08:49:50Z</time>
      </trkpt>
      <trkpt lat="44.33204" lon="3.71184">
        <ele>1089.4</ele>
        <time>2021-08-11T08:49:52Z</time>
      </trkpt>
      <trkpt lat="44.33198" lon="3.71183">
        <ele>1090.3</ele>
        <time>2021-08-11T08:49:54Z</time>
      </trkpt>
      <trkpt lat="44.33191" lon="3.71182">
        <ele>1091.2</ele>
        <time>2021-08-11T08:49:56Z</time>
      </trkpt>
      <trkpt lat="44.33185" lon="3.71178">
        <ele>1092</ele>
        <time>2021-08-11T08:49:58Z</time>
      </trkpt>
      <trkpt lat="44.33178" lon="3.71173">
        <ele>1092.7</ele>
        <time>2021-08-11T08:50:00Z</time>
      </trkpt>
      <trkpt lat="44.33174" lon="3.71166">
        <ele>1093</ele>
        <time>2021-08-11T08:50:02Z</time>
      </trkpt>
      <trkpt lat="44.33171" lon="3.71157">
        <ele>1093</ele>
        <time>2021-08-11T08:50:04Z</time>
      </trkpt>
      <trkpt lat="44.33169" lon="3.71148">
        <ele>1092.9</ele>
        <time>2021-08-11T08:50:06Z</time>
      </trkpt>
      <trkpt lat="44.33168" lon="3.71139">
        <ele>1092.6</ele>
        <time>2021-08-11T08:50:08Z</time>
      </trkpt>
      <trkpt lat="44.33167" lon="3.71131">
        <ele>1092.3</ele>
        <time>2021-08-11T08:50:10Z</time>
      </trkpt>
      <trkpt lat="44.33165" lon="3.71123">
        <ele>1092.3</ele>
        <time>2021-08-11T08:50:12Z</time>
      </trkpt>
      <trkpt lat="44.33162" lon="3.71115">
        <ele>1092.4</ele>
        <time>2021-08-11T08:50:14Z</time>
      </trkpt>
      <trkpt lat="44.33158" lon="3.71108">
        <ele>1092.7</ele>
        <time>2021-08-11T08:50:16Z</time>
      </trkpt>
      <trkpt lat="44.33154" lon="3.71102">
        <ele>1093.3</ele>
        <time>2021-08-11T08:50:18Z</time>
      </trkpt>
      <trkpt lat="44.33149" lon="3.71096">
        <ele>1093.9</ele>
        <time>2021-08-11T08:50:20Z</time>
      </trkpt>
      <trkpt lat="44.33145" lon="3.71089">
        <ele>1094.5</ele>
        <time>2021-08-11T08:50:22Z</time>
      </trkpt>
      <trkpt lat="44.33139" lon="3.71082">
        <ele>1095.3</ele>
        <time>2021-08-11T08:50:24Z</time>
      </trkpt>
      <trkpt lat="44.33135" lon="3.71075">
        <ele>1096.6</ele>
        <time>2021-08-11T08:50:26Z</time>
      </trkpt>
      <trkpt lat="44.33133" lon="3.71065">
        <ele>1097.7</ele>
        <time>2021-08-11T08:50:28Z</time>
      </trkpt>
      <trkpt lat="44.33132" lon="3.71056">
        <ele>1098.4</ele>
        <time>2021-08-11T08:50:30Z</time>
      </trkpt>
      <trkpt lat="44.33135" lon="3.71046">
        <ele>1098.4</ele>
        <time>2021-08-11T08:50:32Z</time>
      </trkpt>
      <trkpt lat="44.33139" lon="3.71038">
        <ele>1098.3</ele>
        <time>2021-08-11T08:50:34Z</time>
      </trkpt>
      <trkpt lat="44.33142" lon="3.7103">
        <ele>1098.1</ele>
        <time>2021-08-11T08:50:36Z</time>
      </trkpt>
      <trkpt lat="44.33146" lon="3.71021">
        <ele>1098</ele>
        <time>2021-08-11T08:50:38Z</time>
      </trkpt>
      <trkpt lat="44.33149" lon="3.71012">
        <ele>1097.8</ele>
        <time>2021-08-11T08:50:40Z</time>
      </trkpt>
      <trkpt lat="44.33154" lon="3.71003">
        <ele>1097.3</ele>
        <time>2021-08-11T08:50:42Z</time>
      </trkpt>
      <trkpt lat="44.3316" lon="3.70995">
        <ele>1096.9</ele>
        <time>2021-08-11T08:50:44Z</time>
      </trkpt>
      <trkpt lat="44.33166" lon="3.70988">
        <ele>1096.6</ele>
        <time>2021-08-11T08:50:46Z</time>
      </trkpt>
      <trkpt lat="44.33172" lon="3.70981">
        <ele>1096.4</ele>
        <time>2021-08-11T08:50:48Z</time>
      </trkpt>
      <trkpt lat="44.33178" lon="3.70973">
        <ele>1096.4</ele>
        <time>2021-08-11T08:50:50Z</time>
      </trkpt>
      <trkpt lat="44.33184" lon="3.70968">
        <ele>1095.9</ele>
        <time>2021-08-11T08:50:52Z</time>
      </trkpt>
      <trkpt lat="44.33189" lon="3.70958">
        <ele>1096.1</ele>
        <time>2021-08-11T08:50:54Z</time>
      </trkpt>
      <trkpt lat="44.33195" lon="3.70954">
        <ele>1095.4</ele>
        <time>2021-08-11T08:50:56Z</time>
      </trkpt>
      <trkpt lat="44.332" lon="3.70943">
        <ele>1095.5</ele>
        <time>2021-08-11T08:50:58Z</time>
      </trkpt>
      <trkpt lat="44.33205" lon="3.70935">
        <ele>1095.2</ele>
        <time>2021-08-11T08:51:00Z</time>
      </trkpt>
      <trkpt lat="44.33209" lon="3.70925">
        <ele>1095.3</ele>
        <time>2021-08-11T08:51:02Z</time>
      </trkpt>
      <trkpt lat="44.33211" lon="3.70915">
        <ele>1095.4</ele>
        <time>2021-08-11T08:51:04Z</time>
      </trkpt>
      <trkpt lat="44.33213" lon="3.70904">
        <ele>1095.8</ele>
        <time>2021-08-11T08:51:06Z</time>
      </trkpt>
      <trkpt lat="44.33215" lon="3.70892">
        <ele>1096.1</ele>
        <time>2021-08-11T08:51:08Z</time>
      </trkpt>
      <trkpt lat="44.33217" lon="3.70882">
        <ele>1096.5</ele>
        <time>2021-08-11T08:51:10Z</time>
      </trkpt>
      <trkpt lat="44.33219" lon="3.70871">
        <ele>1096.7</ele>
        <time>2021-08-11T08:51:12Z</time>
      </trkpt>
      <trkpt lat="44.33222" lon="3.70861">
        <ele>1096.7</ele>
        <time>2021-08-11T08:51:14Z</time>
      </trkpt>
      <trkpt lat="44.33224" lon="3.70851">
        <ele>1096.8</ele>
        <time>2021-08-11T08:51:16Z</time>
      </trkpt>
      <trkpt lat="44.33225" lon="3.70841">
        <ele>1097.2</ele>
        <time>2021-08-11T08:51:18Z</time>
      </trkpt>
      <trkpt lat="44.33228" lon="3.70832">
        <ele>1097.1</ele>
        <time>2021-08-11T08:51:20Z</time>
      </trkpt>
      <trkpt lat="44.3323" lon="3.70822">
        <ele>1097.3</ele>
        <time>2021-08-11T08:51:22Z</time>
      </trkpt>
      <trkpt lat="44.33233" lon="3.70813">
        <ele>1097.2</ele>
        <time>2021-08-11T08:51:24Z</time>
      </trkpt>
      <trkpt lat="44.33236" lon="3.70803">
        <ele>1097.1</ele>
        <time>2021-08-11T08:51:26Z</time>
      </trkpt>
      <trkpt lat="44.33237" lon="3.70794">
        <ele>1097.5</ele>
        <time>2021-08-11T08:51:28Z</time>
      </trkpt>
      <trkpt lat="44.33239" lon="3.70785">
        <ele>1097.7</ele>
        <time>2021-08-11T08:51:30Z</time>
      </trkpt>
      <trkpt lat="44.3324" lon="3.70774">
        <ele>1098.2</ele>
        <time>2021-08-11T08:51:32Z</time>
      </trkpt>
      <trkpt lat="44.33241" lon="3.70765">
        <ele>1098.7</ele>
        <time>2021-08-11T08:51:34Z</time>
      </trkpt>
      <trkpt lat="44.33242" lon="3.70755">
        <ele>1099.3</ele>
        <time>2021-08-11T08:51:36Z</time>
      </trkpt>
      <trkpt lat="44.33242" lon="3.70744">
        <ele>1099.6</ele>
        <time>2021-08-11T08:51:38Z</time>
      </trkpt>
      <trkpt lat="44.33242" lon="3.70733">
        <ele>1099.7</ele>
        <time>2021-08-11T08:51:40Z</time>
      </trkpt>
      <trkpt lat="44.33241" lon="3.70721">
        <ele>1099.9</ele>
        <time>2021-08-11T08:51:42Z</time>
      </trkpt>
      <trkpt lat="44.3324" lon="3.70711">
        <ele>1100</ele>
        <time>2021-08-11T08:51:44Z</time>
      </trkpt>
      <trkpt lat="44.33241" lon="3.707">
        <ele>1100.1</ele>
        <time>2021-08-11T08:51:46Z</time>
      </trkpt>
      <trkpt lat="44.33241" lon="3.70688">
        <ele>1100.1</ele>
        <time>2021-08-11T08:51:48Z</time>
      </trkpt>
      <trkpt lat="44.33242" lon="3.70677">
        <ele>1100</ele>
        <time>2021-08-11T08:51:50Z</time>
      </trkpt>
      <trkpt lat="44.33243" lon="3.70666">
        <ele>1099.8</ele>
        <time>2021-08-11T08:51:52Z</time>
      </trkpt>
      <trkpt lat="44.33246" lon="3.70656">
        <ele>1098.5</ele>
        <time>2021-08-11T08:51:54Z</time>
      </trkpt>
      <trkpt lat="44.3325" lon="3.70644">
        <ele>1097.2</ele>
        <time>2021-08-11T08:51:56Z</time>
      </trkpt>
      <trkpt lat="44.33253" lon="3.70634">
        <ele>1095.9</ele>
        <time>2021-08-11T08:51:58Z</time>
      </trkpt>
      <trkpt lat="44.33256" lon="3.70623">
        <ele>1094.5</ele>
        <time>2021-08-11T08:52:00Z</time>
      </trkpt>
      <trkpt lat="44.33259" lon="3.70612">
        <ele>1093.2</ele>
        <time>2021-08-11T08:52:02Z</time>
      </trkpt>
      <trkpt lat="44.3326" lon="3.70601">
        <ele>1092.2</ele>
        <time>2021-08-11T08:52:04Z</time>
      </trkpt>
      <trkpt lat="44.3326" lon="3.70589">
        <ele>1091.3</ele>
        <time>2021-08-11T08:52:06Z</time>
      </trkpt>
      <trkpt lat="44.33257" lon="3.70577">
        <ele>1090.3</ele>
        <time>2021-08-11T08:52:08Z</time>
      </trkpt>
      <trkpt lat="44.33252" lon="3.70568">
        <ele>1089.6</ele>
        <time>2021-08-11T08:52:10Z</time>
      </trkpt>
      <trkpt lat="44.33246" lon="3.70561">
        <ele>1088.8</ele>
        <time>2021-08-11T08:52:12Z</time>
      </trkpt>
      <trkpt lat="44.33237" lon="3.70558">
        <ele>1088.5</ele>
        <time>2021-08-11T08:52:14Z</time>
      </trkpt>
      <trkpt lat="44.33229" lon="3.70557">
        <ele>1088.4</ele>
        <time>2021-08-11T08:52:16Z</time>
      </trkpt>
      <trkpt lat="44.33221" lon="3.70557">
        <ele>1088.5</ele>
        <time>2021-08-11T08:52:18Z</time>
      </trkpt>
      <trkpt lat="44.33212" lon="3.70558">
        <ele>1088.8</ele>
        <time>2021-08-11T08:52:20Z</time>
      </trkpt>
      <trkpt lat="44.33204" lon="3.7056">
        <ele>1089.3</ele>
        <time>2021-08-11T08:52:22Z</time>
      </trkpt>
      <trkpt lat="44.33196" lon="3.70563">
        <ele>1090.1</ele>
        <time>2021-08-11T08:52:24Z</time>
      </trkpt>
      <trkpt lat="44.33188" lon="3.70568">
        <ele>1091.3</ele>
        <time>2021-08-11T08:52:26Z</time>
      </trkpt>
      <trkpt lat="44.33181" lon="3.70573">
        <ele>1092.8</ele>
        <time>2021-08-11T08:52:28Z</time>
      </trkpt>
      <trkpt lat="44.33174" lon="3.7058">
        <ele>1094.8</ele>
        <time>2021-08-11T08:52:30Z</time>
      </trkpt>
      <trkpt lat="44.33168" lon="3.70586">
        <ele>1096.3</ele>
        <time>2021-08-11T08:52:32Z</time>
      </trkpt>
      <trkpt lat="44.33161" lon="3.70593">
        <ele>1097.6</ele>
        <time>2021-08-11T08:52:34Z</time>
      </trkpt>
      <trkpt lat="44.33153" lon="3.70596">
        <ele>1098.1</ele>
        <time>2021-08-11T08:52:36Z</time>
      </trkpt>
      <trkpt lat="44.33145" lon="3.70598">
        <ele>1098.5</ele>
        <time>2021-08-11T08:52:38Z</time>
      </trkpt>
      <trkpt lat="44.33137" lon="3.706">
        <ele>1098.8</ele>
        <time>2021-08-11T08:52:40Z</time>
      </trkpt>
      <trkpt lat="44.33127" lon="3.70602">
        <ele>1099.2</ele>
        <time>2021-08-11T08:52:42Z</time>
      </trkpt>
      <trkpt lat="44.33119" lon="3.70605">
        <ele>1099.6</ele>
        <time>2021-08-11T08:52:44Z</time>
      </trkpt>
      <trkpt lat="44.33111" lon="3.70607">
        <ele>1100</ele>
        <time>2021-08-11T08:52:46Z</time>
      </trkpt>
      <trkpt lat="44.33104" lon="3.70611">
        <ele>1100.7</ele>
        <time>2021-08-11T08:52:48Z</time>
      </trkpt>
      <trkpt lat="44.33097" lon="3.70616">
        <ele>1101.5</ele>
        <time>2021-08-11T08:52:50Z</time>
      </trkpt>
      <trkpt lat="44.3309" lon="3.7062">
        <ele>1102.2</ele>
        <time>2021-08-11T08:52:52Z</time>
      </trkpt>
      <trkpt lat="44.3308" lon="3.70621">
        <ele>1103.1</ele>
        <time>2021-08-11T08:52:54Z</time>
      </trkpt>
      <trkpt lat="44.33072" lon="3.70622">
        <ele>1104.9</ele>
        <time>2021-08-11T08:52:56Z</time>
      </trkpt>
      <trkpt lat="44.33064" lon="3.70617">
        <ele>1105.9</ele>
        <time>2021-08-11T08:52:58Z</time>
      </trkpt>
      <trkpt lat="44.33056" lon="3.70611">
        <ele>1107</ele>
        <time>2021-08-11T08:53:00Z</time>
      </trkpt>
      <trkpt lat="44.3305" lon="3.70603">
        <ele>1107</ele>
        <time>2021-08-11T08:53:02Z</time>
      </trkpt>
      <trkpt lat="44.33046" lon="3.70595">
        <ele>1107</ele>
        <time>2021-08-11T08:53:04Z</time>
      </trkpt>
      <trkpt lat="44.33042" lon="3.70585">
        <ele>1106.7</ele>
        <time>2021-08-11T08:53:06Z</time>
      </trkpt>
      <trkpt lat="44.33038" lon="3.70576">
        <ele>1106.2</ele>
        <time>2021-08-11T08:53:08Z</time>
      </trkpt>
      <trkpt lat="44.3303" lon="3.70568">
        <ele>1106.7</ele>
        <time>2021-08-11T08:53:10Z</time>
      </trkpt>
      <trkpt lat="44.33025" lon="3.70556">
        <ele>1106.1</ele>
        <time>2021-08-11T08:53:12Z</time>
      </trkpt>
      <trkpt lat="44.33022" lon="3.70546">
        <ele>1105.3</ele>
        <time>2021-08-11T08:53:14Z</time>
      </trkpt>
      <trkpt lat="44.33018" lon="3.70538">
        <ele>1104.9</ele>
        <time>2021-08-11T08:53:16Z</time>
      </trkpt>
      <trkpt lat="44.33014" lon="3.70528">
        <ele>1104.5</ele>
        <time>2021-08-11T08:53:18Z</time>
      </trkpt>
      <trkpt lat="44.3301" lon="3.70519">
        <ele>1104.1</ele>
        <time>2021-08-11T08:53:20Z</time>
      </trkpt>
      <trkpt lat="44.33006" lon="3.70509">
        <ele>1103.6</ele>
        <time>2021-08-11T08:53:22Z</time>
      </trkpt>
      <trkpt lat="44.33002" lon="3.70499">
        <ele>1103.3</ele>
        <time>2021-08-11T08:53:24Z</time>
      </trkpt>
      <trkpt lat="44.32999" lon="3.70488">
        <ele>1103.7</ele>
        <time>2021-08-11T08:53:26Z</time>
      </trkpt>
      <trkpt lat="44.32995" lon="3.70479">
        <ele>1104.6</ele>
        <time>2021-08-11T08:53:28Z</time>
      </trkpt>
      <trkpt lat="44.32992" lon="3.7047">
        <ele>1105.4</ele>
        <time>2021-08-11T08:53:30Z</time>
      </trkpt>
      <trkpt lat="44.32989" lon="3.70459">
        <ele>1105.7</ele>
        <time>2021-08-11T08:53:32Z</time>
      </trkpt>
      <trkpt lat="44.3299" lon="3.70448">
        <ele>1104.4</ele>
        <time>2021-08-11T08:53:34Z</time>
      </trkpt>
      <trkpt lat="44.32991" lon="3.70437">
        <ele>1103.1</ele>
        <time>2021-08-11T08:53:36Z</time>
      </trkpt>
      <trkpt lat="44.32992" lon="3.70426">
        <ele>1101.9</ele>
        <time>2021-08-11T08:53:38Z</time>
      </trkpt>
      <trkpt lat="44.32993" lon="3.70414">
        <ele>1100.1</ele>
        <time>2021-08-11T08:53:40Z</time>
      </trkpt>
      <trkpt lat="44.32993" lon="3.70402">
        <ele>1098.1</ele>
        <time>2021-08-11T08:53:42Z</time>
      </trkpt>
      <trkpt lat="44.32992" lon="3.7039">
        <ele>1096.3</ele>
        <time>2021-08-11T08:53:44Z</time>
      </trkpt>
      <trkpt lat="44.3299" lon="3.70378">
        <ele>1095.1</ele>
        <time>2021-08-11T08:53:46Z</time>
      </trkpt>
      <trkpt lat="44.32988" lon="3.70368">
        <ele>1094.1</ele>
        <time>2021-08-11T08:53:48Z</time>
      </trkpt>
      <trkpt lat="44.32983" lon="3.70359">
        <ele>1094.1</ele>
        <time>2021-08-11T08:53:50Z</time>
      </trkpt>
      <trkpt lat="44.32976" lon="3.70351">
        <ele>1094.8</ele>
        <time>2021-08-11T08:53:52Z</time>
      </trkpt>
      <trkpt lat="44.32969" lon="3.70344">
        <ele>1095.6</ele>
        <time>2021-08-11T08:53:54Z</time>
      </trkpt>
      <trkpt lat="44.32963" lon="3.70339">
        <ele>1096.8</ele>
        <time>2021-08-11T08:53:56Z</time>
      </trkpt>
      <trkpt lat="44.32956" lon="3.70333">
        <ele>1097.8</ele>
        <time>2021-08-11T08:53:58Z</time>
      </trkpt>
      <trkpt lat="44.32949" lon="3.70328">
        <ele>1099.1</ele>
        <time>2021-08-11T08:54:00Z</time>
      </trkpt>
      <trkpt lat="44.32941" lon="3.70323">
        <ele>1100.5</ele>
        <time>2021-08-11T08:54:02Z</time>
      </trkpt>
      <trkpt lat="44.32934" lon="3.70316">
        <ele>1101.5</ele>
        <time>2021-08-11T08:54:04Z</time>
      </trkpt>
      <trkpt lat="44.32926" lon="3.70312">
        <ele>1103</ele>
        <time>2021-08-11T08:54:06Z</time>
      </trkpt>
      <trkpt lat="44.32919" lon="3.70304">
        <ele>1103.7</ele>
        <time>2021-08-11T08:54:08Z</time>
      </trkpt>
      <trkpt lat="44.32911" lon="3.70297">
        <ele>1104</ele>
        <time>2021-08-11T08:54:10Z</time>
      </trkpt>
      <trkpt lat="44.32903" lon="3.70291">
        <ele>1104.1</ele>
        <time>2021-08-11T08:54:12Z</time>
      </trkpt>
      <trkpt lat="44.32894" lon="3.70284">
        <ele>1104.3</ele>
        <time>2021-08-11T08:54:14Z</time>
      </trkpt>
      <trkpt lat="44.32886" lon="3.70277">
        <ele>1104.4</ele>
        <time>2021-08-11T08:54:16Z</time>
      </trkpt>
      <trkpt lat="44.32878" lon="3.70271">
        <ele>1104.9</ele>
        <time>2021-08-11T08:54:18Z</time>
      </trkpt>
      <trkpt lat="44.3287" lon="3.70264">
        <ele>1104.9</ele>
        <time>2021-08-11T08:54:20Z</time>
      </trkpt>
      <trkpt lat="44.32861" lon="3.70258">
        <ele>1105.5</ele>
        <time>2021-08-11T08:54:22Z</time>
      </trkpt>
      <trkpt lat="44.32855" lon="3.70246">
        <ele>1104.6</ele>
        <time>2021-08-11T08:54:24Z</time>
      </trkpt>
      <trkpt lat="44.32852" lon="3.70234">
        <ele>1103.9</ele>
        <time>2021-08-11T08:54:26Z</time>
      </trkpt>
      <trkpt lat="44.32853" lon="3.7022">
        <ele>1102.3</ele>
        <time>2021-08-11T08:54:28Z</time>
      </trkpt>
      <trkpt lat="44.32853" lon="3.70209">
        <ele>1101</ele>
        <time>2021-08-11T08:54:30Z</time>
      </trkpt>
      <trkpt lat="44.32853" lon="3.70199">
        <ele>1100</ele>
        <time>2021-08-11T08:54:32Z</time>
      </trkpt>
      <trkpt lat="44.32851" lon="3.70189">
        <ele>1099.2</ele>
        <time>2021-08-11T08:54:34Z</time>
      </trkpt>
      <trkpt lat="44.32846" lon="3.70179">
        <ele>1098.6</ele>
        <time>2021-08-11T08:54:36Z</time>
      </trkpt>
      <trkpt lat="44.32838" lon="3.7017">
        <ele>1098.1</ele>
        <time>2021-08-11T08:54:38Z</time>
      </trkpt>
      <trkpt lat="44.3283" lon="3.70165">
        <ele>1097.6</ele>
        <time>2021-08-11T08:54:40Z</time>
      </trkpt>
      <trkpt lat="44.32821" lon="3.70161">
        <ele>1096.4</ele>
        <time>2021-08-11T08:54:42Z</time>
      </trkpt>
      <trkpt lat="44.32811" lon="3.70161">
        <ele>1096.3</ele>
        <time>2021-08-11T08:54:44Z</time>
      </trkpt>
      <trkpt lat="44.32803" lon="3.7016">
        <ele>1095.9</ele>
        <time>2021-08-11T08:54:46Z</time>
      </trkpt>
      <trkpt lat="44.32794" lon="3.7016">
        <ele>1096.1</ele>
        <time>2021-08-11T08:54:48Z</time>
      </trkpt>
      <trkpt lat="44.32786" lon="3.70161">
        <ele>1096.6</ele>
        <time>2021-08-11T08:54:50Z</time>
      </trkpt>
      <trkpt lat="44.32777" lon="3.70163">
        <ele>1097.1</ele>
        <time>2021-08-11T08:54:52Z</time>
      </trkpt>
      <trkpt lat="44.32768" lon="3.70164">
        <ele>1097.8</ele>
        <time>2021-08-11T08:54:54Z</time>
      </trkpt>
      <trkpt lat="44.32759" lon="3.70167">
        <ele>1098.9</ele>
        <time>2021-08-11T08:54:56Z</time>
      </trkpt>
      <trkpt lat="44.3275" lon="3.70168">
        <ele>1099.5</ele>
        <time>2021-08-11T08:54:58Z</time>
      </trkpt>
      <trkpt lat="44.32741" lon="3.70169">
        <ele>1099.3</ele>
        <time>2021-08-11T08:55:00Z</time>
      </trkpt>
      <trkpt lat="44.32732" lon="3.70169">
        <ele>1098.8</ele>
        <time>2021-08-11T08:55:02Z</time>
      </trkpt>
      <trkpt lat="44.32723" lon="3.70169">
        <ele>1098.1</ele>
        <time>2021-08-11T08:55:04Z</time>
      </trkpt>
      <trkpt lat="44.32714" lon="3.70165">
        <ele>1096.4</ele>
        <time>2021-08-11T08:55:06Z</time>
      </trkpt>
      <trkpt lat="44.32705" lon="3.70165">
        <ele>1095.7</ele>
        <time>2021-08-11T08:55:08Z</time>
      </trkpt>
      <trkpt lat="44.32696" lon="3.70164">
        <ele>1094.7</ele>
        <time>2021-08-11T08:55:10Z</time>
      </trkpt>
      <trkpt lat="44.32689" lon="3.70164">
        <ele>1094.3</ele>
        <time>2021-08-11T08:55:12Z</time>
      </trkpt>
      <trkpt lat="44.32679" lon="3.70165">
        <ele>1093.9</ele>
        <time>2021-08-11T08:55:14Z</time>
      </trkpt>
      <trkpt lat="44.3267" lon="3.70168">
        <ele>1094.8</ele>
        <time>2021-08-11T08:55:16Z</time>
      </trkpt>
      <trkpt lat="44.32662" lon="3.70169">
        <ele>1094.6</ele>
        <time>2021-08-11T08:55:18Z</time>
      </trkpt>
      <trkpt lat="44.32653" lon="3.70171">
        <ele>1094.2</ele>
        <time>2021-08-11T08:55:20Z</time>
      </trkpt>
      <trkpt lat="44.32645" lon="3.70174">
        <ele>1094.2</ele>
        <time>2021-08-11T08:55:22Z</time>
      </trkpt>
      <trkpt lat="44.32636" lon="3.70176">
        <ele>1093.8</ele>
        <time>2021-08-11T08:55:24Z</time>
      </trkpt>
      <trkpt lat="44.32627" lon="3.70178">
        <ele>1093.5</ele>
        <time>2021-08-11T08:55:26Z</time>
      </trkpt>
      <trkpt lat="44.32619" lon="3.70182">
        <ele>1093.6</ele>
        <time>2021-08-11T08:55:28Z</time>
      </trkpt>
      <trkpt lat="44.32611" lon="3.70187">
        <ele>1094.2</ele>
        <time>2021-08-11T08:55:30Z</time>
      </trkpt>
      <trkpt lat="44.32603" lon="3.70192">
        <ele>1094.9</ele>
        <time>2021-08-11T08:55:32Z</time>
      </trkpt>
      <trkpt lat="44.32595" lon="3.70198">
        <ele>1095.4</ele>
        <time>2021-08-11T08:55:34Z</time>
      </trkpt>
      <trkpt lat="44.32587" lon="3.70204">
        <ele>1096</ele>
        <time>2021-08-11T08:55:36Z</time>
      </trkpt>
      <trkpt lat="44.32579" lon="3.70212">
        <ele>1096.9</ele>
        <time>2021-08-11T08:55:38Z</time>
      </trkpt>
      <trkpt lat="44.32572" lon="3.7022">
        <ele>1098</ele>
        <time>2021-08-11T08:55:40Z</time>
      </trkpt>
      <trkpt lat="44.32564" lon="3.70228">
        <ele>1098.5</ele>
        <time>2021-08-11T08:55:42Z</time>
      </trkpt>
      <trkpt lat="44.32557" lon="3.70236">
        <ele>1099</ele>
        <time>2021-08-11T08:55:44Z</time>
      </trkpt>
      <trkpt lat="44.32552" lon="3.70248">
        <ele>1100.6</ele>
        <time>2021-08-11T08:55:46Z</time>
      </trkpt>
      <trkpt lat="44.32546" lon="3.70259">
        <ele>1101.6</ele>
        <time>2021-08-11T08:55:48Z</time>
      </trkpt>
      <trkpt lat="44.32542" lon="3.70271">
        <ele>1102.9</ele>
        <time>2021-08-11T08:55:50Z</time>
      </trkpt>
      <trkpt lat="44.32536" lon="3.70282">
        <ele>1103.8</ele>
        <time>2021-08-11T08:55:52Z</time>
      </trkpt>
      <trkpt lat="44.32532" lon="3.70293">
        <ele>1104.9</ele>
        <time>2021-08-11T08:55:54Z</time>
      </trkpt>
      <trkpt lat="44.32525" lon="3.70303">
        <ele>1105.1</ele>
        <time>2021-08-11T08:55:56Z</time>
      </trkpt>
      <trkpt lat="44.32521" lon="3.70313">
        <ele>1105.7</ele>
        <time>2021-08-11T08:55:58Z</time>
      </trkpt>
      <trkpt lat="44.32513" lon="3.70321">
        <ele>1104.9</ele>
        <time>2021-08-11T08:56:00Z</time>
      </trkpt>
      <trkpt lat="44.32505" lon="3.70326">
        <ele>1103.2</ele>
        <time>2021-08-11T08:56:02Z</time>
      </trkpt>
      <trkpt lat="44.32498" lon="3.70335">
        <ele>1103.6</ele>
        <time>2021-08-11T08:56:04Z</time>
      </trkpt>
      <trkpt lat="44.32491" lon="3.70343">
        <ele>1106.1</ele>
        <time>2021-08-11T08:56:06Z</time>
      </trkpt>
      <trkpt lat="44.32482" lon="3.70349">
        <ele>1108</ele>
        <time>2021-08-11T08:56:08Z</time>
      </trkpt>
      <trkpt lat="44.32475" lon="3.70356">
        <ele>1109.9</ele>
        <time>2021-08-11T08:56:10Z</time>
      </trkpt>
      <trkpt lat="44.32469" lon="3.70363">
        <ele>1111.5</ele>
        <time>2021-08-11T08:56:12Z</time>
      </trkpt>
      <trkpt lat="44.32463" lon="3.70371">
        <ele>1113</ele>
        <time>2021-08-11T08:56:14Z</time>
      </trkpt>
      <trkpt lat="44.32457" lon="3.70378">
        <ele>1114.2</ele>
        <time>2021-08-11T08:56:16Z</time>
      </trkpt>
      <trkpt lat="44.32451" lon="3.70386">
        <ele>1115.4</ele>
        <time>2021-08-11T08:56:18Z</time>
      </trkpt>
      <trkpt lat="44.32447" lon="3.70394">
        <ele>1116.5</ele>
        <time>2021-08-11T08:56:20Z</time>
      </trkpt>
      <trkpt lat="44.3244" lon="3.70401">
        <ele>1117.1</ele>
        <time>2021-08-11T08:56:22Z</time>
      </trkpt>
      <trkpt lat="44.3243" lon="3.70402">
        <ele>1116.7</ele>
        <time>2021-08-11T08:56:24Z</time>
      </trkpt>
      <trkpt lat="44.32424" lon="3.70394">
        <ele>1115.6</ele>
        <time>2021-08-11T08:56:26Z</time>
      </trkpt>
      <trkpt lat="44.32422" lon="3.70381">
        <ele>1114.4</ele>
        <time>2021-08-11T08:56:28Z</time>
      </trkpt>
      <trkpt lat="44.32423" lon="3.70369">
        <ele>1113.4</ele>
        <time>2021-08-11T08:56:30Z</time>
      </trkpt>
      <trkpt lat="44.32424" lon="3.70357">
        <ele>1112.4</ele>
        <time>2021-08-11T08:56:32Z</time>
      </trkpt>
      <trkpt lat="44.32427" lon="3.70348">
        <ele>1111.4</ele>
        <time>2021-08-11T08:56:34Z</time>
      </trkpt>
      <trkpt lat="44.32429" lon="3.70335">
        <ele>1110</ele>
        <time>2021-08-11T08:56:36Z</time>
      </trkpt>
      <trkpt lat="44.32432" lon="3.70322">
        <ele>1109.1</ele>
        <time>2021-08-11T08:56:38Z</time>
      </trkpt>
      <trkpt lat="44.32433" lon="3.70308">
        <ele>1108.4</ele>
        <time>2021-08-11T08:56:40Z</time>
      </trkpt>
      <trkpt lat="44.32436" lon="3.70293">
        <ele>1107.1</ele>
        <time>2021-08-11T08:56:42Z</time>
      </trkpt>
      <trkpt lat="44.32439" lon="3.70278">
        <ele>1105.9</ele>
        <time>2021-08-11T08:56:44Z</time>
      </trkpt>
      <trkpt lat="44.32441" lon="3.70264">
        <ele>1104.4</ele>
        <time>2021-08-11T08:56:46Z</time>
      </trkpt>
      <trkpt lat="44.32443" lon="3.70249">
        <ele>1103.1</ele>
        <time>2021-08-11T08:56:48Z</time>
      </trkpt>
      <trkpt lat="44.32442" lon="3.70236">
        <ele>1103.6</ele>
        <time>2021-08-11T08:56:50Z</time>
      </trkpt>
      <trkpt lat="44.32442" lon="3.7022">
        <ele>1103.5</ele>
        <time>2021-08-11T08:56:52Z</time>
      </trkpt>
      <trkpt lat="44.3244" lon="3.70209">
        <ele>1104.3</ele>
        <time>2021-08-11T08:56:54Z</time>
      </trkpt>
      <trkpt lat="44.3244" lon="3.70193">
        <ele>1104.4</ele>
        <time>2021-08-11T08:56:56Z</time>
      </trkpt>
      <trkpt lat="44.32439" lon="3.7018">
        <ele>1104.8</ele>
        <time>2021-08-11T08:56:58Z</time>
      </trkpt>
      <trkpt lat="44.32441" lon="3.70165">
        <ele>1104.6</ele>
        <time>2021-08-11T08:57:00Z</time>
      </trkpt>
      <trkpt lat="44.32438" lon="3.70152">
        <ele>1106.7</ele>
        <time>2021-08-11T08:57:02Z</time>
      </trkpt>
      <trkpt lat="44.3244" lon="3.70138">
        <ele>1106.8</ele>
        <time>2021-08-11T08:57:04Z</time>
      </trkpt>
      <trkpt lat="44.32442" lon="3.70124">
        <ele>1107.1</ele>
        <time>2021-08-11T08:57:06Z</time>
      </trkpt>
      <trkpt lat="44.32447" lon="3.70109">
        <ele>1106</ele>
        <time>2021-08-11T08:57:08Z</time>
      </trkpt>
      <trkpt lat="44.3245" lon="3.70095">
        <ele>1105.9</ele>
        <time>2021-08-11T08:57:10Z</time>
      </trkpt>
      <trkpt lat="44.32454" lon="3.70079">
        <ele>1105</ele>
        <time>2021-08-11T08:57:12Z</time>
      </trkpt>
      <trkpt lat="44.32459" lon="3.70065">
        <ele>1104.6</ele>
        <time>2021-08-11T08:57:14Z</time>
      </trkpt>
      <trkpt lat="44.32463" lon="3.7005">
        <ele>1104.6</ele>
        <time>2021-08-11T08:57:16Z</time>
      </trkpt>
      <trkpt lat="44.32468" lon="3.70037">
        <ele>1104</ele>
        <time>2021-08-11T08:57:18Z</time>
      </trkpt>
      <trkpt lat="44.32472" lon="3.70022">
        <ele>1103.9</ele>
        <time>2021-08-11T08:57:20Z</time>
      </trkpt>
      <trkpt lat="44.32478" lon="3.70007">
        <ele>1102.7</ele>
        <time>2021-08-11T08:57:22Z</time>
      </trkpt>
      <trkpt lat="44.32484" lon="3.69993">
        <ele>1102.3</ele>
        <time>2021-08-11T08:57:24Z</time>
      </trkpt>
      <trkpt lat="44.32488" lon="3.69979">
        <ele>1102.6</ele>
        <time>2021-08-11T08:57:26Z</time>
      </trkpt>
      <trkpt lat="44.32494" lon="3.69965">
        <ele>1102.2</ele>
        <time>2021-08-11T08:57:28Z</time>
      </trkpt>
      <trkpt lat="44.32498" lon="3.69952">
        <ele>1102.4</ele>
        <time>2021-08-11T08:57:30Z</time>
      </trkpt>
      <trkpt lat="44.32504" lon="3.69939">
        <ele>1102.3</ele>
        <time>2021-08-11T08:57:32Z</time>
      </trkpt>
      <trkpt lat="44.32509" lon="3.69926">
        <ele>1102.2</ele>
        <time>2021-08-11T08:57:34Z</time>
      </trkpt>
      <trkpt lat="44.32516" lon="3.69915">
        <ele>1101.5</ele>
        <time>2021-08-11T08:57:36Z</time>
      </trkpt>
      <trkpt lat="44.32521" lon="3.69901">
        <ele>1101.7</ele>
        <time>2021-08-11T08:57:38Z</time>
      </trkpt>
      <trkpt lat="44.32527" lon="3.69888">
        <ele>1102</ele>
        <time>2021-08-11T08:57:40Z</time>
      </trkpt>
      <trkpt lat="44.32533" lon="3.69875">
        <ele>1102</ele>
        <time>2021-08-11T08:57:42Z</time>
      </trkpt>
      <trkpt lat="44.3254" lon="3.69863">
        <ele>1101.6</ele>
        <time>2021-08-11T08:57:44Z</time>
      </trkpt>
      <trkpt lat="44.32546" lon="3.69849">
        <ele>1101.7</ele>
        <time>2021-08-11T08:57:46Z</time>
      </trkpt>
      <trkpt lat="44.32553" lon="3.69837">
        <ele>1101.5</ele>
        <time>2021-08-11T08:57:48Z</time>
      </trkpt>
      <trkpt lat="44.32559" lon="3.69823">
        <ele>1101.6</ele>
        <time>2021-08-11T08:57:50Z</time>
      </trkpt>
      <trkpt lat="44.32563" lon="3.69811">
        <ele>1102.4</ele>
        <time>2021-08-11T08:57:52Z</time>
      </trkpt>
      <trkpt lat="44.32573" lon="3.69799">
        <ele>1101.1</ele>
        <time>2021-08-11T08:57:54Z</time>
      </trkpt>
      <trkpt lat="44.32579" lon="3.69787">
        <ele>1101.3</ele>
        <time>2021-08-11T08:57:56Z</time>
      </trkpt>
      <trkpt lat="44.32585" lon="3.69774">
        <ele>1101.2</ele>
        <time>2021-08-11T08:57:58Z</time>
      </trkpt>
      <trkpt lat="44.32594" lon="3.69762">
        <ele>1100</ele>
        <time>2021-08-11T08:58:00Z</time>
      </trkpt>
      <trkpt lat="44.32599" lon="3.6975">
        <ele>1099.9</ele>
        <time>2021-08-11T08:58:02Z</time>
      </trkpt>
      <trkpt lat="44.32605" lon="3.69739">
        <ele>1100.3</ele>
        <time>2021-08-11T08:58:04Z</time>
      </trkpt>
      <trkpt lat="44.32613" lon="3.69728">
        <ele>1099.4</ele>
        <time>2021-08-11T08:58:06Z</time>
      </trkpt>
      <trkpt lat="44.3262" lon="3.69715">
        <ele>1099.4</ele>
        <time>2021-08-11T08:58:08Z</time>
      </trkpt>
      <trkpt lat="44.32625" lon="3.69702">
        <ele>1100.1</ele>
        <time>2021-08-11T08:58:10Z</time>
      </trkpt>
      <trkpt lat="44.32632" lon="3.6969">
        <ele>1100.1</ele>
        <time>2021-08-11T08:58:12Z</time>
      </trkpt>
      <trkpt lat="44.3264" lon="3.69678">
        <ele>1099.5</ele>
        <time>2021-08-11T08:58:14Z</time>
      </trkpt>
      <trkpt lat="44.32646" lon="3.69667">
        <ele>1099.3</ele>
        <time>2021-08-11T08:58:16Z</time>
      </trkpt>
      <trkpt lat="44.32652" lon="3.69656">
        <ele>1099.2</ele>
        <time>2021-08-11T08:58:18Z</time>
      </trkpt>
      <trkpt lat="44.32659" lon="3.69646">
        <ele>1098.8</ele>
        <time>2021-08-11T08:58:20Z</time>
      </trkpt>
      <trkpt lat="44.32666" lon="3.69635">
        <ele>1098.7</ele>
        <time>2021-08-11T08:58:22Z</time>
      </trkpt>
      <trkpt lat="44.32672" lon="3.69624">
        <ele>1098.5</ele>
        <time>2021-08-11T08:58:24Z</time>
      </trkpt>
      <trkpt lat="44.32679" lon="3.69613">
        <ele>1098.2</ele>
        <time>2021-08-11T08:58:26Z</time>
      </trkpt>
      <trkpt lat="44.32686" lon="3.69601">
        <ele>1097.6</ele>
        <time>2021-08-11T08:58:28Z</time>
      </trkpt>
      <trkpt lat="44.32693" lon="3.69591">
        <ele>1096.7</ele>
        <time>2021-08-11T08:58:30Z</time>
      </trkpt>
      <trkpt lat="44.32697" lon="3.6958">
        <ele>1097.2</ele>
        <time>2021-08-11T08:58:32Z</time>
      </trkpt>
      <trkpt lat="44.32702" lon="3.69567">
        <ele>1096.2</ele>
        <time>2021-08-11T08:58:34Z</time>
      </trkpt>
      <trkpt lat="44.32708" lon="3.69555">
        <ele>1094.8</ele>
        <time>2021-08-11T08:58:36Z</time>
      </trkpt>
      <trkpt lat="44.32713" lon="3.69542">
        <ele>1093.7</ele>
        <time>2021-08-11T08:58:38Z</time>
      </trkpt>
      <trkpt lat="44.32715" lon="3.69527">
        <ele>1094</ele>
        <time>2021-08-11T08:58:40Z</time>
      </trkpt>
      <trkpt lat="44.32718" lon="3.69513">
        <ele>1094</ele>
        <time>2021-08-11T08:58:42Z</time>
      </trkpt>
      <trkpt lat="44.32719" lon="3.695">
        <ele>1095.3</ele>
        <time>2021-08-11T08:58:44Z</time>
      </trkpt>
      <trkpt lat="44.32718" lon="3.69487">
        <ele>1097</ele>
        <time>2021-08-11T08:58:46Z</time>
      </trkpt>
      <trkpt lat="44.32719" lon="3.69475">
        <ele>1098.3</ele>
        <time>2021-08-11T08:58:48Z</time>
      </trkpt>
      <trkpt lat="44.32719" lon="3.69463">
        <ele>1099.9</ele>
        <time>2021-08-11T08:58:50Z</time>
      </trkpt>
      <trkpt lat="44.3272" lon="3.69452">
        <ele>1100.5</ele>
        <time>2021-08-11T08:58:52Z</time>
      </trkpt>
      <trkpt lat="44.32721" lon="3.69442">
        <ele>1101.3</ele>
        <time>2021-08-11T08:58:54Z</time>
      </trkpt>
      <trkpt lat="44.32722" lon="3.69432">
        <ele>1102.1</ele>
        <time>2021-08-11T08:58:56Z</time>
      </trkpt>
      <trkpt lat="44.32725" lon="3.69422">
        <ele>1101.4</ele>
        <time>2021-08-11T08:58:58Z</time>
      </trkpt>
      <trkpt lat="44.32728" lon="3.69412">
        <ele>1101</ele>
        <time>2021-08-11T08:59:00Z</time>
      </trkpt>
      <trkpt lat="44.3273" lon="3.69401">
        <ele>1101.6</ele>
        <time>2021-08-11T08:59:02Z</time>
      </trkpt>
      <trkpt lat="44.32734" lon="3.6939">
        <ele>1101.2</ele>
        <time>2021-08-11T08:59:04Z</time>
      </trkpt>
      <trkpt lat="44.32737" lon="3.69381">
        <ele>1100.8</ele>
        <time>2021-08-11T08:59:06Z</time>
      </trkpt>
      <trkpt lat="44.32739" lon="3.69372">
        <ele>1100.7</ele>
        <time>2021-08-11T08:59:08Z</time>
      </trkpt>
      <trkpt lat="44.32742" lon="3.69364">
        <ele>1100.7</ele>
        <time>2021-08-11T08:59:10Z</time>
      </trkpt>
      <trkpt lat="44.32743" lon="3.69357">
        <ele>1101.1</ele>
        <time>2021-08-11T08:59:12Z</time>
      </trkpt>
      <trkpt lat="44.32745" lon="3.6935">
        <ele>1101</ele>
        <time>2021-08-11T08:59:14Z</time>
      </trkpt>
      <trkpt lat="44.32748" lon="3.69343">
        <ele>1100.5</ele>
        <time>2021-08-11T08:59:16Z</time>
      </trkpt>
      <trkpt lat="44.32749" lon="3.69339">
        <ele>1100.7</ele>
        <time>2021-08-11T08:59:18Z</time>
      </trkpt>
      <trkpt lat="44.3275" lon="3.69336">
        <ele>1100.8</ele>
        <time>2021-08-11T08:59:20Z</time>
      </trkpt>
      <trkpt lat="44.3275" lon="3.69331">
        <ele>1101.2</ele>
        <time>2021-08-11T08:59:22Z</time>
      </trkpt>
      <trkpt lat="44.32752" lon="3.69327">
        <ele>1100.8</ele>
        <time>2021-08-11T08:59:24Z</time>
      </trkpt>
      <trkpt lat="44.32753" lon="3.69321">
        <ele>1101.5</ele>
        <time>2021-08-11T08:59:26Z</time>
      </trkpt>
      <trkpt lat="44.32756" lon="3.69316">
        <ele>1100.8</ele>
        <time>2021-08-11T08:59:28Z</time>
      </trkpt>
      <trkpt lat="44.32758" lon="3.69309">
        <ele>1100.7</ele>
        <time>2021-08-11T08:59:30Z</time>
      </trkpt>
      <trkpt lat="44.32758" lon="3.69303">
        <ele>1101.6</ele>
        <time>2021-08-11T08:59:32Z</time>
      </trkpt>
      <trkpt lat="44.32761" lon="3.69297">
        <ele>1100.8</ele>
        <time>2021-08-11T08:59:34Z</time>
      </trkpt>
      <trkpt lat="44.32764" lon="3.69291">
        <ele>1100.1</ele>
        <time>2021-08-11T08:59:36Z</time>
      </trkpt>
      <trkpt lat="44.32767" lon="3.69285">
        <ele>1099.1</ele>
        <time>2021-08-11T08:59:38Z</time>
      </trkpt>
      <trkpt lat="44.32769" lon="3.69278">
        <ele>1099</ele>
        <time>2021-08-11T08:59:40Z</time>
      </trkpt>
      <trkpt lat="44.32769" lon="3.69273">
        <ele>1099.8</ele>
        <time>2021-08-11T08:59:42Z</time>
      </trkpt>
      <trkpt lat="44.32772" lon="3.69267">
        <ele>1099.3</ele>
        <time>2021-08-11T08:59:44Z</time>
      </trkpt>
      <trkpt lat="44.32774" lon="3.69261">
        <ele>1099.1</ele>
        <time>2021-08-11T08:59:46Z</time>
      </trkpt>
      <trkpt lat="44.32777" lon="3.69254">
        <ele>1098.7</ele>
        <time>2021-08-11T08:59:48Z</time>
      </trkpt>
      <trkpt lat="44.3278" lon="3.69245">
        <ele>1097.6</ele>
        <time>2021-08-11T08:59:50Z</time>
      </trkpt>
      <trkpt lat="44.32783" lon="3.69236">
        <ele>1097.2</ele>
        <time>2021-08-11T08:59:52Z</time>
      </trkpt>
      <trkpt lat="44.32785" lon="3.69228">
        <ele>1096.5</ele>
        <time>2021-08-11T08:59:54Z</time>
      </trkpt>
      <trkpt lat="44.32786" lon="3.6922">
        <ele>1096.8</ele>
        <time>2021-08-11T08:59:56Z</time>
      </trkpt>
      <trkpt lat="44.32787" lon="3.69213">
        <ele>1096.8</ele>
        <time>2021-08-11T08:59:58Z</time>
      </trkpt>
      <trkpt lat="44.32787" lon="3.69204">
        <ele>1098</ele>
        <time>2021-08-11T09:00:00Z</time>
      </trkpt>
      <trkpt lat="44.32787" lon="3.69194">
        <ele>1098.8</ele>
        <time>2021-08-11T09:00:02Z</time>
      </trkpt>
      <trkpt lat="44.32787" lon="3.69184">
        <ele>1099.9</ele>
        <time>2021-08-11T09:00:04Z</time>
      </trkpt>
      <trkpt lat="44.32786" lon="3.69174">
        <ele>1101.1</ele>
        <time>2021-08-11T09:00:06Z</time>
      </trkpt>
      <trkpt lat="44.32786" lon="3.69164">
        <ele>1101.9</ele>
        <time>2021-08-11T09:00:08Z</time>
      </trkpt>
      <trkpt lat="44.32785" lon="3.69155">
        <ele>1103.5</ele>
        <time>2021-08-11T09:00:10Z</time>
      </trkpt>
      <trkpt lat="44.32784" lon="3.69147">
        <ele>1104.5</ele>
        <time>2021-08-11T09:00:12Z</time>
      </trkpt>
      <trkpt lat="44.32784" lon="3.69137">
        <ele>1105.3</ele>
        <time>2021-08-11T09:00:14Z</time>
      </trkpt>
      <trkpt lat="44.32786" lon="3.69128">
        <ele>1105.1</ele>
        <time>2021-08-11T09:00:16Z</time>
      </trkpt>
      <trkpt lat="44.32785" lon="3.69118">
        <ele>1106.3</ele>
        <time>2021-08-11T09:00:18Z</time>
      </trkpt>
      <trkpt lat="44.32789" lon="3.69109">
        <ele>1105</ele>
        <time>2021-08-11T09:00:20Z</time>
      </trkpt>
      <trkpt lat="44.3279" lon="3.69101">
        <ele>1104.8</ele>
        <time>2021-08-11T09:00:22Z</time>
      </trkpt>
      <trkpt lat="44.32794" lon="3.69093">
        <ele>1103.4</ele>
        <time>2021-08-11T09:00:24Z</time>
      </trkpt>
      <trkpt lat="44.32798" lon="3.69086">
        <ele>1101.8</ele>
        <time>2021-08-11T09:00:26Z</time>
      </trkpt>
      <trkpt lat="44.32802" lon="3.69079">
        <ele>1100.8</ele>
        <time>2021-08-11T09:00:28Z</time>
      </trkpt>
      <trkpt lat="44.32805" lon="3.6907">
        <ele>1100.4</ele>
        <time>2021-08-11T09:00:30Z</time>
      </trkpt>
      <trkpt lat="44.32809" lon="3.69062">
        <ele>1099.6</ele>
        <time>2021-08-11T09:00:32Z</time>
      </trkpt>
      <trkpt lat="44.32813" lon="3.69053">
        <ele>1098.6</ele>
        <time>2021-08-11T09:00:34Z</time>
      </trkpt>
      <trkpt lat="44.32818" lon="3.69044">
        <ele>1097.8</ele>
        <time>2021-08-11T09:00:36Z</time>
      </trkpt>
      <trkpt lat="44.32822" lon="3.69037">
        <ele>1097.3</ele>
        <time>2021-08-11T09:00:38Z</time>
      </trkpt>
      <trkpt lat="44.32828" lon="3.69029">
        <ele>1096.2</ele>
        <time>2021-08-11T09:00:40Z</time>
      </trkpt>
      <trkpt lat="44.32832" lon="3.6902">
        <ele>1096.1</ele>
        <time>2021-08-11T09:00:42Z</time>
      </trkpt>
      <trkpt lat="44.32835" lon="3.69012">
        <ele>1095.9</ele>
        <time>2021-08-11T09:00:44Z</time>
      </trkpt>
      <trkpt lat="44.3284" lon="3.69005">
        <ele>1094.7</ele>
        <time>2021-08-11T09:00:46Z</time>
      </trkpt>
      <trkpt lat="44.32843" lon="3.68996">
        <ele>1094.7</ele>
        <time>2021-08-11T09:00:48Z</time>
      </trkpt>
      <trkpt lat="44.32847" lon="3.68988">
        <ele>1093.9</ele>
        <time>2021-08-11T09:00:50Z</time>
      </trkpt>
      <trkpt lat="44.3285" lon="3.6898">
        <ele>1093.1</ele>
        <time>2021-08-11T09:00:52Z</time>
      </trkpt>
      <trkpt lat="44.32854" lon="3.68971">
        <ele>1092.4</ele>
        <time>2021-08-11T09:00:54Z</time>
      </trkpt>
      <trkpt lat="44.32855" lon="3.68963">
        <ele>1093</ele>
        <time>2021-08-11T09:00:56Z</time>
      </trkpt>
      <trkpt lat="44.32857" lon="3.68955">
        <ele>1092.8</ele>
        <time>2021-08-11T09:00:58Z</time>
      </trkpt>
      <trkpt lat="44.32863" lon="3.68946">
        <ele>1091.4</ele>
        <time>2021-08-11T09:01:00Z</time>
      </trkpt>
      <trkpt lat="44.32866" lon="3.6894">
        <ele>1090.7</ele>
        <time>2021-08-11T09:01:02Z</time>
      </trkpt>
      <trkpt lat="44.3287" lon="3.6893">
        <ele>1090.4</ele>
        <time>2021-08-11T09:01:04Z</time>
      </trkpt>
      <trkpt lat="44.32872" lon="3.68922">
        <ele>1090.4</ele>
        <time>2021-08-11T09:01:06Z</time>
      </trkpt>
      <trkpt lat="44.32875" lon="3.68913">
        <ele>1089.6</ele>
        <time>2021-08-11T09:01:08Z</time>
      </trkpt>
      <trkpt lat="44.32878" lon="3.68905">
        <ele>1087.7</ele>
        <time>2021-08-11T09:01:10Z</time>
      </trkpt>
      <trkpt lat="44.32882" lon="3.68897">
        <ele>1085.9</ele>
        <time>2021-08-11T09:01:12Z</time>
      </trkpt>
      <trkpt lat="44.32885" lon="3.68887">
        <ele>1084.5</ele>
        <time>2021-08-11T09:01:14Z</time>
      </trkpt>
      <trkpt lat="44.32889" lon="3.68881">
        <ele>1082.9</ele>
        <time>2021-08-11T09:01:16Z</time>
      </trkpt>
      <trkpt lat="44.32891" lon="3.68873">
        <ele>1082</ele>
        <time>2021-08-11T09:01:18Z</time>
      </trkpt>
      <trkpt lat="44.32895" lon="3.68866">
        <ele>1080.7</ele>
        <time>2021-08-11T09:01:20Z</time>
      </trkpt>
      <trkpt lat="44.32898" lon="3.68859">
        <ele>1079.9</ele>
        <time>2021-08-11T09:01:22Z</time>
      </trkpt>
      <trkpt lat="44.32901" lon="3.68852">
        <ele>1079.3</ele>
        <time>2021-08-11T09:01:24Z</time>
      </trkpt>
      <trkpt lat="44.32902" lon="3.68848">
        <ele>1079.2</ele>
        <time>2021-08-11T09:01:26Z</time>
      </trkpt>
      <trkpt lat="44.32902" lon="3.68847">
        <ele>1079.1</ele>
        <time>2021-08-11T09:01:28Z</time>
      </trkpt>
      <trkpt lat="44.32902" lon="3.68847">
        <ele>1079.1</ele>
        <time>2021-08-11T09:01:30Z</time>
      </trkpt>
      <trkpt lat="44.32902" lon="3.68847">
        <ele>1079.1</ele>
        <time>2021-08-11T09:01:32Z</time>
      </trkpt>
      <trkpt lat="44.32902" lon="3.68847">
        <ele>1079</ele>
        <time>2021-08-11T09:01:34Z</time>
      </trkpt>
      <trkpt lat="44.32888" lon="3.68838">
        <ele>1081.4</ele>
        <time>2021-08-11T09:03:08Z</time>
      </trkpt>
      <trkpt lat="44.32882" lon="3.68838">
        <ele>1082.4</ele>
        <time>2021-08-11T09:03:10Z</time>
      </trkpt>
      <trkpt lat="44.32875" lon="3.68838">
        <ele>1083.3</ele>
        <time>2021-08-11T09:03:12Z</time>
      </trkpt>
      <trkpt lat="44.32869" lon="3.68838">
        <ele>1084.3</ele>
        <time>2021-08-11T09:03:14Z</time>
      </trkpt>
      <trkpt lat="44.32862" lon="3.68837">
        <ele>1085.3</ele>
        <time>2021-08-11T09:03:16Z</time>
      </trkpt>
      <trkpt lat="44.32854" lon="3.68836">
        <ele>1086.4</ele>
        <time>2021-08-11T09:03:18Z</time>
      </trkpt>
      <trkpt lat="44.32846" lon="3.68834">
        <ele>1087.4</ele>
        <time>2021-08-11T09:03:20Z</time>
      </trkpt>
      <trkpt lat="44.32837" lon="3.68834">
        <ele>1088.6</ele>
        <time>2021-08-11T09:03:22Z</time>
      </trkpt>
      <trkpt lat="44.32828" lon="3.68834">
        <ele>1089.2</ele>
        <time>2021-08-11T09:03:24Z</time>
      </trkpt>
      <trkpt lat="44.32819" lon="3.68836">
        <ele>1089.4</ele>
        <time>2021-08-11T09:03:26Z</time>
      </trkpt>
      <trkpt lat="44.3281" lon="3.68838">
        <ele>1089.9</ele>
        <time>2021-08-11T09:03:28Z</time>
      </trkpt>
      <trkpt lat="44.32801" lon="3.68842">
        <ele>1090.7</ele>
        <time>2021-08-11T09:03:30Z</time>
      </trkpt>
      <trkpt lat="44.32792" lon="3.68845">
        <ele>1091.5</ele>
        <time>2021-08-11T09:03:32Z</time>
      </trkpt>
      <trkpt lat="44.32783" lon="3.68849">
        <ele>1092.7</ele>
        <time>2021-08-11T09:03:34Z</time>
      </trkpt>
      <trkpt lat="44.32776" lon="3.68853">
        <ele>1093.9</ele>
        <time>2021-08-11T09:03:36Z</time>
      </trkpt>
      <trkpt lat="44.32767" lon="3.68856">
        <ele>1094.8</ele>
        <time>2021-08-11T09:03:38Z</time>
      </trkpt>
      <trkpt lat="44.32758" lon="3.68859">
        <ele>1096</ele>
        <time>2021-08-11T09:03:40Z</time>
      </trkpt>
      <trkpt lat="44.32749" lon="3.68863">
        <ele>1097.2</ele>
        <time>2021-08-11T09:03:42Z</time>
      </trkpt>
      <trkpt lat="44.32739" lon="3.68865">
        <ele>1098.1</ele>
        <time>2021-08-11T09:03:44Z</time>
      </trkpt>
      <trkpt lat="44.32729" lon="3.68867">
        <ele>1098.9</ele>
        <time>2021-08-11T09:03:46Z</time>
      </trkpt>
      <trkpt lat="44.32718" lon="3.68867">
        <ele>1099.3</ele>
        <time>2021-08-11T09:03:48Z</time>
      </trkpt>
      <trkpt lat="44.32707" lon="3.68866">
        <ele>1099.2</ele>
        <time>2021-08-11T09:03:50Z</time>
      </trkpt>
      <trkpt lat="44.32696" lon="3.68864">
        <ele>1099.2</ele>
        <time>2021-08-11T09:03:52Z</time>
      </trkpt>
      <trkpt lat="44.32684" lon="3.68863">
        <ele>1099.2</ele>
        <time>2021-08-11T09:03:54Z</time>
      </trkpt>
      <trkpt lat="44.32673" lon="3.6886">
        <ele>1098.8</ele>
        <time>2021-08-11T09:03:56Z</time>
      </trkpt>
      <trkpt lat="44.32662" lon="3.68856">
        <ele>1098.6</ele>
        <time>2021-08-11T09:03:58Z</time>
      </trkpt>
      <trkpt lat="44.32651" lon="3.68851">
        <ele>1098.1</ele>
        <time>2021-08-11T09:04:00Z</time>
      </trkpt>
      <trkpt lat="44.32645" lon="3.68838">
        <ele>1096.2</ele>
        <time>2021-08-11T09:04:02Z</time>
      </trkpt>
      <trkpt lat="44.32641" lon="3.68824">
        <ele>1094.7</ele>
        <time>2021-08-11T09:04:04Z</time>
      </trkpt>
      <trkpt lat="44.32637" lon="3.68809">
        <ele>1093.4</ele>
        <time>2021-08-11T09:04:06Z</time>
      </trkpt>
      <trkpt lat="44.32636" lon="3.68792">
        <ele>1091.4</ele>
        <time>2021-08-11T09:04:08Z</time>
      </trkpt>
      <trkpt lat="44.32636" lon="3.68776">
        <ele>1089.6</ele>
        <time>2021-08-11T09:04:10Z</time>
      </trkpt>
      <trkpt lat="44.32636" lon="3.68759">
        <ele>1087.6</ele>
        <time>2021-08-11T09:04:12Z</time>
      </trkpt>
      <trkpt lat="44.32635" lon="3.68743">
        <ele>1086.1</ele>
        <time>2021-08-11T09:04:14Z</time>
      </trkpt>
      <trkpt lat="44.32634" lon="3.68726">
        <ele>1084.6</ele>
        <time>2021-08-11T09:04:16Z</time>
      </trkpt>
      <trkpt lat="44.32632" lon="3.68709">
        <ele>1083.5</ele>
        <time>2021-08-11T09:04:18Z</time>
      </trkpt>
      <trkpt lat="44.32626" lon="3.68693">
        <ele>1083.2</ele>
        <time>2021-08-11T09:04:20Z</time>
      </trkpt>
      <trkpt lat="44.32619" lon="3.6868">
        <ele>1083.7</ele>
        <time>2021-08-11T09:04:22Z</time>
      </trkpt>
      <trkpt lat="44.3261" lon="3.68668">
        <ele>1084.8</ele>
        <time>2021-08-11T09:04:24Z</time>
      </trkpt>
      <trkpt lat="44.32601" lon="3.68657">
        <ele>1085.5</ele>
        <time>2021-08-11T09:04:26Z</time>
      </trkpt>
      <trkpt lat="44.32591" lon="3.68648">
        <ele>1086.6</ele>
        <time>2021-08-11T09:04:28Z</time>
      </trkpt>
      <trkpt lat="44.32585" lon="3.68637">
        <ele>1086.7</ele>
        <time>2021-08-11T09:04:30Z</time>
      </trkpt>
      <trkpt lat="44.32577" lon="3.6863">
        <ele>1085.5</ele>
        <time>2021-08-11T09:04:32Z</time>
      </trkpt>
      <trkpt lat="44.32566" lon="3.68625">
        <ele>1083.7</ele>
        <time>2021-08-11T09:04:34Z</time>
      </trkpt>
      <trkpt lat="44.32556" lon="3.6862">
        <ele>1082.2</ele>
        <time>2021-08-11T09:04:36Z</time>
      </trkpt>
      <trkpt lat="44.32548" lon="3.68612">
        <ele>1080.7</ele>
        <time>2021-08-11T09:04:38Z</time>
      </trkpt>
      <trkpt lat="44.3254" lon="3.68602">
        <ele>1079.1</ele>
        <time>2021-08-11T09:04:40Z</time>
      </trkpt>
      <trkpt lat="44.32533" lon="3.68593">
        <ele>1077.8</ele>
        <time>2021-08-11T09:04:42Z</time>
      </trkpt>
      <trkpt lat="44.32529" lon="3.68589">
        <ele>1077.2</ele>
        <time>2021-08-11T09:04:44Z</time>
      </trkpt>
      <trkpt lat="44.32526" lon="3.6859">
        <ele>1077</ele>
        <time>2021-08-11T09:04:46Z</time>
      </trkpt>
      <trkpt lat="44.32524" lon="3.68591">
        <ele>1077</ele>
        <time>2021-08-11T09:04:48Z</time>
      </trkpt>
      <trkpt lat="44.32524" lon="3.68591">
        <ele>1077</ele>
        <time>2021-08-11T09:04:50Z</time>
      </trkpt>
      <trkpt lat="44.32524" lon="3.68591">
        <ele>1077</ele>
        <time>2021-08-11T09:04:52Z</time>
      </trkpt>
      <trkpt lat="44.32524" lon="3.68591">
        <ele>1077</ele>
        <time>2021-08-11T09:04:54Z</time>
      </trkpt>
      <trkpt lat="44.32524" lon="3.68591">
        <ele>1077</ele>
        <time>2021-08-11T09:04:56Z</time>
      </trkpt>
      <trkpt lat="44.32504" lon="3.6857">
        <ele>1075.4</ele>
        <time>2021-08-11T09:14:56Z</time>
      </trkpt>
      <trkpt lat="44.32499" lon="3.68565">
        <ele>1074.9</ele>
        <time>2021-08-11T09:14:58Z</time>
      </trkpt>
      <trkpt lat="44.32494" lon="3.68558">
        <ele>1074</ele>
        <time>2021-08-11T09:15:00Z</time>
      </trkpt>
      <trkpt lat="44.3249" lon="3.68552">
        <ele>1073.2</ele>
        <time>2021-08-11T09:15:02Z</time>
      </trkpt>
      <trkpt lat="44.32486" lon="3.68546">
        <ele>1072.6</ele>
        <time>2021-08-11T09:15:04Z</time>
      </trkpt>
      <trkpt lat="44.32483" lon="3.6854">
        <ele>1072</ele>
        <time>2021-08-11T09:15:06Z</time>
      </trkpt>
      <trkpt lat="44.32479" lon="3.68534">
        <ele>1071.5</ele>
        <time>2021-08-11T09:15:08Z</time>
      </trkpt>
      <trkpt lat="44.32475" lon="3.68529">
        <ele>1070.9</ele>
        <time>2021-08-11T09:15:10Z</time>
      </trkpt>
      <trkpt lat="44.32471" lon="3.68525">
        <ele>1070.3</ele>
        <time>2021-08-11T09:15:12Z</time>
      </trkpt>
      <trkpt lat="44.32466" lon="3.6852">
        <ele>1069.7</ele>
        <time>2021-08-11T09:15:14Z</time>
      </trkpt>
      <trkpt lat="44.3246" lon="3.68515">
        <ele>1068.9</ele>
        <time>2021-08-11T09:15:16Z</time>
      </trkpt>
      <trkpt lat="44.32454" lon="3.68511">
        <ele>1068</ele>
        <time>2021-08-11T09:15:18Z</time>
      </trkpt>
      <trkpt lat="44.32448" lon="3.68507">
        <ele>1067.3</ele>
        <time>2021-08-11T09:15:20Z</time>
      </trkpt>
      <trkpt lat="44.32442" lon="3.68502">
        <ele>1066.8</ele>
        <time>2021-08-11T09:15:22Z</time>
      </trkpt>
      <trkpt lat="44.32437" lon="3.68495">
        <ele>1066.5</ele>
        <time>2021-08-11T09:15:24Z</time>
      </trkpt>
      <trkpt lat="44.32433" lon="3.68485">
        <ele>1066.5</ele>
        <time>2021-08-11T09:15:26Z</time>
      </trkpt>
      <trkpt lat="44.32429" lon="3.68475">
        <ele>1066.5</ele>
        <time>2021-08-11T09:15:28Z</time>
      </trkpt>
      <trkpt lat="44.32425" lon="3.68463">
        <ele>1066.7</ele>
        <time>2021-08-11T09:15:30Z</time>
      </trkpt>
      <trkpt lat="44.32421" lon="3.68451">
        <ele>1066.8</ele>
        <time>2021-08-11T09:15:32Z</time>
      </trkpt>
      <trkpt lat="44.32418" lon="3.68439">
        <ele>1066.9</ele>
        <time>2021-08-11T09:15:34Z</time>
      </trkpt>
      <trkpt lat="44.32415" lon="3.68427">
        <ele>1066.7</ele>
        <time>2021-08-11T09:15:36Z</time>
      </trkpt>
      <trkpt lat="44.32411" lon="3.68414">
        <ele>1066.1</ele>
        <time>2021-08-11T09:15:38Z</time>
      </trkpt>
      <trkpt lat="44.32408" lon="3.684">
        <ele>1065.2</ele>
        <time>2021-08-11T09:15:40Z</time>
      </trkpt>
      <trkpt lat="44.32403" lon="3.68386">
        <ele>1063.9</ele>
        <time>2021-08-11T09:15:42Z</time>
      </trkpt>
      <trkpt lat="44.32399" lon="3.68373">
        <ele>1062.6</ele>
        <time>2021-08-11T09:15:44Z</time>
      </trkpt>
      <trkpt lat="44.32395" lon="3.68359">
        <ele>1061.3</ele>
        <time>2021-08-11T09:15:46Z</time>
      </trkpt>
      <trkpt lat="44.32391" lon="3.68348">
        <ele>1060.1</ele>
        <time>2021-08-11T09:15:48Z</time>
      </trkpt>
      <trkpt lat="44.32388" lon="3.68338">
        <ele>1058.9</ele>
        <time>2021-08-11T09:15:50Z</time>
      </trkpt>
      <trkpt lat="44.32384" lon="3.68328">
        <ele>1057.6</ele>
        <time>2021-08-11T09:15:52Z</time>
      </trkpt>
      <trkpt lat="44.3238" lon="3.68319">
        <ele>1056.4</ele>
        <time>2021-08-11T09:15:54Z</time>
      </trkpt>
      <trkpt lat="44.32377" lon="3.68311">
        <ele>1055.1</ele>
        <time>2021-08-11T09:15:56Z</time>
      </trkpt>
      <trkpt lat="44.32373" lon="3.68301">
        <ele>1053.7</ele>
        <time>2021-08-11T09:15:58Z</time>
      </trkpt>
      <trkpt lat="44.32369" lon="3.68292">
        <ele>1052.5</ele>
        <time>2021-08-11T09:16:00Z</time>
      </trkpt>
      <trkpt lat="44.32366" lon="3.6828">
        <ele>1051.3</ele>
        <time>2021-08-11T09:16:02Z</time>
      </trkpt>
      <trkpt lat="44.32363" lon="3.68267">
        <ele>1050.3</ele>
        <time>2021-08-11T09:16:04Z</time>
      </trkpt>
      <trkpt lat="44.32361" lon="3.68254">
        <ele>1049.6</ele>
        <time>2021-08-11T09:16:06Z</time>
      </trkpt>
      <trkpt lat="44.3236" lon="3.68239">
        <ele>1050.3</ele>
        <time>2021-08-11T09:16:08Z</time>
      </trkpt>
      <trkpt lat="44.3236" lon="3.6822">
        <ele>1051.9</ele>
        <time>2021-08-11T09:16:10Z</time>
      </trkpt>
      <trkpt lat="44.32359" lon="3.68202">
        <ele>1053.4</ele>
        <time>2021-08-11T09:16:12Z</time>
      </trkpt>
      <trkpt lat="44.32355" lon="3.68183">
        <ele>1053.3</ele>
        <time>2021-08-11T09:16:14Z</time>
      </trkpt>
      <trkpt lat="44.32351" lon="3.68166">
        <ele>1053.5</ele>
        <time>2021-08-11T09:16:16Z</time>
      </trkpt>
      <trkpt lat="44.32348" lon="3.68149">
        <ele>1051.2</ele>
        <time>2021-08-11T09:16:18Z</time>
      </trkpt>
      <trkpt lat="44.32343" lon="3.68134">
        <ele>1048.2</ele>
        <time>2021-08-11T09:16:20Z</time>
      </trkpt>
      <trkpt lat="44.32337" lon="3.6812">
        <ele>1045.2</ele>
        <time>2021-08-11T09:16:22Z</time>
      </trkpt>
      <trkpt lat="44.32335" lon="3.68107">
        <ele>1043.3</ele>
        <time>2021-08-11T09:16:24Z</time>
      </trkpt>
      <trkpt lat="44.32337" lon="3.68093">
        <ele>1043.1</ele>
        <time>2021-08-11T09:16:26Z</time>
      </trkpt>
      <trkpt lat="44.32341" lon="3.68078">
        <ele>1043.5</ele>
        <time>2021-08-11T09:16:28Z</time>
      </trkpt>
      <trkpt lat="44.32347" lon="3.68063">
        <ele>1044.1</ele>
        <time>2021-08-11T09:16:30Z</time>
      </trkpt>
      <trkpt lat="44.32353" lon="3.68047">
        <ele>1044.5</ele>
        <time>2021-08-11T09:16:32Z</time>
      </trkpt>
      <trkpt lat="44.32359" lon="3.68027">
        <ele>1044.2</ele>
        <time>2021-08-11T09:16:34Z</time>
      </trkpt>
      <trkpt lat="44.32364" lon="3.68005">
        <ele>1043.4</ele>
        <time>2021-08-11T09:16:36Z</time>
      </trkpt>
      <trkpt lat="44.32368" lon="3.67982">
        <ele>1041.5</ele>
        <time>2021-08-11T09:16:38Z</time>
      </trkpt>
      <trkpt lat="44.32372" lon="3.6796">
        <ele>1039.3</ele>
        <time>2021-08-11T09:16:40Z</time>
      </trkpt>
      <trkpt lat="44.32377" lon="3.67938">
        <ele>1037.2</ele>
        <time>2021-08-11T09:16:42Z</time>
      </trkpt>
      <trkpt lat="44.32382" lon="3.67914">
        <ele>1035.3</ele>
        <time>2021-08-11T09:16:44Z</time>
      </trkpt>
      <trkpt lat="44.32386" lon="3.67892">
        <ele>1034.5</ele>
        <time>2021-08-11T09:16:46Z</time>
      </trkpt>
      <trkpt lat="44.32387" lon="3.6787">
        <ele>1032.7</ele>
        <time>2021-08-11T09:16:48Z</time>
      </trkpt>
      <trkpt lat="44.32386" lon="3.67848">
        <ele>1030.2</ele>
        <time>2021-08-11T09:16:50Z</time>
      </trkpt>
      <trkpt lat="44.32383" lon="3.67827">
        <ele>1027.7</ele>
        <time>2021-08-11T09:16:52Z</time>
      </trkpt>
      <trkpt lat="44.32383" lon="3.67803">
        <ele>1026.5</ele>
        <time>2021-08-11T09:16:54Z</time>
      </trkpt>
      <trkpt lat="44.32384" lon="3.67779">
        <ele>1025.5</ele>
        <time>2021-08-11T09:16:56Z</time>
      </trkpt>
      <trkpt lat="44.32382" lon="3.67756">
        <ele>1023.4</ele>
        <time>2021-08-11T09:16:58Z</time>
      </trkpt>
      <trkpt lat="44.32379" lon="3.67733">
        <ele>1021.8</ele>
        <time>2021-08-11T09:17:00Z</time>
      </trkpt>
      <trkpt lat="44.32377" lon="3.67709">
        <ele>1020.6</ele>
        <time>2021-08-11T09:17:02Z</time>
      </trkpt>
      <trkpt lat="44.32375" lon="3.67684">
        <ele>1019.6</ele>
        <time>2021-08-11T09:17:04Z</time>
      </trkpt>
      <trkpt lat="44.32374" lon="3.67661">
        <ele>1019.2</ele>
        <time>2021-08-11T09:17:06Z</time>
      </trkpt>
      <trkpt lat="44.32372" lon="3.67642">
        <ele>1018.7</ele>
        <time>2021-08-11T09:17:08Z</time>
      </trkpt>
      <trkpt lat="44.32368" lon="3.67621">
        <ele>1017.1</ele>
        <time>2021-08-11T09:17:10Z</time>
      </trkpt>
      <trkpt lat="44.32362" lon="3.67602">
        <ele>1014.8</ele>
        <time>2021-08-11T09:17:12Z</time>
      </trkpt>
      <trkpt lat="44.32356" lon="3.67586">
        <ele>1012.2</ele>
        <time>2021-08-11T09:17:14Z</time>
      </trkpt>
      <trkpt lat="44.32352" lon="3.67568">
        <ele>1010.1</ele>
        <time>2021-08-11T09:17:16Z</time>
      </trkpt>
      <trkpt lat="44.32349" lon="3.67551">
        <ele>1008.6</ele>
        <time>2021-08-11T09:17:18Z</time>
      </trkpt>
      <trkpt lat="44.32347" lon="3.67531">
        <ele>1007.9</ele>
        <time>2021-08-11T09:17:20Z</time>
      </trkpt>
      <trkpt lat="44.32348" lon="3.6751">
        <ele>1008.2</ele>
        <time>2021-08-11T09:17:22Z</time>
      </trkpt>
      <trkpt lat="44.32349" lon="3.67489">
        <ele>1008.4</ele>
        <time>2021-08-11T09:17:24Z</time>
      </trkpt>
      <trkpt lat="44.32349" lon="3.67468">
        <ele>1008.2</ele>
        <time>2021-08-11T09:17:26Z</time>
      </trkpt>
      <trkpt lat="44.32348" lon="3.67449">
        <ele>1007.4</ele>
        <time>2021-08-11T09:17:28Z</time>
      </trkpt>
      <trkpt lat="44.32346" lon="3.6743">
        <ele>1006.6</ele>
        <time>2021-08-11T09:17:30Z</time>
      </trkpt>
      <trkpt lat="44.32345" lon="3.6741">
        <ele>1005.9</ele>
        <time>2021-08-11T09:17:32Z</time>
      </trkpt>
      <trkpt lat="44.32342" lon="3.67392">
        <ele>1004.6</ele>
        <time>2021-08-11T09:17:34Z</time>
      </trkpt>
      <trkpt lat="44.32341" lon="3.67375">
        <ele>1003.7</ele>
        <time>2021-08-11T09:17:36Z</time>
      </trkpt>
      <trkpt lat="44.3234" lon="3.67361">
        <ele>1003.2</ele>
        <time>2021-08-11T09:17:38Z</time>
      </trkpt>
      <trkpt lat="44.32338" lon="3.67344">
        <ele>1002.6</ele>
        <time>2021-08-11T09:17:40Z</time>
      </trkpt>
      <trkpt lat="44.32336" lon="3.67326">
        <ele>1001.4</ele>
        <time>2021-08-11T09:17:42Z</time>
      </trkpt>
      <trkpt lat="44.32332" lon="3.67307">
        <ele>999.2</ele>
        <time>2021-08-11T09:17:44Z</time>
      </trkpt>
      <trkpt lat="44.32325" lon="3.67288">
        <ele>996</ele>
        <time>2021-08-11T09:17:46Z</time>
      </trkpt>
      <trkpt lat="44.32319" lon="3.67272">
        <ele>993.4</ele>
        <time>2021-08-11T09:17:48Z</time>
      </trkpt>
      <trkpt lat="44.32312" lon="3.67255">
        <ele>990.7</ele>
        <time>2021-08-11T09:17:50Z</time>
      </trkpt>
      <trkpt lat="44.32305" lon="3.67239">
        <ele>988.7</ele>
        <time>2021-08-11T09:17:52Z</time>
      </trkpt>
      <trkpt lat="44.32299" lon="3.67222">
        <ele>987.5</ele>
        <time>2021-08-11T09:17:54Z</time>
      </trkpt>
      <trkpt lat="44.32295" lon="3.67201">
        <ele>987</ele>
        <time>2021-08-11T09:17:56Z</time>
      </trkpt>
      <trkpt lat="44.3229" lon="3.67181">
        <ele>986.4</ele>
        <time>2021-08-11T09:17:58Z</time>
      </trkpt>
      <trkpt lat="44.32283" lon="3.67163">
        <ele>985.7</ele>
        <time>2021-08-11T09:18:00Z</time>
      </trkpt>
      <trkpt lat="44.32276" lon="3.67145">
        <ele>985.4</ele>
        <time>2021-08-11T09:18:02Z</time>
      </trkpt>
      <trkpt lat="44.32267" lon="3.67129">
        <ele>984.3</ele>
        <time>2021-08-11T09:18:04Z</time>
      </trkpt>
      <trkpt lat="44.32257" lon="3.67116">
        <ele>982.7</ele>
        <time>2021-08-11T09:18:06Z</time>
      </trkpt>
      <trkpt lat="44.32247" lon="3.67105">
        <ele>980.5</ele>
        <time>2021-08-11T09:18:08Z</time>
      </trkpt>
      <trkpt lat="44.32236" lon="3.67096">
        <ele>978.5</ele>
        <time>2021-08-11T09:18:10Z</time>
      </trkpt>
      <trkpt lat="44.32226" lon="3.67087">
        <ele>976.6</ele>
        <time>2021-08-11T09:18:12Z</time>
      </trkpt>
      <trkpt lat="44.32216" lon="3.67078">
        <ele>975.1</ele>
        <time>2021-08-11T09:18:14Z</time>
      </trkpt>
      <trkpt lat="44.32205" lon="3.67068">
        <ele>973.8</ele>
        <time>2021-08-11T09:18:16Z</time>
      </trkpt>
      <trkpt lat="44.32194" lon="3.67057">
        <ele>972.5</ele>
        <time>2021-08-11T09:18:18Z</time>
      </trkpt>
      <trkpt lat="44.32182" lon="3.67046">
        <ele>971.3</ele>
        <time>2021-08-11T09:18:20Z</time>
      </trkpt>
      <trkpt lat="44.32171" lon="3.67036">
        <ele>970.2</ele>
        <time>2021-08-11T09:18:22Z</time>
      </trkpt>
      <trkpt lat="44.3216" lon="3.67024">
        <ele>969</ele>
        <time>2021-08-11T09:18:24Z</time>
      </trkpt>
      <trkpt lat="44.32149" lon="3.67012">
        <ele>967.6</ele>
        <time>2021-08-11T09:18:26Z</time>
      </trkpt>
      <trkpt lat="44.32139" lon="3.67001">
        <ele>966.3</ele>
        <time>2021-08-11T09:18:28Z</time>
      </trkpt>
      <trkpt lat="44.32131" lon="3.6699">
        <ele>963.3</ele>
        <time>2021-08-11T09:18:30Z</time>
      </trkpt>
      <trkpt lat="44.32124" lon="3.66979">
        <ele>960.5</ele>
        <time>2021-08-11T09:18:32Z</time>
      </trkpt>
      <trkpt lat="44.32119" lon="3.66966">
        <ele>958.2</ele>
        <time>2021-08-11T09:18:34Z</time>
      </trkpt>
      <trkpt lat="44.32117" lon="3.6695">
        <ele>957</ele>
        <time>2021-08-11T09:18:36Z</time>
      </trkpt>
      <trkpt lat="44.32118" lon="3.66933">
        <ele>956.6</ele>
        <time>2021-08-11T09:18:38Z</time>
      </trkpt>
      <trkpt lat="44.32119" lon="3.66914">
        <ele>956.3</ele>
        <time>2021-08-11T09:18:40Z</time>
      </trkpt>
      <trkpt lat="44.32122" lon="3.66894">
        <ele>955.9</ele>
        <time>2021-08-11T09:18:42Z</time>
      </trkpt>
      <trkpt lat="44.32126" lon="3.66878">
        <ele>956.1</ele>
        <time>2021-08-11T09:18:44Z</time>
      </trkpt>
      <trkpt lat="44.3213" lon="3.66863">
        <ele>956.2</ele>
        <time>2021-08-11T09:18:46Z</time>
      </trkpt>
      <trkpt lat="44.32132" lon="3.66847">
        <ele>955.4</ele>
        <time>2021-08-11T09:18:48Z</time>
      </trkpt>
      <trkpt lat="44.32131" lon="3.6683">
        <ele>954.2</ele>
        <time>2021-08-11T09:18:50Z</time>
      </trkpt>
      <trkpt lat="44.32129" lon="3.66812">
        <ele>954.2</ele>
        <time>2021-08-11T09:18:52Z</time>
      </trkpt>
      <trkpt lat="44.32126" lon="3.66794">
        <ele>953.8</ele>
        <time>2021-08-11T09:18:54Z</time>
      </trkpt>
      <trkpt lat="44.32122" lon="3.66779">
        <ele>953.4</ele>
        <time>2021-08-11T09:18:56Z</time>
      </trkpt>
      <trkpt lat="44.32114" lon="3.66768">
        <ele>951.7</ele>
        <time>2021-08-11T09:18:58Z</time>
      </trkpt>
      <trkpt lat="44.32102" lon="3.66763">
        <ele>948.4</ele>
        <time>2021-08-11T09:19:00Z</time>
      </trkpt>
      <trkpt lat="44.32091" lon="3.66756">
        <ele>945.5</ele>
        <time>2021-08-11T09:19:02Z</time>
      </trkpt>
      <trkpt lat="44.3208" lon="3.66748">
        <ele>943.3</ele>
        <time>2021-08-11T09:19:04Z</time>
      </trkpt>
      <trkpt lat="44.32071" lon="3.66741">
        <ele>941.6</ele>
        <time>2021-08-11T09:19:06Z</time>
      </trkpt>
      <trkpt lat="44.32063" lon="3.66732">
        <ele>940.4</ele>
        <time>2021-08-11T09:19:08Z</time>
      </trkpt>
      <trkpt lat="44.32059" lon="3.66718">
        <ele>940.9</ele>
        <time>2021-08-11T09:19:10Z</time>
      </trkpt>
      <trkpt lat="44.32055" lon="3.66703">
        <ele>941.7</ele>
        <time>2021-08-11T09:19:12Z</time>
      </trkpt>
      <trkpt lat="44.32051" lon="3.66689">
        <ele>942.2</ele>
        <time>2021-08-11T09:19:14Z</time>
      </trkpt>
      <trkpt lat="44.32048" lon="3.66677">
        <ele>942.7</ele>
        <time>2021-08-11T09:19:16Z</time>
      </trkpt>
      <trkpt lat="44.32043" lon="3.66665">
        <ele>942.4</ele>
        <time>2021-08-11T09:19:18Z</time>
      </trkpt>
      <trkpt lat="44.32036" lon="3.66657">
        <ele>940.5</ele>
        <time>2021-08-11T09:19:20Z</time>
      </trkpt>
      <trkpt lat="44.32028" lon="3.66648">
        <ele>938.4</ele>
        <time>2021-08-11T09:19:22Z</time>
      </trkpt>
      <trkpt lat="44.32022" lon="3.66638">
        <ele>936.3</ele>
        <time>2021-08-11T09:19:24Z</time>
      </trkpt>
      <trkpt lat="44.32016" lon="3.66625">
        <ele>934.7</ele>
        <time>2021-08-11T09:19:26Z</time>
      </trkpt>
      <trkpt lat="44.32011" lon="3.66611">
        <ele>933.1</ele>
        <time>2021-08-11T09:19:28Z</time>
      </trkpt>
      <trkpt lat="44.32007" lon="3.66597">
        <ele>931.7</ele>
        <time>2021-08-11T09:19:30Z</time>
      </trkpt>
      <trkpt lat="44.32004" lon="3.6658">
        <ele>930.7</ele>
        <time>2021-08-11T09:19:32Z</time>
      </trkpt>
      <trkpt lat="44.32002" lon="3.66561">
        <ele>930.1</ele>
        <time>2021-08-11T09:19:34Z</time>
      </trkpt>
      <trkpt lat="44.32001" lon="3.66543">
        <ele>929.9</ele>
        <time>2021-08-11T09:19:36Z</time>
      </trkpt>
      <trkpt lat="44.32" lon="3.66524">
        <ele>929.5</ele>
        <time>2021-08-11T09:19:38Z</time>
      </trkpt>
      <trkpt lat="44.31997" lon="3.66508">
        <ele>928.6</ele>
        <time>2021-08-11T09:19:40Z</time>
      </trkpt>
      <trkpt lat="44.31996" lon="3.66492">
        <ele>928.3</ele>
        <time>2021-08-11T09:19:42Z</time>
      </trkpt>
      <trkpt lat="44.31997" lon="3.66477">
        <ele>929</ele>
        <time>2021-08-11T09:19:44Z</time>
      </trkpt>
      <trkpt lat="44.31997" lon="3.66461">
        <ele>929.6</ele>
        <time>2021-08-11T09:19:46Z</time>
      </trkpt>
      <trkpt lat="44.31997" lon="3.66446">
        <ele>930.1</ele>
        <time>2021-08-11T09:19:48Z</time>
      </trkpt>
      <trkpt lat="44.31994" lon="3.66432">
        <ele>929.2</ele>
        <time>2021-08-11T09:19:50Z</time>
      </trkpt>
      <trkpt lat="44.31991" lon="3.66419">
        <ele>928.4</ele>
        <time>2021-08-11T09:19:52Z</time>
      </trkpt>
      <trkpt lat="44.31988" lon="3.66407">
        <ele>927.8</ele>
        <time>2021-08-11T09:19:54Z</time>
      </trkpt>
      <trkpt lat="44.31982" lon="3.66396">
        <ele>926.2</ele>
        <time>2021-08-11T09:19:56Z</time>
      </trkpt>
      <trkpt lat="44.31978" lon="3.66387">
        <ele>924.9</ele>
        <time>2021-08-11T09:19:58Z</time>
      </trkpt>
      <trkpt lat="44.31971" lon="3.6638">
        <ele>922.5</ele>
        <time>2021-08-11T09:20:00Z</time>
      </trkpt>
      <trkpt lat="44.31962" lon="3.66374">
        <ele>919.2</ele>
        <time>2021-08-11T09:20:02Z</time>
      </trkpt>
      <trkpt lat="44.31954" lon="3.66369">
        <ele>916.1</ele>
        <time>2021-08-11T09:20:04Z</time>
      </trkpt>
      <trkpt lat="44.31948" lon="3.66361">
        <ele>913.8</ele>
        <time>2021-08-11T09:20:06Z</time>
      </trkpt>
      <trkpt lat="44.31946" lon="3.6635">
        <ele>913.2</ele>
        <time>2021-08-11T09:20:08Z</time>
      </trkpt>
      <trkpt lat="44.31946" lon="3.66339">
        <ele>913.8</ele>
        <time>2021-08-11T09:20:10Z</time>
      </trkpt>
      <trkpt lat="44.31948" lon="3.66327">
        <ele>914</ele>
        <time>2021-08-11T09:20:12Z</time>
      </trkpt>
      <trkpt lat="44.3195" lon="3.66318">
        <ele>913.7</ele>
        <time>2021-08-11T09:20:14Z</time>
      </trkpt>
      <trkpt lat="44.31952" lon="3.66308">
        <ele>913.4</ele>
        <time>2021-08-11T09:20:16Z</time>
      </trkpt>
      <trkpt lat="44.31954" lon="3.66296">
        <ele>913.2</ele>
        <time>2021-08-11T09:20:18Z</time>
      </trkpt>
      <trkpt lat="44.31958" lon="3.66283">
        <ele>913.1</ele>
        <time>2021-08-11T09:20:20Z</time>
      </trkpt>
      <trkpt lat="44.31961" lon="3.66266">
        <ele>913.1</ele>
        <time>2021-08-11T09:20:22Z</time>
      </trkpt>
      <trkpt lat="44.31965" lon="3.66249">
        <ele>912.9</ele>
        <time>2021-08-11T09:20:24Z</time>
      </trkpt>
      <trkpt lat="44.31967" lon="3.6623">
        <ele>912</ele>
        <time>2021-08-11T09:20:26Z</time>
      </trkpt>
      <trkpt lat="44.31968" lon="3.66212">
        <ele>910.7</ele>
        <time>2021-08-11T09:20:28Z</time>
      </trkpt>
      <trkpt lat="44.3197" lon="3.66194">
        <ele>909.3</ele>
        <time>2021-08-11T09:20:30Z</time>
      </trkpt>
      <trkpt lat="44.3197" lon="3.66175">
        <ele>907.4</ele>
        <time>2021-08-11T09:20:32Z</time>
      </trkpt>
      <trkpt lat="44.3197" lon="3.66156">
        <ele>907.4</ele>
        <time>2021-08-11T09:20:34Z</time>
      </trkpt>
      <trkpt lat="44.31973" lon="3.66137">
        <ele>910.3</ele>
        <time>2021-08-11T09:20:36Z</time>
      </trkpt>
      <trkpt lat="44.31977" lon="3.6612">
        <ele>913</ele>
        <time>2021-08-11T09:20:38Z</time>
      </trkpt>
      <trkpt lat="44.3198" lon="3.66106">
        <ele>915</ele>
        <time>2021-08-11T09:20:40Z</time>
      </trkpt>
      <trkpt lat="44.31982" lon="3.66094">
        <ele>916</ele>
        <time>2021-08-11T09:20:42Z</time>
      </trkpt>
      <trkpt lat="44.31977" lon="3.66082">
        <ele>915.4</ele>
        <time>2021-08-11T09:20:44Z</time>
      </trkpt>
      <trkpt lat="44.31967" lon="3.66078">
        <ele>914.2</ele>
        <time>2021-08-11T09:20:46Z</time>
      </trkpt>
      <trkpt lat="44.31958" lon="3.66074">
        <ele>913.2</ele>
        <time>2021-08-11T09:20:48Z</time>
      </trkpt>
      <trkpt lat="44.31948" lon="3.6607">
        <ele>912.2</ele>
        <time>2021-08-11T09:20:50Z</time>
      </trkpt>
      <trkpt lat="44.31941" lon="3.66069">
        <ele>910.8</ele>
        <time>2021-08-11T09:20:52Z</time>
      </trkpt>
      <trkpt lat="44.31933" lon="3.6607">
        <ele>908.7</ele>
        <time>2021-08-11T09:20:54Z</time>
      </trkpt>
      <trkpt lat="44.31925" lon="3.66071">
        <ele>906.2</ele>
        <time>2021-08-11T09:20:56Z</time>
      </trkpt>
      <trkpt lat="44.31917" lon="3.66075">
        <ele>902.9</ele>
        <time>2021-08-11T09:20:58Z</time>
      </trkpt>
      <trkpt lat="44.31906" lon="3.66078">
        <ele>898.8</ele>
        <time>2021-08-11T09:21:00Z</time>
      </trkpt>
      <trkpt lat="44.31897" lon="3.66083">
        <ele>894.1</ele>
        <time>2021-08-11T09:21:02Z</time>
      </trkpt>
      <trkpt lat="44.31889" lon="3.6609">
        <ele>889.7</ele>
        <time>2021-08-11T09:21:04Z</time>
      </trkpt>
      <trkpt lat="44.3188" lon="3.66092">
        <ele>886.7</ele>
        <time>2021-08-11T09:21:06Z</time>
      </trkpt>
      <trkpt lat="44.31871" lon="3.66088">
        <ele>884.9</ele>
        <time>2021-08-11T09:21:08Z</time>
      </trkpt>
      <trkpt lat="44.31862" lon="3.6608">
        <ele>884.6</ele>
        <time>2021-08-11T09:21:10Z</time>
      </trkpt>
      <trkpt lat="44.31853" lon="3.66068">
        <ele>885.1</ele>
        <time>2021-08-11T09:21:12Z</time>
      </trkpt>
      <trkpt lat="44.31847" lon="3.66059">
        <ele>885.9</ele>
        <time>2021-08-11T09:21:14Z</time>
      </trkpt>
      <trkpt lat="44.31845" lon="3.66054">
        <ele>886.7</ele>
        <time>2021-08-11T09:21:16Z</time>
      </trkpt>
      <trkpt lat="44.31841" lon="3.66048">
        <ele>887.2</ele>
        <time>2021-08-11T09:21:18Z</time>
      </trkpt>
      <trkpt lat="44.31837" lon="3.66042">
        <ele>887.4</ele>
        <time>2021-08-11T09:21:20Z</time>
      </trkpt>
      <trkpt lat="44.31831" lon="3.66034">
        <ele>887.2</ele>
        <time>2021-08-11T09:21:22Z</time>
      </trkpt>
      <trkpt lat="44.31827" lon="3.66026">
        <ele>887.5</ele>
        <time>2021-08-11T09:21:24Z</time>
      </trkpt>
      <trkpt lat="44.31822" lon="3.66018">
        <ele>888</ele>
        <time>2021-08-11T09:21:26Z</time>
      </trkpt>
      <trkpt lat="44.31817" lon="3.66009">
        <ele>888.3</ele>
        <time>2021-08-11T09:21:28Z</time>
      </trkpt>
      <trkpt lat="44.31814" lon="3.66001">
        <ele>889.1</ele>
        <time>2021-08-11T09:21:30Z</time>
      </trkpt>
      <trkpt lat="44.31809" lon="3.65993">
        <ele>888.8</ele>
        <time>2021-08-11T09:21:32Z</time>
      </trkpt>
      <trkpt lat="44.31805" lon="3.65983">
        <ele>888.9</ele>
        <time>2021-08-11T09:21:34Z</time>
      </trkpt>
      <trkpt lat="44.31802" lon="3.65974">
        <ele>889.1</ele>
        <time>2021-08-11T09:21:36Z</time>
      </trkpt>
      <trkpt lat="44.31799" lon="3.65966">
        <ele>889.2</ele>
        <time>2021-08-11T09:21:38Z</time>
      </trkpt>
      <trkpt lat="44.31794" lon="3.65953">
        <ele>889.7</ele>
        <time>2021-08-11T09:21:40Z</time>
      </trkpt>
      <trkpt lat="44.31789" lon="3.65941">
        <ele>889.9</ele>
        <time>2021-08-11T09:21:42Z</time>
      </trkpt>
      <trkpt lat="44.3178" lon="3.65932">
        <ele>888.9</ele>
        <time>2021-08-11T09:21:44Z</time>
      </trkpt>
      <trkpt lat="44.31769" lon="3.6593">
        <ele>885.9</ele>
        <time>2021-08-11T09:21:46Z</time>
      </trkpt>
      <trkpt lat="44.31757" lon="3.6593">
        <ele>882.4</ele>
        <time>2021-08-11T09:21:48Z</time>
      </trkpt>
      <trkpt lat="44.31747" lon="3.65926">
        <ele>880.6</ele>
        <time>2021-08-11T09:21:50Z</time>
      </trkpt>
      <trkpt lat="44.31737" lon="3.6592">
        <ele>880.7</ele>
        <time>2021-08-11T09:21:52Z</time>
      </trkpt>
      <trkpt lat="44.31728" lon="3.65914">
        <ele>880.8</ele>
        <time>2021-08-11T09:21:54Z</time>
      </trkpt>
      <trkpt lat="44.31722" lon="3.65907">
        <ele>881</ele>
        <time>2021-08-11T09:21:56Z</time>
      </trkpt>
      <trkpt lat="44.31717" lon="3.65902">
        <ele>881.3</ele>
        <time>2021-08-11T09:21:58Z</time>
      </trkpt>
      <trkpt lat="44.31711" lon="3.65897">
        <ele>881.3</ele>
        <time>2021-08-11T09:22:00Z</time>
      </trkpt>
      <trkpt lat="44.31705" lon="3.65896">
        <ele>880.9</ele>
        <time>2021-08-11T09:22:02Z</time>
      </trkpt>
      <trkpt lat="44.31699" lon="3.65896">
        <ele>880.3</ele>
        <time>2021-08-11T09:22:04Z</time>
      </trkpt>
      <trkpt lat="44.31691" lon="3.65897">
        <ele>879.3</ele>
        <time>2021-08-11T09:22:06Z</time>
      </trkpt>
      <trkpt lat="44.31683" lon="3.65902">
        <ele>877.6</ele>
        <time>2021-08-11T09:22:08Z</time>
      </trkpt>
      <trkpt lat="44.31677" lon="3.65911">
        <ele>875.2</ele>
        <time>2021-08-11T09:22:10Z</time>
      </trkpt>
      <trkpt lat="44.3167" lon="3.65923">
        <ele>872.4</ele>
        <time>2021-08-11T09:22:12Z</time>
      </trkpt>
      <trkpt lat="44.3166" lon="3.65933">
        <ele>870.3</ele>
        <time>2021-08-11T09:22:14Z</time>
      </trkpt>
      <trkpt lat="44.31648" lon="3.65944">
        <ele>868.7</ele>
        <time>2021-08-11T09:22:16Z</time>
      </trkpt>
      <trkpt lat="44.31634" lon="3.65953">
        <ele>867.3</ele>
        <time>2021-08-11T09:22:18Z</time>
      </trkpt>
      <trkpt lat="44.3162" lon="3.6596">
        <ele>866.3</ele>
        <time>2021-08-11T09:22:20Z</time>
      </trkpt>
      <trkpt lat="44.31606" lon="3.65964">
        <ele>865.7</ele>
        <time>2021-08-11T09:22:22Z</time>
      </trkpt>
      <trkpt lat="44.31592" lon="3.65969">
        <ele>865.2</ele>
        <time>2021-08-11T09:22:24Z</time>
      </trkpt>
      <trkpt lat="44.31578" lon="3.65972">
        <ele>864</ele>
        <time>2021-08-11T09:22:26Z</time>
      </trkpt>
      <trkpt lat="44.31566" lon="3.65975">
        <ele>861.5</ele>
        <time>2021-08-11T09:22:28Z</time>
      </trkpt>
      <trkpt lat="44.31553" lon="3.65974">
        <ele>859.6</ele>
        <time>2021-08-11T09:22:30Z</time>
      </trkpt>
      <trkpt lat="44.31539" lon="3.65971">
        <ele>858.2</ele>
        <time>2021-08-11T09:22:32Z</time>
      </trkpt>
      <trkpt lat="44.31526" lon="3.65965">
        <ele>857.4</ele>
        <time>2021-08-11T09:22:34Z</time>
      </trkpt>
      <trkpt lat="44.31514" lon="3.6596">
        <ele>856.7</ele>
        <time>2021-08-11T09:22:36Z</time>
      </trkpt>
      <trkpt lat="44.31501" lon="3.65955">
        <ele>856</ele>
        <time>2021-08-11T09:22:38Z</time>
      </trkpt>
      <trkpt lat="44.31489" lon="3.65951">
        <ele>854.2</ele>
        <time>2021-08-11T09:22:40Z</time>
      </trkpt>
      <trkpt lat="44.31476" lon="3.65948">
        <ele>852.4</ele>
        <time>2021-08-11T09:22:42Z</time>
      </trkpt>
      <trkpt lat="44.31464" lon="3.65944">
        <ele>850.9</ele>
        <time>2021-08-11T09:22:44Z</time>
      </trkpt>
      <trkpt lat="44.31453" lon="3.65941">
        <ele>849.5</ele>
        <time>2021-08-11T09:22:46Z</time>
      </trkpt>
      <trkpt lat="44.31443" lon="3.65934">
        <ele>849.1</ele>
        <time>2021-08-11T09:22:48Z</time>
      </trkpt>
      <trkpt lat="44.31433" lon="3.65926">
        <ele>849</ele>
        <time>2021-08-11T09:22:50Z</time>
      </trkpt>
      <trkpt lat="44.31423" lon="3.65918">
        <ele>848.8</ele>
        <time>2021-08-11T09:22:52Z</time>
      </trkpt>
      <trkpt lat="44.31413" lon="3.65911">
        <ele>848.7</ele>
        <time>2021-08-11T09:22:54Z</time>
      </trkpt>
      <trkpt lat="44.31403" lon="3.65904">
        <ele>848.6</ele>
        <time>2021-08-11T09:22:56Z</time>
      </trkpt>
      <trkpt lat="44.31392" lon="3.65898">
        <ele>847.7</ele>
        <time>2021-08-11T09:22:58Z</time>
      </trkpt>
      <trkpt lat="44.31382" lon="3.65894">
        <ele>846.6</ele>
        <time>2021-08-11T09:23:00Z</time>
      </trkpt>
      <trkpt lat="44.31371" lon="3.65892">
        <ele>844.5</ele>
        <time>2021-08-11T09:23:02Z</time>
      </trkpt>
      <trkpt lat="44.3136" lon="3.65892">
        <ele>842.2</ele>
        <time>2021-08-11T09:23:04Z</time>
      </trkpt>
      <trkpt lat="44.31347" lon="3.65889">
        <ele>839.9</ele>
        <time>2021-08-11T09:23:06Z</time>
      </trkpt>
      <trkpt lat="44.31338" lon="3.65883">
        <ele>839.4</ele>
        <time>2021-08-11T09:23:08Z</time>
      </trkpt>
      <trkpt lat="44.3133" lon="3.65879">
        <ele>838.1</ele>
        <time>2021-08-11T09:23:10Z</time>
      </trkpt>
      <trkpt lat="44.31323" lon="3.65872">
        <ele>836.8</ele>
        <time>2021-08-11T09:23:12Z</time>
      </trkpt>
      <trkpt lat="44.31316" lon="3.6586">
        <ele>836.9</ele>
        <time>2021-08-11T09:23:14Z</time>
      </trkpt>
      <trkpt lat="44.31309" lon="3.65846">
        <ele>837.1</ele>
        <time>2021-08-11T09:23:16Z</time>
      </trkpt>
      <trkpt lat="44.31301" lon="3.65837">
        <ele>836</ele>
        <time>2021-08-11T09:23:18Z</time>
      </trkpt>
      <trkpt lat="44.31294" lon="3.65828">
        <ele>833.9</ele>
        <time>2021-08-11T09:23:20Z</time>
      </trkpt>
      <trkpt lat="44.31287" lon="3.65818">
        <ele>831.1</ele>
        <time>2021-08-11T09:23:22Z</time>
      </trkpt>
      <trkpt lat="44.31283" lon="3.65806">
        <ele>829.5</ele>
        <time>2021-08-11T09:23:24Z</time>
      </trkpt>
      <trkpt lat="44.31283" lon="3.65793">
        <ele>829.1</ele>
        <time>2021-08-11T09:23:26Z</time>
      </trkpt>
      <trkpt lat="44.31284" lon="3.65782">
        <ele>829.3</ele>
        <time>2021-08-11T09:23:28Z</time>
      </trkpt>
      <trkpt lat="44.31284" lon="3.65773">
        <ele>829.3</ele>
        <time>2021-08-11T09:23:30Z</time>
      </trkpt>
      <trkpt lat="44.31286" lon="3.65764">
        <ele>830</ele>
        <time>2021-08-11T09:23:32Z</time>
      </trkpt>
      <trkpt lat="44.31286" lon="3.65752">
        <ele>830.1</ele>
        <time>2021-08-11T09:23:34Z</time>
      </trkpt>
      <trkpt lat="44.31287" lon="3.65742">
        <ele>829.4</ele>
        <time>2021-08-11T09:23:36Z</time>
      </trkpt>
      <trkpt lat="44.31288" lon="3.65731">
        <ele>827.9</ele>
        <time>2021-08-11T09:23:38Z</time>
      </trkpt>
      <trkpt lat="44.31289" lon="3.65719">
        <ele>826.7</ele>
        <time>2021-08-11T09:23:40Z</time>
      </trkpt>
      <trkpt lat="44.31292" lon="3.65707">
        <ele>826.3</ele>
        <time>2021-08-11T09:23:42Z</time>
      </trkpt>
      <trkpt lat="44.31297" lon="3.65696">
        <ele>827</ele>
        <time>2021-08-11T09:23:44Z</time>
      </trkpt>
      <trkpt lat="44.31303" lon="3.65686">
        <ele>827.8</ele>
        <time>2021-08-11T09:23:46Z</time>
      </trkpt>
      <trkpt lat="44.31309" lon="3.65674">
        <ele>828.5</ele>
        <time>2021-08-11T09:23:48Z</time>
      </trkpt>
      <trkpt lat="44.31314" lon="3.65663">
        <ele>829.1</ele>
        <time>2021-08-11T09:23:50Z</time>
      </trkpt>
      <trkpt lat="44.3132" lon="3.65653">
        <ele>829.6</ele>
        <time>2021-08-11T09:23:52Z</time>
      </trkpt>
      <trkpt lat="44.31326" lon="3.65643">
        <ele>830.3</ele>
        <time>2021-08-11T09:23:54Z</time>
      </trkpt>
      <trkpt lat="44.31329" lon="3.65633">
        <ele>829.7</ele>
        <time>2021-08-11T09:23:56Z</time>
      </trkpt>
      <trkpt lat="44.31328" lon="3.65624">
        <ele>827.4</ele>
        <time>2021-08-11T09:23:58Z</time>
      </trkpt>
      <trkpt lat="44.31323" lon="3.65618">
        <ele>824.4</ele>
        <time>2021-08-11T09:24:00Z</time>
      </trkpt>
      <trkpt lat="44.31318" lon="3.65617">
        <ele>821.8</ele>
        <time>2021-08-11T09:24:02Z</time>
      </trkpt>
      <trkpt lat="44.31312" lon="3.65621">
        <ele>820.2</ele>
        <time>2021-08-11T09:24:04Z</time>
      </trkpt>
      <trkpt lat="44.31308" lon="3.65629">
        <ele>820.1</ele>
        <time>2021-08-11T09:24:06Z</time>
      </trkpt>
      <trkpt lat="44.31305" lon="3.6564">
        <ele>820.7</ele>
        <time>2021-08-11T09:24:08Z</time>
      </trkpt>
      <trkpt lat="44.31301" lon="3.6565">
        <ele>820.9</ele>
        <time>2021-08-11T09:24:10Z</time>
      </trkpt>
      <trkpt lat="44.31296" lon="3.65662">
        <ele>821.1</ele>
        <time>2021-08-11T09:24:12Z</time>
      </trkpt>
      <trkpt lat="44.31291" lon="3.65674">
        <ele>821</ele>
        <time>2021-08-11T09:24:14Z</time>
      </trkpt>
      <trkpt lat="44.31286" lon="3.65684">
        <ele>820</ele>
        <time>2021-08-11T09:24:16Z</time>
      </trkpt>
      <trkpt lat="44.31279" lon="3.65696">
        <ele>819</ele>
        <time>2021-08-11T09:24:18Z</time>
      </trkpt>
      <trkpt lat="44.31271" lon="3.6571">
        <ele>817.4</ele>
        <time>2021-08-11T09:24:20Z</time>
      </trkpt>
      <trkpt lat="44.31261" lon="3.65723">
        <ele>815</ele>
        <time>2021-08-11T09:24:22Z</time>
      </trkpt>
      <trkpt lat="44.31254" lon="3.65735">
        <ele>813.6</ele>
        <time>2021-08-11T09:24:24Z</time>
      </trkpt>
      <trkpt lat="44.31247" lon="3.65748">
        <ele>812.1</ele>
        <time>2021-08-11T09:24:26Z</time>
      </trkpt>
      <trkpt lat="44.31239" lon="3.65762">
        <ele>809.6</ele>
        <time>2021-08-11T09:24:28Z</time>
      </trkpt>
      <trkpt lat="44.31233" lon="3.65776">
        <ele>807.4</ele>
        <time>2021-08-11T09:24:30Z</time>
      </trkpt>
      <trkpt lat="44.31228" lon="3.65792">
        <ele>805.7</ele>
        <time>2021-08-11T09:24:32Z</time>
      </trkpt>
      <trkpt lat="44.31224" lon="3.65809">
        <ele>805.1</ele>
        <time>2021-08-11T09:24:34Z</time>
      </trkpt>
      <trkpt lat="44.31223" lon="3.65825">
        <ele>805.2</ele>
        <time>2021-08-11T09:24:36Z</time>
      </trkpt>
      <trkpt lat="44.31225" lon="3.65841">
        <ele>805.3</ele>
        <time>2021-08-11T09:24:38Z</time>
      </trkpt>
      <trkpt lat="44.31231" lon="3.65858">
        <ele>805</ele>
        <time>2021-08-11T09:24:40Z</time>
      </trkpt>
      <trkpt lat="44.31241" lon="3.65873">
        <ele>806</ele>
        <time>2021-08-11T09:24:42Z</time>
      </trkpt>
      <trkpt lat="44.31251" lon="3.65892">
        <ele>806</ele>
        <time>2021-08-11T09:24:44Z</time>
      </trkpt>
      <trkpt lat="44.31257" lon="3.6591">
        <ele>804.9</ele>
        <time>2021-08-11T09:24:46Z</time>
      </trkpt>
      <trkpt lat="44.31264" lon="3.65927">
        <ele>803.8</ele>
        <time>2021-08-11T09:24:48Z</time>
      </trkpt>
      <trkpt lat="44.31272" lon="3.65943">
        <ele>803</ele>
        <time>2021-08-11T09:24:50Z</time>
      </trkpt>
      <trkpt lat="44.31281" lon="3.6596">
        <ele>802</ele>
        <time>2021-08-11T09:24:52Z</time>
      </trkpt>
      <trkpt lat="44.31289" lon="3.65975">
        <ele>801.1</ele>
        <time>2021-08-11T09:24:54Z</time>
      </trkpt>
      <trkpt lat="44.31297" lon="3.6599">
        <ele>800.3</ele>
        <time>2021-08-11T09:24:56Z</time>
      </trkpt>
      <trkpt lat="44.31305" lon="3.66005">
        <ele>799.4</ele>
        <time>2021-08-11T09:24:58Z</time>
      </trkpt>
      <trkpt lat="44.3131" lon="3.66023">
        <ele>798</ele>
        <time>2021-08-11T09:25:00Z</time>
      </trkpt>
      <trkpt lat="44.3131" lon="3.66043">
        <ele>794.5</ele>
        <time>2021-08-11T09:25:02Z</time>
      </trkpt>
      <trkpt lat="44.31314" lon="3.66062">
        <ele>792.9</ele>
        <time>2021-08-11T09:25:04Z</time>
      </trkpt>
      <trkpt lat="44.3132" lon="3.66081">
        <ele>791.8</ele>
        <time>2021-08-11T09:25:06Z</time>
      </trkpt>
      <trkpt lat="44.31326" lon="3.661">
        <ele>789.9</ele>
        <time>2021-08-11T09:25:08Z</time>
      </trkpt>
      <trkpt lat="44.31332" lon="3.66119">
        <ele>787.9</ele>
        <time>2021-08-11T09:25:10Z</time>
      </trkpt>
      <trkpt lat="44.31338" lon="3.66134">
        <ele>786</ele>
        <time>2021-08-11T09:25:12Z</time>
      </trkpt>
      <trkpt lat="44.31342" lon="3.66145">
        <ele>784.6</ele>
        <time>2021-08-11T09:25:14Z</time>
      </trkpt>
      <trkpt lat="44.31342" lon="3.66147">
        <ele>784.2</ele>
        <time>2021-08-11T09:25:16Z</time>
      </trkpt>
      <trkpt lat="44.31342" lon="3.66145">
        <ele>784.5</ele>
        <time>2021-08-11T09:25:18Z</time>
      </trkpt>
      <trkpt lat="44.31342" lon="3.66145">
        <ele>784.4</ele>
        <time>2021-08-11T09:25:20Z</time>
      </trkpt>
      <trkpt lat="44.31342" lon="3.66145">
        <ele>784.4</ele>
        <time>2021-08-11T09:25:22Z</time>
      </trkpt>
      <trkpt lat="44.31342" lon="3.66146">
        <ele>784.4</ele>
        <time>2021-08-11T09:25:24Z</time>
      </trkpt>
      <trkpt lat="44.31343" lon="3.66147">
        <ele>784.2</ele>
        <time>2021-08-11T09:25:26Z</time>
      </trkpt>
      <trkpt lat="44.31345" lon="3.6615">
        <ele>783.9</ele>
        <time>2021-08-11T09:25:28Z</time>
      </trkpt>
      <trkpt lat="44.31347" lon="3.66155">
        <ele>783.2</ele>
        <time>2021-08-11T09:25:30Z</time>
      </trkpt>
      <trkpt lat="44.31347" lon="3.66156">
        <ele>783.2</ele>
        <time>2021-08-11T09:25:32Z</time>
      </trkpt>
      <trkpt lat="44.31347" lon="3.66156">
        <ele>783.2</ele>
        <time>2021-08-11T09:25:34Z</time>
      </trkpt>
      <trkpt lat="44.31347" lon="3.66155">
        <ele>783.2</ele>
        <time>2021-08-11T09:25:36Z</time>
      </trkpt>
      <trkpt lat="44.31347" lon="3.66155">
        <ele>783.2</ele>
        <time>2021-08-11T09:25:38Z</time>
      </trkpt>
      <trkpt lat="44.31369" lon="3.66184">
        <ele>781.1</ele>
        <time>2021-08-11T09:37:18Z</time>
      </trkpt>
      <trkpt lat="44.31379" lon="3.66186">
        <ele>782.6</ele>
        <time>2021-08-11T09:37:20Z</time>
      </trkpt>
      <trkpt lat="44.3139" lon="3.66191">
        <ele>783.8</ele>
        <time>2021-08-11T09:37:22Z</time>
      </trkpt>
      <trkpt lat="44.314" lon="3.662">
        <ele>783.7</ele>
        <time>2021-08-11T09:37:24Z</time>
      </trkpt>
      <trkpt lat="44.31409" lon="3.66211">
        <ele>783</ele>
        <time>2021-08-11T09:37:26Z</time>
      </trkpt>
      <trkpt lat="44.31418" lon="3.66224">
        <ele>782.2</ele>
        <time>2021-08-11T09:37:28Z</time>
      </trkpt>
      <trkpt lat="44.31425" lon="3.66238">
        <ele>781</ele>
        <time>2021-08-11T09:37:30Z</time>
      </trkpt>
      <trkpt lat="44.3143" lon="3.66254">
        <ele>778.5</ele>
        <time>2021-08-11T09:37:32Z</time>
      </trkpt>
      <trkpt lat="44.31431" lon="3.66271">
        <ele>775.3</ele>
        <time>2021-08-11T09:37:34Z</time>
      </trkpt>
      <trkpt lat="44.31431" lon="3.66288">
        <ele>771.8</ele>
        <time>2021-08-11T09:37:36Z</time>
      </trkpt>
      <trkpt lat="44.31433" lon="3.66305">
        <ele>768.6</ele>
        <time>2021-08-11T09:37:38Z</time>
      </trkpt>
      <trkpt lat="44.3144" lon="3.66323">
        <ele>766.2</ele>
        <time>2021-08-11T09:37:40Z</time>
      </trkpt>
      <trkpt lat="44.31447" lon="3.66335">
        <ele>764.8</ele>
        <time>2021-08-11T09:37:42Z</time>
      </trkpt>
      <trkpt lat="44.31455" lon="3.66342">
        <ele>764.5</ele>
        <time>2021-08-11T09:37:44Z</time>
      </trkpt>
      <trkpt lat="44.31462" lon="3.66345">
        <ele>765</ele>
        <time>2021-08-11T09:37:46Z</time>
      </trkpt>
      <trkpt lat="44.31464" lon="3.66354">
        <ele>763.2</ele>
        <time>2021-08-11T09:37:48Z</time>
      </trkpt>
      <trkpt lat="44.31457" lon="3.66359">
        <ele>761</ele>
        <time>2021-08-11T09:37:50Z</time>
      </trkpt>
      <trkpt lat="44.31447" lon="3.66353">
        <ele>760.9</ele>
        <time>2021-08-11T09:37:52Z</time>
      </trkpt>
      <trkpt lat="44.31438" lon="3.66344">
        <ele>761.3</ele>
        <time>2021-08-11T09:37:54Z</time>
      </trkpt>
      <trkpt lat="44.31427" lon="3.66336">
        <ele>761.2</ele>
        <time>2021-08-11T09:37:56Z</time>
      </trkpt>
      <trkpt lat="44.31415" lon="3.66326">
        <ele>761.1</ele>
        <time>2021-08-11T09:37:58Z</time>
      </trkpt>
      <trkpt lat="44.31403" lon="3.66318">
        <ele>759.3</ele>
        <time>2021-08-11T09:38:00Z</time>
      </trkpt>
      <trkpt lat="44.31394" lon="3.66304">
        <ele>759.7</ele>
        <time>2021-08-11T09:38:02Z</time>
      </trkpt>
      <trkpt lat="44.31386" lon="3.66287">
        <ele>760.9</ele>
        <time>2021-08-11T09:38:04Z</time>
      </trkpt>
      <trkpt lat="44.31377" lon="3.66272">
        <ele>761.7</ele>
        <time>2021-08-11T09:38:06Z</time>
      </trkpt>
      <trkpt lat="44.31366" lon="3.66269">
        <ele>759.8</ele>
        <time>2021-08-11T09:38:08Z</time>
      </trkpt>
      <trkpt lat="44.31353" lon="3.66272">
        <ele>755.8</ele>
        <time>2021-08-11T09:38:10Z</time>
      </trkpt>
      <trkpt lat="44.31339" lon="3.6627">
        <ele>752.8</ele>
        <time>2021-08-11T09:38:12Z</time>
      </trkpt>
      <trkpt lat="44.31324" lon="3.66261">
        <ele>751.3</ele>
        <time>2021-08-11T09:38:14Z</time>
      </trkpt>
      <trkpt lat="44.3131" lon="3.66248">
        <ele>750.8</ele>
        <time>2021-08-11T09:38:16Z</time>
      </trkpt>
      <trkpt lat="44.31296" lon="3.66232">
        <ele>750.9</ele>
        <time>2021-08-11T09:38:18Z</time>
      </trkpt>
      <trkpt lat="44.31284" lon="3.66216">
        <ele>751.4</ele>
        <time>2021-08-11T09:38:20Z</time>
      </trkpt>
      <trkpt lat="44.3127" lon="3.66201">
        <ele>750.8</ele>
        <time>2021-08-11T09:38:22Z</time>
      </trkpt>
      <trkpt lat="44.31254" lon="3.66192">
        <ele>748.1</ele>
        <time>2021-08-11T09:38:24Z</time>
      </trkpt>
      <trkpt lat="44.3124" lon="3.66187">
        <ele>745.1</ele>
        <time>2021-08-11T09:38:26Z</time>
      </trkpt>
      <trkpt lat="44.31228" lon="3.66178">
        <ele>743.3</ele>
        <time>2021-08-11T09:38:28Z</time>
      </trkpt>
      <trkpt lat="44.31217" lon="3.66161">
        <ele>743.4</ele>
        <time>2021-08-11T09:38:30Z</time>
      </trkpt>
      <trkpt lat="44.31203" lon="3.66149">
        <ele>741.4</ele>
        <time>2021-08-11T09:38:32Z</time>
      </trkpt>
      <trkpt lat="44.31187" lon="3.66137">
        <ele>739</ele>
        <time>2021-08-11T09:38:34Z</time>
      </trkpt>
      <trkpt lat="44.31172" lon="3.66126">
        <ele>736.8</ele>
        <time>2021-08-11T09:38:36Z</time>
      </trkpt>
      <trkpt lat="44.31155" lon="3.66118">
        <ele>734.2</ele>
        <time>2021-08-11T09:38:38Z</time>
      </trkpt>
      <trkpt lat="44.31138" lon="3.66111">
        <ele>731.8</ele>
        <time>2021-08-11T09:38:40Z</time>
      </trkpt>
      <trkpt lat="44.3112" lon="3.66101">
        <ele>729.6</ele>
        <time>2021-08-11T09:38:42Z</time>
      </trkpt>
      <trkpt lat="44.31104" lon="3.66092">
        <ele>727.4</ele>
        <time>2021-08-11T09:38:44Z</time>
      </trkpt>
      <trkpt lat="44.3109" lon="3.66087">
        <ele>725</ele>
        <time>2021-08-11T09:38:46Z</time>
      </trkpt>
      <trkpt lat="44.31077" lon="3.66083">
        <ele>721.9</ele>
        <time>2021-08-11T09:38:48Z</time>
      </trkpt>
      <trkpt lat="44.3107" lon="3.66074">
        <ele>720.2</ele>
        <time>2021-08-11T09:38:50Z</time>
      </trkpt>
      <trkpt lat="44.31062" lon="3.6607">
        <ele>717.9</ele>
        <time>2021-08-11T09:38:52Z</time>
      </trkpt>
      <trkpt lat="44.31056" lon="3.66064">
        <ele>716.1</ele>
        <time>2021-08-11T09:38:54Z</time>
      </trkpt>
      <trkpt lat="44.31052" lon="3.66052">
        <ele>715.4</ele>
        <time>2021-08-11T09:38:56Z</time>
      </trkpt>
      <trkpt lat="44.31054" lon="3.66035">
        <ele>717.1</ele>
        <time>2021-08-11T09:38:58Z</time>
      </trkpt>
      <trkpt lat="44.31056" lon="3.66015">
        <ele>719</ele>
        <time>2021-08-11T09:39:00Z</time>
      </trkpt>
      <trkpt lat="44.31054" lon="3.65994">
        <ele>719.7</ele>
        <time>2021-08-11T09:39:02Z</time>
      </trkpt>
      <trkpt lat="44.31051" lon="3.65972">
        <ele>719.5</ele>
        <time>2021-08-11T09:39:04Z</time>
      </trkpt>
      <trkpt lat="44.31048" lon="3.6595">
        <ele>718.6</ele>
        <time>2021-08-11T09:39:06Z</time>
      </trkpt>
      <trkpt lat="44.31043" lon="3.65929">
        <ele>717.2</ele>
        <time>2021-08-11T09:39:08Z</time>
      </trkpt>
      <trkpt lat="44.31038" lon="3.65909">
        <ele>715.5</ele>
        <time>2021-08-11T09:39:10Z</time>
      </trkpt>
      <trkpt lat="44.31033" lon="3.6589">
        <ele>713.3</ele>
        <time>2021-08-11T09:39:12Z</time>
      </trkpt>
      <trkpt lat="44.31028" lon="3.65871">
        <ele>710.9</ele>
        <time>2021-08-11T09:39:14Z</time>
      </trkpt>
      <trkpt lat="44.31025" lon="3.65851">
        <ele>709.8</ele>
        <time>2021-08-11T09:39:16Z</time>
      </trkpt>
      <trkpt lat="44.31023" lon="3.6583">
        <ele>709</ele>
        <time>2021-08-11T09:39:18Z</time>
      </trkpt>
      <trkpt lat="44.31023" lon="3.65808">
        <ele>707</ele>
        <time>2021-08-11T09:39:20Z</time>
      </trkpt>
      <trkpt lat="44.31024" lon="3.65786">
        <ele>706</ele>
        <time>2021-08-11T09:39:22Z</time>
      </trkpt>
      <trkpt lat="44.31027" lon="3.65765">
        <ele>705.7</ele>
        <time>2021-08-11T09:39:24Z</time>
      </trkpt>
      <trkpt lat="44.31032" lon="3.65746">
        <ele>707.3</ele>
        <time>2021-08-11T09:39:26Z</time>
      </trkpt>
      <trkpt lat="44.31038" lon="3.65732">
        <ele>709.9</ele>
        <time>2021-08-11T09:39:28Z</time>
      </trkpt>
      <trkpt lat="44.31043" lon="3.6572">
        <ele>712</ele>
        <time>2021-08-11T09:39:30Z</time>
      </trkpt>
      <trkpt lat="44.31045" lon="3.6571">
        <ele>712.4</ele>
        <time>2021-08-11T09:39:32Z</time>
      </trkpt>
      <trkpt lat="44.31042" lon="3.65704">
        <ele>711</ele>
        <time>2021-08-11T09:39:34Z</time>
      </trkpt>
      <trkpt lat="44.31037" lon="3.65701">
        <ele>709.1</ele>
        <time>2021-08-11T09:39:36Z</time>
      </trkpt>
      <trkpt lat="44.31034" lon="3.65702">
        <ele>707.9</ele>
        <time>2021-08-11T09:39:38Z</time>
      </trkpt>
      <trkpt lat="44.31031" lon="3.65706">
        <ele>706.8</ele>
        <time>2021-08-11T09:39:40Z</time>
      </trkpt>
      <trkpt lat="44.31028" lon="3.65714">
        <ele>705.6</ele>
        <time>2021-08-11T09:39:42Z</time>
      </trkpt>
      <trkpt lat="44.31025" lon="3.65726">
        <ele>703.9</ele>
        <time>2021-08-11T09:39:44Z</time>
      </trkpt>
      <trkpt lat="44.31021" lon="3.65739">
        <ele>702</ele>
        <time>2021-08-11T09:39:46Z</time>
      </trkpt>
      <trkpt lat="44.31016" lon="3.65753">
        <ele>699.3</ele>
        <time>2021-08-11T09:39:48Z</time>
      </trkpt>
      <trkpt lat="44.31009" lon="3.65765">
        <ele>696.8</ele>
        <time>2021-08-11T09:39:50Z</time>
      </trkpt>
      <trkpt lat="44.31003" lon="3.65778">
        <ele>694.6</ele>
        <time>2021-08-11T09:39:52Z</time>
      </trkpt>
      <trkpt lat="44.30997" lon="3.65794">
        <ele>693</ele>
        <time>2021-08-11T09:39:54Z</time>
      </trkpt>
      <trkpt lat="44.30993" lon="3.65812">
        <ele>692.2</ele>
        <time>2021-08-11T09:39:56Z</time>
      </trkpt>
      <trkpt lat="44.30992" lon="3.65833">
        <ele>693.2</ele>
        <time>2021-08-11T09:39:58Z</time>
      </trkpt>
      <trkpt lat="44.30991" lon="3.65855">
        <ele>692.2</ele>
        <time>2021-08-11T09:40:00Z</time>
      </trkpt>
      <trkpt lat="44.3099" lon="3.65874">
        <ele>691.4</ele>
        <time>2021-08-11T09:40:02Z</time>
      </trkpt>
      <trkpt lat="44.3099" lon="3.65895">
        <ele>690.8</ele>
        <time>2021-08-11T09:40:04Z</time>
      </trkpt>
      <trkpt lat="44.3099" lon="3.65917">
        <ele>690.1</ele>
        <time>2021-08-11T09:40:06Z</time>
      </trkpt>
      <trkpt lat="44.30989" lon="3.65939">
        <ele>689.8</ele>
        <time>2021-08-11T09:40:08Z</time>
      </trkpt>
      <trkpt lat="44.30987" lon="3.6596">
        <ele>688.8</ele>
        <time>2021-08-11T09:40:10Z</time>
      </trkpt>
      <trkpt lat="44.30984" lon="3.65982">
        <ele>687.3</ele>
        <time>2021-08-11T09:40:12Z</time>
      </trkpt>
      <trkpt lat="44.30978" lon="3.66004">
        <ele>684.7</ele>
        <time>2021-08-11T09:40:14Z</time>
      </trkpt>
      <trkpt lat="44.30971" lon="3.66026">
        <ele>682.5</ele>
        <time>2021-08-11T09:40:16Z</time>
      </trkpt>
      <trkpt lat="44.30965" lon="3.66047">
        <ele>680.4</ele>
        <time>2021-08-11T09:40:18Z</time>
      </trkpt>
      <trkpt lat="44.30957" lon="3.66069">
        <ele>677.9</ele>
        <time>2021-08-11T09:40:20Z</time>
      </trkpt>
      <trkpt lat="44.30948" lon="3.66088">
        <ele>674.6</ele>
        <time>2021-08-11T09:40:22Z</time>
      </trkpt>
      <trkpt lat="44.3094" lon="3.66104">
        <ele>670.1</ele>
        <time>2021-08-11T09:40:24Z</time>
      </trkpt>
      <trkpt lat="44.30933" lon="3.66119">
        <ele>666.1</ele>
        <time>2021-08-11T09:40:26Z</time>
      </trkpt>
      <trkpt lat="44.30929" lon="3.66133">
        <ele>663.5</ele>
        <time>2021-08-11T09:40:28Z</time>
      </trkpt>
      <trkpt lat="44.30931" lon="3.6615">
        <ele>663.3</ele>
        <time>2021-08-11T09:40:30Z</time>
      </trkpt>
      <trkpt lat="44.30938" lon="3.66167">
        <ele>665.1</ele>
        <time>2021-08-11T09:40:32Z</time>
      </trkpt>
      <trkpt lat="44.30947" lon="3.66184">
        <ele>665.8</ele>
        <time>2021-08-11T09:40:34Z</time>
      </trkpt>
      <trkpt lat="44.30956" lon="3.66202">
        <ele>666.5</ele>
        <time>2021-08-11T09:40:36Z</time>
      </trkpt>
      <trkpt lat="44.30965" lon="3.6622">
        <ele>667.2</ele>
        <time>2021-08-11T09:40:38Z</time>
      </trkpt>
      <trkpt lat="44.30972" lon="3.66237">
        <ele>667.4</ele>
        <time>2021-08-11T09:40:40Z</time>
      </trkpt>
      <trkpt lat="44.30978" lon="3.66258">
        <ele>666.4</ele>
        <time>2021-08-11T09:40:42Z</time>
      </trkpt>
      <trkpt lat="44.30982" lon="3.66277">
        <ele>665</ele>
        <time>2021-08-11T09:40:44Z</time>
      </trkpt>
      <trkpt lat="44.30988" lon="3.66293">
        <ele>664.2</ele>
        <time>2021-08-11T09:40:46Z</time>
      </trkpt>
      <trkpt lat="44.30995" lon="3.66305">
        <ele>664.9</ele>
        <time>2021-08-11T09:40:48Z</time>
      </trkpt>
      <trkpt lat="44.31" lon="3.66314">
        <ele>664.6</ele>
        <time>2021-08-11T09:40:50Z</time>
      </trkpt>
      <trkpt lat="44.30997" lon="3.66323">
        <ele>661.9</ele>
        <time>2021-08-11T09:40:52Z</time>
      </trkpt>
      <trkpt lat="44.30987" lon="3.66322">
        <ele>659</ele>
        <time>2021-08-11T09:40:54Z</time>
      </trkpt>
      <trkpt lat="44.30979" lon="3.66311">
        <ele>658.3</ele>
        <time>2021-08-11T09:40:56Z</time>
      </trkpt>
      <trkpt lat="44.30971" lon="3.663">
        <ele>657.1</ele>
        <time>2021-08-11T09:40:58Z</time>
      </trkpt>
      <trkpt lat="44.30962" lon="3.66288">
        <ele>655.6</ele>
        <time>2021-08-11T09:41:00Z</time>
      </trkpt>
      <trkpt lat="44.30956" lon="3.66271">
        <ele>655.5</ele>
        <time>2021-08-11T09:41:02Z</time>
      </trkpt>
      <trkpt lat="44.30953" lon="3.6625">
        <ele>656.8</ele>
        <time>2021-08-11T09:41:04Z</time>
      </trkpt>
      <trkpt lat="44.30947" lon="3.66231">
        <ele>657.6</ele>
        <time>2021-08-11T09:41:06Z</time>
      </trkpt>
      <trkpt lat="44.30937" lon="3.66215">
        <ele>656.3</ele>
        <time>2021-08-11T09:41:08Z</time>
      </trkpt>
      <trkpt lat="44.30928" lon="3.662">
        <ele>655</ele>
        <time>2021-08-11T09:41:10Z</time>
      </trkpt>
      <trkpt lat="44.30919" lon="3.66187">
        <ele>653.4</ele>
        <time>2021-08-11T09:41:12Z</time>
      </trkpt>
      <trkpt lat="44.30909" lon="3.66178">
        <ele>651.2</ele>
        <time>2021-08-11T09:41:14Z</time>
      </trkpt>
      <trkpt lat="44.30897" lon="3.66173">
        <ele>647.8</ele>
        <time>2021-08-11T09:41:16Z</time>
      </trkpt>
      <trkpt lat="44.30884" lon="3.66168">
        <ele>644</ele>
        <time>2021-08-11T09:41:18Z</time>
      </trkpt>
      <trkpt lat="44.30875" lon="3.66157">
        <ele>641.7</ele>
        <time>2021-08-11T09:41:20Z</time>
      </trkpt>
      <trkpt lat="44.30873" lon="3.66138">
        <ele>642.3</ele>
        <time>2021-08-11T09:41:22Z</time>
      </trkpt>
      <trkpt lat="44.30876" lon="3.6612">
        <ele>644.4</ele>
        <time>2021-08-11T09:41:24Z</time>
      </trkpt>
      <trkpt lat="44.30878" lon="3.66107">
        <ele>646.1</ele>
        <time>2021-08-11T09:41:26Z</time>
      </trkpt>
      <trkpt lat="44.30879" lon="3.66096">
        <ele>647</ele>
        <time>2021-08-11T09:41:28Z</time>
      </trkpt>
      <trkpt lat="44.30872" lon="3.66091">
        <ele>644.7</ele>
        <time>2021-08-11T09:41:30Z</time>
      </trkpt>
      <trkpt lat="44.30864" lon="3.66104">
        <ele>641</ele>
        <time>2021-08-11T09:41:32Z</time>
      </trkpt>
      <trkpt lat="44.30861" lon="3.66119">
        <ele>639.2</ele>
        <time>2021-08-11T09:41:34Z</time>
      </trkpt>
      <trkpt lat="44.30859" lon="3.66134">
        <ele>637.2</ele>
        <time>2021-08-11T09:41:36Z</time>
      </trkpt>
      <trkpt lat="44.30857" lon="3.66148">
        <ele>635.6</ele>
        <time>2021-08-11T09:41:38Z</time>
      </trkpt>
      <trkpt lat="44.30856" lon="3.66161">
        <ele>634.6</ele>
        <time>2021-08-11T09:41:40Z</time>
      </trkpt>
      <trkpt lat="44.30861" lon="3.66173">
        <ele>635.4</ele>
        <time>2021-08-11T09:41:42Z</time>
      </trkpt>
      <trkpt lat="44.30867" lon="3.66182">
        <ele>636.9</ele>
        <time>2021-08-11T09:41:44Z</time>
      </trkpt>
      <trkpt lat="44.30876" lon="3.66189">
        <ele>639.1</ele>
        <time>2021-08-11T09:41:46Z</time>
      </trkpt>
      <trkpt lat="44.30886" lon="3.66196">
        <ele>641.6</ele>
        <time>2021-08-11T09:41:48Z</time>
      </trkpt>
      <trkpt lat="44.30897" lon="3.66204">
        <ele>643.8</ele>
        <time>2021-08-11T09:41:50Z</time>
      </trkpt>
      <trkpt lat="44.30906" lon="3.66212">
        <ele>645.1</ele>
        <time>2021-08-11T09:41:52Z</time>
      </trkpt>
      <trkpt lat="44.30912" lon="3.66226">
        <ele>644.2</ele>
        <time>2021-08-11T09:41:54Z</time>
      </trkpt>
      <trkpt lat="44.30916" lon="3.66242">
        <ele>642.2</ele>
        <time>2021-08-11T09:41:56Z</time>
      </trkpt>
      <trkpt lat="44.30916" lon="3.66259">
        <ele>640.4</ele>
        <time>2021-08-11T09:41:58Z</time>
      </trkpt>
      <trkpt lat="44.30916" lon="3.66276">
        <ele>639.4</ele>
        <time>2021-08-11T09:42:00Z</time>
      </trkpt>
      <trkpt lat="44.30917" lon="3.66294">
        <ele>638.5</ele>
        <time>2021-08-11T09:42:02Z</time>
      </trkpt>
      <trkpt lat="44.3092" lon="3.66311">
        <ele>638.4</ele>
        <time>2021-08-11T09:42:04Z</time>
      </trkpt>
      <trkpt lat="44.30927" lon="3.66326">
        <ele>639.6</ele>
        <time>2021-08-11T09:42:06Z</time>
      </trkpt>
      <trkpt lat="44.3093" lon="3.6634">
        <ele>640.4</ele>
        <time>2021-08-11T09:42:08Z</time>
      </trkpt>
      <trkpt lat="44.30929" lon="3.66354">
        <ele>640.6</ele>
        <time>2021-08-11T09:42:10Z</time>
      </trkpt>
      <trkpt lat="44.30921" lon="3.66364">
        <ele>639.7</ele>
        <time>2021-08-11T09:42:12Z</time>
      </trkpt>
      <trkpt lat="44.30914" lon="3.66369">
        <ele>640.1</ele>
        <time>2021-08-11T09:42:14Z</time>
      </trkpt>
      <trkpt lat="44.30908" lon="3.66366">
        <ele>641.1</ele>
        <time>2021-08-11T09:42:16Z</time>
      </trkpt>
      <trkpt lat="44.30901" lon="3.66356">
        <ele>641.4</ele>
        <time>2021-08-11T09:42:18Z</time>
      </trkpt>
      <trkpt lat="44.30895" lon="3.66347">
        <ele>641.1</ele>
        <time>2021-08-11T09:42:20Z</time>
      </trkpt>
      <trkpt lat="44.30892" lon="3.66336">
        <ele>640.1</ele>
        <time>2021-08-11T09:42:22Z</time>
      </trkpt>
      <trkpt lat="44.30888" lon="3.66324">
        <ele>639.6</ele>
        <time>2021-08-11T09:42:24Z</time>
      </trkpt>
      <trkpt lat="44.30885" lon="3.66312">
        <ele>639.1</ele>
        <time>2021-08-11T09:42:26Z</time>
      </trkpt>
      <trkpt lat="44.30881" lon="3.66299">
        <ele>638.2</ele>
        <time>2021-08-11T09:42:28Z</time>
      </trkpt>
      <trkpt lat="44.30876" lon="3.66287">
        <ele>637</ele>
        <time>2021-08-11T09:42:30Z</time>
      </trkpt>
      <trkpt lat="44.3087" lon="3.66278">
        <ele>635.6</ele>
        <time>2021-08-11T09:42:32Z</time>
      </trkpt>
      <trkpt lat="44.30861" lon="3.6627">
        <ele>633.6</ele>
        <time>2021-08-11T09:42:34Z</time>
      </trkpt>
      <trkpt lat="44.3085" lon="3.66266">
        <ele>631.7</ele>
        <time>2021-08-11T09:42:36Z</time>
      </trkpt>
      <trkpt lat="44.3084" lon="3.66265">
        <ele>630</ele>
        <time>2021-08-11T09:42:38Z</time>
      </trkpt>
      <trkpt lat="44.30829" lon="3.66268">
        <ele>630.4</ele>
        <time>2021-08-11T09:42:40Z</time>
      </trkpt>
      <trkpt lat="44.3082" lon="3.6627">
        <ele>632.1</ele>
        <time>2021-08-11T09:42:42Z</time>
      </trkpt>
      <trkpt lat="44.3081" lon="3.66273">
        <ele>634</ele>
        <time>2021-08-11T09:42:44Z</time>
      </trkpt>
      <trkpt lat="44.308" lon="3.66274">
        <ele>635.4</ele>
        <time>2021-08-11T09:42:46Z</time>
      </trkpt>
      <trkpt lat="44.3079" lon="3.66271">
        <ele>635.8</ele>
        <time>2021-08-11T09:42:48Z</time>
      </trkpt>
      <trkpt lat="44.30783" lon="3.66269">
        <ele>635.8</ele>
        <time>2021-08-11T09:42:50Z</time>
      </trkpt>
      <trkpt lat="44.30773" lon="3.66265">
        <ele>635.8</ele>
        <time>2021-08-11T09:42:52Z</time>
      </trkpt>
      <trkpt lat="44.30764" lon="3.66262">
        <ele>635.5</ele>
        <time>2021-08-11T09:42:54Z</time>
      </trkpt>
      <trkpt lat="44.30756" lon="3.66257">
        <ele>635</ele>
        <time>2021-08-11T09:42:56Z</time>
      </trkpt>
      <trkpt lat="44.30749" lon="3.6625">
        <ele>633.6</ele>
        <time>2021-08-11T09:42:58Z</time>
      </trkpt>
      <trkpt lat="44.30743" lon="3.66242">
        <ele>633.9</ele>
        <time>2021-08-11T09:43:00Z</time>
      </trkpt>
      <trkpt lat="44.30739" lon="3.66229">
        <ele>632.9</ele>
        <time>2021-08-11T09:43:02Z</time>
      </trkpt>
      <trkpt lat="44.30736" lon="3.66217">
        <ele>631.8</ele>
        <time>2021-08-11T09:43:04Z</time>
      </trkpt>
      <trkpt lat="44.30728" lon="3.66202">
        <ele>631</ele>
        <time>2021-08-11T09:43:06Z</time>
      </trkpt>
      <trkpt lat="44.30722" lon="3.66192">
        <ele>630.6</ele>
        <time>2021-08-11T09:43:08Z</time>
      </trkpt>
      <trkpt lat="44.30718" lon="3.66183">
        <ele>630</ele>
        <time>2021-08-11T09:43:10Z</time>
      </trkpt>
      <trkpt lat="44.30712" lon="3.66173">
        <ele>629.3</ele>
        <time>2021-08-11T09:43:12Z</time>
      </trkpt>
      <trkpt lat="44.30707" lon="3.66164">
        <ele>629.1</ele>
        <time>2021-08-11T09:43:14Z</time>
      </trkpt>
      <trkpt lat="44.30702" lon="3.66156">
        <ele>629.3</ele>
        <time>2021-08-11T09:43:16Z</time>
      </trkpt>
      <trkpt lat="44.30697" lon="3.66149">
        <ele>629.7</ele>
        <time>2021-08-11T09:43:18Z</time>
      </trkpt>
      <trkpt lat="44.30693" lon="3.66139">
        <ele>629.3</ele>
        <time>2021-08-11T09:43:20Z</time>
      </trkpt>
      <trkpt lat="44.30689" lon="3.6613">
        <ele>629</ele>
        <time>2021-08-11T09:43:22Z</time>
      </trkpt>
      <trkpt lat="44.30686" lon="3.66122">
        <ele>628.8</ele>
        <time>2021-08-11T09:43:24Z</time>
      </trkpt>
      <trkpt lat="44.30682" lon="3.66114">
        <ele>628.6</ele>
        <time>2021-08-11T09:43:26Z</time>
      </trkpt>
      <trkpt lat="44.3068" lon="3.66108">
        <ele>628.1</ele>
        <time>2021-08-11T09:43:28Z</time>
      </trkpt>
      <trkpt lat="44.30676" lon="3.66104">
        <ele>628.2</ele>
        <time>2021-08-11T09:43:30Z</time>
      </trkpt>
      <trkpt lat="44.30673" lon="3.66099">
        <ele>628</ele>
        <time>2021-08-11T09:43:32Z</time>
      </trkpt>
      <trkpt lat="44.30674" lon="3.66097">
        <ele>627.6</ele>
        <time>2021-08-11T09:43:34Z</time>
      </trkpt>
      <trkpt lat="44.30674" lon="3.66096">
        <ele>627.6</ele>
        <time>2021-08-11T09:43:36Z</time>
      </trkpt>
      <trkpt lat="44.30674" lon="3.66096">
        <ele>627.5</ele>
        <time>2021-08-11T09:43:38Z</time>
      </trkpt>
      <trkpt lat="44.30673" lon="3.66095">
        <ele>627.5</ele>
        <time>2021-08-11T09:43:40Z</time>
      </trkpt>
      <trkpt lat="44.30673" lon="3.66095">
        <ele>627.6</ele>
        <time>2021-08-11T09:43:42Z</time>
      </trkpt>
      <trkpt lat="44.3067" lon="3.66072">
        <ele>625.7</ele>
        <time>2021-08-11T09:44:58Z</time>
      </trkpt>
      <trkpt lat="44.30667" lon="3.66063">
        <ele>625.4</ele>
        <time>2021-08-11T09:45:00Z</time>
      </trkpt>
      <trkpt lat="44.30666" lon="3.66052">
        <ele>624.9</ele>
        <time>2021-08-11T09:45:02Z</time>
      </trkpt>
      <trkpt lat="44.30663" lon="3.66042">
        <ele>624.4</ele>
        <time>2021-08-11T09:45:04Z</time>
      </trkpt>
      <trkpt lat="44.3066" lon="3.66035">
        <ele>624.2</ele>
        <time>2021-08-11T09:45:06Z</time>
      </trkpt>
      <trkpt lat="44.30657" lon="3.66027">
        <ele>623.8</ele>
        <time>2021-08-11T09:45:08Z</time>
      </trkpt>
      <trkpt lat="44.30651" lon="3.66019">
        <ele>623.5</ele>
        <time>2021-08-11T09:45:10Z</time>
      </trkpt>
      <trkpt lat="44.30646" lon="3.66012">
        <ele>623.1</ele>
        <time>2021-08-11T09:45:12Z</time>
      </trkpt>
      <trkpt lat="44.30639" lon="3.66005">
        <ele>622.6</ele>
        <time>2021-08-11T09:45:14Z</time>
      </trkpt>
      <trkpt lat="44.30632" lon="3.65998">
        <ele>622</ele>
        <time>2021-08-11T09:45:16Z</time>
      </trkpt>
      <trkpt lat="44.30623" lon="3.65992">
        <ele>621.5</ele>
        <time>2021-08-11T09:45:18Z</time>
      </trkpt>
      <trkpt lat="44.30614" lon="3.65988">
        <ele>621.1</ele>
        <time>2021-08-11T09:45:20Z</time>
      </trkpt>
      <trkpt lat="44.30604" lon="3.65983">
        <ele>620.8</ele>
        <time>2021-08-11T09:45:22Z</time>
      </trkpt>
      <trkpt lat="44.30595" lon="3.65982">
        <ele>620.9</ele>
        <time>2021-08-11T09:45:24Z</time>
      </trkpt>
      <trkpt lat="44.30585" lon="3.65986">
        <ele>621.8</ele>
        <time>2021-08-11T09:45:26Z</time>
      </trkpt>
      <trkpt lat="44.30576" lon="3.65995">
        <ele>622.5</ele>
        <time>2021-08-11T09:45:28Z</time>
      </trkpt>
      <trkpt lat="44.30568" lon="3.66004">
        <ele>623</ele>
        <time>2021-08-11T09:45:30Z</time>
      </trkpt>
      <trkpt lat="44.30558" lon="3.66011">
        <ele>623.2</ele>
        <time>2021-08-11T09:45:32Z</time>
      </trkpt>
      <trkpt lat="44.30546" lon="3.66016">
        <ele>622.9</ele>
        <time>2021-08-11T09:45:34Z</time>
      </trkpt>
      <trkpt lat="44.30534" lon="3.66023">
        <ele>623</ele>
        <time>2021-08-11T09:45:36Z</time>
      </trkpt>
      <trkpt lat="44.30523" lon="3.66031">
        <ele>623.2</ele>
        <time>2021-08-11T09:45:38Z</time>
      </trkpt>
      <trkpt lat="44.30512" lon="3.66044">
        <ele>624.5</ele>
        <time>2021-08-11T09:45:40Z</time>
      </trkpt>
      <trkpt lat="44.30502" lon="3.6606">
        <ele>626.6</ele>
        <time>2021-08-11T09:45:42Z</time>
      </trkpt>
      <trkpt lat="44.3049" lon="3.66074">
        <ele>627.4</ele>
        <time>2021-08-11T09:45:44Z</time>
      </trkpt>
      <trkpt lat="44.30478" lon="3.66088">
        <ele>627.4</ele>
        <time>2021-08-11T09:45:46Z</time>
      </trkpt>
      <trkpt lat="44.30467" lon="3.66105">
        <ele>628.2</ele>
        <time>2021-08-11T09:45:48Z</time>
      </trkpt>
      <trkpt lat="44.30457" lon="3.66121">
        <ele>628.3</ele>
        <time>2021-08-11T09:45:50Z</time>
      </trkpt>
      <trkpt lat="44.30448" lon="3.66134">
        <ele>627.8</ele>
        <time>2021-08-11T09:45:52Z</time>
      </trkpt>
      <trkpt lat="44.30441" lon="3.66146">
        <ele>627</ele>
        <time>2021-08-11T09:45:54Z</time>
      </trkpt>
      <trkpt lat="44.30434" lon="3.66157">
        <ele>625.9</ele>
        <time>2021-08-11T09:45:56Z</time>
      </trkpt>
      <trkpt lat="44.30427" lon="3.66167">
        <ele>624.5</ele>
        <time>2021-08-11T09:45:58Z</time>
      </trkpt>
      <trkpt lat="44.30421" lon="3.66176">
        <ele>624.3</ele>
        <time>2021-08-11T09:46:00Z</time>
      </trkpt>
      <trkpt lat="44.30416" lon="3.66184">
        <ele>624.8</ele>
        <time>2021-08-11T09:46:02Z</time>
      </trkpt>
      <trkpt lat="44.30411" lon="3.66191">
        <ele>626</ele>
        <time>2021-08-11T09:46:04Z</time>
      </trkpt>
      <trkpt lat="44.30406" lon="3.66197">
        <ele>626.8</ele>
        <time>2021-08-11T09:46:06Z</time>
      </trkpt>
      <trkpt lat="44.30401" lon="3.66203">
        <ele>627</ele>
        <time>2021-08-11T09:46:08Z</time>
      </trkpt>
      <trkpt lat="44.30396" lon="3.66208">
        <ele>627</ele>
        <time>2021-08-11T09:46:10Z</time>
      </trkpt>
      <trkpt lat="44.30391" lon="3.66214">
        <ele>627.1</ele>
        <time>2021-08-11T09:46:12Z</time>
      </trkpt>
      <trkpt lat="44.30387" lon="3.6622">
        <ele>627</ele>
        <time>2021-08-11T09:46:14Z</time>
      </trkpt>
      <trkpt lat="44.30383" lon="3.66226">
        <ele>626.9</ele>
        <time>2021-08-11T09:46:16Z</time>
      </trkpt>
      <trkpt lat="44.30379" lon="3.66232">
        <ele>626.9</ele>
        <time>2021-08-11T09:46:18Z</time>
      </trkpt>
      <trkpt lat="44.30376" lon="3.66238">
        <ele>626.7</ele>
        <time>2021-08-11T09:46:20Z</time>
      </trkpt>
      <trkpt lat="44.30373" lon="3.66243">
        <ele>626.4</ele>
        <time>2021-08-11T09:46:22Z</time>
      </trkpt>
      <trkpt lat="44.3037" lon="3.66249">
        <ele>625.8</ele>
        <time>2021-08-11T09:46:24Z</time>
      </trkpt>
      <trkpt lat="44.30366" lon="3.66254">
        <ele>625.7</ele>
        <time>2021-08-11T09:46:26Z</time>
      </trkpt>
      <trkpt lat="44.30364" lon="3.6626">
        <ele>625.9</ele>
        <time>2021-08-11T09:46:28Z</time>
      </trkpt>
      <trkpt lat="44.3036" lon="3.66265">
        <ele>625.7</ele>
        <time>2021-08-11T09:46:30Z</time>
      </trkpt>
      <trkpt lat="44.30358" lon="3.6627">
        <ele>625.8</ele>
        <time>2021-08-11T09:46:32Z</time>
      </trkpt>
      <trkpt lat="44.30356" lon="3.66275">
        <ele>625.8</ele>
        <time>2021-08-11T09:46:34Z</time>
      </trkpt>
      <trkpt lat="44.30353" lon="3.6628">
        <ele>625.8</ele>
        <time>2021-08-11T09:46:36Z</time>
      </trkpt>
      <trkpt lat="44.30351" lon="3.66285">
        <ele>625.7</ele>
        <time>2021-08-11T09:46:38Z</time>
      </trkpt>
      <trkpt lat="44.30348" lon="3.6629">
        <ele>625.6</ele>
        <time>2021-08-11T09:46:40Z</time>
      </trkpt>
      <trkpt lat="44.30347" lon="3.66294">
        <ele>625.6</ele>
        <time>2021-08-11T09:46:42Z</time>
      </trkpt>
      <trkpt lat="44.30345" lon="3.66299">
        <ele>625.7</ele>
        <time>2021-08-11T09:46:44Z</time>
      </trkpt>
      <trkpt lat="44.30344" lon="3.66304">
        <ele>626</ele>
        <time>2021-08-11T09:46:46Z</time>
      </trkpt>
      <trkpt lat="44.30343" lon="3.66309">
        <ele>626.6</ele>
        <time>2021-08-11T09:46:48Z</time>
      </trkpt>
      <trkpt lat="44.30341" lon="3.66314">
        <ele>626.7</ele>
        <time>2021-08-11T09:46:50Z</time>
      </trkpt>
      <trkpt lat="44.3034" lon="3.66318">
        <ele>626.9</ele>
        <time>2021-08-11T09:46:52Z</time>
      </trkpt>
      <trkpt lat="44.30339" lon="3.66323">
        <ele>627.2</ele>
        <time>2021-08-11T09:46:54Z</time>
      </trkpt>
      <trkpt lat="44.30337" lon="3.66328">
        <ele>626.9</ele>
        <time>2021-08-11T09:46:56Z</time>
      </trkpt>
      <trkpt lat="44.30334" lon="3.66334">
        <ele>626.7</ele>
        <time>2021-08-11T09:46:58Z</time>
      </trkpt>
      <trkpt lat="44.30332" lon="3.66339">
        <ele>628.2</ele>
        <time>2021-08-11T09:47:00Z</time>
      </trkpt>
      <trkpt lat="44.3033" lon="3.66345">
        <ele>630</ele>
        <time>2021-08-11T09:47:02Z</time>
      </trkpt>
      <trkpt lat="44.30328" lon="3.66352">
        <ele>632</ele>
        <time>2021-08-11T09:47:04Z</time>
      </trkpt>
      <trkpt lat="44.30326" lon="3.66359">
        <ele>634</ele>
        <time>2021-08-11T09:47:06Z</time>
      </trkpt>
      <trkpt lat="44.30321" lon="3.66366">
        <ele>635.4</ele>
        <time>2021-08-11T09:47:08Z</time>
      </trkpt>
      <trkpt lat="44.30315" lon="3.66375">
        <ele>636.5</ele>
        <time>2021-08-11T09:47:10Z</time>
      </trkpt>
      <trkpt lat="44.30307" lon="3.66385">
        <ele>637.1</ele>
        <time>2021-08-11T09:47:12Z</time>
      </trkpt>
      <trkpt lat="44.303" lon="3.66394">
        <ele>637.1</ele>
        <time>2021-08-11T09:47:14Z</time>
      </trkpt>
      <trkpt lat="44.30293" lon="3.66401">
        <ele>636.5</ele>
        <time>2021-08-11T09:47:16Z</time>
      </trkpt>
      <trkpt lat="44.30287" lon="3.66409">
        <ele>636.1</ele>
        <time>2021-08-11T09:47:18Z</time>
      </trkpt>
      <trkpt lat="44.30283" lon="3.66415">
        <ele>635.4</ele>
        <time>2021-08-11T09:47:20Z</time>
      </trkpt>
      <trkpt lat="44.30279" lon="3.66419">
        <ele>635.2</ele>
        <time>2021-08-11T09:47:22Z</time>
      </trkpt>
      <trkpt lat="44.30275" lon="3.66423">
        <ele>635.7</ele>
        <time>2021-08-11T09:47:24Z</time>
      </trkpt>
      <trkpt lat="44.30271" lon="3.66427">
        <ele>635.4</ele>
        <time>2021-08-11T09:47:26Z</time>
      </trkpt>
      <trkpt lat="44.30267" lon="3.66431">
        <ele>635.4</ele>
        <time>2021-08-11T09:47:28Z</time>
      </trkpt>
      <trkpt lat="44.30263" lon="3.66434">
        <ele>635.4</ele>
        <time>2021-08-11T09:47:30Z</time>
      </trkpt>
      <trkpt lat="44.3026" lon="3.66437">
        <ele>635.1</ele>
        <time>2021-08-11T09:47:32Z</time>
      </trkpt>
      <trkpt lat="44.30256" lon="3.66439">
        <ele>634.3</ele>
        <time>2021-08-11T09:47:34Z</time>
      </trkpt>
      <trkpt lat="44.30251" lon="3.66441">
        <ele>633.4</ele>
        <time>2021-08-11T09:47:36Z</time>
      </trkpt>
      <trkpt lat="44.30248" lon="3.66444">
        <ele>633.6</ele>
        <time>2021-08-11T09:47:38Z</time>
      </trkpt>
      <trkpt lat="44.30245" lon="3.66447">
        <ele>634.5</ele>
        <time>2021-08-11T09:47:40Z</time>
      </trkpt>
      <trkpt lat="44.30241" lon="3.66452">
        <ele>635.6</ele>
        <time>2021-08-11T09:47:42Z</time>
      </trkpt>
      <trkpt lat="44.30237" lon="3.66456">
        <ele>636.8</ele>
        <time>2021-08-11T09:47:44Z</time>
      </trkpt>
      <trkpt lat="44.30232" lon="3.66461">
        <ele>637.5</ele>
        <time>2021-08-11T09:47:46Z</time>
      </trkpt>
      <trkpt lat="44.30225" lon="3.66464">
        <ele>637</ele>
        <time>2021-08-11T09:47:48Z</time>
      </trkpt>
      <trkpt lat="44.30218" lon="3.66468">
        <ele>636.6</ele>
        <time>2021-08-11T09:47:50Z</time>
      </trkpt>
      <trkpt lat="44.30211" lon="3.66471">
        <ele>635.7</ele>
        <time>2021-08-11T09:47:52Z</time>
      </trkpt>
      <trkpt lat="44.30204" lon="3.66473">
        <ele>634.5</ele>
        <time>2021-08-11T09:47:54Z</time>
      </trkpt>
      <trkpt lat="44.30197" lon="3.66476">
        <ele>633.3</ele>
        <time>2021-08-11T09:47:56Z</time>
      </trkpt>
      <trkpt lat="44.30188" lon="3.66476">
        <ele>630.6</ele>
        <time>2021-08-11T09:47:58Z</time>
      </trkpt>
      <trkpt lat="44.3018" lon="3.66472">
        <ele>626.7</ele>
        <time>2021-08-11T09:48:00Z</time>
      </trkpt>
      <trkpt lat="44.30173" lon="3.66466">
        <ele>623</ele>
        <time>2021-08-11T09:48:02Z</time>
      </trkpt>
      <trkpt lat="44.30166" lon="3.6646">
        <ele>619.6</ele>
        <time>2021-08-11T09:48:04Z</time>
      </trkpt>
      <trkpt lat="44.30158" lon="3.66455">
        <ele>619</ele>
        <time>2021-08-11T09:48:06Z</time>
      </trkpt>
      <trkpt lat="44.3015" lon="3.6645">
        <ele>618.7</ele>
        <time>2021-08-11T09:48:08Z</time>
      </trkpt>
      <trkpt lat="44.30142" lon="3.66446">
        <ele>618.3</ele>
        <time>2021-08-11T09:48:10Z</time>
      </trkpt>
      <trkpt lat="44.30135" lon="3.6644">
        <ele>617.5</ele>
        <time>2021-08-11T09:48:12Z</time>
      </trkpt>
      <trkpt lat="44.30129" lon="3.66433">
        <ele>616.5</ele>
        <time>2021-08-11T09:48:14Z</time>
      </trkpt>
      <trkpt lat="44.30122" lon="3.66426">
        <ele>615.4</ele>
        <time>2021-08-11T09:48:16Z</time>
      </trkpt>
      <trkpt lat="44.30117" lon="3.6642">
        <ele>614.5</ele>
        <time>2021-08-11T09:48:18Z</time>
      </trkpt>
      <trkpt lat="44.30113" lon="3.66415">
        <ele>614.1</ele>
        <time>2021-08-11T09:48:20Z</time>
      </trkpt>
      <trkpt lat="44.3011" lon="3.6641">
        <ele>614.2</ele>
        <time>2021-08-11T09:48:22Z</time>
      </trkpt>
      <trkpt lat="44.30108" lon="3.66405">
        <ele>614</ele>
        <time>2021-08-11T09:48:24Z</time>
      </trkpt>
      <trkpt lat="44.30108" lon="3.664">
        <ele>613.8</ele>
        <time>2021-08-11T09:48:26Z</time>
      </trkpt>
      <trkpt lat="44.30107" lon="3.66394">
        <ele>613.5</ele>
        <time>2021-08-11T09:48:28Z</time>
      </trkpt>
      <trkpt lat="44.30105" lon="3.6639">
        <ele>613.4</ele>
        <time>2021-08-11T09:48:30Z</time>
      </trkpt>
      <trkpt lat="44.30102" lon="3.6639">
        <ele>613.6</ele>
        <time>2021-08-11T09:48:32Z</time>
      </trkpt>
      <trkpt lat="44.30101" lon="3.66392">
        <ele>613.9</ele>
        <time>2021-08-11T09:48:34Z</time>
      </trkpt>
      <trkpt lat="44.30102" lon="3.66394">
        <ele>613.9</ele>
        <time>2021-08-11T09:48:36Z</time>
      </trkpt>
      <trkpt lat="44.30105" lon="3.66393">
        <ele>613.7</ele>
        <time>2021-08-11T09:48:38Z</time>
      </trkpt>
      <trkpt lat="44.30108" lon="3.66393">
        <ele>613.4</ele>
        <time>2021-08-11T09:48:40Z</time>
      </trkpt>
      <trkpt lat="44.30124" lon="3.66363">
        <ele>611.2</ele>
        <time>2021-08-11T09:49:56Z</time>
      </trkpt>
      <trkpt lat="44.30122" lon="3.66368">
        <ele>611.4</ele>
        <time>2021-08-11T09:49:58Z</time>
      </trkpt>
      <trkpt lat="44.30119" lon="3.66373">
        <ele>611.7</ele>
        <time>2021-08-11T09:50:00Z</time>
      </trkpt>
      <trkpt lat="44.30117" lon="3.66378">
        <ele>612</ele>
        <time>2021-08-11T09:50:02Z</time>
      </trkpt>
      <trkpt lat="44.30114" lon="3.66383">
        <ele>612.4</ele>
        <time>2021-08-11T09:50:04Z</time>
      </trkpt>
      <trkpt lat="44.30111" lon="3.66387">
        <ele>612.8</ele>
        <time>2021-08-11T09:50:06Z</time>
      </trkpt>
      <trkpt lat="44.30108" lon="3.66389">
        <ele>613.2</ele>
        <time>2021-08-11T09:50:08Z</time>
      </trkpt>
      <trkpt lat="44.30105" lon="3.6639">
        <ele>613.5</ele>
        <time>2021-08-11T09:50:10Z</time>
      </trkpt>
      <trkpt lat="44.30102" lon="3.66391">
        <ele>613.7</ele>
        <time>2021-08-11T09:50:12Z</time>
      </trkpt>
      <trkpt lat="44.301" lon="3.66391">
        <ele>613.9</ele>
        <time>2021-08-11T09:50:14Z</time>
      </trkpt>
      <trkpt lat="44.301" lon="3.66393">
        <ele>614</ele>
        <time>2021-08-11T09:50:16Z</time>
      </trkpt>
      <trkpt lat="44.301" lon="3.66392">
        <ele>614</ele>
        <time>2021-08-11T09:50:18Z</time>
      </trkpt>
      <trkpt lat="44.301" lon="3.66392">
        <ele>614</ele>
        <time>2021-08-11T09:50:20Z</time>
      </trkpt>
      <trkpt lat="44.301" lon="3.66392">
        <ele>614</ele>
        <time>2021-08-11T09:50:22Z</time>
      </trkpt>
      <trkpt lat="44.30077" lon="3.66375">
        <ele>613.7</ele>
        <time>2021-08-11T09:50:50Z</time>
      </trkpt>
      <trkpt lat="44.30073" lon="3.66375">
        <ele>613.7</ele>
        <time>2021-08-11T09:50:52Z</time>
      </trkpt>
      <trkpt lat="44.30069" lon="3.66375">
        <ele>613.7</ele>
        <time>2021-08-11T09:50:54Z</time>
      </trkpt>
      <trkpt lat="44.30065" lon="3.66374">
        <ele>613.7</ele>
        <time>2021-08-11T09:50:56Z</time>
      </trkpt>
      <trkpt lat="44.30061" lon="3.66374">
        <ele>613.8</ele>
        <time>2021-08-11T09:50:58Z</time>
      </trkpt>
      <trkpt lat="44.30057" lon="3.66375">
        <ele>613.9</ele>
        <time>2021-08-11T09:51:00Z</time>
      </trkpt>
      <trkpt lat="44.30052" lon="3.66375">
        <ele>614.1</ele>
        <time>2021-08-11T09:51:02Z</time>
      </trkpt>
      <trkpt lat="44.30048" lon="3.66377">
        <ele>614.3</ele>
        <time>2021-08-11T09:51:04Z</time>
      </trkpt>
      <trkpt lat="44.30043" lon="3.66378">
        <ele>614.5</ele>
        <time>2021-08-11T09:51:06Z</time>
      </trkpt>
      <trkpt lat="44.3004" lon="3.66381">
        <ele>615</ele>
        <time>2021-08-11T09:51:08Z</time>
      </trkpt>
      <trkpt lat="44.30036" lon="3.66382">
        <ele>615.2</ele>
        <time>2021-08-11T09:51:10Z</time>
      </trkpt>
      <trkpt lat="44.30034" lon="3.66384">
        <ele>615.4</ele>
        <time>2021-08-11T09:51:12Z</time>
      </trkpt>
      <trkpt lat="44.30035" lon="3.66387">
        <ele>615.7</ele>
        <time>2021-08-11T09:51:14Z</time>
      </trkpt>
      <trkpt lat="44.30038" lon="3.66387">
        <ele>615.7</ele>
        <time>2021-08-11T09:51:16Z</time>
      </trkpt>
      <trkpt lat="44.30041" lon="3.66385">
        <ele>615.5</ele>
        <time>2021-08-11T09:51:18Z</time>
      </trkpt>
      <trkpt lat="44.30042" lon="3.66385">
        <ele>615.4</ele>
        <time>2021-08-11T09:51:20Z</time>
      </trkpt>
      <trkpt lat="44.30042" lon="3.66384">
        <ele>615.3</ele>
        <time>2021-08-11T09:51:22Z</time>
      </trkpt>
      <trkpt lat="44.30042" lon="3.66383">
        <ele>615.2</ele>
        <time>2021-08-11T09:51:24Z</time>
      </trkpt>
      <trkpt lat="44.30041" lon="3.66383">
        <ele>615.2</ele>
        <time>2021-08-11T09:51:26Z</time>
      </trkpt>
      <trkpt lat="44.30041" lon="3.66383">
        <ele>615.2</ele>
        <time>2021-08-11T09:51:28Z</time>
      </trkpt>
      <trkpt lat="44.30018" lon="3.66391">
        <ele>616.5</ele>
        <time>2021-08-11T09:51:40Z</time>
      </trkpt>
      <trkpt lat="44.30014" lon="3.66394">
        <ele>617</ele>
        <time>2021-08-11T09:51:42Z</time>
      </trkpt>
      <trkpt lat="44.3001" lon="3.66397">
        <ele>617.4</ele>
        <time>2021-08-11T09:51:44Z</time>
      </trkpt>
      <trkpt lat="44.30005" lon="3.664">
        <ele>617.9</ele>
        <time>2021-08-11T09:51:46Z</time>
      </trkpt>
      <trkpt lat="44.30001" lon="3.66403">
        <ele>618.3</ele>
        <time>2021-08-11T09:51:48Z</time>
      </trkpt>
      <trkpt lat="44.29997" lon="3.66405">
        <ele>618.5</ele>
        <time>2021-08-11T09:51:50Z</time>
      </trkpt>
      <trkpt lat="44.29993" lon="3.66409">
        <ele>618.8</ele>
        <time>2021-08-11T09:51:52Z</time>
      </trkpt>
      <trkpt lat="44.29989" lon="3.66413">
        <ele>619.1</ele>
        <time>2021-08-11T09:51:54Z</time>
      </trkpt>
      <trkpt lat="44.29985" lon="3.66417">
        <ele>619.3</ele>
        <time>2021-08-11T09:51:56Z</time>
      </trkpt>
      <trkpt lat="44.29981" lon="3.66419">
        <ele>619.4</ele>
        <time>2021-08-11T09:51:58Z</time>
      </trkpt>
      <trkpt lat="44.29976" lon="3.6642">
        <ele>619.4</ele>
        <time>2021-08-11T09:52:00Z</time>
      </trkpt>
      <trkpt lat="44.29973" lon="3.66421">
        <ele>619.3</ele>
        <time>2021-08-11T09:52:02Z</time>
      </trkpt>
      <trkpt lat="44.2997" lon="3.66423">
        <ele>619.5</ele>
        <time>2021-08-11T09:52:04Z</time>
      </trkpt>
      <trkpt lat="44.29966" lon="3.66427">
        <ele>619.7</ele>
        <time>2021-08-11T09:52:06Z</time>
      </trkpt>
      <trkpt lat="44.29962" lon="3.66429">
        <ele>619.8</ele>
        <time>2021-08-11T09:52:08Z</time>
      </trkpt>
      <trkpt lat="44.29958" lon="3.66431">
        <ele>619.8</ele>
        <time>2021-08-11T09:52:10Z</time>
      </trkpt>
      <trkpt lat="44.29954" lon="3.66432">
        <ele>619.8</ele>
        <time>2021-08-11T09:52:12Z</time>
      </trkpt>
      <trkpt lat="44.29951" lon="3.66429">
        <ele>619.2</ele>
        <time>2021-08-11T09:52:14Z</time>
      </trkpt>
      <trkpt lat="44.2995" lon="3.66425">
        <ele>618.6</ele>
        <time>2021-08-11T09:52:16Z</time>
      </trkpt>
      <trkpt lat="44.29948" lon="3.66423">
        <ele>618.2</ele>
        <time>2021-08-11T09:52:18Z</time>
      </trkpt>
      <trkpt lat="44.29944" lon="3.66421">
        <ele>617.9</ele>
        <time>2021-08-11T09:52:20Z</time>
      </trkpt>
      <trkpt lat="44.29941" lon="3.66419">
        <ele>617.5</ele>
        <time>2021-08-11T09:52:22Z</time>
      </trkpt>
      <trkpt lat="44.29938" lon="3.66419">
        <ele>617.3</ele>
        <time>2021-08-11T09:52:24Z</time>
      </trkpt>
      <trkpt lat="44.29935" lon="3.66417">
        <ele>617</ele>
        <time>2021-08-11T09:52:26Z</time>
      </trkpt>
      <trkpt lat="44.29933" lon="3.66415">
        <ele>616.7</ele>
        <time>2021-08-11T09:52:28Z</time>
      </trkpt>
      <trkpt lat="44.29932" lon="3.66414">
        <ele>616.7</ele>
        <time>2021-08-11T09:52:30Z</time>
      </trkpt>
      <trkpt lat="44.29932" lon="3.66414">
        <ele>616.7</ele>
        <time>2021-08-11T09:52:32Z</time>
      </trkpt>
      <trkpt lat="44.29932" lon="3.66414">
        <ele>616.7</ele>
        <time>2021-08-11T09:52:34Z</time>
      </trkpt>
      <trkpt lat="44.29932" lon="3.66414">
        <ele>616.7</ele>
        <time>2021-08-11T09:52:36Z</time>
      </trkpt>
      <trkpt lat="44.29932" lon="3.66414">
        <ele>616.6</ele>
        <time>2021-08-11T09:52:38Z</time>
      </trkpt>
      <trkpt lat="44.2994" lon="3.66424">
        <ele>618</ele>
        <time>2021-08-11T10:02:20Z</time>
      </trkpt>
      <trkpt lat="44.29944" lon="3.66423">
        <ele>618.1</ele>
        <time>2021-08-11T10:02:22Z</time>
      </trkpt>
      <trkpt lat="44.29946" lon="3.66425">
        <ele>618.5</ele>
        <time>2021-08-11T10:02:24Z</time>
      </trkpt>
      <trkpt lat="44.29948" lon="3.66429">
        <ele>619</ele>
        <time>2021-08-11T10:02:26Z</time>
      </trkpt>
      <trkpt lat="44.29949" lon="3.66431">
        <ele>619.3</ele>
        <time>2021-08-11T10:02:28Z</time>
      </trkpt>
      <trkpt lat="44.29953" lon="3.66431">
        <ele>619.6</ele>
        <time>2021-08-11T10:02:30Z</time>
      </trkpt>
      <trkpt lat="44.29956" lon="3.6643">
        <ele>619.7</ele>
        <time>2021-08-11T10:02:32Z</time>
      </trkpt>
      <trkpt lat="44.2996" lon="3.66429">
        <ele>619.7</ele>
        <time>2021-08-11T10:02:34Z</time>
      </trkpt>
      <trkpt lat="44.29962" lon="3.66427">
        <ele>619.6</ele>
        <time>2021-08-11T10:02:36Z</time>
      </trkpt>
      <trkpt lat="44.29965" lon="3.66424">
        <ele>619.4</ele>
        <time>2021-08-11T10:02:38Z</time>
      </trkpt>
      <trkpt lat="44.29968" lon="3.66423">
        <ele>619.3</ele>
        <time>2021-08-11T10:02:40Z</time>
      </trkpt>
      <trkpt lat="44.29971" lon="3.66421">
        <ele>619.2</ele>
        <time>2021-08-11T10:02:42Z</time>
      </trkpt>
      <trkpt lat="44.29974" lon="3.66418">
        <ele>619</ele>
        <time>2021-08-11T10:02:44Z</time>
      </trkpt>
      <trkpt lat="44.29977" lon="3.66416">
        <ele>618.8</ele>
        <time>2021-08-11T10:02:46Z</time>
      </trkpt>
      <trkpt lat="44.2998" lon="3.66414">
        <ele>618.8</ele>
        <time>2021-08-11T10:02:48Z</time>
      </trkpt>
      <trkpt lat="44.29981" lon="3.66414">
        <ele>618.8</ele>
        <time>2021-08-11T10:02:50Z</time>
      </trkpt>
      <trkpt lat="44.29981" lon="3.66413">
        <ele>618.8</ele>
        <time>2021-08-11T10:02:52Z</time>
      </trkpt>
      <trkpt lat="44.29981" lon="3.66413">
        <ele>618.8</ele>
        <time>2021-08-11T10:02:54Z</time>
      </trkpt>
      <trkpt lat="44.29981" lon="3.66413">
        <ele>618.7</ele>
        <time>2021-08-11T10:02:56Z</time>
      </trkpt>
      <trkpt lat="44.29981" lon="3.66413">
        <ele>618.7</ele>
        <time>2021-08-11T10:02:58Z</time>
      </trkpt>
      <trkpt lat="44.29996" lon="3.66404">
        <ele>618.4</ele>
        <time>2021-08-11T10:08:06Z</time>
      </trkpt>
      <trkpt lat="44.29998" lon="3.66402">
        <ele>618.2</ele>
        <time>2021-08-11T10:08:08Z</time>
      </trkpt>
      <trkpt lat="44.30002" lon="3.664">
        <ele>617.9</ele>
        <time>2021-08-11T10:08:10Z</time>
      </trkpt>
      <trkpt lat="44.30007" lon="3.66397">
        <ele>617.5</ele>
        <time>2021-08-11T10:08:12Z</time>
      </trkpt>
      <trkpt lat="44.30011" lon="3.66395">
        <ele>617.1</ele>
        <time>2021-08-11T10:08:14Z</time>
      </trkpt>
      <trkpt lat="44.30015" lon="3.66391">
        <ele>616.6</ele>
        <time>2021-08-11T10:08:16Z</time>
      </trkpt>
      <trkpt lat="44.30019" lon="3.66388">
        <ele>616.2</ele>
        <time>2021-08-11T10:08:18Z</time>
      </trkpt>
      <trkpt lat="44.30023" lon="3.66387">
        <ele>616</ele>
        <time>2021-08-11T10:08:20Z</time>
      </trkpt>
      <trkpt lat="44.30027" lon="3.66384">
        <ele>615.6</ele>
        <time>2021-08-11T10:08:22Z</time>
      </trkpt>
      <trkpt lat="44.30031" lon="3.66381">
        <ele>615.2</ele>
        <time>2021-08-11T10:08:24Z</time>
      </trkpt>
      <trkpt lat="44.30035" lon="3.66379">
        <ele>614.8</ele>
        <time>2021-08-11T10:08:26Z</time>
      </trkpt>
      <trkpt lat="44.30039" lon="3.66376">
        <ele>614.4</ele>
        <time>2021-08-11T10:08:28Z</time>
      </trkpt>
      <trkpt lat="44.30044" lon="3.66374">
        <ele>614.1</ele>
        <time>2021-08-11T10:08:30Z</time>
      </trkpt>
      <trkpt lat="44.30046" lon="3.66372">
        <ele>613.9</ele>
        <time>2021-08-11T10:08:32Z</time>
      </trkpt>
      <trkpt lat="44.30049" lon="3.6637">
        <ele>613.6</ele>
        <time>2021-08-11T10:08:34Z</time>
      </trkpt>
      <trkpt lat="44.30053" lon="3.6637">
        <ele>613.4</ele>
        <time>2021-08-11T10:08:36Z</time>
      </trkpt>
      <trkpt lat="44.30057" lon="3.6637">
        <ele>613.4</ele>
        <time>2021-08-11T10:08:38Z</time>
      </trkpt>
      <trkpt lat="44.30061" lon="3.6637">
        <ele>613.4</ele>
        <time>2021-08-11T10:08:40Z</time>
      </trkpt>
      <trkpt lat="44.30065" lon="3.66371">
        <ele>613.4</ele>
        <time>2021-08-11T10:08:42Z</time>
      </trkpt>
      <trkpt lat="44.3007" lon="3.6637">
        <ele>613.2</ele>
        <time>2021-08-11T10:08:44Z</time>
      </trkpt>
      <trkpt lat="44.30075" lon="3.66371">
        <ele>613.3</ele>
        <time>2021-08-11T10:08:46Z</time>
      </trkpt>
      <trkpt lat="44.30081" lon="3.66372">
        <ele>613.2</ele>
        <time>2021-08-11T10:08:48Z</time>
      </trkpt>
      <trkpt lat="44.30086" lon="3.66374">
        <ele>613.2</ele>
        <time>2021-08-11T10:08:50Z</time>
      </trkpt>
      <trkpt lat="44.30091" lon="3.66377">
        <ele>613.3</ele>
        <time>2021-08-11T10:08:52Z</time>
      </trkpt>
      <trkpt lat="44.30095" lon="3.66381">
        <ele>613.5</ele>
        <time>2021-08-11T10:08:54Z</time>
      </trkpt>
      <trkpt lat="44.30098" lon="3.66385">
        <ele>613.6</ele>
        <time>2021-08-11T10:08:56Z</time>
      </trkpt>
      <trkpt lat="44.30101" lon="3.66388">
        <ele>613.6</ele>
        <time>2021-08-11T10:08:58Z</time>
      </trkpt>
      <trkpt lat="44.30104" lon="3.6639">
        <ele>613.5</ele>
        <time>2021-08-11T10:09:00Z</time>
      </trkpt>
      <trkpt lat="44.30109" lon="3.66389">
        <ele>613.1</ele>
        <time>2021-08-11T10:09:02Z</time>
      </trkpt>
      <trkpt lat="44.30114" lon="3.66384">
        <ele>612.5</ele>
        <time>2021-08-11T10:09:04Z</time>
      </trkpt>
      <trkpt lat="44.30117" lon="3.66377">
        <ele>612</ele>
        <time>2021-08-11T10:09:06Z</time>
      </trkpt>
      <trkpt lat="44.3012" lon="3.66371">
        <ele>611.6</ele>
        <time>2021-08-11T10:09:08Z</time>
      </trkpt>
      <trkpt lat="44.30124" lon="3.66364">
        <ele>611.3</ele>
        <time>2021-08-11T10:09:10Z</time>
      </trkpt>
      <trkpt lat="44.30127" lon="3.66358">
        <ele>611.1</ele>
        <time>2021-08-11T10:09:12Z</time>
      </trkpt>
      <trkpt lat="44.30131" lon="3.66352">
        <ele>610.9</ele>
        <time>2021-08-11T10:09:14Z</time>
      </trkpt>
      <trkpt lat="44.30134" lon="3.66346">
        <ele>610.9</ele>
        <time>2021-08-11T10:09:16Z</time>
      </trkpt>
      <trkpt lat="44.30136" lon="3.66343">
        <ele>610.9</ele>
        <time>2021-08-11T10:09:18Z</time>
      </trkpt>
      <trkpt lat="44.30138" lon="3.66339">
        <ele>610.9</ele>
        <time>2021-08-11T10:09:20Z</time>
      </trkpt>
      <trkpt lat="44.30139" lon="3.66338">
        <ele>611</ele>
        <time>2021-08-11T10:09:22Z</time>
      </trkpt>
      <trkpt lat="44.30139" lon="3.66336">
        <ele>611</ele>
        <time>2021-08-11T10:09:24Z</time>
      </trkpt>
      <trkpt lat="44.30139" lon="3.66336">
        <ele>611</ele>
        <time>2021-08-11T10:09:26Z</time>
      </trkpt>
      <trkpt lat="44.3014" lon="3.66333">
        <ele>611.1</ele>
        <time>2021-08-11T10:09:28Z</time>
      </trkpt>
      <trkpt lat="44.30138" lon="3.66327">
        <ele>612.3</ele>
        <time>2021-08-11T10:09:30Z</time>
      </trkpt>
      <trkpt lat="44.30133" lon="3.6632">
        <ele>613.6</ele>
        <time>2021-08-11T10:09:32Z</time>
      </trkpt>
      <trkpt lat="44.30127" lon="3.66314">
        <ele>614.6</ele>
        <time>2021-08-11T10:09:34Z</time>
      </trkpt>
      <trkpt lat="44.30119" lon="3.66309">
        <ele>615.3</ele>
        <time>2021-08-11T10:09:36Z</time>
      </trkpt>
      <trkpt lat="44.30112" lon="3.66305">
        <ele>616</ele>
        <time>2021-08-11T10:09:38Z</time>
      </trkpt>
      <trkpt lat="44.30104" lon="3.66301">
        <ele>616.6</ele>
        <time>2021-08-11T10:09:40Z</time>
      </trkpt>
      <trkpt lat="44.30097" lon="3.66299">
        <ele>616.8</ele>
        <time>2021-08-11T10:09:42Z</time>
      </trkpt>
      <trkpt lat="44.30089" lon="3.66296">
        <ele>617.2</ele>
        <time>2021-08-11T10:09:44Z</time>
      </trkpt>
      <trkpt lat="44.30082" lon="3.66294">
        <ele>617.5</ele>
        <time>2021-08-11T10:09:46Z</time>
      </trkpt>
      <trkpt lat="44.30074" lon="3.66292">
        <ele>617.6</ele>
        <time>2021-08-11T10:09:48Z</time>
      </trkpt>
      <trkpt lat="44.30067" lon="3.6629">
        <ele>617.8</ele>
        <time>2021-08-11T10:09:50Z</time>
      </trkpt>
      <trkpt lat="44.30059" lon="3.66289">
        <ele>617.8</ele>
        <time>2021-08-11T10:09:52Z</time>
      </trkpt>
      <trkpt lat="44.30052" lon="3.66287">
        <ele>618</ele>
        <time>2021-08-11T10:09:54Z</time>
      </trkpt>
      <trkpt lat="44.30045" lon="3.66285">
        <ele>618</ele>
        <time>2021-08-11T10:09:56Z</time>
      </trkpt>
      <trkpt lat="44.30039" lon="3.66284">
        <ele>618</ele>
        <time>2021-08-11T10:09:58Z</time>
      </trkpt>
      <trkpt lat="44.30032" lon="3.66283">
        <ele>617.9</ele>
        <time>2021-08-11T10:10:00Z</time>
      </trkpt>
      <trkpt lat="44.30025" lon="3.66281">
        <ele>617.9</ele>
        <time>2021-08-11T10:10:02Z</time>
      </trkpt>
      <trkpt lat="44.30018" lon="3.66281">
        <ele>617.7</ele>
        <time>2021-08-11T10:10:04Z</time>
      </trkpt>
      <trkpt lat="44.30012" lon="3.66279">
        <ele>617.7</ele>
        <time>2021-08-11T10:10:06Z</time>
      </trkpt>
      <trkpt lat="44.30006" lon="3.66278">
        <ele>617.6</ele>
        <time>2021-08-11T10:10:08Z</time>
      </trkpt>
      <trkpt lat="44.3" lon="3.66276">
        <ele>617.6</ele>
        <time>2021-08-11T10:10:10Z</time>
      </trkpt>
      <trkpt lat="44.29994" lon="3.66274">
        <ele>617.8</ele>
        <time>2021-08-11T10:10:12Z</time>
      </trkpt>
      <trkpt lat="44.29988" lon="3.66273">
        <ele>618</ele>
        <time>2021-08-11T10:10:14Z</time>
      </trkpt>
      <trkpt lat="44.29983" lon="3.6627">
        <ele>618.4</ele>
        <time>2021-08-11T10:10:16Z</time>
      </trkpt>
      <trkpt lat="44.29978" lon="3.66267">
        <ele>618.8</ele>
        <time>2021-08-11T10:10:18Z</time>
      </trkpt>
      <trkpt lat="44.29973" lon="3.66266">
        <ele>618.9</ele>
        <time>2021-08-11T10:10:20Z</time>
      </trkpt>
      <trkpt lat="44.29968" lon="3.66269">
        <ele>618.6</ele>
        <time>2021-08-11T10:10:22Z</time>
      </trkpt>
      <trkpt lat="44.29963" lon="3.6627">
        <ele>618.6</ele>
        <time>2021-08-11T10:10:24Z</time>
      </trkpt>
      <trkpt lat="44.29957" lon="3.6627">
        <ele>618.5</ele>
        <time>2021-08-11T10:10:26Z</time>
      </trkpt>
      <trkpt lat="44.29952" lon="3.66271">
        <ele>618.5</ele>
        <time>2021-08-11T10:10:28Z</time>
      </trkpt>
      <trkpt lat="44.29946" lon="3.66272">
        <ele>618.5</ele>
        <time>2021-08-11T10:10:30Z</time>
      </trkpt>
      <trkpt lat="44.29941" lon="3.66274">
        <ele>618.4</ele>
        <time>2021-08-11T10:10:32Z</time>
      </trkpt>
      <trkpt lat="44.29936" lon="3.66276">
        <ele>618.3</ele>
        <time>2021-08-11T10:10:34Z</time>
      </trkpt>
      <trkpt lat="44.2993" lon="3.66278">
        <ele>618.2</ele>
        <time>2021-08-11T10:10:36Z</time>
      </trkpt>
      <trkpt lat="44.29926" lon="3.6628">
        <ele>618.1</ele>
        <time>2021-08-11T10:10:38Z</time>
      </trkpt>
      <trkpt lat="44.29921" lon="3.66282">
        <ele>618</ele>
        <time>2021-08-11T10:10:40Z</time>
      </trkpt>
      <trkpt lat="44.29917" lon="3.66285">
        <ele>617.9</ele>
        <time>2021-08-11T10:10:42Z</time>
      </trkpt>
      <trkpt lat="44.29912" lon="3.66289">
        <ele>618.7</ele>
        <time>2021-08-11T10:10:44Z</time>
      </trkpt>
      <trkpt lat="44.29907" lon="3.66291">
        <ele>619.6</ele>
        <time>2021-08-11T10:10:46Z</time>
      </trkpt>
      <trkpt lat="44.29902" lon="3.66295">
        <ele>620.4</ele>
        <time>2021-08-11T10:10:48Z</time>
      </trkpt>
      <trkpt lat="44.29898" lon="3.66299">
        <ele>621.2</ele>
        <time>2021-08-11T10:10:50Z</time>
      </trkpt>
      <trkpt lat="44.29893" lon="3.66302">
        <ele>622.1</ele>
        <time>2021-08-11T10:10:52Z</time>
      </trkpt>
      <trkpt lat="44.29888" lon="3.66306">
        <ele>622.9</ele>
        <time>2021-08-11T10:10:54Z</time>
      </trkpt>
      <trkpt lat="44.29884" lon="3.6631">
        <ele>623.7</ele>
        <time>2021-08-11T10:10:56Z</time>
      </trkpt>
      <trkpt lat="44.29879" lon="3.66312">
        <ele>624.7</ele>
        <time>2021-08-11T10:10:58Z</time>
      </trkpt>
      <trkpt lat="44.29875" lon="3.66315">
        <ele>625.5</ele>
        <time>2021-08-11T10:11:00Z</time>
      </trkpt>
      <trkpt lat="44.2987" lon="3.66318">
        <ele>626.3</ele>
        <time>2021-08-11T10:11:02Z</time>
      </trkpt>
      <trkpt lat="44.29866" lon="3.66322">
        <ele>627.1</ele>
        <time>2021-08-11T10:11:04Z</time>
      </trkpt>
      <trkpt lat="44.29861" lon="3.66326">
        <ele>628</ele>
        <time>2021-08-11T10:11:06Z</time>
      </trkpt>
      <trkpt lat="44.29857" lon="3.6633">
        <ele>628.7</ele>
        <time>2021-08-11T10:11:08Z</time>
      </trkpt>
      <trkpt lat="44.29852" lon="3.66333">
        <ele>629.6</ele>
        <time>2021-08-11T10:11:10Z</time>
      </trkpt>
      <trkpt lat="44.29849" lon="3.66338">
        <ele>629.7</ele>
        <time>2021-08-11T10:11:12Z</time>
      </trkpt>
      <trkpt lat="44.29845" lon="3.66341">
        <ele>629.9</ele>
        <time>2021-08-11T10:11:14Z</time>
      </trkpt>
      <trkpt lat="44.29841" lon="3.66345">
        <ele>630</ele>
        <time>2021-08-11T10:11:16Z</time>
      </trkpt>
      <trkpt lat="44.29837" lon="3.66349">
        <ele>629.9</ele>
        <time>2021-08-11T10:11:18Z</time>
      </trkpt>
      <trkpt lat="44.29833" lon="3.66354">
        <ele>629.7</ele>
        <time>2021-08-11T10:11:20Z</time>
      </trkpt>
      <trkpt lat="44.29829" lon="3.66358">
        <ele>629.9</ele>
        <time>2021-08-11T10:11:22Z</time>
      </trkpt>
      <trkpt lat="44.29825" lon="3.66362">
        <ele>630</ele>
        <time>2021-08-11T10:11:24Z</time>
      </trkpt>
      <trkpt lat="44.29821" lon="3.66367">
        <ele>630.2</ele>
        <time>2021-08-11T10:11:26Z</time>
      </trkpt>
      <trkpt lat="44.29818" lon="3.66371">
        <ele>630.3</ele>
        <time>2021-08-11T10:11:28Z</time>
      </trkpt>
      <trkpt lat="44.29814" lon="3.66375">
        <ele>630.4</ele>
        <time>2021-08-11T10:11:30Z</time>
      </trkpt>
      <trkpt lat="44.2981" lon="3.6638">
        <ele>630.6</ele>
        <time>2021-08-11T10:11:32Z</time>
      </trkpt>
      <trkpt lat="44.29807" lon="3.66384">
        <ele>630.8</ele>
        <time>2021-08-11T10:11:34Z</time>
      </trkpt>
      <trkpt lat="44.29803" lon="3.66389">
        <ele>630.8</ele>
        <time>2021-08-11T10:11:36Z</time>
      </trkpt>
      <trkpt lat="44.29798" lon="3.66394">
        <ele>631.3</ele>
        <time>2021-08-11T10:11:38Z</time>
      </trkpt>
      <trkpt lat="44.29795" lon="3.66397">
        <ele>631.6</ele>
        <time>2021-08-11T10:11:40Z</time>
      </trkpt>
      <trkpt lat="44.29791" lon="3.66402">
        <ele>631.6</ele>
        <time>2021-08-11T10:11:42Z</time>
      </trkpt>
      <trkpt lat="44.29787" lon="3.66406">
        <ele>631.9</ele>
        <time>2021-08-11T10:11:44Z</time>
      </trkpt>
      <trkpt lat="44.29784" lon="3.66411">
        <ele>631.7</ele>
        <time>2021-08-11T10:11:46Z</time>
      </trkpt>
      <trkpt lat="44.2978" lon="3.66415">
        <ele>632.3</ele>
        <time>2021-08-11T10:11:48Z</time>
      </trkpt>
      <trkpt lat="44.29776" lon="3.66419">
        <ele>633</ele>
        <time>2021-08-11T10:11:50Z</time>
      </trkpt>
      <trkpt lat="44.29772" lon="3.66424">
        <ele>633.2</ele>
        <time>2021-08-11T10:11:52Z</time>
      </trkpt>
      <trkpt lat="44.29768" lon="3.66427">
        <ele>633.8</ele>
        <time>2021-08-11T10:11:54Z</time>
      </trkpt>
      <trkpt lat="44.29764" lon="3.66432">
        <ele>634.2</ele>
        <time>2021-08-11T10:11:56Z</time>
      </trkpt>
      <trkpt lat="44.29761" lon="3.66438">
        <ele>634</ele>
        <time>2021-08-11T10:11:58Z</time>
      </trkpt>
      <trkpt lat="44.29758" lon="3.66443">
        <ele>633.8</ele>
        <time>2021-08-11T10:12:00Z</time>
      </trkpt>
      <trkpt lat="44.29754" lon="3.66448">
        <ele>633.7</ele>
        <time>2021-08-11T10:12:02Z</time>
      </trkpt>
      <trkpt lat="44.29751" lon="3.66453">
        <ele>633.3</ele>
        <time>2021-08-11T10:12:04Z</time>
      </trkpt>
      <trkpt lat="44.29748" lon="3.66458">
        <ele>633.5</ele>
        <time>2021-08-11T10:12:06Z</time>
      </trkpt>
      <trkpt lat="44.29745" lon="3.66463">
        <ele>633.8</ele>
        <time>2021-08-11T10:12:08Z</time>
      </trkpt>
      <trkpt lat="44.29742" lon="3.66467">
        <ele>634.3</ele>
        <time>2021-08-11T10:12:10Z</time>
      </trkpt>
      <trkpt lat="44.29738" lon="3.66472">
        <ele>635.4</ele>
        <time>2021-08-11T10:12:12Z</time>
      </trkpt>
      <trkpt lat="44.29735" lon="3.66476">
        <ele>635.9</ele>
        <time>2021-08-11T10:12:14Z</time>
      </trkpt>
      <trkpt lat="44.29732" lon="3.66482">
        <ele>636</ele>
        <time>2021-08-11T10:12:16Z</time>
      </trkpt>
      <trkpt lat="44.29729" lon="3.66486">
        <ele>636.7</ele>
        <time>2021-08-11T10:12:18Z</time>
      </trkpt>
      <trkpt lat="44.29725" lon="3.66491">
        <ele>637.1</ele>
        <time>2021-08-11T10:12:20Z</time>
      </trkpt>
      <trkpt lat="44.29722" lon="3.66496">
        <ele>637.8</ele>
        <time>2021-08-11T10:12:22Z</time>
      </trkpt>
      <trkpt lat="44.29719" lon="3.66501">
        <ele>638.4</ele>
        <time>2021-08-11T10:12:24Z</time>
      </trkpt>
      <trkpt lat="44.29716" lon="3.66507">
        <ele>639.1</ele>
        <time>2021-08-11T10:12:26Z</time>
      </trkpt>
      <trkpt lat="44.29713" lon="3.66512">
        <ele>639.6</ele>
        <time>2021-08-11T10:12:28Z</time>
      </trkpt>
      <trkpt lat="44.2971" lon="3.66517">
        <ele>640.4</ele>
        <time>2021-08-11T10:12:30Z</time>
      </trkpt>
      <trkpt lat="44.29708" lon="3.66523">
        <ele>640.9</ele>
        <time>2021-08-11T10:12:32Z</time>
      </trkpt>
      <trkpt lat="44.29705" lon="3.66528">
        <ele>641.4</ele>
        <time>2021-08-11T10:12:34Z</time>
      </trkpt>
      <trkpt lat="44.29703" lon="3.66534">
        <ele>641.6</ele>
        <time>2021-08-11T10:12:36Z</time>
      </trkpt>
      <trkpt lat="44.297" lon="3.6654">
        <ele>641.9</ele>
        <time>2021-08-11T10:12:38Z</time>
      </trkpt>
      <trkpt lat="44.29698" lon="3.66545">
        <ele>642.1</ele>
        <time>2021-08-11T10:12:40Z</time>
      </trkpt>
      <trkpt lat="44.29697" lon="3.66551">
        <ele>641.9</ele>
        <time>2021-08-11T10:12:42Z</time>
      </trkpt>
      <trkpt lat="44.29695" lon="3.66557">
        <ele>641.7</ele>
        <time>2021-08-11T10:12:44Z</time>
      </trkpt>
      <trkpt lat="44.29694" lon="3.66563">
        <ele>641.4</ele>
        <time>2021-08-11T10:12:46Z</time>
      </trkpt>
      <trkpt lat="44.29692" lon="3.66569">
        <ele>641.1</ele>
        <time>2021-08-11T10:12:48Z</time>
      </trkpt>
      <trkpt lat="44.29691" lon="3.66576">
        <ele>640.6</ele>
        <time>2021-08-11T10:12:50Z</time>
      </trkpt>
      <trkpt lat="44.2969" lon="3.66582">
        <ele>640.1</ele>
        <time>2021-08-11T10:12:52Z</time>
      </trkpt>
      <trkpt lat="44.29689" lon="3.66589">
        <ele>639.9</ele>
        <time>2021-08-11T10:12:54Z</time>
      </trkpt>
      <trkpt lat="44.29689" lon="3.66596">
        <ele>639.6</ele>
        <time>2021-08-11T10:12:56Z</time>
      </trkpt>
      <trkpt lat="44.29689" lon="3.66602">
        <ele>639</ele>
        <time>2021-08-11T10:12:58Z</time>
      </trkpt>
      <trkpt lat="44.29688" lon="3.66609">
        <ele>638.9</ele>
        <time>2021-08-11T10:13:00Z</time>
      </trkpt>
      <trkpt lat="44.29687" lon="3.66615">
        <ele>638.6</ele>
        <time>2021-08-11T10:13:02Z</time>
      </trkpt>
      <trkpt lat="44.29686" lon="3.66621">
        <ele>638.4</ele>
        <time>2021-08-11T10:13:04Z</time>
      </trkpt>
      <trkpt lat="44.29686" lon="3.66627">
        <ele>638</ele>
        <time>2021-08-11T10:13:06Z</time>
      </trkpt>
      <trkpt lat="44.29685" lon="3.66634">
        <ele>637.8</ele>
        <time>2021-08-11T10:13:08Z</time>
      </trkpt>
      <trkpt lat="44.29685" lon="3.66641">
        <ele>637.3</ele>
        <time>2021-08-11T10:13:10Z</time>
      </trkpt>
      <trkpt lat="44.29684" lon="3.66648">
        <ele>636.8</ele>
        <time>2021-08-11T10:13:12Z</time>
      </trkpt>
      <trkpt lat="44.29683" lon="3.66654">
        <ele>636.5</ele>
        <time>2021-08-11T10:13:14Z</time>
      </trkpt>
      <trkpt lat="44.29683" lon="3.66662">
        <ele>635.9</ele>
        <time>2021-08-11T10:13:16Z</time>
      </trkpt>
      <trkpt lat="44.29681" lon="3.66669">
        <ele>635.8</ele>
        <time>2021-08-11T10:13:18Z</time>
      </trkpt>
      <trkpt lat="44.29679" lon="3.66675">
        <ele>635.5</ele>
        <time>2021-08-11T10:13:20Z</time>
      </trkpt>
      <trkpt lat="44.29678" lon="3.66682">
        <ele>635.2</ele>
        <time>2021-08-11T10:13:22Z</time>
      </trkpt>
      <trkpt lat="44.29677" lon="3.66689">
        <ele>634.9</ele>
        <time>2021-08-11T10:13:24Z</time>
      </trkpt>
      <trkpt lat="44.29676" lon="3.66695">
        <ele>634.6</ele>
        <time>2021-08-11T10:13:26Z</time>
      </trkpt>
      <trkpt lat="44.29675" lon="3.66701">
        <ele>634.2</ele>
        <time>2021-08-11T10:13:28Z</time>
      </trkpt>
      <trkpt lat="44.29674" lon="3.66707">
        <ele>633.9</ele>
        <time>2021-08-11T10:13:30Z</time>
      </trkpt>
      <trkpt lat="44.29672" lon="3.66713">
        <ele>633.6</ele>
        <time>2021-08-11T10:13:32Z</time>
      </trkpt>
      <trkpt lat="44.2967" lon="3.66719">
        <ele>633.5</ele>
        <time>2021-08-11T10:13:34Z</time>
      </trkpt>
      <trkpt lat="44.29669" lon="3.66724">
        <ele>633.2</ele>
        <time>2021-08-11T10:13:36Z</time>
      </trkpt>
      <trkpt lat="44.29667" lon="3.66731">
        <ele>632.8</ele>
        <time>2021-08-11T10:13:38Z</time>
      </trkpt>
      <trkpt lat="44.29665" lon="3.66736">
        <ele>632.8</ele>
        <time>2021-08-11T10:13:40Z</time>
      </trkpt>
      <trkpt lat="44.29664" lon="3.66741">
        <ele>632.5</ele>
        <time>2021-08-11T10:13:42Z</time>
      </trkpt>
      <trkpt lat="44.29663" lon="3.66747">
        <ele>632.3</ele>
        <time>2021-08-11T10:13:44Z</time>
      </trkpt>
      <trkpt lat="44.29662" lon="3.66753">
        <ele>632.7</ele>
        <time>2021-08-11T10:13:46Z</time>
      </trkpt>
      <trkpt lat="44.2966" lon="3.66758">
        <ele>633.6</ele>
        <time>2021-08-11T10:13:48Z</time>
      </trkpt>
      <trkpt lat="44.2966" lon="3.66763">
        <ele>634.3</ele>
        <time>2021-08-11T10:13:50Z</time>
      </trkpt>
      <trkpt lat="44.29658" lon="3.66768">
        <ele>635.2</ele>
        <time>2021-08-11T10:13:52Z</time>
      </trkpt>
      <trkpt lat="44.29657" lon="3.66774">
        <ele>636.1</ele>
        <time>2021-08-11T10:13:54Z</time>
      </trkpt>
      <trkpt lat="44.29656" lon="3.66779">
        <ele>636.9</ele>
        <time>2021-08-11T10:13:56Z</time>
      </trkpt>
      <trkpt lat="44.29656" lon="3.66785">
        <ele>637.6</ele>
        <time>2021-08-11T10:13:58Z</time>
      </trkpt>
      <trkpt lat="44.29655" lon="3.6679">
        <ele>638.3</ele>
        <time>2021-08-11T10:14:00Z</time>
      </trkpt>
      <trkpt lat="44.29655" lon="3.66795">
        <ele>638.8</ele>
        <time>2021-08-11T10:14:02Z</time>
      </trkpt>
      <trkpt lat="44.29653" lon="3.668">
        <ele>639.8</ele>
        <time>2021-08-11T10:14:04Z</time>
      </trkpt>
      <trkpt lat="44.2965" lon="3.66803">
        <ele>640.9</ele>
        <time>2021-08-11T10:14:06Z</time>
      </trkpt>
      <trkpt lat="44.29646" lon="3.66806">
        <ele>642.1</ele>
        <time>2021-08-11T10:14:08Z</time>
      </trkpt>
      <trkpt lat="44.29643" lon="3.66806">
        <ele>642.9</ele>
        <time>2021-08-11T10:14:10Z</time>
      </trkpt>
      <trkpt lat="44.2964" lon="3.66805">
        <ele>643.7</ele>
        <time>2021-08-11T10:14:12Z</time>
      </trkpt>
      <trkpt lat="44.29636" lon="3.66801">
        <ele>644.3</ele>
        <time>2021-08-11T10:14:14Z</time>
      </trkpt>
      <trkpt lat="44.29633" lon="3.66796">
        <ele>644.4</ele>
        <time>2021-08-11T10:14:16Z</time>
      </trkpt>
      <trkpt lat="44.29631" lon="3.66789">
        <ele>644.6</ele>
        <time>2021-08-11T10:14:18Z</time>
      </trkpt>
      <trkpt lat="44.29629" lon="3.66783">
        <ele>644.5</ele>
        <time>2021-08-11T10:14:20Z</time>
      </trkpt>
      <trkpt lat="44.29629" lon="3.66776">
        <ele>644</ele>
        <time>2021-08-11T10:14:22Z</time>
      </trkpt>
      <trkpt lat="44.29628" lon="3.6677">
        <ele>643.6</ele>
        <time>2021-08-11T10:14:24Z</time>
      </trkpt>
      <trkpt lat="44.29627" lon="3.66764">
        <ele>643.6</ele>
        <time>2021-08-11T10:14:26Z</time>
      </trkpt>
      <trkpt lat="44.29626" lon="3.66759">
        <ele>643.5</ele>
        <time>2021-08-11T10:14:28Z</time>
      </trkpt>
      <trkpt lat="44.29625" lon="3.66753">
        <ele>643.2</ele>
        <time>2021-08-11T10:14:30Z</time>
      </trkpt>
      <trkpt lat="44.29624" lon="3.66747">
        <ele>643.7</ele>
        <time>2021-08-11T10:14:32Z</time>
      </trkpt>
      <trkpt lat="44.29624" lon="3.66742">
        <ele>644.7</ele>
        <time>2021-08-11T10:14:34Z</time>
      </trkpt>
      <trkpt lat="44.29624" lon="3.66738">
        <ele>645.1</ele>
        <time>2021-08-11T10:14:36Z</time>
      </trkpt>
      <trkpt lat="44.29623" lon="3.66736">
        <ele>645.9</ele>
        <time>2021-08-11T10:14:38Z</time>
      </trkpt>
      <trkpt lat="44.2962" lon="3.66736">
        <ele>646.9</ele>
        <time>2021-08-11T10:14:40Z</time>
      </trkpt>
      <trkpt lat="44.29619" lon="3.66741">
        <ele>646.2</ele>
        <time>2021-08-11T10:14:42Z</time>
      </trkpt>
      <trkpt lat="44.29619" lon="3.66745">
        <ele>645.6</ele>
        <time>2021-08-11T10:14:44Z</time>
      </trkpt>
      <trkpt lat="44.29621" lon="3.66748">
        <ele>644.6</ele>
        <time>2021-08-11T10:14:46Z</time>
      </trkpt>
      <trkpt lat="44.2962" lon="3.66752">
        <ele>644.5</ele>
        <time>2021-08-11T10:14:48Z</time>
      </trkpt>
      <trkpt lat="44.29621" lon="3.66755">
        <ele>644.4</ele>
        <time>2021-08-11T10:14:50Z</time>
      </trkpt>
      <trkpt lat="44.29621" lon="3.66754">
        <ele>644.4</ele>
        <time>2021-08-11T10:14:52Z</time>
      </trkpt>
      <trkpt lat="44.29621" lon="3.66755">
        <ele>644.4</ele>
        <time>2021-08-11T10:14:54Z</time>
      </trkpt>
      <trkpt lat="44.29621" lon="3.66755">
        <ele>644.5</ele>
        <time>2021-08-11T10:14:56Z</time>
      </trkpt>
      <trkpt lat="44.2962" lon="3.66755">
        <ele>644.7</ele>
        <time>2021-08-11T10:14:58Z</time>
      </trkpt>
      <trkpt lat="44.2962" lon="3.66756">
        <ele>644.7</ele>
        <time>2021-08-11T10:15:00Z</time>
      </trkpt>
      <trkpt lat="44.29625" lon="3.66732">
        <ele>646</ele>
        <time>2021-08-11T10:16:32Z</time>
      </trkpt>
      <trkpt lat="44.29628" lon="3.66725">
        <ele>646.2</ele>
        <time>2021-08-11T10:16:34Z</time>
      </trkpt>
      <trkpt lat="44.29631" lon="3.66721">
        <ele>645.7</ele>
        <time>2021-08-11T10:16:36Z</time>
      </trkpt>
      <trkpt lat="44.29635" lon="3.66718">
        <ele>644.9</ele>
        <time>2021-08-11T10:16:38Z</time>
      </trkpt>
      <trkpt lat="44.29638" lon="3.66713">
        <ele>644.6</ele>
        <time>2021-08-11T10:16:40Z</time>
      </trkpt>
      <trkpt lat="44.29639" lon="3.66708">
        <ele>644.6</ele>
        <time>2021-08-11T10:16:42Z</time>
      </trkpt>
      <trkpt lat="44.29641" lon="3.66703">
        <ele>644.8</ele>
        <time>2021-08-11T10:16:44Z</time>
      </trkpt>
      <trkpt lat="44.29643" lon="3.66698">
        <ele>644.6</ele>
        <time>2021-08-11T10:16:46Z</time>
      </trkpt>
      <trkpt lat="44.29644" lon="3.66693">
        <ele>644.9</ele>
        <time>2021-08-11T10:16:48Z</time>
      </trkpt>
      <trkpt lat="44.29646" lon="3.66688">
        <ele>645</ele>
        <time>2021-08-11T10:16:50Z</time>
      </trkpt>
      <trkpt lat="44.29646" lon="3.66683">
        <ele>645.7</ele>
        <time>2021-08-11T10:16:52Z</time>
      </trkpt>
      <trkpt lat="44.29647" lon="3.66678">
        <ele>645.7</ele>
        <time>2021-08-11T10:16:54Z</time>
      </trkpt>
      <trkpt lat="44.29649" lon="3.66673">
        <ele>645.8</ele>
        <time>2021-08-11T10:16:56Z</time>
      </trkpt>
      <trkpt lat="44.29649" lon="3.66668">
        <ele>646.3</ele>
        <time>2021-08-11T10:16:58Z</time>
      </trkpt>
      <trkpt lat="44.29649" lon="3.66663">
        <ele>646.7</ele>
        <time>2021-08-11T10:17:00Z</time>
      </trkpt>
      <trkpt lat="44.2965" lon="3.66659">
        <ele>647.2</ele>
        <time>2021-08-11T10:17:02Z</time>
      </trkpt>
      <trkpt lat="44.29649" lon="3.66654">
        <ele>648</ele>
        <time>2021-08-11T10:17:04Z</time>
      </trkpt>
      <trkpt lat="44.2965" lon="3.6665">
        <ele>648.2</ele>
        <time>2021-08-11T10:17:06Z</time>
      </trkpt>
      <trkpt lat="44.29648" lon="3.66645">
        <ele>649.5</ele>
        <time>2021-08-11T10:17:08Z</time>
      </trkpt>
      <trkpt lat="44.29648" lon="3.6664">
        <ele>650.3</ele>
        <time>2021-08-11T10:17:10Z</time>
      </trkpt>
      <trkpt lat="44.29648" lon="3.66636">
        <ele>650.8</ele>
        <time>2021-08-11T10:17:12Z</time>
      </trkpt>
      <trkpt lat="44.29648" lon="3.6663">
        <ele>651.7</ele>
        <time>2021-08-11T10:17:14Z</time>
      </trkpt>
      <trkpt lat="44.29647" lon="3.66625">
        <ele>652.7</ele>
        <time>2021-08-11T10:17:16Z</time>
      </trkpt>
      <trkpt lat="44.29647" lon="3.6662">
        <ele>653.4</ele>
        <time>2021-08-11T10:17:18Z</time>
      </trkpt>
      <trkpt lat="44.29647" lon="3.66615">
        <ele>654.2</ele>
        <time>2021-08-11T10:17:20Z</time>
      </trkpt>
      <trkpt lat="44.29647" lon="3.66609">
        <ele>655</ele>
        <time>2021-08-11T10:17:22Z</time>
      </trkpt>
      <trkpt lat="44.29647" lon="3.66603">
        <ele>655.8</ele>
        <time>2021-08-11T10:17:24Z</time>
      </trkpt>
      <trkpt lat="44.29647" lon="3.66598">
        <ele>656.2</ele>
        <time>2021-08-11T10:17:26Z</time>
      </trkpt>
      <trkpt lat="44.29646" lon="3.66591">
        <ele>657.4</ele>
        <time>2021-08-11T10:17:28Z</time>
      </trkpt>
      <trkpt lat="44.29648" lon="3.66587">
        <ele>657.5</ele>
        <time>2021-08-11T10:17:30Z</time>
      </trkpt>
      <trkpt lat="44.29648" lon="3.66582">
        <ele>658</ele>
        <time>2021-08-11T10:17:32Z</time>
      </trkpt>
      <trkpt lat="44.29648" lon="3.66576">
        <ele>659.1</ele>
        <time>2021-08-11T10:17:34Z</time>
      </trkpt>
      <trkpt lat="44.29648" lon="3.66571">
        <ele>659.5</ele>
        <time>2021-08-11T10:17:36Z</time>
      </trkpt>
      <trkpt lat="44.29649" lon="3.66566">
        <ele>659.8</ele>
        <time>2021-08-11T10:17:38Z</time>
      </trkpt>
      <trkpt lat="44.29649" lon="3.66561">
        <ele>660.6</ele>
        <time>2021-08-11T10:17:40Z</time>
      </trkpt>
      <trkpt lat="44.2965" lon="3.66556">
        <ele>661.1</ele>
        <time>2021-08-11T10:17:42Z</time>
      </trkpt>
      <trkpt lat="44.29651" lon="3.66552">
        <ele>661.4</ele>
        <time>2021-08-11T10:17:44Z</time>
      </trkpt>
      <trkpt lat="44.29652" lon="3.66547">
        <ele>661.8</ele>
        <time>2021-08-11T10:17:46Z</time>
      </trkpt>
      <trkpt lat="44.29653" lon="3.66542">
        <ele>662</ele>
        <time>2021-08-11T10:17:48Z</time>
      </trkpt>
      <trkpt lat="44.29653" lon="3.66538">
        <ele>662.6</ele>
        <time>2021-08-11T10:17:50Z</time>
      </trkpt>
      <trkpt lat="44.29654" lon="3.66534">
        <ele>662.7</ele>
        <time>2021-08-11T10:17:52Z</time>
      </trkpt>
      <trkpt lat="44.29655" lon="3.66529">
        <ele>663.2</ele>
        <time>2021-08-11T10:17:54Z</time>
      </trkpt>
      <trkpt lat="44.29656" lon="3.66525">
        <ele>663.6</ele>
        <time>2021-08-11T10:17:56Z</time>
      </trkpt>
      <trkpt lat="44.29657" lon="3.66521">
        <ele>663.8</ele>
        <time>2021-08-11T10:17:58Z</time>
      </trkpt>
      <trkpt lat="44.29658" lon="3.66517">
        <ele>663.7</ele>
        <time>2021-08-11T10:18:00Z</time>
      </trkpt>
      <trkpt lat="44.29658" lon="3.66512">
        <ele>664.6</ele>
        <time>2021-08-11T10:18:02Z</time>
      </trkpt>
      <trkpt lat="44.29659" lon="3.66507">
        <ele>665</ele>
        <time>2021-08-11T10:18:04Z</time>
      </trkpt>
      <trkpt lat="44.2966" lon="3.66502">
        <ele>665.3</ele>
        <time>2021-08-11T10:18:06Z</time>
      </trkpt>
      <trkpt lat="44.29661" lon="3.66498">
        <ele>665.6</ele>
        <time>2021-08-11T10:18:08Z</time>
      </trkpt>
      <trkpt lat="44.29663" lon="3.66494">
        <ele>665.6</ele>
        <time>2021-08-11T10:18:10Z</time>
      </trkpt>
      <trkpt lat="44.29664" lon="3.66489">
        <ele>665.9</ele>
        <time>2021-08-11T10:18:12Z</time>
      </trkpt>
      <trkpt lat="44.29665" lon="3.66485">
        <ele>666.3</ele>
        <time>2021-08-11T10:18:14Z</time>
      </trkpt>
      <trkpt lat="44.29666" lon="3.6648">
        <ele>666.8</ele>
        <time>2021-08-11T10:18:16Z</time>
      </trkpt>
      <trkpt lat="44.29667" lon="3.66475">
        <ele>667.1</ele>
        <time>2021-08-11T10:18:18Z</time>
      </trkpt>
      <trkpt lat="44.29669" lon="3.6647">
        <ele>667</ele>
        <time>2021-08-11T10:18:20Z</time>
      </trkpt>
      <trkpt lat="44.2967" lon="3.66465">
        <ele>667.5</ele>
        <time>2021-08-11T10:18:22Z</time>
      </trkpt>
      <trkpt lat="44.29671" lon="3.6646">
        <ele>667.9</ele>
        <time>2021-08-11T10:18:24Z</time>
      </trkpt>
      <trkpt lat="44.29672" lon="3.66455">
        <ele>668.2</ele>
        <time>2021-08-11T10:18:26Z</time>
      </trkpt>
      <trkpt lat="44.29674" lon="3.66451">
        <ele>668.1</ele>
        <time>2021-08-11T10:18:28Z</time>
      </trkpt>
      <trkpt lat="44.29676" lon="3.66447">
        <ele>667.9</ele>
        <time>2021-08-11T10:18:30Z</time>
      </trkpt>
      <trkpt lat="44.29677" lon="3.66442">
        <ele>668.3</ele>
        <time>2021-08-11T10:18:32Z</time>
      </trkpt>
      <trkpt lat="44.29677" lon="3.66437">
        <ele>668.8</ele>
        <time>2021-08-11T10:18:34Z</time>
      </trkpt>
      <trkpt lat="44.2968" lon="3.66433">
        <ele>668.6</ele>
        <time>2021-08-11T10:18:36Z</time>
      </trkpt>
      <trkpt lat="44.29681" lon="3.66428">
        <ele>668.9</ele>
        <time>2021-08-11T10:18:38Z</time>
      </trkpt>
      <trkpt lat="44.29683" lon="3.66423">
        <ele>668.5</ele>
        <time>2021-08-11T10:18:40Z</time>
      </trkpt>
      <trkpt lat="44.29685" lon="3.66419">
        <ele>668.5</ele>
        <time>2021-08-11T10:18:42Z</time>
      </trkpt>
      <trkpt lat="44.29687" lon="3.66415">
        <ele>668.4</ele>
        <time>2021-08-11T10:18:44Z</time>
      </trkpt>
      <trkpt lat="44.29691" lon="3.6641">
        <ele>667.5</ele>
        <time>2021-08-11T10:18:46Z</time>
      </trkpt>
      <trkpt lat="44.29692" lon="3.66406">
        <ele>667.5</ele>
        <time>2021-08-11T10:18:48Z</time>
      </trkpt>
      <trkpt lat="44.29695" lon="3.66403">
        <ele>667</ele>
        <time>2021-08-11T10:18:50Z</time>
      </trkpt>
      <trkpt lat="44.29696" lon="3.66398">
        <ele>667.1</ele>
        <time>2021-08-11T10:18:52Z</time>
      </trkpt>
      <trkpt lat="44.29699" lon="3.66394">
        <ele>666.6</ele>
        <time>2021-08-11T10:18:54Z</time>
      </trkpt>
      <trkpt lat="44.29701" lon="3.66391">
        <ele>666</ele>
        <time>2021-08-11T10:18:56Z</time>
      </trkpt>
      <trkpt lat="44.29704" lon="3.66387">
        <ele>665.7</ele>
        <time>2021-08-11T10:18:58Z</time>
      </trkpt>
      <trkpt lat="44.29705" lon="3.66383">
        <ele>665.7</ele>
        <time>2021-08-11T10:19:00Z</time>
      </trkpt>
      <trkpt lat="44.29707" lon="3.66379">
        <ele>665.6</ele>
        <time>2021-08-11T10:19:02Z</time>
      </trkpt>
      <trkpt lat="44.29708" lon="3.66374">
        <ele>665.9</ele>
        <time>2021-08-11T10:19:04Z</time>
      </trkpt>
      <trkpt lat="44.2971" lon="3.66371">
        <ele>665.7</ele>
        <time>2021-08-11T10:19:06Z</time>
      </trkpt>
      <trkpt lat="44.29713" lon="3.66367">
        <ele>665.3</ele>
        <time>2021-08-11T10:19:08Z</time>
      </trkpt>
      <trkpt lat="44.29714" lon="3.66363">
        <ele>665.3</ele>
        <time>2021-08-11T10:19:10Z</time>
      </trkpt>
      <trkpt lat="44.29716" lon="3.6636">
        <ele>665.2</ele>
        <time>2021-08-11T10:19:12Z</time>
      </trkpt>
      <trkpt lat="44.29718" lon="3.66355">
        <ele>665.5</ele>
        <time>2021-08-11T10:19:14Z</time>
      </trkpt>
      <trkpt lat="44.29719" lon="3.66351">
        <ele>665.5</ele>
        <time>2021-08-11T10:19:16Z</time>
      </trkpt>
      <trkpt lat="44.29721" lon="3.66347">
        <ele>665.4</ele>
        <time>2021-08-11T10:19:18Z</time>
      </trkpt>
      <trkpt lat="44.29723" lon="3.66343">
        <ele>665.5</ele>
        <time>2021-08-11T10:19:20Z</time>
      </trkpt>
      <trkpt lat="44.29725" lon="3.66339">
        <ele>665.4</ele>
        <time>2021-08-11T10:19:22Z</time>
      </trkpt>
      <trkpt lat="44.29727" lon="3.66335">
        <ele>665.1</ele>
        <time>2021-08-11T10:19:24Z</time>
      </trkpt>
      <trkpt lat="44.2973" lon="3.66331">
        <ele>664.3</ele>
        <time>2021-08-11T10:19:26Z</time>
      </trkpt>
      <trkpt lat="44.29731" lon="3.66326">
        <ele>663</ele>
        <time>2021-08-11T10:19:28Z</time>
      </trkpt>
      <trkpt lat="44.29732" lon="3.66321">
        <ele>662.1</ele>
        <time>2021-08-11T10:19:30Z</time>
      </trkpt>
      <trkpt lat="44.29733" lon="3.66317">
        <ele>661.2</ele>
        <time>2021-08-11T10:19:32Z</time>
      </trkpt>
      <trkpt lat="44.29732" lon="3.66313">
        <ele>661</ele>
        <time>2021-08-11T10:19:34Z</time>
      </trkpt>
      <trkpt lat="44.29729" lon="3.66309">
        <ele>661.8</ele>
        <time>2021-08-11T10:19:36Z</time>
      </trkpt>
      <trkpt lat="44.29725" lon="3.66308">
        <ele>662.8</ele>
        <time>2021-08-11T10:19:38Z</time>
      </trkpt>
      <trkpt lat="44.29722" lon="3.66309">
        <ele>664.1</ele>
        <time>2021-08-11T10:19:40Z</time>
      </trkpt>
      <trkpt lat="44.2972" lon="3.66312">
        <ele>665.5</ele>
        <time>2021-08-11T10:19:42Z</time>
      </trkpt>
      <trkpt lat="44.29717" lon="3.66316">
        <ele>666.9</ele>
        <time>2021-08-11T10:19:44Z</time>
      </trkpt>
      <trkpt lat="44.29715" lon="3.66319">
        <ele>668.1</ele>
        <time>2021-08-11T10:19:46Z</time>
      </trkpt>
      <trkpt lat="44.29714" lon="3.66324">
        <ele>669.2</ele>
        <time>2021-08-11T10:19:48Z</time>
      </trkpt>
      <trkpt lat="44.29713" lon="3.66328">
        <ele>670.2</ele>
        <time>2021-08-11T10:19:50Z</time>
      </trkpt>
      <trkpt lat="44.29712" lon="3.66333">
        <ele>671.2</ele>
        <time>2021-08-11T10:19:52Z</time>
      </trkpt>
      <trkpt lat="44.2971" lon="3.66337">
        <ele>671.2</ele>
        <time>2021-08-11T10:19:54Z</time>
      </trkpt>
      <trkpt lat="44.29709" lon="3.6634">
        <ele>671.2</ele>
        <time>2021-08-11T10:19:56Z</time>
      </trkpt>
      <trkpt lat="44.29708" lon="3.66345">
        <ele>670.9</ele>
        <time>2021-08-11T10:19:58Z</time>
      </trkpt>
      <trkpt lat="44.29706" lon="3.66348">
        <ele>671</ele>
        <time>2021-08-11T10:20:00Z</time>
      </trkpt>
      <trkpt lat="44.29704" lon="3.66352">
        <ele>671.2</ele>
        <time>2021-08-11T10:20:02Z</time>
      </trkpt>
      <trkpt lat="44.29702" lon="3.66355">
        <ele>671.4</ele>
        <time>2021-08-11T10:20:04Z</time>
      </trkpt>
      <trkpt lat="44.297" lon="3.66359">
        <ele>671.8</ele>
        <time>2021-08-11T10:20:06Z</time>
      </trkpt>
      <trkpt lat="44.29697" lon="3.66361">
        <ele>672.4</ele>
        <time>2021-08-11T10:20:08Z</time>
      </trkpt>
      <trkpt lat="44.29694" lon="3.66364">
        <ele>673</ele>
        <time>2021-08-11T10:20:10Z</time>
      </trkpt>
      <trkpt lat="44.29692" lon="3.66367">
        <ele>673.6</ele>
        <time>2021-08-11T10:20:12Z</time>
      </trkpt>
      <trkpt lat="44.29689" lon="3.6637">
        <ele>674.2</ele>
        <time>2021-08-11T10:20:14Z</time>
      </trkpt>
      <trkpt lat="44.29686" lon="3.66373">
        <ele>675.1</ele>
        <time>2021-08-11T10:20:16Z</time>
      </trkpt>
      <trkpt lat="44.29684" lon="3.66376">
        <ele>675.5</ele>
        <time>2021-08-11T10:20:18Z</time>
      </trkpt>
      <trkpt lat="44.29681" lon="3.66379">
        <ele>676.2</ele>
        <time>2021-08-11T10:20:20Z</time>
      </trkpt>
      <trkpt lat="44.29678" lon="3.66382">
        <ele>676.8</ele>
        <time>2021-08-11T10:20:22Z</time>
      </trkpt>
      <trkpt lat="44.29675" lon="3.66385">
        <ele>677.6</ele>
        <time>2021-08-11T10:20:24Z</time>
      </trkpt>
      <trkpt lat="44.29672" lon="3.66388">
        <ele>678.5</ele>
        <time>2021-08-11T10:20:26Z</time>
      </trkpt>
      <trkpt lat="44.29669" lon="3.66391">
        <ele>679.4</ele>
        <time>2021-08-11T10:20:28Z</time>
      </trkpt>
      <trkpt lat="44.29666" lon="3.66394">
        <ele>680.3</ele>
        <time>2021-08-11T10:20:30Z</time>
      </trkpt>
      <trkpt lat="44.29663" lon="3.66396">
        <ele>681.2</ele>
        <time>2021-08-11T10:20:32Z</time>
      </trkpt>
      <trkpt lat="44.29661" lon="3.66399">
        <ele>681.9</ele>
        <time>2021-08-11T10:20:34Z</time>
      </trkpt>
      <trkpt lat="44.29658" lon="3.66403">
        <ele>682.7</ele>
        <time>2021-08-11T10:20:36Z</time>
      </trkpt>
      <trkpt lat="44.29654" lon="3.66406">
        <ele>683.7</ele>
        <time>2021-08-11T10:20:38Z</time>
      </trkpt>
      <trkpt lat="44.29652" lon="3.66409">
        <ele>684.4</ele>
        <time>2021-08-11T10:20:40Z</time>
      </trkpt>
      <trkpt lat="44.29649" lon="3.66412">
        <ele>685.1</ele>
        <time>2021-08-11T10:20:42Z</time>
      </trkpt>
      <trkpt lat="44.29646" lon="3.66414">
        <ele>685.9</ele>
        <time>2021-08-11T10:20:44Z</time>
      </trkpt>
      <trkpt lat="44.29644" lon="3.66418">
        <ele>686.3</ele>
        <time>2021-08-11T10:20:46Z</time>
      </trkpt>
      <trkpt lat="44.29642" lon="3.66422">
        <ele>686.6</ele>
        <time>2021-08-11T10:20:48Z</time>
      </trkpt>
      <trkpt lat="44.29639" lon="3.66425">
        <ele>687</ele>
        <time>2021-08-11T10:20:50Z</time>
      </trkpt>
      <trkpt lat="44.29636" lon="3.66429">
        <ele>687.8</ele>
        <time>2021-08-11T10:20:52Z</time>
      </trkpt>
      <trkpt lat="44.29633" lon="3.66431">
        <ele>688.8</ele>
        <time>2021-08-11T10:20:54Z</time>
      </trkpt>
      <trkpt lat="44.2963" lon="3.66434">
        <ele>689.3</ele>
        <time>2021-08-11T10:20:56Z</time>
      </trkpt>
      <trkpt lat="44.29628" lon="3.66437">
        <ele>690</ele>
        <time>2021-08-11T10:20:58Z</time>
      </trkpt>
      <trkpt lat="44.29625" lon="3.6644">
        <ele>690.5</ele>
        <time>2021-08-11T10:21:00Z</time>
      </trkpt>
      <trkpt lat="44.29623" lon="3.66444">
        <ele>690.9</ele>
        <time>2021-08-11T10:21:02Z</time>
      </trkpt>
      <trkpt lat="44.29621" lon="3.66449">
        <ele>690.8</ele>
        <time>2021-08-11T10:21:04Z</time>
      </trkpt>
      <trkpt lat="44.29619" lon="3.66452">
        <ele>691.3</ele>
        <time>2021-08-11T10:21:06Z</time>
      </trkpt>
      <trkpt lat="44.29616" lon="3.66455">
        <ele>691.7</ele>
        <time>2021-08-11T10:21:08Z</time>
      </trkpt>
      <trkpt lat="44.29614" lon="3.6646">
        <ele>691.9</ele>
        <time>2021-08-11T10:21:10Z</time>
      </trkpt>
      <trkpt lat="44.29611" lon="3.66462">
        <ele>692.8</ele>
        <time>2021-08-11T10:21:12Z</time>
      </trkpt>
      <trkpt lat="44.29608" lon="3.66465">
        <ele>693.6</ele>
        <time>2021-08-11T10:21:14Z</time>
      </trkpt>
      <trkpt lat="44.29605" lon="3.66468">
        <ele>694.2</ele>
        <time>2021-08-11T10:21:16Z</time>
      </trkpt>
      <trkpt lat="44.29602" lon="3.66471">
        <ele>694.9</ele>
        <time>2021-08-11T10:21:18Z</time>
      </trkpt>
      <trkpt lat="44.29599" lon="3.66474">
        <ele>695.8</ele>
        <time>2021-08-11T10:21:20Z</time>
      </trkpt>
      <trkpt lat="44.29597" lon="3.66477">
        <ele>696.1</ele>
        <time>2021-08-11T10:21:22Z</time>
      </trkpt>
      <trkpt lat="44.29595" lon="3.66481">
        <ele>696.4</ele>
        <time>2021-08-11T10:21:24Z</time>
      </trkpt>
      <trkpt lat="44.29592" lon="3.66483">
        <ele>697</ele>
        <time>2021-08-11T10:21:26Z</time>
      </trkpt>
      <trkpt lat="44.29589" lon="3.66486">
        <ele>697.8</ele>
        <time>2021-08-11T10:21:28Z</time>
      </trkpt>
      <trkpt lat="44.29587" lon="3.6649">
        <ele>698</ele>
        <time>2021-08-11T10:21:30Z</time>
      </trkpt>
      <trkpt lat="44.29585" lon="3.66493">
        <ele>698.7</ele>
        <time>2021-08-11T10:21:32Z</time>
      </trkpt>
      <trkpt lat="44.29583" lon="3.66497">
        <ele>698.6</ele>
        <time>2021-08-11T10:21:34Z</time>
      </trkpt>
      <trkpt lat="44.2958" lon="3.665">
        <ele>699.4</ele>
        <time>2021-08-11T10:21:36Z</time>
      </trkpt>
      <trkpt lat="44.29577" lon="3.66504">
        <ele>700.1</ele>
        <time>2021-08-11T10:21:38Z</time>
      </trkpt>
      <trkpt lat="44.29575" lon="3.66508">
        <ele>700.5</ele>
        <time>2021-08-11T10:21:40Z</time>
      </trkpt>
      <trkpt lat="44.29574" lon="3.66513">
        <ele>700.4</ele>
        <time>2021-08-11T10:21:42Z</time>
      </trkpt>
      <trkpt lat="44.29572" lon="3.66517">
        <ele>700.9</ele>
        <time>2021-08-11T10:21:44Z</time>
      </trkpt>
      <trkpt lat="44.2957" lon="3.66521">
        <ele>701.3</ele>
        <time>2021-08-11T10:21:46Z</time>
      </trkpt>
      <trkpt lat="44.29567" lon="3.66525">
        <ele>701.7</ele>
        <time>2021-08-11T10:21:48Z</time>
      </trkpt>
      <trkpt lat="44.29566" lon="3.66529">
        <ele>701.7</ele>
        <time>2021-08-11T10:21:50Z</time>
      </trkpt>
      <trkpt lat="44.29565" lon="3.66533">
        <ele>701.7</ele>
        <time>2021-08-11T10:21:52Z</time>
      </trkpt>
      <trkpt lat="44.29563" lon="3.66538">
        <ele>701.6</ele>
        <time>2021-08-11T10:21:54Z</time>
      </trkpt>
      <trkpt lat="44.29562" lon="3.66542">
        <ele>701.5</ele>
        <time>2021-08-11T10:21:56Z</time>
      </trkpt>
      <trkpt lat="44.2956" lon="3.66546">
        <ele>701.7</ele>
        <time>2021-08-11T10:21:58Z</time>
      </trkpt>
      <trkpt lat="44.29559" lon="3.66551">
        <ele>701.4</ele>
        <time>2021-08-11T10:22:00Z</time>
      </trkpt>
      <trkpt lat="44.29557" lon="3.66556">
        <ele>701.5</ele>
        <time>2021-08-11T10:22:02Z</time>
      </trkpt>
      <trkpt lat="44.29555" lon="3.6656">
        <ele>701.5</ele>
        <time>2021-08-11T10:22:04Z</time>
      </trkpt>
      <trkpt lat="44.29554" lon="3.66565">
        <ele>701.1</ele>
        <time>2021-08-11T10:22:06Z</time>
      </trkpt>
      <trkpt lat="44.29553" lon="3.66568">
        <ele>701.3</ele>
        <time>2021-08-11T10:22:08Z</time>
      </trkpt>
      <trkpt lat="44.29551" lon="3.66572">
        <ele>701.3</ele>
        <time>2021-08-11T10:22:10Z</time>
      </trkpt>
      <trkpt lat="44.2955" lon="3.66576">
        <ele>701.2</ele>
        <time>2021-08-11T10:22:12Z</time>
      </trkpt>
      <trkpt lat="44.29548" lon="3.6658">
        <ele>701.4</ele>
        <time>2021-08-11T10:22:14Z</time>
      </trkpt>
      <trkpt lat="44.29546" lon="3.66585">
        <ele>701.2</ele>
        <time>2021-08-11T10:22:16Z</time>
      </trkpt>
      <trkpt lat="44.29544" lon="3.66588">
        <ele>701.6</ele>
        <time>2021-08-11T10:22:18Z</time>
      </trkpt>
      <trkpt lat="44.29541" lon="3.66591">
        <ele>702</ele>
        <time>2021-08-11T10:22:20Z</time>
      </trkpt>
      <trkpt lat="44.2954" lon="3.66596">
        <ele>701.8</ele>
        <time>2021-08-11T10:22:22Z</time>
      </trkpt>
      <trkpt lat="44.29538" lon="3.66599">
        <ele>702.1</ele>
        <time>2021-08-11T10:22:24Z</time>
      </trkpt>
      <trkpt lat="44.29535" lon="3.66602">
        <ele>702.5</ele>
        <time>2021-08-11T10:22:26Z</time>
      </trkpt>
      <trkpt lat="44.29534" lon="3.66606">
        <ele>702.6</ele>
        <time>2021-08-11T10:22:28Z</time>
      </trkpt>
      <trkpt lat="44.29532" lon="3.6661">
        <ele>702.7</ele>
        <time>2021-08-11T10:22:30Z</time>
      </trkpt>
      <trkpt lat="44.29531" lon="3.66613">
        <ele>702.6</ele>
        <time>2021-08-11T10:22:32Z</time>
      </trkpt>
      <trkpt lat="44.29528" lon="3.66617">
        <ele>702.9</ele>
        <time>2021-08-11T10:22:34Z</time>
      </trkpt>
      <trkpt lat="44.29526" lon="3.66621">
        <ele>703.1</ele>
        <time>2021-08-11T10:22:36Z</time>
      </trkpt>
      <trkpt lat="44.29525" lon="3.66626">
        <ele>702.9</ele>
        <time>2021-08-11T10:22:38Z</time>
      </trkpt>
      <trkpt lat="44.29523" lon="3.66629">
        <ele>703.3</ele>
        <time>2021-08-11T10:22:40Z</time>
      </trkpt>
      <trkpt lat="44.29521" lon="3.66633">
        <ele>703.6</ele>
        <time>2021-08-11T10:22:42Z</time>
      </trkpt>
      <trkpt lat="44.2952" lon="3.66636">
        <ele>703.5</ele>
        <time>2021-08-11T10:22:44Z</time>
      </trkpt>
      <trkpt lat="44.29517" lon="3.66639">
        <ele>704.1</ele>
        <time>2021-08-11T10:22:46Z</time>
      </trkpt>
      <trkpt lat="44.29515" lon="3.66643">
        <ele>704.3</ele>
        <time>2021-08-11T10:22:48Z</time>
      </trkpt>
      <trkpt lat="44.29512" lon="3.66647">
        <ele>704.8</ele>
        <time>2021-08-11T10:22:50Z</time>
      </trkpt>
      <trkpt lat="44.2951" lon="3.66651">
        <ele>705.2</ele>
        <time>2021-08-11T10:22:52Z</time>
      </trkpt>
      <trkpt lat="44.29508" lon="3.66656">
        <ele>705.3</ele>
        <time>2021-08-11T10:22:54Z</time>
      </trkpt>
      <trkpt lat="44.29507" lon="3.6666">
        <ele>705.1</ele>
        <time>2021-08-11T10:22:56Z</time>
      </trkpt>
      <trkpt lat="44.29505" lon="3.66665">
        <ele>705.2</ele>
        <time>2021-08-11T10:22:58Z</time>
      </trkpt>
      <trkpt lat="44.29503" lon="3.66669">
        <ele>705.4</ele>
        <time>2021-08-11T10:23:00Z</time>
      </trkpt>
      <trkpt lat="44.29501" lon="3.66673">
        <ele>705.4</ele>
        <time>2021-08-11T10:23:02Z</time>
      </trkpt>
      <trkpt lat="44.29498" lon="3.66676">
        <ele>705.7</ele>
        <time>2021-08-11T10:23:04Z</time>
      </trkpt>
      <trkpt lat="44.29496" lon="3.66681">
        <ele>705.5</ele>
        <time>2021-08-11T10:23:06Z</time>
      </trkpt>
      <trkpt lat="44.29494" lon="3.66684">
        <ele>705.7</ele>
        <time>2021-08-11T10:23:08Z</time>
      </trkpt>
      <trkpt lat="44.29492" lon="3.66687">
        <ele>705.9</ele>
        <time>2021-08-11T10:23:10Z</time>
      </trkpt>
      <trkpt lat="44.29489" lon="3.66692">
        <ele>706</ele>
        <time>2021-08-11T10:23:12Z</time>
      </trkpt>
      <trkpt lat="44.29486" lon="3.66696">
        <ele>706.2</ele>
        <time>2021-08-11T10:23:14Z</time>
      </trkpt>
      <trkpt lat="44.29482" lon="3.66699">
        <ele>707</ele>
        <time>2021-08-11T10:23:16Z</time>
      </trkpt>
      <trkpt lat="44.29479" lon="3.66697">
        <ele>708.6</ele>
        <time>2021-08-11T10:23:18Z</time>
      </trkpt>
      <trkpt lat="44.29477" lon="3.66693">
        <ele>710.4</ele>
        <time>2021-08-11T10:23:20Z</time>
      </trkpt>
      <trkpt lat="44.29476" lon="3.66688">
        <ele>711.5</ele>
        <time>2021-08-11T10:23:22Z</time>
      </trkpt>
      <trkpt lat="44.29478" lon="3.66683">
        <ele>712.2</ele>
        <time>2021-08-11T10:23:24Z</time>
      </trkpt>
      <trkpt lat="44.29478" lon="3.66678">
        <ele>713</ele>
        <time>2021-08-11T10:23:26Z</time>
      </trkpt>
      <trkpt lat="44.2948" lon="3.66674">
        <ele>713</ele>
        <time>2021-08-11T10:23:28Z</time>
      </trkpt>
      <trkpt lat="44.29483" lon="3.66669">
        <ele>713.2</ele>
        <time>2021-08-11T10:23:30Z</time>
      </trkpt>
      <trkpt lat="44.29484" lon="3.66664">
        <ele>713.4</ele>
        <time>2021-08-11T10:23:32Z</time>
      </trkpt>
      <trkpt lat="44.29486" lon="3.6666">
        <ele>713.3</ele>
        <time>2021-08-11T10:23:34Z</time>
      </trkpt>
      <trkpt lat="44.29488" lon="3.66656">
        <ele>713.1</ele>
        <time>2021-08-11T10:23:36Z</time>
      </trkpt>
      <trkpt lat="44.29489" lon="3.66651">
        <ele>713.4</ele>
        <time>2021-08-11T10:23:38Z</time>
      </trkpt>
      <trkpt lat="44.29489" lon="3.66647">
        <ele>713.8</ele>
        <time>2021-08-11T10:23:40Z</time>
      </trkpt>
      <trkpt lat="44.29491" lon="3.66642">
        <ele>713.8</ele>
        <time>2021-08-11T10:23:42Z</time>
      </trkpt>
      <trkpt lat="44.29492" lon="3.66637">
        <ele>714.2</ele>
        <time>2021-08-11T10:23:44Z</time>
      </trkpt>
      <trkpt lat="44.29492" lon="3.66633">
        <ele>714.6</ele>
        <time>2021-08-11T10:23:46Z</time>
      </trkpt>
      <trkpt lat="44.29493" lon="3.6663">
        <ele>714.7</ele>
        <time>2021-08-11T10:23:48Z</time>
      </trkpt>
      <trkpt lat="44.29494" lon="3.66626">
        <ele>714.8</ele>
        <time>2021-08-11T10:23:50Z</time>
      </trkpt>
      <trkpt lat="44.29495" lon="3.66622">
        <ele>714.9</ele>
        <time>2021-08-11T10:23:52Z</time>
      </trkpt>
      <trkpt lat="44.29496" lon="3.66619">
        <ele>715</ele>
        <time>2021-08-11T10:23:54Z</time>
      </trkpt>
      <trkpt lat="44.29497" lon="3.66614">
        <ele>715.2</ele>
        <time>2021-08-11T10:23:56Z</time>
      </trkpt>
      <trkpt lat="44.29498" lon="3.6661">
        <ele>715.3</ele>
        <time>2021-08-11T10:23:58Z</time>
      </trkpt>
      <trkpt lat="44.29498" lon="3.66605">
        <ele>715.9</ele>
        <time>2021-08-11T10:24:00Z</time>
      </trkpt>
      <trkpt lat="44.29499" lon="3.66601">
        <ele>716</ele>
        <time>2021-08-11T10:24:02Z</time>
      </trkpt>
      <trkpt lat="44.29501" lon="3.66596">
        <ele>716.1</ele>
        <time>2021-08-11T10:24:04Z</time>
      </trkpt>
      <trkpt lat="44.29501" lon="3.66591">
        <ele>716.6</ele>
        <time>2021-08-11T10:24:06Z</time>
      </trkpt>
      <trkpt lat="44.29502" lon="3.66587">
        <ele>716.9</ele>
        <time>2021-08-11T10:24:08Z</time>
      </trkpt>
      <trkpt lat="44.29502" lon="3.66581">
        <ele>717.8</ele>
        <time>2021-08-11T10:24:10Z</time>
      </trkpt>
      <trkpt lat="44.29502" lon="3.66576">
        <ele>718.7</ele>
        <time>2021-08-11T10:24:12Z</time>
      </trkpt>
      <trkpt lat="44.29502" lon="3.66572">
        <ele>719.6</ele>
        <time>2021-08-11T10:24:14Z</time>
      </trkpt>
      <trkpt lat="44.29504" lon="3.66566">
        <ele>720.1</ele>
        <time>2021-08-11T10:24:16Z</time>
      </trkpt>
      <trkpt lat="44.29504" lon="3.66562">
        <ele>720.7</ele>
        <time>2021-08-11T10:24:18Z</time>
      </trkpt>
      <trkpt lat="44.29507" lon="3.66557">
        <ele>720.8</ele>
        <time>2021-08-11T10:24:20Z</time>
      </trkpt>
      <trkpt lat="44.29508" lon="3.66554">
        <ele>720.8</ele>
        <time>2021-08-11T10:24:22Z</time>
      </trkpt>
      <trkpt lat="44.29509" lon="3.66549">
        <ele>721.4</ele>
        <time>2021-08-11T10:24:24Z</time>
      </trkpt>
      <trkpt lat="44.29511" lon="3.66545">
        <ele>721.4</ele>
        <time>2021-08-11T10:24:26Z</time>
      </trkpt>
      <trkpt lat="44.29511" lon="3.66542">
        <ele>721.9</ele>
        <time>2021-08-11T10:24:28Z</time>
      </trkpt>
      <trkpt lat="44.29512" lon="3.66536">
        <ele>722.6</ele>
        <time>2021-08-11T10:24:30Z</time>
      </trkpt>
      <trkpt lat="44.29514" lon="3.66532">
        <ele>722.7</ele>
        <time>2021-08-11T10:24:32Z</time>
      </trkpt>
      <trkpt lat="44.29515" lon="3.66528">
        <ele>723.1</ele>
        <time>2021-08-11T10:24:34Z</time>
      </trkpt>
      <trkpt lat="44.29516" lon="3.66523">
        <ele>723.7</ele>
        <time>2021-08-11T10:24:36Z</time>
      </trkpt>
      <trkpt lat="44.29517" lon="3.66518">
        <ele>724.2</ele>
        <time>2021-08-11T10:24:38Z</time>
      </trkpt>
      <trkpt lat="44.29518" lon="3.66514">
        <ele>724.4</ele>
        <time>2021-08-11T10:24:40Z</time>
      </trkpt>
      <trkpt lat="44.29519" lon="3.6651">
        <ele>724.9</ele>
        <time>2021-08-11T10:24:42Z</time>
      </trkpt>
      <trkpt lat="44.2952" lon="3.66506">
        <ele>725</ele>
        <time>2021-08-11T10:24:44Z</time>
      </trkpt>
      <trkpt lat="44.29521" lon="3.66501">
        <ele>725.6</ele>
        <time>2021-08-11T10:24:46Z</time>
      </trkpt>
      <trkpt lat="44.29522" lon="3.66497">
        <ele>725.9</ele>
        <time>2021-08-11T10:24:48Z</time>
      </trkpt>
      <trkpt lat="44.29524" lon="3.66492">
        <ele>725.9</ele>
        <time>2021-08-11T10:24:50Z</time>
      </trkpt>
      <trkpt lat="44.29525" lon="3.66488">
        <ele>726.3</ele>
        <time>2021-08-11T10:24:52Z</time>
      </trkpt>
      <trkpt lat="44.29525" lon="3.66482">
        <ele>727.4</ele>
        <time>2021-08-11T10:24:54Z</time>
      </trkpt>
      <trkpt lat="44.29525" lon="3.66477">
        <ele>728.2</ele>
        <time>2021-08-11T10:24:56Z</time>
      </trkpt>
      <trkpt lat="44.29527" lon="3.66473">
        <ele>728.2</ele>
        <time>2021-08-11T10:24:58Z</time>
      </trkpt>
      <trkpt lat="44.29528" lon="3.66468">
        <ele>728.5</ele>
        <time>2021-08-11T10:25:00Z</time>
      </trkpt>
      <trkpt lat="44.29531" lon="3.66463">
        <ele>728.2</ele>
        <time>2021-08-11T10:25:02Z</time>
      </trkpt>
      <trkpt lat="44.29533" lon="3.66458">
        <ele>728.4</ele>
        <time>2021-08-11T10:25:04Z</time>
      </trkpt>
      <trkpt lat="44.29535" lon="3.66454">
        <ele>728.4</ele>
        <time>2021-08-11T10:25:06Z</time>
      </trkpt>
      <trkpt lat="44.29536" lon="3.66449">
        <ele>728.8</ele>
        <time>2021-08-11T10:25:08Z</time>
      </trkpt>
      <trkpt lat="44.29537" lon="3.66445">
        <ele>729.1</ele>
        <time>2021-08-11T10:25:10Z</time>
      </trkpt>
      <trkpt lat="44.29539" lon="3.66441">
        <ele>728.5</ele>
        <time>2021-08-11T10:25:12Z</time>
      </trkpt>
      <trkpt lat="44.29541" lon="3.66438">
        <ele>728.2</ele>
        <time>2021-08-11T10:25:14Z</time>
      </trkpt>
      <trkpt lat="44.29544" lon="3.66434">
        <ele>727.9</ele>
        <time>2021-08-11T10:25:16Z</time>
      </trkpt>
      <trkpt lat="44.29546" lon="3.66429">
        <ele>727.6</ele>
        <time>2021-08-11T10:25:18Z</time>
      </trkpt>
      <trkpt lat="44.29548" lon="3.66425">
        <ele>727.6</ele>
        <time>2021-08-11T10:25:20Z</time>
      </trkpt>
      <trkpt lat="44.2955" lon="3.66422">
        <ele>727.1</ele>
        <time>2021-08-11T10:25:22Z</time>
      </trkpt>
      <trkpt lat="44.29553" lon="3.66418">
        <ele>726.5</ele>
        <time>2021-08-11T10:25:24Z</time>
      </trkpt>
      <trkpt lat="44.29555" lon="3.66414">
        <ele>725.9</ele>
        <time>2021-08-11T10:25:26Z</time>
      </trkpt>
      <trkpt lat="44.29556" lon="3.6641">
        <ele>726.3</ele>
        <time>2021-08-11T10:25:28Z</time>
      </trkpt>
      <trkpt lat="44.29557" lon="3.66407">
        <ele>726.1</ele>
        <time>2021-08-11T10:25:30Z</time>
      </trkpt>
      <trkpt lat="44.29559" lon="3.66403">
        <ele>726.1</ele>
        <time>2021-08-11T10:25:32Z</time>
      </trkpt>
      <trkpt lat="44.2956" lon="3.664">
        <ele>725.9</ele>
        <time>2021-08-11T10:25:34Z</time>
      </trkpt>
      <trkpt lat="44.29561" lon="3.66395">
        <ele>726.3</ele>
        <time>2021-08-11T10:25:36Z</time>
      </trkpt>
      <trkpt lat="44.29563" lon="3.66391">
        <ele>726.4</ele>
        <time>2021-08-11T10:25:38Z</time>
      </trkpt>
      <trkpt lat="44.29564" lon="3.66387">
        <ele>726.5</ele>
        <time>2021-08-11T10:25:40Z</time>
      </trkpt>
      <trkpt lat="44.29566" lon="3.66383">
        <ele>726.3</ele>
        <time>2021-08-11T10:25:42Z</time>
      </trkpt>
      <trkpt lat="44.29568" lon="3.6638">
        <ele>725.9</ele>
        <time>2021-08-11T10:25:44Z</time>
      </trkpt>
      <trkpt lat="44.2957" lon="3.66376">
        <ele>726</ele>
        <time>2021-08-11T10:25:46Z</time>
      </trkpt>
      <trkpt lat="44.29571" lon="3.66372">
        <ele>726</ele>
        <time>2021-08-11T10:25:48Z</time>
      </trkpt>
      <trkpt lat="44.29574" lon="3.66368">
        <ele>725.7</ele>
        <time>2021-08-11T10:25:50Z</time>
      </trkpt>
      <trkpt lat="44.29575" lon="3.66362">
        <ele>726.3</ele>
        <time>2021-08-11T10:25:52Z</time>
      </trkpt>
      <trkpt lat="44.29577" lon="3.66358">
        <ele>726.2</ele>
        <time>2021-08-11T10:25:54Z</time>
      </trkpt>
      <trkpt lat="44.29579" lon="3.66354">
        <ele>725.8</ele>
        <time>2021-08-11T10:25:56Z</time>
      </trkpt>
      <trkpt lat="44.29581" lon="3.66349">
        <ele>726</ele>
        <time>2021-08-11T10:25:58Z</time>
      </trkpt>
      <trkpt lat="44.29583" lon="3.66344">
        <ele>726.2</ele>
        <time>2021-08-11T10:26:00Z</time>
      </trkpt>
      <trkpt lat="44.29584" lon="3.66339">
        <ele>726.4</ele>
        <time>2021-08-11T10:26:02Z</time>
      </trkpt>
      <trkpt lat="44.29584" lon="3.66334">
        <ele>727.5</ele>
        <time>2021-08-11T10:26:04Z</time>
      </trkpt>
      <trkpt lat="44.29586" lon="3.6633">
        <ele>726.5</ele>
        <time>2021-08-11T10:26:06Z</time>
      </trkpt>
      <trkpt lat="44.29586" lon="3.66325">
        <ele>725.6</ele>
        <time>2021-08-11T10:26:08Z</time>
      </trkpt>
      <trkpt lat="44.29587" lon="3.66321">
        <ele>724.9</ele>
        <time>2021-08-11T10:26:10Z</time>
      </trkpt>
      <trkpt lat="44.29587" lon="3.66317">
        <ele>724.1</ele>
        <time>2021-08-11T10:26:12Z</time>
      </trkpt>
      <trkpt lat="44.29587" lon="3.66312">
        <ele>723.5</ele>
        <time>2021-08-11T10:26:14Z</time>
      </trkpt>
      <trkpt lat="44.29587" lon="3.66308">
        <ele>723.4</ele>
        <time>2021-08-11T10:26:16Z</time>
      </trkpt>
      <trkpt lat="44.29586" lon="3.66304">
        <ele>723.2</ele>
        <time>2021-08-11T10:26:18Z</time>
      </trkpt>
      <trkpt lat="44.29584" lon="3.66301">
        <ele>724</ele>
        <time>2021-08-11T10:26:20Z</time>
      </trkpt>
      <trkpt lat="44.29582" lon="3.66298">
        <ele>724.5</ele>
        <time>2021-08-11T10:26:22Z</time>
      </trkpt>
      <trkpt lat="44.29579" lon="3.66294">
        <ele>725.1</ele>
        <time>2021-08-11T10:26:24Z</time>
      </trkpt>
      <trkpt lat="44.29578" lon="3.66292">
        <ele>725.5</ele>
        <time>2021-08-11T10:26:26Z</time>
      </trkpt>
      <trkpt lat="44.29575" lon="3.66288">
        <ele>726.2</ele>
        <time>2021-08-11T10:26:28Z</time>
      </trkpt>
      <trkpt lat="44.29574" lon="3.66285">
        <ele>726.3</ele>
        <time>2021-08-11T10:26:30Z</time>
      </trkpt>
      <trkpt lat="44.29571" lon="3.66281">
        <ele>727</ele>
        <time>2021-08-11T10:26:32Z</time>
      </trkpt>
      <trkpt lat="44.29569" lon="3.66278">
        <ele>727.4</ele>
        <time>2021-08-11T10:26:34Z</time>
      </trkpt>
      <trkpt lat="44.29568" lon="3.66273">
        <ele>727.7</ele>
        <time>2021-08-11T10:26:36Z</time>
      </trkpt>
      <trkpt lat="44.29565" lon="3.6627">
        <ele>728.6</ele>
        <time>2021-08-11T10:26:38Z</time>
      </trkpt>
      <trkpt lat="44.29563" lon="3.66267">
        <ele>729.3</ele>
        <time>2021-08-11T10:26:40Z</time>
      </trkpt>
      <trkpt lat="44.29559" lon="3.66266">
        <ele>730.6</ele>
        <time>2021-08-11T10:26:42Z</time>
      </trkpt>
      <trkpt lat="44.29556" lon="3.66265">
        <ele>732.1</ele>
        <time>2021-08-11T10:26:44Z</time>
      </trkpt>
      <trkpt lat="44.29554" lon="3.66268">
        <ele>733.5</ele>
        <time>2021-08-11T10:26:46Z</time>
      </trkpt>
      <trkpt lat="44.29553" lon="3.66273">
        <ele>734.2</ele>
        <time>2021-08-11T10:26:48Z</time>
      </trkpt>
      <trkpt lat="44.29554" lon="3.66277">
        <ele>734.4</ele>
        <time>2021-08-11T10:26:50Z</time>
      </trkpt>
      <trkpt lat="44.29555" lon="3.66281">
        <ele>734.1</ele>
        <time>2021-08-11T10:26:52Z</time>
      </trkpt>
      <trkpt lat="44.29558" lon="3.66284">
        <ele>733.4</ele>
        <time>2021-08-11T10:26:54Z</time>
      </trkpt>
      <trkpt lat="44.2956" lon="3.66287">
        <ele>732.9</ele>
        <time>2021-08-11T10:26:56Z</time>
      </trkpt>
      <trkpt lat="44.29562" lon="3.6629">
        <ele>732.3</ele>
        <time>2021-08-11T10:26:58Z</time>
      </trkpt>
      <trkpt lat="44.29565" lon="3.66293">
        <ele>731.3</ele>
        <time>2021-08-11T10:27:00Z</time>
      </trkpt>
      <trkpt lat="44.29568" lon="3.66296">
        <ele>730.3</ele>
        <time>2021-08-11T10:27:02Z</time>
      </trkpt>
      <trkpt lat="44.2957" lon="3.66299">
        <ele>729.7</ele>
        <time>2021-08-11T10:27:04Z</time>
      </trkpt>
      <trkpt lat="44.29571" lon="3.66303">
        <ele>729.7</ele>
        <time>2021-08-11T10:27:06Z</time>
      </trkpt>
      <trkpt lat="44.29571" lon="3.66307">
        <ele>730.2</ele>
        <time>2021-08-11T10:27:08Z</time>
      </trkpt>
      <trkpt lat="44.2957" lon="3.66312">
        <ele>731.1</ele>
        <time>2021-08-11T10:27:10Z</time>
      </trkpt>
      <trkpt lat="44.2957" lon="3.66316">
        <ele>731.8</ele>
        <time>2021-08-11T10:27:12Z</time>
      </trkpt>
      <trkpt lat="44.29567" lon="3.66319">
        <ele>733.2</ele>
        <time>2021-08-11T10:27:14Z</time>
      </trkpt>
      <trkpt lat="44.29565" lon="3.66323">
        <ele>734.5</ele>
        <time>2021-08-11T10:27:16Z</time>
      </trkpt>
      <trkpt lat="44.29564" lon="3.66326">
        <ele>735.2</ele>
        <time>2021-08-11T10:27:18Z</time>
      </trkpt>
      <trkpt lat="44.29562" lon="3.66331">
        <ele>736.5</ele>
        <time>2021-08-11T10:27:20Z</time>
      </trkpt>
      <trkpt lat="44.2956" lon="3.66334">
        <ele>737.5</ele>
        <time>2021-08-11T10:27:22Z</time>
      </trkpt>
      <trkpt lat="44.29558" lon="3.66338">
        <ele>737.8</ele>
        <time>2021-08-11T10:27:24Z</time>
      </trkpt>
      <trkpt lat="44.29555" lon="3.66341">
        <ele>738.4</ele>
        <time>2021-08-11T10:27:26Z</time>
      </trkpt>
      <trkpt lat="44.29553" lon="3.66345">
        <ele>738.9</ele>
        <time>2021-08-11T10:27:28Z</time>
      </trkpt>
      <trkpt lat="44.2955" lon="3.66348">
        <ele>739.3</ele>
        <time>2021-08-11T10:27:30Z</time>
      </trkpt>
      <trkpt lat="44.29548" lon="3.66352">
        <ele>739.5</ele>
        <time>2021-08-11T10:27:32Z</time>
      </trkpt>
      <trkpt lat="44.29545" lon="3.66355">
        <ele>740.3</ele>
        <time>2021-08-11T10:27:34Z</time>
      </trkpt>
      <trkpt lat="44.29544" lon="3.66359">
        <ele>740.4</ele>
        <time>2021-08-11T10:27:36Z</time>
      </trkpt>
      <trkpt lat="44.29542" lon="3.66362">
        <ele>740.8</ele>
        <time>2021-08-11T10:27:38Z</time>
      </trkpt>
      <trkpt lat="44.29539" lon="3.66366">
        <ele>741.4</ele>
        <time>2021-08-11T10:27:40Z</time>
      </trkpt>
      <trkpt lat="44.29537" lon="3.6637">
        <ele>741.9</ele>
        <time>2021-08-11T10:27:42Z</time>
      </trkpt>
      <trkpt lat="44.29534" lon="3.66373">
        <ele>742.3</ele>
        <time>2021-08-11T10:27:44Z</time>
      </trkpt>
      <trkpt lat="44.29532" lon="3.66377">
        <ele>742.7</ele>
        <time>2021-08-11T10:27:46Z</time>
      </trkpt>
      <trkpt lat="44.2953" lon="3.6638">
        <ele>743.2</ele>
        <time>2021-08-11T10:27:48Z</time>
      </trkpt>
      <trkpt lat="44.29528" lon="3.66384">
        <ele>743.6</ele>
        <time>2021-08-11T10:27:50Z</time>
      </trkpt>
      <trkpt lat="44.29526" lon="3.66387">
        <ele>744.1</ele>
        <time>2021-08-11T10:27:52Z</time>
      </trkpt>
      <trkpt lat="44.29524" lon="3.6639">
        <ele>744.5</ele>
        <time>2021-08-11T10:27:54Z</time>
      </trkpt>
      <trkpt lat="44.29522" lon="3.66394">
        <ele>745</ele>
        <time>2021-08-11T10:27:56Z</time>
      </trkpt>
      <trkpt lat="44.29518" lon="3.66396">
        <ele>746.1</ele>
        <time>2021-08-11T10:27:58Z</time>
      </trkpt>
      <trkpt lat="44.29516" lon="3.66399">
        <ele>746.9</ele>
        <time>2021-08-11T10:28:00Z</time>
      </trkpt>
      <trkpt lat="44.29513" lon="3.66404">
        <ele>747.5</ele>
        <time>2021-08-11T10:28:02Z</time>
      </trkpt>
      <trkpt lat="44.29511" lon="3.66408">
        <ele>748.1</ele>
        <time>2021-08-11T10:28:04Z</time>
      </trkpt>
      <trkpt lat="44.29508" lon="3.6641">
        <ele>749</ele>
        <time>2021-08-11T10:28:06Z</time>
      </trkpt>
      <trkpt lat="44.29506" lon="3.66414">
        <ele>749.5</ele>
        <time>2021-08-11T10:28:08Z</time>
      </trkpt>
      <trkpt lat="44.29504" lon="3.66418">
        <ele>749.9</ele>
        <time>2021-08-11T10:28:10Z</time>
      </trkpt>
      <trkpt lat="44.29501" lon="3.66422">
        <ele>750.3</ele>
        <time>2021-08-11T10:28:12Z</time>
      </trkpt>
      <trkpt lat="44.29499" lon="3.66425">
        <ele>750.5</ele>
        <time>2021-08-11T10:28:14Z</time>
      </trkpt>
      <trkpt lat="44.29496" lon="3.66429">
        <ele>750.5</ele>
        <time>2021-08-11T10:28:16Z</time>
      </trkpt>
      <trkpt lat="44.29494" lon="3.66432">
        <ele>750.5</ele>
        <time>2021-08-11T10:28:18Z</time>
      </trkpt>
      <trkpt lat="44.29493" lon="3.66433">
        <ele>750.6</ele>
        <time>2021-08-11T10:28:20Z</time>
      </trkpt>
      <trkpt lat="44.2949" lon="3.66437">
        <ele>750.7</ele>
        <time>2021-08-11T10:28:22Z</time>
      </trkpt>
      <trkpt lat="44.29488" lon="3.6644">
        <ele>750.8</ele>
        <time>2021-08-11T10:28:24Z</time>
      </trkpt>
      <trkpt lat="44.29485" lon="3.66444">
        <ele>750.8</ele>
        <time>2021-08-11T10:28:26Z</time>
      </trkpt>
      <trkpt lat="44.29483" lon="3.66447">
        <ele>751</ele>
        <time>2021-08-11T10:28:28Z</time>
      </trkpt>
      <trkpt lat="44.2948" lon="3.66451">
        <ele>751.3</ele>
        <time>2021-08-11T10:28:30Z</time>
      </trkpt>
      <trkpt lat="44.29477" lon="3.66453">
        <ele>751.7</ele>
        <time>2021-08-11T10:28:32Z</time>
      </trkpt>
      <trkpt lat="44.29474" lon="3.66455">
        <ele>752.2</ele>
        <time>2021-08-11T10:28:34Z</time>
      </trkpt>
      <trkpt lat="44.29471" lon="3.66459">
        <ele>752.4</ele>
        <time>2021-08-11T10:28:36Z</time>
      </trkpt>
      <trkpt lat="44.29469" lon="3.66461">
        <ele>752.7</ele>
        <time>2021-08-11T10:28:38Z</time>
      </trkpt>
      <trkpt lat="44.29467" lon="3.66464">
        <ele>752.8</ele>
        <time>2021-08-11T10:28:40Z</time>
      </trkpt>
      <trkpt lat="44.29464" lon="3.66467">
        <ele>753.3</ele>
        <time>2021-08-11T10:28:42Z</time>
      </trkpt>
      <trkpt lat="44.29461" lon="3.6647">
        <ele>753.6</ele>
        <time>2021-08-11T10:28:44Z</time>
      </trkpt>
      <trkpt lat="44.29457" lon="3.66472">
        <ele>754.7</ele>
        <time>2021-08-11T10:28:46Z</time>
      </trkpt>
      <trkpt lat="44.29454" lon="3.66475">
        <ele>755</ele>
        <time>2021-08-11T10:28:48Z</time>
      </trkpt>
      <trkpt lat="44.29451" lon="3.66477">
        <ele>755.6</ele>
        <time>2021-08-11T10:28:50Z</time>
      </trkpt>
      <trkpt lat="44.29449" lon="3.6648">
        <ele>756</ele>
        <time>2021-08-11T10:28:52Z</time>
      </trkpt>
      <trkpt lat="44.29446" lon="3.66482">
        <ele>756.6</ele>
        <time>2021-08-11T10:28:54Z</time>
      </trkpt>
      <trkpt lat="44.29443" lon="3.66484">
        <ele>757.3</ele>
        <time>2021-08-11T10:28:56Z</time>
      </trkpt>
      <trkpt lat="44.2944" lon="3.66487">
        <ele>757.8</ele>
        <time>2021-08-11T10:28:58Z</time>
      </trkpt>
      <trkpt lat="44.29438" lon="3.6649">
        <ele>757.9</ele>
        <time>2021-08-11T10:29:00Z</time>
      </trkpt>
      <trkpt lat="44.29436" lon="3.66492">
        <ele>758.5</ele>
        <time>2021-08-11T10:29:02Z</time>
      </trkpt>
      <trkpt lat="44.29433" lon="3.66495">
        <ele>759.1</ele>
        <time>2021-08-11T10:29:04Z</time>
      </trkpt>
      <trkpt lat="44.29431" lon="3.66498">
        <ele>759.4</ele>
        <time>2021-08-11T10:29:06Z</time>
      </trkpt>
      <trkpt lat="44.29427" lon="3.665">
        <ele>760.3</ele>
        <time>2021-08-11T10:29:08Z</time>
      </trkpt>
      <trkpt lat="44.29425" lon="3.66503">
        <ele>760.8</ele>
        <time>2021-08-11T10:29:10Z</time>
      </trkpt>
      <trkpt lat="44.29422" lon="3.66505">
        <ele>761.3</ele>
        <time>2021-08-11T10:29:12Z</time>
      </trkpt>
      <trkpt lat="44.2942" lon="3.66507">
        <ele>762</ele>
        <time>2021-08-11T10:29:14Z</time>
      </trkpt>
      <trkpt lat="44.29416" lon="3.66509">
        <ele>763</ele>
        <time>2021-08-11T10:29:16Z</time>
      </trkpt>
      <trkpt lat="44.29413" lon="3.66511">
        <ele>763.2</ele>
        <time>2021-08-11T10:29:18Z</time>
      </trkpt>
      <trkpt lat="44.29409" lon="3.66513">
        <ele>763.5</ele>
        <time>2021-08-11T10:29:20Z</time>
      </trkpt>
      <trkpt lat="44.29407" lon="3.66515">
        <ele>763.8</ele>
        <time>2021-08-11T10:29:22Z</time>
      </trkpt>
      <trkpt lat="44.29403" lon="3.66517">
        <ele>764.1</ele>
        <time>2021-08-11T10:29:24Z</time>
      </trkpt>
      <trkpt lat="44.294" lon="3.66518">
        <ele>764.4</ele>
        <time>2021-08-11T10:29:26Z</time>
      </trkpt>
      <trkpt lat="44.29398" lon="3.66521">
        <ele>764.5</ele>
        <time>2021-08-11T10:29:28Z</time>
      </trkpt>
      <trkpt lat="44.29395" lon="3.66521">
        <ele>764.9</ele>
        <time>2021-08-11T10:29:30Z</time>
      </trkpt>
      <trkpt lat="44.29392" lon="3.66523">
        <ele>765.2</ele>
        <time>2021-08-11T10:29:32Z</time>
      </trkpt>
      <trkpt lat="44.29388" lon="3.66525">
        <ele>765.6</ele>
        <time>2021-08-11T10:29:34Z</time>
      </trkpt>
      <trkpt lat="44.29386" lon="3.66526">
        <ele>765.8</ele>
        <time>2021-08-11T10:29:36Z</time>
      </trkpt>
      <trkpt lat="44.29383" lon="3.66526">
        <ele>766.3</ele>
        <time>2021-08-11T10:29:38Z</time>
      </trkpt>
      <trkpt lat="44.2938" lon="3.66527">
        <ele>766.6</ele>
        <time>2021-08-11T10:29:40Z</time>
      </trkpt>
      <trkpt lat="44.29377" lon="3.66528">
        <ele>767.1</ele>
        <time>2021-08-11T10:29:42Z</time>
      </trkpt>
      <trkpt lat="44.29374" lon="3.66529">
        <ele>767.4</ele>
        <time>2021-08-11T10:29:44Z</time>
      </trkpt>
      <trkpt lat="44.29372" lon="3.66529">
        <ele>767.8</ele>
        <time>2021-08-11T10:29:46Z</time>
      </trkpt>
      <trkpt lat="44.2937" lon="3.66531">
        <ele>768</ele>
        <time>2021-08-11T10:29:48Z</time>
      </trkpt>
      <trkpt lat="44.29366" lon="3.66532">
        <ele>768.5</ele>
        <time>2021-08-11T10:29:50Z</time>
      </trkpt>
      <trkpt lat="44.29363" lon="3.66533">
        <ele>768.8</ele>
        <time>2021-08-11T10:29:52Z</time>
      </trkpt>
      <trkpt lat="44.2936" lon="3.66536">
        <ele>769.2</ele>
        <time>2021-08-11T10:29:54Z</time>
      </trkpt>
      <trkpt lat="44.29357" lon="3.66538">
        <ele>769.4</ele>
        <time>2021-08-11T10:29:56Z</time>
      </trkpt>
      <trkpt lat="44.29353" lon="3.66538">
        <ele>770</ele>
        <time>2021-08-11T10:29:58Z</time>
      </trkpt>
      <trkpt lat="44.2935" lon="3.6654">
        <ele>770.3</ele>
        <time>2021-08-11T10:30:00Z</time>
      </trkpt>
      <trkpt lat="44.29347" lon="3.66541">
        <ele>770.7</ele>
        <time>2021-08-11T10:30:02Z</time>
      </trkpt>
      <trkpt lat="44.29343" lon="3.66541">
        <ele>771.3</ele>
        <time>2021-08-11T10:30:04Z</time>
      </trkpt>
      <trkpt lat="44.2934" lon="3.66542">
        <ele>771.7</ele>
        <time>2021-08-11T10:30:06Z</time>
      </trkpt>
      <trkpt lat="44.29337" lon="3.66543">
        <ele>772.2</ele>
        <time>2021-08-11T10:30:08Z</time>
      </trkpt>
      <trkpt lat="44.29334" lon="3.66545">
        <ele>772.5</ele>
        <time>2021-08-11T10:30:10Z</time>
      </trkpt>
      <trkpt lat="44.2933" lon="3.66547">
        <ele>772.9</ele>
        <time>2021-08-11T10:30:12Z</time>
      </trkpt>
      <trkpt lat="44.29327" lon="3.66548">
        <ele>773.4</ele>
        <time>2021-08-11T10:30:14Z</time>
      </trkpt>
      <trkpt lat="44.29324" lon="3.6655">
        <ele>773.8</ele>
        <time>2021-08-11T10:30:16Z</time>
      </trkpt>
      <trkpt lat="44.2932" lon="3.66552">
        <ele>774.1</ele>
        <time>2021-08-11T10:30:18Z</time>
      </trkpt>
      <trkpt lat="44.29318" lon="3.66554">
        <ele>774.2</ele>
        <time>2021-08-11T10:30:20Z</time>
      </trkpt>
      <trkpt lat="44.29315" lon="3.66556">
        <ele>774.5</ele>
        <time>2021-08-11T10:30:22Z</time>
      </trkpt>
      <trkpt lat="44.29311" lon="3.66557">
        <ele>775</ele>
        <time>2021-08-11T10:30:24Z</time>
      </trkpt>
      <trkpt lat="44.29308" lon="3.66559">
        <ele>775.2</ele>
        <time>2021-08-11T10:30:26Z</time>
      </trkpt>
      <trkpt lat="44.29304" lon="3.66561">
        <ele>775.5</ele>
        <time>2021-08-11T10:30:28Z</time>
      </trkpt>
      <trkpt lat="44.29301" lon="3.66563">
        <ele>775.8</ele>
        <time>2021-08-11T10:30:30Z</time>
      </trkpt>
      <trkpt lat="44.29297" lon="3.66565">
        <ele>776.1</ele>
        <time>2021-08-11T10:30:32Z</time>
      </trkpt>
      <trkpt lat="44.29294" lon="3.66567">
        <ele>776.3</ele>
        <time>2021-08-11T10:30:34Z</time>
      </trkpt>
      <trkpt lat="44.2929" lon="3.66568">
        <ele>776.7</ele>
        <time>2021-08-11T10:30:36Z</time>
      </trkpt>
      <trkpt lat="44.29288" lon="3.6657">
        <ele>776.8</ele>
        <time>2021-08-11T10:30:38Z</time>
      </trkpt>
      <trkpt lat="44.29284" lon="3.66572">
        <ele>777</ele>
        <time>2021-08-11T10:30:40Z</time>
      </trkpt>
      <trkpt lat="44.29281" lon="3.66574">
        <ele>777.1</ele>
        <time>2021-08-11T10:30:42Z</time>
      </trkpt>
      <trkpt lat="44.29278" lon="3.66577">
        <ele>777.1</ele>
        <time>2021-08-11T10:30:44Z</time>
      </trkpt>
      <trkpt lat="44.29275" lon="3.6658">
        <ele>777</ele>
        <time>2021-08-11T10:30:46Z</time>
      </trkpt>
      <trkpt lat="44.29271" lon="3.66581">
        <ele>777.5</ele>
        <time>2021-08-11T10:30:48Z</time>
      </trkpt>
      <trkpt lat="44.29269" lon="3.66584">
        <ele>777.3</ele>
        <time>2021-08-11T10:30:50Z</time>
      </trkpt>
      <trkpt lat="44.29265" lon="3.66586">
        <ele>777.4</ele>
        <time>2021-08-11T10:30:52Z</time>
      </trkpt>
      <trkpt lat="44.29261" lon="3.66586">
        <ele>777.9</ele>
        <time>2021-08-11T10:30:54Z</time>
      </trkpt>
      <trkpt lat="44.29257" lon="3.66585">
        <ele>778.7</ele>
        <time>2021-08-11T10:30:56Z</time>
      </trkpt>
      <trkpt lat="44.29255" lon="3.66582">
        <ele>779.6</ele>
        <time>2021-08-11T10:30:58Z</time>
      </trkpt>
      <trkpt lat="44.29255" lon="3.66576">
        <ele>780.7</ele>
        <time>2021-08-11T10:31:00Z</time>
      </trkpt>
      <trkpt lat="44.29256" lon="3.6657">
        <ele>781.7</ele>
        <time>2021-08-11T10:31:02Z</time>
      </trkpt>
      <trkpt lat="44.29258" lon="3.66565">
        <ele>782.4</ele>
        <time>2021-08-11T10:31:04Z</time>
      </trkpt>
      <trkpt lat="44.2926" lon="3.66561">
        <ele>783</ele>
        <time>2021-08-11T10:31:06Z</time>
      </trkpt>
      <trkpt lat="44.29261" lon="3.66557">
        <ele>783.4</ele>
        <time>2021-08-11T10:31:08Z</time>
      </trkpt>
      <trkpt lat="44.29263" lon="3.66553">
        <ele>783.8</ele>
        <time>2021-08-11T10:31:10Z</time>
      </trkpt>
      <trkpt lat="44.29266" lon="3.66549">
        <ele>784.1</ele>
        <time>2021-08-11T10:31:12Z</time>
      </trkpt>
      <trkpt lat="44.29267" lon="3.66544">
        <ele>784.8</ele>
        <time>2021-08-11T10:31:14Z</time>
      </trkpt>
      <trkpt lat="44.29269" lon="3.66541">
        <ele>785</ele>
        <time>2021-08-11T10:31:16Z</time>
      </trkpt>
      <trkpt lat="44.29271" lon="3.66537">
        <ele>785.4</ele>
        <time>2021-08-11T10:31:18Z</time>
      </trkpt>
      <trkpt lat="44.29274" lon="3.66533">
        <ele>785.7</ele>
        <time>2021-08-11T10:31:20Z</time>
      </trkpt>
      <trkpt lat="44.29275" lon="3.6653">
        <ele>786</ele>
        <time>2021-08-11T10:31:22Z</time>
      </trkpt>
      <trkpt lat="44.29277" lon="3.66526">
        <ele>786.3</ele>
        <time>2021-08-11T10:31:24Z</time>
      </trkpt>
      <trkpt lat="44.2928" lon="3.66523">
        <ele>786.2</ele>
        <time>2021-08-11T10:31:26Z</time>
      </trkpt>
      <trkpt lat="44.29282" lon="3.66519">
        <ele>786.4</ele>
        <time>2021-08-11T10:31:28Z</time>
      </trkpt>
      <trkpt lat="44.29285" lon="3.66515">
        <ele>786.6</ele>
        <time>2021-08-11T10:31:30Z</time>
      </trkpt>
      <trkpt lat="44.29288" lon="3.66511">
        <ele>786.5</ele>
        <time>2021-08-11T10:31:32Z</time>
      </trkpt>
      <trkpt lat="44.2929" lon="3.66508">
        <ele>786.6</ele>
        <time>2021-08-11T10:31:34Z</time>
      </trkpt>
      <trkpt lat="44.29291" lon="3.66504">
        <ele>786.9</ele>
        <time>2021-08-11T10:31:36Z</time>
      </trkpt>
      <trkpt lat="44.29293" lon="3.665">
        <ele>787.1</ele>
        <time>2021-08-11T10:31:38Z</time>
      </trkpt>
      <trkpt lat="44.29296" lon="3.66498">
        <ele>787</ele>
        <time>2021-08-11T10:31:40Z</time>
      </trkpt>
      <trkpt lat="44.29298" lon="3.66495">
        <ele>787.1</ele>
        <time>2021-08-11T10:31:42Z</time>
      </trkpt>
      <trkpt lat="44.293" lon="3.66491">
        <ele>787.6</ele>
        <time>2021-08-11T10:31:44Z</time>
      </trkpt>
      <trkpt lat="44.29302" lon="3.66488">
        <ele>787.9</ele>
        <time>2021-08-11T10:31:46Z</time>
      </trkpt>
      <trkpt lat="44.29304" lon="3.66484">
        <ele>788.2</ele>
        <time>2021-08-11T10:31:48Z</time>
      </trkpt>
      <trkpt lat="44.29306" lon="3.6648">
        <ele>788.6</ele>
        <time>2021-08-11T10:31:50Z</time>
      </trkpt>
      <trkpt lat="44.29309" lon="3.66477">
        <ele>788.7</ele>
        <time>2021-08-11T10:31:52Z</time>
      </trkpt>
      <trkpt lat="44.29311" lon="3.66473">
        <ele>789.1</ele>
        <time>2021-08-11T10:31:54Z</time>
      </trkpt>
      <trkpt lat="44.29314" lon="3.6647">
        <ele>789.3</ele>
        <time>2021-08-11T10:31:56Z</time>
      </trkpt>
      <trkpt lat="44.29317" lon="3.66466">
        <ele>789.3</ele>
        <time>2021-08-11T10:31:58Z</time>
      </trkpt>
      <trkpt lat="44.29318" lon="3.66462">
        <ele>790.1</ele>
        <time>2021-08-11T10:32:00Z</time>
      </trkpt>
      <trkpt lat="44.29321" lon="3.66458">
        <ele>790.3</ele>
        <time>2021-08-11T10:32:02Z</time>
      </trkpt>
      <trkpt lat="44.29324" lon="3.66455">
        <ele>790.5</ele>
        <time>2021-08-11T10:32:04Z</time>
      </trkpt>
      <trkpt lat="44.29325" lon="3.66451">
        <ele>791</ele>
        <time>2021-08-11T10:32:06Z</time>
      </trkpt>
      <trkpt lat="44.29329" lon="3.66448">
        <ele>790.7</ele>
        <time>2021-08-11T10:32:08Z</time>
      </trkpt>
      <trkpt lat="44.29331" lon="3.66445">
        <ele>791.1</ele>
        <time>2021-08-11T10:32:10Z</time>
      </trkpt>
      <trkpt lat="44.29334" lon="3.66441">
        <ele>791.3</ele>
        <time>2021-08-11T10:32:12Z</time>
      </trkpt>
      <trkpt lat="44.29336" lon="3.66437">
        <ele>791.6</ele>
        <time>2021-08-11T10:32:14Z</time>
      </trkpt>
      <trkpt lat="44.29339" lon="3.66434">
        <ele>791.5</ele>
        <time>2021-08-11T10:32:16Z</time>
      </trkpt>
      <trkpt lat="44.29342" lon="3.66431">
        <ele>791.8</ele>
        <time>2021-08-11T10:32:18Z</time>
      </trkpt>
      <trkpt lat="44.29343" lon="3.66426">
        <ele>792.4</ele>
        <time>2021-08-11T10:32:20Z</time>
      </trkpt>
      <trkpt lat="44.29346" lon="3.66423">
        <ele>792.2</ele>
        <time>2021-08-11T10:32:22Z</time>
      </trkpt>
      <trkpt lat="44.29348" lon="3.6642">
        <ele>792.4</ele>
        <time>2021-08-11T10:32:24Z</time>
      </trkpt>
      <trkpt lat="44.29349" lon="3.66416">
        <ele>792.8</ele>
        <time>2021-08-11T10:32:26Z</time>
      </trkpt>
      <trkpt lat="44.29352" lon="3.66414">
        <ele>792.6</ele>
        <time>2021-08-11T10:32:28Z</time>
      </trkpt>
      <trkpt lat="44.29354" lon="3.6641">
        <ele>792.5</ele>
        <time>2021-08-11T10:32:30Z</time>
      </trkpt>
      <trkpt lat="44.29357" lon="3.66406">
        <ele>792.6</ele>
        <time>2021-08-11T10:32:32Z</time>
      </trkpt>
      <trkpt lat="44.29358" lon="3.66402">
        <ele>792.8</ele>
        <time>2021-08-11T10:32:34Z</time>
      </trkpt>
      <trkpt lat="44.2936" lon="3.66399">
        <ele>793</ele>
        <time>2021-08-11T10:32:36Z</time>
      </trkpt>
      <trkpt lat="44.29362" lon="3.66395">
        <ele>792.9</ele>
        <time>2021-08-11T10:32:38Z</time>
      </trkpt>
      <trkpt lat="44.29363" lon="3.66392">
        <ele>793.2</ele>
        <time>2021-08-11T10:32:40Z</time>
      </trkpt>
      <trkpt lat="44.29366" lon="3.66389">
        <ele>792.9</ele>
        <time>2021-08-11T10:32:42Z</time>
      </trkpt>
      <trkpt lat="44.29367" lon="3.66386">
        <ele>793</ele>
        <time>2021-08-11T10:32:44Z</time>
      </trkpt>
      <trkpt lat="44.29368" lon="3.66382">
        <ele>793.1</ele>
        <time>2021-08-11T10:32:46Z</time>
      </trkpt>
      <trkpt lat="44.29369" lon="3.66378">
        <ele>793.6</ele>
        <time>2021-08-11T10:32:48Z</time>
      </trkpt>
      <trkpt lat="44.29371" lon="3.66373">
        <ele>793.7</ele>
        <time>2021-08-11T10:32:50Z</time>
      </trkpt>
      <trkpt lat="44.29373" lon="3.6637">
        <ele>793.6</ele>
        <time>2021-08-11T10:32:52Z</time>
      </trkpt>
      <trkpt lat="44.29374" lon="3.66366">
        <ele>793.9</ele>
        <time>2021-08-11T10:32:54Z</time>
      </trkpt>
      <trkpt lat="44.29376" lon="3.66362">
        <ele>793.9</ele>
        <time>2021-08-11T10:32:56Z</time>
      </trkpt>
      <trkpt lat="44.29377" lon="3.66359">
        <ele>794.1</ele>
        <time>2021-08-11T10:32:58Z</time>
      </trkpt>
      <trkpt lat="44.29378" lon="3.66356">
        <ele>794.1</ele>
        <time>2021-08-11T10:33:00Z</time>
      </trkpt>
      <trkpt lat="44.2938" lon="3.66351">
        <ele>794.1</ele>
        <time>2021-08-11T10:33:02Z</time>
      </trkpt>
      <trkpt lat="44.29382" lon="3.66348">
        <ele>794</ele>
        <time>2021-08-11T10:33:04Z</time>
      </trkpt>
      <trkpt lat="44.29384" lon="3.66343">
        <ele>794.1</ele>
        <time>2021-08-11T10:33:06Z</time>
      </trkpt>
      <trkpt lat="44.29386" lon="3.66339">
        <ele>794</ele>
        <time>2021-08-11T10:33:08Z</time>
      </trkpt>
      <trkpt lat="44.29387" lon="3.66334">
        <ele>794.1</ele>
        <time>2021-08-11T10:33:10Z</time>
      </trkpt>
      <trkpt lat="44.2939" lon="3.66329">
        <ele>793.3</ele>
        <time>2021-08-11T10:33:12Z</time>
      </trkpt>
      <trkpt lat="44.29392" lon="3.66325">
        <ele>792.3</ele>
        <time>2021-08-11T10:33:14Z</time>
      </trkpt>
      <trkpt lat="44.29394" lon="3.6632">
        <ele>791.7</ele>
        <time>2021-08-11T10:33:16Z</time>
      </trkpt>
      <trkpt lat="44.29395" lon="3.66316">
        <ele>791.1</ele>
        <time>2021-08-11T10:33:18Z</time>
      </trkpt>
      <trkpt lat="44.29397" lon="3.66311">
        <ele>790.2</ele>
        <time>2021-08-11T10:33:20Z</time>
      </trkpt>
      <trkpt lat="44.29398" lon="3.66307">
        <ele>789.7</ele>
        <time>2021-08-11T10:33:22Z</time>
      </trkpt>
      <trkpt lat="44.29399" lon="3.66302">
        <ele>789.4</ele>
        <time>2021-08-11T10:33:24Z</time>
      </trkpt>
      <trkpt lat="44.29399" lon="3.66298">
        <ele>789.5</ele>
        <time>2021-08-11T10:33:26Z</time>
      </trkpt>
      <trkpt lat="44.294" lon="3.66293">
        <ele>788.9</ele>
        <time>2021-08-11T10:33:28Z</time>
      </trkpt>
      <trkpt lat="44.294" lon="3.66288">
        <ele>788.7</ele>
        <time>2021-08-11T10:33:30Z</time>
      </trkpt>
      <trkpt lat="44.294" lon="3.66283">
        <ele>788.7</ele>
        <time>2021-08-11T10:33:32Z</time>
      </trkpt>
      <trkpt lat="44.29399" lon="3.66278">
        <ele>789</ele>
        <time>2021-08-11T10:33:34Z</time>
      </trkpt>
      <trkpt lat="44.29398" lon="3.66274">
        <ele>789.2</ele>
        <time>2021-08-11T10:33:36Z</time>
      </trkpt>
      <trkpt lat="44.29395" lon="3.6627">
        <ele>790</ele>
        <time>2021-08-11T10:33:38Z</time>
      </trkpt>
      <trkpt lat="44.29393" lon="3.66266">
        <ele>790.5</ele>
        <time>2021-08-11T10:33:40Z</time>
      </trkpt>
      <trkpt lat="44.2939" lon="3.66264">
        <ele>791.3</ele>
        <time>2021-08-11T10:33:42Z</time>
      </trkpt>
      <trkpt lat="44.29388" lon="3.66261">
        <ele>792</ele>
        <time>2021-08-11T10:33:44Z</time>
      </trkpt>
      <trkpt lat="44.29385" lon="3.6626">
        <ele>792.8</ele>
        <time>2021-08-11T10:33:46Z</time>
      </trkpt>
      <trkpt lat="44.29383" lon="3.66258">
        <ele>793.4</ele>
        <time>2021-08-11T10:33:48Z</time>
      </trkpt>
      <trkpt lat="44.2938" lon="3.66257">
        <ele>794.2</ele>
        <time>2021-08-11T10:33:50Z</time>
      </trkpt>
      <trkpt lat="44.29378" lon="3.66255">
        <ele>794.9</ele>
        <time>2021-08-11T10:33:52Z</time>
      </trkpt>
      <trkpt lat="44.29375" lon="3.66253">
        <ele>795.5</ele>
        <time>2021-08-11T10:33:54Z</time>
      </trkpt>
      <trkpt lat="44.29373" lon="3.66251">
        <ele>796.1</ele>
        <time>2021-08-11T10:33:56Z</time>
      </trkpt>
      <trkpt lat="44.2937" lon="3.6625">
        <ele>796.9</ele>
        <time>2021-08-11T10:33:58Z</time>
      </trkpt>
      <trkpt lat="44.29368" lon="3.66249">
        <ele>797.5</ele>
        <time>2021-08-11T10:34:00Z</time>
      </trkpt>
      <trkpt lat="44.29365" lon="3.66249">
        <ele>798.4</ele>
        <time>2021-08-11T10:34:02Z</time>
      </trkpt>
      <trkpt lat="44.29362" lon="3.66246">
        <ele>798.5</ele>
        <time>2021-08-11T10:34:04Z</time>
      </trkpt>
      <trkpt lat="44.29359" lon="3.66244">
        <ele>799.1</ele>
        <time>2021-08-11T10:34:06Z</time>
      </trkpt>
      <trkpt lat="44.29356" lon="3.66242">
        <ele>799.5</ele>
        <time>2021-08-11T10:34:08Z</time>
      </trkpt>
      <trkpt lat="44.29352" lon="3.6624">
        <ele>800.1</ele>
        <time>2021-08-11T10:34:10Z</time>
      </trkpt>
      <trkpt lat="44.29349" lon="3.66237">
        <ele>800.6</ele>
        <time>2021-08-11T10:34:12Z</time>
      </trkpt>
      <trkpt lat="44.29346" lon="3.66235">
        <ele>801.1</ele>
        <time>2021-08-11T10:34:14Z</time>
      </trkpt>
      <trkpt lat="44.29343" lon="3.66232">
        <ele>801.5</ele>
        <time>2021-08-11T10:34:16Z</time>
      </trkpt>
      <trkpt lat="44.2934" lon="3.66229">
        <ele>801.8</ele>
        <time>2021-08-11T10:34:18Z</time>
      </trkpt>
      <trkpt lat="44.29337" lon="3.66226">
        <ele>802.1</ele>
        <time>2021-08-11T10:34:20Z</time>
      </trkpt>
      <trkpt lat="44.29334" lon="3.66223">
        <ele>802.1</ele>
        <time>2021-08-11T10:34:22Z</time>
      </trkpt>
      <trkpt lat="44.29331" lon="3.6622">
        <ele>802.7</ele>
        <time>2021-08-11T10:34:24Z</time>
      </trkpt>
      <trkpt lat="44.29329" lon="3.66216">
        <ele>802.5</ele>
        <time>2021-08-11T10:34:26Z</time>
      </trkpt>
      <trkpt lat="44.29327" lon="3.66213">
        <ele>802.8</ele>
        <time>2021-08-11T10:34:28Z</time>
      </trkpt>
      <trkpt lat="44.29325" lon="3.6621">
        <ele>803.1</ele>
        <time>2021-08-11T10:34:30Z</time>
      </trkpt>
      <trkpt lat="44.29322" lon="3.66206">
        <ele>803.6</ele>
        <time>2021-08-11T10:34:32Z</time>
      </trkpt>
      <trkpt lat="44.29319" lon="3.66202">
        <ele>803.7</ele>
        <time>2021-08-11T10:34:34Z</time>
      </trkpt>
      <trkpt lat="44.29316" lon="3.662">
        <ele>804.6</ele>
        <time>2021-08-11T10:34:36Z</time>
      </trkpt>
      <trkpt lat="44.29313" lon="3.66196">
        <ele>805.3</ele>
        <time>2021-08-11T10:34:38Z</time>
      </trkpt>
      <trkpt lat="44.2931" lon="3.66193">
        <ele>805.7</ele>
        <time>2021-08-11T10:34:40Z</time>
      </trkpt>
      <trkpt lat="44.29307" lon="3.6619">
        <ele>806.4</ele>
        <time>2021-08-11T10:34:42Z</time>
      </trkpt>
      <trkpt lat="44.29305" lon="3.66187">
        <ele>806.6</ele>
        <time>2021-08-11T10:34:44Z</time>
      </trkpt>
      <trkpt lat="44.29303" lon="3.66183">
        <ele>807</ele>
        <time>2021-08-11T10:34:46Z</time>
      </trkpt>
      <trkpt lat="44.293" lon="3.6618">
        <ele>807.6</ele>
        <time>2021-08-11T10:34:48Z</time>
      </trkpt>
      <trkpt lat="44.29298" lon="3.66176">
        <ele>807.9</ele>
        <time>2021-08-11T10:34:50Z</time>
      </trkpt>
      <trkpt lat="44.29295" lon="3.66173">
        <ele>808.5</ele>
        <time>2021-08-11T10:34:52Z</time>
      </trkpt>
      <trkpt lat="44.29292" lon="3.6617">
        <ele>809.3</ele>
        <time>2021-08-11T10:34:54Z</time>
      </trkpt>
      <trkpt lat="44.2929" lon="3.66166">
        <ele>809.4</ele>
        <time>2021-08-11T10:34:56Z</time>
      </trkpt>
      <trkpt lat="44.29288" lon="3.66163">
        <ele>810.1</ele>
        <time>2021-08-11T10:34:58Z</time>
      </trkpt>
      <trkpt lat="44.29286" lon="3.6616">
        <ele>810.6</ele>
        <time>2021-08-11T10:35:00Z</time>
      </trkpt>
      <trkpt lat="44.29283" lon="3.66156">
        <ele>810.9</ele>
        <time>2021-08-11T10:35:02Z</time>
      </trkpt>
      <trkpt lat="44.2928" lon="3.66154">
        <ele>811.8</ele>
        <time>2021-08-11T10:35:04Z</time>
      </trkpt>
      <trkpt lat="44.29278" lon="3.66149">
        <ele>812</ele>
        <time>2021-08-11T10:35:06Z</time>
      </trkpt>
      <trkpt lat="44.29277" lon="3.66146">
        <ele>812.1</ele>
        <time>2021-08-11T10:35:08Z</time>
      </trkpt>
      <trkpt lat="44.29275" lon="3.66142">
        <ele>812.3</ele>
        <time>2021-08-11T10:35:10Z</time>
      </trkpt>
      <trkpt lat="44.29273" lon="3.66139">
        <ele>812.7</ele>
        <time>2021-08-11T10:35:12Z</time>
      </trkpt>
      <trkpt lat="44.29271" lon="3.66135">
        <ele>812.9</ele>
        <time>2021-08-11T10:35:14Z</time>
      </trkpt>
      <trkpt lat="44.2927" lon="3.66132">
        <ele>812.9</ele>
        <time>2021-08-11T10:35:16Z</time>
      </trkpt>
      <trkpt lat="44.29268" lon="3.6613">
        <ele>813.2</ele>
        <time>2021-08-11T10:35:18Z</time>
      </trkpt>
      <trkpt lat="44.29266" lon="3.66127">
        <ele>813.6</ele>
        <time>2021-08-11T10:35:20Z</time>
      </trkpt>
      <trkpt lat="44.29264" lon="3.66124">
        <ele>814</ele>
        <time>2021-08-11T10:35:22Z</time>
      </trkpt>
      <trkpt lat="44.29262" lon="3.66121">
        <ele>814.3</ele>
        <time>2021-08-11T10:35:24Z</time>
      </trkpt>
      <trkpt lat="44.2926" lon="3.66118">
        <ele>814.7</ele>
        <time>2021-08-11T10:35:26Z</time>
      </trkpt>
      <trkpt lat="44.29258" lon="3.66114">
        <ele>814.9</ele>
        <time>2021-08-11T10:35:28Z</time>
      </trkpt>
      <trkpt lat="44.29256" lon="3.6611">
        <ele>814.8</ele>
        <time>2021-08-11T10:35:30Z</time>
      </trkpt>
      <trkpt lat="44.29256" lon="3.66106">
        <ele>814.3</ele>
        <time>2021-08-11T10:35:32Z</time>
      </trkpt>
      <trkpt lat="44.29255" lon="3.66101">
        <ele>814</ele>
        <time>2021-08-11T10:35:34Z</time>
      </trkpt>
      <trkpt lat="44.29254" lon="3.66096">
        <ele>813.6</ele>
        <time>2021-08-11T10:35:36Z</time>
      </trkpt>
      <trkpt lat="44.29251" lon="3.66093">
        <ele>814</ele>
        <time>2021-08-11T10:35:38Z</time>
      </trkpt>
      <trkpt lat="44.2925" lon="3.66088">
        <ele>813.9</ele>
        <time>2021-08-11T10:35:40Z</time>
      </trkpt>
      <trkpt lat="44.29248" lon="3.66083">
        <ele>813.7</ele>
        <time>2021-08-11T10:35:42Z</time>
      </trkpt>
      <trkpt lat="44.29247" lon="3.66081">
        <ele>813.4</ele>
        <time>2021-08-11T10:35:44Z</time>
      </trkpt>
      <trkpt lat="44.29245" lon="3.66075">
        <ele>813.2</ele>
        <time>2021-08-11T10:35:46Z</time>
      </trkpt>
      <trkpt lat="44.29243" lon="3.6607">
        <ele>813</ele>
        <time>2021-08-11T10:35:48Z</time>
      </trkpt>
      <trkpt lat="44.2924" lon="3.66064">
        <ele>812.8</ele>
        <time>2021-08-11T10:35:50Z</time>
      </trkpt>
      <trkpt lat="44.29238" lon="3.66059">
        <ele>812.5</ele>
        <time>2021-08-11T10:35:52Z</time>
      </trkpt>
      <trkpt lat="44.29236" lon="3.66054">
        <ele>812.2</ele>
        <time>2021-08-11T10:35:54Z</time>
      </trkpt>
      <trkpt lat="44.29233" lon="3.66049">
        <ele>812.4</ele>
        <time>2021-08-11T10:35:56Z</time>
      </trkpt>
      <trkpt lat="44.29231" lon="3.66045">
        <ele>812.3</ele>
        <time>2021-08-11T10:35:58Z</time>
      </trkpt>
      <trkpt lat="44.29228" lon="3.66041">
        <ele>812.4</ele>
        <time>2021-08-11T10:36:00Z</time>
      </trkpt>
      <trkpt lat="44.29226" lon="3.66038">
        <ele>812.2</ele>
        <time>2021-08-11T10:36:02Z</time>
      </trkpt>
      <trkpt lat="44.29224" lon="3.66034">
        <ele>812.3</ele>
        <time>2021-08-11T10:36:04Z</time>
      </trkpt>
      <trkpt lat="44.29222" lon="3.66031">
        <ele>812.5</ele>
        <time>2021-08-11T10:36:06Z</time>
      </trkpt>
      <trkpt lat="44.29219" lon="3.66028">
        <ele>812.8</ele>
        <time>2021-08-11T10:36:08Z</time>
      </trkpt>
      <trkpt lat="44.29216" lon="3.66025">
        <ele>813.1</ele>
        <time>2021-08-11T10:36:10Z</time>
      </trkpt>
      <trkpt lat="44.29213" lon="3.66023">
        <ele>813.5</ele>
        <time>2021-08-11T10:36:12Z</time>
      </trkpt>
      <trkpt lat="44.2921" lon="3.6602">
        <ele>813.9</ele>
        <time>2021-08-11T10:36:14Z</time>
      </trkpt>
      <trkpt lat="44.29209" lon="3.66017">
        <ele>813.7</ele>
        <time>2021-08-11T10:36:16Z</time>
      </trkpt>
      <trkpt lat="44.29208" lon="3.66017">
        <ele>813.8</ele>
        <time>2021-08-11T10:36:18Z</time>
      </trkpt>
      <trkpt lat="44.29208" lon="3.66016">
        <ele>813.8</ele>
        <time>2021-08-11T10:36:20Z</time>
      </trkpt>
      <trkpt lat="44.29208" lon="3.66016">
        <ele>813.7</ele>
        <time>2021-08-11T10:36:22Z</time>
      </trkpt>
      <trkpt lat="44.29208" lon="3.66016">
        <ele>813.7</ele>
        <time>2021-08-11T10:36:24Z</time>
      </trkpt>
      <trkpt lat="44.29209" lon="3.66015">
        <ele>813.4</ele>
        <time>2021-08-11T10:36:26Z</time>
      </trkpt>
      <trkpt lat="44.29196" lon="3.66009">
        <ele>816</ele>
        <time>2021-08-11T10:37:48Z</time>
      </trkpt>
      <trkpt lat="44.29192" lon="3.66006">
        <ele>816.6</ele>
        <time>2021-08-11T10:37:50Z</time>
      </trkpt>
      <trkpt lat="44.29189" lon="3.66003">
        <ele>817</ele>
        <time>2021-08-11T10:37:52Z</time>
      </trkpt>
      <trkpt lat="44.29186" lon="3.66001">
        <ele>817.5</ele>
        <time>2021-08-11T10:37:54Z</time>
      </trkpt>
      <trkpt lat="44.29183" lon="3.65998">
        <ele>817.5</ele>
        <time>2021-08-11T10:37:56Z</time>
      </trkpt>
      <trkpt lat="44.2918" lon="3.65995">
        <ele>817.4</ele>
        <time>2021-08-11T10:37:58Z</time>
      </trkpt>
      <trkpt lat="44.29178" lon="3.65991">
        <ele>817</ele>
        <time>2021-08-11T10:38:00Z</time>
      </trkpt>
      <trkpt lat="44.29176" lon="3.65988">
        <ele>816.9</ele>
        <time>2021-08-11T10:38:02Z</time>
      </trkpt>
      <trkpt lat="44.29173" lon="3.65985">
        <ele>817</ele>
        <time>2021-08-11T10:38:04Z</time>
      </trkpt>
      <trkpt lat="44.29171" lon="3.65982">
        <ele>816.7</ele>
        <time>2021-08-11T10:38:06Z</time>
      </trkpt>
      <trkpt lat="44.29168" lon="3.65978">
        <ele>816.6</ele>
        <time>2021-08-11T10:38:08Z</time>
      </trkpt>
      <trkpt lat="44.29165" lon="3.65976">
        <ele>816.7</ele>
        <time>2021-08-11T10:38:10Z</time>
      </trkpt>
      <trkpt lat="44.29163" lon="3.65973">
        <ele>816.7</ele>
        <time>2021-08-11T10:38:12Z</time>
      </trkpt>
      <trkpt lat="44.2916" lon="3.65969">
        <ele>816.5</ele>
        <time>2021-08-11T10:38:14Z</time>
      </trkpt>
      <trkpt lat="44.29157" lon="3.65966">
        <ele>816.5</ele>
        <time>2021-08-11T10:38:16Z</time>
      </trkpt>
      <trkpt lat="44.29155" lon="3.65963">
        <ele>816.2</ele>
        <time>2021-08-11T10:38:18Z</time>
      </trkpt>
      <trkpt lat="44.29152" lon="3.6596">
        <ele>816.1</ele>
        <time>2021-08-11T10:38:20Z</time>
      </trkpt>
      <trkpt lat="44.29149" lon="3.65957">
        <ele>816.2</ele>
        <time>2021-08-11T10:38:22Z</time>
      </trkpt>
      <trkpt lat="44.29147" lon="3.65954">
        <ele>815.9</ele>
        <time>2021-08-11T10:38:24Z</time>
      </trkpt>
      <trkpt lat="44.29144" lon="3.6595">
        <ele>815.6</ele>
        <time>2021-08-11T10:38:26Z</time>
      </trkpt>
      <trkpt lat="44.29141" lon="3.65947">
        <ele>815.6</ele>
        <time>2021-08-11T10:38:28Z</time>
      </trkpt>
      <trkpt lat="44.29139" lon="3.65944">
        <ele>815.4</ele>
        <time>2021-08-11T10:38:30Z</time>
      </trkpt>
      <trkpt lat="44.29136" lon="3.6594">
        <ele>815</ele>
        <time>2021-08-11T10:38:32Z</time>
      </trkpt>
      <trkpt lat="44.29133" lon="3.65937">
        <ele>814.8</ele>
        <time>2021-08-11T10:38:34Z</time>
      </trkpt>
      <trkpt lat="44.29131" lon="3.65933">
        <ele>814.6</ele>
        <time>2021-08-11T10:38:36Z</time>
      </trkpt>
      <trkpt lat="44.29128" lon="3.6593">
        <ele>814.4</ele>
        <time>2021-08-11T10:38:38Z</time>
      </trkpt>
      <trkpt lat="44.29126" lon="3.65927">
        <ele>814.2</ele>
        <time>2021-08-11T10:38:40Z</time>
      </trkpt>
      <trkpt lat="44.29123" lon="3.65924">
        <ele>814</ele>
        <time>2021-08-11T10:38:42Z</time>
      </trkpt>
      <trkpt lat="44.2912" lon="3.65921">
        <ele>813.9</ele>
        <time>2021-08-11T10:38:44Z</time>
      </trkpt>
      <trkpt lat="44.29117" lon="3.65917">
        <ele>813.8</ele>
        <time>2021-08-11T10:38:46Z</time>
      </trkpt>
      <trkpt lat="44.29115" lon="3.65914">
        <ele>813.6</ele>
        <time>2021-08-11T10:38:48Z</time>
      </trkpt>
      <trkpt lat="44.29111" lon="3.65912">
        <ele>813.6</ele>
        <time>2021-08-11T10:38:50Z</time>
      </trkpt>
      <trkpt lat="44.29108" lon="3.6591">
        <ele>813.8</ele>
        <time>2021-08-11T10:38:52Z</time>
      </trkpt>
      <trkpt lat="44.29105" lon="3.65908">
        <ele>814.3</ele>
        <time>2021-08-11T10:38:54Z</time>
      </trkpt>
      <trkpt lat="44.29101" lon="3.65908">
        <ele>815.2</ele>
        <time>2021-08-11T10:38:56Z</time>
      </trkpt>
      <trkpt lat="44.29098" lon="3.65908">
        <ele>816.2</ele>
        <time>2021-08-11T10:38:58Z</time>
      </trkpt>
      <trkpt lat="44.29094" lon="3.65908">
        <ele>817.2</ele>
        <time>2021-08-11T10:39:00Z</time>
      </trkpt>
      <trkpt lat="44.29091" lon="3.65909">
        <ele>818.5</ele>
        <time>2021-08-11T10:39:02Z</time>
      </trkpt>
      <trkpt lat="44.29087" lon="3.6591">
        <ele>819.8</ele>
        <time>2021-08-11T10:39:04Z</time>
      </trkpt>
      <trkpt lat="44.29084" lon="3.65912">
        <ele>821.2</ele>
        <time>2021-08-11T10:39:06Z</time>
      </trkpt>
      <trkpt lat="44.29081" lon="3.65913">
        <ele>822.1</ele>
        <time>2021-08-11T10:39:08Z</time>
      </trkpt>
      <trkpt lat="44.29077" lon="3.65914">
        <ele>822.8</ele>
        <time>2021-08-11T10:39:10Z</time>
      </trkpt>
      <trkpt lat="44.29074" lon="3.65916">
        <ele>823.7</ele>
        <time>2021-08-11T10:39:12Z</time>
      </trkpt>
      <trkpt lat="44.29071" lon="3.65918">
        <ele>824.5</ele>
        <time>2021-08-11T10:39:14Z</time>
      </trkpt>
      <trkpt lat="44.29068" lon="3.6592">
        <ele>825.2</ele>
        <time>2021-08-11T10:39:16Z</time>
      </trkpt>
      <trkpt lat="44.29064" lon="3.65922">
        <ele>826</ele>
        <time>2021-08-11T10:39:18Z</time>
      </trkpt>
      <trkpt lat="44.29061" lon="3.65924">
        <ele>826.8</ele>
        <time>2021-08-11T10:39:20Z</time>
      </trkpt>
      <trkpt lat="44.29058" lon="3.65926">
        <ele>827.6</ele>
        <time>2021-08-11T10:39:22Z</time>
      </trkpt>
      <trkpt lat="44.29054" lon="3.65927">
        <ele>828.3</ele>
        <time>2021-08-11T10:39:24Z</time>
      </trkpt>
      <trkpt lat="44.29051" lon="3.65929">
        <ele>829</ele>
        <time>2021-08-11T10:39:26Z</time>
      </trkpt>
      <trkpt lat="44.29048" lon="3.65931">
        <ele>829.7</ele>
        <time>2021-08-11T10:39:28Z</time>
      </trkpt>
      <trkpt lat="44.29045" lon="3.65933">
        <ele>830.4</ele>
        <time>2021-08-11T10:39:30Z</time>
      </trkpt>
      <trkpt lat="44.29042" lon="3.65935">
        <ele>831.2</ele>
        <time>2021-08-11T10:39:32Z</time>
      </trkpt>
      <trkpt lat="44.29039" lon="3.65937">
        <ele>831.9</ele>
        <time>2021-08-11T10:39:34Z</time>
      </trkpt>
      <trkpt lat="44.29035" lon="3.6594">
        <ele>832.9</ele>
        <time>2021-08-11T10:39:36Z</time>
      </trkpt>
      <trkpt lat="44.29032" lon="3.65942">
        <ele>833.6</ele>
        <time>2021-08-11T10:39:38Z</time>
      </trkpt>
      <trkpt lat="44.29029" lon="3.65944">
        <ele>834.3</ele>
        <time>2021-08-11T10:39:40Z</time>
      </trkpt>
      <trkpt lat="44.29026" lon="3.65947">
        <ele>835.2</ele>
        <time>2021-08-11T10:39:42Z</time>
      </trkpt>
      <trkpt lat="44.29023" lon="3.65949">
        <ele>836.1</ele>
        <time>2021-08-11T10:39:44Z</time>
      </trkpt>
      <trkpt lat="44.2902" lon="3.65951">
        <ele>836.6</ele>
        <time>2021-08-11T10:39:46Z</time>
      </trkpt>
      <trkpt lat="44.29016" lon="3.65953">
        <ele>837.2</ele>
        <time>2021-08-11T10:39:48Z</time>
      </trkpt>
      <trkpt lat="44.29013" lon="3.65954">
        <ele>837.8</ele>
        <time>2021-08-11T10:39:50Z</time>
      </trkpt>
      <trkpt lat="44.2901" lon="3.65955">
        <ele>838.1</ele>
        <time>2021-08-11T10:39:52Z</time>
      </trkpt>
      <trkpt lat="44.29007" lon="3.65955">
        <ele>838.3</ele>
        <time>2021-08-11T10:39:54Z</time>
      </trkpt>
      <trkpt lat="44.29004" lon="3.65953">
        <ele>838.1</ele>
        <time>2021-08-11T10:39:56Z</time>
      </trkpt>
      <trkpt lat="44.29001" lon="3.6595">
        <ele>837.6</ele>
        <time>2021-08-11T10:39:58Z</time>
      </trkpt>
      <trkpt lat="44.28999" lon="3.65947">
        <ele>837</ele>
        <time>2021-08-11T10:40:00Z</time>
      </trkpt>
      <trkpt lat="44.28997" lon="3.65944">
        <ele>836.2</ele>
        <time>2021-08-11T10:40:02Z</time>
      </trkpt>
      <trkpt lat="44.28994" lon="3.6594">
        <ele>835.4</ele>
        <time>2021-08-11T10:40:04Z</time>
      </trkpt>
      <trkpt lat="44.28992" lon="3.65936">
        <ele>834.6</ele>
        <time>2021-08-11T10:40:06Z</time>
      </trkpt>
      <trkpt lat="44.2899" lon="3.65933">
        <ele>833.8</ele>
        <time>2021-08-11T10:40:08Z</time>
      </trkpt>
      <trkpt lat="44.28988" lon="3.6593">
        <ele>833</ele>
        <time>2021-08-11T10:40:10Z</time>
      </trkpt>
      <trkpt lat="44.28986" lon="3.65927">
        <ele>832.3</ele>
        <time>2021-08-11T10:40:12Z</time>
      </trkpt>
      <trkpt lat="44.28983" lon="3.65923">
        <ele>831.6</ele>
        <time>2021-08-11T10:40:14Z</time>
      </trkpt>
      <trkpt lat="44.2898" lon="3.65921">
        <ele>830.9</ele>
        <time>2021-08-11T10:40:16Z</time>
      </trkpt>
      <trkpt lat="44.28977" lon="3.65919">
        <ele>830.6</ele>
        <time>2021-08-11T10:40:18Z</time>
      </trkpt>
      <trkpt lat="44.28974" lon="3.65918">
        <ele>830.4</ele>
        <time>2021-08-11T10:40:20Z</time>
      </trkpt>
      <trkpt lat="44.28971" lon="3.65917">
        <ele>830.1</ele>
        <time>2021-08-11T10:40:22Z</time>
      </trkpt>
      <trkpt lat="44.28968" lon="3.65917">
        <ele>830</ele>
        <time>2021-08-11T10:40:24Z</time>
      </trkpt>
      <trkpt lat="44.28964" lon="3.65918">
        <ele>830.3</ele>
        <time>2021-08-11T10:40:26Z</time>
      </trkpt>
      <trkpt lat="44.28961" lon="3.65919">
        <ele>830.6</ele>
        <time>2021-08-11T10:40:28Z</time>
      </trkpt>
      <trkpt lat="44.28958" lon="3.65921">
        <ele>831.1</ele>
        <time>2021-08-11T10:40:30Z</time>
      </trkpt>
      <trkpt lat="44.28955" lon="3.65923">
        <ele>831.7</ele>
        <time>2021-08-11T10:40:32Z</time>
      </trkpt>
      <trkpt lat="44.28951" lon="3.65924">
        <ele>831.9</ele>
        <time>2021-08-11T10:40:34Z</time>
      </trkpt>
      <trkpt lat="44.28948" lon="3.65926">
        <ele>832.3</ele>
        <time>2021-08-11T10:40:36Z</time>
      </trkpt>
      <trkpt lat="44.28945" lon="3.65927">
        <ele>832.7</ele>
        <time>2021-08-11T10:40:38Z</time>
      </trkpt>
      <trkpt lat="44.28942" lon="3.65929">
        <ele>833.1</ele>
        <time>2021-08-11T10:40:40Z</time>
      </trkpt>
      <trkpt lat="44.28939" lon="3.6593">
        <ele>833.4</ele>
        <time>2021-08-11T10:40:42Z</time>
      </trkpt>
      <trkpt lat="44.28936" lon="3.65931">
        <ele>833.8</ele>
        <time>2021-08-11T10:40:44Z</time>
      </trkpt>
      <trkpt lat="44.28933" lon="3.65933">
        <ele>834.1</ele>
        <time>2021-08-11T10:40:46Z</time>
      </trkpt>
      <trkpt lat="44.28929" lon="3.65934">
        <ele>834.5</ele>
        <time>2021-08-11T10:40:48Z</time>
      </trkpt>
      <trkpt lat="44.28926" lon="3.65935">
        <ele>834.7</ele>
        <time>2021-08-11T10:40:50Z</time>
      </trkpt>
      <trkpt lat="44.28923" lon="3.65936">
        <ele>835</ele>
        <time>2021-08-11T10:40:52Z</time>
      </trkpt>
      <trkpt lat="44.28919" lon="3.65937">
        <ele>835.3</ele>
        <time>2021-08-11T10:40:54Z</time>
      </trkpt>
      <trkpt lat="44.28916" lon="3.65937">
        <ele>835.3</ele>
        <time>2021-08-11T10:40:56Z</time>
      </trkpt>
      <trkpt lat="44.28913" lon="3.65938">
        <ele>834.8</ele>
        <time>2021-08-11T10:40:58Z</time>
      </trkpt>
      <trkpt lat="44.28909" lon="3.65939">
        <ele>834.4</ele>
        <time>2021-08-11T10:41:00Z</time>
      </trkpt>
      <trkpt lat="44.28906" lon="3.65939">
        <ele>833.9</ele>
        <time>2021-08-11T10:41:02Z</time>
      </trkpt>
      <trkpt lat="44.28903" lon="3.65941">
        <ele>833.6</ele>
        <time>2021-08-11T10:41:04Z</time>
      </trkpt>
      <trkpt lat="44.28899" lon="3.65942">
        <ele>833.2</ele>
        <time>2021-08-11T10:41:06Z</time>
      </trkpt>
      <trkpt lat="44.28896" lon="3.65944">
        <ele>833.2</ele>
        <time>2021-08-11T10:41:08Z</time>
      </trkpt>
      <trkpt lat="44.28893" lon="3.65946">
        <ele>833.3</ele>
        <time>2021-08-11T10:41:10Z</time>
      </trkpt>
      <trkpt lat="44.2889" lon="3.65949">
        <ele>833.6</ele>
        <time>2021-08-11T10:41:12Z</time>
      </trkpt>
      <trkpt lat="44.28887" lon="3.65953">
        <ele>834</ele>
        <time>2021-08-11T10:41:14Z</time>
      </trkpt>
      <trkpt lat="44.28884" lon="3.65956">
        <ele>834.4</ele>
        <time>2021-08-11T10:41:16Z</time>
      </trkpt>
      <trkpt lat="44.28882" lon="3.65959">
        <ele>834.9</ele>
        <time>2021-08-11T10:41:18Z</time>
      </trkpt>
      <trkpt lat="44.2888" lon="3.65963">
        <ele>835.7</ele>
        <time>2021-08-11T10:41:20Z</time>
      </trkpt>
      <trkpt lat="44.28877" lon="3.65967">
        <ele>836.4</ele>
        <time>2021-08-11T10:41:22Z</time>
      </trkpt>
      <trkpt lat="44.28875" lon="3.65971">
        <ele>837.1</ele>
        <time>2021-08-11T10:41:24Z</time>
      </trkpt>
      <trkpt lat="44.28872" lon="3.65975">
        <ele>837.9</ele>
        <time>2021-08-11T10:41:26Z</time>
      </trkpt>
      <trkpt lat="44.28871" lon="3.65979">
        <ele>839</ele>
        <time>2021-08-11T10:41:28Z</time>
      </trkpt>
      <trkpt lat="44.28868" lon="3.65984">
        <ele>840</ele>
        <time>2021-08-11T10:41:30Z</time>
      </trkpt>
      <trkpt lat="44.28867" lon="3.65989">
        <ele>841.4</ele>
        <time>2021-08-11T10:41:32Z</time>
      </trkpt>
      <trkpt lat="44.28866" lon="3.65994">
        <ele>842.8</ele>
        <time>2021-08-11T10:41:34Z</time>
      </trkpt>
      <trkpt lat="44.28865" lon="3.66">
        <ele>844.4</ele>
        <time>2021-08-11T10:41:36Z</time>
      </trkpt>
      <trkpt lat="44.28863" lon="3.66005">
        <ele>845.2</ele>
        <time>2021-08-11T10:41:38Z</time>
      </trkpt>
      <trkpt lat="44.28862" lon="3.66011">
        <ele>846.1</ele>
        <time>2021-08-11T10:41:40Z</time>
      </trkpt>
      <trkpt lat="44.2886" lon="3.66017">
        <ele>846.9</ele>
        <time>2021-08-11T10:41:42Z</time>
      </trkpt>
      <trkpt lat="44.2886" lon="3.66022">
        <ele>847.7</ele>
        <time>2021-08-11T10:41:44Z</time>
      </trkpt>
      <trkpt lat="44.28858" lon="3.66029">
        <ele>848.6</ele>
        <time>2021-08-11T10:41:46Z</time>
      </trkpt>
      <trkpt lat="44.28855" lon="3.66034">
        <ele>849.2</ele>
        <time>2021-08-11T10:41:48Z</time>
      </trkpt>
      <trkpt lat="44.28851" lon="3.66037">
        <ele>849.3</ele>
        <time>2021-08-11T10:41:50Z</time>
      </trkpt>
      <trkpt lat="44.28847" lon="3.6604">
        <ele>849.3</ele>
        <time>2021-08-11T10:41:52Z</time>
      </trkpt>
      <trkpt lat="44.28843" lon="3.66042">
        <ele>849.1</ele>
        <time>2021-08-11T10:41:54Z</time>
      </trkpt>
      <trkpt lat="44.28838" lon="3.66042">
        <ele>848.7</ele>
        <time>2021-08-11T10:41:56Z</time>
      </trkpt>
      <trkpt lat="44.28834" lon="3.66041">
        <ele>848.1</ele>
        <time>2021-08-11T10:41:58Z</time>
      </trkpt>
      <trkpt lat="44.2883" lon="3.66042">
        <ele>847.4</ele>
        <time>2021-08-11T10:42:00Z</time>
      </trkpt>
      <trkpt lat="44.28826" lon="3.66042">
        <ele>846.6</ele>
        <time>2021-08-11T10:42:02Z</time>
      </trkpt>
      <trkpt lat="44.28823" lon="3.66043">
        <ele>846</ele>
        <time>2021-08-11T10:42:04Z</time>
      </trkpt>
      <trkpt lat="44.28819" lon="3.66044">
        <ele>845.5</ele>
        <time>2021-08-11T10:42:06Z</time>
      </trkpt>
      <trkpt lat="44.28815" lon="3.66046">
        <ele>845</ele>
        <time>2021-08-11T10:42:08Z</time>
      </trkpt>
      <trkpt lat="44.28811" lon="3.66048">
        <ele>844.6</ele>
        <time>2021-08-11T10:42:10Z</time>
      </trkpt>
      <trkpt lat="44.28808" lon="3.6605">
        <ele>844.1</ele>
        <time>2021-08-11T10:42:12Z</time>
      </trkpt>
      <trkpt lat="44.28804" lon="3.66051">
        <ele>843.5</ele>
        <time>2021-08-11T10:42:14Z</time>
      </trkpt>
      <trkpt lat="44.288" lon="3.66052">
        <ele>842.9</ele>
        <time>2021-08-11T10:42:16Z</time>
      </trkpt>
      <trkpt lat="44.28796" lon="3.66053">
        <ele>842.3</ele>
        <time>2021-08-11T10:42:18Z</time>
      </trkpt>
      <trkpt lat="44.28793" lon="3.66053">
        <ele>841.6</ele>
        <time>2021-08-11T10:42:20Z</time>
      </trkpt>
      <trkpt lat="44.28789" lon="3.66053">
        <ele>840.8</ele>
        <time>2021-08-11T10:42:22Z</time>
      </trkpt>
      <trkpt lat="44.28785" lon="3.66054">
        <ele>840.1</ele>
        <time>2021-08-11T10:42:24Z</time>
      </trkpt>
      <trkpt lat="44.28781" lon="3.66054">
        <ele>839.5</ele>
        <time>2021-08-11T10:42:26Z</time>
      </trkpt>
      <trkpt lat="44.28778" lon="3.66055">
        <ele>838.9</ele>
        <time>2021-08-11T10:42:28Z</time>
      </trkpt>
      <trkpt lat="44.28774" lon="3.66057">
        <ele>838.5</ele>
        <time>2021-08-11T10:42:30Z</time>
      </trkpt>
      <trkpt lat="44.28771" lon="3.6606">
        <ele>838.2</ele>
        <time>2021-08-11T10:42:32Z</time>
      </trkpt>
      <trkpt lat="44.28768" lon="3.66063">
        <ele>838.1</ele>
        <time>2021-08-11T10:42:34Z</time>
      </trkpt>
      <trkpt lat="44.28765" lon="3.66066">
        <ele>838.2</ele>
        <time>2021-08-11T10:42:36Z</time>
      </trkpt>
      <trkpt lat="44.28763" lon="3.66071">
        <ele>838.6</ele>
        <time>2021-08-11T10:42:38Z</time>
      </trkpt>
      <trkpt lat="44.28762" lon="3.66077">
        <ele>839.5</ele>
        <time>2021-08-11T10:42:40Z</time>
      </trkpt>
      <trkpt lat="44.28761" lon="3.66083">
        <ele>840.3</ele>
        <time>2021-08-11T10:42:42Z</time>
      </trkpt>
      <trkpt lat="44.28761" lon="3.66088">
        <ele>841</ele>
        <time>2021-08-11T10:42:44Z</time>
      </trkpt>
      <trkpt lat="44.28762" lon="3.66094">
        <ele>841.7</ele>
        <time>2021-08-11T10:42:46Z</time>
      </trkpt>
      <trkpt lat="44.28762" lon="3.661">
        <ele>842.5</ele>
        <time>2021-08-11T10:42:48Z</time>
      </trkpt>
      <trkpt lat="44.28762" lon="3.66105">
        <ele>843.2</ele>
        <time>2021-08-11T10:42:50Z</time>
      </trkpt>
      <trkpt lat="44.28762" lon="3.66111">
        <ele>843.9</ele>
        <time>2021-08-11T10:42:52Z</time>
      </trkpt>
      <trkpt lat="44.28763" lon="3.66117">
        <ele>844.7</ele>
        <time>2021-08-11T10:42:54Z</time>
      </trkpt>
      <trkpt lat="44.28763" lon="3.66123">
        <ele>845.5</ele>
        <time>2021-08-11T10:42:56Z</time>
      </trkpt>
      <trkpt lat="44.28763" lon="3.66129">
        <ele>846.2</ele>
        <time>2021-08-11T10:42:58Z</time>
      </trkpt>
      <trkpt lat="44.28763" lon="3.66134">
        <ele>846.8</ele>
        <time>2021-08-11T10:43:00Z</time>
      </trkpt>
      <trkpt lat="44.28763" lon="3.66139">
        <ele>847.4</ele>
        <time>2021-08-11T10:43:02Z</time>
      </trkpt>
      <trkpt lat="44.28763" lon="3.66145">
        <ele>848.1</ele>
        <time>2021-08-11T10:43:04Z</time>
      </trkpt>
      <trkpt lat="44.28763" lon="3.66151">
        <ele>848.8</ele>
        <time>2021-08-11T10:43:06Z</time>
      </trkpt>
      <trkpt lat="44.28764" lon="3.66156">
        <ele>849.6</ele>
        <time>2021-08-11T10:43:08Z</time>
      </trkpt>
      <trkpt lat="44.28764" lon="3.66162">
        <ele>850.2</ele>
        <time>2021-08-11T10:43:10Z</time>
      </trkpt>
      <trkpt lat="44.28764" lon="3.66167">
        <ele>851</ele>
        <time>2021-08-11T10:43:12Z</time>
      </trkpt>
      <trkpt lat="44.28764" lon="3.66173">
        <ele>851.8</ele>
        <time>2021-08-11T10:43:14Z</time>
      </trkpt>
      <trkpt lat="44.28764" lon="3.66179">
        <ele>852.6</ele>
        <time>2021-08-11T10:43:16Z</time>
      </trkpt>
      <trkpt lat="44.28764" lon="3.66184">
        <ele>853.5</ele>
        <time>2021-08-11T10:43:18Z</time>
      </trkpt>
      <trkpt lat="44.28764" lon="3.6619">
        <ele>854.2</ele>
        <time>2021-08-11T10:43:20Z</time>
      </trkpt>
      <trkpt lat="44.28764" lon="3.66195">
        <ele>855</ele>
        <time>2021-08-11T10:43:22Z</time>
      </trkpt>
      <trkpt lat="44.28763" lon="3.66201">
        <ele>855.8</ele>
        <time>2021-08-11T10:43:24Z</time>
      </trkpt>
      <trkpt lat="44.28763" lon="3.66207">
        <ele>856.6</ele>
        <time>2021-08-11T10:43:26Z</time>
      </trkpt>
      <trkpt lat="44.28762" lon="3.66213">
        <ele>857.2</ele>
        <time>2021-08-11T10:43:28Z</time>
      </trkpt>
      <trkpt lat="44.28762" lon="3.66218">
        <ele>857.9</ele>
        <time>2021-08-11T10:43:30Z</time>
      </trkpt>
      <trkpt lat="44.28761" lon="3.66225">
        <ele>858.7</ele>
        <time>2021-08-11T10:43:32Z</time>
      </trkpt>
      <trkpt lat="44.2876" lon="3.6623">
        <ele>859.2</ele>
        <time>2021-08-11T10:43:34Z</time>
      </trkpt>
      <trkpt lat="44.28759" lon="3.66235">
        <ele>859.8</ele>
        <time>2021-08-11T10:43:36Z</time>
      </trkpt>
      <trkpt lat="44.28758" lon="3.66241">
        <ele>860.5</ele>
        <time>2021-08-11T10:43:38Z</time>
      </trkpt>
      <trkpt lat="44.28757" lon="3.66247">
        <ele>861.1</ele>
        <time>2021-08-11T10:43:40Z</time>
      </trkpt>
      <trkpt lat="44.28756" lon="3.66253">
        <ele>861.8</ele>
        <time>2021-08-11T10:43:42Z</time>
      </trkpt>
      <trkpt lat="44.28755" lon="3.66258">
        <ele>862.4</ele>
        <time>2021-08-11T10:43:44Z</time>
      </trkpt>
      <trkpt lat="44.28753" lon="3.66264">
        <ele>862.8</ele>
        <time>2021-08-11T10:43:46Z</time>
      </trkpt>
      <trkpt lat="44.28751" lon="3.66269">
        <ele>863.2</ele>
        <time>2021-08-11T10:43:48Z</time>
      </trkpt>
      <trkpt lat="44.28749" lon="3.66274">
        <ele>863.5</ele>
        <time>2021-08-11T10:43:50Z</time>
      </trkpt>
      <trkpt lat="44.28747" lon="3.66279">
        <ele>863.8</ele>
        <time>2021-08-11T10:43:52Z</time>
      </trkpt>
      <trkpt lat="44.28744" lon="3.66283">
        <ele>864</ele>
        <time>2021-08-11T10:43:54Z</time>
      </trkpt>
      <trkpt lat="44.28741" lon="3.66288">
        <ele>864.1</ele>
        <time>2021-08-11T10:43:56Z</time>
      </trkpt>
      <trkpt lat="44.28739" lon="3.66292">
        <ele>864.4</ele>
        <time>2021-08-11T10:43:58Z</time>
      </trkpt>
      <trkpt lat="44.28736" lon="3.66296">
        <ele>864.6</ele>
        <time>2021-08-11T10:44:00Z</time>
      </trkpt>
      <trkpt lat="44.28733" lon="3.663">
        <ele>864.8</ele>
        <time>2021-08-11T10:44:02Z</time>
      </trkpt>
      <trkpt lat="44.2873" lon="3.66305">
        <ele>865.2</ele>
        <time>2021-08-11T10:44:04Z</time>
      </trkpt>
      <trkpt lat="44.28728" lon="3.66309">
        <ele>865.5</ele>
        <time>2021-08-11T10:44:06Z</time>
      </trkpt>
      <trkpt lat="44.28725" lon="3.66314">
        <ele>866</ele>
        <time>2021-08-11T10:44:08Z</time>
      </trkpt>
      <trkpt lat="44.28723" lon="3.66319">
        <ele>866.5</ele>
        <time>2021-08-11T10:44:10Z</time>
      </trkpt>
      <trkpt lat="44.2872" lon="3.66323">
        <ele>867</ele>
        <time>2021-08-11T10:44:12Z</time>
      </trkpt>
      <trkpt lat="44.28718" lon="3.66328">
        <ele>867.6</ele>
        <time>2021-08-11T10:44:14Z</time>
      </trkpt>
      <trkpt lat="44.28716" lon="3.66332">
        <ele>868.3</ele>
        <time>2021-08-11T10:44:16Z</time>
      </trkpt>
      <trkpt lat="44.28713" lon="3.66337">
        <ele>868.7</ele>
        <time>2021-08-11T10:44:18Z</time>
      </trkpt>
      <trkpt lat="44.28711" lon="3.66342">
        <ele>869.1</ele>
        <time>2021-08-11T10:44:20Z</time>
      </trkpt>
      <trkpt lat="44.28709" lon="3.66346">
        <ele>869.5</ele>
        <time>2021-08-11T10:44:22Z</time>
      </trkpt>
      <trkpt lat="44.28706" lon="3.66351">
        <ele>869.9</ele>
        <time>2021-08-11T10:44:24Z</time>
      </trkpt>
      <trkpt lat="44.28703" lon="3.66355">
        <ele>870.2</ele>
        <time>2021-08-11T10:44:26Z</time>
      </trkpt>
      <trkpt lat="44.28701" lon="3.6636">
        <ele>870.7</ele>
        <time>2021-08-11T10:44:28Z</time>
      </trkpt>
      <trkpt lat="44.28698" lon="3.66363">
        <ele>871</ele>
        <time>2021-08-11T10:44:30Z</time>
      </trkpt>
      <trkpt lat="44.28695" lon="3.66367">
        <ele>871.3</ele>
        <time>2021-08-11T10:44:32Z</time>
      </trkpt>
      <trkpt lat="44.28692" lon="3.66369">
        <ele>871.3</ele>
        <time>2021-08-11T10:44:34Z</time>
      </trkpt>
      <trkpt lat="44.28688" lon="3.66369">
        <ele>870.9</ele>
        <time>2021-08-11T10:44:36Z</time>
      </trkpt>
      <trkpt lat="44.28685" lon="3.66367">
        <ele>870.3</ele>
        <time>2021-08-11T10:44:38Z</time>
      </trkpt>
      <trkpt lat="44.28681" lon="3.66365">
        <ele>869.6</ele>
        <time>2021-08-11T10:44:40Z</time>
      </trkpt>
      <trkpt lat="44.28677" lon="3.66364">
        <ele>869</ele>
        <time>2021-08-11T10:44:42Z</time>
      </trkpt>
      <trkpt lat="44.28674" lon="3.66361">
        <ele>868.1</ele>
        <time>2021-08-11T10:44:44Z</time>
      </trkpt>
      <trkpt lat="44.28671" lon="3.66359">
        <ele>867.3</ele>
        <time>2021-08-11T10:44:46Z</time>
      </trkpt>
      <trkpt lat="44.28667" lon="3.66357">
        <ele>866.6</ele>
        <time>2021-08-11T10:44:48Z</time>
      </trkpt>
      <trkpt lat="44.28664" lon="3.66355">
        <ele>865.7</ele>
        <time>2021-08-11T10:44:50Z</time>
      </trkpt>
      <trkpt lat="44.28661" lon="3.66353">
        <ele>864.8</ele>
        <time>2021-08-11T10:44:52Z</time>
      </trkpt>
      <trkpt lat="44.28658" lon="3.66351">
        <ele>864</ele>
        <time>2021-08-11T10:44:54Z</time>
      </trkpt>
      <trkpt lat="44.28654" lon="3.6635">
        <ele>863.1</ele>
        <time>2021-08-11T10:44:56Z</time>
      </trkpt>
      <trkpt lat="44.28651" lon="3.66349">
        <ele>862.3</ele>
        <time>2021-08-11T10:44:58Z</time>
      </trkpt>
      <trkpt lat="44.28647" lon="3.66349">
        <ele>861.7</ele>
        <time>2021-08-11T10:45:00Z</time>
      </trkpt>
      <trkpt lat="44.28643" lon="3.6635">
        <ele>861.1</ele>
        <time>2021-08-11T10:45:02Z</time>
      </trkpt>
      <trkpt lat="44.2864" lon="3.66351">
        <ele>860.8</ele>
        <time>2021-08-11T10:45:04Z</time>
      </trkpt>
      <trkpt lat="44.28636" lon="3.66354">
        <ele>860.8</ele>
        <time>2021-08-11T10:45:06Z</time>
      </trkpt>
      <trkpt lat="44.28633" lon="3.66357">
        <ele>860.7</ele>
        <time>2021-08-11T10:45:08Z</time>
      </trkpt>
      <trkpt lat="44.2863" lon="3.66359">
        <ele>860.7</ele>
        <time>2021-08-11T10:45:10Z</time>
      </trkpt>
      <trkpt lat="44.28627" lon="3.66363">
        <ele>860.8</ele>
        <time>2021-08-11T10:45:12Z</time>
      </trkpt>
      <trkpt lat="44.28624" lon="3.66366">
        <ele>860.8</ele>
        <time>2021-08-11T10:45:14Z</time>
      </trkpt>
      <trkpt lat="44.28621" lon="3.6637">
        <ele>861.1</ele>
        <time>2021-08-11T10:45:16Z</time>
      </trkpt>
      <trkpt lat="44.28619" lon="3.66373">
        <ele>861.4</ele>
        <time>2021-08-11T10:45:18Z</time>
      </trkpt>
      <trkpt lat="44.28617" lon="3.66377">
        <ele>861.8</ele>
        <time>2021-08-11T10:45:20Z</time>
      </trkpt>
      <trkpt lat="44.28614" lon="3.66381">
        <ele>862</ele>
        <time>2021-08-11T10:45:22Z</time>
      </trkpt>
      <trkpt lat="44.28612" lon="3.66386">
        <ele>862.5</ele>
        <time>2021-08-11T10:45:24Z</time>
      </trkpt>
      <trkpt lat="44.2861" lon="3.6639">
        <ele>862.8</ele>
        <time>2021-08-11T10:45:26Z</time>
      </trkpt>
      <trkpt lat="44.28608" lon="3.66394">
        <ele>863.3</ele>
        <time>2021-08-11T10:45:28Z</time>
      </trkpt>
      <trkpt lat="44.28606" lon="3.66399">
        <ele>863.9</ele>
        <time>2021-08-11T10:45:30Z</time>
      </trkpt>
      <trkpt lat="44.28605" lon="3.66403">
        <ele>864.5</ele>
        <time>2021-08-11T10:45:32Z</time>
      </trkpt>
      <trkpt lat="44.28604" lon="3.66408">
        <ele>865.1</ele>
        <time>2021-08-11T10:45:34Z</time>
      </trkpt>
      <trkpt lat="44.28603" lon="3.66413">
        <ele>865.8</ele>
        <time>2021-08-11T10:45:36Z</time>
      </trkpt>
      <trkpt lat="44.28602" lon="3.66418">
        <ele>866.5</ele>
        <time>2021-08-11T10:45:38Z</time>
      </trkpt>
      <trkpt lat="44.28602" lon="3.66423">
        <ele>867.1</ele>
        <time>2021-08-11T10:45:40Z</time>
      </trkpt>
      <trkpt lat="44.28601" lon="3.66427">
        <ele>867.7</ele>
        <time>2021-08-11T10:45:42Z</time>
      </trkpt>
      <trkpt lat="44.28601" lon="3.66432">
        <ele>868.4</ele>
        <time>2021-08-11T10:45:44Z</time>
      </trkpt>
      <trkpt lat="44.28601" lon="3.66437">
        <ele>869.1</ele>
        <time>2021-08-11T10:45:46Z</time>
      </trkpt>
      <trkpt lat="44.28601" lon="3.66442">
        <ele>869.8</ele>
        <time>2021-08-11T10:45:48Z</time>
      </trkpt>
      <trkpt lat="44.28601" lon="3.66447">
        <ele>870.6</ele>
        <time>2021-08-11T10:45:50Z</time>
      </trkpt>
      <trkpt lat="44.28602" lon="3.66452">
        <ele>871.3</ele>
        <time>2021-08-11T10:45:52Z</time>
      </trkpt>
      <trkpt lat="44.28602" lon="3.66457">
        <ele>871.9</ele>
        <time>2021-08-11T10:45:54Z</time>
      </trkpt>
      <trkpt lat="44.28602" lon="3.66462">
        <ele>872.7</ele>
        <time>2021-08-11T10:45:56Z</time>
      </trkpt>
      <trkpt lat="44.28601" lon="3.66466">
        <ele>873.2</ele>
        <time>2021-08-11T10:45:58Z</time>
      </trkpt>
      <trkpt lat="44.28601" lon="3.6647">
        <ele>873.8</ele>
        <time>2021-08-11T10:46:00Z</time>
      </trkpt>
      <trkpt lat="44.28601" lon="3.66474">
        <ele>874.4</ele>
        <time>2021-08-11T10:46:02Z</time>
      </trkpt>
      <trkpt lat="44.286" lon="3.66478">
        <ele>874.8</ele>
        <time>2021-08-11T10:46:04Z</time>
      </trkpt>
      <trkpt lat="44.286" lon="3.66481">
        <ele>875.1</ele>
        <time>2021-08-11T10:46:06Z</time>
      </trkpt>
      <trkpt lat="44.286" lon="3.6648">
        <ele>875</ele>
        <time>2021-08-11T10:46:08Z</time>
      </trkpt>
      <trkpt lat="44.286" lon="3.6648">
        <ele>875</ele>
        <time>2021-08-11T10:46:10Z</time>
      </trkpt>
      <trkpt lat="44.286" lon="3.6648">
        <ele>875</ele>
        <time>2021-08-11T10:46:12Z</time>
      </trkpt>
      <trkpt lat="44.286" lon="3.6648">
        <ele>875.1</ele>
        <time>2021-08-11T10:46:14Z</time>
      </trkpt>
      <trkpt lat="44.28597" lon="3.66493">
        <ele>876.3</ele>
        <time>2021-08-11T10:55:42Z</time>
      </trkpt>
      <trkpt lat="44.28596" lon="3.66497">
        <ele>876.8</ele>
        <time>2021-08-11T10:55:44Z</time>
      </trkpt>
      <trkpt lat="44.28595" lon="3.66502">
        <ele>877.2</ele>
        <time>2021-08-11T10:55:46Z</time>
      </trkpt>
      <trkpt lat="44.28594" lon="3.66506">
        <ele>877.6</ele>
        <time>2021-08-11T10:55:48Z</time>
      </trkpt>
      <trkpt lat="44.28593" lon="3.6651">
        <ele>878</ele>
        <time>2021-08-11T10:55:50Z</time>
      </trkpt>
      <trkpt lat="44.28591" lon="3.66514">
        <ele>878.2</ele>
        <time>2021-08-11T10:55:52Z</time>
      </trkpt>
      <trkpt lat="44.2859" lon="3.66518">
        <ele>878.6</ele>
        <time>2021-08-11T10:55:54Z</time>
      </trkpt>
      <trkpt lat="44.28588" lon="3.66523">
        <ele>879</ele>
        <time>2021-08-11T10:55:56Z</time>
      </trkpt>
      <trkpt lat="44.28587" lon="3.66527">
        <ele>879.5</ele>
        <time>2021-08-11T10:55:58Z</time>
      </trkpt>
      <trkpt lat="44.28586" lon="3.66532">
        <ele>879.9</ele>
        <time>2021-08-11T10:56:00Z</time>
      </trkpt>
      <trkpt lat="44.28583" lon="3.66535">
        <ele>880.1</ele>
        <time>2021-08-11T10:56:02Z</time>
      </trkpt>
      <trkpt lat="44.28581" lon="3.6654">
        <ele>880.3</ele>
        <time>2021-08-11T10:56:04Z</time>
      </trkpt>
      <trkpt lat="44.28579" lon="3.66544">
        <ele>880.4</ele>
        <time>2021-08-11T10:56:06Z</time>
      </trkpt>
      <trkpt lat="44.28576" lon="3.66547">
        <ele>880.4</ele>
        <time>2021-08-11T10:56:08Z</time>
      </trkpt>
      <trkpt lat="44.28574" lon="3.6655">
        <ele>880.3</ele>
        <time>2021-08-11T10:56:10Z</time>
      </trkpt>
      <trkpt lat="44.28571" lon="3.66553">
        <ele>880.3</ele>
        <time>2021-08-11T10:56:12Z</time>
      </trkpt>
      <trkpt lat="44.28568" lon="3.66556">
        <ele>880.1</ele>
        <time>2021-08-11T10:56:14Z</time>
      </trkpt>
      <trkpt lat="44.28566" lon="3.66559">
        <ele>879.9</ele>
        <time>2021-08-11T10:56:16Z</time>
      </trkpt>
      <trkpt lat="44.28563" lon="3.66562">
        <ele>879.8</ele>
        <time>2021-08-11T10:56:18Z</time>
      </trkpt>
      <trkpt lat="44.28559" lon="3.66564">
        <ele>879.4</ele>
        <time>2021-08-11T10:56:20Z</time>
      </trkpt>
      <trkpt lat="44.28556" lon="3.66567">
        <ele>879.2</ele>
        <time>2021-08-11T10:56:22Z</time>
      </trkpt>
      <trkpt lat="44.28553" lon="3.6657">
        <ele>879.2</ele>
        <time>2021-08-11T10:56:24Z</time>
      </trkpt>
      <trkpt lat="44.28551" lon="3.66573">
        <ele>879.2</ele>
        <time>2021-08-11T10:56:26Z</time>
      </trkpt>
      <trkpt lat="44.28549" lon="3.66577">
        <ele>879.3</ele>
        <time>2021-08-11T10:56:28Z</time>
      </trkpt>
      <trkpt lat="44.28546" lon="3.6658">
        <ele>879.4</ele>
        <time>2021-08-11T10:56:30Z</time>
      </trkpt>
      <trkpt lat="44.28543" lon="3.66584">
        <ele>879.4</ele>
        <time>2021-08-11T10:56:32Z</time>
      </trkpt>
      <trkpt lat="44.28541" lon="3.66588">
        <ele>879.2</ele>
        <time>2021-08-11T10:56:34Z</time>
      </trkpt>
      <trkpt lat="44.28539" lon="3.66592">
        <ele>879.2</ele>
        <time>2021-08-11T10:56:36Z</time>
      </trkpt>
      <trkpt lat="44.28537" lon="3.66596">
        <ele>879</ele>
        <time>2021-08-11T10:56:38Z</time>
      </trkpt>
      <trkpt lat="44.28535" lon="3.666">
        <ele>878.9</ele>
        <time>2021-08-11T10:56:40Z</time>
      </trkpt>
      <trkpt lat="44.28533" lon="3.66605">
        <ele>878.8</ele>
        <time>2021-08-11T10:56:42Z</time>
      </trkpt>
      <trkpt lat="44.28531" lon="3.66609">
        <ele>878.7</ele>
        <time>2021-08-11T10:56:44Z</time>
      </trkpt>
      <trkpt lat="44.2853" lon="3.66613">
        <ele>878.7</ele>
        <time>2021-08-11T10:56:46Z</time>
      </trkpt>
      <trkpt lat="44.28528" lon="3.66617">
        <ele>878.6</ele>
        <time>2021-08-11T10:56:48Z</time>
      </trkpt>
      <trkpt lat="44.28526" lon="3.66621">
        <ele>878.5</ele>
        <time>2021-08-11T10:56:50Z</time>
      </trkpt>
      <trkpt lat="44.28524" lon="3.66625">
        <ele>878.5</ele>
        <time>2021-08-11T10:56:52Z</time>
      </trkpt>
      <trkpt lat="44.28522" lon="3.6663">
        <ele>878.5</ele>
        <time>2021-08-11T10:56:54Z</time>
      </trkpt>
      <trkpt lat="44.28521" lon="3.66634">
        <ele>878.6</ele>
        <time>2021-08-11T10:56:56Z</time>
      </trkpt>
      <trkpt lat="44.2852" lon="3.66639">
        <ele>878.7</ele>
        <time>2021-08-11T10:56:58Z</time>
      </trkpt>
      <trkpt lat="44.28519" lon="3.66643">
        <ele>878.7</ele>
        <time>2021-08-11T10:57:00Z</time>
      </trkpt>
      <trkpt lat="44.28518" lon="3.66648">
        <ele>878.9</ele>
        <time>2021-08-11T10:57:02Z</time>
      </trkpt>
      <trkpt lat="44.28517" lon="3.66653">
        <ele>879.1</ele>
        <time>2021-08-11T10:57:04Z</time>
      </trkpt>
      <trkpt lat="44.28516" lon="3.66658">
        <ele>879.3</ele>
        <time>2021-08-11T10:57:06Z</time>
      </trkpt>
      <trkpt lat="44.28516" lon="3.66663">
        <ele>879.6</ele>
        <time>2021-08-11T10:57:08Z</time>
      </trkpt>
      <trkpt lat="44.28517" lon="3.66667">
        <ele>880</ele>
        <time>2021-08-11T10:57:10Z</time>
      </trkpt>
      <trkpt lat="44.28517" lon="3.66672">
        <ele>879.9</ele>
        <time>2021-08-11T10:57:12Z</time>
      </trkpt>
      <trkpt lat="44.28518" lon="3.66677">
        <ele>879.9</ele>
        <time>2021-08-11T10:57:14Z</time>
      </trkpt>
      <trkpt lat="44.2852" lon="3.66681">
        <ele>880.1</ele>
        <time>2021-08-11T10:57:16Z</time>
      </trkpt>
      <trkpt lat="44.28523" lon="3.66684">
        <ele>880.6</ele>
        <time>2021-08-11T10:57:18Z</time>
      </trkpt>
      <trkpt lat="44.28527" lon="3.66687">
        <ele>881.1</ele>
        <time>2021-08-11T10:57:20Z</time>
      </trkpt>
      <trkpt lat="44.2853" lon="3.66689">
        <ele>881.7</ele>
        <time>2021-08-11T10:57:22Z</time>
      </trkpt>
      <trkpt lat="44.28534" lon="3.6669">
        <ele>882.4</ele>
        <time>2021-08-11T10:57:24Z</time>
      </trkpt>
      <trkpt lat="44.28537" lon="3.66691">
        <ele>883.1</ele>
        <time>2021-08-11T10:57:26Z</time>
      </trkpt>
      <trkpt lat="44.28542" lon="3.66691">
        <ele>883.9</ele>
        <time>2021-08-11T10:57:28Z</time>
      </trkpt>
      <trkpt lat="44.28546" lon="3.66691">
        <ele>884.7</ele>
        <time>2021-08-11T10:57:30Z</time>
      </trkpt>
      <trkpt lat="44.2855" lon="3.66691">
        <ele>885.5</ele>
        <time>2021-08-11T10:57:32Z</time>
      </trkpt>
      <trkpt lat="44.28554" lon="3.6669">
        <ele>886.3</ele>
        <time>2021-08-11T10:57:34Z</time>
      </trkpt>
      <trkpt lat="44.28558" lon="3.6669">
        <ele>887.2</ele>
        <time>2021-08-11T10:57:36Z</time>
      </trkpt>
      <trkpt lat="44.28563" lon="3.6669">
        <ele>888</ele>
        <time>2021-08-11T10:57:38Z</time>
      </trkpt>
      <trkpt lat="44.28567" lon="3.6669">
        <ele>888.8</ele>
        <time>2021-08-11T10:57:40Z</time>
      </trkpt>
      <trkpt lat="44.28571" lon="3.66691">
        <ele>889.7</ele>
        <time>2021-08-11T10:57:42Z</time>
      </trkpt>
      <trkpt lat="44.28575" lon="3.66694">
        <ele>890.4</ele>
        <time>2021-08-11T10:57:44Z</time>
      </trkpt>
      <trkpt lat="44.28579" lon="3.66697">
        <ele>891.1</ele>
        <time>2021-08-11T10:57:46Z</time>
      </trkpt>
      <trkpt lat="44.28582" lon="3.66701">
        <ele>891.8</ele>
        <time>2021-08-11T10:57:48Z</time>
      </trkpt>
      <trkpt lat="44.28585" lon="3.66706">
        <ele>892.1</ele>
        <time>2021-08-11T10:57:50Z</time>
      </trkpt>
      <trkpt lat="44.28586" lon="3.66712">
        <ele>892.1</ele>
        <time>2021-08-11T10:57:52Z</time>
      </trkpt>
      <trkpt lat="44.28587" lon="3.66719">
        <ele>892.2</ele>
        <time>2021-08-11T10:57:54Z</time>
      </trkpt>
      <trkpt lat="44.28586" lon="3.66725">
        <ele>892.1</ele>
        <time>2021-08-11T10:57:56Z</time>
      </trkpt>
      <trkpt lat="44.28585" lon="3.6673">
        <ele>892.1</ele>
        <time>2021-08-11T10:57:58Z</time>
      </trkpt>
      <trkpt lat="44.28583" lon="3.66735">
        <ele>892</ele>
        <time>2021-08-11T10:58:00Z</time>
      </trkpt>
      <trkpt lat="44.28581" lon="3.6674">
        <ele>891.5</ele>
        <time>2021-08-11T10:58:02Z</time>
      </trkpt>
      <trkpt lat="44.28578" lon="3.66746">
        <ele>890.8</ele>
        <time>2021-08-11T10:58:04Z</time>
      </trkpt>
      <trkpt lat="44.28575" lon="3.66752">
        <ele>890.3</ele>
        <time>2021-08-11T10:58:06Z</time>
      </trkpt>
      <trkpt lat="44.28572" lon="3.6676">
        <ele>890.5</ele>
        <time>2021-08-11T10:58:08Z</time>
      </trkpt>
      <trkpt lat="44.28568" lon="3.66767">
        <ele>890.3</ele>
        <time>2021-08-11T10:58:10Z</time>
      </trkpt>
      <trkpt lat="44.28564" lon="3.66774">
        <ele>890.1</ele>
        <time>2021-08-11T10:58:12Z</time>
      </trkpt>
      <trkpt lat="44.28561" lon="3.66781">
        <ele>890.1</ele>
        <time>2021-08-11T10:58:14Z</time>
      </trkpt>
      <trkpt lat="44.28557" lon="3.66789">
        <ele>890.1</ele>
        <time>2021-08-11T10:58:16Z</time>
      </trkpt>
      <trkpt lat="44.28553" lon="3.66798">
        <ele>890.1</ele>
        <time>2021-08-11T10:58:18Z</time>
      </trkpt>
      <trkpt lat="44.28549" lon="3.66807">
        <ele>890</ele>
        <time>2021-08-11T10:58:20Z</time>
      </trkpt>
      <trkpt lat="44.28544" lon="3.66816">
        <ele>889.7</ele>
        <time>2021-08-11T10:58:22Z</time>
      </trkpt>
      <trkpt lat="44.28538" lon="3.66825">
        <ele>889.3</ele>
        <time>2021-08-11T10:58:24Z</time>
      </trkpt>
      <trkpt lat="44.28532" lon="3.66834">
        <ele>888.7</ele>
        <time>2021-08-11T10:58:26Z</time>
      </trkpt>
      <trkpt lat="44.28526" lon="3.66841">
        <ele>888</ele>
        <time>2021-08-11T10:58:28Z</time>
      </trkpt>
      <trkpt lat="44.2852" lon="3.66849">
        <ele>887.4</ele>
        <time>2021-08-11T10:58:30Z</time>
      </trkpt>
      <trkpt lat="44.28514" lon="3.66857">
        <ele>886.8</ele>
        <time>2021-08-11T10:58:32Z</time>
      </trkpt>
      <trkpt lat="44.28509" lon="3.66864">
        <ele>886.3</ele>
        <time>2021-08-11T10:58:34Z</time>
      </trkpt>
      <trkpt lat="44.28504" lon="3.66871">
        <ele>885.9</ele>
        <time>2021-08-11T10:58:36Z</time>
      </trkpt>
      <trkpt lat="44.28499" lon="3.6688">
        <ele>885.8</ele>
        <time>2021-08-11T10:58:38Z</time>
      </trkpt>
      <trkpt lat="44.28495" lon="3.66888">
        <ele>885.4</ele>
        <time>2021-08-11T10:58:40Z</time>
      </trkpt>
      <trkpt lat="44.28493" lon="3.66898">
        <ele>885.8</ele>
        <time>2021-08-11T10:58:42Z</time>
      </trkpt>
      <trkpt lat="44.28494" lon="3.66908">
        <ele>887</ele>
        <time>2021-08-11T10:58:44Z</time>
      </trkpt>
      <trkpt lat="44.28495" lon="3.66918">
        <ele>888.6</ele>
        <time>2021-08-11T10:58:46Z</time>
      </trkpt>
      <trkpt lat="44.28499" lon="3.66928">
        <ele>890.4</ele>
        <time>2021-08-11T10:58:48Z</time>
      </trkpt>
      <trkpt lat="44.28502" lon="3.66937">
        <ele>891.9</ele>
        <time>2021-08-11T10:58:50Z</time>
      </trkpt>
      <trkpt lat="44.28505" lon="3.66946">
        <ele>893.2</ele>
        <time>2021-08-11T10:58:52Z</time>
      </trkpt>
      <trkpt lat="44.28507" lon="3.66956">
        <ele>894.4</ele>
        <time>2021-08-11T10:58:54Z</time>
      </trkpt>
      <trkpt lat="44.28507" lon="3.66967">
        <ele>895.2</ele>
        <time>2021-08-11T10:58:56Z</time>
      </trkpt>
      <trkpt lat="44.28506" lon="3.66977">
        <ele>895.8</ele>
        <time>2021-08-11T10:58:58Z</time>
      </trkpt>
      <trkpt lat="44.28504" lon="3.66987">
        <ele>896</ele>
        <time>2021-08-11T10:59:00Z</time>
      </trkpt>
      <trkpt lat="44.28501" lon="3.66996">
        <ele>896</ele>
        <time>2021-08-11T10:59:02Z</time>
      </trkpt>
      <trkpt lat="44.28497" lon="3.67004">
        <ele>896</ele>
        <time>2021-08-11T10:59:04Z</time>
      </trkpt>
      <trkpt lat="44.28491" lon="3.6701">
        <ele>895.8</ele>
        <time>2021-08-11T10:59:06Z</time>
      </trkpt>
      <trkpt lat="44.28485" lon="3.67016">
        <ele>895.5</ele>
        <time>2021-08-11T10:59:08Z</time>
      </trkpt>
      <trkpt lat="44.28479" lon="3.6702">
        <ele>895</ele>
        <time>2021-08-11T10:59:10Z</time>
      </trkpt>
      <trkpt lat="44.28472" lon="3.67025">
        <ele>894.4</ele>
        <time>2021-08-11T10:59:12Z</time>
      </trkpt>
      <trkpt lat="44.28466" lon="3.6703">
        <ele>893.8</ele>
        <time>2021-08-11T10:59:14Z</time>
      </trkpt>
      <trkpt lat="44.2846" lon="3.67033">
        <ele>893.2</ele>
        <time>2021-08-11T10:59:16Z</time>
      </trkpt>
      <trkpt lat="44.28454" lon="3.67036">
        <ele>892.2</ele>
        <time>2021-08-11T10:59:18Z</time>
      </trkpt>
      <trkpt lat="44.28447" lon="3.6704">
        <ele>891.5</ele>
        <time>2021-08-11T10:59:20Z</time>
      </trkpt>
      <trkpt lat="44.28441" lon="3.67045">
        <ele>890.9</ele>
        <time>2021-08-11T10:59:22Z</time>
      </trkpt>
      <trkpt lat="44.28434" lon="3.6705">
        <ele>890.5</ele>
        <time>2021-08-11T10:59:24Z</time>
      </trkpt>
      <trkpt lat="44.28428" lon="3.67056">
        <ele>890.3</ele>
        <time>2021-08-11T10:59:26Z</time>
      </trkpt>
      <trkpt lat="44.28422" lon="3.67063">
        <ele>890.5</ele>
        <time>2021-08-11T10:59:28Z</time>
      </trkpt>
      <trkpt lat="44.28416" lon="3.67071">
        <ele>891</ele>
        <time>2021-08-11T10:59:30Z</time>
      </trkpt>
      <trkpt lat="44.28411" lon="3.67079">
        <ele>891.5</ele>
        <time>2021-08-11T10:59:32Z</time>
      </trkpt>
      <trkpt lat="44.28405" lon="3.67088">
        <ele>891.9</ele>
        <time>2021-08-11T10:59:34Z</time>
      </trkpt>
      <trkpt lat="44.284" lon="3.67096">
        <ele>892.1</ele>
        <time>2021-08-11T10:59:36Z</time>
      </trkpt>
      <trkpt lat="44.28394" lon="3.67103">
        <ele>892.1</ele>
        <time>2021-08-11T10:59:38Z</time>
      </trkpt>
      <trkpt lat="44.28389" lon="3.67111">
        <ele>892</ele>
        <time>2021-08-11T10:59:40Z</time>
      </trkpt>
      <trkpt lat="44.28383" lon="3.67118">
        <ele>892.1</ele>
        <time>2021-08-11T10:59:42Z</time>
      </trkpt>
      <trkpt lat="44.28378" lon="3.67125">
        <ele>891.8</ele>
        <time>2021-08-11T10:59:44Z</time>
      </trkpt>
      <trkpt lat="44.28372" lon="3.67133">
        <ele>891.6</ele>
        <time>2021-08-11T10:59:46Z</time>
      </trkpt>
      <trkpt lat="44.28367" lon="3.6714">
        <ele>891.4</ele>
        <time>2021-08-11T10:59:48Z</time>
      </trkpt>
      <trkpt lat="44.28362" lon="3.67148">
        <ele>891.5</ele>
        <time>2021-08-11T10:59:50Z</time>
      </trkpt>
      <trkpt lat="44.28357" lon="3.67156">
        <ele>891.6</ele>
        <time>2021-08-11T10:59:52Z</time>
      </trkpt>
      <trkpt lat="44.28352" lon="3.67165">
        <ele>891.8</ele>
        <time>2021-08-11T10:59:54Z</time>
      </trkpt>
      <trkpt lat="44.28347" lon="3.67175">
        <ele>892.2</ele>
        <time>2021-08-11T10:59:56Z</time>
      </trkpt>
      <trkpt lat="44.28343" lon="3.67185">
        <ele>893</ele>
        <time>2021-08-11T10:59:58Z</time>
      </trkpt>
      <trkpt lat="44.28339" lon="3.67194">
        <ele>893.8</ele>
        <time>2021-08-11T11:00:00Z</time>
      </trkpt>
      <trkpt lat="44.28335" lon="3.67203">
        <ele>894.3</ele>
        <time>2021-08-11T11:00:02Z</time>
      </trkpt>
      <trkpt lat="44.2833" lon="3.67209">
        <ele>894.7</ele>
        <time>2021-08-11T11:00:04Z</time>
      </trkpt>
      <trkpt lat="44.28325" lon="3.67213">
        <ele>895.2</ele>
        <time>2021-08-11T11:00:06Z</time>
      </trkpt>
      <trkpt lat="44.28319" lon="3.67217">
        <ele>895.3</ele>
        <time>2021-08-11T11:00:08Z</time>
      </trkpt>
      <trkpt lat="44.28312" lon="3.67219">
        <ele>895.1</ele>
        <time>2021-08-11T11:00:10Z</time>
      </trkpt>
      <trkpt lat="44.28305" lon="3.67221">
        <ele>894.7</ele>
        <time>2021-08-11T11:00:12Z</time>
      </trkpt>
      <trkpt lat="44.28298" lon="3.67223">
        <ele>894.4</ele>
        <time>2021-08-11T11:00:14Z</time>
      </trkpt>
      <trkpt lat="44.2829" lon="3.67222">
        <ele>893.6</ele>
        <time>2021-08-11T11:00:16Z</time>
      </trkpt>
      <trkpt lat="44.28284" lon="3.67221">
        <ele>892.6</ele>
        <time>2021-08-11T11:00:18Z</time>
      </trkpt>
      <trkpt lat="44.28277" lon="3.67219">
        <ele>891.5</ele>
        <time>2021-08-11T11:00:20Z</time>
      </trkpt>
      <trkpt lat="44.28271" lon="3.67215">
        <ele>889.9</ele>
        <time>2021-08-11T11:00:22Z</time>
      </trkpt>
      <trkpt lat="44.28265" lon="3.67213">
        <ele>888.8</ele>
        <time>2021-08-11T11:00:24Z</time>
      </trkpt>
      <trkpt lat="44.28258" lon="3.67213">
        <ele>888.1</ele>
        <time>2021-08-11T11:00:26Z</time>
      </trkpt>
      <trkpt lat="44.28252" lon="3.67216">
        <ele>888</ele>
        <time>2021-08-11T11:00:28Z</time>
      </trkpt>
      <trkpt lat="44.28245" lon="3.67219">
        <ele>888.3</ele>
        <time>2021-08-11T11:00:30Z</time>
      </trkpt>
      <trkpt lat="44.28238" lon="3.67224">
        <ele>888.8</ele>
        <time>2021-08-11T11:00:32Z</time>
      </trkpt>
      <trkpt lat="44.28231" lon="3.6723">
        <ele>889.7</ele>
        <time>2021-08-11T11:00:34Z</time>
      </trkpt>
      <trkpt lat="44.28224" lon="3.67237">
        <ele>890.5</ele>
        <time>2021-08-11T11:00:36Z</time>
      </trkpt>
      <trkpt lat="44.28217" lon="3.67244">
        <ele>891.5</ele>
        <time>2021-08-11T11:00:38Z</time>
      </trkpt>
      <trkpt lat="44.2821" lon="3.67251">
        <ele>892.4</ele>
        <time>2021-08-11T11:00:40Z</time>
      </trkpt>
      <trkpt lat="44.28201" lon="3.67257">
        <ele>892.7</ele>
        <time>2021-08-11T11:00:42Z</time>
      </trkpt>
      <trkpt lat="44.28193" lon="3.67261">
        <ele>892.6</ele>
        <time>2021-08-11T11:00:44Z</time>
      </trkpt>
      <trkpt lat="44.28185" lon="3.67262">
        <ele>892</ele>
        <time>2021-08-11T11:00:46Z</time>
      </trkpt>
      <trkpt lat="44.28179" lon="3.67264">
        <ele>891.8</ele>
        <time>2021-08-11T11:00:48Z</time>
      </trkpt>
      <trkpt lat="44.28174" lon="3.67266">
        <ele>891.5</ele>
        <time>2021-08-11T11:00:50Z</time>
      </trkpt>
      <trkpt lat="44.28169" lon="3.67268">
        <ele>891.5</ele>
        <time>2021-08-11T11:00:52Z</time>
      </trkpt>
      <trkpt lat="44.28164" lon="3.6727">
        <ele>891.5</ele>
        <time>2021-08-11T11:00:54Z</time>
      </trkpt>
      <trkpt lat="44.2816" lon="3.67272">
        <ele>891.8</ele>
        <time>2021-08-11T11:00:56Z</time>
      </trkpt>
      <trkpt lat="44.28156" lon="3.67274">
        <ele>892</ele>
        <time>2021-08-11T11:00:58Z</time>
      </trkpt>
      <trkpt lat="44.28152" lon="3.67276">
        <ele>892.2</ele>
        <time>2021-08-11T11:01:00Z</time>
      </trkpt>
      <trkpt lat="44.28149" lon="3.67277">
        <ele>892.3</ele>
        <time>2021-08-11T11:01:02Z</time>
      </trkpt>
      <trkpt lat="44.28145" lon="3.67279">
        <ele>892.4</ele>
        <time>2021-08-11T11:01:04Z</time>
      </trkpt>
      <trkpt lat="44.28141" lon="3.6728">
        <ele>892.5</ele>
        <time>2021-08-11T11:01:06Z</time>
      </trkpt>
      <trkpt lat="44.28137" lon="3.67281">
        <ele>892.6</ele>
        <time>2021-08-11T11:01:08Z</time>
      </trkpt>
      <trkpt lat="44.28133" lon="3.67283">
        <ele>892.8</ele>
        <time>2021-08-11T11:01:10Z</time>
      </trkpt>
      <trkpt lat="44.2813" lon="3.67285">
        <ele>892.9</ele>
        <time>2021-08-11T11:01:12Z</time>
      </trkpt>
      <trkpt lat="44.28126" lon="3.67287">
        <ele>893.1</ele>
        <time>2021-08-11T11:01:14Z</time>
      </trkpt>
      <trkpt lat="44.28123" lon="3.67289">
        <ele>893.3</ele>
        <time>2021-08-11T11:01:16Z</time>
      </trkpt>
      <trkpt lat="44.28119" lon="3.67291">
        <ele>893.4</ele>
        <time>2021-08-11T11:01:18Z</time>
      </trkpt>
      <trkpt lat="44.28116" lon="3.67294">
        <ele>893.7</ele>
        <time>2021-08-11T11:01:20Z</time>
      </trkpt>
      <trkpt lat="44.28113" lon="3.67297">
        <ele>894</ele>
        <time>2021-08-11T11:01:22Z</time>
      </trkpt>
      <trkpt lat="44.2811" lon="3.67301">
        <ele>894.4</ele>
        <time>2021-08-11T11:01:24Z</time>
      </trkpt>
      <trkpt lat="44.28107" lon="3.67305">
        <ele>894.8</ele>
        <time>2021-08-11T11:01:26Z</time>
      </trkpt>
      <trkpt lat="44.28104" lon="3.67308">
        <ele>895.1</ele>
        <time>2021-08-11T11:01:28Z</time>
      </trkpt>
      <trkpt lat="44.281" lon="3.67313">
        <ele>895.6</ele>
        <time>2021-08-11T11:01:30Z</time>
      </trkpt>
      <trkpt lat="44.28096" lon="3.67319">
        <ele>896</ele>
        <time>2021-08-11T11:01:32Z</time>
      </trkpt>
      <trkpt lat="44.28092" lon="3.67325">
        <ele>896.5</ele>
        <time>2021-08-11T11:01:34Z</time>
      </trkpt>
      <trkpt lat="44.28087" lon="3.67331">
        <ele>896.9</ele>
        <time>2021-08-11T11:01:36Z</time>
      </trkpt>
      <trkpt lat="44.28082" lon="3.67337">
        <ele>897.4</ele>
        <time>2021-08-11T11:01:38Z</time>
      </trkpt>
      <trkpt lat="44.28076" lon="3.67343">
        <ele>897.9</ele>
        <time>2021-08-11T11:01:40Z</time>
      </trkpt>
      <trkpt lat="44.2807" lon="3.67349">
        <ele>898.4</ele>
        <time>2021-08-11T11:01:42Z</time>
      </trkpt>
      <trkpt lat="44.28064" lon="3.67353">
        <ele>898.7</ele>
        <time>2021-08-11T11:01:44Z</time>
      </trkpt>
      <trkpt lat="44.28057" lon="3.67356">
        <ele>898.8</ele>
        <time>2021-08-11T11:01:46Z</time>
      </trkpt>
      <trkpt lat="44.28051" lon="3.67358">
        <ele>898.9</ele>
        <time>2021-08-11T11:01:48Z</time>
      </trkpt>
      <trkpt lat="44.28045" lon="3.6736">
        <ele>899</ele>
        <time>2021-08-11T11:01:50Z</time>
      </trkpt>
      <trkpt lat="44.2804" lon="3.67361">
        <ele>899</ele>
        <time>2021-08-11T11:01:52Z</time>
      </trkpt>
      <trkpt lat="44.28035" lon="3.67362">
        <ele>899</ele>
        <time>2021-08-11T11:01:54Z</time>
      </trkpt>
      <trkpt lat="44.28031" lon="3.67363">
        <ele>899</ele>
        <time>2021-08-11T11:01:56Z</time>
      </trkpt>
      <trkpt lat="44.28026" lon="3.67364">
        <ele>899</ele>
        <time>2021-08-11T11:01:58Z</time>
      </trkpt>
      <trkpt lat="44.28022" lon="3.67366">
        <ele>899</ele>
        <time>2021-08-11T11:02:00Z</time>
      </trkpt>
      <trkpt lat="44.28018" lon="3.67368">
        <ele>899</ele>
        <time>2021-08-11T11:02:02Z</time>
      </trkpt>
      <trkpt lat="44.28013" lon="3.67369">
        <ele>899</ele>
        <time>2021-08-11T11:02:04Z</time>
      </trkpt>
      <trkpt lat="44.28009" lon="3.6737">
        <ele>898.9</ele>
        <time>2021-08-11T11:02:06Z</time>
      </trkpt>
      <trkpt lat="44.28005" lon="3.67371">
        <ele>898.9</ele>
        <time>2021-08-11T11:02:08Z</time>
      </trkpt>
      <trkpt lat="44.28001" lon="3.67373">
        <ele>898.9</ele>
        <time>2021-08-11T11:02:10Z</time>
      </trkpt>
      <trkpt lat="44.27997" lon="3.67374">
        <ele>899</ele>
        <time>2021-08-11T11:02:12Z</time>
      </trkpt>
      <trkpt lat="44.27992" lon="3.67376">
        <ele>899.1</ele>
        <time>2021-08-11T11:02:14Z</time>
      </trkpt>
      <trkpt lat="44.27988" lon="3.67377">
        <ele>899.2</ele>
        <time>2021-08-11T11:02:16Z</time>
      </trkpt>
      <trkpt lat="44.27983" lon="3.67378">
        <ele>899.3</ele>
        <time>2021-08-11T11:02:18Z</time>
      </trkpt>
      <trkpt lat="44.27979" lon="3.67379">
        <ele>899.4</ele>
        <time>2021-08-11T11:02:20Z</time>
      </trkpt>
      <trkpt lat="44.27974" lon="3.67379">
        <ele>899.4</ele>
        <time>2021-08-11T11:02:22Z</time>
      </trkpt>
      <trkpt lat="44.2797" lon="3.67379">
        <ele>899.5</ele>
        <time>2021-08-11T11:02:24Z</time>
      </trkpt>
      <trkpt lat="44.27965" lon="3.6738">
        <ele>899.5</ele>
        <time>2021-08-11T11:02:26Z</time>
      </trkpt>
      <trkpt lat="44.27962" lon="3.67381">
        <ele>899.5</ele>
        <time>2021-08-11T11:02:28Z</time>
      </trkpt>
      <trkpt lat="44.27957" lon="3.6738">
        <ele>899.6</ele>
        <time>2021-08-11T11:02:30Z</time>
      </trkpt>
      <trkpt lat="44.27953" lon="3.67379">
        <ele>899.6</ele>
        <time>2021-08-11T11:02:32Z</time>
      </trkpt>
      <trkpt lat="44.27949" lon="3.67379">
        <ele>899.6</ele>
        <time>2021-08-11T11:02:34Z</time>
      </trkpt>
      <trkpt lat="44.27945" lon="3.67378">
        <ele>899.7</ele>
        <time>2021-08-11T11:02:36Z</time>
      </trkpt>
      <trkpt lat="44.27941" lon="3.67377">
        <ele>899.7</ele>
        <time>2021-08-11T11:02:38Z</time>
      </trkpt>
      <trkpt lat="44.27937" lon="3.67375">
        <ele>899.8</ele>
        <time>2021-08-11T11:02:40Z</time>
      </trkpt>
      <trkpt lat="44.27933" lon="3.67373">
        <ele>899.8</ele>
        <time>2021-08-11T11:02:42Z</time>
      </trkpt>
      <trkpt lat="44.27929" lon="3.67371">
        <ele>899.9</ele>
        <time>2021-08-11T11:02:44Z</time>
      </trkpt>
      <trkpt lat="44.27925" lon="3.67369">
        <ele>900</ele>
        <time>2021-08-11T11:02:46Z</time>
      </trkpt>
      <trkpt lat="44.27921" lon="3.67366">
        <ele>900.1</ele>
        <time>2021-08-11T11:02:48Z</time>
      </trkpt>
      <trkpt lat="44.27916" lon="3.67365">
        <ele>900.3</ele>
        <time>2021-08-11T11:02:50Z</time>
      </trkpt>
      <trkpt lat="44.27912" lon="3.67362">
        <ele>900.7</ele>
        <time>2021-08-11T11:02:52Z</time>
      </trkpt>
      <trkpt lat="44.27908" lon="3.67359">
        <ele>901.1</ele>
        <time>2021-08-11T11:02:54Z</time>
      </trkpt>
      <trkpt lat="44.27904" lon="3.67356">
        <ele>901.6</ele>
        <time>2021-08-11T11:02:56Z</time>
      </trkpt>
      <trkpt lat="44.27899" lon="3.67353">
        <ele>902</ele>
        <time>2021-08-11T11:02:58Z</time>
      </trkpt>
      <trkpt lat="44.27895" lon="3.6735">
        <ele>902.4</ele>
        <time>2021-08-11T11:03:00Z</time>
      </trkpt>
      <trkpt lat="44.2789" lon="3.67348">
        <ele>902.9</ele>
        <time>2021-08-11T11:03:02Z</time>
      </trkpt>
      <trkpt lat="44.27886" lon="3.67345">
        <ele>903.2</ele>
        <time>2021-08-11T11:03:04Z</time>
      </trkpt>
      <trkpt lat="44.27882" lon="3.67343">
        <ele>903.7</ele>
        <time>2021-08-11T11:03:06Z</time>
      </trkpt>
      <trkpt lat="44.27878" lon="3.6734">
        <ele>904.1</ele>
        <time>2021-08-11T11:03:08Z</time>
      </trkpt>
      <trkpt lat="44.27874" lon="3.67338">
        <ele>904.5</ele>
        <time>2021-08-11T11:03:10Z</time>
      </trkpt>
      <trkpt lat="44.2787" lon="3.67335">
        <ele>904.9</ele>
        <time>2021-08-11T11:03:12Z</time>
      </trkpt>
      <trkpt lat="44.27866" lon="3.67333">
        <ele>905.2</ele>
        <time>2021-08-11T11:03:14Z</time>
      </trkpt>
      <trkpt lat="44.27863" lon="3.67331">
        <ele>905.4</ele>
        <time>2021-08-11T11:03:16Z</time>
      </trkpt>
      <trkpt lat="44.27859" lon="3.67328">
        <ele>905.5</ele>
        <time>2021-08-11T11:03:18Z</time>
      </trkpt>
      <trkpt lat="44.27855" lon="3.67325">
        <ele>905.7</ele>
        <time>2021-08-11T11:03:20Z</time>
      </trkpt>
      <trkpt lat="44.27852" lon="3.67323">
        <ele>905.9</ele>
        <time>2021-08-11T11:03:22Z</time>
      </trkpt>
      <trkpt lat="44.27848" lon="3.6732">
        <ele>906.1</ele>
        <time>2021-08-11T11:03:24Z</time>
      </trkpt>
      <trkpt lat="44.27844" lon="3.67316">
        <ele>906.1</ele>
        <time>2021-08-11T11:03:26Z</time>
      </trkpt>
      <trkpt lat="44.2784" lon="3.67312">
        <ele>906.2</ele>
        <time>2021-08-11T11:03:28Z</time>
      </trkpt>
      <trkpt lat="44.27835" lon="3.67308">
        <ele>906.3</ele>
        <time>2021-08-11T11:03:30Z</time>
      </trkpt>
      <trkpt lat="44.27831" lon="3.67302">
        <ele>906.5</ele>
        <time>2021-08-11T11:03:32Z</time>
      </trkpt>
      <trkpt lat="44.27826" lon="3.67297">
        <ele>906.9</ele>
        <time>2021-08-11T11:03:34Z</time>
      </trkpt>
      <trkpt lat="44.27821" lon="3.67292">
        <ele>907.4</ele>
        <time>2021-08-11T11:03:36Z</time>
      </trkpt>
      <trkpt lat="44.27817" lon="3.67286">
        <ele>907.7</ele>
        <time>2021-08-11T11:03:38Z</time>
      </trkpt>
      <trkpt lat="44.27813" lon="3.67279">
        <ele>908</ele>
        <time>2021-08-11T11:03:40Z</time>
      </trkpt>
      <trkpt lat="44.27809" lon="3.67272">
        <ele>908.3</ele>
        <time>2021-08-11T11:03:42Z</time>
      </trkpt>
      <trkpt lat="44.27806" lon="3.67264">
        <ele>908.6</ele>
        <time>2021-08-11T11:03:44Z</time>
      </trkpt>
      <trkpt lat="44.27802" lon="3.67257">
        <ele>908.8</ele>
        <time>2021-08-11T11:03:46Z</time>
      </trkpt>
      <trkpt lat="44.278" lon="3.67249">
        <ele>909</ele>
        <time>2021-08-11T11:03:48Z</time>
      </trkpt>
      <trkpt lat="44.27797" lon="3.67241">
        <ele>909.1</ele>
        <time>2021-08-11T11:03:50Z</time>
      </trkpt>
      <trkpt lat="44.27795" lon="3.67233">
        <ele>909.1</ele>
        <time>2021-08-11T11:03:52Z</time>
      </trkpt>
      <trkpt lat="44.27794" lon="3.67226">
        <ele>909.1</ele>
        <time>2021-08-11T11:03:54Z</time>
      </trkpt>
      <trkpt lat="44.27792" lon="3.67219">
        <ele>909.1</ele>
        <time>2021-08-11T11:03:56Z</time>
      </trkpt>
      <trkpt lat="44.27791" lon="3.67211">
        <ele>909</ele>
        <time>2021-08-11T11:03:58Z</time>
      </trkpt>
      <trkpt lat="44.2779" lon="3.67204">
        <ele>908.9</ele>
        <time>2021-08-11T11:04:00Z</time>
      </trkpt>
      <trkpt lat="44.27789" lon="3.67198">
        <ele>908.9</ele>
        <time>2021-08-11T11:04:02Z</time>
      </trkpt>
      <trkpt lat="44.27788" lon="3.67192">
        <ele>908.8</ele>
        <time>2021-08-11T11:04:04Z</time>
      </trkpt>
      <trkpt lat="44.27786" lon="3.67185">
        <ele>908.8</ele>
        <time>2021-08-11T11:04:06Z</time>
      </trkpt>
      <trkpt lat="44.27786" lon="3.67179">
        <ele>908.7</ele>
        <time>2021-08-11T11:04:08Z</time>
      </trkpt>
      <trkpt lat="44.27784" lon="3.67173">
        <ele>908.7</ele>
        <time>2021-08-11T11:04:10Z</time>
      </trkpt>
      <trkpt lat="44.27783" lon="3.67167">
        <ele>908.6</ele>
        <time>2021-08-11T11:04:12Z</time>
      </trkpt>
      <trkpt lat="44.27782" lon="3.67162">
        <ele>909</ele>
        <time>2021-08-11T11:04:14Z</time>
      </trkpt>
      <trkpt lat="44.27781" lon="3.67157">
        <ele>909.3</ele>
        <time>2021-08-11T11:04:16Z</time>
      </trkpt>
      <trkpt lat="44.2778" lon="3.67152">
        <ele>909.5</ele>
        <time>2021-08-11T11:04:18Z</time>
      </trkpt>
      <trkpt lat="44.27779" lon="3.67146">
        <ele>909.8</ele>
        <time>2021-08-11T11:04:20Z</time>
      </trkpt>
      <trkpt lat="44.27777" lon="3.67141">
        <ele>910.1</ele>
        <time>2021-08-11T11:04:22Z</time>
      </trkpt>
      <trkpt lat="44.27776" lon="3.67136">
        <ele>910.5</ele>
        <time>2021-08-11T11:04:24Z</time>
      </trkpt>
      <trkpt lat="44.27775" lon="3.67131">
        <ele>910.7</ele>
        <time>2021-08-11T11:04:26Z</time>
      </trkpt>
      <trkpt lat="44.27773" lon="3.67126">
        <ele>911.1</ele>
        <time>2021-08-11T11:04:28Z</time>
      </trkpt>
      <trkpt lat="44.27771" lon="3.67122">
        <ele>911.5</ele>
        <time>2021-08-11T11:04:30Z</time>
      </trkpt>
      <trkpt lat="44.2777" lon="3.67117">
        <ele>911.7</ele>
        <time>2021-08-11T11:04:32Z</time>
      </trkpt>
      <trkpt lat="44.27768" lon="3.67113">
        <ele>912</ele>
        <time>2021-08-11T11:04:34Z</time>
      </trkpt>
      <trkpt lat="44.27767" lon="3.67108">
        <ele>912.3</ele>
        <time>2021-08-11T11:04:36Z</time>
      </trkpt>
      <trkpt lat="44.27765" lon="3.67103">
        <ele>912.7</ele>
        <time>2021-08-11T11:04:38Z</time>
      </trkpt>
      <trkpt lat="44.27764" lon="3.67098">
        <ele>912.9</ele>
        <time>2021-08-11T11:04:40Z</time>
      </trkpt>
      <trkpt lat="44.27761" lon="3.67094">
        <ele>913.3</ele>
        <time>2021-08-11T11:04:42Z</time>
      </trkpt>
      <trkpt lat="44.27759" lon="3.6709">
        <ele>913.7</ele>
        <time>2021-08-11T11:04:44Z</time>
      </trkpt>
      <trkpt lat="44.27757" lon="3.67086">
        <ele>914</ele>
        <time>2021-08-11T11:04:46Z</time>
      </trkpt>
      <trkpt lat="44.27755" lon="3.67083">
        <ele>914.3</ele>
        <time>2021-08-11T11:04:48Z</time>
      </trkpt>
      <trkpt lat="44.27753" lon="3.67078">
        <ele>914.6</ele>
        <time>2021-08-11T11:04:50Z</time>
      </trkpt>
      <trkpt lat="44.27751" lon="3.67072">
        <ele>914.9</ele>
        <time>2021-08-11T11:04:52Z</time>
      </trkpt>
      <trkpt lat="44.27748" lon="3.67067">
        <ele>915</ele>
        <time>2021-08-11T11:04:54Z</time>
      </trkpt>
      <trkpt lat="44.27747" lon="3.67062">
        <ele>914.9</ele>
        <time>2021-08-11T11:04:56Z</time>
      </trkpt>
      <trkpt lat="44.27744" lon="3.67057">
        <ele>914.9</ele>
        <time>2021-08-11T11:04:58Z</time>
      </trkpt>
      <trkpt lat="44.27741" lon="3.67051">
        <ele>914.9</ele>
        <time>2021-08-11T11:05:00Z</time>
      </trkpt>
      <trkpt lat="44.27739" lon="3.67044">
        <ele>914.9</ele>
        <time>2021-08-11T11:05:02Z</time>
      </trkpt>
      <trkpt lat="44.27735" lon="3.67037">
        <ele>914.8</ele>
        <time>2021-08-11T11:05:04Z</time>
      </trkpt>
      <trkpt lat="44.27732" lon="3.67029">
        <ele>914.9</ele>
        <time>2021-08-11T11:05:06Z</time>
      </trkpt>
      <trkpt lat="44.27729" lon="3.67021">
        <ele>914.9</ele>
        <time>2021-08-11T11:05:08Z</time>
      </trkpt>
      <trkpt lat="44.27726" lon="3.67013">
        <ele>914.9</ele>
        <time>2021-08-11T11:05:10Z</time>
      </trkpt>
      <trkpt lat="44.27723" lon="3.67005">
        <ele>915</ele>
        <time>2021-08-11T11:05:12Z</time>
      </trkpt>
      <trkpt lat="44.2772" lon="3.66996">
        <ele>915.1</ele>
        <time>2021-08-11T11:05:14Z</time>
      </trkpt>
      <trkpt lat="44.27717" lon="3.66987">
        <ele>915.4</ele>
        <time>2021-08-11T11:05:16Z</time>
      </trkpt>
      <trkpt lat="44.27714" lon="3.66978">
        <ele>915.6</ele>
        <time>2021-08-11T11:05:18Z</time>
      </trkpt>
      <trkpt lat="44.27711" lon="3.66968">
        <ele>915.9</ele>
        <time>2021-08-11T11:05:20Z</time>
      </trkpt>
      <trkpt lat="44.27708" lon="3.66958">
        <ele>916.3</ele>
        <time>2021-08-11T11:05:22Z</time>
      </trkpt>
      <trkpt lat="44.27705" lon="3.66948">
        <ele>916.6</ele>
        <time>2021-08-11T11:05:24Z</time>
      </trkpt>
      <trkpt lat="44.27703" lon="3.66939">
        <ele>916.9</ele>
        <time>2021-08-11T11:05:26Z</time>
      </trkpt>
      <trkpt lat="44.277" lon="3.66929">
        <ele>917.2</ele>
        <time>2021-08-11T11:05:28Z</time>
      </trkpt>
      <trkpt lat="44.27697" lon="3.6692">
        <ele>917.5</ele>
        <time>2021-08-11T11:05:30Z</time>
      </trkpt>
      <trkpt lat="44.27695" lon="3.66911">
        <ele>918</ele>
        <time>2021-08-11T11:05:32Z</time>
      </trkpt>
      <trkpt lat="44.27691" lon="3.66902">
        <ele>918.5</ele>
        <time>2021-08-11T11:05:34Z</time>
      </trkpt>
      <trkpt lat="44.27687" lon="3.66893">
        <ele>918.9</ele>
        <time>2021-08-11T11:05:36Z</time>
      </trkpt>
      <trkpt lat="44.27684" lon="3.66885">
        <ele>919.3</ele>
        <time>2021-08-11T11:05:38Z</time>
      </trkpt>
      <trkpt lat="44.2768" lon="3.66877">
        <ele>919.7</ele>
        <time>2021-08-11T11:05:40Z</time>
      </trkpt>
      <trkpt lat="44.27677" lon="3.66868">
        <ele>920</ele>
        <time>2021-08-11T11:05:42Z</time>
      </trkpt>
      <trkpt lat="44.27674" lon="3.6686">
        <ele>920.2</ele>
        <time>2021-08-11T11:05:44Z</time>
      </trkpt>
      <trkpt lat="44.27671" lon="3.66852">
        <ele>920.5</ele>
        <time>2021-08-11T11:05:46Z</time>
      </trkpt>
      <trkpt lat="44.27668" lon="3.66844">
        <ele>920.7</ele>
        <time>2021-08-11T11:05:48Z</time>
      </trkpt>
      <trkpt lat="44.27666" lon="3.66836">
        <ele>920.9</ele>
        <time>2021-08-11T11:05:50Z</time>
      </trkpt>
      <trkpt lat="44.27664" lon="3.66827">
        <ele>921.2</ele>
        <time>2021-08-11T11:05:52Z</time>
      </trkpt>
      <trkpt lat="44.27663" lon="3.66819">
        <ele>921.7</ele>
        <time>2021-08-11T11:05:54Z</time>
      </trkpt>
      <trkpt lat="44.27661" lon="3.6681">
        <ele>922.1</ele>
        <time>2021-08-11T11:05:56Z</time>
      </trkpt>
      <trkpt lat="44.2766" lon="3.66801">
        <ele>922.6</ele>
        <time>2021-08-11T11:05:58Z</time>
      </trkpt>
      <trkpt lat="44.27658" lon="3.66792">
        <ele>923</ele>
        <time>2021-08-11T11:06:00Z</time>
      </trkpt>
      <trkpt lat="44.27655" lon="3.66783">
        <ele>923.4</ele>
        <time>2021-08-11T11:06:02Z</time>
      </trkpt>
      <trkpt lat="44.27651" lon="3.66775">
        <ele>923.7</ele>
        <time>2021-08-11T11:06:04Z</time>
      </trkpt>
      <trkpt lat="44.27647" lon="3.66767">
        <ele>924</ele>
        <time>2021-08-11T11:06:06Z</time>
      </trkpt>
      <trkpt lat="44.27642" lon="3.6676">
        <ele>924.2</ele>
        <time>2021-08-11T11:06:08Z</time>
      </trkpt>
      <trkpt lat="44.27637" lon="3.66753">
        <ele>924.4</ele>
        <time>2021-08-11T11:06:10Z</time>
      </trkpt>
      <trkpt lat="44.27632" lon="3.66747">
        <ele>924.6</ele>
        <time>2021-08-11T11:06:12Z</time>
      </trkpt>
      <trkpt lat="44.27628" lon="3.66743">
        <ele>924.7</ele>
        <time>2021-08-11T11:06:14Z</time>
      </trkpt>
      <trkpt lat="44.27623" lon="3.66738">
        <ele>924.9</ele>
        <time>2021-08-11T11:06:16Z</time>
      </trkpt>
      <trkpt lat="44.27619" lon="3.66732">
        <ele>925.2</ele>
        <time>2021-08-11T11:06:18Z</time>
      </trkpt>
      <trkpt lat="44.27615" lon="3.66729">
        <ele>925.2</ele>
        <time>2021-08-11T11:06:20Z</time>
      </trkpt>
      <trkpt lat="44.27611" lon="3.66723">
        <ele>925.5</ele>
        <time>2021-08-11T11:06:22Z</time>
      </trkpt>
      <trkpt lat="44.27607" lon="3.66717">
        <ele>925.7</ele>
        <time>2021-08-11T11:06:24Z</time>
      </trkpt>
      <trkpt lat="44.27603" lon="3.66713">
        <ele>925.8</ele>
        <time>2021-08-11T11:06:26Z</time>
      </trkpt>
      <trkpt lat="44.27599" lon="3.66708">
        <ele>925.9</ele>
        <time>2021-08-11T11:06:28Z</time>
      </trkpt>
      <trkpt lat="44.27594" lon="3.66704">
        <ele>926</ele>
        <time>2021-08-11T11:06:30Z</time>
      </trkpt>
      <trkpt lat="44.2759" lon="3.66699">
        <ele>926.1</ele>
        <time>2021-08-11T11:06:32Z</time>
      </trkpt>
      <trkpt lat="44.27586" lon="3.66693">
        <ele>926.3</ele>
        <time>2021-08-11T11:06:34Z</time>
      </trkpt>
      <trkpt lat="44.27582" lon="3.66688">
        <ele>926.4</ele>
        <time>2021-08-11T11:06:36Z</time>
      </trkpt>
      <trkpt lat="44.27578" lon="3.66684">
        <ele>926.7</ele>
        <time>2021-08-11T11:06:38Z</time>
      </trkpt>
      <trkpt lat="44.27574" lon="3.66679">
        <ele>927</ele>
        <time>2021-08-11T11:06:40Z</time>
      </trkpt>
      <trkpt lat="44.2757" lon="3.66674">
        <ele>927.3</ele>
        <time>2021-08-11T11:06:42Z</time>
      </trkpt>
      <trkpt lat="44.27566" lon="3.66669">
        <ele>927.6</ele>
        <time>2021-08-11T11:06:44Z</time>
      </trkpt>
      <trkpt lat="44.27562" lon="3.66665">
        <ele>927.9</ele>
        <time>2021-08-11T11:06:46Z</time>
      </trkpt>
      <trkpt lat="44.27558" lon="3.66659">
        <ele>928.1</ele>
        <time>2021-08-11T11:06:48Z</time>
      </trkpt>
      <trkpt lat="44.27553" lon="3.66655">
        <ele>928.2</ele>
        <time>2021-08-11T11:06:50Z</time>
      </trkpt>
      <trkpt lat="44.27549" lon="3.6665">
        <ele>928.4</ele>
        <time>2021-08-11T11:06:52Z</time>
      </trkpt>
      <trkpt lat="44.27546" lon="3.66644">
        <ele>928.6</ele>
        <time>2021-08-11T11:06:54Z</time>
      </trkpt>
      <trkpt lat="44.27541" lon="3.6664">
        <ele>928.8</ele>
        <time>2021-08-11T11:06:56Z</time>
      </trkpt>
      <trkpt lat="44.27538" lon="3.66635">
        <ele>928.9</ele>
        <time>2021-08-11T11:06:58Z</time>
      </trkpt>
      <trkpt lat="44.27534" lon="3.66631">
        <ele>929</ele>
        <time>2021-08-11T11:07:00Z</time>
      </trkpt>
      <trkpt lat="44.2753" lon="3.66627">
        <ele>929.1</ele>
        <time>2021-08-11T11:07:02Z</time>
      </trkpt>
      <trkpt lat="44.27527" lon="3.66622">
        <ele>929.3</ele>
        <time>2021-08-11T11:07:04Z</time>
      </trkpt>
      <trkpt lat="44.27523" lon="3.66618">
        <ele>929.3</ele>
        <time>2021-08-11T11:07:06Z</time>
      </trkpt>
      <trkpt lat="44.27519" lon="3.66613">
        <ele>929.5</ele>
        <time>2021-08-11T11:07:08Z</time>
      </trkpt>
      <trkpt lat="44.27515" lon="3.66608">
        <ele>929.6</ele>
        <time>2021-08-11T11:07:10Z</time>
      </trkpt>
      <trkpt lat="44.27512" lon="3.66604">
        <ele>929.6</ele>
        <time>2021-08-11T11:07:12Z</time>
      </trkpt>
      <trkpt lat="44.27508" lon="3.666">
        <ele>929.7</ele>
        <time>2021-08-11T11:07:14Z</time>
      </trkpt>
      <trkpt lat="44.27505" lon="3.66596">
        <ele>929.7</ele>
        <time>2021-08-11T11:07:16Z</time>
      </trkpt>
      <trkpt lat="44.27501" lon="3.66591">
        <ele>929.8</ele>
        <time>2021-08-11T11:07:18Z</time>
      </trkpt>
      <trkpt lat="44.27498" lon="3.66586">
        <ele>929.9</ele>
        <time>2021-08-11T11:07:20Z</time>
      </trkpt>
      <trkpt lat="44.27495" lon="3.66582">
        <ele>930</ele>
        <time>2021-08-11T11:07:22Z</time>
      </trkpt>
      <trkpt lat="44.27491" lon="3.66577">
        <ele>930</ele>
        <time>2021-08-11T11:07:24Z</time>
      </trkpt>
      <trkpt lat="44.27488" lon="3.66573">
        <ele>929.9</ele>
        <time>2021-08-11T11:07:26Z</time>
      </trkpt>
      <trkpt lat="44.27484" lon="3.66569">
        <ele>929.9</ele>
        <time>2021-08-11T11:07:28Z</time>
      </trkpt>
      <trkpt lat="44.27481" lon="3.66564">
        <ele>929.9</ele>
        <time>2021-08-11T11:07:30Z</time>
      </trkpt>
      <trkpt lat="44.27478" lon="3.6656">
        <ele>929.8</ele>
        <time>2021-08-11T11:07:32Z</time>
      </trkpt>
      <trkpt lat="44.27475" lon="3.66555">
        <ele>929.8</ele>
        <time>2021-08-11T11:07:34Z</time>
      </trkpt>
      <trkpt lat="44.27472" lon="3.66552">
        <ele>929.8</ele>
        <time>2021-08-11T11:07:36Z</time>
      </trkpt>
      <trkpt lat="44.27469" lon="3.66548">
        <ele>929.8</ele>
        <time>2021-08-11T11:07:38Z</time>
      </trkpt>
      <trkpt lat="44.27466" lon="3.66543">
        <ele>929.8</ele>
        <time>2021-08-11T11:07:40Z</time>
      </trkpt>
      <trkpt lat="44.27463" lon="3.66539">
        <ele>929.9</ele>
        <time>2021-08-11T11:07:42Z</time>
      </trkpt>
      <trkpt lat="44.27459" lon="3.66535">
        <ele>929.9</ele>
        <time>2021-08-11T11:07:44Z</time>
      </trkpt>
      <trkpt lat="44.27456" lon="3.66531">
        <ele>929.9</ele>
        <time>2021-08-11T11:07:46Z</time>
      </trkpt>
      <trkpt lat="44.27453" lon="3.66527">
        <ele>930</ele>
        <time>2021-08-11T11:07:48Z</time>
      </trkpt>
      <trkpt lat="44.2745" lon="3.66522">
        <ele>930</ele>
        <time>2021-08-11T11:07:50Z</time>
      </trkpt>
      <trkpt lat="44.27446" lon="3.66518">
        <ele>930.1</ele>
        <time>2021-08-11T11:07:52Z</time>
      </trkpt>
      <trkpt lat="44.27443" lon="3.66514">
        <ele>930.2</ele>
        <time>2021-08-11T11:07:54Z</time>
      </trkpt>
      <trkpt lat="44.2744" lon="3.6651">
        <ele>930.2</ele>
        <time>2021-08-11T11:07:56Z</time>
      </trkpt>
      <trkpt lat="44.27436" lon="3.66507">
        <ele>930.4</ele>
        <time>2021-08-11T11:07:58Z</time>
      </trkpt>
      <trkpt lat="44.27431" lon="3.66503">
        <ele>930.5</ele>
        <time>2021-08-11T11:08:00Z</time>
      </trkpt>
      <trkpt lat="44.27427" lon="3.665">
        <ele>930.6</ele>
        <time>2021-08-11T11:08:02Z</time>
      </trkpt>
      <trkpt lat="44.27422" lon="3.66496">
        <ele>930.4</ele>
        <time>2021-08-11T11:08:04Z</time>
      </trkpt>
      <trkpt lat="44.27418" lon="3.66493">
        <ele>930.3</ele>
        <time>2021-08-11T11:08:06Z</time>
      </trkpt>
      <trkpt lat="44.27414" lon="3.6649">
        <ele>930.3</ele>
        <time>2021-08-11T11:08:08Z</time>
      </trkpt>
      <trkpt lat="44.27409" lon="3.66488">
        <ele>930.3</ele>
        <time>2021-08-11T11:08:10Z</time>
      </trkpt>
      <trkpt lat="44.27404" lon="3.66487">
        <ele>930.6</ele>
        <time>2021-08-11T11:08:12Z</time>
      </trkpt>
      <trkpt lat="44.27398" lon="3.66485">
        <ele>930.9</ele>
        <time>2021-08-11T11:08:14Z</time>
      </trkpt>
      <trkpt lat="44.27392" lon="3.66483">
        <ele>931.2</ele>
        <time>2021-08-11T11:08:16Z</time>
      </trkpt>
      <trkpt lat="44.27386" lon="3.66481">
        <ele>931.6</ele>
        <time>2021-08-11T11:08:18Z</time>
      </trkpt>
      <trkpt lat="44.2738" lon="3.66478">
        <ele>931.9</ele>
        <time>2021-08-11T11:08:20Z</time>
      </trkpt>
      <trkpt lat="44.27375" lon="3.66473">
        <ele>932.2</ele>
        <time>2021-08-11T11:08:22Z</time>
      </trkpt>
      <trkpt lat="44.27371" lon="3.66469">
        <ele>932.5</ele>
        <time>2021-08-11T11:08:24Z</time>
      </trkpt>
      <trkpt lat="44.27366" lon="3.66464">
        <ele>932.8</ele>
        <time>2021-08-11T11:08:26Z</time>
      </trkpt>
      <trkpt lat="44.27363" lon="3.66458">
        <ele>933.1</ele>
        <time>2021-08-11T11:08:28Z</time>
      </trkpt>
      <trkpt lat="44.27362" lon="3.66452">
        <ele>933.2</ele>
        <time>2021-08-11T11:08:30Z</time>
      </trkpt>
      <trkpt lat="44.27361" lon="3.66446">
        <ele>933.3</ele>
        <time>2021-08-11T11:08:32Z</time>
      </trkpt>
      <trkpt lat="44.27359" lon="3.6644">
        <ele>933.5</ele>
        <time>2021-08-11T11:08:34Z</time>
      </trkpt>
      <trkpt lat="44.27357" lon="3.66434">
        <ele>933.8</ele>
        <time>2021-08-11T11:08:36Z</time>
      </trkpt>
      <trkpt lat="44.27356" lon="3.66427">
        <ele>933.9</ele>
        <time>2021-08-11T11:08:38Z</time>
      </trkpt>
      <trkpt lat="44.27355" lon="3.66421">
        <ele>934.1</ele>
        <time>2021-08-11T11:08:40Z</time>
      </trkpt>
      <trkpt lat="44.27353" lon="3.66414">
        <ele>934.3</ele>
        <time>2021-08-11T11:08:42Z</time>
      </trkpt>
      <trkpt lat="44.27351" lon="3.66407">
        <ele>934.4</ele>
        <time>2021-08-11T11:08:44Z</time>
      </trkpt>
      <trkpt lat="44.27348" lon="3.664">
        <ele>934.6</ele>
        <time>2021-08-11T11:08:46Z</time>
      </trkpt>
      <trkpt lat="44.27345" lon="3.66394">
        <ele>935</ele>
        <time>2021-08-11T11:08:48Z</time>
      </trkpt>
      <trkpt lat="44.27341" lon="3.66388">
        <ele>935.4</ele>
        <time>2021-08-11T11:08:50Z</time>
      </trkpt>
      <trkpt lat="44.27336" lon="3.66383">
        <ele>936.3</ele>
        <time>2021-08-11T11:08:52Z</time>
      </trkpt>
      <trkpt lat="44.27331" lon="3.66378">
        <ele>937</ele>
        <time>2021-08-11T11:08:54Z</time>
      </trkpt>
      <trkpt lat="44.27326" lon="3.66374">
        <ele>937.6</ele>
        <time>2021-08-11T11:08:56Z</time>
      </trkpt>
      <trkpt lat="44.27321" lon="3.6637">
        <ele>938.3</ele>
        <time>2021-08-11T11:08:58Z</time>
      </trkpt>
      <trkpt lat="44.27316" lon="3.66366">
        <ele>939</ele>
        <time>2021-08-11T11:09:00Z</time>
      </trkpt>
      <trkpt lat="44.27312" lon="3.66359">
        <ele>939.3</ele>
        <time>2021-08-11T11:09:02Z</time>
      </trkpt>
      <trkpt lat="44.27308" lon="3.66353">
        <ele>939.9</ele>
        <time>2021-08-11T11:09:04Z</time>
      </trkpt>
      <trkpt lat="44.27305" lon="3.66345">
        <ele>940</ele>
        <time>2021-08-11T11:09:06Z</time>
      </trkpt>
      <trkpt lat="44.27303" lon="3.66337">
        <ele>940.1</ele>
        <time>2021-08-11T11:09:08Z</time>
      </trkpt>
      <trkpt lat="44.27302" lon="3.66328">
        <ele>939.6</ele>
        <time>2021-08-11T11:09:10Z</time>
      </trkpt>
      <trkpt lat="44.27302" lon="3.6632">
        <ele>938.7</ele>
        <time>2021-08-11T11:09:12Z</time>
      </trkpt>
      <trkpt lat="44.27301" lon="3.66312">
        <ele>938</ele>
        <time>2021-08-11T11:09:14Z</time>
      </trkpt>
      <trkpt lat="44.27299" lon="3.66304">
        <ele>937.2</ele>
        <time>2021-08-11T11:09:16Z</time>
      </trkpt>
      <trkpt lat="44.27296" lon="3.66296">
        <ele>936.8</ele>
        <time>2021-08-11T11:09:18Z</time>
      </trkpt>
      <trkpt lat="44.27291" lon="3.6629">
        <ele>936.6</ele>
        <time>2021-08-11T11:09:20Z</time>
      </trkpt>
      <trkpt lat="44.27286" lon="3.66287">
        <ele>936.9</ele>
        <time>2021-08-11T11:09:22Z</time>
      </trkpt>
      <trkpt lat="44.2728" lon="3.66284">
        <ele>937.2</ele>
        <time>2021-08-11T11:09:24Z</time>
      </trkpt>
      <trkpt lat="44.27274" lon="3.66283">
        <ele>937.7</ele>
        <time>2021-08-11T11:09:26Z</time>
      </trkpt>
      <trkpt lat="44.27268" lon="3.66283">
        <ele>938.4</ele>
        <time>2021-08-11T11:09:28Z</time>
      </trkpt>
      <trkpt lat="44.27263" lon="3.66285">
        <ele>939.3</ele>
        <time>2021-08-11T11:09:30Z</time>
      </trkpt>
      <trkpt lat="44.27257" lon="3.66285">
        <ele>940.1</ele>
        <time>2021-08-11T11:09:32Z</time>
      </trkpt>
      <trkpt lat="44.27251" lon="3.66284">
        <ele>940.7</ele>
        <time>2021-08-11T11:09:34Z</time>
      </trkpt>
      <trkpt lat="44.27244" lon="3.66283">
        <ele>941.8</ele>
        <time>2021-08-11T11:09:36Z</time>
      </trkpt>
      <trkpt lat="44.27238" lon="3.66281">
        <ele>942.6</ele>
        <time>2021-08-11T11:09:38Z</time>
      </trkpt>
      <trkpt lat="44.27233" lon="3.66275">
        <ele>942.5</ele>
        <time>2021-08-11T11:09:40Z</time>
      </trkpt>
      <trkpt lat="44.27229" lon="3.6627">
        <ele>942.7</ele>
        <time>2021-08-11T11:09:42Z</time>
      </trkpt>
      <trkpt lat="44.27223" lon="3.66265">
        <ele>943</ele>
        <time>2021-08-11T11:09:44Z</time>
      </trkpt>
      <trkpt lat="44.27217" lon="3.66262">
        <ele>943.9</ele>
        <time>2021-08-11T11:09:46Z</time>
      </trkpt>
      <trkpt lat="44.27212" lon="3.66257">
        <ele>944.2</ele>
        <time>2021-08-11T11:09:48Z</time>
      </trkpt>
      <trkpt lat="44.27209" lon="3.66255">
        <ele>944.7</ele>
        <time>2021-08-11T11:09:50Z</time>
      </trkpt>
      <trkpt lat="44.27203" lon="3.6625">
        <ele>945.1</ele>
        <time>2021-08-11T11:09:52Z</time>
      </trkpt>
      <trkpt lat="44.27198" lon="3.66246">
        <ele>945.6</ele>
        <time>2021-08-11T11:09:54Z</time>
      </trkpt>
      <trkpt lat="44.27194" lon="3.66245">
        <ele>946.1</ele>
        <time>2021-08-11T11:09:56Z</time>
      </trkpt>
      <trkpt lat="44.27191" lon="3.66239">
        <ele>945.9</ele>
        <time>2021-08-11T11:09:58Z</time>
      </trkpt>
      <trkpt lat="44.27188" lon="3.66232">
        <ele>945.4</ele>
        <time>2021-08-11T11:10:00Z</time>
      </trkpt>
      <trkpt lat="44.27185" lon="3.66226">
        <ele>945</ele>
        <time>2021-08-11T11:10:02Z</time>
      </trkpt>
      <trkpt lat="44.27181" lon="3.6622">
        <ele>944.8</ele>
        <time>2021-08-11T11:10:04Z</time>
      </trkpt>
      <trkpt lat="44.27177" lon="3.66214">
        <ele>944.7</ele>
        <time>2021-08-11T11:10:06Z</time>
      </trkpt>
      <trkpt lat="44.27174" lon="3.66206">
        <ele>944.1</ele>
        <time>2021-08-11T11:10:08Z</time>
      </trkpt>
      <trkpt lat="44.27171" lon="3.66199">
        <ele>943.5</ele>
        <time>2021-08-11T11:10:10Z</time>
      </trkpt>
      <trkpt lat="44.27167" lon="3.66193">
        <ele>943.3</ele>
        <time>2021-08-11T11:10:12Z</time>
      </trkpt>
      <trkpt lat="44.27163" lon="3.66185">
        <ele>942.5</ele>
        <time>2021-08-11T11:10:14Z</time>
      </trkpt>
      <trkpt lat="44.27159" lon="3.6618">
        <ele>942.1</ele>
        <time>2021-08-11T11:10:16Z</time>
      </trkpt>
      <trkpt lat="44.27155" lon="3.66173">
        <ele>941.6</ele>
        <time>2021-08-11T11:10:18Z</time>
      </trkpt>
      <trkpt lat="44.27152" lon="3.66166">
        <ele>941</ele>
        <time>2021-08-11T11:10:20Z</time>
      </trkpt>
      <trkpt lat="44.27149" lon="3.66163">
        <ele>940.9</ele>
        <time>2021-08-11T11:10:22Z</time>
      </trkpt>
      <trkpt lat="44.27146" lon="3.66158">
        <ele>940.7</ele>
        <time>2021-08-11T11:10:24Z</time>
      </trkpt>
      <trkpt lat="44.27144" lon="3.66154">
        <ele>940.5</ele>
        <time>2021-08-11T11:10:26Z</time>
      </trkpt>
      <trkpt lat="44.27141" lon="3.66149">
        <ele>940.3</ele>
        <time>2021-08-11T11:10:28Z</time>
      </trkpt>
      <trkpt lat="44.27139" lon="3.66144">
        <ele>940.1</ele>
        <time>2021-08-11T11:10:30Z</time>
      </trkpt>
      <trkpt lat="44.27136" lon="3.6614">
        <ele>940</ele>
        <time>2021-08-11T11:10:32Z</time>
      </trkpt>
      <trkpt lat="44.27134" lon="3.66136">
        <ele>939.7</ele>
        <time>2021-08-11T11:10:34Z</time>
      </trkpt>
      <trkpt lat="44.2713" lon="3.66129">
        <ele>939.5</ele>
        <time>2021-08-11T11:10:36Z</time>
      </trkpt>
      <trkpt lat="44.27126" lon="3.66124">
        <ele>939.4</ele>
        <time>2021-08-11T11:10:38Z</time>
      </trkpt>
      <trkpt lat="44.27124" lon="3.66119">
        <ele>939.2</ele>
        <time>2021-08-11T11:10:40Z</time>
      </trkpt>
      <trkpt lat="44.27121" lon="3.66114">
        <ele>939</ele>
        <time>2021-08-11T11:10:42Z</time>
      </trkpt>
      <trkpt lat="44.27117" lon="3.66107">
        <ele>938.9</ele>
        <time>2021-08-11T11:10:44Z</time>
      </trkpt>
      <trkpt lat="44.27113" lon="3.66102">
        <ele>938.8</ele>
        <time>2021-08-11T11:10:46Z</time>
      </trkpt>
      <trkpt lat="44.27108" lon="3.66096">
        <ele>938.9</ele>
        <time>2021-08-11T11:10:48Z</time>
      </trkpt>
      <trkpt lat="44.27103" lon="3.66092">
        <ele>939.1</ele>
        <time>2021-08-11T11:10:50Z</time>
      </trkpt>
      <trkpt lat="44.27099" lon="3.66087">
        <ele>939.1</ele>
        <time>2021-08-11T11:10:52Z</time>
      </trkpt>
      <trkpt lat="44.27094" lon="3.66085">
        <ele>939.6</ele>
        <time>2021-08-11T11:10:54Z</time>
      </trkpt>
      <trkpt lat="44.27089" lon="3.66082">
        <ele>940</ele>
        <time>2021-08-11T11:10:56Z</time>
      </trkpt>
      <trkpt lat="44.27084" lon="3.66079">
        <ele>940.1</ele>
        <time>2021-08-11T11:10:58Z</time>
      </trkpt>
      <trkpt lat="44.27079" lon="3.66078">
        <ele>940.5</ele>
        <time>2021-08-11T11:11:00Z</time>
      </trkpt>
      <trkpt lat="44.27072" lon="3.66076">
        <ele>940.6</ele>
        <time>2021-08-11T11:11:02Z</time>
      </trkpt>
      <trkpt lat="44.27067" lon="3.66076">
        <ele>941</ele>
        <time>2021-08-11T11:11:04Z</time>
      </trkpt>
      <trkpt lat="44.27061" lon="3.66076">
        <ele>941.5</ele>
        <time>2021-08-11T11:11:06Z</time>
      </trkpt>
      <trkpt lat="44.27057" lon="3.66076">
        <ele>941.8</ele>
        <time>2021-08-11T11:11:08Z</time>
      </trkpt>
      <trkpt lat="44.27051" lon="3.66073">
        <ele>942</ele>
        <time>2021-08-11T11:11:10Z</time>
      </trkpt>
      <trkpt lat="44.27044" lon="3.66072">
        <ele>942.4</ele>
        <time>2021-08-11T11:11:12Z</time>
      </trkpt>
      <trkpt lat="44.27038" lon="3.66068">
        <ele>942.5</ele>
        <time>2021-08-11T11:11:14Z</time>
      </trkpt>
      <trkpt lat="44.27034" lon="3.66065">
        <ele>942.5</ele>
        <time>2021-08-11T11:11:16Z</time>
      </trkpt>
      <trkpt lat="44.27031" lon="3.66062">
        <ele>942.5</ele>
        <time>2021-08-11T11:11:18Z</time>
      </trkpt>
      <trkpt lat="44.27026" lon="3.66058">
        <ele>942.6</ele>
        <time>2021-08-11T11:11:20Z</time>
      </trkpt>
      <trkpt lat="44.27021" lon="3.66055">
        <ele>943</ele>
        <time>2021-08-11T11:11:22Z</time>
      </trkpt>
      <trkpt lat="44.27017" lon="3.66051">
        <ele>943.1</ele>
        <time>2021-08-11T11:11:24Z</time>
      </trkpt>
      <trkpt lat="44.27012" lon="3.66049">
        <ele>943.6</ele>
        <time>2021-08-11T11:11:26Z</time>
      </trkpt>
      <trkpt lat="44.27005" lon="3.66047">
        <ele>944.2</ele>
        <time>2021-08-11T11:11:28Z</time>
      </trkpt>
      <trkpt lat="44.27001" lon="3.66045">
        <ele>944.6</ele>
        <time>2021-08-11T11:11:30Z</time>
      </trkpt>
      <trkpt lat="44.26996" lon="3.66041">
        <ele>945.2</ele>
        <time>2021-08-11T11:11:32Z</time>
      </trkpt>
      <trkpt lat="44.2699" lon="3.66039">
        <ele>945.9</ele>
        <time>2021-08-11T11:11:34Z</time>
      </trkpt>
      <trkpt lat="44.26986" lon="3.66033">
        <ele>946.4</ele>
        <time>2021-08-11T11:11:36Z</time>
      </trkpt>
      <trkpt lat="44.26983" lon="3.66025">
        <ele>946.5</ele>
        <time>2021-08-11T11:11:38Z</time>
      </trkpt>
      <trkpt lat="44.26983" lon="3.66018">
        <ele>946.2</ele>
        <time>2021-08-11T11:11:40Z</time>
      </trkpt>
      <trkpt lat="44.2698" lon="3.66011">
        <ele>946.4</ele>
        <time>2021-08-11T11:11:42Z</time>
      </trkpt>
      <trkpt lat="44.2698" lon="3.66003">
        <ele>946.1</ele>
        <time>2021-08-11T11:11:44Z</time>
      </trkpt>
      <trkpt lat="44.26979" lon="3.65997">
        <ele>946.2</ele>
        <time>2021-08-11T11:11:46Z</time>
      </trkpt>
      <trkpt lat="44.26978" lon="3.6599">
        <ele>946.3</ele>
        <time>2021-08-11T11:11:48Z</time>
      </trkpt>
      <trkpt lat="44.26977" lon="3.65983">
        <ele>946.3</ele>
        <time>2021-08-11T11:11:50Z</time>
      </trkpt>
      <trkpt lat="44.26976" lon="3.65976">
        <ele>946.4</ele>
        <time>2021-08-11T11:11:52Z</time>
      </trkpt>
      <trkpt lat="44.26977" lon="3.65971">
        <ele>946.2</ele>
        <time>2021-08-11T11:11:54Z</time>
      </trkpt>
      <trkpt lat="44.26976" lon="3.65963">
        <ele>946.2</ele>
        <time>2021-08-11T11:11:56Z</time>
      </trkpt>
      <trkpt lat="44.26976" lon="3.65956">
        <ele>946.1</ele>
        <time>2021-08-11T11:11:58Z</time>
      </trkpt>
      <trkpt lat="44.26976" lon="3.65948">
        <ele>946</ele>
        <time>2021-08-11T11:12:00Z</time>
      </trkpt>
      <trkpt lat="44.26975" lon="3.65942">
        <ele>945.9</ele>
        <time>2021-08-11T11:12:02Z</time>
      </trkpt>
      <trkpt lat="44.26976" lon="3.65933">
        <ele>945.7</ele>
        <time>2021-08-11T11:12:04Z</time>
      </trkpt>
      <trkpt lat="44.26975" lon="3.65926">
        <ele>945.7</ele>
        <time>2021-08-11T11:12:06Z</time>
      </trkpt>
      <trkpt lat="44.26975" lon="3.65918">
        <ele>945.5</ele>
        <time>2021-08-11T11:12:08Z</time>
      </trkpt>
      <trkpt lat="44.26974" lon="3.65912">
        <ele>945.3</ele>
        <time>2021-08-11T11:12:10Z</time>
      </trkpt>
      <trkpt lat="44.26974" lon="3.65905">
        <ele>945</ele>
        <time>2021-08-11T11:12:12Z</time>
      </trkpt>
      <trkpt lat="44.26972" lon="3.65896">
        <ele>944.8</ele>
        <time>2021-08-11T11:12:14Z</time>
      </trkpt>
      <trkpt lat="44.26969" lon="3.65889">
        <ele>944.8</ele>
        <time>2021-08-11T11:12:16Z</time>
      </trkpt>
      <trkpt lat="44.26966" lon="3.65881">
        <ele>944.8</ele>
        <time>2021-08-11T11:12:18Z</time>
      </trkpt>
      <trkpt lat="44.26963" lon="3.65876">
        <ele>944.9</ele>
        <time>2021-08-11T11:12:20Z</time>
      </trkpt>
      <trkpt lat="44.26959" lon="3.65871">
        <ele>945.2</ele>
        <time>2021-08-11T11:12:22Z</time>
      </trkpt>
      <trkpt lat="44.26954" lon="3.65868">
        <ele>945.6</ele>
        <time>2021-08-11T11:12:24Z</time>
      </trkpt>
      <trkpt lat="44.26949" lon="3.65865">
        <ele>946.1</ele>
        <time>2021-08-11T11:12:26Z</time>
      </trkpt>
      <trkpt lat="44.26944" lon="3.65862">
        <ele>946.5</ele>
        <time>2021-08-11T11:12:28Z</time>
      </trkpt>
      <trkpt lat="44.26939" lon="3.65859">
        <ele>946.9</ele>
        <time>2021-08-11T11:12:30Z</time>
      </trkpt>
      <trkpt lat="44.26934" lon="3.65855">
        <ele>947.1</ele>
        <time>2021-08-11T11:12:32Z</time>
      </trkpt>
      <trkpt lat="44.26929" lon="3.65851">
        <ele>947.4</ele>
        <time>2021-08-11T11:12:34Z</time>
      </trkpt>
      <trkpt lat="44.26925" lon="3.65847">
        <ele>947.5</ele>
        <time>2021-08-11T11:12:36Z</time>
      </trkpt>
      <trkpt lat="44.2692" lon="3.65843">
        <ele>947.6</ele>
        <time>2021-08-11T11:12:38Z</time>
      </trkpt>
      <trkpt lat="44.26916" lon="3.65838">
        <ele>947.8</ele>
        <time>2021-08-11T11:12:40Z</time>
      </trkpt>
      <trkpt lat="44.26911" lon="3.65833">
        <ele>948.8</ele>
        <time>2021-08-11T11:12:42Z</time>
      </trkpt>
      <trkpt lat="44.26907" lon="3.65828">
        <ele>949.5</ele>
        <time>2021-08-11T11:12:44Z</time>
      </trkpt>
      <trkpt lat="44.26903" lon="3.65825">
        <ele>950.4</ele>
        <time>2021-08-11T11:12:46Z</time>
      </trkpt>
      <trkpt lat="44.26898" lon="3.65821">
        <ele>951.3</ele>
        <time>2021-08-11T11:12:48Z</time>
      </trkpt>
      <trkpt lat="44.26895" lon="3.65816">
        <ele>951.8</ele>
        <time>2021-08-11T11:12:50Z</time>
      </trkpt>
      <trkpt lat="44.26892" lon="3.65808">
        <ele>951.6</ele>
        <time>2021-08-11T11:12:52Z</time>
      </trkpt>
      <trkpt lat="44.26891" lon="3.658">
        <ele>951</ele>
        <time>2021-08-11T11:12:54Z</time>
      </trkpt>
      <trkpt lat="44.26891" lon="3.65793">
        <ele>950.1</ele>
        <time>2021-08-11T11:12:56Z</time>
      </trkpt>
      <trkpt lat="44.26889" lon="3.65785">
        <ele>949.5</ele>
        <time>2021-08-11T11:12:58Z</time>
      </trkpt>
      <trkpt lat="44.26887" lon="3.65776">
        <ele>948.9</ele>
        <time>2021-08-11T11:13:00Z</time>
      </trkpt>
      <trkpt lat="44.26885" lon="3.6577">
        <ele>948.7</ele>
        <time>2021-08-11T11:13:02Z</time>
      </trkpt>
      <trkpt lat="44.26883" lon="3.65762">
        <ele>948.4</ele>
        <time>2021-08-11T11:13:04Z</time>
      </trkpt>
      <trkpt lat="44.2688" lon="3.65756">
        <ele>948.4</ele>
        <time>2021-08-11T11:13:06Z</time>
      </trkpt>
      <trkpt lat="44.26876" lon="3.6575">
        <ele>948.7</ele>
        <time>2021-08-11T11:13:08Z</time>
      </trkpt>
      <trkpt lat="44.26874" lon="3.65743">
        <ele>948.9</ele>
        <time>2021-08-11T11:13:10Z</time>
      </trkpt>
      <trkpt lat="44.2687" lon="3.65737">
        <ele>949.4</ele>
        <time>2021-08-11T11:13:12Z</time>
      </trkpt>
      <trkpt lat="44.26869" lon="3.65729">
        <ele>949.2</ele>
        <time>2021-08-11T11:13:14Z</time>
      </trkpt>
      <trkpt lat="44.26865" lon="3.65724">
        <ele>950</ele>
        <time>2021-08-11T11:13:16Z</time>
      </trkpt>
      <trkpt lat="44.26862" lon="3.65718">
        <ele>950.5</ele>
        <time>2021-08-11T11:13:18Z</time>
      </trkpt>
      <trkpt lat="44.26859" lon="3.65712">
        <ele>951</ele>
        <time>2021-08-11T11:13:20Z</time>
      </trkpt>
      <trkpt lat="44.26856" lon="3.65705">
        <ele>951.5</ele>
        <time>2021-08-11T11:13:22Z</time>
      </trkpt>
      <trkpt lat="44.26854" lon="3.65697">
        <ele>951.4</ele>
        <time>2021-08-11T11:13:24Z</time>
      </trkpt>
      <trkpt lat="44.26854" lon="3.6569">
        <ele>951.1</ele>
        <time>2021-08-11T11:13:26Z</time>
      </trkpt>
      <trkpt lat="44.26853" lon="3.65684">
        <ele>950.9</ele>
        <time>2021-08-11T11:13:28Z</time>
      </trkpt>
      <trkpt lat="44.26853" lon="3.65676">
        <ele>950.6</ele>
        <time>2021-08-11T11:13:30Z</time>
      </trkpt>
      <trkpt lat="44.26852" lon="3.65669">
        <ele>950.4</ele>
        <time>2021-08-11T11:13:32Z</time>
      </trkpt>
      <trkpt lat="44.26851" lon="3.65661">
        <ele>950.6</ele>
        <time>2021-08-11T11:13:34Z</time>
      </trkpt>
      <trkpt lat="44.2685" lon="3.65653">
        <ele>951.2</ele>
        <time>2021-08-11T11:13:36Z</time>
      </trkpt>
      <trkpt lat="44.26848" lon="3.65644">
        <ele>951.9</ele>
        <time>2021-08-11T11:13:38Z</time>
      </trkpt>
      <trkpt lat="44.26847" lon="3.65636">
        <ele>952.5</ele>
        <time>2021-08-11T11:13:40Z</time>
      </trkpt>
      <trkpt lat="44.26847" lon="3.65626">
        <ele>952.7</ele>
        <time>2021-08-11T11:13:42Z</time>
      </trkpt>
      <trkpt lat="44.26847" lon="3.65616">
        <ele>953</ele>
        <time>2021-08-11T11:13:44Z</time>
      </trkpt>
      <trkpt lat="44.26847" lon="3.65608">
        <ele>953.2</ele>
        <time>2021-08-11T11:13:46Z</time>
      </trkpt>
      <trkpt lat="44.26847" lon="3.65604">
        <ele>953.5</ele>
        <time>2021-08-11T11:13:48Z</time>
      </trkpt>
      <trkpt lat="44.26846" lon="3.65596">
        <ele>953.8</ele>
        <time>2021-08-11T11:13:50Z</time>
      </trkpt>
      <trkpt lat="44.26848" lon="3.65587">
        <ele>953.7</ele>
        <time>2021-08-11T11:13:52Z</time>
      </trkpt>
      <trkpt lat="44.26847" lon="3.65579">
        <ele>953.6</ele>
        <time>2021-08-11T11:13:54Z</time>
      </trkpt>
      <trkpt lat="44.26846" lon="3.65572">
        <ele>953.1</ele>
        <time>2021-08-11T11:13:56Z</time>
      </trkpt>
      <trkpt lat="44.26845" lon="3.65565">
        <ele>952.7</ele>
        <time>2021-08-11T11:13:58Z</time>
      </trkpt>
      <trkpt lat="44.26843" lon="3.65559">
        <ele>952.5</ele>
        <time>2021-08-11T11:14:00Z</time>
      </trkpt>
      <trkpt lat="44.26841" lon="3.65552">
        <ele>952.2</ele>
        <time>2021-08-11T11:14:02Z</time>
      </trkpt>
      <trkpt lat="44.26838" lon="3.65545">
        <ele>952</ele>
        <time>2021-08-11T11:14:04Z</time>
      </trkpt>
      <trkpt lat="44.26835" lon="3.65539">
        <ele>951.9</ele>
        <time>2021-08-11T11:14:06Z</time>
      </trkpt>
      <trkpt lat="44.26832" lon="3.65532">
        <ele>951.8</ele>
        <time>2021-08-11T11:14:08Z</time>
      </trkpt>
      <trkpt lat="44.26827" lon="3.65528">
        <ele>952.4</ele>
        <time>2021-08-11T11:14:10Z</time>
      </trkpt>
      <trkpt lat="44.26823" lon="3.65523">
        <ele>952.7</ele>
        <time>2021-08-11T11:14:12Z</time>
      </trkpt>
      <trkpt lat="44.26819" lon="3.65519">
        <ele>953.1</ele>
        <time>2021-08-11T11:14:14Z</time>
      </trkpt>
      <trkpt lat="44.26813" lon="3.65514">
        <ele>953.8</ele>
        <time>2021-08-11T11:14:16Z</time>
      </trkpt>
      <trkpt lat="44.26809" lon="3.6551">
        <ele>954.3</ele>
        <time>2021-08-11T11:14:18Z</time>
      </trkpt>
      <trkpt lat="44.26803" lon="3.65508">
        <ele>955.1</ele>
        <time>2021-08-11T11:14:20Z</time>
      </trkpt>
      <trkpt lat="44.26799" lon="3.65504">
        <ele>955.5</ele>
        <time>2021-08-11T11:14:22Z</time>
      </trkpt>
      <trkpt lat="44.26794" lon="3.65501">
        <ele>956</ele>
        <time>2021-08-11T11:14:24Z</time>
      </trkpt>
      <trkpt lat="44.26788" lon="3.65496">
        <ele>956.5</ele>
        <time>2021-08-11T11:14:26Z</time>
      </trkpt>
      <trkpt lat="44.26784" lon="3.65492">
        <ele>956.8</ele>
        <time>2021-08-11T11:14:28Z</time>
      </trkpt>
      <trkpt lat="44.26778" lon="3.65489">
        <ele>957.5</ele>
        <time>2021-08-11T11:14:30Z</time>
      </trkpt>
      <trkpt lat="44.26773" lon="3.65484">
        <ele>957.7</ele>
        <time>2021-08-11T11:14:32Z</time>
      </trkpt>
      <trkpt lat="44.26768" lon="3.65481">
        <ele>958.2</ele>
        <time>2021-08-11T11:14:34Z</time>
      </trkpt>
      <trkpt lat="44.26764" lon="3.65475">
        <ele>958.1</ele>
        <time>2021-08-11T11:14:36Z</time>
      </trkpt>
      <trkpt lat="44.2676" lon="3.65471">
        <ele>958.2</ele>
        <time>2021-08-11T11:14:38Z</time>
      </trkpt>
      <trkpt lat="44.26757" lon="3.65466">
        <ele>958.3</ele>
        <time>2021-08-11T11:14:40Z</time>
      </trkpt>
      <trkpt lat="44.26752" lon="3.65462">
        <ele>958.6</ele>
        <time>2021-08-11T11:14:42Z</time>
      </trkpt>
      <trkpt lat="44.26749" lon="3.65457">
        <ele>958.6</ele>
        <time>2021-08-11T11:14:44Z</time>
      </trkpt>
      <trkpt lat="44.26745" lon="3.65452">
        <ele>958.7</ele>
        <time>2021-08-11T11:14:46Z</time>
      </trkpt>
      <trkpt lat="44.2674" lon="3.65448">
        <ele>958.9</ele>
        <time>2021-08-11T11:14:48Z</time>
      </trkpt>
      <trkpt lat="44.26735" lon="3.65444">
        <ele>959.1</ele>
        <time>2021-08-11T11:14:50Z</time>
      </trkpt>
      <trkpt lat="44.26731" lon="3.65438">
        <ele>958.8</ele>
        <time>2021-08-11T11:14:52Z</time>
      </trkpt>
      <trkpt lat="44.26727" lon="3.65431">
        <ele>958.3</ele>
        <time>2021-08-11T11:14:54Z</time>
      </trkpt>
      <trkpt lat="44.26724" lon="3.65424">
        <ele>957.7</ele>
        <time>2021-08-11T11:14:56Z</time>
      </trkpt>
      <trkpt lat="44.26719" lon="3.65418">
        <ele>957.5</ele>
        <time>2021-08-11T11:14:58Z</time>
      </trkpt>
      <trkpt lat="44.26716" lon="3.65412">
        <ele>956.8</ele>
        <time>2021-08-11T11:15:00Z</time>
      </trkpt>
      <trkpt lat="44.26712" lon="3.65405">
        <ele>956.5</ele>
        <time>2021-08-11T11:15:02Z</time>
      </trkpt>
      <trkpt lat="44.26707" lon="3.65402">
        <ele>956.8</ele>
        <time>2021-08-11T11:15:04Z</time>
      </trkpt>
      <trkpt lat="44.26702" lon="3.65397">
        <ele>956.8</ele>
        <time>2021-08-11T11:15:06Z</time>
      </trkpt>
      <trkpt lat="44.26697" lon="3.65394">
        <ele>957</ele>
        <time>2021-08-11T11:15:08Z</time>
      </trkpt>
      <trkpt lat="44.26691" lon="3.65389">
        <ele>957.1</ele>
        <time>2021-08-11T11:15:10Z</time>
      </trkpt>
      <trkpt lat="44.26685" lon="3.65386">
        <ele>957.4</ele>
        <time>2021-08-11T11:15:12Z</time>
      </trkpt>
      <trkpt lat="44.26678" lon="3.65382">
        <ele>957.8</ele>
        <time>2021-08-11T11:15:14Z</time>
      </trkpt>
      <trkpt lat="44.26671" lon="3.6538">
        <ele>958.3</ele>
        <time>2021-08-11T11:15:16Z</time>
      </trkpt>
      <trkpt lat="44.26666" lon="3.65376">
        <ele>958.3</ele>
        <time>2021-08-11T11:15:18Z</time>
      </trkpt>
      <trkpt lat="44.26658" lon="3.65372">
        <ele>958.1</ele>
        <time>2021-08-11T11:15:20Z</time>
      </trkpt>
      <trkpt lat="44.26652" lon="3.65368">
        <ele>957.8</ele>
        <time>2021-08-11T11:15:22Z</time>
      </trkpt>
      <trkpt lat="44.26645" lon="3.65363">
        <ele>957.2</ele>
        <time>2021-08-11T11:15:24Z</time>
      </trkpt>
      <trkpt lat="44.26638" lon="3.65359">
        <ele>956.9</ele>
        <time>2021-08-11T11:15:26Z</time>
      </trkpt>
      <trkpt lat="44.26631" lon="3.65356">
        <ele>956.5</ele>
        <time>2021-08-11T11:15:28Z</time>
      </trkpt>
      <trkpt lat="44.26625" lon="3.65352">
        <ele>956</ele>
        <time>2021-08-11T11:15:30Z</time>
      </trkpt>
      <trkpt lat="44.26618" lon="3.65349">
        <ele>955.6</ele>
        <time>2021-08-11T11:15:32Z</time>
      </trkpt>
      <trkpt lat="44.26612" lon="3.65346">
        <ele>955.3</ele>
        <time>2021-08-11T11:15:34Z</time>
      </trkpt>
      <trkpt lat="44.26605" lon="3.65346">
        <ele>955.5</ele>
        <time>2021-08-11T11:15:36Z</time>
      </trkpt>
      <trkpt lat="44.26598" lon="3.65346">
        <ele>955.8</ele>
        <time>2021-08-11T11:15:38Z</time>
      </trkpt>
      <trkpt lat="44.26588" lon="3.65347">
        <ele>956.6</ele>
        <time>2021-08-11T11:15:40Z</time>
      </trkpt>
      <trkpt lat="44.26577" lon="3.65349">
        <ele>957.7</ele>
        <time>2021-08-11T11:15:42Z</time>
      </trkpt>
      <trkpt lat="44.26565" lon="3.65352">
        <ele>959.1</ele>
        <time>2021-08-11T11:15:44Z</time>
      </trkpt>
      <trkpt lat="44.26552" lon="3.65354">
        <ele>960.2</ele>
        <time>2021-08-11T11:15:46Z</time>
      </trkpt>
      <trkpt lat="44.26538" lon="3.65355">
        <ele>961.3</ele>
        <time>2021-08-11T11:15:48Z</time>
      </trkpt>
      <trkpt lat="44.26525" lon="3.65351">
        <ele>960.8</ele>
        <time>2021-08-11T11:15:50Z</time>
      </trkpt>
      <trkpt lat="44.26513" lon="3.65344">
        <ele>958.9</ele>
        <time>2021-08-11T11:15:52Z</time>
      </trkpt>
      <trkpt lat="44.26501" lon="3.65334">
        <ele>956.3</ele>
        <time>2021-08-11T11:15:54Z</time>
      </trkpt>
      <trkpt lat="44.26489" lon="3.65323">
        <ele>956.1</ele>
        <time>2021-08-11T11:15:56Z</time>
      </trkpt>
      <trkpt lat="44.26476" lon="3.65309">
        <ele>955.6</ele>
        <time>2021-08-11T11:15:58Z</time>
      </trkpt>
      <trkpt lat="44.26463" lon="3.65297">
        <ele>955.5</ele>
        <time>2021-08-11T11:16:00Z</time>
      </trkpt>
      <trkpt lat="44.26447" lon="3.65286">
        <ele>956.3</ele>
        <time>2021-08-11T11:16:02Z</time>
      </trkpt>
      <trkpt lat="44.26433" lon="3.65272">
        <ele>955.8</ele>
        <time>2021-08-11T11:16:04Z</time>
      </trkpt>
      <trkpt lat="44.26419" lon="3.65254">
        <ele>954.4</ele>
        <time>2021-08-11T11:16:06Z</time>
      </trkpt>
      <trkpt lat="44.26412" lon="3.65237">
        <ele>952.9</ele>
        <time>2021-08-11T11:16:08Z</time>
      </trkpt>
      <trkpt lat="44.26407" lon="3.65219">
        <ele>951.1</ele>
        <time>2021-08-11T11:16:10Z</time>
      </trkpt>
      <trkpt lat="44.264" lon="3.65205">
        <ele>949.8</ele>
        <time>2021-08-11T11:16:12Z</time>
      </trkpt>
      <trkpt lat="44.26391" lon="3.65195">
        <ele>949.4</ele>
        <time>2021-08-11T11:16:14Z</time>
      </trkpt>
      <trkpt lat="44.26381" lon="3.6519">
        <ele>949.7</ele>
        <time>2021-08-11T11:16:16Z</time>
      </trkpt>
      <trkpt lat="44.26372" lon="3.65184">
        <ele>949.6</ele>
        <time>2021-08-11T11:16:18Z</time>
      </trkpt>
      <trkpt lat="44.26362" lon="3.6518">
        <ele>949.9</ele>
        <time>2021-08-11T11:16:20Z</time>
      </trkpt>
      <trkpt lat="44.26353" lon="3.65176">
        <ele>950.2</ele>
        <time>2021-08-11T11:16:22Z</time>
      </trkpt>
      <trkpt lat="44.26344" lon="3.65174">
        <ele>950.7</ele>
        <time>2021-08-11T11:16:24Z</time>
      </trkpt>
      <trkpt lat="44.26336" lon="3.65173">
        <ele>951.2</ele>
        <time>2021-08-11T11:16:26Z</time>
      </trkpt>
      <trkpt lat="44.26327" lon="3.65171">
        <ele>951.7</ele>
        <time>2021-08-11T11:16:28Z</time>
      </trkpt>
      <trkpt lat="44.26318" lon="3.6517">
        <ele>952.3</ele>
        <time>2021-08-11T11:16:30Z</time>
      </trkpt>
      <trkpt lat="44.26308" lon="3.65166">
        <ele>952.2</ele>
        <time>2021-08-11T11:16:32Z</time>
      </trkpt>
      <trkpt lat="44.26298" lon="3.65163">
        <ele>952.5</ele>
        <time>2021-08-11T11:16:34Z</time>
      </trkpt>
      <trkpt lat="44.26286" lon="3.6516">
        <ele>953</ele>
        <time>2021-08-11T11:16:36Z</time>
      </trkpt>
      <trkpt lat="44.26275" lon="3.65157">
        <ele>953.4</ele>
        <time>2021-08-11T11:16:38Z</time>
      </trkpt>
      <trkpt lat="44.26263" lon="3.65151">
        <ele>953.1</ele>
        <time>2021-08-11T11:16:40Z</time>
      </trkpt>
      <trkpt lat="44.26252" lon="3.65146">
        <ele>952.9</ele>
        <time>2021-08-11T11:16:42Z</time>
      </trkpt>
      <trkpt lat="44.26239" lon="3.65143">
        <ele>952.8</ele>
        <time>2021-08-11T11:16:44Z</time>
      </trkpt>
      <trkpt lat="44.26226" lon="3.6514">
        <ele>952.9</ele>
        <time>2021-08-11T11:16:46Z</time>
      </trkpt>
      <trkpt lat="44.26211" lon="3.65139">
        <ele>953.5</ele>
        <time>2021-08-11T11:16:48Z</time>
      </trkpt>
      <trkpt lat="44.26197" lon="3.65135">
        <ele>953.4</ele>
        <time>2021-08-11T11:16:50Z</time>
      </trkpt>
      <trkpt lat="44.26183" lon="3.65132">
        <ele>953.4</ele>
        <time>2021-08-11T11:16:52Z</time>
      </trkpt>
      <trkpt lat="44.2617" lon="3.65131">
        <ele>953.9</ele>
        <time>2021-08-11T11:16:54Z</time>
      </trkpt>
      <trkpt lat="44.26159" lon="3.65129">
        <ele>954.9</ele>
        <time>2021-08-11T11:16:56Z</time>
      </trkpt>
      <trkpt lat="44.2615" lon="3.65128">
        <ele>956.3</ele>
        <time>2021-08-11T11:16:58Z</time>
      </trkpt>
      <trkpt lat="44.26141" lon="3.65125">
        <ele>957.2</ele>
        <time>2021-08-11T11:17:00Z</time>
      </trkpt>
      <trkpt lat="44.26135" lon="3.65123">
        <ele>957.9</ele>
        <time>2021-08-11T11:17:02Z</time>
      </trkpt>
      <trkpt lat="44.26129" lon="3.65122">
        <ele>958.8</ele>
        <time>2021-08-11T11:17:04Z</time>
      </trkpt>
      <trkpt lat="44.26124" lon="3.65123">
        <ele>959.8</ele>
        <time>2021-08-11T11:17:06Z</time>
      </trkpt>
      <trkpt lat="44.2612" lon="3.65122">
        <ele>960.6</ele>
        <time>2021-08-11T11:17:08Z</time>
      </trkpt>
      <trkpt lat="44.26115" lon="3.65121">
        <ele>961.3</ele>
        <time>2021-08-11T11:17:10Z</time>
      </trkpt>
      <trkpt lat="44.26109" lon="3.6512">
        <ele>961.9</ele>
        <time>2021-08-11T11:17:12Z</time>
      </trkpt>
      <trkpt lat="44.26104" lon="3.65116">
        <ele>961.9</ele>
        <time>2021-08-11T11:17:14Z</time>
      </trkpt>
      <trkpt lat="44.26099" lon="3.65113">
        <ele>962.1</ele>
        <time>2021-08-11T11:17:16Z</time>
      </trkpt>
      <trkpt lat="44.26094" lon="3.65107">
        <ele>961.7</ele>
        <time>2021-08-11T11:17:18Z</time>
      </trkpt>
      <trkpt lat="44.2609" lon="3.65103">
        <ele>961.4</ele>
        <time>2021-08-11T11:17:20Z</time>
      </trkpt>
      <trkpt lat="44.26086" lon="3.65099">
        <ele>961.1</ele>
        <time>2021-08-11T11:17:22Z</time>
      </trkpt>
      <trkpt lat="44.26082" lon="3.65094">
        <ele>960.6</ele>
        <time>2021-08-11T11:17:24Z</time>
      </trkpt>
      <trkpt lat="44.26079" lon="3.65089">
        <ele>960</ele>
        <time>2021-08-11T11:17:26Z</time>
      </trkpt>
      <trkpt lat="44.26074" lon="3.65086">
        <ele>959.8</ele>
        <time>2021-08-11T11:17:28Z</time>
      </trkpt>
      <trkpt lat="44.2607" lon="3.65082">
        <ele>959.5</ele>
        <time>2021-08-11T11:17:30Z</time>
      </trkpt>
      <trkpt lat="44.26065" lon="3.65079">
        <ele>959.7</ele>
        <time>2021-08-11T11:17:32Z</time>
      </trkpt>
      <trkpt lat="44.26061" lon="3.65075">
        <ele>959.6</ele>
        <time>2021-08-11T11:17:34Z</time>
      </trkpt>
      <trkpt lat="44.26058" lon="3.65069">
        <ele>959.2</ele>
        <time>2021-08-11T11:17:36Z</time>
      </trkpt>
      <trkpt lat="44.26054" lon="3.65065">
        <ele>959.1</ele>
        <time>2021-08-11T11:17:38Z</time>
      </trkpt>
      <trkpt lat="44.2605" lon="3.65061">
        <ele>958.9</ele>
        <time>2021-08-11T11:17:40Z</time>
      </trkpt>
      <trkpt lat="44.26046" lon="3.65057">
        <ele>958.7</ele>
        <time>2021-08-11T11:17:42Z</time>
      </trkpt>
      <trkpt lat="44.26043" lon="3.65052">
        <ele>958.4</ele>
        <time>2021-08-11T11:17:44Z</time>
      </trkpt>
      <trkpt lat="44.26039" lon="3.6505">
        <ele>958.3</ele>
        <time>2021-08-11T11:17:46Z</time>
      </trkpt>
      <trkpt lat="44.26036" lon="3.65046">
        <ele>958.2</ele>
        <time>2021-08-11T11:17:48Z</time>
      </trkpt>
      <trkpt lat="44.26032" lon="3.65045">
        <ele>958.3</ele>
        <time>2021-08-11T11:17:50Z</time>
      </trkpt>
      <trkpt lat="44.26027" lon="3.65043">
        <ele>958.4</ele>
        <time>2021-08-11T11:17:52Z</time>
      </trkpt>
      <trkpt lat="44.26024" lon="3.65042">
        <ele>958.6</ele>
        <time>2021-08-11T11:17:54Z</time>
      </trkpt>
      <trkpt lat="44.26019" lon="3.65043">
        <ele>959.1</ele>
        <time>2021-08-11T11:17:56Z</time>
      </trkpt>
      <trkpt lat="44.26015" lon="3.65043">
        <ele>959.4</ele>
        <time>2021-08-11T11:17:58Z</time>
      </trkpt>
      <trkpt lat="44.26011" lon="3.65043">
        <ele>959.8</ele>
        <time>2021-08-11T11:18:00Z</time>
      </trkpt>
      <trkpt lat="44.26007" lon="3.65044">
        <ele>960.3</ele>
        <time>2021-08-11T11:18:02Z</time>
      </trkpt>
      <trkpt lat="44.26002" lon="3.65043">
        <ele>960.5</ele>
        <time>2021-08-11T11:18:04Z</time>
      </trkpt>
      <trkpt lat="44.25998" lon="3.65044">
        <ele>961.2</ele>
        <time>2021-08-11T11:18:06Z</time>
      </trkpt>
      <trkpt lat="44.25993" lon="3.65044">
        <ele>961.9</ele>
        <time>2021-08-11T11:18:08Z</time>
      </trkpt>
      <trkpt lat="44.25989" lon="3.65044">
        <ele>962.4</ele>
        <time>2021-08-11T11:18:10Z</time>
      </trkpt>
      <trkpt lat="44.25984" lon="3.65044">
        <ele>963</ele>
        <time>2021-08-11T11:18:12Z</time>
      </trkpt>
      <trkpt lat="44.2598" lon="3.65044">
        <ele>963.5</ele>
        <time>2021-08-11T11:18:14Z</time>
      </trkpt>
      <trkpt lat="44.25975" lon="3.65044">
        <ele>964</ele>
        <time>2021-08-11T11:18:16Z</time>
      </trkpt>
      <trkpt lat="44.25971" lon="3.65043">
        <ele>964.4</ele>
        <time>2021-08-11T11:18:18Z</time>
      </trkpt>
      <trkpt lat="44.25966" lon="3.65042">
        <ele>964.9</ele>
        <time>2021-08-11T11:18:20Z</time>
      </trkpt>
      <trkpt lat="44.25961" lon="3.65042">
        <ele>965.4</ele>
        <time>2021-08-11T11:18:22Z</time>
      </trkpt>
      <trkpt lat="44.25957" lon="3.65041">
        <ele>965.9</ele>
        <time>2021-08-11T11:18:24Z</time>
      </trkpt>
      <trkpt lat="44.25952" lon="3.65041">
        <ele>966.4</ele>
        <time>2021-08-11T11:18:26Z</time>
      </trkpt>
      <trkpt lat="44.25948" lon="3.65041">
        <ele>966.9</ele>
        <time>2021-08-11T11:18:28Z</time>
      </trkpt>
      <trkpt lat="44.25943" lon="3.6504">
        <ele>967.3</ele>
        <time>2021-08-11T11:18:30Z</time>
      </trkpt>
      <trkpt lat="44.25939" lon="3.65039">
        <ele>967.8</ele>
        <time>2021-08-11T11:18:32Z</time>
      </trkpt>
      <trkpt lat="44.25933" lon="3.65038">
        <ele>968.2</ele>
        <time>2021-08-11T11:18:34Z</time>
      </trkpt>
      <trkpt lat="44.25928" lon="3.65037">
        <ele>968.6</ele>
        <time>2021-08-11T11:18:36Z</time>
      </trkpt>
      <trkpt lat="44.25924" lon="3.65035">
        <ele>968.9</ele>
        <time>2021-08-11T11:18:38Z</time>
      </trkpt>
      <trkpt lat="44.2592" lon="3.65034">
        <ele>969.2</ele>
        <time>2021-08-11T11:18:40Z</time>
      </trkpt>
      <trkpt lat="44.25915" lon="3.65032">
        <ele>969.3</ele>
        <time>2021-08-11T11:18:42Z</time>
      </trkpt>
      <trkpt lat="44.25911" lon="3.6503">
        <ele>969.4</ele>
        <time>2021-08-11T11:18:44Z</time>
      </trkpt>
      <trkpt lat="44.25907" lon="3.65029">
        <ele>969.5</ele>
        <time>2021-08-11T11:18:46Z</time>
      </trkpt>
      <trkpt lat="44.25903" lon="3.65027">
        <ele>969.6</ele>
        <time>2021-08-11T11:18:48Z</time>
      </trkpt>
      <trkpt lat="44.25899" lon="3.65025">
        <ele>969.7</ele>
        <time>2021-08-11T11:18:50Z</time>
      </trkpt>
      <trkpt lat="44.25896" lon="3.65024">
        <ele>969.8</ele>
        <time>2021-08-11T11:18:52Z</time>
      </trkpt>
      <trkpt lat="44.25892" lon="3.65022">
        <ele>969.9</ele>
        <time>2021-08-11T11:18:54Z</time>
      </trkpt>
      <trkpt lat="44.25888" lon="3.65019">
        <ele>969.8</ele>
        <time>2021-08-11T11:18:56Z</time>
      </trkpt>
      <trkpt lat="44.25885" lon="3.65016">
        <ele>969.6</ele>
        <time>2021-08-11T11:18:58Z</time>
      </trkpt>
      <trkpt lat="44.25881" lon="3.65013">
        <ele>969.4</ele>
        <time>2021-08-11T11:19:00Z</time>
      </trkpt>
      <trkpt lat="44.25879" lon="3.65008">
        <ele>968.9</ele>
        <time>2021-08-11T11:19:02Z</time>
      </trkpt>
      <trkpt lat="44.25876" lon="3.65003">
        <ele>968.4</ele>
        <time>2021-08-11T11:19:04Z</time>
      </trkpt>
      <trkpt lat="44.25873" lon="3.64999">
        <ele>968.2</ele>
        <time>2021-08-11T11:19:06Z</time>
      </trkpt>
      <trkpt lat="44.2587" lon="3.64994">
        <ele>968.2</ele>
        <time>2021-08-11T11:19:08Z</time>
      </trkpt>
      <trkpt lat="44.25868" lon="3.6499">
        <ele>968.2</ele>
        <time>2021-08-11T11:19:10Z</time>
      </trkpt>
      <trkpt lat="44.25864" lon="3.64985">
        <ele>968.3</ele>
        <time>2021-08-11T11:19:12Z</time>
      </trkpt>
      <trkpt lat="44.25862" lon="3.64981">
        <ele>968.4</ele>
        <time>2021-08-11T11:19:14Z</time>
      </trkpt>
      <trkpt lat="44.25858" lon="3.64976">
        <ele>968.5</ele>
        <time>2021-08-11T11:19:16Z</time>
      </trkpt>
      <trkpt lat="44.25856" lon="3.64972">
        <ele>968.5</ele>
        <time>2021-08-11T11:19:18Z</time>
      </trkpt>
      <trkpt lat="44.25853" lon="3.64968">
        <ele>968.6</ele>
        <time>2021-08-11T11:19:20Z</time>
      </trkpt>
      <trkpt lat="44.25851" lon="3.64965">
        <ele>968.7</ele>
        <time>2021-08-11T11:19:22Z</time>
      </trkpt>
      <trkpt lat="44.25847" lon="3.64961">
        <ele>969</ele>
        <time>2021-08-11T11:19:24Z</time>
      </trkpt>
      <trkpt lat="44.25843" lon="3.64959">
        <ele>969.3</ele>
        <time>2021-08-11T11:19:26Z</time>
      </trkpt>
      <trkpt lat="44.25839" lon="3.64956">
        <ele>969.6</ele>
        <time>2021-08-11T11:19:28Z</time>
      </trkpt>
      <trkpt lat="44.25835" lon="3.64953">
        <ele>969.9</ele>
        <time>2021-08-11T11:19:30Z</time>
      </trkpt>
      <trkpt lat="44.25832" lon="3.64951">
        <ele>970</ele>
        <time>2021-08-11T11:19:32Z</time>
      </trkpt>
      <trkpt lat="44.25827" lon="3.64949">
        <ele>969.7</ele>
        <time>2021-08-11T11:19:34Z</time>
      </trkpt>
      <trkpt lat="44.25823" lon="3.64948">
        <ele>969.4</ele>
        <time>2021-08-11T11:19:36Z</time>
      </trkpt>
      <trkpt lat="44.25819" lon="3.64947">
        <ele>969.2</ele>
        <time>2021-08-11T11:19:38Z</time>
      </trkpt>
      <trkpt lat="44.25814" lon="3.64946">
        <ele>968.9</ele>
        <time>2021-08-11T11:19:40Z</time>
      </trkpt>
      <trkpt lat="44.25811" lon="3.64945">
        <ele>968.7</ele>
        <time>2021-08-11T11:19:42Z</time>
      </trkpt>
      <trkpt lat="44.25807" lon="3.64945">
        <ele>968.6</ele>
        <time>2021-08-11T11:19:44Z</time>
      </trkpt>
      <trkpt lat="44.25803" lon="3.64947">
        <ele>968.5</ele>
        <time>2021-08-11T11:19:46Z</time>
      </trkpt>
      <trkpt lat="44.25798" lon="3.64947">
        <ele>968.3</ele>
        <time>2021-08-11T11:19:48Z</time>
      </trkpt>
      <trkpt lat="44.25795" lon="3.64947">
        <ele>968.1</ele>
        <time>2021-08-11T11:19:50Z</time>
      </trkpt>
      <trkpt lat="44.25791" lon="3.64948">
        <ele>968</ele>
        <time>2021-08-11T11:19:52Z</time>
      </trkpt>
      <trkpt lat="44.25786" lon="3.64947">
        <ele>967.8</ele>
        <time>2021-08-11T11:19:54Z</time>
      </trkpt>
      <trkpt lat="44.25781" lon="3.64946">
        <ele>967.5</ele>
        <time>2021-08-11T11:19:56Z</time>
      </trkpt>
      <trkpt lat="44.25774" lon="3.64943">
        <ele>967</ele>
        <time>2021-08-11T11:19:58Z</time>
      </trkpt>
      <trkpt lat="44.25767" lon="3.64939">
        <ele>966.4</ele>
        <time>2021-08-11T11:20:00Z</time>
      </trkpt>
      <trkpt lat="44.2576" lon="3.64934">
        <ele>965.7</ele>
        <time>2021-08-11T11:20:02Z</time>
      </trkpt>
      <trkpt lat="44.25754" lon="3.64928">
        <ele>965</ele>
        <time>2021-08-11T11:20:04Z</time>
      </trkpt>
      <trkpt lat="44.25747" lon="3.6492">
        <ele>964.1</ele>
        <time>2021-08-11T11:20:06Z</time>
      </trkpt>
      <trkpt lat="44.25739" lon="3.64912">
        <ele>963.4</ele>
        <time>2021-08-11T11:20:08Z</time>
      </trkpt>
      <trkpt lat="44.2573" lon="3.64903">
        <ele>963.2</ele>
        <time>2021-08-11T11:20:10Z</time>
      </trkpt>
      <trkpt lat="44.25721" lon="3.64895">
        <ele>962.9</ele>
        <time>2021-08-11T11:20:12Z</time>
      </trkpt>
      <trkpt lat="44.25712" lon="3.64885">
        <ele>962.8</ele>
        <time>2021-08-11T11:20:14Z</time>
      </trkpt>
      <trkpt lat="44.25703" lon="3.64877">
        <ele>962.6</ele>
        <time>2021-08-11T11:20:16Z</time>
      </trkpt>
      <trkpt lat="44.25694" lon="3.64871">
        <ele>962.3</ele>
        <time>2021-08-11T11:20:18Z</time>
      </trkpt>
      <trkpt lat="44.25688" lon="3.64871">
        <ele>962</ele>
        <time>2021-08-11T11:20:20Z</time>
      </trkpt>
      <trkpt lat="44.25682" lon="3.64868">
        <ele>961.8</ele>
        <time>2021-08-11T11:20:22Z</time>
      </trkpt>
      <trkpt lat="44.25674" lon="3.64862">
        <ele>961.7</ele>
        <time>2021-08-11T11:20:24Z</time>
      </trkpt>
      <trkpt lat="44.25666" lon="3.64858">
        <ele>961.5</ele>
        <time>2021-08-11T11:20:26Z</time>
      </trkpt>
      <trkpt lat="44.25656" lon="3.64854">
        <ele>960.8</ele>
        <time>2021-08-11T11:20:28Z</time>
      </trkpt>
      <trkpt lat="44.25645" lon="3.6485">
        <ele>960.1</ele>
        <time>2021-08-11T11:20:30Z</time>
      </trkpt>
      <trkpt lat="44.25635" lon="3.64846">
        <ele>959.4</ele>
        <time>2021-08-11T11:20:32Z</time>
      </trkpt>
      <trkpt lat="44.25626" lon="3.6484">
        <ele>958.8</ele>
        <time>2021-08-11T11:20:34Z</time>
      </trkpt>
      <trkpt lat="44.25618" lon="3.64835">
        <ele>958.2</ele>
        <time>2021-08-11T11:20:36Z</time>
      </trkpt>
      <trkpt lat="44.25606" lon="3.64827">
        <ele>957.6</ele>
        <time>2021-08-11T11:20:38Z</time>
      </trkpt>
      <trkpt lat="44.25597" lon="3.64821">
        <ele>957.1</ele>
        <time>2021-08-11T11:20:40Z</time>
      </trkpt>
      <trkpt lat="44.25588" lon="3.64816">
        <ele>956.5</ele>
        <time>2021-08-11T11:20:42Z</time>
      </trkpt>
      <trkpt lat="44.2558" lon="3.64812">
        <ele>956.2</ele>
        <time>2021-08-11T11:20:44Z</time>
      </trkpt>
      <trkpt lat="44.25572" lon="3.64808">
        <ele>956.3</ele>
        <time>2021-08-11T11:20:46Z</time>
      </trkpt>
      <trkpt lat="44.25562" lon="3.64804">
        <ele>956.3</ele>
        <time>2021-08-11T11:20:48Z</time>
      </trkpt>
      <trkpt lat="44.25553" lon="3.64801">
        <ele>956.3</ele>
        <time>2021-08-11T11:20:50Z</time>
      </trkpt>
      <trkpt lat="44.25544" lon="3.64804">
        <ele>955.8</ele>
        <time>2021-08-11T11:20:52Z</time>
      </trkpt>
      <trkpt lat="44.25535" lon="3.64809">
        <ele>955.3</ele>
        <time>2021-08-11T11:20:54Z</time>
      </trkpt>
      <trkpt lat="44.25524" lon="3.64815">
        <ele>954.5</ele>
        <time>2021-08-11T11:20:56Z</time>
      </trkpt>
      <trkpt lat="44.25514" lon="3.64823">
        <ele>953.4</ele>
        <time>2021-08-11T11:20:58Z</time>
      </trkpt>
      <trkpt lat="44.25504" lon="3.64834">
        <ele>952.1</ele>
        <time>2021-08-11T11:21:00Z</time>
      </trkpt>
      <trkpt lat="44.25495" lon="3.64842">
        <ele>951.2</ele>
        <time>2021-08-11T11:21:02Z</time>
      </trkpt>
      <trkpt lat="44.25484" lon="3.64849">
        <ele>950.1</ele>
        <time>2021-08-11T11:21:04Z</time>
      </trkpt>
      <trkpt lat="44.25475" lon="3.64851">
        <ele>949.4</ele>
        <time>2021-08-11T11:21:06Z</time>
      </trkpt>
      <trkpt lat="44.25464" lon="3.64849">
        <ele>948.8</ele>
        <time>2021-08-11T11:21:08Z</time>
      </trkpt>
      <trkpt lat="44.25452" lon="3.64849">
        <ele>948.1</ele>
        <time>2021-08-11T11:21:10Z</time>
      </trkpt>
      <trkpt lat="44.25439" lon="3.64848">
        <ele>947.4</ele>
        <time>2021-08-11T11:21:12Z</time>
      </trkpt>
      <trkpt lat="44.25427" lon="3.64846">
        <ele>946.7</ele>
        <time>2021-08-11T11:21:14Z</time>
      </trkpt>
      <trkpt lat="44.25416" lon="3.64843">
        <ele>946.2</ele>
        <time>2021-08-11T11:21:16Z</time>
      </trkpt>
      <trkpt lat="44.25404" lon="3.64841">
        <ele>945.5</ele>
        <time>2021-08-11T11:21:18Z</time>
      </trkpt>
      <trkpt lat="44.25392" lon="3.64839">
        <ele>944.7</ele>
        <time>2021-08-11T11:21:20Z</time>
      </trkpt>
      <trkpt lat="44.2538" lon="3.64838">
        <ele>943.9</ele>
        <time>2021-08-11T11:21:22Z</time>
      </trkpt>
      <trkpt lat="44.25366" lon="3.6484">
        <ele>942.7</ele>
        <time>2021-08-11T11:21:24Z</time>
      </trkpt>
      <trkpt lat="44.25352" lon="3.64842">
        <ele>941.5</ele>
        <time>2021-08-11T11:21:26Z</time>
      </trkpt>
      <trkpt lat="44.25339" lon="3.64844">
        <ele>940.3</ele>
        <time>2021-08-11T11:21:28Z</time>
      </trkpt>
      <trkpt lat="44.25326" lon="3.64851">
        <ele>938.7</ele>
        <time>2021-08-11T11:21:30Z</time>
      </trkpt>
      <trkpt lat="44.25313" lon="3.64855">
        <ele>937.7</ele>
        <time>2021-08-11T11:21:32Z</time>
      </trkpt>
      <trkpt lat="44.25302" lon="3.64861">
        <ele>936.5</ele>
        <time>2021-08-11T11:21:34Z</time>
      </trkpt>
      <trkpt lat="44.25293" lon="3.64865">
        <ele>935.5</ele>
        <time>2021-08-11T11:21:36Z</time>
      </trkpt>
      <trkpt lat="44.25286" lon="3.6487">
        <ele>934.4</ele>
        <time>2021-08-11T11:21:38Z</time>
      </trkpt>
      <trkpt lat="44.25278" lon="3.64876">
        <ele>933.1</ele>
        <time>2021-08-11T11:21:40Z</time>
      </trkpt>
      <trkpt lat="44.25273" lon="3.64884">
        <ele>931.6</ele>
        <time>2021-08-11T11:21:42Z</time>
      </trkpt>
      <trkpt lat="44.25266" lon="3.6489">
        <ele>930.2</ele>
        <time>2021-08-11T11:21:44Z</time>
      </trkpt>
      <trkpt lat="44.25261" lon="3.64899">
        <ele>928.6</ele>
        <time>2021-08-11T11:21:46Z</time>
      </trkpt>
      <trkpt lat="44.25255" lon="3.64908">
        <ele>926.7</ele>
        <time>2021-08-11T11:21:48Z</time>
      </trkpt>
      <trkpt lat="44.2525" lon="3.64918">
        <ele>924.8</ele>
        <time>2021-08-11T11:21:50Z</time>
      </trkpt>
      <trkpt lat="44.25245" lon="3.64929">
        <ele>923.3</ele>
        <time>2021-08-11T11:21:52Z</time>
      </trkpt>
      <trkpt lat="44.2524" lon="3.64942">
        <ele>921.5</ele>
        <time>2021-08-11T11:21:54Z</time>
      </trkpt>
      <trkpt lat="44.25234" lon="3.64955">
        <ele>919.8</ele>
        <time>2021-08-11T11:21:56Z</time>
      </trkpt>
      <trkpt lat="44.25227" lon="3.64965">
        <ele>918.3</ele>
        <time>2021-08-11T11:21:58Z</time>
      </trkpt>
      <trkpt lat="44.25219" lon="3.64973">
        <ele>917.2</ele>
        <time>2021-08-11T11:22:00Z</time>
      </trkpt>
      <trkpt lat="44.25213" lon="3.64977">
        <ele>916.6</ele>
        <time>2021-08-11T11:22:02Z</time>
      </trkpt>
      <trkpt lat="44.25208" lon="3.6498">
        <ele>916.2</ele>
        <time>2021-08-11T11:22:04Z</time>
      </trkpt>
      <trkpt lat="44.25203" lon="3.64982">
        <ele>915.8</ele>
        <time>2021-08-11T11:22:06Z</time>
      </trkpt>
      <trkpt lat="44.25197" lon="3.64986">
        <ele>915.2</ele>
        <time>2021-08-11T11:22:08Z</time>
      </trkpt>
      <trkpt lat="44.25192" lon="3.64989">
        <ele>914.7</ele>
        <time>2021-08-11T11:22:10Z</time>
      </trkpt>
      <trkpt lat="44.25187" lon="3.64992">
        <ele>914.3</ele>
        <time>2021-08-11T11:22:12Z</time>
      </trkpt>
      <trkpt lat="44.25185" lon="3.64994">
        <ele>914</ele>
        <time>2021-08-11T11:22:14Z</time>
      </trkpt>
      <trkpt lat="44.25181" lon="3.64996">
        <ele>913.7</ele>
        <time>2021-08-11T11:22:16Z</time>
      </trkpt>
      <trkpt lat="44.25178" lon="3.64998">
        <ele>913.4</ele>
        <time>2021-08-11T11:22:18Z</time>
      </trkpt>
      <trkpt lat="44.25179" lon="3.64998">
        <ele>913.4</ele>
        <time>2021-08-11T11:22:20Z</time>
      </trkpt>
      <trkpt lat="44.25179" lon="3.64998">
        <ele>913.5</ele>
        <time>2021-08-11T11:22:22Z</time>
      </trkpt>
      <trkpt lat="44.25179" lon="3.64997">
        <ele>913.5</ele>
        <time>2021-08-11T11:22:24Z</time>
      </trkpt>
      <trkpt lat="44.25178" lon="3.64997">
        <ele>913.5</ele>
        <time>2021-08-11T11:22:26Z</time>
      </trkpt>
      <trkpt lat="44.25178" lon="3.64997">
        <ele>913.5</ele>
        <time>2021-08-11T11:22:28Z</time>
      </trkpt>
      <trkpt lat="44.25161" lon="3.65011">
        <ele>910.9</ele>
        <time>2021-08-11T11:23:56Z</time>
      </trkpt>
      <trkpt lat="44.25153" lon="3.65022">
        <ele>908.6</ele>
        <time>2021-08-11T11:23:58Z</time>
      </trkpt>
      <trkpt lat="44.25144" lon="3.65035">
        <ele>906.2</ele>
        <time>2021-08-11T11:24:00Z</time>
      </trkpt>
      <trkpt lat="44.25135" lon="3.65051">
        <ele>903.7</ele>
        <time>2021-08-11T11:24:02Z</time>
      </trkpt>
      <trkpt lat="44.25126" lon="3.65067">
        <ele>901.3</ele>
        <time>2021-08-11T11:24:04Z</time>
      </trkpt>
      <trkpt lat="44.25117" lon="3.65081">
        <ele>899.2</ele>
        <time>2021-08-11T11:24:06Z</time>
      </trkpt>
      <trkpt lat="44.25105" lon="3.65091">
        <ele>898.2</ele>
        <time>2021-08-11T11:24:08Z</time>
      </trkpt>
      <trkpt lat="44.25097" lon="3.65095">
        <ele>897.5</ele>
        <time>2021-08-11T11:24:10Z</time>
      </trkpt>
      <trkpt lat="44.25091" lon="3.65095">
        <ele>897.2</ele>
        <time>2021-08-11T11:24:12Z</time>
      </trkpt>
      <trkpt lat="44.25087" lon="3.65096">
        <ele>896.9</ele>
        <time>2021-08-11T11:24:14Z</time>
      </trkpt>
      <trkpt lat="44.25083" lon="3.65097">
        <ele>896.7</ele>
        <time>2021-08-11T11:24:16Z</time>
      </trkpt>
      <trkpt lat="44.25081" lon="3.65097">
        <ele>896.6</ele>
        <time>2021-08-11T11:24:18Z</time>
      </trkpt>
      <trkpt lat="44.2508" lon="3.65097">
        <ele>896.4</ele>
        <time>2021-08-11T11:24:20Z</time>
      </trkpt>
      <trkpt lat="44.2508" lon="3.65098">
        <ele>896.4</ele>
        <time>2021-08-11T11:24:22Z</time>
      </trkpt>
      <trkpt lat="44.2508" lon="3.65098">
        <ele>896.4</ele>
        <time>2021-08-11T11:24:24Z</time>
      </trkpt>
      <trkpt lat="44.25057" lon="3.65103">
        <ele>895</ele>
        <time>2021-08-11T11:24:58Z</time>
      </trkpt>
      <trkpt lat="44.25044" lon="3.65104">
        <ele>894.3</ele>
        <time>2021-08-11T11:25:00Z</time>
      </trkpt>
      <trkpt lat="44.25029" lon="3.651">
        <ele>893.5</ele>
        <time>2021-08-11T11:25:02Z</time>
      </trkpt>
      <trkpt lat="44.25016" lon="3.65088">
        <ele>892.9</ele>
        <time>2021-08-11T11:25:04Z</time>
      </trkpt>
      <trkpt lat="44.25005" lon="3.65074">
        <ele>893</ele>
        <time>2021-08-11T11:25:06Z</time>
      </trkpt>
      <trkpt lat="44.24996" lon="3.65061">
        <ele>894</ele>
        <time>2021-08-11T11:25:08Z</time>
      </trkpt>
      <trkpt lat="44.24986" lon="3.65052">
        <ele>895.8</ele>
        <time>2021-08-11T11:25:10Z</time>
      </trkpt>
      <trkpt lat="44.24974" lon="3.65052">
        <ele>897.2</ele>
        <time>2021-08-11T11:25:12Z</time>
      </trkpt>
      <trkpt lat="44.24964" lon="3.6506">
        <ele>897.8</ele>
        <time>2021-08-11T11:25:14Z</time>
      </trkpt>
      <trkpt lat="44.24956" lon="3.6507">
        <ele>898.1</ele>
        <time>2021-08-11T11:25:16Z</time>
      </trkpt>
      <trkpt lat="44.24951" lon="3.6508">
        <ele>898.1</ele>
        <time>2021-08-11T11:25:18Z</time>
      </trkpt>
      <trkpt lat="44.24948" lon="3.65088">
        <ele>898</ele>
        <time>2021-08-11T11:25:20Z</time>
      </trkpt>
      <trkpt lat="44.24946" lon="3.65095">
        <ele>898</ele>
        <time>2021-08-11T11:25:22Z</time>
      </trkpt>
      <trkpt lat="44.24943" lon="3.65099">
        <ele>898.1</ele>
        <time>2021-08-11T11:25:24Z</time>
      </trkpt>
      <trkpt lat="44.2494" lon="3.65103">
        <ele>898.2</ele>
        <time>2021-08-11T11:25:26Z</time>
      </trkpt>
      <trkpt lat="44.24937" lon="3.65106">
        <ele>898.4</ele>
        <time>2021-08-11T11:25:28Z</time>
      </trkpt>
      <trkpt lat="44.24934" lon="3.65111">
        <ele>898.6</ele>
        <time>2021-08-11T11:25:30Z</time>
      </trkpt>
      <trkpt lat="44.24932" lon="3.65114">
        <ele>898.6</ele>
        <time>2021-08-11T11:25:32Z</time>
      </trkpt>
      <trkpt lat="44.2493" lon="3.65116">
        <ele>898.6</ele>
        <time>2021-08-11T11:25:34Z</time>
      </trkpt>
      <trkpt lat="44.24928" lon="3.65121">
        <ele>898.6</ele>
        <time>2021-08-11T11:25:36Z</time>
      </trkpt>
      <trkpt lat="44.24926" lon="3.65125">
        <ele>898.6</ele>
        <time>2021-08-11T11:25:38Z</time>
      </trkpt>
      <trkpt lat="44.24924" lon="3.6513">
        <ele>898.5</ele>
        <time>2021-08-11T11:25:40Z</time>
      </trkpt>
      <trkpt lat="44.24923" lon="3.65134">
        <ele>898.4</ele>
        <time>2021-08-11T11:25:42Z</time>
      </trkpt>
      <trkpt lat="44.24921" lon="3.65138">
        <ele>898.3</ele>
        <time>2021-08-11T11:25:44Z</time>
      </trkpt>
      <trkpt lat="44.24919" lon="3.65143">
        <ele>898.2</ele>
        <time>2021-08-11T11:25:46Z</time>
      </trkpt>
      <trkpt lat="44.24918" lon="3.65147">
        <ele>898</ele>
        <time>2021-08-11T11:25:48Z</time>
      </trkpt>
      <trkpt lat="44.24917" lon="3.65151">
        <ele>897.9</ele>
        <time>2021-08-11T11:25:50Z</time>
      </trkpt>
      <trkpt lat="44.24916" lon="3.65155">
        <ele>897.9</ele>
        <time>2021-08-11T11:25:52Z</time>
      </trkpt>
      <trkpt lat="44.24914" lon="3.65159">
        <ele>898</ele>
        <time>2021-08-11T11:25:54Z</time>
      </trkpt>
      <trkpt lat="44.24913" lon="3.65163">
        <ele>898.1</ele>
        <time>2021-08-11T11:25:56Z</time>
      </trkpt>
      <trkpt lat="44.24912" lon="3.65168">
        <ele>898.2</ele>
        <time>2021-08-11T11:25:58Z</time>
      </trkpt>
      <trkpt lat="44.2491" lon="3.65171">
        <ele>898.6</ele>
        <time>2021-08-11T11:26:00Z</time>
      </trkpt>
      <trkpt lat="44.24909" lon="3.65176">
        <ele>898.8</ele>
        <time>2021-08-11T11:26:02Z</time>
      </trkpt>
      <trkpt lat="44.24908" lon="3.6518">
        <ele>898.9</ele>
        <time>2021-08-11T11:26:04Z</time>
      </trkpt>
      <trkpt lat="44.24907" lon="3.65184">
        <ele>899.1</ele>
        <time>2021-08-11T11:26:06Z</time>
      </trkpt>
      <trkpt lat="44.24906" lon="3.65187">
        <ele>899.3</ele>
        <time>2021-08-11T11:26:08Z</time>
      </trkpt>
      <trkpt lat="44.24905" lon="3.65191">
        <ele>899.4</ele>
        <time>2021-08-11T11:26:10Z</time>
      </trkpt>
      <trkpt lat="44.24904" lon="3.65195">
        <ele>899.6</ele>
        <time>2021-08-11T11:26:12Z</time>
      </trkpt>
      <trkpt lat="44.24903" lon="3.65199">
        <ele>899.8</ele>
        <time>2021-08-11T11:26:14Z</time>
      </trkpt>
      <trkpt lat="44.24902" lon="3.65203">
        <ele>900.1</ele>
        <time>2021-08-11T11:26:16Z</time>
      </trkpt>
      <trkpt lat="44.24899" lon="3.65206">
        <ele>900.6</ele>
        <time>2021-08-11T11:26:18Z</time>
      </trkpt>
      <trkpt lat="44.24896" lon="3.65204">
        <ele>901.5</ele>
        <time>2021-08-11T11:26:20Z</time>
      </trkpt>
      <trkpt lat="44.24894" lon="3.652">
        <ele>902.1</ele>
        <time>2021-08-11T11:26:22Z</time>
      </trkpt>
      <trkpt lat="44.24894" lon="3.65195">
        <ele>902.1</ele>
        <time>2021-08-11T11:26:24Z</time>
      </trkpt>
      <trkpt lat="44.24895" lon="3.65191">
        <ele>902</ele>
        <time>2021-08-11T11:26:26Z</time>
      </trkpt>
      <trkpt lat="44.24896" lon="3.65187">
        <ele>901.8</ele>
        <time>2021-08-11T11:26:28Z</time>
      </trkpt>
      <trkpt lat="44.24897" lon="3.65182">
        <ele>901.7</ele>
        <time>2021-08-11T11:26:30Z</time>
      </trkpt>
      <trkpt lat="44.24897" lon="3.65178">
        <ele>901.6</ele>
        <time>2021-08-11T11:26:32Z</time>
      </trkpt>
      <trkpt lat="44.24897" lon="3.65173">
        <ele>901.7</ele>
        <time>2021-08-11T11:26:34Z</time>
      </trkpt>
      <trkpt lat="44.24897" lon="3.65169">
        <ele>901.9</ele>
        <time>2021-08-11T11:26:36Z</time>
      </trkpt>
      <trkpt lat="44.24897" lon="3.65164">
        <ele>902.2</ele>
        <time>2021-08-11T11:26:38Z</time>
      </trkpt>
      <trkpt lat="44.24896" lon="3.6516">
        <ele>902.5</ele>
        <time>2021-08-11T11:26:40Z</time>
      </trkpt>
      <trkpt lat="44.24894" lon="3.65156">
        <ele>903.1</ele>
        <time>2021-08-11T11:26:42Z</time>
      </trkpt>
      <trkpt lat="44.24892" lon="3.65153">
        <ele>903.6</ele>
        <time>2021-08-11T11:26:44Z</time>
      </trkpt>
      <trkpt lat="44.2489" lon="3.65148">
        <ele>904.1</ele>
        <time>2021-08-11T11:26:46Z</time>
      </trkpt>
      <trkpt lat="44.24888" lon="3.65145">
        <ele>904.7</ele>
        <time>2021-08-11T11:26:48Z</time>
      </trkpt>
      <trkpt lat="44.24885" lon="3.65142">
        <ele>905.3</ele>
        <time>2021-08-11T11:26:50Z</time>
      </trkpt>
      <trkpt lat="44.24883" lon="3.6514">
        <ele>905.9</ele>
        <time>2021-08-11T11:26:52Z</time>
      </trkpt>
      <trkpt lat="44.2488" lon="3.65137">
        <ele>906.5</ele>
        <time>2021-08-11T11:26:54Z</time>
      </trkpt>
      <trkpt lat="44.24878" lon="3.65134">
        <ele>907.1</ele>
        <time>2021-08-11T11:26:56Z</time>
      </trkpt>
      <trkpt lat="44.24875" lon="3.65133">
        <ele>907.7</ele>
        <time>2021-08-11T11:26:58Z</time>
      </trkpt>
      <trkpt lat="44.24872" lon="3.65131">
        <ele>908.4</ele>
        <time>2021-08-11T11:27:00Z</time>
      </trkpt>
      <trkpt lat="44.24869" lon="3.65129">
        <ele>909</ele>
        <time>2021-08-11T11:27:02Z</time>
      </trkpt>
      <trkpt lat="44.24866" lon="3.65127">
        <ele>909.5</ele>
        <time>2021-08-11T11:27:04Z</time>
      </trkpt>
      <trkpt lat="44.24864" lon="3.65125">
        <ele>910</ele>
        <time>2021-08-11T11:27:06Z</time>
      </trkpt>
      <trkpt lat="44.24861" lon="3.65122">
        <ele>910.4</ele>
        <time>2021-08-11T11:27:08Z</time>
      </trkpt>
      <trkpt lat="44.2486" lon="3.65117">
        <ele>910.7</ele>
        <time>2021-08-11T11:27:10Z</time>
      </trkpt>
      <trkpt lat="44.24858" lon="3.65114">
        <ele>910.9</ele>
        <time>2021-08-11T11:27:12Z</time>
      </trkpt>
      <trkpt lat="44.24857" lon="3.6511">
        <ele>911.1</ele>
        <time>2021-08-11T11:27:14Z</time>
      </trkpt>
      <trkpt lat="44.24856" lon="3.65105">
        <ele>911.1</ele>
        <time>2021-08-11T11:27:16Z</time>
      </trkpt>
      <trkpt lat="44.24856" lon="3.65101">
        <ele>911.1</ele>
        <time>2021-08-11T11:27:18Z</time>
      </trkpt>
      <trkpt lat="44.24855" lon="3.65096">
        <ele>911.1</ele>
        <time>2021-08-11T11:27:20Z</time>
      </trkpt>
      <trkpt lat="44.24855" lon="3.65092">
        <ele>911</ele>
        <time>2021-08-11T11:27:22Z</time>
      </trkpt>
      <trkpt lat="44.24855" lon="3.65087">
        <ele>910.9</ele>
        <time>2021-08-11T11:27:24Z</time>
      </trkpt>
      <trkpt lat="44.24856" lon="3.65083">
        <ele>910.8</ele>
        <time>2021-08-11T11:27:26Z</time>
      </trkpt>
      <trkpt lat="44.24855" lon="3.65078">
        <ele>910.9</ele>
        <time>2021-08-11T11:27:28Z</time>
      </trkpt>
      <trkpt lat="44.24855" lon="3.65075">
        <ele>910.9</ele>
        <time>2021-08-11T11:27:30Z</time>
      </trkpt>
      <trkpt lat="44.24855" lon="3.65071">
        <ele>911</ele>
        <time>2021-08-11T11:27:32Z</time>
      </trkpt>
      <trkpt lat="44.24854" lon="3.65067">
        <ele>911.1</ele>
        <time>2021-08-11T11:27:34Z</time>
      </trkpt>
      <trkpt lat="44.24852" lon="3.65063">
        <ele>911.3</ele>
        <time>2021-08-11T11:27:36Z</time>
      </trkpt>
      <trkpt lat="44.24851" lon="3.6506">
        <ele>911.5</ele>
        <time>2021-08-11T11:27:38Z</time>
      </trkpt>
      <trkpt lat="44.2485" lon="3.65056">
        <ele>911.6</ele>
        <time>2021-08-11T11:27:40Z</time>
      </trkpt>
      <trkpt lat="44.24848" lon="3.65052">
        <ele>911.9</ele>
        <time>2021-08-11T11:27:42Z</time>
      </trkpt>
      <trkpt lat="44.24845" lon="3.65049">
        <ele>912.2</ele>
        <time>2021-08-11T11:27:44Z</time>
      </trkpt>
      <trkpt lat="44.24842" lon="3.65047">
        <ele>912.5</ele>
        <time>2021-08-11T11:27:46Z</time>
      </trkpt>
      <trkpt lat="44.2484" lon="3.65045">
        <ele>912.7</ele>
        <time>2021-08-11T11:27:48Z</time>
      </trkpt>
      <trkpt lat="44.24838" lon="3.65042">
        <ele>913</ele>
        <time>2021-08-11T11:27:50Z</time>
      </trkpt>
      <trkpt lat="44.24835" lon="3.6504">
        <ele>913.3</ele>
        <time>2021-08-11T11:27:52Z</time>
      </trkpt>
      <trkpt lat="44.24833" lon="3.65037">
        <ele>913.4</ele>
        <time>2021-08-11T11:27:54Z</time>
      </trkpt>
      <trkpt lat="44.24829" lon="3.65035">
        <ele>913.3</ele>
        <time>2021-08-11T11:27:56Z</time>
      </trkpt>
      <trkpt lat="44.24827" lon="3.65033">
        <ele>913.2</ele>
        <time>2021-08-11T11:27:58Z</time>
      </trkpt>
      <trkpt lat="44.24825" lon="3.6503">
        <ele>913.1</ele>
        <time>2021-08-11T11:28:00Z</time>
      </trkpt>
      <trkpt lat="44.24823" lon="3.65027">
        <ele>913</ele>
        <time>2021-08-11T11:28:02Z</time>
      </trkpt>
      <trkpt lat="44.2482" lon="3.65025">
        <ele>912.8</ele>
        <time>2021-08-11T11:28:04Z</time>
      </trkpt>
      <trkpt lat="44.24817" lon="3.65024">
        <ele>912.7</ele>
        <time>2021-08-11T11:28:06Z</time>
      </trkpt>
      <trkpt lat="44.24814" lon="3.6502">
        <ele>912.5</ele>
        <time>2021-08-11T11:28:08Z</time>
      </trkpt>
      <trkpt lat="44.24811" lon="3.65018">
        <ele>912.4</ele>
        <time>2021-08-11T11:28:10Z</time>
      </trkpt>
      <trkpt lat="44.24806" lon="3.65016">
        <ele>912.1</ele>
        <time>2021-08-11T11:28:12Z</time>
      </trkpt>
      <trkpt lat="44.248" lon="3.65017">
        <ele>911.9</ele>
        <time>2021-08-11T11:28:14Z</time>
      </trkpt>
      <trkpt lat="44.24794" lon="3.65023">
        <ele>911.9</ele>
        <time>2021-08-11T11:28:16Z</time>
      </trkpt>
      <trkpt lat="44.24788" lon="3.65029">
        <ele>911.9</ele>
        <time>2021-08-11T11:28:18Z</time>
      </trkpt>
      <trkpt lat="44.24782" lon="3.65037">
        <ele>912.1</ele>
        <time>2021-08-11T11:28:20Z</time>
      </trkpt>
      <trkpt lat="44.24776" lon="3.65044">
        <ele>912.2</ele>
        <time>2021-08-11T11:28:22Z</time>
      </trkpt>
      <trkpt lat="44.2477" lon="3.65051">
        <ele>912.4</ele>
        <time>2021-08-11T11:28:24Z</time>
      </trkpt>
      <trkpt lat="44.24765" lon="3.6506">
        <ele>912.8</ele>
        <time>2021-08-11T11:28:26Z</time>
      </trkpt>
      <trkpt lat="44.2476" lon="3.65067">
        <ele>913.1</ele>
        <time>2021-08-11T11:28:28Z</time>
      </trkpt>
      <trkpt lat="44.24754" lon="3.65075">
        <ele>913.5</ele>
        <time>2021-08-11T11:28:30Z</time>
      </trkpt>
      <trkpt lat="44.24746" lon="3.65081">
        <ele>913.4</ele>
        <time>2021-08-11T11:28:32Z</time>
      </trkpt>
      <trkpt lat="44.2474" lon="3.65088">
        <ele>913.5</ele>
        <time>2021-08-11T11:28:34Z</time>
      </trkpt>
      <trkpt lat="44.24733" lon="3.65094">
        <ele>913.7</ele>
        <time>2021-08-11T11:28:36Z</time>
      </trkpt>
      <trkpt lat="44.24726" lon="3.65099">
        <ele>913.6</ele>
        <time>2021-08-11T11:28:38Z</time>
      </trkpt>
      <trkpt lat="44.24719" lon="3.65103">
        <ele>913.5</ele>
        <time>2021-08-11T11:28:40Z</time>
      </trkpt>
      <trkpt lat="44.24711" lon="3.65108">
        <ele>913.6</ele>
        <time>2021-08-11T11:28:42Z</time>
      </trkpt>
      <trkpt lat="44.24704" lon="3.65113">
        <ele>913.8</ele>
        <time>2021-08-11T11:28:44Z</time>
      </trkpt>
      <trkpt lat="44.24698" lon="3.65117">
        <ele>913.9</ele>
        <time>2021-08-11T11:28:46Z</time>
      </trkpt>
      <trkpt lat="44.24692" lon="3.65121">
        <ele>913.9</ele>
        <time>2021-08-11T11:28:48Z</time>
      </trkpt>
      <trkpt lat="44.24686" lon="3.65126">
        <ele>914.2</ele>
        <time>2021-08-11T11:28:50Z</time>
      </trkpt>
      <trkpt lat="44.24679" lon="3.65131">
        <ele>914.5</ele>
        <time>2021-08-11T11:28:52Z</time>
      </trkpt>
      <trkpt lat="44.24673" lon="3.65135">
        <ele>914.9</ele>
        <time>2021-08-11T11:28:54Z</time>
      </trkpt>
      <trkpt lat="44.24667" lon="3.6514">
        <ele>915.2</ele>
        <time>2021-08-11T11:28:56Z</time>
      </trkpt>
      <trkpt lat="44.24661" lon="3.65144">
        <ele>915</ele>
        <time>2021-08-11T11:28:58Z</time>
      </trkpt>
      <trkpt lat="44.24655" lon="3.65149">
        <ele>915</ele>
        <time>2021-08-11T11:29:00Z</time>
      </trkpt>
      <trkpt lat="44.24648" lon="3.65156">
        <ele>915.3</ele>
        <time>2021-08-11T11:29:02Z</time>
      </trkpt>
      <trkpt lat="44.24642" lon="3.65162">
        <ele>915.6</ele>
        <time>2021-08-11T11:29:04Z</time>
      </trkpt>
      <trkpt lat="44.24637" lon="3.65168">
        <ele>916.1</ele>
        <time>2021-08-11T11:29:06Z</time>
      </trkpt>
      <trkpt lat="44.24631" lon="3.65174">
        <ele>916.7</ele>
        <time>2021-08-11T11:29:08Z</time>
      </trkpt>
      <trkpt lat="44.24626" lon="3.6518">
        <ele>917.5</ele>
        <time>2021-08-11T11:29:10Z</time>
      </trkpt>
      <trkpt lat="44.24621" lon="3.65185">
        <ele>917.9</ele>
        <time>2021-08-11T11:29:12Z</time>
      </trkpt>
      <trkpt lat="44.24616" lon="3.6519">
        <ele>918.2</ele>
        <time>2021-08-11T11:29:14Z</time>
      </trkpt>
      <trkpt lat="44.24613" lon="3.65195">
        <ele>918.7</ele>
        <time>2021-08-11T11:29:16Z</time>
      </trkpt>
      <trkpt lat="44.24609" lon="3.652">
        <ele>919.2</ele>
        <time>2021-08-11T11:29:18Z</time>
      </trkpt>
      <trkpt lat="44.24606" lon="3.65203">
        <ele>919.4</ele>
        <time>2021-08-11T11:29:20Z</time>
      </trkpt>
      <trkpt lat="44.24604" lon="3.65207">
        <ele>919.6</ele>
        <time>2021-08-11T11:29:22Z</time>
      </trkpt>
      <trkpt lat="44.24602" lon="3.65209">
        <ele>920</ele>
        <time>2021-08-11T11:29:24Z</time>
      </trkpt>
      <trkpt lat="44.24601" lon="3.65213">
        <ele>920.5</ele>
        <time>2021-08-11T11:29:26Z</time>
      </trkpt>
      <trkpt lat="44.246" lon="3.65216">
        <ele>920.9</ele>
        <time>2021-08-11T11:29:28Z</time>
      </trkpt>
      <trkpt lat="44.24599" lon="3.6522">
        <ele>921.6</ele>
        <time>2021-08-11T11:29:30Z</time>
      </trkpt>
      <trkpt lat="44.246" lon="3.65223">
        <ele>922.3</ele>
        <time>2021-08-11T11:29:32Z</time>
      </trkpt>
      <trkpt lat="44.24599" lon="3.65223">
        <ele>922.3</ele>
        <time>2021-08-11T11:29:34Z</time>
      </trkpt>
      <trkpt lat="44.246" lon="3.65223">
        <ele>922.4</ele>
        <time>2021-08-11T11:29:36Z</time>
      </trkpt>
      <trkpt lat="44.246" lon="3.65223">
        <ele>922.3</ele>
        <time>2021-08-11T11:29:38Z</time>
      </trkpt>
      <trkpt lat="44.246" lon="3.65223">
        <ele>922.3</ele>
        <time>2021-08-11T11:29:40Z</time>
      </trkpt>
      <trkpt lat="44.246" lon="3.65219">
        <ele>921.5</ele>
        <time>2021-08-11T11:31:04Z</time>
      </trkpt>
      <trkpt lat="44.246" lon="3.65219">
        <ele>921.5</ele>
        <time>2021-08-11T11:31:06Z</time>
      </trkpt>
      <trkpt lat="44.246" lon="3.65218">
        <ele>921.5</ele>
        <time>2021-08-11T11:31:08Z</time>
      </trkpt>
      <trkpt lat="44.246" lon="3.65218">
        <ele>921.3</ele>
        <time>2021-08-11T11:31:10Z</time>
      </trkpt>
      <trkpt lat="44.246" lon="3.65218">
        <ele>921.3</ele>
        <time>2021-08-11T11:31:12Z</time>
      </trkpt>
      <trkpt lat="44.246" lon="3.65218">
        <ele>921.5</ele>
        <time>2021-08-11T11:31:14Z</time>
      </trkpt>
      <trkpt lat="44.246" lon="3.65221">
        <ele>921.9</ele>
        <time>2021-08-11T11:31:16Z</time>
      </trkpt>
      <trkpt lat="44.24597" lon="3.65224">
        <ele>921.9</ele>
        <time>2021-08-11T11:31:18Z</time>
      </trkpt>
      <trkpt lat="44.24593" lon="3.65228">
        <ele>921.9</ele>
        <time>2021-08-11T11:31:20Z</time>
      </trkpt>
      <trkpt lat="44.2459" lon="3.65232">
        <ele>922</ele>
        <time>2021-08-11T11:31:22Z</time>
      </trkpt>
      <trkpt lat="44.24589" lon="3.65233">
        <ele>922</ele>
        <time>2021-08-11T11:31:24Z</time>
      </trkpt>
      <trkpt lat="44.24589" lon="3.65233">
        <ele>922</ele>
        <time>2021-08-11T11:31:26Z</time>
      </trkpt>
      <trkpt lat="44.24589" lon="3.65233">
        <ele>921.9</ele>
        <time>2021-08-11T11:31:28Z</time>
      </trkpt>
      <trkpt lat="44.24588" lon="3.65233">
        <ele>921.9</ele>
        <time>2021-08-11T11:31:30Z</time>
      </trkpt>
      <trkpt lat="44.24588" lon="3.65233">
        <ele>921.8</ele>
        <time>2021-08-11T11:31:32Z</time>
      </trkpt>
      <trkpt lat="44.24571" lon="3.65249">
        <ele>921.5</ele>
        <time>2021-08-11T11:32:54Z</time>
      </trkpt>
      <trkpt lat="44.24567" lon="3.65255">
        <ele>922.3</ele>
        <time>2021-08-11T11:32:56Z</time>
      </trkpt>
      <trkpt lat="44.24563" lon="3.65261">
        <ele>922.9</ele>
        <time>2021-08-11T11:32:58Z</time>
      </trkpt>
      <trkpt lat="44.24558" lon="3.65268">
        <ele>923.5</ele>
        <time>2021-08-11T11:33:00Z</time>
      </trkpt>
      <trkpt lat="44.24554" lon="3.65273">
        <ele>923.9</ele>
        <time>2021-08-11T11:33:02Z</time>
      </trkpt>
      <trkpt lat="44.2455" lon="3.65279">
        <ele>924.3</ele>
        <time>2021-08-11T11:33:04Z</time>
      </trkpt>
      <trkpt lat="44.24547" lon="3.65283">
        <ele>924.6</ele>
        <time>2021-08-11T11:33:06Z</time>
      </trkpt>
      <trkpt lat="44.24543" lon="3.65287">
        <ele>924.7</ele>
        <time>2021-08-11T11:33:08Z</time>
      </trkpt>
      <trkpt lat="44.2454" lon="3.65292">
        <ele>925</ele>
        <time>2021-08-11T11:33:10Z</time>
      </trkpt>
      <trkpt lat="44.24537" lon="3.65297">
        <ele>925.3</ele>
        <time>2021-08-11T11:33:12Z</time>
      </trkpt>
      <trkpt lat="44.24534" lon="3.65301">
        <ele>925.5</ele>
        <time>2021-08-11T11:33:14Z</time>
      </trkpt>
      <trkpt lat="44.24531" lon="3.65306">
        <ele>925.8</ele>
        <time>2021-08-11T11:33:16Z</time>
      </trkpt>
      <trkpt lat="44.24528" lon="3.6531">
        <ele>926</ele>
        <time>2021-08-11T11:33:18Z</time>
      </trkpt>
      <trkpt lat="44.24525" lon="3.65315">
        <ele>926.1</ele>
        <time>2021-08-11T11:33:20Z</time>
      </trkpt>
      <trkpt lat="44.24522" lon="3.65319">
        <ele>926</ele>
        <time>2021-08-11T11:33:22Z</time>
      </trkpt>
      <trkpt lat="44.24518" lon="3.65324">
        <ele>926</ele>
        <time>2021-08-11T11:33:24Z</time>
      </trkpt>
      <trkpt lat="44.24514" lon="3.65328">
        <ele>925.6</ele>
        <time>2021-08-11T11:33:26Z</time>
      </trkpt>
      <trkpt lat="44.24511" lon="3.65331">
        <ele>925.5</ele>
        <time>2021-08-11T11:33:28Z</time>
      </trkpt>
      <trkpt lat="44.24507" lon="3.65335">
        <ele>925.4</ele>
        <time>2021-08-11T11:33:30Z</time>
      </trkpt>
      <trkpt lat="44.24503" lon="3.6534">
        <ele>925.3</ele>
        <time>2021-08-11T11:33:32Z</time>
      </trkpt>
      <trkpt lat="44.245" lon="3.65344">
        <ele>925.3</ele>
        <time>2021-08-11T11:33:34Z</time>
      </trkpt>
      <trkpt lat="44.24496" lon="3.65349">
        <ele>925.8</ele>
        <time>2021-08-11T11:33:36Z</time>
      </trkpt>
      <trkpt lat="44.24493" lon="3.65352">
        <ele>926.1</ele>
        <time>2021-08-11T11:33:38Z</time>
      </trkpt>
      <trkpt lat="44.2449" lon="3.65356">
        <ele>926.5</ele>
        <time>2021-08-11T11:33:40Z</time>
      </trkpt>
      <trkpt lat="44.24487" lon="3.6536">
        <ele>926.9</ele>
        <time>2021-08-11T11:33:42Z</time>
      </trkpt>
      <trkpt lat="44.24484" lon="3.65363">
        <ele>927.1</ele>
        <time>2021-08-11T11:33:44Z</time>
      </trkpt>
      <trkpt lat="44.24481" lon="3.65366">
        <ele>927.1</ele>
        <time>2021-08-11T11:33:46Z</time>
      </trkpt>
      <trkpt lat="44.24477" lon="3.6537">
        <ele>927.4</ele>
        <time>2021-08-11T11:33:48Z</time>
      </trkpt>
      <trkpt lat="44.24474" lon="3.65374">
        <ele>927.7</ele>
        <time>2021-08-11T11:33:50Z</time>
      </trkpt>
      <trkpt lat="44.24471" lon="3.65378">
        <ele>927.7</ele>
        <time>2021-08-11T11:33:52Z</time>
      </trkpt>
      <trkpt lat="44.24467" lon="3.65382">
        <ele>927.9</ele>
        <time>2021-08-11T11:33:54Z</time>
      </trkpt>
      <trkpt lat="44.24463" lon="3.65385">
        <ele>927.6</ele>
        <time>2021-08-11T11:33:56Z</time>
      </trkpt>
      <trkpt lat="44.24459" lon="3.65389">
        <ele>927.7</ele>
        <time>2021-08-11T11:33:58Z</time>
      </trkpt>
      <trkpt lat="44.24456" lon="3.65392">
        <ele>927.5</ele>
        <time>2021-08-11T11:34:00Z</time>
      </trkpt>
      <trkpt lat="44.24454" lon="3.65398">
        <ele>928</ele>
        <time>2021-08-11T11:34:02Z</time>
      </trkpt>
      <trkpt lat="44.2445" lon="3.65402">
        <ele>928</ele>
        <time>2021-08-11T11:34:04Z</time>
      </trkpt>
      <trkpt lat="44.24448" lon="3.65406">
        <ele>928.2</ele>
        <time>2021-08-11T11:34:06Z</time>
      </trkpt>
      <trkpt lat="44.24445" lon="3.6541">
        <ele>928.2</ele>
        <time>2021-08-11T11:34:08Z</time>
      </trkpt>
      <trkpt lat="44.24444" lon="3.65413">
        <ele>928.5</ele>
        <time>2021-08-11T11:34:10Z</time>
      </trkpt>
      <trkpt lat="44.24443" lon="3.65415">
        <ele>928.4</ele>
        <time>2021-08-11T11:34:12Z</time>
      </trkpt>
      <trkpt lat="44.24441" lon="3.65419">
        <ele>928.7</ele>
        <time>2021-08-11T11:34:14Z</time>
      </trkpt>
      <trkpt lat="44.24439" lon="3.65423">
        <ele>928.7</ele>
        <time>2021-08-11T11:34:16Z</time>
      </trkpt>
      <trkpt lat="44.24437" lon="3.65427">
        <ele>928.9</ele>
        <time>2021-08-11T11:34:18Z</time>
      </trkpt>
      <trkpt lat="44.24434" lon="3.65429">
        <ele>928.5</ele>
        <time>2021-08-11T11:34:20Z</time>
      </trkpt>
      <trkpt lat="44.24433" lon="3.65434">
        <ele>928.8</ele>
        <time>2021-08-11T11:34:22Z</time>
      </trkpt>
      <trkpt lat="44.2443" lon="3.65437">
        <ele>928.7</ele>
        <time>2021-08-11T11:34:24Z</time>
      </trkpt>
      <trkpt lat="44.24429" lon="3.65442">
        <ele>928.9</ele>
        <time>2021-08-11T11:34:26Z</time>
      </trkpt>
      <trkpt lat="44.24426" lon="3.65446">
        <ele>928.7</ele>
        <time>2021-08-11T11:34:28Z</time>
      </trkpt>
      <trkpt lat="44.24424" lon="3.6545">
        <ele>928.5</ele>
        <time>2021-08-11T11:34:30Z</time>
      </trkpt>
      <trkpt lat="44.24422" lon="3.65454">
        <ele>928.6</ele>
        <time>2021-08-11T11:34:32Z</time>
      </trkpt>
      <trkpt lat="44.2442" lon="3.65458">
        <ele>928.5</ele>
        <time>2021-08-11T11:34:34Z</time>
      </trkpt>
      <trkpt lat="44.24419" lon="3.65463">
        <ele>928.5</ele>
        <time>2021-08-11T11:34:36Z</time>
      </trkpt>
      <trkpt lat="44.24418" lon="3.65465">
        <ele>928.7</ele>
        <time>2021-08-11T11:34:38Z</time>
      </trkpt>
      <trkpt lat="44.24417" lon="3.65469">
        <ele>928.8</ele>
        <time>2021-08-11T11:34:40Z</time>
      </trkpt>
      <trkpt lat="44.24416" lon="3.65473">
        <ele>928.8</ele>
        <time>2021-08-11T11:34:42Z</time>
      </trkpt>
      <trkpt lat="44.24414" lon="3.65477">
        <ele>929</ele>
        <time>2021-08-11T11:34:44Z</time>
      </trkpt>
      <trkpt lat="44.24413" lon="3.6548">
        <ele>929</ele>
        <time>2021-08-11T11:34:46Z</time>
      </trkpt>
      <trkpt lat="44.24412" lon="3.65485">
        <ele>929.2</ele>
        <time>2021-08-11T11:34:48Z</time>
      </trkpt>
      <trkpt lat="44.2441" lon="3.6549">
        <ele>929.5</ele>
        <time>2021-08-11T11:34:50Z</time>
      </trkpt>
      <trkpt lat="44.24409" lon="3.65494">
        <ele>929.7</ele>
        <time>2021-08-11T11:34:52Z</time>
      </trkpt>
      <trkpt lat="44.24408" lon="3.65499">
        <ele>929.9</ele>
        <time>2021-08-11T11:34:54Z</time>
      </trkpt>
      <trkpt lat="44.24407" lon="3.65504">
        <ele>930.7</ele>
        <time>2021-08-11T11:34:56Z</time>
      </trkpt>
      <trkpt lat="44.24406" lon="3.65509">
        <ele>931.4</ele>
        <time>2021-08-11T11:34:58Z</time>
      </trkpt>
      <trkpt lat="44.24405" lon="3.65513">
        <ele>932</ele>
        <time>2021-08-11T11:35:00Z</time>
      </trkpt>
      <trkpt lat="44.24403" lon="3.65516">
        <ele>932</ele>
        <time>2021-08-11T11:35:02Z</time>
      </trkpt>
      <trkpt lat="44.24401" lon="3.65519">
        <ele>932.1</ele>
        <time>2021-08-11T11:35:04Z</time>
      </trkpt>
      <trkpt lat="44.24399" lon="3.65523">
        <ele>932.3</ele>
        <time>2021-08-11T11:35:06Z</time>
      </trkpt>
      <trkpt lat="44.24397" lon="3.65526">
        <ele>932.5</ele>
        <time>2021-08-11T11:35:08Z</time>
      </trkpt>
      <trkpt lat="44.24394" lon="3.65528">
        <ele>932.2</ele>
        <time>2021-08-11T11:35:10Z</time>
      </trkpt>
      <trkpt lat="44.24392" lon="3.65531">
        <ele>932.2</ele>
        <time>2021-08-11T11:35:12Z</time>
      </trkpt>
      <trkpt lat="44.24391" lon="3.65533">
        <ele>932.4</ele>
        <time>2021-08-11T11:35:14Z</time>
      </trkpt>
      <trkpt lat="44.24391" lon="3.65532">
        <ele>932.3</ele>
        <time>2021-08-11T11:35:16Z</time>
      </trkpt>
      <trkpt lat="44.24391" lon="3.65532">
        <ele>932.2</ele>
        <time>2021-08-11T11:35:18Z</time>
      </trkpt>
      <trkpt lat="44.24391" lon="3.65532">
        <ele>932.2</ele>
        <time>2021-08-11T11:35:20Z</time>
      </trkpt>
      <trkpt lat="44.24391" lon="3.65532">
        <ele>932.3</ele>
        <time>2021-08-11T11:35:22Z</time>
      </trkpt>
      <trkpt lat="44.24399" lon="3.65532">
        <ele>934.1</ele>
        <time>2021-08-11T11:37:52Z</time>
      </trkpt>
      <trkpt lat="44.244" lon="3.65528">
        <ele>933.4</ele>
        <time>2021-08-11T11:37:54Z</time>
      </trkpt>
      <trkpt lat="44.244" lon="3.65521">
        <ele>932.4</ele>
        <time>2021-08-11T11:37:56Z</time>
      </trkpt>
      <trkpt lat="44.24402" lon="3.65513">
        <ele>931.4</ele>
        <time>2021-08-11T11:37:58Z</time>
      </trkpt>
      <trkpt lat="44.24404" lon="3.65505">
        <ele>930.3</ele>
        <time>2021-08-11T11:38:00Z</time>
      </trkpt>
      <trkpt lat="44.24406" lon="3.65497">
        <ele>929.4</ele>
        <time>2021-08-11T11:38:02Z</time>
      </trkpt>
      <trkpt lat="44.24408" lon="3.6549">
        <ele>929</ele>
        <time>2021-08-11T11:38:04Z</time>
      </trkpt>
      <trkpt lat="44.2441" lon="3.65482">
        <ele>928.5</ele>
        <time>2021-08-11T11:38:06Z</time>
      </trkpt>
      <trkpt lat="44.24413" lon="3.65475">
        <ele>928.4</ele>
        <time>2021-08-11T11:38:08Z</time>
      </trkpt>
      <trkpt lat="44.24414" lon="3.65468">
        <ele>928</ele>
        <time>2021-08-11T11:38:10Z</time>
      </trkpt>
      <trkpt lat="44.24417" lon="3.65462">
        <ele>927.9</ele>
        <time>2021-08-11T11:38:12Z</time>
      </trkpt>
      <trkpt lat="44.24419" lon="3.65457">
        <ele>927.9</ele>
        <time>2021-08-11T11:38:14Z</time>
      </trkpt>
      <trkpt lat="44.2442" lon="3.65451">
        <ele>927.7</ele>
        <time>2021-08-11T11:38:16Z</time>
      </trkpt>
      <trkpt lat="44.24423" lon="3.65446">
        <ele>927.8</ele>
        <time>2021-08-11T11:38:18Z</time>
      </trkpt>
      <trkpt lat="44.24426" lon="3.6544">
        <ele>927.9</ele>
        <time>2021-08-11T11:38:20Z</time>
      </trkpt>
      <trkpt lat="44.24427" lon="3.65434">
        <ele>927.4</ele>
        <time>2021-08-11T11:38:22Z</time>
      </trkpt>
      <trkpt lat="44.24423" lon="3.65429">
        <ele>925.8</ele>
        <time>2021-08-11T11:38:24Z</time>
      </trkpt>
      <trkpt lat="44.24421" lon="3.65424">
        <ele>924.7</ele>
        <time>2021-08-11T11:38:26Z</time>
      </trkpt>
      <trkpt lat="44.24419" lon="3.65421">
        <ele>924.1</ele>
        <time>2021-08-11T11:38:28Z</time>
      </trkpt>
      <trkpt lat="44.24417" lon="3.65418">
        <ele>923.2</ele>
        <time>2021-08-11T11:38:30Z</time>
      </trkpt>
      <trkpt lat="44.24417" lon="3.65413">
        <ele>922.6</ele>
        <time>2021-08-11T11:38:32Z</time>
      </trkpt>
      <trkpt lat="44.24416" lon="3.65408">
        <ele>921.9</ele>
        <time>2021-08-11T11:38:34Z</time>
      </trkpt>
      <trkpt lat="44.24415" lon="3.65403">
        <ele>921.1</ele>
        <time>2021-08-11T11:38:36Z</time>
      </trkpt>
      <trkpt lat="44.24415" lon="3.65399">
        <ele>920.6</ele>
        <time>2021-08-11T11:38:38Z</time>
      </trkpt>
      <trkpt lat="44.24413" lon="3.65394">
        <ele>919.6</ele>
        <time>2021-08-11T11:38:40Z</time>
      </trkpt>
      <trkpt lat="44.24412" lon="3.65389">
        <ele>918.7</ele>
        <time>2021-08-11T11:38:42Z</time>
      </trkpt>
      <trkpt lat="44.24411" lon="3.65384">
        <ele>918.1</ele>
        <time>2021-08-11T11:38:44Z</time>
      </trkpt>
      <trkpt lat="44.24413" lon="3.65379">
        <ele>918.2</ele>
        <time>2021-08-11T11:38:46Z</time>
      </trkpt>
      <trkpt lat="44.24419" lon="3.65377">
        <ele>919.1</ele>
        <time>2021-08-11T11:38:48Z</time>
      </trkpt>
      <trkpt lat="44.24422" lon="3.65376">
        <ele>919.5</ele>
        <time>2021-08-11T11:38:50Z</time>
      </trkpt>
      <trkpt lat="44.24424" lon="3.65377">
        <ele>920</ele>
        <time>2021-08-11T11:38:52Z</time>
      </trkpt>
      <trkpt lat="44.24427" lon="3.65379">
        <ele>920.7</ele>
        <time>2021-08-11T11:38:54Z</time>
      </trkpt>
      <trkpt lat="44.2443" lon="3.65383">
        <ele>921.6</ele>
        <time>2021-08-11T11:38:56Z</time>
      </trkpt>
      <trkpt lat="44.24431" lon="3.65387">
        <ele>922.2</ele>
        <time>2021-08-11T11:38:58Z</time>
      </trkpt>
      <trkpt lat="44.2443" lon="3.65389">
        <ele>922.4</ele>
        <time>2021-08-11T11:39:00Z</time>
      </trkpt>
      <trkpt lat="44.2443" lon="3.65389">
        <ele>922.4</ele>
        <time>2021-08-11T11:39:02Z</time>
      </trkpt>
      <trkpt lat="44.2443" lon="3.65388">
        <ele>922.4</ele>
        <time>2021-08-11T11:39:04Z</time>
      </trkpt>
      <trkpt lat="44.2443" lon="3.65389">
        <ele>922.4</ele>
        <time>2021-08-11T11:39:06Z</time>
      </trkpt>
      <trkpt lat="44.2443" lon="3.65388">
        <ele>922.4</ele>
        <time>2021-08-11T11:39:08Z</time>
      </trkpt>
      <trkpt lat="44.24415" lon="3.65368">
        <ele>917.4</ele>
        <time>2021-08-11T15:03:31Z</time>
      </trkpt>
      <trkpt lat="44.24414" lon="3.65371">
        <ele>917.3</ele>
        <time>2021-08-11T15:03:33Z</time>
      </trkpt>
      <trkpt lat="44.24412" lon="3.65374">
        <ele>917.2</ele>
        <time>2021-08-11T15:03:35Z</time>
      </trkpt>
      <trkpt lat="44.24411" lon="3.65377">
        <ele>917.4</ele>
        <time>2021-08-11T15:03:37Z</time>
      </trkpt>
      <trkpt lat="44.24411" lon="3.65381">
        <ele>917.8</ele>
        <time>2021-08-11T15:03:39Z</time>
      </trkpt>
      <trkpt lat="44.24412" lon="3.65384">
        <ele>918.2</ele>
        <time>2021-08-11T15:03:41Z</time>
      </trkpt>
      <trkpt lat="44.24413" lon="3.65386">
        <ele>918.7</ele>
        <time>2021-08-11T15:03:43Z</time>
      </trkpt>
      <trkpt lat="44.24414" lon="3.6539">
        <ele>919.4</ele>
        <time>2021-08-11T15:03:45Z</time>
      </trkpt>
      <trkpt lat="44.24415" lon="3.65393">
        <ele>919.9</ele>
        <time>2021-08-11T15:03:47Z</time>
      </trkpt>
      <trkpt lat="44.24415" lon="3.65397">
        <ele>920.4</ele>
        <time>2021-08-11T15:03:49Z</time>
      </trkpt>
      <trkpt lat="44.24417" lon="3.654">
        <ele>921.3</ele>
        <time>2021-08-11T15:03:51Z</time>
      </trkpt>
      <trkpt lat="44.24418" lon="3.65402">
        <ele>921.8</ele>
        <time>2021-08-11T15:03:53Z</time>
      </trkpt>
      <trkpt lat="44.24417" lon="3.65405">
        <ele>921.7</ele>
        <time>2021-08-11T15:03:55Z</time>
      </trkpt>
      <trkpt lat="44.24416" lon="3.65406">
        <ele>921.8</ele>
        <time>2021-08-11T15:03:57Z</time>
      </trkpt>
      <trkpt lat="44.24417" lon="3.65408">
        <ele>922.1</ele>
        <time>2021-08-11T15:03:59Z</time>
      </trkpt>
      <trkpt lat="44.24418" lon="3.65411">
        <ele>922.6</ele>
        <time>2021-08-11T15:04:01Z</time>
      </trkpt>
      <trkpt lat="44.24418" lon="3.65413">
        <ele>922.9</ele>
        <time>2021-08-11T15:04:03Z</time>
      </trkpt>
      <trkpt lat="44.24418" lon="3.65416">
        <ele>923.2</ele>
        <time>2021-08-11T15:04:05Z</time>
      </trkpt>
      <trkpt lat="44.24418" lon="3.65419">
        <ele>923.4</ele>
        <time>2021-08-11T15:04:07Z</time>
      </trkpt>
      <trkpt lat="44.24413" lon="3.65419">
        <ele>922.2</ele>
        <time>2021-08-11T15:04:31Z</time>
      </trkpt>
      <trkpt lat="44.24415" lon="3.65415">
        <ele>922.4</ele>
        <time>2021-08-11T15:04:33Z</time>
      </trkpt>
      <trkpt lat="44.24417" lon="3.65413">
        <ele>922.6</ele>
        <time>2021-08-11T15:04:35Z</time>
      </trkpt>
      <trkpt lat="44.24419" lon="3.65409">
        <ele>922.6</ele>
        <time>2021-08-11T15:04:37Z</time>
      </trkpt>
      <trkpt lat="44.24422" lon="3.65411">
        <ele>923.5</ele>
        <time>2021-08-11T15:04:39Z</time>
      </trkpt>
      <trkpt lat="44.24423" lon="3.65416">
        <ele>924.2</ele>
        <time>2021-08-11T15:04:41Z</time>
      </trkpt>
      <trkpt lat="44.24423" lon="3.65421">
        <ele>925</ele>
        <time>2021-08-11T15:04:43Z</time>
      </trkpt>
      <trkpt lat="44.24424" lon="3.65424">
        <ele>925.5</ele>
        <time>2021-08-11T15:04:45Z</time>
      </trkpt>
      <trkpt lat="44.24426" lon="3.65428">
        <ele>926.3</ele>
        <time>2021-08-11T15:04:47Z</time>
      </trkpt>
      <trkpt lat="44.24427" lon="3.65431">
        <ele>927.1</ele>
        <time>2021-08-11T15:04:49Z</time>
      </trkpt>
      <trkpt lat="44.24426" lon="3.65434">
        <ele>927.2</ele>
        <time>2021-08-11T15:04:51Z</time>
      </trkpt>
      <trkpt lat="44.24424" lon="3.65438">
        <ele>927.2</ele>
        <time>2021-08-11T15:04:53Z</time>
      </trkpt>
      <trkpt lat="44.24421" lon="3.65443">
        <ele>927</ele>
        <time>2021-08-11T15:04:55Z</time>
      </trkpt>
      <trkpt lat="44.2442" lon="3.65445">
        <ele>927.1</ele>
        <time>2021-08-11T15:04:57Z</time>
      </trkpt>
      <trkpt lat="44.24419" lon="3.65449">
        <ele>927.1</ele>
        <time>2021-08-11T15:04:59Z</time>
      </trkpt>
      <trkpt lat="44.24418" lon="3.65453">
        <ele>927.3</ele>
        <time>2021-08-11T15:05:01Z</time>
      </trkpt>
      <trkpt lat="44.24418" lon="3.65457">
        <ele>927.6</ele>
        <time>2021-08-11T15:05:03Z</time>
      </trkpt>
      <trkpt lat="44.24416" lon="3.65461">
        <ele>927.7</ele>
        <time>2021-08-11T15:05:05Z</time>
      </trkpt>
      <trkpt lat="44.24416" lon="3.65466">
        <ele>928</ele>
        <time>2021-08-11T15:05:07Z</time>
      </trkpt>
      <trkpt lat="44.24414" lon="3.65471">
        <ele>928.3</ele>
        <time>2021-08-11T15:05:09Z</time>
      </trkpt>
      <trkpt lat="44.24412" lon="3.65477">
        <ele>928.4</ele>
        <time>2021-08-11T15:05:11Z</time>
      </trkpt>
      <trkpt lat="44.24411" lon="3.6548">
        <ele>928.5</ele>
        <time>2021-08-11T15:05:13Z</time>
      </trkpt>
      <trkpt lat="44.24409" lon="3.65486">
        <ele>928.8</ele>
        <time>2021-08-11T15:05:15Z</time>
      </trkpt>
      <trkpt lat="44.24406" lon="3.65491">
        <ele>928.7</ele>
        <time>2021-08-11T15:05:17Z</time>
      </trkpt>
      <trkpt lat="44.24406" lon="3.65497">
        <ele>929.3</ele>
        <time>2021-08-11T15:05:19Z</time>
      </trkpt>
      <trkpt lat="44.24405" lon="3.65503">
        <ele>930.1</ele>
        <time>2021-08-11T15:05:21Z</time>
      </trkpt>
      <trkpt lat="44.24403" lon="3.65509">
        <ele>930.7</ele>
        <time>2021-08-11T15:05:23Z</time>
      </trkpt>
      <trkpt lat="44.244" lon="3.65512">
        <ele>930.7</ele>
        <time>2021-08-11T15:05:25Z</time>
      </trkpt>
      <trkpt lat="44.24399" lon="3.65514">
        <ele>930.8</ele>
        <time>2021-08-11T15:05:27Z</time>
      </trkpt>
      <trkpt lat="44.24397" lon="3.65517">
        <ele>930.8</ele>
        <time>2021-08-11T15:05:29Z</time>
      </trkpt>
      <trkpt lat="44.24396" lon="3.65518">
        <ele>930.8</ele>
        <time>2021-08-11T15:05:31Z</time>
      </trkpt>
      <trkpt lat="44.24393" lon="3.65522">
        <ele>931</ele>
        <time>2021-08-11T15:05:33Z</time>
      </trkpt>
      <trkpt lat="44.2439" lon="3.65523">
        <ele>930.3</ele>
        <time>2021-08-11T15:05:35Z</time>
      </trkpt>
      <trkpt lat="44.2439" lon="3.65523">
        <ele>930.3</ele>
        <time>2021-08-11T15:05:37Z</time>
      </trkpt>
      <trkpt lat="44.2439" lon="3.65523">
        <ele>930.4</ele>
        <time>2021-08-11T15:05:39Z</time>
      </trkpt>
      <trkpt lat="44.2439" lon="3.65523">
        <ele>930.4</ele>
        <time>2021-08-11T15:05:41Z</time>
      </trkpt>
      <trkpt lat="44.2439" lon="3.65523">
        <ele>930.5</ele>
        <time>2021-08-11T15:05:43Z</time>
      </trkpt>
      <trkpt lat="44.2439" lon="3.65523">
        <ele>930.5</ele>
        <time>2021-08-11T15:05:45Z</time>
      </trkpt>
      <trkpt lat="44.24373" lon="3.65539">
        <ele>929.2</ele>
        <time>2021-08-11T15:16:43Z</time>
      </trkpt>
      <trkpt lat="44.24368" lon="3.65544">
        <ele>929</ele>
        <time>2021-08-11T15:16:45Z</time>
      </trkpt>
      <trkpt lat="44.24361" lon="3.6555">
        <ele>928.4</ele>
        <time>2021-08-11T15:16:47Z</time>
      </trkpt>
      <trkpt lat="44.24354" lon="3.65555">
        <ele>927.5</ele>
        <time>2021-08-11T15:16:49Z</time>
      </trkpt>
      <trkpt lat="44.24346" lon="3.65562">
        <ele>926.8</ele>
        <time>2021-08-11T15:16:51Z</time>
      </trkpt>
      <trkpt lat="44.24338" lon="3.65569">
        <ele>925.9</ele>
        <time>2021-08-11T15:16:53Z</time>
      </trkpt>
      <trkpt lat="44.24329" lon="3.65577">
        <ele>925.5</ele>
        <time>2021-08-11T15:16:55Z</time>
      </trkpt>
      <trkpt lat="44.2432" lon="3.65585">
        <ele>926</ele>
        <time>2021-08-11T15:16:57Z</time>
      </trkpt>
      <trkpt lat="44.24311" lon="3.65594">
        <ele>926.6</ele>
        <time>2021-08-11T15:16:59Z</time>
      </trkpt>
      <trkpt lat="44.24301" lon="3.65602">
        <ele>927</ele>
        <time>2021-08-11T15:17:01Z</time>
      </trkpt>
      <trkpt lat="44.2429" lon="3.65611">
        <ele>927.5</ele>
        <time>2021-08-11T15:17:03Z</time>
      </trkpt>
      <trkpt lat="44.24279" lon="3.6562">
        <ele>927.9</ele>
        <time>2021-08-11T15:17:05Z</time>
      </trkpt>
      <trkpt lat="44.24267" lon="3.65626">
        <ele>927.6</ele>
        <time>2021-08-11T15:17:07Z</time>
      </trkpt>
      <trkpt lat="44.24254" lon="3.65631">
        <ele>927.1</ele>
        <time>2021-08-11T15:17:09Z</time>
      </trkpt>
      <trkpt lat="44.24243" lon="3.65633">
        <ele>927.2</ele>
        <time>2021-08-11T15:17:11Z</time>
      </trkpt>
      <trkpt lat="44.24232" lon="3.65631">
        <ele>927</ele>
        <time>2021-08-11T15:17:13Z</time>
      </trkpt>
      <trkpt lat="44.24221" lon="3.65619">
        <ele>925.7</ele>
        <time>2021-08-11T15:17:15Z</time>
      </trkpt>
      <trkpt lat="44.24218" lon="3.656">
        <ele>923.1</ele>
        <time>2021-08-11T15:17:17Z</time>
      </trkpt>
      <trkpt lat="44.24218" lon="3.65582">
        <ele>920.5</ele>
        <time>2021-08-11T15:17:19Z</time>
      </trkpt>
      <trkpt lat="44.24216" lon="3.65563">
        <ele>918</ele>
        <time>2021-08-11T15:17:21Z</time>
      </trkpt>
      <trkpt lat="44.24214" lon="3.65544">
        <ele>915.5</ele>
        <time>2021-08-11T15:17:23Z</time>
      </trkpt>
      <trkpt lat="44.24212" lon="3.65524">
        <ele>913</ele>
        <time>2021-08-11T15:17:25Z</time>
      </trkpt>
      <trkpt lat="44.2421" lon="3.65504">
        <ele>910.4</ele>
        <time>2021-08-11T15:17:27Z</time>
      </trkpt>
      <trkpt lat="44.24207" lon="3.65483">
        <ele>907.7</ele>
        <time>2021-08-11T15:17:29Z</time>
      </trkpt>
      <trkpt lat="44.24205" lon="3.65462">
        <ele>904.9</ele>
        <time>2021-08-11T15:17:31Z</time>
      </trkpt>
      <trkpt lat="44.24203" lon="3.65441">
        <ele>902.2</ele>
        <time>2021-08-11T15:17:33Z</time>
      </trkpt>
      <trkpt lat="44.24201" lon="3.65423">
        <ele>899.8</ele>
        <time>2021-08-11T15:17:35Z</time>
      </trkpt>
      <trkpt lat="44.24199" lon="3.65408">
        <ele>897.8</ele>
        <time>2021-08-11T15:17:37Z</time>
      </trkpt>
      <trkpt lat="44.24198" lon="3.65393">
        <ele>895.7</ele>
        <time>2021-08-11T15:17:39Z</time>
      </trkpt>
      <trkpt lat="44.24195" lon="3.65378">
        <ele>893.8</ele>
        <time>2021-08-11T15:17:41Z</time>
      </trkpt>
      <trkpt lat="44.24189" lon="3.65366">
        <ele>892.8</ele>
        <time>2021-08-11T15:17:43Z</time>
      </trkpt>
      <trkpt lat="44.24179" lon="3.6536">
        <ele>893</ele>
        <time>2021-08-11T15:17:45Z</time>
      </trkpt>
      <trkpt lat="44.24168" lon="3.65362">
        <ele>894.9</ele>
        <time>2021-08-11T15:17:47Z</time>
      </trkpt>
      <trkpt lat="44.24159" lon="3.65375">
        <ele>896</ele>
        <time>2021-08-11T15:17:49Z</time>
      </trkpt>
      <trkpt lat="44.24153" lon="3.65392">
        <ele>897.9</ele>
        <time>2021-08-11T15:17:51Z</time>
      </trkpt>
      <trkpt lat="44.24145" lon="3.65409">
        <ele>899.7</ele>
        <time>2021-08-11T15:17:53Z</time>
      </trkpt>
      <trkpt lat="44.24136" lon="3.65426">
        <ele>901.6</ele>
        <time>2021-08-11T15:17:55Z</time>
      </trkpt>
      <trkpt lat="44.24128" lon="3.65444">
        <ele>904</ele>
        <time>2021-08-11T15:17:57Z</time>
      </trkpt>
      <trkpt lat="44.24116" lon="3.65459">
        <ele>905.7</ele>
        <time>2021-08-11T15:17:59Z</time>
      </trkpt>
      <trkpt lat="44.24101" lon="3.65463">
        <ele>905.5</ele>
        <time>2021-08-11T15:18:01Z</time>
      </trkpt>
      <trkpt lat="44.24086" lon="3.65455">
        <ele>903.1</ele>
        <time>2021-08-11T15:18:03Z</time>
      </trkpt>
      <trkpt lat="44.24078" lon="3.65443">
        <ele>900.1</ele>
        <time>2021-08-11T15:18:05Z</time>
      </trkpt>
      <trkpt lat="44.24074" lon="3.65431">
        <ele>897.5</ele>
        <time>2021-08-11T15:18:07Z</time>
      </trkpt>
      <trkpt lat="44.24067" lon="3.65418">
        <ele>894.4</ele>
        <time>2021-08-11T15:18:09Z</time>
      </trkpt>
      <trkpt lat="44.2406" lon="3.65403">
        <ele>890.8</ele>
        <time>2021-08-11T15:18:11Z</time>
      </trkpt>
      <trkpt lat="44.24052" lon="3.65388">
        <ele>887.1</ele>
        <time>2021-08-11T15:18:13Z</time>
      </trkpt>
      <trkpt lat="44.24045" lon="3.65373">
        <ele>883.6</ele>
        <time>2021-08-11T15:18:15Z</time>
      </trkpt>
      <trkpt lat="44.24038" lon="3.65362">
        <ele>880.8</ele>
        <time>2021-08-11T15:18:17Z</time>
      </trkpt>
      <trkpt lat="44.2403" lon="3.65355">
        <ele>878.5</ele>
        <time>2021-08-11T15:18:19Z</time>
      </trkpt>
      <trkpt lat="44.24019" lon="3.65353">
        <ele>877.1</ele>
        <time>2021-08-11T15:18:21Z</time>
      </trkpt>
      <trkpt lat="44.24008" lon="3.65358">
        <ele>877.2</ele>
        <time>2021-08-11T15:18:23Z</time>
      </trkpt>
      <trkpt lat="44.23999" lon="3.65368">
        <ele>878.6</ele>
        <time>2021-08-11T15:18:25Z</time>
      </trkpt>
      <trkpt lat="44.23993" lon="3.65382">
        <ele>880</ele>
        <time>2021-08-11T15:18:27Z</time>
      </trkpt>
      <trkpt lat="44.23988" lon="3.65398">
        <ele>882.3</ele>
        <time>2021-08-11T15:18:29Z</time>
      </trkpt>
      <trkpt lat="44.23982" lon="3.65414">
        <ele>884.8</ele>
        <time>2021-08-11T15:18:31Z</time>
      </trkpt>
      <trkpt lat="44.23974" lon="3.65429">
        <ele>887.4</ele>
        <time>2021-08-11T15:18:33Z</time>
      </trkpt>
      <trkpt lat="44.23965" lon="3.65443">
        <ele>889.6</ele>
        <time>2021-08-11T15:18:35Z</time>
      </trkpt>
      <trkpt lat="44.23956" lon="3.65455">
        <ele>891.5</ele>
        <time>2021-08-11T15:18:37Z</time>
      </trkpt>
      <trkpt lat="44.23943" lon="3.65458">
        <ele>889.9</ele>
        <time>2021-08-11T15:18:39Z</time>
      </trkpt>
      <trkpt lat="44.23931" lon="3.65452">
        <ele>884.8</ele>
        <time>2021-08-11T15:18:41Z</time>
      </trkpt>
      <trkpt lat="44.23921" lon="3.65441">
        <ele>878.9</ele>
        <time>2021-08-11T15:18:43Z</time>
      </trkpt>
      <trkpt lat="44.23908" lon="3.65438">
        <ele>877.2</ele>
        <time>2021-08-11T15:18:45Z</time>
      </trkpt>
      <trkpt lat="44.23895" lon="3.65439">
        <ele>878.2</ele>
        <time>2021-08-11T15:18:47Z</time>
      </trkpt>
      <trkpt lat="44.23882" lon="3.65443">
        <ele>880.3</ele>
        <time>2021-08-11T15:18:49Z</time>
      </trkpt>
      <trkpt lat="44.2387" lon="3.65451">
        <ele>883.9</ele>
        <time>2021-08-11T15:18:51Z</time>
      </trkpt>
      <trkpt lat="44.23858" lon="3.65459">
        <ele>887.2</ele>
        <time>2021-08-11T15:18:53Z</time>
      </trkpt>
      <trkpt lat="44.23845" lon="3.65457">
        <ele>887</ele>
        <time>2021-08-11T15:18:55Z</time>
      </trkpt>
      <trkpt lat="44.23836" lon="3.65443">
        <ele>882.7</ele>
        <time>2021-08-11T15:18:57Z</time>
      </trkpt>
      <trkpt lat="44.23828" lon="3.65428">
        <ele>877.9</ele>
        <time>2021-08-11T15:18:59Z</time>
      </trkpt>
      <trkpt lat="44.23818" lon="3.65412">
        <ele>872.7</ele>
        <time>2021-08-11T15:19:01Z</time>
      </trkpt>
      <trkpt lat="44.2381" lon="3.65397">
        <ele>867.2</ele>
        <time>2021-08-11T15:19:03Z</time>
      </trkpt>
      <trkpt lat="44.23804" lon="3.65385">
        <ele>862.2</ele>
        <time>2021-08-11T15:19:05Z</time>
      </trkpt>
      <trkpt lat="44.23796" lon="3.65374">
        <ele>858.1</ele>
        <time>2021-08-11T15:19:07Z</time>
      </trkpt>
      <trkpt lat="44.23788" lon="3.65367">
        <ele>855.9</ele>
        <time>2021-08-11T15:19:09Z</time>
      </trkpt>
      <trkpt lat="44.23778" lon="3.65366">
        <ele>856.2</ele>
        <time>2021-08-11T15:19:11Z</time>
      </trkpt>
      <trkpt lat="44.23767" lon="3.6537">
        <ele>858.5</ele>
        <time>2021-08-11T15:19:13Z</time>
      </trkpt>
      <trkpt lat="44.23755" lon="3.65376">
        <ele>861.6</ele>
        <time>2021-08-11T15:19:15Z</time>
      </trkpt>
      <trkpt lat="44.23744" lon="3.65385">
        <ele>864</ele>
        <time>2021-08-11T15:19:17Z</time>
      </trkpt>
      <trkpt lat="44.23733" lon="3.65396">
        <ele>865.3</ele>
        <time>2021-08-11T15:19:19Z</time>
      </trkpt>
      <trkpt lat="44.23722" lon="3.65405">
        <ele>865.8</ele>
        <time>2021-08-11T15:19:21Z</time>
      </trkpt>
      <trkpt lat="44.23708" lon="3.65407">
        <ele>862.9</ele>
        <time>2021-08-11T15:19:23Z</time>
      </trkpt>
      <trkpt lat="44.23695" lon="3.65407">
        <ele>859.4</ele>
        <time>2021-08-11T15:19:25Z</time>
      </trkpt>
      <trkpt lat="44.23683" lon="3.65413">
        <ele>858.2</ele>
        <time>2021-08-11T15:19:27Z</time>
      </trkpt>
      <trkpt lat="44.23671" lon="3.65423">
        <ele>858.5</ele>
        <time>2021-08-11T15:19:29Z</time>
      </trkpt>
      <trkpt lat="44.2366" lon="3.65434">
        <ele>858.6</ele>
        <time>2021-08-11T15:19:31Z</time>
      </trkpt>
      <trkpt lat="44.23652" lon="3.65446">
        <ele>859.4</ele>
        <time>2021-08-11T15:19:33Z</time>
      </trkpt>
      <trkpt lat="44.23644" lon="3.6546">
        <ele>861.5</ele>
        <time>2021-08-11T15:19:35Z</time>
      </trkpt>
      <trkpt lat="44.23637" lon="3.65476">
        <ele>864.4</ele>
        <time>2021-08-11T15:19:37Z</time>
      </trkpt>
      <trkpt lat="44.2363" lon="3.65493">
        <ele>867.9</ele>
        <time>2021-08-11T15:19:39Z</time>
      </trkpt>
      <trkpt lat="44.23622" lon="3.6551">
        <ele>870.5</ele>
        <time>2021-08-11T15:19:41Z</time>
      </trkpt>
      <trkpt lat="44.23612" lon="3.6552">
        <ele>870.1</ele>
        <time>2021-08-11T15:19:43Z</time>
      </trkpt>
      <trkpt lat="44.23598" lon="3.65522">
        <ele>866</ele>
        <time>2021-08-11T15:19:45Z</time>
      </trkpt>
      <trkpt lat="44.23585" lon="3.65515">
        <ele>859.5</ele>
        <time>2021-08-11T15:19:47Z</time>
      </trkpt>
      <trkpt lat="44.23573" lon="3.65508">
        <ele>854.6</ele>
        <time>2021-08-11T15:19:49Z</time>
      </trkpt>
      <trkpt lat="44.23561" lon="3.65507">
        <ele>851.7</ele>
        <time>2021-08-11T15:19:51Z</time>
      </trkpt>
      <trkpt lat="44.23548" lon="3.65514">
        <ele>851.1</ele>
        <time>2021-08-11T15:19:53Z</time>
      </trkpt>
      <trkpt lat="44.23535" lon="3.65524">
        <ele>851.7</ele>
        <time>2021-08-11T15:19:55Z</time>
      </trkpt>
      <trkpt lat="44.23521" lon="3.65535">
        <ele>852.1</ele>
        <time>2021-08-11T15:19:57Z</time>
      </trkpt>
      <trkpt lat="44.23509" lon="3.65544">
        <ele>852.2</ele>
        <time>2021-08-11T15:19:59Z</time>
      </trkpt>
      <trkpt lat="44.235" lon="3.6556">
        <ele>854.9</ele>
        <time>2021-08-11T15:20:01Z</time>
      </trkpt>
      <trkpt lat="44.23494" lon="3.65576">
        <ele>858.3</ele>
        <time>2021-08-11T15:20:03Z</time>
      </trkpt>
      <trkpt lat="44.23482" lon="3.65585">
        <ele>858</ele>
        <time>2021-08-11T15:20:05Z</time>
      </trkpt>
      <trkpt lat="44.23466" lon="3.65587">
        <ele>854.5</ele>
        <time>2021-08-11T15:20:07Z</time>
      </trkpt>
      <trkpt lat="44.23449" lon="3.65589">
        <ele>850.7</ele>
        <time>2021-08-11T15:20:09Z</time>
      </trkpt>
      <trkpt lat="44.23432" lon="3.65592">
        <ele>847.3</ele>
        <time>2021-08-11T15:20:11Z</time>
      </trkpt>
      <trkpt lat="44.23418" lon="3.65595">
        <ele>844.3</ele>
        <time>2021-08-11T15:20:13Z</time>
      </trkpt>
      <trkpt lat="44.23403" lon="3.65605">
        <ele>843.5</ele>
        <time>2021-08-11T15:20:15Z</time>
      </trkpt>
      <trkpt lat="44.23391" lon="3.65621">
        <ele>844.8</ele>
        <time>2021-08-11T15:20:17Z</time>
      </trkpt>
      <trkpt lat="44.23379" lon="3.65638">
        <ele>845.9</ele>
        <time>2021-08-11T15:20:19Z</time>
      </trkpt>
      <trkpt lat="44.23367" lon="3.65656">
        <ele>847.3</ele>
        <time>2021-08-11T15:20:21Z</time>
      </trkpt>
      <trkpt lat="44.23355" lon="3.65672">
        <ele>848.5</ele>
        <time>2021-08-11T15:20:23Z</time>
      </trkpt>
      <trkpt lat="44.23342" lon="3.65686">
        <ele>848.5</ele>
        <time>2021-08-11T15:20:25Z</time>
      </trkpt>
      <trkpt lat="44.23327" lon="3.65698">
        <ele>847.9</ele>
        <time>2021-08-11T15:20:27Z</time>
      </trkpt>
      <trkpt lat="44.23313" lon="3.65707">
        <ele>847.1</ele>
        <time>2021-08-11T15:20:29Z</time>
      </trkpt>
      <trkpt lat="44.23299" lon="3.65717">
        <ele>846.7</ele>
        <time>2021-08-11T15:20:31Z</time>
      </trkpt>
      <trkpt lat="44.23283" lon="3.65725">
        <ele>845</ele>
        <time>2021-08-11T15:20:33Z</time>
      </trkpt>
      <trkpt lat="44.23267" lon="3.65731">
        <ele>842.9</ele>
        <time>2021-08-11T15:20:35Z</time>
      </trkpt>
      <trkpt lat="44.2325" lon="3.65734">
        <ele>840.1</ele>
        <time>2021-08-11T15:20:37Z</time>
      </trkpt>
      <trkpt lat="44.23234" lon="3.65736">
        <ele>835.8</ele>
        <time>2021-08-11T15:20:39Z</time>
      </trkpt>
      <trkpt lat="44.23219" lon="3.65739">
        <ele>832.3</ele>
        <time>2021-08-11T15:20:41Z</time>
      </trkpt>
      <trkpt lat="44.23205" lon="3.65745">
        <ele>829.9</ele>
        <time>2021-08-11T15:20:43Z</time>
      </trkpt>
      <trkpt lat="44.23192" lon="3.65753">
        <ele>828.3</ele>
        <time>2021-08-11T15:20:45Z</time>
      </trkpt>
      <trkpt lat="44.23179" lon="3.65761">
        <ele>826.8</ele>
        <time>2021-08-11T15:20:47Z</time>
      </trkpt>
      <trkpt lat="44.23167" lon="3.65768">
        <ele>825.2</ele>
        <time>2021-08-11T15:20:49Z</time>
      </trkpt>
      <trkpt lat="44.23156" lon="3.65776">
        <ele>824.2</ele>
        <time>2021-08-11T15:20:51Z</time>
      </trkpt>
      <trkpt lat="44.23146" lon="3.65782">
        <ele>823</ele>
        <time>2021-08-11T15:20:53Z</time>
      </trkpt>
      <trkpt lat="44.23137" lon="3.65786">
        <ele>821.3</ele>
        <time>2021-08-11T15:20:55Z</time>
      </trkpt>
      <trkpt lat="44.23129" lon="3.65787">
        <ele>819.6</ele>
        <time>2021-08-11T15:20:57Z</time>
      </trkpt>
      <trkpt lat="44.23123" lon="3.65788">
        <ele>817.9</ele>
        <time>2021-08-11T15:20:59Z</time>
      </trkpt>
      <trkpt lat="44.23119" lon="3.65788">
        <ele>816.8</ele>
        <time>2021-08-11T15:21:01Z</time>
      </trkpt>
      <trkpt lat="44.23116" lon="3.65789">
        <ele>816.1</ele>
        <time>2021-08-11T15:21:03Z</time>
      </trkpt>
      <trkpt lat="44.23112" lon="3.65791">
        <ele>815.3</ele>
        <time>2021-08-11T15:21:05Z</time>
      </trkpt>
      <trkpt lat="44.23109" lon="3.65792">
        <ele>814.6</ele>
        <time>2021-08-11T15:21:07Z</time>
      </trkpt>
      <trkpt lat="44.23107" lon="3.65792">
        <ele>814</ele>
        <time>2021-08-11T15:21:09Z</time>
      </trkpt>
      <trkpt lat="44.23107" lon="3.65792">
        <ele>814</ele>
        <time>2021-08-11T15:21:11Z</time>
      </trkpt>
      <trkpt lat="44.23107" lon="3.65792">
        <ele>814</ele>
        <time>2021-08-11T15:21:13Z</time>
      </trkpt>
      <trkpt lat="44.23107" lon="3.65792">
        <ele>814</ele>
        <time>2021-08-11T15:21:15Z</time>
      </trkpt>
      <trkpt lat="44.23107" lon="3.65791">
        <ele>813.9</ele>
        <time>2021-08-11T15:21:17Z</time>
      </trkpt>
      <trkpt lat="44.23107" lon="3.65793">
        <ele>814.1</ele>
        <time>2021-08-11T15:23:43Z</time>
      </trkpt>
      <trkpt lat="44.23107" lon="3.65793">
        <ele>814.1</ele>
        <time>2021-08-11T15:23:45Z</time>
      </trkpt>
      <trkpt lat="44.23107" lon="3.65793">
        <ele>814.1</ele>
        <time>2021-08-11T15:23:47Z</time>
      </trkpt>
      <trkpt lat="44.23107" lon="3.65793">
        <ele>814.1</ele>
        <time>2021-08-11T15:23:49Z</time>
      </trkpt>
      <trkpt lat="44.23107" lon="3.65793">
        <ele>814</ele>
        <time>2021-08-11T15:23:51Z</time>
      </trkpt>
      <trkpt lat="44.23106" lon="3.65794">
        <ele>814</ele>
        <time>2021-08-11T15:23:53Z</time>
      </trkpt>
      <trkpt lat="44.23103" lon="3.65798">
        <ele>813.9</ele>
        <time>2021-08-11T15:23:55Z</time>
      </trkpt>
      <trkpt lat="44.231" lon="3.65804">
        <ele>814</ele>
        <time>2021-08-11T15:23:57Z</time>
      </trkpt>
      <trkpt lat="44.23099" lon="3.65807">
        <ele>814.1</ele>
        <time>2021-08-11T15:23:59Z</time>
      </trkpt>
      <trkpt lat="44.23095" lon="3.65806">
        <ele>812.9</ele>
        <time>2021-08-11T15:24:01Z</time>
      </trkpt>
      <trkpt lat="44.23095" lon="3.65804">
        <ele>812.4</ele>
        <time>2021-08-11T15:24:03Z</time>
      </trkpt>
      <trkpt lat="44.23096" lon="3.65802">
        <ele>812.2</ele>
        <time>2021-08-11T15:24:05Z</time>
      </trkpt>
      <trkpt lat="44.23097" lon="3.65799">
        <ele>812.1</ele>
        <time>2021-08-11T15:24:07Z</time>
      </trkpt>
      <trkpt lat="44.23099" lon="3.65794">
        <ele>811.9</ele>
        <time>2021-08-11T15:24:09Z</time>
      </trkpt>
      <trkpt lat="44.23102" lon="3.6579">
        <ele>812.3</ele>
        <time>2021-08-11T15:24:11Z</time>
      </trkpt>
      <trkpt lat="44.23131" lon="3.65781">
        <ele>818.6</ele>
        <time>2021-08-11T15:24:19Z</time>
      </trkpt>
      <trkpt lat="44.23139" lon="3.65776">
        <ele>819.9</ele>
        <time>2021-08-11T15:24:21Z</time>
      </trkpt>
      <trkpt lat="44.23147" lon="3.6577">
        <ele>820.4</ele>
        <time>2021-08-11T15:24:23Z</time>
      </trkpt>
      <trkpt lat="44.23155" lon="3.65763">
        <ele>820.6</ele>
        <time>2021-08-11T15:24:25Z</time>
      </trkpt>
      <trkpt lat="44.23164" lon="3.65756">
        <ele>820.9</ele>
        <time>2021-08-11T15:24:27Z</time>
      </trkpt>
      <trkpt lat="44.23172" lon="3.65749">
        <ele>821.2</ele>
        <time>2021-08-11T15:24:29Z</time>
      </trkpt>
      <trkpt lat="44.23179" lon="3.65739">
        <ele>820.8</ele>
        <time>2021-08-11T15:24:31Z</time>
      </trkpt>
      <trkpt lat="44.23183" lon="3.65726">
        <ele>818.7</ele>
        <time>2021-08-11T15:24:33Z</time>
      </trkpt>
      <trkpt lat="44.23186" lon="3.6571">
        <ele>815.9</ele>
        <time>2021-08-11T15:24:35Z</time>
      </trkpt>
      <trkpt lat="44.23188" lon="3.65693">
        <ele>812.2</ele>
        <time>2021-08-11T15:24:37Z</time>
      </trkpt>
      <trkpt lat="44.23194" lon="3.65676">
        <ele>809.7</ele>
        <time>2021-08-11T15:24:39Z</time>
      </trkpt>
      <trkpt lat="44.23201" lon="3.6566">
        <ele>808.2</ele>
        <time>2021-08-11T15:24:41Z</time>
      </trkpt>
      <trkpt lat="44.23208" lon="3.65645">
        <ele>806.9</ele>
        <time>2021-08-11T15:24:43Z</time>
      </trkpt>
      <trkpt lat="44.23216" lon="3.65632">
        <ele>806.1</ele>
        <time>2021-08-11T15:24:45Z</time>
      </trkpt>
      <trkpt lat="44.23226" lon="3.65621">
        <ele>806.2</ele>
        <time>2021-08-11T15:24:47Z</time>
      </trkpt>
      <trkpt lat="44.23238" lon="3.65612">
        <ele>807.4</ele>
        <time>2021-08-11T15:24:49Z</time>
      </trkpt>
      <trkpt lat="44.23251" lon="3.65607">
        <ele>809.5</ele>
        <time>2021-08-11T15:24:51Z</time>
      </trkpt>
      <trkpt lat="44.23264" lon="3.65602">
        <ele>811.2</ele>
        <time>2021-08-11T15:24:53Z</time>
      </trkpt>
      <trkpt lat="44.23276" lon="3.65594">
        <ele>812.1</ele>
        <time>2021-08-11T15:24:55Z</time>
      </trkpt>
      <trkpt lat="44.23286" lon="3.65581">
        <ele>811</ele>
        <time>2021-08-11T15:24:57Z</time>
      </trkpt>
      <trkpt lat="44.23295" lon="3.65566">
        <ele>808.3</ele>
        <time>2021-08-11T15:24:59Z</time>
      </trkpt>
      <trkpt lat="44.23303" lon="3.6555">
        <ele>805.2</ele>
        <time>2021-08-11T15:25:01Z</time>
      </trkpt>
      <trkpt lat="44.23312" lon="3.65533">
        <ele>802.1</ele>
        <time>2021-08-11T15:25:03Z</time>
      </trkpt>
      <trkpt lat="44.23322" lon="3.65518">
        <ele>799.8</ele>
        <time>2021-08-11T15:25:05Z</time>
      </trkpt>
      <trkpt lat="44.23332" lon="3.65506">
        <ele>798.6</ele>
        <time>2021-08-11T15:25:07Z</time>
      </trkpt>
      <trkpt lat="44.23343" lon="3.65497">
        <ele>798.6</ele>
        <time>2021-08-11T15:25:09Z</time>
      </trkpt>
      <trkpt lat="44.23355" lon="3.65493">
        <ele>800.2</ele>
        <time>2021-08-11T15:25:11Z</time>
      </trkpt>
      <trkpt lat="44.23366" lon="3.6549">
        <ele>801.9</ele>
        <time>2021-08-11T15:25:13Z</time>
      </trkpt>
      <trkpt lat="44.23377" lon="3.65487">
        <ele>803.5</ele>
        <time>2021-08-11T15:25:15Z</time>
      </trkpt>
      <trkpt lat="44.23386" lon="3.65488">
        <ele>805.7</ele>
        <time>2021-08-11T15:25:17Z</time>
      </trkpt>
      <trkpt lat="44.23392" lon="3.65483">
        <ele>805.7</ele>
        <time>2021-08-11T15:25:19Z</time>
      </trkpt>
      <trkpt lat="44.23393" lon="3.65474">
        <ele>802.8</ele>
        <time>2021-08-11T15:25:21Z</time>
      </trkpt>
      <trkpt lat="44.23385" lon="3.6547">
        <ele>799.8</ele>
        <time>2021-08-11T15:25:23Z</time>
      </trkpt>
      <trkpt lat="44.23375" lon="3.65474">
        <ele>798.7</ele>
        <time>2021-08-11T15:25:25Z</time>
      </trkpt>
      <trkpt lat="44.23366" lon="3.65476">
        <ele>797.6</ele>
        <time>2021-08-11T15:25:27Z</time>
      </trkpt>
      <trkpt lat="44.23358" lon="3.65477">
        <ele>796.3</ele>
        <time>2021-08-11T15:25:29Z</time>
      </trkpt>
      <trkpt lat="44.23351" lon="3.65479">
        <ele>795.1</ele>
        <time>2021-08-11T15:25:31Z</time>
      </trkpt>
      <trkpt lat="44.23343" lon="3.65481">
        <ele>793.9</ele>
        <time>2021-08-11T15:25:33Z</time>
      </trkpt>
      <trkpt lat="44.23335" lon="3.65486">
        <ele>793.5</ele>
        <time>2021-08-11T15:25:35Z</time>
      </trkpt>
      <trkpt lat="44.23325" lon="3.65492">
        <ele>792.9</ele>
        <time>2021-08-11T15:25:37Z</time>
      </trkpt>
      <trkpt lat="44.23316" lon="3.65499">
        <ele>792.9</ele>
        <time>2021-08-11T15:25:39Z</time>
      </trkpt>
      <trkpt lat="44.23307" lon="3.65508">
        <ele>793.2</ele>
        <time>2021-08-11T15:25:41Z</time>
      </trkpt>
      <trkpt lat="44.23297" lon="3.65515">
        <ele>793.4</ele>
        <time>2021-08-11T15:25:43Z</time>
      </trkpt>
      <trkpt lat="44.23288" lon="3.65524">
        <ele>794.1</ele>
        <time>2021-08-11T15:25:45Z</time>
      </trkpt>
      <trkpt lat="44.23278" lon="3.65533">
        <ele>794.7</ele>
        <time>2021-08-11T15:25:47Z</time>
      </trkpt>
      <trkpt lat="44.23268" lon="3.6554">
        <ele>794.5</ele>
        <time>2021-08-11T15:25:49Z</time>
      </trkpt>
      <trkpt lat="44.23257" lon="3.65544">
        <ele>793.4</ele>
        <time>2021-08-11T15:25:51Z</time>
      </trkpt>
      <trkpt lat="44.23246" lon="3.65545">
        <ele>791.2</ele>
        <time>2021-08-11T15:25:53Z</time>
      </trkpt>
      <trkpt lat="44.23234" lon="3.65546">
        <ele>788.5</ele>
        <time>2021-08-11T15:25:55Z</time>
      </trkpt>
      <trkpt lat="44.23222" lon="3.65549">
        <ele>786.8</ele>
        <time>2021-08-11T15:25:57Z</time>
      </trkpt>
      <trkpt lat="44.2321" lon="3.65556">
        <ele>785.8</ele>
        <time>2021-08-11T15:25:59Z</time>
      </trkpt>
      <trkpt lat="44.23197" lon="3.65562">
        <ele>784.6</ele>
        <time>2021-08-11T15:26:01Z</time>
      </trkpt>
      <trkpt lat="44.23185" lon="3.65568">
        <ele>783.3</ele>
        <time>2021-08-11T15:26:03Z</time>
      </trkpt>
      <trkpt lat="44.23173" lon="3.65574">
        <ele>782.2</ele>
        <time>2021-08-11T15:26:05Z</time>
      </trkpt>
      <trkpt lat="44.23164" lon="3.65586">
        <ele>782.7</ele>
        <time>2021-08-11T15:26:07Z</time>
      </trkpt>
      <trkpt lat="44.23155" lon="3.65601">
        <ele>783.5</ele>
        <time>2021-08-11T15:26:09Z</time>
      </trkpt>
      <trkpt lat="44.2315" lon="3.65619">
        <ele>785.6</ele>
        <time>2021-08-11T15:26:11Z</time>
      </trkpt>
      <trkpt lat="44.23145" lon="3.65636">
        <ele>787.9</ele>
        <time>2021-08-11T15:26:13Z</time>
      </trkpt>
      <trkpt lat="44.23139" lon="3.65655">
        <ele>789.9</ele>
        <time>2021-08-11T15:26:15Z</time>
      </trkpt>
      <trkpt lat="44.23128" lon="3.65669">
        <ele>790</ele>
        <time>2021-08-11T15:26:17Z</time>
      </trkpt>
      <trkpt lat="44.23113" lon="3.65674">
        <ele>787.1</ele>
        <time>2021-08-11T15:26:19Z</time>
      </trkpt>
      <trkpt lat="44.23097" lon="3.65674">
        <ele>783</ele>
        <time>2021-08-11T15:26:21Z</time>
      </trkpt>
      <trkpt lat="44.23081" lon="3.65681">
        <ele>781</ele>
        <time>2021-08-11T15:26:23Z</time>
      </trkpt>
      <trkpt lat="44.23066" lon="3.65686">
        <ele>782</ele>
        <time>2021-08-11T15:26:25Z</time>
      </trkpt>
      <trkpt lat="44.23049" lon="3.65685">
        <ele>781.1</ele>
        <time>2021-08-11T15:26:27Z</time>
      </trkpt>
      <trkpt lat="44.23032" lon="3.65678">
        <ele>778.7</ele>
        <time>2021-08-11T15:26:29Z</time>
      </trkpt>
      <trkpt lat="44.23016" lon="3.65668">
        <ele>775.8</ele>
        <time>2021-08-11T15:26:31Z</time>
      </trkpt>
      <trkpt lat="44.23001" lon="3.65659">
        <ele>772.9</ele>
        <time>2021-08-11T15:26:33Z</time>
      </trkpt>
      <trkpt lat="44.22985" lon="3.65655">
        <ele>773.6</ele>
        <time>2021-08-11T15:26:35Z</time>
      </trkpt>
      <trkpt lat="44.22972" lon="3.65652">
        <ele>774.3</ele>
        <time>2021-08-11T15:26:37Z</time>
      </trkpt>
      <trkpt lat="44.22962" lon="3.65649">
        <ele>774.6</ele>
        <time>2021-08-11T15:26:39Z</time>
      </trkpt>
      <trkpt lat="44.22953" lon="3.65641">
        <ele>773.7</ele>
        <time>2021-08-11T15:26:41Z</time>
      </trkpt>
      <trkpt lat="44.22943" lon="3.65632">
        <ele>772</ele>
        <time>2021-08-11T15:26:43Z</time>
      </trkpt>
      <trkpt lat="44.22933" lon="3.6562">
        <ele>769.8</ele>
        <time>2021-08-11T15:26:45Z</time>
      </trkpt>
      <trkpt lat="44.22924" lon="3.65607">
        <ele>767.2</ele>
        <time>2021-08-11T15:26:47Z</time>
      </trkpt>
      <trkpt lat="44.22914" lon="3.65596">
        <ele>764.7</ele>
        <time>2021-08-11T15:26:49Z</time>
      </trkpt>
      <trkpt lat="44.22904" lon="3.65586">
        <ele>761</ele>
        <time>2021-08-11T15:26:51Z</time>
      </trkpt>
      <trkpt lat="44.22894" lon="3.65577">
        <ele>757.1</ele>
        <time>2021-08-11T15:26:53Z</time>
      </trkpt>
      <trkpt lat="44.22884" lon="3.65569">
        <ele>753.8</ele>
        <time>2021-08-11T15:26:55Z</time>
      </trkpt>
      <trkpt lat="44.22875" lon="3.65563">
        <ele>751.2</ele>
        <time>2021-08-11T15:26:57Z</time>
      </trkpt>
      <trkpt lat="44.22866" lon="3.65557">
        <ele>748.8</ele>
        <time>2021-08-11T15:26:59Z</time>
      </trkpt>
      <trkpt lat="44.22858" lon="3.65552">
        <ele>746.9</ele>
        <time>2021-08-11T15:27:01Z</time>
      </trkpt>
      <trkpt lat="44.2285" lon="3.65548">
        <ele>745.3</ele>
        <time>2021-08-11T15:27:03Z</time>
      </trkpt>
      <trkpt lat="44.22841" lon="3.65547">
        <ele>744.9</ele>
        <time>2021-08-11T15:27:05Z</time>
      </trkpt>
      <trkpt lat="44.22833" lon="3.65552">
        <ele>745.9</ele>
        <time>2021-08-11T15:27:07Z</time>
      </trkpt>
      <trkpt lat="44.22828" lon="3.65563">
        <ele>746.8</ele>
        <time>2021-08-11T15:27:09Z</time>
      </trkpt>
      <trkpt lat="44.22824" lon="3.65576">
        <ele>748.9</ele>
        <time>2021-08-11T15:27:11Z</time>
      </trkpt>
      <trkpt lat="44.22819" lon="3.65591">
        <ele>751.5</ele>
        <time>2021-08-11T15:27:13Z</time>
      </trkpt>
      <trkpt lat="44.22813" lon="3.65607">
        <ele>753.8</ele>
        <time>2021-08-11T15:27:15Z</time>
      </trkpt>
      <trkpt lat="44.22805" lon="3.65621">
        <ele>755.2</ele>
        <time>2021-08-11T15:27:17Z</time>
      </trkpt>
      <trkpt lat="44.22796" lon="3.65635">
        <ele>756.4</ele>
        <time>2021-08-11T15:27:19Z</time>
      </trkpt>
      <trkpt lat="44.22786" lon="3.65647">
        <ele>756.7</ele>
        <time>2021-08-11T15:27:21Z</time>
      </trkpt>
      <trkpt lat="44.22776" lon="3.65655">
        <ele>755.9</ele>
        <time>2021-08-11T15:27:23Z</time>
      </trkpt>
      <trkpt lat="44.22765" lon="3.65663">
        <ele>755</ele>
        <time>2021-08-11T15:27:25Z</time>
      </trkpt>
      <trkpt lat="44.22756" lon="3.6567">
        <ele>753.7</ele>
        <time>2021-08-11T15:27:27Z</time>
      </trkpt>
      <trkpt lat="44.22748" lon="3.65676">
        <ele>751.9</ele>
        <time>2021-08-11T15:27:29Z</time>
      </trkpt>
      <trkpt lat="44.22741" lon="3.65681">
        <ele>750.1</ele>
        <time>2021-08-11T15:27:31Z</time>
      </trkpt>
      <trkpt lat="44.22736" lon="3.65686">
        <ele>749.1</ele>
        <time>2021-08-11T15:27:33Z</time>
      </trkpt>
      <trkpt lat="44.22732" lon="3.65686">
        <ele>747.6</ele>
        <time>2021-08-11T15:27:35Z</time>
      </trkpt>
      <trkpt lat="44.2273" lon="3.65678">
        <ele>745.2</ele>
        <time>2021-08-11T15:27:37Z</time>
      </trkpt>
      <trkpt lat="44.22737" lon="3.65669">
        <ele>746.3</ele>
        <time>2021-08-11T15:27:39Z</time>
      </trkpt>
      <trkpt lat="44.22747" lon="3.65666">
        <ele>749.4</ele>
        <time>2021-08-11T15:27:41Z</time>
      </trkpt>
      <trkpt lat="44.22756" lon="3.6566">
        <ele>750.9</ele>
        <time>2021-08-11T15:27:43Z</time>
      </trkpt>
      <trkpt lat="44.22766" lon="3.65653">
        <ele>751.7</ele>
        <time>2021-08-11T15:27:45Z</time>
      </trkpt>
      <trkpt lat="44.22775" lon="3.6564">
        <ele>750.4</ele>
        <time>2021-08-11T15:27:47Z</time>
      </trkpt>
      <trkpt lat="44.22783" lon="3.65627">
        <ele>748.9</ele>
        <time>2021-08-11T15:27:49Z</time>
      </trkpt>
      <trkpt lat="44.2279" lon="3.65613">
        <ele>746.9</ele>
        <time>2021-08-11T15:27:51Z</time>
      </trkpt>
      <trkpt lat="44.22795" lon="3.65597">
        <ele>743.5</ele>
        <time>2021-08-11T15:27:53Z</time>
      </trkpt>
      <trkpt lat="44.228" lon="3.6558">
        <ele>740.2</ele>
        <time>2021-08-11T15:27:55Z</time>
      </trkpt>
      <trkpt lat="44.22805" lon="3.65564">
        <ele>737.6</ele>
        <time>2021-08-11T15:27:57Z</time>
      </trkpt>
      <trkpt lat="44.2281" lon="3.65548">
        <ele>735.1</ele>
        <time>2021-08-11T15:27:59Z</time>
      </trkpt>
      <trkpt lat="44.22814" lon="3.65534">
        <ele>733</ele>
        <time>2021-08-11T15:28:01Z</time>
      </trkpt>
      <trkpt lat="44.2282" lon="3.65521">
        <ele>731.5</ele>
        <time>2021-08-11T15:28:03Z</time>
      </trkpt>
      <trkpt lat="44.22826" lon="3.65511">
        <ele>731.2</ele>
        <time>2021-08-11T15:28:05Z</time>
      </trkpt>
      <trkpt lat="44.22836" lon="3.65505">
        <ele>732.5</ele>
        <time>2021-08-11T15:28:07Z</time>
      </trkpt>
      <trkpt lat="44.22848" lon="3.65504">
        <ele>732</ele>
        <time>2021-08-11T15:28:09Z</time>
      </trkpt>
      <trkpt lat="44.22862" lon="3.65504">
        <ele>731.7</ele>
        <time>2021-08-11T15:28:11Z</time>
      </trkpt>
      <trkpt lat="44.22874" lon="3.65504">
        <ele>731.4</ele>
        <time>2021-08-11T15:28:13Z</time>
      </trkpt>
      <trkpt lat="44.22886" lon="3.65505">
        <ele>731.5</ele>
        <time>2021-08-11T15:28:15Z</time>
      </trkpt>
      <trkpt lat="44.22898" lon="3.65508">
        <ele>732.2</ele>
        <time>2021-08-11T15:28:17Z</time>
      </trkpt>
      <trkpt lat="44.22909" lon="3.65514">
        <ele>734.5</ele>
        <time>2021-08-11T15:28:19Z</time>
      </trkpt>
      <trkpt lat="44.2292" lon="3.65521">
        <ele>737.1</ele>
        <time>2021-08-11T15:28:21Z</time>
      </trkpt>
      <trkpt lat="44.22933" lon="3.65527">
        <ele>738.5</ele>
        <time>2021-08-11T15:28:23Z</time>
      </trkpt>
      <trkpt lat="44.22945" lon="3.65533">
        <ele>739.8</ele>
        <time>2021-08-11T15:28:25Z</time>
      </trkpt>
      <trkpt lat="44.22955" lon="3.65534">
        <ele>739.7</ele>
        <time>2021-08-11T15:28:27Z</time>
      </trkpt>
      <trkpt lat="44.22967" lon="3.65536">
        <ele>739.6</ele>
        <time>2021-08-11T15:28:29Z</time>
      </trkpt>
      <trkpt lat="44.22979" lon="3.65535">
        <ele>738.5</ele>
        <time>2021-08-11T15:28:31Z</time>
      </trkpt>
      <trkpt lat="44.22991" lon="3.65528">
        <ele>735.7</ele>
        <time>2021-08-11T15:28:33Z</time>
      </trkpt>
      <trkpt lat="44.23002" lon="3.65514">
        <ele>732.1</ele>
        <time>2021-08-11T15:28:35Z</time>
      </trkpt>
      <trkpt lat="44.23011" lon="3.65497">
        <ele>728.9</ele>
        <time>2021-08-11T15:28:37Z</time>
      </trkpt>
      <trkpt lat="44.2302" lon="3.65478">
        <ele>726</ele>
        <time>2021-08-11T15:28:39Z</time>
      </trkpt>
      <trkpt lat="44.2303" lon="3.65459">
        <ele>722.8</ele>
        <time>2021-08-11T15:28:41Z</time>
      </trkpt>
      <trkpt lat="44.23039" lon="3.65441">
        <ele>719.8</ele>
        <time>2021-08-11T15:28:43Z</time>
      </trkpt>
      <trkpt lat="44.23048" lon="3.65425">
        <ele>716.7</ele>
        <time>2021-08-11T15:28:45Z</time>
      </trkpt>
      <trkpt lat="44.2306" lon="3.65415">
        <ele>715.4</ele>
        <time>2021-08-11T15:28:47Z</time>
      </trkpt>
      <trkpt lat="44.23074" lon="3.65409">
        <ele>715.2</ele>
        <time>2021-08-11T15:28:49Z</time>
      </trkpt>
      <trkpt lat="44.23086" lon="3.65405">
        <ele>715.9</ele>
        <time>2021-08-11T15:28:51Z</time>
      </trkpt>
      <trkpt lat="44.23096" lon="3.65403">
        <ele>717.6</ele>
        <time>2021-08-11T15:28:53Z</time>
      </trkpt>
      <trkpt lat="44.23106" lon="3.65399">
        <ele>719</ele>
        <time>2021-08-11T15:28:55Z</time>
      </trkpt>
      <trkpt lat="44.23115" lon="3.65395">
        <ele>719.8</ele>
        <time>2021-08-11T15:28:57Z</time>
      </trkpt>
      <trkpt lat="44.23121" lon="3.65383">
        <ele>718.1</ele>
        <time>2021-08-11T15:28:59Z</time>
      </trkpt>
      <trkpt lat="44.23127" lon="3.65371">
        <ele>716.2</ele>
        <time>2021-08-11T15:29:01Z</time>
      </trkpt>
      <trkpt lat="44.23132" lon="3.65357">
        <ele>713.9</ele>
        <time>2021-08-11T15:29:03Z</time>
      </trkpt>
      <trkpt lat="44.23138" lon="3.65345">
        <ele>711.9</ele>
        <time>2021-08-11T15:29:05Z</time>
      </trkpt>
      <trkpt lat="44.23145" lon="3.65335">
        <ele>710.5</ele>
        <time>2021-08-11T15:29:07Z</time>
      </trkpt>
      <trkpt lat="44.23153" lon="3.65328">
        <ele>710.4</ele>
        <time>2021-08-11T15:29:09Z</time>
      </trkpt>
      <trkpt lat="44.23162" lon="3.65323">
        <ele>710.8</ele>
        <time>2021-08-11T15:29:11Z</time>
      </trkpt>
      <trkpt lat="44.23171" lon="3.65319">
        <ele>711.7</ele>
        <time>2021-08-11T15:29:13Z</time>
      </trkpt>
      <trkpt lat="44.2318" lon="3.65312">
        <ele>711.4</ele>
        <time>2021-08-11T15:29:15Z</time>
      </trkpt>
      <trkpt lat="44.23188" lon="3.65302">
        <ele>710.3</ele>
        <time>2021-08-11T15:29:17Z</time>
      </trkpt>
      <trkpt lat="44.23195" lon="3.65293">
        <ele>709.3</ele>
        <time>2021-08-11T15:29:19Z</time>
      </trkpt>
      <trkpt lat="44.23204" lon="3.65285">
        <ele>708.5</ele>
        <time>2021-08-11T15:29:21Z</time>
      </trkpt>
      <trkpt lat="44.23213" lon="3.65277">
        <ele>707.6</ele>
        <time>2021-08-11T15:29:23Z</time>
      </trkpt>
      <trkpt lat="44.23222" lon="3.65271">
        <ele>706.9</ele>
        <time>2021-08-11T15:29:25Z</time>
      </trkpt>
      <trkpt lat="44.2323" lon="3.65264">
        <ele>705.9</ele>
        <time>2021-08-11T15:29:27Z</time>
      </trkpt>
      <trkpt lat="44.23239" lon="3.65257">
        <ele>705.1</ele>
        <time>2021-08-11T15:29:29Z</time>
      </trkpt>
      <trkpt lat="44.23248" lon="3.65254">
        <ele>705</ele>
        <time>2021-08-11T15:29:31Z</time>
      </trkpt>
      <trkpt lat="44.23257" lon="3.65249">
        <ele>704.1</ele>
        <time>2021-08-11T15:29:33Z</time>
      </trkpt>
      <trkpt lat="44.23265" lon="3.65251">
        <ele>705</ele>
        <time>2021-08-11T15:29:35Z</time>
      </trkpt>
      <trkpt lat="44.23274" lon="3.65257">
        <ele>707.2</ele>
        <time>2021-08-11T15:29:37Z</time>
      </trkpt>
      <trkpt lat="44.23284" lon="3.65264">
        <ele>709.8</ele>
        <time>2021-08-11T15:29:39Z</time>
      </trkpt>
      <trkpt lat="44.23295" lon="3.65268">
        <ele>712</ele>
        <time>2021-08-11T15:29:41Z</time>
      </trkpt>
      <trkpt lat="44.23307" lon="3.65269">
        <ele>713.1</ele>
        <time>2021-08-11T15:29:43Z</time>
      </trkpt>
      <trkpt lat="44.23318" lon="3.65268">
        <ele>713.1</ele>
        <time>2021-08-11T15:29:45Z</time>
      </trkpt>
      <trkpt lat="44.23327" lon="3.65259">
        <ele>710.2</ele>
        <time>2021-08-11T15:29:47Z</time>
      </trkpt>
      <trkpt lat="44.23336" lon="3.6525">
        <ele>707.6</ele>
        <time>2021-08-11T15:29:49Z</time>
      </trkpt>
      <trkpt lat="44.23344" lon="3.65242">
        <ele>707.6</ele>
        <time>2021-08-11T15:29:51Z</time>
      </trkpt>
      <trkpt lat="44.23351" lon="3.65236">
        <ele>707.7</ele>
        <time>2021-08-11T15:29:53Z</time>
      </trkpt>
      <trkpt lat="44.23356" lon="3.65221">
        <ele>704.6</ele>
        <time>2021-08-11T15:29:55Z</time>
      </trkpt>
      <trkpt lat="44.23359" lon="3.65206">
        <ele>701.2</ele>
        <time>2021-08-11T15:29:57Z</time>
      </trkpt>
      <trkpt lat="44.23364" lon="3.65191">
        <ele>698.1</ele>
        <time>2021-08-11T15:29:59Z</time>
      </trkpt>
      <trkpt lat="44.23372" lon="3.65176">
        <ele>695.7</ele>
        <time>2021-08-11T15:30:01Z</time>
      </trkpt>
      <trkpt lat="44.23381" lon="3.65163">
        <ele>693.5</ele>
        <time>2021-08-11T15:30:03Z</time>
      </trkpt>
      <trkpt lat="44.2339" lon="3.6515">
        <ele>691.8</ele>
        <time>2021-08-11T15:30:05Z</time>
      </trkpt>
      <trkpt lat="44.234" lon="3.65139">
        <ele>690.8</ele>
        <time>2021-08-11T15:30:07Z</time>
      </trkpt>
      <trkpt lat="44.23413" lon="3.65131">
        <ele>691.4</ele>
        <time>2021-08-11T15:30:09Z</time>
      </trkpt>
      <trkpt lat="44.23424" lon="3.65123">
        <ele>692</ele>
        <time>2021-08-11T15:30:11Z</time>
      </trkpt>
      <trkpt lat="44.23435" lon="3.65118">
        <ele>693.3</ele>
        <time>2021-08-11T15:30:13Z</time>
      </trkpt>
      <trkpt lat="44.23445" lon="3.65112">
        <ele>694.2</ele>
        <time>2021-08-11T15:30:15Z</time>
      </trkpt>
      <trkpt lat="44.23455" lon="3.65105">
        <ele>695.1</ele>
        <time>2021-08-11T15:30:17Z</time>
      </trkpt>
      <trkpt lat="44.23463" lon="3.65096">
        <ele>694.7</ele>
        <time>2021-08-11T15:30:19Z</time>
      </trkpt>
      <trkpt lat="44.23466" lon="3.65081">
        <ele>691.3</ele>
        <time>2021-08-11T15:30:21Z</time>
      </trkpt>
      <trkpt lat="44.23466" lon="3.65065">
        <ele>687.4</ele>
        <time>2021-08-11T15:30:23Z</time>
      </trkpt>
      <trkpt lat="44.23469" lon="3.6505">
        <ele>684.1</ele>
        <time>2021-08-11T15:30:25Z</time>
      </trkpt>
      <trkpt lat="44.23474" lon="3.65037">
        <ele>682.2</ele>
        <time>2021-08-11T15:30:27Z</time>
      </trkpt>
      <trkpt lat="44.23483" lon="3.65028">
        <ele>681.7</ele>
        <time>2021-08-11T15:30:29Z</time>
      </trkpt>
      <trkpt lat="44.23495" lon="3.65023">
        <ele>683.1</ele>
        <time>2021-08-11T15:30:31Z</time>
      </trkpt>
      <trkpt lat="44.23508" lon="3.65019">
        <ele>684.9</ele>
        <time>2021-08-11T15:30:33Z</time>
      </trkpt>
      <trkpt lat="44.23521" lon="3.65017">
        <ele>687.1</ele>
        <time>2021-08-11T15:30:35Z</time>
      </trkpt>
      <trkpt lat="44.23533" lon="3.65017">
        <ele>689.7</ele>
        <time>2021-08-11T15:30:37Z</time>
      </trkpt>
      <trkpt lat="44.23545" lon="3.65023">
        <ele>693.5</ele>
        <time>2021-08-11T15:30:39Z</time>
      </trkpt>
      <trkpt lat="44.23556" lon="3.65031">
        <ele>697.2</ele>
        <time>2021-08-11T15:30:41Z</time>
      </trkpt>
      <trkpt lat="44.23566" lon="3.65038">
        <ele>700.5</ele>
        <time>2021-08-11T15:30:43Z</time>
      </trkpt>
      <trkpt lat="44.23575" lon="3.65041">
        <ele>702.8</ele>
        <time>2021-08-11T15:30:45Z</time>
      </trkpt>
      <trkpt lat="44.23584" lon="3.65035">
        <ele>703.6</ele>
        <time>2021-08-11T15:30:47Z</time>
      </trkpt>
      <trkpt lat="44.23587" lon="3.6502">
        <ele>701.5</ele>
        <time>2021-08-11T15:30:49Z</time>
      </trkpt>
      <trkpt lat="44.23581" lon="3.65008">
        <ele>697.8</ele>
        <time>2021-08-11T15:30:51Z</time>
      </trkpt>
      <trkpt lat="44.23572" lon="3.64999">
        <ele>694.7</ele>
        <time>2021-08-11T15:30:53Z</time>
      </trkpt>
      <trkpt lat="44.23564" lon="3.64991">
        <ele>694</ele>
        <time>2021-08-11T15:30:55Z</time>
      </trkpt>
      <trkpt lat="44.23556" lon="3.64982">
        <ele>693.4</ele>
        <time>2021-08-11T15:30:57Z</time>
      </trkpt>
      <trkpt lat="44.23548" lon="3.64972">
        <ele>692.6</ele>
        <time>2021-08-11T15:30:59Z</time>
      </trkpt>
      <trkpt lat="44.23539" lon="3.64964">
        <ele>690.7</ele>
        <time>2021-08-11T15:31:01Z</time>
      </trkpt>
      <trkpt lat="44.23529" lon="3.64956">
        <ele>688.4</ele>
        <time>2021-08-11T15:31:03Z</time>
      </trkpt>
      <trkpt lat="44.23519" lon="3.64946">
        <ele>685.8</ele>
        <time>2021-08-11T15:31:05Z</time>
      </trkpt>
      <trkpt lat="44.23511" lon="3.64934">
        <ele>683.8</ele>
        <time>2021-08-11T15:31:07Z</time>
      </trkpt>
      <trkpt lat="44.23505" lon="3.64922">
        <ele>681.8</ele>
        <time>2021-08-11T15:31:09Z</time>
      </trkpt>
      <trkpt lat="44.23498" lon="3.64908">
        <ele>680.9</ele>
        <time>2021-08-11T15:31:11Z</time>
      </trkpt>
      <trkpt lat="44.23492" lon="3.64895">
        <ele>681.5</ele>
        <time>2021-08-11T15:31:13Z</time>
      </trkpt>
      <trkpt lat="44.23486" lon="3.64882">
        <ele>682.1</ele>
        <time>2021-08-11T15:31:15Z</time>
      </trkpt>
      <trkpt lat="44.2348" lon="3.64868">
        <ele>683.2</ele>
        <time>2021-08-11T15:31:17Z</time>
      </trkpt>
      <trkpt lat="44.23474" lon="3.64853">
        <ele>684.7</ele>
        <time>2021-08-11T15:31:19Z</time>
      </trkpt>
      <trkpt lat="44.2347" lon="3.64838">
        <ele>687.1</ele>
        <time>2021-08-11T15:31:21Z</time>
      </trkpt>
      <trkpt lat="44.23467" lon="3.64821">
        <ele>690.4</ele>
        <time>2021-08-11T15:31:23Z</time>
      </trkpt>
      <trkpt lat="44.23466" lon="3.64804">
        <ele>694.3</ele>
        <time>2021-08-11T15:31:25Z</time>
      </trkpt>
      <trkpt lat="44.23465" lon="3.64788">
        <ele>698.2</ele>
        <time>2021-08-11T15:31:27Z</time>
      </trkpt>
      <trkpt lat="44.23464" lon="3.64773">
        <ele>701.9</ele>
        <time>2021-08-11T15:31:29Z</time>
      </trkpt>
      <trkpt lat="44.2346" lon="3.6476">
        <ele>704.7</ele>
        <time>2021-08-11T15:31:31Z</time>
      </trkpt>
      <trkpt lat="44.23452" lon="3.64754">
        <ele>705.4</ele>
        <time>2021-08-11T15:31:33Z</time>
      </trkpt>
      <trkpt lat="44.23442" lon="3.64759">
        <ele>703.5</ele>
        <time>2021-08-11T15:31:35Z</time>
      </trkpt>
      <trkpt lat="44.23436" lon="3.64773">
        <ele>699</ele>
        <time>2021-08-11T15:31:37Z</time>
      </trkpt>
      <trkpt lat="44.23435" lon="3.64789">
        <ele>694.4</ele>
        <time>2021-08-11T15:31:39Z</time>
      </trkpt>
      <trkpt lat="44.23434" lon="3.64806">
        <ele>689.5</ele>
        <time>2021-08-11T15:31:41Z</time>
      </trkpt>
      <trkpt lat="44.23429" lon="3.64822">
        <ele>684.1</ele>
        <time>2021-08-11T15:31:43Z</time>
      </trkpt>
      <trkpt lat="44.23421" lon="3.64838">
        <ele>678.5</ele>
        <time>2021-08-11T15:31:45Z</time>
      </trkpt>
      <trkpt lat="44.23411" lon="3.64853">
        <ele>675</ele>
        <time>2021-08-11T15:31:47Z</time>
      </trkpt>
      <trkpt lat="44.23398" lon="3.64865">
        <ele>674.7</ele>
        <time>2021-08-11T15:31:49Z</time>
      </trkpt>
      <trkpt lat="44.23385" lon="3.64873">
        <ele>675</ele>
        <time>2021-08-11T15:31:51Z</time>
      </trkpt>
      <trkpt lat="44.23372" lon="3.64887">
        <ele>673</ele>
        <time>2021-08-11T15:31:53Z</time>
      </trkpt>
      <trkpt lat="44.23359" lon="3.64901">
        <ele>670.2</ele>
        <time>2021-08-11T15:31:55Z</time>
      </trkpt>
      <trkpt lat="44.23347" lon="3.64913">
        <ele>667.3</ele>
        <time>2021-08-11T15:31:57Z</time>
      </trkpt>
      <trkpt lat="44.23337" lon="3.64927">
        <ele>665</ele>
        <time>2021-08-11T15:31:59Z</time>
      </trkpt>
      <trkpt lat="44.23327" lon="3.64941">
        <ele>662.4</ele>
        <time>2021-08-11T15:32:01Z</time>
      </trkpt>
      <trkpt lat="44.23315" lon="3.64953">
        <ele>659.5</ele>
        <time>2021-08-11T15:32:03Z</time>
      </trkpt>
      <trkpt lat="44.23301" lon="3.6496">
        <ele>658.1</ele>
        <time>2021-08-11T15:32:05Z</time>
      </trkpt>
      <trkpt lat="44.23286" lon="3.64961">
        <ele>657.9</ele>
        <time>2021-08-11T15:32:07Z</time>
      </trkpt>
      <trkpt lat="44.23271" lon="3.64958">
        <ele>659.5</ele>
        <time>2021-08-11T15:32:09Z</time>
      </trkpt>
      <trkpt lat="44.23256" lon="3.64951">
        <ele>662.7</ele>
        <time>2021-08-11T15:32:11Z</time>
      </trkpt>
      <trkpt lat="44.23241" lon="3.64945">
        <ele>664.4</ele>
        <time>2021-08-11T15:32:13Z</time>
      </trkpt>
      <trkpt lat="44.23227" lon="3.64938">
        <ele>665.2</ele>
        <time>2021-08-11T15:32:15Z</time>
      </trkpt>
      <trkpt lat="44.23213" lon="3.64933">
        <ele>665.2</ele>
        <time>2021-08-11T15:32:17Z</time>
      </trkpt>
      <trkpt lat="44.23199" lon="3.64932">
        <ele>663.8</ele>
        <time>2021-08-11T15:32:19Z</time>
      </trkpt>
      <trkpt lat="44.23184" lon="3.64935">
        <ele>660.3</ele>
        <time>2021-08-11T15:32:21Z</time>
      </trkpt>
      <trkpt lat="44.2317" lon="3.64942">
        <ele>655.8</ele>
        <time>2021-08-11T15:32:23Z</time>
      </trkpt>
      <trkpt lat="44.23154" lon="3.64947">
        <ele>652.8</ele>
        <time>2021-08-11T15:32:25Z</time>
      </trkpt>
      <trkpt lat="44.23138" lon="3.64947">
        <ele>651.8</ele>
        <time>2021-08-11T15:32:27Z</time>
      </trkpt>
      <trkpt lat="44.23123" lon="3.64947">
        <ele>650.8</ele>
        <time>2021-08-11T15:32:29Z</time>
      </trkpt>
      <trkpt lat="44.2311" lon="3.64948">
        <ele>649.7</ele>
        <time>2021-08-11T15:32:31Z</time>
      </trkpt>
      <trkpt lat="44.23095" lon="3.64943">
        <ele>651.4</ele>
        <time>2021-08-11T15:32:33Z</time>
      </trkpt>
      <trkpt lat="44.23083" lon="3.64935">
        <ele>654.3</ele>
        <time>2021-08-11T15:32:35Z</time>
      </trkpt>
      <trkpt lat="44.23069" lon="3.64933">
        <ele>654.7</ele>
        <time>2021-08-11T15:32:37Z</time>
      </trkpt>
      <trkpt lat="44.23054" lon="3.64935">
        <ele>652.8</ele>
        <time>2021-08-11T15:32:39Z</time>
      </trkpt>
      <trkpt lat="44.2304" lon="3.64937">
        <ele>651.1</ele>
        <time>2021-08-11T15:32:41Z</time>
      </trkpt>
      <trkpt lat="44.23026" lon="3.64942">
        <ele>648.4</ele>
        <time>2021-08-11T15:32:43Z</time>
      </trkpt>
      <trkpt lat="44.23012" lon="3.64949">
        <ele>644.1</ele>
        <time>2021-08-11T15:32:45Z</time>
      </trkpt>
      <trkpt lat="44.22997" lon="3.64956">
        <ele>639.4</ele>
        <time>2021-08-11T15:32:47Z</time>
      </trkpt>
      <trkpt lat="44.22981" lon="3.64961">
        <ele>633.5</ele>
        <time>2021-08-11T15:32:49Z</time>
      </trkpt>
      <trkpt lat="44.22966" lon="3.64963">
        <ele>629</ele>
        <time>2021-08-11T15:32:51Z</time>
      </trkpt>
      <trkpt lat="44.2295" lon="3.64963">
        <ele>625.2</ele>
        <time>2021-08-11T15:32:53Z</time>
      </trkpt>
      <trkpt lat="44.22936" lon="3.64956">
        <ele>624.7</ele>
        <time>2021-08-11T15:32:55Z</time>
      </trkpt>
      <trkpt lat="44.22925" lon="3.64946">
        <ele>625.2</ele>
        <time>2021-08-11T15:32:57Z</time>
      </trkpt>
      <trkpt lat="44.22915" lon="3.64936">
        <ele>625.7</ele>
        <time>2021-08-11T15:32:59Z</time>
      </trkpt>
      <trkpt lat="44.22906" lon="3.64929">
        <ele>624.8</ele>
        <time>2021-08-11T15:33:01Z</time>
      </trkpt>
      <trkpt lat="44.22899" lon="3.64924">
        <ele>623.5</ele>
        <time>2021-08-11T15:33:03Z</time>
      </trkpt>
      <trkpt lat="44.22893" lon="3.64915">
        <ele>622.7</ele>
        <time>2021-08-11T15:33:05Z</time>
      </trkpt>
      <trkpt lat="44.22891" lon="3.64901">
        <ele>621</ele>
        <time>2021-08-11T15:33:07Z</time>
      </trkpt>
      <trkpt lat="44.22895" lon="3.64887">
        <ele>621.2</ele>
        <time>2021-08-11T15:33:09Z</time>
      </trkpt>
      <trkpt lat="44.22902" lon="3.64874">
        <ele>623.8</ele>
        <time>2021-08-11T15:33:11Z</time>
      </trkpt>
      <trkpt lat="44.2291" lon="3.6486">
        <ele>626.2</ele>
        <time>2021-08-11T15:33:13Z</time>
      </trkpt>
      <trkpt lat="44.22915" lon="3.64843">
        <ele>628</ele>
        <time>2021-08-11T15:33:15Z</time>
      </trkpt>
      <trkpt lat="44.2292" lon="3.64824">
        <ele>627.7</ele>
        <time>2021-08-11T15:33:17Z</time>
      </trkpt>
      <trkpt lat="44.22926" lon="3.64808">
        <ele>627.8</ele>
        <time>2021-08-11T15:33:19Z</time>
      </trkpt>
      <trkpt lat="44.22934" lon="3.64792">
        <ele>629.3</ele>
        <time>2021-08-11T15:33:21Z</time>
      </trkpt>
      <trkpt lat="44.22943" lon="3.64778">
        <ele>631.2</ele>
        <time>2021-08-11T15:33:23Z</time>
      </trkpt>
      <trkpt lat="44.22949" lon="3.64761">
        <ele>631.6</ele>
        <time>2021-08-11T15:33:25Z</time>
      </trkpt>
      <trkpt lat="44.22954" lon="3.64742">
        <ele>631.8</ele>
        <time>2021-08-11T15:33:27Z</time>
      </trkpt>
      <trkpt lat="44.2296" lon="3.64724">
        <ele>632.4</ele>
        <time>2021-08-11T15:33:29Z</time>
      </trkpt>
      <trkpt lat="44.22965" lon="3.64705">
        <ele>632.5</ele>
        <time>2021-08-11T15:33:31Z</time>
      </trkpt>
      <trkpt lat="44.22968" lon="3.64685">
        <ele>631.4</ele>
        <time>2021-08-11T15:33:33Z</time>
      </trkpt>
      <trkpt lat="44.22971" lon="3.64663">
        <ele>629.9</ele>
        <time>2021-08-11T15:33:35Z</time>
      </trkpt>
      <trkpt lat="44.22975" lon="3.64641">
        <ele>628.7</ele>
        <time>2021-08-11T15:33:37Z</time>
      </trkpt>
      <trkpt lat="44.22978" lon="3.64622">
        <ele>627.2</ele>
        <time>2021-08-11T15:33:39Z</time>
      </trkpt>
      <trkpt lat="44.22979" lon="3.64601">
        <ele>624.5</ele>
        <time>2021-08-11T15:33:41Z</time>
      </trkpt>
      <trkpt lat="44.22982" lon="3.64581">
        <ele>622.5</ele>
        <time>2021-08-11T15:33:43Z</time>
      </trkpt>
      <trkpt lat="44.22985" lon="3.6456">
        <ele>622.3</ele>
        <time>2021-08-11T15:33:45Z</time>
      </trkpt>
      <trkpt lat="44.22988" lon="3.6454">
        <ele>621.8</ele>
        <time>2021-08-11T15:33:47Z</time>
      </trkpt>
      <trkpt lat="44.22989" lon="3.64524">
        <ele>620.7</ele>
        <time>2021-08-11T15:33:49Z</time>
      </trkpt>
      <trkpt lat="44.22992" lon="3.64508">
        <ele>620.5</ele>
        <time>2021-08-11T15:33:51Z</time>
      </trkpt>
      <trkpt lat="44.22999" lon="3.64492">
        <ele>622.9</ele>
        <time>2021-08-11T15:33:53Z</time>
      </trkpt>
      <trkpt lat="44.23005" lon="3.64478">
        <ele>626.2</ele>
        <time>2021-08-11T15:33:55Z</time>
      </trkpt>
      <trkpt lat="44.23004" lon="3.64463">
        <ele>626.3</ele>
        <time>2021-08-11T15:33:57Z</time>
      </trkpt>
      <trkpt lat="44.22996" lon="3.6445">
        <ele>622.7</ele>
        <time>2021-08-11T15:33:59Z</time>
      </trkpt>
      <trkpt lat="44.22987" lon="3.64438">
        <ele>619.5</ele>
        <time>2021-08-11T15:34:01Z</time>
      </trkpt>
      <trkpt lat="44.22979" lon="3.64423">
        <ele>616.8</ele>
        <time>2021-08-11T15:34:03Z</time>
      </trkpt>
      <trkpt lat="44.22972" lon="3.64406">
        <ele>615.1</ele>
        <time>2021-08-11T15:34:05Z</time>
      </trkpt>
      <trkpt lat="44.22965" lon="3.64391">
        <ele>613.8</ele>
        <time>2021-08-11T15:34:07Z</time>
      </trkpt>
      <trkpt lat="44.22957" lon="3.64378">
        <ele>612.1</ele>
        <time>2021-08-11T15:34:09Z</time>
      </trkpt>
      <trkpt lat="44.22948" lon="3.64366">
        <ele>609.9</ele>
        <time>2021-08-11T15:34:11Z</time>
      </trkpt>
      <trkpt lat="44.22943" lon="3.64353">
        <ele>609.5</ele>
        <time>2021-08-11T15:34:13Z</time>
      </trkpt>
      <trkpt lat="44.22943" lon="3.64338">
        <ele>611.2</ele>
        <time>2021-08-11T15:34:15Z</time>
      </trkpt>
      <trkpt lat="44.2295" lon="3.64323">
        <ele>614.2</ele>
        <time>2021-08-11T15:34:17Z</time>
      </trkpt>
      <trkpt lat="44.22955" lon="3.64309">
        <ele>616.1</ele>
        <time>2021-08-11T15:34:19Z</time>
      </trkpt>
      <trkpt lat="44.22959" lon="3.64293">
        <ele>617.4</ele>
        <time>2021-08-11T15:34:21Z</time>
      </trkpt>
      <trkpt lat="44.22965" lon="3.64279">
        <ele>618.7</ele>
        <time>2021-08-11T15:34:23Z</time>
      </trkpt>
      <trkpt lat="44.22971" lon="3.64264">
        <ele>619.7</ele>
        <time>2021-08-11T15:34:25Z</time>
      </trkpt>
      <trkpt lat="44.22973" lon="3.64249">
        <ele>619.8</ele>
        <time>2021-08-11T15:34:27Z</time>
      </trkpt>
      <trkpt lat="44.22967" lon="3.64237">
        <ele>623.7</ele>
        <time>2021-08-11T15:34:29Z</time>
      </trkpt>
      <trkpt lat="44.22958" lon="3.6423">
        <ele>626.1</ele>
        <time>2021-08-11T15:34:31Z</time>
      </trkpt>
      <trkpt lat="44.22949" lon="3.64228">
        <ele>627.1</ele>
        <time>2021-08-11T15:34:33Z</time>
      </trkpt>
      <trkpt lat="44.2294" lon="3.64234">
        <ele>624</ele>
        <time>2021-08-11T15:34:35Z</time>
      </trkpt>
      <trkpt lat="44.22933" lon="3.64242">
        <ele>619</ele>
        <time>2021-08-11T15:34:37Z</time>
      </trkpt>
      <trkpt lat="44.22926" lon="3.64251">
        <ele>613.1</ele>
        <time>2021-08-11T15:34:39Z</time>
      </trkpt>
      <trkpt lat="44.22919" lon="3.64259">
        <ele>611.4</ele>
        <time>2021-08-11T15:34:41Z</time>
      </trkpt>
      <trkpt lat="44.22912" lon="3.64264">
        <ele>612.8</ele>
        <time>2021-08-11T15:34:43Z</time>
      </trkpt>
      <trkpt lat="44.22905" lon="3.6427">
        <ele>615.6</ele>
        <time>2021-08-11T15:34:45Z</time>
      </trkpt>
      <trkpt lat="44.22897" lon="3.64276">
        <ele>618.5</ele>
        <time>2021-08-11T15:34:47Z</time>
      </trkpt>
      <trkpt lat="44.2289" lon="3.64281">
        <ele>621.3</ele>
        <time>2021-08-11T15:34:49Z</time>
      </trkpt>
      <trkpt lat="44.22883" lon="3.64286">
        <ele>623.6</ele>
        <time>2021-08-11T15:34:51Z</time>
      </trkpt>
      <trkpt lat="44.22877" lon="3.64294">
        <ele>624.8</ele>
        <time>2021-08-11T15:34:53Z</time>
      </trkpt>
      <trkpt lat="44.22872" lon="3.64301">
        <ele>625.6</ele>
        <time>2021-08-11T15:34:55Z</time>
      </trkpt>
      <trkpt lat="44.22868" lon="3.64309">
        <ele>625.7</ele>
        <time>2021-08-11T15:34:57Z</time>
      </trkpt>
      <trkpt lat="44.22866" lon="3.64319">
        <ele>624.5</ele>
        <time>2021-08-11T15:34:59Z</time>
      </trkpt>
      <trkpt lat="44.22863" lon="3.64328">
        <ele>623.7</ele>
        <time>2021-08-11T15:35:01Z</time>
      </trkpt>
      <trkpt lat="44.22862" lon="3.64336">
        <ele>622.6</ele>
        <time>2021-08-11T15:35:03Z</time>
      </trkpt>
      <trkpt lat="44.22859" lon="3.64344">
        <ele>622.1</ele>
        <time>2021-08-11T15:35:05Z</time>
      </trkpt>
      <trkpt lat="44.22856" lon="3.64352">
        <ele>622</ele>
        <time>2021-08-11T15:35:07Z</time>
      </trkpt>
      <trkpt lat="44.22853" lon="3.64359">
        <ele>621.7</ele>
        <time>2021-08-11T15:35:09Z</time>
      </trkpt>
      <trkpt lat="44.22851" lon="3.64368">
        <ele>620.5</ele>
        <time>2021-08-11T15:35:11Z</time>
      </trkpt>
      <trkpt lat="44.22848" lon="3.64377">
        <ele>619.8</ele>
        <time>2021-08-11T15:35:13Z</time>
      </trkpt>
      <trkpt lat="44.22845" lon="3.64386">
        <ele>618.8</ele>
        <time>2021-08-11T15:35:15Z</time>
      </trkpt>
      <trkpt lat="44.22844" lon="3.64395">
        <ele>617.4</ele>
        <time>2021-08-11T15:35:17Z</time>
      </trkpt>
      <trkpt lat="44.22842" lon="3.64404">
        <ele>616.1</ele>
        <time>2021-08-11T15:35:19Z</time>
      </trkpt>
      <trkpt lat="44.22841" lon="3.64413">
        <ele>614.6</ele>
        <time>2021-08-11T15:35:21Z</time>
      </trkpt>
      <trkpt lat="44.22841" lon="3.64422">
        <ele>612.8</ele>
        <time>2021-08-11T15:35:23Z</time>
      </trkpt>
      <trkpt lat="44.22841" lon="3.6443">
        <ele>611</ele>
        <time>2021-08-11T15:35:25Z</time>
      </trkpt>
      <trkpt lat="44.22842" lon="3.64439">
        <ele>609</ele>
        <time>2021-08-11T15:35:27Z</time>
      </trkpt>
      <trkpt lat="44.22841" lon="3.64449">
        <ele>607.4</ele>
        <time>2021-08-11T15:35:29Z</time>
      </trkpt>
      <trkpt lat="44.22838" lon="3.64456">
        <ele>606.4</ele>
        <time>2021-08-11T15:35:31Z</time>
      </trkpt>
      <trkpt lat="44.22833" lon="3.64462">
        <ele>606.4</ele>
        <time>2021-08-11T15:35:33Z</time>
      </trkpt>
      <trkpt lat="44.22828" lon="3.64468">
        <ele>607.3</ele>
        <time>2021-08-11T15:35:35Z</time>
      </trkpt>
      <trkpt lat="44.22821" lon="3.6447">
        <ele>609.5</ele>
        <time>2021-08-11T15:35:37Z</time>
      </trkpt>
      <trkpt lat="44.22816" lon="3.64472">
        <ele>611.5</ele>
        <time>2021-08-11T15:35:39Z</time>
      </trkpt>
      <trkpt lat="44.2281" lon="3.64474">
        <ele>613.5</ele>
        <time>2021-08-11T15:35:41Z</time>
      </trkpt>
      <trkpt lat="44.22805" lon="3.64476">
        <ele>614.9</ele>
        <time>2021-08-11T15:35:43Z</time>
      </trkpt>
      <trkpt lat="44.228" lon="3.64481">
        <ele>616</ele>
        <time>2021-08-11T15:35:45Z</time>
      </trkpt>
      <trkpt lat="44.22794" lon="3.64486">
        <ele>617.2</ele>
        <time>2021-08-11T15:35:47Z</time>
      </trkpt>
      <trkpt lat="44.22789" lon="3.64492">
        <ele>617.7</ele>
        <time>2021-08-11T15:35:49Z</time>
      </trkpt>
      <trkpt lat="44.22784" lon="3.64498">
        <ele>618.1</ele>
        <time>2021-08-11T15:35:51Z</time>
      </trkpt>
      <trkpt lat="44.22779" lon="3.64503">
        <ele>618.7</ele>
        <time>2021-08-11T15:35:53Z</time>
      </trkpt>
      <trkpt lat="44.22773" lon="3.64508">
        <ele>619.7</ele>
        <time>2021-08-11T15:35:55Z</time>
      </trkpt>
      <trkpt lat="44.22768" lon="3.64513">
        <ele>620.5</ele>
        <time>2021-08-11T15:35:57Z</time>
      </trkpt>
      <trkpt lat="44.22764" lon="3.64518">
        <ele>620.8</ele>
        <time>2021-08-11T15:35:59Z</time>
      </trkpt>
      <trkpt lat="44.2276" lon="3.64524">
        <ele>621.1</ele>
        <time>2021-08-11T15:36:01Z</time>
      </trkpt>
      <trkpt lat="44.22755" lon="3.64531">
        <ele>620.9</ele>
        <time>2021-08-11T15:36:03Z</time>
      </trkpt>
      <trkpt lat="44.22753" lon="3.64537">
        <ele>620.1</ele>
        <time>2021-08-11T15:36:05Z</time>
      </trkpt>
      <trkpt lat="44.22751" lon="3.64545">
        <ele>618.7</ele>
        <time>2021-08-11T15:36:07Z</time>
      </trkpt>
      <trkpt lat="44.22749" lon="3.64554">
        <ele>617.2</ele>
        <time>2021-08-11T15:36:09Z</time>
      </trkpt>
      <trkpt lat="44.22747" lon="3.64562">
        <ele>616</ele>
        <time>2021-08-11T15:36:11Z</time>
      </trkpt>
      <trkpt lat="44.22746" lon="3.64571">
        <ele>614.3</ele>
        <time>2021-08-11T15:36:13Z</time>
      </trkpt>
      <trkpt lat="44.22746" lon="3.6458">
        <ele>612</ele>
        <time>2021-08-11T15:36:15Z</time>
      </trkpt>
      <trkpt lat="44.22745" lon="3.6459">
        <ele>610.2</ele>
        <time>2021-08-11T15:36:17Z</time>
      </trkpt>
      <trkpt lat="44.22745" lon="3.64599">
        <ele>608.9</ele>
        <time>2021-08-11T15:36:19Z</time>
      </trkpt>
      <trkpt lat="44.22743" lon="3.64609">
        <ele>608.3</ele>
        <time>2021-08-11T15:36:21Z</time>
      </trkpt>
      <trkpt lat="44.2274" lon="3.64618">
        <ele>608.2</ele>
        <time>2021-08-11T15:36:23Z</time>
      </trkpt>
      <trkpt lat="44.22738" lon="3.64626">
        <ele>608.1</ele>
        <time>2021-08-11T15:36:25Z</time>
      </trkpt>
      <trkpt lat="44.22735" lon="3.64635">
        <ele>608</ele>
        <time>2021-08-11T15:36:27Z</time>
      </trkpt>
      <trkpt lat="44.22733" lon="3.64643">
        <ele>607.6</ele>
        <time>2021-08-11T15:36:29Z</time>
      </trkpt>
      <trkpt lat="44.2273" lon="3.64653">
        <ele>607.2</ele>
        <time>2021-08-11T15:36:31Z</time>
      </trkpt>
      <trkpt lat="44.22727" lon="3.64662">
        <ele>607.1</ele>
        <time>2021-08-11T15:36:33Z</time>
      </trkpt>
      <trkpt lat="44.22723" lon="3.64671">
        <ele>607</ele>
        <time>2021-08-11T15:36:35Z</time>
      </trkpt>
      <trkpt lat="44.2272" lon="3.6468">
        <ele>606.7</ele>
        <time>2021-08-11T15:36:37Z</time>
      </trkpt>
      <trkpt lat="44.22715" lon="3.64688">
        <ele>607.1</ele>
        <time>2021-08-11T15:36:39Z</time>
      </trkpt>
      <trkpt lat="44.22711" lon="3.64696">
        <ele>607.5</ele>
        <time>2021-08-11T15:36:41Z</time>
      </trkpt>
      <trkpt lat="44.22706" lon="3.64703">
        <ele>608.1</ele>
        <time>2021-08-11T15:36:43Z</time>
      </trkpt>
      <trkpt lat="44.22702" lon="3.6471">
        <ele>608.1</ele>
        <time>2021-08-11T15:36:45Z</time>
      </trkpt>
      <trkpt lat="44.22696" lon="3.64718">
        <ele>608.6</ele>
        <time>2021-08-11T15:36:47Z</time>
      </trkpt>
      <trkpt lat="44.22691" lon="3.64726">
        <ele>608.9</ele>
        <time>2021-08-11T15:36:49Z</time>
      </trkpt>
      <trkpt lat="44.22685" lon="3.64736">
        <ele>608.8</ele>
        <time>2021-08-11T15:36:51Z</time>
      </trkpt>
      <trkpt lat="44.22679" lon="3.64745">
        <ele>608.8</ele>
        <time>2021-08-11T15:36:53Z</time>
      </trkpt>
      <trkpt lat="44.22673" lon="3.64758">
        <ele>608.4</ele>
        <time>2021-08-11T15:36:55Z</time>
      </trkpt>
      <trkpt lat="44.22665" lon="3.64771">
        <ele>608.3</ele>
        <time>2021-08-11T15:36:57Z</time>
      </trkpt>
      <trkpt lat="44.22659" lon="3.64784">
        <ele>607.9</ele>
        <time>2021-08-11T15:36:59Z</time>
      </trkpt>
      <trkpt lat="44.22651" lon="3.64797">
        <ele>607.8</ele>
        <time>2021-08-11T15:37:01Z</time>
      </trkpt>
      <trkpt lat="44.22644" lon="3.64809">
        <ele>607.4</ele>
        <time>2021-08-11T15:37:03Z</time>
      </trkpt>
      <trkpt lat="44.22636" lon="3.64821">
        <ele>607.3</ele>
        <time>2021-08-11T15:37:05Z</time>
      </trkpt>
      <trkpt lat="44.22627" lon="3.64831">
        <ele>607.8</ele>
        <time>2021-08-11T15:37:07Z</time>
      </trkpt>
      <trkpt lat="44.22617" lon="3.6484">
        <ele>608.9</ele>
        <time>2021-08-11T15:37:09Z</time>
      </trkpt>
      <trkpt lat="44.22609" lon="3.64852">
        <ele>608.6</ele>
        <time>2021-08-11T15:37:11Z</time>
      </trkpt>
      <trkpt lat="44.22601" lon="3.64864">
        <ele>608.3</ele>
        <time>2021-08-11T15:37:13Z</time>
      </trkpt>
      <trkpt lat="44.22593" lon="3.64873">
        <ele>608.6</ele>
        <time>2021-08-11T15:37:15Z</time>
      </trkpt>
      <trkpt lat="44.22585" lon="3.64883">
        <ele>608.8</ele>
        <time>2021-08-11T15:37:17Z</time>
      </trkpt>
      <trkpt lat="44.22577" lon="3.64893">
        <ele>608.9</ele>
        <time>2021-08-11T15:37:19Z</time>
      </trkpt>
      <trkpt lat="44.22569" lon="3.64904">
        <ele>608.7</ele>
        <time>2021-08-11T15:37:21Z</time>
      </trkpt>
      <trkpt lat="44.22562" lon="3.64914">
        <ele>608.3</ele>
        <time>2021-08-11T15:37:23Z</time>
      </trkpt>
      <trkpt lat="44.22555" lon="3.64927">
        <ele>607.4</ele>
        <time>2021-08-11T15:37:25Z</time>
      </trkpt>
      <trkpt lat="44.22546" lon="3.6494">
        <ele>606.7</ele>
        <time>2021-08-11T15:37:27Z</time>
      </trkpt>
      <trkpt lat="44.22538" lon="3.64953">
        <ele>606.3</ele>
        <time>2021-08-11T15:37:29Z</time>
      </trkpt>
      <trkpt lat="44.22529" lon="3.64966">
        <ele>606.3</ele>
        <time>2021-08-11T15:37:31Z</time>
      </trkpt>
      <trkpt lat="44.2252" lon="3.64981">
        <ele>606.1</ele>
        <time>2021-08-11T15:37:33Z</time>
      </trkpt>
      <trkpt lat="44.22514" lon="3.64996">
        <ele>605.4</ele>
        <time>2021-08-11T15:37:35Z</time>
      </trkpt>
      <trkpt lat="44.22508" lon="3.65011">
        <ele>604.5</ele>
        <time>2021-08-11T15:37:37Z</time>
      </trkpt>
      <trkpt lat="44.225" lon="3.65025">
        <ele>604.6</ele>
        <time>2021-08-11T15:37:39Z</time>
      </trkpt>
      <trkpt lat="44.2249" lon="3.65035">
        <ele>604.8</ele>
        <time>2021-08-11T15:37:41Z</time>
      </trkpt>
      <trkpt lat="44.22479" lon="3.65044">
        <ele>605.4</ele>
        <time>2021-08-11T15:37:43Z</time>
      </trkpt>
      <trkpt lat="44.22468" lon="3.65053">
        <ele>606</ele>
        <time>2021-08-11T15:37:45Z</time>
      </trkpt>
      <trkpt lat="44.22459" lon="3.6506">
        <ele>606.8</ele>
        <time>2021-08-11T15:37:47Z</time>
      </trkpt>
      <trkpt lat="44.22454" lon="3.65067">
        <ele>606.6</ele>
        <time>2021-08-11T15:37:49Z</time>
      </trkpt>
      <trkpt lat="44.22452" lon="3.65072">
        <ele>605.9</ele>
        <time>2021-08-11T15:37:51Z</time>
      </trkpt>
      <trkpt lat="44.2245" lon="3.65073">
        <ele>606</ele>
        <time>2021-08-11T15:37:53Z</time>
      </trkpt>
      <trkpt lat="44.22451" lon="3.65073">
        <ele>605.9</ele>
        <time>2021-08-11T15:37:55Z</time>
      </trkpt>
      <trkpt lat="44.22451" lon="3.65074">
        <ele>605.9</ele>
        <time>2021-08-11T15:37:57Z</time>
      </trkpt>
      <trkpt lat="44.22451" lon="3.65074">
        <ele>605.8</ele>
        <time>2021-08-11T15:37:59Z</time>
      </trkpt>
      <trkpt lat="44.2245" lon="3.65074">
        <ele>605.8</ele>
        <time>2021-08-11T15:38:01Z</time>
      </trkpt>
      <trkpt lat="44.22427" lon="3.65087">
        <ele>608.4</ele>
        <time>2021-08-11T15:38:29Z</time>
      </trkpt>
      <trkpt lat="44.22421" lon="3.65093">
        <ele>608</ele>
        <time>2021-08-11T15:38:31Z</time>
      </trkpt>
      <trkpt lat="44.22413" lon="3.651">
        <ele>607.4</ele>
        <time>2021-08-11T15:38:33Z</time>
      </trkpt>
      <trkpt lat="44.22405" lon="3.65108">
        <ele>606.1</ele>
        <time>2021-08-11T15:38:35Z</time>
      </trkpt>
      <trkpt lat="44.22398" lon="3.65116">
        <ele>604.7</ele>
        <time>2021-08-11T15:38:37Z</time>
      </trkpt>
      <trkpt lat="44.2239" lon="3.65124">
        <ele>603.6</ele>
        <time>2021-08-11T15:38:39Z</time>
      </trkpt>
      <trkpt lat="44.2238" lon="3.6513">
        <ele>603.2</ele>
        <time>2021-08-11T15:38:41Z</time>
      </trkpt>
      <trkpt lat="44.22371" lon="3.65134">
        <ele>603.2</ele>
        <time>2021-08-11T15:38:43Z</time>
      </trkpt>
      <trkpt lat="44.22362" lon="3.65139">
        <ele>603.3</ele>
        <time>2021-08-11T15:38:45Z</time>
      </trkpt>
      <trkpt lat="44.22353" lon="3.65142">
        <ele>603.8</ele>
        <time>2021-08-11T15:38:47Z</time>
      </trkpt>
      <trkpt lat="44.22345" lon="3.65145">
        <ele>604.2</ele>
        <time>2021-08-11T15:38:49Z</time>
      </trkpt>
      <trkpt lat="44.22338" lon="3.65148">
        <ele>604.2</ele>
        <time>2021-08-11T15:38:51Z</time>
      </trkpt>
      <trkpt lat="44.22333" lon="3.65151">
        <ele>604.2</ele>
        <time>2021-08-11T15:38:53Z</time>
      </trkpt>
      <trkpt lat="44.22329" lon="3.65154">
        <ele>604</ele>
        <time>2021-08-11T15:38:55Z</time>
      </trkpt>
      <trkpt lat="44.22325" lon="3.65156">
        <ele>603.7</ele>
        <time>2021-08-11T15:38:57Z</time>
      </trkpt>
      <trkpt lat="44.2232" lon="3.65159">
        <ele>603.4</ele>
        <time>2021-08-11T15:38:59Z</time>
      </trkpt>
      <trkpt lat="44.22314" lon="3.65163">
        <ele>603.1</ele>
        <time>2021-08-11T15:39:01Z</time>
      </trkpt>
      <trkpt lat="44.22308" lon="3.65166">
        <ele>603</ele>
        <time>2021-08-11T15:39:03Z</time>
      </trkpt>
      <trkpt lat="44.22302" lon="3.65169">
        <ele>602.8</ele>
        <time>2021-08-11T15:39:05Z</time>
      </trkpt>
      <trkpt lat="44.22298" lon="3.65172">
        <ele>602.3</ele>
        <time>2021-08-11T15:39:07Z</time>
      </trkpt>
      <trkpt lat="44.22295" lon="3.65174">
        <ele>602</ele>
        <time>2021-08-11T15:39:09Z</time>
      </trkpt>
      <trkpt lat="44.22291" lon="3.65176">
        <ele>601.9</ele>
        <time>2021-08-11T15:39:11Z</time>
      </trkpt>
      <trkpt lat="44.22286" lon="3.65178">
        <ele>601.9</ele>
        <time>2021-08-11T15:39:13Z</time>
      </trkpt>
      <trkpt lat="44.22281" lon="3.65181">
        <ele>601.7</ele>
        <time>2021-08-11T15:39:15Z</time>
      </trkpt>
      <trkpt lat="44.22276" lon="3.65184">
        <ele>601.5</ele>
        <time>2021-08-11T15:39:17Z</time>
      </trkpt>
      <trkpt lat="44.22269" lon="3.65187">
        <ele>601.5</ele>
        <time>2021-08-11T15:39:19Z</time>
      </trkpt>
      <trkpt lat="44.22262" lon="3.6519">
        <ele>601.5</ele>
        <time>2021-08-11T15:39:21Z</time>
      </trkpt>
      <trkpt lat="44.22256" lon="3.6519">
        <ele>602.1</ele>
        <time>2021-08-11T15:39:23Z</time>
      </trkpt>
      <trkpt lat="44.22249" lon="3.6519">
        <ele>602.9</ele>
        <time>2021-08-11T15:39:25Z</time>
      </trkpt>
      <trkpt lat="44.22243" lon="3.65189">
        <ele>603.1</ele>
        <time>2021-08-11T15:39:27Z</time>
      </trkpt>
      <trkpt lat="44.22236" lon="3.65188">
        <ele>603.4</ele>
        <time>2021-08-11T15:39:29Z</time>
      </trkpt>
      <trkpt lat="44.22229" lon="3.65188">
        <ele>603.6</ele>
        <time>2021-08-11T15:39:31Z</time>
      </trkpt>
      <trkpt lat="44.22223" lon="3.65187">
        <ele>603.7</ele>
        <time>2021-08-11T15:39:33Z</time>
      </trkpt>
      <trkpt lat="44.22217" lon="3.65187">
        <ele>603.8</ele>
        <time>2021-08-11T15:39:35Z</time>
      </trkpt>
      <trkpt lat="44.22211" lon="3.65189">
        <ele>603.4</ele>
        <time>2021-08-11T15:39:37Z</time>
      </trkpt>
      <trkpt lat="44.22206" lon="3.65196">
        <ele>602.1</ele>
        <time>2021-08-11T15:39:39Z</time>
      </trkpt>
      <trkpt lat="44.22203" lon="3.65204">
        <ele>600.5</ele>
        <time>2021-08-11T15:39:41Z</time>
      </trkpt>
      <trkpt lat="44.222" lon="3.65214">
        <ele>598.7</ele>
        <time>2021-08-11T15:39:43Z</time>
      </trkpt>
      <trkpt lat="44.22199" lon="3.65225">
        <ele>596.8</ele>
        <time>2021-08-11T15:39:45Z</time>
      </trkpt>
      <trkpt lat="44.22197" lon="3.65234">
        <ele>595.1</ele>
        <time>2021-08-11T15:39:47Z</time>
      </trkpt>
      <trkpt lat="44.22194" lon="3.65242">
        <ele>593.9</ele>
        <time>2021-08-11T15:39:49Z</time>
      </trkpt>
      <trkpt lat="44.22192" lon="3.65249">
        <ele>592.8</ele>
        <time>2021-08-11T15:39:51Z</time>
      </trkpt>
      <trkpt lat="44.22189" lon="3.65256">
        <ele>591.5</ele>
        <time>2021-08-11T15:39:53Z</time>
      </trkpt>
      <trkpt lat="44.22185" lon="3.65261">
        <ele>590.8</ele>
        <time>2021-08-11T15:39:55Z</time>
      </trkpt>
      <trkpt lat="44.22181" lon="3.65264">
        <ele>590.5</ele>
        <time>2021-08-11T15:39:57Z</time>
      </trkpt>
      <trkpt lat="44.22178" lon="3.65266">
        <ele>590.5</ele>
        <time>2021-08-11T15:39:59Z</time>
      </trkpt>
      <trkpt lat="44.22178" lon="3.65266">
        <ele>590.4</ele>
        <time>2021-08-11T15:40:01Z</time>
      </trkpt>
      <trkpt lat="44.22178" lon="3.65266">
        <ele>590.5</ele>
        <time>2021-08-11T15:40:03Z</time>
      </trkpt>
      <trkpt lat="44.22178" lon="3.65266">
        <ele>590.5</ele>
        <time>2021-08-11T15:40:05Z</time>
      </trkpt>
      <trkpt lat="44.22178" lon="3.65266">
        <ele>590.5</ele>
        <time>2021-08-11T15:40:07Z</time>
      </trkpt>
      <trkpt lat="44.22178" lon="3.65267">
        <ele>590.3</ele>
        <time>2021-08-11T15:40:09Z</time>
      </trkpt>
      <trkpt lat="44.22171" lon="3.65269">
        <ele>590.5</ele>
        <time>2021-08-11T15:40:43Z</time>
      </trkpt>
      <trkpt lat="44.22167" lon="3.65272">
        <ele>590.5</ele>
        <time>2021-08-11T15:40:45Z</time>
      </trkpt>
      <trkpt lat="44.22162" lon="3.65273">
        <ele>589.2</ele>
        <time>2021-08-11T15:40:47Z</time>
      </trkpt>
      <trkpt lat="44.22157" lon="3.65273">
        <ele>587.8</ele>
        <time>2021-08-11T15:40:49Z</time>
      </trkpt>
      <trkpt lat="44.22153" lon="3.65272">
        <ele>586.7</ele>
        <time>2021-08-11T15:40:51Z</time>
      </trkpt>
      <trkpt lat="44.22148" lon="3.65269">
        <ele>586.2</ele>
        <time>2021-08-11T15:40:53Z</time>
      </trkpt>
      <trkpt lat="44.22144" lon="3.65264">
        <ele>586</ele>
        <time>2021-08-11T15:40:55Z</time>
      </trkpt>
      <trkpt lat="44.22141" lon="3.65257">
        <ele>586.4</ele>
        <time>2021-08-11T15:40:57Z</time>
      </trkpt>
      <trkpt lat="44.22141" lon="3.65249">
        <ele>587.8</ele>
        <time>2021-08-11T15:40:59Z</time>
      </trkpt>
      <trkpt lat="44.22141" lon="3.65242">
        <ele>588.6</ele>
        <time>2021-08-11T15:41:01Z</time>
      </trkpt>
      <trkpt lat="44.22141" lon="3.65234">
        <ele>589.4</ele>
        <time>2021-08-11T15:41:03Z</time>
      </trkpt>
      <trkpt lat="44.22141" lon="3.65227">
        <ele>590.2</ele>
        <time>2021-08-11T15:41:05Z</time>
      </trkpt>
      <trkpt lat="44.22141" lon="3.65218">
        <ele>591.3</ele>
        <time>2021-08-11T15:41:07Z</time>
      </trkpt>
      <trkpt lat="44.22141" lon="3.65209">
        <ele>592.3</ele>
        <time>2021-08-11T15:41:09Z</time>
      </trkpt>
      <trkpt lat="44.22141" lon="3.652">
        <ele>593.6</ele>
        <time>2021-08-11T15:41:11Z</time>
      </trkpt>
      <trkpt lat="44.22141" lon="3.65192">
        <ele>594.5</ele>
        <time>2021-08-11T15:41:13Z</time>
      </trkpt>
      <trkpt lat="44.22141" lon="3.65183">
        <ele>595.5</ele>
        <time>2021-08-11T15:41:15Z</time>
      </trkpt>
      <trkpt lat="44.22141" lon="3.65174">
        <ele>596.6</ele>
        <time>2021-08-11T15:41:17Z</time>
      </trkpt>
      <trkpt lat="44.2214" lon="3.65166">
        <ele>597.2</ele>
        <time>2021-08-11T15:41:19Z</time>
      </trkpt>
      <trkpt lat="44.22139" lon="3.65157">
        <ele>598.1</ele>
        <time>2021-08-11T15:41:21Z</time>
      </trkpt>
      <trkpt lat="44.22139" lon="3.65148">
        <ele>599.3</ele>
        <time>2021-08-11T15:41:23Z</time>
      </trkpt>
      <trkpt lat="44.22138" lon="3.65139">
        <ele>600.2</ele>
        <time>2021-08-11T15:41:25Z</time>
      </trkpt>
      <trkpt lat="44.22137" lon="3.65131">
        <ele>601.2</ele>
        <time>2021-08-11T15:41:27Z</time>
      </trkpt>
      <trkpt lat="44.22136" lon="3.65122">
        <ele>602.1</ele>
        <time>2021-08-11T15:41:29Z</time>
      </trkpt>
      <trkpt lat="44.22136" lon="3.65114">
        <ele>603.1</ele>
        <time>2021-08-11T15:41:31Z</time>
      </trkpt>
      <trkpt lat="44.22136" lon="3.65107">
        <ele>604.4</ele>
        <time>2021-08-11T15:41:33Z</time>
      </trkpt>
      <trkpt lat="44.22137" lon="3.65098">
        <ele>605.9</ele>
        <time>2021-08-11T15:41:35Z</time>
      </trkpt>
      <trkpt lat="44.22137" lon="3.65089">
        <ele>607.3</ele>
        <time>2021-08-11T15:41:37Z</time>
      </trkpt>
      <trkpt lat="44.22138" lon="3.6508">
        <ele>609.1</ele>
        <time>2021-08-11T15:41:39Z</time>
      </trkpt>
      <trkpt lat="44.22139" lon="3.65071">
        <ele>611.2</ele>
        <time>2021-08-11T15:41:41Z</time>
      </trkpt>
      <trkpt lat="44.22139" lon="3.65062">
        <ele>612.9</ele>
        <time>2021-08-11T15:41:43Z</time>
      </trkpt>
      <trkpt lat="44.22138" lon="3.65053">
        <ele>614.5</ele>
        <time>2021-08-11T15:41:45Z</time>
      </trkpt>
      <trkpt lat="44.22137" lon="3.65044">
        <ele>615.9</ele>
        <time>2021-08-11T15:41:47Z</time>
      </trkpt>
      <trkpt lat="44.22134" lon="3.65035">
        <ele>617</ele>
        <time>2021-08-11T15:41:49Z</time>
      </trkpt>
      <trkpt lat="44.2213" lon="3.65028">
        <ele>617.2</ele>
        <time>2021-08-11T15:41:51Z</time>
      </trkpt>
      <trkpt lat="44.22124" lon="3.65023">
        <ele>616.4</ele>
        <time>2021-08-11T15:41:53Z</time>
      </trkpt>
      <trkpt lat="44.22119" lon="3.6502">
        <ele>615.6</ele>
        <time>2021-08-11T15:41:55Z</time>
      </trkpt>
      <trkpt lat="44.22114" lon="3.65018">
        <ele>614.2</ele>
        <time>2021-08-11T15:41:57Z</time>
      </trkpt>
      <trkpt lat="44.22107" lon="3.65018">
        <ele>612.3</ele>
        <time>2021-08-11T15:41:59Z</time>
      </trkpt>
      <trkpt lat="44.22101" lon="3.65015">
        <ele>610.8</ele>
        <time>2021-08-11T15:42:01Z</time>
      </trkpt>
      <trkpt lat="44.22094" lon="3.65014">
        <ele>609.2</ele>
        <time>2021-08-11T15:42:03Z</time>
      </trkpt>
      <trkpt lat="44.22088" lon="3.65011">
        <ele>608</ele>
        <time>2021-08-11T15:42:05Z</time>
      </trkpt>
      <trkpt lat="44.22083" lon="3.65009">
        <ele>606.7</ele>
        <time>2021-08-11T15:42:07Z</time>
      </trkpt>
      <trkpt lat="44.22076" lon="3.65007">
        <ele>605.1</ele>
        <time>2021-08-11T15:42:09Z</time>
      </trkpt>
      <trkpt lat="44.2207" lon="3.65003">
        <ele>604.2</ele>
        <time>2021-08-11T15:42:11Z</time>
      </trkpt>
      <trkpt lat="44.22065" lon="3.65001">
        <ele>603</ele>
        <time>2021-08-11T15:42:13Z</time>
      </trkpt>
      <trkpt lat="44.2206" lon="3.64997">
        <ele>602.4</ele>
        <time>2021-08-11T15:42:15Z</time>
      </trkpt>
      <trkpt lat="44.22055" lon="3.64994">
        <ele>601.5</ele>
        <time>2021-08-11T15:42:17Z</time>
      </trkpt>
      <trkpt lat="44.2205" lon="3.64991">
        <ele>600.7</ele>
        <time>2021-08-11T15:42:19Z</time>
      </trkpt>
      <trkpt lat="44.22046" lon="3.64988">
        <ele>599.9</ele>
        <time>2021-08-11T15:42:21Z</time>
      </trkpt>
      <trkpt lat="44.22041" lon="3.64985">
        <ele>599</ele>
        <time>2021-08-11T15:42:23Z</time>
      </trkpt>
      <trkpt lat="44.22037" lon="3.64982">
        <ele>598.1</ele>
        <time>2021-08-11T15:42:25Z</time>
      </trkpt>
      <trkpt lat="44.22033" lon="3.64979">
        <ele>597.4</ele>
        <time>2021-08-11T15:42:27Z</time>
      </trkpt>
      <trkpt lat="44.2203" lon="3.64973">
        <ele>597.4</ele>
        <time>2021-08-11T15:42:29Z</time>
      </trkpt>
      <trkpt lat="44.22027" lon="3.64967">
        <ele>597.7</ele>
        <time>2021-08-11T15:42:31Z</time>
      </trkpt>
      <trkpt lat="44.22026" lon="3.64959">
        <ele>598.5</ele>
        <time>2021-08-11T15:42:33Z</time>
      </trkpt>
      <trkpt lat="44.22024" lon="3.64952">
        <ele>599.1</ele>
        <time>2021-08-11T15:42:35Z</time>
      </trkpt>
      <trkpt lat="44.22023" lon="3.64945">
        <ele>600</ele>
        <time>2021-08-11T15:42:37Z</time>
      </trkpt>
      <trkpt lat="44.22022" lon="3.64937">
        <ele>601</ele>
        <time>2021-08-11T15:42:39Z</time>
      </trkpt>
      <trkpt lat="44.22021" lon="3.6493">
        <ele>602.1</ele>
        <time>2021-08-11T15:42:41Z</time>
      </trkpt>
      <trkpt lat="44.2202" lon="3.64922">
        <ele>603.1</ele>
        <time>2021-08-11T15:42:43Z</time>
      </trkpt>
      <trkpt lat="44.22019" lon="3.64914">
        <ele>604</ele>
        <time>2021-08-11T15:42:45Z</time>
      </trkpt>
      <trkpt lat="44.22019" lon="3.64906">
        <ele>604.5</ele>
        <time>2021-08-11T15:42:47Z</time>
      </trkpt>
      <trkpt lat="44.22018" lon="3.64898">
        <ele>605.1</ele>
        <time>2021-08-11T15:42:49Z</time>
      </trkpt>
      <trkpt lat="44.22018" lon="3.6489">
        <ele>605.8</ele>
        <time>2021-08-11T15:42:51Z</time>
      </trkpt>
      <trkpt lat="44.22017" lon="3.64882">
        <ele>606.4</ele>
        <time>2021-08-11T15:42:53Z</time>
      </trkpt>
      <trkpt lat="44.22017" lon="3.64874">
        <ele>607.1</ele>
        <time>2021-08-11T15:42:55Z</time>
      </trkpt>
      <trkpt lat="44.22017" lon="3.64865">
        <ele>608</ele>
        <time>2021-08-11T15:42:57Z</time>
      </trkpt>
      <trkpt lat="44.22017" lon="3.64857">
        <ele>608.8</ele>
        <time>2021-08-11T15:42:59Z</time>
      </trkpt>
      <trkpt lat="44.22017" lon="3.64848">
        <ele>609.7</ele>
        <time>2021-08-11T15:43:01Z</time>
      </trkpt>
      <trkpt lat="44.22017" lon="3.64839">
        <ele>610.6</ele>
        <time>2021-08-11T15:43:03Z</time>
      </trkpt>
      <trkpt lat="44.22016" lon="3.64831">
        <ele>611.1</ele>
        <time>2021-08-11T15:43:05Z</time>
      </trkpt>
      <trkpt lat="44.22017" lon="3.64822">
        <ele>611.4</ele>
        <time>2021-08-11T15:43:07Z</time>
      </trkpt>
      <trkpt lat="44.22016" lon="3.64812">
        <ele>611.4</ele>
        <time>2021-08-11T15:43:09Z</time>
      </trkpt>
      <trkpt lat="44.22016" lon="3.64803">
        <ele>611.6</ele>
        <time>2021-08-11T15:43:11Z</time>
      </trkpt>
      <trkpt lat="44.22016" lon="3.64794">
        <ele>611.8</ele>
        <time>2021-08-11T15:43:13Z</time>
      </trkpt>
      <trkpt lat="44.22016" lon="3.64785">
        <ele>612</ele>
        <time>2021-08-11T15:43:15Z</time>
      </trkpt>
      <trkpt lat="44.22017" lon="3.64776">
        <ele>612.4</ele>
        <time>2021-08-11T15:43:17Z</time>
      </trkpt>
      <trkpt lat="44.22017" lon="3.64767">
        <ele>613</ele>
        <time>2021-08-11T15:43:19Z</time>
      </trkpt>
      <trkpt lat="44.22018" lon="3.64758">
        <ele>613.9</ele>
        <time>2021-08-11T15:43:21Z</time>
      </trkpt>
      <trkpt lat="44.2202" lon="3.6475">
        <ele>615.1</ele>
        <time>2021-08-11T15:43:23Z</time>
      </trkpt>
      <trkpt lat="44.22021" lon="3.64741">
        <ele>616.4</ele>
        <time>2021-08-11T15:43:25Z</time>
      </trkpt>
      <trkpt lat="44.22021" lon="3.64731">
        <ele>617.1</ele>
        <time>2021-08-11T15:43:27Z</time>
      </trkpt>
      <trkpt lat="44.22021" lon="3.64721">
        <ele>617.8</ele>
        <time>2021-08-11T15:43:29Z</time>
      </trkpt>
      <trkpt lat="44.22021" lon="3.64713">
        <ele>618.5</ele>
        <time>2021-08-11T15:43:31Z</time>
      </trkpt>
      <trkpt lat="44.22022" lon="3.64703">
        <ele>619.1</ele>
        <time>2021-08-11T15:43:33Z</time>
      </trkpt>
      <trkpt lat="44.22023" lon="3.64695">
        <ele>620.3</ele>
        <time>2021-08-11T15:43:35Z</time>
      </trkpt>
      <trkpt lat="44.22026" lon="3.64686">
        <ele>622.4</ele>
        <time>2021-08-11T15:43:37Z</time>
      </trkpt>
      <trkpt lat="44.22028" lon="3.64678">
        <ele>624.4</ele>
        <time>2021-08-11T15:43:39Z</time>
      </trkpt>
      <trkpt lat="44.2203" lon="3.6467">
        <ele>625.9</ele>
        <time>2021-08-11T15:43:41Z</time>
      </trkpt>
      <trkpt lat="44.22032" lon="3.64661">
        <ele>627.2</ele>
        <time>2021-08-11T15:43:43Z</time>
      </trkpt>
      <trkpt lat="44.22033" lon="3.64652">
        <ele>628.8</ele>
        <time>2021-08-11T15:43:45Z</time>
      </trkpt>
      <trkpt lat="44.22033" lon="3.64643">
        <ele>629.9</ele>
        <time>2021-08-11T15:43:47Z</time>
      </trkpt>
      <trkpt lat="44.22033" lon="3.64634">
        <ele>630.8</ele>
        <time>2021-08-11T15:43:49Z</time>
      </trkpt>
      <trkpt lat="44.22033" lon="3.64625">
        <ele>631.6</ele>
        <time>2021-08-11T15:43:51Z</time>
      </trkpt>
      <trkpt lat="44.22033" lon="3.64616">
        <ele>632.2</ele>
        <time>2021-08-11T15:43:53Z</time>
      </trkpt>
      <trkpt lat="44.22033" lon="3.64607">
        <ele>633</ele>
        <time>2021-08-11T15:43:55Z</time>
      </trkpt>
      <trkpt lat="44.22031" lon="3.64598">
        <ele>633.1</ele>
        <time>2021-08-11T15:43:57Z</time>
      </trkpt>
      <trkpt lat="44.2203" lon="3.6459">
        <ele>633.3</ele>
        <time>2021-08-11T15:43:59Z</time>
      </trkpt>
      <trkpt lat="44.22027" lon="3.64583">
        <ele>633.3</ele>
        <time>2021-08-11T15:44:01Z</time>
      </trkpt>
      <trkpt lat="44.22024" lon="3.64576">
        <ele>633.1</ele>
        <time>2021-08-11T15:44:03Z</time>
      </trkpt>
      <trkpt lat="44.22018" lon="3.64572">
        <ele>631.7</ele>
        <time>2021-08-11T15:44:05Z</time>
      </trkpt>
      <trkpt lat="44.22012" lon="3.64571">
        <ele>629.3</ele>
        <time>2021-08-11T15:44:07Z</time>
      </trkpt>
      <trkpt lat="44.22006" lon="3.64576">
        <ele>625.9</ele>
        <time>2021-08-11T15:44:09Z</time>
      </trkpt>
      <trkpt lat="44.22" lon="3.6458">
        <ele>622.7</ele>
        <time>2021-08-11T15:44:11Z</time>
      </trkpt>
      <trkpt lat="44.21996" lon="3.64588">
        <ele>622.1</ele>
        <time>2021-08-11T15:44:13Z</time>
      </trkpt>
      <trkpt lat="44.21994" lon="3.64595">
        <ele>621.5</ele>
        <time>2021-08-11T15:44:15Z</time>
      </trkpt>
      <trkpt lat="44.21991" lon="3.64603">
        <ele>620.7</ele>
        <time>2021-08-11T15:44:17Z</time>
      </trkpt>
      <trkpt lat="44.21988" lon="3.64611">
        <ele>619.8</ele>
        <time>2021-08-11T15:44:19Z</time>
      </trkpt>
      <trkpt lat="44.21986" lon="3.64618">
        <ele>618.9</ele>
        <time>2021-08-11T15:44:21Z</time>
      </trkpt>
      <trkpt lat="44.21984" lon="3.64626">
        <ele>617.8</ele>
        <time>2021-08-11T15:44:23Z</time>
      </trkpt>
      <trkpt lat="44.21981" lon="3.64633">
        <ele>616.9</ele>
        <time>2021-08-11T15:44:25Z</time>
      </trkpt>
      <trkpt lat="44.21979" lon="3.64639">
        <ele>615.9</ele>
        <time>2021-08-11T15:44:27Z</time>
      </trkpt>
      <trkpt lat="44.21976" lon="3.64645">
        <ele>614.9</ele>
        <time>2021-08-11T15:44:29Z</time>
      </trkpt>
      <trkpt lat="44.21973" lon="3.64651">
        <ele>614</ele>
        <time>2021-08-11T15:44:31Z</time>
      </trkpt>
      <trkpt lat="44.21969" lon="3.64656">
        <ele>613.3</ele>
        <time>2021-08-11T15:44:33Z</time>
      </trkpt>
      <trkpt lat="44.21964" lon="3.6466">
        <ele>612.7</ele>
        <time>2021-08-11T15:44:35Z</time>
      </trkpt>
      <trkpt lat="44.21959" lon="3.64664">
        <ele>612.1</ele>
        <time>2021-08-11T15:44:37Z</time>
      </trkpt>
      <trkpt lat="44.21955" lon="3.64667">
        <ele>611.7</ele>
        <time>2021-08-11T15:44:39Z</time>
      </trkpt>
      <trkpt lat="44.2195" lon="3.64667">
        <ele>611.8</ele>
        <time>2021-08-11T15:44:41Z</time>
      </trkpt>
      <trkpt lat="44.21945" lon="3.64667">
        <ele>611.9</ele>
        <time>2021-08-11T15:44:43Z</time>
      </trkpt>
      <trkpt lat="44.2194" lon="3.64667">
        <ele>612.1</ele>
        <time>2021-08-11T15:44:45Z</time>
      </trkpt>
      <trkpt lat="44.21936" lon="3.64666">
        <ele>612.4</ele>
        <time>2021-08-11T15:44:47Z</time>
      </trkpt>
      <trkpt lat="44.21931" lon="3.64665">
        <ele>613</ele>
        <time>2021-08-11T15:44:49Z</time>
      </trkpt>
      <trkpt lat="44.21927" lon="3.64663">
        <ele>613.6</ele>
        <time>2021-08-11T15:44:51Z</time>
      </trkpt>
      <trkpt lat="44.21923" lon="3.64662">
        <ele>614.2</ele>
        <time>2021-08-11T15:44:53Z</time>
      </trkpt>
      <trkpt lat="44.21919" lon="3.6466">
        <ele>614.9</ele>
        <time>2021-08-11T15:44:55Z</time>
      </trkpt>
      <trkpt lat="44.21915" lon="3.64658">
        <ele>615.9</ele>
        <time>2021-08-11T15:44:57Z</time>
      </trkpt>
      <trkpt lat="44.21911" lon="3.64655">
        <ele>616.9</ele>
        <time>2021-08-11T15:44:59Z</time>
      </trkpt>
      <trkpt lat="44.21907" lon="3.64652">
        <ele>618</ele>
        <time>2021-08-11T15:45:01Z</time>
      </trkpt>
      <trkpt lat="44.21903" lon="3.64649">
        <ele>619.2</ele>
        <time>2021-08-11T15:45:03Z</time>
      </trkpt>
      <trkpt lat="44.21899" lon="3.64647">
        <ele>620.2</ele>
        <time>2021-08-11T15:45:05Z</time>
      </trkpt>
      <trkpt lat="44.21895" lon="3.64644">
        <ele>621.3</ele>
        <time>2021-08-11T15:45:07Z</time>
      </trkpt>
      <trkpt lat="44.21891" lon="3.64643">
        <ele>622</ele>
        <time>2021-08-11T15:45:09Z</time>
      </trkpt>
      <trkpt lat="44.21887" lon="3.64642">
        <ele>622.7</ele>
        <time>2021-08-11T15:45:11Z</time>
      </trkpt>
      <trkpt lat="44.21884" lon="3.6464">
        <ele>623.4</ele>
        <time>2021-08-11T15:45:13Z</time>
      </trkpt>
      <trkpt lat="44.21879" lon="3.64639">
        <ele>624.1</ele>
        <time>2021-08-11T15:45:15Z</time>
      </trkpt>
      <trkpt lat="44.21875" lon="3.64638">
        <ele>624.7</ele>
        <time>2021-08-11T15:45:17Z</time>
      </trkpt>
      <trkpt lat="44.2187" lon="3.64638">
        <ele>625</ele>
        <time>2021-08-11T15:45:19Z</time>
      </trkpt>
      <trkpt lat="44.21866" lon="3.64637">
        <ele>625.4</ele>
        <time>2021-08-11T15:45:21Z</time>
      </trkpt>
      <trkpt lat="44.21861" lon="3.64637">
        <ele>625.7</ele>
        <time>2021-08-11T15:45:23Z</time>
      </trkpt>
      <trkpt lat="44.21856" lon="3.64638">
        <ele>625.9</ele>
        <time>2021-08-11T15:45:25Z</time>
      </trkpt>
      <trkpt lat="44.21852" lon="3.64638">
        <ele>626</ele>
        <time>2021-08-11T15:45:27Z</time>
      </trkpt>
      <trkpt lat="44.21847" lon="3.64639">
        <ele>626</ele>
        <time>2021-08-11T15:45:29Z</time>
      </trkpt>
      <trkpt lat="44.21843" lon="3.64639">
        <ele>626.3</ele>
        <time>2021-08-11T15:45:31Z</time>
      </trkpt>
      <trkpt lat="44.21838" lon="3.64639">
        <ele>626.5</ele>
        <time>2021-08-11T15:45:33Z</time>
      </trkpt>
      <trkpt lat="44.21833" lon="3.6464">
        <ele>626.6</ele>
        <time>2021-08-11T15:45:35Z</time>
      </trkpt>
      <trkpt lat="44.21829" lon="3.6464">
        <ele>627</ele>
        <time>2021-08-11T15:45:37Z</time>
      </trkpt>
      <trkpt lat="44.21825" lon="3.6464">
        <ele>627.5</ele>
        <time>2021-08-11T15:45:39Z</time>
      </trkpt>
      <trkpt lat="44.2182" lon="3.64641">
        <ele>627.9</ele>
        <time>2021-08-11T15:45:41Z</time>
      </trkpt>
      <trkpt lat="44.21815" lon="3.64641">
        <ele>628.3</ele>
        <time>2021-08-11T15:45:43Z</time>
      </trkpt>
      <trkpt lat="44.21811" lon="3.64642">
        <ele>628.6</ele>
        <time>2021-08-11T15:45:45Z</time>
      </trkpt>
      <trkpt lat="44.21806" lon="3.64643">
        <ele>629.1</ele>
        <time>2021-08-11T15:45:47Z</time>
      </trkpt>
      <trkpt lat="44.21801" lon="3.64643">
        <ele>629.7</ele>
        <time>2021-08-11T15:45:49Z</time>
      </trkpt>
      <trkpt lat="44.21797" lon="3.64644">
        <ele>630.1</ele>
        <time>2021-08-11T15:45:51Z</time>
      </trkpt>
      <trkpt lat="44.21792" lon="3.64644">
        <ele>630.6</ele>
        <time>2021-08-11T15:45:53Z</time>
      </trkpt>
      <trkpt lat="44.21788" lon="3.64644">
        <ele>631.2</ele>
        <time>2021-08-11T15:45:55Z</time>
      </trkpt>
      <trkpt lat="44.21783" lon="3.64645">
        <ele>631.6</ele>
        <time>2021-08-11T15:45:57Z</time>
      </trkpt>
      <trkpt lat="44.21779" lon="3.64644">
        <ele>632.3</ele>
        <time>2021-08-11T15:45:59Z</time>
      </trkpt>
      <trkpt lat="44.21775" lon="3.64642">
        <ele>633.2</ele>
        <time>2021-08-11T15:46:01Z</time>
      </trkpt>
      <trkpt lat="44.21771" lon="3.64641">
        <ele>634</ele>
        <time>2021-08-11T15:46:03Z</time>
      </trkpt>
      <trkpt lat="44.21767" lon="3.64638">
        <ele>634.8</ele>
        <time>2021-08-11T15:46:05Z</time>
      </trkpt>
      <trkpt lat="44.21763" lon="3.64635">
        <ele>635.7</ele>
        <time>2021-08-11T15:46:07Z</time>
      </trkpt>
      <trkpt lat="44.21759" lon="3.64632">
        <ele>636.5</ele>
        <time>2021-08-11T15:46:09Z</time>
      </trkpt>
      <trkpt lat="44.21754" lon="3.6463">
        <ele>637.1</ele>
        <time>2021-08-11T15:46:11Z</time>
      </trkpt>
      <trkpt lat="44.2175" lon="3.64631">
        <ele>637.5</ele>
        <time>2021-08-11T15:46:13Z</time>
      </trkpt>
      <trkpt lat="44.21746" lon="3.64631">
        <ele>639.3</ele>
        <time>2021-08-11T15:46:15Z</time>
      </trkpt>
      <trkpt lat="44.21742" lon="3.64633">
        <ele>640.8</ele>
        <time>2021-08-11T15:46:17Z</time>
      </trkpt>
      <trkpt lat="44.21739" lon="3.64635">
        <ele>642</ele>
        <time>2021-08-11T15:46:19Z</time>
      </trkpt>
      <trkpt lat="44.21737" lon="3.6464">
        <ele>642.4</ele>
        <time>2021-08-11T15:46:21Z</time>
      </trkpt>
      <trkpt lat="44.21736" lon="3.64646">
        <ele>642.1</ele>
        <time>2021-08-11T15:46:23Z</time>
      </trkpt>
      <trkpt lat="44.21737" lon="3.64652">
        <ele>641.3</ele>
        <time>2021-08-11T15:46:25Z</time>
      </trkpt>
      <trkpt lat="44.21738" lon="3.64657">
        <ele>640.5</ele>
        <time>2021-08-11T15:46:27Z</time>
      </trkpt>
      <trkpt lat="44.21739" lon="3.64662">
        <ele>639.8</ele>
        <time>2021-08-11T15:46:29Z</time>
      </trkpt>
      <trkpt lat="44.2174" lon="3.64667">
        <ele>638.5</ele>
        <time>2021-08-11T15:46:31Z</time>
      </trkpt>
      <trkpt lat="44.21743" lon="3.64672">
        <ele>637.4</ele>
        <time>2021-08-11T15:46:33Z</time>
      </trkpt>
      <trkpt lat="44.21745" lon="3.64677">
        <ele>636.7</ele>
        <time>2021-08-11T15:46:35Z</time>
      </trkpt>
      <trkpt lat="44.21746" lon="3.64682">
        <ele>636.3</ele>
        <time>2021-08-11T15:46:37Z</time>
      </trkpt>
      <trkpt lat="44.21748" lon="3.64686">
        <ele>635.1</ele>
        <time>2021-08-11T15:46:39Z</time>
      </trkpt>
      <trkpt lat="44.21751" lon="3.6469">
        <ele>634.2</ele>
        <time>2021-08-11T15:46:41Z</time>
      </trkpt>
      <trkpt lat="44.21754" lon="3.64694">
        <ele>633.8</ele>
        <time>2021-08-11T15:46:43Z</time>
      </trkpt>
      <trkpt lat="44.21757" lon="3.64698">
        <ele>633.2</ele>
        <time>2021-08-11T15:46:45Z</time>
      </trkpt>
      <trkpt lat="44.2176" lon="3.64702">
        <ele>632.6</ele>
        <time>2021-08-11T15:46:47Z</time>
      </trkpt>
      <trkpt lat="44.21763" lon="3.64706">
        <ele>632</ele>
        <time>2021-08-11T15:46:49Z</time>
      </trkpt>
      <trkpt lat="44.21766" lon="3.64709">
        <ele>631.4</ele>
        <time>2021-08-11T15:46:51Z</time>
      </trkpt>
      <trkpt lat="44.21769" lon="3.64711">
        <ele>630.6</ele>
        <time>2021-08-11T15:46:53Z</time>
      </trkpt>
      <trkpt lat="44.21772" lon="3.64714">
        <ele>629.9</ele>
        <time>2021-08-11T15:46:55Z</time>
      </trkpt>
      <trkpt lat="44.21775" lon="3.64716">
        <ele>629.1</ele>
        <time>2021-08-11T15:46:57Z</time>
      </trkpt>
      <trkpt lat="44.21779" lon="3.64718">
        <ele>628.3</ele>
        <time>2021-08-11T15:46:59Z</time>
      </trkpt>
      <trkpt lat="44.21782" lon="3.6472">
        <ele>627.6</ele>
        <time>2021-08-11T15:47:01Z</time>
      </trkpt>
      <trkpt lat="44.21785" lon="3.64723">
        <ele>626.8</ele>
        <time>2021-08-11T15:47:03Z</time>
      </trkpt>
      <trkpt lat="44.21788" lon="3.64725">
        <ele>626</ele>
        <time>2021-08-11T15:47:05Z</time>
      </trkpt>
      <trkpt lat="44.21791" lon="3.64728">
        <ele>625.2</ele>
        <time>2021-08-11T15:47:07Z</time>
      </trkpt>
      <trkpt lat="44.21795" lon="3.64729">
        <ele>624.3</ele>
        <time>2021-08-11T15:47:09Z</time>
      </trkpt>
      <trkpt lat="44.21798" lon="3.64732">
        <ele>623.5</ele>
        <time>2021-08-11T15:47:11Z</time>
      </trkpt>
      <trkpt lat="44.21801" lon="3.64735">
        <ele>622.6</ele>
        <time>2021-08-11T15:47:13Z</time>
      </trkpt>
      <trkpt lat="44.21804" lon="3.64738">
        <ele>621.8</ele>
        <time>2021-08-11T15:47:15Z</time>
      </trkpt>
      <trkpt lat="44.21807" lon="3.64741">
        <ele>621</ele>
        <time>2021-08-11T15:47:17Z</time>
      </trkpt>
      <trkpt lat="44.2181" lon="3.64744">
        <ele>620.2</ele>
        <time>2021-08-11T15:47:19Z</time>
      </trkpt>
      <trkpt lat="44.21813" lon="3.64747">
        <ele>619.4</ele>
        <time>2021-08-11T15:47:21Z</time>
      </trkpt>
      <trkpt lat="44.21816" lon="3.64751">
        <ele>618.6</ele>
        <time>2021-08-11T15:47:23Z</time>
      </trkpt>
      <trkpt lat="44.21818" lon="3.64755">
        <ele>617.4</ele>
        <time>2021-08-11T15:47:25Z</time>
      </trkpt>
      <trkpt lat="44.21819" lon="3.64759">
        <ele>616.5</ele>
        <time>2021-08-11T15:47:27Z</time>
      </trkpt>
      <trkpt lat="44.21821" lon="3.64764">
        <ele>615.5</ele>
        <time>2021-08-11T15:47:29Z</time>
      </trkpt>
      <trkpt lat="44.2182" lon="3.64769">
        <ele>614.9</ele>
        <time>2021-08-11T15:47:31Z</time>
      </trkpt>
      <trkpt lat="44.21817" lon="3.64773">
        <ele>615.2</ele>
        <time>2021-08-11T15:47:33Z</time>
      </trkpt>
      <trkpt lat="44.21813" lon="3.64775">
        <ele>615.9</ele>
        <time>2021-08-11T15:47:35Z</time>
      </trkpt>
      <trkpt lat="44.21809" lon="3.64774">
        <ele>616.8</ele>
        <time>2021-08-11T15:47:37Z</time>
      </trkpt>
      <trkpt lat="44.21805" lon="3.64773">
        <ele>617.8</ele>
        <time>2021-08-11T15:47:39Z</time>
      </trkpt>
      <trkpt lat="44.21802" lon="3.64772">
        <ele>618.6</ele>
        <time>2021-08-11T15:47:41Z</time>
      </trkpt>
      <trkpt lat="44.21799" lon="3.64771">
        <ele>619.6</ele>
        <time>2021-08-11T15:47:43Z</time>
      </trkpt>
      <trkpt lat="44.21796" lon="3.6477">
        <ele>620.5</ele>
        <time>2021-08-11T15:47:45Z</time>
      </trkpt>
      <trkpt lat="44.21792" lon="3.64768">
        <ele>621.7</ele>
        <time>2021-08-11T15:47:47Z</time>
      </trkpt>
      <trkpt lat="44.21787" lon="3.64767">
        <ele>623</ele>
        <time>2021-08-11T15:47:49Z</time>
      </trkpt>
      <trkpt lat="44.21784" lon="3.64766">
        <ele>624</ele>
        <time>2021-08-11T15:47:51Z</time>
      </trkpt>
      <trkpt lat="44.2178" lon="3.64766">
        <ele>625</ele>
        <time>2021-08-11T15:47:53Z</time>
      </trkpt>
      <trkpt lat="44.21776" lon="3.64765">
        <ele>626</ele>
        <time>2021-08-11T15:47:55Z</time>
      </trkpt>
      <trkpt lat="44.21772" lon="3.64766">
        <ele>626.7</ele>
        <time>2021-08-11T15:47:57Z</time>
      </trkpt>
      <trkpt lat="44.21769" lon="3.64766">
        <ele>627.5</ele>
        <time>2021-08-11T15:47:59Z</time>
      </trkpt>
      <trkpt lat="44.21765" lon="3.64768">
        <ele>628.1</ele>
        <time>2021-08-11T15:48:01Z</time>
      </trkpt>
      <trkpt lat="44.21761" lon="3.64769">
        <ele>628.6</ele>
        <time>2021-08-11T15:48:03Z</time>
      </trkpt>
      <trkpt lat="44.21757" lon="3.64769">
        <ele>629.4</ele>
        <time>2021-08-11T15:48:05Z</time>
      </trkpt>
      <trkpt lat="44.21754" lon="3.6477">
        <ele>630</ele>
        <time>2021-08-11T15:48:07Z</time>
      </trkpt>
      <trkpt lat="44.21751" lon="3.64772">
        <ele>630.3</ele>
        <time>2021-08-11T15:48:09Z</time>
      </trkpt>
      <trkpt lat="44.21747" lon="3.64774">
        <ele>630.7</ele>
        <time>2021-08-11T15:48:11Z</time>
      </trkpt>
      <trkpt lat="44.21743" lon="3.64775">
        <ele>631.2</ele>
        <time>2021-08-11T15:48:13Z</time>
      </trkpt>
      <trkpt lat="44.2174" lon="3.64776">
        <ele>631.7</ele>
        <time>2021-08-11T15:48:15Z</time>
      </trkpt>
      <trkpt lat="44.21736" lon="3.64778">
        <ele>631.9</ele>
        <time>2021-08-11T15:48:17Z</time>
      </trkpt>
      <trkpt lat="44.21733" lon="3.64779">
        <ele>632.2</ele>
        <time>2021-08-11T15:48:19Z</time>
      </trkpt>
      <trkpt lat="44.2173" lon="3.64781">
        <ele>632.4</ele>
        <time>2021-08-11T15:48:21Z</time>
      </trkpt>
      <trkpt lat="44.21726" lon="3.64783">
        <ele>632.5</ele>
        <time>2021-08-11T15:48:23Z</time>
      </trkpt>
      <trkpt lat="44.21723" lon="3.64785">
        <ele>632.6</ele>
        <time>2021-08-11T15:48:25Z</time>
      </trkpt>
      <trkpt lat="44.2172" lon="3.64786">
        <ele>632.9</ele>
        <time>2021-08-11T15:48:27Z</time>
      </trkpt>
      <trkpt lat="44.21716" lon="3.64788">
        <ele>633</ele>
        <time>2021-08-11T15:48:29Z</time>
      </trkpt>
      <trkpt lat="44.21713" lon="3.6479">
        <ele>633.1</ele>
        <time>2021-08-11T15:48:31Z</time>
      </trkpt>
      <trkpt lat="44.21709" lon="3.64791">
        <ele>633.1</ele>
        <time>2021-08-11T15:48:33Z</time>
      </trkpt>
      <trkpt lat="44.21706" lon="3.64793">
        <ele>633.4</ele>
        <time>2021-08-11T15:48:35Z</time>
      </trkpt>
      <trkpt lat="44.21702" lon="3.64794">
        <ele>633.7</ele>
        <time>2021-08-11T15:48:37Z</time>
      </trkpt>
      <trkpt lat="44.21698" lon="3.64795">
        <ele>634.2</ele>
        <time>2021-08-11T15:48:39Z</time>
      </trkpt>
      <trkpt lat="44.21694" lon="3.64795">
        <ele>634.7</ele>
        <time>2021-08-11T15:48:41Z</time>
      </trkpt>
      <trkpt lat="44.21691" lon="3.64796">
        <ele>635.1</ele>
        <time>2021-08-11T15:48:43Z</time>
      </trkpt>
      <trkpt lat="44.21687" lon="3.64795">
        <ele>636.1</ele>
        <time>2021-08-11T15:48:45Z</time>
      </trkpt>
      <trkpt lat="44.21683" lon="3.64794">
        <ele>637</ele>
        <time>2021-08-11T15:48:47Z</time>
      </trkpt>
      <trkpt lat="44.2168" lon="3.64793">
        <ele>638.1</ele>
        <time>2021-08-11T15:48:49Z</time>
      </trkpt>
      <trkpt lat="44.21676" lon="3.64791">
        <ele>639.3</ele>
        <time>2021-08-11T15:48:51Z</time>
      </trkpt>
      <trkpt lat="44.21673" lon="3.6479">
        <ele>640.4</ele>
        <time>2021-08-11T15:48:53Z</time>
      </trkpt>
      <trkpt lat="44.21669" lon="3.64789">
        <ele>641.5</ele>
        <time>2021-08-11T15:48:55Z</time>
      </trkpt>
      <trkpt lat="44.21665" lon="3.64788">
        <ele>642.5</ele>
        <time>2021-08-11T15:48:57Z</time>
      </trkpt>
      <trkpt lat="44.21662" lon="3.64787">
        <ele>643</ele>
        <time>2021-08-11T15:48:59Z</time>
      </trkpt>
      <trkpt lat="44.21658" lon="3.64786">
        <ele>643.2</ele>
        <time>2021-08-11T15:49:01Z</time>
      </trkpt>
      <trkpt lat="44.21654" lon="3.64784">
        <ele>644</ele>
        <time>2021-08-11T15:49:03Z</time>
      </trkpt>
      <trkpt lat="44.21651" lon="3.64782">
        <ele>644.5</ele>
        <time>2021-08-11T15:49:05Z</time>
      </trkpt>
      <trkpt lat="44.21647" lon="3.64781">
        <ele>644.9</ele>
        <time>2021-08-11T15:49:07Z</time>
      </trkpt>
      <trkpt lat="44.21644" lon="3.64779">
        <ele>645.6</ele>
        <time>2021-08-11T15:49:09Z</time>
      </trkpt>
      <trkpt lat="44.2164" lon="3.64777">
        <ele>646.3</ele>
        <time>2021-08-11T15:49:11Z</time>
      </trkpt>
      <trkpt lat="44.21637" lon="3.64774">
        <ele>647</ele>
        <time>2021-08-11T15:49:13Z</time>
      </trkpt>
      <trkpt lat="44.21634" lon="3.64772">
        <ele>647.7</ele>
        <time>2021-08-11T15:49:15Z</time>
      </trkpt>
      <trkpt lat="44.21631" lon="3.6477">
        <ele>648.4</ele>
        <time>2021-08-11T15:49:17Z</time>
      </trkpt>
      <trkpt lat="44.21628" lon="3.64767">
        <ele>649.1</ele>
        <time>2021-08-11T15:49:19Z</time>
      </trkpt>
      <trkpt lat="44.21625" lon="3.64765">
        <ele>649.8</ele>
        <time>2021-08-11T15:49:21Z</time>
      </trkpt>
      <trkpt lat="44.21622" lon="3.64761">
        <ele>650.9</ele>
        <time>2021-08-11T15:49:23Z</time>
      </trkpt>
      <trkpt lat="44.21619" lon="3.64759">
        <ele>651.3</ele>
        <time>2021-08-11T15:49:25Z</time>
      </trkpt>
      <trkpt lat="44.21616" lon="3.64756">
        <ele>651.8</ele>
        <time>2021-08-11T15:49:27Z</time>
      </trkpt>
      <trkpt lat="44.21613" lon="3.64754">
        <ele>652.2</ele>
        <time>2021-08-11T15:49:29Z</time>
      </trkpt>
      <trkpt lat="44.2161" lon="3.64752">
        <ele>652.6</ele>
        <time>2021-08-11T15:49:31Z</time>
      </trkpt>
      <trkpt lat="44.21607" lon="3.6475">
        <ele>652.9</ele>
        <time>2021-08-11T15:49:33Z</time>
      </trkpt>
      <trkpt lat="44.21604" lon="3.64748">
        <ele>653.2</ele>
        <time>2021-08-11T15:49:35Z</time>
      </trkpt>
      <trkpt lat="44.216" lon="3.64745">
        <ele>653.6</ele>
        <time>2021-08-11T15:49:37Z</time>
      </trkpt>
      <trkpt lat="44.21597" lon="3.64744">
        <ele>653.7</ele>
        <time>2021-08-11T15:49:39Z</time>
      </trkpt>
      <trkpt lat="44.21594" lon="3.64742">
        <ele>653.7</ele>
        <time>2021-08-11T15:49:41Z</time>
      </trkpt>
      <trkpt lat="44.2159" lon="3.64741">
        <ele>653.7</ele>
        <time>2021-08-11T15:49:43Z</time>
      </trkpt>
      <trkpt lat="44.21587" lon="3.6474">
        <ele>653.9</ele>
        <time>2021-08-11T15:49:45Z</time>
      </trkpt>
      <trkpt lat="44.21584" lon="3.64738">
        <ele>654</ele>
        <time>2021-08-11T15:49:47Z</time>
      </trkpt>
      <trkpt lat="44.21581" lon="3.64736">
        <ele>654.5</ele>
        <time>2021-08-11T15:49:49Z</time>
      </trkpt>
      <trkpt lat="44.21578" lon="3.64733">
        <ele>654.9</ele>
        <time>2021-08-11T15:49:51Z</time>
      </trkpt>
      <trkpt lat="44.21574" lon="3.6473">
        <ele>655.3</ele>
        <time>2021-08-11T15:49:53Z</time>
      </trkpt>
      <trkpt lat="44.21571" lon="3.64728">
        <ele>655.9</ele>
        <time>2021-08-11T15:49:55Z</time>
      </trkpt>
      <trkpt lat="44.21569" lon="3.64724">
        <ele>656.5</ele>
        <time>2021-08-11T15:49:57Z</time>
      </trkpt>
      <trkpt lat="44.21566" lon="3.6472">
        <ele>657.4</ele>
        <time>2021-08-11T15:49:59Z</time>
      </trkpt>
      <trkpt lat="44.21563" lon="3.64716">
        <ele>658.3</ele>
        <time>2021-08-11T15:50:01Z</time>
      </trkpt>
      <trkpt lat="44.21561" lon="3.64712">
        <ele>659.1</ele>
        <time>2021-08-11T15:50:03Z</time>
      </trkpt>
      <trkpt lat="44.21559" lon="3.64707">
        <ele>659.9</ele>
        <time>2021-08-11T15:50:05Z</time>
      </trkpt>
      <trkpt lat="44.21557" lon="3.64703">
        <ele>660.9</ele>
        <time>2021-08-11T15:50:07Z</time>
      </trkpt>
      <trkpt lat="44.21555" lon="3.64698">
        <ele>661.9</ele>
        <time>2021-08-11T15:50:09Z</time>
      </trkpt>
      <trkpt lat="44.21552" lon="3.64694">
        <ele>662.7</ele>
        <time>2021-08-11T15:50:11Z</time>
      </trkpt>
      <trkpt lat="44.21549" lon="3.64691">
        <ele>663.3</ele>
        <time>2021-08-11T15:50:13Z</time>
      </trkpt>
      <trkpt lat="44.21547" lon="3.64687">
        <ele>664.1</ele>
        <time>2021-08-11T15:50:15Z</time>
      </trkpt>
      <trkpt lat="44.21544" lon="3.64684">
        <ele>664.6</ele>
        <time>2021-08-11T15:50:17Z</time>
      </trkpt>
      <trkpt lat="44.21541" lon="3.64681">
        <ele>665</ele>
        <time>2021-08-11T15:50:19Z</time>
      </trkpt>
      <trkpt lat="44.21538" lon="3.64678">
        <ele>665.5</ele>
        <time>2021-08-11T15:50:21Z</time>
      </trkpt>
      <trkpt lat="44.21534" lon="3.64676">
        <ele>665.8</ele>
        <time>2021-08-11T15:50:23Z</time>
      </trkpt>
      <trkpt lat="44.21531" lon="3.64673">
        <ele>666</ele>
        <time>2021-08-11T15:50:25Z</time>
      </trkpt>
      <trkpt lat="44.21528" lon="3.64671">
        <ele>666.4</ele>
        <time>2021-08-11T15:50:27Z</time>
      </trkpt>
      <trkpt lat="44.21524" lon="3.64668">
        <ele>666.7</ele>
        <time>2021-08-11T15:50:29Z</time>
      </trkpt>
      <trkpt lat="44.21521" lon="3.64666">
        <ele>667</ele>
        <time>2021-08-11T15:50:31Z</time>
      </trkpt>
      <trkpt lat="44.21517" lon="3.64664">
        <ele>667.5</ele>
        <time>2021-08-11T15:50:33Z</time>
      </trkpt>
      <trkpt lat="44.21514" lon="3.64663">
        <ele>667.6</ele>
        <time>2021-08-11T15:50:35Z</time>
      </trkpt>
      <trkpt lat="44.2151" lon="3.64662">
        <ele>667.8</ele>
        <time>2021-08-11T15:50:37Z</time>
      </trkpt>
      <trkpt lat="44.21506" lon="3.64661">
        <ele>667.8</ele>
        <time>2021-08-11T15:50:39Z</time>
      </trkpt>
      <trkpt lat="44.21503" lon="3.6466">
        <ele>667.9</ele>
        <time>2021-08-11T15:50:41Z</time>
      </trkpt>
      <trkpt lat="44.21499" lon="3.64659">
        <ele>668.4</ele>
        <time>2021-08-11T15:50:43Z</time>
      </trkpt>
      <trkpt lat="44.21495" lon="3.64658">
        <ele>668.8</ele>
        <time>2021-08-11T15:50:45Z</time>
      </trkpt>
      <trkpt lat="44.21492" lon="3.64658">
        <ele>669.1</ele>
        <time>2021-08-11T15:50:47Z</time>
      </trkpt>
      <trkpt lat="44.21488" lon="3.64657">
        <ele>669.4</ele>
        <time>2021-08-11T15:50:49Z</time>
      </trkpt>
      <trkpt lat="44.21485" lon="3.64655">
        <ele>670.3</ele>
        <time>2021-08-11T15:50:51Z</time>
      </trkpt>
      <trkpt lat="44.2148" lon="3.64655">
        <ele>670.8</ele>
        <time>2021-08-11T15:50:53Z</time>
      </trkpt>
      <trkpt lat="44.21477" lon="3.64653">
        <ele>671.4</ele>
        <time>2021-08-11T15:50:55Z</time>
      </trkpt>
      <trkpt lat="44.21473" lon="3.64652">
        <ele>672</ele>
        <time>2021-08-11T15:50:57Z</time>
      </trkpt>
      <trkpt lat="44.21469" lon="3.64651">
        <ele>672.3</ele>
        <time>2021-08-11T15:50:59Z</time>
      </trkpt>
      <trkpt lat="44.21466" lon="3.64649">
        <ele>673.1</ele>
        <time>2021-08-11T15:51:01Z</time>
      </trkpt>
      <trkpt lat="44.21463" lon="3.64647">
        <ele>674</ele>
        <time>2021-08-11T15:51:03Z</time>
      </trkpt>
      <trkpt lat="44.21459" lon="3.64645">
        <ele>674.7</ele>
        <time>2021-08-11T15:51:05Z</time>
      </trkpt>
      <trkpt lat="44.21456" lon="3.64644">
        <ele>675.2</ele>
        <time>2021-08-11T15:51:07Z</time>
      </trkpt>
      <trkpt lat="44.21452" lon="3.64642">
        <ele>675.8</ele>
        <time>2021-08-11T15:51:09Z</time>
      </trkpt>
      <trkpt lat="44.21448" lon="3.64641">
        <ele>676.2</ele>
        <time>2021-08-11T15:51:11Z</time>
      </trkpt>
      <trkpt lat="44.21445" lon="3.6464">
        <ele>676.8</ele>
        <time>2021-08-11T15:51:13Z</time>
      </trkpt>
      <trkpt lat="44.21442" lon="3.64639">
        <ele>676.9</ele>
        <time>2021-08-11T15:51:15Z</time>
      </trkpt>
      <trkpt lat="44.21438" lon="3.64639">
        <ele>677</ele>
        <time>2021-08-11T15:51:17Z</time>
      </trkpt>
      <trkpt lat="44.21434" lon="3.64639">
        <ele>677.1</ele>
        <time>2021-08-11T15:51:19Z</time>
      </trkpt>
      <trkpt lat="44.2143" lon="3.64637">
        <ele>677.4</ele>
        <time>2021-08-11T15:51:21Z</time>
      </trkpt>
      <trkpt lat="44.21427" lon="3.64637">
        <ele>677.6</ele>
        <time>2021-08-11T15:51:23Z</time>
      </trkpt>
      <trkpt lat="44.21423" lon="3.64636">
        <ele>678</ele>
        <time>2021-08-11T15:51:25Z</time>
      </trkpt>
      <trkpt lat="44.21419" lon="3.64634">
        <ele>678.4</ele>
        <time>2021-08-11T15:51:27Z</time>
      </trkpt>
      <trkpt lat="44.21415" lon="3.64632">
        <ele>679.2</ele>
        <time>2021-08-11T15:51:29Z</time>
      </trkpt>
      <trkpt lat="44.21412" lon="3.64629">
        <ele>680.2</ele>
        <time>2021-08-11T15:51:31Z</time>
      </trkpt>
      <trkpt lat="44.21408" lon="3.64627">
        <ele>681.1</ele>
        <time>2021-08-11T15:51:33Z</time>
      </trkpt>
      <trkpt lat="44.21404" lon="3.64625">
        <ele>682</ele>
        <time>2021-08-11T15:51:35Z</time>
      </trkpt>
      <trkpt lat="44.21401" lon="3.64623">
        <ele>682.7</ele>
        <time>2021-08-11T15:51:37Z</time>
      </trkpt>
      <trkpt lat="44.21398" lon="3.64621">
        <ele>683.3</ele>
        <time>2021-08-11T15:51:39Z</time>
      </trkpt>
      <trkpt lat="44.21394" lon="3.64618">
        <ele>684.1</ele>
        <time>2021-08-11T15:51:41Z</time>
      </trkpt>
      <trkpt lat="44.2139" lon="3.64615">
        <ele>684.8</ele>
        <time>2021-08-11T15:51:43Z</time>
      </trkpt>
      <trkpt lat="44.21386" lon="3.64613">
        <ele>685.3</ele>
        <time>2021-08-11T15:51:45Z</time>
      </trkpt>
      <trkpt lat="44.21382" lon="3.64612">
        <ele>685.6</ele>
        <time>2021-08-11T15:51:47Z</time>
      </trkpt>
      <trkpt lat="44.21379" lon="3.6461">
        <ele>686</ele>
        <time>2021-08-11T15:51:49Z</time>
      </trkpt>
      <trkpt lat="44.21375" lon="3.64607">
        <ele>686.4</ele>
        <time>2021-08-11T15:51:51Z</time>
      </trkpt>
      <trkpt lat="44.21372" lon="3.64605">
        <ele>686.6</ele>
        <time>2021-08-11T15:51:53Z</time>
      </trkpt>
      <trkpt lat="44.21368" lon="3.64604">
        <ele>686.7</ele>
        <time>2021-08-11T15:51:55Z</time>
      </trkpt>
      <trkpt lat="44.21364" lon="3.64603">
        <ele>686.8</ele>
        <time>2021-08-11T15:51:57Z</time>
      </trkpt>
      <trkpt lat="44.2136" lon="3.64602">
        <ele>686.8</ele>
        <time>2021-08-11T15:51:59Z</time>
      </trkpt>
      <trkpt lat="44.21356" lon="3.64603">
        <ele>686.7</ele>
        <time>2021-08-11T15:52:01Z</time>
      </trkpt>
      <trkpt lat="44.21352" lon="3.64605">
        <ele>686.6</ele>
        <time>2021-08-11T15:52:03Z</time>
      </trkpt>
      <trkpt lat="44.21349" lon="3.64607">
        <ele>686.5</ele>
        <time>2021-08-11T15:52:05Z</time>
      </trkpt>
      <trkpt lat="44.21346" lon="3.64611">
        <ele>686.4</ele>
        <time>2021-08-11T15:52:07Z</time>
      </trkpt>
      <trkpt lat="44.21344" lon="3.64616">
        <ele>686.4</ele>
        <time>2021-08-11T15:52:09Z</time>
      </trkpt>
      <trkpt lat="44.21343" lon="3.64622">
        <ele>686.4</ele>
        <time>2021-08-11T15:52:11Z</time>
      </trkpt>
      <trkpt lat="44.21342" lon="3.64628">
        <ele>686.4</ele>
        <time>2021-08-11T15:52:13Z</time>
      </trkpt>
      <trkpt lat="44.21342" lon="3.64633">
        <ele>686.3</ele>
        <time>2021-08-11T15:52:15Z</time>
      </trkpt>
      <trkpt lat="44.21342" lon="3.64638">
        <ele>686.2</ele>
        <time>2021-08-11T15:52:17Z</time>
      </trkpt>
      <trkpt lat="44.21343" lon="3.64643">
        <ele>686.1</ele>
        <time>2021-08-11T15:52:19Z</time>
      </trkpt>
      <trkpt lat="44.21344" lon="3.64648">
        <ele>685.8</ele>
        <time>2021-08-11T15:52:21Z</time>
      </trkpt>
      <trkpt lat="44.21346" lon="3.64652">
        <ele>685.5</ele>
        <time>2021-08-11T15:52:23Z</time>
      </trkpt>
      <trkpt lat="44.21348" lon="3.64657">
        <ele>685</ele>
        <time>2021-08-11T15:52:25Z</time>
      </trkpt>
      <trkpt lat="44.21349" lon="3.64662">
        <ele>684.6</ele>
        <time>2021-08-11T15:52:27Z</time>
      </trkpt>
      <trkpt lat="44.21351" lon="3.64665">
        <ele>684</ele>
        <time>2021-08-11T15:52:29Z</time>
      </trkpt>
      <trkpt lat="44.21353" lon="3.64669">
        <ele>683.8</ele>
        <time>2021-08-11T15:52:31Z</time>
      </trkpt>
      <trkpt lat="44.21355" lon="3.64674">
        <ele>683.6</ele>
        <time>2021-08-11T15:52:33Z</time>
      </trkpt>
      <trkpt lat="44.21357" lon="3.64678">
        <ele>683.5</ele>
        <time>2021-08-11T15:52:35Z</time>
      </trkpt>
      <trkpt lat="44.21359" lon="3.64681">
        <ele>683.3</ele>
        <time>2021-08-11T15:52:37Z</time>
      </trkpt>
      <trkpt lat="44.21361" lon="3.64685">
        <ele>683</ele>
        <time>2021-08-11T15:52:39Z</time>
      </trkpt>
      <trkpt lat="44.21363" lon="3.64689">
        <ele>682.9</ele>
        <time>2021-08-11T15:52:41Z</time>
      </trkpt>
      <trkpt lat="44.21365" lon="3.64693">
        <ele>682.7</ele>
        <time>2021-08-11T15:52:43Z</time>
      </trkpt>
      <trkpt lat="44.21367" lon="3.64698">
        <ele>682.5</ele>
        <time>2021-08-11T15:52:45Z</time>
      </trkpt>
      <trkpt lat="44.21368" lon="3.64702">
        <ele>682.4</ele>
        <time>2021-08-11T15:52:47Z</time>
      </trkpt>
      <trkpt lat="44.21369" lon="3.64706">
        <ele>682.4</ele>
        <time>2021-08-11T15:52:49Z</time>
      </trkpt>
      <trkpt lat="44.2137" lon="3.64711">
        <ele>682.4</ele>
        <time>2021-08-11T15:52:51Z</time>
      </trkpt>
      <trkpt lat="44.21371" lon="3.64716">
        <ele>682.2</ele>
        <time>2021-08-11T15:52:53Z</time>
      </trkpt>
      <trkpt lat="44.21373" lon="3.64721">
        <ele>682.1</ele>
        <time>2021-08-11T15:52:55Z</time>
      </trkpt>
      <trkpt lat="44.21374" lon="3.64726">
        <ele>682.1</ele>
        <time>2021-08-11T15:52:57Z</time>
      </trkpt>
      <trkpt lat="44.21375" lon="3.64731">
        <ele>681.8</ele>
        <time>2021-08-11T15:52:59Z</time>
      </trkpt>
      <trkpt lat="44.21377" lon="3.64735">
        <ele>681.6</ele>
        <time>2021-08-11T15:53:01Z</time>
      </trkpt>
      <trkpt lat="44.21378" lon="3.6474">
        <ele>681.3</ele>
        <time>2021-08-11T15:53:03Z</time>
      </trkpt>
      <trkpt lat="44.21379" lon="3.64744">
        <ele>681.3</ele>
        <time>2021-08-11T15:53:05Z</time>
      </trkpt>
      <trkpt lat="44.2138" lon="3.64749">
        <ele>681.2</ele>
        <time>2021-08-11T15:53:07Z</time>
      </trkpt>
      <trkpt lat="44.21381" lon="3.64754">
        <ele>681.2</ele>
        <time>2021-08-11T15:53:09Z</time>
      </trkpt>
      <trkpt lat="44.21382" lon="3.6476">
        <ele>681.6</ele>
        <time>2021-08-11T15:53:11Z</time>
      </trkpt>
      <trkpt lat="44.21383" lon="3.64764">
        <ele>681.6</ele>
        <time>2021-08-11T15:53:13Z</time>
      </trkpt>
      <trkpt lat="44.21384" lon="3.6477">
        <ele>682.1</ele>
        <time>2021-08-11T15:53:15Z</time>
      </trkpt>
      <trkpt lat="44.21383" lon="3.64775">
        <ele>682.7</ele>
        <time>2021-08-11T15:53:17Z</time>
      </trkpt>
      <trkpt lat="44.21383" lon="3.6478">
        <ele>683.3</ele>
        <time>2021-08-11T15:53:19Z</time>
      </trkpt>
      <trkpt lat="44.21383" lon="3.64786">
        <ele>683.9</ele>
        <time>2021-08-11T15:53:21Z</time>
      </trkpt>
      <trkpt lat="44.21383" lon="3.64791">
        <ele>684.6</ele>
        <time>2021-08-11T15:53:23Z</time>
      </trkpt>
      <trkpt lat="44.21383" lon="3.64796">
        <ele>685.3</ele>
        <time>2021-08-11T15:53:25Z</time>
      </trkpt>
      <trkpt lat="44.21382" lon="3.64801">
        <ele>686</ele>
        <time>2021-08-11T15:53:27Z</time>
      </trkpt>
      <trkpt lat="44.21382" lon="3.64806">
        <ele>686.8</ele>
        <time>2021-08-11T15:53:29Z</time>
      </trkpt>
      <trkpt lat="44.21381" lon="3.6481">
        <ele>687.4</ele>
        <time>2021-08-11T15:53:31Z</time>
      </trkpt>
      <trkpt lat="44.21381" lon="3.64815">
        <ele>688.2</ele>
        <time>2021-08-11T15:53:33Z</time>
      </trkpt>
      <trkpt lat="44.2138" lon="3.6482">
        <ele>689.2</ele>
        <time>2021-08-11T15:53:35Z</time>
      </trkpt>
      <trkpt lat="44.21379" lon="3.64825">
        <ele>689.8</ele>
        <time>2021-08-11T15:53:37Z</time>
      </trkpt>
      <trkpt lat="44.21379" lon="3.64831">
        <ele>690.6</ele>
        <time>2021-08-11T15:53:39Z</time>
      </trkpt>
      <trkpt lat="44.21378" lon="3.64836">
        <ele>691.6</ele>
        <time>2021-08-11T15:53:41Z</time>
      </trkpt>
      <trkpt lat="44.21378" lon="3.6484">
        <ele>692.6</ele>
        <time>2021-08-11T15:53:43Z</time>
      </trkpt>
      <trkpt lat="44.21378" lon="3.64845">
        <ele>693.4</ele>
        <time>2021-08-11T15:53:45Z</time>
      </trkpt>
      <trkpt lat="44.21378" lon="3.6485">
        <ele>694.1</ele>
        <time>2021-08-11T15:53:47Z</time>
      </trkpt>
      <trkpt lat="44.21379" lon="3.64854">
        <ele>694.6</ele>
        <time>2021-08-11T15:53:49Z</time>
      </trkpt>
      <trkpt lat="44.2138" lon="3.64858">
        <ele>695.1</ele>
        <time>2021-08-11T15:53:51Z</time>
      </trkpt>
      <trkpt lat="44.21381" lon="3.64862">
        <ele>695.2</ele>
        <time>2021-08-11T15:53:53Z</time>
      </trkpt>
      <trkpt lat="44.21383" lon="3.64866">
        <ele>695.2</ele>
        <time>2021-08-11T15:53:55Z</time>
      </trkpt>
      <trkpt lat="44.21385" lon="3.64869">
        <ele>694.7</ele>
        <time>2021-08-11T15:53:57Z</time>
      </trkpt>
      <trkpt lat="44.21387" lon="3.64872">
        <ele>694.5</ele>
        <time>2021-08-11T15:53:59Z</time>
      </trkpt>
      <trkpt lat="44.21389" lon="3.64875">
        <ele>694.2</ele>
        <time>2021-08-11T15:54:01Z</time>
      </trkpt>
      <trkpt lat="44.21392" lon="3.64879">
        <ele>693.9</ele>
        <time>2021-08-11T15:54:03Z</time>
      </trkpt>
      <trkpt lat="44.21394" lon="3.64882">
        <ele>693.5</ele>
        <time>2021-08-11T15:54:05Z</time>
      </trkpt>
      <trkpt lat="44.21397" lon="3.64884">
        <ele>692.9</ele>
        <time>2021-08-11T15:54:07Z</time>
      </trkpt>
      <trkpt lat="44.21399" lon="3.64886">
        <ele>692.2</ele>
        <time>2021-08-11T15:54:09Z</time>
      </trkpt>
      <trkpt lat="44.21402" lon="3.6489">
        <ele>692</ele>
        <time>2021-08-11T15:54:11Z</time>
      </trkpt>
      <trkpt lat="44.21404" lon="3.64892">
        <ele>691.3</ele>
        <time>2021-08-11T15:54:13Z</time>
      </trkpt>
      <trkpt lat="44.21408" lon="3.64895">
        <ele>690.6</ele>
        <time>2021-08-11T15:54:15Z</time>
      </trkpt>
      <trkpt lat="44.21411" lon="3.64897">
        <ele>689.8</ele>
        <time>2021-08-11T15:54:17Z</time>
      </trkpt>
      <trkpt lat="44.21414" lon="3.64899">
        <ele>688.9</ele>
        <time>2021-08-11T15:54:19Z</time>
      </trkpt>
      <trkpt lat="44.21417" lon="3.649">
        <ele>688</ele>
        <time>2021-08-11T15:54:21Z</time>
      </trkpt>
      <trkpt lat="44.2142" lon="3.64902">
        <ele>687.5</ele>
        <time>2021-08-11T15:54:23Z</time>
      </trkpt>
      <trkpt lat="44.21422" lon="3.64903">
        <ele>687.1</ele>
        <time>2021-08-11T15:54:25Z</time>
      </trkpt>
      <trkpt lat="44.21426" lon="3.64905">
        <ele>686.7</ele>
        <time>2021-08-11T15:54:27Z</time>
      </trkpt>
      <trkpt lat="44.21429" lon="3.64907">
        <ele>686.2</ele>
        <time>2021-08-11T15:54:29Z</time>
      </trkpt>
      <trkpt lat="44.21431" lon="3.64909">
        <ele>686</ele>
        <time>2021-08-11T15:54:31Z</time>
      </trkpt>
      <trkpt lat="44.21435" lon="3.64911">
        <ele>685.5</ele>
        <time>2021-08-11T15:54:33Z</time>
      </trkpt>
      <trkpt lat="44.21437" lon="3.64915">
        <ele>685.7</ele>
        <time>2021-08-11T15:54:35Z</time>
      </trkpt>
      <trkpt lat="44.21439" lon="3.64919">
        <ele>685.7</ele>
        <time>2021-08-11T15:54:37Z</time>
      </trkpt>
      <trkpt lat="44.2144" lon="3.64925">
        <ele>685.7</ele>
        <time>2021-08-11T15:54:39Z</time>
      </trkpt>
      <trkpt lat="44.2144" lon="3.64931">
        <ele>686.1</ele>
        <time>2021-08-11T15:54:41Z</time>
      </trkpt>
      <trkpt lat="44.21439" lon="3.64936">
        <ele>686.5</ele>
        <time>2021-08-11T15:54:43Z</time>
      </trkpt>
      <trkpt lat="44.21438" lon="3.64941">
        <ele>687.1</ele>
        <time>2021-08-11T15:54:45Z</time>
      </trkpt>
      <trkpt lat="44.21434" lon="3.64944">
        <ele>688</ele>
        <time>2021-08-11T15:54:47Z</time>
      </trkpt>
      <trkpt lat="44.21432" lon="3.64947">
        <ele>688.7</ele>
        <time>2021-08-11T15:54:49Z</time>
      </trkpt>
      <trkpt lat="44.21429" lon="3.6495">
        <ele>689.6</ele>
        <time>2021-08-11T15:54:51Z</time>
      </trkpt>
      <trkpt lat="44.21426" lon="3.64953">
        <ele>690.4</ele>
        <time>2021-08-11T15:54:53Z</time>
      </trkpt>
      <trkpt lat="44.21425" lon="3.64955">
        <ele>690.8</ele>
        <time>2021-08-11T15:54:55Z</time>
      </trkpt>
      <trkpt lat="44.21422" lon="3.64958">
        <ele>691.7</ele>
        <time>2021-08-11T15:54:57Z</time>
      </trkpt>
      <trkpt lat="44.21419" lon="3.64961">
        <ele>692.5</ele>
        <time>2021-08-11T15:54:59Z</time>
      </trkpt>
      <trkpt lat="44.21418" lon="3.64964">
        <ele>693.1</ele>
        <time>2021-08-11T15:55:01Z</time>
      </trkpt>
      <trkpt lat="44.21415" lon="3.64968">
        <ele>694</ele>
        <time>2021-08-11T15:55:03Z</time>
      </trkpt>
      <trkpt lat="44.21412" lon="3.6497">
        <ele>695</ele>
        <time>2021-08-11T15:55:05Z</time>
      </trkpt>
      <trkpt lat="44.2141" lon="3.64973">
        <ele>695.8</ele>
        <time>2021-08-11T15:55:07Z</time>
      </trkpt>
      <trkpt lat="44.21407" lon="3.64976">
        <ele>696.7</ele>
        <time>2021-08-11T15:55:09Z</time>
      </trkpt>
      <trkpt lat="44.21404" lon="3.64979">
        <ele>697.6</ele>
        <time>2021-08-11T15:55:11Z</time>
      </trkpt>
      <trkpt lat="44.21401" lon="3.64982">
        <ele>698.4</ele>
        <time>2021-08-11T15:55:13Z</time>
      </trkpt>
      <trkpt lat="44.21398" lon="3.64985">
        <ele>699.4</ele>
        <time>2021-08-11T15:55:15Z</time>
      </trkpt>
      <trkpt lat="44.21396" lon="3.64987">
        <ele>700</ele>
        <time>2021-08-11T15:55:17Z</time>
      </trkpt>
      <trkpt lat="44.21393" lon="3.6499">
        <ele>701</ele>
        <time>2021-08-11T15:55:19Z</time>
      </trkpt>
      <trkpt lat="44.21389" lon="3.64993">
        <ele>701.8</ele>
        <time>2021-08-11T15:55:21Z</time>
      </trkpt>
      <trkpt lat="44.21385" lon="3.64996">
        <ele>702.9</ele>
        <time>2021-08-11T15:55:23Z</time>
      </trkpt>
      <trkpt lat="44.21383" lon="3.64999">
        <ele>703.4</ele>
        <time>2021-08-11T15:55:25Z</time>
      </trkpt>
      <trkpt lat="44.2138" lon="3.65001">
        <ele>704.2</ele>
        <time>2021-08-11T15:55:27Z</time>
      </trkpt>
      <trkpt lat="44.21378" lon="3.65004">
        <ele>704.9</ele>
        <time>2021-08-11T15:55:29Z</time>
      </trkpt>
      <trkpt lat="44.21375" lon="3.65006">
        <ele>705.7</ele>
        <time>2021-08-11T15:55:31Z</time>
      </trkpt>
      <trkpt lat="44.21371" lon="3.65008">
        <ele>706.6</ele>
        <time>2021-08-11T15:55:33Z</time>
      </trkpt>
      <trkpt lat="44.21367" lon="3.65009">
        <ele>707.7</ele>
        <time>2021-08-11T15:55:35Z</time>
      </trkpt>
      <trkpt lat="44.21363" lon="3.6501">
        <ele>708.5</ele>
        <time>2021-08-11T15:55:37Z</time>
      </trkpt>
      <trkpt lat="44.2136" lon="3.65011">
        <ele>709.5</ele>
        <time>2021-08-11T15:55:39Z</time>
      </trkpt>
      <trkpt lat="44.21357" lon="3.65012">
        <ele>710.1</ele>
        <time>2021-08-11T15:55:41Z</time>
      </trkpt>
      <trkpt lat="44.21354" lon="3.65013">
        <ele>710.9</ele>
        <time>2021-08-11T15:55:43Z</time>
      </trkpt>
      <trkpt lat="44.21351" lon="3.65015">
        <ele>711.6</ele>
        <time>2021-08-11T15:55:45Z</time>
      </trkpt>
      <trkpt lat="44.21347" lon="3.65018">
        <ele>712.5</ele>
        <time>2021-08-11T15:55:47Z</time>
      </trkpt>
      <trkpt lat="44.21344" lon="3.6502">
        <ele>713.3</ele>
        <time>2021-08-11T15:55:49Z</time>
      </trkpt>
      <trkpt lat="44.21341" lon="3.65022">
        <ele>713.9</ele>
        <time>2021-08-11T15:55:51Z</time>
      </trkpt>
      <trkpt lat="44.21338" lon="3.65024">
        <ele>714.6</ele>
        <time>2021-08-11T15:55:53Z</time>
      </trkpt>
      <trkpt lat="44.21336" lon="3.65027">
        <ele>715</ele>
        <time>2021-08-11T15:55:55Z</time>
      </trkpt>
      <trkpt lat="44.21334" lon="3.65031">
        <ele>715.4</ele>
        <time>2021-08-11T15:55:57Z</time>
      </trkpt>
      <trkpt lat="44.21331" lon="3.65035">
        <ele>716.2</ele>
        <time>2021-08-11T15:55:59Z</time>
      </trkpt>
      <trkpt lat="44.21328" lon="3.65038">
        <ele>717.1</ele>
        <time>2021-08-11T15:56:01Z</time>
      </trkpt>
      <trkpt lat="44.21324" lon="3.65042">
        <ele>718.1</ele>
        <time>2021-08-11T15:56:03Z</time>
      </trkpt>
      <trkpt lat="44.21322" lon="3.65046">
        <ele>718.6</ele>
        <time>2021-08-11T15:56:05Z</time>
      </trkpt>
      <trkpt lat="44.2132" lon="3.6505">
        <ele>719</ele>
        <time>2021-08-11T15:56:07Z</time>
      </trkpt>
      <trkpt lat="44.21318" lon="3.65055">
        <ele>719.5</ele>
        <time>2021-08-11T15:56:09Z</time>
      </trkpt>
      <trkpt lat="44.21316" lon="3.6506">
        <ele>719.9</ele>
        <time>2021-08-11T15:56:11Z</time>
      </trkpt>
      <trkpt lat="44.21314" lon="3.65065">
        <ele>720.2</ele>
        <time>2021-08-11T15:56:13Z</time>
      </trkpt>
      <trkpt lat="44.21314" lon="3.65069">
        <ele>720</ele>
        <time>2021-08-11T15:56:15Z</time>
      </trkpt>
      <trkpt lat="44.21315" lon="3.65074">
        <ele>719.6</ele>
        <time>2021-08-11T15:56:17Z</time>
      </trkpt>
      <trkpt lat="44.21316" lon="3.65077">
        <ele>719.2</ele>
        <time>2021-08-11T15:56:19Z</time>
      </trkpt>
      <trkpt lat="44.21319" lon="3.6508">
        <ele>718.4</ele>
        <time>2021-08-11T15:56:21Z</time>
      </trkpt>
      <trkpt lat="44.21321" lon="3.65083">
        <ele>717.8</ele>
        <time>2021-08-11T15:56:23Z</time>
      </trkpt>
      <trkpt lat="44.21323" lon="3.65086">
        <ele>717.8</ele>
        <time>2021-08-11T15:56:25Z</time>
      </trkpt>
      <trkpt lat="44.21327" lon="3.65086">
        <ele>717.1</ele>
        <time>2021-08-11T15:56:27Z</time>
      </trkpt>
      <trkpt lat="44.2133" lon="3.65086">
        <ele>716.3</ele>
        <time>2021-08-11T15:56:29Z</time>
      </trkpt>
      <trkpt lat="44.21334" lon="3.65087">
        <ele>715.7</ele>
        <time>2021-08-11T15:56:31Z</time>
      </trkpt>
      <trkpt lat="44.21338" lon="3.65089">
        <ele>715.3</ele>
        <time>2021-08-11T15:56:33Z</time>
      </trkpt>
      <trkpt lat="44.21341" lon="3.65089">
        <ele>714.8</ele>
        <time>2021-08-11T15:56:35Z</time>
      </trkpt>
      <trkpt lat="44.21344" lon="3.65092">
        <ele>714.7</ele>
        <time>2021-08-11T15:56:37Z</time>
      </trkpt>
      <trkpt lat="44.21347" lon="3.65093">
        <ele>714.3</ele>
        <time>2021-08-11T15:56:39Z</time>
      </trkpt>
      <trkpt lat="44.21351" lon="3.65095">
        <ele>714</ele>
        <time>2021-08-11T15:56:41Z</time>
      </trkpt>
      <trkpt lat="44.21354" lon="3.65096">
        <ele>713.6</ele>
        <time>2021-08-11T15:56:43Z</time>
      </trkpt>
      <trkpt lat="44.21359" lon="3.65097">
        <ele>713.1</ele>
        <time>2021-08-11T15:56:45Z</time>
      </trkpt>
      <trkpt lat="44.21362" lon="3.651">
        <ele>713</ele>
        <time>2021-08-11T15:56:47Z</time>
      </trkpt>
      <trkpt lat="44.21365" lon="3.65103">
        <ele>712.9</ele>
        <time>2021-08-11T15:56:49Z</time>
      </trkpt>
      <trkpt lat="44.21369" lon="3.65106">
        <ele>712.8</ele>
        <time>2021-08-11T15:56:51Z</time>
      </trkpt>
      <trkpt lat="44.21371" lon="3.65109">
        <ele>712.9</ele>
        <time>2021-08-11T15:56:53Z</time>
      </trkpt>
      <trkpt lat="44.21374" lon="3.65114">
        <ele>713.2</ele>
        <time>2021-08-11T15:56:55Z</time>
      </trkpt>
      <trkpt lat="44.21377" lon="3.65119">
        <ele>713.6</ele>
        <time>2021-08-11T15:56:57Z</time>
      </trkpt>
      <trkpt lat="44.21379" lon="3.65124">
        <ele>713.9</ele>
        <time>2021-08-11T15:56:59Z</time>
      </trkpt>
      <trkpt lat="44.21381" lon="3.65128">
        <ele>714.3</ele>
        <time>2021-08-11T15:57:01Z</time>
      </trkpt>
      <trkpt lat="44.21383" lon="3.65133">
        <ele>714.8</ele>
        <time>2021-08-11T15:57:03Z</time>
      </trkpt>
      <trkpt lat="44.21385" lon="3.65139">
        <ele>715.5</ele>
        <time>2021-08-11T15:57:05Z</time>
      </trkpt>
      <trkpt lat="44.21385" lon="3.65145">
        <ele>716.5</ele>
        <time>2021-08-11T15:57:07Z</time>
      </trkpt>
      <trkpt lat="44.21386" lon="3.65151">
        <ele>717.2</ele>
        <time>2021-08-11T15:57:09Z</time>
      </trkpt>
      <trkpt lat="44.21387" lon="3.65155">
        <ele>717.7</ele>
        <time>2021-08-11T15:57:11Z</time>
      </trkpt>
      <trkpt lat="44.21389" lon="3.6516">
        <ele>718.2</ele>
        <time>2021-08-11T15:57:13Z</time>
      </trkpt>
      <trkpt lat="44.2139" lon="3.65164">
        <ele>718.7</ele>
        <time>2021-08-11T15:57:15Z</time>
      </trkpt>
      <trkpt lat="44.21392" lon="3.65169">
        <ele>719</ele>
        <time>2021-08-11T15:57:17Z</time>
      </trkpt>
      <trkpt lat="44.21394" lon="3.65173">
        <ele>718.8</ele>
        <time>2021-08-11T15:57:19Z</time>
      </trkpt>
      <trkpt lat="44.21396" lon="3.65178">
        <ele>718.8</ele>
        <time>2021-08-11T15:57:21Z</time>
      </trkpt>
      <trkpt lat="44.21398" lon="3.65183">
        <ele>718.9</ele>
        <time>2021-08-11T15:57:23Z</time>
      </trkpt>
      <trkpt lat="44.21399" lon="3.65188">
        <ele>719</ele>
        <time>2021-08-11T15:57:25Z</time>
      </trkpt>
      <trkpt lat="44.21401" lon="3.65192">
        <ele>718.9</ele>
        <time>2021-08-11T15:57:27Z</time>
      </trkpt>
      <trkpt lat="44.21402" lon="3.65197">
        <ele>719.2</ele>
        <time>2021-08-11T15:57:29Z</time>
      </trkpt>
      <trkpt lat="44.21404" lon="3.65202">
        <ele>719.2</ele>
        <time>2021-08-11T15:57:31Z</time>
      </trkpt>
      <trkpt lat="44.21405" lon="3.65206">
        <ele>719.2</ele>
        <time>2021-08-11T15:57:33Z</time>
      </trkpt>
      <trkpt lat="44.21406" lon="3.6521">
        <ele>719.3</ele>
        <time>2021-08-11T15:57:35Z</time>
      </trkpt>
      <trkpt lat="44.21407" lon="3.65215">
        <ele>719.6</ele>
        <time>2021-08-11T15:57:37Z</time>
      </trkpt>
      <trkpt lat="44.21407" lon="3.6522">
        <ele>719.8</ele>
        <time>2021-08-11T15:57:39Z</time>
      </trkpt>
      <trkpt lat="44.21409" lon="3.65225">
        <ele>720</ele>
        <time>2021-08-11T15:57:41Z</time>
      </trkpt>
      <trkpt lat="44.21409" lon="3.6523">
        <ele>720.2</ele>
        <time>2021-08-11T15:57:43Z</time>
      </trkpt>
      <trkpt lat="44.21411" lon="3.65235">
        <ele>720.2</ele>
        <time>2021-08-11T15:57:45Z</time>
      </trkpt>
      <trkpt lat="44.21411" lon="3.6524">
        <ele>720.7</ele>
        <time>2021-08-11T15:57:47Z</time>
      </trkpt>
      <trkpt lat="44.21411" lon="3.65246">
        <ele>721.3</ele>
        <time>2021-08-11T15:57:49Z</time>
      </trkpt>
      <trkpt lat="44.21411" lon="3.65251">
        <ele>721.7</ele>
        <time>2021-08-11T15:57:51Z</time>
      </trkpt>
      <trkpt lat="44.21411" lon="3.65257">
        <ele>722.4</ele>
        <time>2021-08-11T15:57:53Z</time>
      </trkpt>
      <trkpt lat="44.2141" lon="3.65263">
        <ele>723.1</ele>
        <time>2021-08-11T15:57:55Z</time>
      </trkpt>
      <trkpt lat="44.21409" lon="3.65268">
        <ele>723.9</ele>
        <time>2021-08-11T15:57:57Z</time>
      </trkpt>
      <trkpt lat="44.21408" lon="3.65274">
        <ele>724.6</ele>
        <time>2021-08-11T15:57:59Z</time>
      </trkpt>
      <trkpt lat="44.21408" lon="3.65279">
        <ele>725.1</ele>
        <time>2021-08-11T15:58:01Z</time>
      </trkpt>
      <trkpt lat="44.21407" lon="3.65284">
        <ele>725.9</ele>
        <time>2021-08-11T15:58:03Z</time>
      </trkpt>
      <trkpt lat="44.21406" lon="3.65289">
        <ele>726.7</ele>
        <time>2021-08-11T15:58:05Z</time>
      </trkpt>
      <trkpt lat="44.21405" lon="3.65295">
        <ele>727.6</ele>
        <time>2021-08-11T15:58:07Z</time>
      </trkpt>
      <trkpt lat="44.21404" lon="3.65301">
        <ele>728.3</ele>
        <time>2021-08-11T15:58:09Z</time>
      </trkpt>
      <trkpt lat="44.21403" lon="3.65306">
        <ele>729</ele>
        <time>2021-08-11T15:58:11Z</time>
      </trkpt>
      <trkpt lat="44.21402" lon="3.65312">
        <ele>729.8</ele>
        <time>2021-08-11T15:58:13Z</time>
      </trkpt>
      <trkpt lat="44.21403" lon="3.65318">
        <ele>730.3</ele>
        <time>2021-08-11T15:58:15Z</time>
      </trkpt>
      <trkpt lat="44.21403" lon="3.65324">
        <ele>730.8</ele>
        <time>2021-08-11T15:58:17Z</time>
      </trkpt>
      <trkpt lat="44.21403" lon="3.6533">
        <ele>731.2</ele>
        <time>2021-08-11T15:58:19Z</time>
      </trkpt>
      <trkpt lat="44.21404" lon="3.65335">
        <ele>731.4</ele>
        <time>2021-08-11T15:58:21Z</time>
      </trkpt>
      <trkpt lat="44.21405" lon="3.65341">
        <ele>731.7</ele>
        <time>2021-08-11T15:58:23Z</time>
      </trkpt>
      <trkpt lat="44.21406" lon="3.65346">
        <ele>731.7</ele>
        <time>2021-08-11T15:58:25Z</time>
      </trkpt>
      <trkpt lat="44.21407" lon="3.65351">
        <ele>731.5</ele>
        <time>2021-08-11T15:58:27Z</time>
      </trkpt>
      <trkpt lat="44.21409" lon="3.65356">
        <ele>731.3</ele>
        <time>2021-08-11T15:58:29Z</time>
      </trkpt>
      <trkpt lat="44.21411" lon="3.6536">
        <ele>731.1</ele>
        <time>2021-08-11T15:58:31Z</time>
      </trkpt>
      <trkpt lat="44.21413" lon="3.65363">
        <ele>730.6</ele>
        <time>2021-08-11T15:58:33Z</time>
      </trkpt>
      <trkpt lat="44.21416" lon="3.65366">
        <ele>730.3</ele>
        <time>2021-08-11T15:58:35Z</time>
      </trkpt>
      <trkpt lat="44.21417" lon="3.6537">
        <ele>730</ele>
        <time>2021-08-11T15:58:37Z</time>
      </trkpt>
      <trkpt lat="44.21421" lon="3.65374">
        <ele>729.5</ele>
        <time>2021-08-11T15:58:39Z</time>
      </trkpt>
      <trkpt lat="44.21423" lon="3.65379">
        <ele>729.2</ele>
        <time>2021-08-11T15:58:41Z</time>
      </trkpt>
      <trkpt lat="44.21426" lon="3.65384">
        <ele>728.9</ele>
        <time>2021-08-11T15:58:43Z</time>
      </trkpt>
      <trkpt lat="44.21428" lon="3.65389">
        <ele>728.8</ele>
        <time>2021-08-11T15:58:45Z</time>
      </trkpt>
      <trkpt lat="44.21431" lon="3.65394">
        <ele>728.4</ele>
        <time>2021-08-11T15:58:47Z</time>
      </trkpt>
      <trkpt lat="44.21433" lon="3.65399">
        <ele>728.2</ele>
        <time>2021-08-11T15:58:49Z</time>
      </trkpt>
      <trkpt lat="44.21434" lon="3.65405">
        <ele>728.3</ele>
        <time>2021-08-11T15:58:51Z</time>
      </trkpt>
      <trkpt lat="44.21436" lon="3.65412">
        <ele>728.4</ele>
        <time>2021-08-11T15:58:53Z</time>
      </trkpt>
      <trkpt lat="44.21435" lon="3.65418">
        <ele>728.8</ele>
        <time>2021-08-11T15:58:55Z</time>
      </trkpt>
      <trkpt lat="44.21434" lon="3.65425">
        <ele>728.8</ele>
        <time>2021-08-11T15:58:57Z</time>
      </trkpt>
      <trkpt lat="44.21433" lon="3.65431">
        <ele>728.9</ele>
        <time>2021-08-11T15:58:59Z</time>
      </trkpt>
      <trkpt lat="44.21432" lon="3.65438">
        <ele>729.1</ele>
        <time>2021-08-11T15:59:01Z</time>
      </trkpt>
      <trkpt lat="44.2143" lon="3.65444">
        <ele>729.4</ele>
        <time>2021-08-11T15:59:03Z</time>
      </trkpt>
      <trkpt lat="44.21427" lon="3.65449">
        <ele>729.9</ele>
        <time>2021-08-11T15:59:05Z</time>
      </trkpt>
      <trkpt lat="44.21425" lon="3.65453">
        <ele>730.2</ele>
        <time>2021-08-11T15:59:07Z</time>
      </trkpt>
      <trkpt lat="44.21422" lon="3.65457">
        <ele>730.8</ele>
        <time>2021-08-11T15:59:09Z</time>
      </trkpt>
      <trkpt lat="44.21419" lon="3.65461">
        <ele>731.4</ele>
        <time>2021-08-11T15:59:11Z</time>
      </trkpt>
      <trkpt lat="44.21416" lon="3.65465">
        <ele>731.9</ele>
        <time>2021-08-11T15:59:13Z</time>
      </trkpt>
      <trkpt lat="44.21413" lon="3.65468">
        <ele>732.5</ele>
        <time>2021-08-11T15:59:15Z</time>
      </trkpt>
      <trkpt lat="44.2141" lon="3.65472">
        <ele>732.9</ele>
        <time>2021-08-11T15:59:17Z</time>
      </trkpt>
      <trkpt lat="44.21407" lon="3.65476">
        <ele>733.4</ele>
        <time>2021-08-11T15:59:19Z</time>
      </trkpt>
      <trkpt lat="44.21405" lon="3.65478">
        <ele>733.8</ele>
        <time>2021-08-11T15:59:21Z</time>
      </trkpt>
      <trkpt lat="44.21402" lon="3.65481">
        <ele>734.2</ele>
        <time>2021-08-11T15:59:23Z</time>
      </trkpt>
      <trkpt lat="44.21399" lon="3.65484">
        <ele>734.6</ele>
        <time>2021-08-11T15:59:25Z</time>
      </trkpt>
      <trkpt lat="44.21397" lon="3.65486">
        <ele>735</ele>
        <time>2021-08-11T15:59:27Z</time>
      </trkpt>
      <trkpt lat="44.21394" lon="3.65489">
        <ele>735.4</ele>
        <time>2021-08-11T15:59:29Z</time>
      </trkpt>
      <trkpt lat="44.21391" lon="3.65492">
        <ele>735.8</ele>
        <time>2021-08-11T15:59:31Z</time>
      </trkpt>
      <trkpt lat="44.21388" lon="3.65495">
        <ele>736.1</ele>
        <time>2021-08-11T15:59:33Z</time>
      </trkpt>
      <trkpt lat="44.21385" lon="3.65497">
        <ele>736.5</ele>
        <time>2021-08-11T15:59:35Z</time>
      </trkpt>
      <trkpt lat="44.21382" lon="3.655">
        <ele>736.9</ele>
        <time>2021-08-11T15:59:37Z</time>
      </trkpt>
      <trkpt lat="44.21378" lon="3.65502">
        <ele>737.1</ele>
        <time>2021-08-11T15:59:39Z</time>
      </trkpt>
      <trkpt lat="44.21376" lon="3.65504">
        <ele>737.3</ele>
        <time>2021-08-11T15:59:41Z</time>
      </trkpt>
      <trkpt lat="44.21373" lon="3.65507">
        <ele>737.3</ele>
        <time>2021-08-11T15:59:43Z</time>
      </trkpt>
      <trkpt lat="44.2137" lon="3.6551">
        <ele>737.4</ele>
        <time>2021-08-11T15:59:45Z</time>
      </trkpt>
      <trkpt lat="44.21367" lon="3.65512">
        <ele>737.6</ele>
        <time>2021-08-11T15:59:47Z</time>
      </trkpt>
      <trkpt lat="44.21364" lon="3.65514">
        <ele>737.7</ele>
        <time>2021-08-11T15:59:49Z</time>
      </trkpt>
      <trkpt lat="44.21361" lon="3.65517">
        <ele>738</ele>
        <time>2021-08-11T15:59:51Z</time>
      </trkpt>
      <trkpt lat="44.21357" lon="3.65519">
        <ele>738.2</ele>
        <time>2021-08-11T15:59:53Z</time>
      </trkpt>
      <trkpt lat="44.21354" lon="3.6552">
        <ele>738.4</ele>
        <time>2021-08-11T15:59:55Z</time>
      </trkpt>
      <trkpt lat="44.21351" lon="3.65522">
        <ele>738.7</ele>
        <time>2021-08-11T15:59:57Z</time>
      </trkpt>
      <trkpt lat="44.21347" lon="3.65523">
        <ele>739.2</ele>
        <time>2021-08-11T15:59:59Z</time>
      </trkpt>
      <trkpt lat="44.21344" lon="3.65523">
        <ele>739.6</ele>
        <time>2021-08-11T16:00:01Z</time>
      </trkpt>
      <trkpt lat="44.21341" lon="3.65524">
        <ele>740.1</ele>
        <time>2021-08-11T16:00:03Z</time>
      </trkpt>
      <trkpt lat="44.21337" lon="3.65524">
        <ele>740.6</ele>
        <time>2021-08-11T16:00:05Z</time>
      </trkpt>
      <trkpt lat="44.21334" lon="3.65524">
        <ele>741</ele>
        <time>2021-08-11T16:00:07Z</time>
      </trkpt>
      <trkpt lat="44.21331" lon="3.65524">
        <ele>742</ele>
        <time>2021-08-11T16:00:09Z</time>
      </trkpt>
      <trkpt lat="44.21328" lon="3.65525">
        <ele>742.7</ele>
        <time>2021-08-11T16:00:11Z</time>
      </trkpt>
      <trkpt lat="44.21325" lon="3.65528">
        <ele>743.2</ele>
        <time>2021-08-11T16:00:13Z</time>
      </trkpt>
      <trkpt lat="44.21323" lon="3.65529">
        <ele>743.6</ele>
        <time>2021-08-11T16:00:15Z</time>
      </trkpt>
      <trkpt lat="44.21321" lon="3.65532">
        <ele>743.8</ele>
        <time>2021-08-11T16:00:17Z</time>
      </trkpt>
      <trkpt lat="44.21319" lon="3.65534">
        <ele>744</ele>
        <time>2021-08-11T16:00:19Z</time>
      </trkpt>
      <trkpt lat="44.21317" lon="3.65538">
        <ele>744.2</ele>
        <time>2021-08-11T16:00:21Z</time>
      </trkpt>
      <trkpt lat="44.21315" lon="3.65542">
        <ele>744.2</ele>
        <time>2021-08-11T16:00:23Z</time>
      </trkpt>
      <trkpt lat="44.21313" lon="3.65546">
        <ele>744.2</ele>
        <time>2021-08-11T16:00:25Z</time>
      </trkpt>
      <trkpt lat="44.21311" lon="3.65551">
        <ele>744.2</ele>
        <time>2021-08-11T16:00:27Z</time>
      </trkpt>
      <trkpt lat="44.21309" lon="3.65556">
        <ele>744.1</ele>
        <time>2021-08-11T16:00:29Z</time>
      </trkpt>
      <trkpt lat="44.21309" lon="3.6556">
        <ele>743.5</ele>
        <time>2021-08-11T16:00:31Z</time>
      </trkpt>
      <trkpt lat="44.21306" lon="3.65565">
        <ele>743.4</ele>
        <time>2021-08-11T16:00:33Z</time>
      </trkpt>
      <trkpt lat="44.21305" lon="3.65569">
        <ele>743.2</ele>
        <time>2021-08-11T16:00:35Z</time>
      </trkpt>
      <trkpt lat="44.21303" lon="3.65574">
        <ele>743.1</ele>
        <time>2021-08-11T16:00:37Z</time>
      </trkpt>
      <trkpt lat="44.21303" lon="3.65578">
        <ele>742.6</ele>
        <time>2021-08-11T16:00:39Z</time>
      </trkpt>
      <trkpt lat="44.21302" lon="3.65582">
        <ele>742.2</ele>
        <time>2021-08-11T16:00:41Z</time>
      </trkpt>
      <trkpt lat="44.213" lon="3.65587">
        <ele>742.5</ele>
        <time>2021-08-11T16:00:43Z</time>
      </trkpt>
      <trkpt lat="44.21297" lon="3.6559">
        <ele>742.9</ele>
        <time>2021-08-11T16:00:45Z</time>
      </trkpt>
      <trkpt lat="44.21295" lon="3.65594">
        <ele>743</ele>
        <time>2021-08-11T16:00:47Z</time>
      </trkpt>
      <trkpt lat="44.21293" lon="3.65599">
        <ele>743.1</ele>
        <time>2021-08-11T16:00:49Z</time>
      </trkpt>
      <trkpt lat="44.21292" lon="3.65602">
        <ele>743</ele>
        <time>2021-08-11T16:00:51Z</time>
      </trkpt>
      <trkpt lat="44.21291" lon="3.65606">
        <ele>743</ele>
        <time>2021-08-11T16:00:53Z</time>
      </trkpt>
      <trkpt lat="44.21288" lon="3.65609">
        <ele>743.4</ele>
        <time>2021-08-11T16:00:55Z</time>
      </trkpt>
      <trkpt lat="44.21285" lon="3.65613">
        <ele>744.1</ele>
        <time>2021-08-11T16:00:57Z</time>
      </trkpt>
      <trkpt lat="44.21282" lon="3.65616">
        <ele>744.6</ele>
        <time>2021-08-11T16:00:59Z</time>
      </trkpt>
      <trkpt lat="44.21279" lon="3.65619">
        <ele>745.2</ele>
        <time>2021-08-11T16:01:01Z</time>
      </trkpt>
      <trkpt lat="44.21276" lon="3.65623">
        <ele>745.5</ele>
        <time>2021-08-11T16:01:03Z</time>
      </trkpt>
      <trkpt lat="44.21273" lon="3.65627">
        <ele>746</ele>
        <time>2021-08-11T16:01:05Z</time>
      </trkpt>
      <trkpt lat="44.21271" lon="3.6563">
        <ele>746.3</ele>
        <time>2021-08-11T16:01:07Z</time>
      </trkpt>
      <trkpt lat="44.21268" lon="3.65635">
        <ele>746.5</ele>
        <time>2021-08-11T16:01:09Z</time>
      </trkpt>
      <trkpt lat="44.21265" lon="3.65638">
        <ele>747</ele>
        <time>2021-08-11T16:01:11Z</time>
      </trkpt>
      <trkpt lat="44.21263" lon="3.65641">
        <ele>747.4</ele>
        <time>2021-08-11T16:01:13Z</time>
      </trkpt>
      <trkpt lat="44.2126" lon="3.65644">
        <ele>748</ele>
        <time>2021-08-11T16:01:15Z</time>
      </trkpt>
      <trkpt lat="44.21258" lon="3.65647">
        <ele>748.2</ele>
        <time>2021-08-11T16:01:17Z</time>
      </trkpt>
      <trkpt lat="44.21255" lon="3.6565">
        <ele>748.7</ele>
        <time>2021-08-11T16:01:19Z</time>
      </trkpt>
      <trkpt lat="44.21251" lon="3.65653">
        <ele>749.3</ele>
        <time>2021-08-11T16:01:21Z</time>
      </trkpt>
      <trkpt lat="44.21249" lon="3.65656">
        <ele>749.6</ele>
        <time>2021-08-11T16:01:23Z</time>
      </trkpt>
      <trkpt lat="44.21246" lon="3.65659">
        <ele>749.7</ele>
        <time>2021-08-11T16:01:25Z</time>
      </trkpt>
      <trkpt lat="44.21244" lon="3.65663">
        <ele>749.9</ele>
        <time>2021-08-11T16:01:27Z</time>
      </trkpt>
      <trkpt lat="44.21241" lon="3.65666">
        <ele>750</ele>
        <time>2021-08-11T16:01:29Z</time>
      </trkpt>
      <trkpt lat="44.21239" lon="3.65669">
        <ele>750.2</ele>
        <time>2021-08-11T16:01:31Z</time>
      </trkpt>
      <trkpt lat="44.21236" lon="3.65672">
        <ele>750.2</ele>
        <time>2021-08-11T16:01:33Z</time>
      </trkpt>
      <trkpt lat="44.21232" lon="3.65676">
        <ele>750.5</ele>
        <time>2021-08-11T16:01:35Z</time>
      </trkpt>
      <trkpt lat="44.2123" lon="3.6568">
        <ele>750.4</ele>
        <time>2021-08-11T16:01:37Z</time>
      </trkpt>
      <trkpt lat="44.21227" lon="3.65683">
        <ele>750.6</ele>
        <time>2021-08-11T16:01:39Z</time>
      </trkpt>
      <trkpt lat="44.21224" lon="3.65686">
        <ele>750.7</ele>
        <time>2021-08-11T16:01:41Z</time>
      </trkpt>
      <trkpt lat="44.21221" lon="3.65689">
        <ele>750.7</ele>
        <time>2021-08-11T16:01:43Z</time>
      </trkpt>
      <trkpt lat="44.21219" lon="3.65692">
        <ele>750.6</ele>
        <time>2021-08-11T16:01:45Z</time>
      </trkpt>
      <trkpt lat="44.21216" lon="3.65696">
        <ele>750.6</ele>
        <time>2021-08-11T16:01:47Z</time>
      </trkpt>
      <trkpt lat="44.21213" lon="3.65699">
        <ele>750.6</ele>
        <time>2021-08-11T16:01:49Z</time>
      </trkpt>
      <trkpt lat="44.21209" lon="3.65702">
        <ele>750.7</ele>
        <time>2021-08-11T16:01:51Z</time>
      </trkpt>
      <trkpt lat="44.21206" lon="3.65705">
        <ele>750.6</ele>
        <time>2021-08-11T16:01:53Z</time>
      </trkpt>
      <trkpt lat="44.21204" lon="3.65709">
        <ele>750.4</ele>
        <time>2021-08-11T16:01:55Z</time>
      </trkpt>
      <trkpt lat="44.21201" lon="3.65711">
        <ele>750.4</ele>
        <time>2021-08-11T16:01:57Z</time>
      </trkpt>
      <trkpt lat="44.21198" lon="3.65714">
        <ele>750.4</ele>
        <time>2021-08-11T16:01:59Z</time>
      </trkpt>
      <trkpt lat="44.21195" lon="3.65717">
        <ele>750.3</ele>
        <time>2021-08-11T16:02:01Z</time>
      </trkpt>
      <trkpt lat="44.21192" lon="3.65719">
        <ele>750.4</ele>
        <time>2021-08-11T16:02:03Z</time>
      </trkpt>
      <trkpt lat="44.21189" lon="3.65721">
        <ele>750.3</ele>
        <time>2021-08-11T16:02:05Z</time>
      </trkpt>
      <trkpt lat="44.21186" lon="3.65722">
        <ele>750.6</ele>
        <time>2021-08-11T16:02:07Z</time>
      </trkpt>
      <trkpt lat="44.21182" lon="3.65723">
        <ele>750.8</ele>
        <time>2021-08-11T16:02:09Z</time>
      </trkpt>
      <trkpt lat="44.21179" lon="3.65724">
        <ele>751.3</ele>
        <time>2021-08-11T16:02:11Z</time>
      </trkpt>
      <trkpt lat="44.21175" lon="3.65724">
        <ele>751.7</ele>
        <time>2021-08-11T16:02:13Z</time>
      </trkpt>
      <trkpt lat="44.21172" lon="3.65724">
        <ele>752.1</ele>
        <time>2021-08-11T16:02:15Z</time>
      </trkpt>
      <trkpt lat="44.21168" lon="3.65724">
        <ele>752.7</ele>
        <time>2021-08-11T16:02:17Z</time>
      </trkpt>
      <trkpt lat="44.21164" lon="3.65723">
        <ele>753.3</ele>
        <time>2021-08-11T16:02:19Z</time>
      </trkpt>
      <trkpt lat="44.21161" lon="3.65722">
        <ele>753.8</ele>
        <time>2021-08-11T16:02:21Z</time>
      </trkpt>
      <trkpt lat="44.21158" lon="3.6572">
        <ele>754.2</ele>
        <time>2021-08-11T16:02:23Z</time>
      </trkpt>
      <trkpt lat="44.21154" lon="3.65718">
        <ele>754.8</ele>
        <time>2021-08-11T16:02:25Z</time>
      </trkpt>
      <trkpt lat="44.21151" lon="3.65716">
        <ele>755.4</ele>
        <time>2021-08-11T16:02:27Z</time>
      </trkpt>
      <trkpt lat="44.21148" lon="3.65715">
        <ele>755.9</ele>
        <time>2021-08-11T16:02:29Z</time>
      </trkpt>
      <trkpt lat="44.21145" lon="3.65713">
        <ele>756.4</ele>
        <time>2021-08-11T16:02:31Z</time>
      </trkpt>
      <trkpt lat="44.21143" lon="3.6571">
        <ele>757.1</ele>
        <time>2021-08-11T16:02:33Z</time>
      </trkpt>
      <trkpt lat="44.2114" lon="3.65707">
        <ele>757.8</ele>
        <time>2021-08-11T16:02:35Z</time>
      </trkpt>
      <trkpt lat="44.21136" lon="3.65707">
        <ele>758.1</ele>
        <time>2021-08-11T16:02:37Z</time>
      </trkpt>
      <trkpt lat="44.21133" lon="3.65704">
        <ele>758.9</ele>
        <time>2021-08-11T16:02:39Z</time>
      </trkpt>
      <trkpt lat="44.2113" lon="3.65701">
        <ele>759.5</ele>
        <time>2021-08-11T16:02:41Z</time>
      </trkpt>
      <trkpt lat="44.21127" lon="3.657">
        <ele>760</ele>
        <time>2021-08-11T16:02:43Z</time>
      </trkpt>
      <trkpt lat="44.21125" lon="3.65698">
        <ele>760.4</ele>
        <time>2021-08-11T16:02:45Z</time>
      </trkpt>
      <trkpt lat="44.21122" lon="3.65696">
        <ele>761</ele>
        <time>2021-08-11T16:02:47Z</time>
      </trkpt>
      <trkpt lat="44.21119" lon="3.65694">
        <ele>761.5</ele>
        <time>2021-08-11T16:02:49Z</time>
      </trkpt>
      <trkpt lat="44.21115" lon="3.65692">
        <ele>762</ele>
        <time>2021-08-11T16:02:51Z</time>
      </trkpt>
      <trkpt lat="44.21112" lon="3.6569">
        <ele>762.5</ele>
        <time>2021-08-11T16:02:53Z</time>
      </trkpt>
      <trkpt lat="44.21109" lon="3.65688">
        <ele>763</ele>
        <time>2021-08-11T16:02:55Z</time>
      </trkpt>
      <trkpt lat="44.21106" lon="3.65685">
        <ele>763.7</ele>
        <time>2021-08-11T16:02:57Z</time>
      </trkpt>
      <trkpt lat="44.21103" lon="3.65683">
        <ele>764.3</ele>
        <time>2021-08-11T16:02:59Z</time>
      </trkpt>
      <trkpt lat="44.21099" lon="3.65681">
        <ele>764.7</ele>
        <time>2021-08-11T16:03:01Z</time>
      </trkpt>
      <trkpt lat="44.21096" lon="3.6568">
        <ele>765.1</ele>
        <time>2021-08-11T16:03:03Z</time>
      </trkpt>
      <trkpt lat="44.21092" lon="3.65678">
        <ele>765.5</ele>
        <time>2021-08-11T16:03:05Z</time>
      </trkpt>
      <trkpt lat="44.21089" lon="3.65678">
        <ele>765.6</ele>
        <time>2021-08-11T16:03:07Z</time>
      </trkpt>
      <trkpt lat="44.21085" lon="3.65676">
        <ele>766.1</ele>
        <time>2021-08-11T16:03:09Z</time>
      </trkpt>
      <trkpt lat="44.21082" lon="3.65677">
        <ele>766.2</ele>
        <time>2021-08-11T16:03:11Z</time>
      </trkpt>
      <trkpt lat="44.21078" lon="3.65677">
        <ele>766.7</ele>
        <time>2021-08-11T16:03:13Z</time>
      </trkpt>
      <trkpt lat="44.21075" lon="3.65677">
        <ele>767.4</ele>
        <time>2021-08-11T16:03:15Z</time>
      </trkpt>
      <trkpt lat="44.21072" lon="3.65677">
        <ele>767.8</ele>
        <time>2021-08-11T16:03:17Z</time>
      </trkpt>
      <trkpt lat="44.21069" lon="3.65677">
        <ele>768.4</ele>
        <time>2021-08-11T16:03:19Z</time>
      </trkpt>
      <trkpt lat="44.21067" lon="3.65678">
        <ele>768.5</ele>
        <time>2021-08-11T16:03:21Z</time>
      </trkpt>
      <trkpt lat="44.21065" lon="3.6568">
        <ele>768.3</ele>
        <time>2021-08-11T16:03:23Z</time>
      </trkpt>
      <trkpt lat="44.21064" lon="3.65682">
        <ele>768.2</ele>
        <time>2021-08-11T16:03:25Z</time>
      </trkpt>
      <trkpt lat="44.21061" lon="3.65685">
        <ele>768.1</ele>
        <time>2021-08-11T16:03:27Z</time>
      </trkpt>
      <trkpt lat="44.2106" lon="3.65687">
        <ele>767.8</ele>
        <time>2021-08-11T16:03:29Z</time>
      </trkpt>
      <trkpt lat="44.21058" lon="3.65692">
        <ele>767.3</ele>
        <time>2021-08-11T16:03:31Z</time>
      </trkpt>
      <trkpt lat="44.21055" lon="3.65696">
        <ele>767</ele>
        <time>2021-08-11T16:03:33Z</time>
      </trkpt>
      <trkpt lat="44.21052" lon="3.65701">
        <ele>766.8</ele>
        <time>2021-08-11T16:03:35Z</time>
      </trkpt>
      <trkpt lat="44.21049" lon="3.65703">
        <ele>766.9</ele>
        <time>2021-08-11T16:03:37Z</time>
      </trkpt>
      <trkpt lat="44.21046" lon="3.65706">
        <ele>767</ele>
        <time>2021-08-11T16:03:39Z</time>
      </trkpt>
      <trkpt lat="44.21042" lon="3.65708">
        <ele>767.3</ele>
        <time>2021-08-11T16:03:41Z</time>
      </trkpt>
      <trkpt lat="44.21038" lon="3.6571">
        <ele>767.6</ele>
        <time>2021-08-11T16:03:43Z</time>
      </trkpt>
      <trkpt lat="44.21034" lon="3.65711">
        <ele>768.1</ele>
        <time>2021-08-11T16:03:45Z</time>
      </trkpt>
      <trkpt lat="44.21031" lon="3.65713">
        <ele>768.3</ele>
        <time>2021-08-11T16:03:47Z</time>
      </trkpt>
      <trkpt lat="44.21028" lon="3.65713">
        <ele>768.7</ele>
        <time>2021-08-11T16:03:49Z</time>
      </trkpt>
      <trkpt lat="44.21023" lon="3.65714">
        <ele>769.5</ele>
        <time>2021-08-11T16:03:51Z</time>
      </trkpt>
      <trkpt lat="44.21018" lon="3.65716">
        <ele>770.1</ele>
        <time>2021-08-11T16:03:53Z</time>
      </trkpt>
      <trkpt lat="44.21016" lon="3.65717">
        <ele>770.4</ele>
        <time>2021-08-11T16:03:55Z</time>
      </trkpt>
      <trkpt lat="44.21011" lon="3.65717">
        <ele>771.1</ele>
        <time>2021-08-11T16:03:57Z</time>
      </trkpt>
      <trkpt lat="44.21007" lon="3.65718">
        <ele>771.7</ele>
        <time>2021-08-11T16:03:59Z</time>
      </trkpt>
      <trkpt lat="44.21004" lon="3.65718">
        <ele>772.2</ele>
        <time>2021-08-11T16:04:01Z</time>
      </trkpt>
      <trkpt lat="44.21001" lon="3.65718">
        <ele>772.8</ele>
        <time>2021-08-11T16:04:03Z</time>
      </trkpt>
      <trkpt lat="44.20998" lon="3.65718">
        <ele>773.3</ele>
        <time>2021-08-11T16:04:05Z</time>
      </trkpt>
      <trkpt lat="44.20994" lon="3.65717">
        <ele>773.9</ele>
        <time>2021-08-11T16:04:07Z</time>
      </trkpt>
      <trkpt lat="44.2099" lon="3.65716">
        <ele>774.3</ele>
        <time>2021-08-11T16:04:09Z</time>
      </trkpt>
      <trkpt lat="44.20987" lon="3.65715">
        <ele>774.9</ele>
        <time>2021-08-11T16:04:11Z</time>
      </trkpt>
      <trkpt lat="44.20985" lon="3.65714">
        <ele>775.3</ele>
        <time>2021-08-11T16:04:13Z</time>
      </trkpt>
      <trkpt lat="44.20982" lon="3.65712">
        <ele>776</ele>
        <time>2021-08-11T16:04:15Z</time>
      </trkpt>
      <trkpt lat="44.20978" lon="3.6571">
        <ele>776.7</ele>
        <time>2021-08-11T16:04:17Z</time>
      </trkpt>
      <trkpt lat="44.20975" lon="3.65708">
        <ele>777.4</ele>
        <time>2021-08-11T16:04:19Z</time>
      </trkpt>
      <trkpt lat="44.20973" lon="3.65706">
        <ele>778</ele>
        <time>2021-08-11T16:04:21Z</time>
      </trkpt>
      <trkpt lat="44.20969" lon="3.65704">
        <ele>778.7</ele>
        <time>2021-08-11T16:04:23Z</time>
      </trkpt>
      <trkpt lat="44.20966" lon="3.65702">
        <ele>779.4</ele>
        <time>2021-08-11T16:04:25Z</time>
      </trkpt>
      <trkpt lat="44.20962" lon="3.657">
        <ele>780.1</ele>
        <time>2021-08-11T16:04:27Z</time>
      </trkpt>
      <trkpt lat="44.20959" lon="3.65698">
        <ele>780.9</ele>
        <time>2021-08-11T16:04:29Z</time>
      </trkpt>
      <trkpt lat="44.20955" lon="3.65696">
        <ele>781.6</ele>
        <time>2021-08-11T16:04:31Z</time>
      </trkpt>
      <trkpt lat="44.20952" lon="3.65694">
        <ele>782.4</ele>
        <time>2021-08-11T16:04:33Z</time>
      </trkpt>
      <trkpt lat="44.20949" lon="3.65692">
        <ele>783</ele>
        <time>2021-08-11T16:04:35Z</time>
      </trkpt>
      <trkpt lat="44.20945" lon="3.65691">
        <ele>783.7</ele>
        <time>2021-08-11T16:04:37Z</time>
      </trkpt>
      <trkpt lat="44.20941" lon="3.65689">
        <ele>784.3</ele>
        <time>2021-08-11T16:04:39Z</time>
      </trkpt>
      <trkpt lat="44.20938" lon="3.65688">
        <ele>785</ele>
        <time>2021-08-11T16:04:41Z</time>
      </trkpt>
      <trkpt lat="44.20936" lon="3.65687">
        <ele>785.4</ele>
        <time>2021-08-11T16:04:43Z</time>
      </trkpt>
      <trkpt lat="44.20932" lon="3.65685">
        <ele>786.1</ele>
        <time>2021-08-11T16:04:45Z</time>
      </trkpt>
      <trkpt lat="44.2093" lon="3.65685">
        <ele>786.4</ele>
        <time>2021-08-11T16:04:47Z</time>
      </trkpt>
      <trkpt lat="44.20926" lon="3.65684">
        <ele>786.9</ele>
        <time>2021-08-11T16:04:49Z</time>
      </trkpt>
      <trkpt lat="44.20925" lon="3.65685">
        <ele>787</ele>
        <time>2021-08-11T16:04:51Z</time>
      </trkpt>
      <trkpt lat="44.20921" lon="3.65685">
        <ele>787.4</ele>
        <time>2021-08-11T16:04:53Z</time>
      </trkpt>
      <trkpt lat="44.20919" lon="3.65687">
        <ele>787.4</ele>
        <time>2021-08-11T16:04:55Z</time>
      </trkpt>
      <trkpt lat="44.20917" lon="3.65688">
        <ele>787.4</ele>
        <time>2021-08-11T16:04:57Z</time>
      </trkpt>
      <trkpt lat="44.20915" lon="3.6569">
        <ele>787.5</ele>
        <time>2021-08-11T16:04:59Z</time>
      </trkpt>
      <trkpt lat="44.20913" lon="3.65693">
        <ele>787.6</ele>
        <time>2021-08-11T16:05:01Z</time>
      </trkpt>
      <trkpt lat="44.20912" lon="3.65696">
        <ele>787.5</ele>
        <time>2021-08-11T16:05:03Z</time>
      </trkpt>
      <trkpt lat="44.20911" lon="3.65697">
        <ele>787.2</ele>
        <time>2021-08-11T16:05:05Z</time>
      </trkpt>
      <trkpt lat="44.20911" lon="3.65701">
        <ele>786.7</ele>
        <time>2021-08-11T16:05:07Z</time>
      </trkpt>
      <trkpt lat="44.20908" lon="3.65705">
        <ele>786.8</ele>
        <time>2021-08-11T16:05:09Z</time>
      </trkpt>
      <trkpt lat="44.20907" lon="3.65707">
        <ele>786.6</ele>
        <time>2021-08-11T16:05:11Z</time>
      </trkpt>
      <trkpt lat="44.20908" lon="3.6571">
        <ele>786</ele>
        <time>2021-08-11T16:05:13Z</time>
      </trkpt>
      <trkpt lat="44.20906" lon="3.65713">
        <ele>786</ele>
        <time>2021-08-11T16:05:15Z</time>
      </trkpt>
      <trkpt lat="44.20905" lon="3.65716">
        <ele>785.7</ele>
        <time>2021-08-11T16:05:17Z</time>
      </trkpt>
      <trkpt lat="44.20903" lon="3.6572">
        <ele>785.5</ele>
        <time>2021-08-11T16:05:19Z</time>
      </trkpt>
      <trkpt lat="44.20902" lon="3.65725">
        <ele>784.8</ele>
        <time>2021-08-11T16:05:21Z</time>
      </trkpt>
      <trkpt lat="44.20901" lon="3.65728">
        <ele>784.5</ele>
        <time>2021-08-11T16:05:23Z</time>
      </trkpt>
      <trkpt lat="44.20901" lon="3.65732">
        <ele>783.8</ele>
        <time>2021-08-11T16:05:25Z</time>
      </trkpt>
      <trkpt lat="44.209" lon="3.65736">
        <ele>783.4</ele>
        <time>2021-08-11T16:05:27Z</time>
      </trkpt>
      <trkpt lat="44.20898" lon="3.6574">
        <ele>783</ele>
        <time>2021-08-11T16:05:29Z</time>
      </trkpt>
      <trkpt lat="44.20897" lon="3.65744">
        <ele>782.7</ele>
        <time>2021-08-11T16:05:31Z</time>
      </trkpt>
      <trkpt lat="44.20895" lon="3.65747">
        <ele>782.6</ele>
        <time>2021-08-11T16:05:33Z</time>
      </trkpt>
      <trkpt lat="44.20892" lon="3.65751">
        <ele>782.5</ele>
        <time>2021-08-11T16:05:35Z</time>
      </trkpt>
      <trkpt lat="44.2089" lon="3.65754">
        <ele>782.3</ele>
        <time>2021-08-11T16:05:37Z</time>
      </trkpt>
      <trkpt lat="44.20886" lon="3.65758">
        <ele>782.4</ele>
        <time>2021-08-11T16:05:39Z</time>
      </trkpt>
      <trkpt lat="44.20884" lon="3.65762">
        <ele>782.1</ele>
        <time>2021-08-11T16:05:41Z</time>
      </trkpt>
      <trkpt lat="44.20881" lon="3.65765">
        <ele>782.2</ele>
        <time>2021-08-11T16:05:43Z</time>
      </trkpt>
      <trkpt lat="44.20878" lon="3.65769">
        <ele>782.2</ele>
        <time>2021-08-11T16:05:45Z</time>
      </trkpt>
      <trkpt lat="44.20875" lon="3.65773">
        <ele>782.2</ele>
        <time>2021-08-11T16:05:47Z</time>
      </trkpt>
      <trkpt lat="44.20872" lon="3.65776">
        <ele>782.2</ele>
        <time>2021-08-11T16:05:49Z</time>
      </trkpt>
      <trkpt lat="44.2087" lon="3.65779">
        <ele>782.1</ele>
        <time>2021-08-11T16:05:51Z</time>
      </trkpt>
      <trkpt lat="44.20867" lon="3.65782">
        <ele>782.2</ele>
        <time>2021-08-11T16:05:53Z</time>
      </trkpt>
      <trkpt lat="44.20863" lon="3.65784">
        <ele>782.7</ele>
        <time>2021-08-11T16:05:55Z</time>
      </trkpt>
      <trkpt lat="44.20861" lon="3.65786">
        <ele>782.9</ele>
        <time>2021-08-11T16:05:57Z</time>
      </trkpt>
      <trkpt lat="44.20858" lon="3.65789">
        <ele>783.1</ele>
        <time>2021-08-11T16:05:59Z</time>
      </trkpt>
      <trkpt lat="44.20853" lon="3.65793">
        <ele>783.5</ele>
        <time>2021-08-11T16:06:01Z</time>
      </trkpt>
      <trkpt lat="44.20851" lon="3.65796">
        <ele>783.6</ele>
        <time>2021-08-11T16:06:03Z</time>
      </trkpt>
      <trkpt lat="44.20848" lon="3.65798">
        <ele>783.8</ele>
        <time>2021-08-11T16:06:05Z</time>
      </trkpt>
      <trkpt lat="44.20846" lon="3.658">
        <ele>783.9</ele>
        <time>2021-08-11T16:06:07Z</time>
      </trkpt>
      <trkpt lat="44.20844" lon="3.65804">
        <ele>783.7</ele>
        <time>2021-08-11T16:06:09Z</time>
      </trkpt>
      <trkpt lat="44.20842" lon="3.65806">
        <ele>783.8</ele>
        <time>2021-08-11T16:06:11Z</time>
      </trkpt>
      <trkpt lat="44.20838" lon="3.6581">
        <ele>784.1</ele>
        <time>2021-08-11T16:06:13Z</time>
      </trkpt>
      <trkpt lat="44.20836" lon="3.65813">
        <ele>784.2</ele>
        <time>2021-08-11T16:06:15Z</time>
      </trkpt>
      <trkpt lat="44.20833" lon="3.65816">
        <ele>784.3</ele>
        <time>2021-08-11T16:06:17Z</time>
      </trkpt>
      <trkpt lat="44.20829" lon="3.65819">
        <ele>784.3</ele>
        <time>2021-08-11T16:06:19Z</time>
      </trkpt>
      <trkpt lat="44.20827" lon="3.65822">
        <ele>784.5</ele>
        <time>2021-08-11T16:06:21Z</time>
      </trkpt>
      <trkpt lat="44.20824" lon="3.65825">
        <ele>784.5</ele>
        <time>2021-08-11T16:06:23Z</time>
      </trkpt>
      <trkpt lat="44.20821" lon="3.65827">
        <ele>784.7</ele>
        <time>2021-08-11T16:06:25Z</time>
      </trkpt>
      <trkpt lat="44.2082" lon="3.6583">
        <ele>784.4</ele>
        <time>2021-08-11T16:06:27Z</time>
      </trkpt>
      <trkpt lat="44.20817" lon="3.65833">
        <ele>784.6</ele>
        <time>2021-08-11T16:06:29Z</time>
      </trkpt>
      <trkpt lat="44.20814" lon="3.65835">
        <ele>785</ele>
        <time>2021-08-11T16:06:31Z</time>
      </trkpt>
      <trkpt lat="44.20811" lon="3.65837">
        <ele>785.2</ele>
        <time>2021-08-11T16:06:33Z</time>
      </trkpt>
      <trkpt lat="44.20808" lon="3.6584">
        <ele>785.6</ele>
        <time>2021-08-11T16:06:35Z</time>
      </trkpt>
      <trkpt lat="44.20805" lon="3.65842">
        <ele>786</ele>
        <time>2021-08-11T16:06:37Z</time>
      </trkpt>
      <trkpt lat="44.20802" lon="3.65845">
        <ele>786.3</ele>
        <time>2021-08-11T16:06:39Z</time>
      </trkpt>
      <trkpt lat="44.20799" lon="3.65847">
        <ele>786.8</ele>
        <time>2021-08-11T16:06:41Z</time>
      </trkpt>
      <trkpt lat="44.20795" lon="3.65849">
        <ele>787.3</ele>
        <time>2021-08-11T16:06:43Z</time>
      </trkpt>
      <trkpt lat="44.20791" lon="3.6585">
        <ele>788</ele>
        <time>2021-08-11T16:06:45Z</time>
      </trkpt>
      <trkpt lat="44.20788" lon="3.65853">
        <ele>788.5</ele>
        <time>2021-08-11T16:06:47Z</time>
      </trkpt>
      <trkpt lat="44.20784" lon="3.65855">
        <ele>789.2</ele>
        <time>2021-08-11T16:06:49Z</time>
      </trkpt>
      <trkpt lat="44.20782" lon="3.65857">
        <ele>789.5</ele>
        <time>2021-08-11T16:06:51Z</time>
      </trkpt>
      <trkpt lat="44.20777" lon="3.6586">
        <ele>790.2</ele>
        <time>2021-08-11T16:06:53Z</time>
      </trkpt>
      <trkpt lat="44.20774" lon="3.65862">
        <ele>790.8</ele>
        <time>2021-08-11T16:06:55Z</time>
      </trkpt>
      <trkpt lat="44.2077" lon="3.65864">
        <ele>791.4</ele>
        <time>2021-08-11T16:06:57Z</time>
      </trkpt>
      <trkpt lat="44.20766" lon="3.65867">
        <ele>792.1</ele>
        <time>2021-08-11T16:06:59Z</time>
      </trkpt>
      <trkpt lat="44.20763" lon="3.6587">
        <ele>792.5</ele>
        <time>2021-08-11T16:07:01Z</time>
      </trkpt>
      <trkpt lat="44.20759" lon="3.65872">
        <ele>793</ele>
        <time>2021-08-11T16:07:03Z</time>
      </trkpt>
      <trkpt lat="44.20757" lon="3.65875">
        <ele>793.4</ele>
        <time>2021-08-11T16:07:05Z</time>
      </trkpt>
      <trkpt lat="44.20753" lon="3.65876">
        <ele>794.2</ele>
        <time>2021-08-11T16:07:07Z</time>
      </trkpt>
      <trkpt lat="44.20751" lon="3.65878">
        <ele>794.5</ele>
        <time>2021-08-11T16:07:09Z</time>
      </trkpt>
      <trkpt lat="44.20747" lon="3.65881">
        <ele>794.1</ele>
        <time>2021-08-11T16:07:11Z</time>
      </trkpt>
      <trkpt lat="44.20744" lon="3.65883">
        <ele>793.8</ele>
        <time>2021-08-11T16:07:13Z</time>
      </trkpt>
      <trkpt lat="44.20741" lon="3.65885">
        <ele>793.3</ele>
        <time>2021-08-11T16:07:15Z</time>
      </trkpt>
      <trkpt lat="44.20738" lon="3.65887">
        <ele>792.8</ele>
        <time>2021-08-11T16:07:17Z</time>
      </trkpt>
      <trkpt lat="44.20735" lon="3.65889">
        <ele>792.5</ele>
        <time>2021-08-11T16:07:19Z</time>
      </trkpt>
      <trkpt lat="44.20732" lon="3.65892">
        <ele>792.1</ele>
        <time>2021-08-11T16:07:21Z</time>
      </trkpt>
      <trkpt lat="44.2073" lon="3.65896">
        <ele>791.6</ele>
        <time>2021-08-11T16:07:23Z</time>
      </trkpt>
      <trkpt lat="44.20727" lon="3.65899">
        <ele>791.3</ele>
        <time>2021-08-11T16:07:25Z</time>
      </trkpt>
      <trkpt lat="44.20723" lon="3.65902">
        <ele>790.9</ele>
        <time>2021-08-11T16:07:27Z</time>
      </trkpt>
      <trkpt lat="44.2072" lon="3.65906">
        <ele>790.5</ele>
        <time>2021-08-11T16:07:29Z</time>
      </trkpt>
      <trkpt lat="44.20718" lon="3.6591">
        <ele>790.1</ele>
        <time>2021-08-11T16:07:31Z</time>
      </trkpt>
      <trkpt lat="44.20715" lon="3.65914">
        <ele>789.9</ele>
        <time>2021-08-11T16:07:33Z</time>
      </trkpt>
      <trkpt lat="44.20713" lon="3.65916">
        <ele>789.7</ele>
        <time>2021-08-11T16:07:35Z</time>
      </trkpt>
      <trkpt lat="44.20711" lon="3.65919">
        <ele>789.6</ele>
        <time>2021-08-11T16:07:37Z</time>
      </trkpt>
      <trkpt lat="44.20709" lon="3.65922">
        <ele>789.6</ele>
        <time>2021-08-11T16:07:39Z</time>
      </trkpt>
      <trkpt lat="44.20706" lon="3.65926">
        <ele>789.5</ele>
        <time>2021-08-11T16:07:41Z</time>
      </trkpt>
      <trkpt lat="44.20704" lon="3.6593">
        <ele>789.6</ele>
        <time>2021-08-11T16:07:43Z</time>
      </trkpt>
      <trkpt lat="44.20701" lon="3.65933">
        <ele>789.6</ele>
        <time>2021-08-11T16:07:45Z</time>
      </trkpt>
      <trkpt lat="44.20699" lon="3.65936">
        <ele>789.7</ele>
        <time>2021-08-11T16:07:47Z</time>
      </trkpt>
      <trkpt lat="44.20697" lon="3.65939">
        <ele>789.7</ele>
        <time>2021-08-11T16:07:49Z</time>
      </trkpt>
      <trkpt lat="44.20695" lon="3.65943">
        <ele>789.8</ele>
        <time>2021-08-11T16:07:51Z</time>
      </trkpt>
      <trkpt lat="44.20693" lon="3.65946">
        <ele>790</ele>
        <time>2021-08-11T16:07:53Z</time>
      </trkpt>
      <trkpt lat="44.2069" lon="3.65949">
        <ele>790.1</ele>
        <time>2021-08-11T16:07:55Z</time>
      </trkpt>
      <trkpt lat="44.20689" lon="3.65953">
        <ele>790.3</ele>
        <time>2021-08-11T16:07:57Z</time>
      </trkpt>
      <trkpt lat="44.20689" lon="3.65957">
        <ele>790.4</ele>
        <time>2021-08-11T16:07:59Z</time>
      </trkpt>
      <trkpt lat="44.20691" lon="3.65959">
        <ele>790.4</ele>
        <time>2021-08-11T16:08:01Z</time>
      </trkpt>
      <trkpt lat="44.20691" lon="3.65959">
        <ele>790.4</ele>
        <time>2021-08-11T16:08:03Z</time>
      </trkpt>
      <trkpt lat="44.20691" lon="3.65959">
        <ele>790.4</ele>
        <time>2021-08-11T16:08:05Z</time>
      </trkpt>
      <trkpt lat="44.20691" lon="3.65959">
        <ele>790.4</ele>
        <time>2021-08-11T16:08:07Z</time>
      </trkpt>
      <trkpt lat="44.20692" lon="3.65959">
        <ele>790.4</ele>
        <time>2021-08-11T16:08:09Z</time>
      </trkpt>
      <trkpt lat="44.20691" lon="3.65959">
        <ele>790.4</ele>
        <time>2021-08-11T16:08:11Z</time>
      </trkpt>
      <trkpt lat="44.20671" lon="3.65915">
        <ele>788.1</ele>
        <time>2021-08-11T16:23:01Z</time>
      </trkpt>
      <trkpt lat="44.20672" lon="3.65905">
        <ele>788</ele>
        <time>2021-08-11T16:23:03Z</time>
      </trkpt>
      <trkpt lat="44.20673" lon="3.65894">
        <ele>787.9</ele>
        <time>2021-08-11T16:23:05Z</time>
      </trkpt>
      <trkpt lat="44.20673" lon="3.65881">
        <ele>787.7</ele>
        <time>2021-08-11T16:23:07Z</time>
      </trkpt>
      <trkpt lat="44.20674" lon="3.65867">
        <ele>787.6</ele>
        <time>2021-08-11T16:23:09Z</time>
      </trkpt>
      <trkpt lat="44.20673" lon="3.65853">
        <ele>787.3</ele>
        <time>2021-08-11T16:23:11Z</time>
      </trkpt>
      <trkpt lat="44.20675" lon="3.65837">
        <ele>787.4</ele>
        <time>2021-08-11T16:23:13Z</time>
      </trkpt>
      <trkpt lat="44.20676" lon="3.65822">
        <ele>786.9</ele>
        <time>2021-08-11T16:23:15Z</time>
      </trkpt>
      <trkpt lat="44.20677" lon="3.65805">
        <ele>786.4</ele>
        <time>2021-08-11T16:23:17Z</time>
      </trkpt>
      <trkpt lat="44.20677" lon="3.65787">
        <ele>785.9</ele>
        <time>2021-08-11T16:23:19Z</time>
      </trkpt>
      <trkpt lat="44.20678" lon="3.65772">
        <ele>785.5</ele>
        <time>2021-08-11T16:23:21Z</time>
      </trkpt>
      <trkpt lat="44.20679" lon="3.6576">
        <ele>785.2</ele>
        <time>2021-08-11T16:23:23Z</time>
      </trkpt>
      <trkpt lat="44.2068" lon="3.6575">
        <ele>785.2</ele>
        <time>2021-08-11T16:23:25Z</time>
      </trkpt>
      <trkpt lat="44.2068" lon="3.65741">
        <ele>784.4</ele>
        <time>2021-08-11T16:23:27Z</time>
      </trkpt>
      <trkpt lat="44.2068" lon="3.65731">
        <ele>783.6</ele>
        <time>2021-08-11T16:23:29Z</time>
      </trkpt>
      <trkpt lat="44.20681" lon="3.6572">
        <ele>782.9</ele>
        <time>2021-08-11T16:23:31Z</time>
      </trkpt>
      <trkpt lat="44.20683" lon="3.6571">
        <ele>782.9</ele>
        <time>2021-08-11T16:23:33Z</time>
      </trkpt>
      <trkpt lat="44.20687" lon="3.65699">
        <ele>783.7</ele>
        <time>2021-08-11T16:23:35Z</time>
      </trkpt>
      <trkpt lat="44.20691" lon="3.65689">
        <ele>784.6</ele>
        <time>2021-08-11T16:23:37Z</time>
      </trkpt>
      <trkpt lat="44.20695" lon="3.65679">
        <ele>785.8</ele>
        <time>2021-08-11T16:23:39Z</time>
      </trkpt>
      <trkpt lat="44.20699" lon="3.65669">
        <ele>787.1</ele>
        <time>2021-08-11T16:23:41Z</time>
      </trkpt>
      <trkpt lat="44.20702" lon="3.65659">
        <ele>788.6</ele>
        <time>2021-08-11T16:23:43Z</time>
      </trkpt>
      <trkpt lat="44.20704" lon="3.65646">
        <ele>789.4</ele>
        <time>2021-08-11T16:23:45Z</time>
      </trkpt>
      <trkpt lat="44.20703" lon="3.65632">
        <ele>789.4</ele>
        <time>2021-08-11T16:23:47Z</time>
      </trkpt>
      <trkpt lat="44.207" lon="3.65619">
        <ele>787.9</ele>
        <time>2021-08-11T16:23:49Z</time>
      </trkpt>
      <trkpt lat="44.20695" lon="3.65607">
        <ele>785.4</ele>
        <time>2021-08-11T16:23:51Z</time>
      </trkpt>
      <trkpt lat="44.20694" lon="3.65593">
        <ele>784.6</ele>
        <time>2021-08-11T16:23:53Z</time>
      </trkpt>
      <trkpt lat="44.20691" lon="3.65578">
        <ele>782.9</ele>
        <time>2021-08-11T16:23:55Z</time>
      </trkpt>
      <trkpt lat="44.20688" lon="3.65561">
        <ele>781.2</ele>
        <time>2021-08-11T16:23:57Z</time>
      </trkpt>
      <trkpt lat="44.20687" lon="3.65544">
        <ele>780.4</ele>
        <time>2021-08-11T16:23:59Z</time>
      </trkpt>
      <trkpt lat="44.20688" lon="3.65525">
        <ele>781.2</ele>
        <time>2021-08-11T16:24:01Z</time>
      </trkpt>
      <trkpt lat="44.2069" lon="3.65507">
        <ele>782.1</ele>
        <time>2021-08-11T16:24:03Z</time>
      </trkpt>
      <trkpt lat="44.20693" lon="3.6549">
        <ele>783.1</ele>
        <time>2021-08-11T16:24:05Z</time>
      </trkpt>
      <trkpt lat="44.20692" lon="3.65474">
        <ele>781.8</ele>
        <time>2021-08-11T16:24:07Z</time>
      </trkpt>
      <trkpt lat="44.20689" lon="3.65458">
        <ele>779.3</ele>
        <time>2021-08-11T16:24:09Z</time>
      </trkpt>
      <trkpt lat="44.20684" lon="3.65445">
        <ele>776</ele>
        <time>2021-08-11T16:24:11Z</time>
      </trkpt>
      <trkpt lat="44.2068" lon="3.65435">
        <ele>772.7</ele>
        <time>2021-08-11T16:24:13Z</time>
      </trkpt>
      <trkpt lat="44.20676" lon="3.65425">
        <ele>769.7</ele>
        <time>2021-08-11T16:24:15Z</time>
      </trkpt>
      <trkpt lat="44.20672" lon="3.65416">
        <ele>767.3</ele>
        <time>2021-08-11T16:24:17Z</time>
      </trkpt>
      <trkpt lat="44.20674" lon="3.65403">
        <ele>766.2</ele>
        <time>2021-08-11T16:24:19Z</time>
      </trkpt>
      <trkpt lat="44.2068" lon="3.65392">
        <ele>768.2</ele>
        <time>2021-08-11T16:24:21Z</time>
      </trkpt>
      <trkpt lat="44.20689" lon="3.65384">
        <ele>772.1</ele>
        <time>2021-08-11T16:24:23Z</time>
      </trkpt>
      <trkpt lat="44.20698" lon="3.65377">
        <ele>776.4</ele>
        <time>2021-08-11T16:24:25Z</time>
      </trkpt>
      <trkpt lat="44.20707" lon="3.65369">
        <ele>780</ele>
        <time>2021-08-11T16:24:27Z</time>
      </trkpt>
      <trkpt lat="44.20715" lon="3.65359">
        <ele>782.6</ele>
        <time>2021-08-11T16:24:29Z</time>
      </trkpt>
      <trkpt lat="44.2072" lon="3.65346">
        <ele>783.1</ele>
        <time>2021-08-11T16:24:31Z</time>
      </trkpt>
      <trkpt lat="44.20725" lon="3.65333">
        <ele>783.7</ele>
        <time>2021-08-11T16:24:33Z</time>
      </trkpt>
      <trkpt lat="44.20725" lon="3.65316">
        <ele>784.2</ele>
        <time>2021-08-11T16:24:35Z</time>
      </trkpt>
      <trkpt lat="44.2072" lon="3.653">
        <ele>781.8</ele>
        <time>2021-08-11T16:24:37Z</time>
      </trkpt>
      <trkpt lat="44.20715" lon="3.65286">
        <ele>779.6</ele>
        <time>2021-08-11T16:24:39Z</time>
      </trkpt>
      <trkpt lat="44.20713" lon="3.65272">
        <ele>778.8</ele>
        <time>2021-08-11T16:24:41Z</time>
      </trkpt>
      <trkpt lat="44.2071" lon="3.65259">
        <ele>777.5</ele>
        <time>2021-08-11T16:24:43Z</time>
      </trkpt>
      <trkpt lat="44.20702" lon="3.65249">
        <ele>774.3</ele>
        <time>2021-08-11T16:24:45Z</time>
      </trkpt>
      <trkpt lat="44.20693" lon="3.65242">
        <ele>770.9</ele>
        <time>2021-08-11T16:24:47Z</time>
      </trkpt>
      <trkpt lat="44.20684" lon="3.65237">
        <ele>767</ele>
        <time>2021-08-11T16:24:49Z</time>
      </trkpt>
      <trkpt lat="44.20673" lon="3.65231">
        <ele>762.5</ele>
        <time>2021-08-11T16:24:51Z</time>
      </trkpt>
      <trkpt lat="44.20664" lon="3.65224">
        <ele>758.9</ele>
        <time>2021-08-11T16:24:53Z</time>
      </trkpt>
      <trkpt lat="44.20658" lon="3.65216">
        <ele>756.2</ele>
        <time>2021-08-11T16:24:55Z</time>
      </trkpt>
      <trkpt lat="44.20654" lon="3.65206">
        <ele>755.3</ele>
        <time>2021-08-11T16:24:57Z</time>
      </trkpt>
      <trkpt lat="44.20654" lon="3.65193">
        <ele>757</ele>
        <time>2021-08-11T16:24:59Z</time>
      </trkpt>
      <trkpt lat="44.20657" lon="3.65181">
        <ele>760.4</ele>
        <time>2021-08-11T16:25:01Z</time>
      </trkpt>
      <trkpt lat="44.20662" lon="3.65169">
        <ele>764.9</ele>
        <time>2021-08-11T16:25:03Z</time>
      </trkpt>
      <trkpt lat="44.20668" lon="3.65158">
        <ele>770.3</ele>
        <time>2021-08-11T16:25:05Z</time>
      </trkpt>
      <trkpt lat="44.20667" lon="3.65146">
        <ele>772.6</ele>
        <time>2021-08-11T16:25:07Z</time>
      </trkpt>
      <trkpt lat="44.20659" lon="3.65137">
        <ele>769.5</ele>
        <time>2021-08-11T16:25:09Z</time>
      </trkpt>
      <trkpt lat="44.2065" lon="3.65131">
        <ele>764.7</ele>
        <time>2021-08-11T16:25:11Z</time>
      </trkpt>
      <trkpt lat="44.20641" lon="3.65126">
        <ele>760.4</ele>
        <time>2021-08-11T16:25:13Z</time>
      </trkpt>
      <trkpt lat="44.20636" lon="3.65118">
        <ele>758.2</ele>
        <time>2021-08-11T16:25:15Z</time>
      </trkpt>
      <trkpt lat="44.20631" lon="3.65106">
        <ele>757.2</ele>
        <time>2021-08-11T16:25:17Z</time>
      </trkpt>
      <trkpt lat="44.20627" lon="3.65094">
        <ele>756.9</ele>
        <time>2021-08-11T16:25:19Z</time>
      </trkpt>
      <trkpt lat="44.20624" lon="3.6508">
        <ele>756.9</ele>
        <time>2021-08-11T16:25:21Z</time>
      </trkpt>
      <trkpt lat="44.20624" lon="3.65065">
        <ele>758.1</ele>
        <time>2021-08-11T16:25:23Z</time>
      </trkpt>
      <trkpt lat="44.20624" lon="3.65051">
        <ele>759.8</ele>
        <time>2021-08-11T16:25:25Z</time>
      </trkpt>
      <trkpt lat="44.20625" lon="3.65037">
        <ele>761.5</ele>
        <time>2021-08-11T16:25:27Z</time>
      </trkpt>
      <trkpt lat="44.20626" lon="3.65023">
        <ele>763.4</ele>
        <time>2021-08-11T16:25:29Z</time>
      </trkpt>
      <trkpt lat="44.20627" lon="3.65008">
        <ele>765.4</ele>
        <time>2021-08-11T16:25:31Z</time>
      </trkpt>
      <trkpt lat="44.20627" lon="3.64994">
        <ele>766.9</ele>
        <time>2021-08-11T16:25:33Z</time>
      </trkpt>
      <trkpt lat="44.20625" lon="3.64981">
        <ele>766.1</ele>
        <time>2021-08-11T16:25:35Z</time>
      </trkpt>
      <trkpt lat="44.20624" lon="3.64968">
        <ele>766.7</ele>
        <time>2021-08-11T16:25:37Z</time>
      </trkpt>
      <trkpt lat="44.20626" lon="3.64956">
        <ele>768.7</ele>
        <time>2021-08-11T16:25:39Z</time>
      </trkpt>
      <trkpt lat="44.20627" lon="3.64943">
        <ele>770</ele>
        <time>2021-08-11T16:25:41Z</time>
      </trkpt>
      <trkpt lat="44.20625" lon="3.64931">
        <ele>769.7</ele>
        <time>2021-08-11T16:25:43Z</time>
      </trkpt>
      <trkpt lat="44.20624" lon="3.6492">
        <ele>769.5</ele>
        <time>2021-08-11T16:25:45Z</time>
      </trkpt>
      <trkpt lat="44.20623" lon="3.64909">
        <ele>768.9</ele>
        <time>2021-08-11T16:25:47Z</time>
      </trkpt>
      <trkpt lat="44.20621" lon="3.64899">
        <ele>767.3</ele>
        <time>2021-08-11T16:25:49Z</time>
      </trkpt>
      <trkpt lat="44.20619" lon="3.64888">
        <ele>765.6</ele>
        <time>2021-08-11T16:25:51Z</time>
      </trkpt>
      <trkpt lat="44.20618" lon="3.64876">
        <ele>764.5</ele>
        <time>2021-08-11T16:25:53Z</time>
      </trkpt>
      <trkpt lat="44.20617" lon="3.64865">
        <ele>763.8</ele>
        <time>2021-08-11T16:25:55Z</time>
      </trkpt>
      <trkpt lat="44.20618" lon="3.64855">
        <ele>764</ele>
        <time>2021-08-11T16:25:57Z</time>
      </trkpt>
      <trkpt lat="44.20619" lon="3.64845">
        <ele>764.1</ele>
        <time>2021-08-11T16:25:59Z</time>
      </trkpt>
      <trkpt lat="44.2062" lon="3.64835">
        <ele>764.5</ele>
        <time>2021-08-11T16:26:01Z</time>
      </trkpt>
      <trkpt lat="44.20623" lon="3.64825">
        <ele>764.6</ele>
        <time>2021-08-11T16:26:03Z</time>
      </trkpt>
      <trkpt lat="44.20624" lon="3.64814">
        <ele>764.6</ele>
        <time>2021-08-11T16:26:05Z</time>
      </trkpt>
      <trkpt lat="44.20626" lon="3.64804">
        <ele>764.4</ele>
        <time>2021-08-11T16:26:07Z</time>
      </trkpt>
      <trkpt lat="44.20628" lon="3.64794">
        <ele>764.3</ele>
        <time>2021-08-11T16:26:09Z</time>
      </trkpt>
      <trkpt lat="44.2063" lon="3.64784">
        <ele>764</ele>
        <time>2021-08-11T16:26:11Z</time>
      </trkpt>
      <trkpt lat="44.20632" lon="3.64775">
        <ele>763.9</ele>
        <time>2021-08-11T16:26:13Z</time>
      </trkpt>
      <trkpt lat="44.20634" lon="3.64765">
        <ele>763.8</ele>
        <time>2021-08-11T16:26:15Z</time>
      </trkpt>
      <trkpt lat="44.20635" lon="3.64756">
        <ele>763.5</ele>
        <time>2021-08-11T16:26:17Z</time>
      </trkpt>
      <trkpt lat="44.20636" lon="3.64748">
        <ele>763.4</ele>
        <time>2021-08-11T16:26:19Z</time>
      </trkpt>
      <trkpt lat="44.20638" lon="3.6474">
        <ele>764.3</ele>
        <time>2021-08-11T16:26:21Z</time>
      </trkpt>
      <trkpt lat="44.20639" lon="3.64732">
        <ele>765</ele>
        <time>2021-08-11T16:26:23Z</time>
      </trkpt>
      <trkpt lat="44.2064" lon="3.64726">
        <ele>765.4</ele>
        <time>2021-08-11T16:26:25Z</time>
      </trkpt>
      <trkpt lat="44.2064" lon="3.64718">
        <ele>765.6</ele>
        <time>2021-08-11T16:26:27Z</time>
      </trkpt>
      <trkpt lat="44.2064" lon="3.64712">
        <ele>766</ele>
        <time>2021-08-11T16:26:29Z</time>
      </trkpt>
      <trkpt lat="44.20641" lon="3.64705">
        <ele>766.4</ele>
        <time>2021-08-11T16:26:31Z</time>
      </trkpt>
      <trkpt lat="44.20641" lon="3.64698">
        <ele>766.6</ele>
        <time>2021-08-11T16:26:33Z</time>
      </trkpt>
      <trkpt lat="44.20642" lon="3.64692">
        <ele>767</ele>
        <time>2021-08-11T16:26:35Z</time>
      </trkpt>
      <trkpt lat="44.20643" lon="3.64686">
        <ele>767.4</ele>
        <time>2021-08-11T16:26:37Z</time>
      </trkpt>
      <trkpt lat="44.20644" lon="3.6468">
        <ele>768.1</ele>
        <time>2021-08-11T16:26:39Z</time>
      </trkpt>
      <trkpt lat="44.20646" lon="3.64674">
        <ele>768.9</ele>
        <time>2021-08-11T16:26:41Z</time>
      </trkpt>
      <trkpt lat="44.20648" lon="3.64667">
        <ele>769.7</ele>
        <time>2021-08-11T16:26:43Z</time>
      </trkpt>
      <trkpt lat="44.2065" lon="3.6466">
        <ele>770.7</ele>
        <time>2021-08-11T16:26:45Z</time>
      </trkpt>
      <trkpt lat="44.20652" lon="3.64653">
        <ele>771.7</ele>
        <time>2021-08-11T16:26:47Z</time>
      </trkpt>
      <trkpt lat="44.20652" lon="3.64645">
        <ele>772.4</ele>
        <time>2021-08-11T16:26:49Z</time>
      </trkpt>
      <trkpt lat="44.20653" lon="3.64637">
        <ele>772.9</ele>
        <time>2021-08-11T16:26:51Z</time>
      </trkpt>
      <trkpt lat="44.20653" lon="3.64629">
        <ele>773.5</ele>
        <time>2021-08-11T16:26:53Z</time>
      </trkpt>
      <trkpt lat="44.20652" lon="3.6462">
        <ele>773.6</ele>
        <time>2021-08-11T16:26:55Z</time>
      </trkpt>
      <trkpt lat="44.20652" lon="3.64611">
        <ele>773.9</ele>
        <time>2021-08-11T16:26:57Z</time>
      </trkpt>
      <trkpt lat="44.20651" lon="3.64602">
        <ele>774.2</ele>
        <time>2021-08-11T16:26:59Z</time>
      </trkpt>
      <trkpt lat="44.20651" lon="3.64594">
        <ele>774.6</ele>
        <time>2021-08-11T16:27:01Z</time>
      </trkpt>
      <trkpt lat="44.20649" lon="3.64586">
        <ele>774.7</ele>
        <time>2021-08-11T16:27:03Z</time>
      </trkpt>
      <trkpt lat="44.20648" lon="3.64577">
        <ele>775.7</ele>
        <time>2021-08-11T16:27:05Z</time>
      </trkpt>
      <trkpt lat="44.20648" lon="3.64568">
        <ele>777.1</ele>
        <time>2021-08-11T16:27:07Z</time>
      </trkpt>
      <trkpt lat="44.20646" lon="3.64559">
        <ele>778.3</ele>
        <time>2021-08-11T16:27:09Z</time>
      </trkpt>
      <trkpt lat="44.20644" lon="3.6455">
        <ele>779.6</ele>
        <time>2021-08-11T16:27:11Z</time>
      </trkpt>
      <trkpt lat="44.2064" lon="3.64543">
        <ele>780.2</ele>
        <time>2021-08-11T16:27:13Z</time>
      </trkpt>
      <trkpt lat="44.20632" lon="3.64538">
        <ele>780.3</ele>
        <time>2021-08-11T16:27:15Z</time>
      </trkpt>
      <trkpt lat="44.20624" lon="3.64539">
        <ele>779.2</ele>
        <time>2021-08-11T16:27:17Z</time>
      </trkpt>
      <trkpt lat="44.20617" lon="3.64544">
        <ele>777.4</ele>
        <time>2021-08-11T16:27:19Z</time>
      </trkpt>
      <trkpt lat="44.20611" lon="3.6455">
        <ele>775.4</ele>
        <time>2021-08-11T16:27:21Z</time>
      </trkpt>
      <trkpt lat="44.20605" lon="3.64556">
        <ele>773.1</ele>
        <time>2021-08-11T16:27:23Z</time>
      </trkpt>
      <trkpt lat="44.20598" lon="3.64561">
        <ele>771.1</ele>
        <time>2021-08-11T16:27:25Z</time>
      </trkpt>
      <trkpt lat="44.20591" lon="3.64563">
        <ele>769.5</ele>
        <time>2021-08-11T16:27:27Z</time>
      </trkpt>
      <trkpt lat="44.20585" lon="3.64564">
        <ele>768.5</ele>
        <time>2021-08-11T16:27:29Z</time>
      </trkpt>
      <trkpt lat="44.2058" lon="3.64563">
        <ele>769</ele>
        <time>2021-08-11T16:27:31Z</time>
      </trkpt>
      <trkpt lat="44.20573" lon="3.64562">
        <ele>770.5</ele>
        <time>2021-08-11T16:27:33Z</time>
      </trkpt>
      <trkpt lat="44.20568" lon="3.6456">
        <ele>771.9</ele>
        <time>2021-08-11T16:27:35Z</time>
      </trkpt>
      <trkpt lat="44.20562" lon="3.6456">
        <ele>772.9</ele>
        <time>2021-08-11T16:27:37Z</time>
      </trkpt>
      <trkpt lat="44.20556" lon="3.64562">
        <ele>773.6</ele>
        <time>2021-08-11T16:27:39Z</time>
      </trkpt>
      <trkpt lat="44.20549" lon="3.64564">
        <ele>774.1</ele>
        <time>2021-08-11T16:27:41Z</time>
      </trkpt>
      <trkpt lat="44.20544" lon="3.64568">
        <ele>774</ele>
        <time>2021-08-11T16:27:43Z</time>
      </trkpt>
      <trkpt lat="44.20538" lon="3.64574">
        <ele>773.6</ele>
        <time>2021-08-11T16:27:45Z</time>
      </trkpt>
      <trkpt lat="44.20534" lon="3.64582">
        <ele>772.1</ele>
        <time>2021-08-11T16:27:47Z</time>
      </trkpt>
      <trkpt lat="44.20534" lon="3.64593">
        <ele>769.3</ele>
        <time>2021-08-11T16:27:49Z</time>
      </trkpt>
      <trkpt lat="44.20534" lon="3.64602">
        <ele>766.7</ele>
        <time>2021-08-11T16:27:51Z</time>
      </trkpt>
      <trkpt lat="44.20534" lon="3.6461">
        <ele>764.5</ele>
        <time>2021-08-11T16:27:53Z</time>
      </trkpt>
      <trkpt lat="44.20531" lon="3.64619">
        <ele>762.3</ele>
        <time>2021-08-11T16:27:55Z</time>
      </trkpt>
      <trkpt lat="44.20527" lon="3.64627">
        <ele>760.6</ele>
        <time>2021-08-11T16:27:57Z</time>
      </trkpt>
      <trkpt lat="44.20521" lon="3.64633">
        <ele>759.7</ele>
        <time>2021-08-11T16:27:59Z</time>
      </trkpt>
      <trkpt lat="44.20514" lon="3.64638">
        <ele>759.3</ele>
        <time>2021-08-11T16:28:01Z</time>
      </trkpt>
      <trkpt lat="44.20507" lon="3.64642">
        <ele>758.8</ele>
        <time>2021-08-11T16:28:03Z</time>
      </trkpt>
      <trkpt lat="44.20501" lon="3.64645">
        <ele>758.5</ele>
        <time>2021-08-11T16:28:05Z</time>
      </trkpt>
      <trkpt lat="44.20495" lon="3.64648">
        <ele>758.6</ele>
        <time>2021-08-11T16:28:07Z</time>
      </trkpt>
      <trkpt lat="44.20489" lon="3.64649">
        <ele>759.3</ele>
        <time>2021-08-11T16:28:09Z</time>
      </trkpt>
      <trkpt lat="44.20482" lon="3.64649">
        <ele>760.1</ele>
        <time>2021-08-11T16:28:11Z</time>
      </trkpt>
      <trkpt lat="44.20476" lon="3.64646">
        <ele>761.9</ele>
        <time>2021-08-11T16:28:13Z</time>
      </trkpt>
      <trkpt lat="44.2047" lon="3.64643">
        <ele>763.9</ele>
        <time>2021-08-11T16:28:15Z</time>
      </trkpt>
      <trkpt lat="44.20464" lon="3.64639">
        <ele>765.9</ele>
        <time>2021-08-11T16:28:17Z</time>
      </trkpt>
      <trkpt lat="44.20458" lon="3.64635">
        <ele>768</ele>
        <time>2021-08-11T16:28:19Z</time>
      </trkpt>
      <trkpt lat="44.20452" lon="3.64631">
        <ele>769.9</ele>
        <time>2021-08-11T16:28:21Z</time>
      </trkpt>
      <trkpt lat="44.20445" lon="3.6463">
        <ele>771.1</ele>
        <time>2021-08-11T16:28:23Z</time>
      </trkpt>
      <trkpt lat="44.20438" lon="3.64632">
        <ele>771.5</ele>
        <time>2021-08-11T16:28:25Z</time>
      </trkpt>
      <trkpt lat="44.20433" lon="3.64638">
        <ele>770.6</ele>
        <time>2021-08-11T16:28:27Z</time>
      </trkpt>
      <trkpt lat="44.20428" lon="3.64645">
        <ele>769.3</ele>
        <time>2021-08-11T16:28:29Z</time>
      </trkpt>
      <trkpt lat="44.20425" lon="3.64651">
        <ele>768</ele>
        <time>2021-08-11T16:28:31Z</time>
      </trkpt>
      <trkpt lat="44.20422" lon="3.64657">
        <ele>766.9</ele>
        <time>2021-08-11T16:28:33Z</time>
      </trkpt>
      <trkpt lat="44.20418" lon="3.64663">
        <ele>765.8</ele>
        <time>2021-08-11T16:28:35Z</time>
      </trkpt>
      <trkpt lat="44.20414" lon="3.64668">
        <ele>764.8</ele>
        <time>2021-08-11T16:28:37Z</time>
      </trkpt>
      <trkpt lat="44.2041" lon="3.64671">
        <ele>764.2</ele>
        <time>2021-08-11T16:28:39Z</time>
      </trkpt>
      <trkpt lat="44.20407" lon="3.64674">
        <ele>763.7</ele>
        <time>2021-08-11T16:28:41Z</time>
      </trkpt>
      <trkpt lat="44.20404" lon="3.64675">
        <ele>763.6</ele>
        <time>2021-08-11T16:28:43Z</time>
      </trkpt>
      <trkpt lat="44.20402" lon="3.64676">
        <ele>763.4</ele>
        <time>2021-08-11T16:28:45Z</time>
      </trkpt>
      <trkpt lat="44.204" lon="3.64677">
        <ele>763.4</ele>
        <time>2021-08-11T16:28:47Z</time>
      </trkpt>
      <trkpt lat="44.204" lon="3.64677">
        <ele>763.4</ele>
        <time>2021-08-11T16:28:49Z</time>
      </trkpt>
      <trkpt lat="44.204" lon="3.64677">
        <ele>763.5</ele>
        <time>2021-08-11T16:28:51Z</time>
      </trkpt>
      <trkpt lat="44.204" lon="3.64676">
        <ele>763.5</ele>
        <time>2021-08-11T16:28:53Z</time>
      </trkpt>
      <trkpt lat="44.204" lon="3.64677">
        <ele>763.5</ele>
        <time>2021-08-11T16:28:55Z</time>
      </trkpt>
      <trkpt lat="44.20383" lon="3.64688">
        <ele>762</ele>
        <time>2021-08-11T16:29:59Z</time>
      </trkpt>
      <trkpt lat="44.20377" lon="3.64689">
        <ele>762.2</ele>
        <time>2021-08-11T16:30:01Z</time>
      </trkpt>
      <trkpt lat="44.20371" lon="3.6469">
        <ele>762.7</ele>
        <time>2021-08-11T16:30:03Z</time>
      </trkpt>
      <trkpt lat="44.20366" lon="3.6469">
        <ele>763.4</ele>
        <time>2021-08-11T16:30:05Z</time>
      </trkpt>
      <trkpt lat="44.2036" lon="3.64688">
        <ele>764.4</ele>
        <time>2021-08-11T16:30:07Z</time>
      </trkpt>
      <trkpt lat="44.20355" lon="3.64686">
        <ele>765.4</ele>
        <time>2021-08-11T16:30:09Z</time>
      </trkpt>
      <trkpt lat="44.2035" lon="3.64684">
        <ele>766.6</ele>
        <time>2021-08-11T16:30:11Z</time>
      </trkpt>
      <trkpt lat="44.20344" lon="3.64681">
        <ele>767.8</ele>
        <time>2021-08-11T16:30:13Z</time>
      </trkpt>
      <trkpt lat="44.20338" lon="3.64678">
        <ele>769</ele>
        <time>2021-08-11T16:30:15Z</time>
      </trkpt>
      <trkpt lat="44.20332" lon="3.64676">
        <ele>770.3</ele>
        <time>2021-08-11T16:30:17Z</time>
      </trkpt>
      <trkpt lat="44.20327" lon="3.64673">
        <ele>771.7</ele>
        <time>2021-08-11T16:30:19Z</time>
      </trkpt>
      <trkpt lat="44.20321" lon="3.64671">
        <ele>773.2</ele>
        <time>2021-08-11T16:30:21Z</time>
      </trkpt>
      <trkpt lat="44.20315" lon="3.64668">
        <ele>774.8</ele>
        <time>2021-08-11T16:30:23Z</time>
      </trkpt>
      <trkpt lat="44.20308" lon="3.64666">
        <ele>776.5</ele>
        <time>2021-08-11T16:30:25Z</time>
      </trkpt>
      <trkpt lat="44.20301" lon="3.64664">
        <ele>778.1</ele>
        <time>2021-08-11T16:30:27Z</time>
      </trkpt>
      <trkpt lat="44.20293" lon="3.64665">
        <ele>779.1</ele>
        <time>2021-08-11T16:30:29Z</time>
      </trkpt>
      <trkpt lat="44.20287" lon="3.6467">
        <ele>779.1</ele>
        <time>2021-08-11T16:30:31Z</time>
      </trkpt>
      <trkpt lat="44.20282" lon="3.64681">
        <ele>777.9</ele>
        <time>2021-08-11T16:30:33Z</time>
      </trkpt>
      <trkpt lat="44.2028" lon="3.64691">
        <ele>776.5</ele>
        <time>2021-08-11T16:30:35Z</time>
      </trkpt>
      <trkpt lat="44.20278" lon="3.647">
        <ele>775.1</ele>
        <time>2021-08-11T16:30:37Z</time>
      </trkpt>
      <trkpt lat="44.20274" lon="3.64708">
        <ele>774.3</ele>
        <time>2021-08-11T16:30:39Z</time>
      </trkpt>
      <trkpt lat="44.20269" lon="3.64715">
        <ele>774.1</ele>
        <time>2021-08-11T16:30:41Z</time>
      </trkpt>
      <trkpt lat="44.20263" lon="3.64722">
        <ele>774</ele>
        <time>2021-08-11T16:30:43Z</time>
      </trkpt>
      <trkpt lat="44.20257" lon="3.64729">
        <ele>774</ele>
        <time>2021-08-11T16:30:45Z</time>
      </trkpt>
      <trkpt lat="44.20253" lon="3.64738">
        <ele>773.5</ele>
        <time>2021-08-11T16:30:47Z</time>
      </trkpt>
      <trkpt lat="44.20249" lon="3.64747">
        <ele>772.7</ele>
        <time>2021-08-11T16:30:49Z</time>
      </trkpt>
      <trkpt lat="44.20247" lon="3.64758">
        <ele>771.8</ele>
        <time>2021-08-11T16:30:51Z</time>
      </trkpt>
      <trkpt lat="44.20244" lon="3.64767">
        <ele>771.1</ele>
        <time>2021-08-11T16:30:53Z</time>
      </trkpt>
      <trkpt lat="44.20239" lon="3.64778">
        <ele>770.5</ele>
        <time>2021-08-11T16:30:55Z</time>
      </trkpt>
      <trkpt lat="44.20233" lon="3.64788">
        <ele>770.5</ele>
        <time>2021-08-11T16:30:57Z</time>
      </trkpt>
      <trkpt lat="44.20226" lon="3.64796">
        <ele>770.9</ele>
        <time>2021-08-11T16:30:59Z</time>
      </trkpt>
      <trkpt lat="44.20218" lon="3.64803">
        <ele>771.3</ele>
        <time>2021-08-11T16:31:01Z</time>
      </trkpt>
      <trkpt lat="44.2021" lon="3.6481">
        <ele>771.7</ele>
        <time>2021-08-11T16:31:03Z</time>
      </trkpt>
      <trkpt lat="44.20202" lon="3.64817">
        <ele>771.9</ele>
        <time>2021-08-11T16:31:05Z</time>
      </trkpt>
      <trkpt lat="44.20194" lon="3.64824">
        <ele>772</ele>
        <time>2021-08-11T16:31:07Z</time>
      </trkpt>
      <trkpt lat="44.20186" lon="3.64832">
        <ele>771.9</ele>
        <time>2021-08-11T16:31:09Z</time>
      </trkpt>
      <trkpt lat="44.20179" lon="3.64837">
        <ele>772.1</ele>
        <time>2021-08-11T16:31:11Z</time>
      </trkpt>
      <trkpt lat="44.20172" lon="3.64846">
        <ele>771.9</ele>
        <time>2021-08-11T16:31:13Z</time>
      </trkpt>
      <trkpt lat="44.20164" lon="3.64852">
        <ele>772.3</ele>
        <time>2021-08-11T16:31:15Z</time>
      </trkpt>
      <trkpt lat="44.20157" lon="3.64859">
        <ele>772.6</ele>
        <time>2021-08-11T16:31:17Z</time>
      </trkpt>
      <trkpt lat="44.2015" lon="3.64865">
        <ele>773.2</ele>
        <time>2021-08-11T16:31:19Z</time>
      </trkpt>
      <trkpt lat="44.20142" lon="3.64872">
        <ele>773.7</ele>
        <time>2021-08-11T16:31:21Z</time>
      </trkpt>
      <trkpt lat="44.20135" lon="3.6488">
        <ele>774</ele>
        <time>2021-08-11T16:31:23Z</time>
      </trkpt>
      <trkpt lat="44.20128" lon="3.64886">
        <ele>774.4</ele>
        <time>2021-08-11T16:31:25Z</time>
      </trkpt>
      <trkpt lat="44.2012" lon="3.64893">
        <ele>774.7</ele>
        <time>2021-08-11T16:31:27Z</time>
      </trkpt>
      <trkpt lat="44.20113" lon="3.64899">
        <ele>775.2</ele>
        <time>2021-08-11T16:31:29Z</time>
      </trkpt>
      <trkpt lat="44.20107" lon="3.64905">
        <ele>775.4</ele>
        <time>2021-08-11T16:31:31Z</time>
      </trkpt>
      <trkpt lat="44.201" lon="3.64909">
        <ele>775.9</ele>
        <time>2021-08-11T16:31:33Z</time>
      </trkpt>
      <trkpt lat="44.20094" lon="3.64916">
        <ele>775.7</ele>
        <time>2021-08-11T16:31:35Z</time>
      </trkpt>
      <trkpt lat="44.20089" lon="3.64924">
        <ele>776</ele>
        <time>2021-08-11T16:31:37Z</time>
      </trkpt>
      <trkpt lat="44.20086" lon="3.64934">
        <ele>775.8</ele>
        <time>2021-08-11T16:31:39Z</time>
      </trkpt>
      <trkpt lat="44.20082" lon="3.64944">
        <ele>775.6</ele>
        <time>2021-08-11T16:31:41Z</time>
      </trkpt>
      <trkpt lat="44.20079" lon="3.64954">
        <ele>775.1</ele>
        <time>2021-08-11T16:31:43Z</time>
      </trkpt>
      <trkpt lat="44.20075" lon="3.64965">
        <ele>774.8</ele>
        <time>2021-08-11T16:31:45Z</time>
      </trkpt>
      <trkpt lat="44.20071" lon="3.64976">
        <ele>774.4</ele>
        <time>2021-08-11T16:31:47Z</time>
      </trkpt>
      <trkpt lat="44.20066" lon="3.64986">
        <ele>774.1</ele>
        <time>2021-08-11T16:31:49Z</time>
      </trkpt>
      <trkpt lat="44.20061" lon="3.64995">
        <ele>773.7</ele>
        <time>2021-08-11T16:31:51Z</time>
      </trkpt>
      <trkpt lat="44.20056" lon="3.65004">
        <ele>773.2</ele>
        <time>2021-08-11T16:31:53Z</time>
      </trkpt>
      <trkpt lat="44.20051" lon="3.65013">
        <ele>772.3</ele>
        <time>2021-08-11T16:31:55Z</time>
      </trkpt>
      <trkpt lat="44.20046" lon="3.65022">
        <ele>771.5</ele>
        <time>2021-08-11T16:31:57Z</time>
      </trkpt>
      <trkpt lat="44.20039" lon="3.65029">
        <ele>771</ele>
        <time>2021-08-11T16:31:59Z</time>
      </trkpt>
      <trkpt lat="44.20032" lon="3.65035">
        <ele>770.8</ele>
        <time>2021-08-11T16:32:01Z</time>
      </trkpt>
      <trkpt lat="44.20025" lon="3.6504">
        <ele>770.8</ele>
        <time>2021-08-11T16:32:03Z</time>
      </trkpt>
      <trkpt lat="44.20017" lon="3.65044">
        <ele>770.9</ele>
        <time>2021-08-11T16:32:05Z</time>
      </trkpt>
      <trkpt lat="44.2001" lon="3.65047">
        <ele>771.1</ele>
        <time>2021-08-11T16:32:07Z</time>
      </trkpt>
      <trkpt lat="44.20002" lon="3.6505">
        <ele>771.6</ele>
        <time>2021-08-11T16:32:09Z</time>
      </trkpt>
      <trkpt lat="44.19994" lon="3.65052">
        <ele>772.3</ele>
        <time>2021-08-11T16:32:11Z</time>
      </trkpt>
      <trkpt lat="44.19985" lon="3.65055">
        <ele>773</ele>
        <time>2021-08-11T16:32:13Z</time>
      </trkpt>
      <trkpt lat="44.19977" lon="3.65058">
        <ele>773.8</ele>
        <time>2021-08-11T16:32:15Z</time>
      </trkpt>
      <trkpt lat="44.19968" lon="3.65063">
        <ele>774.3</ele>
        <time>2021-08-11T16:32:17Z</time>
      </trkpt>
      <trkpt lat="44.1996" lon="3.65068">
        <ele>774.7</ele>
        <time>2021-08-11T16:32:19Z</time>
      </trkpt>
      <trkpt lat="44.19952" lon="3.65074">
        <ele>774.7</ele>
        <time>2021-08-11T16:32:21Z</time>
      </trkpt>
      <trkpt lat="44.19945" lon="3.65082">
        <ele>774.5</ele>
        <time>2021-08-11T16:32:23Z</time>
      </trkpt>
      <trkpt lat="44.1994" lon="3.65089">
        <ele>773.8</ele>
        <time>2021-08-11T16:32:25Z</time>
      </trkpt>
      <trkpt lat="44.19934" lon="3.65098">
        <ele>772.9</ele>
        <time>2021-08-11T16:32:27Z</time>
      </trkpt>
      <trkpt lat="44.19929" lon="3.65105">
        <ele>772.2</ele>
        <time>2021-08-11T16:32:29Z</time>
      </trkpt>
      <trkpt lat="44.19922" lon="3.65113">
        <ele>771.8</ele>
        <time>2021-08-11T16:32:31Z</time>
      </trkpt>
      <trkpt lat="44.19915" lon="3.65118">
        <ele>771.8</ele>
        <time>2021-08-11T16:32:33Z</time>
      </trkpt>
      <trkpt lat="44.19907" lon="3.65125">
        <ele>771.2</ele>
        <time>2021-08-11T16:32:35Z</time>
      </trkpt>
      <trkpt lat="44.199" lon="3.6513">
        <ele>771</ele>
        <time>2021-08-11T16:32:37Z</time>
      </trkpt>
      <trkpt lat="44.19892" lon="3.65135">
        <ele>771</ele>
        <time>2021-08-11T16:32:39Z</time>
      </trkpt>
      <trkpt lat="44.19885" lon="3.6514">
        <ele>770.9</ele>
        <time>2021-08-11T16:32:41Z</time>
      </trkpt>
      <trkpt lat="44.19877" lon="3.65144">
        <ele>771.2</ele>
        <time>2021-08-11T16:32:43Z</time>
      </trkpt>
      <trkpt lat="44.19869" lon="3.65147">
        <ele>771.4</ele>
        <time>2021-08-11T16:32:45Z</time>
      </trkpt>
      <trkpt lat="44.19861" lon="3.65151">
        <ele>771.8</ele>
        <time>2021-08-11T16:32:47Z</time>
      </trkpt>
      <trkpt lat="44.19853" lon="3.65154">
        <ele>772.1</ele>
        <time>2021-08-11T16:32:49Z</time>
      </trkpt>
      <trkpt lat="44.19845" lon="3.65157">
        <ele>772.6</ele>
        <time>2021-08-11T16:32:51Z</time>
      </trkpt>
      <trkpt lat="44.19837" lon="3.6516">
        <ele>773.1</ele>
        <time>2021-08-11T16:32:53Z</time>
      </trkpt>
      <trkpt lat="44.19828" lon="3.65162">
        <ele>774</ele>
        <time>2021-08-11T16:32:55Z</time>
      </trkpt>
      <trkpt lat="44.1982" lon="3.65162">
        <ele>775.6</ele>
        <time>2021-08-11T16:32:57Z</time>
      </trkpt>
      <trkpt lat="44.19812" lon="3.65161">
        <ele>777.5</ele>
        <time>2021-08-11T16:32:59Z</time>
      </trkpt>
      <trkpt lat="44.19804" lon="3.65159">
        <ele>779.4</ele>
        <time>2021-08-11T16:33:01Z</time>
      </trkpt>
      <trkpt lat="44.19796" lon="3.65161">
        <ele>780.7</ele>
        <time>2021-08-11T16:33:03Z</time>
      </trkpt>
      <trkpt lat="44.1979" lon="3.6517">
        <ele>780.3</ele>
        <time>2021-08-11T16:33:05Z</time>
      </trkpt>
      <trkpt lat="44.19789" lon="3.65182">
        <ele>778.7</ele>
        <time>2021-08-11T16:33:07Z</time>
      </trkpt>
      <trkpt lat="44.19788" lon="3.65195">
        <ele>776.9</ele>
        <time>2021-08-11T16:33:09Z</time>
      </trkpt>
      <trkpt lat="44.19786" lon="3.65209">
        <ele>775.2</ele>
        <time>2021-08-11T16:33:11Z</time>
      </trkpt>
      <trkpt lat="44.19785" lon="3.65223">
        <ele>773.4</ele>
        <time>2021-08-11T16:33:13Z</time>
      </trkpt>
      <trkpt lat="44.19782" lon="3.65237">
        <ele>772</ele>
        <time>2021-08-11T16:33:15Z</time>
      </trkpt>
      <trkpt lat="44.19778" lon="3.65249">
        <ele>771.4</ele>
        <time>2021-08-11T16:33:17Z</time>
      </trkpt>
      <trkpt lat="44.19774" lon="3.65258">
        <ele>771.6</ele>
        <time>2021-08-11T16:33:19Z</time>
      </trkpt>
      <trkpt lat="44.19768" lon="3.65268">
        <ele>772.3</ele>
        <time>2021-08-11T16:33:21Z</time>
      </trkpt>
      <trkpt lat="44.1976" lon="3.65275">
        <ele>773.6</ele>
        <time>2021-08-11T16:33:23Z</time>
      </trkpt>
      <trkpt lat="44.19754" lon="3.65281">
        <ele>774.6</ele>
        <time>2021-08-11T16:33:25Z</time>
      </trkpt>
      <trkpt lat="44.19747" lon="3.65286">
        <ele>775.5</ele>
        <time>2021-08-11T16:33:27Z</time>
      </trkpt>
      <trkpt lat="44.1974" lon="3.6529">
        <ele>776</ele>
        <time>2021-08-11T16:33:29Z</time>
      </trkpt>
      <trkpt lat="44.19734" lon="3.65294">
        <ele>776.6</ele>
        <time>2021-08-11T16:33:31Z</time>
      </trkpt>
      <trkpt lat="44.19725" lon="3.65299">
        <ele>777.2</ele>
        <time>2021-08-11T16:33:33Z</time>
      </trkpt>
      <trkpt lat="44.19719" lon="3.65302">
        <ele>777.7</ele>
        <time>2021-08-11T16:33:35Z</time>
      </trkpt>
      <trkpt lat="44.1971" lon="3.65309">
        <ele>778</ele>
        <time>2021-08-11T16:33:37Z</time>
      </trkpt>
      <trkpt lat="44.19703" lon="3.65314">
        <ele>778.2</ele>
        <time>2021-08-11T16:33:39Z</time>
      </trkpt>
      <trkpt lat="44.19696" lon="3.6532">
        <ele>778.3</ele>
        <time>2021-08-11T16:33:41Z</time>
      </trkpt>
      <trkpt lat="44.19689" lon="3.65327">
        <ele>778.3</ele>
        <time>2021-08-11T16:33:43Z</time>
      </trkpt>
      <trkpt lat="44.19681" lon="3.65332">
        <ele>778.4</ele>
        <time>2021-08-11T16:33:45Z</time>
      </trkpt>
      <trkpt lat="44.19674" lon="3.65338">
        <ele>778.3</ele>
        <time>2021-08-11T16:33:47Z</time>
      </trkpt>
      <trkpt lat="44.19667" lon="3.65343">
        <ele>778</ele>
        <time>2021-08-11T16:33:49Z</time>
      </trkpt>
      <trkpt lat="44.19662" lon="3.65348">
        <ele>777.4</ele>
        <time>2021-08-11T16:33:51Z</time>
      </trkpt>
      <trkpt lat="44.19656" lon="3.65353">
        <ele>776.7</ele>
        <time>2021-08-11T16:33:53Z</time>
      </trkpt>
      <trkpt lat="44.1965" lon="3.65358">
        <ele>776.3</ele>
        <time>2021-08-11T16:33:55Z</time>
      </trkpt>
      <trkpt lat="44.19645" lon="3.65362">
        <ele>775.8</ele>
        <time>2021-08-11T16:33:57Z</time>
      </trkpt>
      <trkpt lat="44.1964" lon="3.65366">
        <ele>775.5</ele>
        <time>2021-08-11T16:33:59Z</time>
      </trkpt>
      <trkpt lat="44.19637" lon="3.65371">
        <ele>774.8</ele>
        <time>2021-08-11T16:34:01Z</time>
      </trkpt>
      <trkpt lat="44.19633" lon="3.65377">
        <ele>774.2</ele>
        <time>2021-08-11T16:34:03Z</time>
      </trkpt>
      <trkpt lat="44.1963" lon="3.65381">
        <ele>773.7</ele>
        <time>2021-08-11T16:34:05Z</time>
      </trkpt>
      <trkpt lat="44.19628" lon="3.65383">
        <ele>773.6</ele>
        <time>2021-08-11T16:34:07Z</time>
      </trkpt>
      <trkpt lat="44.19628" lon="3.65383">
        <ele>773.5</ele>
        <time>2021-08-11T16:34:09Z</time>
      </trkpt>
      <trkpt lat="44.19628" lon="3.65383">
        <ele>773.6</ele>
        <time>2021-08-11T16:34:11Z</time>
      </trkpt>
      <trkpt lat="44.19627" lon="3.65383">
        <ele>773.6</ele>
        <time>2021-08-11T16:34:13Z</time>
      </trkpt>
      <trkpt lat="44.19626" lon="3.65384">
        <ele>773.5</ele>
        <time>2021-08-11T16:34:15Z</time>
      </trkpt>
      <trkpt lat="44.19616" lon="3.65384">
        <ele>774.5</ele>
        <time>2021-08-11T16:34:21Z</time>
      </trkpt>
      <trkpt lat="44.19612" lon="3.65386">
        <ele>774.7</ele>
        <time>2021-08-11T16:34:23Z</time>
      </trkpt>
      <trkpt lat="44.19608" lon="3.65388">
        <ele>774.7</ele>
        <time>2021-08-11T16:34:25Z</time>
      </trkpt>
      <trkpt lat="44.19603" lon="3.65389">
        <ele>775</ele>
        <time>2021-08-11T16:34:27Z</time>
      </trkpt>
      <trkpt lat="44.19598" lon="3.65392">
        <ele>775.1</ele>
        <time>2021-08-11T16:34:29Z</time>
      </trkpt>
      <trkpt lat="44.19593" lon="3.65395">
        <ele>775</ele>
        <time>2021-08-11T16:34:31Z</time>
      </trkpt>
      <trkpt lat="44.19589" lon="3.65401">
        <ele>774.6</ele>
        <time>2021-08-11T16:34:33Z</time>
      </trkpt>
      <trkpt lat="44.19585" lon="3.65407">
        <ele>774.2</ele>
        <time>2021-08-11T16:34:35Z</time>
      </trkpt>
      <trkpt lat="44.19583" lon="3.65414">
        <ele>773.4</ele>
        <time>2021-08-11T16:34:37Z</time>
      </trkpt>
      <trkpt lat="44.19581" lon="3.65421">
        <ele>772.8</ele>
        <time>2021-08-11T16:34:39Z</time>
      </trkpt>
      <trkpt lat="44.1958" lon="3.65428">
        <ele>772.5</ele>
        <time>2021-08-11T16:34:41Z</time>
      </trkpt>
      <trkpt lat="44.19579" lon="3.65434">
        <ele>772.3</ele>
        <time>2021-08-11T16:34:43Z</time>
      </trkpt>
      <trkpt lat="44.19577" lon="3.65439">
        <ele>772.1</ele>
        <time>2021-08-11T16:34:45Z</time>
      </trkpt>
      <trkpt lat="44.19576" lon="3.65445">
        <ele>771.9</ele>
        <time>2021-08-11T16:34:47Z</time>
      </trkpt>
      <trkpt lat="44.19575" lon="3.65451">
        <ele>771.6</ele>
        <time>2021-08-11T16:34:49Z</time>
      </trkpt>
      <trkpt lat="44.19574" lon="3.65457">
        <ele>771.4</ele>
        <time>2021-08-11T16:34:51Z</time>
      </trkpt>
      <trkpt lat="44.19572" lon="3.65464">
        <ele>771.2</ele>
        <time>2021-08-11T16:34:53Z</time>
      </trkpt>
      <trkpt lat="44.1957" lon="3.6547">
        <ele>771</ele>
        <time>2021-08-11T16:34:55Z</time>
      </trkpt>
      <trkpt lat="44.19568" lon="3.65474">
        <ele>770.9</ele>
        <time>2021-08-11T16:34:57Z</time>
      </trkpt>
      <trkpt lat="44.19564" lon="3.65473">
        <ele>771.2</ele>
        <time>2021-08-11T16:34:59Z</time>
      </trkpt>
      <trkpt lat="44.19561" lon="3.65471">
        <ele>771.4</ele>
        <time>2021-08-11T16:35:01Z</time>
      </trkpt>
      <trkpt lat="44.19559" lon="3.65471">
        <ele>771.5</ele>
        <time>2021-08-11T16:35:03Z</time>
      </trkpt>
      <trkpt lat="44.19557" lon="3.65471">
        <ele>771.5</ele>
        <time>2021-08-11T16:35:05Z</time>
      </trkpt>
      <trkpt lat="44.19557" lon="3.65467">
        <ele>771.6</ele>
        <time>2021-08-11T16:35:07Z</time>
      </trkpt>
      <trkpt lat="44.19557" lon="3.65461">
        <ele>771.9</ele>
        <time>2021-08-11T16:35:09Z</time>
      </trkpt>
      <trkpt lat="44.19557" lon="3.65457">
        <ele>772</ele>
        <time>2021-08-11T16:35:11Z</time>
      </trkpt>
      <trkpt lat="44.19556" lon="3.65452">
        <ele>772.2</ele>
        <time>2021-08-11T16:35:13Z</time>
      </trkpt>
      <trkpt lat="44.19556" lon="3.65448">
        <ele>772.3</ele>
        <time>2021-08-11T16:35:15Z</time>
      </trkpt>
      <trkpt lat="44.19555" lon="3.65443">
        <ele>772.5</ele>
        <time>2021-08-11T16:35:17Z</time>
      </trkpt>
      <trkpt lat="44.19554" lon="3.65442">
        <ele>772.6</ele>
        <time>2021-08-11T16:35:19Z</time>
      </trkpt>
      <trkpt lat="44.1955" lon="3.6544">
        <ele>772.7</ele>
        <time>2021-08-11T16:35:21Z</time>
      </trkpt>
      <trkpt lat="44.19547" lon="3.65438">
        <ele>772.9</ele>
        <time>2021-08-11T16:35:23Z</time>
      </trkpt>
      <trkpt lat="44.19544" lon="3.65438">
        <ele>772.9</ele>
        <time>2021-08-11T16:35:25Z</time>
      </trkpt>
      <trkpt lat="44.19541" lon="3.65437">
        <ele>773</ele>
        <time>2021-08-11T16:35:27Z</time>
      </trkpt>
      <trkpt lat="44.19542" lon="3.65436">
        <ele>773</ele>
        <time>2021-08-11T16:35:29Z</time>
      </trkpt>
      <trkpt lat="44.19539" lon="3.65434">
        <ele>773.1</ele>
        <time>2021-08-11T16:35:31Z</time>
      </trkpt>
      <trkpt lat="44.19535" lon="3.65433">
        <ele>773.2</ele>
        <time>2021-08-11T16:35:33Z</time>
      </trkpt>
      <trkpt lat="44.19531" lon="3.65433">
        <ele>773.3</ele>
        <time>2021-08-11T16:35:35Z</time>
      </trkpt>
      <trkpt lat="44.19527" lon="3.65432">
        <ele>773.4</ele>
        <time>2021-08-11T16:35:37Z</time>
      </trkpt>
      <trkpt lat="44.19525" lon="3.65431">
        <ele>773.5</ele>
        <time>2021-08-11T16:35:39Z</time>
      </trkpt>
      <trkpt lat="44.19525" lon="3.65431">
        <ele>773.5</ele>
        <time>2021-08-11T16:35:41Z</time>
      </trkpt>
      <trkpt lat="44.19525" lon="3.65432">
        <ele>773.5</ele>
        <time>2021-08-11T16:35:43Z</time>
      </trkpt>
      <trkpt lat="44.19525" lon="3.65432">
        <ele>773.5</ele>
        <time>2021-08-11T16:35:45Z</time>
      </trkpt>
      <trkpt lat="44.19524" lon="3.65432">
        <ele>773.5</ele>
        <time>2021-08-11T16:35:47Z</time>
      </trkpt>
      <trkpt lat="44.19516" lon="3.65458">
        <ele>773.4</ele>
        <time>2021-08-11T16:39:41Z</time>
      </trkpt>
      <trkpt lat="44.19511" lon="3.65456">
        <ele>773.6</ele>
        <time>2021-08-11T16:39:43Z</time>
      </trkpt>
      <trkpt lat="44.19506" lon="3.65452">
        <ele>773.8</ele>
        <time>2021-08-11T16:39:45Z</time>
      </trkpt>
      <trkpt lat="44.19501" lon="3.65449">
        <ele>774</ele>
        <time>2021-08-11T16:39:47Z</time>
      </trkpt>
      <trkpt lat="44.19496" lon="3.65444">
        <ele>772.6</ele>
        <time>2021-08-11T16:39:49Z</time>
      </trkpt>
      <trkpt lat="44.19491" lon="3.65437">
        <ele>771.1</ele>
        <time>2021-08-11T16:39:51Z</time>
      </trkpt>
      <trkpt lat="44.19488" lon="3.6543">
        <ele>770.1</ele>
        <time>2021-08-11T16:39:53Z</time>
      </trkpt>
      <trkpt lat="44.19486" lon="3.65422">
        <ele>769.5</ele>
        <time>2021-08-11T16:39:55Z</time>
      </trkpt>
      <trkpt lat="44.19486" lon="3.65413">
        <ele>769.3</ele>
        <time>2021-08-11T16:39:57Z</time>
      </trkpt>
      <trkpt lat="44.19486" lon="3.65405">
        <ele>769.6</ele>
        <time>2021-08-11T16:39:59Z</time>
      </trkpt>
      <trkpt lat="44.19486" lon="3.65397">
        <ele>769.9</ele>
        <time>2021-08-11T16:40:01Z</time>
      </trkpt>
      <trkpt lat="44.19486" lon="3.65389">
        <ele>770.2</ele>
        <time>2021-08-11T16:40:03Z</time>
      </trkpt>
      <trkpt lat="44.19486" lon="3.65382">
        <ele>770.1</ele>
        <time>2021-08-11T16:40:05Z</time>
      </trkpt>
      <trkpt lat="44.19485" lon="3.65376">
        <ele>770.2</ele>
        <time>2021-08-11T16:40:07Z</time>
      </trkpt>
      <trkpt lat="44.19486" lon="3.6537">
        <ele>770.5</ele>
        <time>2021-08-11T16:40:09Z</time>
      </trkpt>
      <trkpt lat="44.19486" lon="3.65366">
        <ele>770.7</ele>
        <time>2021-08-11T16:40:11Z</time>
      </trkpt>
      <trkpt lat="44.19486" lon="3.65362">
        <ele>770.7</ele>
        <time>2021-08-11T16:40:13Z</time>
      </trkpt>
      <trkpt lat="44.19484" lon="3.6536">
        <ele>770.2</ele>
        <time>2021-08-11T16:40:15Z</time>
      </trkpt>
      <trkpt lat="44.19482" lon="3.6536">
        <ele>769.7</ele>
        <time>2021-08-11T16:40:17Z</time>
      </trkpt>
      <trkpt lat="44.19483" lon="3.65361">
        <ele>769.8</ele>
        <time>2021-08-11T16:40:19Z</time>
      </trkpt>
      <trkpt lat="44.19483" lon="3.65361">
        <ele>769.8</ele>
        <time>2021-08-11T16:40:21Z</time>
      </trkpt>
      <trkpt lat="44.19483" lon="3.65361">
        <ele>769.8</ele>
        <time>2021-08-11T16:40:23Z</time>
      </trkpt>
      <trkpt lat="44.1948" lon="3.65357">
        <ele>769.2</ele>
        <time>2021-08-11T16:40:41Z</time>
      </trkpt>
      <trkpt lat="44.19479" lon="3.65354">
        <ele>768.7</ele>
        <time>2021-08-11T16:40:43Z</time>
      </trkpt>
      <trkpt lat="44.19477" lon="3.65352">
        <ele>768.2</ele>
        <time>2021-08-11T16:40:45Z</time>
      </trkpt>
      <trkpt lat="44.19476" lon="3.65349">
        <ele>768</ele>
        <time>2021-08-11T16:40:47Z</time>
      </trkpt>
      <trkpt lat="44.19476" lon="3.65347">
        <ele>768</ele>
        <time>2021-08-11T16:40:49Z</time>
      </trkpt>
      <trkpt lat="44.19475" lon="3.65344">
        <ele>768</ele>
        <time>2021-08-11T16:40:51Z</time>
      </trkpt>
      <trkpt lat="44.19475" lon="3.65341">
        <ele>767.9</ele>
        <time>2021-08-11T16:40:53Z</time>
      </trkpt>
      <trkpt lat="44.19474" lon="3.65338">
        <ele>767.7</ele>
        <time>2021-08-11T16:40:55Z</time>
      </trkpt>
      <trkpt lat="44.19473" lon="3.65336">
        <ele>767.5</ele>
        <time>2021-08-11T16:40:57Z</time>
      </trkpt>
      <trkpt lat="44.19471" lon="3.65335">
        <ele>767.1</ele>
        <time>2021-08-11T16:40:59Z</time>
      </trkpt>
      <trkpt lat="44.19469" lon="3.65334">
        <ele>766.4</ele>
        <time>2021-08-11T16:41:01Z</time>
      </trkpt>
      <trkpt lat="44.19468" lon="3.65334">
        <ele>766.1</ele>
        <time>2021-08-11T16:41:03Z</time>
      </trkpt>
      <trkpt lat="44.19468" lon="3.65334">
        <ele>766.1</ele>
        <time>2021-08-11T16:41:05Z</time>
      </trkpt>
      <trkpt lat="44.19469" lon="3.65334">
        <ele>766.2</ele>
        <time>2021-08-11T16:41:07Z</time>
      </trkpt>
      <trkpt lat="44.19469" lon="3.65334">
        <ele>766.3</ele>
        <time>2021-08-11T16:41:09Z</time>
      </trkpt>
      <trkpt lat="44.19484" lon="3.65378">
        <ele>769.8</ele>
        <time>2021-08-11T16:51:33Z</time>
      </trkpt>
      <trkpt lat="44.19484" lon="3.65385">
        <ele>769.5</ele>
        <time>2021-08-11T16:51:35Z</time>
      </trkpt>
      <trkpt lat="44.19484" lon="3.65392">
        <ele>769.3</ele>
        <time>2021-08-11T16:51:37Z</time>
      </trkpt>
      <trkpt lat="44.19484" lon="3.65398">
        <ele>769.1</ele>
        <time>2021-08-11T16:51:39Z</time>
      </trkpt>
      <trkpt lat="44.19484" lon="3.65406">
        <ele>768.9</ele>
        <time>2021-08-11T16:51:41Z</time>
      </trkpt>
      <trkpt lat="44.19484" lon="3.65414">
        <ele>768.7</ele>
        <time>2021-08-11T16:51:43Z</time>
      </trkpt>
      <trkpt lat="44.19484" lon="3.65421">
        <ele>768.7</ele>
        <time>2021-08-11T16:51:45Z</time>
      </trkpt>
      <trkpt lat="44.19485" lon="3.65429">
        <ele>769</ele>
        <time>2021-08-11T16:51:47Z</time>
      </trkpt>
      <trkpt lat="44.19487" lon="3.65435">
        <ele>769.6</ele>
        <time>2021-08-11T16:51:49Z</time>
      </trkpt>
      <trkpt lat="44.1949" lon="3.65441">
        <ele>770.6</ele>
        <time>2021-08-11T16:51:51Z</time>
      </trkpt>
      <trkpt lat="44.19494" lon="3.65446">
        <ele>771.9</ele>
        <time>2021-08-11T16:51:53Z</time>
      </trkpt>
      <trkpt lat="44.19498" lon="3.6545">
        <ele>773.3</ele>
        <time>2021-08-11T16:51:55Z</time>
      </trkpt>
      <trkpt lat="44.19502" lon="3.65453">
        <ele>773.9</ele>
        <time>2021-08-11T16:51:57Z</time>
      </trkpt>
      <trkpt lat="44.19506" lon="3.65456">
        <ele>773.8</ele>
        <time>2021-08-11T16:51:59Z</time>
      </trkpt>
      <trkpt lat="44.19509" lon="3.6546">
        <ele>773.7</ele>
        <time>2021-08-11T16:52:01Z</time>
      </trkpt>
      <trkpt lat="44.19512" lon="3.65461">
        <ele>773.5</ele>
        <time>2021-08-11T16:52:03Z</time>
      </trkpt>
      <trkpt lat="44.19514" lon="3.65463">
        <ele>773.5</ele>
        <time>2021-08-11T16:52:05Z</time>
      </trkpt>
      <trkpt lat="44.19516" lon="3.65464">
        <ele>773.4</ele>
        <time>2021-08-11T16:52:07Z</time>
      </trkpt>
      <trkpt lat="44.19518" lon="3.65465">
        <ele>773.3</ele>
        <time>2021-08-11T16:52:09Z</time>
      </trkpt>
      <trkpt lat="44.19519" lon="3.65468">
        <ele>773.2</ele>
        <time>2021-08-11T16:52:11Z</time>
      </trkpt>
      <trkpt lat="44.1952" lon="3.65474">
        <ele>773.1</ele>
        <time>2021-08-11T16:52:13Z</time>
      </trkpt>
      <trkpt lat="44.19519" lon="3.65484">
        <ele>773</ele>
        <time>2021-08-11T16:52:15Z</time>
      </trkpt>
      <trkpt lat="44.19519" lon="3.65496">
        <ele>772.9</ele>
        <time>2021-08-11T16:52:17Z</time>
      </trkpt>
      <trkpt lat="44.19517" lon="3.65509">
        <ele>772.8</ele>
        <time>2021-08-11T16:52:19Z</time>
      </trkpt>
      <trkpt lat="44.19517" lon="3.65523">
        <ele>772.5</ele>
        <time>2021-08-11T16:52:21Z</time>
      </trkpt>
      <trkpt lat="44.19516" lon="3.65539">
        <ele>772.3</ele>
        <time>2021-08-11T16:52:23Z</time>
      </trkpt>
      <trkpt lat="44.19514" lon="3.65555">
        <ele>772.1</ele>
        <time>2021-08-11T16:52:25Z</time>
      </trkpt>
      <trkpt lat="44.19511" lon="3.65571">
        <ele>771.9</ele>
        <time>2021-08-11T16:52:27Z</time>
      </trkpt>
      <trkpt lat="44.1951" lon="3.65587">
        <ele>771.7</ele>
        <time>2021-08-11T16:52:29Z</time>
      </trkpt>
      <trkpt lat="44.19509" lon="3.65602">
        <ele>772</ele>
        <time>2021-08-11T16:52:31Z</time>
      </trkpt>
      <trkpt lat="44.19508" lon="3.65616">
        <ele>772.2</ele>
        <time>2021-08-11T16:52:33Z</time>
      </trkpt>
      <trkpt lat="44.19507" lon="3.65628">
        <ele>772.4</ele>
        <time>2021-08-11T16:52:35Z</time>
      </trkpt>
      <trkpt lat="44.19506" lon="3.6564">
        <ele>772.6</ele>
        <time>2021-08-11T16:52:37Z</time>
      </trkpt>
      <trkpt lat="44.19504" lon="3.65651">
        <ele>772.7</ele>
        <time>2021-08-11T16:52:39Z</time>
      </trkpt>
      <trkpt lat="44.19502" lon="3.65662">
        <ele>772.9</ele>
        <time>2021-08-11T16:52:41Z</time>
      </trkpt>
      <trkpt lat="44.19501" lon="3.65672">
        <ele>773</ele>
        <time>2021-08-11T16:52:43Z</time>
      </trkpt>
      <trkpt lat="44.19501" lon="3.65682">
        <ele>773.2</ele>
        <time>2021-08-11T16:52:45Z</time>
      </trkpt>
      <trkpt lat="44.19501" lon="3.65691">
        <ele>773.3</ele>
        <time>2021-08-11T16:52:47Z</time>
      </trkpt>
      <trkpt lat="44.195" lon="3.65699">
        <ele>773.4</ele>
        <time>2021-08-11T16:52:49Z</time>
      </trkpt>
      <trkpt lat="44.19499" lon="3.65707">
        <ele>773.4</ele>
        <time>2021-08-11T16:52:51Z</time>
      </trkpt>
      <trkpt lat="44.19498" lon="3.65714">
        <ele>773.5</ele>
        <time>2021-08-11T16:52:53Z</time>
      </trkpt>
      <trkpt lat="44.19497" lon="3.65722">
        <ele>773.6</ele>
        <time>2021-08-11T16:52:55Z</time>
      </trkpt>
      <trkpt lat="44.19496" lon="3.65731">
        <ele>773.7</ele>
        <time>2021-08-11T16:52:57Z</time>
      </trkpt>
      <trkpt lat="44.19496" lon="3.65739">
        <ele>773.8</ele>
        <time>2021-08-11T16:52:59Z</time>
      </trkpt>
      <trkpt lat="44.19495" lon="3.65747">
        <ele>773.9</ele>
        <time>2021-08-11T16:53:01Z</time>
      </trkpt>
      <trkpt lat="44.19494" lon="3.65754">
        <ele>774</ele>
        <time>2021-08-11T16:53:03Z</time>
      </trkpt>
      <trkpt lat="44.19494" lon="3.65762">
        <ele>774.2</ele>
        <time>2021-08-11T16:53:05Z</time>
      </trkpt>
      <trkpt lat="44.19492" lon="3.65769">
        <ele>774.3</ele>
        <time>2021-08-11T16:53:07Z</time>
      </trkpt>
      <trkpt lat="44.19492" lon="3.65776">
        <ele>774.5</ele>
        <time>2021-08-11T16:53:09Z</time>
      </trkpt>
      <trkpt lat="44.19491" lon="3.65783">
        <ele>774.7</ele>
        <time>2021-08-11T16:53:11Z</time>
      </trkpt>
      <trkpt lat="44.1949" lon="3.65791">
        <ele>774.9</ele>
        <time>2021-08-11T16:53:13Z</time>
      </trkpt>
      <trkpt lat="44.19489" lon="3.65797">
        <ele>775.1</ele>
        <time>2021-08-11T16:53:15Z</time>
      </trkpt>
      <trkpt lat="44.19488" lon="3.65803">
        <ele>775.3</ele>
        <time>2021-08-11T16:53:17Z</time>
      </trkpt>
      <trkpt lat="44.19486" lon="3.65808">
        <ele>775.6</ele>
        <time>2021-08-11T16:53:19Z</time>
      </trkpt>
      <trkpt lat="44.19485" lon="3.65813">
        <ele>775.8</ele>
        <time>2021-08-11T16:53:21Z</time>
      </trkpt>
      <trkpt lat="44.19482" lon="3.65815">
        <ele>776.1</ele>
        <time>2021-08-11T16:53:23Z</time>
      </trkpt>
      <trkpt lat="44.19479" lon="3.65815">
        <ele>776.3</ele>
        <time>2021-08-11T16:53:25Z</time>
      </trkpt>
      <trkpt lat="44.19477" lon="3.65815">
        <ele>776.4</ele>
        <time>2021-08-11T16:53:27Z</time>
      </trkpt>
      <trkpt lat="44.19475" lon="3.65813">
        <ele>776.5</ele>
        <time>2021-08-11T16:53:29Z</time>
      </trkpt>
      <trkpt lat="44.19473" lon="3.65811">
        <ele>776.6</ele>
        <time>2021-08-11T16:53:31Z</time>
      </trkpt>
      <trkpt lat="44.19472" lon="3.65809">
        <ele>776.5</ele>
        <time>2021-08-11T16:53:33Z</time>
      </trkpt>
      <trkpt lat="44.19472" lon="3.65809">
        <ele>776.5</ele>
        <time>2021-08-11T16:53:35Z</time>
      </trkpt>
      <trkpt lat="44.19472" lon="3.65809">
        <ele>776.5</ele>
        <time>2021-08-11T16:53:37Z</time>
      </trkpt>
      <trkpt lat="44.1947" lon="3.65807">
        <ele>776.5</ele>
        <time>2021-08-11T16:53:39Z</time>
      </trkpt>
      <trkpt lat="44.19468" lon="3.65808">
        <ele>776.7</ele>
        <time>2021-08-11T16:53:41Z</time>
      </trkpt>
      <trkpt lat="44.19468" lon="3.65812">
        <ele>777</ele>
        <time>2021-08-11T16:53:43Z</time>
      </trkpt>
      <trkpt lat="44.19466" lon="3.65816">
        <ele>777.3</ele>
        <time>2021-08-11T16:53:45Z</time>
      </trkpt>
      <trkpt lat="44.19465" lon="3.65818">
        <ele>777.4</ele>
        <time>2021-08-11T16:53:47Z</time>
      </trkpt>
      <trkpt lat="44.19463" lon="3.65819">
        <ele>777.7</ele>
        <time>2021-08-11T16:53:49Z</time>
      </trkpt>
      <trkpt lat="44.19462" lon="3.65818">
        <ele>777.7</ele>
        <time>2021-08-11T16:53:51Z</time>
      </trkpt>
      <trkpt lat="44.19462" lon="3.65818">
        <ele>777.7</ele>
        <time>2021-08-11T16:53:53Z</time>
      </trkpt>
      <trkpt lat="44.19462" lon="3.65818">
        <ele>777.7</ele>
        <time>2021-08-11T16:53:55Z</time>
      </trkpt>
      <trkpt lat="44.19462" lon="3.65818">
        <ele>777.7</ele>
        <time>2021-08-11T16:53:57Z</time>
      </trkpt>
    </trkseg>
      <trkpt lat="44.19472" lon="3.65813">
        <ele>776.7</ele>
        <time>2021-08-12T06:37:39Z</time>
      </trkpt>
      <trkpt lat="44.19474" lon="3.65815">
        <ele>776.7</ele>
        <time>2021-08-12T06:37:41Z</time>
      </trkpt>
      <trkpt lat="44.19475" lon="3.65816">
        <ele>776.6</ele>
        <time>2021-08-12T06:37:43Z</time>
      </trkpt>
      <trkpt lat="44.19477" lon="3.65815">
        <ele>776.4</ele>
        <time>2021-08-12T06:37:45Z</time>
      </trkpt>
      <trkpt lat="44.1948" lon="3.65814">
        <ele>776.2</ele>
        <time>2021-08-12T06:37:47Z</time>
      </trkpt>
      <trkpt lat="44.19483" lon="3.65811">
        <ele>775.8</ele>
        <time>2021-08-12T06:37:49Z</time>
      </trkpt>
      <trkpt lat="44.19486" lon="3.65805">
        <ele>775.5</ele>
        <time>2021-08-12T06:37:51Z</time>
      </trkpt>
      <trkpt lat="44.19488" lon="3.65797">
        <ele>775.2</ele>
        <time>2021-08-12T06:37:53Z</time>
      </trkpt>
      <trkpt lat="44.19489" lon="3.65788">
        <ele>774.9</ele>
        <time>2021-08-12T06:37:55Z</time>
      </trkpt>
      <trkpt lat="44.1949" lon="3.65778">
        <ele>774.6</ele>
        <time>2021-08-12T06:37:57Z</time>
      </trkpt>
      <trkpt lat="44.19492" lon="3.65767">
        <ele>774.3</ele>
        <time>2021-08-12T06:37:59Z</time>
      </trkpt>
      <trkpt lat="44.19493" lon="3.65755">
        <ele>774</ele>
        <time>2021-08-12T06:38:01Z</time>
      </trkpt>
      <trkpt lat="44.19494" lon="3.65742">
        <ele>773.8</ele>
        <time>2021-08-12T06:38:03Z</time>
      </trkpt>
      <trkpt lat="44.19495" lon="3.65729">
        <ele>773.6</ele>
        <time>2021-08-12T06:38:05Z</time>
      </trkpt>
      <trkpt lat="44.19495" lon="3.65717">
        <ele>773.4</ele>
        <time>2021-08-12T06:38:07Z</time>
      </trkpt>
      <trkpt lat="44.19496" lon="3.65705">
        <ele>773.3</ele>
        <time>2021-08-12T06:38:09Z</time>
      </trkpt>
      <trkpt lat="44.19497" lon="3.65693">
        <ele>773.2</ele>
        <time>2021-08-12T06:38:11Z</time>
      </trkpt>
      <trkpt lat="44.19498" lon="3.65681">
        <ele>773</ele>
        <time>2021-08-12T06:38:13Z</time>
      </trkpt>
      <trkpt lat="44.19499" lon="3.65669">
        <ele>772.9</ele>
        <time>2021-08-12T06:38:15Z</time>
      </trkpt>
      <trkpt lat="44.19499" lon="3.65657">
        <ele>772.8</ele>
        <time>2021-08-12T06:38:17Z</time>
      </trkpt>
      <trkpt lat="44.19501" lon="3.65645">
        <ele>772.7</ele>
        <time>2021-08-12T06:38:19Z</time>
      </trkpt>
      <trkpt lat="44.19503" lon="3.65635">
        <ele>772.5</ele>
        <time>2021-08-12T06:38:21Z</time>
      </trkpt>
      <trkpt lat="44.19504" lon="3.65624">
        <ele>772.4</ele>
        <time>2021-08-12T06:38:23Z</time>
      </trkpt>
      <trkpt lat="44.19505" lon="3.65613">
        <ele>772.2</ele>
        <time>2021-08-12T06:38:25Z</time>
      </trkpt>
      <trkpt lat="44.19506" lon="3.65603">
        <ele>772</ele>
        <time>2021-08-12T06:38:27Z</time>
      </trkpt>
      <trkpt lat="44.19508" lon="3.6559">
        <ele>771.8</ele>
        <time>2021-08-12T06:38:29Z</time>
      </trkpt>
      <trkpt lat="44.1951" lon="3.65578">
        <ele>771.7</ele>
        <time>2021-08-12T06:38:31Z</time>
      </trkpt>
      <trkpt lat="44.19511" lon="3.65565">
        <ele>772</ele>
        <time>2021-08-12T06:38:33Z</time>
      </trkpt>
      <trkpt lat="44.19513" lon="3.65554">
        <ele>772.1</ele>
        <time>2021-08-12T06:38:35Z</time>
      </trkpt>
      <trkpt lat="44.19515" lon="3.65543">
        <ele>772.3</ele>
        <time>2021-08-12T06:38:37Z</time>
      </trkpt>
      <trkpt lat="44.19516" lon="3.65532">
        <ele>772.4</ele>
        <time>2021-08-12T06:38:39Z</time>
      </trkpt>
      <trkpt lat="44.19517" lon="3.65523">
        <ele>772.5</ele>
        <time>2021-08-12T06:38:41Z</time>
      </trkpt>
      <trkpt lat="44.19518" lon="3.65514">
        <ele>772.7</ele>
        <time>2021-08-12T06:38:43Z</time>
      </trkpt>
      <trkpt lat="44.19519" lon="3.65507">
        <ele>772.7</ele>
        <time>2021-08-12T06:38:45Z</time>
      </trkpt>
      <trkpt lat="44.19519" lon="3.655">
        <ele>772.8</ele>
        <time>2021-08-12T06:38:47Z</time>
      </trkpt>
      <trkpt lat="44.1952" lon="3.65494">
        <ele>772.8</ele>
        <time>2021-08-12T06:38:49Z</time>
      </trkpt>
      <trkpt lat="44.19521" lon="3.65488">
        <ele>772.9</ele>
        <time>2021-08-12T06:38:51Z</time>
      </trkpt>
      <trkpt lat="44.19522" lon="3.65482">
        <ele>772.9</ele>
        <time>2021-08-12T06:38:53Z</time>
      </trkpt>
      <trkpt lat="44.19522" lon="3.65476">
        <ele>773</ele>
        <time>2021-08-12T06:38:55Z</time>
      </trkpt>
      <trkpt lat="44.19521" lon="3.6547">
        <ele>773.1</ele>
        <time>2021-08-12T06:38:57Z</time>
      </trkpt>
      <trkpt lat="44.1952" lon="3.65466">
        <ele>773.2</ele>
        <time>2021-08-12T06:38:59Z</time>
      </trkpt>
      <trkpt lat="44.19517" lon="3.65463">
        <ele>773.3</ele>
        <time>2021-08-12T06:39:01Z</time>
      </trkpt>
      <trkpt lat="44.19513" lon="3.65461">
        <ele>773.5</ele>
        <time>2021-08-12T06:39:03Z</time>
      </trkpt>
      <trkpt lat="44.19509" lon="3.65459">
        <ele>773.7</ele>
        <time>2021-08-12T06:39:05Z</time>
      </trkpt>
      <trkpt lat="44.19505" lon="3.65456">
        <ele>773.8</ele>
        <time>2021-08-12T06:39:07Z</time>
      </trkpt>
      <trkpt lat="44.19501" lon="3.65451">
        <ele>774</ele>
        <time>2021-08-12T06:39:09Z</time>
      </trkpt>
      <trkpt lat="44.19496" lon="3.65447">
        <ele>772.7</ele>
        <time>2021-08-12T06:39:11Z</time>
      </trkpt>
      <trkpt lat="44.19491" lon="3.65443">
        <ele>771</ele>
        <time>2021-08-12T06:39:13Z</time>
      </trkpt>
      <trkpt lat="44.19487" lon="3.65436">
        <ele>769.8</ele>
        <time>2021-08-12T06:39:15Z</time>
      </trkpt>
      <trkpt lat="44.19485" lon="3.65429">
        <ele>769</ele>
        <time>2021-08-12T06:39:17Z</time>
      </trkpt>
      <trkpt lat="44.19483" lon="3.6542">
        <ele>768.4</ele>
        <time>2021-08-12T06:39:19Z</time>
      </trkpt>
      <trkpt lat="44.19483" lon="3.6541">
        <ele>768.6</ele>
        <time>2021-08-12T06:39:21Z</time>
      </trkpt>
      <trkpt lat="44.19483" lon="3.65401">
        <ele>768.9</ele>
        <time>2021-08-12T06:39:23Z</time>
      </trkpt>
      <trkpt lat="44.19483" lon="3.65392">
        <ele>769.1</ele>
        <time>2021-08-12T06:39:25Z</time>
      </trkpt>
      <trkpt lat="44.19483" lon="3.65382">
        <ele>769.4</ele>
        <time>2021-08-12T06:39:27Z</time>
      </trkpt>
      <trkpt lat="44.19484" lon="3.65373">
        <ele>769.8</ele>
        <time>2021-08-12T06:39:29Z</time>
      </trkpt>
      <trkpt lat="44.19484" lon="3.65364">
        <ele>770.1</ele>
        <time>2021-08-12T06:39:31Z</time>
      </trkpt>
      <trkpt lat="44.19484" lon="3.65354">
        <ele>770.5</ele>
        <time>2021-08-12T06:39:33Z</time>
      </trkpt>
      <trkpt lat="44.19484" lon="3.65345">
        <ele>770.8</ele>
        <time>2021-08-12T06:39:35Z</time>
      </trkpt>
      <trkpt lat="44.19484" lon="3.65335">
        <ele>771.1</ele>
        <time>2021-08-12T06:39:37Z</time>
      </trkpt>
      <trkpt lat="44.19484" lon="3.65325">
        <ele>772.2</ele>
        <time>2021-08-12T06:39:39Z</time>
      </trkpt>
      <trkpt lat="44.19484" lon="3.65315">
        <ele>773.5</ele>
        <time>2021-08-12T06:39:41Z</time>
      </trkpt>
      <trkpt lat="44.19483" lon="3.65306">
        <ele>774.7</ele>
        <time>2021-08-12T06:39:43Z</time>
      </trkpt>
      <trkpt lat="44.19482" lon="3.65296">
        <ele>775.6</ele>
        <time>2021-08-12T06:39:45Z</time>
      </trkpt>
      <trkpt lat="44.1948" lon="3.65287">
        <ele>776.6</ele>
        <time>2021-08-12T06:39:47Z</time>
      </trkpt>
      <trkpt lat="44.19478" lon="3.65277">
        <ele>777.3</ele>
        <time>2021-08-12T06:39:49Z</time>
      </trkpt>
      <trkpt lat="44.19476" lon="3.65268">
        <ele>778</ele>
        <time>2021-08-12T06:39:51Z</time>
      </trkpt>
      <trkpt lat="44.19474" lon="3.65259">
        <ele>778.5</ele>
        <time>2021-08-12T06:39:53Z</time>
      </trkpt>
      <trkpt lat="44.1947" lon="3.6525">
        <ele>778.7</ele>
        <time>2021-08-12T06:39:55Z</time>
      </trkpt>
      <trkpt lat="44.19467" lon="3.65242">
        <ele>778.9</ele>
        <time>2021-08-12T06:39:57Z</time>
      </trkpt>
      <trkpt lat="44.19463" lon="3.65233">
        <ele>779.1</ele>
        <time>2021-08-12T06:39:59Z</time>
      </trkpt>
      <trkpt lat="44.1946" lon="3.65226">
        <ele>779.1</ele>
        <time>2021-08-12T06:40:01Z</time>
      </trkpt>
      <trkpt lat="44.19455" lon="3.65218">
        <ele>779.1</ele>
        <time>2021-08-12T06:40:03Z</time>
      </trkpt>
      <trkpt lat="44.19452" lon="3.65211">
        <ele>779.1</ele>
        <time>2021-08-12T06:40:05Z</time>
      </trkpt>
      <trkpt lat="44.19448" lon="3.65203">
        <ele>779.3</ele>
        <time>2021-08-12T06:40:07Z</time>
      </trkpt>
      <trkpt lat="44.19444" lon="3.65197">
        <ele>779.3</ele>
        <time>2021-08-12T06:40:09Z</time>
      </trkpt>
      <trkpt lat="44.1944" lon="3.65192">
        <ele>778.9</ele>
        <time>2021-08-12T06:40:11Z</time>
      </trkpt>
      <trkpt lat="44.19435" lon="3.65186">
        <ele>778.7</ele>
        <time>2021-08-12T06:40:13Z</time>
      </trkpt>
      <trkpt lat="44.1943" lon="3.65181">
        <ele>778.1</ele>
        <time>2021-08-12T06:40:15Z</time>
      </trkpt>
      <trkpt lat="44.19425" lon="3.65175">
        <ele>777.7</ele>
        <time>2021-08-12T06:40:17Z</time>
      </trkpt>
      <trkpt lat="44.1942" lon="3.65169">
        <ele>777.3</ele>
        <time>2021-08-12T06:40:19Z</time>
      </trkpt>
      <trkpt lat="44.19415" lon="3.65164">
        <ele>777.7</ele>
        <time>2021-08-12T06:40:21Z</time>
      </trkpt>
      <trkpt lat="44.1941" lon="3.65159">
        <ele>779</ele>
        <time>2021-08-12T06:40:23Z</time>
      </trkpt>
      <trkpt lat="44.19406" lon="3.65154">
        <ele>780.3</ele>
        <time>2021-08-12T06:40:25Z</time>
      </trkpt>
      <trkpt lat="44.19402" lon="3.65149">
        <ele>781.4</ele>
        <time>2021-08-12T06:40:27Z</time>
      </trkpt>
      <trkpt lat="44.19398" lon="3.65144">
        <ele>782.5</ele>
        <time>2021-08-12T06:40:29Z</time>
      </trkpt>
      <trkpt lat="44.19394" lon="3.65139">
        <ele>783.6</ele>
        <time>2021-08-12T06:40:31Z</time>
      </trkpt>
      <trkpt lat="44.19391" lon="3.65132">
        <ele>785</ele>
        <time>2021-08-12T06:40:33Z</time>
      </trkpt>
      <trkpt lat="44.19387" lon="3.65125">
        <ele>786.4</ele>
        <time>2021-08-12T06:40:35Z</time>
      </trkpt>
      <trkpt lat="44.19384" lon="3.65118">
        <ele>787.8</ele>
        <time>2021-08-12T06:40:37Z</time>
      </trkpt>
      <trkpt lat="44.1938" lon="3.65112">
        <ele>788.9</ele>
        <time>2021-08-12T06:40:39Z</time>
      </trkpt>
      <trkpt lat="44.19375" lon="3.65108">
        <ele>789.6</ele>
        <time>2021-08-12T06:40:41Z</time>
      </trkpt>
      <trkpt lat="44.19369" lon="3.65107">
        <ele>790</ele>
        <time>2021-08-12T06:40:43Z</time>
      </trkpt>
      <trkpt lat="44.19363" lon="3.65109">
        <ele>790</ele>
        <time>2021-08-12T06:40:45Z</time>
      </trkpt>
      <trkpt lat="44.19359" lon="3.65113">
        <ele>789.5</ele>
        <time>2021-08-12T06:40:47Z</time>
      </trkpt>
      <trkpt lat="44.19357" lon="3.65121">
        <ele>788.5</ele>
        <time>2021-08-12T06:40:49Z</time>
      </trkpt>
      <trkpt lat="44.19355" lon="3.65128">
        <ele>787.5</ele>
        <time>2021-08-12T06:40:51Z</time>
      </trkpt>
      <trkpt lat="44.19354" lon="3.65136">
        <ele>786.5</ele>
        <time>2021-08-12T06:40:53Z</time>
      </trkpt>
      <trkpt lat="44.19353" lon="3.65144">
        <ele>785.5</ele>
        <time>2021-08-12T06:40:55Z</time>
      </trkpt>
      <trkpt lat="44.19352" lon="3.65152">
        <ele>784.4</ele>
        <time>2021-08-12T06:40:57Z</time>
      </trkpt>
      <trkpt lat="44.19351" lon="3.65161">
        <ele>783.3</ele>
        <time>2021-08-12T06:40:59Z</time>
      </trkpt>
      <trkpt lat="44.19349" lon="3.6517">
        <ele>782.1</ele>
        <time>2021-08-12T06:41:01Z</time>
      </trkpt>
      <trkpt lat="44.19348" lon="3.6518">
        <ele>780.7</ele>
        <time>2021-08-12T06:41:03Z</time>
      </trkpt>
      <trkpt lat="44.19347" lon="3.65189">
        <ele>779.3</ele>
        <time>2021-08-12T06:41:05Z</time>
      </trkpt>
      <trkpt lat="44.19346" lon="3.65199">
        <ele>777.8</ele>
        <time>2021-08-12T06:41:07Z</time>
      </trkpt>
      <trkpt lat="44.19345" lon="3.65209">
        <ele>776.2</ele>
        <time>2021-08-12T06:41:09Z</time>
      </trkpt>
      <trkpt lat="44.19343" lon="3.6522">
        <ele>774.7</ele>
        <time>2021-08-12T06:41:11Z</time>
      </trkpt>
      <trkpt lat="44.19341" lon="3.65232">
        <ele>773</ele>
        <time>2021-08-12T06:41:13Z</time>
      </trkpt>
      <trkpt lat="44.19338" lon="3.65243">
        <ele>771.6</ele>
        <time>2021-08-12T06:41:15Z</time>
      </trkpt>
      <trkpt lat="44.19334" lon="3.65254">
        <ele>770.3</ele>
        <time>2021-08-12T06:41:17Z</time>
      </trkpt>
      <trkpt lat="44.19328" lon="3.65264">
        <ele>769.1</ele>
        <time>2021-08-12T06:41:19Z</time>
      </trkpt>
      <trkpt lat="44.19322" lon="3.65274">
        <ele>768</ele>
        <time>2021-08-12T06:41:21Z</time>
      </trkpt>
      <trkpt lat="44.19315" lon="3.65284">
        <ele>766.8</ele>
        <time>2021-08-12T06:41:23Z</time>
      </trkpt>
      <trkpt lat="44.1931" lon="3.65294">
        <ele>765.6</ele>
        <time>2021-08-12T06:41:25Z</time>
      </trkpt>
      <trkpt lat="44.19303" lon="3.65305">
        <ele>764.4</ele>
        <time>2021-08-12T06:41:27Z</time>
      </trkpt>
      <trkpt lat="44.19296" lon="3.65316">
        <ele>763.1</ele>
        <time>2021-08-12T06:41:29Z</time>
      </trkpt>
      <trkpt lat="44.19289" lon="3.65327">
        <ele>761.9</ele>
        <time>2021-08-12T06:41:31Z</time>
      </trkpt>
      <trkpt lat="44.19281" lon="3.65337">
        <ele>760.7</ele>
        <time>2021-08-12T06:41:33Z</time>
      </trkpt>
      <trkpt lat="44.1927" lon="3.65343">
        <ele>760.3</ele>
        <time>2021-08-12T06:41:35Z</time>
      </trkpt>
      <trkpt lat="44.19256" lon="3.65342">
        <ele>761.6</ele>
        <time>2021-08-12T06:41:37Z</time>
      </trkpt>
      <trkpt lat="44.19244" lon="3.65336">
        <ele>762.5</ele>
        <time>2021-08-12T06:41:39Z</time>
      </trkpt>
      <trkpt lat="44.19232" lon="3.65327">
        <ele>762.4</ele>
        <time>2021-08-12T06:41:41Z</time>
      </trkpt>
      <trkpt lat="44.19222" lon="3.65317">
        <ele>762.6</ele>
        <time>2021-08-12T06:41:43Z</time>
      </trkpt>
      <trkpt lat="44.19214" lon="3.65307">
        <ele>763.3</ele>
        <time>2021-08-12T06:41:45Z</time>
      </trkpt>
      <trkpt lat="44.1921" lon="3.65294">
        <ele>765.3</ele>
        <time>2021-08-12T06:41:47Z</time>
      </trkpt>
      <trkpt lat="44.19212" lon="3.65277">
        <ele>768.7</ele>
        <time>2021-08-12T06:41:49Z</time>
      </trkpt>
      <trkpt lat="44.19215" lon="3.6526">
        <ele>772.3</ele>
        <time>2021-08-12T06:41:51Z</time>
      </trkpt>
      <trkpt lat="44.19216" lon="3.65243">
        <ele>775.5</ele>
        <time>2021-08-12T06:41:53Z</time>
      </trkpt>
      <trkpt lat="44.19209" lon="3.6523">
        <ele>777.4</ele>
        <time>2021-08-12T06:41:55Z</time>
      </trkpt>
      <trkpt lat="44.19197" lon="3.65227">
        <ele>777</ele>
        <time>2021-08-12T06:41:57Z</time>
      </trkpt>
      <trkpt lat="44.19185" lon="3.65234">
        <ele>774.4</ele>
        <time>2021-08-12T06:41:59Z</time>
      </trkpt>
      <trkpt lat="44.19176" lon="3.65246">
        <ele>770.9</ele>
        <time>2021-08-12T06:42:01Z</time>
      </trkpt>
      <trkpt lat="44.19168" lon="3.6526">
        <ele>766.9</ele>
        <time>2021-08-12T06:42:03Z</time>
      </trkpt>
      <trkpt lat="44.1916" lon="3.65276">
        <ele>765.4</ele>
        <time>2021-08-12T06:42:05Z</time>
      </trkpt>
      <trkpt lat="44.19152" lon="3.65292">
        <ele>764.5</ele>
        <time>2021-08-12T06:42:07Z</time>
      </trkpt>
      <trkpt lat="44.19144" lon="3.65309">
        <ele>763</ele>
        <time>2021-08-12T06:42:09Z</time>
      </trkpt>
      <trkpt lat="44.19137" lon="3.65327">
        <ele>761.2</ele>
        <time>2021-08-12T06:42:11Z</time>
      </trkpt>
      <trkpt lat="44.1913" lon="3.65345">
        <ele>759.3</ele>
        <time>2021-08-12T06:42:13Z</time>
      </trkpt>
      <trkpt lat="44.19122" lon="3.65363">
        <ele>756.7</ele>
        <time>2021-08-12T06:42:15Z</time>
      </trkpt>
      <trkpt lat="44.19114" lon="3.65381">
        <ele>754.4</ele>
        <time>2021-08-12T06:42:17Z</time>
      </trkpt>
      <trkpt lat="44.19104" lon="3.65397">
        <ele>752.9</ele>
        <time>2021-08-12T06:42:19Z</time>
      </trkpt>
      <trkpt lat="44.19094" lon="3.65411">
        <ele>751.8</ele>
        <time>2021-08-12T06:42:21Z</time>
      </trkpt>
      <trkpt lat="44.19083" lon="3.65424">
        <ele>750.6</ele>
        <time>2021-08-12T06:42:23Z</time>
      </trkpt>
      <trkpt lat="44.19073" lon="3.65441">
        <ele>746.6</ele>
        <time>2021-08-12T06:42:25Z</time>
      </trkpt>
      <trkpt lat="44.19059" lon="3.65453">
        <ele>744.8</ele>
        <time>2021-08-12T06:42:27Z</time>
      </trkpt>
      <trkpt lat="44.19045" lon="3.65464">
        <ele>743.7</ele>
        <time>2021-08-12T06:42:29Z</time>
      </trkpt>
      <trkpt lat="44.19032" lon="3.65473">
        <ele>743.3</ele>
        <time>2021-08-12T06:42:31Z</time>
      </trkpt>
      <trkpt lat="44.19017" lon="3.65482">
        <ele>743.3</ele>
        <time>2021-08-12T06:42:33Z</time>
      </trkpt>
      <trkpt lat="44.19003" lon="3.6549">
        <ele>743.8</ele>
        <time>2021-08-12T06:42:35Z</time>
      </trkpt>
      <trkpt lat="44.18988" lon="3.65498">
        <ele>741.2</ele>
        <time>2021-08-12T06:42:37Z</time>
      </trkpt>
      <trkpt lat="44.18974" lon="3.65509">
        <ele>737.5</ele>
        <time>2021-08-12T06:42:39Z</time>
      </trkpt>
      <trkpt lat="44.18961" lon="3.65519">
        <ele>734.6</ele>
        <time>2021-08-12T06:42:41Z</time>
      </trkpt>
      <trkpt lat="44.18948" lon="3.65529">
        <ele>732.3</ele>
        <time>2021-08-12T06:42:43Z</time>
      </trkpt>
      <trkpt lat="44.18938" lon="3.6554">
        <ele>730.5</ele>
        <time>2021-08-12T06:42:45Z</time>
      </trkpt>
      <trkpt lat="44.18928" lon="3.65552">
        <ele>729.3</ele>
        <time>2021-08-12T06:42:47Z</time>
      </trkpt>
      <trkpt lat="44.18918" lon="3.65557">
        <ele>729.2</ele>
        <time>2021-08-12T06:42:49Z</time>
      </trkpt>
      <trkpt lat="44.18909" lon="3.65548">
        <ele>728.2</ele>
        <time>2021-08-12T06:42:51Z</time>
      </trkpt>
      <trkpt lat="44.18908" lon="3.65531">
        <ele>729.7</ele>
        <time>2021-08-12T06:42:53Z</time>
      </trkpt>
      <trkpt lat="44.18912" lon="3.65513">
        <ele>732</ele>
        <time>2021-08-12T06:42:55Z</time>
      </trkpt>
      <trkpt lat="44.18915" lon="3.65495">
        <ele>734.5</ele>
        <time>2021-08-12T06:42:57Z</time>
      </trkpt>
      <trkpt lat="44.1892" lon="3.65477">
        <ele>737.8</ele>
        <time>2021-08-12T06:42:59Z</time>
      </trkpt>
      <trkpt lat="44.18923" lon="3.6546">
        <ele>740.7</ele>
        <time>2021-08-12T06:43:01Z</time>
      </trkpt>
      <trkpt lat="44.18917" lon="3.65445">
        <ele>741.9</ele>
        <time>2021-08-12T06:43:03Z</time>
      </trkpt>
      <trkpt lat="44.18904" lon="3.65439">
        <ele>741.4</ele>
        <time>2021-08-12T06:43:05Z</time>
      </trkpt>
      <trkpt lat="44.1889" lon="3.65442">
        <ele>739.2</ele>
        <time>2021-08-12T06:43:07Z</time>
      </trkpt>
      <trkpt lat="44.18876" lon="3.65446">
        <ele>736.8</ele>
        <time>2021-08-12T06:43:09Z</time>
      </trkpt>
      <trkpt lat="44.18862" lon="3.65444">
        <ele>735.5</ele>
        <time>2021-08-12T06:43:11Z</time>
      </trkpt>
      <trkpt lat="44.18849" lon="3.65433">
        <ele>736.2</ele>
        <time>2021-08-12T06:43:13Z</time>
      </trkpt>
      <trkpt lat="44.18839" lon="3.65424">
        <ele>737.1</ele>
        <time>2021-08-12T06:43:15Z</time>
      </trkpt>
      <trkpt lat="44.18829" lon="3.65427">
        <ele>736.9</ele>
        <time>2021-08-12T06:43:17Z</time>
      </trkpt>
      <trkpt lat="44.18825" lon="3.65446">
        <ele>733.8</ele>
        <time>2021-08-12T06:43:19Z</time>
      </trkpt>
      <trkpt lat="44.18824" lon="3.65463">
        <ele>729.9</ele>
        <time>2021-08-12T06:43:21Z</time>
      </trkpt>
      <trkpt lat="44.18822" lon="3.65481">
        <ele>726.4</ele>
        <time>2021-08-12T06:43:23Z</time>
      </trkpt>
      <trkpt lat="44.18816" lon="3.65498">
        <ele>723.6</ele>
        <time>2021-08-12T06:43:25Z</time>
      </trkpt>
      <trkpt lat="44.18807" lon="3.65513">
        <ele>721.3</ele>
        <time>2021-08-12T06:43:27Z</time>
      </trkpt>
      <trkpt lat="44.188" lon="3.65528">
        <ele>718.5</ele>
        <time>2021-08-12T06:43:29Z</time>
      </trkpt>
      <trkpt lat="44.18791" lon="3.65542">
        <ele>715.6</ele>
        <time>2021-08-12T06:43:31Z</time>
      </trkpt>
      <trkpt lat="44.1878" lon="3.65552">
        <ele>713.8</ele>
        <time>2021-08-12T06:43:33Z</time>
      </trkpt>
      <trkpt lat="44.1877" lon="3.65559">
        <ele>712.3</ele>
        <time>2021-08-12T06:43:35Z</time>
      </trkpt>
      <trkpt lat="44.18761" lon="3.65565">
        <ele>710.9</ele>
        <time>2021-08-12T06:43:37Z</time>
      </trkpt>
      <trkpt lat="44.18749" lon="3.65568">
        <ele>710.3</ele>
        <time>2021-08-12T06:43:39Z</time>
      </trkpt>
      <trkpt lat="44.18735" lon="3.65568">
        <ele>711.1</ele>
        <time>2021-08-12T06:43:41Z</time>
      </trkpt>
      <trkpt lat="44.18722" lon="3.65565">
        <ele>712.9</ele>
        <time>2021-08-12T06:43:43Z</time>
      </trkpt>
      <trkpt lat="44.18709" lon="3.65558">
        <ele>716.3</ele>
        <time>2021-08-12T06:43:45Z</time>
      </trkpt>
      <trkpt lat="44.18698" lon="3.65553">
        <ele>718.9</ele>
        <time>2021-08-12T06:43:47Z</time>
      </trkpt>
      <trkpt lat="44.18686" lon="3.65557">
        <ele>718</ele>
        <time>2021-08-12T06:43:49Z</time>
      </trkpt>
      <trkpt lat="44.18676" lon="3.6557">
        <ele>713.5</ele>
        <time>2021-08-12T06:43:51Z</time>
      </trkpt>
      <trkpt lat="44.18665" lon="3.65583">
        <ele>709.6</ele>
        <time>2021-08-12T06:43:53Z</time>
      </trkpt>
      <trkpt lat="44.18652" lon="3.65593">
        <ele>708</ele>
        <time>2021-08-12T06:43:55Z</time>
      </trkpt>
      <trkpt lat="44.1864" lon="3.65601">
        <ele>707.4</ele>
        <time>2021-08-12T06:43:57Z</time>
      </trkpt>
      <trkpt lat="44.18625" lon="3.65604">
        <ele>708.9</ele>
        <time>2021-08-12T06:43:59Z</time>
      </trkpt>
      <trkpt lat="44.18612" lon="3.65603">
        <ele>711.5</ele>
        <time>2021-08-12T06:44:01Z</time>
      </trkpt>
      <trkpt lat="44.18603" lon="3.65611">
        <ele>710.5</ele>
        <time>2021-08-12T06:44:03Z</time>
      </trkpt>
      <trkpt lat="44.186" lon="3.65629">
        <ele>705.2</ele>
        <time>2021-08-12T06:44:05Z</time>
      </trkpt>
      <trkpt lat="44.186" lon="3.65644">
        <ele>700.3</ele>
        <time>2021-08-12T06:44:07Z</time>
      </trkpt>
      <trkpt lat="44.18596" lon="3.65655">
        <ele>697.5</ele>
        <time>2021-08-12T06:44:09Z</time>
      </trkpt>
      <trkpt lat="44.18587" lon="3.65664">
        <ele>696.1</ele>
        <time>2021-08-12T06:44:11Z</time>
      </trkpt>
      <trkpt lat="44.18576" lon="3.6567">
        <ele>695.5</ele>
        <time>2021-08-12T06:44:13Z</time>
      </trkpt>
      <trkpt lat="44.18563" lon="3.65672">
        <ele>695.6</ele>
        <time>2021-08-12T06:44:15Z</time>
      </trkpt>
      <trkpt lat="44.18549" lon="3.65677">
        <ele>695</ele>
        <time>2021-08-12T06:44:17Z</time>
      </trkpt>
      <trkpt lat="44.18534" lon="3.6568">
        <ele>694.5</ele>
        <time>2021-08-12T06:44:19Z</time>
      </trkpt>
      <trkpt lat="44.18518" lon="3.65682">
        <ele>694.8</ele>
        <time>2021-08-12T06:44:21Z</time>
      </trkpt>
      <trkpt lat="44.18503" lon="3.6568">
        <ele>696.2</ele>
        <time>2021-08-12T06:44:23Z</time>
      </trkpt>
      <trkpt lat="44.18487" lon="3.65674">
        <ele>698.1</ele>
        <time>2021-08-12T06:44:25Z</time>
      </trkpt>
      <trkpt lat="44.18472" lon="3.65668">
        <ele>699.7</ele>
        <time>2021-08-12T06:44:27Z</time>
      </trkpt>
      <trkpt lat="44.18456" lon="3.65664">
        <ele>700.4</ele>
        <time>2021-08-12T06:44:29Z</time>
      </trkpt>
      <trkpt lat="44.18439" lon="3.65666">
        <ele>698.7</ele>
        <time>2021-08-12T06:44:31Z</time>
      </trkpt>
      <trkpt lat="44.18423" lon="3.65672">
        <ele>695.1</ele>
        <time>2021-08-12T06:44:33Z</time>
      </trkpt>
      <trkpt lat="44.18408" lon="3.65684">
        <ele>689.4</ele>
        <time>2021-08-12T06:44:35Z</time>
      </trkpt>
      <trkpt lat="44.18393" lon="3.65694">
        <ele>685.1</ele>
        <time>2021-08-12T06:44:37Z</time>
      </trkpt>
      <trkpt lat="44.18378" lon="3.65697">
        <ele>684.1</ele>
        <time>2021-08-12T06:44:39Z</time>
      </trkpt>
      <trkpt lat="44.18361" lon="3.65693">
        <ele>685.9</ele>
        <time>2021-08-12T06:44:41Z</time>
      </trkpt>
      <trkpt lat="44.18346" lon="3.65683">
        <ele>689.8</ele>
        <time>2021-08-12T06:44:43Z</time>
      </trkpt>
      <trkpt lat="44.18331" lon="3.65675">
        <ele>692.7</ele>
        <time>2021-08-12T06:44:45Z</time>
      </trkpt>
      <trkpt lat="44.18317" lon="3.65678">
        <ele>692</ele>
        <time>2021-08-12T06:44:47Z</time>
      </trkpt>
      <trkpt lat="44.18304" lon="3.65687">
        <ele>688.8</ele>
        <time>2021-08-12T06:44:49Z</time>
      </trkpt>
      <trkpt lat="44.18291" lon="3.65701">
        <ele>684.1</ele>
        <time>2021-08-12T06:44:51Z</time>
      </trkpt>
      <trkpt lat="44.18278" lon="3.65713">
        <ele>679.7</ele>
        <time>2021-08-12T06:44:53Z</time>
      </trkpt>
      <trkpt lat="44.18265" lon="3.65723">
        <ele>676.7</ele>
        <time>2021-08-12T06:44:55Z</time>
      </trkpt>
      <trkpt lat="44.18251" lon="3.65722">
        <ele>677.2</ele>
        <time>2021-08-12T06:44:57Z</time>
      </trkpt>
      <trkpt lat="44.18237" lon="3.65713">
        <ele>679.1</ele>
        <time>2021-08-12T06:44:59Z</time>
      </trkpt>
      <trkpt lat="44.18223" lon="3.65701">
        <ele>681.3</ele>
        <time>2021-08-12T06:45:01Z</time>
      </trkpt>
      <trkpt lat="44.18209" lon="3.65689">
        <ele>683.6</ele>
        <time>2021-08-12T06:45:03Z</time>
      </trkpt>
      <trkpt lat="44.18197" lon="3.65679">
        <ele>685.5</ele>
        <time>2021-08-12T06:45:05Z</time>
      </trkpt>
      <trkpt lat="44.18186" lon="3.65672">
        <ele>686.3</ele>
        <time>2021-08-12T06:45:07Z</time>
      </trkpt>
      <trkpt lat="44.18175" lon="3.65669">
        <ele>685.4</ele>
        <time>2021-08-12T06:45:09Z</time>
      </trkpt>
      <trkpt lat="44.18165" lon="3.65669">
        <ele>684.1</ele>
        <time>2021-08-12T06:45:11Z</time>
      </trkpt>
      <trkpt lat="44.18156" lon="3.65668">
        <ele>683.4</ele>
        <time>2021-08-12T06:45:13Z</time>
      </trkpt>
      <trkpt lat="44.18148" lon="3.65667">
        <ele>682.6</ele>
        <time>2021-08-12T06:45:15Z</time>
      </trkpt>
      <trkpt lat="44.18138" lon="3.65667">
        <ele>681.4</ele>
        <time>2021-08-12T06:45:17Z</time>
      </trkpt>
      <trkpt lat="44.18127" lon="3.65667">
        <ele>680.2</ele>
        <time>2021-08-12T06:45:19Z</time>
      </trkpt>
      <trkpt lat="44.18115" lon="3.65666">
        <ele>679.1</ele>
        <time>2021-08-12T06:45:21Z</time>
      </trkpt>
      <trkpt lat="44.18104" lon="3.65662">
        <ele>679.1</ele>
        <time>2021-08-12T06:45:23Z</time>
      </trkpt>
      <trkpt lat="44.18095" lon="3.65664">
        <ele>677.3</ele>
        <time>2021-08-12T06:45:25Z</time>
      </trkpt>
      <trkpt lat="44.18085" lon="3.65672">
        <ele>673.9</ele>
        <time>2021-08-12T06:45:27Z</time>
      </trkpt>
      <trkpt lat="44.18074" lon="3.65676">
        <ele>671.4</ele>
        <time>2021-08-12T06:45:29Z</time>
      </trkpt>
      <trkpt lat="44.18062" lon="3.65675">
        <ele>670.3</ele>
        <time>2021-08-12T06:45:31Z</time>
      </trkpt>
      <trkpt lat="44.1805" lon="3.65673">
        <ele>669.2</ele>
        <time>2021-08-12T06:45:33Z</time>
      </trkpt>
      <trkpt lat="44.18038" lon="3.65673">
        <ele>668</ele>
        <time>2021-08-12T06:45:35Z</time>
      </trkpt>
      <trkpt lat="44.18026" lon="3.65675">
        <ele>666</ele>
        <time>2021-08-12T06:45:37Z</time>
      </trkpt>
      <trkpt lat="44.18015" lon="3.65679">
        <ele>663.6</ele>
        <time>2021-08-12T06:45:39Z</time>
      </trkpt>
      <trkpt lat="44.18002" lon="3.65683">
        <ele>661.4</ele>
        <time>2021-08-12T06:45:41Z</time>
      </trkpt>
      <trkpt lat="44.1799" lon="3.65682">
        <ele>659.1</ele>
        <time>2021-08-12T06:45:43Z</time>
      </trkpt>
      <trkpt lat="44.17978" lon="3.65678">
        <ele>657.3</ele>
        <time>2021-08-12T06:45:45Z</time>
      </trkpt>
      <trkpt lat="44.17966" lon="3.65673">
        <ele>656</ele>
        <time>2021-08-12T06:45:47Z</time>
      </trkpt>
      <trkpt lat="44.17954" lon="3.65666">
        <ele>655.2</ele>
        <time>2021-08-12T06:45:49Z</time>
      </trkpt>
      <trkpt lat="44.17943" lon="3.65657">
        <ele>655.4</ele>
        <time>2021-08-12T06:45:51Z</time>
      </trkpt>
      <trkpt lat="44.17934" lon="3.65644">
        <ele>657.1</ele>
        <time>2021-08-12T06:45:53Z</time>
      </trkpt>
      <trkpt lat="44.17926" lon="3.65629">
        <ele>659.3</ele>
        <time>2021-08-12T06:45:55Z</time>
      </trkpt>
      <trkpt lat="44.17918" lon="3.65614">
        <ele>661.8</ele>
        <time>2021-08-12T06:45:57Z</time>
      </trkpt>
      <trkpt lat="44.17909" lon="3.65601">
        <ele>663.6</ele>
        <time>2021-08-12T06:45:59Z</time>
      </trkpt>
      <trkpt lat="44.17897" lon="3.65592">
        <ele>664.3</ele>
        <time>2021-08-12T06:46:01Z</time>
      </trkpt>
      <trkpt lat="44.17884" lon="3.65589">
        <ele>663.1</ele>
        <time>2021-08-12T06:46:03Z</time>
      </trkpt>
      <trkpt lat="44.1787" lon="3.65593">
        <ele>659.9</ele>
        <time>2021-08-12T06:46:05Z</time>
      </trkpt>
      <trkpt lat="44.17857" lon="3.65601">
        <ele>654.9</ele>
        <time>2021-08-12T06:46:07Z</time>
      </trkpt>
      <trkpt lat="44.17844" lon="3.65609">
        <ele>650.4</ele>
        <time>2021-08-12T06:46:09Z</time>
      </trkpt>
      <trkpt lat="44.17829" lon="3.65611">
        <ele>646.7</ele>
        <time>2021-08-12T06:46:11Z</time>
      </trkpt>
      <trkpt lat="44.17813" lon="3.65609">
        <ele>643.5</ele>
        <time>2021-08-12T06:46:13Z</time>
      </trkpt>
      <trkpt lat="44.17799" lon="3.65604">
        <ele>641.8</ele>
        <time>2021-08-12T06:46:15Z</time>
      </trkpt>
      <trkpt lat="44.17787" lon="3.65596">
        <ele>641.7</ele>
        <time>2021-08-12T06:46:17Z</time>
      </trkpt>
      <trkpt lat="44.17776" lon="3.65581">
        <ele>644.2</ele>
        <time>2021-08-12T06:46:19Z</time>
      </trkpt>
      <trkpt lat="44.17768" lon="3.65565">
        <ele>648.1</ele>
        <time>2021-08-12T06:46:21Z</time>
      </trkpt>
      <trkpt lat="44.17759" lon="3.65554">
        <ele>650</ele>
        <time>2021-08-12T06:46:23Z</time>
      </trkpt>
      <trkpt lat="44.17747" lon="3.65549">
        <ele>649.4</ele>
        <time>2021-08-12T06:46:25Z</time>
      </trkpt>
      <trkpt lat="44.17733" lon="3.65552">
        <ele>644.7</ele>
        <time>2021-08-12T06:46:27Z</time>
      </trkpt>
      <trkpt lat="44.17719" lon="3.65555">
        <ele>639.5</ele>
        <time>2021-08-12T06:46:29Z</time>
      </trkpt>
      <trkpt lat="44.17704" lon="3.65553">
        <ele>636.7</ele>
        <time>2021-08-12T06:46:31Z</time>
      </trkpt>
      <trkpt lat="44.17688" lon="3.65545">
        <ele>635.8</ele>
        <time>2021-08-12T06:46:33Z</time>
      </trkpt>
      <trkpt lat="44.17672" lon="3.65537">
        <ele>635</ele>
        <time>2021-08-12T06:46:35Z</time>
      </trkpt>
      <trkpt lat="44.17656" lon="3.65528">
        <ele>634.3</ele>
        <time>2021-08-12T06:46:37Z</time>
      </trkpt>
      <trkpt lat="44.17641" lon="3.6552">
        <ele>633.3</ele>
        <time>2021-08-12T06:46:39Z</time>
      </trkpt>
      <trkpt lat="44.17627" lon="3.65513">
        <ele>632</ele>
        <time>2021-08-12T06:46:41Z</time>
      </trkpt>
      <trkpt lat="44.17614" lon="3.65506">
        <ele>631.1</ele>
        <time>2021-08-12T06:46:43Z</time>
      </trkpt>
      <trkpt lat="44.17604" lon="3.65493">
        <ele>632.6</ele>
        <time>2021-08-12T06:46:45Z</time>
      </trkpt>
      <trkpt lat="44.17596" lon="3.65478">
        <ele>635.4</ele>
        <time>2021-08-12T06:46:47Z</time>
      </trkpt>
      <trkpt lat="44.17589" lon="3.65463">
        <ele>638.4</ele>
        <time>2021-08-12T06:46:49Z</time>
      </trkpt>
      <trkpt lat="44.1758" lon="3.65452">
        <ele>639.9</ele>
        <time>2021-08-12T06:46:51Z</time>
      </trkpt>
      <trkpt lat="44.1757" lon="3.65449">
        <ele>640.5</ele>
        <time>2021-08-12T06:46:53Z</time>
      </trkpt>
      <trkpt lat="44.17558" lon="3.65452">
        <ele>639</ele>
        <time>2021-08-12T06:46:55Z</time>
      </trkpt>
      <trkpt lat="44.17548" lon="3.65457">
        <ele>637</ele>
        <time>2021-08-12T06:46:57Z</time>
      </trkpt>
      <trkpt lat="44.17541" lon="3.6546">
        <ele>635.8</ele>
        <time>2021-08-12T06:46:59Z</time>
      </trkpt>
      <trkpt lat="44.17535" lon="3.65463">
        <ele>634.6</ele>
        <time>2021-08-12T06:47:01Z</time>
      </trkpt>
      <trkpt lat="44.1753" lon="3.65468">
        <ele>632.7</ele>
        <time>2021-08-12T06:47:03Z</time>
      </trkpt>
      <trkpt lat="44.17524" lon="3.65474">
        <ele>630.7</ele>
        <time>2021-08-12T06:47:05Z</time>
      </trkpt>
      <trkpt lat="44.17519" lon="3.6548">
        <ele>628.7</ele>
        <time>2021-08-12T06:47:07Z</time>
      </trkpt>
      <trkpt lat="44.17512" lon="3.65487">
        <ele>626.3</ele>
        <time>2021-08-12T06:47:09Z</time>
      </trkpt>
      <trkpt lat="44.17504" lon="3.65495">
        <ele>623.6</ele>
        <time>2021-08-12T06:47:11Z</time>
      </trkpt>
      <trkpt lat="44.17493" lon="3.65501">
        <ele>622.4</ele>
        <time>2021-08-12T06:47:13Z</time>
      </trkpt>
      <trkpt lat="44.17481" lon="3.65507">
        <ele>621.2</ele>
        <time>2021-08-12T06:47:15Z</time>
      </trkpt>
      <trkpt lat="44.17469" lon="3.65514">
        <ele>619.8</ele>
        <time>2021-08-12T06:47:17Z</time>
      </trkpt>
      <trkpt lat="44.17455" lon="3.65522">
        <ele>618</ele>
        <time>2021-08-12T06:47:19Z</time>
      </trkpt>
      <trkpt lat="44.17442" lon="3.65529">
        <ele>616.3</ele>
        <time>2021-08-12T06:47:21Z</time>
      </trkpt>
      <trkpt lat="44.17428" lon="3.65537">
        <ele>614.5</ele>
        <time>2021-08-12T06:47:23Z</time>
      </trkpt>
      <trkpt lat="44.17412" lon="3.65541">
        <ele>613.3</ele>
        <time>2021-08-12T06:47:25Z</time>
      </trkpt>
      <trkpt lat="44.17396" lon="3.65542">
        <ele>610.4</ele>
        <time>2021-08-12T06:47:27Z</time>
      </trkpt>
      <trkpt lat="44.17382" lon="3.65543">
        <ele>607.9</ele>
        <time>2021-08-12T06:47:29Z</time>
      </trkpt>
      <trkpt lat="44.17366" lon="3.6554">
        <ele>606.7</ele>
        <time>2021-08-12T06:47:31Z</time>
      </trkpt>
      <trkpt lat="44.17351" lon="3.65533">
        <ele>607.3</ele>
        <time>2021-08-12T06:47:33Z</time>
      </trkpt>
      <trkpt lat="44.17337" lon="3.65527">
        <ele>607.9</ele>
        <time>2021-08-12T06:47:35Z</time>
      </trkpt>
      <trkpt lat="44.17323" lon="3.65522">
        <ele>605.3</ele>
        <time>2021-08-12T06:47:37Z</time>
      </trkpt>
      <trkpt lat="44.17313" lon="3.65509">
        <ele>606.4</ele>
        <time>2021-08-12T06:47:39Z</time>
      </trkpt>
      <trkpt lat="44.17305" lon="3.65493">
        <ele>609.4</ele>
        <time>2021-08-12T06:47:41Z</time>
      </trkpt>
      <trkpt lat="44.17298" lon="3.65477">
        <ele>612.6</ele>
        <time>2021-08-12T06:47:43Z</time>
      </trkpt>
      <trkpt lat="44.17291" lon="3.65462">
        <ele>615.2</ele>
        <time>2021-08-12T06:47:45Z</time>
      </trkpt>
      <trkpt lat="44.17281" lon="3.65452">
        <ele>615.6</ele>
        <time>2021-08-12T06:47:47Z</time>
      </trkpt>
      <trkpt lat="44.17269" lon="3.6545">
        <ele>612</ele>
        <time>2021-08-12T06:47:49Z</time>
      </trkpt>
      <trkpt lat="44.17256" lon="3.65452">
        <ele>606.4</ele>
        <time>2021-08-12T06:47:51Z</time>
      </trkpt>
      <trkpt lat="44.17243" lon="3.65451">
        <ele>603.3</ele>
        <time>2021-08-12T06:47:53Z</time>
      </trkpt>
      <trkpt lat="44.1723" lon="3.65443">
        <ele>603.3</ele>
        <time>2021-08-12T06:47:55Z</time>
      </trkpt>
      <trkpt lat="44.17216" lon="3.65436">
        <ele>603</ele>
        <time>2021-08-12T06:47:57Z</time>
      </trkpt>
      <trkpt lat="44.17203" lon="3.65429">
        <ele>602.9</ele>
        <time>2021-08-12T06:47:59Z</time>
      </trkpt>
      <trkpt lat="44.17189" lon="3.65423">
        <ele>602.6</ele>
        <time>2021-08-12T06:48:01Z</time>
      </trkpt>
      <trkpt lat="44.17174" lon="3.65417">
        <ele>601.8</ele>
        <time>2021-08-12T06:48:03Z</time>
      </trkpt>
      <trkpt lat="44.1716" lon="3.6541">
        <ele>600.8</ele>
        <time>2021-08-12T06:48:05Z</time>
      </trkpt>
      <trkpt lat="44.17147" lon="3.65406">
        <ele>598.7</ele>
        <time>2021-08-12T06:48:07Z</time>
      </trkpt>
      <trkpt lat="44.17132" lon="3.65405">
        <ele>594.9</ele>
        <time>2021-08-12T06:48:09Z</time>
      </trkpt>
      <trkpt lat="44.17118" lon="3.65408">
        <ele>590.4</ele>
        <time>2021-08-12T06:48:11Z</time>
      </trkpt>
      <trkpt lat="44.17103" lon="3.65412">
        <ele>586.1</ele>
        <time>2021-08-12T06:48:13Z</time>
      </trkpt>
      <trkpt lat="44.17089" lon="3.65415">
        <ele>582.3</ele>
        <time>2021-08-12T06:48:15Z</time>
      </trkpt>
      <trkpt lat="44.17075" lon="3.65418">
        <ele>577</ele>
        <time>2021-08-12T06:48:17Z</time>
      </trkpt>
      <trkpt lat="44.17064" lon="3.65415">
        <ele>572.2</ele>
        <time>2021-08-12T06:48:19Z</time>
      </trkpt>
      <trkpt lat="44.17056" lon="3.65405">
        <ele>568.4</ele>
        <time>2021-08-12T06:48:21Z</time>
      </trkpt>
      <trkpt lat="44.17056" lon="3.65388">
        <ele>567.9</ele>
        <time>2021-08-12T06:48:23Z</time>
      </trkpt>
      <trkpt lat="44.17063" lon="3.65372">
        <ele>571.1</ele>
        <time>2021-08-12T06:48:25Z</time>
      </trkpt>
      <trkpt lat="44.17071" lon="3.65358">
        <ele>576.1</ele>
        <time>2021-08-12T06:48:27Z</time>
      </trkpt>
      <trkpt lat="44.17078" lon="3.65344">
        <ele>580.1</ele>
        <time>2021-08-12T06:48:29Z</time>
      </trkpt>
      <trkpt lat="44.17082" lon="3.65329">
        <ele>582.4</ele>
        <time>2021-08-12T06:48:31Z</time>
      </trkpt>
      <trkpt lat="44.17085" lon="3.65312">
        <ele>582.8</ele>
        <time>2021-08-12T06:48:33Z</time>
      </trkpt>
      <trkpt lat="44.17088" lon="3.65294">
        <ele>582.8</ele>
        <time>2021-08-12T06:48:35Z</time>
      </trkpt>
      <trkpt lat="44.1709" lon="3.65275">
        <ele>582.1</ele>
        <time>2021-08-12T06:48:37Z</time>
      </trkpt>
      <trkpt lat="44.17093" lon="3.65256">
        <ele>581.9</ele>
        <time>2021-08-12T06:48:39Z</time>
      </trkpt>
      <trkpt lat="44.17095" lon="3.65238">
        <ele>581.8</ele>
        <time>2021-08-12T06:48:41Z</time>
      </trkpt>
      <trkpt lat="44.17098" lon="3.65219">
        <ele>582.2</ele>
        <time>2021-08-12T06:48:43Z</time>
      </trkpt>
      <trkpt lat="44.171" lon="3.652">
        <ele>582.1</ele>
        <time>2021-08-12T06:48:45Z</time>
      </trkpt>
      <trkpt lat="44.17101" lon="3.65182">
        <ele>581.3</ele>
        <time>2021-08-12T06:48:47Z</time>
      </trkpt>
      <trkpt lat="44.171" lon="3.65162">
        <ele>579</ele>
        <time>2021-08-12T06:48:49Z</time>
      </trkpt>
      <trkpt lat="44.17098" lon="3.65141">
        <ele>577.3</ele>
        <time>2021-08-12T06:48:51Z</time>
      </trkpt>
      <trkpt lat="44.17097" lon="3.65121">
        <ele>576.4</ele>
        <time>2021-08-12T06:48:53Z</time>
      </trkpt>
      <trkpt lat="44.17098" lon="3.65102">
        <ele>576.9</ele>
        <time>2021-08-12T06:48:55Z</time>
      </trkpt>
      <trkpt lat="44.17095" lon="3.65083">
        <ele>574.9</ele>
        <time>2021-08-12T06:48:57Z</time>
      </trkpt>
      <trkpt lat="44.17092" lon="3.65065">
        <ele>572.9</ele>
        <time>2021-08-12T06:48:59Z</time>
      </trkpt>
      <trkpt lat="44.17089" lon="3.65047">
        <ele>570.7</ele>
        <time>2021-08-12T06:49:01Z</time>
      </trkpt>
      <trkpt lat="44.17085" lon="3.6503">
        <ele>568.4</ele>
        <time>2021-08-12T06:49:03Z</time>
      </trkpt>
      <trkpt lat="44.17085" lon="3.65013">
        <ele>568.3</ele>
        <time>2021-08-12T06:49:05Z</time>
      </trkpt>
      <trkpt lat="44.17086" lon="3.64994">
        <ele>568.8</ele>
        <time>2021-08-12T06:49:07Z</time>
      </trkpt>
      <trkpt lat="44.17087" lon="3.64977">
        <ele>570.3</ele>
        <time>2021-08-12T06:49:09Z</time>
      </trkpt>
      <trkpt lat="44.17083" lon="3.64959">
        <ele>568.9</ele>
        <time>2021-08-12T06:49:11Z</time>
      </trkpt>
      <trkpt lat="44.17078" lon="3.64943">
        <ele>567.2</ele>
        <time>2021-08-12T06:49:13Z</time>
      </trkpt>
      <trkpt lat="44.17073" lon="3.64925">
        <ele>565.4</ele>
        <time>2021-08-12T06:49:15Z</time>
      </trkpt>
      <trkpt lat="44.17069" lon="3.64907">
        <ele>563.1</ele>
        <time>2021-08-12T06:49:17Z</time>
      </trkpt>
      <trkpt lat="44.17064" lon="3.6489">
        <ele>559.6</ele>
        <time>2021-08-12T06:49:19Z</time>
      </trkpt>
      <trkpt lat="44.1706" lon="3.64872">
        <ele>557.3</ele>
        <time>2021-08-12T06:49:21Z</time>
      </trkpt>
      <trkpt lat="44.17058" lon="3.64855">
        <ele>555.6</ele>
        <time>2021-08-12T06:49:23Z</time>
      </trkpt>
      <trkpt lat="44.17057" lon="3.64837">
        <ele>554.6</ele>
        <time>2021-08-12T06:49:25Z</time>
      </trkpt>
      <trkpt lat="44.17063" lon="3.64818">
        <ele>553.1</ele>
        <time>2021-08-12T06:49:27Z</time>
      </trkpt>
      <trkpt lat="44.17071" lon="3.648">
        <ele>551.8</ele>
        <time>2021-08-12T06:49:29Z</time>
      </trkpt>
      <trkpt lat="44.17081" lon="3.64782">
        <ele>550.4</ele>
        <time>2021-08-12T06:49:31Z</time>
      </trkpt>
      <trkpt lat="44.17095" lon="3.6477">
        <ele>551.8</ele>
        <time>2021-08-12T06:49:33Z</time>
      </trkpt>
      <trkpt lat="44.17107" lon="3.64755">
        <ele>551</ele>
        <time>2021-08-12T06:49:35Z</time>
      </trkpt>
      <trkpt lat="44.17117" lon="3.64741">
        <ele>550.1</ele>
        <time>2021-08-12T06:49:37Z</time>
      </trkpt>
      <trkpt lat="44.1713" lon="3.6473">
        <ele>550.4</ele>
        <time>2021-08-12T06:49:39Z</time>
      </trkpt>
      <trkpt lat="44.17145" lon="3.64721">
        <ele>551.2</ele>
        <time>2021-08-12T06:49:41Z</time>
      </trkpt>
      <trkpt lat="44.17159" lon="3.64712">
        <ele>551.4</ele>
        <time>2021-08-12T06:49:43Z</time>
      </trkpt>
      <trkpt lat="44.17173" lon="3.64706">
        <ele>552.4</ele>
        <time>2021-08-12T06:49:45Z</time>
      </trkpt>
      <trkpt lat="44.17185" lon="3.647">
        <ele>553.7</ele>
        <time>2021-08-12T06:49:47Z</time>
      </trkpt>
      <trkpt lat="44.17195" lon="3.64688">
        <ele>552.2</ele>
        <time>2021-08-12T06:49:49Z</time>
      </trkpt>
      <trkpt lat="44.17204" lon="3.64674">
        <ele>549.3</ele>
        <time>2021-08-12T06:49:51Z</time>
      </trkpt>
      <trkpt lat="44.17215" lon="3.64661">
        <ele>549.2</ele>
        <time>2021-08-12T06:49:53Z</time>
      </trkpt>
      <trkpt lat="44.17228" lon="3.6465">
        <ele>550.4</ele>
        <time>2021-08-12T06:49:55Z</time>
      </trkpt>
      <trkpt lat="44.17241" lon="3.6464">
        <ele>551</ele>
        <time>2021-08-12T06:49:57Z</time>
      </trkpt>
      <trkpt lat="44.17252" lon="3.64627">
        <ele>549.7</ele>
        <time>2021-08-12T06:49:59Z</time>
      </trkpt>
      <trkpt lat="44.17263" lon="3.64615">
        <ele>548.5</ele>
        <time>2021-08-12T06:50:01Z</time>
      </trkpt>
      <trkpt lat="44.17276" lon="3.64605">
        <ele>547.8</ele>
        <time>2021-08-12T06:50:03Z</time>
      </trkpt>
      <trkpt lat="44.1729" lon="3.646">
        <ele>548.8</ele>
        <time>2021-08-12T06:50:05Z</time>
      </trkpt>
      <trkpt lat="44.17303" lon="3.64593">
        <ele>548.5</ele>
        <time>2021-08-12T06:50:07Z</time>
      </trkpt>
      <trkpt lat="44.17316" lon="3.64588">
        <ele>548.9</ele>
        <time>2021-08-12T06:50:09Z</time>
      </trkpt>
      <trkpt lat="44.1733" lon="3.64582">
        <ele>549.6</ele>
        <time>2021-08-12T06:50:11Z</time>
      </trkpt>
      <trkpt lat="44.17345" lon="3.64576">
        <ele>551.9</ele>
        <time>2021-08-12T06:50:13Z</time>
      </trkpt>
      <trkpt lat="44.17358" lon="3.64571">
        <ele>553.9</ele>
        <time>2021-08-12T06:50:15Z</time>
      </trkpt>
      <trkpt lat="44.1737" lon="3.64566">
        <ele>555.6</ele>
        <time>2021-08-12T06:50:17Z</time>
      </trkpt>
      <trkpt lat="44.17378" lon="3.64557">
        <ele>557.1</ele>
        <time>2021-08-12T06:50:19Z</time>
      </trkpt>
      <trkpt lat="44.17379" lon="3.64541">
        <ele>558</ele>
        <time>2021-08-12T06:50:21Z</time>
      </trkpt>
      <trkpt lat="44.17373" lon="3.64526">
        <ele>558</ele>
        <time>2021-08-12T06:50:23Z</time>
      </trkpt>
      <trkpt lat="44.17361" lon="3.64517">
        <ele>557.1</ele>
        <time>2021-08-12T06:50:25Z</time>
      </trkpt>
      <trkpt lat="44.17347" lon="3.64519">
        <ele>555.4</ele>
        <time>2021-08-12T06:50:27Z</time>
      </trkpt>
      <trkpt lat="44.17332" lon="3.64518">
        <ele>554</ele>
        <time>2021-08-12T06:50:29Z</time>
      </trkpt>
      <trkpt lat="44.17317" lon="3.64514">
        <ele>554.9</ele>
        <time>2021-08-12T06:50:31Z</time>
      </trkpt>
      <trkpt lat="44.17303" lon="3.64514">
        <ele>555.5</ele>
        <time>2021-08-12T06:50:33Z</time>
      </trkpt>
      <trkpt lat="44.17287" lon="3.64521">
        <ele>554.8</ele>
        <time>2021-08-12T06:50:35Z</time>
      </trkpt>
      <trkpt lat="44.17271" lon="3.64531">
        <ele>552.5</ele>
        <time>2021-08-12T06:50:37Z</time>
      </trkpt>
      <trkpt lat="44.17254" lon="3.64539">
        <ele>549.9</ele>
        <time>2021-08-12T06:50:39Z</time>
      </trkpt>
      <trkpt lat="44.17235" lon="3.64545">
        <ele>548.1</ele>
        <time>2021-08-12T06:50:41Z</time>
      </trkpt>
      <trkpt lat="44.17217" lon="3.64549">
        <ele>547.2</ele>
        <time>2021-08-12T06:50:43Z</time>
      </trkpt>
      <trkpt lat="44.172" lon="3.64552">
        <ele>546.7</ele>
        <time>2021-08-12T06:50:45Z</time>
      </trkpt>
      <trkpt lat="44.17184" lon="3.64558">
        <ele>545.3</ele>
        <time>2021-08-12T06:50:47Z</time>
      </trkpt>
      <trkpt lat="44.17171" lon="3.64569">
        <ele>542.2</ele>
        <time>2021-08-12T06:50:49Z</time>
      </trkpt>
      <trkpt lat="44.17161" lon="3.64587">
        <ele>538</ele>
        <time>2021-08-12T06:50:51Z</time>
      </trkpt>
      <trkpt lat="44.17149" lon="3.64603">
        <ele>537.1</ele>
        <time>2021-08-12T06:50:53Z</time>
      </trkpt>
      <trkpt lat="44.17135" lon="3.64614">
        <ele>535.9</ele>
        <time>2021-08-12T06:50:55Z</time>
      </trkpt>
      <trkpt lat="44.17119" lon="3.6462">
        <ele>534.8</ele>
        <time>2021-08-12T06:50:57Z</time>
      </trkpt>
      <trkpt lat="44.17101" lon="3.64617">
        <ele>534.6</ele>
        <time>2021-08-12T06:50:59Z</time>
      </trkpt>
      <trkpt lat="44.17084" lon="3.64614">
        <ele>534.5</ele>
        <time>2021-08-12T06:51:01Z</time>
      </trkpt>
      <trkpt lat="44.17069" lon="3.64619">
        <ele>532</ele>
        <time>2021-08-12T06:51:03Z</time>
      </trkpt>
      <trkpt lat="44.17054" lon="3.64629">
        <ele>528.6</ele>
        <time>2021-08-12T06:51:05Z</time>
      </trkpt>
      <trkpt lat="44.1704" lon="3.64639">
        <ele>525.1</ele>
        <time>2021-08-12T06:51:07Z</time>
      </trkpt>
      <trkpt lat="44.17027" lon="3.64646">
        <ele>522</ele>
        <time>2021-08-12T06:51:09Z</time>
      </trkpt>
      <trkpt lat="44.17014" lon="3.64648">
        <ele>520</ele>
        <time>2021-08-12T06:51:11Z</time>
      </trkpt>
      <trkpt lat="44.17002" lon="3.64637">
        <ele>520.9</ele>
        <time>2021-08-12T06:51:13Z</time>
      </trkpt>
      <trkpt lat="44.16994" lon="3.64622">
        <ele>524.3</ele>
        <time>2021-08-12T06:51:15Z</time>
      </trkpt>
      <trkpt lat="44.16989" lon="3.64609">
        <ele>526.8</ele>
        <time>2021-08-12T06:51:17Z</time>
      </trkpt>
      <trkpt lat="44.16982" lon="3.646">
        <ele>528.1</ele>
        <time>2021-08-12T06:51:19Z</time>
      </trkpt>
      <trkpt lat="44.16974" lon="3.64591">
        <ele>528.5</ele>
        <time>2021-08-12T06:51:21Z</time>
      </trkpt>
      <trkpt lat="44.16965" lon="3.64583">
        <ele>528.4</ele>
        <time>2021-08-12T06:51:23Z</time>
      </trkpt>
      <trkpt lat="44.16957" lon="3.64571">
        <ele>529.4</ele>
        <time>2021-08-12T06:51:25Z</time>
      </trkpt>
      <trkpt lat="44.16949" lon="3.64565">
        <ele>528.9</ele>
        <time>2021-08-12T06:51:27Z</time>
      </trkpt>
      <trkpt lat="44.16942" lon="3.64564">
        <ele>527.7</ele>
        <time>2021-08-12T06:51:29Z</time>
      </trkpt>
      <trkpt lat="44.16936" lon="3.64562">
        <ele>526.7</ele>
        <time>2021-08-12T06:51:31Z</time>
      </trkpt>
      <trkpt lat="44.16934" lon="3.64562">
        <ele>526.4</ele>
        <time>2021-08-12T06:51:33Z</time>
      </trkpt>
      <trkpt lat="44.16932" lon="3.64559">
        <ele>526.2</ele>
        <time>2021-08-12T06:51:35Z</time>
      </trkpt>
      <trkpt lat="44.1693" lon="3.64556">
        <ele>526</ele>
        <time>2021-08-12T06:51:37Z</time>
      </trkpt>
      <trkpt lat="44.16928" lon="3.64555">
        <ele>525.6</ele>
        <time>2021-08-12T06:51:39Z</time>
      </trkpt>
      <trkpt lat="44.16928" lon="3.64557">
        <ele>525.4</ele>
        <time>2021-08-12T06:51:41Z</time>
      </trkpt>
      <trkpt lat="44.16928" lon="3.64559">
        <ele>525.4</ele>
        <time>2021-08-12T06:51:43Z</time>
      </trkpt>
      <trkpt lat="44.16931" lon="3.64561">
        <ele>525.8</ele>
        <time>2021-08-12T06:51:45Z</time>
      </trkpt>
      <trkpt lat="44.16934" lon="3.64561">
        <ele>526.4</ele>
        <time>2021-08-12T06:51:47Z</time>
      </trkpt>
      <trkpt lat="44.16935" lon="3.6456">
        <ele>526.7</ele>
        <time>2021-08-12T06:51:49Z</time>
      </trkpt>
      <trkpt lat="44.16936" lon="3.6456">
        <ele>526.8</ele>
        <time>2021-08-12T06:51:51Z</time>
      </trkpt>
      <trkpt lat="44.16928" lon="3.645">
        <ele>529.7</ele>
        <time>2021-08-12T06:53:15Z</time>
      </trkpt>
      <trkpt lat="44.16929" lon="3.64495">
        <ele>530.7</ele>
        <time>2021-08-12T06:53:17Z</time>
      </trkpt>
      <trkpt lat="44.1693" lon="3.6449">
        <ele>531.4</ele>
        <time>2021-08-12T06:53:19Z</time>
      </trkpt>
      <trkpt lat="44.1693" lon="3.64485">
        <ele>532.1</ele>
        <time>2021-08-12T06:53:21Z</time>
      </trkpt>
      <trkpt lat="44.16931" lon="3.6448">
        <ele>533</ele>
        <time>2021-08-12T06:53:23Z</time>
      </trkpt>
      <trkpt lat="44.16932" lon="3.64475">
        <ele>533.8</ele>
        <time>2021-08-12T06:53:25Z</time>
      </trkpt>
      <trkpt lat="44.16933" lon="3.6447">
        <ele>534.5</ele>
        <time>2021-08-12T06:53:27Z</time>
      </trkpt>
      <trkpt lat="44.16933" lon="3.64466">
        <ele>535</ele>
        <time>2021-08-12T06:53:29Z</time>
      </trkpt>
      <trkpt lat="44.16933" lon="3.64461">
        <ele>535.6</ele>
        <time>2021-08-12T06:53:31Z</time>
      </trkpt>
      <trkpt lat="44.16933" lon="3.64457">
        <ele>536</ele>
        <time>2021-08-12T06:53:33Z</time>
      </trkpt>
      <trkpt lat="44.16933" lon="3.64452">
        <ele>536.6</ele>
        <time>2021-08-12T06:53:35Z</time>
      </trkpt>
      <trkpt lat="44.16934" lon="3.64447">
        <ele>537.5</ele>
        <time>2021-08-12T06:53:37Z</time>
      </trkpt>
      <trkpt lat="44.16934" lon="3.64442">
        <ele>537.9</ele>
        <time>2021-08-12T06:53:39Z</time>
      </trkpt>
      <trkpt lat="44.16935" lon="3.64437">
        <ele>538.8</ele>
        <time>2021-08-12T06:53:41Z</time>
      </trkpt>
      <trkpt lat="44.16935" lon="3.64433">
        <ele>539.4</ele>
        <time>2021-08-12T06:53:43Z</time>
      </trkpt>
      <trkpt lat="44.16936" lon="3.64428">
        <ele>540</ele>
        <time>2021-08-12T06:53:45Z</time>
      </trkpt>
      <trkpt lat="44.16936" lon="3.64423">
        <ele>540.8</ele>
        <time>2021-08-12T06:53:47Z</time>
      </trkpt>
      <trkpt lat="44.16937" lon="3.64418">
        <ele>541.7</ele>
        <time>2021-08-12T06:53:49Z</time>
      </trkpt>
      <trkpt lat="44.16938" lon="3.64414">
        <ele>542.2</ele>
        <time>2021-08-12T06:53:51Z</time>
      </trkpt>
      <trkpt lat="44.16939" lon="3.64409">
        <ele>542.6</ele>
        <time>2021-08-12T06:53:53Z</time>
      </trkpt>
      <trkpt lat="44.1694" lon="3.64404">
        <ele>543.2</ele>
        <time>2021-08-12T06:53:55Z</time>
      </trkpt>
      <trkpt lat="44.16941" lon="3.644">
        <ele>543.7</ele>
        <time>2021-08-12T06:53:57Z</time>
      </trkpt>
      <trkpt lat="44.16942" lon="3.64395">
        <ele>544.1</ele>
        <time>2021-08-12T06:53:59Z</time>
      </trkpt>
      <trkpt lat="44.16944" lon="3.64391">
        <ele>544.7</ele>
        <time>2021-08-12T06:54:01Z</time>
      </trkpt>
      <trkpt lat="44.16945" lon="3.64386">
        <ele>545.3</ele>
        <time>2021-08-12T06:54:03Z</time>
      </trkpt>
      <trkpt lat="44.16947" lon="3.64381">
        <ele>545.9</ele>
        <time>2021-08-12T06:54:05Z</time>
      </trkpt>
      <trkpt lat="44.16948" lon="3.64376">
        <ele>546.5</ele>
        <time>2021-08-12T06:54:07Z</time>
      </trkpt>
      <trkpt lat="44.1695" lon="3.64372">
        <ele>547</ele>
        <time>2021-08-12T06:54:09Z</time>
      </trkpt>
      <trkpt lat="44.16952" lon="3.64368">
        <ele>547.5</ele>
        <time>2021-08-12T06:54:11Z</time>
      </trkpt>
      <trkpt lat="44.16953" lon="3.64363">
        <ele>547.8</ele>
        <time>2021-08-12T06:54:13Z</time>
      </trkpt>
      <trkpt lat="44.16954" lon="3.64358">
        <ele>548</ele>
        <time>2021-08-12T06:54:15Z</time>
      </trkpt>
      <trkpt lat="44.16954" lon="3.64353">
        <ele>548.2</ele>
        <time>2021-08-12T06:54:17Z</time>
      </trkpt>
      <trkpt lat="44.16956" lon="3.64349">
        <ele>548.6</ele>
        <time>2021-08-12T06:54:19Z</time>
      </trkpt>
      <trkpt lat="44.16957" lon="3.64344">
        <ele>548.8</ele>
        <time>2021-08-12T06:54:21Z</time>
      </trkpt>
      <trkpt lat="44.16958" lon="3.64339">
        <ele>548.9</ele>
        <time>2021-08-12T06:54:23Z</time>
      </trkpt>
      <trkpt lat="44.16958" lon="3.64334">
        <ele>549</ele>
        <time>2021-08-12T06:54:25Z</time>
      </trkpt>
      <trkpt lat="44.1696" lon="3.64329">
        <ele>549.6</ele>
        <time>2021-08-12T06:54:27Z</time>
      </trkpt>
      <trkpt lat="44.16961" lon="3.64325">
        <ele>550.2</ele>
        <time>2021-08-12T06:54:29Z</time>
      </trkpt>
      <trkpt lat="44.16962" lon="3.6432">
        <ele>550.7</ele>
        <time>2021-08-12T06:54:31Z</time>
      </trkpt>
      <trkpt lat="44.16964" lon="3.64316">
        <ele>551.3</ele>
        <time>2021-08-12T06:54:33Z</time>
      </trkpt>
      <trkpt lat="44.16965" lon="3.64311">
        <ele>551.9</ele>
        <time>2021-08-12T06:54:35Z</time>
      </trkpt>
      <trkpt lat="44.16967" lon="3.64307">
        <ele>552.6</ele>
        <time>2021-08-12T06:54:37Z</time>
      </trkpt>
      <trkpt lat="44.1697" lon="3.64302">
        <ele>553.2</ele>
        <time>2021-08-12T06:54:39Z</time>
      </trkpt>
      <trkpt lat="44.16972" lon="3.64298">
        <ele>553.8</ele>
        <time>2021-08-12T06:54:41Z</time>
      </trkpt>
      <trkpt lat="44.16974" lon="3.64295">
        <ele>554.4</ele>
        <time>2021-08-12T06:54:43Z</time>
      </trkpt>
      <trkpt lat="44.16977" lon="3.64291">
        <ele>554.9</ele>
        <time>2021-08-12T06:54:45Z</time>
      </trkpt>
      <trkpt lat="44.16979" lon="3.64286">
        <ele>555.3</ele>
        <time>2021-08-12T06:54:47Z</time>
      </trkpt>
      <trkpt lat="44.1698" lon="3.64282">
        <ele>555.6</ele>
        <time>2021-08-12T06:54:49Z</time>
      </trkpt>
      <trkpt lat="44.16981" lon="3.64277">
        <ele>555.8</ele>
        <time>2021-08-12T06:54:51Z</time>
      </trkpt>
      <trkpt lat="44.16981" lon="3.64272">
        <ele>555.9</ele>
        <time>2021-08-12T06:54:53Z</time>
      </trkpt>
      <trkpt lat="44.16981" lon="3.64267">
        <ele>555.9</ele>
        <time>2021-08-12T06:54:55Z</time>
      </trkpt>
      <trkpt lat="44.16981" lon="3.64262">
        <ele>555.9</ele>
        <time>2021-08-12T06:54:57Z</time>
      </trkpt>
      <trkpt lat="44.1698" lon="3.64258">
        <ele>555.8</ele>
        <time>2021-08-12T06:54:59Z</time>
      </trkpt>
      <trkpt lat="44.16979" lon="3.64253">
        <ele>555.7</ele>
        <time>2021-08-12T06:55:01Z</time>
      </trkpt>
      <trkpt lat="44.16978" lon="3.64248">
        <ele>555.7</ele>
        <time>2021-08-12T06:55:03Z</time>
      </trkpt>
      <trkpt lat="44.16977" lon="3.64243">
        <ele>555.6</ele>
        <time>2021-08-12T06:55:05Z</time>
      </trkpt>
      <trkpt lat="44.16976" lon="3.64239">
        <ele>555.6</ele>
        <time>2021-08-12T06:55:07Z</time>
      </trkpt>
      <trkpt lat="44.16975" lon="3.64234">
        <ele>555.5</ele>
        <time>2021-08-12T06:55:09Z</time>
      </trkpt>
      <trkpt lat="44.16974" lon="3.6423">
        <ele>555.5</ele>
        <time>2021-08-12T06:55:11Z</time>
      </trkpt>
      <trkpt lat="44.16973" lon="3.64225">
        <ele>555.5</ele>
        <time>2021-08-12T06:55:13Z</time>
      </trkpt>
      <trkpt lat="44.16972" lon="3.64221">
        <ele>555.4</ele>
        <time>2021-08-12T06:55:15Z</time>
      </trkpt>
      <trkpt lat="44.16971" lon="3.64216">
        <ele>555.4</ele>
        <time>2021-08-12T06:55:17Z</time>
      </trkpt>
      <trkpt lat="44.16971" lon="3.64211">
        <ele>555.5</ele>
        <time>2021-08-12T06:55:19Z</time>
      </trkpt>
      <trkpt lat="44.1697" lon="3.64207">
        <ele>555.5</ele>
        <time>2021-08-12T06:55:21Z</time>
      </trkpt>
      <trkpt lat="44.1697" lon="3.64202">
        <ele>555.5</ele>
        <time>2021-08-12T06:55:23Z</time>
      </trkpt>
      <trkpt lat="44.1697" lon="3.64196">
        <ele>555.7</ele>
        <time>2021-08-12T06:55:25Z</time>
      </trkpt>
      <trkpt lat="44.16972" lon="3.64191">
        <ele>555.9</ele>
        <time>2021-08-12T06:55:27Z</time>
      </trkpt>
      <trkpt lat="44.16974" lon="3.64185">
        <ele>556.2</ele>
        <time>2021-08-12T06:55:29Z</time>
      </trkpt>
      <trkpt lat="44.16975" lon="3.6418">
        <ele>556.4</ele>
        <time>2021-08-12T06:55:31Z</time>
      </trkpt>
      <trkpt lat="44.16978" lon="3.64176">
        <ele>556.7</ele>
        <time>2021-08-12T06:55:33Z</time>
      </trkpt>
      <trkpt lat="44.16979" lon="3.6417">
        <ele>557</ele>
        <time>2021-08-12T06:55:35Z</time>
      </trkpt>
      <trkpt lat="44.1698" lon="3.64164">
        <ele>557</ele>
        <time>2021-08-12T06:55:37Z</time>
      </trkpt>
      <trkpt lat="44.16979" lon="3.64158">
        <ele>556.9</ele>
        <time>2021-08-12T06:55:39Z</time>
      </trkpt>
      <trkpt lat="44.16979" lon="3.64153">
        <ele>556.7</ele>
        <time>2021-08-12T06:55:41Z</time>
      </trkpt>
      <trkpt lat="44.16979" lon="3.64148">
        <ele>556.6</ele>
        <time>2021-08-12T06:55:43Z</time>
      </trkpt>
      <trkpt lat="44.16979" lon="3.64141">
        <ele>556.5</ele>
        <time>2021-08-12T06:55:45Z</time>
      </trkpt>
      <trkpt lat="44.1698" lon="3.64136">
        <ele>556.5</ele>
        <time>2021-08-12T06:55:47Z</time>
      </trkpt>
      <trkpt lat="44.1698" lon="3.64131">
        <ele>556.4</ele>
        <time>2021-08-12T06:55:49Z</time>
      </trkpt>
      <trkpt lat="44.16981" lon="3.64125">
        <ele>556.4</ele>
        <time>2021-08-12T06:55:51Z</time>
      </trkpt>
      <trkpt lat="44.16981" lon="3.6412">
        <ele>556.3</ele>
        <time>2021-08-12T06:55:53Z</time>
      </trkpt>
      <trkpt lat="44.16982" lon="3.64114">
        <ele>556.3</ele>
        <time>2021-08-12T06:55:55Z</time>
      </trkpt>
      <trkpt lat="44.16982" lon="3.64109">
        <ele>556.2</ele>
        <time>2021-08-12T06:55:57Z</time>
      </trkpt>
      <trkpt lat="44.16981" lon="3.64103">
        <ele>556</ele>
        <time>2021-08-12T06:55:59Z</time>
      </trkpt>
      <trkpt lat="44.16981" lon="3.64098">
        <ele>555.9</ele>
        <time>2021-08-12T06:56:01Z</time>
      </trkpt>
      <trkpt lat="44.1698" lon="3.64093">
        <ele>555.8</ele>
        <time>2021-08-12T06:56:03Z</time>
      </trkpt>
      <trkpt lat="44.16979" lon="3.64087">
        <ele>555.6</ele>
        <time>2021-08-12T06:56:05Z</time>
      </trkpt>
      <trkpt lat="44.16979" lon="3.64082">
        <ele>555.5</ele>
        <time>2021-08-12T06:56:07Z</time>
      </trkpt>
      <trkpt lat="44.16978" lon="3.64077">
        <ele>555.3</ele>
        <time>2021-08-12T06:56:09Z</time>
      </trkpt>
      <trkpt lat="44.16977" lon="3.64071">
        <ele>555.3</ele>
        <time>2021-08-12T06:56:11Z</time>
      </trkpt>
      <trkpt lat="44.16977" lon="3.64066">
        <ele>555.2</ele>
        <time>2021-08-12T06:56:13Z</time>
      </trkpt>
      <trkpt lat="44.16976" lon="3.64061">
        <ele>555.1</ele>
        <time>2021-08-12T06:56:15Z</time>
      </trkpt>
      <trkpt lat="44.16976" lon="3.64055">
        <ele>555</ele>
        <time>2021-08-12T06:56:17Z</time>
      </trkpt>
      <trkpt lat="44.16975" lon="3.6405">
        <ele>555</ele>
        <time>2021-08-12T06:56:19Z</time>
      </trkpt>
      <trkpt lat="44.16976" lon="3.64044">
        <ele>554.9</ele>
        <time>2021-08-12T06:56:21Z</time>
      </trkpt>
      <trkpt lat="44.16976" lon="3.64038">
        <ele>554.9</ele>
        <time>2021-08-12T06:56:23Z</time>
      </trkpt>
      <trkpt lat="44.16978" lon="3.64033">
        <ele>554.9</ele>
        <time>2021-08-12T06:56:25Z</time>
      </trkpt>
      <trkpt lat="44.16979" lon="3.64028">
        <ele>554.8</ele>
        <time>2021-08-12T06:56:27Z</time>
      </trkpt>
      <trkpt lat="44.16981" lon="3.64023">
        <ele>554.8</ele>
        <time>2021-08-12T06:56:29Z</time>
      </trkpt>
      <trkpt lat="44.16983" lon="3.64019">
        <ele>554.7</ele>
        <time>2021-08-12T06:56:31Z</time>
      </trkpt>
      <trkpt lat="44.16985" lon="3.64015">
        <ele>554.6</ele>
        <time>2021-08-12T06:56:33Z</time>
      </trkpt>
      <trkpt lat="44.16988" lon="3.6401">
        <ele>554.5</ele>
        <time>2021-08-12T06:56:35Z</time>
      </trkpt>
      <trkpt lat="44.1699" lon="3.64006">
        <ele>554.4</ele>
        <time>2021-08-12T06:56:37Z</time>
      </trkpt>
      <trkpt lat="44.16991" lon="3.64001">
        <ele>554.2</ele>
        <time>2021-08-12T06:56:39Z</time>
      </trkpt>
      <trkpt lat="44.16992" lon="3.63996">
        <ele>553.9</ele>
        <time>2021-08-12T06:56:41Z</time>
      </trkpt>
      <trkpt lat="44.16993" lon="3.63991">
        <ele>553.5</ele>
        <time>2021-08-12T06:56:43Z</time>
      </trkpt>
      <trkpt lat="44.16994" lon="3.63986">
        <ele>553.1</ele>
        <time>2021-08-12T06:56:45Z</time>
      </trkpt>
      <trkpt lat="44.16995" lon="3.63981">
        <ele>552.7</ele>
        <time>2021-08-12T06:56:47Z</time>
      </trkpt>
      <trkpt lat="44.16995" lon="3.63977">
        <ele>552.4</ele>
        <time>2021-08-12T06:56:49Z</time>
      </trkpt>
      <trkpt lat="44.16996" lon="3.63972">
        <ele>552</ele>
        <time>2021-08-12T06:56:51Z</time>
      </trkpt>
      <trkpt lat="44.16997" lon="3.63967">
        <ele>551.5</ele>
        <time>2021-08-12T06:56:53Z</time>
      </trkpt>
      <trkpt lat="44.16999" lon="3.63963">
        <ele>551</ele>
        <time>2021-08-12T06:56:55Z</time>
      </trkpt>
      <trkpt lat="44.17001" lon="3.63959">
        <ele>551.1</ele>
        <time>2021-08-12T06:56:57Z</time>
      </trkpt>
      <trkpt lat="44.17004" lon="3.63955">
        <ele>552.4</ele>
        <time>2021-08-12T06:56:59Z</time>
      </trkpt>
      <trkpt lat="44.17007" lon="3.63953">
        <ele>554</ele>
        <time>2021-08-12T06:57:01Z</time>
      </trkpt>
      <trkpt lat="44.1701" lon="3.63949">
        <ele>555.2</ele>
        <time>2021-08-12T06:57:03Z</time>
      </trkpt>
      <trkpt lat="44.17013" lon="3.63945">
        <ele>556</ele>
        <time>2021-08-12T06:57:05Z</time>
      </trkpt>
      <trkpt lat="44.17015" lon="3.6394">
        <ele>556.6</ele>
        <time>2021-08-12T06:57:07Z</time>
      </trkpt>
      <trkpt lat="44.17017" lon="3.63936">
        <ele>557.1</ele>
        <time>2021-08-12T06:57:09Z</time>
      </trkpt>
      <trkpt lat="44.17019" lon="3.63931">
        <ele>557.7</ele>
        <time>2021-08-12T06:57:11Z</time>
      </trkpt>
      <trkpt lat="44.17022" lon="3.63927">
        <ele>558.4</ele>
        <time>2021-08-12T06:57:13Z</time>
      </trkpt>
      <trkpt lat="44.17024" lon="3.63923">
        <ele>559</ele>
        <time>2021-08-12T06:57:15Z</time>
      </trkpt>
      <trkpt lat="44.17027" lon="3.63919">
        <ele>559.6</ele>
        <time>2021-08-12T06:57:17Z</time>
      </trkpt>
      <trkpt lat="44.17029" lon="3.63915">
        <ele>560.2</ele>
        <time>2021-08-12T06:57:19Z</time>
      </trkpt>
      <trkpt lat="44.17032" lon="3.63912">
        <ele>561.2</ele>
        <time>2021-08-12T06:57:21Z</time>
      </trkpt>
      <trkpt lat="44.17034" lon="3.63908">
        <ele>561.9</ele>
        <time>2021-08-12T06:57:23Z</time>
      </trkpt>
      <trkpt lat="44.17036" lon="3.63904">
        <ele>562.3</ele>
        <time>2021-08-12T06:57:25Z</time>
      </trkpt>
      <trkpt lat="44.17039" lon="3.63899">
        <ele>562.9</ele>
        <time>2021-08-12T06:57:27Z</time>
      </trkpt>
      <trkpt lat="44.17041" lon="3.63894">
        <ele>563.4</ele>
        <time>2021-08-12T06:57:29Z</time>
      </trkpt>
      <trkpt lat="44.17043" lon="3.63889">
        <ele>563.7</ele>
        <time>2021-08-12T06:57:31Z</time>
      </trkpt>
      <trkpt lat="44.17045" lon="3.63885">
        <ele>564</ele>
        <time>2021-08-12T06:57:33Z</time>
      </trkpt>
      <trkpt lat="44.17046" lon="3.63879">
        <ele>563.8</ele>
        <time>2021-08-12T06:57:35Z</time>
      </trkpt>
      <trkpt lat="44.17049" lon="3.63875">
        <ele>564.2</ele>
        <time>2021-08-12T06:57:37Z</time>
      </trkpt>
      <trkpt lat="44.17051" lon="3.6387">
        <ele>564.5</ele>
        <time>2021-08-12T06:57:39Z</time>
      </trkpt>
      <trkpt lat="44.17053" lon="3.63867">
        <ele>565</ele>
        <time>2021-08-12T06:57:41Z</time>
      </trkpt>
      <trkpt lat="44.17055" lon="3.63862">
        <ele>565.4</ele>
        <time>2021-08-12T06:57:43Z</time>
      </trkpt>
      <trkpt lat="44.17058" lon="3.63859">
        <ele>566</ele>
        <time>2021-08-12T06:57:45Z</time>
      </trkpt>
      <trkpt lat="44.1706" lon="3.63855">
        <ele>566.1</ele>
        <time>2021-08-12T06:57:47Z</time>
      </trkpt>
      <trkpt lat="44.17062" lon="3.6385">
        <ele>566.2</ele>
        <time>2021-08-12T06:57:49Z</time>
      </trkpt>
      <trkpt lat="44.17065" lon="3.63846">
        <ele>566.6</ele>
        <time>2021-08-12T06:57:51Z</time>
      </trkpt>
      <trkpt lat="44.17067" lon="3.63841">
        <ele>566.6</ele>
        <time>2021-08-12T06:57:53Z</time>
      </trkpt>
      <trkpt lat="44.17069" lon="3.63837">
        <ele>566.8</ele>
        <time>2021-08-12T06:57:55Z</time>
      </trkpt>
      <trkpt lat="44.17071" lon="3.63833">
        <ele>566.9</ele>
        <time>2021-08-12T06:57:57Z</time>
      </trkpt>
      <trkpt lat="44.17073" lon="3.63828">
        <ele>567.4</ele>
        <time>2021-08-12T06:57:59Z</time>
      </trkpt>
      <trkpt lat="44.17075" lon="3.63824">
        <ele>567.8</ele>
        <time>2021-08-12T06:58:01Z</time>
      </trkpt>
      <trkpt lat="44.17077" lon="3.6382">
        <ele>568.3</ele>
        <time>2021-08-12T06:58:03Z</time>
      </trkpt>
      <trkpt lat="44.17079" lon="3.63815">
        <ele>568.8</ele>
        <time>2021-08-12T06:58:05Z</time>
      </trkpt>
      <trkpt lat="44.17081" lon="3.63811">
        <ele>569.3</ele>
        <time>2021-08-12T06:58:07Z</time>
      </trkpt>
      <trkpt lat="44.17083" lon="3.63806">
        <ele>569.5</ele>
        <time>2021-08-12T06:58:09Z</time>
      </trkpt>
      <trkpt lat="44.17085" lon="3.63801">
        <ele>570.1</ele>
        <time>2021-08-12T06:58:11Z</time>
      </trkpt>
      <trkpt lat="44.17086" lon="3.63795">
        <ele>570.7</ele>
        <time>2021-08-12T06:58:13Z</time>
      </trkpt>
      <trkpt lat="44.17087" lon="3.6379">
        <ele>570.7</ele>
        <time>2021-08-12T06:58:15Z</time>
      </trkpt>
      <trkpt lat="44.17086" lon="3.63785">
        <ele>570.2</ele>
        <time>2021-08-12T06:58:17Z</time>
      </trkpt>
      <trkpt lat="44.17084" lon="3.63781">
        <ele>569.1</ele>
        <time>2021-08-12T06:58:19Z</time>
      </trkpt>
      <trkpt lat="44.17083" lon="3.63776">
        <ele>568.2</ele>
        <time>2021-08-12T06:58:21Z</time>
      </trkpt>
      <trkpt lat="44.17081" lon="3.63772">
        <ele>567.7</ele>
        <time>2021-08-12T06:58:23Z</time>
      </trkpt>
      <trkpt lat="44.1708" lon="3.63768">
        <ele>567.2</ele>
        <time>2021-08-12T06:58:25Z</time>
      </trkpt>
      <trkpt lat="44.17079" lon="3.63763">
        <ele>566.8</ele>
        <time>2021-08-12T06:58:27Z</time>
      </trkpt>
      <trkpt lat="44.17079" lon="3.63758">
        <ele>566.6</ele>
        <time>2021-08-12T06:58:29Z</time>
      </trkpt>
      <trkpt lat="44.17078" lon="3.63753">
        <ele>566.3</ele>
        <time>2021-08-12T06:58:31Z</time>
      </trkpt>
      <trkpt lat="44.17079" lon="3.63747">
        <ele>566.3</ele>
        <time>2021-08-12T06:58:33Z</time>
      </trkpt>
      <trkpt lat="44.17079" lon="3.63742">
        <ele>566.6</ele>
        <time>2021-08-12T06:58:35Z</time>
      </trkpt>
      <trkpt lat="44.1708" lon="3.63736">
        <ele>566.8</ele>
        <time>2021-08-12T06:58:37Z</time>
      </trkpt>
      <trkpt lat="44.1708" lon="3.63731">
        <ele>567</ele>
        <time>2021-08-12T06:58:39Z</time>
      </trkpt>
      <trkpt lat="44.1708" lon="3.63726">
        <ele>567.2</ele>
        <time>2021-08-12T06:58:41Z</time>
      </trkpt>
      <trkpt lat="44.17081" lon="3.6372">
        <ele>567.4</ele>
        <time>2021-08-12T06:58:43Z</time>
      </trkpt>
      <trkpt lat="44.1708" lon="3.63715">
        <ele>567.5</ele>
        <time>2021-08-12T06:58:45Z</time>
      </trkpt>
      <trkpt lat="44.1708" lon="3.63709">
        <ele>567.5</ele>
        <time>2021-08-12T06:58:47Z</time>
      </trkpt>
      <trkpt lat="44.17079" lon="3.63704">
        <ele>567.7</ele>
        <time>2021-08-12T06:58:49Z</time>
      </trkpt>
      <trkpt lat="44.1708" lon="3.63699">
        <ele>567.9</ele>
        <time>2021-08-12T06:58:51Z</time>
      </trkpt>
      <trkpt lat="44.17079" lon="3.63694">
        <ele>568</ele>
        <time>2021-08-12T06:58:53Z</time>
      </trkpt>
      <trkpt lat="44.17078" lon="3.63689">
        <ele>568</ele>
        <time>2021-08-12T06:58:55Z</time>
      </trkpt>
      <trkpt lat="44.17077" lon="3.63684">
        <ele>568.1</ele>
        <time>2021-08-12T06:58:57Z</time>
      </trkpt>
      <trkpt lat="44.17076" lon="3.63679">
        <ele>568.2</ele>
        <time>2021-08-12T06:58:59Z</time>
      </trkpt>
      <trkpt lat="44.17075" lon="3.63673">
        <ele>568.3</ele>
        <time>2021-08-12T06:59:01Z</time>
      </trkpt>
      <trkpt lat="44.17074" lon="3.63668">
        <ele>568.4</ele>
        <time>2021-08-12T06:59:03Z</time>
      </trkpt>
      <trkpt lat="44.17073" lon="3.63663">
        <ele>568.1</ele>
        <time>2021-08-12T06:59:05Z</time>
      </trkpt>
      <trkpt lat="44.17072" lon="3.63658">
        <ele>567.6</ele>
        <time>2021-08-12T06:59:07Z</time>
      </trkpt>
      <trkpt lat="44.17072" lon="3.63653">
        <ele>567.2</ele>
        <time>2021-08-12T06:59:09Z</time>
      </trkpt>
      <trkpt lat="44.17072" lon="3.63648">
        <ele>566.8</ele>
        <time>2021-08-12T06:59:11Z</time>
      </trkpt>
      <trkpt lat="44.17072" lon="3.63642">
        <ele>566.4</ele>
        <time>2021-08-12T06:59:13Z</time>
      </trkpt>
      <trkpt lat="44.17074" lon="3.63637">
        <ele>566</ele>
        <time>2021-08-12T06:59:15Z</time>
      </trkpt>
      <trkpt lat="44.17077" lon="3.63632">
        <ele>565.7</ele>
        <time>2021-08-12T06:59:17Z</time>
      </trkpt>
      <trkpt lat="44.17079" lon="3.63627">
        <ele>565.2</ele>
        <time>2021-08-12T06:59:19Z</time>
      </trkpt>
      <trkpt lat="44.17081" lon="3.63622">
        <ele>564.8</ele>
        <time>2021-08-12T06:59:21Z</time>
      </trkpt>
      <trkpt lat="44.17084" lon="3.63618">
        <ele>564.7</ele>
        <time>2021-08-12T06:59:23Z</time>
      </trkpt>
      <trkpt lat="44.17087" lon="3.63615">
        <ele>565.8</ele>
        <time>2021-08-12T06:59:25Z</time>
      </trkpt>
      <trkpt lat="44.17091" lon="3.63612">
        <ele>567.2</ele>
        <time>2021-08-12T06:59:27Z</time>
      </trkpt>
      <trkpt lat="44.17095" lon="3.63609">
        <ele>568.5</ele>
        <time>2021-08-12T06:59:29Z</time>
      </trkpt>
      <trkpt lat="44.17099" lon="3.63607">
        <ele>569.8</ele>
        <time>2021-08-12T06:59:31Z</time>
      </trkpt>
      <trkpt lat="44.17102" lon="3.63605">
        <ele>571.1</ele>
        <time>2021-08-12T06:59:33Z</time>
      </trkpt>
      <trkpt lat="44.17106" lon="3.63603">
        <ele>572.6</ele>
        <time>2021-08-12T06:59:35Z</time>
      </trkpt>
      <trkpt lat="44.1711" lon="3.636">
        <ele>573.5</ele>
        <time>2021-08-12T06:59:37Z</time>
      </trkpt>
      <trkpt lat="44.17113" lon="3.63596">
        <ele>574.3</ele>
        <time>2021-08-12T06:59:39Z</time>
      </trkpt>
      <trkpt lat="44.17116" lon="3.63591">
        <ele>574.9</ele>
        <time>2021-08-12T06:59:41Z</time>
      </trkpt>
      <trkpt lat="44.17119" lon="3.63586">
        <ele>575</ele>
        <time>2021-08-12T06:59:43Z</time>
      </trkpt>
      <trkpt lat="44.17121" lon="3.63582">
        <ele>575.6</ele>
        <time>2021-08-12T06:59:45Z</time>
      </trkpt>
      <trkpt lat="44.17124" lon="3.63577">
        <ele>576.3</ele>
        <time>2021-08-12T06:59:47Z</time>
      </trkpt>
      <trkpt lat="44.17126" lon="3.63572">
        <ele>577</ele>
        <time>2021-08-12T06:59:49Z</time>
      </trkpt>
      <trkpt lat="44.17128" lon="3.63566">
        <ele>577.6</ele>
        <time>2021-08-12T06:59:51Z</time>
      </trkpt>
      <trkpt lat="44.1713" lon="3.6356">
        <ele>578.1</ele>
        <time>2021-08-12T06:59:53Z</time>
      </trkpt>
      <trkpt lat="44.17132" lon="3.63556">
        <ele>578.7</ele>
        <time>2021-08-12T06:59:55Z</time>
      </trkpt>
      <trkpt lat="44.17134" lon="3.6355">
        <ele>579.3</ele>
        <time>2021-08-12T06:59:57Z</time>
      </trkpt>
      <trkpt lat="44.17136" lon="3.63545">
        <ele>579.8</ele>
        <time>2021-08-12T06:59:59Z</time>
      </trkpt>
      <trkpt lat="44.17139" lon="3.6354">
        <ele>580.6</ele>
        <time>2021-08-12T07:00:01Z</time>
      </trkpt>
      <trkpt lat="44.17143" lon="3.63536">
        <ele>581.6</ele>
        <time>2021-08-12T07:00:03Z</time>
      </trkpt>
      <trkpt lat="44.17146" lon="3.63532">
        <ele>582.4</ele>
        <time>2021-08-12T07:00:05Z</time>
      </trkpt>
      <trkpt lat="44.17149" lon="3.63528">
        <ele>583.3</ele>
        <time>2021-08-12T07:00:07Z</time>
      </trkpt>
      <trkpt lat="44.17153" lon="3.63525">
        <ele>584.2</ele>
        <time>2021-08-12T07:00:09Z</time>
      </trkpt>
      <trkpt lat="44.17156" lon="3.6352">
        <ele>585</ele>
        <time>2021-08-12T07:00:11Z</time>
      </trkpt>
      <trkpt lat="44.17159" lon="3.63517">
        <ele>585.8</ele>
        <time>2021-08-12T07:00:13Z</time>
      </trkpt>
      <trkpt lat="44.17162" lon="3.63512">
        <ele>586.5</ele>
        <time>2021-08-12T07:00:15Z</time>
      </trkpt>
      <trkpt lat="44.17165" lon="3.63508">
        <ele>587.2</ele>
        <time>2021-08-12T07:00:17Z</time>
      </trkpt>
      <trkpt lat="44.17167" lon="3.63502">
        <ele>587.2</ele>
        <time>2021-08-12T07:00:19Z</time>
      </trkpt>
      <trkpt lat="44.17166" lon="3.63496">
        <ele>587.8</ele>
        <time>2021-08-12T07:00:21Z</time>
      </trkpt>
      <trkpt lat="44.17164" lon="3.6349">
        <ele>588</ele>
        <time>2021-08-12T07:00:23Z</time>
      </trkpt>
      <trkpt lat="44.1716" lon="3.63487">
        <ele>587.7</ele>
        <time>2021-08-12T07:00:25Z</time>
      </trkpt>
      <trkpt lat="44.17157" lon="3.63484">
        <ele>587.4</ele>
        <time>2021-08-12T07:00:27Z</time>
      </trkpt>
      <trkpt lat="44.17153" lon="3.63482">
        <ele>586.4</ele>
        <time>2021-08-12T07:00:29Z</time>
      </trkpt>
      <trkpt lat="44.17149" lon="3.63481">
        <ele>585.2</ele>
        <time>2021-08-12T07:00:31Z</time>
      </trkpt>
      <trkpt lat="44.17145" lon="3.6348">
        <ele>584</ele>
        <time>2021-08-12T07:00:33Z</time>
      </trkpt>
      <trkpt lat="44.1714" lon="3.63477">
        <ele>583</ele>
        <time>2021-08-12T07:00:35Z</time>
      </trkpt>
      <trkpt lat="44.17137" lon="3.63473">
        <ele>582.5</ele>
        <time>2021-08-12T07:00:37Z</time>
      </trkpt>
      <trkpt lat="44.17134" lon="3.6347">
        <ele>582</ele>
        <time>2021-08-12T07:00:39Z</time>
      </trkpt>
      <trkpt lat="44.17131" lon="3.63466">
        <ele>581.6</ele>
        <time>2021-08-12T07:00:41Z</time>
      </trkpt>
      <trkpt lat="44.17128" lon="3.63461">
        <ele>581.6</ele>
        <time>2021-08-12T07:00:43Z</time>
      </trkpt>
      <trkpt lat="44.17126" lon="3.63455">
        <ele>581.6</ele>
        <time>2021-08-12T07:00:45Z</time>
      </trkpt>
      <trkpt lat="44.17124" lon="3.6345">
        <ele>581.8</ele>
        <time>2021-08-12T07:00:47Z</time>
      </trkpt>
      <trkpt lat="44.17122" lon="3.63444">
        <ele>581.9</ele>
        <time>2021-08-12T07:00:49Z</time>
      </trkpt>
      <trkpt lat="44.1712" lon="3.63439">
        <ele>581.9</ele>
        <time>2021-08-12T07:00:51Z</time>
      </trkpt>
      <trkpt lat="44.17119" lon="3.63433">
        <ele>582.2</ele>
        <time>2021-08-12T07:00:53Z</time>
      </trkpt>
      <trkpt lat="44.17118" lon="3.63427">
        <ele>582.5</ele>
        <time>2021-08-12T07:00:55Z</time>
      </trkpt>
      <trkpt lat="44.17116" lon="3.63421">
        <ele>582.9</ele>
        <time>2021-08-12T07:00:57Z</time>
      </trkpt>
      <trkpt lat="44.17115" lon="3.63416">
        <ele>582.9</ele>
        <time>2021-08-12T07:00:59Z</time>
      </trkpt>
      <trkpt lat="44.17114" lon="3.6341">
        <ele>582</ele>
        <time>2021-08-12T07:01:01Z</time>
      </trkpt>
      <trkpt lat="44.17113" lon="3.63404">
        <ele>581.5</ele>
        <time>2021-08-12T07:01:03Z</time>
      </trkpt>
      <trkpt lat="44.17113" lon="3.63397">
        <ele>581</ele>
        <time>2021-08-12T07:01:05Z</time>
      </trkpt>
      <trkpt lat="44.17114" lon="3.63391">
        <ele>580.8</ele>
        <time>2021-08-12T07:01:07Z</time>
      </trkpt>
      <trkpt lat="44.17115" lon="3.63384">
        <ele>580.8</ele>
        <time>2021-08-12T07:01:09Z</time>
      </trkpt>
      <trkpt lat="44.17117" lon="3.63378">
        <ele>581.2</ele>
        <time>2021-08-12T07:01:11Z</time>
      </trkpt>
      <trkpt lat="44.17119" lon="3.63373">
        <ele>581.7</ele>
        <time>2021-08-12T07:01:13Z</time>
      </trkpt>
      <trkpt lat="44.17122" lon="3.63367">
        <ele>582.4</ele>
        <time>2021-08-12T07:01:15Z</time>
      </trkpt>
      <trkpt lat="44.17124" lon="3.63362">
        <ele>582.9</ele>
        <time>2021-08-12T07:01:17Z</time>
      </trkpt>
      <trkpt lat="44.17125" lon="3.63358">
        <ele>583.2</ele>
        <time>2021-08-12T07:01:19Z</time>
      </trkpt>
      <trkpt lat="44.17128" lon="3.63352">
        <ele>584.1</ele>
        <time>2021-08-12T07:01:21Z</time>
      </trkpt>
      <trkpt lat="44.17131" lon="3.63347">
        <ele>584.7</ele>
        <time>2021-08-12T07:01:23Z</time>
      </trkpt>
      <trkpt lat="44.17134" lon="3.63342">
        <ele>585.3</ele>
        <time>2021-08-12T07:01:25Z</time>
      </trkpt>
      <trkpt lat="44.17135" lon="3.63336">
        <ele>585.5</ele>
        <time>2021-08-12T07:01:27Z</time>
      </trkpt>
      <trkpt lat="44.17137" lon="3.6333">
        <ele>585.7</ele>
        <time>2021-08-12T07:01:29Z</time>
      </trkpt>
      <trkpt lat="44.17138" lon="3.63325">
        <ele>585.6</ele>
        <time>2021-08-12T07:01:31Z</time>
      </trkpt>
      <trkpt lat="44.17139" lon="3.63318">
        <ele>585</ele>
        <time>2021-08-12T07:01:33Z</time>
      </trkpt>
      <trkpt lat="44.1714" lon="3.63312">
        <ele>584.7</ele>
        <time>2021-08-12T07:01:35Z</time>
      </trkpt>
      <trkpt lat="44.1714" lon="3.63307">
        <ele>584.1</ele>
        <time>2021-08-12T07:01:37Z</time>
      </trkpt>
      <trkpt lat="44.1714" lon="3.63301">
        <ele>583.5</ele>
        <time>2021-08-12T07:01:39Z</time>
      </trkpt>
      <trkpt lat="44.1714" lon="3.63294">
        <ele>583</ele>
        <time>2021-08-12T07:01:41Z</time>
      </trkpt>
      <trkpt lat="44.17143" lon="3.63289">
        <ele>582.9</ele>
        <time>2021-08-12T07:01:43Z</time>
      </trkpt>
      <trkpt lat="44.17145" lon="3.63284">
        <ele>582.7</ele>
        <time>2021-08-12T07:01:45Z</time>
      </trkpt>
      <trkpt lat="44.17146" lon="3.63279">
        <ele>582.3</ele>
        <time>2021-08-12T07:01:47Z</time>
      </trkpt>
      <trkpt lat="44.17149" lon="3.63273">
        <ele>581.9</ele>
        <time>2021-08-12T07:01:49Z</time>
      </trkpt>
      <trkpt lat="44.17151" lon="3.63268">
        <ele>581.6</ele>
        <time>2021-08-12T07:01:51Z</time>
      </trkpt>
      <trkpt lat="44.17155" lon="3.63265">
        <ele>581.5</ele>
        <time>2021-08-12T07:01:53Z</time>
      </trkpt>
      <trkpt lat="44.17159" lon="3.63262">
        <ele>581.6</ele>
        <time>2021-08-12T07:01:55Z</time>
      </trkpt>
      <trkpt lat="44.17163" lon="3.63261">
        <ele>581.8</ele>
        <time>2021-08-12T07:01:57Z</time>
      </trkpt>
      <trkpt lat="44.17168" lon="3.63261">
        <ele>582.7</ele>
        <time>2021-08-12T07:01:59Z</time>
      </trkpt>
      <trkpt lat="44.17172" lon="3.63262">
        <ele>584</ele>
        <time>2021-08-12T07:02:01Z</time>
      </trkpt>
      <trkpt lat="44.17177" lon="3.63263">
        <ele>585.9</ele>
        <time>2021-08-12T07:02:03Z</time>
      </trkpt>
      <trkpt lat="44.17181" lon="3.63263">
        <ele>587.2</ele>
        <time>2021-08-12T07:02:05Z</time>
      </trkpt>
      <trkpt lat="44.17186" lon="3.63264">
        <ele>589</ele>
        <time>2021-08-12T07:02:07Z</time>
      </trkpt>
      <trkpt lat="44.17191" lon="3.63264">
        <ele>590.4</ele>
        <time>2021-08-12T07:02:09Z</time>
      </trkpt>
      <trkpt lat="44.17195" lon="3.63263">
        <ele>591.5</ele>
        <time>2021-08-12T07:02:11Z</time>
      </trkpt>
      <trkpt lat="44.17199" lon="3.6326">
        <ele>592.3</ele>
        <time>2021-08-12T07:02:13Z</time>
      </trkpt>
      <trkpt lat="44.17203" lon="3.63257">
        <ele>592.6</ele>
        <time>2021-08-12T07:02:15Z</time>
      </trkpt>
      <trkpt lat="44.17206" lon="3.63253">
        <ele>592.4</ele>
        <time>2021-08-12T07:02:17Z</time>
      </trkpt>
      <trkpt lat="44.17209" lon="3.63248">
        <ele>592.4</ele>
        <time>2021-08-12T07:02:19Z</time>
      </trkpt>
      <trkpt lat="44.17212" lon="3.63244">
        <ele>592.9</ele>
        <time>2021-08-12T07:02:21Z</time>
      </trkpt>
      <trkpt lat="44.17216" lon="3.63241">
        <ele>593.7</ele>
        <time>2021-08-12T07:02:23Z</time>
      </trkpt>
      <trkpt lat="44.1722" lon="3.63237">
        <ele>594.3</ele>
        <time>2021-08-12T07:02:25Z</time>
      </trkpt>
      <trkpt lat="44.17225" lon="3.63235">
        <ele>595.3</ele>
        <time>2021-08-12T07:02:27Z</time>
      </trkpt>
      <trkpt lat="44.17229" lon="3.63232">
        <ele>596</ele>
        <time>2021-08-12T07:02:29Z</time>
      </trkpt>
      <trkpt lat="44.17232" lon="3.63228">
        <ele>596.5</ele>
        <time>2021-08-12T07:02:31Z</time>
      </trkpt>
      <trkpt lat="44.17236" lon="3.63225">
        <ele>596.8</ele>
        <time>2021-08-12T07:02:33Z</time>
      </trkpt>
      <trkpt lat="44.17239" lon="3.63219">
        <ele>596.9</ele>
        <time>2021-08-12T07:02:35Z</time>
      </trkpt>
      <trkpt lat="44.17242" lon="3.63214">
        <ele>597</ele>
        <time>2021-08-12T07:02:37Z</time>
      </trkpt>
      <trkpt lat="44.17246" lon="3.63209">
        <ele>597</ele>
        <time>2021-08-12T07:02:39Z</time>
      </trkpt>
      <trkpt lat="44.17249" lon="3.63203">
        <ele>596.9</ele>
        <time>2021-08-12T07:02:41Z</time>
      </trkpt>
      <trkpt lat="44.17252" lon="3.63198">
        <ele>597.4</ele>
        <time>2021-08-12T07:02:43Z</time>
      </trkpt>
      <trkpt lat="44.17256" lon="3.63192">
        <ele>598.2</ele>
        <time>2021-08-12T07:02:45Z</time>
      </trkpt>
      <trkpt lat="44.1726" lon="3.63185">
        <ele>598.8</ele>
        <time>2021-08-12T07:02:47Z</time>
      </trkpt>
      <trkpt lat="44.17263" lon="3.63178">
        <ele>599.5</ele>
        <time>2021-08-12T07:02:49Z</time>
      </trkpt>
      <trkpt lat="44.17264" lon="3.6317">
        <ele>598.7</ele>
        <time>2021-08-12T07:02:51Z</time>
      </trkpt>
      <trkpt lat="44.17263" lon="3.63161">
        <ele>597.3</ele>
        <time>2021-08-12T07:02:53Z</time>
      </trkpt>
      <trkpt lat="44.17261" lon="3.63153">
        <ele>596.4</ele>
        <time>2021-08-12T07:02:55Z</time>
      </trkpt>
      <trkpt lat="44.17259" lon="3.63145">
        <ele>595.7</ele>
        <time>2021-08-12T07:02:57Z</time>
      </trkpt>
      <trkpt lat="44.17258" lon="3.63138">
        <ele>594.9</ele>
        <time>2021-08-12T07:02:59Z</time>
      </trkpt>
      <trkpt lat="44.17256" lon="3.63131">
        <ele>594.1</ele>
        <time>2021-08-12T07:03:01Z</time>
      </trkpt>
      <trkpt lat="44.17254" lon="3.63124">
        <ele>593.2</ele>
        <time>2021-08-12T07:03:03Z</time>
      </trkpt>
      <trkpt lat="44.17253" lon="3.63117">
        <ele>592.4</ele>
        <time>2021-08-12T07:03:05Z</time>
      </trkpt>
      <trkpt lat="44.17251" lon="3.6311">
        <ele>591.6</ele>
        <time>2021-08-12T07:03:07Z</time>
      </trkpt>
      <trkpt lat="44.1725" lon="3.63102">
        <ele>591</ele>
        <time>2021-08-12T07:03:09Z</time>
      </trkpt>
      <trkpt lat="44.17248" lon="3.63094">
        <ele>590.9</ele>
        <time>2021-08-12T07:03:11Z</time>
      </trkpt>
      <trkpt lat="44.17248" lon="3.63085">
        <ele>590.9</ele>
        <time>2021-08-12T07:03:13Z</time>
      </trkpt>
      <trkpt lat="44.17249" lon="3.63074">
        <ele>590.2</ele>
        <time>2021-08-12T07:03:15Z</time>
      </trkpt>
      <trkpt lat="44.1725" lon="3.63063">
        <ele>589.3</ele>
        <time>2021-08-12T07:03:17Z</time>
      </trkpt>
      <trkpt lat="44.17254" lon="3.63052">
        <ele>590.1</ele>
        <time>2021-08-12T07:03:19Z</time>
      </trkpt>
      <trkpt lat="44.17262" lon="3.63043">
        <ele>592.2</ele>
        <time>2021-08-12T07:03:21Z</time>
      </trkpt>
      <trkpt lat="44.1727" lon="3.63031">
        <ele>593.7</ele>
        <time>2021-08-12T07:03:23Z</time>
      </trkpt>
      <trkpt lat="44.17279" lon="3.6302">
        <ele>595.1</ele>
        <time>2021-08-12T07:03:25Z</time>
      </trkpt>
      <trkpt lat="44.17289" lon="3.63009">
        <ele>596</ele>
        <time>2021-08-12T07:03:27Z</time>
      </trkpt>
      <trkpt lat="44.17299" lon="3.62998">
        <ele>596.7</ele>
        <time>2021-08-12T07:03:29Z</time>
      </trkpt>
      <trkpt lat="44.17308" lon="3.62989">
        <ele>598</ele>
        <time>2021-08-12T07:03:31Z</time>
      </trkpt>
      <trkpt lat="44.17318" lon="3.6298">
        <ele>598.6</ele>
        <time>2021-08-12T07:03:33Z</time>
      </trkpt>
      <trkpt lat="44.17326" lon="3.62972">
        <ele>598.3</ele>
        <time>2021-08-12T07:03:35Z</time>
      </trkpt>
      <trkpt lat="44.17335" lon="3.62965">
        <ele>598.2</ele>
        <time>2021-08-12T07:03:37Z</time>
      </trkpt>
      <trkpt lat="44.17343" lon="3.62959">
        <ele>599.4</ele>
        <time>2021-08-12T07:03:39Z</time>
      </trkpt>
      <trkpt lat="44.17349" lon="3.62953">
        <ele>600.3</ele>
        <time>2021-08-12T07:03:41Z</time>
      </trkpt>
      <trkpt lat="44.17356" lon="3.62948">
        <ele>600.9</ele>
        <time>2021-08-12T07:03:43Z</time>
      </trkpt>
      <trkpt lat="44.17362" lon="3.62942">
        <ele>601.4</ele>
        <time>2021-08-12T07:03:45Z</time>
      </trkpt>
      <trkpt lat="44.17368" lon="3.62936">
        <ele>601.7</ele>
        <time>2021-08-12T07:03:47Z</time>
      </trkpt>
      <trkpt lat="44.17374" lon="3.62929">
        <ele>601.4</ele>
        <time>2021-08-12T07:03:49Z</time>
      </trkpt>
      <trkpt lat="44.17379" lon="3.62923">
        <ele>601.2</ele>
        <time>2021-08-12T07:03:51Z</time>
      </trkpt>
      <trkpt lat="44.17385" lon="3.62916">
        <ele>600.7</ele>
        <time>2021-08-12T07:03:53Z</time>
      </trkpt>
      <trkpt lat="44.17389" lon="3.62908">
        <ele>601.5</ele>
        <time>2021-08-12T07:03:55Z</time>
      </trkpt>
      <trkpt lat="44.17393" lon="3.62901">
        <ele>601.8</ele>
        <time>2021-08-12T07:03:57Z</time>
      </trkpt>
      <trkpt lat="44.17397" lon="3.62893">
        <ele>602</ele>
        <time>2021-08-12T07:03:59Z</time>
      </trkpt>
      <trkpt lat="44.17401" lon="3.62886">
        <ele>602</ele>
        <time>2021-08-12T07:04:01Z</time>
      </trkpt>
      <trkpt lat="44.17404" lon="3.62879">
        <ele>601.7</ele>
        <time>2021-08-12T07:04:03Z</time>
      </trkpt>
      <trkpt lat="44.17408" lon="3.62874">
        <ele>601.6</ele>
        <time>2021-08-12T07:04:05Z</time>
      </trkpt>
      <trkpt lat="44.17412" lon="3.6287">
        <ele>601.5</ele>
        <time>2021-08-12T07:04:07Z</time>
      </trkpt>
      <trkpt lat="44.17416" lon="3.62866">
        <ele>601.5</ele>
        <time>2021-08-12T07:04:09Z</time>
      </trkpt>
      <trkpt lat="44.17421" lon="3.62862">
        <ele>602.9</ele>
        <time>2021-08-12T07:04:11Z</time>
      </trkpt>
      <trkpt lat="44.17425" lon="3.62856">
        <ele>603.6</ele>
        <time>2021-08-12T07:04:13Z</time>
      </trkpt>
      <trkpt lat="44.17426" lon="3.62848">
        <ele>603.1</ele>
        <time>2021-08-12T07:04:15Z</time>
      </trkpt>
      <trkpt lat="44.17426" lon="3.62839">
        <ele>601.3</ele>
        <time>2021-08-12T07:04:17Z</time>
      </trkpt>
      <trkpt lat="44.17424" lon="3.62831">
        <ele>599.2</ele>
        <time>2021-08-12T07:04:19Z</time>
      </trkpt>
      <trkpt lat="44.17422" lon="3.62823">
        <ele>598.3</ele>
        <time>2021-08-12T07:04:21Z</time>
      </trkpt>
      <trkpt lat="44.17422" lon="3.62815">
        <ele>598</ele>
        <time>2021-08-12T07:04:23Z</time>
      </trkpt>
      <trkpt lat="44.17424" lon="3.62806">
        <ele>598.2</ele>
        <time>2021-08-12T07:04:25Z</time>
      </trkpt>
      <trkpt lat="44.17425" lon="3.62797">
        <ele>598.4</ele>
        <time>2021-08-12T07:04:27Z</time>
      </trkpt>
      <trkpt lat="44.17427" lon="3.62788">
        <ele>598.5</ele>
        <time>2021-08-12T07:04:29Z</time>
      </trkpt>
      <trkpt lat="44.17429" lon="3.6278">
        <ele>598.9</ele>
        <time>2021-08-12T07:04:31Z</time>
      </trkpt>
      <trkpt lat="44.17431" lon="3.62773">
        <ele>599.2</ele>
        <time>2021-08-12T07:04:33Z</time>
      </trkpt>
      <trkpt lat="44.17433" lon="3.62765">
        <ele>599.4</ele>
        <time>2021-08-12T07:04:35Z</time>
      </trkpt>
      <trkpt lat="44.17435" lon="3.62759">
        <ele>599.6</ele>
        <time>2021-08-12T07:04:37Z</time>
      </trkpt>
      <trkpt lat="44.17438" lon="3.62751">
        <ele>599.7</ele>
        <time>2021-08-12T07:04:39Z</time>
      </trkpt>
      <trkpt lat="44.1744" lon="3.62744">
        <ele>600.3</ele>
        <time>2021-08-12T07:04:41Z</time>
      </trkpt>
      <trkpt lat="44.17443" lon="3.62738">
        <ele>601.1</ele>
        <time>2021-08-12T07:04:43Z</time>
      </trkpt>
      <trkpt lat="44.17447" lon="3.62733">
        <ele>602.1</ele>
        <time>2021-08-12T07:04:45Z</time>
      </trkpt>
      <trkpt lat="44.17451" lon="3.62727">
        <ele>602.8</ele>
        <time>2021-08-12T07:04:47Z</time>
      </trkpt>
      <trkpt lat="44.17456" lon="3.62722">
        <ele>603.6</ele>
        <time>2021-08-12T07:04:49Z</time>
      </trkpt>
      <trkpt lat="44.17461" lon="3.62718">
        <ele>604.2</ele>
        <time>2021-08-12T07:04:51Z</time>
      </trkpt>
      <trkpt lat="44.17466" lon="3.62715">
        <ele>604.9</ele>
        <time>2021-08-12T07:04:53Z</time>
      </trkpt>
      <trkpt lat="44.17471" lon="3.62712">
        <ele>605.5</ele>
        <time>2021-08-12T07:04:55Z</time>
      </trkpt>
      <trkpt lat="44.17477" lon="3.62711">
        <ele>606.2</ele>
        <time>2021-08-12T07:04:57Z</time>
      </trkpt>
      <trkpt lat="44.17481" lon="3.6271">
        <ele>606.8</ele>
        <time>2021-08-12T07:04:59Z</time>
      </trkpt>
      <trkpt lat="44.17486" lon="3.6271">
        <ele>607.4</ele>
        <time>2021-08-12T07:05:01Z</time>
      </trkpt>
      <trkpt lat="44.17491" lon="3.6271">
        <ele>608</ele>
        <time>2021-08-12T07:05:03Z</time>
      </trkpt>
      <trkpt lat="44.17496" lon="3.62709">
        <ele>608.6</ele>
        <time>2021-08-12T07:05:05Z</time>
      </trkpt>
      <trkpt lat="44.17501" lon="3.62709">
        <ele>609.3</ele>
        <time>2021-08-12T07:05:07Z</time>
      </trkpt>
      <trkpt lat="44.17506" lon="3.62708">
        <ele>610</ele>
        <time>2021-08-12T07:05:09Z</time>
      </trkpt>
      <trkpt lat="44.17512" lon="3.62708">
        <ele>610.6</ele>
        <time>2021-08-12T07:05:11Z</time>
      </trkpt>
      <trkpt lat="44.17516" lon="3.62707">
        <ele>611.1</ele>
        <time>2021-08-12T07:05:13Z</time>
      </trkpt>
      <trkpt lat="44.17521" lon="3.62706">
        <ele>611.7</ele>
        <time>2021-08-12T07:05:15Z</time>
      </trkpt>
      <trkpt lat="44.17526" lon="3.62706">
        <ele>612.3</ele>
        <time>2021-08-12T07:05:17Z</time>
      </trkpt>
      <trkpt lat="44.17531" lon="3.62704">
        <ele>612.7</ele>
        <time>2021-08-12T07:05:19Z</time>
      </trkpt>
      <trkpt lat="44.17536" lon="3.62704">
        <ele>613.4</ele>
        <time>2021-08-12T07:05:21Z</time>
      </trkpt>
      <trkpt lat="44.17541" lon="3.62704">
        <ele>613.9</ele>
        <time>2021-08-12T07:05:23Z</time>
      </trkpt>
      <trkpt lat="44.17545" lon="3.62703">
        <ele>614.4</ele>
        <time>2021-08-12T07:05:25Z</time>
      </trkpt>
      <trkpt lat="44.1755" lon="3.62703">
        <ele>615.1</ele>
        <time>2021-08-12T07:05:27Z</time>
      </trkpt>
      <trkpt lat="44.17554" lon="3.62703">
        <ele>615.6</ele>
        <time>2021-08-12T07:05:29Z</time>
      </trkpt>
      <trkpt lat="44.17559" lon="3.62703">
        <ele>616.4</ele>
        <time>2021-08-12T07:05:31Z</time>
      </trkpt>
      <trkpt lat="44.17563" lon="3.62703">
        <ele>616.9</ele>
        <time>2021-08-12T07:05:33Z</time>
      </trkpt>
      <trkpt lat="44.17568" lon="3.62703">
        <ele>617.6</ele>
        <time>2021-08-12T07:05:35Z</time>
      </trkpt>
      <trkpt lat="44.17572" lon="3.62703">
        <ele>618.1</ele>
        <time>2021-08-12T07:05:37Z</time>
      </trkpt>
      <trkpt lat="44.17578" lon="3.62703">
        <ele>618.9</ele>
        <time>2021-08-12T07:05:39Z</time>
      </trkpt>
      <trkpt lat="44.17583" lon="3.62703">
        <ele>619.7</ele>
        <time>2021-08-12T07:05:41Z</time>
      </trkpt>
      <trkpt lat="44.17587" lon="3.62703">
        <ele>620.3</ele>
        <time>2021-08-12T07:05:43Z</time>
      </trkpt>
      <trkpt lat="44.17592" lon="3.62703">
        <ele>620.9</ele>
        <time>2021-08-12T07:05:45Z</time>
      </trkpt>
      <trkpt lat="44.17597" lon="3.62703">
        <ele>621.6</ele>
        <time>2021-08-12T07:05:47Z</time>
      </trkpt>
      <trkpt lat="44.17601" lon="3.62703">
        <ele>622.1</ele>
        <time>2021-08-12T07:05:49Z</time>
      </trkpt>
      <trkpt lat="44.17606" lon="3.62702">
        <ele>622.4</ele>
        <time>2021-08-12T07:05:51Z</time>
      </trkpt>
      <trkpt lat="44.1761" lon="3.627">
        <ele>622.5</ele>
        <time>2021-08-12T07:05:53Z</time>
      </trkpt>
      <trkpt lat="44.17615" lon="3.62699">
        <ele>622.7</ele>
        <time>2021-08-12T07:05:55Z</time>
      </trkpt>
      <trkpt lat="44.17619" lon="3.62696">
        <ele>622.6</ele>
        <time>2021-08-12T07:05:57Z</time>
      </trkpt>
      <trkpt lat="44.17624" lon="3.62694">
        <ele>622.5</ele>
        <time>2021-08-12T07:05:59Z</time>
      </trkpt>
      <trkpt lat="44.17628" lon="3.62691">
        <ele>622.4</ele>
        <time>2021-08-12T07:06:01Z</time>
      </trkpt>
      <trkpt lat="44.17633" lon="3.6269">
        <ele>622.4</ele>
        <time>2021-08-12T07:06:03Z</time>
      </trkpt>
      <trkpt lat="44.17637" lon="3.62687">
        <ele>622.1</ele>
        <time>2021-08-12T07:06:05Z</time>
      </trkpt>
      <trkpt lat="44.17641" lon="3.62684">
        <ele>621.6</ele>
        <time>2021-08-12T07:06:07Z</time>
      </trkpt>
      <trkpt lat="44.17644" lon="3.6268">
        <ele>620.9</ele>
        <time>2021-08-12T07:06:09Z</time>
      </trkpt>
      <trkpt lat="44.17647" lon="3.62675">
        <ele>619.6</ele>
        <time>2021-08-12T07:06:11Z</time>
      </trkpt>
      <trkpt lat="44.17649" lon="3.62669">
        <ele>618.1</ele>
        <time>2021-08-12T07:06:13Z</time>
      </trkpt>
      <trkpt lat="44.17652" lon="3.62664">
        <ele>618</ele>
        <time>2021-08-12T07:06:15Z</time>
      </trkpt>
      <trkpt lat="44.17655" lon="3.62658">
        <ele>619.1</ele>
        <time>2021-08-12T07:06:17Z</time>
      </trkpt>
      <trkpt lat="44.17659" lon="3.62654">
        <ele>620.1</ele>
        <time>2021-08-12T07:06:19Z</time>
      </trkpt>
      <trkpt lat="44.17663" lon="3.62652">
        <ele>620.9</ele>
        <time>2021-08-12T07:06:21Z</time>
      </trkpt>
      <trkpt lat="44.17668" lon="3.6265">
        <ele>621.5</ele>
        <time>2021-08-12T07:06:23Z</time>
      </trkpt>
      <trkpt lat="44.17672" lon="3.6265">
        <ele>622.1</ele>
        <time>2021-08-12T07:06:25Z</time>
      </trkpt>
      <trkpt lat="44.17677" lon="3.62649">
        <ele>622.8</ele>
        <time>2021-08-12T07:06:27Z</time>
      </trkpt>
      <trkpt lat="44.1768" lon="3.62647">
        <ele>623.5</ele>
        <time>2021-08-12T07:06:29Z</time>
      </trkpt>
      <trkpt lat="44.17684" lon="3.62644">
        <ele>624.3</ele>
        <time>2021-08-12T07:06:31Z</time>
      </trkpt>
      <trkpt lat="44.17687" lon="3.62639">
        <ele>625</ele>
        <time>2021-08-12T07:06:33Z</time>
      </trkpt>
      <trkpt lat="44.17688" lon="3.62633">
        <ele>625.5</ele>
        <time>2021-08-12T07:06:35Z</time>
      </trkpt>
      <trkpt lat="44.17689" lon="3.62627">
        <ele>625.9</ele>
        <time>2021-08-12T07:06:37Z</time>
      </trkpt>
      <trkpt lat="44.1769" lon="3.62622">
        <ele>626.3</ele>
        <time>2021-08-12T07:06:39Z</time>
      </trkpt>
      <trkpt lat="44.1769" lon="3.62616">
        <ele>626.7</ele>
        <time>2021-08-12T07:06:41Z</time>
      </trkpt>
      <trkpt lat="44.17689" lon="3.6261">
        <ele>627.1</ele>
        <time>2021-08-12T07:06:43Z</time>
      </trkpt>
      <trkpt lat="44.17686" lon="3.62605">
        <ele>627.5</ele>
        <time>2021-08-12T07:06:45Z</time>
      </trkpt>
      <trkpt lat="44.17682" lon="3.62603">
        <ele>627.8</ele>
        <time>2021-08-12T07:06:47Z</time>
      </trkpt>
      <trkpt lat="44.17679" lon="3.62604">
        <ele>627.7</ele>
        <time>2021-08-12T07:06:49Z</time>
      </trkpt>
      <trkpt lat="44.17677" lon="3.62606">
        <ele>627.6</ele>
        <time>2021-08-12T07:06:51Z</time>
      </trkpt>
      <trkpt lat="44.17676" lon="3.62606">
        <ele>627.5</ele>
        <time>2021-08-12T07:06:53Z</time>
      </trkpt>
      <trkpt lat="44.17676" lon="3.62607">
        <ele>627.4</ele>
        <time>2021-08-12T07:06:55Z</time>
      </trkpt>
      <trkpt lat="44.17676" lon="3.62607">
        <ele>627.4</ele>
        <time>2021-08-12T07:06:57Z</time>
      </trkpt>
      <trkpt lat="44.17676" lon="3.62607">
        <ele>627.4</ele>
        <time>2021-08-12T07:06:59Z</time>
      </trkpt>
      <trkpt lat="44.17666" lon="3.62619">
        <ele>625.8</ele>
        <time>2021-08-12T07:08:23Z</time>
      </trkpt>
      <trkpt lat="44.17663" lon="3.62621">
        <ele>625.2</ele>
        <time>2021-08-12T07:08:25Z</time>
      </trkpt>
      <trkpt lat="44.17659" lon="3.62624">
        <ele>624.5</ele>
        <time>2021-08-12T07:08:27Z</time>
      </trkpt>
      <trkpt lat="44.17656" lon="3.62627">
        <ele>623.8</ele>
        <time>2021-08-12T07:08:29Z</time>
      </trkpt>
      <trkpt lat="44.17652" lon="3.6263">
        <ele>623.1</ele>
        <time>2021-08-12T07:08:31Z</time>
      </trkpt>
      <trkpt lat="44.17648" lon="3.62632">
        <ele>622.4</ele>
        <time>2021-08-12T07:08:33Z</time>
      </trkpt>
      <trkpt lat="44.17645" lon="3.62635">
        <ele>621.7</ele>
        <time>2021-08-12T07:08:35Z</time>
      </trkpt>
      <trkpt lat="44.17641" lon="3.62637">
        <ele>621</ele>
        <time>2021-08-12T07:08:37Z</time>
      </trkpt>
      <trkpt lat="44.17638" lon="3.62639">
        <ele>620.4</ele>
        <time>2021-08-12T07:08:39Z</time>
      </trkpt>
      <trkpt lat="44.17634" lon="3.62641">
        <ele>619.8</ele>
        <time>2021-08-12T07:08:41Z</time>
      </trkpt>
      <trkpt lat="44.17631" lon="3.62643">
        <ele>619.2</ele>
        <time>2021-08-12T07:08:43Z</time>
      </trkpt>
      <trkpt lat="44.17627" lon="3.62643">
        <ele>618.8</ele>
        <time>2021-08-12T07:08:45Z</time>
      </trkpt>
      <trkpt lat="44.17623" lon="3.62644">
        <ele>618.4</ele>
        <time>2021-08-12T07:08:47Z</time>
      </trkpt>
      <trkpt lat="44.17618" lon="3.62644">
        <ele>617.9</ele>
        <time>2021-08-12T07:08:49Z</time>
      </trkpt>
      <trkpt lat="44.17614" lon="3.62643">
        <ele>617.7</ele>
        <time>2021-08-12T07:08:51Z</time>
      </trkpt>
      <trkpt lat="44.1761" lon="3.62642">
        <ele>617.6</ele>
        <time>2021-08-12T07:08:53Z</time>
      </trkpt>
      <trkpt lat="44.17607" lon="3.62639">
        <ele>617.7</ele>
        <time>2021-08-12T07:08:55Z</time>
      </trkpt>
      <trkpt lat="44.17603" lon="3.62636">
        <ele>617.8</ele>
        <time>2021-08-12T07:08:57Z</time>
      </trkpt>
      <trkpt lat="44.176" lon="3.62633">
        <ele>618.1</ele>
        <time>2021-08-12T07:08:59Z</time>
      </trkpt>
      <trkpt lat="44.17597" lon="3.62629">
        <ele>618.5</ele>
        <time>2021-08-12T07:09:01Z</time>
      </trkpt>
      <trkpt lat="44.17595" lon="3.62624">
        <ele>619.1</ele>
        <time>2021-08-12T07:09:03Z</time>
      </trkpt>
      <trkpt lat="44.17593" lon="3.62619">
        <ele>619.8</ele>
        <time>2021-08-12T07:09:05Z</time>
      </trkpt>
      <trkpt lat="44.17592" lon="3.62613">
        <ele>620.7</ele>
        <time>2021-08-12T07:09:07Z</time>
      </trkpt>
      <trkpt lat="44.17591" lon="3.62608">
        <ele>621.5</ele>
        <time>2021-08-12T07:09:09Z</time>
      </trkpt>
      <trkpt lat="44.1759" lon="3.62602">
        <ele>622.5</ele>
        <time>2021-08-12T07:09:11Z</time>
      </trkpt>
      <trkpt lat="44.1759" lon="3.62596">
        <ele>623.3</ele>
        <time>2021-08-12T07:09:13Z</time>
      </trkpt>
      <trkpt lat="44.1759" lon="3.6259">
        <ele>624.3</ele>
        <time>2021-08-12T07:09:15Z</time>
      </trkpt>
      <trkpt lat="44.1759" lon="3.62585">
        <ele>625.3</ele>
        <time>2021-08-12T07:09:17Z</time>
      </trkpt>
      <trkpt lat="44.17591" lon="3.62579">
        <ele>626.3</ele>
        <time>2021-08-12T07:09:19Z</time>
      </trkpt>
      <trkpt lat="44.17592" lon="3.62574">
        <ele>627.4</ele>
        <time>2021-08-12T07:09:21Z</time>
      </trkpt>
      <trkpt lat="44.17593" lon="3.62568">
        <ele>628.4</ele>
        <time>2021-08-12T07:09:23Z</time>
      </trkpt>
      <trkpt lat="44.17593" lon="3.62563">
        <ele>629.4</ele>
        <time>2021-08-12T07:09:25Z</time>
      </trkpt>
      <trkpt lat="44.17594" lon="3.62558">
        <ele>630.4</ele>
        <time>2021-08-12T07:09:27Z</time>
      </trkpt>
      <trkpt lat="44.17594" lon="3.62553">
        <ele>631.3</ele>
        <time>2021-08-12T07:09:29Z</time>
      </trkpt>
      <trkpt lat="44.17595" lon="3.62548">
        <ele>632.3</ele>
        <time>2021-08-12T07:09:31Z</time>
      </trkpt>
      <trkpt lat="44.17596" lon="3.62543">
        <ele>633.3</ele>
        <time>2021-08-12T07:09:33Z</time>
      </trkpt>
      <trkpt lat="44.17596" lon="3.62538">
        <ele>634.3</ele>
        <time>2021-08-12T07:09:35Z</time>
      </trkpt>
      <trkpt lat="44.17596" lon="3.62533">
        <ele>635.2</ele>
        <time>2021-08-12T07:09:37Z</time>
      </trkpt>
      <trkpt lat="44.17597" lon="3.62528">
        <ele>636.2</ele>
        <time>2021-08-12T07:09:39Z</time>
      </trkpt>
      <trkpt lat="44.17597" lon="3.62523">
        <ele>637.2</ele>
        <time>2021-08-12T07:09:41Z</time>
      </trkpt>
      <trkpt lat="44.17597" lon="3.62518">
        <ele>638.1</ele>
        <time>2021-08-12T07:09:43Z</time>
      </trkpt>
      <trkpt lat="44.17597" lon="3.62513">
        <ele>639.1</ele>
        <time>2021-08-12T07:09:45Z</time>
      </trkpt>
      <trkpt lat="44.17598" lon="3.62508">
        <ele>640.1</ele>
        <time>2021-08-12T07:09:47Z</time>
      </trkpt>
      <trkpt lat="44.17598" lon="3.62502">
        <ele>641.2</ele>
        <time>2021-08-12T07:09:49Z</time>
      </trkpt>
      <trkpt lat="44.17598" lon="3.62497">
        <ele>642</ele>
        <time>2021-08-12T07:09:51Z</time>
      </trkpt>
      <trkpt lat="44.17598" lon="3.62492">
        <ele>642.8</ele>
        <time>2021-08-12T07:09:53Z</time>
      </trkpt>
      <trkpt lat="44.17597" lon="3.62487">
        <ele>643.4</ele>
        <time>2021-08-12T07:09:55Z</time>
      </trkpt>
      <trkpt lat="44.17596" lon="3.62483">
        <ele>643.8</ele>
        <time>2021-08-12T07:09:57Z</time>
      </trkpt>
      <trkpt lat="44.17594" lon="3.62479">
        <ele>644</ele>
        <time>2021-08-12T07:09:59Z</time>
      </trkpt>
      <trkpt lat="44.1759" lon="3.62476">
        <ele>643.9</ele>
        <time>2021-08-12T07:10:01Z</time>
      </trkpt>
      <trkpt lat="44.17587" lon="3.62474">
        <ele>643.7</ele>
        <time>2021-08-12T07:10:03Z</time>
      </trkpt>
      <trkpt lat="44.17584" lon="3.62472">
        <ele>643.4</ele>
        <time>2021-08-12T07:10:05Z</time>
      </trkpt>
      <trkpt lat="44.1758" lon="3.62473">
        <ele>644</ele>
        <time>2021-08-12T07:10:07Z</time>
      </trkpt>
      <trkpt lat="44.17577" lon="3.62474">
        <ele>644.7</ele>
        <time>2021-08-12T07:10:09Z</time>
      </trkpt>
      <trkpt lat="44.17574" lon="3.62474">
        <ele>645.4</ele>
        <time>2021-08-12T07:10:11Z</time>
      </trkpt>
      <trkpt lat="44.1757" lon="3.62475">
        <ele>646</ele>
        <time>2021-08-12T07:10:13Z</time>
      </trkpt>
      <trkpt lat="44.17567" lon="3.62474">
        <ele>646.9</ele>
        <time>2021-08-12T07:10:15Z</time>
      </trkpt>
      <trkpt lat="44.17563" lon="3.62475">
        <ele>647.6</ele>
        <time>2021-08-12T07:10:17Z</time>
      </trkpt>
      <trkpt lat="44.1756" lon="3.62478">
        <ele>647.9</ele>
        <time>2021-08-12T07:10:19Z</time>
      </trkpt>
      <trkpt lat="44.17557" lon="3.6248">
        <ele>648.2</ele>
        <time>2021-08-12T07:10:21Z</time>
      </trkpt>
      <trkpt lat="44.17553" lon="3.62483">
        <ele>648.3</ele>
        <time>2021-08-12T07:10:23Z</time>
      </trkpt>
      <trkpt lat="44.17551" lon="3.62487">
        <ele>648.2</ele>
        <time>2021-08-12T07:10:25Z</time>
      </trkpt>
      <trkpt lat="44.17548" lon="3.6249">
        <ele>647.9</ele>
        <time>2021-08-12T07:10:27Z</time>
      </trkpt>
      <trkpt lat="44.17547" lon="3.62493">
        <ele>647.4</ele>
        <time>2021-08-12T07:10:29Z</time>
      </trkpt>
      <trkpt lat="44.17547" lon="3.62497">
        <ele>646.6</ele>
        <time>2021-08-12T07:10:31Z</time>
      </trkpt>
      <trkpt lat="44.17547" lon="3.62502">
        <ele>645.5</ele>
        <time>2021-08-12T07:10:33Z</time>
      </trkpt>
      <trkpt lat="44.17547" lon="3.62506">
        <ele>644.4</ele>
        <time>2021-08-12T07:10:35Z</time>
      </trkpt>
      <trkpt lat="44.17547" lon="3.62511">
        <ele>643.2</ele>
        <time>2021-08-12T07:10:37Z</time>
      </trkpt>
      <trkpt lat="44.17547" lon="3.62516">
        <ele>642.3</ele>
        <time>2021-08-12T07:10:39Z</time>
      </trkpt>
      <trkpt lat="44.17547" lon="3.6252">
        <ele>641.3</ele>
        <time>2021-08-12T07:10:41Z</time>
      </trkpt>
      <trkpt lat="44.17546" lon="3.62526">
        <ele>640.1</ele>
        <time>2021-08-12T07:10:43Z</time>
      </trkpt>
      <trkpt lat="44.17545" lon="3.6253">
        <ele>639.1</ele>
        <time>2021-08-12T07:10:45Z</time>
      </trkpt>
      <trkpt lat="44.17544" lon="3.62535">
        <ele>638.1</ele>
        <time>2021-08-12T07:10:47Z</time>
      </trkpt>
      <trkpt lat="44.17542" lon="3.62539">
        <ele>637.4</ele>
        <time>2021-08-12T07:10:49Z</time>
      </trkpt>
      <trkpt lat="44.1754" lon="3.62543">
        <ele>636.6</ele>
        <time>2021-08-12T07:10:51Z</time>
      </trkpt>
      <trkpt lat="44.17537" lon="3.62548">
        <ele>635.8</ele>
        <time>2021-08-12T07:10:53Z</time>
      </trkpt>
      <trkpt lat="44.17534" lon="3.62551">
        <ele>635.4</ele>
        <time>2021-08-12T07:10:55Z</time>
      </trkpt>
      <trkpt lat="44.17531" lon="3.62553">
        <ele>634.9</ele>
        <time>2021-08-12T07:10:57Z</time>
      </trkpt>
      <trkpt lat="44.17528" lon="3.62555">
        <ele>634.8</ele>
        <time>2021-08-12T07:10:59Z</time>
      </trkpt>
      <trkpt lat="44.17524" lon="3.62556">
        <ele>634.8</ele>
        <time>2021-08-12T07:11:01Z</time>
      </trkpt>
      <trkpt lat="44.1752" lon="3.62556">
        <ele>635</ele>
        <time>2021-08-12T07:11:03Z</time>
      </trkpt>
      <trkpt lat="44.17517" lon="3.62557">
        <ele>635.2</ele>
        <time>2021-08-12T07:11:05Z</time>
      </trkpt>
      <trkpt lat="44.17513" lon="3.62557">
        <ele>635.5</ele>
        <time>2021-08-12T07:11:07Z</time>
      </trkpt>
      <trkpt lat="44.1751" lon="3.62557">
        <ele>635.7</ele>
        <time>2021-08-12T07:11:09Z</time>
      </trkpt>
      <trkpt lat="44.17507" lon="3.62557">
        <ele>636</ele>
        <time>2021-08-12T07:11:11Z</time>
      </trkpt>
      <trkpt lat="44.17503" lon="3.62557">
        <ele>636.3</ele>
        <time>2021-08-12T07:11:13Z</time>
      </trkpt>
      <trkpt lat="44.17501" lon="3.62556">
        <ele>636.9</ele>
        <time>2021-08-12T07:11:15Z</time>
      </trkpt>
      <trkpt lat="44.17497" lon="3.62556">
        <ele>636.8</ele>
        <time>2021-08-12T07:11:17Z</time>
      </trkpt>
      <trkpt lat="44.17493" lon="3.62556">
        <ele>636.7</ele>
        <time>2021-08-12T07:11:19Z</time>
      </trkpt>
      <trkpt lat="44.17488" lon="3.62556">
        <ele>636.6</ele>
        <time>2021-08-12T07:11:21Z</time>
      </trkpt>
      <trkpt lat="44.17485" lon="3.62555">
        <ele>636.8</ele>
        <time>2021-08-12T07:11:23Z</time>
      </trkpt>
      <trkpt lat="44.17481" lon="3.62553">
        <ele>637.1</ele>
        <time>2021-08-12T07:11:25Z</time>
      </trkpt>
      <trkpt lat="44.17477" lon="3.62552">
        <ele>637.4</ele>
        <time>2021-08-12T07:11:27Z</time>
      </trkpt>
      <trkpt lat="44.17473" lon="3.62551">
        <ele>637.7</ele>
        <time>2021-08-12T07:11:29Z</time>
      </trkpt>
      <trkpt lat="44.1747" lon="3.62549">
        <ele>638.3</ele>
        <time>2021-08-12T07:11:31Z</time>
      </trkpt>
      <trkpt lat="44.17466" lon="3.62547">
        <ele>638.7</ele>
        <time>2021-08-12T07:11:33Z</time>
      </trkpt>
      <trkpt lat="44.17463" lon="3.62544">
        <ele>639.5</ele>
        <time>2021-08-12T07:11:35Z</time>
      </trkpt>
      <trkpt lat="44.17461" lon="3.62541">
        <ele>640.2</ele>
        <time>2021-08-12T07:11:37Z</time>
      </trkpt>
      <trkpt lat="44.17458" lon="3.62538">
        <ele>641.2</ele>
        <time>2021-08-12T07:11:39Z</time>
      </trkpt>
      <trkpt lat="44.17456" lon="3.62535">
        <ele>642</ele>
        <time>2021-08-12T07:11:41Z</time>
      </trkpt>
      <trkpt lat="44.17453" lon="3.62531">
        <ele>643</ele>
        <time>2021-08-12T07:11:43Z</time>
      </trkpt>
      <trkpt lat="44.17451" lon="3.62527">
        <ele>644</ele>
        <time>2021-08-12T07:11:45Z</time>
      </trkpt>
      <trkpt lat="44.17448" lon="3.62524">
        <ele>644.9</ele>
        <time>2021-08-12T07:11:47Z</time>
      </trkpt>
      <trkpt lat="44.17446" lon="3.62521">
        <ele>645.7</ele>
        <time>2021-08-12T07:11:49Z</time>
      </trkpt>
      <trkpt lat="44.17443" lon="3.62517">
        <ele>646.6</ele>
        <time>2021-08-12T07:11:51Z</time>
      </trkpt>
      <trkpt lat="44.17441" lon="3.62514">
        <ele>647.5</ele>
        <time>2021-08-12T07:11:53Z</time>
      </trkpt>
      <trkpt lat="44.17439" lon="3.6251">
        <ele>648.5</ele>
        <time>2021-08-12T07:11:55Z</time>
      </trkpt>
      <trkpt lat="44.17437" lon="3.62506">
        <ele>649.4</ele>
        <time>2021-08-12T07:11:57Z</time>
      </trkpt>
      <trkpt lat="44.17434" lon="3.62503">
        <ele>650.2</ele>
        <time>2021-08-12T07:11:59Z</time>
      </trkpt>
      <trkpt lat="44.17432" lon="3.625">
        <ele>651</ele>
        <time>2021-08-12T07:12:01Z</time>
      </trkpt>
      <trkpt lat="44.17429" lon="3.62497">
        <ele>652</ele>
        <time>2021-08-12T07:12:03Z</time>
      </trkpt>
      <trkpt lat="44.17427" lon="3.62493">
        <ele>653.2</ele>
        <time>2021-08-12T07:12:05Z</time>
      </trkpt>
      <trkpt lat="44.17425" lon="3.62491">
        <ele>654.2</ele>
        <time>2021-08-12T07:12:07Z</time>
      </trkpt>
      <trkpt lat="44.17422" lon="3.62488">
        <ele>655.1</ele>
        <time>2021-08-12T07:12:09Z</time>
      </trkpt>
      <trkpt lat="44.1742" lon="3.62485">
        <ele>656.1</ele>
        <time>2021-08-12T07:12:11Z</time>
      </trkpt>
      <trkpt lat="44.17417" lon="3.62483">
        <ele>656.9</ele>
        <time>2021-08-12T07:12:13Z</time>
      </trkpt>
      <trkpt lat="44.17414" lon="3.62481">
        <ele>657.7</ele>
        <time>2021-08-12T07:12:15Z</time>
      </trkpt>
      <trkpt lat="44.17411" lon="3.62478">
        <ele>658.3</ele>
        <time>2021-08-12T07:12:17Z</time>
      </trkpt>
      <trkpt lat="44.17409" lon="3.62475">
        <ele>659.3</ele>
        <time>2021-08-12T07:12:19Z</time>
      </trkpt>
      <trkpt lat="44.17406" lon="3.62473">
        <ele>660</ele>
        <time>2021-08-12T07:12:21Z</time>
      </trkpt>
      <trkpt lat="44.17404" lon="3.6247">
        <ele>660.8</ele>
        <time>2021-08-12T07:12:23Z</time>
      </trkpt>
      <trkpt lat="44.17401" lon="3.62468">
        <ele>661.3</ele>
        <time>2021-08-12T07:12:25Z</time>
      </trkpt>
      <trkpt lat="44.17398" lon="3.62466">
        <ele>662</ele>
        <time>2021-08-12T07:12:27Z</time>
      </trkpt>
      <trkpt lat="44.17395" lon="3.62463">
        <ele>662.5</ele>
        <time>2021-08-12T07:12:29Z</time>
      </trkpt>
      <trkpt lat="44.17392" lon="3.62461">
        <ele>663</ele>
        <time>2021-08-12T07:12:31Z</time>
      </trkpt>
      <trkpt lat="44.17389" lon="3.62459">
        <ele>663.2</ele>
        <time>2021-08-12T07:12:33Z</time>
      </trkpt>
      <trkpt lat="44.17387" lon="3.62457">
        <ele>663.6</ele>
        <time>2021-08-12T07:12:35Z</time>
      </trkpt>
      <trkpt lat="44.17384" lon="3.62455">
        <ele>664.3</ele>
        <time>2021-08-12T07:12:37Z</time>
      </trkpt>
      <trkpt lat="44.17382" lon="3.62452">
        <ele>664.8</ele>
        <time>2021-08-12T07:12:39Z</time>
      </trkpt>
      <trkpt lat="44.17379" lon="3.6245">
        <ele>665.2</ele>
        <time>2021-08-12T07:12:41Z</time>
      </trkpt>
      <trkpt lat="44.17376" lon="3.62446">
        <ele>666</ele>
        <time>2021-08-12T07:12:43Z</time>
      </trkpt>
      <trkpt lat="44.17373" lon="3.62445">
        <ele>665.9</ele>
        <time>2021-08-12T07:12:45Z</time>
      </trkpt>
      <trkpt lat="44.17369" lon="3.62443">
        <ele>666.1</ele>
        <time>2021-08-12T07:12:47Z</time>
      </trkpt>
      <trkpt lat="44.17366" lon="3.62441">
        <ele>666.3</ele>
        <time>2021-08-12T07:12:49Z</time>
      </trkpt>
      <trkpt lat="44.17364" lon="3.62439">
        <ele>666.7</ele>
        <time>2021-08-12T07:12:51Z</time>
      </trkpt>
      <trkpt lat="44.17361" lon="3.62436">
        <ele>667</ele>
        <time>2021-08-12T07:12:53Z</time>
      </trkpt>
      <trkpt lat="44.17358" lon="3.62435">
        <ele>667.1</ele>
        <time>2021-08-12T07:12:55Z</time>
      </trkpt>
      <trkpt lat="44.17355" lon="3.62432">
        <ele>667.4</ele>
        <time>2021-08-12T07:12:57Z</time>
      </trkpt>
      <trkpt lat="44.17352" lon="3.62431">
        <ele>667.3</ele>
        <time>2021-08-12T07:12:59Z</time>
      </trkpt>
      <trkpt lat="44.17349" lon="3.62428">
        <ele>667.6</ele>
        <time>2021-08-12T07:13:01Z</time>
      </trkpt>
      <trkpt lat="44.17346" lon="3.62426">
        <ele>667.8</ele>
        <time>2021-08-12T07:13:03Z</time>
      </trkpt>
      <trkpt lat="44.17343" lon="3.62423">
        <ele>667.9</ele>
        <time>2021-08-12T07:13:05Z</time>
      </trkpt>
      <trkpt lat="44.17341" lon="3.6242">
        <ele>668.4</ele>
        <time>2021-08-12T07:13:07Z</time>
      </trkpt>
      <trkpt lat="44.17338" lon="3.62419">
        <ele>668.1</ele>
        <time>2021-08-12T07:13:09Z</time>
      </trkpt>
      <trkpt lat="44.17334" lon="3.62418">
        <ele>667.9</ele>
        <time>2021-08-12T07:13:11Z</time>
      </trkpt>
      <trkpt lat="44.17331" lon="3.62415">
        <ele>668.7</ele>
        <time>2021-08-12T07:13:13Z</time>
      </trkpt>
      <trkpt lat="44.17328" lon="3.62413">
        <ele>670</ele>
        <time>2021-08-12T07:13:15Z</time>
      </trkpt>
      <trkpt lat="44.17325" lon="3.62411">
        <ele>671.1</ele>
        <time>2021-08-12T07:13:17Z</time>
      </trkpt>
      <trkpt lat="44.17322" lon="3.62409">
        <ele>671.8</ele>
        <time>2021-08-12T07:13:19Z</time>
      </trkpt>
      <trkpt lat="44.17319" lon="3.62408">
        <ele>672.9</ele>
        <time>2021-08-12T07:13:21Z</time>
      </trkpt>
      <trkpt lat="44.17316" lon="3.62406">
        <ele>673.7</ele>
        <time>2021-08-12T07:13:23Z</time>
      </trkpt>
      <trkpt lat="44.17312" lon="3.62406">
        <ele>674.1</ele>
        <time>2021-08-12T07:13:25Z</time>
      </trkpt>
      <trkpt lat="44.17309" lon="3.62405">
        <ele>674.4</ele>
        <time>2021-08-12T07:13:27Z</time>
      </trkpt>
      <trkpt lat="44.17306" lon="3.62405">
        <ele>674.7</ele>
        <time>2021-08-12T07:13:29Z</time>
      </trkpt>
      <trkpt lat="44.17302" lon="3.62406">
        <ele>674.6</ele>
        <time>2021-08-12T07:13:31Z</time>
      </trkpt>
      <trkpt lat="44.17299" lon="3.62406">
        <ele>674.8</ele>
        <time>2021-08-12T07:13:33Z</time>
      </trkpt>
      <trkpt lat="44.17296" lon="3.62406">
        <ele>674.8</ele>
        <time>2021-08-12T07:13:35Z</time>
      </trkpt>
      <trkpt lat="44.17293" lon="3.62408">
        <ele>674.4</ele>
        <time>2021-08-12T07:13:37Z</time>
      </trkpt>
      <trkpt lat="44.17291" lon="3.62409">
        <ele>674.3</ele>
        <time>2021-08-12T07:13:39Z</time>
      </trkpt>
      <trkpt lat="44.17287" lon="3.62409">
        <ele>674.3</ele>
        <time>2021-08-12T07:13:41Z</time>
      </trkpt>
      <trkpt lat="44.17284" lon="3.6241">
        <ele>674</ele>
        <time>2021-08-12T07:13:43Z</time>
      </trkpt>
      <trkpt lat="44.17281" lon="3.62412">
        <ele>673.7</ele>
        <time>2021-08-12T07:13:45Z</time>
      </trkpt>
      <trkpt lat="44.17278" lon="3.62413">
        <ele>673.6</ele>
        <time>2021-08-12T07:13:47Z</time>
      </trkpt>
      <trkpt lat="44.17275" lon="3.62414">
        <ele>673.4</ele>
        <time>2021-08-12T07:13:49Z</time>
      </trkpt>
      <trkpt lat="44.17272" lon="3.62415">
        <ele>673</ele>
        <time>2021-08-12T07:13:51Z</time>
      </trkpt>
      <trkpt lat="44.17269" lon="3.62416">
        <ele>673</ele>
        <time>2021-08-12T07:13:53Z</time>
      </trkpt>
      <trkpt lat="44.17266" lon="3.62417">
        <ele>672.9</ele>
        <time>2021-08-12T07:13:55Z</time>
      </trkpt>
      <trkpt lat="44.17262" lon="3.62418">
        <ele>673.1</ele>
        <time>2021-08-12T07:13:57Z</time>
      </trkpt>
      <trkpt lat="44.17259" lon="3.62418">
        <ele>673.3</ele>
        <time>2021-08-12T07:13:59Z</time>
      </trkpt>
      <trkpt lat="44.17256" lon="3.62418">
        <ele>673.5</ele>
        <time>2021-08-12T07:14:01Z</time>
      </trkpt>
      <trkpt lat="44.17253" lon="3.62418">
        <ele>673.7</ele>
        <time>2021-08-12T07:14:03Z</time>
      </trkpt>
      <trkpt lat="44.1725" lon="3.62417">
        <ele>674</ele>
        <time>2021-08-12T07:14:05Z</time>
      </trkpt>
      <trkpt lat="44.17246" lon="3.62417">
        <ele>675.3</ele>
        <time>2021-08-12T07:14:07Z</time>
      </trkpt>
      <trkpt lat="44.17243" lon="3.62417">
        <ele>676.4</ele>
        <time>2021-08-12T07:14:09Z</time>
      </trkpt>
      <trkpt lat="44.17239" lon="3.62415">
        <ele>678.1</ele>
        <time>2021-08-12T07:14:11Z</time>
      </trkpt>
      <trkpt lat="44.17236" lon="3.62414">
        <ele>679.5</ele>
        <time>2021-08-12T07:14:13Z</time>
      </trkpt>
      <trkpt lat="44.17233" lon="3.62413">
        <ele>681.1</ele>
        <time>2021-08-12T07:14:15Z</time>
      </trkpt>
      <trkpt lat="44.17229" lon="3.62412">
        <ele>682.6</ele>
        <time>2021-08-12T07:14:17Z</time>
      </trkpt>
      <trkpt lat="44.17226" lon="3.6241">
        <ele>684.1</ele>
        <time>2021-08-12T07:14:19Z</time>
      </trkpt>
      <trkpt lat="44.17223" lon="3.62412">
        <ele>684.9</ele>
        <time>2021-08-12T07:14:21Z</time>
      </trkpt>
      <trkpt lat="44.17219" lon="3.62412">
        <ele>685.8</ele>
        <time>2021-08-12T07:14:23Z</time>
      </trkpt>
      <trkpt lat="44.17216" lon="3.62414">
        <ele>686.4</ele>
        <time>2021-08-12T07:14:25Z</time>
      </trkpt>
      <trkpt lat="44.17214" lon="3.62416">
        <ele>686.7</ele>
        <time>2021-08-12T07:14:27Z</time>
      </trkpt>
      <trkpt lat="44.17212" lon="3.62419">
        <ele>687.4</ele>
        <time>2021-08-12T07:14:29Z</time>
      </trkpt>
      <trkpt lat="44.17211" lon="3.62424">
        <ele>687.7</ele>
        <time>2021-08-12T07:14:31Z</time>
      </trkpt>
      <trkpt lat="44.17211" lon="3.62428">
        <ele>687.9</ele>
        <time>2021-08-12T07:14:33Z</time>
      </trkpt>
      <trkpt lat="44.17212" lon="3.62432">
        <ele>687.6</ele>
        <time>2021-08-12T07:14:35Z</time>
      </trkpt>
      <trkpt lat="44.17213" lon="3.62435">
        <ele>687.4</ele>
        <time>2021-08-12T07:14:37Z</time>
      </trkpt>
      <trkpt lat="44.17214" lon="3.62439">
        <ele>687</ele>
        <time>2021-08-12T07:14:39Z</time>
      </trkpt>
      <trkpt lat="44.17217" lon="3.62443">
        <ele>685.9</ele>
        <time>2021-08-12T07:14:41Z</time>
      </trkpt>
      <trkpt lat="44.17219" lon="3.62447">
        <ele>685.3</ele>
        <time>2021-08-12T07:14:43Z</time>
      </trkpt>
      <trkpt lat="44.17221" lon="3.6245">
        <ele>684.5</ele>
        <time>2021-08-12T07:14:45Z</time>
      </trkpt>
      <trkpt lat="44.17224" lon="3.62454">
        <ele>683.4</ele>
        <time>2021-08-12T07:14:47Z</time>
      </trkpt>
      <trkpt lat="44.17227" lon="3.62457">
        <ele>682.2</ele>
        <time>2021-08-12T07:14:49Z</time>
      </trkpt>
      <trkpt lat="44.17229" lon="3.6246">
        <ele>681.3</ele>
        <time>2021-08-12T07:14:51Z</time>
      </trkpt>
      <trkpt lat="44.17231" lon="3.62464">
        <ele>680.6</ele>
        <time>2021-08-12T07:14:53Z</time>
      </trkpt>
      <trkpt lat="44.17234" lon="3.62467">
        <ele>679.5</ele>
        <time>2021-08-12T07:14:55Z</time>
      </trkpt>
      <trkpt lat="44.17237" lon="3.62469">
        <ele>678</ele>
        <time>2021-08-12T07:14:57Z</time>
      </trkpt>
      <trkpt lat="44.1724" lon="3.62473">
        <ele>677</ele>
        <time>2021-08-12T07:14:59Z</time>
      </trkpt>
      <trkpt lat="44.17241" lon="3.62476">
        <ele>676.3</ele>
        <time>2021-08-12T07:15:01Z</time>
      </trkpt>
      <trkpt lat="44.17243" lon="3.62479">
        <ele>675.5</ele>
        <time>2021-08-12T07:15:03Z</time>
      </trkpt>
      <trkpt lat="44.17244" lon="3.62484">
        <ele>675.1</ele>
        <time>2021-08-12T07:15:05Z</time>
      </trkpt>
      <trkpt lat="44.17245" lon="3.62488">
        <ele>674.6</ele>
        <time>2021-08-12T07:15:07Z</time>
      </trkpt>
      <trkpt lat="44.17246" lon="3.62493">
        <ele>674.1</ele>
        <time>2021-08-12T07:15:09Z</time>
      </trkpt>
      <trkpt lat="44.17246" lon="3.62498">
        <ele>673.8</ele>
        <time>2021-08-12T07:15:11Z</time>
      </trkpt>
      <trkpt lat="44.17246" lon="3.62503">
        <ele>674.1</ele>
        <time>2021-08-12T07:15:13Z</time>
      </trkpt>
      <trkpt lat="44.17246" lon="3.62508">
        <ele>674.4</ele>
        <time>2021-08-12T07:15:15Z</time>
      </trkpt>
      <trkpt lat="44.17247" lon="3.62513">
        <ele>674.7</ele>
        <time>2021-08-12T07:15:17Z</time>
      </trkpt>
      <trkpt lat="44.17248" lon="3.62517">
        <ele>674.7</ele>
        <time>2021-08-12T07:15:19Z</time>
      </trkpt>
      <trkpt lat="44.17248" lon="3.62523">
        <ele>674.9</ele>
        <time>2021-08-12T07:15:21Z</time>
      </trkpt>
      <trkpt lat="44.17248" lon="3.62527">
        <ele>675.4</ele>
        <time>2021-08-12T07:15:23Z</time>
      </trkpt>
      <trkpt lat="44.17249" lon="3.62532">
        <ele>675.7</ele>
        <time>2021-08-12T07:15:25Z</time>
      </trkpt>
      <trkpt lat="44.17249" lon="3.62536">
        <ele>675.7</ele>
        <time>2021-08-12T07:15:27Z</time>
      </trkpt>
      <trkpt lat="44.1725" lon="3.6254">
        <ele>675.9</ele>
        <time>2021-08-12T07:15:29Z</time>
      </trkpt>
      <trkpt lat="44.1725" lon="3.62545">
        <ele>676.4</ele>
        <time>2021-08-12T07:15:31Z</time>
      </trkpt>
      <trkpt lat="44.17251" lon="3.6255">
        <ele>676.6</ele>
        <time>2021-08-12T07:15:33Z</time>
      </trkpt>
      <trkpt lat="44.1725" lon="3.62555">
        <ele>677.1</ele>
        <time>2021-08-12T07:15:35Z</time>
      </trkpt>
      <trkpt lat="44.17251" lon="3.6256">
        <ele>677.2</ele>
        <time>2021-08-12T07:15:37Z</time>
      </trkpt>
      <trkpt lat="44.17251" lon="3.62564">
        <ele>677.7</ele>
        <time>2021-08-12T07:15:39Z</time>
      </trkpt>
      <trkpt lat="44.17251" lon="3.6257">
        <ele>678.2</ele>
        <time>2021-08-12T07:15:41Z</time>
      </trkpt>
      <trkpt lat="44.1725" lon="3.62575">
        <ele>679</ele>
        <time>2021-08-12T07:15:43Z</time>
      </trkpt>
      <trkpt lat="44.1725" lon="3.6258">
        <ele>679.6</ele>
        <time>2021-08-12T07:15:45Z</time>
      </trkpt>
      <trkpt lat="44.17249" lon="3.62585">
        <ele>680.2</ele>
        <time>2021-08-12T07:15:47Z</time>
      </trkpt>
      <trkpt lat="44.17248" lon="3.6259">
        <ele>680.3</ele>
        <time>2021-08-12T07:15:49Z</time>
      </trkpt>
      <trkpt lat="44.17247" lon="3.62595">
        <ele>680.3</ele>
        <time>2021-08-12T07:15:51Z</time>
      </trkpt>
      <trkpt lat="44.17245" lon="3.62599">
        <ele>680.6</ele>
        <time>2021-08-12T07:15:53Z</time>
      </trkpt>
      <trkpt lat="44.17243" lon="3.62604">
        <ele>680.8</ele>
        <time>2021-08-12T07:15:55Z</time>
      </trkpt>
      <trkpt lat="44.17241" lon="3.62607">
        <ele>681.3</ele>
        <time>2021-08-12T07:15:57Z</time>
      </trkpt>
      <trkpt lat="44.17239" lon="3.62611">
        <ele>681.7</ele>
        <time>2021-08-12T07:15:59Z</time>
      </trkpt>
      <trkpt lat="44.17236" lon="3.62615">
        <ele>682.2</ele>
        <time>2021-08-12T07:16:01Z</time>
      </trkpt>
      <trkpt lat="44.17233" lon="3.62619">
        <ele>682.8</ele>
        <time>2021-08-12T07:16:03Z</time>
      </trkpt>
      <trkpt lat="44.17231" lon="3.62621">
        <ele>683.6</ele>
        <time>2021-08-12T07:16:05Z</time>
      </trkpt>
      <trkpt lat="44.17228" lon="3.62624">
        <ele>684.1</ele>
        <time>2021-08-12T07:16:07Z</time>
      </trkpt>
      <trkpt lat="44.17225" lon="3.62627">
        <ele>684.8</ele>
        <time>2021-08-12T07:16:09Z</time>
      </trkpt>
      <trkpt lat="44.17222" lon="3.6263">
        <ele>685.4</ele>
        <time>2021-08-12T07:16:11Z</time>
      </trkpt>
      <trkpt lat="44.1722" lon="3.62633">
        <ele>685.9</ele>
        <time>2021-08-12T07:16:13Z</time>
      </trkpt>
      <trkpt lat="44.17217" lon="3.62636">
        <ele>686.3</ele>
        <time>2021-08-12T07:16:15Z</time>
      </trkpt>
      <trkpt lat="44.17215" lon="3.62639">
        <ele>686.8</ele>
        <time>2021-08-12T07:16:17Z</time>
      </trkpt>
      <trkpt lat="44.17212" lon="3.62642">
        <ele>687.3</ele>
        <time>2021-08-12T07:16:19Z</time>
      </trkpt>
      <trkpt lat="44.17209" lon="3.62644">
        <ele>687.8</ele>
        <time>2021-08-12T07:16:21Z</time>
      </trkpt>
      <trkpt lat="44.17207" lon="3.62647">
        <ele>688.1</ele>
        <time>2021-08-12T07:16:23Z</time>
      </trkpt>
      <trkpt lat="44.17205" lon="3.6265">
        <ele>688.5</ele>
        <time>2021-08-12T07:16:25Z</time>
      </trkpt>
      <trkpt lat="44.17202" lon="3.62652">
        <ele>689</ele>
        <time>2021-08-12T07:16:27Z</time>
      </trkpt>
      <trkpt lat="44.17199" lon="3.62655">
        <ele>689.5</ele>
        <time>2021-08-12T07:16:29Z</time>
      </trkpt>
      <trkpt lat="44.17196" lon="3.62658">
        <ele>689.9</ele>
        <time>2021-08-12T07:16:31Z</time>
      </trkpt>
      <trkpt lat="44.17193" lon="3.62661">
        <ele>690.4</ele>
        <time>2021-08-12T07:16:33Z</time>
      </trkpt>
      <trkpt lat="44.1719" lon="3.62664">
        <ele>690.6</ele>
        <time>2021-08-12T07:16:35Z</time>
      </trkpt>
      <trkpt lat="44.17187" lon="3.62667">
        <ele>691</ele>
        <time>2021-08-12T07:16:37Z</time>
      </trkpt>
      <trkpt lat="44.17185" lon="3.62668">
        <ele>691.1</ele>
        <time>2021-08-12T07:16:39Z</time>
      </trkpt>
      <trkpt lat="44.17182" lon="3.62671">
        <ele>691.3</ele>
        <time>2021-08-12T07:16:41Z</time>
      </trkpt>
      <trkpt lat="44.17179" lon="3.62673">
        <ele>691.4</ele>
        <time>2021-08-12T07:16:43Z</time>
      </trkpt>
      <trkpt lat="44.17176" lon="3.62676">
        <ele>691.6</ele>
        <time>2021-08-12T07:16:45Z</time>
      </trkpt>
      <trkpt lat="44.17172" lon="3.62677">
        <ele>692</ele>
        <time>2021-08-12T07:16:47Z</time>
      </trkpt>
      <trkpt lat="44.17169" lon="3.62679">
        <ele>692.3</ele>
        <time>2021-08-12T07:16:49Z</time>
      </trkpt>
      <trkpt lat="44.17166" lon="3.6268">
        <ele>692.7</ele>
        <time>2021-08-12T07:16:51Z</time>
      </trkpt>
      <trkpt lat="44.17163" lon="3.62682">
        <ele>693.1</ele>
        <time>2021-08-12T07:16:53Z</time>
      </trkpt>
      <trkpt lat="44.1716" lon="3.62682">
        <ele>693.7</ele>
        <time>2021-08-12T07:16:55Z</time>
      </trkpt>
      <trkpt lat="44.17156" lon="3.62683">
        <ele>694.3</ele>
        <time>2021-08-12T07:16:57Z</time>
      </trkpt>
      <trkpt lat="44.17153" lon="3.62685">
        <ele>694.6</ele>
        <time>2021-08-12T07:16:59Z</time>
      </trkpt>
      <trkpt lat="44.17149" lon="3.62687">
        <ele>694.6</ele>
        <time>2021-08-12T07:17:01Z</time>
      </trkpt>
      <trkpt lat="44.17146" lon="3.62688">
        <ele>695.1</ele>
        <time>2021-08-12T07:17:03Z</time>
      </trkpt>
      <trkpt lat="44.17142" lon="3.6269">
        <ele>695.4</ele>
        <time>2021-08-12T07:17:05Z</time>
      </trkpt>
      <trkpt lat="44.17139" lon="3.62692">
        <ele>695.3</ele>
        <time>2021-08-12T07:17:07Z</time>
      </trkpt>
      <trkpt lat="44.17136" lon="3.62694">
        <ele>695.4</ele>
        <time>2021-08-12T07:17:09Z</time>
      </trkpt>
      <trkpt lat="44.17132" lon="3.62696">
        <ele>695.7</ele>
        <time>2021-08-12T07:17:11Z</time>
      </trkpt>
      <trkpt lat="44.17129" lon="3.62697">
        <ele>695.9</ele>
        <time>2021-08-12T07:17:13Z</time>
      </trkpt>
      <trkpt lat="44.17126" lon="3.62699">
        <ele>695.8</ele>
        <time>2021-08-12T07:17:15Z</time>
      </trkpt>
      <trkpt lat="44.17123" lon="3.62701">
        <ele>696</ele>
        <time>2021-08-12T07:17:17Z</time>
      </trkpt>
      <trkpt lat="44.1712" lon="3.62703">
        <ele>696</ele>
        <time>2021-08-12T07:17:19Z</time>
      </trkpt>
      <trkpt lat="44.17117" lon="3.62703">
        <ele>696.5</ele>
        <time>2021-08-12T07:17:21Z</time>
      </trkpt>
      <trkpt lat="44.17114" lon="3.62704">
        <ele>697</ele>
        <time>2021-08-12T07:17:23Z</time>
      </trkpt>
      <trkpt lat="44.1711" lon="3.62705">
        <ele>697.3</ele>
        <time>2021-08-12T07:17:25Z</time>
      </trkpt>
      <trkpt lat="44.17106" lon="3.62706">
        <ele>697.7</ele>
        <time>2021-08-12T07:17:27Z</time>
      </trkpt>
      <trkpt lat="44.17102" lon="3.62707">
        <ele>698.5</ele>
        <time>2021-08-12T07:17:29Z</time>
      </trkpt>
      <trkpt lat="44.17099" lon="3.62707">
        <ele>698.9</ele>
        <time>2021-08-12T07:17:31Z</time>
      </trkpt>
      <trkpt lat="44.17095" lon="3.62708">
        <ele>699.6</ele>
        <time>2021-08-12T07:17:33Z</time>
      </trkpt>
      <trkpt lat="44.17092" lon="3.62707">
        <ele>700.5</ele>
        <time>2021-08-12T07:17:35Z</time>
      </trkpt>
      <trkpt lat="44.17088" lon="3.62708">
        <ele>701</ele>
        <time>2021-08-12T07:17:37Z</time>
      </trkpt>
      <trkpt lat="44.17085" lon="3.62708">
        <ele>701.8</ele>
        <time>2021-08-12T07:17:39Z</time>
      </trkpt>
      <trkpt lat="44.17081" lon="3.62708">
        <ele>702.5</ele>
        <time>2021-08-12T07:17:41Z</time>
      </trkpt>
      <trkpt lat="44.17078" lon="3.62708">
        <ele>702.7</ele>
        <time>2021-08-12T07:17:43Z</time>
      </trkpt>
      <trkpt lat="44.17074" lon="3.62709">
        <ele>702.6</ele>
        <time>2021-08-12T07:17:45Z</time>
      </trkpt>
      <trkpt lat="44.17071" lon="3.6271">
        <ele>702.6</ele>
        <time>2021-08-12T07:17:47Z</time>
      </trkpt>
      <trkpt lat="44.17068" lon="3.62711">
        <ele>702.6</ele>
        <time>2021-08-12T07:17:49Z</time>
      </trkpt>
      <trkpt lat="44.17065" lon="3.62713">
        <ele>702.2</ele>
        <time>2021-08-12T07:17:51Z</time>
      </trkpt>
      <trkpt lat="44.17061" lon="3.62715">
        <ele>701.8</ele>
        <time>2021-08-12T07:17:53Z</time>
      </trkpt>
      <trkpt lat="44.17058" lon="3.62716">
        <ele>701.6</ele>
        <time>2021-08-12T07:17:55Z</time>
      </trkpt>
      <trkpt lat="44.17055" lon="3.62716">
        <ele>701.9</ele>
        <time>2021-08-12T07:17:57Z</time>
      </trkpt>
      <trkpt lat="44.17052" lon="3.62714">
        <ele>703.1</ele>
        <time>2021-08-12T07:17:59Z</time>
      </trkpt>
      <trkpt lat="44.17052" lon="3.6271">
        <ele>704.8</ele>
        <time>2021-08-12T07:18:01Z</time>
      </trkpt>
      <trkpt lat="44.17057" lon="3.62708">
        <ele>705.1</ele>
        <time>2021-08-12T07:18:03Z</time>
      </trkpt>
      <trkpt lat="44.1706" lon="3.62707">
        <ele>705.2</ele>
        <time>2021-08-12T07:18:05Z</time>
      </trkpt>
      <trkpt lat="44.17063" lon="3.62705">
        <ele>705.6</ele>
        <time>2021-08-12T07:18:07Z</time>
      </trkpt>
      <trkpt lat="44.17067" lon="3.62704">
        <ele>705.7</ele>
        <time>2021-08-12T07:18:09Z</time>
      </trkpt>
      <trkpt lat="44.1707" lon="3.62702">
        <ele>706</ele>
        <time>2021-08-12T07:18:11Z</time>
      </trkpt>
      <trkpt lat="44.17073" lon="3.627">
        <ele>706.4</ele>
        <time>2021-08-12T07:18:13Z</time>
      </trkpt>
      <trkpt lat="44.17076" lon="3.62698">
        <ele>706.8</ele>
        <time>2021-08-12T07:18:15Z</time>
      </trkpt>
      <trkpt lat="44.17079" lon="3.62697">
        <ele>707.3</ele>
        <time>2021-08-12T07:18:17Z</time>
      </trkpt>
      <trkpt lat="44.17082" lon="3.62695">
        <ele>707.3</ele>
        <time>2021-08-12T07:18:19Z</time>
      </trkpt>
      <trkpt lat="44.17085" lon="3.62693">
        <ele>707.6</ele>
        <time>2021-08-12T07:18:21Z</time>
      </trkpt>
      <trkpt lat="44.17089" lon="3.62692">
        <ele>707.5</ele>
        <time>2021-08-12T07:18:23Z</time>
      </trkpt>
      <trkpt lat="44.17092" lon="3.62689">
        <ele>707.7</ele>
        <time>2021-08-12T07:18:25Z</time>
      </trkpt>
      <trkpt lat="44.17095" lon="3.62686">
        <ele>708.1</ele>
        <time>2021-08-12T07:18:27Z</time>
      </trkpt>
      <trkpt lat="44.17098" lon="3.62683">
        <ele>708.6</ele>
        <time>2021-08-12T07:18:29Z</time>
      </trkpt>
      <trkpt lat="44.17101" lon="3.62682">
        <ele>708.5</ele>
        <time>2021-08-12T07:18:31Z</time>
      </trkpt>
      <trkpt lat="44.17104" lon="3.6268">
        <ele>708.6</ele>
        <time>2021-08-12T07:18:33Z</time>
      </trkpt>
      <trkpt lat="44.17107" lon="3.62676">
        <ele>709.1</ele>
        <time>2021-08-12T07:18:35Z</time>
      </trkpt>
      <trkpt lat="44.17109" lon="3.62674">
        <ele>709.5</ele>
        <time>2021-08-12T07:18:37Z</time>
      </trkpt>
      <trkpt lat="44.17112" lon="3.6267">
        <ele>710.2</ele>
        <time>2021-08-12T07:18:39Z</time>
      </trkpt>
      <trkpt lat="44.17114" lon="3.62667">
        <ele>710.7</ele>
        <time>2021-08-12T07:18:41Z</time>
      </trkpt>
      <trkpt lat="44.17116" lon="3.62664">
        <ele>711.1</ele>
        <time>2021-08-12T07:18:43Z</time>
      </trkpt>
      <trkpt lat="44.17119" lon="3.62661">
        <ele>711</ele>
        <time>2021-08-12T07:18:45Z</time>
      </trkpt>
      <trkpt lat="44.17121" lon="3.62658">
        <ele>711.3</ele>
        <time>2021-08-12T07:18:47Z</time>
      </trkpt>
      <trkpt lat="44.17124" lon="3.62654">
        <ele>711.4</ele>
        <time>2021-08-12T07:18:49Z</time>
      </trkpt>
      <trkpt lat="44.17126" lon="3.62651">
        <ele>711.6</ele>
        <time>2021-08-12T07:18:51Z</time>
      </trkpt>
      <trkpt lat="44.17129" lon="3.62647">
        <ele>711.7</ele>
        <time>2021-08-12T07:18:53Z</time>
      </trkpt>
      <trkpt lat="44.17132" lon="3.62644">
        <ele>711.7</ele>
        <time>2021-08-12T07:18:55Z</time>
      </trkpt>
      <trkpt lat="44.17134" lon="3.6264">
        <ele>711.9</ele>
        <time>2021-08-12T07:18:57Z</time>
      </trkpt>
      <trkpt lat="44.17136" lon="3.62636">
        <ele>712.2</ele>
        <time>2021-08-12T07:18:59Z</time>
      </trkpt>
      <trkpt lat="44.17139" lon="3.62633">
        <ele>712.1</ele>
        <time>2021-08-12T07:19:01Z</time>
      </trkpt>
      <trkpt lat="44.1714" lon="3.62629">
        <ele>712.7</ele>
        <time>2021-08-12T07:19:03Z</time>
      </trkpt>
      <trkpt lat="44.17143" lon="3.62624">
        <ele>712.9</ele>
        <time>2021-08-12T07:19:05Z</time>
      </trkpt>
      <trkpt lat="44.17145" lon="3.6262">
        <ele>713.2</ele>
        <time>2021-08-12T07:19:07Z</time>
      </trkpt>
      <trkpt lat="44.17147" lon="3.62616">
        <ele>713.4</ele>
        <time>2021-08-12T07:19:09Z</time>
      </trkpt>
      <trkpt lat="44.17149" lon="3.62611">
        <ele>713.7</ele>
        <time>2021-08-12T07:19:11Z</time>
      </trkpt>
      <trkpt lat="44.17151" lon="3.62607">
        <ele>714</ele>
        <time>2021-08-12T07:19:13Z</time>
      </trkpt>
      <trkpt lat="44.17152" lon="3.62603">
        <ele>714.3</ele>
        <time>2021-08-12T07:19:15Z</time>
      </trkpt>
      <trkpt lat="44.17154" lon="3.62599">
        <ele>714.6</ele>
        <time>2021-08-12T07:19:17Z</time>
      </trkpt>
      <trkpt lat="44.17156" lon="3.62595">
        <ele>714.7</ele>
        <time>2021-08-12T07:19:19Z</time>
      </trkpt>
      <trkpt lat="44.17157" lon="3.6259">
        <ele>715.2</ele>
        <time>2021-08-12T07:19:21Z</time>
      </trkpt>
      <trkpt lat="44.17158" lon="3.62586">
        <ele>715.7</ele>
        <time>2021-08-12T07:19:23Z</time>
      </trkpt>
      <trkpt lat="44.1716" lon="3.62581">
        <ele>715.5</ele>
        <time>2021-08-12T07:19:25Z</time>
      </trkpt>
      <trkpt lat="44.17161" lon="3.62576">
        <ele>714.9</ele>
        <time>2021-08-12T07:19:27Z</time>
      </trkpt>
      <trkpt lat="44.17162" lon="3.62572">
        <ele>714.3</ele>
        <time>2021-08-12T07:19:29Z</time>
      </trkpt>
      <trkpt lat="44.17163" lon="3.62568">
        <ele>713.9</ele>
        <time>2021-08-12T07:19:31Z</time>
      </trkpt>
      <trkpt lat="44.17163" lon="3.62562">
        <ele>713.8</ele>
        <time>2021-08-12T07:19:33Z</time>
      </trkpt>
      <trkpt lat="44.17163" lon="3.62558">
        <ele>713.5</ele>
        <time>2021-08-12T07:19:35Z</time>
      </trkpt>
      <trkpt lat="44.17164" lon="3.62553">
        <ele>713.2</ele>
        <time>2021-08-12T07:19:37Z</time>
      </trkpt>
      <trkpt lat="44.17163" lon="3.62548">
        <ele>713.3</ele>
        <time>2021-08-12T07:19:39Z</time>
      </trkpt>
      <trkpt lat="44.17162" lon="3.62544">
        <ele>713.5</ele>
        <time>2021-08-12T07:19:41Z</time>
      </trkpt>
      <trkpt lat="44.17162" lon="3.62539">
        <ele>713.5</ele>
        <time>2021-08-12T07:19:43Z</time>
      </trkpt>
      <trkpt lat="44.17161" lon="3.62536">
        <ele>713.9</ele>
        <time>2021-08-12T07:19:45Z</time>
      </trkpt>
      <trkpt lat="44.1716" lon="3.62531">
        <ele>714.3</ele>
        <time>2021-08-12T07:19:47Z</time>
      </trkpt>
      <trkpt lat="44.17158" lon="3.62527">
        <ele>714.8</ele>
        <time>2021-08-12T07:19:49Z</time>
      </trkpt>
      <trkpt lat="44.17158" lon="3.62523">
        <ele>715</ele>
        <time>2021-08-12T07:19:51Z</time>
      </trkpt>
      <trkpt lat="44.17157" lon="3.62518">
        <ele>715.3</ele>
        <time>2021-08-12T07:19:53Z</time>
      </trkpt>
      <trkpt lat="44.17155" lon="3.62513">
        <ele>715.9</ele>
        <time>2021-08-12T07:19:55Z</time>
      </trkpt>
      <trkpt lat="44.17154" lon="3.62508">
        <ele>716.5</ele>
        <time>2021-08-12T07:19:57Z</time>
      </trkpt>
      <trkpt lat="44.17152" lon="3.62503">
        <ele>717.3</ele>
        <time>2021-08-12T07:19:59Z</time>
      </trkpt>
      <trkpt lat="44.17151" lon="3.62498">
        <ele>717.9</ele>
        <time>2021-08-12T07:20:01Z</time>
      </trkpt>
      <trkpt lat="44.17149" lon="3.62493">
        <ele>718</ele>
        <time>2021-08-12T07:20:03Z</time>
      </trkpt>
      <trkpt lat="44.17148" lon="3.62488">
        <ele>718.3</ele>
        <time>2021-08-12T07:20:05Z</time>
      </trkpt>
      <trkpt lat="44.17146" lon="3.62483">
        <ele>718.6</ele>
        <time>2021-08-12T07:20:07Z</time>
      </trkpt>
      <trkpt lat="44.17145" lon="3.62479">
        <ele>719</ele>
        <time>2021-08-12T07:20:09Z</time>
      </trkpt>
      <trkpt lat="44.17143" lon="3.62474">
        <ele>719.4</ele>
        <time>2021-08-12T07:20:11Z</time>
      </trkpt>
      <trkpt lat="44.17141" lon="3.6247">
        <ele>720.1</ele>
        <time>2021-08-12T07:20:13Z</time>
      </trkpt>
      <trkpt lat="44.17139" lon="3.62466">
        <ele>720.6</ele>
        <time>2021-08-12T07:20:15Z</time>
      </trkpt>
      <trkpt lat="44.17137" lon="3.62462">
        <ele>721.3</ele>
        <time>2021-08-12T07:20:17Z</time>
      </trkpt>
      <trkpt lat="44.17135" lon="3.62458">
        <ele>721.8</ele>
        <time>2021-08-12T07:20:19Z</time>
      </trkpt>
      <trkpt lat="44.17133" lon="3.62454">
        <ele>722.6</ele>
        <time>2021-08-12T07:20:21Z</time>
      </trkpt>
      <trkpt lat="44.17131" lon="3.6245">
        <ele>723.1</ele>
        <time>2021-08-12T07:20:23Z</time>
      </trkpt>
      <trkpt lat="44.17129" lon="3.62446">
        <ele>723.4</ele>
        <time>2021-08-12T07:20:25Z</time>
      </trkpt>
      <trkpt lat="44.17128" lon="3.62442">
        <ele>723.7</ele>
        <time>2021-08-12T07:20:27Z</time>
      </trkpt>
      <trkpt lat="44.17126" lon="3.62437">
        <ele>724</ele>
        <time>2021-08-12T07:20:29Z</time>
      </trkpt>
      <trkpt lat="44.17125" lon="3.62433">
        <ele>724.4</ele>
        <time>2021-08-12T07:20:31Z</time>
      </trkpt>
      <trkpt lat="44.17121" lon="3.62432">
        <ele>725.9</ele>
        <time>2021-08-12T07:20:33Z</time>
      </trkpt>
      <trkpt lat="44.17119" lon="3.62435">
        <ele>727.5</ele>
        <time>2021-08-12T07:20:35Z</time>
      </trkpt>
      <trkpt lat="44.17118" lon="3.6244">
        <ele>728.5</ele>
        <time>2021-08-12T07:20:37Z</time>
      </trkpt>
      <trkpt lat="44.17118" lon="3.62446">
        <ele>728.6</ele>
        <time>2021-08-12T07:20:39Z</time>
      </trkpt>
      <trkpt lat="44.17121" lon="3.6245">
        <ele>728</ele>
        <time>2021-08-12T07:20:41Z</time>
      </trkpt>
      <trkpt lat="44.17123" lon="3.62454">
        <ele>727.2</ele>
        <time>2021-08-12T07:20:43Z</time>
      </trkpt>
      <trkpt lat="44.17125" lon="3.62458">
        <ele>726.6</ele>
        <time>2021-08-12T07:20:45Z</time>
      </trkpt>
      <trkpt lat="44.17128" lon="3.62462">
        <ele>725.9</ele>
        <time>2021-08-12T07:20:47Z</time>
      </trkpt>
      <trkpt lat="44.17129" lon="3.62466">
        <ele>725.7</ele>
        <time>2021-08-12T07:20:49Z</time>
      </trkpt>
      <trkpt lat="44.1713" lon="3.6247">
        <ele>725.3</ele>
        <time>2021-08-12T07:20:51Z</time>
      </trkpt>
      <trkpt lat="44.17132" lon="3.62474">
        <ele>725</ele>
        <time>2021-08-12T07:20:53Z</time>
      </trkpt>
      <trkpt lat="44.17133" lon="3.62479">
        <ele>725</ele>
        <time>2021-08-12T07:20:55Z</time>
      </trkpt>
      <trkpt lat="44.17134" lon="3.62483">
        <ele>724.8</ele>
        <time>2021-08-12T07:20:57Z</time>
      </trkpt>
      <trkpt lat="44.17134" lon="3.62488">
        <ele>725.1</ele>
        <time>2021-08-12T07:20:59Z</time>
      </trkpt>
      <trkpt lat="44.17135" lon="3.62493">
        <ele>725.4</ele>
        <time>2021-08-12T07:21:01Z</time>
      </trkpt>
      <trkpt lat="44.17135" lon="3.62497">
        <ele>725.6</ele>
        <time>2021-08-12T07:21:03Z</time>
      </trkpt>
      <trkpt lat="44.17135" lon="3.62502">
        <ele>725.7</ele>
        <time>2021-08-12T07:21:05Z</time>
      </trkpt>
      <trkpt lat="44.17136" lon="3.62506">
        <ele>725.6</ele>
        <time>2021-08-12T07:21:07Z</time>
      </trkpt>
      <trkpt lat="44.17136" lon="3.62511">
        <ele>725.4</ele>
        <time>2021-08-12T07:21:09Z</time>
      </trkpt>
      <trkpt lat="44.17135" lon="3.62515">
        <ele>725.6</ele>
        <time>2021-08-12T07:21:11Z</time>
      </trkpt>
      <trkpt lat="44.17135" lon="3.6252">
        <ele>725.7</ele>
        <time>2021-08-12T07:21:13Z</time>
      </trkpt>
      <trkpt lat="44.17135" lon="3.62525">
        <ele>725.6</ele>
        <time>2021-08-12T07:21:15Z</time>
      </trkpt>
      <trkpt lat="44.17135" lon="3.62529">
        <ele>725.8</ele>
        <time>2021-08-12T07:21:17Z</time>
      </trkpt>
      <trkpt lat="44.17135" lon="3.62534">
        <ele>725.8</ele>
        <time>2021-08-12T07:21:19Z</time>
      </trkpt>
      <trkpt lat="44.17134" lon="3.62539">
        <ele>725.9</ele>
        <time>2021-08-12T07:21:21Z</time>
      </trkpt>
      <trkpt lat="44.17133" lon="3.62543">
        <ele>726.2</ele>
        <time>2021-08-12T07:21:23Z</time>
      </trkpt>
      <trkpt lat="44.17133" lon="3.62548">
        <ele>726.2</ele>
        <time>2021-08-12T07:21:25Z</time>
      </trkpt>
      <trkpt lat="44.17132" lon="3.62552">
        <ele>726.6</ele>
        <time>2021-08-12T07:21:27Z</time>
      </trkpt>
      <trkpt lat="44.17132" lon="3.62557">
        <ele>726.8</ele>
        <time>2021-08-12T07:21:29Z</time>
      </trkpt>
      <trkpt lat="44.17131" lon="3.62562">
        <ele>727.1</ele>
        <time>2021-08-12T07:21:31Z</time>
      </trkpt>
      <trkpt lat="44.1713" lon="3.62566">
        <ele>727.5</ele>
        <time>2021-08-12T07:21:33Z</time>
      </trkpt>
      <trkpt lat="44.17129" lon="3.62571">
        <ele>727.8</ele>
        <time>2021-08-12T07:21:35Z</time>
      </trkpt>
      <trkpt lat="44.17127" lon="3.62575">
        <ele>728.6</ele>
        <time>2021-08-12T07:21:37Z</time>
      </trkpt>
      <trkpt lat="44.17124" lon="3.62578">
        <ele>729.6</ele>
        <time>2021-08-12T07:21:39Z</time>
      </trkpt>
      <trkpt lat="44.17121" lon="3.62581">
        <ele>730.4</ele>
        <time>2021-08-12T07:21:41Z</time>
      </trkpt>
      <trkpt lat="44.17119" lon="3.62585">
        <ele>730.9</ele>
        <time>2021-08-12T07:21:43Z</time>
      </trkpt>
      <trkpt lat="44.17116" lon="3.62587">
        <ele>731.4</ele>
        <time>2021-08-12T07:21:45Z</time>
      </trkpt>
      <trkpt lat="44.17113" lon="3.62589">
        <ele>732</ele>
        <time>2021-08-12T07:21:47Z</time>
      </trkpt>
      <trkpt lat="44.1711" lon="3.62592">
        <ele>732.4</ele>
        <time>2021-08-12T07:21:49Z</time>
      </trkpt>
      <trkpt lat="44.17107" lon="3.62594">
        <ele>732.9</ele>
        <time>2021-08-12T07:21:51Z</time>
      </trkpt>
      <trkpt lat="44.17104" lon="3.62596">
        <ele>733.4</ele>
        <time>2021-08-12T07:21:53Z</time>
      </trkpt>
      <trkpt lat="44.17101" lon="3.62598">
        <ele>733.8</ele>
        <time>2021-08-12T07:21:55Z</time>
      </trkpt>
      <trkpt lat="44.17098" lon="3.626">
        <ele>734.6</ele>
        <time>2021-08-12T07:21:57Z</time>
      </trkpt>
      <trkpt lat="44.17095" lon="3.62603">
        <ele>734.9</ele>
        <time>2021-08-12T07:21:59Z</time>
      </trkpt>
      <trkpt lat="44.17092" lon="3.62605">
        <ele>735.4</ele>
        <time>2021-08-12T07:22:01Z</time>
      </trkpt>
      <trkpt lat="44.17088" lon="3.62607">
        <ele>735.9</ele>
        <time>2021-08-12T07:22:03Z</time>
      </trkpt>
      <trkpt lat="44.17085" lon="3.62609">
        <ele>736.3</ele>
        <time>2021-08-12T07:22:05Z</time>
      </trkpt>
      <trkpt lat="44.17082" lon="3.62612">
        <ele>736.2</ele>
        <time>2021-08-12T07:22:07Z</time>
      </trkpt>
      <trkpt lat="44.17079" lon="3.62614">
        <ele>736.1</ele>
        <time>2021-08-12T07:22:09Z</time>
      </trkpt>
      <trkpt lat="44.17076" lon="3.62616">
        <ele>735.9</ele>
        <time>2021-08-12T07:22:11Z</time>
      </trkpt>
      <trkpt lat="44.17073" lon="3.62618">
        <ele>735.7</ele>
        <time>2021-08-12T07:22:13Z</time>
      </trkpt>
      <trkpt lat="44.1707" lon="3.6262">
        <ele>735.4</ele>
        <time>2021-08-12T07:22:15Z</time>
      </trkpt>
      <trkpt lat="44.17067" lon="3.62622">
        <ele>735.3</ele>
        <time>2021-08-12T07:22:17Z</time>
      </trkpt>
      <trkpt lat="44.17064" lon="3.62624">
        <ele>735.1</ele>
        <time>2021-08-12T07:22:19Z</time>
      </trkpt>
      <trkpt lat="44.1706" lon="3.62625">
        <ele>735</ele>
        <time>2021-08-12T07:22:21Z</time>
      </trkpt>
      <trkpt lat="44.17057" lon="3.62627">
        <ele>735.1</ele>
        <time>2021-08-12T07:22:23Z</time>
      </trkpt>
      <trkpt lat="44.17054" lon="3.62628">
        <ele>735.1</ele>
        <time>2021-08-12T07:22:25Z</time>
      </trkpt>
      <trkpt lat="44.1705" lon="3.62629">
        <ele>735.1</ele>
        <time>2021-08-12T07:22:27Z</time>
      </trkpt>
      <trkpt lat="44.17047" lon="3.6263">
        <ele>735.3</ele>
        <time>2021-08-12T07:22:29Z</time>
      </trkpt>
      <trkpt lat="44.17043" lon="3.62629">
        <ele>735.9</ele>
        <time>2021-08-12T07:22:31Z</time>
      </trkpt>
      <trkpt lat="44.1704" lon="3.6263">
        <ele>736.2</ele>
        <time>2021-08-12T07:22:33Z</time>
      </trkpt>
      <trkpt lat="44.17036" lon="3.6263">
        <ele>736.8</ele>
        <time>2021-08-12T07:22:35Z</time>
      </trkpt>
      <trkpt lat="44.17033" lon="3.62628">
        <ele>737.8</ele>
        <time>2021-08-12T07:22:37Z</time>
      </trkpt>
      <trkpt lat="44.1703" lon="3.62628">
        <ele>738.4</ele>
        <time>2021-08-12T07:22:39Z</time>
      </trkpt>
      <trkpt lat="44.17027" lon="3.62627">
        <ele>739.2</ele>
        <time>2021-08-12T07:22:41Z</time>
      </trkpt>
      <trkpt lat="44.17024" lon="3.62625">
        <ele>740.1</ele>
        <time>2021-08-12T07:22:43Z</time>
      </trkpt>
      <trkpt lat="44.1702" lon="3.62625">
        <ele>740.6</ele>
        <time>2021-08-12T07:22:45Z</time>
      </trkpt>
      <trkpt lat="44.17017" lon="3.62625">
        <ele>741.3</ele>
        <time>2021-08-12T07:22:47Z</time>
      </trkpt>
      <trkpt lat="44.17014" lon="3.62624">
        <ele>741.9</ele>
        <time>2021-08-12T07:22:49Z</time>
      </trkpt>
      <trkpt lat="44.17011" lon="3.62623">
        <ele>742.7</ele>
        <time>2021-08-12T07:22:51Z</time>
      </trkpt>
      <trkpt lat="44.17008" lon="3.62622">
        <ele>743.8</ele>
        <time>2021-08-12T07:22:53Z</time>
      </trkpt>
      <trkpt lat="44.17005" lon="3.62621">
        <ele>744.4</ele>
        <time>2021-08-12T07:22:55Z</time>
      </trkpt>
      <trkpt lat="44.17002" lon="3.62621">
        <ele>745</ele>
        <time>2021-08-12T07:22:57Z</time>
      </trkpt>
      <trkpt lat="44.16998" lon="3.6262">
        <ele>745.4</ele>
        <time>2021-08-12T07:22:59Z</time>
      </trkpt>
      <trkpt lat="44.16995" lon="3.62619">
        <ele>745.5</ele>
        <time>2021-08-12T07:23:01Z</time>
      </trkpt>
      <trkpt lat="44.16991" lon="3.62618">
        <ele>745.5</ele>
        <time>2021-08-12T07:23:03Z</time>
      </trkpt>
      <trkpt lat="44.16989" lon="3.62616">
        <ele>745.7</ele>
        <time>2021-08-12T07:23:05Z</time>
      </trkpt>
      <trkpt lat="44.16985" lon="3.62614">
        <ele>746.1</ele>
        <time>2021-08-12T07:23:07Z</time>
      </trkpt>
      <trkpt lat="44.16982" lon="3.62613">
        <ele>746.3</ele>
        <time>2021-08-12T07:23:09Z</time>
      </trkpt>
      <trkpt lat="44.16978" lon="3.62611">
        <ele>746.8</ele>
        <time>2021-08-12T07:23:11Z</time>
      </trkpt>
      <trkpt lat="44.16975" lon="3.62609">
        <ele>747.3</ele>
        <time>2021-08-12T07:23:13Z</time>
      </trkpt>
      <trkpt lat="44.16972" lon="3.62607">
        <ele>747.5</ele>
        <time>2021-08-12T07:23:15Z</time>
      </trkpt>
      <trkpt lat="44.16969" lon="3.62605">
        <ele>748</ele>
        <time>2021-08-12T07:23:17Z</time>
      </trkpt>
      <trkpt lat="44.16966" lon="3.62603">
        <ele>748.4</ele>
        <time>2021-08-12T07:23:19Z</time>
      </trkpt>
      <trkpt lat="44.16963" lon="3.62601">
        <ele>749.1</ele>
        <time>2021-08-12T07:23:21Z</time>
      </trkpt>
      <trkpt lat="44.16959" lon="3.62599">
        <ele>749.5</ele>
        <time>2021-08-12T07:23:23Z</time>
      </trkpt>
      <trkpt lat="44.16957" lon="3.62597">
        <ele>750</ele>
        <time>2021-08-12T07:23:25Z</time>
      </trkpt>
      <trkpt lat="44.16953" lon="3.62595">
        <ele>750.4</ele>
        <time>2021-08-12T07:23:27Z</time>
      </trkpt>
      <trkpt lat="44.1695" lon="3.62592">
        <ele>751.2</ele>
        <time>2021-08-12T07:23:29Z</time>
      </trkpt>
      <trkpt lat="44.16947" lon="3.6259">
        <ele>751.7</ele>
        <time>2021-08-12T07:23:31Z</time>
      </trkpt>
      <trkpt lat="44.16944" lon="3.62588">
        <ele>752.3</ele>
        <time>2021-08-12T07:23:33Z</time>
      </trkpt>
      <trkpt lat="44.1694" lon="3.62586">
        <ele>752.7</ele>
        <time>2021-08-12T07:23:35Z</time>
      </trkpt>
      <trkpt lat="44.16937" lon="3.62584">
        <ele>753.2</ele>
        <time>2021-08-12T07:23:37Z</time>
      </trkpt>
      <trkpt lat="44.16934" lon="3.62581">
        <ele>753.8</ele>
        <time>2021-08-12T07:23:39Z</time>
      </trkpt>
      <trkpt lat="44.16931" lon="3.62579">
        <ele>754.4</ele>
        <time>2021-08-12T07:23:41Z</time>
      </trkpt>
      <trkpt lat="44.16929" lon="3.62576">
        <ele>755.2</ele>
        <time>2021-08-12T07:23:43Z</time>
      </trkpt>
      <trkpt lat="44.16926" lon="3.62572">
        <ele>756.2</ele>
        <time>2021-08-12T07:23:45Z</time>
      </trkpt>
      <trkpt lat="44.16924" lon="3.6257">
        <ele>756.9</ele>
        <time>2021-08-12T07:23:47Z</time>
      </trkpt>
      <trkpt lat="44.16921" lon="3.62567">
        <ele>757.6</ele>
        <time>2021-08-12T07:23:49Z</time>
      </trkpt>
      <trkpt lat="44.16918" lon="3.62564">
        <ele>758.4</ele>
        <time>2021-08-12T07:23:51Z</time>
      </trkpt>
      <trkpt lat="44.16916" lon="3.62562">
        <ele>759.1</ele>
        <time>2021-08-12T07:23:53Z</time>
      </trkpt>
      <trkpt lat="44.16914" lon="3.62559">
        <ele>759.8</ele>
        <time>2021-08-12T07:23:55Z</time>
      </trkpt>
      <trkpt lat="44.1691" lon="3.62557">
        <ele>759.8</ele>
        <time>2021-08-12T07:23:57Z</time>
      </trkpt>
      <trkpt lat="44.16908" lon="3.62556">
        <ele>759.8</ele>
        <time>2021-08-12T07:23:59Z</time>
      </trkpt>
      <trkpt lat="44.16905" lon="3.62553">
        <ele>760.4</ele>
        <time>2021-08-12T07:24:01Z</time>
      </trkpt>
      <trkpt lat="44.16902" lon="3.62552">
        <ele>760.2</ele>
        <time>2021-08-12T07:24:03Z</time>
      </trkpt>
      <trkpt lat="44.16899" lon="3.6255">
        <ele>760.2</ele>
        <time>2021-08-12T07:24:05Z</time>
      </trkpt>
      <trkpt lat="44.16897" lon="3.62548">
        <ele>760.8</ele>
        <time>2021-08-12T07:24:07Z</time>
      </trkpt>
      <trkpt lat="44.16894" lon="3.62546">
        <ele>761</ele>
        <time>2021-08-12T07:24:09Z</time>
      </trkpt>
      <trkpt lat="44.16891" lon="3.62544">
        <ele>761.1</ele>
        <time>2021-08-12T07:24:11Z</time>
      </trkpt>
      <trkpt lat="44.16888" lon="3.62542">
        <ele>761.5</ele>
        <time>2021-08-12T07:24:13Z</time>
      </trkpt>
      <trkpt lat="44.16885" lon="3.6254">
        <ele>761.4</ele>
        <time>2021-08-12T07:24:15Z</time>
      </trkpt>
      <trkpt lat="44.16882" lon="3.62538">
        <ele>761.9</ele>
        <time>2021-08-12T07:24:17Z</time>
      </trkpt>
      <trkpt lat="44.16879" lon="3.62536">
        <ele>762.1</ele>
        <time>2021-08-12T07:24:19Z</time>
      </trkpt>
      <trkpt lat="44.16876" lon="3.62535">
        <ele>761.6</ele>
        <time>2021-08-12T07:24:21Z</time>
      </trkpt>
      <trkpt lat="44.16873" lon="3.62533">
        <ele>761.9</ele>
        <time>2021-08-12T07:24:23Z</time>
      </trkpt>
      <trkpt lat="44.1687" lon="3.62532">
        <ele>761.9</ele>
        <time>2021-08-12T07:24:25Z</time>
      </trkpt>
      <trkpt lat="44.16867" lon="3.6253">
        <ele>762.2</ele>
        <time>2021-08-12T07:24:27Z</time>
      </trkpt>
      <trkpt lat="44.16864" lon="3.62529">
        <ele>761.7</ele>
        <time>2021-08-12T07:24:29Z</time>
      </trkpt>
      <trkpt lat="44.16861" lon="3.62529">
        <ele>761.1</ele>
        <time>2021-08-12T07:24:31Z</time>
      </trkpt>
      <trkpt lat="44.16857" lon="3.62528">
        <ele>760.9</ele>
        <time>2021-08-12T07:24:33Z</time>
      </trkpt>
      <trkpt lat="44.16854" lon="3.62527">
        <ele>760.6</ele>
        <time>2021-08-12T07:24:35Z</time>
      </trkpt>
      <trkpt lat="44.16851" lon="3.62527">
        <ele>760.1</ele>
        <time>2021-08-12T07:24:37Z</time>
      </trkpt>
      <trkpt lat="44.16848" lon="3.62526">
        <ele>759.9</ele>
        <time>2021-08-12T07:24:39Z</time>
      </trkpt>
      <trkpt lat="44.16845" lon="3.62524">
        <ele>760</ele>
        <time>2021-08-12T07:24:41Z</time>
      </trkpt>
      <trkpt lat="44.16841" lon="3.62523">
        <ele>759.7</ele>
        <time>2021-08-12T07:24:43Z</time>
      </trkpt>
      <trkpt lat="44.16838" lon="3.62521">
        <ele>760</ele>
        <time>2021-08-12T07:24:45Z</time>
      </trkpt>
      <trkpt lat="44.16835" lon="3.62519">
        <ele>760.2</ele>
        <time>2021-08-12T07:24:47Z</time>
      </trkpt>
      <trkpt lat="44.16832" lon="3.62517">
        <ele>760.1</ele>
        <time>2021-08-12T07:24:49Z</time>
      </trkpt>
      <trkpt lat="44.16829" lon="3.62514">
        <ele>760.8</ele>
        <time>2021-08-12T07:24:51Z</time>
      </trkpt>
      <trkpt lat="44.16825" lon="3.62512">
        <ele>761.1</ele>
        <time>2021-08-12T07:24:53Z</time>
      </trkpt>
      <trkpt lat="44.16822" lon="3.62508">
        <ele>762</ele>
        <time>2021-08-12T07:24:55Z</time>
      </trkpt>
      <trkpt lat="44.1682" lon="3.62504">
        <ele>763.1</ele>
        <time>2021-08-12T07:24:57Z</time>
      </trkpt>
      <trkpt lat="44.16818" lon="3.625">
        <ele>764.3</ele>
        <time>2021-08-12T07:24:59Z</time>
      </trkpt>
      <trkpt lat="44.16817" lon="3.62496">
        <ele>765</ele>
        <time>2021-08-12T07:25:01Z</time>
      </trkpt>
      <trkpt lat="44.16815" lon="3.62492">
        <ele>766.1</ele>
        <time>2021-08-12T07:25:03Z</time>
      </trkpt>
      <trkpt lat="44.16814" lon="3.62488">
        <ele>767.1</ele>
        <time>2021-08-12T07:25:05Z</time>
      </trkpt>
      <trkpt lat="44.16812" lon="3.62483">
        <ele>768</ele>
        <time>2021-08-12T07:25:07Z</time>
      </trkpt>
      <trkpt lat="44.16811" lon="3.62479">
        <ele>768.9</ele>
        <time>2021-08-12T07:25:09Z</time>
      </trkpt>
      <trkpt lat="44.16809" lon="3.62475">
        <ele>769.9</ele>
        <time>2021-08-12T07:25:11Z</time>
      </trkpt>
      <trkpt lat="44.16808" lon="3.6247">
        <ele>770.9</ele>
        <time>2021-08-12T07:25:13Z</time>
      </trkpt>
      <trkpt lat="44.16806" lon="3.62466">
        <ele>771.7</ele>
        <time>2021-08-12T07:25:15Z</time>
      </trkpt>
      <trkpt lat="44.16804" lon="3.62462">
        <ele>772.7</ele>
        <time>2021-08-12T07:25:17Z</time>
      </trkpt>
      <trkpt lat="44.16803" lon="3.62457">
        <ele>773.7</ele>
        <time>2021-08-12T07:25:19Z</time>
      </trkpt>
      <trkpt lat="44.16802" lon="3.62452">
        <ele>774.8</ele>
        <time>2021-08-12T07:25:21Z</time>
      </trkpt>
      <trkpt lat="44.168" lon="3.62448">
        <ele>775.6</ele>
        <time>2021-08-12T07:25:23Z</time>
      </trkpt>
      <trkpt lat="44.16799" lon="3.62444">
        <ele>776.5</ele>
        <time>2021-08-12T07:25:25Z</time>
      </trkpt>
      <trkpt lat="44.16798" lon="3.6244">
        <ele>777.3</ele>
        <time>2021-08-12T07:25:27Z</time>
      </trkpt>
      <trkpt lat="44.16797" lon="3.62436">
        <ele>778.2</ele>
        <time>2021-08-12T07:25:29Z</time>
      </trkpt>
      <trkpt lat="44.16796" lon="3.62432">
        <ele>779.2</ele>
        <time>2021-08-12T07:25:31Z</time>
      </trkpt>
      <trkpt lat="44.16795" lon="3.62427">
        <ele>780.4</ele>
        <time>2021-08-12T07:25:33Z</time>
      </trkpt>
      <trkpt lat="44.16794" lon="3.62422">
        <ele>781.6</ele>
        <time>2021-08-12T07:25:35Z</time>
      </trkpt>
      <trkpt lat="44.16793" lon="3.62417">
        <ele>782.7</ele>
        <time>2021-08-12T07:25:37Z</time>
      </trkpt>
      <trkpt lat="44.16792" lon="3.62412">
        <ele>784.2</ele>
        <time>2021-08-12T07:25:39Z</time>
      </trkpt>
      <trkpt lat="44.16791" lon="3.62407">
        <ele>785.4</ele>
        <time>2021-08-12T07:25:41Z</time>
      </trkpt>
      <trkpt lat="44.1679" lon="3.62403">
        <ele>786.4</ele>
        <time>2021-08-12T07:25:43Z</time>
      </trkpt>
      <trkpt lat="44.16789" lon="3.62398">
        <ele>787.7</ele>
        <time>2021-08-12T07:25:45Z</time>
      </trkpt>
      <trkpt lat="44.16787" lon="3.62394">
        <ele>788.7</ele>
        <time>2021-08-12T07:25:47Z</time>
      </trkpt>
      <trkpt lat="44.16785" lon="3.6239">
        <ele>789.6</ele>
        <time>2021-08-12T07:25:49Z</time>
      </trkpt>
      <trkpt lat="44.16782" lon="3.62386">
        <ele>790.1</ele>
        <time>2021-08-12T07:25:51Z</time>
      </trkpt>
      <trkpt lat="44.1678" lon="3.62383">
        <ele>790.5</ele>
        <time>2021-08-12T07:25:53Z</time>
      </trkpt>
      <trkpt lat="44.16777" lon="3.6238">
        <ele>790.9</ele>
        <time>2021-08-12T07:25:55Z</time>
      </trkpt>
      <trkpt lat="44.16774" lon="3.62378">
        <ele>791</ele>
        <time>2021-08-12T07:25:57Z</time>
      </trkpt>
      <trkpt lat="44.16772" lon="3.62376">
        <ele>791.1</ele>
        <time>2021-08-12T07:25:59Z</time>
      </trkpt>
      <trkpt lat="44.16769" lon="3.62375">
        <ele>791</ele>
        <time>2021-08-12T07:26:01Z</time>
      </trkpt>
      <trkpt lat="44.16767" lon="3.62374">
        <ele>790.9</ele>
        <time>2021-08-12T07:26:03Z</time>
      </trkpt>
      <trkpt lat="44.16764" lon="3.62374">
        <ele>790.2</ele>
        <time>2021-08-12T07:26:05Z</time>
      </trkpt>
      <trkpt lat="44.16761" lon="3.62375">
        <ele>789.2</ele>
        <time>2021-08-12T07:26:07Z</time>
      </trkpt>
      <trkpt lat="44.16758" lon="3.62378">
        <ele>787.8</ele>
        <time>2021-08-12T07:26:09Z</time>
      </trkpt>
      <trkpt lat="44.16755" lon="3.6238">
        <ele>786.5</ele>
        <time>2021-08-12T07:26:11Z</time>
      </trkpt>
      <trkpt lat="44.16752" lon="3.62382">
        <ele>785.1</ele>
        <time>2021-08-12T07:26:13Z</time>
      </trkpt>
      <trkpt lat="44.1675" lon="3.62384">
        <ele>783.9</ele>
        <time>2021-08-12T07:26:15Z</time>
      </trkpt>
      <trkpt lat="44.16747" lon="3.62387">
        <ele>783.9</ele>
        <time>2021-08-12T07:26:17Z</time>
      </trkpt>
      <trkpt lat="44.16743" lon="3.62388">
        <ele>784.8</ele>
        <time>2021-08-12T07:26:19Z</time>
      </trkpt>
      <trkpt lat="44.16739" lon="3.6239">
        <ele>785.5</ele>
        <time>2021-08-12T07:26:21Z</time>
      </trkpt>
      <trkpt lat="44.16736" lon="3.62391">
        <ele>786.3</ele>
        <time>2021-08-12T07:26:23Z</time>
      </trkpt>
      <trkpt lat="44.16732" lon="3.62392">
        <ele>786.8</ele>
        <time>2021-08-12T07:26:25Z</time>
      </trkpt>
      <trkpt lat="44.1673" lon="3.62393">
        <ele>787.3</ele>
        <time>2021-08-12T07:26:27Z</time>
      </trkpt>
      <trkpt lat="44.16726" lon="3.62395">
        <ele>788</ele>
        <time>2021-08-12T07:26:29Z</time>
      </trkpt>
      <trkpt lat="44.16723" lon="3.62396">
        <ele>788.5</ele>
        <time>2021-08-12T07:26:31Z</time>
      </trkpt>
      <trkpt lat="44.16721" lon="3.62399">
        <ele>788.5</ele>
        <time>2021-08-12T07:26:33Z</time>
      </trkpt>
      <trkpt lat="44.16719" lon="3.62402">
        <ele>787.9</ele>
        <time>2021-08-12T07:26:35Z</time>
      </trkpt>
      <trkpt lat="44.16718" lon="3.62406">
        <ele>787.2</ele>
        <time>2021-08-12T07:26:37Z</time>
      </trkpt>
      <trkpt lat="44.16717" lon="3.6241">
        <ele>786.2</ele>
        <time>2021-08-12T07:26:39Z</time>
      </trkpt>
      <trkpt lat="44.16716" lon="3.62414">
        <ele>785.1</ele>
        <time>2021-08-12T07:26:41Z</time>
      </trkpt>
      <trkpt lat="44.16716" lon="3.62418">
        <ele>784.1</ele>
        <time>2021-08-12T07:26:43Z</time>
      </trkpt>
      <trkpt lat="44.16715" lon="3.62423">
        <ele>783.4</ele>
        <time>2021-08-12T07:26:45Z</time>
      </trkpt>
      <trkpt lat="44.16713" lon="3.62427">
        <ele>783.3</ele>
        <time>2021-08-12T07:26:47Z</time>
      </trkpt>
      <trkpt lat="44.16712" lon="3.62431">
        <ele>782.8</ele>
        <time>2021-08-12T07:26:49Z</time>
      </trkpt>
      <trkpt lat="44.1671" lon="3.62435">
        <ele>782.6</ele>
        <time>2021-08-12T07:26:51Z</time>
      </trkpt>
      <trkpt lat="44.16708" lon="3.62438">
        <ele>782.5</ele>
        <time>2021-08-12T07:26:53Z</time>
      </trkpt>
      <trkpt lat="44.16706" lon="3.62442">
        <ele>782.6</ele>
        <time>2021-08-12T07:26:55Z</time>
      </trkpt>
      <trkpt lat="44.16704" lon="3.62445">
        <ele>782.6</ele>
        <time>2021-08-12T07:26:57Z</time>
      </trkpt>
      <trkpt lat="44.16702" lon="3.62449">
        <ele>782.5</ele>
        <time>2021-08-12T07:26:59Z</time>
      </trkpt>
      <trkpt lat="44.167" lon="3.62452">
        <ele>782.7</ele>
        <time>2021-08-12T07:27:01Z</time>
      </trkpt>
      <trkpt lat="44.16698" lon="3.62456">
        <ele>782.8</ele>
        <time>2021-08-12T07:27:03Z</time>
      </trkpt>
      <trkpt lat="44.16696" lon="3.62459">
        <ele>782.8</ele>
        <time>2021-08-12T07:27:05Z</time>
      </trkpt>
      <trkpt lat="44.16694" lon="3.62462">
        <ele>782.9</ele>
        <time>2021-08-12T07:27:07Z</time>
      </trkpt>
      <trkpt lat="44.16691" lon="3.62465">
        <ele>783.3</ele>
        <time>2021-08-12T07:27:09Z</time>
      </trkpt>
      <trkpt lat="44.16689" lon="3.62469">
        <ele>783.7</ele>
        <time>2021-08-12T07:27:11Z</time>
      </trkpt>
      <trkpt lat="44.16686" lon="3.62472">
        <ele>784.3</ele>
        <time>2021-08-12T07:27:13Z</time>
      </trkpt>
      <trkpt lat="44.16683" lon="3.62475">
        <ele>784.6</ele>
        <time>2021-08-12T07:27:15Z</time>
      </trkpt>
      <trkpt lat="44.1668" lon="3.62478">
        <ele>785.3</ele>
        <time>2021-08-12T07:27:17Z</time>
      </trkpt>
      <trkpt lat="44.16677" lon="3.62481">
        <ele>785.9</ele>
        <time>2021-08-12T07:27:19Z</time>
      </trkpt>
      <trkpt lat="44.16675" lon="3.62484">
        <ele>786.4</ele>
        <time>2021-08-12T07:27:21Z</time>
      </trkpt>
      <trkpt lat="44.16672" lon="3.62487">
        <ele>786.9</ele>
        <time>2021-08-12T07:27:23Z</time>
      </trkpt>
      <trkpt lat="44.1667" lon="3.6249">
        <ele>787.5</ele>
        <time>2021-08-12T07:27:25Z</time>
      </trkpt>
      <trkpt lat="44.16667" lon="3.62492">
        <ele>788.1</ele>
        <time>2021-08-12T07:27:27Z</time>
      </trkpt>
      <trkpt lat="44.16665" lon="3.62496">
        <ele>788.4</ele>
        <time>2021-08-12T07:27:29Z</time>
      </trkpt>
      <trkpt lat="44.16662" lon="3.62499">
        <ele>788.6</ele>
        <time>2021-08-12T07:27:31Z</time>
      </trkpt>
      <trkpt lat="44.1666" lon="3.62502">
        <ele>788.6</ele>
        <time>2021-08-12T07:27:33Z</time>
      </trkpt>
      <trkpt lat="44.16657" lon="3.62506">
        <ele>788.4</ele>
        <time>2021-08-12T07:27:35Z</time>
      </trkpt>
      <trkpt lat="44.16655" lon="3.62508">
        <ele>788.3</ele>
        <time>2021-08-12T07:27:37Z</time>
      </trkpt>
      <trkpt lat="44.16652" lon="3.62511">
        <ele>788.4</ele>
        <time>2021-08-12T07:27:39Z</time>
      </trkpt>
      <trkpt lat="44.16649" lon="3.62515">
        <ele>788.1</ele>
        <time>2021-08-12T07:27:41Z</time>
      </trkpt>
      <trkpt lat="44.16647" lon="3.62517">
        <ele>788.1</ele>
        <time>2021-08-12T07:27:43Z</time>
      </trkpt>
      <trkpt lat="44.16644" lon="3.6252">
        <ele>788</ele>
        <time>2021-08-12T07:27:45Z</time>
      </trkpt>
      <trkpt lat="44.16641" lon="3.62524">
        <ele>787.9</ele>
        <time>2021-08-12T07:27:47Z</time>
      </trkpt>
      <trkpt lat="44.16638" lon="3.62527">
        <ele>787.9</ele>
        <time>2021-08-12T07:27:49Z</time>
      </trkpt>
      <trkpt lat="44.16635" lon="3.62529">
        <ele>788.2</ele>
        <time>2021-08-12T07:27:51Z</time>
      </trkpt>
      <trkpt lat="44.16632" lon="3.62532">
        <ele>788.2</ele>
        <time>2021-08-12T07:27:53Z</time>
      </trkpt>
      <trkpt lat="44.1663" lon="3.62534">
        <ele>788.2</ele>
        <time>2021-08-12T07:27:55Z</time>
      </trkpt>
      <trkpt lat="44.16627" lon="3.62537">
        <ele>788.3</ele>
        <time>2021-08-12T07:27:57Z</time>
      </trkpt>
      <trkpt lat="44.16624" lon="3.62538">
        <ele>788.9</ele>
        <time>2021-08-12T07:27:59Z</time>
      </trkpt>
      <trkpt lat="44.16621" lon="3.6254">
        <ele>789.2</ele>
        <time>2021-08-12T07:28:01Z</time>
      </trkpt>
      <trkpt lat="44.16618" lon="3.62541">
        <ele>789.9</ele>
        <time>2021-08-12T07:28:03Z</time>
      </trkpt>
      <trkpt lat="44.16615" lon="3.62542">
        <ele>790.3</ele>
        <time>2021-08-12T07:28:05Z</time>
      </trkpt>
      <trkpt lat="44.16612" lon="3.62543">
        <ele>791.2</ele>
        <time>2021-08-12T07:28:07Z</time>
      </trkpt>
      <trkpt lat="44.16609" lon="3.62544">
        <ele>791.8</ele>
        <time>2021-08-12T07:28:09Z</time>
      </trkpt>
      <trkpt lat="44.16606" lon="3.62546">
        <ele>792.3</ele>
        <time>2021-08-12T07:28:11Z</time>
      </trkpt>
      <trkpt lat="44.16603" lon="3.62548">
        <ele>792.5</ele>
        <time>2021-08-12T07:28:13Z</time>
      </trkpt>
      <trkpt lat="44.16599" lon="3.62548">
        <ele>793.4</ele>
        <time>2021-08-12T07:28:15Z</time>
      </trkpt>
      <trkpt lat="44.16596" lon="3.62549">
        <ele>794</ele>
        <time>2021-08-12T07:28:17Z</time>
      </trkpt>
      <trkpt lat="44.16593" lon="3.6255">
        <ele>794.8</ele>
        <time>2021-08-12T07:28:19Z</time>
      </trkpt>
      <trkpt lat="44.16589" lon="3.62552">
        <ele>795.4</ele>
        <time>2021-08-12T07:28:21Z</time>
      </trkpt>
      <trkpt lat="44.16586" lon="3.62554">
        <ele>795.8</ele>
        <time>2021-08-12T07:28:23Z</time>
      </trkpt>
      <trkpt lat="44.16583" lon="3.62555">
        <ele>796.2</ele>
        <time>2021-08-12T07:28:25Z</time>
      </trkpt>
      <trkpt lat="44.16579" lon="3.62557">
        <ele>795.9</ele>
        <time>2021-08-12T07:28:27Z</time>
      </trkpt>
      <trkpt lat="44.16577" lon="3.62558">
        <ele>795.8</ele>
        <time>2021-08-12T07:28:29Z</time>
      </trkpt>
      <trkpt lat="44.16574" lon="3.6256">
        <ele>795.6</ele>
        <time>2021-08-12T07:28:31Z</time>
      </trkpt>
      <trkpt lat="44.16571" lon="3.62561">
        <ele>795.5</ele>
        <time>2021-08-12T07:28:33Z</time>
      </trkpt>
      <trkpt lat="44.16568" lon="3.62563">
        <ele>795.2</ele>
        <time>2021-08-12T07:28:35Z</time>
      </trkpt>
      <trkpt lat="44.16564" lon="3.62565">
        <ele>795</ele>
        <time>2021-08-12T07:28:37Z</time>
      </trkpt>
      <trkpt lat="44.16561" lon="3.62566">
        <ele>794.9</ele>
        <time>2021-08-12T07:28:39Z</time>
      </trkpt>
      <trkpt lat="44.16558" lon="3.62567">
        <ele>794.8</ele>
        <time>2021-08-12T07:28:41Z</time>
      </trkpt>
      <trkpt lat="44.16555" lon="3.62568">
        <ele>794.8</ele>
        <time>2021-08-12T07:28:43Z</time>
      </trkpt>
      <trkpt lat="44.16551" lon="3.6257">
        <ele>794.7</ele>
        <time>2021-08-12T07:28:45Z</time>
      </trkpt>
      <trkpt lat="44.16548" lon="3.62571">
        <ele>794.7</ele>
        <time>2021-08-12T07:28:47Z</time>
      </trkpt>
      <trkpt lat="44.16545" lon="3.62571">
        <ele>795</ele>
        <time>2021-08-12T07:28:49Z</time>
      </trkpt>
      <trkpt lat="44.16541" lon="3.62572">
        <ele>795</ele>
        <time>2021-08-12T07:28:51Z</time>
      </trkpt>
      <trkpt lat="44.16538" lon="3.62572">
        <ele>795.3</ele>
        <time>2021-08-12T07:28:53Z</time>
      </trkpt>
      <trkpt lat="44.16535" lon="3.62572">
        <ele>795.7</ele>
        <time>2021-08-12T07:28:55Z</time>
      </trkpt>
      <trkpt lat="44.16532" lon="3.62571">
        <ele>796.4</ele>
        <time>2021-08-12T07:28:57Z</time>
      </trkpt>
      <trkpt lat="44.16528" lon="3.62571">
        <ele>796.9</ele>
        <time>2021-08-12T07:28:59Z</time>
      </trkpt>
      <trkpt lat="44.16525" lon="3.62571">
        <ele>797</ele>
        <time>2021-08-12T07:29:01Z</time>
      </trkpt>
      <trkpt lat="44.16521" lon="3.62571">
        <ele>797.3</ele>
        <time>2021-08-12T07:29:03Z</time>
      </trkpt>
      <trkpt lat="44.16518" lon="3.62571">
        <ele>798</ele>
        <time>2021-08-12T07:29:05Z</time>
      </trkpt>
      <trkpt lat="44.16514" lon="3.62571">
        <ele>798.4</ele>
        <time>2021-08-12T07:29:07Z</time>
      </trkpt>
      <trkpt lat="44.1651" lon="3.62571">
        <ele>798.6</ele>
        <time>2021-08-12T07:29:09Z</time>
      </trkpt>
      <trkpt lat="44.16506" lon="3.62572">
        <ele>798.7</ele>
        <time>2021-08-12T07:29:11Z</time>
      </trkpt>
      <trkpt lat="44.16503" lon="3.62573">
        <ele>798.7</ele>
        <time>2021-08-12T07:29:13Z</time>
      </trkpt>
      <trkpt lat="44.16499" lon="3.62575">
        <ele>798.6</ele>
        <time>2021-08-12T07:29:15Z</time>
      </trkpt>
      <trkpt lat="44.16496" lon="3.62576">
        <ele>798.5</ele>
        <time>2021-08-12T07:29:17Z</time>
      </trkpt>
      <trkpt lat="44.16493" lon="3.62578">
        <ele>798.1</ele>
        <time>2021-08-12T07:29:19Z</time>
      </trkpt>
      <trkpt lat="44.1649" lon="3.6258">
        <ele>797.9</ele>
        <time>2021-08-12T07:29:21Z</time>
      </trkpt>
      <trkpt lat="44.16486" lon="3.62582">
        <ele>797.6</ele>
        <time>2021-08-12T07:29:23Z</time>
      </trkpt>
      <trkpt lat="44.16483" lon="3.62583">
        <ele>797.4</ele>
        <time>2021-08-12T07:29:25Z</time>
      </trkpt>
      <trkpt lat="44.1648" lon="3.62585">
        <ele>797.3</ele>
        <time>2021-08-12T07:29:27Z</time>
      </trkpt>
      <trkpt lat="44.16476" lon="3.62585">
        <ele>797.5</ele>
        <time>2021-08-12T07:29:29Z</time>
      </trkpt>
      <trkpt lat="44.16473" lon="3.62585">
        <ele>797.7</ele>
        <time>2021-08-12T07:29:31Z</time>
      </trkpt>
      <trkpt lat="44.1647" lon="3.62584">
        <ele>798.4</ele>
        <time>2021-08-12T07:29:33Z</time>
      </trkpt>
      <trkpt lat="44.16468" lon="3.62582">
        <ele>798.9</ele>
        <time>2021-08-12T07:29:35Z</time>
      </trkpt>
      <trkpt lat="44.16467" lon="3.62582">
        <ele>799.2</ele>
        <time>2021-08-12T07:29:37Z</time>
      </trkpt>
      <trkpt lat="44.16467" lon="3.62582">
        <ele>799.2</ele>
        <time>2021-08-12T07:29:39Z</time>
      </trkpt>
      <trkpt lat="44.16467" lon="3.62581">
        <ele>799.3</ele>
        <time>2021-08-12T07:29:41Z</time>
      </trkpt>
      <trkpt lat="44.16467" lon="3.62581">
        <ele>799.3</ele>
        <time>2021-08-12T07:29:43Z</time>
      </trkpt>
      <trkpt lat="44.16523" lon="3.62539">
        <ele>807.2</ele>
        <time>2021-08-12T07:47:47Z</time>
      </trkpt>
      <trkpt lat="44.16526" lon="3.62536">
        <ele>807.8</ele>
        <time>2021-08-12T07:47:49Z</time>
      </trkpt>
      <trkpt lat="44.16529" lon="3.62534">
        <ele>808.1</ele>
        <time>2021-08-12T07:47:51Z</time>
      </trkpt>
      <trkpt lat="44.16533" lon="3.62532">
        <ele>808.4</ele>
        <time>2021-08-12T07:47:53Z</time>
      </trkpt>
      <trkpt lat="44.16535" lon="3.6253">
        <ele>808.8</ele>
        <time>2021-08-12T07:47:55Z</time>
      </trkpt>
      <trkpt lat="44.16538" lon="3.62528">
        <ele>809.1</ele>
        <time>2021-08-12T07:47:57Z</time>
      </trkpt>
      <trkpt lat="44.16542" lon="3.62526">
        <ele>809.5</ele>
        <time>2021-08-12T07:47:59Z</time>
      </trkpt>
      <trkpt lat="44.16545" lon="3.62523">
        <ele>809.9</ele>
        <time>2021-08-12T07:48:01Z</time>
      </trkpt>
      <trkpt lat="44.16549" lon="3.62521">
        <ele>810.3</ele>
        <time>2021-08-12T07:48:03Z</time>
      </trkpt>
      <trkpt lat="44.16553" lon="3.62518">
        <ele>810.8</ele>
        <time>2021-08-12T07:48:05Z</time>
      </trkpt>
      <trkpt lat="44.16557" lon="3.62515">
        <ele>811.4</ele>
        <time>2021-08-12T07:48:07Z</time>
      </trkpt>
      <trkpt lat="44.1656" lon="3.62513">
        <ele>811.8</ele>
        <time>2021-08-12T07:48:09Z</time>
      </trkpt>
      <trkpt lat="44.16564" lon="3.62511">
        <ele>812.1</ele>
        <time>2021-08-12T07:48:11Z</time>
      </trkpt>
      <trkpt lat="44.16567" lon="3.62509">
        <ele>812.6</ele>
        <time>2021-08-12T07:48:13Z</time>
      </trkpt>
      <trkpt lat="44.1657" lon="3.62507">
        <ele>812.9</ele>
        <time>2021-08-12T07:48:15Z</time>
      </trkpt>
      <trkpt lat="44.16575" lon="3.62504">
        <ele>813.3</ele>
        <time>2021-08-12T07:48:17Z</time>
      </trkpt>
      <trkpt lat="44.16578" lon="3.62501">
        <ele>814</ele>
        <time>2021-08-12T07:48:19Z</time>
      </trkpt>
      <trkpt lat="44.16582" lon="3.62498">
        <ele>814.5</ele>
        <time>2021-08-12T07:48:21Z</time>
      </trkpt>
      <trkpt lat="44.16586" lon="3.62496">
        <ele>814.4</ele>
        <time>2021-08-12T07:48:23Z</time>
      </trkpt>
      <trkpt lat="44.16589" lon="3.62492">
        <ele>814.2</ele>
        <time>2021-08-12T07:48:25Z</time>
      </trkpt>
      <trkpt lat="44.16593" lon="3.62489">
        <ele>813.7</ele>
        <time>2021-08-12T07:48:27Z</time>
      </trkpt>
      <trkpt lat="44.16596" lon="3.62485">
        <ele>813.5</ele>
        <time>2021-08-12T07:48:29Z</time>
      </trkpt>
      <trkpt lat="44.16599" lon="3.62482">
        <ele>813.1</ele>
        <time>2021-08-12T07:48:31Z</time>
      </trkpt>
      <trkpt lat="44.16603" lon="3.62479">
        <ele>812.8</ele>
        <time>2021-08-12T07:48:33Z</time>
      </trkpt>
      <trkpt lat="44.16606" lon="3.62475">
        <ele>812.5</ele>
        <time>2021-08-12T07:48:35Z</time>
      </trkpt>
      <trkpt lat="44.16609" lon="3.62471">
        <ele>812.5</ele>
        <time>2021-08-12T07:48:37Z</time>
      </trkpt>
      <trkpt lat="44.16611" lon="3.62467">
        <ele>812.4</ele>
        <time>2021-08-12T07:48:39Z</time>
      </trkpt>
      <trkpt lat="44.16614" lon="3.62464">
        <ele>812.4</ele>
        <time>2021-08-12T07:48:41Z</time>
      </trkpt>
      <trkpt lat="44.16616" lon="3.62459">
        <ele>812.6</ele>
        <time>2021-08-12T07:48:43Z</time>
      </trkpt>
      <trkpt lat="44.16618" lon="3.62454">
        <ele>812.9</ele>
        <time>2021-08-12T07:48:45Z</time>
      </trkpt>
      <trkpt lat="44.16621" lon="3.62449">
        <ele>813</ele>
        <time>2021-08-12T07:48:47Z</time>
      </trkpt>
      <trkpt lat="44.16622" lon="3.62444">
        <ele>813.6</ele>
        <time>2021-08-12T07:48:49Z</time>
      </trkpt>
      <trkpt lat="44.16625" lon="3.6244">
        <ele>813.7</ele>
        <time>2021-08-12T07:48:51Z</time>
      </trkpt>
      <trkpt lat="44.16627" lon="3.62435">
        <ele>813.6</ele>
        <time>2021-08-12T07:48:53Z</time>
      </trkpt>
      <trkpt lat="44.16629" lon="3.6243">
        <ele>813.9</ele>
        <time>2021-08-12T07:48:55Z</time>
      </trkpt>
      <trkpt lat="44.16632" lon="3.62426">
        <ele>813.9</ele>
        <time>2021-08-12T07:48:57Z</time>
      </trkpt>
      <trkpt lat="44.16634" lon="3.62421">
        <ele>814</ele>
        <time>2021-08-12T07:48:59Z</time>
      </trkpt>
      <trkpt lat="44.16636" lon="3.62416">
        <ele>814.3</ele>
        <time>2021-08-12T07:49:01Z</time>
      </trkpt>
      <trkpt lat="44.16638" lon="3.62411">
        <ele>814.6</ele>
        <time>2021-08-12T07:49:03Z</time>
      </trkpt>
      <trkpt lat="44.16639" lon="3.62406">
        <ele>815.2</ele>
        <time>2021-08-12T07:49:05Z</time>
      </trkpt>
      <trkpt lat="44.16642" lon="3.62402">
        <ele>815.4</ele>
        <time>2021-08-12T07:49:07Z</time>
      </trkpt>
      <trkpt lat="44.16644" lon="3.62397">
        <ele>815.7</ele>
        <time>2021-08-12T07:49:09Z</time>
      </trkpt>
      <trkpt lat="44.16646" lon="3.62392">
        <ele>816.2</ele>
        <time>2021-08-12T07:49:11Z</time>
      </trkpt>
      <trkpt lat="44.16648" lon="3.62387">
        <ele>816.8</ele>
        <time>2021-08-12T07:49:13Z</time>
      </trkpt>
      <trkpt lat="44.1665" lon="3.62382">
        <ele>817.3</ele>
        <time>2021-08-12T07:49:15Z</time>
      </trkpt>
      <trkpt lat="44.16652" lon="3.62376">
        <ele>818.1</ele>
        <time>2021-08-12T07:49:17Z</time>
      </trkpt>
      <trkpt lat="44.16654" lon="3.62371">
        <ele>818.7</ele>
        <time>2021-08-12T07:49:19Z</time>
      </trkpt>
      <trkpt lat="44.16655" lon="3.62366">
        <ele>819.5</ele>
        <time>2021-08-12T07:49:21Z</time>
      </trkpt>
      <trkpt lat="44.16657" lon="3.6236">
        <ele>820.3</ele>
        <time>2021-08-12T07:49:23Z</time>
      </trkpt>
      <trkpt lat="44.16658" lon="3.62354">
        <ele>821.6</ele>
        <time>2021-08-12T07:49:25Z</time>
      </trkpt>
      <trkpt lat="44.16659" lon="3.62349">
        <ele>822.5</ele>
        <time>2021-08-12T07:49:27Z</time>
      </trkpt>
      <trkpt lat="44.1666" lon="3.62343">
        <ele>824</ele>
        <time>2021-08-12T07:49:29Z</time>
      </trkpt>
      <trkpt lat="44.16659" lon="3.62337">
        <ele>825.7</ele>
        <time>2021-08-12T07:49:31Z</time>
      </trkpt>
      <trkpt lat="44.16659" lon="3.62332">
        <ele>827.4</ele>
        <time>2021-08-12T07:49:33Z</time>
      </trkpt>
      <trkpt lat="44.16659" lon="3.62326">
        <ele>829.1</ele>
        <time>2021-08-12T07:49:35Z</time>
      </trkpt>
      <trkpt lat="44.1666" lon="3.6232">
        <ele>830.6</ele>
        <time>2021-08-12T07:49:37Z</time>
      </trkpt>
      <trkpt lat="44.16661" lon="3.62314">
        <ele>831.9</ele>
        <time>2021-08-12T07:49:39Z</time>
      </trkpt>
      <trkpt lat="44.16663" lon="3.62309">
        <ele>832.9</ele>
        <time>2021-08-12T07:49:41Z</time>
      </trkpt>
      <trkpt lat="44.16666" lon="3.62305">
        <ele>833.1</ele>
        <time>2021-08-12T07:49:43Z</time>
      </trkpt>
      <trkpt lat="44.1667" lon="3.62301">
        <ele>833.2</ele>
        <time>2021-08-12T07:49:45Z</time>
      </trkpt>
      <trkpt lat="44.16674" lon="3.62299">
        <ele>832.7</ele>
        <time>2021-08-12T07:49:47Z</time>
      </trkpt>
      <trkpt lat="44.16678" lon="3.62298">
        <ele>832</ele>
        <time>2021-08-12T07:49:49Z</time>
      </trkpt>
      <trkpt lat="44.16682" lon="3.62298">
        <ele>831</ele>
        <time>2021-08-12T07:49:51Z</time>
      </trkpt>
      <trkpt lat="44.16687" lon="3.62298">
        <ele>829.9</ele>
        <time>2021-08-12T07:49:53Z</time>
      </trkpt>
      <trkpt lat="44.16691" lon="3.62297">
        <ele>829.2</ele>
        <time>2021-08-12T07:49:55Z</time>
      </trkpt>
      <trkpt lat="44.16695" lon="3.62296">
        <ele>828.4</ele>
        <time>2021-08-12T07:49:57Z</time>
      </trkpt>
      <trkpt lat="44.16699" lon="3.62292">
        <ele>828.5</ele>
        <time>2021-08-12T07:49:59Z</time>
      </trkpt>
      <trkpt lat="44.16703" lon="3.62289">
        <ele>828.6</ele>
        <time>2021-08-12T07:50:01Z</time>
      </trkpt>
      <trkpt lat="44.16707" lon="3.62284">
        <ele>829.1</ele>
        <time>2021-08-12T07:50:03Z</time>
      </trkpt>
      <trkpt lat="44.16711" lon="3.6228">
        <ele>829.5</ele>
        <time>2021-08-12T07:50:05Z</time>
      </trkpt>
      <trkpt lat="44.16714" lon="3.62275">
        <ele>830.4</ele>
        <time>2021-08-12T07:50:07Z</time>
      </trkpt>
      <trkpt lat="44.16718" lon="3.62269">
        <ele>831.3</ele>
        <time>2021-08-12T07:50:09Z</time>
      </trkpt>
      <trkpt lat="44.16721" lon="3.62264">
        <ele>832.1</ele>
        <time>2021-08-12T07:50:11Z</time>
      </trkpt>
      <trkpt lat="44.16724" lon="3.62259">
        <ele>833</ele>
        <time>2021-08-12T07:50:13Z</time>
      </trkpt>
      <trkpt lat="44.16727" lon="3.62255">
        <ele>834.1</ele>
        <time>2021-08-12T07:50:15Z</time>
      </trkpt>
      <trkpt lat="44.16729" lon="3.62249">
        <ele>835.2</ele>
        <time>2021-08-12T07:50:17Z</time>
      </trkpt>
      <trkpt lat="44.16732" lon="3.62244">
        <ele>836.1</ele>
        <time>2021-08-12T07:50:19Z</time>
      </trkpt>
      <trkpt lat="44.16736" lon="3.62239">
        <ele>836.7</ele>
        <time>2021-08-12T07:50:21Z</time>
      </trkpt>
      <trkpt lat="44.16739" lon="3.62235">
        <ele>837.2</ele>
        <time>2021-08-12T07:50:23Z</time>
      </trkpt>
      <trkpt lat="44.16742" lon="3.6223">
        <ele>837.9</ele>
        <time>2021-08-12T07:50:25Z</time>
      </trkpt>
      <trkpt lat="44.16746" lon="3.62225">
        <ele>838.7</ele>
        <time>2021-08-12T07:50:27Z</time>
      </trkpt>
      <trkpt lat="44.16749" lon="3.62222">
        <ele>838.9</ele>
        <time>2021-08-12T07:50:29Z</time>
      </trkpt>
      <trkpt lat="44.16754" lon="3.6222">
        <ele>839.6</ele>
        <time>2021-08-12T07:50:31Z</time>
      </trkpt>
      <trkpt lat="44.16759" lon="3.6222">
        <ele>840</ele>
        <time>2021-08-12T07:50:33Z</time>
      </trkpt>
      <trkpt lat="44.16763" lon="3.62222">
        <ele>839.5</ele>
        <time>2021-08-12T07:50:35Z</time>
      </trkpt>
      <trkpt lat="44.16767" lon="3.62224">
        <ele>839.1</ele>
        <time>2021-08-12T07:50:37Z</time>
      </trkpt>
      <trkpt lat="44.16771" lon="3.62228">
        <ele>838.2</ele>
        <time>2021-08-12T07:50:39Z</time>
      </trkpt>
      <trkpt lat="44.16774" lon="3.62233">
        <ele>837.2</ele>
        <time>2021-08-12T07:50:41Z</time>
      </trkpt>
      <trkpt lat="44.16778" lon="3.62237">
        <ele>836.1</ele>
        <time>2021-08-12T07:50:43Z</time>
      </trkpt>
      <trkpt lat="44.16781" lon="3.62242">
        <ele>835.1</ele>
        <time>2021-08-12T07:50:45Z</time>
      </trkpt>
      <trkpt lat="44.16784" lon="3.62248">
        <ele>833.9</ele>
        <time>2021-08-12T07:50:47Z</time>
      </trkpt>
      <trkpt lat="44.16787" lon="3.62253">
        <ele>832.7</ele>
        <time>2021-08-12T07:50:49Z</time>
      </trkpt>
      <trkpt lat="44.16789" lon="3.62257">
        <ele>831.7</ele>
        <time>2021-08-12T07:50:51Z</time>
      </trkpt>
      <trkpt lat="44.16793" lon="3.6226">
        <ele>831.1</ele>
        <time>2021-08-12T07:50:53Z</time>
      </trkpt>
      <trkpt lat="44.16796" lon="3.62264">
        <ele>830.2</ele>
        <time>2021-08-12T07:50:55Z</time>
      </trkpt>
      <trkpt lat="44.16799" lon="3.62267">
        <ele>829.7</ele>
        <time>2021-08-12T07:50:57Z</time>
      </trkpt>
      <trkpt lat="44.16803" lon="3.6227">
        <ele>829.4</ele>
        <time>2021-08-12T07:50:59Z</time>
      </trkpt>
      <trkpt lat="44.16807" lon="3.62272">
        <ele>829.1</ele>
        <time>2021-08-12T07:51:01Z</time>
      </trkpt>
      <trkpt lat="44.1681" lon="3.62275">
        <ele>828.9</ele>
        <time>2021-08-12T07:51:03Z</time>
      </trkpt>
      <trkpt lat="44.16814" lon="3.62276">
        <ele>828.9</ele>
        <time>2021-08-12T07:51:05Z</time>
      </trkpt>
      <trkpt lat="44.16818" lon="3.62279">
        <ele>828.6</ele>
        <time>2021-08-12T07:51:07Z</time>
      </trkpt>
      <trkpt lat="44.16822" lon="3.62281">
        <ele>828.6</ele>
        <time>2021-08-12T07:51:09Z</time>
      </trkpt>
      <trkpt lat="44.16826" lon="3.62285">
        <ele>828.1</ele>
        <time>2021-08-12T07:51:11Z</time>
      </trkpt>
      <trkpt lat="44.1683" lon="3.62288">
        <ele>828</ele>
        <time>2021-08-12T07:51:13Z</time>
      </trkpt>
      <trkpt lat="44.16834" lon="3.62291">
        <ele>827.7</ele>
        <time>2021-08-12T07:51:15Z</time>
      </trkpt>
      <trkpt lat="44.16838" lon="3.62293">
        <ele>826.7</ele>
        <time>2021-08-12T07:51:17Z</time>
      </trkpt>
      <trkpt lat="44.16841" lon="3.62296">
        <ele>825.8</ele>
        <time>2021-08-12T07:51:19Z</time>
      </trkpt>
      <trkpt lat="44.16846" lon="3.62298">
        <ele>824.9</ele>
        <time>2021-08-12T07:51:21Z</time>
      </trkpt>
      <trkpt lat="44.1685" lon="3.62298">
        <ele>824.6</ele>
        <time>2021-08-12T07:51:23Z</time>
      </trkpt>
      <trkpt lat="44.16854" lon="3.62297">
        <ele>824.4</ele>
        <time>2021-08-12T07:51:25Z</time>
      </trkpt>
      <trkpt lat="44.16859" lon="3.62296">
        <ele>824.2</ele>
        <time>2021-08-12T07:51:27Z</time>
      </trkpt>
      <trkpt lat="44.16863" lon="3.62293">
        <ele>824.5</ele>
        <time>2021-08-12T07:51:29Z</time>
      </trkpt>
      <trkpt lat="44.16867" lon="3.62289">
        <ele>824.7</ele>
        <time>2021-08-12T07:51:31Z</time>
      </trkpt>
      <trkpt lat="44.16869" lon="3.62285">
        <ele>825.3</ele>
        <time>2021-08-12T07:51:33Z</time>
      </trkpt>
      <trkpt lat="44.16873" lon="3.6228">
        <ele>825.8</ele>
        <time>2021-08-12T07:51:35Z</time>
      </trkpt>
      <trkpt lat="44.16875" lon="3.62274">
        <ele>826.4</ele>
        <time>2021-08-12T07:51:37Z</time>
      </trkpt>
      <trkpt lat="44.16877" lon="3.62268">
        <ele>827.1</ele>
        <time>2021-08-12T07:51:39Z</time>
      </trkpt>
      <trkpt lat="44.16879" lon="3.62262">
        <ele>827.9</ele>
        <time>2021-08-12T07:51:41Z</time>
      </trkpt>
      <trkpt lat="44.1688" lon="3.62256">
        <ele>828.6</ele>
        <time>2021-08-12T07:51:43Z</time>
      </trkpt>
      <trkpt lat="44.16882" lon="3.6225">
        <ele>829.3</ele>
        <time>2021-08-12T07:51:45Z</time>
      </trkpt>
      <trkpt lat="44.16882" lon="3.62244">
        <ele>830</ele>
        <time>2021-08-12T07:51:47Z</time>
      </trkpt>
      <trkpt lat="44.16883" lon="3.62238">
        <ele>830.5</ele>
        <time>2021-08-12T07:51:49Z</time>
      </trkpt>
      <trkpt lat="44.16884" lon="3.62232">
        <ele>831.1</ele>
        <time>2021-08-12T07:51:51Z</time>
      </trkpt>
      <trkpt lat="44.16884" lon="3.62226">
        <ele>831.6</ele>
        <time>2021-08-12T07:51:53Z</time>
      </trkpt>
      <trkpt lat="44.16885" lon="3.62221">
        <ele>832.1</ele>
        <time>2021-08-12T07:51:55Z</time>
      </trkpt>
      <trkpt lat="44.16886" lon="3.62215">
        <ele>832.6</ele>
        <time>2021-08-12T07:51:57Z</time>
      </trkpt>
      <trkpt lat="44.16886" lon="3.62209">
        <ele>833</ele>
        <time>2021-08-12T07:51:59Z</time>
      </trkpt>
      <trkpt lat="44.16887" lon="3.62203">
        <ele>833.6</ele>
        <time>2021-08-12T07:52:01Z</time>
      </trkpt>
      <trkpt lat="44.16887" lon="3.62197">
        <ele>834.1</ele>
        <time>2021-08-12T07:52:03Z</time>
      </trkpt>
      <trkpt lat="44.16888" lon="3.6219">
        <ele>834.7</ele>
        <time>2021-08-12T07:52:05Z</time>
      </trkpt>
      <trkpt lat="44.16889" lon="3.62184">
        <ele>835.1</ele>
        <time>2021-08-12T07:52:07Z</time>
      </trkpt>
      <trkpt lat="44.1689" lon="3.62178">
        <ele>835.6</ele>
        <time>2021-08-12T07:52:09Z</time>
      </trkpt>
      <trkpt lat="44.1689" lon="3.62172">
        <ele>836.1</ele>
        <time>2021-08-12T07:52:11Z</time>
      </trkpt>
      <trkpt lat="44.16891" lon="3.62165">
        <ele>836.6</ele>
        <time>2021-08-12T07:52:13Z</time>
      </trkpt>
      <trkpt lat="44.16892" lon="3.6216">
        <ele>837.7</ele>
        <time>2021-08-12T07:52:15Z</time>
      </trkpt>
      <trkpt lat="44.16893" lon="3.62154">
        <ele>838.5</ele>
        <time>2021-08-12T07:52:17Z</time>
      </trkpt>
      <trkpt lat="44.16895" lon="3.62148">
        <ele>839.6</ele>
        <time>2021-08-12T07:52:19Z</time>
      </trkpt>
      <trkpt lat="44.16896" lon="3.62142">
        <ele>840.5</ele>
        <time>2021-08-12T07:52:21Z</time>
      </trkpt>
      <trkpt lat="44.16897" lon="3.62136">
        <ele>841.5</ele>
        <time>2021-08-12T07:52:23Z</time>
      </trkpt>
      <trkpt lat="44.16899" lon="3.6213">
        <ele>842.3</ele>
        <time>2021-08-12T07:52:25Z</time>
      </trkpt>
      <trkpt lat="44.16901" lon="3.62125">
        <ele>842.8</ele>
        <time>2021-08-12T07:52:27Z</time>
      </trkpt>
      <trkpt lat="44.16903" lon="3.62119">
        <ele>843.6</ele>
        <time>2021-08-12T07:52:29Z</time>
      </trkpt>
      <trkpt lat="44.16904" lon="3.62113">
        <ele>844.6</ele>
        <time>2021-08-12T07:52:31Z</time>
      </trkpt>
      <trkpt lat="44.16906" lon="3.62108">
        <ele>845.1</ele>
        <time>2021-08-12T07:52:33Z</time>
      </trkpt>
      <trkpt lat="44.16908" lon="3.62102">
        <ele>846</ele>
        <time>2021-08-12T07:52:35Z</time>
      </trkpt>
      <trkpt lat="44.1691" lon="3.62095">
        <ele>847.1</ele>
        <time>2021-08-12T07:52:37Z</time>
      </trkpt>
      <trkpt lat="44.16912" lon="3.6209">
        <ele>847.8</ele>
        <time>2021-08-12T07:52:39Z</time>
      </trkpt>
      <trkpt lat="44.16915" lon="3.62084">
        <ele>848.1</ele>
        <time>2021-08-12T07:52:41Z</time>
      </trkpt>
      <trkpt lat="44.16918" lon="3.62079">
        <ele>848.7</ele>
        <time>2021-08-12T07:52:43Z</time>
      </trkpt>
      <trkpt lat="44.16922" lon="3.62076">
        <ele>848.5</ele>
        <time>2021-08-12T07:52:45Z</time>
      </trkpt>
      <trkpt lat="44.16925" lon="3.62072">
        <ele>848.4</ele>
        <time>2021-08-12T07:52:47Z</time>
      </trkpt>
      <trkpt lat="44.16929" lon="3.62069">
        <ele>848</ele>
        <time>2021-08-12T07:52:49Z</time>
      </trkpt>
      <trkpt lat="44.16933" lon="3.62067">
        <ele>847.2</ele>
        <time>2021-08-12T07:52:51Z</time>
      </trkpt>
      <trkpt lat="44.16937" lon="3.62064">
        <ele>846.7</ele>
        <time>2021-08-12T07:52:53Z</time>
      </trkpt>
      <trkpt lat="44.16941" lon="3.62061">
        <ele>846.3</ele>
        <time>2021-08-12T07:52:55Z</time>
      </trkpt>
      <trkpt lat="44.16945" lon="3.62058">
        <ele>845.7</ele>
        <time>2021-08-12T07:52:57Z</time>
      </trkpt>
      <trkpt lat="44.16949" lon="3.62055">
        <ele>845.3</ele>
        <time>2021-08-12T07:52:59Z</time>
      </trkpt>
      <trkpt lat="44.16952" lon="3.6205">
        <ele>845.3</ele>
        <time>2021-08-12T07:53:01Z</time>
      </trkpt>
      <trkpt lat="44.16955" lon="3.62046">
        <ele>845.7</ele>
        <time>2021-08-12T07:53:03Z</time>
      </trkpt>
      <trkpt lat="44.16957" lon="3.6204">
        <ele>846.3</ele>
        <time>2021-08-12T07:53:05Z</time>
      </trkpt>
      <trkpt lat="44.16958" lon="3.62035">
        <ele>847.2</ele>
        <time>2021-08-12T07:53:07Z</time>
      </trkpt>
      <trkpt lat="44.16959" lon="3.6203">
        <ele>848.1</ele>
        <time>2021-08-12T07:53:09Z</time>
      </trkpt>
      <trkpt lat="44.16961" lon="3.62025">
        <ele>849</ele>
        <time>2021-08-12T07:53:11Z</time>
      </trkpt>
      <trkpt lat="44.16963" lon="3.62019">
        <ele>849.7</ele>
        <time>2021-08-12T07:53:13Z</time>
      </trkpt>
      <trkpt lat="44.16965" lon="3.62013">
        <ele>850.4</ele>
        <time>2021-08-12T07:53:15Z</time>
      </trkpt>
      <trkpt lat="44.16967" lon="3.62008">
        <ele>850.8</ele>
        <time>2021-08-12T07:53:17Z</time>
      </trkpt>
      <trkpt lat="44.1697" lon="3.62003">
        <ele>851.2</ele>
        <time>2021-08-12T07:53:19Z</time>
      </trkpt>
      <trkpt lat="44.16972" lon="3.61998">
        <ele>851.6</ele>
        <time>2021-08-12T07:53:21Z</time>
      </trkpt>
      <trkpt lat="44.16975" lon="3.61992">
        <ele>852</ele>
        <time>2021-08-12T07:53:23Z</time>
      </trkpt>
      <trkpt lat="44.16977" lon="3.61987">
        <ele>852.5</ele>
        <time>2021-08-12T07:53:25Z</time>
      </trkpt>
      <trkpt lat="44.1698" lon="3.61982">
        <ele>853.1</ele>
        <time>2021-08-12T07:53:27Z</time>
      </trkpt>
      <trkpt lat="44.16982" lon="3.61977">
        <ele>853.4</ele>
        <time>2021-08-12T07:53:29Z</time>
      </trkpt>
      <trkpt lat="44.16984" lon="3.61972">
        <ele>854</ele>
        <time>2021-08-12T07:53:31Z</time>
      </trkpt>
      <trkpt lat="44.16987" lon="3.61966">
        <ele>854.5</ele>
        <time>2021-08-12T07:53:33Z</time>
      </trkpt>
      <trkpt lat="44.16989" lon="3.61962">
        <ele>854.8</ele>
        <time>2021-08-12T07:53:35Z</time>
      </trkpt>
      <trkpt lat="44.16992" lon="3.61957">
        <ele>855.1</ele>
        <time>2021-08-12T07:53:37Z</time>
      </trkpt>
      <trkpt lat="44.16994" lon="3.61952">
        <ele>855.4</ele>
        <time>2021-08-12T07:53:39Z</time>
      </trkpt>
      <trkpt lat="44.16996" lon="3.61947">
        <ele>855.8</ele>
        <time>2021-08-12T07:53:41Z</time>
      </trkpt>
      <trkpt lat="44.16999" lon="3.61942">
        <ele>856.1</ele>
        <time>2021-08-12T07:53:43Z</time>
      </trkpt>
      <trkpt lat="44.17001" lon="3.61937">
        <ele>856.7</ele>
        <time>2021-08-12T07:53:45Z</time>
      </trkpt>
      <trkpt lat="44.17003" lon="3.61932">
        <ele>857.2</ele>
        <time>2021-08-12T07:53:47Z</time>
      </trkpt>
      <trkpt lat="44.17005" lon="3.61927">
        <ele>858</ele>
        <time>2021-08-12T07:53:49Z</time>
      </trkpt>
      <trkpt lat="44.17007" lon="3.61922">
        <ele>858.8</ele>
        <time>2021-08-12T07:53:51Z</time>
      </trkpt>
      <trkpt lat="44.1701" lon="3.61917">
        <ele>859.3</ele>
        <time>2021-08-12T07:53:53Z</time>
      </trkpt>
      <trkpt lat="44.17013" lon="3.61913">
        <ele>859.9</ele>
        <time>2021-08-12T07:53:55Z</time>
      </trkpt>
      <trkpt lat="44.17015" lon="3.61909">
        <ele>860.4</ele>
        <time>2021-08-12T07:53:57Z</time>
      </trkpt>
      <trkpt lat="44.17018" lon="3.61906">
        <ele>860.5</ele>
        <time>2021-08-12T07:53:59Z</time>
      </trkpt>
      <trkpt lat="44.17022" lon="3.61903">
        <ele>860.4</ele>
        <time>2021-08-12T07:54:01Z</time>
      </trkpt>
      <trkpt lat="44.17026" lon="3.61902">
        <ele>859.9</ele>
        <time>2021-08-12T07:54:03Z</time>
      </trkpt>
      <trkpt lat="44.17029" lon="3.619">
        <ele>859.7</ele>
        <time>2021-08-12T07:54:05Z</time>
      </trkpt>
      <trkpt lat="44.17033" lon="3.61897">
        <ele>859.4</ele>
        <time>2021-08-12T07:54:07Z</time>
      </trkpt>
      <trkpt lat="44.17038" lon="3.61895">
        <ele>859</ele>
        <time>2021-08-12T07:54:09Z</time>
      </trkpt>
      <trkpt lat="44.17041" lon="3.61892">
        <ele>859.2</ele>
        <time>2021-08-12T07:54:11Z</time>
      </trkpt>
      <trkpt lat="44.17044" lon="3.61887">
        <ele>859.7</ele>
        <time>2021-08-12T07:54:13Z</time>
      </trkpt>
      <trkpt lat="44.17048" lon="3.61882">
        <ele>860.3</ele>
        <time>2021-08-12T07:54:15Z</time>
      </trkpt>
      <trkpt lat="44.17051" lon="3.61878">
        <ele>861</ele>
        <time>2021-08-12T07:54:17Z</time>
      </trkpt>
      <trkpt lat="44.17054" lon="3.61872">
        <ele>861.9</ele>
        <time>2021-08-12T07:54:19Z</time>
      </trkpt>
      <trkpt lat="44.17056" lon="3.61867">
        <ele>862.8</ele>
        <time>2021-08-12T07:54:21Z</time>
      </trkpt>
      <trkpt lat="44.17059" lon="3.61863">
        <ele>863.4</ele>
        <time>2021-08-12T07:54:23Z</time>
      </trkpt>
      <trkpt lat="44.17061" lon="3.61858">
        <ele>864.2</ele>
        <time>2021-08-12T07:54:25Z</time>
      </trkpt>
      <trkpt lat="44.17064" lon="3.61853">
        <ele>865.1</ele>
        <time>2021-08-12T07:54:27Z</time>
      </trkpt>
      <trkpt lat="44.17067" lon="3.61848">
        <ele>865.9</ele>
        <time>2021-08-12T07:54:29Z</time>
      </trkpt>
      <trkpt lat="44.17069" lon="3.61843">
        <ele>866.9</ele>
        <time>2021-08-12T07:54:31Z</time>
      </trkpt>
      <trkpt lat="44.17072" lon="3.61838">
        <ele>867.8</ele>
        <time>2021-08-12T07:54:33Z</time>
      </trkpt>
      <trkpt lat="44.17074" lon="3.61833">
        <ele>868.6</ele>
        <time>2021-08-12T07:54:35Z</time>
      </trkpt>
      <trkpt lat="44.17077" lon="3.61828">
        <ele>869.3</ele>
        <time>2021-08-12T07:54:37Z</time>
      </trkpt>
      <trkpt lat="44.1708" lon="3.61824">
        <ele>869.8</ele>
        <time>2021-08-12T07:54:39Z</time>
      </trkpt>
      <trkpt lat="44.17084" lon="3.61821">
        <ele>869.8</ele>
        <time>2021-08-12T07:54:41Z</time>
      </trkpt>
      <trkpt lat="44.17088" lon="3.61819">
        <ele>871.3</ele>
        <time>2021-08-12T07:54:43Z</time>
      </trkpt>
      <trkpt lat="44.17093" lon="3.61818">
        <ele>872.2</ele>
        <time>2021-08-12T07:54:45Z</time>
      </trkpt>
      <trkpt lat="44.17097" lon="3.6182">
        <ele>872.3</ele>
        <time>2021-08-12T07:54:47Z</time>
      </trkpt>
      <trkpt lat="44.17101" lon="3.61823">
        <ele>872.1</ele>
        <time>2021-08-12T07:54:49Z</time>
      </trkpt>
      <trkpt lat="44.17105" lon="3.61828">
        <ele>871.2</ele>
        <time>2021-08-12T07:54:51Z</time>
      </trkpt>
      <trkpt lat="44.17109" lon="3.61832">
        <ele>870.6</ele>
        <time>2021-08-12T07:54:53Z</time>
      </trkpt>
      <trkpt lat="44.17112" lon="3.61837">
        <ele>869.8</ele>
        <time>2021-08-12T07:54:55Z</time>
      </trkpt>
      <trkpt lat="44.17116" lon="3.61841">
        <ele>869.2</ele>
        <time>2021-08-12T07:54:57Z</time>
      </trkpt>
      <trkpt lat="44.1712" lon="3.61845">
        <ele>868.4</ele>
        <time>2021-08-12T07:54:59Z</time>
      </trkpt>
      <trkpt lat="44.17124" lon="3.61848">
        <ele>867.9</ele>
        <time>2021-08-12T07:55:01Z</time>
      </trkpt>
      <trkpt lat="44.17127" lon="3.61852">
        <ele>867.3</ele>
        <time>2021-08-12T07:55:03Z</time>
      </trkpt>
      <trkpt lat="44.17132" lon="3.61856">
        <ele>866.9</ele>
        <time>2021-08-12T07:55:05Z</time>
      </trkpt>
      <trkpt lat="44.17136" lon="3.61858">
        <ele>866.6</ele>
        <time>2021-08-12T07:55:07Z</time>
      </trkpt>
      <trkpt lat="44.17139" lon="3.61861">
        <ele>866.3</ele>
        <time>2021-08-12T07:55:09Z</time>
      </trkpt>
      <trkpt lat="44.17144" lon="3.61864">
        <ele>866.1</ele>
        <time>2021-08-12T07:55:11Z</time>
      </trkpt>
      <trkpt lat="44.17148" lon="3.61865">
        <ele>866.3</ele>
        <time>2021-08-12T07:55:13Z</time>
      </trkpt>
      <trkpt lat="44.17152" lon="3.61866">
        <ele>866.5</ele>
        <time>2021-08-12T07:55:15Z</time>
      </trkpt>
      <trkpt lat="44.17156" lon="3.61868">
        <ele>866.7</ele>
        <time>2021-08-12T07:55:17Z</time>
      </trkpt>
      <trkpt lat="44.17161" lon="3.61868">
        <ele>867.3</ele>
        <time>2021-08-12T07:55:19Z</time>
      </trkpt>
      <trkpt lat="44.17165" lon="3.61869">
        <ele>867.8</ele>
        <time>2021-08-12T07:55:21Z</time>
      </trkpt>
      <trkpt lat="44.17171" lon="3.61871">
        <ele>867.6</ele>
        <time>2021-08-12T07:55:23Z</time>
      </trkpt>
      <trkpt lat="44.17175" lon="3.61872">
        <ele>867.5</ele>
        <time>2021-08-12T07:55:25Z</time>
      </trkpt>
      <trkpt lat="44.17179" lon="3.61875">
        <ele>867</ele>
        <time>2021-08-12T07:55:27Z</time>
      </trkpt>
      <trkpt lat="44.17183" lon="3.61876">
        <ele>866.9</ele>
        <time>2021-08-12T07:55:29Z</time>
      </trkpt>
      <trkpt lat="44.17187" lon="3.61879">
        <ele>866.4</ele>
        <time>2021-08-12T07:55:31Z</time>
      </trkpt>
      <trkpt lat="44.17192" lon="3.61882">
        <ele>866</ele>
        <time>2021-08-12T07:55:33Z</time>
      </trkpt>
      <trkpt lat="44.17196" lon="3.61884">
        <ele>865.7</ele>
        <time>2021-08-12T07:55:35Z</time>
      </trkpt>
      <trkpt lat="44.17201" lon="3.61887">
        <ele>865.1</ele>
        <time>2021-08-12T07:55:37Z</time>
      </trkpt>
      <trkpt lat="44.17205" lon="3.61891">
        <ele>864.4</ele>
        <time>2021-08-12T07:55:39Z</time>
      </trkpt>
      <trkpt lat="44.17208" lon="3.61896">
        <ele>863.2</ele>
        <time>2021-08-12T07:55:41Z</time>
      </trkpt>
      <trkpt lat="44.1721" lon="3.61901">
        <ele>862</ele>
        <time>2021-08-12T07:55:43Z</time>
      </trkpt>
      <trkpt lat="44.17212" lon="3.61906">
        <ele>861.1</ele>
        <time>2021-08-12T07:55:45Z</time>
      </trkpt>
      <trkpt lat="44.17215" lon="3.61911">
        <ele>860.1</ele>
        <time>2021-08-12T07:55:47Z</time>
      </trkpt>
      <trkpt lat="44.17219" lon="3.61915">
        <ele>859.4</ele>
        <time>2021-08-12T07:55:49Z</time>
      </trkpt>
      <trkpt lat="44.17223" lon="3.61918">
        <ele>859.1</ele>
        <time>2021-08-12T07:55:51Z</time>
      </trkpt>
      <trkpt lat="44.17226" lon="3.61921">
        <ele>858.5</ele>
        <time>2021-08-12T07:55:53Z</time>
      </trkpt>
      <trkpt lat="44.1723" lon="3.61922">
        <ele>858.6</ele>
        <time>2021-08-12T07:55:55Z</time>
      </trkpt>
      <trkpt lat="44.17234" lon="3.61922">
        <ele>859.1</ele>
        <time>2021-08-12T07:55:57Z</time>
      </trkpt>
      <trkpt lat="44.17237" lon="3.61922">
        <ele>859.6</ele>
        <time>2021-08-12T07:55:59Z</time>
      </trkpt>
      <trkpt lat="44.17241" lon="3.61919">
        <ele>860.9</ele>
        <time>2021-08-12T07:56:01Z</time>
      </trkpt>
      <trkpt lat="44.17245" lon="3.61918">
        <ele>861.8</ele>
        <time>2021-08-12T07:56:03Z</time>
      </trkpt>
      <trkpt lat="44.17249" lon="3.61916">
        <ele>863.1</ele>
        <time>2021-08-12T07:56:05Z</time>
      </trkpt>
      <trkpt lat="44.17253" lon="3.61913">
        <ele>863.4</ele>
        <time>2021-08-12T07:56:07Z</time>
      </trkpt>
      <trkpt lat="44.17257" lon="3.6191">
        <ele>863.5</ele>
        <time>2021-08-12T07:56:09Z</time>
      </trkpt>
      <trkpt lat="44.17261" lon="3.61908">
        <ele>863.4</ele>
        <time>2021-08-12T07:56:11Z</time>
      </trkpt>
      <trkpt lat="44.17265" lon="3.61904">
        <ele>863.5</ele>
        <time>2021-08-12T07:56:13Z</time>
      </trkpt>
      <trkpt lat="44.17269" lon="3.61901">
        <ele>863.6</ele>
        <time>2021-08-12T07:56:15Z</time>
      </trkpt>
      <trkpt lat="44.17273" lon="3.61898">
        <ele>863.6</ele>
        <time>2021-08-12T07:56:17Z</time>
      </trkpt>
      <trkpt lat="44.17277" lon="3.61895">
        <ele>863.4</ele>
        <time>2021-08-12T07:56:19Z</time>
      </trkpt>
      <trkpt lat="44.17281" lon="3.61892">
        <ele>863.5</ele>
        <time>2021-08-12T07:56:21Z</time>
      </trkpt>
      <trkpt lat="44.17285" lon="3.61888">
        <ele>863.5</ele>
        <time>2021-08-12T07:56:23Z</time>
      </trkpt>
      <trkpt lat="44.17288" lon="3.61885">
        <ele>863.4</ele>
        <time>2021-08-12T07:56:25Z</time>
      </trkpt>
      <trkpt lat="44.17291" lon="3.61881">
        <ele>863.5</ele>
        <time>2021-08-12T07:56:27Z</time>
      </trkpt>
      <trkpt lat="44.17294" lon="3.61876">
        <ele>863.9</ele>
        <time>2021-08-12T07:56:29Z</time>
      </trkpt>
      <trkpt lat="44.17296" lon="3.61871">
        <ele>864.4</ele>
        <time>2021-08-12T07:56:31Z</time>
      </trkpt>
      <trkpt lat="44.17297" lon="3.61865">
        <ele>865.1</ele>
        <time>2021-08-12T07:56:33Z</time>
      </trkpt>
      <trkpt lat="44.17299" lon="3.61859">
        <ele>865.7</ele>
        <time>2021-08-12T07:56:35Z</time>
      </trkpt>
      <trkpt lat="44.173" lon="3.61853">
        <ele>866.4</ele>
        <time>2021-08-12T07:56:37Z</time>
      </trkpt>
      <trkpt lat="44.173" lon="3.61847">
        <ele>867.2</ele>
        <time>2021-08-12T07:56:39Z</time>
      </trkpt>
      <trkpt lat="44.17301" lon="3.61842">
        <ele>867.9</ele>
        <time>2021-08-12T07:56:41Z</time>
      </trkpt>
      <trkpt lat="44.17301" lon="3.61835">
        <ele>868.8</ele>
        <time>2021-08-12T07:56:43Z</time>
      </trkpt>
      <trkpt lat="44.17302" lon="3.61829">
        <ele>869.3</ele>
        <time>2021-08-12T07:56:45Z</time>
      </trkpt>
      <trkpt lat="44.17302" lon="3.61823">
        <ele>869.9</ele>
        <time>2021-08-12T07:56:47Z</time>
      </trkpt>
      <trkpt lat="44.17303" lon="3.61817">
        <ele>870.4</ele>
        <time>2021-08-12T07:56:49Z</time>
      </trkpt>
      <trkpt lat="44.17304" lon="3.61811">
        <ele>871</ele>
        <time>2021-08-12T07:56:51Z</time>
      </trkpt>
      <trkpt lat="44.17304" lon="3.61805">
        <ele>871.5</ele>
        <time>2021-08-12T07:56:53Z</time>
      </trkpt>
      <trkpt lat="44.17305" lon="3.61798">
        <ele>872</ele>
        <time>2021-08-12T07:56:55Z</time>
      </trkpt>
      <trkpt lat="44.17305" lon="3.61792">
        <ele>872.6</ele>
        <time>2021-08-12T07:56:57Z</time>
      </trkpt>
      <trkpt lat="44.17306" lon="3.61785">
        <ele>873</ele>
        <time>2021-08-12T07:56:59Z</time>
      </trkpt>
      <trkpt lat="44.17307" lon="3.61779">
        <ele>873.4</ele>
        <time>2021-08-12T07:57:01Z</time>
      </trkpt>
      <trkpt lat="44.17307" lon="3.61773">
        <ele>873.9</ele>
        <time>2021-08-12T07:57:03Z</time>
      </trkpt>
      <trkpt lat="44.17309" lon="3.61767">
        <ele>874.1</ele>
        <time>2021-08-12T07:57:05Z</time>
      </trkpt>
      <trkpt lat="44.17309" lon="3.61761">
        <ele>874.7</ele>
        <time>2021-08-12T07:57:07Z</time>
      </trkpt>
      <trkpt lat="44.1731" lon="3.61755">
        <ele>875</ele>
        <time>2021-08-12T07:57:09Z</time>
      </trkpt>
      <trkpt lat="44.1731" lon="3.61748">
        <ele>875.3</ele>
        <time>2021-08-12T07:57:11Z</time>
      </trkpt>
      <trkpt lat="44.17311" lon="3.61742">
        <ele>875.4</ele>
        <time>2021-08-12T07:57:13Z</time>
      </trkpt>
      <trkpt lat="44.17312" lon="3.61736">
        <ele>875.7</ele>
        <time>2021-08-12T07:57:15Z</time>
      </trkpt>
      <trkpt lat="44.17312" lon="3.61729">
        <ele>875.9</ele>
        <time>2021-08-12T07:57:17Z</time>
      </trkpt>
      <trkpt lat="44.17313" lon="3.61723">
        <ele>876.1</ele>
        <time>2021-08-12T07:57:19Z</time>
      </trkpt>
      <trkpt lat="44.17314" lon="3.61717">
        <ele>876.3</ele>
        <time>2021-08-12T07:57:21Z</time>
      </trkpt>
      <trkpt lat="44.17314" lon="3.61711">
        <ele>876.4</ele>
        <time>2021-08-12T07:57:23Z</time>
      </trkpt>
      <trkpt lat="44.17315" lon="3.61705">
        <ele>876.6</ele>
        <time>2021-08-12T07:57:25Z</time>
      </trkpt>
      <trkpt lat="44.17315" lon="3.61699">
        <ele>877</ele>
        <time>2021-08-12T07:57:27Z</time>
      </trkpt>
      <trkpt lat="44.17315" lon="3.61693">
        <ele>877.4</ele>
        <time>2021-08-12T07:57:29Z</time>
      </trkpt>
      <trkpt lat="44.17315" lon="3.61686">
        <ele>877.9</ele>
        <time>2021-08-12T07:57:31Z</time>
      </trkpt>
      <trkpt lat="44.17313" lon="3.61681">
        <ele>878.7</ele>
        <time>2021-08-12T07:57:33Z</time>
      </trkpt>
      <trkpt lat="44.17312" lon="3.61675">
        <ele>879.6</ele>
        <time>2021-08-12T07:57:35Z</time>
      </trkpt>
      <trkpt lat="44.17311" lon="3.61669">
        <ele>880.3</ele>
        <time>2021-08-12T07:57:37Z</time>
      </trkpt>
      <trkpt lat="44.1731" lon="3.61664">
        <ele>881.5</ele>
        <time>2021-08-12T07:57:39Z</time>
      </trkpt>
      <trkpt lat="44.17308" lon="3.61659">
        <ele>883.4</ele>
        <time>2021-08-12T07:57:41Z</time>
      </trkpt>
      <trkpt lat="44.17307" lon="3.61653">
        <ele>885.1</ele>
        <time>2021-08-12T07:57:43Z</time>
      </trkpt>
      <trkpt lat="44.17306" lon="3.61647">
        <ele>886.4</ele>
        <time>2021-08-12T07:57:45Z</time>
      </trkpt>
      <trkpt lat="44.17306" lon="3.61641">
        <ele>887.7</ele>
        <time>2021-08-12T07:57:47Z</time>
      </trkpt>
      <trkpt lat="44.17307" lon="3.61636">
        <ele>888.5</ele>
        <time>2021-08-12T07:57:49Z</time>
      </trkpt>
      <trkpt lat="44.17308" lon="3.61631">
        <ele>889.1</ele>
        <time>2021-08-12T07:57:51Z</time>
      </trkpt>
      <trkpt lat="44.1731" lon="3.61626">
        <ele>889.5</ele>
        <time>2021-08-12T07:57:53Z</time>
      </trkpt>
      <trkpt lat="44.17313" lon="3.61623">
        <ele>889.1</ele>
        <time>2021-08-12T07:57:55Z</time>
      </trkpt>
      <trkpt lat="44.17316" lon="3.61619">
        <ele>889</ele>
        <time>2021-08-12T07:57:57Z</time>
      </trkpt>
      <trkpt lat="44.17319" lon="3.61616">
        <ele>888.8</ele>
        <time>2021-08-12T07:57:59Z</time>
      </trkpt>
      <trkpt lat="44.17322" lon="3.61614">
        <ele>888.1</ele>
        <time>2021-08-12T07:58:01Z</time>
      </trkpt>
      <trkpt lat="44.17326" lon="3.61613">
        <ele>887.2</ele>
        <time>2021-08-12T07:58:03Z</time>
      </trkpt>
      <trkpt lat="44.1733" lon="3.61611">
        <ele>886.3</ele>
        <time>2021-08-12T07:58:05Z</time>
      </trkpt>
      <trkpt lat="44.17334" lon="3.6161">
        <ele>885.5</ele>
        <time>2021-08-12T07:58:07Z</time>
      </trkpt>
      <trkpt lat="44.17338" lon="3.61608">
        <ele>884.8</ele>
        <time>2021-08-12T07:58:09Z</time>
      </trkpt>
      <trkpt lat="44.17342" lon="3.61607">
        <ele>884</ele>
        <time>2021-08-12T07:58:11Z</time>
      </trkpt>
      <trkpt lat="44.17346" lon="3.61605">
        <ele>883.2</ele>
        <time>2021-08-12T07:58:13Z</time>
      </trkpt>
      <trkpt lat="44.1735" lon="3.61603">
        <ele>882.4</ele>
        <time>2021-08-12T07:58:15Z</time>
      </trkpt>
      <trkpt lat="44.17353" lon="3.61601">
        <ele>881.8</ele>
        <time>2021-08-12T07:58:17Z</time>
      </trkpt>
      <trkpt lat="44.17357" lon="3.616">
        <ele>880.9</ele>
        <time>2021-08-12T07:58:19Z</time>
      </trkpt>
      <trkpt lat="44.17361" lon="3.61597">
        <ele>880.4</ele>
        <time>2021-08-12T07:58:21Z</time>
      </trkpt>
      <trkpt lat="44.17365" lon="3.61595">
        <ele>879.9</ele>
        <time>2021-08-12T07:58:23Z</time>
      </trkpt>
      <trkpt lat="44.17368" lon="3.61591">
        <ele>879.9</ele>
        <time>2021-08-12T07:58:25Z</time>
      </trkpt>
      <trkpt lat="44.1737" lon="3.61586">
        <ele>880.3</ele>
        <time>2021-08-12T07:58:27Z</time>
      </trkpt>
      <trkpt lat="44.17373" lon="3.61581">
        <ele>880.7</ele>
        <time>2021-08-12T07:58:29Z</time>
      </trkpt>
      <trkpt lat="44.17376" lon="3.61576">
        <ele>881.3</ele>
        <time>2021-08-12T07:58:31Z</time>
      </trkpt>
      <trkpt lat="44.17378" lon="3.61571">
        <ele>882.1</ele>
        <time>2021-08-12T07:58:33Z</time>
      </trkpt>
      <trkpt lat="44.17379" lon="3.61566">
        <ele>883.2</ele>
        <time>2021-08-12T07:58:35Z</time>
      </trkpt>
      <trkpt lat="44.1738" lon="3.6156">
        <ele>884.6</ele>
        <time>2021-08-12T07:58:37Z</time>
      </trkpt>
      <trkpt lat="44.1738" lon="3.61555">
        <ele>886</ele>
        <time>2021-08-12T07:58:39Z</time>
      </trkpt>
      <trkpt lat="44.17381" lon="3.61549">
        <ele>887.5</ele>
        <time>2021-08-12T07:58:41Z</time>
      </trkpt>
      <trkpt lat="44.17381" lon="3.61544">
        <ele>888.9</ele>
        <time>2021-08-12T07:58:43Z</time>
      </trkpt>
      <trkpt lat="44.17381" lon="3.61539">
        <ele>890.5</ele>
        <time>2021-08-12T07:58:45Z</time>
      </trkpt>
      <trkpt lat="44.17381" lon="3.61533">
        <ele>892.1</ele>
        <time>2021-08-12T07:58:47Z</time>
      </trkpt>
      <trkpt lat="44.1738" lon="3.61528">
        <ele>893.7</ele>
        <time>2021-08-12T07:58:49Z</time>
      </trkpt>
      <trkpt lat="44.17381" lon="3.61522">
        <ele>895.3</ele>
        <time>2021-08-12T07:58:51Z</time>
      </trkpt>
      <trkpt lat="44.17381" lon="3.61516">
        <ele>896.7</ele>
        <time>2021-08-12T07:58:53Z</time>
      </trkpt>
      <trkpt lat="44.17382" lon="3.61511">
        <ele>898</ele>
        <time>2021-08-12T07:58:55Z</time>
      </trkpt>
      <trkpt lat="44.17384" lon="3.61506">
        <ele>898.8</ele>
        <time>2021-08-12T07:58:57Z</time>
      </trkpt>
      <trkpt lat="44.17386" lon="3.61501">
        <ele>899.8</ele>
        <time>2021-08-12T07:58:59Z</time>
      </trkpt>
      <trkpt lat="44.17389" lon="3.61498">
        <ele>900.4</ele>
        <time>2021-08-12T07:59:01Z</time>
      </trkpt>
      <trkpt lat="44.17392" lon="3.61495">
        <ele>900.8</ele>
        <time>2021-08-12T07:59:03Z</time>
      </trkpt>
      <trkpt lat="44.17395" lon="3.61492">
        <ele>901.3</ele>
        <time>2021-08-12T07:59:05Z</time>
      </trkpt>
      <trkpt lat="44.17399" lon="3.6149">
        <ele>901.3</ele>
        <time>2021-08-12T07:59:07Z</time>
      </trkpt>
      <trkpt lat="44.17403" lon="3.61489">
        <ele>900.6</ele>
        <time>2021-08-12T07:59:09Z</time>
      </trkpt>
      <trkpt lat="44.17407" lon="3.61489">
        <ele>900</ele>
        <time>2021-08-12T07:59:11Z</time>
      </trkpt>
      <trkpt lat="44.17411" lon="3.61489">
        <ele>898.7</ele>
        <time>2021-08-12T07:59:13Z</time>
      </trkpt>
      <trkpt lat="44.17415" lon="3.6149">
        <ele>897.3</ele>
        <time>2021-08-12T07:59:15Z</time>
      </trkpt>
      <trkpt lat="44.17419" lon="3.61491">
        <ele>896.8</ele>
        <time>2021-08-12T07:59:17Z</time>
      </trkpt>
      <trkpt lat="44.17424" lon="3.61491">
        <ele>896.8</ele>
        <time>2021-08-12T07:59:19Z</time>
      </trkpt>
      <trkpt lat="44.17428" lon="3.61492">
        <ele>896.5</ele>
        <time>2021-08-12T07:59:21Z</time>
      </trkpt>
      <trkpt lat="44.17431" lon="3.61493">
        <ele>896.6</ele>
        <time>2021-08-12T07:59:23Z</time>
      </trkpt>
      <trkpt lat="44.17435" lon="3.61493">
        <ele>896.6</ele>
        <time>2021-08-12T07:59:25Z</time>
      </trkpt>
      <trkpt lat="44.17439" lon="3.61494">
        <ele>896.5</ele>
        <time>2021-08-12T07:59:27Z</time>
      </trkpt>
      <trkpt lat="44.17443" lon="3.61495">
        <ele>896.3</ele>
        <time>2021-08-12T07:59:29Z</time>
      </trkpt>
      <trkpt lat="44.17447" lon="3.61496">
        <ele>896</ele>
        <time>2021-08-12T07:59:31Z</time>
      </trkpt>
      <trkpt lat="44.17451" lon="3.61498">
        <ele>895.5</ele>
        <time>2021-08-12T07:59:33Z</time>
      </trkpt>
      <trkpt lat="44.17454" lon="3.61499">
        <ele>895.1</ele>
        <time>2021-08-12T07:59:35Z</time>
      </trkpt>
      <trkpt lat="44.17457" lon="3.61501">
        <ele>894.6</ele>
        <time>2021-08-12T07:59:37Z</time>
      </trkpt>
      <trkpt lat="44.1746" lon="3.61503">
        <ele>894.3</ele>
        <time>2021-08-12T07:59:39Z</time>
      </trkpt>
      <trkpt lat="44.17463" lon="3.61505">
        <ele>893.7</ele>
        <time>2021-08-12T07:59:41Z</time>
      </trkpt>
      <trkpt lat="44.17466" lon="3.61507">
        <ele>893.2</ele>
        <time>2021-08-12T07:59:43Z</time>
      </trkpt>
      <trkpt lat="44.17468" lon="3.61508">
        <ele>893</ele>
        <time>2021-08-12T07:59:45Z</time>
      </trkpt>
      <trkpt lat="44.17471" lon="3.6151">
        <ele>892.7</ele>
        <time>2021-08-12T07:59:47Z</time>
      </trkpt>
      <trkpt lat="44.17474" lon="3.6151">
        <ele>892.7</ele>
        <time>2021-08-12T07:59:49Z</time>
      </trkpt>
      <trkpt lat="44.17477" lon="3.6151">
        <ele>892.9</ele>
        <time>2021-08-12T07:59:51Z</time>
      </trkpt>
      <trkpt lat="44.17481" lon="3.6151">
        <ele>893.2</ele>
        <time>2021-08-12T07:59:53Z</time>
      </trkpt>
      <trkpt lat="44.17484" lon="3.61509">
        <ele>893.7</ele>
        <time>2021-08-12T07:59:55Z</time>
      </trkpt>
      <trkpt lat="44.17488" lon="3.61509">
        <ele>894.1</ele>
        <time>2021-08-12T07:59:57Z</time>
      </trkpt>
      <trkpt lat="44.17492" lon="3.61509">
        <ele>894.4</ele>
        <time>2021-08-12T07:59:59Z</time>
      </trkpt>
      <trkpt lat="44.17495" lon="3.61509">
        <ele>894.3</ele>
        <time>2021-08-12T08:00:01Z</time>
      </trkpt>
      <trkpt lat="44.17498" lon="3.6151">
        <ele>894.2</ele>
        <time>2021-08-12T08:00:03Z</time>
      </trkpt>
      <trkpt lat="44.17501" lon="3.61512">
        <ele>894.1</ele>
        <time>2021-08-12T08:00:05Z</time>
      </trkpt>
      <trkpt lat="44.17504" lon="3.61514">
        <ele>893.6</ele>
        <time>2021-08-12T08:00:07Z</time>
      </trkpt>
      <trkpt lat="44.17507" lon="3.61517">
        <ele>893.1</ele>
        <time>2021-08-12T08:00:09Z</time>
      </trkpt>
      <trkpt lat="44.1751" lon="3.61521">
        <ele>892.4</ele>
        <time>2021-08-12T08:00:11Z</time>
      </trkpt>
      <trkpt lat="44.17512" lon="3.61524">
        <ele>892</ele>
        <time>2021-08-12T08:00:13Z</time>
      </trkpt>
      <trkpt lat="44.17515" lon="3.61527">
        <ele>891.4</ele>
        <time>2021-08-12T08:00:15Z</time>
      </trkpt>
      <trkpt lat="44.17518" lon="3.61529">
        <ele>891.4</ele>
        <time>2021-08-12T08:00:17Z</time>
      </trkpt>
      <trkpt lat="44.17521" lon="3.61532">
        <ele>891.2</ele>
        <time>2021-08-12T08:00:19Z</time>
      </trkpt>
      <trkpt lat="44.17525" lon="3.61533">
        <ele>891.3</ele>
        <time>2021-08-12T08:00:21Z</time>
      </trkpt>
      <trkpt lat="44.17528" lon="3.61534">
        <ele>891.9</ele>
        <time>2021-08-12T08:00:23Z</time>
      </trkpt>
      <trkpt lat="44.17532" lon="3.61535">
        <ele>892.3</ele>
        <time>2021-08-12T08:00:25Z</time>
      </trkpt>
      <trkpt lat="44.17535" lon="3.61536">
        <ele>892.8</ele>
        <time>2021-08-12T08:00:27Z</time>
      </trkpt>
      <trkpt lat="44.1754" lon="3.61537">
        <ele>893.5</ele>
        <time>2021-08-12T08:00:29Z</time>
      </trkpt>
      <trkpt lat="44.17544" lon="3.61537">
        <ele>894.3</ele>
        <time>2021-08-12T08:00:31Z</time>
      </trkpt>
      <trkpt lat="44.17548" lon="3.61539">
        <ele>894.5</ele>
        <time>2021-08-12T08:00:33Z</time>
      </trkpt>
      <trkpt lat="44.17552" lon="3.61541">
        <ele>894.9</ele>
        <time>2021-08-12T08:00:35Z</time>
      </trkpt>
      <trkpt lat="44.17555" lon="3.61544">
        <ele>894.8</ele>
        <time>2021-08-12T08:00:37Z</time>
      </trkpt>
      <trkpt lat="44.17558" lon="3.61546">
        <ele>894.9</ele>
        <time>2021-08-12T08:00:39Z</time>
      </trkpt>
      <trkpt lat="44.17561" lon="3.61549">
        <ele>894.8</ele>
        <time>2021-08-12T08:00:41Z</time>
      </trkpt>
      <trkpt lat="44.17564" lon="3.61552">
        <ele>894.5</ele>
        <time>2021-08-12T08:00:43Z</time>
      </trkpt>
      <trkpt lat="44.17567" lon="3.61556">
        <ele>894.1</ele>
        <time>2021-08-12T08:00:45Z</time>
      </trkpt>
      <trkpt lat="44.17569" lon="3.6156">
        <ele>893.7</ele>
        <time>2021-08-12T08:00:47Z</time>
      </trkpt>
      <trkpt lat="44.17572" lon="3.61564">
        <ele>893.4</ele>
        <time>2021-08-12T08:00:49Z</time>
      </trkpt>
      <trkpt lat="44.17575" lon="3.61567">
        <ele>893</ele>
        <time>2021-08-12T08:00:51Z</time>
      </trkpt>
      <trkpt lat="44.17576" lon="3.61571">
        <ele>892.5</ele>
        <time>2021-08-12T08:00:53Z</time>
      </trkpt>
      <trkpt lat="44.17579" lon="3.61574">
        <ele>892.5</ele>
        <time>2021-08-12T08:00:55Z</time>
      </trkpt>
      <trkpt lat="44.17581" lon="3.61577">
        <ele>892.1</ele>
        <time>2021-08-12T08:00:57Z</time>
      </trkpt>
      <trkpt lat="44.17584" lon="3.61579">
        <ele>892.2</ele>
        <time>2021-08-12T08:00:59Z</time>
      </trkpt>
      <trkpt lat="44.17588" lon="3.61578">
        <ele>892.4</ele>
        <time>2021-08-12T08:01:01Z</time>
      </trkpt>
      <trkpt lat="44.17591" lon="3.61575">
        <ele>893.1</ele>
        <time>2021-08-12T08:01:03Z</time>
      </trkpt>
      <trkpt lat="44.17592" lon="3.61568">
        <ele>895.1</ele>
        <time>2021-08-12T08:01:05Z</time>
      </trkpt>
      <trkpt lat="44.17589" lon="3.61562">
        <ele>896.7</ele>
        <time>2021-08-12T08:01:07Z</time>
      </trkpt>
      <trkpt lat="44.17585" lon="3.61558">
        <ele>897.8</ele>
        <time>2021-08-12T08:01:09Z</time>
      </trkpt>
      <trkpt lat="44.17581" lon="3.61554">
        <ele>898.1</ele>
        <time>2021-08-12T08:01:11Z</time>
      </trkpt>
      <trkpt lat="44.17578" lon="3.6155">
        <ele>898.3</ele>
        <time>2021-08-12T08:01:13Z</time>
      </trkpt>
      <trkpt lat="44.17574" lon="3.61547">
        <ele>898.6</ele>
        <time>2021-08-12T08:01:15Z</time>
      </trkpt>
      <trkpt lat="44.17571" lon="3.61543">
        <ele>898.7</ele>
        <time>2021-08-12T08:01:17Z</time>
      </trkpt>
      <trkpt lat="44.17568" lon="3.6154">
        <ele>899.1</ele>
        <time>2021-08-12T08:01:19Z</time>
      </trkpt>
      <trkpt lat="44.17565" lon="3.61537">
        <ele>899.3</ele>
        <time>2021-08-12T08:01:21Z</time>
      </trkpt>
      <trkpt lat="44.17562" lon="3.61533">
        <ele>899.6</ele>
        <time>2021-08-12T08:01:23Z</time>
      </trkpt>
      <trkpt lat="44.17559" lon="3.6153">
        <ele>899.9</ele>
        <time>2021-08-12T08:01:25Z</time>
      </trkpt>
      <trkpt lat="44.17557" lon="3.61527">
        <ele>900.4</ele>
        <time>2021-08-12T08:01:27Z</time>
      </trkpt>
      <trkpt lat="44.17554" lon="3.61524">
        <ele>900.6</ele>
        <time>2021-08-12T08:01:29Z</time>
      </trkpt>
      <trkpt lat="44.1755" lon="3.61521">
        <ele>900.7</ele>
        <time>2021-08-12T08:01:31Z</time>
      </trkpt>
      <trkpt lat="44.17546" lon="3.6152">
        <ele>900.1</ele>
        <time>2021-08-12T08:01:33Z</time>
      </trkpt>
      <trkpt lat="44.17543" lon="3.61519">
        <ele>899.7</ele>
        <time>2021-08-12T08:01:35Z</time>
      </trkpt>
      <trkpt lat="44.17539" lon="3.61519">
        <ele>899.1</ele>
        <time>2021-08-12T08:01:37Z</time>
      </trkpt>
      <trkpt lat="44.17535" lon="3.61518">
        <ele>898.4</ele>
        <time>2021-08-12T08:01:39Z</time>
      </trkpt>
      <trkpt lat="44.17531" lon="3.61516">
        <ele>898.3</ele>
        <time>2021-08-12T08:01:41Z</time>
      </trkpt>
      <trkpt lat="44.17528" lon="3.61514">
        <ele>898.3</ele>
        <time>2021-08-12T08:01:43Z</time>
      </trkpt>
      <trkpt lat="44.17525" lon="3.61511">
        <ele>898.8</ele>
        <time>2021-08-12T08:01:45Z</time>
      </trkpt>
      <trkpt lat="44.17522" lon="3.61507">
        <ele>899.6</ele>
        <time>2021-08-12T08:01:47Z</time>
      </trkpt>
      <trkpt lat="44.1752" lon="3.61503">
        <ele>900.7</ele>
        <time>2021-08-12T08:01:49Z</time>
      </trkpt>
      <trkpt lat="44.17518" lon="3.61499">
        <ele>901.7</ele>
        <time>2021-08-12T08:01:51Z</time>
      </trkpt>
      <trkpt lat="44.17517" lon="3.61494">
        <ele>903.8</ele>
        <time>2021-08-12T08:01:53Z</time>
      </trkpt>
      <trkpt lat="44.17515" lon="3.61489">
        <ele>905.5</ele>
        <time>2021-08-12T08:01:55Z</time>
      </trkpt>
      <trkpt lat="44.17513" lon="3.61485">
        <ele>907.1</ele>
        <time>2021-08-12T08:01:57Z</time>
      </trkpt>
      <trkpt lat="44.17512" lon="3.61481">
        <ele>908.9</ele>
        <time>2021-08-12T08:01:59Z</time>
      </trkpt>
      <trkpt lat="44.1751" lon="3.61476">
        <ele>910.7</ele>
        <time>2021-08-12T08:02:01Z</time>
      </trkpt>
      <trkpt lat="44.17508" lon="3.61472">
        <ele>912.2</ele>
        <time>2021-08-12T08:02:03Z</time>
      </trkpt>
      <trkpt lat="44.17505" lon="3.61469">
        <ele>913.1</ele>
        <time>2021-08-12T08:02:05Z</time>
      </trkpt>
      <trkpt lat="44.17502" lon="3.61467">
        <ele>913.8</ele>
        <time>2021-08-12T08:02:07Z</time>
      </trkpt>
      <trkpt lat="44.17499" lon="3.61465">
        <ele>914.4</ele>
        <time>2021-08-12T08:02:09Z</time>
      </trkpt>
      <trkpt lat="44.17495" lon="3.61466">
        <ele>913.8</ele>
        <time>2021-08-12T08:02:11Z</time>
      </trkpt>
      <trkpt lat="44.17492" lon="3.61467">
        <ele>913.1</ele>
        <time>2021-08-12T08:02:13Z</time>
      </trkpt>
      <trkpt lat="44.17488" lon="3.61469">
        <ele>911.9</ele>
        <time>2021-08-12T08:02:15Z</time>
      </trkpt>
      <trkpt lat="44.17485" lon="3.6147">
        <ele>911.1</ele>
        <time>2021-08-12T08:02:17Z</time>
      </trkpt>
      <trkpt lat="44.17482" lon="3.61471">
        <ele>910.4</ele>
        <time>2021-08-12T08:02:19Z</time>
      </trkpt>
      <trkpt lat="44.17478" lon="3.61471">
        <ele>910.2</ele>
        <time>2021-08-12T08:02:21Z</time>
      </trkpt>
      <trkpt lat="44.17475" lon="3.6147">
        <ele>910.4</ele>
        <time>2021-08-12T08:02:23Z</time>
      </trkpt>
      <trkpt lat="44.17471" lon="3.6147">
        <ele>910.3</ele>
        <time>2021-08-12T08:02:25Z</time>
      </trkpt>
      <trkpt lat="44.17468" lon="3.61469">
        <ele>910.7</ele>
        <time>2021-08-12T08:02:27Z</time>
      </trkpt>
      <trkpt lat="44.17465" lon="3.61467">
        <ele>911.3</ele>
        <time>2021-08-12T08:02:29Z</time>
      </trkpt>
      <trkpt lat="44.17462" lon="3.61464">
        <ele>912.7</ele>
        <time>2021-08-12T08:02:31Z</time>
      </trkpt>
      <trkpt lat="44.17459" lon="3.61462">
        <ele>913.5</ele>
        <time>2021-08-12T08:02:33Z</time>
      </trkpt>
      <trkpt lat="44.17456" lon="3.61459">
        <ele>914.3</ele>
        <time>2021-08-12T08:02:35Z</time>
      </trkpt>
      <trkpt lat="44.17453" lon="3.61457">
        <ele>915.4</ele>
        <time>2021-08-12T08:02:37Z</time>
      </trkpt>
      <trkpt lat="44.1745" lon="3.61455">
        <ele>916.2</ele>
        <time>2021-08-12T08:02:39Z</time>
      </trkpt>
      <trkpt lat="44.17447" lon="3.61452">
        <ele>917.5</ele>
        <time>2021-08-12T08:02:41Z</time>
      </trkpt>
      <trkpt lat="44.17445" lon="3.61449">
        <ele>918.6</ele>
        <time>2021-08-12T08:02:43Z</time>
      </trkpt>
      <trkpt lat="44.17441" lon="3.61447">
        <ele>919.3</ele>
        <time>2021-08-12T08:02:45Z</time>
      </trkpt>
      <trkpt lat="44.17438" lon="3.61446">
        <ele>919.6</ele>
        <time>2021-08-12T08:02:47Z</time>
      </trkpt>
      <trkpt lat="44.17435" lon="3.61445">
        <ele>919.9</ele>
        <time>2021-08-12T08:02:49Z</time>
      </trkpt>
      <trkpt lat="44.17431" lon="3.61445">
        <ele>919.9</ele>
        <time>2021-08-12T08:02:51Z</time>
      </trkpt>
      <trkpt lat="44.17428" lon="3.61445">
        <ele>919.5</ele>
        <time>2021-08-12T08:02:53Z</time>
      </trkpt>
      <trkpt lat="44.17425" lon="3.61445">
        <ele>919.6</ele>
        <time>2021-08-12T08:02:55Z</time>
      </trkpt>
      <trkpt lat="44.17422" lon="3.61445">
        <ele>919.4</ele>
        <time>2021-08-12T08:02:57Z</time>
      </trkpt>
      <trkpt lat="44.17418" lon="3.61445">
        <ele>919</ele>
        <time>2021-08-12T08:02:59Z</time>
      </trkpt>
      <trkpt lat="44.17415" lon="3.61446">
        <ele>918.9</ele>
        <time>2021-08-12T08:03:01Z</time>
      </trkpt>
      <trkpt lat="44.17411" lon="3.61446">
        <ele>919.2</ele>
        <time>2021-08-12T08:03:03Z</time>
      </trkpt>
      <trkpt lat="44.17408" lon="3.61447">
        <ele>919.6</ele>
        <time>2021-08-12T08:03:05Z</time>
      </trkpt>
      <trkpt lat="44.17405" lon="3.61446">
        <ele>920.1</ele>
        <time>2021-08-12T08:03:07Z</time>
      </trkpt>
      <trkpt lat="44.17401" lon="3.61447">
        <ele>920.3</ele>
        <time>2021-08-12T08:03:09Z</time>
      </trkpt>
      <trkpt lat="44.17398" lon="3.61448">
        <ele>920.4</ele>
        <time>2021-08-12T08:03:11Z</time>
      </trkpt>
      <trkpt lat="44.17395" lon="3.61449">
        <ele>920.6</ele>
        <time>2021-08-12T08:03:13Z</time>
      </trkpt>
      <trkpt lat="44.17392" lon="3.61449">
        <ele>921.1</ele>
        <time>2021-08-12T08:03:15Z</time>
      </trkpt>
      <trkpt lat="44.17388" lon="3.61449">
        <ele>921.6</ele>
        <time>2021-08-12T08:03:17Z</time>
      </trkpt>
      <trkpt lat="44.17385" lon="3.6145">
        <ele>921.7</ele>
        <time>2021-08-12T08:03:19Z</time>
      </trkpt>
      <trkpt lat="44.17382" lon="3.6145">
        <ele>922</ele>
        <time>2021-08-12T08:03:21Z</time>
      </trkpt>
      <trkpt lat="44.17378" lon="3.6145">
        <ele>922.4</ele>
        <time>2021-08-12T08:03:23Z</time>
      </trkpt>
      <trkpt lat="44.17375" lon="3.6145">
        <ele>923.1</ele>
        <time>2021-08-12T08:03:25Z</time>
      </trkpt>
      <trkpt lat="44.17371" lon="3.6145">
        <ele>923.8</ele>
        <time>2021-08-12T08:03:27Z</time>
      </trkpt>
      <trkpt lat="44.17368" lon="3.61449">
        <ele>924.6</ele>
        <time>2021-08-12T08:03:29Z</time>
      </trkpt>
      <trkpt lat="44.17365" lon="3.61448">
        <ele>925.6</ele>
        <time>2021-08-12T08:03:31Z</time>
      </trkpt>
      <trkpt lat="44.17361" lon="3.61446">
        <ele>926.7</ele>
        <time>2021-08-12T08:03:33Z</time>
      </trkpt>
      <trkpt lat="44.17358" lon="3.61444">
        <ele>927.9</ele>
        <time>2021-08-12T08:03:35Z</time>
      </trkpt>
      <trkpt lat="44.17355" lon="3.61443">
        <ele>928.6</ele>
        <time>2021-08-12T08:03:37Z</time>
      </trkpt>
      <trkpt lat="44.17351" lon="3.61445">
        <ele>928.5</ele>
        <time>2021-08-12T08:03:39Z</time>
      </trkpt>
      <trkpt lat="44.17348" lon="3.61446">
        <ele>928.5</ele>
        <time>2021-08-12T08:03:41Z</time>
      </trkpt>
      <trkpt lat="44.17345" lon="3.61448">
        <ele>928.5</ele>
        <time>2021-08-12T08:03:43Z</time>
      </trkpt>
      <trkpt lat="44.17341" lon="3.6145">
        <ele>928.5</ele>
        <time>2021-08-12T08:03:45Z</time>
      </trkpt>
      <trkpt lat="44.17338" lon="3.61451">
        <ele>928.4</ele>
        <time>2021-08-12T08:03:47Z</time>
      </trkpt>
      <trkpt lat="44.17335" lon="3.61454">
        <ele>928.1</ele>
        <time>2021-08-12T08:03:49Z</time>
      </trkpt>
      <trkpt lat="44.17333" lon="3.61456">
        <ele>927.8</ele>
        <time>2021-08-12T08:03:51Z</time>
      </trkpt>
      <trkpt lat="44.1733" lon="3.61458">
        <ele>928.1</ele>
        <time>2021-08-12T08:03:53Z</time>
      </trkpt>
      <trkpt lat="44.17328" lon="3.61461">
        <ele>927.9</ele>
        <time>2021-08-12T08:03:55Z</time>
      </trkpt>
      <trkpt lat="44.17326" lon="3.61466">
        <ele>927.2</ele>
        <time>2021-08-12T08:03:57Z</time>
      </trkpt>
      <trkpt lat="44.17325" lon="3.6147">
        <ele>926.4</ele>
        <time>2021-08-12T08:03:59Z</time>
      </trkpt>
      <trkpt lat="44.17323" lon="3.61474">
        <ele>925.7</ele>
        <time>2021-08-12T08:04:01Z</time>
      </trkpt>
      <trkpt lat="44.17322" lon="3.61477">
        <ele>925.2</ele>
        <time>2021-08-12T08:04:03Z</time>
      </trkpt>
      <trkpt lat="44.17321" lon="3.61481">
        <ele>924.3</ele>
        <time>2021-08-12T08:04:05Z</time>
      </trkpt>
      <trkpt lat="44.17319" lon="3.61484">
        <ele>923.8</ele>
        <time>2021-08-12T08:04:07Z</time>
      </trkpt>
      <trkpt lat="44.17317" lon="3.61488">
        <ele>923.2</ele>
        <time>2021-08-12T08:04:09Z</time>
      </trkpt>
      <trkpt lat="44.17316" lon="3.61491">
        <ele>922.7</ele>
        <time>2021-08-12T08:04:11Z</time>
      </trkpt>
      <trkpt lat="44.17314" lon="3.61495">
        <ele>922.2</ele>
        <time>2021-08-12T08:04:13Z</time>
      </trkpt>
      <trkpt lat="44.17312" lon="3.61498">
        <ele>921.8</ele>
        <time>2021-08-12T08:04:15Z</time>
      </trkpt>
      <trkpt lat="44.1731" lon="3.61502">
        <ele>921.3</ele>
        <time>2021-08-12T08:04:17Z</time>
      </trkpt>
      <trkpt lat="44.17308" lon="3.61505">
        <ele>921.1</ele>
        <time>2021-08-12T08:04:19Z</time>
      </trkpt>
      <trkpt lat="44.17306" lon="3.61509">
        <ele>920.9</ele>
        <time>2021-08-12T08:04:21Z</time>
      </trkpt>
      <trkpt lat="44.17303" lon="3.61512">
        <ele>920.6</ele>
        <time>2021-08-12T08:04:23Z</time>
      </trkpt>
      <trkpt lat="44.17301" lon="3.61515">
        <ele>920.4</ele>
        <time>2021-08-12T08:04:25Z</time>
      </trkpt>
      <trkpt lat="44.17299" lon="3.61518">
        <ele>920.5</ele>
        <time>2021-08-12T08:04:27Z</time>
      </trkpt>
      <trkpt lat="44.17296" lon="3.6152">
        <ele>920.7</ele>
        <time>2021-08-12T08:04:29Z</time>
      </trkpt>
      <trkpt lat="44.17292" lon="3.61522">
        <ele>921.3</ele>
        <time>2021-08-12T08:04:31Z</time>
      </trkpt>
      <trkpt lat="44.17289" lon="3.61523">
        <ele>921.9</ele>
        <time>2021-08-12T08:04:33Z</time>
      </trkpt>
      <trkpt lat="44.17286" lon="3.61525">
        <ele>922.4</ele>
        <time>2021-08-12T08:04:35Z</time>
      </trkpt>
      <trkpt lat="44.17283" lon="3.61527">
        <ele>923.1</ele>
        <time>2021-08-12T08:04:37Z</time>
      </trkpt>
      <trkpt lat="44.17279" lon="3.61528">
        <ele>923.6</ele>
        <time>2021-08-12T08:04:39Z</time>
      </trkpt>
      <trkpt lat="44.17276" lon="3.61529">
        <ele>924.3</ele>
        <time>2021-08-12T08:04:41Z</time>
      </trkpt>
      <trkpt lat="44.17273" lon="3.61531">
        <ele>924.8</ele>
        <time>2021-08-12T08:04:43Z</time>
      </trkpt>
      <trkpt lat="44.1727" lon="3.61532">
        <ele>925.4</ele>
        <time>2021-08-12T08:04:45Z</time>
      </trkpt>
      <trkpt lat="44.17267" lon="3.61534">
        <ele>925.9</ele>
        <time>2021-08-12T08:04:47Z</time>
      </trkpt>
      <trkpt lat="44.17263" lon="3.61535">
        <ele>926.5</ele>
        <time>2021-08-12T08:04:49Z</time>
      </trkpt>
      <trkpt lat="44.1726" lon="3.61537">
        <ele>926.9</ele>
        <time>2021-08-12T08:04:51Z</time>
      </trkpt>
      <trkpt lat="44.17257" lon="3.61538">
        <ele>927.4</ele>
        <time>2021-08-12T08:04:53Z</time>
      </trkpt>
      <trkpt lat="44.17254" lon="3.61539">
        <ele>928.1</ele>
        <time>2021-08-12T08:04:55Z</time>
      </trkpt>
      <trkpt lat="44.17251" lon="3.6154">
        <ele>928.8</ele>
        <time>2021-08-12T08:04:57Z</time>
      </trkpt>
      <trkpt lat="44.17247" lon="3.61541">
        <ele>929.4</ele>
        <time>2021-08-12T08:04:59Z</time>
      </trkpt>
      <trkpt lat="44.17244" lon="3.61543">
        <ele>929.8</ele>
        <time>2021-08-12T08:05:01Z</time>
      </trkpt>
      <trkpt lat="44.1724" lon="3.61544">
        <ele>930.3</ele>
        <time>2021-08-12T08:05:03Z</time>
      </trkpt>
      <trkpt lat="44.17237" lon="3.61545">
        <ele>930.8</ele>
        <time>2021-08-12T08:05:05Z</time>
      </trkpt>
      <trkpt lat="44.17234" lon="3.61546">
        <ele>931.4</ele>
        <time>2021-08-12T08:05:07Z</time>
      </trkpt>
      <trkpt lat="44.1723" lon="3.61547">
        <ele>931.9</ele>
        <time>2021-08-12T08:05:09Z</time>
      </trkpt>
      <trkpt lat="44.17227" lon="3.61547">
        <ele>932.7</ele>
        <time>2021-08-12T08:05:11Z</time>
      </trkpt>
      <trkpt lat="44.17223" lon="3.61548">
        <ele>933.3</ele>
        <time>2021-08-12T08:05:13Z</time>
      </trkpt>
      <trkpt lat="44.1722" lon="3.61549">
        <ele>934</ele>
        <time>2021-08-12T08:05:15Z</time>
      </trkpt>
      <trkpt lat="44.17217" lon="3.61549">
        <ele>934.7</ele>
        <time>2021-08-12T08:05:17Z</time>
      </trkpt>
      <trkpt lat="44.17213" lon="3.61549">
        <ele>935.5</ele>
        <time>2021-08-12T08:05:19Z</time>
      </trkpt>
      <trkpt lat="44.1721" lon="3.6155">
        <ele>936.2</ele>
        <time>2021-08-12T08:05:21Z</time>
      </trkpt>
      <trkpt lat="44.17206" lon="3.61551">
        <ele>936.9</ele>
        <time>2021-08-12T08:05:23Z</time>
      </trkpt>
      <trkpt lat="44.17203" lon="3.61552">
        <ele>937.6</ele>
        <time>2021-08-12T08:05:25Z</time>
      </trkpt>
      <trkpt lat="44.17199" lon="3.61552">
        <ele>938.3</ele>
        <time>2021-08-12T08:05:27Z</time>
      </trkpt>
      <trkpt lat="44.17196" lon="3.61553">
        <ele>939.1</ele>
        <time>2021-08-12T08:05:29Z</time>
      </trkpt>
      <trkpt lat="44.17192" lon="3.61553">
        <ele>939.8</ele>
        <time>2021-08-12T08:05:31Z</time>
      </trkpt>
      <trkpt lat="44.17189" lon="3.61554">
        <ele>940.5</ele>
        <time>2021-08-12T08:05:33Z</time>
      </trkpt>
      <trkpt lat="44.17186" lon="3.61555">
        <ele>941.3</ele>
        <time>2021-08-12T08:05:35Z</time>
      </trkpt>
      <trkpt lat="44.17182" lon="3.61555">
        <ele>942.1</ele>
        <time>2021-08-12T08:05:37Z</time>
      </trkpt>
      <trkpt lat="44.17179" lon="3.61555">
        <ele>942.8</ele>
        <time>2021-08-12T08:05:39Z</time>
      </trkpt>
      <trkpt lat="44.17176" lon="3.61557">
        <ele>943.1</ele>
        <time>2021-08-12T08:05:41Z</time>
      </trkpt>
      <trkpt lat="44.17173" lon="3.6156">
        <ele>943.2</ele>
        <time>2021-08-12T08:05:43Z</time>
      </trkpt>
      <trkpt lat="44.1717" lon="3.61564">
        <ele>942.9</ele>
        <time>2021-08-12T08:05:45Z</time>
      </trkpt>
      <trkpt lat="44.17169" lon="3.61568">
        <ele>942.1</ele>
        <time>2021-08-12T08:05:47Z</time>
      </trkpt>
      <trkpt lat="44.17169" lon="3.61573">
        <ele>941</ele>
        <time>2021-08-12T08:05:49Z</time>
      </trkpt>
      <trkpt lat="44.17169" lon="3.61577">
        <ele>939.9</ele>
        <time>2021-08-12T08:05:51Z</time>
      </trkpt>
      <trkpt lat="44.17169" lon="3.61582">
        <ele>938.8</ele>
        <time>2021-08-12T08:05:53Z</time>
      </trkpt>
      <trkpt lat="44.17168" lon="3.61587">
        <ele>937.9</ele>
        <time>2021-08-12T08:05:55Z</time>
      </trkpt>
      <trkpt lat="44.17168" lon="3.61591">
        <ele>937</ele>
        <time>2021-08-12T08:05:57Z</time>
      </trkpt>
      <trkpt lat="44.17167" lon="3.61596">
        <ele>936.3</ele>
        <time>2021-08-12T08:05:59Z</time>
      </trkpt>
      <trkpt lat="44.17166" lon="3.61601">
        <ele>935.5</ele>
        <time>2021-08-12T08:06:01Z</time>
      </trkpt>
      <trkpt lat="44.17165" lon="3.61605">
        <ele>934.7</ele>
        <time>2021-08-12T08:06:03Z</time>
      </trkpt>
      <trkpt lat="44.17163" lon="3.6161">
        <ele>933.9</ele>
        <time>2021-08-12T08:06:05Z</time>
      </trkpt>
      <trkpt lat="44.17161" lon="3.61614">
        <ele>933.2</ele>
        <time>2021-08-12T08:06:07Z</time>
      </trkpt>
      <trkpt lat="44.17159" lon="3.61617">
        <ele>932.8</ele>
        <time>2021-08-12T08:06:09Z</time>
      </trkpt>
      <trkpt lat="44.17156" lon="3.61619">
        <ele>932.5</ele>
        <time>2021-08-12T08:06:11Z</time>
      </trkpt>
      <trkpt lat="44.17152" lon="3.6162">
        <ele>932.4</ele>
        <time>2021-08-12T08:06:13Z</time>
      </trkpt>
      <trkpt lat="44.17149" lon="3.61621">
        <ele>932.6</ele>
        <time>2021-08-12T08:06:15Z</time>
      </trkpt>
      <trkpt lat="44.17145" lon="3.6162">
        <ele>933.1</ele>
        <time>2021-08-12T08:06:17Z</time>
      </trkpt>
      <trkpt lat="44.17142" lon="3.61619">
        <ele>933.5</ele>
        <time>2021-08-12T08:06:19Z</time>
      </trkpt>
      <trkpt lat="44.17139" lon="3.61618">
        <ele>934</ele>
        <time>2021-08-12T08:06:21Z</time>
      </trkpt>
      <trkpt lat="44.17136" lon="3.61616">
        <ele>934.7</ele>
        <time>2021-08-12T08:06:23Z</time>
      </trkpt>
      <trkpt lat="44.17133" lon="3.61615">
        <ele>935.3</ele>
        <time>2021-08-12T08:06:25Z</time>
      </trkpt>
      <trkpt lat="44.1713" lon="3.61614">
        <ele>935.9</ele>
        <time>2021-08-12T08:06:27Z</time>
      </trkpt>
      <trkpt lat="44.17126" lon="3.61613">
        <ele>936.6</ele>
        <time>2021-08-12T08:06:29Z</time>
      </trkpt>
      <trkpt lat="44.17123" lon="3.61611">
        <ele>937.3</ele>
        <time>2021-08-12T08:06:31Z</time>
      </trkpt>
      <trkpt lat="44.17121" lon="3.61609">
        <ele>938.1</ele>
        <time>2021-08-12T08:06:33Z</time>
      </trkpt>
      <trkpt lat="44.17118" lon="3.61608">
        <ele>938.9</ele>
        <time>2021-08-12T08:06:35Z</time>
      </trkpt>
      <trkpt lat="44.17115" lon="3.61607">
        <ele>939.6</ele>
        <time>2021-08-12T08:06:37Z</time>
      </trkpt>
      <trkpt lat="44.17112" lon="3.61606">
        <ele>940.2</ele>
        <time>2021-08-12T08:06:39Z</time>
      </trkpt>
      <trkpt lat="44.17108" lon="3.61605">
        <ele>940.8</ele>
        <time>2021-08-12T08:06:41Z</time>
      </trkpt>
      <trkpt lat="44.17105" lon="3.61604">
        <ele>941.4</ele>
        <time>2021-08-12T08:06:43Z</time>
      </trkpt>
      <trkpt lat="44.17102" lon="3.61604">
        <ele>942</ele>
        <time>2021-08-12T08:06:45Z</time>
      </trkpt>
      <trkpt lat="44.17099" lon="3.61604">
        <ele>942.3</ele>
        <time>2021-08-12T08:06:47Z</time>
      </trkpt>
      <trkpt lat="44.17095" lon="3.61603">
        <ele>942.9</ele>
        <time>2021-08-12T08:06:49Z</time>
      </trkpt>
      <trkpt lat="44.17092" lon="3.61603">
        <ele>943.1</ele>
        <time>2021-08-12T08:06:51Z</time>
      </trkpt>
      <trkpt lat="44.17089" lon="3.61603">
        <ele>943.5</ele>
        <time>2021-08-12T08:06:53Z</time>
      </trkpt>
      <trkpt lat="44.17086" lon="3.61603">
        <ele>944.1</ele>
        <time>2021-08-12T08:06:55Z</time>
      </trkpt>
      <trkpt lat="44.17082" lon="3.61603">
        <ele>944.6</ele>
        <time>2021-08-12T08:06:57Z</time>
      </trkpt>
      <trkpt lat="44.17079" lon="3.61602">
        <ele>945.7</ele>
        <time>2021-08-12T08:06:59Z</time>
      </trkpt>
      <trkpt lat="44.17075" lon="3.61602">
        <ele>946.6</ele>
        <time>2021-08-12T08:07:01Z</time>
      </trkpt>
      <trkpt lat="44.17072" lon="3.61602">
        <ele>947.6</ele>
        <time>2021-08-12T08:07:03Z</time>
      </trkpt>
      <trkpt lat="44.17069" lon="3.61601">
        <ele>948.7</ele>
        <time>2021-08-12T08:07:05Z</time>
      </trkpt>
      <trkpt lat="44.17065" lon="3.61599">
        <ele>950.3</ele>
        <time>2021-08-12T08:07:07Z</time>
      </trkpt>
      <trkpt lat="44.17062" lon="3.61599">
        <ele>951.3</ele>
        <time>2021-08-12T08:07:09Z</time>
      </trkpt>
      <trkpt lat="44.17059" lon="3.61598">
        <ele>952.4</ele>
        <time>2021-08-12T08:07:11Z</time>
      </trkpt>
      <trkpt lat="44.17055" lon="3.61597">
        <ele>953.6</ele>
        <time>2021-08-12T08:07:13Z</time>
      </trkpt>
      <trkpt lat="44.17052" lon="3.61598">
        <ele>954</ele>
        <time>2021-08-12T08:07:15Z</time>
      </trkpt>
      <trkpt lat="44.17048" lon="3.616">
        <ele>954.3</ele>
        <time>2021-08-12T08:07:17Z</time>
      </trkpt>
      <trkpt lat="44.17045" lon="3.61601">
        <ele>954.7</ele>
        <time>2021-08-12T08:07:19Z</time>
      </trkpt>
      <trkpt lat="44.17042" lon="3.61604">
        <ele>954.3</ele>
        <time>2021-08-12T08:07:21Z</time>
      </trkpt>
      <trkpt lat="44.17039" lon="3.61607">
        <ele>953.9</ele>
        <time>2021-08-12T08:07:23Z</time>
      </trkpt>
      <trkpt lat="44.17036" lon="3.6161">
        <ele>953.2</ele>
        <time>2021-08-12T08:07:25Z</time>
      </trkpt>
      <trkpt lat="44.17034" lon="3.61614">
        <ele>952.4</ele>
        <time>2021-08-12T08:07:27Z</time>
      </trkpt>
      <trkpt lat="44.17032" lon="3.61616">
        <ele>952</ele>
        <time>2021-08-12T08:07:29Z</time>
      </trkpt>
      <trkpt lat="44.17029" lon="3.61619">
        <ele>951.5</ele>
        <time>2021-08-12T08:07:31Z</time>
      </trkpt>
      <trkpt lat="44.17026" lon="3.61623">
        <ele>950.8</ele>
        <time>2021-08-12T08:07:33Z</time>
      </trkpt>
      <trkpt lat="44.17024" lon="3.61625">
        <ele>950.4</ele>
        <time>2021-08-12T08:07:35Z</time>
      </trkpt>
      <trkpt lat="44.17021" lon="3.61628">
        <ele>950</ele>
        <time>2021-08-12T08:07:37Z</time>
      </trkpt>
      <trkpt lat="44.17018" lon="3.61631">
        <ele>949.7</ele>
        <time>2021-08-12T08:07:39Z</time>
      </trkpt>
      <trkpt lat="44.17015" lon="3.61633">
        <ele>949.7</ele>
        <time>2021-08-12T08:07:41Z</time>
      </trkpt>
      <trkpt lat="44.17012" lon="3.61635">
        <ele>949.7</ele>
        <time>2021-08-12T08:07:43Z</time>
      </trkpt>
      <trkpt lat="44.17009" lon="3.61637">
        <ele>949.7</ele>
        <time>2021-08-12T08:07:45Z</time>
      </trkpt>
      <trkpt lat="44.17006" lon="3.61638">
        <ele>949.9</ele>
        <time>2021-08-12T08:07:47Z</time>
      </trkpt>
      <trkpt lat="44.17003" lon="3.6164">
        <ele>949.9</ele>
        <time>2021-08-12T08:07:49Z</time>
      </trkpt>
      <trkpt lat="44.17" lon="3.61642">
        <ele>949.9</ele>
        <time>2021-08-12T08:07:51Z</time>
      </trkpt>
      <trkpt lat="44.16997" lon="3.61643">
        <ele>950.1</ele>
        <time>2021-08-12T08:07:53Z</time>
      </trkpt>
      <trkpt lat="44.16994" lon="3.61645">
        <ele>950</ele>
        <time>2021-08-12T08:07:55Z</time>
      </trkpt>
      <trkpt lat="44.1699" lon="3.61647">
        <ele>950.1</ele>
        <time>2021-08-12T08:07:57Z</time>
      </trkpt>
      <trkpt lat="44.16987" lon="3.61648">
        <ele>950.3</ele>
        <time>2021-08-12T08:07:59Z</time>
      </trkpt>
      <trkpt lat="44.16984" lon="3.6165">
        <ele>950.4</ele>
        <time>2021-08-12T08:08:01Z</time>
      </trkpt>
      <trkpt lat="44.16981" lon="3.61652">
        <ele>950.6</ele>
        <time>2021-08-12T08:08:03Z</time>
      </trkpt>
      <trkpt lat="44.16978" lon="3.61653">
        <ele>950.9</ele>
        <time>2021-08-12T08:08:05Z</time>
      </trkpt>
      <trkpt lat="44.16975" lon="3.61655">
        <ele>951</ele>
        <time>2021-08-12T08:08:07Z</time>
      </trkpt>
      <trkpt lat="44.16971" lon="3.61656">
        <ele>951.3</ele>
        <time>2021-08-12T08:08:09Z</time>
      </trkpt>
      <trkpt lat="44.16968" lon="3.61658">
        <ele>951.5</ele>
        <time>2021-08-12T08:08:11Z</time>
      </trkpt>
      <trkpt lat="44.16965" lon="3.61659">
        <ele>951.9</ele>
        <time>2021-08-12T08:08:13Z</time>
      </trkpt>
      <trkpt lat="44.16961" lon="3.61661">
        <ele>952.3</ele>
        <time>2021-08-12T08:08:15Z</time>
      </trkpt>
      <trkpt lat="44.16958" lon="3.61662">
        <ele>952.7</ele>
        <time>2021-08-12T08:08:17Z</time>
      </trkpt>
      <trkpt lat="44.16955" lon="3.61663">
        <ele>953.2</ele>
        <time>2021-08-12T08:08:19Z</time>
      </trkpt>
      <trkpt lat="44.16951" lon="3.61664">
        <ele>953.8</ele>
        <time>2021-08-12T08:08:21Z</time>
      </trkpt>
      <trkpt lat="44.16948" lon="3.61665">
        <ele>954.3</ele>
        <time>2021-08-12T08:08:23Z</time>
      </trkpt>
      <trkpt lat="44.16945" lon="3.61665">
        <ele>955</ele>
        <time>2021-08-12T08:08:25Z</time>
      </trkpt>
      <trkpt lat="44.16941" lon="3.61666">
        <ele>955.6</ele>
        <time>2021-08-12T08:08:27Z</time>
      </trkpt>
      <trkpt lat="44.16938" lon="3.61667">
        <ele>956.4</ele>
        <time>2021-08-12T08:08:29Z</time>
      </trkpt>
      <trkpt lat="44.16935" lon="3.61667">
        <ele>957.3</ele>
        <time>2021-08-12T08:08:31Z</time>
      </trkpt>
      <trkpt lat="44.16931" lon="3.61667">
        <ele>958</ele>
        <time>2021-08-12T08:08:33Z</time>
      </trkpt>
      <trkpt lat="44.16928" lon="3.61668">
        <ele>958.8</ele>
        <time>2021-08-12T08:08:35Z</time>
      </trkpt>
      <trkpt lat="44.16924" lon="3.61668">
        <ele>959.4</ele>
        <time>2021-08-12T08:08:37Z</time>
      </trkpt>
      <trkpt lat="44.16921" lon="3.61669">
        <ele>960.2</ele>
        <time>2021-08-12T08:08:39Z</time>
      </trkpt>
      <trkpt lat="44.16918" lon="3.6167">
        <ele>960.7</ele>
        <time>2021-08-12T08:08:41Z</time>
      </trkpt>
      <trkpt lat="44.16914" lon="3.6167">
        <ele>961.2</ele>
        <time>2021-08-12T08:08:43Z</time>
      </trkpt>
      <trkpt lat="44.16911" lon="3.61671">
        <ele>961.6</ele>
        <time>2021-08-12T08:08:45Z</time>
      </trkpt>
      <trkpt lat="44.16907" lon="3.61671">
        <ele>962.1</ele>
        <time>2021-08-12T08:08:47Z</time>
      </trkpt>
      <trkpt lat="44.16904" lon="3.61672">
        <ele>962.4</ele>
        <time>2021-08-12T08:08:49Z</time>
      </trkpt>
      <trkpt lat="44.16901" lon="3.61673">
        <ele>962.6</ele>
        <time>2021-08-12T08:08:51Z</time>
      </trkpt>
      <trkpt lat="44.16897" lon="3.61675">
        <ele>962.9</ele>
        <time>2021-08-12T08:08:53Z</time>
      </trkpt>
      <trkpt lat="44.16894" lon="3.61675">
        <ele>963.2</ele>
        <time>2021-08-12T08:08:55Z</time>
      </trkpt>
      <trkpt lat="44.1689" lon="3.61677">
        <ele>963.4</ele>
        <time>2021-08-12T08:08:57Z</time>
      </trkpt>
      <trkpt lat="44.16887" lon="3.61678">
        <ele>963.5</ele>
        <time>2021-08-12T08:08:59Z</time>
      </trkpt>
      <trkpt lat="44.16884" lon="3.6168">
        <ele>963.7</ele>
        <time>2021-08-12T08:09:01Z</time>
      </trkpt>
      <trkpt lat="44.1688" lon="3.61682">
        <ele>963.6</ele>
        <time>2021-08-12T08:09:03Z</time>
      </trkpt>
      <trkpt lat="44.16877" lon="3.61684">
        <ele>963.7</ele>
        <time>2021-08-12T08:09:05Z</time>
      </trkpt>
      <trkpt lat="44.16874" lon="3.61686">
        <ele>963.8</ele>
        <time>2021-08-12T08:09:07Z</time>
      </trkpt>
      <trkpt lat="44.16871" lon="3.61687">
        <ele>963.9</ele>
        <time>2021-08-12T08:09:09Z</time>
      </trkpt>
      <trkpt lat="44.16867" lon="3.61689">
        <ele>963.9</ele>
        <time>2021-08-12T08:09:11Z</time>
      </trkpt>
      <trkpt lat="44.16864" lon="3.61691">
        <ele>964</ele>
        <time>2021-08-12T08:09:13Z</time>
      </trkpt>
      <trkpt lat="44.16861" lon="3.61693">
        <ele>964.1</ele>
        <time>2021-08-12T08:09:15Z</time>
      </trkpt>
      <trkpt lat="44.16857" lon="3.61695">
        <ele>964.3</ele>
        <time>2021-08-12T08:09:17Z</time>
      </trkpt>
      <trkpt lat="44.16854" lon="3.61697">
        <ele>964.5</ele>
        <time>2021-08-12T08:09:19Z</time>
      </trkpt>
      <trkpt lat="44.16851" lon="3.61698">
        <ele>964.7</ele>
        <time>2021-08-12T08:09:21Z</time>
      </trkpt>
      <trkpt lat="44.16847" lon="3.617">
        <ele>964.9</ele>
        <time>2021-08-12T08:09:23Z</time>
      </trkpt>
      <trkpt lat="44.16844" lon="3.61702">
        <ele>965.1</ele>
        <time>2021-08-12T08:09:25Z</time>
      </trkpt>
      <trkpt lat="44.1684" lon="3.61703">
        <ele>965.4</ele>
        <time>2021-08-12T08:09:27Z</time>
      </trkpt>
      <trkpt lat="44.16837" lon="3.61704">
        <ele>965.8</ele>
        <time>2021-08-12T08:09:29Z</time>
      </trkpt>
      <trkpt lat="44.16834" lon="3.61706">
        <ele>966.1</ele>
        <time>2021-08-12T08:09:31Z</time>
      </trkpt>
      <trkpt lat="44.16831" lon="3.61707">
        <ele>966.5</ele>
        <time>2021-08-12T08:09:33Z</time>
      </trkpt>
      <trkpt lat="44.16827" lon="3.61709">
        <ele>966.9</ele>
        <time>2021-08-12T08:09:35Z</time>
      </trkpt>
      <trkpt lat="44.16824" lon="3.6171">
        <ele>967.4</ele>
        <time>2021-08-12T08:09:37Z</time>
      </trkpt>
      <trkpt lat="44.16821" lon="3.61712">
        <ele>967.7</ele>
        <time>2021-08-12T08:09:39Z</time>
      </trkpt>
      <trkpt lat="44.16818" lon="3.61713">
        <ele>968.3</ele>
        <time>2021-08-12T08:09:41Z</time>
      </trkpt>
      <trkpt lat="44.16815" lon="3.61714">
        <ele>968.7</ele>
        <time>2021-08-12T08:09:43Z</time>
      </trkpt>
      <trkpt lat="44.16811" lon="3.61716">
        <ele>969.2</ele>
        <time>2021-08-12T08:09:45Z</time>
      </trkpt>
      <trkpt lat="44.16808" lon="3.61717">
        <ele>969.7</ele>
        <time>2021-08-12T08:09:47Z</time>
      </trkpt>
      <trkpt lat="44.16805" lon="3.61718">
        <ele>970.1</ele>
        <time>2021-08-12T08:09:49Z</time>
      </trkpt>
      <trkpt lat="44.16801" lon="3.61719">
        <ele>970.7</ele>
        <time>2021-08-12T08:09:51Z</time>
      </trkpt>
      <trkpt lat="44.16798" lon="3.61721">
        <ele>971.1</ele>
        <time>2021-08-12T08:09:53Z</time>
      </trkpt>
      <trkpt lat="44.16795" lon="3.61722">
        <ele>971.3</ele>
        <time>2021-08-12T08:09:55Z</time>
      </trkpt>
      <trkpt lat="44.16792" lon="3.61724">
        <ele>971.7</ele>
        <time>2021-08-12T08:09:57Z</time>
      </trkpt>
      <trkpt lat="44.16788" lon="3.61725">
        <ele>972</ele>
        <time>2021-08-12T08:09:59Z</time>
      </trkpt>
      <trkpt lat="44.16785" lon="3.61727">
        <ele>972.4</ele>
        <time>2021-08-12T08:10:01Z</time>
      </trkpt>
      <trkpt lat="44.16782" lon="3.61728">
        <ele>972.9</ele>
        <time>2021-08-12T08:10:03Z</time>
      </trkpt>
      <trkpt lat="44.16778" lon="3.61729">
        <ele>973.4</ele>
        <time>2021-08-12T08:10:05Z</time>
      </trkpt>
      <trkpt lat="44.16775" lon="3.61731">
        <ele>973.7</ele>
        <time>2021-08-12T08:10:07Z</time>
      </trkpt>
      <trkpt lat="44.16772" lon="3.61732">
        <ele>973.8</ele>
        <time>2021-08-12T08:10:09Z</time>
      </trkpt>
      <trkpt lat="44.16769" lon="3.61734">
        <ele>974</ele>
        <time>2021-08-12T08:10:11Z</time>
      </trkpt>
      <trkpt lat="44.16765" lon="3.61736">
        <ele>974.3</ele>
        <time>2021-08-12T08:10:13Z</time>
      </trkpt>
      <trkpt lat="44.16762" lon="3.61738">
        <ele>974.4</ele>
        <time>2021-08-12T08:10:15Z</time>
      </trkpt>
      <trkpt lat="44.16759" lon="3.61739">
        <ele>974.5</ele>
        <time>2021-08-12T08:10:17Z</time>
      </trkpt>
      <trkpt lat="44.16756" lon="3.61741">
        <ele>974.7</ele>
        <time>2021-08-12T08:10:19Z</time>
      </trkpt>
      <trkpt lat="44.16752" lon="3.61743">
        <ele>974.9</ele>
        <time>2021-08-12T08:10:21Z</time>
      </trkpt>
      <trkpt lat="44.16749" lon="3.61745">
        <ele>975</ele>
        <time>2021-08-12T08:10:23Z</time>
      </trkpt>
      <trkpt lat="44.16746" lon="3.61747">
        <ele>975</ele>
        <time>2021-08-12T08:10:25Z</time>
      </trkpt>
      <trkpt lat="44.16743" lon="3.61749">
        <ele>975.1</ele>
        <time>2021-08-12T08:10:27Z</time>
      </trkpt>
      <trkpt lat="44.1674" lon="3.61751">
        <ele>975.1</ele>
        <time>2021-08-12T08:10:29Z</time>
      </trkpt>
      <trkpt lat="44.16737" lon="3.61753">
        <ele>975.3</ele>
        <time>2021-08-12T08:10:31Z</time>
      </trkpt>
      <trkpt lat="44.16734" lon="3.61755">
        <ele>975.5</ele>
        <time>2021-08-12T08:10:33Z</time>
      </trkpt>
      <trkpt lat="44.16731" lon="3.61757">
        <ele>975.7</ele>
        <time>2021-08-12T08:10:35Z</time>
      </trkpt>
      <trkpt lat="44.16728" lon="3.61759">
        <ele>975.9</ele>
        <time>2021-08-12T08:10:37Z</time>
      </trkpt>
      <trkpt lat="44.16725" lon="3.61761">
        <ele>976.1</ele>
        <time>2021-08-12T08:10:39Z</time>
      </trkpt>
      <trkpt lat="44.16722" lon="3.61764">
        <ele>976.1</ele>
        <time>2021-08-12T08:10:41Z</time>
      </trkpt>
      <trkpt lat="44.16719" lon="3.61766">
        <ele>976.2</ele>
        <time>2021-08-12T08:10:43Z</time>
      </trkpt>
      <trkpt lat="44.16716" lon="3.61768">
        <ele>976.4</ele>
        <time>2021-08-12T08:10:45Z</time>
      </trkpt>
      <trkpt lat="44.16713" lon="3.6177">
        <ele>976.5</ele>
        <time>2021-08-12T08:10:47Z</time>
      </trkpt>
      <trkpt lat="44.1671" lon="3.61772">
        <ele>976.5</ele>
        <time>2021-08-12T08:10:49Z</time>
      </trkpt>
      <trkpt lat="44.16707" lon="3.61775">
        <ele>976.5</ele>
        <time>2021-08-12T08:10:51Z</time>
      </trkpt>
      <trkpt lat="44.16704" lon="3.61776">
        <ele>976.8</ele>
        <time>2021-08-12T08:10:53Z</time>
      </trkpt>
      <trkpt lat="44.16701" lon="3.61778">
        <ele>977</ele>
        <time>2021-08-12T08:10:55Z</time>
      </trkpt>
      <trkpt lat="44.16698" lon="3.6178">
        <ele>977.2</ele>
        <time>2021-08-12T08:10:57Z</time>
      </trkpt>
      <trkpt lat="44.16694" lon="3.61782">
        <ele>977.4</ele>
        <time>2021-08-12T08:10:59Z</time>
      </trkpt>
      <trkpt lat="44.16691" lon="3.61784">
        <ele>977.8</ele>
        <time>2021-08-12T08:11:01Z</time>
      </trkpt>
      <trkpt lat="44.16688" lon="3.61786">
        <ele>977.9</ele>
        <time>2021-08-12T08:11:03Z</time>
      </trkpt>
      <trkpt lat="44.16685" lon="3.61787">
        <ele>978.3</ele>
        <time>2021-08-12T08:11:05Z</time>
      </trkpt>
      <trkpt lat="44.16682" lon="3.61788">
        <ele>978.5</ele>
        <time>2021-08-12T08:11:07Z</time>
      </trkpt>
      <trkpt lat="44.16679" lon="3.6179">
        <ele>978.8</ele>
        <time>2021-08-12T08:11:09Z</time>
      </trkpt>
      <trkpt lat="44.16676" lon="3.61791">
        <ele>979.2</ele>
        <time>2021-08-12T08:11:11Z</time>
      </trkpt>
      <trkpt lat="44.16673" lon="3.61792">
        <ele>979.6</ele>
        <time>2021-08-12T08:11:13Z</time>
      </trkpt>
      <trkpt lat="44.16669" lon="3.61793">
        <ele>979.9</ele>
        <time>2021-08-12T08:11:15Z</time>
      </trkpt>
      <trkpt lat="44.16666" lon="3.61794">
        <ele>980.3</ele>
        <time>2021-08-12T08:11:17Z</time>
      </trkpt>
      <trkpt lat="44.16663" lon="3.61796">
        <ele>980.4</ele>
        <time>2021-08-12T08:11:19Z</time>
      </trkpt>
      <trkpt lat="44.16659" lon="3.61797">
        <ele>980.5</ele>
        <time>2021-08-12T08:11:21Z</time>
      </trkpt>
      <trkpt lat="44.16656" lon="3.61799">
        <ele>980.6</ele>
        <time>2021-08-12T08:11:23Z</time>
      </trkpt>
      <trkpt lat="44.16652" lon="3.618">
        <ele>980.7</ele>
        <time>2021-08-12T08:11:25Z</time>
      </trkpt>
      <trkpt lat="44.16649" lon="3.61801">
        <ele>980.9</ele>
        <time>2021-08-12T08:11:27Z</time>
      </trkpt>
      <trkpt lat="44.16646" lon="3.61803">
        <ele>981</ele>
        <time>2021-08-12T08:11:29Z</time>
      </trkpt>
      <trkpt lat="44.16642" lon="3.61804">
        <ele>981.1</ele>
        <time>2021-08-12T08:11:31Z</time>
      </trkpt>
      <trkpt lat="44.16639" lon="3.61806">
        <ele>981.3</ele>
        <time>2021-08-12T08:11:33Z</time>
      </trkpt>
      <trkpt lat="44.16636" lon="3.61805">
        <ele>981.9</ele>
        <time>2021-08-12T08:11:35Z</time>
      </trkpt>
      <trkpt lat="44.16633" lon="3.61808">
        <ele>981.5</ele>
        <time>2021-08-12T08:11:37Z</time>
      </trkpt>
      <trkpt lat="44.1663" lon="3.61809">
        <ele>981.8</ele>
        <time>2021-08-12T08:11:39Z</time>
      </trkpt>
      <trkpt lat="44.16626" lon="3.61811">
        <ele>981.9</ele>
        <time>2021-08-12T08:11:41Z</time>
      </trkpt>
      <trkpt lat="44.16623" lon="3.61812">
        <ele>982</ele>
        <time>2021-08-12T08:11:43Z</time>
      </trkpt>
      <trkpt lat="44.1662" lon="3.61813">
        <ele>982.2</ele>
        <time>2021-08-12T08:11:45Z</time>
      </trkpt>
      <trkpt lat="44.16617" lon="3.61815">
        <ele>982.4</ele>
        <time>2021-08-12T08:11:47Z</time>
      </trkpt>
      <trkpt lat="44.16613" lon="3.61816">
        <ele>982.6</ele>
        <time>2021-08-12T08:11:49Z</time>
      </trkpt>
      <trkpt lat="44.1661" lon="3.61817">
        <ele>982.8</ele>
        <time>2021-08-12T08:11:51Z</time>
      </trkpt>
      <trkpt lat="44.16607" lon="3.61818">
        <ele>983</ele>
        <time>2021-08-12T08:11:53Z</time>
      </trkpt>
      <trkpt lat="44.16604" lon="3.61819">
        <ele>983.3</ele>
        <time>2021-08-12T08:11:55Z</time>
      </trkpt>
      <trkpt lat="44.166" lon="3.6182">
        <ele>983.6</ele>
        <time>2021-08-12T08:11:57Z</time>
      </trkpt>
      <trkpt lat="44.16597" lon="3.6182">
        <ele>984.1</ele>
        <time>2021-08-12T08:11:59Z</time>
      </trkpt>
      <trkpt lat="44.16593" lon="3.61821">
        <ele>984.6</ele>
        <time>2021-08-12T08:12:01Z</time>
      </trkpt>
      <trkpt lat="44.1659" lon="3.61821">
        <ele>985.1</ele>
        <time>2021-08-12T08:12:03Z</time>
      </trkpt>
      <trkpt lat="44.16587" lon="3.6182">
        <ele>985.8</ele>
        <time>2021-08-12T08:12:05Z</time>
      </trkpt>
      <trkpt lat="44.16583" lon="3.6182">
        <ele>986.4</ele>
        <time>2021-08-12T08:12:07Z</time>
      </trkpt>
      <trkpt lat="44.1658" lon="3.61819">
        <ele>986.4</ele>
        <time>2021-08-12T08:12:09Z</time>
      </trkpt>
      <trkpt lat="44.16576" lon="3.61818">
        <ele>986.5</ele>
        <time>2021-08-12T08:12:11Z</time>
      </trkpt>
      <trkpt lat="44.16573" lon="3.61816">
        <ele>986.7</ele>
        <time>2021-08-12T08:12:13Z</time>
      </trkpt>
      <trkpt lat="44.1657" lon="3.61814">
        <ele>986.9</ele>
        <time>2021-08-12T08:12:15Z</time>
      </trkpt>
      <trkpt lat="44.16567" lon="3.61813">
        <ele>987.2</ele>
        <time>2021-08-12T08:12:17Z</time>
      </trkpt>
      <trkpt lat="44.16564" lon="3.61811">
        <ele>987.5</ele>
        <time>2021-08-12T08:12:19Z</time>
      </trkpt>
      <trkpt lat="44.16561" lon="3.61809">
        <ele>987.8</ele>
        <time>2021-08-12T08:12:21Z</time>
      </trkpt>
      <trkpt lat="44.16558" lon="3.61806">
        <ele>988.3</ele>
        <time>2021-08-12T08:12:23Z</time>
      </trkpt>
      <trkpt lat="44.16555" lon="3.61804">
        <ele>988.6</ele>
        <time>2021-08-12T08:12:25Z</time>
      </trkpt>
      <trkpt lat="44.16553" lon="3.61802">
        <ele>989</ele>
        <time>2021-08-12T08:12:27Z</time>
      </trkpt>
      <trkpt lat="44.1655" lon="3.618">
        <ele>989.5</ele>
        <time>2021-08-12T08:12:29Z</time>
      </trkpt>
      <trkpt lat="44.16547" lon="3.61797">
        <ele>989.9</ele>
        <time>2021-08-12T08:12:31Z</time>
      </trkpt>
      <trkpt lat="44.16544" lon="3.61794">
        <ele>990.5</ele>
        <time>2021-08-12T08:12:33Z</time>
      </trkpt>
      <trkpt lat="44.16541" lon="3.61792">
        <ele>990.9</ele>
        <time>2021-08-12T08:12:35Z</time>
      </trkpt>
      <trkpt lat="44.16539" lon="3.61789">
        <ele>991.4</ele>
        <time>2021-08-12T08:12:37Z</time>
      </trkpt>
      <trkpt lat="44.16536" lon="3.61786">
        <ele>992.1</ele>
        <time>2021-08-12T08:12:39Z</time>
      </trkpt>
      <trkpt lat="44.16533" lon="3.61783">
        <ele>992.7</ele>
        <time>2021-08-12T08:12:41Z</time>
      </trkpt>
      <trkpt lat="44.1653" lon="3.6178">
        <ele>993.2</ele>
        <time>2021-08-12T08:12:43Z</time>
      </trkpt>
      <trkpt lat="44.16527" lon="3.61778">
        <ele>993.6</ele>
        <time>2021-08-12T08:12:45Z</time>
      </trkpt>
      <trkpt lat="44.16524" lon="3.61775">
        <ele>994</ele>
        <time>2021-08-12T08:12:47Z</time>
      </trkpt>
      <trkpt lat="44.16521" lon="3.61773">
        <ele>994.6</ele>
        <time>2021-08-12T08:12:49Z</time>
      </trkpt>
      <trkpt lat="44.16518" lon="3.6177">
        <ele>995</ele>
        <time>2021-08-12T08:12:51Z</time>
      </trkpt>
      <trkpt lat="44.16515" lon="3.61768">
        <ele>995.4</ele>
        <time>2021-08-12T08:12:53Z</time>
      </trkpt>
      <trkpt lat="44.16512" lon="3.61765">
        <ele>995.9</ele>
        <time>2021-08-12T08:12:55Z</time>
      </trkpt>
      <trkpt lat="44.16509" lon="3.61762">
        <ele>996.5</ele>
        <time>2021-08-12T08:12:57Z</time>
      </trkpt>
      <trkpt lat="44.16506" lon="3.6176">
        <ele>996.7</ele>
        <time>2021-08-12T08:12:59Z</time>
      </trkpt>
      <trkpt lat="44.16503" lon="3.61758">
        <ele>997.3</ele>
        <time>2021-08-12T08:13:01Z</time>
      </trkpt>
      <trkpt lat="44.165" lon="3.61755">
        <ele>997.7</ele>
        <time>2021-08-12T08:13:03Z</time>
      </trkpt>
      <trkpt lat="44.16497" lon="3.61753">
        <ele>998.2</ele>
        <time>2021-08-12T08:13:05Z</time>
      </trkpt>
      <trkpt lat="44.16494" lon="3.61751">
        <ele>998.8</ele>
        <time>2021-08-12T08:13:07Z</time>
      </trkpt>
      <trkpt lat="44.16491" lon="3.61749">
        <ele>999.3</ele>
        <time>2021-08-12T08:13:09Z</time>
      </trkpt>
      <trkpt lat="44.16488" lon="3.61747">
        <ele>999.8</ele>
        <time>2021-08-12T08:13:11Z</time>
      </trkpt>
      <trkpt lat="44.16484" lon="3.61746">
        <ele>1000.1</ele>
        <time>2021-08-12T08:13:13Z</time>
      </trkpt>
      <trkpt lat="44.16481" lon="3.61744">
        <ele>1000.5</ele>
        <time>2021-08-12T08:13:15Z</time>
      </trkpt>
      <trkpt lat="44.16478" lon="3.61743">
        <ele>1000.8</ele>
        <time>2021-08-12T08:13:17Z</time>
      </trkpt>
      <trkpt lat="44.16475" lon="3.61741">
        <ele>1001.1</ele>
        <time>2021-08-12T08:13:19Z</time>
      </trkpt>
      <trkpt lat="44.16471" lon="3.6174">
        <ele>1001.5</ele>
        <time>2021-08-12T08:13:21Z</time>
      </trkpt>
      <trkpt lat="44.16468" lon="3.61739">
        <ele>1001.7</ele>
        <time>2021-08-12T08:13:23Z</time>
      </trkpt>
      <trkpt lat="44.16465" lon="3.61738">
        <ele>1002</ele>
        <time>2021-08-12T08:13:25Z</time>
      </trkpt>
      <trkpt lat="44.16461" lon="3.61737">
        <ele>1002.2</ele>
        <time>2021-08-12T08:13:27Z</time>
      </trkpt>
      <trkpt lat="44.16458" lon="3.61736">
        <ele>1002.4</ele>
        <time>2021-08-12T08:13:29Z</time>
      </trkpt>
      <trkpt lat="44.16455" lon="3.61735">
        <ele>1002.7</ele>
        <time>2021-08-12T08:13:31Z</time>
      </trkpt>
      <trkpt lat="44.16451" lon="3.61734">
        <ele>1002.9</ele>
        <time>2021-08-12T08:13:33Z</time>
      </trkpt>
      <trkpt lat="44.16448" lon="3.61733">
        <ele>1003.1</ele>
        <time>2021-08-12T08:13:35Z</time>
      </trkpt>
      <trkpt lat="44.16445" lon="3.61732">
        <ele>1003.3</ele>
        <time>2021-08-12T08:13:37Z</time>
      </trkpt>
      <trkpt lat="44.16442" lon="3.61732">
        <ele>1003.4</ele>
        <time>2021-08-12T08:13:39Z</time>
      </trkpt>
      <trkpt lat="44.16439" lon="3.61731">
        <ele>1003.6</ele>
        <time>2021-08-12T08:13:41Z</time>
      </trkpt>
      <trkpt lat="44.16435" lon="3.61731">
        <ele>1003.8</ele>
        <time>2021-08-12T08:13:43Z</time>
      </trkpt>
      <trkpt lat="44.16432" lon="3.6173">
        <ele>1003.9</ele>
        <time>2021-08-12T08:13:45Z</time>
      </trkpt>
      <trkpt lat="44.16429" lon="3.6173">
        <ele>1004</ele>
        <time>2021-08-12T08:13:47Z</time>
      </trkpt>
      <trkpt lat="44.16426" lon="3.61729">
        <ele>1004.2</ele>
        <time>2021-08-12T08:13:49Z</time>
      </trkpt>
      <trkpt lat="44.16423" lon="3.61729">
        <ele>1004.2</ele>
        <time>2021-08-12T08:13:51Z</time>
      </trkpt>
      <trkpt lat="44.1642" lon="3.61729">
        <ele>1004.3</ele>
        <time>2021-08-12T08:13:53Z</time>
      </trkpt>
      <trkpt lat="44.16416" lon="3.61729">
        <ele>1004.4</ele>
        <time>2021-08-12T08:13:55Z</time>
      </trkpt>
      <trkpt lat="44.16413" lon="3.61729">
        <ele>1004.6</ele>
        <time>2021-08-12T08:13:57Z</time>
      </trkpt>
      <trkpt lat="44.1641" lon="3.61729">
        <ele>1004.8</ele>
        <time>2021-08-12T08:13:59Z</time>
      </trkpt>
      <trkpt lat="44.16406" lon="3.6173">
        <ele>1005</ele>
        <time>2021-08-12T08:14:01Z</time>
      </trkpt>
      <trkpt lat="44.16403" lon="3.61731">
        <ele>1005.1</ele>
        <time>2021-08-12T08:14:03Z</time>
      </trkpt>
      <trkpt lat="44.164" lon="3.61732">
        <ele>1005.3</ele>
        <time>2021-08-12T08:14:05Z</time>
      </trkpt>
      <trkpt lat="44.16397" lon="3.61733">
        <ele>1005.3</ele>
        <time>2021-08-12T08:14:07Z</time>
      </trkpt>
      <trkpt lat="44.16393" lon="3.61734">
        <ele>1005.4</ele>
        <time>2021-08-12T08:14:09Z</time>
      </trkpt>
      <trkpt lat="44.1639" lon="3.61736">
        <ele>1005.5</ele>
        <time>2021-08-12T08:14:11Z</time>
      </trkpt>
      <trkpt lat="44.16387" lon="3.61738">
        <ele>1005.5</ele>
        <time>2021-08-12T08:14:13Z</time>
      </trkpt>
      <trkpt lat="44.16384" lon="3.61739">
        <ele>1005.6</ele>
        <time>2021-08-12T08:14:15Z</time>
      </trkpt>
      <trkpt lat="44.16381" lon="3.61741">
        <ele>1005.6</ele>
        <time>2021-08-12T08:14:17Z</time>
      </trkpt>
      <trkpt lat="44.16378" lon="3.61743">
        <ele>1005.7</ele>
        <time>2021-08-12T08:14:19Z</time>
      </trkpt>
      <trkpt lat="44.16374" lon="3.61744">
        <ele>1005.9</ele>
        <time>2021-08-12T08:14:21Z</time>
      </trkpt>
      <trkpt lat="44.16371" lon="3.61746">
        <ele>1006</ele>
        <time>2021-08-12T08:14:23Z</time>
      </trkpt>
      <trkpt lat="44.16368" lon="3.61748">
        <ele>1006.1</ele>
        <time>2021-08-12T08:14:25Z</time>
      </trkpt>
      <trkpt lat="44.16365" lon="3.6175">
        <ele>1006.2</ele>
        <time>2021-08-12T08:14:27Z</time>
      </trkpt>
      <trkpt lat="44.16362" lon="3.61752">
        <ele>1006.1</ele>
        <time>2021-08-12T08:14:29Z</time>
      </trkpt>
      <trkpt lat="44.16359" lon="3.61753">
        <ele>1006</ele>
        <time>2021-08-12T08:14:31Z</time>
      </trkpt>
      <trkpt lat="44.16356" lon="3.61755">
        <ele>1006</ele>
        <time>2021-08-12T08:14:33Z</time>
      </trkpt>
      <trkpt lat="44.16353" lon="3.61757">
        <ele>1006</ele>
        <time>2021-08-12T08:14:35Z</time>
      </trkpt>
      <trkpt lat="44.16349" lon="3.61758">
        <ele>1006</ele>
        <time>2021-08-12T08:14:37Z</time>
      </trkpt>
      <trkpt lat="44.16346" lon="3.6176">
        <ele>1005.9</ele>
        <time>2021-08-12T08:14:39Z</time>
      </trkpt>
      <trkpt lat="44.16342" lon="3.61762">
        <ele>1006</ele>
        <time>2021-08-12T08:14:41Z</time>
      </trkpt>
      <trkpt lat="44.16339" lon="3.61763">
        <ele>1006.2</ele>
        <time>2021-08-12T08:14:43Z</time>
      </trkpt>
      <trkpt lat="44.16335" lon="3.61763">
        <ele>1006.4</ele>
        <time>2021-08-12T08:14:45Z</time>
      </trkpt>
      <trkpt lat="44.16332" lon="3.61763">
        <ele>1006.7</ele>
        <time>2021-08-12T08:14:47Z</time>
      </trkpt>
      <trkpt lat="44.16328" lon="3.61764">
        <ele>1006.8</ele>
        <time>2021-08-12T08:14:49Z</time>
      </trkpt>
      <trkpt lat="44.16325" lon="3.61763">
        <ele>1007</ele>
        <time>2021-08-12T08:14:51Z</time>
      </trkpt>
      <trkpt lat="44.16321" lon="3.61762">
        <ele>1007.3</ele>
        <time>2021-08-12T08:14:53Z</time>
      </trkpt>
      <trkpt lat="44.16318" lon="3.61762">
        <ele>1007.5</ele>
        <time>2021-08-12T08:14:55Z</time>
      </trkpt>
      <trkpt lat="44.16314" lon="3.61761">
        <ele>1007.9</ele>
        <time>2021-08-12T08:14:57Z</time>
      </trkpt>
      <trkpt lat="44.16311" lon="3.6176">
        <ele>1008.3</ele>
        <time>2021-08-12T08:14:59Z</time>
      </trkpt>
      <trkpt lat="44.16308" lon="3.61759">
        <ele>1008.6</ele>
        <time>2021-08-12T08:15:01Z</time>
      </trkpt>
      <trkpt lat="44.16304" lon="3.61758">
        <ele>1009</ele>
        <time>2021-08-12T08:15:03Z</time>
      </trkpt>
      <trkpt lat="44.16301" lon="3.61757">
        <ele>1009.3</ele>
        <time>2021-08-12T08:15:05Z</time>
      </trkpt>
      <trkpt lat="44.16298" lon="3.61755">
        <ele>1009.8</ele>
        <time>2021-08-12T08:15:07Z</time>
      </trkpt>
      <trkpt lat="44.16295" lon="3.61754">
        <ele>1010.2</ele>
        <time>2021-08-12T08:15:09Z</time>
      </trkpt>
      <trkpt lat="44.16291" lon="3.61752">
        <ele>1010.6</ele>
        <time>2021-08-12T08:15:11Z</time>
      </trkpt>
      <trkpt lat="44.16288" lon="3.61751">
        <ele>1010.9</ele>
        <time>2021-08-12T08:15:13Z</time>
      </trkpt>
      <trkpt lat="44.16285" lon="3.61749">
        <ele>1011.2</ele>
        <time>2021-08-12T08:15:15Z</time>
      </trkpt>
      <trkpt lat="44.16282" lon="3.61748">
        <ele>1011.2</ele>
        <time>2021-08-12T08:15:17Z</time>
      </trkpt>
      <trkpt lat="44.16279" lon="3.61745">
        <ele>1011.3</ele>
        <time>2021-08-12T08:15:19Z</time>
      </trkpt>
      <trkpt lat="44.16276" lon="3.61743">
        <ele>1011.3</ele>
        <time>2021-08-12T08:15:21Z</time>
      </trkpt>
      <trkpt lat="44.16274" lon="3.61741">
        <ele>1011.3</ele>
        <time>2021-08-12T08:15:23Z</time>
      </trkpt>
      <trkpt lat="44.16272" lon="3.6174">
        <ele>1011.3</ele>
        <time>2021-08-12T08:15:25Z</time>
      </trkpt>
      <trkpt lat="44.16269" lon="3.61738">
        <ele>1011.3</ele>
        <time>2021-08-12T08:15:27Z</time>
      </trkpt>
      <trkpt lat="44.16267" lon="3.61735">
        <ele>1011.2</ele>
        <time>2021-08-12T08:15:29Z</time>
      </trkpt>
      <trkpt lat="44.16265" lon="3.61736">
        <ele>1011.3</ele>
        <time>2021-08-12T08:15:31Z</time>
      </trkpt>
      <trkpt lat="44.16265" lon="3.61741">
        <ele>1011.4</ele>
        <time>2021-08-12T08:15:33Z</time>
      </trkpt>
      <trkpt lat="44.16268" lon="3.61744">
        <ele>1011.4</ele>
        <time>2021-08-12T08:15:35Z</time>
      </trkpt>
      <trkpt lat="44.16271" lon="3.61745">
        <ele>1011.4</ele>
        <time>2021-08-12T08:15:37Z</time>
      </trkpt>
      <trkpt lat="44.16274" lon="3.61748">
        <ele>1011.4</ele>
        <time>2021-08-12T08:15:39Z</time>
      </trkpt>
      <trkpt lat="44.16276" lon="3.61752">
        <ele>1011</ele>
        <time>2021-08-12T08:15:41Z</time>
      </trkpt>
      <trkpt lat="44.16277" lon="3.61756">
        <ele>1010.2</ele>
        <time>2021-08-12T08:15:43Z</time>
      </trkpt>
      <trkpt lat="44.16277" lon="3.61757">
        <ele>1010.1</ele>
        <time>2021-08-12T08:15:45Z</time>
      </trkpt>
      <trkpt lat="44.16277" lon="3.61756">
        <ele>1010.2</ele>
        <time>2021-08-12T08:15:47Z</time>
      </trkpt>
      <trkpt lat="44.16277" lon="3.61756">
        <ele>1010.2</ele>
        <time>2021-08-12T08:15:49Z</time>
      </trkpt>
      <trkpt lat="44.16277" lon="3.61756">
        <ele>1010.2</ele>
        <time>2021-08-12T08:15:51Z</time>
      </trkpt>
      <trkpt lat="44.16277" lon="3.61756">
        <ele>1010.1</ele>
        <time>2021-08-12T08:15:53Z</time>
      </trkpt>
      <trkpt lat="44.16273" lon="3.61739">
        <ele>1011.3</ele>
        <time>2021-08-12T08:46:31Z</time>
      </trkpt>
      <trkpt lat="44.1627" lon="3.61735">
        <ele>1011.2</ele>
        <time>2021-08-12T08:46:33Z</time>
      </trkpt>
      <trkpt lat="44.16269" lon="3.6173">
        <ele>1011.1</ele>
        <time>2021-08-12T08:46:35Z</time>
      </trkpt>
      <trkpt lat="44.16269" lon="3.61723">
        <ele>1011</ele>
        <time>2021-08-12T08:46:37Z</time>
      </trkpt>
      <trkpt lat="44.16269" lon="3.61716">
        <ele>1010.9</ele>
        <time>2021-08-12T08:46:39Z</time>
      </trkpt>
      <trkpt lat="44.16272" lon="3.61706">
        <ele>1010.8</ele>
        <time>2021-08-12T08:46:41Z</time>
      </trkpt>
      <trkpt lat="44.16277" lon="3.61696">
        <ele>1010.8</ele>
        <time>2021-08-12T08:46:43Z</time>
      </trkpt>
      <trkpt lat="44.16283" lon="3.61686">
        <ele>1011.1</ele>
        <time>2021-08-12T08:46:45Z</time>
      </trkpt>
      <trkpt lat="44.1629" lon="3.61676">
        <ele>1011.7</ele>
        <time>2021-08-12T08:46:47Z</time>
      </trkpt>
      <trkpt lat="44.16297" lon="3.61666">
        <ele>1012.4</ele>
        <time>2021-08-12T08:46:49Z</time>
      </trkpt>
      <trkpt lat="44.16303" lon="3.61655">
        <ele>1011.2</ele>
        <time>2021-08-12T08:46:51Z</time>
      </trkpt>
      <trkpt lat="44.16308" lon="3.61643">
        <ele>1010.1</ele>
        <time>2021-08-12T08:46:53Z</time>
      </trkpt>
      <trkpt lat="44.16313" lon="3.61631">
        <ele>1009.1</ele>
        <time>2021-08-12T08:46:55Z</time>
      </trkpt>
      <trkpt lat="44.16318" lon="3.61618">
        <ele>1008.1</ele>
        <time>2021-08-12T08:46:57Z</time>
      </trkpt>
      <trkpt lat="44.16322" lon="3.61604">
        <ele>1006.9</ele>
        <time>2021-08-12T08:46:59Z</time>
      </trkpt>
      <trkpt lat="44.16325" lon="3.6159">
        <ele>1005.9</ele>
        <time>2021-08-12T08:47:01Z</time>
      </trkpt>
      <trkpt lat="44.1633" lon="3.61577">
        <ele>1004.4</ele>
        <time>2021-08-12T08:47:03Z</time>
      </trkpt>
      <trkpt lat="44.16337" lon="3.61565">
        <ele>1002</ele>
        <time>2021-08-12T08:47:05Z</time>
      </trkpt>
      <trkpt lat="44.16343" lon="3.61551">
        <ele>998.7</ele>
        <time>2021-08-12T08:47:07Z</time>
      </trkpt>
      <trkpt lat="44.16349" lon="3.61536">
        <ele>994.7</ele>
        <time>2021-08-12T08:47:09Z</time>
      </trkpt>
      <trkpt lat="44.16353" lon="3.61523">
        <ele>991.3</ele>
        <time>2021-08-12T08:47:11Z</time>
      </trkpt>
      <trkpt lat="44.16358" lon="3.61513">
        <ele>988.5</ele>
        <time>2021-08-12T08:47:13Z</time>
      </trkpt>
      <trkpt lat="44.16366" lon="3.61505">
        <ele>986.6</ele>
        <time>2021-08-12T08:47:15Z</time>
      </trkpt>
      <trkpt lat="44.16376" lon="3.61503">
        <ele>986.6</ele>
        <time>2021-08-12T08:47:17Z</time>
      </trkpt>
      <trkpt lat="44.16386" lon="3.61506">
        <ele>988.3</ele>
        <time>2021-08-12T08:47:19Z</time>
      </trkpt>
      <trkpt lat="44.16396" lon="3.6151">
        <ele>990.1</ele>
        <time>2021-08-12T08:47:21Z</time>
      </trkpt>
      <trkpt lat="44.16407" lon="3.61513">
        <ele>992.1</ele>
        <time>2021-08-12T08:47:23Z</time>
      </trkpt>
      <trkpt lat="44.16418" lon="3.61517">
        <ele>994.5</ele>
        <time>2021-08-12T08:47:25Z</time>
      </trkpt>
      <trkpt lat="44.16429" lon="3.61523">
        <ele>998.3</ele>
        <time>2021-08-12T08:47:27Z</time>
      </trkpt>
      <trkpt lat="44.16439" lon="3.61529">
        <ele>1001.7</ele>
        <time>2021-08-12T08:47:29Z</time>
      </trkpt>
      <trkpt lat="44.16446" lon="3.61532">
        <ele>1003.5</ele>
        <time>2021-08-12T08:47:31Z</time>
      </trkpt>
      <trkpt lat="44.16451" lon="3.61531">
        <ele>1003.8</ele>
        <time>2021-08-12T08:47:33Z</time>
      </trkpt>
      <trkpt lat="44.16454" lon="3.61525">
        <ele>1002.6</ele>
        <time>2021-08-12T08:47:35Z</time>
      </trkpt>
      <trkpt lat="44.16456" lon="3.61516">
        <ele>1000.4</ele>
        <time>2021-08-12T08:47:37Z</time>
      </trkpt>
      <trkpt lat="44.16455" lon="3.61509">
        <ele>998.1</ele>
        <time>2021-08-12T08:47:39Z</time>
      </trkpt>
      <trkpt lat="44.16449" lon="3.61504">
        <ele>995.8</ele>
        <time>2021-08-12T08:47:41Z</time>
      </trkpt>
      <trkpt lat="44.1644" lon="3.61503">
        <ele>993.9</ele>
        <time>2021-08-12T08:47:43Z</time>
      </trkpt>
      <trkpt lat="44.1643" lon="3.61502">
        <ele>991.4</ele>
        <time>2021-08-12T08:47:45Z</time>
      </trkpt>
      <trkpt lat="44.16419" lon="3.61498">
        <ele>987.8</ele>
        <time>2021-08-12T08:47:47Z</time>
      </trkpt>
      <trkpt lat="44.16408" lon="3.61493">
        <ele>985</ele>
        <time>2021-08-12T08:47:49Z</time>
      </trkpt>
      <trkpt lat="44.16396" lon="3.61487">
        <ele>982.2</ele>
        <time>2021-08-12T08:47:51Z</time>
      </trkpt>
      <trkpt lat="44.16385" lon="3.6148">
        <ele>979.4</ele>
        <time>2021-08-12T08:47:53Z</time>
      </trkpt>
      <trkpt lat="44.16374" lon="3.61476">
        <ele>977.2</ele>
        <time>2021-08-12T08:47:55Z</time>
      </trkpt>
      <trkpt lat="44.16363" lon="3.61473">
        <ele>975.9</ele>
        <time>2021-08-12T08:47:57Z</time>
      </trkpt>
      <trkpt lat="44.16353" lon="3.6147">
        <ele>974.6</ele>
        <time>2021-08-12T08:47:59Z</time>
      </trkpt>
      <trkpt lat="44.16343" lon="3.61468">
        <ele>973.3</ele>
        <time>2021-08-12T08:48:01Z</time>
      </trkpt>
      <trkpt lat="44.16333" lon="3.61467">
        <ele>972.7</ele>
        <time>2021-08-12T08:48:03Z</time>
      </trkpt>
      <trkpt lat="44.16323" lon="3.61475">
        <ele>973.5</ele>
        <time>2021-08-12T08:48:05Z</time>
      </trkpt>
      <trkpt lat="44.16313" lon="3.61486">
        <ele>975.3</ele>
        <time>2021-08-12T08:48:07Z</time>
      </trkpt>
      <trkpt lat="44.16302" lon="3.61497">
        <ele>976.5</ele>
        <time>2021-08-12T08:48:09Z</time>
      </trkpt>
      <trkpt lat="44.16291" lon="3.61506">
        <ele>977</ele>
        <time>2021-08-12T08:48:11Z</time>
      </trkpt>
      <trkpt lat="44.1628" lon="3.61517">
        <ele>977.9</ele>
        <time>2021-08-12T08:48:13Z</time>
      </trkpt>
      <trkpt lat="44.16271" lon="3.61528">
        <ele>978.9</ele>
        <time>2021-08-12T08:48:15Z</time>
      </trkpt>
      <trkpt lat="44.16261" lon="3.61532">
        <ele>977.9</ele>
        <time>2021-08-12T08:48:17Z</time>
      </trkpt>
      <trkpt lat="44.16248" lon="3.61526">
        <ele>974.7</ele>
        <time>2021-08-12T08:48:19Z</time>
      </trkpt>
      <trkpt lat="44.16237" lon="3.6151">
        <ele>973.8</ele>
        <time>2021-08-12T08:48:21Z</time>
      </trkpt>
      <trkpt lat="44.16227" lon="3.61496">
        <ele>973.1</ele>
        <time>2021-08-12T08:48:23Z</time>
      </trkpt>
      <trkpt lat="44.1622" lon="3.61479">
        <ele>970.4</ele>
        <time>2021-08-12T08:48:25Z</time>
      </trkpt>
      <trkpt lat="44.16214" lon="3.61462">
        <ele>967.3</ele>
        <time>2021-08-12T08:48:27Z</time>
      </trkpt>
      <trkpt lat="44.16206" lon="3.61447">
        <ele>965</ele>
        <time>2021-08-12T08:48:29Z</time>
      </trkpt>
      <trkpt lat="44.16197" lon="3.61431">
        <ele>962.2</ele>
        <time>2021-08-12T08:48:31Z</time>
      </trkpt>
      <trkpt lat="44.1619" lon="3.61417">
        <ele>959.3</ele>
        <time>2021-08-12T08:48:33Z</time>
      </trkpt>
      <trkpt lat="44.16184" lon="3.61403">
        <ele>956.7</ele>
        <time>2021-08-12T08:48:35Z</time>
      </trkpt>
      <trkpt lat="44.16178" lon="3.61391">
        <ele>954.3</ele>
        <time>2021-08-12T08:48:37Z</time>
      </trkpt>
      <trkpt lat="44.16171" lon="3.61379">
        <ele>952.4</ele>
        <time>2021-08-12T08:48:39Z</time>
      </trkpt>
      <trkpt lat="44.16161" lon="3.6137">
        <ele>951.3</ele>
        <time>2021-08-12T08:48:41Z</time>
      </trkpt>
      <trkpt lat="44.1615" lon="3.61362">
        <ele>950.3</ele>
        <time>2021-08-12T08:48:43Z</time>
      </trkpt>
      <trkpt lat="44.16137" lon="3.61354">
        <ele>949.3</ele>
        <time>2021-08-12T08:48:45Z</time>
      </trkpt>
      <trkpt lat="44.16124" lon="3.61347">
        <ele>948</ele>
        <time>2021-08-12T08:48:47Z</time>
      </trkpt>
      <trkpt lat="44.16112" lon="3.6134">
        <ele>946.6</ele>
        <time>2021-08-12T08:48:49Z</time>
      </trkpt>
      <trkpt lat="44.16102" lon="3.61334">
        <ele>945.2</ele>
        <time>2021-08-12T08:48:51Z</time>
      </trkpt>
      <trkpt lat="44.16092" lon="3.61329">
        <ele>943.6</ele>
        <time>2021-08-12T08:48:53Z</time>
      </trkpt>
      <trkpt lat="44.16083" lon="3.61324">
        <ele>942.1</ele>
        <time>2021-08-12T08:48:55Z</time>
      </trkpt>
      <trkpt lat="44.16076" lon="3.61319">
        <ele>941.4</ele>
        <time>2021-08-12T08:48:57Z</time>
      </trkpt>
      <trkpt lat="44.16069" lon="3.61317">
        <ele>941.3</ele>
        <time>2021-08-12T08:48:59Z</time>
      </trkpt>
      <trkpt lat="44.1606" lon="3.61318">
        <ele>943.1</ele>
        <time>2021-08-12T08:49:01Z</time>
      </trkpt>
      <trkpt lat="44.16051" lon="3.61325">
        <ele>946.8</ele>
        <time>2021-08-12T08:49:03Z</time>
      </trkpt>
      <trkpt lat="44.16043" lon="3.6133">
        <ele>949.6</ele>
        <time>2021-08-12T08:49:05Z</time>
      </trkpt>
      <trkpt lat="44.16033" lon="3.6133">
        <ele>950.8</ele>
        <time>2021-08-12T08:49:07Z</time>
      </trkpt>
      <trkpt lat="44.16022" lon="3.61325">
        <ele>950.5</ele>
        <time>2021-08-12T08:49:09Z</time>
      </trkpt>
      <trkpt lat="44.16014" lon="3.61309">
        <ele>946.5</ele>
        <time>2021-08-12T08:49:11Z</time>
      </trkpt>
      <trkpt lat="44.16009" lon="3.61293">
        <ele>942.1</ele>
        <time>2021-08-12T08:49:13Z</time>
      </trkpt>
      <trkpt lat="44.16" lon="3.61279">
        <ele>939.2</ele>
        <time>2021-08-12T08:49:15Z</time>
      </trkpt>
      <trkpt lat="44.15989" lon="3.61264">
        <ele>937.9</ele>
        <time>2021-08-12T08:49:17Z</time>
      </trkpt>
      <trkpt lat="44.1598" lon="3.61251">
        <ele>936.9</ele>
        <time>2021-08-12T08:49:19Z</time>
      </trkpt>
      <trkpt lat="44.1597" lon="3.61237">
        <ele>935.6</ele>
        <time>2021-08-12T08:49:21Z</time>
      </trkpt>
      <trkpt lat="44.1596" lon="3.61223">
        <ele>933.6</ele>
        <time>2021-08-12T08:49:23Z</time>
      </trkpt>
      <trkpt lat="44.1595" lon="3.61209">
        <ele>932</ele>
        <time>2021-08-12T08:49:25Z</time>
      </trkpt>
      <trkpt lat="44.1594" lon="3.61194">
        <ele>929.8</ele>
        <time>2021-08-12T08:49:27Z</time>
      </trkpt>
      <trkpt lat="44.15929" lon="3.61178">
        <ele>926.9</ele>
        <time>2021-08-12T08:49:29Z</time>
      </trkpt>
      <trkpt lat="44.1592" lon="3.61162">
        <ele>923.6</ele>
        <time>2021-08-12T08:49:31Z</time>
      </trkpt>
      <trkpt lat="44.1591" lon="3.61151">
        <ele>921.4</ele>
        <time>2021-08-12T08:49:33Z</time>
      </trkpt>
      <trkpt lat="44.15898" lon="3.61142">
        <ele>919.9</ele>
        <time>2021-08-12T08:49:35Z</time>
      </trkpt>
      <trkpt lat="44.15884" lon="3.61137">
        <ele>919.4</ele>
        <time>2021-08-12T08:49:37Z</time>
      </trkpt>
      <trkpt lat="44.15868" lon="3.61134">
        <ele>919.7</ele>
        <time>2021-08-12T08:49:39Z</time>
      </trkpt>
      <trkpt lat="44.15852" lon="3.61134">
        <ele>921.3</ele>
        <time>2021-08-12T08:49:41Z</time>
      </trkpt>
      <trkpt lat="44.15838" lon="3.61133">
        <ele>922.2</ele>
        <time>2021-08-12T08:49:43Z</time>
      </trkpt>
      <trkpt lat="44.15824" lon="3.61127">
        <ele>919.3</ele>
        <time>2021-08-12T08:49:45Z</time>
      </trkpt>
      <trkpt lat="44.15809" lon="3.61127">
        <ele>917.1</ele>
        <time>2021-08-12T08:49:47Z</time>
      </trkpt>
      <trkpt lat="44.15794" lon="3.61129">
        <ele>916.1</ele>
        <time>2021-08-12T08:49:49Z</time>
      </trkpt>
      <trkpt lat="44.15781" lon="3.61131">
        <ele>915.1</ele>
        <time>2021-08-12T08:49:51Z</time>
      </trkpt>
      <trkpt lat="44.15771" lon="3.61136">
        <ele>915</ele>
        <time>2021-08-12T08:49:53Z</time>
      </trkpt>
      <trkpt lat="44.15764" lon="3.61142">
        <ele>915.7</ele>
        <time>2021-08-12T08:49:55Z</time>
      </trkpt>
      <trkpt lat="44.15759" lon="3.6115">
        <ele>917.1</ele>
        <time>2021-08-12T08:49:57Z</time>
      </trkpt>
      <trkpt lat="44.15753" lon="3.61157">
        <ele>918.2</ele>
        <time>2021-08-12T08:49:59Z</time>
      </trkpt>
      <trkpt lat="44.15747" lon="3.61156">
        <ele>917.1</ele>
        <time>2021-08-12T08:50:01Z</time>
      </trkpt>
      <trkpt lat="44.15746" lon="3.61145">
        <ele>914.4</ele>
        <time>2021-08-12T08:50:03Z</time>
      </trkpt>
      <trkpt lat="44.15755" lon="3.61135">
        <ele>912.8</ele>
        <time>2021-08-12T08:50:05Z</time>
      </trkpt>
      <trkpt lat="44.15764" lon="3.61127">
        <ele>911.6</ele>
        <time>2021-08-12T08:50:07Z</time>
      </trkpt>
      <trkpt lat="44.15775" lon="3.6112">
        <ele>911.2</ele>
        <time>2021-08-12T08:50:09Z</time>
      </trkpt>
      <trkpt lat="44.15788" lon="3.61115">
        <ele>911.1</ele>
        <time>2021-08-12T08:50:11Z</time>
      </trkpt>
      <trkpt lat="44.15801" lon="3.6111">
        <ele>910.7</ele>
        <time>2021-08-12T08:50:13Z</time>
      </trkpt>
      <trkpt lat="44.15815" lon="3.61104">
        <ele>909.9</ele>
        <time>2021-08-12T08:50:15Z</time>
      </trkpt>
      <trkpt lat="44.15828" lon="3.61099">
        <ele>909.4</ele>
        <time>2021-08-12T08:50:17Z</time>
      </trkpt>
      <trkpt lat="44.15842" lon="3.61098">
        <ele>908.8</ele>
        <time>2021-08-12T08:50:19Z</time>
      </trkpt>
      <trkpt lat="44.15857" lon="3.61098">
        <ele>907.7</ele>
        <time>2021-08-12T08:50:21Z</time>
      </trkpt>
      <trkpt lat="44.15871" lon="3.61097">
        <ele>906.6</ele>
        <time>2021-08-12T08:50:23Z</time>
      </trkpt>
      <trkpt lat="44.15886" lon="3.61094">
        <ele>904.3</ele>
        <time>2021-08-12T08:50:25Z</time>
      </trkpt>
      <trkpt lat="44.15899" lon="3.61089">
        <ele>902.1</ele>
        <time>2021-08-12T08:50:27Z</time>
      </trkpt>
      <trkpt lat="44.15913" lon="3.61087">
        <ele>900.3</ele>
        <time>2021-08-12T08:50:29Z</time>
      </trkpt>
      <trkpt lat="44.15927" lon="3.61087">
        <ele>899.4</ele>
        <time>2021-08-12T08:50:31Z</time>
      </trkpt>
      <trkpt lat="44.15939" lon="3.61093">
        <ele>899.8</ele>
        <time>2021-08-12T08:50:33Z</time>
      </trkpt>
      <trkpt lat="44.15947" lon="3.61102">
        <ele>901.2</ele>
        <time>2021-08-12T08:50:35Z</time>
      </trkpt>
      <trkpt lat="44.15956" lon="3.61104">
        <ele>900.6</ele>
        <time>2021-08-12T08:50:37Z</time>
      </trkpt>
      <trkpt lat="44.15965" lon="3.61095">
        <ele>897.5</ele>
        <time>2021-08-12T08:50:39Z</time>
      </trkpt>
      <trkpt lat="44.15971" lon="3.61085">
        <ele>894.8</ele>
        <time>2021-08-12T08:50:41Z</time>
      </trkpt>
      <trkpt lat="44.15978" lon="3.61075">
        <ele>894</ele>
        <time>2021-08-12T08:50:43Z</time>
      </trkpt>
      <trkpt lat="44.15985" lon="3.61065">
        <ele>893.7</ele>
        <time>2021-08-12T08:50:45Z</time>
      </trkpt>
      <trkpt lat="44.15991" lon="3.61058">
        <ele>893.6</ele>
        <time>2021-08-12T08:50:47Z</time>
      </trkpt>
      <trkpt lat="44.15997" lon="3.61051">
        <ele>893.7</ele>
        <time>2021-08-12T08:50:49Z</time>
      </trkpt>
      <trkpt lat="44.16002" lon="3.61043">
        <ele>894</ele>
        <time>2021-08-12T08:50:51Z</time>
      </trkpt>
      <trkpt lat="44.16006" lon="3.61036">
        <ele>894.5</ele>
        <time>2021-08-12T08:50:53Z</time>
      </trkpt>
      <trkpt lat="44.1601" lon="3.61031">
        <ele>895</ele>
        <time>2021-08-12T08:50:55Z</time>
      </trkpt>
      <trkpt lat="44.16012" lon="3.61026">
        <ele>895.4</ele>
        <time>2021-08-12T08:50:57Z</time>
      </trkpt>
      <trkpt lat="44.16014" lon="3.61023">
        <ele>895.7</ele>
        <time>2021-08-12T08:50:59Z</time>
      </trkpt>
      <trkpt lat="44.16015" lon="3.61022">
        <ele>895.8</ele>
        <time>2021-08-12T08:51:01Z</time>
      </trkpt>
      <trkpt lat="44.16016" lon="3.6102">
        <ele>896</ele>
        <time>2021-08-12T08:51:03Z</time>
      </trkpt>
      <trkpt lat="44.16017" lon="3.61018">
        <ele>896.1</ele>
        <time>2021-08-12T08:51:05Z</time>
      </trkpt>
      <trkpt lat="44.16018" lon="3.61016">
        <ele>896.3</ele>
        <time>2021-08-12T08:51:07Z</time>
      </trkpt>
      <trkpt lat="44.16026" lon="3.61005">
        <ele>897.5</ele>
        <time>2021-08-12T08:53:37Z</time>
      </trkpt>
      <trkpt lat="44.16026" lon="3.61001">
        <ele>897.8</ele>
        <time>2021-08-12T08:53:39Z</time>
      </trkpt>
      <trkpt lat="44.16026" lon="3.60997">
        <ele>898.1</ele>
        <time>2021-08-12T08:53:41Z</time>
      </trkpt>
      <trkpt lat="44.16028" lon="3.60993">
        <ele>898.4</ele>
        <time>2021-08-12T08:53:43Z</time>
      </trkpt>
      <trkpt lat="44.16029" lon="3.60989">
        <ele>898.6</ele>
        <time>2021-08-12T08:53:45Z</time>
      </trkpt>
      <trkpt lat="44.16029" lon="3.60984">
        <ele>898.9</ele>
        <time>2021-08-12T08:53:47Z</time>
      </trkpt>
      <trkpt lat="44.1603" lon="3.60979">
        <ele>899.2</ele>
        <time>2021-08-12T08:53:49Z</time>
      </trkpt>
      <trkpt lat="44.1603" lon="3.60974">
        <ele>899.4</ele>
        <time>2021-08-12T08:53:51Z</time>
      </trkpt>
      <trkpt lat="44.1603" lon="3.6097">
        <ele>899.6</ele>
        <time>2021-08-12T08:53:53Z</time>
      </trkpt>
      <trkpt lat="44.1603" lon="3.60965">
        <ele>899.9</ele>
        <time>2021-08-12T08:53:55Z</time>
      </trkpt>
      <trkpt lat="44.16029" lon="3.60961">
        <ele>900</ele>
        <time>2021-08-12T08:53:57Z</time>
      </trkpt>
      <trkpt lat="44.16027" lon="3.60956">
        <ele>900.1</ele>
        <time>2021-08-12T08:53:59Z</time>
      </trkpt>
      <trkpt lat="44.16027" lon="3.60952">
        <ele>900.2</ele>
        <time>2021-08-12T08:54:01Z</time>
      </trkpt>
      <trkpt lat="44.16026" lon="3.60947">
        <ele>900.3</ele>
        <time>2021-08-12T08:54:03Z</time>
      </trkpt>
      <trkpt lat="44.16025" lon="3.60943">
        <ele>900.4</ele>
        <time>2021-08-12T08:54:05Z</time>
      </trkpt>
      <trkpt lat="44.16024" lon="3.60939">
        <ele>900.5</ele>
        <time>2021-08-12T08:54:07Z</time>
      </trkpt>
      <trkpt lat="44.16023" lon="3.60935">
        <ele>900.5</ele>
        <time>2021-08-12T08:54:09Z</time>
      </trkpt>
      <trkpt lat="44.16021" lon="3.6093">
        <ele>900.5</ele>
        <time>2021-08-12T08:54:11Z</time>
      </trkpt>
      <trkpt lat="44.16021" lon="3.60926">
        <ele>900.6</ele>
        <time>2021-08-12T08:54:13Z</time>
      </trkpt>
      <trkpt lat="44.16021" lon="3.60922">
        <ele>900.7</ele>
        <time>2021-08-12T08:54:15Z</time>
      </trkpt>
      <trkpt lat="44.1602" lon="3.60917">
        <ele>900.9</ele>
        <time>2021-08-12T08:54:17Z</time>
      </trkpt>
      <trkpt lat="44.1602" lon="3.60913">
        <ele>901.2</ele>
        <time>2021-08-12T08:54:19Z</time>
      </trkpt>
      <trkpt lat="44.1602" lon="3.60908">
        <ele>901.6</ele>
        <time>2021-08-12T08:54:21Z</time>
      </trkpt>
      <trkpt lat="44.1602" lon="3.60904">
        <ele>901.9</ele>
        <time>2021-08-12T08:54:23Z</time>
      </trkpt>
      <trkpt lat="44.1602" lon="3.60899">
        <ele>902.2</ele>
        <time>2021-08-12T08:54:25Z</time>
      </trkpt>
      <trkpt lat="44.16019" lon="3.60895">
        <ele>902.5</ele>
        <time>2021-08-12T08:54:27Z</time>
      </trkpt>
      <trkpt lat="44.1602" lon="3.60891">
        <ele>902.9</ele>
        <time>2021-08-12T08:54:29Z</time>
      </trkpt>
      <trkpt lat="44.1602" lon="3.60887">
        <ele>903.3</ele>
        <time>2021-08-12T08:54:31Z</time>
      </trkpt>
      <trkpt lat="44.16021" lon="3.60883">
        <ele>903.6</ele>
        <time>2021-08-12T08:54:33Z</time>
      </trkpt>
      <trkpt lat="44.16021" lon="3.60879">
        <ele>904</ele>
        <time>2021-08-12T08:54:35Z</time>
      </trkpt>
      <trkpt lat="44.16024" lon="3.60878">
        <ele>904.4</ele>
        <time>2021-08-12T08:54:37Z</time>
      </trkpt>
      <trkpt lat="44.16025" lon="3.60881">
        <ele>904.4</ele>
        <time>2021-08-12T08:54:39Z</time>
      </trkpt>
      <trkpt lat="44.16024" lon="3.60885">
        <ele>903.9</ele>
        <time>2021-08-12T08:54:41Z</time>
      </trkpt>
      <trkpt lat="44.16024" lon="3.60889">
        <ele>903.7</ele>
        <time>2021-08-12T08:54:43Z</time>
      </trkpt>
      <trkpt lat="44.16025" lon="3.60892">
        <ele>903.5</ele>
        <time>2021-08-12T08:54:45Z</time>
      </trkpt>
      <trkpt lat="44.16026" lon="3.60895">
        <ele>903.5</ele>
        <time>2021-08-12T08:54:47Z</time>
      </trkpt>
      <trkpt lat="44.16027" lon="3.60897">
        <ele>903.5</ele>
        <time>2021-08-12T08:54:49Z</time>
      </trkpt>
      <trkpt lat="44.16028" lon="3.60899">
        <ele>903.4</ele>
        <time>2021-08-12T08:54:51Z</time>
      </trkpt>
      <trkpt lat="44.1603" lon="3.60903">
        <ele>903.4</ele>
        <time>2021-08-12T08:54:53Z</time>
      </trkpt>
      <trkpt lat="44.16033" lon="3.60906">
        <ele>903.6</ele>
        <time>2021-08-12T08:54:55Z</time>
      </trkpt>
      <trkpt lat="44.16034" lon="3.60911">
        <ele>903.4</ele>
        <time>2021-08-12T08:54:57Z</time>
      </trkpt>
      <trkpt lat="44.16036" lon="3.60915">
        <ele>903.3</ele>
        <time>2021-08-12T08:54:59Z</time>
      </trkpt>
      <trkpt lat="44.16039" lon="3.60919">
        <ele>903.5</ele>
        <time>2021-08-12T08:55:01Z</time>
      </trkpt>
      <trkpt lat="44.16042" lon="3.60924">
        <ele>903.6</ele>
        <time>2021-08-12T08:55:03Z</time>
      </trkpt>
      <trkpt lat="44.16045" lon="3.60929">
        <ele>903.7</ele>
        <time>2021-08-12T08:55:05Z</time>
      </trkpt>
      <trkpt lat="44.16048" lon="3.60934">
        <ele>903.8</ele>
        <time>2021-08-12T08:55:07Z</time>
      </trkpt>
      <trkpt lat="44.1605" lon="3.60939">
        <ele>903.7</ele>
        <time>2021-08-12T08:55:09Z</time>
      </trkpt>
      <trkpt lat="44.16054" lon="3.60945">
        <ele>903.7</ele>
        <time>2021-08-12T08:55:11Z</time>
      </trkpt>
      <trkpt lat="44.16057" lon="3.6095">
        <ele>903.7</ele>
        <time>2021-08-12T08:55:13Z</time>
      </trkpt>
      <trkpt lat="44.1606" lon="3.60955">
        <ele>903.7</ele>
        <time>2021-08-12T08:55:15Z</time>
      </trkpt>
      <trkpt lat="44.16061" lon="3.60961">
        <ele>903.3</ele>
        <time>2021-08-12T08:55:17Z</time>
      </trkpt>
      <trkpt lat="44.16063" lon="3.60967">
        <ele>903.1</ele>
        <time>2021-08-12T08:55:19Z</time>
      </trkpt>
      <trkpt lat="44.16066" lon="3.60972">
        <ele>903</ele>
        <time>2021-08-12T08:55:21Z</time>
      </trkpt>
      <trkpt lat="44.16071" lon="3.60974">
        <ele>903.3</ele>
        <time>2021-08-12T08:55:23Z</time>
      </trkpt>
      <trkpt lat="44.16075" lon="3.60976">
        <ele>903.5</ele>
        <time>2021-08-12T08:55:25Z</time>
      </trkpt>
      <trkpt lat="44.16078" lon="3.60977">
        <ele>903.8</ele>
        <time>2021-08-12T08:55:27Z</time>
      </trkpt>
      <trkpt lat="44.1608" lon="3.60978">
        <ele>903.9</ele>
        <time>2021-08-12T08:55:29Z</time>
      </trkpt>
      <trkpt lat="44.16083" lon="3.6098">
        <ele>903.9</ele>
        <time>2021-08-12T08:55:31Z</time>
      </trkpt>
      <trkpt lat="44.16085" lon="3.60981">
        <ele>904.1</ele>
        <time>2021-08-12T08:55:33Z</time>
      </trkpt>
      <trkpt lat="44.16089" lon="3.60982">
        <ele>904.6</ele>
        <time>2021-08-12T08:55:35Z</time>
      </trkpt>
      <trkpt lat="44.16093" lon="3.60983">
        <ele>904.9</ele>
        <time>2021-08-12T08:55:37Z</time>
      </trkpt>
      <trkpt lat="44.16095" lon="3.60984">
        <ele>905.1</ele>
        <time>2021-08-12T08:55:39Z</time>
      </trkpt>
      <trkpt lat="44.16096" lon="3.60985">
        <ele>905.2</ele>
        <time>2021-08-12T08:55:41Z</time>
      </trkpt>
      <trkpt lat="44.16097" lon="3.60986">
        <ele>905.2</ele>
        <time>2021-08-12T08:55:43Z</time>
      </trkpt>
      <trkpt lat="44.16097" lon="3.60986">
        <ele>905.2</ele>
        <time>2021-08-12T08:55:45Z</time>
      </trkpt>
      <trkpt lat="44.16097" lon="3.60986">
        <ele>905.1</ele>
        <time>2021-08-12T08:55:47Z</time>
      </trkpt>
      <trkpt lat="44.16097" lon="3.60986">
        <ele>905.1</ele>
        <time>2021-08-12T08:55:49Z</time>
      </trkpt>
      <trkpt lat="44.16065" lon="3.6097">
        <ele>903.1</ele>
        <time>2021-08-12T08:57:31Z</time>
      </trkpt>
      <trkpt lat="44.16061" lon="3.60965">
        <ele>903.1</ele>
        <time>2021-08-12T08:57:33Z</time>
      </trkpt>
      <trkpt lat="44.1606" lon="3.60959">
        <ele>903.4</ele>
        <time>2021-08-12T08:57:35Z</time>
      </trkpt>
      <trkpt lat="44.16058" lon="3.60954">
        <ele>903.6</ele>
        <time>2021-08-12T08:57:37Z</time>
      </trkpt>
      <trkpt lat="44.16055" lon="3.60948">
        <ele>903.7</ele>
        <time>2021-08-12T08:57:39Z</time>
      </trkpt>
      <trkpt lat="44.16052" lon="3.60943">
        <ele>903.7</ele>
        <time>2021-08-12T08:57:41Z</time>
      </trkpt>
      <trkpt lat="44.16048" lon="3.60938">
        <ele>903.6</ele>
        <time>2021-08-12T08:57:43Z</time>
      </trkpt>
      <trkpt lat="44.16045" lon="3.60932">
        <ele>903.5</ele>
        <time>2021-08-12T08:57:45Z</time>
      </trkpt>
      <trkpt lat="44.16041" lon="3.60927">
        <ele>903.3</ele>
        <time>2021-08-12T08:57:47Z</time>
      </trkpt>
      <trkpt lat="44.16037" lon="3.60921">
        <ele>903.1</ele>
        <time>2021-08-12T08:57:49Z</time>
      </trkpt>
      <trkpt lat="44.16034" lon="3.60915">
        <ele>903</ele>
        <time>2021-08-12T08:57:51Z</time>
      </trkpt>
      <trkpt lat="44.1603" lon="3.60909">
        <ele>903</ele>
        <time>2021-08-12T08:57:53Z</time>
      </trkpt>
      <trkpt lat="44.16027" lon="3.60902">
        <ele>903.1</ele>
        <time>2021-08-12T08:57:55Z</time>
      </trkpt>
      <trkpt lat="44.16025" lon="3.60895">
        <ele>903.3</ele>
        <time>2021-08-12T08:57:57Z</time>
      </trkpt>
      <trkpt lat="44.16024" lon="3.60891">
        <ele>903.5</ele>
        <time>2021-08-12T08:57:59Z</time>
      </trkpt>
      <trkpt lat="44.16024" lon="3.60884">
        <ele>904</ele>
        <time>2021-08-12T08:58:01Z</time>
      </trkpt>
      <trkpt lat="44.16024" lon="3.60882">
        <ele>904.2</ele>
        <time>2021-08-12T08:58:03Z</time>
      </trkpt>
      <trkpt lat="44.16023" lon="3.60878">
        <ele>904.4</ele>
        <time>2021-08-12T08:58:05Z</time>
      </trkpt>
      <trkpt lat="44.16023" lon="3.60878">
        <ele>904.4</ele>
        <time>2021-08-12T08:58:07Z</time>
      </trkpt>
      <trkpt lat="44.16023" lon="3.60878">
        <ele>904.4</ele>
        <time>2021-08-12T08:58:09Z</time>
      </trkpt>
      <trkpt lat="44.16024" lon="3.60878">
        <ele>904.4</ele>
        <time>2021-08-12T08:58:11Z</time>
      </trkpt>
      <trkpt lat="44.16024" lon="3.60878">
        <ele>904.4</ele>
        <time>2021-08-12T08:58:15Z</time>
      </trkpt>
      <trkpt lat="44.16025" lon="3.60892">
        <ele>903.6</ele>
        <time>2021-08-12T08:58:35Z</time>
      </trkpt>
      <trkpt lat="44.16027" lon="3.60897">
        <ele>903.4</ele>
        <time>2021-08-12T08:58:37Z</time>
      </trkpt>
      <trkpt lat="44.16029" lon="3.60901">
        <ele>903.4</ele>
        <time>2021-08-12T08:58:39Z</time>
      </trkpt>
      <trkpt lat="44.16032" lon="3.60907">
        <ele>903.4</ele>
        <time>2021-08-12T08:58:41Z</time>
      </trkpt>
      <trkpt lat="44.16035" lon="3.60912">
        <ele>903.4</ele>
        <time>2021-08-12T08:58:43Z</time>
      </trkpt>
      <trkpt lat="44.16037" lon="3.60917">
        <ele>903.4</ele>
        <time>2021-08-12T08:58:45Z</time>
      </trkpt>
      <trkpt lat="44.1604" lon="3.60922">
        <ele>903.4</ele>
        <time>2021-08-12T08:58:47Z</time>
      </trkpt>
      <trkpt lat="44.16044" lon="3.60927">
        <ele>903.7</ele>
        <time>2021-08-12T08:58:49Z</time>
      </trkpt>
      <trkpt lat="44.16047" lon="3.60931">
        <ele>903.8</ele>
        <time>2021-08-12T08:58:51Z</time>
      </trkpt>
      <trkpt lat="44.1605" lon="3.60937">
        <ele>903.8</ele>
        <time>2021-08-12T08:58:53Z</time>
      </trkpt>
      <trkpt lat="44.16052" lon="3.60943">
        <ele>903.8</ele>
        <time>2021-08-12T08:58:55Z</time>
      </trkpt>
      <trkpt lat="44.16055" lon="3.60948">
        <ele>903.7</ele>
        <time>2021-08-12T08:58:57Z</time>
      </trkpt>
      <trkpt lat="44.16058" lon="3.60954">
        <ele>903.6</ele>
        <time>2021-08-12T08:58:59Z</time>
      </trkpt>
      <trkpt lat="44.1606" lon="3.60959">
        <ele>903.4</ele>
        <time>2021-08-12T08:59:01Z</time>
      </trkpt>
      <trkpt lat="44.16061" lon="3.60964">
        <ele>903.2</ele>
        <time>2021-08-12T08:59:03Z</time>
      </trkpt>
      <trkpt lat="44.16064" lon="3.6097">
        <ele>903</ele>
        <time>2021-08-12T08:59:05Z</time>
      </trkpt>
      <trkpt lat="44.16068" lon="3.60974">
        <ele>903.1</ele>
        <time>2021-08-12T08:59:07Z</time>
      </trkpt>
      <trkpt lat="44.16074" lon="3.60974">
        <ele>903.7</ele>
        <time>2021-08-12T08:59:09Z</time>
      </trkpt>
      <trkpt lat="44.16078" lon="3.60977">
        <ele>903.7</ele>
        <time>2021-08-12T08:59:11Z</time>
      </trkpt>
      <trkpt lat="44.16082" lon="3.60978">
        <ele>903.9</ele>
        <time>2021-08-12T08:59:13Z</time>
      </trkpt>
      <trkpt lat="44.16085" lon="3.60981">
        <ele>904.1</ele>
        <time>2021-08-12T08:59:15Z</time>
      </trkpt>
      <trkpt lat="44.16089" lon="3.60983">
        <ele>904.3</ele>
        <time>2021-08-12T08:59:17Z</time>
      </trkpt>
      <trkpt lat="44.16092" lon="3.60983">
        <ele>904.8</ele>
        <time>2021-08-12T08:59:19Z</time>
      </trkpt>
      <trkpt lat="44.16094" lon="3.60985">
        <ele>904.8</ele>
        <time>2021-08-12T08:59:21Z</time>
      </trkpt>
      <trkpt lat="44.16095" lon="3.60987">
        <ele>904.8</ele>
        <time>2021-08-12T08:59:23Z</time>
      </trkpt>
      <trkpt lat="44.16095" lon="3.60987">
        <ele>904.9</ele>
        <time>2021-08-12T08:59:25Z</time>
      </trkpt>
      <trkpt lat="44.16095" lon="3.60986">
        <ele>904.9</ele>
        <time>2021-08-12T08:59:27Z</time>
      </trkpt>
      <trkpt lat="44.16095" lon="3.60987">
        <ele>904.9</ele>
        <time>2021-08-12T08:59:29Z</time>
      </trkpt>
      <trkpt lat="44.16096" lon="3.60987">
        <ele>904.9</ele>
        <time>2021-08-12T08:59:31Z</time>
      </trkpt>
      <trkpt lat="44.16087" lon="3.60983">
        <ele>904.1</ele>
        <time>2021-08-12T09:09:17Z</time>
      </trkpt>
      <trkpt lat="44.16084" lon="3.60982">
        <ele>903.9</ele>
        <time>2021-08-12T09:09:19Z</time>
      </trkpt>
      <trkpt lat="44.16081" lon="3.6098">
        <ele>903.7</ele>
        <time>2021-08-12T09:09:21Z</time>
      </trkpt>
      <trkpt lat="44.16077" lon="3.60978">
        <ele>903.5</ele>
        <time>2021-08-12T09:09:23Z</time>
      </trkpt>
      <trkpt lat="44.16073" lon="3.60976">
        <ele>903.4</ele>
        <time>2021-08-12T09:09:25Z</time>
      </trkpt>
      <trkpt lat="44.16069" lon="3.60973">
        <ele>903.2</ele>
        <time>2021-08-12T09:09:27Z</time>
      </trkpt>
      <trkpt lat="44.16066" lon="3.60971">
        <ele>903</ele>
        <time>2021-08-12T09:09:29Z</time>
      </trkpt>
      <trkpt lat="44.16063" lon="3.60969">
        <ele>903</ele>
        <time>2021-08-12T09:09:31Z</time>
      </trkpt>
      <trkpt lat="44.16062" lon="3.60963">
        <ele>903.3</ele>
        <time>2021-08-12T09:09:33Z</time>
      </trkpt>
      <trkpt lat="44.16061" lon="3.6096">
        <ele>903.4</ele>
        <time>2021-08-12T09:09:35Z</time>
      </trkpt>
      <trkpt lat="44.16059" lon="3.60956">
        <ele>903.6</ele>
        <time>2021-08-12T09:09:37Z</time>
      </trkpt>
      <trkpt lat="44.16057" lon="3.60953">
        <ele>903.6</ele>
        <time>2021-08-12T09:09:39Z</time>
      </trkpt>
      <trkpt lat="44.16056" lon="3.60949">
        <ele>903.7</ele>
        <time>2021-08-12T09:09:41Z</time>
      </trkpt>
      <trkpt lat="44.16053" lon="3.60945">
        <ele>903.7</ele>
        <time>2021-08-12T09:09:43Z</time>
      </trkpt>
      <trkpt lat="44.1605" lon="3.60941">
        <ele>903.6</ele>
        <time>2021-08-12T09:09:45Z</time>
      </trkpt>
      <trkpt lat="44.16048" lon="3.60936">
        <ele>903.6</ele>
        <time>2021-08-12T09:09:47Z</time>
      </trkpt>
      <trkpt lat="44.16045" lon="3.60932">
        <ele>903.5</ele>
        <time>2021-08-12T09:09:49Z</time>
      </trkpt>
      <trkpt lat="44.16042" lon="3.60928">
        <ele>903.4</ele>
        <time>2021-08-12T09:09:51Z</time>
      </trkpt>
      <trkpt lat="44.1604" lon="3.60924">
        <ele>903.3</ele>
        <time>2021-08-12T09:09:53Z</time>
      </trkpt>
      <trkpt lat="44.16037" lon="3.6092">
        <ele>903.2</ele>
        <time>2021-08-12T09:09:55Z</time>
      </trkpt>
      <trkpt lat="44.16035" lon="3.60915">
        <ele>903.2</ele>
        <time>2021-08-12T09:09:57Z</time>
      </trkpt>
      <trkpt lat="44.16033" lon="3.6091">
        <ele>903.2</ele>
        <time>2021-08-12T09:09:59Z</time>
      </trkpt>
      <trkpt lat="44.16031" lon="3.60905">
        <ele>903.4</ele>
        <time>2021-08-12T09:10:01Z</time>
      </trkpt>
      <trkpt lat="44.16029" lon="3.60902">
        <ele>903.4</ele>
        <time>2021-08-12T09:10:03Z</time>
      </trkpt>
      <trkpt lat="44.16027" lon="3.60897">
        <ele>903.5</ele>
        <time>2021-08-12T09:10:05Z</time>
      </trkpt>
      <trkpt lat="44.16026" lon="3.60892">
        <ele>903.7</ele>
        <time>2021-08-12T09:10:07Z</time>
      </trkpt>
      <trkpt lat="44.16026" lon="3.60887">
        <ele>904</ele>
        <time>2021-08-12T09:10:09Z</time>
      </trkpt>
      <trkpt lat="44.16025" lon="3.60882">
        <ele>904.4</ele>
        <time>2021-08-12T09:10:11Z</time>
      </trkpt>
      <trkpt lat="44.16025" lon="3.60876">
        <ele>904.8</ele>
        <time>2021-08-12T09:10:13Z</time>
      </trkpt>
      <trkpt lat="44.16023" lon="3.60869">
        <ele>905.1</ele>
        <time>2021-08-12T09:10:15Z</time>
      </trkpt>
      <trkpt lat="44.16025" lon="3.60863">
        <ele>905.8</ele>
        <time>2021-08-12T09:10:17Z</time>
      </trkpt>
      <trkpt lat="44.16026" lon="3.60858">
        <ele>906.4</ele>
        <time>2021-08-12T09:10:19Z</time>
      </trkpt>
      <trkpt lat="44.16028" lon="3.60853">
        <ele>907.1</ele>
        <time>2021-08-12T09:10:21Z</time>
      </trkpt>
      <trkpt lat="44.16029" lon="3.60848">
        <ele>907.7</ele>
        <time>2021-08-12T09:10:23Z</time>
      </trkpt>
      <trkpt lat="44.1603" lon="3.60844">
        <ele>908.2</ele>
        <time>2021-08-12T09:10:25Z</time>
      </trkpt>
      <trkpt lat="44.16031" lon="3.60839">
        <ele>908.8</ele>
        <time>2021-08-12T09:10:27Z</time>
      </trkpt>
      <trkpt lat="44.16033" lon="3.60835">
        <ele>909.4</ele>
        <time>2021-08-12T09:10:29Z</time>
      </trkpt>
      <trkpt lat="44.16034" lon="3.60831">
        <ele>909.7</ele>
        <time>2021-08-12T09:10:31Z</time>
      </trkpt>
      <trkpt lat="44.16036" lon="3.60826">
        <ele>909.9</ele>
        <time>2021-08-12T09:10:33Z</time>
      </trkpt>
      <trkpt lat="44.16037" lon="3.60822">
        <ele>910</ele>
        <time>2021-08-12T09:10:35Z</time>
      </trkpt>
      <trkpt lat="44.16038" lon="3.60818">
        <ele>910.2</ele>
        <time>2021-08-12T09:10:37Z</time>
      </trkpt>
      <trkpt lat="44.1604" lon="3.60814">
        <ele>910.5</ele>
        <time>2021-08-12T09:10:39Z</time>
      </trkpt>
      <trkpt lat="44.16041" lon="3.60811">
        <ele>910.7</ele>
        <time>2021-08-12T09:10:41Z</time>
      </trkpt>
      <trkpt lat="44.16043" lon="3.60806">
        <ele>910.9</ele>
        <time>2021-08-12T09:10:43Z</time>
      </trkpt>
      <trkpt lat="44.16045" lon="3.60802">
        <ele>911.2</ele>
        <time>2021-08-12T09:10:45Z</time>
      </trkpt>
      <trkpt lat="44.16046" lon="3.60798">
        <ele>911.4</ele>
        <time>2021-08-12T09:10:47Z</time>
      </trkpt>
      <trkpt lat="44.16048" lon="3.60794">
        <ele>911.6</ele>
        <time>2021-08-12T09:10:49Z</time>
      </trkpt>
      <trkpt lat="44.16049" lon="3.6079">
        <ele>911.9</ele>
        <time>2021-08-12T09:10:51Z</time>
      </trkpt>
      <trkpt lat="44.16051" lon="3.60786">
        <ele>912.2</ele>
        <time>2021-08-12T09:10:53Z</time>
      </trkpt>
      <trkpt lat="44.16053" lon="3.60782">
        <ele>912.4</ele>
        <time>2021-08-12T09:10:55Z</time>
      </trkpt>
      <trkpt lat="44.16054" lon="3.60778">
        <ele>912.6</ele>
        <time>2021-08-12T09:10:57Z</time>
      </trkpt>
      <trkpt lat="44.16056" lon="3.60775">
        <ele>912.9</ele>
        <time>2021-08-12T09:10:59Z</time>
      </trkpt>
      <trkpt lat="44.16057" lon="3.60772">
        <ele>913.1</ele>
        <time>2021-08-12T09:11:01Z</time>
      </trkpt>
      <trkpt lat="44.16059" lon="3.60768">
        <ele>913.4</ele>
        <time>2021-08-12T09:11:03Z</time>
      </trkpt>
      <trkpt lat="44.1606" lon="3.60764">
        <ele>913.6</ele>
        <time>2021-08-12T09:11:05Z</time>
      </trkpt>
      <trkpt lat="44.16061" lon="3.60761">
        <ele>913.9</ele>
        <time>2021-08-12T09:11:07Z</time>
      </trkpt>
      <trkpt lat="44.16063" lon="3.60757">
        <ele>914.1</ele>
        <time>2021-08-12T09:11:09Z</time>
      </trkpt>
      <trkpt lat="44.16064" lon="3.60753">
        <ele>914.4</ele>
        <time>2021-08-12T09:11:11Z</time>
      </trkpt>
      <trkpt lat="44.16066" lon="3.6075">
        <ele>914.6</ele>
        <time>2021-08-12T09:11:13Z</time>
      </trkpt>
      <trkpt lat="44.16068" lon="3.60746">
        <ele>915.1</ele>
        <time>2021-08-12T09:11:15Z</time>
      </trkpt>
      <trkpt lat="44.16069" lon="3.60742">
        <ele>915.5</ele>
        <time>2021-08-12T09:11:17Z</time>
      </trkpt>
      <trkpt lat="44.16071" lon="3.60738">
        <ele>915.9</ele>
        <time>2021-08-12T09:11:19Z</time>
      </trkpt>
      <trkpt lat="44.16072" lon="3.60734">
        <ele>916.2</ele>
        <time>2021-08-12T09:11:21Z</time>
      </trkpt>
      <trkpt lat="44.16074" lon="3.60731">
        <ele>916.6</ele>
        <time>2021-08-12T09:11:23Z</time>
      </trkpt>
      <trkpt lat="44.16075" lon="3.60727">
        <ele>917</ele>
        <time>2021-08-12T09:11:25Z</time>
      </trkpt>
      <trkpt lat="44.16077" lon="3.60723">
        <ele>917.3</ele>
        <time>2021-08-12T09:11:27Z</time>
      </trkpt>
      <trkpt lat="44.16078" lon="3.60719">
        <ele>917.7</ele>
        <time>2021-08-12T09:11:29Z</time>
      </trkpt>
      <trkpt lat="44.1608" lon="3.60715">
        <ele>918.2</ele>
        <time>2021-08-12T09:11:31Z</time>
      </trkpt>
      <trkpt lat="44.16081" lon="3.60711">
        <ele>918.5</ele>
        <time>2021-08-12T09:11:33Z</time>
      </trkpt>
      <trkpt lat="44.16083" lon="3.60707">
        <ele>918.9</ele>
        <time>2021-08-12T09:11:35Z</time>
      </trkpt>
      <trkpt lat="44.16084" lon="3.60704">
        <ele>919.5</ele>
        <time>2021-08-12T09:11:37Z</time>
      </trkpt>
      <trkpt lat="44.16086" lon="3.607">
        <ele>920.1</ele>
        <time>2021-08-12T09:11:39Z</time>
      </trkpt>
      <trkpt lat="44.16087" lon="3.60696">
        <ele>920.7</ele>
        <time>2021-08-12T09:11:41Z</time>
      </trkpt>
      <trkpt lat="44.16089" lon="3.60693">
        <ele>921.3</ele>
        <time>2021-08-12T09:11:43Z</time>
      </trkpt>
      <trkpt lat="44.1609" lon="3.60689">
        <ele>921.9</ele>
        <time>2021-08-12T09:11:45Z</time>
      </trkpt>
      <trkpt lat="44.16092" lon="3.60685">
        <ele>922.5</ele>
        <time>2021-08-12T09:11:47Z</time>
      </trkpt>
      <trkpt lat="44.16094" lon="3.60681">
        <ele>923.2</ele>
        <time>2021-08-12T09:11:49Z</time>
      </trkpt>
      <trkpt lat="44.16095" lon="3.60678">
        <ele>923.8</ele>
        <time>2021-08-12T09:11:51Z</time>
      </trkpt>
      <trkpt lat="44.16097" lon="3.60674">
        <ele>924.5</ele>
        <time>2021-08-12T09:11:53Z</time>
      </trkpt>
      <trkpt lat="44.16098" lon="3.60671">
        <ele>925.2</ele>
        <time>2021-08-12T09:11:55Z</time>
      </trkpt>
      <trkpt lat="44.16099" lon="3.60667">
        <ele>925.8</ele>
        <time>2021-08-12T09:11:57Z</time>
      </trkpt>
      <trkpt lat="44.16101" lon="3.60663">
        <ele>926.3</ele>
        <time>2021-08-12T09:11:59Z</time>
      </trkpt>
      <trkpt lat="44.16102" lon="3.60659">
        <ele>926.9</ele>
        <time>2021-08-12T09:12:01Z</time>
      </trkpt>
      <trkpt lat="44.16103" lon="3.60655">
        <ele>927.3</ele>
        <time>2021-08-12T09:12:03Z</time>
      </trkpt>
      <trkpt lat="44.16104" lon="3.60651">
        <ele>927.7</ele>
        <time>2021-08-12T09:12:05Z</time>
      </trkpt>
      <trkpt lat="44.16105" lon="3.60646">
        <ele>927.9</ele>
        <time>2021-08-12T09:12:07Z</time>
      </trkpt>
      <trkpt lat="44.16105" lon="3.60642">
        <ele>928.2</ele>
        <time>2021-08-12T09:12:09Z</time>
      </trkpt>
      <trkpt lat="44.16106" lon="3.60638">
        <ele>928.3</ele>
        <time>2021-08-12T09:12:11Z</time>
      </trkpt>
      <trkpt lat="44.16106" lon="3.60633">
        <ele>928.5</ele>
        <time>2021-08-12T09:12:13Z</time>
      </trkpt>
      <trkpt lat="44.16106" lon="3.60629">
        <ele>928.5</ele>
        <time>2021-08-12T09:12:15Z</time>
      </trkpt>
      <trkpt lat="44.16106" lon="3.60625">
        <ele>928.8</ele>
        <time>2021-08-12T09:12:17Z</time>
      </trkpt>
      <trkpt lat="44.16106" lon="3.6062">
        <ele>928.8</ele>
        <time>2021-08-12T09:12:19Z</time>
      </trkpt>
      <trkpt lat="44.16106" lon="3.60616">
        <ele>928.8</ele>
        <time>2021-08-12T09:12:21Z</time>
      </trkpt>
      <trkpt lat="44.16107" lon="3.60612">
        <ele>929</ele>
        <time>2021-08-12T09:12:23Z</time>
      </trkpt>
      <trkpt lat="44.16107" lon="3.60607">
        <ele>929.2</ele>
        <time>2021-08-12T09:12:25Z</time>
      </trkpt>
      <trkpt lat="44.16107" lon="3.60602">
        <ele>929.3</ele>
        <time>2021-08-12T09:12:27Z</time>
      </trkpt>
      <trkpt lat="44.16107" lon="3.60598">
        <ele>929.4</ele>
        <time>2021-08-12T09:12:29Z</time>
      </trkpt>
      <trkpt lat="44.16107" lon="3.60594">
        <ele>929.6</ele>
        <time>2021-08-12T09:12:31Z</time>
      </trkpt>
      <trkpt lat="44.16108" lon="3.6059">
        <ele>929.7</ele>
        <time>2021-08-12T09:12:33Z</time>
      </trkpt>
      <trkpt lat="44.16108" lon="3.60586">
        <ele>930</ele>
        <time>2021-08-12T09:12:35Z</time>
      </trkpt>
      <trkpt lat="44.16109" lon="3.60581">
        <ele>930.2</ele>
        <time>2021-08-12T09:12:37Z</time>
      </trkpt>
      <trkpt lat="44.1611" lon="3.60577">
        <ele>930.6</ele>
        <time>2021-08-12T09:12:39Z</time>
      </trkpt>
      <trkpt lat="44.16111" lon="3.60573">
        <ele>930.9</ele>
        <time>2021-08-12T09:12:41Z</time>
      </trkpt>
      <trkpt lat="44.16112" lon="3.60569">
        <ele>931.2</ele>
        <time>2021-08-12T09:12:43Z</time>
      </trkpt>
      <trkpt lat="44.16113" lon="3.60566">
        <ele>931.8</ele>
        <time>2021-08-12T09:12:45Z</time>
      </trkpt>
      <trkpt lat="44.16115" lon="3.60562">
        <ele>932.3</ele>
        <time>2021-08-12T09:12:47Z</time>
      </trkpt>
      <trkpt lat="44.16116" lon="3.60558">
        <ele>932.9</ele>
        <time>2021-08-12T09:12:49Z</time>
      </trkpt>
      <trkpt lat="44.16118" lon="3.60555">
        <ele>933.5</ele>
        <time>2021-08-12T09:12:51Z</time>
      </trkpt>
      <trkpt lat="44.1612" lon="3.60551">
        <ele>934</ele>
        <time>2021-08-12T09:12:53Z</time>
      </trkpt>
      <trkpt lat="44.16121" lon="3.60548">
        <ele>934.6</ele>
        <time>2021-08-12T09:12:55Z</time>
      </trkpt>
      <trkpt lat="44.16123" lon="3.60544">
        <ele>935.1</ele>
        <time>2021-08-12T09:12:57Z</time>
      </trkpt>
      <trkpt lat="44.16125" lon="3.6054">
        <ele>935.6</ele>
        <time>2021-08-12T09:12:59Z</time>
      </trkpt>
      <trkpt lat="44.16126" lon="3.60537">
        <ele>936.1</ele>
        <time>2021-08-12T09:13:01Z</time>
      </trkpt>
      <trkpt lat="44.16127" lon="3.60533">
        <ele>936.5</ele>
        <time>2021-08-12T09:13:03Z</time>
      </trkpt>
      <trkpt lat="44.16129" lon="3.60529">
        <ele>936.8</ele>
        <time>2021-08-12T09:13:05Z</time>
      </trkpt>
      <trkpt lat="44.1613" lon="3.60525">
        <ele>937.1</ele>
        <time>2021-08-12T09:13:07Z</time>
      </trkpt>
      <trkpt lat="44.16131" lon="3.60521">
        <ele>937.6</ele>
        <time>2021-08-12T09:13:09Z</time>
      </trkpt>
      <trkpt lat="44.16132" lon="3.60518">
        <ele>937.9</ele>
        <time>2021-08-12T09:13:11Z</time>
      </trkpt>
      <trkpt lat="44.16133" lon="3.60514">
        <ele>938.2</ele>
        <time>2021-08-12T09:13:13Z</time>
      </trkpt>
      <trkpt lat="44.16134" lon="3.6051">
        <ele>938.5</ele>
        <time>2021-08-12T09:13:15Z</time>
      </trkpt>
      <trkpt lat="44.16136" lon="3.60506">
        <ele>938.8</ele>
        <time>2021-08-12T09:13:17Z</time>
      </trkpt>
      <trkpt lat="44.16137" lon="3.60502">
        <ele>939.1</ele>
        <time>2021-08-12T09:13:19Z</time>
      </trkpt>
      <trkpt lat="44.16138" lon="3.60498">
        <ele>939.4</ele>
        <time>2021-08-12T09:13:21Z</time>
      </trkpt>
      <trkpt lat="44.16139" lon="3.60494">
        <ele>939.8</ele>
        <time>2021-08-12T09:13:23Z</time>
      </trkpt>
      <trkpt lat="44.16141" lon="3.60491">
        <ele>940.2</ele>
        <time>2021-08-12T09:13:25Z</time>
      </trkpt>
      <trkpt lat="44.16142" lon="3.60487">
        <ele>940.5</ele>
        <time>2021-08-12T09:13:27Z</time>
      </trkpt>
      <trkpt lat="44.16143" lon="3.60483">
        <ele>941</ele>
        <time>2021-08-12T09:13:29Z</time>
      </trkpt>
      <trkpt lat="44.16144" lon="3.60479">
        <ele>941.3</ele>
        <time>2021-08-12T09:13:31Z</time>
      </trkpt>
      <trkpt lat="44.16145" lon="3.60475">
        <ele>941.6</ele>
        <time>2021-08-12T09:13:33Z</time>
      </trkpt>
      <trkpt lat="44.16145" lon="3.60471">
        <ele>941.8</ele>
        <time>2021-08-12T09:13:35Z</time>
      </trkpt>
      <trkpt lat="44.16146" lon="3.60467">
        <ele>942</ele>
        <time>2021-08-12T09:13:37Z</time>
      </trkpt>
      <trkpt lat="44.16145" lon="3.60462">
        <ele>941.8</ele>
        <time>2021-08-12T09:13:39Z</time>
      </trkpt>
      <trkpt lat="44.16146" lon="3.60458">
        <ele>941.9</ele>
        <time>2021-08-12T09:13:41Z</time>
      </trkpt>
      <trkpt lat="44.16145" lon="3.60454">
        <ele>941.9</ele>
        <time>2021-08-12T09:13:43Z</time>
      </trkpt>
      <trkpt lat="44.16146" lon="3.6045">
        <ele>942</ele>
        <time>2021-08-12T09:13:45Z</time>
      </trkpt>
      <trkpt lat="44.16146" lon="3.60445">
        <ele>942</ele>
        <time>2021-08-12T09:13:47Z</time>
      </trkpt>
      <trkpt lat="44.16146" lon="3.60441">
        <ele>942.1</ele>
        <time>2021-08-12T09:13:49Z</time>
      </trkpt>
      <trkpt lat="44.16146" lon="3.60437">
        <ele>942.2</ele>
        <time>2021-08-12T09:13:51Z</time>
      </trkpt>
      <trkpt lat="44.16146" lon="3.60433">
        <ele>942.3</ele>
        <time>2021-08-12T09:13:53Z</time>
      </trkpt>
      <trkpt lat="44.16147" lon="3.60428">
        <ele>942.4</ele>
        <time>2021-08-12T09:13:55Z</time>
      </trkpt>
      <trkpt lat="44.16147" lon="3.60424">
        <ele>942.7</ele>
        <time>2021-08-12T09:13:57Z</time>
      </trkpt>
      <trkpt lat="44.16148" lon="3.6042">
        <ele>942.9</ele>
        <time>2021-08-12T09:13:59Z</time>
      </trkpt>
      <trkpt lat="44.16148" lon="3.60416">
        <ele>943</ele>
        <time>2021-08-12T09:14:01Z</time>
      </trkpt>
      <trkpt lat="44.16149" lon="3.60412">
        <ele>943.1</ele>
        <time>2021-08-12T09:14:03Z</time>
      </trkpt>
      <trkpt lat="44.16149" lon="3.60408">
        <ele>943.3</ele>
        <time>2021-08-12T09:14:05Z</time>
      </trkpt>
      <trkpt lat="44.1615" lon="3.60404">
        <ele>943.3</ele>
        <time>2021-08-12T09:14:07Z</time>
      </trkpt>
      <trkpt lat="44.1615" lon="3.604">
        <ele>943.4</ele>
        <time>2021-08-12T09:14:09Z</time>
      </trkpt>
      <trkpt lat="44.16151" lon="3.60395">
        <ele>943.5</ele>
        <time>2021-08-12T09:14:11Z</time>
      </trkpt>
      <trkpt lat="44.16152" lon="3.60391">
        <ele>943.7</ele>
        <time>2021-08-12T09:14:13Z</time>
      </trkpt>
      <trkpt lat="44.16153" lon="3.60387">
        <ele>943.9</ele>
        <time>2021-08-12T09:14:15Z</time>
      </trkpt>
      <trkpt lat="44.16153" lon="3.60383">
        <ele>944.1</ele>
        <time>2021-08-12T09:14:17Z</time>
      </trkpt>
      <trkpt lat="44.16155" lon="3.60379">
        <ele>944.4</ele>
        <time>2021-08-12T09:14:19Z</time>
      </trkpt>
      <trkpt lat="44.16156" lon="3.60375">
        <ele>944.7</ele>
        <time>2021-08-12T09:14:21Z</time>
      </trkpt>
      <trkpt lat="44.16157" lon="3.6037">
        <ele>944.9</ele>
        <time>2021-08-12T09:14:23Z</time>
      </trkpt>
      <trkpt lat="44.16158" lon="3.60366">
        <ele>945</ele>
        <time>2021-08-12T09:14:25Z</time>
      </trkpt>
      <trkpt lat="44.16159" lon="3.60362">
        <ele>945.2</ele>
        <time>2021-08-12T09:14:27Z</time>
      </trkpt>
      <trkpt lat="44.1616" lon="3.60358">
        <ele>945.5</ele>
        <time>2021-08-12T09:14:29Z</time>
      </trkpt>
      <trkpt lat="44.1616" lon="3.60355">
        <ele>945.6</ele>
        <time>2021-08-12T09:14:31Z</time>
      </trkpt>
      <trkpt lat="44.16161" lon="3.60351">
        <ele>945.8</ele>
        <time>2021-08-12T09:14:33Z</time>
      </trkpt>
      <trkpt lat="44.16163" lon="3.60347">
        <ele>946.1</ele>
        <time>2021-08-12T09:14:35Z</time>
      </trkpt>
      <trkpt lat="44.16164" lon="3.60343">
        <ele>946.3</ele>
        <time>2021-08-12T09:14:37Z</time>
      </trkpt>
      <trkpt lat="44.16164" lon="3.60339">
        <ele>946.5</ele>
        <time>2021-08-12T09:14:39Z</time>
      </trkpt>
      <trkpt lat="44.16166" lon="3.60335">
        <ele>946.7</ele>
        <time>2021-08-12T09:14:41Z</time>
      </trkpt>
      <trkpt lat="44.16167" lon="3.60331">
        <ele>946.9</ele>
        <time>2021-08-12T09:14:43Z</time>
      </trkpt>
      <trkpt lat="44.16168" lon="3.60327">
        <ele>947.1</ele>
        <time>2021-08-12T09:14:45Z</time>
      </trkpt>
      <trkpt lat="44.16169" lon="3.60323">
        <ele>947.3</ele>
        <time>2021-08-12T09:14:47Z</time>
      </trkpt>
      <trkpt lat="44.1617" lon="3.60319">
        <ele>947.5</ele>
        <time>2021-08-12T09:14:49Z</time>
      </trkpt>
      <trkpt lat="44.16171" lon="3.60315">
        <ele>947.7</ele>
        <time>2021-08-12T09:14:51Z</time>
      </trkpt>
      <trkpt lat="44.16172" lon="3.60311">
        <ele>947.8</ele>
        <time>2021-08-12T09:14:53Z</time>
      </trkpt>
      <trkpt lat="44.16173" lon="3.60307">
        <ele>948.1</ele>
        <time>2021-08-12T09:14:55Z</time>
      </trkpt>
      <trkpt lat="44.16175" lon="3.60304">
        <ele>948.4</ele>
        <time>2021-08-12T09:14:57Z</time>
      </trkpt>
      <trkpt lat="44.16176" lon="3.603">
        <ele>948.5</ele>
        <time>2021-08-12T09:14:59Z</time>
      </trkpt>
      <trkpt lat="44.16177" lon="3.60296">
        <ele>948.9</ele>
        <time>2021-08-12T09:15:01Z</time>
      </trkpt>
      <trkpt lat="44.16179" lon="3.60292">
        <ele>949.2</ele>
        <time>2021-08-12T09:15:03Z</time>
      </trkpt>
      <trkpt lat="44.1618" lon="3.60288">
        <ele>949.5</ele>
        <time>2021-08-12T09:15:05Z</time>
      </trkpt>
      <trkpt lat="44.16182" lon="3.60285">
        <ele>949.9</ele>
        <time>2021-08-12T09:15:07Z</time>
      </trkpt>
      <trkpt lat="44.16184" lon="3.60281">
        <ele>950.3</ele>
        <time>2021-08-12T09:15:09Z</time>
      </trkpt>
      <trkpt lat="44.16185" lon="3.60278">
        <ele>950.6</ele>
        <time>2021-08-12T09:15:11Z</time>
      </trkpt>
      <trkpt lat="44.16187" lon="3.60274">
        <ele>951</ele>
        <time>2021-08-12T09:15:13Z</time>
      </trkpt>
      <trkpt lat="44.16188" lon="3.6027">
        <ele>951.3</ele>
        <time>2021-08-12T09:15:15Z</time>
      </trkpt>
      <trkpt lat="44.1619" lon="3.60267">
        <ele>951.6</ele>
        <time>2021-08-12T09:15:17Z</time>
      </trkpt>
      <trkpt lat="44.16192" lon="3.60263">
        <ele>952</ele>
        <time>2021-08-12T09:15:19Z</time>
      </trkpt>
      <trkpt lat="44.16193" lon="3.60259">
        <ele>952.4</ele>
        <time>2021-08-12T09:15:21Z</time>
      </trkpt>
      <trkpt lat="44.16195" lon="3.60256">
        <ele>952.8</ele>
        <time>2021-08-12T09:15:23Z</time>
      </trkpt>
      <trkpt lat="44.16197" lon="3.60253">
        <ele>953.2</ele>
        <time>2021-08-12T09:15:25Z</time>
      </trkpt>
      <trkpt lat="44.16199" lon="3.60249">
        <ele>953.7</ele>
        <time>2021-08-12T09:15:27Z</time>
      </trkpt>
      <trkpt lat="44.16201" lon="3.60246">
        <ele>954.5</ele>
        <time>2021-08-12T09:15:29Z</time>
      </trkpt>
      <trkpt lat="44.16203" lon="3.60243">
        <ele>955.2</ele>
        <time>2021-08-12T09:15:31Z</time>
      </trkpt>
      <trkpt lat="44.16206" lon="3.6024">
        <ele>956</ele>
        <time>2021-08-12T09:15:33Z</time>
      </trkpt>
      <trkpt lat="44.16208" lon="3.60237">
        <ele>956.7</ele>
        <time>2021-08-12T09:15:35Z</time>
      </trkpt>
      <trkpt lat="44.1621" lon="3.60233">
        <ele>957.5</ele>
        <time>2021-08-12T09:15:37Z</time>
      </trkpt>
      <trkpt lat="44.16213" lon="3.6023">
        <ele>958.3</ele>
        <time>2021-08-12T09:15:39Z</time>
      </trkpt>
      <trkpt lat="44.16215" lon="3.60227">
        <ele>958.9</ele>
        <time>2021-08-12T09:15:41Z</time>
      </trkpt>
      <trkpt lat="44.16216" lon="3.60224">
        <ele>959.4</ele>
        <time>2021-08-12T09:15:43Z</time>
      </trkpt>
      <trkpt lat="44.16217" lon="3.6022">
        <ele>959.8</ele>
        <time>2021-08-12T09:15:45Z</time>
      </trkpt>
      <trkpt lat="44.16219" lon="3.60216">
        <ele>960.3</ele>
        <time>2021-08-12T09:15:47Z</time>
      </trkpt>
      <trkpt lat="44.1622" lon="3.60212">
        <ele>960.6</ele>
        <time>2021-08-12T09:15:49Z</time>
      </trkpt>
      <trkpt lat="44.16221" lon="3.60208">
        <ele>960.9</ele>
        <time>2021-08-12T09:15:51Z</time>
      </trkpt>
      <trkpt lat="44.16221" lon="3.60204">
        <ele>961.2</ele>
        <time>2021-08-12T09:15:53Z</time>
      </trkpt>
      <trkpt lat="44.16222" lon="3.602">
        <ele>961.4</ele>
        <time>2021-08-12T09:15:55Z</time>
      </trkpt>
      <trkpt lat="44.16222" lon="3.60196">
        <ele>961.5</ele>
        <time>2021-08-12T09:15:57Z</time>
      </trkpt>
      <trkpt lat="44.16222" lon="3.60192">
        <ele>961.6</ele>
        <time>2021-08-12T09:15:59Z</time>
      </trkpt>
      <trkpt lat="44.16222" lon="3.60188">
        <ele>961.7</ele>
        <time>2021-08-12T09:16:01Z</time>
      </trkpt>
      <trkpt lat="44.16222" lon="3.60183">
        <ele>961.7</ele>
        <time>2021-08-12T09:16:03Z</time>
      </trkpt>
      <trkpt lat="44.16222" lon="3.60179">
        <ele>961.7</ele>
        <time>2021-08-12T09:16:05Z</time>
      </trkpt>
      <trkpt lat="44.16221" lon="3.60175">
        <ele>961.5</ele>
        <time>2021-08-12T09:16:07Z</time>
      </trkpt>
      <trkpt lat="44.1622" lon="3.60171">
        <ele>961.4</ele>
        <time>2021-08-12T09:16:09Z</time>
      </trkpt>
      <trkpt lat="44.16219" lon="3.60166">
        <ele>961.2</ele>
        <time>2021-08-12T09:16:11Z</time>
      </trkpt>
      <trkpt lat="44.16217" lon="3.60163">
        <ele>961.2</ele>
        <time>2021-08-12T09:16:13Z</time>
      </trkpt>
      <trkpt lat="44.16217" lon="3.60159">
        <ele>961.4</ele>
        <time>2021-08-12T09:16:15Z</time>
      </trkpt>
      <trkpt lat="44.16215" lon="3.60155">
        <ele>961.4</ele>
        <time>2021-08-12T09:16:17Z</time>
      </trkpt>
      <trkpt lat="44.16214" lon="3.60151">
        <ele>961.6</ele>
        <time>2021-08-12T09:16:19Z</time>
      </trkpt>
      <trkpt lat="44.16214" lon="3.60147">
        <ele>961.8</ele>
        <time>2021-08-12T09:16:21Z</time>
      </trkpt>
      <trkpt lat="44.16213" lon="3.60143">
        <ele>961.9</ele>
        <time>2021-08-12T09:16:23Z</time>
      </trkpt>
      <trkpt lat="44.16211" lon="3.60139">
        <ele>961.9</ele>
        <time>2021-08-12T09:16:25Z</time>
      </trkpt>
      <trkpt lat="44.1621" lon="3.60135">
        <ele>961.9</ele>
        <time>2021-08-12T09:16:27Z</time>
      </trkpt>
      <trkpt lat="44.16209" lon="3.60131">
        <ele>962.1</ele>
        <time>2021-08-12T09:16:29Z</time>
      </trkpt>
      <trkpt lat="44.16208" lon="3.60127">
        <ele>962.3</ele>
        <time>2021-08-12T09:16:31Z</time>
      </trkpt>
      <trkpt lat="44.16207" lon="3.60123">
        <ele>962.4</ele>
        <time>2021-08-12T09:16:33Z</time>
      </trkpt>
      <trkpt lat="44.16206" lon="3.60119">
        <ele>962.5</ele>
        <time>2021-08-12T09:16:35Z</time>
      </trkpt>
      <trkpt lat="44.16205" lon="3.60114">
        <ele>962.8</ele>
        <time>2021-08-12T09:16:37Z</time>
      </trkpt>
      <trkpt lat="44.16204" lon="3.6011">
        <ele>962.9</ele>
        <time>2021-08-12T09:16:39Z</time>
      </trkpt>
      <trkpt lat="44.16204" lon="3.60106">
        <ele>963.2</ele>
        <time>2021-08-12T09:16:41Z</time>
      </trkpt>
      <trkpt lat="44.16204" lon="3.60101">
        <ele>963.6</ele>
        <time>2021-08-12T09:16:43Z</time>
      </trkpt>
      <trkpt lat="44.16204" lon="3.60097">
        <ele>964</ele>
        <time>2021-08-12T09:16:45Z</time>
      </trkpt>
      <trkpt lat="44.16203" lon="3.60093">
        <ele>964.3</ele>
        <time>2021-08-12T09:16:47Z</time>
      </trkpt>
      <trkpt lat="44.16203" lon="3.60089">
        <ele>964.7</ele>
        <time>2021-08-12T09:16:49Z</time>
      </trkpt>
      <trkpt lat="44.16203" lon="3.60085">
        <ele>965.1</ele>
        <time>2021-08-12T09:16:51Z</time>
      </trkpt>
      <trkpt lat="44.16203" lon="3.6008">
        <ele>965.5</ele>
        <time>2021-08-12T09:16:53Z</time>
      </trkpt>
      <trkpt lat="44.16204" lon="3.60076">
        <ele>965.9</ele>
        <time>2021-08-12T09:16:55Z</time>
      </trkpt>
      <trkpt lat="44.16205" lon="3.60071">
        <ele>966.4</ele>
        <time>2021-08-12T09:16:57Z</time>
      </trkpt>
      <trkpt lat="44.16206" lon="3.60067">
        <ele>966.9</ele>
        <time>2021-08-12T09:16:59Z</time>
      </trkpt>
      <trkpt lat="44.16207" lon="3.60064">
        <ele>967.6</ele>
        <time>2021-08-12T09:17:01Z</time>
      </trkpt>
      <trkpt lat="44.16209" lon="3.6006">
        <ele>968.3</ele>
        <time>2021-08-12T09:17:03Z</time>
      </trkpt>
      <trkpt lat="44.1621" lon="3.60056">
        <ele>968.9</ele>
        <time>2021-08-12T09:17:05Z</time>
      </trkpt>
      <trkpt lat="44.16212" lon="3.60052">
        <ele>969.7</ele>
        <time>2021-08-12T09:17:07Z</time>
      </trkpt>
      <trkpt lat="44.16215" lon="3.60049">
        <ele>970.6</ele>
        <time>2021-08-12T09:17:09Z</time>
      </trkpt>
      <trkpt lat="44.16217" lon="3.60047">
        <ele>971.3</ele>
        <time>2021-08-12T09:17:11Z</time>
      </trkpt>
      <trkpt lat="44.16218" lon="3.60043">
        <ele>972</ele>
        <time>2021-08-12T09:17:13Z</time>
      </trkpt>
      <trkpt lat="44.1622" lon="3.60038">
        <ele>972.7</ele>
        <time>2021-08-12T09:17:15Z</time>
      </trkpt>
      <trkpt lat="44.16219" lon="3.60035">
        <ele>972.9</ele>
        <time>2021-08-12T09:17:17Z</time>
      </trkpt>
      <trkpt lat="44.1622" lon="3.60031">
        <ele>973.3</ele>
        <time>2021-08-12T09:17:19Z</time>
      </trkpt>
      <trkpt lat="44.16218" lon="3.60027">
        <ele>973.2</ele>
        <time>2021-08-12T09:17:21Z</time>
      </trkpt>
      <trkpt lat="44.16217" lon="3.60023">
        <ele>973.2</ele>
        <time>2021-08-12T09:17:23Z</time>
      </trkpt>
      <trkpt lat="44.16215" lon="3.60019">
        <ele>973</ele>
        <time>2021-08-12T09:17:25Z</time>
      </trkpt>
      <trkpt lat="44.16213" lon="3.60016">
        <ele>972.7</ele>
        <time>2021-08-12T09:17:27Z</time>
      </trkpt>
      <trkpt lat="44.16212" lon="3.60012">
        <ele>972.6</ele>
        <time>2021-08-12T09:17:29Z</time>
      </trkpt>
      <trkpt lat="44.16211" lon="3.60008">
        <ele>972.5</ele>
        <time>2021-08-12T09:17:31Z</time>
      </trkpt>
      <trkpt lat="44.16209" lon="3.60004">
        <ele>972.4</ele>
        <time>2021-08-12T09:17:33Z</time>
      </trkpt>
      <trkpt lat="44.16208" lon="3.6">
        <ele>972.5</ele>
        <time>2021-08-12T09:17:35Z</time>
      </trkpt>
      <trkpt lat="44.16208" lon="3.59996">
        <ele>973</ele>
        <time>2021-08-12T09:17:37Z</time>
      </trkpt>
      <trkpt lat="44.16208" lon="3.59992">
        <ele>973.4</ele>
        <time>2021-08-12T09:17:39Z</time>
      </trkpt>
      <trkpt lat="44.16207" lon="3.59988">
        <ele>973.9</ele>
        <time>2021-08-12T09:17:41Z</time>
      </trkpt>
      <trkpt lat="44.16207" lon="3.59983">
        <ele>974.4</ele>
        <time>2021-08-12T09:17:43Z</time>
      </trkpt>
      <trkpt lat="44.16207" lon="3.59979">
        <ele>975</ele>
        <time>2021-08-12T09:17:45Z</time>
      </trkpt>
      <trkpt lat="44.16207" lon="3.59975">
        <ele>975.7</ele>
        <time>2021-08-12T09:17:47Z</time>
      </trkpt>
      <trkpt lat="44.16207" lon="3.5997">
        <ele>976.2</ele>
        <time>2021-08-12T09:17:49Z</time>
      </trkpt>
      <trkpt lat="44.16207" lon="3.59965">
        <ele>976.8</ele>
        <time>2021-08-12T09:17:51Z</time>
      </trkpt>
      <trkpt lat="44.16206" lon="3.59961">
        <ele>977.3</ele>
        <time>2021-08-12T09:17:53Z</time>
      </trkpt>
      <trkpt lat="44.16206" lon="3.59957">
        <ele>977.8</ele>
        <time>2021-08-12T09:17:55Z</time>
      </trkpt>
      <trkpt lat="44.16205" lon="3.59953">
        <ele>978.2</ele>
        <time>2021-08-12T09:17:57Z</time>
      </trkpt>
      <trkpt lat="44.16205" lon="3.59949">
        <ele>978.6</ele>
        <time>2021-08-12T09:17:59Z</time>
      </trkpt>
      <trkpt lat="44.16204" lon="3.59944">
        <ele>979</ele>
        <time>2021-08-12T09:18:01Z</time>
      </trkpt>
      <trkpt lat="44.16203" lon="3.5994">
        <ele>979.4</ele>
        <time>2021-08-12T09:18:03Z</time>
      </trkpt>
      <trkpt lat="44.16202" lon="3.59935">
        <ele>979.7</ele>
        <time>2021-08-12T09:18:05Z</time>
      </trkpt>
      <trkpt lat="44.16201" lon="3.59931">
        <ele>980</ele>
        <time>2021-08-12T09:18:07Z</time>
      </trkpt>
      <trkpt lat="44.162" lon="3.59927">
        <ele>980.2</ele>
        <time>2021-08-12T09:18:09Z</time>
      </trkpt>
      <trkpt lat="44.16198" lon="3.59923">
        <ele>980.5</ele>
        <time>2021-08-12T09:18:11Z</time>
      </trkpt>
      <trkpt lat="44.16197" lon="3.59919">
        <ele>980.6</ele>
        <time>2021-08-12T09:18:13Z</time>
      </trkpt>
      <trkpt lat="44.16196" lon="3.59915">
        <ele>980.9</ele>
        <time>2021-08-12T09:18:15Z</time>
      </trkpt>
      <trkpt lat="44.16194" lon="3.59912">
        <ele>981.1</ele>
        <time>2021-08-12T09:18:17Z</time>
      </trkpt>
      <trkpt lat="44.16193" lon="3.59908">
        <ele>981.5</ele>
        <time>2021-08-12T09:18:19Z</time>
      </trkpt>
      <trkpt lat="44.16191" lon="3.59904">
        <ele>981.8</ele>
        <time>2021-08-12T09:18:21Z</time>
      </trkpt>
      <trkpt lat="44.1619" lon="3.599">
        <ele>982.1</ele>
        <time>2021-08-12T09:18:23Z</time>
      </trkpt>
      <trkpt lat="44.16188" lon="3.59896">
        <ele>982.4</ele>
        <time>2021-08-12T09:18:25Z</time>
      </trkpt>
      <trkpt lat="44.16186" lon="3.59892">
        <ele>982.6</ele>
        <time>2021-08-12T09:18:27Z</time>
      </trkpt>
      <trkpt lat="44.16184" lon="3.59888">
        <ele>982.8</ele>
        <time>2021-08-12T09:18:29Z</time>
      </trkpt>
      <trkpt lat="44.16183" lon="3.59885">
        <ele>983.1</ele>
        <time>2021-08-12T09:18:31Z</time>
      </trkpt>
      <trkpt lat="44.16181" lon="3.59881">
        <ele>983.2</ele>
        <time>2021-08-12T09:18:33Z</time>
      </trkpt>
      <trkpt lat="44.16179" lon="3.59878">
        <ele>983.3</ele>
        <time>2021-08-12T09:18:35Z</time>
      </trkpt>
      <trkpt lat="44.16176" lon="3.59874">
        <ele>983.2</ele>
        <time>2021-08-12T09:18:37Z</time>
      </trkpt>
      <trkpt lat="44.16174" lon="3.59871">
        <ele>983.1</ele>
        <time>2021-08-12T09:18:39Z</time>
      </trkpt>
      <trkpt lat="44.16171" lon="3.59869">
        <ele>982.8</ele>
        <time>2021-08-12T09:18:41Z</time>
      </trkpt>
      <trkpt lat="44.16169" lon="3.59866">
        <ele>982.8</ele>
        <time>2021-08-12T09:18:43Z</time>
      </trkpt>
      <trkpt lat="44.16167" lon="3.59864">
        <ele>982.5</ele>
        <time>2021-08-12T09:18:45Z</time>
      </trkpt>
      <trkpt lat="44.16164" lon="3.59861">
        <ele>982.3</ele>
        <time>2021-08-12T09:18:47Z</time>
      </trkpt>
      <trkpt lat="44.16161" lon="3.59858">
        <ele>982</ele>
        <time>2021-08-12T09:18:49Z</time>
      </trkpt>
      <trkpt lat="44.16159" lon="3.59856">
        <ele>981.7</ele>
        <time>2021-08-12T09:18:51Z</time>
      </trkpt>
      <trkpt lat="44.16157" lon="3.59853">
        <ele>981.6</ele>
        <time>2021-08-12T09:18:53Z</time>
      </trkpt>
      <trkpt lat="44.16155" lon="3.5985">
        <ele>981.5</ele>
        <time>2021-08-12T09:18:55Z</time>
      </trkpt>
      <trkpt lat="44.16153" lon="3.59846">
        <ele>981.6</ele>
        <time>2021-08-12T09:18:57Z</time>
      </trkpt>
      <trkpt lat="44.16152" lon="3.59842">
        <ele>981.8</ele>
        <time>2021-08-12T09:18:59Z</time>
      </trkpt>
      <trkpt lat="44.16151" lon="3.59838">
        <ele>982.4</ele>
        <time>2021-08-12T09:19:01Z</time>
      </trkpt>
      <trkpt lat="44.16151" lon="3.59833">
        <ele>983</ele>
        <time>2021-08-12T09:19:03Z</time>
      </trkpt>
      <trkpt lat="44.1615" lon="3.59829">
        <ele>983.5</ele>
        <time>2021-08-12T09:19:05Z</time>
      </trkpt>
      <trkpt lat="44.1615" lon="3.59825">
        <ele>983.9</ele>
        <time>2021-08-12T09:19:07Z</time>
      </trkpt>
      <trkpt lat="44.1615" lon="3.5982">
        <ele>984.5</ele>
        <time>2021-08-12T09:19:09Z</time>
      </trkpt>
      <trkpt lat="44.1615" lon="3.59816">
        <ele>985.1</ele>
        <time>2021-08-12T09:19:11Z</time>
      </trkpt>
      <trkpt lat="44.1615" lon="3.59812">
        <ele>985.6</ele>
        <time>2021-08-12T09:19:13Z</time>
      </trkpt>
      <trkpt lat="44.1615" lon="3.59808">
        <ele>986.3</ele>
        <time>2021-08-12T09:19:15Z</time>
      </trkpt>
      <trkpt lat="44.16151" lon="3.59804">
        <ele>986.9</ele>
        <time>2021-08-12T09:19:17Z</time>
      </trkpt>
      <trkpt lat="44.16151" lon="3.59799">
        <ele>987.5</ele>
        <time>2021-08-12T09:19:19Z</time>
      </trkpt>
      <trkpt lat="44.16151" lon="3.59795">
        <ele>988.2</ele>
        <time>2021-08-12T09:19:21Z</time>
      </trkpt>
      <trkpt lat="44.16151" lon="3.59791">
        <ele>988.8</ele>
        <time>2021-08-12T09:19:23Z</time>
      </trkpt>
      <trkpt lat="44.16152" lon="3.59787">
        <ele>989.5</ele>
        <time>2021-08-12T09:19:25Z</time>
      </trkpt>
      <trkpt lat="44.16152" lon="3.59782">
        <ele>990.1</ele>
        <time>2021-08-12T09:19:27Z</time>
      </trkpt>
      <trkpt lat="44.16152" lon="3.59778">
        <ele>990.8</ele>
        <time>2021-08-12T09:19:29Z</time>
      </trkpt>
      <trkpt lat="44.16152" lon="3.59773">
        <ele>991.4</ele>
        <time>2021-08-12T09:19:31Z</time>
      </trkpt>
      <trkpt lat="44.16152" lon="3.59769">
        <ele>991.9</ele>
        <time>2021-08-12T09:19:33Z</time>
      </trkpt>
      <trkpt lat="44.16152" lon="3.59765">
        <ele>992.5</ele>
        <time>2021-08-12T09:19:35Z</time>
      </trkpt>
      <trkpt lat="44.16152" lon="3.59761">
        <ele>993</ele>
        <time>2021-08-12T09:19:37Z</time>
      </trkpt>
      <trkpt lat="44.16151" lon="3.59756">
        <ele>993.5</ele>
        <time>2021-08-12T09:19:39Z</time>
      </trkpt>
      <trkpt lat="44.16151" lon="3.59752">
        <ele>994</ele>
        <time>2021-08-12T09:19:41Z</time>
      </trkpt>
      <trkpt lat="44.16151" lon="3.59748">
        <ele>994.3</ele>
        <time>2021-08-12T09:19:43Z</time>
      </trkpt>
      <trkpt lat="44.16151" lon="3.59744">
        <ele>994.6</ele>
        <time>2021-08-12T09:19:45Z</time>
      </trkpt>
      <trkpt lat="44.16151" lon="3.5974">
        <ele>995</ele>
        <time>2021-08-12T09:19:47Z</time>
      </trkpt>
      <trkpt lat="44.1615" lon="3.59736">
        <ele>995.2</ele>
        <time>2021-08-12T09:19:49Z</time>
      </trkpt>
      <trkpt lat="44.1615" lon="3.59732">
        <ele>995.4</ele>
        <time>2021-08-12T09:19:51Z</time>
      </trkpt>
      <trkpt lat="44.1615" lon="3.59727">
        <ele>995.7</ele>
        <time>2021-08-12T09:19:53Z</time>
      </trkpt>
      <trkpt lat="44.16149" lon="3.59723">
        <ele>995.9</ele>
        <time>2021-08-12T09:19:55Z</time>
      </trkpt>
      <trkpt lat="44.16149" lon="3.59719">
        <ele>996.2</ele>
        <time>2021-08-12T09:19:57Z</time>
      </trkpt>
      <trkpt lat="44.16149" lon="3.59715">
        <ele>996.4</ele>
        <time>2021-08-12T09:19:59Z</time>
      </trkpt>
      <trkpt lat="44.16148" lon="3.59711">
        <ele>996.5</ele>
        <time>2021-08-12T09:20:01Z</time>
      </trkpt>
      <trkpt lat="44.16148" lon="3.59707">
        <ele>996.7</ele>
        <time>2021-08-12T09:20:03Z</time>
      </trkpt>
      <trkpt lat="44.16147" lon="3.59703">
        <ele>996.8</ele>
        <time>2021-08-12T09:20:05Z</time>
      </trkpt>
      <trkpt lat="44.16146" lon="3.59698">
        <ele>996.9</ele>
        <time>2021-08-12T09:20:07Z</time>
      </trkpt>
      <trkpt lat="44.16145" lon="3.59694">
        <ele>997</ele>
        <time>2021-08-12T09:20:09Z</time>
      </trkpt>
      <trkpt lat="44.16146" lon="3.5969">
        <ele>997.4</ele>
        <time>2021-08-12T09:20:11Z</time>
      </trkpt>
      <trkpt lat="44.16145" lon="3.59686">
        <ele>997.6</ele>
        <time>2021-08-12T09:20:13Z</time>
      </trkpt>
      <trkpt lat="44.16145" lon="3.59681">
        <ele>997.9</ele>
        <time>2021-08-12T09:20:15Z</time>
      </trkpt>
      <trkpt lat="44.16145" lon="3.59677">
        <ele>998.3</ele>
        <time>2021-08-12T09:20:17Z</time>
      </trkpt>
      <trkpt lat="44.16145" lon="3.59673">
        <ele>998.8</ele>
        <time>2021-08-12T09:20:19Z</time>
      </trkpt>
      <trkpt lat="44.16146" lon="3.59669">
        <ele>999.2</ele>
        <time>2021-08-12T09:20:21Z</time>
      </trkpt>
      <trkpt lat="44.16146" lon="3.59664">
        <ele>999.5</ele>
        <time>2021-08-12T09:20:23Z</time>
      </trkpt>
      <trkpt lat="44.16146" lon="3.5966">
        <ele>999.8</ele>
        <time>2021-08-12T09:20:25Z</time>
      </trkpt>
      <trkpt lat="44.16147" lon="3.59656">
        <ele>1000.4</ele>
        <time>2021-08-12T09:20:27Z</time>
      </trkpt>
      <trkpt lat="44.16147" lon="3.59652">
        <ele>1000.7</ele>
        <time>2021-08-12T09:20:29Z</time>
      </trkpt>
      <trkpt lat="44.16147" lon="3.59647">
        <ele>1000.9</ele>
        <time>2021-08-12T09:20:31Z</time>
      </trkpt>
      <trkpt lat="44.16148" lon="3.59643">
        <ele>1001.4</ele>
        <time>2021-08-12T09:20:33Z</time>
      </trkpt>
      <trkpt lat="44.16148" lon="3.59638">
        <ele>1001.7</ele>
        <time>2021-08-12T09:20:35Z</time>
      </trkpt>
      <trkpt lat="44.16149" lon="3.59634">
        <ele>1002</ele>
        <time>2021-08-12T09:20:37Z</time>
      </trkpt>
      <trkpt lat="44.16149" lon="3.59629">
        <ele>1002.4</ele>
        <time>2021-08-12T09:20:39Z</time>
      </trkpt>
      <trkpt lat="44.1615" lon="3.59625">
        <ele>1002.9</ele>
        <time>2021-08-12T09:20:41Z</time>
      </trkpt>
      <trkpt lat="44.1615" lon="3.59621">
        <ele>1003.3</ele>
        <time>2021-08-12T09:20:43Z</time>
      </trkpt>
      <trkpt lat="44.16151" lon="3.59616">
        <ele>1003.8</ele>
        <time>2021-08-12T09:20:45Z</time>
      </trkpt>
      <trkpt lat="44.16152" lon="3.59612">
        <ele>1004.2</ele>
        <time>2021-08-12T09:20:47Z</time>
      </trkpt>
      <trkpt lat="44.16152" lon="3.59608">
        <ele>1004.5</ele>
        <time>2021-08-12T09:20:49Z</time>
      </trkpt>
      <trkpt lat="44.16153" lon="3.59603">
        <ele>1004.8</ele>
        <time>2021-08-12T09:20:51Z</time>
      </trkpt>
      <trkpt lat="44.16153" lon="3.59599">
        <ele>1005.2</ele>
        <time>2021-08-12T09:20:53Z</time>
      </trkpt>
      <trkpt lat="44.16153" lon="3.59594">
        <ele>1005.5</ele>
        <time>2021-08-12T09:20:55Z</time>
      </trkpt>
      <trkpt lat="44.16154" lon="3.59589">
        <ele>1005.9</ele>
        <time>2021-08-12T09:20:57Z</time>
      </trkpt>
      <trkpt lat="44.16154" lon="3.59585">
        <ele>1006.2</ele>
        <time>2021-08-12T09:20:59Z</time>
      </trkpt>
      <trkpt lat="44.16154" lon="3.5958">
        <ele>1006.2</ele>
        <time>2021-08-12T09:21:01Z</time>
      </trkpt>
      <trkpt lat="44.16155" lon="3.59576">
        <ele>1006.3</ele>
        <time>2021-08-12T09:21:03Z</time>
      </trkpt>
      <trkpt lat="44.16155" lon="3.59571">
        <ele>1006.3</ele>
        <time>2021-08-12T09:21:05Z</time>
      </trkpt>
      <trkpt lat="44.16156" lon="3.59567">
        <ele>1006.2</ele>
        <time>2021-08-12T09:21:07Z</time>
      </trkpt>
      <trkpt lat="44.16156" lon="3.59563">
        <ele>1006.3</ele>
        <time>2021-08-12T09:21:09Z</time>
      </trkpt>
      <trkpt lat="44.16157" lon="3.59558">
        <ele>1006.5</ele>
        <time>2021-08-12T09:21:11Z</time>
      </trkpt>
      <trkpt lat="44.16157" lon="3.59554">
        <ele>1006.5</ele>
        <time>2021-08-12T09:21:13Z</time>
      </trkpt>
      <trkpt lat="44.16158" lon="3.5955">
        <ele>1006.7</ele>
        <time>2021-08-12T09:21:15Z</time>
      </trkpt>
      <trkpt lat="44.16159" lon="3.59546">
        <ele>1006.8</ele>
        <time>2021-08-12T09:21:17Z</time>
      </trkpt>
      <trkpt lat="44.1616" lon="3.59542">
        <ele>1007</ele>
        <time>2021-08-12T09:21:19Z</time>
      </trkpt>
      <trkpt lat="44.16161" lon="3.59537">
        <ele>1007.1</ele>
        <time>2021-08-12T09:21:21Z</time>
      </trkpt>
      <trkpt lat="44.16161" lon="3.59533">
        <ele>1007.3</ele>
        <time>2021-08-12T09:21:23Z</time>
      </trkpt>
      <trkpt lat="44.16162" lon="3.5953">
        <ele>1007.5</ele>
        <time>2021-08-12T09:21:25Z</time>
      </trkpt>
      <trkpt lat="44.16163" lon="3.59526">
        <ele>1007.7</ele>
        <time>2021-08-12T09:21:27Z</time>
      </trkpt>
      <trkpt lat="44.16165" lon="3.59522">
        <ele>1008</ele>
        <time>2021-08-12T09:21:29Z</time>
      </trkpt>
      <trkpt lat="44.16166" lon="3.59518">
        <ele>1008.4</ele>
        <time>2021-08-12T09:21:31Z</time>
      </trkpt>
      <trkpt lat="44.16168" lon="3.59515">
        <ele>1008.9</ele>
        <time>2021-08-12T09:21:33Z</time>
      </trkpt>
      <trkpt lat="44.16169" lon="3.59511">
        <ele>1009.5</ele>
        <time>2021-08-12T09:21:35Z</time>
      </trkpt>
      <trkpt lat="44.16171" lon="3.59507">
        <ele>1010</ele>
        <time>2021-08-12T09:21:37Z</time>
      </trkpt>
      <trkpt lat="44.16172" lon="3.59504">
        <ele>1010.6</ele>
        <time>2021-08-12T09:21:39Z</time>
      </trkpt>
      <trkpt lat="44.16174" lon="3.595">
        <ele>1011.1</ele>
        <time>2021-08-12T09:21:41Z</time>
      </trkpt>
      <trkpt lat="44.16176" lon="3.59497">
        <ele>1011.9</ele>
        <time>2021-08-12T09:21:43Z</time>
      </trkpt>
      <trkpt lat="44.16177" lon="3.59493">
        <ele>1012.7</ele>
        <time>2021-08-12T09:21:45Z</time>
      </trkpt>
      <trkpt lat="44.16179" lon="3.5949">
        <ele>1013.3</ele>
        <time>2021-08-12T09:21:47Z</time>
      </trkpt>
      <trkpt lat="44.1618" lon="3.59487">
        <ele>1014.2</ele>
        <time>2021-08-12T09:21:49Z</time>
      </trkpt>
      <trkpt lat="44.16182" lon="3.59482">
        <ele>1014.8</ele>
        <time>2021-08-12T09:21:51Z</time>
      </trkpt>
      <trkpt lat="44.16183" lon="3.59479">
        <ele>1015.3</ele>
        <time>2021-08-12T09:21:53Z</time>
      </trkpt>
      <trkpt lat="44.16184" lon="3.59475">
        <ele>1015.8</ele>
        <time>2021-08-12T09:21:55Z</time>
      </trkpt>
      <trkpt lat="44.16184" lon="3.59471">
        <ele>1016.1</ele>
        <time>2021-08-12T09:21:57Z</time>
      </trkpt>
      <trkpt lat="44.16184" lon="3.59466">
        <ele>1016.4</ele>
        <time>2021-08-12T09:21:59Z</time>
      </trkpt>
      <trkpt lat="44.16185" lon="3.59462">
        <ele>1016.7</ele>
        <time>2021-08-12T09:22:01Z</time>
      </trkpt>
      <trkpt lat="44.16185" lon="3.59458">
        <ele>1016.8</ele>
        <time>2021-08-12T09:22:03Z</time>
      </trkpt>
      <trkpt lat="44.16185" lon="3.59455">
        <ele>1017</ele>
        <time>2021-08-12T09:22:05Z</time>
      </trkpt>
      <trkpt lat="44.16185" lon="3.5945">
        <ele>1017.3</ele>
        <time>2021-08-12T09:22:07Z</time>
      </trkpt>
      <trkpt lat="44.16185" lon="3.59446">
        <ele>1017.4</ele>
        <time>2021-08-12T09:22:09Z</time>
      </trkpt>
      <trkpt lat="44.16186" lon="3.59442">
        <ele>1017.6</ele>
        <time>2021-08-12T09:22:11Z</time>
      </trkpt>
      <trkpt lat="44.16186" lon="3.59438">
        <ele>1017.8</ele>
        <time>2021-08-12T09:22:13Z</time>
      </trkpt>
      <trkpt lat="44.16185" lon="3.59434">
        <ele>1017.8</ele>
        <time>2021-08-12T09:22:15Z</time>
      </trkpt>
      <trkpt lat="44.16185" lon="3.5943">
        <ele>1017.9</ele>
        <time>2021-08-12T09:22:17Z</time>
      </trkpt>
      <trkpt lat="44.16185" lon="3.59425">
        <ele>1017.8</ele>
        <time>2021-08-12T09:22:19Z</time>
      </trkpt>
      <trkpt lat="44.16184" lon="3.59421">
        <ele>1017.6</ele>
        <time>2021-08-12T09:22:21Z</time>
      </trkpt>
      <trkpt lat="44.16183" lon="3.59417">
        <ele>1017.2</ele>
        <time>2021-08-12T09:22:23Z</time>
      </trkpt>
      <trkpt lat="44.16182" lon="3.59413">
        <ele>1017.2</ele>
        <time>2021-08-12T09:22:25Z</time>
      </trkpt>
      <trkpt lat="44.16181" lon="3.59409">
        <ele>1017.4</ele>
        <time>2021-08-12T09:22:27Z</time>
      </trkpt>
      <trkpt lat="44.16181" lon="3.59405">
        <ele>1017.7</ele>
        <time>2021-08-12T09:22:29Z</time>
      </trkpt>
      <trkpt lat="44.1618" lon="3.59401">
        <ele>1017.9</ele>
        <time>2021-08-12T09:22:31Z</time>
      </trkpt>
      <trkpt lat="44.16179" lon="3.59397">
        <ele>1018.1</ele>
        <time>2021-08-12T09:22:33Z</time>
      </trkpt>
      <trkpt lat="44.16179" lon="3.59393">
        <ele>1018.5</ele>
        <time>2021-08-12T09:22:35Z</time>
      </trkpt>
      <trkpt lat="44.16179" lon="3.59388">
        <ele>1018.9</ele>
        <time>2021-08-12T09:22:37Z</time>
      </trkpt>
      <trkpt lat="44.16178" lon="3.59385">
        <ele>1019</ele>
        <time>2021-08-12T09:22:39Z</time>
      </trkpt>
      <trkpt lat="44.16179" lon="3.5938">
        <ele>1019.7</ele>
        <time>2021-08-12T09:22:41Z</time>
      </trkpt>
      <trkpt lat="44.16178" lon="3.59376">
        <ele>1019.8</ele>
        <time>2021-08-12T09:22:43Z</time>
      </trkpt>
      <trkpt lat="44.16177" lon="3.59372">
        <ele>1020.2</ele>
        <time>2021-08-12T09:22:45Z</time>
      </trkpt>
      <trkpt lat="44.16177" lon="3.59368">
        <ele>1020.3</ele>
        <time>2021-08-12T09:22:47Z</time>
      </trkpt>
      <trkpt lat="44.16176" lon="3.59364">
        <ele>1020.5</ele>
        <time>2021-08-12T09:22:49Z</time>
      </trkpt>
      <trkpt lat="44.16176" lon="3.5936">
        <ele>1021</ele>
        <time>2021-08-12T09:22:51Z</time>
      </trkpt>
      <trkpt lat="44.16175" lon="3.59356">
        <ele>1021.1</ele>
        <time>2021-08-12T09:22:53Z</time>
      </trkpt>
      <trkpt lat="44.16175" lon="3.59352">
        <ele>1021.4</ele>
        <time>2021-08-12T09:22:55Z</time>
      </trkpt>
      <trkpt lat="44.16174" lon="3.59348">
        <ele>1021.6</ele>
        <time>2021-08-12T09:22:57Z</time>
      </trkpt>
      <trkpt lat="44.16173" lon="3.59344">
        <ele>1021.8</ele>
        <time>2021-08-12T09:22:59Z</time>
      </trkpt>
      <trkpt lat="44.16173" lon="3.59339">
        <ele>1022.2</ele>
        <time>2021-08-12T09:23:01Z</time>
      </trkpt>
      <trkpt lat="44.16173" lon="3.59335">
        <ele>1022.6</ele>
        <time>2021-08-12T09:23:03Z</time>
      </trkpt>
      <trkpt lat="44.16172" lon="3.59331">
        <ele>1022.9</ele>
        <time>2021-08-12T09:23:05Z</time>
      </trkpt>
      <trkpt lat="44.16172" lon="3.59327">
        <ele>1023.2</ele>
        <time>2021-08-12T09:23:07Z</time>
      </trkpt>
      <trkpt lat="44.16171" lon="3.59323">
        <ele>1023.2</ele>
        <time>2021-08-12T09:23:09Z</time>
      </trkpt>
      <trkpt lat="44.16171" lon="3.59319">
        <ele>1023.7</ele>
        <time>2021-08-12T09:23:11Z</time>
      </trkpt>
      <trkpt lat="44.1617" lon="3.59314">
        <ele>1024</ele>
        <time>2021-08-12T09:23:13Z</time>
      </trkpt>
      <trkpt lat="44.1617" lon="3.5931">
        <ele>1024.2</ele>
        <time>2021-08-12T09:23:15Z</time>
      </trkpt>
      <trkpt lat="44.16169" lon="3.59306">
        <ele>1024.6</ele>
        <time>2021-08-12T09:23:17Z</time>
      </trkpt>
      <trkpt lat="44.16169" lon="3.59302">
        <ele>1024.9</ele>
        <time>2021-08-12T09:23:19Z</time>
      </trkpt>
      <trkpt lat="44.16168" lon="3.59298">
        <ele>1025.1</ele>
        <time>2021-08-12T09:23:21Z</time>
      </trkpt>
      <trkpt lat="44.16168" lon="3.59293">
        <ele>1025.4</ele>
        <time>2021-08-12T09:23:23Z</time>
      </trkpt>
      <trkpt lat="44.16167" lon="3.59289">
        <ele>1025.7</ele>
        <time>2021-08-12T09:23:25Z</time>
      </trkpt>
      <trkpt lat="44.16167" lon="3.59285">
        <ele>1026</ele>
        <time>2021-08-12T09:23:27Z</time>
      </trkpt>
      <trkpt lat="44.16167" lon="3.5928">
        <ele>1026.3</ele>
        <time>2021-08-12T09:23:29Z</time>
      </trkpt>
      <trkpt lat="44.16166" lon="3.59276">
        <ele>1026.6</ele>
        <time>2021-08-12T09:23:31Z</time>
      </trkpt>
      <trkpt lat="44.16165" lon="3.59272">
        <ele>1026.9</ele>
        <time>2021-08-12T09:23:33Z</time>
      </trkpt>
      <trkpt lat="44.16165" lon="3.59268">
        <ele>1027.2</ele>
        <time>2021-08-12T09:23:35Z</time>
      </trkpt>
      <trkpt lat="44.16165" lon="3.59264">
        <ele>1027.6</ele>
        <time>2021-08-12T09:23:37Z</time>
      </trkpt>
      <trkpt lat="44.16164" lon="3.59261">
        <ele>1027.8</ele>
        <time>2021-08-12T09:23:39Z</time>
      </trkpt>
      <trkpt lat="44.16164" lon="3.59256">
        <ele>1028.2</ele>
        <time>2021-08-12T09:23:41Z</time>
      </trkpt>
      <trkpt lat="44.16163" lon="3.59252">
        <ele>1028.6</ele>
        <time>2021-08-12T09:23:43Z</time>
      </trkpt>
      <trkpt lat="44.16163" lon="3.59248">
        <ele>1028.9</ele>
        <time>2021-08-12T09:23:45Z</time>
      </trkpt>
      <trkpt lat="44.16162" lon="3.59243">
        <ele>1029.4</ele>
        <time>2021-08-12T09:23:47Z</time>
      </trkpt>
      <trkpt lat="44.16163" lon="3.59238">
        <ele>1030.1</ele>
        <time>2021-08-12T09:23:49Z</time>
      </trkpt>
      <trkpt lat="44.16162" lon="3.59233">
        <ele>1030.5</ele>
        <time>2021-08-12T09:23:51Z</time>
      </trkpt>
      <trkpt lat="44.16162" lon="3.59229">
        <ele>1031.1</ele>
        <time>2021-08-12T09:23:53Z</time>
      </trkpt>
      <trkpt lat="44.16162" lon="3.59225">
        <ele>1031.4</ele>
        <time>2021-08-12T09:23:55Z</time>
      </trkpt>
      <trkpt lat="44.16162" lon="3.59221">
        <ele>1031.9</ele>
        <time>2021-08-12T09:23:57Z</time>
      </trkpt>
      <trkpt lat="44.16163" lon="3.59217">
        <ele>1032.5</ele>
        <time>2021-08-12T09:23:59Z</time>
      </trkpt>
      <trkpt lat="44.16163" lon="3.59213">
        <ele>1033.2</ele>
        <time>2021-08-12T09:24:01Z</time>
      </trkpt>
      <trkpt lat="44.16163" lon="3.59214">
        <ele>1033.1</ele>
        <time>2021-08-12T09:24:03Z</time>
      </trkpt>
      <trkpt lat="44.16163" lon="3.59215">
        <ele>1033.1</ele>
        <time>2021-08-12T09:24:05Z</time>
      </trkpt>
      <trkpt lat="44.16163" lon="3.59214">
        <ele>1033.1</ele>
        <time>2021-08-12T09:24:09Z</time>
      </trkpt>
      <trkpt lat="44.16163" lon="3.59214">
        <ele>1033.1</ele>
        <time>2021-08-12T09:24:11Z</time>
      </trkpt>
      <trkpt lat="44.16163" lon="3.59197">
        <ele>1035.1</ele>
        <time>2021-08-12T09:25:25Z</time>
      </trkpt>
      <trkpt lat="44.16164" lon="3.59192">
        <ele>1035.9</ele>
        <time>2021-08-12T09:25:27Z</time>
      </trkpt>
      <trkpt lat="44.16164" lon="3.59188">
        <ele>1036.4</ele>
        <time>2021-08-12T09:25:29Z</time>
      </trkpt>
      <trkpt lat="44.16164" lon="3.59184">
        <ele>1037</ele>
        <time>2021-08-12T09:25:31Z</time>
      </trkpt>
      <trkpt lat="44.16165" lon="3.5918">
        <ele>1037.8</ele>
        <time>2021-08-12T09:25:33Z</time>
      </trkpt>
      <trkpt lat="44.16165" lon="3.59176">
        <ele>1038.3</ele>
        <time>2021-08-12T09:25:35Z</time>
      </trkpt>
      <trkpt lat="44.16165" lon="3.59171">
        <ele>1039</ele>
        <time>2021-08-12T09:25:37Z</time>
      </trkpt>
      <trkpt lat="44.16165" lon="3.59167">
        <ele>1039.3</ele>
        <time>2021-08-12T09:25:39Z</time>
      </trkpt>
      <trkpt lat="44.16165" lon="3.59163">
        <ele>1039.7</ele>
        <time>2021-08-12T09:25:41Z</time>
      </trkpt>
      <trkpt lat="44.16165" lon="3.59159">
        <ele>1040.3</ele>
        <time>2021-08-12T09:25:43Z</time>
      </trkpt>
      <trkpt lat="44.16163" lon="3.59156">
        <ele>1040</ele>
        <time>2021-08-12T09:25:45Z</time>
      </trkpt>
      <trkpt lat="44.16161" lon="3.59153">
        <ele>1039.6</ele>
        <time>2021-08-12T09:25:47Z</time>
      </trkpt>
      <trkpt lat="44.1616" lon="3.59149">
        <ele>1039.6</ele>
        <time>2021-08-12T09:25:49Z</time>
      </trkpt>
      <trkpt lat="44.1616" lon="3.5915">
        <ele>1039.8</ele>
        <time>2021-08-12T09:25:51Z</time>
      </trkpt>
      <trkpt lat="44.1616" lon="3.59149">
        <ele>1039.7</ele>
        <time>2021-08-12T09:25:53Z</time>
      </trkpt>
      <trkpt lat="44.16159" lon="3.59148">
        <ele>1039.7</ele>
        <time>2021-08-12T09:25:55Z</time>
      </trkpt>
      <trkpt lat="44.1616" lon="3.59148">
        <ele>1039.9</ele>
        <time>2021-08-12T09:25:57Z</time>
      </trkpt>
      <trkpt lat="44.1616" lon="3.59148">
        <ele>1039.8</ele>
        <time>2021-08-12T09:25:59Z</time>
      </trkpt>
      <trkpt lat="44.16159" lon="3.59131">
        <ele>1041.8</ele>
        <time>2021-08-12T09:36:07Z</time>
      </trkpt>
      <trkpt lat="44.16159" lon="3.59127">
        <ele>1042</ele>
        <time>2021-08-12T09:36:09Z</time>
      </trkpt>
      <trkpt lat="44.16158" lon="3.59124">
        <ele>1042.1</ele>
        <time>2021-08-12T09:36:11Z</time>
      </trkpt>
      <trkpt lat="44.16158" lon="3.5912">
        <ele>1042.7</ele>
        <time>2021-08-12T09:36:13Z</time>
      </trkpt>
      <trkpt lat="44.16158" lon="3.59117">
        <ele>1043</ele>
        <time>2021-08-12T09:36:15Z</time>
      </trkpt>
      <trkpt lat="44.16158" lon="3.59113">
        <ele>1043.2</ele>
        <time>2021-08-12T09:36:17Z</time>
      </trkpt>
      <trkpt lat="44.16158" lon="3.5911">
        <ele>1043.8</ele>
        <time>2021-08-12T09:36:19Z</time>
      </trkpt>
      <trkpt lat="44.16159" lon="3.59106">
        <ele>1044.4</ele>
        <time>2021-08-12T09:36:21Z</time>
      </trkpt>
      <trkpt lat="44.16158" lon="3.59103">
        <ele>1044.8</ele>
        <time>2021-08-12T09:36:23Z</time>
      </trkpt>
      <trkpt lat="44.16158" lon="3.591">
        <ele>1045</ele>
        <time>2021-08-12T09:36:25Z</time>
      </trkpt>
      <trkpt lat="44.16157" lon="3.59096">
        <ele>1045.1</ele>
        <time>2021-08-12T09:36:27Z</time>
      </trkpt>
      <trkpt lat="44.16157" lon="3.59093">
        <ele>1045.6</ele>
        <time>2021-08-12T09:36:29Z</time>
      </trkpt>
      <trkpt lat="44.16157" lon="3.59089">
        <ele>1045.9</ele>
        <time>2021-08-12T09:36:31Z</time>
      </trkpt>
      <trkpt lat="44.16157" lon="3.59085">
        <ele>1046.1</ele>
        <time>2021-08-12T09:36:33Z</time>
      </trkpt>
      <trkpt lat="44.16156" lon="3.59082">
        <ele>1046.5</ele>
        <time>2021-08-12T09:36:35Z</time>
      </trkpt>
      <trkpt lat="44.16156" lon="3.59078">
        <ele>1046.9</ele>
        <time>2021-08-12T09:36:37Z</time>
      </trkpt>
      <trkpt lat="44.16156" lon="3.59074">
        <ele>1047.1</ele>
        <time>2021-08-12T09:36:39Z</time>
      </trkpt>
      <trkpt lat="44.16155" lon="3.5907">
        <ele>1047.3</ele>
        <time>2021-08-12T09:36:41Z</time>
      </trkpt>
      <trkpt lat="44.16155" lon="3.59066">
        <ele>1047.5</ele>
        <time>2021-08-12T09:36:43Z</time>
      </trkpt>
      <trkpt lat="44.16154" lon="3.59063">
        <ele>1047.7</ele>
        <time>2021-08-12T09:36:45Z</time>
      </trkpt>
      <trkpt lat="44.16154" lon="3.59059">
        <ele>1047.9</ele>
        <time>2021-08-12T09:36:47Z</time>
      </trkpt>
      <trkpt lat="44.16153" lon="3.59055">
        <ele>1048</ele>
        <time>2021-08-12T09:36:49Z</time>
      </trkpt>
      <trkpt lat="44.16153" lon="3.59052">
        <ele>1048.2</ele>
        <time>2021-08-12T09:36:51Z</time>
      </trkpt>
      <trkpt lat="44.16152" lon="3.59049">
        <ele>1048.2</ele>
        <time>2021-08-12T09:36:53Z</time>
      </trkpt>
      <trkpt lat="44.16151" lon="3.59045">
        <ele>1048.3</ele>
        <time>2021-08-12T09:36:55Z</time>
      </trkpt>
      <trkpt lat="44.1615" lon="3.59041">
        <ele>1048.4</ele>
        <time>2021-08-12T09:36:57Z</time>
      </trkpt>
      <trkpt lat="44.1615" lon="3.59037">
        <ele>1048.6</ele>
        <time>2021-08-12T09:36:59Z</time>
      </trkpt>
      <trkpt lat="44.16149" lon="3.59034">
        <ele>1048.9</ele>
        <time>2021-08-12T09:37:01Z</time>
      </trkpt>
      <trkpt lat="44.16149" lon="3.59031">
        <ele>1049</ele>
        <time>2021-08-12T09:37:03Z</time>
      </trkpt>
      <trkpt lat="44.16149" lon="3.59027">
        <ele>1049.4</ele>
        <time>2021-08-12T09:37:05Z</time>
      </trkpt>
      <trkpt lat="44.16149" lon="3.59023">
        <ele>1049.9</ele>
        <time>2021-08-12T09:37:07Z</time>
      </trkpt>
      <trkpt lat="44.16149" lon="3.59019">
        <ele>1050.2</ele>
        <time>2021-08-12T09:37:09Z</time>
      </trkpt>
      <trkpt lat="44.16149" lon="3.59016">
        <ele>1050.6</ele>
        <time>2021-08-12T09:37:11Z</time>
      </trkpt>
      <trkpt lat="44.16148" lon="3.59012">
        <ele>1050.8</ele>
        <time>2021-08-12T09:37:13Z</time>
      </trkpt>
      <trkpt lat="44.16149" lon="3.59009">
        <ele>1051.3</ele>
        <time>2021-08-12T09:37:15Z</time>
      </trkpt>
      <trkpt lat="44.16148" lon="3.59005">
        <ele>1051.5</ele>
        <time>2021-08-12T09:37:17Z</time>
      </trkpt>
      <trkpt lat="44.16147" lon="3.59002">
        <ele>1051.5</ele>
        <time>2021-08-12T09:37:19Z</time>
      </trkpt>
      <trkpt lat="44.16146" lon="3.58999">
        <ele>1051.6</ele>
        <time>2021-08-12T09:37:21Z</time>
      </trkpt>
      <trkpt lat="44.16146" lon="3.58995">
        <ele>1051.6</ele>
        <time>2021-08-12T09:37:23Z</time>
      </trkpt>
      <trkpt lat="44.16144" lon="3.58992">
        <ele>1051.5</ele>
        <time>2021-08-12T09:37:25Z</time>
      </trkpt>
      <trkpt lat="44.16143" lon="3.58989">
        <ele>1051.4</ele>
        <time>2021-08-12T09:37:27Z</time>
      </trkpt>
      <trkpt lat="44.16142" lon="3.58986">
        <ele>1051.3</ele>
        <time>2021-08-12T09:37:29Z</time>
      </trkpt>
      <trkpt lat="44.1614" lon="3.58983">
        <ele>1051.1</ele>
        <time>2021-08-12T09:37:31Z</time>
      </trkpt>
      <trkpt lat="44.16139" lon="3.5898">
        <ele>1050.9</ele>
        <time>2021-08-12T09:37:33Z</time>
      </trkpt>
      <trkpt lat="44.16137" lon="3.58977">
        <ele>1050.7</ele>
        <time>2021-08-12T09:37:35Z</time>
      </trkpt>
      <trkpt lat="44.16136" lon="3.58973">
        <ele>1050.6</ele>
        <time>2021-08-12T09:37:37Z</time>
      </trkpt>
      <trkpt lat="44.16135" lon="3.5897">
        <ele>1050.6</ele>
        <time>2021-08-12T09:37:39Z</time>
      </trkpt>
      <trkpt lat="44.16134" lon="3.58966">
        <ele>1050.5</ele>
        <time>2021-08-12T09:37:41Z</time>
      </trkpt>
      <trkpt lat="44.16133" lon="3.58963">
        <ele>1050.6</ele>
        <time>2021-08-12T09:37:43Z</time>
      </trkpt>
      <trkpt lat="44.16132" lon="3.58959">
        <ele>1050.7</ele>
        <time>2021-08-12T09:37:45Z</time>
      </trkpt>
      <trkpt lat="44.16132" lon="3.58956">
        <ele>1050.7</ele>
        <time>2021-08-12T09:37:47Z</time>
      </trkpt>
      <trkpt lat="44.16131" lon="3.58952">
        <ele>1050.8</ele>
        <time>2021-08-12T09:37:49Z</time>
      </trkpt>
      <trkpt lat="44.1613" lon="3.58949">
        <ele>1050.9</ele>
        <time>2021-08-12T09:37:51Z</time>
      </trkpt>
      <trkpt lat="44.1613" lon="3.58946">
        <ele>1051.3</ele>
        <time>2021-08-12T09:37:53Z</time>
      </trkpt>
      <trkpt lat="44.1613" lon="3.58942">
        <ele>1051.4</ele>
        <time>2021-08-12T09:37:55Z</time>
      </trkpt>
      <trkpt lat="44.1613" lon="3.58938">
        <ele>1051.8</ele>
        <time>2021-08-12T09:37:57Z</time>
      </trkpt>
      <trkpt lat="44.16129" lon="3.58934">
        <ele>1052</ele>
        <time>2021-08-12T09:37:59Z</time>
      </trkpt>
      <trkpt lat="44.16129" lon="3.58931">
        <ele>1052.2</ele>
        <time>2021-08-12T09:38:01Z</time>
      </trkpt>
      <trkpt lat="44.16129" lon="3.58927">
        <ele>1052.5</ele>
        <time>2021-08-12T09:38:03Z</time>
      </trkpt>
      <trkpt lat="44.16129" lon="3.58923">
        <ele>1052.8</ele>
        <time>2021-08-12T09:38:05Z</time>
      </trkpt>
      <trkpt lat="44.16129" lon="3.5892">
        <ele>1053.1</ele>
        <time>2021-08-12T09:38:07Z</time>
      </trkpt>
      <trkpt lat="44.16129" lon="3.58916">
        <ele>1053.3</ele>
        <time>2021-08-12T09:38:09Z</time>
      </trkpt>
      <trkpt lat="44.16129" lon="3.58912">
        <ele>1053.8</ele>
        <time>2021-08-12T09:38:11Z</time>
      </trkpt>
      <trkpt lat="44.16129" lon="3.58908">
        <ele>1054.3</ele>
        <time>2021-08-12T09:38:13Z</time>
      </trkpt>
      <trkpt lat="44.16129" lon="3.58905">
        <ele>1054.8</ele>
        <time>2021-08-12T09:38:15Z</time>
      </trkpt>
      <trkpt lat="44.16129" lon="3.58901">
        <ele>1055.3</ele>
        <time>2021-08-12T09:38:17Z</time>
      </trkpt>
      <trkpt lat="44.1613" lon="3.58897">
        <ele>1055.9</ele>
        <time>2021-08-12T09:38:19Z</time>
      </trkpt>
      <trkpt lat="44.16131" lon="3.58894">
        <ele>1056.6</ele>
        <time>2021-08-12T09:38:21Z</time>
      </trkpt>
      <trkpt lat="44.16132" lon="3.5889">
        <ele>1057.3</ele>
        <time>2021-08-12T09:38:23Z</time>
      </trkpt>
      <trkpt lat="44.16133" lon="3.58887">
        <ele>1058.2</ele>
        <time>2021-08-12T09:38:25Z</time>
      </trkpt>
      <trkpt lat="44.16135" lon="3.58884">
        <ele>1059.1</ele>
        <time>2021-08-12T09:38:27Z</time>
      </trkpt>
      <trkpt lat="44.16137" lon="3.58881">
        <ele>1060</ele>
        <time>2021-08-12T09:38:29Z</time>
      </trkpt>
      <trkpt lat="44.16139" lon="3.58879">
        <ele>1061</ele>
        <time>2021-08-12T09:38:31Z</time>
      </trkpt>
      <trkpt lat="44.1614" lon="3.58876">
        <ele>1062</ele>
        <time>2021-08-12T09:38:33Z</time>
      </trkpt>
      <trkpt lat="44.16142" lon="3.58873">
        <ele>1062.8</ele>
        <time>2021-08-12T09:38:35Z</time>
      </trkpt>
      <trkpt lat="44.16143" lon="3.58869">
        <ele>1063.6</ele>
        <time>2021-08-12T09:38:37Z</time>
      </trkpt>
      <trkpt lat="44.16143" lon="3.58866">
        <ele>1064.1</ele>
        <time>2021-08-12T09:38:39Z</time>
      </trkpt>
      <trkpt lat="44.16143" lon="3.58862">
        <ele>1064.4</ele>
        <time>2021-08-12T09:38:41Z</time>
      </trkpt>
      <trkpt lat="44.16142" lon="3.58858">
        <ele>1064.5</ele>
        <time>2021-08-12T09:38:43Z</time>
      </trkpt>
      <trkpt lat="44.16141" lon="3.58855">
        <ele>1064.4</ele>
        <time>2021-08-12T09:38:45Z</time>
      </trkpt>
      <trkpt lat="44.1614" lon="3.58852">
        <ele>1064.2</ele>
        <time>2021-08-12T09:38:47Z</time>
      </trkpt>
      <trkpt lat="44.16138" lon="3.58849">
        <ele>1063.9</ele>
        <time>2021-08-12T09:38:49Z</time>
      </trkpt>
      <trkpt lat="44.16136" lon="3.58846">
        <ele>1063.6</ele>
        <time>2021-08-12T09:38:51Z</time>
      </trkpt>
      <trkpt lat="44.16135" lon="3.58843">
        <ele>1063.5</ele>
        <time>2021-08-12T09:38:53Z</time>
      </trkpt>
      <trkpt lat="44.16134" lon="3.58839">
        <ele>1063.5</ele>
        <time>2021-08-12T09:38:55Z</time>
      </trkpt>
      <trkpt lat="44.16133" lon="3.58835">
        <ele>1063.6</ele>
        <time>2021-08-12T09:38:57Z</time>
      </trkpt>
      <trkpt lat="44.16132" lon="3.58832">
        <ele>1063.7</ele>
        <time>2021-08-12T09:38:59Z</time>
      </trkpt>
      <trkpt lat="44.16132" lon="3.58828">
        <ele>1064.1</ele>
        <time>2021-08-12T09:39:01Z</time>
      </trkpt>
      <trkpt lat="44.16131" lon="3.58824">
        <ele>1064.3</ele>
        <time>2021-08-12T09:39:03Z</time>
      </trkpt>
      <trkpt lat="44.16131" lon="3.5882">
        <ele>1064.7</ele>
        <time>2021-08-12T09:39:05Z</time>
      </trkpt>
      <trkpt lat="44.16131" lon="3.58816">
        <ele>1065.1</ele>
        <time>2021-08-12T09:39:07Z</time>
      </trkpt>
      <trkpt lat="44.1613" lon="3.58812">
        <ele>1065.5</ele>
        <time>2021-08-12T09:39:09Z</time>
      </trkpt>
      <trkpt lat="44.16129" lon="3.58808">
        <ele>1065.8</ele>
        <time>2021-08-12T09:39:11Z</time>
      </trkpt>
      <trkpt lat="44.16129" lon="3.58804">
        <ele>1066.1</ele>
        <time>2021-08-12T09:39:13Z</time>
      </trkpt>
      <trkpt lat="44.16129" lon="3.58801">
        <ele>1066.5</ele>
        <time>2021-08-12T09:39:15Z</time>
      </trkpt>
      <trkpt lat="44.16128" lon="3.58797">
        <ele>1066.8</ele>
        <time>2021-08-12T09:39:17Z</time>
      </trkpt>
      <trkpt lat="44.16128" lon="3.58793">
        <ele>1067.1</ele>
        <time>2021-08-12T09:39:19Z</time>
      </trkpt>
      <trkpt lat="44.16128" lon="3.58789">
        <ele>1067.5</ele>
        <time>2021-08-12T09:39:21Z</time>
      </trkpt>
      <trkpt lat="44.16127" lon="3.58786">
        <ele>1067.8</ele>
        <time>2021-08-12T09:39:23Z</time>
      </trkpt>
      <trkpt lat="44.16127" lon="3.58782">
        <ele>1068</ele>
        <time>2021-08-12T09:39:25Z</time>
      </trkpt>
      <trkpt lat="44.16126" lon="3.58778">
        <ele>1068.3</ele>
        <time>2021-08-12T09:39:27Z</time>
      </trkpt>
      <trkpt lat="44.16125" lon="3.58775">
        <ele>1068.5</ele>
        <time>2021-08-12T09:39:29Z</time>
      </trkpt>
      <trkpt lat="44.16125" lon="3.58771">
        <ele>1068.7</ele>
        <time>2021-08-12T09:39:31Z</time>
      </trkpt>
      <trkpt lat="44.16124" lon="3.58768">
        <ele>1068.8</ele>
        <time>2021-08-12T09:39:33Z</time>
      </trkpt>
      <trkpt lat="44.16123" lon="3.58764">
        <ele>1069.1</ele>
        <time>2021-08-12T09:39:35Z</time>
      </trkpt>
      <trkpt lat="44.16123" lon="3.5876">
        <ele>1069.4</ele>
        <time>2021-08-12T09:39:37Z</time>
      </trkpt>
      <trkpt lat="44.16122" lon="3.58756">
        <ele>1069.7</ele>
        <time>2021-08-12T09:39:39Z</time>
      </trkpt>
      <trkpt lat="44.16121" lon="3.58753">
        <ele>1069.7</ele>
        <time>2021-08-12T09:39:41Z</time>
      </trkpt>
      <trkpt lat="44.1612" lon="3.5875">
        <ele>1069.9</ele>
        <time>2021-08-12T09:39:43Z</time>
      </trkpt>
      <trkpt lat="44.1612" lon="3.58747">
        <ele>1070.1</ele>
        <time>2021-08-12T09:39:45Z</time>
      </trkpt>
      <trkpt lat="44.16119" lon="3.58743">
        <ele>1070.3</ele>
        <time>2021-08-12T09:39:47Z</time>
      </trkpt>
      <trkpt lat="44.16118" lon="3.5874">
        <ele>1070.6</ele>
        <time>2021-08-12T09:39:49Z</time>
      </trkpt>
      <trkpt lat="44.16117" lon="3.58737">
        <ele>1070.9</ele>
        <time>2021-08-12T09:39:51Z</time>
      </trkpt>
      <trkpt lat="44.16117" lon="3.58733">
        <ele>1071.2</ele>
        <time>2021-08-12T09:39:53Z</time>
      </trkpt>
      <trkpt lat="44.16116" lon="3.5873">
        <ele>1071.3</ele>
        <time>2021-08-12T09:39:55Z</time>
      </trkpt>
      <trkpt lat="44.16115" lon="3.58726">
        <ele>1071.7</ele>
        <time>2021-08-12T09:39:57Z</time>
      </trkpt>
      <trkpt lat="44.16114" lon="3.58722">
        <ele>1072.1</ele>
        <time>2021-08-12T09:39:59Z</time>
      </trkpt>
      <trkpt lat="44.16114" lon="3.58719">
        <ele>1072.3</ele>
        <time>2021-08-12T09:40:01Z</time>
      </trkpt>
      <trkpt lat="44.16113" lon="3.58715">
        <ele>1072.5</ele>
        <time>2021-08-12T09:40:03Z</time>
      </trkpt>
      <trkpt lat="44.16112" lon="3.58712">
        <ele>1072.7</ele>
        <time>2021-08-12T09:40:05Z</time>
      </trkpt>
      <trkpt lat="44.16111" lon="3.58709">
        <ele>1073</ele>
        <time>2021-08-12T09:40:07Z</time>
      </trkpt>
      <trkpt lat="44.16112" lon="3.58704">
        <ele>1073.8</ele>
        <time>2021-08-12T09:40:09Z</time>
      </trkpt>
      <trkpt lat="44.16111" lon="3.58701">
        <ele>1074.1</ele>
        <time>2021-08-12T09:40:11Z</time>
      </trkpt>
      <trkpt lat="44.16111" lon="3.58697">
        <ele>1074.5</ele>
        <time>2021-08-12T09:40:13Z</time>
      </trkpt>
      <trkpt lat="44.16109" lon="3.58693">
        <ele>1074.7</ele>
        <time>2021-08-12T09:40:15Z</time>
      </trkpt>
      <trkpt lat="44.16109" lon="3.58689">
        <ele>1075.2</ele>
        <time>2021-08-12T09:40:17Z</time>
      </trkpt>
      <trkpt lat="44.16108" lon="3.58685">
        <ele>1075.5</ele>
        <time>2021-08-12T09:40:19Z</time>
      </trkpt>
      <trkpt lat="44.16108" lon="3.58681">
        <ele>1076.1</ele>
        <time>2021-08-12T09:40:21Z</time>
      </trkpt>
      <trkpt lat="44.16108" lon="3.58678">
        <ele>1076.4</ele>
        <time>2021-08-12T09:40:23Z</time>
      </trkpt>
      <trkpt lat="44.16107" lon="3.58674">
        <ele>1076.7</ele>
        <time>2021-08-12T09:40:25Z</time>
      </trkpt>
      <trkpt lat="44.16106" lon="3.58671">
        <ele>1076.8</ele>
        <time>2021-08-12T09:40:27Z</time>
      </trkpt>
      <trkpt lat="44.16105" lon="3.58668">
        <ele>1077</ele>
        <time>2021-08-12T09:40:29Z</time>
      </trkpt>
      <trkpt lat="44.16104" lon="3.58665">
        <ele>1076.8</ele>
        <time>2021-08-12T09:40:31Z</time>
      </trkpt>
      <trkpt lat="44.16103" lon="3.58663">
        <ele>1076.5</ele>
        <time>2021-08-12T09:40:33Z</time>
      </trkpt>
      <trkpt lat="44.16101" lon="3.5866">
        <ele>1076.2</ele>
        <time>2021-08-12T09:40:35Z</time>
      </trkpt>
      <trkpt lat="44.161" lon="3.58656">
        <ele>1076.2</ele>
        <time>2021-08-12T09:40:37Z</time>
      </trkpt>
      <trkpt lat="44.16099" lon="3.58652">
        <ele>1076</ele>
        <time>2021-08-12T09:40:39Z</time>
      </trkpt>
      <trkpt lat="44.16099" lon="3.58648">
        <ele>1076.2</ele>
        <time>2021-08-12T09:40:41Z</time>
      </trkpt>
      <trkpt lat="44.16098" lon="3.58644">
        <ele>1076.3</ele>
        <time>2021-08-12T09:40:43Z</time>
      </trkpt>
      <trkpt lat="44.16097" lon="3.58641">
        <ele>1076.1</ele>
        <time>2021-08-12T09:40:45Z</time>
      </trkpt>
      <trkpt lat="44.16097" lon="3.58636">
        <ele>1076.4</ele>
        <time>2021-08-12T09:40:47Z</time>
      </trkpt>
      <trkpt lat="44.16096" lon="3.58632">
        <ele>1076.6</ele>
        <time>2021-08-12T09:40:49Z</time>
      </trkpt>
      <trkpt lat="44.16096" lon="3.58628">
        <ele>1076.8</ele>
        <time>2021-08-12T09:40:51Z</time>
      </trkpt>
      <trkpt lat="44.16096" lon="3.58623">
        <ele>1077.1</ele>
        <time>2021-08-12T09:40:53Z</time>
      </trkpt>
      <trkpt lat="44.16096" lon="3.58619">
        <ele>1077.5</ele>
        <time>2021-08-12T09:40:55Z</time>
      </trkpt>
      <trkpt lat="44.16096" lon="3.58615">
        <ele>1077.7</ele>
        <time>2021-08-12T09:40:57Z</time>
      </trkpt>
      <trkpt lat="44.16095" lon="3.58611">
        <ele>1077.9</ele>
        <time>2021-08-12T09:40:59Z</time>
      </trkpt>
      <trkpt lat="44.16095" lon="3.58606">
        <ele>1078.2</ele>
        <time>2021-08-12T09:41:01Z</time>
      </trkpt>
      <trkpt lat="44.16095" lon="3.58602">
        <ele>1078.5</ele>
        <time>2021-08-12T09:41:03Z</time>
      </trkpt>
      <trkpt lat="44.16095" lon="3.58598">
        <ele>1078.8</ele>
        <time>2021-08-12T09:41:05Z</time>
      </trkpt>
      <trkpt lat="44.16095" lon="3.58593">
        <ele>1079.1</ele>
        <time>2021-08-12T09:41:07Z</time>
      </trkpt>
      <trkpt lat="44.16095" lon="3.58589">
        <ele>1079.3</ele>
        <time>2021-08-12T09:41:09Z</time>
      </trkpt>
      <trkpt lat="44.16095" lon="3.58585">
        <ele>1079.6</ele>
        <time>2021-08-12T09:41:11Z</time>
      </trkpt>
      <trkpt lat="44.16094" lon="3.5858">
        <ele>1079.9</ele>
        <time>2021-08-12T09:41:13Z</time>
      </trkpt>
      <trkpt lat="44.16094" lon="3.58576">
        <ele>1080.1</ele>
        <time>2021-08-12T09:41:15Z</time>
      </trkpt>
      <trkpt lat="44.16093" lon="3.58572">
        <ele>1080.3</ele>
        <time>2021-08-12T09:41:17Z</time>
      </trkpt>
      <trkpt lat="44.16092" lon="3.58568">
        <ele>1080.5</ele>
        <time>2021-08-12T09:41:19Z</time>
      </trkpt>
      <trkpt lat="44.16092" lon="3.58564">
        <ele>1080.8</ele>
        <time>2021-08-12T09:41:21Z</time>
      </trkpt>
      <trkpt lat="44.16093" lon="3.5856">
        <ele>1081.3</ele>
        <time>2021-08-12T09:41:23Z</time>
      </trkpt>
      <trkpt lat="44.16093" lon="3.58556">
        <ele>1081.9</ele>
        <time>2021-08-12T09:41:25Z</time>
      </trkpt>
      <trkpt lat="44.16095" lon="3.58553">
        <ele>1082.9</ele>
        <time>2021-08-12T09:41:27Z</time>
      </trkpt>
      <trkpt lat="44.16098" lon="3.58552">
        <ele>1084.4</ele>
        <time>2021-08-12T09:41:29Z</time>
      </trkpt>
      <trkpt lat="44.161" lon="3.58555">
        <ele>1085.1</ele>
        <time>2021-08-12T09:41:31Z</time>
      </trkpt>
      <trkpt lat="44.16101" lon="3.58559">
        <ele>1085.1</ele>
        <time>2021-08-12T09:41:33Z</time>
      </trkpt>
      <trkpt lat="44.16102" lon="3.58561">
        <ele>1085.1</ele>
        <time>2021-08-12T09:41:35Z</time>
      </trkpt>
      <trkpt lat="44.16102" lon="3.58561">
        <ele>1085.1</ele>
        <time>2021-08-12T09:41:37Z</time>
      </trkpt>
      <trkpt lat="44.16102" lon="3.58561">
        <ele>1085.1</ele>
        <time>2021-08-12T09:41:39Z</time>
      </trkpt>
      <trkpt lat="44.16102" lon="3.58561">
        <ele>1085</ele>
        <time>2021-08-12T09:41:41Z</time>
      </trkpt>
      <trkpt lat="44.16102" lon="3.58561">
        <ele>1085</ele>
        <time>2021-08-12T09:41:43Z</time>
      </trkpt>
      <trkpt lat="44.16108" lon="3.58578">
        <ele>1086</ele>
        <time>2021-08-12T09:42:33Z</time>
      </trkpt>
      <trkpt lat="44.16109" lon="3.58582">
        <ele>1085.9</ele>
        <time>2021-08-12T09:42:35Z</time>
      </trkpt>
      <trkpt lat="44.1611" lon="3.58585">
        <ele>1086.1</ele>
        <time>2021-08-12T09:42:37Z</time>
      </trkpt>
      <trkpt lat="44.16111" lon="3.58589">
        <ele>1086.2</ele>
        <time>2021-08-12T09:42:39Z</time>
      </trkpt>
      <trkpt lat="44.16113" lon="3.58593">
        <ele>1086.4</ele>
        <time>2021-08-12T09:42:41Z</time>
      </trkpt>
      <trkpt lat="44.16114" lon="3.58597">
        <ele>1086.5</ele>
        <time>2021-08-12T09:42:43Z</time>
      </trkpt>
      <trkpt lat="44.16115" lon="3.58602">
        <ele>1086.5</ele>
        <time>2021-08-12T09:42:45Z</time>
      </trkpt>
      <trkpt lat="44.16116" lon="3.58606">
        <ele>1086.7</ele>
        <time>2021-08-12T09:42:47Z</time>
      </trkpt>
      <trkpt lat="44.16117" lon="3.5861">
        <ele>1086.7</ele>
        <time>2021-08-12T09:42:49Z</time>
      </trkpt>
      <trkpt lat="44.16118" lon="3.58613">
        <ele>1086.7</ele>
        <time>2021-08-12T09:42:51Z</time>
      </trkpt>
      <trkpt lat="44.16119" lon="3.58615">
        <ele>1087.2</ele>
        <time>2021-08-12T09:42:53Z</time>
      </trkpt>
      <trkpt lat="44.16121" lon="3.58616">
        <ele>1087.7</ele>
        <time>2021-08-12T09:42:55Z</time>
      </trkpt>
      <trkpt lat="44.16122" lon="3.58617">
        <ele>1088.1</ele>
        <time>2021-08-12T09:42:57Z</time>
      </trkpt>
      <trkpt lat="44.16123" lon="3.5862">
        <ele>1088</ele>
        <time>2021-08-12T09:42:59Z</time>
      </trkpt>
      <trkpt lat="44.16124" lon="3.58621">
        <ele>1088.5</ele>
        <time>2021-08-12T09:43:01Z</time>
      </trkpt>
      <trkpt lat="44.16126" lon="3.58621">
        <ele>1089.4</ele>
        <time>2021-08-12T09:43:03Z</time>
      </trkpt>
      <trkpt lat="44.16128" lon="3.58621">
        <ele>1090</ele>
        <time>2021-08-12T09:43:05Z</time>
      </trkpt>
      <trkpt lat="44.1613" lon="3.58609">
        <ele>1092.1</ele>
        <time>2021-08-12T10:15:33Z</time>
      </trkpt>
      <trkpt lat="44.16129" lon="3.58605">
        <ele>1092.3</ele>
        <time>2021-08-12T10:15:35Z</time>
      </trkpt>
      <trkpt lat="44.16128" lon="3.58601">
        <ele>1092.2</ele>
        <time>2021-08-12T10:15:37Z</time>
      </trkpt>
      <trkpt lat="44.16128" lon="3.58597">
        <ele>1092.5</ele>
        <time>2021-08-12T10:15:39Z</time>
      </trkpt>
      <trkpt lat="44.16126" lon="3.58593">
        <ele>1092.1</ele>
        <time>2021-08-12T10:15:41Z</time>
      </trkpt>
      <trkpt lat="44.16124" lon="3.5859">
        <ele>1091.7</ele>
        <time>2021-08-12T10:15:43Z</time>
      </trkpt>
      <trkpt lat="44.16124" lon="3.58586">
        <ele>1091.7</ele>
        <time>2021-08-12T10:15:45Z</time>
      </trkpt>
      <trkpt lat="44.16121" lon="3.58581">
        <ele>1091.2</ele>
        <time>2021-08-12T10:15:47Z</time>
      </trkpt>
      <trkpt lat="44.16121" lon="3.58577">
        <ele>1091.3</ele>
        <time>2021-08-12T10:15:49Z</time>
      </trkpt>
      <trkpt lat="44.1612" lon="3.58572">
        <ele>1091.4</ele>
        <time>2021-08-12T10:15:51Z</time>
      </trkpt>
      <trkpt lat="44.16119" lon="3.58568">
        <ele>1091.5</ele>
        <time>2021-08-12T10:15:53Z</time>
      </trkpt>
      <trkpt lat="44.16119" lon="3.58564">
        <ele>1091.7</ele>
        <time>2021-08-12T10:15:55Z</time>
      </trkpt>
      <trkpt lat="44.16118" lon="3.58559">
        <ele>1092.1</ele>
        <time>2021-08-12T10:15:57Z</time>
      </trkpt>
      <trkpt lat="44.16118" lon="3.58555">
        <ele>1092.3</ele>
        <time>2021-08-12T10:15:59Z</time>
      </trkpt>
      <trkpt lat="44.16117" lon="3.5855">
        <ele>1092.5</ele>
        <time>2021-08-12T10:16:01Z</time>
      </trkpt>
      <trkpt lat="44.16117" lon="3.58546">
        <ele>1093</ele>
        <time>2021-08-12T10:16:03Z</time>
      </trkpt>
      <trkpt lat="44.16117" lon="3.58542">
        <ele>1093.3</ele>
        <time>2021-08-12T10:16:05Z</time>
      </trkpt>
      <trkpt lat="44.16117" lon="3.58537">
        <ele>1093.8</ele>
        <time>2021-08-12T10:16:07Z</time>
      </trkpt>
      <trkpt lat="44.16118" lon="3.58533">
        <ele>1094.4</ele>
        <time>2021-08-12T10:16:09Z</time>
      </trkpt>
      <trkpt lat="44.16119" lon="3.58529">
        <ele>1095.1</ele>
        <time>2021-08-12T10:16:11Z</time>
      </trkpt>
      <trkpt lat="44.1612" lon="3.58525">
        <ele>1095.9</ele>
        <time>2021-08-12T10:16:13Z</time>
      </trkpt>
      <trkpt lat="44.1612" lon="3.58521">
        <ele>1096.6</ele>
        <time>2021-08-12T10:16:15Z</time>
      </trkpt>
      <trkpt lat="44.16121" lon="3.58517">
        <ele>1097.1</ele>
        <time>2021-08-12T10:16:17Z</time>
      </trkpt>
      <trkpt lat="44.16121" lon="3.58512">
        <ele>1097.6</ele>
        <time>2021-08-12T10:16:19Z</time>
      </trkpt>
      <trkpt lat="44.16121" lon="3.58508">
        <ele>1098.2</ele>
        <time>2021-08-12T10:16:21Z</time>
      </trkpt>
      <trkpt lat="44.16122" lon="3.58504">
        <ele>1098.8</ele>
        <time>2021-08-12T10:16:23Z</time>
      </trkpt>
      <trkpt lat="44.16122" lon="3.585">
        <ele>1099.2</ele>
        <time>2021-08-12T10:16:25Z</time>
      </trkpt>
      <trkpt lat="44.16122" lon="3.58496">
        <ele>1099.7</ele>
        <time>2021-08-12T10:16:27Z</time>
      </trkpt>
      <trkpt lat="44.16122" lon="3.58492">
        <ele>1100</ele>
        <time>2021-08-12T10:16:29Z</time>
      </trkpt>
      <trkpt lat="44.16121" lon="3.58487">
        <ele>1100.2</ele>
        <time>2021-08-12T10:16:31Z</time>
      </trkpt>
      <trkpt lat="44.1612" lon="3.58483">
        <ele>1100.3</ele>
        <time>2021-08-12T10:16:33Z</time>
      </trkpt>
      <trkpt lat="44.1612" lon="3.58479">
        <ele>1100.5</ele>
        <time>2021-08-12T10:16:35Z</time>
      </trkpt>
      <trkpt lat="44.16119" lon="3.58475">
        <ele>1100.7</ele>
        <time>2021-08-12T10:16:37Z</time>
      </trkpt>
      <trkpt lat="44.16119" lon="3.58471">
        <ele>1100.9</ele>
        <time>2021-08-12T10:16:39Z</time>
      </trkpt>
      <trkpt lat="44.16118" lon="3.58467">
        <ele>1101.1</ele>
        <time>2021-08-12T10:16:41Z</time>
      </trkpt>
      <trkpt lat="44.16118" lon="3.58462">
        <ele>1101.5</ele>
        <time>2021-08-12T10:16:43Z</time>
      </trkpt>
      <trkpt lat="44.16117" lon="3.58458">
        <ele>1101.4</ele>
        <time>2021-08-12T10:16:45Z</time>
      </trkpt>
      <trkpt lat="44.16116" lon="3.58455">
        <ele>1101.5</ele>
        <time>2021-08-12T10:16:47Z</time>
      </trkpt>
      <trkpt lat="44.16116" lon="3.5845">
        <ele>1101.8</ele>
        <time>2021-08-12T10:16:49Z</time>
      </trkpt>
      <trkpt lat="44.16116" lon="3.58446">
        <ele>1102.1</ele>
        <time>2021-08-12T10:16:51Z</time>
      </trkpt>
      <trkpt lat="44.16116" lon="3.58443">
        <ele>1102.3</ele>
        <time>2021-08-12T10:16:53Z</time>
      </trkpt>
      <trkpt lat="44.16115" lon="3.58439">
        <ele>1102.2</ele>
        <time>2021-08-12T10:16:55Z</time>
      </trkpt>
      <trkpt lat="44.16114" lon="3.58435">
        <ele>1102.2</ele>
        <time>2021-08-12T10:16:57Z</time>
      </trkpt>
      <trkpt lat="44.16113" lon="3.58431">
        <ele>1102.5</ele>
        <time>2021-08-12T10:16:59Z</time>
      </trkpt>
      <trkpt lat="44.16113" lon="3.58427">
        <ele>1102.8</ele>
        <time>2021-08-12T10:17:01Z</time>
      </trkpt>
      <trkpt lat="44.16112" lon="3.58423">
        <ele>1102.8</ele>
        <time>2021-08-12T10:17:03Z</time>
      </trkpt>
      <trkpt lat="44.16112" lon="3.58419">
        <ele>1103</ele>
        <time>2021-08-12T10:17:05Z</time>
      </trkpt>
      <trkpt lat="44.16112" lon="3.58415">
        <ele>1103.5</ele>
        <time>2021-08-12T10:17:07Z</time>
      </trkpt>
      <trkpt lat="44.16112" lon="3.58411">
        <ele>1103.8</ele>
        <time>2021-08-12T10:17:09Z</time>
      </trkpt>
      <trkpt lat="44.16112" lon="3.58408">
        <ele>1104.1</ele>
        <time>2021-08-12T10:17:11Z</time>
      </trkpt>
      <trkpt lat="44.16112" lon="3.58403">
        <ele>1104.5</ele>
        <time>2021-08-12T10:17:13Z</time>
      </trkpt>
      <trkpt lat="44.16112" lon="3.584">
        <ele>1105</ele>
        <time>2021-08-12T10:17:15Z</time>
      </trkpt>
      <trkpt lat="44.16112" lon="3.58396">
        <ele>1105.3</ele>
        <time>2021-08-12T10:17:17Z</time>
      </trkpt>
      <trkpt lat="44.16112" lon="3.58393">
        <ele>1105.6</ele>
        <time>2021-08-12T10:17:19Z</time>
      </trkpt>
      <trkpt lat="44.16112" lon="3.58389">
        <ele>1106</ele>
        <time>2021-08-12T10:17:21Z</time>
      </trkpt>
      <trkpt lat="44.16111" lon="3.58386">
        <ele>1105.8</ele>
        <time>2021-08-12T10:17:23Z</time>
      </trkpt>
      <trkpt lat="44.16111" lon="3.58381">
        <ele>1106.2</ele>
        <time>2021-08-12T10:17:25Z</time>
      </trkpt>
      <trkpt lat="44.16111" lon="3.58376">
        <ele>1106.6</ele>
        <time>2021-08-12T10:17:27Z</time>
      </trkpt>
      <trkpt lat="44.16111" lon="3.58372">
        <ele>1107</ele>
        <time>2021-08-12T10:17:29Z</time>
      </trkpt>
      <trkpt lat="44.1611" lon="3.58367">
        <ele>1107.3</ele>
        <time>2021-08-12T10:17:31Z</time>
      </trkpt>
      <trkpt lat="44.16111" lon="3.58363">
        <ele>1107.9</ele>
        <time>2021-08-12T10:17:33Z</time>
      </trkpt>
      <trkpt lat="44.1611" lon="3.58359">
        <ele>1107.9</ele>
        <time>2021-08-12T10:17:35Z</time>
      </trkpt>
      <trkpt lat="44.1611" lon="3.58355">
        <ele>1108.1</ele>
        <time>2021-08-12T10:17:37Z</time>
      </trkpt>
      <trkpt lat="44.16109" lon="3.5835">
        <ele>1108.3</ele>
        <time>2021-08-12T10:17:39Z</time>
      </trkpt>
      <trkpt lat="44.16109" lon="3.58346">
        <ele>1108.6</ele>
        <time>2021-08-12T10:17:41Z</time>
      </trkpt>
      <trkpt lat="44.16108" lon="3.58342">
        <ele>1108.6</ele>
        <time>2021-08-12T10:17:43Z</time>
      </trkpt>
      <trkpt lat="44.16107" lon="3.58338">
        <ele>1108.7</ele>
        <time>2021-08-12T10:17:45Z</time>
      </trkpt>
      <trkpt lat="44.16106" lon="3.58333">
        <ele>1108.8</ele>
        <time>2021-08-12T10:17:47Z</time>
      </trkpt>
      <trkpt lat="44.16105" lon="3.58329">
        <ele>1109</ele>
        <time>2021-08-12T10:17:49Z</time>
      </trkpt>
      <trkpt lat="44.16103" lon="3.58325">
        <ele>1109.1</ele>
        <time>2021-08-12T10:17:51Z</time>
      </trkpt>
      <trkpt lat="44.16102" lon="3.58321">
        <ele>1109.3</ele>
        <time>2021-08-12T10:17:53Z</time>
      </trkpt>
      <trkpt lat="44.16101" lon="3.58317">
        <ele>1109.5</ele>
        <time>2021-08-12T10:17:55Z</time>
      </trkpt>
      <trkpt lat="44.161" lon="3.58313">
        <ele>1109.9</ele>
        <time>2021-08-12T10:17:57Z</time>
      </trkpt>
      <trkpt lat="44.16099" lon="3.58308">
        <ele>1109.9</ele>
        <time>2021-08-12T10:17:59Z</time>
      </trkpt>
      <trkpt lat="44.16097" lon="3.58304">
        <ele>1110.1</ele>
        <time>2021-08-12T10:18:01Z</time>
      </trkpt>
      <trkpt lat="44.16096" lon="3.583">
        <ele>1110.1</ele>
        <time>2021-08-12T10:18:03Z</time>
      </trkpt>
      <trkpt lat="44.16094" lon="3.58296">
        <ele>1110.2</ele>
        <time>2021-08-12T10:18:05Z</time>
      </trkpt>
      <trkpt lat="44.16093" lon="3.58292">
        <ele>1110.3</ele>
        <time>2021-08-12T10:18:07Z</time>
      </trkpt>
      <trkpt lat="44.16091" lon="3.58288">
        <ele>1110.1</ele>
        <time>2021-08-12T10:18:09Z</time>
      </trkpt>
      <trkpt lat="44.16089" lon="3.58284">
        <ele>1110.1</ele>
        <time>2021-08-12T10:18:11Z</time>
      </trkpt>
      <trkpt lat="44.16088" lon="3.5828">
        <ele>1110.1</ele>
        <time>2021-08-12T10:18:13Z</time>
      </trkpt>
      <trkpt lat="44.16086" lon="3.58276">
        <ele>1110.1</ele>
        <time>2021-08-12T10:18:15Z</time>
      </trkpt>
      <trkpt lat="44.16085" lon="3.58272">
        <ele>1110.4</ele>
        <time>2021-08-12T10:18:17Z</time>
      </trkpt>
      <trkpt lat="44.16084" lon="3.58267">
        <ele>1110.7</ele>
        <time>2021-08-12T10:18:19Z</time>
      </trkpt>
      <trkpt lat="44.16083" lon="3.58263">
        <ele>1110.9</ele>
        <time>2021-08-12T10:18:21Z</time>
      </trkpt>
      <trkpt lat="44.16082" lon="3.58258">
        <ele>1111.4</ele>
        <time>2021-08-12T10:18:23Z</time>
      </trkpt>
      <trkpt lat="44.16082" lon="3.58254">
        <ele>1111.9</ele>
        <time>2021-08-12T10:18:25Z</time>
      </trkpt>
      <trkpt lat="44.16081" lon="3.58249">
        <ele>1112.3</ele>
        <time>2021-08-12T10:18:27Z</time>
      </trkpt>
      <trkpt lat="44.1608" lon="3.58245">
        <ele>1112.8</ele>
        <time>2021-08-12T10:18:29Z</time>
      </trkpt>
      <trkpt lat="44.16079" lon="3.5824">
        <ele>1113.4</ele>
        <time>2021-08-12T10:18:31Z</time>
      </trkpt>
      <trkpt lat="44.16078" lon="3.58236">
        <ele>1113.8</ele>
        <time>2021-08-12T10:18:33Z</time>
      </trkpt>
      <trkpt lat="44.16078" lon="3.58231">
        <ele>1114.4</ele>
        <time>2021-08-12T10:18:35Z</time>
      </trkpt>
      <trkpt lat="44.16077" lon="3.58227">
        <ele>1115</ele>
        <time>2021-08-12T10:18:37Z</time>
      </trkpt>
      <trkpt lat="44.16077" lon="3.58223">
        <ele>1115.4</ele>
        <time>2021-08-12T10:18:39Z</time>
      </trkpt>
      <trkpt lat="44.16076" lon="3.58219">
        <ele>1115.8</ele>
        <time>2021-08-12T10:18:41Z</time>
      </trkpt>
      <trkpt lat="44.16075" lon="3.58215">
        <ele>1116.2</ele>
        <time>2021-08-12T10:18:43Z</time>
      </trkpt>
      <trkpt lat="44.16075" lon="3.58212">
        <ele>1116.7</ele>
        <time>2021-08-12T10:18:45Z</time>
      </trkpt>
      <trkpt lat="44.16074" lon="3.58207">
        <ele>1117</ele>
        <time>2021-08-12T10:18:47Z</time>
      </trkpt>
      <trkpt lat="44.16073" lon="3.58203">
        <ele>1117.4</ele>
        <time>2021-08-12T10:18:49Z</time>
      </trkpt>
      <trkpt lat="44.16071" lon="3.58199">
        <ele>1117.7</ele>
        <time>2021-08-12T10:18:51Z</time>
      </trkpt>
      <trkpt lat="44.1607" lon="3.58196">
        <ele>1117.7</ele>
        <time>2021-08-12T10:18:53Z</time>
      </trkpt>
      <trkpt lat="44.16069" lon="3.58191">
        <ele>1118.1</ele>
        <time>2021-08-12T10:18:55Z</time>
      </trkpt>
      <trkpt lat="44.16068" lon="3.58187">
        <ele>1118.5</ele>
        <time>2021-08-12T10:18:57Z</time>
      </trkpt>
      <trkpt lat="44.16066" lon="3.58182">
        <ele>1118.8</ele>
        <time>2021-08-12T10:18:59Z</time>
      </trkpt>
      <trkpt lat="44.16065" lon="3.58178">
        <ele>1119.1</ele>
        <time>2021-08-12T10:19:01Z</time>
      </trkpt>
      <trkpt lat="44.16064" lon="3.58174">
        <ele>1119.2</ele>
        <time>2021-08-12T10:19:03Z</time>
      </trkpt>
      <trkpt lat="44.16062" lon="3.5817">
        <ele>1119.2</ele>
        <time>2021-08-12T10:19:05Z</time>
      </trkpt>
      <trkpt lat="44.1606" lon="3.58166">
        <ele>1119.4</ele>
        <time>2021-08-12T10:19:07Z</time>
      </trkpt>
      <trkpt lat="44.16059" lon="3.58161">
        <ele>1119.6</ele>
        <time>2021-08-12T10:19:09Z</time>
      </trkpt>
      <trkpt lat="44.16058" lon="3.58157">
        <ele>1119.8</ele>
        <time>2021-08-12T10:19:11Z</time>
      </trkpt>
      <trkpt lat="44.16056" lon="3.58152">
        <ele>1119.8</ele>
        <time>2021-08-12T10:19:13Z</time>
      </trkpt>
      <trkpt lat="44.16055" lon="3.58148">
        <ele>1120.1</ele>
        <time>2021-08-12T10:19:15Z</time>
      </trkpt>
      <trkpt lat="44.16054" lon="3.58143">
        <ele>1120.3</ele>
        <time>2021-08-12T10:19:17Z</time>
      </trkpt>
      <trkpt lat="44.16051" lon="3.58139">
        <ele>1120.2</ele>
        <time>2021-08-12T10:19:19Z</time>
      </trkpt>
      <trkpt lat="44.1605" lon="3.58135">
        <ele>1120.5</ele>
        <time>2021-08-12T10:19:21Z</time>
      </trkpt>
      <trkpt lat="44.16049" lon="3.5813">
        <ele>1120.6</ele>
        <time>2021-08-12T10:19:23Z</time>
      </trkpt>
      <trkpt lat="44.16047" lon="3.58126">
        <ele>1120.8</ele>
        <time>2021-08-12T10:19:25Z</time>
      </trkpt>
      <trkpt lat="44.16045" lon="3.58121">
        <ele>1120.8</ele>
        <time>2021-08-12T10:19:27Z</time>
      </trkpt>
      <trkpt lat="44.16044" lon="3.58116">
        <ele>1121.1</ele>
        <time>2021-08-12T10:19:29Z</time>
      </trkpt>
      <trkpt lat="44.16042" lon="3.58112">
        <ele>1121.4</ele>
        <time>2021-08-12T10:19:31Z</time>
      </trkpt>
      <trkpt lat="44.16041" lon="3.58107">
        <ele>1121.6</ele>
        <time>2021-08-12T10:19:33Z</time>
      </trkpt>
      <trkpt lat="44.16039" lon="3.58102">
        <ele>1122</ele>
        <time>2021-08-12T10:19:35Z</time>
      </trkpt>
      <trkpt lat="44.16037" lon="3.58098">
        <ele>1122</ele>
        <time>2021-08-12T10:19:37Z</time>
      </trkpt>
      <trkpt lat="44.16036" lon="3.58094">
        <ele>1122.3</ele>
        <time>2021-08-12T10:19:39Z</time>
      </trkpt>
      <trkpt lat="44.16035" lon="3.5809">
        <ele>1122.5</ele>
        <time>2021-08-12T10:19:41Z</time>
      </trkpt>
      <trkpt lat="44.16033" lon="3.58085">
        <ele>1122.8</ele>
        <time>2021-08-12T10:19:43Z</time>
      </trkpt>
      <trkpt lat="44.16031" lon="3.58082">
        <ele>1122.8</ele>
        <time>2021-08-12T10:19:45Z</time>
      </trkpt>
      <trkpt lat="44.1603" lon="3.58078">
        <ele>1122.8</ele>
        <time>2021-08-12T10:19:47Z</time>
      </trkpt>
      <trkpt lat="44.16029" lon="3.58073">
        <ele>1122.8</ele>
        <time>2021-08-12T10:19:49Z</time>
      </trkpt>
      <trkpt lat="44.16027" lon="3.58069">
        <ele>1122.5</ele>
        <time>2021-08-12T10:19:51Z</time>
      </trkpt>
      <trkpt lat="44.16024" lon="3.58065">
        <ele>1122.2</ele>
        <time>2021-08-12T10:19:53Z</time>
      </trkpt>
      <trkpt lat="44.16022" lon="3.58061">
        <ele>1121.9</ele>
        <time>2021-08-12T10:19:55Z</time>
      </trkpt>
      <trkpt lat="44.16019" lon="3.58058">
        <ele>1121.6</ele>
        <time>2021-08-12T10:19:57Z</time>
      </trkpt>
      <trkpt lat="44.16017" lon="3.58054">
        <ele>1121.3</ele>
        <time>2021-08-12T10:19:59Z</time>
      </trkpt>
      <trkpt lat="44.16015" lon="3.58051">
        <ele>1120.9</ele>
        <time>2021-08-12T10:20:01Z</time>
      </trkpt>
      <trkpt lat="44.16011" lon="3.58049">
        <ele>1120.3</ele>
        <time>2021-08-12T10:20:03Z</time>
      </trkpt>
      <trkpt lat="44.16009" lon="3.58045">
        <ele>1119.9</ele>
        <time>2021-08-12T10:20:05Z</time>
      </trkpt>
      <trkpt lat="44.16006" lon="3.58042">
        <ele>1119.5</ele>
        <time>2021-08-12T10:20:07Z</time>
      </trkpt>
      <trkpt lat="44.16003" lon="3.58041">
        <ele>1118.8</ele>
        <time>2021-08-12T10:20:09Z</time>
      </trkpt>
      <trkpt lat="44.16" lon="3.58037">
        <ele>1118.5</ele>
        <time>2021-08-12T10:20:11Z</time>
      </trkpt>
      <trkpt lat="44.15998" lon="3.58034">
        <ele>1118.9</ele>
        <time>2021-08-12T10:20:13Z</time>
      </trkpt>
      <trkpt lat="44.15995" lon="3.58031">
        <ele>1119.2</ele>
        <time>2021-08-12T10:20:15Z</time>
      </trkpt>
      <trkpt lat="44.15992" lon="3.58027">
        <ele>1119.6</ele>
        <time>2021-08-12T10:20:17Z</time>
      </trkpt>
      <trkpt lat="44.15989" lon="3.58025">
        <ele>1120</ele>
        <time>2021-08-12T10:20:19Z</time>
      </trkpt>
      <trkpt lat="44.15986" lon="3.58022">
        <ele>1120.3</ele>
        <time>2021-08-12T10:20:21Z</time>
      </trkpt>
      <trkpt lat="44.15983" lon="3.58019">
        <ele>1120.6</ele>
        <time>2021-08-12T10:20:23Z</time>
      </trkpt>
      <trkpt lat="44.15981" lon="3.58016">
        <ele>1121</ele>
        <time>2021-08-12T10:20:25Z</time>
      </trkpt>
      <trkpt lat="44.15978" lon="3.58013">
        <ele>1121.4</ele>
        <time>2021-08-12T10:20:27Z</time>
      </trkpt>
      <trkpt lat="44.15975" lon="3.58009">
        <ele>1121.7</ele>
        <time>2021-08-12T10:20:29Z</time>
      </trkpt>
      <trkpt lat="44.15973" lon="3.58006">
        <ele>1122.1</ele>
        <time>2021-08-12T10:20:31Z</time>
      </trkpt>
      <trkpt lat="44.15971" lon="3.58002">
        <ele>1122.5</ele>
        <time>2021-08-12T10:20:33Z</time>
      </trkpt>
      <trkpt lat="44.15968" lon="3.57998">
        <ele>1122.8</ele>
        <time>2021-08-12T10:20:35Z</time>
      </trkpt>
      <trkpt lat="44.15967" lon="3.57995">
        <ele>1122.8</ele>
        <time>2021-08-12T10:20:37Z</time>
      </trkpt>
      <trkpt lat="44.15965" lon="3.57991">
        <ele>1122.9</ele>
        <time>2021-08-12T10:20:39Z</time>
      </trkpt>
      <trkpt lat="44.15963" lon="3.57988">
        <ele>1123</ele>
        <time>2021-08-12T10:20:41Z</time>
      </trkpt>
      <trkpt lat="44.15961" lon="3.57983">
        <ele>1123.1</ele>
        <time>2021-08-12T10:20:43Z</time>
      </trkpt>
      <trkpt lat="44.15958" lon="3.57977">
        <ele>1123.1</ele>
        <time>2021-08-12T10:20:45Z</time>
      </trkpt>
      <trkpt lat="44.15956" lon="3.57972">
        <ele>1123.2</ele>
        <time>2021-08-12T10:20:47Z</time>
      </trkpt>
      <trkpt lat="44.15953" lon="3.57965">
        <ele>1123.3</ele>
        <time>2021-08-12T10:20:49Z</time>
      </trkpt>
      <trkpt lat="44.1595" lon="3.57959">
        <ele>1123.4</ele>
        <time>2021-08-12T10:20:51Z</time>
      </trkpt>
      <trkpt lat="44.15947" lon="3.57954">
        <ele>1123.5</ele>
        <time>2021-08-12T10:20:53Z</time>
      </trkpt>
      <trkpt lat="44.15944" lon="3.57947">
        <ele>1123.6</ele>
        <time>2021-08-12T10:20:55Z</time>
      </trkpt>
      <trkpt lat="44.1594" lon="3.57939">
        <ele>1123.6</ele>
        <time>2021-08-12T10:20:57Z</time>
      </trkpt>
      <trkpt lat="44.15936" lon="3.57932">
        <ele>1123.7</ele>
        <time>2021-08-12T10:20:59Z</time>
      </trkpt>
      <trkpt lat="44.15932" lon="3.57923">
        <ele>1123.8</ele>
        <time>2021-08-12T10:21:01Z</time>
      </trkpt>
      <trkpt lat="44.15928" lon="3.57914">
        <ele>1123.6</ele>
        <time>2021-08-12T10:21:03Z</time>
      </trkpt>
      <trkpt lat="44.15924" lon="3.57905">
        <ele>1122.7</ele>
        <time>2021-08-12T10:21:05Z</time>
      </trkpt>
      <trkpt lat="44.1592" lon="3.57895">
        <ele>1121.6</ele>
        <time>2021-08-12T10:21:07Z</time>
      </trkpt>
      <trkpt lat="44.15916" lon="3.57884">
        <ele>1120.5</ele>
        <time>2021-08-12T10:21:09Z</time>
      </trkpt>
      <trkpt lat="44.15912" lon="3.57873">
        <ele>1119.9</ele>
        <time>2021-08-12T10:21:11Z</time>
      </trkpt>
      <trkpt lat="44.15907" lon="3.57862">
        <ele>1119.3</ele>
        <time>2021-08-12T10:21:13Z</time>
      </trkpt>
      <trkpt lat="44.15902" lon="3.57852">
        <ele>1118.6</ele>
        <time>2021-08-12T10:21:15Z</time>
      </trkpt>
      <trkpt lat="44.15896" lon="3.57841">
        <ele>1118.1</ele>
        <time>2021-08-12T10:21:17Z</time>
      </trkpt>
      <trkpt lat="44.1589" lon="3.57831">
        <ele>1117.5</ele>
        <time>2021-08-12T10:21:19Z</time>
      </trkpt>
      <trkpt lat="44.15884" lon="3.57821">
        <ele>1116.7</ele>
        <time>2021-08-12T10:21:21Z</time>
      </trkpt>
      <trkpt lat="44.15877" lon="3.57812">
        <ele>1116</ele>
        <time>2021-08-12T10:21:23Z</time>
      </trkpt>
      <trkpt lat="44.15868" lon="3.57804">
        <ele>1115.6</ele>
        <time>2021-08-12T10:21:25Z</time>
      </trkpt>
      <trkpt lat="44.15858" lon="3.57798">
        <ele>1115.5</ele>
        <time>2021-08-12T10:21:27Z</time>
      </trkpt>
      <trkpt lat="44.15849" lon="3.57793">
        <ele>1115.4</ele>
        <time>2021-08-12T10:21:29Z</time>
      </trkpt>
      <trkpt lat="44.15839" lon="3.57788">
        <ele>1115.5</ele>
        <time>2021-08-12T10:21:31Z</time>
      </trkpt>
      <trkpt lat="44.15829" lon="3.57784">
        <ele>1115.4</ele>
        <time>2021-08-12T10:21:33Z</time>
      </trkpt>
      <trkpt lat="44.15819" lon="3.57779">
        <ele>1115.3</ele>
        <time>2021-08-12T10:21:35Z</time>
      </trkpt>
      <trkpt lat="44.15809" lon="3.57776">
        <ele>1115.3</ele>
        <time>2021-08-12T10:21:37Z</time>
      </trkpt>
      <trkpt lat="44.15799" lon="3.57771">
        <ele>1115.1</ele>
        <time>2021-08-12T10:21:39Z</time>
      </trkpt>
      <trkpt lat="44.15789" lon="3.57767">
        <ele>1114.9</ele>
        <time>2021-08-12T10:21:41Z</time>
      </trkpt>
      <trkpt lat="44.15779" lon="3.57762">
        <ele>1114.7</ele>
        <time>2021-08-12T10:21:43Z</time>
      </trkpt>
      <trkpt lat="44.1577" lon="3.57759">
        <ele>1114.6</ele>
        <time>2021-08-12T10:21:45Z</time>
      </trkpt>
      <trkpt lat="44.1576" lon="3.57755">
        <ele>1114.4</ele>
        <time>2021-08-12T10:21:47Z</time>
      </trkpt>
      <trkpt lat="44.1575" lon="3.57753">
        <ele>1114.6</ele>
        <time>2021-08-12T10:21:49Z</time>
      </trkpt>
      <trkpt lat="44.1574" lon="3.57751">
        <ele>1114.6</ele>
        <time>2021-08-12T10:21:51Z</time>
      </trkpt>
      <trkpt lat="44.15729" lon="3.5775">
        <ele>1114.8</ele>
        <time>2021-08-12T10:21:53Z</time>
      </trkpt>
      <trkpt lat="44.15719" lon="3.57749">
        <ele>1115</ele>
        <time>2021-08-12T10:21:55Z</time>
      </trkpt>
      <trkpt lat="44.15709" lon="3.57748">
        <ele>1115.2</ele>
        <time>2021-08-12T10:21:57Z</time>
      </trkpt>
      <trkpt lat="44.15699" lon="3.57747">
        <ele>1115.5</ele>
        <time>2021-08-12T10:21:59Z</time>
      </trkpt>
      <trkpt lat="44.15689" lon="3.57747">
        <ele>1115.8</ele>
        <time>2021-08-12T10:22:01Z</time>
      </trkpt>
      <trkpt lat="44.1568" lon="3.57748">
        <ele>1116.2</ele>
        <time>2021-08-12T10:22:03Z</time>
      </trkpt>
      <trkpt lat="44.1567" lon="3.57748">
        <ele>1116.6</ele>
        <time>2021-08-12T10:22:05Z</time>
      </trkpt>
      <trkpt lat="44.15661" lon="3.57748">
        <ele>1116.9</ele>
        <time>2021-08-12T10:22:07Z</time>
      </trkpt>
      <trkpt lat="44.15652" lon="3.57749">
        <ele>1117.2</ele>
        <time>2021-08-12T10:22:09Z</time>
      </trkpt>
      <trkpt lat="44.15643" lon="3.57749">
        <ele>1117.5</ele>
        <time>2021-08-12T10:22:11Z</time>
      </trkpt>
      <trkpt lat="44.15633" lon="3.5775">
        <ele>1117.8</ele>
        <time>2021-08-12T10:22:13Z</time>
      </trkpt>
      <trkpt lat="44.15624" lon="3.57751">
        <ele>1118.3</ele>
        <time>2021-08-12T10:22:15Z</time>
      </trkpt>
      <trkpt lat="44.15615" lon="3.57753">
        <ele>1118.9</ele>
        <time>2021-08-12T10:22:17Z</time>
      </trkpt>
      <trkpt lat="44.15605" lon="3.57752">
        <ele>1118.9</ele>
        <time>2021-08-12T10:22:19Z</time>
      </trkpt>
      <trkpt lat="44.15598" lon="3.57753">
        <ele>1119.4</ele>
        <time>2021-08-12T10:22:21Z</time>
      </trkpt>
      <trkpt lat="44.15589" lon="3.57752">
        <ele>1119.4</ele>
        <time>2021-08-12T10:22:23Z</time>
      </trkpt>
      <trkpt lat="44.1558" lon="3.57752">
        <ele>1119.4</ele>
        <time>2021-08-12T10:22:25Z</time>
      </trkpt>
      <trkpt lat="44.15572" lon="3.57754">
        <ele>1119.3</ele>
        <time>2021-08-12T10:22:27Z</time>
      </trkpt>
      <trkpt lat="44.15564" lon="3.57754">
        <ele>1118.9</ele>
        <time>2021-08-12T10:22:29Z</time>
      </trkpt>
      <trkpt lat="44.15554" lon="3.57755">
        <ele>1118.8</ele>
        <time>2021-08-12T10:22:31Z</time>
      </trkpt>
      <trkpt lat="44.15545" lon="3.57757">
        <ele>1118.7</ele>
        <time>2021-08-12T10:22:33Z</time>
      </trkpt>
      <trkpt lat="44.15535" lon="3.5776">
        <ele>1118.8</ele>
        <time>2021-08-12T10:22:35Z</time>
      </trkpt>
      <trkpt lat="44.15524" lon="3.57765">
        <ele>1119.1</ele>
        <time>2021-08-12T10:22:37Z</time>
      </trkpt>
      <trkpt lat="44.15514" lon="3.57771">
        <ele>1119.8</ele>
        <time>2021-08-12T10:22:39Z</time>
      </trkpt>
      <trkpt lat="44.15505" lon="3.57779">
        <ele>1120.6</ele>
        <time>2021-08-12T10:22:41Z</time>
      </trkpt>
      <trkpt lat="44.15496" lon="3.57787">
        <ele>1121.4</ele>
        <time>2021-08-12T10:22:43Z</time>
      </trkpt>
      <trkpt lat="44.15487" lon="3.57794">
        <ele>1122.1</ele>
        <time>2021-08-12T10:22:45Z</time>
      </trkpt>
      <trkpt lat="44.15477" lon="3.57799">
        <ele>1122.4</ele>
        <time>2021-08-12T10:22:47Z</time>
      </trkpt>
      <trkpt lat="44.15467" lon="3.578">
        <ele>1121.9</ele>
        <time>2021-08-12T10:22:49Z</time>
      </trkpt>
      <trkpt lat="44.15458" lon="3.57797">
        <ele>1120.9</ele>
        <time>2021-08-12T10:22:51Z</time>
      </trkpt>
      <trkpt lat="44.1545" lon="3.5779">
        <ele>1119.6</ele>
        <time>2021-08-12T10:22:53Z</time>
      </trkpt>
      <trkpt lat="44.15443" lon="3.57783">
        <ele>1118.5</ele>
        <time>2021-08-12T10:22:55Z</time>
      </trkpt>
      <trkpt lat="44.15439" lon="3.57771">
        <ele>1117.1</ele>
        <time>2021-08-12T10:22:57Z</time>
      </trkpt>
      <trkpt lat="44.15439" lon="3.57758">
        <ele>1115.8</ele>
        <time>2021-08-12T10:22:59Z</time>
      </trkpt>
      <trkpt lat="44.15438" lon="3.57746">
        <ele>1115.1</ele>
        <time>2021-08-12T10:23:01Z</time>
      </trkpt>
      <trkpt lat="44.15439" lon="3.57733">
        <ele>1115.3</ele>
        <time>2021-08-12T10:23:03Z</time>
      </trkpt>
      <trkpt lat="44.1544" lon="3.57723">
        <ele>1115.4</ele>
        <time>2021-08-12T10:23:05Z</time>
      </trkpt>
      <trkpt lat="44.15439" lon="3.57711">
        <ele>1115.7</ele>
        <time>2021-08-12T10:23:07Z</time>
      </trkpt>
      <trkpt lat="44.15439" lon="3.577">
        <ele>1115.8</ele>
        <time>2021-08-12T10:23:09Z</time>
      </trkpt>
      <trkpt lat="44.15439" lon="3.57689">
        <ele>1116</ele>
        <time>2021-08-12T10:23:11Z</time>
      </trkpt>
      <trkpt lat="44.15438" lon="3.57678">
        <ele>1116.3</ele>
        <time>2021-08-12T10:23:13Z</time>
      </trkpt>
      <trkpt lat="44.15439" lon="3.57668">
        <ele>1116.4</ele>
        <time>2021-08-12T10:23:15Z</time>
      </trkpt>
      <trkpt lat="44.1544" lon="3.5766">
        <ele>1116.5</ele>
        <time>2021-08-12T10:23:17Z</time>
      </trkpt>
      <trkpt lat="44.15439" lon="3.5765">
        <ele>1117</ele>
        <time>2021-08-12T10:23:19Z</time>
      </trkpt>
      <trkpt lat="44.15439" lon="3.57641">
        <ele>1117.4</ele>
        <time>2021-08-12T10:23:21Z</time>
      </trkpt>
      <trkpt lat="44.15438" lon="3.57632">
        <ele>1117.8</ele>
        <time>2021-08-12T10:23:23Z</time>
      </trkpt>
      <trkpt lat="44.15438" lon="3.57624">
        <ele>1118.1</ele>
        <time>2021-08-12T10:23:25Z</time>
      </trkpt>
      <trkpt lat="44.15438" lon="3.57616">
        <ele>1118.5</ele>
        <time>2021-08-12T10:23:27Z</time>
      </trkpt>
      <trkpt lat="44.15438" lon="3.57609">
        <ele>1118.8</ele>
        <time>2021-08-12T10:23:29Z</time>
      </trkpt>
      <trkpt lat="44.15437" lon="3.57601">
        <ele>1119.1</ele>
        <time>2021-08-12T10:23:31Z</time>
      </trkpt>
      <trkpt lat="44.15437" lon="3.57594">
        <ele>1119.3</ele>
        <time>2021-08-12T10:23:33Z</time>
      </trkpt>
      <trkpt lat="44.15437" lon="3.57588">
        <ele>1119.6</ele>
        <time>2021-08-12T10:23:35Z</time>
      </trkpt>
      <trkpt lat="44.15436" lon="3.57582">
        <ele>1120</ele>
        <time>2021-08-12T10:23:37Z</time>
      </trkpt>
      <trkpt lat="44.15435" lon="3.57576">
        <ele>1120.3</ele>
        <time>2021-08-12T10:23:39Z</time>
      </trkpt>
      <trkpt lat="44.15435" lon="3.57572">
        <ele>1120.6</ele>
        <time>2021-08-12T10:23:41Z</time>
      </trkpt>
      <trkpt lat="44.15433" lon="3.57565">
        <ele>1121.1</ele>
        <time>2021-08-12T10:23:43Z</time>
      </trkpt>
      <trkpt lat="44.15432" lon="3.57558">
        <ele>1121.6</ele>
        <time>2021-08-12T10:23:45Z</time>
      </trkpt>
      <trkpt lat="44.15432" lon="3.57552">
        <ele>1122</ele>
        <time>2021-08-12T10:23:47Z</time>
      </trkpt>
      <trkpt lat="44.15431" lon="3.57545">
        <ele>1122.4</ele>
        <time>2021-08-12T10:23:49Z</time>
      </trkpt>
      <trkpt lat="44.1543" lon="3.57539">
        <ele>1122.9</ele>
        <time>2021-08-12T10:23:51Z</time>
      </trkpt>
      <trkpt lat="44.15429" lon="3.57532">
        <ele>1123.4</ele>
        <time>2021-08-12T10:23:53Z</time>
      </trkpt>
      <trkpt lat="44.15428" lon="3.57525">
        <ele>1123.8</ele>
        <time>2021-08-12T10:23:55Z</time>
      </trkpt>
      <trkpt lat="44.15427" lon="3.57518">
        <ele>1124.3</ele>
        <time>2021-08-12T10:23:57Z</time>
      </trkpt>
      <trkpt lat="44.15425" lon="3.57511">
        <ele>1124.8</ele>
        <time>2021-08-12T10:23:59Z</time>
      </trkpt>
      <trkpt lat="44.15424" lon="3.57504">
        <ele>1125.3</ele>
        <time>2021-08-12T10:24:01Z</time>
      </trkpt>
      <trkpt lat="44.15423" lon="3.57498">
        <ele>1125.6</ele>
        <time>2021-08-12T10:24:03Z</time>
      </trkpt>
      <trkpt lat="44.15422" lon="3.57492">
        <ele>1125.5</ele>
        <time>2021-08-12T10:24:05Z</time>
      </trkpt>
      <trkpt lat="44.15421" lon="3.57485">
        <ele>1125.5</ele>
        <time>2021-08-12T10:24:07Z</time>
      </trkpt>
      <trkpt lat="44.15419" lon="3.57478">
        <ele>1125.4</ele>
        <time>2021-08-12T10:24:09Z</time>
      </trkpt>
      <trkpt lat="44.15419" lon="3.57471">
        <ele>1125.3</ele>
        <time>2021-08-12T10:24:11Z</time>
      </trkpt>
      <trkpt lat="44.15418" lon="3.57465">
        <ele>1125.1</ele>
        <time>2021-08-12T10:24:13Z</time>
      </trkpt>
      <trkpt lat="44.15417" lon="3.57458">
        <ele>1125</ele>
        <time>2021-08-12T10:24:15Z</time>
      </trkpt>
      <trkpt lat="44.15416" lon="3.57451">
        <ele>1124.9</ele>
        <time>2021-08-12T10:24:17Z</time>
      </trkpt>
      <trkpt lat="44.15415" lon="3.57444">
        <ele>1124.8</ele>
        <time>2021-08-12T10:24:19Z</time>
      </trkpt>
      <trkpt lat="44.15414" lon="3.57437">
        <ele>1124.9</ele>
        <time>2021-08-12T10:24:21Z</time>
      </trkpt>
      <trkpt lat="44.15413" lon="3.5743">
        <ele>1124.9</ele>
        <time>2021-08-12T10:24:23Z</time>
      </trkpt>
      <trkpt lat="44.15411" lon="3.57423">
        <ele>1125</ele>
        <time>2021-08-12T10:24:25Z</time>
      </trkpt>
      <trkpt lat="44.15409" lon="3.57416">
        <ele>1125.3</ele>
        <time>2021-08-12T10:24:27Z</time>
      </trkpt>
      <trkpt lat="44.15406" lon="3.57409">
        <ele>1126.3</ele>
        <time>2021-08-12T10:24:29Z</time>
      </trkpt>
      <trkpt lat="44.15403" lon="3.57404">
        <ele>1127.3</ele>
        <time>2021-08-12T10:24:31Z</time>
      </trkpt>
      <trkpt lat="44.15399" lon="3.574">
        <ele>1128.3</ele>
        <time>2021-08-12T10:24:33Z</time>
      </trkpt>
      <trkpt lat="44.15394" lon="3.57395">
        <ele>1129.2</ele>
        <time>2021-08-12T10:24:35Z</time>
      </trkpt>
      <trkpt lat="44.1539" lon="3.57391">
        <ele>1130.2</ele>
        <time>2021-08-12T10:24:37Z</time>
      </trkpt>
      <trkpt lat="44.15385" lon="3.57388">
        <ele>1131</ele>
        <time>2021-08-12T10:24:39Z</time>
      </trkpt>
      <trkpt lat="44.15381" lon="3.57384">
        <ele>1131.9</ele>
        <time>2021-08-12T10:24:41Z</time>
      </trkpt>
      <trkpt lat="44.15376" lon="3.57381">
        <ele>1132.7</ele>
        <time>2021-08-12T10:24:43Z</time>
      </trkpt>
      <trkpt lat="44.15372" lon="3.57378">
        <ele>1133.4</ele>
        <time>2021-08-12T10:24:45Z</time>
      </trkpt>
      <trkpt lat="44.15369" lon="3.57374">
        <ele>1134.1</ele>
        <time>2021-08-12T10:24:47Z</time>
      </trkpt>
      <trkpt lat="44.15365" lon="3.57368">
        <ele>1134.9</ele>
        <time>2021-08-12T10:24:49Z</time>
      </trkpt>
      <trkpt lat="44.15363" lon="3.57362">
        <ele>1135.6</ele>
        <time>2021-08-12T10:24:51Z</time>
      </trkpt>
      <trkpt lat="44.15362" lon="3.57355">
        <ele>1136.1</ele>
        <time>2021-08-12T10:24:53Z</time>
      </trkpt>
      <trkpt lat="44.15363" lon="3.57347">
        <ele>1136.4</ele>
        <time>2021-08-12T10:24:55Z</time>
      </trkpt>
      <trkpt lat="44.15365" lon="3.57341">
        <ele>1136.5</ele>
        <time>2021-08-12T10:24:57Z</time>
      </trkpt>
      <trkpt lat="44.15369" lon="3.57335">
        <ele>1136.5</ele>
        <time>2021-08-12T10:24:59Z</time>
      </trkpt>
      <trkpt lat="44.15374" lon="3.57332">
        <ele>1136.3</ele>
        <time>2021-08-12T10:25:01Z</time>
      </trkpt>
      <trkpt lat="44.1538" lon="3.57331">
        <ele>1135.9</ele>
        <time>2021-08-12T10:25:03Z</time>
      </trkpt>
      <trkpt lat="44.15385" lon="3.57332">
        <ele>1135.2</ele>
        <time>2021-08-12T10:25:05Z</time>
      </trkpt>
      <trkpt lat="44.15389" lon="3.57335">
        <ele>1134.5</ele>
        <time>2021-08-12T10:25:07Z</time>
      </trkpt>
      <trkpt lat="44.15393" lon="3.57338">
        <ele>1133.9</ele>
        <time>2021-08-12T10:25:09Z</time>
      </trkpt>
      <trkpt lat="44.15398" lon="3.57342">
        <ele>1133.1</ele>
        <time>2021-08-12T10:25:11Z</time>
      </trkpt>
      <trkpt lat="44.15403" lon="3.57345">
        <ele>1132.3</ele>
        <time>2021-08-12T10:25:13Z</time>
      </trkpt>
      <trkpt lat="44.15408" lon="3.5735">
        <ele>1131.4</ele>
        <time>2021-08-12T10:25:15Z</time>
      </trkpt>
      <trkpt lat="44.15413" lon="3.57354">
        <ele>1130.5</ele>
        <time>2021-08-12T10:25:17Z</time>
      </trkpt>
      <trkpt lat="44.15418" lon="3.57358">
        <ele>1129.8</ele>
        <time>2021-08-12T10:25:19Z</time>
      </trkpt>
      <trkpt lat="44.15423" lon="3.57362">
        <ele>1130</ele>
        <time>2021-08-12T10:25:21Z</time>
      </trkpt>
      <trkpt lat="44.15429" lon="3.57365">
        <ele>1130.2</ele>
        <time>2021-08-12T10:25:23Z</time>
      </trkpt>
      <trkpt lat="44.15434" lon="3.57369">
        <ele>1130.3</ele>
        <time>2021-08-12T10:25:25Z</time>
      </trkpt>
      <trkpt lat="44.15439" lon="3.57372">
        <ele>1130.5</ele>
        <time>2021-08-12T10:25:27Z</time>
      </trkpt>
      <trkpt lat="44.15445" lon="3.57373">
        <ele>1130.9</ele>
        <time>2021-08-12T10:25:29Z</time>
      </trkpt>
      <trkpt lat="44.15451" lon="3.57372">
        <ele>1131.6</ele>
        <time>2021-08-12T10:25:31Z</time>
      </trkpt>
      <trkpt lat="44.15456" lon="3.5737">
        <ele>1132.5</ele>
        <time>2021-08-12T10:25:33Z</time>
      </trkpt>
      <trkpt lat="44.15461" lon="3.57367">
        <ele>1133.3</ele>
        <time>2021-08-12T10:25:35Z</time>
      </trkpt>
      <trkpt lat="44.15466" lon="3.57364">
        <ele>1134.3</ele>
        <time>2021-08-12T10:25:37Z</time>
      </trkpt>
      <trkpt lat="44.15472" lon="3.57363">
        <ele>1135.1</ele>
        <time>2021-08-12T10:25:39Z</time>
      </trkpt>
      <trkpt lat="44.15478" lon="3.57364">
        <ele>1135.6</ele>
        <time>2021-08-12T10:25:41Z</time>
      </trkpt>
      <trkpt lat="44.15483" lon="3.5737">
        <ele>1135.1</ele>
        <time>2021-08-12T10:25:43Z</time>
      </trkpt>
      <trkpt lat="44.15486" lon="3.57378">
        <ele>1134.3</ele>
        <time>2021-08-12T10:25:45Z</time>
      </trkpt>
      <trkpt lat="44.15488" lon="3.57386">
        <ele>1133.2</ele>
        <time>2021-08-12T10:25:47Z</time>
      </trkpt>
      <trkpt lat="44.1549" lon="3.57393">
        <ele>1132.1</ele>
        <time>2021-08-12T10:25:49Z</time>
      </trkpt>
      <trkpt lat="44.15493" lon="3.57401">
        <ele>1131.1</ele>
        <time>2021-08-12T10:25:51Z</time>
      </trkpt>
      <trkpt lat="44.15495" lon="3.57408">
        <ele>1130.2</ele>
        <time>2021-08-12T10:25:53Z</time>
      </trkpt>
      <trkpt lat="44.15498" lon="3.57414">
        <ele>1129.4</ele>
        <time>2021-08-12T10:25:55Z</time>
      </trkpt>
      <trkpt lat="44.15501" lon="3.5742">
        <ele>1128.8</ele>
        <time>2021-08-12T10:25:57Z</time>
      </trkpt>
      <trkpt lat="44.15504" lon="3.57426">
        <ele>1128.5</ele>
        <time>2021-08-12T10:25:59Z</time>
      </trkpt>
      <trkpt lat="44.15506" lon="3.57432">
        <ele>1128.2</ele>
        <time>2021-08-12T10:26:01Z</time>
      </trkpt>
      <trkpt lat="44.15509" lon="3.57438">
        <ele>1127.8</ele>
        <time>2021-08-12T10:26:03Z</time>
      </trkpt>
      <trkpt lat="44.15512" lon="3.57444">
        <ele>1127.4</ele>
        <time>2021-08-12T10:26:05Z</time>
      </trkpt>
      <trkpt lat="44.15515" lon="3.57451">
        <ele>1126.9</ele>
        <time>2021-08-12T10:26:07Z</time>
      </trkpt>
      <trkpt lat="44.1552" lon="3.57456">
        <ele>1126.6</ele>
        <time>2021-08-12T10:26:09Z</time>
      </trkpt>
      <trkpt lat="44.15524" lon="3.57461">
        <ele>1126.3</ele>
        <time>2021-08-12T10:26:11Z</time>
      </trkpt>
      <trkpt lat="44.1553" lon="3.57464">
        <ele>1126.1</ele>
        <time>2021-08-12T10:26:13Z</time>
      </trkpt>
      <trkpt lat="44.15535" lon="3.57467">
        <ele>1126</ele>
        <time>2021-08-12T10:26:15Z</time>
      </trkpt>
      <trkpt lat="44.1554" lon="3.5747">
        <ele>1125.8</ele>
        <time>2021-08-12T10:26:17Z</time>
      </trkpt>
      <trkpt lat="44.15545" lon="3.57472">
        <ele>1125.7</ele>
        <time>2021-08-12T10:26:19Z</time>
      </trkpt>
      <trkpt lat="44.1555" lon="3.57473">
        <ele>1125.7</ele>
        <time>2021-08-12T10:26:21Z</time>
      </trkpt>
      <trkpt lat="44.15556" lon="3.57474">
        <ele>1125.8</ele>
        <time>2021-08-12T10:26:23Z</time>
      </trkpt>
      <trkpt lat="44.15562" lon="3.57475">
        <ele>1125.9</ele>
        <time>2021-08-12T10:26:25Z</time>
      </trkpt>
      <trkpt lat="44.15568" lon="3.57474">
        <ele>1126.4</ele>
        <time>2021-08-12T10:26:27Z</time>
      </trkpt>
      <trkpt lat="44.15573" lon="3.57472">
        <ele>1126.9</ele>
        <time>2021-08-12T10:26:29Z</time>
      </trkpt>
      <trkpt lat="44.15578" lon="3.5747">
        <ele>1127.6</ele>
        <time>2021-08-12T10:26:31Z</time>
      </trkpt>
      <trkpt lat="44.15584" lon="3.57467">
        <ele>1128.4</ele>
        <time>2021-08-12T10:26:33Z</time>
      </trkpt>
      <trkpt lat="44.15589" lon="3.57463">
        <ele>1128.7</ele>
        <time>2021-08-12T10:26:35Z</time>
      </trkpt>
      <trkpt lat="44.15593" lon="3.57459">
        <ele>1129.2</ele>
        <time>2021-08-12T10:26:37Z</time>
      </trkpt>
      <trkpt lat="44.15598" lon="3.57454">
        <ele>1129.8</ele>
        <time>2021-08-12T10:26:39Z</time>
      </trkpt>
      <trkpt lat="44.15601" lon="3.57448">
        <ele>1130.8</ele>
        <time>2021-08-12T10:26:41Z</time>
      </trkpt>
      <trkpt lat="44.15604" lon="3.57442">
        <ele>1131.8</ele>
        <time>2021-08-12T10:26:43Z</time>
      </trkpt>
      <trkpt lat="44.15607" lon="3.57436">
        <ele>1132.7</ele>
        <time>2021-08-12T10:26:45Z</time>
      </trkpt>
      <trkpt lat="44.1561" lon="3.5743">
        <ele>1133.7</ele>
        <time>2021-08-12T10:26:47Z</time>
      </trkpt>
      <trkpt lat="44.15614" lon="3.57425">
        <ele>1134.4</ele>
        <time>2021-08-12T10:26:49Z</time>
      </trkpt>
      <trkpt lat="44.15618" lon="3.5742">
        <ele>1135</ele>
        <time>2021-08-12T10:26:51Z</time>
      </trkpt>
      <trkpt lat="44.15624" lon="3.57417">
        <ele>1135</ele>
        <time>2021-08-12T10:26:53Z</time>
      </trkpt>
      <trkpt lat="44.15629" lon="3.57416">
        <ele>1134.6</ele>
        <time>2021-08-12T10:26:55Z</time>
      </trkpt>
      <trkpt lat="44.15635" lon="3.57415">
        <ele>1134.1</ele>
        <time>2021-08-12T10:26:57Z</time>
      </trkpt>
      <trkpt lat="44.15641" lon="3.57415">
        <ele>1133.6</ele>
        <time>2021-08-12T10:26:59Z</time>
      </trkpt>
      <trkpt lat="44.15647" lon="3.57413">
        <ele>1133.2</ele>
        <time>2021-08-12T10:27:01Z</time>
      </trkpt>
      <trkpt lat="44.15653" lon="3.57412">
        <ele>1132.9</ele>
        <time>2021-08-12T10:27:03Z</time>
      </trkpt>
      <trkpt lat="44.15659" lon="3.5741">
        <ele>1132.7</ele>
        <time>2021-08-12T10:27:05Z</time>
      </trkpt>
      <trkpt lat="44.15665" lon="3.57408">
        <ele>1132.5</ele>
        <time>2021-08-12T10:27:07Z</time>
      </trkpt>
      <trkpt lat="44.1567" lon="3.57407">
        <ele>1132.3</ele>
        <time>2021-08-12T10:27:09Z</time>
      </trkpt>
      <trkpt lat="44.15675" lon="3.57406">
        <ele>1132.1</ele>
        <time>2021-08-12T10:27:11Z</time>
      </trkpt>
      <trkpt lat="44.15681" lon="3.57404">
        <ele>1132</ele>
        <time>2021-08-12T10:27:13Z</time>
      </trkpt>
      <trkpt lat="44.15687" lon="3.57403">
        <ele>1131.9</ele>
        <time>2021-08-12T10:27:15Z</time>
      </trkpt>
      <trkpt lat="44.15692" lon="3.57401">
        <ele>1131.8</ele>
        <time>2021-08-12T10:27:17Z</time>
      </trkpt>
      <trkpt lat="44.15698" lon="3.57399">
        <ele>1131.7</ele>
        <time>2021-08-12T10:27:19Z</time>
      </trkpt>
      <trkpt lat="44.15704" lon="3.57397">
        <ele>1131.7</ele>
        <time>2021-08-12T10:27:21Z</time>
      </trkpt>
      <trkpt lat="44.15709" lon="3.57395">
        <ele>1131.7</ele>
        <time>2021-08-12T10:27:23Z</time>
      </trkpt>
      <trkpt lat="44.15714" lon="3.57392">
        <ele>1131.8</ele>
        <time>2021-08-12T10:27:25Z</time>
      </trkpt>
      <trkpt lat="44.15719" lon="3.57389">
        <ele>1132</ele>
        <time>2021-08-12T10:27:27Z</time>
      </trkpt>
      <trkpt lat="44.15724" lon="3.57386">
        <ele>1132.3</ele>
        <time>2021-08-12T10:27:29Z</time>
      </trkpt>
      <trkpt lat="44.1573" lon="3.57381">
        <ele>1132.7</ele>
        <time>2021-08-12T10:27:31Z</time>
      </trkpt>
      <trkpt lat="44.15735" lon="3.57377">
        <ele>1133.2</ele>
        <time>2021-08-12T10:27:33Z</time>
      </trkpt>
      <trkpt lat="44.1574" lon="3.57372">
        <ele>1133.7</ele>
        <time>2021-08-12T10:27:35Z</time>
      </trkpt>
      <trkpt lat="44.15745" lon="3.57368">
        <ele>1134.1</ele>
        <time>2021-08-12T10:27:37Z</time>
      </trkpt>
      <trkpt lat="44.1575" lon="3.57363">
        <ele>1134.5</ele>
        <time>2021-08-12T10:27:39Z</time>
      </trkpt>
      <trkpt lat="44.15754" lon="3.57358">
        <ele>1134.9</ele>
        <time>2021-08-12T10:27:41Z</time>
      </trkpt>
      <trkpt lat="44.15759" lon="3.57353">
        <ele>1135.2</ele>
        <time>2021-08-12T10:27:43Z</time>
      </trkpt>
      <trkpt lat="44.15762" lon="3.57347">
        <ele>1135.6</ele>
        <time>2021-08-12T10:27:45Z</time>
      </trkpt>
      <trkpt lat="44.15766" lon="3.57341">
        <ele>1136.2</ele>
        <time>2021-08-12T10:27:47Z</time>
      </trkpt>
      <trkpt lat="44.1577" lon="3.57335">
        <ele>1136.7</ele>
        <time>2021-08-12T10:27:49Z</time>
      </trkpt>
      <trkpt lat="44.15773" lon="3.57329">
        <ele>1137.1</ele>
        <time>2021-08-12T10:27:51Z</time>
      </trkpt>
      <trkpt lat="44.15776" lon="3.57322">
        <ele>1137.7</ele>
        <time>2021-08-12T10:27:53Z</time>
      </trkpt>
      <trkpt lat="44.15779" lon="3.57315">
        <ele>1138.4</ele>
        <time>2021-08-12T10:27:55Z</time>
      </trkpt>
      <trkpt lat="44.15781" lon="3.57308">
        <ele>1139.2</ele>
        <time>2021-08-12T10:27:57Z</time>
      </trkpt>
      <trkpt lat="44.15784" lon="3.57302">
        <ele>1139.9</ele>
        <time>2021-08-12T10:27:59Z</time>
      </trkpt>
      <trkpt lat="44.15786" lon="3.57295">
        <ele>1140.8</ele>
        <time>2021-08-12T10:28:01Z</time>
      </trkpt>
      <trkpt lat="44.15788" lon="3.57287">
        <ele>1141.7</ele>
        <time>2021-08-12T10:28:03Z</time>
      </trkpt>
      <trkpt lat="44.15789" lon="3.5728">
        <ele>1142.8</ele>
        <time>2021-08-12T10:28:05Z</time>
      </trkpt>
      <trkpt lat="44.15791" lon="3.57274">
        <ele>1143.8</ele>
        <time>2021-08-12T10:28:07Z</time>
      </trkpt>
      <trkpt lat="44.15792" lon="3.57268">
        <ele>1144.6</ele>
        <time>2021-08-12T10:28:09Z</time>
      </trkpt>
      <trkpt lat="44.15793" lon="3.57262">
        <ele>1145.6</ele>
        <time>2021-08-12T10:28:11Z</time>
      </trkpt>
      <trkpt lat="44.15793" lon="3.57255">
        <ele>1146.8</ele>
        <time>2021-08-12T10:28:13Z</time>
      </trkpt>
      <trkpt lat="44.15795" lon="3.57248">
        <ele>1147.7</ele>
        <time>2021-08-12T10:28:15Z</time>
      </trkpt>
      <trkpt lat="44.15796" lon="3.57241">
        <ele>1148.6</ele>
        <time>2021-08-12T10:28:17Z</time>
      </trkpt>
      <trkpt lat="44.15798" lon="3.57235">
        <ele>1149.2</ele>
        <time>2021-08-12T10:28:19Z</time>
      </trkpt>
      <trkpt lat="44.15802" lon="3.57232">
        <ele>1149</ele>
        <time>2021-08-12T10:28:21Z</time>
      </trkpt>
      <trkpt lat="44.15806" lon="3.57231">
        <ele>1148.5</ele>
        <time>2021-08-12T10:28:23Z</time>
      </trkpt>
      <trkpt lat="44.15812" lon="3.57231">
        <ele>1147.6</ele>
        <time>2021-08-12T10:28:25Z</time>
      </trkpt>
      <trkpt lat="44.15818" lon="3.57231">
        <ele>1146.6</ele>
        <time>2021-08-12T10:28:27Z</time>
      </trkpt>
      <trkpt lat="44.15823" lon="3.57231">
        <ele>1145.6</ele>
        <time>2021-08-12T10:28:29Z</time>
      </trkpt>
      <trkpt lat="44.15828" lon="3.57231">
        <ele>1144.8</ele>
        <time>2021-08-12T10:28:31Z</time>
      </trkpt>
      <trkpt lat="44.15833" lon="3.57232">
        <ele>1143.7</ele>
        <time>2021-08-12T10:28:33Z</time>
      </trkpt>
      <trkpt lat="44.15839" lon="3.57233">
        <ele>1143</ele>
        <time>2021-08-12T10:28:35Z</time>
      </trkpt>
      <trkpt lat="44.15845" lon="3.57235">
        <ele>1142.2</ele>
        <time>2021-08-12T10:28:37Z</time>
      </trkpt>
      <trkpt lat="44.1585" lon="3.57237">
        <ele>1141.5</ele>
        <time>2021-08-12T10:28:39Z</time>
      </trkpt>
      <trkpt lat="44.15855" lon="3.5724">
        <ele>1140.7</ele>
        <time>2021-08-12T10:28:41Z</time>
      </trkpt>
      <trkpt lat="44.1586" lon="3.57241">
        <ele>1140</ele>
        <time>2021-08-12T10:28:43Z</time>
      </trkpt>
      <trkpt lat="44.15865" lon="3.57244">
        <ele>1139.2</ele>
        <time>2021-08-12T10:28:45Z</time>
      </trkpt>
      <trkpt lat="44.15871" lon="3.57246">
        <ele>1138.5</ele>
        <time>2021-08-12T10:28:47Z</time>
      </trkpt>
      <trkpt lat="44.15876" lon="3.57247">
        <ele>1138</ele>
        <time>2021-08-12T10:28:49Z</time>
      </trkpt>
      <trkpt lat="44.15881" lon="3.57248">
        <ele>1137.5</ele>
        <time>2021-08-12T10:28:51Z</time>
      </trkpt>
      <trkpt lat="44.15887" lon="3.57248">
        <ele>1137.1</ele>
        <time>2021-08-12T10:28:53Z</time>
      </trkpt>
      <trkpt lat="44.15892" lon="3.57247">
        <ele>1137</ele>
        <time>2021-08-12T10:28:55Z</time>
      </trkpt>
      <trkpt lat="44.15897" lon="3.57245">
        <ele>1137</ele>
        <time>2021-08-12T10:28:57Z</time>
      </trkpt>
      <trkpt lat="44.15903" lon="3.57243">
        <ele>1136.9</ele>
        <time>2021-08-12T10:28:59Z</time>
      </trkpt>
      <trkpt lat="44.15908" lon="3.57239">
        <ele>1137.1</ele>
        <time>2021-08-12T10:29:01Z</time>
      </trkpt>
      <trkpt lat="44.15913" lon="3.57235">
        <ele>1137.4</ele>
        <time>2021-08-12T10:29:03Z</time>
      </trkpt>
      <trkpt lat="44.15919" lon="3.57231">
        <ele>1137.4</ele>
        <time>2021-08-12T10:29:05Z</time>
      </trkpt>
      <trkpt lat="44.15924" lon="3.57226">
        <ele>1137.2</ele>
        <time>2021-08-12T10:29:07Z</time>
      </trkpt>
      <trkpt lat="44.15929" lon="3.57221">
        <ele>1136.9</ele>
        <time>2021-08-12T10:29:09Z</time>
      </trkpt>
      <trkpt lat="44.15934" lon="3.57215">
        <ele>1136.9</ele>
        <time>2021-08-12T10:29:11Z</time>
      </trkpt>
      <trkpt lat="44.15937" lon="3.57209">
        <ele>1137</ele>
        <time>2021-08-12T10:29:13Z</time>
      </trkpt>
      <trkpt lat="44.15942" lon="3.57202">
        <ele>1137</ele>
        <time>2021-08-12T10:29:15Z</time>
      </trkpt>
      <trkpt lat="44.15945" lon="3.57196">
        <ele>1137.1</ele>
        <time>2021-08-12T10:29:17Z</time>
      </trkpt>
      <trkpt lat="44.15949" lon="3.57189">
        <ele>1137.3</ele>
        <time>2021-08-12T10:29:19Z</time>
      </trkpt>
      <trkpt lat="44.15952" lon="3.57181">
        <ele>1137.6</ele>
        <time>2021-08-12T10:29:21Z</time>
      </trkpt>
      <trkpt lat="44.15954" lon="3.57175">
        <ele>1137.9</ele>
        <time>2021-08-12T10:29:23Z</time>
      </trkpt>
      <trkpt lat="44.15957" lon="3.57167">
        <ele>1138.1</ele>
        <time>2021-08-12T10:29:25Z</time>
      </trkpt>
      <trkpt lat="44.1596" lon="3.5716">
        <ele>1138.5</ele>
        <time>2021-08-12T10:29:27Z</time>
      </trkpt>
      <trkpt lat="44.15962" lon="3.57153">
        <ele>1138.8</ele>
        <time>2021-08-12T10:29:29Z</time>
      </trkpt>
      <trkpt lat="44.15965" lon="3.57145">
        <ele>1139.1</ele>
        <time>2021-08-12T10:29:31Z</time>
      </trkpt>
      <trkpt lat="44.15967" lon="3.57138">
        <ele>1139.4</ele>
        <time>2021-08-12T10:29:33Z</time>
      </trkpt>
      <trkpt lat="44.15969" lon="3.5713">
        <ele>1140</ele>
        <time>2021-08-12T10:29:35Z</time>
      </trkpt>
      <trkpt lat="44.1597" lon="3.57121">
        <ele>1140.7</ele>
        <time>2021-08-12T10:29:37Z</time>
      </trkpt>
      <trkpt lat="44.15971" lon="3.57112">
        <ele>1141.7</ele>
        <time>2021-08-12T10:29:39Z</time>
      </trkpt>
      <trkpt lat="44.15971" lon="3.57104">
        <ele>1142.5</ele>
        <time>2021-08-12T10:29:41Z</time>
      </trkpt>
      <trkpt lat="44.15971" lon="3.57095">
        <ele>1143.6</ele>
        <time>2021-08-12T10:29:43Z</time>
      </trkpt>
      <trkpt lat="44.15971" lon="3.57086">
        <ele>1144.6</ele>
        <time>2021-08-12T10:29:45Z</time>
      </trkpt>
      <trkpt lat="44.15971" lon="3.57076">
        <ele>1145.1</ele>
        <time>2021-08-12T10:29:47Z</time>
      </trkpt>
      <trkpt lat="44.15971" lon="3.57067">
        <ele>1145.4</ele>
        <time>2021-08-12T10:29:49Z</time>
      </trkpt>
      <trkpt lat="44.15971" lon="3.57058">
        <ele>1145.7</ele>
        <time>2021-08-12T10:29:51Z</time>
      </trkpt>
      <trkpt lat="44.15971" lon="3.57049">
        <ele>1146</ele>
        <time>2021-08-12T10:29:53Z</time>
      </trkpt>
      <trkpt lat="44.1597" lon="3.5704">
        <ele>1146.5</ele>
        <time>2021-08-12T10:29:55Z</time>
      </trkpt>
      <trkpt lat="44.15968" lon="3.57031">
        <ele>1147.1</ele>
        <time>2021-08-12T10:29:57Z</time>
      </trkpt>
      <trkpt lat="44.15967" lon="3.57023">
        <ele>1147.8</ele>
        <time>2021-08-12T10:29:59Z</time>
      </trkpt>
      <trkpt lat="44.15965" lon="3.57015">
        <ele>1148.3</ele>
        <time>2021-08-12T10:30:01Z</time>
      </trkpt>
      <trkpt lat="44.15963" lon="3.57007">
        <ele>1149.1</ele>
        <time>2021-08-12T10:30:03Z</time>
      </trkpt>
      <trkpt lat="44.15961" lon="3.57">
        <ele>1149.8</ele>
        <time>2021-08-12T10:30:05Z</time>
      </trkpt>
      <trkpt lat="44.15959" lon="3.56992">
        <ele>1150.6</ele>
        <time>2021-08-12T10:30:07Z</time>
      </trkpt>
      <trkpt lat="44.15956" lon="3.56985">
        <ele>1151.4</ele>
        <time>2021-08-12T10:30:09Z</time>
      </trkpt>
      <trkpt lat="44.15953" lon="3.56979">
        <ele>1152.3</ele>
        <time>2021-08-12T10:30:11Z</time>
      </trkpt>
      <trkpt lat="44.15951" lon="3.56973">
        <ele>1153.1</ele>
        <time>2021-08-12T10:30:13Z</time>
      </trkpt>
      <trkpt lat="44.15949" lon="3.56965">
        <ele>1153.7</ele>
        <time>2021-08-12T10:30:15Z</time>
      </trkpt>
      <trkpt lat="44.15949" lon="3.56957">
        <ele>1153.9</ele>
        <time>2021-08-12T10:30:17Z</time>
      </trkpt>
      <trkpt lat="44.15952" lon="3.5695">
        <ele>1153.4</ele>
        <time>2021-08-12T10:30:19Z</time>
      </trkpt>
      <trkpt lat="44.15955" lon="3.56943">
        <ele>1152.7</ele>
        <time>2021-08-12T10:30:21Z</time>
      </trkpt>
      <trkpt lat="44.15958" lon="3.56937">
        <ele>1152.1</ele>
        <time>2021-08-12T10:30:23Z</time>
      </trkpt>
      <trkpt lat="44.15962" lon="3.56931">
        <ele>1151.3</ele>
        <time>2021-08-12T10:30:25Z</time>
      </trkpt>
      <trkpt lat="44.15965" lon="3.56924">
        <ele>1150.6</ele>
        <time>2021-08-12T10:30:27Z</time>
      </trkpt>
      <trkpt lat="44.15968" lon="3.56917">
        <ele>1150</ele>
        <time>2021-08-12T10:30:29Z</time>
      </trkpt>
      <trkpt lat="44.15971" lon="3.5691">
        <ele>1149.9</ele>
        <time>2021-08-12T10:30:31Z</time>
      </trkpt>
      <trkpt lat="44.15973" lon="3.56903">
        <ele>1150</ele>
        <time>2021-08-12T10:30:33Z</time>
      </trkpt>
      <trkpt lat="44.15976" lon="3.56895">
        <ele>1150</ele>
        <time>2021-08-12T10:30:35Z</time>
      </trkpt>
      <trkpt lat="44.15978" lon="3.56888">
        <ele>1150.1</ele>
        <time>2021-08-12T10:30:37Z</time>
      </trkpt>
      <trkpt lat="44.1598" lon="3.56881">
        <ele>1150.2</ele>
        <time>2021-08-12T10:30:39Z</time>
      </trkpt>
      <trkpt lat="44.15981" lon="3.56873">
        <ele>1150.4</ele>
        <time>2021-08-12T10:30:41Z</time>
      </trkpt>
      <trkpt lat="44.15983" lon="3.56865">
        <ele>1150.7</ele>
        <time>2021-08-12T10:30:43Z</time>
      </trkpt>
      <trkpt lat="44.15984" lon="3.56858">
        <ele>1150.9</ele>
        <time>2021-08-12T10:30:45Z</time>
      </trkpt>
      <trkpt lat="44.15986" lon="3.5685">
        <ele>1151</ele>
        <time>2021-08-12T10:30:47Z</time>
      </trkpt>
      <trkpt lat="44.15987" lon="3.56842">
        <ele>1151.3</ele>
        <time>2021-08-12T10:30:49Z</time>
      </trkpt>
      <trkpt lat="44.15988" lon="3.56834">
        <ele>1151.7</ele>
        <time>2021-08-12T10:30:51Z</time>
      </trkpt>
      <trkpt lat="44.15988" lon="3.56826">
        <ele>1152.3</ele>
        <time>2021-08-12T10:30:53Z</time>
      </trkpt>
      <trkpt lat="44.15989" lon="3.56818">
        <ele>1152.8</ele>
        <time>2021-08-12T10:30:55Z</time>
      </trkpt>
      <trkpt lat="44.15989" lon="3.5681">
        <ele>1153.3</ele>
        <time>2021-08-12T10:30:57Z</time>
      </trkpt>
      <trkpt lat="44.15989" lon="3.56802">
        <ele>1154</ele>
        <time>2021-08-12T10:30:59Z</time>
      </trkpt>
      <trkpt lat="44.15989" lon="3.56795">
        <ele>1154.7</ele>
        <time>2021-08-12T10:31:01Z</time>
      </trkpt>
      <trkpt lat="44.15988" lon="3.56787">
        <ele>1155.4</ele>
        <time>2021-08-12T10:31:03Z</time>
      </trkpt>
      <trkpt lat="44.15988" lon="3.5678">
        <ele>1156.2</ele>
        <time>2021-08-12T10:31:05Z</time>
      </trkpt>
      <trkpt lat="44.15987" lon="3.56773">
        <ele>1156.8</ele>
        <time>2021-08-12T10:31:07Z</time>
      </trkpt>
      <trkpt lat="44.15987" lon="3.56766">
        <ele>1157.5</ele>
        <time>2021-08-12T10:31:09Z</time>
      </trkpt>
      <trkpt lat="44.15986" lon="3.56759">
        <ele>1158.2</ele>
        <time>2021-08-12T10:31:11Z</time>
      </trkpt>
      <trkpt lat="44.15987" lon="3.56752">
        <ele>1158.6</ele>
        <time>2021-08-12T10:31:13Z</time>
      </trkpt>
      <trkpt lat="44.15988" lon="3.56747">
        <ele>1159</ele>
        <time>2021-08-12T10:31:15Z</time>
      </trkpt>
      <trkpt lat="44.15988" lon="3.56741">
        <ele>1159.9</ele>
        <time>2021-08-12T10:31:17Z</time>
      </trkpt>
      <trkpt lat="44.15992" lon="3.56735">
        <ele>1159.9</ele>
        <time>2021-08-12T10:31:19Z</time>
      </trkpt>
      <trkpt lat="44.15995" lon="3.56731">
        <ele>1159.5</ele>
        <time>2021-08-12T10:31:21Z</time>
      </trkpt>
      <trkpt lat="44.16001" lon="3.56731">
        <ele>1158</ele>
        <time>2021-08-12T10:31:23Z</time>
      </trkpt>
      <trkpt lat="44.16006" lon="3.56728">
        <ele>1157.7</ele>
        <time>2021-08-12T10:31:25Z</time>
      </trkpt>
      <trkpt lat="44.16012" lon="3.56727">
        <ele>1156.9</ele>
        <time>2021-08-12T10:31:27Z</time>
      </trkpt>
      <trkpt lat="44.16018" lon="3.56725">
        <ele>1156.3</ele>
        <time>2021-08-12T10:31:29Z</time>
      </trkpt>
      <trkpt lat="44.16023" lon="3.56722">
        <ele>1156</ele>
        <time>2021-08-12T10:31:31Z</time>
      </trkpt>
      <trkpt lat="44.16029" lon="3.56718">
        <ele>1155.7</ele>
        <time>2021-08-12T10:31:33Z</time>
      </trkpt>
      <trkpt lat="44.16034" lon="3.56712">
        <ele>1155.7</ele>
        <time>2021-08-12T10:31:35Z</time>
      </trkpt>
      <trkpt lat="44.16038" lon="3.56706">
        <ele>1155.9</ele>
        <time>2021-08-12T10:31:37Z</time>
      </trkpt>
      <trkpt lat="44.16042" lon="3.56699">
        <ele>1156.4</ele>
        <time>2021-08-12T10:31:39Z</time>
      </trkpt>
      <trkpt lat="44.16045" lon="3.56692">
        <ele>1156.7</ele>
        <time>2021-08-12T10:31:41Z</time>
      </trkpt>
      <trkpt lat="44.16049" lon="3.56685">
        <ele>1157.1</ele>
        <time>2021-08-12T10:31:43Z</time>
      </trkpt>
      <trkpt lat="44.16053" lon="3.56677">
        <ele>1157.4</ele>
        <time>2021-08-12T10:31:45Z</time>
      </trkpt>
      <trkpt lat="44.16056" lon="3.5667">
        <ele>1157.7</ele>
        <time>2021-08-12T10:31:47Z</time>
      </trkpt>
      <trkpt lat="44.1606" lon="3.56663">
        <ele>1158</ele>
        <time>2021-08-12T10:31:49Z</time>
      </trkpt>
      <trkpt lat="44.16064" lon="3.56655">
        <ele>1158.3</ele>
        <time>2021-08-12T10:31:51Z</time>
      </trkpt>
      <trkpt lat="44.16068" lon="3.56648">
        <ele>1158.5</ele>
        <time>2021-08-12T10:31:53Z</time>
      </trkpt>
      <trkpt lat="44.16072" lon="3.56642">
        <ele>1158.6</ele>
        <time>2021-08-12T10:31:55Z</time>
      </trkpt>
      <trkpt lat="44.16075" lon="3.56635">
        <ele>1158.9</ele>
        <time>2021-08-12T10:31:57Z</time>
      </trkpt>
      <trkpt lat="44.16079" lon="3.56628">
        <ele>1159.1</ele>
        <time>2021-08-12T10:31:59Z</time>
      </trkpt>
      <trkpt lat="44.16083" lon="3.56622">
        <ele>1159.1</ele>
        <time>2021-08-12T10:32:01Z</time>
      </trkpt>
      <trkpt lat="44.16086" lon="3.56615">
        <ele>1159.4</ele>
        <time>2021-08-12T10:32:03Z</time>
      </trkpt>
      <trkpt lat="44.16089" lon="3.56609">
        <ele>1159.8</ele>
        <time>2021-08-12T10:32:05Z</time>
      </trkpt>
      <trkpt lat="44.16093" lon="3.56602">
        <ele>1160.1</ele>
        <time>2021-08-12T10:32:07Z</time>
      </trkpt>
      <trkpt lat="44.16096" lon="3.56595">
        <ele>1160.5</ele>
        <time>2021-08-12T10:32:09Z</time>
      </trkpt>
      <trkpt lat="44.161" lon="3.56589">
        <ele>1160.7</ele>
        <time>2021-08-12T10:32:11Z</time>
      </trkpt>
      <trkpt lat="44.16104" lon="3.56582">
        <ele>1161</ele>
        <time>2021-08-12T10:32:13Z</time>
      </trkpt>
      <trkpt lat="44.16107" lon="3.56575">
        <ele>1161.2</ele>
        <time>2021-08-12T10:32:15Z</time>
      </trkpt>
      <trkpt lat="44.16111" lon="3.56568">
        <ele>1161.3</ele>
        <time>2021-08-12T10:32:17Z</time>
      </trkpt>
      <trkpt lat="44.16115" lon="3.56561">
        <ele>1161.6</ele>
        <time>2021-08-12T10:32:19Z</time>
      </trkpt>
      <trkpt lat="44.16118" lon="3.56554">
        <ele>1161.7</ele>
        <time>2021-08-12T10:32:21Z</time>
      </trkpt>
      <trkpt lat="44.16122" lon="3.56548">
        <ele>1161.8</ele>
        <time>2021-08-12T10:32:23Z</time>
      </trkpt>
      <trkpt lat="44.16125" lon="3.56541">
        <ele>1162</ele>
        <time>2021-08-12T10:32:25Z</time>
      </trkpt>
      <trkpt lat="44.16129" lon="3.56534">
        <ele>1162.2</ele>
        <time>2021-08-12T10:32:27Z</time>
      </trkpt>
      <trkpt lat="44.16132" lon="3.56528">
        <ele>1162.2</ele>
        <time>2021-08-12T10:32:29Z</time>
      </trkpt>
      <trkpt lat="44.16136" lon="3.56522">
        <ele>1162.3</ele>
        <time>2021-08-12T10:32:31Z</time>
      </trkpt>
      <trkpt lat="44.16139" lon="3.56515">
        <ele>1162.3</ele>
        <time>2021-08-12T10:32:33Z</time>
      </trkpt>
      <trkpt lat="44.16142" lon="3.5651">
        <ele>1162.4</ele>
        <time>2021-08-12T10:32:35Z</time>
      </trkpt>
      <trkpt lat="44.16146" lon="3.56505">
        <ele>1162.2</ele>
        <time>2021-08-12T10:32:37Z</time>
      </trkpt>
      <trkpt lat="44.1615" lon="3.565">
        <ele>1161.9</ele>
        <time>2021-08-12T10:32:39Z</time>
      </trkpt>
      <trkpt lat="44.16155" lon="3.56496">
        <ele>1161.6</ele>
        <time>2021-08-12T10:32:41Z</time>
      </trkpt>
      <trkpt lat="44.1616" lon="3.56493">
        <ele>1161.2</ele>
        <time>2021-08-12T10:32:43Z</time>
      </trkpt>
      <trkpt lat="44.16165" lon="3.56489">
        <ele>1160.8</ele>
        <time>2021-08-12T10:32:45Z</time>
      </trkpt>
      <trkpt lat="44.1617" lon="3.56486">
        <ele>1160.9</ele>
        <time>2021-08-12T10:32:47Z</time>
      </trkpt>
      <trkpt lat="44.16176" lon="3.56483">
        <ele>1161.3</ele>
        <time>2021-08-12T10:32:49Z</time>
      </trkpt>
      <trkpt lat="44.16181" lon="3.5648">
        <ele>1161.6</ele>
        <time>2021-08-12T10:32:51Z</time>
      </trkpt>
      <trkpt lat="44.16187" lon="3.56477">
        <ele>1161.8</ele>
        <time>2021-08-12T10:32:53Z</time>
      </trkpt>
      <trkpt lat="44.16192" lon="3.56474">
        <ele>1162.1</ele>
        <time>2021-08-12T10:32:55Z</time>
      </trkpt>
      <trkpt lat="44.16198" lon="3.56471">
        <ele>1162.4</ele>
        <time>2021-08-12T10:32:57Z</time>
      </trkpt>
      <trkpt lat="44.16203" lon="3.56467">
        <ele>1162.8</ele>
        <time>2021-08-12T10:32:59Z</time>
      </trkpt>
      <trkpt lat="44.16208" lon="3.56462">
        <ele>1163.3</ele>
        <time>2021-08-12T10:33:01Z</time>
      </trkpt>
      <trkpt lat="44.16212" lon="3.56457">
        <ele>1163.8</ele>
        <time>2021-08-12T10:33:03Z</time>
      </trkpt>
      <trkpt lat="44.16216" lon="3.56452">
        <ele>1164.3</ele>
        <time>2021-08-12T10:33:05Z</time>
      </trkpt>
      <trkpt lat="44.1622" lon="3.56446">
        <ele>1164.9</ele>
        <time>2021-08-12T10:33:07Z</time>
      </trkpt>
      <trkpt lat="44.16224" lon="3.56441">
        <ele>1165.3</ele>
        <time>2021-08-12T10:33:09Z</time>
      </trkpt>
      <trkpt lat="44.16228" lon="3.56435">
        <ele>1165.9</ele>
        <time>2021-08-12T10:33:11Z</time>
      </trkpt>
      <trkpt lat="44.16231" lon="3.56429">
        <ele>1166.5</ele>
        <time>2021-08-12T10:33:13Z</time>
      </trkpt>
      <trkpt lat="44.16234" lon="3.56422">
        <ele>1167.2</ele>
        <time>2021-08-12T10:33:15Z</time>
      </trkpt>
      <trkpt lat="44.16237" lon="3.56415">
        <ele>1167.7</ele>
        <time>2021-08-12T10:33:17Z</time>
      </trkpt>
      <trkpt lat="44.16238" lon="3.56407">
        <ele>1167.7</ele>
        <time>2021-08-12T10:33:19Z</time>
      </trkpt>
      <trkpt lat="44.16239" lon="3.56398">
        <ele>1167.7</ele>
        <time>2021-08-12T10:33:21Z</time>
      </trkpt>
      <trkpt lat="44.16238" lon="3.56389">
        <ele>1167.8</ele>
        <time>2021-08-12T10:33:23Z</time>
      </trkpt>
      <trkpt lat="44.16238" lon="3.56381">
        <ele>1168</ele>
        <time>2021-08-12T10:33:25Z</time>
      </trkpt>
      <trkpt lat="44.16237" lon="3.56373">
        <ele>1168.1</ele>
        <time>2021-08-12T10:33:27Z</time>
      </trkpt>
      <trkpt lat="44.16236" lon="3.56366">
        <ele>1168.3</ele>
        <time>2021-08-12T10:33:29Z</time>
      </trkpt>
      <trkpt lat="44.16235" lon="3.56358">
        <ele>1168.4</ele>
        <time>2021-08-12T10:33:31Z</time>
      </trkpt>
      <trkpt lat="44.16234" lon="3.56349">
        <ele>1168.7</ele>
        <time>2021-08-12T10:33:33Z</time>
      </trkpt>
      <trkpt lat="44.16234" lon="3.56341">
        <ele>1168.8</ele>
        <time>2021-08-12T10:33:35Z</time>
      </trkpt>
      <trkpt lat="44.16233" lon="3.56333">
        <ele>1169</ele>
        <time>2021-08-12T10:33:37Z</time>
      </trkpt>
      <trkpt lat="44.16233" lon="3.56325">
        <ele>1169</ele>
        <time>2021-08-12T10:33:39Z</time>
      </trkpt>
      <trkpt lat="44.16232" lon="3.56317">
        <ele>1169</ele>
        <time>2021-08-12T10:33:41Z</time>
      </trkpt>
      <trkpt lat="44.16231" lon="3.56309">
        <ele>1169</ele>
        <time>2021-08-12T10:33:43Z</time>
      </trkpt>
      <trkpt lat="44.16231" lon="3.56301">
        <ele>1169</ele>
        <time>2021-08-12T10:33:45Z</time>
      </trkpt>
      <trkpt lat="44.1623" lon="3.56293">
        <ele>1169.1</ele>
        <time>2021-08-12T10:33:47Z</time>
      </trkpt>
      <trkpt lat="44.16229" lon="3.56285">
        <ele>1169.1</ele>
        <time>2021-08-12T10:33:49Z</time>
      </trkpt>
      <trkpt lat="44.16228" lon="3.56277">
        <ele>1169.2</ele>
        <time>2021-08-12T10:33:51Z</time>
      </trkpt>
      <trkpt lat="44.16227" lon="3.56269">
        <ele>1169.3</ele>
        <time>2021-08-12T10:33:53Z</time>
      </trkpt>
      <trkpt lat="44.16225" lon="3.56261">
        <ele>1169.4</ele>
        <time>2021-08-12T10:33:55Z</time>
      </trkpt>
      <trkpt lat="44.16223" lon="3.56253">
        <ele>1169.5</ele>
        <time>2021-08-12T10:33:57Z</time>
      </trkpt>
      <trkpt lat="44.16222" lon="3.56245">
        <ele>1169.5</ele>
        <time>2021-08-12T10:33:59Z</time>
      </trkpt>
      <trkpt lat="44.1622" lon="3.56237">
        <ele>1169.5</ele>
        <time>2021-08-12T10:34:01Z</time>
      </trkpt>
      <trkpt lat="44.16218" lon="3.56228">
        <ele>1169.5</ele>
        <time>2021-08-12T10:34:03Z</time>
      </trkpt>
      <trkpt lat="44.16215" lon="3.56219">
        <ele>1169.6</ele>
        <time>2021-08-12T10:34:05Z</time>
      </trkpt>
      <trkpt lat="44.16213" lon="3.56211">
        <ele>1169.7</ele>
        <time>2021-08-12T10:34:07Z</time>
      </trkpt>
      <trkpt lat="44.1621" lon="3.56202">
        <ele>1169.9</ele>
        <time>2021-08-12T10:34:09Z</time>
      </trkpt>
      <trkpt lat="44.16206" lon="3.56195">
        <ele>1170.1</ele>
        <time>2021-08-12T10:34:11Z</time>
      </trkpt>
      <trkpt lat="44.16203" lon="3.56186">
        <ele>1170.4</ele>
        <time>2021-08-12T10:34:13Z</time>
      </trkpt>
      <trkpt lat="44.162" lon="3.56178">
        <ele>1170.7</ele>
        <time>2021-08-12T10:34:15Z</time>
      </trkpt>
      <trkpt lat="44.16197" lon="3.5617">
        <ele>1170.9</ele>
        <time>2021-08-12T10:34:17Z</time>
      </trkpt>
      <trkpt lat="44.16195" lon="3.56161">
        <ele>1171.2</ele>
        <time>2021-08-12T10:34:19Z</time>
      </trkpt>
      <trkpt lat="44.16193" lon="3.56152">
        <ele>1171.5</ele>
        <time>2021-08-12T10:34:21Z</time>
      </trkpt>
      <trkpt lat="44.16192" lon="3.56143">
        <ele>1171.8</ele>
        <time>2021-08-12T10:34:23Z</time>
      </trkpt>
      <trkpt lat="44.16192" lon="3.56135">
        <ele>1171.7</ele>
        <time>2021-08-12T10:34:25Z</time>
      </trkpt>
      <trkpt lat="44.16192" lon="3.56126">
        <ele>1171.7</ele>
        <time>2021-08-12T10:34:27Z</time>
      </trkpt>
      <trkpt lat="44.16193" lon="3.56118">
        <ele>1171.7</ele>
        <time>2021-08-12T10:34:29Z</time>
      </trkpt>
      <trkpt lat="44.16192" lon="3.5611">
        <ele>1171.8</ele>
        <time>2021-08-12T10:34:31Z</time>
      </trkpt>
      <trkpt lat="44.16192" lon="3.56103">
        <ele>1171.8</ele>
        <time>2021-08-12T10:34:33Z</time>
      </trkpt>
      <trkpt lat="44.16192" lon="3.56096">
        <ele>1171.7</ele>
        <time>2021-08-12T10:34:35Z</time>
      </trkpt>
      <trkpt lat="44.16192" lon="3.56088">
        <ele>1171.8</ele>
        <time>2021-08-12T10:34:37Z</time>
      </trkpt>
      <trkpt lat="44.16191" lon="3.5608">
        <ele>1171.9</ele>
        <time>2021-08-12T10:34:39Z</time>
      </trkpt>
      <trkpt lat="44.16191" lon="3.56072">
        <ele>1171.9</ele>
        <time>2021-08-12T10:34:41Z</time>
      </trkpt>
      <trkpt lat="44.1619" lon="3.56064">
        <ele>1171.9</ele>
        <time>2021-08-12T10:34:43Z</time>
      </trkpt>
      <trkpt lat="44.16188" lon="3.56056">
        <ele>1172.1</ele>
        <time>2021-08-12T10:34:45Z</time>
      </trkpt>
      <trkpt lat="44.16187" lon="3.56049">
        <ele>1172.2</ele>
        <time>2021-08-12T10:34:47Z</time>
      </trkpt>
      <trkpt lat="44.16185" lon="3.56041">
        <ele>1172.4</ele>
        <time>2021-08-12T10:34:49Z</time>
      </trkpt>
      <trkpt lat="44.16184" lon="3.56033">
        <ele>1172.5</ele>
        <time>2021-08-12T10:34:51Z</time>
      </trkpt>
      <trkpt lat="44.16182" lon="3.56025">
        <ele>1172.8</ele>
        <time>2021-08-12T10:34:53Z</time>
      </trkpt>
      <trkpt lat="44.1618" lon="3.56017">
        <ele>1172.9</ele>
        <time>2021-08-12T10:34:55Z</time>
      </trkpt>
      <trkpt lat="44.16178" lon="3.56009">
        <ele>1173.1</ele>
        <time>2021-08-12T10:34:57Z</time>
      </trkpt>
      <trkpt lat="44.16177" lon="3.56">
        <ele>1173.2</ele>
        <time>2021-08-12T10:34:59Z</time>
      </trkpt>
      <trkpt lat="44.16175" lon="3.55992">
        <ele>1173.6</ele>
        <time>2021-08-12T10:35:01Z</time>
      </trkpt>
      <trkpt lat="44.16171" lon="3.55985">
        <ele>1174.3</ele>
        <time>2021-08-12T10:35:03Z</time>
      </trkpt>
      <trkpt lat="44.16169" lon="3.55978">
        <ele>1174.8</ele>
        <time>2021-08-12T10:35:05Z</time>
      </trkpt>
      <trkpt lat="44.16166" lon="3.55971">
        <ele>1175.6</ele>
        <time>2021-08-12T10:35:07Z</time>
      </trkpt>
      <trkpt lat="44.16162" lon="3.55965">
        <ele>1177.2</ele>
        <time>2021-08-12T10:35:09Z</time>
      </trkpt>
      <trkpt lat="44.16159" lon="3.55959">
        <ele>1178.6</ele>
        <time>2021-08-12T10:35:11Z</time>
      </trkpt>
      <trkpt lat="44.16155" lon="3.55954">
        <ele>1180.2</ele>
        <time>2021-08-12T10:35:13Z</time>
      </trkpt>
      <trkpt lat="44.16152" lon="3.5595">
        <ele>1181.2</ele>
        <time>2021-08-12T10:35:15Z</time>
      </trkpt>
      <trkpt lat="44.1615" lon="3.55947">
        <ele>1182</ele>
        <time>2021-08-12T10:35:17Z</time>
      </trkpt>
      <trkpt lat="44.16149" lon="3.55942">
        <ele>1182.7</ele>
        <time>2021-08-12T10:35:19Z</time>
      </trkpt>
      <trkpt lat="44.1615" lon="3.55937">
        <ele>1182.5</ele>
        <time>2021-08-12T10:35:21Z</time>
      </trkpt>
      <trkpt lat="44.16151" lon="3.5593">
        <ele>1182.2</ele>
        <time>2021-08-12T10:35:23Z</time>
      </trkpt>
      <trkpt lat="44.16153" lon="3.55923">
        <ele>1181.3</ele>
        <time>2021-08-12T10:35:25Z</time>
      </trkpt>
      <trkpt lat="44.16155" lon="3.55918">
        <ele>1180.7</ele>
        <time>2021-08-12T10:35:27Z</time>
      </trkpt>
      <trkpt lat="44.16157" lon="3.55911">
        <ele>1179.8</ele>
        <time>2021-08-12T10:35:29Z</time>
      </trkpt>
      <trkpt lat="44.16159" lon="3.55905">
        <ele>1178.9</ele>
        <time>2021-08-12T10:35:31Z</time>
      </trkpt>
      <trkpt lat="44.1616" lon="3.55898">
        <ele>1178.5</ele>
        <time>2021-08-12T10:35:33Z</time>
      </trkpt>
      <trkpt lat="44.1616" lon="3.55892">
        <ele>1178.3</ele>
        <time>2021-08-12T10:35:35Z</time>
      </trkpt>
      <trkpt lat="44.16159" lon="3.55886">
        <ele>1178.6</ele>
        <time>2021-08-12T10:35:37Z</time>
      </trkpt>
      <trkpt lat="44.16157" lon="3.55879">
        <ele>1179.3</ele>
        <time>2021-08-12T10:35:39Z</time>
      </trkpt>
      <trkpt lat="44.16155" lon="3.55875">
        <ele>1179.9</ele>
        <time>2021-08-12T10:35:41Z</time>
      </trkpt>
      <trkpt lat="44.16154" lon="3.5587">
        <ele>1180.3</ele>
        <time>2021-08-12T10:35:43Z</time>
      </trkpt>
      <trkpt lat="44.16152" lon="3.55865">
        <ele>1180.9</ele>
        <time>2021-08-12T10:35:45Z</time>
      </trkpt>
      <trkpt lat="44.16151" lon="3.55859">
        <ele>1181.4</ele>
        <time>2021-08-12T10:35:47Z</time>
      </trkpt>
      <trkpt lat="44.16148" lon="3.55853">
        <ele>1182.4</ele>
        <time>2021-08-12T10:35:49Z</time>
      </trkpt>
      <trkpt lat="44.16145" lon="3.55847">
        <ele>1183.4</ele>
        <time>2021-08-12T10:35:51Z</time>
      </trkpt>
      <trkpt lat="44.16142" lon="3.55841">
        <ele>1184.5</ele>
        <time>2021-08-12T10:35:53Z</time>
      </trkpt>
      <trkpt lat="44.1614" lon="3.55836">
        <ele>1185.1</ele>
        <time>2021-08-12T10:35:55Z</time>
      </trkpt>
      <trkpt lat="44.16138" lon="3.5583">
        <ele>1185.9</ele>
        <time>2021-08-12T10:35:57Z</time>
      </trkpt>
      <trkpt lat="44.16136" lon="3.55824">
        <ele>1187</ele>
        <time>2021-08-12T10:35:59Z</time>
      </trkpt>
      <trkpt lat="44.16135" lon="3.55818">
        <ele>1187.7</ele>
        <time>2021-08-12T10:36:01Z</time>
      </trkpt>
      <trkpt lat="44.16134" lon="3.5581">
        <ele>1188.4</ele>
        <time>2021-08-12T10:36:03Z</time>
      </trkpt>
      <trkpt lat="44.16135" lon="3.55804">
        <ele>1188.2</ele>
        <time>2021-08-12T10:36:05Z</time>
      </trkpt>
      <trkpt lat="44.16139" lon="3.55799">
        <ele>1187.3</ele>
        <time>2021-08-12T10:36:07Z</time>
      </trkpt>
      <trkpt lat="44.16142" lon="3.55792">
        <ele>1186.7</ele>
        <time>2021-08-12T10:36:09Z</time>
      </trkpt>
      <trkpt lat="44.16146" lon="3.55788">
        <ele>1185.5</ele>
        <time>2021-08-12T10:36:11Z</time>
      </trkpt>
      <trkpt lat="44.1615" lon="3.55784">
        <ele>1184.2</ele>
        <time>2021-08-12T10:36:13Z</time>
      </trkpt>
      <trkpt lat="44.16154" lon="3.5578">
        <ele>1183.1</ele>
        <time>2021-08-12T10:36:15Z</time>
      </trkpt>
      <trkpt lat="44.16158" lon="3.55775">
        <ele>1182.2</ele>
        <time>2021-08-12T10:36:17Z</time>
      </trkpt>
      <trkpt lat="44.16162" lon="3.55769">
        <ele>1181.3</ele>
        <time>2021-08-12T10:36:19Z</time>
      </trkpt>
      <trkpt lat="44.16166" lon="3.55763">
        <ele>1180.2</ele>
        <time>2021-08-12T10:36:21Z</time>
      </trkpt>
      <trkpt lat="44.16168" lon="3.55756">
        <ele>1180.2</ele>
        <time>2021-08-12T10:36:23Z</time>
      </trkpt>
      <trkpt lat="44.16171" lon="3.55749">
        <ele>1180.4</ele>
        <time>2021-08-12T10:36:25Z</time>
      </trkpt>
      <trkpt lat="44.16173" lon="3.55742">
        <ele>1181</ele>
        <time>2021-08-12T10:36:27Z</time>
      </trkpt>
      <trkpt lat="44.16176" lon="3.55736">
        <ele>1181.6</ele>
        <time>2021-08-12T10:36:29Z</time>
      </trkpt>
      <trkpt lat="44.16178" lon="3.5573">
        <ele>1182.2</ele>
        <time>2021-08-12T10:36:31Z</time>
      </trkpt>
      <trkpt lat="44.16181" lon="3.55724">
        <ele>1182.6</ele>
        <time>2021-08-12T10:36:33Z</time>
      </trkpt>
      <trkpt lat="44.16184" lon="3.55717">
        <ele>1183</ele>
        <time>2021-08-12T10:36:35Z</time>
      </trkpt>
      <trkpt lat="44.16187" lon="3.55712">
        <ele>1183.1</ele>
        <time>2021-08-12T10:36:37Z</time>
      </trkpt>
      <trkpt lat="44.16189" lon="3.55706">
        <ele>1183.5</ele>
        <time>2021-08-12T10:36:39Z</time>
      </trkpt>
      <trkpt lat="44.16193" lon="3.557">
        <ele>1183.6</ele>
        <time>2021-08-12T10:36:41Z</time>
      </trkpt>
      <trkpt lat="44.16197" lon="3.55695">
        <ele>1183.6</ele>
        <time>2021-08-12T10:36:43Z</time>
      </trkpt>
      <trkpt lat="44.16201" lon="3.55689">
        <ele>1183.5</ele>
        <time>2021-08-12T10:36:45Z</time>
      </trkpt>
      <trkpt lat="44.16204" lon="3.55683">
        <ele>1183.8</ele>
        <time>2021-08-12T10:36:47Z</time>
      </trkpt>
      <trkpt lat="44.16207" lon="3.55676">
        <ele>1184</ele>
        <time>2021-08-12T10:36:49Z</time>
      </trkpt>
      <trkpt lat="44.1621" lon="3.55669">
        <ele>1184.2</ele>
        <time>2021-08-12T10:36:51Z</time>
      </trkpt>
      <trkpt lat="44.16213" lon="3.55663">
        <ele>1184.2</ele>
        <time>2021-08-12T10:36:53Z</time>
      </trkpt>
      <trkpt lat="44.16216" lon="3.55656">
        <ele>1184.6</ele>
        <time>2021-08-12T10:36:55Z</time>
      </trkpt>
      <trkpt lat="44.16219" lon="3.5565">
        <ele>1184.7</ele>
        <time>2021-08-12T10:36:57Z</time>
      </trkpt>
      <trkpt lat="44.16222" lon="3.55644">
        <ele>1185</ele>
        <time>2021-08-12T10:36:59Z</time>
      </trkpt>
      <trkpt lat="44.16225" lon="3.55637">
        <ele>1185</ele>
        <time>2021-08-12T10:37:01Z</time>
      </trkpt>
      <trkpt lat="44.16227" lon="3.5563">
        <ele>1185.6</ele>
        <time>2021-08-12T10:37:03Z</time>
      </trkpt>
      <trkpt lat="44.16231" lon="3.55624">
        <ele>1185.3</ele>
        <time>2021-08-12T10:37:05Z</time>
      </trkpt>
      <trkpt lat="44.16234" lon="3.55617">
        <ele>1185.4</ele>
        <time>2021-08-12T10:37:07Z</time>
      </trkpt>
      <trkpt lat="44.16237" lon="3.5561">
        <ele>1185.4</ele>
        <time>2021-08-12T10:37:09Z</time>
      </trkpt>
      <trkpt lat="44.16241" lon="3.55604">
        <ele>1185.1</ele>
        <time>2021-08-12T10:37:11Z</time>
      </trkpt>
      <trkpt lat="44.16243" lon="3.55597">
        <ele>1185.4</ele>
        <time>2021-08-12T10:37:13Z</time>
      </trkpt>
      <trkpt lat="44.16245" lon="3.5559">
        <ele>1185.6</ele>
        <time>2021-08-12T10:37:15Z</time>
      </trkpt>
      <trkpt lat="44.16248" lon="3.55585">
        <ele>1185.5</ele>
        <time>2021-08-12T10:37:17Z</time>
      </trkpt>
      <trkpt lat="44.1625" lon="3.55578">
        <ele>1185.6</ele>
        <time>2021-08-12T10:37:19Z</time>
      </trkpt>
      <trkpt lat="44.16253" lon="3.55571">
        <ele>1185.8</ele>
        <time>2021-08-12T10:37:21Z</time>
      </trkpt>
      <trkpt lat="44.16256" lon="3.55565">
        <ele>1186.2</ele>
        <time>2021-08-12T10:37:23Z</time>
      </trkpt>
      <trkpt lat="44.16258" lon="3.55557">
        <ele>1186.5</ele>
        <time>2021-08-12T10:37:25Z</time>
      </trkpt>
      <trkpt lat="44.16261" lon="3.5555">
        <ele>1186.9</ele>
        <time>2021-08-12T10:37:27Z</time>
      </trkpt>
      <trkpt lat="44.16262" lon="3.55543">
        <ele>1187.4</ele>
        <time>2021-08-12T10:37:29Z</time>
      </trkpt>
      <trkpt lat="44.16264" lon="3.55536">
        <ele>1187.9</ele>
        <time>2021-08-12T10:37:31Z</time>
      </trkpt>
      <trkpt lat="44.16267" lon="3.5553">
        <ele>1188.1</ele>
        <time>2021-08-12T10:37:33Z</time>
      </trkpt>
      <trkpt lat="44.16268" lon="3.55522">
        <ele>1188.6</ele>
        <time>2021-08-12T10:37:35Z</time>
      </trkpt>
      <trkpt lat="44.1627" lon="3.55515">
        <ele>1189</ele>
        <time>2021-08-12T10:37:37Z</time>
      </trkpt>
      <trkpt lat="44.16272" lon="3.55509">
        <ele>1189.3</ele>
        <time>2021-08-12T10:37:39Z</time>
      </trkpt>
      <trkpt lat="44.16275" lon="3.55501">
        <ele>1189.7</ele>
        <time>2021-08-12T10:37:41Z</time>
      </trkpt>
      <trkpt lat="44.16277" lon="3.55494">
        <ele>1190</ele>
        <time>2021-08-12T10:37:43Z</time>
      </trkpt>
      <trkpt lat="44.16279" lon="3.55487">
        <ele>1190.3</ele>
        <time>2021-08-12T10:37:45Z</time>
      </trkpt>
      <trkpt lat="44.16282" lon="3.55481">
        <ele>1190.4</ele>
        <time>2021-08-12T10:37:47Z</time>
      </trkpt>
      <trkpt lat="44.16285" lon="3.55475">
        <ele>1190.2</ele>
        <time>2021-08-12T10:37:49Z</time>
      </trkpt>
      <trkpt lat="44.16289" lon="3.5547">
        <ele>1190</ele>
        <time>2021-08-12T10:37:51Z</time>
      </trkpt>
      <trkpt lat="44.16293" lon="3.55465">
        <ele>1189.6</ele>
        <time>2021-08-12T10:37:53Z</time>
      </trkpt>
      <trkpt lat="44.16296" lon="3.5546">
        <ele>1189.5</ele>
        <time>2021-08-12T10:37:55Z</time>
      </trkpt>
      <trkpt lat="44.16299" lon="3.55453">
        <ele>1189.3</ele>
        <time>2021-08-12T10:37:57Z</time>
      </trkpt>
      <trkpt lat="44.16302" lon="3.55447">
        <ele>1189.3</ele>
        <time>2021-08-12T10:37:59Z</time>
      </trkpt>
      <trkpt lat="44.16305" lon="3.55441">
        <ele>1189.2</ele>
        <time>2021-08-12T10:38:01Z</time>
      </trkpt>
      <trkpt lat="44.16308" lon="3.55435">
        <ele>1189.1</ele>
        <time>2021-08-12T10:38:03Z</time>
      </trkpt>
      <trkpt lat="44.1631" lon="3.55429">
        <ele>1189.1</ele>
        <time>2021-08-12T10:38:05Z</time>
      </trkpt>
      <trkpt lat="44.16313" lon="3.55422">
        <ele>1189.2</ele>
        <time>2021-08-12T10:38:07Z</time>
      </trkpt>
      <trkpt lat="44.16315" lon="3.55415">
        <ele>1189.3</ele>
        <time>2021-08-12T10:38:09Z</time>
      </trkpt>
      <trkpt lat="44.16318" lon="3.55408">
        <ele>1189.3</ele>
        <time>2021-08-12T10:38:11Z</time>
      </trkpt>
      <trkpt lat="44.1632" lon="3.55401">
        <ele>1189.3</ele>
        <time>2021-08-12T10:38:13Z</time>
      </trkpt>
      <trkpt lat="44.16322" lon="3.55394">
        <ele>1189.3</ele>
        <time>2021-08-12T10:38:15Z</time>
      </trkpt>
      <trkpt lat="44.16324" lon="3.55387">
        <ele>1189.5</ele>
        <time>2021-08-12T10:38:17Z</time>
      </trkpt>
      <trkpt lat="44.16326" lon="3.5538">
        <ele>1189.6</ele>
        <time>2021-08-12T10:38:19Z</time>
      </trkpt>
      <trkpt lat="44.16328" lon="3.55373">
        <ele>1189.7</ele>
        <time>2021-08-12T10:38:21Z</time>
      </trkpt>
      <trkpt lat="44.1633" lon="3.55366">
        <ele>1189.8</ele>
        <time>2021-08-12T10:38:23Z</time>
      </trkpt>
      <trkpt lat="44.16332" lon="3.55358">
        <ele>1190</ele>
        <time>2021-08-12T10:38:25Z</time>
      </trkpt>
      <trkpt lat="44.16334" lon="3.55351">
        <ele>1190.3</ele>
        <time>2021-08-12T10:38:27Z</time>
      </trkpt>
      <trkpt lat="44.16335" lon="3.55343">
        <ele>1191</ele>
        <time>2021-08-12T10:38:29Z</time>
      </trkpt>
      <trkpt lat="44.16337" lon="3.55336">
        <ele>1191.7</ele>
        <time>2021-08-12T10:38:31Z</time>
      </trkpt>
      <trkpt lat="44.16338" lon="3.55329">
        <ele>1192.3</ele>
        <time>2021-08-12T10:38:33Z</time>
      </trkpt>
      <trkpt lat="44.1634" lon="3.55322">
        <ele>1192.7</ele>
        <time>2021-08-12T10:38:35Z</time>
      </trkpt>
      <trkpt lat="44.16341" lon="3.55315">
        <ele>1193.2</ele>
        <time>2021-08-12T10:38:37Z</time>
      </trkpt>
      <trkpt lat="44.16343" lon="3.55309">
        <ele>1193.5</ele>
        <time>2021-08-12T10:38:39Z</time>
      </trkpt>
      <trkpt lat="44.16346" lon="3.55304">
        <ele>1193.7</ele>
        <time>2021-08-12T10:38:41Z</time>
      </trkpt>
      <trkpt lat="44.16349" lon="3.55298">
        <ele>1194</ele>
        <time>2021-08-12T10:38:43Z</time>
      </trkpt>
      <trkpt lat="44.16353" lon="3.55294">
        <ele>1194.1</ele>
        <time>2021-08-12T10:38:45Z</time>
      </trkpt>
      <trkpt lat="44.16356" lon="3.5529">
        <ele>1194.1</ele>
        <time>2021-08-12T10:38:47Z</time>
      </trkpt>
      <trkpt lat="44.1636" lon="3.55285">
        <ele>1194.2</ele>
        <time>2021-08-12T10:38:49Z</time>
      </trkpt>
      <trkpt lat="44.16364" lon="3.55281">
        <ele>1194.2</ele>
        <time>2021-08-12T10:38:51Z</time>
      </trkpt>
      <trkpt lat="44.16367" lon="3.55276">
        <ele>1194.2</ele>
        <time>2021-08-12T10:38:53Z</time>
      </trkpt>
      <trkpt lat="44.16371" lon="3.55271">
        <ele>1194.1</ele>
        <time>2021-08-12T10:38:55Z</time>
      </trkpt>
      <trkpt lat="44.16374" lon="3.55266">
        <ele>1194.1</ele>
        <time>2021-08-12T10:38:57Z</time>
      </trkpt>
      <trkpt lat="44.16376" lon="3.5526">
        <ele>1194.1</ele>
        <time>2021-08-12T10:38:59Z</time>
      </trkpt>
      <trkpt lat="44.16378" lon="3.55253">
        <ele>1194.1</ele>
        <time>2021-08-12T10:39:01Z</time>
      </trkpt>
      <trkpt lat="44.16379" lon="3.55246">
        <ele>1194.3</ele>
        <time>2021-08-12T10:39:03Z</time>
      </trkpt>
      <trkpt lat="44.16379" lon="3.55239">
        <ele>1194.5</ele>
        <time>2021-08-12T10:39:05Z</time>
      </trkpt>
      <trkpt lat="44.16378" lon="3.55232">
        <ele>1194.7</ele>
        <time>2021-08-12T10:39:07Z</time>
      </trkpt>
      <trkpt lat="44.16377" lon="3.55225">
        <ele>1195</ele>
        <time>2021-08-12T10:39:09Z</time>
      </trkpt>
      <trkpt lat="44.16375" lon="3.55218">
        <ele>1195.4</ele>
        <time>2021-08-12T10:39:11Z</time>
      </trkpt>
      <trkpt lat="44.16374" lon="3.55211">
        <ele>1195.8</ele>
        <time>2021-08-12T10:39:13Z</time>
      </trkpt>
      <trkpt lat="44.16372" lon="3.55204">
        <ele>1196.3</ele>
        <time>2021-08-12T10:39:15Z</time>
      </trkpt>
      <trkpt lat="44.16371" lon="3.55197">
        <ele>1196.6</ele>
        <time>2021-08-12T10:39:17Z</time>
      </trkpt>
      <trkpt lat="44.1637" lon="3.5519">
        <ele>1197</ele>
        <time>2021-08-12T10:39:19Z</time>
      </trkpt>
      <trkpt lat="44.16369" lon="3.55183">
        <ele>1197.5</ele>
        <time>2021-08-12T10:39:21Z</time>
      </trkpt>
      <trkpt lat="44.1637" lon="3.55175">
        <ele>1197.7</ele>
        <time>2021-08-12T10:39:23Z</time>
      </trkpt>
      <trkpt lat="44.1637" lon="3.55168">
        <ele>1197.9</ele>
        <time>2021-08-12T10:39:25Z</time>
      </trkpt>
      <trkpt lat="44.16372" lon="3.55161">
        <ele>1198.1</ele>
        <time>2021-08-12T10:39:27Z</time>
      </trkpt>
      <trkpt lat="44.16373" lon="3.55154">
        <ele>1198.4</ele>
        <time>2021-08-12T10:39:29Z</time>
      </trkpt>
      <trkpt lat="44.16373" lon="3.55147">
        <ele>1198.8</ele>
        <time>2021-08-12T10:39:31Z</time>
      </trkpt>
      <trkpt lat="44.16376" lon="3.5514">
        <ele>1198.9</ele>
        <time>2021-08-12T10:39:33Z</time>
      </trkpt>
      <trkpt lat="44.16378" lon="3.55134">
        <ele>1198.9</ele>
        <time>2021-08-12T10:39:35Z</time>
      </trkpt>
      <trkpt lat="44.16381" lon="3.55128">
        <ele>1198.8</ele>
        <time>2021-08-12T10:39:37Z</time>
      </trkpt>
      <trkpt lat="44.16384" lon="3.55122">
        <ele>1198.6</ele>
        <time>2021-08-12T10:39:39Z</time>
      </trkpt>
      <trkpt lat="44.16387" lon="3.55116">
        <ele>1198.4</ele>
        <time>2021-08-12T10:39:41Z</time>
      </trkpt>
      <trkpt lat="44.1639" lon="3.5511">
        <ele>1198.1</ele>
        <time>2021-08-12T10:39:43Z</time>
      </trkpt>
      <trkpt lat="44.16393" lon="3.55104">
        <ele>1197.9</ele>
        <time>2021-08-12T10:39:45Z</time>
      </trkpt>
      <trkpt lat="44.16396" lon="3.55098">
        <ele>1197.7</ele>
        <time>2021-08-12T10:39:47Z</time>
      </trkpt>
      <trkpt lat="44.16399" lon="3.55093">
        <ele>1197.4</ele>
        <time>2021-08-12T10:39:49Z</time>
      </trkpt>
      <trkpt lat="44.16402" lon="3.55087">
        <ele>1197.2</ele>
        <time>2021-08-12T10:39:51Z</time>
      </trkpt>
      <trkpt lat="44.16404" lon="3.55081">
        <ele>1197.2</ele>
        <time>2021-08-12T10:39:53Z</time>
      </trkpt>
      <trkpt lat="44.16407" lon="3.55075">
        <ele>1197.1</ele>
        <time>2021-08-12T10:39:55Z</time>
      </trkpt>
      <trkpt lat="44.1641" lon="3.55069">
        <ele>1197.3</ele>
        <time>2021-08-12T10:39:57Z</time>
      </trkpt>
      <trkpt lat="44.16411" lon="3.55063">
        <ele>1197.7</ele>
        <time>2021-08-12T10:39:59Z</time>
      </trkpt>
      <trkpt lat="44.16414" lon="3.55056">
        <ele>1197.9</ele>
        <time>2021-08-12T10:40:01Z</time>
      </trkpt>
      <trkpt lat="44.16416" lon="3.5505">
        <ele>1198.2</ele>
        <time>2021-08-12T10:40:03Z</time>
      </trkpt>
      <trkpt lat="44.16418" lon="3.55044">
        <ele>1198.7</ele>
        <time>2021-08-12T10:40:05Z</time>
      </trkpt>
      <trkpt lat="44.1642" lon="3.55038">
        <ele>1199.2</ele>
        <time>2021-08-12T10:40:07Z</time>
      </trkpt>
      <trkpt lat="44.16423" lon="3.55031">
        <ele>1199.8</ele>
        <time>2021-08-12T10:40:09Z</time>
      </trkpt>
      <trkpt lat="44.16425" lon="3.55025">
        <ele>1200.4</ele>
        <time>2021-08-12T10:40:11Z</time>
      </trkpt>
      <trkpt lat="44.16428" lon="3.55019">
        <ele>1200.9</ele>
        <time>2021-08-12T10:40:13Z</time>
      </trkpt>
      <trkpt lat="44.16431" lon="3.55014">
        <ele>1201.4</ele>
        <time>2021-08-12T10:40:15Z</time>
      </trkpt>
      <trkpt lat="44.16433" lon="3.55008">
        <ele>1201.8</ele>
        <time>2021-08-12T10:40:17Z</time>
      </trkpt>
      <trkpt lat="44.16437" lon="3.55003">
        <ele>1202.2</ele>
        <time>2021-08-12T10:40:19Z</time>
      </trkpt>
      <trkpt lat="44.16439" lon="3.54998">
        <ele>1202.4</ele>
        <time>2021-08-12T10:40:21Z</time>
      </trkpt>
      <trkpt lat="44.16442" lon="3.54995">
        <ele>1202.2</ele>
        <time>2021-08-12T10:40:23Z</time>
      </trkpt>
      <trkpt lat="44.16445" lon="3.54991">
        <ele>1202</ele>
        <time>2021-08-12T10:40:25Z</time>
      </trkpt>
      <trkpt lat="44.16448" lon="3.54987">
        <ele>1201.8</ele>
        <time>2021-08-12T10:40:27Z</time>
      </trkpt>
      <trkpt lat="44.1645" lon="3.54983">
        <ele>1201.7</ele>
        <time>2021-08-12T10:40:29Z</time>
      </trkpt>
      <trkpt lat="44.16452" lon="3.5498">
        <ele>1201.6</ele>
        <time>2021-08-12T10:40:31Z</time>
      </trkpt>
      <trkpt lat="44.16453" lon="3.54974">
        <ele>1201.5</ele>
        <time>2021-08-12T10:40:33Z</time>
      </trkpt>
      <trkpt lat="44.16454" lon="3.5497">
        <ele>1201.5</ele>
        <time>2021-08-12T10:40:35Z</time>
      </trkpt>
      <trkpt lat="44.16455" lon="3.54967">
        <ele>1201.4</ele>
        <time>2021-08-12T10:40:37Z</time>
      </trkpt>
      <trkpt lat="44.16458" lon="3.54964">
        <ele>1201.2</ele>
        <time>2021-08-12T10:40:39Z</time>
      </trkpt>
      <trkpt lat="44.16458" lon="3.54963">
        <ele>1201.2</ele>
        <time>2021-08-12T10:40:41Z</time>
      </trkpt>
      <trkpt lat="44.16458" lon="3.54963">
        <ele>1201.2</ele>
        <time>2021-08-12T10:40:43Z</time>
      </trkpt>
      <trkpt lat="44.16458" lon="3.54963">
        <ele>1201.2</ele>
        <time>2021-08-12T10:40:45Z</time>
      </trkpt>
      <trkpt lat="44.16459" lon="3.54962">
        <ele>1201.2</ele>
        <time>2021-08-12T10:40:47Z</time>
      </trkpt>
      <trkpt lat="44.16459" lon="3.54961">
        <ele>1201.2</ele>
        <time>2021-08-12T10:40:49Z</time>
      </trkpt>
      <trkpt lat="44.16458" lon="3.5496">
        <ele>1201.2</ele>
        <time>2021-08-12T10:40:55Z</time>
      </trkpt>
      <trkpt lat="44.16458" lon="3.54957">
        <ele>1201.2</ele>
        <time>2021-08-12T10:40:57Z</time>
      </trkpt>
      <trkpt lat="44.16458" lon="3.54955">
        <ele>1201.3</ele>
        <time>2021-08-12T10:40:59Z</time>
      </trkpt>
      <trkpt lat="44.16457" lon="3.54951">
        <ele>1201.4</ele>
        <time>2021-08-12T10:41:01Z</time>
      </trkpt>
      <trkpt lat="44.16456" lon="3.54948">
        <ele>1201.4</ele>
        <time>2021-08-12T10:41:03Z</time>
      </trkpt>
      <trkpt lat="44.16455" lon="3.54944">
        <ele>1201.5</ele>
        <time>2021-08-12T10:41:05Z</time>
      </trkpt>
      <trkpt lat="44.16453" lon="3.5494">
        <ele>1201.7</ele>
        <time>2021-08-12T10:41:07Z</time>
      </trkpt>
      <trkpt lat="44.1645" lon="3.54939">
        <ele>1201.9</ele>
        <time>2021-08-12T10:41:09Z</time>
      </trkpt>
      <trkpt lat="44.1645" lon="3.54936">
        <ele>1201.9</ele>
        <time>2021-08-12T10:41:11Z</time>
      </trkpt>
      <trkpt lat="44.16449" lon="3.54933">
        <ele>1202</ele>
        <time>2021-08-12T10:41:13Z</time>
      </trkpt>
      <trkpt lat="44.16449" lon="3.54932">
        <ele>1202</ele>
        <time>2021-08-12T10:41:15Z</time>
      </trkpt>
      <trkpt lat="44.16449" lon="3.54932">
        <ele>1202</ele>
        <time>2021-08-12T10:41:17Z</time>
      </trkpt>
      <trkpt lat="44.16449" lon="3.54932">
        <ele>1202</ele>
        <time>2021-08-12T10:41:19Z</time>
      </trkpt>
      <trkpt lat="44.16449" lon="3.54933">
        <ele>1202</ele>
        <time>2021-08-12T10:41:21Z</time>
      </trkpt>
      <trkpt lat="44.16449" lon="3.54932">
        <ele>1202</ele>
        <time>2021-08-12T10:41:23Z</time>
      </trkpt>
      <trkpt lat="44.16501" lon="3.54895">
        <ele>1196.9</ele>
        <time>2021-08-12T11:03:47Z</time>
      </trkpt>
      <trkpt lat="44.16502" lon="3.54893">
        <ele>1196.7</ele>
        <time>2021-08-12T11:03:49Z</time>
      </trkpt>
      <trkpt lat="44.16504" lon="3.54891">
        <ele>1196.5</ele>
        <time>2021-08-12T11:03:51Z</time>
      </trkpt>
      <trkpt lat="44.16506" lon="3.54889">
        <ele>1196.3</ele>
        <time>2021-08-12T11:03:53Z</time>
      </trkpt>
      <trkpt lat="44.16507" lon="3.54886">
        <ele>1196</ele>
        <time>2021-08-12T11:03:55Z</time>
      </trkpt>
      <trkpt lat="44.16509" lon="3.54884">
        <ele>1195.9</ele>
        <time>2021-08-12T11:03:57Z</time>
      </trkpt>
      <trkpt lat="44.16511" lon="3.54883">
        <ele>1195.8</ele>
        <time>2021-08-12T11:03:59Z</time>
      </trkpt>
      <trkpt lat="44.16513" lon="3.54882">
        <ele>1195.7</ele>
        <time>2021-08-12T11:04:01Z</time>
      </trkpt>
      <trkpt lat="44.16515" lon="3.5488">
        <ele>1195.6</ele>
        <time>2021-08-12T11:04:03Z</time>
      </trkpt>
      <trkpt lat="44.16517" lon="3.54878">
        <ele>1195.5</ele>
        <time>2021-08-12T11:04:05Z</time>
      </trkpt>
      <trkpt lat="44.16519" lon="3.54877">
        <ele>1195.4</ele>
        <time>2021-08-12T11:04:07Z</time>
      </trkpt>
      <trkpt lat="44.16521" lon="3.54876">
        <ele>1195.3</ele>
        <time>2021-08-12T11:04:09Z</time>
      </trkpt>
      <trkpt lat="44.16523" lon="3.54875">
        <ele>1195.2</ele>
        <time>2021-08-12T11:04:11Z</time>
      </trkpt>
      <trkpt lat="44.16525" lon="3.54875">
        <ele>1195.3</ele>
        <time>2021-08-12T11:04:13Z</time>
      </trkpt>
      <trkpt lat="44.16526" lon="3.54873">
        <ele>1195.2</ele>
        <time>2021-08-12T11:04:15Z</time>
      </trkpt>
      <trkpt lat="44.16528" lon="3.54871">
        <ele>1195.1</ele>
        <time>2021-08-12T11:04:17Z</time>
      </trkpt>
      <trkpt lat="44.1653" lon="3.5487">
        <ele>1195</ele>
        <time>2021-08-12T11:04:19Z</time>
      </trkpt>
      <trkpt lat="44.16532" lon="3.54868">
        <ele>1194.9</ele>
        <time>2021-08-12T11:04:21Z</time>
      </trkpt>
      <trkpt lat="44.16534" lon="3.54866">
        <ele>1194.8</ele>
        <time>2021-08-12T11:04:23Z</time>
      </trkpt>
      <trkpt lat="44.16535" lon="3.54864">
        <ele>1194.7</ele>
        <time>2021-08-12T11:04:25Z</time>
      </trkpt>
      <trkpt lat="44.16537" lon="3.54863">
        <ele>1194.7</ele>
        <time>2021-08-12T11:04:27Z</time>
      </trkpt>
      <trkpt lat="44.16539" lon="3.54863">
        <ele>1194.7</ele>
        <time>2021-08-12T11:04:29Z</time>
      </trkpt>
      <trkpt lat="44.1654" lon="3.5486">
        <ele>1194.6</ele>
        <time>2021-08-12T11:04:31Z</time>
      </trkpt>
      <trkpt lat="44.16541" lon="3.54859">
        <ele>1194.5</ele>
        <time>2021-08-12T11:04:33Z</time>
      </trkpt>
      <trkpt lat="44.16541" lon="3.54858">
        <ele>1194.4</ele>
        <time>2021-08-12T11:04:35Z</time>
      </trkpt>
      <trkpt lat="44.1654" lon="3.54859">
        <ele>1194.5</ele>
        <time>2021-08-12T11:04:37Z</time>
      </trkpt>
      <trkpt lat="44.16538" lon="3.54861">
        <ele>1194.6</ele>
        <time>2021-08-12T11:04:39Z</time>
      </trkpt>
      <trkpt lat="44.16536" lon="3.54862">
        <ele>1194.6</ele>
        <time>2021-08-12T11:04:41Z</time>
      </trkpt>
      <trkpt lat="44.16534" lon="3.54865">
        <ele>1194.7</ele>
        <time>2021-08-12T11:04:43Z</time>
      </trkpt>
      <trkpt lat="44.16533" lon="3.54866">
        <ele>1194.8</ele>
        <time>2021-08-12T11:04:45Z</time>
      </trkpt>
      <trkpt lat="44.16531" lon="3.54867">
        <ele>1194.8</ele>
        <time>2021-08-12T11:04:47Z</time>
      </trkpt>
      <trkpt lat="44.16529" lon="3.54868">
        <ele>1194.9</ele>
        <time>2021-08-12T11:04:49Z</time>
      </trkpt>
      <trkpt lat="44.16527" lon="3.54869">
        <ele>1194.9</ele>
        <time>2021-08-12T11:04:51Z</time>
      </trkpt>
      <trkpt lat="44.16525" lon="3.54871">
        <ele>1195</ele>
        <time>2021-08-12T11:04:53Z</time>
      </trkpt>
      <trkpt lat="44.16524" lon="3.54873">
        <ele>1195.2</ele>
        <time>2021-08-12T11:04:55Z</time>
      </trkpt>
      <trkpt lat="44.16522" lon="3.54876">
        <ele>1195.3</ele>
        <time>2021-08-12T11:04:57Z</time>
      </trkpt>
      <trkpt lat="44.1652" lon="3.54876">
        <ele>1195.4</ele>
        <time>2021-08-12T11:04:59Z</time>
      </trkpt>
      <trkpt lat="44.16518" lon="3.54877">
        <ele>1195.4</ele>
        <time>2021-08-12T11:05:01Z</time>
      </trkpt>
      <trkpt lat="44.16516" lon="3.54879">
        <ele>1195.5</ele>
        <time>2021-08-12T11:05:03Z</time>
      </trkpt>
      <trkpt lat="44.16514" lon="3.54881">
        <ele>1195.7</ele>
        <time>2021-08-12T11:05:05Z</time>
      </trkpt>
      <trkpt lat="44.16512" lon="3.54882">
        <ele>1195.8</ele>
        <time>2021-08-12T11:05:07Z</time>
      </trkpt>
      <trkpt lat="44.16511" lon="3.54884">
        <ele>1195.9</ele>
        <time>2021-08-12T11:05:09Z</time>
      </trkpt>
      <trkpt lat="44.16508" lon="3.54886">
        <ele>1196.1</ele>
        <time>2021-08-12T11:05:11Z</time>
      </trkpt>
      <trkpt lat="44.16506" lon="3.54887">
        <ele>1196.2</ele>
        <time>2021-08-12T11:05:13Z</time>
      </trkpt>
      <trkpt lat="44.16504" lon="3.54889">
        <ele>1196.3</ele>
        <time>2021-08-12T11:05:15Z</time>
      </trkpt>
      <trkpt lat="44.16503" lon="3.54891">
        <ele>1196.5</ele>
        <time>2021-08-12T11:05:17Z</time>
      </trkpt>
      <trkpt lat="44.16501" lon="3.54893">
        <ele>1196.8</ele>
        <time>2021-08-12T11:05:19Z</time>
      </trkpt>
      <trkpt lat="44.165" lon="3.54895">
        <ele>1196.9</ele>
        <time>2021-08-12T11:05:21Z</time>
      </trkpt>
      <trkpt lat="44.16498" lon="3.54897">
        <ele>1197.2</ele>
        <time>2021-08-12T11:05:23Z</time>
      </trkpt>
      <trkpt lat="44.16496" lon="3.54899">
        <ele>1197.4</ele>
        <time>2021-08-12T11:05:25Z</time>
      </trkpt>
      <trkpt lat="44.16495" lon="3.549">
        <ele>1197.7</ele>
        <time>2021-08-12T11:05:27Z</time>
      </trkpt>
      <trkpt lat="44.16493" lon="3.54901">
        <ele>1197.9</ele>
        <time>2021-08-12T11:05:29Z</time>
      </trkpt>
      <trkpt lat="44.16491" lon="3.54904">
        <ele>1198.2</ele>
        <time>2021-08-12T11:05:31Z</time>
      </trkpt>
      <trkpt lat="44.1649" lon="3.54906">
        <ele>1198.5</ele>
        <time>2021-08-12T11:05:33Z</time>
      </trkpt>
      <trkpt lat="44.16489" lon="3.54908">
        <ele>1198.8</ele>
        <time>2021-08-12T11:05:35Z</time>
      </trkpt>
      <trkpt lat="44.16487" lon="3.5491">
        <ele>1199.1</ele>
        <time>2021-08-12T11:05:37Z</time>
      </trkpt>
      <trkpt lat="44.16486" lon="3.54913">
        <ele>1199.4</ele>
        <time>2021-08-12T11:05:39Z</time>
      </trkpt>
      <trkpt lat="44.16484" lon="3.54915">
        <ele>1199.8</ele>
        <time>2021-08-12T11:05:41Z</time>
      </trkpt>
      <trkpt lat="44.16482" lon="3.54917">
        <ele>1200.1</ele>
        <time>2021-08-12T11:05:43Z</time>
      </trkpt>
      <trkpt lat="44.16481" lon="3.54919">
        <ele>1200.1</ele>
        <time>2021-08-12T11:05:45Z</time>
      </trkpt>
      <trkpt lat="44.16479" lon="3.54921">
        <ele>1200.2</ele>
        <time>2021-08-12T11:05:47Z</time>
      </trkpt>
      <trkpt lat="44.16478" lon="3.54923">
        <ele>1200.3</ele>
        <time>2021-08-12T11:05:49Z</time>
      </trkpt>
      <trkpt lat="44.16476" lon="3.54925">
        <ele>1200.4</ele>
        <time>2021-08-12T11:05:51Z</time>
      </trkpt>
      <trkpt lat="44.16475" lon="3.54926">
        <ele>1200.4</ele>
        <time>2021-08-12T11:05:53Z</time>
      </trkpt>
      <trkpt lat="44.16473" lon="3.5493">
        <ele>1200.5</ele>
        <time>2021-08-12T11:05:55Z</time>
      </trkpt>
      <trkpt lat="44.16472" lon="3.54931">
        <ele>1200.6</ele>
        <time>2021-08-12T11:05:57Z</time>
      </trkpt>
      <trkpt lat="44.1647" lon="3.54933">
        <ele>1200.7</ele>
        <time>2021-08-12T11:05:59Z</time>
      </trkpt>
      <trkpt lat="44.16468" lon="3.54934">
        <ele>1200.8</ele>
        <time>2021-08-12T11:06:01Z</time>
      </trkpt>
      <trkpt lat="44.16467" lon="3.54936">
        <ele>1200.9</ele>
        <time>2021-08-12T11:06:03Z</time>
      </trkpt>
      <trkpt lat="44.16465" lon="3.54938">
        <ele>1200.9</ele>
        <time>2021-08-12T11:06:05Z</time>
      </trkpt>
      <trkpt lat="44.16464" lon="3.5494">
        <ele>1201</ele>
        <time>2021-08-12T11:06:07Z</time>
      </trkpt>
      <trkpt lat="44.16463" lon="3.54942">
        <ele>1201.1</ele>
        <time>2021-08-12T11:06:09Z</time>
      </trkpt>
      <trkpt lat="44.16461" lon="3.54944">
        <ele>1201.2</ele>
        <time>2021-08-12T11:06:11Z</time>
      </trkpt>
      <trkpt lat="44.1646" lon="3.54946">
        <ele>1201.2</ele>
        <time>2021-08-12T11:06:13Z</time>
      </trkpt>
      <trkpt lat="44.16458" lon="3.54947">
        <ele>1201.3</ele>
        <time>2021-08-12T11:06:15Z</time>
      </trkpt>
      <trkpt lat="44.16456" lon="3.54947">
        <ele>1201.5</ele>
        <time>2021-08-12T11:06:17Z</time>
      </trkpt>
      <trkpt lat="44.16454" lon="3.54945">
        <ele>1201.6</ele>
        <time>2021-08-12T11:06:19Z</time>
      </trkpt>
      <trkpt lat="44.16452" lon="3.54944">
        <ele>1201.7</ele>
        <time>2021-08-12T11:06:21Z</time>
      </trkpt>
      <trkpt lat="44.16451" lon="3.54942">
        <ele>1201.8</ele>
        <time>2021-08-12T11:06:23Z</time>
      </trkpt>
      <trkpt lat="44.16451" lon="3.54941">
        <ele>1201.8</ele>
        <time>2021-08-12T11:06:25Z</time>
      </trkpt>
      <trkpt lat="44.16451" lon="3.54941">
        <ele>1201.8</ele>
        <time>2021-08-12T11:06:27Z</time>
      </trkpt>
      <trkpt lat="44.16451" lon="3.54941">
        <ele>1201.8</ele>
        <time>2021-08-12T11:06:29Z</time>
      </trkpt>
      <trkpt lat="44.16452" lon="3.54941">
        <ele>1201.8</ele>
        <time>2021-08-12T11:06:31Z</time>
      </trkpt>
      <trkpt lat="44.16431" lon="3.54931">
        <ele>1203.1</ele>
        <time>2021-08-12T11:08:11Z</time>
      </trkpt>
      <trkpt lat="44.1643" lon="3.54925">
        <ele>1203.2</ele>
        <time>2021-08-12T11:08:13Z</time>
      </trkpt>
      <trkpt lat="44.16427" lon="3.54921">
        <ele>1203.4</ele>
        <time>2021-08-12T11:08:15Z</time>
      </trkpt>
      <trkpt lat="44.16425" lon="3.54917">
        <ele>1203.5</ele>
        <time>2021-08-12T11:08:17Z</time>
      </trkpt>
      <trkpt lat="44.16424" lon="3.54912">
        <ele>1203</ele>
        <time>2021-08-12T11:08:19Z</time>
      </trkpt>
      <trkpt lat="44.16422" lon="3.54906">
        <ele>1202.2</ele>
        <time>2021-08-12T11:08:21Z</time>
      </trkpt>
      <trkpt lat="44.1642" lon="3.54902">
        <ele>1201.7</ele>
        <time>2021-08-12T11:08:23Z</time>
      </trkpt>
      <trkpt lat="44.16418" lon="3.54897">
        <ele>1201.2</ele>
        <time>2021-08-12T11:08:25Z</time>
      </trkpt>
      <trkpt lat="44.16416" lon="3.54893">
        <ele>1200.7</ele>
        <time>2021-08-12T11:08:27Z</time>
      </trkpt>
      <trkpt lat="44.16413" lon="3.54888">
        <ele>1200.3</ele>
        <time>2021-08-12T11:08:29Z</time>
      </trkpt>
      <trkpt lat="44.16411" lon="3.54884">
        <ele>1200</ele>
        <time>2021-08-12T11:08:31Z</time>
      </trkpt>
      <trkpt lat="44.16409" lon="3.5488">
        <ele>1199.7</ele>
        <time>2021-08-12T11:08:33Z</time>
      </trkpt>
      <trkpt lat="44.16407" lon="3.54876">
        <ele>1199.4</ele>
        <time>2021-08-12T11:08:35Z</time>
      </trkpt>
      <trkpt lat="44.16405" lon="3.54873">
        <ele>1199.1</ele>
        <time>2021-08-12T11:08:37Z</time>
      </trkpt>
      <trkpt lat="44.16402" lon="3.54869">
        <ele>1198.8</ele>
        <time>2021-08-12T11:08:39Z</time>
      </trkpt>
      <trkpt lat="44.16399" lon="3.54866">
        <ele>1198.7</ele>
        <time>2021-08-12T11:08:41Z</time>
      </trkpt>
      <trkpt lat="44.16396" lon="3.54863">
        <ele>1198.6</ele>
        <time>2021-08-12T11:08:43Z</time>
      </trkpt>
      <trkpt lat="44.16394" lon="3.5486">
        <ele>1198.4</ele>
        <time>2021-08-12T11:08:45Z</time>
      </trkpt>
      <trkpt lat="44.16391" lon="3.54857">
        <ele>1198.3</ele>
        <time>2021-08-12T11:08:47Z</time>
      </trkpt>
      <trkpt lat="44.16387" lon="3.54855">
        <ele>1198.3</ele>
        <time>2021-08-12T11:08:49Z</time>
      </trkpt>
      <trkpt lat="44.16384" lon="3.54853">
        <ele>1198.4</ele>
        <time>2021-08-12T11:08:51Z</time>
      </trkpt>
      <trkpt lat="44.16381" lon="3.54853">
        <ele>1198.7</ele>
        <time>2021-08-12T11:08:53Z</time>
      </trkpt>
      <trkpt lat="44.16378" lon="3.54852">
        <ele>1198.9</ele>
        <time>2021-08-12T11:08:55Z</time>
      </trkpt>
      <trkpt lat="44.16374" lon="3.54852">
        <ele>1199.1</ele>
        <time>2021-08-12T11:08:57Z</time>
      </trkpt>
      <trkpt lat="44.16371" lon="3.54851">
        <ele>1199.5</ele>
        <time>2021-08-12T11:08:59Z</time>
      </trkpt>
      <trkpt lat="44.16368" lon="3.54852">
        <ele>1199.9</ele>
        <time>2021-08-12T11:09:01Z</time>
      </trkpt>
      <trkpt lat="44.16364" lon="3.54852">
        <ele>1200.2</ele>
        <time>2021-08-12T11:09:03Z</time>
      </trkpt>
      <trkpt lat="44.16361" lon="3.54853">
        <ele>1200.9</ele>
        <time>2021-08-12T11:09:05Z</time>
      </trkpt>
      <trkpt lat="44.16358" lon="3.54854">
        <ele>1201.4</ele>
        <time>2021-08-12T11:09:07Z</time>
      </trkpt>
      <trkpt lat="44.16355" lon="3.54856">
        <ele>1202</ele>
        <time>2021-08-12T11:09:09Z</time>
      </trkpt>
      <trkpt lat="44.16351" lon="3.54857">
        <ele>1202.6</ele>
        <time>2021-08-12T11:09:11Z</time>
      </trkpt>
      <trkpt lat="44.16348" lon="3.54859">
        <ele>1203.2</ele>
        <time>2021-08-12T11:09:13Z</time>
      </trkpt>
      <trkpt lat="44.16345" lon="3.54861">
        <ele>1204</ele>
        <time>2021-08-12T11:09:15Z</time>
      </trkpt>
      <trkpt lat="44.16341" lon="3.54862">
        <ele>1204.6</ele>
        <time>2021-08-12T11:09:17Z</time>
      </trkpt>
      <trkpt lat="44.16338" lon="3.54864">
        <ele>1205.3</ele>
        <time>2021-08-12T11:09:19Z</time>
      </trkpt>
      <trkpt lat="44.16335" lon="3.54865">
        <ele>1206</ele>
        <time>2021-08-12T11:09:21Z</time>
      </trkpt>
      <trkpt lat="44.16331" lon="3.54867">
        <ele>1206.5</ele>
        <time>2021-08-12T11:09:23Z</time>
      </trkpt>
      <trkpt lat="44.16328" lon="3.54868">
        <ele>1206.9</ele>
        <time>2021-08-12T11:09:25Z</time>
      </trkpt>
      <trkpt lat="44.16325" lon="3.54869">
        <ele>1207.3</ele>
        <time>2021-08-12T11:09:27Z</time>
      </trkpt>
      <trkpt lat="44.16321" lon="3.54869">
        <ele>1207.6</ele>
        <time>2021-08-12T11:09:29Z</time>
      </trkpt>
      <trkpt lat="44.16318" lon="3.5487">
        <ele>1208</ele>
        <time>2021-08-12T11:09:31Z</time>
      </trkpt>
      <trkpt lat="44.16314" lon="3.5487">
        <ele>1208.3</ele>
        <time>2021-08-12T11:09:33Z</time>
      </trkpt>
      <trkpt lat="44.1631" lon="3.5487">
        <ele>1208.5</ele>
        <time>2021-08-12T11:09:35Z</time>
      </trkpt>
      <trkpt lat="44.16307" lon="3.5487">
        <ele>1208.6</ele>
        <time>2021-08-12T11:09:37Z</time>
      </trkpt>
      <trkpt lat="44.16303" lon="3.54869">
        <ele>1208.7</ele>
        <time>2021-08-12T11:09:39Z</time>
      </trkpt>
      <trkpt lat="44.163" lon="3.54868">
        <ele>1208.7</ele>
        <time>2021-08-12T11:09:41Z</time>
      </trkpt>
      <trkpt lat="44.16296" lon="3.54868">
        <ele>1208.8</ele>
        <time>2021-08-12T11:09:43Z</time>
      </trkpt>
      <trkpt lat="44.16293" lon="3.54866">
        <ele>1208.7</ele>
        <time>2021-08-12T11:09:45Z</time>
      </trkpt>
      <trkpt lat="44.1629" lon="3.54865">
        <ele>1208.6</ele>
        <time>2021-08-12T11:09:47Z</time>
      </trkpt>
      <trkpt lat="44.16287" lon="3.54864">
        <ele>1208.7</ele>
        <time>2021-08-12T11:09:49Z</time>
      </trkpt>
      <trkpt lat="44.16283" lon="3.54863">
        <ele>1208.5</ele>
        <time>2021-08-12T11:09:51Z</time>
      </trkpt>
      <trkpt lat="44.1628" lon="3.54862">
        <ele>1208.5</ele>
        <time>2021-08-12T11:09:53Z</time>
      </trkpt>
      <trkpt lat="44.16277" lon="3.54861">
        <ele>1208.5</ele>
        <time>2021-08-12T11:09:55Z</time>
      </trkpt>
      <trkpt lat="44.16274" lon="3.54861">
        <ele>1208.6</ele>
        <time>2021-08-12T11:09:57Z</time>
      </trkpt>
      <trkpt lat="44.1627" lon="3.5486">
        <ele>1208.7</ele>
        <time>2021-08-12T11:09:59Z</time>
      </trkpt>
      <trkpt lat="44.16267" lon="3.54861">
        <ele>1209</ele>
        <time>2021-08-12T11:10:01Z</time>
      </trkpt>
      <trkpt lat="44.16264" lon="3.54861">
        <ele>1209.2</ele>
        <time>2021-08-12T11:10:03Z</time>
      </trkpt>
      <trkpt lat="44.16261" lon="3.54862">
        <ele>1209.5</ele>
        <time>2021-08-12T11:10:05Z</time>
      </trkpt>
      <trkpt lat="44.16258" lon="3.54863">
        <ele>1210</ele>
        <time>2021-08-12T11:10:07Z</time>
      </trkpt>
      <trkpt lat="44.16255" lon="3.54864">
        <ele>1210.5</ele>
        <time>2021-08-12T11:10:09Z</time>
      </trkpt>
      <trkpt lat="44.16252" lon="3.54866">
        <ele>1211.1</ele>
        <time>2021-08-12T11:10:11Z</time>
      </trkpt>
      <trkpt lat="44.16249" lon="3.54867">
        <ele>1211.6</ele>
        <time>2021-08-12T11:10:13Z</time>
      </trkpt>
      <trkpt lat="44.16245" lon="3.54869">
        <ele>1212.2</ele>
        <time>2021-08-12T11:10:15Z</time>
      </trkpt>
      <trkpt lat="44.16242" lon="3.54871">
        <ele>1212.8</ele>
        <time>2021-08-12T11:10:17Z</time>
      </trkpt>
      <trkpt lat="44.1624" lon="3.54873">
        <ele>1213.5</ele>
        <time>2021-08-12T11:10:19Z</time>
      </trkpt>
      <trkpt lat="44.16237" lon="3.54875">
        <ele>1214.1</ele>
        <time>2021-08-12T11:10:21Z</time>
      </trkpt>
      <trkpt lat="44.16234" lon="3.54877">
        <ele>1214.6</ele>
        <time>2021-08-12T11:10:23Z</time>
      </trkpt>
      <trkpt lat="44.16231" lon="3.54879">
        <ele>1215.3</ele>
        <time>2021-08-12T11:10:25Z</time>
      </trkpt>
      <trkpt lat="44.16229" lon="3.54881">
        <ele>1215.9</ele>
        <time>2021-08-12T11:10:27Z</time>
      </trkpt>
      <trkpt lat="44.16226" lon="3.54883">
        <ele>1216.4</ele>
        <time>2021-08-12T11:10:29Z</time>
      </trkpt>
      <trkpt lat="44.16223" lon="3.54885">
        <ele>1217.2</ele>
        <time>2021-08-12T11:10:31Z</time>
      </trkpt>
      <trkpt lat="44.1622" lon="3.54888">
        <ele>1218</ele>
        <time>2021-08-12T11:10:33Z</time>
      </trkpt>
      <trkpt lat="44.16218" lon="3.5489">
        <ele>1218.6</ele>
        <time>2021-08-12T11:10:35Z</time>
      </trkpt>
      <trkpt lat="44.16215" lon="3.54892">
        <ele>1219.1</ele>
        <time>2021-08-12T11:10:37Z</time>
      </trkpt>
      <trkpt lat="44.16212" lon="3.54894">
        <ele>1219.8</ele>
        <time>2021-08-12T11:10:39Z</time>
      </trkpt>
      <trkpt lat="44.16209" lon="3.54897">
        <ele>1220.5</ele>
        <time>2021-08-12T11:10:41Z</time>
      </trkpt>
      <trkpt lat="44.16206" lon="3.549">
        <ele>1221.2</ele>
        <time>2021-08-12T11:10:43Z</time>
      </trkpt>
      <trkpt lat="44.16203" lon="3.54902">
        <ele>1221.8</ele>
        <time>2021-08-12T11:10:45Z</time>
      </trkpt>
      <trkpt lat="44.162" lon="3.54904">
        <ele>1222.4</ele>
        <time>2021-08-12T11:10:47Z</time>
      </trkpt>
      <trkpt lat="44.16197" lon="3.54906">
        <ele>1223</ele>
        <time>2021-08-12T11:10:49Z</time>
      </trkpt>
      <trkpt lat="44.16194" lon="3.54909">
        <ele>1223.6</ele>
        <time>2021-08-12T11:10:51Z</time>
      </trkpt>
      <trkpt lat="44.16191" lon="3.54911">
        <ele>1224.1</ele>
        <time>2021-08-12T11:10:53Z</time>
      </trkpt>
      <trkpt lat="44.16188" lon="3.54913">
        <ele>1224.7</ele>
        <time>2021-08-12T11:10:55Z</time>
      </trkpt>
      <trkpt lat="44.16185" lon="3.54915">
        <ele>1225.2</ele>
        <time>2021-08-12T11:10:57Z</time>
      </trkpt>
      <trkpt lat="44.16182" lon="3.54916">
        <ele>1225.6</ele>
        <time>2021-08-12T11:10:59Z</time>
      </trkpt>
      <trkpt lat="44.16179" lon="3.54918">
        <ele>1225.9</ele>
        <time>2021-08-12T11:11:01Z</time>
      </trkpt>
      <trkpt lat="44.16175" lon="3.54919">
        <ele>1226.2</ele>
        <time>2021-08-12T11:11:03Z</time>
      </trkpt>
      <trkpt lat="44.16172" lon="3.5492">
        <ele>1226.4</ele>
        <time>2021-08-12T11:11:05Z</time>
      </trkpt>
      <trkpt lat="44.16169" lon="3.5492">
        <ele>1226.6</ele>
        <time>2021-08-12T11:11:07Z</time>
      </trkpt>
      <trkpt lat="44.16166" lon="3.54921">
        <ele>1227.1</ele>
        <time>2021-08-12T11:11:09Z</time>
      </trkpt>
      <trkpt lat="44.16163" lon="3.54922">
        <ele>1227.8</ele>
        <time>2021-08-12T11:11:11Z</time>
      </trkpt>
      <trkpt lat="44.16159" lon="3.54922">
        <ele>1228.5</ele>
        <time>2021-08-12T11:11:13Z</time>
      </trkpt>
      <trkpt lat="44.16156" lon="3.54923">
        <ele>1229.4</ele>
        <time>2021-08-12T11:11:15Z</time>
      </trkpt>
      <trkpt lat="44.16153" lon="3.54924">
        <ele>1230.1</ele>
        <time>2021-08-12T11:11:17Z</time>
      </trkpt>
      <trkpt lat="44.16151" lon="3.54925">
        <ele>1230.8</ele>
        <time>2021-08-12T11:11:19Z</time>
      </trkpt>
      <trkpt lat="44.16147" lon="3.54926">
        <ele>1231.6</ele>
        <time>2021-08-12T11:11:21Z</time>
      </trkpt>
      <trkpt lat="44.16144" lon="3.54927">
        <ele>1232.4</ele>
        <time>2021-08-12T11:11:23Z</time>
      </trkpt>
      <trkpt lat="44.16141" lon="3.54928">
        <ele>1233.3</ele>
        <time>2021-08-12T11:11:25Z</time>
      </trkpt>
      <trkpt lat="44.16138" lon="3.54929">
        <ele>1234.1</ele>
        <time>2021-08-12T11:11:27Z</time>
      </trkpt>
      <trkpt lat="44.16134" lon="3.54931">
        <ele>1235</ele>
        <time>2021-08-12T11:11:29Z</time>
      </trkpt>
      <trkpt lat="44.16131" lon="3.54932">
        <ele>1235.8</ele>
        <time>2021-08-12T11:11:31Z</time>
      </trkpt>
      <trkpt lat="44.16128" lon="3.54933">
        <ele>1236.6</ele>
        <time>2021-08-12T11:11:33Z</time>
      </trkpt>
      <trkpt lat="44.16125" lon="3.54934">
        <ele>1237.3</ele>
        <time>2021-08-12T11:11:35Z</time>
      </trkpt>
      <trkpt lat="44.16122" lon="3.54934">
        <ele>1238</ele>
        <time>2021-08-12T11:11:37Z</time>
      </trkpt>
      <trkpt lat="44.16118" lon="3.54933">
        <ele>1238.5</ele>
        <time>2021-08-12T11:11:39Z</time>
      </trkpt>
      <trkpt lat="44.16114" lon="3.54933">
        <ele>1239.1</ele>
        <time>2021-08-12T11:11:41Z</time>
      </trkpt>
      <trkpt lat="44.16111" lon="3.54932">
        <ele>1239.5</ele>
        <time>2021-08-12T11:11:43Z</time>
      </trkpt>
      <trkpt lat="44.16109" lon="3.5493">
        <ele>1239.8</ele>
        <time>2021-08-12T11:11:45Z</time>
      </trkpt>
      <trkpt lat="44.16106" lon="3.54927">
        <ele>1240</ele>
        <time>2021-08-12T11:11:47Z</time>
      </trkpt>
      <trkpt lat="44.16103" lon="3.54926">
        <ele>1240.3</ele>
        <time>2021-08-12T11:11:49Z</time>
      </trkpt>
      <trkpt lat="44.161" lon="3.54923">
        <ele>1240.4</ele>
        <time>2021-08-12T11:11:51Z</time>
      </trkpt>
      <trkpt lat="44.16097" lon="3.5492">
        <ele>1240.6</ele>
        <time>2021-08-12T11:11:53Z</time>
      </trkpt>
      <trkpt lat="44.16095" lon="3.54916">
        <ele>1240.5</ele>
        <time>2021-08-12T11:11:55Z</time>
      </trkpt>
      <trkpt lat="44.16093" lon="3.54913">
        <ele>1240.6</ele>
        <time>2021-08-12T11:11:57Z</time>
      </trkpt>
      <trkpt lat="44.16092" lon="3.54908">
        <ele>1240.5</ele>
        <time>2021-08-12T11:11:59Z</time>
      </trkpt>
      <trkpt lat="44.16091" lon="3.54904">
        <ele>1240.4</ele>
        <time>2021-08-12T11:12:01Z</time>
      </trkpt>
      <trkpt lat="44.16089" lon="3.549">
        <ele>1240.5</ele>
        <time>2021-08-12T11:12:03Z</time>
      </trkpt>
      <trkpt lat="44.16088" lon="3.54896">
        <ele>1240.3</ele>
        <time>2021-08-12T11:12:05Z</time>
      </trkpt>
      <trkpt lat="44.16086" lon="3.54892">
        <ele>1240.6</ele>
        <time>2021-08-12T11:12:07Z</time>
      </trkpt>
      <trkpt lat="44.16085" lon="3.54888">
        <ele>1240.4</ele>
        <time>2021-08-12T11:12:09Z</time>
      </trkpt>
      <trkpt lat="44.16084" lon="3.54884">
        <ele>1240.5</ele>
        <time>2021-08-12T11:12:11Z</time>
      </trkpt>
      <trkpt lat="44.16083" lon="3.54879">
        <ele>1240.5</ele>
        <time>2021-08-12T11:12:13Z</time>
      </trkpt>
      <trkpt lat="44.16082" lon="3.54875">
        <ele>1240.5</ele>
        <time>2021-08-12T11:12:15Z</time>
      </trkpt>
      <trkpt lat="44.16081" lon="3.5487">
        <ele>1241</ele>
        <time>2021-08-12T11:12:17Z</time>
      </trkpt>
      <trkpt lat="44.1608" lon="3.54867">
        <ele>1241.2</ele>
        <time>2021-08-12T11:12:19Z</time>
      </trkpt>
      <trkpt lat="44.16079" lon="3.54863">
        <ele>1241.4</ele>
        <time>2021-08-12T11:12:21Z</time>
      </trkpt>
      <trkpt lat="44.16077" lon="3.5486">
        <ele>1242</ele>
        <time>2021-08-12T11:12:23Z</time>
      </trkpt>
      <trkpt lat="44.16076" lon="3.54854">
        <ele>1242.3</ele>
        <time>2021-08-12T11:12:25Z</time>
      </trkpt>
      <trkpt lat="44.16075" lon="3.5485">
        <ele>1242.3</ele>
        <time>2021-08-12T11:12:27Z</time>
      </trkpt>
      <trkpt lat="44.16074" lon="3.54845">
        <ele>1242.5</ele>
        <time>2021-08-12T11:12:29Z</time>
      </trkpt>
      <trkpt lat="44.16074" lon="3.5484">
        <ele>1242.2</ele>
        <time>2021-08-12T11:12:31Z</time>
      </trkpt>
      <trkpt lat="44.16074" lon="3.54834">
        <ele>1242</ele>
        <time>2021-08-12T11:12:33Z</time>
      </trkpt>
      <trkpt lat="44.16073" lon="3.54829">
        <ele>1242.5</ele>
        <time>2021-08-12T11:12:35Z</time>
      </trkpt>
      <trkpt lat="44.16073" lon="3.54823">
        <ele>1242.7</ele>
        <time>2021-08-12T11:12:37Z</time>
      </trkpt>
      <trkpt lat="44.16073" lon="3.54818">
        <ele>1243</ele>
        <time>2021-08-12T11:12:39Z</time>
      </trkpt>
      <trkpt lat="44.16073" lon="3.54814">
        <ele>1243.2</ele>
        <time>2021-08-12T11:12:41Z</time>
      </trkpt>
      <trkpt lat="44.16073" lon="3.54808">
        <ele>1243.6</ele>
        <time>2021-08-12T11:12:43Z</time>
      </trkpt>
      <trkpt lat="44.16073" lon="3.54803">
        <ele>1243.9</ele>
        <time>2021-08-12T11:12:45Z</time>
      </trkpt>
      <trkpt lat="44.16073" lon="3.54798">
        <ele>1244</ele>
        <time>2021-08-12T11:12:47Z</time>
      </trkpt>
      <trkpt lat="44.16074" lon="3.54794">
        <ele>1244</ele>
        <time>2021-08-12T11:12:49Z</time>
      </trkpt>
      <trkpt lat="44.16073" lon="3.54789">
        <ele>1244.2</ele>
        <time>2021-08-12T11:12:51Z</time>
      </trkpt>
      <trkpt lat="44.16073" lon="3.54784">
        <ele>1244.4</ele>
        <time>2021-08-12T11:12:53Z</time>
      </trkpt>
      <trkpt lat="44.16074" lon="3.54779">
        <ele>1244.7</ele>
        <time>2021-08-12T11:12:55Z</time>
      </trkpt>
      <trkpt lat="44.16074" lon="3.54774">
        <ele>1244.6</ele>
        <time>2021-08-12T11:12:57Z</time>
      </trkpt>
      <trkpt lat="44.16075" lon="3.54769">
        <ele>1244.6</ele>
        <time>2021-08-12T11:12:59Z</time>
      </trkpt>
      <trkpt lat="44.16075" lon="3.54765">
        <ele>1244.6</ele>
        <time>2021-08-12T11:13:01Z</time>
      </trkpt>
      <trkpt lat="44.16075" lon="3.5476">
        <ele>1244.9</ele>
        <time>2021-08-12T11:13:03Z</time>
      </trkpt>
      <trkpt lat="44.16075" lon="3.54755">
        <ele>1245.2</ele>
        <time>2021-08-12T11:13:05Z</time>
      </trkpt>
      <trkpt lat="44.16075" lon="3.5475">
        <ele>1245.2</ele>
        <time>2021-08-12T11:13:07Z</time>
      </trkpt>
      <trkpt lat="44.16075" lon="3.54745">
        <ele>1245.5</ele>
        <time>2021-08-12T11:13:09Z</time>
      </trkpt>
      <trkpt lat="44.16075" lon="3.5474">
        <ele>1245.9</ele>
        <time>2021-08-12T11:13:11Z</time>
      </trkpt>
      <trkpt lat="44.16076" lon="3.54736">
        <ele>1245.9</ele>
        <time>2021-08-12T11:13:13Z</time>
      </trkpt>
      <trkpt lat="44.16077" lon="3.5473">
        <ele>1246.1</ele>
        <time>2021-08-12T11:13:15Z</time>
      </trkpt>
      <trkpt lat="44.16077" lon="3.54725">
        <ele>1246.1</ele>
        <time>2021-08-12T11:13:17Z</time>
      </trkpt>
      <trkpt lat="44.16078" lon="3.54721">
        <ele>1246.2</ele>
        <time>2021-08-12T11:13:19Z</time>
      </trkpt>
      <trkpt lat="44.16078" lon="3.54716">
        <ele>1246.3</ele>
        <time>2021-08-12T11:13:21Z</time>
      </trkpt>
      <trkpt lat="44.16079" lon="3.54711">
        <ele>1246.4</ele>
        <time>2021-08-12T11:13:23Z</time>
      </trkpt>
      <trkpt lat="44.1608" lon="3.54707">
        <ele>1246.4</ele>
        <time>2021-08-12T11:13:25Z</time>
      </trkpt>
      <trkpt lat="44.1608" lon="3.54702">
        <ele>1246.5</ele>
        <time>2021-08-12T11:13:27Z</time>
      </trkpt>
      <trkpt lat="44.16081" lon="3.54697">
        <ele>1246.5</ele>
        <time>2021-08-12T11:13:29Z</time>
      </trkpt>
      <trkpt lat="44.16082" lon="3.54693">
        <ele>1246.6</ele>
        <time>2021-08-12T11:13:31Z</time>
      </trkpt>
      <trkpt lat="44.16083" lon="3.54688">
        <ele>1246.5</ele>
        <time>2021-08-12T11:13:33Z</time>
      </trkpt>
      <trkpt lat="44.16083" lon="3.54684">
        <ele>1246.5</ele>
        <time>2021-08-12T11:13:35Z</time>
      </trkpt>
      <trkpt lat="44.16084" lon="3.54679">
        <ele>1246.6</ele>
        <time>2021-08-12T11:13:37Z</time>
      </trkpt>
      <trkpt lat="44.16085" lon="3.54674">
        <ele>1246.6</ele>
        <time>2021-08-12T11:13:39Z</time>
      </trkpt>
      <trkpt lat="44.16086" lon="3.5467">
        <ele>1246.6</ele>
        <time>2021-08-12T11:13:41Z</time>
      </trkpt>
      <trkpt lat="44.16087" lon="3.54665">
        <ele>1246.6</ele>
        <time>2021-08-12T11:13:43Z</time>
      </trkpt>
      <trkpt lat="44.16087" lon="3.5466">
        <ele>1246.6</ele>
        <time>2021-08-12T11:13:45Z</time>
      </trkpt>
      <trkpt lat="44.16088" lon="3.54655">
        <ele>1246.6</ele>
        <time>2021-08-12T11:13:47Z</time>
      </trkpt>
      <trkpt lat="44.16089" lon="3.54651">
        <ele>1246.6</ele>
        <time>2021-08-12T11:13:49Z</time>
      </trkpt>
      <trkpt lat="44.16089" lon="3.54645">
        <ele>1246.6</ele>
        <time>2021-08-12T11:13:51Z</time>
      </trkpt>
      <trkpt lat="44.1609" lon="3.54641">
        <ele>1246.6</ele>
        <time>2021-08-12T11:13:53Z</time>
      </trkpt>
      <trkpt lat="44.16091" lon="3.54637">
        <ele>1246.4</ele>
        <time>2021-08-12T11:13:55Z</time>
      </trkpt>
      <trkpt lat="44.16092" lon="3.54632">
        <ele>1246.2</ele>
        <time>2021-08-12T11:13:57Z</time>
      </trkpt>
      <trkpt lat="44.16093" lon="3.54628">
        <ele>1246</ele>
        <time>2021-08-12T11:13:59Z</time>
      </trkpt>
      <trkpt lat="44.16093" lon="3.54622">
        <ele>1246.1</ele>
        <time>2021-08-12T11:14:01Z</time>
      </trkpt>
      <trkpt lat="44.16095" lon="3.54617">
        <ele>1245.9</ele>
        <time>2021-08-12T11:14:03Z</time>
      </trkpt>
      <trkpt lat="44.16095" lon="3.54613">
        <ele>1245.8</ele>
        <time>2021-08-12T11:14:05Z</time>
      </trkpt>
      <trkpt lat="44.16096" lon="3.54607">
        <ele>1245.8</ele>
        <time>2021-08-12T11:14:07Z</time>
      </trkpt>
      <trkpt lat="44.16097" lon="3.54603">
        <ele>1245.6</ele>
        <time>2021-08-12T11:14:09Z</time>
      </trkpt>
      <trkpt lat="44.16097" lon="3.54598">
        <ele>1245.7</ele>
        <time>2021-08-12T11:14:11Z</time>
      </trkpt>
      <trkpt lat="44.16098" lon="3.54593">
        <ele>1245.6</ele>
        <time>2021-08-12T11:14:13Z</time>
      </trkpt>
      <trkpt lat="44.16099" lon="3.54589">
        <ele>1245.6</ele>
        <time>2021-08-12T11:14:15Z</time>
      </trkpt>
      <trkpt lat="44.16099" lon="3.54584">
        <ele>1245.7</ele>
        <time>2021-08-12T11:14:17Z</time>
      </trkpt>
      <trkpt lat="44.161" lon="3.5458">
        <ele>1245</ele>
        <time>2021-08-12T11:14:19Z</time>
      </trkpt>
      <trkpt lat="44.161" lon="3.54575">
        <ele>1244.4</ele>
        <time>2021-08-12T11:14:21Z</time>
      </trkpt>
      <trkpt lat="44.161" lon="3.54571">
        <ele>1244</ele>
        <time>2021-08-12T11:14:23Z</time>
      </trkpt>
      <trkpt lat="44.161" lon="3.54566">
        <ele>1243.4</ele>
        <time>2021-08-12T11:14:25Z</time>
      </trkpt>
      <trkpt lat="44.161" lon="3.54561">
        <ele>1242.8</ele>
        <time>2021-08-12T11:14:27Z</time>
      </trkpt>
      <trkpt lat="44.161" lon="3.54556">
        <ele>1242.5</ele>
        <time>2021-08-12T11:14:29Z</time>
      </trkpt>
      <trkpt lat="44.16099" lon="3.54552">
        <ele>1242.7</ele>
        <time>2021-08-12T11:14:31Z</time>
      </trkpt>
      <trkpt lat="44.16098" lon="3.54547">
        <ele>1242.7</ele>
        <time>2021-08-12T11:14:33Z</time>
      </trkpt>
      <trkpt lat="44.16097" lon="3.54542">
        <ele>1242.5</ele>
        <time>2021-08-12T11:14:35Z</time>
      </trkpt>
      <trkpt lat="44.16096" lon="3.54538">
        <ele>1242.6</ele>
        <time>2021-08-12T11:14:37Z</time>
      </trkpt>
      <trkpt lat="44.16094" lon="3.54533">
        <ele>1242.8</ele>
        <time>2021-08-12T11:14:39Z</time>
      </trkpt>
      <trkpt lat="44.16093" lon="3.54529">
        <ele>1243.1</ele>
        <time>2021-08-12T11:14:41Z</time>
      </trkpt>
      <trkpt lat="44.16091" lon="3.54525">
        <ele>1243.6</ele>
        <time>2021-08-12T11:14:43Z</time>
      </trkpt>
      <trkpt lat="44.16088" lon="3.54521">
        <ele>1244.2</ele>
        <time>2021-08-12T11:14:45Z</time>
      </trkpt>
      <trkpt lat="44.16086" lon="3.54518">
        <ele>1245</ele>
        <time>2021-08-12T11:14:47Z</time>
      </trkpt>
      <trkpt lat="44.16084" lon="3.54514">
        <ele>1245.6</ele>
        <time>2021-08-12T11:14:49Z</time>
      </trkpt>
      <trkpt lat="44.16082" lon="3.5451">
        <ele>1245.6</ele>
        <time>2021-08-12T11:14:51Z</time>
      </trkpt>
      <trkpt lat="44.16079" lon="3.54508">
        <ele>1245.9</ele>
        <time>2021-08-12T11:14:53Z</time>
      </trkpt>
      <trkpt lat="44.16076" lon="3.54505">
        <ele>1246.2</ele>
        <time>2021-08-12T11:14:55Z</time>
      </trkpt>
      <trkpt lat="44.16074" lon="3.54502">
        <ele>1246.3</ele>
        <time>2021-08-12T11:14:57Z</time>
      </trkpt>
      <trkpt lat="44.16071" lon="3.54499">
        <ele>1246.3</ele>
        <time>2021-08-12T11:14:59Z</time>
      </trkpt>
      <trkpt lat="44.16067" lon="3.54496">
        <ele>1246.2</ele>
        <time>2021-08-12T11:15:01Z</time>
      </trkpt>
      <trkpt lat="44.16064" lon="3.54494">
        <ele>1246.2</ele>
        <time>2021-08-12T11:15:03Z</time>
      </trkpt>
      <trkpt lat="44.16061" lon="3.54493">
        <ele>1246.3</ele>
        <time>2021-08-12T11:15:05Z</time>
      </trkpt>
      <trkpt lat="44.16058" lon="3.54491">
        <ele>1246.5</ele>
        <time>2021-08-12T11:15:07Z</time>
      </trkpt>
      <trkpt lat="44.16055" lon="3.54489">
        <ele>1246.6</ele>
        <time>2021-08-12T11:15:09Z</time>
      </trkpt>
      <trkpt lat="44.16052" lon="3.54488">
        <ele>1246.8</ele>
        <time>2021-08-12T11:15:11Z</time>
      </trkpt>
      <trkpt lat="44.16048" lon="3.54486">
        <ele>1246.9</ele>
        <time>2021-08-12T11:15:13Z</time>
      </trkpt>
      <trkpt lat="44.16045" lon="3.54485">
        <ele>1247.1</ele>
        <time>2021-08-12T11:15:15Z</time>
      </trkpt>
      <trkpt lat="44.16042" lon="3.54484">
        <ele>1247.6</ele>
        <time>2021-08-12T11:15:17Z</time>
      </trkpt>
      <trkpt lat="44.16039" lon="3.54483">
        <ele>1247.9</ele>
        <time>2021-08-12T11:15:19Z</time>
      </trkpt>
      <trkpt lat="44.16035" lon="3.54482">
        <ele>1248.4</ele>
        <time>2021-08-12T11:15:21Z</time>
      </trkpt>
      <trkpt lat="44.16031" lon="3.54482">
        <ele>1249.1</ele>
        <time>2021-08-12T11:15:23Z</time>
      </trkpt>
      <trkpt lat="44.16028" lon="3.54482">
        <ele>1249.6</ele>
        <time>2021-08-12T11:15:25Z</time>
      </trkpt>
      <trkpt lat="44.16024" lon="3.54481">
        <ele>1250.2</ele>
        <time>2021-08-12T11:15:27Z</time>
      </trkpt>
      <trkpt lat="44.16021" lon="3.54482">
        <ele>1251.2</ele>
        <time>2021-08-12T11:15:29Z</time>
      </trkpt>
      <trkpt lat="44.16017" lon="3.54483">
        <ele>1252.1</ele>
        <time>2021-08-12T11:15:31Z</time>
      </trkpt>
      <trkpt lat="44.16013" lon="3.54483">
        <ele>1252.9</ele>
        <time>2021-08-12T11:15:33Z</time>
      </trkpt>
      <trkpt lat="44.1601" lon="3.54483">
        <ele>1253.5</ele>
        <time>2021-08-12T11:15:35Z</time>
      </trkpt>
      <trkpt lat="44.16007" lon="3.54483">
        <ele>1254.3</ele>
        <time>2021-08-12T11:15:37Z</time>
      </trkpt>
      <trkpt lat="44.16003" lon="3.54484">
        <ele>1255.2</ele>
        <time>2021-08-12T11:15:39Z</time>
      </trkpt>
      <trkpt lat="44.16" lon="3.54485">
        <ele>1256.2</ele>
        <time>2021-08-12T11:15:41Z</time>
      </trkpt>
      <trkpt lat="44.15996" lon="3.54486">
        <ele>1256.8</ele>
        <time>2021-08-12T11:15:43Z</time>
      </trkpt>
      <trkpt lat="44.15993" lon="3.54487">
        <ele>1257.2</ele>
        <time>2021-08-12T11:15:45Z</time>
      </trkpt>
      <trkpt lat="44.1599" lon="3.54488">
        <ele>1257.8</ele>
        <time>2021-08-12T11:15:47Z</time>
      </trkpt>
      <trkpt lat="44.15987" lon="3.54489">
        <ele>1258.4</ele>
        <time>2021-08-12T11:15:49Z</time>
      </trkpt>
      <trkpt lat="44.15983" lon="3.5449">
        <ele>1259</ele>
        <time>2021-08-12T11:15:51Z</time>
      </trkpt>
      <trkpt lat="44.15979" lon="3.54491">
        <ele>1259.8</ele>
        <time>2021-08-12T11:15:53Z</time>
      </trkpt>
      <trkpt lat="44.15976" lon="3.54492">
        <ele>1260.3</ele>
        <time>2021-08-12T11:15:55Z</time>
      </trkpt>
      <trkpt lat="44.15972" lon="3.54492">
        <ele>1260.7</ele>
        <time>2021-08-12T11:15:57Z</time>
      </trkpt>
      <trkpt lat="44.15969" lon="3.54493">
        <ele>1261.1</ele>
        <time>2021-08-12T11:15:59Z</time>
      </trkpt>
      <trkpt lat="44.15966" lon="3.54494">
        <ele>1261.9</ele>
        <time>2021-08-12T11:16:01Z</time>
      </trkpt>
      <trkpt lat="44.15962" lon="3.54495">
        <ele>1262.4</ele>
        <time>2021-08-12T11:16:03Z</time>
      </trkpt>
      <trkpt lat="44.15959" lon="3.54495">
        <ele>1262.9</ele>
        <time>2021-08-12T11:16:05Z</time>
      </trkpt>
      <trkpt lat="44.15955" lon="3.54496">
        <ele>1263.5</ele>
        <time>2021-08-12T11:16:07Z</time>
      </trkpt>
      <trkpt lat="44.15951" lon="3.54497">
        <ele>1263.9</ele>
        <time>2021-08-12T11:16:09Z</time>
      </trkpt>
      <trkpt lat="44.15948" lon="3.54497">
        <ele>1264.4</ele>
        <time>2021-08-12T11:16:11Z</time>
      </trkpt>
      <trkpt lat="44.15944" lon="3.54498">
        <ele>1265.1</ele>
        <time>2021-08-12T11:16:13Z</time>
      </trkpt>
      <trkpt lat="44.15941" lon="3.54499">
        <ele>1265.7</ele>
        <time>2021-08-12T11:16:15Z</time>
      </trkpt>
      <trkpt lat="44.15936" lon="3.54499">
        <ele>1265.9</ele>
        <time>2021-08-12T11:16:17Z</time>
      </trkpt>
      <trkpt lat="44.15933" lon="3.54499">
        <ele>1266.3</ele>
        <time>2021-08-12T11:16:19Z</time>
      </trkpt>
      <trkpt lat="44.15929" lon="3.54499">
        <ele>1266.8</ele>
        <time>2021-08-12T11:16:21Z</time>
      </trkpt>
      <trkpt lat="44.15926" lon="3.545">
        <ele>1267.2</ele>
        <time>2021-08-12T11:16:23Z</time>
      </trkpt>
      <trkpt lat="44.15921" lon="3.54499">
        <ele>1267.4</ele>
        <time>2021-08-12T11:16:25Z</time>
      </trkpt>
      <trkpt lat="44.15918" lon="3.54499">
        <ele>1267.6</ele>
        <time>2021-08-12T11:16:27Z</time>
      </trkpt>
      <trkpt lat="44.15913" lon="3.54499">
        <ele>1267.6</ele>
        <time>2021-08-12T11:16:29Z</time>
      </trkpt>
      <trkpt lat="44.1591" lon="3.54497">
        <ele>1267.1</ele>
        <time>2021-08-12T11:16:31Z</time>
      </trkpt>
      <trkpt lat="44.15905" lon="3.54495">
        <ele>1266.7</ele>
        <time>2021-08-12T11:16:33Z</time>
      </trkpt>
      <trkpt lat="44.15901" lon="3.54494">
        <ele>1266.4</ele>
        <time>2021-08-12T11:16:35Z</time>
      </trkpt>
      <trkpt lat="44.15897" lon="3.54494">
        <ele>1266.4</ele>
        <time>2021-08-12T11:16:37Z</time>
      </trkpt>
      <trkpt lat="44.15893" lon="3.54492">
        <ele>1266.1</ele>
        <time>2021-08-12T11:16:39Z</time>
      </trkpt>
      <trkpt lat="44.15889" lon="3.54492">
        <ele>1265.9</ele>
        <time>2021-08-12T11:16:41Z</time>
      </trkpt>
      <trkpt lat="44.15885" lon="3.54491">
        <ele>1265.7</ele>
        <time>2021-08-12T11:16:43Z</time>
      </trkpt>
      <trkpt lat="44.15881" lon="3.54489">
        <ele>1265.4</ele>
        <time>2021-08-12T11:16:45Z</time>
      </trkpt>
      <trkpt lat="44.15877" lon="3.5449">
        <ele>1265.6</ele>
        <time>2021-08-12T11:16:47Z</time>
      </trkpt>
      <trkpt lat="44.15873" lon="3.54489">
        <ele>1265.6</ele>
        <time>2021-08-12T11:16:49Z</time>
      </trkpt>
      <trkpt lat="44.15869" lon="3.54489">
        <ele>1265.7</ele>
        <time>2021-08-12T11:16:51Z</time>
      </trkpt>
      <trkpt lat="44.15866" lon="3.54489">
        <ele>1265.9</ele>
        <time>2021-08-12T11:16:53Z</time>
      </trkpt>
      <trkpt lat="44.15862" lon="3.54489">
        <ele>1266</ele>
        <time>2021-08-12T11:16:55Z</time>
      </trkpt>
      <trkpt lat="44.15859" lon="3.5449">
        <ele>1266.4</ele>
        <time>2021-08-12T11:16:57Z</time>
      </trkpt>
      <trkpt lat="44.15855" lon="3.54491">
        <ele>1267</ele>
        <time>2021-08-12T11:16:59Z</time>
      </trkpt>
      <trkpt lat="44.15852" lon="3.54492">
        <ele>1267.4</ele>
        <time>2021-08-12T11:17:01Z</time>
      </trkpt>
      <trkpt lat="44.15849" lon="3.54493">
        <ele>1268</ele>
        <time>2021-08-12T11:17:03Z</time>
      </trkpt>
      <trkpt lat="44.15845" lon="3.54495">
        <ele>1268.6</ele>
        <time>2021-08-12T11:17:05Z</time>
      </trkpt>
      <trkpt lat="44.15841" lon="3.54496">
        <ele>1269.2</ele>
        <time>2021-08-12T11:17:07Z</time>
      </trkpt>
      <trkpt lat="44.15837" lon="3.54497">
        <ele>1269.8</ele>
        <time>2021-08-12T11:17:09Z</time>
      </trkpt>
      <trkpt lat="44.15834" lon="3.54498">
        <ele>1270.3</ele>
        <time>2021-08-12T11:17:11Z</time>
      </trkpt>
      <trkpt lat="44.15831" lon="3.545">
        <ele>1270.7</ele>
        <time>2021-08-12T11:17:13Z</time>
      </trkpt>
      <trkpt lat="44.15827" lon="3.54501">
        <ele>1270.9</ele>
        <time>2021-08-12T11:17:15Z</time>
      </trkpt>
      <trkpt lat="44.15824" lon="3.54502">
        <ele>1271.1</ele>
        <time>2021-08-12T11:17:17Z</time>
      </trkpt>
      <trkpt lat="44.15821" lon="3.54503">
        <ele>1271.4</ele>
        <time>2021-08-12T11:17:19Z</time>
      </trkpt>
      <trkpt lat="44.15817" lon="3.54504">
        <ele>1271.7</ele>
        <time>2021-08-12T11:17:21Z</time>
      </trkpt>
      <trkpt lat="44.15814" lon="3.54506">
        <ele>1272</ele>
        <time>2021-08-12T11:17:23Z</time>
      </trkpt>
      <trkpt lat="44.15811" lon="3.54507">
        <ele>1272.2</ele>
        <time>2021-08-12T11:17:25Z</time>
      </trkpt>
      <trkpt lat="44.15807" lon="3.54508">
        <ele>1272.5</ele>
        <time>2021-08-12T11:17:27Z</time>
      </trkpt>
      <trkpt lat="44.15803" lon="3.5451">
        <ele>1272.9</ele>
        <time>2021-08-12T11:17:29Z</time>
      </trkpt>
      <trkpt lat="44.158" lon="3.5451">
        <ele>1272.8</ele>
        <time>2021-08-12T11:17:31Z</time>
      </trkpt>
      <trkpt lat="44.15797" lon="3.54511">
        <ele>1273.2</ele>
        <time>2021-08-12T11:17:33Z</time>
      </trkpt>
      <trkpt lat="44.15793" lon="3.54513">
        <ele>1273.6</ele>
        <time>2021-08-12T11:17:35Z</time>
      </trkpt>
      <trkpt lat="44.1579" lon="3.54515">
        <ele>1273.9</ele>
        <time>2021-08-12T11:17:37Z</time>
      </trkpt>
      <trkpt lat="44.15788" lon="3.54516">
        <ele>1274.3</ele>
        <time>2021-08-12T11:17:39Z</time>
      </trkpt>
      <trkpt lat="44.15784" lon="3.54518">
        <ele>1274.7</ele>
        <time>2021-08-12T11:17:41Z</time>
      </trkpt>
      <trkpt lat="44.15781" lon="3.54519">
        <ele>1275</ele>
        <time>2021-08-12T11:17:43Z</time>
      </trkpt>
      <trkpt lat="44.15778" lon="3.5452">
        <ele>1275.2</ele>
        <time>2021-08-12T11:17:45Z</time>
      </trkpt>
      <trkpt lat="44.15775" lon="3.54521">
        <ele>1275.4</ele>
        <time>2021-08-12T11:17:47Z</time>
      </trkpt>
      <trkpt lat="44.15771" lon="3.54523">
        <ele>1275.7</ele>
        <time>2021-08-12T11:17:49Z</time>
      </trkpt>
      <trkpt lat="44.15768" lon="3.54524">
        <ele>1276</ele>
        <time>2021-08-12T11:17:51Z</time>
      </trkpt>
      <trkpt lat="44.15764" lon="3.54526">
        <ele>1276.2</ele>
        <time>2021-08-12T11:17:53Z</time>
      </trkpt>
      <trkpt lat="44.15761" lon="3.54527">
        <ele>1276.5</ele>
        <time>2021-08-12T11:17:55Z</time>
      </trkpt>
      <trkpt lat="44.15758" lon="3.54528">
        <ele>1276.8</ele>
        <time>2021-08-12T11:17:57Z</time>
      </trkpt>
      <trkpt lat="44.15755" lon="3.5453">
        <ele>1277.1</ele>
        <time>2021-08-12T11:17:59Z</time>
      </trkpt>
      <trkpt lat="44.15751" lon="3.54531">
        <ele>1277.4</ele>
        <time>2021-08-12T11:18:01Z</time>
      </trkpt>
      <trkpt lat="44.15748" lon="3.54533">
        <ele>1277.5</ele>
        <time>2021-08-12T11:18:03Z</time>
      </trkpt>
      <trkpt lat="44.15745" lon="3.54534">
        <ele>1277.6</ele>
        <time>2021-08-12T11:18:05Z</time>
      </trkpt>
      <trkpt lat="44.15741" lon="3.54536">
        <ele>1277.5</ele>
        <time>2021-08-12T11:18:07Z</time>
      </trkpt>
      <trkpt lat="44.15738" lon="3.54537">
        <ele>1277.5</ele>
        <time>2021-08-12T11:18:09Z</time>
      </trkpt>
      <trkpt lat="44.15734" lon="3.54539">
        <ele>1277.5</ele>
        <time>2021-08-12T11:18:11Z</time>
      </trkpt>
      <trkpt lat="44.15731" lon="3.5454">
        <ele>1277.5</ele>
        <time>2021-08-12T11:18:13Z</time>
      </trkpt>
      <trkpt lat="44.15728" lon="3.54542">
        <ele>1277.6</ele>
        <time>2021-08-12T11:18:15Z</time>
      </trkpt>
      <trkpt lat="44.15725" lon="3.54543">
        <ele>1277.5</ele>
        <time>2021-08-12T11:18:17Z</time>
      </trkpt>
      <trkpt lat="44.15722" lon="3.54545">
        <ele>1277.6</ele>
        <time>2021-08-12T11:18:19Z</time>
      </trkpt>
      <trkpt lat="44.15718" lon="3.54547">
        <ele>1277.6</ele>
        <time>2021-08-12T11:18:21Z</time>
      </trkpt>
      <trkpt lat="44.15715" lon="3.54548">
        <ele>1277.5</ele>
        <time>2021-08-12T11:18:23Z</time>
      </trkpt>
      <trkpt lat="44.15712" lon="3.5455">
        <ele>1277.6</ele>
        <time>2021-08-12T11:18:25Z</time>
      </trkpt>
      <trkpt lat="44.15709" lon="3.54553">
        <ele>1277.8</ele>
        <time>2021-08-12T11:18:27Z</time>
      </trkpt>
      <trkpt lat="44.15706" lon="3.54554">
        <ele>1277.9</ele>
        <time>2021-08-12T11:18:29Z</time>
      </trkpt>
      <trkpt lat="44.15703" lon="3.54557">
        <ele>1278.2</ele>
        <time>2021-08-12T11:18:31Z</time>
      </trkpt>
      <trkpt lat="44.15701" lon="3.54557">
        <ele>1277.9</ele>
        <time>2021-08-12T11:18:33Z</time>
      </trkpt>
      <trkpt lat="44.15698" lon="3.5456">
        <ele>1278.2</ele>
        <time>2021-08-12T11:18:35Z</time>
      </trkpt>
      <trkpt lat="44.15695" lon="3.54563">
        <ele>1278.5</ele>
        <time>2021-08-12T11:18:37Z</time>
      </trkpt>
      <trkpt lat="44.15692" lon="3.54565">
        <ele>1278.7</ele>
        <time>2021-08-12T11:18:39Z</time>
      </trkpt>
      <trkpt lat="44.1569" lon="3.54568">
        <ele>1279</ele>
        <time>2021-08-12T11:18:41Z</time>
      </trkpt>
      <trkpt lat="44.15687" lon="3.54571">
        <ele>1279.5</ele>
        <time>2021-08-12T11:18:43Z</time>
      </trkpt>
      <trkpt lat="44.15684" lon="3.54574">
        <ele>1279.8</ele>
        <time>2021-08-12T11:18:45Z</time>
      </trkpt>
      <trkpt lat="44.15682" lon="3.54577">
        <ele>1280.3</ele>
        <time>2021-08-12T11:18:47Z</time>
      </trkpt>
      <trkpt lat="44.15679" lon="3.5458">
        <ele>1280.7</ele>
        <time>2021-08-12T11:18:49Z</time>
      </trkpt>
      <trkpt lat="44.15676" lon="3.54584">
        <ele>1281.1</ele>
        <time>2021-08-12T11:18:51Z</time>
      </trkpt>
      <trkpt lat="44.15674" lon="3.54587">
        <ele>1281.4</ele>
        <time>2021-08-12T11:18:53Z</time>
      </trkpt>
      <trkpt lat="44.15671" lon="3.5459">
        <ele>1281.7</ele>
        <time>2021-08-12T11:18:55Z</time>
      </trkpt>
      <trkpt lat="44.15668" lon="3.54594">
        <ele>1282.1</ele>
        <time>2021-08-12T11:18:57Z</time>
      </trkpt>
      <trkpt lat="44.15666" lon="3.54597">
        <ele>1282.3</ele>
        <time>2021-08-12T11:18:59Z</time>
      </trkpt>
      <trkpt lat="44.15663" lon="3.54601">
        <ele>1282.7</ele>
        <time>2021-08-12T11:19:01Z</time>
      </trkpt>
      <trkpt lat="44.15661" lon="3.54603">
        <ele>1282.7</ele>
        <time>2021-08-12T11:19:03Z</time>
      </trkpt>
      <trkpt lat="44.15658" lon="3.54607">
        <ele>1283.1</ele>
        <time>2021-08-12T11:19:05Z</time>
      </trkpt>
      <trkpt lat="44.15656" lon="3.54611">
        <ele>1283.5</ele>
        <time>2021-08-12T11:19:07Z</time>
      </trkpt>
      <trkpt lat="44.15654" lon="3.54615">
        <ele>1283.9</ele>
        <time>2021-08-12T11:19:09Z</time>
      </trkpt>
      <trkpt lat="44.15652" lon="3.54618">
        <ele>1284</ele>
        <time>2021-08-12T11:19:11Z</time>
      </trkpt>
      <trkpt lat="44.1565" lon="3.54622">
        <ele>1284.6</ele>
        <time>2021-08-12T11:19:13Z</time>
      </trkpt>
      <trkpt lat="44.15647" lon="3.54626">
        <ele>1284.8</ele>
        <time>2021-08-12T11:19:15Z</time>
      </trkpt>
      <trkpt lat="44.15646" lon="3.5463">
        <ele>1285.3</ele>
        <time>2021-08-12T11:19:17Z</time>
      </trkpt>
      <trkpt lat="44.15644" lon="3.54634">
        <ele>1285.7</ele>
        <time>2021-08-12T11:19:19Z</time>
      </trkpt>
      <trkpt lat="44.15642" lon="3.54638">
        <ele>1286.3</ele>
        <time>2021-08-12T11:19:21Z</time>
      </trkpt>
      <trkpt lat="44.1564" lon="3.54642">
        <ele>1286.7</ele>
        <time>2021-08-12T11:19:23Z</time>
      </trkpt>
      <trkpt lat="44.15638" lon="3.54646">
        <ele>1287.1</ele>
        <time>2021-08-12T11:19:25Z</time>
      </trkpt>
      <trkpt lat="44.15636" lon="3.5465">
        <ele>1287.5</ele>
        <time>2021-08-12T11:19:27Z</time>
      </trkpt>
      <trkpt lat="44.15635" lon="3.54654">
        <ele>1287.9</ele>
        <time>2021-08-12T11:19:29Z</time>
      </trkpt>
      <trkpt lat="44.15633" lon="3.54658">
        <ele>1288.4</ele>
        <time>2021-08-12T11:19:31Z</time>
      </trkpt>
      <trkpt lat="44.15632" lon="3.54662">
        <ele>1288.9</ele>
        <time>2021-08-12T11:19:33Z</time>
      </trkpt>
      <trkpt lat="44.1563" lon="3.54665">
        <ele>1289.3</ele>
        <time>2021-08-12T11:19:35Z</time>
      </trkpt>
      <trkpt lat="44.15629" lon="3.54669">
        <ele>1289.9</ele>
        <time>2021-08-12T11:19:37Z</time>
      </trkpt>
      <trkpt lat="44.15627" lon="3.54673">
        <ele>1290.4</ele>
        <time>2021-08-12T11:19:39Z</time>
      </trkpt>
      <trkpt lat="44.15626" lon="3.54677">
        <ele>1290.9</ele>
        <time>2021-08-12T11:19:41Z</time>
      </trkpt>
      <trkpt lat="44.15624" lon="3.54681">
        <ele>1291.4</ele>
        <time>2021-08-12T11:19:43Z</time>
      </trkpt>
      <trkpt lat="44.15623" lon="3.54685">
        <ele>1292</ele>
        <time>2021-08-12T11:19:45Z</time>
      </trkpt>
      <trkpt lat="44.15621" lon="3.54689">
        <ele>1292.5</ele>
        <time>2021-08-12T11:19:47Z</time>
      </trkpt>
      <trkpt lat="44.1562" lon="3.54693">
        <ele>1293.2</ele>
        <time>2021-08-12T11:19:49Z</time>
      </trkpt>
      <trkpt lat="44.15619" lon="3.54697">
        <ele>1293.8</ele>
        <time>2021-08-12T11:19:51Z</time>
      </trkpt>
      <trkpt lat="44.15617" lon="3.54702">
        <ele>1294.4</ele>
        <time>2021-08-12T11:19:53Z</time>
      </trkpt>
      <trkpt lat="44.15615" lon="3.54706">
        <ele>1295</ele>
        <time>2021-08-12T11:19:55Z</time>
      </trkpt>
      <trkpt lat="44.15614" lon="3.5471">
        <ele>1295.6</ele>
        <time>2021-08-12T11:19:57Z</time>
      </trkpt>
      <trkpt lat="44.15612" lon="3.54715">
        <ele>1296.2</ele>
        <time>2021-08-12T11:19:59Z</time>
      </trkpt>
      <trkpt lat="44.1561" lon="3.54719">
        <ele>1296.5</ele>
        <time>2021-08-12T11:20:01Z</time>
      </trkpt>
      <trkpt lat="44.15608" lon="3.54723">
        <ele>1296.8</ele>
        <time>2021-08-12T11:20:03Z</time>
      </trkpt>
      <trkpt lat="44.15606" lon="3.54727">
        <ele>1297.3</ele>
        <time>2021-08-12T11:20:05Z</time>
      </trkpt>
      <trkpt lat="44.15604" lon="3.5473">
        <ele>1297.4</ele>
        <time>2021-08-12T11:20:07Z</time>
      </trkpt>
      <trkpt lat="44.15601" lon="3.54734">
        <ele>1297.6</ele>
        <time>2021-08-12T11:20:09Z</time>
      </trkpt>
      <trkpt lat="44.15599" lon="3.54737">
        <ele>1297.7</ele>
        <time>2021-08-12T11:20:11Z</time>
      </trkpt>
      <trkpt lat="44.15596" lon="3.54741">
        <ele>1297.9</ele>
        <time>2021-08-12T11:20:13Z</time>
      </trkpt>
      <trkpt lat="44.15595" lon="3.54745">
        <ele>1298.3</ele>
        <time>2021-08-12T11:20:15Z</time>
      </trkpt>
      <trkpt lat="44.15592" lon="3.54749">
        <ele>1298.5</ele>
        <time>2021-08-12T11:20:17Z</time>
      </trkpt>
      <trkpt lat="44.1559" lon="3.54752">
        <ele>1298.7</ele>
        <time>2021-08-12T11:20:19Z</time>
      </trkpt>
      <trkpt lat="44.15588" lon="3.54756">
        <ele>1298.9</ele>
        <time>2021-08-12T11:20:21Z</time>
      </trkpt>
      <trkpt lat="44.15585" lon="3.54759">
        <ele>1299.1</ele>
        <time>2021-08-12T11:20:23Z</time>
      </trkpt>
      <trkpt lat="44.15583" lon="3.54762">
        <ele>1299.4</ele>
        <time>2021-08-12T11:20:25Z</time>
      </trkpt>
      <trkpt lat="44.1558" lon="3.54765">
        <ele>1300</ele>
        <time>2021-08-12T11:20:27Z</time>
      </trkpt>
      <trkpt lat="44.15577" lon="3.54767">
        <ele>1300.4</ele>
        <time>2021-08-12T11:20:29Z</time>
      </trkpt>
      <trkpt lat="44.15573" lon="3.5477">
        <ele>1300.8</ele>
        <time>2021-08-12T11:20:31Z</time>
      </trkpt>
      <trkpt lat="44.1557" lon="3.54772">
        <ele>1301.1</ele>
        <time>2021-08-12T11:20:33Z</time>
      </trkpt>
      <trkpt lat="44.15567" lon="3.54775">
        <ele>1301.4</ele>
        <time>2021-08-12T11:20:35Z</time>
      </trkpt>
      <trkpt lat="44.15564" lon="3.54777">
        <ele>1301.8</ele>
        <time>2021-08-12T11:20:37Z</time>
      </trkpt>
      <trkpt lat="44.15561" lon="3.54779">
        <ele>1302</ele>
        <time>2021-08-12T11:20:39Z</time>
      </trkpt>
      <trkpt lat="44.15558" lon="3.54781">
        <ele>1302.2</ele>
        <time>2021-08-12T11:20:41Z</time>
      </trkpt>
      <trkpt lat="44.15555" lon="3.54782">
        <ele>1302.1</ele>
        <time>2021-08-12T11:20:43Z</time>
      </trkpt>
      <trkpt lat="44.15551" lon="3.54784">
        <ele>1302.2</ele>
        <time>2021-08-12T11:20:45Z</time>
      </trkpt>
      <trkpt lat="44.15548" lon="3.54785">
        <ele>1302.4</ele>
        <time>2021-08-12T11:20:47Z</time>
      </trkpt>
      <trkpt lat="44.15545" lon="3.54787">
        <ele>1302.4</ele>
        <time>2021-08-12T11:20:49Z</time>
      </trkpt>
      <trkpt lat="44.15542" lon="3.54788">
        <ele>1302.4</ele>
        <time>2021-08-12T11:20:51Z</time>
      </trkpt>
      <trkpt lat="44.15539" lon="3.54789">
        <ele>1302.3</ele>
        <time>2021-08-12T11:20:53Z</time>
      </trkpt>
      <trkpt lat="44.15536" lon="3.5479">
        <ele>1302.2</ele>
        <time>2021-08-12T11:20:55Z</time>
      </trkpt>
      <trkpt lat="44.15532" lon="3.54792">
        <ele>1302.1</ele>
        <time>2021-08-12T11:20:57Z</time>
      </trkpt>
      <trkpt lat="44.15528" lon="3.54793">
        <ele>1302</ele>
        <time>2021-08-12T11:20:59Z</time>
      </trkpt>
      <trkpt lat="44.15524" lon="3.54795">
        <ele>1302</ele>
        <time>2021-08-12T11:21:01Z</time>
      </trkpt>
      <trkpt lat="44.15521" lon="3.54797">
        <ele>1302.1</ele>
        <time>2021-08-12T11:21:03Z</time>
      </trkpt>
      <trkpt lat="44.15517" lon="3.54798">
        <ele>1301.9</ele>
        <time>2021-08-12T11:21:05Z</time>
      </trkpt>
      <trkpt lat="44.15514" lon="3.54799">
        <ele>1301.8</ele>
        <time>2021-08-12T11:21:07Z</time>
      </trkpt>
      <trkpt lat="44.1551" lon="3.54801">
        <ele>1302</ele>
        <time>2021-08-12T11:21:09Z</time>
      </trkpt>
      <trkpt lat="44.15507" lon="3.54804">
        <ele>1302</ele>
        <time>2021-08-12T11:21:11Z</time>
      </trkpt>
      <trkpt lat="44.15503" lon="3.54806">
        <ele>1302</ele>
        <time>2021-08-12T11:21:13Z</time>
      </trkpt>
      <trkpt lat="44.15499" lon="3.54808">
        <ele>1302</ele>
        <time>2021-08-12T11:21:15Z</time>
      </trkpt>
      <trkpt lat="44.15495" lon="3.5481">
        <ele>1302.1</ele>
        <time>2021-08-12T11:21:17Z</time>
      </trkpt>
      <trkpt lat="44.15492" lon="3.54812">
        <ele>1302.1</ele>
        <time>2021-08-12T11:21:19Z</time>
      </trkpt>
      <trkpt lat="44.15489" lon="3.54814">
        <ele>1302.3</ele>
        <time>2021-08-12T11:21:21Z</time>
      </trkpt>
      <trkpt lat="44.15486" lon="3.54817">
        <ele>1302.5</ele>
        <time>2021-08-12T11:21:23Z</time>
      </trkpt>
      <trkpt lat="44.15483" lon="3.5482">
        <ele>1302.8</ele>
        <time>2021-08-12T11:21:25Z</time>
      </trkpt>
      <trkpt lat="44.1548" lon="3.54823">
        <ele>1303.2</ele>
        <time>2021-08-12T11:21:27Z</time>
      </trkpt>
      <trkpt lat="44.15478" lon="3.54825">
        <ele>1303.5</ele>
        <time>2021-08-12T11:21:29Z</time>
      </trkpt>
      <trkpt lat="44.15475" lon="3.54829">
        <ele>1304</ele>
        <time>2021-08-12T11:21:31Z</time>
      </trkpt>
      <trkpt lat="44.15473" lon="3.54833">
        <ele>1304.7</ele>
        <time>2021-08-12T11:21:33Z</time>
      </trkpt>
      <trkpt lat="44.15471" lon="3.54836">
        <ele>1305.4</ele>
        <time>2021-08-12T11:21:35Z</time>
      </trkpt>
      <trkpt lat="44.15469" lon="3.54839">
        <ele>1306</ele>
        <time>2021-08-12T11:21:37Z</time>
      </trkpt>
      <trkpt lat="44.15467" lon="3.54843">
        <ele>1306.9</ele>
        <time>2021-08-12T11:21:39Z</time>
      </trkpt>
      <trkpt lat="44.15465" lon="3.54847">
        <ele>1307.8</ele>
        <time>2021-08-12T11:21:41Z</time>
      </trkpt>
      <trkpt lat="44.15463" lon="3.5485">
        <ele>1308.6</ele>
        <time>2021-08-12T11:21:43Z</time>
      </trkpt>
      <trkpt lat="44.15461" lon="3.54854">
        <ele>1309.4</ele>
        <time>2021-08-12T11:21:45Z</time>
      </trkpt>
      <trkpt lat="44.1546" lon="3.54858">
        <ele>1310.6</ele>
        <time>2021-08-12T11:21:47Z</time>
      </trkpt>
      <trkpt lat="44.15458" lon="3.54862">
        <ele>1311.4</ele>
        <time>2021-08-12T11:21:49Z</time>
      </trkpt>
      <trkpt lat="44.15455" lon="3.54865">
        <ele>1312.1</ele>
        <time>2021-08-12T11:21:51Z</time>
      </trkpt>
      <trkpt lat="44.15453" lon="3.54868">
        <ele>1312.6</ele>
        <time>2021-08-12T11:21:53Z</time>
      </trkpt>
      <trkpt lat="44.1545" lon="3.54871">
        <ele>1313.2</ele>
        <time>2021-08-12T11:21:55Z</time>
      </trkpt>
      <trkpt lat="44.15447" lon="3.54874">
        <ele>1313.6</ele>
        <time>2021-08-12T11:21:57Z</time>
      </trkpt>
      <trkpt lat="44.15443" lon="3.54875">
        <ele>1313.8</ele>
        <time>2021-08-12T11:21:59Z</time>
      </trkpt>
      <trkpt lat="44.1544" lon="3.54877">
        <ele>1313.9</ele>
        <time>2021-08-12T11:22:01Z</time>
      </trkpt>
      <trkpt lat="44.15437" lon="3.54878">
        <ele>1313.9</ele>
        <time>2021-08-12T11:22:03Z</time>
      </trkpt>
      <trkpt lat="44.15434" lon="3.54879">
        <ele>1314</ele>
        <time>2021-08-12T11:22:05Z</time>
      </trkpt>
      <trkpt lat="44.1543" lon="3.54879">
        <ele>1313.6</ele>
        <time>2021-08-12T11:22:07Z</time>
      </trkpt>
      <trkpt lat="44.15427" lon="3.54879">
        <ele>1313.2</ele>
        <time>2021-08-12T11:22:09Z</time>
      </trkpt>
      <trkpt lat="44.15423" lon="3.54878">
        <ele>1312.7</ele>
        <time>2021-08-12T11:22:11Z</time>
      </trkpt>
      <trkpt lat="44.1542" lon="3.54878">
        <ele>1312.1</ele>
        <time>2021-08-12T11:22:13Z</time>
      </trkpt>
      <trkpt lat="44.15416" lon="3.54877">
        <ele>1311.6</ele>
        <time>2021-08-12T11:22:15Z</time>
      </trkpt>
      <trkpt lat="44.15413" lon="3.54876">
        <ele>1311.6</ele>
        <time>2021-08-12T11:22:17Z</time>
      </trkpt>
      <trkpt lat="44.15409" lon="3.54876">
        <ele>1311.9</ele>
        <time>2021-08-12T11:22:19Z</time>
      </trkpt>
      <trkpt lat="44.15405" lon="3.54876">
        <ele>1312.2</ele>
        <time>2021-08-12T11:22:21Z</time>
      </trkpt>
      <trkpt lat="44.15402" lon="3.54876">
        <ele>1312.2</ele>
        <time>2021-08-12T11:22:23Z</time>
      </trkpt>
      <trkpt lat="44.15398" lon="3.54876">
        <ele>1312.5</ele>
        <time>2021-08-12T11:22:25Z</time>
      </trkpt>
      <trkpt lat="44.15394" lon="3.54876">
        <ele>1312.7</ele>
        <time>2021-08-12T11:22:27Z</time>
      </trkpt>
      <trkpt lat="44.1539" lon="3.54876">
        <ele>1312.8</ele>
        <time>2021-08-12T11:22:29Z</time>
      </trkpt>
      <trkpt lat="44.15386" lon="3.54875">
        <ele>1312.9</ele>
        <time>2021-08-12T11:22:31Z</time>
      </trkpt>
      <trkpt lat="44.15382" lon="3.54876">
        <ele>1313.4</ele>
        <time>2021-08-12T11:22:33Z</time>
      </trkpt>
      <trkpt lat="44.1538" lon="3.54876">
        <ele>1313.5</ele>
        <time>2021-08-12T11:22:35Z</time>
      </trkpt>
      <trkpt lat="44.15376" lon="3.54876">
        <ele>1313.7</ele>
        <time>2021-08-12T11:22:37Z</time>
      </trkpt>
      <trkpt lat="44.15372" lon="3.54876">
        <ele>1314</ele>
        <time>2021-08-12T11:22:39Z</time>
      </trkpt>
      <trkpt lat="44.15369" lon="3.54876">
        <ele>1314.2</ele>
        <time>2021-08-12T11:22:41Z</time>
      </trkpt>
      <trkpt lat="44.15364" lon="3.54876">
        <ele>1314.4</ele>
        <time>2021-08-12T11:22:43Z</time>
      </trkpt>
      <trkpt lat="44.15361" lon="3.54875">
        <ele>1314.3</ele>
        <time>2021-08-12T11:22:45Z</time>
      </trkpt>
      <trkpt lat="44.15357" lon="3.54874">
        <ele>1314.2</ele>
        <time>2021-08-12T11:22:47Z</time>
      </trkpt>
      <trkpt lat="44.15353" lon="3.54873">
        <ele>1314.2</ele>
        <time>2021-08-12T11:22:49Z</time>
      </trkpt>
      <trkpt lat="44.15349" lon="3.54873">
        <ele>1314.3</ele>
        <time>2021-08-12T11:22:51Z</time>
      </trkpt>
      <trkpt lat="44.15346" lon="3.54872">
        <ele>1314.3</ele>
        <time>2021-08-12T11:22:53Z</time>
      </trkpt>
      <trkpt lat="44.15342" lon="3.54872">
        <ele>1314.4</ele>
        <time>2021-08-12T11:22:55Z</time>
      </trkpt>
      <trkpt lat="44.15339" lon="3.54871">
        <ele>1314.3</ele>
        <time>2021-08-12T11:22:57Z</time>
      </trkpt>
      <trkpt lat="44.15335" lon="3.5487">
        <ele>1314.3</ele>
        <time>2021-08-12T11:22:59Z</time>
      </trkpt>
      <trkpt lat="44.15332" lon="3.54869">
        <ele>1314</ele>
        <time>2021-08-12T11:23:01Z</time>
      </trkpt>
      <trkpt lat="44.15328" lon="3.54869">
        <ele>1313.7</ele>
        <time>2021-08-12T11:23:03Z</time>
      </trkpt>
      <trkpt lat="44.15325" lon="3.54869">
        <ele>1313.4</ele>
        <time>2021-08-12T11:23:05Z</time>
      </trkpt>
      <trkpt lat="44.15322" lon="3.54869">
        <ele>1313.2</ele>
        <time>2021-08-12T11:23:07Z</time>
      </trkpt>
      <trkpt lat="44.15319" lon="3.5487">
        <ele>1313.3</ele>
        <time>2021-08-12T11:23:09Z</time>
      </trkpt>
      <trkpt lat="44.15315" lon="3.5487">
        <ele>1313</ele>
        <time>2021-08-12T11:23:11Z</time>
      </trkpt>
      <trkpt lat="44.15312" lon="3.5487">
        <ele>1313</ele>
        <time>2021-08-12T11:23:13Z</time>
      </trkpt>
      <trkpt lat="44.15309" lon="3.54872">
        <ele>1313.1</ele>
        <time>2021-08-12T11:23:15Z</time>
      </trkpt>
      <trkpt lat="44.15305" lon="3.54873">
        <ele>1313.2</ele>
        <time>2021-08-12T11:23:17Z</time>
      </trkpt>
      <trkpt lat="44.15303" lon="3.54873">
        <ele>1313.3</ele>
        <time>2021-08-12T11:23:19Z</time>
      </trkpt>
      <trkpt lat="44.153" lon="3.54874">
        <ele>1313.2</ele>
        <time>2021-08-12T11:23:21Z</time>
      </trkpt>
      <trkpt lat="44.15296" lon="3.54876">
        <ele>1313.6</ele>
        <time>2021-08-12T11:23:23Z</time>
      </trkpt>
      <trkpt lat="44.15293" lon="3.54878">
        <ele>1314.1</ele>
        <time>2021-08-12T11:23:25Z</time>
      </trkpt>
      <trkpt lat="44.1529" lon="3.5488">
        <ele>1314.5</ele>
        <time>2021-08-12T11:23:27Z</time>
      </trkpt>
      <trkpt lat="44.15287" lon="3.54881">
        <ele>1314.8</ele>
        <time>2021-08-12T11:23:29Z</time>
      </trkpt>
      <trkpt lat="44.15285" lon="3.54883">
        <ele>1315.4</ele>
        <time>2021-08-12T11:23:31Z</time>
      </trkpt>
      <trkpt lat="44.15282" lon="3.54886">
        <ele>1316.1</ele>
        <time>2021-08-12T11:23:33Z</time>
      </trkpt>
      <trkpt lat="44.15279" lon="3.54888">
        <ele>1316.5</ele>
        <time>2021-08-12T11:23:35Z</time>
      </trkpt>
      <trkpt lat="44.15276" lon="3.54891">
        <ele>1317.1</ele>
        <time>2021-08-12T11:23:37Z</time>
      </trkpt>
      <trkpt lat="44.15274" lon="3.54893">
        <ele>1317.7</ele>
        <time>2021-08-12T11:23:39Z</time>
      </trkpt>
      <trkpt lat="44.15271" lon="3.54895">
        <ele>1318.3</ele>
        <time>2021-08-12T11:23:41Z</time>
      </trkpt>
      <trkpt lat="44.15268" lon="3.54898">
        <ele>1318.8</ele>
        <time>2021-08-12T11:23:43Z</time>
      </trkpt>
      <trkpt lat="44.15265" lon="3.549">
        <ele>1319.5</ele>
        <time>2021-08-12T11:23:45Z</time>
      </trkpt>
      <trkpt lat="44.15262" lon="3.54903">
        <ele>1320.2</ele>
        <time>2021-08-12T11:23:47Z</time>
      </trkpt>
      <trkpt lat="44.1526" lon="3.54905">
        <ele>1320.8</ele>
        <time>2021-08-12T11:23:49Z</time>
      </trkpt>
      <trkpt lat="44.15256" lon="3.54908">
        <ele>1321.5</ele>
        <time>2021-08-12T11:23:51Z</time>
      </trkpt>
      <trkpt lat="44.15254" lon="3.5491">
        <ele>1322</ele>
        <time>2021-08-12T11:23:53Z</time>
      </trkpt>
      <trkpt lat="44.1525" lon="3.54912">
        <ele>1322.4</ele>
        <time>2021-08-12T11:23:55Z</time>
      </trkpt>
      <trkpt lat="44.15247" lon="3.54914">
        <ele>1322.4</ele>
        <time>2021-08-12T11:23:57Z</time>
      </trkpt>
      <trkpt lat="44.15244" lon="3.54916">
        <ele>1322</ele>
        <time>2021-08-12T11:23:59Z</time>
      </trkpt>
      <trkpt lat="44.1524" lon="3.54918">
        <ele>1321.8</ele>
        <time>2021-08-12T11:24:01Z</time>
      </trkpt>
      <trkpt lat="44.15237" lon="3.54921">
        <ele>1321.7</ele>
        <time>2021-08-12T11:24:03Z</time>
      </trkpt>
      <trkpt lat="44.15234" lon="3.54923">
        <ele>1321.5</ele>
        <time>2021-08-12T11:24:05Z</time>
      </trkpt>
      <trkpt lat="44.1523" lon="3.54926">
        <ele>1321.4</ele>
        <time>2021-08-12T11:24:07Z</time>
      </trkpt>
      <trkpt lat="44.15227" lon="3.54928">
        <ele>1321.2</ele>
        <time>2021-08-12T11:24:09Z</time>
      </trkpt>
      <trkpt lat="44.15224" lon="3.54931">
        <ele>1321.1</ele>
        <time>2021-08-12T11:24:11Z</time>
      </trkpt>
      <trkpt lat="44.15221" lon="3.54934">
        <ele>1321.1</ele>
        <time>2021-08-12T11:24:13Z</time>
      </trkpt>
      <trkpt lat="44.15219" lon="3.54937">
        <ele>1321.1</ele>
        <time>2021-08-12T11:24:15Z</time>
      </trkpt>
      <trkpt lat="44.15215" lon="3.54941">
        <ele>1321</ele>
        <time>2021-08-12T11:24:17Z</time>
      </trkpt>
      <trkpt lat="44.15212" lon="3.54943">
        <ele>1320.9</ele>
        <time>2021-08-12T11:24:19Z</time>
      </trkpt>
      <trkpt lat="44.15209" lon="3.54947">
        <ele>1321.1</ele>
        <time>2021-08-12T11:24:21Z</time>
      </trkpt>
      <trkpt lat="44.15207" lon="3.5495">
        <ele>1321.1</ele>
        <time>2021-08-12T11:24:23Z</time>
      </trkpt>
      <trkpt lat="44.15204" lon="3.54953">
        <ele>1321.1</ele>
        <time>2021-08-12T11:24:25Z</time>
      </trkpt>
      <trkpt lat="44.15202" lon="3.54958">
        <ele>1321.7</ele>
        <time>2021-08-12T11:24:27Z</time>
      </trkpt>
      <trkpt lat="44.15199" lon="3.54963">
        <ele>1322.2</ele>
        <time>2021-08-12T11:24:29Z</time>
      </trkpt>
      <trkpt lat="44.15196" lon="3.54967">
        <ele>1322.5</ele>
        <time>2021-08-12T11:24:31Z</time>
      </trkpt>
      <trkpt lat="44.15194" lon="3.54971">
        <ele>1322.7</ele>
        <time>2021-08-12T11:24:33Z</time>
      </trkpt>
      <trkpt lat="44.15191" lon="3.54976">
        <ele>1322.9</ele>
        <time>2021-08-12T11:24:35Z</time>
      </trkpt>
      <trkpt lat="44.15189" lon="3.5498">
        <ele>1323.4</ele>
        <time>2021-08-12T11:24:37Z</time>
      </trkpt>
      <trkpt lat="44.15186" lon="3.54984">
        <ele>1323.7</ele>
        <time>2021-08-12T11:24:39Z</time>
      </trkpt>
      <trkpt lat="44.15184" lon="3.54989">
        <ele>1324.1</ele>
        <time>2021-08-12T11:24:41Z</time>
      </trkpt>
      <trkpt lat="44.15181" lon="3.54993">
        <ele>1324.4</ele>
        <time>2021-08-12T11:24:43Z</time>
      </trkpt>
      <trkpt lat="44.15179" lon="3.54998">
        <ele>1324.9</ele>
        <time>2021-08-12T11:24:45Z</time>
      </trkpt>
      <trkpt lat="44.15177" lon="3.55001">
        <ele>1325</ele>
        <time>2021-08-12T11:24:47Z</time>
      </trkpt>
      <trkpt lat="44.15175" lon="3.55006">
        <ele>1325.5</ele>
        <time>2021-08-12T11:24:49Z</time>
      </trkpt>
      <trkpt lat="44.15173" lon="3.5501">
        <ele>1325.9</ele>
        <time>2021-08-12T11:24:51Z</time>
      </trkpt>
      <trkpt lat="44.1517" lon="3.55014">
        <ele>1326.1</ele>
        <time>2021-08-12T11:24:53Z</time>
      </trkpt>
      <trkpt lat="44.15169" lon="3.55019">
        <ele>1326.8</ele>
        <time>2021-08-12T11:24:55Z</time>
      </trkpt>
      <trkpt lat="44.15167" lon="3.55023">
        <ele>1327.2</ele>
        <time>2021-08-12T11:24:57Z</time>
      </trkpt>
      <trkpt lat="44.15165" lon="3.55028">
        <ele>1327.4</ele>
        <time>2021-08-12T11:24:59Z</time>
      </trkpt>
      <trkpt lat="44.15163" lon="3.55032">
        <ele>1327.6</ele>
        <time>2021-08-12T11:25:01Z</time>
      </trkpt>
      <trkpt lat="44.15162" lon="3.55037">
        <ele>1328.2</ele>
        <time>2021-08-12T11:25:03Z</time>
      </trkpt>
      <trkpt lat="44.1516" lon="3.55042">
        <ele>1328.5</ele>
        <time>2021-08-12T11:25:05Z</time>
      </trkpt>
      <trkpt lat="44.15158" lon="3.55046">
        <ele>1328.6</ele>
        <time>2021-08-12T11:25:07Z</time>
      </trkpt>
      <trkpt lat="44.15157" lon="3.55051">
        <ele>1329.1</ele>
        <time>2021-08-12T11:25:09Z</time>
      </trkpt>
      <trkpt lat="44.15156" lon="3.55055">
        <ele>1329.5</ele>
        <time>2021-08-12T11:25:11Z</time>
      </trkpt>
      <trkpt lat="44.15154" lon="3.55059">
        <ele>1329.7</ele>
        <time>2021-08-12T11:25:13Z</time>
      </trkpt>
      <trkpt lat="44.15153" lon="3.55063">
        <ele>1330</ele>
        <time>2021-08-12T11:25:15Z</time>
      </trkpt>
      <trkpt lat="44.15151" lon="3.55068">
        <ele>1330.6</ele>
        <time>2021-08-12T11:25:17Z</time>
      </trkpt>
      <trkpt lat="44.1515" lon="3.55072">
        <ele>1331</ele>
        <time>2021-08-12T11:25:19Z</time>
      </trkpt>
      <trkpt lat="44.15149" lon="3.55077">
        <ele>1331.4</ele>
        <time>2021-08-12T11:25:21Z</time>
      </trkpt>
      <trkpt lat="44.15147" lon="3.55082">
        <ele>1331.9</ele>
        <time>2021-08-12T11:25:23Z</time>
      </trkpt>
      <trkpt lat="44.15146" lon="3.55087">
        <ele>1331.8</ele>
        <time>2021-08-12T11:25:25Z</time>
      </trkpt>
      <trkpt lat="44.15145" lon="3.55091">
        <ele>1331.6</ele>
        <time>2021-08-12T11:25:27Z</time>
      </trkpt>
      <trkpt lat="44.15144" lon="3.55096">
        <ele>1331.4</ele>
        <time>2021-08-12T11:25:29Z</time>
      </trkpt>
      <trkpt lat="44.15144" lon="3.551">
        <ele>1331.4</ele>
        <time>2021-08-12T11:25:31Z</time>
      </trkpt>
      <trkpt lat="44.15143" lon="3.55105">
        <ele>1331.3</ele>
        <time>2021-08-12T11:25:33Z</time>
      </trkpt>
      <trkpt lat="44.15143" lon="3.5511">
        <ele>1331.2</ele>
        <time>2021-08-12T11:25:35Z</time>
      </trkpt>
      <trkpt lat="44.15142" lon="3.55115">
        <ele>1331.3</ele>
        <time>2021-08-12T11:25:37Z</time>
      </trkpt>
      <trkpt lat="44.15142" lon="3.5512">
        <ele>1331.5</ele>
        <time>2021-08-12T11:25:39Z</time>
      </trkpt>
      <trkpt lat="44.15142" lon="3.55124">
        <ele>1331.5</ele>
        <time>2021-08-12T11:25:41Z</time>
      </trkpt>
      <trkpt lat="44.15142" lon="3.55129">
        <ele>1331.7</ele>
        <time>2021-08-12T11:25:43Z</time>
      </trkpt>
      <trkpt lat="44.15142" lon="3.55134">
        <ele>1331.8</ele>
        <time>2021-08-12T11:25:45Z</time>
      </trkpt>
      <trkpt lat="44.15142" lon="3.55138">
        <ele>1332.1</ele>
        <time>2021-08-12T11:25:47Z</time>
      </trkpt>
      <trkpt lat="44.15142" lon="3.55143">
        <ele>1332.3</ele>
        <time>2021-08-12T11:25:49Z</time>
      </trkpt>
      <trkpt lat="44.15143" lon="3.55148">
        <ele>1332.7</ele>
        <time>2021-08-12T11:25:51Z</time>
      </trkpt>
      <trkpt lat="44.15143" lon="3.55152">
        <ele>1333.2</ele>
        <time>2021-08-12T11:25:53Z</time>
      </trkpt>
      <trkpt lat="44.15144" lon="3.55156">
        <ele>1333.6</ele>
        <time>2021-08-12T11:25:55Z</time>
      </trkpt>
      <trkpt lat="44.15145" lon="3.55161">
        <ele>1334.1</ele>
        <time>2021-08-12T11:25:57Z</time>
      </trkpt>
      <trkpt lat="44.15146" lon="3.55166">
        <ele>1334.7</ele>
        <time>2021-08-12T11:25:59Z</time>
      </trkpt>
      <trkpt lat="44.15147" lon="3.55169">
        <ele>1335</ele>
        <time>2021-08-12T11:26:01Z</time>
      </trkpt>
      <trkpt lat="44.15148" lon="3.55174">
        <ele>1335.3</ele>
        <time>2021-08-12T11:26:03Z</time>
      </trkpt>
      <trkpt lat="44.1515" lon="3.55178">
        <ele>1335.5</ele>
        <time>2021-08-12T11:26:05Z</time>
      </trkpt>
      <trkpt lat="44.15151" lon="3.55182">
        <ele>1335.8</ele>
        <time>2021-08-12T11:26:07Z</time>
      </trkpt>
      <trkpt lat="44.15152" lon="3.55186">
        <ele>1336</ele>
        <time>2021-08-12T11:26:09Z</time>
      </trkpt>
      <trkpt lat="44.15154" lon="3.5519">
        <ele>1336.4</ele>
        <time>2021-08-12T11:26:11Z</time>
      </trkpt>
      <trkpt lat="44.15156" lon="3.55194">
        <ele>1336.7</ele>
        <time>2021-08-12T11:26:13Z</time>
      </trkpt>
      <trkpt lat="44.15158" lon="3.55197">
        <ele>1337.1</ele>
        <time>2021-08-12T11:26:15Z</time>
      </trkpt>
      <trkpt lat="44.1516" lon="3.55201">
        <ele>1337.4</ele>
        <time>2021-08-12T11:26:17Z</time>
      </trkpt>
      <trkpt lat="44.15162" lon="3.55205">
        <ele>1337.7</ele>
        <time>2021-08-12T11:26:19Z</time>
      </trkpt>
      <trkpt lat="44.15164" lon="3.55209">
        <ele>1338</ele>
        <time>2021-08-12T11:26:21Z</time>
      </trkpt>
      <trkpt lat="44.15166" lon="3.55213">
        <ele>1338.2</ele>
        <time>2021-08-12T11:26:23Z</time>
      </trkpt>
      <trkpt lat="44.15167" lon="3.55217">
        <ele>1338.4</ele>
        <time>2021-08-12T11:26:25Z</time>
      </trkpt>
      <trkpt lat="44.15169" lon="3.5522">
        <ele>1338.9</ele>
        <time>2021-08-12T11:26:27Z</time>
      </trkpt>
      <trkpt lat="44.15171" lon="3.55224">
        <ele>1339.3</ele>
        <time>2021-08-12T11:26:29Z</time>
      </trkpt>
      <trkpt lat="44.15173" lon="3.55228">
        <ele>1339.7</ele>
        <time>2021-08-12T11:26:31Z</time>
      </trkpt>
      <trkpt lat="44.15175" lon="3.55231">
        <ele>1340</ele>
        <time>2021-08-12T11:26:33Z</time>
      </trkpt>
      <trkpt lat="44.15177" lon="3.55235">
        <ele>1340.5</ele>
        <time>2021-08-12T11:26:35Z</time>
      </trkpt>
      <trkpt lat="44.15179" lon="3.55238">
        <ele>1341.1</ele>
        <time>2021-08-12T11:26:37Z</time>
      </trkpt>
      <trkpt lat="44.15181" lon="3.55241">
        <ele>1341.6</ele>
        <time>2021-08-12T11:26:39Z</time>
      </trkpt>
      <trkpt lat="44.15183" lon="3.55245">
        <ele>1341.9</ele>
        <time>2021-08-12T11:26:41Z</time>
      </trkpt>
      <trkpt lat="44.15185" lon="3.55249">
        <ele>1342.6</ele>
        <time>2021-08-12T11:26:43Z</time>
      </trkpt>
      <trkpt lat="44.15186" lon="3.55253">
        <ele>1343</ele>
        <time>2021-08-12T11:26:45Z</time>
      </trkpt>
      <trkpt lat="44.15188" lon="3.55257">
        <ele>1343.9</ele>
        <time>2021-08-12T11:26:47Z</time>
      </trkpt>
      <trkpt lat="44.1519" lon="3.55261">
        <ele>1344.8</ele>
        <time>2021-08-12T11:26:49Z</time>
      </trkpt>
      <trkpt lat="44.15191" lon="3.55264">
        <ele>1345.3</ele>
        <time>2021-08-12T11:26:51Z</time>
      </trkpt>
      <trkpt lat="44.15193" lon="3.55268">
        <ele>1346.1</ele>
        <time>2021-08-12T11:26:53Z</time>
      </trkpt>
      <trkpt lat="44.15195" lon="3.55272">
        <ele>1346.8</ele>
        <time>2021-08-12T11:26:55Z</time>
      </trkpt>
      <trkpt lat="44.15196" lon="3.55277">
        <ele>1347.5</ele>
        <time>2021-08-12T11:26:57Z</time>
      </trkpt>
      <trkpt lat="44.15197" lon="3.55281">
        <ele>1348.1</ele>
        <time>2021-08-12T11:26:59Z</time>
      </trkpt>
      <trkpt lat="44.15198" lon="3.55286">
        <ele>1348.6</ele>
        <time>2021-08-12T11:27:01Z</time>
      </trkpt>
      <trkpt lat="44.15199" lon="3.55291">
        <ele>1348.9</ele>
        <time>2021-08-12T11:27:03Z</time>
      </trkpt>
      <trkpt lat="44.152" lon="3.55296">
        <ele>1349.4</ele>
        <time>2021-08-12T11:27:05Z</time>
      </trkpt>
      <trkpt lat="44.152" lon="3.553">
        <ele>1349.6</ele>
        <time>2021-08-12T11:27:07Z</time>
      </trkpt>
      <trkpt lat="44.15201" lon="3.55305">
        <ele>1350</ele>
        <time>2021-08-12T11:27:09Z</time>
      </trkpt>
      <trkpt lat="44.15202" lon="3.5531">
        <ele>1350.5</ele>
        <time>2021-08-12T11:27:11Z</time>
      </trkpt>
      <trkpt lat="44.15202" lon="3.55315">
        <ele>1350.6</ele>
        <time>2021-08-12T11:27:13Z</time>
      </trkpt>
      <trkpt lat="44.15203" lon="3.5532">
        <ele>1351.1</ele>
        <time>2021-08-12T11:27:15Z</time>
      </trkpt>
      <trkpt lat="44.15203" lon="3.55325">
        <ele>1351.3</ele>
        <time>2021-08-12T11:27:17Z</time>
      </trkpt>
      <trkpt lat="44.15204" lon="3.5533">
        <ele>1351.7</ele>
        <time>2021-08-12T11:27:19Z</time>
      </trkpt>
      <trkpt lat="44.15204" lon="3.55335">
        <ele>1352</ele>
        <time>2021-08-12T11:27:21Z</time>
      </trkpt>
      <trkpt lat="44.15204" lon="3.5534">
        <ele>1352.5</ele>
        <time>2021-08-12T11:27:23Z</time>
      </trkpt>
      <trkpt lat="44.15204" lon="3.55344">
        <ele>1353.1</ele>
        <time>2021-08-12T11:27:25Z</time>
      </trkpt>
      <trkpt lat="44.15205" lon="3.55349">
        <ele>1354</ele>
        <time>2021-08-12T11:27:27Z</time>
      </trkpt>
      <trkpt lat="44.15205" lon="3.55354">
        <ele>1354.5</ele>
        <time>2021-08-12T11:27:29Z</time>
      </trkpt>
      <trkpt lat="44.15205" lon="3.55359">
        <ele>1354.9</ele>
        <time>2021-08-12T11:27:31Z</time>
      </trkpt>
      <trkpt lat="44.15205" lon="3.55363">
        <ele>1355.4</ele>
        <time>2021-08-12T11:27:33Z</time>
      </trkpt>
      <trkpt lat="44.15206" lon="3.55368">
        <ele>1356.1</ele>
        <time>2021-08-12T11:27:35Z</time>
      </trkpt>
      <trkpt lat="44.15206" lon="3.55373">
        <ele>1356.6</ele>
        <time>2021-08-12T11:27:37Z</time>
      </trkpt>
      <trkpt lat="44.15206" lon="3.55378">
        <ele>1357.4</ele>
        <time>2021-08-12T11:27:39Z</time>
      </trkpt>
      <trkpt lat="44.15206" lon="3.55382">
        <ele>1357.9</ele>
        <time>2021-08-12T11:27:41Z</time>
      </trkpt>
      <trkpt lat="44.15207" lon="3.55386">
        <ele>1358.5</ele>
        <time>2021-08-12T11:27:43Z</time>
      </trkpt>
      <trkpt lat="44.15207" lon="3.55391">
        <ele>1359.1</ele>
        <time>2021-08-12T11:27:45Z</time>
      </trkpt>
      <trkpt lat="44.15207" lon="3.55396">
        <ele>1359.7</ele>
        <time>2021-08-12T11:27:47Z</time>
      </trkpt>
      <trkpt lat="44.15208" lon="3.55401">
        <ele>1360.3</ele>
        <time>2021-08-12T11:27:49Z</time>
      </trkpt>
      <trkpt lat="44.15208" lon="3.55406">
        <ele>1360.8</ele>
        <time>2021-08-12T11:27:51Z</time>
      </trkpt>
      <trkpt lat="44.15208" lon="3.55411">
        <ele>1361.2</ele>
        <time>2021-08-12T11:27:53Z</time>
      </trkpt>
      <trkpt lat="44.15208" lon="3.55416">
        <ele>1361.7</ele>
        <time>2021-08-12T11:27:55Z</time>
      </trkpt>
      <trkpt lat="44.15206" lon="3.55421">
        <ele>1362.4</ele>
        <time>2021-08-12T11:27:57Z</time>
      </trkpt>
      <trkpt lat="44.15205" lon="3.55425">
        <ele>1363.1</ele>
        <time>2021-08-12T11:27:59Z</time>
      </trkpt>
      <trkpt lat="44.15203" lon="3.55429">
        <ele>1363.6</ele>
        <time>2021-08-12T11:28:01Z</time>
      </trkpt>
      <trkpt lat="44.15202" lon="3.55432">
        <ele>1364</ele>
        <time>2021-08-12T11:28:03Z</time>
      </trkpt>
      <trkpt lat="44.152" lon="3.55436">
        <ele>1364.5</ele>
        <time>2021-08-12T11:28:05Z</time>
      </trkpt>
      <trkpt lat="44.15197" lon="3.5544">
        <ele>1364.8</ele>
        <time>2021-08-12T11:28:07Z</time>
      </trkpt>
      <trkpt lat="44.15194" lon="3.55443">
        <ele>1365</ele>
        <time>2021-08-12T11:28:09Z</time>
      </trkpt>
      <trkpt lat="44.15191" lon="3.55446">
        <ele>1365.1</ele>
        <time>2021-08-12T11:28:11Z</time>
      </trkpt>
      <trkpt lat="44.15188" lon="3.55448">
        <ele>1365.2</ele>
        <time>2021-08-12T11:28:13Z</time>
      </trkpt>
      <trkpt lat="44.15184" lon="3.5545">
        <ele>1365</ele>
        <time>2021-08-12T11:28:15Z</time>
      </trkpt>
      <trkpt lat="44.15181" lon="3.55451">
        <ele>1364.6</ele>
        <time>2021-08-12T11:28:17Z</time>
      </trkpt>
      <trkpt lat="44.15177" lon="3.55451">
        <ele>1364.2</ele>
        <time>2021-08-12T11:28:19Z</time>
      </trkpt>
      <trkpt lat="44.15174" lon="3.55451">
        <ele>1363.5</ele>
        <time>2021-08-12T11:28:21Z</time>
      </trkpt>
      <trkpt lat="44.1517" lon="3.55451">
        <ele>1362.8</ele>
        <time>2021-08-12T11:28:23Z</time>
      </trkpt>
      <trkpt lat="44.15167" lon="3.5545">
        <ele>1362.1</ele>
        <time>2021-08-12T11:28:25Z</time>
      </trkpt>
      <trkpt lat="44.15163" lon="3.55448">
        <ele>1361.5</ele>
        <time>2021-08-12T11:28:27Z</time>
      </trkpt>
      <trkpt lat="44.1516" lon="3.55446">
        <ele>1361.1</ele>
        <time>2021-08-12T11:28:29Z</time>
      </trkpt>
      <trkpt lat="44.15157" lon="3.55444">
        <ele>1360.7</ele>
        <time>2021-08-12T11:28:31Z</time>
      </trkpt>
      <trkpt lat="44.15153" lon="3.55442">
        <ele>1360.3</ele>
        <time>2021-08-12T11:28:33Z</time>
      </trkpt>
      <trkpt lat="44.1515" lon="3.5544">
        <ele>1360</ele>
        <time>2021-08-12T11:28:35Z</time>
      </trkpt>
      <trkpt lat="44.15147" lon="3.55438">
        <ele>1359.6</ele>
        <time>2021-08-12T11:28:37Z</time>
      </trkpt>
      <trkpt lat="44.15143" lon="3.55435">
        <ele>1359.2</ele>
        <time>2021-08-12T11:28:39Z</time>
      </trkpt>
      <trkpt lat="44.1514" lon="3.55434">
        <ele>1358.9</ele>
        <time>2021-08-12T11:28:41Z</time>
      </trkpt>
      <trkpt lat="44.15136" lon="3.55433">
        <ele>1358.8</ele>
        <time>2021-08-12T11:28:43Z</time>
      </trkpt>
      <trkpt lat="44.15133" lon="3.55431">
        <ele>1358.6</ele>
        <time>2021-08-12T11:28:45Z</time>
      </trkpt>
      <trkpt lat="44.1513" lon="3.55429">
        <ele>1358.3</ele>
        <time>2021-08-12T11:28:47Z</time>
      </trkpt>
      <trkpt lat="44.15126" lon="3.55427">
        <ele>1358.2</ele>
        <time>2021-08-12T11:28:49Z</time>
      </trkpt>
      <trkpt lat="44.15123" lon="3.55426">
        <ele>1358</ele>
        <time>2021-08-12T11:28:51Z</time>
      </trkpt>
      <trkpt lat="44.1512" lon="3.55424">
        <ele>1357.9</ele>
        <time>2021-08-12T11:28:53Z</time>
      </trkpt>
      <trkpt lat="44.15117" lon="3.55423">
        <ele>1357.8</ele>
        <time>2021-08-12T11:28:55Z</time>
      </trkpt>
      <trkpt lat="44.15114" lon="3.55422">
        <ele>1357.7</ele>
        <time>2021-08-12T11:28:57Z</time>
      </trkpt>
      <trkpt lat="44.15111" lon="3.5542">
        <ele>1357.6</ele>
        <time>2021-08-12T11:28:59Z</time>
      </trkpt>
      <trkpt lat="44.15108" lon="3.55418">
        <ele>1357.3</ele>
        <time>2021-08-12T11:29:01Z</time>
      </trkpt>
      <trkpt lat="44.15105" lon="3.55417">
        <ele>1357.2</ele>
        <time>2021-08-12T11:29:03Z</time>
      </trkpt>
      <trkpt lat="44.15101" lon="3.55416">
        <ele>1357.2</ele>
        <time>2021-08-12T11:29:05Z</time>
      </trkpt>
      <trkpt lat="44.15098" lon="3.55415">
        <ele>1357.2</ele>
        <time>2021-08-12T11:29:07Z</time>
      </trkpt>
      <trkpt lat="44.15095" lon="3.55414">
        <ele>1357.1</ele>
        <time>2021-08-12T11:29:09Z</time>
      </trkpt>
      <trkpt lat="44.15092" lon="3.55412">
        <ele>1356.9</ele>
        <time>2021-08-12T11:29:11Z</time>
      </trkpt>
      <trkpt lat="44.15088" lon="3.55412">
        <ele>1357.1</ele>
        <time>2021-08-12T11:29:13Z</time>
      </trkpt>
      <trkpt lat="44.15085" lon="3.55412">
        <ele>1357.3</ele>
        <time>2021-08-12T11:29:15Z</time>
      </trkpt>
      <trkpt lat="44.15082" lon="3.55411">
        <ele>1356.9</ele>
        <time>2021-08-12T11:29:17Z</time>
      </trkpt>
      <trkpt lat="44.15078" lon="3.55411">
        <ele>1356.6</ele>
        <time>2021-08-12T11:29:19Z</time>
      </trkpt>
      <trkpt lat="44.15075" lon="3.55412">
        <ele>1356.4</ele>
        <time>2021-08-12T11:29:21Z</time>
      </trkpt>
      <trkpt lat="44.15072" lon="3.55413">
        <ele>1356.1</ele>
        <time>2021-08-12T11:29:23Z</time>
      </trkpt>
      <trkpt lat="44.15069" lon="3.55414">
        <ele>1356</ele>
        <time>2021-08-12T11:29:25Z</time>
      </trkpt>
      <trkpt lat="44.15066" lon="3.55415">
        <ele>1355.9</ele>
        <time>2021-08-12T11:29:27Z</time>
      </trkpt>
      <trkpt lat="44.15063" lon="3.55417">
        <ele>1355.8</ele>
        <time>2021-08-12T11:29:29Z</time>
      </trkpt>
      <trkpt lat="44.1506" lon="3.55418">
        <ele>1355.7</ele>
        <time>2021-08-12T11:29:31Z</time>
      </trkpt>
      <trkpt lat="44.15057" lon="3.5542">
        <ele>1355.6</ele>
        <time>2021-08-12T11:29:33Z</time>
      </trkpt>
      <trkpt lat="44.15054" lon="3.55422">
        <ele>1355.5</ele>
        <time>2021-08-12T11:29:35Z</time>
      </trkpt>
      <trkpt lat="44.15052" lon="3.55425">
        <ele>1355.5</ele>
        <time>2021-08-12T11:29:37Z</time>
      </trkpt>
      <trkpt lat="44.15049" lon="3.55427">
        <ele>1355.5</ele>
        <time>2021-08-12T11:29:39Z</time>
      </trkpt>
      <trkpt lat="44.15047" lon="3.5543">
        <ele>1355.5</ele>
        <time>2021-08-12T11:29:41Z</time>
      </trkpt>
      <trkpt lat="44.15045" lon="3.55432">
        <ele>1355.7</ele>
        <time>2021-08-12T11:29:43Z</time>
      </trkpt>
      <trkpt lat="44.15043" lon="3.55435">
        <ele>1355.7</ele>
        <time>2021-08-12T11:29:45Z</time>
      </trkpt>
      <trkpt lat="44.1504" lon="3.55438">
        <ele>1355.8</ele>
        <time>2021-08-12T11:29:47Z</time>
      </trkpt>
      <trkpt lat="44.15039" lon="3.55442">
        <ele>1356.2</ele>
        <time>2021-08-12T11:29:49Z</time>
      </trkpt>
      <trkpt lat="44.15037" lon="3.55445">
        <ele>1356.3</ele>
        <time>2021-08-12T11:29:51Z</time>
      </trkpt>
      <trkpt lat="44.15036" lon="3.55449">
        <ele>1356.6</ele>
        <time>2021-08-12T11:29:53Z</time>
      </trkpt>
      <trkpt lat="44.15034" lon="3.55453">
        <ele>1356.8</ele>
        <time>2021-08-12T11:29:55Z</time>
      </trkpt>
      <trkpt lat="44.15033" lon="3.55457">
        <ele>1357.2</ele>
        <time>2021-08-12T11:29:57Z</time>
      </trkpt>
      <trkpt lat="44.15032" lon="3.55461">
        <ele>1357.6</ele>
        <time>2021-08-12T11:29:59Z</time>
      </trkpt>
      <trkpt lat="44.1503" lon="3.55465">
        <ele>1357.8</ele>
        <time>2021-08-12T11:30:01Z</time>
      </trkpt>
      <trkpt lat="44.15029" lon="3.55469">
        <ele>1358.1</ele>
        <time>2021-08-12T11:30:03Z</time>
      </trkpt>
      <trkpt lat="44.15028" lon="3.55473">
        <ele>1358.5</ele>
        <time>2021-08-12T11:30:05Z</time>
      </trkpt>
      <trkpt lat="44.15028" lon="3.55477">
        <ele>1359</ele>
        <time>2021-08-12T11:30:07Z</time>
      </trkpt>
      <trkpt lat="44.15026" lon="3.55482">
        <ele>1359.3</ele>
        <time>2021-08-12T11:30:09Z</time>
      </trkpt>
      <trkpt lat="44.15026" lon="3.55486">
        <ele>1359.8</ele>
        <time>2021-08-12T11:30:11Z</time>
      </trkpt>
      <trkpt lat="44.15026" lon="3.55491">
        <ele>1360.5</ele>
        <time>2021-08-12T11:30:13Z</time>
      </trkpt>
      <trkpt lat="44.15026" lon="3.55495">
        <ele>1361.1</ele>
        <time>2021-08-12T11:30:15Z</time>
      </trkpt>
      <trkpt lat="44.15025" lon="3.55499">
        <ele>1361.6</ele>
        <time>2021-08-12T11:30:17Z</time>
      </trkpt>
      <trkpt lat="44.15025" lon="3.55504">
        <ele>1362.4</ele>
        <time>2021-08-12T11:30:19Z</time>
      </trkpt>
      <trkpt lat="44.15026" lon="3.55508">
        <ele>1363.1</ele>
        <time>2021-08-12T11:30:21Z</time>
      </trkpt>
      <trkpt lat="44.15026" lon="3.55512">
        <ele>1363.9</ele>
        <time>2021-08-12T11:30:23Z</time>
      </trkpt>
      <trkpt lat="44.15026" lon="3.55517">
        <ele>1364.7</ele>
        <time>2021-08-12T11:30:25Z</time>
      </trkpt>
      <trkpt lat="44.15026" lon="3.55521">
        <ele>1365.3</ele>
        <time>2021-08-12T11:30:27Z</time>
      </trkpt>
      <trkpt lat="44.15026" lon="3.55525">
        <ele>1366</ele>
        <time>2021-08-12T11:30:29Z</time>
      </trkpt>
      <trkpt lat="44.15027" lon="3.5553">
        <ele>1366.9</ele>
        <time>2021-08-12T11:30:31Z</time>
      </trkpt>
      <trkpt lat="44.15027" lon="3.55534">
        <ele>1367.8</ele>
        <time>2021-08-12T11:30:33Z</time>
      </trkpt>
      <trkpt lat="44.15027" lon="3.55539">
        <ele>1368.5</ele>
        <time>2021-08-12T11:30:35Z</time>
      </trkpt>
      <trkpt lat="44.15026" lon="3.55543">
        <ele>1369.1</ele>
        <time>2021-08-12T11:30:37Z</time>
      </trkpt>
      <trkpt lat="44.15027" lon="3.55547">
        <ele>1369.9</ele>
        <time>2021-08-12T11:30:39Z</time>
      </trkpt>
      <trkpt lat="44.15027" lon="3.55552">
        <ele>1370.7</ele>
        <time>2021-08-12T11:30:41Z</time>
      </trkpt>
      <trkpt lat="44.15027" lon="3.55557">
        <ele>1371.6</ele>
        <time>2021-08-12T11:30:43Z</time>
      </trkpt>
      <trkpt lat="44.15027" lon="3.55561">
        <ele>1372.5</ele>
        <time>2021-08-12T11:30:45Z</time>
      </trkpt>
      <trkpt lat="44.15027" lon="3.55566">
        <ele>1373.1</ele>
        <time>2021-08-12T11:30:47Z</time>
      </trkpt>
      <trkpt lat="44.15026" lon="3.5557">
        <ele>1373.6</ele>
        <time>2021-08-12T11:30:49Z</time>
      </trkpt>
      <trkpt lat="44.15026" lon="3.55573">
        <ele>1374</ele>
        <time>2021-08-12T11:30:51Z</time>
      </trkpt>
      <trkpt lat="44.15025" lon="3.55575">
        <ele>1374.1</ele>
        <time>2021-08-12T11:30:53Z</time>
      </trkpt>
      <trkpt lat="44.15025" lon="3.55575">
        <ele>1374</ele>
        <time>2021-08-12T11:30:55Z</time>
      </trkpt>
      <trkpt lat="44.15025" lon="3.55575">
        <ele>1374.1</ele>
        <time>2021-08-12T11:30:57Z</time>
      </trkpt>
      <trkpt lat="44.15025" lon="3.55575">
        <ele>1374.2</ele>
        <time>2021-08-12T11:30:59Z</time>
      </trkpt>
      <trkpt lat="44.15025" lon="3.55575">
        <ele>1374.1</ele>
        <time>2021-08-12T11:31:01Z</time>
      </trkpt>
      <trkpt lat="44.15023" lon="3.55586">
        <ele>1375.8</ele>
        <time>2021-08-12T11:35:59Z</time>
      </trkpt>
      <trkpt lat="44.15023" lon="3.5559">
        <ele>1376.9</ele>
        <time>2021-08-12T11:36:01Z</time>
      </trkpt>
      <trkpt lat="44.15023" lon="3.55593">
        <ele>1378.1</ele>
        <time>2021-08-12T11:36:03Z</time>
      </trkpt>
      <trkpt lat="44.15023" lon="3.55597">
        <ele>1379.4</ele>
        <time>2021-08-12T11:36:05Z</time>
      </trkpt>
      <trkpt lat="44.15024" lon="3.55601">
        <ele>1380.6</ele>
        <time>2021-08-12T11:36:07Z</time>
      </trkpt>
      <trkpt lat="44.15023" lon="3.55605">
        <ele>1381.5</ele>
        <time>2021-08-12T11:36:09Z</time>
      </trkpt>
      <trkpt lat="44.15022" lon="3.55609">
        <ele>1382.6</ele>
        <time>2021-08-12T11:36:11Z</time>
      </trkpt>
      <trkpt lat="44.15022" lon="3.55613">
        <ele>1383.8</ele>
        <time>2021-08-12T11:36:13Z</time>
      </trkpt>
      <trkpt lat="44.1502" lon="3.55617">
        <ele>1384.5</ele>
        <time>2021-08-12T11:36:15Z</time>
      </trkpt>
      <trkpt lat="44.15019" lon="3.55621">
        <ele>1385.5</ele>
        <time>2021-08-12T11:36:17Z</time>
      </trkpt>
      <trkpt lat="44.15017" lon="3.55625">
        <ele>1386</ele>
        <time>2021-08-12T11:36:19Z</time>
      </trkpt>
      <trkpt lat="44.15014" lon="3.55628">
        <ele>1386.4</ele>
        <time>2021-08-12T11:36:21Z</time>
      </trkpt>
      <trkpt lat="44.15012" lon="3.55631">
        <ele>1386.5</ele>
        <time>2021-08-12T11:36:23Z</time>
      </trkpt>
      <trkpt lat="44.15009" lon="3.55633">
        <ele>1386.3</ele>
        <time>2021-08-12T11:36:25Z</time>
      </trkpt>
      <trkpt lat="44.15006" lon="3.55634">
        <ele>1385.9</ele>
        <time>2021-08-12T11:36:27Z</time>
      </trkpt>
      <trkpt lat="44.15003" lon="3.55637">
        <ele>1386</ele>
        <time>2021-08-12T11:36:29Z</time>
      </trkpt>
      <trkpt lat="44.15001" lon="3.55639">
        <ele>1386</ele>
        <time>2021-08-12T11:36:31Z</time>
      </trkpt>
      <trkpt lat="44.14998" lon="3.5564">
        <ele>1385.7</ele>
        <time>2021-08-12T11:36:33Z</time>
      </trkpt>
      <trkpt lat="44.14994" lon="3.5564">
        <ele>1385.2</ele>
        <time>2021-08-12T11:36:35Z</time>
      </trkpt>
      <trkpt lat="44.14991" lon="3.5564">
        <ele>1385</ele>
        <time>2021-08-12T11:36:37Z</time>
      </trkpt>
      <trkpt lat="44.14987" lon="3.5564">
        <ele>1384.6</ele>
        <time>2021-08-12T11:36:39Z</time>
      </trkpt>
      <trkpt lat="44.14983" lon="3.55641">
        <ele>1384.4</ele>
        <time>2021-08-12T11:36:41Z</time>
      </trkpt>
      <trkpt lat="44.1498" lon="3.55641">
        <ele>1384</ele>
        <time>2021-08-12T11:36:43Z</time>
      </trkpt>
      <trkpt lat="44.14977" lon="3.5564">
        <ele>1383.5</ele>
        <time>2021-08-12T11:36:45Z</time>
      </trkpt>
      <trkpt lat="44.14973" lon="3.55641">
        <ele>1383.1</ele>
        <time>2021-08-12T11:36:47Z</time>
      </trkpt>
      <trkpt lat="44.14969" lon="3.55641">
        <ele>1382.7</ele>
        <time>2021-08-12T11:36:49Z</time>
      </trkpt>
      <trkpt lat="44.14966" lon="3.55642">
        <ele>1382.6</ele>
        <time>2021-08-12T11:36:51Z</time>
      </trkpt>
      <trkpt lat="44.14963" lon="3.55642">
        <ele>1382.3</ele>
        <time>2021-08-12T11:36:53Z</time>
      </trkpt>
      <trkpt lat="44.14959" lon="3.55642">
        <ele>1381.9</ele>
        <time>2021-08-12T11:36:55Z</time>
      </trkpt>
      <trkpt lat="44.14956" lon="3.55643">
        <ele>1381.9</ele>
        <time>2021-08-12T11:36:57Z</time>
      </trkpt>
      <trkpt lat="44.14953" lon="3.55643">
        <ele>1381.5</ele>
        <time>2021-08-12T11:36:59Z</time>
      </trkpt>
      <trkpt lat="44.1495" lon="3.55643">
        <ele>1381.1</ele>
        <time>2021-08-12T11:37:01Z</time>
      </trkpt>
      <trkpt lat="44.14946" lon="3.55643">
        <ele>1380.8</ele>
        <time>2021-08-12T11:37:03Z</time>
      </trkpt>
      <trkpt lat="44.14942" lon="3.55645">
        <ele>1380.8</ele>
        <time>2021-08-12T11:37:05Z</time>
      </trkpt>
      <trkpt lat="44.14939" lon="3.55645">
        <ele>1380.4</ele>
        <time>2021-08-12T11:37:07Z</time>
      </trkpt>
      <trkpt lat="44.14936" lon="3.55645">
        <ele>1380.3</ele>
        <time>2021-08-12T11:37:09Z</time>
      </trkpt>
      <trkpt lat="44.14932" lon="3.55647">
        <ele>1380.3</ele>
        <time>2021-08-12T11:37:11Z</time>
      </trkpt>
      <trkpt lat="44.14928" lon="3.55648">
        <ele>1380.5</ele>
        <time>2021-08-12T11:37:13Z</time>
      </trkpt>
      <trkpt lat="44.14925" lon="3.5565">
        <ele>1380.7</ele>
        <time>2021-08-12T11:37:15Z</time>
      </trkpt>
      <trkpt lat="44.14921" lon="3.55651">
        <ele>1380.7</ele>
        <time>2021-08-12T11:37:17Z</time>
      </trkpt>
      <trkpt lat="44.14918" lon="3.55652">
        <ele>1380.8</ele>
        <time>2021-08-12T11:37:19Z</time>
      </trkpt>
      <trkpt lat="44.14915" lon="3.55656">
        <ele>1381.6</ele>
        <time>2021-08-12T11:37:21Z</time>
      </trkpt>
      <trkpt lat="44.14912" lon="3.55658">
        <ele>1381.7</ele>
        <time>2021-08-12T11:37:23Z</time>
      </trkpt>
      <trkpt lat="44.1491" lon="3.55661">
        <ele>1382.5</ele>
        <time>2021-08-12T11:37:25Z</time>
      </trkpt>
      <trkpt lat="44.14907" lon="3.55663">
        <ele>1382.4</ele>
        <time>2021-08-12T11:37:27Z</time>
      </trkpt>
      <trkpt lat="44.14903" lon="3.55664">
        <ele>1382.3</ele>
        <time>2021-08-12T11:37:29Z</time>
      </trkpt>
      <trkpt lat="44.14901" lon="3.55668">
        <ele>1383</ele>
        <time>2021-08-12T11:37:31Z</time>
      </trkpt>
      <trkpt lat="44.14898" lon="3.5567">
        <ele>1382.8</ele>
        <time>2021-08-12T11:37:33Z</time>
      </trkpt>
      <trkpt lat="44.14895" lon="3.55672">
        <ele>1382.9</ele>
        <time>2021-08-12T11:37:35Z</time>
      </trkpt>
      <trkpt lat="44.14892" lon="3.55675">
        <ele>1383</ele>
        <time>2021-08-12T11:37:37Z</time>
      </trkpt>
      <trkpt lat="44.1489" lon="3.55678">
        <ele>1383.4</ele>
        <time>2021-08-12T11:37:39Z</time>
      </trkpt>
      <trkpt lat="44.14886" lon="3.5568">
        <ele>1383.3</ele>
        <time>2021-08-12T11:37:41Z</time>
      </trkpt>
      <trkpt lat="44.14884" lon="3.55684">
        <ele>1383.8</ele>
        <time>2021-08-12T11:37:43Z</time>
      </trkpt>
      <trkpt lat="44.14882" lon="3.55686">
        <ele>1383.9</ele>
        <time>2021-08-12T11:37:45Z</time>
      </trkpt>
      <trkpt lat="44.14879" lon="3.55689">
        <ele>1384</ele>
        <time>2021-08-12T11:37:47Z</time>
      </trkpt>
      <trkpt lat="44.14877" lon="3.55693">
        <ele>1384.5</ele>
        <time>2021-08-12T11:37:49Z</time>
      </trkpt>
      <trkpt lat="44.14874" lon="3.55696">
        <ele>1385</ele>
        <time>2021-08-12T11:37:51Z</time>
      </trkpt>
      <trkpt lat="44.14872" lon="3.557">
        <ele>1385.5</ele>
        <time>2021-08-12T11:37:53Z</time>
      </trkpt>
      <trkpt lat="44.14869" lon="3.55704">
        <ele>1386.1</ele>
        <time>2021-08-12T11:37:55Z</time>
      </trkpt>
      <trkpt lat="44.14867" lon="3.55708">
        <ele>1386.5</ele>
        <time>2021-08-12T11:37:57Z</time>
      </trkpt>
      <trkpt lat="44.14864" lon="3.55711">
        <ele>1386.7</ele>
        <time>2021-08-12T11:37:59Z</time>
      </trkpt>
      <trkpt lat="44.14862" lon="3.55714">
        <ele>1387</ele>
        <time>2021-08-12T11:38:01Z</time>
      </trkpt>
      <trkpt lat="44.1486" lon="3.55717">
        <ele>1387.4</ele>
        <time>2021-08-12T11:38:03Z</time>
      </trkpt>
      <trkpt lat="44.14857" lon="3.55721">
        <ele>1387.8</ele>
        <time>2021-08-12T11:38:05Z</time>
      </trkpt>
      <trkpt lat="44.14855" lon="3.55725">
        <ele>1388.5</ele>
        <time>2021-08-12T11:38:07Z</time>
      </trkpt>
      <trkpt lat="44.14853" lon="3.55728">
        <ele>1388.6</ele>
        <time>2021-08-12T11:38:09Z</time>
      </trkpt>
      <trkpt lat="44.1485" lon="3.55731">
        <ele>1388.9</ele>
        <time>2021-08-12T11:38:11Z</time>
      </trkpt>
      <trkpt lat="44.14848" lon="3.55734">
        <ele>1389.1</ele>
        <time>2021-08-12T11:38:13Z</time>
      </trkpt>
      <trkpt lat="44.14846" lon="3.55737">
        <ele>1389.8</ele>
        <time>2021-08-12T11:38:15Z</time>
      </trkpt>
      <trkpt lat="44.14844" lon="3.55741">
        <ele>1390.2</ele>
        <time>2021-08-12T11:38:17Z</time>
      </trkpt>
      <trkpt lat="44.14842" lon="3.55745">
        <ele>1390.7</ele>
        <time>2021-08-12T11:38:19Z</time>
      </trkpt>
      <trkpt lat="44.1484" lon="3.55748">
        <ele>1391.2</ele>
        <time>2021-08-12T11:38:21Z</time>
      </trkpt>
      <trkpt lat="44.14838" lon="3.55752">
        <ele>1391.7</ele>
        <time>2021-08-12T11:38:23Z</time>
      </trkpt>
      <trkpt lat="44.14835" lon="3.55755">
        <ele>1391.5</ele>
        <time>2021-08-12T11:38:25Z</time>
      </trkpt>
      <trkpt lat="44.14832" lon="3.55758">
        <ele>1391.8</ele>
        <time>2021-08-12T11:38:27Z</time>
      </trkpt>
      <trkpt lat="44.14829" lon="3.55761">
        <ele>1392.3</ele>
        <time>2021-08-12T11:38:29Z</time>
      </trkpt>
      <trkpt lat="44.14826" lon="3.55763">
        <ele>1392.2</ele>
        <time>2021-08-12T11:38:31Z</time>
      </trkpt>
      <trkpt lat="44.14822" lon="3.55765">
        <ele>1392.1</ele>
        <time>2021-08-12T11:38:33Z</time>
      </trkpt>
      <trkpt lat="44.14818" lon="3.55766">
        <ele>1391.8</ele>
        <time>2021-08-12T11:38:35Z</time>
      </trkpt>
      <trkpt lat="44.14815" lon="3.55768">
        <ele>1391.8</ele>
        <time>2021-08-12T11:38:37Z</time>
      </trkpt>
      <trkpt lat="44.14812" lon="3.5577">
        <ele>1391.8</ele>
        <time>2021-08-12T11:38:39Z</time>
      </trkpt>
      <trkpt lat="44.14808" lon="3.5577">
        <ele>1391.4</ele>
        <time>2021-08-12T11:38:41Z</time>
      </trkpt>
      <trkpt lat="44.14804" lon="3.55771">
        <ele>1391</ele>
        <time>2021-08-12T11:38:43Z</time>
      </trkpt>
      <trkpt lat="44.148" lon="3.55772">
        <ele>1390.7</ele>
        <time>2021-08-12T11:38:45Z</time>
      </trkpt>
      <trkpt lat="44.14796" lon="3.55774">
        <ele>1390.5</ele>
        <time>2021-08-12T11:38:47Z</time>
      </trkpt>
      <trkpt lat="44.14792" lon="3.55775">
        <ele>1390.2</ele>
        <time>2021-08-12T11:38:49Z</time>
      </trkpt>
      <trkpt lat="44.14789" lon="3.55776">
        <ele>1390</ele>
        <time>2021-08-12T11:38:51Z</time>
      </trkpt>
      <trkpt lat="44.14785" lon="3.55778">
        <ele>1389.8</ele>
        <time>2021-08-12T11:38:53Z</time>
      </trkpt>
      <trkpt lat="44.14781" lon="3.55779">
        <ele>1389.7</ele>
        <time>2021-08-12T11:38:55Z</time>
      </trkpt>
      <trkpt lat="44.14778" lon="3.55781">
        <ele>1389.5</ele>
        <time>2021-08-12T11:38:57Z</time>
      </trkpt>
      <trkpt lat="44.14774" lon="3.55782">
        <ele>1389.4</ele>
        <time>2021-08-12T11:38:59Z</time>
      </trkpt>
      <trkpt lat="44.14771" lon="3.55784">
        <ele>1389.3</ele>
        <time>2021-08-12T11:39:01Z</time>
      </trkpt>
      <trkpt lat="44.14767" lon="3.55786">
        <ele>1389.2</ele>
        <time>2021-08-12T11:39:03Z</time>
      </trkpt>
      <trkpt lat="44.14765" lon="3.5579">
        <ele>1389.7</ele>
        <time>2021-08-12T11:39:05Z</time>
      </trkpt>
      <trkpt lat="44.14762" lon="3.55792">
        <ele>1389.8</ele>
        <time>2021-08-12T11:39:07Z</time>
      </trkpt>
      <trkpt lat="44.14758" lon="3.55794">
        <ele>1389.9</ele>
        <time>2021-08-12T11:39:09Z</time>
      </trkpt>
      <trkpt lat="44.14755" lon="3.55797">
        <ele>1390.1</ele>
        <time>2021-08-12T11:39:11Z</time>
      </trkpt>
      <trkpt lat="44.14752" lon="3.558">
        <ele>1390.3</ele>
        <time>2021-08-12T11:39:13Z</time>
      </trkpt>
      <trkpt lat="44.1475" lon="3.55803">
        <ele>1390.6</ele>
        <time>2021-08-12T11:39:15Z</time>
      </trkpt>
      <trkpt lat="44.14747" lon="3.55806">
        <ele>1390.5</ele>
        <time>2021-08-12T11:39:17Z</time>
      </trkpt>
      <trkpt lat="44.14744" lon="3.55809">
        <ele>1390.6</ele>
        <time>2021-08-12T11:39:19Z</time>
      </trkpt>
      <trkpt lat="44.14742" lon="3.55813">
        <ele>1390.8</ele>
        <time>2021-08-12T11:39:21Z</time>
      </trkpt>
      <trkpt lat="44.14739" lon="3.55816">
        <ele>1390.8</ele>
        <time>2021-08-12T11:39:23Z</time>
      </trkpt>
      <trkpt lat="44.14736" lon="3.55819">
        <ele>1390.9</ele>
        <time>2021-08-12T11:39:25Z</time>
      </trkpt>
      <trkpt lat="44.14734" lon="3.55823">
        <ele>1391.1</ele>
        <time>2021-08-12T11:39:27Z</time>
      </trkpt>
      <trkpt lat="44.14731" lon="3.55827">
        <ele>1391.1</ele>
        <time>2021-08-12T11:39:29Z</time>
      </trkpt>
      <trkpt lat="44.14729" lon="3.55831">
        <ele>1391.2</ele>
        <time>2021-08-12T11:39:31Z</time>
      </trkpt>
      <trkpt lat="44.14726" lon="3.55835">
        <ele>1391.4</ele>
        <time>2021-08-12T11:39:33Z</time>
      </trkpt>
      <trkpt lat="44.14724" lon="3.55839">
        <ele>1391.3</ele>
        <time>2021-08-12T11:39:35Z</time>
      </trkpt>
      <trkpt lat="44.14721" lon="3.55843">
        <ele>1391.4</ele>
        <time>2021-08-12T11:39:37Z</time>
      </trkpt>
      <trkpt lat="44.1472" lon="3.55847">
        <ele>1391.6</ele>
        <time>2021-08-12T11:39:39Z</time>
      </trkpt>
      <trkpt lat="44.14718" lon="3.55851">
        <ele>1391.6</ele>
        <time>2021-08-12T11:39:41Z</time>
      </trkpt>
      <trkpt lat="44.14716" lon="3.55855">
        <ele>1391.8</ele>
        <time>2021-08-12T11:39:43Z</time>
      </trkpt>
      <trkpt lat="44.14714" lon="3.5586">
        <ele>1391.8</ele>
        <time>2021-08-12T11:39:45Z</time>
      </trkpt>
      <trkpt lat="44.14713" lon="3.55864">
        <ele>1392.3</ele>
        <time>2021-08-12T11:39:47Z</time>
      </trkpt>
      <trkpt lat="44.14711" lon="3.55869">
        <ele>1392.5</ele>
        <time>2021-08-12T11:39:49Z</time>
      </trkpt>
      <trkpt lat="44.14709" lon="3.55873">
        <ele>1392.7</ele>
        <time>2021-08-12T11:39:51Z</time>
      </trkpt>
      <trkpt lat="44.14707" lon="3.55877">
        <ele>1392.9</ele>
        <time>2021-08-12T11:39:53Z</time>
      </trkpt>
      <trkpt lat="44.14706" lon="3.55882">
        <ele>1393.1</ele>
        <time>2021-08-12T11:39:55Z</time>
      </trkpt>
      <trkpt lat="44.14704" lon="3.55887">
        <ele>1393.5</ele>
        <time>2021-08-12T11:39:57Z</time>
      </trkpt>
      <trkpt lat="44.14703" lon="3.55892">
        <ele>1394</ele>
        <time>2021-08-12T11:39:59Z</time>
      </trkpt>
      <trkpt lat="44.14702" lon="3.55896">
        <ele>1394.3</ele>
        <time>2021-08-12T11:40:01Z</time>
      </trkpt>
      <trkpt lat="44.14701" lon="3.55901">
        <ele>1394.8</ele>
        <time>2021-08-12T11:40:03Z</time>
      </trkpt>
      <trkpt lat="44.147" lon="3.55906">
        <ele>1395.2</ele>
        <time>2021-08-12T11:40:05Z</time>
      </trkpt>
      <trkpt lat="44.14699" lon="3.55911">
        <ele>1395.7</ele>
        <time>2021-08-12T11:40:07Z</time>
      </trkpt>
      <trkpt lat="44.14698" lon="3.55916">
        <ele>1396.3</ele>
        <time>2021-08-12T11:40:09Z</time>
      </trkpt>
      <trkpt lat="44.14697" lon="3.55921">
        <ele>1396.8</ele>
        <time>2021-08-12T11:40:11Z</time>
      </trkpt>
      <trkpt lat="44.14697" lon="3.55927">
        <ele>1397.6</ele>
        <time>2021-08-12T11:40:13Z</time>
      </trkpt>
      <trkpt lat="44.14696" lon="3.55932">
        <ele>1398.1</ele>
        <time>2021-08-12T11:40:15Z</time>
      </trkpt>
      <trkpt lat="44.14695" lon="3.55937">
        <ele>1398.8</ele>
        <time>2021-08-12T11:40:17Z</time>
      </trkpt>
      <trkpt lat="44.14694" lon="3.55942">
        <ele>1399.2</ele>
        <time>2021-08-12T11:40:19Z</time>
      </trkpt>
      <trkpt lat="44.14694" lon="3.55947">
        <ele>1400</ele>
        <time>2021-08-12T11:40:21Z</time>
      </trkpt>
      <trkpt lat="44.14693" lon="3.55952">
        <ele>1400.7</ele>
        <time>2021-08-12T11:40:23Z</time>
      </trkpt>
      <trkpt lat="44.14692" lon="3.55957">
        <ele>1401.2</ele>
        <time>2021-08-12T11:40:25Z</time>
      </trkpt>
      <trkpt lat="44.14691" lon="3.55962">
        <ele>1401.7</ele>
        <time>2021-08-12T11:40:27Z</time>
      </trkpt>
      <trkpt lat="44.1469" lon="3.55968">
        <ele>1402.2</ele>
        <time>2021-08-12T11:40:29Z</time>
      </trkpt>
      <trkpt lat="44.14687" lon="3.55972">
        <ele>1402.3</ele>
        <time>2021-08-12T11:40:31Z</time>
      </trkpt>
      <trkpt lat="44.14686" lon="3.55977">
        <ele>1402.7</ele>
        <time>2021-08-12T11:40:33Z</time>
      </trkpt>
      <trkpt lat="44.14684" lon="3.55981">
        <ele>1402.9</ele>
        <time>2021-08-12T11:40:35Z</time>
      </trkpt>
      <trkpt lat="44.14681" lon="3.55985">
        <ele>1403</ele>
        <time>2021-08-12T11:40:37Z</time>
      </trkpt>
      <trkpt lat="44.14679" lon="3.55989">
        <ele>1403.1</ele>
        <time>2021-08-12T11:40:39Z</time>
      </trkpt>
      <trkpt lat="44.14676" lon="3.55993">
        <ele>1403.1</ele>
        <time>2021-08-12T11:40:41Z</time>
      </trkpt>
      <trkpt lat="44.14674" lon="3.55996">
        <ele>1403</ele>
        <time>2021-08-12T11:40:43Z</time>
      </trkpt>
      <trkpt lat="44.14671" lon="3.55999">
        <ele>1403</ele>
        <time>2021-08-12T11:40:45Z</time>
      </trkpt>
      <trkpt lat="44.14669" lon="3.56003">
        <ele>1403</ele>
        <time>2021-08-12T11:40:47Z</time>
      </trkpt>
      <trkpt lat="44.14666" lon="3.56006">
        <ele>1402.8</ele>
        <time>2021-08-12T11:40:49Z</time>
      </trkpt>
      <trkpt lat="44.14664" lon="3.5601">
        <ele>1402.7</ele>
        <time>2021-08-12T11:40:51Z</time>
      </trkpt>
      <trkpt lat="44.14661" lon="3.56014">
        <ele>1402.6</ele>
        <time>2021-08-12T11:40:53Z</time>
      </trkpt>
      <trkpt lat="44.14658" lon="3.56018">
        <ele>1402.5</ele>
        <time>2021-08-12T11:40:55Z</time>
      </trkpt>
      <trkpt lat="44.14655" lon="3.56022">
        <ele>1402.4</ele>
        <time>2021-08-12T11:40:57Z</time>
      </trkpt>
      <trkpt lat="44.14652" lon="3.56025">
        <ele>1402.2</ele>
        <time>2021-08-12T11:40:59Z</time>
      </trkpt>
      <trkpt lat="44.14649" lon="3.56029">
        <ele>1402.1</ele>
        <time>2021-08-12T11:41:01Z</time>
      </trkpt>
      <trkpt lat="44.14646" lon="3.56033">
        <ele>1402</ele>
        <time>2021-08-12T11:41:03Z</time>
      </trkpt>
      <trkpt lat="44.14644" lon="3.56036">
        <ele>1402</ele>
        <time>2021-08-12T11:41:05Z</time>
      </trkpt>
      <trkpt lat="44.14641" lon="3.5604">
        <ele>1401.9</ele>
        <time>2021-08-12T11:41:07Z</time>
      </trkpt>
      <trkpt lat="44.14638" lon="3.56044">
        <ele>1402</ele>
        <time>2021-08-12T11:41:09Z</time>
      </trkpt>
      <trkpt lat="44.14636" lon="3.56048">
        <ele>1402</ele>
        <time>2021-08-12T11:41:11Z</time>
      </trkpt>
      <trkpt lat="44.14634" lon="3.56052">
        <ele>1402.2</ele>
        <time>2021-08-12T11:41:13Z</time>
      </trkpt>
      <trkpt lat="44.14632" lon="3.56056">
        <ele>1402.2</ele>
        <time>2021-08-12T11:41:15Z</time>
      </trkpt>
      <trkpt lat="44.14629" lon="3.5606">
        <ele>1402.3</ele>
        <time>2021-08-12T11:41:17Z</time>
      </trkpt>
      <trkpt lat="44.14628" lon="3.56064">
        <ele>1402.6</ele>
        <time>2021-08-12T11:41:19Z</time>
      </trkpt>
      <trkpt lat="44.14625" lon="3.56068">
        <ele>1402.7</ele>
        <time>2021-08-12T11:41:21Z</time>
      </trkpt>
      <trkpt lat="44.14624" lon="3.56072">
        <ele>1403.1</ele>
        <time>2021-08-12T11:41:23Z</time>
      </trkpt>
      <trkpt lat="44.14623" lon="3.56076">
        <ele>1403.4</ele>
        <time>2021-08-12T11:41:25Z</time>
      </trkpt>
      <trkpt lat="44.1462" lon="3.5608">
        <ele>1403.5</ele>
        <time>2021-08-12T11:41:27Z</time>
      </trkpt>
      <trkpt lat="44.14618" lon="3.56084">
        <ele>1403.6</ele>
        <time>2021-08-12T11:41:29Z</time>
      </trkpt>
      <trkpt lat="44.14616" lon="3.56088">
        <ele>1403.5</ele>
        <time>2021-08-12T11:41:31Z</time>
      </trkpt>
      <trkpt lat="44.14614" lon="3.56092">
        <ele>1403.5</ele>
        <time>2021-08-12T11:41:33Z</time>
      </trkpt>
      <trkpt lat="44.14612" lon="3.56097">
        <ele>1403.6</ele>
        <time>2021-08-12T11:41:35Z</time>
      </trkpt>
      <trkpt lat="44.1461" lon="3.56101">
        <ele>1403.7</ele>
        <time>2021-08-12T11:41:37Z</time>
      </trkpt>
      <trkpt lat="44.14608" lon="3.56105">
        <ele>1403.7</ele>
        <time>2021-08-12T11:41:39Z</time>
      </trkpt>
      <trkpt lat="44.14607" lon="3.5611">
        <ele>1404</ele>
        <time>2021-08-12T11:41:41Z</time>
      </trkpt>
      <trkpt lat="44.14605" lon="3.56114">
        <ele>1404.1</ele>
        <time>2021-08-12T11:41:43Z</time>
      </trkpt>
      <trkpt lat="44.14603" lon="3.56119">
        <ele>1404.2</ele>
        <time>2021-08-12T11:41:45Z</time>
      </trkpt>
      <trkpt lat="44.14601" lon="3.56123">
        <ele>1404.3</ele>
        <time>2021-08-12T11:41:47Z</time>
      </trkpt>
      <trkpt lat="44.14599" lon="3.56127">
        <ele>1404.5</ele>
        <time>2021-08-12T11:41:49Z</time>
      </trkpt>
      <trkpt lat="44.14597" lon="3.56132">
        <ele>1404.7</ele>
        <time>2021-08-12T11:41:51Z</time>
      </trkpt>
      <trkpt lat="44.14594" lon="3.56136">
        <ele>1404.8</ele>
        <time>2021-08-12T11:41:53Z</time>
      </trkpt>
      <trkpt lat="44.14592" lon="3.56141">
        <ele>1405</ele>
        <time>2021-08-12T11:41:55Z</time>
      </trkpt>
      <trkpt lat="44.1459" lon="3.56146">
        <ele>1405.3</ele>
        <time>2021-08-12T11:41:57Z</time>
      </trkpt>
      <trkpt lat="44.14587" lon="3.5615">
        <ele>1405.4</ele>
        <time>2021-08-12T11:41:59Z</time>
      </trkpt>
      <trkpt lat="44.14585" lon="3.56155">
        <ele>1405.7</ele>
        <time>2021-08-12T11:42:01Z</time>
      </trkpt>
      <trkpt lat="44.14583" lon="3.56159">
        <ele>1406</ele>
        <time>2021-08-12T11:42:03Z</time>
      </trkpt>
      <trkpt lat="44.14581" lon="3.56164">
        <ele>1406.3</ele>
        <time>2021-08-12T11:42:05Z</time>
      </trkpt>
      <trkpt lat="44.14579" lon="3.56168">
        <ele>1406.3</ele>
        <time>2021-08-12T11:42:07Z</time>
      </trkpt>
      <trkpt lat="44.14576" lon="3.56173">
        <ele>1405.9</ele>
        <time>2021-08-12T11:42:09Z</time>
      </trkpt>
      <trkpt lat="44.14574" lon="3.56177">
        <ele>1405.7</ele>
        <time>2021-08-12T11:42:11Z</time>
      </trkpt>
      <trkpt lat="44.14572" lon="3.56182">
        <ele>1405.5</ele>
        <time>2021-08-12T11:42:13Z</time>
      </trkpt>
      <trkpt lat="44.14569" lon="3.56186">
        <ele>1405.3</ele>
        <time>2021-08-12T11:42:15Z</time>
      </trkpt>
      <trkpt lat="44.14567" lon="3.5619">
        <ele>1405.1</ele>
        <time>2021-08-12T11:42:17Z</time>
      </trkpt>
      <trkpt lat="44.14564" lon="3.56195">
        <ele>1405</ele>
        <time>2021-08-12T11:42:19Z</time>
      </trkpt>
      <trkpt lat="44.14562" lon="3.56199">
        <ele>1404.8</ele>
        <time>2021-08-12T11:42:21Z</time>
      </trkpt>
      <trkpt lat="44.1456" lon="3.56204">
        <ele>1404.8</ele>
        <time>2021-08-12T11:42:23Z</time>
      </trkpt>
      <trkpt lat="44.14558" lon="3.56209">
        <ele>1404.8</ele>
        <time>2021-08-12T11:42:25Z</time>
      </trkpt>
      <trkpt lat="44.14555" lon="3.56213">
        <ele>1404.7</ele>
        <time>2021-08-12T11:42:27Z</time>
      </trkpt>
      <trkpt lat="44.14552" lon="3.56218">
        <ele>1404.7</ele>
        <time>2021-08-12T11:42:29Z</time>
      </trkpt>
      <trkpt lat="44.1455" lon="3.56222">
        <ele>1404.7</ele>
        <time>2021-08-12T11:42:31Z</time>
      </trkpt>
      <trkpt lat="44.14548" lon="3.56227">
        <ele>1404.8</ele>
        <time>2021-08-12T11:42:33Z</time>
      </trkpt>
      <trkpt lat="44.14545" lon="3.56231">
        <ele>1404.9</ele>
        <time>2021-08-12T11:42:35Z</time>
      </trkpt>
      <trkpt lat="44.14542" lon="3.56235">
        <ele>1404.9</ele>
        <time>2021-08-12T11:42:37Z</time>
      </trkpt>
      <trkpt lat="44.1454" lon="3.5624">
        <ele>1405.1</ele>
        <time>2021-08-12T11:42:39Z</time>
      </trkpt>
      <trkpt lat="44.14537" lon="3.56244">
        <ele>1405.1</ele>
        <time>2021-08-12T11:42:41Z</time>
      </trkpt>
      <trkpt lat="44.14534" lon="3.56248">
        <ele>1405.3</ele>
        <time>2021-08-12T11:42:43Z</time>
      </trkpt>
      <trkpt lat="44.1453" lon="3.56252">
        <ele>1405</ele>
        <time>2021-08-12T11:42:45Z</time>
      </trkpt>
      <trkpt lat="44.14527" lon="3.56255">
        <ele>1404.6</ele>
        <time>2021-08-12T11:42:47Z</time>
      </trkpt>
      <trkpt lat="44.14523" lon="3.56258">
        <ele>1404.1</ele>
        <time>2021-08-12T11:42:49Z</time>
      </trkpt>
      <trkpt lat="44.1452" lon="3.56261">
        <ele>1403.8</ele>
        <time>2021-08-12T11:42:51Z</time>
      </trkpt>
      <trkpt lat="44.14516" lon="3.56264">
        <ele>1403.5</ele>
        <time>2021-08-12T11:42:53Z</time>
      </trkpt>
      <trkpt lat="44.14512" lon="3.56267">
        <ele>1403.3</ele>
        <time>2021-08-12T11:42:55Z</time>
      </trkpt>
      <trkpt lat="44.14509" lon="3.5627">
        <ele>1403.1</ele>
        <time>2021-08-12T11:42:57Z</time>
      </trkpt>
      <trkpt lat="44.14505" lon="3.56273">
        <ele>1403</ele>
        <time>2021-08-12T11:42:59Z</time>
      </trkpt>
      <trkpt lat="44.14501" lon="3.56275">
        <ele>1403</ele>
        <time>2021-08-12T11:43:01Z</time>
      </trkpt>
      <trkpt lat="44.14497" lon="3.56277">
        <ele>1403.1</ele>
        <time>2021-08-12T11:43:03Z</time>
      </trkpt>
      <trkpt lat="44.14493" lon="3.5628">
        <ele>1403.3</ele>
        <time>2021-08-12T11:43:05Z</time>
      </trkpt>
      <trkpt lat="44.14489" lon="3.56282">
        <ele>1403.5</ele>
        <time>2021-08-12T11:43:07Z</time>
      </trkpt>
      <trkpt lat="44.14486" lon="3.56284">
        <ele>1403.7</ele>
        <time>2021-08-12T11:43:09Z</time>
      </trkpt>
      <trkpt lat="44.14482" lon="3.56286">
        <ele>1403.9</ele>
        <time>2021-08-12T11:43:11Z</time>
      </trkpt>
      <trkpt lat="44.14479" lon="3.56288">
        <ele>1404.2</ele>
        <time>2021-08-12T11:43:13Z</time>
      </trkpt>
      <trkpt lat="44.14475" lon="3.5629">
        <ele>1404.4</ele>
        <time>2021-08-12T11:43:15Z</time>
      </trkpt>
      <trkpt lat="44.14472" lon="3.56291">
        <ele>1404.7</ele>
        <time>2021-08-12T11:43:17Z</time>
      </trkpt>
      <trkpt lat="44.14469" lon="3.56293">
        <ele>1404.9</ele>
        <time>2021-08-12T11:43:19Z</time>
      </trkpt>
      <trkpt lat="44.14466" lon="3.56295">
        <ele>1405.2</ele>
        <time>2021-08-12T11:43:21Z</time>
      </trkpt>
      <trkpt lat="44.14463" lon="3.56297">
        <ele>1405.5</ele>
        <time>2021-08-12T11:43:23Z</time>
      </trkpt>
      <trkpt lat="44.1446" lon="3.563">
        <ele>1405.9</ele>
        <time>2021-08-12T11:43:25Z</time>
      </trkpt>
      <trkpt lat="44.14457" lon="3.56302">
        <ele>1406.2</ele>
        <time>2021-08-12T11:43:27Z</time>
      </trkpt>
      <trkpt lat="44.14453" lon="3.56304">
        <ele>1406.6</ele>
        <time>2021-08-12T11:43:29Z</time>
      </trkpt>
      <trkpt lat="44.1445" lon="3.56306">
        <ele>1407</ele>
        <time>2021-08-12T11:43:31Z</time>
      </trkpt>
      <trkpt lat="44.14447" lon="3.56308">
        <ele>1407.4</ele>
        <time>2021-08-12T11:43:33Z</time>
      </trkpt>
      <trkpt lat="44.14443" lon="3.56309">
        <ele>1407.8</ele>
        <time>2021-08-12T11:43:35Z</time>
      </trkpt>
      <trkpt lat="44.1444" lon="3.56312">
        <ele>1408.3</ele>
        <time>2021-08-12T11:43:37Z</time>
      </trkpt>
      <trkpt lat="44.14437" lon="3.56314">
        <ele>1408.8</ele>
        <time>2021-08-12T11:43:39Z</time>
      </trkpt>
      <trkpt lat="44.14434" lon="3.56316">
        <ele>1409.3</ele>
        <time>2021-08-12T11:43:41Z</time>
      </trkpt>
      <trkpt lat="44.14431" lon="3.56319">
        <ele>1409.8</ele>
        <time>2021-08-12T11:43:43Z</time>
      </trkpt>
      <trkpt lat="44.14428" lon="3.56321">
        <ele>1410.3</ele>
        <time>2021-08-12T11:43:45Z</time>
      </trkpt>
      <trkpt lat="44.14425" lon="3.56324">
        <ele>1410.9</ele>
        <time>2021-08-12T11:43:47Z</time>
      </trkpt>
      <trkpt lat="44.14422" lon="3.56325">
        <ele>1411.4</ele>
        <time>2021-08-12T11:43:49Z</time>
      </trkpt>
      <trkpt lat="44.14419" lon="3.56327">
        <ele>1412</ele>
        <time>2021-08-12T11:43:51Z</time>
      </trkpt>
      <trkpt lat="44.14416" lon="3.56329">
        <ele>1412.5</ele>
        <time>2021-08-12T11:43:53Z</time>
      </trkpt>
      <trkpt lat="44.14414" lon="3.56332">
        <ele>1412.9</ele>
        <time>2021-08-12T11:43:55Z</time>
      </trkpt>
      <trkpt lat="44.14411" lon="3.56334">
        <ele>1413.2</ele>
        <time>2021-08-12T11:43:57Z</time>
      </trkpt>
      <trkpt lat="44.14408" lon="3.56336">
        <ele>1413.3</ele>
        <time>2021-08-12T11:43:59Z</time>
      </trkpt>
      <trkpt lat="44.14405" lon="3.56338">
        <ele>1413.4</ele>
        <time>2021-08-12T11:44:01Z</time>
      </trkpt>
      <trkpt lat="44.14402" lon="3.56341">
        <ele>1413.5</ele>
        <time>2021-08-12T11:44:03Z</time>
      </trkpt>
      <trkpt lat="44.14398" lon="3.56343">
        <ele>1413.7</ele>
        <time>2021-08-12T11:44:05Z</time>
      </trkpt>
      <trkpt lat="44.14396" lon="3.56346">
        <ele>1413.9</ele>
        <time>2021-08-12T11:44:07Z</time>
      </trkpt>
      <trkpt lat="44.14393" lon="3.56348">
        <ele>1414.1</ele>
        <time>2021-08-12T11:44:09Z</time>
      </trkpt>
      <trkpt lat="44.1439" lon="3.5635">
        <ele>1414.3</ele>
        <time>2021-08-12T11:44:11Z</time>
      </trkpt>
      <trkpt lat="44.14387" lon="3.56352">
        <ele>1414.6</ele>
        <time>2021-08-12T11:44:13Z</time>
      </trkpt>
      <trkpt lat="44.14385" lon="3.56354">
        <ele>1414.8</ele>
        <time>2021-08-12T11:44:15Z</time>
      </trkpt>
      <trkpt lat="44.14381" lon="3.56356">
        <ele>1415.1</ele>
        <time>2021-08-12T11:44:17Z</time>
      </trkpt>
      <trkpt lat="44.14379" lon="3.56358">
        <ele>1415.4</ele>
        <time>2021-08-12T11:44:19Z</time>
      </trkpt>
      <trkpt lat="44.14376" lon="3.5636">
        <ele>1415.7</ele>
        <time>2021-08-12T11:44:21Z</time>
      </trkpt>
      <trkpt lat="44.14373" lon="3.56362">
        <ele>1416</ele>
        <time>2021-08-12T11:44:23Z</time>
      </trkpt>
      <trkpt lat="44.1437" lon="3.56365">
        <ele>1416.4</ele>
        <time>2021-08-12T11:44:25Z</time>
      </trkpt>
      <trkpt lat="44.14367" lon="3.56366">
        <ele>1416.8</ele>
        <time>2021-08-12T11:44:27Z</time>
      </trkpt>
      <trkpt lat="44.14364" lon="3.56369">
        <ele>1417.2</ele>
        <time>2021-08-12T11:44:29Z</time>
      </trkpt>
      <trkpt lat="44.14362" lon="3.56371">
        <ele>1417.6</ele>
        <time>2021-08-12T11:44:31Z</time>
      </trkpt>
      <trkpt lat="44.14358" lon="3.56373">
        <ele>1418.1</ele>
        <time>2021-08-12T11:44:33Z</time>
      </trkpt>
      <trkpt lat="44.14355" lon="3.56375">
        <ele>1418.5</ele>
        <time>2021-08-12T11:44:35Z</time>
      </trkpt>
      <trkpt lat="44.14352" lon="3.56377">
        <ele>1419</ele>
        <time>2021-08-12T11:44:37Z</time>
      </trkpt>
      <trkpt lat="44.14349" lon="3.56379">
        <ele>1419.5</ele>
        <time>2021-08-12T11:44:39Z</time>
      </trkpt>
      <trkpt lat="44.14346" lon="3.56381">
        <ele>1420.1</ele>
        <time>2021-08-12T11:44:41Z</time>
      </trkpt>
      <trkpt lat="44.14343" lon="3.56383">
        <ele>1420.6</ele>
        <time>2021-08-12T11:44:43Z</time>
      </trkpt>
      <trkpt lat="44.1434" lon="3.56385">
        <ele>1421.1</ele>
        <time>2021-08-12T11:44:45Z</time>
      </trkpt>
      <trkpt lat="44.14336" lon="3.56387">
        <ele>1421.8</ele>
        <time>2021-08-12T11:44:47Z</time>
      </trkpt>
      <trkpt lat="44.14333" lon="3.56389">
        <ele>1422.3</ele>
        <time>2021-08-12T11:44:49Z</time>
      </trkpt>
      <trkpt lat="44.1433" lon="3.56391">
        <ele>1422.7</ele>
        <time>2021-08-12T11:44:51Z</time>
      </trkpt>
      <trkpt lat="44.14326" lon="3.56392">
        <ele>1423</ele>
        <time>2021-08-12T11:44:53Z</time>
      </trkpt>
      <trkpt lat="44.14323" lon="3.56394">
        <ele>1423.3</ele>
        <time>2021-08-12T11:44:55Z</time>
      </trkpt>
      <trkpt lat="44.1432" lon="3.56395">
        <ele>1423.6</ele>
        <time>2021-08-12T11:44:57Z</time>
      </trkpt>
      <trkpt lat="44.14317" lon="3.56396">
        <ele>1423.9</ele>
        <time>2021-08-12T11:44:59Z</time>
      </trkpt>
      <trkpt lat="44.14314" lon="3.56398">
        <ele>1424.2</ele>
        <time>2021-08-12T11:45:01Z</time>
      </trkpt>
      <trkpt lat="44.14311" lon="3.56398">
        <ele>1424.4</ele>
        <time>2021-08-12T11:45:03Z</time>
      </trkpt>
      <trkpt lat="44.14307" lon="3.564">
        <ele>1424.7</ele>
        <time>2021-08-12T11:45:05Z</time>
      </trkpt>
      <trkpt lat="44.14304" lon="3.56401">
        <ele>1425</ele>
        <time>2021-08-12T11:45:07Z</time>
      </trkpt>
      <trkpt lat="44.14301" lon="3.56402">
        <ele>1425.2</ele>
        <time>2021-08-12T11:45:09Z</time>
      </trkpt>
      <trkpt lat="44.14298" lon="3.56403">
        <ele>1425.6</ele>
        <time>2021-08-12T11:45:11Z</time>
      </trkpt>
      <trkpt lat="44.14295" lon="3.56404">
        <ele>1425.8</ele>
        <time>2021-08-12T11:45:13Z</time>
      </trkpt>
      <trkpt lat="44.14292" lon="3.56405">
        <ele>1426.2</ele>
        <time>2021-08-12T11:45:15Z</time>
      </trkpt>
      <trkpt lat="44.14289" lon="3.56406">
        <ele>1426.5</ele>
        <time>2021-08-12T11:45:17Z</time>
      </trkpt>
      <trkpt lat="44.14286" lon="3.56408">
        <ele>1426.8</ele>
        <time>2021-08-12T11:45:19Z</time>
      </trkpt>
      <trkpt lat="44.14282" lon="3.5641">
        <ele>1427.2</ele>
        <time>2021-08-12T11:45:21Z</time>
      </trkpt>
      <trkpt lat="44.14279" lon="3.56411">
        <ele>1427.6</ele>
        <time>2021-08-12T11:45:23Z</time>
      </trkpt>
      <trkpt lat="44.14276" lon="3.56411">
        <ele>1427.8</ele>
        <time>2021-08-12T11:45:25Z</time>
      </trkpt>
      <trkpt lat="44.14273" lon="3.5641">
        <ele>1427.8</ele>
        <time>2021-08-12T11:45:27Z</time>
      </trkpt>
      <trkpt lat="44.1427" lon="3.56411">
        <ele>1427.9</ele>
        <time>2021-08-12T11:45:29Z</time>
      </trkpt>
      <trkpt lat="44.14271" lon="3.56411">
        <ele>1428</ele>
        <time>2021-08-12T11:45:31Z</time>
      </trkpt>
      <trkpt lat="44.14271" lon="3.56411">
        <ele>1428</ele>
        <time>2021-08-12T11:45:33Z</time>
      </trkpt>
      <trkpt lat="44.14271" lon="3.56411">
        <ele>1427.9</ele>
        <time>2021-08-12T11:45:35Z</time>
      </trkpt>
      <trkpt lat="44.14271" lon="3.5641">
        <ele>1427.9</ele>
        <time>2021-08-12T11:45:37Z</time>
      </trkpt>
      <trkpt lat="44.14271" lon="3.5641">
        <ele>1427.9</ele>
        <time>2021-08-12T11:45:39Z</time>
      </trkpt>
      <trkpt lat="44.14261" lon="3.5642">
        <ele>1430.2</ele>
        <time>2021-08-12T11:57:45Z</time>
      </trkpt>
      <trkpt lat="44.14258" lon="3.56422">
        <ele>1430.6</ele>
        <time>2021-08-12T11:57:47Z</time>
      </trkpt>
      <trkpt lat="44.14255" lon="3.56423">
        <ele>1431</ele>
        <time>2021-08-12T11:57:49Z</time>
      </trkpt>
      <trkpt lat="44.14253" lon="3.56424">
        <ele>1431.3</ele>
        <time>2021-08-12T11:57:51Z</time>
      </trkpt>
      <trkpt lat="44.1425" lon="3.56425">
        <ele>1431.6</ele>
        <time>2021-08-12T11:57:53Z</time>
      </trkpt>
      <trkpt lat="44.14249" lon="3.56427">
        <ele>1432</ele>
        <time>2021-08-12T11:57:55Z</time>
      </trkpt>
      <trkpt lat="44.14246" lon="3.56427">
        <ele>1432.1</ele>
        <time>2021-08-12T11:57:57Z</time>
      </trkpt>
      <trkpt lat="44.14243" lon="3.56428">
        <ele>1432.2</ele>
        <time>2021-08-12T11:57:59Z</time>
      </trkpt>
      <trkpt lat="44.14241" lon="3.56429">
        <ele>1432.4</ele>
        <time>2021-08-12T11:58:01Z</time>
      </trkpt>
      <trkpt lat="44.14238" lon="3.5643">
        <ele>1432.6</ele>
        <time>2021-08-12T11:58:03Z</time>
      </trkpt>
      <trkpt lat="44.14236" lon="3.5643">
        <ele>1432.7</ele>
        <time>2021-08-12T11:58:05Z</time>
      </trkpt>
      <trkpt lat="44.14233" lon="3.56431">
        <ele>1432.9</ele>
        <time>2021-08-12T11:58:07Z</time>
      </trkpt>
      <trkpt lat="44.14231" lon="3.56432">
        <ele>1433.1</ele>
        <time>2021-08-12T11:58:09Z</time>
      </trkpt>
      <trkpt lat="44.14228" lon="3.56433">
        <ele>1433.2</ele>
        <time>2021-08-12T11:58:11Z</time>
      </trkpt>
      <trkpt lat="44.14226" lon="3.56433">
        <ele>1433.3</ele>
        <time>2021-08-12T11:58:13Z</time>
      </trkpt>
      <trkpt lat="44.14223" lon="3.56434">
        <ele>1433.5</ele>
        <time>2021-08-12T11:58:15Z</time>
      </trkpt>
      <trkpt lat="44.14221" lon="3.56435">
        <ele>1433.7</ele>
        <time>2021-08-12T11:58:17Z</time>
      </trkpt>
      <trkpt lat="44.14218" lon="3.56436">
        <ele>1433.9</ele>
        <time>2021-08-12T11:58:19Z</time>
      </trkpt>
      <trkpt lat="44.14215" lon="3.56437">
        <ele>1434.1</ele>
        <time>2021-08-12T11:58:21Z</time>
      </trkpt>
      <trkpt lat="44.14213" lon="3.56437">
        <ele>1434.2</ele>
        <time>2021-08-12T11:58:23Z</time>
      </trkpt>
      <trkpt lat="44.1421" lon="3.56439">
        <ele>1434.6</ele>
        <time>2021-08-12T11:58:25Z</time>
      </trkpt>
      <trkpt lat="44.14207" lon="3.5644">
        <ele>1434.9</ele>
        <time>2021-08-12T11:58:27Z</time>
      </trkpt>
      <trkpt lat="44.14205" lon="3.5644">
        <ele>1434.9</ele>
        <time>2021-08-12T11:58:29Z</time>
      </trkpt>
      <trkpt lat="44.14202" lon="3.56442">
        <ele>1435.2</ele>
        <time>2021-08-12T11:58:31Z</time>
      </trkpt>
      <trkpt lat="44.14199" lon="3.56443">
        <ele>1435.5</ele>
        <time>2021-08-12T11:58:33Z</time>
      </trkpt>
      <trkpt lat="44.14197" lon="3.56444">
        <ele>1435.7</ele>
        <time>2021-08-12T11:58:35Z</time>
      </trkpt>
      <trkpt lat="44.14194" lon="3.56444">
        <ele>1435.8</ele>
        <time>2021-08-12T11:58:37Z</time>
      </trkpt>
      <trkpt lat="44.14191" lon="3.56445">
        <ele>1436</ele>
        <time>2021-08-12T11:58:39Z</time>
      </trkpt>
      <trkpt lat="44.14188" lon="3.56446">
        <ele>1436.3</ele>
        <time>2021-08-12T11:58:41Z</time>
      </trkpt>
      <trkpt lat="44.14185" lon="3.56447">
        <ele>1436.6</ele>
        <time>2021-08-12T11:58:43Z</time>
      </trkpt>
      <trkpt lat="44.14183" lon="3.56448">
        <ele>1436.8</ele>
        <time>2021-08-12T11:58:45Z</time>
      </trkpt>
      <trkpt lat="44.1418" lon="3.56449">
        <ele>1437</ele>
        <time>2021-08-12T11:58:47Z</time>
      </trkpt>
      <trkpt lat="44.14177" lon="3.5645">
        <ele>1437.3</ele>
        <time>2021-08-12T11:58:49Z</time>
      </trkpt>
      <trkpt lat="44.14174" lon="3.56451">
        <ele>1437.6</ele>
        <time>2021-08-12T11:58:51Z</time>
      </trkpt>
      <trkpt lat="44.14172" lon="3.56452">
        <ele>1437.8</ele>
        <time>2021-08-12T11:58:53Z</time>
      </trkpt>
      <trkpt lat="44.14169" lon="3.56453">
        <ele>1438.1</ele>
        <time>2021-08-12T11:58:55Z</time>
      </trkpt>
      <trkpt lat="44.14166" lon="3.56454">
        <ele>1438.4</ele>
        <time>2021-08-12T11:58:57Z</time>
      </trkpt>
      <trkpt lat="44.14163" lon="3.56455">
        <ele>1438.8</ele>
        <time>2021-08-12T11:58:59Z</time>
      </trkpt>
      <trkpt lat="44.14161" lon="3.56455">
        <ele>1439.2</ele>
        <time>2021-08-12T11:59:01Z</time>
      </trkpt>
      <trkpt lat="44.14158" lon="3.56456">
        <ele>1439.6</ele>
        <time>2021-08-12T11:59:03Z</time>
      </trkpt>
      <trkpt lat="44.14155" lon="3.56457">
        <ele>1440</ele>
        <time>2021-08-12T11:59:05Z</time>
      </trkpt>
      <trkpt lat="44.14153" lon="3.56458">
        <ele>1440.5</ele>
        <time>2021-08-12T11:59:07Z</time>
      </trkpt>
      <trkpt lat="44.1415" lon="3.56459">
        <ele>1440.9</ele>
        <time>2021-08-12T11:59:09Z</time>
      </trkpt>
      <trkpt lat="44.14147" lon="3.5646">
        <ele>1441.4</ele>
        <time>2021-08-12T11:59:11Z</time>
      </trkpt>
      <trkpt lat="44.14144" lon="3.5646">
        <ele>1441.7</ele>
        <time>2021-08-12T11:59:13Z</time>
      </trkpt>
      <trkpt lat="44.14142" lon="3.56461">
        <ele>1442.1</ele>
        <time>2021-08-12T11:59:15Z</time>
      </trkpt>
      <trkpt lat="44.14139" lon="3.56462">
        <ele>1442.5</ele>
        <time>2021-08-12T11:59:17Z</time>
      </trkpt>
      <trkpt lat="44.14136" lon="3.56462">
        <ele>1442.9</ele>
        <time>2021-08-12T11:59:19Z</time>
      </trkpt>
      <trkpt lat="44.14133" lon="3.56463">
        <ele>1443.3</ele>
        <time>2021-08-12T11:59:21Z</time>
      </trkpt>
      <trkpt lat="44.1413" lon="3.56464">
        <ele>1443.6</ele>
        <time>2021-08-12T11:59:23Z</time>
      </trkpt>
      <trkpt lat="44.14127" lon="3.56464">
        <ele>1444</ele>
        <time>2021-08-12T11:59:25Z</time>
      </trkpt>
      <trkpt lat="44.14124" lon="3.56465">
        <ele>1444.5</ele>
        <time>2021-08-12T11:59:27Z</time>
      </trkpt>
      <trkpt lat="44.14121" lon="3.56465">
        <ele>1444.7</ele>
        <time>2021-08-12T11:59:29Z</time>
      </trkpt>
      <trkpt lat="44.14119" lon="3.56466">
        <ele>1445</ele>
        <time>2021-08-12T11:59:31Z</time>
      </trkpt>
      <trkpt lat="44.14116" lon="3.56466">
        <ele>1445.3</ele>
        <time>2021-08-12T11:59:33Z</time>
      </trkpt>
      <trkpt lat="44.14113" lon="3.56466">
        <ele>1445.5</ele>
        <time>2021-08-12T11:59:35Z</time>
      </trkpt>
      <trkpt lat="44.1411" lon="3.56467">
        <ele>1446</ele>
        <time>2021-08-12T11:59:37Z</time>
      </trkpt>
      <trkpt lat="44.14107" lon="3.56467">
        <ele>1446.2</ele>
        <time>2021-08-12T11:59:39Z</time>
      </trkpt>
      <trkpt lat="44.14104" lon="3.56467">
        <ele>1446.4</ele>
        <time>2021-08-12T11:59:41Z</time>
      </trkpt>
      <trkpt lat="44.14102" lon="3.56467">
        <ele>1446.6</ele>
        <time>2021-08-12T11:59:43Z</time>
      </trkpt>
      <trkpt lat="44.14099" lon="3.56466">
        <ele>1446.7</ele>
        <time>2021-08-12T11:59:45Z</time>
      </trkpt>
      <trkpt lat="44.14097" lon="3.56466">
        <ele>1446.8</ele>
        <time>2021-08-12T11:59:47Z</time>
      </trkpt>
      <trkpt lat="44.14094" lon="3.56466">
        <ele>1446.9</ele>
        <time>2021-08-12T11:59:49Z</time>
      </trkpt>
      <trkpt lat="44.14091" lon="3.56465">
        <ele>1447.1</ele>
        <time>2021-08-12T11:59:51Z</time>
      </trkpt>
      <trkpt lat="44.14089" lon="3.56465">
        <ele>1447.2</ele>
        <time>2021-08-12T11:59:53Z</time>
      </trkpt>
      <trkpt lat="44.14086" lon="3.56465">
        <ele>1447.4</ele>
        <time>2021-08-12T11:59:55Z</time>
      </trkpt>
      <trkpt lat="44.14083" lon="3.56465">
        <ele>1447.7</ele>
        <time>2021-08-12T11:59:57Z</time>
      </trkpt>
      <trkpt lat="44.14081" lon="3.56465">
        <ele>1447.9</ele>
        <time>2021-08-12T11:59:59Z</time>
      </trkpt>
      <trkpt lat="44.14078" lon="3.56465">
        <ele>1448.1</ele>
        <time>2021-08-12T12:00:01Z</time>
      </trkpt>
      <trkpt lat="44.14075" lon="3.56465">
        <ele>1448.3</ele>
        <time>2021-08-12T12:00:03Z</time>
      </trkpt>
      <trkpt lat="44.14072" lon="3.56465">
        <ele>1448.5</ele>
        <time>2021-08-12T12:00:05Z</time>
      </trkpt>
      <trkpt lat="44.1407" lon="3.56465">
        <ele>1448.6</ele>
        <time>2021-08-12T12:00:07Z</time>
      </trkpt>
      <trkpt lat="44.14067" lon="3.56464">
        <ele>1448.6</ele>
        <time>2021-08-12T12:00:09Z</time>
      </trkpt>
      <trkpt lat="44.14065" lon="3.56464">
        <ele>1448.8</ele>
        <time>2021-08-12T12:00:11Z</time>
      </trkpt>
      <trkpt lat="44.14062" lon="3.56464">
        <ele>1449</ele>
        <time>2021-08-12T12:00:13Z</time>
      </trkpt>
      <trkpt lat="44.14059" lon="3.56464">
        <ele>1449.2</ele>
        <time>2021-08-12T12:00:15Z</time>
      </trkpt>
      <trkpt lat="44.14056" lon="3.56464">
        <ele>1449.4</ele>
        <time>2021-08-12T12:00:17Z</time>
      </trkpt>
      <trkpt lat="44.14054" lon="3.56464">
        <ele>1449.6</ele>
        <time>2021-08-12T12:00:19Z</time>
      </trkpt>
      <trkpt lat="44.14051" lon="3.56464">
        <ele>1449.8</ele>
        <time>2021-08-12T12:00:21Z</time>
      </trkpt>
      <trkpt lat="44.14048" lon="3.56464">
        <ele>1450.1</ele>
        <time>2021-08-12T12:00:23Z</time>
      </trkpt>
      <trkpt lat="44.14045" lon="3.56464">
        <ele>1450.3</ele>
        <time>2021-08-12T12:00:25Z</time>
      </trkpt>
      <trkpt lat="44.14042" lon="3.56465">
        <ele>1450.6</ele>
        <time>2021-08-12T12:00:27Z</time>
      </trkpt>
      <trkpt lat="44.1404" lon="3.56465">
        <ele>1450.9</ele>
        <time>2021-08-12T12:00:29Z</time>
      </trkpt>
      <trkpt lat="44.14037" lon="3.56465">
        <ele>1451.1</ele>
        <time>2021-08-12T12:00:31Z</time>
      </trkpt>
      <trkpt lat="44.14034" lon="3.56466">
        <ele>1451.4</ele>
        <time>2021-08-12T12:00:33Z</time>
      </trkpt>
      <trkpt lat="44.14031" lon="3.56466">
        <ele>1451.7</ele>
        <time>2021-08-12T12:00:35Z</time>
      </trkpt>
      <trkpt lat="44.14029" lon="3.56467">
        <ele>1452.1</ele>
        <time>2021-08-12T12:00:37Z</time>
      </trkpt>
      <trkpt lat="44.14026" lon="3.56467">
        <ele>1452.4</ele>
        <time>2021-08-12T12:00:39Z</time>
      </trkpt>
      <trkpt lat="44.14023" lon="3.56468">
        <ele>1452.8</ele>
        <time>2021-08-12T12:00:41Z</time>
      </trkpt>
      <trkpt lat="44.1402" lon="3.56469">
        <ele>1453.2</ele>
        <time>2021-08-12T12:00:43Z</time>
      </trkpt>
      <trkpt lat="44.14017" lon="3.56469">
        <ele>1453.6</ele>
        <time>2021-08-12T12:00:45Z</time>
      </trkpt>
      <trkpt lat="44.14014" lon="3.5647">
        <ele>1454</ele>
        <time>2021-08-12T12:00:47Z</time>
      </trkpt>
      <trkpt lat="44.14011" lon="3.56471">
        <ele>1454.5</ele>
        <time>2021-08-12T12:00:49Z</time>
      </trkpt>
      <trkpt lat="44.14008" lon="3.56472">
        <ele>1455</ele>
        <time>2021-08-12T12:00:51Z</time>
      </trkpt>
      <trkpt lat="44.14005" lon="3.56473">
        <ele>1455.4</ele>
        <time>2021-08-12T12:00:53Z</time>
      </trkpt>
      <trkpt lat="44.14003" lon="3.56473">
        <ele>1455.7</ele>
        <time>2021-08-12T12:00:55Z</time>
      </trkpt>
      <trkpt lat="44.14" lon="3.56474">
        <ele>1456.2</ele>
        <time>2021-08-12T12:00:57Z</time>
      </trkpt>
      <trkpt lat="44.13997" lon="3.56475">
        <ele>1456.8</ele>
        <time>2021-08-12T12:00:59Z</time>
      </trkpt>
      <trkpt lat="44.13994" lon="3.56476">
        <ele>1457.4</ele>
        <time>2021-08-12T12:01:01Z</time>
      </trkpt>
      <trkpt lat="44.13991" lon="3.56477">
        <ele>1458.1</ele>
        <time>2021-08-12T12:01:03Z</time>
      </trkpt>
      <trkpt lat="44.13988" lon="3.56477">
        <ele>1458.7</ele>
        <time>2021-08-12T12:01:05Z</time>
      </trkpt>
      <trkpt lat="44.13986" lon="3.56477">
        <ele>1459</ele>
        <time>2021-08-12T12:01:07Z</time>
      </trkpt>
      <trkpt lat="44.13983" lon="3.56477">
        <ele>1459.5</ele>
        <time>2021-08-12T12:01:09Z</time>
      </trkpt>
      <trkpt lat="44.1398" lon="3.56477">
        <ele>1459.8</ele>
        <time>2021-08-12T12:01:11Z</time>
      </trkpt>
      <trkpt lat="44.13977" lon="3.56477">
        <ele>1460.1</ele>
        <time>2021-08-12T12:01:13Z</time>
      </trkpt>
      <trkpt lat="44.13975" lon="3.56477">
        <ele>1460.6</ele>
        <time>2021-08-12T12:01:15Z</time>
      </trkpt>
      <trkpt lat="44.13972" lon="3.56477">
        <ele>1460.8</ele>
        <time>2021-08-12T12:01:17Z</time>
      </trkpt>
      <trkpt lat="44.13969" lon="3.56476">
        <ele>1461.1</ele>
        <time>2021-08-12T12:01:19Z</time>
      </trkpt>
      <trkpt lat="44.13966" lon="3.56476">
        <ele>1461.4</ele>
        <time>2021-08-12T12:01:21Z</time>
      </trkpt>
      <trkpt lat="44.13964" lon="3.56475">
        <ele>1461.6</ele>
        <time>2021-08-12T12:01:23Z</time>
      </trkpt>
      <trkpt lat="44.1396" lon="3.56475">
        <ele>1461.9</ele>
        <time>2021-08-12T12:01:25Z</time>
      </trkpt>
      <trkpt lat="44.13957" lon="3.56474">
        <ele>1462</ele>
        <time>2021-08-12T12:01:27Z</time>
      </trkpt>
      <trkpt lat="44.13955" lon="3.56474">
        <ele>1462.4</ele>
        <time>2021-08-12T12:01:29Z</time>
      </trkpt>
      <trkpt lat="44.13952" lon="3.56472">
        <ele>1462.4</ele>
        <time>2021-08-12T12:01:31Z</time>
      </trkpt>
      <trkpt lat="44.13949" lon="3.56471">
        <ele>1462.5</ele>
        <time>2021-08-12T12:01:33Z</time>
      </trkpt>
      <trkpt lat="44.13947" lon="3.5647">
        <ele>1462.6</ele>
        <time>2021-08-12T12:01:35Z</time>
      </trkpt>
      <trkpt lat="44.13944" lon="3.56469">
        <ele>1462.7</ele>
        <time>2021-08-12T12:01:37Z</time>
      </trkpt>
      <trkpt lat="44.1394" lon="3.56468">
        <ele>1462.8</ele>
        <time>2021-08-12T12:01:39Z</time>
      </trkpt>
      <trkpt lat="44.13937" lon="3.56467">
        <ele>1462.9</ele>
        <time>2021-08-12T12:01:41Z</time>
      </trkpt>
      <trkpt lat="44.13935" lon="3.56465">
        <ele>1462.9</ele>
        <time>2021-08-12T12:01:43Z</time>
      </trkpt>
      <trkpt lat="44.13932" lon="3.56464">
        <ele>1462.9</ele>
        <time>2021-08-12T12:01:45Z</time>
      </trkpt>
      <trkpt lat="44.1393" lon="3.56463">
        <ele>1463</ele>
        <time>2021-08-12T12:01:47Z</time>
      </trkpt>
      <trkpt lat="44.13926" lon="3.56462">
        <ele>1463.2</ele>
        <time>2021-08-12T12:01:49Z</time>
      </trkpt>
      <trkpt lat="44.13923" lon="3.56461">
        <ele>1463.3</ele>
        <time>2021-08-12T12:01:51Z</time>
      </trkpt>
      <trkpt lat="44.1392" lon="3.5646">
        <ele>1463.5</ele>
        <time>2021-08-12T12:01:53Z</time>
      </trkpt>
      <trkpt lat="44.13917" lon="3.56459">
        <ele>1463.5</ele>
        <time>2021-08-12T12:01:55Z</time>
      </trkpt>
      <trkpt lat="44.13914" lon="3.56458">
        <ele>1463.6</ele>
        <time>2021-08-12T12:01:57Z</time>
      </trkpt>
      <trkpt lat="44.13911" lon="3.56457">
        <ele>1463.8</ele>
        <time>2021-08-12T12:01:59Z</time>
      </trkpt>
      <trkpt lat="44.13908" lon="3.56456">
        <ele>1464</ele>
        <time>2021-08-12T12:02:01Z</time>
      </trkpt>
      <trkpt lat="44.13906" lon="3.56455">
        <ele>1463.9</ele>
        <time>2021-08-12T12:02:03Z</time>
      </trkpt>
      <trkpt lat="44.13903" lon="3.56454">
        <ele>1464.1</ele>
        <time>2021-08-12T12:02:05Z</time>
      </trkpt>
      <trkpt lat="44.139" lon="3.56452">
        <ele>1464</ele>
        <time>2021-08-12T12:02:07Z</time>
      </trkpt>
      <trkpt lat="44.13898" lon="3.56451">
        <ele>1464.1</ele>
        <time>2021-08-12T12:02:09Z</time>
      </trkpt>
      <trkpt lat="44.13895" lon="3.5645">
        <ele>1464.1</ele>
        <time>2021-08-12T12:02:11Z</time>
      </trkpt>
      <trkpt lat="44.13892" lon="3.5645">
        <ele>1464.5</ele>
        <time>2021-08-12T12:02:13Z</time>
      </trkpt>
      <trkpt lat="44.13889" lon="3.5645">
        <ele>1464.8</ele>
        <time>2021-08-12T12:02:15Z</time>
      </trkpt>
      <trkpt lat="44.13886" lon="3.56449">
        <ele>1465.1</ele>
        <time>2021-08-12T12:02:17Z</time>
      </trkpt>
      <trkpt lat="44.13883" lon="3.56449">
        <ele>1465.4</ele>
        <time>2021-08-12T12:02:19Z</time>
      </trkpt>
      <trkpt lat="44.1388" lon="3.56448">
        <ele>1465.7</ele>
        <time>2021-08-12T12:02:21Z</time>
      </trkpt>
      <trkpt lat="44.13877" lon="3.56448">
        <ele>1466</ele>
        <time>2021-08-12T12:02:23Z</time>
      </trkpt>
      <trkpt lat="44.13874" lon="3.56448">
        <ele>1466.3</ele>
        <time>2021-08-12T12:02:25Z</time>
      </trkpt>
      <trkpt lat="44.13871" lon="3.56448">
        <ele>1466.7</ele>
        <time>2021-08-12T12:02:27Z</time>
      </trkpt>
      <trkpt lat="44.13868" lon="3.56448">
        <ele>1467.1</ele>
        <time>2021-08-12T12:02:29Z</time>
      </trkpt>
      <trkpt lat="44.13865" lon="3.56447">
        <ele>1467.3</ele>
        <time>2021-08-12T12:02:31Z</time>
      </trkpt>
      <trkpt lat="44.13863" lon="3.56447">
        <ele>1467.7</ele>
        <time>2021-08-12T12:02:33Z</time>
      </trkpt>
      <trkpt lat="44.1386" lon="3.56447">
        <ele>1468</ele>
        <time>2021-08-12T12:02:35Z</time>
      </trkpt>
      <trkpt lat="44.13856" lon="3.56447">
        <ele>1468.5</ele>
        <time>2021-08-12T12:02:37Z</time>
      </trkpt>
      <trkpt lat="44.13854" lon="3.56447">
        <ele>1468.9</ele>
        <time>2021-08-12T12:02:39Z</time>
      </trkpt>
      <trkpt lat="44.13851" lon="3.56446">
        <ele>1469.2</ele>
        <time>2021-08-12T12:02:41Z</time>
      </trkpt>
      <trkpt lat="44.13848" lon="3.56446">
        <ele>1469.6</ele>
        <time>2021-08-12T12:02:43Z</time>
      </trkpt>
      <trkpt lat="44.13844" lon="3.56446">
        <ele>1470</ele>
        <time>2021-08-12T12:02:45Z</time>
      </trkpt>
      <trkpt lat="44.13841" lon="3.56446">
        <ele>1470.4</ele>
        <time>2021-08-12T12:02:47Z</time>
      </trkpt>
      <trkpt lat="44.13838" lon="3.56447">
        <ele>1470.9</ele>
        <time>2021-08-12T12:02:49Z</time>
      </trkpt>
      <trkpt lat="44.13835" lon="3.56446">
        <ele>1471.3</ele>
        <time>2021-08-12T12:02:51Z</time>
      </trkpt>
      <trkpt lat="44.13832" lon="3.56446">
        <ele>1471.6</ele>
        <time>2021-08-12T12:02:53Z</time>
      </trkpt>
      <trkpt lat="44.13828" lon="3.56447">
        <ele>1471.8</ele>
        <time>2021-08-12T12:02:55Z</time>
      </trkpt>
      <trkpt lat="44.13825" lon="3.56446">
        <ele>1471.9</ele>
        <time>2021-08-12T12:02:57Z</time>
      </trkpt>
      <trkpt lat="44.13822" lon="3.56446">
        <ele>1472.1</ele>
        <time>2021-08-12T12:02:59Z</time>
      </trkpt>
      <trkpt lat="44.13819" lon="3.56446">
        <ele>1472.3</ele>
        <time>2021-08-12T12:03:01Z</time>
      </trkpt>
      <trkpt lat="44.13815" lon="3.56447">
        <ele>1472.6</ele>
        <time>2021-08-12T12:03:03Z</time>
      </trkpt>
      <trkpt lat="44.13812" lon="3.56447">
        <ele>1472.7</ele>
        <time>2021-08-12T12:03:05Z</time>
      </trkpt>
      <trkpt lat="44.13809" lon="3.56446">
        <ele>1472.9</ele>
        <time>2021-08-12T12:03:07Z</time>
      </trkpt>
      <trkpt lat="44.13805" lon="3.56446">
        <ele>1473</ele>
        <time>2021-08-12T12:03:09Z</time>
      </trkpt>
      <trkpt lat="44.13802" lon="3.56447">
        <ele>1473.3</ele>
        <time>2021-08-12T12:03:11Z</time>
      </trkpt>
      <trkpt lat="44.13799" lon="3.56447">
        <ele>1473.4</ele>
        <time>2021-08-12T12:03:13Z</time>
      </trkpt>
      <trkpt lat="44.13796" lon="3.56446">
        <ele>1473.5</ele>
        <time>2021-08-12T12:03:15Z</time>
      </trkpt>
      <trkpt lat="44.13793" lon="3.56447">
        <ele>1473.8</ele>
        <time>2021-08-12T12:03:17Z</time>
      </trkpt>
      <trkpt lat="44.13789" lon="3.56446">
        <ele>1473.9</ele>
        <time>2021-08-12T12:03:19Z</time>
      </trkpt>
      <trkpt lat="44.13786" lon="3.56446">
        <ele>1474</ele>
        <time>2021-08-12T12:03:21Z</time>
      </trkpt>
      <trkpt lat="44.13783" lon="3.56446">
        <ele>1474.2</ele>
        <time>2021-08-12T12:03:23Z</time>
      </trkpt>
      <trkpt lat="44.1378" lon="3.56446">
        <ele>1474.3</ele>
        <time>2021-08-12T12:03:25Z</time>
      </trkpt>
      <trkpt lat="44.13777" lon="3.56446">
        <ele>1474.5</ele>
        <time>2021-08-12T12:03:27Z</time>
      </trkpt>
      <trkpt lat="44.13774" lon="3.56446">
        <ele>1474.7</ele>
        <time>2021-08-12T12:03:29Z</time>
      </trkpt>
      <trkpt lat="44.1377" lon="3.56446">
        <ele>1475</ele>
        <time>2021-08-12T12:03:31Z</time>
      </trkpt>
      <trkpt lat="44.13767" lon="3.56446">
        <ele>1475.1</ele>
        <time>2021-08-12T12:03:33Z</time>
      </trkpt>
      <trkpt lat="44.13764" lon="3.56446">
        <ele>1475.1</ele>
        <time>2021-08-12T12:03:35Z</time>
      </trkpt>
      <trkpt lat="44.13761" lon="3.56446">
        <ele>1475.4</ele>
        <time>2021-08-12T12:03:37Z</time>
      </trkpt>
      <trkpt lat="44.13757" lon="3.56446">
        <ele>1475.6</ele>
        <time>2021-08-12T12:03:39Z</time>
      </trkpt>
      <trkpt lat="44.13754" lon="3.56446">
        <ele>1475.7</ele>
        <time>2021-08-12T12:03:41Z</time>
      </trkpt>
      <trkpt lat="44.13751" lon="3.56446">
        <ele>1475.9</ele>
        <time>2021-08-12T12:03:43Z</time>
      </trkpt>
      <trkpt lat="44.13748" lon="3.56446">
        <ele>1476.2</ele>
        <time>2021-08-12T12:03:45Z</time>
      </trkpt>
      <trkpt lat="44.13744" lon="3.56446">
        <ele>1476.7</ele>
        <time>2021-08-12T12:03:47Z</time>
      </trkpt>
      <trkpt lat="44.13741" lon="3.56445">
        <ele>1477.1</ele>
        <time>2021-08-12T12:03:49Z</time>
      </trkpt>
      <trkpt lat="44.13737" lon="3.56445">
        <ele>1477.6</ele>
        <time>2021-08-12T12:03:51Z</time>
      </trkpt>
      <trkpt lat="44.13734" lon="3.56445">
        <ele>1477.9</ele>
        <time>2021-08-12T12:03:53Z</time>
      </trkpt>
      <trkpt lat="44.13731" lon="3.56444">
        <ele>1478.2</ele>
        <time>2021-08-12T12:03:55Z</time>
      </trkpt>
      <trkpt lat="44.13728" lon="3.56443">
        <ele>1478.5</ele>
        <time>2021-08-12T12:03:57Z</time>
      </trkpt>
      <trkpt lat="44.13725" lon="3.56443">
        <ele>1478.8</ele>
        <time>2021-08-12T12:03:59Z</time>
      </trkpt>
      <trkpt lat="44.13722" lon="3.56442">
        <ele>1479.1</ele>
        <time>2021-08-12T12:04:01Z</time>
      </trkpt>
      <trkpt lat="44.13719" lon="3.5644">
        <ele>1479.3</ele>
        <time>2021-08-12T12:04:03Z</time>
      </trkpt>
      <trkpt lat="44.13716" lon="3.56439">
        <ele>1479.5</ele>
        <time>2021-08-12T12:04:05Z</time>
      </trkpt>
      <trkpt lat="44.13712" lon="3.56438">
        <ele>1479.7</ele>
        <time>2021-08-12T12:04:07Z</time>
      </trkpt>
      <trkpt lat="44.13709" lon="3.56436">
        <ele>1479.9</ele>
        <time>2021-08-12T12:04:09Z</time>
      </trkpt>
      <trkpt lat="44.13706" lon="3.56434">
        <ele>1479.9</ele>
        <time>2021-08-12T12:04:11Z</time>
      </trkpt>
      <trkpt lat="44.13704" lon="3.56432">
        <ele>1480.1</ele>
        <time>2021-08-12T12:04:13Z</time>
      </trkpt>
      <trkpt lat="44.137" lon="3.56431">
        <ele>1480.3</ele>
        <time>2021-08-12T12:04:15Z</time>
      </trkpt>
      <trkpt lat="44.13697" lon="3.56429">
        <ele>1480.3</ele>
        <time>2021-08-12T12:04:17Z</time>
      </trkpt>
      <trkpt lat="44.13694" lon="3.56427">
        <ele>1480.5</ele>
        <time>2021-08-12T12:04:19Z</time>
      </trkpt>
      <trkpt lat="44.13691" lon="3.56425">
        <ele>1480.5</ele>
        <time>2021-08-12T12:04:21Z</time>
      </trkpt>
      <trkpt lat="44.13689" lon="3.56423">
        <ele>1480.6</ele>
        <time>2021-08-12T12:04:23Z</time>
      </trkpt>
      <trkpt lat="44.13686" lon="3.5642">
        <ele>1480.5</ele>
        <time>2021-08-12T12:04:25Z</time>
      </trkpt>
      <trkpt lat="44.13683" lon="3.56418">
        <ele>1480.6</ele>
        <time>2021-08-12T12:04:27Z</time>
      </trkpt>
      <trkpt lat="44.1368" lon="3.56416">
        <ele>1480.8</ele>
        <time>2021-08-12T12:04:29Z</time>
      </trkpt>
      <trkpt lat="44.13678" lon="3.56413">
        <ele>1480.9</ele>
        <time>2021-08-12T12:04:31Z</time>
      </trkpt>
      <trkpt lat="44.13675" lon="3.56411">
        <ele>1481.1</ele>
        <time>2021-08-12T12:04:33Z</time>
      </trkpt>
      <trkpt lat="44.13672" lon="3.56408">
        <ele>1481.4</ele>
        <time>2021-08-12T12:04:35Z</time>
      </trkpt>
      <trkpt lat="44.13669" lon="3.56407">
        <ele>1481.7</ele>
        <time>2021-08-12T12:04:37Z</time>
      </trkpt>
      <trkpt lat="44.13666" lon="3.56404">
        <ele>1481.9</ele>
        <time>2021-08-12T12:04:39Z</time>
      </trkpt>
      <trkpt lat="44.13663" lon="3.56402">
        <ele>1482.2</ele>
        <time>2021-08-12T12:04:41Z</time>
      </trkpt>
      <trkpt lat="44.1366" lon="3.56399">
        <ele>1482.4</ele>
        <time>2021-08-12T12:04:43Z</time>
      </trkpt>
      <trkpt lat="44.13658" lon="3.56397">
        <ele>1482.6</ele>
        <time>2021-08-12T12:04:45Z</time>
      </trkpt>
      <trkpt lat="44.13655" lon="3.56394">
        <ele>1482.7</ele>
        <time>2021-08-12T12:04:47Z</time>
      </trkpt>
      <trkpt lat="44.13652" lon="3.56391">
        <ele>1483</ele>
        <time>2021-08-12T12:04:49Z</time>
      </trkpt>
      <trkpt lat="44.13649" lon="3.56389">
        <ele>1483.5</ele>
        <time>2021-08-12T12:04:51Z</time>
      </trkpt>
      <trkpt lat="44.13646" lon="3.56387">
        <ele>1483.7</ele>
        <time>2021-08-12T12:04:53Z</time>
      </trkpt>
      <trkpt lat="44.13643" lon="3.56384">
        <ele>1483.9</ele>
        <time>2021-08-12T12:04:55Z</time>
      </trkpt>
      <trkpt lat="44.1364" lon="3.56382">
        <ele>1484.3</ele>
        <time>2021-08-12T12:04:57Z</time>
      </trkpt>
      <trkpt lat="44.13638" lon="3.56379">
        <ele>1484.5</ele>
        <time>2021-08-12T12:04:59Z</time>
      </trkpt>
      <trkpt lat="44.13635" lon="3.56376">
        <ele>1484.8</ele>
        <time>2021-08-12T12:05:01Z</time>
      </trkpt>
      <trkpt lat="44.13632" lon="3.56372">
        <ele>1485</ele>
        <time>2021-08-12T12:05:03Z</time>
      </trkpt>
      <trkpt lat="44.13629" lon="3.56369">
        <ele>1485.3</ele>
        <time>2021-08-12T12:05:05Z</time>
      </trkpt>
      <trkpt lat="44.13626" lon="3.56366">
        <ele>1485.7</ele>
        <time>2021-08-12T12:05:07Z</time>
      </trkpt>
      <trkpt lat="44.13624" lon="3.56362">
        <ele>1485.9</ele>
        <time>2021-08-12T12:05:09Z</time>
      </trkpt>
      <trkpt lat="44.13621" lon="3.56359">
        <ele>1486</ele>
        <time>2021-08-12T12:05:11Z</time>
      </trkpt>
      <trkpt lat="44.13619" lon="3.56355">
        <ele>1486.1</ele>
        <time>2021-08-12T12:05:13Z</time>
      </trkpt>
      <trkpt lat="44.13617" lon="3.56351">
        <ele>1486.3</ele>
        <time>2021-08-12T12:05:15Z</time>
      </trkpt>
      <trkpt lat="44.13616" lon="3.56347">
        <ele>1486.3</ele>
        <time>2021-08-12T12:05:17Z</time>
      </trkpt>
      <trkpt lat="44.13614" lon="3.56343">
        <ele>1486.4</ele>
        <time>2021-08-12T12:05:19Z</time>
      </trkpt>
      <trkpt lat="44.13612" lon="3.56339">
        <ele>1486.4</ele>
        <time>2021-08-12T12:05:21Z</time>
      </trkpt>
      <trkpt lat="44.13611" lon="3.56334">
        <ele>1486.4</ele>
        <time>2021-08-12T12:05:23Z</time>
      </trkpt>
      <trkpt lat="44.1361" lon="3.5633">
        <ele>1486.7</ele>
        <time>2021-08-12T12:05:25Z</time>
      </trkpt>
      <trkpt lat="44.13609" lon="3.56325">
        <ele>1487.1</ele>
        <time>2021-08-12T12:05:27Z</time>
      </trkpt>
      <trkpt lat="44.13609" lon="3.56321">
        <ele>1487.4</ele>
        <time>2021-08-12T12:05:29Z</time>
      </trkpt>
      <trkpt lat="44.13608" lon="3.56316">
        <ele>1487.8</ele>
        <time>2021-08-12T12:05:31Z</time>
      </trkpt>
      <trkpt lat="44.13608" lon="3.56311">
        <ele>1488.1</ele>
        <time>2021-08-12T12:05:33Z</time>
      </trkpt>
      <trkpt lat="44.13608" lon="3.56306">
        <ele>1488.3</ele>
        <time>2021-08-12T12:05:35Z</time>
      </trkpt>
      <trkpt lat="44.13608" lon="3.56302">
        <ele>1488.6</ele>
        <time>2021-08-12T12:05:37Z</time>
      </trkpt>
      <trkpt lat="44.13608" lon="3.56297">
        <ele>1488.9</ele>
        <time>2021-08-12T12:05:39Z</time>
      </trkpt>
      <trkpt lat="44.13608" lon="3.56292">
        <ele>1489</ele>
        <time>2021-08-12T12:05:41Z</time>
      </trkpt>
      <trkpt lat="44.13609" lon="3.56287">
        <ele>1489.1</ele>
        <time>2021-08-12T12:05:43Z</time>
      </trkpt>
      <trkpt lat="44.1361" lon="3.56283">
        <ele>1489.2</ele>
        <time>2021-08-12T12:05:45Z</time>
      </trkpt>
      <trkpt lat="44.1361" lon="3.56278">
        <ele>1489.4</ele>
        <time>2021-08-12T12:05:47Z</time>
      </trkpt>
      <trkpt lat="44.13611" lon="3.56273">
        <ele>1489.4</ele>
        <time>2021-08-12T12:05:49Z</time>
      </trkpt>
      <trkpt lat="44.13612" lon="3.56269">
        <ele>1489.5</ele>
        <time>2021-08-12T12:05:51Z</time>
      </trkpt>
      <trkpt lat="44.13613" lon="3.56264">
        <ele>1489.5</ele>
        <time>2021-08-12T12:05:53Z</time>
      </trkpt>
      <trkpt lat="44.13614" lon="3.5626">
        <ele>1489.5</ele>
        <time>2021-08-12T12:05:55Z</time>
      </trkpt>
      <trkpt lat="44.13615" lon="3.56255">
        <ele>1489.7</ele>
        <time>2021-08-12T12:05:57Z</time>
      </trkpt>
      <trkpt lat="44.13616" lon="3.56251">
        <ele>1489.7</ele>
        <time>2021-08-12T12:05:59Z</time>
      </trkpt>
      <trkpt lat="44.13617" lon="3.56246">
        <ele>1489.8</ele>
        <time>2021-08-12T12:06:01Z</time>
      </trkpt>
      <trkpt lat="44.13617" lon="3.56241">
        <ele>1489.9</ele>
        <time>2021-08-12T12:06:03Z</time>
      </trkpt>
      <trkpt lat="44.13618" lon="3.56237">
        <ele>1489.9</ele>
        <time>2021-08-12T12:06:05Z</time>
      </trkpt>
      <trkpt lat="44.13619" lon="3.56232">
        <ele>1490</ele>
        <time>2021-08-12T12:06:07Z</time>
      </trkpt>
      <trkpt lat="44.1362" lon="3.56228">
        <ele>1490.2</ele>
        <time>2021-08-12T12:06:09Z</time>
      </trkpt>
      <trkpt lat="44.1362" lon="3.56223">
        <ele>1490.3</ele>
        <time>2021-08-12T12:06:11Z</time>
      </trkpt>
      <trkpt lat="44.13621" lon="3.56218">
        <ele>1490.4</ele>
        <time>2021-08-12T12:06:13Z</time>
      </trkpt>
      <trkpt lat="44.13621" lon="3.56214">
        <ele>1490.6</ele>
        <time>2021-08-12T12:06:15Z</time>
      </trkpt>
      <trkpt lat="44.13621" lon="3.56209">
        <ele>1490.8</ele>
        <time>2021-08-12T12:06:17Z</time>
      </trkpt>
      <trkpt lat="44.13622" lon="3.56204">
        <ele>1491</ele>
        <time>2021-08-12T12:06:19Z</time>
      </trkpt>
      <trkpt lat="44.13623" lon="3.562">
        <ele>1491.1</ele>
        <time>2021-08-12T12:06:21Z</time>
      </trkpt>
      <trkpt lat="44.13622" lon="3.56195">
        <ele>1491.4</ele>
        <time>2021-08-12T12:06:23Z</time>
      </trkpt>
      <trkpt lat="44.13623" lon="3.5619">
        <ele>1491.6</ele>
        <time>2021-08-12T12:06:25Z</time>
      </trkpt>
      <trkpt lat="44.13622" lon="3.56185">
        <ele>1491.9</ele>
        <time>2021-08-12T12:06:27Z</time>
      </trkpt>
      <trkpt lat="44.13622" lon="3.56181">
        <ele>1492.2</ele>
        <time>2021-08-12T12:06:29Z</time>
      </trkpt>
      <trkpt lat="44.13621" lon="3.56176">
        <ele>1492.5</ele>
        <time>2021-08-12T12:06:31Z</time>
      </trkpt>
      <trkpt lat="44.13621" lon="3.56171">
        <ele>1492.8</ele>
        <time>2021-08-12T12:06:33Z</time>
      </trkpt>
      <trkpt lat="44.1362" lon="3.56167">
        <ele>1493.2</ele>
        <time>2021-08-12T12:06:35Z</time>
      </trkpt>
      <trkpt lat="44.13619" lon="3.56162">
        <ele>1493</ele>
        <time>2021-08-12T12:06:37Z</time>
      </trkpt>
      <trkpt lat="44.13617" lon="3.56158">
        <ele>1493</ele>
        <time>2021-08-12T12:06:39Z</time>
      </trkpt>
      <trkpt lat="44.13615" lon="3.56154">
        <ele>1492.9</ele>
        <time>2021-08-12T12:06:41Z</time>
      </trkpt>
      <trkpt lat="44.13613" lon="3.56151">
        <ele>1492.8</ele>
        <time>2021-08-12T12:06:43Z</time>
      </trkpt>
      <trkpt lat="44.13611" lon="3.56147">
        <ele>1492.8</ele>
        <time>2021-08-12T12:06:45Z</time>
      </trkpt>
      <trkpt lat="44.13608" lon="3.56143">
        <ele>1492.8</ele>
        <time>2021-08-12T12:06:47Z</time>
      </trkpt>
      <trkpt lat="44.13606" lon="3.5614">
        <ele>1492.7</ele>
        <time>2021-08-12T12:06:49Z</time>
      </trkpt>
      <trkpt lat="44.13603" lon="3.56137">
        <ele>1492.6</ele>
        <time>2021-08-12T12:06:51Z</time>
      </trkpt>
      <trkpt lat="44.13601" lon="3.56134">
        <ele>1492.6</ele>
        <time>2021-08-12T12:06:53Z</time>
      </trkpt>
      <trkpt lat="44.13597" lon="3.56133">
        <ele>1492.8</ele>
        <time>2021-08-12T12:06:55Z</time>
      </trkpt>
      <trkpt lat="44.13594" lon="3.56131">
        <ele>1492.9</ele>
        <time>2021-08-12T12:06:57Z</time>
      </trkpt>
      <trkpt lat="44.13591" lon="3.5613">
        <ele>1493</ele>
        <time>2021-08-12T12:06:59Z</time>
      </trkpt>
      <trkpt lat="44.13588" lon="3.5613">
        <ele>1493.2</ele>
        <time>2021-08-12T12:07:01Z</time>
      </trkpt>
      <trkpt lat="44.13584" lon="3.5613">
        <ele>1493.6</ele>
        <time>2021-08-12T12:07:03Z</time>
      </trkpt>
      <trkpt lat="44.13581" lon="3.5613">
        <ele>1493.4</ele>
        <time>2021-08-12T12:07:05Z</time>
      </trkpt>
      <trkpt lat="44.13578" lon="3.56131">
        <ele>1493.3</ele>
        <time>2021-08-12T12:07:07Z</time>
      </trkpt>
      <trkpt lat="44.13574" lon="3.56131">
        <ele>1493.2</ele>
        <time>2021-08-12T12:07:09Z</time>
      </trkpt>
      <trkpt lat="44.13571" lon="3.56132">
        <ele>1493.1</ele>
        <time>2021-08-12T12:07:11Z</time>
      </trkpt>
      <trkpt lat="44.13568" lon="3.56133">
        <ele>1493.1</ele>
        <time>2021-08-12T12:07:13Z</time>
      </trkpt>
      <trkpt lat="44.13566" lon="3.56135">
        <ele>1493.2</ele>
        <time>2021-08-12T12:07:15Z</time>
      </trkpt>
      <trkpt lat="44.13563" lon="3.56137">
        <ele>1493.2</ele>
        <time>2021-08-12T12:07:17Z</time>
      </trkpt>
      <trkpt lat="44.13561" lon="3.56139">
        <ele>1493.3</ele>
        <time>2021-08-12T12:07:19Z</time>
      </trkpt>
      <trkpt lat="44.13558" lon="3.5614">
        <ele>1493.3</ele>
        <time>2021-08-12T12:07:21Z</time>
      </trkpt>
      <trkpt lat="44.13556" lon="3.56142">
        <ele>1493.4</ele>
        <time>2021-08-12T12:07:23Z</time>
      </trkpt>
      <trkpt lat="44.13554" lon="3.56143">
        <ele>1493.4</ele>
        <time>2021-08-12T12:07:25Z</time>
      </trkpt>
      <trkpt lat="44.13554" lon="3.56142">
        <ele>1493.3</ele>
        <time>2021-08-12T12:07:27Z</time>
      </trkpt>
      <trkpt lat="44.13554" lon="3.56142">
        <ele>1493.3</ele>
        <time>2021-08-12T12:07:29Z</time>
      </trkpt>
      <trkpt lat="44.13554" lon="3.56142">
        <ele>1493.3</ele>
        <time>2021-08-12T12:07:31Z</time>
      </trkpt>
      <trkpt lat="44.13554" lon="3.56142">
        <ele>1493.3</ele>
        <time>2021-08-12T12:07:33Z</time>
      </trkpt>
      <trkpt lat="44.13541" lon="3.56154">
        <ele>1494</ele>
        <time>2021-08-12T12:10:17Z</time>
      </trkpt>
      <trkpt lat="44.13539" lon="3.56157">
        <ele>1494.2</ele>
        <time>2021-08-12T12:10:19Z</time>
      </trkpt>
      <trkpt lat="44.13536" lon="3.56161">
        <ele>1494.4</ele>
        <time>2021-08-12T12:10:21Z</time>
      </trkpt>
      <trkpt lat="44.13533" lon="3.56163">
        <ele>1494.6</ele>
        <time>2021-08-12T12:10:23Z</time>
      </trkpt>
      <trkpt lat="44.1353" lon="3.56165">
        <ele>1494.6</ele>
        <time>2021-08-12T12:10:25Z</time>
      </trkpt>
      <trkpt lat="44.13528" lon="3.56168">
        <ele>1494.7</ele>
        <time>2021-08-12T12:10:27Z</time>
      </trkpt>
      <trkpt lat="44.13525" lon="3.56172">
        <ele>1494.7</ele>
        <time>2021-08-12T12:10:29Z</time>
      </trkpt>
      <trkpt lat="44.13522" lon="3.56176">
        <ele>1494.6</ele>
        <time>2021-08-12T12:10:31Z</time>
      </trkpt>
      <trkpt lat="44.13518" lon="3.56179">
        <ele>1494.6</ele>
        <time>2021-08-12T12:10:33Z</time>
      </trkpt>
      <trkpt lat="44.13516" lon="3.56183">
        <ele>1494.7</ele>
        <time>2021-08-12T12:10:35Z</time>
      </trkpt>
      <trkpt lat="44.13513" lon="3.56187">
        <ele>1494.7</ele>
        <time>2021-08-12T12:10:37Z</time>
      </trkpt>
      <trkpt lat="44.13509" lon="3.5619">
        <ele>1494.7</ele>
        <time>2021-08-12T12:10:39Z</time>
      </trkpt>
      <trkpt lat="44.13506" lon="3.56195">
        <ele>1494.9</ele>
        <time>2021-08-12T12:10:41Z</time>
      </trkpt>
      <trkpt lat="44.13502" lon="3.56199">
        <ele>1495</ele>
        <time>2021-08-12T12:10:43Z</time>
      </trkpt>
      <trkpt lat="44.135" lon="3.56204">
        <ele>1495.2</ele>
        <time>2021-08-12T12:10:45Z</time>
      </trkpt>
      <trkpt lat="44.13496" lon="3.56209">
        <ele>1494.9</ele>
        <time>2021-08-12T12:10:47Z</time>
      </trkpt>
      <trkpt lat="44.13493" lon="3.56214">
        <ele>1494.9</ele>
        <time>2021-08-12T12:10:49Z</time>
      </trkpt>
      <trkpt lat="44.13491" lon="3.5622">
        <ele>1494.8</ele>
        <time>2021-08-12T12:10:51Z</time>
      </trkpt>
      <trkpt lat="44.13488" lon="3.56227">
        <ele>1494.8</ele>
        <time>2021-08-12T12:10:53Z</time>
      </trkpt>
      <trkpt lat="44.13485" lon="3.56234">
        <ele>1494.9</ele>
        <time>2021-08-12T12:10:55Z</time>
      </trkpt>
      <trkpt lat="44.13483" lon="3.56243">
        <ele>1495.1</ele>
        <time>2021-08-12T12:10:57Z</time>
      </trkpt>
      <trkpt lat="44.13481" lon="3.56251">
        <ele>1495.2</ele>
        <time>2021-08-12T12:10:59Z</time>
      </trkpt>
      <trkpt lat="44.13478" lon="3.56261">
        <ele>1494.9</ele>
        <time>2021-08-12T12:11:01Z</time>
      </trkpt>
      <trkpt lat="44.13476" lon="3.56272">
        <ele>1494.6</ele>
        <time>2021-08-12T12:11:03Z</time>
      </trkpt>
      <trkpt lat="44.13473" lon="3.56284">
        <ele>1494.4</ele>
        <time>2021-08-12T12:11:05Z</time>
      </trkpt>
      <trkpt lat="44.1347" lon="3.56297">
        <ele>1494.2</ele>
        <time>2021-08-12T12:11:07Z</time>
      </trkpt>
      <trkpt lat="44.13467" lon="3.56311">
        <ele>1494</ele>
        <time>2021-08-12T12:11:09Z</time>
      </trkpt>
      <trkpt lat="44.13464" lon="3.56324">
        <ele>1493.9</ele>
        <time>2021-08-12T12:11:11Z</time>
      </trkpt>
      <trkpt lat="44.13461" lon="3.56337">
        <ele>1494</ele>
        <time>2021-08-12T12:11:13Z</time>
      </trkpt>
      <trkpt lat="44.13456" lon="3.56351">
        <ele>1494.7</ele>
        <time>2021-08-12T12:11:15Z</time>
      </trkpt>
      <trkpt lat="44.1345" lon="3.56364">
        <ele>1495.4</ele>
        <time>2021-08-12T12:11:17Z</time>
      </trkpt>
      <trkpt lat="44.13444" lon="3.56375">
        <ele>1496</ele>
        <time>2021-08-12T12:11:19Z</time>
      </trkpt>
      <trkpt lat="44.13437" lon="3.56386">
        <ele>1496.6</ele>
        <time>2021-08-12T12:11:21Z</time>
      </trkpt>
      <trkpt lat="44.1343" lon="3.56396">
        <ele>1497.3</ele>
        <time>2021-08-12T12:11:23Z</time>
      </trkpt>
      <trkpt lat="44.13424" lon="3.56406">
        <ele>1498.1</ele>
        <time>2021-08-12T12:11:25Z</time>
      </trkpt>
      <trkpt lat="44.13417" lon="3.56415">
        <ele>1498.8</ele>
        <time>2021-08-12T12:11:27Z</time>
      </trkpt>
      <trkpt lat="44.1341" lon="3.56424">
        <ele>1499.5</ele>
        <time>2021-08-12T12:11:29Z</time>
      </trkpt>
      <trkpt lat="44.13404" lon="3.56432">
        <ele>1500.1</ele>
        <time>2021-08-12T12:11:31Z</time>
      </trkpt>
      <trkpt lat="44.13396" lon="3.56438">
        <ele>1500.4</ele>
        <time>2021-08-12T12:11:33Z</time>
      </trkpt>
      <trkpt lat="44.13389" lon="3.56444">
        <ele>1500.7</ele>
        <time>2021-08-12T12:11:35Z</time>
      </trkpt>
      <trkpt lat="44.1338" lon="3.56447">
        <ele>1500.6</ele>
        <time>2021-08-12T12:11:37Z</time>
      </trkpt>
      <trkpt lat="44.13371" lon="3.56449">
        <ele>1500.3</ele>
        <time>2021-08-12T12:11:39Z</time>
      </trkpt>
      <trkpt lat="44.13362" lon="3.56449">
        <ele>1499.9</ele>
        <time>2021-08-12T12:11:41Z</time>
      </trkpt>
      <trkpt lat="44.13353" lon="3.56449">
        <ele>1499.4</ele>
        <time>2021-08-12T12:11:43Z</time>
      </trkpt>
      <trkpt lat="44.13344" lon="3.56449">
        <ele>1498.9</ele>
        <time>2021-08-12T12:11:45Z</time>
      </trkpt>
      <trkpt lat="44.13335" lon="3.56448">
        <ele>1498.3</ele>
        <time>2021-08-12T12:11:47Z</time>
      </trkpt>
      <trkpt lat="44.13325" lon="3.56448">
        <ele>1498.3</ele>
        <time>2021-08-12T12:11:49Z</time>
      </trkpt>
      <trkpt lat="44.13316" lon="3.56448">
        <ele>1498.4</ele>
        <time>2021-08-12T12:11:51Z</time>
      </trkpt>
      <trkpt lat="44.13306" lon="3.56447">
        <ele>1498.4</ele>
        <time>2021-08-12T12:11:53Z</time>
      </trkpt>
      <trkpt lat="44.13296" lon="3.56446">
        <ele>1498.4</ele>
        <time>2021-08-12T12:11:55Z</time>
      </trkpt>
      <trkpt lat="44.13286" lon="3.56443">
        <ele>1498.3</ele>
        <time>2021-08-12T12:11:57Z</time>
      </trkpt>
      <trkpt lat="44.13277" lon="3.56441">
        <ele>1498.1</ele>
        <time>2021-08-12T12:11:59Z</time>
      </trkpt>
      <trkpt lat="44.13268" lon="3.56437">
        <ele>1497.7</ele>
        <time>2021-08-12T12:12:01Z</time>
      </trkpt>
      <trkpt lat="44.13258" lon="3.56434">
        <ele>1497.4</ele>
        <time>2021-08-12T12:12:03Z</time>
      </trkpt>
      <trkpt lat="44.13249" lon="3.56432">
        <ele>1497.2</ele>
        <time>2021-08-12T12:12:05Z</time>
      </trkpt>
      <trkpt lat="44.13239" lon="3.56431">
        <ele>1496.4</ele>
        <time>2021-08-12T12:12:07Z</time>
      </trkpt>
      <trkpt lat="44.13229" lon="3.56431">
        <ele>1495.9</ele>
        <time>2021-08-12T12:12:09Z</time>
      </trkpt>
      <trkpt lat="44.1322" lon="3.56432">
        <ele>1495.6</ele>
        <time>2021-08-12T12:12:11Z</time>
      </trkpt>
      <trkpt lat="44.13212" lon="3.56436">
        <ele>1495.6</ele>
        <time>2021-08-12T12:12:13Z</time>
      </trkpt>
      <trkpt lat="44.13203" lon="3.56441">
        <ele>1495.8</ele>
        <time>2021-08-12T12:12:15Z</time>
      </trkpt>
      <trkpt lat="44.13195" lon="3.56448">
        <ele>1496.1</ele>
        <time>2021-08-12T12:12:17Z</time>
      </trkpt>
      <trkpt lat="44.13187" lon="3.56455">
        <ele>1496.5</ele>
        <time>2021-08-12T12:12:19Z</time>
      </trkpt>
      <trkpt lat="44.1318" lon="3.56463">
        <ele>1496.9</ele>
        <time>2021-08-12T12:12:21Z</time>
      </trkpt>
      <trkpt lat="44.13173" lon="3.56472">
        <ele>1497.4</ele>
        <time>2021-08-12T12:12:23Z</time>
      </trkpt>
      <trkpt lat="44.13168" lon="3.56481">
        <ele>1498</ele>
        <time>2021-08-12T12:12:25Z</time>
      </trkpt>
      <trkpt lat="44.13162" lon="3.56491">
        <ele>1498</ele>
        <time>2021-08-12T12:12:27Z</time>
      </trkpt>
      <trkpt lat="44.13156" lon="3.56501">
        <ele>1498.1</ele>
        <time>2021-08-12T12:12:29Z</time>
      </trkpt>
      <trkpt lat="44.13151" lon="3.56511">
        <ele>1498.3</ele>
        <time>2021-08-12T12:12:31Z</time>
      </trkpt>
      <trkpt lat="44.13146" lon="3.5652">
        <ele>1498.5</ele>
        <time>2021-08-12T12:12:33Z</time>
      </trkpt>
      <trkpt lat="44.1314" lon="3.5653">
        <ele>1498.6</ele>
        <time>2021-08-12T12:12:35Z</time>
      </trkpt>
      <trkpt lat="44.13135" lon="3.5654">
        <ele>1498.7</ele>
        <time>2021-08-12T12:12:37Z</time>
      </trkpt>
      <trkpt lat="44.1313" lon="3.5655">
        <ele>1498.9</ele>
        <time>2021-08-12T12:12:39Z</time>
      </trkpt>
      <trkpt lat="44.13124" lon="3.56561">
        <ele>1499.1</ele>
        <time>2021-08-12T12:12:41Z</time>
      </trkpt>
      <trkpt lat="44.13119" lon="3.56571">
        <ele>1499.3</ele>
        <time>2021-08-12T12:12:43Z</time>
      </trkpt>
      <trkpt lat="44.13114" lon="3.56581">
        <ele>1499.5</ele>
        <time>2021-08-12T12:12:45Z</time>
      </trkpt>
      <trkpt lat="44.13108" lon="3.56591">
        <ele>1499.8</ele>
        <time>2021-08-12T12:12:47Z</time>
      </trkpt>
      <trkpt lat="44.13103" lon="3.566">
        <ele>1500</ele>
        <time>2021-08-12T12:12:49Z</time>
      </trkpt>
      <trkpt lat="44.13098" lon="3.5661">
        <ele>1500.2</ele>
        <time>2021-08-12T12:12:51Z</time>
      </trkpt>
      <trkpt lat="44.13093" lon="3.56621">
        <ele>1500.5</ele>
        <time>2021-08-12T12:12:53Z</time>
      </trkpt>
      <trkpt lat="44.13089" lon="3.5663">
        <ele>1500.9</ele>
        <time>2021-08-12T12:12:55Z</time>
      </trkpt>
      <trkpt lat="44.13085" lon="3.5664">
        <ele>1501.1</ele>
        <time>2021-08-12T12:12:57Z</time>
      </trkpt>
      <trkpt lat="44.13081" lon="3.5665">
        <ele>1501.2</ele>
        <time>2021-08-12T12:12:59Z</time>
      </trkpt>
      <trkpt lat="44.13077" lon="3.5666">
        <ele>1501.4</ele>
        <time>2021-08-12T12:13:01Z</time>
      </trkpt>
      <trkpt lat="44.13073" lon="3.5667">
        <ele>1501.4</ele>
        <time>2021-08-12T12:13:03Z</time>
      </trkpt>
      <trkpt lat="44.1307" lon="3.56679">
        <ele>1501</ele>
        <time>2021-08-12T12:13:05Z</time>
      </trkpt>
      <trkpt lat="44.13066" lon="3.5669">
        <ele>1501</ele>
        <time>2021-08-12T12:13:07Z</time>
      </trkpt>
      <trkpt lat="44.13063" lon="3.567">
        <ele>1500.7</ele>
        <time>2021-08-12T12:13:09Z</time>
      </trkpt>
      <trkpt lat="44.1306" lon="3.5671">
        <ele>1500.5</ele>
        <time>2021-08-12T12:13:11Z</time>
      </trkpt>
      <trkpt lat="44.13057" lon="3.56722">
        <ele>1500.6</ele>
        <time>2021-08-12T12:13:13Z</time>
      </trkpt>
      <trkpt lat="44.13055" lon="3.56733">
        <ele>1500.8</ele>
        <time>2021-08-12T12:13:15Z</time>
      </trkpt>
      <trkpt lat="44.13053" lon="3.56744">
        <ele>1501</ele>
        <time>2021-08-12T12:13:17Z</time>
      </trkpt>
      <trkpt lat="44.13051" lon="3.56756">
        <ele>1501.3</ele>
        <time>2021-08-12T12:13:19Z</time>
      </trkpt>
      <trkpt lat="44.1305" lon="3.56768">
        <ele>1501.3</ele>
        <time>2021-08-12T12:13:21Z</time>
      </trkpt>
      <trkpt lat="44.13049" lon="3.5678">
        <ele>1501.7</ele>
        <time>2021-08-12T12:13:23Z</time>
      </trkpt>
      <trkpt lat="44.13048" lon="3.56792">
        <ele>1501.9</ele>
        <time>2021-08-12T12:13:25Z</time>
      </trkpt>
      <trkpt lat="44.13046" lon="3.56804">
        <ele>1502.2</ele>
        <time>2021-08-12T12:13:27Z</time>
      </trkpt>
      <trkpt lat="44.13045" lon="3.56816">
        <ele>1502.5</ele>
        <time>2021-08-12T12:13:29Z</time>
      </trkpt>
      <trkpt lat="44.13043" lon="3.56828">
        <ele>1502.7</ele>
        <time>2021-08-12T12:13:31Z</time>
      </trkpt>
      <trkpt lat="44.13042" lon="3.5684">
        <ele>1503.4</ele>
        <time>2021-08-12T12:13:33Z</time>
      </trkpt>
      <trkpt lat="44.1304" lon="3.56852">
        <ele>1504.4</ele>
        <time>2021-08-12T12:13:35Z</time>
      </trkpt>
      <trkpt lat="44.13036" lon="3.56864">
        <ele>1505.1</ele>
        <time>2021-08-12T12:13:37Z</time>
      </trkpt>
      <trkpt lat="44.13031" lon="3.56875">
        <ele>1505.4</ele>
        <time>2021-08-12T12:13:39Z</time>
      </trkpt>
      <trkpt lat="44.13023" lon="3.56884">
        <ele>1505.2</ele>
        <time>2021-08-12T12:13:41Z</time>
      </trkpt>
      <trkpt lat="44.13015" lon="3.5689">
        <ele>1504.5</ele>
        <time>2021-08-12T12:13:43Z</time>
      </trkpt>
      <trkpt lat="44.13007" lon="3.56895">
        <ele>1503.7</ele>
        <time>2021-08-12T12:13:45Z</time>
      </trkpt>
      <trkpt lat="44.12998" lon="3.56899">
        <ele>1502.9</ele>
        <time>2021-08-12T12:13:47Z</time>
      </trkpt>
      <trkpt lat="44.12989" lon="3.56903">
        <ele>1503</ele>
        <time>2021-08-12T12:13:49Z</time>
      </trkpt>
      <trkpt lat="44.1298" lon="3.56907">
        <ele>1503</ele>
        <time>2021-08-12T12:13:51Z</time>
      </trkpt>
      <trkpt lat="44.12971" lon="3.56911">
        <ele>1503</ele>
        <time>2021-08-12T12:13:53Z</time>
      </trkpt>
      <trkpt lat="44.12962" lon="3.56915">
        <ele>1502.9</ele>
        <time>2021-08-12T12:13:55Z</time>
      </trkpt>
      <trkpt lat="44.12953" lon="3.56919">
        <ele>1503.1</ele>
        <time>2021-08-12T12:13:57Z</time>
      </trkpt>
      <trkpt lat="44.12944" lon="3.56923">
        <ele>1503.2</ele>
        <time>2021-08-12T12:13:59Z</time>
      </trkpt>
      <trkpt lat="44.12935" lon="3.56927">
        <ele>1503.4</ele>
        <time>2021-08-12T12:14:01Z</time>
      </trkpt>
      <trkpt lat="44.12926" lon="3.56931">
        <ele>1503.6</ele>
        <time>2021-08-12T12:14:03Z</time>
      </trkpt>
      <trkpt lat="44.12919" lon="3.56936">
        <ele>1504</ele>
        <time>2021-08-12T12:14:05Z</time>
      </trkpt>
      <trkpt lat="44.12911" lon="3.56939">
        <ele>1504.3</ele>
        <time>2021-08-12T12:14:07Z</time>
      </trkpt>
      <trkpt lat="44.12904" lon="3.56944">
        <ele>1504.7</ele>
        <time>2021-08-12T12:14:09Z</time>
      </trkpt>
      <trkpt lat="44.12897" lon="3.56947">
        <ele>1505.1</ele>
        <time>2021-08-12T12:14:11Z</time>
      </trkpt>
      <trkpt lat="44.12891" lon="3.56951">
        <ele>1505.5</ele>
        <time>2021-08-12T12:14:13Z</time>
      </trkpt>
      <trkpt lat="44.12885" lon="3.56955">
        <ele>1506</ele>
        <time>2021-08-12T12:14:15Z</time>
      </trkpt>
      <trkpt lat="44.12879" lon="3.5696">
        <ele>1506.5</ele>
        <time>2021-08-12T12:14:17Z</time>
      </trkpt>
      <trkpt lat="44.12873" lon="3.56964">
        <ele>1506.9</ele>
        <time>2021-08-12T12:14:19Z</time>
      </trkpt>
      <trkpt lat="44.12867" lon="3.56966">
        <ele>1507.2</ele>
        <time>2021-08-12T12:14:21Z</time>
      </trkpt>
      <trkpt lat="44.12862" lon="3.5697">
        <ele>1507.5</ele>
        <time>2021-08-12T12:14:23Z</time>
      </trkpt>
      <trkpt lat="44.12856" lon="3.56972">
        <ele>1507.7</ele>
        <time>2021-08-12T12:14:25Z</time>
      </trkpt>
      <trkpt lat="44.1285" lon="3.56974">
        <ele>1507.7</ele>
        <time>2021-08-12T12:14:27Z</time>
      </trkpt>
      <trkpt lat="44.12845" lon="3.56976">
        <ele>1507.7</ele>
        <time>2021-08-12T12:14:29Z</time>
      </trkpt>
      <trkpt lat="44.12839" lon="3.56977">
        <ele>1507.6</ele>
        <time>2021-08-12T12:14:31Z</time>
      </trkpt>
      <trkpt lat="44.12833" lon="3.56977">
        <ele>1507.4</ele>
        <time>2021-08-12T12:14:33Z</time>
      </trkpt>
      <trkpt lat="44.12828" lon="3.56978">
        <ele>1507.8</ele>
        <time>2021-08-12T12:14:35Z</time>
      </trkpt>
      <trkpt lat="44.12822" lon="3.56978">
        <ele>1508</ele>
        <time>2021-08-12T12:14:37Z</time>
      </trkpt>
      <trkpt lat="44.12816" lon="3.56978">
        <ele>1508.1</ele>
        <time>2021-08-12T12:14:39Z</time>
      </trkpt>
      <trkpt lat="44.12811" lon="3.56978">
        <ele>1508.3</ele>
        <time>2021-08-12T12:14:41Z</time>
      </trkpt>
      <trkpt lat="44.12805" lon="3.56977">
        <ele>1508.5</ele>
        <time>2021-08-12T12:14:43Z</time>
      </trkpt>
      <trkpt lat="44.128" lon="3.56977">
        <ele>1508.6</ele>
        <time>2021-08-12T12:14:45Z</time>
      </trkpt>
      <trkpt lat="44.12794" lon="3.56976">
        <ele>1508.6</ele>
        <time>2021-08-12T12:14:47Z</time>
      </trkpt>
      <trkpt lat="44.1279" lon="3.56975">
        <ele>1508.7</ele>
        <time>2021-08-12T12:14:49Z</time>
      </trkpt>
      <trkpt lat="44.12785" lon="3.56975">
        <ele>1508.8</ele>
        <time>2021-08-12T12:14:51Z</time>
      </trkpt>
      <trkpt lat="44.12779" lon="3.56975">
        <ele>1509</ele>
        <time>2021-08-12T12:14:53Z</time>
      </trkpt>
      <trkpt lat="44.12775" lon="3.56975">
        <ele>1509.1</ele>
        <time>2021-08-12T12:14:55Z</time>
      </trkpt>
      <trkpt lat="44.1277" lon="3.56973">
        <ele>1509.1</ele>
        <time>2021-08-12T12:14:57Z</time>
      </trkpt>
      <trkpt lat="44.12765" lon="3.56973">
        <ele>1509.3</ele>
        <time>2021-08-12T12:14:59Z</time>
      </trkpt>
      <trkpt lat="44.1276" lon="3.56973">
        <ele>1509.4</ele>
        <time>2021-08-12T12:15:01Z</time>
      </trkpt>
      <trkpt lat="44.12756" lon="3.56972">
        <ele>1509.5</ele>
        <time>2021-08-12T12:15:03Z</time>
      </trkpt>
      <trkpt lat="44.12751" lon="3.56972">
        <ele>1509.6</ele>
        <time>2021-08-12T12:15:05Z</time>
      </trkpt>
      <trkpt lat="44.12747" lon="3.56972">
        <ele>1509.9</ele>
        <time>2021-08-12T12:15:07Z</time>
      </trkpt>
      <trkpt lat="44.12742" lon="3.56971">
        <ele>1510.3</ele>
        <time>2021-08-12T12:15:09Z</time>
      </trkpt>
      <trkpt lat="44.12738" lon="3.56971">
        <ele>1510.7</ele>
        <time>2021-08-12T12:15:11Z</time>
      </trkpt>
      <trkpt lat="44.12734" lon="3.5697">
        <ele>1510.9</ele>
        <time>2021-08-12T12:15:13Z</time>
      </trkpt>
      <trkpt lat="44.12729" lon="3.56969">
        <ele>1511.2</ele>
        <time>2021-08-12T12:15:15Z</time>
      </trkpt>
      <trkpt lat="44.12725" lon="3.56968">
        <ele>1511.5</ele>
        <time>2021-08-12T12:15:17Z</time>
      </trkpt>
      <trkpt lat="44.12722" lon="3.56966">
        <ele>1511.5</ele>
        <time>2021-08-12T12:15:19Z</time>
      </trkpt>
      <trkpt lat="44.12718" lon="3.56964">
        <ele>1511.6</ele>
        <time>2021-08-12T12:15:21Z</time>
      </trkpt>
      <trkpt lat="44.12715" lon="3.56962">
        <ele>1511.8</ele>
        <time>2021-08-12T12:15:23Z</time>
      </trkpt>
      <trkpt lat="44.12711" lon="3.5696">
        <ele>1511.9</ele>
        <time>2021-08-12T12:15:25Z</time>
      </trkpt>
      <trkpt lat="44.12708" lon="3.56958">
        <ele>1512</ele>
        <time>2021-08-12T12:15:27Z</time>
      </trkpt>
      <trkpt lat="44.12704" lon="3.56955">
        <ele>1512.1</ele>
        <time>2021-08-12T12:15:29Z</time>
      </trkpt>
      <trkpt lat="44.12701" lon="3.56954">
        <ele>1512.2</ele>
        <time>2021-08-12T12:15:31Z</time>
      </trkpt>
      <trkpt lat="44.12698" lon="3.56951">
        <ele>1512.3</ele>
        <time>2021-08-12T12:15:33Z</time>
      </trkpt>
      <trkpt lat="44.12695" lon="3.56949">
        <ele>1512.4</ele>
        <time>2021-08-12T12:15:35Z</time>
      </trkpt>
      <trkpt lat="44.12692" lon="3.56946">
        <ele>1512.6</ele>
        <time>2021-08-12T12:15:37Z</time>
      </trkpt>
      <trkpt lat="44.12688" lon="3.56944">
        <ele>1512.7</ele>
        <time>2021-08-12T12:15:39Z</time>
      </trkpt>
      <trkpt lat="44.12685" lon="3.56942">
        <ele>1512.9</ele>
        <time>2021-08-12T12:15:41Z</time>
      </trkpt>
      <trkpt lat="44.12682" lon="3.5694">
        <ele>1513.1</ele>
        <time>2021-08-12T12:15:43Z</time>
      </trkpt>
      <trkpt lat="44.12678" lon="3.56938">
        <ele>1513.3</ele>
        <time>2021-08-12T12:15:45Z</time>
      </trkpt>
      <trkpt lat="44.12675" lon="3.56935">
        <ele>1513.4</ele>
        <time>2021-08-12T12:15:47Z</time>
      </trkpt>
      <trkpt lat="44.12672" lon="3.56933">
        <ele>1513.6</ele>
        <time>2021-08-12T12:15:49Z</time>
      </trkpt>
      <trkpt lat="44.12669" lon="3.56931">
        <ele>1513.9</ele>
        <time>2021-08-12T12:15:51Z</time>
      </trkpt>
      <trkpt lat="44.12666" lon="3.56929">
        <ele>1514.1</ele>
        <time>2021-08-12T12:15:53Z</time>
      </trkpt>
      <trkpt lat="44.12663" lon="3.56927">
        <ele>1514.3</ele>
        <time>2021-08-12T12:15:55Z</time>
      </trkpt>
      <trkpt lat="44.1266" lon="3.56926">
        <ele>1514.5</ele>
        <time>2021-08-12T12:15:57Z</time>
      </trkpt>
      <trkpt lat="44.12656" lon="3.56924">
        <ele>1514.7</ele>
        <time>2021-08-12T12:15:59Z</time>
      </trkpt>
      <trkpt lat="44.12653" lon="3.56923">
        <ele>1515</ele>
        <time>2021-08-12T12:16:01Z</time>
      </trkpt>
      <trkpt lat="44.1265" lon="3.56923">
        <ele>1515.4</ele>
        <time>2021-08-12T12:16:03Z</time>
      </trkpt>
      <trkpt lat="44.12646" lon="3.56923">
        <ele>1515.8</ele>
        <time>2021-08-12T12:16:05Z</time>
      </trkpt>
      <trkpt lat="44.12642" lon="3.56923">
        <ele>1516.1</ele>
        <time>2021-08-12T12:16:07Z</time>
      </trkpt>
      <trkpt lat="44.12639" lon="3.56923">
        <ele>1516.5</ele>
        <time>2021-08-12T12:16:09Z</time>
      </trkpt>
      <trkpt lat="44.12635" lon="3.56924">
        <ele>1516.9</ele>
        <time>2021-08-12T12:16:11Z</time>
      </trkpt>
      <trkpt lat="44.12632" lon="3.56924">
        <ele>1517.4</ele>
        <time>2021-08-12T12:16:13Z</time>
      </trkpt>
      <trkpt lat="44.12628" lon="3.56925">
        <ele>1517.8</ele>
        <time>2021-08-12T12:16:15Z</time>
      </trkpt>
      <trkpt lat="44.12625" lon="3.56925">
        <ele>1518.2</ele>
        <time>2021-08-12T12:16:17Z</time>
      </trkpt>
      <trkpt lat="44.12621" lon="3.56925">
        <ele>1518.6</ele>
        <time>2021-08-12T12:16:19Z</time>
      </trkpt>
      <trkpt lat="44.12618" lon="3.56926">
        <ele>1519</ele>
        <time>2021-08-12T12:16:21Z</time>
      </trkpt>
      <trkpt lat="44.12614" lon="3.56927">
        <ele>1519.4</ele>
        <time>2021-08-12T12:16:23Z</time>
      </trkpt>
      <trkpt lat="44.12611" lon="3.56927">
        <ele>1519.8</ele>
        <time>2021-08-12T12:16:25Z</time>
      </trkpt>
      <trkpt lat="44.12607" lon="3.56928">
        <ele>1520.2</ele>
        <time>2021-08-12T12:16:27Z</time>
      </trkpt>
      <trkpt lat="44.12604" lon="3.56928">
        <ele>1520.7</ele>
        <time>2021-08-12T12:16:29Z</time>
      </trkpt>
      <trkpt lat="44.126" lon="3.56929">
        <ele>1521.1</ele>
        <time>2021-08-12T12:16:31Z</time>
      </trkpt>
      <trkpt lat="44.12597" lon="3.5693">
        <ele>1521.5</ele>
        <time>2021-08-12T12:16:33Z</time>
      </trkpt>
      <trkpt lat="44.12594" lon="3.56931">
        <ele>1521.9</ele>
        <time>2021-08-12T12:16:35Z</time>
      </trkpt>
      <trkpt lat="44.1259" lon="3.56932">
        <ele>1522.4</ele>
        <time>2021-08-12T12:16:37Z</time>
      </trkpt>
      <trkpt lat="44.12587" lon="3.56933">
        <ele>1522.8</ele>
        <time>2021-08-12T12:16:39Z</time>
      </trkpt>
      <trkpt lat="44.12584" lon="3.56935">
        <ele>1523.3</ele>
        <time>2021-08-12T12:16:41Z</time>
      </trkpt>
      <trkpt lat="44.1258" lon="3.56936">
        <ele>1523.3</ele>
        <time>2021-08-12T12:16:43Z</time>
      </trkpt>
      <trkpt lat="44.12577" lon="3.56937">
        <ele>1523.2</ele>
        <time>2021-08-12T12:16:45Z</time>
      </trkpt>
      <trkpt lat="44.12574" lon="3.56938">
        <ele>1523.2</ele>
        <time>2021-08-12T12:16:47Z</time>
      </trkpt>
      <trkpt lat="44.12571" lon="3.56939">
        <ele>1523.3</ele>
        <time>2021-08-12T12:16:49Z</time>
      </trkpt>
      <trkpt lat="44.12567" lon="3.5694">
        <ele>1523.2</ele>
        <time>2021-08-12T12:16:51Z</time>
      </trkpt>
      <trkpt lat="44.12564" lon="3.56941">
        <ele>1523.2</ele>
        <time>2021-08-12T12:16:53Z</time>
      </trkpt>
      <trkpt lat="44.1256" lon="3.56942">
        <ele>1523.3</ele>
        <time>2021-08-12T12:16:55Z</time>
      </trkpt>
      <trkpt lat="44.12557" lon="3.56944">
        <ele>1523.3</ele>
        <time>2021-08-12T12:16:57Z</time>
      </trkpt>
      <trkpt lat="44.12554" lon="3.56945">
        <ele>1523.4</ele>
        <time>2021-08-12T12:16:59Z</time>
      </trkpt>
      <trkpt lat="44.12551" lon="3.56946">
        <ele>1523.4</ele>
        <time>2021-08-12T12:17:01Z</time>
      </trkpt>
      <trkpt lat="44.12548" lon="3.56948">
        <ele>1523.5</ele>
        <time>2021-08-12T12:17:03Z</time>
      </trkpt>
      <trkpt lat="44.12544" lon="3.56949">
        <ele>1523.6</ele>
        <time>2021-08-12T12:17:05Z</time>
      </trkpt>
      <trkpt lat="44.12541" lon="3.5695">
        <ele>1523.6</ele>
        <time>2021-08-12T12:17:07Z</time>
      </trkpt>
      <trkpt lat="44.12537" lon="3.56951">
        <ele>1523.6</ele>
        <time>2021-08-12T12:17:09Z</time>
      </trkpt>
      <trkpt lat="44.12534" lon="3.56952">
        <ele>1523.7</ele>
        <time>2021-08-12T12:17:11Z</time>
      </trkpt>
      <trkpt lat="44.12531" lon="3.56954">
        <ele>1523.8</ele>
        <time>2021-08-12T12:17:13Z</time>
      </trkpt>
      <trkpt lat="44.12528" lon="3.56955">
        <ele>1523.9</ele>
        <time>2021-08-12T12:17:15Z</time>
      </trkpt>
      <trkpt lat="44.12524" lon="3.56956">
        <ele>1524</ele>
        <time>2021-08-12T12:17:17Z</time>
      </trkpt>
      <trkpt lat="44.12521" lon="3.56957">
        <ele>1524.1</ele>
        <time>2021-08-12T12:17:19Z</time>
      </trkpt>
      <trkpt lat="44.12518" lon="3.56957">
        <ele>1524.1</ele>
        <time>2021-08-12T12:17:21Z</time>
      </trkpt>
      <trkpt lat="44.12515" lon="3.56959">
        <ele>1524.3</ele>
        <time>2021-08-12T12:17:23Z</time>
      </trkpt>
      <trkpt lat="44.12512" lon="3.5696">
        <ele>1524.3</ele>
        <time>2021-08-12T12:17:25Z</time>
      </trkpt>
      <trkpt lat="44.12508" lon="3.56961">
        <ele>1524.5</ele>
        <time>2021-08-12T12:17:27Z</time>
      </trkpt>
      <trkpt lat="44.12505" lon="3.56962">
        <ele>1524.6</ele>
        <time>2021-08-12T12:17:29Z</time>
      </trkpt>
      <trkpt lat="44.12502" lon="3.56963">
        <ele>1524.7</ele>
        <time>2021-08-12T12:17:31Z</time>
      </trkpt>
      <trkpt lat="44.12499" lon="3.56964">
        <ele>1524.8</ele>
        <time>2021-08-12T12:17:33Z</time>
      </trkpt>
      <trkpt lat="44.12495" lon="3.56965">
        <ele>1525.1</ele>
        <time>2021-08-12T12:17:35Z</time>
      </trkpt>
      <trkpt lat="44.12492" lon="3.56965">
        <ele>1525.3</ele>
        <time>2021-08-12T12:17:37Z</time>
      </trkpt>
      <trkpt lat="44.12489" lon="3.56967">
        <ele>1525.6</ele>
        <time>2021-08-12T12:17:39Z</time>
      </trkpt>
      <trkpt lat="44.12486" lon="3.56967">
        <ele>1525.8</ele>
        <time>2021-08-12T12:17:41Z</time>
      </trkpt>
      <trkpt lat="44.12482" lon="3.56968">
        <ele>1526</ele>
        <time>2021-08-12T12:17:43Z</time>
      </trkpt>
      <trkpt lat="44.12479" lon="3.56968">
        <ele>1526.2</ele>
        <time>2021-08-12T12:17:45Z</time>
      </trkpt>
      <trkpt lat="44.12476" lon="3.5697">
        <ele>1526.5</ele>
        <time>2021-08-12T12:17:47Z</time>
      </trkpt>
      <trkpt lat="44.12473" lon="3.5697">
        <ele>1526.7</ele>
        <time>2021-08-12T12:17:49Z</time>
      </trkpt>
      <trkpt lat="44.12469" lon="3.56971">
        <ele>1526.9</ele>
        <time>2021-08-12T12:17:51Z</time>
      </trkpt>
      <trkpt lat="44.12466" lon="3.56971">
        <ele>1527</ele>
        <time>2021-08-12T12:17:53Z</time>
      </trkpt>
      <trkpt lat="44.12462" lon="3.56972">
        <ele>1527.3</ele>
        <time>2021-08-12T12:17:55Z</time>
      </trkpt>
      <trkpt lat="44.12459" lon="3.56972">
        <ele>1527.5</ele>
        <time>2021-08-12T12:17:57Z</time>
      </trkpt>
      <trkpt lat="44.12456" lon="3.56973">
        <ele>1527.7</ele>
        <time>2021-08-12T12:17:59Z</time>
      </trkpt>
      <trkpt lat="44.12452" lon="3.56973">
        <ele>1527.9</ele>
        <time>2021-08-12T12:18:01Z</time>
      </trkpt>
      <trkpt lat="44.12449" lon="3.56974">
        <ele>1528</ele>
        <time>2021-08-12T12:18:03Z</time>
      </trkpt>
      <trkpt lat="44.12445" lon="3.56974">
        <ele>1528.2</ele>
        <time>2021-08-12T12:18:05Z</time>
      </trkpt>
      <trkpt lat="44.12442" lon="3.56975">
        <ele>1528.4</ele>
        <time>2021-08-12T12:18:07Z</time>
      </trkpt>
      <trkpt lat="44.12439" lon="3.56975">
        <ele>1528.6</ele>
        <time>2021-08-12T12:18:09Z</time>
      </trkpt>
      <trkpt lat="44.12436" lon="3.56976">
        <ele>1528.9</ele>
        <time>2021-08-12T12:18:11Z</time>
      </trkpt>
      <trkpt lat="44.12433" lon="3.56977">
        <ele>1529.1</ele>
        <time>2021-08-12T12:18:13Z</time>
      </trkpt>
      <trkpt lat="44.1243" lon="3.56978">
        <ele>1529.3</ele>
        <time>2021-08-12T12:18:15Z</time>
      </trkpt>
      <trkpt lat="44.12427" lon="3.56979">
        <ele>1529.5</ele>
        <time>2021-08-12T12:18:17Z</time>
      </trkpt>
      <trkpt lat="44.12424" lon="3.56979">
        <ele>1529.8</ele>
        <time>2021-08-12T12:18:19Z</time>
      </trkpt>
      <trkpt lat="44.12421" lon="3.56981">
        <ele>1530.1</ele>
        <time>2021-08-12T12:18:21Z</time>
      </trkpt>
      <trkpt lat="44.12418" lon="3.56982">
        <ele>1530.4</ele>
        <time>2021-08-12T12:18:23Z</time>
      </trkpt>
      <trkpt lat="44.12414" lon="3.56983">
        <ele>1530.7</ele>
        <time>2021-08-12T12:18:25Z</time>
      </trkpt>
      <trkpt lat="44.12411" lon="3.56985">
        <ele>1531.1</ele>
        <time>2021-08-12T12:18:27Z</time>
      </trkpt>
      <trkpt lat="44.12408" lon="3.56986">
        <ele>1531.5</ele>
        <time>2021-08-12T12:18:29Z</time>
      </trkpt>
      <trkpt lat="44.12405" lon="3.56988">
        <ele>1531.8</ele>
        <time>2021-08-12T12:18:31Z</time>
      </trkpt>
      <trkpt lat="44.12402" lon="3.56989">
        <ele>1532.2</ele>
        <time>2021-08-12T12:18:33Z</time>
      </trkpt>
      <trkpt lat="44.12399" lon="3.56991">
        <ele>1532.5</ele>
        <time>2021-08-12T12:18:35Z</time>
      </trkpt>
      <trkpt lat="44.12396" lon="3.56992">
        <ele>1532.9</ele>
        <time>2021-08-12T12:18:37Z</time>
      </trkpt>
      <trkpt lat="44.12393" lon="3.56994">
        <ele>1533.3</ele>
        <time>2021-08-12T12:18:39Z</time>
      </trkpt>
      <trkpt lat="44.1239" lon="3.56995">
        <ele>1533.7</ele>
        <time>2021-08-12T12:18:41Z</time>
      </trkpt>
      <trkpt lat="44.12387" lon="3.56997">
        <ele>1534</ele>
        <time>2021-08-12T12:18:43Z</time>
      </trkpt>
      <trkpt lat="44.12384" lon="3.56998">
        <ele>1534.4</ele>
        <time>2021-08-12T12:18:45Z</time>
      </trkpt>
      <trkpt lat="44.12381" lon="3.57">
        <ele>1534.7</ele>
        <time>2021-08-12T12:18:47Z</time>
      </trkpt>
      <trkpt lat="44.12378" lon="3.57001">
        <ele>1534.9</ele>
        <time>2021-08-12T12:18:49Z</time>
      </trkpt>
      <trkpt lat="44.12375" lon="3.57003">
        <ele>1535.1</ele>
        <time>2021-08-12T12:18:51Z</time>
      </trkpt>
      <trkpt lat="44.12372" lon="3.57005">
        <ele>1535.3</ele>
        <time>2021-08-12T12:18:53Z</time>
      </trkpt>
      <trkpt lat="44.12369" lon="3.57007">
        <ele>1535.5</ele>
        <time>2021-08-12T12:18:55Z</time>
      </trkpt>
      <trkpt lat="44.12366" lon="3.57008">
        <ele>1535.6</ele>
        <time>2021-08-12T12:18:57Z</time>
      </trkpt>
      <trkpt lat="44.12362" lon="3.57009">
        <ele>1535.8</ele>
        <time>2021-08-12T12:18:59Z</time>
      </trkpt>
      <trkpt lat="44.12359" lon="3.57012">
        <ele>1536</ele>
        <time>2021-08-12T12:19:01Z</time>
      </trkpt>
      <trkpt lat="44.12356" lon="3.57013">
        <ele>1536.2</ele>
        <time>2021-08-12T12:19:03Z</time>
      </trkpt>
      <trkpt lat="44.12353" lon="3.57014">
        <ele>1536.4</ele>
        <time>2021-08-12T12:19:05Z</time>
      </trkpt>
      <trkpt lat="44.12349" lon="3.57015">
        <ele>1536.6</ele>
        <time>2021-08-12T12:19:07Z</time>
      </trkpt>
      <trkpt lat="44.12347" lon="3.57017">
        <ele>1536.8</ele>
        <time>2021-08-12T12:19:09Z</time>
      </trkpt>
      <trkpt lat="44.12343" lon="3.57018">
        <ele>1537</ele>
        <time>2021-08-12T12:19:11Z</time>
      </trkpt>
      <trkpt lat="44.1234" lon="3.57019">
        <ele>1537.2</ele>
        <time>2021-08-12T12:19:13Z</time>
      </trkpt>
      <trkpt lat="44.12336" lon="3.5702">
        <ele>1537.4</ele>
        <time>2021-08-12T12:19:15Z</time>
      </trkpt>
      <trkpt lat="44.12333" lon="3.57022">
        <ele>1537.6</ele>
        <time>2021-08-12T12:19:17Z</time>
      </trkpt>
      <trkpt lat="44.12329" lon="3.57023">
        <ele>1537.8</ele>
        <time>2021-08-12T12:19:19Z</time>
      </trkpt>
      <trkpt lat="44.12326" lon="3.57024">
        <ele>1538</ele>
        <time>2021-08-12T12:19:21Z</time>
      </trkpt>
      <trkpt lat="44.12323" lon="3.57025">
        <ele>1538.2</ele>
        <time>2021-08-12T12:19:23Z</time>
      </trkpt>
      <trkpt lat="44.12319" lon="3.57025">
        <ele>1538.4</ele>
        <time>2021-08-12T12:19:25Z</time>
      </trkpt>
      <trkpt lat="44.12316" lon="3.57025">
        <ele>1538.6</ele>
        <time>2021-08-12T12:19:27Z</time>
      </trkpt>
      <trkpt lat="44.12312" lon="3.57025">
        <ele>1538.8</ele>
        <time>2021-08-12T12:19:29Z</time>
      </trkpt>
      <trkpt lat="44.12309" lon="3.57025">
        <ele>1539</ele>
        <time>2021-08-12T12:19:31Z</time>
      </trkpt>
      <trkpt lat="44.12305" lon="3.57025">
        <ele>1539.2</ele>
        <time>2021-08-12T12:19:33Z</time>
      </trkpt>
      <trkpt lat="44.12302" lon="3.57023">
        <ele>1539.3</ele>
        <time>2021-08-12T12:19:35Z</time>
      </trkpt>
      <trkpt lat="44.12299" lon="3.57023">
        <ele>1539.5</ele>
        <time>2021-08-12T12:19:37Z</time>
      </trkpt>
      <trkpt lat="44.12295" lon="3.57021">
        <ele>1539.7</ele>
        <time>2021-08-12T12:19:39Z</time>
      </trkpt>
      <trkpt lat="44.12292" lon="3.5702">
        <ele>1539.8</ele>
        <time>2021-08-12T12:19:41Z</time>
      </trkpt>
      <trkpt lat="44.12289" lon="3.57018">
        <ele>1540</ele>
        <time>2021-08-12T12:19:43Z</time>
      </trkpt>
      <trkpt lat="44.12286" lon="3.57015">
        <ele>1540.1</ele>
        <time>2021-08-12T12:19:45Z</time>
      </trkpt>
      <trkpt lat="44.12283" lon="3.57013">
        <ele>1540.2</ele>
        <time>2021-08-12T12:19:47Z</time>
      </trkpt>
      <trkpt lat="44.1228" lon="3.57011">
        <ele>1540.4</ele>
        <time>2021-08-12T12:19:49Z</time>
      </trkpt>
      <trkpt lat="44.12277" lon="3.57008">
        <ele>1540.5</ele>
        <time>2021-08-12T12:19:51Z</time>
      </trkpt>
      <trkpt lat="44.12274" lon="3.57006">
        <ele>1540.7</ele>
        <time>2021-08-12T12:19:53Z</time>
      </trkpt>
      <trkpt lat="44.12271" lon="3.57004">
        <ele>1540.8</ele>
        <time>2021-08-12T12:19:55Z</time>
      </trkpt>
      <trkpt lat="44.12268" lon="3.57002">
        <ele>1540.9</ele>
        <time>2021-08-12T12:19:57Z</time>
      </trkpt>
      <trkpt lat="44.12265" lon="3.57">
        <ele>1541.1</ele>
        <time>2021-08-12T12:19:59Z</time>
      </trkpt>
      <trkpt lat="44.12262" lon="3.56999">
        <ele>1541.2</ele>
        <time>2021-08-12T12:20:01Z</time>
      </trkpt>
      <trkpt lat="44.12259" lon="3.56998">
        <ele>1541.4</ele>
        <time>2021-08-12T12:20:03Z</time>
      </trkpt>
      <trkpt lat="44.12255" lon="3.56997">
        <ele>1541.5</ele>
        <time>2021-08-12T12:20:05Z</time>
      </trkpt>
      <trkpt lat="44.12252" lon="3.56995">
        <ele>1541.6</ele>
        <time>2021-08-12T12:20:07Z</time>
      </trkpt>
      <trkpt lat="44.12249" lon="3.56995">
        <ele>1541.7</ele>
        <time>2021-08-12T12:20:09Z</time>
      </trkpt>
      <trkpt lat="44.12245" lon="3.56996">
        <ele>1541.5</ele>
        <time>2021-08-12T12:20:11Z</time>
      </trkpt>
      <trkpt lat="44.12242" lon="3.56999">
        <ele>1541.4</ele>
        <time>2021-08-12T12:20:13Z</time>
      </trkpt>
      <trkpt lat="44.12238" lon="3.57001">
        <ele>1541.3</ele>
        <time>2021-08-12T12:20:15Z</time>
      </trkpt>
      <trkpt lat="44.12235" lon="3.57004">
        <ele>1541.2</ele>
        <time>2021-08-12T12:20:17Z</time>
      </trkpt>
      <trkpt lat="44.12233" lon="3.57008">
        <ele>1541.1</ele>
        <time>2021-08-12T12:20:19Z</time>
      </trkpt>
      <trkpt lat="44.1223" lon="3.57012">
        <ele>1541.1</ele>
        <time>2021-08-12T12:20:21Z</time>
      </trkpt>
      <trkpt lat="44.12228" lon="3.57016">
        <ele>1541.1</ele>
        <time>2021-08-12T12:20:23Z</time>
      </trkpt>
      <trkpt lat="44.12226" lon="3.57021">
        <ele>1541.2</ele>
        <time>2021-08-12T12:20:25Z</time>
      </trkpt>
      <trkpt lat="44.12223" lon="3.57026">
        <ele>1541.2</ele>
        <time>2021-08-12T12:20:27Z</time>
      </trkpt>
      <trkpt lat="44.12222" lon="3.57031">
        <ele>1541.3</ele>
        <time>2021-08-12T12:20:29Z</time>
      </trkpt>
      <trkpt lat="44.12221" lon="3.57037">
        <ele>1541.5</ele>
        <time>2021-08-12T12:20:31Z</time>
      </trkpt>
      <trkpt lat="44.12219" lon="3.57041">
        <ele>1541.6</ele>
        <time>2021-08-12T12:20:33Z</time>
      </trkpt>
      <trkpt lat="44.12218" lon="3.57046">
        <ele>1541.7</ele>
        <time>2021-08-12T12:20:35Z</time>
      </trkpt>
      <trkpt lat="44.12216" lon="3.57052">
        <ele>1541.8</ele>
        <time>2021-08-12T12:20:37Z</time>
      </trkpt>
      <trkpt lat="44.12214" lon="3.57057">
        <ele>1542</ele>
        <time>2021-08-12T12:20:39Z</time>
      </trkpt>
      <trkpt lat="44.12212" lon="3.57061">
        <ele>1542.1</ele>
        <time>2021-08-12T12:20:41Z</time>
      </trkpt>
      <trkpt lat="44.12211" lon="3.57066">
        <ele>1542.3</ele>
        <time>2021-08-12T12:20:43Z</time>
      </trkpt>
      <trkpt lat="44.1221" lon="3.57073">
        <ele>1542.6</ele>
        <time>2021-08-12T12:20:45Z</time>
      </trkpt>
      <trkpt lat="44.12208" lon="3.57079">
        <ele>1542.8</ele>
        <time>2021-08-12T12:20:47Z</time>
      </trkpt>
      <trkpt lat="44.12207" lon="3.57085">
        <ele>1543</ele>
        <time>2021-08-12T12:20:49Z</time>
      </trkpt>
      <trkpt lat="44.12204" lon="3.57091">
        <ele>1543.2</ele>
        <time>2021-08-12T12:20:51Z</time>
      </trkpt>
      <trkpt lat="44.12202" lon="3.57097">
        <ele>1543.3</ele>
        <time>2021-08-12T12:20:53Z</time>
      </trkpt>
      <trkpt lat="44.122" lon="3.57104">
        <ele>1543.5</ele>
        <time>2021-08-12T12:20:55Z</time>
      </trkpt>
      <trkpt lat="44.12198" lon="3.5711">
        <ele>1543.8</ele>
        <time>2021-08-12T12:20:57Z</time>
      </trkpt>
      <trkpt lat="44.12196" lon="3.57117">
        <ele>1544</ele>
        <time>2021-08-12T12:20:59Z</time>
      </trkpt>
      <trkpt lat="44.12194" lon="3.57125">
        <ele>1544.3</ele>
        <time>2021-08-12T12:21:01Z</time>
      </trkpt>
      <trkpt lat="44.12192" lon="3.57133">
        <ele>1544.7</ele>
        <time>2021-08-12T12:21:03Z</time>
      </trkpt>
      <trkpt lat="44.1219" lon="3.5714">
        <ele>1545.1</ele>
        <time>2021-08-12T12:21:05Z</time>
      </trkpt>
      <trkpt lat="44.12187" lon="3.57148">
        <ele>1545.5</ele>
        <time>2021-08-12T12:21:07Z</time>
      </trkpt>
      <trkpt lat="44.12186" lon="3.57156">
        <ele>1546</ele>
        <time>2021-08-12T12:21:09Z</time>
      </trkpt>
      <trkpt lat="44.12184" lon="3.57161">
        <ele>1546.3</ele>
        <time>2021-08-12T12:21:11Z</time>
      </trkpt>
      <trkpt lat="44.12182" lon="3.57168">
        <ele>1546.7</ele>
        <time>2021-08-12T12:21:13Z</time>
      </trkpt>
      <trkpt lat="44.12181" lon="3.57175">
        <ele>1547</ele>
        <time>2021-08-12T12:21:15Z</time>
      </trkpt>
      <trkpt lat="44.12179" lon="3.57182">
        <ele>1547.4</ele>
        <time>2021-08-12T12:21:17Z</time>
      </trkpt>
      <trkpt lat="44.12177" lon="3.57188">
        <ele>1547.6</ele>
        <time>2021-08-12T12:21:19Z</time>
      </trkpt>
      <trkpt lat="44.12176" lon="3.57195">
        <ele>1547.9</ele>
        <time>2021-08-12T12:21:21Z</time>
      </trkpt>
      <trkpt lat="44.12174" lon="3.57201">
        <ele>1548.2</ele>
        <time>2021-08-12T12:21:23Z</time>
      </trkpt>
      <trkpt lat="44.12173" lon="3.57207">
        <ele>1548.5</ele>
        <time>2021-08-12T12:21:25Z</time>
      </trkpt>
      <trkpt lat="44.12171" lon="3.57214">
        <ele>1548.7</ele>
        <time>2021-08-12T12:21:27Z</time>
      </trkpt>
      <trkpt lat="44.1217" lon="3.5722">
        <ele>1549</ele>
        <time>2021-08-12T12:21:29Z</time>
      </trkpt>
      <trkpt lat="44.12169" lon="3.57226">
        <ele>1549.2</ele>
        <time>2021-08-12T12:21:31Z</time>
      </trkpt>
      <trkpt lat="44.12168" lon="3.57232">
        <ele>1549.5</ele>
        <time>2021-08-12T12:21:33Z</time>
      </trkpt>
      <trkpt lat="44.12166" lon="3.57238">
        <ele>1549.7</ele>
        <time>2021-08-12T12:21:35Z</time>
      </trkpt>
      <trkpt lat="44.12164" lon="3.57244">
        <ele>1549.8</ele>
        <time>2021-08-12T12:21:37Z</time>
      </trkpt>
      <trkpt lat="44.12163" lon="3.5725">
        <ele>1549.9</ele>
        <time>2021-08-12T12:21:39Z</time>
      </trkpt>
      <trkpt lat="44.12162" lon="3.57255">
        <ele>1550.2</ele>
        <time>2021-08-12T12:21:41Z</time>
      </trkpt>
      <trkpt lat="44.12161" lon="3.57261">
        <ele>1550.4</ele>
        <time>2021-08-12T12:21:43Z</time>
      </trkpt>
      <trkpt lat="44.12161" lon="3.57267">
        <ele>1550.6</ele>
        <time>2021-08-12T12:21:45Z</time>
      </trkpt>
      <trkpt lat="44.1216" lon="3.57273">
        <ele>1550.8</ele>
        <time>2021-08-12T12:21:47Z</time>
      </trkpt>
      <trkpt lat="44.1216" lon="3.57279">
        <ele>1551.1</ele>
        <time>2021-08-12T12:21:49Z</time>
      </trkpt>
      <trkpt lat="44.1216" lon="3.57284">
        <ele>1551.3</ele>
        <time>2021-08-12T12:21:51Z</time>
      </trkpt>
      <trkpt lat="44.12159" lon="3.5729">
        <ele>1551.5</ele>
        <time>2021-08-12T12:21:53Z</time>
      </trkpt>
      <trkpt lat="44.12159" lon="3.57295">
        <ele>1551.7</ele>
        <time>2021-08-12T12:21:55Z</time>
      </trkpt>
      <trkpt lat="44.12159" lon="3.57301">
        <ele>1551.9</ele>
        <time>2021-08-12T12:21:57Z</time>
      </trkpt>
      <trkpt lat="44.12159" lon="3.57308">
        <ele>1552.3</ele>
        <time>2021-08-12T12:21:59Z</time>
      </trkpt>
      <trkpt lat="44.12159" lon="3.57315">
        <ele>1552.5</ele>
        <time>2021-08-12T12:22:01Z</time>
      </trkpt>
      <trkpt lat="44.12159" lon="3.57321">
        <ele>1552.8</ele>
        <time>2021-08-12T12:22:03Z</time>
      </trkpt>
      <trkpt lat="44.12159" lon="3.57326">
        <ele>1552.9</ele>
        <time>2021-08-12T12:22:05Z</time>
      </trkpt>
      <trkpt lat="44.12159" lon="3.57333">
        <ele>1553.2</ele>
        <time>2021-08-12T12:22:07Z</time>
      </trkpt>
      <trkpt lat="44.12159" lon="3.5734">
        <ele>1553.4</ele>
        <time>2021-08-12T12:22:09Z</time>
      </trkpt>
      <trkpt lat="44.12159" lon="3.57347">
        <ele>1553.7</ele>
        <time>2021-08-12T12:22:11Z</time>
      </trkpt>
      <trkpt lat="44.12159" lon="3.57354">
        <ele>1553.9</ele>
        <time>2021-08-12T12:22:13Z</time>
      </trkpt>
      <trkpt lat="44.12159" lon="3.57362">
        <ele>1554.1</ele>
        <time>2021-08-12T12:22:15Z</time>
      </trkpt>
      <trkpt lat="44.12159" lon="3.5737">
        <ele>1554.3</ele>
        <time>2021-08-12T12:22:17Z</time>
      </trkpt>
      <trkpt lat="44.12159" lon="3.57378">
        <ele>1554.6</ele>
        <time>2021-08-12T12:22:19Z</time>
      </trkpt>
      <trkpt lat="44.12159" lon="3.57387">
        <ele>1554.8</ele>
        <time>2021-08-12T12:22:21Z</time>
      </trkpt>
      <trkpt lat="44.12159" lon="3.57395">
        <ele>1555</ele>
        <time>2021-08-12T12:22:23Z</time>
      </trkpt>
      <trkpt lat="44.12159" lon="3.57404">
        <ele>1555.3</ele>
        <time>2021-08-12T12:22:25Z</time>
      </trkpt>
      <trkpt lat="44.1216" lon="3.57412">
        <ele>1555.5</ele>
        <time>2021-08-12T12:22:27Z</time>
      </trkpt>
      <trkpt lat="44.1216" lon="3.57421">
        <ele>1555.8</ele>
        <time>2021-08-12T12:22:29Z</time>
      </trkpt>
      <trkpt lat="44.12159" lon="3.57429">
        <ele>1556</ele>
        <time>2021-08-12T12:22:31Z</time>
      </trkpt>
      <trkpt lat="44.1216" lon="3.57438">
        <ele>1556.2</ele>
        <time>2021-08-12T12:22:33Z</time>
      </trkpt>
      <trkpt lat="44.1216" lon="3.57446">
        <ele>1556.4</ele>
        <time>2021-08-12T12:22:35Z</time>
      </trkpt>
      <trkpt lat="44.12161" lon="3.57454">
        <ele>1556.6</ele>
        <time>2021-08-12T12:22:37Z</time>
      </trkpt>
      <trkpt lat="44.1216" lon="3.57463">
        <ele>1556.8</ele>
        <time>2021-08-12T12:22:39Z</time>
      </trkpt>
      <trkpt lat="44.1216" lon="3.57472">
        <ele>1557.1</ele>
        <time>2021-08-12T12:22:41Z</time>
      </trkpt>
      <trkpt lat="44.1216" lon="3.57481">
        <ele>1557.3</ele>
        <time>2021-08-12T12:22:43Z</time>
      </trkpt>
      <trkpt lat="44.1216" lon="3.57489">
        <ele>1557.5</ele>
        <time>2021-08-12T12:22:45Z</time>
      </trkpt>
      <trkpt lat="44.1216" lon="3.57498">
        <ele>1557.7</ele>
        <time>2021-08-12T12:22:47Z</time>
      </trkpt>
      <trkpt lat="44.12159" lon="3.57506">
        <ele>1557.8</ele>
        <time>2021-08-12T12:22:49Z</time>
      </trkpt>
      <trkpt lat="44.12159" lon="3.57514">
        <ele>1557.8</ele>
        <time>2021-08-12T12:22:51Z</time>
      </trkpt>
      <trkpt lat="44.12159" lon="3.57522">
        <ele>1557.8</ele>
        <time>2021-08-12T12:22:53Z</time>
      </trkpt>
      <trkpt lat="44.12159" lon="3.5753">
        <ele>1557.9</ele>
        <time>2021-08-12T12:22:55Z</time>
      </trkpt>
      <trkpt lat="44.12159" lon="3.57537">
        <ele>1557.9</ele>
        <time>2021-08-12T12:22:57Z</time>
      </trkpt>
      <trkpt lat="44.12159" lon="3.57543">
        <ele>1557.9</ele>
        <time>2021-08-12T12:22:59Z</time>
      </trkpt>
      <trkpt lat="44.12159" lon="3.5755">
        <ele>1558</ele>
        <time>2021-08-12T12:23:01Z</time>
      </trkpt>
      <trkpt lat="44.12159" lon="3.57557">
        <ele>1558</ele>
        <time>2021-08-12T12:23:03Z</time>
      </trkpt>
      <trkpt lat="44.12159" lon="3.57564">
        <ele>1558</ele>
        <time>2021-08-12T12:23:05Z</time>
      </trkpt>
      <trkpt lat="44.12158" lon="3.5757">
        <ele>1557.9</ele>
        <time>2021-08-12T12:23:07Z</time>
      </trkpt>
      <trkpt lat="44.12158" lon="3.57576">
        <ele>1557.9</ele>
        <time>2021-08-12T12:23:09Z</time>
      </trkpt>
      <trkpt lat="44.12158" lon="3.57583">
        <ele>1557.9</ele>
        <time>2021-08-12T12:23:11Z</time>
      </trkpt>
      <trkpt lat="44.12157" lon="3.57589">
        <ele>1557.8</ele>
        <time>2021-08-12T12:23:13Z</time>
      </trkpt>
      <trkpt lat="44.12157" lon="3.57596">
        <ele>1557.7</ele>
        <time>2021-08-12T12:23:15Z</time>
      </trkpt>
      <trkpt lat="44.12157" lon="3.57602">
        <ele>1557.6</ele>
        <time>2021-08-12T12:23:17Z</time>
      </trkpt>
      <trkpt lat="44.12157" lon="3.57609">
        <ele>1557.6</ele>
        <time>2021-08-12T12:23:19Z</time>
      </trkpt>
      <trkpt lat="44.12156" lon="3.57617">
        <ele>1557.4</ele>
        <time>2021-08-12T12:23:21Z</time>
      </trkpt>
      <trkpt lat="44.12156" lon="3.57626">
        <ele>1557.3</ele>
        <time>2021-08-12T12:23:23Z</time>
      </trkpt>
      <trkpt lat="44.12155" lon="3.57635">
        <ele>1557.1</ele>
        <time>2021-08-12T12:23:25Z</time>
      </trkpt>
      <trkpt lat="44.12154" lon="3.57644">
        <ele>1556.9</ele>
        <time>2021-08-12T12:23:27Z</time>
      </trkpt>
      <trkpt lat="44.12154" lon="3.57654">
        <ele>1556.7</ele>
        <time>2021-08-12T12:23:29Z</time>
      </trkpt>
      <trkpt lat="44.12154" lon="3.57663">
        <ele>1556.6</ele>
        <time>2021-08-12T12:23:31Z</time>
      </trkpt>
      <trkpt lat="44.12153" lon="3.57673">
        <ele>1556.6</ele>
        <time>2021-08-12T12:23:33Z</time>
      </trkpt>
      <trkpt lat="44.12153" lon="3.57682">
        <ele>1556.6</ele>
        <time>2021-08-12T12:23:35Z</time>
      </trkpt>
      <trkpt lat="44.12152" lon="3.57691">
        <ele>1556.7</ele>
        <time>2021-08-12T12:23:37Z</time>
      </trkpt>
      <trkpt lat="44.12151" lon="3.57701">
        <ele>1556.7</ele>
        <time>2021-08-12T12:23:39Z</time>
      </trkpt>
      <trkpt lat="44.12149" lon="3.5771">
        <ele>1556.6</ele>
        <time>2021-08-12T12:23:41Z</time>
      </trkpt>
      <trkpt lat="44.12147" lon="3.5772">
        <ele>1556.6</ele>
        <time>2021-08-12T12:23:43Z</time>
      </trkpt>
      <trkpt lat="44.12144" lon="3.57728">
        <ele>1556.6</ele>
        <time>2021-08-12T12:23:45Z</time>
      </trkpt>
      <trkpt lat="44.12141" lon="3.57734">
        <ele>1556.4</ele>
        <time>2021-08-12T12:23:47Z</time>
      </trkpt>
      <trkpt lat="44.12137" lon="3.5774">
        <ele>1556.4</ele>
        <time>2021-08-12T12:23:49Z</time>
      </trkpt>
      <trkpt lat="44.12135" lon="3.57746">
        <ele>1556.4</ele>
        <time>2021-08-12T12:23:51Z</time>
      </trkpt>
      <trkpt lat="44.12132" lon="3.57752">
        <ele>1556.3</ele>
        <time>2021-08-12T12:23:53Z</time>
      </trkpt>
      <trkpt lat="44.1213" lon="3.57758">
        <ele>1556</ele>
        <time>2021-08-12T12:23:55Z</time>
      </trkpt>
      <trkpt lat="44.12128" lon="3.57765">
        <ele>1555.8</ele>
        <time>2021-08-12T12:23:57Z</time>
      </trkpt>
      <trkpt lat="44.12127" lon="3.57772">
        <ele>1555.5</ele>
        <time>2021-08-12T12:23:59Z</time>
      </trkpt>
      <trkpt lat="44.12126" lon="3.5778">
        <ele>1555.3</ele>
        <time>2021-08-12T12:24:01Z</time>
      </trkpt>
      <trkpt lat="44.12125" lon="3.57787">
        <ele>1555.1</ele>
        <time>2021-08-12T12:24:03Z</time>
      </trkpt>
      <trkpt lat="44.12124" lon="3.57792">
        <ele>1555</ele>
        <time>2021-08-12T12:24:05Z</time>
      </trkpt>
      <trkpt lat="44.12123" lon="3.57799">
        <ele>1554.8</ele>
        <time>2021-08-12T12:24:07Z</time>
      </trkpt>
      <trkpt lat="44.12121" lon="3.57805">
        <ele>1554.6</ele>
        <time>2021-08-12T12:24:09Z</time>
      </trkpt>
      <trkpt lat="44.12121" lon="3.57812">
        <ele>1554.5</ele>
        <time>2021-08-12T12:24:11Z</time>
      </trkpt>
      <trkpt lat="44.12121" lon="3.57819">
        <ele>1554.3</ele>
        <time>2021-08-12T12:24:13Z</time>
      </trkpt>
      <trkpt lat="44.1212" lon="3.57826">
        <ele>1554.2</ele>
        <time>2021-08-12T12:24:15Z</time>
      </trkpt>
      <trkpt lat="44.1212" lon="3.57833">
        <ele>1554</ele>
        <time>2021-08-12T12:24:17Z</time>
      </trkpt>
      <trkpt lat="44.1212" lon="3.5784">
        <ele>1553.7</ele>
        <time>2021-08-12T12:24:19Z</time>
      </trkpt>
      <trkpt lat="44.12119" lon="3.57847">
        <ele>1553.5</ele>
        <time>2021-08-12T12:24:21Z</time>
      </trkpt>
      <trkpt lat="44.12119" lon="3.57854">
        <ele>1553.2</ele>
        <time>2021-08-12T12:24:23Z</time>
      </trkpt>
      <trkpt lat="44.12118" lon="3.5786">
        <ele>1552.9</ele>
        <time>2021-08-12T12:24:25Z</time>
      </trkpt>
      <trkpt lat="44.12117" lon="3.57867">
        <ele>1552.6</ele>
        <time>2021-08-12T12:24:27Z</time>
      </trkpt>
      <trkpt lat="44.12117" lon="3.57874">
        <ele>1552.4</ele>
        <time>2021-08-12T12:24:29Z</time>
      </trkpt>
      <trkpt lat="44.12117" lon="3.5788">
        <ele>1552.1</ele>
        <time>2021-08-12T12:24:31Z</time>
      </trkpt>
      <trkpt lat="44.12117" lon="3.57886">
        <ele>1551.9</ele>
        <time>2021-08-12T12:24:33Z</time>
      </trkpt>
      <trkpt lat="44.12117" lon="3.57891">
        <ele>1551.7</ele>
        <time>2021-08-12T12:24:35Z</time>
      </trkpt>
      <trkpt lat="44.12116" lon="3.57896">
        <ele>1551.4</ele>
        <time>2021-08-12T12:24:37Z</time>
      </trkpt>
      <trkpt lat="44.12116" lon="3.57901">
        <ele>1551.2</ele>
        <time>2021-08-12T12:24:39Z</time>
      </trkpt>
      <trkpt lat="44.12116" lon="3.57906">
        <ele>1551</ele>
        <time>2021-08-12T12:24:41Z</time>
      </trkpt>
      <trkpt lat="44.12117" lon="3.57911">
        <ele>1550.8</ele>
        <time>2021-08-12T12:24:43Z</time>
      </trkpt>
      <trkpt lat="44.12116" lon="3.57915">
        <ele>1550.7</ele>
        <time>2021-08-12T12:24:45Z</time>
      </trkpt>
      <trkpt lat="44.12116" lon="3.57917">
        <ele>1550.6</ele>
        <time>2021-08-12T12:24:47Z</time>
      </trkpt>
      <trkpt lat="44.12116" lon="3.57917">
        <ele>1550.6</ele>
        <time>2021-08-12T12:24:49Z</time>
      </trkpt>
      <trkpt lat="44.12116" lon="3.57917">
        <ele>1550.6</ele>
        <time>2021-08-12T12:24:51Z</time>
      </trkpt>
      <trkpt lat="44.12116" lon="3.57917">
        <ele>1550.5</ele>
        <time>2021-08-12T12:24:53Z</time>
      </trkpt>
      <trkpt lat="44.12116" lon="3.57917">
        <ele>1550.5</ele>
        <time>2021-08-12T12:24:55Z</time>
      </trkpt>
      <trkpt lat="44.12139" lon="3.58182">
        <ele>1548.6</ele>
        <time>2021-08-12T15:23:03Z</time>
      </trkpt>
      <trkpt lat="44.12143" lon="3.58183">
        <ele>1549.5</ele>
        <time>2021-08-12T15:23:05Z</time>
      </trkpt>
      <trkpt lat="44.12146" lon="3.58183">
        <ele>1550.1</ele>
        <time>2021-08-12T15:23:07Z</time>
      </trkpt>
      <trkpt lat="44.12148" lon="3.58184">
        <ele>1550.6</ele>
        <time>2021-08-12T15:23:09Z</time>
      </trkpt>
      <trkpt lat="44.12151" lon="3.58186">
        <ele>1551.1</ele>
        <time>2021-08-12T15:23:11Z</time>
      </trkpt>
      <trkpt lat="44.12154" lon="3.58186">
        <ele>1551.6</ele>
        <time>2021-08-12T15:23:13Z</time>
      </trkpt>
      <trkpt lat="44.12154" lon="3.58186">
        <ele>1551.8</ele>
        <time>2021-08-12T15:23:15Z</time>
      </trkpt>
      <trkpt lat="44.12158" lon="3.58185">
        <ele>1552.6</ele>
        <time>2021-08-12T15:23:17Z</time>
      </trkpt>
      <trkpt lat="44.1216" lon="3.58183">
        <ele>1553.1</ele>
        <time>2021-08-12T15:23:19Z</time>
      </trkpt>
      <trkpt lat="44.12159" lon="3.58182">
        <ele>1553</ele>
        <time>2021-08-12T15:23:21Z</time>
      </trkpt>
      <trkpt lat="44.12158" lon="3.58181">
        <ele>1552.8</ele>
        <time>2021-08-12T15:23:23Z</time>
      </trkpt>
      <trkpt lat="44.12157" lon="3.58178">
        <ele>1552.6</ele>
        <time>2021-08-12T15:23:25Z</time>
      </trkpt>
      <trkpt lat="44.12156" lon="3.58176">
        <ele>1552.5</ele>
        <time>2021-08-12T15:23:27Z</time>
      </trkpt>
      <trkpt lat="44.12155" lon="3.58173">
        <ele>1552.3</ele>
        <time>2021-08-12T15:23:29Z</time>
      </trkpt>
      <trkpt lat="44.12155" lon="3.58173">
        <ele>1552.4</ele>
        <time>2021-08-12T15:23:31Z</time>
      </trkpt>
      <trkpt lat="44.12155" lon="3.58168">
        <ele>1552.5</ele>
        <time>2021-08-12T15:23:33Z</time>
      </trkpt>
      <trkpt lat="44.12155" lon="3.58168">
        <ele>1552.5</ele>
        <time>2021-08-12T15:23:33Z</time>
      </trkpt>
      <trkpt lat="44.12158" lon="3.58171">
        <ele>1553.1</ele>
        <time>2021-08-12T15:23:39Z</time>
      </trkpt>
      <trkpt lat="44.12156" lon="3.58171">
        <ele>1552.7</ele>
        <time>2021-08-12T15:23:41Z</time>
      </trkpt>
      <trkpt lat="44.12155" lon="3.5817">
        <ele>1552.4</ele>
        <time>2021-08-12T15:23:43Z</time>
      </trkpt>
      <trkpt lat="44.09495" lon="3.54797">
        <ele>1232.5</ele>
        <time>2021-08-12T16:44:30Z</time>
      </trkpt>
      <trkpt lat="44.09491" lon="3.54791">
        <ele>1232.5</ele>
        <time>2021-08-12T16:44:32Z</time>
      </trkpt>
      <trkpt lat="44.09486" lon="3.54784">
        <ele>1232.5</ele>
        <time>2021-08-12T16:44:34Z</time>
      </trkpt>
      <trkpt lat="44.09479" lon="3.54776">
        <ele>1232.3</ele>
        <time>2021-08-12T16:44:36Z</time>
      </trkpt>
      <trkpt lat="44.09473" lon="3.54767">
        <ele>1232</ele>
        <time>2021-08-12T16:44:38Z</time>
      </trkpt>
      <trkpt lat="44.09465" lon="3.54758">
        <ele>1231.5</ele>
        <time>2021-08-12T16:44:40Z</time>
      </trkpt>
      <trkpt lat="44.09456" lon="3.54749">
        <ele>1230.8</ele>
        <time>2021-08-12T16:44:42Z</time>
      </trkpt>
      <trkpt lat="44.09448" lon="3.54738">
        <ele>1231.1</ele>
        <time>2021-08-12T16:44:44Z</time>
      </trkpt>
      <trkpt lat="44.09439" lon="3.54729">
        <ele>1230.7</ele>
        <time>2021-08-12T16:44:46Z</time>
      </trkpt>
      <trkpt lat="44.09429" lon="3.54718">
        <ele>1230.5</ele>
        <time>2021-08-12T16:44:48Z</time>
      </trkpt>
      <trkpt lat="44.09419" lon="3.54707">
        <ele>1230.3</ele>
        <time>2021-08-12T16:44:50Z</time>
      </trkpt>
      <trkpt lat="44.09408" lon="3.54697">
        <ele>1230.5</ele>
        <time>2021-08-12T16:44:52Z</time>
      </trkpt>
      <trkpt lat="44.09396" lon="3.54687">
        <ele>1230.7</ele>
        <time>2021-08-12T16:44:54Z</time>
      </trkpt>
      <trkpt lat="44.09384" lon="3.54677">
        <ele>1230.4</ele>
        <time>2021-08-12T16:44:56Z</time>
      </trkpt>
      <trkpt lat="44.0937" lon="3.54671">
        <ele>1229.4</ele>
        <time>2021-08-12T16:44:58Z</time>
      </trkpt>
      <trkpt lat="44.09357" lon="3.54668">
        <ele>1228</ele>
        <time>2021-08-12T16:45:00Z</time>
      </trkpt>
      <trkpt lat="44.09344" lon="3.54668">
        <ele>1226.4</ele>
        <time>2021-08-12T16:45:02Z</time>
      </trkpt>
      <trkpt lat="44.09332" lon="3.5467">
        <ele>1224.9</ele>
        <time>2021-08-12T16:45:04Z</time>
      </trkpt>
      <trkpt lat="44.09321" lon="3.54671">
        <ele>1225</ele>
        <time>2021-08-12T16:45:06Z</time>
      </trkpt>
      <trkpt lat="44.09312" lon="3.54672">
        <ele>1225</ele>
        <time>2021-08-12T16:45:08Z</time>
      </trkpt>
      <trkpt lat="44.09304" lon="3.54673">
        <ele>1225.1</ele>
        <time>2021-08-12T16:45:10Z</time>
      </trkpt>
      <trkpt lat="44.09295" lon="3.54675">
        <ele>1225.1</ele>
        <time>2021-08-12T16:45:12Z</time>
      </trkpt>
      <trkpt lat="44.09287" lon="3.54675">
        <ele>1225.3</ele>
        <time>2021-08-12T16:45:14Z</time>
      </trkpt>
      <trkpt lat="44.09278" lon="3.54676">
        <ele>1225.4</ele>
        <time>2021-08-12T16:45:16Z</time>
      </trkpt>
      <trkpt lat="44.09269" lon="3.54678">
        <ele>1225.4</ele>
        <time>2021-08-12T16:45:18Z</time>
      </trkpt>
      <trkpt lat="44.0926" lon="3.54681">
        <ele>1225.5</ele>
        <time>2021-08-12T16:45:20Z</time>
      </trkpt>
      <trkpt lat="44.09251" lon="3.54686">
        <ele>1225.5</ele>
        <time>2021-08-12T16:45:22Z</time>
      </trkpt>
      <trkpt lat="44.09244" lon="3.54691">
        <ele>1225.5</ele>
        <time>2021-08-12T16:45:24Z</time>
      </trkpt>
      <trkpt lat="44.09237" lon="3.54696">
        <ele>1225.5</ele>
        <time>2021-08-12T16:45:26Z</time>
      </trkpt>
      <trkpt lat="44.09228" lon="3.54694">
        <ele>1225.6</ele>
        <time>2021-08-12T16:45:28Z</time>
      </trkpt>
      <trkpt lat="44.09221" lon="3.54686">
        <ele>1225.7</ele>
        <time>2021-08-12T16:45:30Z</time>
      </trkpt>
      <trkpt lat="44.09216" lon="3.54677">
        <ele>1225.6</ele>
        <time>2021-08-12T16:45:32Z</time>
      </trkpt>
      <trkpt lat="44.09211" lon="3.54667">
        <ele>1225.5</ele>
        <time>2021-08-12T16:45:34Z</time>
      </trkpt>
      <trkpt lat="44.09206" lon="3.54659">
        <ele>1225.7</ele>
        <time>2021-08-12T16:45:36Z</time>
      </trkpt>
      <trkpt lat="44.09202" lon="3.5465">
        <ele>1225.9</ele>
        <time>2021-08-12T16:45:38Z</time>
      </trkpt>
      <trkpt lat="44.09197" lon="3.54641">
        <ele>1226.1</ele>
        <time>2021-08-12T16:45:40Z</time>
      </trkpt>
      <trkpt lat="44.09193" lon="3.54631">
        <ele>1226.3</ele>
        <time>2021-08-12T16:45:42Z</time>
      </trkpt>
      <trkpt lat="44.09189" lon="3.54621">
        <ele>1226.4</ele>
        <time>2021-08-12T16:45:44Z</time>
      </trkpt>
      <trkpt lat="44.09184" lon="3.5461">
        <ele>1226.5</ele>
        <time>2021-08-12T16:45:46Z</time>
      </trkpt>
      <trkpt lat="44.09179" lon="3.54599">
        <ele>1226.5</ele>
        <time>2021-08-12T16:45:48Z</time>
      </trkpt>
      <trkpt lat="44.09174" lon="3.54588">
        <ele>1226.4</ele>
        <time>2021-08-12T16:45:50Z</time>
      </trkpt>
      <trkpt lat="44.09169" lon="3.54576">
        <ele>1226.2</ele>
        <time>2021-08-12T16:45:52Z</time>
      </trkpt>
      <trkpt lat="44.09164" lon="3.54564">
        <ele>1226.2</ele>
        <time>2021-08-12T16:45:54Z</time>
      </trkpt>
      <trkpt lat="44.09158" lon="3.54551">
        <ele>1226.4</ele>
        <time>2021-08-12T16:45:56Z</time>
      </trkpt>
      <trkpt lat="44.09153" lon="3.54538">
        <ele>1226.5</ele>
        <time>2021-08-12T16:45:58Z</time>
      </trkpt>
      <trkpt lat="44.09147" lon="3.54524">
        <ele>1226.5</ele>
        <time>2021-08-12T16:46:00Z</time>
      </trkpt>
      <trkpt lat="44.09141" lon="3.5451">
        <ele>1226.3</ele>
        <time>2021-08-12T16:46:02Z</time>
      </trkpt>
      <trkpt lat="44.09135" lon="3.54496">
        <ele>1225.9</ele>
        <time>2021-08-12T16:46:04Z</time>
      </trkpt>
      <trkpt lat="44.09128" lon="3.54482">
        <ele>1225.6</ele>
        <time>2021-08-12T16:46:06Z</time>
      </trkpt>
      <trkpt lat="44.09122" lon="3.54467">
        <ele>1225.1</ele>
        <time>2021-08-12T16:46:08Z</time>
      </trkpt>
      <trkpt lat="44.09115" lon="3.54452">
        <ele>1224.6</ele>
        <time>2021-08-12T16:46:10Z</time>
      </trkpt>
      <trkpt lat="44.09108" lon="3.54436">
        <ele>1223.8</ele>
        <time>2021-08-12T16:46:12Z</time>
      </trkpt>
      <trkpt lat="44.09101" lon="3.5442">
        <ele>1223</ele>
        <time>2021-08-12T16:46:14Z</time>
      </trkpt>
      <trkpt lat="44.09094" lon="3.54405">
        <ele>1222.5</ele>
        <time>2021-08-12T16:46:16Z</time>
      </trkpt>
      <trkpt lat="44.09088" lon="3.5439">
        <ele>1222.1</ele>
        <time>2021-08-12T16:46:18Z</time>
      </trkpt>
      <trkpt lat="44.09084" lon="3.54377">
        <ele>1221.6</ele>
        <time>2021-08-12T16:46:20Z</time>
      </trkpt>
      <trkpt lat="44.09079" lon="3.54364">
        <ele>1222.4</ele>
        <time>2021-08-12T16:46:22Z</time>
      </trkpt>
      <trkpt lat="44.09074" lon="3.5435">
        <ele>1223.2</ele>
        <time>2021-08-12T16:46:24Z</time>
      </trkpt>
      <trkpt lat="44.09071" lon="3.54334">
        <ele>1223.5</ele>
        <time>2021-08-12T16:46:26Z</time>
      </trkpt>
      <trkpt lat="44.0907" lon="3.54317">
        <ele>1223.6</ele>
        <time>2021-08-12T16:46:28Z</time>
      </trkpt>
      <trkpt lat="44.09069" lon="3.54299">
        <ele>1223.6</ele>
        <time>2021-08-12T16:46:30Z</time>
      </trkpt>
      <trkpt lat="44.09069" lon="3.54282">
        <ele>1223.5</ele>
        <time>2021-08-12T16:46:32Z</time>
      </trkpt>
      <trkpt lat="44.09068" lon="3.54264">
        <ele>1223.5</ele>
        <time>2021-08-12T16:46:34Z</time>
      </trkpt>
      <trkpt lat="44.09068" lon="3.54245">
        <ele>1223.4</ele>
        <time>2021-08-12T16:46:36Z</time>
      </trkpt>
      <trkpt lat="44.09068" lon="3.54227">
        <ele>1223.5</ele>
        <time>2021-08-12T16:46:38Z</time>
      </trkpt>
      <trkpt lat="44.09068" lon="3.54207">
        <ele>1223.5</ele>
        <time>2021-08-12T16:46:40Z</time>
      </trkpt>
      <trkpt lat="44.09068" lon="3.54188">
        <ele>1223.6</ele>
        <time>2021-08-12T16:46:42Z</time>
      </trkpt>
      <trkpt lat="44.09069" lon="3.54168">
        <ele>1223.6</ele>
        <time>2021-08-12T16:46:44Z</time>
      </trkpt>
      <trkpt lat="44.09068" lon="3.54149">
        <ele>1223.9</ele>
        <time>2021-08-12T16:46:46Z</time>
      </trkpt>
      <trkpt lat="44.09068" lon="3.54129">
        <ele>1224.2</ele>
        <time>2021-08-12T16:46:48Z</time>
      </trkpt>
      <trkpt lat="44.09067" lon="3.54109">
        <ele>1224.5</ele>
        <time>2021-08-12T16:46:50Z</time>
      </trkpt>
      <trkpt lat="44.09066" lon="3.5409">
        <ele>1224.7</ele>
        <time>2021-08-12T16:46:52Z</time>
      </trkpt>
      <trkpt lat="44.09065" lon="3.5407">
        <ele>1224.2</ele>
        <time>2021-08-12T16:46:54Z</time>
      </trkpt>
      <trkpt lat="44.09063" lon="3.54052">
        <ele>1223.4</ele>
        <time>2021-08-12T16:46:56Z</time>
      </trkpt>
      <trkpt lat="44.09059" lon="3.54034">
        <ele>1222.1</ele>
        <time>2021-08-12T16:46:58Z</time>
      </trkpt>
      <trkpt lat="44.09053" lon="3.54017">
        <ele>1220.5</ele>
        <time>2021-08-12T16:47:00Z</time>
      </trkpt>
      <trkpt lat="44.09045" lon="3.54001">
        <ele>1218.3</ele>
        <time>2021-08-12T16:47:02Z</time>
      </trkpt>
      <trkpt lat="44.09038" lon="3.53985">
        <ele>1218</ele>
        <time>2021-08-12T16:47:04Z</time>
      </trkpt>
      <trkpt lat="44.0903" lon="3.53969">
        <ele>1217.7</ele>
        <time>2021-08-12T16:47:06Z</time>
      </trkpt>
      <trkpt lat="44.09021" lon="3.53953">
        <ele>1217.1</ele>
        <time>2021-08-12T16:47:08Z</time>
      </trkpt>
      <trkpt lat="44.09013" lon="3.53937">
        <ele>1216.4</ele>
        <time>2021-08-12T16:47:10Z</time>
      </trkpt>
      <trkpt lat="44.09005" lon="3.53921">
        <ele>1215.8</ele>
        <time>2021-08-12T16:47:12Z</time>
      </trkpt>
      <trkpt lat="44.08996" lon="3.53905">
        <ele>1216</ele>
        <time>2021-08-12T16:47:14Z</time>
      </trkpt>
      <trkpt lat="44.08988" lon="3.5389">
        <ele>1217</ele>
        <time>2021-08-12T16:47:16Z</time>
      </trkpt>
      <trkpt lat="44.0898" lon="3.53876">
        <ele>1217.7</ele>
        <time>2021-08-12T16:47:18Z</time>
      </trkpt>
      <trkpt lat="44.08973" lon="3.53861">
        <ele>1218.3</ele>
        <time>2021-08-12T16:47:20Z</time>
      </trkpt>
      <trkpt lat="44.08965" lon="3.53848">
        <ele>1218.5</ele>
        <time>2021-08-12T16:47:22Z</time>
      </trkpt>
      <trkpt lat="44.08955" lon="3.53836">
        <ele>1218.3</ele>
        <time>2021-08-12T16:47:24Z</time>
      </trkpt>
      <trkpt lat="44.08945" lon="3.53826">
        <ele>1218.7</ele>
        <time>2021-08-12T16:47:26Z</time>
      </trkpt>
      <trkpt lat="44.08934" lon="3.53818">
        <ele>1218.8</ele>
        <time>2021-08-12T16:47:28Z</time>
      </trkpt>
      <trkpt lat="44.08922" lon="3.53812">
        <ele>1218.7</ele>
        <time>2021-08-12T16:47:30Z</time>
      </trkpt>
      <trkpt lat="44.08909" lon="3.53805">
        <ele>1218.5</ele>
        <time>2021-08-12T16:47:32Z</time>
      </trkpt>
      <trkpt lat="44.08895" lon="3.53799">
        <ele>1218.1</ele>
        <time>2021-08-12T16:47:34Z</time>
      </trkpt>
      <trkpt lat="44.08881" lon="3.53793">
        <ele>1217.5</ele>
        <time>2021-08-12T16:47:36Z</time>
      </trkpt>
      <trkpt lat="44.08867" lon="3.53787">
        <ele>1216.8</ele>
        <time>2021-08-12T16:47:38Z</time>
      </trkpt>
      <trkpt lat="44.08853" lon="3.53783">
        <ele>1215.6</ele>
        <time>2021-08-12T16:47:40Z</time>
      </trkpt>
      <trkpt lat="44.0884" lon="3.53778">
        <ele>1214.7</ele>
        <time>2021-08-12T16:47:42Z</time>
      </trkpt>
      <trkpt lat="44.08829" lon="3.53773">
        <ele>1213.9</ele>
        <time>2021-08-12T16:47:44Z</time>
      </trkpt>
      <trkpt lat="44.08818" lon="3.53767">
        <ele>1213.5</ele>
        <time>2021-08-12T16:47:46Z</time>
      </trkpt>
      <trkpt lat="44.08806" lon="3.5376">
        <ele>1213.2</ele>
        <time>2021-08-12T16:47:48Z</time>
      </trkpt>
      <trkpt lat="44.08796" lon="3.53753">
        <ele>1213</ele>
        <time>2021-08-12T16:47:50Z</time>
      </trkpt>
      <trkpt lat="44.08784" lon="3.53747">
        <ele>1212.9</ele>
        <time>2021-08-12T16:47:52Z</time>
      </trkpt>
      <trkpt lat="44.08772" lon="3.53743">
        <ele>1212.7</ele>
        <time>2021-08-12T16:47:54Z</time>
      </trkpt>
      <trkpt lat="44.08761" lon="3.53739">
        <ele>1212.6</ele>
        <time>2021-08-12T16:47:56Z</time>
      </trkpt>
      <trkpt lat="44.0875" lon="3.53734">
        <ele>1213</ele>
        <time>2021-08-12T16:47:58Z</time>
      </trkpt>
      <trkpt lat="44.0874" lon="3.53729">
        <ele>1213.9</ele>
        <time>2021-08-12T16:48:00Z</time>
      </trkpt>
      <trkpt lat="44.08731" lon="3.53723">
        <ele>1214.8</ele>
        <time>2021-08-12T16:48:02Z</time>
      </trkpt>
      <trkpt lat="44.08722" lon="3.53719">
        <ele>1215.5</ele>
        <time>2021-08-12T16:48:04Z</time>
      </trkpt>
      <trkpt lat="44.08714" lon="3.53715">
        <ele>1215.9</ele>
        <time>2021-08-12T16:48:06Z</time>
      </trkpt>
      <trkpt lat="44.08704" lon="3.53712">
        <ele>1216.2</ele>
        <time>2021-08-12T16:48:08Z</time>
      </trkpt>
      <trkpt lat="44.08693" lon="3.53709">
        <ele>1215.9</ele>
        <time>2021-08-12T16:48:10Z</time>
      </trkpt>
      <trkpt lat="44.0868" lon="3.53711">
        <ele>1214.4</ele>
        <time>2021-08-12T16:48:12Z</time>
      </trkpt>
      <trkpt lat="44.08665" lon="3.53712">
        <ele>1212.7</ele>
        <time>2021-08-12T16:48:14Z</time>
      </trkpt>
      <trkpt lat="44.0865" lon="3.53714">
        <ele>1209.8</ele>
        <time>2021-08-12T16:48:16Z</time>
      </trkpt>
      <trkpt lat="44.08635" lon="3.53717">
        <ele>1206.8</ele>
        <time>2021-08-12T16:48:18Z</time>
      </trkpt>
      <trkpt lat="44.08619" lon="3.5372">
        <ele>1203.8</ele>
        <time>2021-08-12T16:48:20Z</time>
      </trkpt>
      <trkpt lat="44.08603" lon="3.5372">
        <ele>1201.7</ele>
        <time>2021-08-12T16:48:22Z</time>
      </trkpt>
      <trkpt lat="44.08588" lon="3.53713">
        <ele>1201.2</ele>
        <time>2021-08-12T16:48:24Z</time>
      </trkpt>
      <trkpt lat="44.08573" lon="3.53701">
        <ele>1200.7</ele>
        <time>2021-08-12T16:48:26Z</time>
      </trkpt>
      <trkpt lat="44.0856" lon="3.53687">
        <ele>1200.1</ele>
        <time>2021-08-12T16:48:28Z</time>
      </trkpt>
      <trkpt lat="44.08548" lon="3.5367">
        <ele>1199.6</ele>
        <time>2021-08-12T16:48:30Z</time>
      </trkpt>
      <trkpt lat="44.0854" lon="3.53649">
        <ele>1200.7</ele>
        <time>2021-08-12T16:48:32Z</time>
      </trkpt>
      <trkpt lat="44.08531" lon="3.53629">
        <ele>1201.5</ele>
        <time>2021-08-12T16:48:34Z</time>
      </trkpt>
      <trkpt lat="44.08521" lon="3.53611">
        <ele>1201.6</ele>
        <time>2021-08-12T16:48:36Z</time>
      </trkpt>
      <trkpt lat="44.08511" lon="3.53596">
        <ele>1200.6</ele>
        <time>2021-08-12T16:48:38Z</time>
      </trkpt>
      <trkpt lat="44.08502" lon="3.53583">
        <ele>1199.7</ele>
        <time>2021-08-12T16:48:40Z</time>
      </trkpt>
      <trkpt lat="44.08492" lon="3.53569">
        <ele>1199.3</ele>
        <time>2021-08-12T16:48:42Z</time>
      </trkpt>
      <trkpt lat="44.08485" lon="3.53554">
        <ele>1200</ele>
        <time>2021-08-12T16:48:44Z</time>
      </trkpt>
      <trkpt lat="44.08482" lon="3.53536">
        <ele>1202.1</ele>
        <time>2021-08-12T16:48:46Z</time>
      </trkpt>
      <trkpt lat="44.08481" lon="3.53516">
        <ele>1204.9</ele>
        <time>2021-08-12T16:48:48Z</time>
      </trkpt>
      <trkpt lat="44.08477" lon="3.53498">
        <ele>1207.5</ele>
        <time>2021-08-12T16:48:50Z</time>
      </trkpt>
      <trkpt lat="44.08468" lon="3.53485">
        <ele>1209.5</ele>
        <time>2021-08-12T16:48:52Z</time>
      </trkpt>
      <trkpt lat="44.08455" lon="3.53481">
        <ele>1209.6</ele>
        <time>2021-08-12T16:48:54Z</time>
      </trkpt>
      <trkpt lat="44.08441" lon="3.53486">
        <ele>1207.5</ele>
        <time>2021-08-12T16:48:56Z</time>
      </trkpt>
      <trkpt lat="44.08428" lon="3.53495">
        <ele>1204.2</ele>
        <time>2021-08-12T16:48:58Z</time>
      </trkpt>
      <trkpt lat="44.08415" lon="3.53507">
        <ele>1200.2</ele>
        <time>2021-08-12T16:49:00Z</time>
      </trkpt>
      <trkpt lat="44.08401" lon="3.53518">
        <ele>1196.9</ele>
        <time>2021-08-12T16:49:02Z</time>
      </trkpt>
      <trkpt lat="44.08387" lon="3.53527">
        <ele>1194.3</ele>
        <time>2021-08-12T16:49:04Z</time>
      </trkpt>
      <trkpt lat="44.08371" lon="3.53537">
        <ele>1191.6</ele>
        <time>2021-08-12T16:49:06Z</time>
      </trkpt>
      <trkpt lat="44.08357" lon="3.53542">
        <ele>1190.4</ele>
        <time>2021-08-12T16:49:08Z</time>
      </trkpt>
      <trkpt lat="44.08341" lon="3.53556">
        <ele>1187.4</ele>
        <time>2021-08-12T16:49:10Z</time>
      </trkpt>
      <trkpt lat="44.08325" lon="3.53553">
        <ele>1186.8</ele>
        <time>2021-08-12T16:49:12Z</time>
      </trkpt>
      <trkpt lat="44.08312" lon="3.53542">
        <ele>1187.3</ele>
        <time>2021-08-12T16:49:14Z</time>
      </trkpt>
      <trkpt lat="44.08299" lon="3.53527">
        <ele>1188.5</ele>
        <time>2021-08-12T16:49:16Z</time>
      </trkpt>
      <trkpt lat="44.08284" lon="3.5352">
        <ele>1187.8</ele>
        <time>2021-08-12T16:49:18Z</time>
      </trkpt>
      <trkpt lat="44.08269" lon="3.53523">
        <ele>1185.4</ele>
        <time>2021-08-12T16:49:20Z</time>
      </trkpt>
      <trkpt lat="44.08253" lon="3.5353">
        <ele>1182.1</ele>
        <time>2021-08-12T16:49:22Z</time>
      </trkpt>
      <trkpt lat="44.08237" lon="3.53529">
        <ele>1180.1</ele>
        <time>2021-08-12T16:49:24Z</time>
      </trkpt>
      <trkpt lat="44.08222" lon="3.53523">
        <ele>1179</ele>
        <time>2021-08-12T16:49:26Z</time>
      </trkpt>
      <trkpt lat="44.08207" lon="3.53513">
        <ele>1178.6</ele>
        <time>2021-08-12T16:49:28Z</time>
      </trkpt>
      <trkpt lat="44.08192" lon="3.53505">
        <ele>1177.8</ele>
        <time>2021-08-12T16:49:30Z</time>
      </trkpt>
      <trkpt lat="44.0818" lon="3.53492">
        <ele>1177.4</ele>
        <time>2021-08-12T16:49:32Z</time>
      </trkpt>
      <trkpt lat="44.08177" lon="3.53472">
        <ele>1178.3</ele>
        <time>2021-08-12T16:49:34Z</time>
      </trkpt>
      <trkpt lat="44.0818" lon="3.5345">
        <ele>1180.2</ele>
        <time>2021-08-12T16:49:36Z</time>
      </trkpt>
      <trkpt lat="44.08189" lon="3.53432">
        <ele>1182.9</ele>
        <time>2021-08-12T16:49:38Z</time>
      </trkpt>
      <trkpt lat="44.08194" lon="3.53412">
        <ele>1185.1</ele>
        <time>2021-08-12T16:49:40Z</time>
      </trkpt>
      <trkpt lat="44.08191" lon="3.53391">
        <ele>1185.7</ele>
        <time>2021-08-12T16:49:42Z</time>
      </trkpt>
      <trkpt lat="44.08181" lon="3.53375">
        <ele>1184.4</ele>
        <time>2021-08-12T16:49:44Z</time>
      </trkpt>
      <trkpt lat="44.08169" lon="3.53363">
        <ele>1182.4</ele>
        <time>2021-08-12T16:49:46Z</time>
      </trkpt>
      <trkpt lat="44.08157" lon="3.53351">
        <ele>1179.5</ele>
        <time>2021-08-12T16:49:48Z</time>
      </trkpt>
      <trkpt lat="44.08146" lon="3.53335">
        <ele>1176.9</ele>
        <time>2021-08-12T16:49:50Z</time>
      </trkpt>
      <trkpt lat="44.08138" lon="3.53317">
        <ele>1174.9</ele>
        <time>2021-08-12T16:49:52Z</time>
      </trkpt>
      <trkpt lat="44.0813" lon="3.53299">
        <ele>1173.2</ele>
        <time>2021-08-12T16:49:54Z</time>
      </trkpt>
      <trkpt lat="44.08121" lon="3.53281">
        <ele>1171.7</ele>
        <time>2021-08-12T16:49:56Z</time>
      </trkpt>
      <trkpt lat="44.08114" lon="3.53262">
        <ele>1170.4</ele>
        <time>2021-08-12T16:49:58Z</time>
      </trkpt>
      <trkpt lat="44.08106" lon="3.53244">
        <ele>1168.6</ele>
        <time>2021-08-12T16:50:00Z</time>
      </trkpt>
      <trkpt lat="44.08103" lon="3.53223">
        <ele>1166.2</ele>
        <time>2021-08-12T16:50:02Z</time>
      </trkpt>
      <trkpt lat="44.08106" lon="3.532">
        <ele>1165.2</ele>
        <time>2021-08-12T16:50:04Z</time>
      </trkpt>
      <trkpt lat="44.08113" lon="3.53179">
        <ele>1165.2</ele>
        <time>2021-08-12T16:50:06Z</time>
      </trkpt>
      <trkpt lat="44.08125" lon="3.53163">
        <ele>1165.8</ele>
        <time>2021-08-12T16:50:08Z</time>
      </trkpt>
      <trkpt lat="44.08137" lon="3.53147">
        <ele>1165.6</ele>
        <time>2021-08-12T16:50:10Z</time>
      </trkpt>
      <trkpt lat="44.08148" lon="3.53135">
        <ele>1165.7</ele>
        <time>2021-08-12T16:50:12Z</time>
      </trkpt>
      <trkpt lat="44.08157" lon="3.53126">
        <ele>1165.8</ele>
        <time>2021-08-12T16:50:14Z</time>
      </trkpt>
      <trkpt lat="44.08168" lon="3.53118">
        <ele>1166.5</ele>
        <time>2021-08-12T16:50:16Z</time>
      </trkpt>
      <trkpt lat="44.08182" lon="3.53116">
        <ele>1168</ele>
        <time>2021-08-12T16:50:18Z</time>
      </trkpt>
      <trkpt lat="44.08195" lon="3.53116">
        <ele>1169.8</ele>
        <time>2021-08-12T16:50:20Z</time>
      </trkpt>
      <trkpt lat="44.08208" lon="3.53115">
        <ele>1171.6</ele>
        <time>2021-08-12T16:50:22Z</time>
      </trkpt>
      <trkpt lat="44.08223" lon="3.53114">
        <ele>1173.5</ele>
        <time>2021-08-12T16:50:24Z</time>
      </trkpt>
      <trkpt lat="44.08236" lon="3.53111">
        <ele>1175</ele>
        <time>2021-08-12T16:50:26Z</time>
      </trkpt>
      <trkpt lat="44.08247" lon="3.53099">
        <ele>1174.9</ele>
        <time>2021-08-12T16:50:28Z</time>
      </trkpt>
      <trkpt lat="44.0825" lon="3.5308">
        <ele>1173.4</ele>
        <time>2021-08-12T16:50:30Z</time>
      </trkpt>
      <trkpt lat="44.08245" lon="3.5306">
        <ele>1175.6</ele>
        <time>2021-08-12T16:50:32Z</time>
      </trkpt>
      <trkpt lat="44.08235" lon="3.53044">
        <ele>1175.3</ele>
        <time>2021-08-12T16:50:34Z</time>
      </trkpt>
      <trkpt lat="44.08222" lon="3.53031">
        <ele>1173.4</ele>
        <time>2021-08-12T16:50:36Z</time>
      </trkpt>
      <trkpt lat="44.08212" lon="3.53015">
        <ele>1171.2</ele>
        <time>2021-08-12T16:50:38Z</time>
      </trkpt>
      <trkpt lat="44.082" lon="3.53">
        <ele>1168.1</ele>
        <time>2021-08-12T16:50:40Z</time>
      </trkpt>
      <trkpt lat="44.08191" lon="3.52986">
        <ele>1165.8</ele>
        <time>2021-08-12T16:50:42Z</time>
      </trkpt>
      <trkpt lat="44.08181" lon="3.52972">
        <ele>1163.4</ele>
        <time>2021-08-12T16:50:44Z</time>
      </trkpt>
      <trkpt lat="44.08172" lon="3.52956">
        <ele>1161.2</ele>
        <time>2021-08-12T16:50:46Z</time>
      </trkpt>
      <trkpt lat="44.08168" lon="3.52937">
        <ele>1160.9</ele>
        <time>2021-08-12T16:50:48Z</time>
      </trkpt>
      <trkpt lat="44.08166" lon="3.52918">
        <ele>1161.7</ele>
        <time>2021-08-12T16:50:50Z</time>
      </trkpt>
      <trkpt lat="44.08164" lon="3.529">
        <ele>1161.7</ele>
        <time>2021-08-12T16:50:52Z</time>
      </trkpt>
      <trkpt lat="44.08163" lon="3.52881">
        <ele>1161.8</ele>
        <time>2021-08-12T16:50:54Z</time>
      </trkpt>
      <trkpt lat="44.08162" lon="3.52862">
        <ele>1162</ele>
        <time>2021-08-12T16:50:56Z</time>
      </trkpt>
      <trkpt lat="44.0816" lon="3.52842">
        <ele>1162</ele>
        <time>2021-08-12T16:50:58Z</time>
      </trkpt>
      <trkpt lat="44.08155" lon="3.52824">
        <ele>1160.8</ele>
        <time>2021-08-12T16:51:00Z</time>
      </trkpt>
      <trkpt lat="44.08146" lon="3.52807">
        <ele>1158.3</ele>
        <time>2021-08-12T16:51:02Z</time>
      </trkpt>
      <trkpt lat="44.08137" lon="3.52791">
        <ele>1156.1</ele>
        <time>2021-08-12T16:51:04Z</time>
      </trkpt>
      <trkpt lat="44.0813" lon="3.52775">
        <ele>1154.1</ele>
        <time>2021-08-12T16:51:06Z</time>
      </trkpt>
      <trkpt lat="44.08128" lon="3.52757">
        <ele>1153.5</ele>
        <time>2021-08-12T16:51:08Z</time>
      </trkpt>
      <trkpt lat="44.08131" lon="3.52738">
        <ele>1153.5</ele>
        <time>2021-08-12T16:51:10Z</time>
      </trkpt>
      <trkpt lat="44.08136" lon="3.5272">
        <ele>1153.9</ele>
        <time>2021-08-12T16:51:12Z</time>
      </trkpt>
      <trkpt lat="44.08143" lon="3.52702">
        <ele>1154.5</ele>
        <time>2021-08-12T16:51:14Z</time>
      </trkpt>
      <trkpt lat="44.08151" lon="3.52685">
        <ele>1155</ele>
        <time>2021-08-12T16:51:16Z</time>
      </trkpt>
      <trkpt lat="44.08159" lon="3.52668">
        <ele>1155.6</ele>
        <time>2021-08-12T16:51:18Z</time>
      </trkpt>
      <trkpt lat="44.08168" lon="3.52651">
        <ele>1155.5</ele>
        <time>2021-08-12T16:51:20Z</time>
      </trkpt>
      <trkpt lat="44.08179" lon="3.52637">
        <ele>1156</ele>
        <time>2021-08-12T16:51:22Z</time>
      </trkpt>
      <trkpt lat="44.08191" lon="3.52623">
        <ele>1156.5</ele>
        <time>2021-08-12T16:51:24Z</time>
      </trkpt>
      <trkpt lat="44.08202" lon="3.52608">
        <ele>1156.8</ele>
        <time>2021-08-12T16:51:26Z</time>
      </trkpt>
      <trkpt lat="44.08212" lon="3.52593">
        <ele>1156.9</ele>
        <time>2021-08-12T16:51:28Z</time>
      </trkpt>
      <trkpt lat="44.0822" lon="3.52574">
        <ele>1157</ele>
        <time>2021-08-12T16:51:30Z</time>
      </trkpt>
      <trkpt lat="44.08226" lon="3.52555">
        <ele>1157.1</ele>
        <time>2021-08-12T16:51:32Z</time>
      </trkpt>
      <trkpt lat="44.08232" lon="3.52536">
        <ele>1156.8</ele>
        <time>2021-08-12T16:51:34Z</time>
      </trkpt>
      <trkpt lat="44.08238" lon="3.52518">
        <ele>1156.1</ele>
        <time>2021-08-12T16:51:36Z</time>
      </trkpt>
      <trkpt lat="44.08241" lon="3.52498">
        <ele>1155.1</ele>
        <time>2021-08-12T16:51:38Z</time>
      </trkpt>
      <trkpt lat="44.08239" lon="3.52479">
        <ele>1158.2</ele>
        <time>2021-08-12T16:51:40Z</time>
      </trkpt>
      <trkpt lat="44.0823" lon="3.52463">
        <ele>1160.6</ele>
        <time>2021-08-12T16:51:42Z</time>
      </trkpt>
      <trkpt lat="44.08218" lon="3.52454">
        <ele>1162.1</ele>
        <time>2021-08-12T16:51:44Z</time>
      </trkpt>
      <trkpt lat="44.08203" lon="3.52451">
        <ele>1162.3</ele>
        <time>2021-08-12T16:51:46Z</time>
      </trkpt>
      <trkpt lat="44.08189" lon="3.52452">
        <ele>1162.2</ele>
        <time>2021-08-12T16:51:48Z</time>
      </trkpt>
      <trkpt lat="44.08175" lon="3.52455">
        <ele>1161.7</ele>
        <time>2021-08-12T16:51:50Z</time>
      </trkpt>
      <trkpt lat="44.0816" lon="3.52458">
        <ele>1161.9</ele>
        <time>2021-08-12T16:51:52Z</time>
      </trkpt>
      <trkpt lat="44.08147" lon="3.52464">
        <ele>1162.3</ele>
        <time>2021-08-12T16:51:54Z</time>
      </trkpt>
      <trkpt lat="44.08135" lon="3.52476">
        <ele>1161.1</ele>
        <time>2021-08-12T16:51:56Z</time>
      </trkpt>
      <trkpt lat="44.08125" lon="3.52489">
        <ele>1159.3</ele>
        <time>2021-08-12T16:51:58Z</time>
      </trkpt>
      <trkpt lat="44.08114" lon="3.52504">
        <ele>1157.3</ele>
        <time>2021-08-12T16:52:00Z</time>
      </trkpt>
      <trkpt lat="44.08103" lon="3.52518">
        <ele>1155.5</ele>
        <time>2021-08-12T16:52:02Z</time>
      </trkpt>
      <trkpt lat="44.08093" lon="3.52533">
        <ele>1153.4</ele>
        <time>2021-08-12T16:52:04Z</time>
      </trkpt>
      <trkpt lat="44.08082" lon="3.52547">
        <ele>1151.1</ele>
        <time>2021-08-12T16:52:06Z</time>
      </trkpt>
      <trkpt lat="44.08071" lon="3.52561">
        <ele>1149.7</ele>
        <time>2021-08-12T16:52:08Z</time>
      </trkpt>
      <trkpt lat="44.08061" lon="3.52576">
        <ele>1147.8</ele>
        <time>2021-08-12T16:52:10Z</time>
      </trkpt>
      <trkpt lat="44.08051" lon="3.5259">
        <ele>1146.5</ele>
        <time>2021-08-12T16:52:12Z</time>
      </trkpt>
      <trkpt lat="44.08043" lon="3.52604">
        <ele>1146</ele>
        <time>2021-08-12T16:52:14Z</time>
      </trkpt>
      <trkpt lat="44.08034" lon="3.52617">
        <ele>1145.2</ele>
        <time>2021-08-12T16:52:16Z</time>
      </trkpt>
      <trkpt lat="44.08024" lon="3.5263">
        <ele>1144.3</ele>
        <time>2021-08-12T16:52:18Z</time>
      </trkpt>
      <trkpt lat="44.08013" lon="3.52639">
        <ele>1143.5</ele>
        <time>2021-08-12T16:52:20Z</time>
      </trkpt>
      <trkpt lat="44.08001" lon="3.52644">
        <ele>1143.2</ele>
        <time>2021-08-12T16:52:22Z</time>
      </trkpt>
      <trkpt lat="44.07987" lon="3.52642">
        <ele>1142.2</ele>
        <time>2021-08-12T16:52:24Z</time>
      </trkpt>
      <trkpt lat="44.07975" lon="3.52634">
        <ele>1142.3</ele>
        <time>2021-08-12T16:52:26Z</time>
      </trkpt>
      <trkpt lat="44.07963" lon="3.52624">
        <ele>1142.9</ele>
        <time>2021-08-12T16:52:28Z</time>
      </trkpt>
      <trkpt lat="44.07951" lon="3.52612">
        <ele>1143.9</ele>
        <time>2021-08-12T16:52:30Z</time>
      </trkpt>
      <trkpt lat="44.07938" lon="3.52603">
        <ele>1144.7</ele>
        <time>2021-08-12T16:52:32Z</time>
      </trkpt>
      <trkpt lat="44.07926" lon="3.52593">
        <ele>1145.7</ele>
        <time>2021-08-12T16:52:34Z</time>
      </trkpt>
      <trkpt lat="44.07915" lon="3.52582">
        <ele>1147.2</ele>
        <time>2021-08-12T16:52:36Z</time>
      </trkpt>
      <trkpt lat="44.07904" lon="3.52572">
        <ele>1148.7</ele>
        <time>2021-08-12T16:52:38Z</time>
      </trkpt>
      <trkpt lat="44.07893" lon="3.52565">
        <ele>1149.5</ele>
        <time>2021-08-12T16:52:40Z</time>
      </trkpt>
      <trkpt lat="44.07881" lon="3.5256">
        <ele>1149.7</ele>
        <time>2021-08-12T16:52:42Z</time>
      </trkpt>
      <trkpt lat="44.07869" lon="3.52558">
        <ele>1149.4</ele>
        <time>2021-08-12T16:52:44Z</time>
      </trkpt>
      <trkpt lat="44.07857" lon="3.52558">
        <ele>1148.3</ele>
        <time>2021-08-12T16:52:46Z</time>
      </trkpt>
      <trkpt lat="44.07844" lon="3.52561">
        <ele>1146.3</ele>
        <time>2021-08-12T16:52:48Z</time>
      </trkpt>
      <trkpt lat="44.07831" lon="3.52562">
        <ele>1144.8</ele>
        <time>2021-08-12T16:52:50Z</time>
      </trkpt>
      <trkpt lat="44.07817" lon="3.52562">
        <ele>1144.6</ele>
        <time>2021-08-12T16:52:52Z</time>
      </trkpt>
      <trkpt lat="44.07803" lon="3.52559">
        <ele>1145.2</ele>
        <time>2021-08-12T16:52:54Z</time>
      </trkpt>
      <trkpt lat="44.07789" lon="3.52557">
        <ele>1145.6</ele>
        <time>2021-08-12T16:52:56Z</time>
      </trkpt>
      <trkpt lat="44.07775" lon="3.52555">
        <ele>1145.9</ele>
        <time>2021-08-12T16:52:58Z</time>
      </trkpt>
      <trkpt lat="44.07761" lon="3.52554">
        <ele>1146.2</ele>
        <time>2021-08-12T16:53:00Z</time>
      </trkpt>
      <trkpt lat="44.07748" lon="3.52552">
        <ele>1146.4</ele>
        <time>2021-08-12T16:53:02Z</time>
      </trkpt>
      <trkpt lat="44.07733" lon="3.5255">
        <ele>1146.5</ele>
        <time>2021-08-12T16:53:04Z</time>
      </trkpt>
      <trkpt lat="44.07719" lon="3.52548">
        <ele>1146.4</ele>
        <time>2021-08-12T16:53:06Z</time>
      </trkpt>
      <trkpt lat="44.07705" lon="3.52545">
        <ele>1146.4</ele>
        <time>2021-08-12T16:53:08Z</time>
      </trkpt>
      <trkpt lat="44.07691" lon="3.52542">
        <ele>1146.7</ele>
        <time>2021-08-12T16:53:10Z</time>
      </trkpt>
      <trkpt lat="44.07677" lon="3.52541">
        <ele>1146.3</ele>
        <time>2021-08-12T16:53:12Z</time>
      </trkpt>
      <trkpt lat="44.07663" lon="3.52539">
        <ele>1145.6</ele>
        <time>2021-08-12T16:53:14Z</time>
      </trkpt>
      <trkpt lat="44.0765" lon="3.52538">
        <ele>1143.4</ele>
        <time>2021-08-12T16:53:16Z</time>
      </trkpt>
      <trkpt lat="44.07637" lon="3.52537">
        <ele>1141.4</ele>
        <time>2021-08-12T16:53:18Z</time>
      </trkpt>
      <trkpt lat="44.07624" lon="3.52534">
        <ele>1139.5</ele>
        <time>2021-08-12T16:53:20Z</time>
      </trkpt>
      <trkpt lat="44.07611" lon="3.52528">
        <ele>1138.4</ele>
        <time>2021-08-12T16:53:22Z</time>
      </trkpt>
      <trkpt lat="44.07599" lon="3.52518">
        <ele>1138</ele>
        <time>2021-08-12T16:53:24Z</time>
      </trkpt>
      <trkpt lat="44.07588" lon="3.52506">
        <ele>1138.1</ele>
        <time>2021-08-12T16:53:26Z</time>
      </trkpt>
      <trkpt lat="44.07578" lon="3.52492">
        <ele>1139.5</ele>
        <time>2021-08-12T16:53:28Z</time>
      </trkpt>
      <trkpt lat="44.07568" lon="3.52477">
        <ele>1141.3</ele>
        <time>2021-08-12T16:53:30Z</time>
      </trkpt>
      <trkpt lat="44.07559" lon="3.52462">
        <ele>1142.6</ele>
        <time>2021-08-12T16:53:32Z</time>
      </trkpt>
      <trkpt lat="44.07548" lon="3.52447">
        <ele>1142.8</ele>
        <time>2021-08-12T16:53:34Z</time>
      </trkpt>
      <trkpt lat="44.07537" lon="3.52432">
        <ele>1142.3</ele>
        <time>2021-08-12T16:53:36Z</time>
      </trkpt>
      <trkpt lat="44.07528" lon="3.52417">
        <ele>1141.3</ele>
        <time>2021-08-12T16:53:38Z</time>
      </trkpt>
      <trkpt lat="44.07517" lon="3.52404">
        <ele>1139.7</ele>
        <time>2021-08-12T16:53:40Z</time>
      </trkpt>
      <trkpt lat="44.07506" lon="3.52391">
        <ele>1137.9</ele>
        <time>2021-08-12T16:53:42Z</time>
      </trkpt>
      <trkpt lat="44.07497" lon="3.52377">
        <ele>1137</ele>
        <time>2021-08-12T16:53:44Z</time>
      </trkpt>
      <trkpt lat="44.07488" lon="3.52363">
        <ele>1137.3</ele>
        <time>2021-08-12T16:53:46Z</time>
      </trkpt>
      <trkpt lat="44.0748" lon="3.52346">
        <ele>1137.5</ele>
        <time>2021-08-12T16:53:48Z</time>
      </trkpt>
      <trkpt lat="44.07477" lon="3.52327">
        <ele>1138.8</ele>
        <time>2021-08-12T16:53:50Z</time>
      </trkpt>
      <trkpt lat="44.07472" lon="3.52308">
        <ele>1140.6</ele>
        <time>2021-08-12T16:53:52Z</time>
      </trkpt>
      <trkpt lat="44.07467" lon="3.52291">
        <ele>1142.4</ele>
        <time>2021-08-12T16:53:54Z</time>
      </trkpt>
      <trkpt lat="44.07459" lon="3.52275">
        <ele>1143.4</ele>
        <time>2021-08-12T16:53:56Z</time>
      </trkpt>
      <trkpt lat="44.07448" lon="3.52263">
        <ele>1143.3</ele>
        <time>2021-08-12T16:53:58Z</time>
      </trkpt>
      <trkpt lat="44.07435" lon="3.52256">
        <ele>1142.1</ele>
        <time>2021-08-12T16:54:00Z</time>
      </trkpt>
      <trkpt lat="44.07421" lon="3.52258">
        <ele>1138.9</ele>
        <time>2021-08-12T16:54:02Z</time>
      </trkpt>
      <trkpt lat="44.07409" lon="3.5226">
        <ele>1136.7</ele>
        <time>2021-08-12T16:54:04Z</time>
      </trkpt>
      <trkpt lat="44.07396" lon="3.52266">
        <ele>1134</ele>
        <time>2021-08-12T16:54:06Z</time>
      </trkpt>
      <trkpt lat="44.07383" lon="3.52268">
        <ele>1132.5</ele>
        <time>2021-08-12T16:54:08Z</time>
      </trkpt>
      <trkpt lat="44.07369" lon="3.52269">
        <ele>1131</ele>
        <time>2021-08-12T16:54:10Z</time>
      </trkpt>
      <trkpt lat="44.07354" lon="3.52266">
        <ele>1130.4</ele>
        <time>2021-08-12T16:54:12Z</time>
      </trkpt>
      <trkpt lat="44.07338" lon="3.52261">
        <ele>1129.8</ele>
        <time>2021-08-12T16:54:14Z</time>
      </trkpt>
      <trkpt lat="44.07323" lon="3.52258">
        <ele>1128.1</ele>
        <time>2021-08-12T16:54:16Z</time>
      </trkpt>
      <trkpt lat="44.07308" lon="3.52254">
        <ele>1126.1</ele>
        <time>2021-08-12T16:54:18Z</time>
      </trkpt>
      <trkpt lat="44.07294" lon="3.52249">
        <ele>1124.1</ele>
        <time>2021-08-12T16:54:20Z</time>
      </trkpt>
      <trkpt lat="44.07282" lon="3.52241">
        <ele>1122.8</ele>
        <time>2021-08-12T16:54:22Z</time>
      </trkpt>
      <trkpt lat="44.07271" lon="3.52228">
        <ele>1122</ele>
        <time>2021-08-12T16:54:24Z</time>
      </trkpt>
      <trkpt lat="44.07264" lon="3.52211">
        <ele>1121.7</ele>
        <time>2021-08-12T16:54:26Z</time>
      </trkpt>
      <trkpt lat="44.07265" lon="3.52191">
        <ele>1123.8</ele>
        <time>2021-08-12T16:54:28Z</time>
      </trkpt>
      <trkpt lat="44.07267" lon="3.52171">
        <ele>1126</ele>
        <time>2021-08-12T16:54:30Z</time>
      </trkpt>
      <trkpt lat="44.07268" lon="3.52152">
        <ele>1126.6</ele>
        <time>2021-08-12T16:54:32Z</time>
      </trkpt>
      <trkpt lat="44.0727" lon="3.52134">
        <ele>1126.7</ele>
        <time>2021-08-12T16:54:34Z</time>
      </trkpt>
      <trkpt lat="44.07271" lon="3.52114">
        <ele>1126.6</ele>
        <time>2021-08-12T16:54:36Z</time>
      </trkpt>
      <trkpt lat="44.07271" lon="3.52096">
        <ele>1126</ele>
        <time>2021-08-12T16:54:38Z</time>
      </trkpt>
      <trkpt lat="44.07273" lon="3.52077">
        <ele>1125.4</ele>
        <time>2021-08-12T16:54:40Z</time>
      </trkpt>
      <trkpt lat="44.07275" lon="3.52058">
        <ele>1124.4</ele>
        <time>2021-08-12T16:54:42Z</time>
      </trkpt>
      <trkpt lat="44.0728" lon="3.5204">
        <ele>1124</ele>
        <time>2021-08-12T16:54:44Z</time>
      </trkpt>
      <trkpt lat="44.07285" lon="3.52021">
        <ele>1123.3</ele>
        <time>2021-08-12T16:54:46Z</time>
      </trkpt>
      <trkpt lat="44.07291" lon="3.52002">
        <ele>1122.4</ele>
        <time>2021-08-12T16:54:48Z</time>
      </trkpt>
      <trkpt lat="44.07296" lon="3.51983">
        <ele>1122.2</ele>
        <time>2021-08-12T16:54:50Z</time>
      </trkpt>
      <trkpt lat="44.07302" lon="3.51964">
        <ele>1121.8</ele>
        <time>2021-08-12T16:54:52Z</time>
      </trkpt>
      <trkpt lat="44.07306" lon="3.51944">
        <ele>1120.9</ele>
        <time>2021-08-12T16:54:54Z</time>
      </trkpt>
      <trkpt lat="44.07313" lon="3.51927">
        <ele>1120.7</ele>
        <time>2021-08-12T16:54:56Z</time>
      </trkpt>
      <trkpt lat="44.07322" lon="3.51912">
        <ele>1121.9</ele>
        <time>2021-08-12T16:54:58Z</time>
      </trkpt>
      <trkpt lat="44.07335" lon="3.51903">
        <ele>1124.4</ele>
        <time>2021-08-12T16:55:00Z</time>
      </trkpt>
      <trkpt lat="44.07344" lon="3.51889">
        <ele>1124.8</ele>
        <time>2021-08-12T16:55:02Z</time>
      </trkpt>
      <trkpt lat="44.07346" lon="3.5187">
        <ele>1124.1</ele>
        <time>2021-08-12T16:55:04Z</time>
      </trkpt>
      <trkpt lat="44.07343" lon="3.51852">
        <ele>1122.6</ele>
        <time>2021-08-12T16:55:06Z</time>
      </trkpt>
      <trkpt lat="44.07338" lon="3.51834">
        <ele>1120.8</ele>
        <time>2021-08-12T16:55:08Z</time>
      </trkpt>
      <trkpt lat="44.07333" lon="3.51817">
        <ele>1120.3</ele>
        <time>2021-08-12T16:55:10Z</time>
      </trkpt>
      <trkpt lat="44.07329" lon="3.518">
        <ele>1120</ele>
        <time>2021-08-12T16:55:12Z</time>
      </trkpt>
      <trkpt lat="44.07324" lon="3.51782">
        <ele>1119.6</ele>
        <time>2021-08-12T16:55:14Z</time>
      </trkpt>
      <trkpt lat="44.07316" lon="3.51767">
        <ele>1118.6</ele>
        <time>2021-08-12T16:55:16Z</time>
      </trkpt>
      <trkpt lat="44.07307" lon="3.51754">
        <ele>1117.5</ele>
        <time>2021-08-12T16:55:18Z</time>
      </trkpt>
      <trkpt lat="44.07296" lon="3.51742">
        <ele>1115.9</ele>
        <time>2021-08-12T16:55:20Z</time>
      </trkpt>
      <trkpt lat="44.07286" lon="3.51729">
        <ele>1114.6</ele>
        <time>2021-08-12T16:55:22Z</time>
      </trkpt>
      <trkpt lat="44.07278" lon="3.51713">
        <ele>1113.6</ele>
        <time>2021-08-12T16:55:24Z</time>
      </trkpt>
      <trkpt lat="44.07273" lon="3.51697">
        <ele>1113.1</ele>
        <time>2021-08-12T16:55:26Z</time>
      </trkpt>
      <trkpt lat="44.07269" lon="3.51681">
        <ele>1112.9</ele>
        <time>2021-08-12T16:55:28Z</time>
      </trkpt>
      <trkpt lat="44.07267" lon="3.51664">
        <ele>1112.6</ele>
        <time>2021-08-12T16:55:30Z</time>
      </trkpt>
      <trkpt lat="44.0727" lon="3.51646">
        <ele>1111.5</ele>
        <time>2021-08-12T16:55:32Z</time>
      </trkpt>
      <trkpt lat="44.07276" lon="3.5163">
        <ele>1110.9</ele>
        <time>2021-08-12T16:55:34Z</time>
      </trkpt>
      <trkpt lat="44.07286" lon="3.51617">
        <ele>1110.8</ele>
        <time>2021-08-12T16:55:36Z</time>
      </trkpt>
      <trkpt lat="44.07299" lon="3.51608">
        <ele>1111</ele>
        <time>2021-08-12T16:55:38Z</time>
      </trkpt>
      <trkpt lat="44.07312" lon="3.51603">
        <ele>1111.5</ele>
        <time>2021-08-12T16:55:40Z</time>
      </trkpt>
      <trkpt lat="44.07326" lon="3.516">
        <ele>1112.2</ele>
        <time>2021-08-12T16:55:42Z</time>
      </trkpt>
      <trkpt lat="44.0734" lon="3.51597">
        <ele>1112</ele>
        <time>2021-08-12T16:55:44Z</time>
      </trkpt>
      <trkpt lat="44.07354" lon="3.51594">
        <ele>1110.8</ele>
        <time>2021-08-12T16:55:46Z</time>
      </trkpt>
      <trkpt lat="44.07367" lon="3.51592">
        <ele>1109.6</ele>
        <time>2021-08-12T16:55:48Z</time>
      </trkpt>
      <trkpt lat="44.07382" lon="3.51593">
        <ele>1109.3</ele>
        <time>2021-08-12T16:55:50Z</time>
      </trkpt>
      <trkpt lat="44.07396" lon="3.51597">
        <ele>1109.5</ele>
        <time>2021-08-12T16:55:52Z</time>
      </trkpt>
      <trkpt lat="44.0741" lon="3.51602">
        <ele>1110</ele>
        <time>2021-08-12T16:55:54Z</time>
      </trkpt>
      <trkpt lat="44.07424" lon="3.51605">
        <ele>1110</ele>
        <time>2021-08-12T16:55:56Z</time>
      </trkpt>
      <trkpt lat="44.07439" lon="3.51608">
        <ele>1109.7</ele>
        <time>2021-08-12T16:55:58Z</time>
      </trkpt>
      <trkpt lat="44.07453" lon="3.51612">
        <ele>1109.8</ele>
        <time>2021-08-12T16:56:00Z</time>
      </trkpt>
      <trkpt lat="44.07467" lon="3.51621">
        <ele>1110.6</ele>
        <time>2021-08-12T16:56:02Z</time>
      </trkpt>
      <trkpt lat="44.07481" lon="3.5163">
        <ele>1111.6</ele>
        <time>2021-08-12T16:56:04Z</time>
      </trkpt>
      <trkpt lat="44.07494" lon="3.51637">
        <ele>1111.9</ele>
        <time>2021-08-12T16:56:06Z</time>
      </trkpt>
      <trkpt lat="44.07509" lon="3.51637">
        <ele>1111.9</ele>
        <time>2021-08-12T16:56:08Z</time>
      </trkpt>
      <trkpt lat="44.07524" lon="3.51633">
        <ele>1112</ele>
        <time>2021-08-12T16:56:10Z</time>
      </trkpt>
      <trkpt lat="44.07539" lon="3.51629">
        <ele>1112.2</ele>
        <time>2021-08-12T16:56:12Z</time>
      </trkpt>
      <trkpt lat="44.07555" lon="3.51626">
        <ele>1112.4</ele>
        <time>2021-08-12T16:56:14Z</time>
      </trkpt>
      <trkpt lat="44.0757" lon="3.51622">
        <ele>1112.7</ele>
        <time>2021-08-12T16:56:16Z</time>
      </trkpt>
      <trkpt lat="44.07585" lon="3.51619">
        <ele>1113.1</ele>
        <time>2021-08-12T16:56:18Z</time>
      </trkpt>
      <trkpt lat="44.07601" lon="3.51615">
        <ele>1114.9</ele>
        <time>2021-08-12T16:56:20Z</time>
      </trkpt>
      <trkpt lat="44.07614" lon="3.51608">
        <ele>1115.9</ele>
        <time>2021-08-12T16:56:22Z</time>
      </trkpt>
      <trkpt lat="44.07621" lon="3.51593">
        <ele>1114.6</ele>
        <time>2021-08-12T16:56:24Z</time>
      </trkpt>
      <trkpt lat="44.07621" lon="3.51575">
        <ele>1113.5</ele>
        <time>2021-08-12T16:56:26Z</time>
      </trkpt>
      <trkpt lat="44.07614" lon="3.5156">
        <ele>1113.2</ele>
        <time>2021-08-12T16:56:28Z</time>
      </trkpt>
      <trkpt lat="44.07603" lon="3.51551">
        <ele>1111.1</ele>
        <time>2021-08-12T16:56:30Z</time>
      </trkpt>
      <trkpt lat="44.07591" lon="3.51544">
        <ele>1108.9</ele>
        <time>2021-08-12T16:56:32Z</time>
      </trkpt>
      <trkpt lat="44.07579" lon="3.51537">
        <ele>1106.4</ele>
        <time>2021-08-12T16:56:34Z</time>
      </trkpt>
      <trkpt lat="44.07569" lon="3.51527">
        <ele>1104.6</ele>
        <time>2021-08-12T16:56:36Z</time>
      </trkpt>
      <trkpt lat="44.07564" lon="3.51509">
        <ele>1103.4</ele>
        <time>2021-08-12T16:56:38Z</time>
      </trkpt>
      <trkpt lat="44.07568" lon="3.51491">
        <ele>1103.5</ele>
        <time>2021-08-12T16:56:40Z</time>
      </trkpt>
      <trkpt lat="44.07575" lon="3.51473">
        <ele>1104.6</ele>
        <time>2021-08-12T16:56:42Z</time>
      </trkpt>
      <trkpt lat="44.07584" lon="3.51455">
        <ele>1106</ele>
        <time>2021-08-12T16:56:44Z</time>
      </trkpt>
      <trkpt lat="44.07593" lon="3.51439">
        <ele>1108.7</ele>
        <time>2021-08-12T16:56:46Z</time>
      </trkpt>
      <trkpt lat="44.07602" lon="3.51422">
        <ele>1111.6</ele>
        <time>2021-08-12T16:56:48Z</time>
      </trkpt>
      <trkpt lat="44.07606" lon="3.51402">
        <ele>1113.3</ele>
        <time>2021-08-12T16:56:50Z</time>
      </trkpt>
      <trkpt lat="44.07606" lon="3.51382">
        <ele>1112.8</ele>
        <time>2021-08-12T16:56:52Z</time>
      </trkpt>
      <trkpt lat="44.07602" lon="3.51362">
        <ele>1110.6</ele>
        <time>2021-08-12T16:56:54Z</time>
      </trkpt>
      <trkpt lat="44.07595" lon="3.51344">
        <ele>1106.9</ele>
        <time>2021-08-12T16:56:56Z</time>
      </trkpt>
      <trkpt lat="44.07588" lon="3.51326">
        <ele>1103.7</ele>
        <time>2021-08-12T16:56:58Z</time>
      </trkpt>
      <trkpt lat="44.07581" lon="3.51307">
        <ele>1101.7</ele>
        <time>2021-08-12T16:57:00Z</time>
      </trkpt>
      <trkpt lat="44.07575" lon="3.51288">
        <ele>1101.2</ele>
        <time>2021-08-12T16:57:02Z</time>
      </trkpt>
      <trkpt lat="44.07572" lon="3.51267">
        <ele>1101.7</ele>
        <time>2021-08-12T16:57:04Z</time>
      </trkpt>
      <trkpt lat="44.07573" lon="3.51245">
        <ele>1102.5</ele>
        <time>2021-08-12T16:57:06Z</time>
      </trkpt>
      <trkpt lat="44.07575" lon="3.51224">
        <ele>1102</ele>
        <time>2021-08-12T16:57:08Z</time>
      </trkpt>
      <trkpt lat="44.07576" lon="3.51202">
        <ele>1101.4</ele>
        <time>2021-08-12T16:57:10Z</time>
      </trkpt>
      <trkpt lat="44.07578" lon="3.5118">
        <ele>1100.8</ele>
        <time>2021-08-12T16:57:12Z</time>
      </trkpt>
      <trkpt lat="44.07581" lon="3.51158">
        <ele>1099.4</ele>
        <time>2021-08-12T16:57:14Z</time>
      </trkpt>
      <trkpt lat="44.07585" lon="3.51136">
        <ele>1097</ele>
        <time>2021-08-12T16:57:16Z</time>
      </trkpt>
      <trkpt lat="44.07592" lon="3.51116">
        <ele>1096.4</ele>
        <time>2021-08-12T16:57:18Z</time>
      </trkpt>
      <trkpt lat="44.07599" lon="3.51096">
        <ele>1095.8</ele>
        <time>2021-08-12T16:57:20Z</time>
      </trkpt>
      <trkpt lat="44.07608" lon="3.5108">
        <ele>1096</ele>
        <time>2021-08-12T16:57:22Z</time>
      </trkpt>
      <trkpt lat="44.07619" lon="3.51062">
        <ele>1096.4</ele>
        <time>2021-08-12T16:57:24Z</time>
      </trkpt>
      <trkpt lat="44.07631" lon="3.51047">
        <ele>1097.1</ele>
        <time>2021-08-12T16:57:26Z</time>
      </trkpt>
      <trkpt lat="44.07642" lon="3.51032">
        <ele>1097.4</ele>
        <time>2021-08-12T16:57:28Z</time>
      </trkpt>
      <trkpt lat="44.07653" lon="3.51017">
        <ele>1097.2</ele>
        <time>2021-08-12T16:57:30Z</time>
      </trkpt>
      <trkpt lat="44.07661" lon="3.51">
        <ele>1095.8</ele>
        <time>2021-08-12T16:57:32Z</time>
      </trkpt>
      <trkpt lat="44.07666" lon="3.50981">
        <ele>1096.4</ele>
        <time>2021-08-12T16:57:34Z</time>
      </trkpt>
      <trkpt lat="44.07665" lon="3.5096">
        <ele>1095.8</ele>
        <time>2021-08-12T16:57:36Z</time>
      </trkpt>
      <trkpt lat="44.07664" lon="3.5094">
        <ele>1094.9</ele>
        <time>2021-08-12T16:57:38Z</time>
      </trkpt>
      <trkpt lat="44.07662" lon="3.5092">
        <ele>1094</ele>
        <time>2021-08-12T16:57:40Z</time>
      </trkpt>
      <trkpt lat="44.07659" lon="3.50899">
        <ele>1092.8</ele>
        <time>2021-08-12T16:57:42Z</time>
      </trkpt>
      <trkpt lat="44.07652" lon="3.5088">
        <ele>1090.8</ele>
        <time>2021-08-12T16:57:44Z</time>
      </trkpt>
      <trkpt lat="44.07645" lon="3.50862">
        <ele>1088.9</ele>
        <time>2021-08-12T16:57:46Z</time>
      </trkpt>
      <trkpt lat="44.07642" lon="3.50842">
        <ele>1088</ele>
        <time>2021-08-12T16:57:48Z</time>
      </trkpt>
      <trkpt lat="44.07647" lon="3.50823">
        <ele>1088.1</ele>
        <time>2021-08-12T16:57:50Z</time>
      </trkpt>
      <trkpt lat="44.07657" lon="3.50808">
        <ele>1089.3</ele>
        <time>2021-08-12T16:57:52Z</time>
      </trkpt>
      <trkpt lat="44.07671" lon="3.50799">
        <ele>1091.3</ele>
        <time>2021-08-12T16:57:54Z</time>
      </trkpt>
      <trkpt lat="44.07684" lon="3.50794">
        <ele>1093.6</ele>
        <time>2021-08-12T16:57:56Z</time>
      </trkpt>
      <trkpt lat="44.07698" lon="3.50785">
        <ele>1095.7</ele>
        <time>2021-08-12T16:57:58Z</time>
      </trkpt>
      <trkpt lat="44.07706" lon="3.5077">
        <ele>1096.4</ele>
        <time>2021-08-12T16:58:00Z</time>
      </trkpt>
      <trkpt lat="44.07708" lon="3.50752">
        <ele>1095.6</ele>
        <time>2021-08-12T16:58:02Z</time>
      </trkpt>
      <trkpt lat="44.077" lon="3.50737">
        <ele>1094.6</ele>
        <time>2021-08-12T16:58:04Z</time>
      </trkpt>
      <trkpt lat="44.07688" lon="3.50736">
        <ele>1092.1</ele>
        <time>2021-08-12T16:58:06Z</time>
      </trkpt>
      <trkpt lat="44.07672" lon="3.5073">
        <ele>1089.2</ele>
        <time>2021-08-12T16:58:08Z</time>
      </trkpt>
      <trkpt lat="44.07662" lon="3.50724">
        <ele>1087.4</ele>
        <time>2021-08-12T16:58:10Z</time>
      </trkpt>
      <trkpt lat="44.07651" lon="3.50712">
        <ele>1086.1</ele>
        <time>2021-08-12T16:58:12Z</time>
      </trkpt>
      <trkpt lat="44.07646" lon="3.50695">
        <ele>1085.9</ele>
        <time>2021-08-12T16:58:14Z</time>
      </trkpt>
      <trkpt lat="44.07645" lon="3.50677">
        <ele>1086.5</ele>
        <time>2021-08-12T16:58:16Z</time>
      </trkpt>
      <trkpt lat="44.07646" lon="3.50658">
        <ele>1086.4</ele>
        <time>2021-08-12T16:58:18Z</time>
      </trkpt>
      <trkpt lat="44.07647" lon="3.50639">
        <ele>1085.4</ele>
        <time>2021-08-12T16:58:20Z</time>
      </trkpt>
      <trkpt lat="44.0765" lon="3.5062">
        <ele>1084.6</ele>
        <time>2021-08-12T16:58:22Z</time>
      </trkpt>
      <trkpt lat="44.07655" lon="3.50601">
        <ele>1084</ele>
        <time>2021-08-12T16:58:24Z</time>
      </trkpt>
      <trkpt lat="44.07661" lon="3.50583">
        <ele>1083.4</ele>
        <time>2021-08-12T16:58:26Z</time>
      </trkpt>
      <trkpt lat="44.07668" lon="3.50565">
        <ele>1082.5</ele>
        <time>2021-08-12T16:58:28Z</time>
      </trkpt>
      <trkpt lat="44.07675" lon="3.50545">
        <ele>1082.4</ele>
        <time>2021-08-12T16:58:30Z</time>
      </trkpt>
      <trkpt lat="44.07682" lon="3.50525">
        <ele>1082.2</ele>
        <time>2021-08-12T16:58:32Z</time>
      </trkpt>
      <trkpt lat="44.0769" lon="3.50507">
        <ele>1082.5</ele>
        <time>2021-08-12T16:58:34Z</time>
      </trkpt>
      <trkpt lat="44.07702" lon="3.50491">
        <ele>1084.4</ele>
        <time>2021-08-12T16:58:36Z</time>
      </trkpt>
      <trkpt lat="44.07711" lon="3.50476">
        <ele>1086.2</ele>
        <time>2021-08-12T16:58:38Z</time>
      </trkpt>
      <trkpt lat="44.07717" lon="3.5046">
        <ele>1086.9</ele>
        <time>2021-08-12T16:58:40Z</time>
      </trkpt>
      <trkpt lat="44.07716" lon="3.5044">
        <ele>1085.6</ele>
        <time>2021-08-12T16:58:42Z</time>
      </trkpt>
      <trkpt lat="44.07708" lon="3.50423">
        <ele>1082.8</ele>
        <time>2021-08-12T16:58:44Z</time>
      </trkpt>
      <trkpt lat="44.077" lon="3.50409">
        <ele>1080.3</ele>
        <time>2021-08-12T16:58:46Z</time>
      </trkpt>
      <trkpt lat="44.07697" lon="3.50389">
        <ele>1080</ele>
        <time>2021-08-12T16:58:48Z</time>
      </trkpt>
      <trkpt lat="44.07698" lon="3.50369">
        <ele>1080.8</ele>
        <time>2021-08-12T16:58:50Z</time>
      </trkpt>
      <trkpt lat="44.07701" lon="3.5035">
        <ele>1082.2</ele>
        <time>2021-08-12T16:58:52Z</time>
      </trkpt>
      <trkpt lat="44.07703" lon="3.5033">
        <ele>1083.2</ele>
        <time>2021-08-12T16:58:54Z</time>
      </trkpt>
      <trkpt lat="44.07702" lon="3.50311">
        <ele>1083.8</ele>
        <time>2021-08-12T16:58:56Z</time>
      </trkpt>
      <trkpt lat="44.077" lon="3.50291">
        <ele>1083.7</ele>
        <time>2021-08-12T16:58:58Z</time>
      </trkpt>
      <trkpt lat="44.07696" lon="3.50271">
        <ele>1082.9</ele>
        <time>2021-08-12T16:59:00Z</time>
      </trkpt>
      <trkpt lat="44.07693" lon="3.50251">
        <ele>1082.2</ele>
        <time>2021-08-12T16:59:02Z</time>
      </trkpt>
      <trkpt lat="44.0769" lon="3.50231">
        <ele>1082.1</ele>
        <time>2021-08-12T16:59:04Z</time>
      </trkpt>
      <trkpt lat="44.07685" lon="3.50211">
        <ele>1081.5</ele>
        <time>2021-08-12T16:59:06Z</time>
      </trkpt>
      <trkpt lat="44.0768" lon="3.50191">
        <ele>1080.9</ele>
        <time>2021-08-12T16:59:08Z</time>
      </trkpt>
      <trkpt lat="44.07676" lon="3.50171">
        <ele>1080</ele>
        <time>2021-08-12T16:59:10Z</time>
      </trkpt>
      <trkpt lat="44.07671" lon="3.50151">
        <ele>1080.6</ele>
        <time>2021-08-12T16:59:12Z</time>
      </trkpt>
      <trkpt lat="44.07665" lon="3.50131">
        <ele>1082.2</ele>
        <time>2021-08-12T16:59:14Z</time>
      </trkpt>
      <trkpt lat="44.07658" lon="3.50112">
        <ele>1084.2</ele>
        <time>2021-08-12T16:59:16Z</time>
      </trkpt>
      <trkpt lat="44.07648" lon="3.50095">
        <ele>1085.1</ele>
        <time>2021-08-12T16:59:18Z</time>
      </trkpt>
      <trkpt lat="44.07636" lon="3.50081">
        <ele>1084.8</ele>
        <time>2021-08-12T16:59:20Z</time>
      </trkpt>
      <trkpt lat="44.07622" lon="3.50071">
        <ele>1084.5</ele>
        <time>2021-08-12T16:59:22Z</time>
      </trkpt>
      <trkpt lat="44.07608" lon="3.50064">
        <ele>1083.2</ele>
        <time>2021-08-12T16:59:24Z</time>
      </trkpt>
      <trkpt lat="44.07593" lon="3.5006">
        <ele>1081.4</ele>
        <time>2021-08-12T16:59:26Z</time>
      </trkpt>
      <trkpt lat="44.07579" lon="3.50054">
        <ele>1080.2</ele>
        <time>2021-08-12T16:59:28Z</time>
      </trkpt>
      <trkpt lat="44.07564" lon="3.50047">
        <ele>1079.2</ele>
        <time>2021-08-12T16:59:30Z</time>
      </trkpt>
      <trkpt lat="44.07551" lon="3.5004">
        <ele>1078.1</ele>
        <time>2021-08-12T16:59:32Z</time>
      </trkpt>
      <trkpt lat="44.07537" lon="3.50034">
        <ele>1076.9</ele>
        <time>2021-08-12T16:59:34Z</time>
      </trkpt>
      <trkpt lat="44.07523" lon="3.50027">
        <ele>1075.5</ele>
        <time>2021-08-12T16:59:36Z</time>
      </trkpt>
      <trkpt lat="44.0751" lon="3.5002">
        <ele>1074</ele>
        <time>2021-08-12T16:59:38Z</time>
      </trkpt>
      <trkpt lat="44.07497" lon="3.50013">
        <ele>1072.9</ele>
        <time>2021-08-12T16:59:40Z</time>
      </trkpt>
      <trkpt lat="44.07485" lon="3.50005">
        <ele>1072.5</ele>
        <time>2021-08-12T16:59:42Z</time>
      </trkpt>
      <trkpt lat="44.07474" lon="3.49993">
        <ele>1072.2</ele>
        <time>2021-08-12T16:59:44Z</time>
      </trkpt>
      <trkpt lat="44.07465" lon="3.49979">
        <ele>1072.4</ele>
        <time>2021-08-12T16:59:46Z</time>
      </trkpt>
      <trkpt lat="44.07454" lon="3.49968">
        <ele>1072</ele>
        <time>2021-08-12T16:59:48Z</time>
      </trkpt>
      <trkpt lat="44.07443" lon="3.4996">
        <ele>1071</ele>
        <time>2021-08-12T16:59:50Z</time>
      </trkpt>
      <trkpt lat="44.0743" lon="3.49956">
        <ele>1069.3</ele>
        <time>2021-08-12T16:59:52Z</time>
      </trkpt>
      <trkpt lat="44.07418" lon="3.4995">
        <ele>1067.9</ele>
        <time>2021-08-12T16:59:54Z</time>
      </trkpt>
      <trkpt lat="44.07407" lon="3.49945">
        <ele>1067.7</ele>
        <time>2021-08-12T16:59:56Z</time>
      </trkpt>
      <trkpt lat="44.07396" lon="3.4994">
        <ele>1067.7</ele>
        <time>2021-08-12T16:59:58Z</time>
      </trkpt>
      <trkpt lat="44.07384" lon="3.49934">
        <ele>1067.7</ele>
        <time>2021-08-12T17:00:00Z</time>
      </trkpt>
      <trkpt lat="44.07375" lon="3.49925">
        <ele>1068.1</ele>
        <time>2021-08-12T17:00:02Z</time>
      </trkpt>
      <trkpt lat="44.07369" lon="3.49911">
        <ele>1068.6</ele>
        <time>2021-08-12T17:00:04Z</time>
      </trkpt>
      <trkpt lat="44.07368" lon="3.49893">
        <ele>1068.7</ele>
        <time>2021-08-12T17:00:06Z</time>
      </trkpt>
      <trkpt lat="44.07373" lon="3.49878">
        <ele>1069</ele>
        <time>2021-08-12T17:00:08Z</time>
      </trkpt>
      <trkpt lat="44.07384" lon="3.49867">
        <ele>1069.1</ele>
        <time>2021-08-12T17:00:10Z</time>
      </trkpt>
      <trkpt lat="44.07396" lon="3.49858">
        <ele>1069.1</ele>
        <time>2021-08-12T17:00:12Z</time>
      </trkpt>
      <trkpt lat="44.07408" lon="3.49849">
        <ele>1068.8</ele>
        <time>2021-08-12T17:00:14Z</time>
      </trkpt>
      <trkpt lat="44.07421" lon="3.49839">
        <ele>1069</ele>
        <time>2021-08-12T17:00:16Z</time>
      </trkpt>
      <trkpt lat="44.07435" lon="3.4983">
        <ele>1070.2</ele>
        <time>2021-08-12T17:00:18Z</time>
      </trkpt>
      <trkpt lat="44.07449" lon="3.49819">
        <ele>1070.7</ele>
        <time>2021-08-12T17:00:20Z</time>
      </trkpt>
      <trkpt lat="44.07461" lon="3.49804">
        <ele>1070.3</ele>
        <time>2021-08-12T17:00:22Z</time>
      </trkpt>
      <trkpt lat="44.07468" lon="3.49786">
        <ele>1068.9</ele>
        <time>2021-08-12T17:00:24Z</time>
      </trkpt>
      <trkpt lat="44.07471" lon="3.49768">
        <ele>1066.8</ele>
        <time>2021-08-12T17:00:26Z</time>
      </trkpt>
      <trkpt lat="44.07468" lon="3.4975">
        <ele>1064</ele>
        <time>2021-08-12T17:00:28Z</time>
      </trkpt>
      <trkpt lat="44.07468" lon="3.49732">
        <ele>1061.9</ele>
        <time>2021-08-12T17:00:30Z</time>
      </trkpt>
      <trkpt lat="44.07473" lon="3.49715">
        <ele>1060.5</ele>
        <time>2021-08-12T17:00:32Z</time>
      </trkpt>
      <trkpt lat="44.07483" lon="3.49702">
        <ele>1060.3</ele>
        <time>2021-08-12T17:00:34Z</time>
      </trkpt>
      <trkpt lat="44.07496" lon="3.49696">
        <ele>1061.4</ele>
        <time>2021-08-12T17:00:36Z</time>
      </trkpt>
      <trkpt lat="44.07509" lon="3.49694">
        <ele>1063.2</ele>
        <time>2021-08-12T17:00:38Z</time>
      </trkpt>
      <trkpt lat="44.07521" lon="3.49687">
        <ele>1064.5</ele>
        <time>2021-08-12T17:00:40Z</time>
      </trkpt>
      <trkpt lat="44.07531" lon="3.49673">
        <ele>1065.2</ele>
        <time>2021-08-12T17:00:42Z</time>
      </trkpt>
      <trkpt lat="44.07534" lon="3.49655">
        <ele>1065.4</ele>
        <time>2021-08-12T17:00:44Z</time>
      </trkpt>
      <trkpt lat="44.07529" lon="3.49638">
        <ele>1064.5</ele>
        <time>2021-08-12T17:00:46Z</time>
      </trkpt>
      <trkpt lat="44.07522" lon="3.49623">
        <ele>1062.6</ele>
        <time>2021-08-12T17:00:48Z</time>
      </trkpt>
      <trkpt lat="44.07516" lon="3.49608">
        <ele>1060.8</ele>
        <time>2021-08-12T17:00:50Z</time>
      </trkpt>
      <trkpt lat="44.07515" lon="3.49591">
        <ele>1060</ele>
        <time>2021-08-12T17:00:52Z</time>
      </trkpt>
      <trkpt lat="44.07515" lon="3.49577">
        <ele>1059.9</ele>
        <time>2021-08-12T17:00:54Z</time>
      </trkpt>
      <trkpt lat="44.07517" lon="3.49556">
        <ele>1059.5</ele>
        <time>2021-08-12T17:00:56Z</time>
      </trkpt>
      <trkpt lat="44.0752" lon="3.49538">
        <ele>1059.5</ele>
        <time>2021-08-12T17:00:58Z</time>
      </trkpt>
      <trkpt lat="44.07518" lon="3.49519">
        <ele>1058.2</ele>
        <time>2021-08-12T17:01:00Z</time>
      </trkpt>
      <trkpt lat="44.07516" lon="3.495">
        <ele>1056.2</ele>
        <time>2021-08-12T17:01:02Z</time>
      </trkpt>
      <trkpt lat="44.07514" lon="3.49482">
        <ele>1055</ele>
        <time>2021-08-12T17:01:04Z</time>
      </trkpt>
      <trkpt lat="44.07519" lon="3.49464">
        <ele>1055.8</ele>
        <time>2021-08-12T17:01:06Z</time>
      </trkpt>
      <trkpt lat="44.07523" lon="3.49447">
        <ele>1056.6</ele>
        <time>2021-08-12T17:01:08Z</time>
      </trkpt>
      <trkpt lat="44.07528" lon="3.4943">
        <ele>1057.5</ele>
        <time>2021-08-12T17:01:10Z</time>
      </trkpt>
      <trkpt lat="44.07533" lon="3.49413">
        <ele>1057.9</ele>
        <time>2021-08-12T17:01:12Z</time>
      </trkpt>
      <trkpt lat="44.07538" lon="3.49396">
        <ele>1058.3</ele>
        <time>2021-08-12T17:01:14Z</time>
      </trkpt>
      <trkpt lat="44.07545" lon="3.49382">
        <ele>1059.1</ele>
        <time>2021-08-12T17:01:16Z</time>
      </trkpt>
      <trkpt lat="44.07552" lon="3.49368">
        <ele>1059.6</ele>
        <time>2021-08-12T17:01:18Z</time>
      </trkpt>
      <trkpt lat="44.07559" lon="3.49354">
        <ele>1059.9</ele>
        <time>2021-08-12T17:01:20Z</time>
      </trkpt>
      <trkpt lat="44.07565" lon="3.49339">
        <ele>1059.7</ele>
        <time>2021-08-12T17:01:22Z</time>
      </trkpt>
      <trkpt lat="44.0757" lon="3.49324">
        <ele>1059</ele>
        <time>2021-08-12T17:01:24Z</time>
      </trkpt>
      <trkpt lat="44.07576" lon="3.4931">
        <ele>1058.2</ele>
        <time>2021-08-12T17:01:26Z</time>
      </trkpt>
      <trkpt lat="44.07582" lon="3.49296">
        <ele>1056.9</ele>
        <time>2021-08-12T17:01:28Z</time>
      </trkpt>
      <trkpt lat="44.07589" lon="3.49282">
        <ele>1056.3</ele>
        <time>2021-08-12T17:01:30Z</time>
      </trkpt>
      <trkpt lat="44.076" lon="3.49271">
        <ele>1057</ele>
        <time>2021-08-12T17:01:32Z</time>
      </trkpt>
      <trkpt lat="44.07612" lon="3.49267">
        <ele>1059.2</ele>
        <time>2021-08-12T17:01:34Z</time>
      </trkpt>
      <trkpt lat="44.07624" lon="3.49265">
        <ele>1061.8</ele>
        <time>2021-08-12T17:01:36Z</time>
      </trkpt>
      <trkpt lat="44.07636" lon="3.4926">
        <ele>1063.8</ele>
        <time>2021-08-12T17:01:38Z</time>
      </trkpt>
      <trkpt lat="44.07644" lon="3.49247">
        <ele>1064.4</ele>
        <time>2021-08-12T17:01:40Z</time>
      </trkpt>
      <trkpt lat="44.07645" lon="3.49229">
        <ele>1063.4</ele>
        <time>2021-08-12T17:01:42Z</time>
      </trkpt>
      <trkpt lat="44.07641" lon="3.49211">
        <ele>1061.4</ele>
        <time>2021-08-12T17:01:44Z</time>
      </trkpt>
      <trkpt lat="44.07638" lon="3.49193">
        <ele>1059.5</ele>
        <time>2021-08-12T17:01:46Z</time>
      </trkpt>
      <trkpt lat="44.07637" lon="3.49175">
        <ele>1058.1</ele>
        <time>2021-08-12T17:01:48Z</time>
      </trkpt>
      <trkpt lat="44.07637" lon="3.49158">
        <ele>1056.6</ele>
        <time>2021-08-12T17:01:50Z</time>
      </trkpt>
      <trkpt lat="44.07638" lon="3.49139">
        <ele>1055.6</ele>
        <time>2021-08-12T17:01:52Z</time>
      </trkpt>
      <trkpt lat="44.07638" lon="3.49119">
        <ele>1054</ele>
        <time>2021-08-12T17:01:54Z</time>
      </trkpt>
      <trkpt lat="44.07641" lon="3.49101">
        <ele>1053.4</ele>
        <time>2021-08-12T17:01:56Z</time>
      </trkpt>
      <trkpt lat="44.07645" lon="3.49082">
        <ele>1053.1</ele>
        <time>2021-08-12T17:01:58Z</time>
      </trkpt>
      <trkpt lat="44.0765" lon="3.49065">
        <ele>1053.6</ele>
        <time>2021-08-12T17:02:00Z</time>
      </trkpt>
      <trkpt lat="44.07654" lon="3.49047">
        <ele>1054.1</ele>
        <time>2021-08-12T17:02:02Z</time>
      </trkpt>
      <trkpt lat="44.0766" lon="3.49031">
        <ele>1054.7</ele>
        <time>2021-08-12T17:02:04Z</time>
      </trkpt>
      <trkpt lat="44.07664" lon="3.49013">
        <ele>1054.9</ele>
        <time>2021-08-12T17:02:06Z</time>
      </trkpt>
      <trkpt lat="44.07667" lon="3.48995">
        <ele>1055.2</ele>
        <time>2021-08-12T17:02:08Z</time>
      </trkpt>
      <trkpt lat="44.0767" lon="3.48977">
        <ele>1056.5</ele>
        <time>2021-08-12T17:02:10Z</time>
      </trkpt>
      <trkpt lat="44.07671" lon="3.48959">
        <ele>1057</ele>
        <time>2021-08-12T17:02:12Z</time>
      </trkpt>
      <trkpt lat="44.07671" lon="3.48941">
        <ele>1056.7</ele>
        <time>2021-08-12T17:02:14Z</time>
      </trkpt>
      <trkpt lat="44.07669" lon="3.48925">
        <ele>1055.9</ele>
        <time>2021-08-12T17:02:16Z</time>
      </trkpt>
      <trkpt lat="44.07667" lon="3.48909">
        <ele>1055.3</ele>
        <time>2021-08-12T17:02:18Z</time>
      </trkpt>
      <trkpt lat="44.07666" lon="3.48891">
        <ele>1054.9</ele>
        <time>2021-08-12T17:02:20Z</time>
      </trkpt>
      <trkpt lat="44.07665" lon="3.48874">
        <ele>1054.5</ele>
        <time>2021-08-12T17:02:22Z</time>
      </trkpt>
      <trkpt lat="44.07663" lon="3.48857">
        <ele>1054</ele>
        <time>2021-08-12T17:02:24Z</time>
      </trkpt>
      <trkpt lat="44.07658" lon="3.4884">
        <ele>1053</ele>
        <time>2021-08-12T17:02:26Z</time>
      </trkpt>
      <trkpt lat="44.07649" lon="3.48826">
        <ele>1051.4</ele>
        <time>2021-08-12T17:02:28Z</time>
      </trkpt>
      <trkpt lat="44.07637" lon="3.48816">
        <ele>1049.7</ele>
        <time>2021-08-12T17:02:30Z</time>
      </trkpt>
      <trkpt lat="44.07627" lon="3.48804">
        <ele>1048.4</ele>
        <time>2021-08-12T17:02:32Z</time>
      </trkpt>
      <trkpt lat="44.07617" lon="3.48791">
        <ele>1047.4</ele>
        <time>2021-08-12T17:02:34Z</time>
      </trkpt>
      <trkpt lat="44.0761" lon="3.48777">
        <ele>1047</ele>
        <time>2021-08-12T17:02:36Z</time>
      </trkpt>
      <trkpt lat="44.07603" lon="3.48762">
        <ele>1046.9</ele>
        <time>2021-08-12T17:02:38Z</time>
      </trkpt>
      <trkpt lat="44.076" lon="3.48745">
        <ele>1047.1</ele>
        <time>2021-08-12T17:02:40Z</time>
      </trkpt>
      <trkpt lat="44.07602" lon="3.48728">
        <ele>1046.4</ele>
        <time>2021-08-12T17:02:42Z</time>
      </trkpt>
      <trkpt lat="44.07606" lon="3.48713">
        <ele>1046.2</ele>
        <time>2021-08-12T17:02:44Z</time>
      </trkpt>
      <trkpt lat="44.07612" lon="3.48697">
        <ele>1046.7</ele>
        <time>2021-08-12T17:02:46Z</time>
      </trkpt>
      <trkpt lat="44.07619" lon="3.48682">
        <ele>1047.5</ele>
        <time>2021-08-12T17:02:48Z</time>
      </trkpt>
      <trkpt lat="44.07627" lon="3.48667">
        <ele>1048.4</ele>
        <time>2021-08-12T17:02:50Z</time>
      </trkpt>
      <trkpt lat="44.07634" lon="3.48653">
        <ele>1048.5</ele>
        <time>2021-08-12T17:02:52Z</time>
      </trkpt>
      <trkpt lat="44.07642" lon="3.4864">
        <ele>1048.6</ele>
        <time>2021-08-12T17:02:54Z</time>
      </trkpt>
      <trkpt lat="44.0765" lon="3.48627">
        <ele>1048.9</ele>
        <time>2021-08-12T17:02:56Z</time>
      </trkpt>
      <trkpt lat="44.07655" lon="3.48612">
        <ele>1048.1</ele>
        <time>2021-08-12T17:02:58Z</time>
      </trkpt>
      <trkpt lat="44.07661" lon="3.48598">
        <ele>1047.6</ele>
        <time>2021-08-12T17:03:00Z</time>
      </trkpt>
      <trkpt lat="44.07666" lon="3.48584">
        <ele>1047.1</ele>
        <time>2021-08-12T17:03:02Z</time>
      </trkpt>
      <trkpt lat="44.07671" lon="3.48571">
        <ele>1047.2</ele>
        <time>2021-08-12T17:03:04Z</time>
      </trkpt>
      <trkpt lat="44.07677" lon="3.48558">
        <ele>1047.6</ele>
        <time>2021-08-12T17:03:06Z</time>
      </trkpt>
      <trkpt lat="44.07683" lon="3.48545">
        <ele>1048.1</ele>
        <time>2021-08-12T17:03:08Z</time>
      </trkpt>
      <trkpt lat="44.07689" lon="3.48531">
        <ele>1048.4</ele>
        <time>2021-08-12T17:03:10Z</time>
      </trkpt>
      <trkpt lat="44.07696" lon="3.48517">
        <ele>1048.6</ele>
        <time>2021-08-12T17:03:12Z</time>
      </trkpt>
      <trkpt lat="44.07702" lon="3.48503">
        <ele>1048.4</ele>
        <time>2021-08-12T17:03:14Z</time>
      </trkpt>
      <trkpt lat="44.07706" lon="3.48487">
        <ele>1050.6</ele>
        <time>2021-08-12T17:03:16Z</time>
      </trkpt>
      <trkpt lat="44.07705" lon="3.4847">
        <ele>1052.1</ele>
        <time>2021-08-12T17:03:18Z</time>
      </trkpt>
      <trkpt lat="44.077" lon="3.48455">
        <ele>1051.9</ele>
        <time>2021-08-12T17:03:20Z</time>
      </trkpt>
      <trkpt lat="44.07695" lon="3.4844">
        <ele>1051.2</ele>
        <time>2021-08-12T17:03:22Z</time>
      </trkpt>
      <trkpt lat="44.07689" lon="3.48426">
        <ele>1049.9</ele>
        <time>2021-08-12T17:03:24Z</time>
      </trkpt>
      <trkpt lat="44.07683" lon="3.48411">
        <ele>1049.1</ele>
        <time>2021-08-12T17:03:26Z</time>
      </trkpt>
      <trkpt lat="44.07676" lon="3.48396">
        <ele>1049</ele>
        <time>2021-08-12T17:03:28Z</time>
      </trkpt>
      <trkpt lat="44.07669" lon="3.4838">
        <ele>1049</ele>
        <time>2021-08-12T17:03:30Z</time>
      </trkpt>
      <trkpt lat="44.07663" lon="3.48364">
        <ele>1050</ele>
        <time>2021-08-12T17:03:32Z</time>
      </trkpt>
      <trkpt lat="44.07656" lon="3.48347">
        <ele>1050.9</ele>
        <time>2021-08-12T17:03:34Z</time>
      </trkpt>
      <trkpt lat="44.07649" lon="3.48331">
        <ele>1051</ele>
        <time>2021-08-12T17:03:36Z</time>
      </trkpt>
      <trkpt lat="44.07641" lon="3.48316">
        <ele>1050.6</ele>
        <time>2021-08-12T17:03:38Z</time>
      </trkpt>
      <trkpt lat="44.07632" lon="3.48303">
        <ele>1049.3</ele>
        <time>2021-08-12T17:03:40Z</time>
      </trkpt>
      <trkpt lat="44.07622" lon="3.4829">
        <ele>1047.7</ele>
        <time>2021-08-12T17:03:42Z</time>
      </trkpt>
      <trkpt lat="44.07612" lon="3.48277">
        <ele>1046.1</ele>
        <time>2021-08-12T17:03:44Z</time>
      </trkpt>
      <trkpt lat="44.07603" lon="3.48264">
        <ele>1044.3</ele>
        <time>2021-08-12T17:03:46Z</time>
      </trkpt>
      <trkpt lat="44.07593" lon="3.48251">
        <ele>1042.7</ele>
        <time>2021-08-12T17:03:48Z</time>
      </trkpt>
      <trkpt lat="44.07584" lon="3.48238">
        <ele>1040.7</ele>
        <time>2021-08-12T17:03:50Z</time>
      </trkpt>
      <trkpt lat="44.07574" lon="3.48226">
        <ele>1039.5</ele>
        <time>2021-08-12T17:03:52Z</time>
      </trkpt>
      <trkpt lat="44.07563" lon="3.48214">
        <ele>1038.4</ele>
        <time>2021-08-12T17:03:54Z</time>
      </trkpt>
      <trkpt lat="44.07554" lon="3.48202">
        <ele>1037.2</ele>
        <time>2021-08-12T17:03:56Z</time>
      </trkpt>
      <trkpt lat="44.07546" lon="3.48189">
        <ele>1036.2</ele>
        <time>2021-08-12T17:03:58Z</time>
      </trkpt>
      <trkpt lat="44.07542" lon="3.48172">
        <ele>1036.6</ele>
        <time>2021-08-12T17:04:00Z</time>
      </trkpt>
      <trkpt lat="44.07544" lon="3.48153">
        <ele>1037.2</ele>
        <time>2021-08-12T17:04:02Z</time>
      </trkpt>
      <trkpt lat="44.07552" lon="3.48137">
        <ele>1038.5</ele>
        <time>2021-08-12T17:04:04Z</time>
      </trkpt>
      <trkpt lat="44.07563" lon="3.48126">
        <ele>1040.4</ele>
        <time>2021-08-12T17:04:06Z</time>
      </trkpt>
      <trkpt lat="44.07573" lon="3.48115">
        <ele>1041.9</ele>
        <time>2021-08-12T17:04:08Z</time>
      </trkpt>
      <trkpt lat="44.07584" lon="3.48104">
        <ele>1043.1</ele>
        <time>2021-08-12T17:04:10Z</time>
      </trkpt>
      <trkpt lat="44.07594" lon="3.48093">
        <ele>1043.8</ele>
        <time>2021-08-12T17:04:12Z</time>
      </trkpt>
      <trkpt lat="44.07603" lon="3.4808">
        <ele>1044.5</ele>
        <time>2021-08-12T17:04:14Z</time>
      </trkpt>
      <trkpt lat="44.07607" lon="3.48062">
        <ele>1046.7</ele>
        <time>2021-08-12T17:04:16Z</time>
      </trkpt>
      <trkpt lat="44.07605" lon="3.48043">
        <ele>1047.9</ele>
        <time>2021-08-12T17:04:18Z</time>
      </trkpt>
      <trkpt lat="44.07596" lon="3.48027">
        <ele>1047.8</ele>
        <time>2021-08-12T17:04:20Z</time>
      </trkpt>
      <trkpt lat="44.07583" lon="3.48022">
        <ele>1046.2</ele>
        <time>2021-08-12T17:04:22Z</time>
      </trkpt>
      <trkpt lat="44.0757" lon="3.4802">
        <ele>1045.2</ele>
        <time>2021-08-12T17:04:24Z</time>
      </trkpt>
      <trkpt lat="44.07557" lon="3.48018">
        <ele>1044.4</ele>
        <time>2021-08-12T17:04:26Z</time>
      </trkpt>
      <trkpt lat="44.07543" lon="3.48014">
        <ele>1043.7</ele>
        <time>2021-08-12T17:04:28Z</time>
      </trkpt>
      <trkpt lat="44.07532" lon="3.48013">
        <ele>1043</ele>
        <time>2021-08-12T17:04:30Z</time>
      </trkpt>
      <trkpt lat="44.07519" lon="3.48011">
        <ele>1042.4</ele>
        <time>2021-08-12T17:04:32Z</time>
      </trkpt>
      <trkpt lat="44.07506" lon="3.4801">
        <ele>1041.7</ele>
        <time>2021-08-12T17:04:34Z</time>
      </trkpt>
      <trkpt lat="44.07495" lon="3.4801">
        <ele>1040.3</ele>
        <time>2021-08-12T17:04:36Z</time>
      </trkpt>
      <trkpt lat="44.07483" lon="3.48008">
        <ele>1038.5</ele>
        <time>2021-08-12T17:04:38Z</time>
      </trkpt>
      <trkpt lat="44.07472" lon="3.48004">
        <ele>1037.2</ele>
        <time>2021-08-12T17:04:40Z</time>
      </trkpt>
      <trkpt lat="44.07461" lon="3.47995">
        <ele>1037.1</ele>
        <time>2021-08-12T17:04:42Z</time>
      </trkpt>
      <trkpt lat="44.07451" lon="3.47986">
        <ele>1037.7</ele>
        <time>2021-08-12T17:04:44Z</time>
      </trkpt>
      <trkpt lat="44.0744" lon="3.47977">
        <ele>1037.9</ele>
        <time>2021-08-12T17:04:46Z</time>
      </trkpt>
      <trkpt lat="44.0743" lon="3.47968">
        <ele>1038.2</ele>
        <time>2021-08-12T17:04:48Z</time>
      </trkpt>
      <trkpt lat="44.0742" lon="3.47959">
        <ele>1038.4</ele>
        <time>2021-08-12T17:04:50Z</time>
      </trkpt>
      <trkpt lat="44.07409" lon="3.4795">
        <ele>1038.6</ele>
        <time>2021-08-12T17:04:52Z</time>
      </trkpt>
      <trkpt lat="44.07401" lon="3.47937">
        <ele>1039.6</ele>
        <time>2021-08-12T17:04:54Z</time>
      </trkpt>
      <trkpt lat="44.07393" lon="3.47923">
        <ele>1040.2</ele>
        <time>2021-08-12T17:04:56Z</time>
      </trkpt>
      <trkpt lat="44.07386" lon="3.47908">
        <ele>1041</ele>
        <time>2021-08-12T17:04:58Z</time>
      </trkpt>
      <trkpt lat="44.0738" lon="3.47893">
        <ele>1041.8</ele>
        <time>2021-08-12T17:05:00Z</time>
      </trkpt>
      <trkpt lat="44.07366" lon="3.47887">
        <ele>1039</ele>
        <time>2021-08-12T17:05:02Z</time>
      </trkpt>
      <trkpt lat="44.07363" lon="3.47868">
        <ele>1042</ele>
        <time>2021-08-12T17:05:04Z</time>
      </trkpt>
      <trkpt lat="44.07355" lon="3.47854">
        <ele>1042.2</ele>
        <time>2021-08-12T17:05:06Z</time>
      </trkpt>
      <trkpt lat="44.07347" lon="3.47844">
        <ele>1041.9</ele>
        <time>2021-08-12T17:05:08Z</time>
      </trkpt>
      <trkpt lat="44.07338" lon="3.47835">
        <ele>1041.1</ele>
        <time>2021-08-12T17:05:10Z</time>
      </trkpt>
      <trkpt lat="44.07329" lon="3.47825">
        <ele>1039.5</ele>
        <time>2021-08-12T17:05:12Z</time>
      </trkpt>
      <trkpt lat="44.07321" lon="3.47816">
        <ele>1038</ele>
        <time>2021-08-12T17:05:14Z</time>
      </trkpt>
      <trkpt lat="44.07313" lon="3.47808">
        <ele>1036.6</ele>
        <time>2021-08-12T17:05:16Z</time>
      </trkpt>
      <trkpt lat="44.07305" lon="3.478">
        <ele>1035.4</ele>
        <time>2021-08-12T17:05:18Z</time>
      </trkpt>
      <trkpt lat="44.07298" lon="3.47792">
        <ele>1034.1</ele>
        <time>2021-08-12T17:05:20Z</time>
      </trkpt>
      <trkpt lat="44.07291" lon="3.47782">
        <ele>1033.2</ele>
        <time>2021-08-12T17:05:22Z</time>
      </trkpt>
      <trkpt lat="44.07289" lon="3.47771">
        <ele>1033.6</ele>
        <time>2021-08-12T17:05:24Z</time>
      </trkpt>
      <trkpt lat="44.07293" lon="3.4776">
        <ele>1035.1</ele>
        <time>2021-08-12T17:05:26Z</time>
      </trkpt>
      <trkpt lat="44.07299" lon="3.47751">
        <ele>1037.2</ele>
        <time>2021-08-12T17:05:28Z</time>
      </trkpt>
      <trkpt lat="44.07307" lon="3.47744">
        <ele>1038</ele>
        <time>2021-08-12T17:05:30Z</time>
      </trkpt>
      <trkpt lat="44.07314" lon="3.47736">
        <ele>1038.4</ele>
        <time>2021-08-12T17:05:32Z</time>
      </trkpt>
      <trkpt lat="44.07322" lon="3.47727">
        <ele>1038.7</ele>
        <time>2021-08-12T17:05:34Z</time>
      </trkpt>
      <trkpt lat="44.0733" lon="3.47717">
        <ele>1038.7</ele>
        <time>2021-08-12T17:05:36Z</time>
      </trkpt>
      <trkpt lat="44.07338" lon="3.47708">
        <ele>1039.2</ele>
        <time>2021-08-12T17:05:38Z</time>
      </trkpt>
      <trkpt lat="44.07345" lon="3.47698">
        <ele>1040</ele>
        <time>2021-08-12T17:05:40Z</time>
      </trkpt>
      <trkpt lat="44.07353" lon="3.47689">
        <ele>1040.9</ele>
        <time>2021-08-12T17:05:42Z</time>
      </trkpt>
      <trkpt lat="44.07362" lon="3.4768">
        <ele>1042.3</ele>
        <time>2021-08-12T17:05:44Z</time>
      </trkpt>
      <trkpt lat="44.07371" lon="3.47671">
        <ele>1043.4</ele>
        <time>2021-08-12T17:05:46Z</time>
      </trkpt>
      <trkpt lat="44.0738" lon="3.47662">
        <ele>1044.3</ele>
        <time>2021-08-12T17:05:48Z</time>
      </trkpt>
      <trkpt lat="44.07388" lon="3.47653">
        <ele>1044.5</ele>
        <time>2021-08-12T17:05:50Z</time>
      </trkpt>
      <trkpt lat="44.07396" lon="3.47645">
        <ele>1044.6</ele>
        <time>2021-08-12T17:05:52Z</time>
      </trkpt>
      <trkpt lat="44.07402" lon="3.47635">
        <ele>1043.6</ele>
        <time>2021-08-12T17:05:54Z</time>
      </trkpt>
      <trkpt lat="44.07408" lon="3.47624">
        <ele>1041.9</ele>
        <time>2021-08-12T17:05:56Z</time>
      </trkpt>
      <trkpt lat="44.07412" lon="3.47611">
        <ele>1039.3</ele>
        <time>2021-08-12T17:05:58Z</time>
      </trkpt>
      <trkpt lat="44.07415" lon="3.47598">
        <ele>1036</ele>
        <time>2021-08-12T17:06:00Z</time>
      </trkpt>
      <trkpt lat="44.07418" lon="3.47585">
        <ele>1032.8</ele>
        <time>2021-08-12T17:06:02Z</time>
      </trkpt>
      <trkpt lat="44.07422" lon="3.47572">
        <ele>1030.7</ele>
        <time>2021-08-12T17:06:04Z</time>
      </trkpt>
      <trkpt lat="44.07429" lon="3.4756">
        <ele>1029.5</ele>
        <time>2021-08-12T17:06:06Z</time>
      </trkpt>
      <trkpt lat="44.0744" lon="3.47553">
        <ele>1029.7</ele>
        <time>2021-08-12T17:06:08Z</time>
      </trkpt>
      <trkpt lat="44.07451" lon="3.4755">
        <ele>1031</ele>
        <time>2021-08-12T17:06:10Z</time>
      </trkpt>
      <trkpt lat="44.07463" lon="3.47549">
        <ele>1033</ele>
        <time>2021-08-12T17:06:12Z</time>
      </trkpt>
      <trkpt lat="44.07476" lon="3.47551">
        <ele>1035.8</ele>
        <time>2021-08-12T17:06:14Z</time>
      </trkpt>
      <trkpt lat="44.07488" lon="3.47553">
        <ele>1038.8</ele>
        <time>2021-08-12T17:06:16Z</time>
      </trkpt>
      <trkpt lat="44.075" lon="3.47555">
        <ele>1041.7</ele>
        <time>2021-08-12T17:06:18Z</time>
      </trkpt>
      <trkpt lat="44.07513" lon="3.47556">
        <ele>1042.7</ele>
        <time>2021-08-12T17:06:20Z</time>
      </trkpt>
      <trkpt lat="44.07525" lon="3.47559">
        <ele>1043.9</ele>
        <time>2021-08-12T17:06:22Z</time>
      </trkpt>
      <trkpt lat="44.07537" lon="3.47561">
        <ele>1045</ele>
        <time>2021-08-12T17:06:24Z</time>
      </trkpt>
      <trkpt lat="44.07548" lon="3.47562">
        <ele>1045.8</ele>
        <time>2021-08-12T17:06:26Z</time>
      </trkpt>
      <trkpt lat="44.0756" lon="3.4756">
        <ele>1045.4</ele>
        <time>2021-08-12T17:06:28Z</time>
      </trkpt>
      <trkpt lat="44.07571" lon="3.47556">
        <ele>1044.2</ele>
        <time>2021-08-12T17:06:30Z</time>
      </trkpt>
      <trkpt lat="44.07582" lon="3.47549">
        <ele>1041.9</ele>
        <time>2021-08-12T17:06:32Z</time>
      </trkpt>
      <trkpt lat="44.07593" lon="3.47541">
        <ele>1039.8</ele>
        <time>2021-08-12T17:06:34Z</time>
      </trkpt>
      <trkpt lat="44.07605" lon="3.47532">
        <ele>1037.6</ele>
        <time>2021-08-12T17:06:36Z</time>
      </trkpt>
      <trkpt lat="44.07616" lon="3.47525">
        <ele>1036.1</ele>
        <time>2021-08-12T17:06:38Z</time>
      </trkpt>
      <trkpt lat="44.07629" lon="3.47518">
        <ele>1035.2</ele>
        <time>2021-08-12T17:06:40Z</time>
      </trkpt>
      <trkpt lat="44.07642" lon="3.47512">
        <ele>1034.5</ele>
        <time>2021-08-12T17:06:42Z</time>
      </trkpt>
      <trkpt lat="44.07654" lon="3.47507">
        <ele>1034.1</ele>
        <time>2021-08-12T17:06:44Z</time>
      </trkpt>
      <trkpt lat="44.07667" lon="3.47503">
        <ele>1034</ele>
        <time>2021-08-12T17:06:46Z</time>
      </trkpt>
      <trkpt lat="44.0768" lon="3.47499">
        <ele>1034.8</ele>
        <time>2021-08-12T17:06:48Z</time>
      </trkpt>
      <trkpt lat="44.07693" lon="3.47495">
        <ele>1035.4</ele>
        <time>2021-08-12T17:06:50Z</time>
      </trkpt>
      <trkpt lat="44.07705" lon="3.47491">
        <ele>1036</ele>
        <time>2021-08-12T17:06:52Z</time>
      </trkpt>
      <trkpt lat="44.07717" lon="3.47488">
        <ele>1036.5</ele>
        <time>2021-08-12T17:06:54Z</time>
      </trkpt>
      <trkpt lat="44.0773" lon="3.47484">
        <ele>1037.1</ele>
        <time>2021-08-12T17:06:56Z</time>
      </trkpt>
      <trkpt lat="44.07742" lon="3.47479">
        <ele>1037</ele>
        <time>2021-08-12T17:06:58Z</time>
      </trkpt>
      <trkpt lat="44.07755" lon="3.47475">
        <ele>1036.9</ele>
        <time>2021-08-12T17:07:00Z</time>
      </trkpt>
      <trkpt lat="44.07767" lon="3.47472">
        <ele>1036.4</ele>
        <time>2021-08-12T17:07:02Z</time>
      </trkpt>
      <trkpt lat="44.0778" lon="3.47467">
        <ele>1035.7</ele>
        <time>2021-08-12T17:07:04Z</time>
      </trkpt>
      <trkpt lat="44.07792" lon="3.47463">
        <ele>1035.1</ele>
        <time>2021-08-12T17:07:06Z</time>
      </trkpt>
      <trkpt lat="44.07804" lon="3.47457">
        <ele>1034.2</ele>
        <time>2021-08-12T17:07:08Z</time>
      </trkpt>
      <trkpt lat="44.07816" lon="3.47454">
        <ele>1034</ele>
        <time>2021-08-12T17:07:10Z</time>
      </trkpt>
      <trkpt lat="44.07828" lon="3.47451">
        <ele>1034.4</ele>
        <time>2021-08-12T17:07:12Z</time>
      </trkpt>
      <trkpt lat="44.07841" lon="3.47453">
        <ele>1036</ele>
        <time>2021-08-12T17:07:14Z</time>
      </trkpt>
      <trkpt lat="44.07853" lon="3.47457">
        <ele>1038</ele>
        <time>2021-08-12T17:07:16Z</time>
      </trkpt>
      <trkpt lat="44.07865" lon="3.47456">
        <ele>1038.7</ele>
        <time>2021-08-12T17:07:18Z</time>
      </trkpt>
      <trkpt lat="44.07876" lon="3.47447">
        <ele>1037</ele>
        <time>2021-08-12T17:07:20Z</time>
      </trkpt>
      <trkpt lat="44.07886" lon="3.47438">
        <ele>1035.3</ele>
        <time>2021-08-12T17:07:22Z</time>
      </trkpt>
      <trkpt lat="44.07895" lon="3.47427">
        <ele>1033.2</ele>
        <time>2021-08-12T17:07:24Z</time>
      </trkpt>
      <trkpt lat="44.07904" lon="3.47416">
        <ele>1031.3</ele>
        <time>2021-08-12T17:07:26Z</time>
      </trkpt>
      <trkpt lat="44.07914" lon="3.47407">
        <ele>1030.2</ele>
        <time>2021-08-12T17:07:28Z</time>
      </trkpt>
      <trkpt lat="44.07925" lon="3.474">
        <ele>1029.3</ele>
        <time>2021-08-12T17:07:30Z</time>
      </trkpt>
      <trkpt lat="44.07936" lon="3.47396">
        <ele>1029.1</ele>
        <time>2021-08-12T17:07:32Z</time>
      </trkpt>
      <trkpt lat="44.07948" lon="3.47393">
        <ele>1029.2</ele>
        <time>2021-08-12T17:07:34Z</time>
      </trkpt>
      <trkpt lat="44.0796" lon="3.47391">
        <ele>1029.8</ele>
        <time>2021-08-12T17:07:36Z</time>
      </trkpt>
      <trkpt lat="44.07972" lon="3.47389">
        <ele>1030.4</ele>
        <time>2021-08-12T17:07:38Z</time>
      </trkpt>
      <trkpt lat="44.07984" lon="3.47389">
        <ele>1031.3</ele>
        <time>2021-08-12T17:07:40Z</time>
      </trkpt>
      <trkpt lat="44.07996" lon="3.47389">
        <ele>1032.3</ele>
        <time>2021-08-12T17:07:42Z</time>
      </trkpt>
      <trkpt lat="44.08007" lon="3.47387">
        <ele>1033.8</ele>
        <time>2021-08-12T17:07:44Z</time>
      </trkpt>
      <trkpt lat="44.08018" lon="3.47385">
        <ele>1035.4</ele>
        <time>2021-08-12T17:07:46Z</time>
      </trkpt>
      <trkpt lat="44.08028" lon="3.47381">
        <ele>1036.4</ele>
        <time>2021-08-12T17:07:48Z</time>
      </trkpt>
      <trkpt lat="44.08037" lon="3.47373">
        <ele>1036.8</ele>
        <time>2021-08-12T17:07:50Z</time>
      </trkpt>
      <trkpt lat="44.08046" lon="3.47366">
        <ele>1037.2</ele>
        <time>2021-08-12T17:07:52Z</time>
      </trkpt>
      <trkpt lat="44.08053" lon="3.47355">
        <ele>1036.7</ele>
        <time>2021-08-12T17:07:54Z</time>
      </trkpt>
      <trkpt lat="44.08059" lon="3.47343">
        <ele>1035.9</ele>
        <time>2021-08-12T17:07:56Z</time>
      </trkpt>
      <trkpt lat="44.08064" lon="3.4733">
        <ele>1035.1</ele>
        <time>2021-08-12T17:07:58Z</time>
      </trkpt>
      <trkpt lat="44.08069" lon="3.47316">
        <ele>1035.3</ele>
        <time>2021-08-12T17:08:00Z</time>
      </trkpt>
      <trkpt lat="44.08072" lon="3.47304">
        <ele>1035.4</ele>
        <time>2021-08-12T17:08:02Z</time>
      </trkpt>
      <trkpt lat="44.08075" lon="3.47292">
        <ele>1035.5</ele>
        <time>2021-08-12T17:08:04Z</time>
      </trkpt>
      <trkpt lat="44.08079" lon="3.47281">
        <ele>1035.7</ele>
        <time>2021-08-12T17:08:06Z</time>
      </trkpt>
      <trkpt lat="44.08083" lon="3.4727">
        <ele>1036.2</ele>
        <time>2021-08-12T17:08:08Z</time>
      </trkpt>
      <trkpt lat="44.08089" lon="3.4726">
        <ele>1037.6</ele>
        <time>2021-08-12T17:08:10Z</time>
      </trkpt>
      <trkpt lat="44.08095" lon="3.47251">
        <ele>1039.1</ele>
        <time>2021-08-12T17:08:12Z</time>
      </trkpt>
      <trkpt lat="44.08099" lon="3.4724">
        <ele>1039.7</ele>
        <time>2021-08-12T17:08:14Z</time>
      </trkpt>
      <trkpt lat="44.08101" lon="3.47227">
        <ele>1039.4</ele>
        <time>2021-08-12T17:08:16Z</time>
      </trkpt>
      <trkpt lat="44.08102" lon="3.47214">
        <ele>1038.9</ele>
        <time>2021-08-12T17:08:18Z</time>
      </trkpt>
      <trkpt lat="44.08103" lon="3.47201">
        <ele>1038.6</ele>
        <time>2021-08-12T17:08:20Z</time>
      </trkpt>
      <trkpt lat="44.08105" lon="3.47188">
        <ele>1038.2</ele>
        <time>2021-08-12T17:08:22Z</time>
      </trkpt>
      <trkpt lat="44.08105" lon="3.47174">
        <ele>1037.4</ele>
        <time>2021-08-12T17:08:24Z</time>
      </trkpt>
      <trkpt lat="44.08105" lon="3.4716">
        <ele>1036.4</ele>
        <time>2021-08-12T17:08:26Z</time>
      </trkpt>
      <trkpt lat="44.08102" lon="3.47145">
        <ele>1035</ele>
        <time>2021-08-12T17:08:28Z</time>
      </trkpt>
      <trkpt lat="44.08097" lon="3.47131">
        <ele>1033.1</ele>
        <time>2021-08-12T17:08:30Z</time>
      </trkpt>
      <trkpt lat="44.08092" lon="3.47119">
        <ele>1031.3</ele>
        <time>2021-08-12T17:08:32Z</time>
      </trkpt>
      <trkpt lat="44.08089" lon="3.47104">
        <ele>1030</ele>
        <time>2021-08-12T17:08:34Z</time>
      </trkpt>
      <trkpt lat="44.08085" lon="3.4709">
        <ele>1028.5</ele>
        <time>2021-08-12T17:08:36Z</time>
      </trkpt>
      <trkpt lat="44.08086" lon="3.47074">
        <ele>1027.8</ele>
        <time>2021-08-12T17:08:38Z</time>
      </trkpt>
      <trkpt lat="44.08092" lon="3.47061">
        <ele>1028.4</ele>
        <time>2021-08-12T17:08:40Z</time>
      </trkpt>
      <trkpt lat="44.08102" lon="3.47051">
        <ele>1029.8</ele>
        <time>2021-08-12T17:08:42Z</time>
      </trkpt>
      <trkpt lat="44.08111" lon="3.47044">
        <ele>1031.4</ele>
        <time>2021-08-12T17:08:44Z</time>
      </trkpt>
      <trkpt lat="44.08121" lon="3.47038">
        <ele>1033.3</ele>
        <time>2021-08-12T17:08:46Z</time>
      </trkpt>
      <trkpt lat="44.08131" lon="3.47036">
        <ele>1035.4</ele>
        <time>2021-08-12T17:08:48Z</time>
      </trkpt>
      <trkpt lat="44.08141" lon="3.47031">
        <ele>1037.1</ele>
        <time>2021-08-12T17:08:50Z</time>
      </trkpt>
      <trkpt lat="44.08149" lon="3.47025">
        <ele>1038.3</ele>
        <time>2021-08-12T17:08:52Z</time>
      </trkpt>
      <trkpt lat="44.08157" lon="3.47015">
        <ele>1038.7</ele>
        <time>2021-08-12T17:08:54Z</time>
      </trkpt>
      <trkpt lat="44.0816" lon="3.47002">
        <ele>1037.9</ele>
        <time>2021-08-12T17:08:56Z</time>
      </trkpt>
      <trkpt lat="44.0816" lon="3.46988">
        <ele>1039.2</ele>
        <time>2021-08-12T17:08:58Z</time>
      </trkpt>
      <trkpt lat="44.08157" lon="3.46975">
        <ele>1040.2</ele>
        <time>2021-08-12T17:09:00Z</time>
      </trkpt>
      <trkpt lat="44.08149" lon="3.46965">
        <ele>1039.9</ele>
        <time>2021-08-12T17:09:02Z</time>
      </trkpt>
      <trkpt lat="44.08141" lon="3.46958">
        <ele>1039</ele>
        <time>2021-08-12T17:09:04Z</time>
      </trkpt>
      <trkpt lat="44.08132" lon="3.46951">
        <ele>1037.9</ele>
        <time>2021-08-12T17:09:06Z</time>
      </trkpt>
      <trkpt lat="44.08122" lon="3.46945">
        <ele>1036.7</ele>
        <time>2021-08-12T17:09:08Z</time>
      </trkpt>
      <trkpt lat="44.08113" lon="3.46938">
        <ele>1035.5</ele>
        <time>2021-08-12T17:09:10Z</time>
      </trkpt>
      <trkpt lat="44.08102" lon="3.46931">
        <ele>1034.2</ele>
        <time>2021-08-12T17:09:12Z</time>
      </trkpt>
      <trkpt lat="44.08092" lon="3.46922">
        <ele>1033.2</ele>
        <time>2021-08-12T17:09:14Z</time>
      </trkpt>
      <trkpt lat="44.08083" lon="3.46913">
        <ele>1032.8</ele>
        <time>2021-08-12T17:09:16Z</time>
      </trkpt>
      <trkpt lat="44.08074" lon="3.46903">
        <ele>1032.9</ele>
        <time>2021-08-12T17:09:18Z</time>
      </trkpt>
      <trkpt lat="44.08064" lon="3.46892">
        <ele>1033</ele>
        <time>2021-08-12T17:09:20Z</time>
      </trkpt>
      <trkpt lat="44.08055" lon="3.46881">
        <ele>1033.1</ele>
        <time>2021-08-12T17:09:22Z</time>
      </trkpt>
      <trkpt lat="44.08046" lon="3.46871">
        <ele>1033.2</ele>
        <time>2021-08-12T17:09:24Z</time>
      </trkpt>
      <trkpt lat="44.08037" lon="3.4686">
        <ele>1033.4</ele>
        <time>2021-08-12T17:09:26Z</time>
      </trkpt>
      <trkpt lat="44.08027" lon="3.46849">
        <ele>1033.4</ele>
        <time>2021-08-12T17:09:28Z</time>
      </trkpt>
      <trkpt lat="44.08016" lon="3.46841">
        <ele>1032.4</ele>
        <time>2021-08-12T17:09:30Z</time>
      </trkpt>
      <trkpt lat="44.08005" lon="3.46833">
        <ele>1031.4</ele>
        <time>2021-08-12T17:09:32Z</time>
      </trkpt>
      <trkpt lat="44.07994" lon="3.46826">
        <ele>1029.5</ele>
        <time>2021-08-12T17:09:34Z</time>
      </trkpt>
      <trkpt lat="44.07983" lon="3.46819">
        <ele>1027.7</ele>
        <time>2021-08-12T17:09:36Z</time>
      </trkpt>
      <trkpt lat="44.07972" lon="3.46813">
        <ele>1025.8</ele>
        <time>2021-08-12T17:09:38Z</time>
      </trkpt>
      <trkpt lat="44.07961" lon="3.46802">
        <ele>1024.8</ele>
        <time>2021-08-12T17:09:40Z</time>
      </trkpt>
      <trkpt lat="44.07954" lon="3.46788">
        <ele>1024.9</ele>
        <time>2021-08-12T17:09:42Z</time>
      </trkpt>
      <trkpt lat="44.0795" lon="3.46769">
        <ele>1026.5</ele>
        <time>2021-08-12T17:09:44Z</time>
      </trkpt>
      <trkpt lat="44.07949" lon="3.4675">
        <ele>1029.2</ele>
        <time>2021-08-12T17:09:46Z</time>
      </trkpt>
      <trkpt lat="44.07948" lon="3.4673">
        <ele>1031.1</ele>
        <time>2021-08-12T17:09:48Z</time>
      </trkpt>
      <trkpt lat="44.07944" lon="3.46709">
        <ele>1032.2</ele>
        <time>2021-08-12T17:09:50Z</time>
      </trkpt>
      <trkpt lat="44.07938" lon="3.46691">
        <ele>1032.9</ele>
        <time>2021-08-12T17:09:52Z</time>
      </trkpt>
      <trkpt lat="44.07926" lon="3.46678">
        <ele>1032.2</ele>
        <time>2021-08-12T17:09:54Z</time>
      </trkpt>
      <trkpt lat="44.07911" lon="3.46673">
        <ele>1030.6</ele>
        <time>2021-08-12T17:09:56Z</time>
      </trkpt>
      <trkpt lat="44.07896" lon="3.46676">
        <ele>1028.5</ele>
        <time>2021-08-12T17:09:58Z</time>
      </trkpt>
      <trkpt lat="44.07881" lon="3.46675">
        <ele>1027</ele>
        <time>2021-08-12T17:10:00Z</time>
      </trkpt>
      <trkpt lat="44.07866" lon="3.46675">
        <ele>1025.5</ele>
        <time>2021-08-12T17:10:02Z</time>
      </trkpt>
      <trkpt lat="44.07851" lon="3.46671">
        <ele>1024.7</ele>
        <time>2021-08-12T17:10:04Z</time>
      </trkpt>
      <trkpt lat="44.07836" lon="3.46665">
        <ele>1024.9</ele>
        <time>2021-08-12T17:10:06Z</time>
      </trkpt>
      <trkpt lat="44.07821" lon="3.46659">
        <ele>1024.6</ele>
        <time>2021-08-12T17:10:08Z</time>
      </trkpt>
      <trkpt lat="44.07807" lon="3.46652">
        <ele>1024.3</ele>
        <time>2021-08-12T17:10:10Z</time>
      </trkpt>
      <trkpt lat="44.07793" lon="3.46645">
        <ele>1024</ele>
        <time>2021-08-12T17:10:12Z</time>
      </trkpt>
      <trkpt lat="44.0778" lon="3.46637">
        <ele>1023.7</ele>
        <time>2021-08-12T17:10:14Z</time>
      </trkpt>
      <trkpt lat="44.07766" lon="3.4663">
        <ele>1023.4</ele>
        <time>2021-08-12T17:10:16Z</time>
      </trkpt>
      <trkpt lat="44.07753" lon="3.46622">
        <ele>1023</ele>
        <time>2021-08-12T17:10:18Z</time>
      </trkpt>
      <trkpt lat="44.0774" lon="3.46614">
        <ele>1023.7</ele>
        <time>2021-08-12T17:10:20Z</time>
      </trkpt>
      <trkpt lat="44.07726" lon="3.46606">
        <ele>1025.2</ele>
        <time>2021-08-12T17:10:22Z</time>
      </trkpt>
      <trkpt lat="44.07713" lon="3.46599">
        <ele>1026.2</ele>
        <time>2021-08-12T17:10:24Z</time>
      </trkpt>
      <trkpt lat="44.07699" lon="3.46594">
        <ele>1026.7</ele>
        <time>2021-08-12T17:10:26Z</time>
      </trkpt>
      <trkpt lat="44.07685" lon="3.46593">
        <ele>1026</ele>
        <time>2021-08-12T17:10:28Z</time>
      </trkpt>
      <trkpt lat="44.0767" lon="3.46599">
        <ele>1023.4</ele>
        <time>2021-08-12T17:10:30Z</time>
      </trkpt>
      <trkpt lat="44.07655" lon="3.46606">
        <ele>1021.2</ele>
        <time>2021-08-12T17:10:32Z</time>
      </trkpt>
      <trkpt lat="44.07641" lon="3.46618">
        <ele>1018.4</ele>
        <time>2021-08-12T17:10:34Z</time>
      </trkpt>
      <trkpt lat="44.07627" lon="3.46631">
        <ele>1015.1</ele>
        <time>2021-08-12T17:10:36Z</time>
      </trkpt>
      <trkpt lat="44.07611" lon="3.4664">
        <ele>1013.6</ele>
        <time>2021-08-12T17:10:38Z</time>
      </trkpt>
      <trkpt lat="44.07593" lon="3.46646">
        <ele>1013.2</ele>
        <time>2021-08-12T17:10:40Z</time>
      </trkpt>
      <trkpt lat="44.07576" lon="3.4665">
        <ele>1012</ele>
        <time>2021-08-12T17:10:42Z</time>
      </trkpt>
      <trkpt lat="44.07561" lon="3.46654">
        <ele>1009.4</ele>
        <time>2021-08-12T17:10:44Z</time>
      </trkpt>
      <trkpt lat="44.07546" lon="3.46655">
        <ele>1007.6</ele>
        <time>2021-08-12T17:10:46Z</time>
      </trkpt>
      <trkpt lat="44.07533" lon="3.46644">
        <ele>1007.6</ele>
        <time>2021-08-12T17:10:48Z</time>
      </trkpt>
      <trkpt lat="44.07525" lon="3.46625">
        <ele>1008.5</ele>
        <time>2021-08-12T17:10:50Z</time>
      </trkpt>
      <trkpt lat="44.07519" lon="3.46604">
        <ele>1009.4</ele>
        <time>2021-08-12T17:10:52Z</time>
      </trkpt>
      <trkpt lat="44.07515" lon="3.4658">
        <ele>1010.3</ele>
        <time>2021-08-12T17:10:54Z</time>
      </trkpt>
      <trkpt lat="44.0751" lon="3.46557">
        <ele>1010.7</ele>
        <time>2021-08-12T17:10:56Z</time>
      </trkpt>
      <trkpt lat="44.07503" lon="3.46533">
        <ele>1010.6</ele>
        <time>2021-08-12T17:10:58Z</time>
      </trkpt>
      <trkpt lat="44.07497" lon="3.4651">
        <ele>1010.4</ele>
        <time>2021-08-12T17:11:00Z</time>
      </trkpt>
      <trkpt lat="44.07494" lon="3.46485">
        <ele>1010.5</ele>
        <time>2021-08-12T17:11:02Z</time>
      </trkpt>
      <trkpt lat="44.07494" lon="3.46461">
        <ele>1011.5</ele>
        <time>2021-08-12T17:11:04Z</time>
      </trkpt>
      <trkpt lat="44.07496" lon="3.46438">
        <ele>1012.7</ele>
        <time>2021-08-12T17:11:06Z</time>
      </trkpt>
      <trkpt lat="44.07492" lon="3.46419">
        <ele>1012.8</ele>
        <time>2021-08-12T17:11:08Z</time>
      </trkpt>
      <trkpt lat="44.0748" lon="3.46407">
        <ele>1013.7</ele>
        <time>2021-08-12T17:11:10Z</time>
      </trkpt>
      <trkpt lat="44.07464" lon="3.46402">
        <ele>1013.4</ele>
        <time>2021-08-12T17:11:12Z</time>
      </trkpt>
      <trkpt lat="44.07449" lon="3.46399">
        <ele>1012.3</ele>
        <time>2021-08-12T17:11:14Z</time>
      </trkpt>
      <trkpt lat="44.07433" lon="3.46402">
        <ele>1009.8</ele>
        <time>2021-08-12T17:11:16Z</time>
      </trkpt>
      <trkpt lat="44.07419" lon="3.4641">
        <ele>1005.4</ele>
        <time>2021-08-12T17:11:18Z</time>
      </trkpt>
      <trkpt lat="44.07404" lon="3.46416">
        <ele>1002.7</ele>
        <time>2021-08-12T17:11:20Z</time>
      </trkpt>
      <trkpt lat="44.07387" lon="3.46417">
        <ele>1001.9</ele>
        <time>2021-08-12T17:11:22Z</time>
      </trkpt>
      <trkpt lat="44.07371" lon="3.46415">
        <ele>1001.9</ele>
        <time>2021-08-12T17:11:24Z</time>
      </trkpt>
      <trkpt lat="44.07355" lon="3.46413">
        <ele>1002.3</ele>
        <time>2021-08-12T17:11:26Z</time>
      </trkpt>
      <trkpt lat="44.07341" lon="3.46406">
        <ele>1004.3</ele>
        <time>2021-08-12T17:11:28Z</time>
      </trkpt>
      <trkpt lat="44.07327" lon="3.46408">
        <ele>1004.2</ele>
        <time>2021-08-12T17:11:30Z</time>
      </trkpt>
      <trkpt lat="44.07313" lon="3.46417">
        <ele>1002.3</ele>
        <time>2021-08-12T17:11:32Z</time>
      </trkpt>
      <trkpt lat="44.07298" lon="3.46418">
        <ele>1003.6</ele>
        <time>2021-08-12T17:11:34Z</time>
      </trkpt>
      <trkpt lat="44.07283" lon="3.46417">
        <ele>1005.9</ele>
        <time>2021-08-12T17:11:36Z</time>
      </trkpt>
      <trkpt lat="44.07267" lon="3.4642">
        <ele>1006.7</ele>
        <time>2021-08-12T17:11:38Z</time>
      </trkpt>
      <trkpt lat="44.07254" lon="3.46431">
        <ele>1004</ele>
        <time>2021-08-12T17:11:40Z</time>
      </trkpt>
      <trkpt lat="44.07242" lon="3.46442">
        <ele>1000.6</ele>
        <time>2021-08-12T17:11:42Z</time>
      </trkpt>
      <trkpt lat="44.07226" lon="3.46446">
        <ele>1000.4</ele>
        <time>2021-08-12T17:11:44Z</time>
      </trkpt>
      <trkpt lat="44.0721" lon="3.46449">
        <ele>1000.6</ele>
        <time>2021-08-12T17:11:46Z</time>
      </trkpt>
      <trkpt lat="44.07193" lon="3.46453">
        <ele>1000.8</ele>
        <time>2021-08-12T17:11:48Z</time>
      </trkpt>
      <trkpt lat="44.07178" lon="3.46456">
        <ele>1001.2</ele>
        <time>2021-08-12T17:11:50Z</time>
      </trkpt>
      <trkpt lat="44.07164" lon="3.46458">
        <ele>1001.8</ele>
        <time>2021-08-12T17:11:52Z</time>
      </trkpt>
      <trkpt lat="44.07151" lon="3.4647">
        <ele>1000</ele>
        <time>2021-08-12T17:11:54Z</time>
      </trkpt>
      <trkpt lat="44.07142" lon="3.46485">
        <ele>996.8</ele>
        <time>2021-08-12T17:11:56Z</time>
      </trkpt>
      <trkpt lat="44.07131" lon="3.46498">
        <ele>995.2</ele>
        <time>2021-08-12T17:11:58Z</time>
      </trkpt>
      <trkpt lat="44.07116" lon="3.46507">
        <ele>994.8</ele>
        <time>2021-08-12T17:12:00Z</time>
      </trkpt>
      <trkpt lat="44.07102" lon="3.46513">
        <ele>995.1</ele>
        <time>2021-08-12T17:12:02Z</time>
      </trkpt>
      <trkpt lat="44.07088" lon="3.4652">
        <ele>995</ele>
        <time>2021-08-12T17:12:04Z</time>
      </trkpt>
      <trkpt lat="44.07073" lon="3.46526">
        <ele>993.5</ele>
        <time>2021-08-12T17:12:06Z</time>
      </trkpt>
      <trkpt lat="44.07059" lon="3.46533">
        <ele>991</ele>
        <time>2021-08-12T17:12:08Z</time>
      </trkpt>
      <trkpt lat="44.07045" lon="3.46537">
        <ele>989.4</ele>
        <time>2021-08-12T17:12:10Z</time>
      </trkpt>
      <trkpt lat="44.0703" lon="3.4654">
        <ele>988.2</ele>
        <time>2021-08-12T17:12:12Z</time>
      </trkpt>
      <trkpt lat="44.07016" lon="3.46543">
        <ele>987.3</ele>
        <time>2021-08-12T17:12:14Z</time>
      </trkpt>
      <trkpt lat="44.07003" lon="3.46544">
        <ele>986.9</ele>
        <time>2021-08-12T17:12:16Z</time>
      </trkpt>
      <trkpt lat="44.0699" lon="3.46544">
        <ele>985.5</ele>
        <time>2021-08-12T17:12:18Z</time>
      </trkpt>
      <trkpt lat="44.06978" lon="3.46539">
        <ele>984.9</ele>
        <time>2021-08-12T17:12:20Z</time>
      </trkpt>
      <trkpt lat="44.06967" lon="3.46529">
        <ele>985.3</ele>
        <time>2021-08-12T17:12:22Z</time>
      </trkpt>
      <trkpt lat="44.06957" lon="3.46516">
        <ele>986.5</ele>
        <time>2021-08-12T17:12:24Z</time>
      </trkpt>
      <trkpt lat="44.0695" lon="3.465">
        <ele>988.2</ele>
        <time>2021-08-12T17:12:26Z</time>
      </trkpt>
      <trkpt lat="44.06947" lon="3.4648">
        <ele>990.3</ele>
        <time>2021-08-12T17:12:28Z</time>
      </trkpt>
      <trkpt lat="44.06941" lon="3.46463">
        <ele>991.6</ele>
        <time>2021-08-12T17:12:30Z</time>
      </trkpt>
      <trkpt lat="44.06931" lon="3.46447">
        <ele>991.8</ele>
        <time>2021-08-12T17:12:32Z</time>
      </trkpt>
      <trkpt lat="44.06918" lon="3.46436">
        <ele>990.5</ele>
        <time>2021-08-12T17:12:34Z</time>
      </trkpt>
      <trkpt lat="44.06903" lon="3.4643">
        <ele>987.3</ele>
        <time>2021-08-12T17:12:36Z</time>
      </trkpt>
      <trkpt lat="44.0689" lon="3.4642">
        <ele>984.5</ele>
        <time>2021-08-12T17:12:38Z</time>
      </trkpt>
      <trkpt lat="44.0688" lon="3.46403">
        <ele>982.9</ele>
        <time>2021-08-12T17:12:40Z</time>
      </trkpt>
      <trkpt lat="44.06877" lon="3.46381">
        <ele>983.8</ele>
        <time>2021-08-12T17:12:42Z</time>
      </trkpt>
      <trkpt lat="44.06881" lon="3.46359">
        <ele>986.8</ele>
        <time>2021-08-12T17:12:44Z</time>
      </trkpt>
      <trkpt lat="44.06882" lon="3.46337">
        <ele>989.2</ele>
        <time>2021-08-12T17:12:46Z</time>
      </trkpt>
      <trkpt lat="44.06877" lon="3.46316">
        <ele>989</ele>
        <time>2021-08-12T17:12:48Z</time>
      </trkpt>
      <trkpt lat="44.06868" lon="3.46297">
        <ele>987.5</ele>
        <time>2021-08-12T17:12:50Z</time>
      </trkpt>
      <trkpt lat="44.06865" lon="3.46275">
        <ele>988.6</ele>
        <time>2021-08-12T17:12:52Z</time>
      </trkpt>
      <trkpt lat="44.06862" lon="3.46254">
        <ele>989.5</ele>
        <time>2021-08-12T17:12:54Z</time>
      </trkpt>
      <trkpt lat="44.06851" lon="3.46239">
        <ele>989.3</ele>
        <time>2021-08-12T17:12:56Z</time>
      </trkpt>
      <trkpt lat="44.06838" lon="3.46229">
        <ele>987.8</ele>
        <time>2021-08-12T17:12:58Z</time>
      </trkpt>
      <trkpt lat="44.06823" lon="3.46222">
        <ele>986.6</ele>
        <time>2021-08-12T17:13:00Z</time>
      </trkpt>
      <trkpt lat="44.0681" lon="3.46216">
        <ele>986</ele>
        <time>2021-08-12T17:13:02Z</time>
      </trkpt>
      <trkpt lat="44.06798" lon="3.46212">
        <ele>984.5</ele>
        <time>2021-08-12T17:13:04Z</time>
      </trkpt>
      <trkpt lat="44.06786" lon="3.46208">
        <ele>983.2</ele>
        <time>2021-08-12T17:13:06Z</time>
      </trkpt>
      <trkpt lat="44.06774" lon="3.46205">
        <ele>981.4</ele>
        <time>2021-08-12T17:13:08Z</time>
      </trkpt>
      <trkpt lat="44.0676" lon="3.46202">
        <ele>979.5</ele>
        <time>2021-08-12T17:13:10Z</time>
      </trkpt>
      <trkpt lat="44.06747" lon="3.46199">
        <ele>977.2</ele>
        <time>2021-08-12T17:13:12Z</time>
      </trkpt>
      <trkpt lat="44.06731" lon="3.46199">
        <ele>973.5</ele>
        <time>2021-08-12T17:13:14Z</time>
      </trkpt>
      <trkpt lat="44.06717" lon="3.46205">
        <ele>968.9</ele>
        <time>2021-08-12T17:13:16Z</time>
      </trkpt>
      <trkpt lat="44.06704" lon="3.46203">
        <ele>966.1</ele>
        <time>2021-08-12T17:13:18Z</time>
      </trkpt>
      <trkpt lat="44.06692" lon="3.46188">
        <ele>965.5</ele>
        <time>2021-08-12T17:13:20Z</time>
      </trkpt>
      <trkpt lat="44.06688" lon="3.46166">
        <ele>966.9</ele>
        <time>2021-08-12T17:13:22Z</time>
      </trkpt>
      <trkpt lat="44.06692" lon="3.46144">
        <ele>968.7</ele>
        <time>2021-08-12T17:13:24Z</time>
      </trkpt>
      <trkpt lat="44.06697" lon="3.46122">
        <ele>971.3</ele>
        <time>2021-08-12T17:13:26Z</time>
      </trkpt>
      <trkpt lat="44.06701" lon="3.46101">
        <ele>973.9</ele>
        <time>2021-08-12T17:13:28Z</time>
      </trkpt>
      <trkpt lat="44.067" lon="3.46079">
        <ele>973.9</ele>
        <time>2021-08-12T17:13:30Z</time>
      </trkpt>
      <trkpt lat="44.06699" lon="3.46056">
        <ele>972.1</ele>
        <time>2021-08-12T17:13:32Z</time>
      </trkpt>
      <trkpt lat="44.06703" lon="3.46033">
        <ele>972.6</ele>
        <time>2021-08-12T17:13:34Z</time>
      </trkpt>
      <trkpt lat="44.06708" lon="3.46012">
        <ele>973.9</ele>
        <time>2021-08-12T17:13:36Z</time>
      </trkpt>
      <trkpt lat="44.06709" lon="3.45989">
        <ele>973.2</ele>
        <time>2021-08-12T17:13:38Z</time>
      </trkpt>
      <trkpt lat="44.06705" lon="3.45967">
        <ele>970.7</ele>
        <time>2021-08-12T17:13:40Z</time>
      </trkpt>
      <trkpt lat="44.067" lon="3.45944">
        <ele>967.7</ele>
        <time>2021-08-12T17:13:42Z</time>
      </trkpt>
      <trkpt lat="44.06698" lon="3.45924">
        <ele>965.8</ele>
        <time>2021-08-12T17:13:44Z</time>
      </trkpt>
      <trkpt lat="44.067" lon="3.45905">
        <ele>964.3</ele>
        <time>2021-08-12T17:13:46Z</time>
      </trkpt>
      <trkpt lat="44.06708" lon="3.45886">
        <ele>963.8</ele>
        <time>2021-08-12T17:13:48Z</time>
      </trkpt>
      <trkpt lat="44.06719" lon="3.45871">
        <ele>965</ele>
        <time>2021-08-12T17:13:50Z</time>
      </trkpt>
      <trkpt lat="44.06732" lon="3.45856">
        <ele>966.5</ele>
        <time>2021-08-12T17:13:52Z</time>
      </trkpt>
      <trkpt lat="44.06744" lon="3.45841">
        <ele>967.5</ele>
        <time>2021-08-12T17:13:54Z</time>
      </trkpt>
      <trkpt lat="44.06756" lon="3.45824">
        <ele>966.4</ele>
        <time>2021-08-12T17:13:56Z</time>
      </trkpt>
      <trkpt lat="44.06769" lon="3.45808">
        <ele>964.6</ele>
        <time>2021-08-12T17:13:58Z</time>
      </trkpt>
      <trkpt lat="44.06782" lon="3.45792">
        <ele>963.1</ele>
        <time>2021-08-12T17:14:00Z</time>
      </trkpt>
      <trkpt lat="44.06795" lon="3.45775">
        <ele>961.6</ele>
        <time>2021-08-12T17:14:02Z</time>
      </trkpt>
      <trkpt lat="44.06807" lon="3.45758">
        <ele>960.2</ele>
        <time>2021-08-12T17:14:04Z</time>
      </trkpt>
      <trkpt lat="44.06819" lon="3.45742">
        <ele>959.2</ele>
        <time>2021-08-12T17:14:06Z</time>
      </trkpt>
      <trkpt lat="44.06831" lon="3.45726">
        <ele>958.8</ele>
        <time>2021-08-12T17:14:08Z</time>
      </trkpt>
      <trkpt lat="44.06843" lon="3.45711">
        <ele>956.7</ele>
        <time>2021-08-12T17:14:10Z</time>
      </trkpt>
      <trkpt lat="44.06856" lon="3.45696">
        <ele>954.1</ele>
        <time>2021-08-12T17:14:12Z</time>
      </trkpt>
      <trkpt lat="44.06869" lon="3.45686">
        <ele>953.1</ele>
        <time>2021-08-12T17:14:14Z</time>
      </trkpt>
      <trkpt lat="44.06884" lon="3.4568">
        <ele>953.7</ele>
        <time>2021-08-12T17:14:16Z</time>
      </trkpt>
      <trkpt lat="44.06901" lon="3.4568">
        <ele>956.6</ele>
        <time>2021-08-12T17:14:18Z</time>
      </trkpt>
      <trkpt lat="44.06917" lon="3.45681">
        <ele>959.5</ele>
        <time>2021-08-12T17:14:20Z</time>
      </trkpt>
      <trkpt lat="44.06932" lon="3.45682">
        <ele>960.2</ele>
        <time>2021-08-12T17:14:22Z</time>
      </trkpt>
      <trkpt lat="44.06948" lon="3.45684">
        <ele>961.5</ele>
        <time>2021-08-12T17:14:24Z</time>
      </trkpt>
      <trkpt lat="44.06962" lon="3.45693">
        <ele>964.6</ele>
        <time>2021-08-12T17:14:26Z</time>
      </trkpt>
      <trkpt lat="44.06976" lon="3.45698">
        <ele>966.2</ele>
        <time>2021-08-12T17:14:28Z</time>
      </trkpt>
      <trkpt lat="44.06992" lon="3.45696">
        <ele>965.9</ele>
        <time>2021-08-12T17:14:30Z</time>
      </trkpt>
      <trkpt lat="44.07007" lon="3.45685">
        <ele>964.2</ele>
        <time>2021-08-12T17:14:32Z</time>
      </trkpt>
      <trkpt lat="44.07022" lon="3.45674">
        <ele>963.8</ele>
        <time>2021-08-12T17:14:34Z</time>
      </trkpt>
      <trkpt lat="44.07035" lon="3.45661">
        <ele>963.3</ele>
        <time>2021-08-12T17:14:36Z</time>
      </trkpt>
      <trkpt lat="44.07047" lon="3.45647">
        <ele>962.4</ele>
        <time>2021-08-12T17:14:38Z</time>
      </trkpt>
      <trkpt lat="44.07053" lon="3.45625">
        <ele>959.8</ele>
        <time>2021-08-12T17:14:40Z</time>
      </trkpt>
      <trkpt lat="44.07056" lon="3.45604">
        <ele>956.2</ele>
        <time>2021-08-12T17:14:42Z</time>
      </trkpt>
      <trkpt lat="44.0706" lon="3.45584">
        <ele>953.7</ele>
        <time>2021-08-12T17:14:44Z</time>
      </trkpt>
      <trkpt lat="44.07067" lon="3.45566">
        <ele>953.3</ele>
        <time>2021-08-12T17:14:46Z</time>
      </trkpt>
      <trkpt lat="44.07075" lon="3.45547">
        <ele>953.2</ele>
        <time>2021-08-12T17:14:48Z</time>
      </trkpt>
      <trkpt lat="44.07083" lon="3.4553">
        <ele>952.7</ele>
        <time>2021-08-12T17:14:50Z</time>
      </trkpt>
      <trkpt lat="44.07087" lon="3.45512">
        <ele>951.7</ele>
        <time>2021-08-12T17:14:52Z</time>
      </trkpt>
      <trkpt lat="44.0709" lon="3.45494">
        <ele>950.3</ele>
        <time>2021-08-12T17:14:54Z</time>
      </trkpt>
      <trkpt lat="44.07093" lon="3.45472">
        <ele>949.1</ele>
        <time>2021-08-12T17:14:56Z</time>
      </trkpt>
      <trkpt lat="44.07098" lon="3.45453">
        <ele>948.4</ele>
        <time>2021-08-12T17:14:58Z</time>
      </trkpt>
      <trkpt lat="44.07106" lon="3.45436">
        <ele>948.4</ele>
        <time>2021-08-12T17:15:00Z</time>
      </trkpt>
      <trkpt lat="44.07113" lon="3.45418">
        <ele>948.3</ele>
        <time>2021-08-12T17:15:02Z</time>
      </trkpt>
      <trkpt lat="44.07121" lon="3.45405">
        <ele>948.7</ele>
        <time>2021-08-12T17:15:04Z</time>
      </trkpt>
      <trkpt lat="44.07129" lon="3.45389">
        <ele>948.5</ele>
        <time>2021-08-12T17:15:06Z</time>
      </trkpt>
      <trkpt lat="44.07135" lon="3.45374">
        <ele>948.2</ele>
        <time>2021-08-12T17:15:08Z</time>
      </trkpt>
      <trkpt lat="44.07143" lon="3.45359">
        <ele>948</ele>
        <time>2021-08-12T17:15:10Z</time>
      </trkpt>
      <trkpt lat="44.07151" lon="3.45344">
        <ele>947.9</ele>
        <time>2021-08-12T17:15:12Z</time>
      </trkpt>
      <trkpt lat="44.07157" lon="3.45328">
        <ele>947.7</ele>
        <time>2021-08-12T17:15:14Z</time>
      </trkpt>
      <trkpt lat="44.07166" lon="3.45313">
        <ele>948.4</ele>
        <time>2021-08-12T17:15:16Z</time>
      </trkpt>
      <trkpt lat="44.07174" lon="3.45298">
        <ele>949.3</ele>
        <time>2021-08-12T17:15:18Z</time>
      </trkpt>
      <trkpt lat="44.07181" lon="3.45282">
        <ele>949.8</ele>
        <time>2021-08-12T17:15:20Z</time>
      </trkpt>
      <trkpt lat="44.07185" lon="3.45265">
        <ele>949.2</ele>
        <time>2021-08-12T17:15:22Z</time>
      </trkpt>
      <trkpt lat="44.07184" lon="3.45245">
        <ele>948.2</ele>
        <time>2021-08-12T17:15:24Z</time>
      </trkpt>
      <trkpt lat="44.07181" lon="3.45225">
        <ele>949.6</ele>
        <time>2021-08-12T17:15:26Z</time>
      </trkpt>
      <trkpt lat="44.07177" lon="3.45207">
        <ele>950.7</ele>
        <time>2021-08-12T17:15:28Z</time>
      </trkpt>
      <trkpt lat="44.07168" lon="3.45192">
        <ele>950.6</ele>
        <time>2021-08-12T17:15:30Z</time>
      </trkpt>
      <trkpt lat="44.07153" lon="3.45185">
        <ele>949.2</ele>
        <time>2021-08-12T17:15:32Z</time>
      </trkpt>
      <trkpt lat="44.07138" lon="3.45189">
        <ele>946.7</ele>
        <time>2021-08-12T17:15:34Z</time>
      </trkpt>
      <trkpt lat="44.07121" lon="3.45191">
        <ele>944.1</ele>
        <time>2021-08-12T17:15:36Z</time>
      </trkpt>
      <trkpt lat="44.07104" lon="3.45195">
        <ele>941.5</ele>
        <time>2021-08-12T17:15:38Z</time>
      </trkpt>
      <trkpt lat="44.07087" lon="3.45196">
        <ele>938.9</ele>
        <time>2021-08-12T17:15:40Z</time>
      </trkpt>
      <trkpt lat="44.0707" lon="3.45196">
        <ele>936.2</ele>
        <time>2021-08-12T17:15:42Z</time>
      </trkpt>
      <trkpt lat="44.07052" lon="3.45198">
        <ele>932.9</ele>
        <time>2021-08-12T17:15:44Z</time>
      </trkpt>
      <trkpt lat="44.07036" lon="3.45205">
        <ele>929.4</ele>
        <time>2021-08-12T17:15:46Z</time>
      </trkpt>
      <trkpt lat="44.0702" lon="3.45208">
        <ele>926.4</ele>
        <time>2021-08-12T17:15:48Z</time>
      </trkpt>
      <trkpt lat="44.07004" lon="3.45206">
        <ele>924</ele>
        <time>2021-08-12T17:15:50Z</time>
      </trkpt>
      <trkpt lat="44.06991" lon="3.45208">
        <ele>921.1</ele>
        <time>2021-08-12T17:15:52Z</time>
      </trkpt>
      <trkpt lat="44.06979" lon="3.45203">
        <ele>918.7</ele>
        <time>2021-08-12T17:15:54Z</time>
      </trkpt>
      <trkpt lat="44.06971" lon="3.45191">
        <ele>917.8</ele>
        <time>2021-08-12T17:15:56Z</time>
      </trkpt>
      <trkpt lat="44.06968" lon="3.45174">
        <ele>918.6</ele>
        <time>2021-08-12T17:15:58Z</time>
      </trkpt>
      <trkpt lat="44.06976" lon="3.45157">
        <ele>919.5</ele>
        <time>2021-08-12T17:16:00Z</time>
      </trkpt>
      <trkpt lat="44.06989" lon="3.45147">
        <ele>921.3</ele>
        <time>2021-08-12T17:16:02Z</time>
      </trkpt>
      <trkpt lat="44.07004" lon="3.45141">
        <ele>923.7</ele>
        <time>2021-08-12T17:16:04Z</time>
      </trkpt>
      <trkpt lat="44.07018" lon="3.45134">
        <ele>925.5</ele>
        <time>2021-08-12T17:16:06Z</time>
      </trkpt>
      <trkpt lat="44.07032" lon="3.45126">
        <ele>927.1</ele>
        <time>2021-08-12T17:16:08Z</time>
      </trkpt>
      <trkpt lat="44.07046" lon="3.45113">
        <ele>928.2</ele>
        <time>2021-08-12T17:16:10Z</time>
      </trkpt>
      <trkpt lat="44.07058" lon="3.45099">
        <ele>929.2</ele>
        <time>2021-08-12T17:16:12Z</time>
      </trkpt>
      <trkpt lat="44.07068" lon="3.45083">
        <ele>929.4</ele>
        <time>2021-08-12T17:16:14Z</time>
      </trkpt>
      <trkpt lat="44.07077" lon="3.45065">
        <ele>929.5</ele>
        <time>2021-08-12T17:16:16Z</time>
      </trkpt>
      <trkpt lat="44.07088" lon="3.4505">
        <ele>930.7</ele>
        <time>2021-08-12T17:16:18Z</time>
      </trkpt>
      <trkpt lat="44.07101" lon="3.45038">
        <ele>933.1</ele>
        <time>2021-08-12T17:16:20Z</time>
      </trkpt>
      <trkpt lat="44.07112" lon="3.45027">
        <ele>935.2</ele>
        <time>2021-08-12T17:16:22Z</time>
      </trkpt>
      <trkpt lat="44.07123" lon="3.45017">
        <ele>937</ele>
        <time>2021-08-12T17:16:24Z</time>
      </trkpt>
      <trkpt lat="44.07133" lon="3.45006">
        <ele>938.3</ele>
        <time>2021-08-12T17:16:26Z</time>
      </trkpt>
      <trkpt lat="44.0714" lon="3.44991">
        <ele>939.5</ele>
        <time>2021-08-12T17:16:28Z</time>
      </trkpt>
      <trkpt lat="44.07149" lon="3.4498">
        <ele>941.9</ele>
        <time>2021-08-12T17:16:30Z</time>
      </trkpt>
      <trkpt lat="44.07149" lon="3.44961">
        <ele>941.9</ele>
        <time>2021-08-12T17:16:32Z</time>
      </trkpt>
      <trkpt lat="44.07141" lon="3.44945">
        <ele>941.2</ele>
        <time>2021-08-12T17:16:34Z</time>
      </trkpt>
      <trkpt lat="44.07128" lon="3.44941">
        <ele>940.2</ele>
        <time>2021-08-12T17:16:36Z</time>
      </trkpt>
      <trkpt lat="44.07114" lon="3.44944">
        <ele>938.6</ele>
        <time>2021-08-12T17:16:38Z</time>
      </trkpt>
      <trkpt lat="44.07099" lon="3.44947">
        <ele>936.7</ele>
        <time>2021-08-12T17:16:40Z</time>
      </trkpt>
      <trkpt lat="44.07085" lon="3.44952">
        <ele>934.2</ele>
        <time>2021-08-12T17:16:42Z</time>
      </trkpt>
      <trkpt lat="44.0707" lon="3.44958">
        <ele>931.1</ele>
        <time>2021-08-12T17:16:44Z</time>
      </trkpt>
      <trkpt lat="44.07056" lon="3.44962">
        <ele>928.2</ele>
        <time>2021-08-12T17:16:46Z</time>
      </trkpt>
      <trkpt lat="44.07041" lon="3.44966">
        <ele>925.5</ele>
        <time>2021-08-12T17:16:48Z</time>
      </trkpt>
      <trkpt lat="44.07026" lon="3.44971">
        <ele>922.4</ele>
        <time>2021-08-12T17:16:50Z</time>
      </trkpt>
      <trkpt lat="44.07011" lon="3.44969">
        <ele>920.8</ele>
        <time>2021-08-12T17:16:52Z</time>
      </trkpt>
      <trkpt lat="44.06996" lon="3.44964">
        <ele>920</ele>
        <time>2021-08-12T17:16:54Z</time>
      </trkpt>
      <trkpt lat="44.0698" lon="3.4496">
        <ele>917.8</ele>
        <time>2021-08-12T17:16:56Z</time>
      </trkpt>
      <trkpt lat="44.06966" lon="3.4495">
        <ele>917.6</ele>
        <time>2021-08-12T17:16:58Z</time>
      </trkpt>
      <trkpt lat="44.06953" lon="3.4494">
        <ele>917.3</ele>
        <time>2021-08-12T17:17:00Z</time>
      </trkpt>
      <trkpt lat="44.0694" lon="3.44928">
        <ele>917.5</ele>
        <time>2021-08-12T17:17:02Z</time>
      </trkpt>
      <trkpt lat="44.06927" lon="3.44918">
        <ele>916.9</ele>
        <time>2021-08-12T17:17:04Z</time>
      </trkpt>
      <trkpt lat="44.06914" lon="3.44908">
        <ele>915.8</ele>
        <time>2021-08-12T17:17:06Z</time>
      </trkpt>
      <trkpt lat="44.06903" lon="3.44898">
        <ele>915.4</ele>
        <time>2021-08-12T17:17:08Z</time>
      </trkpt>
      <trkpt lat="44.06891" lon="3.44888">
        <ele>915.3</ele>
        <time>2021-08-12T17:17:10Z</time>
      </trkpt>
      <trkpt lat="44.06881" lon="3.44876">
        <ele>915.9</ele>
        <time>2021-08-12T17:17:12Z</time>
      </trkpt>
      <trkpt lat="44.06872" lon="3.44864">
        <ele>916.8</ele>
        <time>2021-08-12T17:17:14Z</time>
      </trkpt>
      <trkpt lat="44.06862" lon="3.44854">
        <ele>917.6</ele>
        <time>2021-08-12T17:17:16Z</time>
      </trkpt>
      <trkpt lat="44.06854" lon="3.44844">
        <ele>918.8</ele>
        <time>2021-08-12T17:17:18Z</time>
      </trkpt>
      <trkpt lat="44.06847" lon="3.44833">
        <ele>920.3</ele>
        <time>2021-08-12T17:17:20Z</time>
      </trkpt>
      <trkpt lat="44.0684" lon="3.44819">
        <ele>919.5</ele>
        <time>2021-08-12T17:17:22Z</time>
      </trkpt>
      <trkpt lat="44.06837" lon="3.44803">
        <ele>918.9</ele>
        <time>2021-08-12T17:17:24Z</time>
      </trkpt>
      <trkpt lat="44.06839" lon="3.44786">
        <ele>919</ele>
        <time>2021-08-12T17:17:26Z</time>
      </trkpt>
      <trkpt lat="44.06845" lon="3.44769">
        <ele>919.2</ele>
        <time>2021-08-12T17:17:28Z</time>
      </trkpt>
      <trkpt lat="44.06848" lon="3.44748">
        <ele>919.3</ele>
        <time>2021-08-12T17:17:30Z</time>
      </trkpt>
      <trkpt lat="44.06845" lon="3.44728">
        <ele>920.1</ele>
        <time>2021-08-12T17:17:32Z</time>
      </trkpt>
      <trkpt lat="44.06835" lon="3.44711">
        <ele>920.1</ele>
        <time>2021-08-12T17:17:34Z</time>
      </trkpt>
      <trkpt lat="44.06821" lon="3.44702">
        <ele>918.7</ele>
        <time>2021-08-12T17:17:36Z</time>
      </trkpt>
      <trkpt lat="44.06805" lon="3.44693">
        <ele>916.9</ele>
        <time>2021-08-12T17:17:38Z</time>
      </trkpt>
      <trkpt lat="44.06791" lon="3.44686">
        <ele>915.4</ele>
        <time>2021-08-12T17:17:40Z</time>
      </trkpt>
      <trkpt lat="44.06776" lon="3.44676">
        <ele>913.6</ele>
        <time>2021-08-12T17:17:42Z</time>
      </trkpt>
      <trkpt lat="44.06762" lon="3.44664">
        <ele>911.9</ele>
        <time>2021-08-12T17:17:44Z</time>
      </trkpt>
      <trkpt lat="44.06748" lon="3.44656">
        <ele>910.5</ele>
        <time>2021-08-12T17:17:46Z</time>
      </trkpt>
      <trkpt lat="44.06733" lon="3.4465">
        <ele>909.3</ele>
        <time>2021-08-12T17:17:48Z</time>
      </trkpt>
      <trkpt lat="44.06716" lon="3.44649">
        <ele>907.8</ele>
        <time>2021-08-12T17:17:50Z</time>
      </trkpt>
      <trkpt lat="44.067" lon="3.44649">
        <ele>906.3</ele>
        <time>2021-08-12T17:17:52Z</time>
      </trkpt>
      <trkpt lat="44.06683" lon="3.4465">
        <ele>904.6</ele>
        <time>2021-08-12T17:17:54Z</time>
      </trkpt>
      <trkpt lat="44.06668" lon="3.44648">
        <ele>903.2</ele>
        <time>2021-08-12T17:17:56Z</time>
      </trkpt>
      <trkpt lat="44.06651" lon="3.44644">
        <ele>901.9</ele>
        <time>2021-08-12T17:17:58Z</time>
      </trkpt>
      <trkpt lat="44.06638" lon="3.4464">
        <ele>901</ele>
        <time>2021-08-12T17:18:00Z</time>
      </trkpt>
      <trkpt lat="44.06625" lon="3.44634">
        <ele>900</ele>
        <time>2021-08-12T17:18:02Z</time>
      </trkpt>
      <trkpt lat="44.06612" lon="3.4463">
        <ele>899</ele>
        <time>2021-08-12T17:18:04Z</time>
      </trkpt>
      <trkpt lat="44.066" lon="3.44627">
        <ele>898</ele>
        <time>2021-08-12T17:18:06Z</time>
      </trkpt>
      <trkpt lat="44.06591" lon="3.44625">
        <ele>897.2</ele>
        <time>2021-08-12T17:18:08Z</time>
      </trkpt>
      <trkpt lat="44.0658" lon="3.44624">
        <ele>896.5</ele>
        <time>2021-08-12T17:18:10Z</time>
      </trkpt>
      <trkpt lat="44.06571" lon="3.44629">
        <ele>896.3</ele>
        <time>2021-08-12T17:18:12Z</time>
      </trkpt>
      <trkpt lat="44.06563" lon="3.44634">
        <ele>896</ele>
        <time>2021-08-12T17:18:14Z</time>
      </trkpt>
      <trkpt lat="44.06557" lon="3.44637">
        <ele>895.9</ele>
        <time>2021-08-12T17:18:16Z</time>
      </trkpt>
      <trkpt lat="44.0655" lon="3.44642">
        <ele>895.6</ele>
        <time>2021-08-12T17:18:18Z</time>
      </trkpt>
      <trkpt lat="44.06542" lon="3.44647">
        <ele>895.3</ele>
        <time>2021-08-12T17:18:20Z</time>
      </trkpt>
      <trkpt lat="44.06533" lon="3.4465">
        <ele>895.1</ele>
        <time>2021-08-12T17:18:22Z</time>
      </trkpt>
      <trkpt lat="44.06522" lon="3.44653">
        <ele>894.9</ele>
        <time>2021-08-12T17:18:24Z</time>
      </trkpt>
      <trkpt lat="44.06511" lon="3.44654">
        <ele>894.7</ele>
        <time>2021-08-12T17:18:26Z</time>
      </trkpt>
      <trkpt lat="44.06499" lon="3.44655">
        <ele>894.5</ele>
        <time>2021-08-12T17:18:28Z</time>
      </trkpt>
      <trkpt lat="44.06487" lon="3.44655">
        <ele>893.6</ele>
        <time>2021-08-12T17:18:30Z</time>
      </trkpt>
      <trkpt lat="44.06476" lon="3.44654">
        <ele>892.8</ele>
        <time>2021-08-12T17:18:32Z</time>
      </trkpt>
      <trkpt lat="44.06465" lon="3.44653">
        <ele>892.1</ele>
        <time>2021-08-12T17:18:34Z</time>
      </trkpt>
      <trkpt lat="44.06456" lon="3.4465">
        <ele>891.5</ele>
        <time>2021-08-12T17:18:36Z</time>
      </trkpt>
      <trkpt lat="44.06449" lon="3.44647">
        <ele>891.1</ele>
        <time>2021-08-12T17:18:38Z</time>
      </trkpt>
      <trkpt lat="44.06443" lon="3.44644">
        <ele>890.8</ele>
        <time>2021-08-12T17:18:40Z</time>
      </trkpt>
      <trkpt lat="44.06437" lon="3.44643">
        <ele>890.4</ele>
        <time>2021-08-12T17:18:42Z</time>
      </trkpt>
      <trkpt lat="44.06434" lon="3.44649">
        <ele>889.9</ele>
        <time>2021-08-12T17:18:44Z</time>
      </trkpt>
      <trkpt lat="44.06433" lon="3.44655">
        <ele>889.6</ele>
        <time>2021-08-12T17:18:46Z</time>
      </trkpt>
      <trkpt lat="44.06433" lon="3.4466">
        <ele>889.4</ele>
        <time>2021-08-12T17:18:48Z</time>
      </trkpt>
      <trkpt lat="44.06433" lon="3.4466">
        <ele>889.4</ele>
        <time>2021-08-12T17:18:50Z</time>
      </trkpt>
      <trkpt lat="44.06433" lon="3.4466">
        <ele>889.4</ele>
        <time>2021-08-12T17:18:52Z</time>
      </trkpt>
      <trkpt lat="44.06432" lon="3.4466">
        <ele>889.4</ele>
        <time>2021-08-12T17:18:54Z</time>
      </trkpt>
      <trkpt lat="44.06432" lon="3.4466">
        <ele>889.4</ele>
        <time>2021-08-12T17:18:56Z</time>
      </trkpt>
      <trkpt lat="44.06433" lon="3.4466">
        <ele>889.4</ele>
        <time>2021-08-12T17:18:58Z</time>
      </trkpt>
      <trkpt lat="44.06433" lon="3.44687">
        <ele>888.4</ele>
        <time>2021-08-12T17:20:12Z</time>
      </trkpt>
      <trkpt lat="44.06433" lon="3.44696">
        <ele>888</ele>
        <time>2021-08-12T17:20:14Z</time>
      </trkpt>
      <trkpt lat="44.06433" lon="3.44705">
        <ele>887.6</ele>
        <time>2021-08-12T17:20:16Z</time>
      </trkpt>
      <trkpt lat="44.06429" lon="3.44712">
        <ele>887</ele>
        <time>2021-08-12T17:20:18Z</time>
      </trkpt>
      <trkpt lat="44.06424" lon="3.44717">
        <ele>886.2</ele>
        <time>2021-08-12T17:20:20Z</time>
      </trkpt>
      <trkpt lat="44.06419" lon="3.44722">
        <ele>885.6</ele>
        <time>2021-08-12T17:20:22Z</time>
      </trkpt>
      <trkpt lat="44.06415" lon="3.4473">
        <ele>884.6</ele>
        <time>2021-08-12T17:20:24Z</time>
      </trkpt>
      <trkpt lat="44.06411" lon="3.44739">
        <ele>883.5</ele>
        <time>2021-08-12T17:20:26Z</time>
      </trkpt>
      <trkpt lat="44.0641" lon="3.44751">
        <ele>882.8</ele>
        <time>2021-08-12T17:20:28Z</time>
      </trkpt>
      <trkpt lat="44.06411" lon="3.44764">
        <ele>883.4</ele>
        <time>2021-08-12T17:20:30Z</time>
      </trkpt>
      <trkpt lat="44.06412" lon="3.44776">
        <ele>884.1</ele>
        <time>2021-08-12T17:20:32Z</time>
      </trkpt>
      <trkpt lat="44.06411" lon="3.44788">
        <ele>884.2</ele>
        <time>2021-08-12T17:20:34Z</time>
      </trkpt>
      <trkpt lat="44.06403" lon="3.44797">
        <ele>883</ele>
        <time>2021-08-12T17:20:36Z</time>
      </trkpt>
      <trkpt lat="44.0639" lon="3.44797">
        <ele>880.4</ele>
        <time>2021-08-12T17:20:38Z</time>
      </trkpt>
      <trkpt lat="44.06377" lon="3.44803">
        <ele>877.9</ele>
        <time>2021-08-12T17:20:40Z</time>
      </trkpt>
      <trkpt lat="44.06365" lon="3.44805">
        <ele>875.6</ele>
        <time>2021-08-12T17:20:42Z</time>
      </trkpt>
      <trkpt lat="44.06353" lon="3.44809">
        <ele>873.4</ele>
        <time>2021-08-12T17:20:44Z</time>
      </trkpt>
      <trkpt lat="44.06343" lon="3.44817">
        <ele>871.6</ele>
        <time>2021-08-12T17:20:46Z</time>
      </trkpt>
      <trkpt lat="44.06335" lon="3.44827">
        <ele>870.2</ele>
        <time>2021-08-12T17:20:48Z</time>
      </trkpt>
      <trkpt lat="44.06328" lon="3.44838">
        <ele>868.6</ele>
        <time>2021-08-12T17:20:50Z</time>
      </trkpt>
      <trkpt lat="44.0632" lon="3.44849">
        <ele>866.5</ele>
        <time>2021-08-12T17:20:52Z</time>
      </trkpt>
      <trkpt lat="44.06314" lon="3.44858">
        <ele>864.9</ele>
        <time>2021-08-12T17:20:54Z</time>
      </trkpt>
      <trkpt lat="44.0631" lon="3.4487">
        <ele>863.8</ele>
        <time>2021-08-12T17:20:56Z</time>
      </trkpt>
      <trkpt lat="44.0631" lon="3.44883">
        <ele>863.2</ele>
        <time>2021-08-12T17:20:58Z</time>
      </trkpt>
      <trkpt lat="44.06314" lon="3.44896">
        <ele>863.4</ele>
        <time>2021-08-12T17:21:00Z</time>
      </trkpt>
      <trkpt lat="44.06324" lon="3.44904">
        <ele>864.4</ele>
        <time>2021-08-12T17:21:02Z</time>
      </trkpt>
      <trkpt lat="44.06335" lon="3.44911">
        <ele>865.6</ele>
        <time>2021-08-12T17:21:04Z</time>
      </trkpt>
      <trkpt lat="44.06348" lon="3.44919">
        <ele>866.4</ele>
        <time>2021-08-12T17:21:06Z</time>
      </trkpt>
      <trkpt lat="44.06363" lon="3.44928">
        <ele>867.2</ele>
        <time>2021-08-12T17:21:08Z</time>
      </trkpt>
      <trkpt lat="44.06378" lon="3.44936">
        <ele>867.9</ele>
        <time>2021-08-12T17:21:10Z</time>
      </trkpt>
      <trkpt lat="44.06392" lon="3.44943">
        <ele>868.5</ele>
        <time>2021-08-12T17:21:12Z</time>
      </trkpt>
      <trkpt lat="44.06406" lon="3.44947">
        <ele>869.1</ele>
        <time>2021-08-12T17:21:14Z</time>
      </trkpt>
      <trkpt lat="44.06416" lon="3.44952">
        <ele>869.3</ele>
        <time>2021-08-12T17:21:16Z</time>
      </trkpt>
      <trkpt lat="44.0643" lon="3.44954">
        <ele>870</ele>
        <time>2021-08-12T17:21:18Z</time>
      </trkpt>
      <trkpt lat="44.06441" lon="3.44952">
        <ele>871.1</ele>
        <time>2021-08-12T17:21:20Z</time>
      </trkpt>
      <trkpt lat="44.06452" lon="3.44953">
        <ele>871.8</ele>
        <time>2021-08-12T17:21:22Z</time>
      </trkpt>
      <trkpt lat="44.06461" lon="3.44954">
        <ele>872.3</ele>
        <time>2021-08-12T17:21:24Z</time>
      </trkpt>
      <trkpt lat="44.0647" lon="3.44957">
        <ele>872.5</ele>
        <time>2021-08-12T17:21:26Z</time>
      </trkpt>
      <trkpt lat="44.06479" lon="3.4496">
        <ele>872.7</ele>
        <time>2021-08-12T17:21:28Z</time>
      </trkpt>
      <trkpt lat="44.06487" lon="3.44965">
        <ele>872.6</ele>
        <time>2021-08-12T17:21:30Z</time>
      </trkpt>
      <trkpt lat="44.06491" lon="3.44978">
        <ele>870.8</ele>
        <time>2021-08-12T17:21:32Z</time>
      </trkpt>
      <trkpt lat="44.06491" lon="3.44995">
        <ele>868.2</ele>
        <time>2021-08-12T17:21:34Z</time>
      </trkpt>
      <trkpt lat="44.06489" lon="3.4501">
        <ele>871</ele>
        <time>2021-08-12T17:21:36Z</time>
      </trkpt>
      <trkpt lat="44.06485" lon="3.45022">
        <ele>875.2</ele>
        <time>2021-08-12T17:21:38Z</time>
      </trkpt>
      <trkpt lat="44.06476" lon="3.45026">
        <ele>876.3</ele>
        <time>2021-08-12T17:21:40Z</time>
      </trkpt>
      <trkpt lat="44.06468" lon="3.45026">
        <ele>876.1</ele>
        <time>2021-08-12T17:21:42Z</time>
      </trkpt>
      <trkpt lat="44.06459" lon="3.45027">
        <ele>875.9</ele>
        <time>2021-08-12T17:21:44Z</time>
      </trkpt>
      <trkpt lat="44.0645" lon="3.45024">
        <ele>874.7</ele>
        <time>2021-08-12T17:21:46Z</time>
      </trkpt>
      <trkpt lat="44.06442" lon="3.45026">
        <ele>875.1</ele>
        <time>2021-08-12T17:21:48Z</time>
      </trkpt>
      <trkpt lat="44.06434" lon="3.45026">
        <ele>874.8</ele>
        <time>2021-08-12T17:21:50Z</time>
      </trkpt>
      <trkpt lat="44.06427" lon="3.45026">
        <ele>874.4</ele>
        <time>2021-08-12T17:21:52Z</time>
      </trkpt>
      <trkpt lat="44.06421" lon="3.45028">
        <ele>874.9</ele>
        <time>2021-08-12T17:21:54Z</time>
      </trkpt>
      <trkpt lat="44.06414" lon="3.45028">
        <ele>874.6</ele>
        <time>2021-08-12T17:21:56Z</time>
      </trkpt>
      <trkpt lat="44.06408" lon="3.45029">
        <ele>874.7</ele>
        <time>2021-08-12T17:21:58Z</time>
      </trkpt>
      <trkpt lat="44.06402" lon="3.45027">
        <ele>873.7</ele>
        <time>2021-08-12T17:22:00Z</time>
      </trkpt>
      <trkpt lat="44.06397" lon="3.45028">
        <ele>874.2</ele>
        <time>2021-08-12T17:22:02Z</time>
      </trkpt>
      <trkpt lat="44.0639" lon="3.45028">
        <ele>873.8</ele>
        <time>2021-08-12T17:22:04Z</time>
      </trkpt>
      <trkpt lat="44.06385" lon="3.45029">
        <ele>874.2</ele>
        <time>2021-08-12T17:22:06Z</time>
      </trkpt>
      <trkpt lat="44.0638" lon="3.45029">
        <ele>873.8</ele>
        <time>2021-08-12T17:22:08Z</time>
      </trkpt>
      <trkpt lat="44.06374" lon="3.4503">
        <ele>874</ele>
        <time>2021-08-12T17:22:10Z</time>
      </trkpt>
      <trkpt lat="44.06368" lon="3.45029">
        <ele>873.6</ele>
        <time>2021-08-12T17:22:12Z</time>
      </trkpt>
      <trkpt lat="44.06363" lon="3.45029">
        <ele>873</ele>
        <time>2021-08-12T17:22:14Z</time>
      </trkpt>
      <trkpt lat="44.06357" lon="3.45029">
        <ele>873.1</ele>
        <time>2021-08-12T17:22:16Z</time>
      </trkpt>
      <trkpt lat="44.06352" lon="3.4503">
        <ele>873.1</ele>
        <time>2021-08-12T17:22:18Z</time>
      </trkpt>
      <trkpt lat="44.06348" lon="3.4503">
        <ele>873</ele>
        <time>2021-08-12T17:22:20Z</time>
      </trkpt>
      <trkpt lat="44.06343" lon="3.4503">
        <ele>872.9</ele>
        <time>2021-08-12T17:22:22Z</time>
      </trkpt>
      <trkpt lat="44.06338" lon="3.4503">
        <ele>873</ele>
        <time>2021-08-12T17:22:24Z</time>
      </trkpt>
      <trkpt lat="44.06333" lon="3.45032">
        <ele>873.4</ele>
        <time>2021-08-12T17:22:26Z</time>
      </trkpt>
      <trkpt lat="44.06327" lon="3.45033">
        <ele>874</ele>
        <time>2021-08-12T17:22:28Z</time>
      </trkpt>
      <trkpt lat="44.06321" lon="3.45034">
        <ele>874.1</ele>
        <time>2021-08-12T17:22:30Z</time>
      </trkpt>
      <trkpt lat="44.06314" lon="3.45035">
        <ele>874.7</ele>
        <time>2021-08-12T17:22:32Z</time>
      </trkpt>
      <trkpt lat="44.06307" lon="3.45037">
        <ele>875.6</ele>
        <time>2021-08-12T17:22:34Z</time>
      </trkpt>
      <trkpt lat="44.063" lon="3.45039">
        <ele>876.2</ele>
        <time>2021-08-12T17:22:36Z</time>
      </trkpt>
      <trkpt lat="44.06292" lon="3.45039">
        <ele>876.5</ele>
        <time>2021-08-12T17:22:38Z</time>
      </trkpt>
      <trkpt lat="44.06285" lon="3.45041">
        <ele>877.4</ele>
        <time>2021-08-12T17:22:40Z</time>
      </trkpt>
      <trkpt lat="44.06277" lon="3.45044">
        <ele>878.4</ele>
        <time>2021-08-12T17:22:42Z</time>
      </trkpt>
      <trkpt lat="44.06269" lon="3.45043">
        <ele>878.3</ele>
        <time>2021-08-12T17:22:44Z</time>
      </trkpt>
      <trkpt lat="44.0626" lon="3.45043">
        <ele>877.9</ele>
        <time>2021-08-12T17:22:46Z</time>
      </trkpt>
      <trkpt lat="44.06251" lon="3.4504">
        <ele>876.8</ele>
        <time>2021-08-12T17:22:48Z</time>
      </trkpt>
      <trkpt lat="44.06242" lon="3.45037">
        <ele>875.2</ele>
        <time>2021-08-12T17:22:50Z</time>
      </trkpt>
      <trkpt lat="44.06233" lon="3.45032">
        <ele>873</ele>
        <time>2021-08-12T17:22:52Z</time>
      </trkpt>
      <trkpt lat="44.06225" lon="3.45029">
        <ele>871.3</ele>
        <time>2021-08-12T17:22:54Z</time>
      </trkpt>
      <trkpt lat="44.06216" lon="3.45027">
        <ele>870.5</ele>
        <time>2021-08-12T17:22:56Z</time>
      </trkpt>
      <trkpt lat="44.06208" lon="3.4503">
        <ele>871.1</ele>
        <time>2021-08-12T17:22:58Z</time>
      </trkpt>
      <trkpt lat="44.06201" lon="3.45037">
        <ele>873.6</ele>
        <time>2021-08-12T17:23:00Z</time>
      </trkpt>
      <trkpt lat="44.06193" lon="3.45045">
        <ele>876.5</ele>
        <time>2021-08-12T17:23:02Z</time>
      </trkpt>
      <trkpt lat="44.06183" lon="3.45049">
        <ele>877.3</ele>
        <time>2021-08-12T17:23:04Z</time>
      </trkpt>
      <trkpt lat="44.06174" lon="3.45051">
        <ele>877.7</ele>
        <time>2021-08-12T17:23:06Z</time>
      </trkpt>
      <trkpt lat="44.06164" lon="3.45051">
        <ele>876.9</ele>
        <time>2021-08-12T17:23:08Z</time>
      </trkpt>
      <trkpt lat="44.06153" lon="3.45046">
        <ele>874.3</ele>
        <time>2021-08-12T17:23:10Z</time>
      </trkpt>
      <trkpt lat="44.06144" lon="3.45038">
        <ele>870.7</ele>
        <time>2021-08-12T17:23:12Z</time>
      </trkpt>
      <trkpt lat="44.06135" lon="3.4503">
        <ele>867.6</ele>
        <time>2021-08-12T17:23:14Z</time>
      </trkpt>
      <trkpt lat="44.06124" lon="3.4503">
        <ele>866.8</ele>
        <time>2021-08-12T17:23:16Z</time>
      </trkpt>
      <trkpt lat="44.06114" lon="3.45036">
        <ele>867.6</ele>
        <time>2021-08-12T17:23:18Z</time>
      </trkpt>
      <trkpt lat="44.06105" lon="3.45045">
        <ele>868.9</ele>
        <time>2021-08-12T17:23:20Z</time>
      </trkpt>
      <trkpt lat="44.06097" lon="3.45054">
        <ele>870.1</ele>
        <time>2021-08-12T17:23:22Z</time>
      </trkpt>
      <trkpt lat="44.06089" lon="3.45063">
        <ele>870.9</ele>
        <time>2021-08-12T17:23:24Z</time>
      </trkpt>
      <trkpt lat="44.06081" lon="3.45071">
        <ele>871.8</ele>
        <time>2021-08-12T17:23:26Z</time>
      </trkpt>
      <trkpt lat="44.06075" lon="3.4508">
        <ele>873.8</ele>
        <time>2021-08-12T17:23:28Z</time>
      </trkpt>
      <trkpt lat="44.0607" lon="3.45087">
        <ele>875.7</ele>
        <time>2021-08-12T17:23:30Z</time>
      </trkpt>
      <trkpt lat="44.06065" lon="3.45097">
        <ele>878.3</ele>
        <time>2021-08-12T17:23:32Z</time>
      </trkpt>
      <trkpt lat="44.0606" lon="3.45106">
        <ele>880.4</ele>
        <time>2021-08-12T17:23:34Z</time>
      </trkpt>
      <trkpt lat="44.06055" lon="3.45116">
        <ele>882.3</ele>
        <time>2021-08-12T17:23:36Z</time>
      </trkpt>
      <trkpt lat="44.06049" lon="3.45125">
        <ele>883.5</ele>
        <time>2021-08-12T17:23:38Z</time>
      </trkpt>
      <trkpt lat="44.06044" lon="3.45135">
        <ele>884.6</ele>
        <time>2021-08-12T17:23:40Z</time>
      </trkpt>
      <trkpt lat="44.06036" lon="3.45144">
        <ele>884.8</ele>
        <time>2021-08-12T17:23:42Z</time>
      </trkpt>
      <trkpt lat="44.06025" lon="3.45148">
        <ele>883.2</ele>
        <time>2021-08-12T17:23:44Z</time>
      </trkpt>
      <trkpt lat="44.06015" lon="3.45143">
        <ele>880.8</ele>
        <time>2021-08-12T17:23:46Z</time>
      </trkpt>
      <trkpt lat="44.06007" lon="3.45133">
        <ele>879</ele>
        <time>2021-08-12T17:23:48Z</time>
      </trkpt>
      <trkpt lat="44.06002" lon="3.45122">
        <ele>878.2</ele>
        <time>2021-08-12T17:23:50Z</time>
      </trkpt>
      <trkpt lat="44.06005" lon="3.45108">
        <ele>878.2</ele>
        <time>2021-08-12T17:23:52Z</time>
      </trkpt>
      <trkpt lat="44.06009" lon="3.45095">
        <ele>878</ele>
        <time>2021-08-12T17:23:54Z</time>
      </trkpt>
      <trkpt lat="44.06011" lon="3.45081">
        <ele>877.6</ele>
        <time>2021-08-12T17:23:56Z</time>
      </trkpt>
      <trkpt lat="44.06015" lon="3.4507">
        <ele>877.9</ele>
        <time>2021-08-12T17:23:58Z</time>
      </trkpt>
      <trkpt lat="44.06022" lon="3.45064">
        <ele>877.3</ele>
        <time>2021-08-12T17:24:00Z</time>
      </trkpt>
      <trkpt lat="44.06027" lon="3.4506">
        <ele>876.8</ele>
        <time>2021-08-12T17:24:02Z</time>
      </trkpt>
      <trkpt lat="44.06028" lon="3.45056">
        <ele>876.6</ele>
        <time>2021-08-12T17:24:04Z</time>
      </trkpt>
      <trkpt lat="44.06029" lon="3.45053">
        <ele>876.5</ele>
        <time>2021-08-12T17:24:06Z</time>
      </trkpt>
      <trkpt lat="44.0603" lon="3.45049">
        <ele>876.3</ele>
        <time>2021-08-12T17:24:08Z</time>
      </trkpt>
      <trkpt lat="44.06031" lon="3.45045">
        <ele>876.1</ele>
        <time>2021-08-12T17:24:10Z</time>
      </trkpt>
      <trkpt lat="44.06033" lon="3.45039">
        <ele>875.7</ele>
        <time>2021-08-12T17:24:12Z</time>
      </trkpt>
      <trkpt lat="44.06033" lon="3.45033">
        <ele>875.5</ele>
        <time>2021-08-12T17:24:14Z</time>
      </trkpt>
      <trkpt lat="44.06035" lon="3.45027">
        <ele>875</ele>
        <time>2021-08-12T17:24:16Z</time>
      </trkpt>
      <trkpt lat="44.06036" lon="3.45019">
        <ele>874.4</ele>
        <time>2021-08-12T17:24:18Z</time>
      </trkpt>
      <trkpt lat="44.06038" lon="3.45012">
        <ele>873.5</ele>
        <time>2021-08-12T17:24:20Z</time>
      </trkpt>
      <trkpt lat="44.0604" lon="3.45003">
        <ele>872.7</ele>
        <time>2021-08-12T17:24:22Z</time>
      </trkpt>
      <trkpt lat="44.06043" lon="3.44994">
        <ele>871.5</ele>
        <time>2021-08-12T17:24:24Z</time>
      </trkpt>
      <trkpt lat="44.06047" lon="3.44986">
        <ele>870.3</ele>
        <time>2021-08-12T17:24:26Z</time>
      </trkpt>
      <trkpt lat="44.06048" lon="3.44978">
        <ele>869.8</ele>
        <time>2021-08-12T17:24:28Z</time>
      </trkpt>
      <trkpt lat="44.06047" lon="3.44971">
        <ele>870.2</ele>
        <time>2021-08-12T17:24:30Z</time>
      </trkpt>
      <trkpt lat="44.06047" lon="3.44964">
        <ele>870.2</ele>
        <time>2021-08-12T17:24:32Z</time>
      </trkpt>
      <trkpt lat="44.06046" lon="3.44957">
        <ele>870.7</ele>
        <time>2021-08-12T17:24:34Z</time>
      </trkpt>
      <trkpt lat="44.06046" lon="3.44949">
        <ele>870.8</ele>
        <time>2021-08-12T17:24:36Z</time>
      </trkpt>
      <trkpt lat="44.06046" lon="3.44944">
        <ele>870.6</ele>
        <time>2021-08-12T17:24:38Z</time>
      </trkpt>
      <trkpt lat="44.06047" lon="3.44942">
        <ele>870.3</ele>
        <time>2021-08-12T17:24:40Z</time>
      </trkpt>
      <trkpt lat="44.06047" lon="3.44942">
        <ele>870.1</ele>
        <time>2021-08-12T17:24:42Z</time>
      </trkpt>
      <trkpt lat="44.06047" lon="3.44942">
        <ele>870.2</ele>
        <time>2021-08-12T17:24:44Z</time>
      </trkpt>
      <trkpt lat="44.06047" lon="3.44942">
        <ele>870.1</ele>
        <time>2021-08-12T17:24:46Z</time>
      </trkpt>
      <trkpt lat="44.06048" lon="3.44942">
        <ele>870</ele>
        <time>2021-08-12T17:24:48Z</time>
      </trkpt>
      <trkpt lat="44.06048" lon="3.4493">
        <ele>869.6</ele>
        <time>2021-08-12T17:26:56Z</time>
      </trkpt>
      <trkpt lat="44.06049" lon="3.44926">
        <ele>869.2</ele>
        <time>2021-08-12T17:26:58Z</time>
      </trkpt>
      <trkpt lat="44.0605" lon="3.44922">
        <ele>869</ele>
        <time>2021-08-12T17:27:00Z</time>
      </trkpt>
      <trkpt lat="44.06049" lon="3.44918">
        <ele>869.2</ele>
        <time>2021-08-12T17:27:02Z</time>
      </trkpt>
      <trkpt lat="44.06049" lon="3.44916">
        <ele>869.2</ele>
        <time>2021-08-12T17:27:04Z</time>
      </trkpt>
      <trkpt lat="44.06049" lon="3.44917">
        <ele>869.1</ele>
        <time>2021-08-12T17:27:06Z</time>
      </trkpt>
      <trkpt lat="44.06049" lon="3.44918">
        <ele>869.1</ele>
        <time>2021-08-12T17:27:08Z</time>
      </trkpt>
      <trkpt lat="44.06049" lon="3.44918">
        <ele>869.6</ele>
        <time>2021-08-12T17:27:10Z</time>
      </trkpt>
      <trkpt lat="44.06048" lon="3.44917">
        <ele>869.8</ele>
        <time>2021-08-12T17:27:12Z</time>
      </trkpt>
      <trkpt lat="44.06046" lon="3.44916">
        <ele>870.8</ele>
        <time>2021-08-12T17:27:14Z</time>
      </trkpt>
      <trkpt lat="44.06044" lon="3.44912">
        <ele>871.8</ele>
        <time>2021-08-12T17:27:16Z</time>
      </trkpt>
      <trkpt lat="44.06045" lon="3.44908">
        <ele>871.5</ele>
        <time>2021-08-12T17:27:18Z</time>
      </trkpt>
      <trkpt lat="44.06046" lon="3.44907">
        <ele>871.4</ele>
        <time>2021-08-12T17:27:20Z</time>
      </trkpt>
      <trkpt lat="44.06045" lon="3.44904">
        <ele>871.7</ele>
        <time>2021-08-12T17:27:22Z</time>
      </trkpt>
      <trkpt lat="44.06046" lon="3.44905">
        <ele>871.3</ele>
        <time>2021-08-12T17:27:24Z</time>
      </trkpt>
      <trkpt lat="44.06046" lon="3.44905">
        <ele>871.3</ele>
        <time>2021-08-12T17:27:26Z</time>
      </trkpt>
    </trkseg>
      <trkpt lat="44.06051" lon="3.44972">
        <ele>868.7</ele>
        <time>2021-08-14T07:20:27Z</time>
      </trkpt>
      <trkpt lat="44.0605" lon="3.44975">
        <ele>869</ele>
        <time>2021-08-14T07:20:29Z</time>
      </trkpt>
      <trkpt lat="44.06051" lon="3.44974">
        <ele>868.8</ele>
        <time>2021-08-14T07:20:31Z</time>
      </trkpt>
      <trkpt lat="44.06051" lon="3.44974">
        <ele>868.6</ele>
        <time>2021-08-14T07:20:33Z</time>
      </trkpt>
      <trkpt lat="44.06051" lon="3.44974">
        <ele>868.5</ele>
        <time>2021-08-14T07:20:35Z</time>
      </trkpt>
      <trkpt lat="44.06052" lon="3.44976">
        <ele>868.2</ele>
        <time>2021-08-14T07:20:37Z</time>
      </trkpt>
      <trkpt lat="44.06054" lon="3.44981">
        <ele>867.8</ele>
        <time>2021-08-14T07:20:39Z</time>
      </trkpt>
      <trkpt lat="44.06054" lon="3.44983">
        <ele>867.7</ele>
        <time>2021-08-14T07:20:41Z</time>
      </trkpt>
      <trkpt lat="44.06052" lon="3.44986">
        <ele>868.3</ele>
        <time>2021-08-14T07:20:43Z</time>
      </trkpt>
      <trkpt lat="44.06051" lon="3.4499">
        <ele>868.9</ele>
        <time>2021-08-14T07:20:45Z</time>
      </trkpt>
      <trkpt lat="44.06049" lon="3.44993">
        <ele>869.5</ele>
        <time>2021-08-14T07:20:47Z</time>
      </trkpt>
      <trkpt lat="44.06047" lon="3.44996">
        <ele>870.1</ele>
        <time>2021-08-14T07:20:49Z</time>
      </trkpt>
      <trkpt lat="44.06045" lon="3.45">
        <ele>870.8</ele>
        <time>2021-08-14T07:20:51Z</time>
      </trkpt>
      <trkpt lat="44.06044" lon="3.45004">
        <ele>871.5</ele>
        <time>2021-08-14T07:20:53Z</time>
      </trkpt>
      <trkpt lat="44.06042" lon="3.45007">
        <ele>872.1</ele>
        <time>2021-08-14T07:20:55Z</time>
      </trkpt>
      <trkpt lat="44.06041" lon="3.45011">
        <ele>872.7</ele>
        <time>2021-08-14T07:20:57Z</time>
      </trkpt>
      <trkpt lat="44.0604" lon="3.45015">
        <ele>873.2</ele>
        <time>2021-08-14T07:20:59Z</time>
      </trkpt>
      <trkpt lat="44.06039" lon="3.45018">
        <ele>873.7</ele>
        <time>2021-08-14T07:21:01Z</time>
      </trkpt>
      <trkpt lat="44.06037" lon="3.45022">
        <ele>874.2</ele>
        <time>2021-08-14T07:21:03Z</time>
      </trkpt>
      <trkpt lat="44.06037" lon="3.45026">
        <ele>874.5</ele>
        <time>2021-08-14T07:21:05Z</time>
      </trkpt>
      <trkpt lat="44.06035" lon="3.45029">
        <ele>875</ele>
        <time>2021-08-14T07:21:07Z</time>
      </trkpt>
      <trkpt lat="44.06034" lon="3.45033">
        <ele>875.3</ele>
        <time>2021-08-14T07:21:09Z</time>
      </trkpt>
      <trkpt lat="44.06033" lon="3.45036">
        <ele>875.6</ele>
        <time>2021-08-14T07:21:11Z</time>
      </trkpt>
      <trkpt lat="44.06032" lon="3.4504">
        <ele>875.8</ele>
        <time>2021-08-14T07:21:13Z</time>
      </trkpt>
      <trkpt lat="44.06032" lon="3.45043">
        <ele>875.9</ele>
        <time>2021-08-14T07:21:15Z</time>
      </trkpt>
      <trkpt lat="44.06029" lon="3.45045">
        <ele>876.5</ele>
        <time>2021-08-14T07:21:17Z</time>
      </trkpt>
      <trkpt lat="44.06026" lon="3.45045">
        <ele>876.9</ele>
        <time>2021-08-14T07:21:19Z</time>
      </trkpt>
      <trkpt lat="44.06025" lon="3.45043">
        <ele>877.3</ele>
        <time>2021-08-14T07:21:21Z</time>
      </trkpt>
      <trkpt lat="44.06024" lon="3.45038">
        <ele>877.5</ele>
        <time>2021-08-14T07:21:23Z</time>
      </trkpt>
      <trkpt lat="44.06025" lon="3.45034">
        <ele>877.2</ele>
        <time>2021-08-14T07:21:25Z</time>
      </trkpt>
      <trkpt lat="44.06026" lon="3.4503">
        <ele>877.1</ele>
        <time>2021-08-14T07:21:27Z</time>
      </trkpt>
      <trkpt lat="44.06026" lon="3.45025">
        <ele>877.2</ele>
        <time>2021-08-14T07:21:29Z</time>
      </trkpt>
      <trkpt lat="44.06027" lon="3.4502">
        <ele>876.8</ele>
        <time>2021-08-14T07:21:31Z</time>
      </trkpt>
      <trkpt lat="44.06028" lon="3.45014">
        <ele>876.6</ele>
        <time>2021-08-14T07:21:33Z</time>
      </trkpt>
      <trkpt lat="44.0603" lon="3.45008">
        <ele>876.1</ele>
        <time>2021-08-14T07:21:35Z</time>
      </trkpt>
      <trkpt lat="44.0603" lon="3.45001">
        <ele>876</ele>
        <time>2021-08-14T07:21:37Z</time>
      </trkpt>
      <trkpt lat="44.06031" lon="3.44993">
        <ele>875.8</ele>
        <time>2021-08-14T07:21:39Z</time>
      </trkpt>
      <trkpt lat="44.06031" lon="3.44986">
        <ele>875.9</ele>
        <time>2021-08-14T07:21:41Z</time>
      </trkpt>
      <trkpt lat="44.06031" lon="3.44979">
        <ele>876.3</ele>
        <time>2021-08-14T07:21:43Z</time>
      </trkpt>
      <trkpt lat="44.06032" lon="3.44972">
        <ele>876.3</ele>
        <time>2021-08-14T07:21:45Z</time>
      </trkpt>
      <trkpt lat="44.06032" lon="3.44965">
        <ele>876.4</ele>
        <time>2021-08-14T07:21:47Z</time>
      </trkpt>
      <trkpt lat="44.06031" lon="3.44958">
        <ele>877.1</ele>
        <time>2021-08-14T07:21:49Z</time>
      </trkpt>
      <trkpt lat="44.06031" lon="3.4495">
        <ele>877.3</ele>
        <time>2021-08-14T07:21:51Z</time>
      </trkpt>
      <trkpt lat="44.06031" lon="3.44944">
        <ele>877.6</ele>
        <time>2021-08-14T07:21:53Z</time>
      </trkpt>
      <trkpt lat="44.0603" lon="3.44936">
        <ele>878.1</ele>
        <time>2021-08-14T07:21:55Z</time>
      </trkpt>
      <trkpt lat="44.06029" lon="3.44929">
        <ele>878.7</ele>
        <time>2021-08-14T07:21:57Z</time>
      </trkpt>
      <trkpt lat="44.0603" lon="3.44922">
        <ele>878.9</ele>
        <time>2021-08-14T07:21:59Z</time>
      </trkpt>
      <trkpt lat="44.0603" lon="3.44915">
        <ele>878.9</ele>
        <time>2021-08-14T07:22:01Z</time>
      </trkpt>
      <trkpt lat="44.0603" lon="3.44908">
        <ele>879.4</ele>
        <time>2021-08-14T07:22:03Z</time>
      </trkpt>
      <trkpt lat="44.06032" lon="3.44904">
        <ele>878.6</ele>
        <time>2021-08-14T07:22:05Z</time>
      </trkpt>
      <trkpt lat="44.06031" lon="3.44896">
        <ele>879.2</ele>
        <time>2021-08-14T07:22:07Z</time>
      </trkpt>
      <trkpt lat="44.06032" lon="3.44888">
        <ele>879.3</ele>
        <time>2021-08-14T07:22:09Z</time>
      </trkpt>
      <trkpt lat="44.06034" lon="3.44882">
        <ele>878.7</ele>
        <time>2021-08-14T07:22:11Z</time>
      </trkpt>
      <trkpt lat="44.06036" lon="3.44874">
        <ele>878.1</ele>
        <time>2021-08-14T07:22:13Z</time>
      </trkpt>
      <trkpt lat="44.06037" lon="3.44866">
        <ele>877.6</ele>
        <time>2021-08-14T07:22:15Z</time>
      </trkpt>
      <trkpt lat="44.06039" lon="3.44859">
        <ele>877</ele>
        <time>2021-08-14T07:22:17Z</time>
      </trkpt>
      <trkpt lat="44.06042" lon="3.44851">
        <ele>875.8</ele>
        <time>2021-08-14T07:22:19Z</time>
      </trkpt>
      <trkpt lat="44.06045" lon="3.44844">
        <ele>874.9</ele>
        <time>2021-08-14T07:22:21Z</time>
      </trkpt>
      <trkpt lat="44.06046" lon="3.44835">
        <ele>874.6</ele>
        <time>2021-08-14T07:22:23Z</time>
      </trkpt>
      <trkpt lat="44.0605" lon="3.44828">
        <ele>873.6</ele>
        <time>2021-08-14T07:22:25Z</time>
      </trkpt>
      <trkpt lat="44.06051" lon="3.44819">
        <ele>874.1</ele>
        <time>2021-08-14T07:22:27Z</time>
      </trkpt>
      <trkpt lat="44.06052" lon="3.4481">
        <ele>874.5</ele>
        <time>2021-08-14T07:22:29Z</time>
      </trkpt>
      <trkpt lat="44.06052" lon="3.44799">
        <ele>875.9</ele>
        <time>2021-08-14T07:22:31Z</time>
      </trkpt>
      <trkpt lat="44.06053" lon="3.44787">
        <ele>876.8</ele>
        <time>2021-08-14T07:22:33Z</time>
      </trkpt>
      <trkpt lat="44.06056" lon="3.44774">
        <ele>877.5</ele>
        <time>2021-08-14T07:22:35Z</time>
      </trkpt>
      <trkpt lat="44.0606" lon="3.44762">
        <ele>877.3</ele>
        <time>2021-08-14T07:22:37Z</time>
      </trkpt>
      <trkpt lat="44.06067" lon="3.44752">
        <ele>876</ele>
        <time>2021-08-14T07:22:39Z</time>
      </trkpt>
      <trkpt lat="44.06077" lon="3.44745">
        <ele>873.3</ele>
        <time>2021-08-14T07:22:41Z</time>
      </trkpt>
      <trkpt lat="44.06086" lon="3.44734">
        <ele>871.5</ele>
        <time>2021-08-14T07:22:43Z</time>
      </trkpt>
      <trkpt lat="44.06095" lon="3.44727">
        <ele>869.1</ele>
        <time>2021-08-14T07:22:45Z</time>
      </trkpt>
      <trkpt lat="44.06104" lon="3.44716">
        <ele>867.3</ele>
        <time>2021-08-14T07:22:47Z</time>
      </trkpt>
      <trkpt lat="44.06113" lon="3.44705">
        <ele>865.1</ele>
        <time>2021-08-14T07:22:49Z</time>
      </trkpt>
      <trkpt lat="44.06122" lon="3.44692">
        <ele>863.1</ele>
        <time>2021-08-14T07:22:51Z</time>
      </trkpt>
      <trkpt lat="44.06129" lon="3.44678">
        <ele>861.5</ele>
        <time>2021-08-14T07:22:53Z</time>
      </trkpt>
      <trkpt lat="44.06133" lon="3.44661">
        <ele>860.6</ele>
        <time>2021-08-14T07:22:55Z</time>
      </trkpt>
      <trkpt lat="44.06132" lon="3.44643">
        <ele>860.2</ele>
        <time>2021-08-14T07:22:57Z</time>
      </trkpt>
      <trkpt lat="44.06127" lon="3.44627">
        <ele>862.2</ele>
        <time>2021-08-14T07:22:59Z</time>
      </trkpt>
      <trkpt lat="44.06121" lon="3.4461">
        <ele>863.8</ele>
        <time>2021-08-14T07:23:01Z</time>
      </trkpt>
      <trkpt lat="44.0612" lon="3.44592">
        <ele>863.7</ele>
        <time>2021-08-14T07:23:03Z</time>
      </trkpt>
      <trkpt lat="44.06124" lon="3.44575">
        <ele>861.8</ele>
        <time>2021-08-14T07:23:05Z</time>
      </trkpt>
      <trkpt lat="44.06122" lon="3.44559">
        <ele>861.6</ele>
        <time>2021-08-14T07:23:07Z</time>
      </trkpt>
      <trkpt lat="44.06117" lon="3.44545">
        <ele>863.2</ele>
        <time>2021-08-14T07:23:09Z</time>
      </trkpt>
      <trkpt lat="44.06111" lon="3.44535">
        <ele>865.2</ele>
        <time>2021-08-14T07:23:11Z</time>
      </trkpt>
      <trkpt lat="44.06107" lon="3.44524">
        <ele>866</ele>
        <time>2021-08-14T07:23:13Z</time>
      </trkpt>
      <trkpt lat="44.06104" lon="3.44514">
        <ele>866.8</ele>
        <time>2021-08-14T07:23:15Z</time>
      </trkpt>
      <trkpt lat="44.061" lon="3.44503">
        <ele>867.8</ele>
        <time>2021-08-14T07:23:17Z</time>
      </trkpt>
      <trkpt lat="44.06096" lon="3.44492">
        <ele>869.3</ele>
        <time>2021-08-14T07:23:19Z</time>
      </trkpt>
      <trkpt lat="44.06089" lon="3.44481">
        <ele>871.8</ele>
        <time>2021-08-14T07:23:21Z</time>
      </trkpt>
      <trkpt lat="44.06081" lon="3.44471">
        <ele>874.7</ele>
        <time>2021-08-14T07:23:23Z</time>
      </trkpt>
      <trkpt lat="44.06077" lon="3.44456">
        <ele>876.5</ele>
        <time>2021-08-14T07:23:25Z</time>
      </trkpt>
      <trkpt lat="44.06083" lon="3.44439">
        <ele>874.3</ele>
        <time>2021-08-14T07:23:27Z</time>
      </trkpt>
      <trkpt lat="44.06091" lon="3.44429">
        <ele>871.3</ele>
        <time>2021-08-14T07:23:29Z</time>
      </trkpt>
      <trkpt lat="44.06102" lon="3.44422">
        <ele>867.3</ele>
        <time>2021-08-14T07:23:31Z</time>
      </trkpt>
      <trkpt lat="44.06109" lon="3.44411">
        <ele>865.3</ele>
        <time>2021-08-14T07:23:33Z</time>
      </trkpt>
      <trkpt lat="44.06115" lon="3.44398">
        <ele>864.1</ele>
        <time>2021-08-14T07:23:35Z</time>
      </trkpt>
      <trkpt lat="44.0612" lon="3.44386">
        <ele>863.1</ele>
        <time>2021-08-14T07:23:37Z</time>
      </trkpt>
      <trkpt lat="44.06123" lon="3.44372">
        <ele>862.9</ele>
        <time>2021-08-14T07:23:39Z</time>
      </trkpt>
      <trkpt lat="44.06123" lon="3.44358">
        <ele>863.6</ele>
        <time>2021-08-14T07:23:41Z</time>
      </trkpt>
      <trkpt lat="44.06122" lon="3.44345">
        <ele>864.9</ele>
        <time>2021-08-14T07:23:43Z</time>
      </trkpt>
      <trkpt lat="44.06123" lon="3.44332">
        <ele>865.3</ele>
        <time>2021-08-14T07:23:45Z</time>
      </trkpt>
      <trkpt lat="44.06128" lon="3.44319">
        <ele>863.3</ele>
        <time>2021-08-14T07:23:47Z</time>
      </trkpt>
      <trkpt lat="44.06138" lon="3.4431">
        <ele>859.6</ele>
        <time>2021-08-14T07:23:49Z</time>
      </trkpt>
      <trkpt lat="44.06143" lon="3.44297">
        <ele>858</ele>
        <time>2021-08-14T07:23:51Z</time>
      </trkpt>
      <trkpt lat="44.06144" lon="3.44281">
        <ele>857.8</ele>
        <time>2021-08-14T07:23:53Z</time>
      </trkpt>
      <trkpt lat="44.06139" lon="3.44268">
        <ele>860.4</ele>
        <time>2021-08-14T07:23:55Z</time>
      </trkpt>
      <trkpt lat="44.0613" lon="3.4426">
        <ele>864</ele>
        <time>2021-08-14T07:23:57Z</time>
      </trkpt>
      <trkpt lat="44.06125" lon="3.44245">
        <ele>865.8</ele>
        <time>2021-08-14T07:23:59Z</time>
      </trkpt>
      <trkpt lat="44.06121" lon="3.44233">
        <ele>866.5</ele>
        <time>2021-08-14T07:24:01Z</time>
      </trkpt>
      <trkpt lat="44.06118" lon="3.44219">
        <ele>866.9</ele>
        <time>2021-08-14T07:24:03Z</time>
      </trkpt>
      <trkpt lat="44.06117" lon="3.44207">
        <ele>866.7</ele>
        <time>2021-08-14T07:24:05Z</time>
      </trkpt>
      <trkpt lat="44.06113" lon="3.44194">
        <ele>867.3</ele>
        <time>2021-08-14T07:24:07Z</time>
      </trkpt>
      <trkpt lat="44.0611" lon="3.4418">
        <ele>867.7</ele>
        <time>2021-08-14T07:24:09Z</time>
      </trkpt>
      <trkpt lat="44.06107" lon="3.44167">
        <ele>867.8</ele>
        <time>2021-08-14T07:24:11Z</time>
      </trkpt>
      <trkpt lat="44.06106" lon="3.44153">
        <ele>868.9</ele>
        <time>2021-08-14T07:24:13Z</time>
      </trkpt>
      <trkpt lat="44.06107" lon="3.4414">
        <ele>868.8</ele>
        <time>2021-08-14T07:24:15Z</time>
      </trkpt>
      <trkpt lat="44.06114" lon="3.4413">
        <ele>867.2</ele>
        <time>2021-08-14T07:24:17Z</time>
      </trkpt>
      <trkpt lat="44.06124" lon="3.44126">
        <ele>864.4</ele>
        <time>2021-08-14T07:24:19Z</time>
      </trkpt>
      <trkpt lat="44.06132" lon="3.44122">
        <ele>862.1</ele>
        <time>2021-08-14T07:24:21Z</time>
      </trkpt>
      <trkpt lat="44.06141" lon="3.44119">
        <ele>859.6</ele>
        <time>2021-08-14T07:24:23Z</time>
      </trkpt>
      <trkpt lat="44.06148" lon="3.44111">
        <ele>857.8</ele>
        <time>2021-08-14T07:24:25Z</time>
      </trkpt>
      <trkpt lat="44.06155" lon="3.44103">
        <ele>856.6</ele>
        <time>2021-08-14T07:24:27Z</time>
      </trkpt>
      <trkpt lat="44.06159" lon="3.44092">
        <ele>856.4</ele>
        <time>2021-08-14T07:24:29Z</time>
      </trkpt>
      <trkpt lat="44.06161" lon="3.44079">
        <ele>857</ele>
        <time>2021-08-14T07:24:31Z</time>
      </trkpt>
      <trkpt lat="44.06161" lon="3.4407">
        <ele>858</ele>
        <time>2021-08-14T07:24:33Z</time>
      </trkpt>
      <trkpt lat="44.06159" lon="3.44056">
        <ele>859.8</ele>
        <time>2021-08-14T07:24:35Z</time>
      </trkpt>
      <trkpt lat="44.06161" lon="3.44043">
        <ele>860.7</ele>
        <time>2021-08-14T07:24:37Z</time>
      </trkpt>
      <trkpt lat="44.06165" lon="3.44031">
        <ele>860.7</ele>
        <time>2021-08-14T07:24:39Z</time>
      </trkpt>
      <trkpt lat="44.0617" lon="3.4402">
        <ele>860</ele>
        <time>2021-08-14T07:24:41Z</time>
      </trkpt>
      <trkpt lat="44.06172" lon="3.44007">
        <ele>860.4</ele>
        <time>2021-08-14T07:24:43Z</time>
      </trkpt>
      <trkpt lat="44.06173" lon="3.43995">
        <ele>861.5</ele>
        <time>2021-08-14T07:24:45Z</time>
      </trkpt>
      <trkpt lat="44.06175" lon="3.43982">
        <ele>863</ele>
        <time>2021-08-14T07:24:47Z</time>
      </trkpt>
      <trkpt lat="44.06176" lon="3.43971">
        <ele>864.3</ele>
        <time>2021-08-14T07:24:49Z</time>
      </trkpt>
      <trkpt lat="44.06178" lon="3.4396">
        <ele>865.3</ele>
        <time>2021-08-14T07:24:51Z</time>
      </trkpt>
      <trkpt lat="44.06181" lon="3.43949">
        <ele>866.3</ele>
        <time>2021-08-14T07:24:53Z</time>
      </trkpt>
      <trkpt lat="44.06184" lon="3.43938">
        <ele>867.3</ele>
        <time>2021-08-14T07:24:55Z</time>
      </trkpt>
      <trkpt lat="44.06187" lon="3.43928">
        <ele>867.9</ele>
        <time>2021-08-14T07:24:57Z</time>
      </trkpt>
      <trkpt lat="44.06192" lon="3.4392">
        <ele>867.6</ele>
        <time>2021-08-14T07:24:59Z</time>
      </trkpt>
      <trkpt lat="44.06198" lon="3.43914">
        <ele>866.7</ele>
        <time>2021-08-14T07:25:01Z</time>
      </trkpt>
      <trkpt lat="44.06205" lon="3.43913">
        <ele>865</ele>
        <time>2021-08-14T07:25:03Z</time>
      </trkpt>
      <trkpt lat="44.06211" lon="3.43909">
        <ele>864</ele>
        <time>2021-08-14T07:25:05Z</time>
      </trkpt>
      <trkpt lat="44.06219" lon="3.43905">
        <ele>862.7</ele>
        <time>2021-08-14T07:25:07Z</time>
      </trkpt>
      <trkpt lat="44.06225" lon="3.43898">
        <ele>862.7</ele>
        <time>2021-08-14T07:25:09Z</time>
      </trkpt>
      <trkpt lat="44.0623" lon="3.4389">
        <ele>863</ele>
        <time>2021-08-14T07:25:11Z</time>
      </trkpt>
      <trkpt lat="44.06235" lon="3.43881">
        <ele>863.9</ele>
        <time>2021-08-14T07:25:13Z</time>
      </trkpt>
      <trkpt lat="44.06236" lon="3.4387">
        <ele>866.6</ele>
        <time>2021-08-14T07:25:15Z</time>
      </trkpt>
      <trkpt lat="44.06241" lon="3.43863">
        <ele>867.1</ele>
        <time>2021-08-14T07:25:17Z</time>
      </trkpt>
      <trkpt lat="44.06248" lon="3.43856">
        <ele>867.2</ele>
        <time>2021-08-14T07:25:19Z</time>
      </trkpt>
      <trkpt lat="44.06254" lon="3.43852">
        <ele>867.1</ele>
        <time>2021-08-14T07:25:21Z</time>
      </trkpt>
      <trkpt lat="44.0626" lon="3.43848">
        <ele>867.1</ele>
        <time>2021-08-14T07:25:23Z</time>
      </trkpt>
      <trkpt lat="44.06266" lon="3.43844">
        <ele>867.3</ele>
        <time>2021-08-14T07:25:25Z</time>
      </trkpt>
      <trkpt lat="44.06272" lon="3.43839">
        <ele>867.8</ele>
        <time>2021-08-14T07:25:27Z</time>
      </trkpt>
      <trkpt lat="44.06278" lon="3.43834">
        <ele>868.1</ele>
        <time>2021-08-14T07:25:29Z</time>
      </trkpt>
      <trkpt lat="44.06285" lon="3.43829">
        <ele>868.1</ele>
        <time>2021-08-14T07:25:31Z</time>
      </trkpt>
      <trkpt lat="44.06291" lon="3.43826">
        <ele>867.8</ele>
        <time>2021-08-14T07:25:33Z</time>
      </trkpt>
      <trkpt lat="44.06298" lon="3.43824">
        <ele>867</ele>
        <time>2021-08-14T07:25:35Z</time>
      </trkpt>
      <trkpt lat="44.06305" lon="3.43824">
        <ele>865.9</ele>
        <time>2021-08-14T07:25:37Z</time>
      </trkpt>
      <trkpt lat="44.06311" lon="3.43826">
        <ele>864.4</ele>
        <time>2021-08-14T07:25:39Z</time>
      </trkpt>
      <trkpt lat="44.06318" lon="3.43825">
        <ele>863.6</ele>
        <time>2021-08-14T07:25:41Z</time>
      </trkpt>
      <trkpt lat="44.06324" lon="3.43824">
        <ele>862.8</ele>
        <time>2021-08-14T07:25:43Z</time>
      </trkpt>
      <trkpt lat="44.06329" lon="3.43823">
        <ele>862.2</ele>
        <time>2021-08-14T07:25:45Z</time>
      </trkpt>
      <trkpt lat="44.06336" lon="3.4382">
        <ele>861.9</ele>
        <time>2021-08-14T07:25:47Z</time>
      </trkpt>
      <trkpt lat="44.06342" lon="3.43818">
        <ele>861.9</ele>
        <time>2021-08-14T07:25:49Z</time>
      </trkpt>
      <trkpt lat="44.06348" lon="3.43814">
        <ele>862.1</ele>
        <time>2021-08-14T07:25:51Z</time>
      </trkpt>
      <trkpt lat="44.06353" lon="3.43809">
        <ele>862.7</ele>
        <time>2021-08-14T07:25:53Z</time>
      </trkpt>
      <trkpt lat="44.06358" lon="3.43804">
        <ele>863.6</ele>
        <time>2021-08-14T07:25:55Z</time>
      </trkpt>
      <trkpt lat="44.06362" lon="3.43799">
        <ele>864.3</ele>
        <time>2021-08-14T07:25:57Z</time>
      </trkpt>
      <trkpt lat="44.06367" lon="3.43793">
        <ele>865.2</ele>
        <time>2021-08-14T07:25:59Z</time>
      </trkpt>
      <trkpt lat="44.06372" lon="3.43789">
        <ele>865.5</ele>
        <time>2021-08-14T07:26:01Z</time>
      </trkpt>
      <trkpt lat="44.06376" lon="3.43784">
        <ele>866.2</ele>
        <time>2021-08-14T07:26:03Z</time>
      </trkpt>
      <trkpt lat="44.06381" lon="3.4378">
        <ele>866.5</ele>
        <time>2021-08-14T07:26:05Z</time>
      </trkpt>
      <trkpt lat="44.06388" lon="3.43779">
        <ele>865.9</ele>
        <time>2021-08-14T07:26:07Z</time>
      </trkpt>
      <trkpt lat="44.06394" lon="3.43779">
        <ele>865.2</ele>
        <time>2021-08-14T07:26:09Z</time>
      </trkpt>
      <trkpt lat="44.06399" lon="3.43783">
        <ele>863.8</ele>
        <time>2021-08-14T07:26:11Z</time>
      </trkpt>
      <trkpt lat="44.06405" lon="3.43785">
        <ele>862.6</ele>
        <time>2021-08-14T07:26:13Z</time>
      </trkpt>
      <trkpt lat="44.06412" lon="3.43787">
        <ele>861.5</ele>
        <time>2021-08-14T07:26:15Z</time>
      </trkpt>
      <trkpt lat="44.06419" lon="3.43788">
        <ele>860.7</ele>
        <time>2021-08-14T07:26:17Z</time>
      </trkpt>
      <trkpt lat="44.06426" lon="3.43785">
        <ele>860.6</ele>
        <time>2021-08-14T07:26:19Z</time>
      </trkpt>
      <trkpt lat="44.06432" lon="3.43781">
        <ele>861.1</ele>
        <time>2021-08-14T07:26:21Z</time>
      </trkpt>
      <trkpt lat="44.06438" lon="3.43776">
        <ele>861.5</ele>
        <time>2021-08-14T07:26:23Z</time>
      </trkpt>
      <trkpt lat="44.06443" lon="3.43772">
        <ele>862</ele>
        <time>2021-08-14T07:26:25Z</time>
      </trkpt>
      <trkpt lat="44.06449" lon="3.43767">
        <ele>862.5</ele>
        <time>2021-08-14T07:26:27Z</time>
      </trkpt>
      <trkpt lat="44.06453" lon="3.43761">
        <ele>863.4</ele>
        <time>2021-08-14T07:26:29Z</time>
      </trkpt>
      <trkpt lat="44.06455" lon="3.43753">
        <ele>864.8</ele>
        <time>2021-08-14T07:26:31Z</time>
      </trkpt>
      <trkpt lat="44.06457" lon="3.43746">
        <ele>865.4</ele>
        <time>2021-08-14T07:26:33Z</time>
      </trkpt>
      <trkpt lat="44.06457" lon="3.43738">
        <ele>865.8</ele>
        <time>2021-08-14T07:26:35Z</time>
      </trkpt>
      <trkpt lat="44.06459" lon="3.4373">
        <ele>866.1</ele>
        <time>2021-08-14T07:26:37Z</time>
      </trkpt>
      <trkpt lat="44.06458" lon="3.43724">
        <ele>866.5</ele>
        <time>2021-08-14T07:26:39Z</time>
      </trkpt>
      <trkpt lat="44.06459" lon="3.43718">
        <ele>866.8</ele>
        <time>2021-08-14T07:26:41Z</time>
      </trkpt>
      <trkpt lat="44.0646" lon="3.43711">
        <ele>867.2</ele>
        <time>2021-08-14T07:26:43Z</time>
      </trkpt>
      <trkpt lat="44.06461" lon="3.43704">
        <ele>867.5</ele>
        <time>2021-08-14T07:26:45Z</time>
      </trkpt>
      <trkpt lat="44.06462" lon="3.43697">
        <ele>867.9</ele>
        <time>2021-08-14T07:26:47Z</time>
      </trkpt>
      <trkpt lat="44.06463" lon="3.43691">
        <ele>868.1</ele>
        <time>2021-08-14T07:26:49Z</time>
      </trkpt>
      <trkpt lat="44.06465" lon="3.43685">
        <ele>868.3</ele>
        <time>2021-08-14T07:26:51Z</time>
      </trkpt>
      <trkpt lat="44.06466" lon="3.43679">
        <ele>868.6</ele>
        <time>2021-08-14T07:26:53Z</time>
      </trkpt>
      <trkpt lat="44.06467" lon="3.43673">
        <ele>868.8</ele>
        <time>2021-08-14T07:26:55Z</time>
      </trkpt>
      <trkpt lat="44.06468" lon="3.43667">
        <ele>869.1</ele>
        <time>2021-08-14T07:26:57Z</time>
      </trkpt>
      <trkpt lat="44.06469" lon="3.4366">
        <ele>868.5</ele>
        <time>2021-08-14T07:26:59Z</time>
      </trkpt>
      <trkpt lat="44.0647" lon="3.43653">
        <ele>868</ele>
        <time>2021-08-14T07:27:01Z</time>
      </trkpt>
      <trkpt lat="44.06472" lon="3.43645">
        <ele>867.2</ele>
        <time>2021-08-14T07:27:03Z</time>
      </trkpt>
      <trkpt lat="44.06475" lon="3.43634">
        <ele>866.2</ele>
        <time>2021-08-14T07:27:05Z</time>
      </trkpt>
      <trkpt lat="44.06477" lon="3.43622">
        <ele>865.1</ele>
        <time>2021-08-14T07:27:07Z</time>
      </trkpt>
      <trkpt lat="44.06478" lon="3.43609">
        <ele>864.1</ele>
        <time>2021-08-14T07:27:09Z</time>
      </trkpt>
      <trkpt lat="44.06476" lon="3.43596">
        <ele>863.4</ele>
        <time>2021-08-14T07:27:11Z</time>
      </trkpt>
      <trkpt lat="44.06471" lon="3.43585">
        <ele>863.2</ele>
        <time>2021-08-14T07:27:13Z</time>
      </trkpt>
      <trkpt lat="44.06464" lon="3.43578">
        <ele>863.1</ele>
        <time>2021-08-14T07:27:15Z</time>
      </trkpt>
      <trkpt lat="44.06455" lon="3.43575">
        <ele>863.7</ele>
        <time>2021-08-14T07:27:17Z</time>
      </trkpt>
      <trkpt lat="44.06446" lon="3.43573">
        <ele>864.4</ele>
        <time>2021-08-14T07:27:19Z</time>
      </trkpt>
      <trkpt lat="44.06438" lon="3.4357">
        <ele>864.9</ele>
        <time>2021-08-14T07:27:21Z</time>
      </trkpt>
      <trkpt lat="44.0643" lon="3.43567">
        <ele>865.4</ele>
        <time>2021-08-14T07:27:23Z</time>
      </trkpt>
      <trkpt lat="44.06421" lon="3.43567">
        <ele>866.3</ele>
        <time>2021-08-14T07:27:25Z</time>
      </trkpt>
      <trkpt lat="44.06413" lon="3.43568">
        <ele>867.6</ele>
        <time>2021-08-14T07:27:27Z</time>
      </trkpt>
      <trkpt lat="44.06405" lon="3.43569">
        <ele>869.4</ele>
        <time>2021-08-14T07:27:29Z</time>
      </trkpt>
      <trkpt lat="44.06396" lon="3.4357">
        <ele>871.1</ele>
        <time>2021-08-14T07:27:31Z</time>
      </trkpt>
      <trkpt lat="44.06388" lon="3.4357">
        <ele>872.6</ele>
        <time>2021-08-14T07:27:33Z</time>
      </trkpt>
      <trkpt lat="44.06379" lon="3.43569">
        <ele>874.1</ele>
        <time>2021-08-14T07:27:35Z</time>
      </trkpt>
      <trkpt lat="44.06373" lon="3.43563">
        <ele>875.1</ele>
        <time>2021-08-14T07:27:37Z</time>
      </trkpt>
      <trkpt lat="44.0637" lon="3.43554">
        <ele>875.3</ele>
        <time>2021-08-14T07:27:39Z</time>
      </trkpt>
      <trkpt lat="44.0637" lon="3.43543">
        <ele>875</ele>
        <time>2021-08-14T07:27:41Z</time>
      </trkpt>
      <trkpt lat="44.06372" lon="3.43532">
        <ele>874.2</ele>
        <time>2021-08-14T07:27:43Z</time>
      </trkpt>
      <trkpt lat="44.06376" lon="3.43524">
        <ele>872.7</ele>
        <time>2021-08-14T07:27:45Z</time>
      </trkpt>
      <trkpt lat="44.0638" lon="3.43516">
        <ele>871.1</ele>
        <time>2021-08-14T07:27:47Z</time>
      </trkpt>
      <trkpt lat="44.06383" lon="3.43506">
        <ele>869.8</ele>
        <time>2021-08-14T07:27:49Z</time>
      </trkpt>
      <trkpt lat="44.06385" lon="3.43495">
        <ele>868.6</ele>
        <time>2021-08-14T07:27:51Z</time>
      </trkpt>
      <trkpt lat="44.06388" lon="3.43482">
        <ele>867.3</ele>
        <time>2021-08-14T07:27:53Z</time>
      </trkpt>
      <trkpt lat="44.0639" lon="3.43472">
        <ele>866.4</ele>
        <time>2021-08-14T07:27:55Z</time>
      </trkpt>
      <trkpt lat="44.06392" lon="3.43461">
        <ele>865.5</ele>
        <time>2021-08-14T07:27:57Z</time>
      </trkpt>
      <trkpt lat="44.06393" lon="3.43449">
        <ele>865</ele>
        <time>2021-08-14T07:27:59Z</time>
      </trkpt>
      <trkpt lat="44.06393" lon="3.43437">
        <ele>864.8</ele>
        <time>2021-08-14T07:28:01Z</time>
      </trkpt>
      <trkpt lat="44.06392" lon="3.43426">
        <ele>865.1</ele>
        <time>2021-08-14T07:28:03Z</time>
      </trkpt>
      <trkpt lat="44.06388" lon="3.43416">
        <ele>866.4</ele>
        <time>2021-08-14T07:28:05Z</time>
      </trkpt>
      <trkpt lat="44.06383" lon="3.43405">
        <ele>865.6</ele>
        <time>2021-08-14T07:28:07Z</time>
      </trkpt>
      <trkpt lat="44.06378" lon="3.43397">
        <ele>865.3</ele>
        <time>2021-08-14T07:28:09Z</time>
      </trkpt>
      <trkpt lat="44.06372" lon="3.43387">
        <ele>864.9</ele>
        <time>2021-08-14T07:28:11Z</time>
      </trkpt>
      <trkpt lat="44.06369" lon="3.43378">
        <ele>864.1</ele>
        <time>2021-08-14T07:28:13Z</time>
      </trkpt>
      <trkpt lat="44.06364" lon="3.43368">
        <ele>863.2</ele>
        <time>2021-08-14T07:28:15Z</time>
      </trkpt>
      <trkpt lat="44.06357" lon="3.43358">
        <ele>863.1</ele>
        <time>2021-08-14T07:28:17Z</time>
      </trkpt>
      <trkpt lat="44.06351" lon="3.43351">
        <ele>863</ele>
        <time>2021-08-14T07:28:19Z</time>
      </trkpt>
      <trkpt lat="44.06344" lon="3.43344">
        <ele>863.6</ele>
        <time>2021-08-14T07:28:21Z</time>
      </trkpt>
      <trkpt lat="44.06335" lon="3.4334">
        <ele>865.1</ele>
        <time>2021-08-14T07:28:23Z</time>
      </trkpt>
      <trkpt lat="44.06327" lon="3.43337">
        <ele>865.8</ele>
        <time>2021-08-14T07:28:25Z</time>
      </trkpt>
      <trkpt lat="44.06319" lon="3.4333">
        <ele>865.5</ele>
        <time>2021-08-14T07:28:27Z</time>
      </trkpt>
      <trkpt lat="44.06312" lon="3.43322">
        <ele>864.5</ele>
        <time>2021-08-14T07:28:29Z</time>
      </trkpt>
      <trkpt lat="44.06306" lon="3.43312">
        <ele>862.6</ele>
        <time>2021-08-14T07:28:31Z</time>
      </trkpt>
      <trkpt lat="44.063" lon="3.43304">
        <ele>861.5</ele>
        <time>2021-08-14T07:28:33Z</time>
      </trkpt>
      <trkpt lat="44.06292" lon="3.43302">
        <ele>862.1</ele>
        <time>2021-08-14T07:28:35Z</time>
      </trkpt>
      <trkpt lat="44.06283" lon="3.43298">
        <ele>862.6</ele>
        <time>2021-08-14T07:28:37Z</time>
      </trkpt>
      <trkpt lat="44.06274" lon="3.43298">
        <ele>863.9</ele>
        <time>2021-08-14T07:28:39Z</time>
      </trkpt>
      <trkpt lat="44.06265" lon="3.433">
        <ele>865.8</ele>
        <time>2021-08-14T07:28:41Z</time>
      </trkpt>
      <trkpt lat="44.06257" lon="3.43301">
        <ele>867.6</ele>
        <time>2021-08-14T07:28:43Z</time>
      </trkpt>
      <trkpt lat="44.06249" lon="3.43299">
        <ele>868.2</ele>
        <time>2021-08-14T07:28:45Z</time>
      </trkpt>
      <trkpt lat="44.06241" lon="3.43298">
        <ele>868.2</ele>
        <time>2021-08-14T07:28:47Z</time>
      </trkpt>
      <trkpt lat="44.06233" lon="3.43294">
        <ele>867.5</ele>
        <time>2021-08-14T07:28:49Z</time>
      </trkpt>
      <trkpt lat="44.06226" lon="3.43293">
        <ele>867.4</ele>
        <time>2021-08-14T07:28:51Z</time>
      </trkpt>
      <trkpt lat="44.06219" lon="3.43289">
        <ele>866.9</ele>
        <time>2021-08-14T07:28:53Z</time>
      </trkpt>
      <trkpt lat="44.06211" lon="3.43287">
        <ele>866.8</ele>
        <time>2021-08-14T07:28:55Z</time>
      </trkpt>
      <trkpt lat="44.06203" lon="3.43286">
        <ele>866.8</ele>
        <time>2021-08-14T07:28:57Z</time>
      </trkpt>
      <trkpt lat="44.06195" lon="3.43285">
        <ele>866.9</ele>
        <time>2021-08-14T07:28:59Z</time>
      </trkpt>
      <trkpt lat="44.06187" lon="3.43284">
        <ele>867</ele>
        <time>2021-08-14T07:29:01Z</time>
      </trkpt>
      <trkpt lat="44.06179" lon="3.43284">
        <ele>867.7</ele>
        <time>2021-08-14T07:29:03Z</time>
      </trkpt>
      <trkpt lat="44.06171" lon="3.43283">
        <ele>867.7</ele>
        <time>2021-08-14T07:29:05Z</time>
      </trkpt>
      <trkpt lat="44.06163" lon="3.43284">
        <ele>868.9</ele>
        <time>2021-08-14T07:29:07Z</time>
      </trkpt>
      <trkpt lat="44.06155" lon="3.43281">
        <ele>869.6</ele>
        <time>2021-08-14T07:29:09Z</time>
      </trkpt>
      <trkpt lat="44.06147" lon="3.43283">
        <ele>871.7</ele>
        <time>2021-08-14T07:29:11Z</time>
      </trkpt>
      <trkpt lat="44.06138" lon="3.43281">
        <ele>872.8</ele>
        <time>2021-08-14T07:29:13Z</time>
      </trkpt>
      <trkpt lat="44.06131" lon="3.4328">
        <ele>874</ele>
        <time>2021-08-14T07:29:15Z</time>
      </trkpt>
      <trkpt lat="44.06124" lon="3.43279">
        <ele>875</ele>
        <time>2021-08-14T07:29:17Z</time>
      </trkpt>
      <trkpt lat="44.06117" lon="3.43276">
        <ele>876</ele>
        <time>2021-08-14T07:29:19Z</time>
      </trkpt>
      <trkpt lat="44.0611" lon="3.43268">
        <ele>876.1</ele>
        <time>2021-08-14T07:29:21Z</time>
      </trkpt>
      <trkpt lat="44.06105" lon="3.43257">
        <ele>875.7</ele>
        <time>2021-08-14T07:29:23Z</time>
      </trkpt>
      <trkpt lat="44.06105" lon="3.43245">
        <ele>875.4</ele>
        <time>2021-08-14T07:29:25Z</time>
      </trkpt>
      <trkpt lat="44.06106" lon="3.43232">
        <ele>876.5</ele>
        <time>2021-08-14T07:29:27Z</time>
      </trkpt>
      <trkpt lat="44.06108" lon="3.43223">
        <ele>876.9</ele>
        <time>2021-08-14T07:29:29Z</time>
      </trkpt>
      <trkpt lat="44.06114" lon="3.43213">
        <ele>875.9</ele>
        <time>2021-08-14T07:29:31Z</time>
      </trkpt>
      <trkpt lat="44.06123" lon="3.4321">
        <ele>873.4</ele>
        <time>2021-08-14T07:29:33Z</time>
      </trkpt>
      <trkpt lat="44.06129" lon="3.43203">
        <ele>872.1</ele>
        <time>2021-08-14T07:29:35Z</time>
      </trkpt>
      <trkpt lat="44.06137" lon="3.43195">
        <ele>870</ele>
        <time>2021-08-14T07:29:37Z</time>
      </trkpt>
      <trkpt lat="44.06142" lon="3.43185">
        <ele>868.6</ele>
        <time>2021-08-14T07:29:39Z</time>
      </trkpt>
      <trkpt lat="44.06147" lon="3.43174">
        <ele>867.2</ele>
        <time>2021-08-14T07:29:41Z</time>
      </trkpt>
      <trkpt lat="44.06152" lon="3.4316">
        <ele>866.8</ele>
        <time>2021-08-14T07:29:43Z</time>
      </trkpt>
      <trkpt lat="44.06159" lon="3.43154">
        <ele>865.2</ele>
        <time>2021-08-14T07:29:45Z</time>
      </trkpt>
      <trkpt lat="44.06165" lon="3.43147">
        <ele>864</ele>
        <time>2021-08-14T07:29:47Z</time>
      </trkpt>
      <trkpt lat="44.06173" lon="3.43138">
        <ele>863.3</ele>
        <time>2021-08-14T07:29:49Z</time>
      </trkpt>
      <trkpt lat="44.06177" lon="3.43124">
        <ele>864.4</ele>
        <time>2021-08-14T07:29:51Z</time>
      </trkpt>
      <trkpt lat="44.06181" lon="3.43111">
        <ele>864.8</ele>
        <time>2021-08-14T07:29:53Z</time>
      </trkpt>
      <trkpt lat="44.06183" lon="3.43098">
        <ele>866.2</ele>
        <time>2021-08-14T07:29:55Z</time>
      </trkpt>
      <trkpt lat="44.0619" lon="3.43086">
        <ele>864.7</ele>
        <time>2021-08-14T07:29:57Z</time>
      </trkpt>
      <trkpt lat="44.06195" lon="3.43074">
        <ele>863.2</ele>
        <time>2021-08-14T07:29:59Z</time>
      </trkpt>
      <trkpt lat="44.06204" lon="3.43062">
        <ele>860.5</ele>
        <time>2021-08-14T07:30:01Z</time>
      </trkpt>
      <trkpt lat="44.0621" lon="3.43048">
        <ele>858.6</ele>
        <time>2021-08-14T07:30:03Z</time>
      </trkpt>
      <trkpt lat="44.06216" lon="3.43035">
        <ele>856.9</ele>
        <time>2021-08-14T07:30:05Z</time>
      </trkpt>
      <trkpt lat="44.0622" lon="3.4302">
        <ele>855.9</ele>
        <time>2021-08-14T07:30:07Z</time>
      </trkpt>
      <trkpt lat="44.06222" lon="3.43005">
        <ele>856.3</ele>
        <time>2021-08-14T07:30:09Z</time>
      </trkpt>
      <trkpt lat="44.06221" lon="3.42989">
        <ele>856.2</ele>
        <time>2021-08-14T07:30:11Z</time>
      </trkpt>
      <trkpt lat="44.06219" lon="3.42972">
        <ele>856.4</ele>
        <time>2021-08-14T07:30:13Z</time>
      </trkpt>
      <trkpt lat="44.06216" lon="3.42955">
        <ele>856.8</ele>
        <time>2021-08-14T07:30:15Z</time>
      </trkpt>
      <trkpt lat="44.06213" lon="3.42939">
        <ele>857.3</ele>
        <time>2021-08-14T07:30:17Z</time>
      </trkpt>
      <trkpt lat="44.0621" lon="3.42923">
        <ele>857.8</ele>
        <time>2021-08-14T07:30:19Z</time>
      </trkpt>
      <trkpt lat="44.06204" lon="3.42908">
        <ele>858.2</ele>
        <time>2021-08-14T07:30:21Z</time>
      </trkpt>
      <trkpt lat="44.062" lon="3.42892">
        <ele>857.1</ele>
        <time>2021-08-14T07:30:23Z</time>
      </trkpt>
      <trkpt lat="44.06196" lon="3.42877">
        <ele>856</ele>
        <time>2021-08-14T07:30:25Z</time>
      </trkpt>
      <trkpt lat="44.06192" lon="3.42861">
        <ele>855</ele>
        <time>2021-08-14T07:30:27Z</time>
      </trkpt>
      <trkpt lat="44.06184" lon="3.42847">
        <ele>855.2</ele>
        <time>2021-08-14T07:30:29Z</time>
      </trkpt>
      <trkpt lat="44.06174" lon="3.42838">
        <ele>856.6</ele>
        <time>2021-08-14T07:30:31Z</time>
      </trkpt>
      <trkpt lat="44.06162" lon="3.42833">
        <ele>858.6</ele>
        <time>2021-08-14T07:30:33Z</time>
      </trkpt>
      <trkpt lat="44.06152" lon="3.42821">
        <ele>859</ele>
        <time>2021-08-14T07:30:35Z</time>
      </trkpt>
      <trkpt lat="44.0615" lon="3.42803">
        <ele>857.6</ele>
        <time>2021-08-14T07:30:37Z</time>
      </trkpt>
      <trkpt lat="44.06158" lon="3.42786">
        <ele>855.3</ele>
        <time>2021-08-14T07:30:39Z</time>
      </trkpt>
      <trkpt lat="44.06167" lon="3.42774">
        <ele>853.7</ele>
        <time>2021-08-14T07:30:41Z</time>
      </trkpt>
      <trkpt lat="44.06176" lon="3.42763">
        <ele>850.2</ele>
        <time>2021-08-14T07:30:43Z</time>
      </trkpt>
      <trkpt lat="44.06183" lon="3.42748">
        <ele>847.4</ele>
        <time>2021-08-14T07:30:45Z</time>
      </trkpt>
      <trkpt lat="44.06181" lon="3.4273">
        <ele>846</ele>
        <time>2021-08-14T07:30:47Z</time>
      </trkpt>
      <trkpt lat="44.06173" lon="3.42716">
        <ele>846.8</ele>
        <time>2021-08-14T07:30:49Z</time>
      </trkpt>
      <trkpt lat="44.06162" lon="3.42707">
        <ele>847.8</ele>
        <time>2021-08-14T07:30:51Z</time>
      </trkpt>
      <trkpt lat="44.0615" lon="3.42703">
        <ele>847.3</ele>
        <time>2021-08-14T07:30:53Z</time>
      </trkpt>
      <trkpt lat="44.06138" lon="3.42699">
        <ele>846.6</ele>
        <time>2021-08-14T07:30:55Z</time>
      </trkpt>
      <trkpt lat="44.06125" lon="3.42695">
        <ele>845.9</ele>
        <time>2021-08-14T07:30:57Z</time>
      </trkpt>
      <trkpt lat="44.06112" lon="3.42692">
        <ele>845.2</ele>
        <time>2021-08-14T07:30:59Z</time>
      </trkpt>
      <trkpt lat="44.061" lon="3.42692">
        <ele>845</ele>
        <time>2021-08-14T07:31:01Z</time>
      </trkpt>
      <trkpt lat="44.06089" lon="3.42698">
        <ele>845.7</ele>
        <time>2021-08-14T07:31:03Z</time>
      </trkpt>
      <trkpt lat="44.06079" lon="3.42707">
        <ele>847</ele>
        <time>2021-08-14T07:31:05Z</time>
      </trkpt>
      <trkpt lat="44.0607" lon="3.42718">
        <ele>848.7</ele>
        <time>2021-08-14T07:31:07Z</time>
      </trkpt>
      <trkpt lat="44.06062" lon="3.4273">
        <ele>850.3</ele>
        <time>2021-08-14T07:31:09Z</time>
      </trkpt>
      <trkpt lat="44.06052" lon="3.42741">
        <ele>851.5</ele>
        <time>2021-08-14T07:31:11Z</time>
      </trkpt>
      <trkpt lat="44.06041" lon="3.42749">
        <ele>852.3</ele>
        <time>2021-08-14T07:31:13Z</time>
      </trkpt>
      <trkpt lat="44.06029" lon="3.42749">
        <ele>851.6</ele>
        <time>2021-08-14T07:31:15Z</time>
      </trkpt>
      <trkpt lat="44.06017" lon="3.42738">
        <ele>849.2</ele>
        <time>2021-08-14T07:31:17Z</time>
      </trkpt>
      <trkpt lat="44.0601" lon="3.42724">
        <ele>846.7</ele>
        <time>2021-08-14T07:31:19Z</time>
      </trkpt>
      <trkpt lat="44.06" lon="3.42712">
        <ele>844.6</ele>
        <time>2021-08-14T07:31:21Z</time>
      </trkpt>
      <trkpt lat="44.05987" lon="3.42708">
        <ele>842.1</ele>
        <time>2021-08-14T07:31:23Z</time>
      </trkpt>
      <trkpt lat="44.05973" lon="3.42715">
        <ele>840.9</ele>
        <time>2021-08-14T07:31:25Z</time>
      </trkpt>
      <trkpt lat="44.05961" lon="3.42723">
        <ele>840</ele>
        <time>2021-08-14T07:31:27Z</time>
      </trkpt>
      <trkpt lat="44.0595" lon="3.4273">
        <ele>839</ele>
        <time>2021-08-14T07:31:29Z</time>
      </trkpt>
      <trkpt lat="44.05942" lon="3.42737">
        <ele>838.3</ele>
        <time>2021-08-14T07:31:31Z</time>
      </trkpt>
      <trkpt lat="44.05935" lon="3.42743">
        <ele>837.7</ele>
        <time>2021-08-14T07:31:33Z</time>
      </trkpt>
      <trkpt lat="44.05929" lon="3.42753">
        <ele>837.8</ele>
        <time>2021-08-14T07:31:35Z</time>
      </trkpt>
      <trkpt lat="44.05929" lon="3.42768">
        <ele>840.1</ele>
        <time>2021-08-14T07:31:37Z</time>
      </trkpt>
      <trkpt lat="44.05932" lon="3.42782">
        <ele>843</ele>
        <time>2021-08-14T07:31:39Z</time>
      </trkpt>
      <trkpt lat="44.05933" lon="3.42797">
        <ele>845.8</ele>
        <time>2021-08-14T07:31:41Z</time>
      </trkpt>
      <trkpt lat="44.05928" lon="3.42812">
        <ele>847.4</ele>
        <time>2021-08-14T07:31:43Z</time>
      </trkpt>
      <trkpt lat="44.05917" lon="3.42822">
        <ele>847.3</ele>
        <time>2021-08-14T07:31:45Z</time>
      </trkpt>
      <trkpt lat="44.05906" lon="3.42825">
        <ele>845.7</ele>
        <time>2021-08-14T07:31:47Z</time>
      </trkpt>
      <trkpt lat="44.05895" lon="3.42829">
        <ele>844.3</ele>
        <time>2021-08-14T07:31:49Z</time>
      </trkpt>
      <trkpt lat="44.05883" lon="3.42832">
        <ele>842.8</ele>
        <time>2021-08-14T07:31:51Z</time>
      </trkpt>
      <trkpt lat="44.05872" lon="3.42831">
        <ele>840.4</ele>
        <time>2021-08-14T07:31:53Z</time>
      </trkpt>
      <trkpt lat="44.0586" lon="3.42824">
        <ele>837.1</ele>
        <time>2021-08-14T07:31:55Z</time>
      </trkpt>
      <trkpt lat="44.05849" lon="3.4282">
        <ele>834.4</ele>
        <time>2021-08-14T07:31:57Z</time>
      </trkpt>
      <trkpt lat="44.05838" lon="3.42824">
        <ele>833.2</ele>
        <time>2021-08-14T07:31:59Z</time>
      </trkpt>
      <trkpt lat="44.0583" lon="3.42834">
        <ele>834</ele>
        <time>2021-08-14T07:32:01Z</time>
      </trkpt>
      <trkpt lat="44.05826" lon="3.42845">
        <ele>836.8</ele>
        <time>2021-08-14T07:32:03Z</time>
      </trkpt>
      <trkpt lat="44.0582" lon="3.42853">
        <ele>839.1</ele>
        <time>2021-08-14T07:32:05Z</time>
      </trkpt>
      <trkpt lat="44.05816" lon="3.42862">
        <ele>841.3</ele>
        <time>2021-08-14T07:32:07Z</time>
      </trkpt>
      <trkpt lat="44.05811" lon="3.42869">
        <ele>843.3</ele>
        <time>2021-08-14T07:32:09Z</time>
      </trkpt>
      <trkpt lat="44.05807" lon="3.42876">
        <ele>844.9</ele>
        <time>2021-08-14T07:32:11Z</time>
      </trkpt>
      <trkpt lat="44.05802" lon="3.42881">
        <ele>846.4</ele>
        <time>2021-08-14T07:32:13Z</time>
      </trkpt>
      <trkpt lat="44.05797" lon="3.42887">
        <ele>847.8</ele>
        <time>2021-08-14T07:32:15Z</time>
      </trkpt>
      <trkpt lat="44.05789" lon="3.42888">
        <ele>847.9</ele>
        <time>2021-08-14T07:32:17Z</time>
      </trkpt>
      <trkpt lat="44.05784" lon="3.42886">
        <ele>846.9</ele>
        <time>2021-08-14T07:32:19Z</time>
      </trkpt>
      <trkpt lat="44.05778" lon="3.42881">
        <ele>844.9</ele>
        <time>2021-08-14T07:32:21Z</time>
      </trkpt>
      <trkpt lat="44.05773" lon="3.42875">
        <ele>842.6</ele>
        <time>2021-08-14T07:32:23Z</time>
      </trkpt>
      <trkpt lat="44.05767" lon="3.42871">
        <ele>840.7</ele>
        <time>2021-08-14T07:32:25Z</time>
      </trkpt>
      <trkpt lat="44.0576" lon="3.42869">
        <ele>839.8</ele>
        <time>2021-08-14T07:32:27Z</time>
      </trkpt>
      <trkpt lat="44.05754" lon="3.42869">
        <ele>839.4</ele>
        <time>2021-08-14T07:32:29Z</time>
      </trkpt>
      <trkpt lat="44.05746" lon="3.42868">
        <ele>838.6</ele>
        <time>2021-08-14T07:32:31Z</time>
      </trkpt>
      <trkpt lat="44.05739" lon="3.4287">
        <ele>839.2</ele>
        <time>2021-08-14T07:32:33Z</time>
      </trkpt>
      <trkpt lat="44.05732" lon="3.42872">
        <ele>839.8</ele>
        <time>2021-08-14T07:32:35Z</time>
      </trkpt>
      <trkpt lat="44.05725" lon="3.42873">
        <ele>839.9</ele>
        <time>2021-08-14T07:32:37Z</time>
      </trkpt>
      <trkpt lat="44.05719" lon="3.42875">
        <ele>840.8</ele>
        <time>2021-08-14T07:32:39Z</time>
      </trkpt>
      <trkpt lat="44.05712" lon="3.42876">
        <ele>841</ele>
        <time>2021-08-14T07:32:41Z</time>
      </trkpt>
      <trkpt lat="44.05705" lon="3.42878">
        <ele>841.4</ele>
        <time>2021-08-14T07:32:43Z</time>
      </trkpt>
      <trkpt lat="44.05699" lon="3.42879">
        <ele>841.7</ele>
        <time>2021-08-14T07:32:45Z</time>
      </trkpt>
      <trkpt lat="44.05693" lon="3.42881">
        <ele>842.3</ele>
        <time>2021-08-14T07:32:47Z</time>
      </trkpt>
      <trkpt lat="44.05688" lon="3.42883">
        <ele>842.6</ele>
        <time>2021-08-14T07:32:49Z</time>
      </trkpt>
      <trkpt lat="44.05682" lon="3.42883">
        <ele>842.7</ele>
        <time>2021-08-14T07:32:51Z</time>
      </trkpt>
      <trkpt lat="44.05677" lon="3.42884">
        <ele>842.9</ele>
        <time>2021-08-14T07:32:53Z</time>
      </trkpt>
      <trkpt lat="44.05671" lon="3.42887">
        <ele>843.6</ele>
        <time>2021-08-14T07:32:55Z</time>
      </trkpt>
      <trkpt lat="44.05666" lon="3.42888">
        <ele>843.6</ele>
        <time>2021-08-14T07:32:57Z</time>
      </trkpt>
      <trkpt lat="44.05661" lon="3.4289">
        <ele>843.3</ele>
        <time>2021-08-14T07:32:59Z</time>
      </trkpt>
      <trkpt lat="44.05655" lon="3.42893">
        <ele>843.4</ele>
        <time>2021-08-14T07:33:01Z</time>
      </trkpt>
      <trkpt lat="44.05649" lon="3.42896">
        <ele>843.2</ele>
        <time>2021-08-14T07:33:03Z</time>
      </trkpt>
      <trkpt lat="44.05642" lon="3.429">
        <ele>843</ele>
        <time>2021-08-14T07:33:05Z</time>
      </trkpt>
      <trkpt lat="44.05634" lon="3.42904">
        <ele>842.7</ele>
        <time>2021-08-14T07:33:07Z</time>
      </trkpt>
      <trkpt lat="44.05626" lon="3.42909">
        <ele>842.5</ele>
        <time>2021-08-14T07:33:09Z</time>
      </trkpt>
      <trkpt lat="44.05617" lon="3.42915">
        <ele>842.3</ele>
        <time>2021-08-14T07:33:11Z</time>
      </trkpt>
      <trkpt lat="44.0561" lon="3.42924">
        <ele>841.9</ele>
        <time>2021-08-14T07:33:13Z</time>
      </trkpt>
      <trkpt lat="44.05602" lon="3.42935">
        <ele>841.2</ele>
        <time>2021-08-14T07:33:15Z</time>
      </trkpt>
      <trkpt lat="44.05597" lon="3.42944">
        <ele>841</ele>
        <time>2021-08-14T07:33:17Z</time>
      </trkpt>
      <trkpt lat="44.05589" lon="3.42957">
        <ele>840.2</ele>
        <time>2021-08-14T07:33:19Z</time>
      </trkpt>
      <trkpt lat="44.05588" lon="3.42974">
        <ele>841.3</ele>
        <time>2021-08-14T07:33:21Z</time>
      </trkpt>
      <trkpt lat="44.05591" lon="3.42991">
        <ele>843.6</ele>
        <time>2021-08-14T07:33:23Z</time>
      </trkpt>
      <trkpt lat="44.05593" lon="3.43011">
        <ele>845.7</ele>
        <time>2021-08-14T07:33:25Z</time>
      </trkpt>
      <trkpt lat="44.05591" lon="3.43028">
        <ele>846.7</ele>
        <time>2021-08-14T07:33:27Z</time>
      </trkpt>
      <trkpt lat="44.05588" lon="3.43047">
        <ele>847.4</ele>
        <time>2021-08-14T07:33:29Z</time>
      </trkpt>
      <trkpt lat="44.05579" lon="3.43063">
        <ele>846.5</ele>
        <time>2021-08-14T07:33:31Z</time>
      </trkpt>
      <trkpt lat="44.05566" lon="3.43073">
        <ele>844.4</ele>
        <time>2021-08-14T07:33:33Z</time>
      </trkpt>
      <trkpt lat="44.05554" lon="3.43085">
        <ele>843.4</ele>
        <time>2021-08-14T07:33:35Z</time>
      </trkpt>
      <trkpt lat="44.05543" lon="3.43097">
        <ele>844.1</ele>
        <time>2021-08-14T07:33:37Z</time>
      </trkpt>
      <trkpt lat="44.0553" lon="3.43107">
        <ele>844.3</ele>
        <time>2021-08-14T07:33:39Z</time>
      </trkpt>
      <trkpt lat="44.05515" lon="3.43111">
        <ele>842.7</ele>
        <time>2021-08-14T07:33:41Z</time>
      </trkpt>
      <trkpt lat="44.05502" lon="3.4311">
        <ele>839.9</ele>
        <time>2021-08-14T07:33:43Z</time>
      </trkpt>
      <trkpt lat="44.05489" lon="3.43113">
        <ele>838.7</ele>
        <time>2021-08-14T07:33:45Z</time>
      </trkpt>
      <trkpt lat="44.05476" lon="3.4312">
        <ele>838.3</ele>
        <time>2021-08-14T07:33:47Z</time>
      </trkpt>
      <trkpt lat="44.05462" lon="3.43129">
        <ele>838.4</ele>
        <time>2021-08-14T07:33:49Z</time>
      </trkpt>
      <trkpt lat="44.05449" lon="3.43138">
        <ele>838.6</ele>
        <time>2021-08-14T07:33:51Z</time>
      </trkpt>
      <trkpt lat="44.05435" lon="3.43145">
        <ele>838.5</ele>
        <time>2021-08-14T07:33:53Z</time>
      </trkpt>
      <trkpt lat="44.05422" lon="3.43149">
        <ele>837.3</ele>
        <time>2021-08-14T07:33:55Z</time>
      </trkpt>
      <trkpt lat="44.05411" lon="3.43156">
        <ele>837.3</ele>
        <time>2021-08-14T07:33:57Z</time>
      </trkpt>
      <trkpt lat="44.054" lon="3.43161">
        <ele>836.6</ele>
        <time>2021-08-14T07:33:59Z</time>
      </trkpt>
      <trkpt lat="44.05391" lon="3.43168">
        <ele>836.2</ele>
        <time>2021-08-14T07:34:01Z</time>
      </trkpt>
      <trkpt lat="44.05382" lon="3.43175">
        <ele>835.7</ele>
        <time>2021-08-14T07:34:03Z</time>
      </trkpt>
      <trkpt lat="44.05374" lon="3.43182">
        <ele>835.1</ele>
        <time>2021-08-14T07:34:05Z</time>
      </trkpt>
      <trkpt lat="44.05366" lon="3.43191">
        <ele>834.7</ele>
        <time>2021-08-14T07:34:07Z</time>
      </trkpt>
      <trkpt lat="44.05357" lon="3.43199">
        <ele>834</ele>
        <time>2021-08-14T07:34:09Z</time>
      </trkpt>
      <trkpt lat="44.05349" lon="3.43209">
        <ele>833.4</ele>
        <time>2021-08-14T07:34:11Z</time>
      </trkpt>
      <trkpt lat="44.05342" lon="3.43221">
        <ele>833.2</ele>
        <time>2021-08-14T07:34:13Z</time>
      </trkpt>
      <trkpt lat="44.05337" lon="3.43233">
        <ele>833.7</ele>
        <time>2021-08-14T07:34:15Z</time>
      </trkpt>
      <trkpt lat="44.05332" lon="3.43246">
        <ele>833.9</ele>
        <time>2021-08-14T07:34:17Z</time>
      </trkpt>
      <trkpt lat="44.05326" lon="3.43258">
        <ele>834.8</ele>
        <time>2021-08-14T07:34:19Z</time>
      </trkpt>
      <trkpt lat="44.05318" lon="3.43269">
        <ele>834.8</ele>
        <time>2021-08-14T07:34:21Z</time>
      </trkpt>
      <trkpt lat="44.0531" lon="3.43278">
        <ele>834.4</ele>
        <time>2021-08-14T07:34:23Z</time>
      </trkpt>
      <trkpt lat="44.05302" lon="3.43289">
        <ele>834.1</ele>
        <time>2021-08-14T07:34:25Z</time>
      </trkpt>
      <trkpt lat="44.05295" lon="3.43303">
        <ele>834.8</ele>
        <time>2021-08-14T07:34:27Z</time>
      </trkpt>
      <trkpt lat="44.0529" lon="3.43319">
        <ele>836</ele>
        <time>2021-08-14T07:34:29Z</time>
      </trkpt>
      <trkpt lat="44.05281" lon="3.4333">
        <ele>835.1</ele>
        <time>2021-08-14T07:34:31Z</time>
      </trkpt>
      <trkpt lat="44.05271" lon="3.43337">
        <ele>833.5</ele>
        <time>2021-08-14T07:34:33Z</time>
      </trkpt>
      <trkpt lat="44.05263" lon="3.43344">
        <ele>832.5</ele>
        <time>2021-08-14T07:34:35Z</time>
      </trkpt>
      <trkpt lat="44.05255" lon="3.43353">
        <ele>832</ele>
        <time>2021-08-14T07:34:37Z</time>
      </trkpt>
      <trkpt lat="44.05248" lon="3.43363">
        <ele>832.2</ele>
        <time>2021-08-14T07:34:39Z</time>
      </trkpt>
      <trkpt lat="44.0524" lon="3.43372">
        <ele>833.6</ele>
        <time>2021-08-14T07:34:41Z</time>
      </trkpt>
      <trkpt lat="44.05232" lon="3.43382">
        <ele>835</ele>
        <time>2021-08-14T07:34:43Z</time>
      </trkpt>
      <trkpt lat="44.05223" lon="3.43391">
        <ele>836</ele>
        <time>2021-08-14T07:34:45Z</time>
      </trkpt>
      <trkpt lat="44.05216" lon="3.43404">
        <ele>837.6</ele>
        <time>2021-08-14T07:34:47Z</time>
      </trkpt>
      <trkpt lat="44.05207" lon="3.43414">
        <ele>838.6</ele>
        <time>2021-08-14T07:34:49Z</time>
      </trkpt>
      <trkpt lat="44.05196" lon="3.43417">
        <ele>838.1</ele>
        <time>2021-08-14T07:34:51Z</time>
      </trkpt>
      <trkpt lat="44.05185" lon="3.43414">
        <ele>837</ele>
        <time>2021-08-14T07:34:53Z</time>
      </trkpt>
      <trkpt lat="44.05178" lon="3.43405">
        <ele>835.4</ele>
        <time>2021-08-14T07:34:55Z</time>
      </trkpt>
      <trkpt lat="44.05176" lon="3.43392">
        <ele>833.8</ele>
        <time>2021-08-14T07:34:57Z</time>
      </trkpt>
      <trkpt lat="44.05178" lon="3.43379">
        <ele>832.3</ele>
        <time>2021-08-14T07:34:59Z</time>
      </trkpt>
      <trkpt lat="44.05179" lon="3.43367">
        <ele>831</ele>
        <time>2021-08-14T07:35:01Z</time>
      </trkpt>
      <trkpt lat="44.05182" lon="3.43356">
        <ele>829.8</ele>
        <time>2021-08-14T07:35:03Z</time>
      </trkpt>
      <trkpt lat="44.05185" lon="3.43346">
        <ele>828.5</ele>
        <time>2021-08-14T07:35:05Z</time>
      </trkpt>
      <trkpt lat="44.05184" lon="3.43333">
        <ele>827</ele>
        <time>2021-08-14T07:35:07Z</time>
      </trkpt>
      <trkpt lat="44.05182" lon="3.43321">
        <ele>826.1</ele>
        <time>2021-08-14T07:35:09Z</time>
      </trkpt>
      <trkpt lat="44.05178" lon="3.43309">
        <ele>825.3</ele>
        <time>2021-08-14T07:35:11Z</time>
      </trkpt>
      <trkpt lat="44.05175" lon="3.43297">
        <ele>824.6</ele>
        <time>2021-08-14T07:35:13Z</time>
      </trkpt>
      <trkpt lat="44.05172" lon="3.43286">
        <ele>824</ele>
        <time>2021-08-14T07:35:15Z</time>
      </trkpt>
      <trkpt lat="44.05165" lon="3.43278">
        <ele>824</ele>
        <time>2021-08-14T07:35:17Z</time>
      </trkpt>
      <trkpt lat="44.05155" lon="3.43276">
        <ele>825.3</ele>
        <time>2021-08-14T07:35:19Z</time>
      </trkpt>
      <trkpt lat="44.05145" lon="3.43279">
        <ele>826.9</ele>
        <time>2021-08-14T07:35:21Z</time>
      </trkpt>
      <trkpt lat="44.05135" lon="3.43283">
        <ele>828.7</ele>
        <time>2021-08-14T07:35:23Z</time>
      </trkpt>
      <trkpt lat="44.05126" lon="3.43285">
        <ele>830.4</ele>
        <time>2021-08-14T07:35:25Z</time>
      </trkpt>
      <trkpt lat="44.05116" lon="3.43289">
        <ele>832.1</ele>
        <time>2021-08-14T07:35:27Z</time>
      </trkpt>
      <trkpt lat="44.05106" lon="3.43293">
        <ele>834</ele>
        <time>2021-08-14T07:35:29Z</time>
      </trkpt>
      <trkpt lat="44.05096" lon="3.43295">
        <ele>835.9</ele>
        <time>2021-08-14T07:35:31Z</time>
      </trkpt>
      <trkpt lat="44.05085" lon="3.43289">
        <ele>836.9</ele>
        <time>2021-08-14T07:35:33Z</time>
      </trkpt>
      <trkpt lat="44.05086" lon="3.43272">
        <ele>835</ele>
        <time>2021-08-14T07:35:35Z</time>
      </trkpt>
      <trkpt lat="44.05092" lon="3.43264">
        <ele>833.3</ele>
        <time>2021-08-14T07:35:37Z</time>
      </trkpt>
      <trkpt lat="44.05096" lon="3.43254">
        <ele>831.8</ele>
        <time>2021-08-14T07:35:39Z</time>
      </trkpt>
      <trkpt lat="44.051" lon="3.43243">
        <ele>831.3</ele>
        <time>2021-08-14T07:35:41Z</time>
      </trkpt>
      <trkpt lat="44.05102" lon="3.43234">
        <ele>831.4</ele>
        <time>2021-08-14T07:35:43Z</time>
      </trkpt>
      <trkpt lat="44.05105" lon="3.43225">
        <ele>831.5</ele>
        <time>2021-08-14T07:35:45Z</time>
      </trkpt>
      <trkpt lat="44.05108" lon="3.43217">
        <ele>831.3</ele>
        <time>2021-08-14T07:35:47Z</time>
      </trkpt>
      <trkpt lat="44.05112" lon="3.43209">
        <ele>831</ele>
        <time>2021-08-14T07:35:49Z</time>
      </trkpt>
      <trkpt lat="44.05116" lon="3.43201">
        <ele>830.5</ele>
        <time>2021-08-14T07:35:51Z</time>
      </trkpt>
      <trkpt lat="44.05121" lon="3.43195">
        <ele>829.8</ele>
        <time>2021-08-14T07:35:53Z</time>
      </trkpt>
      <trkpt lat="44.05126" lon="3.43186">
        <ele>828.8</ele>
        <time>2021-08-14T07:35:55Z</time>
      </trkpt>
      <trkpt lat="44.0513" lon="3.43176">
        <ele>828.2</ele>
        <time>2021-08-14T07:35:57Z</time>
      </trkpt>
      <trkpt lat="44.05133" lon="3.43165">
        <ele>827.6</ele>
        <time>2021-08-14T07:35:59Z</time>
      </trkpt>
      <trkpt lat="44.05135" lon="3.43154">
        <ele>827.3</ele>
        <time>2021-08-14T07:36:01Z</time>
      </trkpt>
      <trkpt lat="44.05136" lon="3.43144">
        <ele>827.1</ele>
        <time>2021-08-14T07:36:03Z</time>
      </trkpt>
      <trkpt lat="44.05137" lon="3.43136">
        <ele>827</ele>
        <time>2021-08-14T07:36:05Z</time>
      </trkpt>
      <trkpt lat="44.05137" lon="3.43127">
        <ele>827</ele>
        <time>2021-08-14T07:36:07Z</time>
      </trkpt>
      <trkpt lat="44.05137" lon="3.43117">
        <ele>827.2</ele>
        <time>2021-08-14T07:36:09Z</time>
      </trkpt>
      <trkpt lat="44.05137" lon="3.43107">
        <ele>827.3</ele>
        <time>2021-08-14T07:36:11Z</time>
      </trkpt>
      <trkpt lat="44.05137" lon="3.43099">
        <ele>827.3</ele>
        <time>2021-08-14T07:36:13Z</time>
      </trkpt>
      <trkpt lat="44.05133" lon="3.43088">
        <ele>828.7</ele>
        <time>2021-08-14T07:36:15Z</time>
      </trkpt>
      <trkpt lat="44.05128" lon="3.43077">
        <ele>830.9</ele>
        <time>2021-08-14T07:36:17Z</time>
      </trkpt>
      <trkpt lat="44.05125" lon="3.43067">
        <ele>832.3</ele>
        <time>2021-08-14T07:36:19Z</time>
      </trkpt>
      <trkpt lat="44.05125" lon="3.43057">
        <ele>832.6</ele>
        <time>2021-08-14T07:36:21Z</time>
      </trkpt>
      <trkpt lat="44.05123" lon="3.4305">
        <ele>833.6</ele>
        <time>2021-08-14T07:36:23Z</time>
      </trkpt>
      <trkpt lat="44.05122" lon="3.43043">
        <ele>834.2</ele>
        <time>2021-08-14T07:36:25Z</time>
      </trkpt>
      <trkpt lat="44.0512" lon="3.43036">
        <ele>834.9</ele>
        <time>2021-08-14T07:36:27Z</time>
      </trkpt>
      <trkpt lat="44.05119" lon="3.4303">
        <ele>835.6</ele>
        <time>2021-08-14T07:36:29Z</time>
      </trkpt>
      <trkpt lat="44.05117" lon="3.43024">
        <ele>836.1</ele>
        <time>2021-08-14T07:36:31Z</time>
      </trkpt>
      <trkpt lat="44.05117" lon="3.43018">
        <ele>836.3</ele>
        <time>2021-08-14T07:36:33Z</time>
      </trkpt>
      <trkpt lat="44.05117" lon="3.43009">
        <ele>836.9</ele>
        <time>2021-08-14T07:36:35Z</time>
      </trkpt>
      <trkpt lat="44.05116" lon="3.43003">
        <ele>837.4</ele>
        <time>2021-08-14T07:36:37Z</time>
      </trkpt>
      <trkpt lat="44.05115" lon="3.42996">
        <ele>838</ele>
        <time>2021-08-14T07:36:39Z</time>
      </trkpt>
      <trkpt lat="44.05117" lon="3.4299">
        <ele>837.8</ele>
        <time>2021-08-14T07:36:41Z</time>
      </trkpt>
      <trkpt lat="44.0512" lon="3.42986">
        <ele>837.4</ele>
        <time>2021-08-14T07:36:43Z</time>
      </trkpt>
      <trkpt lat="44.05124" lon="3.42979">
        <ele>837</ele>
        <time>2021-08-14T07:36:45Z</time>
      </trkpt>
      <trkpt lat="44.05127" lon="3.42973">
        <ele>836.7</ele>
        <time>2021-08-14T07:36:47Z</time>
      </trkpt>
      <trkpt lat="44.0513" lon="3.42968">
        <ele>836.5</ele>
        <time>2021-08-14T07:36:49Z</time>
      </trkpt>
      <trkpt lat="44.05132" lon="3.42963">
        <ele>836.3</ele>
        <time>2021-08-14T07:36:51Z</time>
      </trkpt>
      <trkpt lat="44.05134" lon="3.42959">
        <ele>835.9</ele>
        <time>2021-08-14T07:36:53Z</time>
      </trkpt>
      <trkpt lat="44.05138" lon="3.42955">
        <ele>835.5</ele>
        <time>2021-08-14T07:36:55Z</time>
      </trkpt>
      <trkpt lat="44.0514" lon="3.4295">
        <ele>835.1</ele>
        <time>2021-08-14T07:36:57Z</time>
      </trkpt>
      <trkpt lat="44.05144" lon="3.42947">
        <ele>834.4</ele>
        <time>2021-08-14T07:36:59Z</time>
      </trkpt>
      <trkpt lat="44.05148" lon="3.42944">
        <ele>833.7</ele>
        <time>2021-08-14T07:37:01Z</time>
      </trkpt>
      <trkpt lat="44.0515" lon="3.42941">
        <ele>833.3</ele>
        <time>2021-08-14T07:37:03Z</time>
      </trkpt>
      <trkpt lat="44.05154" lon="3.42938">
        <ele>832.6</ele>
        <time>2021-08-14T07:37:05Z</time>
      </trkpt>
      <trkpt lat="44.05157" lon="3.42935">
        <ele>832</ele>
        <time>2021-08-14T07:37:07Z</time>
      </trkpt>
      <trkpt lat="44.0516" lon="3.4293">
        <ele>831.6</ele>
        <time>2021-08-14T07:37:09Z</time>
      </trkpt>
      <trkpt lat="44.05162" lon="3.42926">
        <ele>831.4</ele>
        <time>2021-08-14T07:37:11Z</time>
      </trkpt>
      <trkpt lat="44.05164" lon="3.4292">
        <ele>831.4</ele>
        <time>2021-08-14T07:37:13Z</time>
      </trkpt>
      <trkpt lat="44.05165" lon="3.42915">
        <ele>831.5</ele>
        <time>2021-08-14T07:37:15Z</time>
      </trkpt>
      <trkpt lat="44.05166" lon="3.42908">
        <ele>831.8</ele>
        <time>2021-08-14T07:37:17Z</time>
      </trkpt>
      <trkpt lat="44.05166" lon="3.42902">
        <ele>831.9</ele>
        <time>2021-08-14T07:37:19Z</time>
      </trkpt>
      <trkpt lat="44.05167" lon="3.42896">
        <ele>832.2</ele>
        <time>2021-08-14T07:37:21Z</time>
      </trkpt>
      <trkpt lat="44.05167" lon="3.4289">
        <ele>832.5</ele>
        <time>2021-08-14T07:37:23Z</time>
      </trkpt>
      <trkpt lat="44.05167" lon="3.42885">
        <ele>832.8</ele>
        <time>2021-08-14T07:37:25Z</time>
      </trkpt>
      <trkpt lat="44.05168" lon="3.42878">
        <ele>833.2</ele>
        <time>2021-08-14T07:37:27Z</time>
      </trkpt>
      <trkpt lat="44.05168" lon="3.42872">
        <ele>833.5</ele>
        <time>2021-08-14T07:37:29Z</time>
      </trkpt>
      <trkpt lat="44.05168" lon="3.42866">
        <ele>834</ele>
        <time>2021-08-14T07:37:31Z</time>
      </trkpt>
      <trkpt lat="44.05168" lon="3.42859">
        <ele>834.3</ele>
        <time>2021-08-14T07:37:33Z</time>
      </trkpt>
      <trkpt lat="44.05167" lon="3.42852">
        <ele>834.8</ele>
        <time>2021-08-14T07:37:35Z</time>
      </trkpt>
      <trkpt lat="44.05167" lon="3.42844">
        <ele>835.3</ele>
        <time>2021-08-14T07:37:37Z</time>
      </trkpt>
      <trkpt lat="44.05167" lon="3.42837">
        <ele>835.8</ele>
        <time>2021-08-14T07:37:39Z</time>
      </trkpt>
      <trkpt lat="44.05166" lon="3.4283">
        <ele>836.4</ele>
        <time>2021-08-14T07:37:41Z</time>
      </trkpt>
      <trkpt lat="44.05165" lon="3.42824">
        <ele>837.2</ele>
        <time>2021-08-14T07:37:43Z</time>
      </trkpt>
      <trkpt lat="44.05166" lon="3.42817">
        <ele>837.7</ele>
        <time>2021-08-14T07:37:45Z</time>
      </trkpt>
      <trkpt lat="44.05165" lon="3.42811">
        <ele>838.5</ele>
        <time>2021-08-14T07:37:47Z</time>
      </trkpt>
      <trkpt lat="44.05166" lon="3.42805">
        <ele>838.5</ele>
        <time>2021-08-14T07:37:49Z</time>
      </trkpt>
      <trkpt lat="44.05167" lon="3.42798">
        <ele>839</ele>
        <time>2021-08-14T07:37:51Z</time>
      </trkpt>
      <trkpt lat="44.05167" lon="3.42791">
        <ele>839.6</ele>
        <time>2021-08-14T07:37:53Z</time>
      </trkpt>
      <trkpt lat="44.05167" lon="3.42784">
        <ele>840.1</ele>
        <time>2021-08-14T07:37:55Z</time>
      </trkpt>
      <trkpt lat="44.05167" lon="3.42777">
        <ele>840.7</ele>
        <time>2021-08-14T07:37:57Z</time>
      </trkpt>
      <trkpt lat="44.05167" lon="3.4277">
        <ele>841.3</ele>
        <time>2021-08-14T07:37:59Z</time>
      </trkpt>
      <trkpt lat="44.05166" lon="3.42763">
        <ele>842.2</ele>
        <time>2021-08-14T07:38:01Z</time>
      </trkpt>
      <trkpt lat="44.05166" lon="3.42756">
        <ele>842.9</ele>
        <time>2021-08-14T07:38:03Z</time>
      </trkpt>
      <trkpt lat="44.05165" lon="3.4275">
        <ele>843.7</ele>
        <time>2021-08-14T07:38:05Z</time>
      </trkpt>
      <trkpt lat="44.05165" lon="3.42744">
        <ele>844.4</ele>
        <time>2021-08-14T07:38:07Z</time>
      </trkpt>
      <trkpt lat="44.05165" lon="3.42737">
        <ele>845.2</ele>
        <time>2021-08-14T07:38:09Z</time>
      </trkpt>
      <trkpt lat="44.05165" lon="3.42731">
        <ele>845.9</ele>
        <time>2021-08-14T07:38:11Z</time>
      </trkpt>
      <trkpt lat="44.05166" lon="3.42726">
        <ele>846.2</ele>
        <time>2021-08-14T07:38:13Z</time>
      </trkpt>
      <trkpt lat="44.05166" lon="3.42719">
        <ele>847</ele>
        <time>2021-08-14T07:38:15Z</time>
      </trkpt>
      <trkpt lat="44.05167" lon="3.42712">
        <ele>847.6</ele>
        <time>2021-08-14T07:38:17Z</time>
      </trkpt>
      <trkpt lat="44.05168" lon="3.42706">
        <ele>848.2</ele>
        <time>2021-08-14T07:38:19Z</time>
      </trkpt>
      <trkpt lat="44.0517" lon="3.427">
        <ele>848.7</ele>
        <time>2021-08-14T07:38:21Z</time>
      </trkpt>
      <trkpt lat="44.05172" lon="3.42695">
        <ele>849.2</ele>
        <time>2021-08-14T07:38:23Z</time>
      </trkpt>
      <trkpt lat="44.05176" lon="3.42689">
        <ele>849.6</ele>
        <time>2021-08-14T07:38:25Z</time>
      </trkpt>
      <trkpt lat="44.05181" lon="3.42684">
        <ele>849.8</ele>
        <time>2021-08-14T07:38:27Z</time>
      </trkpt>
      <trkpt lat="44.05188" lon="3.42683">
        <ele>849.5</ele>
        <time>2021-08-14T07:38:29Z</time>
      </trkpt>
      <trkpt lat="44.05193" lon="3.42688">
        <ele>848.5</ele>
        <time>2021-08-14T07:38:31Z</time>
      </trkpt>
      <trkpt lat="44.05197" lon="3.42694">
        <ele>847.4</ele>
        <time>2021-08-14T07:38:33Z</time>
      </trkpt>
      <trkpt lat="44.05201" lon="3.42699">
        <ele>846.5</ele>
        <time>2021-08-14T07:38:35Z</time>
      </trkpt>
      <trkpt lat="44.05205" lon="3.42705">
        <ele>845.4</ele>
        <time>2021-08-14T07:38:37Z</time>
      </trkpt>
      <trkpt lat="44.05208" lon="3.42711">
        <ele>844.4</ele>
        <time>2021-08-14T07:38:39Z</time>
      </trkpt>
      <trkpt lat="44.05211" lon="3.42718">
        <ele>843.3</ele>
        <time>2021-08-14T07:38:41Z</time>
      </trkpt>
      <trkpt lat="44.05214" lon="3.42724">
        <ele>842.4</ele>
        <time>2021-08-14T07:38:43Z</time>
      </trkpt>
      <trkpt lat="44.05218" lon="3.42727">
        <ele>841.7</ele>
        <time>2021-08-14T07:38:45Z</time>
      </trkpt>
      <trkpt lat="44.05224" lon="3.42727">
        <ele>841.1</ele>
        <time>2021-08-14T07:38:47Z</time>
      </trkpt>
      <trkpt lat="44.05228" lon="3.42727">
        <ele>840.8</ele>
        <time>2021-08-14T07:38:49Z</time>
      </trkpt>
      <trkpt lat="44.05234" lon="3.42724">
        <ele>840.7</ele>
        <time>2021-08-14T07:38:51Z</time>
      </trkpt>
      <trkpt lat="44.05239" lon="3.42722">
        <ele>840.6</ele>
        <time>2021-08-14T07:38:53Z</time>
      </trkpt>
      <trkpt lat="44.05243" lon="3.42717">
        <ele>840.9</ele>
        <time>2021-08-14T07:38:55Z</time>
      </trkpt>
      <trkpt lat="44.05246" lon="3.42712">
        <ele>841.3</ele>
        <time>2021-08-14T07:38:57Z</time>
      </trkpt>
      <trkpt lat="44.05249" lon="3.42705">
        <ele>842</ele>
        <time>2021-08-14T07:38:59Z</time>
      </trkpt>
      <trkpt lat="44.05251" lon="3.42699">
        <ele>842.5</ele>
        <time>2021-08-14T07:39:01Z</time>
      </trkpt>
      <trkpt lat="44.05252" lon="3.42693">
        <ele>843.2</ele>
        <time>2021-08-14T07:39:03Z</time>
      </trkpt>
      <trkpt lat="44.05253" lon="3.42687">
        <ele>843.9</ele>
        <time>2021-08-14T07:39:05Z</time>
      </trkpt>
      <trkpt lat="44.05252" lon="3.4268">
        <ele>844.9</ele>
        <time>2021-08-14T07:39:07Z</time>
      </trkpt>
      <trkpt lat="44.05249" lon="3.42674">
        <ele>846.1</ele>
        <time>2021-08-14T07:39:09Z</time>
      </trkpt>
      <trkpt lat="44.05247" lon="3.42668">
        <ele>847.1</ele>
        <time>2021-08-14T07:39:11Z</time>
      </trkpt>
      <trkpt lat="44.05246" lon="3.42661">
        <ele>848.1</ele>
        <time>2021-08-14T07:39:13Z</time>
      </trkpt>
      <trkpt lat="44.05247" lon="3.42652">
        <ele>849.2</ele>
        <time>2021-08-14T07:39:15Z</time>
      </trkpt>
      <trkpt lat="44.05249" lon="3.42644">
        <ele>850</ele>
        <time>2021-08-14T07:39:17Z</time>
      </trkpt>
      <trkpt lat="44.05253" lon="3.42639">
        <ele>850.1</ele>
        <time>2021-08-14T07:39:19Z</time>
      </trkpt>
      <trkpt lat="44.05257" lon="3.42635">
        <ele>850.1</ele>
        <time>2021-08-14T07:39:21Z</time>
      </trkpt>
      <trkpt lat="44.05261" lon="3.42631">
        <ele>850.2</ele>
        <time>2021-08-14T07:39:23Z</time>
      </trkpt>
      <trkpt lat="44.05264" lon="3.42625">
        <ele>850.5</ele>
        <time>2021-08-14T07:39:25Z</time>
      </trkpt>
      <trkpt lat="44.05268" lon="3.42621">
        <ele>850.5</ele>
        <time>2021-08-14T07:39:27Z</time>
      </trkpt>
      <trkpt lat="44.05272" lon="3.42616">
        <ele>850.6</ele>
        <time>2021-08-14T07:39:29Z</time>
      </trkpt>
      <trkpt lat="44.05277" lon="3.42614">
        <ele>850.3</ele>
        <time>2021-08-14T07:39:31Z</time>
      </trkpt>
      <trkpt lat="44.05283" lon="3.42614">
        <ele>849.6</ele>
        <time>2021-08-14T07:39:33Z</time>
      </trkpt>
      <trkpt lat="44.05288" lon="3.42613">
        <ele>849</ele>
        <time>2021-08-14T07:39:35Z</time>
      </trkpt>
      <trkpt lat="44.05293" lon="3.42611">
        <ele>848.7</ele>
        <time>2021-08-14T07:39:37Z</time>
      </trkpt>
      <trkpt lat="44.05296" lon="3.42607">
        <ele>848.8</ele>
        <time>2021-08-14T07:39:39Z</time>
      </trkpt>
      <trkpt lat="44.053" lon="3.42603">
        <ele>849</ele>
        <time>2021-08-14T07:39:41Z</time>
      </trkpt>
      <trkpt lat="44.05304" lon="3.42597">
        <ele>849.3</ele>
        <time>2021-08-14T07:39:43Z</time>
      </trkpt>
      <trkpt lat="44.05307" lon="3.42592">
        <ele>849.9</ele>
        <time>2021-08-14T07:39:45Z</time>
      </trkpt>
      <trkpt lat="44.05311" lon="3.42586">
        <ele>850.3</ele>
        <time>2021-08-14T07:39:47Z</time>
      </trkpt>
      <trkpt lat="44.05315" lon="3.42579">
        <ele>850.9</ele>
        <time>2021-08-14T07:39:49Z</time>
      </trkpt>
      <trkpt lat="44.05318" lon="3.42573">
        <ele>851.6</ele>
        <time>2021-08-14T07:39:51Z</time>
      </trkpt>
      <trkpt lat="44.05322" lon="3.42568">
        <ele>852.2</ele>
        <time>2021-08-14T07:39:53Z</time>
      </trkpt>
      <trkpt lat="44.05326" lon="3.42563">
        <ele>852.6</ele>
        <time>2021-08-14T07:39:55Z</time>
      </trkpt>
      <trkpt lat="44.0533" lon="3.42558">
        <ele>853</ele>
        <time>2021-08-14T07:39:57Z</time>
      </trkpt>
      <trkpt lat="44.05333" lon="3.42552">
        <ele>853.7</ele>
        <time>2021-08-14T07:39:59Z</time>
      </trkpt>
      <trkpt lat="44.05336" lon="3.42547">
        <ele>853.8</ele>
        <time>2021-08-14T07:40:01Z</time>
      </trkpt>
      <trkpt lat="44.05341" lon="3.42541">
        <ele>853.8</ele>
        <time>2021-08-14T07:40:03Z</time>
      </trkpt>
      <trkpt lat="44.05343" lon="3.42535">
        <ele>854.2</ele>
        <time>2021-08-14T07:40:05Z</time>
      </trkpt>
      <trkpt lat="44.05346" lon="3.4253">
        <ele>854.4</ele>
        <time>2021-08-14T07:40:07Z</time>
      </trkpt>
      <trkpt lat="44.05351" lon="3.42523">
        <ele>854.5</ele>
        <time>2021-08-14T07:40:09Z</time>
      </trkpt>
      <trkpt lat="44.05354" lon="3.42517">
        <ele>854.9</ele>
        <time>2021-08-14T07:40:11Z</time>
      </trkpt>
      <trkpt lat="44.05357" lon="3.4251">
        <ele>855.4</ele>
        <time>2021-08-14T07:40:13Z</time>
      </trkpt>
      <trkpt lat="44.0536" lon="3.42503">
        <ele>856.1</ele>
        <time>2021-08-14T07:40:15Z</time>
      </trkpt>
      <trkpt lat="44.05364" lon="3.42495">
        <ele>856.3</ele>
        <time>2021-08-14T07:40:17Z</time>
      </trkpt>
      <trkpt lat="44.05368" lon="3.42487">
        <ele>856.5</ele>
        <time>2021-08-14T07:40:19Z</time>
      </trkpt>
      <trkpt lat="44.05372" lon="3.4248">
        <ele>856.5</ele>
        <time>2021-08-14T07:40:21Z</time>
      </trkpt>
      <trkpt lat="44.05376" lon="3.42472">
        <ele>856.5</ele>
        <time>2021-08-14T07:40:23Z</time>
      </trkpt>
      <trkpt lat="44.05381" lon="3.42468">
        <ele>855.6</ele>
        <time>2021-08-14T07:40:25Z</time>
      </trkpt>
      <trkpt lat="44.05385" lon="3.42466">
        <ele>855.1</ele>
        <time>2021-08-14T07:40:27Z</time>
      </trkpt>
      <trkpt lat="44.05391" lon="3.42462">
        <ele>854.1</ele>
        <time>2021-08-14T07:40:29Z</time>
      </trkpt>
      <trkpt lat="44.05394" lon="3.42458">
        <ele>853.6</ele>
        <time>2021-08-14T07:40:31Z</time>
      </trkpt>
      <trkpt lat="44.05399" lon="3.42454">
        <ele>852.9</ele>
        <time>2021-08-14T07:40:33Z</time>
      </trkpt>
      <trkpt lat="44.05402" lon="3.42448">
        <ele>852.9</ele>
        <time>2021-08-14T07:40:35Z</time>
      </trkpt>
      <trkpt lat="44.05404" lon="3.42442">
        <ele>853.3</ele>
        <time>2021-08-14T07:40:37Z</time>
      </trkpt>
      <trkpt lat="44.05405" lon="3.42435">
        <ele>853.8</ele>
        <time>2021-08-14T07:40:39Z</time>
      </trkpt>
      <trkpt lat="44.05405" lon="3.42428">
        <ele>854.7</ele>
        <time>2021-08-14T07:40:41Z</time>
      </trkpt>
      <trkpt lat="44.05404" lon="3.42422">
        <ele>855.7</ele>
        <time>2021-08-14T07:40:43Z</time>
      </trkpt>
      <trkpt lat="44.05402" lon="3.42415">
        <ele>856.9</ele>
        <time>2021-08-14T07:40:45Z</time>
      </trkpt>
      <trkpt lat="44.054" lon="3.42409">
        <ele>857.8</ele>
        <time>2021-08-14T07:40:47Z</time>
      </trkpt>
      <trkpt lat="44.05397" lon="3.42404">
        <ele>858.7</ele>
        <time>2021-08-14T07:40:49Z</time>
      </trkpt>
      <trkpt lat="44.05394" lon="3.42399">
        <ele>859.9</ele>
        <time>2021-08-14T07:40:51Z</time>
      </trkpt>
      <trkpt lat="44.05392" lon="3.42394">
        <ele>860.9</ele>
        <time>2021-08-14T07:40:53Z</time>
      </trkpt>
      <trkpt lat="44.0539" lon="3.42389">
        <ele>861.7</ele>
        <time>2021-08-14T07:40:55Z</time>
      </trkpt>
      <trkpt lat="44.05388" lon="3.42382">
        <ele>862.9</ele>
        <time>2021-08-14T07:40:57Z</time>
      </trkpt>
      <trkpt lat="44.05386" lon="3.42377">
        <ele>863.7</ele>
        <time>2021-08-14T07:40:59Z</time>
      </trkpt>
      <trkpt lat="44.05385" lon="3.42371">
        <ele>864.4</ele>
        <time>2021-08-14T07:41:01Z</time>
      </trkpt>
      <trkpt lat="44.05385" lon="3.42366">
        <ele>864.7</ele>
        <time>2021-08-14T07:41:03Z</time>
      </trkpt>
      <trkpt lat="44.05387" lon="3.42359">
        <ele>864.6</ele>
        <time>2021-08-14T07:41:05Z</time>
      </trkpt>
      <trkpt lat="44.05388" lon="3.42351">
        <ele>864.8</ele>
        <time>2021-08-14T07:41:07Z</time>
      </trkpt>
      <trkpt lat="44.05392" lon="3.42345">
        <ele>864</ele>
        <time>2021-08-14T07:41:09Z</time>
      </trkpt>
      <trkpt lat="44.05395" lon="3.4234">
        <ele>863.1</ele>
        <time>2021-08-14T07:41:11Z</time>
      </trkpt>
      <trkpt lat="44.054" lon="3.42336">
        <ele>861.6</ele>
        <time>2021-08-14T07:41:13Z</time>
      </trkpt>
      <trkpt lat="44.05403" lon="3.42329">
        <ele>861.1</ele>
        <time>2021-08-14T07:41:15Z</time>
      </trkpt>
      <trkpt lat="44.05404" lon="3.42322">
        <ele>861.1</ele>
        <time>2021-08-14T07:41:17Z</time>
      </trkpt>
      <trkpt lat="44.05406" lon="3.42315">
        <ele>861.2</ele>
        <time>2021-08-14T07:41:19Z</time>
      </trkpt>
      <trkpt lat="44.05406" lon="3.42308">
        <ele>861.4</ele>
        <time>2021-08-14T07:41:21Z</time>
      </trkpt>
      <trkpt lat="44.05408" lon="3.42301">
        <ele>861.5</ele>
        <time>2021-08-14T07:41:23Z</time>
      </trkpt>
      <trkpt lat="44.05408" lon="3.42293">
        <ele>862.1</ele>
        <time>2021-08-14T07:41:25Z</time>
      </trkpt>
      <trkpt lat="44.0541" lon="3.42286">
        <ele>861.9</ele>
        <time>2021-08-14T07:41:27Z</time>
      </trkpt>
      <trkpt lat="44.0541" lon="3.42279">
        <ele>862.3</ele>
        <time>2021-08-14T07:41:29Z</time>
      </trkpt>
      <trkpt lat="44.0541" lon="3.42271">
        <ele>862.8</ele>
        <time>2021-08-14T07:41:31Z</time>
      </trkpt>
      <trkpt lat="44.05411" lon="3.42264">
        <ele>862.9</ele>
        <time>2021-08-14T07:41:33Z</time>
      </trkpt>
      <trkpt lat="44.05412" lon="3.42256">
        <ele>863.2</ele>
        <time>2021-08-14T07:41:35Z</time>
      </trkpt>
      <trkpt lat="44.05412" lon="3.42249">
        <ele>863.7</ele>
        <time>2021-08-14T07:41:37Z</time>
      </trkpt>
      <trkpt lat="44.05413" lon="3.42242">
        <ele>863.7</ele>
        <time>2021-08-14T07:41:39Z</time>
      </trkpt>
      <trkpt lat="44.05412" lon="3.42235">
        <ele>864.2</ele>
        <time>2021-08-14T07:41:41Z</time>
      </trkpt>
      <trkpt lat="44.05411" lon="3.42228">
        <ele>864.9</ele>
        <time>2021-08-14T07:41:43Z</time>
      </trkpt>
      <trkpt lat="44.05409" lon="3.42221">
        <ele>865.8</ele>
        <time>2021-08-14T07:41:45Z</time>
      </trkpt>
      <trkpt lat="44.05408" lon="3.42214">
        <ele>866.3</ele>
        <time>2021-08-14T07:41:47Z</time>
      </trkpt>
      <trkpt lat="44.05405" lon="3.42208">
        <ele>867.2</ele>
        <time>2021-08-14T07:41:49Z</time>
      </trkpt>
      <trkpt lat="44.05404" lon="3.42202">
        <ele>867.9</ele>
        <time>2021-08-14T07:41:51Z</time>
      </trkpt>
      <trkpt lat="44.054" lon="3.42197">
        <ele>869.2</ele>
        <time>2021-08-14T07:41:53Z</time>
      </trkpt>
      <trkpt lat="44.05396" lon="3.42193">
        <ele>870.5</ele>
        <time>2021-08-14T07:41:55Z</time>
      </trkpt>
      <trkpt lat="44.05393" lon="3.42188">
        <ele>871.5</ele>
        <time>2021-08-14T07:41:57Z</time>
      </trkpt>
      <trkpt lat="44.05389" lon="3.42183">
        <ele>872.7</ele>
        <time>2021-08-14T07:41:59Z</time>
      </trkpt>
      <trkpt lat="44.05386" lon="3.42179">
        <ele>873.9</ele>
        <time>2021-08-14T07:42:01Z</time>
      </trkpt>
      <trkpt lat="44.05384" lon="3.42171">
        <ele>874.4</ele>
        <time>2021-08-14T07:42:03Z</time>
      </trkpt>
      <trkpt lat="44.05384" lon="3.42162">
        <ele>874</ele>
        <time>2021-08-14T07:42:05Z</time>
      </trkpt>
      <trkpt lat="44.05386" lon="3.42155">
        <ele>872.5</ele>
        <time>2021-08-14T07:42:07Z</time>
      </trkpt>
      <trkpt lat="44.0539" lon="3.42148">
        <ele>870.8</ele>
        <time>2021-08-14T07:42:09Z</time>
      </trkpt>
      <trkpt lat="44.05393" lon="3.42143">
        <ele>869.4</ele>
        <time>2021-08-14T07:42:11Z</time>
      </trkpt>
      <trkpt lat="44.05395" lon="3.42136">
        <ele>868.1</ele>
        <time>2021-08-14T07:42:13Z</time>
      </trkpt>
      <trkpt lat="44.05397" lon="3.42129">
        <ele>866.9</ele>
        <time>2021-08-14T07:42:15Z</time>
      </trkpt>
      <trkpt lat="44.05398" lon="3.42122">
        <ele>866.1</ele>
        <time>2021-08-14T07:42:17Z</time>
      </trkpt>
      <trkpt lat="44.05396" lon="3.42114">
        <ele>865.7</ele>
        <time>2021-08-14T07:42:19Z</time>
      </trkpt>
      <trkpt lat="44.05394" lon="3.42109">
        <ele>865.6</ele>
        <time>2021-08-14T07:42:21Z</time>
      </trkpt>
      <trkpt lat="44.05391" lon="3.42103">
        <ele>865.5</ele>
        <time>2021-08-14T07:42:23Z</time>
      </trkpt>
      <trkpt lat="44.05387" lon="3.42096">
        <ele>865.4</ele>
        <time>2021-08-14T07:42:25Z</time>
      </trkpt>
      <trkpt lat="44.05383" lon="3.42092">
        <ele>865.5</ele>
        <time>2021-08-14T07:42:27Z</time>
      </trkpt>
      <trkpt lat="44.05378" lon="3.42087">
        <ele>865.6</ele>
        <time>2021-08-14T07:42:29Z</time>
      </trkpt>
      <trkpt lat="44.05373" lon="3.42085">
        <ele>865.9</ele>
        <time>2021-08-14T07:42:31Z</time>
      </trkpt>
      <trkpt lat="44.05367" lon="3.42083">
        <ele>866.5</ele>
        <time>2021-08-14T07:42:33Z</time>
      </trkpt>
      <trkpt lat="44.05361" lon="3.42083">
        <ele>867.2</ele>
        <time>2021-08-14T07:42:35Z</time>
      </trkpt>
      <trkpt lat="44.05355" lon="3.42084">
        <ele>868.2</ele>
        <time>2021-08-14T07:42:37Z</time>
      </trkpt>
      <trkpt lat="44.05349" lon="3.42084">
        <ele>869.1</ele>
        <time>2021-08-14T07:42:39Z</time>
      </trkpt>
      <trkpt lat="44.05343" lon="3.42086">
        <ele>870.2</ele>
        <time>2021-08-14T07:42:41Z</time>
      </trkpt>
      <trkpt lat="44.05338" lon="3.42087">
        <ele>871.3</ele>
        <time>2021-08-14T07:42:43Z</time>
      </trkpt>
      <trkpt lat="44.05332" lon="3.42089">
        <ele>872.5</ele>
        <time>2021-08-14T07:42:45Z</time>
      </trkpt>
      <trkpt lat="44.05327" lon="3.42089">
        <ele>873.6</ele>
        <time>2021-08-14T07:42:47Z</time>
      </trkpt>
      <trkpt lat="44.05321" lon="3.4209">
        <ele>875.1</ele>
        <time>2021-08-14T07:42:49Z</time>
      </trkpt>
      <trkpt lat="44.05316" lon="3.4209">
        <ele>876.2</ele>
        <time>2021-08-14T07:42:51Z</time>
      </trkpt>
      <trkpt lat="44.0531" lon="3.42087">
        <ele>876.8</ele>
        <time>2021-08-14T07:42:53Z</time>
      </trkpt>
      <trkpt lat="44.05306" lon="3.42086">
        <ele>877.5</ele>
        <time>2021-08-14T07:42:55Z</time>
      </trkpt>
      <trkpt lat="44.05301" lon="3.42083">
        <ele>877.8</ele>
        <time>2021-08-14T07:42:57Z</time>
      </trkpt>
      <trkpt lat="44.05297" lon="3.4208">
        <ele>878</ele>
        <time>2021-08-14T07:42:59Z</time>
      </trkpt>
      <trkpt lat="44.05292" lon="3.42077">
        <ele>877.9</ele>
        <time>2021-08-14T07:43:01Z</time>
      </trkpt>
      <trkpt lat="44.05288" lon="3.42075">
        <ele>878</ele>
        <time>2021-08-14T07:43:03Z</time>
      </trkpt>
      <trkpt lat="44.05284" lon="3.42068">
        <ele>876.9</ele>
        <time>2021-08-14T07:43:05Z</time>
      </trkpt>
      <trkpt lat="44.0528" lon="3.42064">
        <ele>876.6</ele>
        <time>2021-08-14T07:43:07Z</time>
      </trkpt>
      <trkpt lat="44.05276" lon="3.4206">
        <ele>876</ele>
        <time>2021-08-14T07:43:09Z</time>
      </trkpt>
      <trkpt lat="44.05272" lon="3.42056">
        <ele>875.5</ele>
        <time>2021-08-14T07:43:11Z</time>
      </trkpt>
      <trkpt lat="44.05268" lon="3.42051">
        <ele>875</ele>
        <time>2021-08-14T07:43:13Z</time>
      </trkpt>
      <trkpt lat="44.05263" lon="3.42047">
        <ele>874.6</ele>
        <time>2021-08-14T07:43:15Z</time>
      </trkpt>
      <trkpt lat="44.05259" lon="3.42044">
        <ele>874.5</ele>
        <time>2021-08-14T07:43:17Z</time>
      </trkpt>
      <trkpt lat="44.05254" lon="3.42041">
        <ele>874.5</ele>
        <time>2021-08-14T07:43:19Z</time>
      </trkpt>
      <trkpt lat="44.05249" lon="3.42038">
        <ele>874.5</ele>
        <time>2021-08-14T07:43:21Z</time>
      </trkpt>
      <trkpt lat="44.05243" lon="3.42037">
        <ele>874.7</ele>
        <time>2021-08-14T07:43:23Z</time>
      </trkpt>
      <trkpt lat="44.05238" lon="3.42036">
        <ele>875.1</ele>
        <time>2021-08-14T07:43:25Z</time>
      </trkpt>
      <trkpt lat="44.05233" lon="3.42036">
        <ele>875.6</ele>
        <time>2021-08-14T07:43:27Z</time>
      </trkpt>
      <trkpt lat="44.05227" lon="3.42036">
        <ele>876.2</ele>
        <time>2021-08-14T07:43:29Z</time>
      </trkpt>
      <trkpt lat="44.05222" lon="3.42036">
        <ele>876.6</ele>
        <time>2021-08-14T07:43:31Z</time>
      </trkpt>
      <trkpt lat="44.05217" lon="3.42035">
        <ele>877.2</ele>
        <time>2021-08-14T07:43:33Z</time>
      </trkpt>
      <trkpt lat="44.05211" lon="3.42036">
        <ele>877.9</ele>
        <time>2021-08-14T07:43:35Z</time>
      </trkpt>
      <trkpt lat="44.05206" lon="3.42037">
        <ele>879</ele>
        <time>2021-08-14T07:43:37Z</time>
      </trkpt>
      <trkpt lat="44.05201" lon="3.42038">
        <ele>880</ele>
        <time>2021-08-14T07:43:39Z</time>
      </trkpt>
      <trkpt lat="44.05195" lon="3.42039">
        <ele>880.9</ele>
        <time>2021-08-14T07:43:41Z</time>
      </trkpt>
      <trkpt lat="44.0519" lon="3.42041">
        <ele>882.1</ele>
        <time>2021-08-14T07:43:43Z</time>
      </trkpt>
      <trkpt lat="44.05185" lon="3.42043">
        <ele>883.3</ele>
        <time>2021-08-14T07:43:45Z</time>
      </trkpt>
      <trkpt lat="44.0518" lon="3.42043">
        <ele>884.1</ele>
        <time>2021-08-14T07:43:47Z</time>
      </trkpt>
      <trkpt lat="44.05174" lon="3.42044">
        <ele>885.1</ele>
        <time>2021-08-14T07:43:49Z</time>
      </trkpt>
      <trkpt lat="44.05169" lon="3.42043">
        <ele>885.4</ele>
        <time>2021-08-14T07:43:51Z</time>
      </trkpt>
      <trkpt lat="44.05163" lon="3.42042">
        <ele>885.7</ele>
        <time>2021-08-14T07:43:53Z</time>
      </trkpt>
      <trkpt lat="44.05159" lon="3.42039">
        <ele>885.3</ele>
        <time>2021-08-14T07:43:55Z</time>
      </trkpt>
      <trkpt lat="44.05155" lon="3.42036">
        <ele>884.8</ele>
        <time>2021-08-14T07:43:57Z</time>
      </trkpt>
      <trkpt lat="44.05151" lon="3.42032">
        <ele>884</ele>
        <time>2021-08-14T07:43:59Z</time>
      </trkpt>
      <trkpt lat="44.05148" lon="3.42028">
        <ele>883.3</ele>
        <time>2021-08-14T07:44:01Z</time>
      </trkpt>
      <trkpt lat="44.05144" lon="3.42024">
        <ele>882.6</ele>
        <time>2021-08-14T07:44:03Z</time>
      </trkpt>
      <trkpt lat="44.0514" lon="3.42022">
        <ele>882.5</ele>
        <time>2021-08-14T07:44:05Z</time>
      </trkpt>
      <trkpt lat="44.05135" lon="3.4202">
        <ele>882.6</ele>
        <time>2021-08-14T07:44:07Z</time>
      </trkpt>
      <trkpt lat="44.0513" lon="3.42018">
        <ele>882.7</ele>
        <time>2021-08-14T07:44:09Z</time>
      </trkpt>
      <trkpt lat="44.05126" lon="3.42016">
        <ele>883</ele>
        <time>2021-08-14T07:44:11Z</time>
      </trkpt>
      <trkpt lat="44.0512" lon="3.42015">
        <ele>883.5</ele>
        <time>2021-08-14T07:44:13Z</time>
      </trkpt>
      <trkpt lat="44.05115" lon="3.42012">
        <ele>883.8</ele>
        <time>2021-08-14T07:44:15Z</time>
      </trkpt>
      <trkpt lat="44.0511" lon="3.42011">
        <ele>884.5</ele>
        <time>2021-08-14T07:44:17Z</time>
      </trkpt>
      <trkpt lat="44.05104" lon="3.4201">
        <ele>885.2</ele>
        <time>2021-08-14T07:44:19Z</time>
      </trkpt>
      <trkpt lat="44.05098" lon="3.4201">
        <ele>886</ele>
        <time>2021-08-14T07:44:21Z</time>
      </trkpt>
      <trkpt lat="44.05093" lon="3.42008">
        <ele>886.3</ele>
        <time>2021-08-14T07:44:23Z</time>
      </trkpt>
      <trkpt lat="44.05088" lon="3.42007">
        <ele>887.2</ele>
        <time>2021-08-14T07:44:25Z</time>
      </trkpt>
      <trkpt lat="44.05083" lon="3.42007">
        <ele>888</ele>
        <time>2021-08-14T07:44:27Z</time>
      </trkpt>
      <trkpt lat="44.05078" lon="3.42005">
        <ele>888</ele>
        <time>2021-08-14T07:44:29Z</time>
      </trkpt>
      <trkpt lat="44.05072" lon="3.42003">
        <ele>888</ele>
        <time>2021-08-14T07:44:31Z</time>
      </trkpt>
      <trkpt lat="44.05067" lon="3.42003">
        <ele>888.6</ele>
        <time>2021-08-14T07:44:33Z</time>
      </trkpt>
      <trkpt lat="44.05062" lon="3.42003">
        <ele>889.1</ele>
        <time>2021-08-14T07:44:35Z</time>
      </trkpt>
      <trkpt lat="44.05058" lon="3.42003">
        <ele>889.6</ele>
        <time>2021-08-14T07:44:37Z</time>
      </trkpt>
      <trkpt lat="44.05052" lon="3.42002">
        <ele>889.9</ele>
        <time>2021-08-14T07:44:39Z</time>
      </trkpt>
      <trkpt lat="44.05047" lon="3.42">
        <ele>889.9</ele>
        <time>2021-08-14T07:44:41Z</time>
      </trkpt>
      <trkpt lat="44.05042" lon="3.41999">
        <ele>890.3</ele>
        <time>2021-08-14T07:44:43Z</time>
      </trkpt>
      <trkpt lat="44.05037" lon="3.41998">
        <ele>890.8</ele>
        <time>2021-08-14T07:44:45Z</time>
      </trkpt>
      <trkpt lat="44.05033" lon="3.41998">
        <ele>891.3</ele>
        <time>2021-08-14T07:44:47Z</time>
      </trkpt>
      <trkpt lat="44.05027" lon="3.41997">
        <ele>891.8</ele>
        <time>2021-08-14T07:44:49Z</time>
      </trkpt>
      <trkpt lat="44.05022" lon="3.41995">
        <ele>892.2</ele>
        <time>2021-08-14T07:44:51Z</time>
      </trkpt>
      <trkpt lat="44.05016" lon="3.41991">
        <ele>892.7</ele>
        <time>2021-08-14T07:44:53Z</time>
      </trkpt>
      <trkpt lat="44.05012" lon="3.41985">
        <ele>892.8</ele>
        <time>2021-08-14T07:44:55Z</time>
      </trkpt>
      <trkpt lat="44.05009" lon="3.41978">
        <ele>892.8</ele>
        <time>2021-08-14T07:44:57Z</time>
      </trkpt>
      <trkpt lat="44.05008" lon="3.41968">
        <ele>892.4</ele>
        <time>2021-08-14T07:44:59Z</time>
      </trkpt>
      <trkpt lat="44.0501" lon="3.4196">
        <ele>891.7</ele>
        <time>2021-08-14T07:45:01Z</time>
      </trkpt>
      <trkpt lat="44.05013" lon="3.41954">
        <ele>890.7</ele>
        <time>2021-08-14T07:45:03Z</time>
      </trkpt>
      <trkpt lat="44.05016" lon="3.41947">
        <ele>889.7</ele>
        <time>2021-08-14T07:45:05Z</time>
      </trkpt>
      <trkpt lat="44.05018" lon="3.4194">
        <ele>888.6</ele>
        <time>2021-08-14T07:45:07Z</time>
      </trkpt>
      <trkpt lat="44.05021" lon="3.41933">
        <ele>887.5</ele>
        <time>2021-08-14T07:45:09Z</time>
      </trkpt>
      <trkpt lat="44.05024" lon="3.41926">
        <ele>886.2</ele>
        <time>2021-08-14T07:45:11Z</time>
      </trkpt>
      <trkpt lat="44.05025" lon="3.41918">
        <ele>885.1</ele>
        <time>2021-08-14T07:45:13Z</time>
      </trkpt>
      <trkpt lat="44.05028" lon="3.4191">
        <ele>884.4</ele>
        <time>2021-08-14T07:45:15Z</time>
      </trkpt>
      <trkpt lat="44.0503" lon="3.41902">
        <ele>884</ele>
        <time>2021-08-14T07:45:17Z</time>
      </trkpt>
      <trkpt lat="44.05033" lon="3.41894">
        <ele>883.6</ele>
        <time>2021-08-14T07:45:19Z</time>
      </trkpt>
      <trkpt lat="44.05036" lon="3.41886">
        <ele>883.1</ele>
        <time>2021-08-14T07:45:21Z</time>
      </trkpt>
      <trkpt lat="44.05038" lon="3.41877">
        <ele>882.8</ele>
        <time>2021-08-14T07:45:23Z</time>
      </trkpt>
      <trkpt lat="44.05041" lon="3.41869">
        <ele>882.4</ele>
        <time>2021-08-14T07:45:25Z</time>
      </trkpt>
      <trkpt lat="44.05043" lon="3.41861">
        <ele>882.3</ele>
        <time>2021-08-14T07:45:27Z</time>
      </trkpt>
      <trkpt lat="44.05044" lon="3.41853">
        <ele>882.1</ele>
        <time>2021-08-14T07:45:29Z</time>
      </trkpt>
      <trkpt lat="44.05046" lon="3.41845">
        <ele>882</ele>
        <time>2021-08-14T07:45:31Z</time>
      </trkpt>
      <trkpt lat="44.05048" lon="3.41837">
        <ele>881.9</ele>
        <time>2021-08-14T07:45:33Z</time>
      </trkpt>
      <trkpt lat="44.05049" lon="3.41828">
        <ele>881.9</ele>
        <time>2021-08-14T07:45:35Z</time>
      </trkpt>
      <trkpt lat="44.05051" lon="3.4182">
        <ele>881.9</ele>
        <time>2021-08-14T07:45:37Z</time>
      </trkpt>
      <trkpt lat="44.05052" lon="3.41813">
        <ele>881.9</ele>
        <time>2021-08-14T07:45:39Z</time>
      </trkpt>
      <trkpt lat="44.05053" lon="3.41806">
        <ele>882</ele>
        <time>2021-08-14T07:45:41Z</time>
      </trkpt>
      <trkpt lat="44.05055" lon="3.41799">
        <ele>882</ele>
        <time>2021-08-14T07:45:43Z</time>
      </trkpt>
      <trkpt lat="44.05056" lon="3.41792">
        <ele>882.1</ele>
        <time>2021-08-14T07:45:45Z</time>
      </trkpt>
      <trkpt lat="44.05057" lon="3.41784">
        <ele>882.3</ele>
        <time>2021-08-14T07:45:47Z</time>
      </trkpt>
      <trkpt lat="44.05058" lon="3.41777">
        <ele>882.5</ele>
        <time>2021-08-14T07:45:49Z</time>
      </trkpt>
      <trkpt lat="44.05058" lon="3.4177">
        <ele>882.9</ele>
        <time>2021-08-14T07:45:51Z</time>
      </trkpt>
      <trkpt lat="44.05058" lon="3.41763">
        <ele>883.2</ele>
        <time>2021-08-14T07:45:53Z</time>
      </trkpt>
      <trkpt lat="44.05056" lon="3.41756">
        <ele>883.7</ele>
        <time>2021-08-14T07:45:55Z</time>
      </trkpt>
      <trkpt lat="44.05055" lon="3.41749">
        <ele>884</ele>
        <time>2021-08-14T07:45:57Z</time>
      </trkpt>
      <trkpt lat="44.05053" lon="3.41742">
        <ele>884</ele>
        <time>2021-08-14T07:45:59Z</time>
      </trkpt>
      <trkpt lat="44.05053" lon="3.41734">
        <ele>883.9</ele>
        <time>2021-08-14T07:46:01Z</time>
      </trkpt>
      <trkpt lat="44.05053" lon="3.41726">
        <ele>883.8</ele>
        <time>2021-08-14T07:46:03Z</time>
      </trkpt>
      <trkpt lat="44.05054" lon="3.41719">
        <ele>883.7</ele>
        <time>2021-08-14T07:46:05Z</time>
      </trkpt>
      <trkpt lat="44.05058" lon="3.41713">
        <ele>883.8</ele>
        <time>2021-08-14T07:46:07Z</time>
      </trkpt>
      <trkpt lat="44.05061" lon="3.41707">
        <ele>883.9</ele>
        <time>2021-08-14T07:46:09Z</time>
      </trkpt>
      <trkpt lat="44.05065" lon="3.41702">
        <ele>884.3</ele>
        <time>2021-08-14T07:46:11Z</time>
      </trkpt>
      <trkpt lat="44.05069" lon="3.41697">
        <ele>884.7</ele>
        <time>2021-08-14T07:46:13Z</time>
      </trkpt>
      <trkpt lat="44.05073" lon="3.41691">
        <ele>885.3</ele>
        <time>2021-08-14T07:46:15Z</time>
      </trkpt>
      <trkpt lat="44.05077" lon="3.41686">
        <ele>885.9</ele>
        <time>2021-08-14T07:46:17Z</time>
      </trkpt>
      <trkpt lat="44.05081" lon="3.41681">
        <ele>886.7</ele>
        <time>2021-08-14T07:46:19Z</time>
      </trkpt>
      <trkpt lat="44.05085" lon="3.41676">
        <ele>887.2</ele>
        <time>2021-08-14T07:46:21Z</time>
      </trkpt>
      <trkpt lat="44.05088" lon="3.41671">
        <ele>887.2</ele>
        <time>2021-08-14T07:46:23Z</time>
      </trkpt>
      <trkpt lat="44.05092" lon="3.41665">
        <ele>887.1</ele>
        <time>2021-08-14T07:46:25Z</time>
      </trkpt>
      <trkpt lat="44.05095" lon="3.41661">
        <ele>886.6</ele>
        <time>2021-08-14T07:46:27Z</time>
      </trkpt>
      <trkpt lat="44.05098" lon="3.41656">
        <ele>886.2</ele>
        <time>2021-08-14T07:46:29Z</time>
      </trkpt>
      <trkpt lat="44.05102" lon="3.41651">
        <ele>885.9</ele>
        <time>2021-08-14T07:46:31Z</time>
      </trkpt>
      <trkpt lat="44.05105" lon="3.41645">
        <ele>885.7</ele>
        <time>2021-08-14T07:46:33Z</time>
      </trkpt>
      <trkpt lat="44.05108" lon="3.41641">
        <ele>885.6</ele>
        <time>2021-08-14T07:46:35Z</time>
      </trkpt>
      <trkpt lat="44.05111" lon="3.41638">
        <ele>885.6</ele>
        <time>2021-08-14T07:46:37Z</time>
      </trkpt>
      <trkpt lat="44.05114" lon="3.41636">
        <ele>885.5</ele>
        <time>2021-08-14T07:46:39Z</time>
      </trkpt>
      <trkpt lat="44.05118" lon="3.41636">
        <ele>885.5</ele>
        <time>2021-08-14T07:46:41Z</time>
      </trkpt>
      <trkpt lat="44.05121" lon="3.41635">
        <ele>885.5</ele>
        <time>2021-08-14T07:46:43Z</time>
      </trkpt>
      <trkpt lat="44.0512" lon="3.41631">
        <ele>885.7</ele>
        <time>2021-08-14T07:46:45Z</time>
      </trkpt>
      <trkpt lat="44.05119" lon="3.41627">
        <ele>885.8</ele>
        <time>2021-08-14T07:46:47Z</time>
      </trkpt>
      <trkpt lat="44.05116" lon="3.41622">
        <ele>886</ele>
        <time>2021-08-14T07:46:49Z</time>
      </trkpt>
      <trkpt lat="44.0511" lon="3.41621">
        <ele>885.9</ele>
        <time>2021-08-14T07:46:51Z</time>
      </trkpt>
      <trkpt lat="44.05106" lon="3.41623">
        <ele>885.8</ele>
        <time>2021-08-14T07:46:53Z</time>
      </trkpt>
      <trkpt lat="44.05103" lon="3.41621">
        <ele>885.7</ele>
        <time>2021-08-14T07:46:55Z</time>
      </trkpt>
      <trkpt lat="44.051" lon="3.4162">
        <ele>885.6</ele>
        <time>2021-08-14T07:46:57Z</time>
      </trkpt>
      <trkpt lat="44.05099" lon="3.41619">
        <ele>885.6</ele>
        <time>2021-08-14T07:46:59Z</time>
      </trkpt>
      <trkpt lat="44.05099" lon="3.41619">
        <ele>885.6</ele>
        <time>2021-08-14T07:47:01Z</time>
      </trkpt>
      <trkpt lat="44.05099" lon="3.41619">
        <ele>885.6</ele>
        <time>2021-08-14T07:47:03Z</time>
      </trkpt>
      <trkpt lat="44.051" lon="3.41619">
        <ele>885.6</ele>
        <time>2021-08-14T07:47:05Z</time>
      </trkpt>
      <trkpt lat="44.051" lon="3.4162">
        <ele>885.6</ele>
        <time>2021-08-14T07:47:07Z</time>
      </trkpt>
      <trkpt lat="44.0511" lon="3.41625">
        <ele>885.8</ele>
        <time>2021-08-14T07:51:21Z</time>
      </trkpt>
      <trkpt lat="44.05113" lon="3.41625">
        <ele>885.8</ele>
        <time>2021-08-14T07:51:23Z</time>
      </trkpt>
      <trkpt lat="44.05116" lon="3.41624">
        <ele>885.9</ele>
        <time>2021-08-14T07:51:25Z</time>
      </trkpt>
      <trkpt lat="44.05118" lon="3.41621">
        <ele>886.1</ele>
        <time>2021-08-14T07:51:27Z</time>
      </trkpt>
      <trkpt lat="44.0512" lon="3.41616">
        <ele>886.4</ele>
        <time>2021-08-14T07:51:29Z</time>
      </trkpt>
      <trkpt lat="44.05122" lon="3.4161">
        <ele>886.7</ele>
        <time>2021-08-14T07:51:31Z</time>
      </trkpt>
      <trkpt lat="44.05123" lon="3.41604">
        <ele>887.1</ele>
        <time>2021-08-14T07:51:33Z</time>
      </trkpt>
      <trkpt lat="44.05123" lon="3.41597">
        <ele>887.5</ele>
        <time>2021-08-14T07:51:35Z</time>
      </trkpt>
      <trkpt lat="44.05119" lon="3.41591">
        <ele>887.4</ele>
        <time>2021-08-14T07:51:37Z</time>
      </trkpt>
      <trkpt lat="44.05115" lon="3.4159">
        <ele>887</ele>
        <time>2021-08-14T07:51:39Z</time>
      </trkpt>
      <trkpt lat="44.0511" lon="3.41593">
        <ele>886.4</ele>
        <time>2021-08-14T07:51:41Z</time>
      </trkpt>
      <trkpt lat="44.05105" lon="3.41599">
        <ele>885.8</ele>
        <time>2021-08-14T07:51:43Z</time>
      </trkpt>
      <trkpt lat="44.05098" lon="3.41606">
        <ele>885.3</ele>
        <time>2021-08-14T07:51:45Z</time>
      </trkpt>
      <trkpt lat="44.0509" lon="3.41612">
        <ele>885</ele>
        <time>2021-08-14T07:51:47Z</time>
      </trkpt>
      <trkpt lat="44.05082" lon="3.41618">
        <ele>884.7</ele>
        <time>2021-08-14T07:51:49Z</time>
      </trkpt>
      <trkpt lat="44.05074" lon="3.41626">
        <ele>883.5</ele>
        <time>2021-08-14T07:51:51Z</time>
      </trkpt>
      <trkpt lat="44.05066" lon="3.41635">
        <ele>882.6</ele>
        <time>2021-08-14T07:51:53Z</time>
      </trkpt>
      <trkpt lat="44.05058" lon="3.41645">
        <ele>881.9</ele>
        <time>2021-08-14T07:51:55Z</time>
      </trkpt>
      <trkpt lat="44.0505" lon="3.41657">
        <ele>881.4</ele>
        <time>2021-08-14T07:51:57Z</time>
      </trkpt>
      <trkpt lat="44.0504" lon="3.41669">
        <ele>880.9</ele>
        <time>2021-08-14T07:51:59Z</time>
      </trkpt>
      <trkpt lat="44.0503" lon="3.41682">
        <ele>880.3</ele>
        <time>2021-08-14T07:52:01Z</time>
      </trkpt>
      <trkpt lat="44.0502" lon="3.41695">
        <ele>880.5</ele>
        <time>2021-08-14T07:52:03Z</time>
      </trkpt>
      <trkpt lat="44.0501" lon="3.41708">
        <ele>881.4</ele>
        <time>2021-08-14T07:52:05Z</time>
      </trkpt>
      <trkpt lat="44.04999" lon="3.4172">
        <ele>882.7</ele>
        <time>2021-08-14T07:52:07Z</time>
      </trkpt>
      <trkpt lat="44.04988" lon="3.41731">
        <ele>881</ele>
        <time>2021-08-14T07:52:09Z</time>
      </trkpt>
      <trkpt lat="44.04977" lon="3.41743">
        <ele>879.5</ele>
        <time>2021-08-14T07:52:11Z</time>
      </trkpt>
      <trkpt lat="44.04966" lon="3.41755">
        <ele>877.6</ele>
        <time>2021-08-14T07:52:13Z</time>
      </trkpt>
      <trkpt lat="44.04956" lon="3.4177">
        <ele>876.1</ele>
        <time>2021-08-14T07:52:15Z</time>
      </trkpt>
      <trkpt lat="44.04945" lon="3.41786">
        <ele>874.8</ele>
        <time>2021-08-14T07:52:17Z</time>
      </trkpt>
      <trkpt lat="44.04932" lon="3.41796">
        <ele>872.9</ele>
        <time>2021-08-14T07:52:19Z</time>
      </trkpt>
      <trkpt lat="44.04919" lon="3.41807">
        <ele>871.2</ele>
        <time>2021-08-14T07:52:21Z</time>
      </trkpt>
      <trkpt lat="44.04909" lon="3.4182">
        <ele>869.9</ele>
        <time>2021-08-14T07:52:23Z</time>
      </trkpt>
      <trkpt lat="44.04899" lon="3.41832">
        <ele>868.3</ele>
        <time>2021-08-14T07:52:25Z</time>
      </trkpt>
      <trkpt lat="44.04891" lon="3.41846">
        <ele>867.5</ele>
        <time>2021-08-14T07:52:27Z</time>
      </trkpt>
      <trkpt lat="44.04886" lon="3.41862">
        <ele>868.3</ele>
        <time>2021-08-14T07:52:29Z</time>
      </trkpt>
      <trkpt lat="44.04885" lon="3.41879">
        <ele>870.2</ele>
        <time>2021-08-14T07:52:31Z</time>
      </trkpt>
      <trkpt lat="44.04882" lon="3.41896">
        <ele>871.9</ele>
        <time>2021-08-14T07:52:33Z</time>
      </trkpt>
      <trkpt lat="44.04882" lon="3.41914">
        <ele>874.5</ele>
        <time>2021-08-14T07:52:35Z</time>
      </trkpt>
      <trkpt lat="44.04879" lon="3.41933">
        <ele>876.7</ele>
        <time>2021-08-14T07:52:37Z</time>
      </trkpt>
      <trkpt lat="44.04872" lon="3.41949">
        <ele>877.9</ele>
        <time>2021-08-14T07:52:39Z</time>
      </trkpt>
      <trkpt lat="44.04862" lon="3.4196">
        <ele>877.8</ele>
        <time>2021-08-14T07:52:41Z</time>
      </trkpt>
      <trkpt lat="44.0485" lon="3.41965">
        <ele>876.1</ele>
        <time>2021-08-14T07:52:43Z</time>
      </trkpt>
      <trkpt lat="44.04837" lon="3.41969">
        <ele>874.2</ele>
        <time>2021-08-14T07:52:45Z</time>
      </trkpt>
      <trkpt lat="44.04824" lon="3.4197">
        <ele>872.6</ele>
        <time>2021-08-14T07:52:47Z</time>
      </trkpt>
      <trkpt lat="44.0481" lon="3.41968">
        <ele>870.2</ele>
        <time>2021-08-14T07:52:49Z</time>
      </trkpt>
      <trkpt lat="44.04795" lon="3.41965">
        <ele>867.7</ele>
        <time>2021-08-14T07:52:51Z</time>
      </trkpt>
      <trkpt lat="44.04781" lon="3.41965">
        <ele>865.9</ele>
        <time>2021-08-14T07:52:53Z</time>
      </trkpt>
      <trkpt lat="44.04771" lon="3.41965">
        <ele>864.8</ele>
        <time>2021-08-14T07:52:55Z</time>
      </trkpt>
      <trkpt lat="44.0476" lon="3.41966">
        <ele>863.8</ele>
        <time>2021-08-14T07:52:57Z</time>
      </trkpt>
      <trkpt lat="44.0475" lon="3.41969">
        <ele>863.3</ele>
        <time>2021-08-14T07:52:59Z</time>
      </trkpt>
      <trkpt lat="44.0474" lon="3.41973">
        <ele>864.4</ele>
        <time>2021-08-14T07:53:01Z</time>
      </trkpt>
      <trkpt lat="44.04728" lon="3.41977">
        <ele>865.5</ele>
        <time>2021-08-14T07:53:03Z</time>
      </trkpt>
      <trkpt lat="44.04717" lon="3.41983">
        <ele>866.4</ele>
        <time>2021-08-14T07:53:05Z</time>
      </trkpt>
      <trkpt lat="44.04705" lon="3.4199">
        <ele>867.2</ele>
        <time>2021-08-14T07:53:07Z</time>
      </trkpt>
      <trkpt lat="44.04696" lon="3.42002">
        <ele>868</ele>
        <time>2021-08-14T07:53:09Z</time>
      </trkpt>
      <trkpt lat="44.04689" lon="3.42016">
        <ele>868.8</ele>
        <time>2021-08-14T07:53:11Z</time>
      </trkpt>
      <trkpt lat="44.04683" lon="3.4203">
        <ele>869.4</ele>
        <time>2021-08-14T07:53:13Z</time>
      </trkpt>
      <trkpt lat="44.04676" lon="3.42043">
        <ele>869.5</ele>
        <time>2021-08-14T07:53:15Z</time>
      </trkpt>
      <trkpt lat="44.04668" lon="3.42054">
        <ele>868.8</ele>
        <time>2021-08-14T07:53:17Z</time>
      </trkpt>
      <trkpt lat="44.04656" lon="3.42056">
        <ele>871.1</ele>
        <time>2021-08-14T07:53:19Z</time>
      </trkpt>
      <trkpt lat="44.04646" lon="3.42049">
        <ele>873.3</ele>
        <time>2021-08-14T07:53:21Z</time>
      </trkpt>
      <trkpt lat="44.04643" lon="3.42036">
        <ele>874.1</ele>
        <time>2021-08-14T07:53:23Z</time>
      </trkpt>
      <trkpt lat="44.04643" lon="3.42022">
        <ele>874.1</ele>
        <time>2021-08-14T07:53:25Z</time>
      </trkpt>
      <trkpt lat="44.04645" lon="3.42009">
        <ele>873.4</ele>
        <time>2021-08-14T07:53:27Z</time>
      </trkpt>
      <trkpt lat="44.04647" lon="3.41996">
        <ele>872.7</ele>
        <time>2021-08-14T07:53:29Z</time>
      </trkpt>
      <trkpt lat="44.04651" lon="3.41982">
        <ele>871.8</ele>
        <time>2021-08-14T07:53:31Z</time>
      </trkpt>
      <trkpt lat="44.04655" lon="3.41968">
        <ele>870.6</ele>
        <time>2021-08-14T07:53:33Z</time>
      </trkpt>
      <trkpt lat="44.0466" lon="3.41953">
        <ele>868.8</ele>
        <time>2021-08-14T07:53:35Z</time>
      </trkpt>
      <trkpt lat="44.04667" lon="3.41938">
        <ele>866</ele>
        <time>2021-08-14T07:53:37Z</time>
      </trkpt>
      <trkpt lat="44.04675" lon="3.41922">
        <ele>864.6</ele>
        <time>2021-08-14T07:53:39Z</time>
      </trkpt>
      <trkpt lat="44.04681" lon="3.41905">
        <ele>863.5</ele>
        <time>2021-08-14T07:53:41Z</time>
      </trkpt>
      <trkpt lat="44.04686" lon="3.41887">
        <ele>863</ele>
        <time>2021-08-14T07:53:43Z</time>
      </trkpt>
      <trkpt lat="44.0469" lon="3.41869">
        <ele>862.3</ele>
        <time>2021-08-14T07:53:45Z</time>
      </trkpt>
      <trkpt lat="44.04694" lon="3.4185">
        <ele>861.4</ele>
        <time>2021-08-14T07:53:47Z</time>
      </trkpt>
      <trkpt lat="44.04697" lon="3.41831">
        <ele>860.7</ele>
        <time>2021-08-14T07:53:49Z</time>
      </trkpt>
      <trkpt lat="44.04705" lon="3.41816">
        <ele>859.5</ele>
        <time>2021-08-14T07:53:51Z</time>
      </trkpt>
      <trkpt lat="44.04713" lon="3.41804">
        <ele>857.7</ele>
        <time>2021-08-14T07:53:53Z</time>
      </trkpt>
      <trkpt lat="44.0472" lon="3.41793">
        <ele>856.3</ele>
        <time>2021-08-14T07:53:55Z</time>
      </trkpt>
      <trkpt lat="44.04722" lon="3.41779">
        <ele>856.3</ele>
        <time>2021-08-14T07:53:57Z</time>
      </trkpt>
      <trkpt lat="44.0472" lon="3.41764">
        <ele>858.2</ele>
        <time>2021-08-14T07:53:59Z</time>
      </trkpt>
      <trkpt lat="44.04717" lon="3.41749">
        <ele>860.4</ele>
        <time>2021-08-14T07:54:01Z</time>
      </trkpt>
      <trkpt lat="44.04715" lon="3.41735">
        <ele>862.5</ele>
        <time>2021-08-14T07:54:03Z</time>
      </trkpt>
      <trkpt lat="44.04714" lon="3.41721">
        <ele>864.1</ele>
        <time>2021-08-14T07:54:05Z</time>
      </trkpt>
      <trkpt lat="44.04717" lon="3.41707">
        <ele>864.2</ele>
        <time>2021-08-14T07:54:07Z</time>
      </trkpt>
      <trkpt lat="44.04724" lon="3.41694">
        <ele>862.8</ele>
        <time>2021-08-14T07:54:09Z</time>
      </trkpt>
      <trkpt lat="44.04734" lon="3.41686">
        <ele>860.1</ele>
        <time>2021-08-14T07:54:11Z</time>
      </trkpt>
      <trkpt lat="44.04742" lon="3.41675">
        <ele>858.2</ele>
        <time>2021-08-14T07:54:13Z</time>
      </trkpt>
      <trkpt lat="44.0475" lon="3.41663">
        <ele>856.4</ele>
        <time>2021-08-14T07:54:15Z</time>
      </trkpt>
      <trkpt lat="44.04757" lon="3.41649">
        <ele>855.3</ele>
        <time>2021-08-14T07:54:17Z</time>
      </trkpt>
      <trkpt lat="44.04763" lon="3.41635">
        <ele>854.2</ele>
        <time>2021-08-14T07:54:19Z</time>
      </trkpt>
      <trkpt lat="44.04768" lon="3.41618">
        <ele>853.9</ele>
        <time>2021-08-14T07:54:21Z</time>
      </trkpt>
      <trkpt lat="44.04772" lon="3.416">
        <ele>853.2</ele>
        <time>2021-08-14T07:54:23Z</time>
      </trkpt>
      <trkpt lat="44.04775" lon="3.41583">
        <ele>852.9</ele>
        <time>2021-08-14T07:54:25Z</time>
      </trkpt>
      <trkpt lat="44.04778" lon="3.41565">
        <ele>852.3</ele>
        <time>2021-08-14T07:54:27Z</time>
      </trkpt>
      <trkpt lat="44.04781" lon="3.41548">
        <ele>851.3</ele>
        <time>2021-08-14T07:54:29Z</time>
      </trkpt>
      <trkpt lat="44.04783" lon="3.4153">
        <ele>850.5</ele>
        <time>2021-08-14T07:54:31Z</time>
      </trkpt>
      <trkpt lat="44.04784" lon="3.4151">
        <ele>850.5</ele>
        <time>2021-08-14T07:54:33Z</time>
      </trkpt>
      <trkpt lat="44.04781" lon="3.41487">
        <ele>851.1</ele>
        <time>2021-08-14T07:54:35Z</time>
      </trkpt>
      <trkpt lat="44.04775" lon="3.41465">
        <ele>851.2</ele>
        <time>2021-08-14T07:54:37Z</time>
      </trkpt>
      <trkpt lat="44.04773" lon="3.41442">
        <ele>849.9</ele>
        <time>2021-08-14T07:54:39Z</time>
      </trkpt>
      <trkpt lat="44.04773" lon="3.41419">
        <ele>847</ele>
        <time>2021-08-14T07:54:41Z</time>
      </trkpt>
      <trkpt lat="44.04775" lon="3.41396">
        <ele>841.6</ele>
        <time>2021-08-14T07:54:43Z</time>
      </trkpt>
      <trkpt lat="44.04776" lon="3.41374">
        <ele>836.3</ele>
        <time>2021-08-14T07:54:45Z</time>
      </trkpt>
      <trkpt lat="44.04776" lon="3.41353">
        <ele>832.6</ele>
        <time>2021-08-14T07:54:47Z</time>
      </trkpt>
      <trkpt lat="44.04771" lon="3.41335">
        <ele>831.2</ele>
        <time>2021-08-14T07:54:49Z</time>
      </trkpt>
      <trkpt lat="44.04764" lon="3.4132">
        <ele>828</ele>
        <time>2021-08-14T07:54:51Z</time>
      </trkpt>
      <trkpt lat="44.04752" lon="3.41312">
        <ele>828.7</ele>
        <time>2021-08-14T07:54:53Z</time>
      </trkpt>
      <trkpt lat="44.04737" lon="3.4131">
        <ele>830.4</ele>
        <time>2021-08-14T07:54:55Z</time>
      </trkpt>
      <trkpt lat="44.04721" lon="3.41314">
        <ele>834.6</ele>
        <time>2021-08-14T07:54:57Z</time>
      </trkpt>
      <trkpt lat="44.04706" lon="3.41317">
        <ele>838.2</ele>
        <time>2021-08-14T07:54:59Z</time>
      </trkpt>
      <trkpt lat="44.0469" lon="3.41317">
        <ele>840.3</ele>
        <time>2021-08-14T07:55:01Z</time>
      </trkpt>
      <trkpt lat="44.04675" lon="3.4131">
        <ele>839.1</ele>
        <time>2021-08-14T07:55:03Z</time>
      </trkpt>
      <trkpt lat="44.0466" lon="3.41301">
        <ele>838.5</ele>
        <time>2021-08-14T07:55:05Z</time>
      </trkpt>
      <trkpt lat="44.04645" lon="3.41296">
        <ele>842.3</ele>
        <time>2021-08-14T07:55:07Z</time>
      </trkpt>
      <trkpt lat="44.0463" lon="3.41291">
        <ele>846.4</ele>
        <time>2021-08-14T07:55:09Z</time>
      </trkpt>
      <trkpt lat="44.04617" lon="3.41285">
        <ele>849.5</ele>
        <time>2021-08-14T07:55:11Z</time>
      </trkpt>
      <trkpt lat="44.04608" lon="3.41271">
        <ele>848.3</ele>
        <time>2021-08-14T07:55:13Z</time>
      </trkpt>
      <trkpt lat="44.04605" lon="3.41249">
        <ele>842</ele>
        <time>2021-08-14T07:55:15Z</time>
      </trkpt>
      <trkpt lat="44.04606" lon="3.41226">
        <ele>834.8</ele>
        <time>2021-08-14T07:55:17Z</time>
      </trkpt>
      <trkpt lat="44.04605" lon="3.41203">
        <ele>828.5</ele>
        <time>2021-08-14T07:55:19Z</time>
      </trkpt>
      <trkpt lat="44.04604" lon="3.41183">
        <ele>823</ele>
        <time>2021-08-14T07:55:21Z</time>
      </trkpt>
      <trkpt lat="44.046" lon="3.41164">
        <ele>819.2</ele>
        <time>2021-08-14T07:55:23Z</time>
      </trkpt>
      <trkpt lat="44.04597" lon="3.41147">
        <ele>815</ele>
        <time>2021-08-14T07:55:25Z</time>
      </trkpt>
      <trkpt lat="44.04593" lon="3.41131">
        <ele>811.4</ele>
        <time>2021-08-14T07:55:27Z</time>
      </trkpt>
      <trkpt lat="44.04589" lon="3.41117">
        <ele>808.4</ele>
        <time>2021-08-14T07:55:29Z</time>
      </trkpt>
      <trkpt lat="44.04584" lon="3.41108">
        <ele>807.9</ele>
        <time>2021-08-14T07:55:31Z</time>
      </trkpt>
      <trkpt lat="44.04571" lon="3.41105">
        <ele>809.5</ele>
        <time>2021-08-14T07:55:33Z</time>
      </trkpt>
      <trkpt lat="44.04558" lon="3.41112">
        <ele>814.8</ele>
        <time>2021-08-14T07:55:35Z</time>
      </trkpt>
      <trkpt lat="44.04544" lon="3.41118">
        <ele>820.2</ele>
        <time>2021-08-14T07:55:37Z</time>
      </trkpt>
      <trkpt lat="44.04529" lon="3.41115">
        <ele>822.1</ele>
        <time>2021-08-14T07:55:39Z</time>
      </trkpt>
      <trkpt lat="44.04514" lon="3.41104">
        <ele>820</ele>
        <time>2021-08-14T07:55:41Z</time>
      </trkpt>
      <trkpt lat="44.045" lon="3.41093">
        <ele>818.1</ele>
        <time>2021-08-14T07:55:43Z</time>
      </trkpt>
      <trkpt lat="44.04484" lon="3.4109">
        <ele>823.6</ele>
        <time>2021-08-14T07:55:45Z</time>
      </trkpt>
      <trkpt lat="44.0447" lon="3.4108">
        <ele>826.5</ele>
        <time>2021-08-14T07:55:47Z</time>
      </trkpt>
      <trkpt lat="44.0446" lon="3.41062">
        <ele>824.8</ele>
        <time>2021-08-14T07:55:49Z</time>
      </trkpt>
      <trkpt lat="44.04457" lon="3.41039">
        <ele>818.6</ele>
        <time>2021-08-14T07:55:51Z</time>
      </trkpt>
      <trkpt lat="44.04454" lon="3.41016">
        <ele>812.5</ele>
        <time>2021-08-14T07:55:53Z</time>
      </trkpt>
      <trkpt lat="44.04447" lon="3.40995">
        <ele>809.2</ele>
        <time>2021-08-14T07:55:55Z</time>
      </trkpt>
      <trkpt lat="44.04438" lon="3.40975">
        <ele>807.3</ele>
        <time>2021-08-14T07:55:57Z</time>
      </trkpt>
      <trkpt lat="44.04431" lon="3.40954">
        <ele>803.9</ele>
        <time>2021-08-14T07:55:59Z</time>
      </trkpt>
      <trkpt lat="44.04429" lon="3.40933">
        <ele>797.2</ele>
        <time>2021-08-14T07:56:01Z</time>
      </trkpt>
      <trkpt lat="44.04431" lon="3.40915">
        <ele>789.6</ele>
        <time>2021-08-14T07:56:03Z</time>
      </trkpt>
      <trkpt lat="44.0443" lon="3.40898">
        <ele>784.2</ele>
        <time>2021-08-14T07:56:05Z</time>
      </trkpt>
      <trkpt lat="44.04422" lon="3.40886">
        <ele>783.4</ele>
        <time>2021-08-14T07:56:07Z</time>
      </trkpt>
      <trkpt lat="44.0441" lon="3.40886">
        <ele>787.1</ele>
        <time>2021-08-14T07:56:09Z</time>
      </trkpt>
      <trkpt lat="44.04399" lon="3.40899">
        <ele>793.7</ele>
        <time>2021-08-14T07:56:11Z</time>
      </trkpt>
      <trkpt lat="44.04385" lon="3.40908">
        <ele>800</ele>
        <time>2021-08-14T07:56:13Z</time>
      </trkpt>
      <trkpt lat="44.0437" lon="3.40914">
        <ele>804.9</ele>
        <time>2021-08-14T07:56:15Z</time>
      </trkpt>
      <trkpt lat="44.04357" lon="3.40912">
        <ele>807</ele>
        <time>2021-08-14T07:56:17Z</time>
      </trkpt>
      <trkpt lat="44.04345" lon="3.40902">
        <ele>805.2</ele>
        <time>2021-08-14T07:56:19Z</time>
      </trkpt>
      <trkpt lat="44.04337" lon="3.40881">
        <ele>798.9</ele>
        <time>2021-08-14T07:56:21Z</time>
      </trkpt>
      <trkpt lat="44.04328" lon="3.40866">
        <ele>797.1</ele>
        <time>2021-08-14T07:56:23Z</time>
      </trkpt>
      <trkpt lat="44.04315" lon="3.40856">
        <ele>801.8</ele>
        <time>2021-08-14T07:56:25Z</time>
      </trkpt>
      <trkpt lat="44.04305" lon="3.40841">
        <ele>803.5</ele>
        <time>2021-08-14T07:56:27Z</time>
      </trkpt>
      <trkpt lat="44.04299" lon="3.40821">
        <ele>802.7</ele>
        <time>2021-08-14T07:56:29Z</time>
      </trkpt>
      <trkpt lat="44.04301" lon="3.40797">
        <ele>797.6</ele>
        <time>2021-08-14T07:56:31Z</time>
      </trkpt>
      <trkpt lat="44.04304" lon="3.40774">
        <ele>791.3</ele>
        <time>2021-08-14T07:56:33Z</time>
      </trkpt>
      <trkpt lat="44.04304" lon="3.40752">
        <ele>788.1</ele>
        <time>2021-08-14T07:56:35Z</time>
      </trkpt>
      <trkpt lat="44.04297" lon="3.40729">
        <ele>791.2</ele>
        <time>2021-08-14T07:56:37Z</time>
      </trkpt>
      <trkpt lat="44.04287" lon="3.40705">
        <ele>796.2</ele>
        <time>2021-08-14T07:56:39Z</time>
      </trkpt>
      <trkpt lat="44.04278" lon="3.40682">
        <ele>800.3</ele>
        <time>2021-08-14T07:56:41Z</time>
      </trkpt>
      <trkpt lat="44.04273" lon="3.40664">
        <ele>801.3</ele>
        <time>2021-08-14T07:56:43Z</time>
      </trkpt>
      <trkpt lat="44.04312" lon="3.40645">
        <ele>775.4</ele>
        <time>2021-08-14T07:56:45Z</time>
      </trkpt>
      <trkpt lat="44.04319" lon="3.40627">
        <ele>769.2</ele>
        <time>2021-08-14T07:56:47Z</time>
      </trkpt>
      <trkpt lat="44.04325" lon="3.40611">
        <ele>764.6</ele>
        <time>2021-08-14T07:56:49Z</time>
      </trkpt>
      <trkpt lat="44.04327" lon="3.40596">
        <ele>762.2</ele>
        <time>2021-08-14T07:56:51Z</time>
      </trkpt>
      <trkpt lat="44.04322" lon="3.40579">
        <ele>761.7</ele>
        <time>2021-08-14T07:56:53Z</time>
      </trkpt>
      <trkpt lat="44.04311" lon="3.40564">
        <ele>760.9</ele>
        <time>2021-08-14T07:56:55Z</time>
      </trkpt>
      <trkpt lat="44.04298" lon="3.40549">
        <ele>760.6</ele>
        <time>2021-08-14T07:56:57Z</time>
      </trkpt>
      <trkpt lat="44.04285" lon="3.40534">
        <ele>759.9</ele>
        <time>2021-08-14T07:56:59Z</time>
      </trkpt>
      <trkpt lat="44.04274" lon="3.40521">
        <ele>759.5</ele>
        <time>2021-08-14T07:57:01Z</time>
      </trkpt>
      <trkpt lat="44.04261" lon="3.40511">
        <ele>760.4</ele>
        <time>2021-08-14T07:57:03Z</time>
      </trkpt>
      <trkpt lat="44.04248" lon="3.40504">
        <ele>762</ele>
        <time>2021-08-14T07:57:05Z</time>
      </trkpt>
      <trkpt lat="44.04232" lon="3.40499">
        <ele>760.9</ele>
        <time>2021-08-14T07:57:07Z</time>
      </trkpt>
      <trkpt lat="44.04215" lon="3.40497">
        <ele>761.4</ele>
        <time>2021-08-14T07:57:09Z</time>
      </trkpt>
      <trkpt lat="44.04198" lon="3.40494">
        <ele>761.8</ele>
        <time>2021-08-14T07:57:11Z</time>
      </trkpt>
      <trkpt lat="44.04182" lon="3.40491">
        <ele>761.9</ele>
        <time>2021-08-14T07:57:13Z</time>
      </trkpt>
      <trkpt lat="44.04166" lon="3.40489">
        <ele>763</ele>
        <time>2021-08-14T07:57:15Z</time>
      </trkpt>
      <trkpt lat="44.04151" lon="3.40488">
        <ele>767.9</ele>
        <time>2021-08-14T07:57:17Z</time>
      </trkpt>
      <trkpt lat="44.04137" lon="3.40481">
        <ele>770.2</ele>
        <time>2021-08-14T07:57:19Z</time>
      </trkpt>
      <trkpt lat="44.0413" lon="3.40461">
        <ele>766</ele>
        <time>2021-08-14T07:57:21Z</time>
      </trkpt>
      <trkpt lat="44.04128" lon="3.40437">
        <ele>758.6</ele>
        <time>2021-08-14T07:57:23Z</time>
      </trkpt>
      <trkpt lat="44.04128" lon="3.40415">
        <ele>751.2</ele>
        <time>2021-08-14T07:57:25Z</time>
      </trkpt>
      <trkpt lat="44.04126" lon="3.40392">
        <ele>747.5</ele>
        <time>2021-08-14T07:57:27Z</time>
      </trkpt>
      <trkpt lat="44.04125" lon="3.40369">
        <ele>743.5</ele>
        <time>2021-08-14T07:57:29Z</time>
      </trkpt>
      <trkpt lat="44.04123" lon="3.40345">
        <ele>739.6</ele>
        <time>2021-08-14T07:57:31Z</time>
      </trkpt>
      <trkpt lat="44.0412" lon="3.40323">
        <ele>737.1</ele>
        <time>2021-08-14T07:57:33Z</time>
      </trkpt>
      <trkpt lat="44.04117" lon="3.40303">
        <ele>734.6</ele>
        <time>2021-08-14T07:57:35Z</time>
      </trkpt>
      <trkpt lat="44.04117" lon="3.40281">
        <ele>731.3</ele>
        <time>2021-08-14T07:57:37Z</time>
      </trkpt>
      <trkpt lat="44.04117" lon="3.40263">
        <ele>727.9</ele>
        <time>2021-08-14T07:57:39Z</time>
      </trkpt>
      <trkpt lat="44.04114" lon="3.40247">
        <ele>725.8</ele>
        <time>2021-08-14T07:57:41Z</time>
      </trkpt>
      <trkpt lat="44.04103" lon="3.40234">
        <ele>725.9</ele>
        <time>2021-08-14T07:57:43Z</time>
      </trkpt>
      <trkpt lat="44.04087" lon="3.4023">
        <ele>729.7</ele>
        <time>2021-08-14T07:57:45Z</time>
      </trkpt>
      <trkpt lat="44.0407" lon="3.40236">
        <ele>728.5</ele>
        <time>2021-08-14T07:57:47Z</time>
      </trkpt>
      <trkpt lat="44.04054" lon="3.40246">
        <ele>726.7</ele>
        <time>2021-08-14T07:57:49Z</time>
      </trkpt>
      <trkpt lat="44.0404" lon="3.40259">
        <ele>727</ele>
        <time>2021-08-14T07:57:51Z</time>
      </trkpt>
      <trkpt lat="44.04028" lon="3.40273">
        <ele>728.6</ele>
        <time>2021-08-14T07:57:53Z</time>
      </trkpt>
      <trkpt lat="44.04015" lon="3.40287">
        <ele>730.5</ele>
        <time>2021-08-14T07:57:55Z</time>
      </trkpt>
      <trkpt lat="44.04001" lon="3.403">
        <ele>732.8</ele>
        <time>2021-08-14T07:57:57Z</time>
      </trkpt>
      <trkpt lat="44.03986" lon="3.4031">
        <ele>731.5</ele>
        <time>2021-08-14T07:57:59Z</time>
      </trkpt>
      <trkpt lat="44.0397" lon="3.40317">
        <ele>729</ele>
        <time>2021-08-14T07:58:01Z</time>
      </trkpt>
      <trkpt lat="44.03954" lon="3.40323">
        <ele>726.6</ele>
        <time>2021-08-14T07:58:03Z</time>
      </trkpt>
      <trkpt lat="44.03939" lon="3.40333">
        <ele>725.2</ele>
        <time>2021-08-14T07:58:05Z</time>
      </trkpt>
      <trkpt lat="44.03924" lon="3.40343">
        <ele>723.8</ele>
        <time>2021-08-14T07:58:07Z</time>
      </trkpt>
      <trkpt lat="44.0391" lon="3.40354">
        <ele>722.9</ele>
        <time>2021-08-14T07:58:09Z</time>
      </trkpt>
      <trkpt lat="44.03897" lon="3.40366">
        <ele>722.1</ele>
        <time>2021-08-14T07:58:11Z</time>
      </trkpt>
      <trkpt lat="44.03885" lon="3.40379">
        <ele>721.7</ele>
        <time>2021-08-14T07:58:13Z</time>
      </trkpt>
      <trkpt lat="44.03873" lon="3.40391">
        <ele>720.4</ele>
        <time>2021-08-14T07:58:15Z</time>
      </trkpt>
      <trkpt lat="44.0386" lon="3.40405">
        <ele>719.2</ele>
        <time>2021-08-14T07:58:17Z</time>
      </trkpt>
      <trkpt lat="44.03851" lon="3.40417">
        <ele>718.4</ele>
        <time>2021-08-14T07:58:19Z</time>
      </trkpt>
      <trkpt lat="44.03842" lon="3.40432">
        <ele>717.9</ele>
        <time>2021-08-14T07:58:21Z</time>
      </trkpt>
      <trkpt lat="44.03837" lon="3.40452">
        <ele>720.3</ele>
        <time>2021-08-14T07:58:23Z</time>
      </trkpt>
      <trkpt lat="44.03834" lon="3.40471">
        <ele>723.2</ele>
        <time>2021-08-14T07:58:25Z</time>
      </trkpt>
      <trkpt lat="44.03831" lon="3.40489">
        <ele>726.5</ele>
        <time>2021-08-14T07:58:27Z</time>
      </trkpt>
      <trkpt lat="44.03823" lon="3.40502">
        <ele>729.3</ele>
        <time>2021-08-14T07:58:29Z</time>
      </trkpt>
      <trkpt lat="44.03808" lon="3.40502">
        <ele>729</ele>
        <time>2021-08-14T07:58:31Z</time>
      </trkpt>
      <trkpt lat="44.03795" lon="3.40493">
        <ele>726.3</ele>
        <time>2021-08-14T07:58:33Z</time>
      </trkpt>
      <trkpt lat="44.03782" lon="3.40482">
        <ele>723.1</ele>
        <time>2021-08-14T07:58:35Z</time>
      </trkpt>
      <trkpt lat="44.03769" lon="3.4047">
        <ele>719.7</ele>
        <time>2021-08-14T07:58:37Z</time>
      </trkpt>
      <trkpt lat="44.03756" lon="3.40459">
        <ele>716</ele>
        <time>2021-08-14T07:58:39Z</time>
      </trkpt>
      <trkpt lat="44.03745" lon="3.40447">
        <ele>711.9</ele>
        <time>2021-08-14T07:58:41Z</time>
      </trkpt>
      <trkpt lat="44.03736" lon="3.40431">
        <ele>706.1</ele>
        <time>2021-08-14T07:58:43Z</time>
      </trkpt>
      <trkpt lat="44.0373" lon="3.40414">
        <ele>700.6</ele>
        <time>2021-08-14T07:58:45Z</time>
      </trkpt>
      <trkpt lat="44.03726" lon="3.40401">
        <ele>697.6</ele>
        <time>2021-08-14T07:58:47Z</time>
      </trkpt>
      <trkpt lat="44.03718" lon="3.40392">
        <ele>694.8</ele>
        <time>2021-08-14T07:58:49Z</time>
      </trkpt>
      <trkpt lat="44.03708" lon="3.4039">
        <ele>693</ele>
        <time>2021-08-14T07:58:51Z</time>
      </trkpt>
      <trkpt lat="44.03697" lon="3.40398">
        <ele>693</ele>
        <time>2021-08-14T07:58:53Z</time>
      </trkpt>
      <trkpt lat="44.0369" lon="3.40412">
        <ele>694.5</ele>
        <time>2021-08-14T07:58:55Z</time>
      </trkpt>
      <trkpt lat="44.03682" lon="3.40428">
        <ele>697.8</ele>
        <time>2021-08-14T07:58:57Z</time>
      </trkpt>
      <trkpt lat="44.03673" lon="3.40444">
        <ele>701.6</ele>
        <time>2021-08-14T07:58:59Z</time>
      </trkpt>
      <trkpt lat="44.03662" lon="3.40458">
        <ele>704.3</ele>
        <time>2021-08-14T07:59:01Z</time>
      </trkpt>
      <trkpt lat="44.03649" lon="3.4047">
        <ele>704.6</ele>
        <time>2021-08-14T07:59:03Z</time>
      </trkpt>
      <trkpt lat="44.03635" lon="3.40482">
        <ele>704.3</ele>
        <time>2021-08-14T07:59:05Z</time>
      </trkpt>
      <trkpt lat="44.03622" lon="3.40492">
        <ele>703.3</ele>
        <time>2021-08-14T07:59:07Z</time>
      </trkpt>
      <trkpt lat="44.03609" lon="3.40501">
        <ele>701.9</ele>
        <time>2021-08-14T07:59:09Z</time>
      </trkpt>
      <trkpt lat="44.03596" lon="3.40511">
        <ele>700.6</ele>
        <time>2021-08-14T07:59:11Z</time>
      </trkpt>
      <trkpt lat="44.03584" lon="3.40521">
        <ele>699.5</ele>
        <time>2021-08-14T07:59:13Z</time>
      </trkpt>
      <trkpt lat="44.03573" lon="3.40532">
        <ele>700</ele>
        <time>2021-08-14T07:59:15Z</time>
      </trkpt>
      <trkpt lat="44.03563" lon="3.40545">
        <ele>701.3</ele>
        <time>2021-08-14T07:59:17Z</time>
      </trkpt>
      <trkpt lat="44.03555" lon="3.40562">
        <ele>703.1</ele>
        <time>2021-08-14T07:59:19Z</time>
      </trkpt>
      <trkpt lat="44.03547" lon="3.40576">
        <ele>704.3</ele>
        <time>2021-08-14T07:59:21Z</time>
      </trkpt>
      <trkpt lat="44.03535" lon="3.40583">
        <ele>702.7</ele>
        <time>2021-08-14T07:59:23Z</time>
      </trkpt>
      <trkpt lat="44.0352" lon="3.4058">
        <ele>698.5</ele>
        <time>2021-08-14T07:59:25Z</time>
      </trkpt>
      <trkpt lat="44.03506" lon="3.40573">
        <ele>693.9</ele>
        <time>2021-08-14T07:59:27Z</time>
      </trkpt>
      <trkpt lat="44.03492" lon="3.40562">
        <ele>692.4</ele>
        <time>2021-08-14T07:59:29Z</time>
      </trkpt>
      <trkpt lat="44.03479" lon="3.40549">
        <ele>692.7</ele>
        <time>2021-08-14T07:59:31Z</time>
      </trkpt>
      <trkpt lat="44.03466" lon="3.40535">
        <ele>692.3</ele>
        <time>2021-08-14T07:59:33Z</time>
      </trkpt>
      <trkpt lat="44.03452" lon="3.40521">
        <ele>691.9</ele>
        <time>2021-08-14T07:59:35Z</time>
      </trkpt>
      <trkpt lat="44.03439" lon="3.40509">
        <ele>691.2</ele>
        <time>2021-08-14T07:59:37Z</time>
      </trkpt>
      <trkpt lat="44.03427" lon="3.40499">
        <ele>690.7</ele>
        <time>2021-08-14T07:59:39Z</time>
      </trkpt>
      <trkpt lat="44.03416" lon="3.40491">
        <ele>692.3</ele>
        <time>2021-08-14T07:59:41Z</time>
      </trkpt>
      <trkpt lat="44.03405" lon="3.40481">
        <ele>694.7</ele>
        <time>2021-08-14T07:59:43Z</time>
      </trkpt>
      <trkpt lat="44.03398" lon="3.40465">
        <ele>695.7</ele>
        <time>2021-08-14T07:59:45Z</time>
      </trkpt>
      <trkpt lat="44.034" lon="3.40444">
        <ele>694.9</ele>
        <time>2021-08-14T07:59:47Z</time>
      </trkpt>
      <trkpt lat="44.03412" lon="3.4043">
        <ele>693.3</ele>
        <time>2021-08-14T07:59:49Z</time>
      </trkpt>
      <trkpt lat="44.03427" lon="3.40431">
        <ele>691.5</ele>
        <time>2021-08-14T07:59:51Z</time>
      </trkpt>
      <trkpt lat="44.03441" lon="3.40437">
        <ele>689.8</ele>
        <time>2021-08-14T07:59:53Z</time>
      </trkpt>
      <trkpt lat="44.03455" lon="3.40436">
        <ele>688.1</ele>
        <time>2021-08-14T07:59:55Z</time>
      </trkpt>
      <trkpt lat="44.0347" lon="3.40425">
        <ele>686.5</ele>
        <time>2021-08-14T07:59:57Z</time>
      </trkpt>
      <trkpt lat="44.03486" lon="3.40411">
        <ele>686.7</ele>
        <time>2021-08-14T07:59:59Z</time>
      </trkpt>
      <trkpt lat="44.03503" lon="3.40396">
        <ele>689.3</ele>
        <time>2021-08-14T08:00:01Z</time>
      </trkpt>
      <trkpt lat="44.03521" lon="3.40384">
        <ele>689.3</ele>
        <time>2021-08-14T08:00:03Z</time>
      </trkpt>
      <trkpt lat="44.03539" lon="3.40371">
        <ele>687.5</ele>
        <time>2021-08-14T08:00:05Z</time>
      </trkpt>
      <trkpt lat="44.03557" lon="3.40357">
        <ele>684.1</ele>
        <time>2021-08-14T08:00:07Z</time>
      </trkpt>
      <trkpt lat="44.03575" lon="3.40339">
        <ele>679.2</ele>
        <time>2021-08-14T08:00:09Z</time>
      </trkpt>
      <trkpt lat="44.03592" lon="3.40322">
        <ele>678</ele>
        <time>2021-08-14T08:00:11Z</time>
      </trkpt>
      <trkpt lat="44.03604" lon="3.40303">
        <ele>679.7</ele>
        <time>2021-08-14T08:00:13Z</time>
      </trkpt>
      <trkpt lat="44.03613" lon="3.40282">
        <ele>680.6</ele>
        <time>2021-08-14T08:00:15Z</time>
      </trkpt>
      <trkpt lat="44.0362" lon="3.40263">
        <ele>680</ele>
        <time>2021-08-14T08:00:17Z</time>
      </trkpt>
      <trkpt lat="44.03625" lon="3.40244">
        <ele>679</ele>
        <time>2021-08-14T08:00:19Z</time>
      </trkpt>
      <trkpt lat="44.03628" lon="3.40226">
        <ele>678.1</ele>
        <time>2021-08-14T08:00:21Z</time>
      </trkpt>
      <trkpt lat="44.03631" lon="3.40209">
        <ele>677.3</ele>
        <time>2021-08-14T08:00:23Z</time>
      </trkpt>
      <trkpt lat="44.03633" lon="3.40193">
        <ele>676.7</ele>
        <time>2021-08-14T08:00:25Z</time>
      </trkpt>
      <trkpt lat="44.03634" lon="3.40176">
        <ele>676.5</ele>
        <time>2021-08-14T08:00:27Z</time>
      </trkpt>
      <trkpt lat="44.03635" lon="3.4016">
        <ele>677.4</ele>
        <time>2021-08-14T08:00:29Z</time>
      </trkpt>
      <trkpt lat="44.03636" lon="3.40143">
        <ele>680</ele>
        <time>2021-08-14T08:00:31Z</time>
      </trkpt>
      <trkpt lat="44.03638" lon="3.40128">
        <ele>681.8</ele>
        <time>2021-08-14T08:00:33Z</time>
      </trkpt>
      <trkpt lat="44.03644" lon="3.40114">
        <ele>682.7</ele>
        <time>2021-08-14T08:00:35Z</time>
      </trkpt>
      <trkpt lat="44.0365" lon="3.40104">
        <ele>682.9</ele>
        <time>2021-08-14T08:00:37Z</time>
      </trkpt>
      <trkpt lat="44.03657" lon="3.40095">
        <ele>682.8</ele>
        <time>2021-08-14T08:00:39Z</time>
      </trkpt>
      <trkpt lat="44.03662" lon="3.40088">
        <ele>683</ele>
        <time>2021-08-14T08:00:41Z</time>
      </trkpt>
      <trkpt lat="44.0367" lon="3.4008">
        <ele>682.7</ele>
        <time>2021-08-14T08:00:43Z</time>
      </trkpt>
      <trkpt lat="44.03673" lon="3.40072">
        <ele>683</ele>
        <time>2021-08-14T08:00:45Z</time>
      </trkpt>
      <trkpt lat="44.0368" lon="3.40066">
        <ele>681.8</ele>
        <time>2021-08-14T08:00:47Z</time>
      </trkpt>
      <trkpt lat="44.03687" lon="3.40059">
        <ele>680.6</ele>
        <time>2021-08-14T08:00:49Z</time>
      </trkpt>
      <trkpt lat="44.03694" lon="3.40051">
        <ele>679.6</ele>
        <time>2021-08-14T08:00:51Z</time>
      </trkpt>
      <trkpt lat="44.03701" lon="3.40045">
        <ele>677.9</ele>
        <time>2021-08-14T08:00:53Z</time>
      </trkpt>
      <trkpt lat="44.03708" lon="3.40039">
        <ele>676.3</ele>
        <time>2021-08-14T08:00:55Z</time>
      </trkpt>
      <trkpt lat="44.03715" lon="3.40033">
        <ele>674.1</ele>
        <time>2021-08-14T08:00:57Z</time>
      </trkpt>
      <trkpt lat="44.03721" lon="3.40027">
        <ele>672.4</ele>
        <time>2021-08-14T08:00:59Z</time>
      </trkpt>
      <trkpt lat="44.03727" lon="3.4002">
        <ele>671</ele>
        <time>2021-08-14T08:01:01Z</time>
      </trkpt>
      <trkpt lat="44.03731" lon="3.40011">
        <ele>670.2</ele>
        <time>2021-08-14T08:01:03Z</time>
      </trkpt>
      <trkpt lat="44.03733" lon="3.40001">
        <ele>670.5</ele>
        <time>2021-08-14T08:01:05Z</time>
      </trkpt>
      <trkpt lat="44.03734" lon="3.3999">
        <ele>670.6</ele>
        <time>2021-08-14T08:01:07Z</time>
      </trkpt>
      <trkpt lat="44.03733" lon="3.39978">
        <ele>671.2</ele>
        <time>2021-08-14T08:01:09Z</time>
      </trkpt>
      <trkpt lat="44.03736" lon="3.39967">
        <ele>670</ele>
        <time>2021-08-14T08:01:11Z</time>
      </trkpt>
      <trkpt lat="44.03736" lon="3.39956">
        <ele>670.7</ele>
        <time>2021-08-14T08:01:13Z</time>
      </trkpt>
      <trkpt lat="44.03734" lon="3.39944">
        <ele>671.9</ele>
        <time>2021-08-14T08:01:15Z</time>
      </trkpt>
      <trkpt lat="44.03733" lon="3.3993">
        <ele>672.5</ele>
        <time>2021-08-14T08:01:17Z</time>
      </trkpt>
      <trkpt lat="44.03733" lon="3.39917">
        <ele>672.9</ele>
        <time>2021-08-14T08:01:19Z</time>
      </trkpt>
      <trkpt lat="44.03733" lon="3.39904">
        <ele>673.7</ele>
        <time>2021-08-14T08:01:21Z</time>
      </trkpt>
      <trkpt lat="44.03732" lon="3.39891">
        <ele>674.6</ele>
        <time>2021-08-14T08:01:23Z</time>
      </trkpt>
      <trkpt lat="44.03732" lon="3.39879">
        <ele>675.2</ele>
        <time>2021-08-14T08:01:25Z</time>
      </trkpt>
      <trkpt lat="44.03733" lon="3.39866">
        <ele>675.3</ele>
        <time>2021-08-14T08:01:27Z</time>
      </trkpt>
      <trkpt lat="44.03734" lon="3.39854">
        <ele>675.3</ele>
        <time>2021-08-14T08:01:29Z</time>
      </trkpt>
      <trkpt lat="44.03735" lon="3.39841">
        <ele>674.5</ele>
        <time>2021-08-14T08:01:31Z</time>
      </trkpt>
      <trkpt lat="44.03735" lon="3.39827">
        <ele>675.2</ele>
        <time>2021-08-14T08:01:33Z</time>
      </trkpt>
      <trkpt lat="44.03737" lon="3.39815">
        <ele>674.7</ele>
        <time>2021-08-14T08:01:35Z</time>
      </trkpt>
      <trkpt lat="44.03737" lon="3.39802">
        <ele>675</ele>
        <time>2021-08-14T08:01:37Z</time>
      </trkpt>
      <trkpt lat="44.03739" lon="3.39789">
        <ele>674.4</ele>
        <time>2021-08-14T08:01:39Z</time>
      </trkpt>
      <trkpt lat="44.0374" lon="3.39775">
        <ele>673.8</ele>
        <time>2021-08-14T08:01:41Z</time>
      </trkpt>
      <trkpt lat="44.03741" lon="3.39761">
        <ele>673.6</ele>
        <time>2021-08-14T08:01:43Z</time>
      </trkpt>
      <trkpt lat="44.03742" lon="3.39747">
        <ele>673.6</ele>
        <time>2021-08-14T08:01:45Z</time>
      </trkpt>
      <trkpt lat="44.03743" lon="3.39733">
        <ele>675.2</ele>
        <time>2021-08-14T08:01:47Z</time>
      </trkpt>
      <trkpt lat="44.03744" lon="3.3972">
        <ele>676.1</ele>
        <time>2021-08-14T08:01:49Z</time>
      </trkpt>
      <trkpt lat="44.03744" lon="3.39706">
        <ele>678.4</ele>
        <time>2021-08-14T08:01:51Z</time>
      </trkpt>
      <trkpt lat="44.03742" lon="3.39692">
        <ele>681.1</ele>
        <time>2021-08-14T08:01:53Z</time>
      </trkpt>
      <trkpt lat="44.03745" lon="3.39678">
        <ele>681.6</ele>
        <time>2021-08-14T08:01:55Z</time>
      </trkpt>
      <trkpt lat="44.0375" lon="3.39666">
        <ele>680</ele>
        <time>2021-08-14T08:01:57Z</time>
      </trkpt>
      <trkpt lat="44.03757" lon="3.39656">
        <ele>678.7</ele>
        <time>2021-08-14T08:01:59Z</time>
      </trkpt>
      <trkpt lat="44.03762" lon="3.39646">
        <ele>677.8</ele>
        <time>2021-08-14T08:02:01Z</time>
      </trkpt>
      <trkpt lat="44.03766" lon="3.39634">
        <ele>678.5</ele>
        <time>2021-08-14T08:02:03Z</time>
      </trkpt>
      <trkpt lat="44.0377" lon="3.39622">
        <ele>679.1</ele>
        <time>2021-08-14T08:02:05Z</time>
      </trkpt>
      <trkpt lat="44.03774" lon="3.39608">
        <ele>679.8</ele>
        <time>2021-08-14T08:02:07Z</time>
      </trkpt>
      <trkpt lat="44.03778" lon="3.39594">
        <ele>680.9</ele>
        <time>2021-08-14T08:02:09Z</time>
      </trkpt>
      <trkpt lat="44.03784" lon="3.3958">
        <ele>681.5</ele>
        <time>2021-08-14T08:02:11Z</time>
      </trkpt>
      <trkpt lat="44.03791" lon="3.39567">
        <ele>682.5</ele>
        <time>2021-08-14T08:02:13Z</time>
      </trkpt>
      <trkpt lat="44.03799" lon="3.39557">
        <ele>682.6</ele>
        <time>2021-08-14T08:02:15Z</time>
      </trkpt>
      <trkpt lat="44.03806" lon="3.39546">
        <ele>683.8</ele>
        <time>2021-08-14T08:02:17Z</time>
      </trkpt>
      <trkpt lat="44.03815" lon="3.39536">
        <ele>683.5</ele>
        <time>2021-08-14T08:02:19Z</time>
      </trkpt>
      <trkpt lat="44.03826" lon="3.39533">
        <ele>679.8</ele>
        <time>2021-08-14T08:02:21Z</time>
      </trkpt>
      <trkpt lat="44.0384" lon="3.39531">
        <ele>675.6</ele>
        <time>2021-08-14T08:02:23Z</time>
      </trkpt>
      <trkpt lat="44.03852" lon="3.3953">
        <ele>673.1</ele>
        <time>2021-08-14T08:02:25Z</time>
      </trkpt>
      <trkpt lat="44.03864" lon="3.39525">
        <ele>671.9</ele>
        <time>2021-08-14T08:02:27Z</time>
      </trkpt>
      <trkpt lat="44.03876" lon="3.39519">
        <ele>671.2</ele>
        <time>2021-08-14T08:02:29Z</time>
      </trkpt>
      <trkpt lat="44.03886" lon="3.39512">
        <ele>671.5</ele>
        <time>2021-08-14T08:02:31Z</time>
      </trkpt>
      <trkpt lat="44.03895" lon="3.39506">
        <ele>671.8</ele>
        <time>2021-08-14T08:02:33Z</time>
      </trkpt>
      <trkpt lat="44.03906" lon="3.39501">
        <ele>671.4</ele>
        <time>2021-08-14T08:02:35Z</time>
      </trkpt>
      <trkpt lat="44.03916" lon="3.39497">
        <ele>669.9</ele>
        <time>2021-08-14T08:02:37Z</time>
      </trkpt>
      <trkpt lat="44.03928" lon="3.39495">
        <ele>668.1</ele>
        <time>2021-08-14T08:02:39Z</time>
      </trkpt>
      <trkpt lat="44.03939" lon="3.39495">
        <ele>665.9</ele>
        <time>2021-08-14T08:02:41Z</time>
      </trkpt>
      <trkpt lat="44.0395" lon="3.39495">
        <ele>663.6</ele>
        <time>2021-08-14T08:02:43Z</time>
      </trkpt>
      <trkpt lat="44.03961" lon="3.39496">
        <ele>661.3</ele>
        <time>2021-08-14T08:02:45Z</time>
      </trkpt>
      <trkpt lat="44.03971" lon="3.39496">
        <ele>659.2</ele>
        <time>2021-08-14T08:02:47Z</time>
      </trkpt>
      <trkpt lat="44.03982" lon="3.39495">
        <ele>657.2</ele>
        <time>2021-08-14T08:02:49Z</time>
      </trkpt>
      <trkpt lat="44.03991" lon="3.39495">
        <ele>655.4</ele>
        <time>2021-08-14T08:02:51Z</time>
      </trkpt>
      <trkpt lat="44.04" lon="3.39496">
        <ele>653.6</ele>
        <time>2021-08-14T08:02:53Z</time>
      </trkpt>
      <trkpt lat="44.04009" lon="3.39496">
        <ele>652.9</ele>
        <time>2021-08-14T08:02:55Z</time>
      </trkpt>
      <trkpt lat="44.04018" lon="3.39496">
        <ele>652.5</ele>
        <time>2021-08-14T08:02:57Z</time>
      </trkpt>
      <trkpt lat="44.04026" lon="3.39494">
        <ele>652</ele>
        <time>2021-08-14T08:02:59Z</time>
      </trkpt>
      <trkpt lat="44.04033" lon="3.39491">
        <ele>651.7</ele>
        <time>2021-08-14T08:03:01Z</time>
      </trkpt>
      <trkpt lat="44.04038" lon="3.39484">
        <ele>651.5</ele>
        <time>2021-08-14T08:03:03Z</time>
      </trkpt>
      <trkpt lat="44.04041" lon="3.39476">
        <ele>651.3</ele>
        <time>2021-08-14T08:03:05Z</time>
      </trkpt>
      <trkpt lat="44.04042" lon="3.39467">
        <ele>651.4</ele>
        <time>2021-08-14T08:03:07Z</time>
      </trkpt>
      <trkpt lat="44.04038" lon="3.39458">
        <ele>652</ele>
        <time>2021-08-14T08:03:09Z</time>
      </trkpt>
      <trkpt lat="44.04033" lon="3.39451">
        <ele>653.1</ele>
        <time>2021-08-14T08:03:11Z</time>
      </trkpt>
      <trkpt lat="44.04027" lon="3.39446">
        <ele>654.4</ele>
        <time>2021-08-14T08:03:13Z</time>
      </trkpt>
      <trkpt lat="44.04021" lon="3.39442">
        <ele>655.8</ele>
        <time>2021-08-14T08:03:15Z</time>
      </trkpt>
      <trkpt lat="44.04015" lon="3.39439">
        <ele>657.3</ele>
        <time>2021-08-14T08:03:17Z</time>
      </trkpt>
      <trkpt lat="44.04009" lon="3.39436">
        <ele>658.8</ele>
        <time>2021-08-14T08:03:19Z</time>
      </trkpt>
      <trkpt lat="44.04003" lon="3.39434">
        <ele>660.4</ele>
        <time>2021-08-14T08:03:21Z</time>
      </trkpt>
      <trkpt lat="44.03997" lon="3.3943">
        <ele>662.3</ele>
        <time>2021-08-14T08:03:23Z</time>
      </trkpt>
      <trkpt lat="44.03992" lon="3.39427">
        <ele>664.4</ele>
        <time>2021-08-14T08:03:25Z</time>
      </trkpt>
      <trkpt lat="44.03986" lon="3.39423">
        <ele>666.6</ele>
        <time>2021-08-14T08:03:27Z</time>
      </trkpt>
      <trkpt lat="44.03981" lon="3.39419">
        <ele>668.7</ele>
        <time>2021-08-14T08:03:29Z</time>
      </trkpt>
      <trkpt lat="44.03976" lon="3.39414">
        <ele>670.5</ele>
        <time>2021-08-14T08:03:31Z</time>
      </trkpt>
      <trkpt lat="44.03971" lon="3.39411">
        <ele>671.8</ele>
        <time>2021-08-14T08:03:33Z</time>
      </trkpt>
      <trkpt lat="44.03967" lon="3.39407">
        <ele>672.9</ele>
        <time>2021-08-14T08:03:35Z</time>
      </trkpt>
      <trkpt lat="44.03963" lon="3.39402">
        <ele>673.8</ele>
        <time>2021-08-14T08:03:37Z</time>
      </trkpt>
      <trkpt lat="44.03958" lon="3.39398">
        <ele>674.9</ele>
        <time>2021-08-14T08:03:39Z</time>
      </trkpt>
      <trkpt lat="44.03954" lon="3.39393">
        <ele>676.1</ele>
        <time>2021-08-14T08:03:41Z</time>
      </trkpt>
      <trkpt lat="44.0395" lon="3.39388">
        <ele>676.8</ele>
        <time>2021-08-14T08:03:43Z</time>
      </trkpt>
      <trkpt lat="44.03946" lon="3.39383">
        <ele>677.8</ele>
        <time>2021-08-14T08:03:45Z</time>
      </trkpt>
      <trkpt lat="44.03943" lon="3.39377">
        <ele>678.6</ele>
        <time>2021-08-14T08:03:47Z</time>
      </trkpt>
      <trkpt lat="44.03939" lon="3.39371">
        <ele>679.6</ele>
        <time>2021-08-14T08:03:49Z</time>
      </trkpt>
      <trkpt lat="44.03936" lon="3.39366">
        <ele>680.3</ele>
        <time>2021-08-14T08:03:51Z</time>
      </trkpt>
      <trkpt lat="44.03931" lon="3.3936">
        <ele>681.3</ele>
        <time>2021-08-14T08:03:53Z</time>
      </trkpt>
      <trkpt lat="44.03929" lon="3.39354">
        <ele>681.9</ele>
        <time>2021-08-14T08:03:55Z</time>
      </trkpt>
      <trkpt lat="44.03925" lon="3.39347">
        <ele>682.7</ele>
        <time>2021-08-14T08:03:57Z</time>
      </trkpt>
      <trkpt lat="44.03922" lon="3.39341">
        <ele>683.5</ele>
        <time>2021-08-14T08:03:59Z</time>
      </trkpt>
      <trkpt lat="44.0392" lon="3.39334">
        <ele>683.9</ele>
        <time>2021-08-14T08:04:01Z</time>
      </trkpt>
      <trkpt lat="44.03919" lon="3.39326">
        <ele>683.8</ele>
        <time>2021-08-14T08:04:03Z</time>
      </trkpt>
      <trkpt lat="44.03916" lon="3.39319">
        <ele>684.1</ele>
        <time>2021-08-14T08:04:05Z</time>
      </trkpt>
      <trkpt lat="44.03914" lon="3.39311">
        <ele>684.6</ele>
        <time>2021-08-14T08:04:07Z</time>
      </trkpt>
      <trkpt lat="44.03913" lon="3.39304">
        <ele>684.6</ele>
        <time>2021-08-14T08:04:09Z</time>
      </trkpt>
      <trkpt lat="44.0391" lon="3.39297">
        <ele>685.3</ele>
        <time>2021-08-14T08:04:11Z</time>
      </trkpt>
      <trkpt lat="44.03908" lon="3.39289">
        <ele>685.6</ele>
        <time>2021-08-14T08:04:13Z</time>
      </trkpt>
      <trkpt lat="44.03907" lon="3.39282">
        <ele>685.6</ele>
        <time>2021-08-14T08:04:15Z</time>
      </trkpt>
      <trkpt lat="44.03905" lon="3.39274">
        <ele>685.9</ele>
        <time>2021-08-14T08:04:17Z</time>
      </trkpt>
      <trkpt lat="44.03902" lon="3.39266">
        <ele>686.3</ele>
        <time>2021-08-14T08:04:19Z</time>
      </trkpt>
      <trkpt lat="44.039" lon="3.39257">
        <ele>686.4</ele>
        <time>2021-08-14T08:04:21Z</time>
      </trkpt>
      <trkpt lat="44.03898" lon="3.39249">
        <ele>686.7</ele>
        <time>2021-08-14T08:04:23Z</time>
      </trkpt>
      <trkpt lat="44.03897" lon="3.3924">
        <ele>686.9</ele>
        <time>2021-08-14T08:04:25Z</time>
      </trkpt>
      <trkpt lat="44.03895" lon="3.39232">
        <ele>687.3</ele>
        <time>2021-08-14T08:04:27Z</time>
      </trkpt>
      <trkpt lat="44.03894" lon="3.39224">
        <ele>687.7</ele>
        <time>2021-08-14T08:04:29Z</time>
      </trkpt>
      <trkpt lat="44.03892" lon="3.39216">
        <ele>688.2</ele>
        <time>2021-08-14T08:04:31Z</time>
      </trkpt>
      <trkpt lat="44.0389" lon="3.39208">
        <ele>688.6</ele>
        <time>2021-08-14T08:04:33Z</time>
      </trkpt>
      <trkpt lat="44.03889" lon="3.392">
        <ele>688.7</ele>
        <time>2021-08-14T08:04:35Z</time>
      </trkpt>
      <trkpt lat="44.03888" lon="3.39191">
        <ele>688.5</ele>
        <time>2021-08-14T08:04:37Z</time>
      </trkpt>
      <trkpt lat="44.03888" lon="3.39183">
        <ele>688.4</ele>
        <time>2021-08-14T08:04:39Z</time>
      </trkpt>
      <trkpt lat="44.03888" lon="3.39174">
        <ele>687.9</ele>
        <time>2021-08-14T08:04:41Z</time>
      </trkpt>
      <trkpt lat="44.03889" lon="3.39165">
        <ele>687.2</ele>
        <time>2021-08-14T08:04:43Z</time>
      </trkpt>
      <trkpt lat="44.0389" lon="3.39157">
        <ele>687.3</ele>
        <time>2021-08-14T08:04:45Z</time>
      </trkpt>
      <trkpt lat="44.03891" lon="3.39148">
        <ele>687.4</ele>
        <time>2021-08-14T08:04:47Z</time>
      </trkpt>
      <trkpt lat="44.03893" lon="3.3914">
        <ele>687.3</ele>
        <time>2021-08-14T08:04:49Z</time>
      </trkpt>
      <trkpt lat="44.03895" lon="3.39131">
        <ele>687.1</ele>
        <time>2021-08-14T08:04:51Z</time>
      </trkpt>
      <trkpt lat="44.03897" lon="3.39123">
        <ele>687</ele>
        <time>2021-08-14T08:04:53Z</time>
      </trkpt>
      <trkpt lat="44.03899" lon="3.39115">
        <ele>687</ele>
        <time>2021-08-14T08:04:55Z</time>
      </trkpt>
      <trkpt lat="44.03901" lon="3.39107">
        <ele>686.9</ele>
        <time>2021-08-14T08:04:57Z</time>
      </trkpt>
      <trkpt lat="44.03903" lon="3.39099">
        <ele>687</ele>
        <time>2021-08-14T08:04:59Z</time>
      </trkpt>
      <trkpt lat="44.03905" lon="3.39091">
        <ele>687</ele>
        <time>2021-08-14T08:05:01Z</time>
      </trkpt>
      <trkpt lat="44.03908" lon="3.39083">
        <ele>687</ele>
        <time>2021-08-14T08:05:03Z</time>
      </trkpt>
      <trkpt lat="44.0391" lon="3.39075">
        <ele>686.2</ele>
        <time>2021-08-14T08:05:05Z</time>
      </trkpt>
      <trkpt lat="44.03913" lon="3.39067">
        <ele>685.5</ele>
        <time>2021-08-14T08:05:07Z</time>
      </trkpt>
      <trkpt lat="44.03916" lon="3.39059">
        <ele>684.8</ele>
        <time>2021-08-14T08:05:09Z</time>
      </trkpt>
      <trkpt lat="44.03919" lon="3.39052">
        <ele>684.3</ele>
        <time>2021-08-14T08:05:11Z</time>
      </trkpt>
      <trkpt lat="44.03922" lon="3.39045">
        <ele>683.7</ele>
        <time>2021-08-14T08:05:13Z</time>
      </trkpt>
      <trkpt lat="44.03926" lon="3.39038">
        <ele>683.2</ele>
        <time>2021-08-14T08:05:15Z</time>
      </trkpt>
      <trkpt lat="44.03929" lon="3.39032">
        <ele>682.8</ele>
        <time>2021-08-14T08:05:17Z</time>
      </trkpt>
      <trkpt lat="44.03933" lon="3.39025">
        <ele>682.4</ele>
        <time>2021-08-14T08:05:19Z</time>
      </trkpt>
      <trkpt lat="44.03938" lon="3.3902">
        <ele>682.2</ele>
        <time>2021-08-14T08:05:21Z</time>
      </trkpt>
      <trkpt lat="44.03942" lon="3.39014">
        <ele>681.9</ele>
        <time>2021-08-14T08:05:23Z</time>
      </trkpt>
      <trkpt lat="44.03948" lon="3.3901">
        <ele>681.6</ele>
        <time>2021-08-14T08:05:25Z</time>
      </trkpt>
      <trkpt lat="44.03953" lon="3.39005">
        <ele>681.5</ele>
        <time>2021-08-14T08:05:27Z</time>
      </trkpt>
      <trkpt lat="44.03957" lon="3.39001">
        <ele>681.5</ele>
        <time>2021-08-14T08:05:29Z</time>
      </trkpt>
      <trkpt lat="44.03961" lon="3.38997">
        <ele>680.8</ele>
        <time>2021-08-14T08:05:31Z</time>
      </trkpt>
      <trkpt lat="44.03964" lon="3.38993">
        <ele>679.8</ele>
        <time>2021-08-14T08:05:33Z</time>
      </trkpt>
      <trkpt lat="44.03966" lon="3.38986">
        <ele>678.5</ele>
        <time>2021-08-14T08:05:35Z</time>
      </trkpt>
      <trkpt lat="44.03966" lon="3.38979">
        <ele>677.2</ele>
        <time>2021-08-14T08:05:37Z</time>
      </trkpt>
      <trkpt lat="44.03964" lon="3.38972">
        <ele>675.9</ele>
        <time>2021-08-14T08:05:39Z</time>
      </trkpt>
      <trkpt lat="44.0396" lon="3.38966">
        <ele>674.9</ele>
        <time>2021-08-14T08:05:41Z</time>
      </trkpt>
      <trkpt lat="44.03954" lon="3.38963">
        <ele>674.4</ele>
        <time>2021-08-14T08:05:43Z</time>
      </trkpt>
      <trkpt lat="44.03947" lon="3.38963">
        <ele>674.5</ele>
        <time>2021-08-14T08:05:45Z</time>
      </trkpt>
      <trkpt lat="44.03941" lon="3.38966">
        <ele>675.2</ele>
        <time>2021-08-14T08:05:47Z</time>
      </trkpt>
      <trkpt lat="44.03935" lon="3.38969">
        <ele>675.9</ele>
        <time>2021-08-14T08:05:49Z</time>
      </trkpt>
      <trkpt lat="44.03929" lon="3.38972">
        <ele>676.8</ele>
        <time>2021-08-14T08:05:51Z</time>
      </trkpt>
      <trkpt lat="44.03923" lon="3.38976">
        <ele>677.7</ele>
        <time>2021-08-14T08:05:53Z</time>
      </trkpt>
      <trkpt lat="44.03917" lon="3.38978">
        <ele>678.5</ele>
        <time>2021-08-14T08:05:55Z</time>
      </trkpt>
      <trkpt lat="44.03911" lon="3.38981">
        <ele>679.1</ele>
        <time>2021-08-14T08:05:57Z</time>
      </trkpt>
      <trkpt lat="44.03905" lon="3.38983">
        <ele>679.7</ele>
        <time>2021-08-14T08:05:59Z</time>
      </trkpt>
      <trkpt lat="44.03898" lon="3.38985">
        <ele>680.3</ele>
        <time>2021-08-14T08:06:01Z</time>
      </trkpt>
      <trkpt lat="44.03892" lon="3.38987">
        <ele>680.7</ele>
        <time>2021-08-14T08:06:03Z</time>
      </trkpt>
      <trkpt lat="44.03886" lon="3.38988">
        <ele>681.2</ele>
        <time>2021-08-14T08:06:05Z</time>
      </trkpt>
      <trkpt lat="44.0388" lon="3.38991">
        <ele>682</ele>
        <time>2021-08-14T08:06:07Z</time>
      </trkpt>
      <trkpt lat="44.03874" lon="3.38993">
        <ele>682.7</ele>
        <time>2021-08-14T08:06:09Z</time>
      </trkpt>
      <trkpt lat="44.03868" lon="3.38995">
        <ele>683.4</ele>
        <time>2021-08-14T08:06:11Z</time>
      </trkpt>
      <trkpt lat="44.03861" lon="3.38998">
        <ele>684.6</ele>
        <time>2021-08-14T08:06:13Z</time>
      </trkpt>
      <trkpt lat="44.03855" lon="3.39">
        <ele>685.5</ele>
        <time>2021-08-14T08:06:15Z</time>
      </trkpt>
      <trkpt lat="44.03849" lon="3.39004">
        <ele>686.3</ele>
        <time>2021-08-14T08:06:17Z</time>
      </trkpt>
      <trkpt lat="44.03843" lon="3.39007">
        <ele>687</ele>
        <time>2021-08-14T08:06:19Z</time>
      </trkpt>
      <trkpt lat="44.03836" lon="3.39009">
        <ele>687.8</ele>
        <time>2021-08-14T08:06:21Z</time>
      </trkpt>
      <trkpt lat="44.0383" lon="3.39013">
        <ele>688.4</ele>
        <time>2021-08-14T08:06:23Z</time>
      </trkpt>
      <trkpt lat="44.03824" lon="3.39015">
        <ele>688.2</ele>
        <time>2021-08-14T08:06:25Z</time>
      </trkpt>
      <trkpt lat="44.03818" lon="3.39017">
        <ele>688.2</ele>
        <time>2021-08-14T08:06:27Z</time>
      </trkpt>
      <trkpt lat="44.03812" lon="3.39021">
        <ele>688.6</ele>
        <time>2021-08-14T08:06:29Z</time>
      </trkpt>
      <trkpt lat="44.03806" lon="3.39025">
        <ele>688.9</ele>
        <time>2021-08-14T08:06:31Z</time>
      </trkpt>
      <trkpt lat="44.03799" lon="3.3903">
        <ele>689.5</ele>
        <time>2021-08-14T08:06:33Z</time>
      </trkpt>
      <trkpt lat="44.03793" lon="3.39034">
        <ele>690</ele>
        <time>2021-08-14T08:06:35Z</time>
      </trkpt>
      <trkpt lat="44.03787" lon="3.39038">
        <ele>690.8</ele>
        <time>2021-08-14T08:06:37Z</time>
      </trkpt>
      <trkpt lat="44.03781" lon="3.39042">
        <ele>691.4</ele>
        <time>2021-08-14T08:06:39Z</time>
      </trkpt>
      <trkpt lat="44.03774" lon="3.39047">
        <ele>692.2</ele>
        <time>2021-08-14T08:06:41Z</time>
      </trkpt>
      <trkpt lat="44.03768" lon="3.39051">
        <ele>692.9</ele>
        <time>2021-08-14T08:06:43Z</time>
      </trkpt>
      <trkpt lat="44.03762" lon="3.39055">
        <ele>693.7</ele>
        <time>2021-08-14T08:06:45Z</time>
      </trkpt>
      <trkpt lat="44.03754" lon="3.39059">
        <ele>694.8</ele>
        <time>2021-08-14T08:06:47Z</time>
      </trkpt>
      <trkpt lat="44.03747" lon="3.39064">
        <ele>696.2</ele>
        <time>2021-08-14T08:06:49Z</time>
      </trkpt>
      <trkpt lat="44.03741" lon="3.3907">
        <ele>698.2</ele>
        <time>2021-08-14T08:06:51Z</time>
      </trkpt>
      <trkpt lat="44.03733" lon="3.39075">
        <ele>700.2</ele>
        <time>2021-08-14T08:06:53Z</time>
      </trkpt>
      <trkpt lat="44.03726" lon="3.39077">
        <ele>701.5</ele>
        <time>2021-08-14T08:06:55Z</time>
      </trkpt>
      <trkpt lat="44.03718" lon="3.39081">
        <ele>703.3</ele>
        <time>2021-08-14T08:06:57Z</time>
      </trkpt>
      <trkpt lat="44.0371" lon="3.39084">
        <ele>704.5</ele>
        <time>2021-08-14T08:06:59Z</time>
      </trkpt>
      <trkpt lat="44.03701" lon="3.39084">
        <ele>705.3</ele>
        <time>2021-08-14T08:07:01Z</time>
      </trkpt>
      <trkpt lat="44.03693" lon="3.39083">
        <ele>705.2</ele>
        <time>2021-08-14T08:07:03Z</time>
      </trkpt>
      <trkpt lat="44.03685" lon="3.39079">
        <ele>704.2</ele>
        <time>2021-08-14T08:07:05Z</time>
      </trkpt>
      <trkpt lat="44.03678" lon="3.39073">
        <ele>702.5</ele>
        <time>2021-08-14T08:07:07Z</time>
      </trkpt>
      <trkpt lat="44.03672" lon="3.39065">
        <ele>700</ele>
        <time>2021-08-14T08:07:09Z</time>
      </trkpt>
      <trkpt lat="44.03666" lon="3.39057">
        <ele>697.6</ele>
        <time>2021-08-14T08:07:11Z</time>
      </trkpt>
      <trkpt lat="44.0366" lon="3.3905">
        <ele>695.7</ele>
        <time>2021-08-14T08:07:13Z</time>
      </trkpt>
      <trkpt lat="44.03652" lon="3.39048">
        <ele>695.4</ele>
        <time>2021-08-14T08:07:15Z</time>
      </trkpt>
      <trkpt lat="44.03644" lon="3.39046">
        <ele>695.7</ele>
        <time>2021-08-14T08:07:17Z</time>
      </trkpt>
      <trkpt lat="44.03636" lon="3.39046">
        <ele>696.2</ele>
        <time>2021-08-14T08:07:19Z</time>
      </trkpt>
      <trkpt lat="44.03628" lon="3.39048">
        <ele>697.6</ele>
        <time>2021-08-14T08:07:21Z</time>
      </trkpt>
      <trkpt lat="44.0362" lon="3.39051">
        <ele>699.2</ele>
        <time>2021-08-14T08:07:23Z</time>
      </trkpt>
      <trkpt lat="44.03613" lon="3.39054">
        <ele>700.8</ele>
        <time>2021-08-14T08:07:25Z</time>
      </trkpt>
      <trkpt lat="44.03606" lon="3.39058">
        <ele>702.7</ele>
        <time>2021-08-14T08:07:27Z</time>
      </trkpt>
      <trkpt lat="44.036" lon="3.39064">
        <ele>704.7</ele>
        <time>2021-08-14T08:07:29Z</time>
      </trkpt>
      <trkpt lat="44.03594" lon="3.3907">
        <ele>706.8</ele>
        <time>2021-08-14T08:07:31Z</time>
      </trkpt>
      <trkpt lat="44.03588" lon="3.39075">
        <ele>708.6</ele>
        <time>2021-08-14T08:07:33Z</time>
      </trkpt>
      <trkpt lat="44.0358" lon="3.39078">
        <ele>710.4</ele>
        <time>2021-08-14T08:07:35Z</time>
      </trkpt>
      <trkpt lat="44.03573" lon="3.39078">
        <ele>712.3</ele>
        <time>2021-08-14T08:07:37Z</time>
      </trkpt>
      <trkpt lat="44.03565" lon="3.39074">
        <ele>713.7</ele>
        <time>2021-08-14T08:07:39Z</time>
      </trkpt>
      <trkpt lat="44.03558" lon="3.39068">
        <ele>714.3</ele>
        <time>2021-08-14T08:07:41Z</time>
      </trkpt>
      <trkpt lat="44.03551" lon="3.39061">
        <ele>714.3</ele>
        <time>2021-08-14T08:07:43Z</time>
      </trkpt>
      <trkpt lat="44.03546" lon="3.39052">
        <ele>713.7</ele>
        <time>2021-08-14T08:07:45Z</time>
      </trkpt>
      <trkpt lat="44.03539" lon="3.39044">
        <ele>713.5</ele>
        <time>2021-08-14T08:07:47Z</time>
      </trkpt>
      <trkpt lat="44.03535" lon="3.39034">
        <ele>712.3</ele>
        <time>2021-08-14T08:07:49Z</time>
      </trkpt>
      <trkpt lat="44.03533" lon="3.39021">
        <ele>709.8</ele>
        <time>2021-08-14T08:07:51Z</time>
      </trkpt>
      <trkpt lat="44.03533" lon="3.39007">
        <ele>706.3</ele>
        <time>2021-08-14T08:07:53Z</time>
      </trkpt>
      <trkpt lat="44.03536" lon="3.38993">
        <ele>703.3</ele>
        <time>2021-08-14T08:07:55Z</time>
      </trkpt>
      <trkpt lat="44.03538" lon="3.38978">
        <ele>701.4</ele>
        <time>2021-08-14T08:07:57Z</time>
      </trkpt>
      <trkpt lat="44.03539" lon="3.38961">
        <ele>699.6</ele>
        <time>2021-08-14T08:07:59Z</time>
      </trkpt>
      <trkpt lat="44.0354" lon="3.38941">
        <ele>697.5</ele>
        <time>2021-08-14T08:08:01Z</time>
      </trkpt>
      <trkpt lat="44.03544" lon="3.38921">
        <ele>694.7</ele>
        <time>2021-08-14T08:08:03Z</time>
      </trkpt>
      <trkpt lat="44.03546" lon="3.38901">
        <ele>691.1</ele>
        <time>2021-08-14T08:08:05Z</time>
      </trkpt>
      <trkpt lat="44.03545" lon="3.38881">
        <ele>688.3</ele>
        <time>2021-08-14T08:08:07Z</time>
      </trkpt>
      <trkpt lat="44.03538" lon="3.38862">
        <ele>688.2</ele>
        <time>2021-08-14T08:08:09Z</time>
      </trkpt>
      <trkpt lat="44.03527" lon="3.38844">
        <ele>690.7</ele>
        <time>2021-08-14T08:08:11Z</time>
      </trkpt>
      <trkpt lat="44.03514" lon="3.38827">
        <ele>694.1</ele>
        <time>2021-08-14T08:08:13Z</time>
      </trkpt>
      <trkpt lat="44.03504" lon="3.38808">
        <ele>696.9</ele>
        <time>2021-08-14T08:08:15Z</time>
      </trkpt>
      <trkpt lat="44.03502" lon="3.38786">
        <ele>695.9</ele>
        <time>2021-08-14T08:08:17Z</time>
      </trkpt>
      <trkpt lat="44.03507" lon="3.38764">
        <ele>691.5</ele>
        <time>2021-08-14T08:08:19Z</time>
      </trkpt>
      <trkpt lat="44.03513" lon="3.38741">
        <ele>686.7</ele>
        <time>2021-08-14T08:08:21Z</time>
      </trkpt>
      <trkpt lat="44.03515" lon="3.38718">
        <ele>683.7</ele>
        <time>2021-08-14T08:08:23Z</time>
      </trkpt>
      <trkpt lat="44.03511" lon="3.38694">
        <ele>683.6</ele>
        <time>2021-08-14T08:08:25Z</time>
      </trkpt>
      <trkpt lat="44.03506" lon="3.3867">
        <ele>684.4</ele>
        <time>2021-08-14T08:08:27Z</time>
      </trkpt>
      <trkpt lat="44.035" lon="3.38647">
        <ele>686.3</ele>
        <time>2021-08-14T08:08:29Z</time>
      </trkpt>
      <trkpt lat="44.03498" lon="3.38623">
        <ele>687.3</ele>
        <time>2021-08-14T08:08:31Z</time>
      </trkpt>
      <trkpt lat="44.035" lon="3.386">
        <ele>685.2</ele>
        <time>2021-08-14T08:08:33Z</time>
      </trkpt>
      <trkpt lat="44.03496" lon="3.38576">
        <ele>687.6</ele>
        <time>2021-08-14T08:08:35Z</time>
      </trkpt>
      <trkpt lat="44.03495" lon="3.38553">
        <ele>688.6</ele>
        <time>2021-08-14T08:08:37Z</time>
      </trkpt>
      <trkpt lat="44.03494" lon="3.38532">
        <ele>689.3</ele>
        <time>2021-08-14T08:08:39Z</time>
      </trkpt>
      <trkpt lat="44.03494" lon="3.3851">
        <ele>689.9</ele>
        <time>2021-08-14T08:08:41Z</time>
      </trkpt>
      <trkpt lat="44.03495" lon="3.38491">
        <ele>689.4</ele>
        <time>2021-08-14T08:08:43Z</time>
      </trkpt>
      <trkpt lat="44.03493" lon="3.38471">
        <ele>689.8</ele>
        <time>2021-08-14T08:08:45Z</time>
      </trkpt>
      <trkpt lat="44.03493" lon="3.38452">
        <ele>689.2</ele>
        <time>2021-08-14T08:08:47Z</time>
      </trkpt>
      <trkpt lat="44.03495" lon="3.38433">
        <ele>688</ele>
        <time>2021-08-14T08:08:49Z</time>
      </trkpt>
      <trkpt lat="44.035" lon="3.38415">
        <ele>685.8</ele>
        <time>2021-08-14T08:08:51Z</time>
      </trkpt>
      <trkpt lat="44.03509" lon="3.384">
        <ele>681.4</ele>
        <time>2021-08-14T08:08:53Z</time>
      </trkpt>
      <trkpt lat="44.03517" lon="3.38386">
        <ele>678.1</ele>
        <time>2021-08-14T08:08:55Z</time>
      </trkpt>
      <trkpt lat="44.03528" lon="3.3838">
        <ele>675.3</ele>
        <time>2021-08-14T08:08:57Z</time>
      </trkpt>
      <trkpt lat="44.03537" lon="3.38369">
        <ele>673.2</ele>
        <time>2021-08-14T08:08:59Z</time>
      </trkpt>
      <trkpt lat="44.03544" lon="3.38359">
        <ele>672</ele>
        <time>2021-08-14T08:09:01Z</time>
      </trkpt>
      <trkpt lat="44.03544" lon="3.38346">
        <ele>671.9</ele>
        <time>2021-08-14T08:09:03Z</time>
      </trkpt>
      <trkpt lat="44.03539" lon="3.38335">
        <ele>672.2</ele>
        <time>2021-08-14T08:09:05Z</time>
      </trkpt>
      <trkpt lat="44.03528" lon="3.38329">
        <ele>671.6</ele>
        <time>2021-08-14T08:09:07Z</time>
      </trkpt>
      <trkpt lat="44.03514" lon="3.38329">
        <ele>672.4</ele>
        <time>2021-08-14T08:09:09Z</time>
      </trkpt>
      <trkpt lat="44.035" lon="3.38328">
        <ele>673.2</ele>
        <time>2021-08-14T08:09:11Z</time>
      </trkpt>
      <trkpt lat="44.03484" lon="3.38326">
        <ele>676.7</ele>
        <time>2021-08-14T08:09:13Z</time>
      </trkpt>
      <trkpt lat="44.03467" lon="3.38323">
        <ele>680.3</ele>
        <time>2021-08-14T08:09:15Z</time>
      </trkpt>
      <trkpt lat="44.03451" lon="3.38319">
        <ele>683.6</ele>
        <time>2021-08-14T08:09:17Z</time>
      </trkpt>
      <trkpt lat="44.03438" lon="3.38311">
        <ele>684.9</ele>
        <time>2021-08-14T08:09:19Z</time>
      </trkpt>
      <trkpt lat="44.03431" lon="3.38292">
        <ele>681.8</ele>
        <time>2021-08-14T08:09:21Z</time>
      </trkpt>
      <trkpt lat="44.03432" lon="3.3827">
        <ele>674.9</ele>
        <time>2021-08-14T08:09:23Z</time>
      </trkpt>
      <trkpt lat="44.03433" lon="3.38246">
        <ele>668.3</ele>
        <time>2021-08-14T08:09:25Z</time>
      </trkpt>
      <trkpt lat="44.03431" lon="3.38223">
        <ele>663.7</ele>
        <time>2021-08-14T08:09:27Z</time>
      </trkpt>
      <trkpt lat="44.03426" lon="3.38199">
        <ele>660.3</ele>
        <time>2021-08-14T08:09:29Z</time>
      </trkpt>
      <trkpt lat="44.03416" lon="3.38178">
        <ele>659.5</ele>
        <time>2021-08-14T08:09:31Z</time>
      </trkpt>
      <trkpt lat="44.03403" lon="3.38157">
        <ele>660.3</ele>
        <time>2021-08-14T08:09:33Z</time>
      </trkpt>
      <trkpt lat="44.03389" lon="3.38138">
        <ele>660.8</ele>
        <time>2021-08-14T08:09:35Z</time>
      </trkpt>
      <trkpt lat="44.03373" lon="3.38122">
        <ele>663</ele>
        <time>2021-08-14T08:09:37Z</time>
      </trkpt>
      <trkpt lat="44.03357" lon="3.3811">
        <ele>666.1</ele>
        <time>2021-08-14T08:09:39Z</time>
      </trkpt>
      <trkpt lat="44.03344" lon="3.38094">
        <ele>666.2</ele>
        <time>2021-08-14T08:09:41Z</time>
      </trkpt>
      <trkpt lat="44.03336" lon="3.38067">
        <ele>661.1</ele>
        <time>2021-08-14T08:09:43Z</time>
      </trkpt>
      <trkpt lat="44.03327" lon="3.38043">
        <ele>657.8</ele>
        <time>2021-08-14T08:09:45Z</time>
      </trkpt>
      <trkpt lat="44.03314" lon="3.3802">
        <ele>656.9</ele>
        <time>2021-08-14T08:09:47Z</time>
      </trkpt>
      <trkpt lat="44.03302" lon="3.37998">
        <ele>656.7</ele>
        <time>2021-08-14T08:09:49Z</time>
      </trkpt>
      <trkpt lat="44.03291" lon="3.37976">
        <ele>657.3</ele>
        <time>2021-08-14T08:09:51Z</time>
      </trkpt>
      <trkpt lat="44.03281" lon="3.37954">
        <ele>657.4</ele>
        <time>2021-08-14T08:09:53Z</time>
      </trkpt>
      <trkpt lat="44.03276" lon="3.37927">
        <ele>654.4</ele>
        <time>2021-08-14T08:09:55Z</time>
      </trkpt>
      <trkpt lat="44.03272" lon="3.379">
        <ele>653.3</ele>
        <time>2021-08-14T08:09:57Z</time>
      </trkpt>
      <trkpt lat="44.03272" lon="3.37873">
        <ele>651.9</ele>
        <time>2021-08-14T08:09:59Z</time>
      </trkpt>
      <trkpt lat="44.03275" lon="3.37847">
        <ele>649.5</ele>
        <time>2021-08-14T08:10:01Z</time>
      </trkpt>
      <trkpt lat="44.03281" lon="3.37819">
        <ele>644.2</ele>
        <time>2021-08-14T08:10:03Z</time>
      </trkpt>
      <trkpt lat="44.03288" lon="3.37795">
        <ele>637.9</ele>
        <time>2021-08-14T08:10:05Z</time>
      </trkpt>
      <trkpt lat="44.03294" lon="3.37774">
        <ele>632.8</ele>
        <time>2021-08-14T08:10:07Z</time>
      </trkpt>
      <trkpt lat="44.03297" lon="3.37755">
        <ele>629.8</ele>
        <time>2021-08-14T08:10:09Z</time>
      </trkpt>
      <trkpt lat="44.0329" lon="3.37736">
        <ele>628.6</ele>
        <time>2021-08-14T08:10:11Z</time>
      </trkpt>
      <trkpt lat="44.03276" lon="3.37724">
        <ele>630.4</ele>
        <time>2021-08-14T08:10:13Z</time>
      </trkpt>
      <trkpt lat="44.03261" lon="3.37711">
        <ele>632.1</ele>
        <time>2021-08-14T08:10:15Z</time>
      </trkpt>
      <trkpt lat="44.03244" lon="3.37698">
        <ele>633.4</ele>
        <time>2021-08-14T08:10:17Z</time>
      </trkpt>
      <trkpt lat="44.03226" lon="3.37686">
        <ele>634.7</ele>
        <time>2021-08-14T08:10:19Z</time>
      </trkpt>
      <trkpt lat="44.03209" lon="3.37669">
        <ele>634.3</ele>
        <time>2021-08-14T08:10:21Z</time>
      </trkpt>
      <trkpt lat="44.03191" lon="3.37657">
        <ele>635.2</ele>
        <time>2021-08-14T08:10:23Z</time>
      </trkpt>
      <trkpt lat="44.03173" lon="3.3764">
        <ele>634.3</ele>
        <time>2021-08-14T08:10:25Z</time>
      </trkpt>
      <trkpt lat="44.03159" lon="3.37617">
        <ele>629.5</ele>
        <time>2021-08-14T08:10:27Z</time>
      </trkpt>
      <trkpt lat="44.03144" lon="3.37596">
        <ele>626.7</ele>
        <time>2021-08-14T08:10:29Z</time>
      </trkpt>
      <trkpt lat="44.03126" lon="3.37576">
        <ele>625.1</ele>
        <time>2021-08-14T08:10:31Z</time>
      </trkpt>
      <trkpt lat="44.03108" lon="3.37558">
        <ele>624.2</ele>
        <time>2021-08-14T08:10:33Z</time>
      </trkpt>
      <trkpt lat="44.03087" lon="3.37544">
        <ele>625.8</ele>
        <time>2021-08-14T08:10:35Z</time>
      </trkpt>
      <trkpt lat="44.03065" lon="3.37531">
        <ele>624</ele>
        <time>2021-08-14T08:10:37Z</time>
      </trkpt>
      <trkpt lat="44.03046" lon="3.37514">
        <ele>620</ele>
        <time>2021-08-14T08:10:39Z</time>
      </trkpt>
      <trkpt lat="44.03025" lon="3.37502">
        <ele>618.1</ele>
        <time>2021-08-14T08:10:41Z</time>
      </trkpt>
      <trkpt lat="44.03013" lon="3.37488">
        <ele>615</ele>
        <time>2021-08-14T08:10:43Z</time>
      </trkpt>
      <trkpt lat="44.03001" lon="3.37478">
        <ele>613.5</ele>
        <time>2021-08-14T08:10:45Z</time>
      </trkpt>
      <trkpt lat="44.02983" lon="3.37478">
        <ele>612.4</ele>
        <time>2021-08-14T08:10:47Z</time>
      </trkpt>
      <trkpt lat="44.02966" lon="3.37484">
        <ele>612.8</ele>
        <time>2021-08-14T08:10:49Z</time>
      </trkpt>
      <trkpt lat="44.02947" lon="3.37488">
        <ele>612.6</ele>
        <time>2021-08-14T08:10:51Z</time>
      </trkpt>
      <trkpt lat="44.02927" lon="3.37489">
        <ele>611.5</ele>
        <time>2021-08-14T08:10:53Z</time>
      </trkpt>
      <trkpt lat="44.02907" lon="3.3749">
        <ele>609</ele>
        <time>2021-08-14T08:10:55Z</time>
      </trkpt>
      <trkpt lat="44.02888" lon="3.37491">
        <ele>605.5</ele>
        <time>2021-08-14T08:10:57Z</time>
      </trkpt>
      <trkpt lat="44.0287" lon="3.37497">
        <ele>603.5</ele>
        <time>2021-08-14T08:10:59Z</time>
      </trkpt>
      <trkpt lat="44.02854" lon="3.37506">
        <ele>602.7</ele>
        <time>2021-08-14T08:11:01Z</time>
      </trkpt>
      <trkpt lat="44.02838" lon="3.37519">
        <ele>602.6</ele>
        <time>2021-08-14T08:11:03Z</time>
      </trkpt>
      <trkpt lat="44.02823" lon="3.37537">
        <ele>602.6</ele>
        <time>2021-08-14T08:11:05Z</time>
      </trkpt>
      <trkpt lat="44.02807" lon="3.37553">
        <ele>601.8</ele>
        <time>2021-08-14T08:11:07Z</time>
      </trkpt>
      <trkpt lat="44.0279" lon="3.37565">
        <ele>599.4</ele>
        <time>2021-08-14T08:11:09Z</time>
      </trkpt>
      <trkpt lat="44.02773" lon="3.37574">
        <ele>596.7</ele>
        <time>2021-08-14T08:11:11Z</time>
      </trkpt>
      <trkpt lat="44.02758" lon="3.37582">
        <ele>594</ele>
        <time>2021-08-14T08:11:13Z</time>
      </trkpt>
      <trkpt lat="44.02743" lon="3.37593">
        <ele>591.5</ele>
        <time>2021-08-14T08:11:15Z</time>
      </trkpt>
      <trkpt lat="44.0273" lon="3.37609">
        <ele>589.8</ele>
        <time>2021-08-14T08:11:17Z</time>
      </trkpt>
      <trkpt lat="44.02719" lon="3.37628">
        <ele>589.5</ele>
        <time>2021-08-14T08:11:19Z</time>
      </trkpt>
      <trkpt lat="44.02708" lon="3.37648">
        <ele>589.3</ele>
        <time>2021-08-14T08:11:21Z</time>
      </trkpt>
      <trkpt lat="44.02697" lon="3.37669">
        <ele>589.3</ele>
        <time>2021-08-14T08:11:23Z</time>
      </trkpt>
      <trkpt lat="44.02688" lon="3.37689">
        <ele>587.6</ele>
        <time>2021-08-14T08:11:25Z</time>
      </trkpt>
      <trkpt lat="44.02675" lon="3.37703">
        <ele>584.8</ele>
        <time>2021-08-14T08:11:27Z</time>
      </trkpt>
      <trkpt lat="44.02665" lon="3.37716">
        <ele>582.2</ele>
        <time>2021-08-14T08:11:29Z</time>
      </trkpt>
      <trkpt lat="44.02656" lon="3.37732">
        <ele>580.2</ele>
        <time>2021-08-14T08:11:31Z</time>
      </trkpt>
      <trkpt lat="44.02653" lon="3.37754">
        <ele>580.5</ele>
        <time>2021-08-14T08:11:33Z</time>
      </trkpt>
      <trkpt lat="44.02653" lon="3.37779">
        <ele>581.8</ele>
        <time>2021-08-14T08:11:35Z</time>
      </trkpt>
      <trkpt lat="44.02656" lon="3.37803">
        <ele>583.8</ele>
        <time>2021-08-14T08:11:37Z</time>
      </trkpt>
      <trkpt lat="44.0265" lon="3.37829">
        <ele>582.9</ele>
        <time>2021-08-14T08:11:39Z</time>
      </trkpt>
      <trkpt lat="44.0264" lon="3.37852">
        <ele>581.3</ele>
        <time>2021-08-14T08:11:41Z</time>
      </trkpt>
      <trkpt lat="44.02626" lon="3.37875">
        <ele>578.4</ele>
        <time>2021-08-14T08:11:43Z</time>
      </trkpt>
      <trkpt lat="44.02616" lon="3.37901">
        <ele>577.1</ele>
        <time>2021-08-14T08:11:45Z</time>
      </trkpt>
      <trkpt lat="44.02607" lon="3.37923">
        <ele>575</ele>
        <time>2021-08-14T08:11:47Z</time>
      </trkpt>
      <trkpt lat="44.02597" lon="3.37945">
        <ele>572.2</ele>
        <time>2021-08-14T08:11:49Z</time>
      </trkpt>
      <trkpt lat="44.02587" lon="3.37964">
        <ele>569.7</ele>
        <time>2021-08-14T08:11:51Z</time>
      </trkpt>
      <trkpt lat="44.02579" lon="3.37982">
        <ele>568.6</ele>
        <time>2021-08-14T08:11:53Z</time>
      </trkpt>
      <trkpt lat="44.02575" lon="3.38001">
        <ele>568.8</ele>
        <time>2021-08-14T08:11:55Z</time>
      </trkpt>
      <trkpt lat="44.02579" lon="3.38022">
        <ele>568.7</ele>
        <time>2021-08-14T08:11:57Z</time>
      </trkpt>
      <trkpt lat="44.02587" lon="3.38042">
        <ele>570.3</ele>
        <time>2021-08-14T08:11:59Z</time>
      </trkpt>
      <trkpt lat="44.02593" lon="3.38061">
        <ele>571.8</ele>
        <time>2021-08-14T08:12:01Z</time>
      </trkpt>
      <trkpt lat="44.02592" lon="3.38082">
        <ele>570.9</ele>
        <time>2021-08-14T08:12:03Z</time>
      </trkpt>
      <trkpt lat="44.02583" lon="3.38097">
        <ele>571.4</ele>
        <time>2021-08-14T08:12:05Z</time>
      </trkpt>
      <trkpt lat="44.02568" lon="3.38101">
        <ele>569.6</ele>
        <time>2021-08-14T08:12:07Z</time>
      </trkpt>
      <trkpt lat="44.02555" lon="3.38085">
        <ele>563.5</ele>
        <time>2021-08-14T08:12:09Z</time>
      </trkpt>
      <trkpt lat="44.02548" lon="3.38067">
        <ele>562.7</ele>
        <time>2021-08-14T08:12:11Z</time>
      </trkpt>
      <trkpt lat="44.02551" lon="3.38043">
        <ele>563.9</ele>
        <time>2021-08-14T08:12:13Z</time>
      </trkpt>
      <trkpt lat="44.02552" lon="3.3802">
        <ele>564.8</ele>
        <time>2021-08-14T08:12:15Z</time>
      </trkpt>
      <trkpt lat="44.02552" lon="3.37996">
        <ele>565.3</ele>
        <time>2021-08-14T08:12:17Z</time>
      </trkpt>
      <trkpt lat="44.02551" lon="3.37972">
        <ele>564.4</ele>
        <time>2021-08-14T08:12:19Z</time>
      </trkpt>
      <trkpt lat="44.02551" lon="3.37948">
        <ele>563.5</ele>
        <time>2021-08-14T08:12:21Z</time>
      </trkpt>
      <trkpt lat="44.02554" lon="3.37923">
        <ele>563</ele>
        <time>2021-08-14T08:12:23Z</time>
      </trkpt>
      <trkpt lat="44.02557" lon="3.37896">
        <ele>562.1</ele>
        <time>2021-08-14T08:12:25Z</time>
      </trkpt>
      <trkpt lat="44.02561" lon="3.37871">
        <ele>560.9</ele>
        <time>2021-08-14T08:12:27Z</time>
      </trkpt>
      <trkpt lat="44.02562" lon="3.37846">
        <ele>559.4</ele>
        <time>2021-08-14T08:12:29Z</time>
      </trkpt>
      <trkpt lat="44.02562" lon="3.37819">
        <ele>558.3</ele>
        <time>2021-08-14T08:12:31Z</time>
      </trkpt>
      <trkpt lat="44.02562" lon="3.37794">
        <ele>557.7</ele>
        <time>2021-08-14T08:12:33Z</time>
      </trkpt>
      <trkpt lat="44.02564" lon="3.37772">
        <ele>557.1</ele>
        <time>2021-08-14T08:12:35Z</time>
      </trkpt>
      <trkpt lat="44.02567" lon="3.3775">
        <ele>556.4</ele>
        <time>2021-08-14T08:12:37Z</time>
      </trkpt>
      <trkpt lat="44.02571" lon="3.37727">
        <ele>554.7</ele>
        <time>2021-08-14T08:12:39Z</time>
      </trkpt>
      <trkpt lat="44.02573" lon="3.37704">
        <ele>552.8</ele>
        <time>2021-08-14T08:12:41Z</time>
      </trkpt>
      <trkpt lat="44.02573" lon="3.3768">
        <ele>551.1</ele>
        <time>2021-08-14T08:12:43Z</time>
      </trkpt>
      <trkpt lat="44.02572" lon="3.37656">
        <ele>549.4</ele>
        <time>2021-08-14T08:12:45Z</time>
      </trkpt>
      <trkpt lat="44.02571" lon="3.37636">
        <ele>548.2</ele>
        <time>2021-08-14T08:12:47Z</time>
      </trkpt>
      <trkpt lat="44.02569" lon="3.37622">
        <ele>547.3</ele>
        <time>2021-08-14T08:12:49Z</time>
      </trkpt>
      <trkpt lat="44.02561" lon="3.3761">
        <ele>547.3</ele>
        <time>2021-08-14T08:12:51Z</time>
      </trkpt>
      <trkpt lat="44.02548" lon="3.37607">
        <ele>548.5</ele>
        <time>2021-08-14T08:12:53Z</time>
      </trkpt>
      <trkpt lat="44.02537" lon="3.3761">
        <ele>550</ele>
        <time>2021-08-14T08:12:55Z</time>
      </trkpt>
      <trkpt lat="44.02527" lon="3.37604">
        <ele>550.6</ele>
        <time>2021-08-14T08:12:57Z</time>
      </trkpt>
      <trkpt lat="44.02526" lon="3.37585">
        <ele>549.3</ele>
        <time>2021-08-14T08:12:59Z</time>
      </trkpt>
      <trkpt lat="44.02527" lon="3.37568">
        <ele>547.5</ele>
        <time>2021-08-14T08:13:01Z</time>
      </trkpt>
      <trkpt lat="44.0253" lon="3.3755">
        <ele>545.4</ele>
        <time>2021-08-14T08:13:03Z</time>
      </trkpt>
      <trkpt lat="44.02534" lon="3.37531">
        <ele>543.1</ele>
        <time>2021-08-14T08:13:05Z</time>
      </trkpt>
      <trkpt lat="44.02537" lon="3.37512">
        <ele>540.9</ele>
        <time>2021-08-14T08:13:07Z</time>
      </trkpt>
      <trkpt lat="44.0254" lon="3.37492">
        <ele>538.6</ele>
        <time>2021-08-14T08:13:09Z</time>
      </trkpt>
      <trkpt lat="44.02538" lon="3.37473">
        <ele>536.1</ele>
        <time>2021-08-14T08:13:11Z</time>
      </trkpt>
      <trkpt lat="44.02533" lon="3.37457">
        <ele>534.2</ele>
        <time>2021-08-14T08:13:13Z</time>
      </trkpt>
      <trkpt lat="44.02524" lon="3.37442">
        <ele>532.5</ele>
        <time>2021-08-14T08:13:15Z</time>
      </trkpt>
      <trkpt lat="44.02513" lon="3.37428">
        <ele>531.1</ele>
        <time>2021-08-14T08:13:17Z</time>
      </trkpt>
      <trkpt lat="44.02501" lon="3.37416">
        <ele>529.9</ele>
        <time>2021-08-14T08:13:19Z</time>
      </trkpt>
      <trkpt lat="44.02488" lon="3.37408">
        <ele>531.5</ele>
        <time>2021-08-14T08:13:21Z</time>
      </trkpt>
      <trkpt lat="44.02475" lon="3.374">
        <ele>533.2</ele>
        <time>2021-08-14T08:13:23Z</time>
      </trkpt>
      <trkpt lat="44.02462" lon="3.37392">
        <ele>534.5</ele>
        <time>2021-08-14T08:13:25Z</time>
      </trkpt>
      <trkpt lat="44.02449" lon="3.37383">
        <ele>535.6</ele>
        <time>2021-08-14T08:13:27Z</time>
      </trkpt>
      <trkpt lat="44.02442" lon="3.37368">
        <ele>535.1</ele>
        <time>2021-08-14T08:13:29Z</time>
      </trkpt>
      <trkpt lat="44.02437" lon="3.3735">
        <ele>533.7</ele>
        <time>2021-08-14T08:13:31Z</time>
      </trkpt>
      <trkpt lat="44.02432" lon="3.37332">
        <ele>532.3</ele>
        <time>2021-08-14T08:13:33Z</time>
      </trkpt>
      <trkpt lat="44.02431" lon="3.37313">
        <ele>531.7</ele>
        <time>2021-08-14T08:13:35Z</time>
      </trkpt>
      <trkpt lat="44.02432" lon="3.37296">
        <ele>531</ele>
        <time>2021-08-14T08:13:37Z</time>
      </trkpt>
      <trkpt lat="44.02432" lon="3.37278">
        <ele>530.4</ele>
        <time>2021-08-14T08:13:39Z</time>
      </trkpt>
      <trkpt lat="44.0243" lon="3.37262">
        <ele>529.9</ele>
        <time>2021-08-14T08:13:41Z</time>
      </trkpt>
      <trkpt lat="44.02425" lon="3.37248">
        <ele>529.6</ele>
        <time>2021-08-14T08:13:43Z</time>
      </trkpt>
      <trkpt lat="44.0242" lon="3.37238">
        <ele>529.4</ele>
        <time>2021-08-14T08:13:45Z</time>
      </trkpt>
      <trkpt lat="44.02414" lon="3.37228">
        <ele>529.7</ele>
        <time>2021-08-14T08:13:47Z</time>
      </trkpt>
      <trkpt lat="44.02408" lon="3.3722">
        <ele>531.3</ele>
        <time>2021-08-14T08:13:49Z</time>
      </trkpt>
      <trkpt lat="44.02402" lon="3.37212">
        <ele>532.4</ele>
        <time>2021-08-14T08:13:51Z</time>
      </trkpt>
      <trkpt lat="44.02397" lon="3.37203">
        <ele>533.2</ele>
        <time>2021-08-14T08:13:53Z</time>
      </trkpt>
      <trkpt lat="44.02393" lon="3.37194">
        <ele>533.8</ele>
        <time>2021-08-14T08:13:55Z</time>
      </trkpt>
      <trkpt lat="44.02388" lon="3.37186">
        <ele>534.1</ele>
        <time>2021-08-14T08:13:57Z</time>
      </trkpt>
      <trkpt lat="44.02384" lon="3.37179">
        <ele>534.5</ele>
        <time>2021-08-14T08:13:59Z</time>
      </trkpt>
      <trkpt lat="44.0238" lon="3.37172">
        <ele>534.8</ele>
        <time>2021-08-14T08:14:01Z</time>
      </trkpt>
      <trkpt lat="44.02376" lon="3.37165">
        <ele>535.2</ele>
        <time>2021-08-14T08:14:03Z</time>
      </trkpt>
      <trkpt lat="44.02371" lon="3.37158">
        <ele>535.6</ele>
        <time>2021-08-14T08:14:05Z</time>
      </trkpt>
      <trkpt lat="44.02367" lon="3.37151">
        <ele>535.8</ele>
        <time>2021-08-14T08:14:07Z</time>
      </trkpt>
      <trkpt lat="44.02363" lon="3.37143">
        <ele>536</ele>
        <time>2021-08-14T08:14:09Z</time>
      </trkpt>
      <trkpt lat="44.02358" lon="3.37136">
        <ele>536.2</ele>
        <time>2021-08-14T08:14:11Z</time>
      </trkpt>
      <trkpt lat="44.02354" lon="3.37128">
        <ele>536.2</ele>
        <time>2021-08-14T08:14:13Z</time>
      </trkpt>
      <trkpt lat="44.02349" lon="3.37121">
        <ele>536.1</ele>
        <time>2021-08-14T08:14:15Z</time>
      </trkpt>
      <trkpt lat="44.02345" lon="3.37112">
        <ele>535.9</ele>
        <time>2021-08-14T08:14:17Z</time>
      </trkpt>
      <trkpt lat="44.0234" lon="3.37105">
        <ele>535.8</ele>
        <time>2021-08-14T08:14:19Z</time>
      </trkpt>
      <trkpt lat="44.02335" lon="3.37097">
        <ele>535.5</ele>
        <time>2021-08-14T08:14:21Z</time>
      </trkpt>
      <trkpt lat="44.0233" lon="3.37088">
        <ele>535.4</ele>
        <time>2021-08-14T08:14:23Z</time>
      </trkpt>
      <trkpt lat="44.02326" lon="3.37079">
        <ele>535.5</ele>
        <time>2021-08-14T08:14:25Z</time>
      </trkpt>
      <trkpt lat="44.02321" lon="3.37071">
        <ele>535.9</ele>
        <time>2021-08-14T08:14:27Z</time>
      </trkpt>
      <trkpt lat="44.02315" lon="3.37064">
        <ele>536.4</ele>
        <time>2021-08-14T08:14:29Z</time>
      </trkpt>
      <trkpt lat="44.0231" lon="3.37056">
        <ele>536.6</ele>
        <time>2021-08-14T08:14:31Z</time>
      </trkpt>
      <trkpt lat="44.02305" lon="3.37048">
        <ele>536.9</ele>
        <time>2021-08-14T08:14:33Z</time>
      </trkpt>
      <trkpt lat="44.023" lon="3.3704">
        <ele>537</ele>
        <time>2021-08-14T08:14:35Z</time>
      </trkpt>
      <trkpt lat="44.02295" lon="3.37031">
        <ele>536.9</ele>
        <time>2021-08-14T08:14:37Z</time>
      </trkpt>
      <trkpt lat="44.0229" lon="3.37023">
        <ele>536.9</ele>
        <time>2021-08-14T08:14:39Z</time>
      </trkpt>
      <trkpt lat="44.02285" lon="3.37015">
        <ele>536.9</ele>
        <time>2021-08-14T08:14:41Z</time>
      </trkpt>
      <trkpt lat="44.02279" lon="3.37007">
        <ele>536.7</ele>
        <time>2021-08-14T08:14:43Z</time>
      </trkpt>
      <trkpt lat="44.02275" lon="3.37">
        <ele>536.6</ele>
        <time>2021-08-14T08:14:45Z</time>
      </trkpt>
      <trkpt lat="44.0227" lon="3.36992">
        <ele>536.7</ele>
        <time>2021-08-14T08:14:47Z</time>
      </trkpt>
      <trkpt lat="44.02266" lon="3.36985">
        <ele>537</ele>
        <time>2021-08-14T08:14:49Z</time>
      </trkpt>
      <trkpt lat="44.02261" lon="3.36978">
        <ele>537.1</ele>
        <time>2021-08-14T08:14:51Z</time>
      </trkpt>
      <trkpt lat="44.02257" lon="3.36971">
        <ele>537.2</ele>
        <time>2021-08-14T08:14:53Z</time>
      </trkpt>
      <trkpt lat="44.02253" lon="3.36964">
        <ele>537.1</ele>
        <time>2021-08-14T08:14:55Z</time>
      </trkpt>
      <trkpt lat="44.02249" lon="3.36959">
        <ele>537.1</ele>
        <time>2021-08-14T08:14:57Z</time>
      </trkpt>
      <trkpt lat="44.02246" lon="3.36952">
        <ele>536.8</ele>
        <time>2021-08-14T08:14:59Z</time>
      </trkpt>
      <trkpt lat="44.02241" lon="3.36944">
        <ele>536.2</ele>
        <time>2021-08-14T08:15:01Z</time>
      </trkpt>
      <trkpt lat="44.02237" lon="3.36933">
        <ele>535.2</ele>
        <time>2021-08-14T08:15:03Z</time>
      </trkpt>
      <trkpt lat="44.02233" lon="3.3692">
        <ele>533.8</ele>
        <time>2021-08-14T08:15:05Z</time>
      </trkpt>
      <trkpt lat="44.02233" lon="3.36904">
        <ele>532.9</ele>
        <time>2021-08-14T08:15:07Z</time>
      </trkpt>
      <trkpt lat="44.02232" lon="3.36887">
        <ele>532.2</ele>
        <time>2021-08-14T08:15:09Z</time>
      </trkpt>
      <trkpt lat="44.02232" lon="3.3687">
        <ele>531.6</ele>
        <time>2021-08-14T08:15:11Z</time>
      </trkpt>
      <trkpt lat="44.02231" lon="3.36853">
        <ele>530.9</ele>
        <time>2021-08-14T08:15:13Z</time>
      </trkpt>
      <trkpt lat="44.02231" lon="3.36836">
        <ele>530.3</ele>
        <time>2021-08-14T08:15:15Z</time>
      </trkpt>
      <trkpt lat="44.02231" lon="3.36821">
        <ele>530.1</ele>
        <time>2021-08-14T08:15:17Z</time>
      </trkpt>
      <trkpt lat="44.0223" lon="3.36806">
        <ele>530.1</ele>
        <time>2021-08-14T08:15:19Z</time>
      </trkpt>
      <trkpt lat="44.02229" lon="3.3679">
        <ele>530.1</ele>
        <time>2021-08-14T08:15:21Z</time>
      </trkpt>
      <trkpt lat="44.02229" lon="3.36776">
        <ele>530.1</ele>
        <time>2021-08-14T08:15:23Z</time>
      </trkpt>
      <trkpt lat="44.02229" lon="3.36762">
        <ele>530.1</ele>
        <time>2021-08-14T08:15:25Z</time>
      </trkpt>
      <trkpt lat="44.02227" lon="3.3675">
        <ele>530.2</ele>
        <time>2021-08-14T08:15:27Z</time>
      </trkpt>
      <trkpt lat="44.02225" lon="3.36738">
        <ele>530.3</ele>
        <time>2021-08-14T08:15:29Z</time>
      </trkpt>
      <trkpt lat="44.02222" lon="3.36728">
        <ele>530.5</ele>
        <time>2021-08-14T08:15:31Z</time>
      </trkpt>
      <trkpt lat="44.02218" lon="3.36715">
        <ele>530.7</ele>
        <time>2021-08-14T08:15:33Z</time>
      </trkpt>
      <trkpt lat="44.02213" lon="3.36703">
        <ele>530.8</ele>
        <time>2021-08-14T08:15:35Z</time>
      </trkpt>
      <trkpt lat="44.02209" lon="3.36689">
        <ele>530.8</ele>
        <time>2021-08-14T08:15:37Z</time>
      </trkpt>
      <trkpt lat="44.02206" lon="3.36676">
        <ele>530.8</ele>
        <time>2021-08-14T08:15:39Z</time>
      </trkpt>
      <trkpt lat="44.02202" lon="3.36662">
        <ele>530.6</ele>
        <time>2021-08-14T08:15:41Z</time>
      </trkpt>
      <trkpt lat="44.02199" lon="3.36647">
        <ele>530.5</ele>
        <time>2021-08-14T08:15:43Z</time>
      </trkpt>
      <trkpt lat="44.02195" lon="3.36634">
        <ele>530.5</ele>
        <time>2021-08-14T08:15:45Z</time>
      </trkpt>
      <trkpt lat="44.02191" lon="3.3662">
        <ele>530.4</ele>
        <time>2021-08-14T08:15:47Z</time>
      </trkpt>
      <trkpt lat="44.02187" lon="3.36605">
        <ele>530.3</ele>
        <time>2021-08-14T08:15:49Z</time>
      </trkpt>
      <trkpt lat="44.02184" lon="3.36592">
        <ele>530.3</ele>
        <time>2021-08-14T08:15:51Z</time>
      </trkpt>
      <trkpt lat="44.02181" lon="3.36578">
        <ele>530.2</ele>
        <time>2021-08-14T08:15:53Z</time>
      </trkpt>
      <trkpt lat="44.02177" lon="3.36564">
        <ele>530</ele>
        <time>2021-08-14T08:15:55Z</time>
      </trkpt>
      <trkpt lat="44.02175" lon="3.3655">
        <ele>529.8</ele>
        <time>2021-08-14T08:15:57Z</time>
      </trkpt>
      <trkpt lat="44.02173" lon="3.36536">
        <ele>529.6</ele>
        <time>2021-08-14T08:15:59Z</time>
      </trkpt>
      <trkpt lat="44.02171" lon="3.36521">
        <ele>529.3</ele>
        <time>2021-08-14T08:16:01Z</time>
      </trkpt>
      <trkpt lat="44.02169" lon="3.36508">
        <ele>529.1</ele>
        <time>2021-08-14T08:16:03Z</time>
      </trkpt>
      <trkpt lat="44.02167" lon="3.36494">
        <ele>528.8</ele>
        <time>2021-08-14T08:16:05Z</time>
      </trkpt>
      <trkpt lat="44.02166" lon="3.36482">
        <ele>528.6</ele>
        <time>2021-08-14T08:16:07Z</time>
      </trkpt>
      <trkpt lat="44.02165" lon="3.36471">
        <ele>528.3</ele>
        <time>2021-08-14T08:16:09Z</time>
      </trkpt>
      <trkpt lat="44.02163" lon="3.3646">
        <ele>528.1</ele>
        <time>2021-08-14T08:16:11Z</time>
      </trkpt>
      <trkpt lat="44.02161" lon="3.36448">
        <ele>528</ele>
        <time>2021-08-14T08:16:13Z</time>
      </trkpt>
      <trkpt lat="44.02158" lon="3.36436">
        <ele>527.8</ele>
        <time>2021-08-14T08:16:15Z</time>
      </trkpt>
      <trkpt lat="44.02155" lon="3.36424">
        <ele>527.7</ele>
        <time>2021-08-14T08:16:17Z</time>
      </trkpt>
      <trkpt lat="44.02149" lon="3.36412">
        <ele>527.8</ele>
        <time>2021-08-14T08:16:19Z</time>
      </trkpt>
      <trkpt lat="44.02143" lon="3.36401">
        <ele>527.9</ele>
        <time>2021-08-14T08:16:21Z</time>
      </trkpt>
      <trkpt lat="44.02135" lon="3.36391">
        <ele>528.1</ele>
        <time>2021-08-14T08:16:23Z</time>
      </trkpt>
      <trkpt lat="44.02127" lon="3.3638">
        <ele>528.4</ele>
        <time>2021-08-14T08:16:25Z</time>
      </trkpt>
      <trkpt lat="44.0212" lon="3.3637">
        <ele>528.7</ele>
        <time>2021-08-14T08:16:27Z</time>
      </trkpt>
      <trkpt lat="44.02112" lon="3.36359">
        <ele>529.1</ele>
        <time>2021-08-14T08:16:29Z</time>
      </trkpt>
      <trkpt lat="44.02106" lon="3.36348">
        <ele>529.5</ele>
        <time>2021-08-14T08:16:31Z</time>
      </trkpt>
      <trkpt lat="44.021" lon="3.36335">
        <ele>529.8</ele>
        <time>2021-08-14T08:16:33Z</time>
      </trkpt>
      <trkpt lat="44.02094" lon="3.36323">
        <ele>530.3</ele>
        <time>2021-08-14T08:16:35Z</time>
      </trkpt>
      <trkpt lat="44.02089" lon="3.36311">
        <ele>530.7</ele>
        <time>2021-08-14T08:16:37Z</time>
      </trkpt>
      <trkpt lat="44.02084" lon="3.363">
        <ele>531</ele>
        <time>2021-08-14T08:16:39Z</time>
      </trkpt>
      <trkpt lat="44.02079" lon="3.36291">
        <ele>531.1</ele>
        <time>2021-08-14T08:16:41Z</time>
      </trkpt>
      <trkpt lat="44.02074" lon="3.36283">
        <ele>531.2</ele>
        <time>2021-08-14T08:16:43Z</time>
      </trkpt>
      <trkpt lat="44.0207" lon="3.36276">
        <ele>531.3</ele>
        <time>2021-08-14T08:16:45Z</time>
      </trkpt>
      <trkpt lat="44.02066" lon="3.36269">
        <ele>531.5</ele>
        <time>2021-08-14T08:16:47Z</time>
      </trkpt>
      <trkpt lat="44.02065" lon="3.3626">
        <ele>531.6</ele>
        <time>2021-08-14T08:16:49Z</time>
      </trkpt>
      <trkpt lat="44.02065" lon="3.36252">
        <ele>531.7</ele>
        <time>2021-08-14T08:16:51Z</time>
      </trkpt>
      <trkpt lat="44.02064" lon="3.36246">
        <ele>531.7</ele>
        <time>2021-08-14T08:16:53Z</time>
      </trkpt>
      <trkpt lat="44.02063" lon="3.3624">
        <ele>531.7</ele>
        <time>2021-08-14T08:16:55Z</time>
      </trkpt>
      <trkpt lat="44.02063" lon="3.36234">
        <ele>531.7</ele>
        <time>2021-08-14T08:16:57Z</time>
      </trkpt>
      <trkpt lat="44.02065" lon="3.36227">
        <ele>531.7</ele>
        <time>2021-08-14T08:16:59Z</time>
      </trkpt>
      <trkpt lat="44.02067" lon="3.36221">
        <ele>531.6</ele>
        <time>2021-08-14T08:17:01Z</time>
      </trkpt>
      <trkpt lat="44.02072" lon="3.36216">
        <ele>531.4</ele>
        <time>2021-08-14T08:17:03Z</time>
      </trkpt>
      <trkpt lat="44.02078" lon="3.3621">
        <ele>531.2</ele>
        <time>2021-08-14T08:17:05Z</time>
      </trkpt>
      <trkpt lat="44.02084" lon="3.36205">
        <ele>531</ele>
        <time>2021-08-14T08:17:07Z</time>
      </trkpt>
      <trkpt lat="44.02092" lon="3.36199">
        <ele>530.7</ele>
        <time>2021-08-14T08:17:09Z</time>
      </trkpt>
      <trkpt lat="44.02098" lon="3.36191">
        <ele>530.4</ele>
        <time>2021-08-14T08:17:11Z</time>
      </trkpt>
      <trkpt lat="44.02104" lon="3.36184">
        <ele>530.2</ele>
        <time>2021-08-14T08:17:13Z</time>
      </trkpt>
      <trkpt lat="44.0211" lon="3.36178">
        <ele>530</ele>
        <time>2021-08-14T08:17:15Z</time>
      </trkpt>
      <trkpt lat="44.02116" lon="3.36172">
        <ele>529.8</ele>
        <time>2021-08-14T08:17:17Z</time>
      </trkpt>
      <trkpt lat="44.02121" lon="3.36166">
        <ele>529.6</ele>
        <time>2021-08-14T08:17:19Z</time>
      </trkpt>
      <trkpt lat="44.02128" lon="3.36158">
        <ele>529.4</ele>
        <time>2021-08-14T08:17:21Z</time>
      </trkpt>
      <trkpt lat="44.02135" lon="3.36151">
        <ele>529.1</ele>
        <time>2021-08-14T08:17:23Z</time>
      </trkpt>
      <trkpt lat="44.02144" lon="3.36144">
        <ele>528.8</ele>
        <time>2021-08-14T08:17:25Z</time>
      </trkpt>
      <trkpt lat="44.02153" lon="3.36136">
        <ele>528.5</ele>
        <time>2021-08-14T08:17:27Z</time>
      </trkpt>
      <trkpt lat="44.02162" lon="3.36129">
        <ele>528.2</ele>
        <time>2021-08-14T08:17:29Z</time>
      </trkpt>
      <trkpt lat="44.02171" lon="3.3612">
        <ele>527.8</ele>
        <time>2021-08-14T08:17:31Z</time>
      </trkpt>
      <trkpt lat="44.02179" lon="3.36111">
        <ele>527.4</ele>
        <time>2021-08-14T08:17:33Z</time>
      </trkpt>
      <trkpt lat="44.02188" lon="3.36102">
        <ele>527.1</ele>
        <time>2021-08-14T08:17:35Z</time>
      </trkpt>
      <trkpt lat="44.02196" lon="3.3609">
        <ele>526.9</ele>
        <time>2021-08-14T08:17:37Z</time>
      </trkpt>
      <trkpt lat="44.02204" lon="3.36079">
        <ele>526.8</ele>
        <time>2021-08-14T08:17:39Z</time>
      </trkpt>
      <trkpt lat="44.02212" lon="3.36066">
        <ele>527</ele>
        <time>2021-08-14T08:17:41Z</time>
      </trkpt>
      <trkpt lat="44.0222" lon="3.36055">
        <ele>527</ele>
        <time>2021-08-14T08:17:43Z</time>
      </trkpt>
      <trkpt lat="44.02229" lon="3.36046">
        <ele>526.9</ele>
        <time>2021-08-14T08:17:45Z</time>
      </trkpt>
      <trkpt lat="44.02238" lon="3.36037">
        <ele>526.7</ele>
        <time>2021-08-14T08:17:47Z</time>
      </trkpt>
      <trkpt lat="44.02246" lon="3.36027">
        <ele>526.6</ele>
        <time>2021-08-14T08:17:49Z</time>
      </trkpt>
      <trkpt lat="44.02254" lon="3.3602">
        <ele>526.2</ele>
        <time>2021-08-14T08:17:51Z</time>
      </trkpt>
      <trkpt lat="44.02262" lon="3.36013">
        <ele>525.7</ele>
        <time>2021-08-14T08:17:53Z</time>
      </trkpt>
      <trkpt lat="44.02269" lon="3.36005">
        <ele>525.3</ele>
        <time>2021-08-14T08:17:55Z</time>
      </trkpt>
      <trkpt lat="44.02275" lon="3.35996">
        <ele>525.2</ele>
        <time>2021-08-14T08:17:57Z</time>
      </trkpt>
      <trkpt lat="44.0228" lon="3.35988">
        <ele>525.4</ele>
        <time>2021-08-14T08:17:59Z</time>
      </trkpt>
      <trkpt lat="44.02284" lon="3.35981">
        <ele>525.5</ele>
        <time>2021-08-14T08:18:01Z</time>
      </trkpt>
      <trkpt lat="44.02288" lon="3.35976">
        <ele>525.4</ele>
        <time>2021-08-14T08:18:03Z</time>
      </trkpt>
      <trkpt lat="44.02292" lon="3.35971">
        <ele>525.4</ele>
        <time>2021-08-14T08:18:05Z</time>
      </trkpt>
      <trkpt lat="44.02295" lon="3.3597">
        <ele>525.2</ele>
        <time>2021-08-14T08:18:07Z</time>
      </trkpt>
      <trkpt lat="44.02298" lon="3.35971">
        <ele>524.7</ele>
        <time>2021-08-14T08:18:09Z</time>
      </trkpt>
      <trkpt lat="44.023" lon="3.35968">
        <ele>524.8</ele>
        <time>2021-08-14T08:18:11Z</time>
      </trkpt>
      <trkpt lat="44.02301" lon="3.35968">
        <ele>524.6</ele>
        <time>2021-08-14T08:18:13Z</time>
      </trkpt>
      <trkpt lat="44.02301" lon="3.35968">
        <ele>524.7</ele>
        <time>2021-08-14T08:18:15Z</time>
      </trkpt>
      <trkpt lat="44.02301" lon="3.35968">
        <ele>524.7</ele>
        <time>2021-08-14T08:18:17Z</time>
      </trkpt>
      <trkpt lat="44.02321" lon="3.3594">
        <ele>523.7</ele>
        <time>2021-08-14T08:27:41Z</time>
      </trkpt>
      <trkpt lat="44.02324" lon="3.35934">
        <ele>523.6</ele>
        <time>2021-08-14T08:27:43Z</time>
      </trkpt>
      <trkpt lat="44.02328" lon="3.35926">
        <ele>523.3</ele>
        <time>2021-08-14T08:27:45Z</time>
      </trkpt>
      <trkpt lat="44.02332" lon="3.35917">
        <ele>523.2</ele>
        <time>2021-08-14T08:27:47Z</time>
      </trkpt>
      <trkpt lat="44.02335" lon="3.35909">
        <ele>523.7</ele>
        <time>2021-08-14T08:27:49Z</time>
      </trkpt>
      <trkpt lat="44.02337" lon="3.35899">
        <ele>524.4</ele>
        <time>2021-08-14T08:27:51Z</time>
      </trkpt>
      <trkpt lat="44.02341" lon="3.3589">
        <ele>524.8</ele>
        <time>2021-08-14T08:27:53Z</time>
      </trkpt>
      <trkpt lat="44.02342" lon="3.35878">
        <ele>525.7</ele>
        <time>2021-08-14T08:27:55Z</time>
      </trkpt>
      <trkpt lat="44.02343" lon="3.35867">
        <ele>526.7</ele>
        <time>2021-08-14T08:27:57Z</time>
      </trkpt>
      <trkpt lat="44.02341" lon="3.35855">
        <ele>528.2</ele>
        <time>2021-08-14T08:27:59Z</time>
      </trkpt>
      <trkpt lat="44.02342" lon="3.35844">
        <ele>529.2</ele>
        <time>2021-08-14T08:28:01Z</time>
      </trkpt>
      <trkpt lat="44.02347" lon="3.35834">
        <ele>529</ele>
        <time>2021-08-14T08:28:03Z</time>
      </trkpt>
      <trkpt lat="44.02352" lon="3.35823">
        <ele>530.9</ele>
        <time>2021-08-14T08:28:05Z</time>
      </trkpt>
      <trkpt lat="44.02358" lon="3.35814">
        <ele>531.5</ele>
        <time>2021-08-14T08:28:07Z</time>
      </trkpt>
      <trkpt lat="44.02364" lon="3.35807">
        <ele>531.6</ele>
        <time>2021-08-14T08:28:09Z</time>
      </trkpt>
      <trkpt lat="44.0237" lon="3.35801">
        <ele>531.2</ele>
        <time>2021-08-14T08:28:11Z</time>
      </trkpt>
      <trkpt lat="44.02373" lon="3.3579">
        <ele>532.4</ele>
        <time>2021-08-14T08:28:13Z</time>
      </trkpt>
      <trkpt lat="44.02378" lon="3.35784">
        <ele>532</ele>
        <time>2021-08-14T08:28:15Z</time>
      </trkpt>
      <trkpt lat="44.02384" lon="3.35779">
        <ele>530.9</ele>
        <time>2021-08-14T08:28:17Z</time>
      </trkpt>
      <trkpt lat="44.02389" lon="3.35774">
        <ele>529.8</ele>
        <time>2021-08-14T08:28:19Z</time>
      </trkpt>
      <trkpt lat="44.02396" lon="3.35772">
        <ele>527.5</ele>
        <time>2021-08-14T08:28:21Z</time>
      </trkpt>
      <trkpt lat="44.02403" lon="3.35769">
        <ele>525.6</ele>
        <time>2021-08-14T08:28:23Z</time>
      </trkpt>
      <trkpt lat="44.02409" lon="3.35766">
        <ele>523.7</ele>
        <time>2021-08-14T08:28:25Z</time>
      </trkpt>
      <trkpt lat="44.02414" lon="3.35763">
        <ele>521.9</ele>
        <time>2021-08-14T08:28:27Z</time>
      </trkpt>
      <trkpt lat="44.0242" lon="3.3576">
        <ele>520.8</ele>
        <time>2021-08-14T08:28:29Z</time>
      </trkpt>
      <trkpt lat="44.02426" lon="3.35757">
        <ele>520.6</ele>
        <time>2021-08-14T08:28:31Z</time>
      </trkpt>
      <trkpt lat="44.02432" lon="3.35751">
        <ele>520.5</ele>
        <time>2021-08-14T08:28:33Z</time>
      </trkpt>
      <trkpt lat="44.02436" lon="3.35744">
        <ele>521</ele>
        <time>2021-08-14T08:28:35Z</time>
      </trkpt>
      <trkpt lat="44.02441" lon="3.35737">
        <ele>521.6</ele>
        <time>2021-08-14T08:28:37Z</time>
      </trkpt>
      <trkpt lat="44.02446" lon="3.35728">
        <ele>522.2</ele>
        <time>2021-08-14T08:28:39Z</time>
      </trkpt>
      <trkpt lat="44.02451" lon="3.35719">
        <ele>522.5</ele>
        <time>2021-08-14T08:28:41Z</time>
      </trkpt>
      <trkpt lat="44.02452" lon="3.35706">
        <ele>524</ele>
        <time>2021-08-14T08:28:43Z</time>
      </trkpt>
      <trkpt lat="44.02453" lon="3.35695">
        <ele>525</ele>
        <time>2021-08-14T08:28:45Z</time>
      </trkpt>
      <trkpt lat="44.02453" lon="3.35682">
        <ele>526.6</ele>
        <time>2021-08-14T08:28:47Z</time>
      </trkpt>
      <trkpt lat="44.02453" lon="3.35671">
        <ele>528.1</ele>
        <time>2021-08-14T08:28:49Z</time>
      </trkpt>
      <trkpt lat="44.02452" lon="3.3566">
        <ele>528.9</ele>
        <time>2021-08-14T08:28:51Z</time>
      </trkpt>
      <trkpt lat="44.02451" lon="3.3565">
        <ele>529.3</ele>
        <time>2021-08-14T08:28:53Z</time>
      </trkpt>
      <trkpt lat="44.0245" lon="3.35641">
        <ele>529.8</ele>
        <time>2021-08-14T08:28:55Z</time>
      </trkpt>
      <trkpt lat="44.02449" lon="3.35632">
        <ele>530.2</ele>
        <time>2021-08-14T08:28:57Z</time>
      </trkpt>
      <trkpt lat="44.02448" lon="3.35622">
        <ele>530.6</ele>
        <time>2021-08-14T08:28:59Z</time>
      </trkpt>
      <trkpt lat="44.02447" lon="3.35613">
        <ele>531.1</ele>
        <time>2021-08-14T08:29:01Z</time>
      </trkpt>
      <trkpt lat="44.02445" lon="3.35603">
        <ele>531.9</ele>
        <time>2021-08-14T08:29:03Z</time>
      </trkpt>
      <trkpt lat="44.02443" lon="3.35593">
        <ele>532.7</ele>
        <time>2021-08-14T08:29:05Z</time>
      </trkpt>
      <trkpt lat="44.0244" lon="3.35584">
        <ele>533.7</ele>
        <time>2021-08-14T08:29:07Z</time>
      </trkpt>
      <trkpt lat="44.02438" lon="3.35575">
        <ele>533.8</ele>
        <time>2021-08-14T08:29:09Z</time>
      </trkpt>
      <trkpt lat="44.02435" lon="3.35567">
        <ele>533.8</ele>
        <time>2021-08-14T08:29:11Z</time>
      </trkpt>
      <trkpt lat="44.02433" lon="3.35558">
        <ele>533.7</ele>
        <time>2021-08-14T08:29:13Z</time>
      </trkpt>
      <trkpt lat="44.0243" lon="3.35549">
        <ele>533.5</ele>
        <time>2021-08-14T08:29:15Z</time>
      </trkpt>
      <trkpt lat="44.02429" lon="3.35541">
        <ele>533.3</ele>
        <time>2021-08-14T08:29:17Z</time>
      </trkpt>
      <trkpt lat="44.02426" lon="3.35535">
        <ele>533.1</ele>
        <time>2021-08-14T08:29:19Z</time>
      </trkpt>
      <trkpt lat="44.02422" lon="3.35526">
        <ele>533</ele>
        <time>2021-08-14T08:29:21Z</time>
      </trkpt>
      <trkpt lat="44.02421" lon="3.35516">
        <ele>532.3</ele>
        <time>2021-08-14T08:29:23Z</time>
      </trkpt>
      <trkpt lat="44.02419" lon="3.35507">
        <ele>531.5</ele>
        <time>2021-08-14T08:29:25Z</time>
      </trkpt>
      <trkpt lat="44.02416" lon="3.35498">
        <ele>531</ele>
        <time>2021-08-14T08:29:27Z</time>
      </trkpt>
      <trkpt lat="44.02412" lon="3.35489">
        <ele>530.6</ele>
        <time>2021-08-14T08:29:29Z</time>
      </trkpt>
      <trkpt lat="44.0241" lon="3.35479">
        <ele>530</ele>
        <time>2021-08-14T08:29:31Z</time>
      </trkpt>
      <trkpt lat="44.02407" lon="3.3547">
        <ele>529.4</ele>
        <time>2021-08-14T08:29:33Z</time>
      </trkpt>
      <trkpt lat="44.02405" lon="3.3546">
        <ele>528.8</ele>
        <time>2021-08-14T08:29:35Z</time>
      </trkpt>
      <trkpt lat="44.02402" lon="3.35451">
        <ele>528.3</ele>
        <time>2021-08-14T08:29:37Z</time>
      </trkpt>
      <trkpt lat="44.02399" lon="3.35441">
        <ele>527.7</ele>
        <time>2021-08-14T08:29:39Z</time>
      </trkpt>
      <trkpt lat="44.02398" lon="3.35433">
        <ele>527</ele>
        <time>2021-08-14T08:29:41Z</time>
      </trkpt>
      <trkpt lat="44.02395" lon="3.35424">
        <ele>526.3</ele>
        <time>2021-08-14T08:29:43Z</time>
      </trkpt>
      <trkpt lat="44.02391" lon="3.35415">
        <ele>525.9</ele>
        <time>2021-08-14T08:29:45Z</time>
      </trkpt>
      <trkpt lat="44.02389" lon="3.35405">
        <ele>525.1</ele>
        <time>2021-08-14T08:29:47Z</time>
      </trkpt>
      <trkpt lat="44.02387" lon="3.35395">
        <ele>524.3</ele>
        <time>2021-08-14T08:29:49Z</time>
      </trkpt>
      <trkpt lat="44.02385" lon="3.35385">
        <ele>523.4</ele>
        <time>2021-08-14T08:29:51Z</time>
      </trkpt>
      <trkpt lat="44.02383" lon="3.35375">
        <ele>522.6</ele>
        <time>2021-08-14T08:29:53Z</time>
      </trkpt>
      <trkpt lat="44.02379" lon="3.35366">
        <ele>521.9</ele>
        <time>2021-08-14T08:29:55Z</time>
      </trkpt>
      <trkpt lat="44.02375" lon="3.35357">
        <ele>521.2</ele>
        <time>2021-08-14T08:29:57Z</time>
      </trkpt>
      <trkpt lat="44.0237" lon="3.35349">
        <ele>520.7</ele>
        <time>2021-08-14T08:29:59Z</time>
      </trkpt>
      <trkpt lat="44.02365" lon="3.35341">
        <ele>520</ele>
        <time>2021-08-14T08:30:01Z</time>
      </trkpt>
      <trkpt lat="44.02358" lon="3.35335">
        <ele>519.8</ele>
        <time>2021-08-14T08:30:03Z</time>
      </trkpt>
      <trkpt lat="44.02352" lon="3.35329">
        <ele>519.2</ele>
        <time>2021-08-14T08:30:05Z</time>
      </trkpt>
      <trkpt lat="44.02344" lon="3.35325">
        <ele>519</ele>
        <time>2021-08-14T08:30:07Z</time>
      </trkpt>
      <trkpt lat="44.02336" lon="3.35321">
        <ele>518.7</ele>
        <time>2021-08-14T08:30:09Z</time>
      </trkpt>
      <trkpt lat="44.02328" lon="3.35319">
        <ele>518.7</ele>
        <time>2021-08-14T08:30:11Z</time>
      </trkpt>
      <trkpt lat="44.0232" lon="3.35318">
        <ele>519</ele>
        <time>2021-08-14T08:30:13Z</time>
      </trkpt>
      <trkpt lat="44.02312" lon="3.35318">
        <ele>519.4</ele>
        <time>2021-08-14T08:30:15Z</time>
      </trkpt>
      <trkpt lat="44.02302" lon="3.35318">
        <ele>519.8</ele>
        <time>2021-08-14T08:30:17Z</time>
      </trkpt>
      <trkpt lat="44.02293" lon="3.35318">
        <ele>520.2</ele>
        <time>2021-08-14T08:30:19Z</time>
      </trkpt>
      <trkpt lat="44.02282" lon="3.35319">
        <ele>520.9</ele>
        <time>2021-08-14T08:30:21Z</time>
      </trkpt>
      <trkpt lat="44.02272" lon="3.35319">
        <ele>521.5</ele>
        <time>2021-08-14T08:30:23Z</time>
      </trkpt>
      <trkpt lat="44.02261" lon="3.35318">
        <ele>522</ele>
        <time>2021-08-14T08:30:25Z</time>
      </trkpt>
      <trkpt lat="44.0225" lon="3.35318">
        <ele>522.4</ele>
        <time>2021-08-14T08:30:27Z</time>
      </trkpt>
      <trkpt lat="44.02239" lon="3.35316">
        <ele>522.9</ele>
        <time>2021-08-14T08:30:29Z</time>
      </trkpt>
      <trkpt lat="44.02228" lon="3.35314">
        <ele>523.4</ele>
        <time>2021-08-14T08:30:31Z</time>
      </trkpt>
      <trkpt lat="44.02216" lon="3.35312">
        <ele>523.8</ele>
        <time>2021-08-14T08:30:33Z</time>
      </trkpt>
      <trkpt lat="44.02205" lon="3.35309">
        <ele>524.2</ele>
        <time>2021-08-14T08:30:35Z</time>
      </trkpt>
      <trkpt lat="44.02193" lon="3.35304">
        <ele>524.5</ele>
        <time>2021-08-14T08:30:37Z</time>
      </trkpt>
      <trkpt lat="44.02182" lon="3.35299">
        <ele>524.7</ele>
        <time>2021-08-14T08:30:39Z</time>
      </trkpt>
      <trkpt lat="44.02171" lon="3.35292">
        <ele>524.6</ele>
        <time>2021-08-14T08:30:41Z</time>
      </trkpt>
      <trkpt lat="44.02161" lon="3.35283">
        <ele>524.8</ele>
        <time>2021-08-14T08:30:43Z</time>
      </trkpt>
      <trkpt lat="44.02153" lon="3.35274">
        <ele>524.8</ele>
        <time>2021-08-14T08:30:45Z</time>
      </trkpt>
      <trkpt lat="44.02145" lon="3.35263">
        <ele>524.6</ele>
        <time>2021-08-14T08:30:47Z</time>
      </trkpt>
      <trkpt lat="44.02138" lon="3.3525">
        <ele>523.8</ele>
        <time>2021-08-14T08:30:49Z</time>
      </trkpt>
      <trkpt lat="44.02133" lon="3.35236">
        <ele>523.4</ele>
        <time>2021-08-14T08:30:51Z</time>
      </trkpt>
      <trkpt lat="44.02128" lon="3.3522">
        <ele>522.8</ele>
        <time>2021-08-14T08:30:53Z</time>
      </trkpt>
      <trkpt lat="44.02124" lon="3.35202">
        <ele>521.9</ele>
        <time>2021-08-14T08:30:55Z</time>
      </trkpt>
      <trkpt lat="44.02119" lon="3.35185">
        <ele>520.9</ele>
        <time>2021-08-14T08:30:57Z</time>
      </trkpt>
      <trkpt lat="44.02114" lon="3.35165">
        <ele>519.7</ele>
        <time>2021-08-14T08:30:59Z</time>
      </trkpt>
      <trkpt lat="44.02108" lon="3.35145">
        <ele>519.1</ele>
        <time>2021-08-14T08:31:01Z</time>
      </trkpt>
      <trkpt lat="44.02103" lon="3.35125">
        <ele>518.4</ele>
        <time>2021-08-14T08:31:03Z</time>
      </trkpt>
      <trkpt lat="44.02099" lon="3.35106">
        <ele>517.6</ele>
        <time>2021-08-14T08:31:05Z</time>
      </trkpt>
      <trkpt lat="44.02093" lon="3.35087">
        <ele>516.8</ele>
        <time>2021-08-14T08:31:07Z</time>
      </trkpt>
      <trkpt lat="44.02089" lon="3.35069">
        <ele>516.4</ele>
        <time>2021-08-14T08:31:09Z</time>
      </trkpt>
      <trkpt lat="44.02084" lon="3.35051">
        <ele>516.2</ele>
        <time>2021-08-14T08:31:11Z</time>
      </trkpt>
      <trkpt lat="44.0208" lon="3.35034">
        <ele>516.4</ele>
        <time>2021-08-14T08:31:13Z</time>
      </trkpt>
      <trkpt lat="44.02076" lon="3.35017">
        <ele>516.5</ele>
        <time>2021-08-14T08:31:15Z</time>
      </trkpt>
      <trkpt lat="44.02072" lon="3.35">
        <ele>516.7</ele>
        <time>2021-08-14T08:31:17Z</time>
      </trkpt>
      <trkpt lat="44.02067" lon="3.34983">
        <ele>516.7</ele>
        <time>2021-08-14T08:31:19Z</time>
      </trkpt>
      <trkpt lat="44.02062" lon="3.34965">
        <ele>516.6</ele>
        <time>2021-08-14T08:31:21Z</time>
      </trkpt>
      <trkpt lat="44.02058" lon="3.34948">
        <ele>516.5</ele>
        <time>2021-08-14T08:31:23Z</time>
      </trkpt>
      <trkpt lat="44.02053" lon="3.34932">
        <ele>516.3</ele>
        <time>2021-08-14T08:31:25Z</time>
      </trkpt>
      <trkpt lat="44.02049" lon="3.34916">
        <ele>516</ele>
        <time>2021-08-14T08:31:27Z</time>
      </trkpt>
      <trkpt lat="44.02045" lon="3.349">
        <ele>516.2</ele>
        <time>2021-08-14T08:31:29Z</time>
      </trkpt>
      <trkpt lat="44.02042" lon="3.34884">
        <ele>516.2</ele>
        <time>2021-08-14T08:31:31Z</time>
      </trkpt>
      <trkpt lat="44.02038" lon="3.34869">
        <ele>516.2</ele>
        <time>2021-08-14T08:31:33Z</time>
      </trkpt>
      <trkpt lat="44.02034" lon="3.34853">
        <ele>516.3</ele>
        <time>2021-08-14T08:31:35Z</time>
      </trkpt>
      <trkpt lat="44.0203" lon="3.34838">
        <ele>516.2</ele>
        <time>2021-08-14T08:31:37Z</time>
      </trkpt>
      <trkpt lat="44.02026" lon="3.34822">
        <ele>516.1</ele>
        <time>2021-08-14T08:31:39Z</time>
      </trkpt>
      <trkpt lat="44.02022" lon="3.34807">
        <ele>516</ele>
        <time>2021-08-14T08:31:41Z</time>
      </trkpt>
      <trkpt lat="44.02018" lon="3.34791">
        <ele>515.8</ele>
        <time>2021-08-14T08:31:43Z</time>
      </trkpt>
      <trkpt lat="44.02014" lon="3.34777">
        <ele>515.7</ele>
        <time>2021-08-14T08:31:45Z</time>
      </trkpt>
      <trkpt lat="44.02011" lon="3.34761">
        <ele>515.5</ele>
        <time>2021-08-14T08:31:47Z</time>
      </trkpt>
      <trkpt lat="44.02007" lon="3.34746">
        <ele>515.2</ele>
        <time>2021-08-14T08:31:49Z</time>
      </trkpt>
      <trkpt lat="44.02003" lon="3.3473">
        <ele>515</ele>
        <time>2021-08-14T08:31:51Z</time>
      </trkpt>
      <trkpt lat="44.01999" lon="3.34714">
        <ele>514.9</ele>
        <time>2021-08-14T08:31:53Z</time>
      </trkpt>
      <trkpt lat="44.01995" lon="3.34698">
        <ele>515.6</ele>
        <time>2021-08-14T08:31:55Z</time>
      </trkpt>
      <trkpt lat="44.01991" lon="3.34682">
        <ele>516.2</ele>
        <time>2021-08-14T08:31:57Z</time>
      </trkpt>
      <trkpt lat="44.01987" lon="3.34667">
        <ele>516.9</ele>
        <time>2021-08-14T08:31:59Z</time>
      </trkpt>
      <trkpt lat="44.01982" lon="3.34651">
        <ele>517.6</ele>
        <time>2021-08-14T08:32:01Z</time>
      </trkpt>
      <trkpt lat="44.01978" lon="3.34636">
        <ele>518.1</ele>
        <time>2021-08-14T08:32:03Z</time>
      </trkpt>
      <trkpt lat="44.01974" lon="3.34622">
        <ele>518.3</ele>
        <time>2021-08-14T08:32:05Z</time>
      </trkpt>
      <trkpt lat="44.01971" lon="3.34607">
        <ele>518.3</ele>
        <time>2021-08-14T08:32:07Z</time>
      </trkpt>
      <trkpt lat="44.01968" lon="3.34593">
        <ele>518.1</ele>
        <time>2021-08-14T08:32:09Z</time>
      </trkpt>
      <trkpt lat="44.01963" lon="3.34578">
        <ele>518.2</ele>
        <time>2021-08-14T08:32:11Z</time>
      </trkpt>
      <trkpt lat="44.01959" lon="3.34563">
        <ele>518.3</ele>
        <time>2021-08-14T08:32:13Z</time>
      </trkpt>
      <trkpt lat="44.01955" lon="3.34548">
        <ele>518.3</ele>
        <time>2021-08-14T08:32:15Z</time>
      </trkpt>
      <trkpt lat="44.01951" lon="3.34533">
        <ele>518.2</ele>
        <time>2021-08-14T08:32:17Z</time>
      </trkpt>
      <trkpt lat="44.01947" lon="3.34519">
        <ele>518</ele>
        <time>2021-08-14T08:32:19Z</time>
      </trkpt>
      <trkpt lat="44.01944" lon="3.34505">
        <ele>517.7</ele>
        <time>2021-08-14T08:32:21Z</time>
      </trkpt>
      <trkpt lat="44.01941" lon="3.34491">
        <ele>517.4</ele>
        <time>2021-08-14T08:32:23Z</time>
      </trkpt>
      <trkpt lat="44.01937" lon="3.34477">
        <ele>517.1</ele>
        <time>2021-08-14T08:32:25Z</time>
      </trkpt>
      <trkpt lat="44.01933" lon="3.34464">
        <ele>516.9</ele>
        <time>2021-08-14T08:32:27Z</time>
      </trkpt>
      <trkpt lat="44.0193" lon="3.34451">
        <ele>516.6</ele>
        <time>2021-08-14T08:32:29Z</time>
      </trkpt>
      <trkpt lat="44.01926" lon="3.34438">
        <ele>516.2</ele>
        <time>2021-08-14T08:32:31Z</time>
      </trkpt>
      <trkpt lat="44.01922" lon="3.34425">
        <ele>516</ele>
        <time>2021-08-14T08:32:33Z</time>
      </trkpt>
      <trkpt lat="44.01919" lon="3.34412">
        <ele>515.5</ele>
        <time>2021-08-14T08:32:35Z</time>
      </trkpt>
      <trkpt lat="44.01917" lon="3.34399">
        <ele>514.9</ele>
        <time>2021-08-14T08:32:37Z</time>
      </trkpt>
      <trkpt lat="44.01913" lon="3.34386">
        <ele>514.8</ele>
        <time>2021-08-14T08:32:39Z</time>
      </trkpt>
      <trkpt lat="44.0191" lon="3.34373">
        <ele>514.6</ele>
        <time>2021-08-14T08:32:41Z</time>
      </trkpt>
      <trkpt lat="44.01907" lon="3.34361">
        <ele>514.7</ele>
        <time>2021-08-14T08:32:43Z</time>
      </trkpt>
      <trkpt lat="44.01903" lon="3.34348">
        <ele>514.8</ele>
        <time>2021-08-14T08:32:45Z</time>
      </trkpt>
      <trkpt lat="44.019" lon="3.34333">
        <ele>514.8</ele>
        <time>2021-08-14T08:32:47Z</time>
      </trkpt>
      <trkpt lat="44.01896" lon="3.34318">
        <ele>515</ele>
        <time>2021-08-14T08:32:49Z</time>
      </trkpt>
      <trkpt lat="44.01892" lon="3.34302">
        <ele>515.1</ele>
        <time>2021-08-14T08:32:51Z</time>
      </trkpt>
      <trkpt lat="44.01887" lon="3.34286">
        <ele>515.2</ele>
        <time>2021-08-14T08:32:53Z</time>
      </trkpt>
      <trkpt lat="44.01882" lon="3.34269">
        <ele>515.2</ele>
        <time>2021-08-14T08:32:55Z</time>
      </trkpt>
      <trkpt lat="44.01878" lon="3.34251">
        <ele>514.9</ele>
        <time>2021-08-14T08:32:57Z</time>
      </trkpt>
      <trkpt lat="44.01874" lon="3.34233">
        <ele>514.6</ele>
        <time>2021-08-14T08:32:59Z</time>
      </trkpt>
      <trkpt lat="44.01869" lon="3.34214">
        <ele>514.1</ele>
        <time>2021-08-14T08:33:01Z</time>
      </trkpt>
      <trkpt lat="44.01864" lon="3.34196">
        <ele>513.7</ele>
        <time>2021-08-14T08:33:03Z</time>
      </trkpt>
      <trkpt lat="44.01859" lon="3.34177">
        <ele>513.1</ele>
        <time>2021-08-14T08:33:05Z</time>
      </trkpt>
      <trkpt lat="44.01854" lon="3.34158">
        <ele>512.7</ele>
        <time>2021-08-14T08:33:07Z</time>
      </trkpt>
      <trkpt lat="44.0185" lon="3.3414">
        <ele>512.8</ele>
        <time>2021-08-14T08:33:09Z</time>
      </trkpt>
      <trkpt lat="44.01845" lon="3.34121">
        <ele>513.1</ele>
        <time>2021-08-14T08:33:11Z</time>
      </trkpt>
      <trkpt lat="44.0184" lon="3.34103">
        <ele>513.4</ele>
        <time>2021-08-14T08:33:13Z</time>
      </trkpt>
      <trkpt lat="44.01835" lon="3.34084">
        <ele>513.7</ele>
        <time>2021-08-14T08:33:15Z</time>
      </trkpt>
      <trkpt lat="44.0183" lon="3.34066">
        <ele>513.6</ele>
        <time>2021-08-14T08:33:17Z</time>
      </trkpt>
      <trkpt lat="44.01826" lon="3.34048">
        <ele>513.7</ele>
        <time>2021-08-14T08:33:19Z</time>
      </trkpt>
      <trkpt lat="44.01822" lon="3.3403">
        <ele>513.6</ele>
        <time>2021-08-14T08:33:21Z</time>
      </trkpt>
      <trkpt lat="44.01817" lon="3.34013">
        <ele>513.7</ele>
        <time>2021-08-14T08:33:23Z</time>
      </trkpt>
      <trkpt lat="44.01813" lon="3.33995">
        <ele>514</ele>
        <time>2021-08-14T08:33:25Z</time>
      </trkpt>
      <trkpt lat="44.01808" lon="3.33978">
        <ele>514.8</ele>
        <time>2021-08-14T08:33:27Z</time>
      </trkpt>
      <trkpt lat="44.01803" lon="3.33961">
        <ele>515.7</ele>
        <time>2021-08-14T08:33:29Z</time>
      </trkpt>
      <trkpt lat="44.01799" lon="3.33943">
        <ele>516.5</ele>
        <time>2021-08-14T08:33:31Z</time>
      </trkpt>
      <trkpt lat="44.01795" lon="3.33926">
        <ele>517.3</ele>
        <time>2021-08-14T08:33:33Z</time>
      </trkpt>
      <trkpt lat="44.01791" lon="3.33909">
        <ele>518.2</ele>
        <time>2021-08-14T08:33:35Z</time>
      </trkpt>
      <trkpt lat="44.01788" lon="3.33893">
        <ele>519.3</ele>
        <time>2021-08-14T08:33:37Z</time>
      </trkpt>
      <trkpt lat="44.01787" lon="3.33876">
        <ele>519.9</ele>
        <time>2021-08-14T08:33:39Z</time>
      </trkpt>
      <trkpt lat="44.01788" lon="3.33859">
        <ele>519.8</ele>
        <time>2021-08-14T08:33:41Z</time>
      </trkpt>
      <trkpt lat="44.0179" lon="3.33844">
        <ele>519</ele>
        <time>2021-08-14T08:33:43Z</time>
      </trkpt>
      <trkpt lat="44.01794" lon="3.33829">
        <ele>518.1</ele>
        <time>2021-08-14T08:33:45Z</time>
      </trkpt>
      <trkpt lat="44.01798" lon="3.33816">
        <ele>517.4</ele>
        <time>2021-08-14T08:33:47Z</time>
      </trkpt>
      <trkpt lat="44.01803" lon="3.33803">
        <ele>516.8</ele>
        <time>2021-08-14T08:33:49Z</time>
      </trkpt>
      <trkpt lat="44.01808" lon="3.33789">
        <ele>516.3</ele>
        <time>2021-08-14T08:33:51Z</time>
      </trkpt>
      <trkpt lat="44.01813" lon="3.33776">
        <ele>515.6</ele>
        <time>2021-08-14T08:33:53Z</time>
      </trkpt>
      <trkpt lat="44.01818" lon="3.33763">
        <ele>515</ele>
        <time>2021-08-14T08:33:55Z</time>
      </trkpt>
      <trkpt lat="44.01822" lon="3.33749">
        <ele>514.8</ele>
        <time>2021-08-14T08:33:57Z</time>
      </trkpt>
      <trkpt lat="44.01828" lon="3.33735">
        <ele>515.4</ele>
        <time>2021-08-14T08:33:59Z</time>
      </trkpt>
      <trkpt lat="44.01833" lon="3.3372">
        <ele>516.2</ele>
        <time>2021-08-14T08:34:01Z</time>
      </trkpt>
      <trkpt lat="44.0184" lon="3.33704">
        <ele>517.4</ele>
        <time>2021-08-14T08:34:03Z</time>
      </trkpt>
      <trkpt lat="44.01846" lon="3.33687">
        <ele>518.7</ele>
        <time>2021-08-14T08:34:05Z</time>
      </trkpt>
      <trkpt lat="44.01853" lon="3.33671">
        <ele>519.1</ele>
        <time>2021-08-14T08:34:07Z</time>
      </trkpt>
      <trkpt lat="44.01861" lon="3.33657">
        <ele>519</ele>
        <time>2021-08-14T08:34:09Z</time>
      </trkpt>
      <trkpt lat="44.0187" lon="3.33643">
        <ele>518.5</ele>
        <time>2021-08-14T08:34:11Z</time>
      </trkpt>
      <trkpt lat="44.01878" lon="3.3363">
        <ele>517.6</ele>
        <time>2021-08-14T08:34:13Z</time>
      </trkpt>
      <trkpt lat="44.01888" lon="3.33616">
        <ele>516.4</ele>
        <time>2021-08-14T08:34:15Z</time>
      </trkpt>
      <trkpt lat="44.01898" lon="3.33603">
        <ele>514.8</ele>
        <time>2021-08-14T08:34:17Z</time>
      </trkpt>
      <trkpt lat="44.0191" lon="3.33591">
        <ele>512.4</ele>
        <time>2021-08-14T08:34:19Z</time>
      </trkpt>
      <trkpt lat="44.01922" lon="3.3358">
        <ele>511.5</ele>
        <time>2021-08-14T08:34:21Z</time>
      </trkpt>
      <trkpt lat="44.01934" lon="3.33569">
        <ele>512.7</ele>
        <time>2021-08-14T08:34:23Z</time>
      </trkpt>
      <trkpt lat="44.01947" lon="3.3356">
        <ele>513.4</ele>
        <time>2021-08-14T08:34:25Z</time>
      </trkpt>
      <trkpt lat="44.01959" lon="3.3355">
        <ele>513.6</ele>
        <time>2021-08-14T08:34:27Z</time>
      </trkpt>
      <trkpt lat="44.01971" lon="3.3354">
        <ele>513.5</ele>
        <time>2021-08-14T08:34:29Z</time>
      </trkpt>
      <trkpt lat="44.01983" lon="3.3353">
        <ele>513</ele>
        <time>2021-08-14T08:34:31Z</time>
      </trkpt>
      <trkpt lat="44.01995" lon="3.3352">
        <ele>512.1</ele>
        <time>2021-08-14T08:34:33Z</time>
      </trkpt>
      <trkpt lat="44.02007" lon="3.33511">
        <ele>511.4</ele>
        <time>2021-08-14T08:34:35Z</time>
      </trkpt>
      <trkpt lat="44.02019" lon="3.33502">
        <ele>510.8</ele>
        <time>2021-08-14T08:34:37Z</time>
      </trkpt>
      <trkpt lat="44.02031" lon="3.33492">
        <ele>511.1</ele>
        <time>2021-08-14T08:34:39Z</time>
      </trkpt>
      <trkpt lat="44.02043" lon="3.33482">
        <ele>511.6</ele>
        <time>2021-08-14T08:34:41Z</time>
      </trkpt>
      <trkpt lat="44.02055" lon="3.33472">
        <ele>512</ele>
        <time>2021-08-14T08:34:43Z</time>
      </trkpt>
      <trkpt lat="44.02066" lon="3.33461">
        <ele>512.3</ele>
        <time>2021-08-14T08:34:45Z</time>
      </trkpt>
      <trkpt lat="44.02078" lon="3.33452">
        <ele>512.3</ele>
        <time>2021-08-14T08:34:47Z</time>
      </trkpt>
      <trkpt lat="44.0209" lon="3.33442">
        <ele>512.3</ele>
        <time>2021-08-14T08:34:49Z</time>
      </trkpt>
      <trkpt lat="44.02102" lon="3.33433">
        <ele>512</ele>
        <time>2021-08-14T08:34:51Z</time>
      </trkpt>
      <trkpt lat="44.02114" lon="3.33424">
        <ele>511.5</ele>
        <time>2021-08-14T08:34:53Z</time>
      </trkpt>
      <trkpt lat="44.02125" lon="3.33414">
        <ele>511.1</ele>
        <time>2021-08-14T08:34:55Z</time>
      </trkpt>
      <trkpt lat="44.02137" lon="3.33405">
        <ele>511.5</ele>
        <time>2021-08-14T08:34:57Z</time>
      </trkpt>
      <trkpt lat="44.02149" lon="3.33396">
        <ele>512</ele>
        <time>2021-08-14T08:34:59Z</time>
      </trkpt>
      <trkpt lat="44.02161" lon="3.33386">
        <ele>512.5</ele>
        <time>2021-08-14T08:35:01Z</time>
      </trkpt>
      <trkpt lat="44.02172" lon="3.33376">
        <ele>512.9</ele>
        <time>2021-08-14T08:35:03Z</time>
      </trkpt>
      <trkpt lat="44.02182" lon="3.33366">
        <ele>513.3</ele>
        <time>2021-08-14T08:35:05Z</time>
      </trkpt>
      <trkpt lat="44.02193" lon="3.33354">
        <ele>513.1</ele>
        <time>2021-08-14T08:35:07Z</time>
      </trkpt>
      <trkpt lat="44.02203" lon="3.33341">
        <ele>512.9</ele>
        <time>2021-08-14T08:35:09Z</time>
      </trkpt>
      <trkpt lat="44.02212" lon="3.33327">
        <ele>512</ele>
        <time>2021-08-14T08:35:11Z</time>
      </trkpt>
      <trkpt lat="44.0222" lon="3.33312">
        <ele>510.7</ele>
        <time>2021-08-14T08:35:13Z</time>
      </trkpt>
      <trkpt lat="44.02226" lon="3.33296">
        <ele>509.9</ele>
        <time>2021-08-14T08:35:15Z</time>
      </trkpt>
      <trkpt lat="44.0223" lon="3.33278">
        <ele>509.3</ele>
        <time>2021-08-14T08:35:17Z</time>
      </trkpt>
      <trkpt lat="44.02233" lon="3.33261">
        <ele>509.4</ele>
        <time>2021-08-14T08:35:19Z</time>
      </trkpt>
      <trkpt lat="44.02233" lon="3.33242">
        <ele>509.3</ele>
        <time>2021-08-14T08:35:21Z</time>
      </trkpt>
      <trkpt lat="44.02233" lon="3.33224">
        <ele>508.2</ele>
        <time>2021-08-14T08:35:23Z</time>
      </trkpt>
      <trkpt lat="44.02231" lon="3.33205">
        <ele>507.5</ele>
        <time>2021-08-14T08:35:25Z</time>
      </trkpt>
      <trkpt lat="44.02227" lon="3.33187">
        <ele>506.9</ele>
        <time>2021-08-14T08:35:27Z</time>
      </trkpt>
      <trkpt lat="44.02222" lon="3.3317">
        <ele>506.7</ele>
        <time>2021-08-14T08:35:29Z</time>
      </trkpt>
      <trkpt lat="44.02215" lon="3.33155">
        <ele>506.6</ele>
        <time>2021-08-14T08:35:31Z</time>
      </trkpt>
      <trkpt lat="44.02206" lon="3.3314">
        <ele>506.5</ele>
        <time>2021-08-14T08:35:33Z</time>
      </trkpt>
      <trkpt lat="44.02196" lon="3.33127">
        <ele>506.3</ele>
        <time>2021-08-14T08:35:35Z</time>
      </trkpt>
      <trkpt lat="44.02186" lon="3.33113">
        <ele>505.8</ele>
        <time>2021-08-14T08:35:37Z</time>
      </trkpt>
      <trkpt lat="44.02176" lon="3.331">
        <ele>504.9</ele>
        <time>2021-08-14T08:35:39Z</time>
      </trkpt>
      <trkpt lat="44.02166" lon="3.33087">
        <ele>503.7</ele>
        <time>2021-08-14T08:35:41Z</time>
      </trkpt>
      <trkpt lat="44.02156" lon="3.33073">
        <ele>504.4</ele>
        <time>2021-08-14T08:35:43Z</time>
      </trkpt>
      <trkpt lat="44.02146" lon="3.3306">
        <ele>505.2</ele>
        <time>2021-08-14T08:35:45Z</time>
      </trkpt>
      <trkpt lat="44.02137" lon="3.33046">
        <ele>505.4</ele>
        <time>2021-08-14T08:35:47Z</time>
      </trkpt>
      <trkpt lat="44.02127" lon="3.33033">
        <ele>505.3</ele>
        <time>2021-08-14T08:35:49Z</time>
      </trkpt>
      <trkpt lat="44.02117" lon="3.3302">
        <ele>504.6</ele>
        <time>2021-08-14T08:35:51Z</time>
      </trkpt>
      <trkpt lat="44.02107" lon="3.33006">
        <ele>503.5</ele>
        <time>2021-08-14T08:35:53Z</time>
      </trkpt>
      <trkpt lat="44.02098" lon="3.32993">
        <ele>502.7</ele>
        <time>2021-08-14T08:35:55Z</time>
      </trkpt>
      <trkpt lat="44.02088" lon="3.32979">
        <ele>502.3</ele>
        <time>2021-08-14T08:35:57Z</time>
      </trkpt>
      <trkpt lat="44.02078" lon="3.32966">
        <ele>502.2</ele>
        <time>2021-08-14T08:35:59Z</time>
      </trkpt>
      <trkpt lat="44.02068" lon="3.32952">
        <ele>502.3</ele>
        <time>2021-08-14T08:36:01Z</time>
      </trkpt>
      <trkpt lat="44.02058" lon="3.32938">
        <ele>502.2</ele>
        <time>2021-08-14T08:36:03Z</time>
      </trkpt>
      <trkpt lat="44.02049" lon="3.32924">
        <ele>501.7</ele>
        <time>2021-08-14T08:36:05Z</time>
      </trkpt>
      <trkpt lat="44.02039" lon="3.32911">
        <ele>501.4</ele>
        <time>2021-08-14T08:36:07Z</time>
      </trkpt>
      <trkpt lat="44.02029" lon="3.32897">
        <ele>501.3</ele>
        <time>2021-08-14T08:36:09Z</time>
      </trkpt>
      <trkpt lat="44.0202" lon="3.32884">
        <ele>500.9</ele>
        <time>2021-08-14T08:36:11Z</time>
      </trkpt>
      <trkpt lat="44.0201" lon="3.32871">
        <ele>500.3</ele>
        <time>2021-08-14T08:36:13Z</time>
      </trkpt>
      <trkpt lat="44.02001" lon="3.32858">
        <ele>499.3</ele>
        <time>2021-08-14T08:36:15Z</time>
      </trkpt>
      <trkpt lat="44.01991" lon="3.32845">
        <ele>500.8</ele>
        <time>2021-08-14T08:36:17Z</time>
      </trkpt>
      <trkpt lat="44.01982" lon="3.32832">
        <ele>502.3</ele>
        <time>2021-08-14T08:36:19Z</time>
      </trkpt>
      <trkpt lat="44.01972" lon="3.32818">
        <ele>504</ele>
        <time>2021-08-14T08:36:21Z</time>
      </trkpt>
      <trkpt lat="44.01963" lon="3.32805">
        <ele>505.1</ele>
        <time>2021-08-14T08:36:23Z</time>
      </trkpt>
      <trkpt lat="44.01953" lon="3.32791">
        <ele>505.6</ele>
        <time>2021-08-14T08:36:25Z</time>
      </trkpt>
      <trkpt lat="44.01944" lon="3.32778">
        <ele>505.4</ele>
        <time>2021-08-14T08:36:27Z</time>
      </trkpt>
      <trkpt lat="44.01935" lon="3.32765">
        <ele>504.7</ele>
        <time>2021-08-14T08:36:29Z</time>
      </trkpt>
      <trkpt lat="44.01925" lon="3.32752">
        <ele>503.4</ele>
        <time>2021-08-14T08:36:31Z</time>
      </trkpt>
      <trkpt lat="44.01916" lon="3.32739">
        <ele>502.9</ele>
        <time>2021-08-14T08:36:33Z</time>
      </trkpt>
      <trkpt lat="44.01906" lon="3.32726">
        <ele>503</ele>
        <time>2021-08-14T08:36:35Z</time>
      </trkpt>
      <trkpt lat="44.01898" lon="3.32714">
        <ele>502.8</ele>
        <time>2021-08-14T08:36:37Z</time>
      </trkpt>
      <trkpt lat="44.01889" lon="3.32704">
        <ele>502.6</ele>
        <time>2021-08-14T08:36:39Z</time>
      </trkpt>
      <trkpt lat="44.0188" lon="3.32695">
        <ele>502.5</ele>
        <time>2021-08-14T08:36:41Z</time>
      </trkpt>
      <trkpt lat="44.01871" lon="3.32688">
        <ele>502.4</ele>
        <time>2021-08-14T08:36:43Z</time>
      </trkpt>
      <trkpt lat="44.01861" lon="3.32683">
        <ele>502.5</ele>
        <time>2021-08-14T08:36:45Z</time>
      </trkpt>
      <trkpt lat="44.01851" lon="3.3268">
        <ele>503.1</ele>
        <time>2021-08-14T08:36:47Z</time>
      </trkpt>
      <trkpt lat="44.01841" lon="3.32676">
        <ele>503.3</ele>
        <time>2021-08-14T08:36:49Z</time>
      </trkpt>
      <trkpt lat="44.01832" lon="3.32672">
        <ele>503.5</ele>
        <time>2021-08-14T08:36:51Z</time>
      </trkpt>
      <trkpt lat="44.01822" lon="3.32667">
        <ele>504.8</ele>
        <time>2021-08-14T08:36:53Z</time>
      </trkpt>
      <trkpt lat="44.01813" lon="3.32661">
        <ele>506</ele>
        <time>2021-08-14T08:36:55Z</time>
      </trkpt>
      <trkpt lat="44.01805" lon="3.32653">
        <ele>506.6</ele>
        <time>2021-08-14T08:36:57Z</time>
      </trkpt>
      <trkpt lat="44.01798" lon="3.32647">
        <ele>507.2</ele>
        <time>2021-08-14T08:36:59Z</time>
      </trkpt>
      <trkpt lat="44.0179" lon="3.32641">
        <ele>507.9</ele>
        <time>2021-08-14T08:37:01Z</time>
      </trkpt>
      <trkpt lat="44.01783" lon="3.32634">
        <ele>508</ele>
        <time>2021-08-14T08:37:03Z</time>
      </trkpt>
      <trkpt lat="44.01776" lon="3.32628">
        <ele>508.3</ele>
        <time>2021-08-14T08:37:05Z</time>
      </trkpt>
      <trkpt lat="44.01768" lon="3.32622">
        <ele>508.5</ele>
        <time>2021-08-14T08:37:07Z</time>
      </trkpt>
      <trkpt lat="44.01762" lon="3.32615">
        <ele>508.1</ele>
        <time>2021-08-14T08:37:09Z</time>
      </trkpt>
      <trkpt lat="44.01755" lon="3.32609">
        <ele>508</ele>
        <time>2021-08-14T08:37:11Z</time>
      </trkpt>
      <trkpt lat="44.01749" lon="3.32602">
        <ele>507.5</ele>
        <time>2021-08-14T08:37:13Z</time>
      </trkpt>
      <trkpt lat="44.01743" lon="3.32595">
        <ele>507.3</ele>
        <time>2021-08-14T08:37:15Z</time>
      </trkpt>
      <trkpt lat="44.01737" lon="3.32588">
        <ele>507.2</ele>
        <time>2021-08-14T08:37:17Z</time>
      </trkpt>
      <trkpt lat="44.0173" lon="3.32582">
        <ele>507.2</ele>
        <time>2021-08-14T08:37:19Z</time>
      </trkpt>
      <trkpt lat="44.01725" lon="3.32575">
        <ele>507.4</ele>
        <time>2021-08-14T08:37:21Z</time>
      </trkpt>
      <trkpt lat="44.01719" lon="3.32568">
        <ele>507.5</ele>
        <time>2021-08-14T08:37:23Z</time>
      </trkpt>
      <trkpt lat="44.01713" lon="3.32561">
        <ele>507.6</ele>
        <time>2021-08-14T08:37:25Z</time>
      </trkpt>
      <trkpt lat="44.01707" lon="3.32554">
        <ele>507.6</ele>
        <time>2021-08-14T08:37:27Z</time>
      </trkpt>
      <trkpt lat="44.01701" lon="3.32546">
        <ele>507.4</ele>
        <time>2021-08-14T08:37:29Z</time>
      </trkpt>
      <trkpt lat="44.01695" lon="3.32539">
        <ele>507.4</ele>
        <time>2021-08-14T08:37:31Z</time>
      </trkpt>
      <trkpt lat="44.01688" lon="3.3253">
        <ele>507.1</ele>
        <time>2021-08-14T08:37:33Z</time>
      </trkpt>
      <trkpt lat="44.0168" lon="3.32523">
        <ele>507.2</ele>
        <time>2021-08-14T08:37:35Z</time>
      </trkpt>
      <trkpt lat="44.01673" lon="3.32515">
        <ele>507</ele>
        <time>2021-08-14T08:37:37Z</time>
      </trkpt>
      <trkpt lat="44.01665" lon="3.32506">
        <ele>506.3</ele>
        <time>2021-08-14T08:37:39Z</time>
      </trkpt>
      <trkpt lat="44.01657" lon="3.32498">
        <ele>505.2</ele>
        <time>2021-08-14T08:37:41Z</time>
      </trkpt>
      <trkpt lat="44.01649" lon="3.32488">
        <ele>504.5</ele>
        <time>2021-08-14T08:37:43Z</time>
      </trkpt>
      <trkpt lat="44.0164" lon="3.32478">
        <ele>503.9</ele>
        <time>2021-08-14T08:37:45Z</time>
      </trkpt>
      <trkpt lat="44.01631" lon="3.32467">
        <ele>503.3</ele>
        <time>2021-08-14T08:37:47Z</time>
      </trkpt>
      <trkpt lat="44.01623" lon="3.32457">
        <ele>502.7</ele>
        <time>2021-08-14T08:37:49Z</time>
      </trkpt>
      <trkpt lat="44.01614" lon="3.32446">
        <ele>502.3</ele>
        <time>2021-08-14T08:37:51Z</time>
      </trkpt>
      <trkpt lat="44.01605" lon="3.32435">
        <ele>501.9</ele>
        <time>2021-08-14T08:37:53Z</time>
      </trkpt>
      <trkpt lat="44.01595" lon="3.32424">
        <ele>501.7</ele>
        <time>2021-08-14T08:37:55Z</time>
      </trkpt>
      <trkpt lat="44.01586" lon="3.32413">
        <ele>501.5</ele>
        <time>2021-08-14T08:37:57Z</time>
      </trkpt>
      <trkpt lat="44.01577" lon="3.32403">
        <ele>500.9</ele>
        <time>2021-08-14T08:37:59Z</time>
      </trkpt>
      <trkpt lat="44.01567" lon="3.32392">
        <ele>500.2</ele>
        <time>2021-08-14T08:38:01Z</time>
      </trkpt>
      <trkpt lat="44.01558" lon="3.32381">
        <ele>499.6</ele>
        <time>2021-08-14T08:38:03Z</time>
      </trkpt>
      <trkpt lat="44.01548" lon="3.3237">
        <ele>499.1</ele>
        <time>2021-08-14T08:38:05Z</time>
      </trkpt>
      <trkpt lat="44.01538" lon="3.32358">
        <ele>498.6</ele>
        <time>2021-08-14T08:38:07Z</time>
      </trkpt>
      <trkpt lat="44.01528" lon="3.32347">
        <ele>498.3</ele>
        <time>2021-08-14T08:38:09Z</time>
      </trkpt>
      <trkpt lat="44.01519" lon="3.32336">
        <ele>498.1</ele>
        <time>2021-08-14T08:38:11Z</time>
      </trkpt>
      <trkpt lat="44.01509" lon="3.32325">
        <ele>498</ele>
        <time>2021-08-14T08:38:13Z</time>
      </trkpt>
      <trkpt lat="44.01499" lon="3.32314">
        <ele>497.9</ele>
        <time>2021-08-14T08:38:15Z</time>
      </trkpt>
      <trkpt lat="44.01489" lon="3.32303">
        <ele>497.8</ele>
        <time>2021-08-14T08:38:17Z</time>
      </trkpt>
      <trkpt lat="44.0148" lon="3.32292">
        <ele>497.6</ele>
        <time>2021-08-14T08:38:19Z</time>
      </trkpt>
      <trkpt lat="44.01471" lon="3.32282">
        <ele>497.4</ele>
        <time>2021-08-14T08:38:21Z</time>
      </trkpt>
      <trkpt lat="44.01461" lon="3.32271">
        <ele>497.2</ele>
        <time>2021-08-14T08:38:23Z</time>
      </trkpt>
      <trkpt lat="44.01452" lon="3.3226">
        <ele>497</ele>
        <time>2021-08-14T08:38:25Z</time>
      </trkpt>
      <trkpt lat="44.01443" lon="3.32248">
        <ele>496.7</ele>
        <time>2021-08-14T08:38:27Z</time>
      </trkpt>
      <trkpt lat="44.01433" lon="3.32237">
        <ele>496.5</ele>
        <time>2021-08-14T08:38:29Z</time>
      </trkpt>
      <trkpt lat="44.01424" lon="3.32226">
        <ele>496.3</ele>
        <time>2021-08-14T08:38:31Z</time>
      </trkpt>
      <trkpt lat="44.01414" lon="3.32215">
        <ele>496.1</ele>
        <time>2021-08-14T08:38:33Z</time>
      </trkpt>
      <trkpt lat="44.01404" lon="3.32204">
        <ele>496</ele>
        <time>2021-08-14T08:38:35Z</time>
      </trkpt>
      <trkpt lat="44.01394" lon="3.32192">
        <ele>495.7</ele>
        <time>2021-08-14T08:38:37Z</time>
      </trkpt>
      <trkpt lat="44.01383" lon="3.32181">
        <ele>495.3</ele>
        <time>2021-08-14T08:38:39Z</time>
      </trkpt>
      <trkpt lat="44.01373" lon="3.32169">
        <ele>494.8</ele>
        <time>2021-08-14T08:38:41Z</time>
      </trkpt>
      <trkpt lat="44.01363" lon="3.32157">
        <ele>494.6</ele>
        <time>2021-08-14T08:38:43Z</time>
      </trkpt>
      <trkpt lat="44.01352" lon="3.32145">
        <ele>494.7</ele>
        <time>2021-08-14T08:38:45Z</time>
      </trkpt>
      <trkpt lat="44.01341" lon="3.32133">
        <ele>494.8</ele>
        <time>2021-08-14T08:38:47Z</time>
      </trkpt>
      <trkpt lat="44.0133" lon="3.32121">
        <ele>494.9</ele>
        <time>2021-08-14T08:38:49Z</time>
      </trkpt>
      <trkpt lat="44.01319" lon="3.32109">
        <ele>494.6</ele>
        <time>2021-08-14T08:38:51Z</time>
      </trkpt>
      <trkpt lat="44.01308" lon="3.32097">
        <ele>494.3</ele>
        <time>2021-08-14T08:38:53Z</time>
      </trkpt>
      <trkpt lat="44.01297" lon="3.32085">
        <ele>494</ele>
        <time>2021-08-14T08:38:55Z</time>
      </trkpt>
      <trkpt lat="44.01286" lon="3.32072">
        <ele>494</ele>
        <time>2021-08-14T08:38:57Z</time>
      </trkpt>
      <trkpt lat="44.01276" lon="3.3206">
        <ele>494</ele>
        <time>2021-08-14T08:38:59Z</time>
      </trkpt>
      <trkpt lat="44.01265" lon="3.32048">
        <ele>494.2</ele>
        <time>2021-08-14T08:39:01Z</time>
      </trkpt>
      <trkpt lat="44.01255" lon="3.32036">
        <ele>494.5</ele>
        <time>2021-08-14T08:39:03Z</time>
      </trkpt>
      <trkpt lat="44.01246" lon="3.32023">
        <ele>494.8</ele>
        <time>2021-08-14T08:39:05Z</time>
      </trkpt>
      <trkpt lat="44.01239" lon="3.32008">
        <ele>494.9</ele>
        <time>2021-08-14T08:39:07Z</time>
      </trkpt>
      <trkpt lat="44.01231" lon="3.31995">
        <ele>494.8</ele>
        <time>2021-08-14T08:39:09Z</time>
      </trkpt>
      <trkpt lat="44.01225" lon="3.31982">
        <ele>494.5</ele>
        <time>2021-08-14T08:39:11Z</time>
      </trkpt>
      <trkpt lat="44.01219" lon="3.31968">
        <ele>494.1</ele>
        <time>2021-08-14T08:39:13Z</time>
      </trkpt>
      <trkpt lat="44.01214" lon="3.31954">
        <ele>493.8</ele>
        <time>2021-08-14T08:39:15Z</time>
      </trkpt>
      <trkpt lat="44.01209" lon="3.31939">
        <ele>493.5</ele>
        <time>2021-08-14T08:39:17Z</time>
      </trkpt>
      <trkpt lat="44.01205" lon="3.31924">
        <ele>493.2</ele>
        <time>2021-08-14T08:39:19Z</time>
      </trkpt>
      <trkpt lat="44.01202" lon="3.31909">
        <ele>493.1</ele>
        <time>2021-08-14T08:39:21Z</time>
      </trkpt>
      <trkpt lat="44.01198" lon="3.31894">
        <ele>493</ele>
        <time>2021-08-14T08:39:23Z</time>
      </trkpt>
      <trkpt lat="44.01194" lon="3.3188">
        <ele>493.1</ele>
        <time>2021-08-14T08:39:25Z</time>
      </trkpt>
      <trkpt lat="44.01191" lon="3.31865">
        <ele>493.1</ele>
        <time>2021-08-14T08:39:27Z</time>
      </trkpt>
      <trkpt lat="44.01187" lon="3.3185">
        <ele>493.1</ele>
        <time>2021-08-14T08:39:29Z</time>
      </trkpt>
      <trkpt lat="44.01183" lon="3.31836">
        <ele>493.2</ele>
        <time>2021-08-14T08:39:31Z</time>
      </trkpt>
      <trkpt lat="44.0118" lon="3.3182">
        <ele>493.3</ele>
        <time>2021-08-14T08:39:33Z</time>
      </trkpt>
      <trkpt lat="44.01176" lon="3.31805">
        <ele>493.5</ele>
        <time>2021-08-14T08:39:35Z</time>
      </trkpt>
      <trkpt lat="44.01172" lon="3.31789">
        <ele>493.7</ele>
        <time>2021-08-14T08:39:37Z</time>
      </trkpt>
      <trkpt lat="44.01168" lon="3.31775">
        <ele>493.9</ele>
        <time>2021-08-14T08:39:39Z</time>
      </trkpt>
      <trkpt lat="44.01165" lon="3.3176">
        <ele>494.1</ele>
        <time>2021-08-14T08:39:41Z</time>
      </trkpt>
      <trkpt lat="44.01161" lon="3.31745">
        <ele>494.2</ele>
        <time>2021-08-14T08:39:43Z</time>
      </trkpt>
      <trkpt lat="44.01158" lon="3.3173">
        <ele>494</ele>
        <time>2021-08-14T08:39:45Z</time>
      </trkpt>
      <trkpt lat="44.01154" lon="3.31715">
        <ele>493.8</ele>
        <time>2021-08-14T08:39:47Z</time>
      </trkpt>
      <trkpt lat="44.0115" lon="3.31701">
        <ele>493.7</ele>
        <time>2021-08-14T08:39:49Z</time>
      </trkpt>
      <trkpt lat="44.01147" lon="3.31686">
        <ele>493.5</ele>
        <time>2021-08-14T08:39:51Z</time>
      </trkpt>
      <trkpt lat="44.01143" lon="3.31671">
        <ele>493.3</ele>
        <time>2021-08-14T08:39:53Z</time>
      </trkpt>
      <trkpt lat="44.0114" lon="3.31656">
        <ele>493.7</ele>
        <time>2021-08-14T08:39:55Z</time>
      </trkpt>
      <trkpt lat="44.01136" lon="3.31641">
        <ele>494.3</ele>
        <time>2021-08-14T08:39:57Z</time>
      </trkpt>
      <trkpt lat="44.01132" lon="3.31625">
        <ele>494.8</ele>
        <time>2021-08-14T08:39:59Z</time>
      </trkpt>
      <trkpt lat="44.01128" lon="3.31609">
        <ele>495.4</ele>
        <time>2021-08-14T08:40:01Z</time>
      </trkpt>
      <trkpt lat="44.01124" lon="3.31592">
        <ele>496</ele>
        <time>2021-08-14T08:40:03Z</time>
      </trkpt>
      <trkpt lat="44.0112" lon="3.31575">
        <ele>496.2</ele>
        <time>2021-08-14T08:40:05Z</time>
      </trkpt>
      <trkpt lat="44.01115" lon="3.31558">
        <ele>496</ele>
        <time>2021-08-14T08:40:07Z</time>
      </trkpt>
      <trkpt lat="44.01111" lon="3.31541">
        <ele>495.8</ele>
        <time>2021-08-14T08:40:09Z</time>
      </trkpt>
      <trkpt lat="44.01107" lon="3.31523">
        <ele>495.6</ele>
        <time>2021-08-14T08:40:11Z</time>
      </trkpt>
      <trkpt lat="44.01102" lon="3.31506">
        <ele>495.4</ele>
        <time>2021-08-14T08:40:13Z</time>
      </trkpt>
      <trkpt lat="44.01098" lon="3.31488">
        <ele>494.8</ele>
        <time>2021-08-14T08:40:15Z</time>
      </trkpt>
      <trkpt lat="44.01093" lon="3.31471">
        <ele>494.1</ele>
        <time>2021-08-14T08:40:17Z</time>
      </trkpt>
      <trkpt lat="44.01089" lon="3.31453">
        <ele>493.2</ele>
        <time>2021-08-14T08:40:19Z</time>
      </trkpt>
      <trkpt lat="44.01084" lon="3.31435">
        <ele>492.3</ele>
        <time>2021-08-14T08:40:21Z</time>
      </trkpt>
      <trkpt lat="44.01079" lon="3.31417">
        <ele>491.1</ele>
        <time>2021-08-14T08:40:23Z</time>
      </trkpt>
      <trkpt lat="44.01075" lon="3.31399">
        <ele>490.4</ele>
        <time>2021-08-14T08:40:25Z</time>
      </trkpt>
      <trkpt lat="44.0107" lon="3.31381">
        <ele>489.8</ele>
        <time>2021-08-14T08:40:27Z</time>
      </trkpt>
      <trkpt lat="44.01065" lon="3.31362">
        <ele>489.2</ele>
        <time>2021-08-14T08:40:29Z</time>
      </trkpt>
      <trkpt lat="44.01061" lon="3.31343">
        <ele>488.7</ele>
        <time>2021-08-14T08:40:31Z</time>
      </trkpt>
      <trkpt lat="44.01058" lon="3.31324">
        <ele>488.6</ele>
        <time>2021-08-14T08:40:33Z</time>
      </trkpt>
      <trkpt lat="44.01056" lon="3.31304">
        <ele>488.7</ele>
        <time>2021-08-14T08:40:35Z</time>
      </trkpt>
      <trkpt lat="44.01056" lon="3.31285">
        <ele>488.8</ele>
        <time>2021-08-14T08:40:37Z</time>
      </trkpt>
      <trkpt lat="44.01057" lon="3.31267">
        <ele>488.8</ele>
        <time>2021-08-14T08:40:39Z</time>
      </trkpt>
      <trkpt lat="44.01058" lon="3.31249">
        <ele>488.8</ele>
        <time>2021-08-14T08:40:41Z</time>
      </trkpt>
      <trkpt lat="44.01058" lon="3.31231">
        <ele>489</ele>
        <time>2021-08-14T08:40:43Z</time>
      </trkpt>
      <trkpt lat="44.01059" lon="3.31214">
        <ele>489</ele>
        <time>2021-08-14T08:40:45Z</time>
      </trkpt>
      <trkpt lat="44.01059" lon="3.31197">
        <ele>489.1</ele>
        <time>2021-08-14T08:40:47Z</time>
      </trkpt>
      <trkpt lat="44.0106" lon="3.3118">
        <ele>489.2</ele>
        <time>2021-08-14T08:40:49Z</time>
      </trkpt>
      <trkpt lat="44.01061" lon="3.31163">
        <ele>489.2</ele>
        <time>2021-08-14T08:40:51Z</time>
      </trkpt>
      <trkpt lat="44.01062" lon="3.31145">
        <ele>489.2</ele>
        <time>2021-08-14T08:40:53Z</time>
      </trkpt>
      <trkpt lat="44.01062" lon="3.31128">
        <ele>489.2</ele>
        <time>2021-08-14T08:40:55Z</time>
      </trkpt>
      <trkpt lat="44.01063" lon="3.31111">
        <ele>489.3</ele>
        <time>2021-08-14T08:40:57Z</time>
      </trkpt>
      <trkpt lat="44.01063" lon="3.31094">
        <ele>489.4</ele>
        <time>2021-08-14T08:40:59Z</time>
      </trkpt>
      <trkpt lat="44.01064" lon="3.31078">
        <ele>489.4</ele>
        <time>2021-08-14T08:41:01Z</time>
      </trkpt>
      <trkpt lat="44.01066" lon="3.3106">
        <ele>489.2</ele>
        <time>2021-08-14T08:41:03Z</time>
      </trkpt>
      <trkpt lat="44.01069" lon="3.31044">
        <ele>488.9</ele>
        <time>2021-08-14T08:41:05Z</time>
      </trkpt>
      <trkpt lat="44.01073" lon="3.31029">
        <ele>488.6</ele>
        <time>2021-08-14T08:41:07Z</time>
      </trkpt>
      <trkpt lat="44.01079" lon="3.31014">
        <ele>488.3</ele>
        <time>2021-08-14T08:41:09Z</time>
      </trkpt>
      <trkpt lat="44.01085" lon="3.30999">
        <ele>488</ele>
        <time>2021-08-14T08:41:11Z</time>
      </trkpt>
      <trkpt lat="44.0109" lon="3.30985">
        <ele>487.7</ele>
        <time>2021-08-14T08:41:13Z</time>
      </trkpt>
      <trkpt lat="44.01096" lon="3.30971">
        <ele>487.4</ele>
        <time>2021-08-14T08:41:15Z</time>
      </trkpt>
      <trkpt lat="44.01102" lon="3.30957">
        <ele>487.1</ele>
        <time>2021-08-14T08:41:17Z</time>
      </trkpt>
      <trkpt lat="44.01108" lon="3.30943">
        <ele>486.8</ele>
        <time>2021-08-14T08:41:19Z</time>
      </trkpt>
      <trkpt lat="44.01115" lon="3.30927">
        <ele>486.4</ele>
        <time>2021-08-14T08:41:21Z</time>
      </trkpt>
      <trkpt lat="44.01121" lon="3.30912">
        <ele>486</ele>
        <time>2021-08-14T08:41:23Z</time>
      </trkpt>
      <trkpt lat="44.01128" lon="3.30896">
        <ele>485.7</ele>
        <time>2021-08-14T08:41:25Z</time>
      </trkpt>
      <trkpt lat="44.01134" lon="3.3088">
        <ele>485.3</ele>
        <time>2021-08-14T08:41:27Z</time>
      </trkpt>
      <trkpt lat="44.01141" lon="3.30864">
        <ele>485</ele>
        <time>2021-08-14T08:41:29Z</time>
      </trkpt>
      <trkpt lat="44.01147" lon="3.30849">
        <ele>484.7</ele>
        <time>2021-08-14T08:41:31Z</time>
      </trkpt>
      <trkpt lat="44.01154" lon="3.30833">
        <ele>484.3</ele>
        <time>2021-08-14T08:41:33Z</time>
      </trkpt>
      <trkpt lat="44.01161" lon="3.30817">
        <ele>484.3</ele>
        <time>2021-08-14T08:41:35Z</time>
      </trkpt>
      <trkpt lat="44.01168" lon="3.308">
        <ele>484.4</ele>
        <time>2021-08-14T08:41:37Z</time>
      </trkpt>
      <trkpt lat="44.01175" lon="3.30784">
        <ele>484.6</ele>
        <time>2021-08-14T08:41:39Z</time>
      </trkpt>
      <trkpt lat="44.01182" lon="3.30768">
        <ele>484.8</ele>
        <time>2021-08-14T08:41:41Z</time>
      </trkpt>
      <trkpt lat="44.01188" lon="3.30751">
        <ele>485</ele>
        <time>2021-08-14T08:41:43Z</time>
      </trkpt>
      <trkpt lat="44.01195" lon="3.30735">
        <ele>485.2</ele>
        <time>2021-08-14T08:41:45Z</time>
      </trkpt>
      <trkpt lat="44.01202" lon="3.30719">
        <ele>485.4</ele>
        <time>2021-08-14T08:41:47Z</time>
      </trkpt>
      <trkpt lat="44.01208" lon="3.30703">
        <ele>485.6</ele>
        <time>2021-08-14T08:41:49Z</time>
      </trkpt>
      <trkpt lat="44.01214" lon="3.30688">
        <ele>485.6</ele>
        <time>2021-08-14T08:41:51Z</time>
      </trkpt>
      <trkpt lat="44.01221" lon="3.30673">
        <ele>485.6</ele>
        <time>2021-08-14T08:41:53Z</time>
      </trkpt>
      <trkpt lat="44.01227" lon="3.30658">
        <ele>485.9</ele>
        <time>2021-08-14T08:41:55Z</time>
      </trkpt>
      <trkpt lat="44.01233" lon="3.30644">
        <ele>486.3</ele>
        <time>2021-08-14T08:41:57Z</time>
      </trkpt>
      <trkpt lat="44.01239" lon="3.3063">
        <ele>486.6</ele>
        <time>2021-08-14T08:41:59Z</time>
      </trkpt>
      <trkpt lat="44.01244" lon="3.30617">
        <ele>487</ele>
        <time>2021-08-14T08:42:01Z</time>
      </trkpt>
      <trkpt lat="44.01249" lon="3.30605">
        <ele>487.3</ele>
        <time>2021-08-14T08:42:03Z</time>
      </trkpt>
      <trkpt lat="44.01254" lon="3.30594">
        <ele>487.5</ele>
        <time>2021-08-14T08:42:05Z</time>
      </trkpt>
      <trkpt lat="44.01258" lon="3.30584">
        <ele>487.8</ele>
        <time>2021-08-14T08:42:07Z</time>
      </trkpt>
      <trkpt lat="44.01262" lon="3.30575">
        <ele>488</ele>
        <time>2021-08-14T08:42:09Z</time>
      </trkpt>
      <trkpt lat="44.01265" lon="3.30567">
        <ele>488.2</ele>
        <time>2021-08-14T08:42:11Z</time>
      </trkpt>
      <trkpt lat="44.01268" lon="3.3056">
        <ele>488.4</ele>
        <time>2021-08-14T08:42:13Z</time>
      </trkpt>
      <trkpt lat="44.01271" lon="3.30554">
        <ele>488.5</ele>
        <time>2021-08-14T08:42:15Z</time>
      </trkpt>
      <trkpt lat="44.01274" lon="3.30551">
        <ele>488.6</ele>
        <time>2021-08-14T08:42:17Z</time>
      </trkpt>
      <trkpt lat="44.01274" lon="3.30549">
        <ele>488.7</ele>
        <time>2021-08-14T08:42:19Z</time>
      </trkpt>
      <trkpt lat="44.01274" lon="3.30549">
        <ele>488.6</ele>
        <time>2021-08-14T08:42:21Z</time>
      </trkpt>
      <trkpt lat="44.01274" lon="3.30549">
        <ele>488.6</ele>
        <time>2021-08-14T08:42:23Z</time>
      </trkpt>
      <trkpt lat="44.01274" lon="3.3055">
        <ele>488.6</ele>
        <time>2021-08-14T08:42:25Z</time>
      </trkpt>
      <trkpt lat="44.01287" lon="3.30524">
        <ele>489.3</ele>
        <time>2021-08-14T08:43:13Z</time>
      </trkpt>
      <trkpt lat="44.0129" lon="3.3052">
        <ele>489.3</ele>
        <time>2021-08-14T08:43:15Z</time>
      </trkpt>
      <trkpt lat="44.01293" lon="3.30515">
        <ele>489.4</ele>
        <time>2021-08-14T08:43:17Z</time>
      </trkpt>
      <trkpt lat="44.01297" lon="3.30512">
        <ele>489.4</ele>
        <time>2021-08-14T08:43:19Z</time>
      </trkpt>
      <trkpt lat="44.01302" lon="3.30508">
        <ele>489.5</ele>
        <time>2021-08-14T08:43:21Z</time>
      </trkpt>
      <trkpt lat="44.01307" lon="3.30505">
        <ele>489.5</ele>
        <time>2021-08-14T08:43:23Z</time>
      </trkpt>
      <trkpt lat="44.01312" lon="3.30502">
        <ele>489.5</ele>
        <time>2021-08-14T08:43:25Z</time>
      </trkpt>
      <trkpt lat="44.01317" lon="3.30498">
        <ele>489.4</ele>
        <time>2021-08-14T08:43:27Z</time>
      </trkpt>
      <trkpt lat="44.01322" lon="3.30496">
        <ele>489.4</ele>
        <time>2021-08-14T08:43:29Z</time>
      </trkpt>
      <trkpt lat="44.01327" lon="3.30493">
        <ele>489.3</ele>
        <time>2021-08-14T08:43:31Z</time>
      </trkpt>
      <trkpt lat="44.01333" lon="3.3049">
        <ele>489.3</ele>
        <time>2021-08-14T08:43:33Z</time>
      </trkpt>
      <trkpt lat="44.01338" lon="3.30487">
        <ele>489.3</ele>
        <time>2021-08-14T08:43:35Z</time>
      </trkpt>
      <trkpt lat="44.01344" lon="3.30485">
        <ele>489.3</ele>
        <time>2021-08-14T08:43:37Z</time>
      </trkpt>
      <trkpt lat="44.0135" lon="3.30483">
        <ele>489.3</ele>
        <time>2021-08-14T08:43:39Z</time>
      </trkpt>
      <trkpt lat="44.01356" lon="3.30481">
        <ele>489.3</ele>
        <time>2021-08-14T08:43:41Z</time>
      </trkpt>
      <trkpt lat="44.01363" lon="3.3048">
        <ele>489.3</ele>
        <time>2021-08-14T08:43:43Z</time>
      </trkpt>
      <trkpt lat="44.01369" lon="3.30479">
        <ele>489.3</ele>
        <time>2021-08-14T08:43:45Z</time>
      </trkpt>
      <trkpt lat="44.01377" lon="3.30478">
        <ele>489.3</ele>
        <time>2021-08-14T08:43:47Z</time>
      </trkpt>
      <trkpt lat="44.01385" lon="3.30476">
        <ele>489.2</ele>
        <time>2021-08-14T08:43:49Z</time>
      </trkpt>
      <trkpt lat="44.01394" lon="3.30476">
        <ele>489.2</ele>
        <time>2021-08-14T08:43:51Z</time>
      </trkpt>
      <trkpt lat="44.01403" lon="3.30474">
        <ele>489.1</ele>
        <time>2021-08-14T08:43:53Z</time>
      </trkpt>
      <trkpt lat="44.01412" lon="3.30473">
        <ele>489</ele>
        <time>2021-08-14T08:43:55Z</time>
      </trkpt>
      <trkpt lat="44.01421" lon="3.30472">
        <ele>489</ele>
        <time>2021-08-14T08:43:57Z</time>
      </trkpt>
      <trkpt lat="44.01431" lon="3.30471">
        <ele>488.9</ele>
        <time>2021-08-14T08:43:59Z</time>
      </trkpt>
      <trkpt lat="44.0144" lon="3.30472">
        <ele>488.9</ele>
        <time>2021-08-14T08:44:01Z</time>
      </trkpt>
      <trkpt lat="44.01449" lon="3.30472">
        <ele>488.9</ele>
        <time>2021-08-14T08:44:03Z</time>
      </trkpt>
      <trkpt lat="44.01458" lon="3.30471">
        <ele>488.8</ele>
        <time>2021-08-14T08:44:05Z</time>
      </trkpt>
      <trkpt lat="44.01467" lon="3.30471">
        <ele>488.8</ele>
        <time>2021-08-14T08:44:07Z</time>
      </trkpt>
      <trkpt lat="44.01476" lon="3.30471">
        <ele>488.8</ele>
        <time>2021-08-14T08:44:09Z</time>
      </trkpt>
      <trkpt lat="44.01485" lon="3.3047">
        <ele>488.8</ele>
        <time>2021-08-14T08:44:11Z</time>
      </trkpt>
      <trkpt lat="44.01494" lon="3.30469">
        <ele>488.8</ele>
        <time>2021-08-14T08:44:13Z</time>
      </trkpt>
      <trkpt lat="44.01504" lon="3.30469">
        <ele>488.8</ele>
        <time>2021-08-14T08:44:15Z</time>
      </trkpt>
      <trkpt lat="44.01513" lon="3.3047">
        <ele>488.9</ele>
        <time>2021-08-14T08:44:17Z</time>
      </trkpt>
      <trkpt lat="44.01523" lon="3.3047">
        <ele>489</ele>
        <time>2021-08-14T08:44:19Z</time>
      </trkpt>
      <trkpt lat="44.01532" lon="3.30469">
        <ele>489.1</ele>
        <time>2021-08-14T08:44:21Z</time>
      </trkpt>
      <trkpt lat="44.0154" lon="3.30467">
        <ele>489.2</ele>
        <time>2021-08-14T08:44:23Z</time>
      </trkpt>
      <trkpt lat="44.01549" lon="3.30467">
        <ele>489.3</ele>
        <time>2021-08-14T08:44:25Z</time>
      </trkpt>
      <trkpt lat="44.01557" lon="3.30468">
        <ele>489.3</ele>
        <time>2021-08-14T08:44:27Z</time>
      </trkpt>
      <trkpt lat="44.01565" lon="3.30469">
        <ele>489.4</ele>
        <time>2021-08-14T08:44:29Z</time>
      </trkpt>
      <trkpt lat="44.01574" lon="3.30469">
        <ele>489.5</ele>
        <time>2021-08-14T08:44:31Z</time>
      </trkpt>
      <trkpt lat="44.01583" lon="3.3047">
        <ele>489.6</ele>
        <time>2021-08-14T08:44:33Z</time>
      </trkpt>
      <trkpt lat="44.01592" lon="3.30469">
        <ele>489.6</ele>
        <time>2021-08-14T08:44:35Z</time>
      </trkpt>
      <trkpt lat="44.01601" lon="3.3047">
        <ele>489.6</ele>
        <time>2021-08-14T08:44:37Z</time>
      </trkpt>
      <trkpt lat="44.0161" lon="3.3047">
        <ele>489.6</ele>
        <time>2021-08-14T08:44:39Z</time>
      </trkpt>
      <trkpt lat="44.01619" lon="3.30469">
        <ele>489.6</ele>
        <time>2021-08-14T08:44:41Z</time>
      </trkpt>
      <trkpt lat="44.01628" lon="3.30468">
        <ele>489.6</ele>
        <time>2021-08-14T08:44:43Z</time>
      </trkpt>
      <trkpt lat="44.01637" lon="3.30469">
        <ele>489.6</ele>
        <time>2021-08-14T08:44:45Z</time>
      </trkpt>
      <trkpt lat="44.01647" lon="3.30469">
        <ele>489.6</ele>
        <time>2021-08-14T08:44:47Z</time>
      </trkpt>
      <trkpt lat="44.01656" lon="3.30468">
        <ele>489.6</ele>
        <time>2021-08-14T08:44:49Z</time>
      </trkpt>
      <trkpt lat="44.01666" lon="3.30468">
        <ele>489.6</ele>
        <time>2021-08-14T08:44:51Z</time>
      </trkpt>
      <trkpt lat="44.01675" lon="3.30468">
        <ele>489.6</ele>
        <time>2021-08-14T08:44:53Z</time>
      </trkpt>
      <trkpt lat="44.01685" lon="3.30468">
        <ele>489.5</ele>
        <time>2021-08-14T08:44:55Z</time>
      </trkpt>
      <trkpt lat="44.01695" lon="3.30468">
        <ele>489.4</ele>
        <time>2021-08-14T08:44:57Z</time>
      </trkpt>
      <trkpt lat="44.01704" lon="3.30469">
        <ele>489.3</ele>
        <time>2021-08-14T08:44:59Z</time>
      </trkpt>
      <trkpt lat="44.01713" lon="3.30469">
        <ele>489.3</ele>
        <time>2021-08-14T08:45:01Z</time>
      </trkpt>
      <trkpt lat="44.01722" lon="3.30467">
        <ele>489.2</ele>
        <time>2021-08-14T08:45:03Z</time>
      </trkpt>
      <trkpt lat="44.01732" lon="3.30467">
        <ele>489.1</ele>
        <time>2021-08-14T08:45:05Z</time>
      </trkpt>
      <trkpt lat="44.01741" lon="3.30468">
        <ele>489.1</ele>
        <time>2021-08-14T08:45:07Z</time>
      </trkpt>
      <trkpt lat="44.01751" lon="3.30468">
        <ele>489</ele>
        <time>2021-08-14T08:45:09Z</time>
      </trkpt>
      <trkpt lat="44.01759" lon="3.30467">
        <ele>489.2</ele>
        <time>2021-08-14T08:45:11Z</time>
      </trkpt>
      <trkpt lat="44.01769" lon="3.30466">
        <ele>489.5</ele>
        <time>2021-08-14T08:45:13Z</time>
      </trkpt>
      <trkpt lat="44.01779" lon="3.30464">
        <ele>489.7</ele>
        <time>2021-08-14T08:45:15Z</time>
      </trkpt>
      <trkpt lat="44.01788" lon="3.30463">
        <ele>489.9</ele>
        <time>2021-08-14T08:45:17Z</time>
      </trkpt>
      <trkpt lat="44.01798" lon="3.30462">
        <ele>490.1</ele>
        <time>2021-08-14T08:45:19Z</time>
      </trkpt>
      <trkpt lat="44.01808" lon="3.30461">
        <ele>490.4</ele>
        <time>2021-08-14T08:45:21Z</time>
      </trkpt>
      <trkpt lat="44.01817" lon="3.30462">
        <ele>490.6</ele>
        <time>2021-08-14T08:45:23Z</time>
      </trkpt>
      <trkpt lat="44.01827" lon="3.30461">
        <ele>490.8</ele>
        <time>2021-08-14T08:45:25Z</time>
      </trkpt>
      <trkpt lat="44.01837" lon="3.30461">
        <ele>491</ele>
        <time>2021-08-14T08:45:27Z</time>
      </trkpt>
      <trkpt lat="44.01847" lon="3.30462">
        <ele>490.8</ele>
        <time>2021-08-14T08:45:29Z</time>
      </trkpt>
      <trkpt lat="44.01856" lon="3.30462">
        <ele>490.7</ele>
        <time>2021-08-14T08:45:31Z</time>
      </trkpt>
      <trkpt lat="44.01866" lon="3.30463">
        <ele>490.6</ele>
        <time>2021-08-14T08:45:33Z</time>
      </trkpt>
      <trkpt lat="44.01876" lon="3.30462">
        <ele>490.5</ele>
        <time>2021-08-14T08:45:35Z</time>
      </trkpt>
      <trkpt lat="44.01885" lon="3.30462">
        <ele>490.4</ele>
        <time>2021-08-14T08:45:37Z</time>
      </trkpt>
      <trkpt lat="44.01895" lon="3.30461">
        <ele>490.3</ele>
        <time>2021-08-14T08:45:39Z</time>
      </trkpt>
      <trkpt lat="44.01903" lon="3.30461">
        <ele>490.2</ele>
        <time>2021-08-14T08:45:41Z</time>
      </trkpt>
      <trkpt lat="44.01912" lon="3.3046">
        <ele>490.1</ele>
        <time>2021-08-14T08:45:43Z</time>
      </trkpt>
      <trkpt lat="44.01921" lon="3.30459">
        <ele>490</ele>
        <time>2021-08-14T08:45:45Z</time>
      </trkpt>
      <trkpt lat="44.01931" lon="3.30459">
        <ele>489.9</ele>
        <time>2021-08-14T08:45:47Z</time>
      </trkpt>
      <trkpt lat="44.0194" lon="3.30458">
        <ele>489.9</ele>
        <time>2021-08-14T08:45:49Z</time>
      </trkpt>
      <trkpt lat="44.0195" lon="3.30457">
        <ele>489.8</ele>
        <time>2021-08-14T08:45:51Z</time>
      </trkpt>
      <trkpt lat="44.0196" lon="3.30457">
        <ele>489.8</ele>
        <time>2021-08-14T08:45:53Z</time>
      </trkpt>
      <trkpt lat="44.01969" lon="3.30456">
        <ele>489.7</ele>
        <time>2021-08-14T08:45:55Z</time>
      </trkpt>
      <trkpt lat="44.01979" lon="3.30454">
        <ele>489.7</ele>
        <time>2021-08-14T08:45:57Z</time>
      </trkpt>
      <trkpt lat="44.01989" lon="3.30452">
        <ele>489.6</ele>
        <time>2021-08-14T08:45:59Z</time>
      </trkpt>
      <trkpt lat="44.01997" lon="3.3045">
        <ele>489.6</ele>
        <time>2021-08-14T08:46:01Z</time>
      </trkpt>
      <trkpt lat="44.02006" lon="3.30447">
        <ele>489.7</ele>
        <time>2021-08-14T08:46:03Z</time>
      </trkpt>
      <trkpt lat="44.02014" lon="3.30445">
        <ele>489.9</ele>
        <time>2021-08-14T08:46:05Z</time>
      </trkpt>
      <trkpt lat="44.02022" lon="3.30442">
        <ele>490</ele>
        <time>2021-08-14T08:46:07Z</time>
      </trkpt>
      <trkpt lat="44.02031" lon="3.30438">
        <ele>490.2</ele>
        <time>2021-08-14T08:46:09Z</time>
      </trkpt>
      <trkpt lat="44.0204" lon="3.30434">
        <ele>490.4</ele>
        <time>2021-08-14T08:46:11Z</time>
      </trkpt>
      <trkpt lat="44.02049" lon="3.30428">
        <ele>490.5</ele>
        <time>2021-08-14T08:46:13Z</time>
      </trkpt>
      <trkpt lat="44.02058" lon="3.30422">
        <ele>490.7</ele>
        <time>2021-08-14T08:46:15Z</time>
      </trkpt>
      <trkpt lat="44.02067" lon="3.30415">
        <ele>490.8</ele>
        <time>2021-08-14T08:46:17Z</time>
      </trkpt>
      <trkpt lat="44.02076" lon="3.30409">
        <ele>490.8</ele>
        <time>2021-08-14T08:46:19Z</time>
      </trkpt>
      <trkpt lat="44.02084" lon="3.30402">
        <ele>490.8</ele>
        <time>2021-08-14T08:46:21Z</time>
      </trkpt>
      <trkpt lat="44.02092" lon="3.30394">
        <ele>490.6</ele>
        <time>2021-08-14T08:46:23Z</time>
      </trkpt>
      <trkpt lat="44.02099" lon="3.30385">
        <ele>490.4</ele>
        <time>2021-08-14T08:46:25Z</time>
      </trkpt>
      <trkpt lat="44.02107" lon="3.30377">
        <ele>490.2</ele>
        <time>2021-08-14T08:46:27Z</time>
      </trkpt>
      <trkpt lat="44.02114" lon="3.30368">
        <ele>490.1</ele>
        <time>2021-08-14T08:46:29Z</time>
      </trkpt>
      <trkpt lat="44.02122" lon="3.30359">
        <ele>490</ele>
        <time>2021-08-14T08:46:31Z</time>
      </trkpt>
      <trkpt lat="44.02128" lon="3.30351">
        <ele>490</ele>
        <time>2021-08-14T08:46:33Z</time>
      </trkpt>
      <trkpt lat="44.02134" lon="3.30344">
        <ele>490</ele>
        <time>2021-08-14T08:46:35Z</time>
      </trkpt>
      <trkpt lat="44.02141" lon="3.30336">
        <ele>490</ele>
        <time>2021-08-14T08:46:37Z</time>
      </trkpt>
      <trkpt lat="44.02147" lon="3.30328">
        <ele>490.3</ele>
        <time>2021-08-14T08:46:39Z</time>
      </trkpt>
      <trkpt lat="44.02152" lon="3.3032">
        <ele>490.8</ele>
        <time>2021-08-14T08:46:41Z</time>
      </trkpt>
      <trkpt lat="44.02158" lon="3.30313">
        <ele>491.3</ele>
        <time>2021-08-14T08:46:43Z</time>
      </trkpt>
      <trkpt lat="44.02164" lon="3.30307">
        <ele>491.8</ele>
        <time>2021-08-14T08:46:45Z</time>
      </trkpt>
      <trkpt lat="44.0217" lon="3.30299">
        <ele>492.3</ele>
        <time>2021-08-14T08:46:47Z</time>
      </trkpt>
      <trkpt lat="44.02175" lon="3.30294">
        <ele>492.5</ele>
        <time>2021-08-14T08:46:49Z</time>
      </trkpt>
      <trkpt lat="44.02183" lon="3.30297">
        <ele>492</ele>
        <time>2021-08-14T08:46:51Z</time>
      </trkpt>
      <trkpt lat="44.0219" lon="3.30301">
        <ele>491.4</ele>
        <time>2021-08-14T08:46:53Z</time>
      </trkpt>
      <trkpt lat="44.02198" lon="3.30299">
        <ele>491.2</ele>
        <time>2021-08-14T08:46:55Z</time>
      </trkpt>
      <trkpt lat="44.02202" lon="3.30291">
        <ele>491.8</ele>
        <time>2021-08-14T08:46:57Z</time>
      </trkpt>
      <trkpt lat="44.02205" lon="3.30282">
        <ele>492.5</ele>
        <time>2021-08-14T08:46:59Z</time>
      </trkpt>
      <trkpt lat="44.02208" lon="3.30273">
        <ele>493.3</ele>
        <time>2021-08-14T08:47:01Z</time>
      </trkpt>
      <trkpt lat="44.0221" lon="3.30265">
        <ele>494</ele>
        <time>2021-08-14T08:47:03Z</time>
      </trkpt>
      <trkpt lat="44.02212" lon="3.30257">
        <ele>494.7</ele>
        <time>2021-08-14T08:47:05Z</time>
      </trkpt>
      <trkpt lat="44.02215" lon="3.3025">
        <ele>495.4</ele>
        <time>2021-08-14T08:47:07Z</time>
      </trkpt>
      <trkpt lat="44.02217" lon="3.30243">
        <ele>495.7</ele>
        <time>2021-08-14T08:47:09Z</time>
      </trkpt>
      <trkpt lat="44.02219" lon="3.30236">
        <ele>496</ele>
        <time>2021-08-14T08:47:11Z</time>
      </trkpt>
      <trkpt lat="44.02221" lon="3.3023">
        <ele>496.3</ele>
        <time>2021-08-14T08:47:13Z</time>
      </trkpt>
      <trkpt lat="44.02223" lon="3.30224">
        <ele>496.6</ele>
        <time>2021-08-14T08:47:15Z</time>
      </trkpt>
      <trkpt lat="44.02226" lon="3.30218">
        <ele>496.8</ele>
        <time>2021-08-14T08:47:17Z</time>
      </trkpt>
      <trkpt lat="44.02228" lon="3.30212">
        <ele>497.1</ele>
        <time>2021-08-14T08:47:19Z</time>
      </trkpt>
      <trkpt lat="44.02232" lon="3.30207">
        <ele>497.3</ele>
        <time>2021-08-14T08:47:21Z</time>
      </trkpt>
      <trkpt lat="44.02235" lon="3.30203">
        <ele>497.4</ele>
        <time>2021-08-14T08:47:23Z</time>
      </trkpt>
      <trkpt lat="44.02239" lon="3.302">
        <ele>497.5</ele>
        <time>2021-08-14T08:47:25Z</time>
      </trkpt>
      <trkpt lat="44.02243" lon="3.30197">
        <ele>497.6</ele>
        <time>2021-08-14T08:47:27Z</time>
      </trkpt>
      <trkpt lat="44.02245" lon="3.3019">
        <ele>497.9</ele>
        <time>2021-08-14T08:47:29Z</time>
      </trkpt>
      <trkpt lat="44.02245" lon="3.30182">
        <ele>498.3</ele>
        <time>2021-08-14T08:47:31Z</time>
      </trkpt>
      <trkpt lat="44.02246" lon="3.30175">
        <ele>498.6</ele>
        <time>2021-08-14T08:47:33Z</time>
      </trkpt>
      <trkpt lat="44.02247" lon="3.30168">
        <ele>499</ele>
        <time>2021-08-14T08:47:35Z</time>
      </trkpt>
      <trkpt lat="44.02248" lon="3.30162">
        <ele>499</ele>
        <time>2021-08-14T08:47:37Z</time>
      </trkpt>
      <trkpt lat="44.0225" lon="3.30156">
        <ele>498.9</ele>
        <time>2021-08-14T08:47:39Z</time>
      </trkpt>
      <trkpt lat="44.02253" lon="3.30154">
        <ele>498.6</ele>
        <time>2021-08-14T08:47:41Z</time>
      </trkpt>
      <trkpt lat="44.02254" lon="3.30152">
        <ele>498.5</ele>
        <time>2021-08-14T08:47:43Z</time>
      </trkpt>
      <trkpt lat="44.02256" lon="3.3015">
        <ele>498.4</ele>
        <time>2021-08-14T08:47:45Z</time>
      </trkpt>
      <trkpt lat="44.02258" lon="3.30148">
        <ele>498.2</ele>
        <time>2021-08-14T08:47:47Z</time>
      </trkpt>
      <trkpt lat="44.02258" lon="3.30146">
        <ele>498.2</ele>
        <time>2021-08-14T08:47:49Z</time>
      </trkpt>
      <trkpt lat="44.02258" lon="3.30145">
        <ele>498.2</ele>
        <time>2021-08-14T08:47:51Z</time>
      </trkpt>
      <trkpt lat="44.0226" lon="3.30154">
        <ele>498.1</ele>
        <time>2021-08-14T09:44:19Z</time>
      </trkpt>
      <trkpt lat="44.02263" lon="3.3014">
        <ele>497.9</ele>
        <time>2021-08-14T09:44:21Z</time>
      </trkpt>
      <trkpt lat="44.02261" lon="3.30143">
        <ele>498</ele>
        <time>2021-08-14T09:44:23Z</time>
      </trkpt>
      <trkpt lat="44.02258" lon="3.30146">
        <ele>498.2</ele>
        <time>2021-08-14T09:44:25Z</time>
      </trkpt>
      <trkpt lat="44.02255" lon="3.3015">
        <ele>498.4</ele>
        <time>2021-08-14T09:44:27Z</time>
      </trkpt>
      <trkpt lat="44.02253" lon="3.30155">
        <ele>498.6</ele>
        <time>2021-08-14T09:44:29Z</time>
      </trkpt>
      <trkpt lat="44.0225" lon="3.30158">
        <ele>498.9</ele>
        <time>2021-08-14T09:44:31Z</time>
      </trkpt>
      <trkpt lat="44.02247" lon="3.30161">
        <ele>499</ele>
        <time>2021-08-14T09:44:33Z</time>
      </trkpt>
      <trkpt lat="44.02245" lon="3.30165">
        <ele>499</ele>
        <time>2021-08-14T09:44:35Z</time>
      </trkpt>
      <trkpt lat="44.02246" lon="3.30171">
        <ele>498.9</ele>
        <time>2021-08-14T09:44:37Z</time>
      </trkpt>
      <trkpt lat="44.02245" lon="3.30177">
        <ele>498.6</ele>
        <time>2021-08-14T09:44:39Z</time>
      </trkpt>
      <trkpt lat="44.02246" lon="3.30181">
        <ele>498.3</ele>
        <time>2021-08-14T09:44:41Z</time>
      </trkpt>
      <trkpt lat="44.02248" lon="3.30186">
        <ele>498.1</ele>
        <time>2021-08-14T09:44:43Z</time>
      </trkpt>
      <trkpt lat="44.02252" lon="3.30189">
        <ele>497.7</ele>
        <time>2021-08-14T09:44:45Z</time>
      </trkpt>
      <trkpt lat="44.02256" lon="3.30188">
        <ele>497.4</ele>
        <time>2021-08-14T09:44:47Z</time>
      </trkpt>
      <trkpt lat="44.0226" lon="3.30186">
        <ele>497.1</ele>
        <time>2021-08-14T09:44:49Z</time>
      </trkpt>
      <trkpt lat="44.02263" lon="3.30184">
        <ele>496.9</ele>
        <time>2021-08-14T09:44:51Z</time>
      </trkpt>
      <trkpt lat="44.02267" lon="3.30182">
        <ele>496.6</ele>
        <time>2021-08-14T09:44:53Z</time>
      </trkpt>
      <trkpt lat="44.0227" lon="3.30179">
        <ele>496.5</ele>
        <time>2021-08-14T09:44:55Z</time>
      </trkpt>
      <trkpt lat="44.02273" lon="3.30178">
        <ele>496.4</ele>
        <time>2021-08-14T09:44:57Z</time>
      </trkpt>
      <trkpt lat="44.02277" lon="3.30175">
        <ele>496.2</ele>
        <time>2021-08-14T09:44:59Z</time>
      </trkpt>
      <trkpt lat="44.0228" lon="3.30173">
        <ele>496</ele>
        <time>2021-08-14T09:45:01Z</time>
      </trkpt>
      <trkpt lat="44.02284" lon="3.30169">
        <ele>496</ele>
        <time>2021-08-14T09:45:03Z</time>
      </trkpt>
      <trkpt lat="44.02288" lon="3.30167">
        <ele>495.8</ele>
        <time>2021-08-14T09:45:05Z</time>
      </trkpt>
      <trkpt lat="44.02293" lon="3.30165">
        <ele>495.4</ele>
        <time>2021-08-14T09:45:07Z</time>
      </trkpt>
      <trkpt lat="44.02295" lon="3.30162">
        <ele>495.3</ele>
        <time>2021-08-14T09:45:09Z</time>
      </trkpt>
      <trkpt lat="44.02298" lon="3.30157">
        <ele>495.2</ele>
        <time>2021-08-14T09:45:11Z</time>
      </trkpt>
      <trkpt lat="44.02301" lon="3.30155">
        <ele>495</ele>
        <time>2021-08-14T09:45:13Z</time>
      </trkpt>
      <trkpt lat="44.02305" lon="3.30153">
        <ele>494.8</ele>
        <time>2021-08-14T09:45:15Z</time>
      </trkpt>
      <trkpt lat="44.0231" lon="3.3015">
        <ele>494.5</ele>
        <time>2021-08-14T09:45:17Z</time>
      </trkpt>
      <trkpt lat="44.02314" lon="3.30148">
        <ele>494.3</ele>
        <time>2021-08-14T09:45:19Z</time>
      </trkpt>
      <trkpt lat="44.02317" lon="3.30146">
        <ele>494.1</ele>
        <time>2021-08-14T09:45:21Z</time>
      </trkpt>
      <trkpt lat="44.02322" lon="3.30143">
        <ele>493.9</ele>
        <time>2021-08-14T09:45:23Z</time>
      </trkpt>
      <trkpt lat="44.02325" lon="3.30141">
        <ele>493.8</ele>
        <time>2021-08-14T09:45:25Z</time>
      </trkpt>
      <trkpt lat="44.02328" lon="3.30136">
        <ele>493.8</ele>
        <time>2021-08-14T09:45:27Z</time>
      </trkpt>
      <trkpt lat="44.02333" lon="3.30134">
        <ele>493.6</ele>
        <time>2021-08-14T09:45:29Z</time>
      </trkpt>
      <trkpt lat="44.02336" lon="3.30133">
        <ele>493.2</ele>
        <time>2021-08-14T09:45:31Z</time>
      </trkpt>
      <trkpt lat="44.02341" lon="3.30131">
        <ele>492.7</ele>
        <time>2021-08-14T09:45:33Z</time>
      </trkpt>
      <trkpt lat="44.02345" lon="3.30129">
        <ele>492.3</ele>
        <time>2021-08-14T09:45:35Z</time>
      </trkpt>
      <trkpt lat="44.02349" lon="3.30127">
        <ele>491.9</ele>
        <time>2021-08-14T09:45:37Z</time>
      </trkpt>
      <trkpt lat="44.02352" lon="3.30124">
        <ele>491.7</ele>
        <time>2021-08-14T09:45:39Z</time>
      </trkpt>
      <trkpt lat="44.02356" lon="3.30121">
        <ele>491.4</ele>
        <time>2021-08-14T09:45:41Z</time>
      </trkpt>
      <trkpt lat="44.02359" lon="3.30117">
        <ele>491.2</ele>
        <time>2021-08-14T09:45:43Z</time>
      </trkpt>
      <trkpt lat="44.02361" lon="3.30113">
        <ele>491.2</ele>
        <time>2021-08-14T09:45:45Z</time>
      </trkpt>
      <trkpt lat="44.02363" lon="3.30109">
        <ele>491.2</ele>
        <time>2021-08-14T09:45:47Z</time>
      </trkpt>
      <trkpt lat="44.02365" lon="3.30104">
        <ele>491.3</ele>
        <time>2021-08-14T09:45:49Z</time>
      </trkpt>
      <trkpt lat="44.02367" lon="3.30099">
        <ele>491.4</ele>
        <time>2021-08-14T09:45:51Z</time>
      </trkpt>
      <trkpt lat="44.02369" lon="3.30092">
        <ele>491.6</ele>
        <time>2021-08-14T09:45:53Z</time>
      </trkpt>
      <trkpt lat="44.0237" lon="3.30084">
        <ele>492</ele>
        <time>2021-08-14T09:45:55Z</time>
      </trkpt>
      <trkpt lat="44.02369" lon="3.30075">
        <ele>492.4</ele>
        <time>2021-08-14T09:45:57Z</time>
      </trkpt>
      <trkpt lat="44.02369" lon="3.30067">
        <ele>492.7</ele>
        <time>2021-08-14T09:45:59Z</time>
      </trkpt>
      <trkpt lat="44.0237" lon="3.30059">
        <ele>492.9</ele>
        <time>2021-08-14T09:46:01Z</time>
      </trkpt>
      <trkpt lat="44.02371" lon="3.3005">
        <ele>493.1</ele>
        <time>2021-08-14T09:46:03Z</time>
      </trkpt>
      <trkpt lat="44.02372" lon="3.30042">
        <ele>493.3</ele>
        <time>2021-08-14T09:46:05Z</time>
      </trkpt>
      <trkpt lat="44.02374" lon="3.30033">
        <ele>493.4</ele>
        <time>2021-08-14T09:46:07Z</time>
      </trkpt>
      <trkpt lat="44.02377" lon="3.30025">
        <ele>493.4</ele>
        <time>2021-08-14T09:46:09Z</time>
      </trkpt>
      <trkpt lat="44.02381" lon="3.30017">
        <ele>493.5</ele>
        <time>2021-08-14T09:46:11Z</time>
      </trkpt>
      <trkpt lat="44.02385" lon="3.30009">
        <ele>493.5</ele>
        <time>2021-08-14T09:46:13Z</time>
      </trkpt>
      <trkpt lat="44.02392" lon="3.30002">
        <ele>493.4</ele>
        <time>2021-08-14T09:46:15Z</time>
      </trkpt>
      <trkpt lat="44.02398" lon="3.29995">
        <ele>493</ele>
        <time>2021-08-14T09:46:17Z</time>
      </trkpt>
      <trkpt lat="44.02406" lon="3.29988">
        <ele>492.5</ele>
        <time>2021-08-14T09:46:19Z</time>
      </trkpt>
      <trkpt lat="44.02414" lon="3.2998">
        <ele>491.9</ele>
        <time>2021-08-14T09:46:21Z</time>
      </trkpt>
      <trkpt lat="44.02423" lon="3.29971">
        <ele>491.1</ele>
        <time>2021-08-14T09:46:23Z</time>
      </trkpt>
      <trkpt lat="44.02432" lon="3.29963">
        <ele>490.1</ele>
        <time>2021-08-14T09:46:25Z</time>
      </trkpt>
      <trkpt lat="44.02441" lon="3.29955">
        <ele>489.3</ele>
        <time>2021-08-14T09:46:27Z</time>
      </trkpt>
      <trkpt lat="44.02451" lon="3.29948">
        <ele>488.4</ele>
        <time>2021-08-14T09:46:29Z</time>
      </trkpt>
      <trkpt lat="44.0246" lon="3.29939">
        <ele>487.7</ele>
        <time>2021-08-14T09:46:31Z</time>
      </trkpt>
      <trkpt lat="44.02469" lon="3.29931">
        <ele>487.1</ele>
        <time>2021-08-14T09:46:33Z</time>
      </trkpt>
      <trkpt lat="44.02477" lon="3.29925">
        <ele>486.5</ele>
        <time>2021-08-14T09:46:35Z</time>
      </trkpt>
      <trkpt lat="44.02486" lon="3.29918">
        <ele>486</ele>
        <time>2021-08-14T09:46:37Z</time>
      </trkpt>
      <trkpt lat="44.02493" lon="3.2991">
        <ele>485.7</ele>
        <time>2021-08-14T09:46:39Z</time>
      </trkpt>
      <trkpt lat="44.02501" lon="3.29904">
        <ele>485.4</ele>
        <time>2021-08-14T09:46:41Z</time>
      </trkpt>
      <trkpt lat="44.02508" lon="3.29897">
        <ele>485.1</ele>
        <time>2021-08-14T09:46:43Z</time>
      </trkpt>
      <trkpt lat="44.02515" lon="3.29891">
        <ele>484.9</ele>
        <time>2021-08-14T09:46:45Z</time>
      </trkpt>
      <trkpt lat="44.02521" lon="3.29885">
        <ele>484.6</ele>
        <time>2021-08-14T09:46:47Z</time>
      </trkpt>
      <trkpt lat="44.02526" lon="3.2988">
        <ele>484.5</ele>
        <time>2021-08-14T09:46:49Z</time>
      </trkpt>
      <trkpt lat="44.02529" lon="3.29871">
        <ele>484.8</ele>
        <time>2021-08-14T09:46:51Z</time>
      </trkpt>
      <trkpt lat="44.02528" lon="3.29861">
        <ele>485.3</ele>
        <time>2021-08-14T09:46:53Z</time>
      </trkpt>
      <trkpt lat="44.02522" lon="3.29856">
        <ele>485.9</ele>
        <time>2021-08-14T09:46:55Z</time>
      </trkpt>
      <trkpt lat="44.02516" lon="3.29854">
        <ele>486.3</ele>
        <time>2021-08-14T09:46:57Z</time>
      </trkpt>
      <trkpt lat="44.0251" lon="3.29853">
        <ele>486.7</ele>
        <time>2021-08-14T09:46:59Z</time>
      </trkpt>
      <trkpt lat="44.02505" lon="3.2985">
        <ele>487.1</ele>
        <time>2021-08-14T09:47:01Z</time>
      </trkpt>
      <trkpt lat="44.02499" lon="3.29848">
        <ele>487.5</ele>
        <time>2021-08-14T09:47:03Z</time>
      </trkpt>
      <trkpt lat="44.02494" lon="3.29846">
        <ele>487.7</ele>
        <time>2021-08-14T09:47:05Z</time>
      </trkpt>
      <trkpt lat="44.0249" lon="3.29843">
        <ele>488</ele>
        <time>2021-08-14T09:47:07Z</time>
      </trkpt>
      <trkpt lat="44.02485" lon="3.29842">
        <ele>488.1</ele>
        <time>2021-08-14T09:47:09Z</time>
      </trkpt>
      <trkpt lat="44.0248" lon="3.29841">
        <ele>488.3</ele>
        <time>2021-08-14T09:47:11Z</time>
      </trkpt>
      <trkpt lat="44.02475" lon="3.2984">
        <ele>488.4</ele>
        <time>2021-08-14T09:47:13Z</time>
      </trkpt>
      <trkpt lat="44.02471" lon="3.29839">
        <ele>488.6</ele>
        <time>2021-08-14T09:47:15Z</time>
      </trkpt>
      <trkpt lat="44.02466" lon="3.29838">
        <ele>488.7</ele>
        <time>2021-08-14T09:47:17Z</time>
      </trkpt>
      <trkpt lat="44.02461" lon="3.29838">
        <ele>488.9</ele>
        <time>2021-08-14T09:47:19Z</time>
      </trkpt>
      <trkpt lat="44.02457" lon="3.29836">
        <ele>489</ele>
        <time>2021-08-14T09:47:21Z</time>
      </trkpt>
      <trkpt lat="44.02452" lon="3.29835">
        <ele>489.1</ele>
        <time>2021-08-14T09:47:23Z</time>
      </trkpt>
      <trkpt lat="44.02448" lon="3.29834">
        <ele>489.2</ele>
        <time>2021-08-14T09:47:25Z</time>
      </trkpt>
      <trkpt lat="44.02443" lon="3.29833">
        <ele>489.4</ele>
        <time>2021-08-14T09:47:27Z</time>
      </trkpt>
      <trkpt lat="44.02438" lon="3.29832">
        <ele>489.5</ele>
        <time>2021-08-14T09:47:29Z</time>
      </trkpt>
      <trkpt lat="44.02434" lon="3.29831">
        <ele>489.7</ele>
        <time>2021-08-14T09:47:31Z</time>
      </trkpt>
      <trkpt lat="44.0243" lon="3.29829">
        <ele>489.9</ele>
        <time>2021-08-14T09:47:33Z</time>
      </trkpt>
      <trkpt lat="44.02426" lon="3.29827">
        <ele>490.1</ele>
        <time>2021-08-14T09:47:35Z</time>
      </trkpt>
      <trkpt lat="44.02421" lon="3.29825">
        <ele>490.4</ele>
        <time>2021-08-14T09:47:37Z</time>
      </trkpt>
      <trkpt lat="44.02417" lon="3.29823">
        <ele>490.6</ele>
        <time>2021-08-14T09:47:39Z</time>
      </trkpt>
      <trkpt lat="44.02414" lon="3.2982">
        <ele>491</ele>
        <time>2021-08-14T09:47:41Z</time>
      </trkpt>
      <trkpt lat="44.0241" lon="3.29819">
        <ele>491.4</ele>
        <time>2021-08-14T09:47:43Z</time>
      </trkpt>
      <trkpt lat="44.02406" lon="3.29818">
        <ele>491.8</ele>
        <time>2021-08-14T09:47:45Z</time>
      </trkpt>
      <trkpt lat="44.02403" lon="3.29818">
        <ele>492</ele>
        <time>2021-08-14T09:47:47Z</time>
      </trkpt>
      <trkpt lat="44.024" lon="3.29819">
        <ele>492.2</ele>
        <time>2021-08-14T09:47:49Z</time>
      </trkpt>
      <trkpt lat="44.02397" lon="3.29821">
        <ele>492.3</ele>
        <time>2021-08-14T09:47:51Z</time>
      </trkpt>
      <trkpt lat="44.02394" lon="3.29822">
        <ele>492.5</ele>
        <time>2021-08-14T09:47:53Z</time>
      </trkpt>
      <trkpt lat="44.02392" lon="3.29824">
        <ele>492.6</ele>
        <time>2021-08-14T09:47:55Z</time>
      </trkpt>
      <trkpt lat="44.02389" lon="3.29828">
        <ele>492.6</ele>
        <time>2021-08-14T09:47:57Z</time>
      </trkpt>
      <trkpt lat="44.02386" lon="3.2983">
        <ele>492.7</ele>
        <time>2021-08-14T09:47:59Z</time>
      </trkpt>
      <trkpt lat="44.02385" lon="3.29829">
        <ele>492.9</ele>
        <time>2021-08-14T09:48:01Z</time>
      </trkpt>
      <trkpt lat="44.02387" lon="3.2983">
        <ele>492.6</ele>
        <time>2021-08-14T09:48:03Z</time>
      </trkpt>
      <trkpt lat="44.02388" lon="3.29831">
        <ele>492.5</ele>
        <time>2021-08-14T09:48:05Z</time>
      </trkpt>
      <trkpt lat="44.02388" lon="3.29832">
        <ele>492.5</ele>
        <time>2021-08-14T09:48:07Z</time>
      </trkpt>
      <trkpt lat="44.02387" lon="3.29831">
        <ele>492.7</ele>
        <time>2021-08-14T09:48:09Z</time>
      </trkpt>
      <trkpt lat="44.02399" lon="3.29819">
        <ele>492.3</ele>
        <time>2021-08-14T10:04:17Z</time>
      </trkpt>
      <trkpt lat="44.02401" lon="3.29816">
        <ele>492.3</ele>
        <time>2021-08-14T10:04:19Z</time>
      </trkpt>
      <trkpt lat="44.024" lon="3.2981">
        <ele>492.7</ele>
        <time>2021-08-14T10:04:21Z</time>
      </trkpt>
      <trkpt lat="44.02398" lon="3.29803">
        <ele>493.2</ele>
        <time>2021-08-14T10:04:23Z</time>
      </trkpt>
      <trkpt lat="44.02394" lon="3.29799">
        <ele>493.8</ele>
        <time>2021-08-14T10:04:25Z</time>
      </trkpt>
      <trkpt lat="44.02391" lon="3.29794">
        <ele>494.2</ele>
        <time>2021-08-14T10:04:27Z</time>
      </trkpt>
      <trkpt lat="44.02387" lon="3.29789">
        <ele>494.7</ele>
        <time>2021-08-14T10:04:29Z</time>
      </trkpt>
      <trkpt lat="44.02385" lon="3.29785">
        <ele>495.1</ele>
        <time>2021-08-14T10:04:31Z</time>
      </trkpt>
      <trkpt lat="44.02384" lon="3.29778">
        <ele>495.6</ele>
        <time>2021-08-14T10:04:33Z</time>
      </trkpt>
      <trkpt lat="44.02381" lon="3.29771">
        <ele>496.1</ele>
        <time>2021-08-14T10:04:35Z</time>
      </trkpt>
      <trkpt lat="44.02379" lon="3.29765">
        <ele>496.5</ele>
        <time>2021-08-14T10:04:37Z</time>
      </trkpt>
      <trkpt lat="44.02377" lon="3.29759">
        <ele>496.9</ele>
        <time>2021-08-14T10:04:39Z</time>
      </trkpt>
      <trkpt lat="44.02374" lon="3.29753">
        <ele>497.4</ele>
        <time>2021-08-14T10:04:41Z</time>
      </trkpt>
      <trkpt lat="44.02373" lon="3.29748">
        <ele>497.7</ele>
        <time>2021-08-14T10:04:43Z</time>
      </trkpt>
      <trkpt lat="44.02371" lon="3.29742">
        <ele>497.9</ele>
        <time>2021-08-14T10:04:45Z</time>
      </trkpt>
      <trkpt lat="44.02369" lon="3.29737">
        <ele>498.1</ele>
        <time>2021-08-14T10:04:47Z</time>
      </trkpt>
      <trkpt lat="44.02367" lon="3.29732">
        <ele>498.3</ele>
        <time>2021-08-14T10:04:49Z</time>
      </trkpt>
      <trkpt lat="44.02366" lon="3.29726">
        <ele>498.5</ele>
        <time>2021-08-14T10:04:51Z</time>
      </trkpt>
      <trkpt lat="44.02364" lon="3.2972">
        <ele>498.7</ele>
        <time>2021-08-14T10:04:53Z</time>
      </trkpt>
      <trkpt lat="44.02362" lon="3.29716">
        <ele>498.8</ele>
        <time>2021-08-14T10:04:55Z</time>
      </trkpt>
      <trkpt lat="44.0236" lon="3.29711">
        <ele>499</ele>
        <time>2021-08-14T10:04:57Z</time>
      </trkpt>
      <trkpt lat="44.02359" lon="3.29706">
        <ele>499.1</ele>
        <time>2021-08-14T10:04:59Z</time>
      </trkpt>
      <trkpt lat="44.02357" lon="3.29701">
        <ele>499.2</ele>
        <time>2021-08-14T10:05:01Z</time>
      </trkpt>
      <trkpt lat="44.02355" lon="3.29696">
        <ele>499.4</ele>
        <time>2021-08-14T10:05:03Z</time>
      </trkpt>
      <trkpt lat="44.02353" lon="3.2969">
        <ele>499.5</ele>
        <time>2021-08-14T10:05:05Z</time>
      </trkpt>
      <trkpt lat="44.02352" lon="3.29685">
        <ele>499.6</ele>
        <time>2021-08-14T10:05:07Z</time>
      </trkpt>
      <trkpt lat="44.0235" lon="3.2968">
        <ele>499.7</ele>
        <time>2021-08-14T10:05:09Z</time>
      </trkpt>
      <trkpt lat="44.02348" lon="3.29675">
        <ele>499.8</ele>
        <time>2021-08-14T10:05:11Z</time>
      </trkpt>
      <trkpt lat="44.02347" lon="3.2967">
        <ele>499.8</ele>
        <time>2021-08-14T10:05:13Z</time>
      </trkpt>
      <trkpt lat="44.02345" lon="3.29665">
        <ele>500</ele>
        <time>2021-08-14T10:05:15Z</time>
      </trkpt>
      <trkpt lat="44.02342" lon="3.2966">
        <ele>500.5</ele>
        <time>2021-08-14T10:05:17Z</time>
      </trkpt>
      <trkpt lat="44.02339" lon="3.29656">
        <ele>500.9</ele>
        <time>2021-08-14T10:05:19Z</time>
      </trkpt>
      <trkpt lat="44.02336" lon="3.29651">
        <ele>501.3</ele>
        <time>2021-08-14T10:05:21Z</time>
      </trkpt>
      <trkpt lat="44.02334" lon="3.29646">
        <ele>501.7</ele>
        <time>2021-08-14T10:05:23Z</time>
      </trkpt>
      <trkpt lat="44.02331" lon="3.29642">
        <ele>502</ele>
        <time>2021-08-14T10:05:25Z</time>
      </trkpt>
      <trkpt lat="44.02328" lon="3.29638">
        <ele>502.2</ele>
        <time>2021-08-14T10:05:27Z</time>
      </trkpt>
      <trkpt lat="44.02324" lon="3.29634">
        <ele>502.4</ele>
        <time>2021-08-14T10:05:29Z</time>
      </trkpt>
      <trkpt lat="44.02322" lon="3.29628">
        <ele>502.8</ele>
        <time>2021-08-14T10:05:31Z</time>
      </trkpt>
      <trkpt lat="44.02319" lon="3.29624">
        <ele>503</ele>
        <time>2021-08-14T10:05:33Z</time>
      </trkpt>
      <trkpt lat="44.02316" lon="3.29619">
        <ele>503.2</ele>
        <time>2021-08-14T10:05:35Z</time>
      </trkpt>
      <trkpt lat="44.02314" lon="3.29614">
        <ele>503.5</ele>
        <time>2021-08-14T10:05:37Z</time>
      </trkpt>
      <trkpt lat="44.02311" lon="3.29609">
        <ele>503.8</ele>
        <time>2021-08-14T10:05:39Z</time>
      </trkpt>
      <trkpt lat="44.02309" lon="3.29604">
        <ele>504</ele>
        <time>2021-08-14T10:05:41Z</time>
      </trkpt>
      <trkpt lat="44.02306" lon="3.29599">
        <ele>504.2</ele>
        <time>2021-08-14T10:05:43Z</time>
      </trkpt>
      <trkpt lat="44.02304" lon="3.29594">
        <ele>504.5</ele>
        <time>2021-08-14T10:05:45Z</time>
      </trkpt>
      <trkpt lat="44.02303" lon="3.29589">
        <ele>504.8</ele>
        <time>2021-08-14T10:05:47Z</time>
      </trkpt>
      <trkpt lat="44.02303" lon="3.29583">
        <ele>505.2</ele>
        <time>2021-08-14T10:05:49Z</time>
      </trkpt>
      <trkpt lat="44.02303" lon="3.29576">
        <ele>505.6</ele>
        <time>2021-08-14T10:05:51Z</time>
      </trkpt>
      <trkpt lat="44.02302" lon="3.2957">
        <ele>505.9</ele>
        <time>2021-08-14T10:05:53Z</time>
      </trkpt>
      <trkpt lat="44.02302" lon="3.29565">
        <ele>506.2</ele>
        <time>2021-08-14T10:05:55Z</time>
      </trkpt>
      <trkpt lat="44.02302" lon="3.29559">
        <ele>506.5</ele>
        <time>2021-08-14T10:05:57Z</time>
      </trkpt>
      <trkpt lat="44.02302" lon="3.29554">
        <ele>506.8</ele>
        <time>2021-08-14T10:05:59Z</time>
      </trkpt>
      <trkpt lat="44.02301" lon="3.29549">
        <ele>507.1</ele>
        <time>2021-08-14T10:06:01Z</time>
      </trkpt>
      <trkpt lat="44.02301" lon="3.29545">
        <ele>507.3</ele>
        <time>2021-08-14T10:06:03Z</time>
      </trkpt>
      <trkpt lat="44.02301" lon="3.29539">
        <ele>507.6</ele>
        <time>2021-08-14T10:06:05Z</time>
      </trkpt>
      <trkpt lat="44.023" lon="3.29534">
        <ele>507.9</ele>
        <time>2021-08-14T10:06:07Z</time>
      </trkpt>
      <trkpt lat="44.02301" lon="3.29529">
        <ele>508.2</ele>
        <time>2021-08-14T10:06:09Z</time>
      </trkpt>
      <trkpt lat="44.02301" lon="3.29524">
        <ele>508.5</ele>
        <time>2021-08-14T10:06:11Z</time>
      </trkpt>
      <trkpt lat="44.02302" lon="3.29519">
        <ele>508.9</ele>
        <time>2021-08-14T10:06:13Z</time>
      </trkpt>
      <trkpt lat="44.02304" lon="3.29514">
        <ele>509.4</ele>
        <time>2021-08-14T10:06:15Z</time>
      </trkpt>
      <trkpt lat="44.02307" lon="3.29511">
        <ele>509.9</ele>
        <time>2021-08-14T10:06:17Z</time>
      </trkpt>
      <trkpt lat="44.02311" lon="3.29509">
        <ele>510.3</ele>
        <time>2021-08-14T10:06:19Z</time>
      </trkpt>
      <trkpt lat="44.02313" lon="3.29509">
        <ele>510.5</ele>
        <time>2021-08-14T10:06:21Z</time>
      </trkpt>
      <trkpt lat="44.02317" lon="3.29511">
        <ele>510.7</ele>
        <time>2021-08-14T10:06:23Z</time>
      </trkpt>
      <trkpt lat="44.0232" lon="3.29512">
        <ele>510.9</ele>
        <time>2021-08-14T10:06:25Z</time>
      </trkpt>
      <trkpt lat="44.02325" lon="3.29514">
        <ele>511.2</ele>
        <time>2021-08-14T10:06:27Z</time>
      </trkpt>
      <trkpt lat="44.02327" lon="3.29515">
        <ele>511.4</ele>
        <time>2021-08-14T10:06:29Z</time>
      </trkpt>
      <trkpt lat="44.0233" lon="3.29517">
        <ele>511.5</ele>
        <time>2021-08-14T10:06:31Z</time>
      </trkpt>
      <trkpt lat="44.02334" lon="3.29519">
        <ele>511.7</ele>
        <time>2021-08-14T10:06:33Z</time>
      </trkpt>
      <trkpt lat="44.02338" lon="3.29522">
        <ele>511.8</ele>
        <time>2021-08-14T10:06:35Z</time>
      </trkpt>
      <trkpt lat="44.02343" lon="3.29522">
        <ele>512.1</ele>
        <time>2021-08-14T10:06:37Z</time>
      </trkpt>
      <trkpt lat="44.02347" lon="3.29523">
        <ele>512.4</ele>
        <time>2021-08-14T10:06:39Z</time>
      </trkpt>
      <trkpt lat="44.02351" lon="3.29524">
        <ele>512.6</ele>
        <time>2021-08-14T10:06:41Z</time>
      </trkpt>
      <trkpt lat="44.02355" lon="3.29525">
        <ele>512.8</ele>
        <time>2021-08-14T10:06:43Z</time>
      </trkpt>
      <trkpt lat="44.02359" lon="3.29526">
        <ele>513.1</ele>
        <time>2021-08-14T10:06:45Z</time>
      </trkpt>
      <trkpt lat="44.02363" lon="3.29528">
        <ele>513.3</ele>
        <time>2021-08-14T10:06:47Z</time>
      </trkpt>
      <trkpt lat="44.02367" lon="3.2953">
        <ele>513.4</ele>
        <time>2021-08-14T10:06:49Z</time>
      </trkpt>
      <trkpt lat="44.02371" lon="3.2953">
        <ele>513.6</ele>
        <time>2021-08-14T10:06:51Z</time>
      </trkpt>
      <trkpt lat="44.02375" lon="3.29531">
        <ele>513.9</ele>
        <time>2021-08-14T10:06:53Z</time>
      </trkpt>
      <trkpt lat="44.02379" lon="3.29532">
        <ele>514.1</ele>
        <time>2021-08-14T10:06:55Z</time>
      </trkpt>
      <trkpt lat="44.02383" lon="3.29534">
        <ele>514.3</ele>
        <time>2021-08-14T10:06:57Z</time>
      </trkpt>
      <trkpt lat="44.02388" lon="3.29534">
        <ele>514.6</ele>
        <time>2021-08-14T10:06:59Z</time>
      </trkpt>
      <trkpt lat="44.02392" lon="3.29536">
        <ele>514.7</ele>
        <time>2021-08-14T10:07:01Z</time>
      </trkpt>
      <trkpt lat="44.02396" lon="3.29537">
        <ele>514.9</ele>
        <time>2021-08-14T10:07:03Z</time>
      </trkpt>
      <trkpt lat="44.024" lon="3.29538">
        <ele>515.1</ele>
        <time>2021-08-14T10:07:05Z</time>
      </trkpt>
      <trkpt lat="44.02404" lon="3.29539">
        <ele>515.4</ele>
        <time>2021-08-14T10:07:07Z</time>
      </trkpt>
      <trkpt lat="44.02408" lon="3.29539">
        <ele>515.6</ele>
        <time>2021-08-14T10:07:09Z</time>
      </trkpt>
      <trkpt lat="44.02413" lon="3.2954">
        <ele>515.8</ele>
        <time>2021-08-14T10:07:11Z</time>
      </trkpt>
      <trkpt lat="44.02417" lon="3.29541">
        <ele>516.1</ele>
        <time>2021-08-14T10:07:13Z</time>
      </trkpt>
      <trkpt lat="44.02421" lon="3.29541">
        <ele>516.5</ele>
        <time>2021-08-14T10:07:15Z</time>
      </trkpt>
      <trkpt lat="44.02425" lon="3.29542">
        <ele>516.8</ele>
        <time>2021-08-14T10:07:17Z</time>
      </trkpt>
      <trkpt lat="44.02429" lon="3.29542">
        <ele>517.2</ele>
        <time>2021-08-14T10:07:19Z</time>
      </trkpt>
      <trkpt lat="44.02434" lon="3.29542">
        <ele>517.6</ele>
        <time>2021-08-14T10:07:21Z</time>
      </trkpt>
      <trkpt lat="44.02438" lon="3.29543">
        <ele>517.9</ele>
        <time>2021-08-14T10:07:23Z</time>
      </trkpt>
      <trkpt lat="44.02442" lon="3.29542">
        <ele>518.4</ele>
        <time>2021-08-14T10:07:25Z</time>
      </trkpt>
      <trkpt lat="44.02446" lon="3.29543">
        <ele>518.7</ele>
        <time>2021-08-14T10:07:27Z</time>
      </trkpt>
      <trkpt lat="44.02451" lon="3.29544">
        <ele>519</ele>
        <time>2021-08-14T10:07:29Z</time>
      </trkpt>
      <trkpt lat="44.02455" lon="3.29544">
        <ele>519.4</ele>
        <time>2021-08-14T10:07:31Z</time>
      </trkpt>
      <trkpt lat="44.02459" lon="3.29544">
        <ele>519.8</ele>
        <time>2021-08-14T10:07:33Z</time>
      </trkpt>
      <trkpt lat="44.02464" lon="3.29544">
        <ele>520.3</ele>
        <time>2021-08-14T10:07:35Z</time>
      </trkpt>
      <trkpt lat="44.02468" lon="3.29544">
        <ele>520.7</ele>
        <time>2021-08-14T10:07:37Z</time>
      </trkpt>
      <trkpt lat="44.02472" lon="3.29543">
        <ele>521.1</ele>
        <time>2021-08-14T10:07:39Z</time>
      </trkpt>
      <trkpt lat="44.02477" lon="3.29543">
        <ele>521.6</ele>
        <time>2021-08-14T10:07:41Z</time>
      </trkpt>
      <trkpt lat="44.02481" lon="3.29543">
        <ele>522</ele>
        <time>2021-08-14T10:07:43Z</time>
      </trkpt>
      <trkpt lat="44.02485" lon="3.29543">
        <ele>522.4</ele>
        <time>2021-08-14T10:07:45Z</time>
      </trkpt>
      <trkpt lat="44.0249" lon="3.29543">
        <ele>522.8</ele>
        <time>2021-08-14T10:07:47Z</time>
      </trkpt>
      <trkpt lat="44.02494" lon="3.29543">
        <ele>523.2</ele>
        <time>2021-08-14T10:07:49Z</time>
      </trkpt>
      <trkpt lat="44.02498" lon="3.29543">
        <ele>523.6</ele>
        <time>2021-08-14T10:07:51Z</time>
      </trkpt>
      <trkpt lat="44.02502" lon="3.29543">
        <ele>524.1</ele>
        <time>2021-08-14T10:07:53Z</time>
      </trkpt>
      <trkpt lat="44.02506" lon="3.29543">
        <ele>524.6</ele>
        <time>2021-08-14T10:07:55Z</time>
      </trkpt>
      <trkpt lat="44.0251" lon="3.29542">
        <ele>525.3</ele>
        <time>2021-08-14T10:07:57Z</time>
      </trkpt>
      <trkpt lat="44.02514" lon="3.29542">
        <ele>525.8</ele>
        <time>2021-08-14T10:07:59Z</time>
      </trkpt>
      <trkpt lat="44.02518" lon="3.29542">
        <ele>526.4</ele>
        <time>2021-08-14T10:08:01Z</time>
      </trkpt>
      <trkpt lat="44.02523" lon="3.29542">
        <ele>527</ele>
        <time>2021-08-14T10:08:03Z</time>
      </trkpt>
      <trkpt lat="44.02527" lon="3.29542">
        <ele>527.6</ele>
        <time>2021-08-14T10:08:05Z</time>
      </trkpt>
      <trkpt lat="44.02531" lon="3.29542">
        <ele>528.1</ele>
        <time>2021-08-14T10:08:07Z</time>
      </trkpt>
      <trkpt lat="44.02536" lon="3.29542">
        <ele>528.6</ele>
        <time>2021-08-14T10:08:09Z</time>
      </trkpt>
      <trkpt lat="44.0254" lon="3.29543">
        <ele>529</ele>
        <time>2021-08-14T10:08:11Z</time>
      </trkpt>
      <trkpt lat="44.02544" lon="3.29543">
        <ele>529.4</ele>
        <time>2021-08-14T10:08:13Z</time>
      </trkpt>
      <trkpt lat="44.02548" lon="3.29544">
        <ele>529.7</ele>
        <time>2021-08-14T10:08:15Z</time>
      </trkpt>
      <trkpt lat="44.02552" lon="3.29545">
        <ele>530</ele>
        <time>2021-08-14T10:08:17Z</time>
      </trkpt>
      <trkpt lat="44.02556" lon="3.29546">
        <ele>530.4</ele>
        <time>2021-08-14T10:08:19Z</time>
      </trkpt>
      <trkpt lat="44.0256" lon="3.29548">
        <ele>530.4</ele>
        <time>2021-08-14T10:08:21Z</time>
      </trkpt>
      <trkpt lat="44.02565" lon="3.29549">
        <ele>530.7</ele>
        <time>2021-08-14T10:08:23Z</time>
      </trkpt>
      <trkpt lat="44.02569" lon="3.29551">
        <ele>530.7</ele>
        <time>2021-08-14T10:08:25Z</time>
      </trkpt>
      <trkpt lat="44.02573" lon="3.29552">
        <ele>530.7</ele>
        <time>2021-08-14T10:08:27Z</time>
      </trkpt>
      <trkpt lat="44.02577" lon="3.29554">
        <ele>530.6</ele>
        <time>2021-08-14T10:08:29Z</time>
      </trkpt>
      <trkpt lat="44.02582" lon="3.29556">
        <ele>530.7</ele>
        <time>2021-08-14T10:08:31Z</time>
      </trkpt>
      <trkpt lat="44.02586" lon="3.29558">
        <ele>530.9</ele>
        <time>2021-08-14T10:08:33Z</time>
      </trkpt>
      <trkpt lat="44.0259" lon="3.29559">
        <ele>531.4</ele>
        <time>2021-08-14T10:08:35Z</time>
      </trkpt>
      <trkpt lat="44.02594" lon="3.29561">
        <ele>532</ele>
        <time>2021-08-14T10:08:37Z</time>
      </trkpt>
      <trkpt lat="44.02598" lon="3.29563">
        <ele>532.2</ele>
        <time>2021-08-14T10:08:39Z</time>
      </trkpt>
      <trkpt lat="44.02602" lon="3.29565">
        <ele>532.4</ele>
        <time>2021-08-14T10:08:41Z</time>
      </trkpt>
      <trkpt lat="44.02606" lon="3.29567">
        <ele>532.7</ele>
        <time>2021-08-14T10:08:43Z</time>
      </trkpt>
      <trkpt lat="44.0261" lon="3.29569">
        <ele>532.8</ele>
        <time>2021-08-14T10:08:45Z</time>
      </trkpt>
      <trkpt lat="44.02614" lon="3.29571">
        <ele>533.3</ele>
        <time>2021-08-14T10:08:47Z</time>
      </trkpt>
      <trkpt lat="44.02618" lon="3.29573">
        <ele>533.4</ele>
        <time>2021-08-14T10:08:49Z</time>
      </trkpt>
      <trkpt lat="44.02622" lon="3.29574">
        <ele>534</ele>
        <time>2021-08-14T10:08:51Z</time>
      </trkpt>
      <trkpt lat="44.02626" lon="3.29577">
        <ele>534.1</ele>
        <time>2021-08-14T10:08:53Z</time>
      </trkpt>
      <trkpt lat="44.02629" lon="3.29579">
        <ele>534.2</ele>
        <time>2021-08-14T10:08:55Z</time>
      </trkpt>
      <trkpt lat="44.02632" lon="3.29581">
        <ele>534.3</ele>
        <time>2021-08-14T10:08:57Z</time>
      </trkpt>
      <trkpt lat="44.02636" lon="3.29583">
        <ele>534.5</ele>
        <time>2021-08-14T10:08:59Z</time>
      </trkpt>
      <trkpt lat="44.02639" lon="3.29585">
        <ele>534.4</ele>
        <time>2021-08-14T10:09:01Z</time>
      </trkpt>
      <trkpt lat="44.02643" lon="3.29588">
        <ele>534.2</ele>
        <time>2021-08-14T10:09:03Z</time>
      </trkpt>
      <trkpt lat="44.02646" lon="3.2959">
        <ele>534.2</ele>
        <time>2021-08-14T10:09:05Z</time>
      </trkpt>
      <trkpt lat="44.02649" lon="3.29593">
        <ele>534</ele>
        <time>2021-08-14T10:09:07Z</time>
      </trkpt>
      <trkpt lat="44.02653" lon="3.29596">
        <ele>533.7</ele>
        <time>2021-08-14T10:09:09Z</time>
      </trkpt>
      <trkpt lat="44.02656" lon="3.29598">
        <ele>533.3</ele>
        <time>2021-08-14T10:09:11Z</time>
      </trkpt>
      <trkpt lat="44.02659" lon="3.29601">
        <ele>532.8</ele>
        <time>2021-08-14T10:09:13Z</time>
      </trkpt>
      <trkpt lat="44.02662" lon="3.29603">
        <ele>532.7</ele>
        <time>2021-08-14T10:09:15Z</time>
      </trkpt>
      <trkpt lat="44.02665" lon="3.29606">
        <ele>532.2</ele>
        <time>2021-08-14T10:09:17Z</time>
      </trkpt>
      <trkpt lat="44.02669" lon="3.29607">
        <ele>531.5</ele>
        <time>2021-08-14T10:09:19Z</time>
      </trkpt>
      <trkpt lat="44.02672" lon="3.29609">
        <ele>530.2</ele>
        <time>2021-08-14T10:09:21Z</time>
      </trkpt>
      <trkpt lat="44.02676" lon="3.29611">
        <ele>529.1</ele>
        <time>2021-08-14T10:09:23Z</time>
      </trkpt>
      <trkpt lat="44.02679" lon="3.29613">
        <ele>528</ele>
        <time>2021-08-14T10:09:25Z</time>
      </trkpt>
      <trkpt lat="44.02683" lon="3.29614">
        <ele>527.1</ele>
        <time>2021-08-14T10:09:27Z</time>
      </trkpt>
      <trkpt lat="44.02687" lon="3.29615">
        <ele>526.1</ele>
        <time>2021-08-14T10:09:29Z</time>
      </trkpt>
      <trkpt lat="44.02691" lon="3.29616">
        <ele>525.3</ele>
        <time>2021-08-14T10:09:31Z</time>
      </trkpt>
      <trkpt lat="44.02695" lon="3.29616">
        <ele>524.8</ele>
        <time>2021-08-14T10:09:33Z</time>
      </trkpt>
      <trkpt lat="44.02698" lon="3.29617">
        <ele>524.1</ele>
        <time>2021-08-14T10:09:35Z</time>
      </trkpt>
      <trkpt lat="44.02702" lon="3.29616">
        <ele>523.8</ele>
        <time>2021-08-14T10:09:37Z</time>
      </trkpt>
      <trkpt lat="44.02705" lon="3.29616">
        <ele>523.6</ele>
        <time>2021-08-14T10:09:39Z</time>
      </trkpt>
      <trkpt lat="44.02709" lon="3.29615">
        <ele>523.4</ele>
        <time>2021-08-14T10:09:41Z</time>
      </trkpt>
      <trkpt lat="44.02712" lon="3.29613">
        <ele>523.6</ele>
        <time>2021-08-14T10:09:43Z</time>
      </trkpt>
      <trkpt lat="44.02716" lon="3.29611">
        <ele>524.1</ele>
        <time>2021-08-14T10:09:45Z</time>
      </trkpt>
      <trkpt lat="44.02719" lon="3.29609">
        <ele>524.3</ele>
        <time>2021-08-14T10:09:47Z</time>
      </trkpt>
      <trkpt lat="44.02722" lon="3.29607">
        <ele>525</ele>
        <time>2021-08-14T10:09:49Z</time>
      </trkpt>
      <trkpt lat="44.02725" lon="3.29604">
        <ele>525.6</ele>
        <time>2021-08-14T10:09:51Z</time>
      </trkpt>
      <trkpt lat="44.02729" lon="3.29601">
        <ele>526.4</ele>
        <time>2021-08-14T10:09:53Z</time>
      </trkpt>
      <trkpt lat="44.02732" lon="3.29598">
        <ele>527.2</ele>
        <time>2021-08-14T10:09:55Z</time>
      </trkpt>
      <trkpt lat="44.02735" lon="3.29595">
        <ele>528.2</ele>
        <time>2021-08-14T10:09:57Z</time>
      </trkpt>
      <trkpt lat="44.02737" lon="3.29591">
        <ele>529.4</ele>
        <time>2021-08-14T10:09:59Z</time>
      </trkpt>
      <trkpt lat="44.0274" lon="3.29588">
        <ele>530.4</ele>
        <time>2021-08-14T10:10:01Z</time>
      </trkpt>
      <trkpt lat="44.02742" lon="3.29583">
        <ele>531.9</ele>
        <time>2021-08-14T10:10:03Z</time>
      </trkpt>
      <trkpt lat="44.02744" lon="3.29579">
        <ele>532.7</ele>
        <time>2021-08-14T10:10:05Z</time>
      </trkpt>
      <trkpt lat="44.02747" lon="3.29576">
        <ele>533.4</ele>
        <time>2021-08-14T10:10:07Z</time>
      </trkpt>
      <trkpt lat="44.02749" lon="3.29571">
        <ele>534.2</ele>
        <time>2021-08-14T10:10:09Z</time>
      </trkpt>
      <trkpt lat="44.02751" lon="3.29567">
        <ele>535</ele>
        <time>2021-08-14T10:10:11Z</time>
      </trkpt>
      <trkpt lat="44.02753" lon="3.29562">
        <ele>535.5</ele>
        <time>2021-08-14T10:10:13Z</time>
      </trkpt>
      <trkpt lat="44.02755" lon="3.29558">
        <ele>535.8</ele>
        <time>2021-08-14T10:10:15Z</time>
      </trkpt>
      <trkpt lat="44.02756" lon="3.29553">
        <ele>536.7</ele>
        <time>2021-08-14T10:10:17Z</time>
      </trkpt>
      <trkpt lat="44.02757" lon="3.29548">
        <ele>537.3</ele>
        <time>2021-08-14T10:10:19Z</time>
      </trkpt>
      <trkpt lat="44.02759" lon="3.29543">
        <ele>538</ele>
        <time>2021-08-14T10:10:21Z</time>
      </trkpt>
      <trkpt lat="44.0276" lon="3.29539">
        <ele>538.7</ele>
        <time>2021-08-14T10:10:23Z</time>
      </trkpt>
      <trkpt lat="44.02761" lon="3.29534">
        <ele>539.4</ele>
        <time>2021-08-14T10:10:25Z</time>
      </trkpt>
      <trkpt lat="44.02763" lon="3.29529">
        <ele>540.2</ele>
        <time>2021-08-14T10:10:27Z</time>
      </trkpt>
      <trkpt lat="44.02764" lon="3.29524">
        <ele>541</ele>
        <time>2021-08-14T10:10:29Z</time>
      </trkpt>
      <trkpt lat="44.02765" lon="3.29519">
        <ele>541.8</ele>
        <time>2021-08-14T10:10:31Z</time>
      </trkpt>
      <trkpt lat="44.02765" lon="3.29515">
        <ele>542.8</ele>
        <time>2021-08-14T10:10:33Z</time>
      </trkpt>
      <trkpt lat="44.02767" lon="3.2951">
        <ele>543.4</ele>
        <time>2021-08-14T10:10:35Z</time>
      </trkpt>
      <trkpt lat="44.02768" lon="3.29505">
        <ele>544.4</ele>
        <time>2021-08-14T10:10:37Z</time>
      </trkpt>
      <trkpt lat="44.02769" lon="3.29499">
        <ele>545.4</ele>
        <time>2021-08-14T10:10:39Z</time>
      </trkpt>
      <trkpt lat="44.0277" lon="3.29494">
        <ele>546</ele>
        <time>2021-08-14T10:10:41Z</time>
      </trkpt>
      <trkpt lat="44.02771" lon="3.29489">
        <ele>546.6</ele>
        <time>2021-08-14T10:10:43Z</time>
      </trkpt>
      <trkpt lat="44.02771" lon="3.29484">
        <ele>547.5</ele>
        <time>2021-08-14T10:10:45Z</time>
      </trkpt>
      <trkpt lat="44.02772" lon="3.29478">
        <ele>548.1</ele>
        <time>2021-08-14T10:10:47Z</time>
      </trkpt>
      <trkpt lat="44.02774" lon="3.29473">
        <ele>548.6</ele>
        <time>2021-08-14T10:10:49Z</time>
      </trkpt>
      <trkpt lat="44.02774" lon="3.29468">
        <ele>549.4</ele>
        <time>2021-08-14T10:10:51Z</time>
      </trkpt>
      <trkpt lat="44.02775" lon="3.29463">
        <ele>550</ele>
        <time>2021-08-14T10:10:53Z</time>
      </trkpt>
      <trkpt lat="44.02776" lon="3.29458">
        <ele>550.4</ele>
        <time>2021-08-14T10:10:55Z</time>
      </trkpt>
      <trkpt lat="44.02777" lon="3.29453">
        <ele>551.1</ele>
        <time>2021-08-14T10:10:57Z</time>
      </trkpt>
      <trkpt lat="44.02778" lon="3.29448">
        <ele>551.4</ele>
        <time>2021-08-14T10:10:59Z</time>
      </trkpt>
      <trkpt lat="44.02779" lon="3.29443">
        <ele>552.2</ele>
        <time>2021-08-14T10:11:01Z</time>
      </trkpt>
      <trkpt lat="44.0278" lon="3.29438">
        <ele>552.6</ele>
        <time>2021-08-14T10:11:03Z</time>
      </trkpt>
      <trkpt lat="44.0278" lon="3.29432">
        <ele>553.3</ele>
        <time>2021-08-14T10:11:05Z</time>
      </trkpt>
      <trkpt lat="44.02781" lon="3.29427">
        <ele>553.9</ele>
        <time>2021-08-14T10:11:07Z</time>
      </trkpt>
      <trkpt lat="44.02782" lon="3.29422">
        <ele>554.3</ele>
        <time>2021-08-14T10:11:09Z</time>
      </trkpt>
      <trkpt lat="44.02783" lon="3.29417">
        <ele>555</ele>
        <time>2021-08-14T10:11:11Z</time>
      </trkpt>
      <trkpt lat="44.02784" lon="3.29412">
        <ele>555</ele>
        <time>2021-08-14T10:11:13Z</time>
      </trkpt>
      <trkpt lat="44.02784" lon="3.29407">
        <ele>555.1</ele>
        <time>2021-08-14T10:11:15Z</time>
      </trkpt>
      <trkpt lat="44.02785" lon="3.29402">
        <ele>555.2</ele>
        <time>2021-08-14T10:11:17Z</time>
      </trkpt>
      <trkpt lat="44.02786" lon="3.29397">
        <ele>555.1</ele>
        <time>2021-08-14T10:11:19Z</time>
      </trkpt>
      <trkpt lat="44.02787" lon="3.29392">
        <ele>555</ele>
        <time>2021-08-14T10:11:21Z</time>
      </trkpt>
      <trkpt lat="44.02788" lon="3.29387">
        <ele>555.1</ele>
        <time>2021-08-14T10:11:23Z</time>
      </trkpt>
      <trkpt lat="44.02788" lon="3.29381">
        <ele>555.3</ele>
        <time>2021-08-14T10:11:25Z</time>
      </trkpt>
      <trkpt lat="44.02789" lon="3.29376">
        <ele>555.3</ele>
        <time>2021-08-14T10:11:27Z</time>
      </trkpt>
      <trkpt lat="44.0279" lon="3.29371">
        <ele>555.5</ele>
        <time>2021-08-14T10:11:29Z</time>
      </trkpt>
      <trkpt lat="44.0279" lon="3.29366">
        <ele>555.8</ele>
        <time>2021-08-14T10:11:31Z</time>
      </trkpt>
      <trkpt lat="44.0279" lon="3.29361">
        <ele>555.9</ele>
        <time>2021-08-14T10:11:33Z</time>
      </trkpt>
      <trkpt lat="44.02791" lon="3.29356">
        <ele>556.2</ele>
        <time>2021-08-14T10:11:35Z</time>
      </trkpt>
      <trkpt lat="44.02791" lon="3.29351">
        <ele>556.6</ele>
        <time>2021-08-14T10:11:37Z</time>
      </trkpt>
      <trkpt lat="44.02791" lon="3.29347">
        <ele>556.6</ele>
        <time>2021-08-14T10:11:39Z</time>
      </trkpt>
      <trkpt lat="44.02791" lon="3.29342">
        <ele>557</ele>
        <time>2021-08-14T10:11:41Z</time>
      </trkpt>
      <trkpt lat="44.02791" lon="3.29337">
        <ele>557.5</ele>
        <time>2021-08-14T10:11:43Z</time>
      </trkpt>
      <trkpt lat="44.02791" lon="3.29332">
        <ele>557.9</ele>
        <time>2021-08-14T10:11:45Z</time>
      </trkpt>
      <trkpt lat="44.02791" lon="3.29326">
        <ele>558</ele>
        <time>2021-08-14T10:11:47Z</time>
      </trkpt>
      <trkpt lat="44.02791" lon="3.29322">
        <ele>557.8</ele>
        <time>2021-08-14T10:11:49Z</time>
      </trkpt>
      <trkpt lat="44.0279" lon="3.29316">
        <ele>558.3</ele>
        <time>2021-08-14T10:11:51Z</time>
      </trkpt>
      <trkpt lat="44.0279" lon="3.29311">
        <ele>558.3</ele>
        <time>2021-08-14T10:11:53Z</time>
      </trkpt>
      <trkpt lat="44.0279" lon="3.29305">
        <ele>558</ele>
        <time>2021-08-14T10:11:55Z</time>
      </trkpt>
      <trkpt lat="44.0279" lon="3.29299">
        <ele>558</ele>
        <time>2021-08-14T10:11:57Z</time>
      </trkpt>
      <trkpt lat="44.02791" lon="3.29293">
        <ele>557.6</ele>
        <time>2021-08-14T10:11:59Z</time>
      </trkpt>
      <trkpt lat="44.02791" lon="3.29287">
        <ele>557.7</ele>
        <time>2021-08-14T10:12:01Z</time>
      </trkpt>
      <trkpt lat="44.02791" lon="3.29282">
        <ele>557.5</ele>
        <time>2021-08-14T10:12:03Z</time>
      </trkpt>
      <trkpt lat="44.0279" lon="3.29276">
        <ele>557.9</ele>
        <time>2021-08-14T10:12:05Z</time>
      </trkpt>
      <trkpt lat="44.02789" lon="3.29271">
        <ele>558.6</ele>
        <time>2021-08-14T10:12:07Z</time>
      </trkpt>
      <trkpt lat="44.02788" lon="3.29266">
        <ele>559.3</ele>
        <time>2021-08-14T10:12:09Z</time>
      </trkpt>
      <trkpt lat="44.02786" lon="3.29262">
        <ele>560.5</ele>
        <time>2021-08-14T10:12:11Z</time>
      </trkpt>
      <trkpt lat="44.02783" lon="3.29259">
        <ele>562</ele>
        <time>2021-08-14T10:12:13Z</time>
      </trkpt>
      <trkpt lat="44.02779" lon="3.29258">
        <ele>564.2</ele>
        <time>2021-08-14T10:12:15Z</time>
      </trkpt>
      <trkpt lat="44.02775" lon="3.29259">
        <ele>566.3</ele>
        <time>2021-08-14T10:12:17Z</time>
      </trkpt>
      <trkpt lat="44.02772" lon="3.29261">
        <ele>568.3</ele>
        <time>2021-08-14T10:12:19Z</time>
      </trkpt>
      <trkpt lat="44.02768" lon="3.29263">
        <ele>570.4</ele>
        <time>2021-08-14T10:12:21Z</time>
      </trkpt>
      <trkpt lat="44.02765" lon="3.29268">
        <ele>571.7</ele>
        <time>2021-08-14T10:12:23Z</time>
      </trkpt>
      <trkpt lat="44.02763" lon="3.29274">
        <ele>572.7</ele>
        <time>2021-08-14T10:12:25Z</time>
      </trkpt>
      <trkpt lat="44.02763" lon="3.2928">
        <ele>572.9</ele>
        <time>2021-08-14T10:12:27Z</time>
      </trkpt>
      <trkpt lat="44.02764" lon="3.29287">
        <ele>572.2</ele>
        <time>2021-08-14T10:12:29Z</time>
      </trkpt>
      <trkpt lat="44.02764" lon="3.29293">
        <ele>571.7</ele>
        <time>2021-08-14T10:12:31Z</time>
      </trkpt>
      <trkpt lat="44.02765" lon="3.293">
        <ele>571.4</ele>
        <time>2021-08-14T10:12:33Z</time>
      </trkpt>
      <trkpt lat="44.02766" lon="3.29306">
        <ele>570.7</ele>
        <time>2021-08-14T10:12:35Z</time>
      </trkpt>
      <trkpt lat="44.02766" lon="3.29313">
        <ele>570.4</ele>
        <time>2021-08-14T10:12:37Z</time>
      </trkpt>
      <trkpt lat="44.02766" lon="3.29319">
        <ele>570.3</ele>
        <time>2021-08-14T10:12:39Z</time>
      </trkpt>
      <trkpt lat="44.02767" lon="3.29326">
        <ele>569.9</ele>
        <time>2021-08-14T10:12:41Z</time>
      </trkpt>
      <trkpt lat="44.02767" lon="3.29332">
        <ele>569.8</ele>
        <time>2021-08-14T10:12:43Z</time>
      </trkpt>
      <trkpt lat="44.02767" lon="3.29338">
        <ele>569.4</ele>
        <time>2021-08-14T10:12:45Z</time>
      </trkpt>
      <trkpt lat="44.02766" lon="3.29344">
        <ele>569.1</ele>
        <time>2021-08-14T10:12:47Z</time>
      </trkpt>
      <trkpt lat="44.02766" lon="3.2935">
        <ele>568.7</ele>
        <time>2021-08-14T10:12:49Z</time>
      </trkpt>
      <trkpt lat="44.02765" lon="3.29356">
        <ele>568.7</ele>
        <time>2021-08-14T10:12:51Z</time>
      </trkpt>
      <trkpt lat="44.02764" lon="3.29361">
        <ele>568.6</ele>
        <time>2021-08-14T10:12:53Z</time>
      </trkpt>
      <trkpt lat="44.02763" lon="3.29368">
        <ele>568.3</ele>
        <time>2021-08-14T10:12:55Z</time>
      </trkpt>
      <trkpt lat="44.02762" lon="3.29373">
        <ele>568.5</ele>
        <time>2021-08-14T10:12:57Z</time>
      </trkpt>
      <trkpt lat="44.02761" lon="3.29379">
        <ele>568.6</ele>
        <time>2021-08-14T10:12:59Z</time>
      </trkpt>
      <trkpt lat="44.02759" lon="3.29384">
        <ele>569</ele>
        <time>2021-08-14T10:13:01Z</time>
      </trkpt>
      <trkpt lat="44.02758" lon="3.29389">
        <ele>568.8</ele>
        <time>2021-08-14T10:13:03Z</time>
      </trkpt>
      <trkpt lat="44.02757" lon="3.29394">
        <ele>569.1</ele>
        <time>2021-08-14T10:13:05Z</time>
      </trkpt>
      <trkpt lat="44.02755" lon="3.29398">
        <ele>569.7</ele>
        <time>2021-08-14T10:13:07Z</time>
      </trkpt>
      <trkpt lat="44.02753" lon="3.29403">
        <ele>570.2</ele>
        <time>2021-08-14T10:13:09Z</time>
      </trkpt>
      <trkpt lat="44.02751" lon="3.29407">
        <ele>570.6</ele>
        <time>2021-08-14T10:13:11Z</time>
      </trkpt>
      <trkpt lat="44.02749" lon="3.29412">
        <ele>570.7</ele>
        <time>2021-08-14T10:13:13Z</time>
      </trkpt>
      <trkpt lat="44.02747" lon="3.29417">
        <ele>570.7</ele>
        <time>2021-08-14T10:13:15Z</time>
      </trkpt>
      <trkpt lat="44.02745" lon="3.29421">
        <ele>570.2</ele>
        <time>2021-08-14T10:13:17Z</time>
      </trkpt>
      <trkpt lat="44.02743" lon="3.29426">
        <ele>569.6</ele>
        <time>2021-08-14T10:13:19Z</time>
      </trkpt>
      <trkpt lat="44.02742" lon="3.29431">
        <ele>568.9</ele>
        <time>2021-08-14T10:13:21Z</time>
      </trkpt>
      <trkpt lat="44.02739" lon="3.29434">
        <ele>568.6</ele>
        <time>2021-08-14T10:13:23Z</time>
      </trkpt>
      <trkpt lat="44.02737" lon="3.29439">
        <ele>567.9</ele>
        <time>2021-08-14T10:13:25Z</time>
      </trkpt>
      <trkpt lat="44.02735" lon="3.29443">
        <ele>567.5</ele>
        <time>2021-08-14T10:13:27Z</time>
      </trkpt>
      <trkpt lat="44.02733" lon="3.29448">
        <ele>567</ele>
        <time>2021-08-14T10:13:29Z</time>
      </trkpt>
      <trkpt lat="44.02731" lon="3.29452">
        <ele>566.3</ele>
        <time>2021-08-14T10:13:31Z</time>
      </trkpt>
      <trkpt lat="44.02729" lon="3.29457">
        <ele>565.8</ele>
        <time>2021-08-14T10:13:33Z</time>
      </trkpt>
      <trkpt lat="44.02726" lon="3.2946">
        <ele>565.4</ele>
        <time>2021-08-14T10:13:35Z</time>
      </trkpt>
      <trkpt lat="44.02723" lon="3.29465">
        <ele>565</ele>
        <time>2021-08-14T10:13:37Z</time>
      </trkpt>
      <trkpt lat="44.02721" lon="3.29469">
        <ele>564.5</ele>
        <time>2021-08-14T10:13:39Z</time>
      </trkpt>
      <trkpt lat="44.02718" lon="3.29473">
        <ele>563.9</ele>
        <time>2021-08-14T10:13:41Z</time>
      </trkpt>
      <trkpt lat="44.02715" lon="3.29477">
        <ele>563.5</ele>
        <time>2021-08-14T10:13:43Z</time>
      </trkpt>
      <trkpt lat="44.02712" lon="3.2948">
        <ele>563.2</ele>
        <time>2021-08-14T10:13:45Z</time>
      </trkpt>
      <trkpt lat="44.02709" lon="3.29484">
        <ele>562.9</ele>
        <time>2021-08-14T10:13:47Z</time>
      </trkpt>
      <trkpt lat="44.02706" lon="3.29487">
        <ele>562.7</ele>
        <time>2021-08-14T10:13:49Z</time>
      </trkpt>
      <trkpt lat="44.02702" lon="3.2949">
        <ele>562.7</ele>
        <time>2021-08-14T10:13:51Z</time>
      </trkpt>
      <trkpt lat="44.02699" lon="3.29492">
        <ele>562.7</ele>
        <time>2021-08-14T10:13:53Z</time>
      </trkpt>
      <trkpt lat="44.02695" lon="3.29493">
        <ele>563</ele>
        <time>2021-08-14T10:13:55Z</time>
      </trkpt>
      <trkpt lat="44.02691" lon="3.29494">
        <ele>563.4</ele>
        <time>2021-08-14T10:13:57Z</time>
      </trkpt>
      <trkpt lat="44.02687" lon="3.29495">
        <ele>564</ele>
        <time>2021-08-14T10:13:59Z</time>
      </trkpt>
      <trkpt lat="44.02684" lon="3.29495">
        <ele>564.6</ele>
        <time>2021-08-14T10:14:01Z</time>
      </trkpt>
      <trkpt lat="44.0268" lon="3.29494">
        <ele>565.5</ele>
        <time>2021-08-14T10:14:03Z</time>
      </trkpt>
      <trkpt lat="44.02676" lon="3.29492">
        <ele>566.5</ele>
        <time>2021-08-14T10:14:05Z</time>
      </trkpt>
      <trkpt lat="44.02673" lon="3.2949">
        <ele>567.7</ele>
        <time>2021-08-14T10:14:07Z</time>
      </trkpt>
      <trkpt lat="44.0267" lon="3.29488">
        <ele>568.8</ele>
        <time>2021-08-14T10:14:09Z</time>
      </trkpt>
      <trkpt lat="44.02666" lon="3.29486">
        <ele>570</ele>
        <time>2021-08-14T10:14:11Z</time>
      </trkpt>
      <trkpt lat="44.02663" lon="3.29482">
        <ele>570.3</ele>
        <time>2021-08-14T10:14:13Z</time>
      </trkpt>
      <trkpt lat="44.02661" lon="3.29479">
        <ele>570.8</ele>
        <time>2021-08-14T10:14:15Z</time>
      </trkpt>
      <trkpt lat="44.02658" lon="3.29475">
        <ele>571.2</ele>
        <time>2021-08-14T10:14:17Z</time>
      </trkpt>
      <trkpt lat="44.02655" lon="3.29472">
        <ele>571.6</ele>
        <time>2021-08-14T10:14:19Z</time>
      </trkpt>
      <trkpt lat="44.02652" lon="3.29469">
        <ele>571.9</ele>
        <time>2021-08-14T10:14:21Z</time>
      </trkpt>
      <trkpt lat="44.0265" lon="3.29465">
        <ele>572.5</ele>
        <time>2021-08-14T10:14:23Z</time>
      </trkpt>
      <trkpt lat="44.02647" lon="3.29461">
        <ele>573.1</ele>
        <time>2021-08-14T10:14:25Z</time>
      </trkpt>
      <trkpt lat="44.02644" lon="3.29458">
        <ele>573.4</ele>
        <time>2021-08-14T10:14:27Z</time>
      </trkpt>
      <trkpt lat="44.02642" lon="3.29454">
        <ele>573.8</ele>
        <time>2021-08-14T10:14:29Z</time>
      </trkpt>
      <trkpt lat="44.02639" lon="3.29451">
        <ele>574.2</ele>
        <time>2021-08-14T10:14:31Z</time>
      </trkpt>
      <trkpt lat="44.02637" lon="3.29448">
        <ele>574.6</ele>
        <time>2021-08-14T10:14:33Z</time>
      </trkpt>
      <trkpt lat="44.02634" lon="3.29445">
        <ele>574.9</ele>
        <time>2021-08-14T10:14:35Z</time>
      </trkpt>
      <trkpt lat="44.02632" lon="3.29441">
        <ele>575.6</ele>
        <time>2021-08-14T10:14:37Z</time>
      </trkpt>
      <trkpt lat="44.02629" lon="3.29438">
        <ele>576</ele>
        <time>2021-08-14T10:14:39Z</time>
      </trkpt>
      <trkpt lat="44.02627" lon="3.29435">
        <ele>576.4</ele>
        <time>2021-08-14T10:14:41Z</time>
      </trkpt>
      <trkpt lat="44.02624" lon="3.29431">
        <ele>577.1</ele>
        <time>2021-08-14T10:14:43Z</time>
      </trkpt>
      <trkpt lat="44.02622" lon="3.29428">
        <ele>577.5</ele>
        <time>2021-08-14T10:14:45Z</time>
      </trkpt>
      <trkpt lat="44.02619" lon="3.29425">
        <ele>577.9</ele>
        <time>2021-08-14T10:14:47Z</time>
      </trkpt>
      <trkpt lat="44.02617" lon="3.29421">
        <ele>578.5</ele>
        <time>2021-08-14T10:14:49Z</time>
      </trkpt>
      <trkpt lat="44.02615" lon="3.29418">
        <ele>579</ele>
        <time>2021-08-14T10:14:51Z</time>
      </trkpt>
      <trkpt lat="44.02613" lon="3.29415">
        <ele>579.6</ele>
        <time>2021-08-14T10:14:53Z</time>
      </trkpt>
      <trkpt lat="44.0261" lon="3.29411">
        <ele>580.1</ele>
        <time>2021-08-14T10:14:55Z</time>
      </trkpt>
      <trkpt lat="44.02607" lon="3.29408">
        <ele>580.6</ele>
        <time>2021-08-14T10:14:57Z</time>
      </trkpt>
      <trkpt lat="44.02605" lon="3.29405">
        <ele>581.1</ele>
        <time>2021-08-14T10:14:59Z</time>
      </trkpt>
      <trkpt lat="44.02603" lon="3.29401">
        <ele>581.9</ele>
        <time>2021-08-14T10:15:01Z</time>
      </trkpt>
      <trkpt lat="44.026" lon="3.29398">
        <ele>582.6</ele>
        <time>2021-08-14T10:15:03Z</time>
      </trkpt>
      <trkpt lat="44.02598" lon="3.29395">
        <ele>583.1</ele>
        <time>2021-08-14T10:15:05Z</time>
      </trkpt>
      <trkpt lat="44.02595" lon="3.29391">
        <ele>583.8</ele>
        <time>2021-08-14T10:15:07Z</time>
      </trkpt>
      <trkpt lat="44.02592" lon="3.29388">
        <ele>584.4</ele>
        <time>2021-08-14T10:15:09Z</time>
      </trkpt>
      <trkpt lat="44.0259" lon="3.29385">
        <ele>585</ele>
        <time>2021-08-14T10:15:11Z</time>
      </trkpt>
      <trkpt lat="44.02587" lon="3.29382">
        <ele>585.8</ele>
        <time>2021-08-14T10:15:13Z</time>
      </trkpt>
      <trkpt lat="44.02585" lon="3.29378">
        <ele>586.6</ele>
        <time>2021-08-14T10:15:15Z</time>
      </trkpt>
      <trkpt lat="44.02582" lon="3.29375">
        <ele>587.1</ele>
        <time>2021-08-14T10:15:17Z</time>
      </trkpt>
      <trkpt lat="44.0258" lon="3.29372">
        <ele>587</ele>
        <time>2021-08-14T10:15:19Z</time>
      </trkpt>
      <trkpt lat="44.02577" lon="3.29368">
        <ele>587.4</ele>
        <time>2021-08-14T10:15:21Z</time>
      </trkpt>
      <trkpt lat="44.02575" lon="3.29365">
        <ele>587.5</ele>
        <time>2021-08-14T10:15:23Z</time>
      </trkpt>
      <trkpt lat="44.02572" lon="3.29362">
        <ele>587.4</ele>
        <time>2021-08-14T10:15:25Z</time>
      </trkpt>
      <trkpt lat="44.0257" lon="3.29358">
        <ele>587.7</ele>
        <time>2021-08-14T10:15:27Z</time>
      </trkpt>
      <trkpt lat="44.02567" lon="3.29355">
        <ele>587.5</ele>
        <time>2021-08-14T10:15:29Z</time>
      </trkpt>
      <trkpt lat="44.02565" lon="3.29351">
        <ele>587.8</ele>
        <time>2021-08-14T10:15:31Z</time>
      </trkpt>
      <trkpt lat="44.02562" lon="3.29348">
        <ele>588</ele>
        <time>2021-08-14T10:15:33Z</time>
      </trkpt>
      <trkpt lat="44.0256" lon="3.29345">
        <ele>587.9</ele>
        <time>2021-08-14T10:15:35Z</time>
      </trkpt>
      <trkpt lat="44.02558" lon="3.29341">
        <ele>588.1</ele>
        <time>2021-08-14T10:15:37Z</time>
      </trkpt>
      <trkpt lat="44.02556" lon="3.29337">
        <ele>588.5</ele>
        <time>2021-08-14T10:15:39Z</time>
      </trkpt>
      <trkpt lat="44.02553" lon="3.29334">
        <ele>588.6</ele>
        <time>2021-08-14T10:15:41Z</time>
      </trkpt>
      <trkpt lat="44.02551" lon="3.2933">
        <ele>589</ele>
        <time>2021-08-14T10:15:43Z</time>
      </trkpt>
      <trkpt lat="44.02549" lon="3.29326">
        <ele>588.9</ele>
        <time>2021-08-14T10:15:45Z</time>
      </trkpt>
      <trkpt lat="44.02547" lon="3.29323">
        <ele>589.2</ele>
        <time>2021-08-14T10:15:47Z</time>
      </trkpt>
      <trkpt lat="44.02545" lon="3.29318">
        <ele>589.7</ele>
        <time>2021-08-14T10:15:49Z</time>
      </trkpt>
      <trkpt lat="44.02543" lon="3.29314">
        <ele>590</ele>
        <time>2021-08-14T10:15:51Z</time>
      </trkpt>
      <trkpt lat="44.02541" lon="3.2931">
        <ele>590.3</ele>
        <time>2021-08-14T10:15:53Z</time>
      </trkpt>
      <trkpt lat="44.02539" lon="3.29307">
        <ele>590.5</ele>
        <time>2021-08-14T10:15:55Z</time>
      </trkpt>
      <trkpt lat="44.02537" lon="3.29303">
        <ele>590.9</ele>
        <time>2021-08-14T10:15:57Z</time>
      </trkpt>
      <trkpt lat="44.02536" lon="3.29298">
        <ele>591.6</ele>
        <time>2021-08-14T10:15:59Z</time>
      </trkpt>
      <trkpt lat="44.02534" lon="3.29294">
        <ele>591.9</ele>
        <time>2021-08-14T10:16:01Z</time>
      </trkpt>
      <trkpt lat="44.02532" lon="3.2929">
        <ele>592.4</ele>
        <time>2021-08-14T10:16:03Z</time>
      </trkpt>
      <trkpt lat="44.0253" lon="3.29286">
        <ele>592.8</ele>
        <time>2021-08-14T10:16:05Z</time>
      </trkpt>
      <trkpt lat="44.02529" lon="3.29282">
        <ele>593.4</ele>
        <time>2021-08-14T10:16:07Z</time>
      </trkpt>
      <trkpt lat="44.02527" lon="3.29278">
        <ele>593.6</ele>
        <time>2021-08-14T10:16:09Z</time>
      </trkpt>
      <trkpt lat="44.02525" lon="3.29273">
        <ele>594.5</ele>
        <time>2021-08-14T10:16:11Z</time>
      </trkpt>
      <trkpt lat="44.02523" lon="3.29269">
        <ele>594.7</ele>
        <time>2021-08-14T10:16:13Z</time>
      </trkpt>
      <trkpt lat="44.02521" lon="3.29265">
        <ele>595.2</ele>
        <time>2021-08-14T10:16:15Z</time>
      </trkpt>
      <trkpt lat="44.0252" lon="3.29261">
        <ele>595.7</ele>
        <time>2021-08-14T10:16:17Z</time>
      </trkpt>
      <trkpt lat="44.02518" lon="3.29257">
        <ele>596</ele>
        <time>2021-08-14T10:16:19Z</time>
      </trkpt>
      <trkpt lat="44.02516" lon="3.29252">
        <ele>596.6</ele>
        <time>2021-08-14T10:16:21Z</time>
      </trkpt>
      <trkpt lat="44.02514" lon="3.29248">
        <ele>597.1</ele>
        <time>2021-08-14T10:16:23Z</time>
      </trkpt>
      <trkpt lat="44.02513" lon="3.29244">
        <ele>597.4</ele>
        <time>2021-08-14T10:16:25Z</time>
      </trkpt>
      <trkpt lat="44.02511" lon="3.2924">
        <ele>597.6</ele>
        <time>2021-08-14T10:16:27Z</time>
      </trkpt>
      <trkpt lat="44.02509" lon="3.29236">
        <ele>597.9</ele>
        <time>2021-08-14T10:16:29Z</time>
      </trkpt>
      <trkpt lat="44.02507" lon="3.29231">
        <ele>598.3</ele>
        <time>2021-08-14T10:16:31Z</time>
      </trkpt>
      <trkpt lat="44.02505" lon="3.29227">
        <ele>598.7</ele>
        <time>2021-08-14T10:16:33Z</time>
      </trkpt>
      <trkpt lat="44.02503" lon="3.29222">
        <ele>599.1</ele>
        <time>2021-08-14T10:16:35Z</time>
      </trkpt>
      <trkpt lat="44.02501" lon="3.29218">
        <ele>599.5</ele>
        <time>2021-08-14T10:16:37Z</time>
      </trkpt>
      <trkpt lat="44.025" lon="3.29213">
        <ele>599.9</ele>
        <time>2021-08-14T10:16:39Z</time>
      </trkpt>
      <trkpt lat="44.02498" lon="3.29209">
        <ele>600.2</ele>
        <time>2021-08-14T10:16:41Z</time>
      </trkpt>
      <trkpt lat="44.02496" lon="3.29205">
        <ele>600.6</ele>
        <time>2021-08-14T10:16:43Z</time>
      </trkpt>
      <trkpt lat="44.02494" lon="3.292">
        <ele>601.1</ele>
        <time>2021-08-14T10:16:45Z</time>
      </trkpt>
      <trkpt lat="44.02492" lon="3.29196">
        <ele>601.2</ele>
        <time>2021-08-14T10:16:47Z</time>
      </trkpt>
      <trkpt lat="44.0249" lon="3.29191">
        <ele>601.5</ele>
        <time>2021-08-14T10:16:49Z</time>
      </trkpt>
      <trkpt lat="44.02488" lon="3.29187">
        <ele>602</ele>
        <time>2021-08-14T10:16:51Z</time>
      </trkpt>
      <trkpt lat="44.02486" lon="3.29182">
        <ele>602.2</ele>
        <time>2021-08-14T10:16:53Z</time>
      </trkpt>
      <trkpt lat="44.02485" lon="3.29177">
        <ele>602.7</ele>
        <time>2021-08-14T10:16:55Z</time>
      </trkpt>
      <trkpt lat="44.02483" lon="3.29173">
        <ele>602.9</ele>
        <time>2021-08-14T10:16:57Z</time>
      </trkpt>
      <trkpt lat="44.0248" lon="3.29168">
        <ele>603</ele>
        <time>2021-08-14T10:16:59Z</time>
      </trkpt>
      <trkpt lat="44.02479" lon="3.29164">
        <ele>603.2</ele>
        <time>2021-08-14T10:17:01Z</time>
      </trkpt>
      <trkpt lat="44.02477" lon="3.2916">
        <ele>603.4</ele>
        <time>2021-08-14T10:17:03Z</time>
      </trkpt>
      <trkpt lat="44.02475" lon="3.29155">
        <ele>603.6</ele>
        <time>2021-08-14T10:17:05Z</time>
      </trkpt>
      <trkpt lat="44.02473" lon="3.2915">
        <ele>603.7</ele>
        <time>2021-08-14T10:17:07Z</time>
      </trkpt>
      <trkpt lat="44.02471" lon="3.29146">
        <ele>603.8</ele>
        <time>2021-08-14T10:17:09Z</time>
      </trkpt>
      <trkpt lat="44.02469" lon="3.29141">
        <ele>604</ele>
        <time>2021-08-14T10:17:11Z</time>
      </trkpt>
      <trkpt lat="44.02467" lon="3.29137">
        <ele>603.9</ele>
        <time>2021-08-14T10:17:13Z</time>
      </trkpt>
      <trkpt lat="44.02466" lon="3.29132">
        <ele>604</ele>
        <time>2021-08-14T10:17:15Z</time>
      </trkpt>
      <trkpt lat="44.02464" lon="3.29128">
        <ele>604.1</ele>
        <time>2021-08-14T10:17:17Z</time>
      </trkpt>
      <trkpt lat="44.02462" lon="3.29124">
        <ele>604.2</ele>
        <time>2021-08-14T10:17:19Z</time>
      </trkpt>
      <trkpt lat="44.0246" lon="3.29119">
        <ele>604.3</ele>
        <time>2021-08-14T10:17:21Z</time>
      </trkpt>
      <trkpt lat="44.02458" lon="3.29114">
        <ele>604.4</ele>
        <time>2021-08-14T10:17:23Z</time>
      </trkpt>
      <trkpt lat="44.02456" lon="3.2911">
        <ele>604.5</ele>
        <time>2021-08-14T10:17:25Z</time>
      </trkpt>
      <trkpt lat="44.02454" lon="3.29105">
        <ele>604.4</ele>
        <time>2021-08-14T10:17:27Z</time>
      </trkpt>
      <trkpt lat="44.02452" lon="3.29101">
        <ele>604.2</ele>
        <time>2021-08-14T10:17:29Z</time>
      </trkpt>
      <trkpt lat="44.02451" lon="3.29096">
        <ele>604.5</ele>
        <time>2021-08-14T10:17:31Z</time>
      </trkpt>
      <trkpt lat="44.02448" lon="3.29092">
        <ele>604.3</ele>
        <time>2021-08-14T10:17:33Z</time>
      </trkpt>
      <trkpt lat="44.02447" lon="3.29087">
        <ele>604.2</ele>
        <time>2021-08-14T10:17:35Z</time>
      </trkpt>
      <trkpt lat="44.02445" lon="3.29083">
        <ele>604.3</ele>
        <time>2021-08-14T10:17:37Z</time>
      </trkpt>
      <trkpt lat="44.02443" lon="3.29078">
        <ele>604.3</ele>
        <time>2021-08-14T10:17:39Z</time>
      </trkpt>
      <trkpt lat="44.02441" lon="3.29073">
        <ele>604.5</ele>
        <time>2021-08-14T10:17:41Z</time>
      </trkpt>
      <trkpt lat="44.02439" lon="3.29069">
        <ele>604.5</ele>
        <time>2021-08-14T10:17:43Z</time>
      </trkpt>
      <trkpt lat="44.02437" lon="3.29064">
        <ele>604.7</ele>
        <time>2021-08-14T10:17:45Z</time>
      </trkpt>
      <trkpt lat="44.02435" lon="3.2906">
        <ele>604.8</ele>
        <time>2021-08-14T10:17:47Z</time>
      </trkpt>
      <trkpt lat="44.02433" lon="3.29055">
        <ele>605</ele>
        <time>2021-08-14T10:17:49Z</time>
      </trkpt>
      <trkpt lat="44.02431" lon="3.2905">
        <ele>605.1</ele>
        <time>2021-08-14T10:17:51Z</time>
      </trkpt>
      <trkpt lat="44.0243" lon="3.29045">
        <ele>605.3</ele>
        <time>2021-08-14T10:17:53Z</time>
      </trkpt>
      <trkpt lat="44.02427" lon="3.29041">
        <ele>605.4</ele>
        <time>2021-08-14T10:17:55Z</time>
      </trkpt>
      <trkpt lat="44.02426" lon="3.29036">
        <ele>605.8</ele>
        <time>2021-08-14T10:17:57Z</time>
      </trkpt>
      <trkpt lat="44.02425" lon="3.29031">
        <ele>606.4</ele>
        <time>2021-08-14T10:17:59Z</time>
      </trkpt>
      <trkpt lat="44.02423" lon="3.29027">
        <ele>606.8</ele>
        <time>2021-08-14T10:18:01Z</time>
      </trkpt>
      <trkpt lat="44.02422" lon="3.29022">
        <ele>607</ele>
        <time>2021-08-14T10:18:03Z</time>
      </trkpt>
      <trkpt lat="44.02421" lon="3.29017">
        <ele>607.6</ele>
        <time>2021-08-14T10:18:05Z</time>
      </trkpt>
      <trkpt lat="44.02419" lon="3.29012">
        <ele>608</ele>
        <time>2021-08-14T10:18:07Z</time>
      </trkpt>
      <trkpt lat="44.02417" lon="3.29007">
        <ele>608.4</ele>
        <time>2021-08-14T10:18:09Z</time>
      </trkpt>
      <trkpt lat="44.02416" lon="3.29002">
        <ele>609.1</ele>
        <time>2021-08-14T10:18:11Z</time>
      </trkpt>
      <trkpt lat="44.02414" lon="3.28998">
        <ele>609.5</ele>
        <time>2021-08-14T10:18:13Z</time>
      </trkpt>
      <trkpt lat="44.02412" lon="3.28993">
        <ele>610</ele>
        <time>2021-08-14T10:18:15Z</time>
      </trkpt>
      <trkpt lat="44.02411" lon="3.28988">
        <ele>610.8</ele>
        <time>2021-08-14T10:18:17Z</time>
      </trkpt>
      <trkpt lat="44.0241" lon="3.28984">
        <ele>611.3</ele>
        <time>2021-08-14T10:18:19Z</time>
      </trkpt>
      <trkpt lat="44.02408" lon="3.2898">
        <ele>611.7</ele>
        <time>2021-08-14T10:18:21Z</time>
      </trkpt>
      <trkpt lat="44.02407" lon="3.28975">
        <ele>612.3</ele>
        <time>2021-08-14T10:18:23Z</time>
      </trkpt>
      <trkpt lat="44.02406" lon="3.28971">
        <ele>612.8</ele>
        <time>2021-08-14T10:18:25Z</time>
      </trkpt>
      <trkpt lat="44.02405" lon="3.28967">
        <ele>613.3</ele>
        <time>2021-08-14T10:18:27Z</time>
      </trkpt>
      <trkpt lat="44.02403" lon="3.28962">
        <ele>613.8</ele>
        <time>2021-08-14T10:18:29Z</time>
      </trkpt>
      <trkpt lat="44.02402" lon="3.28957">
        <ele>614.5</ele>
        <time>2021-08-14T10:18:31Z</time>
      </trkpt>
      <trkpt lat="44.024" lon="3.28953">
        <ele>614.7</ele>
        <time>2021-08-14T10:18:33Z</time>
      </trkpt>
      <trkpt lat="44.02399" lon="3.28949">
        <ele>615</ele>
        <time>2021-08-14T10:18:35Z</time>
      </trkpt>
      <trkpt lat="44.02397" lon="3.28945">
        <ele>615.3</ele>
        <time>2021-08-14T10:18:37Z</time>
      </trkpt>
      <trkpt lat="44.02396" lon="3.28941">
        <ele>615.6</ele>
        <time>2021-08-14T10:18:39Z</time>
      </trkpt>
      <trkpt lat="44.02394" lon="3.28937">
        <ele>615.9</ele>
        <time>2021-08-14T10:18:41Z</time>
      </trkpt>
      <trkpt lat="44.02393" lon="3.28932">
        <ele>616.1</ele>
        <time>2021-08-14T10:18:43Z</time>
      </trkpt>
      <trkpt lat="44.02391" lon="3.28928">
        <ele>616.2</ele>
        <time>2021-08-14T10:18:45Z</time>
      </trkpt>
      <trkpt lat="44.02389" lon="3.28924">
        <ele>616.4</ele>
        <time>2021-08-14T10:18:47Z</time>
      </trkpt>
      <trkpt lat="44.02388" lon="3.2892">
        <ele>616.8</ele>
        <time>2021-08-14T10:18:49Z</time>
      </trkpt>
      <trkpt lat="44.02386" lon="3.28915">
        <ele>617</ele>
        <time>2021-08-14T10:18:51Z</time>
      </trkpt>
      <trkpt lat="44.02385" lon="3.28911">
        <ele>617.2</ele>
        <time>2021-08-14T10:18:53Z</time>
      </trkpt>
      <trkpt lat="44.02383" lon="3.28906">
        <ele>617.6</ele>
        <time>2021-08-14T10:18:55Z</time>
      </trkpt>
      <trkpt lat="44.02382" lon="3.28902">
        <ele>618</ele>
        <time>2021-08-14T10:18:57Z</time>
      </trkpt>
      <trkpt lat="44.0238" lon="3.28898">
        <ele>618.2</ele>
        <time>2021-08-14T10:18:59Z</time>
      </trkpt>
      <trkpt lat="44.02378" lon="3.28893">
        <ele>618.4</ele>
        <time>2021-08-14T10:19:01Z</time>
      </trkpt>
      <trkpt lat="44.02378" lon="3.28889">
        <ele>619.3</ele>
        <time>2021-08-14T10:19:03Z</time>
      </trkpt>
      <trkpt lat="44.02377" lon="3.28884">
        <ele>620</ele>
        <time>2021-08-14T10:19:05Z</time>
      </trkpt>
      <trkpt lat="44.02375" lon="3.28879">
        <ele>620.2</ele>
        <time>2021-08-14T10:19:07Z</time>
      </trkpt>
      <trkpt lat="44.02374" lon="3.28875">
        <ele>620.9</ele>
        <time>2021-08-14T10:19:09Z</time>
      </trkpt>
      <trkpt lat="44.02374" lon="3.2887">
        <ele>621.8</ele>
        <time>2021-08-14T10:19:11Z</time>
      </trkpt>
      <trkpt lat="44.02373" lon="3.28865">
        <ele>622.4</ele>
        <time>2021-08-14T10:19:13Z</time>
      </trkpt>
      <trkpt lat="44.02371" lon="3.2886">
        <ele>623</ele>
        <time>2021-08-14T10:19:15Z</time>
      </trkpt>
      <trkpt lat="44.0237" lon="3.28856">
        <ele>623.4</ele>
        <time>2021-08-14T10:19:17Z</time>
      </trkpt>
      <trkpt lat="44.02368" lon="3.28852">
        <ele>623.7</ele>
        <time>2021-08-14T10:19:19Z</time>
      </trkpt>
      <trkpt lat="44.02367" lon="3.28847">
        <ele>624.2</ele>
        <time>2021-08-14T10:19:21Z</time>
      </trkpt>
      <trkpt lat="44.02366" lon="3.28843">
        <ele>624.8</ele>
        <time>2021-08-14T10:19:23Z</time>
      </trkpt>
      <trkpt lat="44.02364" lon="3.28839">
        <ele>625</ele>
        <time>2021-08-14T10:19:25Z</time>
      </trkpt>
      <trkpt lat="44.02363" lon="3.28835">
        <ele>625.2</ele>
        <time>2021-08-14T10:19:27Z</time>
      </trkpt>
      <trkpt lat="44.02361" lon="3.28831">
        <ele>625.4</ele>
        <time>2021-08-14T10:19:29Z</time>
      </trkpt>
      <trkpt lat="44.02359" lon="3.28827">
        <ele>625.6</ele>
        <time>2021-08-14T10:19:31Z</time>
      </trkpt>
      <trkpt lat="44.02357" lon="3.28823">
        <ele>625.7</ele>
        <time>2021-08-14T10:19:33Z</time>
      </trkpt>
      <trkpt lat="44.02355" lon="3.2882">
        <ele>625.8</ele>
        <time>2021-08-14T10:19:35Z</time>
      </trkpt>
      <trkpt lat="44.02352" lon="3.28816">
        <ele>625.9</ele>
        <time>2021-08-14T10:19:37Z</time>
      </trkpt>
      <trkpt lat="44.02351" lon="3.28812">
        <ele>626.3</ele>
        <time>2021-08-14T10:19:39Z</time>
      </trkpt>
      <trkpt lat="44.02348" lon="3.28809">
        <ele>626.1</ele>
        <time>2021-08-14T10:19:41Z</time>
      </trkpt>
      <trkpt lat="44.02345" lon="3.28806">
        <ele>625.9</ele>
        <time>2021-08-14T10:19:43Z</time>
      </trkpt>
      <trkpt lat="44.02343" lon="3.28803">
        <ele>625.7</ele>
        <time>2021-08-14T10:19:45Z</time>
      </trkpt>
      <trkpt lat="44.0234" lon="3.288">
        <ele>625.4</ele>
        <time>2021-08-14T10:19:47Z</time>
      </trkpt>
      <trkpt lat="44.02337" lon="3.28797">
        <ele>625</ele>
        <time>2021-08-14T10:19:49Z</time>
      </trkpt>
      <trkpt lat="44.02335" lon="3.28794">
        <ele>624.8</ele>
        <time>2021-08-14T10:19:51Z</time>
      </trkpt>
      <trkpt lat="44.02332" lon="3.28791">
        <ele>624.8</ele>
        <time>2021-08-14T10:19:53Z</time>
      </trkpt>
      <trkpt lat="44.02329" lon="3.28789">
        <ele>624.7</ele>
        <time>2021-08-14T10:19:55Z</time>
      </trkpt>
      <trkpt lat="44.02327" lon="3.28786">
        <ele>624.7</ele>
        <time>2021-08-14T10:19:57Z</time>
      </trkpt>
      <trkpt lat="44.02324" lon="3.28783">
        <ele>624.7</ele>
        <time>2021-08-14T10:19:59Z</time>
      </trkpt>
      <trkpt lat="44.02321" lon="3.2878">
        <ele>624.8</ele>
        <time>2021-08-14T10:20:01Z</time>
      </trkpt>
      <trkpt lat="44.02319" lon="3.28777">
        <ele>625</ele>
        <time>2021-08-14T10:20:03Z</time>
      </trkpt>
      <trkpt lat="44.02316" lon="3.28774">
        <ele>624.9</ele>
        <time>2021-08-14T10:20:05Z</time>
      </trkpt>
      <trkpt lat="44.02313" lon="3.28772">
        <ele>624.8</ele>
        <time>2021-08-14T10:20:07Z</time>
      </trkpt>
      <trkpt lat="44.0231" lon="3.28769">
        <ele>624.6</ele>
        <time>2021-08-14T10:20:09Z</time>
      </trkpt>
      <trkpt lat="44.02308" lon="3.28766">
        <ele>625</ele>
        <time>2021-08-14T10:20:11Z</time>
      </trkpt>
      <trkpt lat="44.02305" lon="3.28762">
        <ele>625.1</ele>
        <time>2021-08-14T10:20:13Z</time>
      </trkpt>
      <trkpt lat="44.02302" lon="3.2876">
        <ele>625.1</ele>
        <time>2021-08-14T10:20:15Z</time>
      </trkpt>
      <trkpt lat="44.023" lon="3.28757">
        <ele>625.1</ele>
        <time>2021-08-14T10:20:17Z</time>
      </trkpt>
      <trkpt lat="44.02297" lon="3.28753">
        <ele>625.1</ele>
        <time>2021-08-14T10:20:19Z</time>
      </trkpt>
      <trkpt lat="44.02294" lon="3.2875">
        <ele>625.2</ele>
        <time>2021-08-14T10:20:21Z</time>
      </trkpt>
      <trkpt lat="44.02291" lon="3.28747">
        <ele>625.4</ele>
        <time>2021-08-14T10:20:23Z</time>
      </trkpt>
      <trkpt lat="44.02288" lon="3.28744">
        <ele>625.8</ele>
        <time>2021-08-14T10:20:25Z</time>
      </trkpt>
      <trkpt lat="44.02286" lon="3.2874">
        <ele>626.1</ele>
        <time>2021-08-14T10:20:27Z</time>
      </trkpt>
      <trkpt lat="44.02283" lon="3.28737">
        <ele>626.4</ele>
        <time>2021-08-14T10:20:29Z</time>
      </trkpt>
      <trkpt lat="44.02281" lon="3.28734">
        <ele>626.4</ele>
        <time>2021-08-14T10:20:31Z</time>
      </trkpt>
      <trkpt lat="44.02279" lon="3.28731">
        <ele>626.9</ele>
        <time>2021-08-14T10:20:33Z</time>
      </trkpt>
      <trkpt lat="44.02276" lon="3.28728">
        <ele>627.2</ele>
        <time>2021-08-14T10:20:35Z</time>
      </trkpt>
      <trkpt lat="44.02274" lon="3.28724">
        <ele>627.4</ele>
        <time>2021-08-14T10:20:37Z</time>
      </trkpt>
      <trkpt lat="44.02271" lon="3.28721">
        <ele>627.7</ele>
        <time>2021-08-14T10:20:39Z</time>
      </trkpt>
      <trkpt lat="44.02269" lon="3.28718">
        <ele>627.9</ele>
        <time>2021-08-14T10:20:41Z</time>
      </trkpt>
      <trkpt lat="44.02266" lon="3.28714">
        <ele>628.2</ele>
        <time>2021-08-14T10:20:43Z</time>
      </trkpt>
      <trkpt lat="44.02264" lon="3.28711">
        <ele>628.4</ele>
        <time>2021-08-14T10:20:45Z</time>
      </trkpt>
      <trkpt lat="44.02262" lon="3.28708">
        <ele>628.6</ele>
        <time>2021-08-14T10:20:47Z</time>
      </trkpt>
      <trkpt lat="44.0226" lon="3.28704">
        <ele>628.8</ele>
        <time>2021-08-14T10:20:49Z</time>
      </trkpt>
      <trkpt lat="44.02257" lon="3.28701">
        <ele>628.9</ele>
        <time>2021-08-14T10:20:51Z</time>
      </trkpt>
      <trkpt lat="44.02255" lon="3.28697">
        <ele>629.4</ele>
        <time>2021-08-14T10:20:53Z</time>
      </trkpt>
      <trkpt lat="44.02253" lon="3.28693">
        <ele>629.8</ele>
        <time>2021-08-14T10:20:55Z</time>
      </trkpt>
      <trkpt lat="44.02251" lon="3.2869">
        <ele>629.9</ele>
        <time>2021-08-14T10:20:57Z</time>
      </trkpt>
      <trkpt lat="44.02248" lon="3.28686">
        <ele>630</ele>
        <time>2021-08-14T10:20:59Z</time>
      </trkpt>
      <trkpt lat="44.02246" lon="3.28682">
        <ele>630.6</ele>
        <time>2021-08-14T10:21:01Z</time>
      </trkpt>
      <trkpt lat="44.02244" lon="3.28678">
        <ele>631</ele>
        <time>2021-08-14T10:21:03Z</time>
      </trkpt>
      <trkpt lat="44.02242" lon="3.28675">
        <ele>631.1</ele>
        <time>2021-08-14T10:21:05Z</time>
      </trkpt>
      <trkpt lat="44.02239" lon="3.28671">
        <ele>631.2</ele>
        <time>2021-08-14T10:21:07Z</time>
      </trkpt>
      <trkpt lat="44.02237" lon="3.28667">
        <ele>631.4</ele>
        <time>2021-08-14T10:21:09Z</time>
      </trkpt>
      <trkpt lat="44.02234" lon="3.28663">
        <ele>631.7</ele>
        <time>2021-08-14T10:21:11Z</time>
      </trkpt>
      <trkpt lat="44.02232" lon="3.28659">
        <ele>631.9</ele>
        <time>2021-08-14T10:21:13Z</time>
      </trkpt>
      <trkpt lat="44.02231" lon="3.28655">
        <ele>632.5</ele>
        <time>2021-08-14T10:21:15Z</time>
      </trkpt>
      <trkpt lat="44.02229" lon="3.28652">
        <ele>632.8</ele>
        <time>2021-08-14T10:21:17Z</time>
      </trkpt>
      <trkpt lat="44.02226" lon="3.28648">
        <ele>632.7</ele>
        <time>2021-08-14T10:21:19Z</time>
      </trkpt>
      <trkpt lat="44.02224" lon="3.28644">
        <ele>633.1</ele>
        <time>2021-08-14T10:21:21Z</time>
      </trkpt>
      <trkpt lat="44.02222" lon="3.2864">
        <ele>633.3</ele>
        <time>2021-08-14T10:21:23Z</time>
      </trkpt>
      <trkpt lat="44.0222" lon="3.28636">
        <ele>633.6</ele>
        <time>2021-08-14T10:21:25Z</time>
      </trkpt>
      <trkpt lat="44.02218" lon="3.28632">
        <ele>633.7</ele>
        <time>2021-08-14T10:21:27Z</time>
      </trkpt>
      <trkpt lat="44.02215" lon="3.28629">
        <ele>633.6</ele>
        <time>2021-08-14T10:21:29Z</time>
      </trkpt>
      <trkpt lat="44.02214" lon="3.28625">
        <ele>633.9</ele>
        <time>2021-08-14T10:21:31Z</time>
      </trkpt>
      <trkpt lat="44.02212" lon="3.28621">
        <ele>634.1</ele>
        <time>2021-08-14T10:21:33Z</time>
      </trkpt>
      <trkpt lat="44.02209" lon="3.28617">
        <ele>634.3</ele>
        <time>2021-08-14T10:21:35Z</time>
      </trkpt>
      <trkpt lat="44.02208" lon="3.28613">
        <ele>634.5</ele>
        <time>2021-08-14T10:21:37Z</time>
      </trkpt>
      <trkpt lat="44.02206" lon="3.28608">
        <ele>635.3</ele>
        <time>2021-08-14T10:21:39Z</time>
      </trkpt>
      <trkpt lat="44.02205" lon="3.28604">
        <ele>635.6</ele>
        <time>2021-08-14T10:21:41Z</time>
      </trkpt>
      <trkpt lat="44.02203" lon="3.286">
        <ele>635.8</ele>
        <time>2021-08-14T10:21:43Z</time>
      </trkpt>
      <trkpt lat="44.02201" lon="3.28595">
        <ele>636.3</ele>
        <time>2021-08-14T10:21:45Z</time>
      </trkpt>
      <trkpt lat="44.022" lon="3.2859">
        <ele>637.1</ele>
        <time>2021-08-14T10:21:47Z</time>
      </trkpt>
      <trkpt lat="44.02198" lon="3.28586">
        <ele>637.3</ele>
        <time>2021-08-14T10:21:49Z</time>
      </trkpt>
      <trkpt lat="44.02197" lon="3.28581">
        <ele>638</ele>
        <time>2021-08-14T10:21:51Z</time>
      </trkpt>
      <trkpt lat="44.02197" lon="3.28576">
        <ele>639.2</ele>
        <time>2021-08-14T10:21:53Z</time>
      </trkpt>
      <trkpt lat="44.02196" lon="3.28572">
        <ele>640.2</ele>
        <time>2021-08-14T10:21:55Z</time>
      </trkpt>
      <trkpt lat="44.02194" lon="3.28567">
        <ele>640.5</ele>
        <time>2021-08-14T10:21:57Z</time>
      </trkpt>
      <trkpt lat="44.02193" lon="3.28562">
        <ele>641.4</ele>
        <time>2021-08-14T10:21:59Z</time>
      </trkpt>
      <trkpt lat="44.02193" lon="3.28557">
        <ele>642.4</ele>
        <time>2021-08-14T10:22:01Z</time>
      </trkpt>
      <trkpt lat="44.02191" lon="3.28554">
        <ele>642.6</ele>
        <time>2021-08-14T10:22:03Z</time>
      </trkpt>
      <trkpt lat="44.0219" lon="3.28549">
        <ele>643.5</ele>
        <time>2021-08-14T10:22:05Z</time>
      </trkpt>
      <trkpt lat="44.02189" lon="3.28544">
        <ele>644</ele>
        <time>2021-08-14T10:22:07Z</time>
      </trkpt>
      <trkpt lat="44.02187" lon="3.2854">
        <ele>644.6</ele>
        <time>2021-08-14T10:22:09Z</time>
      </trkpt>
      <trkpt lat="44.02186" lon="3.28535">
        <ele>645.1</ele>
        <time>2021-08-14T10:22:11Z</time>
      </trkpt>
      <trkpt lat="44.02185" lon="3.28531">
        <ele>645.6</ele>
        <time>2021-08-14T10:22:13Z</time>
      </trkpt>
      <trkpt lat="44.02183" lon="3.28527">
        <ele>646.2</ele>
        <time>2021-08-14T10:22:15Z</time>
      </trkpt>
      <trkpt lat="44.02182" lon="3.28523">
        <ele>646.6</ele>
        <time>2021-08-14T10:22:17Z</time>
      </trkpt>
      <trkpt lat="44.0218" lon="3.28519">
        <ele>646.7</ele>
        <time>2021-08-14T10:22:19Z</time>
      </trkpt>
      <trkpt lat="44.02179" lon="3.28514">
        <ele>647.3</ele>
        <time>2021-08-14T10:22:21Z</time>
      </trkpt>
      <trkpt lat="44.02177" lon="3.2851">
        <ele>647.5</ele>
        <time>2021-08-14T10:22:23Z</time>
      </trkpt>
      <trkpt lat="44.02175" lon="3.28506">
        <ele>647.7</ele>
        <time>2021-08-14T10:22:25Z</time>
      </trkpt>
      <trkpt lat="44.02173" lon="3.28502">
        <ele>648</ele>
        <time>2021-08-14T10:22:27Z</time>
      </trkpt>
      <trkpt lat="44.02172" lon="3.28497">
        <ele>648.3</ele>
        <time>2021-08-14T10:22:29Z</time>
      </trkpt>
      <trkpt lat="44.0217" lon="3.28493">
        <ele>648.1</ele>
        <time>2021-08-14T10:22:31Z</time>
      </trkpt>
      <trkpt lat="44.02168" lon="3.28489">
        <ele>648.1</ele>
        <time>2021-08-14T10:22:33Z</time>
      </trkpt>
      <trkpt lat="44.02166" lon="3.28485">
        <ele>648.3</ele>
        <time>2021-08-14T10:22:35Z</time>
      </trkpt>
      <trkpt lat="44.02165" lon="3.28481">
        <ele>648.3</ele>
        <time>2021-08-14T10:22:37Z</time>
      </trkpt>
      <trkpt lat="44.02163" lon="3.28477">
        <ele>648.3</ele>
        <time>2021-08-14T10:22:39Z</time>
      </trkpt>
      <trkpt lat="44.02161" lon="3.28472">
        <ele>648.1</ele>
        <time>2021-08-14T10:22:41Z</time>
      </trkpt>
      <trkpt lat="44.0216" lon="3.28468">
        <ele>648.2</ele>
        <time>2021-08-14T10:22:43Z</time>
      </trkpt>
      <trkpt lat="44.02158" lon="3.28464">
        <ele>648.4</ele>
        <time>2021-08-14T10:22:45Z</time>
      </trkpt>
      <trkpt lat="44.02156" lon="3.2846">
        <ele>648.4</ele>
        <time>2021-08-14T10:22:47Z</time>
      </trkpt>
      <trkpt lat="44.02154" lon="3.28456">
        <ele>648.2</ele>
        <time>2021-08-14T10:22:49Z</time>
      </trkpt>
      <trkpt lat="44.02153" lon="3.28451">
        <ele>648.3</ele>
        <time>2021-08-14T10:22:51Z</time>
      </trkpt>
      <trkpt lat="44.02151" lon="3.28447">
        <ele>648.2</ele>
        <time>2021-08-14T10:22:53Z</time>
      </trkpt>
      <trkpt lat="44.02149" lon="3.28443">
        <ele>648.1</ele>
        <time>2021-08-14T10:22:55Z</time>
      </trkpt>
      <trkpt lat="44.02147" lon="3.28438">
        <ele>648.3</ele>
        <time>2021-08-14T10:22:57Z</time>
      </trkpt>
      <trkpt lat="44.02146" lon="3.28434">
        <ele>648.1</ele>
        <time>2021-08-14T10:22:59Z</time>
      </trkpt>
      <trkpt lat="44.02144" lon="3.2843">
        <ele>648</ele>
        <time>2021-08-14T10:23:01Z</time>
      </trkpt>
      <trkpt lat="44.02142" lon="3.28426">
        <ele>648.2</ele>
        <time>2021-08-14T10:23:03Z</time>
      </trkpt>
      <trkpt lat="44.0214" lon="3.28422">
        <ele>647.9</ele>
        <time>2021-08-14T10:23:05Z</time>
      </trkpt>
      <trkpt lat="44.02139" lon="3.28418">
        <ele>647.9</ele>
        <time>2021-08-14T10:23:07Z</time>
      </trkpt>
      <trkpt lat="44.02137" lon="3.28413">
        <ele>648.4</ele>
        <time>2021-08-14T10:23:09Z</time>
      </trkpt>
      <trkpt lat="44.02136" lon="3.28408">
        <ele>649.1</ele>
        <time>2021-08-14T10:23:11Z</time>
      </trkpt>
      <trkpt lat="44.02134" lon="3.28404">
        <ele>649.3</ele>
        <time>2021-08-14T10:23:13Z</time>
      </trkpt>
      <trkpt lat="44.02133" lon="3.28399">
        <ele>649.7</ele>
        <time>2021-08-14T10:23:15Z</time>
      </trkpt>
      <trkpt lat="44.02131" lon="3.28395">
        <ele>650.2</ele>
        <time>2021-08-14T10:23:17Z</time>
      </trkpt>
      <trkpt lat="44.0213" lon="3.2839">
        <ele>650.7</ele>
        <time>2021-08-14T10:23:19Z</time>
      </trkpt>
      <trkpt lat="44.02128" lon="3.28385">
        <ele>651.1</ele>
        <time>2021-08-14T10:23:21Z</time>
      </trkpt>
      <trkpt lat="44.02126" lon="3.28381">
        <ele>651.6</ele>
        <time>2021-08-14T10:23:23Z</time>
      </trkpt>
      <trkpt lat="44.02124" lon="3.28376">
        <ele>651.9</ele>
        <time>2021-08-14T10:23:25Z</time>
      </trkpt>
      <trkpt lat="44.02123" lon="3.28372">
        <ele>652.2</ele>
        <time>2021-08-14T10:23:27Z</time>
      </trkpt>
      <trkpt lat="44.02122" lon="3.28368">
        <ele>653</ele>
        <time>2021-08-14T10:23:29Z</time>
      </trkpt>
      <trkpt lat="44.02121" lon="3.28363">
        <ele>653.9</ele>
        <time>2021-08-14T10:23:31Z</time>
      </trkpt>
      <trkpt lat="44.02119" lon="3.28359">
        <ele>654.5</ele>
        <time>2021-08-14T10:23:33Z</time>
      </trkpt>
      <trkpt lat="44.02117" lon="3.28354">
        <ele>654.7</ele>
        <time>2021-08-14T10:23:35Z</time>
      </trkpt>
      <trkpt lat="44.02115" lon="3.2835">
        <ele>655.1</ele>
        <time>2021-08-14T10:23:37Z</time>
      </trkpt>
      <trkpt lat="44.02114" lon="3.28345">
        <ele>656</ele>
        <time>2021-08-14T10:23:39Z</time>
      </trkpt>
      <trkpt lat="44.02113" lon="3.28341">
        <ele>656.6</ele>
        <time>2021-08-14T10:23:41Z</time>
      </trkpt>
      <trkpt lat="44.02111" lon="3.28337">
        <ele>656.9</ele>
        <time>2021-08-14T10:23:43Z</time>
      </trkpt>
      <trkpt lat="44.0211" lon="3.28332">
        <ele>657.6</ele>
        <time>2021-08-14T10:23:45Z</time>
      </trkpt>
      <trkpt lat="44.02108" lon="3.28328">
        <ele>658.6</ele>
        <time>2021-08-14T10:23:47Z</time>
      </trkpt>
      <trkpt lat="44.02107" lon="3.28323">
        <ele>659.5</ele>
        <time>2021-08-14T10:23:49Z</time>
      </trkpt>
      <trkpt lat="44.02106" lon="3.28319">
        <ele>660.4</ele>
        <time>2021-08-14T10:23:51Z</time>
      </trkpt>
      <trkpt lat="44.02104" lon="3.28315">
        <ele>661</ele>
        <time>2021-08-14T10:23:53Z</time>
      </trkpt>
      <trkpt lat="44.02102" lon="3.28311">
        <ele>661.6</ele>
        <time>2021-08-14T10:23:55Z</time>
      </trkpt>
      <trkpt lat="44.021" lon="3.28307">
        <ele>661.6</ele>
        <time>2021-08-14T10:23:57Z</time>
      </trkpt>
      <trkpt lat="44.02097" lon="3.28304">
        <ele>661.6</ele>
        <time>2021-08-14T10:23:59Z</time>
      </trkpt>
      <trkpt lat="44.02096" lon="3.28299">
        <ele>662.8</ele>
        <time>2021-08-14T10:24:01Z</time>
      </trkpt>
      <trkpt lat="44.02095" lon="3.28295">
        <ele>663.5</ele>
        <time>2021-08-14T10:24:03Z</time>
      </trkpt>
      <trkpt lat="44.02092" lon="3.28292">
        <ele>663.5</ele>
        <time>2021-08-14T10:24:05Z</time>
      </trkpt>
      <trkpt lat="44.0209" lon="3.28289">
        <ele>663.4</ele>
        <time>2021-08-14T10:24:07Z</time>
      </trkpt>
      <trkpt lat="44.02088" lon="3.28285">
        <ele>663.6</ele>
        <time>2021-08-14T10:24:09Z</time>
      </trkpt>
      <trkpt lat="44.02085" lon="3.28283">
        <ele>663.3</ele>
        <time>2021-08-14T10:24:11Z</time>
      </trkpt>
      <trkpt lat="44.02082" lon="3.2828">
        <ele>662.8</ele>
        <time>2021-08-14T10:24:13Z</time>
      </trkpt>
      <trkpt lat="44.02079" lon="3.28279">
        <ele>661.8</ele>
        <time>2021-08-14T10:24:15Z</time>
      </trkpt>
      <trkpt lat="44.02075" lon="3.28279">
        <ele>660.2</ele>
        <time>2021-08-14T10:24:17Z</time>
      </trkpt>
      <trkpt lat="44.02072" lon="3.28278">
        <ele>658.9</ele>
        <time>2021-08-14T10:24:19Z</time>
      </trkpt>
      <trkpt lat="44.0207" lon="3.28276">
        <ele>658.9</ele>
        <time>2021-08-14T10:24:21Z</time>
      </trkpt>
      <trkpt lat="44.02071" lon="3.28276">
        <ele>659.1</ele>
        <time>2021-08-14T10:24:23Z</time>
      </trkpt>
      <trkpt lat="44.02071" lon="3.28276">
        <ele>659.2</ele>
        <time>2021-08-14T10:24:25Z</time>
      </trkpt>
      <trkpt lat="44.02071" lon="3.28276">
        <ele>659.2</ele>
        <time>2021-08-14T10:24:27Z</time>
      </trkpt>
      <trkpt lat="44.02071" lon="3.28276">
        <ele>659.4</ele>
        <time>2021-08-14T10:24:29Z</time>
      </trkpt>
      <trkpt lat="44.02071" lon="3.28276">
        <ele>659.4</ele>
        <time>2021-08-14T10:24:31Z</time>
      </trkpt>
      <trkpt lat="44.02067" lon="3.28258">
        <ele>663.4</ele>
        <time>2021-08-14T10:28:55Z</time>
      </trkpt>
      <trkpt lat="44.02064" lon="3.28255">
        <ele>662.8</ele>
        <time>2021-08-14T10:28:57Z</time>
      </trkpt>
      <trkpt lat="44.02061" lon="3.28252">
        <ele>662.6</ele>
        <time>2021-08-14T10:28:59Z</time>
      </trkpt>
      <trkpt lat="44.02058" lon="3.28249">
        <ele>662.2</ele>
        <time>2021-08-14T10:29:01Z</time>
      </trkpt>
      <trkpt lat="44.02056" lon="3.28246">
        <ele>662</ele>
        <time>2021-08-14T10:29:03Z</time>
      </trkpt>
      <trkpt lat="44.02053" lon="3.28244">
        <ele>661.6</ele>
        <time>2021-08-14T10:29:05Z</time>
      </trkpt>
      <trkpt lat="44.02051" lon="3.28241">
        <ele>661.3</ele>
        <time>2021-08-14T10:29:07Z</time>
      </trkpt>
      <trkpt lat="44.02048" lon="3.28238">
        <ele>661.1</ele>
        <time>2021-08-14T10:29:09Z</time>
      </trkpt>
      <trkpt lat="44.02046" lon="3.28235">
        <ele>661</ele>
        <time>2021-08-14T10:29:11Z</time>
      </trkpt>
      <trkpt lat="44.02044" lon="3.28231">
        <ele>661.1</ele>
        <time>2021-08-14T10:29:13Z</time>
      </trkpt>
      <trkpt lat="44.02042" lon="3.28228">
        <ele>661.1</ele>
        <time>2021-08-14T10:29:15Z</time>
      </trkpt>
      <trkpt lat="44.0204" lon="3.28224">
        <ele>661.4</ele>
        <time>2021-08-14T10:29:17Z</time>
      </trkpt>
      <trkpt lat="44.02038" lon="3.2822">
        <ele>661.4</ele>
        <time>2021-08-14T10:29:19Z</time>
      </trkpt>
      <trkpt lat="44.02035" lon="3.28217">
        <ele>661.2</ele>
        <time>2021-08-14T10:29:21Z</time>
      </trkpt>
      <trkpt lat="44.02033" lon="3.28214">
        <ele>661.4</ele>
        <time>2021-08-14T10:29:23Z</time>
      </trkpt>
      <trkpt lat="44.02031" lon="3.2821">
        <ele>661.4</ele>
        <time>2021-08-14T10:29:25Z</time>
      </trkpt>
      <trkpt lat="44.02029" lon="3.28207">
        <ele>661.2</ele>
        <time>2021-08-14T10:29:27Z</time>
      </trkpt>
      <trkpt lat="44.02027" lon="3.28203">
        <ele>661.6</ele>
        <time>2021-08-14T10:29:29Z</time>
      </trkpt>
      <trkpt lat="44.02025" lon="3.28199">
        <ele>661.7</ele>
        <time>2021-08-14T10:29:31Z</time>
      </trkpt>
      <trkpt lat="44.02023" lon="3.28195">
        <ele>662</ele>
        <time>2021-08-14T10:29:33Z</time>
      </trkpt>
      <trkpt lat="44.02021" lon="3.28191">
        <ele>662</ele>
        <time>2021-08-14T10:29:35Z</time>
      </trkpt>
      <trkpt lat="44.02019" lon="3.28187">
        <ele>662.1</ele>
        <time>2021-08-14T10:29:37Z</time>
      </trkpt>
      <trkpt lat="44.02017" lon="3.28183">
        <ele>662.4</ele>
        <time>2021-08-14T10:29:39Z</time>
      </trkpt>
      <trkpt lat="44.02016" lon="3.2818">
        <ele>662.6</ele>
        <time>2021-08-14T10:29:41Z</time>
      </trkpt>
      <trkpt lat="44.02014" lon="3.28176">
        <ele>662.9</ele>
        <time>2021-08-14T10:29:43Z</time>
      </trkpt>
      <trkpt lat="44.02013" lon="3.28171">
        <ele>663.4</ele>
        <time>2021-08-14T10:29:45Z</time>
      </trkpt>
      <trkpt lat="44.02011" lon="3.28167">
        <ele>663.7</ele>
        <time>2021-08-14T10:29:47Z</time>
      </trkpt>
      <trkpt lat="44.02009" lon="3.28163">
        <ele>663.3</ele>
        <time>2021-08-14T10:29:49Z</time>
      </trkpt>
      <trkpt lat="44.02008" lon="3.28159">
        <ele>662.7</ele>
        <time>2021-08-14T10:29:51Z</time>
      </trkpt>
      <trkpt lat="44.02006" lon="3.28156">
        <ele>662</ele>
        <time>2021-08-14T10:29:53Z</time>
      </trkpt>
      <trkpt lat="44.02005" lon="3.28151">
        <ele>661.8</ele>
        <time>2021-08-14T10:29:55Z</time>
      </trkpt>
      <trkpt lat="44.02005" lon="3.28146">
        <ele>662</ele>
        <time>2021-08-14T10:29:57Z</time>
      </trkpt>
      <trkpt lat="44.02004" lon="3.28142">
        <ele>661.5</ele>
        <time>2021-08-14T10:29:59Z</time>
      </trkpt>
      <trkpt lat="44.02003" lon="3.28138">
        <ele>661.7</ele>
        <time>2021-08-14T10:30:01Z</time>
      </trkpt>
      <trkpt lat="44.02002" lon="3.28133">
        <ele>661.4</ele>
        <time>2021-08-14T10:30:03Z</time>
      </trkpt>
      <trkpt lat="44.02002" lon="3.28129">
        <ele>661.6</ele>
        <time>2021-08-14T10:30:05Z</time>
      </trkpt>
      <trkpt lat="44.02002" lon="3.28124">
        <ele>661.8</ele>
        <time>2021-08-14T10:30:07Z</time>
      </trkpt>
      <trkpt lat="44.02002" lon="3.2812">
        <ele>662.1</ele>
        <time>2021-08-14T10:30:09Z</time>
      </trkpt>
      <trkpt lat="44.02002" lon="3.28115">
        <ele>662.5</ele>
        <time>2021-08-14T10:30:11Z</time>
      </trkpt>
      <trkpt lat="44.02002" lon="3.28111">
        <ele>662.7</ele>
        <time>2021-08-14T10:30:13Z</time>
      </trkpt>
      <trkpt lat="44.02002" lon="3.28106">
        <ele>662.9</ele>
        <time>2021-08-14T10:30:15Z</time>
      </trkpt>
      <trkpt lat="44.02002" lon="3.28101">
        <ele>663.3</ele>
        <time>2021-08-14T10:30:17Z</time>
      </trkpt>
      <trkpt lat="44.02003" lon="3.28097">
        <ele>664.2</ele>
        <time>2021-08-14T10:30:19Z</time>
      </trkpt>
      <trkpt lat="44.02004" lon="3.28092">
        <ele>665.3</ele>
        <time>2021-08-14T10:30:21Z</time>
      </trkpt>
      <trkpt lat="44.02005" lon="3.28087">
        <ele>665.8</ele>
        <time>2021-08-14T10:30:23Z</time>
      </trkpt>
      <trkpt lat="44.02006" lon="3.28082">
        <ele>666.7</ele>
        <time>2021-08-14T10:30:25Z</time>
      </trkpt>
      <trkpt lat="44.02007" lon="3.28077">
        <ele>666.8</ele>
        <time>2021-08-14T10:30:27Z</time>
      </trkpt>
      <trkpt lat="44.02008" lon="3.28073">
        <ele>666.9</ele>
        <time>2021-08-14T10:30:29Z</time>
      </trkpt>
      <trkpt lat="44.02009" lon="3.28069">
        <ele>666.9</ele>
        <time>2021-08-14T10:30:31Z</time>
      </trkpt>
      <trkpt lat="44.0201" lon="3.28065">
        <ele>667.5</ele>
        <time>2021-08-14T10:30:33Z</time>
      </trkpt>
      <trkpt lat="44.02011" lon="3.2806">
        <ele>667.7</ele>
        <time>2021-08-14T10:30:35Z</time>
      </trkpt>
      <trkpt lat="44.02013" lon="3.28057">
        <ele>668.4</ele>
        <time>2021-08-14T10:30:37Z</time>
      </trkpt>
      <trkpt lat="44.02014" lon="3.28052">
        <ele>668.8</ele>
        <time>2021-08-14T10:30:39Z</time>
      </trkpt>
      <trkpt lat="44.02016" lon="3.28048">
        <ele>669.5</ele>
        <time>2021-08-14T10:30:41Z</time>
      </trkpt>
      <trkpt lat="44.02017" lon="3.28044">
        <ele>669.9</ele>
        <time>2021-08-14T10:30:43Z</time>
      </trkpt>
      <trkpt lat="44.02019" lon="3.2804">
        <ele>670.5</ele>
        <time>2021-08-14T10:30:45Z</time>
      </trkpt>
      <trkpt lat="44.0202" lon="3.28035">
        <ele>670.7</ele>
        <time>2021-08-14T10:30:47Z</time>
      </trkpt>
      <trkpt lat="44.02021" lon="3.28031">
        <ele>671.4</ele>
        <time>2021-08-14T10:30:49Z</time>
      </trkpt>
      <trkpt lat="44.02023" lon="3.28026">
        <ele>672.1</ele>
        <time>2021-08-14T10:30:51Z</time>
      </trkpt>
      <trkpt lat="44.02025" lon="3.28022">
        <ele>672.7</ele>
        <time>2021-08-14T10:30:53Z</time>
      </trkpt>
      <trkpt lat="44.02026" lon="3.28018">
        <ele>673.2</ele>
        <time>2021-08-14T10:30:55Z</time>
      </trkpt>
      <trkpt lat="44.02027" lon="3.28013">
        <ele>673.8</ele>
        <time>2021-08-14T10:30:57Z</time>
      </trkpt>
      <trkpt lat="44.02029" lon="3.28009">
        <ele>674.3</ele>
        <time>2021-08-14T10:30:59Z</time>
      </trkpt>
      <trkpt lat="44.0203" lon="3.28005">
        <ele>674.8</ele>
        <time>2021-08-14T10:31:01Z</time>
      </trkpt>
      <trkpt lat="44.02031" lon="3.28001">
        <ele>675.2</ele>
        <time>2021-08-14T10:31:03Z</time>
      </trkpt>
      <trkpt lat="44.02032" lon="3.27996">
        <ele>675.6</ele>
        <time>2021-08-14T10:31:05Z</time>
      </trkpt>
      <trkpt lat="44.02033" lon="3.27991">
        <ele>676.2</ele>
        <time>2021-08-14T10:31:07Z</time>
      </trkpt>
      <trkpt lat="44.02034" lon="3.27987">
        <ele>676.3</ele>
        <time>2021-08-14T10:31:09Z</time>
      </trkpt>
      <trkpt lat="44.02035" lon="3.27982">
        <ele>676.7</ele>
        <time>2021-08-14T10:31:11Z</time>
      </trkpt>
      <trkpt lat="44.02036" lon="3.27978">
        <ele>676.9</ele>
        <time>2021-08-14T10:31:13Z</time>
      </trkpt>
      <trkpt lat="44.02038" lon="3.27974">
        <ele>677.5</ele>
        <time>2021-08-14T10:31:15Z</time>
      </trkpt>
      <trkpt lat="44.02039" lon="3.27969">
        <ele>678</ele>
        <time>2021-08-14T10:31:17Z</time>
      </trkpt>
      <trkpt lat="44.0204" lon="3.27965">
        <ele>678.1</ele>
        <time>2021-08-14T10:31:19Z</time>
      </trkpt>
      <trkpt lat="44.02041" lon="3.2796">
        <ele>678.8</ele>
        <time>2021-08-14T10:31:21Z</time>
      </trkpt>
      <trkpt lat="44.02042" lon="3.27956">
        <ele>678.9</ele>
        <time>2021-08-14T10:31:23Z</time>
      </trkpt>
      <trkpt lat="44.02043" lon="3.27951">
        <ele>679.3</ele>
        <time>2021-08-14T10:31:25Z</time>
      </trkpt>
      <trkpt lat="44.02045" lon="3.27947">
        <ele>679.6</ele>
        <time>2021-08-14T10:31:27Z</time>
      </trkpt>
      <trkpt lat="44.02046" lon="3.27942">
        <ele>680</ele>
        <time>2021-08-14T10:31:29Z</time>
      </trkpt>
      <trkpt lat="44.02047" lon="3.27938">
        <ele>680.3</ele>
        <time>2021-08-14T10:31:31Z</time>
      </trkpt>
      <trkpt lat="44.02048" lon="3.27934">
        <ele>680.9</ele>
        <time>2021-08-14T10:31:33Z</time>
      </trkpt>
      <trkpt lat="44.02049" lon="3.27929">
        <ele>681.1</ele>
        <time>2021-08-14T10:31:35Z</time>
      </trkpt>
      <trkpt lat="44.02051" lon="3.27925">
        <ele>681.6</ele>
        <time>2021-08-14T10:31:37Z</time>
      </trkpt>
      <trkpt lat="44.02052" lon="3.27921">
        <ele>681.9</ele>
        <time>2021-08-14T10:31:39Z</time>
      </trkpt>
      <trkpt lat="44.02054" lon="3.27916">
        <ele>682.5</ele>
        <time>2021-08-14T10:31:41Z</time>
      </trkpt>
      <trkpt lat="44.02055" lon="3.27912">
        <ele>682.7</ele>
        <time>2021-08-14T10:31:43Z</time>
      </trkpt>
      <trkpt lat="44.02057" lon="3.27907">
        <ele>682.8</ele>
        <time>2021-08-14T10:31:45Z</time>
      </trkpt>
      <trkpt lat="44.02058" lon="3.27903">
        <ele>683</ele>
        <time>2021-08-14T10:31:47Z</time>
      </trkpt>
      <trkpt lat="44.0206" lon="3.27899">
        <ele>683</ele>
        <time>2021-08-14T10:31:49Z</time>
      </trkpt>
      <trkpt lat="44.02061" lon="3.27895">
        <ele>683.2</ele>
        <time>2021-08-14T10:31:51Z</time>
      </trkpt>
      <trkpt lat="44.02064" lon="3.27891">
        <ele>683.9</ele>
        <time>2021-08-14T10:31:53Z</time>
      </trkpt>
      <trkpt lat="44.02065" lon="3.27887">
        <ele>684</ele>
        <time>2021-08-14T10:31:55Z</time>
      </trkpt>
      <trkpt lat="44.02067" lon="3.27883">
        <ele>684.1</ele>
        <time>2021-08-14T10:31:57Z</time>
      </trkpt>
      <trkpt lat="44.02069" lon="3.27879">
        <ele>684.5</ele>
        <time>2021-08-14T10:31:59Z</time>
      </trkpt>
      <trkpt lat="44.0207" lon="3.27874">
        <ele>684.6</ele>
        <time>2021-08-14T10:32:01Z</time>
      </trkpt>
      <trkpt lat="44.02072" lon="3.2787">
        <ele>684.5</ele>
        <time>2021-08-14T10:32:03Z</time>
      </trkpt>
      <trkpt lat="44.02074" lon="3.27866">
        <ele>684.7</ele>
        <time>2021-08-14T10:32:05Z</time>
      </trkpt>
      <trkpt lat="44.02075" lon="3.27862">
        <ele>684.9</ele>
        <time>2021-08-14T10:32:07Z</time>
      </trkpt>
      <trkpt lat="44.02077" lon="3.27858">
        <ele>685</ele>
        <time>2021-08-14T10:32:09Z</time>
      </trkpt>
      <trkpt lat="44.02078" lon="3.27854">
        <ele>685.1</ele>
        <time>2021-08-14T10:32:11Z</time>
      </trkpt>
      <trkpt lat="44.0208" lon="3.2785">
        <ele>685.2</ele>
        <time>2021-08-14T10:32:13Z</time>
      </trkpt>
      <trkpt lat="44.02082" lon="3.27846">
        <ele>685.4</ele>
        <time>2021-08-14T10:32:15Z</time>
      </trkpt>
      <trkpt lat="44.02084" lon="3.27842">
        <ele>685.7</ele>
        <time>2021-08-14T10:32:17Z</time>
      </trkpt>
      <trkpt lat="44.02086" lon="3.27838">
        <ele>685.8</ele>
        <time>2021-08-14T10:32:19Z</time>
      </trkpt>
      <trkpt lat="44.02088" lon="3.27833">
        <ele>685.9</ele>
        <time>2021-08-14T10:32:21Z</time>
      </trkpt>
      <trkpt lat="44.02089" lon="3.27829">
        <ele>685.8</ele>
        <time>2021-08-14T10:32:23Z</time>
      </trkpt>
      <trkpt lat="44.02091" lon="3.27825">
        <ele>685.9</ele>
        <time>2021-08-14T10:32:25Z</time>
      </trkpt>
      <trkpt lat="44.02093" lon="3.27821">
        <ele>685.9</ele>
        <time>2021-08-14T10:32:27Z</time>
      </trkpt>
      <trkpt lat="44.02095" lon="3.27817">
        <ele>686</ele>
        <time>2021-08-14T10:32:29Z</time>
      </trkpt>
      <trkpt lat="44.02096" lon="3.27813">
        <ele>686</ele>
        <time>2021-08-14T10:32:31Z</time>
      </trkpt>
      <trkpt lat="44.02098" lon="3.27809">
        <ele>686.1</ele>
        <time>2021-08-14T10:32:33Z</time>
      </trkpt>
      <trkpt lat="44.021" lon="3.27805">
        <ele>685.8</ele>
        <time>2021-08-14T10:32:35Z</time>
      </trkpt>
      <trkpt lat="44.02101" lon="3.27801">
        <ele>686</ele>
        <time>2021-08-14T10:32:37Z</time>
      </trkpt>
      <trkpt lat="44.02103" lon="3.27796">
        <ele>686.2</ele>
        <time>2021-08-14T10:32:39Z</time>
      </trkpt>
      <trkpt lat="44.02105" lon="3.27793">
        <ele>686.3</ele>
        <time>2021-08-14T10:32:41Z</time>
      </trkpt>
      <trkpt lat="44.02107" lon="3.27788">
        <ele>686.3</ele>
        <time>2021-08-14T10:32:43Z</time>
      </trkpt>
      <trkpt lat="44.02108" lon="3.27784">
        <ele>686.2</ele>
        <time>2021-08-14T10:32:45Z</time>
      </trkpt>
      <trkpt lat="44.02109" lon="3.2778">
        <ele>686</ele>
        <time>2021-08-14T10:32:47Z</time>
      </trkpt>
      <trkpt lat="44.02111" lon="3.27776">
        <ele>686.1</ele>
        <time>2021-08-14T10:32:49Z</time>
      </trkpt>
      <trkpt lat="44.02113" lon="3.27772">
        <ele>686</ele>
        <time>2021-08-14T10:32:51Z</time>
      </trkpt>
      <trkpt lat="44.02114" lon="3.27768">
        <ele>686.1</ele>
        <time>2021-08-14T10:32:53Z</time>
      </trkpt>
      <trkpt lat="44.02116" lon="3.27764">
        <ele>686.2</ele>
        <time>2021-08-14T10:32:55Z</time>
      </trkpt>
      <trkpt lat="44.02117" lon="3.2776">
        <ele>685.9</ele>
        <time>2021-08-14T10:32:57Z</time>
      </trkpt>
      <trkpt lat="44.02118" lon="3.27755">
        <ele>685.8</ele>
        <time>2021-08-14T10:32:59Z</time>
      </trkpt>
      <trkpt lat="44.0212" lon="3.27751">
        <ele>685.7</ele>
        <time>2021-08-14T10:33:01Z</time>
      </trkpt>
      <trkpt lat="44.02121" lon="3.27746">
        <ele>685.5</ele>
        <time>2021-08-14T10:33:03Z</time>
      </trkpt>
      <trkpt lat="44.02123" lon="3.27742">
        <ele>685.4</ele>
        <time>2021-08-14T10:33:05Z</time>
      </trkpt>
      <trkpt lat="44.02124" lon="3.27738">
        <ele>685.6</ele>
        <time>2021-08-14T10:33:07Z</time>
      </trkpt>
      <trkpt lat="44.02125" lon="3.27733">
        <ele>685.2</ele>
        <time>2021-08-14T10:33:09Z</time>
      </trkpt>
      <trkpt lat="44.02127" lon="3.27729">
        <ele>685</ele>
        <time>2021-08-14T10:33:11Z</time>
      </trkpt>
      <trkpt lat="44.02128" lon="3.27725">
        <ele>685.1</ele>
        <time>2021-08-14T10:33:13Z</time>
      </trkpt>
      <trkpt lat="44.0213" lon="3.2772">
        <ele>684.9</ele>
        <time>2021-08-14T10:33:15Z</time>
      </trkpt>
      <trkpt lat="44.02131" lon="3.27716">
        <ele>684.8</ele>
        <time>2021-08-14T10:33:17Z</time>
      </trkpt>
      <trkpt lat="44.02133" lon="3.27712">
        <ele>684.6</ele>
        <time>2021-08-14T10:33:19Z</time>
      </trkpt>
      <trkpt lat="44.02134" lon="3.27708">
        <ele>684.4</ele>
        <time>2021-08-14T10:33:21Z</time>
      </trkpt>
      <trkpt lat="44.02136" lon="3.27703">
        <ele>684.7</ele>
        <time>2021-08-14T10:33:23Z</time>
      </trkpt>
      <trkpt lat="44.02138" lon="3.27699">
        <ele>684.7</ele>
        <time>2021-08-14T10:33:25Z</time>
      </trkpt>
      <trkpt lat="44.0214" lon="3.27695">
        <ele>684.7</ele>
        <time>2021-08-14T10:33:27Z</time>
      </trkpt>
      <trkpt lat="44.02142" lon="3.27691">
        <ele>685</ele>
        <time>2021-08-14T10:33:29Z</time>
      </trkpt>
      <trkpt lat="44.02145" lon="3.27687">
        <ele>685.2</ele>
        <time>2021-08-14T10:33:31Z</time>
      </trkpt>
      <trkpt lat="44.02147" lon="3.27684">
        <ele>685.5</ele>
        <time>2021-08-14T10:33:33Z</time>
      </trkpt>
      <trkpt lat="44.0215" lon="3.2768">
        <ele>685.9</ele>
        <time>2021-08-14T10:33:35Z</time>
      </trkpt>
      <trkpt lat="44.02152" lon="3.27677">
        <ele>686.2</ele>
        <time>2021-08-14T10:33:37Z</time>
      </trkpt>
      <trkpt lat="44.02155" lon="3.27673">
        <ele>686.6</ele>
        <time>2021-08-14T10:33:39Z</time>
      </trkpt>
      <trkpt lat="44.02157" lon="3.2767">
        <ele>687.1</ele>
        <time>2021-08-14T10:33:41Z</time>
      </trkpt>
      <trkpt lat="44.0216" lon="3.27667">
        <ele>687.6</ele>
        <time>2021-08-14T10:33:43Z</time>
      </trkpt>
      <trkpt lat="44.02163" lon="3.27664">
        <ele>688.2</ele>
        <time>2021-08-14T10:33:45Z</time>
      </trkpt>
      <trkpt lat="44.02166" lon="3.27661">
        <ele>688.7</ele>
        <time>2021-08-14T10:33:47Z</time>
      </trkpt>
      <trkpt lat="44.02169" lon="3.27659">
        <ele>688.5</ele>
        <time>2021-08-14T10:33:49Z</time>
      </trkpt>
      <trkpt lat="44.02173" lon="3.27657">
        <ele>688.6</ele>
        <time>2021-08-14T10:33:51Z</time>
      </trkpt>
      <trkpt lat="44.02175" lon="3.27655">
        <ele>688.6</ele>
        <time>2021-08-14T10:33:53Z</time>
      </trkpt>
      <trkpt lat="44.02179" lon="3.27653">
        <ele>688.7</ele>
        <time>2021-08-14T10:33:55Z</time>
      </trkpt>
      <trkpt lat="44.02182" lon="3.27653">
        <ele>689.3</ele>
        <time>2021-08-14T10:33:57Z</time>
      </trkpt>
      <trkpt lat="44.02185" lon="3.27652">
        <ele>689.8</ele>
        <time>2021-08-14T10:33:59Z</time>
      </trkpt>
      <trkpt lat="44.02189" lon="3.27652">
        <ele>690.5</ele>
        <time>2021-08-14T10:34:01Z</time>
      </trkpt>
      <trkpt lat="44.02192" lon="3.27653">
        <ele>691.6</ele>
        <time>2021-08-14T10:34:03Z</time>
      </trkpt>
      <trkpt lat="44.02196" lon="3.27653">
        <ele>692.3</ele>
        <time>2021-08-14T10:34:05Z</time>
      </trkpt>
      <trkpt lat="44.02199" lon="3.27654">
        <ele>693.3</ele>
        <time>2021-08-14T10:34:07Z</time>
      </trkpt>
      <trkpt lat="44.02202" lon="3.27655">
        <ele>694.5</ele>
        <time>2021-08-14T10:34:09Z</time>
      </trkpt>
      <trkpt lat="44.02205" lon="3.27656">
        <ele>695.5</ele>
        <time>2021-08-14T10:34:11Z</time>
      </trkpt>
      <trkpt lat="44.02209" lon="3.27657">
        <ele>696.6</ele>
        <time>2021-08-14T10:34:13Z</time>
      </trkpt>
      <trkpt lat="44.02212" lon="3.27659">
        <ele>697.8</ele>
        <time>2021-08-14T10:34:15Z</time>
      </trkpt>
      <trkpt lat="44.02216" lon="3.2766">
        <ele>699</ele>
        <time>2021-08-14T10:34:17Z</time>
      </trkpt>
      <trkpt lat="44.02219" lon="3.27661">
        <ele>700</ele>
        <time>2021-08-14T10:34:19Z</time>
      </trkpt>
      <trkpt lat="44.02222" lon="3.27663">
        <ele>701.2</ele>
        <time>2021-08-14T10:34:21Z</time>
      </trkpt>
      <trkpt lat="44.02226" lon="3.27664">
        <ele>702.3</ele>
        <time>2021-08-14T10:34:23Z</time>
      </trkpt>
      <trkpt lat="44.02229" lon="3.27665">
        <ele>703.2</ele>
        <time>2021-08-14T10:34:25Z</time>
      </trkpt>
      <trkpt lat="44.02232" lon="3.27666">
        <ele>704</ele>
        <time>2021-08-14T10:34:27Z</time>
      </trkpt>
      <trkpt lat="44.02236" lon="3.27667">
        <ele>705.2</ele>
        <time>2021-08-14T10:34:29Z</time>
      </trkpt>
      <trkpt lat="44.02239" lon="3.27667">
        <ele>705.9</ele>
        <time>2021-08-14T10:34:31Z</time>
      </trkpt>
      <trkpt lat="44.02243" lon="3.27667">
        <ele>706.5</ele>
        <time>2021-08-14T10:34:33Z</time>
      </trkpt>
      <trkpt lat="44.02246" lon="3.27666">
        <ele>707.2</ele>
        <time>2021-08-14T10:34:35Z</time>
      </trkpt>
      <trkpt lat="44.0225" lon="3.27666">
        <ele>707.8</ele>
        <time>2021-08-14T10:34:37Z</time>
      </trkpt>
      <trkpt lat="44.02253" lon="3.27665">
        <ele>709.1</ele>
        <time>2021-08-14T10:34:39Z</time>
      </trkpt>
      <trkpt lat="44.02257" lon="3.27664">
        <ele>710.4</ele>
        <time>2021-08-14T10:34:41Z</time>
      </trkpt>
      <trkpt lat="44.0226" lon="3.27663">
        <ele>711.8</ele>
        <time>2021-08-14T10:34:43Z</time>
      </trkpt>
      <trkpt lat="44.02263" lon="3.27661">
        <ele>712.8</ele>
        <time>2021-08-14T10:34:45Z</time>
      </trkpt>
      <trkpt lat="44.02267" lon="3.27659">
        <ele>714</ele>
        <time>2021-08-14T10:34:47Z</time>
      </trkpt>
      <trkpt lat="44.02269" lon="3.27656">
        <ele>714.6</ele>
        <time>2021-08-14T10:34:49Z</time>
      </trkpt>
      <trkpt lat="44.02272" lon="3.27653">
        <ele>715.2</ele>
        <time>2021-08-14T10:34:51Z</time>
      </trkpt>
      <trkpt lat="44.02274" lon="3.27649">
        <ele>715.6</ele>
        <time>2021-08-14T10:34:53Z</time>
      </trkpt>
      <trkpt lat="44.02276" lon="3.27646">
        <ele>716</ele>
        <time>2021-08-14T10:34:55Z</time>
      </trkpt>
      <trkpt lat="44.02279" lon="3.27643">
        <ele>716.4</ele>
        <time>2021-08-14T10:34:57Z</time>
      </trkpt>
      <trkpt lat="44.02281" lon="3.27639">
        <ele>716.6</ele>
        <time>2021-08-14T10:34:59Z</time>
      </trkpt>
      <trkpt lat="44.02283" lon="3.27635">
        <ele>716.9</ele>
        <time>2021-08-14T10:35:01Z</time>
      </trkpt>
      <trkpt lat="44.02284" lon="3.27631">
        <ele>716.9</ele>
        <time>2021-08-14T10:35:03Z</time>
      </trkpt>
      <trkpt lat="44.02286" lon="3.27627">
        <ele>716.7</ele>
        <time>2021-08-14T10:35:05Z</time>
      </trkpt>
      <trkpt lat="44.02287" lon="3.27622">
        <ele>716.5</ele>
        <time>2021-08-14T10:35:07Z</time>
      </trkpt>
      <trkpt lat="44.02288" lon="3.27617">
        <ele>716.3</ele>
        <time>2021-08-14T10:35:09Z</time>
      </trkpt>
      <trkpt lat="44.0229" lon="3.27613">
        <ele>716.1</ele>
        <time>2021-08-14T10:35:11Z</time>
      </trkpt>
      <trkpt lat="44.02291" lon="3.27609">
        <ele>716.3</ele>
        <time>2021-08-14T10:35:13Z</time>
      </trkpt>
      <trkpt lat="44.02293" lon="3.27605">
        <ele>716.1</ele>
        <time>2021-08-14T10:35:15Z</time>
      </trkpt>
      <trkpt lat="44.02294" lon="3.27601">
        <ele>716.1</ele>
        <time>2021-08-14T10:35:17Z</time>
      </trkpt>
      <trkpt lat="44.02294" lon="3.27596">
        <ele>715.5</ele>
        <time>2021-08-14T10:35:19Z</time>
      </trkpt>
      <trkpt lat="44.02296" lon="3.27592">
        <ele>715.4</ele>
        <time>2021-08-14T10:35:21Z</time>
      </trkpt>
      <trkpt lat="44.02297" lon="3.27588">
        <ele>715.1</ele>
        <time>2021-08-14T10:35:23Z</time>
      </trkpt>
      <trkpt lat="44.02297" lon="3.27583">
        <ele>714.7</ele>
        <time>2021-08-14T10:35:25Z</time>
      </trkpt>
      <trkpt lat="44.02298" lon="3.27578">
        <ele>715</ele>
        <time>2021-08-14T10:35:27Z</time>
      </trkpt>
      <trkpt lat="44.02299" lon="3.27574">
        <ele>715.4</ele>
        <time>2021-08-14T10:35:29Z</time>
      </trkpt>
      <trkpt lat="44.02299" lon="3.2757">
        <ele>715.5</ele>
        <time>2021-08-14T10:35:31Z</time>
      </trkpt>
      <trkpt lat="44.02299" lon="3.27566">
        <ele>715.4</ele>
        <time>2021-08-14T10:35:33Z</time>
      </trkpt>
      <trkpt lat="44.02299" lon="3.27561">
        <ele>715.3</ele>
        <time>2021-08-14T10:35:35Z</time>
      </trkpt>
      <trkpt lat="44.023" lon="3.27557">
        <ele>715.5</ele>
        <time>2021-08-14T10:35:37Z</time>
      </trkpt>
      <trkpt lat="44.023" lon="3.27552">
        <ele>715.4</ele>
        <time>2021-08-14T10:35:39Z</time>
      </trkpt>
      <trkpt lat="44.023" lon="3.27547">
        <ele>715.1</ele>
        <time>2021-08-14T10:35:41Z</time>
      </trkpt>
      <trkpt lat="44.02299" lon="3.27542">
        <ele>714.6</ele>
        <time>2021-08-14T10:35:43Z</time>
      </trkpt>
      <trkpt lat="44.02299" lon="3.27538">
        <ele>714.4</ele>
        <time>2021-08-14T10:35:45Z</time>
      </trkpt>
      <trkpt lat="44.02298" lon="3.27533">
        <ele>714</ele>
        <time>2021-08-14T10:35:47Z</time>
      </trkpt>
      <trkpt lat="44.02298" lon="3.27528">
        <ele>713.7</ele>
        <time>2021-08-14T10:35:49Z</time>
      </trkpt>
      <trkpt lat="44.02297" lon="3.27524">
        <ele>713.2</ele>
        <time>2021-08-14T10:35:51Z</time>
      </trkpt>
      <trkpt lat="44.02297" lon="3.27519">
        <ele>713</ele>
        <time>2021-08-14T10:35:53Z</time>
      </trkpt>
      <trkpt lat="44.02297" lon="3.27515">
        <ele>712.6</ele>
        <time>2021-08-14T10:35:55Z</time>
      </trkpt>
      <trkpt lat="44.02297" lon="3.2751">
        <ele>712.3</ele>
        <time>2021-08-14T10:35:57Z</time>
      </trkpt>
      <trkpt lat="44.02296" lon="3.27506">
        <ele>711.9</ele>
        <time>2021-08-14T10:35:59Z</time>
      </trkpt>
      <trkpt lat="44.02296" lon="3.27501">
        <ele>711.7</ele>
        <time>2021-08-14T10:36:01Z</time>
      </trkpt>
      <trkpt lat="44.02296" lon="3.27497">
        <ele>711.5</ele>
        <time>2021-08-14T10:36:03Z</time>
      </trkpt>
      <trkpt lat="44.02296" lon="3.27492">
        <ele>711.1</ele>
        <time>2021-08-14T10:36:05Z</time>
      </trkpt>
      <trkpt lat="44.02295" lon="3.27488">
        <ele>710.5</ele>
        <time>2021-08-14T10:36:07Z</time>
      </trkpt>
      <trkpt lat="44.02295" lon="3.27483">
        <ele>710.1</ele>
        <time>2021-08-14T10:36:09Z</time>
      </trkpt>
      <trkpt lat="44.02295" lon="3.27479">
        <ele>709.9</ele>
        <time>2021-08-14T10:36:11Z</time>
      </trkpt>
      <trkpt lat="44.02295" lon="3.27474">
        <ele>709.7</ele>
        <time>2021-08-14T10:36:13Z</time>
      </trkpt>
      <trkpt lat="44.02295" lon="3.27469">
        <ele>709.5</ele>
        <time>2021-08-14T10:36:15Z</time>
      </trkpt>
      <trkpt lat="44.02296" lon="3.27465">
        <ele>709.6</ele>
        <time>2021-08-14T10:36:17Z</time>
      </trkpt>
      <trkpt lat="44.02296" lon="3.2746">
        <ele>709.6</ele>
        <time>2021-08-14T10:36:19Z</time>
      </trkpt>
      <trkpt lat="44.02296" lon="3.27455">
        <ele>709.5</ele>
        <time>2021-08-14T10:36:21Z</time>
      </trkpt>
      <trkpt lat="44.02297" lon="3.27451">
        <ele>709.8</ele>
        <time>2021-08-14T10:36:23Z</time>
      </trkpt>
      <trkpt lat="44.02298" lon="3.27447">
        <ele>710.3</ele>
        <time>2021-08-14T10:36:25Z</time>
      </trkpt>
      <trkpt lat="44.02299" lon="3.27442">
        <ele>710.3</ele>
        <time>2021-08-14T10:36:27Z</time>
      </trkpt>
      <trkpt lat="44.023" lon="3.27438">
        <ele>710.7</ele>
        <time>2021-08-14T10:36:29Z</time>
      </trkpt>
      <trkpt lat="44.02302" lon="3.27434">
        <ele>711.7</ele>
        <time>2021-08-14T10:36:31Z</time>
      </trkpt>
      <trkpt lat="44.02303" lon="3.27429">
        <ele>712.4</ele>
        <time>2021-08-14T10:36:33Z</time>
      </trkpt>
      <trkpt lat="44.02305" lon="3.27425">
        <ele>713.2</ele>
        <time>2021-08-14T10:36:35Z</time>
      </trkpt>
      <trkpt lat="44.02306" lon="3.27421">
        <ele>713.9</ele>
        <time>2021-08-14T10:36:37Z</time>
      </trkpt>
      <trkpt lat="44.02308" lon="3.27417">
        <ele>714.7</ele>
        <time>2021-08-14T10:36:39Z</time>
      </trkpt>
      <trkpt lat="44.02309" lon="3.27413">
        <ele>714.7</ele>
        <time>2021-08-14T10:36:41Z</time>
      </trkpt>
      <trkpt lat="44.02311" lon="3.27409">
        <ele>714.8</ele>
        <time>2021-08-14T10:36:43Z</time>
      </trkpt>
      <trkpt lat="44.02313" lon="3.27405">
        <ele>714.8</ele>
        <time>2021-08-14T10:36:45Z</time>
      </trkpt>
      <trkpt lat="44.02314" lon="3.27401">
        <ele>714.6</ele>
        <time>2021-08-14T10:36:47Z</time>
      </trkpt>
      <trkpt lat="44.02315" lon="3.27397">
        <ele>714.5</ele>
        <time>2021-08-14T10:36:49Z</time>
      </trkpt>
      <trkpt lat="44.02317" lon="3.27393">
        <ele>714.6</ele>
        <time>2021-08-14T10:36:51Z</time>
      </trkpt>
      <trkpt lat="44.02319" lon="3.2739">
        <ele>715</ele>
        <time>2021-08-14T10:36:53Z</time>
      </trkpt>
      <trkpt lat="44.02321" lon="3.27386">
        <ele>715.3</ele>
        <time>2021-08-14T10:36:55Z</time>
      </trkpt>
      <trkpt lat="44.02323" lon="3.27383">
        <ele>715.6</ele>
        <time>2021-08-14T10:36:57Z</time>
      </trkpt>
      <trkpt lat="44.02325" lon="3.27379">
        <ele>715.7</ele>
        <time>2021-08-14T10:36:59Z</time>
      </trkpt>
      <trkpt lat="44.02328" lon="3.27375">
        <ele>716</ele>
        <time>2021-08-14T10:37:01Z</time>
      </trkpt>
      <trkpt lat="44.02329" lon="3.27371">
        <ele>716.1</ele>
        <time>2021-08-14T10:37:03Z</time>
      </trkpt>
      <trkpt lat="44.02331" lon="3.27367">
        <ele>716.2</ele>
        <time>2021-08-14T10:37:05Z</time>
      </trkpt>
      <trkpt lat="44.02333" lon="3.27364">
        <ele>716.4</ele>
        <time>2021-08-14T10:37:07Z</time>
      </trkpt>
      <trkpt lat="44.02336" lon="3.2736">
        <ele>716.5</ele>
        <time>2021-08-14T10:37:09Z</time>
      </trkpt>
      <trkpt lat="44.02338" lon="3.27356">
        <ele>716.3</ele>
        <time>2021-08-14T10:37:11Z</time>
      </trkpt>
      <trkpt lat="44.0234" lon="3.27353">
        <ele>716.5</ele>
        <time>2021-08-14T10:37:13Z</time>
      </trkpt>
      <trkpt lat="44.02342" lon="3.27349">
        <ele>716.3</ele>
        <time>2021-08-14T10:37:15Z</time>
      </trkpt>
      <trkpt lat="44.02345" lon="3.27347">
        <ele>716.7</ele>
        <time>2021-08-14T10:37:17Z</time>
      </trkpt>
      <trkpt lat="44.02347" lon="3.27344">
        <ele>717.1</ele>
        <time>2021-08-14T10:37:19Z</time>
      </trkpt>
      <trkpt lat="44.0235" lon="3.27341">
        <ele>717.1</ele>
        <time>2021-08-14T10:37:21Z</time>
      </trkpt>
      <trkpt lat="44.02352" lon="3.27338">
        <ele>717.4</ele>
        <time>2021-08-14T10:37:23Z</time>
      </trkpt>
      <trkpt lat="44.02355" lon="3.27336">
        <ele>717.6</ele>
        <time>2021-08-14T10:37:25Z</time>
      </trkpt>
      <trkpt lat="44.02357" lon="3.27333">
        <ele>717.8</ele>
        <time>2021-08-14T10:37:27Z</time>
      </trkpt>
      <trkpt lat="44.0236" lon="3.2733">
        <ele>718.2</ele>
        <time>2021-08-14T10:37:29Z</time>
      </trkpt>
      <trkpt lat="44.02363" lon="3.27328">
        <ele>718.7</ele>
        <time>2021-08-14T10:37:31Z</time>
      </trkpt>
      <trkpt lat="44.02365" lon="3.27325">
        <ele>718.9</ele>
        <time>2021-08-14T10:37:33Z</time>
      </trkpt>
      <trkpt lat="44.02368" lon="3.27323">
        <ele>719.5</ele>
        <time>2021-08-14T10:37:35Z</time>
      </trkpt>
      <trkpt lat="44.02371" lon="3.27321">
        <ele>720.3</ele>
        <time>2021-08-14T10:37:37Z</time>
      </trkpt>
      <trkpt lat="44.02374" lon="3.27319">
        <ele>721.2</ele>
        <time>2021-08-14T10:37:39Z</time>
      </trkpt>
      <trkpt lat="44.02378" lon="3.27318">
        <ele>722.2</ele>
        <time>2021-08-14T10:37:41Z</time>
      </trkpt>
      <trkpt lat="44.0238" lon="3.27316">
        <ele>722.8</ele>
        <time>2021-08-14T10:37:43Z</time>
      </trkpt>
      <trkpt lat="44.02383" lon="3.27314">
        <ele>723.4</ele>
        <time>2021-08-14T10:37:45Z</time>
      </trkpt>
      <trkpt lat="44.02386" lon="3.27313">
        <ele>724.4</ele>
        <time>2021-08-14T10:37:47Z</time>
      </trkpt>
      <trkpt lat="44.02389" lon="3.27311">
        <ele>725.2</ele>
        <time>2021-08-14T10:37:49Z</time>
      </trkpt>
      <trkpt lat="44.02392" lon="3.2731">
        <ele>726.1</ele>
        <time>2021-08-14T10:37:51Z</time>
      </trkpt>
      <trkpt lat="44.02395" lon="3.27308">
        <ele>726.9</ele>
        <time>2021-08-14T10:37:53Z</time>
      </trkpt>
      <trkpt lat="44.02398" lon="3.27306">
        <ele>727.8</ele>
        <time>2021-08-14T10:37:55Z</time>
      </trkpt>
      <trkpt lat="44.024" lon="3.27304">
        <ele>728.5</ele>
        <time>2021-08-14T10:37:57Z</time>
      </trkpt>
      <trkpt lat="44.02403" lon="3.27303">
        <ele>729.3</ele>
        <time>2021-08-14T10:37:59Z</time>
      </trkpt>
      <trkpt lat="44.02406" lon="3.27301">
        <ele>730.3</ele>
        <time>2021-08-14T10:38:01Z</time>
      </trkpt>
      <trkpt lat="44.02409" lon="3.273">
        <ele>731.2</ele>
        <time>2021-08-14T10:38:03Z</time>
      </trkpt>
      <trkpt lat="44.02412" lon="3.27298">
        <ele>732.2</ele>
        <time>2021-08-14T10:38:05Z</time>
      </trkpt>
      <trkpt lat="44.02415" lon="3.27297">
        <ele>733.1</ele>
        <time>2021-08-14T10:38:07Z</time>
      </trkpt>
      <trkpt lat="44.02418" lon="3.27295">
        <ele>733.9</ele>
        <time>2021-08-14T10:38:09Z</time>
      </trkpt>
      <trkpt lat="44.02421" lon="3.27292">
        <ele>734.9</ele>
        <time>2021-08-14T10:38:11Z</time>
      </trkpt>
      <trkpt lat="44.02423" lon="3.27292">
        <ele>735.7</ele>
        <time>2021-08-14T10:38:13Z</time>
      </trkpt>
      <trkpt lat="44.02423" lon="3.27292">
        <ele>735.5</ele>
        <time>2021-08-14T10:38:15Z</time>
      </trkpt>
      <trkpt lat="44.02423" lon="3.27292">
        <ele>735.6</ele>
        <time>2021-08-14T10:38:17Z</time>
      </trkpt>
      <trkpt lat="44.02423" lon="3.27292">
        <ele>735.7</ele>
        <time>2021-08-14T10:38:19Z</time>
      </trkpt>
      <trkpt lat="44.02423" lon="3.27292">
        <ele>735.8</ele>
        <time>2021-08-14T10:38:21Z</time>
      </trkpt>
      <trkpt lat="44.02423" lon="3.27292">
        <ele>735.7</ele>
        <time>2021-08-14T10:38:23Z</time>
      </trkpt>
      <trkpt lat="44.0243" lon="3.27285">
        <ele>737.1</ele>
        <time>2021-08-14T10:45:35Z</time>
      </trkpt>
      <trkpt lat="44.02432" lon="3.27281">
        <ele>737.6</ele>
        <time>2021-08-14T10:45:37Z</time>
      </trkpt>
      <trkpt lat="44.02434" lon="3.27278">
        <ele>738</ele>
        <time>2021-08-14T10:45:39Z</time>
      </trkpt>
      <trkpt lat="44.02436" lon="3.27276">
        <ele>738.4</ele>
        <time>2021-08-14T10:45:41Z</time>
      </trkpt>
      <trkpt lat="44.02438" lon="3.27272">
        <ele>738.9</ele>
        <time>2021-08-14T10:45:43Z</time>
      </trkpt>
      <trkpt lat="44.0244" lon="3.27269">
        <ele>739.3</ele>
        <time>2021-08-14T10:45:45Z</time>
      </trkpt>
      <trkpt lat="44.02441" lon="3.27265">
        <ele>739.5</ele>
        <time>2021-08-14T10:45:47Z</time>
      </trkpt>
      <trkpt lat="44.02443" lon="3.27261">
        <ele>739.4</ele>
        <time>2021-08-14T10:45:49Z</time>
      </trkpt>
      <trkpt lat="44.02443" lon="3.27258">
        <ele>739.4</ele>
        <time>2021-08-14T10:45:51Z</time>
      </trkpt>
      <trkpt lat="44.02444" lon="3.27254">
        <ele>739.3</ele>
        <time>2021-08-14T10:45:53Z</time>
      </trkpt>
      <trkpt lat="44.02445" lon="3.2725">
        <ele>739.1</ele>
        <time>2021-08-14T10:45:55Z</time>
      </trkpt>
      <trkpt lat="44.02446" lon="3.27246">
        <ele>740</ele>
        <time>2021-08-14T10:45:57Z</time>
      </trkpt>
      <trkpt lat="44.02446" lon="3.27242">
        <ele>740.7</ele>
        <time>2021-08-14T10:45:59Z</time>
      </trkpt>
      <trkpt lat="44.02446" lon="3.27238">
        <ele>741</ele>
        <time>2021-08-14T10:46:01Z</time>
      </trkpt>
      <trkpt lat="44.02446" lon="3.27233">
        <ele>741.3</ele>
        <time>2021-08-14T10:46:03Z</time>
      </trkpt>
      <trkpt lat="44.02447" lon="3.27229">
        <ele>742.1</ele>
        <time>2021-08-14T10:46:05Z</time>
      </trkpt>
      <trkpt lat="44.02447" lon="3.27226">
        <ele>742.3</ele>
        <time>2021-08-14T10:46:07Z</time>
      </trkpt>
      <trkpt lat="44.02446" lon="3.27221">
        <ele>742.5</ele>
        <time>2021-08-14T10:46:09Z</time>
      </trkpt>
      <trkpt lat="44.02446" lon="3.27217">
        <ele>742.8</ele>
        <time>2021-08-14T10:46:11Z</time>
      </trkpt>
      <trkpt lat="44.02445" lon="3.27214">
        <ele>742.8</ele>
        <time>2021-08-14T10:46:13Z</time>
      </trkpt>
      <trkpt lat="44.02444" lon="3.2721">
        <ele>742.5</ele>
        <time>2021-08-14T10:46:15Z</time>
      </trkpt>
      <trkpt lat="44.02444" lon="3.27206">
        <ele>742.5</ele>
        <time>2021-08-14T10:46:17Z</time>
      </trkpt>
      <trkpt lat="44.02442" lon="3.27202">
        <ele>741.9</ele>
        <time>2021-08-14T10:46:19Z</time>
      </trkpt>
      <trkpt lat="44.02442" lon="3.27198">
        <ele>741.9</ele>
        <time>2021-08-14T10:46:21Z</time>
      </trkpt>
      <trkpt lat="44.02441" lon="3.27194">
        <ele>741.8</ele>
        <time>2021-08-14T10:46:23Z</time>
      </trkpt>
      <trkpt lat="44.02439" lon="3.27191">
        <ele>741</ele>
        <time>2021-08-14T10:46:25Z</time>
      </trkpt>
      <trkpt lat="44.02438" lon="3.27187">
        <ele>740.8</ele>
        <time>2021-08-14T10:46:27Z</time>
      </trkpt>
      <trkpt lat="44.02437" lon="3.27183">
        <ele>740.6</ele>
        <time>2021-08-14T10:46:29Z</time>
      </trkpt>
      <trkpt lat="44.02436" lon="3.27178">
        <ele>740.4</ele>
        <time>2021-08-14T10:46:31Z</time>
      </trkpt>
      <trkpt lat="44.02436" lon="3.27174">
        <ele>740.5</ele>
        <time>2021-08-14T10:46:33Z</time>
      </trkpt>
      <trkpt lat="44.02435" lon="3.2717">
        <ele>740.1</ele>
        <time>2021-08-14T10:46:35Z</time>
      </trkpt>
      <trkpt lat="44.02434" lon="3.27166">
        <ele>740.3</ele>
        <time>2021-08-14T10:46:37Z</time>
      </trkpt>
      <trkpt lat="44.02433" lon="3.27161">
        <ele>739.9</ele>
        <time>2021-08-14T10:46:39Z</time>
      </trkpt>
      <trkpt lat="44.02433" lon="3.27157">
        <ele>739.5</ele>
        <time>2021-08-14T10:46:41Z</time>
      </trkpt>
      <trkpt lat="44.02432" lon="3.27153">
        <ele>739.4</ele>
        <time>2021-08-14T10:46:43Z</time>
      </trkpt>
      <trkpt lat="44.02432" lon="3.27149">
        <ele>739.5</ele>
        <time>2021-08-14T10:46:45Z</time>
      </trkpt>
      <trkpt lat="44.02432" lon="3.27144">
        <ele>739.3</ele>
        <time>2021-08-14T10:46:47Z</time>
      </trkpt>
      <trkpt lat="44.02432" lon="3.2714">
        <ele>739.4</ele>
        <time>2021-08-14T10:46:49Z</time>
      </trkpt>
      <trkpt lat="44.02432" lon="3.27135">
        <ele>739.4</ele>
        <time>2021-08-14T10:46:51Z</time>
      </trkpt>
      <trkpt lat="44.02432" lon="3.27131">
        <ele>739.9</ele>
        <time>2021-08-14T10:46:53Z</time>
      </trkpt>
      <trkpt lat="44.02432" lon="3.27127">
        <ele>739.9</ele>
        <time>2021-08-14T10:46:55Z</time>
      </trkpt>
      <trkpt lat="44.02432" lon="3.27123">
        <ele>740.2</ele>
        <time>2021-08-14T10:46:57Z</time>
      </trkpt>
      <trkpt lat="44.02433" lon="3.27119">
        <ele>740.7</ele>
        <time>2021-08-14T10:46:59Z</time>
      </trkpt>
      <trkpt lat="44.02433" lon="3.27114">
        <ele>741.1</ele>
        <time>2021-08-14T10:47:01Z</time>
      </trkpt>
      <trkpt lat="44.02433" lon="3.2711">
        <ele>741.3</ele>
        <time>2021-08-14T10:47:03Z</time>
      </trkpt>
      <trkpt lat="44.02434" lon="3.27106">
        <ele>741.6</ele>
        <time>2021-08-14T10:47:05Z</time>
      </trkpt>
      <trkpt lat="44.02434" lon="3.27102">
        <ele>742</ele>
        <time>2021-08-14T10:47:07Z</time>
      </trkpt>
      <trkpt lat="44.02434" lon="3.27097">
        <ele>742.4</ele>
        <time>2021-08-14T10:47:09Z</time>
      </trkpt>
      <trkpt lat="44.02435" lon="3.27093">
        <ele>743</ele>
        <time>2021-08-14T10:47:11Z</time>
      </trkpt>
      <trkpt lat="44.02435" lon="3.27089">
        <ele>743.3</ele>
        <time>2021-08-14T10:47:13Z</time>
      </trkpt>
      <trkpt lat="44.02436" lon="3.27085">
        <ele>743.8</ele>
        <time>2021-08-14T10:47:15Z</time>
      </trkpt>
      <trkpt lat="44.02436" lon="3.2708">
        <ele>743.8</ele>
        <time>2021-08-14T10:47:17Z</time>
      </trkpt>
      <trkpt lat="44.02436" lon="3.27075">
        <ele>743.3</ele>
        <time>2021-08-14T10:47:19Z</time>
      </trkpt>
      <trkpt lat="44.02437" lon="3.27071">
        <ele>743</ele>
        <time>2021-08-14T10:47:21Z</time>
      </trkpt>
      <trkpt lat="44.02438" lon="3.27067">
        <ele>743.1</ele>
        <time>2021-08-14T10:47:23Z</time>
      </trkpt>
      <trkpt lat="44.02438" lon="3.27063">
        <ele>743</ele>
        <time>2021-08-14T10:47:25Z</time>
      </trkpt>
      <trkpt lat="44.02439" lon="3.27058">
        <ele>743.1</ele>
        <time>2021-08-14T10:47:27Z</time>
      </trkpt>
      <trkpt lat="44.0244" lon="3.27054">
        <ele>742.9</ele>
        <time>2021-08-14T10:47:29Z</time>
      </trkpt>
      <trkpt lat="44.02441" lon="3.2705">
        <ele>743.1</ele>
        <time>2021-08-14T10:47:31Z</time>
      </trkpt>
      <trkpt lat="44.02442" lon="3.27046">
        <ele>743.4</ele>
        <time>2021-08-14T10:47:33Z</time>
      </trkpt>
      <trkpt lat="44.02443" lon="3.27042">
        <ele>743.7</ele>
        <time>2021-08-14T10:47:35Z</time>
      </trkpt>
      <trkpt lat="44.02444" lon="3.27038">
        <ele>744.2</ele>
        <time>2021-08-14T10:47:37Z</time>
      </trkpt>
      <trkpt lat="44.02446" lon="3.27035">
        <ele>744.6</ele>
        <time>2021-08-14T10:47:39Z</time>
      </trkpt>
      <trkpt lat="44.02447" lon="3.27031">
        <ele>745.3</ele>
        <time>2021-08-14T10:47:41Z</time>
      </trkpt>
      <trkpt lat="44.02449" lon="3.27027">
        <ele>746</ele>
        <time>2021-08-14T10:47:43Z</time>
      </trkpt>
      <trkpt lat="44.02451" lon="3.27023">
        <ele>746.7</ele>
        <time>2021-08-14T10:47:45Z</time>
      </trkpt>
      <trkpt lat="44.02453" lon="3.27019">
        <ele>747.5</ele>
        <time>2021-08-14T10:47:47Z</time>
      </trkpt>
      <trkpt lat="44.02454" lon="3.27015">
        <ele>748.1</ele>
        <time>2021-08-14T10:47:49Z</time>
      </trkpt>
      <trkpt lat="44.02456" lon="3.27012">
        <ele>749</ele>
        <time>2021-08-14T10:47:51Z</time>
      </trkpt>
      <trkpt lat="44.02458" lon="3.27008">
        <ele>749.7</ele>
        <time>2021-08-14T10:47:53Z</time>
      </trkpt>
      <trkpt lat="44.0246" lon="3.27004">
        <ele>750.7</ele>
        <time>2021-08-14T10:47:55Z</time>
      </trkpt>
      <trkpt lat="44.02462" lon="3.27001">
        <ele>751.8</ele>
        <time>2021-08-14T10:47:57Z</time>
      </trkpt>
      <trkpt lat="44.02464" lon="3.26997">
        <ele>752.7</ele>
        <time>2021-08-14T10:47:59Z</time>
      </trkpt>
      <trkpt lat="44.02466" lon="3.26993">
        <ele>753.9</ele>
        <time>2021-08-14T10:48:01Z</time>
      </trkpt>
      <trkpt lat="44.02468" lon="3.2699">
        <ele>755.2</ele>
        <time>2021-08-14T10:48:03Z</time>
      </trkpt>
      <trkpt lat="44.0247" lon="3.26987">
        <ele>756.4</ele>
        <time>2021-08-14T10:48:05Z</time>
      </trkpt>
      <trkpt lat="44.02471" lon="3.26983">
        <ele>757.1</ele>
        <time>2021-08-14T10:48:07Z</time>
      </trkpt>
      <trkpt lat="44.02473" lon="3.2698">
        <ele>758.1</ele>
        <time>2021-08-14T10:48:09Z</time>
      </trkpt>
      <trkpt lat="44.02475" lon="3.26976">
        <ele>759.3</ele>
        <time>2021-08-14T10:48:11Z</time>
      </trkpt>
      <trkpt lat="44.02476" lon="3.26973">
        <ele>760.2</ele>
        <time>2021-08-14T10:48:13Z</time>
      </trkpt>
      <trkpt lat="44.02477" lon="3.26968">
        <ele>760.5</ele>
        <time>2021-08-14T10:48:15Z</time>
      </trkpt>
      <trkpt lat="44.02477" lon="3.26964">
        <ele>760.7</ele>
        <time>2021-08-14T10:48:17Z</time>
      </trkpt>
      <trkpt lat="44.02478" lon="3.2696">
        <ele>760.7</ele>
        <time>2021-08-14T10:48:19Z</time>
      </trkpt>
      <trkpt lat="44.02477" lon="3.26955">
        <ele>760.5</ele>
        <time>2021-08-14T10:48:21Z</time>
      </trkpt>
      <trkpt lat="44.02477" lon="3.26951">
        <ele>760.3</ele>
        <time>2021-08-14T10:48:23Z</time>
      </trkpt>
      <trkpt lat="44.02477" lon="3.26946">
        <ele>759.8</ele>
        <time>2021-08-14T10:48:25Z</time>
      </trkpt>
      <trkpt lat="44.02477" lon="3.26942">
        <ele>759.5</ele>
        <time>2021-08-14T10:48:27Z</time>
      </trkpt>
      <trkpt lat="44.02476" lon="3.26937">
        <ele>758.7</ele>
        <time>2021-08-14T10:48:29Z</time>
      </trkpt>
      <trkpt lat="44.02474" lon="3.26933">
        <ele>757.7</ele>
        <time>2021-08-14T10:48:31Z</time>
      </trkpt>
      <trkpt lat="44.02473" lon="3.26929">
        <ele>757</ele>
        <time>2021-08-14T10:48:33Z</time>
      </trkpt>
      <trkpt lat="44.02473" lon="3.26925">
        <ele>756.1</ele>
        <time>2021-08-14T10:48:35Z</time>
      </trkpt>
      <trkpt lat="44.02472" lon="3.2692">
        <ele>755.6</ele>
        <time>2021-08-14T10:48:37Z</time>
      </trkpt>
      <trkpt lat="44.02471" lon="3.26915">
        <ele>754.8</ele>
        <time>2021-08-14T10:48:39Z</time>
      </trkpt>
      <trkpt lat="44.02471" lon="3.26911">
        <ele>753.8</ele>
        <time>2021-08-14T10:48:41Z</time>
      </trkpt>
      <trkpt lat="44.0247" lon="3.26907">
        <ele>752.7</ele>
        <time>2021-08-14T10:48:43Z</time>
      </trkpt>
      <trkpt lat="44.0247" lon="3.26902">
        <ele>752</ele>
        <time>2021-08-14T10:48:45Z</time>
      </trkpt>
      <trkpt lat="44.0247" lon="3.26897">
        <ele>751.3</ele>
        <time>2021-08-14T10:48:47Z</time>
      </trkpt>
      <trkpt lat="44.02471" lon="3.26893">
        <ele>750.7</ele>
        <time>2021-08-14T10:48:49Z</time>
      </trkpt>
      <trkpt lat="44.02472" lon="3.26888">
        <ele>750.8</ele>
        <time>2021-08-14T10:48:51Z</time>
      </trkpt>
      <trkpt lat="44.02472" lon="3.26884">
        <ele>750.4</ele>
        <time>2021-08-14T10:48:53Z</time>
      </trkpt>
      <trkpt lat="44.02473" lon="3.26879">
        <ele>749.9</ele>
        <time>2021-08-14T10:48:55Z</time>
      </trkpt>
      <trkpt lat="44.02474" lon="3.26875">
        <ele>750.3</ele>
        <time>2021-08-14T10:48:57Z</time>
      </trkpt>
      <trkpt lat="44.02476" lon="3.26871">
        <ele>751</ele>
        <time>2021-08-14T10:48:59Z</time>
      </trkpt>
      <trkpt lat="44.02478" lon="3.26867">
        <ele>751.6</ele>
        <time>2021-08-14T10:49:01Z</time>
      </trkpt>
      <trkpt lat="44.0248" lon="3.26863">
        <ele>752.1</ele>
        <time>2021-08-14T10:49:03Z</time>
      </trkpt>
      <trkpt lat="44.02482" lon="3.26859">
        <ele>753</ele>
        <time>2021-08-14T10:49:05Z</time>
      </trkpt>
      <trkpt lat="44.02485" lon="3.26856">
        <ele>754.1</ele>
        <time>2021-08-14T10:49:07Z</time>
      </trkpt>
      <trkpt lat="44.02487" lon="3.26852">
        <ele>755.4</ele>
        <time>2021-08-14T10:49:09Z</time>
      </trkpt>
      <trkpt lat="44.0249" lon="3.2685">
        <ele>756.8</ele>
        <time>2021-08-14T10:49:11Z</time>
      </trkpt>
      <trkpt lat="44.02493" lon="3.26847">
        <ele>758.1</ele>
        <time>2021-08-14T10:49:13Z</time>
      </trkpt>
      <trkpt lat="44.02495" lon="3.26844">
        <ele>759.6</ele>
        <time>2021-08-14T10:49:15Z</time>
      </trkpt>
      <trkpt lat="44.02498" lon="3.26842">
        <ele>761.2</ele>
        <time>2021-08-14T10:49:17Z</time>
      </trkpt>
      <trkpt lat="44.02501" lon="3.26839">
        <ele>762.4</ele>
        <time>2021-08-14T10:49:19Z</time>
      </trkpt>
      <trkpt lat="44.02504" lon="3.26837">
        <ele>763.3</ele>
        <time>2021-08-14T10:49:21Z</time>
      </trkpt>
      <trkpt lat="44.02507" lon="3.26835">
        <ele>764.3</ele>
        <time>2021-08-14T10:49:23Z</time>
      </trkpt>
      <trkpt lat="44.0251" lon="3.26832">
        <ele>765.2</ele>
        <time>2021-08-14T10:49:25Z</time>
      </trkpt>
      <trkpt lat="44.02512" lon="3.26829">
        <ele>765.9</ele>
        <time>2021-08-14T10:49:27Z</time>
      </trkpt>
      <trkpt lat="44.02515" lon="3.26827">
        <ele>766.7</ele>
        <time>2021-08-14T10:49:29Z</time>
      </trkpt>
      <trkpt lat="44.02518" lon="3.26824">
        <ele>767.6</ele>
        <time>2021-08-14T10:49:31Z</time>
      </trkpt>
      <trkpt lat="44.02521" lon="3.26821">
        <ele>768.4</ele>
        <time>2021-08-14T10:49:33Z</time>
      </trkpt>
      <trkpt lat="44.02524" lon="3.26818">
        <ele>769.2</ele>
        <time>2021-08-14T10:49:35Z</time>
      </trkpt>
      <trkpt lat="44.02527" lon="3.26815">
        <ele>769.8</ele>
        <time>2021-08-14T10:49:37Z</time>
      </trkpt>
      <trkpt lat="44.02529" lon="3.26811">
        <ele>770.4</ele>
        <time>2021-08-14T10:49:39Z</time>
      </trkpt>
      <trkpt lat="44.02531" lon="3.26808">
        <ele>770.9</ele>
        <time>2021-08-14T10:49:41Z</time>
      </trkpt>
      <trkpt lat="44.02533" lon="3.26804">
        <ele>771</ele>
        <time>2021-08-14T10:49:43Z</time>
      </trkpt>
      <trkpt lat="44.02535" lon="3.26799">
        <ele>771</ele>
        <time>2021-08-14T10:49:45Z</time>
      </trkpt>
      <trkpt lat="44.02536" lon="3.26795">
        <ele>770.8</ele>
        <time>2021-08-14T10:49:47Z</time>
      </trkpt>
      <trkpt lat="44.02537" lon="3.26791">
        <ele>770.8</ele>
        <time>2021-08-14T10:49:49Z</time>
      </trkpt>
      <trkpt lat="44.02538" lon="3.26787">
        <ele>770.2</ele>
        <time>2021-08-14T10:49:51Z</time>
      </trkpt>
      <trkpt lat="44.02538" lon="3.26782">
        <ele>769.8</ele>
        <time>2021-08-14T10:49:53Z</time>
      </trkpt>
      <trkpt lat="44.02539" lon="3.26778">
        <ele>769.3</ele>
        <time>2021-08-14T10:49:55Z</time>
      </trkpt>
      <trkpt lat="44.02539" lon="3.26773">
        <ele>768.8</ele>
        <time>2021-08-14T10:49:57Z</time>
      </trkpt>
      <trkpt lat="44.02539" lon="3.26769">
        <ele>768.1</ele>
        <time>2021-08-14T10:49:59Z</time>
      </trkpt>
      <trkpt lat="44.0254" lon="3.26764">
        <ele>767.3</ele>
        <time>2021-08-14T10:50:01Z</time>
      </trkpt>
      <trkpt lat="44.0254" lon="3.2676">
        <ele>766.7</ele>
        <time>2021-08-14T10:50:03Z</time>
      </trkpt>
      <trkpt lat="44.0254" lon="3.26755">
        <ele>766</ele>
        <time>2021-08-14T10:50:05Z</time>
      </trkpt>
      <trkpt lat="44.0254" lon="3.2675">
        <ele>765.5</ele>
        <time>2021-08-14T10:50:07Z</time>
      </trkpt>
      <trkpt lat="44.02541" lon="3.26746">
        <ele>765.1</ele>
        <time>2021-08-14T10:50:09Z</time>
      </trkpt>
      <trkpt lat="44.02541" lon="3.26741">
        <ele>764.8</ele>
        <time>2021-08-14T10:50:11Z</time>
      </trkpt>
      <trkpt lat="44.02542" lon="3.26737">
        <ele>764.7</ele>
        <time>2021-08-14T10:50:13Z</time>
      </trkpt>
      <trkpt lat="44.02543" lon="3.26732">
        <ele>764.5</ele>
        <time>2021-08-14T10:50:15Z</time>
      </trkpt>
      <trkpt lat="44.02543" lon="3.26727">
        <ele>764.4</ele>
        <time>2021-08-14T10:50:17Z</time>
      </trkpt>
      <trkpt lat="44.02544" lon="3.26723">
        <ele>764.4</ele>
        <time>2021-08-14T10:50:19Z</time>
      </trkpt>
      <trkpt lat="44.02545" lon="3.26718">
        <ele>764.4</ele>
        <time>2021-08-14T10:50:21Z</time>
      </trkpt>
      <trkpt lat="44.02546" lon="3.26714">
        <ele>764.3</ele>
        <time>2021-08-14T10:50:23Z</time>
      </trkpt>
      <trkpt lat="44.02548" lon="3.2671">
        <ele>764.6</ele>
        <time>2021-08-14T10:50:25Z</time>
      </trkpt>
      <trkpt lat="44.0255" lon="3.26706">
        <ele>765</ele>
        <time>2021-08-14T10:50:27Z</time>
      </trkpt>
      <trkpt lat="44.02551" lon="3.26702">
        <ele>765.2</ele>
        <time>2021-08-14T10:50:29Z</time>
      </trkpt>
      <trkpt lat="44.02553" lon="3.26698">
        <ele>765.7</ele>
        <time>2021-08-14T10:50:31Z</time>
      </trkpt>
      <trkpt lat="44.02555" lon="3.26694">
        <ele>766</ele>
        <time>2021-08-14T10:50:33Z</time>
      </trkpt>
      <trkpt lat="44.02557" lon="3.2669">
        <ele>766.4</ele>
        <time>2021-08-14T10:50:35Z</time>
      </trkpt>
      <trkpt lat="44.02559" lon="3.26685">
        <ele>766.7</ele>
        <time>2021-08-14T10:50:37Z</time>
      </trkpt>
      <trkpt lat="44.02561" lon="3.26681">
        <ele>767.1</ele>
        <time>2021-08-14T10:50:39Z</time>
      </trkpt>
      <trkpt lat="44.02563" lon="3.26677">
        <ele>767.6</ele>
        <time>2021-08-14T10:50:41Z</time>
      </trkpt>
      <trkpt lat="44.02565" lon="3.26674">
        <ele>768.1</ele>
        <time>2021-08-14T10:50:43Z</time>
      </trkpt>
      <trkpt lat="44.02567" lon="3.2667">
        <ele>768.5</ele>
        <time>2021-08-14T10:50:45Z</time>
      </trkpt>
      <trkpt lat="44.02569" lon="3.26666">
        <ele>769</ele>
        <time>2021-08-14T10:50:47Z</time>
      </trkpt>
      <trkpt lat="44.02571" lon="3.26663">
        <ele>769.9</ele>
        <time>2021-08-14T10:50:49Z</time>
      </trkpt>
      <trkpt lat="44.02573" lon="3.26659">
        <ele>770.8</ele>
        <time>2021-08-14T10:50:51Z</time>
      </trkpt>
      <trkpt lat="44.02576" lon="3.26655">
        <ele>771.7</ele>
        <time>2021-08-14T10:50:53Z</time>
      </trkpt>
      <trkpt lat="44.02578" lon="3.26652">
        <ele>772.5</ele>
        <time>2021-08-14T10:50:55Z</time>
      </trkpt>
      <trkpt lat="44.02579" lon="3.26648">
        <ele>773.1</ele>
        <time>2021-08-14T10:50:57Z</time>
      </trkpt>
      <trkpt lat="44.02581" lon="3.26644">
        <ele>773.8</ele>
        <time>2021-08-14T10:50:59Z</time>
      </trkpt>
      <trkpt lat="44.02582" lon="3.2664">
        <ele>774.4</ele>
        <time>2021-08-14T10:51:01Z</time>
      </trkpt>
      <trkpt lat="44.02584" lon="3.26636">
        <ele>774.8</ele>
        <time>2021-08-14T10:51:03Z</time>
      </trkpt>
      <trkpt lat="44.02586" lon="3.26633">
        <ele>775.1</ele>
        <time>2021-08-14T10:51:05Z</time>
      </trkpt>
      <trkpt lat="44.02586" lon="3.26628">
        <ele>775.2</ele>
        <time>2021-08-14T10:51:07Z</time>
      </trkpt>
      <trkpt lat="44.02586" lon="3.26623">
        <ele>775.1</ele>
        <time>2021-08-14T10:51:09Z</time>
      </trkpt>
      <trkpt lat="44.02587" lon="3.26619">
        <ele>775.4</ele>
        <time>2021-08-14T10:51:11Z</time>
      </trkpt>
      <trkpt lat="44.02588" lon="3.26615">
        <ele>775.5</ele>
        <time>2021-08-14T10:51:13Z</time>
      </trkpt>
      <trkpt lat="44.02589" lon="3.2661">
        <ele>775.6</ele>
        <time>2021-08-14T10:51:15Z</time>
      </trkpt>
      <trkpt lat="44.02589" lon="3.26605">
        <ele>775.7</ele>
        <time>2021-08-14T10:51:17Z</time>
      </trkpt>
      <trkpt lat="44.02589" lon="3.26601">
        <ele>775.7</ele>
        <time>2021-08-14T10:51:19Z</time>
      </trkpt>
      <trkpt lat="44.02589" lon="3.26596">
        <ele>775.6</ele>
        <time>2021-08-14T10:51:21Z</time>
      </trkpt>
      <trkpt lat="44.02589" lon="3.26591">
        <ele>775.6</ele>
        <time>2021-08-14T10:51:23Z</time>
      </trkpt>
      <trkpt lat="44.02589" lon="3.26586">
        <ele>775.6</ele>
        <time>2021-08-14T10:51:25Z</time>
      </trkpt>
      <trkpt lat="44.02589" lon="3.26582">
        <ele>775.6</ele>
        <time>2021-08-14T10:51:27Z</time>
      </trkpt>
      <trkpt lat="44.0259" lon="3.26577">
        <ele>775.5</ele>
        <time>2021-08-14T10:51:29Z</time>
      </trkpt>
      <trkpt lat="44.0259" lon="3.26573">
        <ele>775.4</ele>
        <time>2021-08-14T10:51:31Z</time>
      </trkpt>
      <trkpt lat="44.02591" lon="3.26568">
        <ele>775.5</ele>
        <time>2021-08-14T10:51:33Z</time>
      </trkpt>
      <trkpt lat="44.02592" lon="3.26563">
        <ele>775.6</ele>
        <time>2021-08-14T10:51:35Z</time>
      </trkpt>
      <trkpt lat="44.02593" lon="3.26559">
        <ele>775.7</ele>
        <time>2021-08-14T10:51:37Z</time>
      </trkpt>
      <trkpt lat="44.02594" lon="3.26555">
        <ele>775.9</ele>
        <time>2021-08-14T10:51:39Z</time>
      </trkpt>
      <trkpt lat="44.02595" lon="3.2655">
        <ele>776.1</ele>
        <time>2021-08-14T10:51:41Z</time>
      </trkpt>
      <trkpt lat="44.02597" lon="3.26546">
        <ele>776.3</ele>
        <time>2021-08-14T10:51:43Z</time>
      </trkpt>
      <trkpt lat="44.02598" lon="3.26542">
        <ele>776.6</ele>
        <time>2021-08-14T10:51:45Z</time>
      </trkpt>
      <trkpt lat="44.02599" lon="3.26537">
        <ele>776.8</ele>
        <time>2021-08-14T10:51:47Z</time>
      </trkpt>
      <trkpt lat="44.02601" lon="3.26533">
        <ele>777.3</ele>
        <time>2021-08-14T10:51:49Z</time>
      </trkpt>
      <trkpt lat="44.02603" lon="3.26529">
        <ele>777.6</ele>
        <time>2021-08-14T10:51:51Z</time>
      </trkpt>
      <trkpt lat="44.02604" lon="3.26525">
        <ele>777.9</ele>
        <time>2021-08-14T10:51:53Z</time>
      </trkpt>
      <trkpt lat="44.02606" lon="3.26521">
        <ele>778.4</ele>
        <time>2021-08-14T10:51:55Z</time>
      </trkpt>
      <trkpt lat="44.02607" lon="3.26517">
        <ele>778.7</ele>
        <time>2021-08-14T10:51:57Z</time>
      </trkpt>
      <trkpt lat="44.02609" lon="3.26512">
        <ele>779.1</ele>
        <time>2021-08-14T10:51:59Z</time>
      </trkpt>
      <trkpt lat="44.0261" lon="3.26508">
        <ele>779.4</ele>
        <time>2021-08-14T10:52:01Z</time>
      </trkpt>
      <trkpt lat="44.02611" lon="3.26503">
        <ele>779.8</ele>
        <time>2021-08-14T10:52:03Z</time>
      </trkpt>
      <trkpt lat="44.02613" lon="3.26499">
        <ele>780.3</ele>
        <time>2021-08-14T10:52:05Z</time>
      </trkpt>
      <trkpt lat="44.02614" lon="3.26495">
        <ele>780.7</ele>
        <time>2021-08-14T10:52:07Z</time>
      </trkpt>
      <trkpt lat="44.02616" lon="3.2649">
        <ele>781.1</ele>
        <time>2021-08-14T10:52:09Z</time>
      </trkpt>
      <trkpt lat="44.02617" lon="3.26486">
        <ele>781.5</ele>
        <time>2021-08-14T10:52:11Z</time>
      </trkpt>
      <trkpt lat="44.02619" lon="3.26481">
        <ele>781.9</ele>
        <time>2021-08-14T10:52:13Z</time>
      </trkpt>
      <trkpt lat="44.0262" lon="3.26477">
        <ele>782.3</ele>
        <time>2021-08-14T10:52:15Z</time>
      </trkpt>
      <trkpt lat="44.02622" lon="3.26473">
        <ele>782.7</ele>
        <time>2021-08-14T10:52:17Z</time>
      </trkpt>
      <trkpt lat="44.02623" lon="3.26469">
        <ele>783.1</ele>
        <time>2021-08-14T10:52:19Z</time>
      </trkpt>
      <trkpt lat="44.02625" lon="3.26464">
        <ele>783.4</ele>
        <time>2021-08-14T10:52:21Z</time>
      </trkpt>
      <trkpt lat="44.02626" lon="3.2646">
        <ele>783.7</ele>
        <time>2021-08-14T10:52:23Z</time>
      </trkpt>
      <trkpt lat="44.02628" lon="3.26455">
        <ele>784</ele>
        <time>2021-08-14T10:52:25Z</time>
      </trkpt>
      <trkpt lat="44.0263" lon="3.26451">
        <ele>784.4</ele>
        <time>2021-08-14T10:52:27Z</time>
      </trkpt>
      <trkpt lat="44.02631" lon="3.26446">
        <ele>784.7</ele>
        <time>2021-08-14T10:52:29Z</time>
      </trkpt>
      <trkpt lat="44.02633" lon="3.26442">
        <ele>784.9</ele>
        <time>2021-08-14T10:52:31Z</time>
      </trkpt>
      <trkpt lat="44.02634" lon="3.26438">
        <ele>785.3</ele>
        <time>2021-08-14T10:52:33Z</time>
      </trkpt>
      <trkpt lat="44.02636" lon="3.26434">
        <ele>785.6</ele>
        <time>2021-08-14T10:52:35Z</time>
      </trkpt>
      <trkpt lat="44.02638" lon="3.2643">
        <ele>786</ele>
        <time>2021-08-14T10:52:37Z</time>
      </trkpt>
      <trkpt lat="44.02639" lon="3.26426">
        <ele>786.2</ele>
        <time>2021-08-14T10:52:39Z</time>
      </trkpt>
      <trkpt lat="44.02641" lon="3.26422">
        <ele>786.6</ele>
        <time>2021-08-14T10:52:41Z</time>
      </trkpt>
      <trkpt lat="44.02643" lon="3.26418">
        <ele>786.9</ele>
        <time>2021-08-14T10:52:43Z</time>
      </trkpt>
      <trkpt lat="44.02645" lon="3.26414">
        <ele>787.3</ele>
        <time>2021-08-14T10:52:45Z</time>
      </trkpt>
      <trkpt lat="44.02647" lon="3.2641">
        <ele>787.7</ele>
        <time>2021-08-14T10:52:47Z</time>
      </trkpt>
      <trkpt lat="44.02649" lon="3.26406">
        <ele>788</ele>
        <time>2021-08-14T10:52:49Z</time>
      </trkpt>
      <trkpt lat="44.02651" lon="3.26403">
        <ele>788.3</ele>
        <time>2021-08-14T10:52:51Z</time>
      </trkpt>
      <trkpt lat="44.02654" lon="3.26399">
        <ele>788.6</ele>
        <time>2021-08-14T10:52:53Z</time>
      </trkpt>
      <trkpt lat="44.02655" lon="3.26396">
        <ele>788.7</ele>
        <time>2021-08-14T10:52:55Z</time>
      </trkpt>
      <trkpt lat="44.02656" lon="3.26391">
        <ele>788.6</ele>
        <time>2021-08-14T10:52:57Z</time>
      </trkpt>
      <trkpt lat="44.0266" lon="3.26388">
        <ele>789.1</ele>
        <time>2021-08-14T10:52:59Z</time>
      </trkpt>
      <trkpt lat="44.02663" lon="3.26385">
        <ele>789.3</ele>
        <time>2021-08-14T10:53:01Z</time>
      </trkpt>
      <trkpt lat="44.02665" lon="3.2638">
        <ele>789.2</ele>
        <time>2021-08-14T10:53:03Z</time>
      </trkpt>
      <trkpt lat="44.02667" lon="3.26376">
        <ele>789.2</ele>
        <time>2021-08-14T10:53:05Z</time>
      </trkpt>
      <trkpt lat="44.0267" lon="3.26372">
        <ele>789.5</ele>
        <time>2021-08-14T10:53:07Z</time>
      </trkpt>
      <trkpt lat="44.02673" lon="3.26368">
        <ele>789.7</ele>
        <time>2021-08-14T10:53:09Z</time>
      </trkpt>
      <trkpt lat="44.02675" lon="3.26364">
        <ele>789.8</ele>
        <time>2021-08-14T10:53:11Z</time>
      </trkpt>
      <trkpt lat="44.02677" lon="3.26361">
        <ele>790</ele>
        <time>2021-08-14T10:53:13Z</time>
      </trkpt>
      <trkpt lat="44.0268" lon="3.26357">
        <ele>790.4</ele>
        <time>2021-08-14T10:53:15Z</time>
      </trkpt>
      <trkpt lat="44.02684" lon="3.26351">
        <ele>790.7</ele>
        <time>2021-08-14T10:53:17Z</time>
      </trkpt>
      <trkpt lat="44.02686" lon="3.26347">
        <ele>790.9</ele>
        <time>2021-08-14T10:53:19Z</time>
      </trkpt>
      <trkpt lat="44.02689" lon="3.26343">
        <ele>791.2</ele>
        <time>2021-08-14T10:53:21Z</time>
      </trkpt>
      <trkpt lat="44.02691" lon="3.26339">
        <ele>791.4</ele>
        <time>2021-08-14T10:53:23Z</time>
      </trkpt>
      <trkpt lat="44.02694" lon="3.26335">
        <ele>791.7</ele>
        <time>2021-08-14T10:53:25Z</time>
      </trkpt>
      <trkpt lat="44.02696" lon="3.2633">
        <ele>792.1</ele>
        <time>2021-08-14T10:53:27Z</time>
      </trkpt>
      <trkpt lat="44.02699" lon="3.26326">
        <ele>792.6</ele>
        <time>2021-08-14T10:53:29Z</time>
      </trkpt>
      <trkpt lat="44.02701" lon="3.26322">
        <ele>793.1</ele>
        <time>2021-08-14T10:53:31Z</time>
      </trkpt>
      <trkpt lat="44.02703" lon="3.26318">
        <ele>793.6</ele>
        <time>2021-08-14T10:53:33Z</time>
      </trkpt>
      <trkpt lat="44.02705" lon="3.26313">
        <ele>793.8</ele>
        <time>2021-08-14T10:53:35Z</time>
      </trkpt>
      <trkpt lat="44.02707" lon="3.26309">
        <ele>794.2</ele>
        <time>2021-08-14T10:53:37Z</time>
      </trkpt>
      <trkpt lat="44.02709" lon="3.26305">
        <ele>794.5</ele>
        <time>2021-08-14T10:53:39Z</time>
      </trkpt>
      <trkpt lat="44.02711" lon="3.263">
        <ele>794.8</ele>
        <time>2021-08-14T10:53:41Z</time>
      </trkpt>
      <trkpt lat="44.02713" lon="3.26297">
        <ele>795</ele>
        <time>2021-08-14T10:53:43Z</time>
      </trkpt>
      <trkpt lat="44.02715" lon="3.26293">
        <ele>795.2</ele>
        <time>2021-08-14T10:53:45Z</time>
      </trkpt>
      <trkpt lat="44.02716" lon="3.26288">
        <ele>795.3</ele>
        <time>2021-08-14T10:53:47Z</time>
      </trkpt>
      <trkpt lat="44.02718" lon="3.26285">
        <ele>795.5</ele>
        <time>2021-08-14T10:53:49Z</time>
      </trkpt>
      <trkpt lat="44.0272" lon="3.26281">
        <ele>795.7</ele>
        <time>2021-08-14T10:53:51Z</time>
      </trkpt>
      <trkpt lat="44.02722" lon="3.26276">
        <ele>795.8</ele>
        <time>2021-08-14T10:53:53Z</time>
      </trkpt>
      <trkpt lat="44.02723" lon="3.26272">
        <ele>795.8</ele>
        <time>2021-08-14T10:53:55Z</time>
      </trkpt>
      <trkpt lat="44.02724" lon="3.26268">
        <ele>795.8</ele>
        <time>2021-08-14T10:53:57Z</time>
      </trkpt>
      <trkpt lat="44.02726" lon="3.26263">
        <ele>795.8</ele>
        <time>2021-08-14T10:53:59Z</time>
      </trkpt>
      <trkpt lat="44.02728" lon="3.26259">
        <ele>795.9</ele>
        <time>2021-08-14T10:54:01Z</time>
      </trkpt>
      <trkpt lat="44.02729" lon="3.26255">
        <ele>795.8</ele>
        <time>2021-08-14T10:54:03Z</time>
      </trkpt>
      <trkpt lat="44.0273" lon="3.26251">
        <ele>795.7</ele>
        <time>2021-08-14T10:54:05Z</time>
      </trkpt>
      <trkpt lat="44.02732" lon="3.26246">
        <ele>795.9</ele>
        <time>2021-08-14T10:54:07Z</time>
      </trkpt>
      <trkpt lat="44.02733" lon="3.26242">
        <ele>796</ele>
        <time>2021-08-14T10:54:09Z</time>
      </trkpt>
      <trkpt lat="44.02732" lon="3.26238">
        <ele>796</ele>
        <time>2021-08-14T10:54:11Z</time>
      </trkpt>
      <trkpt lat="44.02731" lon="3.26234">
        <ele>796</ele>
        <time>2021-08-14T10:54:13Z</time>
      </trkpt>
      <trkpt lat="44.02733" lon="3.26231">
        <ele>796.3</ele>
        <time>2021-08-14T10:54:15Z</time>
      </trkpt>
      <trkpt lat="44.02736" lon="3.26228">
        <ele>796.5</ele>
        <time>2021-08-14T10:54:17Z</time>
      </trkpt>
      <trkpt lat="44.02736" lon="3.26224">
        <ele>796.6</ele>
        <time>2021-08-14T10:54:19Z</time>
      </trkpt>
      <trkpt lat="44.02736" lon="3.26219">
        <ele>796.7</ele>
        <time>2021-08-14T10:54:21Z</time>
      </trkpt>
      <trkpt lat="44.02737" lon="3.26216">
        <ele>796.8</ele>
        <time>2021-08-14T10:54:23Z</time>
      </trkpt>
      <trkpt lat="44.02736" lon="3.26212">
        <ele>796.8</ele>
        <time>2021-08-14T10:54:25Z</time>
      </trkpt>
      <trkpt lat="44.02735" lon="3.26209">
        <ele>796.7</ele>
        <time>2021-08-14T10:54:27Z</time>
      </trkpt>
      <trkpt lat="44.02735" lon="3.26206">
        <ele>796.8</ele>
        <time>2021-08-14T10:54:29Z</time>
      </trkpt>
      <trkpt lat="44.02736" lon="3.26205">
        <ele>796.9</ele>
        <time>2021-08-14T10:54:31Z</time>
      </trkpt>
      <trkpt lat="44.02736" lon="3.26205">
        <ele>796.9</ele>
        <time>2021-08-14T10:54:33Z</time>
      </trkpt>
      <trkpt lat="44.02736" lon="3.26205">
        <ele>796.9</ele>
        <time>2021-08-14T10:54:35Z</time>
      </trkpt>
      <trkpt lat="44.02736" lon="3.26205">
        <ele>796.8</ele>
        <time>2021-08-14T10:54:37Z</time>
      </trkpt>
      <trkpt lat="44.02736" lon="3.26205">
        <ele>796.8</ele>
        <time>2021-08-14T10:54:39Z</time>
      </trkpt>
      <trkpt lat="44.02736" lon="3.26205">
        <ele>796.8</ele>
        <time>2021-08-14T10:54:41Z</time>
      </trkpt>
      <trkpt lat="44.02735" lon="3.26205">
        <ele>796.8</ele>
        <time>2021-08-14T10:54:43Z</time>
      </trkpt>
      <trkpt lat="44.02735" lon="3.26205">
        <ele>796.8</ele>
        <time>2021-08-14T10:54:45Z</time>
      </trkpt>
      <trkpt lat="44.02736" lon="3.26205">
        <ele>796.8</ele>
        <time>2021-08-14T10:54:47Z</time>
      </trkpt>
      <trkpt lat="44.02736" lon="3.26205">
        <ele>796.8</ele>
        <time>2021-08-14T10:54:51Z</time>
      </trkpt>
      <trkpt lat="44.02736" lon="3.26205">
        <ele>796.8</ele>
        <time>2021-08-14T10:54:55Z</time>
      </trkpt>
      <trkpt lat="44.02736" lon="3.26205">
        <ele>796.8</ele>
        <time>2021-08-14T10:54:59Z</time>
      </trkpt>
      <trkpt lat="44.02736" lon="3.26205">
        <ele>796.8</ele>
        <time>2021-08-14T10:55:03Z</time>
      </trkpt>
      <trkpt lat="44.02736" lon="3.26205">
        <ele>796.8</ele>
        <time>2021-08-14T10:55:07Z</time>
      </trkpt>
      <trkpt lat="44.02736" lon="3.26205">
        <ele>796.8</ele>
        <time>2021-08-14T10:55:11Z</time>
      </trkpt>
      <trkpt lat="44.02736" lon="3.26205">
        <ele>796.8</ele>
        <time>2021-08-14T10:55:15Z</time>
      </trkpt>
      <trkpt lat="44.02736" lon="3.26205">
        <ele>796.8</ele>
        <time>2021-08-14T10:55:19Z</time>
      </trkpt>
      <trkpt lat="44.02736" lon="3.26205">
        <ele>796.8</ele>
        <time>2021-08-14T10:55:23Z</time>
      </trkpt>
      <trkpt lat="44.02736" lon="3.26205">
        <ele>796.8</ele>
        <time>2021-08-14T10:55:27Z</time>
      </trkpt>
      <trkpt lat="44.02736" lon="3.26205">
        <ele>796.8</ele>
        <time>2021-08-14T10:55:31Z</time>
      </trkpt>
      <trkpt lat="44.02736" lon="3.26205">
        <ele>796.8</ele>
        <time>2021-08-14T10:55:35Z</time>
      </trkpt>
      <trkpt lat="44.02736" lon="3.26205">
        <ele>796.8</ele>
        <time>2021-08-14T10:55:39Z</time>
      </trkpt>
      <trkpt lat="44.02736" lon="3.26205">
        <ele>796.8</ele>
        <time>2021-08-14T10:55:43Z</time>
      </trkpt>
      <trkpt lat="44.02736" lon="3.26205">
        <ele>796.8</ele>
        <time>2021-08-14T10:55:47Z</time>
      </trkpt>
      <trkpt lat="44.02736" lon="3.26205">
        <ele>796.8</ele>
        <time>2021-08-14T10:55:51Z</time>
      </trkpt>
      <trkpt lat="44.02736" lon="3.26205">
        <ele>796.8</ele>
        <time>2021-08-14T10:55:55Z</time>
      </trkpt>
      <trkpt lat="44.02736" lon="3.26205">
        <ele>796.8</ele>
        <time>2021-08-14T10:55:59Z</time>
      </trkpt>
      <trkpt lat="44.02736" lon="3.26205">
        <ele>796.8</ele>
        <time>2021-08-14T10:56:03Z</time>
      </trkpt>
      <trkpt lat="44.02736" lon="3.26205">
        <ele>796.8</ele>
        <time>2021-08-14T10:56:07Z</time>
      </trkpt>
      <trkpt lat="44.02736" lon="3.26205">
        <ele>796.8</ele>
        <time>2021-08-14T10:56:11Z</time>
      </trkpt>
      <trkpt lat="44.02736" lon="3.26205">
        <ele>796.8</ele>
        <time>2021-08-14T10:56:15Z</time>
      </trkpt>
      <trkpt lat="44.02736" lon="3.26205">
        <ele>796.8</ele>
        <time>2021-08-14T10:56:19Z</time>
      </trkpt>
      <trkpt lat="44.02734" lon="3.26207">
        <ele>796.7</ele>
        <time>2021-08-14T10:56:21Z</time>
      </trkpt>
      <trkpt lat="44.02734" lon="3.26207">
        <ele>796.7</ele>
        <time>2021-08-14T10:56:23Z</time>
      </trkpt>
      <trkpt lat="44.02734" lon="3.26207">
        <ele>796.7</ele>
        <time>2021-08-14T10:56:25Z</time>
      </trkpt>
      <trkpt lat="44.02734" lon="3.26207">
        <ele>796.7</ele>
        <time>2021-08-14T10:56:27Z</time>
      </trkpt>
      <trkpt lat="44.02734" lon="3.26207">
        <ele>796.7</ele>
        <time>2021-08-14T10:56:31Z</time>
      </trkpt>
      <trkpt lat="44.02734" lon="3.26207">
        <ele>796.7</ele>
        <time>2021-08-14T10:56:35Z</time>
      </trkpt>
      <trkpt lat="44.02734" lon="3.26207">
        <ele>796.7</ele>
        <time>2021-08-14T10:56:39Z</time>
      </trkpt>
      <trkpt lat="44.02734" lon="3.26207">
        <ele>796.7</ele>
        <time>2021-08-14T10:56:43Z</time>
      </trkpt>
      <trkpt lat="44.02734" lon="3.26207">
        <ele>796.7</ele>
        <time>2021-08-14T10:56:47Z</time>
      </trkpt>
      <trkpt lat="44.02734" lon="3.26207">
        <ele>796.7</ele>
        <time>2021-08-14T10:56:51Z</time>
      </trkpt>
      <trkpt lat="44.02734" lon="3.26207">
        <ele>796.7</ele>
        <time>2021-08-14T10:56:55Z</time>
      </trkpt>
      <trkpt lat="44.02734" lon="3.26207">
        <ele>796.7</ele>
        <time>2021-08-14T10:56:59Z</time>
      </trkpt>
      <trkpt lat="44.02734" lon="3.26207">
        <ele>796.7</ele>
        <time>2021-08-14T10:57:03Z</time>
      </trkpt>
      <trkpt lat="44.02734" lon="3.26207">
        <ele>796.7</ele>
        <time>2021-08-14T10:57:07Z</time>
      </trkpt>
      <trkpt lat="44.02734" lon="3.26207">
        <ele>796.7</ele>
        <time>2021-08-14T10:57:11Z</time>
      </trkpt>
      <trkpt lat="44.02734" lon="3.26207">
        <ele>796.7</ele>
        <time>2021-08-14T10:57:15Z</time>
      </trkpt>
      <trkpt lat="44.02734" lon="3.26207">
        <ele>796.7</ele>
        <time>2021-08-14T10:57:19Z</time>
      </trkpt>
      <trkpt lat="44.02734" lon="3.26207">
        <ele>796.7</ele>
        <time>2021-08-14T10:57:23Z</time>
      </trkpt>
      <trkpt lat="44.02734" lon="3.26207">
        <ele>796.7</ele>
        <time>2021-08-14T10:57:27Z</time>
      </trkpt>
      <trkpt lat="44.02734" lon="3.26207">
        <ele>796.7</ele>
        <time>2021-08-14T10:57:31Z</time>
      </trkpt>
      <trkpt lat="44.02734" lon="3.26207">
        <ele>796.7</ele>
        <time>2021-08-14T10:57:35Z</time>
      </trkpt>
      <trkpt lat="44.02734" lon="3.26207">
        <ele>796.7</ele>
        <time>2021-08-14T10:57:39Z</time>
      </trkpt>
      <trkpt lat="44.02734" lon="3.26207">
        <ele>796.7</ele>
        <time>2021-08-14T10:57:43Z</time>
      </trkpt>
      <trkpt lat="44.02734" lon="3.26207">
        <ele>796.7</ele>
        <time>2021-08-14T10:57:47Z</time>
      </trkpt>
      <trkpt lat="44.02734" lon="3.26207">
        <ele>796.7</ele>
        <time>2021-08-14T10:57:51Z</time>
      </trkpt>
      <trkpt lat="44.02734" lon="3.26207">
        <ele>796.7</ele>
        <time>2021-08-14T10:57:55Z</time>
      </trkpt>
      <trkpt lat="44.02734" lon="3.26207">
        <ele>796.7</ele>
        <time>2021-08-14T10:57:59Z</time>
      </trkpt>
      <trkpt lat="44.02734" lon="3.26207">
        <ele>796.7</ele>
        <time>2021-08-14T10:58:03Z</time>
      </trkpt>
      <trkpt lat="44.02734" lon="3.26207">
        <ele>796.7</ele>
        <time>2021-08-14T10:58:07Z</time>
      </trkpt>
      <trkpt lat="44.02734" lon="3.26207">
        <ele>796.7</ele>
        <time>2021-08-14T10:58:11Z</time>
      </trkpt>
      <trkpt lat="44.02734" lon="3.26207">
        <ele>796.7</ele>
        <time>2021-08-14T10:58:15Z</time>
      </trkpt>
      <trkpt lat="44.02734" lon="3.26207">
        <ele>796.7</ele>
        <time>2021-08-14T10:58:19Z</time>
      </trkpt>
      <trkpt lat="44.02736" lon="3.26206">
        <ele>796.8</ele>
        <time>2021-08-14T10:58:21Z</time>
      </trkpt>
      <trkpt lat="44.02736" lon="3.26207">
        <ele>796.8</ele>
        <time>2021-08-14T10:58:23Z</time>
      </trkpt>
      <trkpt lat="44.02735" lon="3.26207">
        <ele>796.8</ele>
        <time>2021-08-14T10:58:25Z</time>
      </trkpt>
      <trkpt lat="44.02735" lon="3.26207">
        <ele>796.8</ele>
        <time>2021-08-14T10:58:27Z</time>
      </trkpt>
      <trkpt lat="44.02735" lon="3.26207">
        <ele>796.8</ele>
        <time>2021-08-14T10:58:29Z</time>
      </trkpt>
      <trkpt lat="44.02735" lon="3.26207">
        <ele>796.8</ele>
        <time>2021-08-14T10:58:33Z</time>
      </trkpt>
      <trkpt lat="44.02735" lon="3.26207">
        <ele>796.8</ele>
        <time>2021-08-14T10:58:35Z</time>
      </trkpt>
      <trkpt lat="44.02735" lon="3.26206">
        <ele>796.8</ele>
        <time>2021-08-14T10:58:37Z</time>
      </trkpt>
      <trkpt lat="44.02735" lon="3.26206">
        <ele>796.8</ele>
        <time>2021-08-14T10:58:39Z</time>
      </trkpt>
      <trkpt lat="44.02735" lon="3.26206">
        <ele>796.8</ele>
        <time>2021-08-14T10:58:41Z</time>
      </trkpt>
      <trkpt lat="44.02735" lon="3.26206">
        <ele>796.8</ele>
        <time>2021-08-14T10:58:43Z</time>
      </trkpt>
      <trkpt lat="44.02736" lon="3.26205">
        <ele>796.9</ele>
        <time>2021-08-14T10:58:45Z</time>
      </trkpt>
      <trkpt lat="44.02736" lon="3.26206">
        <ele>796.8</ele>
        <time>2021-08-14T10:58:47Z</time>
      </trkpt>
      <trkpt lat="44.02736" lon="3.26205">
        <ele>796.8</ele>
        <time>2021-08-14T10:58:49Z</time>
      </trkpt>
      <trkpt lat="44.02736" lon="3.26205">
        <ele>796.8</ele>
        <time>2021-08-14T10:58:51Z</time>
      </trkpt>
      <trkpt lat="44.02736" lon="3.26205">
        <ele>796.8</ele>
        <time>2021-08-14T10:58:53Z</time>
      </trkpt>
      <trkpt lat="44.02735" lon="3.26206">
        <ele>796.8</ele>
        <time>2021-08-14T10:58:55Z</time>
      </trkpt>
      <trkpt lat="44.02735" lon="3.26206">
        <ele>796.8</ele>
        <time>2021-08-14T10:58:57Z</time>
      </trkpt>
      <trkpt lat="44.02735" lon="3.26206">
        <ele>796.8</ele>
        <time>2021-08-14T10:59:01Z</time>
      </trkpt>
      <trkpt lat="44.02735" lon="3.26206">
        <ele>796.7</ele>
        <time>2021-08-14T10:59:03Z</time>
      </trkpt>
      <trkpt lat="44.02734" lon="3.26206">
        <ele>796.7</ele>
        <time>2021-08-14T10:59:05Z</time>
      </trkpt>
      <trkpt lat="44.02734" lon="3.26206">
        <ele>796.7</ele>
        <time>2021-08-14T10:59:07Z</time>
      </trkpt>
      <trkpt lat="44.02734" lon="3.26206">
        <ele>796.7</ele>
        <time>2021-08-14T10:59:09Z</time>
      </trkpt>
      <trkpt lat="44.02734" lon="3.26206">
        <ele>796.7</ele>
        <time>2021-08-14T10:59:11Z</time>
      </trkpt>
      <trkpt lat="44.02734" lon="3.26206">
        <ele>796.7</ele>
        <time>2021-08-14T10:59:15Z</time>
      </trkpt>
      <trkpt lat="44.02734" lon="3.26206">
        <ele>796.7</ele>
        <time>2021-08-14T10:59:19Z</time>
      </trkpt>
      <trkpt lat="44.02734" lon="3.26206">
        <ele>796.7</ele>
        <time>2021-08-14T10:59:23Z</time>
      </trkpt>
      <trkpt lat="44.02734" lon="3.26206">
        <ele>796.7</ele>
        <time>2021-08-14T10:59:27Z</time>
      </trkpt>
      <trkpt lat="44.02734" lon="3.26206">
        <ele>796.7</ele>
        <time>2021-08-14T10:59:31Z</time>
      </trkpt>
      <trkpt lat="44.02733" lon="3.26207">
        <ele>796.6</ele>
        <time>2021-08-14T10:59:33Z</time>
      </trkpt>
      <trkpt lat="44.02733" lon="3.26207">
        <ele>796.6</ele>
        <time>2021-08-14T10:59:35Z</time>
      </trkpt>
      <trkpt lat="44.02734" lon="3.26206">
        <ele>796.6</ele>
        <time>2021-08-14T10:59:37Z</time>
      </trkpt>
      <trkpt lat="44.02733" lon="3.26206">
        <ele>796.6</ele>
        <time>2021-08-14T10:59:39Z</time>
      </trkpt>
      <trkpt lat="44.02733" lon="3.26207">
        <ele>796.6</ele>
        <time>2021-08-14T10:59:41Z</time>
      </trkpt>
      <trkpt lat="44.02733" lon="3.26207">
        <ele>796.6</ele>
        <time>2021-08-14T10:59:43Z</time>
      </trkpt>
      <trkpt lat="44.02734" lon="3.26207">
        <ele>796.6</ele>
        <time>2021-08-14T10:59:45Z</time>
      </trkpt>
      <trkpt lat="44.02734" lon="3.26207">
        <ele>796.7</ele>
        <time>2021-08-14T10:59:47Z</time>
      </trkpt>
      <trkpt lat="44.02734" lon="3.26207">
        <ele>796.7</ele>
        <time>2021-08-14T10:59:49Z</time>
      </trkpt>
      <trkpt lat="44.02734" lon="3.26207">
        <ele>796.6</ele>
        <time>2021-08-14T10:59:51Z</time>
      </trkpt>
      <trkpt lat="44.02734" lon="3.26207">
        <ele>796.7</ele>
        <time>2021-08-14T10:59:53Z</time>
      </trkpt>
      <trkpt lat="44.02734" lon="3.26207">
        <ele>796.7</ele>
        <time>2021-08-14T10:59:57Z</time>
      </trkpt>
      <trkpt lat="44.02734" lon="3.26207">
        <ele>796.7</ele>
        <time>2021-08-14T11:00:01Z</time>
      </trkpt>
      <trkpt lat="44.02734" lon="3.26207">
        <ele>796.7</ele>
        <time>2021-08-14T11:00:05Z</time>
      </trkpt>
      <trkpt lat="44.02734" lon="3.26207">
        <ele>796.7</ele>
        <time>2021-08-14T11:00:09Z</time>
      </trkpt>
      <trkpt lat="44.02734" lon="3.26207">
        <ele>796.7</ele>
        <time>2021-08-14T11:00:13Z</time>
      </trkpt>
      <trkpt lat="44.02734" lon="3.26207">
        <ele>796.7</ele>
        <time>2021-08-14T11:00:17Z</time>
      </trkpt>
      <trkpt lat="44.02734" lon="3.26207">
        <ele>796.7</ele>
        <time>2021-08-14T11:00:21Z</time>
      </trkpt>
      <trkpt lat="44.02734" lon="3.26207">
        <ele>796.7</ele>
        <time>2021-08-14T11:00:23Z</time>
      </trkpt>
      <trkpt lat="44.02734" lon="3.26207">
        <ele>796.7</ele>
        <time>2021-08-14T11:00:25Z</time>
      </trkpt>
      <trkpt lat="44.02734" lon="3.26207">
        <ele>796.7</ele>
        <time>2021-08-14T11:00:27Z</time>
      </trkpt>
      <trkpt lat="44.02734" lon="3.26207">
        <ele>796.7</ele>
        <time>2021-08-14T11:00:31Z</time>
      </trkpt>
      <trkpt lat="44.02735" lon="3.26207">
        <ele>796.7</ele>
        <time>2021-08-14T11:00:35Z</time>
      </trkpt>
      <trkpt lat="44.02735" lon="3.26207">
        <ele>796.7</ele>
        <time>2021-08-14T11:00:37Z</time>
      </trkpt>
      <trkpt lat="44.02735" lon="3.26207">
        <ele>796.7</ele>
        <time>2021-08-14T11:00:41Z</time>
      </trkpt>
      <trkpt lat="44.02735" lon="3.26207">
        <ele>796.7</ele>
        <time>2021-08-14T11:00:45Z</time>
      </trkpt>
      <trkpt lat="44.02735" lon="3.26207">
        <ele>796.7</ele>
        <time>2021-08-14T11:00:49Z</time>
      </trkpt>
      <trkpt lat="44.02735" lon="3.26208">
        <ele>796.7</ele>
        <time>2021-08-14T11:00:51Z</time>
      </trkpt>
      <trkpt lat="44.02735" lon="3.26208">
        <ele>796.7</ele>
        <time>2021-08-14T11:00:53Z</time>
      </trkpt>
      <trkpt lat="44.02735" lon="3.26208">
        <ele>796.7</ele>
        <time>2021-08-14T11:00:57Z</time>
      </trkpt>
      <trkpt lat="44.02735" lon="3.26208">
        <ele>796.7</ele>
        <time>2021-08-14T11:01:01Z</time>
      </trkpt>
      <trkpt lat="44.02735" lon="3.26208">
        <ele>796.7</ele>
        <time>2021-08-14T11:01:05Z</time>
      </trkpt>
      <trkpt lat="44.02735" lon="3.26208">
        <ele>796.7</ele>
        <time>2021-08-14T11:01:09Z</time>
      </trkpt>
      <trkpt lat="44.02735" lon="3.26208">
        <ele>796.7</ele>
        <time>2021-08-14T11:01:13Z</time>
      </trkpt>
      <trkpt lat="44.02735" lon="3.26208">
        <ele>796.7</ele>
        <time>2021-08-14T11:01:17Z</time>
      </trkpt>
      <trkpt lat="44.02735" lon="3.26208">
        <ele>796.7</ele>
        <time>2021-08-14T11:01:21Z</time>
      </trkpt>
      <trkpt lat="44.02735" lon="3.26208">
        <ele>796.7</ele>
        <time>2021-08-14T11:01:25Z</time>
      </trkpt>
      <trkpt lat="44.02735" lon="3.26208">
        <ele>796.7</ele>
        <time>2021-08-14T11:01:29Z</time>
      </trkpt>
      <trkpt lat="44.02735" lon="3.26208">
        <ele>796.7</ele>
        <time>2021-08-14T11:01:33Z</time>
      </trkpt>
      <trkpt lat="44.02735" lon="3.26208">
        <ele>796.7</ele>
        <time>2021-08-14T11:01:37Z</time>
      </trkpt>
      <trkpt lat="44.02735" lon="3.26208">
        <ele>796.7</ele>
        <time>2021-08-14T11:01:41Z</time>
      </trkpt>
      <trkpt lat="44.02735" lon="3.26208">
        <ele>796.7</ele>
        <time>2021-08-14T11:01:45Z</time>
      </trkpt>
      <trkpt lat="44.02735" lon="3.26208">
        <ele>796.7</ele>
        <time>2021-08-14T11:01:49Z</time>
      </trkpt>
      <trkpt lat="44.02735" lon="3.26208">
        <ele>796.7</ele>
        <time>2021-08-14T11:01:53Z</time>
      </trkpt>
      <trkpt lat="44.02735" lon="3.26208">
        <ele>796.7</ele>
        <time>2021-08-14T11:01:57Z</time>
      </trkpt>
      <trkpt lat="44.02735" lon="3.26208">
        <ele>796.7</ele>
        <time>2021-08-14T11:02:01Z</time>
      </trkpt>
      <trkpt lat="44.02735" lon="3.26208">
        <ele>796.7</ele>
        <time>2021-08-14T11:02:05Z</time>
      </trkpt>
      <trkpt lat="44.02735" lon="3.26208">
        <ele>796.7</ele>
        <time>2021-08-14T11:02:09Z</time>
      </trkpt>
      <trkpt lat="44.02735" lon="3.26208">
        <ele>796.7</ele>
        <time>2021-08-14T11:02:13Z</time>
      </trkpt>
      <trkpt lat="44.02735" lon="3.26208">
        <ele>796.7</ele>
        <time>2021-08-14T11:02:17Z</time>
      </trkpt>
      <trkpt lat="44.02735" lon="3.26208">
        <ele>796.7</ele>
        <time>2021-08-14T11:02:21Z</time>
      </trkpt>
      <trkpt lat="44.02735" lon="3.26208">
        <ele>796.7</ele>
        <time>2021-08-14T11:02:25Z</time>
      </trkpt>
      <trkpt lat="44.02735" lon="3.26208">
        <ele>796.7</ele>
        <time>2021-08-14T11:02:29Z</time>
      </trkpt>
      <trkpt lat="44.02735" lon="3.26208">
        <ele>796.7</ele>
        <time>2021-08-14T11:02:33Z</time>
      </trkpt>
      <trkpt lat="44.02735" lon="3.26208">
        <ele>796.7</ele>
        <time>2021-08-14T11:02:37Z</time>
      </trkpt>
      <trkpt lat="44.02735" lon="3.26208">
        <ele>796.7</ele>
        <time>2021-08-14T11:02:41Z</time>
      </trkpt>
      <trkpt lat="44.02735" lon="3.26208">
        <ele>796.7</ele>
        <time>2021-08-14T11:02:45Z</time>
      </trkpt>
      <trkpt lat="44.02735" lon="3.26208">
        <ele>796.7</ele>
        <time>2021-08-14T11:02:49Z</time>
      </trkpt>
      <trkpt lat="44.02735" lon="3.26208">
        <ele>796.7</ele>
        <time>2021-08-14T11:02:53Z</time>
      </trkpt>
      <trkpt lat="44.02735" lon="3.26208">
        <ele>796.7</ele>
        <time>2021-08-14T11:02:57Z</time>
      </trkpt>
      <trkpt lat="44.02735" lon="3.26208">
        <ele>796.7</ele>
        <time>2021-08-14T11:03:01Z</time>
      </trkpt>
      <trkpt lat="44.02735" lon="3.26208">
        <ele>796.7</ele>
        <time>2021-08-14T11:03:05Z</time>
      </trkpt>
      <trkpt lat="44.02735" lon="3.26208">
        <ele>796.7</ele>
        <time>2021-08-14T11:03:09Z</time>
      </trkpt>
      <trkpt lat="44.02735" lon="3.26208">
        <ele>796.7</ele>
        <time>2021-08-14T11:03:13Z</time>
      </trkpt>
      <trkpt lat="44.02735" lon="3.26208">
        <ele>796.7</ele>
        <time>2021-08-14T11:03:17Z</time>
      </trkpt>
      <trkpt lat="44.02735" lon="3.26208">
        <ele>796.7</ele>
        <time>2021-08-14T11:03:21Z</time>
      </trkpt>
      <trkpt lat="44.02735" lon="3.26208">
        <ele>796.7</ele>
        <time>2021-08-14T11:03:25Z</time>
      </trkpt>
      <trkpt lat="44.02735" lon="3.26208">
        <ele>796.7</ele>
        <time>2021-08-14T11:03:29Z</time>
      </trkpt>
      <trkpt lat="44.02735" lon="3.26208">
        <ele>796.7</ele>
        <time>2021-08-14T11:03:33Z</time>
      </trkpt>
      <trkpt lat="44.02735" lon="3.26208">
        <ele>796.7</ele>
        <time>2021-08-14T11:03:37Z</time>
      </trkpt>
      <trkpt lat="44.02735" lon="3.26208">
        <ele>796.7</ele>
        <time>2021-08-14T11:03:41Z</time>
      </trkpt>
      <trkpt lat="44.02735" lon="3.26208">
        <ele>796.7</ele>
        <time>2021-08-14T11:03:45Z</time>
      </trkpt>
      <trkpt lat="44.02735" lon="3.26208">
        <ele>796.7</ele>
        <time>2021-08-14T11:03:49Z</time>
      </trkpt>
      <trkpt lat="44.02735" lon="3.26208">
        <ele>796.7</ele>
        <time>2021-08-14T11:03:53Z</time>
      </trkpt>
      <trkpt lat="44.02735" lon="3.26208">
        <ele>796.7</ele>
        <time>2021-08-14T11:03:57Z</time>
      </trkpt>
      <trkpt lat="44.02735" lon="3.26208">
        <ele>796.7</ele>
        <time>2021-08-14T11:04:01Z</time>
      </trkpt>
      <trkpt lat="44.02735" lon="3.26209">
        <ele>796.8</ele>
        <time>2021-08-14T11:04:05Z</time>
      </trkpt>
      <trkpt lat="44.02735" lon="3.26209">
        <ele>796.8</ele>
        <time>2021-08-14T11:04:07Z</time>
      </trkpt>
      <trkpt lat="44.02735" lon="3.26208">
        <ele>796.8</ele>
        <time>2021-08-14T11:04:09Z</time>
      </trkpt>
      <trkpt lat="44.02735" lon="3.26208">
        <ele>796.8</ele>
        <time>2021-08-14T11:04:11Z</time>
      </trkpt>
      <trkpt lat="44.02735" lon="3.26208">
        <ele>796.8</ele>
        <time>2021-08-14T11:04:13Z</time>
      </trkpt>
      <trkpt lat="44.02735" lon="3.26208">
        <ele>796.8</ele>
        <time>2021-08-14T11:04:17Z</time>
      </trkpt>
      <trkpt lat="44.02735" lon="3.26208">
        <ele>796.8</ele>
        <time>2021-08-14T11:04:21Z</time>
      </trkpt>
      <trkpt lat="44.02735" lon="3.26208">
        <ele>796.8</ele>
        <time>2021-08-14T11:04:25Z</time>
      </trkpt>
      <trkpt lat="44.02735" lon="3.26208">
        <ele>796.8</ele>
        <time>2021-08-14T11:04:29Z</time>
      </trkpt>
      <trkpt lat="44.02735" lon="3.26208">
        <ele>796.8</ele>
        <time>2021-08-14T11:04:33Z</time>
      </trkpt>
      <trkpt lat="44.02735" lon="3.26208">
        <ele>796.8</ele>
        <time>2021-08-14T11:04:37Z</time>
      </trkpt>
      <trkpt lat="44.02735" lon="3.26208">
        <ele>796.8</ele>
        <time>2021-08-14T11:04:41Z</time>
      </trkpt>
      <trkpt lat="44.02735" lon="3.26208">
        <ele>796.8</ele>
        <time>2021-08-14T11:04:45Z</time>
      </trkpt>
      <trkpt lat="44.02735" lon="3.26208">
        <ele>796.8</ele>
        <time>2021-08-14T11:04:49Z</time>
      </trkpt>
      <trkpt lat="44.02735" lon="3.26208">
        <ele>796.8</ele>
        <time>2021-08-14T11:04:53Z</time>
      </trkpt>
      <trkpt lat="44.02735" lon="3.26208">
        <ele>796.8</ele>
        <time>2021-08-14T11:04:57Z</time>
      </trkpt>
      <trkpt lat="44.02735" lon="3.26208">
        <ele>796.8</ele>
        <time>2021-08-14T11:05:01Z</time>
      </trkpt>
      <trkpt lat="44.02735" lon="3.26208">
        <ele>796.8</ele>
        <time>2021-08-14T11:05:05Z</time>
      </trkpt>
      <trkpt lat="44.02735" lon="3.26208">
        <ele>796.8</ele>
        <time>2021-08-14T11:05:09Z</time>
      </trkpt>
      <trkpt lat="44.02735" lon="3.26208">
        <ele>796.8</ele>
        <time>2021-08-14T11:05:13Z</time>
      </trkpt>
      <trkpt lat="44.02735" lon="3.26208">
        <ele>796.8</ele>
        <time>2021-08-14T11:05:17Z</time>
      </trkpt>
      <trkpt lat="44.02735" lon="3.26208">
        <ele>796.8</ele>
        <time>2021-08-14T11:05:21Z</time>
      </trkpt>
      <trkpt lat="44.02735" lon="3.26208">
        <ele>796.8</ele>
        <time>2021-08-14T11:05:25Z</time>
      </trkpt>
      <trkpt lat="44.02735" lon="3.26208">
        <ele>796.8</ele>
        <time>2021-08-14T11:05:29Z</time>
      </trkpt>
      <trkpt lat="44.02735" lon="3.26208">
        <ele>796.8</ele>
        <time>2021-08-14T11:05:33Z</time>
      </trkpt>
      <trkpt lat="44.02735" lon="3.26208">
        <ele>796.8</ele>
        <time>2021-08-14T11:05:37Z</time>
      </trkpt>
      <trkpt lat="44.02735" lon="3.26208">
        <ele>796.8</ele>
        <time>2021-08-14T11:05:41Z</time>
      </trkpt>
      <trkpt lat="44.02735" lon="3.26208">
        <ele>796.8</ele>
        <time>2021-08-14T11:05:45Z</time>
      </trkpt>
      <trkpt lat="44.02735" lon="3.26208">
        <ele>796.8</ele>
        <time>2021-08-14T11:05:49Z</time>
      </trkpt>
      <trkpt lat="44.02735" lon="3.26208">
        <ele>796.8</ele>
        <time>2021-08-14T11:05:53Z</time>
      </trkpt>
      <trkpt lat="44.02735" lon="3.26208">
        <ele>796.8</ele>
        <time>2021-08-14T11:05:57Z</time>
      </trkpt>
      <trkpt lat="44.02735" lon="3.26208">
        <ele>796.8</ele>
        <time>2021-08-14T11:06:01Z</time>
      </trkpt>
      <trkpt lat="44.02735" lon="3.26208">
        <ele>796.8</ele>
        <time>2021-08-14T11:06:05Z</time>
      </trkpt>
      <trkpt lat="44.02735" lon="3.26208">
        <ele>796.8</ele>
        <time>2021-08-14T11:06:09Z</time>
      </trkpt>
      <trkpt lat="44.02735" lon="3.26208">
        <ele>796.8</ele>
        <time>2021-08-14T11:06:13Z</time>
      </trkpt>
      <trkpt lat="44.02735" lon="3.26208">
        <ele>796.8</ele>
        <time>2021-08-14T11:06:17Z</time>
      </trkpt>
      <trkpt lat="44.02735" lon="3.26208">
        <ele>796.8</ele>
        <time>2021-08-14T11:06:21Z</time>
      </trkpt>
      <trkpt lat="44.02735" lon="3.26208">
        <ele>796.8</ele>
        <time>2021-08-14T11:06:25Z</time>
      </trkpt>
      <trkpt lat="44.02735" lon="3.26208">
        <ele>796.8</ele>
        <time>2021-08-14T11:06:29Z</time>
      </trkpt>
      <trkpt lat="44.02735" lon="3.26208">
        <ele>796.8</ele>
        <time>2021-08-14T11:06:33Z</time>
      </trkpt>
      <trkpt lat="44.02735" lon="3.26208">
        <ele>796.8</ele>
        <time>2021-08-14T11:06:37Z</time>
      </trkpt>
      <trkpt lat="44.02735" lon="3.26208">
        <ele>796.8</ele>
        <time>2021-08-14T11:06:41Z</time>
      </trkpt>
      <trkpt lat="44.02735" lon="3.26208">
        <ele>796.8</ele>
        <time>2021-08-14T11:06:45Z</time>
      </trkpt>
      <trkpt lat="44.02735" lon="3.26208">
        <ele>796.8</ele>
        <time>2021-08-14T11:06:49Z</time>
      </trkpt>
      <trkpt lat="44.02735" lon="3.26208">
        <ele>796.8</ele>
        <time>2021-08-14T11:06:53Z</time>
      </trkpt>
      <trkpt lat="44.02735" lon="3.26208">
        <ele>796.8</ele>
        <time>2021-08-14T11:06:57Z</time>
      </trkpt>
      <trkpt lat="44.02735" lon="3.26208">
        <ele>796.8</ele>
        <time>2021-08-14T11:07:01Z</time>
      </trkpt>
      <trkpt lat="44.02735" lon="3.26208">
        <ele>796.8</ele>
        <time>2021-08-14T11:07:05Z</time>
      </trkpt>
      <trkpt lat="44.02735" lon="3.26208">
        <ele>796.8</ele>
        <time>2021-08-14T11:07:09Z</time>
      </trkpt>
      <trkpt lat="44.02735" lon="3.26208">
        <ele>796.8</ele>
        <time>2021-08-14T11:07:13Z</time>
      </trkpt>
      <trkpt lat="44.02735" lon="3.26208">
        <ele>796.8</ele>
        <time>2021-08-14T11:07:17Z</time>
      </trkpt>
      <trkpt lat="44.02735" lon="3.26208">
        <ele>796.8</ele>
        <time>2021-08-14T11:07:21Z</time>
      </trkpt>
      <trkpt lat="44.02735" lon="3.26208">
        <ele>796.8</ele>
        <time>2021-08-14T11:07:25Z</time>
      </trkpt>
      <trkpt lat="44.02735" lon="3.26208">
        <ele>796.8</ele>
        <time>2021-08-14T11:07:29Z</time>
      </trkpt>
      <trkpt lat="44.02735" lon="3.26208">
        <ele>796.8</ele>
        <time>2021-08-14T11:07:33Z</time>
      </trkpt>
      <trkpt lat="44.02735" lon="3.26208">
        <ele>796.8</ele>
        <time>2021-08-14T11:07:37Z</time>
      </trkpt>
      <trkpt lat="44.02735" lon="3.26208">
        <ele>796.8</ele>
        <time>2021-08-14T11:07:41Z</time>
      </trkpt>
      <trkpt lat="44.02735" lon="3.26208">
        <ele>796.8</ele>
        <time>2021-08-14T11:07:45Z</time>
      </trkpt>
      <trkpt lat="44.02735" lon="3.26208">
        <ele>796.8</ele>
        <time>2021-08-14T11:07:49Z</time>
      </trkpt>
      <trkpt lat="44.02735" lon="3.26208">
        <ele>796.8</ele>
        <time>2021-08-14T11:07:53Z</time>
      </trkpt>
      <trkpt lat="44.02735" lon="3.26208">
        <ele>796.8</ele>
        <time>2021-08-14T11:07:57Z</time>
      </trkpt>
      <trkpt lat="44.02735" lon="3.26208">
        <ele>796.8</ele>
        <time>2021-08-14T11:08:01Z</time>
      </trkpt>
      <trkpt lat="44.02735" lon="3.26208">
        <ele>796.8</ele>
        <time>2021-08-14T11:08:05Z</time>
      </trkpt>
      <trkpt lat="44.02735" lon="3.26208">
        <ele>796.8</ele>
        <time>2021-08-14T11:08:09Z</time>
      </trkpt>
      <trkpt lat="44.02735" lon="3.26208">
        <ele>796.8</ele>
        <time>2021-08-14T11:08:13Z</time>
      </trkpt>
      <trkpt lat="44.02735" lon="3.26208">
        <ele>796.8</ele>
        <time>2021-08-14T11:08:17Z</time>
      </trkpt>
      <trkpt lat="44.02735" lon="3.26208">
        <ele>796.8</ele>
        <time>2021-08-14T11:08:21Z</time>
      </trkpt>
      <trkpt lat="44.02735" lon="3.26208">
        <ele>796.8</ele>
        <time>2021-08-14T11:08:25Z</time>
      </trkpt>
      <trkpt lat="44.02735" lon="3.26208">
        <ele>796.8</ele>
        <time>2021-08-14T11:08:29Z</time>
      </trkpt>
      <trkpt lat="44.02735" lon="3.26208">
        <ele>796.8</ele>
        <time>2021-08-14T11:08:33Z</time>
      </trkpt>
      <trkpt lat="44.02735" lon="3.26208">
        <ele>796.8</ele>
        <time>2021-08-14T11:08:37Z</time>
      </trkpt>
      <trkpt lat="44.02735" lon="3.26208">
        <ele>796.8</ele>
        <time>2021-08-14T11:08:41Z</time>
      </trkpt>
      <trkpt lat="44.02735" lon="3.26208">
        <ele>796.8</ele>
        <time>2021-08-14T11:08:45Z</time>
      </trkpt>
      <trkpt lat="44.02735" lon="3.26208">
        <ele>796.8</ele>
        <time>2021-08-14T11:08:49Z</time>
      </trkpt>
      <trkpt lat="44.02735" lon="3.26208">
        <ele>796.8</ele>
        <time>2021-08-14T11:08:53Z</time>
      </trkpt>
      <trkpt lat="44.02735" lon="3.26208">
        <ele>796.8</ele>
        <time>2021-08-14T11:08:57Z</time>
      </trkpt>
      <trkpt lat="44.02735" lon="3.26208">
        <ele>796.8</ele>
        <time>2021-08-14T11:09:01Z</time>
      </trkpt>
      <trkpt lat="44.02735" lon="3.26208">
        <ele>796.8</ele>
        <time>2021-08-14T11:09:05Z</time>
      </trkpt>
      <trkpt lat="44.02735" lon="3.26208">
        <ele>796.8</ele>
        <time>2021-08-14T11:09:09Z</time>
      </trkpt>
      <trkpt lat="44.02735" lon="3.26208">
        <ele>796.8</ele>
        <time>2021-08-14T11:09:13Z</time>
      </trkpt>
      <trkpt lat="44.02735" lon="3.26208">
        <ele>796.8</ele>
        <time>2021-08-14T11:09:17Z</time>
      </trkpt>
      <trkpt lat="44.02735" lon="3.26208">
        <ele>796.8</ele>
        <time>2021-08-14T11:09:21Z</time>
      </trkpt>
      <trkpt lat="44.02735" lon="3.26208">
        <ele>796.8</ele>
        <time>2021-08-14T11:09:25Z</time>
      </trkpt>
      <trkpt lat="44.02735" lon="3.26208">
        <ele>796.8</ele>
        <time>2021-08-14T11:09:29Z</time>
      </trkpt>
      <trkpt lat="44.02735" lon="3.26208">
        <ele>796.8</ele>
        <time>2021-08-14T11:09:33Z</time>
      </trkpt>
      <trkpt lat="44.02735" lon="3.26208">
        <ele>796.8</ele>
        <time>2021-08-14T11:09:37Z</time>
      </trkpt>
      <trkpt lat="44.02735" lon="3.26208">
        <ele>796.8</ele>
        <time>2021-08-14T11:09:41Z</time>
      </trkpt>
      <trkpt lat="44.02735" lon="3.26208">
        <ele>796.8</ele>
        <time>2021-08-14T11:09:45Z</time>
      </trkpt>
      <trkpt lat="44.02735" lon="3.26208">
        <ele>796.8</ele>
        <time>2021-08-14T11:09:49Z</time>
      </trkpt>
      <trkpt lat="44.02735" lon="3.26208">
        <ele>796.8</ele>
        <time>2021-08-14T11:09:53Z</time>
      </trkpt>
      <trkpt lat="44.02735" lon="3.26208">
        <ele>796.8</ele>
        <time>2021-08-14T11:09:57Z</time>
      </trkpt>
      <trkpt lat="44.02735" lon="3.26208">
        <ele>796.8</ele>
        <time>2021-08-14T11:10:01Z</time>
      </trkpt>
      <trkpt lat="44.02735" lon="3.26208">
        <ele>796.8</ele>
        <time>2021-08-14T11:10:05Z</time>
      </trkpt>
      <trkpt lat="44.02735" lon="3.26208">
        <ele>796.8</ele>
        <time>2021-08-14T11:10:09Z</time>
      </trkpt>
      <trkpt lat="44.02735" lon="3.26208">
        <ele>796.8</ele>
        <time>2021-08-14T11:10:13Z</time>
      </trkpt>
      <trkpt lat="44.02735" lon="3.26208">
        <ele>796.8</ele>
        <time>2021-08-14T11:10:17Z</time>
      </trkpt>
      <trkpt lat="44.02735" lon="3.26208">
        <ele>796.8</ele>
        <time>2021-08-14T11:10:21Z</time>
      </trkpt>
      <trkpt lat="44.02735" lon="3.26208">
        <ele>796.8</ele>
        <time>2021-08-14T11:10:25Z</time>
      </trkpt>
      <trkpt lat="44.02735" lon="3.26208">
        <ele>796.8</ele>
        <time>2021-08-14T11:10:29Z</time>
      </trkpt>
      <trkpt lat="44.02735" lon="3.26208">
        <ele>796.8</ele>
        <time>2021-08-14T11:10:33Z</time>
      </trkpt>
      <trkpt lat="44.02735" lon="3.26208">
        <ele>796.8</ele>
        <time>2021-08-14T11:10:37Z</time>
      </trkpt>
      <trkpt lat="44.02735" lon="3.26208">
        <ele>796.8</ele>
        <time>2021-08-14T11:10:41Z</time>
      </trkpt>
      <trkpt lat="44.02735" lon="3.26208">
        <ele>796.8</ele>
        <time>2021-08-14T11:10:45Z</time>
      </trkpt>
      <trkpt lat="44.02735" lon="3.26208">
        <ele>796.8</ele>
        <time>2021-08-14T11:10:49Z</time>
      </trkpt>
      <trkpt lat="44.02735" lon="3.26208">
        <ele>796.8</ele>
        <time>2021-08-14T11:10:53Z</time>
      </trkpt>
      <trkpt lat="44.02735" lon="3.26208">
        <ele>796.8</ele>
        <time>2021-08-14T11:10:57Z</time>
      </trkpt>
      <trkpt lat="44.02735" lon="3.26208">
        <ele>796.8</ele>
        <time>2021-08-14T11:11:01Z</time>
      </trkpt>
      <trkpt lat="44.02735" lon="3.26208">
        <ele>796.8</ele>
        <time>2021-08-14T11:11:05Z</time>
      </trkpt>
      <trkpt lat="44.02735" lon="3.26208">
        <ele>796.8</ele>
        <time>2021-08-14T11:11:09Z</time>
      </trkpt>
      <trkpt lat="44.02735" lon="3.26208">
        <ele>796.8</ele>
        <time>2021-08-14T11:11:13Z</time>
      </trkpt>
      <trkpt lat="44.02735" lon="3.26208">
        <ele>796.8</ele>
        <time>2021-08-14T11:11:17Z</time>
      </trkpt>
      <trkpt lat="44.02735" lon="3.26208">
        <ele>796.8</ele>
        <time>2021-08-14T11:11:21Z</time>
      </trkpt>
      <trkpt lat="44.02735" lon="3.26208">
        <ele>796.8</ele>
        <time>2021-08-14T11:11:25Z</time>
      </trkpt>
      <trkpt lat="44.02735" lon="3.26208">
        <ele>796.8</ele>
        <time>2021-08-14T11:11:29Z</time>
      </trkpt>
      <trkpt lat="44.02735" lon="3.26208">
        <ele>796.8</ele>
        <time>2021-08-14T11:11:33Z</time>
      </trkpt>
      <trkpt lat="44.02735" lon="3.26208">
        <ele>796.8</ele>
        <time>2021-08-14T11:11:37Z</time>
      </trkpt>
      <trkpt lat="44.02735" lon="3.26208">
        <ele>796.8</ele>
        <time>2021-08-14T11:11:41Z</time>
      </trkpt>
      <trkpt lat="44.02735" lon="3.26208">
        <ele>796.8</ele>
        <time>2021-08-14T11:11:45Z</time>
      </trkpt>
      <trkpt lat="44.02735" lon="3.26208">
        <ele>796.8</ele>
        <time>2021-08-14T11:11:49Z</time>
      </trkpt>
      <trkpt lat="44.02735" lon="3.26208">
        <ele>796.8</ele>
        <time>2021-08-14T11:11:53Z</time>
      </trkpt>
      <trkpt lat="44.02735" lon="3.26208">
        <ele>796.8</ele>
        <time>2021-08-14T11:11:57Z</time>
      </trkpt>
      <trkpt lat="44.02735" lon="3.26208">
        <ele>796.8</ele>
        <time>2021-08-14T11:12:01Z</time>
      </trkpt>
      <trkpt lat="44.02735" lon="3.26208">
        <ele>796.8</ele>
        <time>2021-08-14T11:12:05Z</time>
      </trkpt>
      <trkpt lat="44.02735" lon="3.26208">
        <ele>796.8</ele>
        <time>2021-08-14T11:12:09Z</time>
      </trkpt>
      <trkpt lat="44.02735" lon="3.26208">
        <ele>796.8</ele>
        <time>2021-08-14T11:12:13Z</time>
      </trkpt>
      <trkpt lat="44.02735" lon="3.26208">
        <ele>796.8</ele>
        <time>2021-08-14T11:12:17Z</time>
      </trkpt>
      <trkpt lat="44.02735" lon="3.26208">
        <ele>796.8</ele>
        <time>2021-08-14T11:12:21Z</time>
      </trkpt>
      <trkpt lat="44.02735" lon="3.26208">
        <ele>796.8</ele>
        <time>2021-08-14T11:12:25Z</time>
      </trkpt>
      <trkpt lat="44.02735" lon="3.26208">
        <ele>796.8</ele>
        <time>2021-08-14T11:12:29Z</time>
      </trkpt>
      <trkpt lat="44.02735" lon="3.26208">
        <ele>796.8</ele>
        <time>2021-08-14T11:12:33Z</time>
      </trkpt>
      <trkpt lat="44.02735" lon="3.26208">
        <ele>796.8</ele>
        <time>2021-08-14T11:12:37Z</time>
      </trkpt>
      <trkpt lat="44.02735" lon="3.26208">
        <ele>796.8</ele>
        <time>2021-08-14T11:12:41Z</time>
      </trkpt>
      <trkpt lat="44.02735" lon="3.26208">
        <ele>796.8</ele>
        <time>2021-08-14T11:12:45Z</time>
      </trkpt>
      <trkpt lat="44.02735" lon="3.26208">
        <ele>796.8</ele>
        <time>2021-08-14T11:12:49Z</time>
      </trkpt>
      <trkpt lat="44.02735" lon="3.26208">
        <ele>796.8</ele>
        <time>2021-08-14T11:12:53Z</time>
      </trkpt>
      <trkpt lat="44.02735" lon="3.26208">
        <ele>796.8</ele>
        <time>2021-08-14T11:12:57Z</time>
      </trkpt>
      <trkpt lat="44.02735" lon="3.26208">
        <ele>796.8</ele>
        <time>2021-08-14T11:13:01Z</time>
      </trkpt>
      <trkpt lat="44.02735" lon="3.26208">
        <ele>796.8</ele>
        <time>2021-08-14T11:13:05Z</time>
      </trkpt>
      <trkpt lat="44.02735" lon="3.26208">
        <ele>796.8</ele>
        <time>2021-08-14T11:13:09Z</time>
      </trkpt>
      <trkpt lat="44.02735" lon="3.26208">
        <ele>796.8</ele>
        <time>2021-08-14T11:13:13Z</time>
      </trkpt>
      <trkpt lat="44.02735" lon="3.26208">
        <ele>796.8</ele>
        <time>2021-08-14T11:13:17Z</time>
      </trkpt>
      <trkpt lat="44.02735" lon="3.26208">
        <ele>796.8</ele>
        <time>2021-08-14T11:13:21Z</time>
      </trkpt>
      <trkpt lat="44.02735" lon="3.26208">
        <ele>796.8</ele>
        <time>2021-08-14T11:13:25Z</time>
      </trkpt>
      <trkpt lat="44.02735" lon="3.26208">
        <ele>796.8</ele>
        <time>2021-08-14T11:13:29Z</time>
      </trkpt>
      <trkpt lat="44.02735" lon="3.26208">
        <ele>796.8</ele>
        <time>2021-08-14T11:13:33Z</time>
      </trkpt>
      <trkpt lat="44.02735" lon="3.26208">
        <ele>796.8</ele>
        <time>2021-08-14T11:13:37Z</time>
      </trkpt>
      <trkpt lat="44.02735" lon="3.26208">
        <ele>796.8</ele>
        <time>2021-08-14T11:13:41Z</time>
      </trkpt>
      <trkpt lat="44.02735" lon="3.26208">
        <ele>796.8</ele>
        <time>2021-08-14T11:13:45Z</time>
      </trkpt>
      <trkpt lat="44.02735" lon="3.26208">
        <ele>796.8</ele>
        <time>2021-08-14T11:13:49Z</time>
      </trkpt>
      <trkpt lat="44.02735" lon="3.26208">
        <ele>796.8</ele>
        <time>2021-08-14T11:13:53Z</time>
      </trkpt>
      <trkpt lat="44.02735" lon="3.26208">
        <ele>796.8</ele>
        <time>2021-08-14T11:13:57Z</time>
      </trkpt>
      <trkpt lat="44.02735" lon="3.26206">
        <ele>796.8</ele>
        <time>2021-08-14T11:14:01Z</time>
      </trkpt>
      <trkpt lat="44.02736" lon="3.26206">
        <ele>796.8</ele>
        <time>2021-08-14T11:14:03Z</time>
      </trkpt>
      <trkpt lat="44.02736" lon="3.26206">
        <ele>796.8</ele>
        <time>2021-08-14T11:14:05Z</time>
      </trkpt>
      <trkpt lat="44.02736" lon="3.26206">
        <ele>796.8</ele>
        <time>2021-08-14T11:14:09Z</time>
      </trkpt>
      <trkpt lat="44.02736" lon="3.26206">
        <ele>796.8</ele>
        <time>2021-08-14T11:14:13Z</time>
      </trkpt>
      <trkpt lat="44.02736" lon="3.26206">
        <ele>796.8</ele>
        <time>2021-08-14T11:14:17Z</time>
      </trkpt>
      <trkpt lat="44.02736" lon="3.26206">
        <ele>796.8</ele>
        <time>2021-08-14T11:14:21Z</time>
      </trkpt>
      <trkpt lat="44.02736" lon="3.26205">
        <ele>796.9</ele>
        <time>2021-08-14T11:14:25Z</time>
      </trkpt>
      <trkpt lat="44.02736" lon="3.26205">
        <ele>796.9</ele>
        <time>2021-08-14T11:14:27Z</time>
      </trkpt>
      <trkpt lat="44.02736" lon="3.26205">
        <ele>796.9</ele>
        <time>2021-08-14T11:14:31Z</time>
      </trkpt>
      <trkpt lat="44.02736" lon="3.26205">
        <ele>796.9</ele>
        <time>2021-08-14T11:14:35Z</time>
      </trkpt>
      <trkpt lat="44.02736" lon="3.26205">
        <ele>796.9</ele>
        <time>2021-08-14T11:14:39Z</time>
      </trkpt>
      <trkpt lat="44.02736" lon="3.26205">
        <ele>796.9</ele>
        <time>2021-08-14T11:14:43Z</time>
      </trkpt>
      <trkpt lat="44.02736" lon="3.26205">
        <ele>796.9</ele>
        <time>2021-08-14T11:14:47Z</time>
      </trkpt>
      <trkpt lat="44.02736" lon="3.26205">
        <ele>796.9</ele>
        <time>2021-08-14T11:14:51Z</time>
      </trkpt>
      <trkpt lat="44.02736" lon="3.26205">
        <ele>796.9</ele>
        <time>2021-08-14T11:14:55Z</time>
      </trkpt>
      <trkpt lat="44.02736" lon="3.26205">
        <ele>796.9</ele>
        <time>2021-08-14T11:14:59Z</time>
      </trkpt>
      <trkpt lat="44.02736" lon="3.26205">
        <ele>796.9</ele>
        <time>2021-08-14T11:15:03Z</time>
      </trkpt>
      <trkpt lat="44.02736" lon="3.26205">
        <ele>796.9</ele>
        <time>2021-08-14T11:15:07Z</time>
      </trkpt>
      <trkpt lat="44.02736" lon="3.26205">
        <ele>796.9</ele>
        <time>2021-08-14T11:15:11Z</time>
      </trkpt>
      <trkpt lat="44.02736" lon="3.26205">
        <ele>796.9</ele>
        <time>2021-08-14T11:15:15Z</time>
      </trkpt>
      <trkpt lat="44.02736" lon="3.26205">
        <ele>796.9</ele>
        <time>2021-08-14T11:15:19Z</time>
      </trkpt>
      <trkpt lat="44.02736" lon="3.26205">
        <ele>796.9</ele>
        <time>2021-08-14T11:15:23Z</time>
      </trkpt>
      <trkpt lat="44.02736" lon="3.26205">
        <ele>796.9</ele>
        <time>2021-08-14T11:15:27Z</time>
      </trkpt>
      <trkpt lat="44.02736" lon="3.26205">
        <ele>796.9</ele>
        <time>2021-08-14T11:15:31Z</time>
      </trkpt>
      <trkpt lat="44.02736" lon="3.26205">
        <ele>796.9</ele>
        <time>2021-08-14T11:15:35Z</time>
      </trkpt>
      <trkpt lat="44.02736" lon="3.26205">
        <ele>796.9</ele>
        <time>2021-08-14T11:15:39Z</time>
      </trkpt>
      <trkpt lat="44.02736" lon="3.26205">
        <ele>796.9</ele>
        <time>2021-08-14T11:15:43Z</time>
      </trkpt>
      <trkpt lat="44.02736" lon="3.26205">
        <ele>796.9</ele>
        <time>2021-08-14T11:15:47Z</time>
      </trkpt>
      <trkpt lat="44.02736" lon="3.26205">
        <ele>796.9</ele>
        <time>2021-08-14T11:15:51Z</time>
      </trkpt>
      <trkpt lat="44.02736" lon="3.26205">
        <ele>796.9</ele>
        <time>2021-08-14T11:15:55Z</time>
      </trkpt>
      <trkpt lat="44.02736" lon="3.26205">
        <ele>796.9</ele>
        <time>2021-08-14T11:15:59Z</time>
      </trkpt>
      <trkpt lat="44.02736" lon="3.26205">
        <ele>796.9</ele>
        <time>2021-08-14T11:16:03Z</time>
      </trkpt>
      <trkpt lat="44.02736" lon="3.26205">
        <ele>796.9</ele>
        <time>2021-08-14T11:16:07Z</time>
      </trkpt>
      <trkpt lat="44.02736" lon="3.26205">
        <ele>796.9</ele>
        <time>2021-08-14T11:16:11Z</time>
      </trkpt>
      <trkpt lat="44.02736" lon="3.26205">
        <ele>796.9</ele>
        <time>2021-08-14T11:16:15Z</time>
      </trkpt>
      <trkpt lat="44.02736" lon="3.26205">
        <ele>796.9</ele>
        <time>2021-08-14T11:16:19Z</time>
      </trkpt>
      <trkpt lat="44.02736" lon="3.26205">
        <ele>796.9</ele>
        <time>2021-08-14T11:16:23Z</time>
      </trkpt>
      <trkpt lat="44.02736" lon="3.26205">
        <ele>796.9</ele>
        <time>2021-08-14T11:16:27Z</time>
      </trkpt>
      <trkpt lat="44.02736" lon="3.26205">
        <ele>796.9</ele>
        <time>2021-08-14T11:16:31Z</time>
      </trkpt>
      <trkpt lat="44.02736" lon="3.26205">
        <ele>796.9</ele>
        <time>2021-08-14T11:16:35Z</time>
      </trkpt>
      <trkpt lat="44.02735" lon="3.26206">
        <ele>796.8</ele>
        <time>2021-08-14T11:16:37Z</time>
      </trkpt>
      <trkpt lat="44.02735" lon="3.26206">
        <ele>796.8</ele>
        <time>2021-08-14T11:16:39Z</time>
      </trkpt>
      <trkpt lat="44.02735" lon="3.26205">
        <ele>796.8</ele>
        <time>2021-08-14T11:16:41Z</time>
      </trkpt>
      <trkpt lat="44.02735" lon="3.26205">
        <ele>796.8</ele>
        <time>2021-08-14T11:16:43Z</time>
      </trkpt>
      <trkpt lat="44.02736" lon="3.26205">
        <ele>796.8</ele>
        <time>2021-08-14T11:16:45Z</time>
      </trkpt>
      <trkpt lat="44.02736" lon="3.26205">
        <ele>796.8</ele>
        <time>2021-08-14T11:16:47Z</time>
      </trkpt>
      <trkpt lat="44.02736" lon="3.26205">
        <ele>796.8</ele>
        <time>2021-08-14T11:16:49Z</time>
      </trkpt>
      <trkpt lat="44.02736" lon="3.26205">
        <ele>796.8</ele>
        <time>2021-08-14T11:16:51Z</time>
      </trkpt>
      <trkpt lat="44.02736" lon="3.26206">
        <ele>796.8</ele>
        <time>2021-08-14T11:16:53Z</time>
      </trkpt>
      <trkpt lat="44.02736" lon="3.26206">
        <ele>796.8</ele>
        <time>2021-08-14T11:16:55Z</time>
      </trkpt>
      <trkpt lat="44.02736" lon="3.26206">
        <ele>796.8</ele>
        <time>2021-08-14T11:16:57Z</time>
      </trkpt>
      <trkpt lat="44.02735" lon="3.26206">
        <ele>796.8</ele>
        <time>2021-08-14T11:16:59Z</time>
      </trkpt>
      <trkpt lat="44.02735" lon="3.26207">
        <ele>796.8</ele>
        <time>2021-08-14T11:17:01Z</time>
      </trkpt>
      <trkpt lat="44.02735" lon="3.26206">
        <ele>796.8</ele>
        <time>2021-08-14T11:17:03Z</time>
      </trkpt>
      <trkpt lat="44.02735" lon="3.26206">
        <ele>796.8</ele>
        <time>2021-08-14T11:17:05Z</time>
      </trkpt>
      <trkpt lat="44.02735" lon="3.26206">
        <ele>796.8</ele>
        <time>2021-08-14T11:17:09Z</time>
      </trkpt>
      <trkpt lat="44.02735" lon="3.26206">
        <ele>796.8</ele>
        <time>2021-08-14T11:17:13Z</time>
      </trkpt>
      <trkpt lat="44.02735" lon="3.26206">
        <ele>796.8</ele>
        <time>2021-08-14T11:17:17Z</time>
      </trkpt>
      <trkpt lat="44.02735" lon="3.26206">
        <ele>796.8</ele>
        <time>2021-08-14T11:17:21Z</time>
      </trkpt>
      <trkpt lat="44.02735" lon="3.26206">
        <ele>796.8</ele>
        <time>2021-08-14T11:17:25Z</time>
      </trkpt>
      <trkpt lat="44.02735" lon="3.26206">
        <ele>796.8</ele>
        <time>2021-08-14T11:17:27Z</time>
      </trkpt>
      <trkpt lat="44.02735" lon="3.26206">
        <ele>796.8</ele>
        <time>2021-08-14T11:17:29Z</time>
      </trkpt>
      <trkpt lat="44.02735" lon="3.26206">
        <ele>796.8</ele>
        <time>2021-08-14T11:17:31Z</time>
      </trkpt>
      <trkpt lat="44.02735" lon="3.26206">
        <ele>796.8</ele>
        <time>2021-08-14T11:17:33Z</time>
      </trkpt>
      <trkpt lat="44.02735" lon="3.26206">
        <ele>796.8</ele>
        <time>2021-08-14T11:17:35Z</time>
      </trkpt>
      <trkpt lat="44.02735" lon="3.26206">
        <ele>796.8</ele>
        <time>2021-08-14T11:17:37Z</time>
      </trkpt>
      <trkpt lat="44.02735" lon="3.26206">
        <ele>796.8</ele>
        <time>2021-08-14T11:17:39Z</time>
      </trkpt>
      <trkpt lat="44.02736" lon="3.26205">
        <ele>796.8</ele>
        <time>2021-08-14T11:17:41Z</time>
      </trkpt>
      <trkpt lat="44.02736" lon="3.26205">
        <ele>796.8</ele>
        <time>2021-08-14T11:17:43Z</time>
      </trkpt>
      <trkpt lat="44.02735" lon="3.26205">
        <ele>796.8</ele>
        <time>2021-08-14T11:17:45Z</time>
      </trkpt>
      <trkpt lat="44.02735" lon="3.26205">
        <ele>796.8</ele>
        <time>2021-08-14T11:17:47Z</time>
      </trkpt>
      <trkpt lat="44.02735" lon="3.26205">
        <ele>796.8</ele>
        <time>2021-08-14T11:17:49Z</time>
      </trkpt>
      <trkpt lat="44.02735" lon="3.26205">
        <ele>796.8</ele>
        <time>2021-08-14T11:17:51Z</time>
      </trkpt>
      <trkpt lat="44.02735" lon="3.26205">
        <ele>796.8</ele>
        <time>2021-08-14T11:17:53Z</time>
      </trkpt>
      <trkpt lat="44.02735" lon="3.26206">
        <ele>796.8</ele>
        <time>2021-08-14T11:17:55Z</time>
      </trkpt>
      <trkpt lat="44.02735" lon="3.26206">
        <ele>796.8</ele>
        <time>2021-08-14T11:17:57Z</time>
      </trkpt>
      <trkpt lat="44.02735" lon="3.26206">
        <ele>796.7</ele>
        <time>2021-08-14T11:17:59Z</time>
      </trkpt>
      <trkpt lat="44.02735" lon="3.26206">
        <ele>796.8</ele>
        <time>2021-08-14T11:18:01Z</time>
      </trkpt>
      <trkpt lat="44.02735" lon="3.26205">
        <ele>796.7</ele>
        <time>2021-08-14T11:18:03Z</time>
      </trkpt>
      <trkpt lat="44.02735" lon="3.26205">
        <ele>796.8</ele>
        <time>2021-08-14T11:18:05Z</time>
      </trkpt>
      <trkpt lat="44.02735" lon="3.26205">
        <ele>796.8</ele>
        <time>2021-08-14T11:18:07Z</time>
      </trkpt>
      <trkpt lat="44.02735" lon="3.26205">
        <ele>796.8</ele>
        <time>2021-08-14T11:18:09Z</time>
      </trkpt>
      <trkpt lat="44.02735" lon="3.26204">
        <ele>796.8</ele>
        <time>2021-08-14T11:18:11Z</time>
      </trkpt>
      <trkpt lat="44.02735" lon="3.26204">
        <ele>796.8</ele>
        <time>2021-08-14T11:18:13Z</time>
      </trkpt>
      <trkpt lat="44.02735" lon="3.26203">
        <ele>796.8</ele>
        <time>2021-08-14T11:18:15Z</time>
      </trkpt>
      <trkpt lat="44.02735" lon="3.26203">
        <ele>796.8</ele>
        <time>2021-08-14T11:18:17Z</time>
      </trkpt>
      <trkpt lat="44.02735" lon="3.26203">
        <ele>796.8</ele>
        <time>2021-08-14T11:18:19Z</time>
      </trkpt>
      <trkpt lat="44.02735" lon="3.26203">
        <ele>796.8</ele>
        <time>2021-08-14T11:18:21Z</time>
      </trkpt>
      <trkpt lat="44.02735" lon="3.26203">
        <ele>796.8</ele>
        <time>2021-08-14T11:18:23Z</time>
      </trkpt>
      <trkpt lat="44.02735" lon="3.26203">
        <ele>796.8</ele>
        <time>2021-08-14T11:18:25Z</time>
      </trkpt>
      <trkpt lat="44.02735" lon="3.26202">
        <ele>796.8</ele>
        <time>2021-08-14T11:18:27Z</time>
      </trkpt>
      <trkpt lat="44.02735" lon="3.26202">
        <ele>796.8</ele>
        <time>2021-08-14T11:18:29Z</time>
      </trkpt>
      <trkpt lat="44.02735" lon="3.26201">
        <ele>796.8</ele>
        <time>2021-08-14T11:18:31Z</time>
      </trkpt>
      <trkpt lat="44.02735" lon="3.26201">
        <ele>796.8</ele>
        <time>2021-08-14T11:18:33Z</time>
      </trkpt>
      <trkpt lat="44.02734" lon="3.26201">
        <ele>796.8</ele>
        <time>2021-08-14T11:18:35Z</time>
      </trkpt>
      <trkpt lat="44.02735" lon="3.26201">
        <ele>796.8</ele>
        <time>2021-08-14T11:18:37Z</time>
      </trkpt>
      <trkpt lat="44.02735" lon="3.262">
        <ele>796.8</ele>
        <time>2021-08-14T11:18:39Z</time>
      </trkpt>
      <trkpt lat="44.02735" lon="3.26201">
        <ele>796.8</ele>
        <time>2021-08-14T11:18:41Z</time>
      </trkpt>
      <trkpt lat="44.02735" lon="3.26201">
        <ele>796.8</ele>
        <time>2021-08-14T11:18:43Z</time>
      </trkpt>
      <trkpt lat="44.02735" lon="3.26201">
        <ele>796.8</ele>
        <time>2021-08-14T11:18:45Z</time>
      </trkpt>
      <trkpt lat="44.02735" lon="3.26201">
        <ele>796.8</ele>
        <time>2021-08-14T11:18:47Z</time>
      </trkpt>
      <trkpt lat="44.02735" lon="3.26201">
        <ele>796.8</ele>
        <time>2021-08-14T11:18:49Z</time>
      </trkpt>
      <trkpt lat="44.02735" lon="3.26202">
        <ele>796.8</ele>
        <time>2021-08-14T11:18:51Z</time>
      </trkpt>
      <trkpt lat="44.02735" lon="3.26202">
        <ele>796.8</ele>
        <time>2021-08-14T11:18:53Z</time>
      </trkpt>
      <trkpt lat="44.02735" lon="3.26202">
        <ele>796.8</ele>
        <time>2021-08-14T11:18:55Z</time>
      </trkpt>
      <trkpt lat="44.02734" lon="3.26202">
        <ele>796.8</ele>
        <time>2021-08-14T11:18:57Z</time>
      </trkpt>
      <trkpt lat="44.02735" lon="3.26202">
        <ele>796.8</ele>
        <time>2021-08-14T11:18:59Z</time>
      </trkpt>
      <trkpt lat="44.02735" lon="3.26202">
        <ele>796.8</ele>
        <time>2021-08-14T11:19:01Z</time>
      </trkpt>
      <trkpt lat="44.02735" lon="3.26202">
        <ele>796.8</ele>
        <time>2021-08-14T11:19:03Z</time>
      </trkpt>
      <trkpt lat="44.02735" lon="3.26202">
        <ele>796.8</ele>
        <time>2021-08-14T11:19:05Z</time>
      </trkpt>
      <trkpt lat="44.02735" lon="3.26201">
        <ele>796.8</ele>
        <time>2021-08-14T11:19:07Z</time>
      </trkpt>
      <trkpt lat="44.02737" lon="3.262">
        <ele>797</ele>
        <time>2021-08-14T11:19:09Z</time>
      </trkpt>
      <trkpt lat="44.02739" lon="3.262">
        <ele>797.2</ele>
        <time>2021-08-14T11:19:11Z</time>
      </trkpt>
      <trkpt lat="44.02741" lon="3.26199">
        <ele>797.3</ele>
        <time>2021-08-14T11:19:13Z</time>
      </trkpt>
      <trkpt lat="44.02743" lon="3.26197">
        <ele>797.5</ele>
        <time>2021-08-14T11:19:15Z</time>
      </trkpt>
      <trkpt lat="44.02744" lon="3.26195">
        <ele>797.6</ele>
        <time>2021-08-14T11:19:17Z</time>
      </trkpt>
      <trkpt lat="44.02745" lon="3.26192">
        <ele>797.7</ele>
        <time>2021-08-14T11:19:19Z</time>
      </trkpt>
      <trkpt lat="44.02746" lon="3.26188">
        <ele>797.7</ele>
        <time>2021-08-14T11:19:21Z</time>
      </trkpt>
      <trkpt lat="44.02747" lon="3.26184">
        <ele>797.8</ele>
        <time>2021-08-14T11:19:23Z</time>
      </trkpt>
      <trkpt lat="44.02748" lon="3.2618">
        <ele>797.9</ele>
        <time>2021-08-14T11:19:25Z</time>
      </trkpt>
      <trkpt lat="44.02749" lon="3.26175">
        <ele>798</ele>
        <time>2021-08-14T11:19:27Z</time>
      </trkpt>
      <trkpt lat="44.02751" lon="3.26171">
        <ele>798</ele>
        <time>2021-08-14T11:19:29Z</time>
      </trkpt>
      <trkpt lat="44.02752" lon="3.26165">
        <ele>798.1</ele>
        <time>2021-08-14T11:19:31Z</time>
      </trkpt>
      <trkpt lat="44.02753" lon="3.2616">
        <ele>798.3</ele>
        <time>2021-08-14T11:19:33Z</time>
      </trkpt>
      <trkpt lat="44.02754" lon="3.26155">
        <ele>798.5</ele>
        <time>2021-08-14T11:19:35Z</time>
      </trkpt>
      <trkpt lat="44.02755" lon="3.26151">
        <ele>798.6</ele>
        <time>2021-08-14T11:19:37Z</time>
      </trkpt>
      <trkpt lat="44.02757" lon="3.26146">
        <ele>798.8</ele>
        <time>2021-08-14T11:19:39Z</time>
      </trkpt>
      <trkpt lat="44.02758" lon="3.2614">
        <ele>798.9</ele>
        <time>2021-08-14T11:19:41Z</time>
      </trkpt>
      <trkpt lat="44.02759" lon="3.26135">
        <ele>799.1</ele>
        <time>2021-08-14T11:19:43Z</time>
      </trkpt>
      <trkpt lat="44.0276" lon="3.2613">
        <ele>799.2</ele>
        <time>2021-08-14T11:19:45Z</time>
      </trkpt>
      <trkpt lat="44.02761" lon="3.26125">
        <ele>799.3</ele>
        <time>2021-08-14T11:19:47Z</time>
      </trkpt>
      <trkpt lat="44.02762" lon="3.2612">
        <ele>799.5</ele>
        <time>2021-08-14T11:19:49Z</time>
      </trkpt>
      <trkpt lat="44.02763" lon="3.26114">
        <ele>799.6</ele>
        <time>2021-08-14T11:19:51Z</time>
      </trkpt>
      <trkpt lat="44.02765" lon="3.26109">
        <ele>799.7</ele>
        <time>2021-08-14T11:19:53Z</time>
      </trkpt>
      <trkpt lat="44.02766" lon="3.26103">
        <ele>799.7</ele>
        <time>2021-08-14T11:19:55Z</time>
      </trkpt>
      <trkpt lat="44.02767" lon="3.26098">
        <ele>799.8</ele>
        <time>2021-08-14T11:19:57Z</time>
      </trkpt>
      <trkpt lat="44.02767" lon="3.26093">
        <ele>799.9</ele>
        <time>2021-08-14T11:19:59Z</time>
      </trkpt>
      <trkpt lat="44.02768" lon="3.26087">
        <ele>800</ele>
        <time>2021-08-14T11:20:01Z</time>
      </trkpt>
      <trkpt lat="44.02769" lon="3.26082">
        <ele>800</ele>
        <time>2021-08-14T11:20:03Z</time>
      </trkpt>
      <trkpt lat="44.0277" lon="3.26075">
        <ele>800</ele>
        <time>2021-08-14T11:20:05Z</time>
      </trkpt>
      <trkpt lat="44.02771" lon="3.26068">
        <ele>800</ele>
        <time>2021-08-14T11:20:07Z</time>
      </trkpt>
      <trkpt lat="44.02772" lon="3.26062">
        <ele>799.9</ele>
        <time>2021-08-14T11:20:09Z</time>
      </trkpt>
      <trkpt lat="44.02773" lon="3.26055">
        <ele>799.9</ele>
        <time>2021-08-14T11:20:11Z</time>
      </trkpt>
      <trkpt lat="44.02774" lon="3.26047">
        <ele>799.9</ele>
        <time>2021-08-14T11:20:13Z</time>
      </trkpt>
      <trkpt lat="44.02775" lon="3.26038">
        <ele>799.8</ele>
        <time>2021-08-14T11:20:15Z</time>
      </trkpt>
      <trkpt lat="44.02776" lon="3.2603">
        <ele>799.8</ele>
        <time>2021-08-14T11:20:17Z</time>
      </trkpt>
      <trkpt lat="44.02777" lon="3.26021">
        <ele>799.8</ele>
        <time>2021-08-14T11:20:19Z</time>
      </trkpt>
      <trkpt lat="44.02778" lon="3.26011">
        <ele>799.7</ele>
        <time>2021-08-14T11:20:21Z</time>
      </trkpt>
      <trkpt lat="44.02778" lon="3.26003">
        <ele>799.7</ele>
        <time>2021-08-14T11:20:23Z</time>
      </trkpt>
      <trkpt lat="44.02777" lon="3.25995">
        <ele>799.7</ele>
        <time>2021-08-14T11:20:25Z</time>
      </trkpt>
      <trkpt lat="44.02778" lon="3.25987">
        <ele>799.6</ele>
        <time>2021-08-14T11:20:27Z</time>
      </trkpt>
      <trkpt lat="44.02779" lon="3.2598">
        <ele>799.6</ele>
        <time>2021-08-14T11:20:29Z</time>
      </trkpt>
      <trkpt lat="44.0278" lon="3.25974">
        <ele>799.5</ele>
        <time>2021-08-14T11:20:31Z</time>
      </trkpt>
      <trkpt lat="44.02781" lon="3.25967">
        <ele>799.5</ele>
        <time>2021-08-14T11:20:33Z</time>
      </trkpt>
      <trkpt lat="44.02781" lon="3.25959">
        <ele>799.5</ele>
        <time>2021-08-14T11:20:35Z</time>
      </trkpt>
      <trkpt lat="44.02781" lon="3.25951">
        <ele>799.4</ele>
        <time>2021-08-14T11:20:37Z</time>
      </trkpt>
      <trkpt lat="44.02783" lon="3.25941">
        <ele>799.3</ele>
        <time>2021-08-14T11:20:39Z</time>
      </trkpt>
      <trkpt lat="44.02783" lon="3.25932">
        <ele>799.3</ele>
        <time>2021-08-14T11:20:41Z</time>
      </trkpt>
      <trkpt lat="44.02784" lon="3.25922">
        <ele>799.2</ele>
        <time>2021-08-14T11:20:43Z</time>
      </trkpt>
      <trkpt lat="44.02783" lon="3.25913">
        <ele>799.2</ele>
        <time>2021-08-14T11:20:45Z</time>
      </trkpt>
      <trkpt lat="44.02784" lon="3.25904">
        <ele>799.1</ele>
        <time>2021-08-14T11:20:47Z</time>
      </trkpt>
      <trkpt lat="44.02785" lon="3.25896">
        <ele>799</ele>
        <time>2021-08-14T11:20:49Z</time>
      </trkpt>
      <trkpt lat="44.02785" lon="3.25886">
        <ele>798.9</ele>
        <time>2021-08-14T11:20:51Z</time>
      </trkpt>
      <trkpt lat="44.02785" lon="3.25876">
        <ele>798.9</ele>
        <time>2021-08-14T11:20:53Z</time>
      </trkpt>
      <trkpt lat="44.02785" lon="3.25866">
        <ele>798.8</ele>
        <time>2021-08-14T11:20:55Z</time>
      </trkpt>
      <trkpt lat="44.02785" lon="3.25855">
        <ele>798.7</ele>
        <time>2021-08-14T11:20:57Z</time>
      </trkpt>
      <trkpt lat="44.02785" lon="3.25844">
        <ele>798.6</ele>
        <time>2021-08-14T11:20:59Z</time>
      </trkpt>
      <trkpt lat="44.02785" lon="3.25833">
        <ele>798.6</ele>
        <time>2021-08-14T11:21:01Z</time>
      </trkpt>
      <trkpt lat="44.02784" lon="3.25821">
        <ele>798.6</ele>
        <time>2021-08-14T11:21:03Z</time>
      </trkpt>
      <trkpt lat="44.02784" lon="3.25809">
        <ele>798.6</ele>
        <time>2021-08-14T11:21:05Z</time>
      </trkpt>
      <trkpt lat="44.02783" lon="3.25797">
        <ele>798.6</ele>
        <time>2021-08-14T11:21:07Z</time>
      </trkpt>
      <trkpt lat="44.02781" lon="3.25784">
        <ele>798.6</ele>
        <time>2021-08-14T11:21:09Z</time>
      </trkpt>
      <trkpt lat="44.0278" lon="3.25772">
        <ele>798.6</ele>
        <time>2021-08-14T11:21:11Z</time>
      </trkpt>
      <trkpt lat="44.02778" lon="3.25759">
        <ele>798.7</ele>
        <time>2021-08-14T11:21:13Z</time>
      </trkpt>
      <trkpt lat="44.02776" lon="3.25745">
        <ele>798.7</ele>
        <time>2021-08-14T11:21:15Z</time>
      </trkpt>
      <trkpt lat="44.02774" lon="3.25732">
        <ele>798.7</ele>
        <time>2021-08-14T11:21:17Z</time>
      </trkpt>
      <trkpt lat="44.02773" lon="3.25718">
        <ele>798.7</ele>
        <time>2021-08-14T11:21:19Z</time>
      </trkpt>
      <trkpt lat="44.0277" lon="3.25705">
        <ele>798.8</ele>
        <time>2021-08-14T11:21:21Z</time>
      </trkpt>
      <trkpt lat="44.02768" lon="3.25691">
        <ele>798.8</ele>
        <time>2021-08-14T11:21:23Z</time>
      </trkpt>
      <trkpt lat="44.02766" lon="3.25677">
        <ele>798.8</ele>
        <time>2021-08-14T11:21:25Z</time>
      </trkpt>
      <trkpt lat="44.02764" lon="3.25664">
        <ele>798.8</ele>
        <time>2021-08-14T11:21:27Z</time>
      </trkpt>
      <trkpt lat="44.02762" lon="3.2565">
        <ele>798.7</ele>
        <time>2021-08-14T11:21:29Z</time>
      </trkpt>
      <trkpt lat="44.0276" lon="3.25637">
        <ele>798.6</ele>
        <time>2021-08-14T11:21:31Z</time>
      </trkpt>
      <trkpt lat="44.02758" lon="3.25623">
        <ele>798.4</ele>
        <time>2021-08-14T11:21:33Z</time>
      </trkpt>
      <trkpt lat="44.02756" lon="3.25609">
        <ele>798.3</ele>
        <time>2021-08-14T11:21:35Z</time>
      </trkpt>
      <trkpt lat="44.02754" lon="3.25596">
        <ele>798.1</ele>
        <time>2021-08-14T11:21:37Z</time>
      </trkpt>
      <trkpt lat="44.02752" lon="3.25583">
        <ele>798</ele>
        <time>2021-08-14T11:21:39Z</time>
      </trkpt>
      <trkpt lat="44.0275" lon="3.2557">
        <ele>798.3</ele>
        <time>2021-08-14T11:21:41Z</time>
      </trkpt>
      <trkpt lat="44.02748" lon="3.25558">
        <ele>798.6</ele>
        <time>2021-08-14T11:21:43Z</time>
      </trkpt>
      <trkpt lat="44.02746" lon="3.25545">
        <ele>799</ele>
        <time>2021-08-14T11:21:45Z</time>
      </trkpt>
      <trkpt lat="44.02745" lon="3.25533">
        <ele>799.3</ele>
        <time>2021-08-14T11:21:47Z</time>
      </trkpt>
      <trkpt lat="44.02742" lon="3.25521">
        <ele>799.6</ele>
        <time>2021-08-14T11:21:49Z</time>
      </trkpt>
      <trkpt lat="44.02741" lon="3.2551">
        <ele>799.9</ele>
        <time>2021-08-14T11:21:51Z</time>
      </trkpt>
      <trkpt lat="44.02739" lon="3.25498">
        <ele>800.2</ele>
        <time>2021-08-14T11:21:53Z</time>
      </trkpt>
      <trkpt lat="44.02738" lon="3.25486">
        <ele>800.4</ele>
        <time>2021-08-14T11:21:55Z</time>
      </trkpt>
      <trkpt lat="44.02737" lon="3.25474">
        <ele>800.7</ele>
        <time>2021-08-14T11:21:57Z</time>
      </trkpt>
      <trkpt lat="44.02735" lon="3.25463">
        <ele>800.9</ele>
        <time>2021-08-14T11:21:59Z</time>
      </trkpt>
      <trkpt lat="44.02733" lon="3.25452">
        <ele>801.1</ele>
        <time>2021-08-14T11:22:01Z</time>
      </trkpt>
      <trkpt lat="44.02731" lon="3.25442">
        <ele>801.3</ele>
        <time>2021-08-14T11:22:03Z</time>
      </trkpt>
      <trkpt lat="44.02728" lon="3.25432">
        <ele>801.5</ele>
        <time>2021-08-14T11:22:05Z</time>
      </trkpt>
      <trkpt lat="44.02727" lon="3.25421">
        <ele>801.6</ele>
        <time>2021-08-14T11:22:07Z</time>
      </trkpt>
      <trkpt lat="44.02725" lon="3.25412">
        <ele>801.7</ele>
        <time>2021-08-14T11:22:09Z</time>
      </trkpt>
      <trkpt lat="44.02724" lon="3.25401">
        <ele>801.8</ele>
        <time>2021-08-14T11:22:11Z</time>
      </trkpt>
      <trkpt lat="44.02722" lon="3.25391">
        <ele>801.9</ele>
        <time>2021-08-14T11:22:13Z</time>
      </trkpt>
      <trkpt lat="44.02721" lon="3.2538">
        <ele>801.9</ele>
        <time>2021-08-14T11:22:15Z</time>
      </trkpt>
      <trkpt lat="44.02719" lon="3.2537">
        <ele>802</ele>
        <time>2021-08-14T11:22:17Z</time>
      </trkpt>
      <trkpt lat="44.02717" lon="3.25361">
        <ele>802</ele>
        <time>2021-08-14T11:22:19Z</time>
      </trkpt>
      <trkpt lat="44.02716" lon="3.2535">
        <ele>802.1</ele>
        <time>2021-08-14T11:22:21Z</time>
      </trkpt>
      <trkpt lat="44.02715" lon="3.25342">
        <ele>802.1</ele>
        <time>2021-08-14T11:22:23Z</time>
      </trkpt>
      <trkpt lat="44.02713" lon="3.25332">
        <ele>802.1</ele>
        <time>2021-08-14T11:22:25Z</time>
      </trkpt>
      <trkpt lat="44.02712" lon="3.25322">
        <ele>802.1</ele>
        <time>2021-08-14T11:22:27Z</time>
      </trkpt>
      <trkpt lat="44.0271" lon="3.25312">
        <ele>802.2</ele>
        <time>2021-08-14T11:22:29Z</time>
      </trkpt>
      <trkpt lat="44.02709" lon="3.25302">
        <ele>802.2</ele>
        <time>2021-08-14T11:22:31Z</time>
      </trkpt>
      <trkpt lat="44.02707" lon="3.25291">
        <ele>802.2</ele>
        <time>2021-08-14T11:22:33Z</time>
      </trkpt>
      <trkpt lat="44.02705" lon="3.2528">
        <ele>802.3</ele>
        <time>2021-08-14T11:22:35Z</time>
      </trkpt>
      <trkpt lat="44.02704" lon="3.25269">
        <ele>802.3</ele>
        <time>2021-08-14T11:22:37Z</time>
      </trkpt>
      <trkpt lat="44.02703" lon="3.25259">
        <ele>802.4</ele>
        <time>2021-08-14T11:22:39Z</time>
      </trkpt>
      <trkpt lat="44.02701" lon="3.25248">
        <ele>802.5</ele>
        <time>2021-08-14T11:22:41Z</time>
      </trkpt>
      <trkpt lat="44.02699" lon="3.25237">
        <ele>802.8</ele>
        <time>2021-08-14T11:22:43Z</time>
      </trkpt>
      <trkpt lat="44.02697" lon="3.25227">
        <ele>803.2</ele>
        <time>2021-08-14T11:22:45Z</time>
      </trkpt>
      <trkpt lat="44.02696" lon="3.25218">
        <ele>803.5</ele>
        <time>2021-08-14T11:22:47Z</time>
      </trkpt>
      <trkpt lat="44.02694" lon="3.25209">
        <ele>803.8</ele>
        <time>2021-08-14T11:22:49Z</time>
      </trkpt>
      <trkpt lat="44.02693" lon="3.25199">
        <ele>804.2</ele>
        <time>2021-08-14T11:22:51Z</time>
      </trkpt>
      <trkpt lat="44.02692" lon="3.2519">
        <ele>804.5</ele>
        <time>2021-08-14T11:22:53Z</time>
      </trkpt>
      <trkpt lat="44.0269" lon="3.25183">
        <ele>804.7</ele>
        <time>2021-08-14T11:22:55Z</time>
      </trkpt>
      <trkpt lat="44.02689" lon="3.25176">
        <ele>805</ele>
        <time>2021-08-14T11:22:57Z</time>
      </trkpt>
      <trkpt lat="44.02689" lon="3.25168">
        <ele>805.2</ele>
        <time>2021-08-14T11:22:59Z</time>
      </trkpt>
      <trkpt lat="44.02688" lon="3.25161">
        <ele>805.3</ele>
        <time>2021-08-14T11:23:01Z</time>
      </trkpt>
      <trkpt lat="44.02686" lon="3.25153">
        <ele>805.4</ele>
        <time>2021-08-14T11:23:03Z</time>
      </trkpt>
      <trkpt lat="44.02685" lon="3.25146">
        <ele>805.5</ele>
        <time>2021-08-14T11:23:05Z</time>
      </trkpt>
      <trkpt lat="44.02684" lon="3.25138">
        <ele>805.5</ele>
        <time>2021-08-14T11:23:07Z</time>
      </trkpt>
      <trkpt lat="44.02683" lon="3.25132">
        <ele>805.6</ele>
        <time>2021-08-14T11:23:09Z</time>
      </trkpt>
      <trkpt lat="44.02685" lon="3.25125">
        <ele>805.7</ele>
        <time>2021-08-14T11:23:11Z</time>
      </trkpt>
      <trkpt lat="44.02687" lon="3.2512">
        <ele>805.8</ele>
        <time>2021-08-14T11:23:13Z</time>
      </trkpt>
      <trkpt lat="44.02688" lon="3.25114">
        <ele>805.9</ele>
        <time>2021-08-14T11:23:15Z</time>
      </trkpt>
      <trkpt lat="44.02687" lon="3.25109">
        <ele>805.9</ele>
        <time>2021-08-14T11:23:17Z</time>
      </trkpt>
      <trkpt lat="44.02687" lon="3.25104">
        <ele>806</ele>
        <time>2021-08-14T11:23:19Z</time>
      </trkpt>
      <trkpt lat="44.02688" lon="3.25099">
        <ele>806.1</ele>
        <time>2021-08-14T11:23:21Z</time>
      </trkpt>
      <trkpt lat="44.02688" lon="3.25095">
        <ele>806.1</ele>
        <time>2021-08-14T11:23:23Z</time>
      </trkpt>
      <trkpt lat="44.02689" lon="3.25092">
        <ele>806.2</ele>
        <time>2021-08-14T11:23:25Z</time>
      </trkpt>
      <trkpt lat="44.02688" lon="3.25088">
        <ele>806.2</ele>
        <time>2021-08-14T11:23:27Z</time>
      </trkpt>
      <trkpt lat="44.02689" lon="3.25088">
        <ele>806.2</ele>
        <time>2021-08-14T11:23:29Z</time>
      </trkpt>
      <trkpt lat="44.02688" lon="3.25088">
        <ele>806.2</ele>
        <time>2021-08-14T11:23:31Z</time>
      </trkpt>
      <trkpt lat="44.02688" lon="3.25088">
        <ele>806.2</ele>
        <time>2021-08-14T11:23:33Z</time>
      </trkpt>
      <trkpt lat="44.02688" lon="3.25088">
        <ele>806.2</ele>
        <time>2021-08-14T11:23:35Z</time>
      </trkpt>
      <trkpt lat="44.02688" lon="3.25088">
        <ele>806.2</ele>
        <time>2021-08-14T11:23:37Z</time>
      </trkpt>
      <trkpt lat="44.02687" lon="3.25105">
        <ele>806</ele>
        <time>2021-08-14T11:30:03Z</time>
      </trkpt>
      <trkpt lat="44.02686" lon="3.25112">
        <ele>805.9</ele>
        <time>2021-08-14T11:30:05Z</time>
      </trkpt>
      <trkpt lat="44.02685" lon="3.25118">
        <ele>805.8</ele>
        <time>2021-08-14T11:30:07Z</time>
      </trkpt>
      <trkpt lat="44.0268" lon="3.25116">
        <ele>805.8</ele>
        <time>2021-08-14T11:30:09Z</time>
      </trkpt>
      <trkpt lat="44.02679" lon="3.25106">
        <ele>805.9</ele>
        <time>2021-08-14T11:30:11Z</time>
      </trkpt>
      <trkpt lat="44.02679" lon="3.25098">
        <ele>806</ele>
        <time>2021-08-14T11:30:13Z</time>
      </trkpt>
      <trkpt lat="44.02678" lon="3.25092">
        <ele>806</ele>
        <time>2021-08-14T11:30:15Z</time>
      </trkpt>
      <trkpt lat="44.02677" lon="3.25085">
        <ele>806.1</ele>
        <time>2021-08-14T11:30:17Z</time>
      </trkpt>
      <trkpt lat="44.02676" lon="3.25078">
        <ele>806.1</ele>
        <time>2021-08-14T11:30:19Z</time>
      </trkpt>
      <trkpt lat="44.02674" lon="3.25071">
        <ele>806.1</ele>
        <time>2021-08-14T11:30:21Z</time>
      </trkpt>
      <trkpt lat="44.02673" lon="3.25064">
        <ele>806.1</ele>
        <time>2021-08-14T11:30:23Z</time>
      </trkpt>
      <trkpt lat="44.02671" lon="3.25056">
        <ele>806.1</ele>
        <time>2021-08-14T11:30:25Z</time>
      </trkpt>
      <trkpt lat="44.0267" lon="3.25049">
        <ele>806.1</ele>
        <time>2021-08-14T11:30:27Z</time>
      </trkpt>
      <trkpt lat="44.02669" lon="3.25042">
        <ele>806</ele>
        <time>2021-08-14T11:30:29Z</time>
      </trkpt>
      <trkpt lat="44.02668" lon="3.25035">
        <ele>806</ele>
        <time>2021-08-14T11:30:31Z</time>
      </trkpt>
      <trkpt lat="44.02666" lon="3.25027">
        <ele>806</ele>
        <time>2021-08-14T11:30:33Z</time>
      </trkpt>
      <trkpt lat="44.02665" lon="3.25017">
        <ele>806</ele>
        <time>2021-08-14T11:30:35Z</time>
      </trkpt>
      <trkpt lat="44.02664" lon="3.25006">
        <ele>805.9</ele>
        <time>2021-08-14T11:30:37Z</time>
      </trkpt>
      <trkpt lat="44.02663" lon="3.24995">
        <ele>805.9</ele>
        <time>2021-08-14T11:30:39Z</time>
      </trkpt>
      <trkpt lat="44.02661" lon="3.24985">
        <ele>805.8</ele>
        <time>2021-08-14T11:30:41Z</time>
      </trkpt>
      <trkpt lat="44.02659" lon="3.24975">
        <ele>805.8</ele>
        <time>2021-08-14T11:30:43Z</time>
      </trkpt>
      <trkpt lat="44.02657" lon="3.24964">
        <ele>805.7</ele>
        <time>2021-08-14T11:30:45Z</time>
      </trkpt>
      <trkpt lat="44.02655" lon="3.24953">
        <ele>805.6</ele>
        <time>2021-08-14T11:30:47Z</time>
      </trkpt>
      <trkpt lat="44.02653" lon="3.24943">
        <ele>805.6</ele>
        <time>2021-08-14T11:30:49Z</time>
      </trkpt>
      <trkpt lat="44.02652" lon="3.24932">
        <ele>805.5</ele>
        <time>2021-08-14T11:30:51Z</time>
      </trkpt>
      <trkpt lat="44.0265" lon="3.24921">
        <ele>805.4</ele>
        <time>2021-08-14T11:30:53Z</time>
      </trkpt>
      <trkpt lat="44.02649" lon="3.2491">
        <ele>805.5</ele>
        <time>2021-08-14T11:30:55Z</time>
      </trkpt>
      <trkpt lat="44.02647" lon="3.24899">
        <ele>805.6</ele>
        <time>2021-08-14T11:30:57Z</time>
      </trkpt>
      <trkpt lat="44.02646" lon="3.24888">
        <ele>805.8</ele>
        <time>2021-08-14T11:30:59Z</time>
      </trkpt>
      <trkpt lat="44.02644" lon="3.24878">
        <ele>805.9</ele>
        <time>2021-08-14T11:31:01Z</time>
      </trkpt>
      <trkpt lat="44.02643" lon="3.24867">
        <ele>806</ele>
        <time>2021-08-14T11:31:03Z</time>
      </trkpt>
      <trkpt lat="44.02641" lon="3.24855">
        <ele>806.1</ele>
        <time>2021-08-14T11:31:05Z</time>
      </trkpt>
      <trkpt lat="44.0264" lon="3.24843">
        <ele>806.2</ele>
        <time>2021-08-14T11:31:07Z</time>
      </trkpt>
      <trkpt lat="44.02637" lon="3.24832">
        <ele>806.3</ele>
        <time>2021-08-14T11:31:09Z</time>
      </trkpt>
      <trkpt lat="44.02636" lon="3.2482">
        <ele>806.2</ele>
        <time>2021-08-14T11:31:11Z</time>
      </trkpt>
      <trkpt lat="44.02634" lon="3.24809">
        <ele>806.2</ele>
        <time>2021-08-14T11:31:13Z</time>
      </trkpt>
      <trkpt lat="44.02633" lon="3.24798">
        <ele>806.1</ele>
        <time>2021-08-14T11:31:15Z</time>
      </trkpt>
      <trkpt lat="44.02631" lon="3.24787">
        <ele>806.1</ele>
        <time>2021-08-14T11:31:17Z</time>
      </trkpt>
      <trkpt lat="44.02629" lon="3.24775">
        <ele>806.1</ele>
        <time>2021-08-14T11:31:19Z</time>
      </trkpt>
      <trkpt lat="44.02627" lon="3.24764">
        <ele>806</ele>
        <time>2021-08-14T11:31:21Z</time>
      </trkpt>
      <trkpt lat="44.02626" lon="3.24752">
        <ele>806</ele>
        <time>2021-08-14T11:31:23Z</time>
      </trkpt>
      <trkpt lat="44.02624" lon="3.24739">
        <ele>806.1</ele>
        <time>2021-08-14T11:31:25Z</time>
      </trkpt>
      <trkpt lat="44.02622" lon="3.24727">
        <ele>806.3</ele>
        <time>2021-08-14T11:31:27Z</time>
      </trkpt>
      <trkpt lat="44.0262" lon="3.24715">
        <ele>806.4</ele>
        <time>2021-08-14T11:31:29Z</time>
      </trkpt>
      <trkpt lat="44.02618" lon="3.24704">
        <ele>806.6</ele>
        <time>2021-08-14T11:31:31Z</time>
      </trkpt>
      <trkpt lat="44.02616" lon="3.24691">
        <ele>806.7</ele>
        <time>2021-08-14T11:31:33Z</time>
      </trkpt>
      <trkpt lat="44.02614" lon="3.24679">
        <ele>806.9</ele>
        <time>2021-08-14T11:31:35Z</time>
      </trkpt>
      <trkpt lat="44.02613" lon="3.24667">
        <ele>807.1</ele>
        <time>2021-08-14T11:31:37Z</time>
      </trkpt>
      <trkpt lat="44.02611" lon="3.24655">
        <ele>807.3</ele>
        <time>2021-08-14T11:31:39Z</time>
      </trkpt>
      <trkpt lat="44.02609" lon="3.24643">
        <ele>807.5</ele>
        <time>2021-08-14T11:31:41Z</time>
      </trkpt>
      <trkpt lat="44.02607" lon="3.24631">
        <ele>807.7</ele>
        <time>2021-08-14T11:31:43Z</time>
      </trkpt>
      <trkpt lat="44.02606" lon="3.24619">
        <ele>807.8</ele>
        <time>2021-08-14T11:31:45Z</time>
      </trkpt>
      <trkpt lat="44.02604" lon="3.24608">
        <ele>808</ele>
        <time>2021-08-14T11:31:47Z</time>
      </trkpt>
      <trkpt lat="44.02602" lon="3.24597">
        <ele>808.1</ele>
        <time>2021-08-14T11:31:49Z</time>
      </trkpt>
      <trkpt lat="44.02601" lon="3.24585">
        <ele>808.2</ele>
        <time>2021-08-14T11:31:51Z</time>
      </trkpt>
      <trkpt lat="44.02599" lon="3.24575">
        <ele>808.5</ele>
        <time>2021-08-14T11:31:53Z</time>
      </trkpt>
      <trkpt lat="44.02597" lon="3.24565">
        <ele>808.8</ele>
        <time>2021-08-14T11:31:55Z</time>
      </trkpt>
      <trkpt lat="44.02596" lon="3.24555">
        <ele>809</ele>
        <time>2021-08-14T11:31:57Z</time>
      </trkpt>
      <trkpt lat="44.02595" lon="3.24546">
        <ele>809.3</ele>
        <time>2021-08-14T11:31:59Z</time>
      </trkpt>
      <trkpt lat="44.02593" lon="3.24536">
        <ele>809.5</ele>
        <time>2021-08-14T11:32:01Z</time>
      </trkpt>
      <trkpt lat="44.02592" lon="3.24527">
        <ele>809.8</ele>
        <time>2021-08-14T11:32:03Z</time>
      </trkpt>
      <trkpt lat="44.0259" lon="3.24518">
        <ele>810</ele>
        <time>2021-08-14T11:32:05Z</time>
      </trkpt>
      <trkpt lat="44.02589" lon="3.24509">
        <ele>810.2</ele>
        <time>2021-08-14T11:32:07Z</time>
      </trkpt>
      <trkpt lat="44.02588" lon="3.24499">
        <ele>810.5</ele>
        <time>2021-08-14T11:32:09Z</time>
      </trkpt>
      <trkpt lat="44.02587" lon="3.2449">
        <ele>810.5</ele>
        <time>2021-08-14T11:32:11Z</time>
      </trkpt>
      <trkpt lat="44.02585" lon="3.24481">
        <ele>810.4</ele>
        <time>2021-08-14T11:32:13Z</time>
      </trkpt>
      <trkpt lat="44.02584" lon="3.24472">
        <ele>810.4</ele>
        <time>2021-08-14T11:32:15Z</time>
      </trkpt>
      <trkpt lat="44.02582" lon="3.24463">
        <ele>810.4</ele>
        <time>2021-08-14T11:32:17Z</time>
      </trkpt>
      <trkpt lat="44.02581" lon="3.24455">
        <ele>810.5</ele>
        <time>2021-08-14T11:32:19Z</time>
      </trkpt>
      <trkpt lat="44.02579" lon="3.24446">
        <ele>810.5</ele>
        <time>2021-08-14T11:32:21Z</time>
      </trkpt>
      <trkpt lat="44.02578" lon="3.24438">
        <ele>810.6</ele>
        <time>2021-08-14T11:32:23Z</time>
      </trkpt>
      <trkpt lat="44.02577" lon="3.24429">
        <ele>810.7</ele>
        <time>2021-08-14T11:32:25Z</time>
      </trkpt>
      <trkpt lat="44.02575" lon="3.24421">
        <ele>810.8</ele>
        <time>2021-08-14T11:32:27Z</time>
      </trkpt>
      <trkpt lat="44.02574" lon="3.24413">
        <ele>810.9</ele>
        <time>2021-08-14T11:32:29Z</time>
      </trkpt>
      <trkpt lat="44.02573" lon="3.24405">
        <ele>811.2</ele>
        <time>2021-08-14T11:32:31Z</time>
      </trkpt>
      <trkpt lat="44.02572" lon="3.24397">
        <ele>811.4</ele>
        <time>2021-08-14T11:32:33Z</time>
      </trkpt>
      <trkpt lat="44.0257" lon="3.24388">
        <ele>811.7</ele>
        <time>2021-08-14T11:32:35Z</time>
      </trkpt>
      <trkpt lat="44.02569" lon="3.24381">
        <ele>811.9</ele>
        <time>2021-08-14T11:32:37Z</time>
      </trkpt>
      <trkpt lat="44.02567" lon="3.24374">
        <ele>812.1</ele>
        <time>2021-08-14T11:32:39Z</time>
      </trkpt>
      <trkpt lat="44.02566" lon="3.24365">
        <ele>812.3</ele>
        <time>2021-08-14T11:32:41Z</time>
      </trkpt>
      <trkpt lat="44.02565" lon="3.24357">
        <ele>812.5</ele>
        <time>2021-08-14T11:32:43Z</time>
      </trkpt>
      <trkpt lat="44.02564" lon="3.24349">
        <ele>812.8</ele>
        <time>2021-08-14T11:32:45Z</time>
      </trkpt>
      <trkpt lat="44.02563" lon="3.24343">
        <ele>813</ele>
        <time>2021-08-14T11:32:47Z</time>
      </trkpt>
      <trkpt lat="44.02561" lon="3.24336">
        <ele>813.1</ele>
        <time>2021-08-14T11:32:49Z</time>
      </trkpt>
      <trkpt lat="44.0256" lon="3.24328">
        <ele>813.3</ele>
        <time>2021-08-14T11:32:51Z</time>
      </trkpt>
      <trkpt lat="44.02558" lon="3.2432">
        <ele>813.5</ele>
        <time>2021-08-14T11:32:53Z</time>
      </trkpt>
      <trkpt lat="44.02557" lon="3.24311">
        <ele>813.8</ele>
        <time>2021-08-14T11:32:55Z</time>
      </trkpt>
      <trkpt lat="44.02556" lon="3.24304">
        <ele>814</ele>
        <time>2021-08-14T11:32:57Z</time>
      </trkpt>
      <trkpt lat="44.02555" lon="3.24296">
        <ele>814.2</ele>
        <time>2021-08-14T11:32:59Z</time>
      </trkpt>
      <trkpt lat="44.02555" lon="3.24289">
        <ele>814.4</ele>
        <time>2021-08-14T11:33:01Z</time>
      </trkpt>
      <trkpt lat="44.02553" lon="3.24281">
        <ele>814.6</ele>
        <time>2021-08-14T11:33:03Z</time>
      </trkpt>
      <trkpt lat="44.02552" lon="3.24273">
        <ele>814.9</ele>
        <time>2021-08-14T11:33:05Z</time>
      </trkpt>
      <trkpt lat="44.02551" lon="3.24265">
        <ele>815.1</ele>
        <time>2021-08-14T11:33:07Z</time>
      </trkpt>
      <trkpt lat="44.02551" lon="3.24259">
        <ele>815.3</ele>
        <time>2021-08-14T11:33:09Z</time>
      </trkpt>
      <trkpt lat="44.02551" lon="3.24255">
        <ele>815.4</ele>
        <time>2021-08-14T11:33:11Z</time>
      </trkpt>
      <trkpt lat="44.02551" lon="3.24252">
        <ele>815.5</ele>
        <time>2021-08-14T11:33:13Z</time>
      </trkpt>
      <trkpt lat="44.02549" lon="3.24248">
        <ele>815.6</ele>
        <time>2021-08-14T11:33:15Z</time>
      </trkpt>
      <trkpt lat="44.02545" lon="3.24247">
        <ele>815.6</ele>
        <time>2021-08-14T11:33:17Z</time>
      </trkpt>
      <trkpt lat="44.02541" lon="3.2425">
        <ele>815.5</ele>
        <time>2021-08-14T11:33:19Z</time>
      </trkpt>
      <trkpt lat="44.02537" lon="3.24252">
        <ele>815.4</ele>
        <time>2021-08-14T11:33:21Z</time>
      </trkpt>
      <trkpt lat="44.02533" lon="3.2425">
        <ele>815.4</ele>
        <time>2021-08-14T11:33:23Z</time>
      </trkpt>
      <trkpt lat="44.02529" lon="3.2425">
        <ele>815.4</ele>
        <time>2021-08-14T11:33:25Z</time>
      </trkpt>
      <trkpt lat="44.02524" lon="3.24249">
        <ele>815.3</ele>
        <time>2021-08-14T11:33:27Z</time>
      </trkpt>
      <trkpt lat="44.02519" lon="3.24248">
        <ele>815.3</ele>
        <time>2021-08-14T11:33:29Z</time>
      </trkpt>
      <trkpt lat="44.02515" lon="3.24247">
        <ele>815.3</ele>
        <time>2021-08-14T11:33:31Z</time>
      </trkpt>
      <trkpt lat="44.02511" lon="3.24245">
        <ele>815.3</ele>
        <time>2021-08-14T11:33:33Z</time>
      </trkpt>
      <trkpt lat="44.02506" lon="3.24244">
        <ele>815.2</ele>
        <time>2021-08-14T11:33:35Z</time>
      </trkpt>
      <trkpt lat="44.02501" lon="3.24243">
        <ele>815.2</ele>
        <time>2021-08-14T11:33:37Z</time>
      </trkpt>
      <trkpt lat="44.02497" lon="3.24242">
        <ele>815.1</ele>
        <time>2021-08-14T11:33:39Z</time>
      </trkpt>
      <trkpt lat="44.02494" lon="3.24241">
        <ele>815</ele>
        <time>2021-08-14T11:33:41Z</time>
      </trkpt>
      <trkpt lat="44.02492" lon="3.24241">
        <ele>814.9</ele>
        <time>2021-08-14T11:33:43Z</time>
      </trkpt>
      <trkpt lat="44.02488" lon="3.2424">
        <ele>814.8</ele>
        <time>2021-08-14T11:33:45Z</time>
      </trkpt>
      <trkpt lat="44.02484" lon="3.24241">
        <ele>814.6</ele>
        <time>2021-08-14T11:33:47Z</time>
      </trkpt>
      <trkpt lat="44.02479" lon="3.24241">
        <ele>814.4</ele>
        <time>2021-08-14T11:33:49Z</time>
      </trkpt>
      <trkpt lat="44.02472" lon="3.24239">
        <ele>814.3</ele>
        <time>2021-08-14T11:33:51Z</time>
      </trkpt>
      <trkpt lat="44.02467" lon="3.24236">
        <ele>814.1</ele>
        <time>2021-08-14T11:33:53Z</time>
      </trkpt>
      <trkpt lat="44.0246" lon="3.24233">
        <ele>814</ele>
        <time>2021-08-14T11:33:55Z</time>
      </trkpt>
      <trkpt lat="44.02454" lon="3.2423">
        <ele>813.8</ele>
        <time>2021-08-14T11:33:57Z</time>
      </trkpt>
      <trkpt lat="44.02448" lon="3.24225">
        <ele>813.8</ele>
        <time>2021-08-14T11:33:59Z</time>
      </trkpt>
      <trkpt lat="44.02443" lon="3.24217">
        <ele>813.7</ele>
        <time>2021-08-14T11:34:01Z</time>
      </trkpt>
      <trkpt lat="44.02437" lon="3.2421">
        <ele>813.7</ele>
        <time>2021-08-14T11:34:03Z</time>
      </trkpt>
      <trkpt lat="44.02429" lon="3.24204">
        <ele>813.5</ele>
        <time>2021-08-14T11:34:05Z</time>
      </trkpt>
      <trkpt lat="44.0242" lon="3.24199">
        <ele>813.3</ele>
        <time>2021-08-14T11:34:07Z</time>
      </trkpt>
      <trkpt lat="44.02409" lon="3.24195">
        <ele>813.2</ele>
        <time>2021-08-14T11:34:09Z</time>
      </trkpt>
      <trkpt lat="44.02398" lon="3.24194">
        <ele>813</ele>
        <time>2021-08-14T11:34:11Z</time>
      </trkpt>
      <trkpt lat="44.02387" lon="3.24196">
        <ele>812.7</ele>
        <time>2021-08-14T11:34:13Z</time>
      </trkpt>
      <trkpt lat="44.02378" lon="3.242">
        <ele>812.4</ele>
        <time>2021-08-14T11:34:15Z</time>
      </trkpt>
      <trkpt lat="44.02368" lon="3.24204">
        <ele>812</ele>
        <time>2021-08-14T11:34:17Z</time>
      </trkpt>
      <trkpt lat="44.02359" lon="3.24205">
        <ele>811.8</ele>
        <time>2021-08-14T11:34:19Z</time>
      </trkpt>
      <trkpt lat="44.0235" lon="3.24207">
        <ele>811.5</ele>
        <time>2021-08-14T11:34:21Z</time>
      </trkpt>
      <trkpt lat="44.02341" lon="3.24212">
        <ele>811</ele>
        <time>2021-08-14T11:34:23Z</time>
      </trkpt>
      <trkpt lat="44.02332" lon="3.24214">
        <ele>810.7</ele>
        <time>2021-08-14T11:34:25Z</time>
      </trkpt>
      <trkpt lat="44.02324" lon="3.24216">
        <ele>810.4</ele>
        <time>2021-08-14T11:34:27Z</time>
      </trkpt>
      <trkpt lat="44.02315" lon="3.24219">
        <ele>810.1</ele>
        <time>2021-08-14T11:34:29Z</time>
      </trkpt>
      <trkpt lat="44.02306" lon="3.2422">
        <ele>809.9</ele>
        <time>2021-08-14T11:34:31Z</time>
      </trkpt>
      <trkpt lat="44.02295" lon="3.24219">
        <ele>809.7</ele>
        <time>2021-08-14T11:34:33Z</time>
      </trkpt>
      <trkpt lat="44.02284" lon="3.24216">
        <ele>809.6</ele>
        <time>2021-08-14T11:34:35Z</time>
      </trkpt>
      <trkpt lat="44.02274" lon="3.24211">
        <ele>809.5</ele>
        <time>2021-08-14T11:34:37Z</time>
      </trkpt>
      <trkpt lat="44.02264" lon="3.24206">
        <ele>809.4</ele>
        <time>2021-08-14T11:34:39Z</time>
      </trkpt>
      <trkpt lat="44.02255" lon="3.24201">
        <ele>809.3</ele>
        <time>2021-08-14T11:34:41Z</time>
      </trkpt>
      <trkpt lat="44.02245" lon="3.24197">
        <ele>809.1</ele>
        <time>2021-08-14T11:34:43Z</time>
      </trkpt>
      <trkpt lat="44.02236" lon="3.24193">
        <ele>808.9</ele>
        <time>2021-08-14T11:34:45Z</time>
      </trkpt>
      <trkpt lat="44.02226" lon="3.24188">
        <ele>808.6</ele>
        <time>2021-08-14T11:34:47Z</time>
      </trkpt>
      <trkpt lat="44.02217" lon="3.24185">
        <ele>808.2</ele>
        <time>2021-08-14T11:34:49Z</time>
      </trkpt>
      <trkpt lat="44.02207" lon="3.24181">
        <ele>807.9</ele>
        <time>2021-08-14T11:34:51Z</time>
      </trkpt>
      <trkpt lat="44.02196" lon="3.24177">
        <ele>807.4</ele>
        <time>2021-08-14T11:34:53Z</time>
      </trkpt>
      <trkpt lat="44.02186" lon="3.24175">
        <ele>806.9</ele>
        <time>2021-08-14T11:34:55Z</time>
      </trkpt>
      <trkpt lat="44.02175" lon="3.24172">
        <ele>806.4</ele>
        <time>2021-08-14T11:34:57Z</time>
      </trkpt>
      <trkpt lat="44.02164" lon="3.24171">
        <ele>806.1</ele>
        <time>2021-08-14T11:34:59Z</time>
      </trkpt>
      <trkpt lat="44.02155" lon="3.24172">
        <ele>806.1</ele>
        <time>2021-08-14T11:35:01Z</time>
      </trkpt>
      <trkpt lat="44.02145" lon="3.24174">
        <ele>806.1</ele>
        <time>2021-08-14T11:35:03Z</time>
      </trkpt>
      <trkpt lat="44.02136" lon="3.24176">
        <ele>806.1</ele>
        <time>2021-08-14T11:35:05Z</time>
      </trkpt>
      <trkpt lat="44.02128" lon="3.2418">
        <ele>806.2</ele>
        <time>2021-08-14T11:35:07Z</time>
      </trkpt>
      <trkpt lat="44.02119" lon="3.24185">
        <ele>806.2</ele>
        <time>2021-08-14T11:35:09Z</time>
      </trkpt>
      <trkpt lat="44.02111" lon="3.24191">
        <ele>806.3</ele>
        <time>2021-08-14T11:35:11Z</time>
      </trkpt>
      <trkpt lat="44.02104" lon="3.24197">
        <ele>806.4</ele>
        <time>2021-08-14T11:35:13Z</time>
      </trkpt>
      <trkpt lat="44.02096" lon="3.24204">
        <ele>806.4</ele>
        <time>2021-08-14T11:35:15Z</time>
      </trkpt>
      <trkpt lat="44.02089" lon="3.24211">
        <ele>806.5</ele>
        <time>2021-08-14T11:35:17Z</time>
      </trkpt>
      <trkpt lat="44.02082" lon="3.24218">
        <ele>806.6</ele>
        <time>2021-08-14T11:35:19Z</time>
      </trkpt>
      <trkpt lat="44.02075" lon="3.24225">
        <ele>806.9</ele>
        <time>2021-08-14T11:35:21Z</time>
      </trkpt>
      <trkpt lat="44.02067" lon="3.24233">
        <ele>807.1</ele>
        <time>2021-08-14T11:35:23Z</time>
      </trkpt>
      <trkpt lat="44.0206" lon="3.2424">
        <ele>807.2</ele>
        <time>2021-08-14T11:35:25Z</time>
      </trkpt>
      <trkpt lat="44.02053" lon="3.24245">
        <ele>807.4</ele>
        <time>2021-08-14T11:35:27Z</time>
      </trkpt>
      <trkpt lat="44.02046" lon="3.24251">
        <ele>807.5</ele>
        <time>2021-08-14T11:35:29Z</time>
      </trkpt>
      <trkpt lat="44.02038" lon="3.24256">
        <ele>807.7</ele>
        <time>2021-08-14T11:35:31Z</time>
      </trkpt>
      <trkpt lat="44.02032" lon="3.24262">
        <ele>807.8</ele>
        <time>2021-08-14T11:35:33Z</time>
      </trkpt>
      <trkpt lat="44.02025" lon="3.24267">
        <ele>808</ele>
        <time>2021-08-14T11:35:35Z</time>
      </trkpt>
      <trkpt lat="44.02018" lon="3.24271">
        <ele>808.1</ele>
        <time>2021-08-14T11:35:37Z</time>
      </trkpt>
      <trkpt lat="44.02011" lon="3.24276">
        <ele>808.2</ele>
        <time>2021-08-14T11:35:39Z</time>
      </trkpt>
      <trkpt lat="44.02004" lon="3.24281">
        <ele>808.3</ele>
        <time>2021-08-14T11:35:41Z</time>
      </trkpt>
      <trkpt lat="44.01997" lon="3.24285">
        <ele>808.4</ele>
        <time>2021-08-14T11:35:43Z</time>
      </trkpt>
      <trkpt lat="44.0199" lon="3.24288">
        <ele>808.6</ele>
        <time>2021-08-14T11:35:45Z</time>
      </trkpt>
      <trkpt lat="44.01984" lon="3.24291">
        <ele>808.7</ele>
        <time>2021-08-14T11:35:47Z</time>
      </trkpt>
      <trkpt lat="44.01977" lon="3.24293">
        <ele>808.8</ele>
        <time>2021-08-14T11:35:49Z</time>
      </trkpt>
      <trkpt lat="44.0197" lon="3.24295">
        <ele>808.9</ele>
        <time>2021-08-14T11:35:51Z</time>
      </trkpt>
      <trkpt lat="44.01963" lon="3.24296">
        <ele>809</ele>
        <time>2021-08-14T11:35:53Z</time>
      </trkpt>
      <trkpt lat="44.01956" lon="3.24297">
        <ele>809.1</ele>
        <time>2021-08-14T11:35:55Z</time>
      </trkpt>
      <trkpt lat="44.01949" lon="3.24298">
        <ele>809.2</ele>
        <time>2021-08-14T11:35:57Z</time>
      </trkpt>
      <trkpt lat="44.01942" lon="3.24298">
        <ele>809.3</ele>
        <time>2021-08-14T11:35:59Z</time>
      </trkpt>
      <trkpt lat="44.01935" lon="3.24298">
        <ele>809.4</ele>
        <time>2021-08-14T11:36:01Z</time>
      </trkpt>
      <trkpt lat="44.01928" lon="3.24297">
        <ele>809.4</ele>
        <time>2021-08-14T11:36:03Z</time>
      </trkpt>
      <trkpt lat="44.01921" lon="3.24297">
        <ele>809.5</ele>
        <time>2021-08-14T11:36:05Z</time>
      </trkpt>
      <trkpt lat="44.01915" lon="3.24296">
        <ele>809.6</ele>
        <time>2021-08-14T11:36:07Z</time>
      </trkpt>
      <trkpt lat="44.01908" lon="3.24295">
        <ele>809.8</ele>
        <time>2021-08-14T11:36:09Z</time>
      </trkpt>
      <trkpt lat="44.01901" lon="3.24295">
        <ele>810</ele>
        <time>2021-08-14T11:36:11Z</time>
      </trkpt>
      <trkpt lat="44.01895" lon="3.24294">
        <ele>810.2</ele>
        <time>2021-08-14T11:36:13Z</time>
      </trkpt>
      <trkpt lat="44.01888" lon="3.24293">
        <ele>810.4</ele>
        <time>2021-08-14T11:36:15Z</time>
      </trkpt>
      <trkpt lat="44.01882" lon="3.24292">
        <ele>810.5</ele>
        <time>2021-08-14T11:36:17Z</time>
      </trkpt>
      <trkpt lat="44.01876" lon="3.24292">
        <ele>810.7</ele>
        <time>2021-08-14T11:36:19Z</time>
      </trkpt>
      <trkpt lat="44.0187" lon="3.24291">
        <ele>810.9</ele>
        <time>2021-08-14T11:36:21Z</time>
      </trkpt>
      <trkpt lat="44.01864" lon="3.24291">
        <ele>811.1</ele>
        <time>2021-08-14T11:36:23Z</time>
      </trkpt>
      <trkpt lat="44.01858" lon="3.2429">
        <ele>811.2</ele>
        <time>2021-08-14T11:36:25Z</time>
      </trkpt>
      <trkpt lat="44.01852" lon="3.2429">
        <ele>811.4</ele>
        <time>2021-08-14T11:36:27Z</time>
      </trkpt>
      <trkpt lat="44.01847" lon="3.2429">
        <ele>811.5</ele>
        <time>2021-08-14T11:36:29Z</time>
      </trkpt>
      <trkpt lat="44.01841" lon="3.24289">
        <ele>811.7</ele>
        <time>2021-08-14T11:36:31Z</time>
      </trkpt>
      <trkpt lat="44.01836" lon="3.24288">
        <ele>811.8</ele>
        <time>2021-08-14T11:36:33Z</time>
      </trkpt>
      <trkpt lat="44.01831" lon="3.24288">
        <ele>812.1</ele>
        <time>2021-08-14T11:36:35Z</time>
      </trkpt>
      <trkpt lat="44.01825" lon="3.24287">
        <ele>812.3</ele>
        <time>2021-08-14T11:36:37Z</time>
      </trkpt>
      <trkpt lat="44.0182" lon="3.24287">
        <ele>812.6</ele>
        <time>2021-08-14T11:36:39Z</time>
      </trkpt>
      <trkpt lat="44.01815" lon="3.24287">
        <ele>812.9</ele>
        <time>2021-08-14T11:36:41Z</time>
      </trkpt>
      <trkpt lat="44.0181" lon="3.24287">
        <ele>813.2</ele>
        <time>2021-08-14T11:36:43Z</time>
      </trkpt>
      <trkpt lat="44.01804" lon="3.24286">
        <ele>813.4</ele>
        <time>2021-08-14T11:36:45Z</time>
      </trkpt>
      <trkpt lat="44.01799" lon="3.24285">
        <ele>813.7</ele>
        <time>2021-08-14T11:36:47Z</time>
      </trkpt>
      <trkpt lat="44.01794" lon="3.24285">
        <ele>814</ele>
        <time>2021-08-14T11:36:49Z</time>
      </trkpt>
      <trkpt lat="44.01789" lon="3.24285">
        <ele>814.3</ele>
        <time>2021-08-14T11:36:51Z</time>
      </trkpt>
      <trkpt lat="44.01784" lon="3.24284">
        <ele>814.5</ele>
        <time>2021-08-14T11:36:53Z</time>
      </trkpt>
      <trkpt lat="44.01779" lon="3.24284">
        <ele>814.8</ele>
        <time>2021-08-14T11:36:55Z</time>
      </trkpt>
      <trkpt lat="44.01773" lon="3.24284">
        <ele>815.1</ele>
        <time>2021-08-14T11:36:57Z</time>
      </trkpt>
      <trkpt lat="44.01768" lon="3.24283">
        <ele>815.4</ele>
        <time>2021-08-14T11:36:59Z</time>
      </trkpt>
      <trkpt lat="44.01763" lon="3.24284">
        <ele>815.7</ele>
        <time>2021-08-14T11:37:01Z</time>
      </trkpt>
      <trkpt lat="44.01759" lon="3.24283">
        <ele>815.9</ele>
        <time>2021-08-14T11:37:03Z</time>
      </trkpt>
      <trkpt lat="44.01754" lon="3.24283">
        <ele>816.2</ele>
        <time>2021-08-14T11:37:05Z</time>
      </trkpt>
      <trkpt lat="44.01749" lon="3.24283">
        <ele>816.4</ele>
        <time>2021-08-14T11:37:07Z</time>
      </trkpt>
      <trkpt lat="44.01744" lon="3.24283">
        <ele>816.7</ele>
        <time>2021-08-14T11:37:09Z</time>
      </trkpt>
      <trkpt lat="44.0174" lon="3.24283">
        <ele>816.9</ele>
        <time>2021-08-14T11:37:11Z</time>
      </trkpt>
      <trkpt lat="44.01735" lon="3.24284">
        <ele>817.1</ele>
        <time>2021-08-14T11:37:13Z</time>
      </trkpt>
      <trkpt lat="44.0173" lon="3.24283">
        <ele>817.3</ele>
        <time>2021-08-14T11:37:15Z</time>
      </trkpt>
      <trkpt lat="44.01725" lon="3.24284">
        <ele>817.6</ele>
        <time>2021-08-14T11:37:17Z</time>
      </trkpt>
      <trkpt lat="44.0172" lon="3.24285">
        <ele>817.8</ele>
        <time>2021-08-14T11:37:19Z</time>
      </trkpt>
      <trkpt lat="44.01716" lon="3.24286">
        <ele>818.1</ele>
        <time>2021-08-14T11:37:21Z</time>
      </trkpt>
      <trkpt lat="44.01711" lon="3.24286">
        <ele>818.3</ele>
        <time>2021-08-14T11:37:23Z</time>
      </trkpt>
      <trkpt lat="44.01707" lon="3.24287">
        <ele>818.5</ele>
        <time>2021-08-14T11:37:25Z</time>
      </trkpt>
      <trkpt lat="44.01702" lon="3.24286">
        <ele>818.8</ele>
        <time>2021-08-14T11:37:27Z</time>
      </trkpt>
      <trkpt lat="44.01698" lon="3.24287">
        <ele>819</ele>
        <time>2021-08-14T11:37:29Z</time>
      </trkpt>
      <trkpt lat="44.01693" lon="3.24288">
        <ele>819.2</ele>
        <time>2021-08-14T11:37:31Z</time>
      </trkpt>
      <trkpt lat="44.01689" lon="3.24289">
        <ele>819.4</ele>
        <time>2021-08-14T11:37:33Z</time>
      </trkpt>
      <trkpt lat="44.01684" lon="3.2429">
        <ele>819.6</ele>
        <time>2021-08-14T11:37:35Z</time>
      </trkpt>
      <trkpt lat="44.0168" lon="3.2429">
        <ele>819.9</ele>
        <time>2021-08-14T11:37:37Z</time>
      </trkpt>
      <trkpt lat="44.01675" lon="3.24291">
        <ele>820.1</ele>
        <time>2021-08-14T11:37:39Z</time>
      </trkpt>
      <trkpt lat="44.01671" lon="3.24291">
        <ele>820.3</ele>
        <time>2021-08-14T11:37:41Z</time>
      </trkpt>
      <trkpt lat="44.01666" lon="3.24292">
        <ele>820.5</ele>
        <time>2021-08-14T11:37:43Z</time>
      </trkpt>
      <trkpt lat="44.01661" lon="3.24293">
        <ele>820.6</ele>
        <time>2021-08-14T11:37:45Z</time>
      </trkpt>
      <trkpt lat="44.01657" lon="3.24295">
        <ele>820.7</ele>
        <time>2021-08-14T11:37:47Z</time>
      </trkpt>
      <trkpt lat="44.01652" lon="3.24295">
        <ele>820.8</ele>
        <time>2021-08-14T11:37:49Z</time>
      </trkpt>
      <trkpt lat="44.01647" lon="3.24297">
        <ele>820.9</ele>
        <time>2021-08-14T11:37:51Z</time>
      </trkpt>
      <trkpt lat="44.01643" lon="3.24297">
        <ele>821</ele>
        <time>2021-08-14T11:37:53Z</time>
      </trkpt>
      <trkpt lat="44.01638" lon="3.24299">
        <ele>821.1</ele>
        <time>2021-08-14T11:37:55Z</time>
      </trkpt>
      <trkpt lat="44.01633" lon="3.24301">
        <ele>821.2</ele>
        <time>2021-08-14T11:37:57Z</time>
      </trkpt>
      <trkpt lat="44.01628" lon="3.24302">
        <ele>821.3</ele>
        <time>2021-08-14T11:37:59Z</time>
      </trkpt>
      <trkpt lat="44.01624" lon="3.24303">
        <ele>821.3</ele>
        <time>2021-08-14T11:38:01Z</time>
      </trkpt>
      <trkpt lat="44.01618" lon="3.24304">
        <ele>821.4</ele>
        <time>2021-08-14T11:38:03Z</time>
      </trkpt>
      <trkpt lat="44.01613" lon="3.24305">
        <ele>821.5</ele>
        <time>2021-08-14T11:38:05Z</time>
      </trkpt>
      <trkpt lat="44.01608" lon="3.24306">
        <ele>821.6</ele>
        <time>2021-08-14T11:38:07Z</time>
      </trkpt>
      <trkpt lat="44.01603" lon="3.24307">
        <ele>821.7</ele>
        <time>2021-08-14T11:38:09Z</time>
      </trkpt>
      <trkpt lat="44.01598" lon="3.24308">
        <ele>821.8</ele>
        <time>2021-08-14T11:38:11Z</time>
      </trkpt>
      <trkpt lat="44.01592" lon="3.24308">
        <ele>821.9</ele>
        <time>2021-08-14T11:38:13Z</time>
      </trkpt>
      <trkpt lat="44.01586" lon="3.24309">
        <ele>822</ele>
        <time>2021-08-14T11:38:15Z</time>
      </trkpt>
      <trkpt lat="44.0158" lon="3.2431">
        <ele>822.1</ele>
        <time>2021-08-14T11:38:17Z</time>
      </trkpt>
      <trkpt lat="44.01575" lon="3.24311">
        <ele>822.2</ele>
        <time>2021-08-14T11:38:19Z</time>
      </trkpt>
      <trkpt lat="44.01569" lon="3.24311">
        <ele>822.4</ele>
        <time>2021-08-14T11:38:21Z</time>
      </trkpt>
      <trkpt lat="44.01563" lon="3.24311">
        <ele>822.5</ele>
        <time>2021-08-14T11:38:23Z</time>
      </trkpt>
      <trkpt lat="44.01557" lon="3.24311">
        <ele>822.7</ele>
        <time>2021-08-14T11:38:25Z</time>
      </trkpt>
      <trkpt lat="44.01551" lon="3.24311">
        <ele>822.9</ele>
        <time>2021-08-14T11:38:27Z</time>
      </trkpt>
      <trkpt lat="44.01545" lon="3.24311">
        <ele>823.1</ele>
        <time>2021-08-14T11:38:29Z</time>
      </trkpt>
      <trkpt lat="44.01539" lon="3.24311">
        <ele>823.2</ele>
        <time>2021-08-14T11:38:31Z</time>
      </trkpt>
      <trkpt lat="44.01533" lon="3.24311">
        <ele>823.4</ele>
        <time>2021-08-14T11:38:33Z</time>
      </trkpt>
      <trkpt lat="44.01527" lon="3.24311">
        <ele>823.5</ele>
        <time>2021-08-14T11:38:35Z</time>
      </trkpt>
      <trkpt lat="44.0152" lon="3.2431">
        <ele>823.7</ele>
        <time>2021-08-14T11:38:37Z</time>
      </trkpt>
      <trkpt lat="44.01515" lon="3.24311">
        <ele>823.9</ele>
        <time>2021-08-14T11:38:39Z</time>
      </trkpt>
      <trkpt lat="44.01508" lon="3.24311">
        <ele>824</ele>
        <time>2021-08-14T11:38:41Z</time>
      </trkpt>
      <trkpt lat="44.01503" lon="3.24311">
        <ele>824.2</ele>
        <time>2021-08-14T11:38:43Z</time>
      </trkpt>
      <trkpt lat="44.01496" lon="3.2431">
        <ele>824.4</ele>
        <time>2021-08-14T11:38:45Z</time>
      </trkpt>
      <trkpt lat="44.0149" lon="3.2431">
        <ele>824.7</ele>
        <time>2021-08-14T11:38:47Z</time>
      </trkpt>
      <trkpt lat="44.01484" lon="3.24309">
        <ele>825</ele>
        <time>2021-08-14T11:38:49Z</time>
      </trkpt>
      <trkpt lat="44.01479" lon="3.24308">
        <ele>825.3</ele>
        <time>2021-08-14T11:38:51Z</time>
      </trkpt>
      <trkpt lat="44.01473" lon="3.24308">
        <ele>825.5</ele>
        <time>2021-08-14T11:38:53Z</time>
      </trkpt>
      <trkpt lat="44.01468" lon="3.24308">
        <ele>825.7</ele>
        <time>2021-08-14T11:38:55Z</time>
      </trkpt>
      <trkpt lat="44.01462" lon="3.24309">
        <ele>826</ele>
        <time>2021-08-14T11:38:57Z</time>
      </trkpt>
      <trkpt lat="44.01456" lon="3.24309">
        <ele>826.3</ele>
        <time>2021-08-14T11:38:59Z</time>
      </trkpt>
      <trkpt lat="44.0145" lon="3.24309">
        <ele>826.5</ele>
        <time>2021-08-14T11:39:01Z</time>
      </trkpt>
      <trkpt lat="44.01444" lon="3.24309">
        <ele>826.8</ele>
        <time>2021-08-14T11:39:03Z</time>
      </trkpt>
      <trkpt lat="44.01438" lon="3.24309">
        <ele>827.1</ele>
        <time>2021-08-14T11:39:05Z</time>
      </trkpt>
      <trkpt lat="44.01432" lon="3.24309">
        <ele>827.3</ele>
        <time>2021-08-14T11:39:07Z</time>
      </trkpt>
      <trkpt lat="44.01427" lon="3.24308">
        <ele>827.5</ele>
        <time>2021-08-14T11:39:09Z</time>
      </trkpt>
      <trkpt lat="44.01421" lon="3.24308">
        <ele>827.8</ele>
        <time>2021-08-14T11:39:11Z</time>
      </trkpt>
      <trkpt lat="44.01415" lon="3.24307">
        <ele>828</ele>
        <time>2021-08-14T11:39:13Z</time>
      </trkpt>
      <trkpt lat="44.01408" lon="3.24306">
        <ele>828.1</ele>
        <time>2021-08-14T11:39:15Z</time>
      </trkpt>
      <trkpt lat="44.01402" lon="3.24304">
        <ele>828.1</ele>
        <time>2021-08-14T11:39:17Z</time>
      </trkpt>
      <trkpt lat="44.01395" lon="3.24302">
        <ele>828.2</ele>
        <time>2021-08-14T11:39:19Z</time>
      </trkpt>
      <trkpt lat="44.01389" lon="3.243">
        <ele>828.3</ele>
        <time>2021-08-14T11:39:21Z</time>
      </trkpt>
      <trkpt lat="44.01382" lon="3.24297">
        <ele>828.4</ele>
        <time>2021-08-14T11:39:23Z</time>
      </trkpt>
      <trkpt lat="44.01376" lon="3.24295">
        <ele>828.4</ele>
        <time>2021-08-14T11:39:25Z</time>
      </trkpt>
      <trkpt lat="44.0137" lon="3.24293">
        <ele>828.5</ele>
        <time>2021-08-14T11:39:27Z</time>
      </trkpt>
      <trkpt lat="44.01364" lon="3.2429">
        <ele>828.7</ele>
        <time>2021-08-14T11:39:29Z</time>
      </trkpt>
      <trkpt lat="44.01358" lon="3.24287">
        <ele>828.8</ele>
        <time>2021-08-14T11:39:31Z</time>
      </trkpt>
      <trkpt lat="44.01353" lon="3.24283">
        <ele>828.9</ele>
        <time>2021-08-14T11:39:33Z</time>
      </trkpt>
      <trkpt lat="44.01347" lon="3.24279">
        <ele>829.1</ele>
        <time>2021-08-14T11:39:35Z</time>
      </trkpt>
      <trkpt lat="44.01342" lon="3.24275">
        <ele>829.3</ele>
        <time>2021-08-14T11:39:37Z</time>
      </trkpt>
      <trkpt lat="44.01337" lon="3.24271">
        <ele>829.4</ele>
        <time>2021-08-14T11:39:39Z</time>
      </trkpt>
      <trkpt lat="44.01332" lon="3.24267">
        <ele>829.6</ele>
        <time>2021-08-14T11:39:41Z</time>
      </trkpt>
      <trkpt lat="44.01327" lon="3.24263">
        <ele>829.8</ele>
        <time>2021-08-14T11:39:43Z</time>
      </trkpt>
      <trkpt lat="44.01322" lon="3.24259">
        <ele>830.1</ele>
        <time>2021-08-14T11:39:45Z</time>
      </trkpt>
      <trkpt lat="44.01318" lon="3.24254">
        <ele>830.3</ele>
        <time>2021-08-14T11:39:47Z</time>
      </trkpt>
      <trkpt lat="44.01313" lon="3.2425">
        <ele>830.5</ele>
        <time>2021-08-14T11:39:49Z</time>
      </trkpt>
      <trkpt lat="44.01309" lon="3.24245">
        <ele>830.5</ele>
        <time>2021-08-14T11:39:51Z</time>
      </trkpt>
      <trkpt lat="44.01304" lon="3.24241">
        <ele>830.6</ele>
        <time>2021-08-14T11:39:53Z</time>
      </trkpt>
      <trkpt lat="44.013" lon="3.24238">
        <ele>830.7</ele>
        <time>2021-08-14T11:39:55Z</time>
      </trkpt>
      <trkpt lat="44.01295" lon="3.24236">
        <ele>830.8</ele>
        <time>2021-08-14T11:39:57Z</time>
      </trkpt>
      <trkpt lat="44.0129" lon="3.24234">
        <ele>830.9</ele>
        <time>2021-08-14T11:39:59Z</time>
      </trkpt>
      <trkpt lat="44.01286" lon="3.24232">
        <ele>831</ele>
        <time>2021-08-14T11:40:01Z</time>
      </trkpt>
      <trkpt lat="44.01281" lon="3.24229">
        <ele>831.2</ele>
        <time>2021-08-14T11:40:03Z</time>
      </trkpt>
      <trkpt lat="44.01277" lon="3.24227">
        <ele>831.3</ele>
        <time>2021-08-14T11:40:05Z</time>
      </trkpt>
      <trkpt lat="44.01272" lon="3.24226">
        <ele>831.4</ele>
        <time>2021-08-14T11:40:07Z</time>
      </trkpt>
      <trkpt lat="44.01267" lon="3.24226">
        <ele>831.5</ele>
        <time>2021-08-14T11:40:09Z</time>
      </trkpt>
      <trkpt lat="44.01263" lon="3.24225">
        <ele>831.6</ele>
        <time>2021-08-14T11:40:11Z</time>
      </trkpt>
      <trkpt lat="44.01259" lon="3.24225">
        <ele>831.7</ele>
        <time>2021-08-14T11:40:13Z</time>
      </trkpt>
      <trkpt lat="44.01255" lon="3.24225">
        <ele>831.9</ele>
        <time>2021-08-14T11:40:15Z</time>
      </trkpt>
      <trkpt lat="44.01251" lon="3.24223">
        <ele>832</ele>
        <time>2021-08-14T11:40:17Z</time>
      </trkpt>
      <trkpt lat="44.01247" lon="3.24221">
        <ele>832.2</ele>
        <time>2021-08-14T11:40:19Z</time>
      </trkpt>
      <trkpt lat="44.01242" lon="3.2422">
        <ele>832.4</ele>
        <time>2021-08-14T11:40:21Z</time>
      </trkpt>
      <trkpt lat="44.01237" lon="3.24218">
        <ele>832.7</ele>
        <time>2021-08-14T11:40:23Z</time>
      </trkpt>
      <trkpt lat="44.01233" lon="3.24217">
        <ele>832.9</ele>
        <time>2021-08-14T11:40:25Z</time>
      </trkpt>
      <trkpt lat="44.01228" lon="3.24215">
        <ele>833.2</ele>
        <time>2021-08-14T11:40:27Z</time>
      </trkpt>
      <trkpt lat="44.01224" lon="3.24214">
        <ele>833.4</ele>
        <time>2021-08-14T11:40:29Z</time>
      </trkpt>
      <trkpt lat="44.01219" lon="3.24212">
        <ele>833.6</ele>
        <time>2021-08-14T11:40:31Z</time>
      </trkpt>
      <trkpt lat="44.01215" lon="3.24211">
        <ele>833.9</ele>
        <time>2021-08-14T11:40:33Z</time>
      </trkpt>
      <trkpt lat="44.01212" lon="3.24209">
        <ele>834.1</ele>
        <time>2021-08-14T11:40:35Z</time>
      </trkpt>
      <trkpt lat="44.01208" lon="3.24205">
        <ele>834.3</ele>
        <time>2021-08-14T11:40:37Z</time>
      </trkpt>
      <trkpt lat="44.01205" lon="3.24201">
        <ele>834.5</ele>
        <time>2021-08-14T11:40:39Z</time>
      </trkpt>
      <trkpt lat="44.01201" lon="3.24198">
        <ele>834.7</ele>
        <time>2021-08-14T11:40:41Z</time>
      </trkpt>
      <trkpt lat="44.01197" lon="3.24196">
        <ele>834.9</ele>
        <time>2021-08-14T11:40:43Z</time>
      </trkpt>
      <trkpt lat="44.01193" lon="3.24192">
        <ele>835.2</ele>
        <time>2021-08-14T11:40:45Z</time>
      </trkpt>
      <trkpt lat="44.0119" lon="3.24187">
        <ele>835.4</ele>
        <time>2021-08-14T11:40:47Z</time>
      </trkpt>
      <trkpt lat="44.01187" lon="3.24185">
        <ele>835.6</ele>
        <time>2021-08-14T11:40:49Z</time>
      </trkpt>
      <trkpt lat="44.01183" lon="3.24185">
        <ele>835.9</ele>
        <time>2021-08-14T11:40:51Z</time>
      </trkpt>
      <trkpt lat="44.0118" lon="3.24184">
        <ele>836</ele>
        <time>2021-08-14T11:40:53Z</time>
      </trkpt>
      <trkpt lat="44.01179" lon="3.2418">
        <ele>836.1</ele>
        <time>2021-08-14T11:40:55Z</time>
      </trkpt>
      <trkpt lat="44.01175" lon="3.2418">
        <ele>836.3</ele>
        <time>2021-08-14T11:40:57Z</time>
      </trkpt>
      <trkpt lat="44.01172" lon="3.24181">
        <ele>836.5</ele>
        <time>2021-08-14T11:40:59Z</time>
      </trkpt>
      <trkpt lat="44.01168" lon="3.24182">
        <ele>836.7</ele>
        <time>2021-08-14T11:41:01Z</time>
      </trkpt>
      <trkpt lat="44.01167" lon="3.24182">
        <ele>836.8</ele>
        <time>2021-08-14T11:41:03Z</time>
      </trkpt>
      <trkpt lat="44.01167" lon="3.24182">
        <ele>836.8</ele>
        <time>2021-08-14T11:41:05Z</time>
      </trkpt>
      <trkpt lat="44.01167" lon="3.24182">
        <ele>836.8</ele>
        <time>2021-08-14T11:41:07Z</time>
      </trkpt>
      <trkpt lat="44.01167" lon="3.24182">
        <ele>836.8</ele>
        <time>2021-08-14T11:41:09Z</time>
      </trkpt>
      <trkpt lat="44.01167" lon="3.24181">
        <ele>836.8</ele>
        <time>2021-08-14T11:41:11Z</time>
      </trkpt>
      <trkpt lat="44.01166" lon="3.24178">
        <ele>836.9</ele>
        <time>2021-08-14T11:41:23Z</time>
      </trkpt>
      <trkpt lat="44.01165" lon="3.24178">
        <ele>836.9</ele>
        <time>2021-08-14T11:41:25Z</time>
      </trkpt>
      <trkpt lat="44.01166" lon="3.24179">
        <ele>836.9</ele>
        <time>2021-08-14T11:41:27Z</time>
      </trkpt>
      <trkpt lat="44.01166" lon="3.24178">
        <ele>836.9</ele>
        <time>2021-08-14T11:41:29Z</time>
      </trkpt>
      <trkpt lat="44.01165" lon="3.24178">
        <ele>836.9</ele>
        <time>2021-08-14T11:41:31Z</time>
      </trkpt>
      <trkpt lat="44.01164" lon="3.24176">
        <ele>837</ele>
        <time>2021-08-14T11:41:33Z</time>
      </trkpt>
      <trkpt lat="44.01162" lon="3.24173">
        <ele>837.1</ele>
        <time>2021-08-14T11:41:35Z</time>
      </trkpt>
      <trkpt lat="44.01158" lon="3.24175">
        <ele>837.2</ele>
        <time>2021-08-14T11:41:37Z</time>
      </trkpt>
      <trkpt lat="44.01154" lon="3.24175">
        <ele>837.3</ele>
        <time>2021-08-14T11:41:39Z</time>
      </trkpt>
      <trkpt lat="44.01152" lon="3.24174">
        <ele>837.5</ele>
        <time>2021-08-14T11:41:41Z</time>
      </trkpt>
      <trkpt lat="44.0115" lon="3.24174">
        <ele>837.5</ele>
        <time>2021-08-14T11:41:43Z</time>
      </trkpt>
      <trkpt lat="44.01151" lon="3.24174">
        <ele>837.5</ele>
        <time>2021-08-14T11:41:45Z</time>
      </trkpt>
      <trkpt lat="44.01151" lon="3.24174">
        <ele>837.5</ele>
        <time>2021-08-14T11:41:47Z</time>
      </trkpt>
      <trkpt lat="44.0115" lon="3.24174">
        <ele>837.5</ele>
        <time>2021-08-14T11:41:49Z</time>
      </trkpt>
      <trkpt lat="44.0115" lon="3.24175">
        <ele>837.5</ele>
        <time>2021-08-14T11:41:51Z</time>
      </trkpt>
      <trkpt lat="44.01149" lon="3.24176">
        <ele>837.5</ele>
        <time>2021-08-14T11:46:03Z</time>
      </trkpt>
      <trkpt lat="44.01149" lon="3.24176">
        <ele>837.5</ele>
        <time>2021-08-14T11:46:05Z</time>
      </trkpt>
      <trkpt lat="44.01147" lon="3.24175">
        <ele>837.6</ele>
        <time>2021-08-14T11:46:07Z</time>
      </trkpt>
      <trkpt lat="44.01147" lon="3.24173">
        <ele>837.6</ele>
        <time>2021-08-14T11:46:09Z</time>
      </trkpt>
      <trkpt lat="44.01148" lon="3.24172">
        <ele>837.6</ele>
        <time>2021-08-14T11:46:11Z</time>
      </trkpt>
      <trkpt lat="44.01151" lon="3.24171">
        <ele>837.5</ele>
        <time>2021-08-14T11:46:13Z</time>
      </trkpt>
      <trkpt lat="44.01153" lon="3.24171">
        <ele>837.4</ele>
        <time>2021-08-14T11:46:15Z</time>
      </trkpt>
      <trkpt lat="44.01156" lon="3.24171">
        <ele>837.3</ele>
        <time>2021-08-14T11:46:17Z</time>
      </trkpt>
      <trkpt lat="44.01159" lon="3.24173">
        <ele>837.2</ele>
        <time>2021-08-14T11:46:19Z</time>
      </trkpt>
      <trkpt lat="44.01161" lon="3.24177">
        <ele>837.1</ele>
        <time>2021-08-14T11:46:21Z</time>
      </trkpt>
      <trkpt lat="44.01163" lon="3.2418">
        <ele>837</ele>
        <time>2021-08-14T11:46:23Z</time>
      </trkpt>
      <trkpt lat="44.01163" lon="3.24179">
        <ele>837</ele>
        <time>2021-08-14T11:46:25Z</time>
      </trkpt>
      <trkpt lat="44.01163" lon="3.24179">
        <ele>837</ele>
        <time>2021-08-14T11:46:27Z</time>
      </trkpt>
      <trkpt lat="44.01163" lon="3.24179">
        <ele>837</ele>
        <time>2021-08-14T11:46:29Z</time>
      </trkpt>
      <trkpt lat="44.01163" lon="3.24179">
        <ele>837</ele>
        <time>2021-08-14T11:46:31Z</time>
      </trkpt>
      <trkpt lat="44.01163" lon="3.24179">
        <ele>837</ele>
        <time>2021-08-14T11:46:33Z</time>
      </trkpt>
      <trkpt lat="44.01169" lon="3.24169">
        <ele>836.8</ele>
        <time>2021-08-14T11:46:43Z</time>
      </trkpt>
      <trkpt lat="44.01168" lon="3.24165">
        <ele>836.9</ele>
        <time>2021-08-14T11:46:45Z</time>
      </trkpt>
      <trkpt lat="44.01165" lon="3.24163">
        <ele>837</ele>
        <time>2021-08-14T11:46:47Z</time>
      </trkpt>
      <trkpt lat="44.01162" lon="3.24161">
        <ele>837.1</ele>
        <time>2021-08-14T11:46:49Z</time>
      </trkpt>
      <trkpt lat="44.01159" lon="3.24159">
        <ele>837.2</ele>
        <time>2021-08-14T11:46:51Z</time>
      </trkpt>
      <trkpt lat="44.01155" lon="3.24156">
        <ele>837.3</ele>
        <time>2021-08-14T11:46:53Z</time>
      </trkpt>
      <trkpt lat="44.01152" lon="3.24154">
        <ele>837.3</ele>
        <time>2021-08-14T11:46:55Z</time>
      </trkpt>
      <trkpt lat="44.01148" lon="3.24151">
        <ele>837.4</ele>
        <time>2021-08-14T11:46:57Z</time>
      </trkpt>
      <trkpt lat="44.01145" lon="3.24149">
        <ele>837.5</ele>
        <time>2021-08-14T11:46:59Z</time>
      </trkpt>
      <trkpt lat="44.01141" lon="3.24147">
        <ele>837.5</ele>
        <time>2021-08-14T11:47:01Z</time>
      </trkpt>
      <trkpt lat="44.01137" lon="3.24145">
        <ele>837.6</ele>
        <time>2021-08-14T11:47:03Z</time>
      </trkpt>
      <trkpt lat="44.01134" lon="3.24142">
        <ele>837.7</ele>
        <time>2021-08-14T11:47:05Z</time>
      </trkpt>
      <trkpt lat="44.0113" lon="3.2414">
        <ele>837.7</ele>
        <time>2021-08-14T11:47:07Z</time>
      </trkpt>
      <trkpt lat="44.01125" lon="3.24138">
        <ele>837.8</ele>
        <time>2021-08-14T11:47:09Z</time>
      </trkpt>
      <trkpt lat="44.01121" lon="3.24135">
        <ele>837.8</ele>
        <time>2021-08-14T11:47:11Z</time>
      </trkpt>
      <trkpt lat="44.01117" lon="3.24133">
        <ele>837.9</ele>
        <time>2021-08-14T11:47:13Z</time>
      </trkpt>
      <trkpt lat="44.01112" lon="3.2413">
        <ele>837.9</ele>
        <time>2021-08-14T11:47:15Z</time>
      </trkpt>
      <trkpt lat="44.01108" lon="3.24127">
        <ele>838</ele>
        <time>2021-08-14T11:47:17Z</time>
      </trkpt>
      <trkpt lat="44.01103" lon="3.24125">
        <ele>838</ele>
        <time>2021-08-14T11:47:19Z</time>
      </trkpt>
      <trkpt lat="44.01097" lon="3.24122">
        <ele>838.1</ele>
        <time>2021-08-14T11:47:21Z</time>
      </trkpt>
      <trkpt lat="44.01091" lon="3.2412">
        <ele>838.1</ele>
        <time>2021-08-14T11:47:23Z</time>
      </trkpt>
      <trkpt lat="44.01084" lon="3.24117">
        <ele>838.2</ele>
        <time>2021-08-14T11:47:25Z</time>
      </trkpt>
      <trkpt lat="44.01077" lon="3.24114">
        <ele>838</ele>
        <time>2021-08-14T11:47:27Z</time>
      </trkpt>
      <trkpt lat="44.0107" lon="3.24111">
        <ele>837.8</ele>
        <time>2021-08-14T11:47:29Z</time>
      </trkpt>
      <trkpt lat="44.01062" lon="3.24108">
        <ele>837.6</ele>
        <time>2021-08-14T11:47:31Z</time>
      </trkpt>
      <trkpt lat="44.01053" lon="3.24104">
        <ele>837.4</ele>
        <time>2021-08-14T11:47:33Z</time>
      </trkpt>
      <trkpt lat="44.01044" lon="3.241">
        <ele>837.1</ele>
        <time>2021-08-14T11:47:35Z</time>
      </trkpt>
      <trkpt lat="44.01035" lon="3.24094">
        <ele>836.8</ele>
        <time>2021-08-14T11:47:37Z</time>
      </trkpt>
      <trkpt lat="44.01026" lon="3.2409">
        <ele>836.5</ele>
        <time>2021-08-14T11:47:39Z</time>
      </trkpt>
      <trkpt lat="44.01016" lon="3.24086">
        <ele>836.3</ele>
        <time>2021-08-14T11:47:41Z</time>
      </trkpt>
      <trkpt lat="44.01006" lon="3.24082">
        <ele>836</ele>
        <time>2021-08-14T11:47:43Z</time>
      </trkpt>
      <trkpt lat="44.00996" lon="3.2408">
        <ele>836</ele>
        <time>2021-08-14T11:47:45Z</time>
      </trkpt>
      <trkpt lat="44.00986" lon="3.24076">
        <ele>836.1</ele>
        <time>2021-08-14T11:47:47Z</time>
      </trkpt>
      <trkpt lat="44.00977" lon="3.24073">
        <ele>836.2</ele>
        <time>2021-08-14T11:47:49Z</time>
      </trkpt>
      <trkpt lat="44.00967" lon="3.2407">
        <ele>836.3</ele>
        <time>2021-08-14T11:47:51Z</time>
      </trkpt>
      <trkpt lat="44.00957" lon="3.24067">
        <ele>836.4</ele>
        <time>2021-08-14T11:47:53Z</time>
      </trkpt>
      <trkpt lat="44.00947" lon="3.24064">
        <ele>836.6</ele>
        <time>2021-08-14T11:47:55Z</time>
      </trkpt>
      <trkpt lat="44.00938" lon="3.24061">
        <ele>836.7</ele>
        <time>2021-08-14T11:47:57Z</time>
      </trkpt>
      <trkpt lat="44.00929" lon="3.24058">
        <ele>836.8</ele>
        <time>2021-08-14T11:47:59Z</time>
      </trkpt>
      <trkpt lat="44.0092" lon="3.24056">
        <ele>836.9</ele>
        <time>2021-08-14T11:48:01Z</time>
      </trkpt>
      <trkpt lat="44.00911" lon="3.24052">
        <ele>836.9</ele>
        <time>2021-08-14T11:48:03Z</time>
      </trkpt>
      <trkpt lat="44.00903" lon="3.24049">
        <ele>836.9</ele>
        <time>2021-08-14T11:48:05Z</time>
      </trkpt>
      <trkpt lat="44.00895" lon="3.24045">
        <ele>836.8</ele>
        <time>2021-08-14T11:48:07Z</time>
      </trkpt>
      <trkpt lat="44.00887" lon="3.24041">
        <ele>836.8</ele>
        <time>2021-08-14T11:48:09Z</time>
      </trkpt>
      <trkpt lat="44.00879" lon="3.24037">
        <ele>836.9</ele>
        <time>2021-08-14T11:48:11Z</time>
      </trkpt>
      <trkpt lat="44.00871" lon="3.24033">
        <ele>837</ele>
        <time>2021-08-14T11:48:13Z</time>
      </trkpt>
      <trkpt lat="44.00864" lon="3.24029">
        <ele>837.1</ele>
        <time>2021-08-14T11:48:15Z</time>
      </trkpt>
      <trkpt lat="44.00856" lon="3.24025">
        <ele>837.2</ele>
        <time>2021-08-14T11:48:17Z</time>
      </trkpt>
      <trkpt lat="44.00849" lon="3.24021">
        <ele>837.4</ele>
        <time>2021-08-14T11:48:19Z</time>
      </trkpt>
      <trkpt lat="44.00841" lon="3.24017">
        <ele>837.6</ele>
        <time>2021-08-14T11:48:21Z</time>
      </trkpt>
      <trkpt lat="44.00834" lon="3.24013">
        <ele>837.8</ele>
        <time>2021-08-14T11:48:23Z</time>
      </trkpt>
      <trkpt lat="44.00827" lon="3.2401">
        <ele>837.4</ele>
        <time>2021-08-14T11:48:25Z</time>
      </trkpt>
      <trkpt lat="44.0082" lon="3.24006">
        <ele>836.9</ele>
        <time>2021-08-14T11:48:27Z</time>
      </trkpt>
      <trkpt lat="44.00813" lon="3.24002">
        <ele>836.5</ele>
        <time>2021-08-14T11:48:29Z</time>
      </trkpt>
      <trkpt lat="44.00806" lon="3.23998">
        <ele>836</ele>
        <time>2021-08-14T11:48:31Z</time>
      </trkpt>
      <trkpt lat="44.00799" lon="3.23993">
        <ele>835.5</ele>
        <time>2021-08-14T11:48:33Z</time>
      </trkpt>
      <trkpt lat="44.00792" lon="3.23989">
        <ele>835.1</ele>
        <time>2021-08-14T11:48:35Z</time>
      </trkpt>
      <trkpt lat="44.00786" lon="3.23984">
        <ele>834.6</ele>
        <time>2021-08-14T11:48:37Z</time>
      </trkpt>
      <trkpt lat="44.00779" lon="3.23979">
        <ele>834.2</ele>
        <time>2021-08-14T11:48:39Z</time>
      </trkpt>
      <trkpt lat="44.00772" lon="3.23971">
        <ele>833.9</ele>
        <time>2021-08-14T11:48:41Z</time>
      </trkpt>
      <trkpt lat="44.00765" lon="3.23963">
        <ele>833.7</ele>
        <time>2021-08-14T11:48:43Z</time>
      </trkpt>
      <trkpt lat="44.00759" lon="3.23952">
        <ele>833.6</ele>
        <time>2021-08-14T11:48:45Z</time>
      </trkpt>
      <trkpt lat="44.00754" lon="3.2394">
        <ele>833.6</ele>
        <time>2021-08-14T11:48:47Z</time>
      </trkpt>
      <trkpt lat="44.00748" lon="3.23925">
        <ele>833.6</ele>
        <time>2021-08-14T11:48:49Z</time>
      </trkpt>
      <trkpt lat="44.00743" lon="3.2391">
        <ele>833.3</ele>
        <time>2021-08-14T11:48:51Z</time>
      </trkpt>
      <trkpt lat="44.00736" lon="3.23894">
        <ele>832.9</ele>
        <time>2021-08-14T11:48:53Z</time>
      </trkpt>
      <trkpt lat="44.00728" lon="3.23879">
        <ele>832.6</ele>
        <time>2021-08-14T11:48:55Z</time>
      </trkpt>
      <trkpt lat="44.00721" lon="3.23864">
        <ele>832.3</ele>
        <time>2021-08-14T11:48:57Z</time>
      </trkpt>
      <trkpt lat="44.00712" lon="3.23851">
        <ele>831.7</ele>
        <time>2021-08-14T11:48:59Z</time>
      </trkpt>
      <trkpt lat="44.00702" lon="3.23838">
        <ele>831.1</ele>
        <time>2021-08-14T11:49:01Z</time>
      </trkpt>
      <trkpt lat="44.0069" lon="3.23827">
        <ele>830.3</ele>
        <time>2021-08-14T11:49:03Z</time>
      </trkpt>
      <trkpt lat="44.00679" lon="3.23813">
        <ele>829.8</ele>
        <time>2021-08-14T11:49:05Z</time>
      </trkpt>
      <trkpt lat="44.00667" lon="3.23796">
        <ele>829.7</ele>
        <time>2021-08-14T11:49:07Z</time>
      </trkpt>
      <trkpt lat="44.00658" lon="3.23775">
        <ele>829.7</ele>
        <time>2021-08-14T11:49:09Z</time>
      </trkpt>
      <trkpt lat="44.0065" lon="3.23753">
        <ele>829.8</ele>
        <time>2021-08-14T11:49:11Z</time>
      </trkpt>
      <trkpt lat="44.00641" lon="3.23731">
        <ele>829.8</ele>
        <time>2021-08-14T11:49:13Z</time>
      </trkpt>
      <trkpt lat="44.00629" lon="3.2371">
        <ele>829.2</ele>
        <time>2021-08-14T11:49:15Z</time>
      </trkpt>
      <trkpt lat="44.00615" lon="3.23693">
        <ele>827.7</ele>
        <time>2021-08-14T11:49:17Z</time>
      </trkpt>
      <trkpt lat="44.00602" lon="3.23675">
        <ele>826.2</ele>
        <time>2021-08-14T11:49:19Z</time>
      </trkpt>
      <trkpt lat="44.00587" lon="3.23656">
        <ele>824.2</ele>
        <time>2021-08-14T11:49:21Z</time>
      </trkpt>
      <trkpt lat="44.00573" lon="3.23634">
        <ele>822.8</ele>
        <time>2021-08-14T11:49:23Z</time>
      </trkpt>
      <trkpt lat="44.00561" lon="3.23612">
        <ele>821.8</ele>
        <time>2021-08-14T11:49:25Z</time>
      </trkpt>
      <trkpt lat="44.00553" lon="3.23586">
        <ele>821.5</ele>
        <time>2021-08-14T11:49:27Z</time>
      </trkpt>
      <trkpt lat="44.00546" lon="3.2356">
        <ele>822</ele>
        <time>2021-08-14T11:49:29Z</time>
      </trkpt>
      <trkpt lat="44.00541" lon="3.23535">
        <ele>822.4</ele>
        <time>2021-08-14T11:49:31Z</time>
      </trkpt>
      <trkpt lat="44.00535" lon="3.23511">
        <ele>822.8</ele>
        <time>2021-08-14T11:49:33Z</time>
      </trkpt>
      <trkpt lat="44.00528" lon="3.23487">
        <ele>822.9</ele>
        <time>2021-08-14T11:49:35Z</time>
      </trkpt>
      <trkpt lat="44.00518" lon="3.23466">
        <ele>822.4</ele>
        <time>2021-08-14T11:49:37Z</time>
      </trkpt>
      <trkpt lat="44.00507" lon="3.23446">
        <ele>821.7</ele>
        <time>2021-08-14T11:49:39Z</time>
      </trkpt>
      <trkpt lat="44.00496" lon="3.23425">
        <ele>821.1</ele>
        <time>2021-08-14T11:49:41Z</time>
      </trkpt>
      <trkpt lat="44.00482" lon="3.23405">
        <ele>819.5</ele>
        <time>2021-08-14T11:49:43Z</time>
      </trkpt>
      <trkpt lat="44.0047" lon="3.23385">
        <ele>817.8</ele>
        <time>2021-08-14T11:49:45Z</time>
      </trkpt>
      <trkpt lat="44.00457" lon="3.23366">
        <ele>815.8</ele>
        <time>2021-08-14T11:49:47Z</time>
      </trkpt>
      <trkpt lat="44.00444" lon="3.23345">
        <ele>813.7</ele>
        <time>2021-08-14T11:49:49Z</time>
      </trkpt>
      <trkpt lat="44.00431" lon="3.23325">
        <ele>811.5</ele>
        <time>2021-08-14T11:49:51Z</time>
      </trkpt>
      <trkpt lat="44.0042" lon="3.23305">
        <ele>810.1</ele>
        <time>2021-08-14T11:49:53Z</time>
      </trkpt>
      <trkpt lat="44.00409" lon="3.23285">
        <ele>809.7</ele>
        <time>2021-08-14T11:49:55Z</time>
      </trkpt>
      <trkpt lat="44.00398" lon="3.23266">
        <ele>809.4</ele>
        <time>2021-08-14T11:49:57Z</time>
      </trkpt>
      <trkpt lat="44.00388" lon="3.23247">
        <ele>809.3</ele>
        <time>2021-08-14T11:49:59Z</time>
      </trkpt>
      <trkpt lat="44.00379" lon="3.23228">
        <ele>810.7</ele>
        <time>2021-08-14T11:50:01Z</time>
      </trkpt>
      <trkpt lat="44.00369" lon="3.23211">
        <ele>811.7</ele>
        <time>2021-08-14T11:50:03Z</time>
      </trkpt>
      <trkpt lat="44.00361" lon="3.23193">
        <ele>812.7</ele>
        <time>2021-08-14T11:50:05Z</time>
      </trkpt>
      <trkpt lat="44.00354" lon="3.23176">
        <ele>813.6</ele>
        <time>2021-08-14T11:50:07Z</time>
      </trkpt>
      <trkpt lat="44.00348" lon="3.23159">
        <ele>814.7</ele>
        <time>2021-08-14T11:50:09Z</time>
      </trkpt>
      <trkpt lat="44.00343" lon="3.23143">
        <ele>816</ele>
        <time>2021-08-14T11:50:11Z</time>
      </trkpt>
      <trkpt lat="44.00339" lon="3.23129">
        <ele>817.2</ele>
        <time>2021-08-14T11:50:13Z</time>
      </trkpt>
      <trkpt lat="44.00336" lon="3.23115">
        <ele>818.5</ele>
        <time>2021-08-14T11:50:15Z</time>
      </trkpt>
      <trkpt lat="44.00332" lon="3.23103">
        <ele>819.5</ele>
        <time>2021-08-14T11:50:17Z</time>
      </trkpt>
      <trkpt lat="44.00329" lon="3.23093">
        <ele>820.3</ele>
        <time>2021-08-14T11:50:19Z</time>
      </trkpt>
      <trkpt lat="44.00326" lon="3.23081">
        <ele>821.1</ele>
        <time>2021-08-14T11:50:21Z</time>
      </trkpt>
      <trkpt lat="44.00322" lon="3.2307">
        <ele>821.1</ele>
        <time>2021-08-14T11:50:23Z</time>
      </trkpt>
      <trkpt lat="44.00318" lon="3.23061">
        <ele>820.9</ele>
        <time>2021-08-14T11:50:25Z</time>
      </trkpt>
      <trkpt lat="44.00314" lon="3.23053">
        <ele>820.7</ele>
        <time>2021-08-14T11:50:27Z</time>
      </trkpt>
      <trkpt lat="44.0031" lon="3.23043">
        <ele>820.4</ele>
        <time>2021-08-14T11:50:29Z</time>
      </trkpt>
      <trkpt lat="44.00305" lon="3.23036">
        <ele>820</ele>
        <time>2021-08-14T11:50:31Z</time>
      </trkpt>
      <trkpt lat="44.003" lon="3.23027">
        <ele>819.5</ele>
        <time>2021-08-14T11:50:33Z</time>
      </trkpt>
      <trkpt lat="44.00293" lon="3.23019">
        <ele>818.6</ele>
        <time>2021-08-14T11:50:35Z</time>
      </trkpt>
      <trkpt lat="44.00287" lon="3.2301">
        <ele>818</ele>
        <time>2021-08-14T11:50:37Z</time>
      </trkpt>
      <trkpt lat="44.0028" lon="3.23003">
        <ele>817</ele>
        <time>2021-08-14T11:50:39Z</time>
      </trkpt>
      <trkpt lat="44.00274" lon="3.22994">
        <ele>816</ele>
        <time>2021-08-14T11:50:41Z</time>
      </trkpt>
      <trkpt lat="44.00267" lon="3.22986">
        <ele>814.8</ele>
        <time>2021-08-14T11:50:43Z</time>
      </trkpt>
      <trkpt lat="44.0026" lon="3.22978">
        <ele>813.7</ele>
        <time>2021-08-14T11:50:45Z</time>
      </trkpt>
      <trkpt lat="44.00253" lon="3.22969">
        <ele>812.4</ele>
        <time>2021-08-14T11:50:47Z</time>
      </trkpt>
      <trkpt lat="44.00244" lon="3.2296">
        <ele>811.7</ele>
        <time>2021-08-14T11:50:49Z</time>
      </trkpt>
      <trkpt lat="44.00235" lon="3.2295">
        <ele>811.2</ele>
        <time>2021-08-14T11:50:51Z</time>
      </trkpt>
      <trkpt lat="44.00225" lon="3.22939">
        <ele>810.6</ele>
        <time>2021-08-14T11:50:53Z</time>
      </trkpt>
      <trkpt lat="44.00214" lon="3.22926">
        <ele>809.9</ele>
        <time>2021-08-14T11:50:55Z</time>
      </trkpt>
      <trkpt lat="44.00203" lon="3.22912">
        <ele>809.1</ele>
        <time>2021-08-14T11:50:57Z</time>
      </trkpt>
      <trkpt lat="44.00191" lon="3.22898">
        <ele>808.2</ele>
        <time>2021-08-14T11:50:59Z</time>
      </trkpt>
      <trkpt lat="44.00179" lon="3.22885">
        <ele>807.4</ele>
        <time>2021-08-14T11:51:01Z</time>
      </trkpt>
      <trkpt lat="44.00168" lon="3.22871">
        <ele>806.5</ele>
        <time>2021-08-14T11:51:03Z</time>
      </trkpt>
      <trkpt lat="44.00157" lon="3.2286">
        <ele>806.8</ele>
        <time>2021-08-14T11:51:05Z</time>
      </trkpt>
      <trkpt lat="44.00146" lon="3.22849">
        <ele>807.1</ele>
        <time>2021-08-14T11:51:07Z</time>
      </trkpt>
      <trkpt lat="44.00136" lon="3.22839">
        <ele>807.3</ele>
        <time>2021-08-14T11:51:09Z</time>
      </trkpt>
      <trkpt lat="44.00125" lon="3.22831">
        <ele>807.6</ele>
        <time>2021-08-14T11:51:11Z</time>
      </trkpt>
      <trkpt lat="44.00114" lon="3.22825">
        <ele>808.2</ele>
        <time>2021-08-14T11:51:13Z</time>
      </trkpt>
      <trkpt lat="44.00104" lon="3.22819">
        <ele>808.7</ele>
        <time>2021-08-14T11:51:15Z</time>
      </trkpt>
      <trkpt lat="44.00095" lon="3.22815">
        <ele>809</ele>
        <time>2021-08-14T11:51:17Z</time>
      </trkpt>
      <trkpt lat="44.00085" lon="3.22812">
        <ele>809.2</ele>
        <time>2021-08-14T11:51:19Z</time>
      </trkpt>
      <trkpt lat="44.00077" lon="3.22808">
        <ele>810.2</ele>
        <time>2021-08-14T11:51:21Z</time>
      </trkpt>
      <trkpt lat="44.0007" lon="3.22805">
        <ele>811.3</ele>
        <time>2021-08-14T11:51:23Z</time>
      </trkpt>
      <trkpt lat="44.00063" lon="3.22801">
        <ele>812.2</ele>
        <time>2021-08-14T11:51:25Z</time>
      </trkpt>
      <trkpt lat="44.00056" lon="3.22798">
        <ele>813</ele>
        <time>2021-08-14T11:51:27Z</time>
      </trkpt>
      <trkpt lat="44.0005" lon="3.22795">
        <ele>813.8</ele>
        <time>2021-08-14T11:51:29Z</time>
      </trkpt>
      <trkpt lat="44.00044" lon="3.22792">
        <ele>814.5</ele>
        <time>2021-08-14T11:51:31Z</time>
      </trkpt>
      <trkpt lat="44.00037" lon="3.22788">
        <ele>815.2</ele>
        <time>2021-08-14T11:51:33Z</time>
      </trkpt>
      <trkpt lat="44.00031" lon="3.22784">
        <ele>815.8</ele>
        <time>2021-08-14T11:51:35Z</time>
      </trkpt>
      <trkpt lat="44.00025" lon="3.22779">
        <ele>816.3</ele>
        <time>2021-08-14T11:51:37Z</time>
      </trkpt>
      <trkpt lat="44.00018" lon="3.22775">
        <ele>816.8</ele>
        <time>2021-08-14T11:51:39Z</time>
      </trkpt>
      <trkpt lat="44.00011" lon="3.22771">
        <ele>817.4</ele>
        <time>2021-08-14T11:51:41Z</time>
      </trkpt>
      <trkpt lat="44.00004" lon="3.22766">
        <ele>817.8</ele>
        <time>2021-08-14T11:51:43Z</time>
      </trkpt>
      <trkpt lat="43.99998" lon="3.22762">
        <ele>817.9</ele>
        <time>2021-08-14T11:51:45Z</time>
      </trkpt>
      <trkpt lat="43.99993" lon="3.22758">
        <ele>817.6</ele>
        <time>2021-08-14T11:51:47Z</time>
      </trkpt>
      <trkpt lat="43.99986" lon="3.22755">
        <ele>817.4</ele>
        <time>2021-08-14T11:51:49Z</time>
      </trkpt>
      <trkpt lat="43.99981" lon="3.22752">
        <ele>817.1</ele>
        <time>2021-08-14T11:51:51Z</time>
      </trkpt>
      <trkpt lat="43.99975" lon="3.22748">
        <ele>816.9</ele>
        <time>2021-08-14T11:51:53Z</time>
      </trkpt>
      <trkpt lat="43.99971" lon="3.22745">
        <ele>816.8</ele>
        <time>2021-08-14T11:51:55Z</time>
      </trkpt>
      <trkpt lat="43.99966" lon="3.22741">
        <ele>816.7</ele>
        <time>2021-08-14T11:51:57Z</time>
      </trkpt>
      <trkpt lat="43.99961" lon="3.22738">
        <ele>816.6</ele>
        <time>2021-08-14T11:51:59Z</time>
      </trkpt>
      <trkpt lat="43.99956" lon="3.22734">
        <ele>816.5</ele>
        <time>2021-08-14T11:52:01Z</time>
      </trkpt>
      <trkpt lat="43.99952" lon="3.22731">
        <ele>816.5</ele>
        <time>2021-08-14T11:52:03Z</time>
      </trkpt>
      <trkpt lat="43.99948" lon="3.22729">
        <ele>816.4</ele>
        <time>2021-08-14T11:52:05Z</time>
      </trkpt>
      <trkpt lat="43.99946" lon="3.22727">
        <ele>816.3</ele>
        <time>2021-08-14T11:52:07Z</time>
      </trkpt>
      <trkpt lat="43.99944" lon="3.22723">
        <ele>816.2</ele>
        <time>2021-08-14T11:52:09Z</time>
      </trkpt>
      <trkpt lat="43.99943" lon="3.22718">
        <ele>816.1</ele>
        <time>2021-08-14T11:52:11Z</time>
      </trkpt>
      <trkpt lat="43.99941" lon="3.22714">
        <ele>816</ele>
        <time>2021-08-14T11:52:13Z</time>
      </trkpt>
      <trkpt lat="43.99938" lon="3.22713">
        <ele>816</ele>
        <time>2021-08-14T11:52:15Z</time>
      </trkpt>
      <trkpt lat="43.99932" lon="3.22712">
        <ele>816</ele>
        <time>2021-08-14T11:52:17Z</time>
      </trkpt>
      <trkpt lat="43.99928" lon="3.2271">
        <ele>816</ele>
        <time>2021-08-14T11:52:19Z</time>
      </trkpt>
      <trkpt lat="43.99925" lon="3.22711">
        <ele>816</ele>
        <time>2021-08-14T11:52:21Z</time>
      </trkpt>
      <trkpt lat="43.99923" lon="3.2271">
        <ele>816</ele>
        <time>2021-08-14T11:52:23Z</time>
      </trkpt>
      <trkpt lat="43.99921" lon="3.22711">
        <ele>816</ele>
        <time>2021-08-14T11:52:25Z</time>
      </trkpt>
      <trkpt lat="43.99919" lon="3.22712">
        <ele>816.1</ele>
        <time>2021-08-14T11:52:27Z</time>
      </trkpt>
      <trkpt lat="43.99916" lon="3.22712">
        <ele>816.1</ele>
        <time>2021-08-14T11:52:29Z</time>
      </trkpt>
      <trkpt lat="43.9991" lon="3.2271">
        <ele>815.7</ele>
        <time>2021-08-14T11:52:31Z</time>
      </trkpt>
      <trkpt lat="43.99904" lon="3.22707">
        <ele>815.4</ele>
        <time>2021-08-14T11:52:33Z</time>
      </trkpt>
      <trkpt lat="43.99895" lon="3.22706">
        <ele>814.9</ele>
        <time>2021-08-14T11:52:35Z</time>
      </trkpt>
      <trkpt lat="43.99887" lon="3.22704">
        <ele>814.5</ele>
        <time>2021-08-14T11:52:37Z</time>
      </trkpt>
      <trkpt lat="43.99878" lon="3.22703">
        <ele>814.1</ele>
        <time>2021-08-14T11:52:39Z</time>
      </trkpt>
      <trkpt lat="43.99868" lon="3.22703">
        <ele>813.6</ele>
        <time>2021-08-14T11:52:41Z</time>
      </trkpt>
      <trkpt lat="43.99859" lon="3.22703">
        <ele>813.2</ele>
        <time>2021-08-14T11:52:43Z</time>
      </trkpt>
      <trkpt lat="43.9985" lon="3.22704">
        <ele>812.8</ele>
        <time>2021-08-14T11:52:45Z</time>
      </trkpt>
      <trkpt lat="43.9984" lon="3.22704">
        <ele>812.3</ele>
        <time>2021-08-14T11:52:47Z</time>
      </trkpt>
      <trkpt lat="43.99831" lon="3.22703">
        <ele>811.9</ele>
        <time>2021-08-14T11:52:49Z</time>
      </trkpt>
      <trkpt lat="43.99822" lon="3.22702">
        <ele>811.4</ele>
        <time>2021-08-14T11:52:51Z</time>
      </trkpt>
      <trkpt lat="43.99812" lon="3.22702">
        <ele>810.9</ele>
        <time>2021-08-14T11:52:53Z</time>
      </trkpt>
      <trkpt lat="43.99802" lon="3.22701">
        <ele>810.3</ele>
        <time>2021-08-14T11:52:55Z</time>
      </trkpt>
      <trkpt lat="43.99791" lon="3.227">
        <ele>809.8</ele>
        <time>2021-08-14T11:52:57Z</time>
      </trkpt>
      <trkpt lat="43.9978" lon="3.22699">
        <ele>809.2</ele>
        <time>2021-08-14T11:52:59Z</time>
      </trkpt>
      <trkpt lat="43.99769" lon="3.22697">
        <ele>808.6</ele>
        <time>2021-08-14T11:53:01Z</time>
      </trkpt>
      <trkpt lat="43.99757" lon="3.22698">
        <ele>808</ele>
        <time>2021-08-14T11:53:03Z</time>
      </trkpt>
      <trkpt lat="43.99744" lon="3.22696">
        <ele>807.3</ele>
        <time>2021-08-14T11:53:05Z</time>
      </trkpt>
      <trkpt lat="43.99731" lon="3.22696">
        <ele>806.7</ele>
        <time>2021-08-14T11:53:07Z</time>
      </trkpt>
      <trkpt lat="43.99717" lon="3.22695">
        <ele>806</ele>
        <time>2021-08-14T11:53:09Z</time>
      </trkpt>
      <trkpt lat="43.99704" lon="3.22694">
        <ele>805.3</ele>
        <time>2021-08-14T11:53:11Z</time>
      </trkpt>
      <trkpt lat="43.9969" lon="3.22694">
        <ele>804.6</ele>
        <time>2021-08-14T11:53:13Z</time>
      </trkpt>
      <trkpt lat="43.99676" lon="3.22692">
        <ele>803.9</ele>
        <time>2021-08-14T11:53:15Z</time>
      </trkpt>
      <trkpt lat="43.99662" lon="3.22692">
        <ele>803.3</ele>
        <time>2021-08-14T11:53:17Z</time>
      </trkpt>
      <trkpt lat="43.99648" lon="3.22691">
        <ele>803.1</ele>
        <time>2021-08-14T11:53:19Z</time>
      </trkpt>
      <trkpt lat="43.99634" lon="3.22688">
        <ele>802.9</ele>
        <time>2021-08-14T11:53:21Z</time>
      </trkpt>
      <trkpt lat="43.99621" lon="3.22687">
        <ele>802.7</ele>
        <time>2021-08-14T11:53:23Z</time>
      </trkpt>
      <trkpt lat="43.99608" lon="3.22685">
        <ele>802.5</ele>
        <time>2021-08-14T11:53:25Z</time>
      </trkpt>
      <trkpt lat="43.99595" lon="3.22682">
        <ele>802.2</ele>
        <time>2021-08-14T11:53:27Z</time>
      </trkpt>
      <trkpt lat="43.99582" lon="3.2268">
        <ele>802</ele>
        <time>2021-08-14T11:53:29Z</time>
      </trkpt>
      <trkpt lat="43.99569" lon="3.22678">
        <ele>801.8</ele>
        <time>2021-08-14T11:53:31Z</time>
      </trkpt>
      <trkpt lat="43.99556" lon="3.22674">
        <ele>801.7</ele>
        <time>2021-08-14T11:53:33Z</time>
      </trkpt>
      <trkpt lat="43.99544" lon="3.22672">
        <ele>801.5</ele>
        <time>2021-08-14T11:53:35Z</time>
      </trkpt>
      <trkpt lat="43.99533" lon="3.22669">
        <ele>801.4</ele>
        <time>2021-08-14T11:53:37Z</time>
      </trkpt>
      <trkpt lat="43.99522" lon="3.22666">
        <ele>801.3</ele>
        <time>2021-08-14T11:53:39Z</time>
      </trkpt>
      <trkpt lat="43.99511" lon="3.22663">
        <ele>801.1</ele>
        <time>2021-08-14T11:53:41Z</time>
      </trkpt>
      <trkpt lat="43.99501" lon="3.22661">
        <ele>800.9</ele>
        <time>2021-08-14T11:53:43Z</time>
      </trkpt>
      <trkpt lat="43.9949" lon="3.22657">
        <ele>801</ele>
        <time>2021-08-14T11:53:45Z</time>
      </trkpt>
      <trkpt lat="43.9948" lon="3.22654">
        <ele>801.1</ele>
        <time>2021-08-14T11:53:47Z</time>
      </trkpt>
      <trkpt lat="43.9947" lon="3.2265">
        <ele>801.2</ele>
        <time>2021-08-14T11:53:49Z</time>
      </trkpt>
      <trkpt lat="43.99461" lon="3.22647">
        <ele>801.3</ele>
        <time>2021-08-14T11:53:51Z</time>
      </trkpt>
      <trkpt lat="43.99453" lon="3.22644">
        <ele>801.4</ele>
        <time>2021-08-14T11:53:53Z</time>
      </trkpt>
      <trkpt lat="43.99444" lon="3.2264">
        <ele>801.6</ele>
        <time>2021-08-14T11:53:55Z</time>
      </trkpt>
      <trkpt lat="43.99434" lon="3.22637">
        <ele>801.7</ele>
        <time>2021-08-14T11:53:57Z</time>
      </trkpt>
      <trkpt lat="43.99425" lon="3.22634">
        <ele>801.9</ele>
        <time>2021-08-14T11:53:59Z</time>
      </trkpt>
      <trkpt lat="43.99416" lon="3.2263">
        <ele>802</ele>
        <time>2021-08-14T11:54:01Z</time>
      </trkpt>
      <trkpt lat="43.99407" lon="3.22627">
        <ele>802.2</ele>
        <time>2021-08-14T11:54:03Z</time>
      </trkpt>
      <trkpt lat="43.99399" lon="3.22624">
        <ele>802.3</ele>
        <time>2021-08-14T11:54:05Z</time>
      </trkpt>
      <trkpt lat="43.99391" lon="3.22621">
        <ele>802.5</ele>
        <time>2021-08-14T11:54:07Z</time>
      </trkpt>
      <trkpt lat="43.99383" lon="3.22618">
        <ele>802.7</ele>
        <time>2021-08-14T11:54:09Z</time>
      </trkpt>
      <trkpt lat="43.99375" lon="3.22614">
        <ele>802.9</ele>
        <time>2021-08-14T11:54:11Z</time>
      </trkpt>
      <trkpt lat="43.99367" lon="3.22612">
        <ele>803.2</ele>
        <time>2021-08-14T11:54:13Z</time>
      </trkpt>
      <trkpt lat="43.99359" lon="3.22609">
        <ele>803.5</ele>
        <time>2021-08-14T11:54:15Z</time>
      </trkpt>
      <trkpt lat="43.9935" lon="3.22606">
        <ele>803.8</ele>
        <time>2021-08-14T11:54:17Z</time>
      </trkpt>
      <trkpt lat="43.99341" lon="3.22603">
        <ele>804.1</ele>
        <time>2021-08-14T11:54:19Z</time>
      </trkpt>
      <trkpt lat="43.99332" lon="3.226">
        <ele>804.4</ele>
        <time>2021-08-14T11:54:21Z</time>
      </trkpt>
      <trkpt lat="43.99324" lon="3.22596">
        <ele>804.5</ele>
        <time>2021-08-14T11:54:23Z</time>
      </trkpt>
      <trkpt lat="43.99316" lon="3.22593">
        <ele>804.5</ele>
        <time>2021-08-14T11:54:25Z</time>
      </trkpt>
      <trkpt lat="43.99308" lon="3.22589">
        <ele>804.5</ele>
        <time>2021-08-14T11:54:27Z</time>
      </trkpt>
      <trkpt lat="43.993" lon="3.22587">
        <ele>804.5</ele>
        <time>2021-08-14T11:54:29Z</time>
      </trkpt>
      <trkpt lat="43.99293" lon="3.22585">
        <ele>804.5</ele>
        <time>2021-08-14T11:54:31Z</time>
      </trkpt>
      <trkpt lat="43.99286" lon="3.22582">
        <ele>804.5</ele>
        <time>2021-08-14T11:54:33Z</time>
      </trkpt>
      <trkpt lat="43.99279" lon="3.22578">
        <ele>804.4</ele>
        <time>2021-08-14T11:54:35Z</time>
      </trkpt>
      <trkpt lat="43.99272" lon="3.22576">
        <ele>804.4</ele>
        <time>2021-08-14T11:54:37Z</time>
      </trkpt>
      <trkpt lat="43.99265" lon="3.22574">
        <ele>804.4</ele>
        <time>2021-08-14T11:54:39Z</time>
      </trkpt>
      <trkpt lat="43.99258" lon="3.22571">
        <ele>804.4</ele>
        <time>2021-08-14T11:54:41Z</time>
      </trkpt>
      <trkpt lat="43.9925" lon="3.22567">
        <ele>804.4</ele>
        <time>2021-08-14T11:54:43Z</time>
      </trkpt>
      <trkpt lat="43.99241" lon="3.22564">
        <ele>804.1</ele>
        <time>2021-08-14T11:54:45Z</time>
      </trkpt>
      <trkpt lat="43.99231" lon="3.2256">
        <ele>803.8</ele>
        <time>2021-08-14T11:54:47Z</time>
      </trkpt>
      <trkpt lat="43.99222" lon="3.22556">
        <ele>803.5</ele>
        <time>2021-08-14T11:54:49Z</time>
      </trkpt>
      <trkpt lat="43.99211" lon="3.22553">
        <ele>803.2</ele>
        <time>2021-08-14T11:54:51Z</time>
      </trkpt>
      <trkpt lat="43.992" lon="3.2255">
        <ele>802.8</ele>
        <time>2021-08-14T11:54:53Z</time>
      </trkpt>
      <trkpt lat="43.99189" lon="3.22547">
        <ele>802.4</ele>
        <time>2021-08-14T11:54:55Z</time>
      </trkpt>
      <trkpt lat="43.99178" lon="3.22545">
        <ele>801.9</ele>
        <time>2021-08-14T11:54:57Z</time>
      </trkpt>
      <trkpt lat="43.99166" lon="3.22543">
        <ele>801.5</ele>
        <time>2021-08-14T11:54:59Z</time>
      </trkpt>
      <trkpt lat="43.99154" lon="3.22541">
        <ele>801</ele>
        <time>2021-08-14T11:55:01Z</time>
      </trkpt>
      <trkpt lat="43.99141" lon="3.22539">
        <ele>800.6</ele>
        <time>2021-08-14T11:55:03Z</time>
      </trkpt>
      <trkpt lat="43.99129" lon="3.22536">
        <ele>800.1</ele>
        <time>2021-08-14T11:55:05Z</time>
      </trkpt>
      <trkpt lat="43.99117" lon="3.22536">
        <ele>799.6</ele>
        <time>2021-08-14T11:55:07Z</time>
      </trkpt>
      <trkpt lat="43.99105" lon="3.2254">
        <ele>799.2</ele>
        <time>2021-08-14T11:55:09Z</time>
      </trkpt>
      <trkpt lat="43.99092" lon="3.22544">
        <ele>798.9</ele>
        <time>2021-08-14T11:55:11Z</time>
      </trkpt>
      <trkpt lat="43.9908" lon="3.22551">
        <ele>799</ele>
        <time>2021-08-14T11:55:13Z</time>
      </trkpt>
      <trkpt lat="43.99066" lon="3.22552">
        <ele>798.6</ele>
        <time>2021-08-14T11:55:15Z</time>
      </trkpt>
      <trkpt lat="43.99052" lon="3.22551">
        <ele>798.2</ele>
        <time>2021-08-14T11:55:17Z</time>
      </trkpt>
      <trkpt lat="43.9904" lon="3.22546">
        <ele>797.5</ele>
        <time>2021-08-14T11:55:19Z</time>
      </trkpt>
      <trkpt lat="43.99027" lon="3.22543">
        <ele>796.9</ele>
        <time>2021-08-14T11:55:21Z</time>
      </trkpt>
      <trkpt lat="43.99015" lon="3.22538">
        <ele>796.2</ele>
        <time>2021-08-14T11:55:23Z</time>
      </trkpt>
      <trkpt lat="43.99004" lon="3.22535">
        <ele>795.6</ele>
        <time>2021-08-14T11:55:25Z</time>
      </trkpt>
      <trkpt lat="43.98992" lon="3.22531">
        <ele>795.3</ele>
        <time>2021-08-14T11:55:27Z</time>
      </trkpt>
      <trkpt lat="43.98981" lon="3.22526">
        <ele>795</ele>
        <time>2021-08-14T11:55:29Z</time>
      </trkpt>
      <trkpt lat="43.9897" lon="3.2252">
        <ele>794.7</ele>
        <time>2021-08-14T11:55:31Z</time>
      </trkpt>
      <trkpt lat="43.9896" lon="3.22513">
        <ele>794.4</ele>
        <time>2021-08-14T11:55:33Z</time>
      </trkpt>
      <trkpt lat="43.98949" lon="3.22508">
        <ele>794.1</ele>
        <time>2021-08-14T11:55:35Z</time>
      </trkpt>
      <trkpt lat="43.98939" lon="3.22503">
        <ele>793.9</ele>
        <time>2021-08-14T11:55:37Z</time>
      </trkpt>
      <trkpt lat="43.98928" lon="3.22497">
        <ele>793.7</ele>
        <time>2021-08-14T11:55:39Z</time>
      </trkpt>
      <trkpt lat="43.98917" lon="3.22491">
        <ele>793.5</ele>
        <time>2021-08-14T11:55:41Z</time>
      </trkpt>
      <trkpt lat="43.98906" lon="3.22485">
        <ele>793</ele>
        <time>2021-08-14T11:55:43Z</time>
      </trkpt>
      <trkpt lat="43.98895" lon="3.22476">
        <ele>792.4</ele>
        <time>2021-08-14T11:55:45Z</time>
      </trkpt>
      <trkpt lat="43.98885" lon="3.22464">
        <ele>791.6</ele>
        <time>2021-08-14T11:55:47Z</time>
      </trkpt>
      <trkpt lat="43.98874" lon="3.22452">
        <ele>790.9</ele>
        <time>2021-08-14T11:55:49Z</time>
      </trkpt>
      <trkpt lat="43.98864" lon="3.2244">
        <ele>790.2</ele>
        <time>2021-08-14T11:55:51Z</time>
      </trkpt>
      <trkpt lat="43.98853" lon="3.22427">
        <ele>789.5</ele>
        <time>2021-08-14T11:55:53Z</time>
      </trkpt>
      <trkpt lat="43.98842" lon="3.22413">
        <ele>788.7</ele>
        <time>2021-08-14T11:55:55Z</time>
      </trkpt>
      <trkpt lat="43.98831" lon="3.22398">
        <ele>787.7</ele>
        <time>2021-08-14T11:55:57Z</time>
      </trkpt>
      <trkpt lat="43.9882" lon="3.22381">
        <ele>786.9</ele>
        <time>2021-08-14T11:55:59Z</time>
      </trkpt>
      <trkpt lat="43.98811" lon="3.22362">
        <ele>786</ele>
        <time>2021-08-14T11:56:01Z</time>
      </trkpt>
      <trkpt lat="43.98802" lon="3.22342">
        <ele>785</ele>
        <time>2021-08-14T11:56:03Z</time>
      </trkpt>
      <trkpt lat="43.9879" lon="3.22324">
        <ele>785.3</ele>
        <time>2021-08-14T11:56:05Z</time>
      </trkpt>
      <trkpt lat="43.98777" lon="3.22309">
        <ele>786</ele>
        <time>2021-08-14T11:56:07Z</time>
      </trkpt>
      <trkpt lat="43.98763" lon="3.22295">
        <ele>786.4</ele>
        <time>2021-08-14T11:56:09Z</time>
      </trkpt>
      <trkpt lat="43.98748" lon="3.22281">
        <ele>786.3</ele>
        <time>2021-08-14T11:56:11Z</time>
      </trkpt>
      <trkpt lat="43.98733" lon="3.22267">
        <ele>785.7</ele>
        <time>2021-08-14T11:56:13Z</time>
      </trkpt>
      <trkpt lat="43.98719" lon="3.22253">
        <ele>785</ele>
        <time>2021-08-14T11:56:15Z</time>
      </trkpt>
      <trkpt lat="43.98705" lon="3.22239">
        <ele>784.4</ele>
        <time>2021-08-14T11:56:17Z</time>
      </trkpt>
      <trkpt lat="43.98692" lon="3.22226">
        <ele>783.9</ele>
        <time>2021-08-14T11:56:19Z</time>
      </trkpt>
      <trkpt lat="43.9868" lon="3.22214">
        <ele>783.2</ele>
        <time>2021-08-14T11:56:21Z</time>
      </trkpt>
      <trkpt lat="43.98667" lon="3.22202">
        <ele>782.5</ele>
        <time>2021-08-14T11:56:23Z</time>
      </trkpt>
      <trkpt lat="43.98655" lon="3.22192">
        <ele>781.9</ele>
        <time>2021-08-14T11:56:25Z</time>
      </trkpt>
      <trkpt lat="43.98643" lon="3.22183">
        <ele>781.4</ele>
        <time>2021-08-14T11:56:27Z</time>
      </trkpt>
      <trkpt lat="43.98631" lon="3.22174">
        <ele>780.8</ele>
        <time>2021-08-14T11:56:29Z</time>
      </trkpt>
      <trkpt lat="43.9862" lon="3.22165">
        <ele>780.3</ele>
        <time>2021-08-14T11:56:31Z</time>
      </trkpt>
      <trkpt lat="43.98609" lon="3.22157">
        <ele>779.9</ele>
        <time>2021-08-14T11:56:33Z</time>
      </trkpt>
      <trkpt lat="43.98599" lon="3.22147">
        <ele>779.5</ele>
        <time>2021-08-14T11:56:35Z</time>
      </trkpt>
      <trkpt lat="43.9859" lon="3.22137">
        <ele>779</ele>
        <time>2021-08-14T11:56:37Z</time>
      </trkpt>
      <trkpt lat="43.98581" lon="3.22125">
        <ele>778.4</ele>
        <time>2021-08-14T11:56:39Z</time>
      </trkpt>
      <trkpt lat="43.98574" lon="3.22112">
        <ele>777.8</ele>
        <time>2021-08-14T11:56:41Z</time>
      </trkpt>
      <trkpt lat="43.98567" lon="3.22099">
        <ele>777.4</ele>
        <time>2021-08-14T11:56:43Z</time>
      </trkpt>
      <trkpt lat="43.98562" lon="3.22085">
        <ele>777</ele>
        <time>2021-08-14T11:56:45Z</time>
      </trkpt>
      <trkpt lat="43.98557" lon="3.22071">
        <ele>777.6</ele>
        <time>2021-08-14T11:56:47Z</time>
      </trkpt>
      <trkpt lat="43.98552" lon="3.22058">
        <ele>778.2</ele>
        <time>2021-08-14T11:56:49Z</time>
      </trkpt>
      <trkpt lat="43.98545" lon="3.22047">
        <ele>778.7</ele>
        <time>2021-08-14T11:56:51Z</time>
      </trkpt>
      <trkpt lat="43.98537" lon="3.22038">
        <ele>779.1</ele>
        <time>2021-08-14T11:56:53Z</time>
      </trkpt>
      <trkpt lat="43.98529" lon="3.2203">
        <ele>779.4</ele>
        <time>2021-08-14T11:56:55Z</time>
      </trkpt>
      <trkpt lat="43.98519" lon="3.22025">
        <ele>779.5</ele>
        <time>2021-08-14T11:56:57Z</time>
      </trkpt>
      <trkpt lat="43.9851" lon="3.22021">
        <ele>779.5</ele>
        <time>2021-08-14T11:56:59Z</time>
      </trkpt>
      <trkpt lat="43.98501" lon="3.22018">
        <ele>779.5</ele>
        <time>2021-08-14T11:57:01Z</time>
      </trkpt>
      <trkpt lat="43.98493" lon="3.22013">
        <ele>779.2</ele>
        <time>2021-08-14T11:57:03Z</time>
      </trkpt>
      <trkpt lat="43.98484" lon="3.22009">
        <ele>778.8</ele>
        <time>2021-08-14T11:57:05Z</time>
      </trkpt>
      <trkpt lat="43.98476" lon="3.22004">
        <ele>778.3</ele>
        <time>2021-08-14T11:57:07Z</time>
      </trkpt>
      <trkpt lat="43.98467" lon="3.21999">
        <ele>777.9</ele>
        <time>2021-08-14T11:57:09Z</time>
      </trkpt>
      <trkpt lat="43.98459" lon="3.21993">
        <ele>777.5</ele>
        <time>2021-08-14T11:57:11Z</time>
      </trkpt>
      <trkpt lat="43.9845" lon="3.21986">
        <ele>777.2</ele>
        <time>2021-08-14T11:57:13Z</time>
      </trkpt>
      <trkpt lat="43.98441" lon="3.2198">
        <ele>776.7</ele>
        <time>2021-08-14T11:57:15Z</time>
      </trkpt>
      <trkpt lat="43.98434" lon="3.21971">
        <ele>776.5</ele>
        <time>2021-08-14T11:57:17Z</time>
      </trkpt>
      <trkpt lat="43.98427" lon="3.21961">
        <ele>776.3</ele>
        <time>2021-08-14T11:57:19Z</time>
      </trkpt>
      <trkpt lat="43.98419" lon="3.21951">
        <ele>776.2</ele>
        <time>2021-08-14T11:57:21Z</time>
      </trkpt>
      <trkpt lat="43.98412" lon="3.2194">
        <ele>776</ele>
        <time>2021-08-14T11:57:23Z</time>
      </trkpt>
      <trkpt lat="43.98406" lon="3.21929">
        <ele>775.9</ele>
        <time>2021-08-14T11:57:25Z</time>
      </trkpt>
      <trkpt lat="43.98401" lon="3.21917">
        <ele>776</ele>
        <time>2021-08-14T11:57:27Z</time>
      </trkpt>
      <trkpt lat="43.98399" lon="3.21904">
        <ele>776.2</ele>
        <time>2021-08-14T11:57:29Z</time>
      </trkpt>
      <trkpt lat="43.98398" lon="3.21889">
        <ele>776.7</ele>
        <time>2021-08-14T11:57:31Z</time>
      </trkpt>
      <trkpt lat="43.98397" lon="3.21875">
        <ele>777.3</ele>
        <time>2021-08-14T11:57:33Z</time>
      </trkpt>
      <trkpt lat="43.98396" lon="3.21861">
        <ele>777.6</ele>
        <time>2021-08-14T11:57:35Z</time>
      </trkpt>
      <trkpt lat="43.98392" lon="3.21848">
        <ele>777.6</ele>
        <time>2021-08-14T11:57:37Z</time>
      </trkpt>
      <trkpt lat="43.98387" lon="3.21836">
        <ele>777.2</ele>
        <time>2021-08-14T11:57:39Z</time>
      </trkpt>
      <trkpt lat="43.9838" lon="3.21826">
        <ele>776.6</ele>
        <time>2021-08-14T11:57:41Z</time>
      </trkpt>
      <trkpt lat="43.98373" lon="3.21817">
        <ele>775.8</ele>
        <time>2021-08-14T11:57:43Z</time>
      </trkpt>
      <trkpt lat="43.98367" lon="3.21806">
        <ele>775.2</ele>
        <time>2021-08-14T11:57:45Z</time>
      </trkpt>
      <trkpt lat="43.9836" lon="3.21796">
        <ele>774.5</ele>
        <time>2021-08-14T11:57:47Z</time>
      </trkpt>
      <trkpt lat="43.98355" lon="3.21785">
        <ele>774</ele>
        <time>2021-08-14T11:57:49Z</time>
      </trkpt>
      <trkpt lat="43.98352" lon="3.21773">
        <ele>773.9</ele>
        <time>2021-08-14T11:57:51Z</time>
      </trkpt>
      <trkpt lat="43.9835" lon="3.2176">
        <ele>773.9</ele>
        <time>2021-08-14T11:57:53Z</time>
      </trkpt>
      <trkpt lat="43.98351" lon="3.21746">
        <ele>774.3</ele>
        <time>2021-08-14T11:57:55Z</time>
      </trkpt>
      <trkpt lat="43.98352" lon="3.21733">
        <ele>774.5</ele>
        <time>2021-08-14T11:57:57Z</time>
      </trkpt>
      <trkpt lat="43.98354" lon="3.21719">
        <ele>774.9</ele>
        <time>2021-08-14T11:57:59Z</time>
      </trkpt>
      <trkpt lat="43.98357" lon="3.21707">
        <ele>775.3</ele>
        <time>2021-08-14T11:58:01Z</time>
      </trkpt>
      <trkpt lat="43.98359" lon="3.21695">
        <ele>775.8</ele>
        <time>2021-08-14T11:58:03Z</time>
      </trkpt>
      <trkpt lat="43.9836" lon="3.21681">
        <ele>775.8</ele>
        <time>2021-08-14T11:58:05Z</time>
      </trkpt>
      <trkpt lat="43.98359" lon="3.21668">
        <ele>775.5</ele>
        <time>2021-08-14T11:58:07Z</time>
      </trkpt>
      <trkpt lat="43.98356" lon="3.21656">
        <ele>775.2</ele>
        <time>2021-08-14T11:58:09Z</time>
      </trkpt>
      <trkpt lat="43.98352" lon="3.21645">
        <ele>774.7</ele>
        <time>2021-08-14T11:58:11Z</time>
      </trkpt>
      <trkpt lat="43.98348" lon="3.21634">
        <ele>774.2</ele>
        <time>2021-08-14T11:58:13Z</time>
      </trkpt>
      <trkpt lat="43.98343" lon="3.21624">
        <ele>773.8</ele>
        <time>2021-08-14T11:58:15Z</time>
      </trkpt>
      <trkpt lat="43.98338" lon="3.21612">
        <ele>773.5</ele>
        <time>2021-08-14T11:58:17Z</time>
      </trkpt>
      <trkpt lat="43.98332" lon="3.216">
        <ele>773.1</ele>
        <time>2021-08-14T11:58:19Z</time>
      </trkpt>
      <trkpt lat="43.98325" lon="3.21592">
        <ele>772.8</ele>
        <time>2021-08-14T11:58:21Z</time>
      </trkpt>
      <trkpt lat="43.98317" lon="3.21585">
        <ele>772.5</ele>
        <time>2021-08-14T11:58:23Z</time>
      </trkpt>
      <trkpt lat="43.98309" lon="3.21579">
        <ele>772.1</ele>
        <time>2021-08-14T11:58:25Z</time>
      </trkpt>
      <trkpt lat="43.98301" lon="3.21573">
        <ele>771.8</ele>
        <time>2021-08-14T11:58:27Z</time>
      </trkpt>
      <trkpt lat="43.98293" lon="3.21567">
        <ele>771.5</ele>
        <time>2021-08-14T11:58:29Z</time>
      </trkpt>
      <trkpt lat="43.98285" lon="3.21562">
        <ele>771.2</ele>
        <time>2021-08-14T11:58:31Z</time>
      </trkpt>
      <trkpt lat="43.98276" lon="3.21557">
        <ele>770.9</ele>
        <time>2021-08-14T11:58:33Z</time>
      </trkpt>
      <trkpt lat="43.98267" lon="3.21553">
        <ele>770.6</ele>
        <time>2021-08-14T11:58:35Z</time>
      </trkpt>
      <trkpt lat="43.98257" lon="3.2155">
        <ele>770.3</ele>
        <time>2021-08-14T11:58:37Z</time>
      </trkpt>
      <trkpt lat="43.98249" lon="3.21547">
        <ele>770.1</ele>
        <time>2021-08-14T11:58:39Z</time>
      </trkpt>
      <trkpt lat="43.98241" lon="3.21545">
        <ele>770.8</ele>
        <time>2021-08-14T11:58:41Z</time>
      </trkpt>
      <trkpt lat="43.98233" lon="3.21543">
        <ele>771.5</ele>
        <time>2021-08-14T11:58:43Z</time>
      </trkpt>
      <trkpt lat="43.98226" lon="3.21542">
        <ele>772</ele>
        <time>2021-08-14T11:58:45Z</time>
      </trkpt>
      <trkpt lat="43.98221" lon="3.2154">
        <ele>772.5</ele>
        <time>2021-08-14T11:58:47Z</time>
      </trkpt>
      <trkpt lat="43.98216" lon="3.21539">
        <ele>772.9</ele>
        <time>2021-08-14T11:58:49Z</time>
      </trkpt>
      <trkpt lat="43.98214" lon="3.21537">
        <ele>773.3</ele>
        <time>2021-08-14T11:58:51Z</time>
      </trkpt>
      <trkpt lat="43.98214" lon="3.21535">
        <ele>773.4</ele>
        <time>2021-08-14T11:58:53Z</time>
      </trkpt>
      <trkpt lat="43.98213" lon="3.21535">
        <ele>773.4</ele>
        <time>2021-08-14T11:58:55Z</time>
      </trkpt>
      <trkpt lat="43.98213" lon="3.21535">
        <ele>773.5</ele>
        <time>2021-08-14T11:58:57Z</time>
      </trkpt>
      <trkpt lat="43.98213" lon="3.21535">
        <ele>773.5</ele>
        <time>2021-08-14T11:58:59Z</time>
      </trkpt>
      <trkpt lat="43.98212" lon="3.21535">
        <ele>773.5</ele>
        <time>2021-08-14T11:59:01Z</time>
      </trkpt>
      <trkpt lat="43.98221" lon="3.21507">
        <ele>775.2</ele>
        <time>2021-08-14T13:17:35Z</time>
      </trkpt>
      <trkpt lat="43.98219" lon="3.21512">
        <ele>774.9</ele>
        <time>2021-08-14T13:17:37Z</time>
      </trkpt>
      <trkpt lat="43.98219" lon="3.21519">
        <ele>774.3</ele>
        <time>2021-08-14T13:17:39Z</time>
      </trkpt>
      <trkpt lat="43.98217" lon="3.21527">
        <ele>773.9</ele>
        <time>2021-08-14T13:17:41Z</time>
      </trkpt>
      <trkpt lat="43.98218" lon="3.21535">
        <ele>773.2</ele>
        <time>2021-08-14T13:17:43Z</time>
      </trkpt>
      <trkpt lat="43.98222" lon="3.21542">
        <ele>772.4</ele>
        <time>2021-08-14T13:17:45Z</time>
      </trkpt>
      <trkpt lat="43.98227" lon="3.21544">
        <ele>771.9</ele>
        <time>2021-08-14T13:17:47Z</time>
      </trkpt>
      <trkpt lat="43.98233" lon="3.21545">
        <ele>771.3</ele>
        <time>2021-08-14T13:17:49Z</time>
      </trkpt>
      <trkpt lat="43.98241" lon="3.21545">
        <ele>770.8</ele>
        <time>2021-08-14T13:17:51Z</time>
      </trkpt>
      <trkpt lat="43.98248" lon="3.21546">
        <ele>770.3</ele>
        <time>2021-08-14T13:17:53Z</time>
      </trkpt>
      <trkpt lat="43.98254" lon="3.21548">
        <ele>770.2</ele>
        <time>2021-08-14T13:17:55Z</time>
      </trkpt>
      <trkpt lat="43.98261" lon="3.21551">
        <ele>770.4</ele>
        <time>2021-08-14T13:17:57Z</time>
      </trkpt>
      <trkpt lat="43.98267" lon="3.21554">
        <ele>770.5</ele>
        <time>2021-08-14T13:17:59Z</time>
      </trkpt>
      <trkpt lat="43.98273" lon="3.21557">
        <ele>770.7</ele>
        <time>2021-08-14T13:18:01Z</time>
      </trkpt>
      <trkpt lat="43.98279" lon="3.2156">
        <ele>770.9</ele>
        <time>2021-08-14T13:18:03Z</time>
      </trkpt>
      <trkpt lat="43.98284" lon="3.21562">
        <ele>771.1</ele>
        <time>2021-08-14T13:18:05Z</time>
      </trkpt>
      <trkpt lat="43.98288" lon="3.21566">
        <ele>771.2</ele>
        <time>2021-08-14T13:18:07Z</time>
      </trkpt>
      <trkpt lat="43.98292" lon="3.21568">
        <ele>771.3</ele>
        <time>2021-08-14T13:18:09Z</time>
      </trkpt>
      <trkpt lat="43.98296" lon="3.21572">
        <ele>771.5</ele>
        <time>2021-08-14T13:18:11Z</time>
      </trkpt>
      <trkpt lat="43.98301" lon="3.21574">
        <ele>771.7</ele>
        <time>2021-08-14T13:18:13Z</time>
      </trkpt>
      <trkpt lat="43.98305" lon="3.21578">
        <ele>771.9</ele>
        <time>2021-08-14T13:18:15Z</time>
      </trkpt>
      <trkpt lat="43.98311" lon="3.2158">
        <ele>772.2</ele>
        <time>2021-08-14T13:18:17Z</time>
      </trkpt>
      <trkpt lat="43.98315" lon="3.21584">
        <ele>772.4</ele>
        <time>2021-08-14T13:18:19Z</time>
      </trkpt>
      <trkpt lat="43.98319" lon="3.21587">
        <ele>772.6</ele>
        <time>2021-08-14T13:18:21Z</time>
      </trkpt>
      <trkpt lat="43.98323" lon="3.21592">
        <ele>772.7</ele>
        <time>2021-08-14T13:18:23Z</time>
      </trkpt>
      <trkpt lat="43.98328" lon="3.21598">
        <ele>772.8</ele>
        <time>2021-08-14T13:18:25Z</time>
      </trkpt>
      <trkpt lat="43.98333" lon="3.21603">
        <ele>773</ele>
        <time>2021-08-14T13:18:27Z</time>
      </trkpt>
      <trkpt lat="43.98336" lon="3.2161">
        <ele>773.2</ele>
        <time>2021-08-14T13:18:29Z</time>
      </trkpt>
      <trkpt lat="43.98339" lon="3.21616">
        <ele>773.4</ele>
        <time>2021-08-14T13:18:31Z</time>
      </trkpt>
      <trkpt lat="43.9834" lon="3.2162">
        <ele>773.4</ele>
        <time>2021-08-14T13:18:33Z</time>
      </trkpt>
      <trkpt lat="43.9834" lon="3.2162">
        <ele>773.5</ele>
        <time>2021-08-14T13:18:35Z</time>
      </trkpt>
      <trkpt lat="43.98341" lon="3.2162">
        <ele>773.6</ele>
        <time>2021-08-14T13:18:37Z</time>
      </trkpt>
      <trkpt lat="43.98341" lon="3.2162">
        <ele>773.6</ele>
        <time>2021-08-14T13:18:39Z</time>
      </trkpt>
      <trkpt lat="43.98342" lon="3.21621">
        <ele>773.7</ele>
        <time>2021-08-14T13:18:41Z</time>
      </trkpt>
      <trkpt lat="43.98342" lon="3.21621">
        <ele>773.6</ele>
        <time>2021-08-14T13:18:43Z</time>
      </trkpt>
      <trkpt lat="43.98343" lon="3.21643">
        <ele>772.9</ele>
        <time>2021-08-14T13:19:15Z</time>
      </trkpt>
      <trkpt lat="43.98347" lon="3.21655">
        <ele>773.3</ele>
        <time>2021-08-14T13:19:17Z</time>
      </trkpt>
      <trkpt lat="43.98351" lon="3.2167">
        <ele>773.8</ele>
        <time>2021-08-14T13:19:19Z</time>
      </trkpt>
      <trkpt lat="43.98353" lon="3.21684">
        <ele>774.3</ele>
        <time>2021-08-14T13:19:21Z</time>
      </trkpt>
      <trkpt lat="43.98352" lon="3.21698">
        <ele>774.2</ele>
        <time>2021-08-14T13:19:23Z</time>
      </trkpt>
      <trkpt lat="43.98348" lon="3.2171">
        <ele>773.5</ele>
        <time>2021-08-14T13:19:25Z</time>
      </trkpt>
      <trkpt lat="43.98345" lon="3.21722">
        <ele>772.9</ele>
        <time>2021-08-14T13:19:27Z</time>
      </trkpt>
      <trkpt lat="43.9834" lon="3.21732">
        <ele>772.1</ele>
        <time>2021-08-14T13:19:29Z</time>
      </trkpt>
      <trkpt lat="43.98334" lon="3.21743">
        <ele>771.1</ele>
        <time>2021-08-14T13:19:31Z</time>
      </trkpt>
      <trkpt lat="43.98328" lon="3.21754">
        <ele>770.2</ele>
        <time>2021-08-14T13:19:33Z</time>
      </trkpt>
      <trkpt lat="43.98322" lon="3.21766">
        <ele>769.2</ele>
        <time>2021-08-14T13:19:35Z</time>
      </trkpt>
      <trkpt lat="43.98316" lon="3.2178">
        <ele>768.2</ele>
        <time>2021-08-14T13:19:37Z</time>
      </trkpt>
      <trkpt lat="43.98311" lon="3.21792">
        <ele>767.5</ele>
        <time>2021-08-14T13:19:39Z</time>
      </trkpt>
      <trkpt lat="43.98308" lon="3.21805">
        <ele>767</ele>
        <time>2021-08-14T13:19:41Z</time>
      </trkpt>
      <trkpt lat="43.98309" lon="3.21819">
        <ele>766.9</ele>
        <time>2021-08-14T13:19:43Z</time>
      </trkpt>
      <trkpt lat="43.98312" lon="3.21833">
        <ele>766.9</ele>
        <time>2021-08-14T13:19:45Z</time>
      </trkpt>
      <trkpt lat="43.98316" lon="3.21847">
        <ele>767</ele>
        <time>2021-08-14T13:19:47Z</time>
      </trkpt>
      <trkpt lat="43.98319" lon="3.21864">
        <ele>766.8</ele>
        <time>2021-08-14T13:19:49Z</time>
      </trkpt>
      <trkpt lat="43.98322" lon="3.2188">
        <ele>766.8</ele>
        <time>2021-08-14T13:19:51Z</time>
      </trkpt>
      <trkpt lat="43.98324" lon="3.21894">
        <ele>766.6</ele>
        <time>2021-08-14T13:19:53Z</time>
      </trkpt>
      <trkpt lat="43.98323" lon="3.21905">
        <ele>766.3</ele>
        <time>2021-08-14T13:19:55Z</time>
      </trkpt>
      <trkpt lat="43.98321" lon="3.21915">
        <ele>765.8</ele>
        <time>2021-08-14T13:19:57Z</time>
      </trkpt>
      <trkpt lat="43.98316" lon="3.21923">
        <ele>764.9</ele>
        <time>2021-08-14T13:19:59Z</time>
      </trkpt>
      <trkpt lat="43.98309" lon="3.2193">
        <ele>763.8</ele>
        <time>2021-08-14T13:20:01Z</time>
      </trkpt>
      <trkpt lat="43.98302" lon="3.21937">
        <ele>762.6</ele>
        <time>2021-08-14T13:20:03Z</time>
      </trkpt>
      <trkpt lat="43.98294" lon="3.21942">
        <ele>761.5</ele>
        <time>2021-08-14T13:20:05Z</time>
      </trkpt>
      <trkpt lat="43.98285" lon="3.2195">
        <ele>760.1</ele>
        <time>2021-08-14T13:20:07Z</time>
      </trkpt>
      <trkpt lat="43.98276" lon="3.21955">
        <ele>758.8</ele>
        <time>2021-08-14T13:20:09Z</time>
      </trkpt>
      <trkpt lat="43.98269" lon="3.21961">
        <ele>757.7</ele>
        <time>2021-08-14T13:20:11Z</time>
      </trkpt>
      <trkpt lat="43.9826" lon="3.21969">
        <ele>756.3</ele>
        <time>2021-08-14T13:20:13Z</time>
      </trkpt>
      <trkpt lat="43.98253" lon="3.21981">
        <ele>754.7</ele>
        <time>2021-08-14T13:20:15Z</time>
      </trkpt>
      <trkpt lat="43.98246" lon="3.21994">
        <ele>753.4</ele>
        <time>2021-08-14T13:20:17Z</time>
      </trkpt>
      <trkpt lat="43.98241" lon="3.22007">
        <ele>752.3</ele>
        <time>2021-08-14T13:20:19Z</time>
      </trkpt>
      <trkpt lat="43.98237" lon="3.22021">
        <ele>751.3</ele>
        <time>2021-08-14T13:20:21Z</time>
      </trkpt>
      <trkpt lat="43.98233" lon="3.22031">
        <ele>750.6</ele>
        <time>2021-08-14T13:20:23Z</time>
      </trkpt>
      <trkpt lat="43.98227" lon="3.22039">
        <ele>749.9</ele>
        <time>2021-08-14T13:20:25Z</time>
      </trkpt>
      <trkpt lat="43.98223" lon="3.22045">
        <ele>749.5</ele>
        <time>2021-08-14T13:20:27Z</time>
      </trkpt>
      <trkpt lat="43.98224" lon="3.22044">
        <ele>749.5</ele>
        <time>2021-08-14T13:20:29Z</time>
      </trkpt>
      <trkpt lat="43.98224" lon="3.22043">
        <ele>749.6</ele>
        <time>2021-08-14T13:20:31Z</time>
      </trkpt>
      <trkpt lat="43.98224" lon="3.22043">
        <ele>749.6</ele>
        <time>2021-08-14T13:20:33Z</time>
      </trkpt>
      <trkpt lat="43.98224" lon="3.22043">
        <ele>749.6</ele>
        <time>2021-08-14T13:20:35Z</time>
      </trkpt>
      <trkpt lat="43.98224" lon="3.22043">
        <ele>749.6</ele>
        <time>2021-08-14T13:20:37Z</time>
      </trkpt>
      <trkpt lat="43.98223" lon="3.22064">
        <ele>748.1</ele>
        <time>2021-08-14T13:21:05Z</time>
      </trkpt>
      <trkpt lat="43.98223" lon="3.22071">
        <ele>747.5</ele>
        <time>2021-08-14T13:21:07Z</time>
      </trkpt>
      <trkpt lat="43.98225" lon="3.22078">
        <ele>747.1</ele>
        <time>2021-08-14T13:21:09Z</time>
      </trkpt>
      <trkpt lat="43.98227" lon="3.22086">
        <ele>746.5</ele>
        <time>2021-08-14T13:21:11Z</time>
      </trkpt>
      <trkpt lat="43.98229" lon="3.22094">
        <ele>745.9</ele>
        <time>2021-08-14T13:21:13Z</time>
      </trkpt>
      <trkpt lat="43.98232" lon="3.22105">
        <ele>745</ele>
        <time>2021-08-14T13:21:15Z</time>
      </trkpt>
      <trkpt lat="43.98234" lon="3.22117">
        <ele>744</ele>
        <time>2021-08-14T13:21:17Z</time>
      </trkpt>
      <trkpt lat="43.98238" lon="3.22128">
        <ele>743.2</ele>
        <time>2021-08-14T13:21:19Z</time>
      </trkpt>
      <trkpt lat="43.98241" lon="3.22135">
        <ele>742.6</ele>
        <time>2021-08-14T13:21:21Z</time>
      </trkpt>
      <trkpt lat="43.98243" lon="3.22146">
        <ele>741.8</ele>
        <time>2021-08-14T13:21:23Z</time>
      </trkpt>
      <trkpt lat="43.98246" lon="3.22157">
        <ele>740.8</ele>
        <time>2021-08-14T13:21:25Z</time>
      </trkpt>
      <trkpt lat="43.98249" lon="3.22173">
        <ele>739.8</ele>
        <time>2021-08-14T13:21:27Z</time>
      </trkpt>
      <trkpt lat="43.98254" lon="3.22194">
        <ele>739.3</ele>
        <time>2021-08-14T13:21:29Z</time>
      </trkpt>
      <trkpt lat="43.98259" lon="3.22216">
        <ele>738.9</ele>
        <time>2021-08-14T13:21:31Z</time>
      </trkpt>
      <trkpt lat="43.98263" lon="3.22237">
        <ele>738.5</ele>
        <time>2021-08-14T13:21:33Z</time>
      </trkpt>
      <trkpt lat="43.98268" lon="3.22255">
        <ele>738.7</ele>
        <time>2021-08-14T13:21:35Z</time>
      </trkpt>
      <trkpt lat="43.98272" lon="3.22271">
        <ele>739.7</ele>
        <time>2021-08-14T13:21:37Z</time>
      </trkpt>
      <trkpt lat="43.98275" lon="3.22284">
        <ele>740.6</ele>
        <time>2021-08-14T13:21:39Z</time>
      </trkpt>
      <trkpt lat="43.98277" lon="3.22294">
        <ele>741.2</ele>
        <time>2021-08-14T13:21:41Z</time>
      </trkpt>
      <trkpt lat="43.98279" lon="3.22301">
        <ele>741.7</ele>
        <time>2021-08-14T13:21:43Z</time>
      </trkpt>
      <trkpt lat="43.9828" lon="3.22305">
        <ele>742</ele>
        <time>2021-08-14T13:21:45Z</time>
      </trkpt>
      <trkpt lat="43.98281" lon="3.22309">
        <ele>742.2</ele>
        <time>2021-08-14T13:21:47Z</time>
      </trkpt>
      <trkpt lat="43.98281" lon="3.22313">
        <ele>742.4</ele>
        <time>2021-08-14T13:21:49Z</time>
      </trkpt>
      <trkpt lat="43.98283" lon="3.22317">
        <ele>742.8</ele>
        <time>2021-08-14T13:21:51Z</time>
      </trkpt>
      <trkpt lat="43.98284" lon="3.22322">
        <ele>743.1</ele>
        <time>2021-08-14T13:21:53Z</time>
      </trkpt>
      <trkpt lat="43.98285" lon="3.22326">
        <ele>743.5</ele>
        <time>2021-08-14T13:21:55Z</time>
      </trkpt>
      <trkpt lat="43.98286" lon="3.22331">
        <ele>743.7</ele>
        <time>2021-08-14T13:21:57Z</time>
      </trkpt>
      <trkpt lat="43.98287" lon="3.22335">
        <ele>744.1</ele>
        <time>2021-08-14T13:21:59Z</time>
      </trkpt>
      <trkpt lat="43.98288" lon="3.22339">
        <ele>744.4</ele>
        <time>2021-08-14T13:22:01Z</time>
      </trkpt>
      <trkpt lat="43.98289" lon="3.22343">
        <ele>744.8</ele>
        <time>2021-08-14T13:22:03Z</time>
      </trkpt>
      <trkpt lat="43.9829" lon="3.22347">
        <ele>745.3</ele>
        <time>2021-08-14T13:22:05Z</time>
      </trkpt>
      <trkpt lat="43.98291" lon="3.22352">
        <ele>745.6</ele>
        <time>2021-08-14T13:22:07Z</time>
      </trkpt>
      <trkpt lat="43.98292" lon="3.22356">
        <ele>746</ele>
        <time>2021-08-14T13:22:09Z</time>
      </trkpt>
      <trkpt lat="43.98293" lon="3.2236">
        <ele>746.4</ele>
        <time>2021-08-14T13:22:11Z</time>
      </trkpt>
      <trkpt lat="43.98294" lon="3.22364">
        <ele>746.8</ele>
        <time>2021-08-14T13:22:13Z</time>
      </trkpt>
      <trkpt lat="43.98295" lon="3.22368">
        <ele>747.2</ele>
        <time>2021-08-14T13:22:15Z</time>
      </trkpt>
      <trkpt lat="43.98296" lon="3.22372">
        <ele>747.5</ele>
        <time>2021-08-14T13:22:17Z</time>
      </trkpt>
      <trkpt lat="43.98297" lon="3.22376">
        <ele>747.9</ele>
        <time>2021-08-14T13:22:19Z</time>
      </trkpt>
      <trkpt lat="43.98298" lon="3.2238">
        <ele>748.3</ele>
        <time>2021-08-14T13:22:21Z</time>
      </trkpt>
      <trkpt lat="43.98298" lon="3.22384">
        <ele>748.6</ele>
        <time>2021-08-14T13:22:23Z</time>
      </trkpt>
      <trkpt lat="43.983" lon="3.22388">
        <ele>749</ele>
        <time>2021-08-14T13:22:25Z</time>
      </trkpt>
      <trkpt lat="43.98301" lon="3.22392">
        <ele>749.4</ele>
        <time>2021-08-14T13:22:27Z</time>
      </trkpt>
      <trkpt lat="43.98302" lon="3.22395">
        <ele>749.8</ele>
        <time>2021-08-14T13:22:29Z</time>
      </trkpt>
      <trkpt lat="43.98303" lon="3.22399">
        <ele>750.2</ele>
        <time>2021-08-14T13:22:31Z</time>
      </trkpt>
      <trkpt lat="43.98304" lon="3.22403">
        <ele>750.6</ele>
        <time>2021-08-14T13:22:33Z</time>
      </trkpt>
      <trkpt lat="43.98305" lon="3.22408">
        <ele>750.9</ele>
        <time>2021-08-14T13:22:35Z</time>
      </trkpt>
      <trkpt lat="43.98306" lon="3.22411">
        <ele>751.4</ele>
        <time>2021-08-14T13:22:37Z</time>
      </trkpt>
      <trkpt lat="43.98307" lon="3.22416">
        <ele>751.8</ele>
        <time>2021-08-14T13:22:39Z</time>
      </trkpt>
      <trkpt lat="43.98308" lon="3.2242">
        <ele>752.2</ele>
        <time>2021-08-14T13:22:41Z</time>
      </trkpt>
      <trkpt lat="43.98309" lon="3.22424">
        <ele>752.6</ele>
        <time>2021-08-14T13:22:43Z</time>
      </trkpt>
      <trkpt lat="43.98309" lon="3.22428">
        <ele>753</ele>
        <time>2021-08-14T13:22:45Z</time>
      </trkpt>
      <trkpt lat="43.9831" lon="3.22431">
        <ele>753.3</ele>
        <time>2021-08-14T13:22:47Z</time>
      </trkpt>
      <trkpt lat="43.9831" lon="3.22434">
        <ele>753.6</ele>
        <time>2021-08-14T13:22:49Z</time>
      </trkpt>
      <trkpt lat="43.98311" lon="3.22437">
        <ele>754</ele>
        <time>2021-08-14T13:22:51Z</time>
      </trkpt>
      <trkpt lat="43.98312" lon="3.2244">
        <ele>754.4</ele>
        <time>2021-08-14T13:22:53Z</time>
      </trkpt>
      <trkpt lat="43.98313" lon="3.22444">
        <ele>754.8</ele>
        <time>2021-08-14T13:22:55Z</time>
      </trkpt>
      <trkpt lat="43.98314" lon="3.22447">
        <ele>755.1</ele>
        <time>2021-08-14T13:22:57Z</time>
      </trkpt>
      <trkpt lat="43.98315" lon="3.2245">
        <ele>755.5</ele>
        <time>2021-08-14T13:22:59Z</time>
      </trkpt>
      <trkpt lat="43.98316" lon="3.22454">
        <ele>755.9</ele>
        <time>2021-08-14T13:23:01Z</time>
      </trkpt>
      <trkpt lat="43.98317" lon="3.22457">
        <ele>756.3</ele>
        <time>2021-08-14T13:23:03Z</time>
      </trkpt>
      <trkpt lat="43.98318" lon="3.22461">
        <ele>756.7</ele>
        <time>2021-08-14T13:23:05Z</time>
      </trkpt>
      <trkpt lat="43.98319" lon="3.22464">
        <ele>757.1</ele>
        <time>2021-08-14T13:23:07Z</time>
      </trkpt>
      <trkpt lat="43.9832" lon="3.22468">
        <ele>757.6</ele>
        <time>2021-08-14T13:23:09Z</time>
      </trkpt>
      <trkpt lat="43.9832" lon="3.22471">
        <ele>757.9</ele>
        <time>2021-08-14T13:23:11Z</time>
      </trkpt>
      <trkpt lat="43.98321" lon="3.22474">
        <ele>758.2</ele>
        <time>2021-08-14T13:23:13Z</time>
      </trkpt>
      <trkpt lat="43.98322" lon="3.22476">
        <ele>758.5</ele>
        <time>2021-08-14T13:23:15Z</time>
      </trkpt>
      <trkpt lat="43.98321" lon="3.22476">
        <ele>758.4</ele>
        <time>2021-08-14T13:23:17Z</time>
      </trkpt>
      <trkpt lat="43.98321" lon="3.22476">
        <ele>758.4</ele>
        <time>2021-08-14T13:23:19Z</time>
      </trkpt>
      <trkpt lat="43.98323" lon="3.22476">
        <ele>758.6</ele>
        <time>2021-08-14T13:23:21Z</time>
      </trkpt>
      <trkpt lat="43.98323" lon="3.22476">
        <ele>758.6</ele>
        <time>2021-08-14T13:23:23Z</time>
      </trkpt>
      <trkpt lat="43.98323" lon="3.22476">
        <ele>758.7</ele>
        <time>2021-08-14T13:23:25Z</time>
      </trkpt>
      <trkpt lat="43.98323" lon="3.22476">
        <ele>758.6</ele>
        <time>2021-08-14T13:23:27Z</time>
      </trkpt>
      <trkpt lat="43.98323" lon="3.22479">
        <ele>758.9</ele>
        <time>2021-08-14T13:23:29Z</time>
      </trkpt>
      <trkpt lat="43.98324" lon="3.22481">
        <ele>759.1</ele>
        <time>2021-08-14T13:23:31Z</time>
      </trkpt>
      <trkpt lat="43.98324" lon="3.22482">
        <ele>759.3</ele>
        <time>2021-08-14T13:23:33Z</time>
      </trkpt>
      <trkpt lat="43.98324" lon="3.22482">
        <ele>759.3</ele>
        <time>2021-08-14T13:23:35Z</time>
      </trkpt>
      <trkpt lat="43.98325" lon="3.22484">
        <ele>759.5</ele>
        <time>2021-08-14T13:23:37Z</time>
      </trkpt>
      <trkpt lat="43.98325" lon="3.22485">
        <ele>759.6</ele>
        <time>2021-08-14T13:23:39Z</time>
      </trkpt>
      <trkpt lat="43.98325" lon="3.22487">
        <ele>759.8</ele>
        <time>2021-08-14T13:23:41Z</time>
      </trkpt>
      <trkpt lat="43.98325" lon="3.22488">
        <ele>760</ele>
        <time>2021-08-14T13:23:43Z</time>
      </trkpt>
      <trkpt lat="43.98326" lon="3.22489">
        <ele>760.1</ele>
        <time>2021-08-14T13:23:45Z</time>
      </trkpt>
      <trkpt lat="43.98326" lon="3.22491">
        <ele>760.3</ele>
        <time>2021-08-14T13:23:47Z</time>
      </trkpt>
      <trkpt lat="43.98326" lon="3.2249">
        <ele>760.3</ele>
        <time>2021-08-14T13:23:49Z</time>
      </trkpt>
      <trkpt lat="43.98327" lon="3.2249">
        <ele>760.3</ele>
        <time>2021-08-14T13:23:51Z</time>
      </trkpt>
      <trkpt lat="43.98327" lon="3.2249">
        <ele>760.3</ele>
        <time>2021-08-14T13:23:53Z</time>
      </trkpt>
      <trkpt lat="43.98326" lon="3.2249">
        <ele>760.3</ele>
        <time>2021-08-14T13:23:55Z</time>
      </trkpt>
      <trkpt lat="43.98327" lon="3.2249">
        <ele>760.3</ele>
        <time>2021-08-14T13:23:57Z</time>
      </trkpt>
      <trkpt lat="43.98327" lon="3.2249">
        <ele>760.3</ele>
        <time>2021-08-14T13:23:59Z</time>
      </trkpt>
      <trkpt lat="43.98327" lon="3.2249">
        <ele>760.3</ele>
        <time>2021-08-14T13:24:01Z</time>
      </trkpt>
      <trkpt lat="43.98327" lon="3.22491">
        <ele>760.5</ele>
        <time>2021-08-14T13:24:03Z</time>
      </trkpt>
      <trkpt lat="43.98328" lon="3.22492">
        <ele>760.6</ele>
        <time>2021-08-14T13:24:05Z</time>
      </trkpt>
      <trkpt lat="43.98329" lon="3.22493">
        <ele>760.8</ele>
        <time>2021-08-14T13:24:07Z</time>
      </trkpt>
      <trkpt lat="43.98329" lon="3.22495">
        <ele>761</ele>
        <time>2021-08-14T13:24:09Z</time>
      </trkpt>
      <trkpt lat="43.98329" lon="3.22497">
        <ele>761.2</ele>
        <time>2021-08-14T13:24:11Z</time>
      </trkpt>
      <trkpt lat="43.9833" lon="3.22498">
        <ele>761.4</ele>
        <time>2021-08-14T13:24:13Z</time>
      </trkpt>
      <trkpt lat="43.98329" lon="3.22501">
        <ele>761.5</ele>
        <time>2021-08-14T13:24:15Z</time>
      </trkpt>
      <trkpt lat="43.9833" lon="3.22501">
        <ele>761.6</ele>
        <time>2021-08-14T13:24:17Z</time>
      </trkpt>
      <trkpt lat="43.9833" lon="3.22501">
        <ele>761.6</ele>
        <time>2021-08-14T13:24:19Z</time>
      </trkpt>
      <trkpt lat="43.9833" lon="3.22503">
        <ele>761.8</ele>
        <time>2021-08-14T13:24:21Z</time>
      </trkpt>
      <trkpt lat="43.9833" lon="3.22504">
        <ele>761.9</ele>
        <time>2021-08-14T13:24:23Z</time>
      </trkpt>
      <trkpt lat="43.98331" lon="3.22506">
        <ele>762.1</ele>
        <time>2021-08-14T13:24:25Z</time>
      </trkpt>
      <trkpt lat="43.98331" lon="3.22508">
        <ele>762.3</ele>
        <time>2021-08-14T13:24:27Z</time>
      </trkpt>
      <trkpt lat="43.98332" lon="3.22509">
        <ele>762.5</ele>
        <time>2021-08-14T13:24:29Z</time>
      </trkpt>
      <trkpt lat="43.98333" lon="3.2251">
        <ele>762.7</ele>
        <time>2021-08-14T13:24:31Z</time>
      </trkpt>
      <trkpt lat="43.98334" lon="3.22512">
        <ele>762.9</ele>
        <time>2021-08-14T13:24:33Z</time>
      </trkpt>
      <trkpt lat="43.98333" lon="3.22511">
        <ele>762.8</ele>
        <time>2021-08-14T13:24:35Z</time>
      </trkpt>
      <trkpt lat="43.98334" lon="3.22511">
        <ele>762.9</ele>
        <time>2021-08-14T13:24:37Z</time>
      </trkpt>
      <trkpt lat="43.98334" lon="3.22512">
        <ele>762.9</ele>
        <time>2021-08-14T13:24:39Z</time>
      </trkpt>
      <trkpt lat="43.98334" lon="3.22512">
        <ele>763</ele>
        <time>2021-08-14T13:24:41Z</time>
      </trkpt>
      <trkpt lat="43.98334" lon="3.22514">
        <ele>763.2</ele>
        <time>2021-08-14T13:24:43Z</time>
      </trkpt>
      <trkpt lat="43.98334" lon="3.22514">
        <ele>763.1</ele>
        <time>2021-08-14T13:24:45Z</time>
      </trkpt>
      <trkpt lat="43.98334" lon="3.22515">
        <ele>763.3</ele>
        <time>2021-08-14T13:24:47Z</time>
      </trkpt>
      <trkpt lat="43.98335" lon="3.22518">
        <ele>763.5</ele>
        <time>2021-08-14T13:24:49Z</time>
      </trkpt>
      <trkpt lat="43.98335" lon="3.22519">
        <ele>763.7</ele>
        <time>2021-08-14T13:24:51Z</time>
      </trkpt>
      <trkpt lat="43.98335" lon="3.22521">
        <ele>763.9</ele>
        <time>2021-08-14T13:24:53Z</time>
      </trkpt>
      <trkpt lat="43.98336" lon="3.22523">
        <ele>764.1</ele>
        <time>2021-08-14T13:24:55Z</time>
      </trkpt>
      <trkpt lat="43.98336" lon="3.22524">
        <ele>764.2</ele>
        <time>2021-08-14T13:24:57Z</time>
      </trkpt>
      <trkpt lat="43.98337" lon="3.22525">
        <ele>764.4</ele>
        <time>2021-08-14T13:24:59Z</time>
      </trkpt>
      <trkpt lat="43.98337" lon="3.22527">
        <ele>764.6</ele>
        <time>2021-08-14T13:25:01Z</time>
      </trkpt>
      <trkpt lat="43.98337" lon="3.22529">
        <ele>764.7</ele>
        <time>2021-08-14T13:25:03Z</time>
      </trkpt>
      <trkpt lat="43.98337" lon="3.2253">
        <ele>764.9</ele>
        <time>2021-08-14T13:25:05Z</time>
      </trkpt>
      <trkpt lat="43.98338" lon="3.22532">
        <ele>765</ele>
        <time>2021-08-14T13:25:07Z</time>
      </trkpt>
      <trkpt lat="43.98338" lon="3.22534">
        <ele>765.3</ele>
        <time>2021-08-14T13:25:09Z</time>
      </trkpt>
      <trkpt lat="43.98338" lon="3.22536">
        <ele>765.5</ele>
        <time>2021-08-14T13:25:11Z</time>
      </trkpt>
      <trkpt lat="43.98339" lon="3.22538">
        <ele>765.8</ele>
        <time>2021-08-14T13:25:13Z</time>
      </trkpt>
      <trkpt lat="43.98339" lon="3.2254">
        <ele>765.9</ele>
        <time>2021-08-14T13:25:15Z</time>
      </trkpt>
      <trkpt lat="43.9834" lon="3.22543">
        <ele>766.2</ele>
        <time>2021-08-14T13:25:17Z</time>
      </trkpt>
      <trkpt lat="43.98341" lon="3.22544">
        <ele>766.5</ele>
        <time>2021-08-14T13:25:19Z</time>
      </trkpt>
      <trkpt lat="43.98341" lon="3.22546">
        <ele>766.7</ele>
        <time>2021-08-14T13:25:21Z</time>
      </trkpt>
      <trkpt lat="43.98341" lon="3.22548">
        <ele>766.9</ele>
        <time>2021-08-14T13:25:23Z</time>
      </trkpt>
      <trkpt lat="43.98342" lon="3.22551">
        <ele>767.2</ele>
        <time>2021-08-14T13:25:25Z</time>
      </trkpt>
      <trkpt lat="43.98342" lon="3.22552">
        <ele>767.3</ele>
        <time>2021-08-14T13:25:27Z</time>
      </trkpt>
      <trkpt lat="43.98342" lon="3.22554">
        <ele>767.5</ele>
        <time>2021-08-14T13:25:29Z</time>
      </trkpt>
      <trkpt lat="43.98342" lon="3.22556">
        <ele>767.7</ele>
        <time>2021-08-14T13:25:31Z</time>
      </trkpt>
      <trkpt lat="43.98343" lon="3.22558">
        <ele>768</ele>
        <time>2021-08-14T13:25:33Z</time>
      </trkpt>
      <trkpt lat="43.98344" lon="3.22561">
        <ele>768.2</ele>
        <time>2021-08-14T13:25:35Z</time>
      </trkpt>
      <trkpt lat="43.98344" lon="3.22563">
        <ele>768.5</ele>
        <time>2021-08-14T13:25:37Z</time>
      </trkpt>
      <trkpt lat="43.98345" lon="3.22565">
        <ele>768.8</ele>
        <time>2021-08-14T13:25:39Z</time>
      </trkpt>
      <trkpt lat="43.98345" lon="3.22568">
        <ele>769.1</ele>
        <time>2021-08-14T13:25:41Z</time>
      </trkpt>
      <trkpt lat="43.98345" lon="3.22567">
        <ele>768.9</ele>
        <time>2021-08-14T13:25:43Z</time>
      </trkpt>
      <trkpt lat="43.98344" lon="3.22567">
        <ele>768.8</ele>
        <time>2021-08-14T13:25:45Z</time>
      </trkpt>
      <trkpt lat="43.98344" lon="3.22567">
        <ele>768.8</ele>
        <time>2021-08-14T13:25:47Z</time>
      </trkpt>
      <trkpt lat="43.98344" lon="3.22567">
        <ele>768.7</ele>
        <time>2021-08-14T13:25:49Z</time>
      </trkpt>
      <trkpt lat="43.98345" lon="3.2257">
        <ele>769.1</ele>
        <time>2021-08-14T13:25:51Z</time>
      </trkpt>
      <trkpt lat="43.98346" lon="3.22572">
        <ele>769.4</ele>
        <time>2021-08-14T13:25:53Z</time>
      </trkpt>
      <trkpt lat="43.98346" lon="3.22574">
        <ele>769.7</ele>
        <time>2021-08-14T13:25:55Z</time>
      </trkpt>
      <trkpt lat="43.98347" lon="3.22576">
        <ele>770</ele>
        <time>2021-08-14T13:25:57Z</time>
      </trkpt>
      <trkpt lat="43.98348" lon="3.22579">
        <ele>770.3</ele>
        <time>2021-08-14T13:25:59Z</time>
      </trkpt>
      <trkpt lat="43.98349" lon="3.22581">
        <ele>770.6</ele>
        <time>2021-08-14T13:26:01Z</time>
      </trkpt>
      <trkpt lat="43.98349" lon="3.22584">
        <ele>770.9</ele>
        <time>2021-08-14T13:26:03Z</time>
      </trkpt>
      <trkpt lat="43.9835" lon="3.22586">
        <ele>771</ele>
        <time>2021-08-14T13:26:05Z</time>
      </trkpt>
      <trkpt lat="43.9835" lon="3.22589">
        <ele>771.2</ele>
        <time>2021-08-14T13:26:07Z</time>
      </trkpt>
      <trkpt lat="43.98351" lon="3.22591">
        <ele>771.2</ele>
        <time>2021-08-14T13:26:09Z</time>
      </trkpt>
      <trkpt lat="43.98351" lon="3.22593">
        <ele>771.4</ele>
        <time>2021-08-14T13:26:11Z</time>
      </trkpt>
      <trkpt lat="43.98352" lon="3.22596">
        <ele>771.5</ele>
        <time>2021-08-14T13:26:13Z</time>
      </trkpt>
      <trkpt lat="43.98352" lon="3.22599">
        <ele>771.6</ele>
        <time>2021-08-14T13:26:15Z</time>
      </trkpt>
      <trkpt lat="43.98352" lon="3.22601">
        <ele>771.7</ele>
        <time>2021-08-14T13:26:17Z</time>
      </trkpt>
      <trkpt lat="43.98353" lon="3.22604">
        <ele>771.8</ele>
        <time>2021-08-14T13:26:19Z</time>
      </trkpt>
      <trkpt lat="43.98353" lon="3.22607">
        <ele>771.9</ele>
        <time>2021-08-14T13:26:21Z</time>
      </trkpt>
      <trkpt lat="43.98354" lon="3.22609">
        <ele>772.1</ele>
        <time>2021-08-14T13:26:23Z</time>
      </trkpt>
      <trkpt lat="43.98355" lon="3.22612">
        <ele>772.3</ele>
        <time>2021-08-14T13:26:25Z</time>
      </trkpt>
      <trkpt lat="43.98356" lon="3.22614">
        <ele>772.5</ele>
        <time>2021-08-14T13:26:27Z</time>
      </trkpt>
      <trkpt lat="43.98357" lon="3.22616">
        <ele>772.6</ele>
        <time>2021-08-14T13:26:29Z</time>
      </trkpt>
      <trkpt lat="43.98357" lon="3.22617">
        <ele>772.6</ele>
        <time>2021-08-14T13:26:31Z</time>
      </trkpt>
      <trkpt lat="43.98357" lon="3.22617">
        <ele>772.6</ele>
        <time>2021-08-14T13:26:33Z</time>
      </trkpt>
      <trkpt lat="43.98357" lon="3.22617">
        <ele>772.7</ele>
        <time>2021-08-14T13:26:35Z</time>
      </trkpt>
      <trkpt lat="43.98357" lon="3.22616">
        <ele>772.7</ele>
        <time>2021-08-14T13:26:37Z</time>
      </trkpt>
      <trkpt lat="43.98359" lon="3.22634">
        <ele>773.1</ele>
        <time>2021-08-14T13:28:27Z</time>
      </trkpt>
      <trkpt lat="43.9836" lon="3.22638">
        <ele>773.3</ele>
        <time>2021-08-14T13:28:29Z</time>
      </trkpt>
      <trkpt lat="43.98362" lon="3.22642">
        <ele>773.5</ele>
        <time>2021-08-14T13:28:31Z</time>
      </trkpt>
      <trkpt lat="43.98363" lon="3.22647">
        <ele>773.8</ele>
        <time>2021-08-14T13:28:33Z</time>
      </trkpt>
      <trkpt lat="43.98365" lon="3.22655">
        <ele>774.2</ele>
        <time>2021-08-14T13:28:35Z</time>
      </trkpt>
      <trkpt lat="43.98369" lon="3.22662">
        <ele>774.7</ele>
        <time>2021-08-14T13:28:37Z</time>
      </trkpt>
      <trkpt lat="43.98371" lon="3.22671">
        <ele>775.1</ele>
        <time>2021-08-14T13:28:39Z</time>
      </trkpt>
      <trkpt lat="43.98374" lon="3.2268">
        <ele>775.6</ele>
        <time>2021-08-14T13:28:41Z</time>
      </trkpt>
      <trkpt lat="43.98377" lon="3.22688">
        <ele>776.1</ele>
        <time>2021-08-14T13:28:43Z</time>
      </trkpt>
      <trkpt lat="43.98379" lon="3.22698">
        <ele>776.4</ele>
        <time>2021-08-14T13:28:45Z</time>
      </trkpt>
      <trkpt lat="43.98381" lon="3.22707">
        <ele>776.7</ele>
        <time>2021-08-14T13:28:47Z</time>
      </trkpt>
      <trkpt lat="43.98383" lon="3.22717">
        <ele>776.9</ele>
        <time>2021-08-14T13:28:49Z</time>
      </trkpt>
      <trkpt lat="43.98383" lon="3.22725">
        <ele>777</ele>
        <time>2021-08-14T13:28:51Z</time>
      </trkpt>
      <trkpt lat="43.98385" lon="3.22734">
        <ele>777.2</ele>
        <time>2021-08-14T13:28:53Z</time>
      </trkpt>
      <trkpt lat="43.98386" lon="3.22741">
        <ele>777.2</ele>
        <time>2021-08-14T13:28:55Z</time>
      </trkpt>
      <trkpt lat="43.98387" lon="3.22746">
        <ele>777.3</ele>
        <time>2021-08-14T13:28:57Z</time>
      </trkpt>
      <trkpt lat="43.98388" lon="3.22752">
        <ele>777.4</ele>
        <time>2021-08-14T13:28:59Z</time>
      </trkpt>
      <trkpt lat="43.98389" lon="3.22758">
        <ele>777.5</ele>
        <time>2021-08-14T13:29:01Z</time>
      </trkpt>
      <trkpt lat="43.9839" lon="3.22763">
        <ele>777.7</ele>
        <time>2021-08-14T13:29:03Z</time>
      </trkpt>
      <trkpt lat="43.98392" lon="3.22768">
        <ele>777.8</ele>
        <time>2021-08-14T13:29:05Z</time>
      </trkpt>
      <trkpt lat="43.98393" lon="3.22775">
        <ele>778</ele>
        <time>2021-08-14T13:29:07Z</time>
      </trkpt>
      <trkpt lat="43.98395" lon="3.22781">
        <ele>778.1</ele>
        <time>2021-08-14T13:29:09Z</time>
      </trkpt>
      <trkpt lat="43.98396" lon="3.22785">
        <ele>778.2</ele>
        <time>2021-08-14T13:29:11Z</time>
      </trkpt>
      <trkpt lat="43.98396" lon="3.2279">
        <ele>778.3</ele>
        <time>2021-08-14T13:29:13Z</time>
      </trkpt>
      <trkpt lat="43.98397" lon="3.22795">
        <ele>778.4</ele>
        <time>2021-08-14T13:29:15Z</time>
      </trkpt>
      <trkpt lat="43.98398" lon="3.22799">
        <ele>778.5</ele>
        <time>2021-08-14T13:29:17Z</time>
      </trkpt>
      <trkpt lat="43.98399" lon="3.22804">
        <ele>778.6</ele>
        <time>2021-08-14T13:29:19Z</time>
      </trkpt>
      <trkpt lat="43.98399" lon="3.22808">
        <ele>778.7</ele>
        <time>2021-08-14T13:29:21Z</time>
      </trkpt>
      <trkpt lat="43.984" lon="3.22812">
        <ele>778.8</ele>
        <time>2021-08-14T13:29:23Z</time>
      </trkpt>
      <trkpt lat="43.98401" lon="3.22816">
        <ele>778.9</ele>
        <time>2021-08-14T13:29:25Z</time>
      </trkpt>
      <trkpt lat="43.98402" lon="3.22821">
        <ele>779</ele>
        <time>2021-08-14T13:29:27Z</time>
      </trkpt>
      <trkpt lat="43.98403" lon="3.22826">
        <ele>779</ele>
        <time>2021-08-14T13:29:29Z</time>
      </trkpt>
      <trkpt lat="43.98404" lon="3.22831">
        <ele>779.1</ele>
        <time>2021-08-14T13:29:31Z</time>
      </trkpt>
      <trkpt lat="43.98404" lon="3.22837">
        <ele>779.2</ele>
        <time>2021-08-14T13:29:33Z</time>
      </trkpt>
      <trkpt lat="43.98405" lon="3.22841">
        <ele>779.3</ele>
        <time>2021-08-14T13:29:35Z</time>
      </trkpt>
      <trkpt lat="43.98406" lon="3.22845">
        <ele>779.3</ele>
        <time>2021-08-14T13:29:37Z</time>
      </trkpt>
      <trkpt lat="43.98408" lon="3.2285">
        <ele>779.4</ele>
        <time>2021-08-14T13:29:39Z</time>
      </trkpt>
      <trkpt lat="43.98409" lon="3.22855">
        <ele>779.5</ele>
        <time>2021-08-14T13:29:41Z</time>
      </trkpt>
      <trkpt lat="43.9841" lon="3.2286">
        <ele>779.6</ele>
        <time>2021-08-14T13:29:43Z</time>
      </trkpt>
      <trkpt lat="43.98411" lon="3.22865">
        <ele>779.7</ele>
        <time>2021-08-14T13:29:45Z</time>
      </trkpt>
      <trkpt lat="43.98413" lon="3.2287">
        <ele>779.8</ele>
        <time>2021-08-14T13:29:47Z</time>
      </trkpt>
      <trkpt lat="43.98413" lon="3.22876">
        <ele>780</ele>
        <time>2021-08-14T13:29:49Z</time>
      </trkpt>
      <trkpt lat="43.98413" lon="3.22881">
        <ele>780.1</ele>
        <time>2021-08-14T13:29:51Z</time>
      </trkpt>
      <trkpt lat="43.98415" lon="3.22885">
        <ele>780.2</ele>
        <time>2021-08-14T13:29:53Z</time>
      </trkpt>
      <trkpt lat="43.98416" lon="3.22888">
        <ele>780.3</ele>
        <time>2021-08-14T13:29:55Z</time>
      </trkpt>
      <trkpt lat="43.98417" lon="3.22893">
        <ele>780.5</ele>
        <time>2021-08-14T13:29:57Z</time>
      </trkpt>
      <trkpt lat="43.98419" lon="3.22899">
        <ele>780.7</ele>
        <time>2021-08-14T13:29:59Z</time>
      </trkpt>
      <trkpt lat="43.98421" lon="3.22905">
        <ele>780.9</ele>
        <time>2021-08-14T13:30:01Z</time>
      </trkpt>
      <trkpt lat="43.98423" lon="3.22912">
        <ele>781.1</ele>
        <time>2021-08-14T13:30:03Z</time>
      </trkpt>
      <trkpt lat="43.98425" lon="3.22919">
        <ele>781.3</ele>
        <time>2021-08-14T13:30:05Z</time>
      </trkpt>
      <trkpt lat="43.98426" lon="3.22926">
        <ele>781.4</ele>
        <time>2021-08-14T13:30:07Z</time>
      </trkpt>
      <trkpt lat="43.98427" lon="3.22933">
        <ele>781.4</ele>
        <time>2021-08-14T13:30:09Z</time>
      </trkpt>
      <trkpt lat="43.98429" lon="3.2294">
        <ele>781.5</ele>
        <time>2021-08-14T13:30:11Z</time>
      </trkpt>
      <trkpt lat="43.9843" lon="3.22947">
        <ele>781.6</ele>
        <time>2021-08-14T13:30:13Z</time>
      </trkpt>
      <trkpt lat="43.9843" lon="3.22953">
        <ele>781.6</ele>
        <time>2021-08-14T13:30:15Z</time>
      </trkpt>
      <trkpt lat="43.98431" lon="3.2296">
        <ele>781.7</ele>
        <time>2021-08-14T13:30:17Z</time>
      </trkpt>
      <trkpt lat="43.98432" lon="3.22967">
        <ele>781.8</ele>
        <time>2021-08-14T13:30:19Z</time>
      </trkpt>
      <trkpt lat="43.98433" lon="3.22973">
        <ele>781.9</ele>
        <time>2021-08-14T13:30:21Z</time>
      </trkpt>
      <trkpt lat="43.98436" lon="3.22978">
        <ele>782</ele>
        <time>2021-08-14T13:30:23Z</time>
      </trkpt>
      <trkpt lat="43.98438" lon="3.22982">
        <ele>782.2</ele>
        <time>2021-08-14T13:30:25Z</time>
      </trkpt>
      <trkpt lat="43.98439" lon="3.22985">
        <ele>782.2</ele>
        <time>2021-08-14T13:30:27Z</time>
      </trkpt>
      <trkpt lat="43.98436" lon="3.22989">
        <ele>782.1</ele>
        <time>2021-08-14T13:30:29Z</time>
      </trkpt>
      <trkpt lat="43.98432" lon="3.22989">
        <ele>781.9</ele>
        <time>2021-08-14T13:30:31Z</time>
      </trkpt>
      <trkpt lat="43.9843" lon="3.22989">
        <ele>781.8</ele>
        <time>2021-08-14T13:30:33Z</time>
      </trkpt>
      <trkpt lat="43.98431" lon="3.22989">
        <ele>781.8</ele>
        <time>2021-08-14T13:30:35Z</time>
      </trkpt>
      <trkpt lat="43.98431" lon="3.22989">
        <ele>781.8</ele>
        <time>2021-08-14T13:30:37Z</time>
      </trkpt>
      <trkpt lat="43.98431" lon="3.22989">
        <ele>781.8</ele>
        <time>2021-08-14T13:30:39Z</time>
      </trkpt>
      <trkpt lat="43.98431" lon="3.2299">
        <ele>781.8</ele>
        <time>2021-08-14T13:30:41Z</time>
      </trkpt>
      <trkpt lat="43.98431" lon="3.2299">
        <ele>781.8</ele>
        <time>2021-08-14T13:30:43Z</time>
      </trkpt>
      <trkpt lat="43.9844" lon="3.23015">
        <ele>782.6</ele>
        <time>2021-08-14T13:31:11Z</time>
      </trkpt>
      <trkpt lat="43.98442" lon="3.23021">
        <ele>782.8</ele>
        <time>2021-08-14T13:31:13Z</time>
      </trkpt>
      <trkpt lat="43.98442" lon="3.23028">
        <ele>782.8</ele>
        <time>2021-08-14T13:31:15Z</time>
      </trkpt>
      <trkpt lat="43.98443" lon="3.23034">
        <ele>783</ele>
        <time>2021-08-14T13:31:17Z</time>
      </trkpt>
      <trkpt lat="43.98443" lon="3.23041">
        <ele>783.1</ele>
        <time>2021-08-14T13:31:19Z</time>
      </trkpt>
      <trkpt lat="43.98444" lon="3.23048">
        <ele>783.2</ele>
        <time>2021-08-14T13:31:21Z</time>
      </trkpt>
      <trkpt lat="43.98443" lon="3.23055">
        <ele>783.3</ele>
        <time>2021-08-14T13:31:23Z</time>
      </trkpt>
      <trkpt lat="43.98444" lon="3.23062">
        <ele>783.4</ele>
        <time>2021-08-14T13:31:25Z</time>
      </trkpt>
      <trkpt lat="43.98444" lon="3.23069">
        <ele>783.5</ele>
        <time>2021-08-14T13:31:27Z</time>
      </trkpt>
      <trkpt lat="43.98445" lon="3.23073">
        <ele>783.6</ele>
        <time>2021-08-14T13:31:29Z</time>
      </trkpt>
      <trkpt lat="43.98445" lon="3.23074">
        <ele>783.6</ele>
        <time>2021-08-14T13:31:31Z</time>
      </trkpt>
      <trkpt lat="43.98445" lon="3.23076">
        <ele>783.6</ele>
        <time>2021-08-14T13:31:33Z</time>
      </trkpt>
      <trkpt lat="43.98444" lon="3.23079">
        <ele>783.6</ele>
        <time>2021-08-14T13:31:35Z</time>
      </trkpt>
      <trkpt lat="43.98444" lon="3.23079">
        <ele>783.6</ele>
        <time>2021-08-14T13:31:37Z</time>
      </trkpt>
      <trkpt lat="43.98443" lon="3.23079">
        <ele>783.6</ele>
        <time>2021-08-14T13:31:39Z</time>
      </trkpt>
      <trkpt lat="43.98449" lon="3.23098">
        <ele>785.2</ele>
        <time>2021-08-14T13:31:59Z</time>
      </trkpt>
      <trkpt lat="43.98447" lon="3.23101">
        <ele>785.3</ele>
        <time>2021-08-14T13:32:01Z</time>
      </trkpt>
      <trkpt lat="43.98446" lon="3.23104">
        <ele>785.6</ele>
        <time>2021-08-14T13:32:03Z</time>
      </trkpt>
      <trkpt lat="43.98445" lon="3.23108">
        <ele>785.9</ele>
        <time>2021-08-14T13:32:05Z</time>
      </trkpt>
      <trkpt lat="43.98443" lon="3.23112">
        <ele>786.1</ele>
        <time>2021-08-14T13:32:07Z</time>
      </trkpt>
      <trkpt lat="43.98442" lon="3.23116">
        <ele>786.4</ele>
        <time>2021-08-14T13:32:09Z</time>
      </trkpt>
      <trkpt lat="43.98441" lon="3.23119">
        <ele>786.7</ele>
        <time>2021-08-14T13:32:11Z</time>
      </trkpt>
      <trkpt lat="43.9844" lon="3.23122">
        <ele>786.9</ele>
        <time>2021-08-14T13:32:13Z</time>
      </trkpt>
      <trkpt lat="43.98437" lon="3.23125">
        <ele>787.1</ele>
        <time>2021-08-14T13:32:15Z</time>
      </trkpt>
      <trkpt lat="43.98436" lon="3.23128">
        <ele>787.3</ele>
        <time>2021-08-14T13:32:17Z</time>
      </trkpt>
      <trkpt lat="43.98434" lon="3.23132">
        <ele>787.6</ele>
        <time>2021-08-14T13:32:19Z</time>
      </trkpt>
      <trkpt lat="43.98432" lon="3.23134">
        <ele>787.8</ele>
        <time>2021-08-14T13:32:21Z</time>
      </trkpt>
      <trkpt lat="43.98431" lon="3.23137">
        <ele>788.1</ele>
        <time>2021-08-14T13:32:23Z</time>
      </trkpt>
      <trkpt lat="43.98429" lon="3.23141">
        <ele>788.4</ele>
        <time>2021-08-14T13:32:25Z</time>
      </trkpt>
      <trkpt lat="43.98427" lon="3.23144">
        <ele>788.8</ele>
        <time>2021-08-14T13:32:27Z</time>
      </trkpt>
      <trkpt lat="43.98426" lon="3.23148">
        <ele>789.1</ele>
        <time>2021-08-14T13:32:29Z</time>
      </trkpt>
      <trkpt lat="43.98424" lon="3.2315">
        <ele>789.3</ele>
        <time>2021-08-14T13:32:31Z</time>
      </trkpt>
      <trkpt lat="43.98422" lon="3.23155">
        <ele>789.8</ele>
        <time>2021-08-14T13:32:33Z</time>
      </trkpt>
      <trkpt lat="43.9842" lon="3.23157">
        <ele>790</ele>
        <time>2021-08-14T13:32:35Z</time>
      </trkpt>
      <trkpt lat="43.98418" lon="3.2316">
        <ele>790.2</ele>
        <time>2021-08-14T13:32:37Z</time>
      </trkpt>
      <trkpt lat="43.98415" lon="3.23162">
        <ele>790.5</ele>
        <time>2021-08-14T13:32:39Z</time>
      </trkpt>
      <trkpt lat="43.98413" lon="3.23164">
        <ele>790.8</ele>
        <time>2021-08-14T13:32:41Z</time>
      </trkpt>
      <trkpt lat="43.98411" lon="3.23167">
        <ele>791.2</ele>
        <time>2021-08-14T13:32:43Z</time>
      </trkpt>
      <trkpt lat="43.98408" lon="3.23169">
        <ele>791.5</ele>
        <time>2021-08-14T13:32:45Z</time>
      </trkpt>
      <trkpt lat="43.98406" lon="3.23173">
        <ele>792</ele>
        <time>2021-08-14T13:32:47Z</time>
      </trkpt>
      <trkpt lat="43.98404" lon="3.23175">
        <ele>792.3</ele>
        <time>2021-08-14T13:32:49Z</time>
      </trkpt>
      <trkpt lat="43.98401" lon="3.23177">
        <ele>792.6</ele>
        <time>2021-08-14T13:32:51Z</time>
      </trkpt>
      <trkpt lat="43.98399" lon="3.23179">
        <ele>793</ele>
        <time>2021-08-14T13:32:53Z</time>
      </trkpt>
      <trkpt lat="43.98397" lon="3.23181">
        <ele>793.3</ele>
        <time>2021-08-14T13:32:55Z</time>
      </trkpt>
      <trkpt lat="43.98394" lon="3.23182">
        <ele>793.5</ele>
        <time>2021-08-14T13:32:57Z</time>
      </trkpt>
      <trkpt lat="43.98393" lon="3.23185">
        <ele>793.9</ele>
        <time>2021-08-14T13:32:59Z</time>
      </trkpt>
      <trkpt lat="43.9839" lon="3.23187">
        <ele>794.2</ele>
        <time>2021-08-14T13:33:01Z</time>
      </trkpt>
      <trkpt lat="43.98386" lon="3.23188">
        <ele>794.5</ele>
        <time>2021-08-14T13:33:03Z</time>
      </trkpt>
      <trkpt lat="43.98384" lon="3.23189">
        <ele>794.7</ele>
        <time>2021-08-14T13:33:05Z</time>
      </trkpt>
      <trkpt lat="43.98381" lon="3.23191">
        <ele>795</ele>
        <time>2021-08-14T13:33:07Z</time>
      </trkpt>
      <trkpt lat="43.98378" lon="3.23192">
        <ele>795.3</ele>
        <time>2021-08-14T13:33:09Z</time>
      </trkpt>
      <trkpt lat="43.98376" lon="3.23194">
        <ele>795.5</ele>
        <time>2021-08-14T13:33:11Z</time>
      </trkpt>
      <trkpt lat="43.98372" lon="3.23195">
        <ele>795.8</ele>
        <time>2021-08-14T13:33:13Z</time>
      </trkpt>
      <trkpt lat="43.9837" lon="3.23196">
        <ele>796.1</ele>
        <time>2021-08-14T13:33:15Z</time>
      </trkpt>
      <trkpt lat="43.98367" lon="3.23197">
        <ele>796.3</ele>
        <time>2021-08-14T13:33:17Z</time>
      </trkpt>
      <trkpt lat="43.98364" lon="3.23199">
        <ele>796.7</ele>
        <time>2021-08-14T13:33:19Z</time>
      </trkpt>
      <trkpt lat="43.98361" lon="3.23201">
        <ele>797</ele>
        <time>2021-08-14T13:33:21Z</time>
      </trkpt>
      <trkpt lat="43.98359" lon="3.23203">
        <ele>797.4</ele>
        <time>2021-08-14T13:33:23Z</time>
      </trkpt>
      <trkpt lat="43.98357" lon="3.23205">
        <ele>797.7</ele>
        <time>2021-08-14T13:33:25Z</time>
      </trkpt>
      <trkpt lat="43.98354" lon="3.23207">
        <ele>798</ele>
        <time>2021-08-14T13:33:27Z</time>
      </trkpt>
      <trkpt lat="43.98352" lon="3.23207">
        <ele>798.2</ele>
        <time>2021-08-14T13:33:29Z</time>
      </trkpt>
      <trkpt lat="43.9835" lon="3.23208">
        <ele>798.4</ele>
        <time>2021-08-14T13:33:31Z</time>
      </trkpt>
      <trkpt lat="43.98347" lon="3.23209">
        <ele>798.5</ele>
        <time>2021-08-14T13:33:33Z</time>
      </trkpt>
      <trkpt lat="43.98345" lon="3.23211">
        <ele>798.9</ele>
        <time>2021-08-14T13:33:35Z</time>
      </trkpt>
      <trkpt lat="43.98343" lon="3.23213">
        <ele>799.3</ele>
        <time>2021-08-14T13:33:37Z</time>
      </trkpt>
      <trkpt lat="43.98341" lon="3.23215">
        <ele>799.6</ele>
        <time>2021-08-14T13:33:39Z</time>
      </trkpt>
      <trkpt lat="43.98337" lon="3.23216">
        <ele>800</ele>
        <time>2021-08-14T13:33:41Z</time>
      </trkpt>
      <trkpt lat="43.98335" lon="3.23219">
        <ele>800.5</ele>
        <time>2021-08-14T13:33:43Z</time>
      </trkpt>
      <trkpt lat="43.98332" lon="3.2322">
        <ele>800.7</ele>
        <time>2021-08-14T13:33:45Z</time>
      </trkpt>
      <trkpt lat="43.9833" lon="3.23222">
        <ele>801</ele>
        <time>2021-08-14T13:33:47Z</time>
      </trkpt>
      <trkpt lat="43.98327" lon="3.23223">
        <ele>801.2</ele>
        <time>2021-08-14T13:33:49Z</time>
      </trkpt>
      <trkpt lat="43.98324" lon="3.23225">
        <ele>801.5</ele>
        <time>2021-08-14T13:33:51Z</time>
      </trkpt>
      <trkpt lat="43.98321" lon="3.23225">
        <ele>801.7</ele>
        <time>2021-08-14T13:33:53Z</time>
      </trkpt>
      <trkpt lat="43.98318" lon="3.23226">
        <ele>801.9</ele>
        <time>2021-08-14T13:33:55Z</time>
      </trkpt>
      <trkpt lat="43.98316" lon="3.23228">
        <ele>802.3</ele>
        <time>2021-08-14T13:33:57Z</time>
      </trkpt>
      <trkpt lat="43.98314" lon="3.2323">
        <ele>802.6</ele>
        <time>2021-08-14T13:33:59Z</time>
      </trkpt>
      <trkpt lat="43.98311" lon="3.23231">
        <ele>802.9</ele>
        <time>2021-08-14T13:34:01Z</time>
      </trkpt>
      <trkpt lat="43.98309" lon="3.23233">
        <ele>803.2</ele>
        <time>2021-08-14T13:34:03Z</time>
      </trkpt>
      <trkpt lat="43.98307" lon="3.23235">
        <ele>803.5</ele>
        <time>2021-08-14T13:34:05Z</time>
      </trkpt>
      <trkpt lat="43.98305" lon="3.23237">
        <ele>803.9</ele>
        <time>2021-08-14T13:34:07Z</time>
      </trkpt>
      <trkpt lat="43.98302" lon="3.23238">
        <ele>804.2</ele>
        <time>2021-08-14T13:34:09Z</time>
      </trkpt>
      <trkpt lat="43.983" lon="3.23239">
        <ele>804.5</ele>
        <time>2021-08-14T13:34:11Z</time>
      </trkpt>
      <trkpt lat="43.98298" lon="3.23241">
        <ele>804.9</ele>
        <time>2021-08-14T13:34:13Z</time>
      </trkpt>
      <trkpt lat="43.98296" lon="3.23243">
        <ele>805.1</ele>
        <time>2021-08-14T13:34:15Z</time>
      </trkpt>
      <trkpt lat="43.98293" lon="3.23245">
        <ele>805.6</ele>
        <time>2021-08-14T13:34:17Z</time>
      </trkpt>
      <trkpt lat="43.98291" lon="3.23246">
        <ele>805.8</ele>
        <time>2021-08-14T13:34:19Z</time>
      </trkpt>
      <trkpt lat="43.98288" lon="3.23246">
        <ele>806</ele>
        <time>2021-08-14T13:34:21Z</time>
      </trkpt>
      <trkpt lat="43.98285" lon="3.23248">
        <ele>806.4</ele>
        <time>2021-08-14T13:34:23Z</time>
      </trkpt>
      <trkpt lat="43.98282" lon="3.2325">
        <ele>806.9</ele>
        <time>2021-08-14T13:34:25Z</time>
      </trkpt>
      <trkpt lat="43.9828" lon="3.23251">
        <ele>807.1</ele>
        <time>2021-08-14T13:34:27Z</time>
      </trkpt>
      <trkpt lat="43.98276" lon="3.23252">
        <ele>807.5</ele>
        <time>2021-08-14T13:34:29Z</time>
      </trkpt>
      <trkpt lat="43.98274" lon="3.23254">
        <ele>807.8</ele>
        <time>2021-08-14T13:34:31Z</time>
      </trkpt>
      <trkpt lat="43.98272" lon="3.23255">
        <ele>808.1</ele>
        <time>2021-08-14T13:34:33Z</time>
      </trkpt>
      <trkpt lat="43.98269" lon="3.23256">
        <ele>808.4</ele>
        <time>2021-08-14T13:34:35Z</time>
      </trkpt>
      <trkpt lat="43.98267" lon="3.23257">
        <ele>808.6</ele>
        <time>2021-08-14T13:34:37Z</time>
      </trkpt>
      <trkpt lat="43.98264" lon="3.23258">
        <ele>808.8</ele>
        <time>2021-08-14T13:34:39Z</time>
      </trkpt>
      <trkpt lat="43.98261" lon="3.2326">
        <ele>809.3</ele>
        <time>2021-08-14T13:34:41Z</time>
      </trkpt>
      <trkpt lat="43.98259" lon="3.23261">
        <ele>809.6</ele>
        <time>2021-08-14T13:34:43Z</time>
      </trkpt>
      <trkpt lat="43.98256" lon="3.23263">
        <ele>810</ele>
        <time>2021-08-14T13:34:45Z</time>
      </trkpt>
      <trkpt lat="43.98252" lon="3.23265">
        <ele>810.4</ele>
        <time>2021-08-14T13:34:47Z</time>
      </trkpt>
      <trkpt lat="43.9825" lon="3.23267">
        <ele>810.8</ele>
        <time>2021-08-14T13:34:49Z</time>
      </trkpt>
      <trkpt lat="43.98247" lon="3.23268">
        <ele>810.3</ele>
        <time>2021-08-14T13:34:51Z</time>
      </trkpt>
      <trkpt lat="43.98245" lon="3.23269">
        <ele>810</ele>
        <time>2021-08-14T13:34:53Z</time>
      </trkpt>
      <trkpt lat="43.98242" lon="3.23271">
        <ele>809.8</ele>
        <time>2021-08-14T13:34:55Z</time>
      </trkpt>
      <trkpt lat="43.9824" lon="3.23274">
        <ele>809.8</ele>
        <time>2021-08-14T13:34:57Z</time>
      </trkpt>
      <trkpt lat="43.98239" lon="3.23276">
        <ele>809.8</ele>
        <time>2021-08-14T13:34:59Z</time>
      </trkpt>
      <trkpt lat="43.98236" lon="3.23277">
        <ele>809.3</ele>
        <time>2021-08-14T13:35:01Z</time>
      </trkpt>
      <trkpt lat="43.98233" lon="3.23279">
        <ele>809</ele>
        <time>2021-08-14T13:35:03Z</time>
      </trkpt>
      <trkpt lat="43.98231" lon="3.2328">
        <ele>808.6</ele>
        <time>2021-08-14T13:35:05Z</time>
      </trkpt>
      <trkpt lat="43.9823" lon="3.23281">
        <ele>808.8</ele>
        <time>2021-08-14T13:35:07Z</time>
      </trkpt>
      <trkpt lat="43.9823" lon="3.23281">
        <ele>808.8</ele>
        <time>2021-08-14T13:35:09Z</time>
      </trkpt>
      <trkpt lat="43.9823" lon="3.23282">
        <ele>808.9</ele>
        <time>2021-08-14T13:35:11Z</time>
      </trkpt>
      <trkpt lat="43.9823" lon="3.23282">
        <ele>808.9</ele>
        <time>2021-08-14T13:35:13Z</time>
      </trkpt>
      <trkpt lat="43.9823" lon="3.23282">
        <ele>808.7</ele>
        <time>2021-08-14T13:35:15Z</time>
      </trkpt>
      <trkpt lat="43.98234" lon="3.23272">
        <ele>808.2</ele>
        <time>2021-08-14T13:43:17Z</time>
      </trkpt>
      <trkpt lat="43.98237" lon="3.23269">
        <ele>808.4</ele>
        <time>2021-08-14T13:43:19Z</time>
      </trkpt>
      <trkpt lat="43.98239" lon="3.23267">
        <ele>808.5</ele>
        <time>2021-08-14T13:43:21Z</time>
      </trkpt>
      <trkpt lat="43.98242" lon="3.23266">
        <ele>808.9</ele>
        <time>2021-08-14T13:43:23Z</time>
      </trkpt>
      <trkpt lat="43.98245" lon="3.23263">
        <ele>809.2</ele>
        <time>2021-08-14T13:43:25Z</time>
      </trkpt>
      <trkpt lat="43.98248" lon="3.23261">
        <ele>809.4</ele>
        <time>2021-08-14T13:43:27Z</time>
      </trkpt>
      <trkpt lat="43.9825" lon="3.23259">
        <ele>809.6</ele>
        <time>2021-08-14T13:43:29Z</time>
      </trkpt>
      <trkpt lat="43.98253" lon="3.23258">
        <ele>809.3</ele>
        <time>2021-08-14T13:43:31Z</time>
      </trkpt>
      <trkpt lat="43.98255" lon="3.23257">
        <ele>809.1</ele>
        <time>2021-08-14T13:43:33Z</time>
      </trkpt>
      <trkpt lat="43.98258" lon="3.23257">
        <ele>808.9</ele>
        <time>2021-08-14T13:43:35Z</time>
      </trkpt>
      <trkpt lat="43.98261" lon="3.23255">
        <ele>808.4</ele>
        <time>2021-08-14T13:43:37Z</time>
      </trkpt>
      <trkpt lat="43.98264" lon="3.23254">
        <ele>808.1</ele>
        <time>2021-08-14T13:43:39Z</time>
      </trkpt>
      <trkpt lat="43.98268" lon="3.23252">
        <ele>807.7</ele>
        <time>2021-08-14T13:43:41Z</time>
      </trkpt>
      <trkpt lat="43.98272" lon="3.2325">
        <ele>807.3</ele>
        <time>2021-08-14T13:43:43Z</time>
      </trkpt>
      <trkpt lat="43.98276" lon="3.23248">
        <ele>806.7</ele>
        <time>2021-08-14T13:43:45Z</time>
      </trkpt>
      <trkpt lat="43.98279" lon="3.23245">
        <ele>806.1</ele>
        <time>2021-08-14T13:43:47Z</time>
      </trkpt>
      <trkpt lat="43.98282" lon="3.23244">
        <ele>805.7</ele>
        <time>2021-08-14T13:43:49Z</time>
      </trkpt>
      <trkpt lat="43.98287" lon="3.23241">
        <ele>805.2</ele>
        <time>2021-08-14T13:43:51Z</time>
      </trkpt>
      <trkpt lat="43.9829" lon="3.2324">
        <ele>804.8</ele>
        <time>2021-08-14T13:43:53Z</time>
      </trkpt>
      <trkpt lat="43.98293" lon="3.23236">
        <ele>804.2</ele>
        <time>2021-08-14T13:43:55Z</time>
      </trkpt>
      <trkpt lat="43.98296" lon="3.23233">
        <ele>803.5</ele>
        <time>2021-08-14T13:43:57Z</time>
      </trkpt>
      <trkpt lat="43.98301" lon="3.2323">
        <ele>802.8</ele>
        <time>2021-08-14T13:43:59Z</time>
      </trkpt>
      <trkpt lat="43.98307" lon="3.23225">
        <ele>802</ele>
        <time>2021-08-14T13:44:01Z</time>
      </trkpt>
      <trkpt lat="43.98312" lon="3.23224">
        <ele>801.7</ele>
        <time>2021-08-14T13:44:03Z</time>
      </trkpt>
      <trkpt lat="43.98316" lon="3.2322">
        <ele>801</ele>
        <time>2021-08-14T13:44:05Z</time>
      </trkpt>
      <trkpt lat="43.9832" lon="3.2322">
        <ele>800.9</ele>
        <time>2021-08-14T13:44:07Z</time>
      </trkpt>
      <trkpt lat="43.98326" lon="3.23215">
        <ele>800.1</ele>
        <time>2021-08-14T13:44:09Z</time>
      </trkpt>
      <trkpt lat="43.98331" lon="3.23212">
        <ele>799.5</ele>
        <time>2021-08-14T13:44:11Z</time>
      </trkpt>
      <trkpt lat="43.98336" lon="3.23208">
        <ele>798.9</ele>
        <time>2021-08-14T13:44:13Z</time>
      </trkpt>
      <trkpt lat="43.98342" lon="3.23206">
        <ele>798.4</ele>
        <time>2021-08-14T13:44:15Z</time>
      </trkpt>
      <trkpt lat="43.98347" lon="3.23204">
        <ele>797.9</ele>
        <time>2021-08-14T13:44:17Z</time>
      </trkpt>
      <trkpt lat="43.98352" lon="3.232">
        <ele>797.2</ele>
        <time>2021-08-14T13:44:19Z</time>
      </trkpt>
      <trkpt lat="43.98359" lon="3.23198">
        <ele>796.7</ele>
        <time>2021-08-14T13:44:21Z</time>
      </trkpt>
      <trkpt lat="43.98362" lon="3.23196">
        <ele>796.3</ele>
        <time>2021-08-14T13:44:23Z</time>
      </trkpt>
      <trkpt lat="43.98366" lon="3.23194">
        <ele>796</ele>
        <time>2021-08-14T13:44:25Z</time>
      </trkpt>
      <trkpt lat="43.98371" lon="3.23193">
        <ele>795.5</ele>
        <time>2021-08-14T13:44:27Z</time>
      </trkpt>
      <trkpt lat="43.98374" lon="3.2319">
        <ele>795.1</ele>
        <time>2021-08-14T13:44:29Z</time>
      </trkpt>
      <trkpt lat="43.98379" lon="3.23188">
        <ele>794.8</ele>
        <time>2021-08-14T13:44:31Z</time>
      </trkpt>
      <trkpt lat="43.98382" lon="3.23186">
        <ele>794.3</ele>
        <time>2021-08-14T13:44:33Z</time>
      </trkpt>
      <trkpt lat="43.98386" lon="3.23181">
        <ele>793.6</ele>
        <time>2021-08-14T13:44:35Z</time>
      </trkpt>
      <trkpt lat="43.9839" lon="3.23179">
        <ele>793.2</ele>
        <time>2021-08-14T13:44:37Z</time>
      </trkpt>
      <trkpt lat="43.98394" lon="3.23174">
        <ele>792.5</ele>
        <time>2021-08-14T13:44:39Z</time>
      </trkpt>
      <trkpt lat="43.98399" lon="3.23172">
        <ele>792.1</ele>
        <time>2021-08-14T13:44:41Z</time>
      </trkpt>
      <trkpt lat="43.98403" lon="3.23167">
        <ele>791.4</ele>
        <time>2021-08-14T13:44:43Z</time>
      </trkpt>
      <trkpt lat="43.98407" lon="3.23162">
        <ele>790.7</ele>
        <time>2021-08-14T13:44:45Z</time>
      </trkpt>
      <trkpt lat="43.9841" lon="3.23157">
        <ele>790.1</ele>
        <time>2021-08-14T13:44:47Z</time>
      </trkpt>
      <trkpt lat="43.98414" lon="3.23153">
        <ele>789.6</ele>
        <time>2021-08-14T13:44:49Z</time>
      </trkpt>
      <trkpt lat="43.98417" lon="3.23148">
        <ele>788.9</ele>
        <time>2021-08-14T13:44:51Z</time>
      </trkpt>
      <trkpt lat="43.98419" lon="3.23143">
        <ele>788.5</ele>
        <time>2021-08-14T13:44:53Z</time>
      </trkpt>
      <trkpt lat="43.98422" lon="3.23139">
        <ele>788.1</ele>
        <time>2021-08-14T13:44:55Z</time>
      </trkpt>
      <trkpt lat="43.98424" lon="3.23134">
        <ele>787.7</ele>
        <time>2021-08-14T13:44:57Z</time>
      </trkpt>
      <trkpt lat="43.98427" lon="3.23131">
        <ele>787.4</ele>
        <time>2021-08-14T13:44:59Z</time>
      </trkpt>
      <trkpt lat="43.98429" lon="3.23128">
        <ele>787.2</ele>
        <time>2021-08-14T13:45:01Z</time>
      </trkpt>
      <trkpt lat="43.98431" lon="3.23126">
        <ele>787</ele>
        <time>2021-08-14T13:45:03Z</time>
      </trkpt>
      <trkpt lat="43.98433" lon="3.23124">
        <ele>786.8</ele>
        <time>2021-08-14T13:45:05Z</time>
      </trkpt>
      <trkpt lat="43.98435" lon="3.23119">
        <ele>786.5</ele>
        <time>2021-08-14T13:45:07Z</time>
      </trkpt>
      <trkpt lat="43.98437" lon="3.23115">
        <ele>786.2</ele>
        <time>2021-08-14T13:45:09Z</time>
      </trkpt>
      <trkpt lat="43.98439" lon="3.23112">
        <ele>785.9</ele>
        <time>2021-08-14T13:45:11Z</time>
      </trkpt>
      <trkpt lat="43.98441" lon="3.23108">
        <ele>785.7</ele>
        <time>2021-08-14T13:45:13Z</time>
      </trkpt>
      <trkpt lat="43.98443" lon="3.23103">
        <ele>785.4</ele>
        <time>2021-08-14T13:45:15Z</time>
      </trkpt>
      <trkpt lat="43.98444" lon="3.23098">
        <ele>784.9</ele>
        <time>2021-08-14T13:45:17Z</time>
      </trkpt>
      <trkpt lat="43.98444" lon="3.23092">
        <ele>784.4</ele>
        <time>2021-08-14T13:45:19Z</time>
      </trkpt>
      <trkpt lat="43.98443" lon="3.23088">
        <ele>784</ele>
        <time>2021-08-14T13:45:21Z</time>
      </trkpt>
      <trkpt lat="43.98441" lon="3.23086">
        <ele>783.7</ele>
        <time>2021-08-14T13:45:23Z</time>
      </trkpt>
      <trkpt lat="43.98438" lon="3.23085">
        <ele>783.4</ele>
        <time>2021-08-14T13:45:25Z</time>
      </trkpt>
      <trkpt lat="43.98436" lon="3.23086">
        <ele>783.4</ele>
        <time>2021-08-14T13:45:27Z</time>
      </trkpt>
      <trkpt lat="43.98434" lon="3.23086">
        <ele>783.2</ele>
        <time>2021-08-14T13:45:29Z</time>
      </trkpt>
      <trkpt lat="43.98431" lon="3.23084">
        <ele>782.9</ele>
        <time>2021-08-14T13:45:31Z</time>
      </trkpt>
      <trkpt lat="43.98427" lon="3.23081">
        <ele>782.6</ele>
        <time>2021-08-14T13:45:33Z</time>
      </trkpt>
      <trkpt lat="43.98423" lon="3.23078">
        <ele>782.3</ele>
        <time>2021-08-14T13:45:35Z</time>
      </trkpt>
      <trkpt lat="43.98419" lon="3.23078">
        <ele>782.1</ele>
        <time>2021-08-14T13:45:37Z</time>
      </trkpt>
      <trkpt lat="43.98415" lon="3.23075">
        <ele>781.9</ele>
        <time>2021-08-14T13:45:39Z</time>
      </trkpt>
      <trkpt lat="43.9841" lon="3.23073">
        <ele>781.7</ele>
        <time>2021-08-14T13:45:41Z</time>
      </trkpt>
      <trkpt lat="43.98405" lon="3.23073">
        <ele>781.5</ele>
        <time>2021-08-14T13:45:43Z</time>
      </trkpt>
      <trkpt lat="43.984" lon="3.23071">
        <ele>781.3</ele>
        <time>2021-08-14T13:45:45Z</time>
      </trkpt>
      <trkpt lat="43.98394" lon="3.23069">
        <ele>781.1</ele>
        <time>2021-08-14T13:45:47Z</time>
      </trkpt>
      <trkpt lat="43.98389" lon="3.23068">
        <ele>780.9</ele>
        <time>2021-08-14T13:45:49Z</time>
      </trkpt>
      <trkpt lat="43.98384" lon="3.23069">
        <ele>780.8</ele>
        <time>2021-08-14T13:45:51Z</time>
      </trkpt>
      <trkpt lat="43.98379" lon="3.23068">
        <ele>780.6</ele>
        <time>2021-08-14T13:45:53Z</time>
      </trkpt>
      <trkpt lat="43.98375" lon="3.2307">
        <ele>780.5</ele>
        <time>2021-08-14T13:45:55Z</time>
      </trkpt>
      <trkpt lat="43.98371" lon="3.23071">
        <ele>780.4</ele>
        <time>2021-08-14T13:45:57Z</time>
      </trkpt>
      <trkpt lat="43.98368" lon="3.23071">
        <ele>780.3</ele>
        <time>2021-08-14T13:45:59Z</time>
      </trkpt>
      <trkpt lat="43.98364" lon="3.23072">
        <ele>780.2</ele>
        <time>2021-08-14T13:46:01Z</time>
      </trkpt>
      <trkpt lat="43.9836" lon="3.23073">
        <ele>780.2</ele>
        <time>2021-08-14T13:46:03Z</time>
      </trkpt>
      <trkpt lat="43.98357" lon="3.23075">
        <ele>780.2</ele>
        <time>2021-08-14T13:46:05Z</time>
      </trkpt>
      <trkpt lat="43.98353" lon="3.23076">
        <ele>780.1</ele>
        <time>2021-08-14T13:46:07Z</time>
      </trkpt>
      <trkpt lat="43.98351" lon="3.23077">
        <ele>780.1</ele>
        <time>2021-08-14T13:46:09Z</time>
      </trkpt>
      <trkpt lat="43.98346" lon="3.23078">
        <ele>780</ele>
        <time>2021-08-14T13:46:11Z</time>
      </trkpt>
      <trkpt lat="43.9834" lon="3.23077">
        <ele>779.8</ele>
        <time>2021-08-14T13:46:13Z</time>
      </trkpt>
      <trkpt lat="43.98336" lon="3.23076">
        <ele>779.6</ele>
        <time>2021-08-14T13:46:15Z</time>
      </trkpt>
      <trkpt lat="43.98331" lon="3.23075">
        <ele>779.3</ele>
        <time>2021-08-14T13:46:17Z</time>
      </trkpt>
      <trkpt lat="43.98325" lon="3.23074">
        <ele>779</ele>
        <time>2021-08-14T13:46:19Z</time>
      </trkpt>
      <trkpt lat="43.98321" lon="3.23072">
        <ele>778.6</ele>
        <time>2021-08-14T13:46:21Z</time>
      </trkpt>
      <trkpt lat="43.98316" lon="3.2307">
        <ele>778.2</ele>
        <time>2021-08-14T13:46:23Z</time>
      </trkpt>
      <trkpt lat="43.9831" lon="3.23069">
        <ele>777.9</ele>
        <time>2021-08-14T13:46:25Z</time>
      </trkpt>
      <trkpt lat="43.98306" lon="3.23067">
        <ele>777.6</ele>
        <time>2021-08-14T13:46:27Z</time>
      </trkpt>
      <trkpt lat="43.98301" lon="3.23066">
        <ele>777.3</ele>
        <time>2021-08-14T13:46:29Z</time>
      </trkpt>
      <trkpt lat="43.98296" lon="3.23066">
        <ele>777</ele>
        <time>2021-08-14T13:46:31Z</time>
      </trkpt>
      <trkpt lat="43.98292" lon="3.23066">
        <ele>776.8</ele>
        <time>2021-08-14T13:46:33Z</time>
      </trkpt>
      <trkpt lat="43.98287" lon="3.23065">
        <ele>776.5</ele>
        <time>2021-08-14T13:46:35Z</time>
      </trkpt>
      <trkpt lat="43.98283" lon="3.23067">
        <ele>776.3</ele>
        <time>2021-08-14T13:46:37Z</time>
      </trkpt>
      <trkpt lat="43.98279" lon="3.23066">
        <ele>776.1</ele>
        <time>2021-08-14T13:46:39Z</time>
      </trkpt>
      <trkpt lat="43.98275" lon="3.23064">
        <ele>775.8</ele>
        <time>2021-08-14T13:46:41Z</time>
      </trkpt>
      <trkpt lat="43.98271" lon="3.23064">
        <ele>775.6</ele>
        <time>2021-08-14T13:46:43Z</time>
      </trkpt>
      <trkpt lat="43.98267" lon="3.23064">
        <ele>775.4</ele>
        <time>2021-08-14T13:46:45Z</time>
      </trkpt>
      <trkpt lat="43.98263" lon="3.23064">
        <ele>775.2</ele>
        <time>2021-08-14T13:46:47Z</time>
      </trkpt>
      <trkpt lat="43.98258" lon="3.23064">
        <ele>775</ele>
        <time>2021-08-14T13:46:49Z</time>
      </trkpt>
      <trkpt lat="43.98249" lon="3.23062">
        <ele>774.4</ele>
        <time>2021-08-14T13:46:51Z</time>
      </trkpt>
      <trkpt lat="43.98244" lon="3.23064">
        <ele>773.8</ele>
        <time>2021-08-14T13:46:53Z</time>
      </trkpt>
      <trkpt lat="43.98238" lon="3.23065">
        <ele>773</ele>
        <time>2021-08-14T13:46:55Z</time>
      </trkpt>
      <trkpt lat="43.98231" lon="3.23064">
        <ele>772.1</ele>
        <time>2021-08-14T13:46:57Z</time>
      </trkpt>
      <trkpt lat="43.98226" lon="3.23063">
        <ele>771.3</ele>
        <time>2021-08-14T13:46:59Z</time>
      </trkpt>
      <trkpt lat="43.98219" lon="3.23062">
        <ele>770.4</ele>
        <time>2021-08-14T13:47:01Z</time>
      </trkpt>
      <trkpt lat="43.98215" lon="3.23061">
        <ele>769.8</ele>
        <time>2021-08-14T13:47:03Z</time>
      </trkpt>
      <trkpt lat="43.98209" lon="3.23062">
        <ele>769.1</ele>
        <time>2021-08-14T13:47:05Z</time>
      </trkpt>
      <trkpt lat="43.98202" lon="3.23061">
        <ele>768.1</ele>
        <time>2021-08-14T13:47:07Z</time>
      </trkpt>
      <trkpt lat="43.98192" lon="3.23059">
        <ele>766.8</ele>
        <time>2021-08-14T13:47:09Z</time>
      </trkpt>
      <trkpt lat="43.98185" lon="3.23057">
        <ele>765.8</ele>
        <time>2021-08-14T13:47:11Z</time>
      </trkpt>
      <trkpt lat="43.98179" lon="3.23055">
        <ele>764.9</ele>
        <time>2021-08-14T13:47:13Z</time>
      </trkpt>
      <trkpt lat="43.98172" lon="3.23057">
        <ele>764.1</ele>
        <time>2021-08-14T13:47:15Z</time>
      </trkpt>
      <trkpt lat="43.98163" lon="3.23057">
        <ele>762.8</ele>
        <time>2021-08-14T13:47:17Z</time>
      </trkpt>
      <trkpt lat="43.98154" lon="3.23056">
        <ele>761.3</ele>
        <time>2021-08-14T13:47:19Z</time>
      </trkpt>
      <trkpt lat="43.98144" lon="3.23061">
        <ele>759.8</ele>
        <time>2021-08-14T13:47:21Z</time>
      </trkpt>
      <trkpt lat="43.98136" lon="3.23064">
        <ele>758.4</ele>
        <time>2021-08-14T13:47:23Z</time>
      </trkpt>
      <trkpt lat="43.98128" lon="3.23062">
        <ele>757.1</ele>
        <time>2021-08-14T13:47:25Z</time>
      </trkpt>
      <trkpt lat="43.98118" lon="3.23065">
        <ele>755.5</ele>
        <time>2021-08-14T13:47:27Z</time>
      </trkpt>
      <trkpt lat="43.9811" lon="3.23066">
        <ele>754.2</ele>
        <time>2021-08-14T13:47:29Z</time>
      </trkpt>
      <trkpt lat="43.98103" lon="3.23064">
        <ele>753</ele>
        <time>2021-08-14T13:47:31Z</time>
      </trkpt>
      <trkpt lat="43.98093" lon="3.2307">
        <ele>751.4</ele>
        <time>2021-08-14T13:47:33Z</time>
      </trkpt>
      <trkpt lat="43.98085" lon="3.23072">
        <ele>750.1</ele>
        <time>2021-08-14T13:47:35Z</time>
      </trkpt>
      <trkpt lat="43.98076" lon="3.23072">
        <ele>748.8</ele>
        <time>2021-08-14T13:47:37Z</time>
      </trkpt>
      <trkpt lat="43.98068" lon="3.23076">
        <ele>747.8</ele>
        <time>2021-08-14T13:47:39Z</time>
      </trkpt>
      <trkpt lat="43.98059" lon="3.23079">
        <ele>746.8</ele>
        <time>2021-08-14T13:47:41Z</time>
      </trkpt>
      <trkpt lat="43.98052" lon="3.23082">
        <ele>745.8</ele>
        <time>2021-08-14T13:47:43Z</time>
      </trkpt>
      <trkpt lat="43.98046" lon="3.23085">
        <ele>745.2</ele>
        <time>2021-08-14T13:47:45Z</time>
      </trkpt>
      <trkpt lat="43.98038" lon="3.23085">
        <ele>744.2</ele>
        <time>2021-08-14T13:47:47Z</time>
      </trkpt>
      <trkpt lat="43.98032" lon="3.23089">
        <ele>743.9</ele>
        <time>2021-08-14T13:47:49Z</time>
      </trkpt>
      <trkpt lat="43.98027" lon="3.23091">
        <ele>743.3</ele>
        <time>2021-08-14T13:47:51Z</time>
      </trkpt>
      <trkpt lat="43.98021" lon="3.23094">
        <ele>742.8</ele>
        <time>2021-08-14T13:47:53Z</time>
      </trkpt>
      <trkpt lat="43.98015" lon="3.23098">
        <ele>742.3</ele>
        <time>2021-08-14T13:47:55Z</time>
      </trkpt>
      <trkpt lat="43.98011" lon="3.23102">
        <ele>741.9</ele>
        <time>2021-08-14T13:47:57Z</time>
      </trkpt>
      <trkpt lat="43.98005" lon="3.23104">
        <ele>741.2</ele>
        <time>2021-08-14T13:47:59Z</time>
      </trkpt>
      <trkpt lat="43.97998" lon="3.23106">
        <ele>740.4</ele>
        <time>2021-08-14T13:48:01Z</time>
      </trkpt>
      <trkpt lat="43.97992" lon="3.23108">
        <ele>740</ele>
        <time>2021-08-14T13:48:03Z</time>
      </trkpt>
      <trkpt lat="43.97986" lon="3.2311">
        <ele>739.6</ele>
        <time>2021-08-14T13:48:05Z</time>
      </trkpt>
      <trkpt lat="43.97982" lon="3.23111">
        <ele>739.2</ele>
        <time>2021-08-14T13:48:07Z</time>
      </trkpt>
      <trkpt lat="43.97976" lon="3.23113">
        <ele>738.6</ele>
        <time>2021-08-14T13:48:09Z</time>
      </trkpt>
      <trkpt lat="43.9797" lon="3.23116">
        <ele>738.2</ele>
        <time>2021-08-14T13:48:11Z</time>
      </trkpt>
      <trkpt lat="43.97965" lon="3.2312">
        <ele>737.8</ele>
        <time>2021-08-14T13:48:13Z</time>
      </trkpt>
      <trkpt lat="43.9796" lon="3.23121">
        <ele>737.3</ele>
        <time>2021-08-14T13:48:15Z</time>
      </trkpt>
      <trkpt lat="43.97954" lon="3.2312">
        <ele>736.7</ele>
        <time>2021-08-14T13:48:17Z</time>
      </trkpt>
      <trkpt lat="43.9795" lon="3.23112">
        <ele>736</ele>
        <time>2021-08-14T13:48:19Z</time>
      </trkpt>
      <trkpt lat="43.97948" lon="3.23104">
        <ele>735.7</ele>
        <time>2021-08-14T13:48:21Z</time>
      </trkpt>
      <trkpt lat="43.97948" lon="3.23102">
        <ele>735.6</ele>
        <time>2021-08-14T13:48:23Z</time>
      </trkpt>
      <trkpt lat="43.97948" lon="3.23103">
        <ele>735.6</ele>
        <time>2021-08-14T13:48:25Z</time>
      </trkpt>
      <trkpt lat="43.97948" lon="3.23103">
        <ele>735.6</ele>
        <time>2021-08-14T13:48:27Z</time>
      </trkpt>
      <trkpt lat="43.97948" lon="3.23103">
        <ele>735.6</ele>
        <time>2021-08-14T13:48:29Z</time>
      </trkpt>
      <trkpt lat="43.97947" lon="3.23103">
        <ele>735.6</ele>
        <time>2021-08-14T13:48:31Z</time>
      </trkpt>
      <trkpt lat="43.9794" lon="3.2308">
        <ele>734.7</ele>
        <time>2021-08-14T13:49:05Z</time>
      </trkpt>
      <trkpt lat="43.97938" lon="3.23073">
        <ele>734.6</ele>
        <time>2021-08-14T13:49:07Z</time>
      </trkpt>
      <trkpt lat="43.97936" lon="3.23066">
        <ele>734.5</ele>
        <time>2021-08-14T13:49:09Z</time>
      </trkpt>
      <trkpt lat="43.97931" lon="3.23064">
        <ele>734.2</ele>
        <time>2021-08-14T13:49:11Z</time>
      </trkpt>
      <trkpt lat="43.97925" lon="3.23068">
        <ele>733.8</ele>
        <time>2021-08-14T13:49:13Z</time>
      </trkpt>
      <trkpt lat="43.97918" lon="3.23071">
        <ele>733.2</ele>
        <time>2021-08-14T13:49:15Z</time>
      </trkpt>
      <trkpt lat="43.97909" lon="3.23073">
        <ele>732.9</ele>
        <time>2021-08-14T13:49:17Z</time>
      </trkpt>
      <trkpt lat="43.97899" lon="3.23075">
        <ele>732.7</ele>
        <time>2021-08-14T13:49:19Z</time>
      </trkpt>
      <trkpt lat="43.9789" lon="3.23078">
        <ele>732.4</ele>
        <time>2021-08-14T13:49:21Z</time>
      </trkpt>
      <trkpt lat="43.9788" lon="3.23083">
        <ele>732.1</ele>
        <time>2021-08-14T13:49:23Z</time>
      </trkpt>
      <trkpt lat="43.9787" lon="3.23088">
        <ele>731.8</ele>
        <time>2021-08-14T13:49:25Z</time>
      </trkpt>
      <trkpt lat="43.9786" lon="3.23093">
        <ele>731.5</ele>
        <time>2021-08-14T13:49:27Z</time>
      </trkpt>
      <trkpt lat="43.97849" lon="3.23095">
        <ele>731.2</ele>
        <time>2021-08-14T13:49:29Z</time>
      </trkpt>
      <trkpt lat="43.9784" lon="3.23099">
        <ele>731</ele>
        <time>2021-08-14T13:49:31Z</time>
      </trkpt>
      <trkpt lat="43.97831" lon="3.23104">
        <ele>730.6</ele>
        <time>2021-08-14T13:49:33Z</time>
      </trkpt>
      <trkpt lat="43.9782" lon="3.23107">
        <ele>730</ele>
        <time>2021-08-14T13:49:35Z</time>
      </trkpt>
      <trkpt lat="43.97809" lon="3.23107">
        <ele>729.3</ele>
        <time>2021-08-14T13:49:37Z</time>
      </trkpt>
      <trkpt lat="43.97798" lon="3.23107">
        <ele>728.7</ele>
        <time>2021-08-14T13:49:39Z</time>
      </trkpt>
      <trkpt lat="43.97788" lon="3.23109">
        <ele>728.1</ele>
        <time>2021-08-14T13:49:41Z</time>
      </trkpt>
      <trkpt lat="43.97776" lon="3.23112">
        <ele>727.5</ele>
        <time>2021-08-14T13:49:43Z</time>
      </trkpt>
      <trkpt lat="43.97764" lon="3.23119">
        <ele>726.8</ele>
        <time>2021-08-14T13:49:45Z</time>
      </trkpt>
      <trkpt lat="43.97754" lon="3.23125">
        <ele>726.2</ele>
        <time>2021-08-14T13:49:47Z</time>
      </trkpt>
      <trkpt lat="43.97742" lon="3.23123">
        <ele>725.2</ele>
        <time>2021-08-14T13:49:49Z</time>
      </trkpt>
      <trkpt lat="43.97733" lon="3.23122">
        <ele>724.3</ele>
        <time>2021-08-14T13:49:51Z</time>
      </trkpt>
      <trkpt lat="43.97726" lon="3.23121">
        <ele>723.6</ele>
        <time>2021-08-14T13:49:53Z</time>
      </trkpt>
      <trkpt lat="43.9772" lon="3.23119">
        <ele>722.9</ele>
        <time>2021-08-14T13:49:55Z</time>
      </trkpt>
      <trkpt lat="43.97716" lon="3.23119">
        <ele>722.5</ele>
        <time>2021-08-14T13:49:57Z</time>
      </trkpt>
      <trkpt lat="43.97712" lon="3.23119">
        <ele>722.1</ele>
        <time>2021-08-14T13:49:59Z</time>
      </trkpt>
      <trkpt lat="43.9771" lon="3.23121">
        <ele>721.9</ele>
        <time>2021-08-14T13:50:01Z</time>
      </trkpt>
      <trkpt lat="43.9771" lon="3.23123">
        <ele>721.9</ele>
        <time>2021-08-14T13:50:03Z</time>
      </trkpt>
      <trkpt lat="43.9771" lon="3.23123">
        <ele>721.9</ele>
        <time>2021-08-14T13:50:05Z</time>
      </trkpt>
      <trkpt lat="43.9771" lon="3.23122">
        <ele>721.9</ele>
        <time>2021-08-14T13:50:07Z</time>
      </trkpt>
      <trkpt lat="43.97709" lon="3.23122">
        <ele>721.9</ele>
        <time>2021-08-14T13:50:09Z</time>
      </trkpt>
      <trkpt lat="43.97709" lon="3.23122">
        <ele>721.8</ele>
        <time>2021-08-14T13:50:11Z</time>
      </trkpt>
      <trkpt lat="43.97712" lon="3.23135">
        <ele>722.2</ele>
        <time>2021-08-14T13:50:33Z</time>
      </trkpt>
      <trkpt lat="43.97713" lon="3.23141">
        <ele>722.3</ele>
        <time>2021-08-14T13:50:35Z</time>
      </trkpt>
      <trkpt lat="43.97715" lon="3.23148">
        <ele>722.6</ele>
        <time>2021-08-14T13:50:37Z</time>
      </trkpt>
      <trkpt lat="43.97717" lon="3.23156">
        <ele>722.8</ele>
        <time>2021-08-14T13:50:39Z</time>
      </trkpt>
      <trkpt lat="43.97719" lon="3.23163">
        <ele>723</ele>
        <time>2021-08-14T13:50:41Z</time>
      </trkpt>
      <trkpt lat="43.97721" lon="3.23171">
        <ele>723.1</ele>
        <time>2021-08-14T13:50:43Z</time>
      </trkpt>
      <trkpt lat="43.97723" lon="3.23178">
        <ele>723.1</ele>
        <time>2021-08-14T13:50:45Z</time>
      </trkpt>
      <trkpt lat="43.97724" lon="3.23188">
        <ele>722.9</ele>
        <time>2021-08-14T13:50:47Z</time>
      </trkpt>
      <trkpt lat="43.97727" lon="3.23196">
        <ele>722.9</ele>
        <time>2021-08-14T13:50:49Z</time>
      </trkpt>
      <trkpt lat="43.97729" lon="3.23204">
        <ele>722.8</ele>
        <time>2021-08-14T13:50:51Z</time>
      </trkpt>
      <trkpt lat="43.97732" lon="3.23214">
        <ele>722.8</ele>
        <time>2021-08-14T13:50:53Z</time>
      </trkpt>
      <trkpt lat="43.97734" lon="3.23222">
        <ele>722.7</ele>
        <time>2021-08-14T13:50:55Z</time>
      </trkpt>
      <trkpt lat="43.97736" lon="3.23231">
        <ele>722.6</ele>
        <time>2021-08-14T13:50:57Z</time>
      </trkpt>
      <trkpt lat="43.97738" lon="3.2324">
        <ele>722.5</ele>
        <time>2021-08-14T13:50:59Z</time>
      </trkpt>
      <trkpt lat="43.97741" lon="3.23249">
        <ele>722.4</ele>
        <time>2021-08-14T13:51:01Z</time>
      </trkpt>
      <trkpt lat="43.97743" lon="3.23259">
        <ele>722.5</ele>
        <time>2021-08-14T13:51:03Z</time>
      </trkpt>
      <trkpt lat="43.97744" lon="3.23269">
        <ele>722.6</ele>
        <time>2021-08-14T13:51:05Z</time>
      </trkpt>
      <trkpt lat="43.97747" lon="3.23279">
        <ele>722.8</ele>
        <time>2021-08-14T13:51:07Z</time>
      </trkpt>
      <trkpt lat="43.97749" lon="3.2329">
        <ele>722.9</ele>
        <time>2021-08-14T13:51:09Z</time>
      </trkpt>
      <trkpt lat="43.97751" lon="3.233">
        <ele>723.1</ele>
        <time>2021-08-14T13:51:11Z</time>
      </trkpt>
      <trkpt lat="43.97753" lon="3.23312">
        <ele>723.1</ele>
        <time>2021-08-14T13:51:13Z</time>
      </trkpt>
      <trkpt lat="43.97755" lon="3.23323">
        <ele>723.2</ele>
        <time>2021-08-14T13:51:15Z</time>
      </trkpt>
      <trkpt lat="43.97758" lon="3.23335">
        <ele>723.2</ele>
        <time>2021-08-14T13:51:17Z</time>
      </trkpt>
      <trkpt lat="43.9776" lon="3.23347">
        <ele>722.8</ele>
        <time>2021-08-14T13:51:19Z</time>
      </trkpt>
      <trkpt lat="43.97763" lon="3.23359">
        <ele>722.4</ele>
        <time>2021-08-14T13:51:21Z</time>
      </trkpt>
      <trkpt lat="43.97767" lon="3.23373">
        <ele>721.9</ele>
        <time>2021-08-14T13:51:23Z</time>
      </trkpt>
      <trkpt lat="43.97769" lon="3.23386">
        <ele>721.3</ele>
        <time>2021-08-14T13:51:25Z</time>
      </trkpt>
      <trkpt lat="43.97772" lon="3.23401">
        <ele>720.7</ele>
        <time>2021-08-14T13:51:27Z</time>
      </trkpt>
      <trkpt lat="43.97775" lon="3.23414">
        <ele>720.1</ele>
        <time>2021-08-14T13:51:29Z</time>
      </trkpt>
      <trkpt lat="43.97779" lon="3.23428">
        <ele>719.6</ele>
        <time>2021-08-14T13:51:31Z</time>
      </trkpt>
      <trkpt lat="43.97782" lon="3.23442">
        <ele>719.1</ele>
        <time>2021-08-14T13:51:33Z</time>
      </trkpt>
      <trkpt lat="43.97785" lon="3.23456">
        <ele>718.6</ele>
        <time>2021-08-14T13:51:35Z</time>
      </trkpt>
      <trkpt lat="43.97787" lon="3.23471">
        <ele>718.2</ele>
        <time>2021-08-14T13:51:37Z</time>
      </trkpt>
      <trkpt lat="43.9779" lon="3.23485">
        <ele>717.8</ele>
        <time>2021-08-14T13:51:39Z</time>
      </trkpt>
      <trkpt lat="43.97792" lon="3.23499">
        <ele>717.6</ele>
        <time>2021-08-14T13:51:41Z</time>
      </trkpt>
      <trkpt lat="43.97794" lon="3.23512">
        <ele>717.7</ele>
        <time>2021-08-14T13:51:43Z</time>
      </trkpt>
      <trkpt lat="43.97797" lon="3.23525">
        <ele>717.8</ele>
        <time>2021-08-14T13:51:45Z</time>
      </trkpt>
      <trkpt lat="43.978" lon="3.23537">
        <ele>718</ele>
        <time>2021-08-14T13:51:47Z</time>
      </trkpt>
      <trkpt lat="43.97803" lon="3.23548">
        <ele>718.2</ele>
        <time>2021-08-14T13:51:49Z</time>
      </trkpt>
      <trkpt lat="43.97805" lon="3.23559">
        <ele>718.3</ele>
        <time>2021-08-14T13:51:51Z</time>
      </trkpt>
      <trkpt lat="43.97807" lon="3.23567">
        <ele>718.4</ele>
        <time>2021-08-14T13:51:53Z</time>
      </trkpt>
      <trkpt lat="43.97807" lon="3.23576">
        <ele>718.4</ele>
        <time>2021-08-14T13:51:55Z</time>
      </trkpt>
      <trkpt lat="43.97807" lon="3.23583">
        <ele>718.4</ele>
        <time>2021-08-14T13:51:57Z</time>
      </trkpt>
      <trkpt lat="43.97807" lon="3.23588">
        <ele>718.4</ele>
        <time>2021-08-14T13:51:59Z</time>
      </trkpt>
      <trkpt lat="43.97805" lon="3.23591">
        <ele>718.3</ele>
        <time>2021-08-14T13:52:01Z</time>
      </trkpt>
      <trkpt lat="43.97801" lon="3.23596">
        <ele>718.2</ele>
        <time>2021-08-14T13:52:03Z</time>
      </trkpt>
      <trkpt lat="43.97797" lon="3.236">
        <ele>717.9</ele>
        <time>2021-08-14T13:52:05Z</time>
      </trkpt>
      <trkpt lat="43.97796" lon="3.236">
        <ele>717.9</ele>
        <time>2021-08-14T13:52:07Z</time>
      </trkpt>
      <trkpt lat="43.97797" lon="3.236">
        <ele>717.9</ele>
        <time>2021-08-14T13:52:09Z</time>
      </trkpt>
      <trkpt lat="43.97797" lon="3.236">
        <ele>717.9</ele>
        <time>2021-08-14T13:52:11Z</time>
      </trkpt>
      <trkpt lat="43.97796" lon="3.23601">
        <ele>717.9</ele>
        <time>2021-08-14T13:52:13Z</time>
      </trkpt>
      <trkpt lat="43.97797" lon="3.23601">
        <ele>717.9</ele>
        <time>2021-08-14T13:52:15Z</time>
      </trkpt>
      <trkpt lat="43.97795" lon="3.23602">
        <ele>717.8</ele>
        <time>2021-08-14T13:53:11Z</time>
      </trkpt>
      <trkpt lat="43.97795" lon="3.23603">
        <ele>717.8</ele>
        <time>2021-08-14T13:53:13Z</time>
      </trkpt>
      <trkpt lat="43.97792" lon="3.23605">
        <ele>717.7</ele>
        <time>2021-08-14T13:53:15Z</time>
      </trkpt>
      <trkpt lat="43.97788" lon="3.23608">
        <ele>717.4</ele>
        <time>2021-08-14T13:53:17Z</time>
      </trkpt>
      <trkpt lat="43.97783" lon="3.2361">
        <ele>717.1</ele>
        <time>2021-08-14T13:53:19Z</time>
      </trkpt>
      <trkpt lat="43.97777" lon="3.23612">
        <ele>716.7</ele>
        <time>2021-08-14T13:53:21Z</time>
      </trkpt>
      <trkpt lat="43.97771" lon="3.23615">
        <ele>716.4</ele>
        <time>2021-08-14T13:53:23Z</time>
      </trkpt>
      <trkpt lat="43.97766" lon="3.23619">
        <ele>716</ele>
        <time>2021-08-14T13:53:25Z</time>
      </trkpt>
      <trkpt lat="43.97761" lon="3.23621">
        <ele>715.7</ele>
        <time>2021-08-14T13:53:27Z</time>
      </trkpt>
      <trkpt lat="43.97756" lon="3.23623">
        <ele>715.4</ele>
        <time>2021-08-14T13:53:29Z</time>
      </trkpt>
      <trkpt lat="43.97754" lon="3.23623">
        <ele>715.3</ele>
        <time>2021-08-14T13:53:31Z</time>
      </trkpt>
      <trkpt lat="43.97755" lon="3.23623">
        <ele>715.3</ele>
        <time>2021-08-14T13:53:33Z</time>
      </trkpt>
      <trkpt lat="43.97754" lon="3.23623">
        <ele>715.3</ele>
        <time>2021-08-14T13:53:35Z</time>
      </trkpt>
      <trkpt lat="43.97754" lon="3.23623">
        <ele>715.3</ele>
        <time>2021-08-14T13:53:37Z</time>
      </trkpt>
      <trkpt lat="43.97754" lon="3.23623">
        <ele>715.3</ele>
        <time>2021-08-14T13:53:39Z</time>
      </trkpt>
      <trkpt lat="43.97754" lon="3.23623">
        <ele>715.3</ele>
        <time>2021-08-14T13:53:41Z</time>
      </trkpt>
      <trkpt lat="43.97743" lon="3.23626">
        <ele>714.8</ele>
        <time>2021-08-14T13:54:25Z</time>
      </trkpt>
      <trkpt lat="43.97738" lon="3.23627">
        <ele>714.7</ele>
        <time>2021-08-14T13:54:27Z</time>
      </trkpt>
      <trkpt lat="43.97733" lon="3.23629">
        <ele>714.6</ele>
        <time>2021-08-14T13:54:29Z</time>
      </trkpt>
      <trkpt lat="43.97728" lon="3.23631">
        <ele>714.5</ele>
        <time>2021-08-14T13:54:31Z</time>
      </trkpt>
      <trkpt lat="43.97721" lon="3.23633">
        <ele>714.4</ele>
        <time>2021-08-14T13:54:33Z</time>
      </trkpt>
      <trkpt lat="43.97715" lon="3.23636">
        <ele>714.3</ele>
        <time>2021-08-14T13:54:35Z</time>
      </trkpt>
      <trkpt lat="43.97709" lon="3.23638">
        <ele>714.2</ele>
        <time>2021-08-14T13:54:37Z</time>
      </trkpt>
      <trkpt lat="43.97702" lon="3.23639">
        <ele>714.1</ele>
        <time>2021-08-14T13:54:39Z</time>
      </trkpt>
      <trkpt lat="43.97695" lon="3.23641">
        <ele>713.9</ele>
        <time>2021-08-14T13:54:41Z</time>
      </trkpt>
      <trkpt lat="43.97687" lon="3.23642">
        <ele>713.8</ele>
        <time>2021-08-14T13:54:43Z</time>
      </trkpt>
      <trkpt lat="43.97679" lon="3.23642">
        <ele>713.6</ele>
        <time>2021-08-14T13:54:45Z</time>
      </trkpt>
      <trkpt lat="43.97671" lon="3.23643">
        <ele>713.5</ele>
        <time>2021-08-14T13:54:47Z</time>
      </trkpt>
      <trkpt lat="43.97663" lon="3.23645">
        <ele>713.4</ele>
        <time>2021-08-14T13:54:49Z</time>
      </trkpt>
      <trkpt lat="43.97655" lon="3.23646">
        <ele>713.4</ele>
        <time>2021-08-14T13:54:51Z</time>
      </trkpt>
      <trkpt lat="43.97647" lon="3.23647">
        <ele>713.3</ele>
        <time>2021-08-14T13:54:53Z</time>
      </trkpt>
      <trkpt lat="43.97639" lon="3.2365">
        <ele>713.3</ele>
        <time>2021-08-14T13:54:55Z</time>
      </trkpt>
      <trkpt lat="43.97633" lon="3.23652">
        <ele>713.3</ele>
        <time>2021-08-14T13:54:57Z</time>
      </trkpt>
      <trkpt lat="43.97626" lon="3.23655">
        <ele>713.3</ele>
        <time>2021-08-14T13:54:59Z</time>
      </trkpt>
      <trkpt lat="43.97618" lon="3.23657">
        <ele>713.3</ele>
        <time>2021-08-14T13:55:01Z</time>
      </trkpt>
      <trkpt lat="43.97611" lon="3.2366">
        <ele>713.2</ele>
        <time>2021-08-14T13:55:03Z</time>
      </trkpt>
      <trkpt lat="43.97605" lon="3.23663">
        <ele>713.2</ele>
        <time>2021-08-14T13:55:05Z</time>
      </trkpt>
      <trkpt lat="43.97597" lon="3.23665">
        <ele>713.1</ele>
        <time>2021-08-14T13:55:07Z</time>
      </trkpt>
      <trkpt lat="43.9759" lon="3.23668">
        <ele>713.1</ele>
        <time>2021-08-14T13:55:09Z</time>
      </trkpt>
      <trkpt lat="43.97582" lon="3.23671">
        <ele>712.9</ele>
        <time>2021-08-14T13:55:11Z</time>
      </trkpt>
      <trkpt lat="43.97575" lon="3.23674">
        <ele>712.7</ele>
        <time>2021-08-14T13:55:13Z</time>
      </trkpt>
      <trkpt lat="43.97568" lon="3.2368">
        <ele>712.4</ele>
        <time>2021-08-14T13:55:15Z</time>
      </trkpt>
      <trkpt lat="43.9756" lon="3.23685">
        <ele>712.2</ele>
        <time>2021-08-14T13:55:17Z</time>
      </trkpt>
      <trkpt lat="43.97553" lon="3.23691">
        <ele>711.9</ele>
        <time>2021-08-14T13:55:19Z</time>
      </trkpt>
      <trkpt lat="43.97545" lon="3.23697">
        <ele>711.5</ele>
        <time>2021-08-14T13:55:21Z</time>
      </trkpt>
      <trkpt lat="43.97537" lon="3.23703">
        <ele>711.2</ele>
        <time>2021-08-14T13:55:23Z</time>
      </trkpt>
      <trkpt lat="43.97529" lon="3.23706">
        <ele>710.9</ele>
        <time>2021-08-14T13:55:25Z</time>
      </trkpt>
      <trkpt lat="43.97521" lon="3.23708">
        <ele>710.6</ele>
        <time>2021-08-14T13:55:27Z</time>
      </trkpt>
      <trkpt lat="43.97515" lon="3.23716">
        <ele>710.3</ele>
        <time>2021-08-14T13:55:29Z</time>
      </trkpt>
      <trkpt lat="43.97508" lon="3.2372">
        <ele>710</ele>
        <time>2021-08-14T13:55:31Z</time>
      </trkpt>
      <trkpt lat="43.97501" lon="3.23722">
        <ele>709.7</ele>
        <time>2021-08-14T13:55:33Z</time>
      </trkpt>
      <trkpt lat="43.97494" lon="3.23725">
        <ele>709.6</ele>
        <time>2021-08-14T13:55:35Z</time>
      </trkpt>
      <trkpt lat="43.97487" lon="3.23727">
        <ele>709.6</ele>
        <time>2021-08-14T13:55:37Z</time>
      </trkpt>
      <trkpt lat="43.9748" lon="3.2373">
        <ele>709.5</ele>
        <time>2021-08-14T13:55:39Z</time>
      </trkpt>
      <trkpt lat="43.97474" lon="3.23734">
        <ele>709.4</ele>
        <time>2021-08-14T13:55:41Z</time>
      </trkpt>
      <trkpt lat="43.97467" lon="3.23739">
        <ele>709.3</ele>
        <time>2021-08-14T13:55:43Z</time>
      </trkpt>
      <trkpt lat="43.97459" lon="3.23748">
        <ele>709.1</ele>
        <time>2021-08-14T13:55:45Z</time>
      </trkpt>
      <trkpt lat="43.97456" lon="3.23756">
        <ele>708.9</ele>
        <time>2021-08-14T13:55:47Z</time>
      </trkpt>
      <trkpt lat="43.97452" lon="3.23765">
        <ele>708.8</ele>
        <time>2021-08-14T13:55:49Z</time>
      </trkpt>
      <trkpt lat="43.97451" lon="3.23775">
        <ele>708.7</ele>
        <time>2021-08-14T13:55:51Z</time>
      </trkpt>
      <trkpt lat="43.97448" lon="3.23782">
        <ele>708.6</ele>
        <time>2021-08-14T13:55:53Z</time>
      </trkpt>
      <trkpt lat="43.97446" lon="3.23792">
        <ele>708.5</ele>
        <time>2021-08-14T13:55:55Z</time>
      </trkpt>
      <trkpt lat="43.97443" lon="3.23802">
        <ele>708.4</ele>
        <time>2021-08-14T13:55:57Z</time>
      </trkpt>
      <trkpt lat="43.97442" lon="3.23814">
        <ele>708.2</ele>
        <time>2021-08-14T13:55:59Z</time>
      </trkpt>
      <trkpt lat="43.97443" lon="3.23824">
        <ele>708.1</ele>
        <time>2021-08-14T13:56:01Z</time>
      </trkpt>
      <trkpt lat="43.97444" lon="3.23835">
        <ele>708</ele>
        <time>2021-08-14T13:56:03Z</time>
      </trkpt>
      <trkpt lat="43.97442" lon="3.23846">
        <ele>708.2</ele>
        <time>2021-08-14T13:56:05Z</time>
      </trkpt>
      <trkpt lat="43.97441" lon="3.23856">
        <ele>708.4</ele>
        <time>2021-08-14T13:56:07Z</time>
      </trkpt>
      <trkpt lat="43.9744" lon="3.23865">
        <ele>708.5</ele>
        <time>2021-08-14T13:56:09Z</time>
      </trkpt>
      <trkpt lat="43.97442" lon="3.23873">
        <ele>708.7</ele>
        <time>2021-08-14T13:56:11Z</time>
      </trkpt>
      <trkpt lat="43.97442" lon="3.23881">
        <ele>708.8</ele>
        <time>2021-08-14T13:56:13Z</time>
      </trkpt>
      <trkpt lat="43.97443" lon="3.23887">
        <ele>708.9</ele>
        <time>2021-08-14T13:56:15Z</time>
      </trkpt>
      <trkpt lat="43.97444" lon="3.23897">
        <ele>709</ele>
        <time>2021-08-14T13:56:17Z</time>
      </trkpt>
      <trkpt lat="43.97442" lon="3.23905">
        <ele>709.2</ele>
        <time>2021-08-14T13:56:19Z</time>
      </trkpt>
      <trkpt lat="43.97438" lon="3.23912">
        <ele>709.4</ele>
        <time>2021-08-14T13:56:21Z</time>
      </trkpt>
      <trkpt lat="43.97434" lon="3.23919">
        <ele>709.6</ele>
        <time>2021-08-14T13:56:23Z</time>
      </trkpt>
      <trkpt lat="43.97431" lon="3.23927">
        <ele>709.8</ele>
        <time>2021-08-14T13:56:25Z</time>
      </trkpt>
      <trkpt lat="43.97427" lon="3.23935">
        <ele>710</ele>
        <time>2021-08-14T13:56:27Z</time>
      </trkpt>
      <trkpt lat="43.97425" lon="3.23942">
        <ele>710.1</ele>
        <time>2021-08-14T13:56:29Z</time>
      </trkpt>
      <trkpt lat="43.97422" lon="3.23948">
        <ele>710.2</ele>
        <time>2021-08-14T13:56:31Z</time>
      </trkpt>
      <trkpt lat="43.9742" lon="3.23952">
        <ele>710.3</ele>
        <time>2021-08-14T13:56:33Z</time>
      </trkpt>
      <trkpt lat="43.97419" lon="3.23953">
        <ele>710.4</ele>
        <time>2021-08-14T13:56:35Z</time>
      </trkpt>
      <trkpt lat="43.97419" lon="3.23953">
        <ele>710.4</ele>
        <time>2021-08-14T13:56:37Z</time>
      </trkpt>
      <trkpt lat="43.97419" lon="3.23955">
        <ele>710.4</ele>
        <time>2021-08-14T13:56:39Z</time>
      </trkpt>
      <trkpt lat="43.97418" lon="3.23956">
        <ele>710.4</ele>
        <time>2021-08-14T13:56:41Z</time>
      </trkpt>
      <trkpt lat="43.97418" lon="3.23956">
        <ele>710.4</ele>
        <time>2021-08-14T13:56:43Z</time>
      </trkpt>
      <trkpt lat="43.97411" lon="3.23982">
        <ele>710.7</ele>
        <time>2021-08-14T13:56:59Z</time>
      </trkpt>
      <trkpt lat="43.9741" lon="3.2399">
        <ele>710.7</ele>
        <time>2021-08-14T13:57:01Z</time>
      </trkpt>
      <trkpt lat="43.9741" lon="3.23995">
        <ele>710.8</ele>
        <time>2021-08-14T13:57:03Z</time>
      </trkpt>
      <trkpt lat="43.97409" lon="3.24004">
        <ele>710.8</ele>
        <time>2021-08-14T13:57:05Z</time>
      </trkpt>
      <trkpt lat="43.9741" lon="3.24011">
        <ele>710.7</ele>
        <time>2021-08-14T13:57:07Z</time>
      </trkpt>
      <trkpt lat="43.97408" lon="3.24019">
        <ele>710.6</ele>
        <time>2021-08-14T13:57:09Z</time>
      </trkpt>
      <trkpt lat="43.97407" lon="3.24026">
        <ele>710.5</ele>
        <time>2021-08-14T13:57:11Z</time>
      </trkpt>
      <trkpt lat="43.97405" lon="3.24035">
        <ele>710.4</ele>
        <time>2021-08-14T13:57:13Z</time>
      </trkpt>
      <trkpt lat="43.97404" lon="3.24043">
        <ele>710.3</ele>
        <time>2021-08-14T13:57:15Z</time>
      </trkpt>
      <trkpt lat="43.97401" lon="3.2405">
        <ele>710.1</ele>
        <time>2021-08-14T13:57:17Z</time>
      </trkpt>
      <trkpt lat="43.97397" lon="3.24058">
        <ele>710</ele>
        <time>2021-08-14T13:57:19Z</time>
      </trkpt>
      <trkpt lat="43.97393" lon="3.24066">
        <ele>709.9</ele>
        <time>2021-08-14T13:57:21Z</time>
      </trkpt>
      <trkpt lat="43.97388" lon="3.24075">
        <ele>709.7</ele>
        <time>2021-08-14T13:57:23Z</time>
      </trkpt>
      <trkpt lat="43.97382" lon="3.24081">
        <ele>709.6</ele>
        <time>2021-08-14T13:57:25Z</time>
      </trkpt>
      <trkpt lat="43.97374" lon="3.24091">
        <ele>709.3</ele>
        <time>2021-08-14T13:57:27Z</time>
      </trkpt>
      <trkpt lat="43.97367" lon="3.24097">
        <ele>709.1</ele>
        <time>2021-08-14T13:57:29Z</time>
      </trkpt>
      <trkpt lat="43.97365" lon="3.24108">
        <ele>708.9</ele>
        <time>2021-08-14T13:57:31Z</time>
      </trkpt>
      <trkpt lat="43.97361" lon="3.24118">
        <ele>708.6</ele>
        <time>2021-08-14T13:57:33Z</time>
      </trkpt>
      <trkpt lat="43.97358" lon="3.24127">
        <ele>708.5</ele>
        <time>2021-08-14T13:57:35Z</time>
      </trkpt>
      <trkpt lat="43.97354" lon="3.24137">
        <ele>708.3</ele>
        <time>2021-08-14T13:57:37Z</time>
      </trkpt>
      <trkpt lat="43.97351" lon="3.24146">
        <ele>708.1</ele>
        <time>2021-08-14T13:57:39Z</time>
      </trkpt>
      <trkpt lat="43.97351" lon="3.24156">
        <ele>708</ele>
        <time>2021-08-14T13:57:41Z</time>
      </trkpt>
      <trkpt lat="43.97349" lon="3.24166">
        <ele>707.8</ele>
        <time>2021-08-14T13:57:43Z</time>
      </trkpt>
      <trkpt lat="43.97347" lon="3.24175">
        <ele>707.5</ele>
        <time>2021-08-14T13:57:45Z</time>
      </trkpt>
      <trkpt lat="43.97345" lon="3.24185">
        <ele>707.1</ele>
        <time>2021-08-14T13:57:47Z</time>
      </trkpt>
      <trkpt lat="43.97342" lon="3.24193">
        <ele>706.7</ele>
        <time>2021-08-14T13:57:49Z</time>
      </trkpt>
      <trkpt lat="43.97339" lon="3.24203">
        <ele>706.3</ele>
        <time>2021-08-14T13:57:51Z</time>
      </trkpt>
      <trkpt lat="43.97333" lon="3.24213">
        <ele>705.8</ele>
        <time>2021-08-14T13:57:53Z</time>
      </trkpt>
      <trkpt lat="43.9733" lon="3.24223">
        <ele>705.3</ele>
        <time>2021-08-14T13:57:55Z</time>
      </trkpt>
      <trkpt lat="43.97326" lon="3.24233">
        <ele>704.8</ele>
        <time>2021-08-14T13:57:57Z</time>
      </trkpt>
      <trkpt lat="43.97325" lon="3.24244">
        <ele>704.3</ele>
        <time>2021-08-14T13:57:59Z</time>
      </trkpt>
      <trkpt lat="43.97324" lon="3.24255">
        <ele>704.1</ele>
        <time>2021-08-14T13:58:01Z</time>
      </trkpt>
      <trkpt lat="43.97326" lon="3.24265">
        <ele>704.1</ele>
        <time>2021-08-14T13:58:03Z</time>
      </trkpt>
      <trkpt lat="43.97327" lon="3.24275">
        <ele>704.1</ele>
        <time>2021-08-14T13:58:05Z</time>
      </trkpt>
      <trkpt lat="43.97328" lon="3.24285">
        <ele>704.1</ele>
        <time>2021-08-14T13:58:07Z</time>
      </trkpt>
      <trkpt lat="43.97329" lon="3.24295">
        <ele>704</ele>
        <time>2021-08-14T13:58:09Z</time>
      </trkpt>
      <trkpt lat="43.97329" lon="3.24305">
        <ele>704.1</ele>
        <time>2021-08-14T13:58:11Z</time>
      </trkpt>
      <trkpt lat="43.97327" lon="3.24316">
        <ele>704.1</ele>
        <time>2021-08-14T13:58:13Z</time>
      </trkpt>
      <trkpt lat="43.97324" lon="3.24327">
        <ele>704.1</ele>
        <time>2021-08-14T13:58:15Z</time>
      </trkpt>
      <trkpt lat="43.97321" lon="3.24337">
        <ele>704.2</ele>
        <time>2021-08-14T13:58:17Z</time>
      </trkpt>
      <trkpt lat="43.97318" lon="3.24348">
        <ele>704.4</ele>
        <time>2021-08-14T13:58:19Z</time>
      </trkpt>
      <trkpt lat="43.97316" lon="3.24359">
        <ele>704.5</ele>
        <time>2021-08-14T13:58:21Z</time>
      </trkpt>
      <trkpt lat="43.97314" lon="3.2437">
        <ele>704.6</ele>
        <time>2021-08-14T13:58:23Z</time>
      </trkpt>
      <trkpt lat="43.97312" lon="3.2438">
        <ele>704.7</ele>
        <time>2021-08-14T13:58:25Z</time>
      </trkpt>
      <trkpt lat="43.97311" lon="3.24391">
        <ele>704.7</ele>
        <time>2021-08-14T13:58:27Z</time>
      </trkpt>
      <trkpt lat="43.97308" lon="3.24401">
        <ele>704.7</ele>
        <time>2021-08-14T13:58:29Z</time>
      </trkpt>
      <trkpt lat="43.97306" lon="3.2441">
        <ele>704.7</ele>
        <time>2021-08-14T13:58:31Z</time>
      </trkpt>
      <trkpt lat="43.97303" lon="3.2442">
        <ele>704.5</ele>
        <time>2021-08-14T13:58:33Z</time>
      </trkpt>
      <trkpt lat="43.97302" lon="3.24429">
        <ele>704.4</ele>
        <time>2021-08-14T13:58:35Z</time>
      </trkpt>
      <trkpt lat="43.97301" lon="3.2444">
        <ele>704.2</ele>
        <time>2021-08-14T13:58:37Z</time>
      </trkpt>
      <trkpt lat="43.97301" lon="3.24451">
        <ele>704.1</ele>
        <time>2021-08-14T13:58:39Z</time>
      </trkpt>
      <trkpt lat="43.97301" lon="3.24462">
        <ele>704</ele>
        <time>2021-08-14T13:58:41Z</time>
      </trkpt>
      <trkpt lat="43.973" lon="3.24473">
        <ele>703.9</ele>
        <time>2021-08-14T13:58:43Z</time>
      </trkpt>
      <trkpt lat="43.97298" lon="3.24484">
        <ele>703.7</ele>
        <time>2021-08-14T13:58:45Z</time>
      </trkpt>
      <trkpt lat="43.97297" lon="3.24494">
        <ele>703.6</ele>
        <time>2021-08-14T13:58:47Z</time>
      </trkpt>
      <trkpt lat="43.97295" lon="3.24505">
        <ele>703.4</ele>
        <time>2021-08-14T13:58:49Z</time>
      </trkpt>
      <trkpt lat="43.97292" lon="3.24515">
        <ele>703.2</ele>
        <time>2021-08-14T13:58:51Z</time>
      </trkpt>
      <trkpt lat="43.9729" lon="3.24526">
        <ele>703</ele>
        <time>2021-08-14T13:58:53Z</time>
      </trkpt>
      <trkpt lat="43.97287" lon="3.24536">
        <ele>702.9</ele>
        <time>2021-08-14T13:58:55Z</time>
      </trkpt>
      <trkpt lat="43.97285" lon="3.24547">
        <ele>702.7</ele>
        <time>2021-08-14T13:58:57Z</time>
      </trkpt>
      <trkpt lat="43.97284" lon="3.24558">
        <ele>702.6</ele>
        <time>2021-08-14T13:58:59Z</time>
      </trkpt>
      <trkpt lat="43.97283" lon="3.24569">
        <ele>702.4</ele>
        <time>2021-08-14T13:59:01Z</time>
      </trkpt>
      <trkpt lat="43.9728" lon="3.24579">
        <ele>702.3</ele>
        <time>2021-08-14T13:59:03Z</time>
      </trkpt>
      <trkpt lat="43.97277" lon="3.24589">
        <ele>702.3</ele>
        <time>2021-08-14T13:59:05Z</time>
      </trkpt>
      <trkpt lat="43.97275" lon="3.24597">
        <ele>702.2</ele>
        <time>2021-08-14T13:59:07Z</time>
      </trkpt>
      <trkpt lat="43.97274" lon="3.24603">
        <ele>702.1</ele>
        <time>2021-08-14T13:59:09Z</time>
      </trkpt>
      <trkpt lat="43.97272" lon="3.2461">
        <ele>702</ele>
        <time>2021-08-14T13:59:11Z</time>
      </trkpt>
      <trkpt lat="43.97271" lon="3.24615">
        <ele>701.9</ele>
        <time>2021-08-14T13:59:13Z</time>
      </trkpt>
      <trkpt lat="43.97268" lon="3.24621">
        <ele>701.9</ele>
        <time>2021-08-14T13:59:15Z</time>
      </trkpt>
      <trkpt lat="43.97266" lon="3.24631">
        <ele>701.7</ele>
        <time>2021-08-14T13:59:17Z</time>
      </trkpt>
      <trkpt lat="43.97266" lon="3.24638">
        <ele>701.5</ele>
        <time>2021-08-14T13:59:19Z</time>
      </trkpt>
      <trkpt lat="43.97265" lon="3.24644">
        <ele>701.4</ele>
        <time>2021-08-14T13:59:21Z</time>
      </trkpt>
      <trkpt lat="43.97264" lon="3.24652">
        <ele>701.3</ele>
        <time>2021-08-14T13:59:23Z</time>
      </trkpt>
      <trkpt lat="43.97264" lon="3.24658">
        <ele>701.2</ele>
        <time>2021-08-14T13:59:25Z</time>
      </trkpt>
      <trkpt lat="43.97265" lon="3.24664">
        <ele>701</ele>
        <time>2021-08-14T13:59:27Z</time>
      </trkpt>
      <trkpt lat="43.97264" lon="3.24672">
        <ele>700.8</ele>
        <time>2021-08-14T13:59:29Z</time>
      </trkpt>
      <trkpt lat="43.97262" lon="3.24683">
        <ele>700.4</ele>
        <time>2021-08-14T13:59:31Z</time>
      </trkpt>
      <trkpt lat="43.97259" lon="3.24694">
        <ele>700</ele>
        <time>2021-08-14T13:59:33Z</time>
      </trkpt>
      <trkpt lat="43.97255" lon="3.24705">
        <ele>699.6</ele>
        <time>2021-08-14T13:59:35Z</time>
      </trkpt>
      <trkpt lat="43.9725" lon="3.24716">
        <ele>699.2</ele>
        <time>2021-08-14T13:59:37Z</time>
      </trkpt>
      <trkpt lat="43.97246" lon="3.24727">
        <ele>698.8</ele>
        <time>2021-08-14T13:59:39Z</time>
      </trkpt>
      <trkpt lat="43.97243" lon="3.2474">
        <ele>698.4</ele>
        <time>2021-08-14T13:59:41Z</time>
      </trkpt>
      <trkpt lat="43.97241" lon="3.24754">
        <ele>698</ele>
        <time>2021-08-14T13:59:43Z</time>
      </trkpt>
      <trkpt lat="43.9724" lon="3.24766">
        <ele>697.6</ele>
        <time>2021-08-14T13:59:45Z</time>
      </trkpt>
      <trkpt lat="43.97237" lon="3.2478">
        <ele>697.2</ele>
        <time>2021-08-14T13:59:47Z</time>
      </trkpt>
      <trkpt lat="43.97236" lon="3.24793">
        <ele>696.8</ele>
        <time>2021-08-14T13:59:49Z</time>
      </trkpt>
      <trkpt lat="43.97235" lon="3.24807">
        <ele>696.4</ele>
        <time>2021-08-14T13:59:51Z</time>
      </trkpt>
      <trkpt lat="43.97233" lon="3.24821">
        <ele>696</ele>
        <time>2021-08-14T13:59:53Z</time>
      </trkpt>
      <trkpt lat="43.97229" lon="3.24833">
        <ele>695.7</ele>
        <time>2021-08-14T13:59:55Z</time>
      </trkpt>
      <trkpt lat="43.97226" lon="3.24847">
        <ele>695.5</ele>
        <time>2021-08-14T13:59:57Z</time>
      </trkpt>
      <trkpt lat="43.97222" lon="3.24859">
        <ele>695.3</ele>
        <time>2021-08-14T13:59:59Z</time>
      </trkpt>
      <trkpt lat="43.97219" lon="3.24871">
        <ele>695.1</ele>
        <time>2021-08-14T14:00:01Z</time>
      </trkpt>
      <trkpt lat="43.97216" lon="3.24883">
        <ele>695</ele>
        <time>2021-08-14T14:00:03Z</time>
      </trkpt>
      <trkpt lat="43.97212" lon="3.24894">
        <ele>694.8</ele>
        <time>2021-08-14T14:00:05Z</time>
      </trkpt>
      <trkpt lat="43.9721" lon="3.24906">
        <ele>694.7</ele>
        <time>2021-08-14T14:00:07Z</time>
      </trkpt>
      <trkpt lat="43.97207" lon="3.24917">
        <ele>694.6</ele>
        <time>2021-08-14T14:00:09Z</time>
      </trkpt>
      <trkpt lat="43.97206" lon="3.24927">
        <ele>694.4</ele>
        <time>2021-08-14T14:00:11Z</time>
      </trkpt>
      <trkpt lat="43.97204" lon="3.2494">
        <ele>694.2</ele>
        <time>2021-08-14T14:00:13Z</time>
      </trkpt>
      <trkpt lat="43.97204" lon="3.24953">
        <ele>693.9</ele>
        <time>2021-08-14T14:00:15Z</time>
      </trkpt>
      <trkpt lat="43.97202" lon="3.24965">
        <ele>693.6</ele>
        <time>2021-08-14T14:00:17Z</time>
      </trkpt>
      <trkpt lat="43.972" lon="3.24976">
        <ele>693.4</ele>
        <time>2021-08-14T14:00:19Z</time>
      </trkpt>
      <trkpt lat="43.97198" lon="3.24985">
        <ele>693.3</ele>
        <time>2021-08-14T14:00:21Z</time>
      </trkpt>
      <trkpt lat="43.97196" lon="3.24993">
        <ele>693.2</ele>
        <time>2021-08-14T14:00:23Z</time>
      </trkpt>
      <trkpt lat="43.97194" lon="3.25002">
        <ele>693</ele>
        <time>2021-08-14T14:00:25Z</time>
      </trkpt>
      <trkpt lat="43.97193" lon="3.25009">
        <ele>692.8</ele>
        <time>2021-08-14T14:00:27Z</time>
      </trkpt>
      <trkpt lat="43.9719" lon="3.25018">
        <ele>692.6</ele>
        <time>2021-08-14T14:00:29Z</time>
      </trkpt>
      <trkpt lat="43.97186" lon="3.25028">
        <ele>692.4</ele>
        <time>2021-08-14T14:00:31Z</time>
      </trkpt>
      <trkpt lat="43.97184" lon="3.25039">
        <ele>692.2</ele>
        <time>2021-08-14T14:00:33Z</time>
      </trkpt>
      <trkpt lat="43.97181" lon="3.25048">
        <ele>692</ele>
        <time>2021-08-14T14:00:35Z</time>
      </trkpt>
      <trkpt lat="43.97179" lon="3.25057">
        <ele>691.7</ele>
        <time>2021-08-14T14:00:37Z</time>
      </trkpt>
      <trkpt lat="43.97177" lon="3.25066">
        <ele>691.4</ele>
        <time>2021-08-14T14:00:39Z</time>
      </trkpt>
      <trkpt lat="43.97175" lon="3.25078">
        <ele>691.1</ele>
        <time>2021-08-14T14:00:41Z</time>
      </trkpt>
      <trkpt lat="43.97174" lon="3.2509">
        <ele>690.8</ele>
        <time>2021-08-14T14:00:43Z</time>
      </trkpt>
      <trkpt lat="43.97173" lon="3.25102">
        <ele>690.5</ele>
        <time>2021-08-14T14:00:45Z</time>
      </trkpt>
      <trkpt lat="43.97171" lon="3.25113">
        <ele>690.3</ele>
        <time>2021-08-14T14:00:47Z</time>
      </trkpt>
      <trkpt lat="43.97168" lon="3.25125">
        <ele>690</ele>
        <time>2021-08-14T14:00:49Z</time>
      </trkpt>
      <trkpt lat="43.97164" lon="3.25137">
        <ele>689.7</ele>
        <time>2021-08-14T14:00:51Z</time>
      </trkpt>
      <trkpt lat="43.97161" lon="3.25147">
        <ele>689.5</ele>
        <time>2021-08-14T14:00:53Z</time>
      </trkpt>
      <trkpt lat="43.97156" lon="3.25156">
        <ele>689.3</ele>
        <time>2021-08-14T14:00:55Z</time>
      </trkpt>
      <trkpt lat="43.97153" lon="3.25164">
        <ele>689.1</ele>
        <time>2021-08-14T14:00:57Z</time>
      </trkpt>
      <trkpt lat="43.97149" lon="3.2517">
        <ele>688.9</ele>
        <time>2021-08-14T14:00:59Z</time>
      </trkpt>
      <trkpt lat="43.97148" lon="3.25177">
        <ele>688.8</ele>
        <time>2021-08-14T14:01:01Z</time>
      </trkpt>
      <trkpt lat="43.97146" lon="3.25186">
        <ele>688.6</ele>
        <time>2021-08-14T14:01:03Z</time>
      </trkpt>
      <trkpt lat="43.97145" lon="3.25193">
        <ele>688.4</ele>
        <time>2021-08-14T14:01:05Z</time>
      </trkpt>
      <trkpt lat="43.97145" lon="3.25204">
        <ele>688.2</ele>
        <time>2021-08-14T14:01:07Z</time>
      </trkpt>
      <trkpt lat="43.97145" lon="3.25214">
        <ele>688</ele>
        <time>2021-08-14T14:01:09Z</time>
      </trkpt>
      <trkpt lat="43.97146" lon="3.25225">
        <ele>687.8</ele>
        <time>2021-08-14T14:01:11Z</time>
      </trkpt>
      <trkpt lat="43.97147" lon="3.25236">
        <ele>687.5</ele>
        <time>2021-08-14T14:01:13Z</time>
      </trkpt>
      <trkpt lat="43.9715" lon="3.25247">
        <ele>687.3</ele>
        <time>2021-08-14T14:01:15Z</time>
      </trkpt>
      <trkpt lat="43.97152" lon="3.25257">
        <ele>687</ele>
        <time>2021-08-14T14:01:17Z</time>
      </trkpt>
      <trkpt lat="43.97156" lon="3.25266">
        <ele>686.8</ele>
        <time>2021-08-14T14:01:19Z</time>
      </trkpt>
      <trkpt lat="43.9716" lon="3.25273">
        <ele>686.5</ele>
        <time>2021-08-14T14:01:21Z</time>
      </trkpt>
      <trkpt lat="43.97165" lon="3.25281">
        <ele>686.3</ele>
        <time>2021-08-14T14:01:23Z</time>
      </trkpt>
      <trkpt lat="43.97168" lon="3.25286">
        <ele>686.1</ele>
        <time>2021-08-14T14:01:25Z</time>
      </trkpt>
      <trkpt lat="43.97172" lon="3.25294">
        <ele>685.9</ele>
        <time>2021-08-14T14:01:27Z</time>
      </trkpt>
      <trkpt lat="43.97176" lon="3.253">
        <ele>685.7</ele>
        <time>2021-08-14T14:01:29Z</time>
      </trkpt>
      <trkpt lat="43.97179" lon="3.25306">
        <ele>685.5</ele>
        <time>2021-08-14T14:01:31Z</time>
      </trkpt>
      <trkpt lat="43.97182" lon="3.25312">
        <ele>685.3</ele>
        <time>2021-08-14T14:01:33Z</time>
      </trkpt>
      <trkpt lat="43.97183" lon="3.25318">
        <ele>685.2</ele>
        <time>2021-08-14T14:01:35Z</time>
      </trkpt>
      <trkpt lat="43.97184" lon="3.25323">
        <ele>685</ele>
        <time>2021-08-14T14:01:37Z</time>
      </trkpt>
      <trkpt lat="43.97186" lon="3.25326">
        <ele>684.9</ele>
        <time>2021-08-14T14:01:39Z</time>
      </trkpt>
      <trkpt lat="43.97188" lon="3.25329">
        <ele>684.8</ele>
        <time>2021-08-14T14:01:41Z</time>
      </trkpt>
      <trkpt lat="43.9719" lon="3.25332">
        <ele>684.7</ele>
        <time>2021-08-14T14:01:43Z</time>
      </trkpt>
      <trkpt lat="43.97189" lon="3.25332">
        <ele>684.8</ele>
        <time>2021-08-14T14:01:45Z</time>
      </trkpt>
      <trkpt lat="43.97189" lon="3.25332">
        <ele>684.8</ele>
        <time>2021-08-14T14:01:47Z</time>
      </trkpt>
      <trkpt lat="43.9719" lon="3.25332">
        <ele>684.7</ele>
        <time>2021-08-14T14:01:49Z</time>
      </trkpt>
      <trkpt lat="43.97191" lon="3.25332">
        <ele>684.7</ele>
        <time>2021-08-14T14:01:51Z</time>
      </trkpt>
      <trkpt lat="43.97191" lon="3.25332">
        <ele>684.7</ele>
        <time>2021-08-14T14:01:53Z</time>
      </trkpt>
      <trkpt lat="43.9717" lon="3.25296">
        <ele>685.9</ele>
        <time>2021-08-14T15:30:13Z</time>
      </trkpt>
      <trkpt lat="43.97167" lon="3.25294">
        <ele>685.9</ele>
        <time>2021-08-14T15:30:15Z</time>
      </trkpt>
      <trkpt lat="43.97166" lon="3.25291">
        <ele>686</ele>
        <time>2021-08-14T15:30:17Z</time>
      </trkpt>
      <trkpt lat="43.97164" lon="3.25289">
        <ele>686.1</ele>
        <time>2021-08-14T15:30:19Z</time>
      </trkpt>
      <trkpt lat="43.97161" lon="3.25286">
        <ele>686.2</ele>
        <time>2021-08-14T15:30:21Z</time>
      </trkpt>
      <trkpt lat="43.97158" lon="3.25281">
        <ele>686.4</ele>
        <time>2021-08-14T15:30:23Z</time>
      </trkpt>
      <trkpt lat="43.97155" lon="3.25275">
        <ele>686.6</ele>
        <time>2021-08-14T15:30:25Z</time>
      </trkpt>
      <trkpt lat="43.97152" lon="3.25269">
        <ele>686.8</ele>
        <time>2021-08-14T15:30:27Z</time>
      </trkpt>
      <trkpt lat="43.97149" lon="3.25264">
        <ele>686.9</ele>
        <time>2021-08-14T15:30:29Z</time>
      </trkpt>
      <trkpt lat="43.97147" lon="3.25257">
        <ele>687.1</ele>
        <time>2021-08-14T15:30:31Z</time>
      </trkpt>
      <trkpt lat="43.97145" lon="3.2525">
        <ele>687.2</ele>
        <time>2021-08-14T15:30:33Z</time>
      </trkpt>
      <trkpt lat="43.97144" lon="3.25243">
        <ele>687.4</ele>
        <time>2021-08-14T15:30:35Z</time>
      </trkpt>
      <trkpt lat="43.97143" lon="3.25237">
        <ele>687.6</ele>
        <time>2021-08-14T15:30:37Z</time>
      </trkpt>
      <trkpt lat="43.97142" lon="3.25229">
        <ele>687.7</ele>
        <time>2021-08-14T15:30:39Z</time>
      </trkpt>
      <trkpt lat="43.97142" lon="3.25222">
        <ele>687.9</ele>
        <time>2021-08-14T15:30:41Z</time>
      </trkpt>
      <trkpt lat="43.97142" lon="3.25215">
        <ele>688</ele>
        <time>2021-08-14T15:30:43Z</time>
      </trkpt>
      <trkpt lat="43.97142" lon="3.25207">
        <ele>688.2</ele>
        <time>2021-08-14T15:30:45Z</time>
      </trkpt>
      <trkpt lat="43.97142" lon="3.252">
        <ele>688.3</ele>
        <time>2021-08-14T15:30:47Z</time>
      </trkpt>
      <trkpt lat="43.97142" lon="3.25193">
        <ele>688.5</ele>
        <time>2021-08-14T15:30:49Z</time>
      </trkpt>
      <trkpt lat="43.97144" lon="3.25186">
        <ele>688.6</ele>
        <time>2021-08-14T15:30:51Z</time>
      </trkpt>
      <trkpt lat="43.97145" lon="3.25179">
        <ele>688.7</ele>
        <time>2021-08-14T15:30:53Z</time>
      </trkpt>
      <trkpt lat="43.97147" lon="3.25173">
        <ele>688.9</ele>
        <time>2021-08-14T15:30:55Z</time>
      </trkpt>
      <trkpt lat="43.9715" lon="3.25167">
        <ele>689</ele>
        <time>2021-08-14T15:30:57Z</time>
      </trkpt>
      <trkpt lat="43.97153" lon="3.25162">
        <ele>689.1</ele>
        <time>2021-08-14T15:30:59Z</time>
      </trkpt>
      <trkpt lat="43.97154" lon="3.25156">
        <ele>689.3</ele>
        <time>2021-08-14T15:31:01Z</time>
      </trkpt>
      <trkpt lat="43.97156" lon="3.25151">
        <ele>689.4</ele>
        <time>2021-08-14T15:31:03Z</time>
      </trkpt>
      <trkpt lat="43.97158" lon="3.25145">
        <ele>689.6</ele>
        <time>2021-08-14T15:31:05Z</time>
      </trkpt>
      <trkpt lat="43.9716" lon="3.25139">
        <ele>689.7</ele>
        <time>2021-08-14T15:31:07Z</time>
      </trkpt>
      <trkpt lat="43.97162" lon="3.25133">
        <ele>689.8</ele>
        <time>2021-08-14T15:31:09Z</time>
      </trkpt>
      <trkpt lat="43.97165" lon="3.25127">
        <ele>690</ele>
        <time>2021-08-14T15:31:11Z</time>
      </trkpt>
      <trkpt lat="43.97165" lon="3.2512">
        <ele>690.1</ele>
        <time>2021-08-14T15:31:13Z</time>
      </trkpt>
      <trkpt lat="43.97167" lon="3.25114">
        <ele>690.3</ele>
        <time>2021-08-14T15:31:15Z</time>
      </trkpt>
      <trkpt lat="43.97167" lon="3.25107">
        <ele>690.4</ele>
        <time>2021-08-14T15:31:17Z</time>
      </trkpt>
      <trkpt lat="43.97169" lon="3.25101">
        <ele>690.6</ele>
        <time>2021-08-14T15:31:19Z</time>
      </trkpt>
      <trkpt lat="43.9717" lon="3.25094">
        <ele>690.7</ele>
        <time>2021-08-14T15:31:21Z</time>
      </trkpt>
      <trkpt lat="43.97171" lon="3.25088">
        <ele>690.9</ele>
        <time>2021-08-14T15:31:23Z</time>
      </trkpt>
      <trkpt lat="43.97172" lon="3.25082">
        <ele>691</ele>
        <time>2021-08-14T15:31:25Z</time>
      </trkpt>
      <trkpt lat="43.97171" lon="3.25076">
        <ele>691.2</ele>
        <time>2021-08-14T15:31:27Z</time>
      </trkpt>
      <trkpt lat="43.97172" lon="3.25068">
        <ele>691.5</ele>
        <time>2021-08-14T15:31:29Z</time>
      </trkpt>
      <trkpt lat="43.97173" lon="3.25061">
        <ele>691.7</ele>
        <time>2021-08-14T15:31:31Z</time>
      </trkpt>
      <trkpt lat="43.97175" lon="3.25054">
        <ele>691.9</ele>
        <time>2021-08-14T15:31:33Z</time>
      </trkpt>
      <trkpt lat="43.97176" lon="3.25048">
        <ele>692.1</ele>
        <time>2021-08-14T15:31:35Z</time>
      </trkpt>
      <trkpt lat="43.97178" lon="3.25043">
        <ele>692.2</ele>
        <time>2021-08-14T15:31:37Z</time>
      </trkpt>
      <trkpt lat="43.9718" lon="3.25037">
        <ele>692.3</ele>
        <time>2021-08-14T15:31:39Z</time>
      </trkpt>
      <trkpt lat="43.97182" lon="3.25032">
        <ele>692.5</ele>
        <time>2021-08-14T15:31:41Z</time>
      </trkpt>
      <trkpt lat="43.97184" lon="3.25026">
        <ele>692.5</ele>
        <time>2021-08-14T15:31:43Z</time>
      </trkpt>
      <trkpt lat="43.97185" lon="3.25021">
        <ele>692.7</ele>
        <time>2021-08-14T15:31:45Z</time>
      </trkpt>
      <trkpt lat="43.97187" lon="3.25015">
        <ele>692.8</ele>
        <time>2021-08-14T15:31:47Z</time>
      </trkpt>
      <trkpt lat="43.97188" lon="3.25009">
        <ele>693</ele>
        <time>2021-08-14T15:31:49Z</time>
      </trkpt>
      <trkpt lat="43.97188" lon="3.25005">
        <ele>693.1</ele>
        <time>2021-08-14T15:31:51Z</time>
      </trkpt>
      <trkpt lat="43.9719" lon="3.24999">
        <ele>693.2</ele>
        <time>2021-08-14T15:31:53Z</time>
      </trkpt>
      <trkpt lat="43.9719" lon="3.24994">
        <ele>693.3</ele>
        <time>2021-08-14T15:31:55Z</time>
      </trkpt>
      <trkpt lat="43.97191" lon="3.2499">
        <ele>693.4</ele>
        <time>2021-08-14T15:31:57Z</time>
      </trkpt>
      <trkpt lat="43.97193" lon="3.24984">
        <ele>693.5</ele>
        <time>2021-08-14T15:31:59Z</time>
      </trkpt>
      <trkpt lat="43.97195" lon="3.24978">
        <ele>693.6</ele>
        <time>2021-08-14T15:32:01Z</time>
      </trkpt>
      <trkpt lat="43.97195" lon="3.24972">
        <ele>693.7</ele>
        <time>2021-08-14T15:32:03Z</time>
      </trkpt>
      <trkpt lat="43.97197" lon="3.24966">
        <ele>693.8</ele>
        <time>2021-08-14T15:32:05Z</time>
      </trkpt>
      <trkpt lat="43.97196" lon="3.24961">
        <ele>694</ele>
        <time>2021-08-14T15:32:07Z</time>
      </trkpt>
      <trkpt lat="43.97198" lon="3.24955">
        <ele>694.1</ele>
        <time>2021-08-14T15:32:09Z</time>
      </trkpt>
      <trkpt lat="43.97198" lon="3.24951">
        <ele>694.2</ele>
        <time>2021-08-14T15:32:11Z</time>
      </trkpt>
      <trkpt lat="43.97198" lon="3.24945">
        <ele>694.4</ele>
        <time>2021-08-14T15:32:13Z</time>
      </trkpt>
      <trkpt lat="43.97199" lon="3.24939">
        <ele>694.5</ele>
        <time>2021-08-14T15:32:15Z</time>
      </trkpt>
      <trkpt lat="43.97199" lon="3.24932">
        <ele>694.6</ele>
        <time>2021-08-14T15:32:17Z</time>
      </trkpt>
      <trkpt lat="43.97201" lon="3.24927">
        <ele>694.7</ele>
        <time>2021-08-14T15:32:19Z</time>
      </trkpt>
      <trkpt lat="43.97202" lon="3.2492">
        <ele>694.8</ele>
        <time>2021-08-14T15:32:21Z</time>
      </trkpt>
      <trkpt lat="43.97204" lon="3.24914">
        <ele>694.8</ele>
        <time>2021-08-14T15:32:23Z</time>
      </trkpt>
      <trkpt lat="43.97206" lon="3.24907">
        <ele>694.9</ele>
        <time>2021-08-14T15:32:25Z</time>
      </trkpt>
      <trkpt lat="43.97207" lon="3.24901">
        <ele>694.9</ele>
        <time>2021-08-14T15:32:27Z</time>
      </trkpt>
      <trkpt lat="43.97208" lon="3.24896">
        <ele>695</ele>
        <time>2021-08-14T15:32:29Z</time>
      </trkpt>
      <trkpt lat="43.9721" lon="3.24889">
        <ele>695.1</ele>
        <time>2021-08-14T15:32:31Z</time>
      </trkpt>
      <trkpt lat="43.97213" lon="3.24882">
        <ele>695.1</ele>
        <time>2021-08-14T15:32:33Z</time>
      </trkpt>
      <trkpt lat="43.97214" lon="3.24875">
        <ele>695.2</ele>
        <time>2021-08-14T15:32:35Z</time>
      </trkpt>
      <trkpt lat="43.97216" lon="3.24868">
        <ele>695.3</ele>
        <time>2021-08-14T15:32:37Z</time>
      </trkpt>
      <trkpt lat="43.97218" lon="3.24861">
        <ele>695.4</ele>
        <time>2021-08-14T15:32:39Z</time>
      </trkpt>
      <trkpt lat="43.9722" lon="3.24856">
        <ele>695.5</ele>
        <time>2021-08-14T15:32:41Z</time>
      </trkpt>
      <trkpt lat="43.97221" lon="3.24849">
        <ele>695.6</ele>
        <time>2021-08-14T15:32:43Z</time>
      </trkpt>
      <trkpt lat="43.97223" lon="3.24843">
        <ele>695.7</ele>
        <time>2021-08-14T15:32:45Z</time>
      </trkpt>
      <trkpt lat="43.97225" lon="3.24837">
        <ele>695.8</ele>
        <time>2021-08-14T15:32:47Z</time>
      </trkpt>
      <trkpt lat="43.97228" lon="3.24831">
        <ele>695.9</ele>
        <time>2021-08-14T15:32:49Z</time>
      </trkpt>
      <trkpt lat="43.97229" lon="3.24825">
        <ele>696</ele>
        <time>2021-08-14T15:32:51Z</time>
      </trkpt>
      <trkpt lat="43.97231" lon="3.24818">
        <ele>696.2</ele>
        <time>2021-08-14T15:32:53Z</time>
      </trkpt>
      <trkpt lat="43.97232" lon="3.24811">
        <ele>696.3</ele>
        <time>2021-08-14T15:32:55Z</time>
      </trkpt>
      <trkpt lat="43.97233" lon="3.24805">
        <ele>696.5</ele>
        <time>2021-08-14T15:32:57Z</time>
      </trkpt>
      <trkpt lat="43.97233" lon="3.24797">
        <ele>696.7</ele>
        <time>2021-08-14T15:32:59Z</time>
      </trkpt>
      <trkpt lat="43.97234" lon="3.24792">
        <ele>696.9</ele>
        <time>2021-08-14T15:33:01Z</time>
      </trkpt>
      <trkpt lat="43.97235" lon="3.24785">
        <ele>697.1</ele>
        <time>2021-08-14T15:33:03Z</time>
      </trkpt>
      <trkpt lat="43.97235" lon="3.24778">
        <ele>697.3</ele>
        <time>2021-08-14T15:33:05Z</time>
      </trkpt>
      <trkpt lat="43.97236" lon="3.24771">
        <ele>697.5</ele>
        <time>2021-08-14T15:33:07Z</time>
      </trkpt>
      <trkpt lat="43.97237" lon="3.24765">
        <ele>697.7</ele>
        <time>2021-08-14T15:33:09Z</time>
      </trkpt>
      <trkpt lat="43.97237" lon="3.24759">
        <ele>697.9</ele>
        <time>2021-08-14T15:33:11Z</time>
      </trkpt>
      <trkpt lat="43.97239" lon="3.24754">
        <ele>698</ele>
        <time>2021-08-14T15:33:13Z</time>
      </trkpt>
      <trkpt lat="43.9724" lon="3.24748">
        <ele>698.2</ele>
        <time>2021-08-14T15:33:15Z</time>
      </trkpt>
      <trkpt lat="43.97241" lon="3.24741">
        <ele>698.4</ele>
        <time>2021-08-14T15:33:17Z</time>
      </trkpt>
      <trkpt lat="43.97244" lon="3.24735">
        <ele>698.6</ele>
        <time>2021-08-14T15:33:19Z</time>
      </trkpt>
      <trkpt lat="43.97245" lon="3.24728">
        <ele>698.8</ele>
        <time>2021-08-14T15:33:21Z</time>
      </trkpt>
      <trkpt lat="43.97249" lon="3.24722">
        <ele>699</ele>
        <time>2021-08-14T15:33:23Z</time>
      </trkpt>
      <trkpt lat="43.97252" lon="3.24716">
        <ele>699.2</ele>
        <time>2021-08-14T15:33:25Z</time>
      </trkpt>
      <trkpt lat="43.97253" lon="3.24711">
        <ele>699.4</ele>
        <time>2021-08-14T15:33:27Z</time>
      </trkpt>
      <trkpt lat="43.97256" lon="3.24704">
        <ele>699.7</ele>
        <time>2021-08-14T15:33:29Z</time>
      </trkpt>
      <trkpt lat="43.97257" lon="3.24697">
        <ele>699.9</ele>
        <time>2021-08-14T15:33:31Z</time>
      </trkpt>
      <trkpt lat="43.97258" lon="3.24692">
        <ele>700.1</ele>
        <time>2021-08-14T15:33:33Z</time>
      </trkpt>
      <trkpt lat="43.9726" lon="3.24686">
        <ele>700.3</ele>
        <time>2021-08-14T15:33:35Z</time>
      </trkpt>
      <trkpt lat="43.97261" lon="3.24679">
        <ele>700.5</ele>
        <time>2021-08-14T15:33:37Z</time>
      </trkpt>
      <trkpt lat="43.97263" lon="3.24673">
        <ele>700.8</ele>
        <time>2021-08-14T15:33:39Z</time>
      </trkpt>
      <trkpt lat="43.97264" lon="3.24666">
        <ele>701</ele>
        <time>2021-08-14T15:33:41Z</time>
      </trkpt>
      <trkpt lat="43.97264" lon="3.24659">
        <ele>701.2</ele>
        <time>2021-08-14T15:33:43Z</time>
      </trkpt>
      <trkpt lat="43.97263" lon="3.24652">
        <ele>701.3</ele>
        <time>2021-08-14T15:33:45Z</time>
      </trkpt>
      <trkpt lat="43.97263" lon="3.24646">
        <ele>701.4</ele>
        <time>2021-08-14T15:33:47Z</time>
      </trkpt>
      <trkpt lat="43.97264" lon="3.24641">
        <ele>701.5</ele>
        <time>2021-08-14T15:33:49Z</time>
      </trkpt>
      <trkpt lat="43.97265" lon="3.24635">
        <ele>701.6</ele>
        <time>2021-08-14T15:33:51Z</time>
      </trkpt>
      <trkpt lat="43.97265" lon="3.24628">
        <ele>701.8</ele>
        <time>2021-08-14T15:33:53Z</time>
      </trkpt>
      <trkpt lat="43.97266" lon="3.24622">
        <ele>701.9</ele>
        <time>2021-08-14T15:33:55Z</time>
      </trkpt>
      <trkpt lat="43.97267" lon="3.24615">
        <ele>702</ele>
        <time>2021-08-14T15:33:57Z</time>
      </trkpt>
      <trkpt lat="43.97269" lon="3.24609">
        <ele>702.1</ele>
        <time>2021-08-14T15:33:59Z</time>
      </trkpt>
      <trkpt lat="43.97271" lon="3.24604">
        <ele>702.1</ele>
        <time>2021-08-14T15:34:01Z</time>
      </trkpt>
      <trkpt lat="43.97273" lon="3.24598">
        <ele>702.2</ele>
        <time>2021-08-14T15:34:03Z</time>
      </trkpt>
      <trkpt lat="43.97274" lon="3.24592">
        <ele>702.3</ele>
        <time>2021-08-14T15:34:05Z</time>
      </trkpt>
      <trkpt lat="43.97275" lon="3.24588">
        <ele>702.3</ele>
        <time>2021-08-14T15:34:07Z</time>
      </trkpt>
      <trkpt lat="43.97277" lon="3.24584">
        <ele>702.4</ele>
        <time>2021-08-14T15:34:09Z</time>
      </trkpt>
      <trkpt lat="43.97278" lon="3.24578">
        <ele>702.4</ele>
        <time>2021-08-14T15:34:11Z</time>
      </trkpt>
      <trkpt lat="43.97278" lon="3.24572">
        <ele>702.5</ele>
        <time>2021-08-14T15:34:13Z</time>
      </trkpt>
      <trkpt lat="43.97277" lon="3.24566">
        <ele>702.5</ele>
        <time>2021-08-14T15:34:15Z</time>
      </trkpt>
      <trkpt lat="43.97278" lon="3.24562">
        <ele>702.6</ele>
        <time>2021-08-14T15:34:17Z</time>
      </trkpt>
      <trkpt lat="43.9728" lon="3.24558">
        <ele>702.6</ele>
        <time>2021-08-14T15:34:19Z</time>
      </trkpt>
      <trkpt lat="43.9728" lon="3.24553">
        <ele>702.7</ele>
        <time>2021-08-14T15:34:21Z</time>
      </trkpt>
      <trkpt lat="43.9728" lon="3.24548">
        <ele>702.7</ele>
        <time>2021-08-14T15:34:23Z</time>
      </trkpt>
      <trkpt lat="43.97282" lon="3.24542">
        <ele>702.8</ele>
        <time>2021-08-14T15:34:25Z</time>
      </trkpt>
      <trkpt lat="43.97283" lon="3.24537">
        <ele>702.9</ele>
        <time>2021-08-14T15:34:27Z</time>
      </trkpt>
      <trkpt lat="43.97285" lon="3.24531">
        <ele>703</ele>
        <time>2021-08-14T15:34:29Z</time>
      </trkpt>
      <trkpt lat="43.97286" lon="3.24525">
        <ele>703</ele>
        <time>2021-08-14T15:34:31Z</time>
      </trkpt>
      <trkpt lat="43.97287" lon="3.24518">
        <ele>703.2</ele>
        <time>2021-08-14T15:34:33Z</time>
      </trkpt>
      <trkpt lat="43.9729" lon="3.24512">
        <ele>703.3</ele>
        <time>2021-08-14T15:34:35Z</time>
      </trkpt>
      <trkpt lat="43.97291" lon="3.24505">
        <ele>703.4</ele>
        <time>2021-08-14T15:34:37Z</time>
      </trkpt>
      <trkpt lat="43.97293" lon="3.24499">
        <ele>703.5</ele>
        <time>2021-08-14T15:34:39Z</time>
      </trkpt>
      <trkpt lat="43.97295" lon="3.24493">
        <ele>703.6</ele>
        <time>2021-08-14T15:34:41Z</time>
      </trkpt>
      <trkpt lat="43.97295" lon="3.24486">
        <ele>703.6</ele>
        <time>2021-08-14T15:34:43Z</time>
      </trkpt>
      <trkpt lat="43.97296" lon="3.24479">
        <ele>703.7</ele>
        <time>2021-08-14T15:34:45Z</time>
      </trkpt>
      <trkpt lat="43.97297" lon="3.24473">
        <ele>703.8</ele>
        <time>2021-08-14T15:34:47Z</time>
      </trkpt>
      <trkpt lat="43.97298" lon="3.24467">
        <ele>703.9</ele>
        <time>2021-08-14T15:34:49Z</time>
      </trkpt>
      <trkpt lat="43.97298" lon="3.24459">
        <ele>703.9</ele>
        <time>2021-08-14T15:34:51Z</time>
      </trkpt>
      <trkpt lat="43.97298" lon="3.24452">
        <ele>704</ele>
        <time>2021-08-14T15:34:53Z</time>
      </trkpt>
      <trkpt lat="43.97299" lon="3.24445">
        <ele>704.1</ele>
        <time>2021-08-14T15:34:55Z</time>
      </trkpt>
      <trkpt lat="43.97299" lon="3.24438">
        <ele>704.2</ele>
        <time>2021-08-14T15:34:57Z</time>
      </trkpt>
      <trkpt lat="43.97301" lon="3.24431">
        <ele>704.3</ele>
        <time>2021-08-14T15:34:59Z</time>
      </trkpt>
      <trkpt lat="43.97302" lon="3.24424">
        <ele>704.4</ele>
        <time>2021-08-14T15:35:01Z</time>
      </trkpt>
      <trkpt lat="43.97303" lon="3.24417">
        <ele>704.5</ele>
        <time>2021-08-14T15:35:03Z</time>
      </trkpt>
      <trkpt lat="43.97304" lon="3.24411">
        <ele>704.6</ele>
        <time>2021-08-14T15:35:05Z</time>
      </trkpt>
      <trkpt lat="43.97305" lon="3.24404">
        <ele>704.6</ele>
        <time>2021-08-14T15:35:07Z</time>
      </trkpt>
      <trkpt lat="43.97306" lon="3.24397">
        <ele>704.6</ele>
        <time>2021-08-14T15:35:09Z</time>
      </trkpt>
      <trkpt lat="43.97307" lon="3.24389">
        <ele>704.6</ele>
        <time>2021-08-14T15:35:11Z</time>
      </trkpt>
      <trkpt lat="43.97309" lon="3.24382">
        <ele>704.6</ele>
        <time>2021-08-14T15:35:13Z</time>
      </trkpt>
      <trkpt lat="43.97311" lon="3.24375">
        <ele>704.6</ele>
        <time>2021-08-14T15:35:15Z</time>
      </trkpt>
      <trkpt lat="43.97313" lon="3.24368">
        <ele>704.6</ele>
        <time>2021-08-14T15:35:17Z</time>
      </trkpt>
      <trkpt lat="43.97314" lon="3.2436">
        <ele>704.5</ele>
        <time>2021-08-14T15:35:19Z</time>
      </trkpt>
      <trkpt lat="43.97316" lon="3.24352">
        <ele>704.4</ele>
        <time>2021-08-14T15:35:21Z</time>
      </trkpt>
      <trkpt lat="43.97318" lon="3.24344">
        <ele>704.3</ele>
        <time>2021-08-14T15:35:23Z</time>
      </trkpt>
      <trkpt lat="43.9732" lon="3.24337">
        <ele>704.2</ele>
        <time>2021-08-14T15:35:25Z</time>
      </trkpt>
      <trkpt lat="43.97321" lon="3.24329">
        <ele>704.1</ele>
        <time>2021-08-14T15:35:27Z</time>
      </trkpt>
      <trkpt lat="43.97323" lon="3.24322">
        <ele>704.1</ele>
        <time>2021-08-14T15:35:29Z</time>
      </trkpt>
      <trkpt lat="43.97325" lon="3.24314">
        <ele>704.1</ele>
        <time>2021-08-14T15:35:31Z</time>
      </trkpt>
      <trkpt lat="43.97326" lon="3.24306">
        <ele>704.1</ele>
        <time>2021-08-14T15:35:33Z</time>
      </trkpt>
      <trkpt lat="43.97327" lon="3.24299">
        <ele>704.1</ele>
        <time>2021-08-14T15:35:35Z</time>
      </trkpt>
      <trkpt lat="43.97327" lon="3.24291">
        <ele>704.1</ele>
        <time>2021-08-14T15:35:37Z</time>
      </trkpt>
      <trkpt lat="43.97326" lon="3.24283">
        <ele>704.1</ele>
        <time>2021-08-14T15:35:39Z</time>
      </trkpt>
      <trkpt lat="43.97325" lon="3.24277">
        <ele>704.1</ele>
        <time>2021-08-14T15:35:41Z</time>
      </trkpt>
      <trkpt lat="43.97323" lon="3.2427">
        <ele>704.1</ele>
        <time>2021-08-14T15:35:43Z</time>
      </trkpt>
      <trkpt lat="43.97323" lon="3.24263">
        <ele>704.1</ele>
        <time>2021-08-14T15:35:45Z</time>
      </trkpt>
      <trkpt lat="43.97322" lon="3.24256">
        <ele>704.1</ele>
        <time>2021-08-14T15:35:47Z</time>
      </trkpt>
      <trkpt lat="43.97323" lon="3.24248">
        <ele>704.2</ele>
        <time>2021-08-14T15:35:49Z</time>
      </trkpt>
      <trkpt lat="43.97324" lon="3.24241">
        <ele>704.5</ele>
        <time>2021-08-14T15:35:51Z</time>
      </trkpt>
      <trkpt lat="43.97326" lon="3.24233">
        <ele>704.8</ele>
        <time>2021-08-14T15:35:53Z</time>
      </trkpt>
      <trkpt lat="43.97328" lon="3.24226">
        <ele>705.1</ele>
        <time>2021-08-14T15:35:55Z</time>
      </trkpt>
      <trkpt lat="43.97331" lon="3.2422">
        <ele>705.4</ele>
        <time>2021-08-14T15:35:57Z</time>
      </trkpt>
      <trkpt lat="43.97333" lon="3.24214">
        <ele>705.7</ele>
        <time>2021-08-14T15:35:59Z</time>
      </trkpt>
      <trkpt lat="43.97336" lon="3.24207">
        <ele>706.1</ele>
        <time>2021-08-14T15:36:01Z</time>
      </trkpt>
      <trkpt lat="43.97338" lon="3.24202">
        <ele>706.3</ele>
        <time>2021-08-14T15:36:03Z</time>
      </trkpt>
      <trkpt lat="43.97341" lon="3.24195">
        <ele>706.6</ele>
        <time>2021-08-14T15:36:05Z</time>
      </trkpt>
      <trkpt lat="43.97343" lon="3.24189">
        <ele>706.9</ele>
        <time>2021-08-14T15:36:07Z</time>
      </trkpt>
      <trkpt lat="43.97344" lon="3.24183">
        <ele>707.2</ele>
        <time>2021-08-14T15:36:09Z</time>
      </trkpt>
      <trkpt lat="43.97344" lon="3.24176">
        <ele>707.5</ele>
        <time>2021-08-14T15:36:11Z</time>
      </trkpt>
      <trkpt lat="43.97345" lon="3.24168">
        <ele>707.8</ele>
        <time>2021-08-14T15:36:13Z</time>
      </trkpt>
      <trkpt lat="43.97345" lon="3.24162">
        <ele>707.9</ele>
        <time>2021-08-14T15:36:15Z</time>
      </trkpt>
      <trkpt lat="43.97346" lon="3.24155">
        <ele>708</ele>
        <time>2021-08-14T15:36:17Z</time>
      </trkpt>
      <trkpt lat="43.97349" lon="3.24149">
        <ele>708.1</ele>
        <time>2021-08-14T15:36:19Z</time>
      </trkpt>
      <trkpt lat="43.97349" lon="3.24143">
        <ele>708.2</ele>
        <time>2021-08-14T15:36:21Z</time>
      </trkpt>
      <trkpt lat="43.97352" lon="3.24136">
        <ele>708.3</ele>
        <time>2021-08-14T15:36:23Z</time>
      </trkpt>
      <trkpt lat="43.97354" lon="3.2413">
        <ele>708.4</ele>
        <time>2021-08-14T15:36:25Z</time>
      </trkpt>
      <trkpt lat="43.97355" lon="3.24126">
        <ele>708.5</ele>
        <time>2021-08-14T15:36:27Z</time>
      </trkpt>
      <trkpt lat="43.97358" lon="3.24118">
        <ele>708.6</ele>
        <time>2021-08-14T15:36:29Z</time>
      </trkpt>
      <trkpt lat="43.9736" lon="3.24111">
        <ele>708.8</ele>
        <time>2021-08-14T15:36:31Z</time>
      </trkpt>
      <trkpt lat="43.97362" lon="3.24105">
        <ele>708.9</ele>
        <time>2021-08-14T15:36:33Z</time>
      </trkpt>
      <trkpt lat="43.97365" lon="3.241">
        <ele>709</ele>
        <time>2021-08-14T15:36:35Z</time>
      </trkpt>
      <trkpt lat="43.97369" lon="3.24095">
        <ele>709.2</ele>
        <time>2021-08-14T15:36:37Z</time>
      </trkpt>
      <trkpt lat="43.97373" lon="3.24093">
        <ele>709.3</ele>
        <time>2021-08-14T15:36:39Z</time>
      </trkpt>
      <trkpt lat="43.97377" lon="3.24088">
        <ele>709.4</ele>
        <time>2021-08-14T15:36:41Z</time>
      </trkpt>
      <trkpt lat="43.97381" lon="3.24084">
        <ele>709.6</ele>
        <time>2021-08-14T15:36:43Z</time>
      </trkpt>
      <trkpt lat="43.97384" lon="3.24078">
        <ele>709.6</ele>
        <time>2021-08-14T15:36:45Z</time>
      </trkpt>
      <trkpt lat="43.97387" lon="3.24074">
        <ele>709.7</ele>
        <time>2021-08-14T15:36:47Z</time>
      </trkpt>
      <trkpt lat="43.97389" lon="3.24068">
        <ele>709.8</ele>
        <time>2021-08-14T15:36:49Z</time>
      </trkpt>
      <trkpt lat="43.97392" lon="3.24061">
        <ele>709.9</ele>
        <time>2021-08-14T15:36:51Z</time>
      </trkpt>
      <trkpt lat="43.97395" lon="3.24056">
        <ele>710</ele>
        <time>2021-08-14T15:36:53Z</time>
      </trkpt>
      <trkpt lat="43.97398" lon="3.24049">
        <ele>710.1</ele>
        <time>2021-08-14T15:36:55Z</time>
      </trkpt>
      <trkpt lat="43.97399" lon="3.24044">
        <ele>710.2</ele>
        <time>2021-08-14T15:36:57Z</time>
      </trkpt>
      <trkpt lat="43.97398" lon="3.24039">
        <ele>710.2</ele>
        <time>2021-08-14T15:36:59Z</time>
      </trkpt>
      <trkpt lat="43.97399" lon="3.24031">
        <ele>710.3</ele>
        <time>2021-08-14T15:37:01Z</time>
      </trkpt>
      <trkpt lat="43.97402" lon="3.24024">
        <ele>710.4</ele>
        <time>2021-08-14T15:37:03Z</time>
      </trkpt>
      <trkpt lat="43.97402" lon="3.24019">
        <ele>710.5</ele>
        <time>2021-08-14T15:37:05Z</time>
      </trkpt>
      <trkpt lat="43.97403" lon="3.24012">
        <ele>710.5</ele>
        <time>2021-08-14T15:37:07Z</time>
      </trkpt>
      <trkpt lat="43.97402" lon="3.24003">
        <ele>710.6</ele>
        <time>2021-08-14T15:37:09Z</time>
      </trkpt>
      <trkpt lat="43.97404" lon="3.23996">
        <ele>710.7</ele>
        <time>2021-08-14T15:37:11Z</time>
      </trkpt>
      <trkpt lat="43.97405" lon="3.23991">
        <ele>710.6</ele>
        <time>2021-08-14T15:37:13Z</time>
      </trkpt>
      <trkpt lat="43.97407" lon="3.23982">
        <ele>710.6</ele>
        <time>2021-08-14T15:37:15Z</time>
      </trkpt>
      <trkpt lat="43.97408" lon="3.23975">
        <ele>710.5</ele>
        <time>2021-08-14T15:37:17Z</time>
      </trkpt>
      <trkpt lat="43.9741" lon="3.23969">
        <ele>710.5</ele>
        <time>2021-08-14T15:37:19Z</time>
      </trkpt>
      <trkpt lat="43.97414" lon="3.23965">
        <ele>710.5</ele>
        <time>2021-08-14T15:37:21Z</time>
      </trkpt>
      <trkpt lat="43.97415" lon="3.2396">
        <ele>710.5</ele>
        <time>2021-08-14T15:37:23Z</time>
      </trkpt>
      <trkpt lat="43.97418" lon="3.23955">
        <ele>710.4</ele>
        <time>2021-08-14T15:37:25Z</time>
      </trkpt>
      <trkpt lat="43.97421" lon="3.23949">
        <ele>710.3</ele>
        <time>2021-08-14T15:37:27Z</time>
      </trkpt>
      <trkpt lat="43.97423" lon="3.23943">
        <ele>710.2</ele>
        <time>2021-08-14T15:37:29Z</time>
      </trkpt>
      <trkpt lat="43.97426" lon="3.23936">
        <ele>710</ele>
        <time>2021-08-14T15:37:31Z</time>
      </trkpt>
      <trkpt lat="43.9743" lon="3.2393">
        <ele>709.8</ele>
        <time>2021-08-14T15:37:33Z</time>
      </trkpt>
      <trkpt lat="43.97434" lon="3.23923">
        <ele>709.7</ele>
        <time>2021-08-14T15:37:35Z</time>
      </trkpt>
      <trkpt lat="43.97436" lon="3.23915">
        <ele>709.5</ele>
        <time>2021-08-14T15:37:37Z</time>
      </trkpt>
      <trkpt lat="43.97439" lon="3.23909">
        <ele>709.3</ele>
        <time>2021-08-14T15:37:39Z</time>
      </trkpt>
      <trkpt lat="43.97441" lon="3.23903">
        <ele>709.2</ele>
        <time>2021-08-14T15:37:41Z</time>
      </trkpt>
      <trkpt lat="43.97442" lon="3.23896">
        <ele>709.1</ele>
        <time>2021-08-14T15:37:43Z</time>
      </trkpt>
      <trkpt lat="43.9744" lon="3.2389">
        <ele>709</ele>
        <time>2021-08-14T15:37:45Z</time>
      </trkpt>
      <trkpt lat="43.97439" lon="3.23885">
        <ele>708.9</ele>
        <time>2021-08-14T15:37:47Z</time>
      </trkpt>
      <trkpt lat="43.97439" lon="3.23878">
        <ele>708.8</ele>
        <time>2021-08-14T15:37:49Z</time>
      </trkpt>
      <trkpt lat="43.97438" lon="3.2387">
        <ele>708.7</ele>
        <time>2021-08-14T15:37:51Z</time>
      </trkpt>
      <trkpt lat="43.97438" lon="3.23862">
        <ele>708.5</ele>
        <time>2021-08-14T15:37:53Z</time>
      </trkpt>
      <trkpt lat="43.97438" lon="3.23852">
        <ele>708.3</ele>
        <time>2021-08-14T15:37:55Z</time>
      </trkpt>
      <trkpt lat="43.9744" lon="3.23842">
        <ele>708.2</ele>
        <time>2021-08-14T15:37:57Z</time>
      </trkpt>
      <trkpt lat="43.9744" lon="3.23832">
        <ele>708</ele>
        <time>2021-08-14T15:37:59Z</time>
      </trkpt>
      <trkpt lat="43.97439" lon="3.23821">
        <ele>708.1</ele>
        <time>2021-08-14T15:38:01Z</time>
      </trkpt>
      <trkpt lat="43.9744" lon="3.23812">
        <ele>708.3</ele>
        <time>2021-08-14T15:38:03Z</time>
      </trkpt>
      <trkpt lat="43.97441" lon="3.23803">
        <ele>708.4</ele>
        <time>2021-08-14T15:38:05Z</time>
      </trkpt>
      <trkpt lat="43.97443" lon="3.23794">
        <ele>708.5</ele>
        <time>2021-08-14T15:38:07Z</time>
      </trkpt>
      <trkpt lat="43.97446" lon="3.23788">
        <ele>708.5</ele>
        <time>2021-08-14T15:38:09Z</time>
      </trkpt>
      <trkpt lat="43.97448" lon="3.23781">
        <ele>708.6</ele>
        <time>2021-08-14T15:38:11Z</time>
      </trkpt>
      <trkpt lat="43.9745" lon="3.23774">
        <ele>708.7</ele>
        <time>2021-08-14T15:38:13Z</time>
      </trkpt>
      <trkpt lat="43.97451" lon="3.23766">
        <ele>708.8</ele>
        <time>2021-08-14T15:38:15Z</time>
      </trkpt>
      <trkpt lat="43.97454" lon="3.23759">
        <ele>708.9</ele>
        <time>2021-08-14T15:38:17Z</time>
      </trkpt>
      <trkpt lat="43.97457" lon="3.23753">
        <ele>709</ele>
        <time>2021-08-14T15:38:19Z</time>
      </trkpt>
      <trkpt lat="43.97461" lon="3.23747">
        <ele>709.1</ele>
        <time>2021-08-14T15:38:21Z</time>
      </trkpt>
      <trkpt lat="43.97465" lon="3.23743">
        <ele>709.2</ele>
        <time>2021-08-14T15:38:23Z</time>
      </trkpt>
      <trkpt lat="43.97469" lon="3.23737">
        <ele>709.3</ele>
        <time>2021-08-14T15:38:25Z</time>
      </trkpt>
      <trkpt lat="43.97474" lon="3.23734">
        <ele>709.4</ele>
        <time>2021-08-14T15:38:27Z</time>
      </trkpt>
      <trkpt lat="43.97479" lon="3.23731">
        <ele>709.5</ele>
        <time>2021-08-14T15:38:29Z</time>
      </trkpt>
      <trkpt lat="43.97485" lon="3.23728">
        <ele>709.5</ele>
        <time>2021-08-14T15:38:31Z</time>
      </trkpt>
      <trkpt lat="43.9749" lon="3.23725">
        <ele>709.6</ele>
        <time>2021-08-14T15:38:33Z</time>
      </trkpt>
      <trkpt lat="43.97497" lon="3.23723">
        <ele>709.6</ele>
        <time>2021-08-14T15:38:35Z</time>
      </trkpt>
      <trkpt lat="43.97503" lon="3.2372">
        <ele>709.8</ele>
        <time>2021-08-14T15:38:37Z</time>
      </trkpt>
      <trkpt lat="43.97508" lon="3.23719">
        <ele>710</ele>
        <time>2021-08-14T15:38:39Z</time>
      </trkpt>
      <trkpt lat="43.97513" lon="3.23715">
        <ele>710.2</ele>
        <time>2021-08-14T15:38:41Z</time>
      </trkpt>
      <trkpt lat="43.97516" lon="3.23711">
        <ele>710.4</ele>
        <time>2021-08-14T15:38:43Z</time>
      </trkpt>
      <trkpt lat="43.97521" lon="3.23705">
        <ele>710.7</ele>
        <time>2021-08-14T15:38:45Z</time>
      </trkpt>
      <trkpt lat="43.97527" lon="3.23704">
        <ele>710.9</ele>
        <time>2021-08-14T15:38:47Z</time>
      </trkpt>
      <trkpt lat="43.97533" lon="3.23704">
        <ele>711.1</ele>
        <time>2021-08-14T15:38:49Z</time>
      </trkpt>
      <trkpt lat="43.97538" lon="3.23701">
        <ele>711.3</ele>
        <time>2021-08-14T15:38:51Z</time>
      </trkpt>
      <trkpt lat="43.97544" lon="3.23696">
        <ele>711.5</ele>
        <time>2021-08-14T15:38:53Z</time>
      </trkpt>
      <trkpt lat="43.9755" lon="3.23693">
        <ele>711.8</ele>
        <time>2021-08-14T15:38:55Z</time>
      </trkpt>
      <trkpt lat="43.97556" lon="3.23687">
        <ele>712</ele>
        <time>2021-08-14T15:38:57Z</time>
      </trkpt>
      <trkpt lat="43.97561" lon="3.23682">
        <ele>712.2</ele>
        <time>2021-08-14T15:38:59Z</time>
      </trkpt>
      <trkpt lat="43.97567" lon="3.23678">
        <ele>712.4</ele>
        <time>2021-08-14T15:39:01Z</time>
      </trkpt>
      <trkpt lat="43.97573" lon="3.23674">
        <ele>712.6</ele>
        <time>2021-08-14T15:39:03Z</time>
      </trkpt>
      <trkpt lat="43.97579" lon="3.23671">
        <ele>712.8</ele>
        <time>2021-08-14T15:39:05Z</time>
      </trkpt>
      <trkpt lat="43.97585" lon="3.23669">
        <ele>713</ele>
        <time>2021-08-14T15:39:07Z</time>
      </trkpt>
      <trkpt lat="43.9759" lon="3.23667">
        <ele>713.1</ele>
        <time>2021-08-14T15:39:09Z</time>
      </trkpt>
      <trkpt lat="43.97596" lon="3.23664">
        <ele>713.1</ele>
        <time>2021-08-14T15:39:11Z</time>
      </trkpt>
      <trkpt lat="43.97603" lon="3.23662">
        <ele>713.2</ele>
        <time>2021-08-14T15:39:13Z</time>
      </trkpt>
      <trkpt lat="43.97607" lon="3.23661">
        <ele>713.2</ele>
        <time>2021-08-14T15:39:15Z</time>
      </trkpt>
      <trkpt lat="43.97614" lon="3.23657">
        <ele>713.2</ele>
        <time>2021-08-14T15:39:17Z</time>
      </trkpt>
      <trkpt lat="43.9762" lon="3.23655">
        <ele>713.2</ele>
        <time>2021-08-14T15:39:19Z</time>
      </trkpt>
      <trkpt lat="43.97625" lon="3.23653">
        <ele>713.3</ele>
        <time>2021-08-14T15:39:21Z</time>
      </trkpt>
      <trkpt lat="43.97631" lon="3.23652">
        <ele>713.3</ele>
        <time>2021-08-14T15:39:23Z</time>
      </trkpt>
      <trkpt lat="43.97639" lon="3.23649">
        <ele>713.3</ele>
        <time>2021-08-14T15:39:25Z</time>
      </trkpt>
      <trkpt lat="43.97646" lon="3.23647">
        <ele>713.3</ele>
        <time>2021-08-14T15:39:27Z</time>
      </trkpt>
      <trkpt lat="43.97653" lon="3.23645">
        <ele>713.4</ele>
        <time>2021-08-14T15:39:29Z</time>
      </trkpt>
      <trkpt lat="43.9766" lon="3.23644">
        <ele>713.4</ele>
        <time>2021-08-14T15:39:31Z</time>
      </trkpt>
      <trkpt lat="43.97668" lon="3.23644">
        <ele>713.5</ele>
        <time>2021-08-14T15:39:33Z</time>
      </trkpt>
      <trkpt lat="43.97674" lon="3.23643">
        <ele>713.6</ele>
        <time>2021-08-14T15:39:35Z</time>
      </trkpt>
      <trkpt lat="43.97681" lon="3.23641">
        <ele>713.7</ele>
        <time>2021-08-14T15:39:37Z</time>
      </trkpt>
      <trkpt lat="43.97688" lon="3.2364">
        <ele>713.8</ele>
        <time>2021-08-14T15:39:39Z</time>
      </trkpt>
      <trkpt lat="43.97695" lon="3.23638">
        <ele>713.9</ele>
        <time>2021-08-14T15:39:41Z</time>
      </trkpt>
      <trkpt lat="43.97701" lon="3.23637">
        <ele>714</ele>
        <time>2021-08-14T15:39:43Z</time>
      </trkpt>
      <trkpt lat="43.97708" lon="3.23635">
        <ele>714.1</ele>
        <time>2021-08-14T15:39:45Z</time>
      </trkpt>
      <trkpt lat="43.97714" lon="3.23634">
        <ele>714.2</ele>
        <time>2021-08-14T15:39:47Z</time>
      </trkpt>
      <trkpt lat="43.9772" lon="3.23632">
        <ele>714.3</ele>
        <time>2021-08-14T15:39:49Z</time>
      </trkpt>
      <trkpt lat="43.97726" lon="3.2363">
        <ele>714.5</ele>
        <time>2021-08-14T15:39:51Z</time>
      </trkpt>
      <trkpt lat="43.97731" lon="3.23629">
        <ele>714.6</ele>
        <time>2021-08-14T15:39:53Z</time>
      </trkpt>
      <trkpt lat="43.97736" lon="3.23627">
        <ele>714.7</ele>
        <time>2021-08-14T15:39:55Z</time>
      </trkpt>
      <trkpt lat="43.9774" lon="3.23624">
        <ele>714.8</ele>
        <time>2021-08-14T15:39:57Z</time>
      </trkpt>
      <trkpt lat="43.97745" lon="3.23623">
        <ele>714.9</ele>
        <time>2021-08-14T15:39:59Z</time>
      </trkpt>
      <trkpt lat="43.9775" lon="3.23622">
        <ele>715</ele>
        <time>2021-08-14T15:40:01Z</time>
      </trkpt>
      <trkpt lat="43.97755" lon="3.23621">
        <ele>715.3</ele>
        <time>2021-08-14T15:40:03Z</time>
      </trkpt>
      <trkpt lat="43.9776" lon="3.23617">
        <ele>715.7</ele>
        <time>2021-08-14T15:40:05Z</time>
      </trkpt>
      <trkpt lat="43.97765" lon="3.23615">
        <ele>716</ele>
        <time>2021-08-14T15:40:07Z</time>
      </trkpt>
      <trkpt lat="43.97769" lon="3.23612">
        <ele>716.2</ele>
        <time>2021-08-14T15:40:09Z</time>
      </trkpt>
      <trkpt lat="43.97774" lon="3.23609">
        <ele>716.6</ele>
        <time>2021-08-14T15:40:11Z</time>
      </trkpt>
      <trkpt lat="43.97779" lon="3.23608">
        <ele>716.8</ele>
        <time>2021-08-14T15:40:13Z</time>
      </trkpt>
      <trkpt lat="43.97783" lon="3.23606">
        <ele>717.1</ele>
        <time>2021-08-14T15:40:15Z</time>
      </trkpt>
      <trkpt lat="43.97787" lon="3.23605">
        <ele>717.3</ele>
        <time>2021-08-14T15:40:17Z</time>
      </trkpt>
      <trkpt lat="43.97792" lon="3.23602">
        <ele>717.6</ele>
        <time>2021-08-14T15:40:19Z</time>
      </trkpt>
      <trkpt lat="43.97796" lon="3.23598">
        <ele>717.9</ele>
        <time>2021-08-14T15:40:21Z</time>
      </trkpt>
      <trkpt lat="43.978" lon="3.23595">
        <ele>718.1</ele>
        <time>2021-08-14T15:40:23Z</time>
      </trkpt>
      <trkpt lat="43.97803" lon="3.2359">
        <ele>718.2</ele>
        <time>2021-08-14T15:40:25Z</time>
      </trkpt>
      <trkpt lat="43.97804" lon="3.23584">
        <ele>718.3</ele>
        <time>2021-08-14T15:40:27Z</time>
      </trkpt>
      <trkpt lat="43.97806" lon="3.23579">
        <ele>718.4</ele>
        <time>2021-08-14T15:40:29Z</time>
      </trkpt>
      <trkpt lat="43.97805" lon="3.23571">
        <ele>718.3</ele>
        <time>2021-08-14T15:40:31Z</time>
      </trkpt>
      <trkpt lat="43.97804" lon="3.23562">
        <ele>718.3</ele>
        <time>2021-08-14T15:40:33Z</time>
      </trkpt>
      <trkpt lat="43.97801" lon="3.23553">
        <ele>718.1</ele>
        <time>2021-08-14T15:40:35Z</time>
      </trkpt>
      <trkpt lat="43.97799" lon="3.23543">
        <ele>717.9</ele>
        <time>2021-08-14T15:40:37Z</time>
      </trkpt>
      <trkpt lat="43.97797" lon="3.23533">
        <ele>717.8</ele>
        <time>2021-08-14T15:40:39Z</time>
      </trkpt>
      <trkpt lat="43.97794" lon="3.23522">
        <ele>717.6</ele>
        <time>2021-08-14T15:40:41Z</time>
      </trkpt>
      <trkpt lat="43.97792" lon="3.23512">
        <ele>717.5</ele>
        <time>2021-08-14T15:40:43Z</time>
      </trkpt>
      <trkpt lat="43.9779" lon="3.23504">
        <ele>717.4</ele>
        <time>2021-08-14T15:40:45Z</time>
      </trkpt>
      <trkpt lat="43.97789" lon="3.23494">
        <ele>717.5</ele>
        <time>2021-08-14T15:40:47Z</time>
      </trkpt>
      <trkpt lat="43.97788" lon="3.23485">
        <ele>717.8</ele>
        <time>2021-08-14T15:40:49Z</time>
      </trkpt>
      <trkpt lat="43.97786" lon="3.23475">
        <ele>718</ele>
        <time>2021-08-14T15:40:51Z</time>
      </trkpt>
      <trkpt lat="43.97784" lon="3.23466">
        <ele>718.3</ele>
        <time>2021-08-14T15:40:53Z</time>
      </trkpt>
      <trkpt lat="43.97782" lon="3.23456">
        <ele>718.5</ele>
        <time>2021-08-14T15:40:55Z</time>
      </trkpt>
      <trkpt lat="43.9778" lon="3.23448">
        <ele>718.8</ele>
        <time>2021-08-14T15:40:57Z</time>
      </trkpt>
      <trkpt lat="43.97778" lon="3.23439">
        <ele>719.1</ele>
        <time>2021-08-14T15:40:59Z</time>
      </trkpt>
      <trkpt lat="43.97777" lon="3.2343">
        <ele>719.4</ele>
        <time>2021-08-14T15:41:01Z</time>
      </trkpt>
      <trkpt lat="43.97774" lon="3.23422">
        <ele>719.8</ele>
        <time>2021-08-14T15:41:03Z</time>
      </trkpt>
      <trkpt lat="43.97773" lon="3.23414">
        <ele>720.1</ele>
        <time>2021-08-14T15:41:05Z</time>
      </trkpt>
      <trkpt lat="43.97771" lon="3.23405">
        <ele>720.5</ele>
        <time>2021-08-14T15:41:07Z</time>
      </trkpt>
      <trkpt lat="43.97769" lon="3.23397">
        <ele>720.9</ele>
        <time>2021-08-14T15:41:09Z</time>
      </trkpt>
      <trkpt lat="43.97767" lon="3.23389">
        <ele>721.2</ele>
        <time>2021-08-14T15:41:11Z</time>
      </trkpt>
      <trkpt lat="43.97765" lon="3.2338">
        <ele>721.6</ele>
        <time>2021-08-14T15:41:13Z</time>
      </trkpt>
      <trkpt lat="43.97763" lon="3.23371">
        <ele>721.9</ele>
        <time>2021-08-14T15:41:15Z</time>
      </trkpt>
      <trkpt lat="43.97761" lon="3.23362">
        <ele>722.2</ele>
        <time>2021-08-14T15:41:17Z</time>
      </trkpt>
      <trkpt lat="43.97759" lon="3.23352">
        <ele>722.6</ele>
        <time>2021-08-14T15:41:19Z</time>
      </trkpt>
      <trkpt lat="43.97759" lon="3.23343">
        <ele>722.9</ele>
        <time>2021-08-14T15:41:21Z</time>
      </trkpt>
      <trkpt lat="43.97755" lon="3.23336">
        <ele>723.1</ele>
        <time>2021-08-14T15:41:23Z</time>
      </trkpt>
      <trkpt lat="43.97753" lon="3.23329">
        <ele>723.1</ele>
        <time>2021-08-14T15:41:25Z</time>
      </trkpt>
      <trkpt lat="43.97752" lon="3.23319">
        <ele>723.1</ele>
        <time>2021-08-14T15:41:27Z</time>
      </trkpt>
      <trkpt lat="43.97751" lon="3.23311">
        <ele>723</ele>
        <time>2021-08-14T15:41:29Z</time>
      </trkpt>
      <trkpt lat="43.9775" lon="3.23302">
        <ele>723</ele>
        <time>2021-08-14T15:41:31Z</time>
      </trkpt>
      <trkpt lat="43.97747" lon="3.23294">
        <ele>722.8</ele>
        <time>2021-08-14T15:41:33Z</time>
      </trkpt>
      <trkpt lat="43.97745" lon="3.23285">
        <ele>722.6</ele>
        <time>2021-08-14T15:41:35Z</time>
      </trkpt>
      <trkpt lat="43.97743" lon="3.23277">
        <ele>722.5</ele>
        <time>2021-08-14T15:41:37Z</time>
      </trkpt>
      <trkpt lat="43.97741" lon="3.23267">
        <ele>722.3</ele>
        <time>2021-08-14T15:41:39Z</time>
      </trkpt>
      <trkpt lat="43.97738" lon="3.23258">
        <ele>722.1</ele>
        <time>2021-08-14T15:41:41Z</time>
      </trkpt>
      <trkpt lat="43.97737" lon="3.23247">
        <ele>722.1</ele>
        <time>2021-08-14T15:41:43Z</time>
      </trkpt>
      <trkpt lat="43.97734" lon="3.23238">
        <ele>722.2</ele>
        <time>2021-08-14T15:41:45Z</time>
      </trkpt>
      <trkpt lat="43.97732" lon="3.2323">
        <ele>722.3</ele>
        <time>2021-08-14T15:41:47Z</time>
      </trkpt>
      <trkpt lat="43.97729" lon="3.2322">
        <ele>722.4</ele>
        <time>2021-08-14T15:41:49Z</time>
      </trkpt>
      <trkpt lat="43.97728" lon="3.23212">
        <ele>722.5</ele>
        <time>2021-08-14T15:41:51Z</time>
      </trkpt>
      <trkpt lat="43.97725" lon="3.23202">
        <ele>722.6</ele>
        <time>2021-08-14T15:41:53Z</time>
      </trkpt>
      <trkpt lat="43.97724" lon="3.23194">
        <ele>722.7</ele>
        <time>2021-08-14T15:41:55Z</time>
      </trkpt>
      <trkpt lat="43.9772" lon="3.23184">
        <ele>722.7</ele>
        <time>2021-08-14T15:41:57Z</time>
      </trkpt>
      <trkpt lat="43.97717" lon="3.23173">
        <ele>722.6</ele>
        <time>2021-08-14T15:41:59Z</time>
      </trkpt>
      <trkpt lat="43.97714" lon="3.23164">
        <ele>722.5</ele>
        <time>2021-08-14T15:42:01Z</time>
      </trkpt>
      <trkpt lat="43.97712" lon="3.23154">
        <ele>722.3</ele>
        <time>2021-08-14T15:42:03Z</time>
      </trkpt>
      <trkpt lat="43.97708" lon="3.23144">
        <ele>721.8</ele>
        <time>2021-08-14T15:42:05Z</time>
      </trkpt>
      <trkpt lat="43.97706" lon="3.23134">
        <ele>721.6</ele>
        <time>2021-08-14T15:42:07Z</time>
      </trkpt>
      <trkpt lat="43.97705" lon="3.23123">
        <ele>721.4</ele>
        <time>2021-08-14T15:42:09Z</time>
      </trkpt>
      <trkpt lat="43.97703" lon="3.23112">
        <ele>721.1</ele>
        <time>2021-08-14T15:42:11Z</time>
      </trkpt>
      <trkpt lat="43.97701" lon="3.23101">
        <ele>720.8</ele>
        <time>2021-08-14T15:42:13Z</time>
      </trkpt>
      <trkpt lat="43.97698" lon="3.23087">
        <ele>720.4</ele>
        <time>2021-08-14T15:42:15Z</time>
      </trkpt>
      <trkpt lat="43.97695" lon="3.23075">
        <ele>720</ele>
        <time>2021-08-14T15:42:17Z</time>
      </trkpt>
      <trkpt lat="43.97693" lon="3.23062">
        <ele>719.6</ele>
        <time>2021-08-14T15:42:19Z</time>
      </trkpt>
      <trkpt lat="43.9769" lon="3.23049">
        <ele>719.2</ele>
        <time>2021-08-14T15:42:21Z</time>
      </trkpt>
      <trkpt lat="43.97689" lon="3.23041">
        <ele>719</ele>
        <time>2021-08-14T15:42:23Z</time>
      </trkpt>
      <trkpt lat="43.97685" lon="3.23024">
        <ele>718.4</ele>
        <time>2021-08-14T15:42:25Z</time>
      </trkpt>
      <trkpt lat="43.97682" lon="3.23011">
        <ele>717.9</ele>
        <time>2021-08-14T15:42:27Z</time>
      </trkpt>
      <trkpt lat="43.9768" lon="3.22998">
        <ele>717.6</ele>
        <time>2021-08-14T15:42:29Z</time>
      </trkpt>
      <trkpt lat="43.97677" lon="3.22984">
        <ele>717.2</ele>
        <time>2021-08-14T15:42:31Z</time>
      </trkpt>
      <trkpt lat="43.97675" lon="3.2297">
        <ele>716.9</ele>
        <time>2021-08-14T15:42:33Z</time>
      </trkpt>
      <trkpt lat="43.97673" lon="3.22956">
        <ele>716.6</ele>
        <time>2021-08-14T15:42:35Z</time>
      </trkpt>
      <trkpt lat="43.9767" lon="3.22941">
        <ele>716.3</ele>
        <time>2021-08-14T15:42:37Z</time>
      </trkpt>
      <trkpt lat="43.97667" lon="3.22926">
        <ele>716</ele>
        <time>2021-08-14T15:42:39Z</time>
      </trkpt>
      <trkpt lat="43.97663" lon="3.22911">
        <ele>716.1</ele>
        <time>2021-08-14T15:42:41Z</time>
      </trkpt>
      <trkpt lat="43.97661" lon="3.22897">
        <ele>716.5</ele>
        <time>2021-08-14T15:42:43Z</time>
      </trkpt>
      <trkpt lat="43.97658" lon="3.22882">
        <ele>716.9</ele>
        <time>2021-08-14T15:42:45Z</time>
      </trkpt>
      <trkpt lat="43.97655" lon="3.22867">
        <ele>717.3</ele>
        <time>2021-08-14T15:42:47Z</time>
      </trkpt>
      <trkpt lat="43.97652" lon="3.22852">
        <ele>717.8</ele>
        <time>2021-08-14T15:42:49Z</time>
      </trkpt>
      <trkpt lat="43.97649" lon="3.22838">
        <ele>718.3</ele>
        <time>2021-08-14T15:42:51Z</time>
      </trkpt>
      <trkpt lat="43.97645" lon="3.22823">
        <ele>718.4</ele>
        <time>2021-08-14T15:42:53Z</time>
      </trkpt>
      <trkpt lat="43.97642" lon="3.22809">
        <ele>718.4</ele>
        <time>2021-08-14T15:42:55Z</time>
      </trkpt>
      <trkpt lat="43.97639" lon="3.22795">
        <ele>718.4</ele>
        <time>2021-08-14T15:42:57Z</time>
      </trkpt>
      <trkpt lat="43.97634" lon="3.22782">
        <ele>718.3</ele>
        <time>2021-08-14T15:42:59Z</time>
      </trkpt>
      <trkpt lat="43.97632" lon="3.22767">
        <ele>718.2</ele>
        <time>2021-08-14T15:43:01Z</time>
      </trkpt>
      <trkpt lat="43.97629" lon="3.22752">
        <ele>718</ele>
        <time>2021-08-14T15:43:03Z</time>
      </trkpt>
      <trkpt lat="43.97626" lon="3.22737">
        <ele>717.6</ele>
        <time>2021-08-14T15:43:05Z</time>
      </trkpt>
      <trkpt lat="43.97621" lon="3.22722">
        <ele>717</ele>
        <time>2021-08-14T15:43:07Z</time>
      </trkpt>
      <trkpt lat="43.97618" lon="3.22707">
        <ele>716.4</ele>
        <time>2021-08-14T15:43:09Z</time>
      </trkpt>
      <trkpt lat="43.97614" lon="3.22693">
        <ele>715.8</ele>
        <time>2021-08-14T15:43:11Z</time>
      </trkpt>
      <trkpt lat="43.97611" lon="3.22677">
        <ele>715.1</ele>
        <time>2021-08-14T15:43:13Z</time>
      </trkpt>
      <trkpt lat="43.97607" lon="3.22658">
        <ele>714.1</ele>
        <time>2021-08-14T15:43:15Z</time>
      </trkpt>
      <trkpt lat="43.97603" lon="3.22638">
        <ele>713</ele>
        <time>2021-08-14T15:43:17Z</time>
      </trkpt>
      <trkpt lat="43.97598" lon="3.22616">
        <ele>711.8</ele>
        <time>2021-08-14T15:43:19Z</time>
      </trkpt>
      <trkpt lat="43.97593" lon="3.22594">
        <ele>710.7</ele>
        <time>2021-08-14T15:43:21Z</time>
      </trkpt>
      <trkpt lat="43.97588" lon="3.22574">
        <ele>710.2</ele>
        <time>2021-08-14T15:43:23Z</time>
      </trkpt>
      <trkpt lat="43.97585" lon="3.22555">
        <ele>710.4</ele>
        <time>2021-08-14T15:43:25Z</time>
      </trkpt>
      <trkpt lat="43.97581" lon="3.22538">
        <ele>710.6</ele>
        <time>2021-08-14T15:43:27Z</time>
      </trkpt>
      <trkpt lat="43.97577" lon="3.22522">
        <ele>710.8</ele>
        <time>2021-08-14T15:43:29Z</time>
      </trkpt>
      <trkpt lat="43.97574" lon="3.22507">
        <ele>710.9</ele>
        <time>2021-08-14T15:43:31Z</time>
      </trkpt>
      <trkpt lat="43.9757" lon="3.22493">
        <ele>711.2</ele>
        <time>2021-08-14T15:43:33Z</time>
      </trkpt>
      <trkpt lat="43.97567" lon="3.2248">
        <ele>711.4</ele>
        <time>2021-08-14T15:43:35Z</time>
      </trkpt>
      <trkpt lat="43.97564" lon="3.22466">
        <ele>711.7</ele>
        <time>2021-08-14T15:43:37Z</time>
      </trkpt>
      <trkpt lat="43.97561" lon="3.22452">
        <ele>712</ele>
        <time>2021-08-14T15:43:39Z</time>
      </trkpt>
      <trkpt lat="43.97558" lon="3.22439">
        <ele>712.3</ele>
        <time>2021-08-14T15:43:41Z</time>
      </trkpt>
      <trkpt lat="43.97556" lon="3.22424">
        <ele>712.5</ele>
        <time>2021-08-14T15:43:43Z</time>
      </trkpt>
      <trkpt lat="43.97553" lon="3.2241">
        <ele>712.8</ele>
        <time>2021-08-14T15:43:45Z</time>
      </trkpt>
      <trkpt lat="43.9755" lon="3.22396">
        <ele>713.1</ele>
        <time>2021-08-14T15:43:47Z</time>
      </trkpt>
      <trkpt lat="43.97547" lon="3.22383">
        <ele>713.4</ele>
        <time>2021-08-14T15:43:49Z</time>
      </trkpt>
      <trkpt lat="43.97544" lon="3.2237">
        <ele>713.7</ele>
        <time>2021-08-14T15:43:51Z</time>
      </trkpt>
      <trkpt lat="43.97542" lon="3.22357">
        <ele>713.9</ele>
        <time>2021-08-14T15:43:53Z</time>
      </trkpt>
      <trkpt lat="43.97539" lon="3.22346">
        <ele>714.1</ele>
        <time>2021-08-14T15:43:55Z</time>
      </trkpt>
      <trkpt lat="43.97537" lon="3.22334">
        <ele>714.3</ele>
        <time>2021-08-14T15:43:57Z</time>
      </trkpt>
      <trkpt lat="43.97535" lon="3.22324">
        <ele>714.5</ele>
        <time>2021-08-14T15:43:59Z</time>
      </trkpt>
      <trkpt lat="43.97533" lon="3.22313">
        <ele>714.8</ele>
        <time>2021-08-14T15:44:01Z</time>
      </trkpt>
      <trkpt lat="43.97531" lon="3.22302">
        <ele>715</ele>
        <time>2021-08-14T15:44:03Z</time>
      </trkpt>
      <trkpt lat="43.97529" lon="3.22291">
        <ele>715.2</ele>
        <time>2021-08-14T15:44:05Z</time>
      </trkpt>
      <trkpt lat="43.97527" lon="3.2228">
        <ele>715.4</ele>
        <time>2021-08-14T15:44:07Z</time>
      </trkpt>
      <trkpt lat="43.97524" lon="3.22269">
        <ele>715.6</ele>
        <time>2021-08-14T15:44:09Z</time>
      </trkpt>
      <trkpt lat="43.97522" lon="3.22259">
        <ele>715.8</ele>
        <time>2021-08-14T15:44:11Z</time>
      </trkpt>
      <trkpt lat="43.97519" lon="3.22248">
        <ele>716</ele>
        <time>2021-08-14T15:44:13Z</time>
      </trkpt>
      <trkpt lat="43.97518" lon="3.22236">
        <ele>716</ele>
        <time>2021-08-14T15:44:15Z</time>
      </trkpt>
      <trkpt lat="43.97516" lon="3.22223">
        <ele>716</ele>
        <time>2021-08-14T15:44:17Z</time>
      </trkpt>
      <trkpt lat="43.97512" lon="3.22211">
        <ele>715.9</ele>
        <time>2021-08-14T15:44:19Z</time>
      </trkpt>
      <trkpt lat="43.9751" lon="3.22197">
        <ele>716</ele>
        <time>2021-08-14T15:44:21Z</time>
      </trkpt>
      <trkpt lat="43.97507" lon="3.22184">
        <ele>716</ele>
        <time>2021-08-14T15:44:23Z</time>
      </trkpt>
      <trkpt lat="43.97504" lon="3.22169">
        <ele>716.1</ele>
        <time>2021-08-14T15:44:25Z</time>
      </trkpt>
      <trkpt lat="43.97501" lon="3.22154">
        <ele>715.9</ele>
        <time>2021-08-14T15:44:27Z</time>
      </trkpt>
      <trkpt lat="43.97496" lon="3.22139">
        <ele>715.5</ele>
        <time>2021-08-14T15:44:29Z</time>
      </trkpt>
      <trkpt lat="43.97491" lon="3.22125">
        <ele>715.2</ele>
        <time>2021-08-14T15:44:31Z</time>
      </trkpt>
      <trkpt lat="43.97485" lon="3.22113">
        <ele>714.9</ele>
        <time>2021-08-14T15:44:33Z</time>
      </trkpt>
      <trkpt lat="43.97479" lon="3.22099">
        <ele>714.6</ele>
        <time>2021-08-14T15:44:35Z</time>
      </trkpt>
      <trkpt lat="43.97474" lon="3.22086">
        <ele>714.4</ele>
        <time>2021-08-14T15:44:37Z</time>
      </trkpt>
      <trkpt lat="43.9747" lon="3.22072">
        <ele>714.4</ele>
        <time>2021-08-14T15:44:39Z</time>
      </trkpt>
      <trkpt lat="43.97466" lon="3.22058">
        <ele>714.4</ele>
        <time>2021-08-14T15:44:41Z</time>
      </trkpt>
      <trkpt lat="43.97464" lon="3.22044">
        <ele>714.4</ele>
        <time>2021-08-14T15:44:43Z</time>
      </trkpt>
      <trkpt lat="43.97461" lon="3.22031">
        <ele>714.4</ele>
        <time>2021-08-14T15:44:45Z</time>
      </trkpt>
      <trkpt lat="43.9746" lon="3.22017">
        <ele>714.4</ele>
        <time>2021-08-14T15:44:47Z</time>
      </trkpt>
      <trkpt lat="43.97458" lon="3.22004">
        <ele>714.5</ele>
        <time>2021-08-14T15:44:49Z</time>
      </trkpt>
      <trkpt lat="43.97456" lon="3.21991">
        <ele>714.8</ele>
        <time>2021-08-14T15:44:51Z</time>
      </trkpt>
      <trkpt lat="43.97454" lon="3.21978">
        <ele>715.3</ele>
        <time>2021-08-14T15:44:53Z</time>
      </trkpt>
      <trkpt lat="43.97452" lon="3.21965">
        <ele>715.7</ele>
        <time>2021-08-14T15:44:55Z</time>
      </trkpt>
      <trkpt lat="43.97451" lon="3.21952">
        <ele>716.2</ele>
        <time>2021-08-14T15:44:57Z</time>
      </trkpt>
      <trkpt lat="43.97448" lon="3.21939">
        <ele>716.6</ele>
        <time>2021-08-14T15:44:59Z</time>
      </trkpt>
      <trkpt lat="43.97446" lon="3.21927">
        <ele>717</ele>
        <time>2021-08-14T15:45:01Z</time>
      </trkpt>
      <trkpt lat="43.97443" lon="3.21916">
        <ele>717.3</ele>
        <time>2021-08-14T15:45:03Z</time>
      </trkpt>
      <trkpt lat="43.97441" lon="3.21906">
        <ele>717.7</ele>
        <time>2021-08-14T15:45:05Z</time>
      </trkpt>
      <trkpt lat="43.97439" lon="3.21896">
        <ele>718</ele>
        <time>2021-08-14T15:45:07Z</time>
      </trkpt>
      <trkpt lat="43.97437" lon="3.21886">
        <ele>718.4</ele>
        <time>2021-08-14T15:45:09Z</time>
      </trkpt>
      <trkpt lat="43.97433" lon="3.21876">
        <ele>718.8</ele>
        <time>2021-08-14T15:45:11Z</time>
      </trkpt>
      <trkpt lat="43.9743" lon="3.21866">
        <ele>719.1</ele>
        <time>2021-08-14T15:45:13Z</time>
      </trkpt>
      <trkpt lat="43.97428" lon="3.21856">
        <ele>719.4</ele>
        <time>2021-08-14T15:45:15Z</time>
      </trkpt>
      <trkpt lat="43.97425" lon="3.21846">
        <ele>719.8</ele>
        <time>2021-08-14T15:45:17Z</time>
      </trkpt>
      <trkpt lat="43.97422" lon="3.21836">
        <ele>720.2</ele>
        <time>2021-08-14T15:45:19Z</time>
      </trkpt>
      <trkpt lat="43.9742" lon="3.21826">
        <ele>720.2</ele>
        <time>2021-08-14T15:45:21Z</time>
      </trkpt>
      <trkpt lat="43.97417" lon="3.21816">
        <ele>720.2</ele>
        <time>2021-08-14T15:45:23Z</time>
      </trkpt>
      <trkpt lat="43.97415" lon="3.21807">
        <ele>720.3</ele>
        <time>2021-08-14T15:45:25Z</time>
      </trkpt>
      <trkpt lat="43.97414" lon="3.21797">
        <ele>720.3</ele>
        <time>2021-08-14T15:45:27Z</time>
      </trkpt>
      <trkpt lat="43.97414" lon="3.21787">
        <ele>720.5</ele>
        <time>2021-08-14T15:45:29Z</time>
      </trkpt>
      <trkpt lat="43.97415" lon="3.21776">
        <ele>720.6</ele>
        <time>2021-08-14T15:45:31Z</time>
      </trkpt>
      <trkpt lat="43.97416" lon="3.21766">
        <ele>720.8</ele>
        <time>2021-08-14T15:45:33Z</time>
      </trkpt>
      <trkpt lat="43.97417" lon="3.21756">
        <ele>721</ele>
        <time>2021-08-14T15:45:35Z</time>
      </trkpt>
      <trkpt lat="43.97418" lon="3.21745">
        <ele>721</ele>
        <time>2021-08-14T15:45:37Z</time>
      </trkpt>
      <trkpt lat="43.97419" lon="3.21735">
        <ele>720.9</ele>
        <time>2021-08-14T15:45:39Z</time>
      </trkpt>
      <trkpt lat="43.97419" lon="3.21723">
        <ele>720.8</ele>
        <time>2021-08-14T15:45:41Z</time>
      </trkpt>
      <trkpt lat="43.97418" lon="3.21713">
        <ele>720.7</ele>
        <time>2021-08-14T15:45:43Z</time>
      </trkpt>
      <trkpt lat="43.97416" lon="3.21703">
        <ele>720.4</ele>
        <time>2021-08-14T15:45:45Z</time>
      </trkpt>
      <trkpt lat="43.97413" lon="3.21693">
        <ele>720.3</ele>
        <time>2021-08-14T15:45:47Z</time>
      </trkpt>
      <trkpt lat="43.97409" lon="3.21683">
        <ele>720.2</ele>
        <time>2021-08-14T15:45:49Z</time>
      </trkpt>
      <trkpt lat="43.97405" lon="3.21674">
        <ele>720.2</ele>
        <time>2021-08-14T15:45:51Z</time>
      </trkpt>
      <trkpt lat="43.97399" lon="3.21665">
        <ele>720.3</ele>
        <time>2021-08-14T15:45:53Z</time>
      </trkpt>
      <trkpt lat="43.97394" lon="3.21655">
        <ele>720.6</ele>
        <time>2021-08-14T15:45:55Z</time>
      </trkpt>
      <trkpt lat="43.97388" lon="3.21645">
        <ele>721</ele>
        <time>2021-08-14T15:45:57Z</time>
      </trkpt>
      <trkpt lat="43.97385" lon="3.21633">
        <ele>721.4</ele>
        <time>2021-08-14T15:45:59Z</time>
      </trkpt>
      <trkpt lat="43.97383" lon="3.21622">
        <ele>721.8</ele>
        <time>2021-08-14T15:46:01Z</time>
      </trkpt>
      <trkpt lat="43.97381" lon="3.21611">
        <ele>722.1</ele>
        <time>2021-08-14T15:46:03Z</time>
      </trkpt>
      <trkpt lat="43.9738" lon="3.21601">
        <ele>722.5</ele>
        <time>2021-08-14T15:46:05Z</time>
      </trkpt>
      <trkpt lat="43.9738" lon="3.21591">
        <ele>722.8</ele>
        <time>2021-08-14T15:46:07Z</time>
      </trkpt>
      <trkpt lat="43.9738" lon="3.21581">
        <ele>723</ele>
        <time>2021-08-14T15:46:09Z</time>
      </trkpt>
      <trkpt lat="43.9738" lon="3.21572">
        <ele>723.2</ele>
        <time>2021-08-14T15:46:11Z</time>
      </trkpt>
      <trkpt lat="43.9738" lon="3.21564">
        <ele>723.4</ele>
        <time>2021-08-14T15:46:13Z</time>
      </trkpt>
      <trkpt lat="43.97381" lon="3.21556">
        <ele>723.6</ele>
        <time>2021-08-14T15:46:15Z</time>
      </trkpt>
      <trkpt lat="43.97382" lon="3.21548">
        <ele>723.7</ele>
        <time>2021-08-14T15:46:17Z</time>
      </trkpt>
      <trkpt lat="43.97382" lon="3.2154">
        <ele>723.9</ele>
        <time>2021-08-14T15:46:19Z</time>
      </trkpt>
      <trkpt lat="43.97383" lon="3.21532">
        <ele>724.1</ele>
        <time>2021-08-14T15:46:21Z</time>
      </trkpt>
      <trkpt lat="43.97384" lon="3.21524">
        <ele>724.3</ele>
        <time>2021-08-14T15:46:23Z</time>
      </trkpt>
      <trkpt lat="43.97384" lon="3.21516">
        <ele>724.5</ele>
        <time>2021-08-14T15:46:25Z</time>
      </trkpt>
      <trkpt lat="43.97385" lon="3.21507">
        <ele>724.7</ele>
        <time>2021-08-14T15:46:27Z</time>
      </trkpt>
      <trkpt lat="43.97386" lon="3.21499">
        <ele>724.9</ele>
        <time>2021-08-14T15:46:29Z</time>
      </trkpt>
      <trkpt lat="43.97386" lon="3.2149">
        <ele>725.1</ele>
        <time>2021-08-14T15:46:31Z</time>
      </trkpt>
      <trkpt lat="43.97387" lon="3.21482">
        <ele>725.3</ele>
        <time>2021-08-14T15:46:33Z</time>
      </trkpt>
      <trkpt lat="43.97388" lon="3.21474">
        <ele>725.5</ele>
        <time>2021-08-14T15:46:35Z</time>
      </trkpt>
      <trkpt lat="43.97387" lon="3.21467">
        <ele>725.6</ele>
        <time>2021-08-14T15:46:37Z</time>
      </trkpt>
      <trkpt lat="43.97387" lon="3.21459">
        <ele>725.7</ele>
        <time>2021-08-14T15:46:39Z</time>
      </trkpt>
      <trkpt lat="43.97388" lon="3.21452">
        <ele>725.9</ele>
        <time>2021-08-14T15:46:41Z</time>
      </trkpt>
      <trkpt lat="43.97388" lon="3.21443">
        <ele>726.1</ele>
        <time>2021-08-14T15:46:43Z</time>
      </trkpt>
      <trkpt lat="43.97387" lon="3.21435">
        <ele>726.2</ele>
        <time>2021-08-14T15:46:45Z</time>
      </trkpt>
      <trkpt lat="43.97387" lon="3.21427">
        <ele>726.4</ele>
        <time>2021-08-14T15:46:47Z</time>
      </trkpt>
      <trkpt lat="43.97386" lon="3.2142">
        <ele>726.5</ele>
        <time>2021-08-14T15:46:49Z</time>
      </trkpt>
      <trkpt lat="43.97386" lon="3.21412">
        <ele>726.6</ele>
        <time>2021-08-14T15:46:51Z</time>
      </trkpt>
      <trkpt lat="43.97386" lon="3.21403">
        <ele>726.7</ele>
        <time>2021-08-14T15:46:53Z</time>
      </trkpt>
      <trkpt lat="43.97385" lon="3.21395">
        <ele>726.7</ele>
        <time>2021-08-14T15:46:55Z</time>
      </trkpt>
      <trkpt lat="43.97385" lon="3.21386">
        <ele>726.9</ele>
        <time>2021-08-14T15:46:57Z</time>
      </trkpt>
      <trkpt lat="43.97385" lon="3.21377">
        <ele>726.9</ele>
        <time>2021-08-14T15:46:59Z</time>
      </trkpt>
      <trkpt lat="43.97384" lon="3.21368">
        <ele>727</ele>
        <time>2021-08-14T15:47:01Z</time>
      </trkpt>
      <trkpt lat="43.97384" lon="3.21359">
        <ele>727.1</ele>
        <time>2021-08-14T15:47:03Z</time>
      </trkpt>
      <trkpt lat="43.97383" lon="3.2135">
        <ele>727.2</ele>
        <time>2021-08-14T15:47:05Z</time>
      </trkpt>
      <trkpt lat="43.97383" lon="3.2134">
        <ele>727.3</ele>
        <time>2021-08-14T15:47:07Z</time>
      </trkpt>
      <trkpt lat="43.97382" lon="3.21329">
        <ele>727.4</ele>
        <time>2021-08-14T15:47:09Z</time>
      </trkpt>
      <trkpt lat="43.97381" lon="3.21318">
        <ele>727.5</ele>
        <time>2021-08-14T15:47:11Z</time>
      </trkpt>
      <trkpt lat="43.9738" lon="3.21306">
        <ele>727.6</ele>
        <time>2021-08-14T15:47:13Z</time>
      </trkpt>
      <trkpt lat="43.97378" lon="3.21294">
        <ele>727.6</ele>
        <time>2021-08-14T15:47:15Z</time>
      </trkpt>
      <trkpt lat="43.97377" lon="3.21281">
        <ele>727.7</ele>
        <time>2021-08-14T15:47:17Z</time>
      </trkpt>
      <trkpt lat="43.97374" lon="3.21269">
        <ele>727.7</ele>
        <time>2021-08-14T15:47:19Z</time>
      </trkpt>
      <trkpt lat="43.97372" lon="3.21256">
        <ele>727.8</ele>
        <time>2021-08-14T15:47:21Z</time>
      </trkpt>
      <trkpt lat="43.97369" lon="3.21244">
        <ele>727.9</ele>
        <time>2021-08-14T15:47:23Z</time>
      </trkpt>
      <trkpt lat="43.97365" lon="3.21233">
        <ele>728</ele>
        <time>2021-08-14T15:47:25Z</time>
      </trkpt>
      <trkpt lat="43.97361" lon="3.21221">
        <ele>728</ele>
        <time>2021-08-14T15:47:27Z</time>
      </trkpt>
      <trkpt lat="43.97357" lon="3.2121">
        <ele>728.1</ele>
        <time>2021-08-14T15:47:29Z</time>
      </trkpt>
      <trkpt lat="43.97353" lon="3.21198">
        <ele>728</ele>
        <time>2021-08-14T15:47:31Z</time>
      </trkpt>
      <trkpt lat="43.97349" lon="3.21187">
        <ele>727.9</ele>
        <time>2021-08-14T15:47:33Z</time>
      </trkpt>
      <trkpt lat="43.97344" lon="3.21177">
        <ele>727.7</ele>
        <time>2021-08-14T15:47:35Z</time>
      </trkpt>
      <trkpt lat="43.97341" lon="3.21165">
        <ele>727.7</ele>
        <time>2021-08-14T15:47:37Z</time>
      </trkpt>
      <trkpt lat="43.97337" lon="3.21156">
        <ele>728</ele>
        <time>2021-08-14T15:47:39Z</time>
      </trkpt>
      <trkpt lat="43.97333" lon="3.21146">
        <ele>728.2</ele>
        <time>2021-08-14T15:47:41Z</time>
      </trkpt>
      <trkpt lat="43.9733" lon="3.21138">
        <ele>728.6</ele>
        <time>2021-08-14T15:47:43Z</time>
      </trkpt>
      <trkpt lat="43.97327" lon="3.21129">
        <ele>728.9</ele>
        <time>2021-08-14T15:47:45Z</time>
      </trkpt>
      <trkpt lat="43.97324" lon="3.21122">
        <ele>729.2</ele>
        <time>2021-08-14T15:47:47Z</time>
      </trkpt>
      <trkpt lat="43.97322" lon="3.21113">
        <ele>729.5</ele>
        <time>2021-08-14T15:47:49Z</time>
      </trkpt>
      <trkpt lat="43.97319" lon="3.21105">
        <ele>729.8</ele>
        <time>2021-08-14T15:47:51Z</time>
      </trkpt>
      <trkpt lat="43.97318" lon="3.21095">
        <ele>730.3</ele>
        <time>2021-08-14T15:47:53Z</time>
      </trkpt>
      <trkpt lat="43.97317" lon="3.21087">
        <ele>730.6</ele>
        <time>2021-08-14T15:47:55Z</time>
      </trkpt>
      <trkpt lat="43.97316" lon="3.21078">
        <ele>730.8</ele>
        <time>2021-08-14T15:47:57Z</time>
      </trkpt>
      <trkpt lat="43.97315" lon="3.2107">
        <ele>730.8</ele>
        <time>2021-08-14T15:47:59Z</time>
      </trkpt>
      <trkpt lat="43.97315" lon="3.21061">
        <ele>730.9</ele>
        <time>2021-08-14T15:48:01Z</time>
      </trkpt>
      <trkpt lat="43.97314" lon="3.21053">
        <ele>730.9</ele>
        <time>2021-08-14T15:48:03Z</time>
      </trkpt>
      <trkpt lat="43.97314" lon="3.21044">
        <ele>731</ele>
        <time>2021-08-14T15:48:05Z</time>
      </trkpt>
      <trkpt lat="43.97314" lon="3.21035">
        <ele>731.1</ele>
        <time>2021-08-14T15:48:07Z</time>
      </trkpt>
      <trkpt lat="43.97314" lon="3.21025">
        <ele>731.1</ele>
        <time>2021-08-14T15:48:09Z</time>
      </trkpt>
      <trkpt lat="43.97314" lon="3.21015">
        <ele>731.3</ele>
        <time>2021-08-14T15:48:11Z</time>
      </trkpt>
      <trkpt lat="43.97314" lon="3.21003">
        <ele>731.3</ele>
        <time>2021-08-14T15:48:13Z</time>
      </trkpt>
      <trkpt lat="43.97314" lon="3.20991">
        <ele>731.3</ele>
        <time>2021-08-14T15:48:15Z</time>
      </trkpt>
      <trkpt lat="43.97314" lon="3.20978">
        <ele>731.3</ele>
        <time>2021-08-14T15:48:17Z</time>
      </trkpt>
      <trkpt lat="43.97314" lon="3.20966">
        <ele>731.3</ele>
        <time>2021-08-14T15:48:19Z</time>
      </trkpt>
      <trkpt lat="43.97314" lon="3.20954">
        <ele>731.2</ele>
        <time>2021-08-14T15:48:21Z</time>
      </trkpt>
      <trkpt lat="43.97312" lon="3.20941">
        <ele>731.1</ele>
        <time>2021-08-14T15:48:23Z</time>
      </trkpt>
      <trkpt lat="43.97311" lon="3.20927">
        <ele>730.9</ele>
        <time>2021-08-14T15:48:25Z</time>
      </trkpt>
      <trkpt lat="43.97308" lon="3.20916">
        <ele>730.8</ele>
        <time>2021-08-14T15:48:27Z</time>
      </trkpt>
      <trkpt lat="43.97305" lon="3.20903">
        <ele>730.9</ele>
        <time>2021-08-14T15:48:29Z</time>
      </trkpt>
      <trkpt lat="43.97303" lon="3.20891">
        <ele>731.1</ele>
        <time>2021-08-14T15:48:31Z</time>
      </trkpt>
      <trkpt lat="43.97298" lon="3.20881">
        <ele>731.1</ele>
        <time>2021-08-14T15:48:33Z</time>
      </trkpt>
      <trkpt lat="43.97294" lon="3.20871">
        <ele>731.2</ele>
        <time>2021-08-14T15:48:35Z</time>
      </trkpt>
      <trkpt lat="43.9729" lon="3.20861">
        <ele>731.3</ele>
        <time>2021-08-14T15:48:37Z</time>
      </trkpt>
      <trkpt lat="43.97285" lon="3.20852">
        <ele>731.4</ele>
        <time>2021-08-14T15:48:39Z</time>
      </trkpt>
      <trkpt lat="43.97281" lon="3.20843">
        <ele>731.5</ele>
        <time>2021-08-14T15:48:41Z</time>
      </trkpt>
      <trkpt lat="43.97278" lon="3.20834">
        <ele>731.6</ele>
        <time>2021-08-14T15:48:43Z</time>
      </trkpt>
      <trkpt lat="43.97275" lon="3.20826">
        <ele>731.8</ele>
        <time>2021-08-14T15:48:45Z</time>
      </trkpt>
      <trkpt lat="43.97273" lon="3.20818">
        <ele>732.1</ele>
        <time>2021-08-14T15:48:47Z</time>
      </trkpt>
      <trkpt lat="43.97271" lon="3.2081">
        <ele>732.3</ele>
        <time>2021-08-14T15:48:49Z</time>
      </trkpt>
      <trkpt lat="43.9727" lon="3.20802">
        <ele>732.5</ele>
        <time>2021-08-14T15:48:51Z</time>
      </trkpt>
      <trkpt lat="43.97269" lon="3.20795">
        <ele>732.7</ele>
        <time>2021-08-14T15:48:53Z</time>
      </trkpt>
      <trkpt lat="43.97269" lon="3.20786">
        <ele>733</ele>
        <time>2021-08-14T15:48:55Z</time>
      </trkpt>
      <trkpt lat="43.97268" lon="3.20778">
        <ele>733.2</ele>
        <time>2021-08-14T15:48:57Z</time>
      </trkpt>
      <trkpt lat="43.97268" lon="3.2077">
        <ele>733.4</ele>
        <time>2021-08-14T15:48:59Z</time>
      </trkpt>
      <trkpt lat="43.97268" lon="3.20762">
        <ele>733.7</ele>
        <time>2021-08-14T15:49:01Z</time>
      </trkpt>
      <trkpt lat="43.97268" lon="3.20754">
        <ele>733.9</ele>
        <time>2021-08-14T15:49:03Z</time>
      </trkpt>
      <trkpt lat="43.97269" lon="3.20746">
        <ele>734.3</ele>
        <time>2021-08-14T15:49:05Z</time>
      </trkpt>
      <trkpt lat="43.97269" lon="3.20739">
        <ele>734.7</ele>
        <time>2021-08-14T15:49:07Z</time>
      </trkpt>
      <trkpt lat="43.97268" lon="3.20732">
        <ele>735</ele>
        <time>2021-08-14T15:49:09Z</time>
      </trkpt>
      <trkpt lat="43.97268" lon="3.20725">
        <ele>735.4</ele>
        <time>2021-08-14T15:49:11Z</time>
      </trkpt>
      <trkpt lat="43.97268" lon="3.20719">
        <ele>735.7</ele>
        <time>2021-08-14T15:49:13Z</time>
      </trkpt>
      <trkpt lat="43.97268" lon="3.20712">
        <ele>736.1</ele>
        <time>2021-08-14T15:49:15Z</time>
      </trkpt>
      <trkpt lat="43.97267" lon="3.20705">
        <ele>736.4</ele>
        <time>2021-08-14T15:49:17Z</time>
      </trkpt>
      <trkpt lat="43.97267" lon="3.20698">
        <ele>736.7</ele>
        <time>2021-08-14T15:49:19Z</time>
      </trkpt>
      <trkpt lat="43.97266" lon="3.20692">
        <ele>737.1</ele>
        <time>2021-08-14T15:49:21Z</time>
      </trkpt>
      <trkpt lat="43.97265" lon="3.20685">
        <ele>737.4</ele>
        <time>2021-08-14T15:49:23Z</time>
      </trkpt>
      <trkpt lat="43.97265" lon="3.20678">
        <ele>737.7</ele>
        <time>2021-08-14T15:49:25Z</time>
      </trkpt>
      <trkpt lat="43.97263" lon="3.20672">
        <ele>738</ele>
        <time>2021-08-14T15:49:27Z</time>
      </trkpt>
      <trkpt lat="43.97262" lon="3.20665">
        <ele>738.4</ele>
        <time>2021-08-14T15:49:29Z</time>
      </trkpt>
      <trkpt lat="43.9726" lon="3.20659">
        <ele>738.8</ele>
        <time>2021-08-14T15:49:31Z</time>
      </trkpt>
      <trkpt lat="43.97259" lon="3.20653">
        <ele>739.1</ele>
        <time>2021-08-14T15:49:33Z</time>
      </trkpt>
      <trkpt lat="43.97257" lon="3.20648">
        <ele>739.5</ele>
        <time>2021-08-14T15:49:35Z</time>
      </trkpt>
      <trkpt lat="43.97255" lon="3.20642">
        <ele>739.9</ele>
        <time>2021-08-14T15:49:37Z</time>
      </trkpt>
      <trkpt lat="43.97253" lon="3.20637">
        <ele>740.2</ele>
        <time>2021-08-14T15:49:39Z</time>
      </trkpt>
      <trkpt lat="43.97251" lon="3.20632">
        <ele>740.5</ele>
        <time>2021-08-14T15:49:41Z</time>
      </trkpt>
      <trkpt lat="43.97248" lon="3.20627">
        <ele>740.8</ele>
        <time>2021-08-14T15:49:43Z</time>
      </trkpt>
      <trkpt lat="43.97246" lon="3.20623">
        <ele>740.9</ele>
        <time>2021-08-14T15:49:45Z</time>
      </trkpt>
      <trkpt lat="43.97242" lon="3.20622">
        <ele>740.8</ele>
        <time>2021-08-14T15:49:47Z</time>
      </trkpt>
      <trkpt lat="43.97242" lon="3.20621">
        <ele>740.9</ele>
        <time>2021-08-14T15:49:49Z</time>
      </trkpt>
      <trkpt lat="43.9724" lon="3.20617">
        <ele>741</ele>
        <time>2021-08-14T15:49:51Z</time>
      </trkpt>
      <trkpt lat="43.97237" lon="3.20612">
        <ele>741.2</ele>
        <time>2021-08-14T15:49:53Z</time>
      </trkpt>
      <trkpt lat="43.97235" lon="3.20607">
        <ele>741.4</ele>
        <time>2021-08-14T15:49:55Z</time>
      </trkpt>
      <trkpt lat="43.97233" lon="3.20603">
        <ele>741.5</ele>
        <time>2021-08-14T15:49:57Z</time>
      </trkpt>
      <trkpt lat="43.97228" lon="3.20601">
        <ele>741.4</ele>
        <time>2021-08-14T15:49:59Z</time>
      </trkpt>
      <trkpt lat="43.97225" lon="3.20594">
        <ele>741.6</ele>
        <time>2021-08-14T15:50:01Z</time>
      </trkpt>
      <trkpt lat="43.97222" lon="3.20589">
        <ele>741.6</ele>
        <time>2021-08-14T15:50:03Z</time>
      </trkpt>
      <trkpt lat="43.97218" lon="3.20582">
        <ele>741.7</ele>
        <time>2021-08-14T15:50:05Z</time>
      </trkpt>
      <trkpt lat="43.97216" lon="3.20575">
        <ele>741.4</ele>
        <time>2021-08-14T15:50:07Z</time>
      </trkpt>
      <trkpt lat="43.97213" lon="3.20569">
        <ele>741.1</ele>
        <time>2021-08-14T15:50:09Z</time>
      </trkpt>
      <trkpt lat="43.97211" lon="3.20564">
        <ele>740.9</ele>
        <time>2021-08-14T15:50:11Z</time>
      </trkpt>
      <trkpt lat="43.97211" lon="3.20559">
        <ele>740.7</ele>
        <time>2021-08-14T15:50:13Z</time>
      </trkpt>
      <trkpt lat="43.9721" lon="3.20557">
        <ele>740.7</ele>
        <time>2021-08-14T15:50:15Z</time>
      </trkpt>
      <trkpt lat="43.97211" lon="3.20557">
        <ele>740.7</ele>
        <time>2021-08-14T15:50:17Z</time>
      </trkpt>
      <trkpt lat="43.97211" lon="3.20557">
        <ele>740.7</ele>
        <time>2021-08-14T15:50:19Z</time>
      </trkpt>
      <trkpt lat="43.97211" lon="3.20557">
        <ele>740.7</ele>
        <time>2021-08-14T15:50:21Z</time>
      </trkpt>
      <trkpt lat="43.97212" lon="3.20557">
        <ele>740.7</ele>
        <time>2021-08-14T15:50:23Z</time>
      </trkpt>
      <trkpt lat="43.97207" lon="3.20537">
        <ele>740.1</ele>
        <time>2021-08-14T15:50:53Z</time>
      </trkpt>
      <trkpt lat="43.97206" lon="3.20529">
        <ele>739.9</ele>
        <time>2021-08-14T15:50:55Z</time>
      </trkpt>
      <trkpt lat="43.97206" lon="3.20519">
        <ele>739.7</ele>
        <time>2021-08-14T15:50:57Z</time>
      </trkpt>
      <trkpt lat="43.97207" lon="3.2051">
        <ele>739.6</ele>
        <time>2021-08-14T15:50:59Z</time>
      </trkpt>
      <trkpt lat="43.97209" lon="3.205">
        <ele>739.5</ele>
        <time>2021-08-14T15:51:01Z</time>
      </trkpt>
      <trkpt lat="43.97211" lon="3.2049">
        <ele>739.5</ele>
        <time>2021-08-14T15:51:03Z</time>
      </trkpt>
      <trkpt lat="43.97214" lon="3.20481">
        <ele>739.5</ele>
        <time>2021-08-14T15:51:05Z</time>
      </trkpt>
      <trkpt lat="43.97218" lon="3.20472">
        <ele>739.5</ele>
        <time>2021-08-14T15:51:07Z</time>
      </trkpt>
      <trkpt lat="43.97221" lon="3.20462">
        <ele>739.5</ele>
        <time>2021-08-14T15:51:09Z</time>
      </trkpt>
      <trkpt lat="43.97225" lon="3.20451">
        <ele>739.5</ele>
        <time>2021-08-14T15:51:11Z</time>
      </trkpt>
      <trkpt lat="43.97229" lon="3.20441">
        <ele>739.5</ele>
        <time>2021-08-14T15:51:13Z</time>
      </trkpt>
      <trkpt lat="43.97233" lon="3.20431">
        <ele>739.5</ele>
        <time>2021-08-14T15:51:15Z</time>
      </trkpt>
      <trkpt lat="43.97237" lon="3.20422">
        <ele>739.5</ele>
        <time>2021-08-14T15:51:17Z</time>
      </trkpt>
      <trkpt lat="43.97241" lon="3.20412">
        <ele>739.6</ele>
        <time>2021-08-14T15:51:19Z</time>
      </trkpt>
      <trkpt lat="43.97245" lon="3.20402">
        <ele>739.8</ele>
        <time>2021-08-14T15:51:21Z</time>
      </trkpt>
      <trkpt lat="43.9725" lon="3.20392">
        <ele>740</ele>
        <time>2021-08-14T15:51:23Z</time>
      </trkpt>
      <trkpt lat="43.97252" lon="3.20381">
        <ele>740.2</ele>
        <time>2021-08-14T15:51:25Z</time>
      </trkpt>
      <trkpt lat="43.97256" lon="3.2037">
        <ele>740.5</ele>
        <time>2021-08-14T15:51:27Z</time>
      </trkpt>
      <trkpt lat="43.97257" lon="3.20358">
        <ele>740.6</ele>
        <time>2021-08-14T15:51:29Z</time>
      </trkpt>
      <trkpt lat="43.97259" lon="3.20347">
        <ele>740.7</ele>
        <time>2021-08-14T15:51:31Z</time>
      </trkpt>
      <trkpt lat="43.97259" lon="3.20335">
        <ele>740.7</ele>
        <time>2021-08-14T15:51:33Z</time>
      </trkpt>
      <trkpt lat="43.9726" lon="3.20323">
        <ele>740.7</ele>
        <time>2021-08-14T15:51:35Z</time>
      </trkpt>
      <trkpt lat="43.97261" lon="3.20311">
        <ele>740.8</ele>
        <time>2021-08-14T15:51:37Z</time>
      </trkpt>
      <trkpt lat="43.97261" lon="3.20299">
        <ele>740.9</ele>
        <time>2021-08-14T15:51:39Z</time>
      </trkpt>
      <trkpt lat="43.97262" lon="3.20287">
        <ele>741</ele>
        <time>2021-08-14T15:51:41Z</time>
      </trkpt>
      <trkpt lat="43.97262" lon="3.20275">
        <ele>741</ele>
        <time>2021-08-14T15:51:43Z</time>
      </trkpt>
      <trkpt lat="43.97262" lon="3.20263">
        <ele>741.1</ele>
        <time>2021-08-14T15:51:45Z</time>
      </trkpt>
      <trkpt lat="43.97262" lon="3.20251">
        <ele>741.1</ele>
        <time>2021-08-14T15:51:47Z</time>
      </trkpt>
      <trkpt lat="43.97262" lon="3.20239">
        <ele>741.4</ele>
        <time>2021-08-14T15:51:49Z</time>
      </trkpt>
      <trkpt lat="43.97262" lon="3.20227">
        <ele>741.7</ele>
        <time>2021-08-14T15:51:51Z</time>
      </trkpt>
      <trkpt lat="43.97261" lon="3.20216">
        <ele>741.9</ele>
        <time>2021-08-14T15:51:53Z</time>
      </trkpt>
      <trkpt lat="43.9726" lon="3.20205">
        <ele>742</ele>
        <time>2021-08-14T15:51:55Z</time>
      </trkpt>
      <trkpt lat="43.97258" lon="3.20195">
        <ele>742.1</ele>
        <time>2021-08-14T15:51:57Z</time>
      </trkpt>
      <trkpt lat="43.97256" lon="3.20184">
        <ele>742.1</ele>
        <time>2021-08-14T15:51:59Z</time>
      </trkpt>
      <trkpt lat="43.97254" lon="3.20174">
        <ele>742.3</ele>
        <time>2021-08-14T15:52:01Z</time>
      </trkpt>
      <trkpt lat="43.97252" lon="3.20166">
        <ele>742.2</ele>
        <time>2021-08-14T15:52:03Z</time>
      </trkpt>
      <trkpt lat="43.9725" lon="3.20154">
        <ele>742.3</ele>
        <time>2021-08-14T15:52:05Z</time>
      </trkpt>
      <trkpt lat="43.97247" lon="3.20146">
        <ele>742.4</ele>
        <time>2021-08-14T15:52:07Z</time>
      </trkpt>
      <trkpt lat="43.97245" lon="3.20135">
        <ele>742.6</ele>
        <time>2021-08-14T15:52:09Z</time>
      </trkpt>
      <trkpt lat="43.97242" lon="3.20125">
        <ele>742.7</ele>
        <time>2021-08-14T15:52:11Z</time>
      </trkpt>
      <trkpt lat="43.97239" lon="3.20115">
        <ele>742.8</ele>
        <time>2021-08-14T15:52:13Z</time>
      </trkpt>
      <trkpt lat="43.97236" lon="3.20106">
        <ele>742.9</ele>
        <time>2021-08-14T15:52:15Z</time>
      </trkpt>
      <trkpt lat="43.97233" lon="3.20096">
        <ele>743.1</ele>
        <time>2021-08-14T15:52:17Z</time>
      </trkpt>
      <trkpt lat="43.9723" lon="3.20085">
        <ele>743.2</ele>
        <time>2021-08-14T15:52:19Z</time>
      </trkpt>
      <trkpt lat="43.97227" lon="3.20075">
        <ele>743.5</ele>
        <time>2021-08-14T15:52:21Z</time>
      </trkpt>
      <trkpt lat="43.97223" lon="3.20065">
        <ele>743.7</ele>
        <time>2021-08-14T15:52:23Z</time>
      </trkpt>
      <trkpt lat="43.97221" lon="3.20055">
        <ele>744</ele>
        <time>2021-08-14T15:52:25Z</time>
      </trkpt>
      <trkpt lat="43.97217" lon="3.20045">
        <ele>744.2</ele>
        <time>2021-08-14T15:52:27Z</time>
      </trkpt>
      <trkpt lat="43.97214" lon="3.20035">
        <ele>744.4</ele>
        <time>2021-08-14T15:52:29Z</time>
      </trkpt>
      <trkpt lat="43.97212" lon="3.20027">
        <ele>744.7</ele>
        <time>2021-08-14T15:52:31Z</time>
      </trkpt>
      <trkpt lat="43.97208" lon="3.20018">
        <ele>744.8</ele>
        <time>2021-08-14T15:52:33Z</time>
      </trkpt>
      <trkpt lat="43.97203" lon="3.20009">
        <ele>745</ele>
        <time>2021-08-14T15:52:35Z</time>
      </trkpt>
      <trkpt lat="43.97199" lon="3.19999">
        <ele>745.2</ele>
        <time>2021-08-14T15:52:37Z</time>
      </trkpt>
      <trkpt lat="43.97196" lon="3.19989">
        <ele>745.4</ele>
        <time>2021-08-14T15:52:39Z</time>
      </trkpt>
      <trkpt lat="43.97193" lon="3.19978">
        <ele>745.6</ele>
        <time>2021-08-14T15:52:41Z</time>
      </trkpt>
      <trkpt lat="43.97191" lon="3.19967">
        <ele>745.9</ele>
        <time>2021-08-14T15:52:43Z</time>
      </trkpt>
      <trkpt lat="43.97189" lon="3.19956">
        <ele>746.1</ele>
        <time>2021-08-14T15:52:45Z</time>
      </trkpt>
      <trkpt lat="43.97187" lon="3.19945">
        <ele>746.4</ele>
        <time>2021-08-14T15:52:47Z</time>
      </trkpt>
      <trkpt lat="43.97184" lon="3.19935">
        <ele>746.5</ele>
        <time>2021-08-14T15:52:49Z</time>
      </trkpt>
      <trkpt lat="43.97182" lon="3.19926">
        <ele>746.7</ele>
        <time>2021-08-14T15:52:51Z</time>
      </trkpt>
      <trkpt lat="43.9718" lon="3.19916">
        <ele>746.8</ele>
        <time>2021-08-14T15:52:53Z</time>
      </trkpt>
      <trkpt lat="43.97178" lon="3.19906">
        <ele>746.7</ele>
        <time>2021-08-14T15:52:55Z</time>
      </trkpt>
      <trkpt lat="43.97177" lon="3.19896">
        <ele>746.6</ele>
        <time>2021-08-14T15:52:57Z</time>
      </trkpt>
      <trkpt lat="43.97176" lon="3.19886">
        <ele>746.6</ele>
        <time>2021-08-14T15:52:59Z</time>
      </trkpt>
      <trkpt lat="43.97175" lon="3.19876">
        <ele>746.5</ele>
        <time>2021-08-14T15:53:01Z</time>
      </trkpt>
      <trkpt lat="43.97174" lon="3.19867">
        <ele>746.5</ele>
        <time>2021-08-14T15:53:03Z</time>
      </trkpt>
      <trkpt lat="43.97173" lon="3.19858">
        <ele>746.4</ele>
        <time>2021-08-14T15:53:05Z</time>
      </trkpt>
      <trkpt lat="43.97173" lon="3.1985">
        <ele>746.4</ele>
        <time>2021-08-14T15:53:07Z</time>
      </trkpt>
      <trkpt lat="43.97171" lon="3.19842">
        <ele>746.3</ele>
        <time>2021-08-14T15:53:09Z</time>
      </trkpt>
      <trkpt lat="43.97169" lon="3.19836">
        <ele>746.1</ele>
        <time>2021-08-14T15:53:11Z</time>
      </trkpt>
      <trkpt lat="43.97168" lon="3.19827">
        <ele>746.3</ele>
        <time>2021-08-14T15:53:13Z</time>
      </trkpt>
      <trkpt lat="43.97168" lon="3.19819">
        <ele>746.4</ele>
        <time>2021-08-14T15:53:15Z</time>
      </trkpt>
      <trkpt lat="43.97167" lon="3.19812">
        <ele>746.5</ele>
        <time>2021-08-14T15:53:17Z</time>
      </trkpt>
      <trkpt lat="43.97165" lon="3.19807">
        <ele>746.6</ele>
        <time>2021-08-14T15:53:19Z</time>
      </trkpt>
      <trkpt lat="43.97166" lon="3.19801">
        <ele>746.7</ele>
        <time>2021-08-14T15:53:21Z</time>
      </trkpt>
      <trkpt lat="43.97165" lon="3.19796">
        <ele>746.8</ele>
        <time>2021-08-14T15:53:23Z</time>
      </trkpt>
      <trkpt lat="43.97165" lon="3.19792">
        <ele>746.9</ele>
        <time>2021-08-14T15:53:25Z</time>
      </trkpt>
      <trkpt lat="43.97168" lon="3.1979">
        <ele>747.1</ele>
        <time>2021-08-14T15:53:27Z</time>
      </trkpt>
      <trkpt lat="43.97171" lon="3.19791">
        <ele>747.3</ele>
        <time>2021-08-14T15:53:29Z</time>
      </trkpt>
      <trkpt lat="43.97175" lon="3.19792">
        <ele>747.5</ele>
        <time>2021-08-14T15:53:31Z</time>
      </trkpt>
      <trkpt lat="43.97178" lon="3.19789">
        <ele>747.7</ele>
        <time>2021-08-14T15:53:33Z</time>
      </trkpt>
      <trkpt lat="43.97181" lon="3.19786">
        <ele>748</ele>
        <time>2021-08-14T15:53:35Z</time>
      </trkpt>
      <trkpt lat="43.97184" lon="3.19783">
        <ele>748.2</ele>
        <time>2021-08-14T15:53:37Z</time>
      </trkpt>
      <trkpt lat="43.97188" lon="3.19781">
        <ele>748.6</ele>
        <time>2021-08-14T15:53:39Z</time>
      </trkpt>
      <trkpt lat="43.97194" lon="3.19782">
        <ele>748.9</ele>
        <time>2021-08-14T15:53:41Z</time>
      </trkpt>
      <trkpt lat="43.97198" lon="3.19781">
        <ele>749.1</ele>
        <time>2021-08-14T15:53:43Z</time>
      </trkpt>
      <trkpt lat="43.97203" lon="3.19778">
        <ele>749.5</ele>
        <time>2021-08-14T15:53:45Z</time>
      </trkpt>
      <trkpt lat="43.97206" lon="3.19774">
        <ele>749.8</ele>
        <time>2021-08-14T15:53:47Z</time>
      </trkpt>
      <trkpt lat="43.9721" lon="3.19772">
        <ele>750.1</ele>
        <time>2021-08-14T15:53:49Z</time>
      </trkpt>
      <trkpt lat="43.97213" lon="3.19769">
        <ele>750.4</ele>
        <time>2021-08-14T15:53:51Z</time>
      </trkpt>
      <trkpt lat="43.97216" lon="3.19765">
        <ele>750.6</ele>
        <time>2021-08-14T15:53:53Z</time>
      </trkpt>
      <trkpt lat="43.9722" lon="3.19762">
        <ele>750.9</ele>
        <time>2021-08-14T15:53:55Z</time>
      </trkpt>
      <trkpt lat="43.97224" lon="3.19759">
        <ele>751.2</ele>
        <time>2021-08-14T15:53:57Z</time>
      </trkpt>
      <trkpt lat="43.97227" lon="3.19756">
        <ele>751.5</ele>
        <time>2021-08-14T15:53:59Z</time>
      </trkpt>
      <trkpt lat="43.9723" lon="3.19753">
        <ele>751.7</ele>
        <time>2021-08-14T15:54:01Z</time>
      </trkpt>
      <trkpt lat="43.97233" lon="3.1975">
        <ele>752</ele>
        <time>2021-08-14T15:54:03Z</time>
      </trkpt>
      <trkpt lat="43.97237" lon="3.19747">
        <ele>752.2</ele>
        <time>2021-08-14T15:54:05Z</time>
      </trkpt>
      <trkpt lat="43.9724" lon="3.19743">
        <ele>752.4</ele>
        <time>2021-08-14T15:54:07Z</time>
      </trkpt>
      <trkpt lat="43.97244" lon="3.1974">
        <ele>752.6</ele>
        <time>2021-08-14T15:54:09Z</time>
      </trkpt>
      <trkpt lat="43.97248" lon="3.19737">
        <ele>752.8</ele>
        <time>2021-08-14T15:54:11Z</time>
      </trkpt>
      <trkpt lat="43.97251" lon="3.19733">
        <ele>753.1</ele>
        <time>2021-08-14T15:54:13Z</time>
      </trkpt>
      <trkpt lat="43.97255" lon="3.1973">
        <ele>753.4</ele>
        <time>2021-08-14T15:54:15Z</time>
      </trkpt>
      <trkpt lat="43.97258" lon="3.19727">
        <ele>753.7</ele>
        <time>2021-08-14T15:54:17Z</time>
      </trkpt>
      <trkpt lat="43.97262" lon="3.19723">
        <ele>754</ele>
        <time>2021-08-14T15:54:19Z</time>
      </trkpt>
      <trkpt lat="43.97265" lon="3.1972">
        <ele>754.3</ele>
        <time>2021-08-14T15:54:21Z</time>
      </trkpt>
      <trkpt lat="43.97269" lon="3.19716">
        <ele>754.6</ele>
        <time>2021-08-14T15:54:23Z</time>
      </trkpt>
      <trkpt lat="43.97272" lon="3.19713">
        <ele>754.9</ele>
        <time>2021-08-14T15:54:25Z</time>
      </trkpt>
      <trkpt lat="43.97276" lon="3.19709">
        <ele>755.2</ele>
        <time>2021-08-14T15:54:27Z</time>
      </trkpt>
      <trkpt lat="43.9728" lon="3.19705">
        <ele>755.5</ele>
        <time>2021-08-14T15:54:29Z</time>
      </trkpt>
      <trkpt lat="43.97284" lon="3.19703">
        <ele>755.8</ele>
        <time>2021-08-14T15:54:31Z</time>
      </trkpt>
      <trkpt lat="43.97288" lon="3.197">
        <ele>756.2</ele>
        <time>2021-08-14T15:54:33Z</time>
      </trkpt>
      <trkpt lat="43.97291" lon="3.19696">
        <ele>756.5</ele>
        <time>2021-08-14T15:54:35Z</time>
      </trkpt>
      <trkpt lat="43.97295" lon="3.19693">
        <ele>756.8</ele>
        <time>2021-08-14T15:54:37Z</time>
      </trkpt>
      <trkpt lat="43.97299" lon="3.1969">
        <ele>757.1</ele>
        <time>2021-08-14T15:54:39Z</time>
      </trkpt>
      <trkpt lat="43.97302" lon="3.19687">
        <ele>757.4</ele>
        <time>2021-08-14T15:54:41Z</time>
      </trkpt>
      <trkpt lat="43.97306" lon="3.19684">
        <ele>757.7</ele>
        <time>2021-08-14T15:54:43Z</time>
      </trkpt>
      <trkpt lat="43.97309" lon="3.19681">
        <ele>758</ele>
        <time>2021-08-14T15:54:45Z</time>
      </trkpt>
      <trkpt lat="43.97313" lon="3.19678">
        <ele>758.3</ele>
        <time>2021-08-14T15:54:47Z</time>
      </trkpt>
      <trkpt lat="43.97316" lon="3.19676">
        <ele>758.6</ele>
        <time>2021-08-14T15:54:49Z</time>
      </trkpt>
      <trkpt lat="43.97319" lon="3.19674">
        <ele>758.8</ele>
        <time>2021-08-14T15:54:51Z</time>
      </trkpt>
      <trkpt lat="43.97322" lon="3.19673">
        <ele>759.1</ele>
        <time>2021-08-14T15:54:53Z</time>
      </trkpt>
      <trkpt lat="43.97326" lon="3.19672">
        <ele>759.3</ele>
        <time>2021-08-14T15:54:55Z</time>
      </trkpt>
      <trkpt lat="43.97328" lon="3.1967">
        <ele>759.5</ele>
        <time>2021-08-14T15:54:57Z</time>
      </trkpt>
      <trkpt lat="43.9733" lon="3.19667">
        <ele>759.7</ele>
        <time>2021-08-14T15:54:59Z</time>
      </trkpt>
      <trkpt lat="43.97332" lon="3.19661">
        <ele>759.8</ele>
        <time>2021-08-14T15:55:01Z</time>
      </trkpt>
      <trkpt lat="43.97334" lon="3.19657">
        <ele>759.9</ele>
        <time>2021-08-14T15:55:03Z</time>
      </trkpt>
      <trkpt lat="43.97335" lon="3.19652">
        <ele>760.1</ele>
        <time>2021-08-14T15:55:05Z</time>
      </trkpt>
      <trkpt lat="43.97337" lon="3.19648">
        <ele>760.2</ele>
        <time>2021-08-14T15:55:07Z</time>
      </trkpt>
      <trkpt lat="43.97336" lon="3.19643">
        <ele>760</ele>
        <time>2021-08-14T15:55:09Z</time>
      </trkpt>
      <trkpt lat="43.97336" lon="3.19635">
        <ele>760</ele>
        <time>2021-08-14T15:55:11Z</time>
      </trkpt>
      <trkpt lat="43.97337" lon="3.1963">
        <ele>760</ele>
        <time>2021-08-14T15:55:13Z</time>
      </trkpt>
      <trkpt lat="43.97337" lon="3.19623">
        <ele>760</ele>
        <time>2021-08-14T15:55:15Z</time>
      </trkpt>
      <trkpt lat="43.97338" lon="3.19614">
        <ele>759.9</ele>
        <time>2021-08-14T15:55:17Z</time>
      </trkpt>
      <trkpt lat="43.9734" lon="3.19603">
        <ele>760</ele>
        <time>2021-08-14T15:55:19Z</time>
      </trkpt>
      <trkpt lat="43.9734" lon="3.19592">
        <ele>759.9</ele>
        <time>2021-08-14T15:55:21Z</time>
      </trkpt>
      <trkpt lat="43.9734" lon="3.19581">
        <ele>759.7</ele>
        <time>2021-08-14T15:55:23Z</time>
      </trkpt>
      <trkpt lat="43.97341" lon="3.19569">
        <ele>759.4</ele>
        <time>2021-08-14T15:55:25Z</time>
      </trkpt>
      <trkpt lat="43.97342" lon="3.19557">
        <ele>759</ele>
        <time>2021-08-14T15:55:27Z</time>
      </trkpt>
      <trkpt lat="43.97343" lon="3.19545">
        <ele>758.6</ele>
        <time>2021-08-14T15:55:29Z</time>
      </trkpt>
      <trkpt lat="43.97344" lon="3.19533">
        <ele>758.2</ele>
        <time>2021-08-14T15:55:31Z</time>
      </trkpt>
      <trkpt lat="43.97346" lon="3.19522">
        <ele>757.8</ele>
        <time>2021-08-14T15:55:33Z</time>
      </trkpt>
      <trkpt lat="43.97347" lon="3.19511">
        <ele>757.5</ele>
        <time>2021-08-14T15:55:35Z</time>
      </trkpt>
      <trkpt lat="43.97348" lon="3.19499">
        <ele>757</ele>
        <time>2021-08-14T15:55:37Z</time>
      </trkpt>
      <trkpt lat="43.9735" lon="3.19488">
        <ele>756.7</ele>
        <time>2021-08-14T15:55:39Z</time>
      </trkpt>
      <trkpt lat="43.97351" lon="3.19477">
        <ele>756.3</ele>
        <time>2021-08-14T15:55:41Z</time>
      </trkpt>
      <trkpt lat="43.97352" lon="3.19464">
        <ele>755.9</ele>
        <time>2021-08-14T15:55:43Z</time>
      </trkpt>
      <trkpt lat="43.97351" lon="3.19451">
        <ele>755.3</ele>
        <time>2021-08-14T15:55:45Z</time>
      </trkpt>
      <trkpt lat="43.97346" lon="3.19441">
        <ele>754.6</ele>
        <time>2021-08-14T15:55:47Z</time>
      </trkpt>
      <trkpt lat="43.97342" lon="3.19431">
        <ele>754</ele>
        <time>2021-08-14T15:55:49Z</time>
      </trkpt>
      <trkpt lat="43.97337" lon="3.19422">
        <ele>753.4</ele>
        <time>2021-08-14T15:55:51Z</time>
      </trkpt>
      <trkpt lat="43.97335" lon="3.19411">
        <ele>753.1</ele>
        <time>2021-08-14T15:55:53Z</time>
      </trkpt>
      <trkpt lat="43.97333" lon="3.19399">
        <ele>753</ele>
        <time>2021-08-14T15:55:55Z</time>
      </trkpt>
      <trkpt lat="43.97335" lon="3.1939">
        <ele>753.1</ele>
        <time>2021-08-14T15:55:57Z</time>
      </trkpt>
      <trkpt lat="43.97335" lon="3.19382">
        <ele>753.1</ele>
        <time>2021-08-14T15:55:59Z</time>
      </trkpt>
      <trkpt lat="43.97335" lon="3.19373">
        <ele>753.1</ele>
        <time>2021-08-14T15:56:01Z</time>
      </trkpt>
      <trkpt lat="43.97335" lon="3.19362">
        <ele>753.1</ele>
        <time>2021-08-14T15:56:03Z</time>
      </trkpt>
      <trkpt lat="43.97335" lon="3.19354">
        <ele>753.1</ele>
        <time>2021-08-14T15:56:05Z</time>
      </trkpt>
      <trkpt lat="43.97335" lon="3.19348">
        <ele>753.1</ele>
        <time>2021-08-14T15:56:07Z</time>
      </trkpt>
      <trkpt lat="43.97335" lon="3.19342">
        <ele>753.1</ele>
        <time>2021-08-14T15:56:09Z</time>
      </trkpt>
      <trkpt lat="43.97334" lon="3.19335">
        <ele>753</ele>
        <time>2021-08-14T15:56:11Z</time>
      </trkpt>
      <trkpt lat="43.97334" lon="3.19332">
        <ele>753.1</ele>
        <time>2021-08-14T15:56:13Z</time>
      </trkpt>
      <trkpt lat="43.97333" lon="3.19329">
        <ele>753.2</ele>
        <time>2021-08-14T15:56:15Z</time>
      </trkpt>
      <trkpt lat="43.97332" lon="3.19326">
        <ele>753.2</ele>
        <time>2021-08-14T15:56:17Z</time>
      </trkpt>
      <trkpt lat="43.97331" lon="3.19324">
        <ele>753.2</ele>
        <time>2021-08-14T15:56:19Z</time>
      </trkpt>
      <trkpt lat="43.97332" lon="3.19324">
        <ele>753.3</ele>
        <time>2021-08-14T15:56:21Z</time>
      </trkpt>
      <trkpt lat="43.97332" lon="3.19324">
        <ele>753.3</ele>
        <time>2021-08-14T15:56:23Z</time>
      </trkpt>
      <trkpt lat="43.97333" lon="3.19323">
        <ele>753.3</ele>
        <time>2021-08-14T15:56:25Z</time>
      </trkpt>
      <trkpt lat="43.97332" lon="3.19323">
        <ele>753.3</ele>
        <time>2021-08-14T15:56:31Z</time>
      </trkpt>
      <trkpt lat="43.97332" lon="3.19325">
        <ele>753.3</ele>
        <time>2021-08-14T15:56:33Z</time>
      </trkpt>
      <trkpt lat="43.97333" lon="3.19325">
        <ele>753.3</ele>
        <time>2021-08-14T15:56:35Z</time>
      </trkpt>
      <trkpt lat="43.97333" lon="3.1933">
        <ele>753.1</ele>
        <time>2021-08-14T15:56:37Z</time>
      </trkpt>
      <trkpt lat="43.97332" lon="3.19336">
        <ele>753</ele>
        <time>2021-08-14T15:56:39Z</time>
      </trkpt>
      <trkpt lat="43.97331" lon="3.19343">
        <ele>752.9</ele>
        <time>2021-08-14T15:56:41Z</time>
      </trkpt>
      <trkpt lat="43.97329" lon="3.19348">
        <ele>752.8</ele>
        <time>2021-08-14T15:56:43Z</time>
      </trkpt>
      <trkpt lat="43.97325" lon="3.1935">
        <ele>752.7</ele>
        <time>2021-08-14T15:56:45Z</time>
      </trkpt>
      <trkpt lat="43.9732" lon="3.19353">
        <ele>752.5</ele>
        <time>2021-08-14T15:56:47Z</time>
      </trkpt>
      <trkpt lat="43.97319" lon="3.19356">
        <ele>752.4</ele>
        <time>2021-08-14T15:56:49Z</time>
      </trkpt>
      <trkpt lat="43.97318" lon="3.19358">
        <ele>752.4</ele>
        <time>2021-08-14T15:56:51Z</time>
      </trkpt>
      <trkpt lat="43.97318" lon="3.19358">
        <ele>752.4</ele>
        <time>2021-08-14T15:56:53Z</time>
      </trkpt>
      <trkpt lat="43.97318" lon="3.19358">
        <ele>752.4</ele>
        <time>2021-08-14T15:56:55Z</time>
      </trkpt>
      <trkpt lat="43.97318" lon="3.19358">
        <ele>752.4</ele>
        <time>2021-08-14T15:56:57Z</time>
      </trkpt>
      <trkpt lat="43.97317" lon="3.1936">
        <ele>752.3</ele>
        <time>2021-08-14T15:56:59Z</time>
      </trkpt>
      <trkpt lat="43.97335" lon="3.19323">
        <ele>753.5</ele>
        <time>2021-08-14T16:18:47Z</time>
      </trkpt>
      <trkpt lat="43.97336" lon="3.19318">
        <ele>753.7</ele>
        <time>2021-08-14T16:18:49Z</time>
      </trkpt>
      <trkpt lat="43.97336" lon="3.19312">
        <ele>754</ele>
        <time>2021-08-14T16:18:51Z</time>
      </trkpt>
      <trkpt lat="43.97336" lon="3.19307">
        <ele>754.2</ele>
        <time>2021-08-14T16:18:53Z</time>
      </trkpt>
      <trkpt lat="43.97336" lon="3.19302">
        <ele>754.4</ele>
        <time>2021-08-14T16:18:55Z</time>
      </trkpt>
      <trkpt lat="43.97336" lon="3.19297">
        <ele>754.6</ele>
        <time>2021-08-14T16:18:57Z</time>
      </trkpt>
      <trkpt lat="43.97336" lon="3.19293">
        <ele>754.7</ele>
        <time>2021-08-14T16:18:59Z</time>
      </trkpt>
      <trkpt lat="43.97337" lon="3.19288">
        <ele>755</ele>
        <time>2021-08-14T16:19:01Z</time>
      </trkpt>
      <trkpt lat="43.97336" lon="3.19283">
        <ele>755.1</ele>
        <time>2021-08-14T16:19:03Z</time>
      </trkpt>
      <trkpt lat="43.97336" lon="3.19278">
        <ele>755.3</ele>
        <time>2021-08-14T16:19:05Z</time>
      </trkpt>
      <trkpt lat="43.97335" lon="3.19273">
        <ele>755.4</ele>
        <time>2021-08-14T16:19:07Z</time>
      </trkpt>
      <trkpt lat="43.97335" lon="3.19267">
        <ele>755.6</ele>
        <time>2021-08-14T16:19:09Z</time>
      </trkpt>
      <trkpt lat="43.97335" lon="3.19262">
        <ele>755.8</ele>
        <time>2021-08-14T16:19:11Z</time>
      </trkpt>
      <trkpt lat="43.97336" lon="3.19257">
        <ele>756</ele>
        <time>2021-08-14T16:19:13Z</time>
      </trkpt>
      <trkpt lat="43.97336" lon="3.19251">
        <ele>756.3</ele>
        <time>2021-08-14T16:19:15Z</time>
      </trkpt>
      <trkpt lat="43.97336" lon="3.19246">
        <ele>756.3</ele>
        <time>2021-08-14T16:19:17Z</time>
      </trkpt>
      <trkpt lat="43.97336" lon="3.1924">
        <ele>756.5</ele>
        <time>2021-08-14T16:19:19Z</time>
      </trkpt>
      <trkpt lat="43.97336" lon="3.19234">
        <ele>756.6</ele>
        <time>2021-08-14T16:19:21Z</time>
      </trkpt>
      <trkpt lat="43.97336" lon="3.19228">
        <ele>756.8</ele>
        <time>2021-08-14T16:19:23Z</time>
      </trkpt>
      <trkpt lat="43.97337" lon="3.19223">
        <ele>757</ele>
        <time>2021-08-14T16:19:25Z</time>
      </trkpt>
      <trkpt lat="43.97338" lon="3.19217">
        <ele>757.3</ele>
        <time>2021-08-14T16:19:27Z</time>
      </trkpt>
      <trkpt lat="43.9734" lon="3.19211">
        <ele>757.5</ele>
        <time>2021-08-14T16:19:29Z</time>
      </trkpt>
      <trkpt lat="43.97341" lon="3.19206">
        <ele>757.7</ele>
        <time>2021-08-14T16:19:31Z</time>
      </trkpt>
      <trkpt lat="43.97342" lon="3.19201">
        <ele>758</ele>
        <time>2021-08-14T16:19:33Z</time>
      </trkpt>
      <trkpt lat="43.97343" lon="3.19197">
        <ele>758.2</ele>
        <time>2021-08-14T16:19:35Z</time>
      </trkpt>
      <trkpt lat="43.97346" lon="3.19192">
        <ele>758.5</ele>
        <time>2021-08-14T16:19:37Z</time>
      </trkpt>
      <trkpt lat="43.97348" lon="3.19187">
        <ele>758.8</ele>
        <time>2021-08-14T16:19:39Z</time>
      </trkpt>
      <trkpt lat="43.9735" lon="3.19182">
        <ele>759.1</ele>
        <time>2021-08-14T16:19:41Z</time>
      </trkpt>
      <trkpt lat="43.97353" lon="3.19178">
        <ele>759.4</ele>
        <time>2021-08-14T16:19:43Z</time>
      </trkpt>
      <trkpt lat="43.97353" lon="3.19173">
        <ele>759.6</ele>
        <time>2021-08-14T16:19:45Z</time>
      </trkpt>
      <trkpt lat="43.97354" lon="3.19168">
        <ele>759.7</ele>
        <time>2021-08-14T16:19:47Z</time>
      </trkpt>
      <trkpt lat="43.97357" lon="3.19163">
        <ele>759.9</ele>
        <time>2021-08-14T16:19:49Z</time>
      </trkpt>
      <trkpt lat="43.97358" lon="3.19157">
        <ele>760</ele>
        <time>2021-08-14T16:19:51Z</time>
      </trkpt>
      <trkpt lat="43.97359" lon="3.19151">
        <ele>759.9</ele>
        <time>2021-08-14T16:19:53Z</time>
      </trkpt>
      <trkpt lat="43.97359" lon="3.19145">
        <ele>759.9</ele>
        <time>2021-08-14T16:19:55Z</time>
      </trkpt>
      <trkpt lat="43.9736" lon="3.19138">
        <ele>759.9</ele>
        <time>2021-08-14T16:19:57Z</time>
      </trkpt>
      <trkpt lat="43.97361" lon="3.19131">
        <ele>759.9</ele>
        <time>2021-08-14T16:19:59Z</time>
      </trkpt>
      <trkpt lat="43.97363" lon="3.19124">
        <ele>759.9</ele>
        <time>2021-08-14T16:20:01Z</time>
      </trkpt>
      <trkpt lat="43.97364" lon="3.19116">
        <ele>760</ele>
        <time>2021-08-14T16:20:03Z</time>
      </trkpt>
      <trkpt lat="43.97366" lon="3.1911">
        <ele>760.1</ele>
        <time>2021-08-14T16:20:05Z</time>
      </trkpt>
      <trkpt lat="43.97368" lon="3.19103">
        <ele>760.2</ele>
        <time>2021-08-14T16:20:07Z</time>
      </trkpt>
      <trkpt lat="43.9737" lon="3.19096">
        <ele>760.2</ele>
        <time>2021-08-14T16:20:09Z</time>
      </trkpt>
      <trkpt lat="43.97371" lon="3.19089">
        <ele>760.2</ele>
        <time>2021-08-14T16:20:11Z</time>
      </trkpt>
      <trkpt lat="43.97373" lon="3.19082">
        <ele>760.2</ele>
        <time>2021-08-14T16:20:13Z</time>
      </trkpt>
      <trkpt lat="43.97375" lon="3.19075">
        <ele>760.2</ele>
        <time>2021-08-14T16:20:15Z</time>
      </trkpt>
      <trkpt lat="43.97376" lon="3.19068">
        <ele>760.1</ele>
        <time>2021-08-14T16:20:17Z</time>
      </trkpt>
      <trkpt lat="43.97379" lon="3.19061">
        <ele>760</ele>
        <time>2021-08-14T16:20:19Z</time>
      </trkpt>
      <trkpt lat="43.97381" lon="3.19054">
        <ele>759.8</ele>
        <time>2021-08-14T16:20:21Z</time>
      </trkpt>
      <trkpt lat="43.97383" lon="3.19047">
        <ele>759.7</ele>
        <time>2021-08-14T16:20:23Z</time>
      </trkpt>
      <trkpt lat="43.97386" lon="3.19039">
        <ele>759.5</ele>
        <time>2021-08-14T16:20:25Z</time>
      </trkpt>
      <trkpt lat="43.97387" lon="3.19032">
        <ele>759.3</ele>
        <time>2021-08-14T16:20:27Z</time>
      </trkpt>
      <trkpt lat="43.97389" lon="3.19024">
        <ele>759.1</ele>
        <time>2021-08-14T16:20:29Z</time>
      </trkpt>
      <trkpt lat="43.97392" lon="3.19017">
        <ele>758.9</ele>
        <time>2021-08-14T16:20:31Z</time>
      </trkpt>
      <trkpt lat="43.97395" lon="3.1901">
        <ele>758.7</ele>
        <time>2021-08-14T16:20:33Z</time>
      </trkpt>
      <trkpt lat="43.97397" lon="3.19003">
        <ele>758.4</ele>
        <time>2021-08-14T16:20:35Z</time>
      </trkpt>
      <trkpt lat="43.97398" lon="3.18995">
        <ele>758.5</ele>
        <time>2021-08-14T16:20:37Z</time>
      </trkpt>
      <trkpt lat="43.974" lon="3.18988">
        <ele>758.9</ele>
        <time>2021-08-14T16:20:39Z</time>
      </trkpt>
      <trkpt lat="43.97402" lon="3.1898">
        <ele>759.2</ele>
        <time>2021-08-14T16:20:41Z</time>
      </trkpt>
      <trkpt lat="43.97404" lon="3.18973">
        <ele>759.6</ele>
        <time>2021-08-14T16:20:43Z</time>
      </trkpt>
      <trkpt lat="43.97405" lon="3.18966">
        <ele>759.9</ele>
        <time>2021-08-14T16:20:45Z</time>
      </trkpt>
      <trkpt lat="43.97408" lon="3.18958">
        <ele>760.2</ele>
        <time>2021-08-14T16:20:47Z</time>
      </trkpt>
      <trkpt lat="43.97409" lon="3.1895">
        <ele>760.6</ele>
        <time>2021-08-14T16:20:49Z</time>
      </trkpt>
      <trkpt lat="43.97411" lon="3.18943">
        <ele>760.9</ele>
        <time>2021-08-14T16:20:51Z</time>
      </trkpt>
      <trkpt lat="43.97412" lon="3.18934">
        <ele>761.2</ele>
        <time>2021-08-14T16:20:53Z</time>
      </trkpt>
      <trkpt lat="43.97413" lon="3.18927">
        <ele>761.5</ele>
        <time>2021-08-14T16:20:55Z</time>
      </trkpt>
      <trkpt lat="43.97414" lon="3.18919">
        <ele>761.8</ele>
        <time>2021-08-14T16:20:57Z</time>
      </trkpt>
      <trkpt lat="43.97415" lon="3.18911">
        <ele>762.3</ele>
        <time>2021-08-14T16:20:59Z</time>
      </trkpt>
      <trkpt lat="43.97415" lon="3.18903">
        <ele>762.8</ele>
        <time>2021-08-14T16:21:01Z</time>
      </trkpt>
      <trkpt lat="43.97416" lon="3.18896">
        <ele>763.3</ele>
        <time>2021-08-14T16:21:03Z</time>
      </trkpt>
      <trkpt lat="43.97416" lon="3.18888">
        <ele>763.7</ele>
        <time>2021-08-14T16:21:05Z</time>
      </trkpt>
      <trkpt lat="43.97417" lon="3.1888">
        <ele>764.2</ele>
        <time>2021-08-14T16:21:07Z</time>
      </trkpt>
      <trkpt lat="43.97417" lon="3.18873">
        <ele>764.8</ele>
        <time>2021-08-14T16:21:09Z</time>
      </trkpt>
      <trkpt lat="43.97419" lon="3.18866">
        <ele>765.4</ele>
        <time>2021-08-14T16:21:11Z</time>
      </trkpt>
      <trkpt lat="43.97419" lon="3.18858">
        <ele>765.9</ele>
        <time>2021-08-14T16:21:13Z</time>
      </trkpt>
      <trkpt lat="43.97419" lon="3.1885">
        <ele>766.4</ele>
        <time>2021-08-14T16:21:15Z</time>
      </trkpt>
      <trkpt lat="43.9742" lon="3.18843">
        <ele>767</ele>
        <time>2021-08-14T16:21:17Z</time>
      </trkpt>
      <trkpt lat="43.9742" lon="3.18835">
        <ele>767.6</ele>
        <time>2021-08-14T16:21:19Z</time>
      </trkpt>
      <trkpt lat="43.97421" lon="3.18828">
        <ele>767.8</ele>
        <time>2021-08-14T16:21:21Z</time>
      </trkpt>
      <trkpt lat="43.97422" lon="3.18822">
        <ele>767.7</ele>
        <time>2021-08-14T16:21:23Z</time>
      </trkpt>
      <trkpt lat="43.97421" lon="3.18815">
        <ele>767.4</ele>
        <time>2021-08-14T16:21:25Z</time>
      </trkpt>
      <trkpt lat="43.97421" lon="3.18809">
        <ele>767.1</ele>
        <time>2021-08-14T16:21:27Z</time>
      </trkpt>
      <trkpt lat="43.9742" lon="3.18803">
        <ele>766.8</ele>
        <time>2021-08-14T16:21:29Z</time>
      </trkpt>
      <trkpt lat="43.97418" lon="3.18797">
        <ele>766.4</ele>
        <time>2021-08-14T16:21:31Z</time>
      </trkpt>
      <trkpt lat="43.97416" lon="3.18791">
        <ele>766</ele>
        <time>2021-08-14T16:21:33Z</time>
      </trkpt>
      <trkpt lat="43.97413" lon="3.18785">
        <ele>766.1</ele>
        <time>2021-08-14T16:21:35Z</time>
      </trkpt>
      <trkpt lat="43.97411" lon="3.18779">
        <ele>766.2</ele>
        <time>2021-08-14T16:21:37Z</time>
      </trkpt>
      <trkpt lat="43.97408" lon="3.18773">
        <ele>766.3</ele>
        <time>2021-08-14T16:21:39Z</time>
      </trkpt>
      <trkpt lat="43.97406" lon="3.18768">
        <ele>766.4</ele>
        <time>2021-08-14T16:21:41Z</time>
      </trkpt>
      <trkpt lat="43.97403" lon="3.18762">
        <ele>766.7</ele>
        <time>2021-08-14T16:21:43Z</time>
      </trkpt>
      <trkpt lat="43.974" lon="3.18757">
        <ele>766.9</ele>
        <time>2021-08-14T16:21:45Z</time>
      </trkpt>
      <trkpt lat="43.97398" lon="3.18751">
        <ele>767.1</ele>
        <time>2021-08-14T16:21:47Z</time>
      </trkpt>
      <trkpt lat="43.97395" lon="3.18746">
        <ele>767.3</ele>
        <time>2021-08-14T16:21:49Z</time>
      </trkpt>
      <trkpt lat="43.97392" lon="3.18741">
        <ele>767.6</ele>
        <time>2021-08-14T16:21:51Z</time>
      </trkpt>
      <trkpt lat="43.9739" lon="3.18736">
        <ele>767.7</ele>
        <time>2021-08-14T16:21:53Z</time>
      </trkpt>
      <trkpt lat="43.97388" lon="3.18731">
        <ele>767.9</ele>
        <time>2021-08-14T16:21:55Z</time>
      </trkpt>
      <trkpt lat="43.97386" lon="3.18726">
        <ele>768.1</ele>
        <time>2021-08-14T16:21:57Z</time>
      </trkpt>
      <trkpt lat="43.97383" lon="3.18721">
        <ele>768.3</ele>
        <time>2021-08-14T16:21:59Z</time>
      </trkpt>
      <trkpt lat="43.9738" lon="3.18716">
        <ele>768.5</ele>
        <time>2021-08-14T16:22:01Z</time>
      </trkpt>
      <trkpt lat="43.97378" lon="3.1871">
        <ele>768.8</ele>
        <time>2021-08-14T16:22:03Z</time>
      </trkpt>
      <trkpt lat="43.97375" lon="3.18705">
        <ele>768.9</ele>
        <time>2021-08-14T16:22:05Z</time>
      </trkpt>
      <trkpt lat="43.97373" lon="3.187">
        <ele>769.1</ele>
        <time>2021-08-14T16:22:07Z</time>
      </trkpt>
      <trkpt lat="43.97371" lon="3.18694">
        <ele>769.3</ele>
        <time>2021-08-14T16:22:09Z</time>
      </trkpt>
      <trkpt lat="43.97368" lon="3.18689">
        <ele>769.5</ele>
        <time>2021-08-14T16:22:11Z</time>
      </trkpt>
      <trkpt lat="43.97366" lon="3.18684">
        <ele>769.7</ele>
        <time>2021-08-14T16:22:13Z</time>
      </trkpt>
      <trkpt lat="43.97364" lon="3.18679">
        <ele>769.9</ele>
        <time>2021-08-14T16:22:15Z</time>
      </trkpt>
      <trkpt lat="43.97361" lon="3.18674">
        <ele>770.1</ele>
        <time>2021-08-14T16:22:17Z</time>
      </trkpt>
      <trkpt lat="43.97358" lon="3.18669">
        <ele>770.3</ele>
        <time>2021-08-14T16:22:19Z</time>
      </trkpt>
      <trkpt lat="43.97356" lon="3.18664">
        <ele>770.4</ele>
        <time>2021-08-14T16:22:21Z</time>
      </trkpt>
      <trkpt lat="43.97354" lon="3.18658">
        <ele>770.3</ele>
        <time>2021-08-14T16:22:23Z</time>
      </trkpt>
      <trkpt lat="43.97352" lon="3.18653">
        <ele>770.3</ele>
        <time>2021-08-14T16:22:25Z</time>
      </trkpt>
      <trkpt lat="43.9735" lon="3.18648">
        <ele>770.3</ele>
        <time>2021-08-14T16:22:27Z</time>
      </trkpt>
      <trkpt lat="43.97348" lon="3.18644">
        <ele>770.2</ele>
        <time>2021-08-14T16:22:29Z</time>
      </trkpt>
      <trkpt lat="43.97346" lon="3.18638">
        <ele>770</ele>
        <time>2021-08-14T16:22:31Z</time>
      </trkpt>
      <trkpt lat="43.97343" lon="3.18633">
        <ele>769.9</ele>
        <time>2021-08-14T16:22:33Z</time>
      </trkpt>
      <trkpt lat="43.9734" lon="3.18628">
        <ele>769.8</ele>
        <time>2021-08-14T16:22:35Z</time>
      </trkpt>
      <trkpt lat="43.97338" lon="3.18623">
        <ele>769.6</ele>
        <time>2021-08-14T16:22:37Z</time>
      </trkpt>
      <trkpt lat="43.97336" lon="3.18617">
        <ele>769.3</ele>
        <time>2021-08-14T16:22:39Z</time>
      </trkpt>
      <trkpt lat="43.97333" lon="3.18612">
        <ele>769.1</ele>
        <time>2021-08-14T16:22:41Z</time>
      </trkpt>
      <trkpt lat="43.97331" lon="3.18607">
        <ele>769.2</ele>
        <time>2021-08-14T16:22:43Z</time>
      </trkpt>
      <trkpt lat="43.97328" lon="3.18602">
        <ele>769.2</ele>
        <time>2021-08-14T16:22:45Z</time>
      </trkpt>
      <trkpt lat="43.97327" lon="3.18596">
        <ele>769</ele>
        <time>2021-08-14T16:22:47Z</time>
      </trkpt>
      <trkpt lat="43.97325" lon="3.18591">
        <ele>769</ele>
        <time>2021-08-14T16:22:49Z</time>
      </trkpt>
      <trkpt lat="43.97322" lon="3.18586">
        <ele>769.2</ele>
        <time>2021-08-14T16:22:51Z</time>
      </trkpt>
      <trkpt lat="43.97319" lon="3.18581">
        <ele>769.3</ele>
        <time>2021-08-14T16:22:53Z</time>
      </trkpt>
      <trkpt lat="43.97317" lon="3.18575">
        <ele>769.6</ele>
        <time>2021-08-14T16:22:55Z</time>
      </trkpt>
      <trkpt lat="43.97315" lon="3.1857">
        <ele>769.8</ele>
        <time>2021-08-14T16:22:57Z</time>
      </trkpt>
      <trkpt lat="43.97313" lon="3.18564">
        <ele>770</ele>
        <time>2021-08-14T16:22:59Z</time>
      </trkpt>
      <trkpt lat="43.9731" lon="3.18559">
        <ele>770.3</ele>
        <time>2021-08-14T16:23:01Z</time>
      </trkpt>
      <trkpt lat="43.97307" lon="3.18553">
        <ele>770.5</ele>
        <time>2021-08-14T16:23:03Z</time>
      </trkpt>
      <trkpt lat="43.97306" lon="3.18547">
        <ele>770.7</ele>
        <time>2021-08-14T16:23:05Z</time>
      </trkpt>
      <trkpt lat="43.97303" lon="3.18542">
        <ele>770.8</ele>
        <time>2021-08-14T16:23:07Z</time>
      </trkpt>
      <trkpt lat="43.97301" lon="3.18537">
        <ele>771</ele>
        <time>2021-08-14T16:23:09Z</time>
      </trkpt>
      <trkpt lat="43.97299" lon="3.18531">
        <ele>771.1</ele>
        <time>2021-08-14T16:23:11Z</time>
      </trkpt>
      <trkpt lat="43.97297" lon="3.18526">
        <ele>771.2</ele>
        <time>2021-08-14T16:23:13Z</time>
      </trkpt>
      <trkpt lat="43.97295" lon="3.18521">
        <ele>771.3</ele>
        <time>2021-08-14T16:23:15Z</time>
      </trkpt>
      <trkpt lat="43.97293" lon="3.18515">
        <ele>771.3</ele>
        <time>2021-08-14T16:23:17Z</time>
      </trkpt>
      <trkpt lat="43.97291" lon="3.1851">
        <ele>771.4</ele>
        <time>2021-08-14T16:23:19Z</time>
      </trkpt>
      <trkpt lat="43.97289" lon="3.18505">
        <ele>771.5</ele>
        <time>2021-08-14T16:23:21Z</time>
      </trkpt>
      <trkpt lat="43.97287" lon="3.18499">
        <ele>771.5</ele>
        <time>2021-08-14T16:23:23Z</time>
      </trkpt>
      <trkpt lat="43.97286" lon="3.18494">
        <ele>771.8</ele>
        <time>2021-08-14T16:23:25Z</time>
      </trkpt>
      <trkpt lat="43.97284" lon="3.18489">
        <ele>772</ele>
        <time>2021-08-14T16:23:27Z</time>
      </trkpt>
      <trkpt lat="43.97282" lon="3.18484">
        <ele>772.3</ele>
        <time>2021-08-14T16:23:29Z</time>
      </trkpt>
      <trkpt lat="43.97281" lon="3.18479">
        <ele>772.5</ele>
        <time>2021-08-14T16:23:31Z</time>
      </trkpt>
      <trkpt lat="43.97279" lon="3.18474">
        <ele>772.7</ele>
        <time>2021-08-14T16:23:33Z</time>
      </trkpt>
      <trkpt lat="43.97278" lon="3.18468">
        <ele>772.9</ele>
        <time>2021-08-14T16:23:35Z</time>
      </trkpt>
      <trkpt lat="43.97275" lon="3.18464">
        <ele>773.2</ele>
        <time>2021-08-14T16:23:37Z</time>
      </trkpt>
      <trkpt lat="43.97274" lon="3.18459">
        <ele>773.4</ele>
        <time>2021-08-14T16:23:39Z</time>
      </trkpt>
      <trkpt lat="43.97274" lon="3.18453">
        <ele>773.4</ele>
        <time>2021-08-14T16:23:41Z</time>
      </trkpt>
      <trkpt lat="43.97273" lon="3.18447">
        <ele>773.6</ele>
        <time>2021-08-14T16:23:43Z</time>
      </trkpt>
      <trkpt lat="43.97272" lon="3.18442">
        <ele>773.7</ele>
        <time>2021-08-14T16:23:45Z</time>
      </trkpt>
      <trkpt lat="43.97271" lon="3.18437">
        <ele>773.9</ele>
        <time>2021-08-14T16:23:47Z</time>
      </trkpt>
      <trkpt lat="43.9727" lon="3.18431">
        <ele>774</ele>
        <time>2021-08-14T16:23:49Z</time>
      </trkpt>
      <trkpt lat="43.97268" lon="3.18425">
        <ele>774.2</ele>
        <time>2021-08-14T16:23:51Z</time>
      </trkpt>
      <trkpt lat="43.97268" lon="3.1842">
        <ele>774.3</ele>
        <time>2021-08-14T16:23:53Z</time>
      </trkpt>
      <trkpt lat="43.97266" lon="3.18414">
        <ele>774.5</ele>
        <time>2021-08-14T16:23:55Z</time>
      </trkpt>
      <trkpt lat="43.97265" lon="3.18409">
        <ele>774.7</ele>
        <time>2021-08-14T16:23:57Z</time>
      </trkpt>
      <trkpt lat="43.97264" lon="3.18403">
        <ele>775</ele>
        <time>2021-08-14T16:23:59Z</time>
      </trkpt>
      <trkpt lat="43.97263" lon="3.18398">
        <ele>775.2</ele>
        <time>2021-08-14T16:24:01Z</time>
      </trkpt>
      <trkpt lat="43.97261" lon="3.18393">
        <ele>775.4</ele>
        <time>2021-08-14T16:24:03Z</time>
      </trkpt>
      <trkpt lat="43.97261" lon="3.18388">
        <ele>775.5</ele>
        <time>2021-08-14T16:24:05Z</time>
      </trkpt>
      <trkpt lat="43.97259" lon="3.18383">
        <ele>775.7</ele>
        <time>2021-08-14T16:24:07Z</time>
      </trkpt>
      <trkpt lat="43.97258" lon="3.18377">
        <ele>775.9</ele>
        <time>2021-08-14T16:24:09Z</time>
      </trkpt>
      <trkpt lat="43.97257" lon="3.18372">
        <ele>776.1</ele>
        <time>2021-08-14T16:24:11Z</time>
      </trkpt>
      <trkpt lat="43.97256" lon="3.18366">
        <ele>776.2</ele>
        <time>2021-08-14T16:24:13Z</time>
      </trkpt>
      <trkpt lat="43.97255" lon="3.18361">
        <ele>776.4</ele>
        <time>2021-08-14T16:24:15Z</time>
      </trkpt>
      <trkpt lat="43.97254" lon="3.18356">
        <ele>776.5</ele>
        <time>2021-08-14T16:24:17Z</time>
      </trkpt>
      <trkpt lat="43.97253" lon="3.18351">
        <ele>776.7</ele>
        <time>2021-08-14T16:24:19Z</time>
      </trkpt>
      <trkpt lat="43.97252" lon="3.18346">
        <ele>776.8</ele>
        <time>2021-08-14T16:24:21Z</time>
      </trkpt>
      <trkpt lat="43.97251" lon="3.18341">
        <ele>776.9</ele>
        <time>2021-08-14T16:24:23Z</time>
      </trkpt>
      <trkpt lat="43.97251" lon="3.18335">
        <ele>777</ele>
        <time>2021-08-14T16:24:25Z</time>
      </trkpt>
      <trkpt lat="43.97249" lon="3.1833">
        <ele>777.2</ele>
        <time>2021-08-14T16:24:27Z</time>
      </trkpt>
      <trkpt lat="43.97248" lon="3.18325">
        <ele>777.4</ele>
        <time>2021-08-14T16:24:29Z</time>
      </trkpt>
      <trkpt lat="43.97247" lon="3.18319">
        <ele>777.6</ele>
        <time>2021-08-14T16:24:31Z</time>
      </trkpt>
      <trkpt lat="43.97246" lon="3.18315">
        <ele>777.8</ele>
        <time>2021-08-14T16:24:33Z</time>
      </trkpt>
      <trkpt lat="43.97246" lon="3.1831">
        <ele>778</ele>
        <time>2021-08-14T16:24:35Z</time>
      </trkpt>
      <trkpt lat="43.97245" lon="3.18305">
        <ele>778.2</ele>
        <time>2021-08-14T16:24:37Z</time>
      </trkpt>
      <trkpt lat="43.97245" lon="3.18302">
        <ele>778.2</ele>
        <time>2021-08-14T16:24:39Z</time>
      </trkpt>
      <trkpt lat="43.97245" lon="3.183">
        <ele>778.3</ele>
        <time>2021-08-14T16:24:41Z</time>
      </trkpt>
      <trkpt lat="43.97245" lon="3.18299">
        <ele>778.3</ele>
        <time>2021-08-14T16:24:43Z</time>
      </trkpt>
      <trkpt lat="43.97245" lon="3.18299">
        <ele>778.3</ele>
        <time>2021-08-14T16:24:45Z</time>
      </trkpt>
      <trkpt lat="43.97245" lon="3.18299">
        <ele>778.3</ele>
        <time>2021-08-14T16:24:47Z</time>
      </trkpt>
      <trkpt lat="43.97245" lon="3.18298">
        <ele>778.3</ele>
        <time>2021-08-14T16:24:49Z</time>
      </trkpt>
      <trkpt lat="43.97245" lon="3.18298">
        <ele>778.3</ele>
        <time>2021-08-14T16:24:51Z</time>
      </trkpt>
      <trkpt lat="43.97234" lon="3.18291">
        <ele>779.4</ele>
        <time>2021-08-14T16:29:03Z</time>
      </trkpt>
      <trkpt lat="43.97232" lon="3.18289">
        <ele>779.7</ele>
        <time>2021-08-14T16:29:05Z</time>
      </trkpt>
      <trkpt lat="43.97229" lon="3.18288">
        <ele>779.9</ele>
        <time>2021-08-14T16:29:07Z</time>
      </trkpt>
      <trkpt lat="43.97227" lon="3.18286">
        <ele>780.2</ele>
        <time>2021-08-14T16:29:09Z</time>
      </trkpt>
      <trkpt lat="43.97224" lon="3.18284">
        <ele>780.4</ele>
        <time>2021-08-14T16:29:11Z</time>
      </trkpt>
      <trkpt lat="43.97222" lon="3.18281">
        <ele>780.7</ele>
        <time>2021-08-14T16:29:13Z</time>
      </trkpt>
      <trkpt lat="43.97219" lon="3.18279">
        <ele>780.9</ele>
        <time>2021-08-14T16:29:15Z</time>
      </trkpt>
      <trkpt lat="43.97217" lon="3.18278">
        <ele>781.1</ele>
        <time>2021-08-14T16:29:17Z</time>
      </trkpt>
      <trkpt lat="43.97214" lon="3.18278">
        <ele>781.4</ele>
        <time>2021-08-14T16:29:19Z</time>
      </trkpt>
      <trkpt lat="43.9721" lon="3.18278">
        <ele>781.7</ele>
        <time>2021-08-14T16:29:21Z</time>
      </trkpt>
      <trkpt lat="43.97208" lon="3.18278">
        <ele>781.8</ele>
        <time>2021-08-14T16:29:23Z</time>
      </trkpt>
      <trkpt lat="43.97208" lon="3.18278">
        <ele>781.8</ele>
        <time>2021-08-14T16:29:25Z</time>
      </trkpt>
      <trkpt lat="43.97208" lon="3.18278">
        <ele>781.8</ele>
        <time>2021-08-14T16:29:27Z</time>
      </trkpt>
      <trkpt lat="43.97208" lon="3.18279">
        <ele>781.8</ele>
        <time>2021-08-14T16:29:29Z</time>
      </trkpt>
      <trkpt lat="43.97208" lon="3.18279">
        <ele>781.8</ele>
        <time>2021-08-14T16:29:31Z</time>
      </trkpt>
      <trkpt lat="43.97208" lon="3.18279">
        <ele>781.9</ele>
        <time>2021-08-14T16:29:33Z</time>
      </trkpt>
      <trkpt lat="43.97208" lon="3.18279">
        <ele>781.9</ele>
        <time>2021-08-14T16:29:35Z</time>
      </trkpt>
      <trkpt lat="43.97207" lon="3.1828">
        <ele>781.9</ele>
        <time>2021-08-14T16:29:37Z</time>
      </trkpt>
      <trkpt lat="43.97207" lon="3.1828">
        <ele>782</ele>
        <time>2021-08-14T16:29:39Z</time>
      </trkpt>
      <trkpt lat="43.97205" lon="3.18279">
        <ele>782.1</ele>
        <time>2021-08-14T16:29:41Z</time>
      </trkpt>
      <trkpt lat="43.97203" lon="3.1828">
        <ele>782.2</ele>
        <time>2021-08-14T16:29:43Z</time>
      </trkpt>
      <trkpt lat="43.97202" lon="3.1828">
        <ele>782.4</ele>
        <time>2021-08-14T16:29:45Z</time>
      </trkpt>
      <trkpt lat="43.972" lon="3.18281">
        <ele>782.5</ele>
        <time>2021-08-14T16:29:47Z</time>
      </trkpt>
      <trkpt lat="43.97198" lon="3.18281">
        <ele>782.7</ele>
        <time>2021-08-14T16:29:49Z</time>
      </trkpt>
      <trkpt lat="43.97197" lon="3.18281">
        <ele>782.7</ele>
        <time>2021-08-14T16:29:51Z</time>
      </trkpt>
      <trkpt lat="43.97196" lon="3.18282">
        <ele>782.9</ele>
        <time>2021-08-14T16:29:53Z</time>
      </trkpt>
      <trkpt lat="43.97195" lon="3.18282">
        <ele>783</ele>
        <time>2021-08-14T16:29:55Z</time>
      </trkpt>
      <trkpt lat="43.97193" lon="3.18282">
        <ele>783.1</ele>
        <time>2021-08-14T16:29:57Z</time>
      </trkpt>
      <trkpt lat="43.97192" lon="3.18282">
        <ele>783.2</ele>
        <time>2021-08-14T16:29:59Z</time>
      </trkpt>
      <trkpt lat="43.97191" lon="3.18283">
        <ele>783.3</ele>
        <time>2021-08-14T16:30:01Z</time>
      </trkpt>
      <trkpt lat="43.9719" lon="3.18283">
        <ele>783.4</ele>
        <time>2021-08-14T16:30:03Z</time>
      </trkpt>
      <trkpt lat="43.97189" lon="3.18284">
        <ele>783.4</ele>
        <time>2021-08-14T16:30:05Z</time>
      </trkpt>
      <trkpt lat="43.9719" lon="3.18284">
        <ele>783.4</ele>
        <time>2021-08-14T16:30:07Z</time>
      </trkpt>
      <trkpt lat="43.9719" lon="3.18284">
        <ele>783.4</ele>
        <time>2021-08-14T16:30:09Z</time>
      </trkpt>
      <trkpt lat="43.9719" lon="3.18284">
        <ele>783.4</ele>
        <time>2021-08-14T16:30:11Z</time>
      </trkpt>
      <trkpt lat="43.9719" lon="3.18284">
        <ele>783.4</ele>
        <time>2021-08-14T16:30:13Z</time>
      </trkpt>
      <trkpt lat="43.9719" lon="3.18284">
        <ele>783.4</ele>
        <time>2021-08-14T16:30:15Z</time>
      </trkpt>
      <trkpt lat="43.97188" lon="3.18285">
        <ele>783.5</ele>
        <time>2021-08-14T16:30:17Z</time>
      </trkpt>
      <trkpt lat="43.97186" lon="3.18286">
        <ele>783.7</ele>
        <time>2021-08-14T16:30:19Z</time>
      </trkpt>
      <trkpt lat="43.97185" lon="3.18287">
        <ele>783.9</ele>
        <time>2021-08-14T16:30:21Z</time>
      </trkpt>
      <trkpt lat="43.97183" lon="3.18289">
        <ele>784</ele>
        <time>2021-08-14T16:30:23Z</time>
      </trkpt>
      <trkpt lat="43.97182" lon="3.18291">
        <ele>784.2</ele>
        <time>2021-08-14T16:30:25Z</time>
      </trkpt>
      <trkpt lat="43.9718" lon="3.18292">
        <ele>784.3</ele>
        <time>2021-08-14T16:30:27Z</time>
      </trkpt>
      <trkpt lat="43.97179" lon="3.18294">
        <ele>784.4</ele>
        <time>2021-08-14T16:30:29Z</time>
      </trkpt>
      <trkpt lat="43.97177" lon="3.18294">
        <ele>784.6</ele>
        <time>2021-08-14T16:30:31Z</time>
      </trkpt>
      <trkpt lat="43.97175" lon="3.18294">
        <ele>784.8</ele>
        <time>2021-08-14T16:30:33Z</time>
      </trkpt>
      <trkpt lat="43.97174" lon="3.18294">
        <ele>784.9</ele>
        <time>2021-08-14T16:30:35Z</time>
      </trkpt>
      <trkpt lat="43.97172" lon="3.18295">
        <ele>785.1</ele>
        <time>2021-08-14T16:30:37Z</time>
      </trkpt>
      <trkpt lat="43.9717" lon="3.18295">
        <ele>785.2</ele>
        <time>2021-08-14T16:30:39Z</time>
      </trkpt>
      <trkpt lat="43.97168" lon="3.18295">
        <ele>785.4</ele>
        <time>2021-08-14T16:30:41Z</time>
      </trkpt>
      <trkpt lat="43.97167" lon="3.18295">
        <ele>785.5</ele>
        <time>2021-08-14T16:30:43Z</time>
      </trkpt>
      <trkpt lat="43.97166" lon="3.18295">
        <ele>785.5</ele>
        <time>2021-08-14T16:30:45Z</time>
      </trkpt>
      <trkpt lat="43.97164" lon="3.18297">
        <ele>785.3</ele>
        <time>2021-08-14T16:30:47Z</time>
      </trkpt>
      <trkpt lat="43.97163" lon="3.18298">
        <ele>785.2</ele>
        <time>2021-08-14T16:30:49Z</time>
      </trkpt>
      <trkpt lat="43.97161" lon="3.183">
        <ele>785.1</ele>
        <time>2021-08-14T16:30:51Z</time>
      </trkpt>
      <trkpt lat="43.9716" lon="3.18302">
        <ele>785.1</ele>
        <time>2021-08-14T16:30:53Z</time>
      </trkpt>
      <trkpt lat="43.97159" lon="3.18303">
        <ele>785</ele>
        <time>2021-08-14T16:30:55Z</time>
      </trkpt>
      <trkpt lat="43.97158" lon="3.18305">
        <ele>784.9</ele>
        <time>2021-08-14T16:30:57Z</time>
      </trkpt>
      <trkpt lat="43.97157" lon="3.18307">
        <ele>784.8</ele>
        <time>2021-08-14T16:30:59Z</time>
      </trkpt>
      <trkpt lat="43.97156" lon="3.18308">
        <ele>784.8</ele>
        <time>2021-08-14T16:31:01Z</time>
      </trkpt>
      <trkpt lat="43.97154" lon="3.1831">
        <ele>784.6</ele>
        <time>2021-08-14T16:31:03Z</time>
      </trkpt>
      <trkpt lat="43.97153" lon="3.18311">
        <ele>784.5</ele>
        <time>2021-08-14T16:31:05Z</time>
      </trkpt>
      <trkpt lat="43.97151" lon="3.18313">
        <ele>784.4</ele>
        <time>2021-08-14T16:31:07Z</time>
      </trkpt>
      <trkpt lat="43.9715" lon="3.18315">
        <ele>784.2</ele>
        <time>2021-08-14T16:31:09Z</time>
      </trkpt>
      <trkpt lat="43.97148" lon="3.18317">
        <ele>784.1</ele>
        <time>2021-08-14T16:31:11Z</time>
      </trkpt>
      <trkpt lat="43.97147" lon="3.18318">
        <ele>784</ele>
        <time>2021-08-14T16:31:13Z</time>
      </trkpt>
      <trkpt lat="43.97145" lon="3.1832">
        <ele>783.9</ele>
        <time>2021-08-14T16:31:15Z</time>
      </trkpt>
      <trkpt lat="43.97145" lon="3.18322">
        <ele>783.8</ele>
        <time>2021-08-14T16:31:17Z</time>
      </trkpt>
      <trkpt lat="43.97145" lon="3.18322">
        <ele>783.9</ele>
        <time>2021-08-14T16:31:19Z</time>
      </trkpt>
      <trkpt lat="43.97145" lon="3.18322">
        <ele>783.8</ele>
        <time>2021-08-14T16:31:21Z</time>
      </trkpt>
      <trkpt lat="43.97144" lon="3.18324">
        <ele>783.7</ele>
        <time>2021-08-14T16:31:23Z</time>
      </trkpt>
      <trkpt lat="43.97144" lon="3.18324">
        <ele>783.8</ele>
        <time>2021-08-14T16:31:25Z</time>
      </trkpt>
      <trkpt lat="43.97143" lon="3.18325">
        <ele>783.6</ele>
        <time>2021-08-14T16:31:27Z</time>
      </trkpt>
      <trkpt lat="43.97141" lon="3.18327">
        <ele>783.5</ele>
        <time>2021-08-14T16:31:29Z</time>
      </trkpt>
      <trkpt lat="43.9714" lon="3.18329">
        <ele>783.4</ele>
        <time>2021-08-14T16:31:31Z</time>
      </trkpt>
      <trkpt lat="43.97138" lon="3.18332">
        <ele>783.3</ele>
        <time>2021-08-14T16:31:33Z</time>
      </trkpt>
      <trkpt lat="43.97137" lon="3.18333">
        <ele>783.2</ele>
        <time>2021-08-14T16:31:35Z</time>
      </trkpt>
      <trkpt lat="43.97136" lon="3.18336">
        <ele>783.1</ele>
        <time>2021-08-14T16:31:37Z</time>
      </trkpt>
      <trkpt lat="43.97135" lon="3.18338">
        <ele>783.2</ele>
        <time>2021-08-14T16:31:39Z</time>
      </trkpt>
      <trkpt lat="43.97134" lon="3.1834">
        <ele>783.2</ele>
        <time>2021-08-14T16:31:41Z</time>
      </trkpt>
      <trkpt lat="43.97133" lon="3.18343">
        <ele>783.1</ele>
        <time>2021-08-14T16:31:43Z</time>
      </trkpt>
      <trkpt lat="43.97133" lon="3.18345">
        <ele>783.2</ele>
        <time>2021-08-14T16:31:45Z</time>
      </trkpt>
      <trkpt lat="43.97131" lon="3.18347">
        <ele>783.2</ele>
        <time>2021-08-14T16:31:47Z</time>
      </trkpt>
      <trkpt lat="43.9713" lon="3.18349">
        <ele>783.2</ele>
        <time>2021-08-14T16:31:49Z</time>
      </trkpt>
      <trkpt lat="43.97129" lon="3.18352">
        <ele>783.2</ele>
        <time>2021-08-14T16:31:51Z</time>
      </trkpt>
      <trkpt lat="43.97128" lon="3.18354">
        <ele>783.2</ele>
        <time>2021-08-14T16:31:53Z</time>
      </trkpt>
      <trkpt lat="43.97128" lon="3.18356">
        <ele>783.2</ele>
        <time>2021-08-14T16:31:55Z</time>
      </trkpt>
      <trkpt lat="43.97126" lon="3.18358">
        <ele>783.2</ele>
        <time>2021-08-14T16:31:57Z</time>
      </trkpt>
      <trkpt lat="43.97125" lon="3.1836">
        <ele>783.1</ele>
        <time>2021-08-14T16:31:59Z</time>
      </trkpt>
      <trkpt lat="43.97124" lon="3.18363">
        <ele>783.1</ele>
        <time>2021-08-14T16:32:01Z</time>
      </trkpt>
      <trkpt lat="43.97122" lon="3.18365">
        <ele>783</ele>
        <time>2021-08-14T16:32:03Z</time>
      </trkpt>
      <trkpt lat="43.97121" lon="3.18367">
        <ele>783</ele>
        <time>2021-08-14T16:32:05Z</time>
      </trkpt>
      <trkpt lat="43.97119" lon="3.18369">
        <ele>783</ele>
        <time>2021-08-14T16:32:07Z</time>
      </trkpt>
      <trkpt lat="43.97117" lon="3.18371">
        <ele>782.9</ele>
        <time>2021-08-14T16:32:09Z</time>
      </trkpt>
      <trkpt lat="43.97116" lon="3.18373">
        <ele>782.9</ele>
        <time>2021-08-14T16:32:11Z</time>
      </trkpt>
      <trkpt lat="43.97115" lon="3.18375">
        <ele>782.8</ele>
        <time>2021-08-14T16:32:13Z</time>
      </trkpt>
      <trkpt lat="43.97114" lon="3.18377">
        <ele>782.9</ele>
        <time>2021-08-14T16:32:15Z</time>
      </trkpt>
      <trkpt lat="43.97113" lon="3.18379">
        <ele>782.9</ele>
        <time>2021-08-14T16:32:17Z</time>
      </trkpt>
      <trkpt lat="43.97112" lon="3.18381">
        <ele>782.8</ele>
        <time>2021-08-14T16:32:19Z</time>
      </trkpt>
    </trkseg>
      <trkpt lat="43.97117" lon="3.18368">
        <ele>782.8</ele>
        <time>2021-08-15T06:37:13Z</time>
      </trkpt>
      <trkpt lat="43.97119" lon="3.18366">
        <ele>782.8</ele>
        <time>2021-08-15T06:37:15Z</time>
      </trkpt>
      <trkpt lat="43.9712" lon="3.18364">
        <ele>782.8</ele>
        <time>2021-08-15T06:37:17Z</time>
      </trkpt>
      <trkpt lat="43.97122" lon="3.18361">
        <ele>782.9</ele>
        <time>2021-08-15T06:37:19Z</time>
      </trkpt>
      <trkpt lat="43.97123" lon="3.18359">
        <ele>782.9</ele>
        <time>2021-08-15T06:37:21Z</time>
      </trkpt>
      <trkpt lat="43.97124" lon="3.18356">
        <ele>782.9</ele>
        <time>2021-08-15T06:37:23Z</time>
      </trkpt>
      <trkpt lat="43.97126" lon="3.18354">
        <ele>782.9</ele>
        <time>2021-08-15T06:37:25Z</time>
      </trkpt>
      <trkpt lat="43.97127" lon="3.18351">
        <ele>783</ele>
        <time>2021-08-15T06:37:27Z</time>
      </trkpt>
      <trkpt lat="43.97128" lon="3.18349">
        <ele>782.9</ele>
        <time>2021-08-15T06:37:29Z</time>
      </trkpt>
      <trkpt lat="43.97129" lon="3.18346">
        <ele>782.9</ele>
        <time>2021-08-15T06:37:31Z</time>
      </trkpt>
      <trkpt lat="43.9713" lon="3.18343">
        <ele>782.9</ele>
        <time>2021-08-15T06:37:33Z</time>
      </trkpt>
      <trkpt lat="43.97132" lon="3.18341">
        <ele>783</ele>
        <time>2021-08-15T06:37:35Z</time>
      </trkpt>
      <trkpt lat="43.97132" lon="3.18338">
        <ele>782.9</ele>
        <time>2021-08-15T06:37:37Z</time>
      </trkpt>
      <trkpt lat="43.97133" lon="3.18336">
        <ele>782.9</ele>
        <time>2021-08-15T06:37:39Z</time>
      </trkpt>
      <trkpt lat="43.97135" lon="3.18334">
        <ele>782.9</ele>
        <time>2021-08-15T06:37:41Z</time>
      </trkpt>
      <trkpt lat="43.97136" lon="3.18331">
        <ele>783.1</ele>
        <time>2021-08-15T06:37:43Z</time>
      </trkpt>
      <trkpt lat="43.97138" lon="3.1833">
        <ele>783.2</ele>
        <time>2021-08-15T06:37:45Z</time>
      </trkpt>
      <trkpt lat="43.97138" lon="3.18329">
        <ele>783.3</ele>
        <time>2021-08-15T06:37:47Z</time>
      </trkpt>
      <trkpt lat="43.97138" lon="3.18329">
        <ele>783.2</ele>
        <time>2021-08-15T06:37:49Z</time>
      </trkpt>
      <trkpt lat="43.97138" lon="3.18329">
        <ele>783.3</ele>
        <time>2021-08-15T06:37:51Z</time>
      </trkpt>
      <trkpt lat="43.97138" lon="3.18329">
        <ele>783.3</ele>
        <time>2021-08-15T06:37:53Z</time>
      </trkpt>
      <trkpt lat="43.9715" lon="3.18313">
        <ele>784.2</ele>
        <time>2021-08-15T06:39:45Z</time>
      </trkpt>
      <trkpt lat="43.97151" lon="3.1831">
        <ele>784.3</ele>
        <time>2021-08-15T06:39:47Z</time>
      </trkpt>
      <trkpt lat="43.97153" lon="3.18307">
        <ele>784.5</ele>
        <time>2021-08-15T06:39:49Z</time>
      </trkpt>
      <trkpt lat="43.97155" lon="3.18305">
        <ele>784.6</ele>
        <time>2021-08-15T06:39:51Z</time>
      </trkpt>
      <trkpt lat="43.97156" lon="3.18303">
        <ele>784.7</ele>
        <time>2021-08-15T06:39:53Z</time>
      </trkpt>
      <trkpt lat="43.97158" lon="3.18301">
        <ele>784.8</ele>
        <time>2021-08-15T06:39:55Z</time>
      </trkpt>
      <trkpt lat="43.97159" lon="3.18298">
        <ele>784.9</ele>
        <time>2021-08-15T06:39:57Z</time>
      </trkpt>
      <trkpt lat="43.97161" lon="3.18293">
        <ele>785</ele>
        <time>2021-08-15T06:39:59Z</time>
      </trkpt>
      <trkpt lat="43.97163" lon="3.18291">
        <ele>785.1</ele>
        <time>2021-08-15T06:40:01Z</time>
      </trkpt>
      <trkpt lat="43.97165" lon="3.18289">
        <ele>785.3</ele>
        <time>2021-08-15T06:40:03Z</time>
      </trkpt>
      <trkpt lat="43.97168" lon="3.18289">
        <ele>785.4</ele>
        <time>2021-08-15T06:40:05Z</time>
      </trkpt>
      <trkpt lat="43.97171" lon="3.18289">
        <ele>785.1</ele>
        <time>2021-08-15T06:40:07Z</time>
      </trkpt>
      <trkpt lat="43.97172" lon="3.1829">
        <ele>785</ele>
        <time>2021-08-15T06:40:09Z</time>
      </trkpt>
      <trkpt lat="43.97174" lon="3.18291">
        <ele>784.8</ele>
        <time>2021-08-15T06:40:11Z</time>
      </trkpt>
      <trkpt lat="43.97177" lon="3.1829">
        <ele>784.6</ele>
        <time>2021-08-15T06:40:13Z</time>
      </trkpt>
      <trkpt lat="43.97179" lon="3.18288">
        <ele>784.4</ele>
        <time>2021-08-15T06:40:15Z</time>
      </trkpt>
      <trkpt lat="43.9718" lon="3.18288">
        <ele>784.2</ele>
        <time>2021-08-15T06:40:17Z</time>
      </trkpt>
      <trkpt lat="43.97182" lon="3.18287">
        <ele>784.1</ele>
        <time>2021-08-15T06:40:19Z</time>
      </trkpt>
      <trkpt lat="43.97184" lon="3.18285">
        <ele>783.9</ele>
        <time>2021-08-15T06:40:21Z</time>
      </trkpt>
      <trkpt lat="43.97186" lon="3.18282">
        <ele>783.7</ele>
        <time>2021-08-15T06:40:23Z</time>
      </trkpt>
      <trkpt lat="43.97188" lon="3.1828">
        <ele>783.5</ele>
        <time>2021-08-15T06:40:25Z</time>
      </trkpt>
      <trkpt lat="43.9719" lon="3.18279">
        <ele>783.4</ele>
        <time>2021-08-15T06:40:27Z</time>
      </trkpt>
      <trkpt lat="43.97192" lon="3.18279">
        <ele>783.2</ele>
        <time>2021-08-15T06:40:29Z</time>
      </trkpt>
      <trkpt lat="43.97193" lon="3.18279">
        <ele>783.2</ele>
        <time>2021-08-15T06:40:31Z</time>
      </trkpt>
      <trkpt lat="43.97194" lon="3.18277">
        <ele>783</ele>
        <time>2021-08-15T06:40:33Z</time>
      </trkpt>
      <trkpt lat="43.97197" lon="3.18276">
        <ele>782.8</ele>
        <time>2021-08-15T06:40:35Z</time>
      </trkpt>
      <trkpt lat="43.972" lon="3.18276">
        <ele>782.6</ele>
        <time>2021-08-15T06:40:37Z</time>
      </trkpt>
      <trkpt lat="43.97203" lon="3.18275">
        <ele>782.3</ele>
        <time>2021-08-15T06:40:39Z</time>
      </trkpt>
      <trkpt lat="43.97207" lon="3.18275">
        <ele>781.9</ele>
        <time>2021-08-15T06:40:41Z</time>
      </trkpt>
      <trkpt lat="43.9721" lon="3.18276">
        <ele>781.7</ele>
        <time>2021-08-15T06:40:43Z</time>
      </trkpt>
      <trkpt lat="43.97213" lon="3.18277">
        <ele>781.4</ele>
        <time>2021-08-15T06:40:45Z</time>
      </trkpt>
      <trkpt lat="43.97217" lon="3.18277">
        <ele>781.1</ele>
        <time>2021-08-15T06:40:47Z</time>
      </trkpt>
      <trkpt lat="43.97221" lon="3.1828">
        <ele>780.7</ele>
        <time>2021-08-15T06:40:49Z</time>
      </trkpt>
      <trkpt lat="43.97225" lon="3.18283">
        <ele>780.3</ele>
        <time>2021-08-15T06:40:51Z</time>
      </trkpt>
      <trkpt lat="43.9723" lon="3.18287">
        <ele>779.9</ele>
        <time>2021-08-15T06:40:53Z</time>
      </trkpt>
      <trkpt lat="43.97234" lon="3.18287">
        <ele>779.5</ele>
        <time>2021-08-15T06:40:55Z</time>
      </trkpt>
      <trkpt lat="43.97237" lon="3.18287">
        <ele>779.2</ele>
        <time>2021-08-15T06:40:57Z</time>
      </trkpt>
      <trkpt lat="43.97239" lon="3.18287">
        <ele>779.1</ele>
        <time>2021-08-15T06:40:59Z</time>
      </trkpt>
      <trkpt lat="43.97241" lon="3.18285">
        <ele>779</ele>
        <time>2021-08-15T06:41:01Z</time>
      </trkpt>
      <trkpt lat="43.97241" lon="3.18283">
        <ele>779</ele>
        <time>2021-08-15T06:41:03Z</time>
      </trkpt>
      <trkpt lat="43.97241" lon="3.18283">
        <ele>779</ele>
        <time>2021-08-15T06:41:05Z</time>
      </trkpt>
      <trkpt lat="43.97241" lon="3.18283">
        <ele>779</ele>
        <time>2021-08-15T06:41:07Z</time>
      </trkpt>
      <trkpt lat="43.97241" lon="3.18284">
        <ele>779</ele>
        <time>2021-08-15T06:41:09Z</time>
      </trkpt>
      <trkpt lat="43.9724" lon="3.18268">
        <ele>779.4</ele>
        <time>2021-08-15T06:41:19Z</time>
      </trkpt>
      <trkpt lat="43.9724" lon="3.18263">
        <ele>779.5</ele>
        <time>2021-08-15T06:41:21Z</time>
      </trkpt>
      <trkpt lat="43.9724" lon="3.18259">
        <ele>779.5</ele>
        <time>2021-08-15T06:41:23Z</time>
      </trkpt>
      <trkpt lat="43.97241" lon="3.18254">
        <ele>779.6</ele>
        <time>2021-08-15T06:41:25Z</time>
      </trkpt>
      <trkpt lat="43.97241" lon="3.1825">
        <ele>779.7</ele>
        <time>2021-08-15T06:41:27Z</time>
      </trkpt>
      <trkpt lat="43.97241" lon="3.18245">
        <ele>779.9</ele>
        <time>2021-08-15T06:41:29Z</time>
      </trkpt>
      <trkpt lat="43.97243" lon="3.18241">
        <ele>780.1</ele>
        <time>2021-08-15T06:41:31Z</time>
      </trkpt>
      <trkpt lat="43.97244" lon="3.18236">
        <ele>780.3</ele>
        <time>2021-08-15T06:41:33Z</time>
      </trkpt>
      <trkpt lat="43.97244" lon="3.18231">
        <ele>780.6</ele>
        <time>2021-08-15T06:41:35Z</time>
      </trkpt>
      <trkpt lat="43.97245" lon="3.18226">
        <ele>780.8</ele>
        <time>2021-08-15T06:41:37Z</time>
      </trkpt>
      <trkpt lat="43.97247" lon="3.18222">
        <ele>780.9</ele>
        <time>2021-08-15T06:41:39Z</time>
      </trkpt>
      <trkpt lat="43.97249" lon="3.18218">
        <ele>781</ele>
        <time>2021-08-15T06:41:41Z</time>
      </trkpt>
      <trkpt lat="43.9725" lon="3.18214">
        <ele>781.2</ele>
        <time>2021-08-15T06:41:43Z</time>
      </trkpt>
      <trkpt lat="43.97252" lon="3.1821">
        <ele>781.3</ele>
        <time>2021-08-15T06:41:45Z</time>
      </trkpt>
      <trkpt lat="43.97253" lon="3.18206">
        <ele>781.5</ele>
        <time>2021-08-15T06:41:47Z</time>
      </trkpt>
      <trkpt lat="43.97255" lon="3.18204">
        <ele>781.6</ele>
        <time>2021-08-15T06:41:49Z</time>
      </trkpt>
      <trkpt lat="43.97256" lon="3.182">
        <ele>781.7</ele>
        <time>2021-08-15T06:41:51Z</time>
      </trkpt>
      <trkpt lat="43.97258" lon="3.18196">
        <ele>781.9</ele>
        <time>2021-08-15T06:41:53Z</time>
      </trkpt>
      <trkpt lat="43.97259" lon="3.18192">
        <ele>782.1</ele>
        <time>2021-08-15T06:41:55Z</time>
      </trkpt>
      <trkpt lat="43.97261" lon="3.18187">
        <ele>782.3</ele>
        <time>2021-08-15T06:41:57Z</time>
      </trkpt>
      <trkpt lat="43.97263" lon="3.18184">
        <ele>782.4</ele>
        <time>2021-08-15T06:41:59Z</time>
      </trkpt>
      <trkpt lat="43.97264" lon="3.1818">
        <ele>782.6</ele>
        <time>2021-08-15T06:42:01Z</time>
      </trkpt>
      <trkpt lat="43.97265" lon="3.18175">
        <ele>782.8</ele>
        <time>2021-08-15T06:42:03Z</time>
      </trkpt>
      <trkpt lat="43.97266" lon="3.1817">
        <ele>783</ele>
        <time>2021-08-15T06:42:05Z</time>
      </trkpt>
      <trkpt lat="43.97267" lon="3.18166">
        <ele>783.2</ele>
        <time>2021-08-15T06:42:07Z</time>
      </trkpt>
      <trkpt lat="43.97269" lon="3.18162">
        <ele>783.5</ele>
        <time>2021-08-15T06:42:09Z</time>
      </trkpt>
      <trkpt lat="43.9727" lon="3.18157">
        <ele>783.7</ele>
        <time>2021-08-15T06:42:11Z</time>
      </trkpt>
      <trkpt lat="43.97269" lon="3.18152">
        <ele>784.1</ele>
        <time>2021-08-15T06:42:13Z</time>
      </trkpt>
      <trkpt lat="43.97269" lon="3.18147">
        <ele>784.4</ele>
        <time>2021-08-15T06:42:15Z</time>
      </trkpt>
      <trkpt lat="43.9727" lon="3.18143">
        <ele>784.8</ele>
        <time>2021-08-15T06:42:17Z</time>
      </trkpt>
      <trkpt lat="43.9727" lon="3.18137">
        <ele>785.2</ele>
        <time>2021-08-15T06:42:19Z</time>
      </trkpt>
      <trkpt lat="43.9727" lon="3.18132">
        <ele>785.6</ele>
        <time>2021-08-15T06:42:21Z</time>
      </trkpt>
      <trkpt lat="43.9727" lon="3.18126">
        <ele>785.9</ele>
        <time>2021-08-15T06:42:23Z</time>
      </trkpt>
      <trkpt lat="43.9727" lon="3.18121">
        <ele>786.3</ele>
        <time>2021-08-15T06:42:25Z</time>
      </trkpt>
      <trkpt lat="43.9727" lon="3.18115">
        <ele>786.7</ele>
        <time>2021-08-15T06:42:27Z</time>
      </trkpt>
      <trkpt lat="43.9727" lon="3.1811">
        <ele>787.1</ele>
        <time>2021-08-15T06:42:29Z</time>
      </trkpt>
      <trkpt lat="43.9727" lon="3.18105">
        <ele>787.5</ele>
        <time>2021-08-15T06:42:31Z</time>
      </trkpt>
      <trkpt lat="43.9727" lon="3.18099">
        <ele>787.9</ele>
        <time>2021-08-15T06:42:33Z</time>
      </trkpt>
      <trkpt lat="43.97269" lon="3.18094">
        <ele>788.3</ele>
        <time>2021-08-15T06:42:35Z</time>
      </trkpt>
      <trkpt lat="43.97269" lon="3.18089">
        <ele>788.7</ele>
        <time>2021-08-15T06:42:37Z</time>
      </trkpt>
      <trkpt lat="43.9727" lon="3.18084">
        <ele>789</ele>
        <time>2021-08-15T06:42:39Z</time>
      </trkpt>
      <trkpt lat="43.9727" lon="3.18078">
        <ele>789.2</ele>
        <time>2021-08-15T06:42:41Z</time>
      </trkpt>
      <trkpt lat="43.9727" lon="3.18073">
        <ele>789.4</ele>
        <time>2021-08-15T06:42:43Z</time>
      </trkpt>
      <trkpt lat="43.9727" lon="3.18068">
        <ele>789.5</ele>
        <time>2021-08-15T06:42:45Z</time>
      </trkpt>
      <trkpt lat="43.9727" lon="3.18063">
        <ele>789.6</ele>
        <time>2021-08-15T06:42:47Z</time>
      </trkpt>
      <trkpt lat="43.9727" lon="3.18058">
        <ele>789.8</ele>
        <time>2021-08-15T06:42:49Z</time>
      </trkpt>
      <trkpt lat="43.9727" lon="3.18053">
        <ele>789.9</ele>
        <time>2021-08-15T06:42:51Z</time>
      </trkpt>
      <trkpt lat="43.9727" lon="3.18047">
        <ele>790.1</ele>
        <time>2021-08-15T06:42:53Z</time>
      </trkpt>
      <trkpt lat="43.9727" lon="3.18042">
        <ele>790.3</ele>
        <time>2021-08-15T06:42:55Z</time>
      </trkpt>
      <trkpt lat="43.9727" lon="3.18037">
        <ele>790.4</ele>
        <time>2021-08-15T06:42:57Z</time>
      </trkpt>
      <trkpt lat="43.9727" lon="3.18031">
        <ele>790.6</ele>
        <time>2021-08-15T06:42:59Z</time>
      </trkpt>
      <trkpt lat="43.9727" lon="3.18026">
        <ele>790.7</ele>
        <time>2021-08-15T06:43:01Z</time>
      </trkpt>
      <trkpt lat="43.9727" lon="3.18021">
        <ele>790.9</ele>
        <time>2021-08-15T06:43:03Z</time>
      </trkpt>
      <trkpt lat="43.9727" lon="3.18015">
        <ele>791</ele>
        <time>2021-08-15T06:43:05Z</time>
      </trkpt>
      <trkpt lat="43.9727" lon="3.18009">
        <ele>791.2</ele>
        <time>2021-08-15T06:43:07Z</time>
      </trkpt>
      <trkpt lat="43.9727" lon="3.18003">
        <ele>791.4</ele>
        <time>2021-08-15T06:43:09Z</time>
      </trkpt>
      <trkpt lat="43.9727" lon="3.17996">
        <ele>791.5</ele>
        <time>2021-08-15T06:43:11Z</time>
      </trkpt>
      <trkpt lat="43.9727" lon="3.17989">
        <ele>791.5</ele>
        <time>2021-08-15T06:43:13Z</time>
      </trkpt>
      <trkpt lat="43.9727" lon="3.17984">
        <ele>791.5</ele>
        <time>2021-08-15T06:43:15Z</time>
      </trkpt>
      <trkpt lat="43.97269" lon="3.17977">
        <ele>791.5</ele>
        <time>2021-08-15T06:43:17Z</time>
      </trkpt>
      <trkpt lat="43.97269" lon="3.1797">
        <ele>791.5</ele>
        <time>2021-08-15T06:43:19Z</time>
      </trkpt>
      <trkpt lat="43.9727" lon="3.17963">
        <ele>791.6</ele>
        <time>2021-08-15T06:43:21Z</time>
      </trkpt>
      <trkpt lat="43.9727" lon="3.17955">
        <ele>791.6</ele>
        <time>2021-08-15T06:43:23Z</time>
      </trkpt>
      <trkpt lat="43.97269" lon="3.17948">
        <ele>791.6</ele>
        <time>2021-08-15T06:43:25Z</time>
      </trkpt>
      <trkpt lat="43.97269" lon="3.1794">
        <ele>791.6</ele>
        <time>2021-08-15T06:43:27Z</time>
      </trkpt>
      <trkpt lat="43.97269" lon="3.17932">
        <ele>791.6</ele>
        <time>2021-08-15T06:43:29Z</time>
      </trkpt>
      <trkpt lat="43.97269" lon="3.17923">
        <ele>791.7</ele>
        <time>2021-08-15T06:43:31Z</time>
      </trkpt>
      <trkpt lat="43.97269" lon="3.17913">
        <ele>791.5</ele>
        <time>2021-08-15T06:43:33Z</time>
      </trkpt>
      <trkpt lat="43.97268" lon="3.17902">
        <ele>791.1</ele>
        <time>2021-08-15T06:43:35Z</time>
      </trkpt>
      <trkpt lat="43.97268" lon="3.17893">
        <ele>790.7</ele>
        <time>2021-08-15T06:43:37Z</time>
      </trkpt>
      <trkpt lat="43.97268" lon="3.17883">
        <ele>790.3</ele>
        <time>2021-08-15T06:43:39Z</time>
      </trkpt>
      <trkpt lat="43.97267" lon="3.17871">
        <ele>789.8</ele>
        <time>2021-08-15T06:43:41Z</time>
      </trkpt>
      <trkpt lat="43.97267" lon="3.1786">
        <ele>789.3</ele>
        <time>2021-08-15T06:43:43Z</time>
      </trkpt>
      <trkpt lat="43.97266" lon="3.1785">
        <ele>788.9</ele>
        <time>2021-08-15T06:43:45Z</time>
      </trkpt>
      <trkpt lat="43.97265" lon="3.1784">
        <ele>788.4</ele>
        <time>2021-08-15T06:43:47Z</time>
      </trkpt>
      <trkpt lat="43.97265" lon="3.1783">
        <ele>788</ele>
        <time>2021-08-15T06:43:49Z</time>
      </trkpt>
      <trkpt lat="43.97263" lon="3.17819">
        <ele>787.8</ele>
        <time>2021-08-15T06:43:51Z</time>
      </trkpt>
      <trkpt lat="43.97262" lon="3.17808">
        <ele>787.6</ele>
        <time>2021-08-15T06:43:53Z</time>
      </trkpt>
      <trkpt lat="43.9726" lon="3.17796">
        <ele>787.3</ele>
        <time>2021-08-15T06:43:55Z</time>
      </trkpt>
      <trkpt lat="43.97258" lon="3.17786">
        <ele>787.1</ele>
        <time>2021-08-15T06:43:57Z</time>
      </trkpt>
      <trkpt lat="43.97256" lon="3.17775">
        <ele>786.8</ele>
        <time>2021-08-15T06:43:59Z</time>
      </trkpt>
      <trkpt lat="43.97253" lon="3.17762">
        <ele>786.4</ele>
        <time>2021-08-15T06:44:01Z</time>
      </trkpt>
      <trkpt lat="43.9725" lon="3.17749">
        <ele>786</ele>
        <time>2021-08-15T06:44:03Z</time>
      </trkpt>
      <trkpt lat="43.97247" lon="3.17736">
        <ele>785.6</ele>
        <time>2021-08-15T06:44:05Z</time>
      </trkpt>
      <trkpt lat="43.97243" lon="3.17722">
        <ele>785.3</ele>
        <time>2021-08-15T06:44:07Z</time>
      </trkpt>
      <trkpt lat="43.97239" lon="3.17708">
        <ele>785.1</ele>
        <time>2021-08-15T06:44:09Z</time>
      </trkpt>
      <trkpt lat="43.97235" lon="3.17693">
        <ele>784.9</ele>
        <time>2021-08-15T06:44:11Z</time>
      </trkpt>
      <trkpt lat="43.97231" lon="3.17677">
        <ele>784.8</ele>
        <time>2021-08-15T06:44:13Z</time>
      </trkpt>
      <trkpt lat="43.97226" lon="3.1766">
        <ele>784.8</ele>
        <time>2021-08-15T06:44:15Z</time>
      </trkpt>
      <trkpt lat="43.97221" lon="3.17643">
        <ele>784.8</ele>
        <time>2021-08-15T06:44:17Z</time>
      </trkpt>
      <trkpt lat="43.97216" lon="3.17626">
        <ele>784.7</ele>
        <time>2021-08-15T06:44:19Z</time>
      </trkpt>
      <trkpt lat="43.97212" lon="3.17609">
        <ele>784.5</ele>
        <time>2021-08-15T06:44:21Z</time>
      </trkpt>
      <trkpt lat="43.97207" lon="3.17592">
        <ele>784.1</ele>
        <time>2021-08-15T06:44:23Z</time>
      </trkpt>
      <trkpt lat="43.97203" lon="3.17575">
        <ele>783.6</ele>
        <time>2021-08-15T06:44:25Z</time>
      </trkpt>
      <trkpt lat="43.97198" lon="3.17558">
        <ele>782.8</ele>
        <time>2021-08-15T06:44:27Z</time>
      </trkpt>
      <trkpt lat="43.97194" lon="3.17542">
        <ele>782</ele>
        <time>2021-08-15T06:44:29Z</time>
      </trkpt>
      <trkpt lat="43.9719" lon="3.17526">
        <ele>781.1</ele>
        <time>2021-08-15T06:44:31Z</time>
      </trkpt>
      <trkpt lat="43.97185" lon="3.1751">
        <ele>780</ele>
        <time>2021-08-15T06:44:33Z</time>
      </trkpt>
      <trkpt lat="43.97181" lon="3.17493">
        <ele>779.2</ele>
        <time>2021-08-15T06:44:35Z</time>
      </trkpt>
      <trkpt lat="43.97175" lon="3.17476">
        <ele>778.7</ele>
        <time>2021-08-15T06:44:37Z</time>
      </trkpt>
      <trkpt lat="43.97171" lon="3.17458">
        <ele>778.3</ele>
        <time>2021-08-15T06:44:39Z</time>
      </trkpt>
      <trkpt lat="43.97165" lon="3.17439">
        <ele>778</ele>
        <time>2021-08-15T06:44:41Z</time>
      </trkpt>
      <trkpt lat="43.97161" lon="3.17421">
        <ele>778</ele>
        <time>2021-08-15T06:44:43Z</time>
      </trkpt>
      <trkpt lat="43.97154" lon="3.17402">
        <ele>777.6</ele>
        <time>2021-08-15T06:44:45Z</time>
      </trkpt>
      <trkpt lat="43.97149" lon="3.17383">
        <ele>777</ele>
        <time>2021-08-15T06:44:47Z</time>
      </trkpt>
      <trkpt lat="43.97143" lon="3.17363">
        <ele>776.3</ele>
        <time>2021-08-15T06:44:49Z</time>
      </trkpt>
      <trkpt lat="43.97138" lon="3.17344">
        <ele>775.6</ele>
        <time>2021-08-15T06:44:51Z</time>
      </trkpt>
      <trkpt lat="43.97133" lon="3.17325">
        <ele>774.7</ele>
        <time>2021-08-15T06:44:53Z</time>
      </trkpt>
      <trkpt lat="43.97127" lon="3.17306">
        <ele>773.6</ele>
        <time>2021-08-15T06:44:55Z</time>
      </trkpt>
      <trkpt lat="43.97122" lon="3.17286">
        <ele>772.7</ele>
        <time>2021-08-15T06:44:57Z</time>
      </trkpt>
      <trkpt lat="43.97115" lon="3.17268">
        <ele>771.7</ele>
        <time>2021-08-15T06:44:59Z</time>
      </trkpt>
      <trkpt lat="43.97107" lon="3.17251">
        <ele>770.9</ele>
        <time>2021-08-15T06:45:01Z</time>
      </trkpt>
      <trkpt lat="43.97099" lon="3.17235">
        <ele>770.6</ele>
        <time>2021-08-15T06:45:03Z</time>
      </trkpt>
      <trkpt lat="43.97091" lon="3.17221">
        <ele>770.3</ele>
        <time>2021-08-15T06:45:05Z</time>
      </trkpt>
      <trkpt lat="43.97081" lon="3.17207">
        <ele>770</ele>
        <time>2021-08-15T06:45:07Z</time>
      </trkpt>
      <trkpt lat="43.97072" lon="3.17194">
        <ele>769.7</ele>
        <time>2021-08-15T06:45:09Z</time>
      </trkpt>
      <trkpt lat="43.97063" lon="3.1718">
        <ele>769.3</ele>
        <time>2021-08-15T06:45:11Z</time>
      </trkpt>
      <trkpt lat="43.97053" lon="3.17167">
        <ele>768.9</ele>
        <time>2021-08-15T06:45:13Z</time>
      </trkpt>
      <trkpt lat="43.97043" lon="3.17153">
        <ele>768.6</ele>
        <time>2021-08-15T06:45:15Z</time>
      </trkpt>
      <trkpt lat="43.97033" lon="3.1714">
        <ele>768.3</ele>
        <time>2021-08-15T06:45:17Z</time>
      </trkpt>
      <trkpt lat="43.97024" lon="3.17127">
        <ele>768</ele>
        <time>2021-08-15T06:45:19Z</time>
      </trkpt>
      <trkpt lat="43.97015" lon="3.17114">
        <ele>767.6</ele>
        <time>2021-08-15T06:45:21Z</time>
      </trkpt>
      <trkpt lat="43.97006" lon="3.17102">
        <ele>767.3</ele>
        <time>2021-08-15T06:45:23Z</time>
      </trkpt>
      <trkpt lat="43.96998" lon="3.1709">
        <ele>766.9</ele>
        <time>2021-08-15T06:45:25Z</time>
      </trkpt>
      <trkpt lat="43.9699" lon="3.17079">
        <ele>766.9</ele>
        <time>2021-08-15T06:45:27Z</time>
      </trkpt>
      <trkpt lat="43.96983" lon="3.1707">
        <ele>767.2</ele>
        <time>2021-08-15T06:45:29Z</time>
      </trkpt>
      <trkpt lat="43.96977" lon="3.17061">
        <ele>767.5</ele>
        <time>2021-08-15T06:45:31Z</time>
      </trkpt>
      <trkpt lat="43.96971" lon="3.17053">
        <ele>767.7</ele>
        <time>2021-08-15T06:45:33Z</time>
      </trkpt>
      <trkpt lat="43.96966" lon="3.17045">
        <ele>767.9</ele>
        <time>2021-08-15T06:45:35Z</time>
      </trkpt>
      <trkpt lat="43.9696" lon="3.17037">
        <ele>768.1</ele>
        <time>2021-08-15T06:45:37Z</time>
      </trkpt>
      <trkpt lat="43.96954" lon="3.17029">
        <ele>768.2</ele>
        <time>2021-08-15T06:45:39Z</time>
      </trkpt>
      <trkpt lat="43.96949" lon="3.17021">
        <ele>768.4</ele>
        <time>2021-08-15T06:45:41Z</time>
      </trkpt>
      <trkpt lat="43.96944" lon="3.17014">
        <ele>768.6</ele>
        <time>2021-08-15T06:45:43Z</time>
      </trkpt>
      <trkpt lat="43.96938" lon="3.17007">
        <ele>768.7</ele>
        <time>2021-08-15T06:45:45Z</time>
      </trkpt>
      <trkpt lat="43.96933" lon="3.17">
        <ele>768.8</ele>
        <time>2021-08-15T06:45:47Z</time>
      </trkpt>
      <trkpt lat="43.96928" lon="3.16993">
        <ele>769.1</ele>
        <time>2021-08-15T06:45:49Z</time>
      </trkpt>
      <trkpt lat="43.96923" lon="3.16986">
        <ele>769.4</ele>
        <time>2021-08-15T06:45:51Z</time>
      </trkpt>
      <trkpt lat="43.96918" lon="3.16978">
        <ele>769.6</ele>
        <time>2021-08-15T06:45:53Z</time>
      </trkpt>
      <trkpt lat="43.96913" lon="3.16972">
        <ele>769.9</ele>
        <time>2021-08-15T06:45:55Z</time>
      </trkpt>
      <trkpt lat="43.96908" lon="3.16966">
        <ele>770.2</ele>
        <time>2021-08-15T06:45:57Z</time>
      </trkpt>
      <trkpt lat="43.96904" lon="3.1696">
        <ele>770.5</ele>
        <time>2021-08-15T06:45:59Z</time>
      </trkpt>
      <trkpt lat="43.969" lon="3.16954">
        <ele>770.8</ele>
        <time>2021-08-15T06:46:01Z</time>
      </trkpt>
      <trkpt lat="43.96896" lon="3.16947">
        <ele>771.1</ele>
        <time>2021-08-15T06:46:03Z</time>
      </trkpt>
      <trkpt lat="43.96891" lon="3.16941">
        <ele>771.3</ele>
        <time>2021-08-15T06:46:05Z</time>
      </trkpt>
      <trkpt lat="43.96887" lon="3.16935">
        <ele>771.5</ele>
        <time>2021-08-15T06:46:07Z</time>
      </trkpt>
      <trkpt lat="43.96882" lon="3.16928">
        <ele>771.7</ele>
        <time>2021-08-15T06:46:09Z</time>
      </trkpt>
      <trkpt lat="43.96878" lon="3.16923">
        <ele>771.8</ele>
        <time>2021-08-15T06:46:11Z</time>
      </trkpt>
      <trkpt lat="43.96876" lon="3.16919">
        <ele>771.9</ele>
        <time>2021-08-15T06:46:13Z</time>
      </trkpt>
      <trkpt lat="43.96875" lon="3.16918">
        <ele>771.9</ele>
        <time>2021-08-15T06:46:15Z</time>
      </trkpt>
      <trkpt lat="43.96873" lon="3.16915">
        <ele>772</ele>
        <time>2021-08-15T06:46:17Z</time>
      </trkpt>
      <trkpt lat="43.96871" lon="3.16913">
        <ele>772</ele>
        <time>2021-08-15T06:46:19Z</time>
      </trkpt>
      <trkpt lat="43.96871" lon="3.16913">
        <ele>772</ele>
        <time>2021-08-15T06:46:21Z</time>
      </trkpt>
      <trkpt lat="43.96871" lon="3.16913">
        <ele>772</ele>
        <time>2021-08-15T06:46:23Z</time>
      </trkpt>
      <trkpt lat="43.96858" lon="3.16896">
        <ele>772.3</ele>
        <time>2021-08-15T06:46:41Z</time>
      </trkpt>
      <trkpt lat="43.96854" lon="3.16892">
        <ele>772.3</ele>
        <time>2021-08-15T06:46:43Z</time>
      </trkpt>
      <trkpt lat="43.96851" lon="3.16888">
        <ele>772.3</ele>
        <time>2021-08-15T06:46:45Z</time>
      </trkpt>
      <trkpt lat="43.96848" lon="3.16884">
        <ele>772.3</ele>
        <time>2021-08-15T06:46:47Z</time>
      </trkpt>
      <trkpt lat="43.96844" lon="3.16879">
        <ele>772.4</ele>
        <time>2021-08-15T06:46:49Z</time>
      </trkpt>
      <trkpt lat="43.96841" lon="3.16873">
        <ele>772.5</ele>
        <time>2021-08-15T06:46:51Z</time>
      </trkpt>
      <trkpt lat="43.96838" lon="3.16867">
        <ele>772.6</ele>
        <time>2021-08-15T06:46:53Z</time>
      </trkpt>
      <trkpt lat="43.96834" lon="3.16862">
        <ele>772.7</ele>
        <time>2021-08-15T06:46:55Z</time>
      </trkpt>
      <trkpt lat="43.9683" lon="3.16856">
        <ele>772.8</ele>
        <time>2021-08-15T06:46:57Z</time>
      </trkpt>
      <trkpt lat="43.96826" lon="3.16851">
        <ele>773</ele>
        <time>2021-08-15T06:46:59Z</time>
      </trkpt>
      <trkpt lat="43.96821" lon="3.16845">
        <ele>773.2</ele>
        <time>2021-08-15T06:47:01Z</time>
      </trkpt>
      <trkpt lat="43.96817" lon="3.16839">
        <ele>773.4</ele>
        <time>2021-08-15T06:47:03Z</time>
      </trkpt>
      <trkpt lat="43.96813" lon="3.16833">
        <ele>773.5</ele>
        <time>2021-08-15T06:47:05Z</time>
      </trkpt>
      <trkpt lat="43.96809" lon="3.16828">
        <ele>773.5</ele>
        <time>2021-08-15T06:47:07Z</time>
      </trkpt>
      <trkpt lat="43.96804" lon="3.16822">
        <ele>773.5</ele>
        <time>2021-08-15T06:47:09Z</time>
      </trkpt>
      <trkpt lat="43.968" lon="3.16815">
        <ele>773.5</ele>
        <time>2021-08-15T06:47:11Z</time>
      </trkpt>
      <trkpt lat="43.96795" lon="3.16808">
        <ele>773.5</ele>
        <time>2021-08-15T06:47:13Z</time>
      </trkpt>
      <trkpt lat="43.9679" lon="3.16801">
        <ele>773.5</ele>
        <time>2021-08-15T06:47:15Z</time>
      </trkpt>
      <trkpt lat="43.96785" lon="3.16794">
        <ele>773.5</ele>
        <time>2021-08-15T06:47:17Z</time>
      </trkpt>
      <trkpt lat="43.96779" lon="3.16786">
        <ele>773.5</ele>
        <time>2021-08-15T06:47:19Z</time>
      </trkpt>
      <trkpt lat="43.96774" lon="3.16779">
        <ele>773.4</ele>
        <time>2021-08-15T06:47:21Z</time>
      </trkpt>
      <trkpt lat="43.96768" lon="3.16771">
        <ele>773.3</ele>
        <time>2021-08-15T06:47:23Z</time>
      </trkpt>
      <trkpt lat="43.96762" lon="3.16763">
        <ele>773.3</ele>
        <time>2021-08-15T06:47:25Z</time>
      </trkpt>
      <trkpt lat="43.96757" lon="3.16755">
        <ele>773.2</ele>
        <time>2021-08-15T06:47:27Z</time>
      </trkpt>
      <trkpt lat="43.96751" lon="3.16747">
        <ele>773</ele>
        <time>2021-08-15T06:47:29Z</time>
      </trkpt>
      <trkpt lat="43.96745" lon="3.16738">
        <ele>772.7</ele>
        <time>2021-08-15T06:47:31Z</time>
      </trkpt>
      <trkpt lat="43.96739" lon="3.1673">
        <ele>772.4</ele>
        <time>2021-08-15T06:47:33Z</time>
      </trkpt>
      <trkpt lat="43.96735" lon="3.16723">
        <ele>772.2</ele>
        <time>2021-08-15T06:47:35Z</time>
      </trkpt>
      <trkpt lat="43.96731" lon="3.16718">
        <ele>772</ele>
        <time>2021-08-15T06:47:37Z</time>
      </trkpt>
      <trkpt lat="43.96727" lon="3.16711">
        <ele>771.7</ele>
        <time>2021-08-15T06:47:39Z</time>
      </trkpt>
      <trkpt lat="43.96722" lon="3.16704">
        <ele>771.5</ele>
        <time>2021-08-15T06:47:41Z</time>
      </trkpt>
      <trkpt lat="43.96717" lon="3.16695">
        <ele>771.3</ele>
        <time>2021-08-15T06:47:43Z</time>
      </trkpt>
      <trkpt lat="43.96711" lon="3.16686">
        <ele>771</ele>
        <time>2021-08-15T06:47:45Z</time>
      </trkpt>
      <trkpt lat="43.96705" lon="3.16676">
        <ele>770.8</ele>
        <time>2021-08-15T06:47:47Z</time>
      </trkpt>
      <trkpt lat="43.96699" lon="3.16665">
        <ele>770.6</ele>
        <time>2021-08-15T06:47:49Z</time>
      </trkpt>
      <trkpt lat="43.96693" lon="3.16654">
        <ele>770.5</ele>
        <time>2021-08-15T06:47:51Z</time>
      </trkpt>
      <trkpt lat="43.96688" lon="3.16642">
        <ele>770.4</ele>
        <time>2021-08-15T06:47:53Z</time>
      </trkpt>
      <trkpt lat="43.96682" lon="3.1663">
        <ele>770.2</ele>
        <time>2021-08-15T06:47:55Z</time>
      </trkpt>
      <trkpt lat="43.96677" lon="3.16618">
        <ele>770.1</ele>
        <time>2021-08-15T06:47:57Z</time>
      </trkpt>
      <trkpt lat="43.96671" lon="3.16606">
        <ele>770</ele>
        <time>2021-08-15T06:47:59Z</time>
      </trkpt>
      <trkpt lat="43.96666" lon="3.16594">
        <ele>769.8</ele>
        <time>2021-08-15T06:48:01Z</time>
      </trkpt>
      <trkpt lat="43.9666" lon="3.16583">
        <ele>769.6</ele>
        <time>2021-08-15T06:48:03Z</time>
      </trkpt>
      <trkpt lat="43.96655" lon="3.16571">
        <ele>769.6</ele>
        <time>2021-08-15T06:48:05Z</time>
      </trkpt>
      <trkpt lat="43.96649" lon="3.1656">
        <ele>769.5</ele>
        <time>2021-08-15T06:48:07Z</time>
      </trkpt>
      <trkpt lat="43.96644" lon="3.16549">
        <ele>769.5</ele>
        <time>2021-08-15T06:48:09Z</time>
      </trkpt>
      <trkpt lat="43.96639" lon="3.1654">
        <ele>769.4</ele>
        <time>2021-08-15T06:48:11Z</time>
      </trkpt>
      <trkpt lat="43.96635" lon="3.1653">
        <ele>769.4</ele>
        <time>2021-08-15T06:48:13Z</time>
      </trkpt>
      <trkpt lat="43.9663" lon="3.1652">
        <ele>769.3</ele>
        <time>2021-08-15T06:48:15Z</time>
      </trkpt>
      <trkpt lat="43.96625" lon="3.1651">
        <ele>769.3</ele>
        <time>2021-08-15T06:48:17Z</time>
      </trkpt>
      <trkpt lat="43.9662" lon="3.165">
        <ele>769.2</ele>
        <time>2021-08-15T06:48:19Z</time>
      </trkpt>
      <trkpt lat="43.96616" lon="3.1649">
        <ele>769.1</ele>
        <time>2021-08-15T06:48:21Z</time>
      </trkpt>
      <trkpt lat="43.96612" lon="3.16481">
        <ele>768.9</ele>
        <time>2021-08-15T06:48:23Z</time>
      </trkpt>
      <trkpt lat="43.96607" lon="3.16472">
        <ele>768.8</ele>
        <time>2021-08-15T06:48:25Z</time>
      </trkpt>
      <trkpt lat="43.96602" lon="3.16462">
        <ele>768.6</ele>
        <time>2021-08-15T06:48:27Z</time>
      </trkpt>
      <trkpt lat="43.96597" lon="3.16451">
        <ele>768.4</ele>
        <time>2021-08-15T06:48:29Z</time>
      </trkpt>
      <trkpt lat="43.96591" lon="3.1644">
        <ele>768.2</ele>
        <time>2021-08-15T06:48:31Z</time>
      </trkpt>
      <trkpt lat="43.96586" lon="3.16428">
        <ele>768</ele>
        <time>2021-08-15T06:48:33Z</time>
      </trkpt>
      <trkpt lat="43.9658" lon="3.16416">
        <ele>767.8</ele>
        <time>2021-08-15T06:48:35Z</time>
      </trkpt>
      <trkpt lat="43.96574" lon="3.16405">
        <ele>767.5</ele>
        <time>2021-08-15T06:48:37Z</time>
      </trkpt>
      <trkpt lat="43.96568" lon="3.16392">
        <ele>767.2</ele>
        <time>2021-08-15T06:48:39Z</time>
      </trkpt>
      <trkpt lat="43.96562" lon="3.1638">
        <ele>767</ele>
        <time>2021-08-15T06:48:41Z</time>
      </trkpt>
      <trkpt lat="43.96556" lon="3.16367">
        <ele>766.8</ele>
        <time>2021-08-15T06:48:43Z</time>
      </trkpt>
      <trkpt lat="43.96551" lon="3.16355">
        <ele>766.6</ele>
        <time>2021-08-15T06:48:45Z</time>
      </trkpt>
      <trkpt lat="43.96545" lon="3.16344">
        <ele>766.5</ele>
        <time>2021-08-15T06:48:47Z</time>
      </trkpt>
      <trkpt lat="43.9654" lon="3.16333">
        <ele>766.4</ele>
        <time>2021-08-15T06:48:49Z</time>
      </trkpt>
      <trkpt lat="43.96535" lon="3.16322">
        <ele>766.1</ele>
        <time>2021-08-15T06:48:51Z</time>
      </trkpt>
      <trkpt lat="43.96529" lon="3.16311">
        <ele>765.7</ele>
        <time>2021-08-15T06:48:53Z</time>
      </trkpt>
      <trkpt lat="43.96523" lon="3.16299">
        <ele>765.2</ele>
        <time>2021-08-15T06:48:55Z</time>
      </trkpt>
      <trkpt lat="43.96518" lon="3.16286">
        <ele>764.8</ele>
        <time>2021-08-15T06:48:57Z</time>
      </trkpt>
      <trkpt lat="43.96512" lon="3.16275">
        <ele>764.2</ele>
        <time>2021-08-15T06:48:59Z</time>
      </trkpt>
      <trkpt lat="43.96506" lon="3.16263">
        <ele>763.7</ele>
        <time>2021-08-15T06:49:01Z</time>
      </trkpt>
      <trkpt lat="43.965" lon="3.16251">
        <ele>763.1</ele>
        <time>2021-08-15T06:49:03Z</time>
      </trkpt>
      <trkpt lat="43.96495" lon="3.16239">
        <ele>762.8</ele>
        <time>2021-08-15T06:49:05Z</time>
      </trkpt>
      <trkpt lat="43.96489" lon="3.16227">
        <ele>762.6</ele>
        <time>2021-08-15T06:49:07Z</time>
      </trkpt>
      <trkpt lat="43.96483" lon="3.16215">
        <ele>762.4</ele>
        <time>2021-08-15T06:49:09Z</time>
      </trkpt>
      <trkpt lat="43.96477" lon="3.16203">
        <ele>762.2</ele>
        <time>2021-08-15T06:49:11Z</time>
      </trkpt>
      <trkpt lat="43.96471" lon="3.1619">
        <ele>762</ele>
        <time>2021-08-15T06:49:13Z</time>
      </trkpt>
      <trkpt lat="43.96465" lon="3.16178">
        <ele>761.8</ele>
        <time>2021-08-15T06:49:15Z</time>
      </trkpt>
      <trkpt lat="43.96459" lon="3.16166">
        <ele>761.6</ele>
        <time>2021-08-15T06:49:17Z</time>
      </trkpt>
      <trkpt lat="43.96454" lon="3.16154">
        <ele>761.8</ele>
        <time>2021-08-15T06:49:19Z</time>
      </trkpt>
      <trkpt lat="43.96448" lon="3.16142">
        <ele>762</ele>
        <time>2021-08-15T06:49:21Z</time>
      </trkpt>
      <trkpt lat="43.96442" lon="3.1613">
        <ele>762.3</ele>
        <time>2021-08-15T06:49:23Z</time>
      </trkpt>
      <trkpt lat="43.96437" lon="3.16118">
        <ele>762.6</ele>
        <time>2021-08-15T06:49:25Z</time>
      </trkpt>
      <trkpt lat="43.96432" lon="3.16107">
        <ele>763</ele>
        <time>2021-08-15T06:49:27Z</time>
      </trkpt>
      <trkpt lat="43.96426" lon="3.16098">
        <ele>763.4</ele>
        <time>2021-08-15T06:49:29Z</time>
      </trkpt>
      <trkpt lat="43.96421" lon="3.16087">
        <ele>763.8</ele>
        <time>2021-08-15T06:49:31Z</time>
      </trkpt>
      <trkpt lat="43.96416" lon="3.16077">
        <ele>763.9</ele>
        <time>2021-08-15T06:49:33Z</time>
      </trkpt>
      <trkpt lat="43.96411" lon="3.16067">
        <ele>763.8</ele>
        <time>2021-08-15T06:49:35Z</time>
      </trkpt>
      <trkpt lat="43.96407" lon="3.16056">
        <ele>763.7</ele>
        <time>2021-08-15T06:49:37Z</time>
      </trkpt>
      <trkpt lat="43.96402" lon="3.16046">
        <ele>763.6</ele>
        <time>2021-08-15T06:49:39Z</time>
      </trkpt>
      <trkpt lat="43.96397" lon="3.16037">
        <ele>763.6</ele>
        <time>2021-08-15T06:49:41Z</time>
      </trkpt>
      <trkpt lat="43.96393" lon="3.16028">
        <ele>763.5</ele>
        <time>2021-08-15T06:49:43Z</time>
      </trkpt>
      <trkpt lat="43.96388" lon="3.16019">
        <ele>763.5</ele>
        <time>2021-08-15T06:49:45Z</time>
      </trkpt>
      <trkpt lat="43.96384" lon="3.1601">
        <ele>763.5</ele>
        <time>2021-08-15T06:49:47Z</time>
      </trkpt>
      <trkpt lat="43.9638" lon="3.16002">
        <ele>763.4</ele>
        <time>2021-08-15T06:49:49Z</time>
      </trkpt>
      <trkpt lat="43.96376" lon="3.15994">
        <ele>763.4</ele>
        <time>2021-08-15T06:49:51Z</time>
      </trkpt>
      <trkpt lat="43.96373" lon="3.15986">
        <ele>763.4</ele>
        <time>2021-08-15T06:49:53Z</time>
      </trkpt>
      <trkpt lat="43.96369" lon="3.15978">
        <ele>763.5</ele>
        <time>2021-08-15T06:49:55Z</time>
      </trkpt>
      <trkpt lat="43.96365" lon="3.15971">
        <ele>763.5</ele>
        <time>2021-08-15T06:49:57Z</time>
      </trkpt>
      <trkpt lat="43.96361" lon="3.15962">
        <ele>763.5</ele>
        <time>2021-08-15T06:49:59Z</time>
      </trkpt>
      <trkpt lat="43.96357" lon="3.15954">
        <ele>763.6</ele>
        <time>2021-08-15T06:50:01Z</time>
      </trkpt>
      <trkpt lat="43.96354" lon="3.15947">
        <ele>763.6</ele>
        <time>2021-08-15T06:50:03Z</time>
      </trkpt>
      <trkpt lat="43.96351" lon="3.1594">
        <ele>763.6</ele>
        <time>2021-08-15T06:50:05Z</time>
      </trkpt>
      <trkpt lat="43.96348" lon="3.15933">
        <ele>763.7</ele>
        <time>2021-08-15T06:50:07Z</time>
      </trkpt>
      <trkpt lat="43.96345" lon="3.15926">
        <ele>763.7</ele>
        <time>2021-08-15T06:50:09Z</time>
      </trkpt>
      <trkpt lat="43.96344" lon="3.15918">
        <ele>763.8</ele>
        <time>2021-08-15T06:50:11Z</time>
      </trkpt>
      <trkpt lat="43.96346" lon="3.15911">
        <ele>763.7</ele>
        <time>2021-08-15T06:50:13Z</time>
      </trkpt>
      <trkpt lat="43.9635" lon="3.15907">
        <ele>763.7</ele>
        <time>2021-08-15T06:50:15Z</time>
      </trkpt>
      <trkpt lat="43.96354" lon="3.15907">
        <ele>763.6</ele>
        <time>2021-08-15T06:50:17Z</time>
      </trkpt>
      <trkpt lat="43.96354" lon="3.15908">
        <ele>763.6</ele>
        <time>2021-08-15T06:50:19Z</time>
      </trkpt>
      <trkpt lat="43.96354" lon="3.15908">
        <ele>763.6</ele>
        <time>2021-08-15T06:50:21Z</time>
      </trkpt>
      <trkpt lat="43.96355" lon="3.15908">
        <ele>763.5</ele>
        <time>2021-08-15T06:50:23Z</time>
      </trkpt>
      <trkpt lat="43.96355" lon="3.15908">
        <ele>763.5</ele>
        <time>2021-08-15T06:50:25Z</time>
      </trkpt>
      <trkpt lat="43.96374" lon="3.15912">
        <ele>763</ele>
        <time>2021-08-15T06:53:33Z</time>
      </trkpt>
      <trkpt lat="43.9638" lon="3.15915">
        <ele>762.9</ele>
        <time>2021-08-15T06:53:35Z</time>
      </trkpt>
      <trkpt lat="43.96387" lon="3.15917">
        <ele>762.7</ele>
        <time>2021-08-15T06:53:37Z</time>
      </trkpt>
      <trkpt lat="43.96393" lon="3.15919">
        <ele>762.6</ele>
        <time>2021-08-15T06:53:39Z</time>
      </trkpt>
      <trkpt lat="43.964" lon="3.15921">
        <ele>762.4</ele>
        <time>2021-08-15T06:53:41Z</time>
      </trkpt>
      <trkpt lat="43.96407" lon="3.15924">
        <ele>762.3</ele>
        <time>2021-08-15T06:53:43Z</time>
      </trkpt>
      <trkpt lat="43.96414" lon="3.15926">
        <ele>762.2</ele>
        <time>2021-08-15T06:53:45Z</time>
      </trkpt>
      <trkpt lat="43.96422" lon="3.15928">
        <ele>761.8</ele>
        <time>2021-08-15T06:53:47Z</time>
      </trkpt>
      <trkpt lat="43.96431" lon="3.1593">
        <ele>761.5</ele>
        <time>2021-08-15T06:53:49Z</time>
      </trkpt>
      <trkpt lat="43.9644" lon="3.15933">
        <ele>761.1</ele>
        <time>2021-08-15T06:53:51Z</time>
      </trkpt>
      <trkpt lat="43.9645" lon="3.15937">
        <ele>760.7</ele>
        <time>2021-08-15T06:53:53Z</time>
      </trkpt>
      <trkpt lat="43.9646" lon="3.1594">
        <ele>760.4</ele>
        <time>2021-08-15T06:53:55Z</time>
      </trkpt>
      <trkpt lat="43.9647" lon="3.15944">
        <ele>760.2</ele>
        <time>2021-08-15T06:53:57Z</time>
      </trkpt>
      <trkpt lat="43.9648" lon="3.15947">
        <ele>759.9</ele>
        <time>2021-08-15T06:53:59Z</time>
      </trkpt>
      <trkpt lat="43.96492" lon="3.15946">
        <ele>759.5</ele>
        <time>2021-08-15T06:54:01Z</time>
      </trkpt>
      <trkpt lat="43.96503" lon="3.15943">
        <ele>758.9</ele>
        <time>2021-08-15T06:54:03Z</time>
      </trkpt>
      <trkpt lat="43.96513" lon="3.15934">
        <ele>758.2</ele>
        <time>2021-08-15T06:54:05Z</time>
      </trkpt>
      <trkpt lat="43.96523" lon="3.15923">
        <ele>757.5</ele>
        <time>2021-08-15T06:54:07Z</time>
      </trkpt>
      <trkpt lat="43.96532" lon="3.15911">
        <ele>755.8</ele>
        <time>2021-08-15T06:54:09Z</time>
      </trkpt>
      <trkpt lat="43.9654" lon="3.159">
        <ele>753.3</ele>
        <time>2021-08-15T06:54:11Z</time>
      </trkpt>
      <trkpt lat="43.96548" lon="3.1589">
        <ele>750.7</ele>
        <time>2021-08-15T06:54:13Z</time>
      </trkpt>
      <trkpt lat="43.96558" lon="3.15883">
        <ele>749</ele>
        <time>2021-08-15T06:54:15Z</time>
      </trkpt>
      <trkpt lat="43.9657" lon="3.15882">
        <ele>748.6</ele>
        <time>2021-08-15T06:54:17Z</time>
      </trkpt>
      <trkpt lat="43.96581" lon="3.15889">
        <ele>750.1</ele>
        <time>2021-08-15T06:54:19Z</time>
      </trkpt>
      <trkpt lat="43.96591" lon="3.15902">
        <ele>753.4</ele>
        <time>2021-08-15T06:54:21Z</time>
      </trkpt>
      <trkpt lat="43.96602" lon="3.15913">
        <ele>756.2</ele>
        <time>2021-08-15T06:54:23Z</time>
      </trkpt>
      <trkpt lat="43.96615" lon="3.15924">
        <ele>757.6</ele>
        <time>2021-08-15T06:54:25Z</time>
      </trkpt>
      <trkpt lat="43.96629" lon="3.1593">
        <ele>758.2</ele>
        <time>2021-08-15T06:54:27Z</time>
      </trkpt>
      <trkpt lat="43.96642" lon="3.15933">
        <ele>758.6</ele>
        <time>2021-08-15T06:54:29Z</time>
      </trkpt>
      <trkpt lat="43.96656" lon="3.15931">
        <ele>758.5</ele>
        <time>2021-08-15T06:54:31Z</time>
      </trkpt>
      <trkpt lat="43.96666" lon="3.15919">
        <ele>757.3</ele>
        <time>2021-08-15T06:54:33Z</time>
      </trkpt>
      <trkpt lat="43.96671" lon="3.15901">
        <ele>756.4</ele>
        <time>2021-08-15T06:54:35Z</time>
      </trkpt>
      <trkpt lat="43.96675" lon="3.15881">
        <ele>754.9</ele>
        <time>2021-08-15T06:54:37Z</time>
      </trkpt>
      <trkpt lat="43.96677" lon="3.15859">
        <ele>753.2</ele>
        <time>2021-08-15T06:54:39Z</time>
      </trkpt>
      <trkpt lat="43.96678" lon="3.15836">
        <ele>750.9</ele>
        <time>2021-08-15T06:54:41Z</time>
      </trkpt>
      <trkpt lat="43.96678" lon="3.15813">
        <ele>748.3</ele>
        <time>2021-08-15T06:54:43Z</time>
      </trkpt>
      <trkpt lat="43.96676" lon="3.1579">
        <ele>745.2</ele>
        <time>2021-08-15T06:54:45Z</time>
      </trkpt>
      <trkpt lat="43.96673" lon="3.15767">
        <ele>741.8</ele>
        <time>2021-08-15T06:54:47Z</time>
      </trkpt>
      <trkpt lat="43.96674" lon="3.15745">
        <ele>739.2</ele>
        <time>2021-08-15T06:54:49Z</time>
      </trkpt>
      <trkpt lat="43.96679" lon="3.15723">
        <ele>736</ele>
        <time>2021-08-15T06:54:51Z</time>
      </trkpt>
      <trkpt lat="43.96687" lon="3.15703">
        <ele>733.5</ele>
        <time>2021-08-15T06:54:53Z</time>
      </trkpt>
      <trkpt lat="43.96696" lon="3.15683">
        <ele>731.3</ele>
        <time>2021-08-15T06:54:55Z</time>
      </trkpt>
      <trkpt lat="43.96706" lon="3.15664">
        <ele>729.2</ele>
        <time>2021-08-15T06:54:57Z</time>
      </trkpt>
      <trkpt lat="43.96718" lon="3.1565">
        <ele>726.3</ele>
        <time>2021-08-15T06:54:59Z</time>
      </trkpt>
      <trkpt lat="43.96732" lon="3.1564">
        <ele>725.5</ele>
        <time>2021-08-15T06:55:01Z</time>
      </trkpt>
      <trkpt lat="43.96749" lon="3.15638">
        <ele>727.9</ele>
        <time>2021-08-15T06:55:03Z</time>
      </trkpt>
      <trkpt lat="43.96765" lon="3.15643">
        <ele>729</ele>
        <time>2021-08-15T06:55:05Z</time>
      </trkpt>
      <trkpt lat="43.9678" lon="3.15653">
        <ele>732.2</ele>
        <time>2021-08-15T06:55:07Z</time>
      </trkpt>
      <trkpt lat="43.96795" lon="3.15663">
        <ele>735.9</ele>
        <time>2021-08-15T06:55:09Z</time>
      </trkpt>
      <trkpt lat="43.96811" lon="3.15671">
        <ele>737.8</ele>
        <time>2021-08-15T06:55:11Z</time>
      </trkpt>
      <trkpt lat="43.96828" lon="3.1567">
        <ele>736.9</ele>
        <time>2021-08-15T06:55:13Z</time>
      </trkpt>
      <trkpt lat="43.96845" lon="3.15666">
        <ele>732.3</ele>
        <time>2021-08-15T06:55:15Z</time>
      </trkpt>
      <trkpt lat="43.96862" lon="3.15662">
        <ele>727.6</ele>
        <time>2021-08-15T06:55:17Z</time>
      </trkpt>
      <trkpt lat="43.9688" lon="3.15664">
        <ele>725</ele>
        <time>2021-08-15T06:55:19Z</time>
      </trkpt>
      <trkpt lat="43.96895" lon="3.15672">
        <ele>725.2</ele>
        <time>2021-08-15T06:55:21Z</time>
      </trkpt>
      <trkpt lat="43.96909" lon="3.15681">
        <ele>725.9</ele>
        <time>2021-08-15T06:55:23Z</time>
      </trkpt>
      <trkpt lat="43.96923" lon="3.15695">
        <ele>727</ele>
        <time>2021-08-15T06:55:25Z</time>
      </trkpt>
      <trkpt lat="43.96934" lon="3.15712">
        <ele>727.8</ele>
        <time>2021-08-15T06:55:27Z</time>
      </trkpt>
      <trkpt lat="43.96945" lon="3.15731">
        <ele>729.7</ele>
        <time>2021-08-15T06:55:29Z</time>
      </trkpt>
      <trkpt lat="43.96954" lon="3.15752">
        <ele>731.9</ele>
        <time>2021-08-15T06:55:31Z</time>
      </trkpt>
      <trkpt lat="43.96965" lon="3.15769">
        <ele>729.8</ele>
        <time>2021-08-15T06:55:33Z</time>
      </trkpt>
      <trkpt lat="43.96979" lon="3.15782">
        <ele>726.1</ele>
        <time>2021-08-15T06:55:35Z</time>
      </trkpt>
      <trkpt lat="43.9699" lon="3.15798">
        <ele>724</ele>
        <time>2021-08-15T06:55:37Z</time>
      </trkpt>
      <trkpt lat="43.96999" lon="3.15817">
        <ele>724.3</ele>
        <time>2021-08-15T06:55:39Z</time>
      </trkpt>
      <trkpt lat="43.97007" lon="3.1584">
        <ele>726.5</ele>
        <time>2021-08-15T06:55:41Z</time>
      </trkpt>
      <trkpt lat="43.97013" lon="3.15863">
        <ele>729.1</ele>
        <time>2021-08-15T06:55:43Z</time>
      </trkpt>
      <trkpt lat="43.97018" lon="3.15886">
        <ele>732</ele>
        <time>2021-08-15T06:55:45Z</time>
      </trkpt>
      <trkpt lat="43.97024" lon="3.1591">
        <ele>734.3</ele>
        <time>2021-08-15T06:55:47Z</time>
      </trkpt>
      <trkpt lat="43.97032" lon="3.15932">
        <ele>735.7</ele>
        <time>2021-08-15T06:55:49Z</time>
      </trkpt>
      <trkpt lat="43.97039" lon="3.15951">
        <ele>737</ele>
        <time>2021-08-15T06:55:51Z</time>
      </trkpt>
      <trkpt lat="43.97048" lon="3.15966">
        <ele>737</ele>
        <time>2021-08-15T06:55:53Z</time>
      </trkpt>
      <trkpt lat="43.97061" lon="3.15975">
        <ele>734.3</ele>
        <time>2021-08-15T06:55:55Z</time>
      </trkpt>
      <trkpt lat="43.97076" lon="3.15972">
        <ele>728.2</ele>
        <time>2021-08-15T06:55:57Z</time>
      </trkpt>
      <trkpt lat="43.97091" lon="3.15966">
        <ele>724.8</ele>
        <time>2021-08-15T06:55:59Z</time>
      </trkpt>
      <trkpt lat="43.97107" lon="3.15957">
        <ele>723.8</ele>
        <time>2021-08-15T06:56:01Z</time>
      </trkpt>
      <trkpt lat="43.97122" lon="3.15949">
        <ele>722.7</ele>
        <time>2021-08-15T06:56:03Z</time>
      </trkpt>
      <trkpt lat="43.97138" lon="3.15941">
        <ele>721.4</ele>
        <time>2021-08-15T06:56:05Z</time>
      </trkpt>
      <trkpt lat="43.97154" lon="3.15934">
        <ele>719.9</ele>
        <time>2021-08-15T06:56:07Z</time>
      </trkpt>
      <trkpt lat="43.97168" lon="3.15924">
        <ele>717</ele>
        <time>2021-08-15T06:56:09Z</time>
      </trkpt>
      <trkpt lat="43.97182" lon="3.1591">
        <ele>714.6</ele>
        <time>2021-08-15T06:56:11Z</time>
      </trkpt>
      <trkpt lat="43.97196" lon="3.15897">
        <ele>713.5</ele>
        <time>2021-08-15T06:56:13Z</time>
      </trkpt>
      <trkpt lat="43.97211" lon="3.15886">
        <ele>713.4</ele>
        <time>2021-08-15T06:56:15Z</time>
      </trkpt>
      <trkpt lat="43.97227" lon="3.15875">
        <ele>713.2</ele>
        <time>2021-08-15T06:56:17Z</time>
      </trkpt>
      <trkpt lat="43.97243" lon="3.15864">
        <ele>713.1</ele>
        <time>2021-08-15T06:56:19Z</time>
      </trkpt>
      <trkpt lat="43.97258" lon="3.1585">
        <ele>711.4</ele>
        <time>2021-08-15T06:56:21Z</time>
      </trkpt>
      <trkpt lat="43.97272" lon="3.15834">
        <ele>708</ele>
        <time>2021-08-15T06:56:23Z</time>
      </trkpt>
      <trkpt lat="43.97286" lon="3.15817">
        <ele>705.4</ele>
        <time>2021-08-15T06:56:25Z</time>
      </trkpt>
      <trkpt lat="43.973" lon="3.15804">
        <ele>703</ele>
        <time>2021-08-15T06:56:27Z</time>
      </trkpt>
      <trkpt lat="43.97317" lon="3.15794">
        <ele>700.7</ele>
        <time>2021-08-15T06:56:29Z</time>
      </trkpt>
      <trkpt lat="43.97335" lon="3.15789">
        <ele>699</ele>
        <time>2021-08-15T06:56:31Z</time>
      </trkpt>
      <trkpt lat="43.97353" lon="3.15786">
        <ele>697.3</ele>
        <time>2021-08-15T06:56:33Z</time>
      </trkpt>
      <trkpt lat="43.97371" lon="3.15781">
        <ele>695.2</ele>
        <time>2021-08-15T06:56:35Z</time>
      </trkpt>
      <trkpt lat="43.97388" lon="3.1577">
        <ele>692.5</ele>
        <time>2021-08-15T06:56:37Z</time>
      </trkpt>
      <trkpt lat="43.97404" lon="3.15753">
        <ele>689.1</ele>
        <time>2021-08-15T06:56:39Z</time>
      </trkpt>
      <trkpt lat="43.97416" lon="3.15737">
        <ele>686.5</ele>
        <time>2021-08-15T06:56:41Z</time>
      </trkpt>
      <trkpt lat="43.97423" lon="3.15728">
        <ele>685.5</ele>
        <time>2021-08-15T06:56:43Z</time>
      </trkpt>
      <trkpt lat="43.97426" lon="3.15724">
        <ele>685.1</ele>
        <time>2021-08-15T06:56:45Z</time>
      </trkpt>
      <trkpt lat="43.97426" lon="3.15723">
        <ele>685</ele>
        <time>2021-08-15T06:56:47Z</time>
      </trkpt>
      <trkpt lat="43.97426" lon="3.15724">
        <ele>685</ele>
        <time>2021-08-15T06:56:49Z</time>
      </trkpt>
      <trkpt lat="43.97426" lon="3.15724">
        <ele>685</ele>
        <time>2021-08-15T06:56:51Z</time>
      </trkpt>
      <trkpt lat="43.97426" lon="3.15723">
        <ele>685</ele>
        <time>2021-08-15T06:56:53Z</time>
      </trkpt>
      <trkpt lat="43.97428" lon="3.1572">
        <ele>684.7</ele>
        <time>2021-08-15T06:56:55Z</time>
      </trkpt>
      <trkpt lat="43.9743" lon="3.15718">
        <ele>684.5</ele>
        <time>2021-08-15T06:56:57Z</time>
      </trkpt>
      <trkpt lat="43.9743" lon="3.15718">
        <ele>684.5</ele>
        <time>2021-08-15T06:56:59Z</time>
      </trkpt>
      <trkpt lat="43.9743" lon="3.15718">
        <ele>684.5</ele>
        <time>2021-08-15T06:57:01Z</time>
      </trkpt>
      <trkpt lat="43.9743" lon="3.15718">
        <ele>684.4</ele>
        <time>2021-08-15T06:57:03Z</time>
      </trkpt>
      <trkpt lat="43.9743" lon="3.15718">
        <ele>684.4</ele>
        <time>2021-08-15T06:57:05Z</time>
      </trkpt>
      <trkpt lat="43.97441" lon="3.15704">
        <ele>683.2</ele>
        <time>2021-08-15T06:57:35Z</time>
      </trkpt>
      <trkpt lat="43.97447" lon="3.15695">
        <ele>682.5</ele>
        <time>2021-08-15T06:57:37Z</time>
      </trkpt>
      <trkpt lat="43.97455" lon="3.15686">
        <ele>681.8</ele>
        <time>2021-08-15T06:57:39Z</time>
      </trkpt>
      <trkpt lat="43.97463" lon="3.15676">
        <ele>681.1</ele>
        <time>2021-08-15T06:57:41Z</time>
      </trkpt>
      <trkpt lat="43.97472" lon="3.15664">
        <ele>680.3</ele>
        <time>2021-08-15T06:57:43Z</time>
      </trkpt>
      <trkpt lat="43.97481" lon="3.15653">
        <ele>679.2</ele>
        <time>2021-08-15T06:57:45Z</time>
      </trkpt>
      <trkpt lat="43.97491" lon="3.1564">
        <ele>678.1</ele>
        <time>2021-08-15T06:57:47Z</time>
      </trkpt>
      <trkpt lat="43.97502" lon="3.15628">
        <ele>677</ele>
        <time>2021-08-15T06:57:49Z</time>
      </trkpt>
      <trkpt lat="43.97513" lon="3.15617">
        <ele>675.8</ele>
        <time>2021-08-15T06:57:51Z</time>
      </trkpt>
      <trkpt lat="43.97525" lon="3.15608">
        <ele>675</ele>
        <time>2021-08-15T06:57:53Z</time>
      </trkpt>
      <trkpt lat="43.97537" lon="3.156">
        <ele>674.3</ele>
        <time>2021-08-15T06:57:55Z</time>
      </trkpt>
      <trkpt lat="43.9755" lon="3.15593">
        <ele>673.7</ele>
        <time>2021-08-15T06:57:57Z</time>
      </trkpt>
      <trkpt lat="43.97564" lon="3.15591">
        <ele>673.7</ele>
        <time>2021-08-15T06:57:59Z</time>
      </trkpt>
      <trkpt lat="43.97578" lon="3.15592">
        <ele>674.2</ele>
        <time>2021-08-15T06:58:01Z</time>
      </trkpt>
      <trkpt lat="43.97592" lon="3.15595">
        <ele>674.3</ele>
        <time>2021-08-15T06:58:03Z</time>
      </trkpt>
      <trkpt lat="43.97605" lon="3.15598">
        <ele>674</ele>
        <time>2021-08-15T06:58:05Z</time>
      </trkpt>
      <trkpt lat="43.97619" lon="3.15601">
        <ele>673.6</ele>
        <time>2021-08-15T06:58:07Z</time>
      </trkpt>
      <trkpt lat="43.97634" lon="3.15603">
        <ele>672.9</ele>
        <time>2021-08-15T06:58:09Z</time>
      </trkpt>
      <trkpt lat="43.97648" lon="3.15605">
        <ele>672.3</ele>
        <time>2021-08-15T06:58:11Z</time>
      </trkpt>
      <trkpt lat="43.97659" lon="3.15607">
        <ele>671.8</ele>
        <time>2021-08-15T06:58:13Z</time>
      </trkpt>
      <trkpt lat="43.9767" lon="3.15605">
        <ele>670.9</ele>
        <time>2021-08-15T06:58:15Z</time>
      </trkpt>
      <trkpt lat="43.97683" lon="3.15604">
        <ele>670.2</ele>
        <time>2021-08-15T06:58:17Z</time>
      </trkpt>
      <trkpt lat="43.97695" lon="3.15601">
        <ele>669.3</ele>
        <time>2021-08-15T06:58:19Z</time>
      </trkpt>
      <trkpt lat="43.97707" lon="3.15597">
        <ele>668.3</ele>
        <time>2021-08-15T06:58:21Z</time>
      </trkpt>
      <trkpt lat="43.9772" lon="3.15592">
        <ele>667.2</ele>
        <time>2021-08-15T06:58:23Z</time>
      </trkpt>
      <trkpt lat="43.97734" lon="3.15586">
        <ele>666</ele>
        <time>2021-08-15T06:58:25Z</time>
      </trkpt>
      <trkpt lat="43.97748" lon="3.15578">
        <ele>664.6</ele>
        <time>2021-08-15T06:58:27Z</time>
      </trkpt>
      <trkpt lat="43.97761" lon="3.15568">
        <ele>664.2</ele>
        <time>2021-08-15T06:58:29Z</time>
      </trkpt>
      <trkpt lat="43.97775" lon="3.15557">
        <ele>663.7</ele>
        <time>2021-08-15T06:58:31Z</time>
      </trkpt>
      <trkpt lat="43.97788" lon="3.15546">
        <ele>663.1</ele>
        <time>2021-08-15T06:58:33Z</time>
      </trkpt>
      <trkpt lat="43.97801" lon="3.15534">
        <ele>662.2</ele>
        <time>2021-08-15T06:58:35Z</time>
      </trkpt>
      <trkpt lat="43.97815" lon="3.15522">
        <ele>661.2</ele>
        <time>2021-08-15T06:58:37Z</time>
      </trkpt>
      <trkpt lat="43.97828" lon="3.1551">
        <ele>660.2</ele>
        <time>2021-08-15T06:58:39Z</time>
      </trkpt>
      <trkpt lat="43.97842" lon="3.15499">
        <ele>659.9</ele>
        <time>2021-08-15T06:58:41Z</time>
      </trkpt>
      <trkpt lat="43.97855" lon="3.15485">
        <ele>659.9</ele>
        <time>2021-08-15T06:58:43Z</time>
      </trkpt>
      <trkpt lat="43.97868" lon="3.15469">
        <ele>659.5</ele>
        <time>2021-08-15T06:58:45Z</time>
      </trkpt>
      <trkpt lat="43.97878" lon="3.1545">
        <ele>658.3</ele>
        <time>2021-08-15T06:58:47Z</time>
      </trkpt>
      <trkpt lat="43.97886" lon="3.15428">
        <ele>656.4</ele>
        <time>2021-08-15T06:58:49Z</time>
      </trkpt>
      <trkpt lat="43.9789" lon="3.15403">
        <ele>654</ele>
        <time>2021-08-15T06:58:51Z</time>
      </trkpt>
      <trkpt lat="43.97893" lon="3.15376">
        <ele>651.4</ele>
        <time>2021-08-15T06:58:53Z</time>
      </trkpt>
      <trkpt lat="43.97896" lon="3.1535">
        <ele>649</ele>
        <time>2021-08-15T06:58:55Z</time>
      </trkpt>
      <trkpt lat="43.97898" lon="3.15325">
        <ele>647.2</ele>
        <time>2021-08-15T06:58:57Z</time>
      </trkpt>
      <trkpt lat="43.97901" lon="3.153">
        <ele>646</ele>
        <time>2021-08-15T06:58:59Z</time>
      </trkpt>
      <trkpt lat="43.97903" lon="3.15275">
        <ele>644.9</ele>
        <time>2021-08-15T06:59:01Z</time>
      </trkpt>
      <trkpt lat="43.97906" lon="3.15252">
        <ele>643.9</ele>
        <time>2021-08-15T06:59:03Z</time>
      </trkpt>
      <trkpt lat="43.97908" lon="3.15227">
        <ele>642.4</ele>
        <time>2021-08-15T06:59:05Z</time>
      </trkpt>
      <trkpt lat="43.97911" lon="3.15205">
        <ele>641.3</ele>
        <time>2021-08-15T06:59:07Z</time>
      </trkpt>
      <trkpt lat="43.97919" lon="3.15185">
        <ele>640.4</ele>
        <time>2021-08-15T06:59:09Z</time>
      </trkpt>
      <trkpt lat="43.97932" lon="3.1517">
        <ele>638.4</ele>
        <time>2021-08-15T06:59:11Z</time>
      </trkpt>
      <trkpt lat="43.97948" lon="3.15162">
        <ele>636.5</ele>
        <time>2021-08-15T06:59:13Z</time>
      </trkpt>
      <trkpt lat="43.97966" lon="3.15163">
        <ele>635.5</ele>
        <time>2021-08-15T06:59:15Z</time>
      </trkpt>
      <trkpt lat="43.97983" lon="3.15172">
        <ele>635.5</ele>
        <time>2021-08-15T06:59:17Z</time>
      </trkpt>
      <trkpt lat="43.97998" lon="3.15187">
        <ele>636.1</ele>
        <time>2021-08-15T06:59:19Z</time>
      </trkpt>
      <trkpt lat="43.98012" lon="3.15205">
        <ele>636.5</ele>
        <time>2021-08-15T06:59:21Z</time>
      </trkpt>
      <trkpt lat="43.98026" lon="3.15222">
        <ele>636.9</ele>
        <time>2021-08-15T06:59:23Z</time>
      </trkpt>
      <trkpt lat="43.98038" lon="3.15238">
        <ele>637.1</ele>
        <time>2021-08-15T06:59:25Z</time>
      </trkpt>
      <trkpt lat="43.98054" lon="3.15249">
        <ele>636.7</ele>
        <time>2021-08-15T06:59:27Z</time>
      </trkpt>
      <trkpt lat="43.98072" lon="3.15252">
        <ele>635.4</ele>
        <time>2021-08-15T06:59:29Z</time>
      </trkpt>
      <trkpt lat="43.98089" lon="3.15252">
        <ele>634.5</ele>
        <time>2021-08-15T06:59:31Z</time>
      </trkpt>
      <trkpt lat="43.98107" lon="3.15245">
        <ele>634.7</ele>
        <time>2021-08-15T06:59:33Z</time>
      </trkpt>
      <trkpt lat="43.98122" lon="3.15231">
        <ele>634.6</ele>
        <time>2021-08-15T06:59:35Z</time>
      </trkpt>
      <trkpt lat="43.98135" lon="3.15213">
        <ele>634.3</ele>
        <time>2021-08-15T06:59:37Z</time>
      </trkpt>
      <trkpt lat="43.98144" lon="3.15189">
        <ele>633.7</ele>
        <time>2021-08-15T06:59:39Z</time>
      </trkpt>
      <trkpt lat="43.98148" lon="3.15162">
        <ele>632.9</ele>
        <time>2021-08-15T06:59:41Z</time>
      </trkpt>
      <trkpt lat="43.98147" lon="3.15135">
        <ele>632.1</ele>
        <time>2021-08-15T06:59:43Z</time>
      </trkpt>
      <trkpt lat="43.98141" lon="3.15109">
        <ele>630.7</ele>
        <time>2021-08-15T06:59:45Z</time>
      </trkpt>
      <trkpt lat="43.98132" lon="3.15084">
        <ele>628.7</ele>
        <time>2021-08-15T06:59:47Z</time>
      </trkpt>
      <trkpt lat="43.98123" lon="3.15062">
        <ele>627.1</ele>
        <time>2021-08-15T06:59:49Z</time>
      </trkpt>
      <trkpt lat="43.98115" lon="3.1504">
        <ele>625.7</ele>
        <time>2021-08-15T06:59:51Z</time>
      </trkpt>
      <trkpt lat="43.98106" lon="3.15018">
        <ele>624.3</ele>
        <time>2021-08-15T06:59:53Z</time>
      </trkpt>
      <trkpt lat="43.98099" lon="3.14997">
        <ele>623.2</ele>
        <time>2021-08-15T06:59:55Z</time>
      </trkpt>
      <trkpt lat="43.98095" lon="3.14974">
        <ele>622.5</ele>
        <time>2021-08-15T06:59:57Z</time>
      </trkpt>
      <trkpt lat="43.98096" lon="3.1495">
        <ele>622.5</ele>
        <time>2021-08-15T06:59:59Z</time>
      </trkpt>
      <trkpt lat="43.98101" lon="3.14927">
        <ele>622.6</ele>
        <time>2021-08-15T07:00:01Z</time>
      </trkpt>
      <trkpt lat="43.98109" lon="3.14908">
        <ele>622.4</ele>
        <time>2021-08-15T07:00:03Z</time>
      </trkpt>
      <trkpt lat="43.9812" lon="3.14893">
        <ele>622.1</ele>
        <time>2021-08-15T07:00:05Z</time>
      </trkpt>
      <trkpt lat="43.98131" lon="3.14881">
        <ele>621.7</ele>
        <time>2021-08-15T07:00:07Z</time>
      </trkpt>
      <trkpt lat="43.98143" lon="3.14871">
        <ele>621.1</ele>
        <time>2021-08-15T07:00:09Z</time>
      </trkpt>
      <trkpt lat="43.98157" lon="3.14863">
        <ele>620.4</ele>
        <time>2021-08-15T07:00:11Z</time>
      </trkpt>
      <trkpt lat="43.9817" lon="3.14854">
        <ele>619.6</ele>
        <time>2021-08-15T07:00:13Z</time>
      </trkpt>
      <trkpt lat="43.98183" lon="3.14843">
        <ele>619.2</ele>
        <time>2021-08-15T07:00:15Z</time>
      </trkpt>
      <trkpt lat="43.98194" lon="3.14828">
        <ele>618.9</ele>
        <time>2021-08-15T07:00:17Z</time>
      </trkpt>
      <trkpt lat="43.98204" lon="3.1481">
        <ele>618.7</ele>
        <time>2021-08-15T07:00:19Z</time>
      </trkpt>
      <trkpt lat="43.9821" lon="3.14791">
        <ele>618.6</ele>
        <time>2021-08-15T07:00:21Z</time>
      </trkpt>
      <trkpt lat="43.98214" lon="3.14769">
        <ele>618.3</ele>
        <time>2021-08-15T07:00:23Z</time>
      </trkpt>
      <trkpt lat="43.98215" lon="3.14747">
        <ele>617.9</ele>
        <time>2021-08-15T07:00:25Z</time>
      </trkpt>
      <trkpt lat="43.98215" lon="3.14724">
        <ele>617.9</ele>
        <time>2021-08-15T07:00:27Z</time>
      </trkpt>
      <trkpt lat="43.98215" lon="3.14701">
        <ele>618</ele>
        <time>2021-08-15T07:00:29Z</time>
      </trkpt>
      <trkpt lat="43.98214" lon="3.14678">
        <ele>617.9</ele>
        <time>2021-08-15T07:00:31Z</time>
      </trkpt>
      <trkpt lat="43.98211" lon="3.14655">
        <ele>616.8</ele>
        <time>2021-08-15T07:00:33Z</time>
      </trkpt>
      <trkpt lat="43.98208" lon="3.14631">
        <ele>614.9</ele>
        <time>2021-08-15T07:00:35Z</time>
      </trkpt>
      <trkpt lat="43.98204" lon="3.14608">
        <ele>612.9</ele>
        <time>2021-08-15T07:00:37Z</time>
      </trkpt>
      <trkpt lat="43.98201" lon="3.14586">
        <ele>611.1</ele>
        <time>2021-08-15T07:00:39Z</time>
      </trkpt>
      <trkpt lat="43.98197" lon="3.14563">
        <ele>609.3</ele>
        <time>2021-08-15T07:00:41Z</time>
      </trkpt>
      <trkpt lat="43.98193" lon="3.14541">
        <ele>607.5</ele>
        <time>2021-08-15T07:00:43Z</time>
      </trkpt>
      <trkpt lat="43.9819" lon="3.14519">
        <ele>605.8</ele>
        <time>2021-08-15T07:00:45Z</time>
      </trkpt>
      <trkpt lat="43.98186" lon="3.14496">
        <ele>604.3</ele>
        <time>2021-08-15T07:00:47Z</time>
      </trkpt>
      <trkpt lat="43.98183" lon="3.14474">
        <ele>603.9</ele>
        <time>2021-08-15T07:00:49Z</time>
      </trkpt>
      <trkpt lat="43.98181" lon="3.14452">
        <ele>603.6</ele>
        <time>2021-08-15T07:00:51Z</time>
      </trkpt>
      <trkpt lat="43.9818" lon="3.14429">
        <ele>603.5</ele>
        <time>2021-08-15T07:00:53Z</time>
      </trkpt>
      <trkpt lat="43.9818" lon="3.14407">
        <ele>603.2</ele>
        <time>2021-08-15T07:00:55Z</time>
      </trkpt>
      <trkpt lat="43.98181" lon="3.14386">
        <ele>602.6</ele>
        <time>2021-08-15T07:00:57Z</time>
      </trkpt>
      <trkpt lat="43.98181" lon="3.14365">
        <ele>602</ele>
        <time>2021-08-15T07:00:59Z</time>
      </trkpt>
      <trkpt lat="43.98181" lon="3.14344">
        <ele>601.4</ele>
        <time>2021-08-15T07:01:01Z</time>
      </trkpt>
      <trkpt lat="43.98182" lon="3.14323">
        <ele>601.1</ele>
        <time>2021-08-15T07:01:03Z</time>
      </trkpt>
      <trkpt lat="43.98182" lon="3.14303">
        <ele>601.3</ele>
        <time>2021-08-15T07:01:05Z</time>
      </trkpt>
      <trkpt lat="43.98182" lon="3.14284">
        <ele>601.4</ele>
        <time>2021-08-15T07:01:07Z</time>
      </trkpt>
      <trkpt lat="43.98182" lon="3.14266">
        <ele>601.4</ele>
        <time>2021-08-15T07:01:09Z</time>
      </trkpt>
      <trkpt lat="43.98183" lon="3.14248">
        <ele>601.5</ele>
        <time>2021-08-15T07:01:11Z</time>
      </trkpt>
      <trkpt lat="43.98183" lon="3.1423">
        <ele>601.6</ele>
        <time>2021-08-15T07:01:13Z</time>
      </trkpt>
      <trkpt lat="43.98184" lon="3.14213">
        <ele>601.7</ele>
        <time>2021-08-15T07:01:15Z</time>
      </trkpt>
      <trkpt lat="43.98184" lon="3.14197">
        <ele>601.8</ele>
        <time>2021-08-15T07:01:17Z</time>
      </trkpt>
      <trkpt lat="43.98184" lon="3.14183">
        <ele>601.8</ele>
        <time>2021-08-15T07:01:19Z</time>
      </trkpt>
      <trkpt lat="43.98184" lon="3.1417">
        <ele>601.9</ele>
        <time>2021-08-15T07:01:21Z</time>
      </trkpt>
      <trkpt lat="43.98185" lon="3.14159">
        <ele>601.8</ele>
        <time>2021-08-15T07:01:23Z</time>
      </trkpt>
      <trkpt lat="43.98185" lon="3.14149">
        <ele>601.5</ele>
        <time>2021-08-15T07:01:25Z</time>
      </trkpt>
      <trkpt lat="43.98186" lon="3.14142">
        <ele>601.5</ele>
        <time>2021-08-15T07:01:27Z</time>
      </trkpt>
      <trkpt lat="43.9819" lon="3.14139">
        <ele>601.8</ele>
        <time>2021-08-15T07:01:29Z</time>
      </trkpt>
      <trkpt lat="43.98193" lon="3.14138">
        <ele>602.1</ele>
        <time>2021-08-15T07:01:31Z</time>
      </trkpt>
      <trkpt lat="43.98195" lon="3.14138">
        <ele>602.3</ele>
        <time>2021-08-15T07:01:33Z</time>
      </trkpt>
      <trkpt lat="43.98196" lon="3.14136">
        <ele>602.3</ele>
        <time>2021-08-15T07:01:35Z</time>
      </trkpt>
      <trkpt lat="43.98195" lon="3.14134">
        <ele>602.2</ele>
        <time>2021-08-15T07:01:37Z</time>
      </trkpt>
      <trkpt lat="43.98194" lon="3.14133">
        <ele>602</ele>
        <time>2021-08-15T07:01:39Z</time>
      </trkpt>
      <trkpt lat="43.98199" lon="3.14138">
        <ele>602.6</ele>
        <time>2021-08-15T07:01:53Z</time>
      </trkpt>
      <trkpt lat="43.98202" lon="3.14138">
        <ele>602.9</ele>
        <time>2021-08-15T07:01:55Z</time>
      </trkpt>
      <trkpt lat="43.98206" lon="3.14139">
        <ele>603.3</ele>
        <time>2021-08-15T07:01:57Z</time>
      </trkpt>
      <trkpt lat="43.98209" lon="3.14141">
        <ele>603.6</ele>
        <time>2021-08-15T07:01:59Z</time>
      </trkpt>
      <trkpt lat="43.9821" lon="3.14141">
        <ele>603.8</ele>
        <time>2021-08-15T07:02:01Z</time>
      </trkpt>
      <trkpt lat="43.98213" lon="3.14143">
        <ele>604.1</ele>
        <time>2021-08-15T07:02:03Z</time>
      </trkpt>
      <trkpt lat="43.98216" lon="3.14145">
        <ele>604.4</ele>
        <time>2021-08-15T07:02:05Z</time>
      </trkpt>
      <trkpt lat="43.9822" lon="3.14147">
        <ele>604.9</ele>
        <time>2021-08-15T07:02:07Z</time>
      </trkpt>
      <trkpt lat="43.98223" lon="3.14148">
        <ele>605.3</ele>
        <time>2021-08-15T07:02:09Z</time>
      </trkpt>
      <trkpt lat="43.98227" lon="3.1415">
        <ele>605.7</ele>
        <time>2021-08-15T07:02:11Z</time>
      </trkpt>
      <trkpt lat="43.9823" lon="3.14151">
        <ele>606.1</ele>
        <time>2021-08-15T07:02:13Z</time>
      </trkpt>
      <trkpt lat="43.98234" lon="3.14153">
        <ele>606.5</ele>
        <time>2021-08-15T07:02:15Z</time>
      </trkpt>
      <trkpt lat="43.98237" lon="3.14154">
        <ele>606.9</ele>
        <time>2021-08-15T07:02:17Z</time>
      </trkpt>
      <trkpt lat="43.9824" lon="3.14156">
        <ele>607.3</ele>
        <time>2021-08-15T07:02:19Z</time>
      </trkpt>
      <trkpt lat="43.98243" lon="3.14157">
        <ele>607.8</ele>
        <time>2021-08-15T07:02:21Z</time>
      </trkpt>
      <trkpt lat="43.98247" lon="3.14159">
        <ele>608.3</ele>
        <time>2021-08-15T07:02:23Z</time>
      </trkpt>
      <trkpt lat="43.98251" lon="3.14161">
        <ele>608.7</ele>
        <time>2021-08-15T07:02:25Z</time>
      </trkpt>
      <trkpt lat="43.98255" lon="3.14162">
        <ele>609</ele>
        <time>2021-08-15T07:02:27Z</time>
      </trkpt>
      <trkpt lat="43.98258" lon="3.14163">
        <ele>609.3</ele>
        <time>2021-08-15T07:02:29Z</time>
      </trkpt>
      <trkpt lat="43.98262" lon="3.14164">
        <ele>609.5</ele>
        <time>2021-08-15T07:02:31Z</time>
      </trkpt>
      <trkpt lat="43.98265" lon="3.14164">
        <ele>609.8</ele>
        <time>2021-08-15T07:02:33Z</time>
      </trkpt>
      <trkpt lat="43.98269" lon="3.14164">
        <ele>610</ele>
        <time>2021-08-15T07:02:35Z</time>
      </trkpt>
      <trkpt lat="43.98273" lon="3.14164">
        <ele>610.2</ele>
        <time>2021-08-15T07:02:37Z</time>
      </trkpt>
      <trkpt lat="43.98276" lon="3.14164">
        <ele>610.4</ele>
        <time>2021-08-15T07:02:39Z</time>
      </trkpt>
      <trkpt lat="43.9828" lon="3.14163">
        <ele>610.5</ele>
        <time>2021-08-15T07:02:41Z</time>
      </trkpt>
      <trkpt lat="43.98283" lon="3.14162">
        <ele>610.7</ele>
        <time>2021-08-15T07:02:43Z</time>
      </trkpt>
      <trkpt lat="43.98287" lon="3.1416">
        <ele>610.8</ele>
        <time>2021-08-15T07:02:45Z</time>
      </trkpt>
      <trkpt lat="43.9829" lon="3.14158">
        <ele>610.8</ele>
        <time>2021-08-15T07:02:47Z</time>
      </trkpt>
      <trkpt lat="43.98293" lon="3.14157">
        <ele>610.9</ele>
        <time>2021-08-15T07:02:49Z</time>
      </trkpt>
      <trkpt lat="43.98296" lon="3.14155">
        <ele>611</ele>
        <time>2021-08-15T07:02:51Z</time>
      </trkpt>
      <trkpt lat="43.983" lon="3.14153">
        <ele>611</ele>
        <time>2021-08-15T07:02:53Z</time>
      </trkpt>
      <trkpt lat="43.98303" lon="3.1415">
        <ele>611.1</ele>
        <time>2021-08-15T07:02:55Z</time>
      </trkpt>
      <trkpt lat="43.98306" lon="3.14147">
        <ele>611.1</ele>
        <time>2021-08-15T07:02:57Z</time>
      </trkpt>
      <trkpt lat="43.98309" lon="3.14145">
        <ele>611</ele>
        <time>2021-08-15T07:02:59Z</time>
      </trkpt>
      <trkpt lat="43.98312" lon="3.14141">
        <ele>611</ele>
        <time>2021-08-15T07:03:01Z</time>
      </trkpt>
      <trkpt lat="43.98315" lon="3.14138">
        <ele>610.9</ele>
        <time>2021-08-15T07:03:03Z</time>
      </trkpt>
      <trkpt lat="43.98317" lon="3.14134">
        <ele>610.8</ele>
        <time>2021-08-15T07:03:05Z</time>
      </trkpt>
      <trkpt lat="43.9832" lon="3.14131">
        <ele>610.7</ele>
        <time>2021-08-15T07:03:07Z</time>
      </trkpt>
      <trkpt lat="43.98322" lon="3.14127">
        <ele>610.5</ele>
        <time>2021-08-15T07:03:09Z</time>
      </trkpt>
      <trkpt lat="43.98325" lon="3.14123">
        <ele>610.4</ele>
        <time>2021-08-15T07:03:11Z</time>
      </trkpt>
      <trkpt lat="43.98327" lon="3.14118">
        <ele>610.2</ele>
        <time>2021-08-15T07:03:13Z</time>
      </trkpt>
      <trkpt lat="43.9833" lon="3.14114">
        <ele>610</ele>
        <time>2021-08-15T07:03:15Z</time>
      </trkpt>
      <trkpt lat="43.98332" lon="3.14109">
        <ele>609.8</ele>
        <time>2021-08-15T07:03:17Z</time>
      </trkpt>
      <trkpt lat="43.98335" lon="3.14104">
        <ele>609.5</ele>
        <time>2021-08-15T07:03:19Z</time>
      </trkpt>
      <trkpt lat="43.98337" lon="3.141">
        <ele>609.2</ele>
        <time>2021-08-15T07:03:21Z</time>
      </trkpt>
      <trkpt lat="43.9834" lon="3.14095">
        <ele>608.8</ele>
        <time>2021-08-15T07:03:23Z</time>
      </trkpt>
      <trkpt lat="43.98342" lon="3.14091">
        <ele>608.4</ele>
        <time>2021-08-15T07:03:25Z</time>
      </trkpt>
      <trkpt lat="43.98345" lon="3.14086">
        <ele>608.1</ele>
        <time>2021-08-15T07:03:27Z</time>
      </trkpt>
      <trkpt lat="43.98348" lon="3.14082">
        <ele>607.8</ele>
        <time>2021-08-15T07:03:29Z</time>
      </trkpt>
      <trkpt lat="43.9835" lon="3.14076">
        <ele>607.6</ele>
        <time>2021-08-15T07:03:31Z</time>
      </trkpt>
      <trkpt lat="43.98352" lon="3.1407">
        <ele>607.4</ele>
        <time>2021-08-15T07:03:33Z</time>
      </trkpt>
      <trkpt lat="43.98354" lon="3.14065">
        <ele>607.2</ele>
        <time>2021-08-15T07:03:35Z</time>
      </trkpt>
      <trkpt lat="43.98357" lon="3.14058">
        <ele>606.9</ele>
        <time>2021-08-15T07:03:37Z</time>
      </trkpt>
      <trkpt lat="43.98361" lon="3.14053">
        <ele>606.7</ele>
        <time>2021-08-15T07:03:39Z</time>
      </trkpt>
      <trkpt lat="43.98363" lon="3.14049">
        <ele>606.5</ele>
        <time>2021-08-15T07:03:41Z</time>
      </trkpt>
      <trkpt lat="43.98365" lon="3.14046">
        <ele>606.4</ele>
        <time>2021-08-15T07:03:43Z</time>
      </trkpt>
      <trkpt lat="43.98367" lon="3.14042">
        <ele>606.2</ele>
        <time>2021-08-15T07:03:45Z</time>
      </trkpt>
      <trkpt lat="43.98369" lon="3.14037">
        <ele>606</ele>
        <time>2021-08-15T07:03:47Z</time>
      </trkpt>
      <trkpt lat="43.98372" lon="3.14032">
        <ele>605.7</ele>
        <time>2021-08-15T07:03:49Z</time>
      </trkpt>
      <trkpt lat="43.98375" lon="3.14025">
        <ele>605.4</ele>
        <time>2021-08-15T07:03:51Z</time>
      </trkpt>
      <trkpt lat="43.98377" lon="3.1402">
        <ele>605.1</ele>
        <time>2021-08-15T07:03:53Z</time>
      </trkpt>
      <trkpt lat="43.98379" lon="3.14013">
        <ele>604.8</ele>
        <time>2021-08-15T07:03:55Z</time>
      </trkpt>
      <trkpt lat="43.98381" lon="3.14006">
        <ele>604.5</ele>
        <time>2021-08-15T07:03:57Z</time>
      </trkpt>
      <trkpt lat="43.98383" lon="3.13998">
        <ele>604.1</ele>
        <time>2021-08-15T07:03:59Z</time>
      </trkpt>
      <trkpt lat="43.98385" lon="3.13988">
        <ele>603.8</ele>
        <time>2021-08-15T07:04:01Z</time>
      </trkpt>
      <trkpt lat="43.98385" lon="3.13978">
        <ele>603.5</ele>
        <time>2021-08-15T07:04:03Z</time>
      </trkpt>
      <trkpt lat="43.98384" lon="3.13969">
        <ele>603.3</ele>
        <time>2021-08-15T07:04:05Z</time>
      </trkpt>
      <trkpt lat="43.98383" lon="3.13959">
        <ele>603</ele>
        <time>2021-08-15T07:04:07Z</time>
      </trkpt>
      <trkpt lat="43.98383" lon="3.13954">
        <ele>602.9</ele>
        <time>2021-08-15T07:04:09Z</time>
      </trkpt>
      <trkpt lat="43.98382" lon="3.13948">
        <ele>602.7</ele>
        <time>2021-08-15T07:04:11Z</time>
      </trkpt>
      <trkpt lat="43.98381" lon="3.1394">
        <ele>602.6</ele>
        <time>2021-08-15T07:04:13Z</time>
      </trkpt>
      <trkpt lat="43.98381" lon="3.13931">
        <ele>602.3</ele>
        <time>2021-08-15T07:04:15Z</time>
      </trkpt>
      <trkpt lat="43.98381" lon="3.1392">
        <ele>602</ele>
        <time>2021-08-15T07:04:17Z</time>
      </trkpt>
      <trkpt lat="43.98383" lon="3.1391">
        <ele>601.5</ele>
        <time>2021-08-15T07:04:19Z</time>
      </trkpt>
      <trkpt lat="43.98386" lon="3.13901">
        <ele>600.9</ele>
        <time>2021-08-15T07:04:21Z</time>
      </trkpt>
      <trkpt lat="43.98388" lon="3.13892">
        <ele>600.4</ele>
        <time>2021-08-15T07:04:23Z</time>
      </trkpt>
      <trkpt lat="43.98391" lon="3.13885">
        <ele>600</ele>
        <time>2021-08-15T07:04:25Z</time>
      </trkpt>
      <trkpt lat="43.98394" lon="3.13878">
        <ele>599.6</ele>
        <time>2021-08-15T07:04:27Z</time>
      </trkpt>
      <trkpt lat="43.98396" lon="3.13871">
        <ele>599.2</ele>
        <time>2021-08-15T07:04:29Z</time>
      </trkpt>
      <trkpt lat="43.98399" lon="3.13863">
        <ele>598.7</ele>
        <time>2021-08-15T07:04:31Z</time>
      </trkpt>
      <trkpt lat="43.984" lon="3.13854">
        <ele>598.2</ele>
        <time>2021-08-15T07:04:33Z</time>
      </trkpt>
      <trkpt lat="43.98399" lon="3.13845">
        <ele>597.8</ele>
        <time>2021-08-15T07:04:35Z</time>
      </trkpt>
      <trkpt lat="43.98398" lon="3.13835">
        <ele>597.3</ele>
        <time>2021-08-15T07:04:37Z</time>
      </trkpt>
      <trkpt lat="43.98398" lon="3.13825">
        <ele>596.9</ele>
        <time>2021-08-15T07:04:39Z</time>
      </trkpt>
      <trkpt lat="43.98397" lon="3.13814">
        <ele>596.4</ele>
        <time>2021-08-15T07:04:41Z</time>
      </trkpt>
      <trkpt lat="43.98395" lon="3.13803">
        <ele>596</ele>
        <time>2021-08-15T07:04:43Z</time>
      </trkpt>
      <trkpt lat="43.98394" lon="3.13793">
        <ele>595.6</ele>
        <time>2021-08-15T07:04:45Z</time>
      </trkpt>
      <trkpt lat="43.98394" lon="3.13786">
        <ele>595.2</ele>
        <time>2021-08-15T07:04:47Z</time>
      </trkpt>
      <trkpt lat="43.98392" lon="3.1378">
        <ele>595</ele>
        <time>2021-08-15T07:04:49Z</time>
      </trkpt>
      <trkpt lat="43.9839" lon="3.13774">
        <ele>594.7</ele>
        <time>2021-08-15T07:04:51Z</time>
      </trkpt>
      <trkpt lat="43.98387" lon="3.13769">
        <ele>594.5</ele>
        <time>2021-08-15T07:04:53Z</time>
      </trkpt>
      <trkpt lat="43.98385" lon="3.13766">
        <ele>594.4</ele>
        <time>2021-08-15T07:04:55Z</time>
      </trkpt>
      <trkpt lat="43.98383" lon="3.13764">
        <ele>594.3</ele>
        <time>2021-08-15T07:04:57Z</time>
      </trkpt>
      <trkpt lat="43.98382" lon="3.13763">
        <ele>594.2</ele>
        <time>2021-08-15T07:04:59Z</time>
      </trkpt>
      <trkpt lat="43.98382" lon="3.13764">
        <ele>594.2</ele>
        <time>2021-08-15T07:05:01Z</time>
      </trkpt>
      <trkpt lat="43.98382" lon="3.13764">
        <ele>594.2</ele>
        <time>2021-08-15T07:05:03Z</time>
      </trkpt>
      <trkpt lat="43.98382" lon="3.13764">
        <ele>594.2</ele>
        <time>2021-08-15T07:05:05Z</time>
      </trkpt>
      <trkpt lat="43.98382" lon="3.13764">
        <ele>594.2</ele>
        <time>2021-08-15T07:05:07Z</time>
      </trkpt>
      <trkpt lat="43.98366" lon="3.13769">
        <ele>594.4</ele>
        <time>2021-08-15T07:06:27Z</time>
      </trkpt>
      <trkpt lat="43.9836" lon="3.13771">
        <ele>594.4</ele>
        <time>2021-08-15T07:06:29Z</time>
      </trkpt>
      <trkpt lat="43.98355" lon="3.13771">
        <ele>594.4</ele>
        <time>2021-08-15T07:06:31Z</time>
      </trkpt>
      <trkpt lat="43.9835" lon="3.13767">
        <ele>594.2</ele>
        <time>2021-08-15T07:06:33Z</time>
      </trkpt>
      <trkpt lat="43.98345" lon="3.13763">
        <ele>593.9</ele>
        <time>2021-08-15T07:06:35Z</time>
      </trkpt>
      <trkpt lat="43.9834" lon="3.13759">
        <ele>593.6</ele>
        <time>2021-08-15T07:06:37Z</time>
      </trkpt>
      <trkpt lat="43.98335" lon="3.13755">
        <ele>593.3</ele>
        <time>2021-08-15T07:06:39Z</time>
      </trkpt>
      <trkpt lat="43.98331" lon="3.1375">
        <ele>593.1</ele>
        <time>2021-08-15T07:06:41Z</time>
      </trkpt>
      <trkpt lat="43.98326" lon="3.13746">
        <ele>593.2</ele>
        <time>2021-08-15T07:06:43Z</time>
      </trkpt>
      <trkpt lat="43.98321" lon="3.13741">
        <ele>593.3</ele>
        <time>2021-08-15T07:06:45Z</time>
      </trkpt>
      <trkpt lat="43.98317" lon="3.13738">
        <ele>593.4</ele>
        <time>2021-08-15T07:06:47Z</time>
      </trkpt>
      <trkpt lat="43.98313" lon="3.13733">
        <ele>593.5</ele>
        <time>2021-08-15T07:06:49Z</time>
      </trkpt>
      <trkpt lat="43.98309" lon="3.13729">
        <ele>593.6</ele>
        <time>2021-08-15T07:06:51Z</time>
      </trkpt>
      <trkpt lat="43.98305" lon="3.13725">
        <ele>593.7</ele>
        <time>2021-08-15T07:06:53Z</time>
      </trkpt>
      <trkpt lat="43.98301" lon="3.13722">
        <ele>593.8</ele>
        <time>2021-08-15T07:06:55Z</time>
      </trkpt>
      <trkpt lat="43.98297" lon="3.13718">
        <ele>593.9</ele>
        <time>2021-08-15T07:06:57Z</time>
      </trkpt>
      <trkpt lat="43.98293" lon="3.13714">
        <ele>594</ele>
        <time>2021-08-15T07:06:59Z</time>
      </trkpt>
      <trkpt lat="43.9829" lon="3.13711">
        <ele>594</ele>
        <time>2021-08-15T07:07:01Z</time>
      </trkpt>
      <trkpt lat="43.98286" lon="3.13707">
        <ele>594.1</ele>
        <time>2021-08-15T07:07:03Z</time>
      </trkpt>
      <trkpt lat="43.98283" lon="3.13703">
        <ele>594.2</ele>
        <time>2021-08-15T07:07:05Z</time>
      </trkpt>
      <trkpt lat="43.98279" lon="3.137">
        <ele>594.3</ele>
        <time>2021-08-15T07:07:07Z</time>
      </trkpt>
      <trkpt lat="43.98276" lon="3.13695">
        <ele>594.4</ele>
        <time>2021-08-15T07:07:09Z</time>
      </trkpt>
      <trkpt lat="43.98273" lon="3.13691">
        <ele>594.4</ele>
        <time>2021-08-15T07:07:11Z</time>
      </trkpt>
      <trkpt lat="43.9827" lon="3.13686">
        <ele>594.5</ele>
        <time>2021-08-15T07:07:13Z</time>
      </trkpt>
      <trkpt lat="43.98267" lon="3.13683">
        <ele>594.6</ele>
        <time>2021-08-15T07:07:15Z</time>
      </trkpt>
      <trkpt lat="43.98263" lon="3.1368">
        <ele>594.7</ele>
        <time>2021-08-15T07:07:17Z</time>
      </trkpt>
      <trkpt lat="43.98259" lon="3.13677">
        <ele>594.8</ele>
        <time>2021-08-15T07:07:19Z</time>
      </trkpt>
      <trkpt lat="43.98255" lon="3.13675">
        <ele>594.9</ele>
        <time>2021-08-15T07:07:21Z</time>
      </trkpt>
      <trkpt lat="43.98254" lon="3.13673">
        <ele>594.9</ele>
        <time>2021-08-15T07:07:23Z</time>
      </trkpt>
      <trkpt lat="43.98256" lon="3.13668">
        <ele>594.9</ele>
        <time>2021-08-15T07:07:25Z</time>
      </trkpt>
      <trkpt lat="43.98259" lon="3.13665">
        <ele>594.9</ele>
        <time>2021-08-15T07:07:27Z</time>
      </trkpt>
      <trkpt lat="43.98261" lon="3.13663">
        <ele>594.9</ele>
        <time>2021-08-15T07:07:29Z</time>
      </trkpt>
      <trkpt lat="43.98261" lon="3.13663">
        <ele>594.9</ele>
        <time>2021-08-15T07:07:31Z</time>
      </trkpt>
      <trkpt lat="43.98248" lon="3.13665">
        <ele>595</ele>
        <time>2021-08-15T08:14:52Z</time>
      </trkpt>
      <trkpt lat="43.98245" lon="3.13662">
        <ele>595</ele>
        <time>2021-08-15T08:14:54Z</time>
      </trkpt>
      <trkpt lat="43.98243" lon="3.13659">
        <ele>595</ele>
        <time>2021-08-15T08:14:56Z</time>
      </trkpt>
      <trkpt lat="43.98241" lon="3.13658">
        <ele>594.9</ele>
        <time>2021-08-15T08:14:58Z</time>
      </trkpt>
      <trkpt lat="43.98238" lon="3.13657">
        <ele>594.8</ele>
        <time>2021-08-15T08:15:00Z</time>
      </trkpt>
      <trkpt lat="43.98236" lon="3.13657">
        <ele>594.8</ele>
        <time>2021-08-15T08:15:02Z</time>
      </trkpt>
      <trkpt lat="43.98234" lon="3.13657">
        <ele>594.7</ele>
        <time>2021-08-15T08:15:04Z</time>
      </trkpt>
      <trkpt lat="43.98231" lon="3.13657">
        <ele>594.5</ele>
        <time>2021-08-15T08:15:06Z</time>
      </trkpt>
      <trkpt lat="43.98227" lon="3.13659">
        <ele>594.3</ele>
        <time>2021-08-15T08:15:08Z</time>
      </trkpt>
      <trkpt lat="43.98224" lon="3.13661">
        <ele>594.1</ele>
        <time>2021-08-15T08:15:10Z</time>
      </trkpt>
      <trkpt lat="43.98221" lon="3.13663">
        <ele>594</ele>
        <time>2021-08-15T08:15:12Z</time>
      </trkpt>
      <trkpt lat="43.98218" lon="3.13663">
        <ele>593.9</ele>
        <time>2021-08-15T08:15:14Z</time>
      </trkpt>
      <trkpt lat="43.98216" lon="3.13663">
        <ele>593.8</ele>
        <time>2021-08-15T08:15:16Z</time>
      </trkpt>
      <trkpt lat="43.98214" lon="3.13663">
        <ele>593.7</ele>
        <time>2021-08-15T08:15:18Z</time>
      </trkpt>
      <trkpt lat="43.9821" lon="3.13663">
        <ele>593.6</ele>
        <time>2021-08-15T08:15:20Z</time>
      </trkpt>
      <trkpt lat="43.98207" lon="3.13665">
        <ele>593.5</ele>
        <time>2021-08-15T08:15:22Z</time>
      </trkpt>
      <trkpt lat="43.98205" lon="3.13663">
        <ele>593.4</ele>
        <time>2021-08-15T08:15:24Z</time>
      </trkpt>
      <trkpt lat="43.98204" lon="3.13661">
        <ele>593.4</ele>
        <time>2021-08-15T08:15:26Z</time>
      </trkpt>
      <trkpt lat="43.98204" lon="3.13661">
        <ele>593.4</ele>
        <time>2021-08-15T08:15:28Z</time>
      </trkpt>
      <trkpt lat="43.98204" lon="3.1366">
        <ele>593.4</ele>
        <time>2021-08-15T08:15:30Z</time>
      </trkpt>
      <trkpt lat="43.98204" lon="3.1366">
        <ele>593.4</ele>
        <time>2021-08-15T08:15:32Z</time>
      </trkpt>
      <trkpt lat="43.98204" lon="3.13659">
        <ele>593.4</ele>
        <time>2021-08-15T08:15:34Z</time>
      </trkpt>
      <trkpt lat="43.98204" lon="3.13659">
        <ele>593.4</ele>
        <time>2021-08-15T08:15:50Z</time>
      </trkpt>
      <trkpt lat="43.98202" lon="3.13662">
        <ele>593.3</ele>
        <time>2021-08-15T08:15:54Z</time>
      </trkpt>
      <trkpt lat="43.98202" lon="3.13662">
        <ele>593.3</ele>
        <time>2021-08-15T08:15:58Z</time>
      </trkpt>
      <trkpt lat="43.98203" lon="3.13662">
        <ele>593.3</ele>
        <time>2021-08-15T08:16:00Z</time>
      </trkpt>
      <trkpt lat="43.98203" lon="3.13662">
        <ele>593.3</ele>
        <time>2021-08-15T08:16:02Z</time>
      </trkpt>
      <trkpt lat="43.982" lon="3.13661">
        <ele>593.2</ele>
        <time>2021-08-15T08:16:04Z</time>
      </trkpt>
      <trkpt lat="43.98197" lon="3.13662">
        <ele>593.1</ele>
        <time>2021-08-15T08:16:06Z</time>
      </trkpt>
      <trkpt lat="43.98195" lon="3.13666">
        <ele>593</ele>
        <time>2021-08-15T08:16:08Z</time>
      </trkpt>
      <trkpt lat="43.98194" lon="3.1367">
        <ele>593.1</ele>
        <time>2021-08-15T08:16:10Z</time>
      </trkpt>
      <trkpt lat="43.98195" lon="3.13669">
        <ele>593.1</ele>
        <time>2021-08-15T08:16:12Z</time>
      </trkpt>
      <trkpt lat="43.98195" lon="3.13669">
        <ele>593.1</ele>
        <time>2021-08-15T08:16:14Z</time>
      </trkpt>
      <trkpt lat="43.98195" lon="3.1367">
        <ele>593.1</ele>
        <time>2021-08-15T08:16:16Z</time>
      </trkpt>
      <trkpt lat="43.98195" lon="3.13669">
        <ele>593.1</ele>
        <time>2021-08-15T08:16:18Z</time>
      </trkpt>
      <trkpt lat="43.98206" lon="3.13637">
        <ele>593.5</ele>
        <time>2021-08-15T08:19:40Z</time>
      </trkpt>
      <trkpt lat="43.98207" lon="3.13631">
        <ele>593.6</ele>
        <time>2021-08-15T08:19:42Z</time>
      </trkpt>
      <trkpt lat="43.98207" lon="3.13624">
        <ele>593.7</ele>
        <time>2021-08-15T08:19:44Z</time>
      </trkpt>
      <trkpt lat="43.98208" lon="3.13617">
        <ele>593.8</ele>
        <time>2021-08-15T08:19:46Z</time>
      </trkpt>
      <trkpt lat="43.98208" lon="3.13609">
        <ele>593.8</ele>
        <time>2021-08-15T08:19:48Z</time>
      </trkpt>
      <trkpt lat="43.98209" lon="3.136">
        <ele>593.9</ele>
        <time>2021-08-15T08:19:50Z</time>
      </trkpt>
      <trkpt lat="43.98207" lon="3.13591">
        <ele>593.9</ele>
        <time>2021-08-15T08:19:52Z</time>
      </trkpt>
      <trkpt lat="43.98205" lon="3.13582">
        <ele>593.7</ele>
        <time>2021-08-15T08:19:54Z</time>
      </trkpt>
      <trkpt lat="43.98203" lon="3.13573">
        <ele>593.5</ele>
        <time>2021-08-15T08:19:56Z</time>
      </trkpt>
      <trkpt lat="43.98201" lon="3.13563">
        <ele>593.3</ele>
        <time>2021-08-15T08:19:58Z</time>
      </trkpt>
      <trkpt lat="43.98199" lon="3.13552">
        <ele>593</ele>
        <time>2021-08-15T08:20:00Z</time>
      </trkpt>
      <trkpt lat="43.98195" lon="3.13543">
        <ele>592.6</ele>
        <time>2021-08-15T08:20:02Z</time>
      </trkpt>
      <trkpt lat="43.98192" lon="3.13533">
        <ele>592.2</ele>
        <time>2021-08-15T08:20:04Z</time>
      </trkpt>
      <trkpt lat="43.98189" lon="3.13521">
        <ele>591.8</ele>
        <time>2021-08-15T08:20:06Z</time>
      </trkpt>
      <trkpt lat="43.98187" lon="3.13508">
        <ele>591.5</ele>
        <time>2021-08-15T08:20:08Z</time>
      </trkpt>
      <trkpt lat="43.98188" lon="3.13494">
        <ele>591.1</ele>
        <time>2021-08-15T08:20:10Z</time>
      </trkpt>
      <trkpt lat="43.98189" lon="3.13479">
        <ele>590.3</ele>
        <time>2021-08-15T08:20:12Z</time>
      </trkpt>
      <trkpt lat="43.98191" lon="3.13464">
        <ele>589.5</ele>
        <time>2021-08-15T08:20:14Z</time>
      </trkpt>
      <trkpt lat="43.98193" lon="3.13449">
        <ele>588.9</ele>
        <time>2021-08-15T08:20:16Z</time>
      </trkpt>
      <trkpt lat="43.98195" lon="3.13433">
        <ele>588.2</ele>
        <time>2021-08-15T08:20:18Z</time>
      </trkpt>
      <trkpt lat="43.98198" lon="3.13416">
        <ele>587.6</ele>
        <time>2021-08-15T08:20:20Z</time>
      </trkpt>
      <trkpt lat="43.982" lon="3.134">
        <ele>586.9</ele>
        <time>2021-08-15T08:20:22Z</time>
      </trkpt>
      <trkpt lat="43.98201" lon="3.13386">
        <ele>586.2</ele>
        <time>2021-08-15T08:20:24Z</time>
      </trkpt>
      <trkpt lat="43.98202" lon="3.13374">
        <ele>585.5</ele>
        <time>2021-08-15T08:20:26Z</time>
      </trkpt>
      <trkpt lat="43.98204" lon="3.13359">
        <ele>584.7</ele>
        <time>2021-08-15T08:20:28Z</time>
      </trkpt>
      <trkpt lat="43.98206" lon="3.13345">
        <ele>584</ele>
        <time>2021-08-15T08:20:30Z</time>
      </trkpt>
      <trkpt lat="43.98208" lon="3.13328">
        <ele>583</ele>
        <time>2021-08-15T08:20:32Z</time>
      </trkpt>
      <trkpt lat="43.9821" lon="3.13311">
        <ele>581.7</ele>
        <time>2021-08-15T08:20:34Z</time>
      </trkpt>
      <trkpt lat="43.98214" lon="3.13295">
        <ele>580.6</ele>
        <time>2021-08-15T08:20:36Z</time>
      </trkpt>
      <trkpt lat="43.98219" lon="3.1328">
        <ele>579.5</ele>
        <time>2021-08-15T08:20:38Z</time>
      </trkpt>
      <trkpt lat="43.98226" lon="3.13264">
        <ele>578.4</ele>
        <time>2021-08-15T08:20:40Z</time>
      </trkpt>
      <trkpt lat="43.98233" lon="3.13249">
        <ele>577.2</ele>
        <time>2021-08-15T08:20:42Z</time>
      </trkpt>
      <trkpt lat="43.9824" lon="3.13234">
        <ele>577.6</ele>
        <time>2021-08-15T08:20:44Z</time>
      </trkpt>
      <trkpt lat="43.98246" lon="3.13218">
        <ele>577.8</ele>
        <time>2021-08-15T08:20:46Z</time>
      </trkpt>
      <trkpt lat="43.98249" lon="3.13202">
        <ele>578</ele>
        <time>2021-08-15T08:20:48Z</time>
      </trkpt>
      <trkpt lat="43.98248" lon="3.13185">
        <ele>577.9</ele>
        <time>2021-08-15T08:20:50Z</time>
      </trkpt>
      <trkpt lat="43.98246" lon="3.13171">
        <ele>577.9</ele>
        <time>2021-08-15T08:20:52Z</time>
      </trkpt>
      <trkpt lat="43.98245" lon="3.13158">
        <ele>577.7</ele>
        <time>2021-08-15T08:20:54Z</time>
      </trkpt>
      <trkpt lat="43.98244" lon="3.13144">
        <ele>577.5</ele>
        <time>2021-08-15T08:20:56Z</time>
      </trkpt>
      <trkpt lat="43.98245" lon="3.1313">
        <ele>577.2</ele>
        <time>2021-08-15T08:20:58Z</time>
      </trkpt>
      <trkpt lat="43.98248" lon="3.13118">
        <ele>576.9</ele>
        <time>2021-08-15T08:21:00Z</time>
      </trkpt>
      <trkpt lat="43.98252" lon="3.13106">
        <ele>576.7</ele>
        <time>2021-08-15T08:21:02Z</time>
      </trkpt>
      <trkpt lat="43.98257" lon="3.13096">
        <ele>576.9</ele>
        <time>2021-08-15T08:21:04Z</time>
      </trkpt>
      <trkpt lat="43.98262" lon="3.13086">
        <ele>577.1</ele>
        <time>2021-08-15T08:21:06Z</time>
      </trkpt>
      <trkpt lat="43.98268" lon="3.13077">
        <ele>577.3</ele>
        <time>2021-08-15T08:21:08Z</time>
      </trkpt>
      <trkpt lat="43.98274" lon="3.13067">
        <ele>577.4</ele>
        <time>2021-08-15T08:21:10Z</time>
      </trkpt>
      <trkpt lat="43.9828" lon="3.13058">
        <ele>577.5</ele>
        <time>2021-08-15T08:21:12Z</time>
      </trkpt>
      <trkpt lat="43.98286" lon="3.13047">
        <ele>577.4</ele>
        <time>2021-08-15T08:21:14Z</time>
      </trkpt>
      <trkpt lat="43.98292" lon="3.13038">
        <ele>577.3</ele>
        <time>2021-08-15T08:21:16Z</time>
      </trkpt>
      <trkpt lat="43.98298" lon="3.13027">
        <ele>577.1</ele>
        <time>2021-08-15T08:21:18Z</time>
      </trkpt>
      <trkpt lat="43.98302" lon="3.13014">
        <ele>576.6</ele>
        <time>2021-08-15T08:21:20Z</time>
      </trkpt>
      <trkpt lat="43.98304" lon="3.13">
        <ele>576</ele>
        <time>2021-08-15T08:21:22Z</time>
      </trkpt>
      <trkpt lat="43.98304" lon="3.12986">
        <ele>576.3</ele>
        <time>2021-08-15T08:21:24Z</time>
      </trkpt>
      <trkpt lat="43.98303" lon="3.1297">
        <ele>576.6</ele>
        <time>2021-08-15T08:21:26Z</time>
      </trkpt>
      <trkpt lat="43.98303" lon="3.12955">
        <ele>577</ele>
        <time>2021-08-15T08:21:28Z</time>
      </trkpt>
      <trkpt lat="43.98302" lon="3.12939">
        <ele>577.3</ele>
        <time>2021-08-15T08:21:30Z</time>
      </trkpt>
      <trkpt lat="43.98301" lon="3.12925">
        <ele>577.6</ele>
        <time>2021-08-15T08:21:32Z</time>
      </trkpt>
      <trkpt lat="43.98303" lon="3.12911">
        <ele>578.1</ele>
        <time>2021-08-15T08:21:34Z</time>
      </trkpt>
      <trkpt lat="43.98306" lon="3.12897">
        <ele>578.5</ele>
        <time>2021-08-15T08:21:36Z</time>
      </trkpt>
      <trkpt lat="43.98311" lon="3.12882">
        <ele>578.9</ele>
        <time>2021-08-15T08:21:38Z</time>
      </trkpt>
      <trkpt lat="43.98317" lon="3.12869">
        <ele>579.1</ele>
        <time>2021-08-15T08:21:40Z</time>
      </trkpt>
      <trkpt lat="43.98323" lon="3.12856">
        <ele>579.2</ele>
        <time>2021-08-15T08:21:42Z</time>
      </trkpt>
      <trkpt lat="43.98328" lon="3.12842">
        <ele>579.1</ele>
        <time>2021-08-15T08:21:44Z</time>
      </trkpt>
      <trkpt lat="43.98333" lon="3.12829">
        <ele>578.8</ele>
        <time>2021-08-15T08:21:46Z</time>
      </trkpt>
      <trkpt lat="43.98338" lon="3.12816">
        <ele>578.8</ele>
        <time>2021-08-15T08:21:48Z</time>
      </trkpt>
      <trkpt lat="43.98342" lon="3.12803">
        <ele>579.1</ele>
        <time>2021-08-15T08:21:50Z</time>
      </trkpt>
      <trkpt lat="43.98345" lon="3.1279">
        <ele>579.1</ele>
        <time>2021-08-15T08:21:52Z</time>
      </trkpt>
      <trkpt lat="43.98347" lon="3.12776">
        <ele>578.9</ele>
        <time>2021-08-15T08:21:54Z</time>
      </trkpt>
      <trkpt lat="43.98348" lon="3.12762">
        <ele>578.5</ele>
        <time>2021-08-15T08:21:56Z</time>
      </trkpt>
      <trkpt lat="43.98349" lon="3.12748">
        <ele>578.2</ele>
        <time>2021-08-15T08:21:58Z</time>
      </trkpt>
      <trkpt lat="43.9835" lon="3.12734">
        <ele>578</ele>
        <time>2021-08-15T08:22:00Z</time>
      </trkpt>
      <trkpt lat="43.9835" lon="3.1272">
        <ele>577.6</ele>
        <time>2021-08-15T08:22:02Z</time>
      </trkpt>
      <trkpt lat="43.98348" lon="3.12705">
        <ele>576.9</ele>
        <time>2021-08-15T08:22:04Z</time>
      </trkpt>
      <trkpt lat="43.98347" lon="3.12691">
        <ele>576.1</ele>
        <time>2021-08-15T08:22:06Z</time>
      </trkpt>
      <trkpt lat="43.98345" lon="3.12676">
        <ele>575.4</ele>
        <time>2021-08-15T08:22:08Z</time>
      </trkpt>
      <trkpt lat="43.98345" lon="3.12662">
        <ele>575.1</ele>
        <time>2021-08-15T08:22:10Z</time>
      </trkpt>
      <trkpt lat="43.98347" lon="3.12648">
        <ele>575.3</ele>
        <time>2021-08-15T08:22:12Z</time>
      </trkpt>
      <trkpt lat="43.9835" lon="3.12634">
        <ele>575.8</ele>
        <time>2021-08-15T08:22:14Z</time>
      </trkpt>
      <trkpt lat="43.98353" lon="3.12622">
        <ele>576.5</ele>
        <time>2021-08-15T08:22:16Z</time>
      </trkpt>
      <trkpt lat="43.98357" lon="3.12612">
        <ele>577.2</ele>
        <time>2021-08-15T08:22:18Z</time>
      </trkpt>
      <trkpt lat="43.98361" lon="3.12603">
        <ele>578</ele>
        <time>2021-08-15T08:22:20Z</time>
      </trkpt>
      <trkpt lat="43.98364" lon="3.12594">
        <ele>578.6</ele>
        <time>2021-08-15T08:22:22Z</time>
      </trkpt>
      <trkpt lat="43.98368" lon="3.12585">
        <ele>579.3</ele>
        <time>2021-08-15T08:22:24Z</time>
      </trkpt>
      <trkpt lat="43.98371" lon="3.12576">
        <ele>579.5</ele>
        <time>2021-08-15T08:22:26Z</time>
      </trkpt>
      <trkpt lat="43.98373" lon="3.12568">
        <ele>579.7</ele>
        <time>2021-08-15T08:22:28Z</time>
      </trkpt>
      <trkpt lat="43.98376" lon="3.12559">
        <ele>579.7</ele>
        <time>2021-08-15T08:22:30Z</time>
      </trkpt>
      <trkpt lat="43.98377" lon="3.12551">
        <ele>579.5</ele>
        <time>2021-08-15T08:22:32Z</time>
      </trkpt>
      <trkpt lat="43.98378" lon="3.12542">
        <ele>579.2</ele>
        <time>2021-08-15T08:22:34Z</time>
      </trkpt>
      <trkpt lat="43.98379" lon="3.12533">
        <ele>578.8</ele>
        <time>2021-08-15T08:22:36Z</time>
      </trkpt>
      <trkpt lat="43.98379" lon="3.12523">
        <ele>578.2</ele>
        <time>2021-08-15T08:22:38Z</time>
      </trkpt>
      <trkpt lat="43.98378" lon="3.12514">
        <ele>577.4</ele>
        <time>2021-08-15T08:22:40Z</time>
      </trkpt>
      <trkpt lat="43.98378" lon="3.12503">
        <ele>576.8</ele>
        <time>2021-08-15T08:22:42Z</time>
      </trkpt>
      <trkpt lat="43.98379" lon="3.12493">
        <ele>576.2</ele>
        <time>2021-08-15T08:22:44Z</time>
      </trkpt>
      <trkpt lat="43.9838" lon="3.12482">
        <ele>575.5</ele>
        <time>2021-08-15T08:22:46Z</time>
      </trkpt>
      <trkpt lat="43.98382" lon="3.12472">
        <ele>574.9</ele>
        <time>2021-08-15T08:22:48Z</time>
      </trkpt>
      <trkpt lat="43.98385" lon="3.12462">
        <ele>574.3</ele>
        <time>2021-08-15T08:22:50Z</time>
      </trkpt>
      <trkpt lat="43.9839" lon="3.12451">
        <ele>573.6</ele>
        <time>2021-08-15T08:22:52Z</time>
      </trkpt>
      <trkpt lat="43.98396" lon="3.12441">
        <ele>572.9</ele>
        <time>2021-08-15T08:22:54Z</time>
      </trkpt>
      <trkpt lat="43.98402" lon="3.12433">
        <ele>572.2</ele>
        <time>2021-08-15T08:22:56Z</time>
      </trkpt>
      <trkpt lat="43.98411" lon="3.12426">
        <ele>571.4</ele>
        <time>2021-08-15T08:22:58Z</time>
      </trkpt>
      <trkpt lat="43.9842" lon="3.12421">
        <ele>570.9</ele>
        <time>2021-08-15T08:23:00Z</time>
      </trkpt>
      <trkpt lat="43.98429" lon="3.12417">
        <ele>571</ele>
        <time>2021-08-15T08:23:02Z</time>
      </trkpt>
      <trkpt lat="43.98439" lon="3.12415">
        <ele>571.5</ele>
        <time>2021-08-15T08:23:04Z</time>
      </trkpt>
      <trkpt lat="43.9845" lon="3.12411">
        <ele>572</ele>
        <time>2021-08-15T08:23:06Z</time>
      </trkpt>
      <trkpt lat="43.9846" lon="3.12406">
        <ele>572.3</ele>
        <time>2021-08-15T08:23:08Z</time>
      </trkpt>
      <trkpt lat="43.98469" lon="3.124">
        <ele>572.3</ele>
        <time>2021-08-15T08:23:10Z</time>
      </trkpt>
      <trkpt lat="43.9848" lon="3.12395">
        <ele>572.2</ele>
        <time>2021-08-15T08:23:12Z</time>
      </trkpt>
      <trkpt lat="43.9849" lon="3.12388">
        <ele>571.8</ele>
        <time>2021-08-15T08:23:14Z</time>
      </trkpt>
      <trkpt lat="43.985" lon="3.1238">
        <ele>571.2</ele>
        <time>2021-08-15T08:23:16Z</time>
      </trkpt>
      <trkpt lat="43.98509" lon="3.12371">
        <ele>571.1</ele>
        <time>2021-08-15T08:23:18Z</time>
      </trkpt>
      <trkpt lat="43.98517" lon="3.1236">
        <ele>570.7</ele>
        <time>2021-08-15T08:23:20Z</time>
      </trkpt>
      <trkpt lat="43.98524" lon="3.12346">
        <ele>570.4</ele>
        <time>2021-08-15T08:23:22Z</time>
      </trkpt>
      <trkpt lat="43.98529" lon="3.12331">
        <ele>570.1</ele>
        <time>2021-08-15T08:23:24Z</time>
      </trkpt>
      <trkpt lat="43.98533" lon="3.12317">
        <ele>570.3</ele>
        <time>2021-08-15T08:23:26Z</time>
      </trkpt>
      <trkpt lat="43.98539" lon="3.12303">
        <ele>570.5</ele>
        <time>2021-08-15T08:23:28Z</time>
      </trkpt>
      <trkpt lat="43.98547" lon="3.12289">
        <ele>570.8</ele>
        <time>2021-08-15T08:23:30Z</time>
      </trkpt>
      <trkpt lat="43.98554" lon="3.12275">
        <ele>570.9</ele>
        <time>2021-08-15T08:23:32Z</time>
      </trkpt>
      <trkpt lat="43.98562" lon="3.12262">
        <ele>570.9</ele>
        <time>2021-08-15T08:23:34Z</time>
      </trkpt>
      <trkpt lat="43.9857" lon="3.12248">
        <ele>570.6</ele>
        <time>2021-08-15T08:23:36Z</time>
      </trkpt>
      <trkpt lat="43.98578" lon="3.12235">
        <ele>570.3</ele>
        <time>2021-08-15T08:23:38Z</time>
      </trkpt>
      <trkpt lat="43.98586" lon="3.12222">
        <ele>569.8</ele>
        <time>2021-08-15T08:23:40Z</time>
      </trkpt>
      <trkpt lat="43.98593" lon="3.12208">
        <ele>570.4</ele>
        <time>2021-08-15T08:23:42Z</time>
      </trkpt>
      <trkpt lat="43.98601" lon="3.12193">
        <ele>571</ele>
        <time>2021-08-15T08:23:44Z</time>
      </trkpt>
      <trkpt lat="43.98608" lon="3.12178">
        <ele>571.5</ele>
        <time>2021-08-15T08:23:46Z</time>
      </trkpt>
      <trkpt lat="43.98615" lon="3.12164">
        <ele>572.2</ele>
        <time>2021-08-15T08:23:48Z</time>
      </trkpt>
      <trkpt lat="43.98622" lon="3.12149">
        <ele>573.2</ele>
        <time>2021-08-15T08:23:50Z</time>
      </trkpt>
      <trkpt lat="43.98629" lon="3.12135">
        <ele>573.7</ele>
        <time>2021-08-15T08:23:52Z</time>
      </trkpt>
      <trkpt lat="43.98636" lon="3.1212">
        <ele>573.8</ele>
        <time>2021-08-15T08:23:54Z</time>
      </trkpt>
      <trkpt lat="43.98644" lon="3.12107">
        <ele>573.5</ele>
        <time>2021-08-15T08:23:56Z</time>
      </trkpt>
      <trkpt lat="43.9865" lon="3.12093">
        <ele>572.7</ele>
        <time>2021-08-15T08:23:58Z</time>
      </trkpt>
      <trkpt lat="43.98656" lon="3.12079">
        <ele>571.7</ele>
        <time>2021-08-15T08:24:00Z</time>
      </trkpt>
      <trkpt lat="43.98662" lon="3.12065">
        <ele>570.8</ele>
        <time>2021-08-15T08:24:02Z</time>
      </trkpt>
      <trkpt lat="43.98667" lon="3.12051">
        <ele>569.6</ele>
        <time>2021-08-15T08:24:04Z</time>
      </trkpt>
      <trkpt lat="43.98673" lon="3.12037">
        <ele>569.8</ele>
        <time>2021-08-15T08:24:06Z</time>
      </trkpt>
      <trkpt lat="43.98679" lon="3.12025">
        <ele>570</ele>
        <time>2021-08-15T08:24:08Z</time>
      </trkpt>
      <trkpt lat="43.98684" lon="3.12011">
        <ele>570</ele>
        <time>2021-08-15T08:24:10Z</time>
      </trkpt>
      <trkpt lat="43.98689" lon="3.11999">
        <ele>570.4</ele>
        <time>2021-08-15T08:24:12Z</time>
      </trkpt>
      <trkpt lat="43.98695" lon="3.11986">
        <ele>570.7</ele>
        <time>2021-08-15T08:24:14Z</time>
      </trkpt>
      <trkpt lat="43.987" lon="3.11973">
        <ele>570.8</ele>
        <time>2021-08-15T08:24:16Z</time>
      </trkpt>
      <trkpt lat="43.98706" lon="3.1196">
        <ele>570.5</ele>
        <time>2021-08-15T08:24:18Z</time>
      </trkpt>
      <trkpt lat="43.98711" lon="3.11947">
        <ele>570.2</ele>
        <time>2021-08-15T08:24:20Z</time>
      </trkpt>
      <trkpt lat="43.98716" lon="3.11935">
        <ele>569.8</ele>
        <time>2021-08-15T08:24:22Z</time>
      </trkpt>
      <trkpt lat="43.98721" lon="3.11922">
        <ele>569</ele>
        <time>2021-08-15T08:24:24Z</time>
      </trkpt>
      <trkpt lat="43.98727" lon="3.11909">
        <ele>568.4</ele>
        <time>2021-08-15T08:24:26Z</time>
      </trkpt>
      <trkpt lat="43.98732" lon="3.11896">
        <ele>567.7</ele>
        <time>2021-08-15T08:24:28Z</time>
      </trkpt>
      <trkpt lat="43.98737" lon="3.11883">
        <ele>566.6</ele>
        <time>2021-08-15T08:24:30Z</time>
      </trkpt>
      <trkpt lat="43.98743" lon="3.1187">
        <ele>565</ele>
        <time>2021-08-15T08:24:32Z</time>
      </trkpt>
      <trkpt lat="43.98749" lon="3.11856">
        <ele>562.8</ele>
        <time>2021-08-15T08:24:34Z</time>
      </trkpt>
      <trkpt lat="43.98756" lon="3.11842">
        <ele>561.6</ele>
        <time>2021-08-15T08:24:36Z</time>
      </trkpt>
      <trkpt lat="43.98764" lon="3.11828">
        <ele>561.6</ele>
        <time>2021-08-15T08:24:38Z</time>
      </trkpt>
      <trkpt lat="43.98772" lon="3.11814">
        <ele>562.7</ele>
        <time>2021-08-15T08:24:40Z</time>
      </trkpt>
      <trkpt lat="43.9878" lon="3.118">
        <ele>563.4</ele>
        <time>2021-08-15T08:24:42Z</time>
      </trkpt>
      <trkpt lat="43.98788" lon="3.11784">
        <ele>563.6</ele>
        <time>2021-08-15T08:24:44Z</time>
      </trkpt>
      <trkpt lat="43.98796" lon="3.1177">
        <ele>563.5</ele>
        <time>2021-08-15T08:24:46Z</time>
      </trkpt>
      <trkpt lat="43.98805" lon="3.11754">
        <ele>563</ele>
        <time>2021-08-15T08:24:48Z</time>
      </trkpt>
      <trkpt lat="43.98815" lon="3.11741">
        <ele>562.4</ele>
        <time>2021-08-15T08:24:50Z</time>
      </trkpt>
      <trkpt lat="43.98824" lon="3.11727">
        <ele>561.3</ele>
        <time>2021-08-15T08:24:52Z</time>
      </trkpt>
      <trkpt lat="43.98834" lon="3.11714">
        <ele>559.8</ele>
        <time>2021-08-15T08:24:54Z</time>
      </trkpt>
      <trkpt lat="43.98844" lon="3.11702">
        <ele>559.8</ele>
        <time>2021-08-15T08:24:56Z</time>
      </trkpt>
      <trkpt lat="43.98854" lon="3.11691">
        <ele>559.4</ele>
        <time>2021-08-15T08:24:58Z</time>
      </trkpt>
      <trkpt lat="43.98865" lon="3.11679">
        <ele>558.9</ele>
        <time>2021-08-15T08:25:00Z</time>
      </trkpt>
      <trkpt lat="43.98875" lon="3.11668">
        <ele>558.3</ele>
        <time>2021-08-15T08:25:02Z</time>
      </trkpt>
      <trkpt lat="43.98885" lon="3.11658">
        <ele>558.4</ele>
        <time>2021-08-15T08:25:04Z</time>
      </trkpt>
      <trkpt lat="43.98895" lon="3.11648">
        <ele>558.4</ele>
        <time>2021-08-15T08:25:06Z</time>
      </trkpt>
      <trkpt lat="43.98906" lon="3.11638">
        <ele>558.1</ele>
        <time>2021-08-15T08:25:08Z</time>
      </trkpt>
      <trkpt lat="43.98918" lon="3.11629">
        <ele>557.5</ele>
        <time>2021-08-15T08:25:10Z</time>
      </trkpt>
      <trkpt lat="43.98931" lon="3.1162">
        <ele>556.4</ele>
        <time>2021-08-15T08:25:12Z</time>
      </trkpt>
      <trkpt lat="43.98944" lon="3.1161">
        <ele>555.4</ele>
        <time>2021-08-15T08:25:14Z</time>
      </trkpt>
      <trkpt lat="43.98955" lon="3.11596">
        <ele>554.4</ele>
        <time>2021-08-15T08:25:16Z</time>
      </trkpt>
      <trkpt lat="43.98966" lon="3.11582">
        <ele>553.6</ele>
        <time>2021-08-15T08:25:18Z</time>
      </trkpt>
      <trkpt lat="43.98975" lon="3.11564">
        <ele>552.8</ele>
        <time>2021-08-15T08:25:20Z</time>
      </trkpt>
      <trkpt lat="43.98985" lon="3.11547">
        <ele>551.8</ele>
        <time>2021-08-15T08:25:22Z</time>
      </trkpt>
      <trkpt lat="43.98995" lon="3.11528">
        <ele>550.8</ele>
        <time>2021-08-15T08:25:24Z</time>
      </trkpt>
      <trkpt lat="43.99005" lon="3.11509">
        <ele>550.1</ele>
        <time>2021-08-15T08:25:26Z</time>
      </trkpt>
      <trkpt lat="43.99014" lon="3.1149">
        <ele>549.6</ele>
        <time>2021-08-15T08:25:28Z</time>
      </trkpt>
      <trkpt lat="43.99023" lon="3.11471">
        <ele>548.7</ele>
        <time>2021-08-15T08:25:30Z</time>
      </trkpt>
      <trkpt lat="43.99031" lon="3.11454">
        <ele>548.1</ele>
        <time>2021-08-15T08:25:32Z</time>
      </trkpt>
      <trkpt lat="43.9904" lon="3.11437">
        <ele>547.6</ele>
        <time>2021-08-15T08:25:34Z</time>
      </trkpt>
      <trkpt lat="43.99049" lon="3.11422">
        <ele>547.3</ele>
        <time>2021-08-15T08:25:36Z</time>
      </trkpt>
      <trkpt lat="43.99058" lon="3.11408">
        <ele>547.2</ele>
        <time>2021-08-15T08:25:38Z</time>
      </trkpt>
      <trkpt lat="43.99067" lon="3.11393">
        <ele>546.8</ele>
        <time>2021-08-15T08:25:40Z</time>
      </trkpt>
      <trkpt lat="43.99077" lon="3.11379">
        <ele>546.3</ele>
        <time>2021-08-15T08:25:42Z</time>
      </trkpt>
      <trkpt lat="43.99087" lon="3.11365">
        <ele>545.5</ele>
        <time>2021-08-15T08:25:44Z</time>
      </trkpt>
      <trkpt lat="43.99096" lon="3.11352">
        <ele>544.5</ele>
        <time>2021-08-15T08:25:46Z</time>
      </trkpt>
      <trkpt lat="43.99106" lon="3.11339">
        <ele>543.6</ele>
        <time>2021-08-15T08:25:48Z</time>
      </trkpt>
      <trkpt lat="43.99115" lon="3.11326">
        <ele>543.1</ele>
        <time>2021-08-15T08:25:50Z</time>
      </trkpt>
      <trkpt lat="43.99125" lon="3.11314">
        <ele>542.8</ele>
        <time>2021-08-15T08:25:52Z</time>
      </trkpt>
      <trkpt lat="43.99134" lon="3.11301">
        <ele>542.4</ele>
        <time>2021-08-15T08:25:54Z</time>
      </trkpt>
      <trkpt lat="43.99143" lon="3.11287">
        <ele>541.9</ele>
        <time>2021-08-15T08:25:56Z</time>
      </trkpt>
      <trkpt lat="43.99153" lon="3.11273">
        <ele>541.2</ele>
        <time>2021-08-15T08:25:58Z</time>
      </trkpt>
      <trkpt lat="43.99162" lon="3.11257">
        <ele>540.4</ele>
        <time>2021-08-15T08:26:00Z</time>
      </trkpt>
      <trkpt lat="43.9917" lon="3.11241">
        <ele>539.7</ele>
        <time>2021-08-15T08:26:02Z</time>
      </trkpt>
      <trkpt lat="43.99179" lon="3.11224">
        <ele>539.3</ele>
        <time>2021-08-15T08:26:04Z</time>
      </trkpt>
      <trkpt lat="43.99187" lon="3.11206">
        <ele>538.8</ele>
        <time>2021-08-15T08:26:06Z</time>
      </trkpt>
      <trkpt lat="43.99195" lon="3.11187">
        <ele>538.2</ele>
        <time>2021-08-15T08:26:08Z</time>
      </trkpt>
      <trkpt lat="43.99203" lon="3.11169">
        <ele>537.7</ele>
        <time>2021-08-15T08:26:10Z</time>
      </trkpt>
      <trkpt lat="43.99212" lon="3.11152">
        <ele>538</ele>
        <time>2021-08-15T08:26:12Z</time>
      </trkpt>
      <trkpt lat="43.99222" lon="3.11135">
        <ele>538</ele>
        <time>2021-08-15T08:26:14Z</time>
      </trkpt>
      <trkpt lat="43.99231" lon="3.1112">
        <ele>537.6</ele>
        <time>2021-08-15T08:26:16Z</time>
      </trkpt>
      <trkpt lat="43.9924" lon="3.11104">
        <ele>536.8</ele>
        <time>2021-08-15T08:26:18Z</time>
      </trkpt>
      <trkpt lat="43.99249" lon="3.11088">
        <ele>535.5</ele>
        <time>2021-08-15T08:26:20Z</time>
      </trkpt>
      <trkpt lat="43.99258" lon="3.11073">
        <ele>535.9</ele>
        <time>2021-08-15T08:26:22Z</time>
      </trkpt>
      <trkpt lat="43.99267" lon="3.11057">
        <ele>536.7</ele>
        <time>2021-08-15T08:26:24Z</time>
      </trkpt>
      <trkpt lat="43.99274" lon="3.1104">
        <ele>537.1</ele>
        <time>2021-08-15T08:26:26Z</time>
      </trkpt>
      <trkpt lat="43.99283" lon="3.11025">
        <ele>537.3</ele>
        <time>2021-08-15T08:26:28Z</time>
      </trkpt>
      <trkpt lat="43.99291" lon="3.1101">
        <ele>537.3</ele>
        <time>2021-08-15T08:26:30Z</time>
      </trkpt>
      <trkpt lat="43.993" lon="3.10994">
        <ele>537.2</ele>
        <time>2021-08-15T08:26:32Z</time>
      </trkpt>
      <trkpt lat="43.99309" lon="3.1098">
        <ele>537.3</ele>
        <time>2021-08-15T08:26:34Z</time>
      </trkpt>
      <trkpt lat="43.99317" lon="3.10966">
        <ele>537.1</ele>
        <time>2021-08-15T08:26:36Z</time>
      </trkpt>
      <trkpt lat="43.99323" lon="3.1095">
        <ele>536.6</ele>
        <time>2021-08-15T08:26:38Z</time>
      </trkpt>
      <trkpt lat="43.99325" lon="3.10932">
        <ele>536.1</ele>
        <time>2021-08-15T08:26:40Z</time>
      </trkpt>
      <trkpt lat="43.99332" lon="3.10916">
        <ele>535.1</ele>
        <time>2021-08-15T08:26:42Z</time>
      </trkpt>
      <trkpt lat="43.99344" lon="3.10906">
        <ele>534.9</ele>
        <time>2021-08-15T08:26:44Z</time>
      </trkpt>
      <trkpt lat="43.99358" lon="3.10902">
        <ele>534.7</ele>
        <time>2021-08-15T08:26:46Z</time>
      </trkpt>
      <trkpt lat="43.99371" lon="3.10899">
        <ele>534.5</ele>
        <time>2021-08-15T08:26:48Z</time>
      </trkpt>
      <trkpt lat="43.99384" lon="3.10896">
        <ele>534.2</ele>
        <time>2021-08-15T08:26:50Z</time>
      </trkpt>
      <trkpt lat="43.99398" lon="3.10893">
        <ele>533.8</ele>
        <time>2021-08-15T08:26:52Z</time>
      </trkpt>
      <trkpt lat="43.99411" lon="3.10889">
        <ele>533.5</ele>
        <time>2021-08-15T08:26:54Z</time>
      </trkpt>
      <trkpt lat="43.99424" lon="3.10882">
        <ele>533</ele>
        <time>2021-08-15T08:26:56Z</time>
      </trkpt>
      <trkpt lat="43.99434" lon="3.10871">
        <ele>532.6</ele>
        <time>2021-08-15T08:26:58Z</time>
      </trkpt>
      <trkpt lat="43.99443" lon="3.10856">
        <ele>532</ele>
        <time>2021-08-15T08:27:00Z</time>
      </trkpt>
      <trkpt lat="43.9945" lon="3.10842">
        <ele>531.5</ele>
        <time>2021-08-15T08:27:02Z</time>
      </trkpt>
      <trkpt lat="43.99458" lon="3.10828">
        <ele>530.9</ele>
        <time>2021-08-15T08:27:04Z</time>
      </trkpt>
      <trkpt lat="43.99465" lon="3.10814">
        <ele>530.5</ele>
        <time>2021-08-15T08:27:06Z</time>
      </trkpt>
      <trkpt lat="43.99472" lon="3.108">
        <ele>530.1</ele>
        <time>2021-08-15T08:27:08Z</time>
      </trkpt>
      <trkpt lat="43.9948" lon="3.10786">
        <ele>529.8</ele>
        <time>2021-08-15T08:27:10Z</time>
      </trkpt>
      <trkpt lat="43.99488" lon="3.10771">
        <ele>529.4</ele>
        <time>2021-08-15T08:27:12Z</time>
      </trkpt>
      <trkpt lat="43.99496" lon="3.10757">
        <ele>529.1</ele>
        <time>2021-08-15T08:27:14Z</time>
      </trkpt>
      <trkpt lat="43.99504" lon="3.10742">
        <ele>529</ele>
        <time>2021-08-15T08:27:16Z</time>
      </trkpt>
      <trkpt lat="43.99512" lon="3.10727">
        <ele>528.9</ele>
        <time>2021-08-15T08:27:18Z</time>
      </trkpt>
      <trkpt lat="43.9952" lon="3.10713">
        <ele>528.7</ele>
        <time>2021-08-15T08:27:20Z</time>
      </trkpt>
      <trkpt lat="43.99527" lon="3.10698">
        <ele>528.4</ele>
        <time>2021-08-15T08:27:22Z</time>
      </trkpt>
      <trkpt lat="43.99534" lon="3.10684">
        <ele>528.1</ele>
        <time>2021-08-15T08:27:24Z</time>
      </trkpt>
      <trkpt lat="43.9954" lon="3.10669">
        <ele>527.6</ele>
        <time>2021-08-15T08:27:26Z</time>
      </trkpt>
      <trkpt lat="43.99546" lon="3.10654">
        <ele>527.3</ele>
        <time>2021-08-15T08:27:28Z</time>
      </trkpt>
      <trkpt lat="43.9955" lon="3.10638">
        <ele>527.1</ele>
        <time>2021-08-15T08:27:30Z</time>
      </trkpt>
      <trkpt lat="43.99554" lon="3.10623">
        <ele>526.8</ele>
        <time>2021-08-15T08:27:32Z</time>
      </trkpt>
      <trkpt lat="43.99557" lon="3.10607">
        <ele>526.6</ele>
        <time>2021-08-15T08:27:34Z</time>
      </trkpt>
      <trkpt lat="43.99561" lon="3.10592">
        <ele>526.4</ele>
        <time>2021-08-15T08:27:36Z</time>
      </trkpt>
      <trkpt lat="43.99564" lon="3.10576">
        <ele>526.2</ele>
        <time>2021-08-15T08:27:38Z</time>
      </trkpt>
      <trkpt lat="43.99567" lon="3.10561">
        <ele>526.1</ele>
        <time>2021-08-15T08:27:40Z</time>
      </trkpt>
      <trkpt lat="43.99571" lon="3.10545">
        <ele>526</ele>
        <time>2021-08-15T08:27:42Z</time>
      </trkpt>
      <trkpt lat="43.99574" lon="3.1053">
        <ele>526</ele>
        <time>2021-08-15T08:27:44Z</time>
      </trkpt>
      <trkpt lat="43.99577" lon="3.10514">
        <ele>525.9</ele>
        <time>2021-08-15T08:27:46Z</time>
      </trkpt>
      <trkpt lat="43.99579" lon="3.10498">
        <ele>525.9</ele>
        <time>2021-08-15T08:27:48Z</time>
      </trkpt>
      <trkpt lat="43.99581" lon="3.10482">
        <ele>525.3</ele>
        <time>2021-08-15T08:27:50Z</time>
      </trkpt>
      <trkpt lat="43.99582" lon="3.10466">
        <ele>524.8</ele>
        <time>2021-08-15T08:27:52Z</time>
      </trkpt>
      <trkpt lat="43.99584" lon="3.1045">
        <ele>524.2</ele>
        <time>2021-08-15T08:27:54Z</time>
      </trkpt>
      <trkpt lat="43.99586" lon="3.10435">
        <ele>523.8</ele>
        <time>2021-08-15T08:27:56Z</time>
      </trkpt>
      <trkpt lat="43.99587" lon="3.10421">
        <ele>523.3</ele>
        <time>2021-08-15T08:27:58Z</time>
      </trkpt>
      <trkpt lat="43.99589" lon="3.10407">
        <ele>523.3</ele>
        <time>2021-08-15T08:28:00Z</time>
      </trkpt>
      <trkpt lat="43.99589" lon="3.10393">
        <ele>523.3</ele>
        <time>2021-08-15T08:28:02Z</time>
      </trkpt>
      <trkpt lat="43.99588" lon="3.1038">
        <ele>523.2</ele>
        <time>2021-08-15T08:28:04Z</time>
      </trkpt>
      <trkpt lat="43.99586" lon="3.10362">
        <ele>523.1</ele>
        <time>2021-08-15T08:28:06Z</time>
      </trkpt>
      <trkpt lat="43.9958" lon="3.10348">
        <ele>522.9</ele>
        <time>2021-08-15T08:28:08Z</time>
      </trkpt>
      <trkpt lat="43.99574" lon="3.10334">
        <ele>522.8</ele>
        <time>2021-08-15T08:28:10Z</time>
      </trkpt>
      <trkpt lat="43.99569" lon="3.1032">
        <ele>522.8</ele>
        <time>2021-08-15T08:28:12Z</time>
      </trkpt>
      <trkpt lat="43.99564" lon="3.10305">
        <ele>522.9</ele>
        <time>2021-08-15T08:28:14Z</time>
      </trkpt>
      <trkpt lat="43.99559" lon="3.10291">
        <ele>522.9</ele>
        <time>2021-08-15T08:28:16Z</time>
      </trkpt>
      <trkpt lat="43.99555" lon="3.10275">
        <ele>523</ele>
        <time>2021-08-15T08:28:18Z</time>
      </trkpt>
      <trkpt lat="43.99552" lon="3.10259">
        <ele>523.2</ele>
        <time>2021-08-15T08:28:20Z</time>
      </trkpt>
      <trkpt lat="43.99551" lon="3.10244">
        <ele>523.1</ele>
        <time>2021-08-15T08:28:22Z</time>
      </trkpt>
      <trkpt lat="43.9955" lon="3.10228">
        <ele>522.9</ele>
        <time>2021-08-15T08:28:24Z</time>
      </trkpt>
      <trkpt lat="43.99549" lon="3.10214">
        <ele>522.7</ele>
        <time>2021-08-15T08:28:26Z</time>
      </trkpt>
      <trkpt lat="43.99547" lon="3.102">
        <ele>522.5</ele>
        <time>2021-08-15T08:28:28Z</time>
      </trkpt>
      <trkpt lat="43.99546" lon="3.10187">
        <ele>522.3</ele>
        <time>2021-08-15T08:28:30Z</time>
      </trkpt>
      <trkpt lat="43.99545" lon="3.10173">
        <ele>522.2</ele>
        <time>2021-08-15T08:28:32Z</time>
      </trkpt>
      <trkpt lat="43.99544" lon="3.10159">
        <ele>522.1</ele>
        <time>2021-08-15T08:28:34Z</time>
      </trkpt>
      <trkpt lat="43.99543" lon="3.10146">
        <ele>522.2</ele>
        <time>2021-08-15T08:28:36Z</time>
      </trkpt>
      <trkpt lat="43.99542" lon="3.10134">
        <ele>522.2</ele>
        <time>2021-08-15T08:28:38Z</time>
      </trkpt>
      <trkpt lat="43.9954" lon="3.10122">
        <ele>522.2</ele>
        <time>2021-08-15T08:28:40Z</time>
      </trkpt>
      <trkpt lat="43.99539" lon="3.1011">
        <ele>522.3</ele>
        <time>2021-08-15T08:28:42Z</time>
      </trkpt>
      <trkpt lat="43.99538" lon="3.10099">
        <ele>522.3</ele>
        <time>2021-08-15T08:28:44Z</time>
      </trkpt>
      <trkpt lat="43.99537" lon="3.10088">
        <ele>522.3</ele>
        <time>2021-08-15T08:28:46Z</time>
      </trkpt>
      <trkpt lat="43.99536" lon="3.10078">
        <ele>522.6</ele>
        <time>2021-08-15T08:28:48Z</time>
      </trkpt>
      <trkpt lat="43.99535" lon="3.10069">
        <ele>523.2</ele>
        <time>2021-08-15T08:28:50Z</time>
      </trkpt>
      <trkpt lat="43.99534" lon="3.10059">
        <ele>523.7</ele>
        <time>2021-08-15T08:28:52Z</time>
      </trkpt>
      <trkpt lat="43.99534" lon="3.10049">
        <ele>524.2</ele>
        <time>2021-08-15T08:28:54Z</time>
      </trkpt>
      <trkpt lat="43.99534" lon="3.10039">
        <ele>524.8</ele>
        <time>2021-08-15T08:28:56Z</time>
      </trkpt>
      <trkpt lat="43.99533" lon="3.10031">
        <ele>525.2</ele>
        <time>2021-08-15T08:28:58Z</time>
      </trkpt>
      <trkpt lat="43.99532" lon="3.10023">
        <ele>525.5</ele>
        <time>2021-08-15T08:29:00Z</time>
      </trkpt>
      <trkpt lat="43.99531" lon="3.10012">
        <ele>526</ele>
        <time>2021-08-15T08:29:02Z</time>
      </trkpt>
      <trkpt lat="43.9953" lon="3.10001">
        <ele>526.6</ele>
        <time>2021-08-15T08:29:04Z</time>
      </trkpt>
      <trkpt lat="43.99532" lon="3.09988">
        <ele>527</ele>
        <time>2021-08-15T08:29:06Z</time>
      </trkpt>
      <trkpt lat="43.99536" lon="3.09977">
        <ele>527.7</ele>
        <time>2021-08-15T08:29:08Z</time>
      </trkpt>
      <trkpt lat="43.99541" lon="3.09968">
        <ele>528.6</ele>
        <time>2021-08-15T08:29:10Z</time>
      </trkpt>
      <trkpt lat="43.99544" lon="3.09956">
        <ele>529.1</ele>
        <time>2021-08-15T08:29:12Z</time>
      </trkpt>
      <trkpt lat="43.99544" lon="3.09944">
        <ele>529.3</ele>
        <time>2021-08-15T08:29:14Z</time>
      </trkpt>
      <trkpt lat="43.99543" lon="3.09933">
        <ele>529.3</ele>
        <time>2021-08-15T08:29:16Z</time>
      </trkpt>
      <trkpt lat="43.99542" lon="3.09921">
        <ele>529.4</ele>
        <time>2021-08-15T08:29:18Z</time>
      </trkpt>
      <trkpt lat="43.99542" lon="3.09909">
        <ele>529.5</ele>
        <time>2021-08-15T08:29:20Z</time>
      </trkpt>
      <trkpt lat="43.99542" lon="3.09899">
        <ele>529.6</ele>
        <time>2021-08-15T08:29:22Z</time>
      </trkpt>
      <trkpt lat="43.99542" lon="3.09888">
        <ele>529.7</ele>
        <time>2021-08-15T08:29:24Z</time>
      </trkpt>
      <trkpt lat="43.99542" lon="3.09878">
        <ele>529.7</ele>
        <time>2021-08-15T08:29:26Z</time>
      </trkpt>
      <trkpt lat="43.99541" lon="3.09867">
        <ele>529.8</ele>
        <time>2021-08-15T08:29:28Z</time>
      </trkpt>
      <trkpt lat="43.99542" lon="3.09857">
        <ele>529.9</ele>
        <time>2021-08-15T08:29:30Z</time>
      </trkpt>
      <trkpt lat="43.99542" lon="3.09846">
        <ele>530</ele>
        <time>2021-08-15T08:29:32Z</time>
      </trkpt>
      <trkpt lat="43.99542" lon="3.09835">
        <ele>530.1</ele>
        <time>2021-08-15T08:29:34Z</time>
      </trkpt>
      <trkpt lat="43.99543" lon="3.09823">
        <ele>530.1</ele>
        <time>2021-08-15T08:29:36Z</time>
      </trkpt>
      <trkpt lat="43.99543" lon="3.09812">
        <ele>530.1</ele>
        <time>2021-08-15T08:29:38Z</time>
      </trkpt>
      <trkpt lat="43.99543" lon="3.09801">
        <ele>530</ele>
        <time>2021-08-15T08:29:40Z</time>
      </trkpt>
      <trkpt lat="43.99542" lon="3.09791">
        <ele>529.9</ele>
        <time>2021-08-15T08:29:42Z</time>
      </trkpt>
      <trkpt lat="43.99541" lon="3.09781">
        <ele>529.6</ele>
        <time>2021-08-15T08:29:44Z</time>
      </trkpt>
      <trkpt lat="43.9954" lon="3.09771">
        <ele>529.3</ele>
        <time>2021-08-15T08:29:46Z</time>
      </trkpt>
      <trkpt lat="43.99538" lon="3.09761">
        <ele>528.9</ele>
        <time>2021-08-15T08:29:48Z</time>
      </trkpt>
      <trkpt lat="43.99536" lon="3.0975">
        <ele>528.5</ele>
        <time>2021-08-15T08:29:50Z</time>
      </trkpt>
      <trkpt lat="43.99533" lon="3.0974">
        <ele>528</ele>
        <time>2021-08-15T08:29:52Z</time>
      </trkpt>
      <trkpt lat="43.9953" lon="3.0973">
        <ele>527.5</ele>
        <time>2021-08-15T08:29:54Z</time>
      </trkpt>
      <trkpt lat="43.99527" lon="3.09719">
        <ele>527.1</ele>
        <time>2021-08-15T08:29:56Z</time>
      </trkpt>
      <trkpt lat="43.99525" lon="3.09708">
        <ele>526.9</ele>
        <time>2021-08-15T08:29:58Z</time>
      </trkpt>
      <trkpt lat="43.99523" lon="3.09696">
        <ele>526.7</ele>
        <time>2021-08-15T08:30:00Z</time>
      </trkpt>
      <trkpt lat="43.99524" lon="3.09684">
        <ele>526.9</ele>
        <time>2021-08-15T08:30:02Z</time>
      </trkpt>
      <trkpt lat="43.99525" lon="3.09672">
        <ele>527.2</ele>
        <time>2021-08-15T08:30:04Z</time>
      </trkpt>
      <trkpt lat="43.9953" lon="3.09661">
        <ele>528.1</ele>
        <time>2021-08-15T08:30:06Z</time>
      </trkpt>
      <trkpt lat="43.99535" lon="3.0965">
        <ele>529</ele>
        <time>2021-08-15T08:30:08Z</time>
      </trkpt>
      <trkpt lat="43.99542" lon="3.09638">
        <ele>530</ele>
        <time>2021-08-15T08:30:10Z</time>
      </trkpt>
      <trkpt lat="43.99548" lon="3.09627">
        <ele>530.8</ele>
        <time>2021-08-15T08:30:12Z</time>
      </trkpt>
      <trkpt lat="43.99554" lon="3.09615">
        <ele>531.5</ele>
        <time>2021-08-15T08:30:14Z</time>
      </trkpt>
      <trkpt lat="43.99559" lon="3.09602">
        <ele>531.9</ele>
        <time>2021-08-15T08:30:16Z</time>
      </trkpt>
      <trkpt lat="43.99562" lon="3.09587">
        <ele>532</ele>
        <time>2021-08-15T08:30:18Z</time>
      </trkpt>
      <trkpt lat="43.99565" lon="3.09572">
        <ele>532.3</ele>
        <time>2021-08-15T08:30:20Z</time>
      </trkpt>
      <trkpt lat="43.99567" lon="3.09556">
        <ele>532.4</ele>
        <time>2021-08-15T08:30:22Z</time>
      </trkpt>
      <trkpt lat="43.99567" lon="3.09541">
        <ele>532.4</ele>
        <time>2021-08-15T08:30:24Z</time>
      </trkpt>
      <trkpt lat="43.99566" lon="3.09525">
        <ele>532.4</ele>
        <time>2021-08-15T08:30:26Z</time>
      </trkpt>
      <trkpt lat="43.99562" lon="3.0951">
        <ele>532.4</ele>
        <time>2021-08-15T08:30:28Z</time>
      </trkpt>
      <trkpt lat="43.99558" lon="3.09495">
        <ele>532.6</ele>
        <time>2021-08-15T08:30:30Z</time>
      </trkpt>
      <trkpt lat="43.99558" lon="3.09478">
        <ele>532.7</ele>
        <time>2021-08-15T08:30:32Z</time>
      </trkpt>
      <trkpt lat="43.9956" lon="3.09463">
        <ele>532.4</ele>
        <time>2021-08-15T08:30:34Z</time>
      </trkpt>
      <trkpt lat="43.99565" lon="3.09448">
        <ele>531.6</ele>
        <time>2021-08-15T08:30:36Z</time>
      </trkpt>
      <trkpt lat="43.99573" lon="3.09435">
        <ele>530</ele>
        <time>2021-08-15T08:30:38Z</time>
      </trkpt>
      <trkpt lat="43.99583" lon="3.09424">
        <ele>527.6</ele>
        <time>2021-08-15T08:30:40Z</time>
      </trkpt>
      <trkpt lat="43.99591" lon="3.09413">
        <ele>528.8</ele>
        <time>2021-08-15T08:30:42Z</time>
      </trkpt>
      <trkpt lat="43.99599" lon="3.09399">
        <ele>530.4</ele>
        <time>2021-08-15T08:30:44Z</time>
      </trkpt>
      <trkpt lat="43.99605" lon="3.09385">
        <ele>531.7</ele>
        <time>2021-08-15T08:30:46Z</time>
      </trkpt>
      <trkpt lat="43.99609" lon="3.09369">
        <ele>532.6</ele>
        <time>2021-08-15T08:30:48Z</time>
      </trkpt>
      <trkpt lat="43.99612" lon="3.09352">
        <ele>533.1</ele>
        <time>2021-08-15T08:30:50Z</time>
      </trkpt>
      <trkpt lat="43.99614" lon="3.09335">
        <ele>533.3</ele>
        <time>2021-08-15T08:30:52Z</time>
      </trkpt>
      <trkpt lat="43.99616" lon="3.09318">
        <ele>534</ele>
        <time>2021-08-15T08:30:54Z</time>
      </trkpt>
      <trkpt lat="43.99618" lon="3.09301">
        <ele>534.7</ele>
        <time>2021-08-15T08:30:56Z</time>
      </trkpt>
      <trkpt lat="43.99618" lon="3.09284">
        <ele>535.2</ele>
        <time>2021-08-15T08:30:58Z</time>
      </trkpt>
      <trkpt lat="43.99619" lon="3.09267">
        <ele>535.7</ele>
        <time>2021-08-15T08:31:00Z</time>
      </trkpt>
      <trkpt lat="43.99621" lon="3.09251">
        <ele>536.1</ele>
        <time>2021-08-15T08:31:02Z</time>
      </trkpt>
      <trkpt lat="43.99624" lon="3.09235">
        <ele>536.1</ele>
        <time>2021-08-15T08:31:04Z</time>
      </trkpt>
      <trkpt lat="43.99631" lon="3.09222">
        <ele>535.8</ele>
        <time>2021-08-15T08:31:06Z</time>
      </trkpt>
      <trkpt lat="43.99638" lon="3.0921">
        <ele>535.1</ele>
        <time>2021-08-15T08:31:08Z</time>
      </trkpt>
      <trkpt lat="43.99644" lon="3.09197">
        <ele>534.3</ele>
        <time>2021-08-15T08:31:10Z</time>
      </trkpt>
      <trkpt lat="43.99651" lon="3.09185">
        <ele>533.1</ele>
        <time>2021-08-15T08:31:12Z</time>
      </trkpt>
      <trkpt lat="43.99657" lon="3.09174">
        <ele>531.8</ele>
        <time>2021-08-15T08:31:14Z</time>
      </trkpt>
      <trkpt lat="43.99664" lon="3.09164">
        <ele>530.5</ele>
        <time>2021-08-15T08:31:16Z</time>
      </trkpt>
      <trkpt lat="43.99669" lon="3.09154">
        <ele>530.6</ele>
        <time>2021-08-15T08:31:18Z</time>
      </trkpt>
      <trkpt lat="43.99673" lon="3.09142">
        <ele>531.4</ele>
        <time>2021-08-15T08:31:20Z</time>
      </trkpt>
      <trkpt lat="43.99674" lon="3.09129">
        <ele>532.1</ele>
        <time>2021-08-15T08:31:22Z</time>
      </trkpt>
      <trkpt lat="43.99677" lon="3.09116">
        <ele>533</ele>
        <time>2021-08-15T08:31:24Z</time>
      </trkpt>
      <trkpt lat="43.99677" lon="3.09103">
        <ele>533.6</ele>
        <time>2021-08-15T08:31:26Z</time>
      </trkpt>
      <trkpt lat="43.99677" lon="3.0909">
        <ele>533.8</ele>
        <time>2021-08-15T08:31:28Z</time>
      </trkpt>
      <trkpt lat="43.99675" lon="3.09077">
        <ele>534.4</ele>
        <time>2021-08-15T08:31:30Z</time>
      </trkpt>
      <trkpt lat="43.99672" lon="3.09064">
        <ele>535.3</ele>
        <time>2021-08-15T08:31:32Z</time>
      </trkpt>
      <trkpt lat="43.99668" lon="3.09052">
        <ele>535.3</ele>
        <time>2021-08-15T08:31:34Z</time>
      </trkpt>
      <trkpt lat="43.99663" lon="3.09041">
        <ele>535.9</ele>
        <time>2021-08-15T08:31:36Z</time>
      </trkpt>
      <trkpt lat="43.99657" lon="3.0903">
        <ele>536.4</ele>
        <time>2021-08-15T08:31:38Z</time>
      </trkpt>
      <trkpt lat="43.99651" lon="3.09019">
        <ele>536.4</ele>
        <time>2021-08-15T08:31:40Z</time>
      </trkpt>
      <trkpt lat="43.99645" lon="3.09008">
        <ele>535.8</ele>
        <time>2021-08-15T08:31:42Z</time>
      </trkpt>
      <trkpt lat="43.99638" lon="3.08998">
        <ele>534.9</ele>
        <time>2021-08-15T08:31:44Z</time>
      </trkpt>
      <trkpt lat="43.99631" lon="3.08988">
        <ele>535</ele>
        <time>2021-08-15T08:31:46Z</time>
      </trkpt>
      <trkpt lat="43.99623" lon="3.08978">
        <ele>534.5</ele>
        <time>2021-08-15T08:31:48Z</time>
      </trkpt>
      <trkpt lat="43.99616" lon="3.08967">
        <ele>533.8</ele>
        <time>2021-08-15T08:31:50Z</time>
      </trkpt>
      <trkpt lat="43.99609" lon="3.08955">
        <ele>532.8</ele>
        <time>2021-08-15T08:31:52Z</time>
      </trkpt>
      <trkpt lat="43.99603" lon="3.08944">
        <ele>531.4</ele>
        <time>2021-08-15T08:31:54Z</time>
      </trkpt>
      <trkpt lat="43.99597" lon="3.08933">
        <ele>529.6</ele>
        <time>2021-08-15T08:31:56Z</time>
      </trkpt>
      <trkpt lat="43.9959" lon="3.08921">
        <ele>527.4</ele>
        <time>2021-08-15T08:31:58Z</time>
      </trkpt>
      <trkpt lat="43.99585" lon="3.0891">
        <ele>525.8</ele>
        <time>2021-08-15T08:32:00Z</time>
      </trkpt>
      <trkpt lat="43.99579" lon="3.08899">
        <ele>526.9</ele>
        <time>2021-08-15T08:32:02Z</time>
      </trkpt>
      <trkpt lat="43.99573" lon="3.08889">
        <ele>528.2</ele>
        <time>2021-08-15T08:32:04Z</time>
      </trkpt>
      <trkpt lat="43.99568" lon="3.08877">
        <ele>529.2</ele>
        <time>2021-08-15T08:32:06Z</time>
      </trkpt>
      <trkpt lat="43.99563" lon="3.08864">
        <ele>530</ele>
        <time>2021-08-15T08:32:08Z</time>
      </trkpt>
      <trkpt lat="43.99559" lon="3.08851">
        <ele>530.4</ele>
        <time>2021-08-15T08:32:10Z</time>
      </trkpt>
      <trkpt lat="43.99556" lon="3.08838">
        <ele>530.4</ele>
        <time>2021-08-15T08:32:12Z</time>
      </trkpt>
      <trkpt lat="43.99553" lon="3.08825">
        <ele>530.9</ele>
        <time>2021-08-15T08:32:14Z</time>
      </trkpt>
      <trkpt lat="43.99551" lon="3.08812">
        <ele>531.2</ele>
        <time>2021-08-15T08:32:16Z</time>
      </trkpt>
      <trkpt lat="43.99549" lon="3.08799">
        <ele>531.8</ele>
        <time>2021-08-15T08:32:18Z</time>
      </trkpt>
      <trkpt lat="43.99548" lon="3.08786">
        <ele>532.2</ele>
        <time>2021-08-15T08:32:20Z</time>
      </trkpt>
      <trkpt lat="43.99546" lon="3.08773">
        <ele>532.4</ele>
        <time>2021-08-15T08:32:22Z</time>
      </trkpt>
      <trkpt lat="43.99545" lon="3.08759">
        <ele>533.2</ele>
        <time>2021-08-15T08:32:24Z</time>
      </trkpt>
      <trkpt lat="43.99544" lon="3.08746">
        <ele>533.5</ele>
        <time>2021-08-15T08:32:26Z</time>
      </trkpt>
      <trkpt lat="43.99542" lon="3.08734">
        <ele>533.5</ele>
        <time>2021-08-15T08:32:28Z</time>
      </trkpt>
      <trkpt lat="43.99539" lon="3.08722">
        <ele>532.6</ele>
        <time>2021-08-15T08:32:30Z</time>
      </trkpt>
      <trkpt lat="43.99535" lon="3.08709">
        <ele>531.3</ele>
        <time>2021-08-15T08:32:32Z</time>
      </trkpt>
      <trkpt lat="43.99532" lon="3.08697">
        <ele>529.8</ele>
        <time>2021-08-15T08:32:34Z</time>
      </trkpt>
      <trkpt lat="43.99528" lon="3.08684">
        <ele>528.3</ele>
        <time>2021-08-15T08:32:36Z</time>
      </trkpt>
      <trkpt lat="43.99524" lon="3.08671">
        <ele>526.4</ele>
        <time>2021-08-15T08:32:38Z</time>
      </trkpt>
      <trkpt lat="43.99519" lon="3.08659">
        <ele>524.4</ele>
        <time>2021-08-15T08:32:40Z</time>
      </trkpt>
      <trkpt lat="43.99515" lon="3.08646">
        <ele>522.1</ele>
        <time>2021-08-15T08:32:42Z</time>
      </trkpt>
      <trkpt lat="43.9951" lon="3.08634">
        <ele>520</ele>
        <time>2021-08-15T08:32:44Z</time>
      </trkpt>
      <trkpt lat="43.99506" lon="3.08623">
        <ele>518.1</ele>
        <time>2021-08-15T08:32:46Z</time>
      </trkpt>
      <trkpt lat="43.99502" lon="3.08609">
        <ele>516.3</ele>
        <time>2021-08-15T08:32:48Z</time>
      </trkpt>
      <trkpt lat="43.99498" lon="3.08596">
        <ele>515.4</ele>
        <time>2021-08-15T08:32:50Z</time>
      </trkpt>
      <trkpt lat="43.99494" lon="3.08582">
        <ele>515.9</ele>
        <time>2021-08-15T08:32:52Z</time>
      </trkpt>
      <trkpt lat="43.99492" lon="3.08567">
        <ele>515.5</ele>
        <time>2021-08-15T08:32:54Z</time>
      </trkpt>
      <trkpt lat="43.99492" lon="3.08552">
        <ele>515.1</ele>
        <time>2021-08-15T08:32:56Z</time>
      </trkpt>
      <trkpt lat="43.99494" lon="3.08537">
        <ele>514.7</ele>
        <time>2021-08-15T08:32:58Z</time>
      </trkpt>
      <trkpt lat="43.99496" lon="3.08523">
        <ele>514.1</ele>
        <time>2021-08-15T08:33:00Z</time>
      </trkpt>
      <trkpt lat="43.99498" lon="3.08508">
        <ele>513.5</ele>
        <time>2021-08-15T08:33:02Z</time>
      </trkpt>
      <trkpt lat="43.995" lon="3.08494">
        <ele>513.1</ele>
        <time>2021-08-15T08:33:04Z</time>
      </trkpt>
      <trkpt lat="43.99503" lon="3.08481">
        <ele>514.2</ele>
        <time>2021-08-15T08:33:06Z</time>
      </trkpt>
      <trkpt lat="43.99506" lon="3.08467">
        <ele>515.6</ele>
        <time>2021-08-15T08:33:08Z</time>
      </trkpt>
      <trkpt lat="43.99508" lon="3.08453">
        <ele>516.4</ele>
        <time>2021-08-15T08:33:10Z</time>
      </trkpt>
      <trkpt lat="43.99512" lon="3.08439">
        <ele>517.8</ele>
        <time>2021-08-15T08:33:12Z</time>
      </trkpt>
      <trkpt lat="43.99516" lon="3.08425">
        <ele>519.1</ele>
        <time>2021-08-15T08:33:14Z</time>
      </trkpt>
      <trkpt lat="43.9952" lon="3.08411">
        <ele>519.9</ele>
        <time>2021-08-15T08:33:16Z</time>
      </trkpt>
      <trkpt lat="43.99524" lon="3.08396">
        <ele>520.5</ele>
        <time>2021-08-15T08:33:18Z</time>
      </trkpt>
      <trkpt lat="43.99529" lon="3.08382">
        <ele>520.4</ele>
        <time>2021-08-15T08:33:20Z</time>
      </trkpt>
      <trkpt lat="43.99534" lon="3.08368">
        <ele>519.9</ele>
        <time>2021-08-15T08:33:22Z</time>
      </trkpt>
      <trkpt lat="43.99538" lon="3.08353">
        <ele>518.9</ele>
        <time>2021-08-15T08:33:24Z</time>
      </trkpt>
      <trkpt lat="43.99542" lon="3.08339">
        <ele>517.3</ele>
        <time>2021-08-15T08:33:26Z</time>
      </trkpt>
      <trkpt lat="43.99547" lon="3.08325">
        <ele>516.6</ele>
        <time>2021-08-15T08:33:28Z</time>
      </trkpt>
      <trkpt lat="43.9955" lon="3.08311">
        <ele>516.5</ele>
        <time>2021-08-15T08:33:30Z</time>
      </trkpt>
      <trkpt lat="43.99555" lon="3.08297">
        <ele>516.3</ele>
        <time>2021-08-15T08:33:32Z</time>
      </trkpt>
      <trkpt lat="43.99558" lon="3.08283">
        <ele>515.7</ele>
        <time>2021-08-15T08:33:34Z</time>
      </trkpt>
      <trkpt lat="43.99562" lon="3.08268">
        <ele>514.9</ele>
        <time>2021-08-15T08:33:36Z</time>
      </trkpt>
      <trkpt lat="43.99566" lon="3.08254">
        <ele>513.9</ele>
        <time>2021-08-15T08:33:38Z</time>
      </trkpt>
      <trkpt lat="43.99569" lon="3.08239">
        <ele>513.7</ele>
        <time>2021-08-15T08:33:40Z</time>
      </trkpt>
      <trkpt lat="43.99572" lon="3.08225">
        <ele>513.7</ele>
        <time>2021-08-15T08:33:42Z</time>
      </trkpt>
      <trkpt lat="43.99576" lon="3.0821">
        <ele>513.3</ele>
        <time>2021-08-15T08:33:44Z</time>
      </trkpt>
      <trkpt lat="43.99579" lon="3.08195">
        <ele>512.7</ele>
        <time>2021-08-15T08:33:46Z</time>
      </trkpt>
      <trkpt lat="43.99581" lon="3.0818">
        <ele>511.9</ele>
        <time>2021-08-15T08:33:48Z</time>
      </trkpt>
      <trkpt lat="43.99585" lon="3.08165">
        <ele>511.6</ele>
        <time>2021-08-15T08:33:50Z</time>
      </trkpt>
      <trkpt lat="43.99588" lon="3.0815">
        <ele>512.8</ele>
        <time>2021-08-15T08:33:52Z</time>
      </trkpt>
      <trkpt lat="43.99591" lon="3.08135">
        <ele>513.7</ele>
        <time>2021-08-15T08:33:54Z</time>
      </trkpt>
      <trkpt lat="43.99595" lon="3.08121">
        <ele>514.7</ele>
        <time>2021-08-15T08:33:56Z</time>
      </trkpt>
      <trkpt lat="43.99599" lon="3.08106">
        <ele>515.8</ele>
        <time>2021-08-15T08:33:58Z</time>
      </trkpt>
      <trkpt lat="43.99603" lon="3.08092">
        <ele>516.8</ele>
        <time>2021-08-15T08:34:00Z</time>
      </trkpt>
      <trkpt lat="43.99607" lon="3.08077">
        <ele>517.8</ele>
        <time>2021-08-15T08:34:02Z</time>
      </trkpt>
      <trkpt lat="43.99611" lon="3.08063">
        <ele>518.7</ele>
        <time>2021-08-15T08:34:04Z</time>
      </trkpt>
      <trkpt lat="43.99615" lon="3.08048">
        <ele>519.4</ele>
        <time>2021-08-15T08:34:06Z</time>
      </trkpt>
      <trkpt lat="43.99618" lon="3.08033">
        <ele>519.5</ele>
        <time>2021-08-15T08:34:08Z</time>
      </trkpt>
      <trkpt lat="43.99622" lon="3.08018">
        <ele>519.5</ele>
        <time>2021-08-15T08:34:10Z</time>
      </trkpt>
      <trkpt lat="43.99625" lon="3.08003">
        <ele>519.3</ele>
        <time>2021-08-15T08:34:12Z</time>
      </trkpt>
      <trkpt lat="43.99628" lon="3.07987">
        <ele>519.1</ele>
        <time>2021-08-15T08:34:14Z</time>
      </trkpt>
      <trkpt lat="43.9963" lon="3.07972">
        <ele>519</ele>
        <time>2021-08-15T08:34:16Z</time>
      </trkpt>
      <trkpt lat="43.99633" lon="3.07956">
        <ele>518.8</ele>
        <time>2021-08-15T08:34:18Z</time>
      </trkpt>
      <trkpt lat="43.99636" lon="3.0794">
        <ele>518.3</ele>
        <time>2021-08-15T08:34:20Z</time>
      </trkpt>
      <trkpt lat="43.99637" lon="3.07925">
        <ele>517.6</ele>
        <time>2021-08-15T08:34:22Z</time>
      </trkpt>
      <trkpt lat="43.99639" lon="3.07909">
        <ele>517.2</ele>
        <time>2021-08-15T08:34:24Z</time>
      </trkpt>
      <trkpt lat="43.9964" lon="3.07893">
        <ele>517.2</ele>
        <time>2021-08-15T08:34:26Z</time>
      </trkpt>
      <trkpt lat="43.99641" lon="3.07878">
        <ele>517.2</ele>
        <time>2021-08-15T08:34:28Z</time>
      </trkpt>
      <trkpt lat="43.99642" lon="3.07861">
        <ele>517.2</ele>
        <time>2021-08-15T08:34:30Z</time>
      </trkpt>
      <trkpt lat="43.99642" lon="3.07846">
        <ele>517.1</ele>
        <time>2021-08-15T08:34:32Z</time>
      </trkpt>
      <trkpt lat="43.99643" lon="3.07831">
        <ele>517</ele>
        <time>2021-08-15T08:34:34Z</time>
      </trkpt>
      <trkpt lat="43.99643" lon="3.07815">
        <ele>517</ele>
        <time>2021-08-15T08:34:36Z</time>
      </trkpt>
      <trkpt lat="43.99643" lon="3.078">
        <ele>516.9</ele>
        <time>2021-08-15T08:34:38Z</time>
      </trkpt>
      <trkpt lat="43.9964" lon="3.07785">
        <ele>516.4</ele>
        <time>2021-08-15T08:34:40Z</time>
      </trkpt>
      <trkpt lat="43.99638" lon="3.0777">
        <ele>516</ele>
        <time>2021-08-15T08:34:42Z</time>
      </trkpt>
      <trkpt lat="43.99635" lon="3.07755">
        <ele>515.3</ele>
        <time>2021-08-15T08:34:44Z</time>
      </trkpt>
      <trkpt lat="43.99631" lon="3.07741">
        <ele>514.1</ele>
        <time>2021-08-15T08:34:46Z</time>
      </trkpt>
      <trkpt lat="43.99626" lon="3.07728">
        <ele>512.8</ele>
        <time>2021-08-15T08:34:48Z</time>
      </trkpt>
      <trkpt lat="43.99622" lon="3.07714">
        <ele>511.6</ele>
        <time>2021-08-15T08:34:50Z</time>
      </trkpt>
      <trkpt lat="43.99619" lon="3.077">
        <ele>510.8</ele>
        <time>2021-08-15T08:34:52Z</time>
      </trkpt>
      <trkpt lat="43.99617" lon="3.07685">
        <ele>510.2</ele>
        <time>2021-08-15T08:34:54Z</time>
      </trkpt>
      <trkpt lat="43.99617" lon="3.07671">
        <ele>509.9</ele>
        <time>2021-08-15T08:34:56Z</time>
      </trkpt>
      <trkpt lat="43.99618" lon="3.07656">
        <ele>509.4</ele>
        <time>2021-08-15T08:34:58Z</time>
      </trkpt>
      <trkpt lat="43.99621" lon="3.07641">
        <ele>508.7</ele>
        <time>2021-08-15T08:35:00Z</time>
      </trkpt>
      <trkpt lat="43.99625" lon="3.07627">
        <ele>508.1</ele>
        <time>2021-08-15T08:35:02Z</time>
      </trkpt>
      <trkpt lat="43.99631" lon="3.07613">
        <ele>507.5</ele>
        <time>2021-08-15T08:35:04Z</time>
      </trkpt>
      <trkpt lat="43.99637" lon="3.07601">
        <ele>506.8</ele>
        <time>2021-08-15T08:35:06Z</time>
      </trkpt>
      <trkpt lat="43.99644" lon="3.0759">
        <ele>506</ele>
        <time>2021-08-15T08:35:08Z</time>
      </trkpt>
      <trkpt lat="43.99651" lon="3.0758">
        <ele>505.3</ele>
        <time>2021-08-15T08:35:10Z</time>
      </trkpt>
      <trkpt lat="43.99658" lon="3.07572">
        <ele>504.7</ele>
        <time>2021-08-15T08:35:12Z</time>
      </trkpt>
      <trkpt lat="43.99666" lon="3.0756">
        <ele>503.3</ele>
        <time>2021-08-15T08:35:14Z</time>
      </trkpt>
      <trkpt lat="43.99675" lon="3.07551">
        <ele>504.4</ele>
        <time>2021-08-15T08:35:16Z</time>
      </trkpt>
      <trkpt lat="43.99682" lon="3.07542">
        <ele>504.9</ele>
        <time>2021-08-15T08:35:18Z</time>
      </trkpt>
      <trkpt lat="43.99688" lon="3.07532">
        <ele>505.1</ele>
        <time>2021-08-15T08:35:20Z</time>
      </trkpt>
      <trkpt lat="43.99696" lon="3.07523">
        <ele>505.4</ele>
        <time>2021-08-15T08:35:22Z</time>
      </trkpt>
      <trkpt lat="43.99703" lon="3.07514">
        <ele>505.6</ele>
        <time>2021-08-15T08:35:24Z</time>
      </trkpt>
      <trkpt lat="43.99711" lon="3.07504">
        <ele>505.2</ele>
        <time>2021-08-15T08:35:26Z</time>
      </trkpt>
      <trkpt lat="43.99719" lon="3.07495">
        <ele>505.9</ele>
        <time>2021-08-15T08:35:28Z</time>
      </trkpt>
      <trkpt lat="43.99726" lon="3.07486">
        <ele>506.7</ele>
        <time>2021-08-15T08:35:30Z</time>
      </trkpt>
      <trkpt lat="43.99733" lon="3.07476">
        <ele>507.1</ele>
        <time>2021-08-15T08:35:32Z</time>
      </trkpt>
      <trkpt lat="43.9974" lon="3.07466">
        <ele>507</ele>
        <time>2021-08-15T08:35:34Z</time>
      </trkpt>
      <trkpt lat="43.99745" lon="3.07453">
        <ele>506.2</ele>
        <time>2021-08-15T08:35:36Z</time>
      </trkpt>
      <trkpt lat="43.99751" lon="3.07442">
        <ele>505.6</ele>
        <time>2021-08-15T08:35:38Z</time>
      </trkpt>
      <trkpt lat="43.99757" lon="3.07431">
        <ele>507.2</ele>
        <time>2021-08-15T08:35:40Z</time>
      </trkpt>
      <trkpt lat="43.99762" lon="3.07419">
        <ele>508.4</ele>
        <time>2021-08-15T08:35:42Z</time>
      </trkpt>
      <trkpt lat="43.99767" lon="3.07406">
        <ele>509.8</ele>
        <time>2021-08-15T08:35:44Z</time>
      </trkpt>
      <trkpt lat="43.99771" lon="3.07394">
        <ele>511.3</ele>
        <time>2021-08-15T08:35:46Z</time>
      </trkpt>
      <trkpt lat="43.99773" lon="3.07381">
        <ele>512.1</ele>
        <time>2021-08-15T08:35:48Z</time>
      </trkpt>
      <trkpt lat="43.99775" lon="3.07368">
        <ele>512.5</ele>
        <time>2021-08-15T08:35:50Z</time>
      </trkpt>
      <trkpt lat="43.99776" lon="3.07354">
        <ele>512.3</ele>
        <time>2021-08-15T08:35:52Z</time>
      </trkpt>
      <trkpt lat="43.99776" lon="3.0734">
        <ele>511.8</ele>
        <time>2021-08-15T08:35:54Z</time>
      </trkpt>
      <trkpt lat="43.99776" lon="3.07326">
        <ele>511.5</ele>
        <time>2021-08-15T08:35:56Z</time>
      </trkpt>
      <trkpt lat="43.99775" lon="3.07312">
        <ele>511.1</ele>
        <time>2021-08-15T08:35:58Z</time>
      </trkpt>
      <trkpt lat="43.99774" lon="3.07298">
        <ele>510.6</ele>
        <time>2021-08-15T08:36:00Z</time>
      </trkpt>
      <trkpt lat="43.99772" lon="3.07283">
        <ele>509.9</ele>
        <time>2021-08-15T08:36:02Z</time>
      </trkpt>
      <trkpt lat="43.99771" lon="3.07268">
        <ele>509.3</ele>
        <time>2021-08-15T08:36:04Z</time>
      </trkpt>
      <trkpt lat="43.9977" lon="3.07253">
        <ele>508.5</ele>
        <time>2021-08-15T08:36:06Z</time>
      </trkpt>
      <trkpt lat="43.99767" lon="3.07239">
        <ele>507.2</ele>
        <time>2021-08-15T08:36:08Z</time>
      </trkpt>
      <trkpt lat="43.99766" lon="3.07225">
        <ele>506.4</ele>
        <time>2021-08-15T08:36:10Z</time>
      </trkpt>
      <trkpt lat="43.99764" lon="3.0721">
        <ele>505.7</ele>
        <time>2021-08-15T08:36:12Z</time>
      </trkpt>
      <trkpt lat="43.99763" lon="3.07195">
        <ele>505.3</ele>
        <time>2021-08-15T08:36:14Z</time>
      </trkpt>
      <trkpt lat="43.99762" lon="3.0718">
        <ele>505.2</ele>
        <time>2021-08-15T08:36:16Z</time>
      </trkpt>
      <trkpt lat="43.99762" lon="3.07164">
        <ele>505.4</ele>
        <time>2021-08-15T08:36:18Z</time>
      </trkpt>
      <trkpt lat="43.99762" lon="3.07149">
        <ele>504.7</ele>
        <time>2021-08-15T08:36:20Z</time>
      </trkpt>
      <trkpt lat="43.99762" lon="3.07133">
        <ele>504.1</ele>
        <time>2021-08-15T08:36:22Z</time>
      </trkpt>
      <trkpt lat="43.99762" lon="3.07117">
        <ele>503.2</ele>
        <time>2021-08-15T08:36:24Z</time>
      </trkpt>
      <trkpt lat="43.99762" lon="3.07101">
        <ele>502.4</ele>
        <time>2021-08-15T08:36:26Z</time>
      </trkpt>
      <trkpt lat="43.99762" lon="3.07084">
        <ele>501.5</ele>
        <time>2021-08-15T08:36:28Z</time>
      </trkpt>
      <trkpt lat="43.99761" lon="3.07068">
        <ele>501.3</ele>
        <time>2021-08-15T08:36:30Z</time>
      </trkpt>
      <trkpt lat="43.99759" lon="3.07053">
        <ele>500.3</ele>
        <time>2021-08-15T08:36:32Z</time>
      </trkpt>
      <trkpt lat="43.99756" lon="3.07037">
        <ele>498.6</ele>
        <time>2021-08-15T08:36:34Z</time>
      </trkpt>
      <trkpt lat="43.99751" lon="3.07022">
        <ele>496.5</ele>
        <time>2021-08-15T08:36:36Z</time>
      </trkpt>
      <trkpt lat="43.99747" lon="3.07008">
        <ele>496.1</ele>
        <time>2021-08-15T08:36:38Z</time>
      </trkpt>
      <trkpt lat="43.99744" lon="3.06992">
        <ele>496</ele>
        <time>2021-08-15T08:36:40Z</time>
      </trkpt>
      <trkpt lat="43.99739" lon="3.06978">
        <ele>495.7</ele>
        <time>2021-08-15T08:36:42Z</time>
      </trkpt>
      <trkpt lat="43.99735" lon="3.06964">
        <ele>495.4</ele>
        <time>2021-08-15T08:36:44Z</time>
      </trkpt>
      <trkpt lat="43.99732" lon="3.06949">
        <ele>495.1</ele>
        <time>2021-08-15T08:36:46Z</time>
      </trkpt>
      <trkpt lat="43.9973" lon="3.06933">
        <ele>494.7</ele>
        <time>2021-08-15T08:36:48Z</time>
      </trkpt>
      <trkpt lat="43.99731" lon="3.06916">
        <ele>494.2</ele>
        <time>2021-08-15T08:36:50Z</time>
      </trkpt>
      <trkpt lat="43.99733" lon="3.069">
        <ele>494.2</ele>
        <time>2021-08-15T08:36:52Z</time>
      </trkpt>
      <trkpt lat="43.99737" lon="3.06885">
        <ele>493.9</ele>
        <time>2021-08-15T08:36:54Z</time>
      </trkpt>
      <trkpt lat="43.99743" lon="3.06872">
        <ele>493.4</ele>
        <time>2021-08-15T08:36:56Z</time>
      </trkpt>
      <trkpt lat="43.9975" lon="3.06859">
        <ele>492.6</ele>
        <time>2021-08-15T08:36:58Z</time>
      </trkpt>
      <trkpt lat="43.99756" lon="3.06847">
        <ele>495.2</ele>
        <time>2021-08-15T08:37:00Z</time>
      </trkpt>
      <trkpt lat="43.99763" lon="3.06835">
        <ele>497.8</ele>
        <time>2021-08-15T08:37:02Z</time>
      </trkpt>
      <trkpt lat="43.99768" lon="3.06824">
        <ele>499.7</ele>
        <time>2021-08-15T08:37:04Z</time>
      </trkpt>
      <trkpt lat="43.99774" lon="3.06812">
        <ele>501</ele>
        <time>2021-08-15T08:37:06Z</time>
      </trkpt>
      <trkpt lat="43.99778" lon="3.068">
        <ele>502.1</ele>
        <time>2021-08-15T08:37:08Z</time>
      </trkpt>
      <trkpt lat="43.99782" lon="3.06786">
        <ele>502.5</ele>
        <time>2021-08-15T08:37:10Z</time>
      </trkpt>
      <trkpt lat="43.99785" lon="3.06772">
        <ele>502.5</ele>
        <time>2021-08-15T08:37:12Z</time>
      </trkpt>
      <trkpt lat="43.99787" lon="3.06758">
        <ele>501.8</ele>
        <time>2021-08-15T08:37:14Z</time>
      </trkpt>
      <trkpt lat="43.99789" lon="3.06743">
        <ele>501.7</ele>
        <time>2021-08-15T08:37:16Z</time>
      </trkpt>
      <trkpt lat="43.99792" lon="3.06729">
        <ele>502.2</ele>
        <time>2021-08-15T08:37:18Z</time>
      </trkpt>
      <trkpt lat="43.99794" lon="3.06715">
        <ele>502.7</ele>
        <time>2021-08-15T08:37:20Z</time>
      </trkpt>
      <trkpt lat="43.99797" lon="3.067">
        <ele>503.2</ele>
        <time>2021-08-15T08:37:22Z</time>
      </trkpt>
      <trkpt lat="43.99801" lon="3.06686">
        <ele>504</ele>
        <time>2021-08-15T08:37:24Z</time>
      </trkpt>
      <trkpt lat="43.99804" lon="3.06672">
        <ele>504.4</ele>
        <time>2021-08-15T08:37:26Z</time>
      </trkpt>
      <trkpt lat="43.99806" lon="3.06658">
        <ele>505.4</ele>
        <time>2021-08-15T08:37:28Z</time>
      </trkpt>
      <trkpt lat="43.99807" lon="3.06643">
        <ele>506.4</ele>
        <time>2021-08-15T08:37:30Z</time>
      </trkpt>
      <trkpt lat="43.99807" lon="3.06629">
        <ele>507.1</ele>
        <time>2021-08-15T08:37:32Z</time>
      </trkpt>
      <trkpt lat="43.99806" lon="3.06615">
        <ele>507.5</ele>
        <time>2021-08-15T08:37:34Z</time>
      </trkpt>
      <trkpt lat="43.99804" lon="3.06601">
        <ele>507.4</ele>
        <time>2021-08-15T08:37:36Z</time>
      </trkpt>
      <trkpt lat="43.998" lon="3.06587">
        <ele>507</ele>
        <time>2021-08-15T08:37:38Z</time>
      </trkpt>
      <trkpt lat="43.99797" lon="3.06572">
        <ele>506.9</ele>
        <time>2021-08-15T08:37:40Z</time>
      </trkpt>
      <trkpt lat="43.99794" lon="3.06558">
        <ele>506.5</ele>
        <time>2021-08-15T08:37:42Z</time>
      </trkpt>
      <trkpt lat="43.99791" lon="3.06544">
        <ele>506</ele>
        <time>2021-08-15T08:37:44Z</time>
      </trkpt>
      <trkpt lat="43.99788" lon="3.0653">
        <ele>505.5</ele>
        <time>2021-08-15T08:37:46Z</time>
      </trkpt>
      <trkpt lat="43.99785" lon="3.06515">
        <ele>504.9</ele>
        <time>2021-08-15T08:37:48Z</time>
      </trkpt>
      <trkpt lat="43.99781" lon="3.06501">
        <ele>503.9</ele>
        <time>2021-08-15T08:37:50Z</time>
      </trkpt>
      <trkpt lat="43.99778" lon="3.06486">
        <ele>502.7</ele>
        <time>2021-08-15T08:37:52Z</time>
      </trkpt>
      <trkpt lat="43.99775" lon="3.06471">
        <ele>501.7</ele>
        <time>2021-08-15T08:37:54Z</time>
      </trkpt>
      <trkpt lat="43.99772" lon="3.06455">
        <ele>500.9</ele>
        <time>2021-08-15T08:37:56Z</time>
      </trkpt>
      <trkpt lat="43.99771" lon="3.06439">
        <ele>500.6</ele>
        <time>2021-08-15T08:37:58Z</time>
      </trkpt>
      <trkpt lat="43.99769" lon="3.06422">
        <ele>500.2</ele>
        <time>2021-08-15T08:38:00Z</time>
      </trkpt>
      <trkpt lat="43.99769" lon="3.06407">
        <ele>500</ele>
        <time>2021-08-15T08:38:02Z</time>
      </trkpt>
      <trkpt lat="43.99768" lon="3.0639">
        <ele>499.3</ele>
        <time>2021-08-15T08:38:04Z</time>
      </trkpt>
      <trkpt lat="43.99769" lon="3.06374">
        <ele>499.4</ele>
        <time>2021-08-15T08:38:06Z</time>
      </trkpt>
      <trkpt lat="43.99771" lon="3.06359">
        <ele>500.1</ele>
        <time>2021-08-15T08:38:08Z</time>
      </trkpt>
      <trkpt lat="43.99773" lon="3.06344">
        <ele>500.7</ele>
        <time>2021-08-15T08:38:10Z</time>
      </trkpt>
      <trkpt lat="43.99775" lon="3.06329">
        <ele>501.6</ele>
        <time>2021-08-15T08:38:12Z</time>
      </trkpt>
      <trkpt lat="43.99779" lon="3.06314">
        <ele>502.7</ele>
        <time>2021-08-15T08:38:14Z</time>
      </trkpt>
      <trkpt lat="43.9978" lon="3.063">
        <ele>503</ele>
        <time>2021-08-15T08:38:16Z</time>
      </trkpt>
      <trkpt lat="43.99782" lon="3.06285">
        <ele>503.1</ele>
        <time>2021-08-15T08:38:18Z</time>
      </trkpt>
      <trkpt lat="43.99784" lon="3.0627">
        <ele>503.7</ele>
        <time>2021-08-15T08:38:20Z</time>
      </trkpt>
      <trkpt lat="43.99785" lon="3.06254">
        <ele>503.5</ele>
        <time>2021-08-15T08:38:22Z</time>
      </trkpt>
      <trkpt lat="43.99786" lon="3.06239">
        <ele>504</ele>
        <time>2021-08-15T08:38:24Z</time>
      </trkpt>
      <trkpt lat="43.99786" lon="3.06223">
        <ele>504.6</ele>
        <time>2021-08-15T08:38:26Z</time>
      </trkpt>
      <trkpt lat="43.99786" lon="3.06207">
        <ele>504.8</ele>
        <time>2021-08-15T08:38:28Z</time>
      </trkpt>
      <trkpt lat="43.99783" lon="3.06191">
        <ele>504</ele>
        <time>2021-08-15T08:38:30Z</time>
      </trkpt>
      <trkpt lat="43.99779" lon="3.06176">
        <ele>502.6</ele>
        <time>2021-08-15T08:38:32Z</time>
      </trkpt>
      <trkpt lat="43.99775" lon="3.06161">
        <ele>501.5</ele>
        <time>2021-08-15T08:38:34Z</time>
      </trkpt>
      <trkpt lat="43.9977" lon="3.06146">
        <ele>501.1</ele>
        <time>2021-08-15T08:38:36Z</time>
      </trkpt>
      <trkpt lat="43.99765" lon="3.06132">
        <ele>500.6</ele>
        <time>2021-08-15T08:38:38Z</time>
      </trkpt>
      <trkpt lat="43.9976" lon="3.06118">
        <ele>499.9</ele>
        <time>2021-08-15T08:38:40Z</time>
      </trkpt>
      <trkpt lat="43.99754" lon="3.06105">
        <ele>498.4</ele>
        <time>2021-08-15T08:38:42Z</time>
      </trkpt>
      <trkpt lat="43.99748" lon="3.06092">
        <ele>497.6</ele>
        <time>2021-08-15T08:38:44Z</time>
      </trkpt>
      <trkpt lat="43.9974" lon="3.06081">
        <ele>498.1</ele>
        <time>2021-08-15T08:38:46Z</time>
      </trkpt>
      <trkpt lat="43.99733" lon="3.06069">
        <ele>499.2</ele>
        <time>2021-08-15T08:38:48Z</time>
      </trkpt>
      <trkpt lat="43.99724" lon="3.06057">
        <ele>499.5</ele>
        <time>2021-08-15T08:38:50Z</time>
      </trkpt>
      <trkpt lat="43.99716" lon="3.06047">
        <ele>498.8</ele>
        <time>2021-08-15T08:38:52Z</time>
      </trkpt>
      <trkpt lat="43.99708" lon="3.06036">
        <ele>497.7</ele>
        <time>2021-08-15T08:38:54Z</time>
      </trkpt>
      <trkpt lat="43.997" lon="3.06024">
        <ele>496.1</ele>
        <time>2021-08-15T08:38:56Z</time>
      </trkpt>
      <trkpt lat="43.99694" lon="3.0601">
        <ele>494.5</ele>
        <time>2021-08-15T08:38:58Z</time>
      </trkpt>
      <trkpt lat="43.99689" lon="3.05996">
        <ele>492.8</ele>
        <time>2021-08-15T08:39:00Z</time>
      </trkpt>
      <trkpt lat="43.99684" lon="3.05982">
        <ele>491.7</ele>
        <time>2021-08-15T08:39:02Z</time>
      </trkpt>
      <trkpt lat="43.99682" lon="3.05967">
        <ele>491.3</ele>
        <time>2021-08-15T08:39:04Z</time>
      </trkpt>
      <trkpt lat="43.99679" lon="3.05951">
        <ele>490.9</ele>
        <time>2021-08-15T08:39:06Z</time>
      </trkpt>
      <trkpt lat="43.99677" lon="3.05936">
        <ele>490.6</ele>
        <time>2021-08-15T08:39:08Z</time>
      </trkpt>
      <trkpt lat="43.99676" lon="3.0592">
        <ele>490.9</ele>
        <time>2021-08-15T08:39:10Z</time>
      </trkpt>
      <trkpt lat="43.99676" lon="3.05904">
        <ele>490.4</ele>
        <time>2021-08-15T08:39:12Z</time>
      </trkpt>
      <trkpt lat="43.99676" lon="3.05888">
        <ele>489.5</ele>
        <time>2021-08-15T08:39:14Z</time>
      </trkpt>
      <trkpt lat="43.99678" lon="3.05872">
        <ele>489.2</ele>
        <time>2021-08-15T08:39:16Z</time>
      </trkpt>
      <trkpt lat="43.9968" lon="3.05858">
        <ele>489.3</ele>
        <time>2021-08-15T08:39:18Z</time>
      </trkpt>
      <trkpt lat="43.99684" lon="3.05843">
        <ele>489.4</ele>
        <time>2021-08-15T08:39:20Z</time>
      </trkpt>
      <trkpt lat="43.99691" lon="3.05831">
        <ele>490.3</ele>
        <time>2021-08-15T08:39:22Z</time>
      </trkpt>
      <trkpt lat="43.99701" lon="3.05824">
        <ele>491.9</ele>
        <time>2021-08-15T08:39:24Z</time>
      </trkpt>
      <trkpt lat="43.99711" lon="3.05818">
        <ele>493.3</ele>
        <time>2021-08-15T08:39:26Z</time>
      </trkpt>
      <trkpt lat="43.9972" lon="3.05812">
        <ele>494.3</ele>
        <time>2021-08-15T08:39:28Z</time>
      </trkpt>
      <trkpt lat="43.9973" lon="3.05807">
        <ele>495</ele>
        <time>2021-08-15T08:39:30Z</time>
      </trkpt>
      <trkpt lat="43.9974" lon="3.05802">
        <ele>495.4</ele>
        <time>2021-08-15T08:39:32Z</time>
      </trkpt>
      <trkpt lat="43.99749" lon="3.05794">
        <ele>494.5</ele>
        <time>2021-08-15T08:39:34Z</time>
      </trkpt>
      <trkpt lat="43.99758" lon="3.05786">
        <ele>495.9</ele>
        <time>2021-08-15T08:39:36Z</time>
      </trkpt>
      <trkpt lat="43.99766" lon="3.05778">
        <ele>497.1</ele>
        <time>2021-08-15T08:39:38Z</time>
      </trkpt>
      <trkpt lat="43.99773" lon="3.05768">
        <ele>497.3</ele>
        <time>2021-08-15T08:39:40Z</time>
      </trkpt>
      <trkpt lat="43.99781" lon="3.05757">
        <ele>497.1</ele>
        <time>2021-08-15T08:39:42Z</time>
      </trkpt>
      <trkpt lat="43.99788" lon="3.05746">
        <ele>497.5</ele>
        <time>2021-08-15T08:39:44Z</time>
      </trkpt>
      <trkpt lat="43.99794" lon="3.05732">
        <ele>498.4</ele>
        <time>2021-08-15T08:39:46Z</time>
      </trkpt>
      <trkpt lat="43.998" lon="3.0572">
        <ele>498.8</ele>
        <time>2021-08-15T08:39:48Z</time>
      </trkpt>
      <trkpt lat="43.99807" lon="3.05707">
        <ele>498.5</ele>
        <time>2021-08-15T08:39:50Z</time>
      </trkpt>
      <trkpt lat="43.99812" lon="3.05694">
        <ele>497.5</ele>
        <time>2021-08-15T08:39:52Z</time>
      </trkpt>
      <trkpt lat="43.99819" lon="3.05681">
        <ele>495.9</ele>
        <time>2021-08-15T08:39:54Z</time>
      </trkpt>
      <trkpt lat="43.99824" lon="3.05668">
        <ele>493.5</ele>
        <time>2021-08-15T08:39:56Z</time>
      </trkpt>
      <trkpt lat="43.99829" lon="3.05655">
        <ele>492</ele>
        <time>2021-08-15T08:39:58Z</time>
      </trkpt>
      <trkpt lat="43.99834" lon="3.05641">
        <ele>490.5</ele>
        <time>2021-08-15T08:40:00Z</time>
      </trkpt>
      <trkpt lat="43.99839" lon="3.05629">
        <ele>491.3</ele>
        <time>2021-08-15T08:40:02Z</time>
      </trkpt>
      <trkpt lat="43.99845" lon="3.05616">
        <ele>491.9</ele>
        <time>2021-08-15T08:40:04Z</time>
      </trkpt>
      <trkpt lat="43.9985" lon="3.05604">
        <ele>492.4</ele>
        <time>2021-08-15T08:40:06Z</time>
      </trkpt>
      <trkpt lat="43.99855" lon="3.05592">
        <ele>492.9</ele>
        <time>2021-08-15T08:40:08Z</time>
      </trkpt>
      <trkpt lat="43.99859" lon="3.0558">
        <ele>493.3</ele>
        <time>2021-08-15T08:40:10Z</time>
      </trkpt>
      <trkpt lat="43.99863" lon="3.05568">
        <ele>494.8</ele>
        <time>2021-08-15T08:40:12Z</time>
      </trkpt>
      <trkpt lat="43.99868" lon="3.05556">
        <ele>496.3</ele>
        <time>2021-08-15T08:40:14Z</time>
      </trkpt>
      <trkpt lat="43.99871" lon="3.05543">
        <ele>497.1</ele>
        <time>2021-08-15T08:40:16Z</time>
      </trkpt>
      <trkpt lat="43.99875" lon="3.0553">
        <ele>497.6</ele>
        <time>2021-08-15T08:40:18Z</time>
      </trkpt>
      <trkpt lat="43.99878" lon="3.05518">
        <ele>497.8</ele>
        <time>2021-08-15T08:40:20Z</time>
      </trkpt>
      <trkpt lat="43.9988" lon="3.05505">
        <ele>497.7</ele>
        <time>2021-08-15T08:40:22Z</time>
      </trkpt>
      <trkpt lat="43.99882" lon="3.05493">
        <ele>497.8</ele>
        <time>2021-08-15T08:40:24Z</time>
      </trkpt>
      <trkpt lat="43.99884" lon="3.05481">
        <ele>497.9</ele>
        <time>2021-08-15T08:40:26Z</time>
      </trkpt>
      <trkpt lat="43.99885" lon="3.05469">
        <ele>498</ele>
        <time>2021-08-15T08:40:28Z</time>
      </trkpt>
      <trkpt lat="43.99887" lon="3.05458">
        <ele>498</ele>
        <time>2021-08-15T08:40:30Z</time>
      </trkpt>
      <trkpt lat="43.99888" lon="3.05447">
        <ele>498</ele>
        <time>2021-08-15T08:40:32Z</time>
      </trkpt>
      <trkpt lat="43.9989" lon="3.05436">
        <ele>498</ele>
        <time>2021-08-15T08:40:34Z</time>
      </trkpt>
      <trkpt lat="43.9989" lon="3.05424">
        <ele>497.7</ele>
        <time>2021-08-15T08:40:36Z</time>
      </trkpt>
      <trkpt lat="43.99891" lon="3.05413">
        <ele>497.5</ele>
        <time>2021-08-15T08:40:38Z</time>
      </trkpt>
      <trkpt lat="43.99892" lon="3.05401">
        <ele>497.7</ele>
        <time>2021-08-15T08:40:40Z</time>
      </trkpt>
      <trkpt lat="43.99892" lon="3.0539">
        <ele>497.8</ele>
        <time>2021-08-15T08:40:42Z</time>
      </trkpt>
      <trkpt lat="43.99893" lon="3.05378">
        <ele>497.7</ele>
        <time>2021-08-15T08:40:44Z</time>
      </trkpt>
      <trkpt lat="43.99891" lon="3.05365">
        <ele>497.1</ele>
        <time>2021-08-15T08:40:46Z</time>
      </trkpt>
      <trkpt lat="43.9989" lon="3.05352">
        <ele>496.5</ele>
        <time>2021-08-15T08:40:48Z</time>
      </trkpt>
      <trkpt lat="43.99888" lon="3.05338">
        <ele>495.8</ele>
        <time>2021-08-15T08:40:50Z</time>
      </trkpt>
      <trkpt lat="43.99885" lon="3.05324">
        <ele>494.5</ele>
        <time>2021-08-15T08:40:52Z</time>
      </trkpt>
      <trkpt lat="43.99881" lon="3.05311">
        <ele>493.1</ele>
        <time>2021-08-15T08:40:54Z</time>
      </trkpt>
      <trkpt lat="43.99878" lon="3.05297">
        <ele>491.7</ele>
        <time>2021-08-15T08:40:56Z</time>
      </trkpt>
      <trkpt lat="43.99874" lon="3.05284">
        <ele>490.4</ele>
        <time>2021-08-15T08:40:58Z</time>
      </trkpt>
      <trkpt lat="43.9987" lon="3.05271">
        <ele>489.1</ele>
        <time>2021-08-15T08:41:00Z</time>
      </trkpt>
      <trkpt lat="43.99868" lon="3.05257">
        <ele>488.5</ele>
        <time>2021-08-15T08:41:02Z</time>
      </trkpt>
      <trkpt lat="43.99869" lon="3.05241">
        <ele>487.8</ele>
        <time>2021-08-15T08:41:04Z</time>
      </trkpt>
      <trkpt lat="43.99872" lon="3.05227">
        <ele>487.4</ele>
        <time>2021-08-15T08:41:06Z</time>
      </trkpt>
      <trkpt lat="43.99877" lon="3.05213">
        <ele>487.4</ele>
        <time>2021-08-15T08:41:08Z</time>
      </trkpt>
      <trkpt lat="43.99881" lon="3.052">
        <ele>487.4</ele>
        <time>2021-08-15T08:41:10Z</time>
      </trkpt>
      <trkpt lat="43.99886" lon="3.05187">
        <ele>487.2</ele>
        <time>2021-08-15T08:41:12Z</time>
      </trkpt>
      <trkpt lat="43.99891" lon="3.05174">
        <ele>486.9</ele>
        <time>2021-08-15T08:41:14Z</time>
      </trkpt>
      <trkpt lat="43.99896" lon="3.05161">
        <ele>486.7</ele>
        <time>2021-08-15T08:41:16Z</time>
      </trkpt>
      <trkpt lat="43.999" lon="3.05148">
        <ele>486.5</ele>
        <time>2021-08-15T08:41:18Z</time>
      </trkpt>
      <trkpt lat="43.99905" lon="3.05135">
        <ele>485.9</ele>
        <time>2021-08-15T08:41:20Z</time>
      </trkpt>
      <trkpt lat="43.99909" lon="3.05121">
        <ele>485.1</ele>
        <time>2021-08-15T08:41:22Z</time>
      </trkpt>
      <trkpt lat="43.99914" lon="3.05109">
        <ele>484.1</ele>
        <time>2021-08-15T08:41:24Z</time>
      </trkpt>
      <trkpt lat="43.99919" lon="3.05097">
        <ele>484.1</ele>
        <time>2021-08-15T08:41:26Z</time>
      </trkpt>
      <trkpt lat="43.99924" lon="3.05085">
        <ele>485.5</ele>
        <time>2021-08-15T08:41:28Z</time>
      </trkpt>
      <trkpt lat="43.99929" lon="3.05073">
        <ele>486.7</ele>
        <time>2021-08-15T08:41:30Z</time>
      </trkpt>
      <trkpt lat="43.99934" lon="3.05061">
        <ele>488</ele>
        <time>2021-08-15T08:41:32Z</time>
      </trkpt>
      <trkpt lat="43.99939" lon="3.0505">
        <ele>488.8</ele>
        <time>2021-08-15T08:41:34Z</time>
      </trkpt>
      <trkpt lat="43.99944" lon="3.05039">
        <ele>489.6</ele>
        <time>2021-08-15T08:41:36Z</time>
      </trkpt>
      <trkpt lat="43.99949" lon="3.05029">
        <ele>490.2</ele>
        <time>2021-08-15T08:41:38Z</time>
      </trkpt>
      <trkpt lat="43.99953" lon="3.0502">
        <ele>490.5</ele>
        <time>2021-08-15T08:41:40Z</time>
      </trkpt>
      <trkpt lat="43.99957" lon="3.05012">
        <ele>490.6</ele>
        <time>2021-08-15T08:41:42Z</time>
      </trkpt>
      <trkpt lat="43.99961" lon="3.05003">
        <ele>490.5</ele>
        <time>2021-08-15T08:41:44Z</time>
      </trkpt>
      <trkpt lat="43.99965" lon="3.04992">
        <ele>490.7</ele>
        <time>2021-08-15T08:41:46Z</time>
      </trkpt>
      <trkpt lat="43.99969" lon="3.04981">
        <ele>491.4</ele>
        <time>2021-08-15T08:41:48Z</time>
      </trkpt>
      <trkpt lat="43.99974" lon="3.0497">
        <ele>492</ele>
        <time>2021-08-15T08:41:50Z</time>
      </trkpt>
      <trkpt lat="43.99978" lon="3.04958">
        <ele>492.2</ele>
        <time>2021-08-15T08:41:52Z</time>
      </trkpt>
      <trkpt lat="43.9998" lon="3.04945">
        <ele>491.6</ele>
        <time>2021-08-15T08:41:54Z</time>
      </trkpt>
      <trkpt lat="43.99981" lon="3.04931">
        <ele>490.3</ele>
        <time>2021-08-15T08:41:56Z</time>
      </trkpt>
      <trkpt lat="43.99979" lon="3.04918">
        <ele>488.6</ele>
        <time>2021-08-15T08:41:58Z</time>
      </trkpt>
      <trkpt lat="43.9998" lon="3.04904">
        <ele>488.4</ele>
        <time>2021-08-15T08:42:00Z</time>
      </trkpt>
      <trkpt lat="43.9998" lon="3.0489">
        <ele>488.2</ele>
        <time>2021-08-15T08:42:02Z</time>
      </trkpt>
      <trkpt lat="43.9998" lon="3.04876">
        <ele>488</ele>
        <time>2021-08-15T08:42:04Z</time>
      </trkpt>
      <trkpt lat="43.99981" lon="3.04863">
        <ele>488</ele>
        <time>2021-08-15T08:42:06Z</time>
      </trkpt>
      <trkpt lat="43.99981" lon="3.04849">
        <ele>487.8</ele>
        <time>2021-08-15T08:42:08Z</time>
      </trkpt>
      <trkpt lat="43.99982" lon="3.04835">
        <ele>487.7</ele>
        <time>2021-08-15T08:42:10Z</time>
      </trkpt>
      <trkpt lat="43.99983" lon="3.0482">
        <ele>487.5</ele>
        <time>2021-08-15T08:42:12Z</time>
      </trkpt>
      <trkpt lat="43.99984" lon="3.04806">
        <ele>487.4</ele>
        <time>2021-08-15T08:42:14Z</time>
      </trkpt>
      <trkpt lat="43.99983" lon="3.04792">
        <ele>487</ele>
        <time>2021-08-15T08:42:16Z</time>
      </trkpt>
      <trkpt lat="43.99984" lon="3.04778">
        <ele>486.8</ele>
        <time>2021-08-15T08:42:18Z</time>
      </trkpt>
      <trkpt lat="43.99986" lon="3.04764">
        <ele>486.9</ele>
        <time>2021-08-15T08:42:20Z</time>
      </trkpt>
      <trkpt lat="43.99988" lon="3.04751">
        <ele>486.9</ele>
        <time>2021-08-15T08:42:22Z</time>
      </trkpt>
      <trkpt lat="43.99991" lon="3.04738">
        <ele>486.2</ele>
        <time>2021-08-15T08:42:24Z</time>
      </trkpt>
      <trkpt lat="43.99995" lon="3.04725">
        <ele>485.3</ele>
        <time>2021-08-15T08:42:26Z</time>
      </trkpt>
      <trkpt lat="43.99998" lon="3.04711">
        <ele>484</ele>
        <time>2021-08-15T08:42:28Z</time>
      </trkpt>
      <trkpt lat="44" lon="3.04697">
        <ele>482.8</ele>
        <time>2021-08-15T08:42:30Z</time>
      </trkpt>
      <trkpt lat="44.00003" lon="3.04683">
        <ele>483.1</ele>
        <time>2021-08-15T08:42:32Z</time>
      </trkpt>
      <trkpt lat="44.00006" lon="3.04671">
        <ele>483.2</ele>
        <time>2021-08-15T08:42:34Z</time>
      </trkpt>
      <trkpt lat="44.00009" lon="3.04658">
        <ele>484</ele>
        <time>2021-08-15T08:42:36Z</time>
      </trkpt>
      <trkpt lat="44.00011" lon="3.04645">
        <ele>485.1</ele>
        <time>2021-08-15T08:42:38Z</time>
      </trkpt>
      <trkpt lat="44.00014" lon="3.04631">
        <ele>486.1</ele>
        <time>2021-08-15T08:42:40Z</time>
      </trkpt>
      <trkpt lat="44.00016" lon="3.04617">
        <ele>487</ele>
        <time>2021-08-15T08:42:42Z</time>
      </trkpt>
      <trkpt lat="44.00017" lon="3.04603">
        <ele>486.9</ele>
        <time>2021-08-15T08:42:44Z</time>
      </trkpt>
      <trkpt lat="44.00019" lon="3.04589">
        <ele>487</ele>
        <time>2021-08-15T08:42:46Z</time>
      </trkpt>
      <trkpt lat="44.00019" lon="3.04575">
        <ele>487.1</ele>
        <time>2021-08-15T08:42:48Z</time>
      </trkpt>
      <trkpt lat="44.0002" lon="3.04561">
        <ele>487.2</ele>
        <time>2021-08-15T08:42:50Z</time>
      </trkpt>
      <trkpt lat="44.0002" lon="3.04547">
        <ele>487</ele>
        <time>2021-08-15T08:42:52Z</time>
      </trkpt>
      <trkpt lat="44.00022" lon="3.04534">
        <ele>487.6</ele>
        <time>2021-08-15T08:42:54Z</time>
      </trkpt>
      <trkpt lat="44.00024" lon="3.04521">
        <ele>488.5</ele>
        <time>2021-08-15T08:42:56Z</time>
      </trkpt>
      <trkpt lat="44.00024" lon="3.04507">
        <ele>488.3</ele>
        <time>2021-08-15T08:42:58Z</time>
      </trkpt>
      <trkpt lat="44.00023" lon="3.04493">
        <ele>487.3</ele>
        <time>2021-08-15T08:43:00Z</time>
      </trkpt>
      <trkpt lat="44.00022" lon="3.04479">
        <ele>486</ele>
        <time>2021-08-15T08:43:02Z</time>
      </trkpt>
      <trkpt lat="44.00022" lon="3.04464">
        <ele>485</ele>
        <time>2021-08-15T08:43:04Z</time>
      </trkpt>
      <trkpt lat="44.00021" lon="3.0445">
        <ele>483.7</ele>
        <time>2021-08-15T08:43:06Z</time>
      </trkpt>
      <trkpt lat="44.00021" lon="3.04434">
        <ele>482.7</ele>
        <time>2021-08-15T08:43:08Z</time>
      </trkpt>
      <trkpt lat="44.00021" lon="3.04418">
        <ele>481.6</ele>
        <time>2021-08-15T08:43:10Z</time>
      </trkpt>
      <trkpt lat="44.00021" lon="3.04401">
        <ele>481.8</ele>
        <time>2021-08-15T08:43:12Z</time>
      </trkpt>
      <trkpt lat="44.00022" lon="3.04384">
        <ele>481.7</ele>
        <time>2021-08-15T08:43:14Z</time>
      </trkpt>
      <trkpt lat="44.00022" lon="3.04367">
        <ele>481.9</ele>
        <time>2021-08-15T08:43:16Z</time>
      </trkpt>
      <trkpt lat="44.00023" lon="3.04349">
        <ele>482.3</ele>
        <time>2021-08-15T08:43:18Z</time>
      </trkpt>
      <trkpt lat="44.00024" lon="3.04332">
        <ele>482.5</ele>
        <time>2021-08-15T08:43:20Z</time>
      </trkpt>
      <trkpt lat="44.00025" lon="3.04315">
        <ele>481.9</ele>
        <time>2021-08-15T08:43:22Z</time>
      </trkpt>
      <trkpt lat="44.00026" lon="3.04297">
        <ele>481.3</ele>
        <time>2021-08-15T08:43:24Z</time>
      </trkpt>
      <trkpt lat="44.00027" lon="3.04281">
        <ele>480.6</ele>
        <time>2021-08-15T08:43:26Z</time>
      </trkpt>
      <trkpt lat="44.00028" lon="3.04265">
        <ele>480</ele>
        <time>2021-08-15T08:43:28Z</time>
      </trkpt>
      <trkpt lat="44.00028" lon="3.04248">
        <ele>479.1</ele>
        <time>2021-08-15T08:43:30Z</time>
      </trkpt>
      <trkpt lat="44.00029" lon="3.04232">
        <ele>478.7</ele>
        <time>2021-08-15T08:43:32Z</time>
      </trkpt>
      <trkpt lat="44.0003" lon="3.04215">
        <ele>478.7</ele>
        <time>2021-08-15T08:43:34Z</time>
      </trkpt>
      <trkpt lat="44.0003" lon="3.04199">
        <ele>478</ele>
        <time>2021-08-15T08:43:36Z</time>
      </trkpt>
      <trkpt lat="44.00029" lon="3.04182">
        <ele>477</ele>
        <time>2021-08-15T08:43:38Z</time>
      </trkpt>
      <trkpt lat="44.00027" lon="3.04166">
        <ele>475.8</ele>
        <time>2021-08-15T08:43:40Z</time>
      </trkpt>
      <trkpt lat="44.00025" lon="3.04149">
        <ele>473.8</ele>
        <time>2021-08-15T08:43:42Z</time>
      </trkpt>
      <trkpt lat="44.00022" lon="3.04132">
        <ele>471.8</ele>
        <time>2021-08-15T08:43:44Z</time>
      </trkpt>
      <trkpt lat="44.00019" lon="3.04116">
        <ele>470</ele>
        <time>2021-08-15T08:43:46Z</time>
      </trkpt>
      <trkpt lat="44.00015" lon="3.04099">
        <ele>468.2</ele>
        <time>2021-08-15T08:43:48Z</time>
      </trkpt>
      <trkpt lat="44.00011" lon="3.04083">
        <ele>466.6</ele>
        <time>2021-08-15T08:43:50Z</time>
      </trkpt>
      <trkpt lat="44.00006" lon="3.04067">
        <ele>465.5</ele>
        <time>2021-08-15T08:43:52Z</time>
      </trkpt>
      <trkpt lat="44.00001" lon="3.04051">
        <ele>464.4</ele>
        <time>2021-08-15T08:43:54Z</time>
      </trkpt>
      <trkpt lat="43.99996" lon="3.04035">
        <ele>463.8</ele>
        <time>2021-08-15T08:43:56Z</time>
      </trkpt>
      <trkpt lat="43.9999" lon="3.04019">
        <ele>463.5</ele>
        <time>2021-08-15T08:43:58Z</time>
      </trkpt>
      <trkpt lat="43.99983" lon="3.04004">
        <ele>463.3</ele>
        <time>2021-08-15T08:44:00Z</time>
      </trkpt>
      <trkpt lat="43.99978" lon="3.03989">
        <ele>464.3</ele>
        <time>2021-08-15T08:44:02Z</time>
      </trkpt>
      <trkpt lat="43.99973" lon="3.03975">
        <ele>465.5</ele>
        <time>2021-08-15T08:44:04Z</time>
      </trkpt>
      <trkpt lat="43.99968" lon="3.0396">
        <ele>466.4</ele>
        <time>2021-08-15T08:44:06Z</time>
      </trkpt>
      <trkpt lat="43.99964" lon="3.03945">
        <ele>467.1</ele>
        <time>2021-08-15T08:44:08Z</time>
      </trkpt>
      <trkpt lat="43.99961" lon="3.03931">
        <ele>467.6</ele>
        <time>2021-08-15T08:44:10Z</time>
      </trkpt>
      <trkpt lat="43.99961" lon="3.03916">
        <ele>468.6</ele>
        <time>2021-08-15T08:44:12Z</time>
      </trkpt>
      <trkpt lat="43.9996" lon="3.03898">
        <ele>469.4</ele>
        <time>2021-08-15T08:44:14Z</time>
      </trkpt>
      <trkpt lat="43.99961" lon="3.03883">
        <ele>470.7</ele>
        <time>2021-08-15T08:44:16Z</time>
      </trkpt>
      <trkpt lat="43.99962" lon="3.03869">
        <ele>471.8</ele>
        <time>2021-08-15T08:44:18Z</time>
      </trkpt>
      <trkpt lat="43.99962" lon="3.03854">
        <ele>472.8</ele>
        <time>2021-08-15T08:44:20Z</time>
      </trkpt>
      <trkpt lat="43.99962" lon="3.03838">
        <ele>473.6</ele>
        <time>2021-08-15T08:44:22Z</time>
      </trkpt>
      <trkpt lat="43.99961" lon="3.03824">
        <ele>474.5</ele>
        <time>2021-08-15T08:44:24Z</time>
      </trkpt>
      <trkpt lat="43.99958" lon="3.03809">
        <ele>474.9</ele>
        <time>2021-08-15T08:44:26Z</time>
      </trkpt>
      <trkpt lat="43.99954" lon="3.03795">
        <ele>474.7</ele>
        <time>2021-08-15T08:44:28Z</time>
      </trkpt>
      <trkpt lat="43.99951" lon="3.03781">
        <ele>474.4</ele>
        <time>2021-08-15T08:44:30Z</time>
      </trkpt>
      <trkpt lat="43.99947" lon="3.03766">
        <ele>473.5</ele>
        <time>2021-08-15T08:44:32Z</time>
      </trkpt>
      <trkpt lat="43.99943" lon="3.03752">
        <ele>472.7</ele>
        <time>2021-08-15T08:44:34Z</time>
      </trkpt>
      <trkpt lat="43.9994" lon="3.03738">
        <ele>472.5</ele>
        <time>2021-08-15T08:44:36Z</time>
      </trkpt>
      <trkpt lat="43.99936" lon="3.03725">
        <ele>472.1</ele>
        <time>2021-08-15T08:44:38Z</time>
      </trkpt>
      <trkpt lat="43.99931" lon="3.03711">
        <ele>471.5</ele>
        <time>2021-08-15T08:44:40Z</time>
      </trkpt>
      <trkpt lat="43.99927" lon="3.03697">
        <ele>470.7</ele>
        <time>2021-08-15T08:44:42Z</time>
      </trkpt>
      <trkpt lat="43.99923" lon="3.03682">
        <ele>469.9</ele>
        <time>2021-08-15T08:44:44Z</time>
      </trkpt>
      <trkpt lat="43.99918" lon="3.03667">
        <ele>468.8</ele>
        <time>2021-08-15T08:44:46Z</time>
      </trkpt>
      <trkpt lat="43.99915" lon="3.03652">
        <ele>469.1</ele>
        <time>2021-08-15T08:44:48Z</time>
      </trkpt>
      <trkpt lat="43.99911" lon="3.03637">
        <ele>470.1</ele>
        <time>2021-08-15T08:44:50Z</time>
      </trkpt>
      <trkpt lat="43.99908" lon="3.03622">
        <ele>470.9</ele>
        <time>2021-08-15T08:44:52Z</time>
      </trkpt>
      <trkpt lat="43.99905" lon="3.03608">
        <ele>471.5</ele>
        <time>2021-08-15T08:44:54Z</time>
      </trkpt>
      <trkpt lat="43.99902" lon="3.03592">
        <ele>471.9</ele>
        <time>2021-08-15T08:44:56Z</time>
      </trkpt>
      <trkpt lat="43.99899" lon="3.03577">
        <ele>472.8</ele>
        <time>2021-08-15T08:44:58Z</time>
      </trkpt>
      <trkpt lat="43.99897" lon="3.03562">
        <ele>474.4</ele>
        <time>2021-08-15T08:45:00Z</time>
      </trkpt>
      <trkpt lat="43.99893" lon="3.03548">
        <ele>475.2</ele>
        <time>2021-08-15T08:45:02Z</time>
      </trkpt>
      <trkpt lat="43.99889" lon="3.03532">
        <ele>475.7</ele>
        <time>2021-08-15T08:45:04Z</time>
      </trkpt>
      <trkpt lat="43.99884" lon="3.03518">
        <ele>475.8</ele>
        <time>2021-08-15T08:45:06Z</time>
      </trkpt>
      <trkpt lat="43.99879" lon="3.03503">
        <ele>475.4</ele>
        <time>2021-08-15T08:45:08Z</time>
      </trkpt>
      <trkpt lat="43.99875" lon="3.03488">
        <ele>475.2</ele>
        <time>2021-08-15T08:45:10Z</time>
      </trkpt>
      <trkpt lat="43.9987" lon="3.03474">
        <ele>474.4</ele>
        <time>2021-08-15T08:45:12Z</time>
      </trkpt>
      <trkpt lat="43.99865" lon="3.03459">
        <ele>473.7</ele>
        <time>2021-08-15T08:45:14Z</time>
      </trkpt>
      <trkpt lat="43.99861" lon="3.03445">
        <ele>473.1</ele>
        <time>2021-08-15T08:45:16Z</time>
      </trkpt>
      <trkpt lat="43.99857" lon="3.03431">
        <ele>472.3</ele>
        <time>2021-08-15T08:45:18Z</time>
      </trkpt>
      <trkpt lat="43.99854" lon="3.03416">
        <ele>471.9</ele>
        <time>2021-08-15T08:45:20Z</time>
      </trkpt>
      <trkpt lat="43.99851" lon="3.03402">
        <ele>470.5</ele>
        <time>2021-08-15T08:45:22Z</time>
      </trkpt>
      <trkpt lat="43.99847" lon="3.03388">
        <ele>468.8</ele>
        <time>2021-08-15T08:45:24Z</time>
      </trkpt>
      <trkpt lat="43.99845" lon="3.03373">
        <ele>468</ele>
        <time>2021-08-15T08:45:26Z</time>
      </trkpt>
      <trkpt lat="43.99844" lon="3.03358">
        <ele>467.4</ele>
        <time>2021-08-15T08:45:28Z</time>
      </trkpt>
      <trkpt lat="43.99842" lon="3.03342">
        <ele>466.8</ele>
        <time>2021-08-15T08:45:30Z</time>
      </trkpt>
      <trkpt lat="43.99842" lon="3.03327">
        <ele>466.6</ele>
        <time>2021-08-15T08:45:32Z</time>
      </trkpt>
      <trkpt lat="43.99841" lon="3.03312">
        <ele>466.1</ele>
        <time>2021-08-15T08:45:34Z</time>
      </trkpt>
      <trkpt lat="43.99841" lon="3.03297">
        <ele>466</ele>
        <time>2021-08-15T08:45:36Z</time>
      </trkpt>
      <trkpt lat="43.99841" lon="3.03283">
        <ele>465.9</ele>
        <time>2021-08-15T08:45:38Z</time>
      </trkpt>
      <trkpt lat="43.99842" lon="3.03267">
        <ele>466.4</ele>
        <time>2021-08-15T08:45:40Z</time>
      </trkpt>
      <trkpt lat="43.99844" lon="3.03253">
        <ele>467.3</ele>
        <time>2021-08-15T08:45:42Z</time>
      </trkpt>
      <trkpt lat="43.99846" lon="3.03238">
        <ele>468.4</ele>
        <time>2021-08-15T08:45:44Z</time>
      </trkpt>
      <trkpt lat="43.99848" lon="3.03223">
        <ele>469.2</ele>
        <time>2021-08-15T08:45:46Z</time>
      </trkpt>
      <trkpt lat="43.9985" lon="3.03208">
        <ele>469.9</ele>
        <time>2021-08-15T08:45:48Z</time>
      </trkpt>
      <trkpt lat="43.99852" lon="3.03194">
        <ele>470.5</ele>
        <time>2021-08-15T08:45:50Z</time>
      </trkpt>
      <trkpt lat="43.99853" lon="3.03179">
        <ele>470.8</ele>
        <time>2021-08-15T08:45:52Z</time>
      </trkpt>
      <trkpt lat="43.99854" lon="3.03165">
        <ele>470.9</ele>
        <time>2021-08-15T08:45:54Z</time>
      </trkpt>
      <trkpt lat="43.99856" lon="3.0315">
        <ele>470.9</ele>
        <time>2021-08-15T08:45:56Z</time>
      </trkpt>
      <trkpt lat="43.99857" lon="3.03135">
        <ele>470.8</ele>
        <time>2021-08-15T08:45:58Z</time>
      </trkpt>
      <trkpt lat="43.99859" lon="3.03119">
        <ele>470.7</ele>
        <time>2021-08-15T08:46:00Z</time>
      </trkpt>
      <trkpt lat="43.99861" lon="3.03104">
        <ele>470.7</ele>
        <time>2021-08-15T08:46:02Z</time>
      </trkpt>
      <trkpt lat="43.99863" lon="3.03089">
        <ele>471</ele>
        <time>2021-08-15T08:46:04Z</time>
      </trkpt>
      <trkpt lat="43.99866" lon="3.03074">
        <ele>471.8</ele>
        <time>2021-08-15T08:46:06Z</time>
      </trkpt>
      <trkpt lat="43.99869" lon="3.0306">
        <ele>472.7</ele>
        <time>2021-08-15T08:46:08Z</time>
      </trkpt>
      <trkpt lat="43.99872" lon="3.03046">
        <ele>473.7</ele>
        <time>2021-08-15T08:46:10Z</time>
      </trkpt>
      <trkpt lat="43.99875" lon="3.03032">
        <ele>474.3</ele>
        <time>2021-08-15T08:46:12Z</time>
      </trkpt>
      <trkpt lat="43.99877" lon="3.03018">
        <ele>475</ele>
        <time>2021-08-15T08:46:14Z</time>
      </trkpt>
      <trkpt lat="43.99879" lon="3.03003">
        <ele>475.3</ele>
        <time>2021-08-15T08:46:16Z</time>
      </trkpt>
      <trkpt lat="43.9988" lon="3.02989">
        <ele>475.7</ele>
        <time>2021-08-15T08:46:18Z</time>
      </trkpt>
      <trkpt lat="43.99882" lon="3.02974">
        <ele>476.2</ele>
        <time>2021-08-15T08:46:20Z</time>
      </trkpt>
      <trkpt lat="43.99882" lon="3.0296">
        <ele>476.4</ele>
        <time>2021-08-15T08:46:22Z</time>
      </trkpt>
      <trkpt lat="43.99882" lon="3.02945">
        <ele>476.3</ele>
        <time>2021-08-15T08:46:24Z</time>
      </trkpt>
      <trkpt lat="43.99881" lon="3.0293">
        <ele>475.9</ele>
        <time>2021-08-15T08:46:26Z</time>
      </trkpt>
      <trkpt lat="43.99879" lon="3.02915">
        <ele>475.2</ele>
        <time>2021-08-15T08:46:28Z</time>
      </trkpt>
      <trkpt lat="43.99879" lon="3.029">
        <ele>474.8</ele>
        <time>2021-08-15T08:46:30Z</time>
      </trkpt>
      <trkpt lat="43.99878" lon="3.02886">
        <ele>474.2</ele>
        <time>2021-08-15T08:46:32Z</time>
      </trkpt>
      <trkpt lat="43.99878" lon="3.02872">
        <ele>473.8</ele>
        <time>2021-08-15T08:46:34Z</time>
      </trkpt>
      <trkpt lat="43.99876" lon="3.02857">
        <ele>473</ele>
        <time>2021-08-15T08:46:36Z</time>
      </trkpt>
      <trkpt lat="43.99875" lon="3.02843">
        <ele>472</ele>
        <time>2021-08-15T08:46:38Z</time>
      </trkpt>
      <trkpt lat="43.99873" lon="3.02828">
        <ele>471.2</ele>
        <time>2021-08-15T08:46:40Z</time>
      </trkpt>
      <trkpt lat="43.9987" lon="3.02813">
        <ele>470.3</ele>
        <time>2021-08-15T08:46:42Z</time>
      </trkpt>
      <trkpt lat="43.99866" lon="3.02798">
        <ele>469.1</ele>
        <time>2021-08-15T08:46:44Z</time>
      </trkpt>
      <trkpt lat="43.99862" lon="3.02784">
        <ele>468</ele>
        <time>2021-08-15T08:46:46Z</time>
      </trkpt>
      <trkpt lat="43.99859" lon="3.02769">
        <ele>467</ele>
        <time>2021-08-15T08:46:48Z</time>
      </trkpt>
      <trkpt lat="43.99856" lon="3.02754">
        <ele>466.1</ele>
        <time>2021-08-15T08:46:50Z</time>
      </trkpt>
      <trkpt lat="43.99854" lon="3.02739">
        <ele>465.7</ele>
        <time>2021-08-15T08:46:52Z</time>
      </trkpt>
      <trkpt lat="43.99854" lon="3.02723">
        <ele>466.3</ele>
        <time>2021-08-15T08:46:54Z</time>
      </trkpt>
      <trkpt lat="43.99854" lon="3.02709">
        <ele>466.9</ele>
        <time>2021-08-15T08:46:56Z</time>
      </trkpt>
      <trkpt lat="43.99854" lon="3.02694">
        <ele>467.5</ele>
        <time>2021-08-15T08:46:58Z</time>
      </trkpt>
      <trkpt lat="43.99854" lon="3.02679">
        <ele>468.2</ele>
        <time>2021-08-15T08:47:00Z</time>
      </trkpt>
      <trkpt lat="43.99854" lon="3.02664">
        <ele>468.6</ele>
        <time>2021-08-15T08:47:02Z</time>
      </trkpt>
      <trkpt lat="43.99853" lon="3.02649">
        <ele>468.3</ele>
        <time>2021-08-15T08:47:04Z</time>
      </trkpt>
      <trkpt lat="43.99852" lon="3.02634">
        <ele>467.9</ele>
        <time>2021-08-15T08:47:06Z</time>
      </trkpt>
      <trkpt lat="43.9985" lon="3.0262">
        <ele>467.3</ele>
        <time>2021-08-15T08:47:08Z</time>
      </trkpt>
      <trkpt lat="43.99848" lon="3.02605">
        <ele>466.1</ele>
        <time>2021-08-15T08:47:10Z</time>
      </trkpt>
      <trkpt lat="43.99846" lon="3.02591">
        <ele>465.1</ele>
        <time>2021-08-15T08:47:12Z</time>
      </trkpt>
      <trkpt lat="43.99843" lon="3.02577">
        <ele>463.3</ele>
        <time>2021-08-15T08:47:14Z</time>
      </trkpt>
      <trkpt lat="43.99842" lon="3.02562">
        <ele>462.5</ele>
        <time>2021-08-15T08:47:16Z</time>
      </trkpt>
      <trkpt lat="43.9984" lon="3.02546">
        <ele>461.3</ele>
        <time>2021-08-15T08:47:18Z</time>
      </trkpt>
      <trkpt lat="43.9984" lon="3.02531">
        <ele>461</ele>
        <time>2021-08-15T08:47:20Z</time>
      </trkpt>
      <trkpt lat="43.9984" lon="3.02516">
        <ele>461</ele>
        <time>2021-08-15T08:47:22Z</time>
      </trkpt>
      <trkpt lat="43.9984" lon="3.02501">
        <ele>461</ele>
        <time>2021-08-15T08:47:24Z</time>
      </trkpt>
      <trkpt lat="43.99842" lon="3.02485">
        <ele>461.7</ele>
        <time>2021-08-15T08:47:26Z</time>
      </trkpt>
      <trkpt lat="43.99844" lon="3.02471">
        <ele>462.7</ele>
        <time>2021-08-15T08:47:28Z</time>
      </trkpt>
      <trkpt lat="43.99846" lon="3.02456">
        <ele>463.7</ele>
        <time>2021-08-15T08:47:30Z</time>
      </trkpt>
      <trkpt lat="43.99849" lon="3.02441">
        <ele>464.7</ele>
        <time>2021-08-15T08:47:32Z</time>
      </trkpt>
      <trkpt lat="43.99851" lon="3.02425">
        <ele>465.3</ele>
        <time>2021-08-15T08:47:34Z</time>
      </trkpt>
      <trkpt lat="43.99854" lon="3.0241">
        <ele>465.9</ele>
        <time>2021-08-15T08:47:36Z</time>
      </trkpt>
      <trkpt lat="43.99856" lon="3.02396">
        <ele>465.9</ele>
        <time>2021-08-15T08:47:38Z</time>
      </trkpt>
      <trkpt lat="43.9986" lon="3.02382">
        <ele>466.1</ele>
        <time>2021-08-15T08:47:40Z</time>
      </trkpt>
      <trkpt lat="43.99863" lon="3.02368">
        <ele>466.1</ele>
        <time>2021-08-15T08:47:42Z</time>
      </trkpt>
      <trkpt lat="43.99866" lon="3.02353">
        <ele>466</ele>
        <time>2021-08-15T08:47:44Z</time>
      </trkpt>
      <trkpt lat="43.9987" lon="3.02339">
        <ele>465.8</ele>
        <time>2021-08-15T08:47:46Z</time>
      </trkpt>
      <trkpt lat="43.99875" lon="3.02325">
        <ele>466</ele>
        <time>2021-08-15T08:47:48Z</time>
      </trkpt>
      <trkpt lat="43.99878" lon="3.02311">
        <ele>465.8</ele>
        <time>2021-08-15T08:47:50Z</time>
      </trkpt>
      <trkpt lat="43.99884" lon="3.02298">
        <ele>465.9</ele>
        <time>2021-08-15T08:47:52Z</time>
      </trkpt>
      <trkpt lat="43.99888" lon="3.02285">
        <ele>465.6</ele>
        <time>2021-08-15T08:47:54Z</time>
      </trkpt>
      <trkpt lat="43.99892" lon="3.02272">
        <ele>465</ele>
        <time>2021-08-15T08:47:56Z</time>
      </trkpt>
      <trkpt lat="43.99896" lon="3.02259">
        <ele>464.4</ele>
        <time>2021-08-15T08:47:58Z</time>
      </trkpt>
      <trkpt lat="43.999" lon="3.02246">
        <ele>463.7</ele>
        <time>2021-08-15T08:48:00Z</time>
      </trkpt>
      <trkpt lat="43.99904" lon="3.02234">
        <ele>463.2</ele>
        <time>2021-08-15T08:48:02Z</time>
      </trkpt>
      <trkpt lat="43.99908" lon="3.02222">
        <ele>462.7</ele>
        <time>2021-08-15T08:48:04Z</time>
      </trkpt>
      <trkpt lat="43.99911" lon="3.02209">
        <ele>461.7</ele>
        <time>2021-08-15T08:48:06Z</time>
      </trkpt>
      <trkpt lat="43.99916" lon="3.02196">
        <ele>460.7</ele>
        <time>2021-08-15T08:48:08Z</time>
      </trkpt>
      <trkpt lat="43.9992" lon="3.02184">
        <ele>460.9</ele>
        <time>2021-08-15T08:48:10Z</time>
      </trkpt>
      <trkpt lat="43.99924" lon="3.02171">
        <ele>461.5</ele>
        <time>2021-08-15T08:48:12Z</time>
      </trkpt>
      <trkpt lat="43.99928" lon="3.02158">
        <ele>462.1</ele>
        <time>2021-08-15T08:48:14Z</time>
      </trkpt>
      <trkpt lat="43.99933" lon="3.02144">
        <ele>462.6</ele>
        <time>2021-08-15T08:48:16Z</time>
      </trkpt>
      <trkpt lat="43.99937" lon="3.02131">
        <ele>463.3</ele>
        <time>2021-08-15T08:48:18Z</time>
      </trkpt>
      <trkpt lat="43.99943" lon="3.02116">
        <ele>463.6</ele>
        <time>2021-08-15T08:48:20Z</time>
      </trkpt>
      <trkpt lat="43.99947" lon="3.02101">
        <ele>463.2</ele>
        <time>2021-08-15T08:48:22Z</time>
      </trkpt>
      <trkpt lat="43.99951" lon="3.02084">
        <ele>462.6</ele>
        <time>2021-08-15T08:48:24Z</time>
      </trkpt>
      <trkpt lat="43.99955" lon="3.02068">
        <ele>462.6</ele>
        <time>2021-08-15T08:48:26Z</time>
      </trkpt>
      <trkpt lat="43.99958" lon="3.02052">
        <ele>462.2</ele>
        <time>2021-08-15T08:48:28Z</time>
      </trkpt>
      <trkpt lat="43.99962" lon="3.02035">
        <ele>461.7</ele>
        <time>2021-08-15T08:48:30Z</time>
      </trkpt>
      <trkpt lat="43.99965" lon="3.02018">
        <ele>461</ele>
        <time>2021-08-15T08:48:32Z</time>
      </trkpt>
      <trkpt lat="43.99965" lon="3.02">
        <ele>459.4</ele>
        <time>2021-08-15T08:48:34Z</time>
      </trkpt>
      <trkpt lat="43.99962" lon="3.01982">
        <ele>458.8</ele>
        <time>2021-08-15T08:48:36Z</time>
      </trkpt>
      <trkpt lat="43.99963" lon="3.01964">
        <ele>459.4</ele>
        <time>2021-08-15T08:48:38Z</time>
      </trkpt>
      <trkpt lat="43.99967" lon="3.01946">
        <ele>461.1</ele>
        <time>2021-08-15T08:48:40Z</time>
      </trkpt>
      <trkpt lat="43.99971" lon="3.0193">
        <ele>462.9</ele>
        <time>2021-08-15T08:48:42Z</time>
      </trkpt>
      <trkpt lat="43.99975" lon="3.01913">
        <ele>464.5</ele>
        <time>2021-08-15T08:48:44Z</time>
      </trkpt>
      <trkpt lat="43.99977" lon="3.01895">
        <ele>465.1</ele>
        <time>2021-08-15T08:48:46Z</time>
      </trkpt>
      <trkpt lat="43.99978" lon="3.01878">
        <ele>465.4</ele>
        <time>2021-08-15T08:48:48Z</time>
      </trkpt>
      <trkpt lat="43.99979" lon="3.0186">
        <ele>465.6</ele>
        <time>2021-08-15T08:48:50Z</time>
      </trkpt>
      <trkpt lat="43.99979" lon="3.01841">
        <ele>465.3</ele>
        <time>2021-08-15T08:48:52Z</time>
      </trkpt>
      <trkpt lat="43.99979" lon="3.01823">
        <ele>464.7</ele>
        <time>2021-08-15T08:48:54Z</time>
      </trkpt>
      <trkpt lat="43.9998" lon="3.01804">
        <ele>463.8</ele>
        <time>2021-08-15T08:48:56Z</time>
      </trkpt>
      <trkpt lat="43.9998" lon="3.01785">
        <ele>462.8</ele>
        <time>2021-08-15T08:48:58Z</time>
      </trkpt>
      <trkpt lat="43.9998" lon="3.01766">
        <ele>461.9</ele>
        <time>2021-08-15T08:49:00Z</time>
      </trkpt>
      <trkpt lat="43.99982" lon="3.01746">
        <ele>461.4</ele>
        <time>2021-08-15T08:49:02Z</time>
      </trkpt>
      <trkpt lat="43.99983" lon="3.01727">
        <ele>461.5</ele>
        <time>2021-08-15T08:49:04Z</time>
      </trkpt>
      <trkpt lat="43.99985" lon="3.01708">
        <ele>461.8</ele>
        <time>2021-08-15T08:49:06Z</time>
      </trkpt>
      <trkpt lat="43.99987" lon="3.01691">
        <ele>462</ele>
        <time>2021-08-15T08:49:08Z</time>
      </trkpt>
      <trkpt lat="43.99989" lon="3.01673">
        <ele>462.2</ele>
        <time>2021-08-15T08:49:10Z</time>
      </trkpt>
      <trkpt lat="43.99992" lon="3.01657">
        <ele>461.3</ele>
        <time>2021-08-15T08:49:12Z</time>
      </trkpt>
      <trkpt lat="43.99994" lon="3.01642">
        <ele>459.8</ele>
        <time>2021-08-15T08:49:14Z</time>
      </trkpt>
      <trkpt lat="43.99996" lon="3.01626">
        <ele>457.8</ele>
        <time>2021-08-15T08:49:16Z</time>
      </trkpt>
      <trkpt lat="43.99997" lon="3.01612">
        <ele>456</ele>
        <time>2021-08-15T08:49:18Z</time>
      </trkpt>
      <trkpt lat="43.99999" lon="3.01598">
        <ele>454.1</ele>
        <time>2021-08-15T08:49:20Z</time>
      </trkpt>
      <trkpt lat="44.00001" lon="3.01584">
        <ele>452.7</ele>
        <time>2021-08-15T08:49:22Z</time>
      </trkpt>
      <trkpt lat="44.00004" lon="3.01571">
        <ele>454.2</ele>
        <time>2021-08-15T08:49:24Z</time>
      </trkpt>
      <trkpt lat="44.00008" lon="3.01559">
        <ele>456</ele>
        <time>2021-08-15T08:49:26Z</time>
      </trkpt>
      <trkpt lat="44.00011" lon="3.01547">
        <ele>457.1</ele>
        <time>2021-08-15T08:49:28Z</time>
      </trkpt>
      <trkpt lat="44.00014" lon="3.01535">
        <ele>458.2</ele>
        <time>2021-08-15T08:49:30Z</time>
      </trkpt>
      <trkpt lat="44.00017" lon="3.01524">
        <ele>459.5</ele>
        <time>2021-08-15T08:49:32Z</time>
      </trkpt>
      <trkpt lat="44.0002" lon="3.01513">
        <ele>460.5</ele>
        <time>2021-08-15T08:49:34Z</time>
      </trkpt>
      <trkpt lat="44.00023" lon="3.01502">
        <ele>461.5</ele>
        <time>2021-08-15T08:49:36Z</time>
      </trkpt>
      <trkpt lat="44.00027" lon="3.01492">
        <ele>462.5</ele>
        <time>2021-08-15T08:49:38Z</time>
      </trkpt>
      <trkpt lat="44.0003" lon="3.0148">
        <ele>462.8</ele>
        <time>2021-08-15T08:49:40Z</time>
      </trkpt>
      <trkpt lat="44.00032" lon="3.01469">
        <ele>463</ele>
        <time>2021-08-15T08:49:42Z</time>
      </trkpt>
      <trkpt lat="44.00035" lon="3.01457">
        <ele>463</ele>
        <time>2021-08-15T08:49:44Z</time>
      </trkpt>
      <trkpt lat="44.00038" lon="3.01444">
        <ele>462.9</ele>
        <time>2021-08-15T08:49:46Z</time>
      </trkpt>
      <trkpt lat="44.00041" lon="3.01432">
        <ele>462.6</ele>
        <time>2021-08-15T08:49:48Z</time>
      </trkpt>
      <trkpt lat="44.00044" lon="3.0142">
        <ele>462.3</ele>
        <time>2021-08-15T08:49:50Z</time>
      </trkpt>
      <trkpt lat="44.00046" lon="3.01408">
        <ele>462.6</ele>
        <time>2021-08-15T08:49:52Z</time>
      </trkpt>
      <trkpt lat="44.00049" lon="3.01396">
        <ele>463</ele>
        <time>2021-08-15T08:49:54Z</time>
      </trkpt>
      <trkpt lat="44.0005" lon="3.01384">
        <ele>463</ele>
        <time>2021-08-15T08:49:56Z</time>
      </trkpt>
      <trkpt lat="44.00052" lon="3.01371">
        <ele>463</ele>
        <time>2021-08-15T08:49:58Z</time>
      </trkpt>
      <trkpt lat="44.00054" lon="3.01359">
        <ele>463.1</ele>
        <time>2021-08-15T08:50:00Z</time>
      </trkpt>
      <trkpt lat="44.00055" lon="3.01346">
        <ele>462.9</ele>
        <time>2021-08-15T08:50:02Z</time>
      </trkpt>
      <trkpt lat="44.00056" lon="3.01333">
        <ele>462.5</ele>
        <time>2021-08-15T08:50:04Z</time>
      </trkpt>
      <trkpt lat="44.00056" lon="3.01319">
        <ele>462.5</ele>
        <time>2021-08-15T08:50:06Z</time>
      </trkpt>
      <trkpt lat="44.00057" lon="3.01305">
        <ele>462.6</ele>
        <time>2021-08-15T08:50:08Z</time>
      </trkpt>
      <trkpt lat="44.00057" lon="3.01291">
        <ele>462.3</ele>
        <time>2021-08-15T08:50:10Z</time>
      </trkpt>
      <trkpt lat="44.00056" lon="3.01277">
        <ele>461.9</ele>
        <time>2021-08-15T08:50:12Z</time>
      </trkpt>
      <trkpt lat="44.00054" lon="3.01263">
        <ele>461.2</ele>
        <time>2021-08-15T08:50:14Z</time>
      </trkpt>
      <trkpt lat="44.00051" lon="3.01249">
        <ele>460.4</ele>
        <time>2021-08-15T08:50:16Z</time>
      </trkpt>
      <trkpt lat="44.00049" lon="3.01234">
        <ele>461.4</ele>
        <time>2021-08-15T08:50:18Z</time>
      </trkpt>
      <trkpt lat="44.00046" lon="3.01219">
        <ele>462</ele>
        <time>2021-08-15T08:50:20Z</time>
      </trkpt>
      <trkpt lat="44.00042" lon="3.01205">
        <ele>462.1</ele>
        <time>2021-08-15T08:50:22Z</time>
      </trkpt>
      <trkpt lat="44.00039" lon="3.01191">
        <ele>462.1</ele>
        <time>2021-08-15T08:50:24Z</time>
      </trkpt>
      <trkpt lat="44.00035" lon="3.01177">
        <ele>461.6</ele>
        <time>2021-08-15T08:50:26Z</time>
      </trkpt>
      <trkpt lat="44.00031" lon="3.01162">
        <ele>461.5</ele>
        <time>2021-08-15T08:50:28Z</time>
      </trkpt>
      <trkpt lat="44.00026" lon="3.01148">
        <ele>461.7</ele>
        <time>2021-08-15T08:50:30Z</time>
      </trkpt>
      <trkpt lat="44.00022" lon="3.01134">
        <ele>462.1</ele>
        <time>2021-08-15T08:50:32Z</time>
      </trkpt>
      <trkpt lat="44.00017" lon="3.01119">
        <ele>462</ele>
        <time>2021-08-15T08:50:34Z</time>
      </trkpt>
      <trkpt lat="44.00012" lon="3.01105">
        <ele>461.4</ele>
        <time>2021-08-15T08:50:36Z</time>
      </trkpt>
      <trkpt lat="44.00006" lon="3.0109">
        <ele>460.3</ele>
        <time>2021-08-15T08:50:38Z</time>
      </trkpt>
      <trkpt lat="44" lon="3.01076">
        <ele>459.2</ele>
        <time>2021-08-15T08:50:40Z</time>
      </trkpt>
      <trkpt lat="43.99995" lon="3.01061">
        <ele>460.1</ele>
        <time>2021-08-15T08:50:42Z</time>
      </trkpt>
      <trkpt lat="43.9999" lon="3.01044">
        <ele>461.3</ele>
        <time>2021-08-15T08:50:44Z</time>
      </trkpt>
      <trkpt lat="43.99986" lon="3.01028">
        <ele>462.2</ele>
        <time>2021-08-15T08:50:46Z</time>
      </trkpt>
      <trkpt lat="43.99982" lon="3.01012">
        <ele>462.8</ele>
        <time>2021-08-15T08:50:48Z</time>
      </trkpt>
      <trkpt lat="43.99977" lon="3.00996">
        <ele>463.3</ele>
        <time>2021-08-15T08:50:50Z</time>
      </trkpt>
      <trkpt lat="43.99972" lon="3.00981">
        <ele>462.9</ele>
        <time>2021-08-15T08:50:52Z</time>
      </trkpt>
      <trkpt lat="43.99966" lon="3.00965">
        <ele>461.9</ele>
        <time>2021-08-15T08:50:54Z</time>
      </trkpt>
      <trkpt lat="43.99961" lon="3.00949">
        <ele>461.1</ele>
        <time>2021-08-15T08:50:56Z</time>
      </trkpt>
      <trkpt lat="43.99957" lon="3.00932">
        <ele>460.5</ele>
        <time>2021-08-15T08:50:58Z</time>
      </trkpt>
      <trkpt lat="43.99953" lon="3.00915">
        <ele>459.8</ele>
        <time>2021-08-15T08:51:00Z</time>
      </trkpt>
      <trkpt lat="43.99948" lon="3.00899">
        <ele>459.1</ele>
        <time>2021-08-15T08:51:02Z</time>
      </trkpt>
      <trkpt lat="43.99943" lon="3.00883">
        <ele>457.9</ele>
        <time>2021-08-15T08:51:04Z</time>
      </trkpt>
      <trkpt lat="43.99939" lon="3.00866">
        <ele>457.4</ele>
        <time>2021-08-15T08:51:06Z</time>
      </trkpt>
      <trkpt lat="43.99936" lon="3.00849">
        <ele>457.9</ele>
        <time>2021-08-15T08:51:08Z</time>
      </trkpt>
      <trkpt lat="43.99934" lon="3.00831">
        <ele>457.9</ele>
        <time>2021-08-15T08:51:10Z</time>
      </trkpt>
      <trkpt lat="43.99932" lon="3.00814">
        <ele>456.7</ele>
        <time>2021-08-15T08:51:12Z</time>
      </trkpt>
      <trkpt lat="43.9993" lon="3.00798">
        <ele>455.7</ele>
        <time>2021-08-15T08:51:14Z</time>
      </trkpt>
      <trkpt lat="43.99929" lon="3.0078">
        <ele>454.9</ele>
        <time>2021-08-15T08:51:16Z</time>
      </trkpt>
      <trkpt lat="43.9993" lon="3.00763">
        <ele>455.1</ele>
        <time>2021-08-15T08:51:18Z</time>
      </trkpt>
      <trkpt lat="43.99932" lon="3.00745">
        <ele>455.7</ele>
        <time>2021-08-15T08:51:20Z</time>
      </trkpt>
      <trkpt lat="43.99936" lon="3.00728">
        <ele>455</ele>
        <time>2021-08-15T08:51:22Z</time>
      </trkpt>
      <trkpt lat="43.99941" lon="3.00711">
        <ele>455.2</ele>
        <time>2021-08-15T08:51:24Z</time>
      </trkpt>
      <trkpt lat="43.99946" lon="3.00695">
        <ele>455.1</ele>
        <time>2021-08-15T08:51:26Z</time>
      </trkpt>
      <trkpt lat="43.99951" lon="3.00678">
        <ele>455</ele>
        <time>2021-08-15T08:51:28Z</time>
      </trkpt>
      <trkpt lat="43.99957" lon="3.00662">
        <ele>454.5</ele>
        <time>2021-08-15T08:51:30Z</time>
      </trkpt>
      <trkpt lat="43.99963" lon="3.00646">
        <ele>454.3</ele>
        <time>2021-08-15T08:51:32Z</time>
      </trkpt>
      <trkpt lat="43.99969" lon="3.0063">
        <ele>453.5</ele>
        <time>2021-08-15T08:51:34Z</time>
      </trkpt>
      <trkpt lat="43.99976" lon="3.00615">
        <ele>452.5</ele>
        <time>2021-08-15T08:51:36Z</time>
      </trkpt>
      <trkpt lat="43.99983" lon="3.006">
        <ele>450.8</ele>
        <time>2021-08-15T08:51:38Z</time>
      </trkpt>
      <trkpt lat="43.9999" lon="3.00586">
        <ele>448.7</ele>
        <time>2021-08-15T08:51:40Z</time>
      </trkpt>
      <trkpt lat="43.99997" lon="3.00572">
        <ele>447.7</ele>
        <time>2021-08-15T08:51:42Z</time>
      </trkpt>
      <trkpt lat="44.00005" lon="3.00559">
        <ele>447.5</ele>
        <time>2021-08-15T08:51:44Z</time>
      </trkpt>
      <trkpt lat="44.00012" lon="3.00546">
        <ele>447.6</ele>
        <time>2021-08-15T08:51:46Z</time>
      </trkpt>
      <trkpt lat="44.00018" lon="3.00532">
        <ele>446.8</ele>
        <time>2021-08-15T08:51:48Z</time>
      </trkpt>
      <trkpt lat="44.00024" lon="3.00518">
        <ele>445.5</ele>
        <time>2021-08-15T08:51:50Z</time>
      </trkpt>
      <trkpt lat="44.0003" lon="3.00503">
        <ele>443.9</ele>
        <time>2021-08-15T08:51:52Z</time>
      </trkpt>
      <trkpt lat="44.00035" lon="3.00488">
        <ele>443.3</ele>
        <time>2021-08-15T08:51:54Z</time>
      </trkpt>
      <trkpt lat="44.00041" lon="3.00474">
        <ele>442.9</ele>
        <time>2021-08-15T08:51:56Z</time>
      </trkpt>
      <trkpt lat="44.00048" lon="3.0046">
        <ele>442.4</ele>
        <time>2021-08-15T08:51:58Z</time>
      </trkpt>
      <trkpt lat="44.00056" lon="3.00447">
        <ele>442.1</ele>
        <time>2021-08-15T08:52:00Z</time>
      </trkpt>
      <trkpt lat="44.00064" lon="3.00436">
        <ele>441.4</ele>
        <time>2021-08-15T08:52:02Z</time>
      </trkpt>
      <trkpt lat="44.0007" lon="3.00421">
        <ele>439.6</ele>
        <time>2021-08-15T08:52:04Z</time>
      </trkpt>
      <trkpt lat="44.00074" lon="3.00404">
        <ele>440.4</ele>
        <time>2021-08-15T08:52:06Z</time>
      </trkpt>
      <trkpt lat="44.00074" lon="3.00387">
        <ele>442</ele>
        <time>2021-08-15T08:52:08Z</time>
      </trkpt>
      <trkpt lat="44.00073" lon="3.0037">
        <ele>443.6</ele>
        <time>2021-08-15T08:52:10Z</time>
      </trkpt>
      <trkpt lat="44.00073" lon="3.00352">
        <ele>445.2</ele>
        <time>2021-08-15T08:52:12Z</time>
      </trkpt>
      <trkpt lat="44.00072" lon="3.00335">
        <ele>446.6</ele>
        <time>2021-08-15T08:52:14Z</time>
      </trkpt>
      <trkpt lat="44.0007" lon="3.00318">
        <ele>447.2</ele>
        <time>2021-08-15T08:52:16Z</time>
      </trkpt>
      <trkpt lat="44.00069" lon="3.003">
        <ele>447.8</ele>
        <time>2021-08-15T08:52:18Z</time>
      </trkpt>
      <trkpt lat="44.00066" lon="3.00282">
        <ele>447.9</ele>
        <time>2021-08-15T08:52:20Z</time>
      </trkpt>
      <trkpt lat="44.00062" lon="3.00264">
        <ele>447.9</ele>
        <time>2021-08-15T08:52:22Z</time>
      </trkpt>
      <trkpt lat="44.00059" lon="3.00246">
        <ele>447.7</ele>
        <time>2021-08-15T08:52:24Z</time>
      </trkpt>
      <trkpt lat="44.00055" lon="3.00228">
        <ele>447.8</ele>
        <time>2021-08-15T08:52:26Z</time>
      </trkpt>
      <trkpt lat="44.00052" lon="3.00211">
        <ele>447.7</ele>
        <time>2021-08-15T08:52:28Z</time>
      </trkpt>
      <trkpt lat="44.00048" lon="3.00193">
        <ele>447.4</ele>
        <time>2021-08-15T08:52:30Z</time>
      </trkpt>
      <trkpt lat="44.00045" lon="3.00175">
        <ele>447.2</ele>
        <time>2021-08-15T08:52:32Z</time>
      </trkpt>
      <trkpt lat="44.00043" lon="3.00156">
        <ele>447.2</ele>
        <time>2021-08-15T08:52:34Z</time>
      </trkpt>
      <trkpt lat="44.00041" lon="3.00137">
        <ele>446.9</ele>
        <time>2021-08-15T08:52:36Z</time>
      </trkpt>
      <trkpt lat="44.00039" lon="3.00119">
        <ele>446.4</ele>
        <time>2021-08-15T08:52:38Z</time>
      </trkpt>
      <trkpt lat="44.00036" lon="3.001">
        <ele>445.8</ele>
        <time>2021-08-15T08:52:40Z</time>
      </trkpt>
      <trkpt lat="44.00034" lon="3.00082">
        <ele>445</ele>
        <time>2021-08-15T08:52:42Z</time>
      </trkpt>
      <trkpt lat="44.00032" lon="3.00063">
        <ele>445.2</ele>
        <time>2021-08-15T08:52:44Z</time>
      </trkpt>
      <trkpt lat="44.00031" lon="3.00045">
        <ele>445.5</ele>
        <time>2021-08-15T08:52:46Z</time>
      </trkpt>
      <trkpt lat="44.00029" lon="3.00028">
        <ele>445.7</ele>
        <time>2021-08-15T08:52:48Z</time>
      </trkpt>
      <trkpt lat="44.00028" lon="3.0001">
        <ele>446.1</ele>
        <time>2021-08-15T08:52:50Z</time>
      </trkpt>
      <trkpt lat="44.00028" lon="2.99992">
        <ele>446.8</ele>
        <time>2021-08-15T08:52:52Z</time>
      </trkpt>
      <trkpt lat="44.00027" lon="2.99974">
        <ele>447.7</ele>
        <time>2021-08-15T08:52:54Z</time>
      </trkpt>
      <trkpt lat="44.00027" lon="2.99957">
        <ele>448.9</ele>
        <time>2021-08-15T08:52:56Z</time>
      </trkpt>
      <trkpt lat="44.00027" lon="2.99939">
        <ele>449.9</ele>
        <time>2021-08-15T08:52:58Z</time>
      </trkpt>
      <trkpt lat="44.00025" lon="2.9992">
        <ele>450.3</ele>
        <time>2021-08-15T08:53:00Z</time>
      </trkpt>
      <trkpt lat="44.00023" lon="2.99903">
        <ele>449.7</ele>
        <time>2021-08-15T08:53:02Z</time>
      </trkpt>
      <trkpt lat="44.00019" lon="2.99886">
        <ele>448.1</ele>
        <time>2021-08-15T08:53:04Z</time>
      </trkpt>
      <trkpt lat="44.00014" lon="2.9987">
        <ele>446.4</ele>
        <time>2021-08-15T08:53:06Z</time>
      </trkpt>
      <trkpt lat="44.00011" lon="2.99853">
        <ele>444.8</ele>
        <time>2021-08-15T08:53:08Z</time>
      </trkpt>
      <trkpt lat="44.00007" lon="2.99835">
        <ele>443.4</ele>
        <time>2021-08-15T08:53:10Z</time>
      </trkpt>
      <trkpt lat="44.00003" lon="2.99819">
        <ele>441.3</ele>
        <time>2021-08-15T08:53:12Z</time>
      </trkpt>
      <trkpt lat="43.99999" lon="2.99801">
        <ele>439.7</ele>
        <time>2021-08-15T08:53:14Z</time>
      </trkpt>
      <trkpt lat="43.99998" lon="2.99781">
        <ele>440</ele>
        <time>2021-08-15T08:53:16Z</time>
      </trkpt>
      <trkpt lat="43.99996" lon="2.99762">
        <ele>440.2</ele>
        <time>2021-08-15T08:53:18Z</time>
      </trkpt>
      <trkpt lat="43.99995" lon="2.99743">
        <ele>440.3</ele>
        <time>2021-08-15T08:53:20Z</time>
      </trkpt>
      <trkpt lat="43.99994" lon="2.99724">
        <ele>440.2</ele>
        <time>2021-08-15T08:53:22Z</time>
      </trkpt>
      <trkpt lat="43.99994" lon="2.99705">
        <ele>440.2</ele>
        <time>2021-08-15T08:53:24Z</time>
      </trkpt>
      <trkpt lat="43.99996" lon="2.99686">
        <ele>440.4</ele>
        <time>2021-08-15T08:53:26Z</time>
      </trkpt>
      <trkpt lat="43.99997" lon="2.99667">
        <ele>440.6</ele>
        <time>2021-08-15T08:53:28Z</time>
      </trkpt>
      <trkpt lat="43.99997" lon="2.99649">
        <ele>440.2</ele>
        <time>2021-08-15T08:53:30Z</time>
      </trkpt>
      <trkpt lat="43.99997" lon="2.99629">
        <ele>439.7</ele>
        <time>2021-08-15T08:53:32Z</time>
      </trkpt>
      <trkpt lat="43.99995" lon="2.9961">
        <ele>439.2</ele>
        <time>2021-08-15T08:53:34Z</time>
      </trkpt>
      <trkpt lat="43.99993" lon="2.99591">
        <ele>438.7</ele>
        <time>2021-08-15T08:53:36Z</time>
      </trkpt>
      <trkpt lat="43.99991" lon="2.9957">
        <ele>437.8</ele>
        <time>2021-08-15T08:53:38Z</time>
      </trkpt>
      <trkpt lat="43.99992" lon="2.9955">
        <ele>436.8</ele>
        <time>2021-08-15T08:53:40Z</time>
      </trkpt>
      <trkpt lat="43.99995" lon="2.9953">
        <ele>435.7</ele>
        <time>2021-08-15T08:53:42Z</time>
      </trkpt>
      <trkpt lat="43.99995" lon="2.99509">
        <ele>434.6</ele>
        <time>2021-08-15T08:53:44Z</time>
      </trkpt>
      <trkpt lat="43.99997" lon="2.9949">
        <ele>433.6</ele>
        <time>2021-08-15T08:53:46Z</time>
      </trkpt>
      <trkpt lat="44" lon="2.9947">
        <ele>432.6</ele>
        <time>2021-08-15T08:53:48Z</time>
      </trkpt>
      <trkpt lat="44.00005" lon="2.99451">
        <ele>433.4</ele>
        <time>2021-08-15T08:53:50Z</time>
      </trkpt>
      <trkpt lat="44.00011" lon="2.99432">
        <ele>434.5</ele>
        <time>2021-08-15T08:53:52Z</time>
      </trkpt>
      <trkpt lat="44.00019" lon="2.99417">
        <ele>435.8</ele>
        <time>2021-08-15T08:53:54Z</time>
      </trkpt>
      <trkpt lat="44.0003" lon="2.99405">
        <ele>437.8</ele>
        <time>2021-08-15T08:53:56Z</time>
      </trkpt>
      <trkpt lat="44.0004" lon="2.99394">
        <ele>439.2</ele>
        <time>2021-08-15T08:53:58Z</time>
      </trkpt>
      <trkpt lat="44.0005" lon="2.99383">
        <ele>440.3</ele>
        <time>2021-08-15T08:54:00Z</time>
      </trkpt>
      <trkpt lat="44.00059" lon="2.99372">
        <ele>440.9</ele>
        <time>2021-08-15T08:54:02Z</time>
      </trkpt>
      <trkpt lat="44.00066" lon="2.99361">
        <ele>440.6</ele>
        <time>2021-08-15T08:54:04Z</time>
      </trkpt>
      <trkpt lat="44.00073" lon="2.99349">
        <ele>440.1</ele>
        <time>2021-08-15T08:54:06Z</time>
      </trkpt>
      <trkpt lat="44.00079" lon="2.99336">
        <ele>438.7</ele>
        <time>2021-08-15T08:54:08Z</time>
      </trkpt>
      <trkpt lat="44.00085" lon="2.99323">
        <ele>438.6</ele>
        <time>2021-08-15T08:54:10Z</time>
      </trkpt>
      <trkpt lat="44.00089" lon="2.99308">
        <ele>438.8</ele>
        <time>2021-08-15T08:54:12Z</time>
      </trkpt>
      <trkpt lat="44.00093" lon="2.99293">
        <ele>438.6</ele>
        <time>2021-08-15T08:54:14Z</time>
      </trkpt>
      <trkpt lat="44.00095" lon="2.99278">
        <ele>437.7</ele>
        <time>2021-08-15T08:54:16Z</time>
      </trkpt>
      <trkpt lat="44.00097" lon="2.99262">
        <ele>436.2</ele>
        <time>2021-08-15T08:54:18Z</time>
      </trkpt>
      <trkpt lat="44.00099" lon="2.99246">
        <ele>435</ele>
        <time>2021-08-15T08:54:20Z</time>
      </trkpt>
      <trkpt lat="44.00101" lon="2.99231">
        <ele>435.8</ele>
        <time>2021-08-15T08:54:22Z</time>
      </trkpt>
      <trkpt lat="44.00103" lon="2.99215">
        <ele>436.8</ele>
        <time>2021-08-15T08:54:24Z</time>
      </trkpt>
      <trkpt lat="44.00105" lon="2.99199">
        <ele>437.5</ele>
        <time>2021-08-15T08:54:26Z</time>
      </trkpt>
      <trkpt lat="44.00107" lon="2.99183">
        <ele>438.2</ele>
        <time>2021-08-15T08:54:28Z</time>
      </trkpt>
      <trkpt lat="44.00107" lon="2.99168">
        <ele>438.1</ele>
        <time>2021-08-15T08:54:30Z</time>
      </trkpt>
      <trkpt lat="44.00108" lon="2.99154">
        <ele>439.2</ele>
        <time>2021-08-15T08:54:32Z</time>
      </trkpt>
      <trkpt lat="44.00108" lon="2.99141">
        <ele>439.6</ele>
        <time>2021-08-15T08:54:34Z</time>
      </trkpt>
      <trkpt lat="44.00108" lon="2.99129">
        <ele>440.2</ele>
        <time>2021-08-15T08:54:36Z</time>
      </trkpt>
      <trkpt lat="44.00108" lon="2.99118">
        <ele>440.9</ele>
        <time>2021-08-15T08:54:38Z</time>
      </trkpt>
      <trkpt lat="44.00108" lon="2.99108">
        <ele>441.1</ele>
        <time>2021-08-15T08:54:40Z</time>
      </trkpt>
      <trkpt lat="44.00109" lon="2.99097">
        <ele>441.9</ele>
        <time>2021-08-15T08:54:42Z</time>
      </trkpt>
      <trkpt lat="44.00108" lon="2.99087">
        <ele>442</ele>
        <time>2021-08-15T08:54:44Z</time>
      </trkpt>
      <trkpt lat="44.00108" lon="2.99076">
        <ele>442.4</ele>
        <time>2021-08-15T08:54:46Z</time>
      </trkpt>
      <trkpt lat="44.00107" lon="2.99066">
        <ele>442.9</ele>
        <time>2021-08-15T08:54:48Z</time>
      </trkpt>
      <trkpt lat="44.00106" lon="2.99056">
        <ele>442.8</ele>
        <time>2021-08-15T08:54:50Z</time>
      </trkpt>
      <trkpt lat="44.00104" lon="2.99046">
        <ele>442.3</ele>
        <time>2021-08-15T08:54:52Z</time>
      </trkpt>
      <trkpt lat="44.00102" lon="2.99037">
        <ele>442</ele>
        <time>2021-08-15T08:54:54Z</time>
      </trkpt>
      <trkpt lat="44.001" lon="2.99028">
        <ele>441.5</ele>
        <time>2021-08-15T08:54:56Z</time>
      </trkpt>
      <trkpt lat="44.001" lon="2.99021">
        <ele>441.6</ele>
        <time>2021-08-15T08:54:58Z</time>
      </trkpt>
      <trkpt lat="44.00098" lon="2.9901">
        <ele>441.3</ele>
        <time>2021-08-15T08:55:00Z</time>
      </trkpt>
      <trkpt lat="44.00095" lon="2.98999">
        <ele>440.4</ele>
        <time>2021-08-15T08:55:02Z</time>
      </trkpt>
      <trkpt lat="44.00094" lon="2.98988">
        <ele>440.9</ele>
        <time>2021-08-15T08:55:04Z</time>
      </trkpt>
      <trkpt lat="44.00089" lon="2.98977">
        <ele>439.5</ele>
        <time>2021-08-15T08:55:06Z</time>
      </trkpt>
      <trkpt lat="44.00085" lon="2.98966">
        <ele>438.6</ele>
        <time>2021-08-15T08:55:08Z</time>
      </trkpt>
      <trkpt lat="44.0008" lon="2.98954">
        <ele>438.5</ele>
        <time>2021-08-15T08:55:10Z</time>
      </trkpt>
      <trkpt lat="44.00074" lon="2.98941">
        <ele>438.7</ele>
        <time>2021-08-15T08:55:12Z</time>
      </trkpt>
      <trkpt lat="44.00068" lon="2.9893">
        <ele>438.7</ele>
        <time>2021-08-15T08:55:14Z</time>
      </trkpt>
      <trkpt lat="44.00062" lon="2.98917">
        <ele>438.5</ele>
        <time>2021-08-15T08:55:16Z</time>
      </trkpt>
      <trkpt lat="44.00055" lon="2.98906">
        <ele>438.7</ele>
        <time>2021-08-15T08:55:18Z</time>
      </trkpt>
      <trkpt lat="44.00049" lon="2.98892">
        <ele>439.1</ele>
        <time>2021-08-15T08:55:20Z</time>
      </trkpt>
      <trkpt lat="44.00043" lon="2.98879">
        <ele>439.2</ele>
        <time>2021-08-15T08:55:22Z</time>
      </trkpt>
      <trkpt lat="44.00035" lon="2.98866">
        <ele>438</ele>
        <time>2021-08-15T08:55:24Z</time>
      </trkpt>
      <trkpt lat="44.00027" lon="2.98855">
        <ele>435.9</ele>
        <time>2021-08-15T08:55:26Z</time>
      </trkpt>
      <trkpt lat="44.0002" lon="2.9884">
        <ele>434.6</ele>
        <time>2021-08-15T08:55:28Z</time>
      </trkpt>
      <trkpt lat="44.00014" lon="2.98827">
        <ele>433.5</ele>
        <time>2021-08-15T08:55:30Z</time>
      </trkpt>
      <trkpt lat="44.00007" lon="2.98814">
        <ele>432.5</ele>
        <time>2021-08-15T08:55:32Z</time>
      </trkpt>
      <trkpt lat="44" lon="2.988">
        <ele>431.8</ele>
        <time>2021-08-15T08:55:34Z</time>
      </trkpt>
      <trkpt lat="43.99995" lon="2.98786">
        <ele>433.1</ele>
        <time>2021-08-15T08:55:36Z</time>
      </trkpt>
      <trkpt lat="43.99988" lon="2.98771">
        <ele>434.1</ele>
        <time>2021-08-15T08:55:38Z</time>
      </trkpt>
      <trkpt lat="43.99983" lon="2.98758">
        <ele>434.8</ele>
        <time>2021-08-15T08:55:40Z</time>
      </trkpt>
      <trkpt lat="43.99977" lon="2.98743">
        <ele>435.8</ele>
        <time>2021-08-15T08:55:42Z</time>
      </trkpt>
      <trkpt lat="43.9997" lon="2.98729">
        <ele>436.2</ele>
        <time>2021-08-15T08:55:44Z</time>
      </trkpt>
      <trkpt lat="43.99964" lon="2.98714">
        <ele>436.5</ele>
        <time>2021-08-15T08:55:46Z</time>
      </trkpt>
      <trkpt lat="43.99958" lon="2.98698">
        <ele>436.9</ele>
        <time>2021-08-15T08:55:48Z</time>
      </trkpt>
      <trkpt lat="43.99953" lon="2.98683">
        <ele>436.8</ele>
        <time>2021-08-15T08:55:50Z</time>
      </trkpt>
      <trkpt lat="43.99947" lon="2.98665">
        <ele>436.6</ele>
        <time>2021-08-15T08:55:52Z</time>
      </trkpt>
      <trkpt lat="43.99941" lon="2.98651">
        <ele>436</ele>
        <time>2021-08-15T08:55:54Z</time>
      </trkpt>
      <trkpt lat="43.99935" lon="2.98635">
        <ele>436</ele>
        <time>2021-08-15T08:55:56Z</time>
      </trkpt>
      <trkpt lat="43.99929" lon="2.98619">
        <ele>435.5</ele>
        <time>2021-08-15T08:55:58Z</time>
      </trkpt>
      <trkpt lat="43.99924" lon="2.98604">
        <ele>435</ele>
        <time>2021-08-15T08:56:00Z</time>
      </trkpt>
      <trkpt lat="43.99918" lon="2.98589">
        <ele>434</ele>
        <time>2021-08-15T08:56:02Z</time>
      </trkpt>
      <trkpt lat="43.99913" lon="2.98574">
        <ele>434.2</ele>
        <time>2021-08-15T08:56:04Z</time>
      </trkpt>
      <trkpt lat="43.99907" lon="2.98559">
        <ele>434.5</ele>
        <time>2021-08-15T08:56:06Z</time>
      </trkpt>
      <trkpt lat="43.99903" lon="2.98543">
        <ele>434.9</ele>
        <time>2021-08-15T08:56:08Z</time>
      </trkpt>
      <trkpt lat="43.99899" lon="2.98527">
        <ele>435.2</ele>
        <time>2021-08-15T08:56:10Z</time>
      </trkpt>
      <trkpt lat="43.99896" lon="2.9851">
        <ele>435.6</ele>
        <time>2021-08-15T08:56:12Z</time>
      </trkpt>
      <trkpt lat="43.99892" lon="2.98493">
        <ele>435.8</ele>
        <time>2021-08-15T08:56:14Z</time>
      </trkpt>
      <trkpt lat="43.99889" lon="2.98477">
        <ele>436.3</ele>
        <time>2021-08-15T08:56:16Z</time>
      </trkpt>
      <trkpt lat="43.99885" lon="2.98461">
        <ele>436.5</ele>
        <time>2021-08-15T08:56:18Z</time>
      </trkpt>
      <trkpt lat="43.99883" lon="2.98445">
        <ele>436.8</ele>
        <time>2021-08-15T08:56:20Z</time>
      </trkpt>
      <trkpt lat="43.99879" lon="2.98428">
        <ele>436.9</ele>
        <time>2021-08-15T08:56:22Z</time>
      </trkpt>
      <trkpt lat="43.99876" lon="2.98413">
        <ele>436.7</ele>
        <time>2021-08-15T08:56:24Z</time>
      </trkpt>
      <trkpt lat="43.99872" lon="2.98397">
        <ele>436.2</ele>
        <time>2021-08-15T08:56:26Z</time>
      </trkpt>
      <trkpt lat="43.99868" lon="2.98382">
        <ele>435.3</ele>
        <time>2021-08-15T08:56:28Z</time>
      </trkpt>
      <trkpt lat="43.99863" lon="2.98366">
        <ele>434.2</ele>
        <time>2021-08-15T08:56:30Z</time>
      </trkpt>
      <trkpt lat="43.99859" lon="2.98351">
        <ele>433.5</ele>
        <time>2021-08-15T08:56:32Z</time>
      </trkpt>
      <trkpt lat="43.99856" lon="2.98335">
        <ele>433</ele>
        <time>2021-08-15T08:56:34Z</time>
      </trkpt>
      <trkpt lat="43.99853" lon="2.98318">
        <ele>431.6</ele>
        <time>2021-08-15T08:56:36Z</time>
      </trkpt>
      <trkpt lat="43.99852" lon="2.98301">
        <ele>430.9</ele>
        <time>2021-08-15T08:56:38Z</time>
      </trkpt>
      <trkpt lat="43.99853" lon="2.98283">
        <ele>431.1</ele>
        <time>2021-08-15T08:56:40Z</time>
      </trkpt>
      <trkpt lat="43.99855" lon="2.98268">
        <ele>431.3</ele>
        <time>2021-08-15T08:56:42Z</time>
      </trkpt>
      <trkpt lat="43.99857" lon="2.9825">
        <ele>431.8</ele>
        <time>2021-08-15T08:56:44Z</time>
      </trkpt>
      <trkpt lat="43.99859" lon="2.98235">
        <ele>432</ele>
        <time>2021-08-15T08:56:46Z</time>
      </trkpt>
      <trkpt lat="43.99861" lon="2.98219">
        <ele>432.2</ele>
        <time>2021-08-15T08:56:48Z</time>
      </trkpt>
      <trkpt lat="43.99863" lon="2.98205">
        <ele>432.3</ele>
        <time>2021-08-15T08:56:50Z</time>
      </trkpt>
      <trkpt lat="43.99866" lon="2.9819">
        <ele>432.6</ele>
        <time>2021-08-15T08:56:52Z</time>
      </trkpt>
      <trkpt lat="43.99868" lon="2.98176">
        <ele>432.7</ele>
        <time>2021-08-15T08:56:54Z</time>
      </trkpt>
      <trkpt lat="43.9987" lon="2.98162">
        <ele>432.9</ele>
        <time>2021-08-15T08:56:56Z</time>
      </trkpt>
      <trkpt lat="43.99872" lon="2.98147">
        <ele>433.3</ele>
        <time>2021-08-15T08:56:58Z</time>
      </trkpt>
      <trkpt lat="43.99874" lon="2.98134">
        <ele>433.6</ele>
        <time>2021-08-15T08:57:00Z</time>
      </trkpt>
      <trkpt lat="43.99877" lon="2.98119">
        <ele>433.8</ele>
        <time>2021-08-15T08:57:02Z</time>
      </trkpt>
      <trkpt lat="43.99879" lon="2.98105">
        <ele>434.2</ele>
        <time>2021-08-15T08:57:04Z</time>
      </trkpt>
      <trkpt lat="43.99882" lon="2.9809">
        <ele>434.6</ele>
        <time>2021-08-15T08:57:06Z</time>
      </trkpt>
      <trkpt lat="43.99885" lon="2.98076">
        <ele>434.6</ele>
        <time>2021-08-15T08:57:08Z</time>
      </trkpt>
      <trkpt lat="43.99889" lon="2.98062">
        <ele>434.5</ele>
        <time>2021-08-15T08:57:10Z</time>
      </trkpt>
      <trkpt lat="43.99892" lon="2.98048">
        <ele>434.4</ele>
        <time>2021-08-15T08:57:12Z</time>
      </trkpt>
      <trkpt lat="43.99896" lon="2.98034">
        <ele>434.1</ele>
        <time>2021-08-15T08:57:14Z</time>
      </trkpt>
      <trkpt lat="43.99899" lon="2.98019">
        <ele>433.5</ele>
        <time>2021-08-15T08:57:16Z</time>
      </trkpt>
      <trkpt lat="43.99903" lon="2.98005">
        <ele>432.9</ele>
        <time>2021-08-15T08:57:18Z</time>
      </trkpt>
      <trkpt lat="43.99907" lon="2.97991">
        <ele>432</ele>
        <time>2021-08-15T08:57:20Z</time>
      </trkpt>
      <trkpt lat="43.9991" lon="2.97978">
        <ele>430.8</ele>
        <time>2021-08-15T08:57:22Z</time>
      </trkpt>
      <trkpt lat="43.99914" lon="2.97966">
        <ele>429.6</ele>
        <time>2021-08-15T08:57:24Z</time>
      </trkpt>
      <trkpt lat="43.99917" lon="2.97954">
        <ele>428.3</ele>
        <time>2021-08-15T08:57:26Z</time>
      </trkpt>
      <trkpt lat="43.9992" lon="2.97943">
        <ele>428.8</ele>
        <time>2021-08-15T08:57:28Z</time>
      </trkpt>
      <trkpt lat="43.99924" lon="2.9793">
        <ele>429.3</ele>
        <time>2021-08-15T08:57:30Z</time>
      </trkpt>
      <trkpt lat="43.99928" lon="2.97917">
        <ele>429.4</ele>
        <time>2021-08-15T08:57:32Z</time>
      </trkpt>
      <trkpt lat="43.99931" lon="2.97904">
        <ele>430.3</ele>
        <time>2021-08-15T08:57:34Z</time>
      </trkpt>
      <trkpt lat="43.99936" lon="2.97892">
        <ele>431.5</ele>
        <time>2021-08-15T08:57:36Z</time>
      </trkpt>
      <trkpt lat="43.99939" lon="2.97879">
        <ele>432.2</ele>
        <time>2021-08-15T08:57:38Z</time>
      </trkpt>
      <trkpt lat="43.99943" lon="2.97866">
        <ele>433</ele>
        <time>2021-08-15T08:57:40Z</time>
      </trkpt>
      <trkpt lat="43.99946" lon="2.97853">
        <ele>433.3</ele>
        <time>2021-08-15T08:57:42Z</time>
      </trkpt>
      <trkpt lat="43.99949" lon="2.9784">
        <ele>433.2</ele>
        <time>2021-08-15T08:57:44Z</time>
      </trkpt>
      <trkpt lat="43.99951" lon="2.97827">
        <ele>433</ele>
        <time>2021-08-15T08:57:46Z</time>
      </trkpt>
      <trkpt lat="43.99953" lon="2.97814">
        <ele>433.3</ele>
        <time>2021-08-15T08:57:48Z</time>
      </trkpt>
      <trkpt lat="43.99955" lon="2.97801">
        <ele>433.3</ele>
        <time>2021-08-15T08:57:50Z</time>
      </trkpt>
      <trkpt lat="43.99957" lon="2.97788">
        <ele>433.2</ele>
        <time>2021-08-15T08:57:52Z</time>
      </trkpt>
      <trkpt lat="43.99958" lon="2.97774">
        <ele>432.9</ele>
        <time>2021-08-15T08:57:54Z</time>
      </trkpt>
      <trkpt lat="43.99959" lon="2.97761">
        <ele>432.5</ele>
        <time>2021-08-15T08:57:56Z</time>
      </trkpt>
      <trkpt lat="43.9996" lon="2.97748">
        <ele>432.3</ele>
        <time>2021-08-15T08:57:58Z</time>
      </trkpt>
      <trkpt lat="43.99961" lon="2.97735">
        <ele>432.8</ele>
        <time>2021-08-15T08:58:00Z</time>
      </trkpt>
      <trkpt lat="43.99962" lon="2.97721">
        <ele>433.1</ele>
        <time>2021-08-15T08:58:02Z</time>
      </trkpt>
      <trkpt lat="43.99961" lon="2.97708">
        <ele>433.3</ele>
        <time>2021-08-15T08:58:04Z</time>
      </trkpt>
      <trkpt lat="43.99962" lon="2.97696">
        <ele>433.7</ele>
        <time>2021-08-15T08:58:06Z</time>
      </trkpt>
      <trkpt lat="43.99963" lon="2.97682">
        <ele>434.1</ele>
        <time>2021-08-15T08:58:08Z</time>
      </trkpt>
      <trkpt lat="43.99962" lon="2.97668">
        <ele>434.2</ele>
        <time>2021-08-15T08:58:10Z</time>
      </trkpt>
      <trkpt lat="43.99961" lon="2.97655">
        <ele>434.3</ele>
        <time>2021-08-15T08:58:12Z</time>
      </trkpt>
      <trkpt lat="43.9996" lon="2.97641">
        <ele>434.4</ele>
        <time>2021-08-15T08:58:14Z</time>
      </trkpt>
      <trkpt lat="43.99958" lon="2.97627">
        <ele>434.4</ele>
        <time>2021-08-15T08:58:16Z</time>
      </trkpt>
      <trkpt lat="43.99956" lon="2.97613">
        <ele>434.1</ele>
        <time>2021-08-15T08:58:18Z</time>
      </trkpt>
      <trkpt lat="43.99954" lon="2.976">
        <ele>433.5</ele>
        <time>2021-08-15T08:58:20Z</time>
      </trkpt>
      <trkpt lat="43.99952" lon="2.97584">
        <ele>433.2</ele>
        <time>2021-08-15T08:58:22Z</time>
      </trkpt>
      <trkpt lat="43.9995" lon="2.97569">
        <ele>433.3</ele>
        <time>2021-08-15T08:58:24Z</time>
      </trkpt>
      <trkpt lat="43.99948" lon="2.97553">
        <ele>433.5</ele>
        <time>2021-08-15T08:58:26Z</time>
      </trkpt>
      <trkpt lat="43.99946" lon="2.97537">
        <ele>433.5</ele>
        <time>2021-08-15T08:58:28Z</time>
      </trkpt>
      <trkpt lat="43.99944" lon="2.97521">
        <ele>433.3</ele>
        <time>2021-08-15T08:58:30Z</time>
      </trkpt>
      <trkpt lat="43.99941" lon="2.97504">
        <ele>433</ele>
        <time>2021-08-15T08:58:32Z</time>
      </trkpt>
      <trkpt lat="43.9994" lon="2.97487">
        <ele>432.7</ele>
        <time>2021-08-15T08:58:34Z</time>
      </trkpt>
      <trkpt lat="43.99937" lon="2.9747">
        <ele>431.5</ele>
        <time>2021-08-15T08:58:36Z</time>
      </trkpt>
      <trkpt lat="43.99935" lon="2.97453">
        <ele>430.6</ele>
        <time>2021-08-15T08:58:38Z</time>
      </trkpt>
      <trkpt lat="43.99932" lon="2.97436">
        <ele>429.3</ele>
        <time>2021-08-15T08:58:40Z</time>
      </trkpt>
      <trkpt lat="43.9993" lon="2.97418">
        <ele>428.6</ele>
        <time>2021-08-15T08:58:42Z</time>
      </trkpt>
      <trkpt lat="43.99928" lon="2.97401">
        <ele>427.5</ele>
        <time>2021-08-15T08:58:44Z</time>
      </trkpt>
      <trkpt lat="43.99928" lon="2.97383">
        <ele>427</ele>
        <time>2021-08-15T08:58:46Z</time>
      </trkpt>
      <trkpt lat="43.99928" lon="2.97364">
        <ele>426.9</ele>
        <time>2021-08-15T08:58:48Z</time>
      </trkpt>
      <trkpt lat="43.99929" lon="2.97346">
        <ele>427.1</ele>
        <time>2021-08-15T08:58:50Z</time>
      </trkpt>
      <trkpt lat="43.99931" lon="2.97328">
        <ele>427.1</ele>
        <time>2021-08-15T08:58:52Z</time>
      </trkpt>
      <trkpt lat="43.99934" lon="2.97309">
        <ele>426.8</ele>
        <time>2021-08-15T08:58:54Z</time>
      </trkpt>
      <trkpt lat="43.99937" lon="2.97292">
        <ele>426.3</ele>
        <time>2021-08-15T08:58:56Z</time>
      </trkpt>
      <trkpt lat="43.99942" lon="2.97275">
        <ele>426.3</ele>
        <time>2021-08-15T08:58:58Z</time>
      </trkpt>
      <trkpt lat="43.99948" lon="2.97258">
        <ele>425.8</ele>
        <time>2021-08-15T08:59:00Z</time>
      </trkpt>
      <trkpt lat="43.99954" lon="2.97242">
        <ele>425.4</ele>
        <time>2021-08-15T08:59:02Z</time>
      </trkpt>
      <trkpt lat="43.9996" lon="2.97225">
        <ele>424.5</ele>
        <time>2021-08-15T08:59:04Z</time>
      </trkpt>
      <trkpt lat="43.99964" lon="2.97207">
        <ele>422.4</ele>
        <time>2021-08-15T08:59:06Z</time>
      </trkpt>
      <trkpt lat="43.99966" lon="2.97191">
        <ele>420.1</ele>
        <time>2021-08-15T08:59:08Z</time>
      </trkpt>
      <trkpt lat="43.9997" lon="2.9718">
        <ele>418.6</ele>
        <time>2021-08-15T08:59:10Z</time>
      </trkpt>
      <trkpt lat="43.9997" lon="2.97169">
        <ele>416.6</ele>
        <time>2021-08-15T08:59:12Z</time>
      </trkpt>
      <trkpt lat="43.9997" lon="2.97159">
        <ele>415.6</ele>
        <time>2021-08-15T08:59:14Z</time>
      </trkpt>
      <trkpt lat="43.99969" lon="2.97151">
        <ele>415.1</ele>
        <time>2021-08-15T08:59:16Z</time>
      </trkpt>
      <trkpt lat="43.99969" lon="2.97145">
        <ele>414.8</ele>
        <time>2021-08-15T08:59:18Z</time>
      </trkpt>
      <trkpt lat="43.99971" lon="2.97137">
        <ele>414.5</ele>
        <time>2021-08-15T08:59:20Z</time>
      </trkpt>
      <trkpt lat="43.99974" lon="2.9713">
        <ele>414.3</ele>
        <time>2021-08-15T08:59:22Z</time>
      </trkpt>
      <trkpt lat="43.99974" lon="2.97125">
        <ele>413.9</ele>
        <time>2021-08-15T08:59:24Z</time>
      </trkpt>
      <trkpt lat="43.99971" lon="2.97128">
        <ele>414</ele>
        <time>2021-08-15T08:59:26Z</time>
      </trkpt>
      <trkpt lat="43.99971" lon="2.97128">
        <ele>414</ele>
        <time>2021-08-15T08:59:28Z</time>
      </trkpt>
      <trkpt lat="43.99972" lon="2.97128">
        <ele>414</ele>
        <time>2021-08-15T08:59:30Z</time>
      </trkpt>
      <trkpt lat="43.99971" lon="2.97129">
        <ele>414</ele>
        <time>2021-08-15T08:59:32Z</time>
      </trkpt>
      <trkpt lat="43.99971" lon="2.97129">
        <ele>414</ele>
        <time>2021-08-15T08:59:34Z</time>
      </trkpt>
      <trkpt lat="44.00015" lon="2.97079">
        <ele>414.2</ele>
        <time>2021-08-15T09:05:02Z</time>
      </trkpt>
      <trkpt lat="44.00021" lon="2.97071">
        <ele>414.6</ele>
        <time>2021-08-15T09:05:04Z</time>
      </trkpt>
      <trkpt lat="44.00027" lon="2.97063">
        <ele>415</ele>
        <time>2021-08-15T09:05:06Z</time>
      </trkpt>
      <trkpt lat="44.00034" lon="2.97056">
        <ele>415.3</ele>
        <time>2021-08-15T09:05:08Z</time>
      </trkpt>
      <trkpt lat="44.0004" lon="2.97048">
        <ele>415.4</ele>
        <time>2021-08-15T09:05:10Z</time>
      </trkpt>
      <trkpt lat="44.00047" lon="2.9704">
        <ele>415.3</ele>
        <time>2021-08-15T09:05:12Z</time>
      </trkpt>
      <trkpt lat="44.00053" lon="2.97032">
        <ele>415</ele>
        <time>2021-08-15T09:05:14Z</time>
      </trkpt>
      <trkpt lat="44.00059" lon="2.97024">
        <ele>414.5</ele>
        <time>2021-08-15T09:05:16Z</time>
      </trkpt>
      <trkpt lat="44.00065" lon="2.97016">
        <ele>413.8</ele>
        <time>2021-08-15T09:05:18Z</time>
      </trkpt>
      <trkpt lat="44.0007" lon="2.97008">
        <ele>413</ele>
        <time>2021-08-15T09:05:20Z</time>
      </trkpt>
      <trkpt lat="44.00076" lon="2.97001">
        <ele>412.1</ele>
        <time>2021-08-15T09:05:22Z</time>
      </trkpt>
      <trkpt lat="44.00081" lon="2.96993">
        <ele>411.9</ele>
        <time>2021-08-15T09:05:24Z</time>
      </trkpt>
      <trkpt lat="44.00087" lon="2.96985">
        <ele>413.4</ele>
        <time>2021-08-15T09:05:26Z</time>
      </trkpt>
      <trkpt lat="44.00092" lon="2.96976">
        <ele>415.4</ele>
        <time>2021-08-15T09:05:28Z</time>
      </trkpt>
      <trkpt lat="44.00097" lon="2.96968">
        <ele>417.1</ele>
        <time>2021-08-15T09:05:30Z</time>
      </trkpt>
      <trkpt lat="44.00102" lon="2.9696">
        <ele>418.5</ele>
        <time>2021-08-15T09:05:32Z</time>
      </trkpt>
      <trkpt lat="44.00106" lon="2.96952">
        <ele>419.5</ele>
        <time>2021-08-15T09:05:34Z</time>
      </trkpt>
      <trkpt lat="44.00111" lon="2.96944">
        <ele>420.4</ele>
        <time>2021-08-15T09:05:36Z</time>
      </trkpt>
      <trkpt lat="44.00117" lon="2.96939">
        <ele>421.7</ele>
        <time>2021-08-15T09:05:38Z</time>
      </trkpt>
      <trkpt lat="44.00121" lon="2.96933">
        <ele>422.3</ele>
        <time>2021-08-15T09:05:40Z</time>
      </trkpt>
      <trkpt lat="44.00125" lon="2.96927">
        <ele>422.7</ele>
        <time>2021-08-15T09:05:42Z</time>
      </trkpt>
      <trkpt lat="44.0013" lon="2.96921">
        <ele>422.8</ele>
        <time>2021-08-15T09:05:44Z</time>
      </trkpt>
      <trkpt lat="44.00134" lon="2.96914">
        <ele>422.9</ele>
        <time>2021-08-15T09:05:46Z</time>
      </trkpt>
      <trkpt lat="44.00137" lon="2.96907">
        <ele>423</ele>
        <time>2021-08-15T09:05:48Z</time>
      </trkpt>
      <trkpt lat="44.0014" lon="2.96901">
        <ele>422.6</ele>
        <time>2021-08-15T09:05:50Z</time>
      </trkpt>
      <trkpt lat="44.00141" lon="2.96894">
        <ele>422</ele>
        <time>2021-08-15T09:05:52Z</time>
      </trkpt>
      <trkpt lat="44.00142" lon="2.96886">
        <ele>421.3</ele>
        <time>2021-08-15T09:05:54Z</time>
      </trkpt>
      <trkpt lat="44.00143" lon="2.96878">
        <ele>420.3</ele>
        <time>2021-08-15T09:05:56Z</time>
      </trkpt>
      <trkpt lat="44.00145" lon="2.96871">
        <ele>419.6</ele>
        <time>2021-08-15T09:05:58Z</time>
      </trkpt>
      <trkpt lat="44.0015" lon="2.96863">
        <ele>418.9</ele>
        <time>2021-08-15T09:06:00Z</time>
      </trkpt>
      <trkpt lat="44.00157" lon="2.96855">
        <ele>418</ele>
        <time>2021-08-15T09:06:02Z</time>
      </trkpt>
      <trkpt lat="44.00165" lon="2.96848">
        <ele>416.9</ele>
        <time>2021-08-15T09:06:04Z</time>
      </trkpt>
      <trkpt lat="44.00173" lon="2.96839">
        <ele>416.4</ele>
        <time>2021-08-15T09:06:06Z</time>
      </trkpt>
      <trkpt lat="44.00181" lon="2.96829">
        <ele>416.6</ele>
        <time>2021-08-15T09:06:08Z</time>
      </trkpt>
      <trkpt lat="44.0019" lon="2.96821">
        <ele>417.4</ele>
        <time>2021-08-15T09:06:10Z</time>
      </trkpt>
      <trkpt lat="44.00199" lon="2.96813">
        <ele>417.9</ele>
        <time>2021-08-15T09:06:12Z</time>
      </trkpt>
      <trkpt lat="44.00208" lon="2.96806">
        <ele>418.4</ele>
        <time>2021-08-15T09:06:14Z</time>
      </trkpt>
      <trkpt lat="44.00216" lon="2.96798">
        <ele>418.3</ele>
        <time>2021-08-15T09:06:16Z</time>
      </trkpt>
      <trkpt lat="44.00225" lon="2.96793">
        <ele>418.3</ele>
        <time>2021-08-15T09:06:18Z</time>
      </trkpt>
      <trkpt lat="44.00233" lon="2.96787">
        <ele>418.1</ele>
        <time>2021-08-15T09:06:20Z</time>
      </trkpt>
      <trkpt lat="44.00241" lon="2.96781">
        <ele>417.7</ele>
        <time>2021-08-15T09:06:22Z</time>
      </trkpt>
      <trkpt lat="44.0025" lon="2.96777">
        <ele>417.4</ele>
        <time>2021-08-15T09:06:24Z</time>
      </trkpt>
      <trkpt lat="44.00259" lon="2.96771">
        <ele>417</ele>
        <time>2021-08-15T09:06:26Z</time>
      </trkpt>
      <trkpt lat="44.00268" lon="2.96765">
        <ele>416.5</ele>
        <time>2021-08-15T09:06:28Z</time>
      </trkpt>
      <trkpt lat="44.00277" lon="2.96761">
        <ele>416.1</ele>
        <time>2021-08-15T09:06:30Z</time>
      </trkpt>
      <trkpt lat="44.00287" lon="2.96756">
        <ele>415.7</ele>
        <time>2021-08-15T09:06:32Z</time>
      </trkpt>
      <trkpt lat="44.00297" lon="2.96751">
        <ele>415.4</ele>
        <time>2021-08-15T09:06:34Z</time>
      </trkpt>
      <trkpt lat="44.00307" lon="2.96746">
        <ele>415.4</ele>
        <time>2021-08-15T09:06:36Z</time>
      </trkpt>
      <trkpt lat="44.00318" lon="2.96742">
        <ele>415.6</ele>
        <time>2021-08-15T09:06:38Z</time>
      </trkpt>
      <trkpt lat="44.00328" lon="2.96737">
        <ele>415.7</ele>
        <time>2021-08-15T09:06:40Z</time>
      </trkpt>
      <trkpt lat="44.00338" lon="2.96733">
        <ele>416</ele>
        <time>2021-08-15T09:06:42Z</time>
      </trkpt>
      <trkpt lat="44.00348" lon="2.96728">
        <ele>416.6</ele>
        <time>2021-08-15T09:06:44Z</time>
      </trkpt>
      <trkpt lat="44.00357" lon="2.96724">
        <ele>417</ele>
        <time>2021-08-15T09:06:46Z</time>
      </trkpt>
      <trkpt lat="44.00367" lon="2.9672">
        <ele>417.3</ele>
        <time>2021-08-15T09:06:48Z</time>
      </trkpt>
      <trkpt lat="44.00376" lon="2.96715">
        <ele>417.3</ele>
        <time>2021-08-15T09:06:50Z</time>
      </trkpt>
      <trkpt lat="44.00385" lon="2.9671">
        <ele>417.1</ele>
        <time>2021-08-15T09:06:52Z</time>
      </trkpt>
      <trkpt lat="44.00395" lon="2.96704">
        <ele>416.8</ele>
        <time>2021-08-15T09:06:54Z</time>
      </trkpt>
      <trkpt lat="44.00404" lon="2.967">
        <ele>416.4</ele>
        <time>2021-08-15T09:06:56Z</time>
      </trkpt>
      <trkpt lat="44.00414" lon="2.96695">
        <ele>416</ele>
        <time>2021-08-15T09:06:58Z</time>
      </trkpt>
      <trkpt lat="44.00424" lon="2.9669">
        <ele>415.4</ele>
        <time>2021-08-15T09:07:00Z</time>
      </trkpt>
      <trkpt lat="44.00434" lon="2.96684">
        <ele>414.8</ele>
        <time>2021-08-15T09:07:02Z</time>
      </trkpt>
      <trkpt lat="44.00443" lon="2.96679">
        <ele>414.2</ele>
        <time>2021-08-15T09:07:04Z</time>
      </trkpt>
      <trkpt lat="44.00453" lon="2.96674">
        <ele>413.4</ele>
        <time>2021-08-15T09:07:06Z</time>
      </trkpt>
      <trkpt lat="44.00463" lon="2.96668">
        <ele>412.5</ele>
        <time>2021-08-15T09:07:08Z</time>
      </trkpt>
      <trkpt lat="44.00473" lon="2.96664">
        <ele>412.4</ele>
        <time>2021-08-15T09:07:10Z</time>
      </trkpt>
      <trkpt lat="44.00482" lon="2.96659">
        <ele>412.6</ele>
        <time>2021-08-15T09:07:12Z</time>
      </trkpt>
      <trkpt lat="44.00491" lon="2.96653">
        <ele>412.4</ele>
        <time>2021-08-15T09:07:14Z</time>
      </trkpt>
      <trkpt lat="44.00501" lon="2.96648">
        <ele>412.4</ele>
        <time>2021-08-15T09:07:16Z</time>
      </trkpt>
      <trkpt lat="44.0051" lon="2.96643">
        <ele>413.5</ele>
        <time>2021-08-15T09:07:18Z</time>
      </trkpt>
      <trkpt lat="44.0052" lon="2.96638">
        <ele>414.4</ele>
        <time>2021-08-15T09:07:20Z</time>
      </trkpt>
      <trkpt lat="44.0053" lon="2.96634">
        <ele>415.1</ele>
        <time>2021-08-15T09:07:22Z</time>
      </trkpt>
      <trkpt lat="44.0054" lon="2.96628">
        <ele>415.7</ele>
        <time>2021-08-15T09:07:24Z</time>
      </trkpt>
      <trkpt lat="44.00549" lon="2.96623">
        <ele>416</ele>
        <time>2021-08-15T09:07:26Z</time>
      </trkpt>
      <trkpt lat="44.00559" lon="2.96618">
        <ele>416</ele>
        <time>2021-08-15T09:07:28Z</time>
      </trkpt>
      <trkpt lat="44.00569" lon="2.96613">
        <ele>416.1</ele>
        <time>2021-08-15T09:07:30Z</time>
      </trkpt>
      <trkpt lat="44.00579" lon="2.96608">
        <ele>415.9</ele>
        <time>2021-08-15T09:07:32Z</time>
      </trkpt>
      <trkpt lat="44.00589" lon="2.96603">
        <ele>415.6</ele>
        <time>2021-08-15T09:07:34Z</time>
      </trkpt>
      <trkpt lat="44.006" lon="2.96598">
        <ele>415.1</ele>
        <time>2021-08-15T09:07:36Z</time>
      </trkpt>
      <trkpt lat="44.0061" lon="2.96592">
        <ele>414.5</ele>
        <time>2021-08-15T09:07:38Z</time>
      </trkpt>
      <trkpt lat="44.00621" lon="2.96587">
        <ele>414</ele>
        <time>2021-08-15T09:07:40Z</time>
      </trkpt>
      <trkpt lat="44.00632" lon="2.96583">
        <ele>413.6</ele>
        <time>2021-08-15T09:07:42Z</time>
      </trkpt>
      <trkpt lat="44.00642" lon="2.96578">
        <ele>413.9</ele>
        <time>2021-08-15T09:07:44Z</time>
      </trkpt>
      <trkpt lat="44.00652" lon="2.96574">
        <ele>414.4</ele>
        <time>2021-08-15T09:07:46Z</time>
      </trkpt>
      <trkpt lat="44.00662" lon="2.9657">
        <ele>414.6</ele>
        <time>2021-08-15T09:07:48Z</time>
      </trkpt>
      <trkpt lat="44.00672" lon="2.96567">
        <ele>415</ele>
        <time>2021-08-15T09:07:50Z</time>
      </trkpt>
      <trkpt lat="44.00682" lon="2.96562">
        <ele>415.2</ele>
        <time>2021-08-15T09:07:52Z</time>
      </trkpt>
      <trkpt lat="44.00692" lon="2.96558">
        <ele>415.3</ele>
        <time>2021-08-15T09:07:54Z</time>
      </trkpt>
      <trkpt lat="44.00702" lon="2.96554">
        <ele>415.4</ele>
        <time>2021-08-15T09:07:56Z</time>
      </trkpt>
      <trkpt lat="44.00712" lon="2.96549">
        <ele>415.1</ele>
        <time>2021-08-15T09:07:58Z</time>
      </trkpt>
      <trkpt lat="44.00721" lon="2.96543">
        <ele>414.4</ele>
        <time>2021-08-15T09:08:00Z</time>
      </trkpt>
      <trkpt lat="44.00732" lon="2.96537">
        <ele>413.7</ele>
        <time>2021-08-15T09:08:02Z</time>
      </trkpt>
      <trkpt lat="44.00743" lon="2.96534">
        <ele>413.3</ele>
        <time>2021-08-15T09:08:04Z</time>
      </trkpt>
      <trkpt lat="44.00754" lon="2.9653">
        <ele>412.8</ele>
        <time>2021-08-15T09:08:06Z</time>
      </trkpt>
      <trkpt lat="44.00765" lon="2.96525">
        <ele>412.2</ele>
        <time>2021-08-15T09:08:08Z</time>
      </trkpt>
      <trkpt lat="44.00776" lon="2.96522">
        <ele>412</ele>
        <time>2021-08-15T09:08:10Z</time>
      </trkpt>
      <trkpt lat="44.00787" lon="2.96518">
        <ele>411.6</ele>
        <time>2021-08-15T09:08:12Z</time>
      </trkpt>
      <trkpt lat="44.00798" lon="2.96514">
        <ele>411.1</ele>
        <time>2021-08-15T09:08:14Z</time>
      </trkpt>
      <trkpt lat="44.00808" lon="2.9651">
        <ele>410.7</ele>
        <time>2021-08-15T09:08:16Z</time>
      </trkpt>
      <trkpt lat="44.00819" lon="2.96506">
        <ele>410.6</ele>
        <time>2021-08-15T09:08:18Z</time>
      </trkpt>
      <trkpt lat="44.0083" lon="2.96504">
        <ele>410.7</ele>
        <time>2021-08-15T09:08:20Z</time>
      </trkpt>
      <trkpt lat="44.0084" lon="2.96502">
        <ele>410.2</ele>
        <time>2021-08-15T09:08:22Z</time>
      </trkpt>
      <trkpt lat="44.0085" lon="2.96499">
        <ele>409.6</ele>
        <time>2021-08-15T09:08:24Z</time>
      </trkpt>
      <trkpt lat="44.0086" lon="2.96496">
        <ele>409.1</ele>
        <time>2021-08-15T09:08:26Z</time>
      </trkpt>
      <trkpt lat="44.0087" lon="2.96494">
        <ele>408.8</ele>
        <time>2021-08-15T09:08:28Z</time>
      </trkpt>
      <trkpt lat="44.00881" lon="2.96492">
        <ele>408.4</ele>
        <time>2021-08-15T09:08:30Z</time>
      </trkpt>
      <trkpt lat="44.00892" lon="2.96492">
        <ele>408.2</ele>
        <time>2021-08-15T09:08:32Z</time>
      </trkpt>
      <trkpt lat="44.00902" lon="2.96494">
        <ele>408</ele>
        <time>2021-08-15T09:08:34Z</time>
      </trkpt>
      <trkpt lat="44.00912" lon="2.96497">
        <ele>408</ele>
        <time>2021-08-15T09:08:36Z</time>
      </trkpt>
      <trkpt lat="44.00921" lon="2.96501">
        <ele>408</ele>
        <time>2021-08-15T09:08:38Z</time>
      </trkpt>
      <trkpt lat="44.00932" lon="2.96507">
        <ele>408.3</ele>
        <time>2021-08-15T09:08:40Z</time>
      </trkpt>
      <trkpt lat="44.00942" lon="2.9651">
        <ele>408.3</ele>
        <time>2021-08-15T09:08:42Z</time>
      </trkpt>
      <trkpt lat="44.00952" lon="2.96514">
        <ele>408.3</ele>
        <time>2021-08-15T09:08:44Z</time>
      </trkpt>
      <trkpt lat="44.00962" lon="2.96518">
        <ele>408.3</ele>
        <time>2021-08-15T09:08:46Z</time>
      </trkpt>
      <trkpt lat="44.00972" lon="2.96524">
        <ele>408.4</ele>
        <time>2021-08-15T09:08:48Z</time>
      </trkpt>
      <trkpt lat="44.00983" lon="2.96529">
        <ele>408.4</ele>
        <time>2021-08-15T09:08:50Z</time>
      </trkpt>
      <trkpt lat="44.00993" lon="2.96535">
        <ele>408.3</ele>
        <time>2021-08-15T09:08:52Z</time>
      </trkpt>
      <trkpt lat="44.01004" lon="2.96541">
        <ele>408.1</ele>
        <time>2021-08-15T09:08:54Z</time>
      </trkpt>
      <trkpt lat="44.01014" lon="2.96545">
        <ele>408</ele>
        <time>2021-08-15T09:08:56Z</time>
      </trkpt>
      <trkpt lat="44.01024" lon="2.96551">
        <ele>407.8</ele>
        <time>2021-08-15T09:08:58Z</time>
      </trkpt>
      <trkpt lat="44.01034" lon="2.96556">
        <ele>407.6</ele>
        <time>2021-08-15T09:09:00Z</time>
      </trkpt>
      <trkpt lat="44.01044" lon="2.96561">
        <ele>407.4</ele>
        <time>2021-08-15T09:09:02Z</time>
      </trkpt>
      <trkpt lat="44.01054" lon="2.96566">
        <ele>407</ele>
        <time>2021-08-15T09:09:04Z</time>
      </trkpt>
      <trkpt lat="44.01065" lon="2.96571">
        <ele>406.6</ele>
        <time>2021-08-15T09:09:06Z</time>
      </trkpt>
      <trkpt lat="44.01074" lon="2.96576">
        <ele>406.2</ele>
        <time>2021-08-15T09:09:08Z</time>
      </trkpt>
      <trkpt lat="44.01084" lon="2.96581">
        <ele>405.8</ele>
        <time>2021-08-15T09:09:10Z</time>
      </trkpt>
      <trkpt lat="44.01093" lon="2.96586">
        <ele>405.9</ele>
        <time>2021-08-15T09:09:12Z</time>
      </trkpt>
      <trkpt lat="44.01102" lon="2.9659">
        <ele>406</ele>
        <time>2021-08-15T09:09:14Z</time>
      </trkpt>
      <trkpt lat="44.01111" lon="2.96597">
        <ele>406.2</ele>
        <time>2021-08-15T09:09:16Z</time>
      </trkpt>
      <trkpt lat="44.01121" lon="2.96599">
        <ele>406</ele>
        <time>2021-08-15T09:09:18Z</time>
      </trkpt>
      <trkpt lat="44.01129" lon="2.96603">
        <ele>405.8</ele>
        <time>2021-08-15T09:09:20Z</time>
      </trkpt>
      <trkpt lat="44.01137" lon="2.96603">
        <ele>405.3</ele>
        <time>2021-08-15T09:09:22Z</time>
      </trkpt>
      <trkpt lat="44.01145" lon="2.96602">
        <ele>404.8</ele>
        <time>2021-08-15T09:09:24Z</time>
      </trkpt>
      <trkpt lat="44.01152" lon="2.96601">
        <ele>404.4</ele>
        <time>2021-08-15T09:09:26Z</time>
      </trkpt>
      <trkpt lat="44.01158" lon="2.96601">
        <ele>404</ele>
        <time>2021-08-15T09:09:28Z</time>
      </trkpt>
      <trkpt lat="44.01164" lon="2.96602">
        <ele>403.7</ele>
        <time>2021-08-15T09:09:30Z</time>
      </trkpt>
      <trkpt lat="44.01166" lon="2.96602">
        <ele>403.5</ele>
        <time>2021-08-15T09:09:32Z</time>
      </trkpt>
      <trkpt lat="44.01168" lon="2.96602">
        <ele>403.5</ele>
        <time>2021-08-15T09:09:34Z</time>
      </trkpt>
      <trkpt lat="44.01168" lon="2.96603">
        <ele>403.6</ele>
        <time>2021-08-15T09:09:36Z</time>
      </trkpt>
      <trkpt lat="44.01168" lon="2.96604">
        <ele>403.7</ele>
        <time>2021-08-15T09:09:38Z</time>
      </trkpt>
      <trkpt lat="44.01167" lon="2.96604">
        <ele>403.7</ele>
        <time>2021-08-15T09:09:40Z</time>
      </trkpt>
      <trkpt lat="44.01169" lon="2.96602">
        <ele>403.5</ele>
        <time>2021-08-15T09:09:42Z</time>
      </trkpt>
      <trkpt lat="44.01174" lon="2.96599">
        <ele>403.2</ele>
        <time>2021-08-15T09:09:44Z</time>
      </trkpt>
      <trkpt lat="44.01177" lon="2.96589">
        <ele>402.4</ele>
        <time>2021-08-15T09:09:46Z</time>
      </trkpt>
      <trkpt lat="44.01178" lon="2.96579">
        <ele>401.9</ele>
        <time>2021-08-15T09:09:48Z</time>
      </trkpt>
      <trkpt lat="44.01181" lon="2.96571">
        <ele>402</ele>
        <time>2021-08-15T09:09:50Z</time>
      </trkpt>
      <trkpt lat="44.01183" lon="2.96564">
        <ele>402</ele>
        <time>2021-08-15T09:09:52Z</time>
      </trkpt>
      <trkpt lat="44.01185" lon="2.96556">
        <ele>402.1</ele>
        <time>2021-08-15T09:09:54Z</time>
      </trkpt>
      <trkpt lat="44.01187" lon="2.96547">
        <ele>402.2</ele>
        <time>2021-08-15T09:09:56Z</time>
      </trkpt>
      <trkpt lat="44.01189" lon="2.96539">
        <ele>402.3</ele>
        <time>2021-08-15T09:09:58Z</time>
      </trkpt>
      <trkpt lat="44.01192" lon="2.9653">
        <ele>402.3</ele>
        <time>2021-08-15T09:10:00Z</time>
      </trkpt>
      <trkpt lat="44.01195" lon="2.9652">
        <ele>402.4</ele>
        <time>2021-08-15T09:10:02Z</time>
      </trkpt>
      <trkpt lat="44.01197" lon="2.96509">
        <ele>402.5</ele>
        <time>2021-08-15T09:10:04Z</time>
      </trkpt>
      <trkpt lat="44.012" lon="2.96498">
        <ele>402.6</ele>
        <time>2021-08-15T09:10:06Z</time>
      </trkpt>
      <trkpt lat="44.01202" lon="2.96486">
        <ele>402.9</ele>
        <time>2021-08-15T09:10:08Z</time>
      </trkpt>
      <trkpt lat="44.01206" lon="2.96476">
        <ele>403.1</ele>
        <time>2021-08-15T09:10:10Z</time>
      </trkpt>
      <trkpt lat="44.01207" lon="2.96466">
        <ele>403.3</ele>
        <time>2021-08-15T09:10:12Z</time>
      </trkpt>
      <trkpt lat="44.01212" lon="2.96463">
        <ele>403.4</ele>
        <time>2021-08-15T09:10:14Z</time>
      </trkpt>
      <trkpt lat="44.01214" lon="2.96463">
        <ele>403.4</ele>
        <time>2021-08-15T09:10:16Z</time>
      </trkpt>
      <trkpt lat="44.01214" lon="2.96464">
        <ele>403.4</ele>
        <time>2021-08-15T09:10:18Z</time>
      </trkpt>
      <trkpt lat="44.01214" lon="2.96464">
        <ele>403.4</ele>
        <time>2021-08-15T09:10:20Z</time>
      </trkpt>
      <trkpt lat="44.01214" lon="2.96464">
        <ele>403.4</ele>
        <time>2021-08-15T09:10:22Z</time>
      </trkpt>
      <trkpt lat="44.01214" lon="2.96464">
        <ele>403.4</ele>
        <time>2021-08-15T09:10:24Z</time>
      </trkpt>
      <trkpt lat="44.01215" lon="2.96464">
        <ele>403.4</ele>
        <time>2021-08-15T09:10:26Z</time>
      </trkpt>
      <trkpt lat="44.01215" lon="2.96464">
        <ele>403.4</ele>
        <time>2021-08-15T09:10:28Z</time>
      </trkpt>
      <trkpt lat="44.01215" lon="2.96464">
        <ele>403.4</ele>
        <time>2021-08-15T09:10:30Z</time>
      </trkpt>
      <trkpt lat="44.01217" lon="2.96464">
        <ele>403.4</ele>
        <time>2021-08-15T09:10:32Z</time>
      </trkpt>
      <trkpt lat="44.01219" lon="2.96465">
        <ele>403.4</ele>
        <time>2021-08-15T09:10:34Z</time>
      </trkpt>
      <trkpt lat="44.01221" lon="2.96468">
        <ele>403.3</ele>
        <time>2021-08-15T09:10:36Z</time>
      </trkpt>
      <trkpt lat="44.01222" lon="2.96472">
        <ele>403.2</ele>
        <time>2021-08-15T09:10:38Z</time>
      </trkpt>
      <trkpt lat="44.01222" lon="2.96472">
        <ele>403.2</ele>
        <time>2021-08-15T09:10:40Z</time>
      </trkpt>
      <trkpt lat="44.01224" lon="2.96472">
        <ele>403.2</ele>
        <time>2021-08-15T09:10:42Z</time>
      </trkpt>
      <trkpt lat="44.01224" lon="2.96471">
        <ele>403.3</ele>
        <time>2021-08-15T09:10:44Z</time>
      </trkpt>
      <trkpt lat="44.01226" lon="2.9647">
        <ele>403.3</ele>
        <time>2021-08-15T09:10:46Z</time>
      </trkpt>
      <trkpt lat="44.01218" lon="2.96453">
        <ele>403.8</ele>
        <time>2021-08-15T09:21:12Z</time>
      </trkpt>
      <trkpt lat="44.01217" lon="2.96445">
        <ele>404</ele>
        <time>2021-08-15T09:21:14Z</time>
      </trkpt>
      <trkpt lat="44.01217" lon="2.96438">
        <ele>404.2</ele>
        <time>2021-08-15T09:21:16Z</time>
      </trkpt>
      <trkpt lat="44.01218" lon="2.9643">
        <ele>404.4</ele>
        <time>2021-08-15T09:21:18Z</time>
      </trkpt>
      <trkpt lat="44.01219" lon="2.96423">
        <ele>404.7</ele>
        <time>2021-08-15T09:21:20Z</time>
      </trkpt>
      <trkpt lat="44.01217" lon="2.96415">
        <ele>404.9</ele>
        <time>2021-08-15T09:21:22Z</time>
      </trkpt>
      <trkpt lat="44.01213" lon="2.96408">
        <ele>405.2</ele>
        <time>2021-08-15T09:21:24Z</time>
      </trkpt>
      <trkpt lat="44.01208" lon="2.96404">
        <ele>405.3</ele>
        <time>2021-08-15T09:21:26Z</time>
      </trkpt>
      <trkpt lat="44.01203" lon="2.96398">
        <ele>405.4</ele>
        <time>2021-08-15T09:21:28Z</time>
      </trkpt>
      <trkpt lat="44.01198" lon="2.96393">
        <ele>405.5</ele>
        <time>2021-08-15T09:21:30Z</time>
      </trkpt>
      <trkpt lat="44.01194" lon="2.96388">
        <ele>405.6</ele>
        <time>2021-08-15T09:21:32Z</time>
      </trkpt>
      <trkpt lat="44.01188" lon="2.96383">
        <ele>405.6</ele>
        <time>2021-08-15T09:21:34Z</time>
      </trkpt>
      <trkpt lat="44.01184" lon="2.96377">
        <ele>405.7</ele>
        <time>2021-08-15T09:21:36Z</time>
      </trkpt>
      <trkpt lat="44.0118" lon="2.96373">
        <ele>405.7</ele>
        <time>2021-08-15T09:21:38Z</time>
      </trkpt>
      <trkpt lat="44.01175" lon="2.96367">
        <ele>405.8</ele>
        <time>2021-08-15T09:21:40Z</time>
      </trkpt>
      <trkpt lat="44.01171" lon="2.96362">
        <ele>405.9</ele>
        <time>2021-08-15T09:21:42Z</time>
      </trkpt>
      <trkpt lat="44.01167" lon="2.96356">
        <ele>405.9</ele>
        <time>2021-08-15T09:21:44Z</time>
      </trkpt>
      <trkpt lat="44.01163" lon="2.96352">
        <ele>406.1</ele>
        <time>2021-08-15T09:21:46Z</time>
      </trkpt>
      <trkpt lat="44.01159" lon="2.96346">
        <ele>406.3</ele>
        <time>2021-08-15T09:21:48Z</time>
      </trkpt>
      <trkpt lat="44.01155" lon="2.96342">
        <ele>406.5</ele>
        <time>2021-08-15T09:21:50Z</time>
      </trkpt>
      <trkpt lat="44.0115" lon="2.96338">
        <ele>406.7</ele>
        <time>2021-08-15T09:21:52Z</time>
      </trkpt>
      <trkpt lat="44.01145" lon="2.96333">
        <ele>407.1</ele>
        <time>2021-08-15T09:21:54Z</time>
      </trkpt>
      <trkpt lat="44.0114" lon="2.96331">
        <ele>407.6</ele>
        <time>2021-08-15T09:21:56Z</time>
      </trkpt>
      <trkpt lat="44.01135" lon="2.96328">
        <ele>408.4</ele>
        <time>2021-08-15T09:21:58Z</time>
      </trkpt>
      <trkpt lat="44.0113" lon="2.96326">
        <ele>408.9</ele>
        <time>2021-08-15T09:22:00Z</time>
      </trkpt>
      <trkpt lat="44.01125" lon="2.96325">
        <ele>409.1</ele>
        <time>2021-08-15T09:22:02Z</time>
      </trkpt>
      <trkpt lat="44.01119" lon="2.96325">
        <ele>409.2</ele>
        <time>2021-08-15T09:22:04Z</time>
      </trkpt>
      <trkpt lat="44.01114" lon="2.96325">
        <ele>409.3</ele>
        <time>2021-08-15T09:22:06Z</time>
      </trkpt>
      <trkpt lat="44.01108" lon="2.96326">
        <ele>409.1</ele>
        <time>2021-08-15T09:22:08Z</time>
      </trkpt>
      <trkpt lat="44.01103" lon="2.96325">
        <ele>409.4</ele>
        <time>2021-08-15T09:22:10Z</time>
      </trkpt>
      <trkpt lat="44.01097" lon="2.96325">
        <ele>409.5</ele>
        <time>2021-08-15T09:22:12Z</time>
      </trkpt>
      <trkpt lat="44.01092" lon="2.96325">
        <ele>409.6</ele>
        <time>2021-08-15T09:22:14Z</time>
      </trkpt>
      <trkpt lat="44.01086" lon="2.96325">
        <ele>409.8</ele>
        <time>2021-08-15T09:22:16Z</time>
      </trkpt>
      <trkpt lat="44.0108" lon="2.96325">
        <ele>409.9</ele>
        <time>2021-08-15T09:22:18Z</time>
      </trkpt>
      <trkpt lat="44.01075" lon="2.96324">
        <ele>410.1</ele>
        <time>2021-08-15T09:22:20Z</time>
      </trkpt>
      <trkpt lat="44.01068" lon="2.96324">
        <ele>410.2</ele>
        <time>2021-08-15T09:22:22Z</time>
      </trkpt>
      <trkpt lat="44.01062" lon="2.96324">
        <ele>410.3</ele>
        <time>2021-08-15T09:22:24Z</time>
      </trkpt>
      <trkpt lat="44.01056" lon="2.96323">
        <ele>410.5</ele>
        <time>2021-08-15T09:22:26Z</time>
      </trkpt>
      <trkpt lat="44.0105" lon="2.96323">
        <ele>410.8</ele>
        <time>2021-08-15T09:22:28Z</time>
      </trkpt>
      <trkpt lat="44.01044" lon="2.96322">
        <ele>411</ele>
        <time>2021-08-15T09:22:30Z</time>
      </trkpt>
      <trkpt lat="44.01037" lon="2.96322">
        <ele>411.1</ele>
        <time>2021-08-15T09:22:32Z</time>
      </trkpt>
      <trkpt lat="44.0103" lon="2.96324">
        <ele>410.7</ele>
        <time>2021-08-15T09:22:34Z</time>
      </trkpt>
      <trkpt lat="44.01024" lon="2.96324">
        <ele>410.7</ele>
        <time>2021-08-15T09:22:36Z</time>
      </trkpt>
      <trkpt lat="44.01019" lon="2.96322">
        <ele>411.2</ele>
        <time>2021-08-15T09:22:38Z</time>
      </trkpt>
      <trkpt lat="44.0102" lon="2.96313">
        <ele>414</ele>
        <time>2021-08-15T09:22:40Z</time>
      </trkpt>
      <trkpt lat="44.01026" lon="2.96313">
        <ele>414.3</ele>
        <time>2021-08-15T09:22:42Z</time>
      </trkpt>
      <trkpt lat="44.01031" lon="2.96313">
        <ele>414.1</ele>
        <time>2021-08-15T09:22:44Z</time>
      </trkpt>
      <trkpt lat="44.01035" lon="2.96313">
        <ele>414.2</ele>
        <time>2021-08-15T09:22:46Z</time>
      </trkpt>
      <trkpt lat="44.01039" lon="2.96312">
        <ele>414.2</ele>
        <time>2021-08-15T09:22:48Z</time>
      </trkpt>
      <trkpt lat="44.01043" lon="2.96312">
        <ele>414.3</ele>
        <time>2021-08-15T09:22:50Z</time>
      </trkpt>
      <trkpt lat="44.01047" lon="2.96311">
        <ele>414.6</ele>
        <time>2021-08-15T09:22:52Z</time>
      </trkpt>
      <trkpt lat="44.0105" lon="2.9631">
        <ele>414.8</ele>
        <time>2021-08-15T09:22:54Z</time>
      </trkpt>
      <trkpt lat="44.01054" lon="2.96309">
        <ele>415</ele>
        <time>2021-08-15T09:22:56Z</time>
      </trkpt>
      <trkpt lat="44.01058" lon="2.96309">
        <ele>415.2</ele>
        <time>2021-08-15T09:22:58Z</time>
      </trkpt>
      <trkpt lat="44.01062" lon="2.96308">
        <ele>415.4</ele>
        <time>2021-08-15T09:23:00Z</time>
      </trkpt>
      <trkpt lat="44.01066" lon="2.96307">
        <ele>415.6</ele>
        <time>2021-08-15T09:23:02Z</time>
      </trkpt>
      <trkpt lat="44.0107" lon="2.96307">
        <ele>415.7</ele>
        <time>2021-08-15T09:23:04Z</time>
      </trkpt>
      <trkpt lat="44.01073" lon="2.96306">
        <ele>415.9</ele>
        <time>2021-08-15T09:23:06Z</time>
      </trkpt>
      <trkpt lat="44.01077" lon="2.96304">
        <ele>416.5</ele>
        <time>2021-08-15T09:23:08Z</time>
      </trkpt>
      <trkpt lat="44.01081" lon="2.96302">
        <ele>417.2</ele>
        <time>2021-08-15T09:23:10Z</time>
      </trkpt>
      <trkpt lat="44.01084" lon="2.96301">
        <ele>417.3</ele>
        <time>2021-08-15T09:23:12Z</time>
      </trkpt>
      <trkpt lat="44.01087" lon="2.96301">
        <ele>417.5</ele>
        <time>2021-08-15T09:23:14Z</time>
      </trkpt>
      <trkpt lat="44.01089" lon="2.96299">
        <ele>417.8</ele>
        <time>2021-08-15T09:23:16Z</time>
      </trkpt>
      <trkpt lat="44.01092" lon="2.96297">
        <ele>418.3</ele>
        <time>2021-08-15T09:23:18Z</time>
      </trkpt>
      <trkpt lat="44.01095" lon="2.96297">
        <ele>418.1</ele>
        <time>2021-08-15T09:23:20Z</time>
      </trkpt>
      <trkpt lat="44.01099" lon="2.96296">
        <ele>418.4</ele>
        <time>2021-08-15T09:23:22Z</time>
      </trkpt>
      <trkpt lat="44.01103" lon="2.96294">
        <ele>418.6</ele>
        <time>2021-08-15T09:23:24Z</time>
      </trkpt>
      <trkpt lat="44.01107" lon="2.96295">
        <ele>418.2</ele>
        <time>2021-08-15T09:23:26Z</time>
      </trkpt>
      <trkpt lat="44.01111" lon="2.96295">
        <ele>418</ele>
        <time>2021-08-15T09:23:28Z</time>
      </trkpt>
      <trkpt lat="44.01115" lon="2.96294">
        <ele>418</ele>
        <time>2021-08-15T09:23:30Z</time>
      </trkpt>
      <trkpt lat="44.01119" lon="2.96293">
        <ele>418</ele>
        <time>2021-08-15T09:23:32Z</time>
      </trkpt>
      <trkpt lat="44.01123" lon="2.96292">
        <ele>418.1</ele>
        <time>2021-08-15T09:23:34Z</time>
      </trkpt>
      <trkpt lat="44.01127" lon="2.96291">
        <ele>418.1</ele>
        <time>2021-08-15T09:23:36Z</time>
      </trkpt>
      <trkpt lat="44.01131" lon="2.96289">
        <ele>418.3</ele>
        <time>2021-08-15T09:23:38Z</time>
      </trkpt>
      <trkpt lat="44.01136" lon="2.96288">
        <ele>418.4</ele>
        <time>2021-08-15T09:23:40Z</time>
      </trkpt>
      <trkpt lat="44.0114" lon="2.96286">
        <ele>418.5</ele>
        <time>2021-08-15T09:23:42Z</time>
      </trkpt>
      <trkpt lat="44.01144" lon="2.96285">
        <ele>418.6</ele>
        <time>2021-08-15T09:23:44Z</time>
      </trkpt>
      <trkpt lat="44.01147" lon="2.96282">
        <ele>419</ele>
        <time>2021-08-15T09:23:46Z</time>
      </trkpt>
      <trkpt lat="44.01151" lon="2.9628">
        <ele>419.2</ele>
        <time>2021-08-15T09:23:48Z</time>
      </trkpt>
      <trkpt lat="44.01154" lon="2.96277">
        <ele>419.4</ele>
        <time>2021-08-15T09:23:50Z</time>
      </trkpt>
      <trkpt lat="44.01158" lon="2.96275">
        <ele>419.7</ele>
        <time>2021-08-15T09:23:52Z</time>
      </trkpt>
      <trkpt lat="44.01162" lon="2.96274">
        <ele>419.6</ele>
        <time>2021-08-15T09:23:54Z</time>
      </trkpt>
      <trkpt lat="44.01165" lon="2.96271">
        <ele>419.8</ele>
        <time>2021-08-15T09:23:56Z</time>
      </trkpt>
      <trkpt lat="44.0117" lon="2.9627">
        <ele>420</ele>
        <time>2021-08-15T09:23:58Z</time>
      </trkpt>
      <trkpt lat="44.01174" lon="2.96268">
        <ele>420.2</ele>
        <time>2021-08-15T09:24:00Z</time>
      </trkpt>
      <trkpt lat="44.01178" lon="2.96268">
        <ele>420.3</ele>
        <time>2021-08-15T09:24:02Z</time>
      </trkpt>
      <trkpt lat="44.01182" lon="2.96267">
        <ele>420.5</ele>
        <time>2021-08-15T09:24:04Z</time>
      </trkpt>
      <trkpt lat="44.01186" lon="2.96267">
        <ele>420.4</ele>
        <time>2021-08-15T09:24:06Z</time>
      </trkpt>
      <trkpt lat="44.0119" lon="2.96266">
        <ele>420.5</ele>
        <time>2021-08-15T09:24:08Z</time>
      </trkpt>
      <trkpt lat="44.01195" lon="2.96266">
        <ele>420.4</ele>
        <time>2021-08-15T09:24:10Z</time>
      </trkpt>
      <trkpt lat="44.01199" lon="2.96266">
        <ele>420.5</ele>
        <time>2021-08-15T09:24:12Z</time>
      </trkpt>
      <trkpt lat="44.01203" lon="2.96266">
        <ele>420.5</ele>
        <time>2021-08-15T09:24:14Z</time>
      </trkpt>
      <trkpt lat="44.01207" lon="2.96265">
        <ele>420.6</ele>
        <time>2021-08-15T09:24:16Z</time>
      </trkpt>
      <trkpt lat="44.01211" lon="2.96263">
        <ele>420.8</ele>
        <time>2021-08-15T09:24:18Z</time>
      </trkpt>
      <trkpt lat="44.01215" lon="2.96263">
        <ele>420.9</ele>
        <time>2021-08-15T09:24:20Z</time>
      </trkpt>
      <trkpt lat="44.01219" lon="2.9626">
        <ele>421.2</ele>
        <time>2021-08-15T09:24:22Z</time>
      </trkpt>
      <trkpt lat="44.01223" lon="2.96258">
        <ele>421.5</ele>
        <time>2021-08-15T09:24:24Z</time>
      </trkpt>
      <trkpt lat="44.01226" lon="2.96256">
        <ele>421.7</ele>
        <time>2021-08-15T09:24:26Z</time>
      </trkpt>
      <trkpt lat="44.01229" lon="2.96253">
        <ele>422</ele>
        <time>2021-08-15T09:24:28Z</time>
      </trkpt>
      <trkpt lat="44.01233" lon="2.96251">
        <ele>422.3</ele>
        <time>2021-08-15T09:24:30Z</time>
      </trkpt>
      <trkpt lat="44.01236" lon="2.96248">
        <ele>422.6</ele>
        <time>2021-08-15T09:24:32Z</time>
      </trkpt>
      <trkpt lat="44.01239" lon="2.96245">
        <ele>423.2</ele>
        <time>2021-08-15T09:24:34Z</time>
      </trkpt>
      <trkpt lat="44.01242" lon="2.96242">
        <ele>423.7</ele>
        <time>2021-08-15T09:24:36Z</time>
      </trkpt>
      <trkpt lat="44.01245" lon="2.96238">
        <ele>424.3</ele>
        <time>2021-08-15T09:24:38Z</time>
      </trkpt>
      <trkpt lat="44.01248" lon="2.96235">
        <ele>424.8</ele>
        <time>2021-08-15T09:24:40Z</time>
      </trkpt>
      <trkpt lat="44.01252" lon="2.96233">
        <ele>425.1</ele>
        <time>2021-08-15T09:24:42Z</time>
      </trkpt>
      <trkpt lat="44.01255" lon="2.9623">
        <ele>425.6</ele>
        <time>2021-08-15T09:24:44Z</time>
      </trkpt>
      <trkpt lat="44.01259" lon="2.96226">
        <ele>426.1</ele>
        <time>2021-08-15T09:24:46Z</time>
      </trkpt>
      <trkpt lat="44.01263" lon="2.96223">
        <ele>426.6</ele>
        <time>2021-08-15T09:24:48Z</time>
      </trkpt>
      <trkpt lat="44.01265" lon="2.96219">
        <ele>427.1</ele>
        <time>2021-08-15T09:24:50Z</time>
      </trkpt>
      <trkpt lat="44.01268" lon="2.96214">
        <ele>427.6</ele>
        <time>2021-08-15T09:24:52Z</time>
      </trkpt>
      <trkpt lat="44.0127" lon="2.9621">
        <ele>428.1</ele>
        <time>2021-08-15T09:24:54Z</time>
      </trkpt>
      <trkpt lat="44.01272" lon="2.96206">
        <ele>428.5</ele>
        <time>2021-08-15T09:24:56Z</time>
      </trkpt>
      <trkpt lat="44.01275" lon="2.96201">
        <ele>428.9</ele>
        <time>2021-08-15T09:24:58Z</time>
      </trkpt>
      <trkpt lat="44.01277" lon="2.96195">
        <ele>429.3</ele>
        <time>2021-08-15T09:25:00Z</time>
      </trkpt>
      <trkpt lat="44.01278" lon="2.96191">
        <ele>429.7</ele>
        <time>2021-08-15T09:25:02Z</time>
      </trkpt>
      <trkpt lat="44.01281" lon="2.96186">
        <ele>429.8</ele>
        <time>2021-08-15T09:25:04Z</time>
      </trkpt>
      <trkpt lat="44.01282" lon="2.96181">
        <ele>430.3</ele>
        <time>2021-08-15T09:25:06Z</time>
      </trkpt>
      <trkpt lat="44.01283" lon="2.96176">
        <ele>430.6</ele>
        <time>2021-08-15T09:25:08Z</time>
      </trkpt>
      <trkpt lat="44.01284" lon="2.96171">
        <ele>431</ele>
        <time>2021-08-15T09:25:10Z</time>
      </trkpt>
      <trkpt lat="44.01285" lon="2.96165">
        <ele>431.3</ele>
        <time>2021-08-15T09:25:12Z</time>
      </trkpt>
      <trkpt lat="44.01287" lon="2.9616">
        <ele>431.2</ele>
        <time>2021-08-15T09:25:14Z</time>
      </trkpt>
      <trkpt lat="44.01288" lon="2.96155">
        <ele>431.1</ele>
        <time>2021-08-15T09:25:16Z</time>
      </trkpt>
      <trkpt lat="44.0129" lon="2.9615">
        <ele>431.1</ele>
        <time>2021-08-15T09:25:18Z</time>
      </trkpt>
      <trkpt lat="44.01291" lon="2.96145">
        <ele>431.2</ele>
        <time>2021-08-15T09:25:20Z</time>
      </trkpt>
      <trkpt lat="44.01292" lon="2.9614">
        <ele>431.2</ele>
        <time>2021-08-15T09:25:22Z</time>
      </trkpt>
      <trkpt lat="44.01293" lon="2.96135">
        <ele>431.2</ele>
        <time>2021-08-15T09:25:24Z</time>
      </trkpt>
      <trkpt lat="44.01294" lon="2.96129">
        <ele>431.3</ele>
        <time>2021-08-15T09:25:26Z</time>
      </trkpt>
      <trkpt lat="44.01296" lon="2.96123">
        <ele>431.3</ele>
        <time>2021-08-15T09:25:28Z</time>
      </trkpt>
      <trkpt lat="44.01296" lon="2.96118">
        <ele>431.6</ele>
        <time>2021-08-15T09:25:30Z</time>
      </trkpt>
      <trkpt lat="44.01296" lon="2.96113">
        <ele>431.8</ele>
        <time>2021-08-15T09:25:32Z</time>
      </trkpt>
      <trkpt lat="44.01294" lon="2.96108">
        <ele>432.3</ele>
        <time>2021-08-15T09:25:34Z</time>
      </trkpt>
      <trkpt lat="44.01292" lon="2.96102">
        <ele>433</ele>
        <time>2021-08-15T09:25:36Z</time>
      </trkpt>
      <trkpt lat="44.01291" lon="2.96097">
        <ele>433.5</ele>
        <time>2021-08-15T09:25:38Z</time>
      </trkpt>
      <trkpt lat="44.01289" lon="2.96093">
        <ele>434.1</ele>
        <time>2021-08-15T09:25:40Z</time>
      </trkpt>
      <trkpt lat="44.01286" lon="2.96088">
        <ele>434.9</ele>
        <time>2021-08-15T09:25:42Z</time>
      </trkpt>
      <trkpt lat="44.01284" lon="2.96083">
        <ele>435.6</ele>
        <time>2021-08-15T09:25:44Z</time>
      </trkpt>
      <trkpt lat="44.01283" lon="2.96078">
        <ele>436.1</ele>
        <time>2021-08-15T09:25:46Z</time>
      </trkpt>
      <trkpt lat="44.0128" lon="2.96073">
        <ele>436.7</ele>
        <time>2021-08-15T09:25:48Z</time>
      </trkpt>
      <trkpt lat="44.01278" lon="2.96068">
        <ele>437.2</ele>
        <time>2021-08-15T09:25:50Z</time>
      </trkpt>
      <trkpt lat="44.01276" lon="2.96063">
        <ele>437.7</ele>
        <time>2021-08-15T09:25:52Z</time>
      </trkpt>
      <trkpt lat="44.01274" lon="2.96058">
        <ele>438.2</ele>
        <time>2021-08-15T09:25:54Z</time>
      </trkpt>
      <trkpt lat="44.01272" lon="2.96054">
        <ele>438.6</ele>
        <time>2021-08-15T09:25:56Z</time>
      </trkpt>
      <trkpt lat="44.01269" lon="2.96049">
        <ele>439</ele>
        <time>2021-08-15T09:25:58Z</time>
      </trkpt>
      <trkpt lat="44.01267" lon="2.96043">
        <ele>439.4</ele>
        <time>2021-08-15T09:26:00Z</time>
      </trkpt>
      <trkpt lat="44.01264" lon="2.9604">
        <ele>439.8</ele>
        <time>2021-08-15T09:26:02Z</time>
      </trkpt>
      <trkpt lat="44.01262" lon="2.96036">
        <ele>440.2</ele>
        <time>2021-08-15T09:26:04Z</time>
      </trkpt>
      <trkpt lat="44.01261" lon="2.96029">
        <ele>440.2</ele>
        <time>2021-08-15T09:26:06Z</time>
      </trkpt>
      <trkpt lat="44.01259" lon="2.96025">
        <ele>440.5</ele>
        <time>2021-08-15T09:26:08Z</time>
      </trkpt>
      <trkpt lat="44.01257" lon="2.9602">
        <ele>440.7</ele>
        <time>2021-08-15T09:26:10Z</time>
      </trkpt>
      <trkpt lat="44.01256" lon="2.96014">
        <ele>440.7</ele>
        <time>2021-08-15T09:26:12Z</time>
      </trkpt>
      <trkpt lat="44.01255" lon="2.96008">
        <ele>440.7</ele>
        <time>2021-08-15T09:26:14Z</time>
      </trkpt>
      <trkpt lat="44.01254" lon="2.96003">
        <ele>440.7</ele>
        <time>2021-08-15T09:26:16Z</time>
      </trkpt>
      <trkpt lat="44.01255" lon="2.95996">
        <ele>440.9</ele>
        <time>2021-08-15T09:26:18Z</time>
      </trkpt>
      <trkpt lat="44.01253" lon="2.9599">
        <ele>441.3</ele>
        <time>2021-08-15T09:26:20Z</time>
      </trkpt>
      <trkpt lat="44.01253" lon="2.95985">
        <ele>441.7</ele>
        <time>2021-08-15T09:26:22Z</time>
      </trkpt>
      <trkpt lat="44.01252" lon="2.9598">
        <ele>442.1</ele>
        <time>2021-08-15T09:26:24Z</time>
      </trkpt>
      <trkpt lat="44.01252" lon="2.95974">
        <ele>442.4</ele>
        <time>2021-08-15T09:26:26Z</time>
      </trkpt>
      <trkpt lat="44.01252" lon="2.95969">
        <ele>442.8</ele>
        <time>2021-08-15T09:26:28Z</time>
      </trkpt>
      <trkpt lat="44.01251" lon="2.95963">
        <ele>443.1</ele>
        <time>2021-08-15T09:26:30Z</time>
      </trkpt>
      <trkpt lat="44.01252" lon="2.95958">
        <ele>443.4</ele>
        <time>2021-08-15T09:26:32Z</time>
      </trkpt>
      <trkpt lat="44.01252" lon="2.95952">
        <ele>443.7</ele>
        <time>2021-08-15T09:26:34Z</time>
      </trkpt>
      <trkpt lat="44.01252" lon="2.95947">
        <ele>444.1</ele>
        <time>2021-08-15T09:26:36Z</time>
      </trkpt>
      <trkpt lat="44.01252" lon="2.95941">
        <ele>444.4</ele>
        <time>2021-08-15T09:26:38Z</time>
      </trkpt>
      <trkpt lat="44.01253" lon="2.95935">
        <ele>444.8</ele>
        <time>2021-08-15T09:26:40Z</time>
      </trkpt>
      <trkpt lat="44.01252" lon="2.9593">
        <ele>445.1</ele>
        <time>2021-08-15T09:26:42Z</time>
      </trkpt>
      <trkpt lat="44.01253" lon="2.95924">
        <ele>445.4</ele>
        <time>2021-08-15T09:26:44Z</time>
      </trkpt>
      <trkpt lat="44.01253" lon="2.95919">
        <ele>445.8</ele>
        <time>2021-08-15T09:26:46Z</time>
      </trkpt>
      <trkpt lat="44.01253" lon="2.95913">
        <ele>446.1</ele>
        <time>2021-08-15T09:26:48Z</time>
      </trkpt>
      <trkpt lat="44.01253" lon="2.95907">
        <ele>446.3</ele>
        <time>2021-08-15T09:26:50Z</time>
      </trkpt>
      <trkpt lat="44.01254" lon="2.95902">
        <ele>446.6</ele>
        <time>2021-08-15T09:26:52Z</time>
      </trkpt>
      <trkpt lat="44.01253" lon="2.95897">
        <ele>446.9</ele>
        <time>2021-08-15T09:26:54Z</time>
      </trkpt>
      <trkpt lat="44.01253" lon="2.95892">
        <ele>447.1</ele>
        <time>2021-08-15T09:26:56Z</time>
      </trkpt>
      <trkpt lat="44.01253" lon="2.95886">
        <ele>447.4</ele>
        <time>2021-08-15T09:26:58Z</time>
      </trkpt>
      <trkpt lat="44.01254" lon="2.95881">
        <ele>447.6</ele>
        <time>2021-08-15T09:27:00Z</time>
      </trkpt>
      <trkpt lat="44.01255" lon="2.95875">
        <ele>447.8</ele>
        <time>2021-08-15T09:27:02Z</time>
      </trkpt>
      <trkpt lat="44.01256" lon="2.9587">
        <ele>448.1</ele>
        <time>2021-08-15T09:27:04Z</time>
      </trkpt>
      <trkpt lat="44.01257" lon="2.95865">
        <ele>448.3</ele>
        <time>2021-08-15T09:27:06Z</time>
      </trkpt>
      <trkpt lat="44.01257" lon="2.95859">
        <ele>448.6</ele>
        <time>2021-08-15T09:27:08Z</time>
      </trkpt>
      <trkpt lat="44.01257" lon="2.95854">
        <ele>448.8</ele>
        <time>2021-08-15T09:27:10Z</time>
      </trkpt>
      <trkpt lat="44.01257" lon="2.95849">
        <ele>449.1</ele>
        <time>2021-08-15T09:27:12Z</time>
      </trkpt>
      <trkpt lat="44.01256" lon="2.95844">
        <ele>449.3</ele>
        <time>2021-08-15T09:27:14Z</time>
      </trkpt>
      <trkpt lat="44.01258" lon="2.95839">
        <ele>449.5</ele>
        <time>2021-08-15T09:27:16Z</time>
      </trkpt>
      <trkpt lat="44.01258" lon="2.95834">
        <ele>449.8</ele>
        <time>2021-08-15T09:27:18Z</time>
      </trkpt>
      <trkpt lat="44.01259" lon="2.95829">
        <ele>450</ele>
        <time>2021-08-15T09:27:20Z</time>
      </trkpt>
      <trkpt lat="44.01259" lon="2.95823">
        <ele>450.2</ele>
        <time>2021-08-15T09:27:22Z</time>
      </trkpt>
      <trkpt lat="44.01259" lon="2.95817">
        <ele>450.5</ele>
        <time>2021-08-15T09:27:24Z</time>
      </trkpt>
      <trkpt lat="44.01261" lon="2.95811">
        <ele>450.7</ele>
        <time>2021-08-15T09:27:26Z</time>
      </trkpt>
      <trkpt lat="44.0126" lon="2.95806">
        <ele>451</ele>
        <time>2021-08-15T09:27:28Z</time>
      </trkpt>
      <trkpt lat="44.01261" lon="2.958">
        <ele>451.2</ele>
        <time>2021-08-15T09:27:30Z</time>
      </trkpt>
      <trkpt lat="44.01261" lon="2.95796">
        <ele>451.4</ele>
        <time>2021-08-15T09:27:32Z</time>
      </trkpt>
      <trkpt lat="44.01261" lon="2.9579">
        <ele>451.6</ele>
        <time>2021-08-15T09:27:34Z</time>
      </trkpt>
      <trkpt lat="44.01261" lon="2.95784">
        <ele>451.9</ele>
        <time>2021-08-15T09:27:36Z</time>
      </trkpt>
      <trkpt lat="44.01262" lon="2.95779">
        <ele>452.2</ele>
        <time>2021-08-15T09:27:38Z</time>
      </trkpt>
      <trkpt lat="44.01262" lon="2.95773">
        <ele>452.4</ele>
        <time>2021-08-15T09:27:40Z</time>
      </trkpt>
      <trkpt lat="44.01262" lon="2.95769">
        <ele>452.6</ele>
        <time>2021-08-15T09:27:42Z</time>
      </trkpt>
      <trkpt lat="44.01261" lon="2.95763">
        <ele>452.8</ele>
        <time>2021-08-15T09:27:44Z</time>
      </trkpt>
      <trkpt lat="44.01261" lon="2.95759">
        <ele>453</ele>
        <time>2021-08-15T09:27:46Z</time>
      </trkpt>
      <trkpt lat="44.0126" lon="2.95753">
        <ele>453.2</ele>
        <time>2021-08-15T09:27:48Z</time>
      </trkpt>
      <trkpt lat="44.0126" lon="2.95748">
        <ele>453.3</ele>
        <time>2021-08-15T09:27:50Z</time>
      </trkpt>
      <trkpt lat="44.01259" lon="2.95743">
        <ele>453.3</ele>
        <time>2021-08-15T09:27:52Z</time>
      </trkpt>
      <trkpt lat="44.01258" lon="2.95737">
        <ele>453.1</ele>
        <time>2021-08-15T09:27:54Z</time>
      </trkpt>
      <trkpt lat="44.01257" lon="2.95732">
        <ele>453</ele>
        <time>2021-08-15T09:27:56Z</time>
      </trkpt>
      <trkpt lat="44.01256" lon="2.95727">
        <ele>452.9</ele>
        <time>2021-08-15T09:27:58Z</time>
      </trkpt>
      <trkpt lat="44.01255" lon="2.95722">
        <ele>452.7</ele>
        <time>2021-08-15T09:28:00Z</time>
      </trkpt>
      <trkpt lat="44.01254" lon="2.95717">
        <ele>452.5</ele>
        <time>2021-08-15T09:28:02Z</time>
      </trkpt>
      <trkpt lat="44.01253" lon="2.95712">
        <ele>452.3</ele>
        <time>2021-08-15T09:28:04Z</time>
      </trkpt>
      <trkpt lat="44.01251" lon="2.95706">
        <ele>452.1</ele>
        <time>2021-08-15T09:28:06Z</time>
      </trkpt>
      <trkpt lat="44.0125" lon="2.95701">
        <ele>452</ele>
        <time>2021-08-15T09:28:08Z</time>
      </trkpt>
      <trkpt lat="44.01248" lon="2.95696">
        <ele>452.2</ele>
        <time>2021-08-15T09:28:10Z</time>
      </trkpt>
      <trkpt lat="44.01247" lon="2.95691">
        <ele>452.6</ele>
        <time>2021-08-15T09:28:12Z</time>
      </trkpt>
      <trkpt lat="44.01245" lon="2.95686">
        <ele>453</ele>
        <time>2021-08-15T09:28:14Z</time>
      </trkpt>
      <trkpt lat="44.01243" lon="2.9568">
        <ele>453.3</ele>
        <time>2021-08-15T09:28:16Z</time>
      </trkpt>
      <trkpt lat="44.01242" lon="2.95676">
        <ele>453.7</ele>
        <time>2021-08-15T09:28:18Z</time>
      </trkpt>
      <trkpt lat="44.0124" lon="2.95671">
        <ele>454.1</ele>
        <time>2021-08-15T09:28:20Z</time>
      </trkpt>
      <trkpt lat="44.01239" lon="2.95666">
        <ele>454.4</ele>
        <time>2021-08-15T09:28:22Z</time>
      </trkpt>
      <trkpt lat="44.01238" lon="2.95661">
        <ele>454.9</ele>
        <time>2021-08-15T09:28:24Z</time>
      </trkpt>
      <trkpt lat="44.01235" lon="2.95657">
        <ele>455.8</ele>
        <time>2021-08-15T09:28:26Z</time>
      </trkpt>
      <trkpt lat="44.01234" lon="2.95652">
        <ele>456.5</ele>
        <time>2021-08-15T09:28:28Z</time>
      </trkpt>
      <trkpt lat="44.01233" lon="2.95647">
        <ele>456.8</ele>
        <time>2021-08-15T09:28:30Z</time>
      </trkpt>
      <trkpt lat="44.01231" lon="2.95641">
        <ele>457.5</ele>
        <time>2021-08-15T09:28:32Z</time>
      </trkpt>
      <trkpt lat="44.0123" lon="2.95636">
        <ele>457.9</ele>
        <time>2021-08-15T09:28:34Z</time>
      </trkpt>
      <trkpt lat="44.01229" lon="2.95631">
        <ele>458.4</ele>
        <time>2021-08-15T09:28:36Z</time>
      </trkpt>
      <trkpt lat="44.01227" lon="2.95627">
        <ele>459.1</ele>
        <time>2021-08-15T09:28:38Z</time>
      </trkpt>
      <trkpt lat="44.01225" lon="2.95622">
        <ele>459.6</ele>
        <time>2021-08-15T09:28:40Z</time>
      </trkpt>
      <trkpt lat="44.01224" lon="2.95616">
        <ele>460.2</ele>
        <time>2021-08-15T09:28:42Z</time>
      </trkpt>
      <trkpt lat="44.01223" lon="2.95611">
        <ele>460.4</ele>
        <time>2021-08-15T09:28:44Z</time>
      </trkpt>
      <trkpt lat="44.01222" lon="2.95606">
        <ele>461.1</ele>
        <time>2021-08-15T09:28:46Z</time>
      </trkpt>
      <trkpt lat="44.01222" lon="2.95601">
        <ele>461.2</ele>
        <time>2021-08-15T09:28:48Z</time>
      </trkpt>
      <trkpt lat="44.01221" lon="2.95595">
        <ele>461.3</ele>
        <time>2021-08-15T09:28:50Z</time>
      </trkpt>
      <trkpt lat="44.01221" lon="2.9559">
        <ele>461.7</ele>
        <time>2021-08-15T09:28:52Z</time>
      </trkpt>
      <trkpt lat="44.0122" lon="2.95584">
        <ele>462</ele>
        <time>2021-08-15T09:28:54Z</time>
      </trkpt>
      <trkpt lat="44.0122" lon="2.95578">
        <ele>462.2</ele>
        <time>2021-08-15T09:28:56Z</time>
      </trkpt>
      <trkpt lat="44.01219" lon="2.95573">
        <ele>462.7</ele>
        <time>2021-08-15T09:28:58Z</time>
      </trkpt>
      <trkpt lat="44.01219" lon="2.95568">
        <ele>462.9</ele>
        <time>2021-08-15T09:29:00Z</time>
      </trkpt>
      <trkpt lat="44.01218" lon="2.95563">
        <ele>463.2</ele>
        <time>2021-08-15T09:29:02Z</time>
      </trkpt>
      <trkpt lat="44.01218" lon="2.95558">
        <ele>463.4</ele>
        <time>2021-08-15T09:29:04Z</time>
      </trkpt>
      <trkpt lat="44.01219" lon="2.95553">
        <ele>463.3</ele>
        <time>2021-08-15T09:29:06Z</time>
      </trkpt>
      <trkpt lat="44.01218" lon="2.95547">
        <ele>463.6</ele>
        <time>2021-08-15T09:29:08Z</time>
      </trkpt>
      <trkpt lat="44.01218" lon="2.95541">
        <ele>463.7</ele>
        <time>2021-08-15T09:29:10Z</time>
      </trkpt>
      <trkpt lat="44.01219" lon="2.95536">
        <ele>463.8</ele>
        <time>2021-08-15T09:29:12Z</time>
      </trkpt>
      <trkpt lat="44.01219" lon="2.9553">
        <ele>463.9</ele>
        <time>2021-08-15T09:29:14Z</time>
      </trkpt>
      <trkpt lat="44.01219" lon="2.95525">
        <ele>464.1</ele>
        <time>2021-08-15T09:29:16Z</time>
      </trkpt>
      <trkpt lat="44.01219" lon="2.9552">
        <ele>464.3</ele>
        <time>2021-08-15T09:29:18Z</time>
      </trkpt>
      <trkpt lat="44.01218" lon="2.95514">
        <ele>464.6</ele>
        <time>2021-08-15T09:29:20Z</time>
      </trkpt>
      <trkpt lat="44.01218" lon="2.95509">
        <ele>464.8</ele>
        <time>2021-08-15T09:29:22Z</time>
      </trkpt>
      <trkpt lat="44.01218" lon="2.95505">
        <ele>464.9</ele>
        <time>2021-08-15T09:29:24Z</time>
      </trkpt>
      <trkpt lat="44.01219" lon="2.955">
        <ele>464.9</ele>
        <time>2021-08-15T09:29:26Z</time>
      </trkpt>
      <trkpt lat="44.0122" lon="2.95495">
        <ele>464.6</ele>
        <time>2021-08-15T09:29:28Z</time>
      </trkpt>
      <trkpt lat="44.0122" lon="2.95489">
        <ele>464.6</ele>
        <time>2021-08-15T09:29:30Z</time>
      </trkpt>
      <trkpt lat="44.0122" lon="2.95483">
        <ele>464.7</ele>
        <time>2021-08-15T09:29:32Z</time>
      </trkpt>
      <trkpt lat="44.0122" lon="2.95478">
        <ele>464.7</ele>
        <time>2021-08-15T09:29:34Z</time>
      </trkpt>
      <trkpt lat="44.0122" lon="2.95472">
        <ele>464.8</ele>
        <time>2021-08-15T09:29:36Z</time>
      </trkpt>
      <trkpt lat="44.0122" lon="2.95466">
        <ele>464.8</ele>
        <time>2021-08-15T09:29:38Z</time>
      </trkpt>
      <trkpt lat="44.0122" lon="2.95461">
        <ele>464.8</ele>
        <time>2021-08-15T09:29:40Z</time>
      </trkpt>
      <trkpt lat="44.01221" lon="2.95455">
        <ele>464.8</ele>
        <time>2021-08-15T09:29:42Z</time>
      </trkpt>
      <trkpt lat="44.0122" lon="2.9545">
        <ele>464.9</ele>
        <time>2021-08-15T09:29:44Z</time>
      </trkpt>
      <trkpt lat="44.0122" lon="2.95444">
        <ele>465</ele>
        <time>2021-08-15T09:29:46Z</time>
      </trkpt>
      <trkpt lat="44.0122" lon="2.95439">
        <ele>465</ele>
        <time>2021-08-15T09:29:48Z</time>
      </trkpt>
      <trkpt lat="44.0122" lon="2.95434">
        <ele>465.1</ele>
        <time>2021-08-15T09:29:50Z</time>
      </trkpt>
      <trkpt lat="44.0122" lon="2.95428">
        <ele>465.1</ele>
        <time>2021-08-15T09:29:52Z</time>
      </trkpt>
      <trkpt lat="44.01219" lon="2.95423">
        <ele>465.5</ele>
        <time>2021-08-15T09:29:54Z</time>
      </trkpt>
      <trkpt lat="44.01219" lon="2.95417">
        <ele>465.5</ele>
        <time>2021-08-15T09:29:56Z</time>
      </trkpt>
      <trkpt lat="44.01219" lon="2.95412">
        <ele>465.7</ele>
        <time>2021-08-15T09:29:58Z</time>
      </trkpt>
      <trkpt lat="44.01219" lon="2.95406">
        <ele>466</ele>
        <time>2021-08-15T09:30:00Z</time>
      </trkpt>
      <trkpt lat="44.01218" lon="2.954">
        <ele>466.3</ele>
        <time>2021-08-15T09:30:02Z</time>
      </trkpt>
      <trkpt lat="44.01218" lon="2.95394">
        <ele>466.7</ele>
        <time>2021-08-15T09:30:04Z</time>
      </trkpt>
      <trkpt lat="44.01218" lon="2.95388">
        <ele>466.9</ele>
        <time>2021-08-15T09:30:06Z</time>
      </trkpt>
      <trkpt lat="44.01217" lon="2.95383">
        <ele>467.1</ele>
        <time>2021-08-15T09:30:08Z</time>
      </trkpt>
      <trkpt lat="44.01217" lon="2.95377">
        <ele>467.4</ele>
        <time>2021-08-15T09:30:10Z</time>
      </trkpt>
      <trkpt lat="44.01218" lon="2.95372">
        <ele>467.5</ele>
        <time>2021-08-15T09:30:12Z</time>
      </trkpt>
      <trkpt lat="44.01217" lon="2.95366">
        <ele>467.8</ele>
        <time>2021-08-15T09:30:14Z</time>
      </trkpt>
      <trkpt lat="44.01216" lon="2.95361">
        <ele>468.2</ele>
        <time>2021-08-15T09:30:16Z</time>
      </trkpt>
      <trkpt lat="44.01215" lon="2.95357">
        <ele>468.7</ele>
        <time>2021-08-15T09:30:18Z</time>
      </trkpt>
      <trkpt lat="44.01216" lon="2.95351">
        <ele>468.6</ele>
        <time>2021-08-15T09:30:20Z</time>
      </trkpt>
      <trkpt lat="44.01217" lon="2.95346">
        <ele>468.5</ele>
        <time>2021-08-15T09:30:22Z</time>
      </trkpt>
      <trkpt lat="44.01216" lon="2.9534">
        <ele>468.8</ele>
        <time>2021-08-15T09:30:24Z</time>
      </trkpt>
      <trkpt lat="44.01217" lon="2.95335">
        <ele>469</ele>
        <time>2021-08-15T09:30:26Z</time>
      </trkpt>
      <trkpt lat="44.01216" lon="2.9533">
        <ele>469.2</ele>
        <time>2021-08-15T09:30:28Z</time>
      </trkpt>
      <trkpt lat="44.01216" lon="2.95324">
        <ele>469.5</ele>
        <time>2021-08-15T09:30:30Z</time>
      </trkpt>
      <trkpt lat="44.01216" lon="2.95319">
        <ele>469.8</ele>
        <time>2021-08-15T09:30:32Z</time>
      </trkpt>
      <trkpt lat="44.01216" lon="2.95313">
        <ele>470</ele>
        <time>2021-08-15T09:30:34Z</time>
      </trkpt>
      <trkpt lat="44.01215" lon="2.95307">
        <ele>470.3</ele>
        <time>2021-08-15T09:30:36Z</time>
      </trkpt>
      <trkpt lat="44.01214" lon="2.95302">
        <ele>470.8</ele>
        <time>2021-08-15T09:30:38Z</time>
      </trkpt>
      <trkpt lat="44.01214" lon="2.95296">
        <ele>471.1</ele>
        <time>2021-08-15T09:30:40Z</time>
      </trkpt>
      <trkpt lat="44.01212" lon="2.95291">
        <ele>471.5</ele>
        <time>2021-08-15T09:30:42Z</time>
      </trkpt>
      <trkpt lat="44.01211" lon="2.95286">
        <ele>471.9</ele>
        <time>2021-08-15T09:30:44Z</time>
      </trkpt>
      <trkpt lat="44.0121" lon="2.95282">
        <ele>472.3</ele>
        <time>2021-08-15T09:30:46Z</time>
      </trkpt>
      <trkpt lat="44.01208" lon="2.95277">
        <ele>472.8</ele>
        <time>2021-08-15T09:30:48Z</time>
      </trkpt>
      <trkpt lat="44.01205" lon="2.95273">
        <ele>473.3</ele>
        <time>2021-08-15T09:30:50Z</time>
      </trkpt>
      <trkpt lat="44.01204" lon="2.95269">
        <ele>473.7</ele>
        <time>2021-08-15T09:30:52Z</time>
      </trkpt>
      <trkpt lat="44.01201" lon="2.95266">
        <ele>474.1</ele>
        <time>2021-08-15T09:30:54Z</time>
      </trkpt>
      <trkpt lat="44.012" lon="2.95262">
        <ele>474.4</ele>
        <time>2021-08-15T09:30:56Z</time>
      </trkpt>
      <trkpt lat="44.01197" lon="2.95259">
        <ele>474.9</ele>
        <time>2021-08-15T09:30:58Z</time>
      </trkpt>
      <trkpt lat="44.01193" lon="2.95255">
        <ele>475.4</ele>
        <time>2021-08-15T09:31:00Z</time>
      </trkpt>
      <trkpt lat="44.0119" lon="2.95252">
        <ele>475.8</ele>
        <time>2021-08-15T09:31:02Z</time>
      </trkpt>
      <trkpt lat="44.01187" lon="2.95248">
        <ele>476.2</ele>
        <time>2021-08-15T09:31:04Z</time>
      </trkpt>
      <trkpt lat="44.01185" lon="2.95245">
        <ele>476.5</ele>
        <time>2021-08-15T09:31:06Z</time>
      </trkpt>
      <trkpt lat="44.01182" lon="2.95242">
        <ele>476.8</ele>
        <time>2021-08-15T09:31:08Z</time>
      </trkpt>
      <trkpt lat="44.0118" lon="2.95238">
        <ele>476.9</ele>
        <time>2021-08-15T09:31:10Z</time>
      </trkpt>
      <trkpt lat="44.01178" lon="2.95234">
        <ele>477</ele>
        <time>2021-08-15T09:31:12Z</time>
      </trkpt>
      <trkpt lat="44.01175" lon="2.95231">
        <ele>477.1</ele>
        <time>2021-08-15T09:31:14Z</time>
      </trkpt>
      <trkpt lat="44.01173" lon="2.95226">
        <ele>477.1</ele>
        <time>2021-08-15T09:31:16Z</time>
      </trkpt>
      <trkpt lat="44.0117" lon="2.95222">
        <ele>477</ele>
        <time>2021-08-15T09:31:18Z</time>
      </trkpt>
      <trkpt lat="44.01168" lon="2.95217">
        <ele>477</ele>
        <time>2021-08-15T09:31:20Z</time>
      </trkpt>
      <trkpt lat="44.01166" lon="2.95212">
        <ele>477</ele>
        <time>2021-08-15T09:31:22Z</time>
      </trkpt>
      <trkpt lat="44.01164" lon="2.95207">
        <ele>477.1</ele>
        <time>2021-08-15T09:31:24Z</time>
      </trkpt>
      <trkpt lat="44.01162" lon="2.95202">
        <ele>477.3</ele>
        <time>2021-08-15T09:31:26Z</time>
      </trkpt>
      <trkpt lat="44.01161" lon="2.95199">
        <ele>477.5</ele>
        <time>2021-08-15T09:31:28Z</time>
      </trkpt>
      <trkpt lat="44.01159" lon="2.95193">
        <ele>477.6</ele>
        <time>2021-08-15T09:31:30Z</time>
      </trkpt>
      <trkpt lat="44.01158" lon="2.95187">
        <ele>477.6</ele>
        <time>2021-08-15T09:31:32Z</time>
      </trkpt>
      <trkpt lat="44.01157" lon="2.95181">
        <ele>477.7</ele>
        <time>2021-08-15T09:31:34Z</time>
      </trkpt>
      <trkpt lat="44.01156" lon="2.95175">
        <ele>477.7</ele>
        <time>2021-08-15T09:31:36Z</time>
      </trkpt>
      <trkpt lat="44.01155" lon="2.9517">
        <ele>477.6</ele>
        <time>2021-08-15T09:31:38Z</time>
      </trkpt>
      <trkpt lat="44.01154" lon="2.95164">
        <ele>478.1</ele>
        <time>2021-08-15T09:31:40Z</time>
      </trkpt>
      <trkpt lat="44.01153" lon="2.95158">
        <ele>478.6</ele>
        <time>2021-08-15T09:31:42Z</time>
      </trkpt>
      <trkpt lat="44.01152" lon="2.95152">
        <ele>479.1</ele>
        <time>2021-08-15T09:31:44Z</time>
      </trkpt>
      <trkpt lat="44.01151" lon="2.95147">
        <ele>479.6</ele>
        <time>2021-08-15T09:31:46Z</time>
      </trkpt>
      <trkpt lat="44.01152" lon="2.95142">
        <ele>479.7</ele>
        <time>2021-08-15T09:31:48Z</time>
      </trkpt>
      <trkpt lat="44.01151" lon="2.95137">
        <ele>480.1</ele>
        <time>2021-08-15T09:31:50Z</time>
      </trkpt>
      <trkpt lat="44.01152" lon="2.95131">
        <ele>480.3</ele>
        <time>2021-08-15T09:31:52Z</time>
      </trkpt>
      <trkpt lat="44.01152" lon="2.95126">
        <ele>480.6</ele>
        <time>2021-08-15T09:31:54Z</time>
      </trkpt>
      <trkpt lat="44.01152" lon="2.9512">
        <ele>480.8</ele>
        <time>2021-08-15T09:31:56Z</time>
      </trkpt>
      <trkpt lat="44.01151" lon="2.95114">
        <ele>481.2</ele>
        <time>2021-08-15T09:31:58Z</time>
      </trkpt>
      <trkpt lat="44.01152" lon="2.95109">
        <ele>481.3</ele>
        <time>2021-08-15T09:32:00Z</time>
      </trkpt>
      <trkpt lat="44.01152" lon="2.95103">
        <ele>481.7</ele>
        <time>2021-08-15T09:32:02Z</time>
      </trkpt>
      <trkpt lat="44.01152" lon="2.95097">
        <ele>481.8</ele>
        <time>2021-08-15T09:32:04Z</time>
      </trkpt>
      <trkpt lat="44.01152" lon="2.95092">
        <ele>482</ele>
        <time>2021-08-15T09:32:06Z</time>
      </trkpt>
      <trkpt lat="44.01153" lon="2.95086">
        <ele>482.2</ele>
        <time>2021-08-15T09:32:08Z</time>
      </trkpt>
      <trkpt lat="44.01153" lon="2.95081">
        <ele>482.4</ele>
        <time>2021-08-15T09:32:10Z</time>
      </trkpt>
      <trkpt lat="44.01153" lon="2.95075">
        <ele>482.6</ele>
        <time>2021-08-15T09:32:12Z</time>
      </trkpt>
      <trkpt lat="44.01154" lon="2.9507">
        <ele>482.5</ele>
        <time>2021-08-15T09:32:14Z</time>
      </trkpt>
      <trkpt lat="44.01155" lon="2.95064">
        <ele>482.6</ele>
        <time>2021-08-15T09:32:16Z</time>
      </trkpt>
      <trkpt lat="44.01155" lon="2.95059">
        <ele>482.9</ele>
        <time>2021-08-15T09:32:18Z</time>
      </trkpt>
      <trkpt lat="44.01155" lon="2.95053">
        <ele>483.2</ele>
        <time>2021-08-15T09:32:20Z</time>
      </trkpt>
      <trkpt lat="44.01155" lon="2.95047">
        <ele>483.4</ele>
        <time>2021-08-15T09:32:22Z</time>
      </trkpt>
      <trkpt lat="44.01155" lon="2.95042">
        <ele>483.6</ele>
        <time>2021-08-15T09:32:24Z</time>
      </trkpt>
      <trkpt lat="44.01155" lon="2.95036">
        <ele>483.9</ele>
        <time>2021-08-15T09:32:26Z</time>
      </trkpt>
      <trkpt lat="44.01155" lon="2.95031">
        <ele>484.1</ele>
        <time>2021-08-15T09:32:28Z</time>
      </trkpt>
      <trkpt lat="44.01156" lon="2.95025">
        <ele>484.3</ele>
        <time>2021-08-15T09:32:30Z</time>
      </trkpt>
      <trkpt lat="44.01156" lon="2.9502">
        <ele>484.5</ele>
        <time>2021-08-15T09:32:32Z</time>
      </trkpt>
      <trkpt lat="44.01156" lon="2.95014">
        <ele>484.7</ele>
        <time>2021-08-15T09:32:34Z</time>
      </trkpt>
      <trkpt lat="44.01157" lon="2.95009">
        <ele>484.7</ele>
        <time>2021-08-15T09:32:36Z</time>
      </trkpt>
      <trkpt lat="44.01156" lon="2.95004">
        <ele>485.3</ele>
        <time>2021-08-15T09:32:38Z</time>
      </trkpt>
      <trkpt lat="44.01156" lon="2.94999">
        <ele>485.6</ele>
        <time>2021-08-15T09:32:40Z</time>
      </trkpt>
      <trkpt lat="44.01157" lon="2.94993">
        <ele>485.5</ele>
        <time>2021-08-15T09:32:42Z</time>
      </trkpt>
      <trkpt lat="44.01158" lon="2.94988">
        <ele>485.6</ele>
        <time>2021-08-15T09:32:44Z</time>
      </trkpt>
      <trkpt lat="44.01158" lon="2.94982">
        <ele>485.9</ele>
        <time>2021-08-15T09:32:46Z</time>
      </trkpt>
      <trkpt lat="44.01158" lon="2.94977">
        <ele>486.2</ele>
        <time>2021-08-15T09:32:48Z</time>
      </trkpt>
      <trkpt lat="44.01158" lon="2.94971">
        <ele>486.6</ele>
        <time>2021-08-15T09:32:50Z</time>
      </trkpt>
      <trkpt lat="44.01159" lon="2.94966">
        <ele>486.8</ele>
        <time>2021-08-15T09:32:52Z</time>
      </trkpt>
      <trkpt lat="44.0116" lon="2.9496">
        <ele>486.9</ele>
        <time>2021-08-15T09:32:54Z</time>
      </trkpt>
      <trkpt lat="44.01161" lon="2.94954">
        <ele>487</ele>
        <time>2021-08-15T09:32:56Z</time>
      </trkpt>
      <trkpt lat="44.01162" lon="2.94949">
        <ele>487</ele>
        <time>2021-08-15T09:32:58Z</time>
      </trkpt>
      <trkpt lat="44.01163" lon="2.94944">
        <ele>487.2</ele>
        <time>2021-08-15T09:33:00Z</time>
      </trkpt>
      <trkpt lat="44.01164" lon="2.94938">
        <ele>487.3</ele>
        <time>2021-08-15T09:33:02Z</time>
      </trkpt>
      <trkpt lat="44.01165" lon="2.94933">
        <ele>487.4</ele>
        <time>2021-08-15T09:33:04Z</time>
      </trkpt>
      <trkpt lat="44.01166" lon="2.94928">
        <ele>487.5</ele>
        <time>2021-08-15T09:33:06Z</time>
      </trkpt>
      <trkpt lat="44.01167" lon="2.94922">
        <ele>487.6</ele>
        <time>2021-08-15T09:33:08Z</time>
      </trkpt>
      <trkpt lat="44.01168" lon="2.94917">
        <ele>488</ele>
        <time>2021-08-15T09:33:10Z</time>
      </trkpt>
      <trkpt lat="44.0117" lon="2.94912">
        <ele>488.5</ele>
        <time>2021-08-15T09:33:12Z</time>
      </trkpt>
      <trkpt lat="44.01171" lon="2.94907">
        <ele>489.1</ele>
        <time>2021-08-15T09:33:14Z</time>
      </trkpt>
      <trkpt lat="44.01172" lon="2.94901">
        <ele>489.6</ele>
        <time>2021-08-15T09:33:16Z</time>
      </trkpt>
      <trkpt lat="44.01173" lon="2.94896">
        <ele>490.1</ele>
        <time>2021-08-15T09:33:18Z</time>
      </trkpt>
      <trkpt lat="44.01174" lon="2.94891">
        <ele>490.6</ele>
        <time>2021-08-15T09:33:20Z</time>
      </trkpt>
      <trkpt lat="44.01175" lon="2.94886">
        <ele>491</ele>
        <time>2021-08-15T09:33:22Z</time>
      </trkpt>
      <trkpt lat="44.01176" lon="2.94881">
        <ele>491.5</ele>
        <time>2021-08-15T09:33:24Z</time>
      </trkpt>
      <trkpt lat="44.01177" lon="2.94876">
        <ele>491.9</ele>
        <time>2021-08-15T09:33:26Z</time>
      </trkpt>
      <trkpt lat="44.01179" lon="2.94871">
        <ele>492.3</ele>
        <time>2021-08-15T09:33:28Z</time>
      </trkpt>
      <trkpt lat="44.0118" lon="2.94866">
        <ele>492.7</ele>
        <time>2021-08-15T09:33:30Z</time>
      </trkpt>
      <trkpt lat="44.01181" lon="2.94861">
        <ele>493</ele>
        <time>2021-08-15T09:33:32Z</time>
      </trkpt>
      <trkpt lat="44.01182" lon="2.94856">
        <ele>493.4</ele>
        <time>2021-08-15T09:33:34Z</time>
      </trkpt>
      <trkpt lat="44.01183" lon="2.94851">
        <ele>493.8</ele>
        <time>2021-08-15T09:33:36Z</time>
      </trkpt>
      <trkpt lat="44.01184" lon="2.94846">
        <ele>494.1</ele>
        <time>2021-08-15T09:33:38Z</time>
      </trkpt>
      <trkpt lat="44.01185" lon="2.9484">
        <ele>494.4</ele>
        <time>2021-08-15T09:33:40Z</time>
      </trkpt>
      <trkpt lat="44.01187" lon="2.94835">
        <ele>494.7</ele>
        <time>2021-08-15T09:33:42Z</time>
      </trkpt>
      <trkpt lat="44.01188" lon="2.9483">
        <ele>495</ele>
        <time>2021-08-15T09:33:44Z</time>
      </trkpt>
      <trkpt lat="44.01189" lon="2.94825">
        <ele>495.3</ele>
        <time>2021-08-15T09:33:46Z</time>
      </trkpt>
      <trkpt lat="44.0119" lon="2.9482">
        <ele>495.6</ele>
        <time>2021-08-15T09:33:48Z</time>
      </trkpt>
      <trkpt lat="44.01192" lon="2.94815">
        <ele>495.9</ele>
        <time>2021-08-15T09:33:50Z</time>
      </trkpt>
      <trkpt lat="44.01193" lon="2.94809">
        <ele>496.1</ele>
        <time>2021-08-15T09:33:52Z</time>
      </trkpt>
      <trkpt lat="44.01194" lon="2.94804">
        <ele>496.3</ele>
        <time>2021-08-15T09:33:54Z</time>
      </trkpt>
      <trkpt lat="44.01195" lon="2.94799">
        <ele>496.6</ele>
        <time>2021-08-15T09:33:56Z</time>
      </trkpt>
      <trkpt lat="44.01195" lon="2.94794">
        <ele>497</ele>
        <time>2021-08-15T09:33:58Z</time>
      </trkpt>
      <trkpt lat="44.01198" lon="2.9479">
        <ele>497</ele>
        <time>2021-08-15T09:34:00Z</time>
      </trkpt>
      <trkpt lat="44.01199" lon="2.94784">
        <ele>497.3</ele>
        <time>2021-08-15T09:34:02Z</time>
      </trkpt>
      <trkpt lat="44.012" lon="2.94779">
        <ele>497.4</ele>
        <time>2021-08-15T09:34:04Z</time>
      </trkpt>
      <trkpt lat="44.01202" lon="2.94774">
        <ele>497.5</ele>
        <time>2021-08-15T09:34:06Z</time>
      </trkpt>
      <trkpt lat="44.01202" lon="2.94769">
        <ele>497.8</ele>
        <time>2021-08-15T09:34:08Z</time>
      </trkpt>
      <trkpt lat="44.01203" lon="2.94763">
        <ele>498</ele>
        <time>2021-08-15T09:34:10Z</time>
      </trkpt>
      <trkpt lat="44.01205" lon="2.94759">
        <ele>498.1</ele>
        <time>2021-08-15T09:34:12Z</time>
      </trkpt>
      <trkpt lat="44.01206" lon="2.94753">
        <ele>498.2</ele>
        <time>2021-08-15T09:34:14Z</time>
      </trkpt>
      <trkpt lat="44.01208" lon="2.94748">
        <ele>498.2</ele>
        <time>2021-08-15T09:34:16Z</time>
      </trkpt>
      <trkpt lat="44.01209" lon="2.94743">
        <ele>498.5</ele>
        <time>2021-08-15T09:34:18Z</time>
      </trkpt>
      <trkpt lat="44.01211" lon="2.94738">
        <ele>498.6</ele>
        <time>2021-08-15T09:34:20Z</time>
      </trkpt>
      <trkpt lat="44.01212" lon="2.94733">
        <ele>498.8</ele>
        <time>2021-08-15T09:34:22Z</time>
      </trkpt>
      <trkpt lat="44.01213" lon="2.94728">
        <ele>498.8</ele>
        <time>2021-08-15T09:34:24Z</time>
      </trkpt>
      <trkpt lat="44.01216" lon="2.94723">
        <ele>498.8</ele>
        <time>2021-08-15T09:34:26Z</time>
      </trkpt>
      <trkpt lat="44.01217" lon="2.94718">
        <ele>498.9</ele>
        <time>2021-08-15T09:34:28Z</time>
      </trkpt>
      <trkpt lat="44.01219" lon="2.94714">
        <ele>498.9</ele>
        <time>2021-08-15T09:34:30Z</time>
      </trkpt>
      <trkpt lat="44.01221" lon="2.94709">
        <ele>498.9</ele>
        <time>2021-08-15T09:34:32Z</time>
      </trkpt>
      <trkpt lat="44.01223" lon="2.94705">
        <ele>498.7</ele>
        <time>2021-08-15T09:34:34Z</time>
      </trkpt>
      <trkpt lat="44.01226" lon="2.947">
        <ele>498.6</ele>
        <time>2021-08-15T09:34:36Z</time>
      </trkpt>
      <trkpt lat="44.01228" lon="2.94696">
        <ele>498.5</ele>
        <time>2021-08-15T09:34:38Z</time>
      </trkpt>
      <trkpt lat="44.0123" lon="2.94691">
        <ele>498.4</ele>
        <time>2021-08-15T09:34:40Z</time>
      </trkpt>
      <trkpt lat="44.01232" lon="2.94687">
        <ele>498.4</ele>
        <time>2021-08-15T09:34:42Z</time>
      </trkpt>
      <trkpt lat="44.01235" lon="2.94682">
        <ele>498.2</ele>
        <time>2021-08-15T09:34:44Z</time>
      </trkpt>
      <trkpt lat="44.01237" lon="2.94677">
        <ele>498</ele>
        <time>2021-08-15T09:34:46Z</time>
      </trkpt>
      <trkpt lat="44.0124" lon="2.94673">
        <ele>497.8</ele>
        <time>2021-08-15T09:34:48Z</time>
      </trkpt>
      <trkpt lat="44.01242" lon="2.94668">
        <ele>497.6</ele>
        <time>2021-08-15T09:34:50Z</time>
      </trkpt>
      <trkpt lat="44.01244" lon="2.94664">
        <ele>497.6</ele>
        <time>2021-08-15T09:34:52Z</time>
      </trkpt>
      <trkpt lat="44.01247" lon="2.9466">
        <ele>497.6</ele>
        <time>2021-08-15T09:34:54Z</time>
      </trkpt>
      <trkpt lat="44.0125" lon="2.94656">
        <ele>497.5</ele>
        <time>2021-08-15T09:34:56Z</time>
      </trkpt>
      <trkpt lat="44.01253" lon="2.94651">
        <ele>498.1</ele>
        <time>2021-08-15T09:34:58Z</time>
      </trkpt>
      <trkpt lat="44.01256" lon="2.94647">
        <ele>498.7</ele>
        <time>2021-08-15T09:35:00Z</time>
      </trkpt>
      <trkpt lat="44.01258" lon="2.94643">
        <ele>499.2</ele>
        <time>2021-08-15T09:35:02Z</time>
      </trkpt>
      <trkpt lat="44.01262" lon="2.94639">
        <ele>499.6</ele>
        <time>2021-08-15T09:35:04Z</time>
      </trkpt>
      <trkpt lat="44.01264" lon="2.94634">
        <ele>500</ele>
        <time>2021-08-15T09:35:06Z</time>
      </trkpt>
      <trkpt lat="44.01267" lon="2.9463">
        <ele>500.4</ele>
        <time>2021-08-15T09:35:08Z</time>
      </trkpt>
      <trkpt lat="44.0127" lon="2.94626">
        <ele>500.8</ele>
        <time>2021-08-15T09:35:10Z</time>
      </trkpt>
      <trkpt lat="44.01272" lon="2.94622">
        <ele>501.1</ele>
        <time>2021-08-15T09:35:12Z</time>
      </trkpt>
      <trkpt lat="44.01275" lon="2.94618">
        <ele>501.4</ele>
        <time>2021-08-15T09:35:14Z</time>
      </trkpt>
      <trkpt lat="44.01278" lon="2.94614">
        <ele>501.7</ele>
        <time>2021-08-15T09:35:16Z</time>
      </trkpt>
      <trkpt lat="44.01279" lon="2.94609">
        <ele>502</ele>
        <time>2021-08-15T09:35:18Z</time>
      </trkpt>
      <trkpt lat="44.01281" lon="2.94604">
        <ele>502.3</ele>
        <time>2021-08-15T09:35:20Z</time>
      </trkpt>
      <trkpt lat="44.01284" lon="2.94599">
        <ele>502.5</ele>
        <time>2021-08-15T09:35:22Z</time>
      </trkpt>
      <trkpt lat="44.01287" lon="2.94595">
        <ele>502.6</ele>
        <time>2021-08-15T09:35:24Z</time>
      </trkpt>
      <trkpt lat="44.01289" lon="2.9459">
        <ele>502.8</ele>
        <time>2021-08-15T09:35:26Z</time>
      </trkpt>
      <trkpt lat="44.01291" lon="2.94585">
        <ele>503</ele>
        <time>2021-08-15T09:35:28Z</time>
      </trkpt>
      <trkpt lat="44.01292" lon="2.9458">
        <ele>503.1</ele>
        <time>2021-08-15T09:35:30Z</time>
      </trkpt>
      <trkpt lat="44.01293" lon="2.94575">
        <ele>503.2</ele>
        <time>2021-08-15T09:35:32Z</time>
      </trkpt>
      <trkpt lat="44.01294" lon="2.9457">
        <ele>503.2</ele>
        <time>2021-08-15T09:35:34Z</time>
      </trkpt>
      <trkpt lat="44.01296" lon="2.94565">
        <ele>503.3</ele>
        <time>2021-08-15T09:35:36Z</time>
      </trkpt>
      <trkpt lat="44.01297" lon="2.94559">
        <ele>503.3</ele>
        <time>2021-08-15T09:35:38Z</time>
      </trkpt>
      <trkpt lat="44.01298" lon="2.94553">
        <ele>503.4</ele>
        <time>2021-08-15T09:35:40Z</time>
      </trkpt>
      <trkpt lat="44.01299" lon="2.94548">
        <ele>503.5</ele>
        <time>2021-08-15T09:35:42Z</time>
      </trkpt>
      <trkpt lat="44.01299" lon="2.94542">
        <ele>503.7</ele>
        <time>2021-08-15T09:35:44Z</time>
      </trkpt>
      <trkpt lat="44.013" lon="2.94536">
        <ele>503.8</ele>
        <time>2021-08-15T09:35:46Z</time>
      </trkpt>
      <trkpt lat="44.01301" lon="2.94531">
        <ele>503.9</ele>
        <time>2021-08-15T09:35:48Z</time>
      </trkpt>
      <trkpt lat="44.01301" lon="2.94525">
        <ele>504</ele>
        <time>2021-08-15T09:35:50Z</time>
      </trkpt>
      <trkpt lat="44.01302" lon="2.9452">
        <ele>504.1</ele>
        <time>2021-08-15T09:35:52Z</time>
      </trkpt>
      <trkpt lat="44.01303" lon="2.94513">
        <ele>504.3</ele>
        <time>2021-08-15T09:35:54Z</time>
      </trkpt>
      <trkpt lat="44.01303" lon="2.94507">
        <ele>504.4</ele>
        <time>2021-08-15T09:35:56Z</time>
      </trkpt>
      <trkpt lat="44.01304" lon="2.94501">
        <ele>504.5</ele>
        <time>2021-08-15T09:35:58Z</time>
      </trkpt>
      <trkpt lat="44.01304" lon="2.94495">
        <ele>504.7</ele>
        <time>2021-08-15T09:36:00Z</time>
      </trkpt>
      <trkpt lat="44.01305" lon="2.94489">
        <ele>504.8</ele>
        <time>2021-08-15T09:36:02Z</time>
      </trkpt>
      <trkpt lat="44.01306" lon="2.94482">
        <ele>504.9</ele>
        <time>2021-08-15T09:36:04Z</time>
      </trkpt>
      <trkpt lat="44.01306" lon="2.94474">
        <ele>505.1</ele>
        <time>2021-08-15T09:36:06Z</time>
      </trkpt>
      <trkpt lat="44.01307" lon="2.94468">
        <ele>505.2</ele>
        <time>2021-08-15T09:36:08Z</time>
      </trkpt>
      <trkpt lat="44.01308" lon="2.94461">
        <ele>505.4</ele>
        <time>2021-08-15T09:36:10Z</time>
      </trkpt>
      <trkpt lat="44.01308" lon="2.94455">
        <ele>505.5</ele>
        <time>2021-08-15T09:36:12Z</time>
      </trkpt>
      <trkpt lat="44.01309" lon="2.94449">
        <ele>505.6</ele>
        <time>2021-08-15T09:36:14Z</time>
      </trkpt>
      <trkpt lat="44.0131" lon="2.94442">
        <ele>505.8</ele>
        <time>2021-08-15T09:36:16Z</time>
      </trkpt>
      <trkpt lat="44.0131" lon="2.94435">
        <ele>506</ele>
        <time>2021-08-15T09:36:18Z</time>
      </trkpt>
      <trkpt lat="44.01312" lon="2.94428">
        <ele>506.1</ele>
        <time>2021-08-15T09:36:20Z</time>
      </trkpt>
      <trkpt lat="44.01312" lon="2.94422">
        <ele>506.4</ele>
        <time>2021-08-15T09:36:22Z</time>
      </trkpt>
      <trkpt lat="44.01313" lon="2.94417">
        <ele>506.5</ele>
        <time>2021-08-15T09:36:24Z</time>
      </trkpt>
      <trkpt lat="44.01314" lon="2.94411">
        <ele>506.7</ele>
        <time>2021-08-15T09:36:26Z</time>
      </trkpt>
      <trkpt lat="44.01315" lon="2.94405">
        <ele>506.9</ele>
        <time>2021-08-15T09:36:28Z</time>
      </trkpt>
      <trkpt lat="44.01315" lon="2.94399">
        <ele>507.2</ele>
        <time>2021-08-15T09:36:30Z</time>
      </trkpt>
      <trkpt lat="44.01316" lon="2.94393">
        <ele>507.4</ele>
        <time>2021-08-15T09:36:32Z</time>
      </trkpt>
      <trkpt lat="44.01317" lon="2.94388">
        <ele>507.6</ele>
        <time>2021-08-15T09:36:34Z</time>
      </trkpt>
      <trkpt lat="44.01318" lon="2.94382">
        <ele>507.8</ele>
        <time>2021-08-15T09:36:36Z</time>
      </trkpt>
      <trkpt lat="44.01318" lon="2.94376">
        <ele>508</ele>
        <time>2021-08-15T09:36:38Z</time>
      </trkpt>
      <trkpt lat="44.01319" lon="2.94371">
        <ele>508.3</ele>
        <time>2021-08-15T09:36:40Z</time>
      </trkpt>
      <trkpt lat="44.01319" lon="2.94365">
        <ele>508.5</ele>
        <time>2021-08-15T09:36:42Z</time>
      </trkpt>
      <trkpt lat="44.01321" lon="2.94359">
        <ele>508.7</ele>
        <time>2021-08-15T09:36:44Z</time>
      </trkpt>
      <trkpt lat="44.01321" lon="2.94353">
        <ele>508.9</ele>
        <time>2021-08-15T09:36:46Z</time>
      </trkpt>
      <trkpt lat="44.01321" lon="2.94347">
        <ele>509.2</ele>
        <time>2021-08-15T09:36:48Z</time>
      </trkpt>
      <trkpt lat="44.01323" lon="2.94341">
        <ele>509.4</ele>
        <time>2021-08-15T09:36:50Z</time>
      </trkpt>
      <trkpt lat="44.01324" lon="2.94336">
        <ele>509.6</ele>
        <time>2021-08-15T09:36:52Z</time>
      </trkpt>
      <trkpt lat="44.01324" lon="2.9433">
        <ele>509.8</ele>
        <time>2021-08-15T09:36:54Z</time>
      </trkpt>
      <trkpt lat="44.01325" lon="2.94325">
        <ele>510</ele>
        <time>2021-08-15T09:36:56Z</time>
      </trkpt>
      <trkpt lat="44.01327" lon="2.9432">
        <ele>510.1</ele>
        <time>2021-08-15T09:36:58Z</time>
      </trkpt>
      <trkpt lat="44.01327" lon="2.94314">
        <ele>510.3</ele>
        <time>2021-08-15T09:37:00Z</time>
      </trkpt>
      <trkpt lat="44.01328" lon="2.94309">
        <ele>510.5</ele>
        <time>2021-08-15T09:37:02Z</time>
      </trkpt>
      <trkpt lat="44.0133" lon="2.94304">
        <ele>510.7</ele>
        <time>2021-08-15T09:37:04Z</time>
      </trkpt>
      <trkpt lat="44.01331" lon="2.94298">
        <ele>510.9</ele>
        <time>2021-08-15T09:37:06Z</time>
      </trkpt>
      <trkpt lat="44.01332" lon="2.94293">
        <ele>511.1</ele>
        <time>2021-08-15T09:37:08Z</time>
      </trkpt>
      <trkpt lat="44.01333" lon="2.94287">
        <ele>511.3</ele>
        <time>2021-08-15T09:37:10Z</time>
      </trkpt>
      <trkpt lat="44.01334" lon="2.94281">
        <ele>511.6</ele>
        <time>2021-08-15T09:37:12Z</time>
      </trkpt>
      <trkpt lat="44.01335" lon="2.94276">
        <ele>511.9</ele>
        <time>2021-08-15T09:37:14Z</time>
      </trkpt>
      <trkpt lat="44.01336" lon="2.9427">
        <ele>512.3</ele>
        <time>2021-08-15T09:37:16Z</time>
      </trkpt>
      <trkpt lat="44.01338" lon="2.94264">
        <ele>512.7</ele>
        <time>2021-08-15T09:37:18Z</time>
      </trkpt>
      <trkpt lat="44.01339" lon="2.94258">
        <ele>513</ele>
        <time>2021-08-15T09:37:20Z</time>
      </trkpt>
      <trkpt lat="44.0134" lon="2.94253">
        <ele>513.3</ele>
        <time>2021-08-15T09:37:22Z</time>
      </trkpt>
      <trkpt lat="44.01341" lon="2.94247">
        <ele>513.7</ele>
        <time>2021-08-15T09:37:24Z</time>
      </trkpt>
      <trkpt lat="44.01342" lon="2.94241">
        <ele>514.1</ele>
        <time>2021-08-15T09:37:26Z</time>
      </trkpt>
      <trkpt lat="44.01343" lon="2.94236">
        <ele>514.5</ele>
        <time>2021-08-15T09:37:28Z</time>
      </trkpt>
      <trkpt lat="44.01344" lon="2.9423">
        <ele>514.9</ele>
        <time>2021-08-15T09:37:30Z</time>
      </trkpt>
      <trkpt lat="44.01345" lon="2.94224">
        <ele>515.2</ele>
        <time>2021-08-15T09:37:32Z</time>
      </trkpt>
      <trkpt lat="44.01346" lon="2.94218">
        <ele>515.6</ele>
        <time>2021-08-15T09:37:34Z</time>
      </trkpt>
      <trkpt lat="44.01348" lon="2.94213">
        <ele>515.9</ele>
        <time>2021-08-15T09:37:36Z</time>
      </trkpt>
      <trkpt lat="44.01349" lon="2.94208">
        <ele>516.3</ele>
        <time>2021-08-15T09:37:38Z</time>
      </trkpt>
      <trkpt lat="44.01349" lon="2.94203">
        <ele>516.6</ele>
        <time>2021-08-15T09:37:40Z</time>
      </trkpt>
      <trkpt lat="44.0135" lon="2.94197">
        <ele>516.9</ele>
        <time>2021-08-15T09:37:42Z</time>
      </trkpt>
      <trkpt lat="44.01352" lon="2.94192">
        <ele>517.2</ele>
        <time>2021-08-15T09:37:44Z</time>
      </trkpt>
      <trkpt lat="44.01353" lon="2.94187">
        <ele>517.5</ele>
        <time>2021-08-15T09:37:46Z</time>
      </trkpt>
      <trkpt lat="44.01354" lon="2.94181">
        <ele>517.8</ele>
        <time>2021-08-15T09:37:48Z</time>
      </trkpt>
      <trkpt lat="44.01356" lon="2.94175">
        <ele>518.1</ele>
        <time>2021-08-15T09:37:50Z</time>
      </trkpt>
      <trkpt lat="44.01357" lon="2.94169">
        <ele>518.4</ele>
        <time>2021-08-15T09:37:52Z</time>
      </trkpt>
      <trkpt lat="44.01358" lon="2.94164">
        <ele>518.7</ele>
        <time>2021-08-15T09:37:54Z</time>
      </trkpt>
      <trkpt lat="44.01359" lon="2.94158">
        <ele>518.8</ele>
        <time>2021-08-15T09:37:56Z</time>
      </trkpt>
      <trkpt lat="44.01359" lon="2.94152">
        <ele>519</ele>
        <time>2021-08-15T09:37:58Z</time>
      </trkpt>
      <trkpt lat="44.01361" lon="2.94147">
        <ele>519.2</ele>
        <time>2021-08-15T09:38:00Z</time>
      </trkpt>
      <trkpt lat="44.01362" lon="2.94141">
        <ele>519.4</ele>
        <time>2021-08-15T09:38:02Z</time>
      </trkpt>
      <trkpt lat="44.01362" lon="2.94136">
        <ele>519.6</ele>
        <time>2021-08-15T09:38:04Z</time>
      </trkpt>
      <trkpt lat="44.01363" lon="2.9413">
        <ele>519.7</ele>
        <time>2021-08-15T09:38:06Z</time>
      </trkpt>
      <trkpt lat="44.01364" lon="2.94125">
        <ele>519.9</ele>
        <time>2021-08-15T09:38:08Z</time>
      </trkpt>
      <trkpt lat="44.01366" lon="2.9412">
        <ele>520.1</ele>
        <time>2021-08-15T09:38:10Z</time>
      </trkpt>
      <trkpt lat="44.01367" lon="2.94114">
        <ele>520.3</ele>
        <time>2021-08-15T09:38:12Z</time>
      </trkpt>
      <trkpt lat="44.01368" lon="2.94108">
        <ele>520.5</ele>
        <time>2021-08-15T09:38:14Z</time>
      </trkpt>
      <trkpt lat="44.01369" lon="2.94103">
        <ele>520.7</ele>
        <time>2021-08-15T09:38:16Z</time>
      </trkpt>
      <trkpt lat="44.0137" lon="2.94097">
        <ele>520.9</ele>
        <time>2021-08-15T09:38:18Z</time>
      </trkpt>
      <trkpt lat="44.01371" lon="2.94091">
        <ele>521.1</ele>
        <time>2021-08-15T09:38:20Z</time>
      </trkpt>
      <trkpt lat="44.01372" lon="2.94086">
        <ele>521.3</ele>
        <time>2021-08-15T09:38:22Z</time>
      </trkpt>
      <trkpt lat="44.01374" lon="2.9408">
        <ele>521.6</ele>
        <time>2021-08-15T09:38:24Z</time>
      </trkpt>
      <trkpt lat="44.01375" lon="2.94075">
        <ele>521.8</ele>
        <time>2021-08-15T09:38:26Z</time>
      </trkpt>
      <trkpt lat="44.01376" lon="2.94069">
        <ele>522</ele>
        <time>2021-08-15T09:38:28Z</time>
      </trkpt>
      <trkpt lat="44.01377" lon="2.94063">
        <ele>522.3</ele>
        <time>2021-08-15T09:38:30Z</time>
      </trkpt>
      <trkpt lat="44.01378" lon="2.94057">
        <ele>522.5</ele>
        <time>2021-08-15T09:38:32Z</time>
      </trkpt>
      <trkpt lat="44.01379" lon="2.94051">
        <ele>522.8</ele>
        <time>2021-08-15T09:38:34Z</time>
      </trkpt>
      <trkpt lat="44.0138" lon="2.94044">
        <ele>523.1</ele>
        <time>2021-08-15T09:38:36Z</time>
      </trkpt>
      <trkpt lat="44.01382" lon="2.94037">
        <ele>523.3</ele>
        <time>2021-08-15T09:38:38Z</time>
      </trkpt>
      <trkpt lat="44.01383" lon="2.94031">
        <ele>523.5</ele>
        <time>2021-08-15T09:38:40Z</time>
      </trkpt>
      <trkpt lat="44.01384" lon="2.94025">
        <ele>523.8</ele>
        <time>2021-08-15T09:38:42Z</time>
      </trkpt>
      <trkpt lat="44.01385" lon="2.94019">
        <ele>524</ele>
        <time>2021-08-15T09:38:44Z</time>
      </trkpt>
      <trkpt lat="44.01386" lon="2.94013">
        <ele>524.2</ele>
        <time>2021-08-15T09:38:46Z</time>
      </trkpt>
      <trkpt lat="44.01387" lon="2.94007">
        <ele>524.4</ele>
        <time>2021-08-15T09:38:48Z</time>
      </trkpt>
      <trkpt lat="44.01388" lon="2.94001">
        <ele>524.6</ele>
        <time>2021-08-15T09:38:50Z</time>
      </trkpt>
      <trkpt lat="44.01389" lon="2.93994">
        <ele>524.8</ele>
        <time>2021-08-15T09:38:52Z</time>
      </trkpt>
      <trkpt lat="44.0139" lon="2.93988">
        <ele>525</ele>
        <time>2021-08-15T09:38:54Z</time>
      </trkpt>
      <trkpt lat="44.01391" lon="2.93982">
        <ele>525.1</ele>
        <time>2021-08-15T09:38:56Z</time>
      </trkpt>
      <trkpt lat="44.01392" lon="2.93976">
        <ele>525.3</ele>
        <time>2021-08-15T09:38:58Z</time>
      </trkpt>
      <trkpt lat="44.01392" lon="2.93971">
        <ele>525.4</ele>
        <time>2021-08-15T09:39:00Z</time>
      </trkpt>
      <trkpt lat="44.01393" lon="2.93967">
        <ele>525.5</ele>
        <time>2021-08-15T09:39:02Z</time>
      </trkpt>
      <trkpt lat="44.01394" lon="2.93961">
        <ele>525.6</ele>
        <time>2021-08-15T09:39:04Z</time>
      </trkpt>
      <trkpt lat="44.01397" lon="2.93956">
        <ele>525.6</ele>
        <time>2021-08-15T09:39:06Z</time>
      </trkpt>
      <trkpt lat="44.01401" lon="2.93954">
        <ele>525.5</ele>
        <time>2021-08-15T09:39:08Z</time>
      </trkpt>
      <trkpt lat="44.01404" lon="2.93954">
        <ele>525.4</ele>
        <time>2021-08-15T09:39:10Z</time>
      </trkpt>
      <trkpt lat="44.01407" lon="2.93955">
        <ele>525.3</ele>
        <time>2021-08-15T09:39:12Z</time>
      </trkpt>
      <trkpt lat="44.0141" lon="2.93956">
        <ele>525.2</ele>
        <time>2021-08-15T09:39:14Z</time>
      </trkpt>
      <trkpt lat="44.01413" lon="2.93959">
        <ele>525.1</ele>
        <time>2021-08-15T09:39:16Z</time>
      </trkpt>
      <trkpt lat="44.01416" lon="2.93961">
        <ele>525</ele>
        <time>2021-08-15T09:39:18Z</time>
      </trkpt>
      <trkpt lat="44.01419" lon="2.93962">
        <ele>524.9</ele>
        <time>2021-08-15T09:39:20Z</time>
      </trkpt>
      <trkpt lat="44.01422" lon="2.93965">
        <ele>524.9</ele>
        <time>2021-08-15T09:39:22Z</time>
      </trkpt>
      <trkpt lat="44.01425" lon="2.93969">
        <ele>524.8</ele>
        <time>2021-08-15T09:39:24Z</time>
      </trkpt>
      <trkpt lat="44.01429" lon="2.93973">
        <ele>524.8</ele>
        <time>2021-08-15T09:39:26Z</time>
      </trkpt>
      <trkpt lat="44.01432" lon="2.93977">
        <ele>524.8</ele>
        <time>2021-08-15T09:39:28Z</time>
      </trkpt>
      <trkpt lat="44.01435" lon="2.93981">
        <ele>524.8</ele>
        <time>2021-08-15T09:39:30Z</time>
      </trkpt>
      <trkpt lat="44.01438" lon="2.93985">
        <ele>524.8</ele>
        <time>2021-08-15T09:39:32Z</time>
      </trkpt>
      <trkpt lat="44.01441" lon="2.9399">
        <ele>524.9</ele>
        <time>2021-08-15T09:39:34Z</time>
      </trkpt>
      <trkpt lat="44.01444" lon="2.93995">
        <ele>524.9</ele>
        <time>2021-08-15T09:39:36Z</time>
      </trkpt>
      <trkpt lat="44.01447" lon="2.94002">
        <ele>525</ele>
        <time>2021-08-15T09:39:38Z</time>
      </trkpt>
      <trkpt lat="44.01449" lon="2.9401">
        <ele>524.9</ele>
        <time>2021-08-15T09:39:40Z</time>
      </trkpt>
      <trkpt lat="44.01449" lon="2.94018">
        <ele>524.8</ele>
        <time>2021-08-15T09:39:42Z</time>
      </trkpt>
      <trkpt lat="44.01449" lon="2.94024">
        <ele>524.8</ele>
        <time>2021-08-15T09:39:44Z</time>
      </trkpt>
      <trkpt lat="44.01448" lon="2.94026">
        <ele>524.7</ele>
        <time>2021-08-15T09:39:46Z</time>
      </trkpt>
      <trkpt lat="44.01448" lon="2.94026">
        <ele>524.7</ele>
        <time>2021-08-15T09:39:48Z</time>
      </trkpt>
      <trkpt lat="44.01448" lon="2.94026">
        <ele>524.7</ele>
        <time>2021-08-15T09:39:50Z</time>
      </trkpt>
      <trkpt lat="44.01448" lon="2.94026">
        <ele>524.7</ele>
        <time>2021-08-15T09:39:52Z</time>
      </trkpt>
      <trkpt lat="44.01449" lon="2.94026">
        <ele>524.7</ele>
        <time>2021-08-15T09:39:54Z</time>
      </trkpt>
      <trkpt lat="44.01451" lon="2.94007">
        <ele>524.9</ele>
        <time>2021-08-15T09:48:32Z</time>
      </trkpt>
      <trkpt lat="44.01451" lon="2.94003">
        <ele>525</ele>
        <time>2021-08-15T09:48:34Z</time>
      </trkpt>
      <trkpt lat="44.01449" lon="2.93997">
        <ele>525</ele>
        <time>2021-08-15T09:48:36Z</time>
      </trkpt>
      <trkpt lat="44.01446" lon="2.93992">
        <ele>524.9</ele>
        <time>2021-08-15T09:48:38Z</time>
      </trkpt>
      <trkpt lat="44.01443" lon="2.93988">
        <ele>524.8</ele>
        <time>2021-08-15T09:48:40Z</time>
      </trkpt>
      <trkpt lat="44.01441" lon="2.93984">
        <ele>524.8</ele>
        <time>2021-08-15T09:48:42Z</time>
      </trkpt>
      <trkpt lat="44.01438" lon="2.9398">
        <ele>524.8</ele>
        <time>2021-08-15T09:48:44Z</time>
      </trkpt>
      <trkpt lat="44.01435" lon="2.93976">
        <ele>524.7</ele>
        <time>2021-08-15T09:48:46Z</time>
      </trkpt>
      <trkpt lat="44.01432" lon="2.93972">
        <ele>524.8</ele>
        <time>2021-08-15T09:48:48Z</time>
      </trkpt>
      <trkpt lat="44.01429" lon="2.93969">
        <ele>524.8</ele>
        <time>2021-08-15T09:48:50Z</time>
      </trkpt>
      <trkpt lat="44.01426" lon="2.93966">
        <ele>524.8</ele>
        <time>2021-08-15T09:48:52Z</time>
      </trkpt>
      <trkpt lat="44.01423" lon="2.93962">
        <ele>524.9</ele>
        <time>2021-08-15T09:48:54Z</time>
      </trkpt>
      <trkpt lat="44.01418" lon="2.93959">
        <ele>525</ele>
        <time>2021-08-15T09:48:56Z</time>
      </trkpt>
      <trkpt lat="44.01414" lon="2.93956">
        <ele>525.1</ele>
        <time>2021-08-15T09:48:58Z</time>
      </trkpt>
      <trkpt lat="44.01409" lon="2.93953">
        <ele>525.3</ele>
        <time>2021-08-15T09:49:00Z</time>
      </trkpt>
      <trkpt lat="44.01404" lon="2.9395">
        <ele>525.5</ele>
        <time>2021-08-15T09:49:02Z</time>
      </trkpt>
      <trkpt lat="44.014" lon="2.93946">
        <ele>525.7</ele>
        <time>2021-08-15T09:49:04Z</time>
      </trkpt>
      <trkpt lat="44.014" lon="2.93944">
        <ele>525.8</ele>
        <time>2021-08-15T09:49:06Z</time>
      </trkpt>
      <trkpt lat="44.014" lon="2.93945">
        <ele>525.7</ele>
        <time>2021-08-15T09:49:08Z</time>
      </trkpt>
      <trkpt lat="44.01398" lon="2.93942">
        <ele>525.8</ele>
        <time>2021-08-15T09:49:10Z</time>
      </trkpt>
      <trkpt lat="44.01397" lon="2.93937">
        <ele>526</ele>
        <time>2021-08-15T09:49:12Z</time>
      </trkpt>
      <trkpt lat="44.01398" lon="2.93929">
        <ele>526.1</ele>
        <time>2021-08-15T09:49:14Z</time>
      </trkpt>
      <trkpt lat="44.01399" lon="2.93921">
        <ele>526.2</ele>
        <time>2021-08-15T09:49:16Z</time>
      </trkpt>
      <trkpt lat="44.01399" lon="2.93912">
        <ele>526.1</ele>
        <time>2021-08-15T09:49:18Z</time>
      </trkpt>
      <trkpt lat="44.014" lon="2.93902">
        <ele>525.8</ele>
        <time>2021-08-15T09:49:20Z</time>
      </trkpt>
      <trkpt lat="44.01401" lon="2.93891">
        <ele>525.4</ele>
        <time>2021-08-15T09:49:22Z</time>
      </trkpt>
      <trkpt lat="44.01401" lon="2.93879">
        <ele>524.9</ele>
        <time>2021-08-15T09:49:24Z</time>
      </trkpt>
      <trkpt lat="44.01402" lon="2.93865">
        <ele>524.4</ele>
        <time>2021-08-15T09:49:26Z</time>
      </trkpt>
      <trkpt lat="44.01404" lon="2.93851">
        <ele>523.7</ele>
        <time>2021-08-15T09:49:28Z</time>
      </trkpt>
      <trkpt lat="44.01405" lon="2.93835">
        <ele>523</ele>
        <time>2021-08-15T09:49:30Z</time>
      </trkpt>
      <trkpt lat="44.01407" lon="2.93818">
        <ele>522</ele>
        <time>2021-08-15T09:49:32Z</time>
      </trkpt>
      <trkpt lat="44.01408" lon="2.93801">
        <ele>521.1</ele>
        <time>2021-08-15T09:49:34Z</time>
      </trkpt>
      <trkpt lat="44.01409" lon="2.93783">
        <ele>520.1</ele>
        <time>2021-08-15T09:49:36Z</time>
      </trkpt>
      <trkpt lat="44.01411" lon="2.93765">
        <ele>519</ele>
        <time>2021-08-15T09:49:38Z</time>
      </trkpt>
      <trkpt lat="44.01412" lon="2.93747">
        <ele>518</ele>
        <time>2021-08-15T09:49:40Z</time>
      </trkpt>
      <trkpt lat="44.01414" lon="2.93728">
        <ele>517.3</ele>
        <time>2021-08-15T09:49:42Z</time>
      </trkpt>
      <trkpt lat="44.01416" lon="2.9371">
        <ele>516.8</ele>
        <time>2021-08-15T09:49:44Z</time>
      </trkpt>
      <trkpt lat="44.01418" lon="2.93692">
        <ele>516.3</ele>
        <time>2021-08-15T09:49:46Z</time>
      </trkpt>
      <trkpt lat="44.0142" lon="2.93673">
        <ele>516.1</ele>
        <time>2021-08-15T09:49:48Z</time>
      </trkpt>
      <trkpt lat="44.01422" lon="2.93654">
        <ele>515.6</ele>
        <time>2021-08-15T09:49:50Z</time>
      </trkpt>
      <trkpt lat="44.01423" lon="2.93633">
        <ele>514.9</ele>
        <time>2021-08-15T09:49:52Z</time>
      </trkpt>
      <trkpt lat="44.01425" lon="2.93615">
        <ele>514.3</ele>
        <time>2021-08-15T09:49:54Z</time>
      </trkpt>
      <trkpt lat="44.01426" lon="2.93599">
        <ele>513.7</ele>
        <time>2021-08-15T09:49:56Z</time>
      </trkpt>
      <trkpt lat="44.01429" lon="2.93587">
        <ele>513.3</ele>
        <time>2021-08-15T09:49:58Z</time>
      </trkpt>
      <trkpt lat="44.01433" lon="2.93581">
        <ele>513.1</ele>
        <time>2021-08-15T09:50:00Z</time>
      </trkpt>
      <trkpt lat="44.0144" lon="2.93579">
        <ele>513.1</ele>
        <time>2021-08-15T09:50:02Z</time>
      </trkpt>
      <trkpt lat="44.01447" lon="2.93581">
        <ele>513.3</ele>
        <time>2021-08-15T09:50:04Z</time>
      </trkpt>
      <trkpt lat="44.01454" lon="2.93582">
        <ele>513.4</ele>
        <time>2021-08-15T09:50:06Z</time>
      </trkpt>
      <trkpt lat="44.01462" lon="2.93582">
        <ele>513.5</ele>
        <time>2021-08-15T09:50:08Z</time>
      </trkpt>
      <trkpt lat="44.0147" lon="2.93582">
        <ele>513.6</ele>
        <time>2021-08-15T09:50:10Z</time>
      </trkpt>
      <trkpt lat="44.01478" lon="2.93581">
        <ele>513.6</ele>
        <time>2021-08-15T09:50:12Z</time>
      </trkpt>
      <trkpt lat="44.01486" lon="2.93578">
        <ele>513.5</ele>
        <time>2021-08-15T09:50:14Z</time>
      </trkpt>
      <trkpt lat="44.01493" lon="2.93575">
        <ele>513.3</ele>
        <time>2021-08-15T09:50:16Z</time>
      </trkpt>
      <trkpt lat="44.01501" lon="2.93571">
        <ele>513.1</ele>
        <time>2021-08-15T09:50:18Z</time>
      </trkpt>
      <trkpt lat="44.01508" lon="2.93566">
        <ele>513.4</ele>
        <time>2021-08-15T09:50:20Z</time>
      </trkpt>
      <trkpt lat="44.01516" lon="2.93561">
        <ele>513.6</ele>
        <time>2021-08-15T09:50:22Z</time>
      </trkpt>
      <trkpt lat="44.01523" lon="2.93555">
        <ele>513.6</ele>
        <time>2021-08-15T09:50:24Z</time>
      </trkpt>
      <trkpt lat="44.01529" lon="2.93549">
        <ele>513.6</ele>
        <time>2021-08-15T09:50:26Z</time>
      </trkpt>
      <trkpt lat="44.01536" lon="2.93542">
        <ele>513.4</ele>
        <time>2021-08-15T09:50:28Z</time>
      </trkpt>
      <trkpt lat="44.01543" lon="2.93535">
        <ele>513.1</ele>
        <time>2021-08-15T09:50:30Z</time>
      </trkpt>
      <trkpt lat="44.0155" lon="2.93528">
        <ele>512.8</ele>
        <time>2021-08-15T09:50:32Z</time>
      </trkpt>
      <trkpt lat="44.01557" lon="2.93522">
        <ele>512.5</ele>
        <time>2021-08-15T09:50:34Z</time>
      </trkpt>
      <trkpt lat="44.01565" lon="2.93514">
        <ele>512</ele>
        <time>2021-08-15T09:50:36Z</time>
      </trkpt>
      <trkpt lat="44.01572" lon="2.93508">
        <ele>511.5</ele>
        <time>2021-08-15T09:50:38Z</time>
      </trkpt>
      <trkpt lat="44.01581" lon="2.93502">
        <ele>511.2</ele>
        <time>2021-08-15T09:50:40Z</time>
      </trkpt>
      <trkpt lat="44.01589" lon="2.93498">
        <ele>511.3</ele>
        <time>2021-08-15T09:50:42Z</time>
      </trkpt>
      <trkpt lat="44.01599" lon="2.93496">
        <ele>511.7</ele>
        <time>2021-08-15T09:50:44Z</time>
      </trkpt>
      <trkpt lat="44.01608" lon="2.93493">
        <ele>512.1</ele>
        <time>2021-08-15T09:50:46Z</time>
      </trkpt>
      <trkpt lat="44.01618" lon="2.93493">
        <ele>512.5</ele>
        <time>2021-08-15T09:50:48Z</time>
      </trkpt>
      <trkpt lat="44.01628" lon="2.93494">
        <ele>512.9</ele>
        <time>2021-08-15T09:50:50Z</time>
      </trkpt>
      <trkpt lat="44.01639" lon="2.93496">
        <ele>513.2</ele>
        <time>2021-08-15T09:50:52Z</time>
      </trkpt>
      <trkpt lat="44.01649" lon="2.93501">
        <ele>513.5</ele>
        <time>2021-08-15T09:50:54Z</time>
      </trkpt>
      <trkpt lat="44.0166" lon="2.93507">
        <ele>514.6</ele>
        <time>2021-08-15T09:50:56Z</time>
      </trkpt>
      <trkpt lat="44.0167" lon="2.93514">
        <ele>515.5</ele>
        <time>2021-08-15T09:50:58Z</time>
      </trkpt>
      <trkpt lat="44.0168" lon="2.93522">
        <ele>515.8</ele>
        <time>2021-08-15T09:51:00Z</time>
      </trkpt>
      <trkpt lat="44.01691" lon="2.9353">
        <ele>515.9</ele>
        <time>2021-08-15T09:51:02Z</time>
      </trkpt>
      <trkpt lat="44.01702" lon="2.93538">
        <ele>515.8</ele>
        <time>2021-08-15T09:51:04Z</time>
      </trkpt>
      <trkpt lat="44.01714" lon="2.93546">
        <ele>515.3</ele>
        <time>2021-08-15T09:51:06Z</time>
      </trkpt>
      <trkpt lat="44.01726" lon="2.93552">
        <ele>514.6</ele>
        <time>2021-08-15T09:51:08Z</time>
      </trkpt>
      <trkpt lat="44.0174" lon="2.93556">
        <ele>513.4</ele>
        <time>2021-08-15T09:51:10Z</time>
      </trkpt>
      <trkpt lat="44.01753" lon="2.93558">
        <ele>512.4</ele>
        <time>2021-08-15T09:51:12Z</time>
      </trkpt>
      <trkpt lat="44.01767" lon="2.93559">
        <ele>512.6</ele>
        <time>2021-08-15T09:51:14Z</time>
      </trkpt>
      <trkpt lat="44.01782" lon="2.93556">
        <ele>512.6</ele>
        <time>2021-08-15T09:51:16Z</time>
      </trkpt>
      <trkpt lat="44.01796" lon="2.93552">
        <ele>512.5</ele>
        <time>2021-08-15T09:51:18Z</time>
      </trkpt>
      <trkpt lat="44.0181" lon="2.93549">
        <ele>512.4</ele>
        <time>2021-08-15T09:51:20Z</time>
      </trkpt>
      <trkpt lat="44.01824" lon="2.93547">
        <ele>512.4</ele>
        <time>2021-08-15T09:51:22Z</time>
      </trkpt>
      <trkpt lat="44.01839" lon="2.93546">
        <ele>512</ele>
        <time>2021-08-15T09:51:24Z</time>
      </trkpt>
      <trkpt lat="44.01853" lon="2.93547">
        <ele>511.2</ele>
        <time>2021-08-15T09:51:26Z</time>
      </trkpt>
      <trkpt lat="44.01868" lon="2.9355">
        <ele>510.4</ele>
        <time>2021-08-15T09:51:28Z</time>
      </trkpt>
      <trkpt lat="44.01883" lon="2.93555">
        <ele>509.8</ele>
        <time>2021-08-15T09:51:30Z</time>
      </trkpt>
      <trkpt lat="44.01897" lon="2.93561">
        <ele>509.2</ele>
        <time>2021-08-15T09:51:32Z</time>
      </trkpt>
      <trkpt lat="44.01911" lon="2.93567">
        <ele>508.6</ele>
        <time>2021-08-15T09:51:34Z</time>
      </trkpt>
      <trkpt lat="44.01925" lon="2.93573">
        <ele>508.2</ele>
        <time>2021-08-15T09:51:36Z</time>
      </trkpt>
      <trkpt lat="44.0194" lon="2.93579">
        <ele>507.8</ele>
        <time>2021-08-15T09:51:38Z</time>
      </trkpt>
      <trkpt lat="44.01955" lon="2.93585">
        <ele>507.5</ele>
        <time>2021-08-15T09:51:40Z</time>
      </trkpt>
      <trkpt lat="44.0197" lon="2.93591">
        <ele>507.9</ele>
        <time>2021-08-15T09:51:42Z</time>
      </trkpt>
      <trkpt lat="44.01984" lon="2.93596">
        <ele>508.1</ele>
        <time>2021-08-15T09:51:44Z</time>
      </trkpt>
      <trkpt lat="44.01998" lon="2.93602">
        <ele>508.2</ele>
        <time>2021-08-15T09:51:46Z</time>
      </trkpt>
      <trkpt lat="44.02013" lon="2.93608">
        <ele>508.2</ele>
        <time>2021-08-15T09:51:48Z</time>
      </trkpt>
      <trkpt lat="44.02027" lon="2.93614">
        <ele>507.9</ele>
        <time>2021-08-15T09:51:50Z</time>
      </trkpt>
      <trkpt lat="44.02042" lon="2.93619">
        <ele>507.2</ele>
        <time>2021-08-15T09:51:52Z</time>
      </trkpt>
      <trkpt lat="44.02056" lon="2.93625">
        <ele>506.2</ele>
        <time>2021-08-15T09:51:54Z</time>
      </trkpt>
      <trkpt lat="44.02071" lon="2.93631">
        <ele>504.9</ele>
        <time>2021-08-15T09:51:56Z</time>
      </trkpt>
      <trkpt lat="44.02086" lon="2.93637">
        <ele>503.6</ele>
        <time>2021-08-15T09:51:58Z</time>
      </trkpt>
      <trkpt lat="44.02101" lon="2.93642">
        <ele>503.3</ele>
        <time>2021-08-15T09:52:00Z</time>
      </trkpt>
      <trkpt lat="44.02116" lon="2.93647">
        <ele>503.1</ele>
        <time>2021-08-15T09:52:02Z</time>
      </trkpt>
      <trkpt lat="44.02131" lon="2.93652">
        <ele>502.8</ele>
        <time>2021-08-15T09:52:04Z</time>
      </trkpt>
      <trkpt lat="44.02145" lon="2.93656">
        <ele>502.5</ele>
        <time>2021-08-15T09:52:06Z</time>
      </trkpt>
      <trkpt lat="44.0216" lon="2.9366">
        <ele>502.2</ele>
        <time>2021-08-15T09:52:08Z</time>
      </trkpt>
      <trkpt lat="44.02174" lon="2.93663">
        <ele>501.8</ele>
        <time>2021-08-15T09:52:10Z</time>
      </trkpt>
      <trkpt lat="44.02189" lon="2.93666">
        <ele>501.5</ele>
        <time>2021-08-15T09:52:12Z</time>
      </trkpt>
      <trkpt lat="44.02203" lon="2.93668">
        <ele>501.5</ele>
        <time>2021-08-15T09:52:14Z</time>
      </trkpt>
      <trkpt lat="44.02217" lon="2.9367">
        <ele>501.6</ele>
        <time>2021-08-15T09:52:16Z</time>
      </trkpt>
      <trkpt lat="44.02231" lon="2.93672">
        <ele>501.5</ele>
        <time>2021-08-15T09:52:18Z</time>
      </trkpt>
      <trkpt lat="44.02246" lon="2.93673">
        <ele>501.6</ele>
        <time>2021-08-15T09:52:20Z</time>
      </trkpt>
      <trkpt lat="44.0226" lon="2.93673">
        <ele>501.5</ele>
        <time>2021-08-15T09:52:22Z</time>
      </trkpt>
      <trkpt lat="44.02274" lon="2.93673">
        <ele>501.4</ele>
        <time>2021-08-15T09:52:24Z</time>
      </trkpt>
      <trkpt lat="44.02289" lon="2.93673">
        <ele>501.1</ele>
        <time>2021-08-15T09:52:26Z</time>
      </trkpt>
      <trkpt lat="44.02303" lon="2.93672">
        <ele>500.8</ele>
        <time>2021-08-15T09:52:28Z</time>
      </trkpt>
      <trkpt lat="44.02317" lon="2.93672">
        <ele>500.5</ele>
        <time>2021-08-15T09:52:30Z</time>
      </trkpt>
      <trkpt lat="44.02332" lon="2.93671">
        <ele>500.1</ele>
        <time>2021-08-15T09:52:32Z</time>
      </trkpt>
      <trkpt lat="44.02346" lon="2.9367">
        <ele>499.5</ele>
        <time>2021-08-15T09:52:34Z</time>
      </trkpt>
      <trkpt lat="44.02361" lon="2.9367">
        <ele>498.8</ele>
        <time>2021-08-15T09:52:36Z</time>
      </trkpt>
      <trkpt lat="44.02375" lon="2.93669">
        <ele>498.2</ele>
        <time>2021-08-15T09:52:38Z</time>
      </trkpt>
      <trkpt lat="44.02389" lon="2.93669">
        <ele>497.5</ele>
        <time>2021-08-15T09:52:40Z</time>
      </trkpt>
      <trkpt lat="44.02403" lon="2.93668">
        <ele>496.7</ele>
        <time>2021-08-15T09:52:42Z</time>
      </trkpt>
      <trkpt lat="44.02417" lon="2.93667">
        <ele>496.2</ele>
        <time>2021-08-15T09:52:44Z</time>
      </trkpt>
      <trkpt lat="44.02432" lon="2.93665">
        <ele>495.9</ele>
        <time>2021-08-15T09:52:46Z</time>
      </trkpt>
      <trkpt lat="44.02445" lon="2.93661">
        <ele>495.8</ele>
        <time>2021-08-15T09:52:48Z</time>
      </trkpt>
      <trkpt lat="44.02458" lon="2.93653">
        <ele>495.4</ele>
        <time>2021-08-15T09:52:50Z</time>
      </trkpt>
      <trkpt lat="44.02471" lon="2.93643">
        <ele>495</ele>
        <time>2021-08-15T09:52:52Z</time>
      </trkpt>
      <trkpt lat="44.02482" lon="2.93631">
        <ele>494.4</ele>
        <time>2021-08-15T09:52:54Z</time>
      </trkpt>
      <trkpt lat="44.02491" lon="2.93616">
        <ele>493.6</ele>
        <time>2021-08-15T09:52:56Z</time>
      </trkpt>
      <trkpt lat="44.02499" lon="2.936">
        <ele>492.8</ele>
        <time>2021-08-15T09:52:58Z</time>
      </trkpt>
      <trkpt lat="44.02508" lon="2.93583">
        <ele>493.8</ele>
        <time>2021-08-15T09:53:00Z</time>
      </trkpt>
      <trkpt lat="44.02515" lon="2.93566">
        <ele>494.9</ele>
        <time>2021-08-15T09:53:02Z</time>
      </trkpt>
      <trkpt lat="44.02524" lon="2.9355">
        <ele>495.7</ele>
        <time>2021-08-15T09:53:04Z</time>
      </trkpt>
      <trkpt lat="44.02534" lon="2.93534">
        <ele>496</ele>
        <time>2021-08-15T09:53:06Z</time>
      </trkpt>
      <trkpt lat="44.02544" lon="2.93519">
        <ele>495.7</ele>
        <time>2021-08-15T09:53:08Z</time>
      </trkpt>
      <trkpt lat="44.02554" lon="2.93504">
        <ele>494.8</ele>
        <time>2021-08-15T09:53:10Z</time>
      </trkpt>
      <trkpt lat="44.02564" lon="2.93491">
        <ele>494.6</ele>
        <time>2021-08-15T09:53:12Z</time>
      </trkpt>
      <trkpt lat="44.02575" lon="2.93478">
        <ele>494.2</ele>
        <time>2021-08-15T09:53:14Z</time>
      </trkpt>
      <trkpt lat="44.02586" lon="2.93466">
        <ele>493.5</ele>
        <time>2021-08-15T09:53:16Z</time>
      </trkpt>
      <trkpt lat="44.02597" lon="2.93455">
        <ele>494.2</ele>
        <time>2021-08-15T09:53:18Z</time>
      </trkpt>
      <trkpt lat="44.02609" lon="2.93444">
        <ele>494.7</ele>
        <time>2021-08-15T09:53:20Z</time>
      </trkpt>
      <trkpt lat="44.02621" lon="2.93434">
        <ele>494.7</ele>
        <time>2021-08-15T09:53:22Z</time>
      </trkpt>
      <trkpt lat="44.02633" lon="2.93424">
        <ele>494.4</ele>
        <time>2021-08-15T09:53:24Z</time>
      </trkpt>
      <trkpt lat="44.02646" lon="2.93414">
        <ele>494.1</ele>
        <time>2021-08-15T09:53:26Z</time>
      </trkpt>
      <trkpt lat="44.02658" lon="2.93404">
        <ele>494.3</ele>
        <time>2021-08-15T09:53:28Z</time>
      </trkpt>
      <trkpt lat="44.02671" lon="2.93395">
        <ele>494</ele>
        <time>2021-08-15T09:53:30Z</time>
      </trkpt>
      <trkpt lat="44.02684" lon="2.93385">
        <ele>493.9</ele>
        <time>2021-08-15T09:53:32Z</time>
      </trkpt>
      <trkpt lat="44.02698" lon="2.93375">
        <ele>493.4</ele>
        <time>2021-08-15T09:53:34Z</time>
      </trkpt>
      <trkpt lat="44.02711" lon="2.93365">
        <ele>492.6</ele>
        <time>2021-08-15T09:53:36Z</time>
      </trkpt>
      <trkpt lat="44.02725" lon="2.93355">
        <ele>491.5</ele>
        <time>2021-08-15T09:53:38Z</time>
      </trkpt>
      <trkpt lat="44.02738" lon="2.93345">
        <ele>490.1</ele>
        <time>2021-08-15T09:53:40Z</time>
      </trkpt>
      <trkpt lat="44.02752" lon="2.93335">
        <ele>488.6</ele>
        <time>2021-08-15T09:53:42Z</time>
      </trkpt>
      <trkpt lat="44.02765" lon="2.93325">
        <ele>489.9</ele>
        <time>2021-08-15T09:53:44Z</time>
      </trkpt>
      <trkpt lat="44.02779" lon="2.93314">
        <ele>490.9</ele>
        <time>2021-08-15T09:53:46Z</time>
      </trkpt>
      <trkpt lat="44.02793" lon="2.93302">
        <ele>491.1</ele>
        <time>2021-08-15T09:53:48Z</time>
      </trkpt>
      <trkpt lat="44.02805" lon="2.93289">
        <ele>490.3</ele>
        <time>2021-08-15T09:53:50Z</time>
      </trkpt>
      <trkpt lat="44.02818" lon="2.93275">
        <ele>488.6</ele>
        <time>2021-08-15T09:53:52Z</time>
      </trkpt>
      <trkpt lat="44.0283" lon="2.9326">
        <ele>486</ele>
        <time>2021-08-15T09:53:54Z</time>
      </trkpt>
      <trkpt lat="44.0284" lon="2.93244">
        <ele>485.1</ele>
        <time>2021-08-15T09:53:56Z</time>
      </trkpt>
      <trkpt lat="44.0285" lon="2.93228">
        <ele>486</ele>
        <time>2021-08-15T09:53:58Z</time>
      </trkpt>
      <trkpt lat="44.02859" lon="2.93211">
        <ele>486.1</ele>
        <time>2021-08-15T09:54:00Z</time>
      </trkpt>
      <trkpt lat="44.02868" lon="2.93193">
        <ele>485.6</ele>
        <time>2021-08-15T09:54:02Z</time>
      </trkpt>
      <trkpt lat="44.02876" lon="2.93174">
        <ele>484.3</ele>
        <time>2021-08-15T09:54:04Z</time>
      </trkpt>
      <trkpt lat="44.02883" lon="2.93155">
        <ele>483.8</ele>
        <time>2021-08-15T09:54:06Z</time>
      </trkpt>
      <trkpt lat="44.0289" lon="2.93135">
        <ele>483.9</ele>
        <time>2021-08-15T09:54:08Z</time>
      </trkpt>
      <trkpt lat="44.02895" lon="2.93114">
        <ele>483.6</ele>
        <time>2021-08-15T09:54:10Z</time>
      </trkpt>
      <trkpt lat="44.029" lon="2.93093">
        <ele>483.2</ele>
        <time>2021-08-15T09:54:12Z</time>
      </trkpt>
      <trkpt lat="44.02904" lon="2.93072">
        <ele>482.6</ele>
        <time>2021-08-15T09:54:14Z</time>
      </trkpt>
      <trkpt lat="44.02909" lon="2.93051">
        <ele>481.9</ele>
        <time>2021-08-15T09:54:16Z</time>
      </trkpt>
      <trkpt lat="44.02913" lon="2.9303">
        <ele>481.1</ele>
        <time>2021-08-15T09:54:18Z</time>
      </trkpt>
      <trkpt lat="44.02917" lon="2.9301">
        <ele>480.4</ele>
        <time>2021-08-15T09:54:20Z</time>
      </trkpt>
      <trkpt lat="44.02921" lon="2.9299">
        <ele>481</ele>
        <time>2021-08-15T09:54:22Z</time>
      </trkpt>
      <trkpt lat="44.02925" lon="2.92971">
        <ele>481.5</ele>
        <time>2021-08-15T09:54:24Z</time>
      </trkpt>
      <trkpt lat="44.02929" lon="2.92951">
        <ele>482</ele>
        <time>2021-08-15T09:54:26Z</time>
      </trkpt>
      <trkpt lat="44.02933" lon="2.92932">
        <ele>482.7</ele>
        <time>2021-08-15T09:54:28Z</time>
      </trkpt>
      <trkpt lat="44.02938" lon="2.92913">
        <ele>483.4</ele>
        <time>2021-08-15T09:54:30Z</time>
      </trkpt>
      <trkpt lat="44.02943" lon="2.92893">
        <ele>484.4</ele>
        <time>2021-08-15T09:54:32Z</time>
      </trkpt>
      <trkpt lat="44.02948" lon="2.92874">
        <ele>485.2</ele>
        <time>2021-08-15T09:54:34Z</time>
      </trkpt>
      <trkpt lat="44.02954" lon="2.92856">
        <ele>485.8</ele>
        <time>2021-08-15T09:54:36Z</time>
      </trkpt>
      <trkpt lat="44.0296" lon="2.92837">
        <ele>486</ele>
        <time>2021-08-15T09:54:38Z</time>
      </trkpt>
      <trkpt lat="44.02967" lon="2.9282">
        <ele>486.2</ele>
        <time>2021-08-15T09:54:40Z</time>
      </trkpt>
      <trkpt lat="44.02974" lon="2.92803">
        <ele>485.9</ele>
        <time>2021-08-15T09:54:42Z</time>
      </trkpt>
      <trkpt lat="44.02981" lon="2.92786">
        <ele>485</ele>
        <time>2021-08-15T09:54:44Z</time>
      </trkpt>
      <trkpt lat="44.02989" lon="2.92769">
        <ele>483.5</ele>
        <time>2021-08-15T09:54:46Z</time>
      </trkpt>
      <trkpt lat="44.02997" lon="2.92753">
        <ele>481.5</ele>
        <time>2021-08-15T09:54:48Z</time>
      </trkpt>
      <trkpt lat="44.03005" lon="2.92737">
        <ele>481.5</ele>
        <time>2021-08-15T09:54:50Z</time>
      </trkpt>
      <trkpt lat="44.03014" lon="2.92722">
        <ele>482.3</ele>
        <time>2021-08-15T09:54:52Z</time>
      </trkpt>
      <trkpt lat="44.03023" lon="2.92706">
        <ele>482.5</ele>
        <time>2021-08-15T09:54:54Z</time>
      </trkpt>
      <trkpt lat="44.03032" lon="2.92691">
        <ele>482.2</ele>
        <time>2021-08-15T09:54:56Z</time>
      </trkpt>
      <trkpt lat="44.03041" lon="2.92676">
        <ele>481.4</ele>
        <time>2021-08-15T09:54:58Z</time>
      </trkpt>
      <trkpt lat="44.0305" lon="2.92662">
        <ele>480.7</ele>
        <time>2021-08-15T09:55:00Z</time>
      </trkpt>
      <trkpt lat="44.03059" lon="2.92647">
        <ele>480.2</ele>
        <time>2021-08-15T09:55:02Z</time>
      </trkpt>
      <trkpt lat="44.03068" lon="2.92631">
        <ele>478.8</ele>
        <time>2021-08-15T09:55:04Z</time>
      </trkpt>
      <trkpt lat="44.03077" lon="2.92616">
        <ele>476.7</ele>
        <time>2021-08-15T09:55:06Z</time>
      </trkpt>
      <trkpt lat="44.03086" lon="2.92601">
        <ele>474.5</ele>
        <time>2021-08-15T09:55:08Z</time>
      </trkpt>
      <trkpt lat="44.03095" lon="2.92585">
        <ele>474</ele>
        <time>2021-08-15T09:55:10Z</time>
      </trkpt>
      <trkpt lat="44.03103" lon="2.92569">
        <ele>475.3</ele>
        <time>2021-08-15T09:55:12Z</time>
      </trkpt>
      <trkpt lat="44.03111" lon="2.92553">
        <ele>476.3</ele>
        <time>2021-08-15T09:55:14Z</time>
      </trkpt>
      <trkpt lat="44.03118" lon="2.92535">
        <ele>476.7</ele>
        <time>2021-08-15T09:55:16Z</time>
      </trkpt>
      <trkpt lat="44.03125" lon="2.92519">
        <ele>476.7</ele>
        <time>2021-08-15T09:55:18Z</time>
      </trkpt>
      <trkpt lat="44.03132" lon="2.92501">
        <ele>476.2</ele>
        <time>2021-08-15T09:55:20Z</time>
      </trkpt>
      <trkpt lat="44.03138" lon="2.92483">
        <ele>475.9</ele>
        <time>2021-08-15T09:55:22Z</time>
      </trkpt>
      <trkpt lat="44.03144" lon="2.92465">
        <ele>475.5</ele>
        <time>2021-08-15T09:55:24Z</time>
      </trkpt>
      <trkpt lat="44.03149" lon="2.92447">
        <ele>474.8</ele>
        <time>2021-08-15T09:55:26Z</time>
      </trkpt>
      <trkpt lat="44.03155" lon="2.92428">
        <ele>473.8</ele>
        <time>2021-08-15T09:55:28Z</time>
      </trkpt>
      <trkpt lat="44.0316" lon="2.92409">
        <ele>472.7</ele>
        <time>2021-08-15T09:55:30Z</time>
      </trkpt>
      <trkpt lat="44.03164" lon="2.92389">
        <ele>471.4</ele>
        <time>2021-08-15T09:55:32Z</time>
      </trkpt>
      <trkpt lat="44.03169" lon="2.92369">
        <ele>471.1</ele>
        <time>2021-08-15T09:55:34Z</time>
      </trkpt>
      <trkpt lat="44.03174" lon="2.9235">
        <ele>471.7</ele>
        <time>2021-08-15T09:55:36Z</time>
      </trkpt>
      <trkpt lat="44.03179" lon="2.9233">
        <ele>472.1</ele>
        <time>2021-08-15T09:55:38Z</time>
      </trkpt>
      <trkpt lat="44.03183" lon="2.9231">
        <ele>472.7</ele>
        <time>2021-08-15T09:55:40Z</time>
      </trkpt>
      <trkpt lat="44.03188" lon="2.92291">
        <ele>473.2</ele>
        <time>2021-08-15T09:55:42Z</time>
      </trkpt>
      <trkpt lat="44.03193" lon="2.92271">
        <ele>473.6</ele>
        <time>2021-08-15T09:55:44Z</time>
      </trkpt>
      <trkpt lat="44.03198" lon="2.92252">
        <ele>473.7</ele>
        <time>2021-08-15T09:55:46Z</time>
      </trkpt>
      <trkpt lat="44.03203" lon="2.92233">
        <ele>473.8</ele>
        <time>2021-08-15T09:55:48Z</time>
      </trkpt>
      <trkpt lat="44.03209" lon="2.92214">
        <ele>473.9</ele>
        <time>2021-08-15T09:55:50Z</time>
      </trkpt>
      <trkpt lat="44.03216" lon="2.92196">
        <ele>473.5</ele>
        <time>2021-08-15T09:55:52Z</time>
      </trkpt>
      <trkpt lat="44.03222" lon="2.92178">
        <ele>472.8</ele>
        <time>2021-08-15T09:55:54Z</time>
      </trkpt>
      <trkpt lat="44.03229" lon="2.9216">
        <ele>471.9</ele>
        <time>2021-08-15T09:55:56Z</time>
      </trkpt>
      <trkpt lat="44.03236" lon="2.92144">
        <ele>470.9</ele>
        <time>2021-08-15T09:55:58Z</time>
      </trkpt>
      <trkpt lat="44.03244" lon="2.92127">
        <ele>469.6</ele>
        <time>2021-08-15T09:56:00Z</time>
      </trkpt>
      <trkpt lat="44.03252" lon="2.92112">
        <ele>468.3</ele>
        <time>2021-08-15T09:56:02Z</time>
      </trkpt>
      <trkpt lat="44.03261" lon="2.92097">
        <ele>468.3</ele>
        <time>2021-08-15T09:56:04Z</time>
      </trkpt>
      <trkpt lat="44.0327" lon="2.92081">
        <ele>468.1</ele>
        <time>2021-08-15T09:56:06Z</time>
      </trkpt>
      <trkpt lat="44.03279" lon="2.92068">
        <ele>468.5</ele>
        <time>2021-08-15T09:56:08Z</time>
      </trkpt>
      <trkpt lat="44.03289" lon="2.92055">
        <ele>468.6</ele>
        <time>2021-08-15T09:56:10Z</time>
      </trkpt>
      <trkpt lat="44.03299" lon="2.92043">
        <ele>468.5</ele>
        <time>2021-08-15T09:56:12Z</time>
      </trkpt>
      <trkpt lat="44.03309" lon="2.92032">
        <ele>468.2</ele>
        <time>2021-08-15T09:56:14Z</time>
      </trkpt>
      <trkpt lat="44.03318" lon="2.9202">
        <ele>467.4</ele>
        <time>2021-08-15T09:56:16Z</time>
      </trkpt>
      <trkpt lat="44.03328" lon="2.92009">
        <ele>466.3</ele>
        <time>2021-08-15T09:56:18Z</time>
      </trkpt>
      <trkpt lat="44.03337" lon="2.91997">
        <ele>465.2</ele>
        <time>2021-08-15T09:56:20Z</time>
      </trkpt>
      <trkpt lat="44.03347" lon="2.91985">
        <ele>465.3</ele>
        <time>2021-08-15T09:56:22Z</time>
      </trkpt>
      <trkpt lat="44.03357" lon="2.91975">
        <ele>465.5</ele>
        <time>2021-08-15T09:56:24Z</time>
      </trkpt>
      <trkpt lat="44.03366" lon="2.91964">
        <ele>465.4</ele>
        <time>2021-08-15T09:56:26Z</time>
      </trkpt>
      <trkpt lat="44.03376" lon="2.91953">
        <ele>465.4</ele>
        <time>2021-08-15T09:56:28Z</time>
      </trkpt>
      <trkpt lat="44.03386" lon="2.91941">
        <ele>465.2</ele>
        <time>2021-08-15T09:56:30Z</time>
      </trkpt>
      <trkpt lat="44.03396" lon="2.9193">
        <ele>464.9</ele>
        <time>2021-08-15T09:56:32Z</time>
      </trkpt>
      <trkpt lat="44.03405" lon="2.91918">
        <ele>464.6</ele>
        <time>2021-08-15T09:56:34Z</time>
      </trkpt>
      <trkpt lat="44.03415" lon="2.91906">
        <ele>464.6</ele>
        <time>2021-08-15T09:56:36Z</time>
      </trkpt>
      <trkpt lat="44.03425" lon="2.91894">
        <ele>464.8</ele>
        <time>2021-08-15T09:56:38Z</time>
      </trkpt>
      <trkpt lat="44.03435" lon="2.91882">
        <ele>464.8</ele>
        <time>2021-08-15T09:56:40Z</time>
      </trkpt>
      <trkpt lat="44.03445" lon="2.9187">
        <ele>464.8</ele>
        <time>2021-08-15T09:56:42Z</time>
      </trkpt>
      <trkpt lat="44.03455" lon="2.91859">
        <ele>464.7</ele>
        <time>2021-08-15T09:56:44Z</time>
      </trkpt>
      <trkpt lat="44.03466" lon="2.91849">
        <ele>464.6</ele>
        <time>2021-08-15T09:56:46Z</time>
      </trkpt>
      <trkpt lat="44.03477" lon="2.91839">
        <ele>464.5</ele>
        <time>2021-08-15T09:56:48Z</time>
      </trkpt>
      <trkpt lat="44.03489" lon="2.91831">
        <ele>464.4</ele>
        <time>2021-08-15T09:56:50Z</time>
      </trkpt>
      <trkpt lat="44.03501" lon="2.91822">
        <ele>464.4</ele>
        <time>2021-08-15T09:56:52Z</time>
      </trkpt>
      <trkpt lat="44.03513" lon="2.91815">
        <ele>463.5</ele>
        <time>2021-08-15T09:56:54Z</time>
      </trkpt>
      <trkpt lat="44.03526" lon="2.91809">
        <ele>462.7</ele>
        <time>2021-08-15T09:56:56Z</time>
      </trkpt>
      <trkpt lat="44.03538" lon="2.91803">
        <ele>461.9</ele>
        <time>2021-08-15T09:56:58Z</time>
      </trkpt>
      <trkpt lat="44.03551" lon="2.91797">
        <ele>461.2</ele>
        <time>2021-08-15T09:57:00Z</time>
      </trkpt>
      <trkpt lat="44.03564" lon="2.91793">
        <ele>460.5</ele>
        <time>2021-08-15T09:57:02Z</time>
      </trkpt>
      <trkpt lat="44.03577" lon="2.91788">
        <ele>459.9</ele>
        <time>2021-08-15T09:57:04Z</time>
      </trkpt>
      <trkpt lat="44.0359" lon="2.91783">
        <ele>458.9</ele>
        <time>2021-08-15T09:57:06Z</time>
      </trkpt>
      <trkpt lat="44.03603" lon="2.91778">
        <ele>457.9</ele>
        <time>2021-08-15T09:57:08Z</time>
      </trkpt>
      <trkpt lat="44.03616" lon="2.91773">
        <ele>457</ele>
        <time>2021-08-15T09:57:10Z</time>
      </trkpt>
      <trkpt lat="44.03629" lon="2.91768">
        <ele>456.1</ele>
        <time>2021-08-15T09:57:12Z</time>
      </trkpt>
      <trkpt lat="44.03642" lon="2.91763">
        <ele>455.4</ele>
        <time>2021-08-15T09:57:14Z</time>
      </trkpt>
      <trkpt lat="44.03655" lon="2.91759">
        <ele>454.8</ele>
        <time>2021-08-15T09:57:16Z</time>
      </trkpt>
      <trkpt lat="44.03668" lon="2.91753">
        <ele>454.4</ele>
        <time>2021-08-15T09:57:18Z</time>
      </trkpt>
      <trkpt lat="44.03682" lon="2.91749">
        <ele>454.6</ele>
        <time>2021-08-15T09:57:20Z</time>
      </trkpt>
      <trkpt lat="44.03694" lon="2.91744">
        <ele>454.9</ele>
        <time>2021-08-15T09:57:22Z</time>
      </trkpt>
      <trkpt lat="44.03707" lon="2.91739">
        <ele>455.2</ele>
        <time>2021-08-15T09:57:24Z</time>
      </trkpt>
      <trkpt lat="44.0372" lon="2.91735">
        <ele>455.6</ele>
        <time>2021-08-15T09:57:26Z</time>
      </trkpt>
      <trkpt lat="44.03733" lon="2.91729">
        <ele>455.9</ele>
        <time>2021-08-15T09:57:28Z</time>
      </trkpt>
      <trkpt lat="44.03745" lon="2.91724">
        <ele>456.2</ele>
        <time>2021-08-15T09:57:30Z</time>
      </trkpt>
      <trkpt lat="44.03757" lon="2.91717">
        <ele>456.3</ele>
        <time>2021-08-15T09:57:32Z</time>
      </trkpt>
      <trkpt lat="44.03769" lon="2.91709">
        <ele>456.5</ele>
        <time>2021-08-15T09:57:34Z</time>
      </trkpt>
      <trkpt lat="44.0378" lon="2.917">
        <ele>456.6</ele>
        <time>2021-08-15T09:57:36Z</time>
      </trkpt>
      <trkpt lat="44.03791" lon="2.91689">
        <ele>456.8</ele>
        <time>2021-08-15T09:57:38Z</time>
      </trkpt>
      <trkpt lat="44.03801" lon="2.91678">
        <ele>457</ele>
        <time>2021-08-15T09:57:40Z</time>
      </trkpt>
      <trkpt lat="44.03811" lon="2.91667">
        <ele>457.4</ele>
        <time>2021-08-15T09:57:42Z</time>
      </trkpt>
      <trkpt lat="44.0382" lon="2.91655">
        <ele>457.1</ele>
        <time>2021-08-15T09:57:44Z</time>
      </trkpt>
      <trkpt lat="44.03828" lon="2.91645">
        <ele>456.8</ele>
        <time>2021-08-15T09:57:46Z</time>
      </trkpt>
      <trkpt lat="44.03836" lon="2.91635">
        <ele>457.1</ele>
        <time>2021-08-15T09:57:48Z</time>
      </trkpt>
      <trkpt lat="44.03844" lon="2.91626">
        <ele>458.2</ele>
        <time>2021-08-15T09:57:50Z</time>
      </trkpt>
      <trkpt lat="44.03852" lon="2.91616">
        <ele>459.2</ele>
        <time>2021-08-15T09:57:52Z</time>
      </trkpt>
      <trkpt lat="44.03859" lon="2.91607">
        <ele>460.2</ele>
        <time>2021-08-15T09:57:54Z</time>
      </trkpt>
      <trkpt lat="44.03867" lon="2.91598">
        <ele>461.1</ele>
        <time>2021-08-15T09:57:56Z</time>
      </trkpt>
      <trkpt lat="44.03874" lon="2.91589">
        <ele>461.8</ele>
        <time>2021-08-15T09:57:58Z</time>
      </trkpt>
      <trkpt lat="44.0388" lon="2.91581">
        <ele>462.4</ele>
        <time>2021-08-15T09:58:00Z</time>
      </trkpt>
      <trkpt lat="44.03887" lon="2.91573">
        <ele>462.7</ele>
        <time>2021-08-15T09:58:02Z</time>
      </trkpt>
      <trkpt lat="44.03893" lon="2.91566">
        <ele>463</ele>
        <time>2021-08-15T09:58:04Z</time>
      </trkpt>
      <trkpt lat="44.03899" lon="2.91559">
        <ele>463.1</ele>
        <time>2021-08-15T09:58:06Z</time>
      </trkpt>
      <trkpt lat="44.03905" lon="2.91551">
        <ele>463</ele>
        <time>2021-08-15T09:58:08Z</time>
      </trkpt>
      <trkpt lat="44.0391" lon="2.91544">
        <ele>462.8</ele>
        <time>2021-08-15T09:58:10Z</time>
      </trkpt>
      <trkpt lat="44.03915" lon="2.91538">
        <ele>462.7</ele>
        <time>2021-08-15T09:58:12Z</time>
      </trkpt>
      <trkpt lat="44.0392" lon="2.91532">
        <ele>462.6</ele>
        <time>2021-08-15T09:58:14Z</time>
      </trkpt>
      <trkpt lat="44.03925" lon="2.91526">
        <ele>462.5</ele>
        <time>2021-08-15T09:58:16Z</time>
      </trkpt>
      <trkpt lat="44.0393" lon="2.9152">
        <ele>462.5</ele>
        <time>2021-08-15T09:58:18Z</time>
      </trkpt>
      <trkpt lat="44.03935" lon="2.91514">
        <ele>462.5</ele>
        <time>2021-08-15T09:58:20Z</time>
      </trkpt>
      <trkpt lat="44.03939" lon="2.91508">
        <ele>462.4</ele>
        <time>2021-08-15T09:58:22Z</time>
      </trkpt>
      <trkpt lat="44.03944" lon="2.91502">
        <ele>462.3</ele>
        <time>2021-08-15T09:58:24Z</time>
      </trkpt>
      <trkpt lat="44.03948" lon="2.91496">
        <ele>462.4</ele>
        <time>2021-08-15T09:58:26Z</time>
      </trkpt>
      <trkpt lat="44.03953" lon="2.9149">
        <ele>462.7</ele>
        <time>2021-08-15T09:58:28Z</time>
      </trkpt>
      <trkpt lat="44.03958" lon="2.91484">
        <ele>463</ele>
        <time>2021-08-15T09:58:30Z</time>
      </trkpt>
      <trkpt lat="44.03963" lon="2.91477">
        <ele>463.2</ele>
        <time>2021-08-15T09:58:32Z</time>
      </trkpt>
      <trkpt lat="44.03968" lon="2.91468">
        <ele>463.3</ele>
        <time>2021-08-15T09:58:34Z</time>
      </trkpt>
      <trkpt lat="44.03973" lon="2.91459">
        <ele>463.1</ele>
        <time>2021-08-15T09:58:36Z</time>
      </trkpt>
      <trkpt lat="44.03978" lon="2.9145">
        <ele>462.8</ele>
        <time>2021-08-15T09:58:38Z</time>
      </trkpt>
      <trkpt lat="44.03983" lon="2.91439">
        <ele>462.3</ele>
        <time>2021-08-15T09:58:40Z</time>
      </trkpt>
      <trkpt lat="44.03988" lon="2.91427">
        <ele>461.6</ele>
        <time>2021-08-15T09:58:42Z</time>
      </trkpt>
      <trkpt lat="44.03993" lon="2.91414">
        <ele>460.7</ele>
        <time>2021-08-15T09:58:44Z</time>
      </trkpt>
      <trkpt lat="44.03997" lon="2.91401">
        <ele>460.2</ele>
        <time>2021-08-15T09:58:46Z</time>
      </trkpt>
      <trkpt lat="44.04001" lon="2.91386">
        <ele>459.6</ele>
        <time>2021-08-15T09:58:48Z</time>
      </trkpt>
      <trkpt lat="44.04005" lon="2.9137">
        <ele>459.1</ele>
        <time>2021-08-15T09:58:50Z</time>
      </trkpt>
      <trkpt lat="44.04009" lon="2.91353">
        <ele>458.5</ele>
        <time>2021-08-15T09:58:52Z</time>
      </trkpt>
      <trkpt lat="44.04014" lon="2.91336">
        <ele>458</ele>
        <time>2021-08-15T09:58:54Z</time>
      </trkpt>
      <trkpt lat="44.04019" lon="2.91318">
        <ele>458.2</ele>
        <time>2021-08-15T09:58:56Z</time>
      </trkpt>
      <trkpt lat="44.04024" lon="2.913">
        <ele>458.2</ele>
        <time>2021-08-15T09:58:58Z</time>
      </trkpt>
      <trkpt lat="44.04028" lon="2.91282">
        <ele>458.1</ele>
        <time>2021-08-15T09:59:00Z</time>
      </trkpt>
      <trkpt lat="44.04033" lon="2.91263">
        <ele>457.9</ele>
        <time>2021-08-15T09:59:02Z</time>
      </trkpt>
      <trkpt lat="44.04038" lon="2.91244">
        <ele>457.6</ele>
        <time>2021-08-15T09:59:04Z</time>
      </trkpt>
      <trkpt lat="44.04042" lon="2.91224">
        <ele>457.2</ele>
        <time>2021-08-15T09:59:06Z</time>
      </trkpt>
      <trkpt lat="44.04047" lon="2.91205">
        <ele>456.7</ele>
        <time>2021-08-15T09:59:08Z</time>
      </trkpt>
      <trkpt lat="44.04051" lon="2.91185">
        <ele>456</ele>
        <time>2021-08-15T09:59:10Z</time>
      </trkpt>
      <trkpt lat="44.04056" lon="2.91165">
        <ele>455.3</ele>
        <time>2021-08-15T09:59:12Z</time>
      </trkpt>
      <trkpt lat="44.04062" lon="2.91145">
        <ele>454.3</ele>
        <time>2021-08-15T09:59:14Z</time>
      </trkpt>
      <trkpt lat="44.04068" lon="2.91125">
        <ele>453.2</ele>
        <time>2021-08-15T09:59:16Z</time>
      </trkpt>
      <trkpt lat="44.04077" lon="2.91107">
        <ele>452.1</ele>
        <time>2021-08-15T09:59:18Z</time>
      </trkpt>
      <trkpt lat="44.04087" lon="2.9109">
        <ele>451.2</ele>
        <time>2021-08-15T09:59:20Z</time>
      </trkpt>
      <trkpt lat="44.04099" lon="2.91074">
        <ele>450.8</ele>
        <time>2021-08-15T09:59:22Z</time>
      </trkpt>
      <trkpt lat="44.04111" lon="2.91059">
        <ele>450.5</ele>
        <time>2021-08-15T09:59:24Z</time>
      </trkpt>
      <trkpt lat="44.04124" lon="2.91043">
        <ele>450</ele>
        <time>2021-08-15T09:59:26Z</time>
      </trkpt>
      <trkpt lat="44.04136" lon="2.91028">
        <ele>449.5</ele>
        <time>2021-08-15T09:59:28Z</time>
      </trkpt>
      <trkpt lat="44.04149" lon="2.91012">
        <ele>448.9</ele>
        <time>2021-08-15T09:59:30Z</time>
      </trkpt>
      <trkpt lat="44.04162" lon="2.90997">
        <ele>448.3</ele>
        <time>2021-08-15T09:59:32Z</time>
      </trkpt>
      <trkpt lat="44.04173" lon="2.9098">
        <ele>449</ele>
        <time>2021-08-15T09:59:34Z</time>
      </trkpt>
      <trkpt lat="44.04183" lon="2.90963">
        <ele>449.8</ele>
        <time>2021-08-15T09:59:36Z</time>
      </trkpt>
      <trkpt lat="44.04192" lon="2.90943">
        <ele>450</ele>
        <time>2021-08-15T09:59:38Z</time>
      </trkpt>
      <trkpt lat="44.04199" lon="2.90923">
        <ele>449.8</ele>
        <time>2021-08-15T09:59:40Z</time>
      </trkpt>
      <trkpt lat="44.04204" lon="2.90902">
        <ele>450</ele>
        <time>2021-08-15T09:59:42Z</time>
      </trkpt>
      <trkpt lat="44.0421" lon="2.90882">
        <ele>450.2</ele>
        <time>2021-08-15T09:59:44Z</time>
      </trkpt>
      <trkpt lat="44.04216" lon="2.90862">
        <ele>450.4</ele>
        <time>2021-08-15T09:59:46Z</time>
      </trkpt>
      <trkpt lat="44.04222" lon="2.90843">
        <ele>450.4</ele>
        <time>2021-08-15T09:59:48Z</time>
      </trkpt>
      <trkpt lat="44.04227" lon="2.90823">
        <ele>449.8</ele>
        <time>2021-08-15T09:59:50Z</time>
      </trkpt>
      <trkpt lat="44.04232" lon="2.90804">
        <ele>448.9</ele>
        <time>2021-08-15T09:59:52Z</time>
      </trkpt>
      <trkpt lat="44.04237" lon="2.90783">
        <ele>447.8</ele>
        <time>2021-08-15T09:59:54Z</time>
      </trkpt>
      <trkpt lat="44.04243" lon="2.90765">
        <ele>446.7</ele>
        <time>2021-08-15T09:59:56Z</time>
      </trkpt>
      <trkpt lat="44.04247" lon="2.90746">
        <ele>445.7</ele>
        <time>2021-08-15T09:59:58Z</time>
      </trkpt>
      <trkpt lat="44.04251" lon="2.90727">
        <ele>445.3</ele>
        <time>2021-08-15T10:00:00Z</time>
      </trkpt>
      <trkpt lat="44.04255" lon="2.90708">
        <ele>445.3</ele>
        <time>2021-08-15T10:00:02Z</time>
      </trkpt>
      <trkpt lat="44.0426" lon="2.90691">
        <ele>445.2</ele>
        <time>2021-08-15T10:00:04Z</time>
      </trkpt>
      <trkpt lat="44.04264" lon="2.90673">
        <ele>445</ele>
        <time>2021-08-15T10:00:06Z</time>
      </trkpt>
      <trkpt lat="44.04269" lon="2.90655">
        <ele>444.7</ele>
        <time>2021-08-15T10:00:08Z</time>
      </trkpt>
      <trkpt lat="44.04273" lon="2.90638">
        <ele>444.2</ele>
        <time>2021-08-15T10:00:10Z</time>
      </trkpt>
      <trkpt lat="44.04277" lon="2.90621">
        <ele>443.7</ele>
        <time>2021-08-15T10:00:12Z</time>
      </trkpt>
      <trkpt lat="44.04281" lon="2.90603">
        <ele>443</ele>
        <time>2021-08-15T10:00:14Z</time>
      </trkpt>
      <trkpt lat="44.04285" lon="2.90586">
        <ele>442.3</ele>
        <time>2021-08-15T10:00:16Z</time>
      </trkpt>
      <trkpt lat="44.04287" lon="2.9057">
        <ele>441.9</ele>
        <time>2021-08-15T10:00:18Z</time>
      </trkpt>
      <trkpt lat="44.04292" lon="2.90553">
        <ele>441.6</ele>
        <time>2021-08-15T10:00:20Z</time>
      </trkpt>
      <trkpt lat="44.043" lon="2.90539">
        <ele>441.4</ele>
        <time>2021-08-15T10:00:22Z</time>
      </trkpt>
      <trkpt lat="44.04309" lon="2.90527">
        <ele>441.2</ele>
        <time>2021-08-15T10:00:24Z</time>
      </trkpt>
      <trkpt lat="44.04318" lon="2.90517">
        <ele>440.8</ele>
        <time>2021-08-15T10:00:26Z</time>
      </trkpt>
      <trkpt lat="44.04328" lon="2.90509">
        <ele>440.5</ele>
        <time>2021-08-15T10:00:28Z</time>
      </trkpt>
      <trkpt lat="44.04338" lon="2.90501">
        <ele>440.3</ele>
        <time>2021-08-15T10:00:30Z</time>
      </trkpt>
      <trkpt lat="44.04349" lon="2.90492">
        <ele>440.5</ele>
        <time>2021-08-15T10:00:32Z</time>
      </trkpt>
      <trkpt lat="44.0436" lon="2.90484">
        <ele>440.7</ele>
        <time>2021-08-15T10:00:34Z</time>
      </trkpt>
      <trkpt lat="44.04372" lon="2.90475">
        <ele>440.6</ele>
        <time>2021-08-15T10:00:36Z</time>
      </trkpt>
      <trkpt lat="44.04384" lon="2.90466">
        <ele>440.3</ele>
        <time>2021-08-15T10:00:38Z</time>
      </trkpt>
      <trkpt lat="44.04397" lon="2.90457">
        <ele>439.7</ele>
        <time>2021-08-15T10:00:40Z</time>
      </trkpt>
      <trkpt lat="44.04409" lon="2.90448">
        <ele>439</ele>
        <time>2021-08-15T10:00:42Z</time>
      </trkpt>
      <trkpt lat="44.0442" lon="2.90439">
        <ele>438.2</ele>
        <time>2021-08-15T10:00:44Z</time>
      </trkpt>
      <trkpt lat="44.04431" lon="2.90431">
        <ele>437.5</ele>
        <time>2021-08-15T10:00:46Z</time>
      </trkpt>
      <trkpt lat="44.04441" lon="2.90424">
        <ele>436.6</ele>
        <time>2021-08-15T10:00:48Z</time>
      </trkpt>
      <trkpt lat="44.04452" lon="2.90415">
        <ele>435.5</ele>
        <time>2021-08-15T10:00:50Z</time>
      </trkpt>
      <trkpt lat="44.04462" lon="2.90408">
        <ele>434.8</ele>
        <time>2021-08-15T10:00:52Z</time>
      </trkpt>
      <trkpt lat="44.04473" lon="2.90399">
        <ele>433.9</ele>
        <time>2021-08-15T10:00:54Z</time>
      </trkpt>
      <trkpt lat="44.04485" lon="2.9039">
        <ele>432.8</ele>
        <time>2021-08-15T10:00:56Z</time>
      </trkpt>
      <trkpt lat="44.04496" lon="2.9038">
        <ele>431.2</ele>
        <time>2021-08-15T10:00:58Z</time>
      </trkpt>
      <trkpt lat="44.04508" lon="2.90367">
        <ele>430.9</ele>
        <time>2021-08-15T10:01:00Z</time>
      </trkpt>
      <trkpt lat="44.0452" lon="2.90354">
        <ele>430.9</ele>
        <time>2021-08-15T10:01:02Z</time>
      </trkpt>
      <trkpt lat="44.04531" lon="2.9034">
        <ele>430</ele>
        <time>2021-08-15T10:01:04Z</time>
      </trkpt>
      <trkpt lat="44.04543" lon="2.90323">
        <ele>428.6</ele>
        <time>2021-08-15T10:01:06Z</time>
      </trkpt>
      <trkpt lat="44.04553" lon="2.90306">
        <ele>426.9</ele>
        <time>2021-08-15T10:01:08Z</time>
      </trkpt>
      <trkpt lat="44.04565" lon="2.90289">
        <ele>425.1</ele>
        <time>2021-08-15T10:01:10Z</time>
      </trkpt>
      <trkpt lat="44.04575" lon="2.90272">
        <ele>423.2</ele>
        <time>2021-08-15T10:01:12Z</time>
      </trkpt>
      <trkpt lat="44.04586" lon="2.90256">
        <ele>421.4</ele>
        <time>2021-08-15T10:01:14Z</time>
      </trkpt>
      <trkpt lat="44.04596" lon="2.9024">
        <ele>421.3</ele>
        <time>2021-08-15T10:01:16Z</time>
      </trkpt>
      <trkpt lat="44.04606" lon="2.90224">
        <ele>421</ele>
        <time>2021-08-15T10:01:18Z</time>
      </trkpt>
      <trkpt lat="44.04617" lon="2.90209">
        <ele>420.4</ele>
        <time>2021-08-15T10:01:20Z</time>
      </trkpt>
      <trkpt lat="44.04628" lon="2.90193">
        <ele>419.5</ele>
        <time>2021-08-15T10:01:22Z</time>
      </trkpt>
      <trkpt lat="44.04639" lon="2.90176">
        <ele>418.1</ele>
        <time>2021-08-15T10:01:24Z</time>
      </trkpt>
      <trkpt lat="44.04651" lon="2.90159">
        <ele>416.6</ele>
        <time>2021-08-15T10:01:26Z</time>
      </trkpt>
      <trkpt lat="44.04662" lon="2.90141">
        <ele>414.9</ele>
        <time>2021-08-15T10:01:28Z</time>
      </trkpt>
      <trkpt lat="44.04673" lon="2.90125">
        <ele>413.9</ele>
        <time>2021-08-15T10:01:30Z</time>
      </trkpt>
      <trkpt lat="44.04683" lon="2.9011">
        <ele>413.1</ele>
        <time>2021-08-15T10:01:32Z</time>
      </trkpt>
      <trkpt lat="44.04695" lon="2.90097">
        <ele>412.5</ele>
        <time>2021-08-15T10:01:34Z</time>
      </trkpt>
      <trkpt lat="44.04706" lon="2.90083">
        <ele>411.5</ele>
        <time>2021-08-15T10:01:36Z</time>
      </trkpt>
      <trkpt lat="44.04718" lon="2.90072">
        <ele>411.6</ele>
        <time>2021-08-15T10:01:38Z</time>
      </trkpt>
      <trkpt lat="44.0473" lon="2.90063">
        <ele>411.7</ele>
        <time>2021-08-15T10:01:40Z</time>
      </trkpt>
      <trkpt lat="44.0474" lon="2.90051">
        <ele>410.7</ele>
        <time>2021-08-15T10:01:42Z</time>
      </trkpt>
      <trkpt lat="44.04749" lon="2.90038">
        <ele>409.2</ele>
        <time>2021-08-15T10:01:44Z</time>
      </trkpt>
      <trkpt lat="44.0476" lon="2.90027">
        <ele>409.6</ele>
        <time>2021-08-15T10:01:46Z</time>
      </trkpt>
      <trkpt lat="44.04769" lon="2.90016">
        <ele>409.6</ele>
        <time>2021-08-15T10:01:48Z</time>
      </trkpt>
      <trkpt lat="44.04776" lon="2.90003">
        <ele>408.5</ele>
        <time>2021-08-15T10:01:50Z</time>
      </trkpt>
      <trkpt lat="44.04782" lon="2.89988">
        <ele>407.6</ele>
        <time>2021-08-15T10:01:52Z</time>
      </trkpt>
      <trkpt lat="44.04787" lon="2.89971">
        <ele>406.7</ele>
        <time>2021-08-15T10:01:54Z</time>
      </trkpt>
      <trkpt lat="44.04791" lon="2.89955">
        <ele>405.7</ele>
        <time>2021-08-15T10:01:56Z</time>
      </trkpt>
      <trkpt lat="44.04795" lon="2.89939">
        <ele>404.5</ele>
        <time>2021-08-15T10:01:58Z</time>
      </trkpt>
      <trkpt lat="44.048" lon="2.89923">
        <ele>403.4</ele>
        <time>2021-08-15T10:02:00Z</time>
      </trkpt>
      <trkpt lat="44.04806" lon="2.89908">
        <ele>402.8</ele>
        <time>2021-08-15T10:02:02Z</time>
      </trkpt>
      <trkpt lat="44.04811" lon="2.89896">
        <ele>402.4</ele>
        <time>2021-08-15T10:02:04Z</time>
      </trkpt>
      <trkpt lat="44.04817" lon="2.89883">
        <ele>401.7</ele>
        <time>2021-08-15T10:02:06Z</time>
      </trkpt>
      <trkpt lat="44.04824" lon="2.8987">
        <ele>400.8</ele>
        <time>2021-08-15T10:02:08Z</time>
      </trkpt>
      <trkpt lat="44.0483" lon="2.89858">
        <ele>399.6</ele>
        <time>2021-08-15T10:02:10Z</time>
      </trkpt>
      <trkpt lat="44.04837" lon="2.89846">
        <ele>398.3</ele>
        <time>2021-08-15T10:02:12Z</time>
      </trkpt>
      <trkpt lat="44.04843" lon="2.89835">
        <ele>396.9</ele>
        <time>2021-08-15T10:02:14Z</time>
      </trkpt>
      <trkpt lat="44.04849" lon="2.89824">
        <ele>396.5</ele>
        <time>2021-08-15T10:02:16Z</time>
      </trkpt>
      <trkpt lat="44.04854" lon="2.89812">
        <ele>396</ele>
        <time>2021-08-15T10:02:18Z</time>
      </trkpt>
      <trkpt lat="44.0486" lon="2.89802">
        <ele>395.6</ele>
        <time>2021-08-15T10:02:20Z</time>
      </trkpt>
      <trkpt lat="44.04864" lon="2.89791">
        <ele>394.9</ele>
        <time>2021-08-15T10:02:22Z</time>
      </trkpt>
      <trkpt lat="44.04869" lon="2.89781">
        <ele>394.2</ele>
        <time>2021-08-15T10:02:24Z</time>
      </trkpt>
      <trkpt lat="44.04875" lon="2.89772">
        <ele>393.5</ele>
        <time>2021-08-15T10:02:26Z</time>
      </trkpt>
      <trkpt lat="44.0488" lon="2.89764">
        <ele>392.7</ele>
        <time>2021-08-15T10:02:28Z</time>
      </trkpt>
      <trkpt lat="44.04883" lon="2.89757">
        <ele>392.1</ele>
        <time>2021-08-15T10:02:30Z</time>
      </trkpt>
      <trkpt lat="44.04885" lon="2.89752">
        <ele>391.6</ele>
        <time>2021-08-15T10:02:32Z</time>
      </trkpt>
      <trkpt lat="44.04885" lon="2.89747">
        <ele>391.2</ele>
        <time>2021-08-15T10:02:34Z</time>
      </trkpt>
      <trkpt lat="44.04883" lon="2.89746">
        <ele>391.2</ele>
        <time>2021-08-15T10:02:36Z</time>
      </trkpt>
      <trkpt lat="44.04883" lon="2.89746">
        <ele>391.2</ele>
        <time>2021-08-15T10:02:38Z</time>
      </trkpt>
      <trkpt lat="44.04883" lon="2.89746">
        <ele>391.2</ele>
        <time>2021-08-15T10:02:40Z</time>
      </trkpt>
      <trkpt lat="44.04883" lon="2.89746">
        <ele>391.2</ele>
        <time>2021-08-15T10:02:42Z</time>
      </trkpt>
      <trkpt lat="44.04884" lon="2.89746">
        <ele>391.2</ele>
        <time>2021-08-15T10:02:44Z</time>
      </trkpt>
      <trkpt lat="44.04889" lon="2.89748">
        <ele>391.2</ele>
        <time>2021-08-15T12:19:12Z</time>
      </trkpt>
      <trkpt lat="44.04886" lon="2.89747">
        <ele>391.2</ele>
        <time>2021-08-15T12:19:14Z</time>
      </trkpt>
      <trkpt lat="44.04884" lon="2.89749">
        <ele>391.4</ele>
        <time>2021-08-15T12:19:16Z</time>
      </trkpt>
      <trkpt lat="44.04885" lon="2.89753">
        <ele>391.7</ele>
        <time>2021-08-15T12:19:18Z</time>
      </trkpt>
      <trkpt lat="44.04886" lon="2.89754">
        <ele>391.8</ele>
        <time>2021-08-15T12:19:20Z</time>
      </trkpt>
      <trkpt lat="44.04887" lon="2.89756">
        <ele>392</ele>
        <time>2021-08-15T12:19:22Z</time>
      </trkpt>
      <trkpt lat="44.0489" lon="2.89759">
        <ele>392.3</ele>
        <time>2021-08-15T12:19:24Z</time>
      </trkpt>
      <trkpt lat="44.04894" lon="2.89759">
        <ele>392.3</ele>
        <time>2021-08-15T12:19:26Z</time>
      </trkpt>
      <trkpt lat="44.04896" lon="2.89762">
        <ele>392.6</ele>
        <time>2021-08-15T12:19:28Z</time>
      </trkpt>
      <trkpt lat="44.04898" lon="2.89764">
        <ele>392.8</ele>
        <time>2021-08-15T12:19:30Z</time>
      </trkpt>
      <trkpt lat="44.04899" lon="2.89764">
        <ele>392.8</ele>
        <time>2021-08-15T12:19:32Z</time>
      </trkpt>
      <trkpt lat="44.04898" lon="2.89763">
        <ele>392.7</ele>
        <time>2021-08-15T12:19:34Z</time>
      </trkpt>
      <trkpt lat="44.04898" lon="2.89763">
        <ele>392.7</ele>
        <time>2021-08-15T12:19:36Z</time>
      </trkpt>
      <trkpt lat="44.04898" lon="2.89762">
        <ele>392.6</ele>
        <time>2021-08-15T12:19:38Z</time>
      </trkpt>
      <trkpt lat="44.04898" lon="2.89762">
        <ele>392.6</ele>
        <time>2021-08-15T12:19:40Z</time>
      </trkpt>
      <trkpt lat="44.04913" lon="2.89774">
        <ele>394.1</ele>
        <time>2021-08-15T12:21:26Z</time>
      </trkpt>
      <trkpt lat="44.04917" lon="2.89777">
        <ele>394.5</ele>
        <time>2021-08-15T12:21:28Z</time>
      </trkpt>
      <trkpt lat="44.04922" lon="2.89782">
        <ele>394.3</ele>
        <time>2021-08-15T12:21:30Z</time>
      </trkpt>
      <trkpt lat="44.04926" lon="2.89787">
        <ele>394.2</ele>
        <time>2021-08-15T12:21:32Z</time>
      </trkpt>
      <trkpt lat="44.0493" lon="2.89791">
        <ele>394</ele>
        <time>2021-08-15T12:21:34Z</time>
      </trkpt>
      <trkpt lat="44.04934" lon="2.89796">
        <ele>394</ele>
        <time>2021-08-15T12:21:36Z</time>
      </trkpt>
      <trkpt lat="44.04938" lon="2.89799">
        <ele>393.9</ele>
        <time>2021-08-15T12:21:38Z</time>
      </trkpt>
      <trkpt lat="44.04942" lon="2.89803">
        <ele>393.9</ele>
        <time>2021-08-15T12:21:40Z</time>
      </trkpt>
      <trkpt lat="44.04947" lon="2.89807">
        <ele>393.7</ele>
        <time>2021-08-15T12:21:42Z</time>
      </trkpt>
      <trkpt lat="44.04953" lon="2.89808">
        <ele>392.9</ele>
        <time>2021-08-15T12:21:44Z</time>
      </trkpt>
      <trkpt lat="44.04959" lon="2.89811">
        <ele>392.6</ele>
        <time>2021-08-15T12:21:46Z</time>
      </trkpt>
      <trkpt lat="44.04966" lon="2.89814">
        <ele>391.9</ele>
        <time>2021-08-15T12:21:48Z</time>
      </trkpt>
      <trkpt lat="44.04974" lon="2.89816">
        <ele>391.2</ele>
        <time>2021-08-15T12:21:50Z</time>
      </trkpt>
      <trkpt lat="44.04983" lon="2.8982">
        <ele>390.7</ele>
        <time>2021-08-15T12:21:52Z</time>
      </trkpt>
      <trkpt lat="44.04994" lon="2.89827">
        <ele>390.4</ele>
        <time>2021-08-15T12:21:54Z</time>
      </trkpt>
      <trkpt lat="44.05005" lon="2.89834">
        <ele>389.9</ele>
        <time>2021-08-15T12:21:56Z</time>
      </trkpt>
      <trkpt lat="44.05016" lon="2.89842">
        <ele>389.3</ele>
        <time>2021-08-15T12:21:58Z</time>
      </trkpt>
      <trkpt lat="44.05028" lon="2.89849">
        <ele>388.2</ele>
        <time>2021-08-15T12:22:00Z</time>
      </trkpt>
      <trkpt lat="44.05041" lon="2.89857">
        <ele>387.5</ele>
        <time>2021-08-15T12:22:02Z</time>
      </trkpt>
      <trkpt lat="44.05054" lon="2.89866">
        <ele>386.6</ele>
        <time>2021-08-15T12:22:04Z</time>
      </trkpt>
      <trkpt lat="44.05066" lon="2.89875">
        <ele>385.8</ele>
        <time>2021-08-15T12:22:06Z</time>
      </trkpt>
      <trkpt lat="44.05078" lon="2.89883">
        <ele>385.3</ele>
        <time>2021-08-15T12:22:08Z</time>
      </trkpt>
      <trkpt lat="44.0509" lon="2.89892">
        <ele>384.6</ele>
        <time>2021-08-15T12:22:10Z</time>
      </trkpt>
      <trkpt lat="44.05103" lon="2.89902">
        <ele>383.5</ele>
        <time>2021-08-15T12:22:12Z</time>
      </trkpt>
      <trkpt lat="44.05116" lon="2.89911">
        <ele>382.6</ele>
        <time>2021-08-15T12:22:14Z</time>
      </trkpt>
      <trkpt lat="44.0513" lon="2.89921">
        <ele>382.3</ele>
        <time>2021-08-15T12:22:16Z</time>
      </trkpt>
      <trkpt lat="44.05143" lon="2.89929">
        <ele>381.7</ele>
        <time>2021-08-15T12:22:18Z</time>
      </trkpt>
      <trkpt lat="44.05157" lon="2.89936">
        <ele>380.5</ele>
        <time>2021-08-15T12:22:20Z</time>
      </trkpt>
      <trkpt lat="44.05173" lon="2.89944">
        <ele>378.9</ele>
        <time>2021-08-15T12:22:22Z</time>
      </trkpt>
      <trkpt lat="44.05189" lon="2.89952">
        <ele>377.3</ele>
        <time>2021-08-15T12:22:24Z</time>
      </trkpt>
      <trkpt lat="44.05204" lon="2.89958">
        <ele>375.5</ele>
        <time>2021-08-15T12:22:26Z</time>
      </trkpt>
      <trkpt lat="44.05219" lon="2.89963">
        <ele>373.3</ele>
        <time>2021-08-15T12:22:28Z</time>
      </trkpt>
      <trkpt lat="44.05232" lon="2.89966">
        <ele>371.5</ele>
        <time>2021-08-15T12:22:30Z</time>
      </trkpt>
      <trkpt lat="44.05244" lon="2.8997">
        <ele>369.9</ele>
        <time>2021-08-15T12:22:32Z</time>
      </trkpt>
      <trkpt lat="44.05257" lon="2.89973">
        <ele>368</ele>
        <time>2021-08-15T12:22:34Z</time>
      </trkpt>
      <trkpt lat="44.0527" lon="2.89977">
        <ele>366.8</ele>
        <time>2021-08-15T12:22:36Z</time>
      </trkpt>
      <trkpt lat="44.05284" lon="2.8998">
        <ele>365.2</ele>
        <time>2021-08-15T12:22:38Z</time>
      </trkpt>
      <trkpt lat="44.05298" lon="2.89984">
        <ele>363.7</ele>
        <time>2021-08-15T12:22:40Z</time>
      </trkpt>
      <trkpt lat="44.05312" lon="2.89989">
        <ele>362.8</ele>
        <time>2021-08-15T12:22:42Z</time>
      </trkpt>
      <trkpt lat="44.05326" lon="2.89996">
        <ele>362.1</ele>
        <time>2021-08-15T12:22:44Z</time>
      </trkpt>
      <trkpt lat="44.0534" lon="2.90002">
        <ele>361.6</ele>
        <time>2021-08-15T12:22:46Z</time>
      </trkpt>
      <trkpt lat="44.05353" lon="2.90009">
        <ele>361.2</ele>
        <time>2021-08-15T12:22:48Z</time>
      </trkpt>
      <trkpt lat="44.05366" lon="2.90016">
        <ele>361</ele>
        <time>2021-08-15T12:22:50Z</time>
      </trkpt>
      <trkpt lat="44.05379" lon="2.90023">
        <ele>360.8</ele>
        <time>2021-08-15T12:22:52Z</time>
      </trkpt>
      <trkpt lat="44.05392" lon="2.90029">
        <ele>360.5</ele>
        <time>2021-08-15T12:22:54Z</time>
      </trkpt>
      <trkpt lat="44.05406" lon="2.90031">
        <ele>358.9</ele>
        <time>2021-08-15T12:22:56Z</time>
      </trkpt>
      <trkpt lat="44.0542" lon="2.90032">
        <ele>357</ele>
        <time>2021-08-15T12:22:58Z</time>
      </trkpt>
      <trkpt lat="44.05434" lon="2.90033">
        <ele>355.6</ele>
        <time>2021-08-15T12:23:00Z</time>
      </trkpt>
      <trkpt lat="44.05446" lon="2.90032">
        <ele>354</ele>
        <time>2021-08-15T12:23:02Z</time>
      </trkpt>
      <trkpt lat="44.0546" lon="2.90034">
        <ele>352.8</ele>
        <time>2021-08-15T12:23:04Z</time>
      </trkpt>
      <trkpt lat="44.05474" lon="2.90038">
        <ele>352.3</ele>
        <time>2021-08-15T12:23:06Z</time>
      </trkpt>
      <trkpt lat="44.05488" lon="2.90044">
        <ele>352.2</ele>
        <time>2021-08-15T12:23:08Z</time>
      </trkpt>
      <trkpt lat="44.05503" lon="2.90052">
        <ele>352</ele>
        <time>2021-08-15T12:23:10Z</time>
      </trkpt>
      <trkpt lat="44.05519" lon="2.90059">
        <ele>351</ele>
        <time>2021-08-15T12:23:12Z</time>
      </trkpt>
      <trkpt lat="44.05534" lon="2.90066">
        <ele>349.7</ele>
        <time>2021-08-15T12:23:14Z</time>
      </trkpt>
      <trkpt lat="44.0555" lon="2.90074">
        <ele>348.2</ele>
        <time>2021-08-15T12:23:16Z</time>
      </trkpt>
      <trkpt lat="44.05566" lon="2.90081">
        <ele>346.3</ele>
        <time>2021-08-15T12:23:18Z</time>
      </trkpt>
      <trkpt lat="44.05582" lon="2.90088">
        <ele>343.7</ele>
        <time>2021-08-15T12:23:20Z</time>
      </trkpt>
      <trkpt lat="44.05598" lon="2.90095">
        <ele>342.1</ele>
        <time>2021-08-15T12:23:22Z</time>
      </trkpt>
      <trkpt lat="44.05613" lon="2.90102">
        <ele>340.8</ele>
        <time>2021-08-15T12:23:24Z</time>
      </trkpt>
      <trkpt lat="44.05627" lon="2.90108">
        <ele>339.7</ele>
        <time>2021-08-15T12:23:26Z</time>
      </trkpt>
      <trkpt lat="44.05641" lon="2.90115">
        <ele>338.5</ele>
        <time>2021-08-15T12:23:28Z</time>
      </trkpt>
      <trkpt lat="44.05655" lon="2.90121">
        <ele>337.5</ele>
        <time>2021-08-15T12:23:30Z</time>
      </trkpt>
      <trkpt lat="44.05667" lon="2.90128">
        <ele>336.8</ele>
        <time>2021-08-15T12:23:32Z</time>
      </trkpt>
      <trkpt lat="44.05679" lon="2.9014">
        <ele>336.4</ele>
        <time>2021-08-15T12:23:34Z</time>
      </trkpt>
      <trkpt lat="44.05691" lon="2.90154">
        <ele>336</ele>
        <time>2021-08-15T12:23:36Z</time>
      </trkpt>
      <trkpt lat="44.05702" lon="2.90171">
        <ele>336</ele>
        <time>2021-08-15T12:23:38Z</time>
      </trkpt>
      <trkpt lat="44.05711" lon="2.9019">
        <ele>336.3</ele>
        <time>2021-08-15T12:23:40Z</time>
      </trkpt>
      <trkpt lat="44.05719" lon="2.90209">
        <ele>336.9</ele>
        <time>2021-08-15T12:23:42Z</time>
      </trkpt>
      <trkpt lat="44.05726" lon="2.90227">
        <ele>337.4</ele>
        <time>2021-08-15T12:23:44Z</time>
      </trkpt>
      <trkpt lat="44.05736" lon="2.90241">
        <ele>337.4</ele>
        <time>2021-08-15T12:23:46Z</time>
      </trkpt>
      <trkpt lat="44.05748" lon="2.90247">
        <ele>336.1</ele>
        <time>2021-08-15T12:23:48Z</time>
      </trkpt>
      <trkpt lat="44.0576" lon="2.90247">
        <ele>334</ele>
        <time>2021-08-15T12:23:50Z</time>
      </trkpt>
      <trkpt lat="44.05771" lon="2.90243">
        <ele>331.9</ele>
        <time>2021-08-15T12:23:52Z</time>
      </trkpt>
      <trkpt lat="44.05782" lon="2.9024">
        <ele>330.1</ele>
        <time>2021-08-15T12:23:54Z</time>
      </trkpt>
      <trkpt lat="44.05791" lon="2.90236">
        <ele>328.5</ele>
        <time>2021-08-15T12:23:56Z</time>
      </trkpt>
      <trkpt lat="44.058" lon="2.90233">
        <ele>327.1</ele>
        <time>2021-08-15T12:23:58Z</time>
      </trkpt>
      <trkpt lat="44.05808" lon="2.90229">
        <ele>325.9</ele>
        <time>2021-08-15T12:24:00Z</time>
      </trkpt>
      <trkpt lat="44.05815" lon="2.90227">
        <ele>324.8</ele>
        <time>2021-08-15T12:24:02Z</time>
      </trkpt>
      <trkpt lat="44.05822" lon="2.90224">
        <ele>323.9</ele>
        <time>2021-08-15T12:24:04Z</time>
      </trkpt>
      <trkpt lat="44.05828" lon="2.90223">
        <ele>323</ele>
        <time>2021-08-15T12:24:06Z</time>
      </trkpt>
      <trkpt lat="44.05835" lon="2.90222">
        <ele>322.8</ele>
        <time>2021-08-15T12:24:08Z</time>
      </trkpt>
      <trkpt lat="44.05841" lon="2.90219">
        <ele>324.5</ele>
        <time>2021-08-15T12:24:10Z</time>
      </trkpt>
      <trkpt lat="44.05847" lon="2.90217">
        <ele>326.2</ele>
        <time>2021-08-15T12:24:12Z</time>
      </trkpt>
      <trkpt lat="44.05853" lon="2.90215">
        <ele>327.8</ele>
        <time>2021-08-15T12:24:14Z</time>
      </trkpt>
      <trkpt lat="44.0586" lon="2.90213">
        <ele>329.5</ele>
        <time>2021-08-15T12:24:16Z</time>
      </trkpt>
      <trkpt lat="44.05866" lon="2.90211">
        <ele>331.1</ele>
        <time>2021-08-15T12:24:18Z</time>
      </trkpt>
      <trkpt lat="44.05873" lon="2.90212">
        <ele>332.8</ele>
        <time>2021-08-15T12:24:20Z</time>
      </trkpt>
      <trkpt lat="44.05877" lon="2.90219">
        <ele>334.3</ele>
        <time>2021-08-15T12:24:22Z</time>
      </trkpt>
      <trkpt lat="44.05878" lon="2.90229">
        <ele>334.9</ele>
        <time>2021-08-15T12:24:24Z</time>
      </trkpt>
      <trkpt lat="44.05876" lon="2.90239">
        <ele>334.7</ele>
        <time>2021-08-15T12:24:26Z</time>
      </trkpt>
      <trkpt lat="44.05873" lon="2.90251">
        <ele>334.5</ele>
        <time>2021-08-15T12:24:28Z</time>
      </trkpt>
      <trkpt lat="44.05872" lon="2.90263">
        <ele>335.3</ele>
        <time>2021-08-15T12:24:30Z</time>
      </trkpt>
      <trkpt lat="44.05871" lon="2.90276">
        <ele>336.3</ele>
        <time>2021-08-15T12:24:32Z</time>
      </trkpt>
      <trkpt lat="44.05869" lon="2.90289">
        <ele>336.9</ele>
        <time>2021-08-15T12:24:34Z</time>
      </trkpt>
      <trkpt lat="44.05867" lon="2.90305">
        <ele>337.5</ele>
        <time>2021-08-15T12:24:36Z</time>
      </trkpt>
      <trkpt lat="44.05865" lon="2.90322">
        <ele>337.9</ele>
        <time>2021-08-15T12:24:38Z</time>
      </trkpt>
      <trkpt lat="44.05862" lon="2.9034">
        <ele>338.2</ele>
        <time>2021-08-15T12:24:40Z</time>
      </trkpt>
      <trkpt lat="44.05858" lon="2.90359">
        <ele>338</ele>
        <time>2021-08-15T12:24:42Z</time>
      </trkpt>
      <trkpt lat="44.05855" lon="2.90378">
        <ele>337.8</ele>
        <time>2021-08-15T12:24:44Z</time>
      </trkpt>
      <trkpt lat="44.05851" lon="2.90396">
        <ele>337.2</ele>
        <time>2021-08-15T12:24:46Z</time>
      </trkpt>
      <trkpt lat="44.05847" lon="2.90413">
        <ele>336.2</ele>
        <time>2021-08-15T12:24:48Z</time>
      </trkpt>
      <trkpt lat="44.05844" lon="2.90429">
        <ele>335.9</ele>
        <time>2021-08-15T12:24:50Z</time>
      </trkpt>
      <trkpt lat="44.0584" lon="2.90443">
        <ele>335.4</ele>
        <time>2021-08-15T12:24:52Z</time>
      </trkpt>
      <trkpt lat="44.05837" lon="2.90457">
        <ele>334.7</ele>
        <time>2021-08-15T12:24:54Z</time>
      </trkpt>
      <trkpt lat="44.05834" lon="2.9047">
        <ele>334.5</ele>
        <time>2021-08-15T12:24:56Z</time>
      </trkpt>
      <trkpt lat="44.0583" lon="2.90482">
        <ele>335.1</ele>
        <time>2021-08-15T12:24:58Z</time>
      </trkpt>
      <trkpt lat="44.05826" lon="2.90493">
        <ele>335.8</ele>
        <time>2021-08-15T12:25:00Z</time>
      </trkpt>
      <trkpt lat="44.05823" lon="2.90503">
        <ele>336.5</ele>
        <time>2021-08-15T12:25:02Z</time>
      </trkpt>
      <trkpt lat="44.05819" lon="2.90513">
        <ele>337</ele>
        <time>2021-08-15T12:25:04Z</time>
      </trkpt>
      <trkpt lat="44.05816" lon="2.90522">
        <ele>337.5</ele>
        <time>2021-08-15T12:25:06Z</time>
      </trkpt>
      <trkpt lat="44.05813" lon="2.90531">
        <ele>337.8</ele>
        <time>2021-08-15T12:25:08Z</time>
      </trkpt>
      <trkpt lat="44.05809" lon="2.9054">
        <ele>338.1</ele>
        <time>2021-08-15T12:25:10Z</time>
      </trkpt>
      <trkpt lat="44.05806" lon="2.90548">
        <ele>338.2</ele>
        <time>2021-08-15T12:25:12Z</time>
      </trkpt>
      <trkpt lat="44.05804" lon="2.90556">
        <ele>338.4</ele>
        <time>2021-08-15T12:25:14Z</time>
      </trkpt>
      <trkpt lat="44.05801" lon="2.90563">
        <ele>338.4</ele>
        <time>2021-08-15T12:25:16Z</time>
      </trkpt>
      <trkpt lat="44.05798" lon="2.9057">
        <ele>338.3</ele>
        <time>2021-08-15T12:25:18Z</time>
      </trkpt>
      <trkpt lat="44.05795" lon="2.90577">
        <ele>338.2</ele>
        <time>2021-08-15T12:25:20Z</time>
      </trkpt>
      <trkpt lat="44.05792" lon="2.90583">
        <ele>338.1</ele>
        <time>2021-08-15T12:25:22Z</time>
      </trkpt>
      <trkpt lat="44.0579" lon="2.9059">
        <ele>338.3</ele>
        <time>2021-08-15T12:25:24Z</time>
      </trkpt>
      <trkpt lat="44.05788" lon="2.90596">
        <ele>338.4</ele>
        <time>2021-08-15T12:25:26Z</time>
      </trkpt>
      <trkpt lat="44.05786" lon="2.90602">
        <ele>338.4</ele>
        <time>2021-08-15T12:25:28Z</time>
      </trkpt>
      <trkpt lat="44.05784" lon="2.90608">
        <ele>338.5</ele>
        <time>2021-08-15T12:25:30Z</time>
      </trkpt>
      <trkpt lat="44.05783" lon="2.90615">
        <ele>338.6</ele>
        <time>2021-08-15T12:25:32Z</time>
      </trkpt>
      <trkpt lat="44.0578" lon="2.90621">
        <ele>338.5</ele>
        <time>2021-08-15T12:25:34Z</time>
      </trkpt>
      <trkpt lat="44.05778" lon="2.90627">
        <ele>338.3</ele>
        <time>2021-08-15T12:25:36Z</time>
      </trkpt>
      <trkpt lat="44.05776" lon="2.90632">
        <ele>338.1</ele>
        <time>2021-08-15T12:25:38Z</time>
      </trkpt>
      <trkpt lat="44.05773" lon="2.90639">
        <ele>337.9</ele>
        <time>2021-08-15T12:25:40Z</time>
      </trkpt>
      <trkpt lat="44.05771" lon="2.90645">
        <ele>337.5</ele>
        <time>2021-08-15T12:25:42Z</time>
      </trkpt>
      <trkpt lat="44.05768" lon="2.90651">
        <ele>337</ele>
        <time>2021-08-15T12:25:44Z</time>
      </trkpt>
      <trkpt lat="44.05765" lon="2.90655">
        <ele>336.4</ele>
        <time>2021-08-15T12:25:46Z</time>
      </trkpt>
      <trkpt lat="44.05763" lon="2.90661">
        <ele>335.8</ele>
        <time>2021-08-15T12:25:48Z</time>
      </trkpt>
      <trkpt lat="44.0576" lon="2.90667">
        <ele>335.3</ele>
        <time>2021-08-15T12:25:50Z</time>
      </trkpt>
      <trkpt lat="44.05757" lon="2.90672">
        <ele>334.9</ele>
        <time>2021-08-15T12:25:52Z</time>
      </trkpt>
      <trkpt lat="44.05753" lon="2.90676">
        <ele>334.6</ele>
        <time>2021-08-15T12:25:54Z</time>
      </trkpt>
      <trkpt lat="44.0575" lon="2.90681">
        <ele>334.3</ele>
        <time>2021-08-15T12:25:56Z</time>
      </trkpt>
      <trkpt lat="44.05746" lon="2.90685">
        <ele>334.4</ele>
        <time>2021-08-15T12:25:58Z</time>
      </trkpt>
      <trkpt lat="44.05743" lon="2.90689">
        <ele>334.5</ele>
        <time>2021-08-15T12:26:00Z</time>
      </trkpt>
      <trkpt lat="44.05739" lon="2.90693">
        <ele>334.6</ele>
        <time>2021-08-15T12:26:02Z</time>
      </trkpt>
      <trkpt lat="44.05736" lon="2.90697">
        <ele>334.5</ele>
        <time>2021-08-15T12:26:04Z</time>
      </trkpt>
      <trkpt lat="44.05731" lon="2.907">
        <ele>334.3</ele>
        <time>2021-08-15T12:26:06Z</time>
      </trkpt>
      <trkpt lat="44.05727" lon="2.90704">
        <ele>334.2</ele>
        <time>2021-08-15T12:26:08Z</time>
      </trkpt>
      <trkpt lat="44.05723" lon="2.90708">
        <ele>334</ele>
        <time>2021-08-15T12:26:10Z</time>
      </trkpt>
      <trkpt lat="44.05719" lon="2.90712">
        <ele>333.8</ele>
        <time>2021-08-15T12:26:12Z</time>
      </trkpt>
      <trkpt lat="44.05716" lon="2.90716">
        <ele>333.5</ele>
        <time>2021-08-15T12:26:14Z</time>
      </trkpt>
      <trkpt lat="44.05712" lon="2.9072">
        <ele>333.3</ele>
        <time>2021-08-15T12:26:16Z</time>
      </trkpt>
      <trkpt lat="44.05708" lon="2.90723">
        <ele>332.9</ele>
        <time>2021-08-15T12:26:18Z</time>
      </trkpt>
      <trkpt lat="44.05705" lon="2.90726">
        <ele>332.5</ele>
        <time>2021-08-15T12:26:20Z</time>
      </trkpt>
      <trkpt lat="44.05701" lon="2.90731">
        <ele>332.2</ele>
        <time>2021-08-15T12:26:22Z</time>
      </trkpt>
      <trkpt lat="44.05697" lon="2.90735">
        <ele>331.7</ele>
        <time>2021-08-15T12:26:24Z</time>
      </trkpt>
      <trkpt lat="44.05693" lon="2.90739">
        <ele>331.2</ele>
        <time>2021-08-15T12:26:26Z</time>
      </trkpt>
      <trkpt lat="44.05689" lon="2.90744">
        <ele>330.8</ele>
        <time>2021-08-15T12:26:28Z</time>
      </trkpt>
      <trkpt lat="44.05686" lon="2.90749">
        <ele>330.4</ele>
        <time>2021-08-15T12:26:30Z</time>
      </trkpt>
      <trkpt lat="44.05684" lon="2.90754">
        <ele>330.4</ele>
        <time>2021-08-15T12:26:32Z</time>
      </trkpt>
      <trkpt lat="44.05682" lon="2.90759">
        <ele>330.4</ele>
        <time>2021-08-15T12:26:34Z</time>
      </trkpt>
      <trkpt lat="44.05679" lon="2.90764">
        <ele>330.2</ele>
        <time>2021-08-15T12:26:36Z</time>
      </trkpt>
      <trkpt lat="44.05675" lon="2.90768">
        <ele>329.9</ele>
        <time>2021-08-15T12:26:38Z</time>
      </trkpt>
      <trkpt lat="44.05672" lon="2.90771">
        <ele>329.5</ele>
        <time>2021-08-15T12:26:40Z</time>
      </trkpt>
      <trkpt lat="44.05669" lon="2.90774">
        <ele>329.3</ele>
        <time>2021-08-15T12:26:42Z</time>
      </trkpt>
      <trkpt lat="44.05666" lon="2.90778">
        <ele>329</ele>
        <time>2021-08-15T12:26:44Z</time>
      </trkpt>
      <trkpt lat="44.05663" lon="2.90781">
        <ele>329.1</ele>
        <time>2021-08-15T12:26:46Z</time>
      </trkpt>
      <trkpt lat="44.05659" lon="2.90784">
        <ele>329.2</ele>
        <time>2021-08-15T12:26:48Z</time>
      </trkpt>
      <trkpt lat="44.05656" lon="2.90788">
        <ele>329.3</ele>
        <time>2021-08-15T12:26:50Z</time>
      </trkpt>
      <trkpt lat="44.05652" lon="2.90792">
        <ele>329.4</ele>
        <time>2021-08-15T12:26:52Z</time>
      </trkpt>
      <trkpt lat="44.05648" lon="2.90796">
        <ele>329.4</ele>
        <time>2021-08-15T12:26:54Z</time>
      </trkpt>
      <trkpt lat="44.05643" lon="2.90799">
        <ele>329.3</ele>
        <time>2021-08-15T12:26:56Z</time>
      </trkpt>
      <trkpt lat="44.05639" lon="2.90803">
        <ele>329.3</ele>
        <time>2021-08-15T12:26:58Z</time>
      </trkpt>
      <trkpt lat="44.05635" lon="2.90806">
        <ele>329.2</ele>
        <time>2021-08-15T12:27:00Z</time>
      </trkpt>
      <trkpt lat="44.05632" lon="2.9081">
        <ele>329.1</ele>
        <time>2021-08-15T12:27:02Z</time>
      </trkpt>
      <trkpt lat="44.05628" lon="2.90814">
        <ele>329</ele>
        <time>2021-08-15T12:27:04Z</time>
      </trkpt>
      <trkpt lat="44.05624" lon="2.90818">
        <ele>328.9</ele>
        <time>2021-08-15T12:27:06Z</time>
      </trkpt>
      <trkpt lat="44.0562" lon="2.90821">
        <ele>328.7</ele>
        <time>2021-08-15T12:27:08Z</time>
      </trkpt>
      <trkpt lat="44.05616" lon="2.90826">
        <ele>328.5</ele>
        <time>2021-08-15T12:27:10Z</time>
      </trkpt>
      <trkpt lat="44.05611" lon="2.9083">
        <ele>328.1</ele>
        <time>2021-08-15T12:27:12Z</time>
      </trkpt>
      <trkpt lat="44.05606" lon="2.90834">
        <ele>327.8</ele>
        <time>2021-08-15T12:27:14Z</time>
      </trkpt>
      <trkpt lat="44.05601" lon="2.90839">
        <ele>327.6</ele>
        <time>2021-08-15T12:27:16Z</time>
      </trkpt>
      <trkpt lat="44.05596" lon="2.90845">
        <ele>327.4</ele>
        <time>2021-08-15T12:27:18Z</time>
      </trkpt>
      <trkpt lat="44.05592" lon="2.90851">
        <ele>327.4</ele>
        <time>2021-08-15T12:27:20Z</time>
      </trkpt>
      <trkpt lat="44.05588" lon="2.90858">
        <ele>327.4</ele>
        <time>2021-08-15T12:27:22Z</time>
      </trkpt>
      <trkpt lat="44.05584" lon="2.90864">
        <ele>327.4</ele>
        <time>2021-08-15T12:27:24Z</time>
      </trkpt>
      <trkpt lat="44.0558" lon="2.90871">
        <ele>327.6</ele>
        <time>2021-08-15T12:27:26Z</time>
      </trkpt>
      <trkpt lat="44.05576" lon="2.90879">
        <ele>327.9</ele>
        <time>2021-08-15T12:27:28Z</time>
      </trkpt>
      <trkpt lat="44.05572" lon="2.90886">
        <ele>328.2</ele>
        <time>2021-08-15T12:27:30Z</time>
      </trkpt>
      <trkpt lat="44.05567" lon="2.90892">
        <ele>328.4</ele>
        <time>2021-08-15T12:27:32Z</time>
      </trkpt>
      <trkpt lat="44.05563" lon="2.909">
        <ele>328.6</ele>
        <time>2021-08-15T12:27:34Z</time>
      </trkpt>
      <trkpt lat="44.05559" lon="2.90907">
        <ele>328.7</ele>
        <time>2021-08-15T12:27:36Z</time>
      </trkpt>
      <trkpt lat="44.05554" lon="2.90914">
        <ele>328.8</ele>
        <time>2021-08-15T12:27:38Z</time>
      </trkpt>
      <trkpt lat="44.0555" lon="2.90922">
        <ele>329</ele>
        <time>2021-08-15T12:27:40Z</time>
      </trkpt>
      <trkpt lat="44.05545" lon="2.90929">
        <ele>329.1</ele>
        <time>2021-08-15T12:27:42Z</time>
      </trkpt>
      <trkpt lat="44.05541" lon="2.90936">
        <ele>329.2</ele>
        <time>2021-08-15T12:27:44Z</time>
      </trkpt>
      <trkpt lat="44.05537" lon="2.90943">
        <ele>329.3</ele>
        <time>2021-08-15T12:27:46Z</time>
      </trkpt>
      <trkpt lat="44.05533" lon="2.90951">
        <ele>329.4</ele>
        <time>2021-08-15T12:27:48Z</time>
      </trkpt>
      <trkpt lat="44.05529" lon="2.90959">
        <ele>329.5</ele>
        <time>2021-08-15T12:27:50Z</time>
      </trkpt>
      <trkpt lat="44.05525" lon="2.90967">
        <ele>329.5</ele>
        <time>2021-08-15T12:27:52Z</time>
      </trkpt>
      <trkpt lat="44.05523" lon="2.90975">
        <ele>329.7</ele>
        <time>2021-08-15T12:27:54Z</time>
      </trkpt>
      <trkpt lat="44.0552" lon="2.90983">
        <ele>329.8</ele>
        <time>2021-08-15T12:27:56Z</time>
      </trkpt>
      <trkpt lat="44.05518" lon="2.90992">
        <ele>329.9</ele>
        <time>2021-08-15T12:27:58Z</time>
      </trkpt>
      <trkpt lat="44.05516" lon="2.91">
        <ele>330.1</ele>
        <time>2021-08-15T12:28:00Z</time>
      </trkpt>
      <trkpt lat="44.05514" lon="2.91009">
        <ele>330.1</ele>
        <time>2021-08-15T12:28:02Z</time>
      </trkpt>
      <trkpt lat="44.05511" lon="2.91018">
        <ele>330</ele>
        <time>2021-08-15T12:28:04Z</time>
      </trkpt>
      <trkpt lat="44.0551" lon="2.91027">
        <ele>330.1</ele>
        <time>2021-08-15T12:28:06Z</time>
      </trkpt>
      <trkpt lat="44.05508" lon="2.91034">
        <ele>330</ele>
        <time>2021-08-15T12:28:08Z</time>
      </trkpt>
      <trkpt lat="44.05506" lon="2.91041">
        <ele>329.9</ele>
        <time>2021-08-15T12:28:10Z</time>
      </trkpt>
      <trkpt lat="44.05504" lon="2.91047">
        <ele>329.7</ele>
        <time>2021-08-15T12:28:12Z</time>
      </trkpt>
      <trkpt lat="44.05502" lon="2.91055">
        <ele>329.6</ele>
        <time>2021-08-15T12:28:14Z</time>
      </trkpt>
      <trkpt lat="44.055" lon="2.91062">
        <ele>329.5</ele>
        <time>2021-08-15T12:28:16Z</time>
      </trkpt>
      <trkpt lat="44.05498" lon="2.9107">
        <ele>329.6</ele>
        <time>2021-08-15T12:28:18Z</time>
      </trkpt>
      <trkpt lat="44.05498" lon="2.91079">
        <ele>329.7</ele>
        <time>2021-08-15T12:28:20Z</time>
      </trkpt>
      <trkpt lat="44.05498" lon="2.91087">
        <ele>329.7</ele>
        <time>2021-08-15T12:28:22Z</time>
      </trkpt>
      <trkpt lat="44.05498" lon="2.91094">
        <ele>329.6</ele>
        <time>2021-08-15T12:28:24Z</time>
      </trkpt>
      <trkpt lat="44.05498" lon="2.91102">
        <ele>329.4</ele>
        <time>2021-08-15T12:28:26Z</time>
      </trkpt>
      <trkpt lat="44.05499" lon="2.9111">
        <ele>329.3</ele>
        <time>2021-08-15T12:28:28Z</time>
      </trkpt>
      <trkpt lat="44.05501" lon="2.91117">
        <ele>329.4</ele>
        <time>2021-08-15T12:28:30Z</time>
      </trkpt>
      <trkpt lat="44.05503" lon="2.91124">
        <ele>329.5</ele>
        <time>2021-08-15T12:28:32Z</time>
      </trkpt>
      <trkpt lat="44.05505" lon="2.91131">
        <ele>329.7</ele>
        <time>2021-08-15T12:28:34Z</time>
      </trkpt>
      <trkpt lat="44.05507" lon="2.91138">
        <ele>330</ele>
        <time>2021-08-15T12:28:36Z</time>
      </trkpt>
      <trkpt lat="44.05509" lon="2.91146">
        <ele>330.2</ele>
        <time>2021-08-15T12:28:38Z</time>
      </trkpt>
      <trkpt lat="44.05512" lon="2.91153">
        <ele>330.5</ele>
        <time>2021-08-15T12:28:40Z</time>
      </trkpt>
      <trkpt lat="44.05514" lon="2.9116">
        <ele>330.8</ele>
        <time>2021-08-15T12:28:42Z</time>
      </trkpt>
      <trkpt lat="44.05517" lon="2.91168">
        <ele>331.1</ele>
        <time>2021-08-15T12:28:44Z</time>
      </trkpt>
      <trkpt lat="44.05519" lon="2.91175">
        <ele>331.3</ele>
        <time>2021-08-15T12:28:46Z</time>
      </trkpt>
      <trkpt lat="44.05522" lon="2.91183">
        <ele>331.5</ele>
        <time>2021-08-15T12:28:48Z</time>
      </trkpt>
      <trkpt lat="44.05524" lon="2.91191">
        <ele>331.7</ele>
        <time>2021-08-15T12:28:50Z</time>
      </trkpt>
      <trkpt lat="44.05527" lon="2.912">
        <ele>331.9</ele>
        <time>2021-08-15T12:28:52Z</time>
      </trkpt>
      <trkpt lat="44.0553" lon="2.91208">
        <ele>332</ele>
        <time>2021-08-15T12:28:54Z</time>
      </trkpt>
      <trkpt lat="44.05532" lon="2.91216">
        <ele>332.2</ele>
        <time>2021-08-15T12:28:56Z</time>
      </trkpt>
      <trkpt lat="44.05535" lon="2.91224">
        <ele>332.3</ele>
        <time>2021-08-15T12:28:58Z</time>
      </trkpt>
      <trkpt lat="44.05538" lon="2.91231">
        <ele>332.5</ele>
        <time>2021-08-15T12:29:00Z</time>
      </trkpt>
      <trkpt lat="44.05541" lon="2.91238">
        <ele>332.9</ele>
        <time>2021-08-15T12:29:02Z</time>
      </trkpt>
      <trkpt lat="44.05544" lon="2.91246">
        <ele>333.1</ele>
        <time>2021-08-15T12:29:04Z</time>
      </trkpt>
      <trkpt lat="44.05547" lon="2.91254">
        <ele>333.2</ele>
        <time>2021-08-15T12:29:06Z</time>
      </trkpt>
      <trkpt lat="44.05551" lon="2.91263">
        <ele>333.4</ele>
        <time>2021-08-15T12:29:08Z</time>
      </trkpt>
      <trkpt lat="44.05555" lon="2.91271">
        <ele>333.6</ele>
        <time>2021-08-15T12:29:10Z</time>
      </trkpt>
      <trkpt lat="44.05558" lon="2.91281">
        <ele>333.5</ele>
        <time>2021-08-15T12:29:12Z</time>
      </trkpt>
      <trkpt lat="44.05562" lon="2.9129">
        <ele>333.4</ele>
        <time>2021-08-15T12:29:14Z</time>
      </trkpt>
      <trkpt lat="44.05565" lon="2.91298">
        <ele>333.3</ele>
        <time>2021-08-15T12:29:16Z</time>
      </trkpt>
      <trkpt lat="44.05569" lon="2.91307">
        <ele>333.2</ele>
        <time>2021-08-15T12:29:18Z</time>
      </trkpt>
      <trkpt lat="44.05572" lon="2.91317">
        <ele>332.9</ele>
        <time>2021-08-15T12:29:20Z</time>
      </trkpt>
      <trkpt lat="44.05576" lon="2.91325">
        <ele>332.8</ele>
        <time>2021-08-15T12:29:22Z</time>
      </trkpt>
      <trkpt lat="44.05581" lon="2.91334">
        <ele>332.7</ele>
        <time>2021-08-15T12:29:24Z</time>
      </trkpt>
      <trkpt lat="44.05587" lon="2.91343">
        <ele>333.3</ele>
        <time>2021-08-15T12:29:26Z</time>
      </trkpt>
      <trkpt lat="44.05592" lon="2.91351">
        <ele>334.3</ele>
        <time>2021-08-15T12:29:28Z</time>
      </trkpt>
      <trkpt lat="44.05598" lon="2.9136">
        <ele>335.2</ele>
        <time>2021-08-15T12:29:30Z</time>
      </trkpt>
      <trkpt lat="44.05604" lon="2.91369">
        <ele>336.1</ele>
        <time>2021-08-15T12:29:32Z</time>
      </trkpt>
      <trkpt lat="44.0561" lon="2.91378">
        <ele>336.8</ele>
        <time>2021-08-15T12:29:34Z</time>
      </trkpt>
      <trkpt lat="44.05616" lon="2.91386">
        <ele>337.6</ele>
        <time>2021-08-15T12:29:36Z</time>
      </trkpt>
      <trkpt lat="44.05622" lon="2.91395">
        <ele>338.3</ele>
        <time>2021-08-15T12:29:38Z</time>
      </trkpt>
      <trkpt lat="44.05628" lon="2.91403">
        <ele>338.9</ele>
        <time>2021-08-15T12:29:40Z</time>
      </trkpt>
      <trkpt lat="44.05634" lon="2.91411">
        <ele>339.5</ele>
        <time>2021-08-15T12:29:42Z</time>
      </trkpt>
      <trkpt lat="44.0564" lon="2.91419">
        <ele>340</ele>
        <time>2021-08-15T12:29:44Z</time>
      </trkpt>
      <trkpt lat="44.05647" lon="2.91426">
        <ele>340.2</ele>
        <time>2021-08-15T12:29:46Z</time>
      </trkpt>
      <trkpt lat="44.05653" lon="2.91433">
        <ele>340.2</ele>
        <time>2021-08-15T12:29:48Z</time>
      </trkpt>
      <trkpt lat="44.05659" lon="2.91439">
        <ele>340.1</ele>
        <time>2021-08-15T12:29:50Z</time>
      </trkpt>
      <trkpt lat="44.05665" lon="2.91445">
        <ele>339.8</ele>
        <time>2021-08-15T12:29:52Z</time>
      </trkpt>
      <trkpt lat="44.05671" lon="2.91452">
        <ele>339.9</ele>
        <time>2021-08-15T12:29:54Z</time>
      </trkpt>
      <trkpt lat="44.05677" lon="2.91458">
        <ele>340.2</ele>
        <time>2021-08-15T12:29:56Z</time>
      </trkpt>
      <trkpt lat="44.05683" lon="2.91465">
        <ele>340.4</ele>
        <time>2021-08-15T12:29:58Z</time>
      </trkpt>
      <trkpt lat="44.05689" lon="2.91471">
        <ele>340.6</ele>
        <time>2021-08-15T12:30:00Z</time>
      </trkpt>
      <trkpt lat="44.05694" lon="2.91477">
        <ele>340.6</ele>
        <time>2021-08-15T12:30:02Z</time>
      </trkpt>
      <trkpt lat="44.057" lon="2.91483">
        <ele>340.5</ele>
        <time>2021-08-15T12:30:04Z</time>
      </trkpt>
      <trkpt lat="44.05706" lon="2.91489">
        <ele>340.5</ele>
        <time>2021-08-15T12:30:06Z</time>
      </trkpt>
      <trkpt lat="44.05712" lon="2.91495">
        <ele>340.5</ele>
        <time>2021-08-15T12:30:08Z</time>
      </trkpt>
      <trkpt lat="44.05718" lon="2.91501">
        <ele>340.4</ele>
        <time>2021-08-15T12:30:10Z</time>
      </trkpt>
      <trkpt lat="44.05724" lon="2.91507">
        <ele>340.5</ele>
        <time>2021-08-15T12:30:12Z</time>
      </trkpt>
      <trkpt lat="44.05731" lon="2.91512">
        <ele>340.9</ele>
        <time>2021-08-15T12:30:14Z</time>
      </trkpt>
      <trkpt lat="44.05737" lon="2.91517">
        <ele>341</ele>
        <time>2021-08-15T12:30:16Z</time>
      </trkpt>
      <trkpt lat="44.05744" lon="2.91522">
        <ele>341</ele>
        <time>2021-08-15T12:30:18Z</time>
      </trkpt>
      <trkpt lat="44.0575" lon="2.91526">
        <ele>341.1</ele>
        <time>2021-08-15T12:30:20Z</time>
      </trkpt>
      <trkpt lat="44.05757" lon="2.91531">
        <ele>341.5</ele>
        <time>2021-08-15T12:30:22Z</time>
      </trkpt>
      <trkpt lat="44.05763" lon="2.91535">
        <ele>341.8</ele>
        <time>2021-08-15T12:30:24Z</time>
      </trkpt>
      <trkpt lat="44.0577" lon="2.91539">
        <ele>342.2</ele>
        <time>2021-08-15T12:30:26Z</time>
      </trkpt>
      <trkpt lat="44.05776" lon="2.91544">
        <ele>342.2</ele>
        <time>2021-08-15T12:30:28Z</time>
      </trkpt>
      <trkpt lat="44.05783" lon="2.91548">
        <ele>342.2</ele>
        <time>2021-08-15T12:30:30Z</time>
      </trkpt>
      <trkpt lat="44.05789" lon="2.91552">
        <ele>342.1</ele>
        <time>2021-08-15T12:30:32Z</time>
      </trkpt>
      <trkpt lat="44.05795" lon="2.91557">
        <ele>341.9</ele>
        <time>2021-08-15T12:30:34Z</time>
      </trkpt>
      <trkpt lat="44.05802" lon="2.91561">
        <ele>341.6</ele>
        <time>2021-08-15T12:30:36Z</time>
      </trkpt>
      <trkpt lat="44.05808" lon="2.91565">
        <ele>341.4</ele>
        <time>2021-08-15T12:30:38Z</time>
      </trkpt>
      <trkpt lat="44.05814" lon="2.91569">
        <ele>341.3</ele>
        <time>2021-08-15T12:30:40Z</time>
      </trkpt>
      <trkpt lat="44.0582" lon="2.91573">
        <ele>340.8</ele>
        <time>2021-08-15T12:30:42Z</time>
      </trkpt>
      <trkpt lat="44.05826" lon="2.91577">
        <ele>340.3</ele>
        <time>2021-08-15T12:30:44Z</time>
      </trkpt>
      <trkpt lat="44.05833" lon="2.9158">
        <ele>340.1</ele>
        <time>2021-08-15T12:30:46Z</time>
      </trkpt>
      <trkpt lat="44.0584" lon="2.91583">
        <ele>340.1</ele>
        <time>2021-08-15T12:30:48Z</time>
      </trkpt>
      <trkpt lat="44.05846" lon="2.91586">
        <ele>340.7</ele>
        <time>2021-08-15T12:30:50Z</time>
      </trkpt>
      <trkpt lat="44.05853" lon="2.9159">
        <ele>341.1</ele>
        <time>2021-08-15T12:30:52Z</time>
      </trkpt>
      <trkpt lat="44.05859" lon="2.91592">
        <ele>341.6</ele>
        <time>2021-08-15T12:30:54Z</time>
      </trkpt>
      <trkpt lat="44.05866" lon="2.91596">
        <ele>341.9</ele>
        <time>2021-08-15T12:30:56Z</time>
      </trkpt>
      <trkpt lat="44.05873" lon="2.91599">
        <ele>342.1</ele>
        <time>2021-08-15T12:30:58Z</time>
      </trkpt>
      <trkpt lat="44.0588" lon="2.91602">
        <ele>342.4</ele>
        <time>2021-08-15T12:31:00Z</time>
      </trkpt>
      <trkpt lat="44.05886" lon="2.91605">
        <ele>342.8</ele>
        <time>2021-08-15T12:31:02Z</time>
      </trkpt>
      <trkpt lat="44.05893" lon="2.91608">
        <ele>343</ele>
        <time>2021-08-15T12:31:04Z</time>
      </trkpt>
      <trkpt lat="44.059" lon="2.9161">
        <ele>343.1</ele>
        <time>2021-08-15T12:31:06Z</time>
      </trkpt>
      <trkpt lat="44.05906" lon="2.91613">
        <ele>343.3</ele>
        <time>2021-08-15T12:31:08Z</time>
      </trkpt>
      <trkpt lat="44.05913" lon="2.91616">
        <ele>343.3</ele>
        <time>2021-08-15T12:31:10Z</time>
      </trkpt>
      <trkpt lat="44.0592" lon="2.91619">
        <ele>343.1</ele>
        <time>2021-08-15T12:31:12Z</time>
      </trkpt>
      <trkpt lat="44.05927" lon="2.91622">
        <ele>342.7</ele>
        <time>2021-08-15T12:31:14Z</time>
      </trkpt>
      <trkpt lat="44.05934" lon="2.91625">
        <ele>342.2</ele>
        <time>2021-08-15T12:31:16Z</time>
      </trkpt>
      <trkpt lat="44.05941" lon="2.91628">
        <ele>341.8</ele>
        <time>2021-08-15T12:31:18Z</time>
      </trkpt>
      <trkpt lat="44.05948" lon="2.91632">
        <ele>341.3</ele>
        <time>2021-08-15T12:31:20Z</time>
      </trkpt>
      <trkpt lat="44.05955" lon="2.91635">
        <ele>340.9</ele>
        <time>2021-08-15T12:31:22Z</time>
      </trkpt>
      <trkpt lat="44.05963" lon="2.91638">
        <ele>340.6</ele>
        <time>2021-08-15T12:31:24Z</time>
      </trkpt>
      <trkpt lat="44.05971" lon="2.91641">
        <ele>340.2</ele>
        <time>2021-08-15T12:31:26Z</time>
      </trkpt>
      <trkpt lat="44.0598" lon="2.91644">
        <ele>339.8</ele>
        <time>2021-08-15T12:31:28Z</time>
      </trkpt>
      <trkpt lat="44.05988" lon="2.91647">
        <ele>339.6</ele>
        <time>2021-08-15T12:31:30Z</time>
      </trkpt>
      <trkpt lat="44.05997" lon="2.91649">
        <ele>339.5</ele>
        <time>2021-08-15T12:31:32Z</time>
      </trkpt>
      <trkpt lat="44.06006" lon="2.91651">
        <ele>339.3</ele>
        <time>2021-08-15T12:31:34Z</time>
      </trkpt>
      <trkpt lat="44.06015" lon="2.91652">
        <ele>339.2</ele>
        <time>2021-08-15T12:31:36Z</time>
      </trkpt>
      <trkpt lat="44.06024" lon="2.91653">
        <ele>339.1</ele>
        <time>2021-08-15T12:31:38Z</time>
      </trkpt>
      <trkpt lat="44.06033" lon="2.91654">
        <ele>339.1</ele>
        <time>2021-08-15T12:31:40Z</time>
      </trkpt>
      <trkpt lat="44.06042" lon="2.91655">
        <ele>339.1</ele>
        <time>2021-08-15T12:31:42Z</time>
      </trkpt>
      <trkpt lat="44.06051" lon="2.91657">
        <ele>338.9</ele>
        <time>2021-08-15T12:31:44Z</time>
      </trkpt>
      <trkpt lat="44.06059" lon="2.91657">
        <ele>339.1</ele>
        <time>2021-08-15T12:31:46Z</time>
      </trkpt>
      <trkpt lat="44.06068" lon="2.91659">
        <ele>338.9</ele>
        <time>2021-08-15T12:31:48Z</time>
      </trkpt>
      <trkpt lat="44.06077" lon="2.91661">
        <ele>338.5</ele>
        <time>2021-08-15T12:31:50Z</time>
      </trkpt>
      <trkpt lat="44.06086" lon="2.91663">
        <ele>338.1</ele>
        <time>2021-08-15T12:31:52Z</time>
      </trkpt>
      <trkpt lat="44.06094" lon="2.91666">
        <ele>337.4</ele>
        <time>2021-08-15T12:31:54Z</time>
      </trkpt>
      <trkpt lat="44.06103" lon="2.91669">
        <ele>337.2</ele>
        <time>2021-08-15T12:31:56Z</time>
      </trkpt>
      <trkpt lat="44.06111" lon="2.91671">
        <ele>337</ele>
        <time>2021-08-15T12:31:58Z</time>
      </trkpt>
      <trkpt lat="44.0612" lon="2.91674">
        <ele>336.8</ele>
        <time>2021-08-15T12:32:00Z</time>
      </trkpt>
      <trkpt lat="44.06128" lon="2.91677">
        <ele>336.6</ele>
        <time>2021-08-15T12:32:02Z</time>
      </trkpt>
      <trkpt lat="44.06136" lon="2.91679">
        <ele>336.4</ele>
        <time>2021-08-15T12:32:04Z</time>
      </trkpt>
      <trkpt lat="44.06144" lon="2.91682">
        <ele>336.3</ele>
        <time>2021-08-15T12:32:06Z</time>
      </trkpt>
      <trkpt lat="44.06151" lon="2.91684">
        <ele>336.2</ele>
        <time>2021-08-15T12:32:08Z</time>
      </trkpt>
      <trkpt lat="44.06159" lon="2.91687">
        <ele>336.1</ele>
        <time>2021-08-15T12:32:10Z</time>
      </trkpt>
      <trkpt lat="44.06167" lon="2.91691">
        <ele>335.9</ele>
        <time>2021-08-15T12:32:12Z</time>
      </trkpt>
      <trkpt lat="44.06176" lon="2.91694">
        <ele>335.4</ele>
        <time>2021-08-15T12:32:14Z</time>
      </trkpt>
      <trkpt lat="44.06184" lon="2.91697">
        <ele>335.1</ele>
        <time>2021-08-15T12:32:16Z</time>
      </trkpt>
      <trkpt lat="44.06193" lon="2.917">
        <ele>334.7</ele>
        <time>2021-08-15T12:32:18Z</time>
      </trkpt>
      <trkpt lat="44.06202" lon="2.91704">
        <ele>334.3</ele>
        <time>2021-08-15T12:32:20Z</time>
      </trkpt>
      <trkpt lat="44.06212" lon="2.91708">
        <ele>333.8</ele>
        <time>2021-08-15T12:32:22Z</time>
      </trkpt>
      <trkpt lat="44.06221" lon="2.91709">
        <ele>333.7</ele>
        <time>2021-08-15T12:32:24Z</time>
      </trkpt>
      <trkpt lat="44.0623" lon="2.91711">
        <ele>333.5</ele>
        <time>2021-08-15T12:32:26Z</time>
      </trkpt>
      <trkpt lat="44.0624" lon="2.91711">
        <ele>333.6</ele>
        <time>2021-08-15T12:32:28Z</time>
      </trkpt>
      <trkpt lat="44.06249" lon="2.91711">
        <ele>333.7</ele>
        <time>2021-08-15T12:32:30Z</time>
      </trkpt>
      <trkpt lat="44.06258" lon="2.91709">
        <ele>333.6</ele>
        <time>2021-08-15T12:32:32Z</time>
      </trkpt>
      <trkpt lat="44.06268" lon="2.91706">
        <ele>333.4</ele>
        <time>2021-08-15T12:32:34Z</time>
      </trkpt>
      <trkpt lat="44.06277" lon="2.91703">
        <ele>333.3</ele>
        <time>2021-08-15T12:32:36Z</time>
      </trkpt>
      <trkpt lat="44.06287" lon="2.91698">
        <ele>333.4</ele>
        <time>2021-08-15T12:32:38Z</time>
      </trkpt>
      <trkpt lat="44.06296" lon="2.9169">
        <ele>333.7</ele>
        <time>2021-08-15T12:32:40Z</time>
      </trkpt>
      <trkpt lat="44.06305" lon="2.91682">
        <ele>334</ele>
        <time>2021-08-15T12:32:42Z</time>
      </trkpt>
      <trkpt lat="44.06315" lon="2.91676">
        <ele>334.2</ele>
        <time>2021-08-15T12:32:44Z</time>
      </trkpt>
      <trkpt lat="44.06326" lon="2.91671">
        <ele>334</ele>
        <time>2021-08-15T12:32:46Z</time>
      </trkpt>
      <trkpt lat="44.06337" lon="2.91669">
        <ele>333.5</ele>
        <time>2021-08-15T12:32:48Z</time>
      </trkpt>
      <trkpt lat="44.06348" lon="2.91666">
        <ele>332.7</ele>
        <time>2021-08-15T12:32:50Z</time>
      </trkpt>
      <trkpt lat="44.06359" lon="2.91663">
        <ele>332.1</ele>
        <time>2021-08-15T12:32:52Z</time>
      </trkpt>
      <trkpt lat="44.0637" lon="2.9166">
        <ele>331.8</ele>
        <time>2021-08-15T12:32:54Z</time>
      </trkpt>
      <trkpt lat="44.06381" lon="2.91655">
        <ele>331.7</ele>
        <time>2021-08-15T12:32:56Z</time>
      </trkpt>
      <trkpt lat="44.06391" lon="2.91649">
        <ele>331.9</ele>
        <time>2021-08-15T12:32:58Z</time>
      </trkpt>
      <trkpt lat="44.064" lon="2.91641">
        <ele>332.6</ele>
        <time>2021-08-15T12:33:00Z</time>
      </trkpt>
      <trkpt lat="44.06409" lon="2.91632">
        <ele>333.8</ele>
        <time>2021-08-15T12:33:02Z</time>
      </trkpt>
      <trkpt lat="44.06418" lon="2.91621">
        <ele>335.2</ele>
        <time>2021-08-15T12:33:04Z</time>
      </trkpt>
      <trkpt lat="44.06426" lon="2.9161">
        <ele>336.9</ele>
        <time>2021-08-15T12:33:06Z</time>
      </trkpt>
      <trkpt lat="44.06434" lon="2.91599">
        <ele>338.3</ele>
        <time>2021-08-15T12:33:08Z</time>
      </trkpt>
      <trkpt lat="44.06442" lon="2.91587">
        <ele>339.7</ele>
        <time>2021-08-15T12:33:10Z</time>
      </trkpt>
      <trkpt lat="44.06451" lon="2.91576">
        <ele>341.5</ele>
        <time>2021-08-15T12:33:12Z</time>
      </trkpt>
      <trkpt lat="44.06461" lon="2.91567">
        <ele>342.9</ele>
        <time>2021-08-15T12:33:14Z</time>
      </trkpt>
      <trkpt lat="44.06471" lon="2.9156">
        <ele>343.2</ele>
        <time>2021-08-15T12:33:16Z</time>
      </trkpt>
      <trkpt lat="44.06482" lon="2.91555">
        <ele>343</ele>
        <time>2021-08-15T12:33:18Z</time>
      </trkpt>
      <trkpt lat="44.06494" lon="2.91551">
        <ele>342.2</ele>
        <time>2021-08-15T12:33:20Z</time>
      </trkpt>
      <trkpt lat="44.06505" lon="2.91545">
        <ele>342.2</ele>
        <time>2021-08-15T12:33:22Z</time>
      </trkpt>
      <trkpt lat="44.06517" lon="2.91541">
        <ele>342.3</ele>
        <time>2021-08-15T12:33:24Z</time>
      </trkpt>
      <trkpt lat="44.06528" lon="2.91536">
        <ele>342.2</ele>
        <time>2021-08-15T12:33:26Z</time>
      </trkpt>
      <trkpt lat="44.0654" lon="2.91532">
        <ele>342.1</ele>
        <time>2021-08-15T12:33:28Z</time>
      </trkpt>
      <trkpt lat="44.06552" lon="2.91528">
        <ele>341.6</ele>
        <time>2021-08-15T12:33:30Z</time>
      </trkpt>
      <trkpt lat="44.06563" lon="2.91526">
        <ele>341</ele>
        <time>2021-08-15T12:33:32Z</time>
      </trkpt>
      <trkpt lat="44.06576" lon="2.91523">
        <ele>340.2</ele>
        <time>2021-08-15T12:33:34Z</time>
      </trkpt>
      <trkpt lat="44.06588" lon="2.9152">
        <ele>339.5</ele>
        <time>2021-08-15T12:33:36Z</time>
      </trkpt>
      <trkpt lat="44.06601" lon="2.91517">
        <ele>338.8</ele>
        <time>2021-08-15T12:33:38Z</time>
      </trkpt>
      <trkpt lat="44.06613" lon="2.91515">
        <ele>338</ele>
        <time>2021-08-15T12:33:40Z</time>
      </trkpt>
      <trkpt lat="44.06625" lon="2.91511">
        <ele>337.4</ele>
        <time>2021-08-15T12:33:42Z</time>
      </trkpt>
      <trkpt lat="44.06637" lon="2.91507">
        <ele>336.8</ele>
        <time>2021-08-15T12:33:44Z</time>
      </trkpt>
      <trkpt lat="44.06648" lon="2.91501">
        <ele>336.6</ele>
        <time>2021-08-15T12:33:46Z</time>
      </trkpt>
      <trkpt lat="44.0666" lon="2.91496">
        <ele>336.9</ele>
        <time>2021-08-15T12:33:48Z</time>
      </trkpt>
      <trkpt lat="44.06672" lon="2.91491">
        <ele>336.8</ele>
        <time>2021-08-15T12:33:50Z</time>
      </trkpt>
      <trkpt lat="44.06684" lon="2.91487">
        <ele>336.4</ele>
        <time>2021-08-15T12:33:52Z</time>
      </trkpt>
      <trkpt lat="44.06696" lon="2.91481">
        <ele>336.1</ele>
        <time>2021-08-15T12:33:54Z</time>
      </trkpt>
      <trkpt lat="44.06708" lon="2.91474">
        <ele>335.7</ele>
        <time>2021-08-15T12:33:56Z</time>
      </trkpt>
      <trkpt lat="44.06719" lon="2.91465">
        <ele>335.5</ele>
        <time>2021-08-15T12:33:58Z</time>
      </trkpt>
      <trkpt lat="44.06729" lon="2.91454">
        <ele>335.7</ele>
        <time>2021-08-15T12:34:00Z</time>
      </trkpt>
      <trkpt lat="44.06738" lon="2.91444">
        <ele>335.6</ele>
        <time>2021-08-15T12:34:02Z</time>
      </trkpt>
      <trkpt lat="44.06747" lon="2.91434">
        <ele>335.2</ele>
        <time>2021-08-15T12:34:04Z</time>
      </trkpt>
      <trkpt lat="44.06755" lon="2.91424">
        <ele>334.9</ele>
        <time>2021-08-15T12:34:06Z</time>
      </trkpt>
      <trkpt lat="44.06763" lon="2.91414">
        <ele>335.3</ele>
        <time>2021-08-15T12:34:08Z</time>
      </trkpt>
      <trkpt lat="44.0677" lon="2.91403">
        <ele>336.5</ele>
        <time>2021-08-15T12:34:10Z</time>
      </trkpt>
      <trkpt lat="44.06776" lon="2.91392">
        <ele>337.6</ele>
        <time>2021-08-15T12:34:12Z</time>
      </trkpt>
      <trkpt lat="44.06782" lon="2.91381">
        <ele>338.6</ele>
        <time>2021-08-15T12:34:14Z</time>
      </trkpt>
      <trkpt lat="44.06787" lon="2.91369">
        <ele>339.5</ele>
        <time>2021-08-15T12:34:16Z</time>
      </trkpt>
      <trkpt lat="44.06793" lon="2.91358">
        <ele>340.2</ele>
        <time>2021-08-15T12:34:18Z</time>
      </trkpt>
      <trkpt lat="44.06799" lon="2.91346">
        <ele>340.5</ele>
        <time>2021-08-15T12:34:20Z</time>
      </trkpt>
      <trkpt lat="44.06805" lon="2.91336">
        <ele>340.5</ele>
        <time>2021-08-15T12:34:22Z</time>
      </trkpt>
      <trkpt lat="44.06811" lon="2.91325">
        <ele>340.7</ele>
        <time>2021-08-15T12:34:24Z</time>
      </trkpt>
      <trkpt lat="44.06818" lon="2.91315">
        <ele>340.8</ele>
        <time>2021-08-15T12:34:26Z</time>
      </trkpt>
      <trkpt lat="44.06826" lon="2.91305">
        <ele>340.4</ele>
        <time>2021-08-15T12:34:28Z</time>
      </trkpt>
      <trkpt lat="44.06834" lon="2.91298">
        <ele>339.5</ele>
        <time>2021-08-15T12:34:30Z</time>
      </trkpt>
      <trkpt lat="44.06843" lon="2.91291">
        <ele>339.7</ele>
        <time>2021-08-15T12:34:32Z</time>
      </trkpt>
      <trkpt lat="44.06851" lon="2.91283">
        <ele>340.1</ele>
        <time>2021-08-15T12:34:34Z</time>
      </trkpt>
      <trkpt lat="44.06859" lon="2.91276">
        <ele>340.4</ele>
        <time>2021-08-15T12:34:36Z</time>
      </trkpt>
      <trkpt lat="44.06868" lon="2.91268">
        <ele>340.6</ele>
        <time>2021-08-15T12:34:38Z</time>
      </trkpt>
      <trkpt lat="44.06875" lon="2.91261">
        <ele>340.7</ele>
        <time>2021-08-15T12:34:40Z</time>
      </trkpt>
      <trkpt lat="44.06882" lon="2.91254">
        <ele>340.8</ele>
        <time>2021-08-15T12:34:42Z</time>
      </trkpt>
      <trkpt lat="44.06889" lon="2.91246">
        <ele>341.6</ele>
        <time>2021-08-15T12:34:44Z</time>
      </trkpt>
      <trkpt lat="44.06896" lon="2.91239">
        <ele>342.6</ele>
        <time>2021-08-15T12:34:46Z</time>
      </trkpt>
      <trkpt lat="44.06903" lon="2.91232">
        <ele>343.7</ele>
        <time>2021-08-15T12:34:48Z</time>
      </trkpt>
      <trkpt lat="44.06911" lon="2.91225">
        <ele>344.6</ele>
        <time>2021-08-15T12:34:50Z</time>
      </trkpt>
      <trkpt lat="44.06918" lon="2.91218">
        <ele>345.6</ele>
        <time>2021-08-15T12:34:52Z</time>
      </trkpt>
      <trkpt lat="44.06926" lon="2.91211">
        <ele>346.6</ele>
        <time>2021-08-15T12:34:54Z</time>
      </trkpt>
      <trkpt lat="44.06934" lon="2.91203">
        <ele>347.3</ele>
        <time>2021-08-15T12:34:56Z</time>
      </trkpt>
      <trkpt lat="44.06942" lon="2.91196">
        <ele>347.8</ele>
        <time>2021-08-15T12:34:58Z</time>
      </trkpt>
      <trkpt lat="44.06949" lon="2.91188">
        <ele>347.9</ele>
        <time>2021-08-15T12:35:00Z</time>
      </trkpt>
      <trkpt lat="44.06956" lon="2.91181">
        <ele>348</ele>
        <time>2021-08-15T12:35:02Z</time>
      </trkpt>
      <trkpt lat="44.06964" lon="2.91173">
        <ele>347.4</ele>
        <time>2021-08-15T12:35:04Z</time>
      </trkpt>
      <trkpt lat="44.06972" lon="2.91167">
        <ele>346.4</ele>
        <time>2021-08-15T12:35:06Z</time>
      </trkpt>
      <trkpt lat="44.06979" lon="2.9116">
        <ele>346.4</ele>
        <time>2021-08-15T12:35:08Z</time>
      </trkpt>
      <trkpt lat="44.06986" lon="2.91154">
        <ele>346.5</ele>
        <time>2021-08-15T12:35:10Z</time>
      </trkpt>
      <trkpt lat="44.06994" lon="2.91147">
        <ele>346.5</ele>
        <time>2021-08-15T12:35:12Z</time>
      </trkpt>
      <trkpt lat="44.07001" lon="2.91141">
        <ele>346.4</ele>
        <time>2021-08-15T12:35:14Z</time>
      </trkpt>
      <trkpt lat="44.07009" lon="2.91135">
        <ele>346.7</ele>
        <time>2021-08-15T12:35:16Z</time>
      </trkpt>
      <trkpt lat="44.07016" lon="2.9113">
        <ele>346.8</ele>
        <time>2021-08-15T12:35:18Z</time>
      </trkpt>
      <trkpt lat="44.07024" lon="2.91124">
        <ele>346.9</ele>
        <time>2021-08-15T12:35:20Z</time>
      </trkpt>
      <trkpt lat="44.07032" lon="2.91118">
        <ele>346.9</ele>
        <time>2021-08-15T12:35:22Z</time>
      </trkpt>
      <trkpt lat="44.07041" lon="2.91112">
        <ele>346.6</ele>
        <time>2021-08-15T12:35:24Z</time>
      </trkpt>
      <trkpt lat="44.07049" lon="2.91106">
        <ele>346.1</ele>
        <time>2021-08-15T12:35:26Z</time>
      </trkpt>
      <trkpt lat="44.07058" lon="2.91099">
        <ele>345.5</ele>
        <time>2021-08-15T12:35:28Z</time>
      </trkpt>
      <trkpt lat="44.07066" lon="2.91094">
        <ele>344.5</ele>
        <time>2021-08-15T12:35:30Z</time>
      </trkpt>
      <trkpt lat="44.07075" lon="2.91088">
        <ele>343.4</ele>
        <time>2021-08-15T12:35:32Z</time>
      </trkpt>
      <trkpt lat="44.07083" lon="2.91083">
        <ele>342</ele>
        <time>2021-08-15T12:35:34Z</time>
      </trkpt>
      <trkpt lat="44.07092" lon="2.91077">
        <ele>343.1</ele>
        <time>2021-08-15T12:35:36Z</time>
      </trkpt>
      <trkpt lat="44.071" lon="2.91072">
        <ele>343.7</ele>
        <time>2021-08-15T12:35:38Z</time>
      </trkpt>
      <trkpt lat="44.07109" lon="2.91067">
        <ele>344.2</ele>
        <time>2021-08-15T12:35:40Z</time>
      </trkpt>
      <trkpt lat="44.07118" lon="2.91063">
        <ele>344.3</ele>
        <time>2021-08-15T12:35:42Z</time>
      </trkpt>
      <trkpt lat="44.07127" lon="2.91058">
        <ele>344.8</ele>
        <time>2021-08-15T12:35:44Z</time>
      </trkpt>
      <trkpt lat="44.07135" lon="2.91054">
        <ele>345</ele>
        <time>2021-08-15T12:35:46Z</time>
      </trkpt>
      <trkpt lat="44.07144" lon="2.91049">
        <ele>345.2</ele>
        <time>2021-08-15T12:35:48Z</time>
      </trkpt>
      <trkpt lat="44.07153" lon="2.91045">
        <ele>345.1</ele>
        <time>2021-08-15T12:35:50Z</time>
      </trkpt>
      <trkpt lat="44.07161" lon="2.91042">
        <ele>344.8</ele>
        <time>2021-08-15T12:35:52Z</time>
      </trkpt>
      <trkpt lat="44.0717" lon="2.91039">
        <ele>344.6</ele>
        <time>2021-08-15T12:35:54Z</time>
      </trkpt>
      <trkpt lat="44.07179" lon="2.91036">
        <ele>344.8</ele>
        <time>2021-08-15T12:35:56Z</time>
      </trkpt>
      <trkpt lat="44.07187" lon="2.91034">
        <ele>344.7</ele>
        <time>2021-08-15T12:35:58Z</time>
      </trkpt>
      <trkpt lat="44.07196" lon="2.91032">
        <ele>344.4</ele>
        <time>2021-08-15T12:36:00Z</time>
      </trkpt>
      <trkpt lat="44.07205" lon="2.9103">
        <ele>344.1</ele>
        <time>2021-08-15T12:36:02Z</time>
      </trkpt>
      <trkpt lat="44.07214" lon="2.91028">
        <ele>343.8</ele>
        <time>2021-08-15T12:36:04Z</time>
      </trkpt>
      <trkpt lat="44.07222" lon="2.91026">
        <ele>343.5</ele>
        <time>2021-08-15T12:36:06Z</time>
      </trkpt>
      <trkpt lat="44.07231" lon="2.91025">
        <ele>342.9</ele>
        <time>2021-08-15T12:36:08Z</time>
      </trkpt>
      <trkpt lat="44.0724" lon="2.91024">
        <ele>342.4</ele>
        <time>2021-08-15T12:36:10Z</time>
      </trkpt>
      <trkpt lat="44.07248" lon="2.91024">
        <ele>341.6</ele>
        <time>2021-08-15T12:36:12Z</time>
      </trkpt>
      <trkpt lat="44.07256" lon="2.91025">
        <ele>341.8</ele>
        <time>2021-08-15T12:36:14Z</time>
      </trkpt>
      <trkpt lat="44.07264" lon="2.91029">
        <ele>341.9</ele>
        <time>2021-08-15T12:36:16Z</time>
      </trkpt>
      <trkpt lat="44.07272" lon="2.91034">
        <ele>341.8</ele>
        <time>2021-08-15T12:36:18Z</time>
      </trkpt>
      <trkpt lat="44.0728" lon="2.91039">
        <ele>341.7</ele>
        <time>2021-08-15T12:36:20Z</time>
      </trkpt>
      <trkpt lat="44.07287" lon="2.91045">
        <ele>341.2</ele>
        <time>2021-08-15T12:36:22Z</time>
      </trkpt>
      <trkpt lat="44.07295" lon="2.91052">
        <ele>340.5</ele>
        <time>2021-08-15T12:36:24Z</time>
      </trkpt>
      <trkpt lat="44.07303" lon="2.91058">
        <ele>340.3</ele>
        <time>2021-08-15T12:36:26Z</time>
      </trkpt>
      <trkpt lat="44.0731" lon="2.91065">
        <ele>339.6</ele>
        <time>2021-08-15T12:36:28Z</time>
      </trkpt>
      <trkpt lat="44.07316" lon="2.91074">
        <ele>338.7</ele>
        <time>2021-08-15T12:36:30Z</time>
      </trkpt>
      <trkpt lat="44.07322" lon="2.91082">
        <ele>337.6</ele>
        <time>2021-08-15T12:36:32Z</time>
      </trkpt>
      <trkpt lat="44.07328" lon="2.91092">
        <ele>337.2</ele>
        <time>2021-08-15T12:36:34Z</time>
      </trkpt>
      <trkpt lat="44.07333" lon="2.91102">
        <ele>336.5</ele>
        <time>2021-08-15T12:36:36Z</time>
      </trkpt>
      <trkpt lat="44.07339" lon="2.91112">
        <ele>336.5</ele>
        <time>2021-08-15T12:36:38Z</time>
      </trkpt>
      <trkpt lat="44.07344" lon="2.91122">
        <ele>336</ele>
        <time>2021-08-15T12:36:40Z</time>
      </trkpt>
      <trkpt lat="44.0735" lon="2.91131">
        <ele>335.9</ele>
        <time>2021-08-15T12:36:42Z</time>
      </trkpt>
      <trkpt lat="44.07356" lon="2.9114">
        <ele>335.7</ele>
        <time>2021-08-15T12:36:44Z</time>
      </trkpt>
      <trkpt lat="44.07363" lon="2.91149">
        <ele>335.7</ele>
        <time>2021-08-15T12:36:46Z</time>
      </trkpt>
      <trkpt lat="44.07369" lon="2.91157">
        <ele>335.6</ele>
        <time>2021-08-15T12:36:48Z</time>
      </trkpt>
      <trkpt lat="44.07376" lon="2.91164">
        <ele>335.7</ele>
        <time>2021-08-15T12:36:50Z</time>
      </trkpt>
      <trkpt lat="44.07383" lon="2.91172">
        <ele>336.1</ele>
        <time>2021-08-15T12:36:52Z</time>
      </trkpt>
      <trkpt lat="44.0739" lon="2.9118">
        <ele>336.7</ele>
        <time>2021-08-15T12:36:54Z</time>
      </trkpt>
      <trkpt lat="44.07397" lon="2.91187">
        <ele>337.1</ele>
        <time>2021-08-15T12:36:56Z</time>
      </trkpt>
      <trkpt lat="44.07404" lon="2.91196">
        <ele>337</ele>
        <time>2021-08-15T12:36:58Z</time>
      </trkpt>
      <trkpt lat="44.0741" lon="2.91205">
        <ele>336.5</ele>
        <time>2021-08-15T12:37:00Z</time>
      </trkpt>
      <trkpt lat="44.07418" lon="2.91213">
        <ele>336.1</ele>
        <time>2021-08-15T12:37:02Z</time>
      </trkpt>
      <trkpt lat="44.07424" lon="2.91222">
        <ele>336.8</ele>
        <time>2021-08-15T12:37:04Z</time>
      </trkpt>
      <trkpt lat="44.07431" lon="2.91233">
        <ele>337.1</ele>
        <time>2021-08-15T12:37:06Z</time>
      </trkpt>
      <trkpt lat="44.07437" lon="2.91242">
        <ele>337.6</ele>
        <time>2021-08-15T12:37:08Z</time>
      </trkpt>
      <trkpt lat="44.07444" lon="2.91251">
        <ele>338.1</ele>
        <time>2021-08-15T12:37:10Z</time>
      </trkpt>
      <trkpt lat="44.07449" lon="2.91261">
        <ele>339</ele>
        <time>2021-08-15T12:37:12Z</time>
      </trkpt>
      <trkpt lat="44.07455" lon="2.91271">
        <ele>339.5</ele>
        <time>2021-08-15T12:37:14Z</time>
      </trkpt>
      <trkpt lat="44.07461" lon="2.9128">
        <ele>339.9</ele>
        <time>2021-08-15T12:37:16Z</time>
      </trkpt>
      <trkpt lat="44.07467" lon="2.9129">
        <ele>339.9</ele>
        <time>2021-08-15T12:37:18Z</time>
      </trkpt>
      <trkpt lat="44.07473" lon="2.91299">
        <ele>339.5</ele>
        <time>2021-08-15T12:37:20Z</time>
      </trkpt>
      <trkpt lat="44.0748" lon="2.91309">
        <ele>338.7</ele>
        <time>2021-08-15T12:37:22Z</time>
      </trkpt>
      <trkpt lat="44.07486" lon="2.91318">
        <ele>337.6</ele>
        <time>2021-08-15T12:37:24Z</time>
      </trkpt>
      <trkpt lat="44.07492" lon="2.91327">
        <ele>336.2</ele>
        <time>2021-08-15T12:37:26Z</time>
      </trkpt>
      <trkpt lat="44.07498" lon="2.91336">
        <ele>334.8</ele>
        <time>2021-08-15T12:37:28Z</time>
      </trkpt>
      <trkpt lat="44.07504" lon="2.91343">
        <ele>335.2</ele>
        <time>2021-08-15T12:37:30Z</time>
      </trkpt>
      <trkpt lat="44.07511" lon="2.91351">
        <ele>336.3</ele>
        <time>2021-08-15T12:37:32Z</time>
      </trkpt>
      <trkpt lat="44.07519" lon="2.91358">
        <ele>337.4</ele>
        <time>2021-08-15T12:37:34Z</time>
      </trkpt>
      <trkpt lat="44.07527" lon="2.91365">
        <ele>338.6</ele>
        <time>2021-08-15T12:37:36Z</time>
      </trkpt>
      <trkpt lat="44.07534" lon="2.91373">
        <ele>339.3</ele>
        <time>2021-08-15T12:37:38Z</time>
      </trkpt>
      <trkpt lat="44.07541" lon="2.91381">
        <ele>339.7</ele>
        <time>2021-08-15T12:37:40Z</time>
      </trkpt>
      <trkpt lat="44.07547" lon="2.91391">
        <ele>339.6</ele>
        <time>2021-08-15T12:37:42Z</time>
      </trkpt>
      <trkpt lat="44.07552" lon="2.91402">
        <ele>339.1</ele>
        <time>2021-08-15T12:37:44Z</time>
      </trkpt>
      <trkpt lat="44.07556" lon="2.91414">
        <ele>337.9</ele>
        <time>2021-08-15T12:37:46Z</time>
      </trkpt>
      <trkpt lat="44.07559" lon="2.91426">
        <ele>337.3</ele>
        <time>2021-08-15T12:37:48Z</time>
      </trkpt>
      <trkpt lat="44.07563" lon="2.91439">
        <ele>336.8</ele>
        <time>2021-08-15T12:37:50Z</time>
      </trkpt>
      <trkpt lat="44.07566" lon="2.91451">
        <ele>336.2</ele>
        <time>2021-08-15T12:37:52Z</time>
      </trkpt>
      <trkpt lat="44.07568" lon="2.91463">
        <ele>335.4</ele>
        <time>2021-08-15T12:37:54Z</time>
      </trkpt>
      <trkpt lat="44.07569" lon="2.91475">
        <ele>334.5</ele>
        <time>2021-08-15T12:37:56Z</time>
      </trkpt>
      <trkpt lat="44.07571" lon="2.91487">
        <ele>333.5</ele>
        <time>2021-08-15T12:37:58Z</time>
      </trkpt>
      <trkpt lat="44.07572" lon="2.91499">
        <ele>332.6</ele>
        <time>2021-08-15T12:38:00Z</time>
      </trkpt>
      <trkpt lat="44.07574" lon="2.91512">
        <ele>332.1</ele>
        <time>2021-08-15T12:38:02Z</time>
      </trkpt>
      <trkpt lat="44.07577" lon="2.91523">
        <ele>331.8</ele>
        <time>2021-08-15T12:38:04Z</time>
      </trkpt>
      <trkpt lat="44.07579" lon="2.91535">
        <ele>331.5</ele>
        <time>2021-08-15T12:38:06Z</time>
      </trkpt>
      <trkpt lat="44.07582" lon="2.91547">
        <ele>331.1</ele>
        <time>2021-08-15T12:38:08Z</time>
      </trkpt>
      <trkpt lat="44.07586" lon="2.91558">
        <ele>331.4</ele>
        <time>2021-08-15T12:38:10Z</time>
      </trkpt>
      <trkpt lat="44.07591" lon="2.91569">
        <ele>332</ele>
        <time>2021-08-15T12:38:12Z</time>
      </trkpt>
      <trkpt lat="44.07597" lon="2.9158">
        <ele>332.6</ele>
        <time>2021-08-15T12:38:14Z</time>
      </trkpt>
      <trkpt lat="44.07603" lon="2.9159">
        <ele>333.3</ele>
        <time>2021-08-15T12:38:16Z</time>
      </trkpt>
      <trkpt lat="44.07609" lon="2.916">
        <ele>334</ele>
        <time>2021-08-15T12:38:18Z</time>
      </trkpt>
      <trkpt lat="44.07616" lon="2.91608">
        <ele>334.7</ele>
        <time>2021-08-15T12:38:20Z</time>
      </trkpt>
      <trkpt lat="44.07624" lon="2.91616">
        <ele>335.5</ele>
        <time>2021-08-15T12:38:22Z</time>
      </trkpt>
      <trkpt lat="44.07632" lon="2.91622">
        <ele>336.3</ele>
        <time>2021-08-15T12:38:24Z</time>
      </trkpt>
      <trkpt lat="44.07641" lon="2.91628">
        <ele>337.1</ele>
        <time>2021-08-15T12:38:26Z</time>
      </trkpt>
      <trkpt lat="44.07649" lon="2.91634">
        <ele>337.7</ele>
        <time>2021-08-15T12:38:28Z</time>
      </trkpt>
      <trkpt lat="44.07658" lon="2.91641">
        <ele>338.1</ele>
        <time>2021-08-15T12:38:30Z</time>
      </trkpt>
      <trkpt lat="44.07667" lon="2.91646">
        <ele>338.4</ele>
        <time>2021-08-15T12:38:32Z</time>
      </trkpt>
      <trkpt lat="44.07675" lon="2.91653">
        <ele>339</ele>
        <time>2021-08-15T12:38:34Z</time>
      </trkpt>
      <trkpt lat="44.07683" lon="2.91659">
        <ele>339.6</ele>
        <time>2021-08-15T12:38:36Z</time>
      </trkpt>
      <trkpt lat="44.07692" lon="2.91663">
        <ele>340.2</ele>
        <time>2021-08-15T12:38:38Z</time>
      </trkpt>
      <trkpt lat="44.07701" lon="2.91669">
        <ele>340.9</ele>
        <time>2021-08-15T12:38:40Z</time>
      </trkpt>
      <trkpt lat="44.07709" lon="2.91676">
        <ele>341.3</ele>
        <time>2021-08-15T12:38:42Z</time>
      </trkpt>
      <trkpt lat="44.07717" lon="2.91681">
        <ele>341.9</ele>
        <time>2021-08-15T12:38:44Z</time>
      </trkpt>
      <trkpt lat="44.07725" lon="2.91686">
        <ele>342.2</ele>
        <time>2021-08-15T12:38:46Z</time>
      </trkpt>
      <trkpt lat="44.07733" lon="2.91691">
        <ele>342.4</ele>
        <time>2021-08-15T12:38:48Z</time>
      </trkpt>
      <trkpt lat="44.07741" lon="2.91697">
        <ele>342.4</ele>
        <time>2021-08-15T12:38:50Z</time>
      </trkpt>
      <trkpt lat="44.07749" lon="2.91703">
        <ele>342.1</ele>
        <time>2021-08-15T12:38:52Z</time>
      </trkpt>
      <trkpt lat="44.07757" lon="2.91709">
        <ele>342</ele>
        <time>2021-08-15T12:38:54Z</time>
      </trkpt>
      <trkpt lat="44.07765" lon="2.91714">
        <ele>341.9</ele>
        <time>2021-08-15T12:38:56Z</time>
      </trkpt>
      <trkpt lat="44.07774" lon="2.91719">
        <ele>341.9</ele>
        <time>2021-08-15T12:38:58Z</time>
      </trkpt>
      <trkpt lat="44.07782" lon="2.91725">
        <ele>341.8</ele>
        <time>2021-08-15T12:39:00Z</time>
      </trkpt>
      <trkpt lat="44.0779" lon="2.91729">
        <ele>341.6</ele>
        <time>2021-08-15T12:39:02Z</time>
      </trkpt>
      <trkpt lat="44.07798" lon="2.91736">
        <ele>340.9</ele>
        <time>2021-08-15T12:39:04Z</time>
      </trkpt>
      <trkpt lat="44.07805" lon="2.91741">
        <ele>340.4</ele>
        <time>2021-08-15T12:39:06Z</time>
      </trkpt>
      <trkpt lat="44.07812" lon="2.91747">
        <ele>339.6</ele>
        <time>2021-08-15T12:39:08Z</time>
      </trkpt>
      <trkpt lat="44.07819" lon="2.91753">
        <ele>339.3</ele>
        <time>2021-08-15T12:39:10Z</time>
      </trkpt>
      <trkpt lat="44.07826" lon="2.91759">
        <ele>339.6</ele>
        <time>2021-08-15T12:39:12Z</time>
      </trkpt>
      <trkpt lat="44.07833" lon="2.91765">
        <ele>339.8</ele>
        <time>2021-08-15T12:39:14Z</time>
      </trkpt>
      <trkpt lat="44.0784" lon="2.91772">
        <ele>340.3</ele>
        <time>2021-08-15T12:39:16Z</time>
      </trkpt>
      <trkpt lat="44.07847" lon="2.91779">
        <ele>340.6</ele>
        <time>2021-08-15T12:39:18Z</time>
      </trkpt>
      <trkpt lat="44.07853" lon="2.91788">
        <ele>340.6</ele>
        <time>2021-08-15T12:39:20Z</time>
      </trkpt>
      <trkpt lat="44.07858" lon="2.91796">
        <ele>340.6</ele>
        <time>2021-08-15T12:39:22Z</time>
      </trkpt>
      <trkpt lat="44.07865" lon="2.91805">
        <ele>340.6</ele>
        <time>2021-08-15T12:39:24Z</time>
      </trkpt>
      <trkpt lat="44.0787" lon="2.91813">
        <ele>340.3</ele>
        <time>2021-08-15T12:39:26Z</time>
      </trkpt>
      <trkpt lat="44.07876" lon="2.91823">
        <ele>339.9</ele>
        <time>2021-08-15T12:39:28Z</time>
      </trkpt>
      <trkpt lat="44.07882" lon="2.91831">
        <ele>339.6</ele>
        <time>2021-08-15T12:39:30Z</time>
      </trkpt>
      <trkpt lat="44.07888" lon="2.91839">
        <ele>339.8</ele>
        <time>2021-08-15T12:39:32Z</time>
      </trkpt>
      <trkpt lat="44.07893" lon="2.91847">
        <ele>340.2</ele>
        <time>2021-08-15T12:39:34Z</time>
      </trkpt>
      <trkpt lat="44.07899" lon="2.91856">
        <ele>340.4</ele>
        <time>2021-08-15T12:39:36Z</time>
      </trkpt>
      <trkpt lat="44.07905" lon="2.91863">
        <ele>340.5</ele>
        <time>2021-08-15T12:39:38Z</time>
      </trkpt>
      <trkpt lat="44.07911" lon="2.9187">
        <ele>340.5</ele>
        <time>2021-08-15T12:39:40Z</time>
      </trkpt>
      <trkpt lat="44.07916" lon="2.91878">
        <ele>340.3</ele>
        <time>2021-08-15T12:39:42Z</time>
      </trkpt>
      <trkpt lat="44.07922" lon="2.91885">
        <ele>340.5</ele>
        <time>2021-08-15T12:39:44Z</time>
      </trkpt>
      <trkpt lat="44.07928" lon="2.91894">
        <ele>340.4</ele>
        <time>2021-08-15T12:39:46Z</time>
      </trkpt>
      <trkpt lat="44.07933" lon="2.91902">
        <ele>340.3</ele>
        <time>2021-08-15T12:39:48Z</time>
      </trkpt>
      <trkpt lat="44.07938" lon="2.9191">
        <ele>340.1</ele>
        <time>2021-08-15T12:39:50Z</time>
      </trkpt>
      <trkpt lat="44.07944" lon="2.91917">
        <ele>340</ele>
        <time>2021-08-15T12:39:52Z</time>
      </trkpt>
      <trkpt lat="44.07949" lon="2.91925">
        <ele>340.3</ele>
        <time>2021-08-15T12:39:54Z</time>
      </trkpt>
      <trkpt lat="44.07955" lon="2.91933">
        <ele>340.6</ele>
        <time>2021-08-15T12:39:56Z</time>
      </trkpt>
      <trkpt lat="44.0796" lon="2.9194">
        <ele>340.8</ele>
        <time>2021-08-15T12:39:58Z</time>
      </trkpt>
      <trkpt lat="44.07965" lon="2.91948">
        <ele>340.8</ele>
        <time>2021-08-15T12:40:00Z</time>
      </trkpt>
      <trkpt lat="44.0797" lon="2.91955">
        <ele>340.7</ele>
        <time>2021-08-15T12:40:02Z</time>
      </trkpt>
      <trkpt lat="44.07975" lon="2.9196">
        <ele>340.6</ele>
        <time>2021-08-15T12:40:04Z</time>
      </trkpt>
      <trkpt lat="44.07981" lon="2.91966">
        <ele>340.4</ele>
        <time>2021-08-15T12:40:06Z</time>
      </trkpt>
      <trkpt lat="44.07986" lon="2.91971">
        <ele>340.2</ele>
        <time>2021-08-15T12:40:08Z</time>
      </trkpt>
      <trkpt lat="44.07992" lon="2.91975">
        <ele>339.9</ele>
        <time>2021-08-15T12:40:10Z</time>
      </trkpt>
      <trkpt lat="44.07998" lon="2.91979">
        <ele>339.6</ele>
        <time>2021-08-15T12:40:12Z</time>
      </trkpt>
      <trkpt lat="44.08005" lon="2.91983">
        <ele>339.6</ele>
        <time>2021-08-15T12:40:14Z</time>
      </trkpt>
      <trkpt lat="44.08012" lon="2.91987">
        <ele>339.8</ele>
        <time>2021-08-15T12:40:16Z</time>
      </trkpt>
      <trkpt lat="44.08019" lon="2.91991">
        <ele>339.9</ele>
        <time>2021-08-15T12:40:18Z</time>
      </trkpt>
      <trkpt lat="44.08026" lon="2.91995">
        <ele>340</ele>
        <time>2021-08-15T12:40:20Z</time>
      </trkpt>
      <trkpt lat="44.08033" lon="2.91998">
        <ele>340.2</ele>
        <time>2021-08-15T12:40:22Z</time>
      </trkpt>
      <trkpt lat="44.08041" lon="2.92002">
        <ele>340.4</ele>
        <time>2021-08-15T12:40:24Z</time>
      </trkpt>
      <trkpt lat="44.08049" lon="2.92005">
        <ele>340.7</ele>
        <time>2021-08-15T12:40:26Z</time>
      </trkpt>
      <trkpt lat="44.08056" lon="2.92009">
        <ele>340.9</ele>
        <time>2021-08-15T12:40:28Z</time>
      </trkpt>
      <trkpt lat="44.08063" lon="2.92012">
        <ele>341</ele>
        <time>2021-08-15T12:40:30Z</time>
      </trkpt>
      <trkpt lat="44.08071" lon="2.92016">
        <ele>341</ele>
        <time>2021-08-15T12:40:32Z</time>
      </trkpt>
      <trkpt lat="44.08078" lon="2.92021">
        <ele>340.8</ele>
        <time>2021-08-15T12:40:34Z</time>
      </trkpt>
      <trkpt lat="44.08085" lon="2.92026">
        <ele>340.6</ele>
        <time>2021-08-15T12:40:36Z</time>
      </trkpt>
      <trkpt lat="44.08091" lon="2.92031">
        <ele>340.4</ele>
        <time>2021-08-15T12:40:38Z</time>
      </trkpt>
      <trkpt lat="44.08097" lon="2.92037">
        <ele>340.2</ele>
        <time>2021-08-15T12:40:40Z</time>
      </trkpt>
      <trkpt lat="44.08102" lon="2.92044">
        <ele>339.9</ele>
        <time>2021-08-15T12:40:42Z</time>
      </trkpt>
      <trkpt lat="44.08108" lon="2.92049">
        <ele>339.7</ele>
        <time>2021-08-15T12:40:44Z</time>
      </trkpt>
      <trkpt lat="44.08114" lon="2.92054">
        <ele>339.7</ele>
        <time>2021-08-15T12:40:46Z</time>
      </trkpt>
      <trkpt lat="44.08121" lon="2.92057">
        <ele>339.8</ele>
        <time>2021-08-15T12:40:48Z</time>
      </trkpt>
      <trkpt lat="44.08128" lon="2.92059">
        <ele>340</ele>
        <time>2021-08-15T12:40:50Z</time>
      </trkpt>
      <trkpt lat="44.08134" lon="2.92062">
        <ele>340.1</ele>
        <time>2021-08-15T12:40:52Z</time>
      </trkpt>
      <trkpt lat="44.08141" lon="2.92065">
        <ele>340.2</ele>
        <time>2021-08-15T12:40:54Z</time>
      </trkpt>
      <trkpt lat="44.08147" lon="2.92068">
        <ele>340.3</ele>
        <time>2021-08-15T12:40:56Z</time>
      </trkpt>
      <trkpt lat="44.08154" lon="2.9207">
        <ele>340.5</ele>
        <time>2021-08-15T12:40:58Z</time>
      </trkpt>
      <trkpt lat="44.0816" lon="2.92073">
        <ele>340.6</ele>
        <time>2021-08-15T12:41:00Z</time>
      </trkpt>
      <trkpt lat="44.08166" lon="2.92076">
        <ele>340.7</ele>
        <time>2021-08-15T12:41:02Z</time>
      </trkpt>
      <trkpt lat="44.08172" lon="2.92077">
        <ele>340.6</ele>
        <time>2021-08-15T12:41:04Z</time>
      </trkpt>
      <trkpt lat="44.08178" lon="2.9208">
        <ele>340.3</ele>
        <time>2021-08-15T12:41:06Z</time>
      </trkpt>
      <trkpt lat="44.08184" lon="2.92085">
        <ele>340</ele>
        <time>2021-08-15T12:41:08Z</time>
      </trkpt>
      <trkpt lat="44.08187" lon="2.92094">
        <ele>340.1</ele>
        <time>2021-08-15T12:41:10Z</time>
      </trkpt>
      <trkpt lat="44.08185" lon="2.92106">
        <ele>340.2</ele>
        <time>2021-08-15T12:41:12Z</time>
      </trkpt>
      <trkpt lat="44.08181" lon="2.92117">
        <ele>340.3</ele>
        <time>2021-08-15T12:41:14Z</time>
      </trkpt>
      <trkpt lat="44.08178" lon="2.92129">
        <ele>340.3</ele>
        <time>2021-08-15T12:41:16Z</time>
      </trkpt>
      <trkpt lat="44.08176" lon="2.92144">
        <ele>340.3</ele>
        <time>2021-08-15T12:41:18Z</time>
      </trkpt>
      <trkpt lat="44.08175" lon="2.92158">
        <ele>340.4</ele>
        <time>2021-08-15T12:41:20Z</time>
      </trkpt>
      <trkpt lat="44.08174" lon="2.92173">
        <ele>342</ele>
        <time>2021-08-15T12:41:22Z</time>
      </trkpt>
      <trkpt lat="44.08172" lon="2.92186">
        <ele>345.3</ele>
        <time>2021-08-15T12:41:24Z</time>
      </trkpt>
      <trkpt lat="44.08171" lon="2.92196">
        <ele>348.1</ele>
        <time>2021-08-15T12:41:26Z</time>
      </trkpt>
      <trkpt lat="44.08173" lon="2.92205">
        <ele>350.4</ele>
        <time>2021-08-15T12:41:28Z</time>
      </trkpt>
      <trkpt lat="44.08181" lon="2.92208">
        <ele>351.5</ele>
        <time>2021-08-15T12:41:30Z</time>
      </trkpt>
      <trkpt lat="44.08188" lon="2.92207">
        <ele>351.5</ele>
        <time>2021-08-15T12:41:32Z</time>
      </trkpt>
      <trkpt lat="44.08194" lon="2.92207">
        <ele>351.7</ele>
        <time>2021-08-15T12:41:34Z</time>
      </trkpt>
      <trkpt lat="44.082" lon="2.92207">
        <ele>351.8</ele>
        <time>2021-08-15T12:41:36Z</time>
      </trkpt>
      <trkpt lat="44.08206" lon="2.92206">
        <ele>351.7</ele>
        <time>2021-08-15T12:41:38Z</time>
      </trkpt>
      <trkpt lat="44.08211" lon="2.92205">
        <ele>351.8</ele>
        <time>2021-08-15T12:41:40Z</time>
      </trkpt>
      <trkpt lat="44.08216" lon="2.92204">
        <ele>351.7</ele>
        <time>2021-08-15T12:41:42Z</time>
      </trkpt>
      <trkpt lat="44.08221" lon="2.92204">
        <ele>351.8</ele>
        <time>2021-08-15T12:41:44Z</time>
      </trkpt>
      <trkpt lat="44.08226" lon="2.92203">
        <ele>351.9</ele>
        <time>2021-08-15T12:41:46Z</time>
      </trkpt>
      <trkpt lat="44.08231" lon="2.92202">
        <ele>351.7</ele>
        <time>2021-08-15T12:41:48Z</time>
      </trkpt>
      <trkpt lat="44.08236" lon="2.92201">
        <ele>351.8</ele>
        <time>2021-08-15T12:41:50Z</time>
      </trkpt>
      <trkpt lat="44.0824" lon="2.922">
        <ele>351.5</ele>
        <time>2021-08-15T12:41:52Z</time>
      </trkpt>
      <trkpt lat="44.08245" lon="2.92199">
        <ele>351.5</ele>
        <time>2021-08-15T12:41:54Z</time>
      </trkpt>
      <trkpt lat="44.0825" lon="2.92197">
        <ele>351.2</ele>
        <time>2021-08-15T12:41:56Z</time>
      </trkpt>
      <trkpt lat="44.08254" lon="2.92195">
        <ele>351.5</ele>
        <time>2021-08-15T12:41:58Z</time>
      </trkpt>
      <trkpt lat="44.08259" lon="2.92191">
        <ele>351.4</ele>
        <time>2021-08-15T12:42:00Z</time>
      </trkpt>
      <trkpt lat="44.08263" lon="2.92188">
        <ele>351.3</ele>
        <time>2021-08-15T12:42:02Z</time>
      </trkpt>
      <trkpt lat="44.08268" lon="2.92185">
        <ele>351.3</ele>
        <time>2021-08-15T12:42:04Z</time>
      </trkpt>
      <trkpt lat="44.08272" lon="2.92181">
        <ele>351</ele>
        <time>2021-08-15T12:42:06Z</time>
      </trkpt>
      <trkpt lat="44.08276" lon="2.92177">
        <ele>350.7</ele>
        <time>2021-08-15T12:42:08Z</time>
      </trkpt>
      <trkpt lat="44.0828" lon="2.92173">
        <ele>350.4</ele>
        <time>2021-08-15T12:42:10Z</time>
      </trkpt>
      <trkpt lat="44.08285" lon="2.9217">
        <ele>350.2</ele>
        <time>2021-08-15T12:42:12Z</time>
      </trkpt>
      <trkpt lat="44.08289" lon="2.92166">
        <ele>350.1</ele>
        <time>2021-08-15T12:42:14Z</time>
      </trkpt>
      <trkpt lat="44.08294" lon="2.92163">
        <ele>350.3</ele>
        <time>2021-08-15T12:42:16Z</time>
      </trkpt>
      <trkpt lat="44.08298" lon="2.92158">
        <ele>350.3</ele>
        <time>2021-08-15T12:42:18Z</time>
      </trkpt>
      <trkpt lat="44.08302" lon="2.92155">
        <ele>350.4</ele>
        <time>2021-08-15T12:42:20Z</time>
      </trkpt>
      <trkpt lat="44.08306" lon="2.92152">
        <ele>350.5</ele>
        <time>2021-08-15T12:42:22Z</time>
      </trkpt>
      <trkpt lat="44.0831" lon="2.92149">
        <ele>350.5</ele>
        <time>2021-08-15T12:42:24Z</time>
      </trkpt>
      <trkpt lat="44.08314" lon="2.92145">
        <ele>350.5</ele>
        <time>2021-08-15T12:42:26Z</time>
      </trkpt>
      <trkpt lat="44.08319" lon="2.92142">
        <ele>350.3</ele>
        <time>2021-08-15T12:42:28Z</time>
      </trkpt>
      <trkpt lat="44.08323" lon="2.92138">
        <ele>350.1</ele>
        <time>2021-08-15T12:42:30Z</time>
      </trkpt>
      <trkpt lat="44.08327" lon="2.92134">
        <ele>349.8</ele>
        <time>2021-08-15T12:42:32Z</time>
      </trkpt>
      <trkpt lat="44.08331" lon="2.92131">
        <ele>349.5</ele>
        <time>2021-08-15T12:42:34Z</time>
      </trkpt>
      <trkpt lat="44.08335" lon="2.92128">
        <ele>349.4</ele>
        <time>2021-08-15T12:42:36Z</time>
      </trkpt>
      <trkpt lat="44.0834" lon="2.92125">
        <ele>349.4</ele>
        <time>2021-08-15T12:42:38Z</time>
      </trkpt>
      <trkpt lat="44.08344" lon="2.92121">
        <ele>349.3</ele>
        <time>2021-08-15T12:42:40Z</time>
      </trkpt>
      <trkpt lat="44.08348" lon="2.92118">
        <ele>349.2</ele>
        <time>2021-08-15T12:42:42Z</time>
      </trkpt>
      <trkpt lat="44.08353" lon="2.92114">
        <ele>349.1</ele>
        <time>2021-08-15T12:42:44Z</time>
      </trkpt>
      <trkpt lat="44.08357" lon="2.92111">
        <ele>349.1</ele>
        <time>2021-08-15T12:42:46Z</time>
      </trkpt>
      <trkpt lat="44.08361" lon="2.92108">
        <ele>349</ele>
        <time>2021-08-15T12:42:48Z</time>
      </trkpt>
      <trkpt lat="44.08366" lon="2.92106">
        <ele>349.2</ele>
        <time>2021-08-15T12:42:50Z</time>
      </trkpt>
      <trkpt lat="44.0837" lon="2.92104">
        <ele>349.4</ele>
        <time>2021-08-15T12:42:52Z</time>
      </trkpt>
      <trkpt lat="44.08375" lon="2.92102">
        <ele>349.5</ele>
        <time>2021-08-15T12:42:54Z</time>
      </trkpt>
      <trkpt lat="44.0838" lon="2.921">
        <ele>349.9</ele>
        <time>2021-08-15T12:42:56Z</time>
      </trkpt>
      <trkpt lat="44.08384" lon="2.92099">
        <ele>350.2</ele>
        <time>2021-08-15T12:42:58Z</time>
      </trkpt>
      <trkpt lat="44.0839" lon="2.92098">
        <ele>350.8</ele>
        <time>2021-08-15T12:43:00Z</time>
      </trkpt>
      <trkpt lat="44.08395" lon="2.92097">
        <ele>351.4</ele>
        <time>2021-08-15T12:43:02Z</time>
      </trkpt>
      <trkpt lat="44.084" lon="2.92096">
        <ele>351.8</ele>
        <time>2021-08-15T12:43:04Z</time>
      </trkpt>
      <trkpt lat="44.08405" lon="2.92095">
        <ele>352.1</ele>
        <time>2021-08-15T12:43:06Z</time>
      </trkpt>
      <trkpt lat="44.0841" lon="2.92094">
        <ele>352.5</ele>
        <time>2021-08-15T12:43:08Z</time>
      </trkpt>
      <trkpt lat="44.08414" lon="2.92093">
        <ele>353</ele>
        <time>2021-08-15T12:43:10Z</time>
      </trkpt>
      <trkpt lat="44.0842" lon="2.92092">
        <ele>353.4</ele>
        <time>2021-08-15T12:43:12Z</time>
      </trkpt>
      <trkpt lat="44.08425" lon="2.92091">
        <ele>353.6</ele>
        <time>2021-08-15T12:43:14Z</time>
      </trkpt>
      <trkpt lat="44.0843" lon="2.9209">
        <ele>353.8</ele>
        <time>2021-08-15T12:43:16Z</time>
      </trkpt>
      <trkpt lat="44.08435" lon="2.92089">
        <ele>353.9</ele>
        <time>2021-08-15T12:43:18Z</time>
      </trkpt>
      <trkpt lat="44.08439" lon="2.92088">
        <ele>354.1</ele>
        <time>2021-08-15T12:43:20Z</time>
      </trkpt>
      <trkpt lat="44.08444" lon="2.92087">
        <ele>354.3</ele>
        <time>2021-08-15T12:43:22Z</time>
      </trkpt>
      <trkpt lat="44.08449" lon="2.92086">
        <ele>354.3</ele>
        <time>2021-08-15T12:43:24Z</time>
      </trkpt>
      <trkpt lat="44.08454" lon="2.92085">
        <ele>354.5</ele>
        <time>2021-08-15T12:43:26Z</time>
      </trkpt>
      <trkpt lat="44.08459" lon="2.92083">
        <ele>354.5</ele>
        <time>2021-08-15T12:43:28Z</time>
      </trkpt>
      <trkpt lat="44.08464" lon="2.92082">
        <ele>354.8</ele>
        <time>2021-08-15T12:43:30Z</time>
      </trkpt>
      <trkpt lat="44.0847" lon="2.92081">
        <ele>354.9</ele>
        <time>2021-08-15T12:43:32Z</time>
      </trkpt>
      <trkpt lat="44.08475" lon="2.9208">
        <ele>355.2</ele>
        <time>2021-08-15T12:43:34Z</time>
      </trkpt>
      <trkpt lat="44.0848" lon="2.92079">
        <ele>355.5</ele>
        <time>2021-08-15T12:43:36Z</time>
      </trkpt>
      <trkpt lat="44.08485" lon="2.92079">
        <ele>355.9</ele>
        <time>2021-08-15T12:43:38Z</time>
      </trkpt>
      <trkpt lat="44.0849" lon="2.92078">
        <ele>356.2</ele>
        <time>2021-08-15T12:43:40Z</time>
      </trkpt>
      <trkpt lat="44.08495" lon="2.92079">
        <ele>356.6</ele>
        <time>2021-08-15T12:43:42Z</time>
      </trkpt>
      <trkpt lat="44.085" lon="2.92079">
        <ele>357</ele>
        <time>2021-08-15T12:43:44Z</time>
      </trkpt>
      <trkpt lat="44.08505" lon="2.92079">
        <ele>357.4</ele>
        <time>2021-08-15T12:43:46Z</time>
      </trkpt>
      <trkpt lat="44.08511" lon="2.92079">
        <ele>357.9</ele>
        <time>2021-08-15T12:43:48Z</time>
      </trkpt>
      <trkpt lat="44.08516" lon="2.92079">
        <ele>358.4</ele>
        <time>2021-08-15T12:43:50Z</time>
      </trkpt>
      <trkpt lat="44.08521" lon="2.9208">
        <ele>358.9</ele>
        <time>2021-08-15T12:43:52Z</time>
      </trkpt>
      <trkpt lat="44.08526" lon="2.9208">
        <ele>359.4</ele>
        <time>2021-08-15T12:43:54Z</time>
      </trkpt>
      <trkpt lat="44.08531" lon="2.9208">
        <ele>359.8</ele>
        <time>2021-08-15T12:43:56Z</time>
      </trkpt>
      <trkpt lat="44.08536" lon="2.9208">
        <ele>360.3</ele>
        <time>2021-08-15T12:43:58Z</time>
      </trkpt>
      <trkpt lat="44.08541" lon="2.92081">
        <ele>360.8</ele>
        <time>2021-08-15T12:44:00Z</time>
      </trkpt>
      <trkpt lat="44.08546" lon="2.92081">
        <ele>361.3</ele>
        <time>2021-08-15T12:44:02Z</time>
      </trkpt>
      <trkpt lat="44.08552" lon="2.92081">
        <ele>361.9</ele>
        <time>2021-08-15T12:44:04Z</time>
      </trkpt>
      <trkpt lat="44.08558" lon="2.92082">
        <ele>362.5</ele>
        <time>2021-08-15T12:44:06Z</time>
      </trkpt>
      <trkpt lat="44.08563" lon="2.92082">
        <ele>362.8</ele>
        <time>2021-08-15T12:44:08Z</time>
      </trkpt>
      <trkpt lat="44.08569" lon="2.92081">
        <ele>363.1</ele>
        <time>2021-08-15T12:44:10Z</time>
      </trkpt>
      <trkpt lat="44.08574" lon="2.9208">
        <ele>363.3</ele>
        <time>2021-08-15T12:44:12Z</time>
      </trkpt>
      <trkpt lat="44.0858" lon="2.92079">
        <ele>363.4</ele>
        <time>2021-08-15T12:44:14Z</time>
      </trkpt>
      <trkpt lat="44.08585" lon="2.92077">
        <ele>363.5</ele>
        <time>2021-08-15T12:44:16Z</time>
      </trkpt>
      <trkpt lat="44.0859" lon="2.92076">
        <ele>364</ele>
        <time>2021-08-15T12:44:18Z</time>
      </trkpt>
      <trkpt lat="44.08595" lon="2.92073">
        <ele>364.2</ele>
        <time>2021-08-15T12:44:20Z</time>
      </trkpt>
      <trkpt lat="44.086" lon="2.92071">
        <ele>364.2</ele>
        <time>2021-08-15T12:44:22Z</time>
      </trkpt>
      <trkpt lat="44.08605" lon="2.92068">
        <ele>364.3</ele>
        <time>2021-08-15T12:44:24Z</time>
      </trkpt>
      <trkpt lat="44.0861" lon="2.92065">
        <ele>364.1</ele>
        <time>2021-08-15T12:44:26Z</time>
      </trkpt>
      <trkpt lat="44.08615" lon="2.92062">
        <ele>364</ele>
        <time>2021-08-15T12:44:28Z</time>
      </trkpt>
      <trkpt lat="44.0862" lon="2.9206">
        <ele>364</ele>
        <time>2021-08-15T12:44:30Z</time>
      </trkpt>
      <trkpt lat="44.08625" lon="2.92056">
        <ele>363.7</ele>
        <time>2021-08-15T12:44:32Z</time>
      </trkpt>
      <trkpt lat="44.0863" lon="2.92053">
        <ele>363.3</ele>
        <time>2021-08-15T12:44:34Z</time>
      </trkpt>
      <trkpt lat="44.08635" lon="2.9205">
        <ele>363.3</ele>
        <time>2021-08-15T12:44:36Z</time>
      </trkpt>
      <trkpt lat="44.08639" lon="2.92047">
        <ele>363</ele>
        <time>2021-08-15T12:44:38Z</time>
      </trkpt>
      <trkpt lat="44.08644" lon="2.92044">
        <ele>362.6</ele>
        <time>2021-08-15T12:44:40Z</time>
      </trkpt>
      <trkpt lat="44.08648" lon="2.92041">
        <ele>362.2</ele>
        <time>2021-08-15T12:44:42Z</time>
      </trkpt>
      <trkpt lat="44.08653" lon="2.92038">
        <ele>361.9</ele>
        <time>2021-08-15T12:44:44Z</time>
      </trkpt>
      <trkpt lat="44.08658" lon="2.92035">
        <ele>361.5</ele>
        <time>2021-08-15T12:44:46Z</time>
      </trkpt>
      <trkpt lat="44.08663" lon="2.92032">
        <ele>361.2</ele>
        <time>2021-08-15T12:44:48Z</time>
      </trkpt>
      <trkpt lat="44.08668" lon="2.92029">
        <ele>360.8</ele>
        <time>2021-08-15T12:44:50Z</time>
      </trkpt>
      <trkpt lat="44.08672" lon="2.92026">
        <ele>360.2</ele>
        <time>2021-08-15T12:44:52Z</time>
      </trkpt>
      <trkpt lat="44.08677" lon="2.92024">
        <ele>359.7</ele>
        <time>2021-08-15T12:44:54Z</time>
      </trkpt>
      <trkpt lat="44.08682" lon="2.92022">
        <ele>359.2</ele>
        <time>2021-08-15T12:44:56Z</time>
      </trkpt>
      <trkpt lat="44.08687" lon="2.9202">
        <ele>359</ele>
        <time>2021-08-15T12:44:58Z</time>
      </trkpt>
      <trkpt lat="44.08692" lon="2.92018">
        <ele>358.6</ele>
        <time>2021-08-15T12:45:00Z</time>
      </trkpt>
      <trkpt lat="44.08697" lon="2.92017">
        <ele>358.6</ele>
        <time>2021-08-15T12:45:02Z</time>
      </trkpt>
      <trkpt lat="44.08703" lon="2.92016">
        <ele>358.8</ele>
        <time>2021-08-15T12:45:04Z</time>
      </trkpt>
      <trkpt lat="44.08708" lon="2.92015">
        <ele>358.8</ele>
        <time>2021-08-15T12:45:06Z</time>
      </trkpt>
      <trkpt lat="44.08713" lon="2.92015">
        <ele>359.2</ele>
        <time>2021-08-15T12:45:08Z</time>
      </trkpt>
      <trkpt lat="44.08719" lon="2.92015">
        <ele>359.5</ele>
        <time>2021-08-15T12:45:10Z</time>
      </trkpt>
      <trkpt lat="44.08724" lon="2.92016">
        <ele>360</ele>
        <time>2021-08-15T12:45:12Z</time>
      </trkpt>
      <trkpt lat="44.08729" lon="2.92016">
        <ele>360.6</ele>
        <time>2021-08-15T12:45:14Z</time>
      </trkpt>
      <trkpt lat="44.08734" lon="2.92018">
        <ele>361.2</ele>
        <time>2021-08-15T12:45:16Z</time>
      </trkpt>
      <trkpt lat="44.08739" lon="2.92019">
        <ele>362</ele>
        <time>2021-08-15T12:45:18Z</time>
      </trkpt>
      <trkpt lat="44.08744" lon="2.92022">
        <ele>363</ele>
        <time>2021-08-15T12:45:20Z</time>
      </trkpt>
      <trkpt lat="44.08749" lon="2.92025">
        <ele>364</ele>
        <time>2021-08-15T12:45:22Z</time>
      </trkpt>
      <trkpt lat="44.08754" lon="2.92028">
        <ele>364.2</ele>
        <time>2021-08-15T12:45:24Z</time>
      </trkpt>
      <trkpt lat="44.08759" lon="2.92032">
        <ele>364.4</ele>
        <time>2021-08-15T12:45:26Z</time>
      </trkpt>
      <trkpt lat="44.08763" lon="2.92037">
        <ele>364.7</ele>
        <time>2021-08-15T12:45:28Z</time>
      </trkpt>
      <trkpt lat="44.08767" lon="2.92042">
        <ele>365.2</ele>
        <time>2021-08-15T12:45:30Z</time>
      </trkpt>
      <trkpt lat="44.08769" lon="2.92049">
        <ele>366.3</ele>
        <time>2021-08-15T12:45:32Z</time>
      </trkpt>
      <trkpt lat="44.08771" lon="2.92056">
        <ele>367.4</ele>
        <time>2021-08-15T12:45:34Z</time>
      </trkpt>
      <trkpt lat="44.08772" lon="2.92063">
        <ele>368.9</ele>
        <time>2021-08-15T12:45:36Z</time>
      </trkpt>
      <trkpt lat="44.08772" lon="2.9207">
        <ele>370.2</ele>
        <time>2021-08-15T12:45:38Z</time>
      </trkpt>
      <trkpt lat="44.08772" lon="2.92078">
        <ele>371.8</ele>
        <time>2021-08-15T12:45:40Z</time>
      </trkpt>
      <trkpt lat="44.08773" lon="2.92085">
        <ele>373.3</ele>
        <time>2021-08-15T12:45:42Z</time>
      </trkpt>
      <trkpt lat="44.08774" lon="2.92092">
        <ele>375.1</ele>
        <time>2021-08-15T12:45:44Z</time>
      </trkpt>
      <trkpt lat="44.08776" lon="2.92099">
        <ele>376.6</ele>
        <time>2021-08-15T12:45:46Z</time>
      </trkpt>
      <trkpt lat="44.0878" lon="2.92104">
        <ele>377.4</ele>
        <time>2021-08-15T12:45:48Z</time>
      </trkpt>
      <trkpt lat="44.08786" lon="2.92108">
        <ele>377.3</ele>
        <time>2021-08-15T12:45:50Z</time>
      </trkpt>
      <trkpt lat="44.08791" lon="2.92109">
        <ele>376.6</ele>
        <time>2021-08-15T12:45:52Z</time>
      </trkpt>
      <trkpt lat="44.08797" lon="2.92109">
        <ele>375.4</ele>
        <time>2021-08-15T12:45:54Z</time>
      </trkpt>
      <trkpt lat="44.08802" lon="2.92109">
        <ele>374.4</ele>
        <time>2021-08-15T12:45:56Z</time>
      </trkpt>
      <trkpt lat="44.08808" lon="2.92109">
        <ele>373.5</ele>
        <time>2021-08-15T12:45:58Z</time>
      </trkpt>
      <trkpt lat="44.08813" lon="2.92111">
        <ele>372.9</ele>
        <time>2021-08-15T12:46:00Z</time>
      </trkpt>
      <trkpt lat="44.08818" lon="2.92113">
        <ele>372.8</ele>
        <time>2021-08-15T12:46:02Z</time>
      </trkpt>
      <trkpt lat="44.08822" lon="2.92116">
        <ele>372.9</ele>
        <time>2021-08-15T12:46:04Z</time>
      </trkpt>
      <trkpt lat="44.08827" lon="2.9212">
        <ele>373.2</ele>
        <time>2021-08-15T12:46:06Z</time>
      </trkpt>
      <trkpt lat="44.08832" lon="2.92125">
        <ele>374</ele>
        <time>2021-08-15T12:46:08Z</time>
      </trkpt>
      <trkpt lat="44.08837" lon="2.9213">
        <ele>375.1</ele>
        <time>2021-08-15T12:46:10Z</time>
      </trkpt>
      <trkpt lat="44.08842" lon="2.92136">
        <ele>376.6</ele>
        <time>2021-08-15T12:46:12Z</time>
      </trkpt>
      <trkpt lat="44.08846" lon="2.92142">
        <ele>378</ele>
        <time>2021-08-15T12:46:14Z</time>
      </trkpt>
      <trkpt lat="44.08849" lon="2.92148">
        <ele>379.5</ele>
        <time>2021-08-15T12:46:16Z</time>
      </trkpt>
      <trkpt lat="44.08853" lon="2.92155">
        <ele>381</ele>
        <time>2021-08-15T12:46:18Z</time>
      </trkpt>
      <trkpt lat="44.08857" lon="2.92161">
        <ele>382.4</ele>
        <time>2021-08-15T12:46:20Z</time>
      </trkpt>
      <trkpt lat="44.08862" lon="2.92167">
        <ele>383.4</ele>
        <time>2021-08-15T12:46:22Z</time>
      </trkpt>
      <trkpt lat="44.08868" lon="2.92172">
        <ele>383.7</ele>
        <time>2021-08-15T12:46:24Z</time>
      </trkpt>
      <trkpt lat="44.08875" lon="2.92174">
        <ele>383.2</ele>
        <time>2021-08-15T12:46:26Z</time>
      </trkpt>
      <trkpt lat="44.08881" lon="2.92175">
        <ele>382.3</ele>
        <time>2021-08-15T12:46:28Z</time>
      </trkpt>
      <trkpt lat="44.08887" lon="2.92174">
        <ele>380.8</ele>
        <time>2021-08-15T12:46:30Z</time>
      </trkpt>
      <trkpt lat="44.08893" lon="2.92173">
        <ele>379.4</ele>
        <time>2021-08-15T12:46:32Z</time>
      </trkpt>
      <trkpt lat="44.08898" lon="2.92173">
        <ele>378.2</ele>
        <time>2021-08-15T12:46:34Z</time>
      </trkpt>
      <trkpt lat="44.08904" lon="2.92172">
        <ele>376.8</ele>
        <time>2021-08-15T12:46:36Z</time>
      </trkpt>
      <trkpt lat="44.0891" lon="2.92172">
        <ele>375.4</ele>
        <time>2021-08-15T12:46:38Z</time>
      </trkpt>
      <trkpt lat="44.08916" lon="2.92171">
        <ele>374.1</ele>
        <time>2021-08-15T12:46:40Z</time>
      </trkpt>
      <trkpt lat="44.08922" lon="2.92171">
        <ele>374.1</ele>
        <time>2021-08-15T12:46:42Z</time>
      </trkpt>
      <trkpt lat="44.08927" lon="2.92171">
        <ele>374.2</ele>
        <time>2021-08-15T12:46:44Z</time>
      </trkpt>
      <trkpt lat="44.08933" lon="2.92171">
        <ele>374.5</ele>
        <time>2021-08-15T12:46:46Z</time>
      </trkpt>
      <trkpt lat="44.08939" lon="2.92172">
        <ele>374.8</ele>
        <time>2021-08-15T12:46:48Z</time>
      </trkpt>
      <trkpt lat="44.08945" lon="2.92172">
        <ele>375.2</ele>
        <time>2021-08-15T12:46:50Z</time>
      </trkpt>
      <trkpt lat="44.08951" lon="2.92173">
        <ele>375.7</ele>
        <time>2021-08-15T12:46:52Z</time>
      </trkpt>
      <trkpt lat="44.08956" lon="2.92174">
        <ele>376.2</ele>
        <time>2021-08-15T12:46:54Z</time>
      </trkpt>
      <trkpt lat="44.08962" lon="2.92174">
        <ele>376.6</ele>
        <time>2021-08-15T12:46:56Z</time>
      </trkpt>
      <trkpt lat="44.08967" lon="2.92175">
        <ele>377.3</ele>
        <time>2021-08-15T12:46:58Z</time>
      </trkpt>
      <trkpt lat="44.08973" lon="2.92176">
        <ele>377.7</ele>
        <time>2021-08-15T12:47:00Z</time>
      </trkpt>
      <trkpt lat="44.08979" lon="2.92176">
        <ele>377.7</ele>
        <time>2021-08-15T12:47:02Z</time>
      </trkpt>
      <trkpt lat="44.08984" lon="2.92174">
        <ele>377.2</ele>
        <time>2021-08-15T12:47:04Z</time>
      </trkpt>
      <trkpt lat="44.0899" lon="2.92172">
        <ele>376.5</ele>
        <time>2021-08-15T12:47:06Z</time>
      </trkpt>
      <trkpt lat="44.08995" lon="2.9217">
        <ele>376.1</ele>
        <time>2021-08-15T12:47:08Z</time>
      </trkpt>
      <trkpt lat="44.09001" lon="2.92168">
        <ele>375.7</ele>
        <time>2021-08-15T12:47:10Z</time>
      </trkpt>
      <trkpt lat="44.09006" lon="2.92167">
        <ele>375</ele>
        <time>2021-08-15T12:47:12Z</time>
      </trkpt>
      <trkpt lat="44.09011" lon="2.92167">
        <ele>375</ele>
        <time>2021-08-15T12:47:14Z</time>
      </trkpt>
      <trkpt lat="44.09017" lon="2.92168">
        <ele>375</ele>
        <time>2021-08-15T12:47:16Z</time>
      </trkpt>
      <trkpt lat="44.09023" lon="2.92168">
        <ele>375.2</ele>
        <time>2021-08-15T12:47:18Z</time>
      </trkpt>
      <trkpt lat="44.09028" lon="2.9217">
        <ele>375.8</ele>
        <time>2021-08-15T12:47:20Z</time>
      </trkpt>
      <trkpt lat="44.09034" lon="2.92171">
        <ele>376.1</ele>
        <time>2021-08-15T12:47:22Z</time>
      </trkpt>
      <trkpt lat="44.09039" lon="2.92173">
        <ele>376.6</ele>
        <time>2021-08-15T12:47:24Z</time>
      </trkpt>
      <trkpt lat="44.09045" lon="2.92174">
        <ele>377</ele>
        <time>2021-08-15T12:47:26Z</time>
      </trkpt>
      <trkpt lat="44.0905" lon="2.92176">
        <ele>377.7</ele>
        <time>2021-08-15T12:47:28Z</time>
      </trkpt>
      <trkpt lat="44.09057" lon="2.92178">
        <ele>378.1</ele>
        <time>2021-08-15T12:47:30Z</time>
      </trkpt>
      <trkpt lat="44.09062" lon="2.9218">
        <ele>378.9</ele>
        <time>2021-08-15T12:47:32Z</time>
      </trkpt>
      <trkpt lat="44.09069" lon="2.92181">
        <ele>379.5</ele>
        <time>2021-08-15T12:47:34Z</time>
      </trkpt>
      <trkpt lat="44.09075" lon="2.92184">
        <ele>380.2</ele>
        <time>2021-08-15T12:47:36Z</time>
      </trkpt>
      <trkpt lat="44.09081" lon="2.92185">
        <ele>380.9</ele>
        <time>2021-08-15T12:47:38Z</time>
      </trkpt>
      <trkpt lat="44.09087" lon="2.92187">
        <ele>381.1</ele>
        <time>2021-08-15T12:47:40Z</time>
      </trkpt>
      <trkpt lat="44.09093" lon="2.92189">
        <ele>380.9</ele>
        <time>2021-08-15T12:47:42Z</time>
      </trkpt>
      <trkpt lat="44.09099" lon="2.92191">
        <ele>381</ele>
        <time>2021-08-15T12:47:44Z</time>
      </trkpt>
      <trkpt lat="44.09105" lon="2.92194">
        <ele>381.1</ele>
        <time>2021-08-15T12:47:46Z</time>
      </trkpt>
      <trkpt lat="44.09111" lon="2.92196">
        <ele>381.1</ele>
        <time>2021-08-15T12:47:48Z</time>
      </trkpt>
      <trkpt lat="44.09117" lon="2.92198">
        <ele>380.9</ele>
        <time>2021-08-15T12:47:50Z</time>
      </trkpt>
      <trkpt lat="44.09123" lon="2.92199">
        <ele>380.6</ele>
        <time>2021-08-15T12:47:52Z</time>
      </trkpt>
      <trkpt lat="44.09129" lon="2.92202">
        <ele>380.6</ele>
        <time>2021-08-15T12:47:54Z</time>
      </trkpt>
      <trkpt lat="44.09135" lon="2.92204">
        <ele>380.4</ele>
        <time>2021-08-15T12:47:56Z</time>
      </trkpt>
      <trkpt lat="44.09141" lon="2.92206">
        <ele>380.3</ele>
        <time>2021-08-15T12:47:58Z</time>
      </trkpt>
      <trkpt lat="44.09147" lon="2.92209">
        <ele>380.5</ele>
        <time>2021-08-15T12:48:00Z</time>
      </trkpt>
      <trkpt lat="44.09153" lon="2.92212">
        <ele>380.7</ele>
        <time>2021-08-15T12:48:02Z</time>
      </trkpt>
      <trkpt lat="44.09158" lon="2.92217">
        <ele>381.4</ele>
        <time>2021-08-15T12:48:04Z</time>
      </trkpt>
      <trkpt lat="44.09163" lon="2.92223">
        <ele>382.8</ele>
        <time>2021-08-15T12:48:06Z</time>
      </trkpt>
      <trkpt lat="44.09166" lon="2.92231">
        <ele>384.7</ele>
        <time>2021-08-15T12:48:08Z</time>
      </trkpt>
      <trkpt lat="44.09169" lon="2.92239">
        <ele>387.2</ele>
        <time>2021-08-15T12:48:10Z</time>
      </trkpt>
      <trkpt lat="44.09171" lon="2.92248">
        <ele>389.7</ele>
        <time>2021-08-15T12:48:12Z</time>
      </trkpt>
      <trkpt lat="44.09174" lon="2.92256">
        <ele>391.9</ele>
        <time>2021-08-15T12:48:14Z</time>
      </trkpt>
      <trkpt lat="44.09177" lon="2.92263">
        <ele>393.8</ele>
        <time>2021-08-15T12:48:16Z</time>
      </trkpt>
      <trkpt lat="44.09183" lon="2.92268">
        <ele>394.7</ele>
        <time>2021-08-15T12:48:18Z</time>
      </trkpt>
      <trkpt lat="44.0919" lon="2.92268">
        <ele>394</ele>
        <time>2021-08-15T12:48:20Z</time>
      </trkpt>
      <trkpt lat="44.09196" lon="2.92265">
        <ele>392.4</ele>
        <time>2021-08-15T12:48:22Z</time>
      </trkpt>
      <trkpt lat="44.09202" lon="2.92261">
        <ele>390.7</ele>
        <time>2021-08-15T12:48:24Z</time>
      </trkpt>
      <trkpt lat="44.09207" lon="2.92257">
        <ele>388.8</ele>
        <time>2021-08-15T12:48:26Z</time>
      </trkpt>
      <trkpt lat="44.09213" lon="2.92253">
        <ele>387</ele>
        <time>2021-08-15T12:48:28Z</time>
      </trkpt>
      <trkpt lat="44.09219" lon="2.9225">
        <ele>385.4</ele>
        <time>2021-08-15T12:48:30Z</time>
      </trkpt>
      <trkpt lat="44.09225" lon="2.92249">
        <ele>384.4</ele>
        <time>2021-08-15T12:48:32Z</time>
      </trkpt>
      <trkpt lat="44.09231" lon="2.92248">
        <ele>383.6</ele>
        <time>2021-08-15T12:48:34Z</time>
      </trkpt>
      <trkpt lat="44.09237" lon="2.92248">
        <ele>382.7</ele>
        <time>2021-08-15T12:48:36Z</time>
      </trkpt>
      <trkpt lat="44.09243" lon="2.92247">
        <ele>382</ele>
        <time>2021-08-15T12:48:38Z</time>
      </trkpt>
      <trkpt lat="44.09249" lon="2.92247">
        <ele>381.4</ele>
        <time>2021-08-15T12:48:40Z</time>
      </trkpt>
      <trkpt lat="44.09255" lon="2.92248">
        <ele>381.4</ele>
        <time>2021-08-15T12:48:42Z</time>
      </trkpt>
      <trkpt lat="44.09261" lon="2.92248">
        <ele>381.6</ele>
        <time>2021-08-15T12:48:44Z</time>
      </trkpt>
      <trkpt lat="44.09267" lon="2.92248">
        <ele>381.5</ele>
        <time>2021-08-15T12:48:46Z</time>
      </trkpt>
      <trkpt lat="44.09273" lon="2.92248">
        <ele>381.6</ele>
        <time>2021-08-15T12:48:48Z</time>
      </trkpt>
      <trkpt lat="44.09279" lon="2.92249">
        <ele>381.7</ele>
        <time>2021-08-15T12:48:50Z</time>
      </trkpt>
      <trkpt lat="44.09286" lon="2.92249">
        <ele>381.8</ele>
        <time>2021-08-15T12:48:52Z</time>
      </trkpt>
      <trkpt lat="44.09292" lon="2.92249">
        <ele>381.7</ele>
        <time>2021-08-15T12:48:54Z</time>
      </trkpt>
      <trkpt lat="44.09298" lon="2.92249">
        <ele>381.7</ele>
        <time>2021-08-15T12:48:56Z</time>
      </trkpt>
      <trkpt lat="44.09304" lon="2.92248">
        <ele>381.6</ele>
        <time>2021-08-15T12:48:58Z</time>
      </trkpt>
      <trkpt lat="44.0931" lon="2.92248">
        <ele>381.4</ele>
        <time>2021-08-15T12:49:00Z</time>
      </trkpt>
      <trkpt lat="44.09317" lon="2.92247">
        <ele>381.2</ele>
        <time>2021-08-15T12:49:02Z</time>
      </trkpt>
      <trkpt lat="44.09324" lon="2.92245">
        <ele>380.9</ele>
        <time>2021-08-15T12:49:04Z</time>
      </trkpt>
      <trkpt lat="44.0933" lon="2.92244">
        <ele>380.7</ele>
        <time>2021-08-15T12:49:06Z</time>
      </trkpt>
      <trkpt lat="44.09337" lon="2.92243">
        <ele>380.5</ele>
        <time>2021-08-15T12:49:08Z</time>
      </trkpt>
      <trkpt lat="44.09343" lon="2.92241">
        <ele>380.3</ele>
        <time>2021-08-15T12:49:10Z</time>
      </trkpt>
      <trkpt lat="44.0935" lon="2.9224">
        <ele>380.2</ele>
        <time>2021-08-15T12:49:12Z</time>
      </trkpt>
      <trkpt lat="44.09357" lon="2.92239">
        <ele>380.2</ele>
        <time>2021-08-15T12:49:14Z</time>
      </trkpt>
      <trkpt lat="44.09363" lon="2.9224">
        <ele>380.7</ele>
        <time>2021-08-15T12:49:16Z</time>
      </trkpt>
      <trkpt lat="44.09369" lon="2.92242">
        <ele>381.3</ele>
        <time>2021-08-15T12:49:18Z</time>
      </trkpt>
      <trkpt lat="44.09375" lon="2.92245">
        <ele>382.3</ele>
        <time>2021-08-15T12:49:20Z</time>
      </trkpt>
      <trkpt lat="44.09381" lon="2.92249">
        <ele>383.4</ele>
        <time>2021-08-15T12:49:22Z</time>
      </trkpt>
      <trkpt lat="44.09387" lon="2.92252">
        <ele>384.5</ele>
        <time>2021-08-15T12:49:24Z</time>
      </trkpt>
      <trkpt lat="44.09394" lon="2.92255">
        <ele>385.3</ele>
        <time>2021-08-15T12:49:26Z</time>
      </trkpt>
      <trkpt lat="44.09401" lon="2.92255">
        <ele>385.7</ele>
        <time>2021-08-15T12:49:28Z</time>
      </trkpt>
      <trkpt lat="44.09408" lon="2.92256">
        <ele>386</ele>
        <time>2021-08-15T12:49:30Z</time>
      </trkpt>
      <trkpt lat="44.09415" lon="2.92253">
        <ele>385.7</ele>
        <time>2021-08-15T12:49:32Z</time>
      </trkpt>
      <trkpt lat="44.09422" lon="2.9225">
        <ele>385.1</ele>
        <time>2021-08-15T12:49:34Z</time>
      </trkpt>
      <trkpt lat="44.09428" lon="2.92247">
        <ele>384.3</ele>
        <time>2021-08-15T12:49:36Z</time>
      </trkpt>
      <trkpt lat="44.09434" lon="2.92244">
        <ele>383.7</ele>
        <time>2021-08-15T12:49:38Z</time>
      </trkpt>
      <trkpt lat="44.09441" lon="2.92241">
        <ele>383.2</ele>
        <time>2021-08-15T12:49:40Z</time>
      </trkpt>
      <trkpt lat="44.09447" lon="2.9224">
        <ele>382.8</ele>
        <time>2021-08-15T12:49:42Z</time>
      </trkpt>
      <trkpt lat="44.09454" lon="2.92238">
        <ele>382.5</ele>
        <time>2021-08-15T12:49:44Z</time>
      </trkpt>
      <trkpt lat="44.09461" lon="2.92237">
        <ele>382.5</ele>
        <time>2021-08-15T12:49:46Z</time>
      </trkpt>
      <trkpt lat="44.09467" lon="2.92237">
        <ele>382.4</ele>
        <time>2021-08-15T12:49:48Z</time>
      </trkpt>
      <trkpt lat="44.09474" lon="2.92237">
        <ele>382.6</ele>
        <time>2021-08-15T12:49:50Z</time>
      </trkpt>
      <trkpt lat="44.09481" lon="2.92238">
        <ele>382.9</ele>
        <time>2021-08-15T12:49:52Z</time>
      </trkpt>
      <trkpt lat="44.09487" lon="2.9224">
        <ele>383.4</ele>
        <time>2021-08-15T12:49:54Z</time>
      </trkpt>
      <trkpt lat="44.09494" lon="2.92242">
        <ele>384</ele>
        <time>2021-08-15T12:49:56Z</time>
      </trkpt>
      <trkpt lat="44.095" lon="2.92245">
        <ele>384.7</ele>
        <time>2021-08-15T12:49:58Z</time>
      </trkpt>
      <trkpt lat="44.09507" lon="2.92248">
        <ele>384.1</ele>
        <time>2021-08-15T12:50:00Z</time>
      </trkpt>
      <trkpt lat="44.09513" lon="2.92252">
        <ele>383.5</ele>
        <time>2021-08-15T12:50:02Z</time>
      </trkpt>
      <trkpt lat="44.09518" lon="2.92256">
        <ele>382.9</ele>
        <time>2021-08-15T12:50:04Z</time>
      </trkpt>
      <trkpt lat="44.09524" lon="2.92262">
        <ele>382.4</ele>
        <time>2021-08-15T12:50:06Z</time>
      </trkpt>
      <trkpt lat="44.0953" lon="2.92268">
        <ele>381.9</ele>
        <time>2021-08-15T12:50:08Z</time>
      </trkpt>
      <trkpt lat="44.09536" lon="2.92275">
        <ele>381.5</ele>
        <time>2021-08-15T12:50:10Z</time>
      </trkpt>
      <trkpt lat="44.09541" lon="2.92282">
        <ele>381.4</ele>
        <time>2021-08-15T12:50:12Z</time>
      </trkpt>
      <trkpt lat="44.09545" lon="2.92291">
        <ele>381.5</ele>
        <time>2021-08-15T12:50:14Z</time>
      </trkpt>
      <trkpt lat="44.09549" lon="2.92299">
        <ele>381.7</ele>
        <time>2021-08-15T12:50:16Z</time>
      </trkpt>
      <trkpt lat="44.09553" lon="2.92308">
        <ele>382.1</ele>
        <time>2021-08-15T12:50:18Z</time>
      </trkpt>
      <trkpt lat="44.09555" lon="2.92318">
        <ele>382.8</ele>
        <time>2021-08-15T12:50:20Z</time>
      </trkpt>
      <trkpt lat="44.09557" lon="2.92327">
        <ele>383.6</ele>
        <time>2021-08-15T12:50:22Z</time>
      </trkpt>
      <trkpt lat="44.09558" lon="2.92337">
        <ele>384.3</ele>
        <time>2021-08-15T12:50:24Z</time>
      </trkpt>
      <trkpt lat="44.09558" lon="2.92347">
        <ele>384.5</ele>
        <time>2021-08-15T12:50:26Z</time>
      </trkpt>
      <trkpt lat="44.09559" lon="2.92358">
        <ele>384.8</ele>
        <time>2021-08-15T12:50:28Z</time>
      </trkpt>
      <trkpt lat="44.09559" lon="2.92369">
        <ele>385.2</ele>
        <time>2021-08-15T12:50:30Z</time>
      </trkpt>
      <trkpt lat="44.09559" lon="2.92379">
        <ele>385.6</ele>
        <time>2021-08-15T12:50:32Z</time>
      </trkpt>
      <trkpt lat="44.09559" lon="2.9239">
        <ele>385.9</ele>
        <time>2021-08-15T12:50:34Z</time>
      </trkpt>
      <trkpt lat="44.0956" lon="2.92401">
        <ele>386.1</ele>
        <time>2021-08-15T12:50:36Z</time>
      </trkpt>
      <trkpt lat="44.0956" lon="2.92411">
        <ele>386.5</ele>
        <time>2021-08-15T12:50:38Z</time>
      </trkpt>
      <trkpt lat="44.0956" lon="2.92422">
        <ele>387.1</ele>
        <time>2021-08-15T12:50:40Z</time>
      </trkpt>
      <trkpt lat="44.0956" lon="2.92433">
        <ele>387.7</ele>
        <time>2021-08-15T12:50:42Z</time>
      </trkpt>
      <trkpt lat="44.09561" lon="2.92444">
        <ele>388.2</ele>
        <time>2021-08-15T12:50:44Z</time>
      </trkpt>
      <trkpt lat="44.09561" lon="2.92454">
        <ele>388.8</ele>
        <time>2021-08-15T12:50:46Z</time>
      </trkpt>
      <trkpt lat="44.09562" lon="2.92465">
        <ele>389.1</ele>
        <time>2021-08-15T12:50:48Z</time>
      </trkpt>
      <trkpt lat="44.09563" lon="2.92476">
        <ele>389.5</ele>
        <time>2021-08-15T12:50:50Z</time>
      </trkpt>
      <trkpt lat="44.09564" lon="2.92487">
        <ele>389.8</ele>
        <time>2021-08-15T12:50:52Z</time>
      </trkpt>
      <trkpt lat="44.09566" lon="2.92498">
        <ele>389.9</ele>
        <time>2021-08-15T12:50:54Z</time>
      </trkpt>
      <trkpt lat="44.09567" lon="2.92508">
        <ele>390.1</ele>
        <time>2021-08-15T12:50:56Z</time>
      </trkpt>
      <trkpt lat="44.09568" lon="2.92519">
        <ele>390.3</ele>
        <time>2021-08-15T12:50:58Z</time>
      </trkpt>
      <trkpt lat="44.09569" lon="2.9253">
        <ele>390.4</ele>
        <time>2021-08-15T12:51:00Z</time>
      </trkpt>
      <trkpt lat="44.09571" lon="2.92541">
        <ele>390.2</ele>
        <time>2021-08-15T12:51:02Z</time>
      </trkpt>
      <trkpt lat="44.09573" lon="2.92552">
        <ele>389.8</ele>
        <time>2021-08-15T12:51:04Z</time>
      </trkpt>
      <trkpt lat="44.09575" lon="2.92563">
        <ele>389.8</ele>
        <time>2021-08-15T12:51:06Z</time>
      </trkpt>
      <trkpt lat="44.09576" lon="2.92573">
        <ele>389.7</ele>
        <time>2021-08-15T12:51:08Z</time>
      </trkpt>
      <trkpt lat="44.09578" lon="2.92584">
        <ele>389.4</ele>
        <time>2021-08-15T12:51:10Z</time>
      </trkpt>
      <trkpt lat="44.0958" lon="2.92594">
        <ele>389.7</ele>
        <time>2021-08-15T12:51:12Z</time>
      </trkpt>
      <trkpt lat="44.09582" lon="2.92605">
        <ele>389.8</ele>
        <time>2021-08-15T12:51:14Z</time>
      </trkpt>
      <trkpt lat="44.09583" lon="2.92615">
        <ele>390.1</ele>
        <time>2021-08-15T12:51:16Z</time>
      </trkpt>
      <trkpt lat="44.09585" lon="2.92626">
        <ele>390.5</ele>
        <time>2021-08-15T12:51:18Z</time>
      </trkpt>
      <trkpt lat="44.09587" lon="2.92637">
        <ele>390.8</ele>
        <time>2021-08-15T12:51:20Z</time>
      </trkpt>
      <trkpt lat="44.0959" lon="2.92647">
        <ele>391.1</ele>
        <time>2021-08-15T12:51:22Z</time>
      </trkpt>
      <trkpt lat="44.09592" lon="2.92657">
        <ele>391.1</ele>
        <time>2021-08-15T12:51:24Z</time>
      </trkpt>
      <trkpt lat="44.09595" lon="2.92667">
        <ele>391.1</ele>
        <time>2021-08-15T12:51:26Z</time>
      </trkpt>
      <trkpt lat="44.09597" lon="2.92677">
        <ele>391.5</ele>
        <time>2021-08-15T12:51:28Z</time>
      </trkpt>
      <trkpt lat="44.09599" lon="2.92687">
        <ele>392</ele>
        <time>2021-08-15T12:51:30Z</time>
      </trkpt>
      <trkpt lat="44.09601" lon="2.92696">
        <ele>392.5</ele>
        <time>2021-08-15T12:51:32Z</time>
      </trkpt>
      <trkpt lat="44.09602" lon="2.92706">
        <ele>393.3</ele>
        <time>2021-08-15T12:51:34Z</time>
      </trkpt>
      <trkpt lat="44.09603" lon="2.92716">
        <ele>394.1</ele>
        <time>2021-08-15T12:51:36Z</time>
      </trkpt>
      <trkpt lat="44.09604" lon="2.92727">
        <ele>395.1</ele>
        <time>2021-08-15T12:51:38Z</time>
      </trkpt>
      <trkpt lat="44.09604" lon="2.92737">
        <ele>396.1</ele>
        <time>2021-08-15T12:51:40Z</time>
      </trkpt>
      <trkpt lat="44.09605" lon="2.92747">
        <ele>397.2</ele>
        <time>2021-08-15T12:51:42Z</time>
      </trkpt>
      <trkpt lat="44.09606" lon="2.92757">
        <ele>398.1</ele>
        <time>2021-08-15T12:51:44Z</time>
      </trkpt>
      <trkpt lat="44.09607" lon="2.92767">
        <ele>399</ele>
        <time>2021-08-15T12:51:46Z</time>
      </trkpt>
      <trkpt lat="44.09609" lon="2.92777">
        <ele>399.7</ele>
        <time>2021-08-15T12:51:48Z</time>
      </trkpt>
      <trkpt lat="44.09612" lon="2.92787">
        <ele>399.3</ele>
        <time>2021-08-15T12:51:50Z</time>
      </trkpt>
      <trkpt lat="44.09617" lon="2.92796">
        <ele>398.9</ele>
        <time>2021-08-15T12:51:52Z</time>
      </trkpt>
      <trkpt lat="44.09623" lon="2.92805">
        <ele>397.8</ele>
        <time>2021-08-15T12:51:54Z</time>
      </trkpt>
      <trkpt lat="44.09628" lon="2.92814">
        <ele>397</ele>
        <time>2021-08-15T12:51:56Z</time>
      </trkpt>
      <trkpt lat="44.09633" lon="2.92822">
        <ele>396.1</ele>
        <time>2021-08-15T12:51:58Z</time>
      </trkpt>
      <trkpt lat="44.09637" lon="2.9283">
        <ele>395.6</ele>
        <time>2021-08-15T12:52:00Z</time>
      </trkpt>
      <trkpt lat="44.09641" lon="2.92838">
        <ele>395.6</ele>
        <time>2021-08-15T12:52:02Z</time>
      </trkpt>
      <trkpt lat="44.09645" lon="2.92844">
        <ele>396</ele>
        <time>2021-08-15T12:52:04Z</time>
      </trkpt>
      <trkpt lat="44.0965" lon="2.9285">
        <ele>395.9</ele>
        <time>2021-08-15T12:52:06Z</time>
      </trkpt>
      <trkpt lat="44.09656" lon="2.92857">
        <ele>396.1</ele>
        <time>2021-08-15T12:52:08Z</time>
      </trkpt>
      <trkpt lat="44.09661" lon="2.92862">
        <ele>395.7</ele>
        <time>2021-08-15T12:52:10Z</time>
      </trkpt>
      <trkpt lat="44.09666" lon="2.92866">
        <ele>395.2</ele>
        <time>2021-08-15T12:52:12Z</time>
      </trkpt>
      <trkpt lat="44.0967" lon="2.92869">
        <ele>395.1</ele>
        <time>2021-08-15T12:52:14Z</time>
      </trkpt>
      <trkpt lat="44.09675" lon="2.92872">
        <ele>395.1</ele>
        <time>2021-08-15T12:52:16Z</time>
      </trkpt>
      <trkpt lat="44.09678" lon="2.92875">
        <ele>395.1</ele>
        <time>2021-08-15T12:52:18Z</time>
      </trkpt>
      <trkpt lat="44.09681" lon="2.92877">
        <ele>395.1</ele>
        <time>2021-08-15T12:52:20Z</time>
      </trkpt>
      <trkpt lat="44.09685" lon="2.92877">
        <ele>394.2</ele>
        <time>2021-08-15T12:52:22Z</time>
      </trkpt>
      <trkpt lat="44.09685" lon="2.92875">
        <ele>393.6</ele>
        <time>2021-08-15T12:52:24Z</time>
      </trkpt>
      <trkpt lat="44.09685" lon="2.92875">
        <ele>393.8</ele>
        <time>2021-08-15T12:52:26Z</time>
      </trkpt>
      <trkpt lat="44.09685" lon="2.92876">
        <ele>393.8</ele>
        <time>2021-08-15T12:52:28Z</time>
      </trkpt>
      <trkpt lat="44.09686" lon="2.92876">
        <ele>393.8</ele>
        <time>2021-08-15T12:52:30Z</time>
      </trkpt>
      <trkpt lat="44.09687" lon="2.92878">
        <ele>394</ele>
        <time>2021-08-15T12:52:32Z</time>
      </trkpt>
      <trkpt lat="44.09706" lon="2.929">
        <ele>395.2</ele>
        <time>2021-08-15T12:52:52Z</time>
      </trkpt>
      <trkpt lat="44.09709" lon="2.92905">
        <ele>395.6</ele>
        <time>2021-08-15T12:52:54Z</time>
      </trkpt>
      <trkpt lat="44.09712" lon="2.9291">
        <ele>396.1</ele>
        <time>2021-08-15T12:52:56Z</time>
      </trkpt>
      <trkpt lat="44.09716" lon="2.92915">
        <ele>396.3</ele>
        <time>2021-08-15T12:52:58Z</time>
      </trkpt>
      <trkpt lat="44.0972" lon="2.9292">
        <ele>396.2</ele>
        <time>2021-08-15T12:53:00Z</time>
      </trkpt>
      <trkpt lat="44.09724" lon="2.92925">
        <ele>396.4</ele>
        <time>2021-08-15T12:53:02Z</time>
      </trkpt>
      <trkpt lat="44.09728" lon="2.92931">
        <ele>396.7</ele>
        <time>2021-08-15T12:53:04Z</time>
      </trkpt>
      <trkpt lat="44.09733" lon="2.92936">
        <ele>396.9</ele>
        <time>2021-08-15T12:53:06Z</time>
      </trkpt>
      <trkpt lat="44.09737" lon="2.92942">
        <ele>397.1</ele>
        <time>2021-08-15T12:53:08Z</time>
      </trkpt>
      <trkpt lat="44.09743" lon="2.92947">
        <ele>397.1</ele>
        <time>2021-08-15T12:53:10Z</time>
      </trkpt>
      <trkpt lat="44.09748" lon="2.92953">
        <ele>397.1</ele>
        <time>2021-08-15T12:53:12Z</time>
      </trkpt>
      <trkpt lat="44.09754" lon="2.92958">
        <ele>396.9</ele>
        <time>2021-08-15T12:53:14Z</time>
      </trkpt>
      <trkpt lat="44.0976" lon="2.92963">
        <ele>396.8</ele>
        <time>2021-08-15T12:53:16Z</time>
      </trkpt>
      <trkpt lat="44.09765" lon="2.92968">
        <ele>396.8</ele>
        <time>2021-08-15T12:53:18Z</time>
      </trkpt>
      <trkpt lat="44.09771" lon="2.92973">
        <ele>396.4</ele>
        <time>2021-08-15T12:53:20Z</time>
      </trkpt>
      <trkpt lat="44.09777" lon="2.92978">
        <ele>396.1</ele>
        <time>2021-08-15T12:53:22Z</time>
      </trkpt>
      <trkpt lat="44.09783" lon="2.92982">
        <ele>395.5</ele>
        <time>2021-08-15T12:53:24Z</time>
      </trkpt>
      <trkpt lat="44.09789" lon="2.92988">
        <ele>395.3</ele>
        <time>2021-08-15T12:53:26Z</time>
      </trkpt>
      <trkpt lat="44.09794" lon="2.92992">
        <ele>394.8</ele>
        <time>2021-08-15T12:53:28Z</time>
      </trkpt>
      <trkpt lat="44.098" lon="2.92996">
        <ele>394.1</ele>
        <time>2021-08-15T12:53:30Z</time>
      </trkpt>
      <trkpt lat="44.09805" lon="2.93001">
        <ele>393.7</ele>
        <time>2021-08-15T12:53:32Z</time>
      </trkpt>
      <trkpt lat="44.09811" lon="2.93007">
        <ele>393.3</ele>
        <time>2021-08-15T12:53:34Z</time>
      </trkpt>
      <trkpt lat="44.09817" lon="2.93011">
        <ele>392.7</ele>
        <time>2021-08-15T12:53:36Z</time>
      </trkpt>
      <trkpt lat="44.09823" lon="2.93016">
        <ele>392</ele>
        <time>2021-08-15T12:53:38Z</time>
      </trkpt>
      <trkpt lat="44.0983" lon="2.93021">
        <ele>391.4</ele>
        <time>2021-08-15T12:53:40Z</time>
      </trkpt>
      <trkpt lat="44.09836" lon="2.93025">
        <ele>391</ele>
        <time>2021-08-15T12:53:42Z</time>
      </trkpt>
      <trkpt lat="44.09842" lon="2.9303">
        <ele>391.3</ele>
        <time>2021-08-15T12:53:44Z</time>
      </trkpt>
      <trkpt lat="44.09848" lon="2.93036">
        <ele>391.7</ele>
        <time>2021-08-15T12:53:46Z</time>
      </trkpt>
      <trkpt lat="44.09855" lon="2.93041">
        <ele>392</ele>
        <time>2021-08-15T12:53:48Z</time>
      </trkpt>
      <trkpt lat="44.09861" lon="2.93046">
        <ele>392.2</ele>
        <time>2021-08-15T12:53:50Z</time>
      </trkpt>
      <trkpt lat="44.09867" lon="2.93052">
        <ele>392.8</ele>
        <time>2021-08-15T12:53:52Z</time>
      </trkpt>
      <trkpt lat="44.09872" lon="2.93059">
        <ele>393.6</ele>
        <time>2021-08-15T12:53:54Z</time>
      </trkpt>
      <trkpt lat="44.09876" lon="2.93068">
        <ele>394.8</ele>
        <time>2021-08-15T12:53:56Z</time>
      </trkpt>
      <trkpt lat="44.09879" lon="2.93077">
        <ele>396.4</ele>
        <time>2021-08-15T12:53:58Z</time>
      </trkpt>
      <trkpt lat="44.0988" lon="2.93087">
        <ele>398.1</ele>
        <time>2021-08-15T12:54:00Z</time>
      </trkpt>
      <trkpt lat="44.0988" lon="2.93097">
        <ele>399.6</ele>
        <time>2021-08-15T12:54:02Z</time>
      </trkpt>
      <trkpt lat="44.09879" lon="2.93107">
        <ele>401.2</ele>
        <time>2021-08-15T12:54:04Z</time>
      </trkpt>
      <trkpt lat="44.09878" lon="2.93117">
        <ele>402.8</ele>
        <time>2021-08-15T12:54:06Z</time>
      </trkpt>
      <trkpt lat="44.09877" lon="2.93126">
        <ele>404.4</ele>
        <time>2021-08-15T12:54:08Z</time>
      </trkpt>
      <trkpt lat="44.09876" lon="2.93135">
        <ele>405.9</ele>
        <time>2021-08-15T12:54:10Z</time>
      </trkpt>
      <trkpt lat="44.09876" lon="2.93145">
        <ele>407.2</ele>
        <time>2021-08-15T12:54:12Z</time>
      </trkpt>
      <trkpt lat="44.09879" lon="2.93154">
        <ele>408.3</ele>
        <time>2021-08-15T12:54:14Z</time>
      </trkpt>
      <trkpt lat="44.09885" lon="2.93161">
        <ele>408.9</ele>
        <time>2021-08-15T12:54:16Z</time>
      </trkpt>
      <trkpt lat="44.09891" lon="2.93165">
        <ele>408.8</ele>
        <time>2021-08-15T12:54:18Z</time>
      </trkpt>
      <trkpt lat="44.09898" lon="2.93162">
        <ele>407.8</ele>
        <time>2021-08-15T12:54:20Z</time>
      </trkpt>
      <trkpt lat="44.09904" lon="2.93157">
        <ele>406.4</ele>
        <time>2021-08-15T12:54:22Z</time>
      </trkpt>
      <trkpt lat="44.09909" lon="2.93151">
        <ele>404.8</ele>
        <time>2021-08-15T12:54:24Z</time>
      </trkpt>
      <trkpt lat="44.09913" lon="2.93145">
        <ele>403.3</ele>
        <time>2021-08-15T12:54:26Z</time>
      </trkpt>
      <trkpt lat="44.09917" lon="2.93138">
        <ele>401.6</ele>
        <time>2021-08-15T12:54:28Z</time>
      </trkpt>
      <trkpt lat="44.09921" lon="2.93131">
        <ele>400.4</ele>
        <time>2021-08-15T12:54:30Z</time>
      </trkpt>
      <trkpt lat="44.09926" lon="2.93124">
        <ele>399.1</ele>
        <time>2021-08-15T12:54:32Z</time>
      </trkpt>
      <trkpt lat="44.0993" lon="2.93118">
        <ele>398.1</ele>
        <time>2021-08-15T12:54:34Z</time>
      </trkpt>
      <trkpt lat="44.09934" lon="2.93112">
        <ele>397</ele>
        <time>2021-08-15T12:54:36Z</time>
      </trkpt>
      <trkpt lat="44.09939" lon="2.93105">
        <ele>395.8</ele>
        <time>2021-08-15T12:54:38Z</time>
      </trkpt>
      <trkpt lat="44.09945" lon="2.931">
        <ele>394.9</ele>
        <time>2021-08-15T12:54:40Z</time>
      </trkpt>
      <trkpt lat="44.09951" lon="2.93095">
        <ele>394.1</ele>
        <time>2021-08-15T12:54:42Z</time>
      </trkpt>
      <trkpt lat="44.09957" lon="2.93091">
        <ele>393.5</ele>
        <time>2021-08-15T12:54:44Z</time>
      </trkpt>
      <trkpt lat="44.09964" lon="2.93088">
        <ele>393.1</ele>
        <time>2021-08-15T12:54:46Z</time>
      </trkpt>
      <trkpt lat="44.09971" lon="2.93087">
        <ele>393</ele>
        <time>2021-08-15T12:54:48Z</time>
      </trkpt>
      <trkpt lat="44.09978" lon="2.93087">
        <ele>393.2</ele>
        <time>2021-08-15T12:54:50Z</time>
      </trkpt>
      <trkpt lat="44.09985" lon="2.93088">
        <ele>393.6</ele>
        <time>2021-08-15T12:54:52Z</time>
      </trkpt>
      <trkpt lat="44.09992" lon="2.93088">
        <ele>393.8</ele>
        <time>2021-08-15T12:54:54Z</time>
      </trkpt>
      <trkpt lat="44.09999" lon="2.9309">
        <ele>394.3</ele>
        <time>2021-08-15T12:54:56Z</time>
      </trkpt>
      <trkpt lat="44.10006" lon="2.93092">
        <ele>393.8</ele>
        <time>2021-08-15T12:54:58Z</time>
      </trkpt>
      <trkpt lat="44.10013" lon="2.93095">
        <ele>393.4</ele>
        <time>2021-08-15T12:55:00Z</time>
      </trkpt>
      <trkpt lat="44.10019" lon="2.93099">
        <ele>393.2</ele>
        <time>2021-08-15T12:55:02Z</time>
      </trkpt>
      <trkpt lat="44.10025" lon="2.93104">
        <ele>393.2</ele>
        <time>2021-08-15T12:55:04Z</time>
      </trkpt>
      <trkpt lat="44.10031" lon="2.93109">
        <ele>393.4</ele>
        <time>2021-08-15T12:55:06Z</time>
      </trkpt>
      <trkpt lat="44.10035" lon="2.93116">
        <ele>394</ele>
        <time>2021-08-15T12:55:08Z</time>
      </trkpt>
      <trkpt lat="44.1004" lon="2.93124">
        <ele>394.8</ele>
        <time>2021-08-15T12:55:10Z</time>
      </trkpt>
      <trkpt lat="44.10044" lon="2.93132">
        <ele>395.7</ele>
        <time>2021-08-15T12:55:12Z</time>
      </trkpt>
      <trkpt lat="44.10048" lon="2.9314">
        <ele>396.7</ele>
        <time>2021-08-15T12:55:14Z</time>
      </trkpt>
      <trkpt lat="44.10052" lon="2.93148">
        <ele>397.7</ele>
        <time>2021-08-15T12:55:16Z</time>
      </trkpt>
      <trkpt lat="44.10055" lon="2.93156">
        <ele>398.6</ele>
        <time>2021-08-15T12:55:18Z</time>
      </trkpt>
      <trkpt lat="44.1006" lon="2.93164">
        <ele>399.5</ele>
        <time>2021-08-15T12:55:20Z</time>
      </trkpt>
      <trkpt lat="44.10064" lon="2.93172">
        <ele>400.2</ele>
        <time>2021-08-15T12:55:22Z</time>
      </trkpt>
      <trkpt lat="44.10067" lon="2.93179">
        <ele>400.8</ele>
        <time>2021-08-15T12:55:24Z</time>
      </trkpt>
      <trkpt lat="44.10071" lon="2.93187">
        <ele>401.5</ele>
        <time>2021-08-15T12:55:26Z</time>
      </trkpt>
      <trkpt lat="44.10075" lon="2.93196">
        <ele>402.3</ele>
        <time>2021-08-15T12:55:28Z</time>
      </trkpt>
      <trkpt lat="44.10079" lon="2.93203">
        <ele>402.9</ele>
        <time>2021-08-15T12:55:30Z</time>
      </trkpt>
      <trkpt lat="44.10083" lon="2.93211">
        <ele>403.6</ele>
        <time>2021-08-15T12:55:32Z</time>
      </trkpt>
      <trkpt lat="44.10087" lon="2.9322">
        <ele>404.3</ele>
        <time>2021-08-15T12:55:34Z</time>
      </trkpt>
      <trkpt lat="44.1009" lon="2.93229">
        <ele>405.1</ele>
        <time>2021-08-15T12:55:36Z</time>
      </trkpt>
      <trkpt lat="44.10094" lon="2.93237">
        <ele>405.7</ele>
        <time>2021-08-15T12:55:38Z</time>
      </trkpt>
      <trkpt lat="44.101" lon="2.93244">
        <ele>405.9</ele>
        <time>2021-08-15T12:55:40Z</time>
      </trkpt>
      <trkpt lat="44.10104" lon="2.93252">
        <ele>406.2</ele>
        <time>2021-08-15T12:55:42Z</time>
      </trkpt>
      <trkpt lat="44.10109" lon="2.9326">
        <ele>406.3</ele>
        <time>2021-08-15T12:55:44Z</time>
      </trkpt>
      <trkpt lat="44.10113" lon="2.93267">
        <ele>406.4</ele>
        <time>2021-08-15T12:55:46Z</time>
      </trkpt>
      <trkpt lat="44.10118" lon="2.93275">
        <ele>406.4</ele>
        <time>2021-08-15T12:55:48Z</time>
      </trkpt>
      <trkpt lat="44.10122" lon="2.93282">
        <ele>406.5</ele>
        <time>2021-08-15T12:55:50Z</time>
      </trkpt>
      <trkpt lat="44.10127" lon="2.9329">
        <ele>406.4</ele>
        <time>2021-08-15T12:55:52Z</time>
      </trkpt>
      <trkpt lat="44.10131" lon="2.93298">
        <ele>406.4</ele>
        <time>2021-08-15T12:55:54Z</time>
      </trkpt>
      <trkpt lat="44.10136" lon="2.93305">
        <ele>406.4</ele>
        <time>2021-08-15T12:55:56Z</time>
      </trkpt>
      <trkpt lat="44.1014" lon="2.93313">
        <ele>406.3</ele>
        <time>2021-08-15T12:55:58Z</time>
      </trkpt>
      <trkpt lat="44.10145" lon="2.9332">
        <ele>406.1</ele>
        <time>2021-08-15T12:56:00Z</time>
      </trkpt>
      <trkpt lat="44.1015" lon="2.93327">
        <ele>405.9</ele>
        <time>2021-08-15T12:56:02Z</time>
      </trkpt>
      <trkpt lat="44.10154" lon="2.93333">
        <ele>405.7</ele>
        <time>2021-08-15T12:56:04Z</time>
      </trkpt>
      <trkpt lat="44.10158" lon="2.93339">
        <ele>405.6</ele>
        <time>2021-08-15T12:56:06Z</time>
      </trkpt>
      <trkpt lat="44.10161" lon="2.93345">
        <ele>405.8</ele>
        <time>2021-08-15T12:56:08Z</time>
      </trkpt>
      <trkpt lat="44.10164" lon="2.9335">
        <ele>405.8</ele>
        <time>2021-08-15T12:56:10Z</time>
      </trkpt>
      <trkpt lat="44.10167" lon="2.93356">
        <ele>406</ele>
        <time>2021-08-15T12:56:12Z</time>
      </trkpt>
      <trkpt lat="44.10171" lon="2.93361">
        <ele>407</ele>
        <time>2021-08-15T12:56:14Z</time>
      </trkpt>
      <trkpt lat="44.10174" lon="2.93367">
        <ele>408</ele>
        <time>2021-08-15T12:56:16Z</time>
      </trkpt>
      <trkpt lat="44.10178" lon="2.93373">
        <ele>409</ele>
        <time>2021-08-15T12:56:18Z</time>
      </trkpt>
      <trkpt lat="44.10181" lon="2.93378">
        <ele>410.1</ele>
        <time>2021-08-15T12:56:20Z</time>
      </trkpt>
      <trkpt lat="44.10184" lon="2.93384">
        <ele>411.1</ele>
        <time>2021-08-15T12:56:22Z</time>
      </trkpt>
      <trkpt lat="44.10187" lon="2.93389">
        <ele>412.1</ele>
        <time>2021-08-15T12:56:24Z</time>
      </trkpt>
      <trkpt lat="44.1019" lon="2.93394">
        <ele>413.1</ele>
        <time>2021-08-15T12:56:26Z</time>
      </trkpt>
      <trkpt lat="44.10194" lon="2.93398">
        <ele>414.1</ele>
        <time>2021-08-15T12:56:28Z</time>
      </trkpt>
      <trkpt lat="44.10198" lon="2.93401">
        <ele>415</ele>
        <time>2021-08-15T12:56:30Z</time>
      </trkpt>
      <trkpt lat="44.10203" lon="2.93402">
        <ele>415.7</ele>
        <time>2021-08-15T12:56:32Z</time>
      </trkpt>
      <trkpt lat="44.10208" lon="2.93402">
        <ele>416</ele>
        <time>2021-08-15T12:56:34Z</time>
      </trkpt>
      <trkpt lat="44.10212" lon="2.93399">
        <ele>416</ele>
        <time>2021-08-15T12:56:36Z</time>
      </trkpt>
      <trkpt lat="44.10215" lon="2.93395">
        <ele>415.6</ele>
        <time>2021-08-15T12:56:38Z</time>
      </trkpt>
      <trkpt lat="44.10217" lon="2.93389">
        <ele>414.8</ele>
        <time>2021-08-15T12:56:40Z</time>
      </trkpt>
      <trkpt lat="44.10217" lon="2.93383">
        <ele>413.8</ele>
        <time>2021-08-15T12:56:42Z</time>
      </trkpt>
      <trkpt lat="44.10217" lon="2.93376">
        <ele>412.7</ele>
        <time>2021-08-15T12:56:44Z</time>
      </trkpt>
      <trkpt lat="44.10217" lon="2.9337">
        <ele>411.6</ele>
        <time>2021-08-15T12:56:46Z</time>
      </trkpt>
      <trkpt lat="44.10217" lon="2.93364">
        <ele>410.6</ele>
        <time>2021-08-15T12:56:48Z</time>
      </trkpt>
      <trkpt lat="44.10217" lon="2.93358">
        <ele>409.5</ele>
        <time>2021-08-15T12:56:50Z</time>
      </trkpt>
      <trkpt lat="44.10217" lon="2.93351">
        <ele>408.4</ele>
        <time>2021-08-15T12:56:52Z</time>
      </trkpt>
      <trkpt lat="44.10217" lon="2.93344">
        <ele>407.3</ele>
        <time>2021-08-15T12:56:54Z</time>
      </trkpt>
      <trkpt lat="44.10219" lon="2.93338">
        <ele>406.3</ele>
        <time>2021-08-15T12:56:56Z</time>
      </trkpt>
      <trkpt lat="44.10221" lon="2.93332">
        <ele>405.4</ele>
        <time>2021-08-15T12:56:58Z</time>
      </trkpt>
      <trkpt lat="44.10225" lon="2.93329">
        <ele>404.6</ele>
        <time>2021-08-15T12:57:00Z</time>
      </trkpt>
      <trkpt lat="44.10229" lon="2.93326">
        <ele>404.2</ele>
        <time>2021-08-15T12:57:02Z</time>
      </trkpt>
      <trkpt lat="44.10234" lon="2.93325">
        <ele>404.1</ele>
        <time>2021-08-15T12:57:04Z</time>
      </trkpt>
      <trkpt lat="44.10239" lon="2.93326">
        <ele>404.3</ele>
        <time>2021-08-15T12:57:06Z</time>
      </trkpt>
      <trkpt lat="44.10243" lon="2.93326">
        <ele>404.6</ele>
        <time>2021-08-15T12:57:08Z</time>
      </trkpt>
      <trkpt lat="44.10247" lon="2.93329">
        <ele>405.4</ele>
        <time>2021-08-15T12:57:10Z</time>
      </trkpt>
      <trkpt lat="44.10252" lon="2.93331">
        <ele>406.2</ele>
        <time>2021-08-15T12:57:12Z</time>
      </trkpt>
      <trkpt lat="44.10256" lon="2.93333">
        <ele>406.8</ele>
        <time>2021-08-15T12:57:14Z</time>
      </trkpt>
      <trkpt lat="44.10261" lon="2.93334">
        <ele>407.2</ele>
        <time>2021-08-15T12:57:16Z</time>
      </trkpt>
      <trkpt lat="44.10265" lon="2.93337">
        <ele>407.8</ele>
        <time>2021-08-15T12:57:18Z</time>
      </trkpt>
      <trkpt lat="44.1027" lon="2.93339">
        <ele>408.4</ele>
        <time>2021-08-15T12:57:20Z</time>
      </trkpt>
      <trkpt lat="44.10275" lon="2.93341">
        <ele>409</ele>
        <time>2021-08-15T12:57:22Z</time>
      </trkpt>
      <trkpt lat="44.10279" lon="2.93343">
        <ele>409.6</ele>
        <time>2021-08-15T12:57:24Z</time>
      </trkpt>
      <trkpt lat="44.10284" lon="2.93345">
        <ele>410.3</ele>
        <time>2021-08-15T12:57:26Z</time>
      </trkpt>
      <trkpt lat="44.10288" lon="2.93347">
        <ele>411</ele>
        <time>2021-08-15T12:57:28Z</time>
      </trkpt>
      <trkpt lat="44.10293" lon="2.93349">
        <ele>411.7</ele>
        <time>2021-08-15T12:57:30Z</time>
      </trkpt>
      <trkpt lat="44.10297" lon="2.93351">
        <ele>412.6</ele>
        <time>2021-08-15T12:57:32Z</time>
      </trkpt>
      <trkpt lat="44.10302" lon="2.93353">
        <ele>413.3</ele>
        <time>2021-08-15T12:57:34Z</time>
      </trkpt>
      <trkpt lat="44.10307" lon="2.93354">
        <ele>413.9</ele>
        <time>2021-08-15T12:57:36Z</time>
      </trkpt>
      <trkpt lat="44.10312" lon="2.93355">
        <ele>414.5</ele>
        <time>2021-08-15T12:57:38Z</time>
      </trkpt>
      <trkpt lat="44.10317" lon="2.93356">
        <ele>415.2</ele>
        <time>2021-08-15T12:57:40Z</time>
      </trkpt>
      <trkpt lat="44.10322" lon="2.93357">
        <ele>415.8</ele>
        <time>2021-08-15T12:57:42Z</time>
      </trkpt>
      <trkpt lat="44.10327" lon="2.93358">
        <ele>416.4</ele>
        <time>2021-08-15T12:57:44Z</time>
      </trkpt>
      <trkpt lat="44.10332" lon="2.93359">
        <ele>417.1</ele>
        <time>2021-08-15T12:57:46Z</time>
      </trkpt>
      <trkpt lat="44.10337" lon="2.9336">
        <ele>417.8</ele>
        <time>2021-08-15T12:57:48Z</time>
      </trkpt>
      <trkpt lat="44.10341" lon="2.93361">
        <ele>418.5</ele>
        <time>2021-08-15T12:57:50Z</time>
      </trkpt>
      <trkpt lat="44.10346" lon="2.93362">
        <ele>419.3</ele>
        <time>2021-08-15T12:57:52Z</time>
      </trkpt>
      <trkpt lat="44.10351" lon="2.93363">
        <ele>420.1</ele>
        <time>2021-08-15T12:57:54Z</time>
      </trkpt>
      <trkpt lat="44.10356" lon="2.93364">
        <ele>421</ele>
        <time>2021-08-15T12:57:56Z</time>
      </trkpt>
      <trkpt lat="44.10361" lon="2.93366">
        <ele>421.7</ele>
        <time>2021-08-15T12:57:58Z</time>
      </trkpt>
      <trkpt lat="44.10365" lon="2.93366">
        <ele>422.4</ele>
        <time>2021-08-15T12:58:00Z</time>
      </trkpt>
      <trkpt lat="44.1037" lon="2.93367">
        <ele>422.8</ele>
        <time>2021-08-15T12:58:02Z</time>
      </trkpt>
      <trkpt lat="44.10375" lon="2.93366">
        <ele>423.1</ele>
        <time>2021-08-15T12:58:04Z</time>
      </trkpt>
      <trkpt lat="44.1038" lon="2.93365">
        <ele>423</ele>
        <time>2021-08-15T12:58:06Z</time>
      </trkpt>
      <trkpt lat="44.10384" lon="2.93363">
        <ele>422.4</ele>
        <time>2021-08-15T12:58:08Z</time>
      </trkpt>
      <trkpt lat="44.10389" lon="2.9336">
        <ele>421.8</ele>
        <time>2021-08-15T12:58:10Z</time>
      </trkpt>
      <trkpt lat="44.10393" lon="2.93356">
        <ele>420.8</ele>
        <time>2021-08-15T12:58:12Z</time>
      </trkpt>
      <trkpt lat="44.10396" lon="2.93352">
        <ele>419.5</ele>
        <time>2021-08-15T12:58:14Z</time>
      </trkpt>
      <trkpt lat="44.10401" lon="2.93347">
        <ele>418.1</ele>
        <time>2021-08-15T12:58:16Z</time>
      </trkpt>
      <trkpt lat="44.10405" lon="2.93343">
        <ele>417.1</ele>
        <time>2021-08-15T12:58:18Z</time>
      </trkpt>
      <trkpt lat="44.1041" lon="2.93339">
        <ele>416.3</ele>
        <time>2021-08-15T12:58:20Z</time>
      </trkpt>
      <trkpt lat="44.10415" lon="2.93336">
        <ele>415.7</ele>
        <time>2021-08-15T12:58:22Z</time>
      </trkpt>
      <trkpt lat="44.10419" lon="2.93332">
        <ele>415.2</ele>
        <time>2021-08-15T12:58:24Z</time>
      </trkpt>
      <trkpt lat="44.10423" lon="2.93328">
        <ele>415.1</ele>
        <time>2021-08-15T12:58:26Z</time>
      </trkpt>
      <trkpt lat="44.10427" lon="2.93324">
        <ele>415</ele>
        <time>2021-08-15T12:58:28Z</time>
      </trkpt>
      <trkpt lat="44.10431" lon="2.93321">
        <ele>415.1</ele>
        <time>2021-08-15T12:58:30Z</time>
      </trkpt>
      <trkpt lat="44.10435" lon="2.93319">
        <ele>415.2</ele>
        <time>2021-08-15T12:58:32Z</time>
      </trkpt>
      <trkpt lat="44.10439" lon="2.93315">
        <ele>415.3</ele>
        <time>2021-08-15T12:58:34Z</time>
      </trkpt>
      <trkpt lat="44.10443" lon="2.93312">
        <ele>415.3</ele>
        <time>2021-08-15T12:58:36Z</time>
      </trkpt>
      <trkpt lat="44.10447" lon="2.93309">
        <ele>415.4</ele>
        <time>2021-08-15T12:58:38Z</time>
      </trkpt>
      <trkpt lat="44.10451" lon="2.93306">
        <ele>415.5</ele>
        <time>2021-08-15T12:58:40Z</time>
      </trkpt>
      <trkpt lat="44.10455" lon="2.93302">
        <ele>415.3</ele>
        <time>2021-08-15T12:58:42Z</time>
      </trkpt>
      <trkpt lat="44.10459" lon="2.93298">
        <ele>415.3</ele>
        <time>2021-08-15T12:58:44Z</time>
      </trkpt>
      <trkpt lat="44.10463" lon="2.93294">
        <ele>415.4</ele>
        <time>2021-08-15T12:58:46Z</time>
      </trkpt>
      <trkpt lat="44.10467" lon="2.93291">
        <ele>415.3</ele>
        <time>2021-08-15T12:58:48Z</time>
      </trkpt>
      <trkpt lat="44.10471" lon="2.93287">
        <ele>415.2</ele>
        <time>2021-08-15T12:58:50Z</time>
      </trkpt>
      <trkpt lat="44.10476" lon="2.93283">
        <ele>415.4</ele>
        <time>2021-08-15T12:58:52Z</time>
      </trkpt>
      <trkpt lat="44.1048" lon="2.9328">
        <ele>415.6</ele>
        <time>2021-08-15T12:58:54Z</time>
      </trkpt>
      <trkpt lat="44.10484" lon="2.93276">
        <ele>415.4</ele>
        <time>2021-08-15T12:58:56Z</time>
      </trkpt>
      <trkpt lat="44.10489" lon="2.93272">
        <ele>415.5</ele>
        <time>2021-08-15T12:58:58Z</time>
      </trkpt>
      <trkpt lat="44.10493" lon="2.93268">
        <ele>415.5</ele>
        <time>2021-08-15T12:59:00Z</time>
      </trkpt>
      <trkpt lat="44.10497" lon="2.93265">
        <ele>415.5</ele>
        <time>2021-08-15T12:59:02Z</time>
      </trkpt>
      <trkpt lat="44.105" lon="2.93261">
        <ele>415.4</ele>
        <time>2021-08-15T12:59:04Z</time>
      </trkpt>
      <trkpt lat="44.10504" lon="2.93257">
        <ele>414.9</ele>
        <time>2021-08-15T12:59:06Z</time>
      </trkpt>
      <trkpt lat="44.10508" lon="2.93254">
        <ele>414.4</ele>
        <time>2021-08-15T12:59:08Z</time>
      </trkpt>
      <trkpt lat="44.10513" lon="2.9325">
        <ele>414.1</ele>
        <time>2021-08-15T12:59:10Z</time>
      </trkpt>
      <trkpt lat="44.10517" lon="2.93246">
        <ele>414</ele>
        <time>2021-08-15T12:59:12Z</time>
      </trkpt>
      <trkpt lat="44.10521" lon="2.93242">
        <ele>413.8</ele>
        <time>2021-08-15T12:59:14Z</time>
      </trkpt>
      <trkpt lat="44.10524" lon="2.93238">
        <ele>413.7</ele>
        <time>2021-08-15T12:59:16Z</time>
      </trkpt>
      <trkpt lat="44.10529" lon="2.93235">
        <ele>413.9</ele>
        <time>2021-08-15T12:59:18Z</time>
      </trkpt>
      <trkpt lat="44.10534" lon="2.93232">
        <ele>413.9</ele>
        <time>2021-08-15T12:59:20Z</time>
      </trkpt>
      <trkpt lat="44.10538" lon="2.93229">
        <ele>414</ele>
        <time>2021-08-15T12:59:22Z</time>
      </trkpt>
      <trkpt lat="44.10542" lon="2.93226">
        <ele>414.1</ele>
        <time>2021-08-15T12:59:24Z</time>
      </trkpt>
      <trkpt lat="44.10546" lon="2.93223">
        <ele>414.3</ele>
        <time>2021-08-15T12:59:26Z</time>
      </trkpt>
      <trkpt lat="44.10551" lon="2.9322">
        <ele>414.4</ele>
        <time>2021-08-15T12:59:28Z</time>
      </trkpt>
      <trkpt lat="44.10555" lon="2.93217">
        <ele>414.7</ele>
        <time>2021-08-15T12:59:30Z</time>
      </trkpt>
      <trkpt lat="44.1056" lon="2.93215">
        <ele>415</ele>
        <time>2021-08-15T12:59:32Z</time>
      </trkpt>
      <trkpt lat="44.10564" lon="2.93213">
        <ele>415.4</ele>
        <time>2021-08-15T12:59:34Z</time>
      </trkpt>
      <trkpt lat="44.10569" lon="2.93211">
        <ele>415.9</ele>
        <time>2021-08-15T12:59:36Z</time>
      </trkpt>
      <trkpt lat="44.10573" lon="2.93209">
        <ele>416.3</ele>
        <time>2021-08-15T12:59:38Z</time>
      </trkpt>
      <trkpt lat="44.10578" lon="2.93207">
        <ele>416.7</ele>
        <time>2021-08-15T12:59:40Z</time>
      </trkpt>
      <trkpt lat="44.10582" lon="2.93206">
        <ele>417.3</ele>
        <time>2021-08-15T12:59:42Z</time>
      </trkpt>
      <trkpt lat="44.10587" lon="2.93205">
        <ele>416.7</ele>
        <time>2021-08-15T12:59:44Z</time>
      </trkpt>
      <trkpt lat="44.10592" lon="2.93203">
        <ele>415.6</ele>
        <time>2021-08-15T12:59:46Z</time>
      </trkpt>
      <trkpt lat="44.10597" lon="2.93205">
        <ele>415.1</ele>
        <time>2021-08-15T12:59:48Z</time>
      </trkpt>
      <trkpt lat="44.10601" lon="2.93207">
        <ele>414.8</ele>
        <time>2021-08-15T12:59:50Z</time>
      </trkpt>
      <trkpt lat="44.10605" lon="2.93209">
        <ele>414.4</ele>
        <time>2021-08-15T12:59:52Z</time>
      </trkpt>
      <trkpt lat="44.10606" lon="2.93208">
        <ele>413.9</ele>
        <time>2021-08-15T12:59:54Z</time>
      </trkpt>
      <trkpt lat="44.10609" lon="2.93207">
        <ele>413.5</ele>
        <time>2021-08-15T12:59:56Z</time>
      </trkpt>
      <trkpt lat="44.10609" lon="2.93207">
        <ele>413.4</ele>
        <time>2021-08-15T12:59:58Z</time>
      </trkpt>
      <trkpt lat="44.10609" lon="2.93207">
        <ele>413.3</ele>
        <time>2021-08-15T13:00:00Z</time>
      </trkpt>
      <trkpt lat="44.10609" lon="2.93207">
        <ele>413.3</ele>
        <time>2021-08-15T13:00:02Z</time>
      </trkpt>
      <trkpt lat="44.10609" lon="2.93235">
        <ele>416.9</ele>
        <time>2021-08-15T13:08:52Z</time>
      </trkpt>
      <trkpt lat="44.1061" lon="2.93243">
        <ele>417.7</ele>
        <time>2021-08-15T13:08:54Z</time>
      </trkpt>
      <trkpt lat="44.1061" lon="2.93251">
        <ele>418.6</ele>
        <time>2021-08-15T13:08:56Z</time>
      </trkpt>
      <trkpt lat="44.1061" lon="2.9326">
        <ele>419.4</ele>
        <time>2021-08-15T13:08:58Z</time>
      </trkpt>
      <trkpt lat="44.1061" lon="2.93269">
        <ele>420.5</ele>
        <time>2021-08-15T13:09:00Z</time>
      </trkpt>
      <trkpt lat="44.10609" lon="2.9328">
        <ele>421.7</ele>
        <time>2021-08-15T13:09:02Z</time>
      </trkpt>
      <trkpt lat="44.10609" lon="2.9329">
        <ele>422.8</ele>
        <time>2021-08-15T13:09:04Z</time>
      </trkpt>
      <trkpt lat="44.10608" lon="2.93301">
        <ele>424.3</ele>
        <time>2021-08-15T13:09:06Z</time>
      </trkpt>
      <trkpt lat="44.10607" lon="2.93312">
        <ele>425.8</ele>
        <time>2021-08-15T13:09:08Z</time>
      </trkpt>
      <trkpt lat="44.10605" lon="2.93323">
        <ele>427.4</ele>
        <time>2021-08-15T13:09:10Z</time>
      </trkpt>
      <trkpt lat="44.10604" lon="2.93336">
        <ele>428.9</ele>
        <time>2021-08-15T13:09:12Z</time>
      </trkpt>
      <trkpt lat="44.10603" lon="2.93348">
        <ele>429.5</ele>
        <time>2021-08-15T13:09:14Z</time>
      </trkpt>
      <trkpt lat="44.10603" lon="2.93361">
        <ele>429.8</ele>
        <time>2021-08-15T13:09:16Z</time>
      </trkpt>
      <trkpt lat="44.10603" lon="2.93374">
        <ele>429.9</ele>
        <time>2021-08-15T13:09:18Z</time>
      </trkpt>
      <trkpt lat="44.10603" lon="2.93387">
        <ele>430</ele>
        <time>2021-08-15T13:09:20Z</time>
      </trkpt>
      <trkpt lat="44.10604" lon="2.93401">
        <ele>429.7</ele>
        <time>2021-08-15T13:09:22Z</time>
      </trkpt>
      <trkpt lat="44.10605" lon="2.93415">
        <ele>429.2</ele>
        <time>2021-08-15T13:09:24Z</time>
      </trkpt>
      <trkpt lat="44.10606" lon="2.9343">
        <ele>429.6</ele>
        <time>2021-08-15T13:09:26Z</time>
      </trkpt>
      <trkpt lat="44.10608" lon="2.93445">
        <ele>429.6</ele>
        <time>2021-08-15T13:09:28Z</time>
      </trkpt>
      <trkpt lat="44.1061" lon="2.93461">
        <ele>429.9</ele>
        <time>2021-08-15T13:09:30Z</time>
      </trkpt>
      <trkpt lat="44.10612" lon="2.93476">
        <ele>429.9</ele>
        <time>2021-08-15T13:09:32Z</time>
      </trkpt>
      <trkpt lat="44.10616" lon="2.93491">
        <ele>428.9</ele>
        <time>2021-08-15T13:09:34Z</time>
      </trkpt>
      <trkpt lat="44.10621" lon="2.93505">
        <ele>428</ele>
        <time>2021-08-15T13:09:36Z</time>
      </trkpt>
      <trkpt lat="44.10626" lon="2.93519">
        <ele>427.2</ele>
        <time>2021-08-15T13:09:38Z</time>
      </trkpt>
      <trkpt lat="44.10631" lon="2.93533">
        <ele>426.6</ele>
        <time>2021-08-15T13:09:40Z</time>
      </trkpt>
      <trkpt lat="44.10636" lon="2.93547">
        <ele>426</ele>
        <time>2021-08-15T13:09:42Z</time>
      </trkpt>
      <trkpt lat="44.10642" lon="2.93561">
        <ele>425.5</ele>
        <time>2021-08-15T13:09:44Z</time>
      </trkpt>
      <trkpt lat="44.10649" lon="2.93575">
        <ele>424.6</ele>
        <time>2021-08-15T13:09:46Z</time>
      </trkpt>
      <trkpt lat="44.10657" lon="2.93587">
        <ele>423.2</ele>
        <time>2021-08-15T13:09:48Z</time>
      </trkpt>
      <trkpt lat="44.10666" lon="2.93598">
        <ele>421.4</ele>
        <time>2021-08-15T13:09:50Z</time>
      </trkpt>
      <trkpt lat="44.10676" lon="2.93609">
        <ele>421.2</ele>
        <time>2021-08-15T13:09:52Z</time>
      </trkpt>
      <trkpt lat="44.10684" lon="2.93623">
        <ele>421.8</ele>
        <time>2021-08-15T13:09:54Z</time>
      </trkpt>
      <trkpt lat="44.10689" lon="2.93639">
        <ele>423.2</ele>
        <time>2021-08-15T13:09:56Z</time>
      </trkpt>
      <trkpt lat="44.10694" lon="2.93656">
        <ele>425.1</ele>
        <time>2021-08-15T13:09:58Z</time>
      </trkpt>
      <trkpt lat="44.10696" lon="2.93675">
        <ele>427.3</ele>
        <time>2021-08-15T13:10:00Z</time>
      </trkpt>
      <trkpt lat="44.10696" lon="2.93693">
        <ele>429.3</ele>
        <time>2021-08-15T13:10:02Z</time>
      </trkpt>
      <trkpt lat="44.10696" lon="2.93713">
        <ele>431.4</ele>
        <time>2021-08-15T13:10:04Z</time>
      </trkpt>
      <trkpt lat="44.10695" lon="2.93732">
        <ele>433.7</ele>
        <time>2021-08-15T13:10:06Z</time>
      </trkpt>
      <trkpt lat="44.10695" lon="2.93751">
        <ele>435.7</ele>
        <time>2021-08-15T13:10:08Z</time>
      </trkpt>
      <trkpt lat="44.10698" lon="2.93767">
        <ele>436.1</ele>
        <time>2021-08-15T13:10:10Z</time>
      </trkpt>
      <trkpt lat="44.10708" lon="2.93777">
        <ele>436.2</ele>
        <time>2021-08-15T13:10:12Z</time>
      </trkpt>
      <trkpt lat="44.1072" lon="2.93772">
        <ele>435.3</ele>
        <time>2021-08-15T13:10:14Z</time>
      </trkpt>
      <trkpt lat="44.10727" lon="2.93761">
        <ele>434</ele>
        <time>2021-08-15T13:10:16Z</time>
      </trkpt>
      <trkpt lat="44.10731" lon="2.93751">
        <ele>432.7</ele>
        <time>2021-08-15T13:10:18Z</time>
      </trkpt>
      <trkpt lat="44.10734" lon="2.93743">
        <ele>431.2</ele>
        <time>2021-08-15T13:10:20Z</time>
      </trkpt>
      <trkpt lat="44.10737" lon="2.93735">
        <ele>429.6</ele>
        <time>2021-08-15T13:10:22Z</time>
      </trkpt>
      <trkpt lat="44.1074" lon="2.93728">
        <ele>428.2</ele>
        <time>2021-08-15T13:10:24Z</time>
      </trkpt>
      <trkpt lat="44.10742" lon="2.93722">
        <ele>426.9</ele>
        <time>2021-08-15T13:10:26Z</time>
      </trkpt>
      <trkpt lat="44.10744" lon="2.93717">
        <ele>425.7</ele>
        <time>2021-08-15T13:10:28Z</time>
      </trkpt>
      <trkpt lat="44.10747" lon="2.93711">
        <ele>424.5</ele>
        <time>2021-08-15T13:10:30Z</time>
      </trkpt>
      <trkpt lat="44.10749" lon="2.93706">
        <ele>423.2</ele>
        <time>2021-08-15T13:10:32Z</time>
      </trkpt>
      <trkpt lat="44.10751" lon="2.93701">
        <ele>422.4</ele>
        <time>2021-08-15T13:10:34Z</time>
      </trkpt>
      <trkpt lat="44.10754" lon="2.93695">
        <ele>421.8</ele>
        <time>2021-08-15T13:10:36Z</time>
      </trkpt>
      <trkpt lat="44.10756" lon="2.9369">
        <ele>421.4</ele>
        <time>2021-08-15T13:10:38Z</time>
      </trkpt>
      <trkpt lat="44.10758" lon="2.93685">
        <ele>420.9</ele>
        <time>2021-08-15T13:10:40Z</time>
      </trkpt>
      <trkpt lat="44.10761" lon="2.9368">
        <ele>420.6</ele>
        <time>2021-08-15T13:10:42Z</time>
      </trkpt>
      <trkpt lat="44.10764" lon="2.93676">
        <ele>420.3</ele>
        <time>2021-08-15T13:10:44Z</time>
      </trkpt>
      <trkpt lat="44.10767" lon="2.93672">
        <ele>420.2</ele>
        <time>2021-08-15T13:10:46Z</time>
      </trkpt>
      <trkpt lat="44.1077" lon="2.93668">
        <ele>420</ele>
        <time>2021-08-15T13:10:48Z</time>
      </trkpt>
      <trkpt lat="44.10773" lon="2.93666">
        <ele>420.4</ele>
        <time>2021-08-15T13:10:50Z</time>
      </trkpt>
      <trkpt lat="44.10777" lon="2.93664">
        <ele>420.7</ele>
        <time>2021-08-15T13:10:52Z</time>
      </trkpt>
      <trkpt lat="44.10781" lon="2.93663">
        <ele>421.1</ele>
        <time>2021-08-15T13:10:54Z</time>
      </trkpt>
      <trkpt lat="44.10784" lon="2.93662">
        <ele>421.6</ele>
        <time>2021-08-15T13:10:56Z</time>
      </trkpt>
      <trkpt lat="44.10788" lon="2.93661">
        <ele>422.1</ele>
        <time>2021-08-15T13:10:58Z</time>
      </trkpt>
      <trkpt lat="44.10792" lon="2.9366">
        <ele>422.6</ele>
        <time>2021-08-15T13:11:00Z</time>
      </trkpt>
      <trkpt lat="44.10796" lon="2.93659">
        <ele>423.2</ele>
        <time>2021-08-15T13:11:02Z</time>
      </trkpt>
      <trkpt lat="44.108" lon="2.93659">
        <ele>423.9</ele>
        <time>2021-08-15T13:11:04Z</time>
      </trkpt>
      <trkpt lat="44.10804" lon="2.93658">
        <ele>424.5</ele>
        <time>2021-08-15T13:11:06Z</time>
      </trkpt>
      <trkpt lat="44.10809" lon="2.93657">
        <ele>424.9</ele>
        <time>2021-08-15T13:11:08Z</time>
      </trkpt>
      <trkpt lat="44.10813" lon="2.93657">
        <ele>425.7</ele>
        <time>2021-08-15T13:11:10Z</time>
      </trkpt>
      <trkpt lat="44.10817" lon="2.93656">
        <ele>426.3</ele>
        <time>2021-08-15T13:11:12Z</time>
      </trkpt>
      <trkpt lat="44.1082" lon="2.93656">
        <ele>426.7</ele>
        <time>2021-08-15T13:11:14Z</time>
      </trkpt>
      <trkpt lat="44.10824" lon="2.93655">
        <ele>427.2</ele>
        <time>2021-08-15T13:11:16Z</time>
      </trkpt>
      <trkpt lat="44.10827" lon="2.93654">
        <ele>427.7</ele>
        <time>2021-08-15T13:11:18Z</time>
      </trkpt>
      <trkpt lat="44.10831" lon="2.93654">
        <ele>428.2</ele>
        <time>2021-08-15T13:11:20Z</time>
      </trkpt>
      <trkpt lat="44.10835" lon="2.93653">
        <ele>428.6</ele>
        <time>2021-08-15T13:11:22Z</time>
      </trkpt>
      <trkpt lat="44.10839" lon="2.93652">
        <ele>429</ele>
        <time>2021-08-15T13:11:24Z</time>
      </trkpt>
      <trkpt lat="44.10842" lon="2.93651">
        <ele>429.4</ele>
        <time>2021-08-15T13:11:26Z</time>
      </trkpt>
      <trkpt lat="44.10845" lon="2.9365">
        <ele>429.5</ele>
        <time>2021-08-15T13:11:28Z</time>
      </trkpt>
      <trkpt lat="44.10849" lon="2.93648">
        <ele>429.7</ele>
        <time>2021-08-15T13:11:30Z</time>
      </trkpt>
      <trkpt lat="44.10852" lon="2.93646">
        <ele>429.8</ele>
        <time>2021-08-15T13:11:32Z</time>
      </trkpt>
      <trkpt lat="44.10855" lon="2.93645">
        <ele>429.9</ele>
        <time>2021-08-15T13:11:34Z</time>
      </trkpt>
      <trkpt lat="44.10858" lon="2.93643">
        <ele>429.9</ele>
        <time>2021-08-15T13:11:36Z</time>
      </trkpt>
      <trkpt lat="44.10861" lon="2.93642">
        <ele>430.2</ele>
        <time>2021-08-15T13:11:38Z</time>
      </trkpt>
      <trkpt lat="44.10865" lon="2.9364">
        <ele>430.2</ele>
        <time>2021-08-15T13:11:40Z</time>
      </trkpt>
      <trkpt lat="44.10868" lon="2.93638">
        <ele>430.3</ele>
        <time>2021-08-15T13:11:42Z</time>
      </trkpt>
      <trkpt lat="44.10871" lon="2.93636">
        <ele>430.4</ele>
        <time>2021-08-15T13:11:44Z</time>
      </trkpt>
      <trkpt lat="44.10874" lon="2.93633">
        <ele>430.2</ele>
        <time>2021-08-15T13:11:46Z</time>
      </trkpt>
      <trkpt lat="44.10878" lon="2.93631">
        <ele>430.4</ele>
        <time>2021-08-15T13:11:48Z</time>
      </trkpt>
      <trkpt lat="44.10881" lon="2.93629">
        <ele>430.4</ele>
        <time>2021-08-15T13:11:50Z</time>
      </trkpt>
      <trkpt lat="44.10884" lon="2.93626">
        <ele>430.1</ele>
        <time>2021-08-15T13:11:52Z</time>
      </trkpt>
      <trkpt lat="44.10887" lon="2.93624">
        <ele>430.1</ele>
        <time>2021-08-15T13:11:54Z</time>
      </trkpt>
      <trkpt lat="44.1089" lon="2.93622">
        <ele>430.2</ele>
        <time>2021-08-15T13:11:56Z</time>
      </trkpt>
      <trkpt lat="44.10894" lon="2.93619">
        <ele>430.1</ele>
        <time>2021-08-15T13:11:58Z</time>
      </trkpt>
      <trkpt lat="44.10897" lon="2.93617">
        <ele>430</ele>
        <time>2021-08-15T13:12:00Z</time>
      </trkpt>
      <trkpt lat="44.10899" lon="2.93614">
        <ele>429.8</ele>
        <time>2021-08-15T13:12:02Z</time>
      </trkpt>
      <trkpt lat="44.10903" lon="2.93612">
        <ele>429.7</ele>
        <time>2021-08-15T13:12:04Z</time>
      </trkpt>
      <trkpt lat="44.10906" lon="2.93609">
        <ele>429.6</ele>
        <time>2021-08-15T13:12:06Z</time>
      </trkpt>
      <trkpt lat="44.10909" lon="2.93607">
        <ele>429.4</ele>
        <time>2021-08-15T13:12:08Z</time>
      </trkpt>
      <trkpt lat="44.10912" lon="2.93604">
        <ele>429.3</ele>
        <time>2021-08-15T13:12:10Z</time>
      </trkpt>
      <trkpt lat="44.10915" lon="2.93601">
        <ele>429.3</ele>
        <time>2021-08-15T13:12:12Z</time>
      </trkpt>
      <trkpt lat="44.10918" lon="2.93598">
        <ele>429.2</ele>
        <time>2021-08-15T13:12:14Z</time>
      </trkpt>
      <trkpt lat="44.10922" lon="2.93596">
        <ele>429.3</ele>
        <time>2021-08-15T13:12:16Z</time>
      </trkpt>
      <trkpt lat="44.10925" lon="2.93593">
        <ele>429.2</ele>
        <time>2021-08-15T13:12:18Z</time>
      </trkpt>
      <trkpt lat="44.10928" lon="2.93589">
        <ele>429.2</ele>
        <time>2021-08-15T13:12:20Z</time>
      </trkpt>
      <trkpt lat="44.10931" lon="2.93587">
        <ele>429.4</ele>
        <time>2021-08-15T13:12:22Z</time>
      </trkpt>
      <trkpt lat="44.10934" lon="2.93584">
        <ele>429.3</ele>
        <time>2021-08-15T13:12:24Z</time>
      </trkpt>
      <trkpt lat="44.10938" lon="2.93581">
        <ele>429.6</ele>
        <time>2021-08-15T13:12:26Z</time>
      </trkpt>
      <trkpt lat="44.1094" lon="2.93579">
        <ele>429.7</ele>
        <time>2021-08-15T13:12:28Z</time>
      </trkpt>
      <trkpt lat="44.10944" lon="2.93576">
        <ele>429.8</ele>
        <time>2021-08-15T13:12:30Z</time>
      </trkpt>
      <trkpt lat="44.10947" lon="2.93573">
        <ele>430</ele>
        <time>2021-08-15T13:12:32Z</time>
      </trkpt>
      <trkpt lat="44.1095" lon="2.9357">
        <ele>430.1</ele>
        <time>2021-08-15T13:12:34Z</time>
      </trkpt>
      <trkpt lat="44.10954" lon="2.93568">
        <ele>430.4</ele>
        <time>2021-08-15T13:12:36Z</time>
      </trkpt>
      <trkpt lat="44.10957" lon="2.93566">
        <ele>430.6</ele>
        <time>2021-08-15T13:12:38Z</time>
      </trkpt>
      <trkpt lat="44.10961" lon="2.93563">
        <ele>430.7</ele>
        <time>2021-08-15T13:12:40Z</time>
      </trkpt>
      <trkpt lat="44.10964" lon="2.93561">
        <ele>430.9</ele>
        <time>2021-08-15T13:12:42Z</time>
      </trkpt>
      <trkpt lat="44.10968" lon="2.93558">
        <ele>431</ele>
        <time>2021-08-15T13:12:44Z</time>
      </trkpt>
      <trkpt lat="44.10972" lon="2.93556">
        <ele>431.3</ele>
        <time>2021-08-15T13:12:46Z</time>
      </trkpt>
      <trkpt lat="44.10975" lon="2.93554">
        <ele>431.3</ele>
        <time>2021-08-15T13:12:48Z</time>
      </trkpt>
      <trkpt lat="44.10979" lon="2.93552">
        <ele>431.7</ele>
        <time>2021-08-15T13:12:50Z</time>
      </trkpt>
      <trkpt lat="44.10983" lon="2.9355">
        <ele>432</ele>
        <time>2021-08-15T13:12:52Z</time>
      </trkpt>
      <trkpt lat="44.10986" lon="2.93549">
        <ele>432.3</ele>
        <time>2021-08-15T13:12:54Z</time>
      </trkpt>
      <trkpt lat="44.1099" lon="2.93547">
        <ele>432.6</ele>
        <time>2021-08-15T13:12:56Z</time>
      </trkpt>
      <trkpt lat="44.10994" lon="2.93545">
        <ele>432.9</ele>
        <time>2021-08-15T13:12:58Z</time>
      </trkpt>
      <trkpt lat="44.10998" lon="2.93544">
        <ele>433.1</ele>
        <time>2021-08-15T13:13:00Z</time>
      </trkpt>
      <trkpt lat="44.11002" lon="2.93542">
        <ele>433.2</ele>
        <time>2021-08-15T13:13:02Z</time>
      </trkpt>
      <trkpt lat="44.11006" lon="2.93542">
        <ele>433.1</ele>
        <time>2021-08-15T13:13:04Z</time>
      </trkpt>
      <trkpt lat="44.1101" lon="2.93542">
        <ele>433.1</ele>
        <time>2021-08-15T13:13:06Z</time>
      </trkpt>
      <trkpt lat="44.11014" lon="2.93541">
        <ele>433</ele>
        <time>2021-08-15T13:13:08Z</time>
      </trkpt>
      <trkpt lat="44.11018" lon="2.93541">
        <ele>433</ele>
        <time>2021-08-15T13:13:10Z</time>
      </trkpt>
      <trkpt lat="44.11022" lon="2.93542">
        <ele>433.2</ele>
        <time>2021-08-15T13:13:12Z</time>
      </trkpt>
      <trkpt lat="44.11026" lon="2.93543">
        <ele>433.5</ele>
        <time>2021-08-15T13:13:14Z</time>
      </trkpt>
      <trkpt lat="44.11029" lon="2.93545">
        <ele>434.2</ele>
        <time>2021-08-15T13:13:16Z</time>
      </trkpt>
      <trkpt lat="44.11033" lon="2.93549">
        <ele>435</ele>
        <time>2021-08-15T13:13:18Z</time>
      </trkpt>
      <trkpt lat="44.11036" lon="2.93553">
        <ele>436.2</ele>
        <time>2021-08-15T13:13:20Z</time>
      </trkpt>
      <trkpt lat="44.11039" lon="2.93558">
        <ele>437.3</ele>
        <time>2021-08-15T13:13:22Z</time>
      </trkpt>
      <trkpt lat="44.11041" lon="2.93562">
        <ele>438.4</ele>
        <time>2021-08-15T13:13:24Z</time>
      </trkpt>
      <trkpt lat="44.11044" lon="2.93567">
        <ele>439.5</ele>
        <time>2021-08-15T13:13:26Z</time>
      </trkpt>
      <trkpt lat="44.11046" lon="2.93572">
        <ele>440.6</ele>
        <time>2021-08-15T13:13:28Z</time>
      </trkpt>
      <trkpt lat="44.11049" lon="2.93577">
        <ele>441.7</ele>
        <time>2021-08-15T13:13:30Z</time>
      </trkpt>
      <trkpt lat="44.11051" lon="2.93581">
        <ele>442.7</ele>
        <time>2021-08-15T13:13:32Z</time>
      </trkpt>
      <trkpt lat="44.11054" lon="2.93586">
        <ele>443.5</ele>
        <time>2021-08-15T13:13:34Z</time>
      </trkpt>
      <trkpt lat="44.11056" lon="2.9359">
        <ele>444.2</ele>
        <time>2021-08-15T13:13:36Z</time>
      </trkpt>
      <trkpt lat="44.11059" lon="2.93595">
        <ele>445.1</ele>
        <time>2021-08-15T13:13:38Z</time>
      </trkpt>
      <trkpt lat="44.11061" lon="2.936">
        <ele>445.8</ele>
        <time>2021-08-15T13:13:40Z</time>
      </trkpt>
      <trkpt lat="44.11064" lon="2.93604">
        <ele>446.5</ele>
        <time>2021-08-15T13:13:42Z</time>
      </trkpt>
      <trkpt lat="44.11067" lon="2.93609">
        <ele>447.3</ele>
        <time>2021-08-15T13:13:44Z</time>
      </trkpt>
      <trkpt lat="44.11071" lon="2.93614">
        <ele>448</ele>
        <time>2021-08-15T13:13:46Z</time>
      </trkpt>
      <trkpt lat="44.11075" lon="2.93618">
        <ele>448.6</ele>
        <time>2021-08-15T13:13:48Z</time>
      </trkpt>
      <trkpt lat="44.11078" lon="2.93622">
        <ele>449.2</ele>
        <time>2021-08-15T13:13:50Z</time>
      </trkpt>
      <trkpt lat="44.11082" lon="2.93626">
        <ele>449.8</ele>
        <time>2021-08-15T13:13:52Z</time>
      </trkpt>
      <trkpt lat="44.11086" lon="2.9363">
        <ele>450.7</ele>
        <time>2021-08-15T13:13:54Z</time>
      </trkpt>
      <trkpt lat="44.1109" lon="2.93633">
        <ele>452</ele>
        <time>2021-08-15T13:13:56Z</time>
      </trkpt>
      <trkpt lat="44.11095" lon="2.93635">
        <ele>453</ele>
        <time>2021-08-15T13:13:58Z</time>
      </trkpt>
      <trkpt lat="44.111" lon="2.93636">
        <ele>453.9</ele>
        <time>2021-08-15T13:14:00Z</time>
      </trkpt>
      <trkpt lat="44.11104" lon="2.93636">
        <ele>454.6</ele>
        <time>2021-08-15T13:14:02Z</time>
      </trkpt>
      <trkpt lat="44.11109" lon="2.93634">
        <ele>455</ele>
        <time>2021-08-15T13:14:04Z</time>
      </trkpt>
      <trkpt lat="44.11114" lon="2.9363">
        <ele>455</ele>
        <time>2021-08-15T13:14:06Z</time>
      </trkpt>
      <trkpt lat="44.11116" lon="2.93626">
        <ele>454.8</ele>
        <time>2021-08-15T13:14:08Z</time>
      </trkpt>
      <trkpt lat="44.11118" lon="2.9362">
        <ele>454</ele>
        <time>2021-08-15T13:14:10Z</time>
      </trkpt>
      <trkpt lat="44.11118" lon="2.93613">
        <ele>453.2</ele>
        <time>2021-08-15T13:14:12Z</time>
      </trkpt>
      <trkpt lat="44.11118" lon="2.93607">
        <ele>452.2</ele>
        <time>2021-08-15T13:14:14Z</time>
      </trkpt>
      <trkpt lat="44.11117" lon="2.93601">
        <ele>451.2</ele>
        <time>2021-08-15T13:14:16Z</time>
      </trkpt>
      <trkpt lat="44.11117" lon="2.93596">
        <ele>450.3</ele>
        <time>2021-08-15T13:14:18Z</time>
      </trkpt>
      <trkpt lat="44.11116" lon="2.93591">
        <ele>449.3</ele>
        <time>2021-08-15T13:14:20Z</time>
      </trkpt>
      <trkpt lat="44.11115" lon="2.93585">
        <ele>448.4</ele>
        <time>2021-08-15T13:14:22Z</time>
      </trkpt>
      <trkpt lat="44.11115" lon="2.9358">
        <ele>447.2</ele>
        <time>2021-08-15T13:14:24Z</time>
      </trkpt>
      <trkpt lat="44.11115" lon="2.93574">
        <ele>445.9</ele>
        <time>2021-08-15T13:14:26Z</time>
      </trkpt>
      <trkpt lat="44.11116" lon="2.93568">
        <ele>444.7</ele>
        <time>2021-08-15T13:14:28Z</time>
      </trkpt>
      <trkpt lat="44.11118" lon="2.93563">
        <ele>443.9</ele>
        <time>2021-08-15T13:14:30Z</time>
      </trkpt>
      <trkpt lat="44.11121" lon="2.93559">
        <ele>443.6</ele>
        <time>2021-08-15T13:14:32Z</time>
      </trkpt>
      <trkpt lat="44.11125" lon="2.93555">
        <ele>443.4</ele>
        <time>2021-08-15T13:14:34Z</time>
      </trkpt>
      <trkpt lat="44.11128" lon="2.93552">
        <ele>443.3</ele>
        <time>2021-08-15T13:14:36Z</time>
      </trkpt>
      <trkpt lat="44.11132" lon="2.9355">
        <ele>443.3</ele>
        <time>2021-08-15T13:14:38Z</time>
      </trkpt>
      <trkpt lat="44.11136" lon="2.93549">
        <ele>443.7</ele>
        <time>2021-08-15T13:14:40Z</time>
      </trkpt>
      <trkpt lat="44.1114" lon="2.93548">
        <ele>444.2</ele>
        <time>2021-08-15T13:14:42Z</time>
      </trkpt>
      <trkpt lat="44.11144" lon="2.93547">
        <ele>444.7</ele>
        <time>2021-08-15T13:14:44Z</time>
      </trkpt>
      <trkpt lat="44.11148" lon="2.93547">
        <ele>445.3</ele>
        <time>2021-08-15T13:14:46Z</time>
      </trkpt>
      <trkpt lat="44.11152" lon="2.93545">
        <ele>445.6</ele>
        <time>2021-08-15T13:14:48Z</time>
      </trkpt>
      <trkpt lat="44.11156" lon="2.93544">
        <ele>446</ele>
        <time>2021-08-15T13:14:50Z</time>
      </trkpt>
      <trkpt lat="44.1116" lon="2.93543">
        <ele>446.2</ele>
        <time>2021-08-15T13:14:52Z</time>
      </trkpt>
      <trkpt lat="44.11164" lon="2.93542">
        <ele>446.6</ele>
        <time>2021-08-15T13:14:54Z</time>
      </trkpt>
      <trkpt lat="44.11168" lon="2.93541">
        <ele>447.1</ele>
        <time>2021-08-15T13:14:56Z</time>
      </trkpt>
      <trkpt lat="44.11172" lon="2.9354">
        <ele>447.6</ele>
        <time>2021-08-15T13:14:58Z</time>
      </trkpt>
      <trkpt lat="44.11176" lon="2.93539">
        <ele>448</ele>
        <time>2021-08-15T13:15:00Z</time>
      </trkpt>
      <trkpt lat="44.1118" lon="2.93538">
        <ele>448.4</ele>
        <time>2021-08-15T13:15:02Z</time>
      </trkpt>
      <trkpt lat="44.11184" lon="2.93538">
        <ele>449.1</ele>
        <time>2021-08-15T13:15:04Z</time>
      </trkpt>
      <trkpt lat="44.11188" lon="2.93537">
        <ele>449.5</ele>
        <time>2021-08-15T13:15:06Z</time>
      </trkpt>
      <trkpt lat="44.11192" lon="2.93536">
        <ele>450</ele>
        <time>2021-08-15T13:15:08Z</time>
      </trkpt>
      <trkpt lat="44.11196" lon="2.93535">
        <ele>450.6</ele>
        <time>2021-08-15T13:15:10Z</time>
      </trkpt>
      <trkpt lat="44.112" lon="2.93534">
        <ele>450.9</ele>
        <time>2021-08-15T13:15:12Z</time>
      </trkpt>
      <trkpt lat="44.11204" lon="2.93533">
        <ele>451.5</ele>
        <time>2021-08-15T13:15:14Z</time>
      </trkpt>
      <trkpt lat="44.11208" lon="2.93532">
        <ele>452</ele>
        <time>2021-08-15T13:15:16Z</time>
      </trkpt>
      <trkpt lat="44.11211" lon="2.93531">
        <ele>452.4</ele>
        <time>2021-08-15T13:15:18Z</time>
      </trkpt>
      <trkpt lat="44.11215" lon="2.9353">
        <ele>452.8</ele>
        <time>2021-08-15T13:15:20Z</time>
      </trkpt>
      <trkpt lat="44.11219" lon="2.93529">
        <ele>453.1</ele>
        <time>2021-08-15T13:15:22Z</time>
      </trkpt>
      <trkpt lat="44.11222" lon="2.93526">
        <ele>453.1</ele>
        <time>2021-08-15T13:15:24Z</time>
      </trkpt>
      <trkpt lat="44.11226" lon="2.93524">
        <ele>453.2</ele>
        <time>2021-08-15T13:15:26Z</time>
      </trkpt>
      <trkpt lat="44.11229" lon="2.93522">
        <ele>453.5</ele>
        <time>2021-08-15T13:15:28Z</time>
      </trkpt>
      <trkpt lat="44.11233" lon="2.93521">
        <ele>453.9</ele>
        <time>2021-08-15T13:15:30Z</time>
      </trkpt>
      <trkpt lat="44.11237" lon="2.93519">
        <ele>454.1</ele>
        <time>2021-08-15T13:15:32Z</time>
      </trkpt>
      <trkpt lat="44.1124" lon="2.93517">
        <ele>454.2</ele>
        <time>2021-08-15T13:15:34Z</time>
      </trkpt>
      <trkpt lat="44.11244" lon="2.93515">
        <ele>454.4</ele>
        <time>2021-08-15T13:15:36Z</time>
      </trkpt>
      <trkpt lat="44.11248" lon="2.93513">
        <ele>454.8</ele>
        <time>2021-08-15T13:15:38Z</time>
      </trkpt>
      <trkpt lat="44.11251" lon="2.93511">
        <ele>454.8</ele>
        <time>2021-08-15T13:15:40Z</time>
      </trkpt>
      <trkpt lat="44.11255" lon="2.93509">
        <ele>454.5</ele>
        <time>2021-08-15T13:15:42Z</time>
      </trkpt>
      <trkpt lat="44.11259" lon="2.93508">
        <ele>454.3</ele>
        <time>2021-08-15T13:15:44Z</time>
      </trkpt>
      <trkpt lat="44.11263" lon="2.93506">
        <ele>454</ele>
        <time>2021-08-15T13:15:46Z</time>
      </trkpt>
      <trkpt lat="44.11267" lon="2.93504">
        <ele>453.8</ele>
        <time>2021-08-15T13:15:48Z</time>
      </trkpt>
      <trkpt lat="44.1127" lon="2.93502">
        <ele>453.4</ele>
        <time>2021-08-15T13:15:50Z</time>
      </trkpt>
      <trkpt lat="44.11274" lon="2.93499">
        <ele>453</ele>
        <time>2021-08-15T13:15:52Z</time>
      </trkpt>
      <trkpt lat="44.11278" lon="2.93497">
        <ele>452.5</ele>
        <time>2021-08-15T13:15:54Z</time>
      </trkpt>
      <trkpt lat="44.11282" lon="2.93496">
        <ele>452.1</ele>
        <time>2021-08-15T13:15:56Z</time>
      </trkpt>
      <trkpt lat="44.11286" lon="2.93494">
        <ele>451.8</ele>
        <time>2021-08-15T13:15:58Z</time>
      </trkpt>
      <trkpt lat="44.1129" lon="2.93493">
        <ele>451.5</ele>
        <time>2021-08-15T13:16:00Z</time>
      </trkpt>
      <trkpt lat="44.11294" lon="2.93492">
        <ele>451.5</ele>
        <time>2021-08-15T13:16:02Z</time>
      </trkpt>
      <trkpt lat="44.11298" lon="2.93492">
        <ele>451.7</ele>
        <time>2021-08-15T13:16:04Z</time>
      </trkpt>
      <trkpt lat="44.11301" lon="2.93492">
        <ele>451.9</ele>
        <time>2021-08-15T13:16:06Z</time>
      </trkpt>
      <trkpt lat="44.11306" lon="2.93493">
        <ele>452.4</ele>
        <time>2021-08-15T13:16:08Z</time>
      </trkpt>
      <trkpt lat="44.1131" lon="2.93494">
        <ele>453</ele>
        <time>2021-08-15T13:16:10Z</time>
      </trkpt>
      <trkpt lat="44.11314" lon="2.93496">
        <ele>453.8</ele>
        <time>2021-08-15T13:16:12Z</time>
      </trkpt>
      <trkpt lat="44.11317" lon="2.93498">
        <ele>454.7</ele>
        <time>2021-08-15T13:16:14Z</time>
      </trkpt>
      <trkpt lat="44.11321" lon="2.935">
        <ele>455.4</ele>
        <time>2021-08-15T13:16:16Z</time>
      </trkpt>
      <trkpt lat="44.11325" lon="2.93503">
        <ele>456.4</ele>
        <time>2021-08-15T13:16:18Z</time>
      </trkpt>
      <trkpt lat="44.11328" lon="2.93506">
        <ele>457.4</ele>
        <time>2021-08-15T13:16:20Z</time>
      </trkpt>
      <trkpt lat="44.11332" lon="2.93508">
        <ele>458.2</ele>
        <time>2021-08-15T13:16:22Z</time>
      </trkpt>
      <trkpt lat="44.11335" lon="2.93511">
        <ele>458.8</ele>
        <time>2021-08-15T13:16:24Z</time>
      </trkpt>
      <trkpt lat="44.11339" lon="2.93514">
        <ele>459.4</ele>
        <time>2021-08-15T13:16:26Z</time>
      </trkpt>
      <trkpt lat="44.11342" lon="2.93517">
        <ele>460</ele>
        <time>2021-08-15T13:16:28Z</time>
      </trkpt>
      <trkpt lat="44.11346" lon="2.93518">
        <ele>460</ele>
        <time>2021-08-15T13:16:30Z</time>
      </trkpt>
      <trkpt lat="44.1135" lon="2.93521">
        <ele>460.5</ele>
        <time>2021-08-15T13:16:32Z</time>
      </trkpt>
      <trkpt lat="44.11353" lon="2.93523">
        <ele>460.8</ele>
        <time>2021-08-15T13:16:34Z</time>
      </trkpt>
      <trkpt lat="44.11357" lon="2.93526">
        <ele>461.4</ele>
        <time>2021-08-15T13:16:36Z</time>
      </trkpt>
      <trkpt lat="44.11361" lon="2.93528">
        <ele>461.7</ele>
        <time>2021-08-15T13:16:38Z</time>
      </trkpt>
      <trkpt lat="44.11364" lon="2.9353">
        <ele>462.2</ele>
        <time>2021-08-15T13:16:40Z</time>
      </trkpt>
      <trkpt lat="44.11368" lon="2.93532">
        <ele>462.4</ele>
        <time>2021-08-15T13:16:42Z</time>
      </trkpt>
      <trkpt lat="44.11372" lon="2.93534">
        <ele>462.9</ele>
        <time>2021-08-15T13:16:44Z</time>
      </trkpt>
      <trkpt lat="44.11375" lon="2.93537">
        <ele>463.4</ele>
        <time>2021-08-15T13:16:46Z</time>
      </trkpt>
      <trkpt lat="44.11379" lon="2.93539">
        <ele>463.8</ele>
        <time>2021-08-15T13:16:48Z</time>
      </trkpt>
      <trkpt lat="44.11383" lon="2.93541">
        <ele>464.3</ele>
        <time>2021-08-15T13:16:50Z</time>
      </trkpt>
      <trkpt lat="44.11387" lon="2.93544">
        <ele>464.9</ele>
        <time>2021-08-15T13:16:52Z</time>
      </trkpt>
      <trkpt lat="44.11391" lon="2.93546">
        <ele>465.5</ele>
        <time>2021-08-15T13:16:54Z</time>
      </trkpt>
      <trkpt lat="44.11395" lon="2.93549">
        <ele>466.1</ele>
        <time>2021-08-15T13:16:56Z</time>
      </trkpt>
      <trkpt lat="44.11398" lon="2.93551">
        <ele>466.9</ele>
        <time>2021-08-15T13:16:58Z</time>
      </trkpt>
      <trkpt lat="44.11402" lon="2.93554">
        <ele>467.6</ele>
        <time>2021-08-15T13:17:00Z</time>
      </trkpt>
      <trkpt lat="44.11405" lon="2.93557">
        <ele>468.4</ele>
        <time>2021-08-15T13:17:02Z</time>
      </trkpt>
      <trkpt lat="44.11409" lon="2.9356">
        <ele>469.1</ele>
        <time>2021-08-15T13:17:04Z</time>
      </trkpt>
      <trkpt lat="44.11413" lon="2.93563">
        <ele>470</ele>
        <time>2021-08-15T13:17:06Z</time>
      </trkpt>
      <trkpt lat="44.11416" lon="2.93565">
        <ele>470.8</ele>
        <time>2021-08-15T13:17:08Z</time>
      </trkpt>
      <trkpt lat="44.1142" lon="2.93568">
        <ele>472.1</ele>
        <time>2021-08-15T13:17:10Z</time>
      </trkpt>
      <trkpt lat="44.11425" lon="2.93568">
        <ele>473.1</ele>
        <time>2021-08-15T13:17:12Z</time>
      </trkpt>
      <trkpt lat="44.11429" lon="2.93568">
        <ele>473.9</ele>
        <time>2021-08-15T13:17:14Z</time>
      </trkpt>
      <trkpt lat="44.11433" lon="2.93567">
        <ele>474.2</ele>
        <time>2021-08-15T13:17:16Z</time>
      </trkpt>
      <trkpt lat="44.11437" lon="2.93566">
        <ele>474.3</ele>
        <time>2021-08-15T13:17:18Z</time>
      </trkpt>
      <trkpt lat="44.11441" lon="2.93563">
        <ele>474</ele>
        <time>2021-08-15T13:17:20Z</time>
      </trkpt>
      <trkpt lat="44.11445" lon="2.9356">
        <ele>473.5</ele>
        <time>2021-08-15T13:17:22Z</time>
      </trkpt>
      <trkpt lat="44.11448" lon="2.93557">
        <ele>473</ele>
        <time>2021-08-15T13:17:24Z</time>
      </trkpt>
      <trkpt lat="44.11452" lon="2.93554">
        <ele>472.3</ele>
        <time>2021-08-15T13:17:26Z</time>
      </trkpt>
      <trkpt lat="44.11455" lon="2.93551">
        <ele>471.7</ele>
        <time>2021-08-15T13:17:28Z</time>
      </trkpt>
      <trkpt lat="44.11459" lon="2.93548">
        <ele>471.1</ele>
        <time>2021-08-15T13:17:30Z</time>
      </trkpt>
      <trkpt lat="44.11462" lon="2.93545">
        <ele>470.4</ele>
        <time>2021-08-15T13:17:32Z</time>
      </trkpt>
      <trkpt lat="44.11466" lon="2.93544">
        <ele>470.5</ele>
        <time>2021-08-15T13:17:34Z</time>
      </trkpt>
      <trkpt lat="44.11469" lon="2.93542">
        <ele>470.1</ele>
        <time>2021-08-15T13:17:36Z</time>
      </trkpt>
      <trkpt lat="44.11473" lon="2.9354">
        <ele>469.9</ele>
        <time>2021-08-15T13:17:38Z</time>
      </trkpt>
      <trkpt lat="44.11477" lon="2.93538">
        <ele>469.6</ele>
        <time>2021-08-15T13:17:40Z</time>
      </trkpt>
      <trkpt lat="44.11481" lon="2.93536">
        <ele>469.6</ele>
        <time>2021-08-15T13:17:42Z</time>
      </trkpt>
      <trkpt lat="44.11485" lon="2.93535">
        <ele>469.6</ele>
        <time>2021-08-15T13:17:44Z</time>
      </trkpt>
      <trkpt lat="44.11489" lon="2.93533">
        <ele>469.3</ele>
        <time>2021-08-15T13:17:46Z</time>
      </trkpt>
      <trkpt lat="44.11493" lon="2.93531">
        <ele>469.3</ele>
        <time>2021-08-15T13:17:48Z</time>
      </trkpt>
      <trkpt lat="44.11497" lon="2.9353">
        <ele>469.4</ele>
        <time>2021-08-15T13:17:50Z</time>
      </trkpt>
      <trkpt lat="44.11501" lon="2.93528">
        <ele>469.1</ele>
        <time>2021-08-15T13:17:52Z</time>
      </trkpt>
      <trkpt lat="44.11505" lon="2.93527">
        <ele>469.7</ele>
        <time>2021-08-15T13:17:54Z</time>
      </trkpt>
      <trkpt lat="44.11509" lon="2.93525">
        <ele>470.2</ele>
        <time>2021-08-15T13:17:56Z</time>
      </trkpt>
      <trkpt lat="44.11514" lon="2.93524">
        <ele>470.7</ele>
        <time>2021-08-15T13:17:58Z</time>
      </trkpt>
      <trkpt lat="44.11517" lon="2.93522">
        <ele>471</ele>
        <time>2021-08-15T13:18:00Z</time>
      </trkpt>
      <trkpt lat="44.11521" lon="2.93519">
        <ele>470.9</ele>
        <time>2021-08-15T13:18:02Z</time>
      </trkpt>
      <trkpt lat="44.11525" lon="2.93517">
        <ele>471.2</ele>
        <time>2021-08-15T13:18:04Z</time>
      </trkpt>
      <trkpt lat="44.11529" lon="2.93516">
        <ele>471.6</ele>
        <time>2021-08-15T13:18:06Z</time>
      </trkpt>
      <trkpt lat="44.11533" lon="2.93514">
        <ele>471.8</ele>
        <time>2021-08-15T13:18:08Z</time>
      </trkpt>
      <trkpt lat="44.11537" lon="2.93512">
        <ele>472.1</ele>
        <time>2021-08-15T13:18:10Z</time>
      </trkpt>
      <trkpt lat="44.11541" lon="2.93509">
        <ele>471.9</ele>
        <time>2021-08-15T13:18:12Z</time>
      </trkpt>
      <trkpt lat="44.11544" lon="2.93506">
        <ele>471.8</ele>
        <time>2021-08-15T13:18:14Z</time>
      </trkpt>
      <trkpt lat="44.11548" lon="2.93504">
        <ele>472.1</ele>
        <time>2021-08-15T13:18:16Z</time>
      </trkpt>
      <trkpt lat="44.11552" lon="2.93501">
        <ele>471.8</ele>
        <time>2021-08-15T13:18:18Z</time>
      </trkpt>
      <trkpt lat="44.11555" lon="2.93498">
        <ele>471.5</ele>
        <time>2021-08-15T13:18:20Z</time>
      </trkpt>
      <trkpt lat="44.11559" lon="2.93495">
        <ele>471.6</ele>
        <time>2021-08-15T13:18:22Z</time>
      </trkpt>
      <trkpt lat="44.11563" lon="2.93492">
        <ele>471.6</ele>
        <time>2021-08-15T13:18:24Z</time>
      </trkpt>
      <trkpt lat="44.11567" lon="2.93487">
        <ele>471</ele>
        <time>2021-08-15T13:18:26Z</time>
      </trkpt>
      <trkpt lat="44.11571" lon="2.93484">
        <ele>470.9</ele>
        <time>2021-08-15T13:18:28Z</time>
      </trkpt>
      <trkpt lat="44.11575" lon="2.93481">
        <ele>470.8</ele>
        <time>2021-08-15T13:18:30Z</time>
      </trkpt>
      <trkpt lat="44.11578" lon="2.93476">
        <ele>470.4</ele>
        <time>2021-08-15T13:18:32Z</time>
      </trkpt>
      <trkpt lat="44.11583" lon="2.93473">
        <ele>470.5</ele>
        <time>2021-08-15T13:18:34Z</time>
      </trkpt>
      <trkpt lat="44.11587" lon="2.93469">
        <ele>469.6</ele>
        <time>2021-08-15T13:18:36Z</time>
      </trkpt>
      <trkpt lat="44.11591" lon="2.93466">
        <ele>468.9</ele>
        <time>2021-08-15T13:18:38Z</time>
      </trkpt>
      <trkpt lat="44.11595" lon="2.93464">
        <ele>468.3</ele>
        <time>2021-08-15T13:18:40Z</time>
      </trkpt>
      <trkpt lat="44.116" lon="2.93461">
        <ele>467.7</ele>
        <time>2021-08-15T13:18:42Z</time>
      </trkpt>
      <trkpt lat="44.11604" lon="2.93459">
        <ele>467.5</ele>
        <time>2021-08-15T13:18:44Z</time>
      </trkpt>
      <trkpt lat="44.11609" lon="2.93458">
        <ele>467.5</ele>
        <time>2021-08-15T13:18:46Z</time>
      </trkpt>
      <trkpt lat="44.11614" lon="2.93456">
        <ele>467.6</ele>
        <time>2021-08-15T13:18:48Z</time>
      </trkpt>
      <trkpt lat="44.11618" lon="2.93456">
        <ele>468</ele>
        <time>2021-08-15T13:18:50Z</time>
      </trkpt>
      <trkpt lat="44.11623" lon="2.93456">
        <ele>468.4</ele>
        <time>2021-08-15T13:18:52Z</time>
      </trkpt>
      <trkpt lat="44.11628" lon="2.93456">
        <ele>468.9</ele>
        <time>2021-08-15T13:18:54Z</time>
      </trkpt>
      <trkpt lat="44.11633" lon="2.93457">
        <ele>469.6</ele>
        <time>2021-08-15T13:18:56Z</time>
      </trkpt>
      <trkpt lat="44.11637" lon="2.93458">
        <ele>470.2</ele>
        <time>2021-08-15T13:18:58Z</time>
      </trkpt>
      <trkpt lat="44.11642" lon="2.9346">
        <ele>471.3</ele>
        <time>2021-08-15T13:19:00Z</time>
      </trkpt>
      <trkpt lat="44.11646" lon="2.93464">
        <ele>472.6</ele>
        <time>2021-08-15T13:19:02Z</time>
      </trkpt>
      <trkpt lat="44.1165" lon="2.93467">
        <ele>473.9</ele>
        <time>2021-08-15T13:19:04Z</time>
      </trkpt>
      <trkpt lat="44.11654" lon="2.9347">
        <ele>475</ele>
        <time>2021-08-15T13:19:06Z</time>
      </trkpt>
      <trkpt lat="44.11658" lon="2.93473">
        <ele>476.1</ele>
        <time>2021-08-15T13:19:08Z</time>
      </trkpt>
      <trkpt lat="44.11661" lon="2.93477">
        <ele>477.5</ele>
        <time>2021-08-15T13:19:10Z</time>
      </trkpt>
      <trkpt lat="44.11665" lon="2.9348">
        <ele>478.6</ele>
        <time>2021-08-15T13:19:12Z</time>
      </trkpt>
      <trkpt lat="44.11669" lon="2.93483">
        <ele>479</ele>
        <time>2021-08-15T13:19:14Z</time>
      </trkpt>
      <trkpt lat="44.11672" lon="2.93487">
        <ele>478.8</ele>
        <time>2021-08-15T13:19:16Z</time>
      </trkpt>
      <trkpt lat="44.11675" lon="2.9349">
        <ele>478.7</ele>
        <time>2021-08-15T13:19:18Z</time>
      </trkpt>
      <trkpt lat="44.11678" lon="2.93494">
        <ele>478.5</ele>
        <time>2021-08-15T13:19:20Z</time>
      </trkpt>
      <trkpt lat="44.11681" lon="2.93498">
        <ele>478.4</ele>
        <time>2021-08-15T13:19:22Z</time>
      </trkpt>
      <trkpt lat="44.11684" lon="2.93502">
        <ele>478.2</ele>
        <time>2021-08-15T13:19:24Z</time>
      </trkpt>
      <trkpt lat="44.11687" lon="2.93506">
        <ele>478.6</ele>
        <time>2021-08-15T13:19:26Z</time>
      </trkpt>
      <trkpt lat="44.1169" lon="2.93511">
        <ele>478.8</ele>
        <time>2021-08-15T13:19:28Z</time>
      </trkpt>
      <trkpt lat="44.11694" lon="2.93515">
        <ele>478.6</ele>
        <time>2021-08-15T13:19:30Z</time>
      </trkpt>
      <trkpt lat="44.11696" lon="2.93519">
        <ele>479</ele>
        <time>2021-08-15T13:19:32Z</time>
      </trkpt>
      <trkpt lat="44.11699" lon="2.93524">
        <ele>479.1</ele>
        <time>2021-08-15T13:19:34Z</time>
      </trkpt>
      <trkpt lat="44.11702" lon="2.93529">
        <ele>479.6</ele>
        <time>2021-08-15T13:19:36Z</time>
      </trkpt>
      <trkpt lat="44.11705" lon="2.93533">
        <ele>479.3</ele>
        <time>2021-08-15T13:19:38Z</time>
      </trkpt>
      <trkpt lat="44.11707" lon="2.93538">
        <ele>480</ele>
        <time>2021-08-15T13:19:40Z</time>
      </trkpt>
      <trkpt lat="44.1171" lon="2.93543">
        <ele>480</ele>
        <time>2021-08-15T13:19:42Z</time>
      </trkpt>
      <trkpt lat="44.11713" lon="2.93547">
        <ele>480.1</ele>
        <time>2021-08-15T13:19:44Z</time>
      </trkpt>
      <trkpt lat="44.11715" lon="2.93552">
        <ele>480.4</ele>
        <time>2021-08-15T13:19:46Z</time>
      </trkpt>
      <trkpt lat="44.11717" lon="2.93557">
        <ele>480.7</ele>
        <time>2021-08-15T13:19:48Z</time>
      </trkpt>
      <trkpt lat="44.1172" lon="2.93561">
        <ele>480.7</ele>
        <time>2021-08-15T13:19:50Z</time>
      </trkpt>
      <trkpt lat="44.11721" lon="2.93566">
        <ele>481.5</ele>
        <time>2021-08-15T13:19:52Z</time>
      </trkpt>
      <trkpt lat="44.11723" lon="2.93572">
        <ele>482.1</ele>
        <time>2021-08-15T13:19:54Z</time>
      </trkpt>
      <trkpt lat="44.11724" lon="2.93577">
        <ele>482.8</ele>
        <time>2021-08-15T13:19:56Z</time>
      </trkpt>
      <trkpt lat="44.11726" lon="2.93582">
        <ele>483.2</ele>
        <time>2021-08-15T13:19:58Z</time>
      </trkpt>
      <trkpt lat="44.11727" lon="2.93587">
        <ele>483.6</ele>
        <time>2021-08-15T13:20:00Z</time>
      </trkpt>
      <trkpt lat="44.11729" lon="2.93592">
        <ele>484.1</ele>
        <time>2021-08-15T13:20:02Z</time>
      </trkpt>
      <trkpt lat="44.1173" lon="2.93598">
        <ele>484.6</ele>
        <time>2021-08-15T13:20:04Z</time>
      </trkpt>
      <trkpt lat="44.11731" lon="2.93604">
        <ele>485.2</ele>
        <time>2021-08-15T13:20:06Z</time>
      </trkpt>
      <trkpt lat="44.11732" lon="2.9361">
        <ele>485.9</ele>
        <time>2021-08-15T13:20:08Z</time>
      </trkpt>
      <trkpt lat="44.11733" lon="2.93615">
        <ele>486.4</ele>
        <time>2021-08-15T13:20:10Z</time>
      </trkpt>
      <trkpt lat="44.11735" lon="2.9362">
        <ele>486.9</ele>
        <time>2021-08-15T13:20:12Z</time>
      </trkpt>
      <trkpt lat="44.11735" lon="2.93626">
        <ele>487.7</ele>
        <time>2021-08-15T13:20:14Z</time>
      </trkpt>
      <trkpt lat="44.11736" lon="2.93632">
        <ele>488.1</ele>
        <time>2021-08-15T13:20:16Z</time>
      </trkpt>
      <trkpt lat="44.11737" lon="2.93638">
        <ele>489</ele>
        <time>2021-08-15T13:20:18Z</time>
      </trkpt>
      <trkpt lat="44.11738" lon="2.93644">
        <ele>489.9</ele>
        <time>2021-08-15T13:20:20Z</time>
      </trkpt>
      <trkpt lat="44.11737" lon="2.9365">
        <ele>491.2</ele>
        <time>2021-08-15T13:20:22Z</time>
      </trkpt>
      <trkpt lat="44.11738" lon="2.93656">
        <ele>492.4</ele>
        <time>2021-08-15T13:20:24Z</time>
      </trkpt>
      <trkpt lat="44.11738" lon="2.93662">
        <ele>493.3</ele>
        <time>2021-08-15T13:20:26Z</time>
      </trkpt>
      <trkpt lat="44.11738" lon="2.93669">
        <ele>494.8</ele>
        <time>2021-08-15T13:20:28Z</time>
      </trkpt>
      <trkpt lat="44.11738" lon="2.93675">
        <ele>495.7</ele>
        <time>2021-08-15T13:20:30Z</time>
      </trkpt>
      <trkpt lat="44.11738" lon="2.93682">
        <ele>497</ele>
        <time>2021-08-15T13:20:32Z</time>
      </trkpt>
      <trkpt lat="44.11738" lon="2.93689">
        <ele>497.9</ele>
        <time>2021-08-15T13:20:34Z</time>
      </trkpt>
      <trkpt lat="44.11738" lon="2.93695">
        <ele>499.2</ele>
        <time>2021-08-15T13:20:36Z</time>
      </trkpt>
      <trkpt lat="44.11737" lon="2.93702">
        <ele>500.6</ele>
        <time>2021-08-15T13:20:38Z</time>
      </trkpt>
      <trkpt lat="44.11738" lon="2.93708">
        <ele>501.5</ele>
        <time>2021-08-15T13:20:40Z</time>
      </trkpt>
      <trkpt lat="44.11738" lon="2.93715">
        <ele>502.2</ele>
        <time>2021-08-15T13:20:42Z</time>
      </trkpt>
      <trkpt lat="44.1174" lon="2.93721">
        <ele>502.3</ele>
        <time>2021-08-15T13:20:44Z</time>
      </trkpt>
      <trkpt lat="44.11743" lon="2.93727">
        <ele>502.3</ele>
        <time>2021-08-15T13:20:46Z</time>
      </trkpt>
      <trkpt lat="44.11745" lon="2.93731">
        <ele>501.8</ele>
        <time>2021-08-15T13:20:48Z</time>
      </trkpt>
      <trkpt lat="44.11749" lon="2.93735">
        <ele>500.6</ele>
        <time>2021-08-15T13:20:50Z</time>
      </trkpt>
      <trkpt lat="44.11753" lon="2.93738">
        <ele>500.3</ele>
        <time>2021-08-15T13:20:52Z</time>
      </trkpt>
      <trkpt lat="44.11757" lon="2.93739">
        <ele>499.9</ele>
        <time>2021-08-15T13:20:54Z</time>
      </trkpt>
      <trkpt lat="44.11761" lon="2.93739">
        <ele>499.4</ele>
        <time>2021-08-15T13:20:56Z</time>
      </trkpt>
      <trkpt lat="44.11764" lon="2.93741">
        <ele>499</ele>
        <time>2021-08-15T13:20:58Z</time>
      </trkpt>
      <trkpt lat="44.11768" lon="2.93741">
        <ele>498.6</ele>
        <time>2021-08-15T13:21:00Z</time>
      </trkpt>
      <trkpt lat="44.11771" lon="2.93741">
        <ele>498.1</ele>
        <time>2021-08-15T13:21:02Z</time>
      </trkpt>
      <trkpt lat="44.11774" lon="2.93741">
        <ele>497.6</ele>
        <time>2021-08-15T13:21:04Z</time>
      </trkpt>
      <trkpt lat="44.11779" lon="2.93742">
        <ele>497</ele>
        <time>2021-08-15T13:21:06Z</time>
      </trkpt>
      <trkpt lat="44.11783" lon="2.93743">
        <ele>496.7</ele>
        <time>2021-08-15T13:21:08Z</time>
      </trkpt>
      <trkpt lat="44.11787" lon="2.93744">
        <ele>496.4</ele>
        <time>2021-08-15T13:21:10Z</time>
      </trkpt>
      <trkpt lat="44.11791" lon="2.93745">
        <ele>496</ele>
        <time>2021-08-15T13:21:12Z</time>
      </trkpt>
      <trkpt lat="44.11794" lon="2.93747">
        <ele>495.8</ele>
        <time>2021-08-15T13:21:14Z</time>
      </trkpt>
      <trkpt lat="44.11798" lon="2.93749">
        <ele>495.8</ele>
        <time>2021-08-15T13:21:16Z</time>
      </trkpt>
      <trkpt lat="44.11802" lon="2.93751">
        <ele>495.6</ele>
        <time>2021-08-15T13:21:18Z</time>
      </trkpt>
      <trkpt lat="44.11806" lon="2.93752">
        <ele>495.4</ele>
        <time>2021-08-15T13:21:20Z</time>
      </trkpt>
      <trkpt lat="44.1181" lon="2.93753">
        <ele>495</ele>
        <time>2021-08-15T13:21:22Z</time>
      </trkpt>
      <trkpt lat="44.11815" lon="2.93755">
        <ele>494.8</ele>
        <time>2021-08-15T13:21:24Z</time>
      </trkpt>
      <trkpt lat="44.11819" lon="2.93756">
        <ele>494.4</ele>
        <time>2021-08-15T13:21:26Z</time>
      </trkpt>
      <trkpt lat="44.11823" lon="2.93758">
        <ele>494.2</ele>
        <time>2021-08-15T13:21:28Z</time>
      </trkpt>
      <trkpt lat="44.11827" lon="2.93759">
        <ele>493.6</ele>
        <time>2021-08-15T13:21:30Z</time>
      </trkpt>
      <trkpt lat="44.11831" lon="2.9376">
        <ele>493.3</ele>
        <time>2021-08-15T13:21:32Z</time>
      </trkpt>
      <trkpt lat="44.11835" lon="2.93762">
        <ele>492.9</ele>
        <time>2021-08-15T13:21:34Z</time>
      </trkpt>
      <trkpt lat="44.11838" lon="2.93763">
        <ele>492.4</ele>
        <time>2021-08-15T13:21:36Z</time>
      </trkpt>
      <trkpt lat="44.11842" lon="2.93766">
        <ele>491.9</ele>
        <time>2021-08-15T13:21:38Z</time>
      </trkpt>
      <trkpt lat="44.11846" lon="2.93768">
        <ele>491.3</ele>
        <time>2021-08-15T13:21:40Z</time>
      </trkpt>
      <trkpt lat="44.11851" lon="2.93769">
        <ele>490.5</ele>
        <time>2021-08-15T13:21:42Z</time>
      </trkpt>
      <trkpt lat="44.11855" lon="2.9377">
        <ele>489.8</ele>
        <time>2021-08-15T13:21:44Z</time>
      </trkpt>
      <trkpt lat="44.11858" lon="2.93773">
        <ele>489.5</ele>
        <time>2021-08-15T13:21:46Z</time>
      </trkpt>
      <trkpt lat="44.11859" lon="2.93773">
        <ele>489.2</ele>
        <time>2021-08-15T13:21:48Z</time>
      </trkpt>
      <trkpt lat="44.1186" lon="2.93773">
        <ele>489</ele>
        <time>2021-08-15T13:21:50Z</time>
      </trkpt>
      <trkpt lat="44.1186" lon="2.93773">
        <ele>489</ele>
        <time>2021-08-15T13:21:52Z</time>
      </trkpt>
      <trkpt lat="44.1186" lon="2.93773">
        <ele>489</ele>
        <time>2021-08-15T13:21:54Z</time>
      </trkpt>
      <trkpt lat="44.11859" lon="2.93773">
        <ele>489.1</ele>
        <time>2021-08-15T13:21:56Z</time>
      </trkpt>
      <trkpt lat="44.11858" lon="2.93789">
        <ele>491.6</ele>
        <time>2021-08-15T13:44:26Z</time>
      </trkpt>
      <trkpt lat="44.11859" lon="2.93793">
        <ele>491.8</ele>
        <time>2021-08-15T13:44:28Z</time>
      </trkpt>
      <trkpt lat="44.11858" lon="2.93798">
        <ele>492.7</ele>
        <time>2021-08-15T13:44:30Z</time>
      </trkpt>
      <trkpt lat="44.11858" lon="2.93803">
        <ele>493.2</ele>
        <time>2021-08-15T13:44:32Z</time>
      </trkpt>
      <trkpt lat="44.11858" lon="2.93808">
        <ele>493.8</ele>
        <time>2021-08-15T13:44:34Z</time>
      </trkpt>
      <trkpt lat="44.11857" lon="2.93812">
        <ele>494.7</ele>
        <time>2021-08-15T13:44:36Z</time>
      </trkpt>
      <trkpt lat="44.11856" lon="2.93817">
        <ele>495.8</ele>
        <time>2021-08-15T13:44:38Z</time>
      </trkpt>
      <trkpt lat="44.11855" lon="2.93822">
        <ele>496.7</ele>
        <time>2021-08-15T13:44:40Z</time>
      </trkpt>
      <trkpt lat="44.11854" lon="2.93827">
        <ele>497.6</ele>
        <time>2021-08-15T13:44:42Z</time>
      </trkpt>
      <trkpt lat="44.11853" lon="2.93832">
        <ele>498.5</ele>
        <time>2021-08-15T13:44:44Z</time>
      </trkpt>
      <trkpt lat="44.11853" lon="2.93836">
        <ele>499.2</ele>
        <time>2021-08-15T13:44:46Z</time>
      </trkpt>
      <trkpt lat="44.11851" lon="2.93841">
        <ele>499.9</ele>
        <time>2021-08-15T13:44:48Z</time>
      </trkpt>
      <trkpt lat="44.1185" lon="2.93846">
        <ele>500.6</ele>
        <time>2021-08-15T13:44:50Z</time>
      </trkpt>
      <trkpt lat="44.11849" lon="2.93851">
        <ele>501.3</ele>
        <time>2021-08-15T13:44:52Z</time>
      </trkpt>
      <trkpt lat="44.11849" lon="2.93856">
        <ele>501.9</ele>
        <time>2021-08-15T13:44:54Z</time>
      </trkpt>
      <trkpt lat="44.11848" lon="2.9386">
        <ele>502.5</ele>
        <time>2021-08-15T13:44:56Z</time>
      </trkpt>
      <trkpt lat="44.11847" lon="2.93865">
        <ele>502.9</ele>
        <time>2021-08-15T13:44:58Z</time>
      </trkpt>
      <trkpt lat="44.11847" lon="2.9387">
        <ele>503.5</ele>
        <time>2021-08-15T13:45:00Z</time>
      </trkpt>
      <trkpt lat="44.11846" lon="2.93875">
        <ele>504.3</ele>
        <time>2021-08-15T13:45:02Z</time>
      </trkpt>
      <trkpt lat="44.11845" lon="2.93881">
        <ele>504.7</ele>
        <time>2021-08-15T13:45:04Z</time>
      </trkpt>
      <trkpt lat="44.11845" lon="2.93886">
        <ele>505.2</ele>
        <time>2021-08-15T13:45:06Z</time>
      </trkpt>
      <trkpt lat="44.11846" lon="2.93893">
        <ele>505.3</ele>
        <time>2021-08-15T13:45:08Z</time>
      </trkpt>
      <trkpt lat="44.11847" lon="2.93898">
        <ele>505.3</ele>
        <time>2021-08-15T13:45:10Z</time>
      </trkpt>
      <trkpt lat="44.11848" lon="2.93903">
        <ele>505.3</ele>
        <time>2021-08-15T13:45:12Z</time>
      </trkpt>
      <trkpt lat="44.11849" lon="2.93907">
        <ele>505</ele>
        <time>2021-08-15T13:45:14Z</time>
      </trkpt>
      <trkpt lat="44.1185" lon="2.93911">
        <ele>504.9</ele>
        <time>2021-08-15T13:45:16Z</time>
      </trkpt>
      <trkpt lat="44.11852" lon="2.93916">
        <ele>504.4</ele>
        <time>2021-08-15T13:45:18Z</time>
      </trkpt>
      <trkpt lat="44.11853" lon="2.9392">
        <ele>504.2</ele>
        <time>2021-08-15T13:45:20Z</time>
      </trkpt>
      <trkpt lat="44.11855" lon="2.93925">
        <ele>503.9</ele>
        <time>2021-08-15T13:45:22Z</time>
      </trkpt>
      <trkpt lat="44.11857" lon="2.93929">
        <ele>503.5</ele>
        <time>2021-08-15T13:45:24Z</time>
      </trkpt>
      <trkpt lat="44.11858" lon="2.93934">
        <ele>503.2</ele>
        <time>2021-08-15T13:45:26Z</time>
      </trkpt>
      <trkpt lat="44.11861" lon="2.93939">
        <ele>502.7</ele>
        <time>2021-08-15T13:45:28Z</time>
      </trkpt>
      <trkpt lat="44.11862" lon="2.93943">
        <ele>502.3</ele>
        <time>2021-08-15T13:45:30Z</time>
      </trkpt>
      <trkpt lat="44.11863" lon="2.93949">
        <ele>502.3</ele>
        <time>2021-08-15T13:45:32Z</time>
      </trkpt>
      <trkpt lat="44.11864" lon="2.93953">
        <ele>502.5</ele>
        <time>2021-08-15T13:45:34Z</time>
      </trkpt>
      <trkpt lat="44.11863" lon="2.93958">
        <ele>503.1</ele>
        <time>2021-08-15T13:45:36Z</time>
      </trkpt>
      <trkpt lat="44.11863" lon="2.93962">
        <ele>503.5</ele>
        <time>2021-08-15T13:45:38Z</time>
      </trkpt>
      <trkpt lat="44.11862" lon="2.93967">
        <ele>504.2</ele>
        <time>2021-08-15T13:45:40Z</time>
      </trkpt>
      <trkpt lat="44.11862" lon="2.93972">
        <ele>504.9</ele>
        <time>2021-08-15T13:45:42Z</time>
      </trkpt>
      <trkpt lat="44.1186" lon="2.93978">
        <ele>505.9</ele>
        <time>2021-08-15T13:45:44Z</time>
      </trkpt>
      <trkpt lat="44.11859" lon="2.93982">
        <ele>506.7</ele>
        <time>2021-08-15T13:45:46Z</time>
      </trkpt>
      <trkpt lat="44.11859" lon="2.93987">
        <ele>507.1</ele>
        <time>2021-08-15T13:45:48Z</time>
      </trkpt>
      <trkpt lat="44.11858" lon="2.93993">
        <ele>508.1</ele>
        <time>2021-08-15T13:45:50Z</time>
      </trkpt>
      <trkpt lat="44.11857" lon="2.93998">
        <ele>509</ele>
        <time>2021-08-15T13:45:52Z</time>
      </trkpt>
      <trkpt lat="44.11856" lon="2.94003">
        <ele>509.3</ele>
        <time>2021-08-15T13:45:54Z</time>
      </trkpt>
      <trkpt lat="44.11855" lon="2.94008">
        <ele>509.7</ele>
        <time>2021-08-15T13:45:56Z</time>
      </trkpt>
      <trkpt lat="44.11854" lon="2.94013">
        <ele>510</ele>
        <time>2021-08-15T13:45:58Z</time>
      </trkpt>
      <trkpt lat="44.11853" lon="2.94018">
        <ele>510.3</ele>
        <time>2021-08-15T13:46:00Z</time>
      </trkpt>
      <trkpt lat="44.11852" lon="2.94023">
        <ele>510.4</ele>
        <time>2021-08-15T13:46:02Z</time>
      </trkpt>
      <trkpt lat="44.11852" lon="2.94028">
        <ele>510.6</ele>
        <time>2021-08-15T13:46:04Z</time>
      </trkpt>
      <trkpt lat="44.11851" lon="2.94033">
        <ele>510.8</ele>
        <time>2021-08-15T13:46:06Z</time>
      </trkpt>
      <trkpt lat="44.1185" lon="2.94038">
        <ele>510.8</ele>
        <time>2021-08-15T13:46:08Z</time>
      </trkpt>
      <trkpt lat="44.1185" lon="2.94043">
        <ele>510.9</ele>
        <time>2021-08-15T13:46:10Z</time>
      </trkpt>
      <trkpt lat="44.11848" lon="2.94048">
        <ele>511.1</ele>
        <time>2021-08-15T13:46:12Z</time>
      </trkpt>
      <trkpt lat="44.11847" lon="2.94053">
        <ele>511.4</ele>
        <time>2021-08-15T13:46:14Z</time>
      </trkpt>
      <trkpt lat="44.11846" lon="2.94058">
        <ele>511.7</ele>
        <time>2021-08-15T13:46:16Z</time>
      </trkpt>
      <trkpt lat="44.11844" lon="2.94063">
        <ele>512</ele>
        <time>2021-08-15T13:46:18Z</time>
      </trkpt>
      <trkpt lat="44.11843" lon="2.94067">
        <ele>512.1</ele>
        <time>2021-08-15T13:46:20Z</time>
      </trkpt>
      <trkpt lat="44.11842" lon="2.94072">
        <ele>512.3</ele>
        <time>2021-08-15T13:46:22Z</time>
      </trkpt>
      <trkpt lat="44.1184" lon="2.94076">
        <ele>512.7</ele>
        <time>2021-08-15T13:46:24Z</time>
      </trkpt>
      <trkpt lat="44.11838" lon="2.9408">
        <ele>513</ele>
        <time>2021-08-15T13:46:26Z</time>
      </trkpt>
      <trkpt lat="44.11836" lon="2.94085">
        <ele>513.2</ele>
        <time>2021-08-15T13:46:28Z</time>
      </trkpt>
      <trkpt lat="44.11834" lon="2.94089">
        <ele>513.4</ele>
        <time>2021-08-15T13:46:30Z</time>
      </trkpt>
      <trkpt lat="44.11832" lon="2.94093">
        <ele>514.1</ele>
        <time>2021-08-15T13:46:32Z</time>
      </trkpt>
      <trkpt lat="44.1183" lon="2.94098">
        <ele>514.9</ele>
        <time>2021-08-15T13:46:34Z</time>
      </trkpt>
      <trkpt lat="44.11828" lon="2.94102">
        <ele>515.4</ele>
        <time>2021-08-15T13:46:36Z</time>
      </trkpt>
      <trkpt lat="44.11826" lon="2.94106">
        <ele>516.3</ele>
        <time>2021-08-15T13:46:38Z</time>
      </trkpt>
      <trkpt lat="44.11824" lon="2.94111">
        <ele>517</ele>
        <time>2021-08-15T13:46:40Z</time>
      </trkpt>
      <trkpt lat="44.11822" lon="2.94115">
        <ele>517.9</ele>
        <time>2021-08-15T13:46:42Z</time>
      </trkpt>
      <trkpt lat="44.1182" lon="2.94119">
        <ele>518.6</ele>
        <time>2021-08-15T13:46:44Z</time>
      </trkpt>
      <trkpt lat="44.11818" lon="2.94122">
        <ele>519.5</ele>
        <time>2021-08-15T13:46:46Z</time>
      </trkpt>
      <trkpt lat="44.11816" lon="2.94127">
        <ele>520.3</ele>
        <time>2021-08-15T13:46:48Z</time>
      </trkpt>
      <trkpt lat="44.11814" lon="2.9413">
        <ele>520.9</ele>
        <time>2021-08-15T13:46:50Z</time>
      </trkpt>
      <trkpt lat="44.11813" lon="2.94134">
        <ele>521.4</ele>
        <time>2021-08-15T13:46:52Z</time>
      </trkpt>
      <trkpt lat="44.1181" lon="2.94138">
        <ele>522.2</ele>
        <time>2021-08-15T13:46:54Z</time>
      </trkpt>
      <trkpt lat="44.11809" lon="2.94142">
        <ele>522.8</ele>
        <time>2021-08-15T13:46:56Z</time>
      </trkpt>
      <trkpt lat="44.11806" lon="2.94146">
        <ele>523.5</ele>
        <time>2021-08-15T13:46:58Z</time>
      </trkpt>
      <trkpt lat="44.11805" lon="2.9415">
        <ele>524</ele>
        <time>2021-08-15T13:47:00Z</time>
      </trkpt>
      <trkpt lat="44.11802" lon="2.94154">
        <ele>525.1</ele>
        <time>2021-08-15T13:47:02Z</time>
      </trkpt>
      <trkpt lat="44.11801" lon="2.94158">
        <ele>525.4</ele>
        <time>2021-08-15T13:47:04Z</time>
      </trkpt>
      <trkpt lat="44.11798" lon="2.94162">
        <ele>526.2</ele>
        <time>2021-08-15T13:47:06Z</time>
      </trkpt>
      <trkpt lat="44.11796" lon="2.94166">
        <ele>527</ele>
        <time>2021-08-15T13:47:08Z</time>
      </trkpt>
      <trkpt lat="44.11794" lon="2.94171">
        <ele>528</ele>
        <time>2021-08-15T13:47:10Z</time>
      </trkpt>
      <trkpt lat="44.11792" lon="2.94175">
        <ele>528.7</ele>
        <time>2021-08-15T13:47:12Z</time>
      </trkpt>
      <trkpt lat="44.11791" lon="2.9418">
        <ele>529.2</ele>
        <time>2021-08-15T13:47:14Z</time>
      </trkpt>
      <trkpt lat="44.11789" lon="2.94185">
        <ele>529.9</ele>
        <time>2021-08-15T13:47:16Z</time>
      </trkpt>
      <trkpt lat="44.11788" lon="2.9419">
        <ele>530.4</ele>
        <time>2021-08-15T13:47:18Z</time>
      </trkpt>
      <trkpt lat="44.11786" lon="2.94195">
        <ele>530.8</ele>
        <time>2021-08-15T13:47:20Z</time>
      </trkpt>
      <trkpt lat="44.11785" lon="2.942">
        <ele>531.2</ele>
        <time>2021-08-15T13:47:22Z</time>
      </trkpt>
      <trkpt lat="44.11784" lon="2.94205">
        <ele>531.3</ele>
        <time>2021-08-15T13:47:24Z</time>
      </trkpt>
      <trkpt lat="44.11783" lon="2.94209">
        <ele>531.7</ele>
        <time>2021-08-15T13:47:26Z</time>
      </trkpt>
      <trkpt lat="44.11783" lon="2.94215">
        <ele>531.6</ele>
        <time>2021-08-15T13:47:28Z</time>
      </trkpt>
      <trkpt lat="44.11783" lon="2.94219">
        <ele>531.3</ele>
        <time>2021-08-15T13:47:30Z</time>
      </trkpt>
      <trkpt lat="44.11782" lon="2.94224">
        <ele>531.6</ele>
        <time>2021-08-15T13:47:32Z</time>
      </trkpt>
      <trkpt lat="44.11781" lon="2.94229">
        <ele>531.6</ele>
        <time>2021-08-15T13:47:34Z</time>
      </trkpt>
      <trkpt lat="44.11781" lon="2.94235">
        <ele>531.6</ele>
        <time>2021-08-15T13:47:36Z</time>
      </trkpt>
      <trkpt lat="44.1178" lon="2.9424">
        <ele>531.7</ele>
        <time>2021-08-15T13:47:38Z</time>
      </trkpt>
      <trkpt lat="44.1178" lon="2.94245">
        <ele>531.5</ele>
        <time>2021-08-15T13:47:40Z</time>
      </trkpt>
      <trkpt lat="44.11779" lon="2.94251">
        <ele>531.7</ele>
        <time>2021-08-15T13:47:42Z</time>
      </trkpt>
      <trkpt lat="44.11778" lon="2.94256">
        <ele>531.8</ele>
        <time>2021-08-15T13:47:44Z</time>
      </trkpt>
      <trkpt lat="44.11778" lon="2.94262">
        <ele>531.7</ele>
        <time>2021-08-15T13:47:46Z</time>
      </trkpt>
      <trkpt lat="44.11777" lon="2.94267">
        <ele>531.8</ele>
        <time>2021-08-15T13:47:48Z</time>
      </trkpt>
      <trkpt lat="44.11777" lon="2.94272">
        <ele>531.8</ele>
        <time>2021-08-15T13:47:50Z</time>
      </trkpt>
      <trkpt lat="44.11776" lon="2.94276">
        <ele>532</ele>
        <time>2021-08-15T13:47:52Z</time>
      </trkpt>
      <trkpt lat="44.11776" lon="2.94281">
        <ele>531.9</ele>
        <time>2021-08-15T13:47:54Z</time>
      </trkpt>
      <trkpt lat="44.11776" lon="2.94286">
        <ele>531.9</ele>
        <time>2021-08-15T13:47:56Z</time>
      </trkpt>
      <trkpt lat="44.11776" lon="2.94292">
        <ele>531.9</ele>
        <time>2021-08-15T13:47:58Z</time>
      </trkpt>
      <trkpt lat="44.11775" lon="2.94297">
        <ele>531.9</ele>
        <time>2021-08-15T13:48:00Z</time>
      </trkpt>
      <trkpt lat="44.11774" lon="2.94303">
        <ele>532</ele>
        <time>2021-08-15T13:48:02Z</time>
      </trkpt>
      <trkpt lat="44.11774" lon="2.94308">
        <ele>531.9</ele>
        <time>2021-08-15T13:48:04Z</time>
      </trkpt>
      <trkpt lat="44.11774" lon="2.94313">
        <ele>531.9</ele>
        <time>2021-08-15T13:48:06Z</time>
      </trkpt>
      <trkpt lat="44.11773" lon="2.94318">
        <ele>531.9</ele>
        <time>2021-08-15T13:48:08Z</time>
      </trkpt>
      <trkpt lat="44.11773" lon="2.94323">
        <ele>531.9</ele>
        <time>2021-08-15T13:48:10Z</time>
      </trkpt>
      <trkpt lat="44.11772" lon="2.94329">
        <ele>531.8</ele>
        <time>2021-08-15T13:48:12Z</time>
      </trkpt>
      <trkpt lat="44.11772" lon="2.94334">
        <ele>531.9</ele>
        <time>2021-08-15T13:48:14Z</time>
      </trkpt>
      <trkpt lat="44.11771" lon="2.94339">
        <ele>532.3</ele>
        <time>2021-08-15T13:48:16Z</time>
      </trkpt>
      <trkpt lat="44.11771" lon="2.94344">
        <ele>532.7</ele>
        <time>2021-08-15T13:48:18Z</time>
      </trkpt>
      <trkpt lat="44.11771" lon="2.94349">
        <ele>533.1</ele>
        <time>2021-08-15T13:48:20Z</time>
      </trkpt>
      <trkpt lat="44.1177" lon="2.94354">
        <ele>533.4</ele>
        <time>2021-08-15T13:48:22Z</time>
      </trkpt>
      <trkpt lat="44.1177" lon="2.9436">
        <ele>533.8</ele>
        <time>2021-08-15T13:48:24Z</time>
      </trkpt>
      <trkpt lat="44.11769" lon="2.94365">
        <ele>534.3</ele>
        <time>2021-08-15T13:48:26Z</time>
      </trkpt>
      <trkpt lat="44.11769" lon="2.94371">
        <ele>534.7</ele>
        <time>2021-08-15T13:48:28Z</time>
      </trkpt>
      <trkpt lat="44.11768" lon="2.94376">
        <ele>535</ele>
        <time>2021-08-15T13:48:30Z</time>
      </trkpt>
      <trkpt lat="44.11768" lon="2.94382">
        <ele>535.4</ele>
        <time>2021-08-15T13:48:32Z</time>
      </trkpt>
      <trkpt lat="44.11767" lon="2.94387">
        <ele>535.8</ele>
        <time>2021-08-15T13:48:34Z</time>
      </trkpt>
      <trkpt lat="44.11766" lon="2.94393">
        <ele>536.1</ele>
        <time>2021-08-15T13:48:36Z</time>
      </trkpt>
      <trkpt lat="44.11766" lon="2.94398">
        <ele>536.4</ele>
        <time>2021-08-15T13:48:38Z</time>
      </trkpt>
      <trkpt lat="44.11765" lon="2.94403">
        <ele>536.7</ele>
        <time>2021-08-15T13:48:40Z</time>
      </trkpt>
      <trkpt lat="44.11764" lon="2.94408">
        <ele>536.9</ele>
        <time>2021-08-15T13:48:42Z</time>
      </trkpt>
      <trkpt lat="44.11763" lon="2.94413">
        <ele>537.2</ele>
        <time>2021-08-15T13:48:44Z</time>
      </trkpt>
      <trkpt lat="44.11762" lon="2.94419">
        <ele>537.5</ele>
        <time>2021-08-15T13:48:46Z</time>
      </trkpt>
      <trkpt lat="44.11762" lon="2.94424">
        <ele>538</ele>
        <time>2021-08-15T13:48:48Z</time>
      </trkpt>
      <trkpt lat="44.11761" lon="2.94429">
        <ele>538.5</ele>
        <time>2021-08-15T13:48:50Z</time>
      </trkpt>
      <trkpt lat="44.1176" lon="2.94434">
        <ele>538.9</ele>
        <time>2021-08-15T13:48:52Z</time>
      </trkpt>
      <trkpt lat="44.1176" lon="2.9444">
        <ele>539.4</ele>
        <time>2021-08-15T13:48:54Z</time>
      </trkpt>
      <trkpt lat="44.11759" lon="2.94445">
        <ele>539.9</ele>
        <time>2021-08-15T13:48:56Z</time>
      </trkpt>
      <trkpt lat="44.11758" lon="2.94451">
        <ele>540.4</ele>
        <time>2021-08-15T13:48:58Z</time>
      </trkpt>
      <trkpt lat="44.11759" lon="2.94456">
        <ele>540.9</ele>
        <time>2021-08-15T13:49:00Z</time>
      </trkpt>
      <trkpt lat="44.11758" lon="2.94461">
        <ele>541.4</ele>
        <time>2021-08-15T13:49:02Z</time>
      </trkpt>
      <trkpt lat="44.11758" lon="2.94467">
        <ele>541.9</ele>
        <time>2021-08-15T13:49:04Z</time>
      </trkpt>
      <trkpt lat="44.1176" lon="2.94472">
        <ele>542.4</ele>
        <time>2021-08-15T13:49:06Z</time>
      </trkpt>
      <trkpt lat="44.11761" lon="2.94477">
        <ele>543.1</ele>
        <time>2021-08-15T13:49:08Z</time>
      </trkpt>
      <trkpt lat="44.11763" lon="2.94481">
        <ele>543.7</ele>
        <time>2021-08-15T13:49:10Z</time>
      </trkpt>
      <trkpt lat="44.11767" lon="2.94483">
        <ele>544.3</ele>
        <time>2021-08-15T13:49:12Z</time>
      </trkpt>
      <trkpt lat="44.11772" lon="2.94482">
        <ele>544.7</ele>
        <time>2021-08-15T13:49:14Z</time>
      </trkpt>
      <trkpt lat="44.11776" lon="2.94479">
        <ele>544.7</ele>
        <time>2021-08-15T13:49:16Z</time>
      </trkpt>
      <trkpt lat="44.11779" lon="2.94475">
        <ele>544.6</ele>
        <time>2021-08-15T13:49:18Z</time>
      </trkpt>
      <trkpt lat="44.11782" lon="2.9447">
        <ele>544.2</ele>
        <time>2021-08-15T13:49:20Z</time>
      </trkpt>
      <trkpt lat="44.11784" lon="2.94465">
        <ele>543.8</ele>
        <time>2021-08-15T13:49:22Z</time>
      </trkpt>
      <trkpt lat="44.11786" lon="2.94459">
        <ele>543.2</ele>
        <time>2021-08-15T13:49:24Z</time>
      </trkpt>
      <trkpt lat="44.11787" lon="2.94454">
        <ele>542.6</ele>
        <time>2021-08-15T13:49:26Z</time>
      </trkpt>
      <trkpt lat="44.11788" lon="2.94448">
        <ele>542</ele>
        <time>2021-08-15T13:49:28Z</time>
      </trkpt>
      <trkpt lat="44.1179" lon="2.94443">
        <ele>541.4</ele>
        <time>2021-08-15T13:49:30Z</time>
      </trkpt>
      <trkpt lat="44.11792" lon="2.94438">
        <ele>540.9</ele>
        <time>2021-08-15T13:49:32Z</time>
      </trkpt>
      <trkpt lat="44.11795" lon="2.94432">
        <ele>540.2</ele>
        <time>2021-08-15T13:49:34Z</time>
      </trkpt>
      <trkpt lat="44.11797" lon="2.94428">
        <ele>539.7</ele>
        <time>2021-08-15T13:49:36Z</time>
      </trkpt>
      <trkpt lat="44.118" lon="2.94423">
        <ele>539.1</ele>
        <time>2021-08-15T13:49:38Z</time>
      </trkpt>
      <trkpt lat="44.11803" lon="2.94419">
        <ele>538.7</ele>
        <time>2021-08-15T13:49:40Z</time>
      </trkpt>
      <trkpt lat="44.11805" lon="2.94415">
        <ele>538</ele>
        <time>2021-08-15T13:49:42Z</time>
      </trkpt>
      <trkpt lat="44.11808" lon="2.94411">
        <ele>537.4</ele>
        <time>2021-08-15T13:49:44Z</time>
      </trkpt>
      <trkpt lat="44.1181" lon="2.94407">
        <ele>536.8</ele>
        <time>2021-08-15T13:49:46Z</time>
      </trkpt>
      <trkpt lat="44.11813" lon="2.94402">
        <ele>536</ele>
        <time>2021-08-15T13:49:48Z</time>
      </trkpt>
      <trkpt lat="44.11815" lon="2.94398">
        <ele>535.2</ele>
        <time>2021-08-15T13:49:50Z</time>
      </trkpt>
      <trkpt lat="44.11818" lon="2.94393">
        <ele>534.2</ele>
        <time>2021-08-15T13:49:52Z</time>
      </trkpt>
      <trkpt lat="44.11821" lon="2.94389">
        <ele>533.4</ele>
        <time>2021-08-15T13:49:54Z</time>
      </trkpt>
      <trkpt lat="44.11824" lon="2.94386">
        <ele>532.5</ele>
        <time>2021-08-15T13:49:56Z</time>
      </trkpt>
      <trkpt lat="44.11827" lon="2.94382">
        <ele>531.6</ele>
        <time>2021-08-15T13:49:58Z</time>
      </trkpt>
      <trkpt lat="44.1183" lon="2.9438">
        <ele>530.8</ele>
        <time>2021-08-15T13:50:00Z</time>
      </trkpt>
      <trkpt lat="44.11834" lon="2.94377">
        <ele>530.1</ele>
        <time>2021-08-15T13:50:02Z</time>
      </trkpt>
      <trkpt lat="44.11837" lon="2.94375">
        <ele>530.8</ele>
        <time>2021-08-15T13:50:04Z</time>
      </trkpt>
      <trkpt lat="44.11841" lon="2.94373">
        <ele>531.7</ele>
        <time>2021-08-15T13:50:06Z</time>
      </trkpt>
      <trkpt lat="44.11846" lon="2.94372">
        <ele>532.8</ele>
        <time>2021-08-15T13:50:08Z</time>
      </trkpt>
      <trkpt lat="44.11849" lon="2.94372">
        <ele>534</ele>
        <time>2021-08-15T13:50:10Z</time>
      </trkpt>
      <trkpt lat="44.11853" lon="2.94371">
        <ele>535</ele>
        <time>2021-08-15T13:50:12Z</time>
      </trkpt>
      <trkpt lat="44.11857" lon="2.9437">
        <ele>536.2</ele>
        <time>2021-08-15T13:50:14Z</time>
      </trkpt>
      <trkpt lat="44.11861" lon="2.9437">
        <ele>537.3</ele>
        <time>2021-08-15T13:50:16Z</time>
      </trkpt>
      <trkpt lat="44.11865" lon="2.94368">
        <ele>538.3</ele>
        <time>2021-08-15T13:50:18Z</time>
      </trkpt>
      <trkpt lat="44.11868" lon="2.94365">
        <ele>538.8</ele>
        <time>2021-08-15T13:50:20Z</time>
      </trkpt>
      <trkpt lat="44.11871" lon="2.94363">
        <ele>539.5</ele>
        <time>2021-08-15T13:50:22Z</time>
      </trkpt>
      <trkpt lat="44.11874" lon="2.9436">
        <ele>539.7</ele>
        <time>2021-08-15T13:50:24Z</time>
      </trkpt>
      <trkpt lat="44.11875" lon="2.94355">
        <ele>539.4</ele>
        <time>2021-08-15T13:50:26Z</time>
      </trkpt>
      <trkpt lat="44.11877" lon="2.94351">
        <ele>539.1</ele>
        <time>2021-08-15T13:50:28Z</time>
      </trkpt>
      <trkpt lat="44.11877" lon="2.94346">
        <ele>538.6</ele>
        <time>2021-08-15T13:50:30Z</time>
      </trkpt>
      <trkpt lat="44.11877" lon="2.94343">
        <ele>537.9</ele>
        <time>2021-08-15T13:50:32Z</time>
      </trkpt>
      <trkpt lat="44.11879" lon="2.94338">
        <ele>537.6</ele>
        <time>2021-08-15T13:50:34Z</time>
      </trkpt>
      <trkpt lat="44.11879" lon="2.94334">
        <ele>536.9</ele>
        <time>2021-08-15T13:50:36Z</time>
      </trkpt>
      <trkpt lat="44.11879" lon="2.94328">
        <ele>536.5</ele>
        <time>2021-08-15T13:50:38Z</time>
      </trkpt>
      <trkpt lat="44.1188" lon="2.94324">
        <ele>536.2</ele>
        <time>2021-08-15T13:50:40Z</time>
      </trkpt>
      <trkpt lat="44.11881" lon="2.9432">
        <ele>535.8</ele>
        <time>2021-08-15T13:50:42Z</time>
      </trkpt>
      <trkpt lat="44.11882" lon="2.94314">
        <ele>535.7</ele>
        <time>2021-08-15T13:50:44Z</time>
      </trkpt>
      <trkpt lat="44.11884" lon="2.9431">
        <ele>535.5</ele>
        <time>2021-08-15T13:50:46Z</time>
      </trkpt>
      <trkpt lat="44.11885" lon="2.94305">
        <ele>535.4</ele>
        <time>2021-08-15T13:50:48Z</time>
      </trkpt>
      <trkpt lat="44.11887" lon="2.94299">
        <ele>535</ele>
        <time>2021-08-15T13:50:50Z</time>
      </trkpt>
      <trkpt lat="44.11888" lon="2.94293">
        <ele>534.8</ele>
        <time>2021-08-15T13:50:52Z</time>
      </trkpt>
      <trkpt lat="44.11891" lon="2.94289">
        <ele>534.8</ele>
        <time>2021-08-15T13:50:54Z</time>
      </trkpt>
      <trkpt lat="44.11893" lon="2.94284">
        <ele>534.8</ele>
        <time>2021-08-15T13:50:56Z</time>
      </trkpt>
      <trkpt lat="44.11896" lon="2.94279">
        <ele>534.9</ele>
        <time>2021-08-15T13:50:58Z</time>
      </trkpt>
      <trkpt lat="44.11899" lon="2.94276">
        <ele>535.3</ele>
        <time>2021-08-15T13:51:00Z</time>
      </trkpt>
      <trkpt lat="44.11902" lon="2.94272">
        <ele>535.7</ele>
        <time>2021-08-15T13:51:02Z</time>
      </trkpt>
      <trkpt lat="44.11906" lon="2.94268">
        <ele>536.1</ele>
        <time>2021-08-15T13:51:04Z</time>
      </trkpt>
      <trkpt lat="44.11909" lon="2.94265">
        <ele>536.7</ele>
        <time>2021-08-15T13:51:06Z</time>
      </trkpt>
      <trkpt lat="44.11913" lon="2.94262">
        <ele>537.1</ele>
        <time>2021-08-15T13:51:08Z</time>
      </trkpt>
      <trkpt lat="44.11916" lon="2.9426">
        <ele>537.7</ele>
        <time>2021-08-15T13:51:10Z</time>
      </trkpt>
      <trkpt lat="44.1192" lon="2.94257">
        <ele>538</ele>
        <time>2021-08-15T13:51:12Z</time>
      </trkpt>
      <trkpt lat="44.11924" lon="2.94255">
        <ele>538.3</ele>
        <time>2021-08-15T13:51:14Z</time>
      </trkpt>
      <trkpt lat="44.11928" lon="2.94252">
        <ele>538.7</ele>
        <time>2021-08-15T13:51:16Z</time>
      </trkpt>
      <trkpt lat="44.11932" lon="2.94251">
        <ele>539.1</ele>
        <time>2021-08-15T13:51:18Z</time>
      </trkpt>
      <trkpt lat="44.11936" lon="2.94249">
        <ele>539.3</ele>
        <time>2021-08-15T13:51:20Z</time>
      </trkpt>
      <trkpt lat="44.1194" lon="2.94247">
        <ele>539.4</ele>
        <time>2021-08-15T13:51:22Z</time>
      </trkpt>
      <trkpt lat="44.11943" lon="2.94245">
        <ele>539.7</ele>
        <time>2021-08-15T13:51:24Z</time>
      </trkpt>
      <trkpt lat="44.11947" lon="2.94244">
        <ele>540.2</ele>
        <time>2021-08-15T13:51:26Z</time>
      </trkpt>
      <trkpt lat="44.11951" lon="2.94243">
        <ele>540.6</ele>
        <time>2021-08-15T13:51:28Z</time>
      </trkpt>
      <trkpt lat="44.11955" lon="2.94242">
        <ele>541</ele>
        <time>2021-08-15T13:51:30Z</time>
      </trkpt>
      <trkpt lat="44.11959" lon="2.9424">
        <ele>541.4</ele>
        <time>2021-08-15T13:51:32Z</time>
      </trkpt>
      <trkpt lat="44.11962" lon="2.94239">
        <ele>541.7</ele>
        <time>2021-08-15T13:51:34Z</time>
      </trkpt>
      <trkpt lat="44.11966" lon="2.94237">
        <ele>542.1</ele>
        <time>2021-08-15T13:51:36Z</time>
      </trkpt>
      <trkpt lat="44.1197" lon="2.94235">
        <ele>542.4</ele>
        <time>2021-08-15T13:51:38Z</time>
      </trkpt>
      <trkpt lat="44.11974" lon="2.94232">
        <ele>542.5</ele>
        <time>2021-08-15T13:51:40Z</time>
      </trkpt>
      <trkpt lat="44.11977" lon="2.9423">
        <ele>542.5</ele>
        <time>2021-08-15T13:51:42Z</time>
      </trkpt>
      <trkpt lat="44.11981" lon="2.94226">
        <ele>542.3</ele>
        <time>2021-08-15T13:51:44Z</time>
      </trkpt>
      <trkpt lat="44.11984" lon="2.94223">
        <ele>542.1</ele>
        <time>2021-08-15T13:51:46Z</time>
      </trkpt>
      <trkpt lat="44.11987" lon="2.94219">
        <ele>541.9</ele>
        <time>2021-08-15T13:51:48Z</time>
      </trkpt>
      <trkpt lat="44.1199" lon="2.94215">
        <ele>541.7</ele>
        <time>2021-08-15T13:51:50Z</time>
      </trkpt>
      <trkpt lat="44.11993" lon="2.94212">
        <ele>541.6</ele>
        <time>2021-08-15T13:51:52Z</time>
      </trkpt>
      <trkpt lat="44.11996" lon="2.94208">
        <ele>541.4</ele>
        <time>2021-08-15T13:51:54Z</time>
      </trkpt>
      <trkpt lat="44.11999" lon="2.94204">
        <ele>541.3</ele>
        <time>2021-08-15T13:51:56Z</time>
      </trkpt>
      <trkpt lat="44.12003" lon="2.942">
        <ele>541.3</ele>
        <time>2021-08-15T13:51:58Z</time>
      </trkpt>
      <trkpt lat="44.12006" lon="2.94196">
        <ele>541.2</ele>
        <time>2021-08-15T13:52:00Z</time>
      </trkpt>
      <trkpt lat="44.12009" lon="2.94193">
        <ele>541.2</ele>
        <time>2021-08-15T13:52:02Z</time>
      </trkpt>
      <trkpt lat="44.12012" lon="2.94189">
        <ele>541.1</ele>
        <time>2021-08-15T13:52:04Z</time>
      </trkpt>
      <trkpt lat="44.12015" lon="2.94185">
        <ele>541.2</ele>
        <time>2021-08-15T13:52:06Z</time>
      </trkpt>
      <trkpt lat="44.12018" lon="2.94182">
        <ele>541.1</ele>
        <time>2021-08-15T13:52:08Z</time>
      </trkpt>
      <trkpt lat="44.12021" lon="2.94179">
        <ele>541.2</ele>
        <time>2021-08-15T13:52:10Z</time>
      </trkpt>
      <trkpt lat="44.12024" lon="2.94175">
        <ele>541.1</ele>
        <time>2021-08-15T13:52:12Z</time>
      </trkpt>
      <trkpt lat="44.12027" lon="2.94171">
        <ele>541.1</ele>
        <time>2021-08-15T13:52:14Z</time>
      </trkpt>
      <trkpt lat="44.1203" lon="2.94168">
        <ele>541.1</ele>
        <time>2021-08-15T13:52:16Z</time>
      </trkpt>
      <trkpt lat="44.12033" lon="2.94164">
        <ele>541.2</ele>
        <time>2021-08-15T13:52:18Z</time>
      </trkpt>
      <trkpt lat="44.12036" lon="2.94161">
        <ele>541.3</ele>
        <time>2021-08-15T13:52:20Z</time>
      </trkpt>
      <trkpt lat="44.12039" lon="2.94157">
        <ele>541.3</ele>
        <time>2021-08-15T13:52:22Z</time>
      </trkpt>
      <trkpt lat="44.12042" lon="2.94154">
        <ele>541.5</ele>
        <time>2021-08-15T13:52:24Z</time>
      </trkpt>
      <trkpt lat="44.12046" lon="2.94151">
        <ele>541.8</ele>
        <time>2021-08-15T13:52:26Z</time>
      </trkpt>
      <trkpt lat="44.12049" lon="2.94149">
        <ele>542.3</ele>
        <time>2021-08-15T13:52:28Z</time>
      </trkpt>
      <trkpt lat="44.12053" lon="2.94147">
        <ele>543</ele>
        <time>2021-08-15T13:52:30Z</time>
      </trkpt>
      <trkpt lat="44.12058" lon="2.94145">
        <ele>543.8</ele>
        <time>2021-08-15T13:52:32Z</time>
      </trkpt>
      <trkpt lat="44.12061" lon="2.94144">
        <ele>544.5</ele>
        <time>2021-08-15T13:52:34Z</time>
      </trkpt>
      <trkpt lat="44.12066" lon="2.94144">
        <ele>545.6</ele>
        <time>2021-08-15T13:52:36Z</time>
      </trkpt>
      <trkpt lat="44.1207" lon="2.94142">
        <ele>546.4</ele>
        <time>2021-08-15T13:52:38Z</time>
      </trkpt>
      <trkpt lat="44.12073" lon="2.94141">
        <ele>547.2</ele>
        <time>2021-08-15T13:52:40Z</time>
      </trkpt>
      <trkpt lat="44.12078" lon="2.9414">
        <ele>548.1</ele>
        <time>2021-08-15T13:52:42Z</time>
      </trkpt>
      <trkpt lat="44.12082" lon="2.94139">
        <ele>549</ele>
        <time>2021-08-15T13:52:44Z</time>
      </trkpt>
      <trkpt lat="44.12086" lon="2.94137">
        <ele>549.5</ele>
        <time>2021-08-15T13:52:46Z</time>
      </trkpt>
      <trkpt lat="44.1209" lon="2.94135">
        <ele>550</ele>
        <time>2021-08-15T13:52:48Z</time>
      </trkpt>
      <trkpt lat="44.12093" lon="2.94132">
        <ele>550.4</ele>
        <time>2021-08-15T13:52:50Z</time>
      </trkpt>
      <trkpt lat="44.12097" lon="2.9413">
        <ele>550.7</ele>
        <time>2021-08-15T13:52:52Z</time>
      </trkpt>
      <trkpt lat="44.12101" lon="2.94126">
        <ele>550.8</ele>
        <time>2021-08-15T13:52:54Z</time>
      </trkpt>
      <trkpt lat="44.12104" lon="2.94122">
        <ele>550.9</ele>
        <time>2021-08-15T13:52:56Z</time>
      </trkpt>
      <trkpt lat="44.12107" lon="2.94118">
        <ele>550.9</ele>
        <time>2021-08-15T13:52:58Z</time>
      </trkpt>
      <trkpt lat="44.12109" lon="2.94112">
        <ele>550.5</ele>
        <time>2021-08-15T13:53:00Z</time>
      </trkpt>
      <trkpt lat="44.12112" lon="2.94107">
        <ele>550.4</ele>
        <time>2021-08-15T13:53:02Z</time>
      </trkpt>
      <trkpt lat="44.12115" lon="2.94102">
        <ele>550.3</ele>
        <time>2021-08-15T13:53:04Z</time>
      </trkpt>
      <trkpt lat="44.12118" lon="2.94097">
        <ele>550.2</ele>
        <time>2021-08-15T13:53:06Z</time>
      </trkpt>
      <trkpt lat="44.1212" lon="2.94092">
        <ele>550</ele>
        <time>2021-08-15T13:53:08Z</time>
      </trkpt>
      <trkpt lat="44.12123" lon="2.94088">
        <ele>550.1</ele>
        <time>2021-08-15T13:53:10Z</time>
      </trkpt>
      <trkpt lat="44.12125" lon="2.94083">
        <ele>550</ele>
        <time>2021-08-15T13:53:12Z</time>
      </trkpt>
      <trkpt lat="44.12127" lon="2.94079">
        <ele>549.9</ele>
        <time>2021-08-15T13:53:14Z</time>
      </trkpt>
      <trkpt lat="44.12129" lon="2.94075">
        <ele>549.9</ele>
        <time>2021-08-15T13:53:16Z</time>
      </trkpt>
      <trkpt lat="44.12132" lon="2.94071">
        <ele>549.7</ele>
        <time>2021-08-15T13:53:18Z</time>
      </trkpt>
      <trkpt lat="44.12134" lon="2.94066">
        <ele>549.6</ele>
        <time>2021-08-15T13:53:20Z</time>
      </trkpt>
      <trkpt lat="44.12136" lon="2.94062">
        <ele>549.7</ele>
        <time>2021-08-15T13:53:22Z</time>
      </trkpt>
      <trkpt lat="44.12139" lon="2.94058">
        <ele>549.8</ele>
        <time>2021-08-15T13:53:24Z</time>
      </trkpt>
      <trkpt lat="44.12142" lon="2.94053">
        <ele>549.8</ele>
        <time>2021-08-15T13:53:26Z</time>
      </trkpt>
      <trkpt lat="44.12144" lon="2.94049">
        <ele>549.8</ele>
        <time>2021-08-15T13:53:28Z</time>
      </trkpt>
      <trkpt lat="44.12146" lon="2.94045">
        <ele>549.8</ele>
        <time>2021-08-15T13:53:30Z</time>
      </trkpt>
      <trkpt lat="44.12149" lon="2.9404">
        <ele>549.8</ele>
        <time>2021-08-15T13:53:32Z</time>
      </trkpt>
      <trkpt lat="44.12151" lon="2.94036">
        <ele>549.8</ele>
        <time>2021-08-15T13:53:34Z</time>
      </trkpt>
      <trkpt lat="44.12154" lon="2.94032">
        <ele>549.9</ele>
        <time>2021-08-15T13:53:36Z</time>
      </trkpt>
      <trkpt lat="44.12156" lon="2.94027">
        <ele>549.8</ele>
        <time>2021-08-15T13:53:38Z</time>
      </trkpt>
      <trkpt lat="44.12158" lon="2.94023">
        <ele>550.1</ele>
        <time>2021-08-15T13:53:40Z</time>
      </trkpt>
      <trkpt lat="44.12161" lon="2.94019">
        <ele>550.2</ele>
        <time>2021-08-15T13:53:42Z</time>
      </trkpt>
      <trkpt lat="44.12164" lon="2.94015">
        <ele>550.3</ele>
        <time>2021-08-15T13:53:44Z</time>
      </trkpt>
      <trkpt lat="44.12166" lon="2.94011">
        <ele>550.5</ele>
        <time>2021-08-15T13:53:46Z</time>
      </trkpt>
      <trkpt lat="44.12169" lon="2.94007">
        <ele>550</ele>
        <time>2021-08-15T13:53:48Z</time>
      </trkpt>
      <trkpt lat="44.12172" lon="2.94003">
        <ele>549.4</ele>
        <time>2021-08-15T13:53:50Z</time>
      </trkpt>
      <trkpt lat="44.12175" lon="2.93999">
        <ele>548.7</ele>
        <time>2021-08-15T13:53:52Z</time>
      </trkpt>
      <trkpt lat="44.12178" lon="2.93995">
        <ele>548</ele>
        <time>2021-08-15T13:53:54Z</time>
      </trkpt>
      <trkpt lat="44.12181" lon="2.93992">
        <ele>547.4</ele>
        <time>2021-08-15T13:53:56Z</time>
      </trkpt>
      <trkpt lat="44.12184" lon="2.93989">
        <ele>546.7</ele>
        <time>2021-08-15T13:53:58Z</time>
      </trkpt>
      <trkpt lat="44.12187" lon="2.93987">
        <ele>546.2</ele>
        <time>2021-08-15T13:54:00Z</time>
      </trkpt>
      <trkpt lat="44.12191" lon="2.93984">
        <ele>545.7</ele>
        <time>2021-08-15T13:54:02Z</time>
      </trkpt>
      <trkpt lat="44.12194" lon="2.93982">
        <ele>545.3</ele>
        <time>2021-08-15T13:54:04Z</time>
      </trkpt>
      <trkpt lat="44.12198" lon="2.93979">
        <ele>544.7</ele>
        <time>2021-08-15T13:54:06Z</time>
      </trkpt>
      <trkpt lat="44.12201" lon="2.93976">
        <ele>544.1</ele>
        <time>2021-08-15T13:54:08Z</time>
      </trkpt>
      <trkpt lat="44.12204" lon="2.93974">
        <ele>543.7</ele>
        <time>2021-08-15T13:54:10Z</time>
      </trkpt>
      <trkpt lat="44.12207" lon="2.93971">
        <ele>543.2</ele>
        <time>2021-08-15T13:54:12Z</time>
      </trkpt>
      <trkpt lat="44.1221" lon="2.93969">
        <ele>542.7</ele>
        <time>2021-08-15T13:54:14Z</time>
      </trkpt>
      <trkpt lat="44.12214" lon="2.93967">
        <ele>542.4</ele>
        <time>2021-08-15T13:54:16Z</time>
      </trkpt>
      <trkpt lat="44.12217" lon="2.93966">
        <ele>542.2</ele>
        <time>2021-08-15T13:54:18Z</time>
      </trkpt>
      <trkpt lat="44.12222" lon="2.93966">
        <ele>542.1</ele>
        <time>2021-08-15T13:54:20Z</time>
      </trkpt>
      <trkpt lat="44.12225" lon="2.93969">
        <ele>542.5</ele>
        <time>2021-08-15T13:54:22Z</time>
      </trkpt>
      <trkpt lat="44.12229" lon="2.93971">
        <ele>543</ele>
        <time>2021-08-15T13:54:24Z</time>
      </trkpt>
      <trkpt lat="44.12232" lon="2.93976">
        <ele>543.8</ele>
        <time>2021-08-15T13:54:26Z</time>
      </trkpt>
      <trkpt lat="44.12234" lon="2.93981">
        <ele>544.7</ele>
        <time>2021-08-15T13:54:28Z</time>
      </trkpt>
      <trkpt lat="44.12236" lon="2.93986">
        <ele>545.6</ele>
        <time>2021-08-15T13:54:30Z</time>
      </trkpt>
      <trkpt lat="44.12237" lon="2.93992">
        <ele>546.7</ele>
        <time>2021-08-15T13:54:32Z</time>
      </trkpt>
      <trkpt lat="44.12237" lon="2.93998">
        <ele>547.8</ele>
        <time>2021-08-15T13:54:34Z</time>
      </trkpt>
      <trkpt lat="44.12238" lon="2.94004">
        <ele>548</ele>
        <time>2021-08-15T13:54:36Z</time>
      </trkpt>
      <trkpt lat="44.12238" lon="2.94009">
        <ele>547.7</ele>
        <time>2021-08-15T13:54:38Z</time>
      </trkpt>
      <trkpt lat="44.12237" lon="2.94015">
        <ele>547.5</ele>
        <time>2021-08-15T13:54:40Z</time>
      </trkpt>
      <trkpt lat="44.12235" lon="2.94021">
        <ele>547.3</ele>
        <time>2021-08-15T13:54:42Z</time>
      </trkpt>
      <trkpt lat="44.12234" lon="2.94026">
        <ele>547.2</ele>
        <time>2021-08-15T13:54:44Z</time>
      </trkpt>
      <trkpt lat="44.12232" lon="2.94031">
        <ele>547.2</ele>
        <time>2021-08-15T13:54:46Z</time>
      </trkpt>
      <trkpt lat="44.12232" lon="2.94036">
        <ele>547.1</ele>
        <time>2021-08-15T13:54:48Z</time>
      </trkpt>
      <trkpt lat="44.1223" lon="2.94042">
        <ele>547.1</ele>
        <time>2021-08-15T13:54:50Z</time>
      </trkpt>
      <trkpt lat="44.12228" lon="2.94047">
        <ele>547.3</ele>
        <time>2021-08-15T13:54:52Z</time>
      </trkpt>
      <trkpt lat="44.12226" lon="2.94052">
        <ele>547.5</ele>
        <time>2021-08-15T13:54:54Z</time>
      </trkpt>
      <trkpt lat="44.12224" lon="2.94058">
        <ele>547.8</ele>
        <time>2021-08-15T13:54:56Z</time>
      </trkpt>
      <trkpt lat="44.12222" lon="2.94064">
        <ele>548.1</ele>
        <time>2021-08-15T13:54:58Z</time>
      </trkpt>
      <trkpt lat="44.12221" lon="2.94071">
        <ele>548.4</ele>
        <time>2021-08-15T13:55:00Z</time>
      </trkpt>
      <trkpt lat="44.12219" lon="2.94077">
        <ele>548.8</ele>
        <time>2021-08-15T13:55:02Z</time>
      </trkpt>
      <trkpt lat="44.12217" lon="2.94083">
        <ele>549.2</ele>
        <time>2021-08-15T13:55:04Z</time>
      </trkpt>
      <trkpt lat="44.12216" lon="2.94088">
        <ele>549.3</ele>
        <time>2021-08-15T13:55:06Z</time>
      </trkpt>
      <trkpt lat="44.12214" lon="2.94094">
        <ele>549.6</ele>
        <time>2021-08-15T13:55:08Z</time>
      </trkpt>
      <trkpt lat="44.12212" lon="2.941">
        <ele>549.9</ele>
        <time>2021-08-15T13:55:10Z</time>
      </trkpt>
      <trkpt lat="44.12211" lon="2.94106">
        <ele>550.2</ele>
        <time>2021-08-15T13:55:12Z</time>
      </trkpt>
      <trkpt lat="44.12209" lon="2.94112">
        <ele>550.6</ele>
        <time>2021-08-15T13:55:14Z</time>
      </trkpt>
      <trkpt lat="44.12207" lon="2.94118">
        <ele>551.1</ele>
        <time>2021-08-15T13:55:16Z</time>
      </trkpt>
      <trkpt lat="44.12205" lon="2.94124">
        <ele>551.8</ele>
        <time>2021-08-15T13:55:18Z</time>
      </trkpt>
      <trkpt lat="44.12203" lon="2.9413">
        <ele>552.4</ele>
        <time>2021-08-15T13:55:20Z</time>
      </trkpt>
      <trkpt lat="44.12201" lon="2.94137">
        <ele>553.1</ele>
        <time>2021-08-15T13:55:22Z</time>
      </trkpt>
      <trkpt lat="44.122" lon="2.94143">
        <ele>553.9</ele>
        <time>2021-08-15T13:55:24Z</time>
      </trkpt>
      <trkpt lat="44.12198" lon="2.94149">
        <ele>554.7</ele>
        <time>2021-08-15T13:55:26Z</time>
      </trkpt>
      <trkpt lat="44.12196" lon="2.94155">
        <ele>555.6</ele>
        <time>2021-08-15T13:55:28Z</time>
      </trkpt>
      <trkpt lat="44.12195" lon="2.94161">
        <ele>556.4</ele>
        <time>2021-08-15T13:55:30Z</time>
      </trkpt>
      <trkpt lat="44.12193" lon="2.94168">
        <ele>557.4</ele>
        <time>2021-08-15T13:55:32Z</time>
      </trkpt>
      <trkpt lat="44.12192" lon="2.94174">
        <ele>558.5</ele>
        <time>2021-08-15T13:55:34Z</time>
      </trkpt>
      <trkpt lat="44.12192" lon="2.9418">
        <ele>559.2</ele>
        <time>2021-08-15T13:55:36Z</time>
      </trkpt>
      <trkpt lat="44.12191" lon="2.94186">
        <ele>560.2</ele>
        <time>2021-08-15T13:55:38Z</time>
      </trkpt>
      <trkpt lat="44.12191" lon="2.94193">
        <ele>560.9</ele>
        <time>2021-08-15T13:55:40Z</time>
      </trkpt>
      <trkpt lat="44.12191" lon="2.94199">
        <ele>561.5</ele>
        <time>2021-08-15T13:55:42Z</time>
      </trkpt>
      <trkpt lat="44.12192" lon="2.94206">
        <ele>561.8</ele>
        <time>2021-08-15T13:55:44Z</time>
      </trkpt>
      <trkpt lat="44.12192" lon="2.94213">
        <ele>562.7</ele>
        <time>2021-08-15T13:55:46Z</time>
      </trkpt>
      <trkpt lat="44.12192" lon="2.9422">
        <ele>563</ele>
        <time>2021-08-15T13:55:48Z</time>
      </trkpt>
      <trkpt lat="44.12193" lon="2.94226">
        <ele>563.6</ele>
        <time>2021-08-15T13:55:50Z</time>
      </trkpt>
      <trkpt lat="44.12193" lon="2.94233">
        <ele>563.8</ele>
        <time>2021-08-15T13:55:52Z</time>
      </trkpt>
      <trkpt lat="44.12194" lon="2.94241">
        <ele>564.2</ele>
        <time>2021-08-15T13:55:54Z</time>
      </trkpt>
      <trkpt lat="44.12195" lon="2.94248">
        <ele>564.4</ele>
        <time>2021-08-15T13:55:56Z</time>
      </trkpt>
      <trkpt lat="44.12196" lon="2.94256">
        <ele>564.7</ele>
        <time>2021-08-15T13:55:58Z</time>
      </trkpt>
      <trkpt lat="44.12197" lon="2.94263">
        <ele>565</ele>
        <time>2021-08-15T13:56:00Z</time>
      </trkpt>
      <trkpt lat="44.12198" lon="2.9427">
        <ele>565.3</ele>
        <time>2021-08-15T13:56:02Z</time>
      </trkpt>
      <trkpt lat="44.122" lon="2.94278">
        <ele>565.5</ele>
        <time>2021-08-15T13:56:04Z</time>
      </trkpt>
      <trkpt lat="44.12201" lon="2.94284">
        <ele>565.5</ele>
        <time>2021-08-15T13:56:06Z</time>
      </trkpt>
      <trkpt lat="44.12203" lon="2.94291">
        <ele>565.5</ele>
        <time>2021-08-15T13:56:08Z</time>
      </trkpt>
      <trkpt lat="44.12204" lon="2.943">
        <ele>566</ele>
        <time>2021-08-15T13:56:10Z</time>
      </trkpt>
      <trkpt lat="44.12206" lon="2.94307">
        <ele>565.8</ele>
        <time>2021-08-15T13:56:12Z</time>
      </trkpt>
      <trkpt lat="44.12208" lon="2.94317">
        <ele>566.1</ele>
        <time>2021-08-15T13:56:14Z</time>
      </trkpt>
      <trkpt lat="44.1221" lon="2.94325">
        <ele>566.4</ele>
        <time>2021-08-15T13:56:16Z</time>
      </trkpt>
      <trkpt lat="44.12212" lon="2.94333">
        <ele>566.3</ele>
        <time>2021-08-15T13:56:18Z</time>
      </trkpt>
      <trkpt lat="44.12213" lon="2.94341">
        <ele>566.8</ele>
        <time>2021-08-15T13:56:20Z</time>
      </trkpt>
      <trkpt lat="44.12217" lon="2.94348">
        <ele>566.5</ele>
        <time>2021-08-15T13:56:22Z</time>
      </trkpt>
      <trkpt lat="44.12218" lon="2.94357">
        <ele>567.3</ele>
        <time>2021-08-15T13:56:24Z</time>
      </trkpt>
      <trkpt lat="44.12221" lon="2.94365">
        <ele>567.5</ele>
        <time>2021-08-15T13:56:26Z</time>
      </trkpt>
      <trkpt lat="44.12223" lon="2.94373">
        <ele>567.8</ele>
        <time>2021-08-15T13:56:28Z</time>
      </trkpt>
      <trkpt lat="44.12227" lon="2.94379">
        <ele>567.5</ele>
        <time>2021-08-15T13:56:30Z</time>
      </trkpt>
      <trkpt lat="44.12229" lon="2.94386">
        <ele>567.9</ele>
        <time>2021-08-15T13:56:32Z</time>
      </trkpt>
      <trkpt lat="44.12232" lon="2.94392">
        <ele>568</ele>
        <time>2021-08-15T13:56:34Z</time>
      </trkpt>
      <trkpt lat="44.12237" lon="2.94399">
        <ele>568.1</ele>
        <time>2021-08-15T13:56:36Z</time>
      </trkpt>
      <trkpt lat="44.1224" lon="2.94407">
        <ele>568.7</ele>
        <time>2021-08-15T13:56:38Z</time>
      </trkpt>
      <trkpt lat="44.12244" lon="2.94413">
        <ele>568.9</ele>
        <time>2021-08-15T13:56:40Z</time>
      </trkpt>
      <trkpt lat="44.12247" lon="2.94419">
        <ele>568.8</ele>
        <time>2021-08-15T13:56:42Z</time>
      </trkpt>
      <trkpt lat="44.1225" lon="2.94427">
        <ele>568.4</ele>
        <time>2021-08-15T13:56:44Z</time>
      </trkpt>
      <trkpt lat="44.12252" lon="2.94435">
        <ele>567.4</ele>
        <time>2021-08-15T13:56:46Z</time>
      </trkpt>
      <trkpt lat="44.12255" lon="2.94441">
        <ele>566.2</ele>
        <time>2021-08-15T13:56:48Z</time>
      </trkpt>
      <trkpt lat="44.12256" lon="2.94449">
        <ele>566.1</ele>
        <time>2021-08-15T13:56:50Z</time>
      </trkpt>
      <trkpt lat="44.12256" lon="2.94457">
        <ele>566.2</ele>
        <time>2021-08-15T13:56:52Z</time>
      </trkpt>
      <trkpt lat="44.12256" lon="2.94465">
        <ele>566.7</ele>
        <time>2021-08-15T13:56:54Z</time>
      </trkpt>
      <trkpt lat="44.12254" lon="2.94473">
        <ele>567.4</ele>
        <time>2021-08-15T13:56:56Z</time>
      </trkpt>
      <trkpt lat="44.12253" lon="2.94481">
        <ele>568.3</ele>
        <time>2021-08-15T13:56:58Z</time>
      </trkpt>
      <trkpt lat="44.12251" lon="2.94489">
        <ele>569.3</ele>
        <time>2021-08-15T13:57:00Z</time>
      </trkpt>
      <trkpt lat="44.12248" lon="2.94497">
        <ele>570.4</ele>
        <time>2021-08-15T13:57:02Z</time>
      </trkpt>
      <trkpt lat="44.12245" lon="2.94504">
        <ele>571.3</ele>
        <time>2021-08-15T13:57:04Z</time>
      </trkpt>
      <trkpt lat="44.12243" lon="2.94511">
        <ele>571.9</ele>
        <time>2021-08-15T13:57:06Z</time>
      </trkpt>
      <trkpt lat="44.1224" lon="2.94518">
        <ele>572.8</ele>
        <time>2021-08-15T13:57:08Z</time>
      </trkpt>
      <trkpt lat="44.12237" lon="2.94525">
        <ele>573.6</ele>
        <time>2021-08-15T13:57:10Z</time>
      </trkpt>
      <trkpt lat="44.12234" lon="2.94533">
        <ele>574.3</ele>
        <time>2021-08-15T13:57:12Z</time>
      </trkpt>
      <trkpt lat="44.12231" lon="2.94541">
        <ele>575.1</ele>
        <time>2021-08-15T13:57:14Z</time>
      </trkpt>
      <trkpt lat="44.12228" lon="2.9455">
        <ele>575.8</ele>
        <time>2021-08-15T13:57:16Z</time>
      </trkpt>
      <trkpt lat="44.12227" lon="2.94559">
        <ele>575.9</ele>
        <time>2021-08-15T13:57:18Z</time>
      </trkpt>
      <trkpt lat="44.12227" lon="2.9457">
        <ele>575.9</ele>
        <time>2021-08-15T13:57:20Z</time>
      </trkpt>
      <trkpt lat="44.12228" lon="2.9458">
        <ele>575.3</ele>
        <time>2021-08-15T13:57:22Z</time>
      </trkpt>
      <trkpt lat="44.12231" lon="2.94589">
        <ele>575</ele>
        <time>2021-08-15T13:57:24Z</time>
      </trkpt>
      <trkpt lat="44.12236" lon="2.94598">
        <ele>574.5</ele>
        <time>2021-08-15T13:57:26Z</time>
      </trkpt>
      <trkpt lat="44.1224" lon="2.94606">
        <ele>574.1</ele>
        <time>2021-08-15T13:57:28Z</time>
      </trkpt>
      <trkpt lat="44.12244" lon="2.94614">
        <ele>573.4</ele>
        <time>2021-08-15T13:57:30Z</time>
      </trkpt>
      <trkpt lat="44.12249" lon="2.94621">
        <ele>572.5</ele>
        <time>2021-08-15T13:57:32Z</time>
      </trkpt>
      <trkpt lat="44.12254" lon="2.94627">
        <ele>571.8</ele>
        <time>2021-08-15T13:57:34Z</time>
      </trkpt>
      <trkpt lat="44.12257" lon="2.94634">
        <ele>571.5</ele>
        <time>2021-08-15T13:57:36Z</time>
      </trkpt>
      <trkpt lat="44.12261" lon="2.9464">
        <ele>571.1</ele>
        <time>2021-08-15T13:57:38Z</time>
      </trkpt>
      <trkpt lat="44.12265" lon="2.94646">
        <ele>570.8</ele>
        <time>2021-08-15T13:57:40Z</time>
      </trkpt>
      <trkpt lat="44.12269" lon="2.94652">
        <ele>570.7</ele>
        <time>2021-08-15T13:57:42Z</time>
      </trkpt>
      <trkpt lat="44.12273" lon="2.94659">
        <ele>570.7</ele>
        <time>2021-08-15T13:57:44Z</time>
      </trkpt>
      <trkpt lat="44.12276" lon="2.94666">
        <ele>571</ele>
        <time>2021-08-15T13:57:46Z</time>
      </trkpt>
      <trkpt lat="44.12279" lon="2.94673">
        <ele>571.2</ele>
        <time>2021-08-15T13:57:48Z</time>
      </trkpt>
      <trkpt lat="44.12281" lon="2.94681">
        <ele>571.5</ele>
        <time>2021-08-15T13:57:50Z</time>
      </trkpt>
      <trkpt lat="44.12284" lon="2.94688">
        <ele>571.7</ele>
        <time>2021-08-15T13:57:52Z</time>
      </trkpt>
      <trkpt lat="44.12286" lon="2.94696">
        <ele>572.2</ele>
        <time>2021-08-15T13:57:54Z</time>
      </trkpt>
      <trkpt lat="44.12288" lon="2.94705">
        <ele>572.6</ele>
        <time>2021-08-15T13:57:56Z</time>
      </trkpt>
      <trkpt lat="44.1229" lon="2.94714">
        <ele>573</ele>
        <time>2021-08-15T13:57:58Z</time>
      </trkpt>
      <trkpt lat="44.12292" lon="2.94724">
        <ele>573.2</ele>
        <time>2021-08-15T13:58:00Z</time>
      </trkpt>
      <trkpt lat="44.12294" lon="2.94734">
        <ele>573.8</ele>
        <time>2021-08-15T13:58:02Z</time>
      </trkpt>
      <trkpt lat="44.12296" lon="2.94744">
        <ele>574.1</ele>
        <time>2021-08-15T13:58:04Z</time>
      </trkpt>
      <trkpt lat="44.12297" lon="2.94754">
        <ele>574.8</ele>
        <time>2021-08-15T13:58:06Z</time>
      </trkpt>
      <trkpt lat="44.12299" lon="2.94764">
        <ele>575.8</ele>
        <time>2021-08-15T13:58:08Z</time>
      </trkpt>
      <trkpt lat="44.12302" lon="2.94775">
        <ele>576.7</ele>
        <time>2021-08-15T13:58:10Z</time>
      </trkpt>
      <trkpt lat="44.12304" lon="2.94786">
        <ele>577.5</ele>
        <time>2021-08-15T13:58:12Z</time>
      </trkpt>
      <trkpt lat="44.12306" lon="2.94796">
        <ele>578.5</ele>
        <time>2021-08-15T13:58:14Z</time>
      </trkpt>
      <trkpt lat="44.12309" lon="2.94807">
        <ele>579.1</ele>
        <time>2021-08-15T13:58:16Z</time>
      </trkpt>
      <trkpt lat="44.12312" lon="2.94817">
        <ele>579.3</ele>
        <time>2021-08-15T13:58:18Z</time>
      </trkpt>
      <trkpt lat="44.12317" lon="2.94827">
        <ele>579.2</ele>
        <time>2021-08-15T13:58:20Z</time>
      </trkpt>
      <trkpt lat="44.12322" lon="2.94836">
        <ele>578.9</ele>
        <time>2021-08-15T13:58:22Z</time>
      </trkpt>
      <trkpt lat="44.12328" lon="2.94843">
        <ele>578</ele>
        <time>2021-08-15T13:58:24Z</time>
      </trkpt>
      <trkpt lat="44.12334" lon="2.9485">
        <ele>577.3</ele>
        <time>2021-08-15T13:58:26Z</time>
      </trkpt>
      <trkpt lat="44.12341" lon="2.94856">
        <ele>577.4</ele>
        <time>2021-08-15T13:58:28Z</time>
      </trkpt>
      <trkpt lat="44.12349" lon="2.94861">
        <ele>577.3</ele>
        <time>2021-08-15T13:58:30Z</time>
      </trkpt>
      <trkpt lat="44.12356" lon="2.94865">
        <ele>577.1</ele>
        <time>2021-08-15T13:58:32Z</time>
      </trkpt>
      <trkpt lat="44.12362" lon="2.94871">
        <ele>577</ele>
        <time>2021-08-15T13:58:34Z</time>
      </trkpt>
      <trkpt lat="44.12369" lon="2.94875">
        <ele>576.8</ele>
        <time>2021-08-15T13:58:36Z</time>
      </trkpt>
      <trkpt lat="44.12375" lon="2.9488">
        <ele>576.6</ele>
        <time>2021-08-15T13:58:38Z</time>
      </trkpt>
      <trkpt lat="44.12381" lon="2.94882">
        <ele>576</ele>
        <time>2021-08-15T13:58:40Z</time>
      </trkpt>
      <trkpt lat="44.12387" lon="2.94889">
        <ele>576</ele>
        <time>2021-08-15T13:58:42Z</time>
      </trkpt>
      <trkpt lat="44.12392" lon="2.94893">
        <ele>575.8</ele>
        <time>2021-08-15T13:58:44Z</time>
      </trkpt>
      <trkpt lat="44.12398" lon="2.94898">
        <ele>575.8</ele>
        <time>2021-08-15T13:58:46Z</time>
      </trkpt>
      <trkpt lat="44.12402" lon="2.94905">
        <ele>576</ele>
        <time>2021-08-15T13:58:48Z</time>
      </trkpt>
      <trkpt lat="44.12406" lon="2.94911">
        <ele>576.2</ele>
        <time>2021-08-15T13:58:50Z</time>
      </trkpt>
      <trkpt lat="44.12409" lon="2.94918">
        <ele>576.6</ele>
        <time>2021-08-15T13:58:52Z</time>
      </trkpt>
      <trkpt lat="44.12411" lon="2.94926">
        <ele>576.4</ele>
        <time>2021-08-15T13:58:54Z</time>
      </trkpt>
      <trkpt lat="44.12413" lon="2.94933">
        <ele>576.2</ele>
        <time>2021-08-15T13:58:56Z</time>
      </trkpt>
      <trkpt lat="44.12414" lon="2.94941">
        <ele>576.1</ele>
        <time>2021-08-15T13:58:58Z</time>
      </trkpt>
      <trkpt lat="44.12416" lon="2.94949">
        <ele>576</ele>
        <time>2021-08-15T13:59:00Z</time>
      </trkpt>
      <trkpt lat="44.12417" lon="2.94956">
        <ele>575.9</ele>
        <time>2021-08-15T13:59:02Z</time>
      </trkpt>
      <trkpt lat="44.12418" lon="2.94962">
        <ele>576</ele>
        <time>2021-08-15T13:59:04Z</time>
      </trkpt>
      <trkpt lat="44.12419" lon="2.94969">
        <ele>576</ele>
        <time>2021-08-15T13:59:06Z</time>
      </trkpt>
      <trkpt lat="44.1242" lon="2.94975">
        <ele>576.1</ele>
        <time>2021-08-15T13:59:08Z</time>
      </trkpt>
      <trkpt lat="44.12418" lon="2.94981">
        <ele>576.4</ele>
        <time>2021-08-15T13:59:10Z</time>
      </trkpt>
      <trkpt lat="44.12416" lon="2.94988">
        <ele>576.9</ele>
        <time>2021-08-15T13:59:12Z</time>
      </trkpt>
      <trkpt lat="44.12414" lon="2.94995">
        <ele>577.9</ele>
        <time>2021-08-15T13:59:14Z</time>
      </trkpt>
      <trkpt lat="44.12412" lon="2.95003">
        <ele>578.5</ele>
        <time>2021-08-15T13:59:16Z</time>
      </trkpt>
      <trkpt lat="44.12409" lon="2.95011">
        <ele>579</ele>
        <time>2021-08-15T13:59:18Z</time>
      </trkpt>
      <trkpt lat="44.12406" lon="2.9502">
        <ele>579.4</ele>
        <time>2021-08-15T13:59:20Z</time>
      </trkpt>
      <trkpt lat="44.12403" lon="2.9503">
        <ele>580.1</ele>
        <time>2021-08-15T13:59:22Z</time>
      </trkpt>
      <trkpt lat="44.124" lon="2.95042">
        <ele>580.7</ele>
        <time>2021-08-15T13:59:24Z</time>
      </trkpt>
      <trkpt lat="44.12396" lon="2.95053">
        <ele>581.4</ele>
        <time>2021-08-15T13:59:26Z</time>
      </trkpt>
      <trkpt lat="44.12393" lon="2.95066">
        <ele>582</ele>
        <time>2021-08-15T13:59:28Z</time>
      </trkpt>
      <trkpt lat="44.12391" lon="2.95079">
        <ele>582.5</ele>
        <time>2021-08-15T13:59:30Z</time>
      </trkpt>
      <trkpt lat="44.12389" lon="2.95092">
        <ele>582.4</ele>
        <time>2021-08-15T13:59:32Z</time>
      </trkpt>
      <trkpt lat="44.12388" lon="2.95106">
        <ele>581.9</ele>
        <time>2021-08-15T13:59:34Z</time>
      </trkpt>
      <trkpt lat="44.12388" lon="2.9512">
        <ele>581.1</ele>
        <time>2021-08-15T13:59:36Z</time>
      </trkpt>
      <trkpt lat="44.12389" lon="2.95137">
        <ele>580</ele>
        <time>2021-08-15T13:59:38Z</time>
      </trkpt>
      <trkpt lat="44.1239" lon="2.95154">
        <ele>578.7</ele>
        <time>2021-08-15T13:59:40Z</time>
      </trkpt>
      <trkpt lat="44.1239" lon="2.95173">
        <ele>577.8</ele>
        <time>2021-08-15T13:59:42Z</time>
      </trkpt>
      <trkpt lat="44.12391" lon="2.95193">
        <ele>577.2</ele>
        <time>2021-08-15T13:59:44Z</time>
      </trkpt>
      <trkpt lat="44.12393" lon="2.95214">
        <ele>576.5</ele>
        <time>2021-08-15T13:59:46Z</time>
      </trkpt>
      <trkpt lat="44.12399" lon="2.95234">
        <ele>574.2</ele>
        <time>2021-08-15T13:59:48Z</time>
      </trkpt>
      <trkpt lat="44.12406" lon="2.95254">
        <ele>571.5</ele>
        <time>2021-08-15T13:59:50Z</time>
      </trkpt>
      <trkpt lat="44.12414" lon="2.95273">
        <ele>568.2</ele>
        <time>2021-08-15T13:59:52Z</time>
      </trkpt>
      <trkpt lat="44.12422" lon="2.95293">
        <ele>565.7</ele>
        <time>2021-08-15T13:59:54Z</time>
      </trkpt>
      <trkpt lat="44.12427" lon="2.95314">
        <ele>563.9</ele>
        <time>2021-08-15T13:59:56Z</time>
      </trkpt>
      <trkpt lat="44.12427" lon="2.95337">
        <ele>562.9</ele>
        <time>2021-08-15T13:59:58Z</time>
      </trkpt>
      <trkpt lat="44.12422" lon="2.9536">
        <ele>560.7</ele>
        <time>2021-08-15T14:00:00Z</time>
      </trkpt>
      <trkpt lat="44.12414" lon="2.95382">
        <ele>558.9</ele>
        <time>2021-08-15T14:00:02Z</time>
      </trkpt>
      <trkpt lat="44.12402" lon="2.95398">
        <ele>558.3</ele>
        <time>2021-08-15T14:00:04Z</time>
      </trkpt>
      <trkpt lat="44.12386" lon="2.9541">
        <ele>558.6</ele>
        <time>2021-08-15T14:00:06Z</time>
      </trkpt>
      <trkpt lat="44.12367" lon="2.95417">
        <ele>560</ele>
        <time>2021-08-15T14:00:08Z</time>
      </trkpt>
      <trkpt lat="44.12349" lon="2.95424">
        <ele>561.2</ele>
        <time>2021-08-15T14:00:10Z</time>
      </trkpt>
      <trkpt lat="44.12331" lon="2.95432">
        <ele>562.3</ele>
        <time>2021-08-15T14:00:12Z</time>
      </trkpt>
      <trkpt lat="44.12313" lon="2.9544">
        <ele>564</ele>
        <time>2021-08-15T14:00:14Z</time>
      </trkpt>
      <trkpt lat="44.12297" lon="2.95453">
        <ele>564.8</ele>
        <time>2021-08-15T14:00:16Z</time>
      </trkpt>
      <trkpt lat="44.12287" lon="2.95472">
        <ele>563.6</ele>
        <time>2021-08-15T14:00:18Z</time>
      </trkpt>
      <trkpt lat="44.12281" lon="2.95494">
        <ele>561.1</ele>
        <time>2021-08-15T14:00:20Z</time>
      </trkpt>
      <trkpt lat="44.12281" lon="2.95517">
        <ele>557.2</ele>
        <time>2021-08-15T14:00:22Z</time>
      </trkpt>
      <trkpt lat="44.12279" lon="2.95541">
        <ele>553.2</ele>
        <time>2021-08-15T14:00:24Z</time>
      </trkpt>
      <trkpt lat="44.1227" lon="2.95563">
        <ele>551.3</ele>
        <time>2021-08-15T14:00:26Z</time>
      </trkpt>
      <trkpt lat="44.12257" lon="2.95582">
        <ele>550.1</ele>
        <time>2021-08-15T14:00:28Z</time>
      </trkpt>
      <trkpt lat="44.12246" lon="2.95604">
        <ele>551.4</ele>
        <time>2021-08-15T14:00:30Z</time>
      </trkpt>
      <trkpt lat="44.12236" lon="2.95628">
        <ele>552.9</ele>
        <time>2021-08-15T14:00:32Z</time>
      </trkpt>
      <trkpt lat="44.1223" lon="2.95652">
        <ele>552.6</ele>
        <time>2021-08-15T14:00:34Z</time>
      </trkpt>
      <trkpt lat="44.12228" lon="2.95675">
        <ele>552.8</ele>
        <time>2021-08-15T14:00:36Z</time>
      </trkpt>
      <trkpt lat="44.12237" lon="2.95695">
        <ele>554.5</ele>
        <time>2021-08-15T14:00:38Z</time>
      </trkpt>
      <trkpt lat="44.12251" lon="2.95707">
        <ele>555.2</ele>
        <time>2021-08-15T14:00:40Z</time>
      </trkpt>
      <trkpt lat="44.12267" lon="2.95704">
        <ele>555.5</ele>
        <time>2021-08-15T14:00:42Z</time>
      </trkpt>
      <trkpt lat="44.1228" lon="2.95696">
        <ele>554.2</ele>
        <time>2021-08-15T14:00:44Z</time>
      </trkpt>
      <trkpt lat="44.12293" lon="2.95689">
        <ele>552.7</ele>
        <time>2021-08-15T14:00:46Z</time>
      </trkpt>
      <trkpt lat="44.12306" lon="2.95681">
        <ele>550.3</ele>
        <time>2021-08-15T14:00:48Z</time>
      </trkpt>
      <trkpt lat="44.12319" lon="2.95676">
        <ele>548.5</ele>
        <time>2021-08-15T14:00:50Z</time>
      </trkpt>
      <trkpt lat="44.12333" lon="2.9567">
        <ele>546.4</ele>
        <time>2021-08-15T14:00:52Z</time>
      </trkpt>
      <trkpt lat="44.12347" lon="2.95665">
        <ele>546.2</ele>
        <time>2021-08-15T14:00:54Z</time>
      </trkpt>
      <trkpt lat="44.12361" lon="2.9566">
        <ele>547</ele>
        <time>2021-08-15T14:00:56Z</time>
      </trkpt>
      <trkpt lat="44.12376" lon="2.95655">
        <ele>547.4</ele>
        <time>2021-08-15T14:00:58Z</time>
      </trkpt>
      <trkpt lat="44.1239" lon="2.9565">
        <ele>547.6</ele>
        <time>2021-08-15T14:01:00Z</time>
      </trkpt>
      <trkpt lat="44.12405" lon="2.95645">
        <ele>547.5</ele>
        <time>2021-08-15T14:01:02Z</time>
      </trkpt>
      <trkpt lat="44.12419" lon="2.9564">
        <ele>546.8</ele>
        <time>2021-08-15T14:01:04Z</time>
      </trkpt>
      <trkpt lat="44.12433" lon="2.95636">
        <ele>544.6</ele>
        <time>2021-08-15T14:01:06Z</time>
      </trkpt>
      <trkpt lat="44.12448" lon="2.95634">
        <ele>543</ele>
        <time>2021-08-15T14:01:08Z</time>
      </trkpt>
      <trkpt lat="44.12463" lon="2.95635">
        <ele>542.2</ele>
        <time>2021-08-15T14:01:10Z</time>
      </trkpt>
      <trkpt lat="44.12478" lon="2.95638">
        <ele>541.7</ele>
        <time>2021-08-15T14:01:12Z</time>
      </trkpt>
      <trkpt lat="44.12493" lon="2.9564">
        <ele>541.3</ele>
        <time>2021-08-15T14:01:14Z</time>
      </trkpt>
      <trkpt lat="44.12507" lon="2.95643">
        <ele>539.7</ele>
        <time>2021-08-15T14:01:16Z</time>
      </trkpt>
      <trkpt lat="44.12522" lon="2.95644">
        <ele>536.9</ele>
        <time>2021-08-15T14:01:18Z</time>
      </trkpt>
      <trkpt lat="44.12536" lon="2.95647">
        <ele>534.2</ele>
        <time>2021-08-15T14:01:20Z</time>
      </trkpt>
      <trkpt lat="44.1255" lon="2.95655">
        <ele>532.2</ele>
        <time>2021-08-15T14:01:22Z</time>
      </trkpt>
      <trkpt lat="44.12562" lon="2.95669">
        <ele>531</ele>
        <time>2021-08-15T14:01:24Z</time>
      </trkpt>
      <trkpt lat="44.12569" lon="2.95688">
        <ele>531.5</ele>
        <time>2021-08-15T14:01:26Z</time>
      </trkpt>
      <trkpt lat="44.12572" lon="2.95709">
        <ele>532.6</ele>
        <time>2021-08-15T14:01:28Z</time>
      </trkpt>
      <trkpt lat="44.12576" lon="2.9573">
        <ele>533.3</ele>
        <time>2021-08-15T14:01:30Z</time>
      </trkpt>
      <trkpt lat="44.1258" lon="2.95751">
        <ele>533.5</ele>
        <time>2021-08-15T14:01:32Z</time>
      </trkpt>
      <trkpt lat="44.12584" lon="2.95773">
        <ele>534.1</ele>
        <time>2021-08-15T14:01:34Z</time>
      </trkpt>
      <trkpt lat="44.12588" lon="2.95795">
        <ele>535.4</ele>
        <time>2021-08-15T14:01:36Z</time>
      </trkpt>
      <trkpt lat="44.1259" lon="2.95819">
        <ele>537</ele>
        <time>2021-08-15T14:01:38Z</time>
      </trkpt>
      <trkpt lat="44.12592" lon="2.95841">
        <ele>538</ele>
        <time>2021-08-15T14:01:40Z</time>
      </trkpt>
      <trkpt lat="44.12593" lon="2.95864">
        <ele>538.7</ele>
        <time>2021-08-15T14:01:42Z</time>
      </trkpt>
      <trkpt lat="44.12594" lon="2.95888">
        <ele>539.4</ele>
        <time>2021-08-15T14:01:44Z</time>
      </trkpt>
      <trkpt lat="44.12594" lon="2.9591">
        <ele>540.3</ele>
        <time>2021-08-15T14:01:46Z</time>
      </trkpt>
      <trkpt lat="44.12598" lon="2.95932">
        <ele>542.1</ele>
        <time>2021-08-15T14:01:48Z</time>
      </trkpt>
      <trkpt lat="44.12609" lon="2.95948">
        <ele>541.7</ele>
        <time>2021-08-15T14:01:50Z</time>
      </trkpt>
      <trkpt lat="44.12622" lon="2.95959">
        <ele>539.5</ele>
        <time>2021-08-15T14:01:52Z</time>
      </trkpt>
      <trkpt lat="44.12634" lon="2.9597">
        <ele>537.9</ele>
        <time>2021-08-15T14:01:54Z</time>
      </trkpt>
      <trkpt lat="44.12644" lon="2.95981">
        <ele>536.4</ele>
        <time>2021-08-15T14:01:56Z</time>
      </trkpt>
      <trkpt lat="44.12654" lon="2.95991">
        <ele>535</ele>
        <time>2021-08-15T14:01:58Z</time>
      </trkpt>
      <trkpt lat="44.12663" lon="2.96002">
        <ele>533.9</ele>
        <time>2021-08-15T14:02:00Z</time>
      </trkpt>
      <trkpt lat="44.12671" lon="2.96011">
        <ele>535</ele>
        <time>2021-08-15T14:02:02Z</time>
      </trkpt>
      <trkpt lat="44.1268" lon="2.9602">
        <ele>536.5</ele>
        <time>2021-08-15T14:02:04Z</time>
      </trkpt>
      <trkpt lat="44.12687" lon="2.96028">
        <ele>537.6</ele>
        <time>2021-08-15T14:02:06Z</time>
      </trkpt>
      <trkpt lat="44.12695" lon="2.96035">
        <ele>538.3</ele>
        <time>2021-08-15T14:02:08Z</time>
      </trkpt>
      <trkpt lat="44.12701" lon="2.96043">
        <ele>539.1</ele>
        <time>2021-08-15T14:02:10Z</time>
      </trkpt>
      <trkpt lat="44.12707" lon="2.96049">
        <ele>539.6</ele>
        <time>2021-08-15T14:02:12Z</time>
      </trkpt>
      <trkpt lat="44.12713" lon="2.96056">
        <ele>540</ele>
        <time>2021-08-15T14:02:14Z</time>
      </trkpt>
      <trkpt lat="44.12719" lon="2.96061">
        <ele>539.9</ele>
        <time>2021-08-15T14:02:16Z</time>
      </trkpt>
      <trkpt lat="44.12725" lon="2.96067">
        <ele>539.9</ele>
        <time>2021-08-15T14:02:18Z</time>
      </trkpt>
      <trkpt lat="44.12731" lon="2.96073">
        <ele>539.8</ele>
        <time>2021-08-15T14:02:20Z</time>
      </trkpt>
      <trkpt lat="44.12737" lon="2.96078">
        <ele>539.2</ele>
        <time>2021-08-15T14:02:22Z</time>
      </trkpt>
      <trkpt lat="44.12744" lon="2.96083">
        <ele>538.5</ele>
        <time>2021-08-15T14:02:24Z</time>
      </trkpt>
      <trkpt lat="44.12751" lon="2.96086">
        <ele>537.9</ele>
        <time>2021-08-15T14:02:26Z</time>
      </trkpt>
      <trkpt lat="44.12758" lon="2.96089">
        <ele>539.3</ele>
        <time>2021-08-15T14:02:28Z</time>
      </trkpt>
      <trkpt lat="44.12765" lon="2.96092">
        <ele>540.5</ele>
        <time>2021-08-15T14:02:30Z</time>
      </trkpt>
      <trkpt lat="44.12772" lon="2.96093">
        <ele>541.5</ele>
        <time>2021-08-15T14:02:32Z</time>
      </trkpt>
      <trkpt lat="44.1278" lon="2.96093">
        <ele>542</ele>
        <time>2021-08-15T14:02:34Z</time>
      </trkpt>
      <trkpt lat="44.12786" lon="2.96092">
        <ele>541.9</ele>
        <time>2021-08-15T14:02:36Z</time>
      </trkpt>
      <trkpt lat="44.12793" lon="2.9609">
        <ele>541.8</ele>
        <time>2021-08-15T14:02:38Z</time>
      </trkpt>
      <trkpt lat="44.12801" lon="2.96088">
        <ele>541.6</ele>
        <time>2021-08-15T14:02:40Z</time>
      </trkpt>
      <trkpt lat="44.12807" lon="2.96085">
        <ele>541</ele>
        <time>2021-08-15T14:02:42Z</time>
      </trkpt>
      <trkpt lat="44.12813" lon="2.96081">
        <ele>540.2</ele>
        <time>2021-08-15T14:02:44Z</time>
      </trkpt>
      <trkpt lat="44.1282" lon="2.96077">
        <ele>539.8</ele>
        <time>2021-08-15T14:02:46Z</time>
      </trkpt>
      <trkpt lat="44.12826" lon="2.96074">
        <ele>539.4</ele>
        <time>2021-08-15T14:02:48Z</time>
      </trkpt>
      <trkpt lat="44.12833" lon="2.96069">
        <ele>538.8</ele>
        <time>2021-08-15T14:02:50Z</time>
      </trkpt>
      <trkpt lat="44.12839" lon="2.96066">
        <ele>539.2</ele>
        <time>2021-08-15T14:02:52Z</time>
      </trkpt>
      <trkpt lat="44.12845" lon="2.96061">
        <ele>539.4</ele>
        <time>2021-08-15T14:02:54Z</time>
      </trkpt>
      <trkpt lat="44.12851" lon="2.96058">
        <ele>539.9</ele>
        <time>2021-08-15T14:02:56Z</time>
      </trkpt>
      <trkpt lat="44.12857" lon="2.96054">
        <ele>540.2</ele>
        <time>2021-08-15T14:02:58Z</time>
      </trkpt>
      <trkpt lat="44.12862" lon="2.96051">
        <ele>540.5</ele>
        <time>2021-08-15T14:03:00Z</time>
      </trkpt>
      <trkpt lat="44.12868" lon="2.96048">
        <ele>540.8</ele>
        <time>2021-08-15T14:03:02Z</time>
      </trkpt>
      <trkpt lat="44.12874" lon="2.96044">
        <ele>540.7</ele>
        <time>2021-08-15T14:03:04Z</time>
      </trkpt>
      <trkpt lat="44.1288" lon="2.9604">
        <ele>540.7</ele>
        <time>2021-08-15T14:03:06Z</time>
      </trkpt>
      <trkpt lat="44.12886" lon="2.96037">
        <ele>540.8</ele>
        <time>2021-08-15T14:03:08Z</time>
      </trkpt>
      <trkpt lat="44.12892" lon="2.96033">
        <ele>540.4</ele>
        <time>2021-08-15T14:03:10Z</time>
      </trkpt>
      <trkpt lat="44.12898" lon="2.96029">
        <ele>540.1</ele>
        <time>2021-08-15T14:03:12Z</time>
      </trkpt>
      <trkpt lat="44.12904" lon="2.96024">
        <ele>539.3</ele>
        <time>2021-08-15T14:03:14Z</time>
      </trkpt>
      <trkpt lat="44.12909" lon="2.9602">
        <ele>538.8</ele>
        <time>2021-08-15T14:03:16Z</time>
      </trkpt>
      <trkpt lat="44.12915" lon="2.96016">
        <ele>537.8</ele>
        <time>2021-08-15T14:03:18Z</time>
      </trkpt>
      <trkpt lat="44.1292" lon="2.96011">
        <ele>536.7</ele>
        <time>2021-08-15T14:03:20Z</time>
      </trkpt>
      <trkpt lat="44.12925" lon="2.96004">
        <ele>535.1</ele>
        <time>2021-08-15T14:03:22Z</time>
      </trkpt>
      <trkpt lat="44.1293" lon="2.95998">
        <ele>534.1</ele>
        <time>2021-08-15T14:03:24Z</time>
      </trkpt>
      <trkpt lat="44.12935" lon="2.95992">
        <ele>534.1</ele>
        <time>2021-08-15T14:03:26Z</time>
      </trkpt>
      <trkpt lat="44.12939" lon="2.95986">
        <ele>533.8</ele>
        <time>2021-08-15T14:03:28Z</time>
      </trkpt>
      <trkpt lat="44.12944" lon="2.9598">
        <ele>533.5</ele>
        <time>2021-08-15T14:03:30Z</time>
      </trkpt>
      <trkpt lat="44.12949" lon="2.95975">
        <ele>533.4</ele>
        <time>2021-08-15T14:03:32Z</time>
      </trkpt>
      <trkpt lat="44.12955" lon="2.95971">
        <ele>533.5</ele>
        <time>2021-08-15T14:03:34Z</time>
      </trkpt>
      <trkpt lat="44.1296" lon="2.95967">
        <ele>533.3</ele>
        <time>2021-08-15T14:03:36Z</time>
      </trkpt>
      <trkpt lat="44.12965" lon="2.95964">
        <ele>533.5</ele>
        <time>2021-08-15T14:03:38Z</time>
      </trkpt>
      <trkpt lat="44.1297" lon="2.95962">
        <ele>533.7</ele>
        <time>2021-08-15T14:03:40Z</time>
      </trkpt>
      <trkpt lat="44.12976" lon="2.9596">
        <ele>534</ele>
        <time>2021-08-15T14:03:42Z</time>
      </trkpt>
      <trkpt lat="44.12982" lon="2.9596">
        <ele>534.7</ele>
        <time>2021-08-15T14:03:44Z</time>
      </trkpt>
      <trkpt lat="44.12987" lon="2.9596">
        <ele>535.4</ele>
        <time>2021-08-15T14:03:46Z</time>
      </trkpt>
      <trkpt lat="44.12993" lon="2.95962">
        <ele>536.6</ele>
        <time>2021-08-15T14:03:48Z</time>
      </trkpt>
      <trkpt lat="44.12998" lon="2.95965">
        <ele>537.9</ele>
        <time>2021-08-15T14:03:50Z</time>
      </trkpt>
      <trkpt lat="44.13003" lon="2.95969">
        <ele>538.9</ele>
        <time>2021-08-15T14:03:52Z</time>
      </trkpt>
      <trkpt lat="44.13008" lon="2.95974">
        <ele>539.6</ele>
        <time>2021-08-15T14:03:54Z</time>
      </trkpt>
      <trkpt lat="44.13012" lon="2.95981">
        <ele>540.4</ele>
        <time>2021-08-15T14:03:56Z</time>
      </trkpt>
      <trkpt lat="44.13015" lon="2.95987">
        <ele>541.4</ele>
        <time>2021-08-15T14:03:58Z</time>
      </trkpt>
      <trkpt lat="44.13018" lon="2.95994">
        <ele>542.3</ele>
        <time>2021-08-15T14:04:00Z</time>
      </trkpt>
      <trkpt lat="44.13022" lon="2.96002">
        <ele>543.2</ele>
        <time>2021-08-15T14:04:02Z</time>
      </trkpt>
      <trkpt lat="44.13025" lon="2.9601">
        <ele>544</ele>
        <time>2021-08-15T14:04:04Z</time>
      </trkpt>
      <trkpt lat="44.13029" lon="2.96019">
        <ele>544.5</ele>
        <time>2021-08-15T14:04:06Z</time>
      </trkpt>
      <trkpt lat="44.13033" lon="2.96029">
        <ele>545</ele>
        <time>2021-08-15T14:04:08Z</time>
      </trkpt>
      <trkpt lat="44.13038" lon="2.96038">
        <ele>545.2</ele>
        <time>2021-08-15T14:04:10Z</time>
      </trkpt>
      <trkpt lat="44.13043" lon="2.96049">
        <ele>545.1</ele>
        <time>2021-08-15T14:04:12Z</time>
      </trkpt>
      <trkpt lat="44.13047" lon="2.96061">
        <ele>545.1</ele>
        <time>2021-08-15T14:04:14Z</time>
      </trkpt>
      <trkpt lat="44.13052" lon="2.96073">
        <ele>544.9</ele>
        <time>2021-08-15T14:04:16Z</time>
      </trkpt>
      <trkpt lat="44.13055" lon="2.96086">
        <ele>545.3</ele>
        <time>2021-08-15T14:04:18Z</time>
      </trkpt>
      <trkpt lat="44.13058" lon="2.961">
        <ele>546.9</ele>
        <time>2021-08-15T14:04:20Z</time>
      </trkpt>
      <trkpt lat="44.13063" lon="2.96113">
        <ele>547.4</ele>
        <time>2021-08-15T14:04:22Z</time>
      </trkpt>
      <trkpt lat="44.13068" lon="2.96126">
        <ele>547.8</ele>
        <time>2021-08-15T14:04:24Z</time>
      </trkpt>
      <trkpt lat="44.13075" lon="2.96138">
        <ele>547</ele>
        <time>2021-08-15T14:04:26Z</time>
      </trkpt>
      <trkpt lat="44.13082" lon="2.96149">
        <ele>546.3</ele>
        <time>2021-08-15T14:04:28Z</time>
      </trkpt>
      <trkpt lat="44.1309" lon="2.96158">
        <ele>546.5</ele>
        <time>2021-08-15T14:04:30Z</time>
      </trkpt>
      <trkpt lat="44.13097" lon="2.96168">
        <ele>546.8</ele>
        <time>2021-08-15T14:04:32Z</time>
      </trkpt>
      <trkpt lat="44.13105" lon="2.96179">
        <ele>548.2</ele>
        <time>2021-08-15T14:04:34Z</time>
      </trkpt>
      <trkpt lat="44.13113" lon="2.96189">
        <ele>548.8</ele>
        <time>2021-08-15T14:04:36Z</time>
      </trkpt>
      <trkpt lat="44.13122" lon="2.96198">
        <ele>549</ele>
        <time>2021-08-15T14:04:38Z</time>
      </trkpt>
      <trkpt lat="44.1313" lon="2.96208">
        <ele>548.7</ele>
        <time>2021-08-15T14:04:40Z</time>
      </trkpt>
      <trkpt lat="44.13139" lon="2.96218">
        <ele>548.1</ele>
        <time>2021-08-15T14:04:42Z</time>
      </trkpt>
      <trkpt lat="44.13147" lon="2.96228">
        <ele>547.1</ele>
        <time>2021-08-15T14:04:44Z</time>
      </trkpt>
      <trkpt lat="44.13155" lon="2.96238">
        <ele>545.8</ele>
        <time>2021-08-15T14:04:46Z</time>
      </trkpt>
      <trkpt lat="44.13163" lon="2.96249">
        <ele>544.1</ele>
        <time>2021-08-15T14:04:48Z</time>
      </trkpt>
      <trkpt lat="44.13172" lon="2.9626">
        <ele>545.1</ele>
        <time>2021-08-15T14:04:50Z</time>
      </trkpt>
      <trkpt lat="44.13181" lon="2.9627">
        <ele>546.8</ele>
        <time>2021-08-15T14:04:52Z</time>
      </trkpt>
      <trkpt lat="44.13188" lon="2.96281">
        <ele>547.9</ele>
        <time>2021-08-15T14:04:54Z</time>
      </trkpt>
      <trkpt lat="44.13197" lon="2.96292">
        <ele>548.5</ele>
        <time>2021-08-15T14:04:56Z</time>
      </trkpt>
      <trkpt lat="44.13205" lon="2.96302">
        <ele>548.4</ele>
        <time>2021-08-15T14:04:58Z</time>
      </trkpt>
      <trkpt lat="44.13213" lon="2.96312">
        <ele>547.9</ele>
        <time>2021-08-15T14:05:00Z</time>
      </trkpt>
      <trkpt lat="44.13221" lon="2.96323">
        <ele>546.9</ele>
        <time>2021-08-15T14:05:02Z</time>
      </trkpt>
      <trkpt lat="44.13231" lon="2.96334">
        <ele>545</ele>
        <time>2021-08-15T14:05:04Z</time>
      </trkpt>
      <trkpt lat="44.13242" lon="2.96343">
        <ele>544</ele>
        <time>2021-08-15T14:05:06Z</time>
      </trkpt>
      <trkpt lat="44.13252" lon="2.96353">
        <ele>544.1</ele>
        <time>2021-08-15T14:05:08Z</time>
      </trkpt>
      <trkpt lat="44.13263" lon="2.96363">
        <ele>547</ele>
        <time>2021-08-15T14:05:10Z</time>
      </trkpt>
      <trkpt lat="44.13273" lon="2.96373">
        <ele>549.2</ele>
        <time>2021-08-15T14:05:12Z</time>
      </trkpt>
      <trkpt lat="44.13286" lon="2.96378">
        <ele>549.6</ele>
        <time>2021-08-15T14:05:14Z</time>
      </trkpt>
      <trkpt lat="44.13299" lon="2.96375">
        <ele>548.4</ele>
        <time>2021-08-15T14:05:16Z</time>
      </trkpt>
      <trkpt lat="44.13309" lon="2.96363">
        <ele>546.2</ele>
        <time>2021-08-15T14:05:18Z</time>
      </trkpt>
      <trkpt lat="44.13316" lon="2.96348">
        <ele>544.3</ele>
        <time>2021-08-15T14:05:20Z</time>
      </trkpt>
      <trkpt lat="44.13319" lon="2.96331">
        <ele>542.8</ele>
        <time>2021-08-15T14:05:22Z</time>
      </trkpt>
      <trkpt lat="44.13321" lon="2.96315">
        <ele>542.3</ele>
        <time>2021-08-15T14:05:24Z</time>
      </trkpt>
      <trkpt lat="44.13324" lon="2.963">
        <ele>541.7</ele>
        <time>2021-08-15T14:05:26Z</time>
      </trkpt>
      <trkpt lat="44.13329" lon="2.96287">
        <ele>541.4</ele>
        <time>2021-08-15T14:05:28Z</time>
      </trkpt>
      <trkpt lat="44.13333" lon="2.96274">
        <ele>541.2</ele>
        <time>2021-08-15T14:05:30Z</time>
      </trkpt>
      <trkpt lat="44.13337" lon="2.96262">
        <ele>542</ele>
        <time>2021-08-15T14:05:32Z</time>
      </trkpt>
      <trkpt lat="44.13342" lon="2.96253">
        <ele>543</ele>
        <time>2021-08-15T14:05:34Z</time>
      </trkpt>
      <trkpt lat="44.13347" lon="2.96242">
        <ele>543.8</ele>
        <time>2021-08-15T14:05:36Z</time>
      </trkpt>
      <trkpt lat="44.13351" lon="2.96231">
        <ele>544.2</ele>
        <time>2021-08-15T14:05:38Z</time>
      </trkpt>
      <trkpt lat="44.13355" lon="2.96221">
        <ele>544.5</ele>
        <time>2021-08-15T14:05:40Z</time>
      </trkpt>
      <trkpt lat="44.1336" lon="2.96213">
        <ele>544.7</ele>
        <time>2021-08-15T14:05:42Z</time>
      </trkpt>
      <trkpt lat="44.13365" lon="2.96204">
        <ele>544.7</ele>
        <time>2021-08-15T14:05:44Z</time>
      </trkpt>
      <trkpt lat="44.1337" lon="2.96197">
        <ele>544.7</ele>
        <time>2021-08-15T14:05:46Z</time>
      </trkpt>
      <trkpt lat="44.13375" lon="2.9619">
        <ele>544.4</ele>
        <time>2021-08-15T14:05:48Z</time>
      </trkpt>
      <trkpt lat="44.13382" lon="2.96183">
        <ele>544.1</ele>
        <time>2021-08-15T14:05:50Z</time>
      </trkpt>
      <trkpt lat="44.13389" lon="2.96175">
        <ele>543.3</ele>
        <time>2021-08-15T14:05:52Z</time>
      </trkpt>
      <trkpt lat="44.13396" lon="2.96169">
        <ele>542.5</ele>
        <time>2021-08-15T14:05:54Z</time>
      </trkpt>
      <trkpt lat="44.13403" lon="2.96162">
        <ele>542.1</ele>
        <time>2021-08-15T14:05:56Z</time>
      </trkpt>
      <trkpt lat="44.1341" lon="2.96156">
        <ele>542</ele>
        <time>2021-08-15T14:05:58Z</time>
      </trkpt>
      <trkpt lat="44.13417" lon="2.96152">
        <ele>541.8</ele>
        <time>2021-08-15T14:06:00Z</time>
      </trkpt>
      <trkpt lat="44.13424" lon="2.96149">
        <ele>541.8</ele>
        <time>2021-08-15T14:06:02Z</time>
      </trkpt>
      <trkpt lat="44.13432" lon="2.96145">
        <ele>542</ele>
        <time>2021-08-15T14:06:04Z</time>
      </trkpt>
      <trkpt lat="44.13439" lon="2.96143">
        <ele>542.1</ele>
        <time>2021-08-15T14:06:06Z</time>
      </trkpt>
      <trkpt lat="44.13446" lon="2.96142">
        <ele>542.4</ele>
        <time>2021-08-15T14:06:08Z</time>
      </trkpt>
      <trkpt lat="44.13454" lon="2.96142">
        <ele>542.8</ele>
        <time>2021-08-15T14:06:10Z</time>
      </trkpt>
      <trkpt lat="44.13461" lon="2.96143">
        <ele>543.2</ele>
        <time>2021-08-15T14:06:12Z</time>
      </trkpt>
      <trkpt lat="44.13467" lon="2.96144">
        <ele>543.6</ele>
        <time>2021-08-15T14:06:14Z</time>
      </trkpt>
      <trkpt lat="44.13474" lon="2.96146">
        <ele>544</ele>
        <time>2021-08-15T14:06:16Z</time>
      </trkpt>
      <trkpt lat="44.1348" lon="2.96147">
        <ele>544.3</ele>
        <time>2021-08-15T14:06:18Z</time>
      </trkpt>
      <trkpt lat="44.13486" lon="2.96148">
        <ele>544.7</ele>
        <time>2021-08-15T14:06:20Z</time>
      </trkpt>
      <trkpt lat="44.13493" lon="2.96149">
        <ele>545.1</ele>
        <time>2021-08-15T14:06:22Z</time>
      </trkpt>
      <trkpt lat="44.13499" lon="2.96152">
        <ele>545.4</ele>
        <time>2021-08-15T14:06:24Z</time>
      </trkpt>
      <trkpt lat="44.13505" lon="2.96155">
        <ele>545.4</ele>
        <time>2021-08-15T14:06:26Z</time>
      </trkpt>
      <trkpt lat="44.1351" lon="2.9616">
        <ele>545.2</ele>
        <time>2021-08-15T14:06:28Z</time>
      </trkpt>
      <trkpt lat="44.13515" lon="2.96166">
        <ele>544.9</ele>
        <time>2021-08-15T14:06:30Z</time>
      </trkpt>
      <trkpt lat="44.13519" lon="2.96173">
        <ele>546</ele>
        <time>2021-08-15T14:06:32Z</time>
      </trkpt>
      <trkpt lat="44.13523" lon="2.96181">
        <ele>547.4</ele>
        <time>2021-08-15T14:06:34Z</time>
      </trkpt>
      <trkpt lat="44.13526" lon="2.96188">
        <ele>548.7</ele>
        <time>2021-08-15T14:06:36Z</time>
      </trkpt>
      <trkpt lat="44.1353" lon="2.96196">
        <ele>549.7</ele>
        <time>2021-08-15T14:06:38Z</time>
      </trkpt>
      <trkpt lat="44.13533" lon="2.96202">
        <ele>550.6</ele>
        <time>2021-08-15T14:06:40Z</time>
      </trkpt>
      <trkpt lat="44.13537" lon="2.96208">
        <ele>551</ele>
        <time>2021-08-15T14:06:42Z</time>
      </trkpt>
      <trkpt lat="44.13542" lon="2.96214">
        <ele>551.1</ele>
        <time>2021-08-15T14:06:44Z</time>
      </trkpt>
      <trkpt lat="44.13547" lon="2.9622">
        <ele>551.2</ele>
        <time>2021-08-15T14:06:46Z</time>
      </trkpt>
      <trkpt lat="44.13552" lon="2.96226">
        <ele>551.2</ele>
        <time>2021-08-15T14:06:48Z</time>
      </trkpt>
      <trkpt lat="44.13555" lon="2.96232">
        <ele>551.2</ele>
        <time>2021-08-15T14:06:50Z</time>
      </trkpt>
      <trkpt lat="44.1356" lon="2.96237">
        <ele>550.7</ele>
        <time>2021-08-15T14:06:52Z</time>
      </trkpt>
      <trkpt lat="44.13565" lon="2.96243">
        <ele>550.2</ele>
        <time>2021-08-15T14:06:54Z</time>
      </trkpt>
      <trkpt lat="44.13571" lon="2.96249">
        <ele>549.4</ele>
        <time>2021-08-15T14:06:56Z</time>
      </trkpt>
      <trkpt lat="44.13576" lon="2.96255">
        <ele>549.2</ele>
        <time>2021-08-15T14:06:58Z</time>
      </trkpt>
      <trkpt lat="44.1358" lon="2.96261">
        <ele>549.4</ele>
        <time>2021-08-15T14:07:00Z</time>
      </trkpt>
      <trkpt lat="44.13585" lon="2.96267">
        <ele>549.8</ele>
        <time>2021-08-15T14:07:02Z</time>
      </trkpt>
      <trkpt lat="44.13589" lon="2.96274">
        <ele>550.8</ele>
        <time>2021-08-15T14:07:04Z</time>
      </trkpt>
      <trkpt lat="44.13593" lon="2.9628">
        <ele>551.7</ele>
        <time>2021-08-15T14:07:06Z</time>
      </trkpt>
      <trkpt lat="44.13598" lon="2.96286">
        <ele>552.3</ele>
        <time>2021-08-15T14:07:08Z</time>
      </trkpt>
      <trkpt lat="44.13603" lon="2.96293">
        <ele>552.9</ele>
        <time>2021-08-15T14:07:10Z</time>
      </trkpt>
      <trkpt lat="44.13608" lon="2.96299">
        <ele>553.3</ele>
        <time>2021-08-15T14:07:12Z</time>
      </trkpt>
      <trkpt lat="44.13613" lon="2.96306">
        <ele>553.6</ele>
        <time>2021-08-15T14:07:14Z</time>
      </trkpt>
      <trkpt lat="44.13617" lon="2.96313">
        <ele>553.7</ele>
        <time>2021-08-15T14:07:16Z</time>
      </trkpt>
      <trkpt lat="44.13622" lon="2.96319">
        <ele>553.7</ele>
        <time>2021-08-15T14:07:18Z</time>
      </trkpt>
      <trkpt lat="44.13628" lon="2.96325">
        <ele>553.3</ele>
        <time>2021-08-15T14:07:20Z</time>
      </trkpt>
      <trkpt lat="44.13632" lon="2.96331">
        <ele>553</ele>
        <time>2021-08-15T14:07:22Z</time>
      </trkpt>
      <trkpt lat="44.13637" lon="2.96338">
        <ele>553.7</ele>
        <time>2021-08-15T14:07:24Z</time>
      </trkpt>
      <trkpt lat="44.13641" lon="2.96344">
        <ele>554.7</ele>
        <time>2021-08-15T14:07:26Z</time>
      </trkpt>
      <trkpt lat="44.13646" lon="2.9635">
        <ele>555.4</ele>
        <time>2021-08-15T14:07:28Z</time>
      </trkpt>
      <trkpt lat="44.1365" lon="2.96355">
        <ele>556</ele>
        <time>2021-08-15T14:07:30Z</time>
      </trkpt>
      <trkpt lat="44.13655" lon="2.96359">
        <ele>556.1</ele>
        <time>2021-08-15T14:07:32Z</time>
      </trkpt>
      <trkpt lat="44.1366" lon="2.96365">
        <ele>556.5</ele>
        <time>2021-08-15T14:07:34Z</time>
      </trkpt>
      <trkpt lat="44.13665" lon="2.9637">
        <ele>556.7</ele>
        <time>2021-08-15T14:07:36Z</time>
      </trkpt>
      <trkpt lat="44.1367" lon="2.96373">
        <ele>557.3</ele>
        <time>2021-08-15T14:07:38Z</time>
      </trkpt>
      <trkpt lat="44.13675" lon="2.96377">
        <ele>558.1</ele>
        <time>2021-08-15T14:07:40Z</time>
      </trkpt>
      <trkpt lat="44.1368" lon="2.9638">
        <ele>558.7</ele>
        <time>2021-08-15T14:07:42Z</time>
      </trkpt>
      <trkpt lat="44.13687" lon="2.96383">
        <ele>559.2</ele>
        <time>2021-08-15T14:07:44Z</time>
      </trkpt>
      <trkpt lat="44.13692" lon="2.96386">
        <ele>559.6</ele>
        <time>2021-08-15T14:07:46Z</time>
      </trkpt>
      <trkpt lat="44.13698" lon="2.96389">
        <ele>560</ele>
        <time>2021-08-15T14:07:48Z</time>
      </trkpt>
      <trkpt lat="44.13704" lon="2.9639">
        <ele>559.9</ele>
        <time>2021-08-15T14:07:50Z</time>
      </trkpt>
      <trkpt lat="44.13709" lon="2.96392">
        <ele>560</ele>
        <time>2021-08-15T14:07:52Z</time>
      </trkpt>
      <trkpt lat="44.13714" lon="2.96393">
        <ele>559.9</ele>
        <time>2021-08-15T14:07:54Z</time>
      </trkpt>
      <trkpt lat="44.1372" lon="2.96394">
        <ele>559.8</ele>
        <time>2021-08-15T14:07:56Z</time>
      </trkpt>
      <trkpt lat="44.13725" lon="2.96394">
        <ele>559.4</ele>
        <time>2021-08-15T14:07:58Z</time>
      </trkpt>
      <trkpt lat="44.13731" lon="2.96394">
        <ele>558.8</ele>
        <time>2021-08-15T14:08:00Z</time>
      </trkpt>
      <trkpt lat="44.13737" lon="2.96392">
        <ele>558</ele>
        <time>2021-08-15T14:08:02Z</time>
      </trkpt>
      <trkpt lat="44.13742" lon="2.96391">
        <ele>557.3</ele>
        <time>2021-08-15T14:08:04Z</time>
      </trkpt>
      <trkpt lat="44.13747" lon="2.96389">
        <ele>556.5</ele>
        <time>2021-08-15T14:08:06Z</time>
      </trkpt>
      <trkpt lat="44.13753" lon="2.96387">
        <ele>556</ele>
        <time>2021-08-15T14:08:08Z</time>
      </trkpt>
      <trkpt lat="44.13758" lon="2.96385">
        <ele>555.7</ele>
        <time>2021-08-15T14:08:10Z</time>
      </trkpt>
      <trkpt lat="44.13763" lon="2.96382">
        <ele>555.4</ele>
        <time>2021-08-15T14:08:12Z</time>
      </trkpt>
      <trkpt lat="44.13769" lon="2.96381">
        <ele>555.2</ele>
        <time>2021-08-15T14:08:14Z</time>
      </trkpt>
      <trkpt lat="44.13774" lon="2.96379">
        <ele>554.9</ele>
        <time>2021-08-15T14:08:16Z</time>
      </trkpt>
      <trkpt lat="44.13779" lon="2.96376">
        <ele>554.5</ele>
        <time>2021-08-15T14:08:18Z</time>
      </trkpt>
      <trkpt lat="44.13784" lon="2.96374">
        <ele>554.1</ele>
        <time>2021-08-15T14:08:20Z</time>
      </trkpt>
      <trkpt lat="44.13789" lon="2.96372">
        <ele>553.7</ele>
        <time>2021-08-15T14:08:22Z</time>
      </trkpt>
      <trkpt lat="44.13795" lon="2.96371">
        <ele>553.6</ele>
        <time>2021-08-15T14:08:24Z</time>
      </trkpt>
      <trkpt lat="44.13801" lon="2.96371">
        <ele>553.8</ele>
        <time>2021-08-15T14:08:26Z</time>
      </trkpt>
      <trkpt lat="44.13808" lon="2.96373">
        <ele>554.4</ele>
        <time>2021-08-15T14:08:28Z</time>
      </trkpt>
      <trkpt lat="44.13815" lon="2.96375">
        <ele>555</ele>
        <time>2021-08-15T14:08:30Z</time>
      </trkpt>
      <trkpt lat="44.13822" lon="2.96378">
        <ele>556.1</ele>
        <time>2021-08-15T14:08:32Z</time>
      </trkpt>
      <trkpt lat="44.13829" lon="2.96384">
        <ele>557.8</ele>
        <time>2021-08-15T14:08:34Z</time>
      </trkpt>
      <trkpt lat="44.13838" lon="2.96388">
        <ele>558.4</ele>
        <time>2021-08-15T14:08:36Z</time>
      </trkpt>
      <trkpt lat="44.13847" lon="2.96393">
        <ele>558.6</ele>
        <time>2021-08-15T14:08:38Z</time>
      </trkpt>
      <trkpt lat="44.13856" lon="2.96398">
        <ele>558.3</ele>
        <time>2021-08-15T14:08:40Z</time>
      </trkpt>
      <trkpt lat="44.13865" lon="2.96402">
        <ele>557.6</ele>
        <time>2021-08-15T14:08:42Z</time>
      </trkpt>
      <trkpt lat="44.13874" lon="2.96407">
        <ele>557</ele>
        <time>2021-08-15T14:08:44Z</time>
      </trkpt>
      <trkpt lat="44.13883" lon="2.9641">
        <ele>555.8</ele>
        <time>2021-08-15T14:08:46Z</time>
      </trkpt>
      <trkpt lat="44.13892" lon="2.96414">
        <ele>554.6</ele>
        <time>2021-08-15T14:08:48Z</time>
      </trkpt>
      <trkpt lat="44.13902" lon="2.96417">
        <ele>553</ele>
        <time>2021-08-15T14:08:50Z</time>
      </trkpt>
      <trkpt lat="44.13913" lon="2.96418">
        <ele>551.1</ele>
        <time>2021-08-15T14:08:52Z</time>
      </trkpt>
      <trkpt lat="44.13923" lon="2.96421">
        <ele>550.5</ele>
        <time>2021-08-15T14:08:54Z</time>
      </trkpt>
      <trkpt lat="44.13932" lon="2.96421">
        <ele>550.2</ele>
        <time>2021-08-15T14:08:56Z</time>
      </trkpt>
      <trkpt lat="44.13941" lon="2.96422">
        <ele>550.3</ele>
        <time>2021-08-15T14:08:58Z</time>
      </trkpt>
      <trkpt lat="44.13948" lon="2.96424">
        <ele>550.4</ele>
        <time>2021-08-15T14:09:00Z</time>
      </trkpt>
      <trkpt lat="44.13955" lon="2.96426">
        <ele>550.6</ele>
        <time>2021-08-15T14:09:02Z</time>
      </trkpt>
      <trkpt lat="44.13961" lon="2.96429">
        <ele>551</ele>
        <time>2021-08-15T14:09:04Z</time>
      </trkpt>
      <trkpt lat="44.13964" lon="2.9643">
        <ele>551.1</ele>
        <time>2021-08-15T14:09:06Z</time>
      </trkpt>
      <trkpt lat="44.13965" lon="2.96429">
        <ele>550.8</ele>
        <time>2021-08-15T14:09:08Z</time>
      </trkpt>
      <trkpt lat="44.13964" lon="2.96429">
        <ele>550.9</ele>
        <time>2021-08-15T14:09:10Z</time>
      </trkpt>
      <trkpt lat="44.13964" lon="2.96429">
        <ele>551</ele>
        <time>2021-08-15T14:09:12Z</time>
      </trkpt>
      <trkpt lat="44.13964" lon="2.96429">
        <ele>551</ele>
        <time>2021-08-15T14:09:14Z</time>
      </trkpt>
      <trkpt lat="44.13964" lon="2.96429">
        <ele>551</ele>
        <time>2021-08-15T14:09:16Z</time>
      </trkpt>
      <trkpt lat="44.13962" lon="2.9641">
        <ele>548.2</ele>
        <time>2021-08-15T14:14:12Z</time>
      </trkpt>
      <trkpt lat="44.13963" lon="2.96405">
        <ele>548.1</ele>
        <time>2021-08-15T14:14:14Z</time>
      </trkpt>
      <trkpt lat="44.13964" lon="2.964">
        <ele>548</ele>
        <time>2021-08-15T14:14:16Z</time>
      </trkpt>
      <trkpt lat="44.13966" lon="2.96395">
        <ele>547.9</ele>
        <time>2021-08-15T14:14:18Z</time>
      </trkpt>
      <trkpt lat="44.13967" lon="2.96391">
        <ele>547.8</ele>
        <time>2021-08-15T14:14:20Z</time>
      </trkpt>
      <trkpt lat="44.13967" lon="2.96387">
        <ele>547.8</ele>
        <time>2021-08-15T14:14:22Z</time>
      </trkpt>
      <trkpt lat="44.13968" lon="2.96383">
        <ele>547.7</ele>
        <time>2021-08-15T14:14:24Z</time>
      </trkpt>
      <trkpt lat="44.13969" lon="2.96379">
        <ele>547.7</ele>
        <time>2021-08-15T14:14:26Z</time>
      </trkpt>
      <trkpt lat="44.1397" lon="2.96375">
        <ele>547.6</ele>
        <time>2021-08-15T14:14:28Z</time>
      </trkpt>
      <trkpt lat="44.13973" lon="2.96371">
        <ele>547.7</ele>
        <time>2021-08-15T14:14:30Z</time>
      </trkpt>
      <trkpt lat="44.13977" lon="2.96369">
        <ele>547.7</ele>
        <time>2021-08-15T14:14:32Z</time>
      </trkpt>
      <trkpt lat="44.1398" lon="2.96366">
        <ele>547.8</ele>
        <time>2021-08-15T14:14:34Z</time>
      </trkpt>
      <trkpt lat="44.13984" lon="2.96364">
        <ele>547.9</ele>
        <time>2021-08-15T14:14:36Z</time>
      </trkpt>
      <trkpt lat="44.13987" lon="2.96362">
        <ele>548</ele>
        <time>2021-08-15T14:14:38Z</time>
      </trkpt>
      <trkpt lat="44.13991" lon="2.96362">
        <ele>548.1</ele>
        <time>2021-08-15T14:14:40Z</time>
      </trkpt>
      <trkpt lat="44.13995" lon="2.96361">
        <ele>548.2</ele>
        <time>2021-08-15T14:14:42Z</time>
      </trkpt>
      <trkpt lat="44.13999" lon="2.9636">
        <ele>548.3</ele>
        <time>2021-08-15T14:14:44Z</time>
      </trkpt>
      <trkpt lat="44.14002" lon="2.96359">
        <ele>548.4</ele>
        <time>2021-08-15T14:14:46Z</time>
      </trkpt>
      <trkpt lat="44.14006" lon="2.96358">
        <ele>548.5</ele>
        <time>2021-08-15T14:14:48Z</time>
      </trkpt>
      <trkpt lat="44.14009" lon="2.96358">
        <ele>548.6</ele>
        <time>2021-08-15T14:14:50Z</time>
      </trkpt>
      <trkpt lat="44.14012" lon="2.96357">
        <ele>548.6</ele>
        <time>2021-08-15T14:14:52Z</time>
      </trkpt>
      <trkpt lat="44.14015" lon="2.96355">
        <ele>548.7</ele>
        <time>2021-08-15T14:14:54Z</time>
      </trkpt>
      <trkpt lat="44.14017" lon="2.96353">
        <ele>548.8</ele>
        <time>2021-08-15T14:14:56Z</time>
      </trkpt>
      <trkpt lat="44.14021" lon="2.96352">
        <ele>548.8</ele>
        <time>2021-08-15T14:14:58Z</time>
      </trkpt>
      <trkpt lat="44.14024" lon="2.96351">
        <ele>548.9</ele>
        <time>2021-08-15T14:15:00Z</time>
      </trkpt>
      <trkpt lat="44.14027" lon="2.9635">
        <ele>548.9</ele>
        <time>2021-08-15T14:15:02Z</time>
      </trkpt>
      <trkpt lat="44.14031" lon="2.96348">
        <ele>549</ele>
        <time>2021-08-15T14:15:04Z</time>
      </trkpt>
      <trkpt lat="44.14034" lon="2.96346">
        <ele>549</ele>
        <time>2021-08-15T14:15:06Z</time>
      </trkpt>
      <trkpt lat="44.14037" lon="2.96345">
        <ele>549</ele>
        <time>2021-08-15T14:15:08Z</time>
      </trkpt>
      <trkpt lat="44.1404" lon="2.96344">
        <ele>549.1</ele>
        <time>2021-08-15T14:15:10Z</time>
      </trkpt>
      <trkpt lat="44.14044" lon="2.96343">
        <ele>549.1</ele>
        <time>2021-08-15T14:15:12Z</time>
      </trkpt>
      <trkpt lat="44.14047" lon="2.96341">
        <ele>549.1</ele>
        <time>2021-08-15T14:15:14Z</time>
      </trkpt>
      <trkpt lat="44.14051" lon="2.9634">
        <ele>549.1</ele>
        <time>2021-08-15T14:15:16Z</time>
      </trkpt>
      <trkpt lat="44.14054" lon="2.96339">
        <ele>549.1</ele>
        <time>2021-08-15T14:15:18Z</time>
      </trkpt>
      <trkpt lat="44.14057" lon="2.96338">
        <ele>549.1</ele>
        <time>2021-08-15T14:15:20Z</time>
      </trkpt>
      <trkpt lat="44.14058" lon="2.96334">
        <ele>549</ele>
        <time>2021-08-15T14:15:22Z</time>
      </trkpt>
      <trkpt lat="44.14058" lon="2.9633">
        <ele>549.4</ele>
        <time>2021-08-15T14:15:24Z</time>
      </trkpt>
      <trkpt lat="44.14057" lon="2.96326">
        <ele>549.9</ele>
        <time>2021-08-15T14:15:26Z</time>
      </trkpt>
      <trkpt lat="44.14055" lon="2.96323">
        <ele>550.3</ele>
        <time>2021-08-15T14:15:28Z</time>
      </trkpt>
      <trkpt lat="44.14053" lon="2.9632">
        <ele>550.6</ele>
        <time>2021-08-15T14:15:30Z</time>
      </trkpt>
      <trkpt lat="44.14051" lon="2.96318">
        <ele>550.9</ele>
        <time>2021-08-15T14:15:32Z</time>
      </trkpt>
      <trkpt lat="44.14048" lon="2.96315">
        <ele>551.2</ele>
        <time>2021-08-15T14:15:34Z</time>
      </trkpt>
      <trkpt lat="44.14046" lon="2.96315">
        <ele>551.2</ele>
        <time>2021-08-15T14:15:36Z</time>
      </trkpt>
      <trkpt lat="44.14043" lon="2.96314">
        <ele>551.3</ele>
        <time>2021-08-15T14:15:38Z</time>
      </trkpt>
      <trkpt lat="44.1404" lon="2.96312">
        <ele>551.5</ele>
        <time>2021-08-15T14:15:40Z</time>
      </trkpt>
      <trkpt lat="44.14037" lon="2.96311">
        <ele>551.6</ele>
        <time>2021-08-15T14:15:42Z</time>
      </trkpt>
      <trkpt lat="44.14034" lon="2.96309">
        <ele>551.8</ele>
        <time>2021-08-15T14:15:44Z</time>
      </trkpt>
      <trkpt lat="44.14031" lon="2.96307">
        <ele>552</ele>
        <time>2021-08-15T14:15:46Z</time>
      </trkpt>
      <trkpt lat="44.14027" lon="2.96306">
        <ele>552.1</ele>
        <time>2021-08-15T14:15:48Z</time>
      </trkpt>
      <trkpt lat="44.14024" lon="2.96305">
        <ele>552.3</ele>
        <time>2021-08-15T14:15:50Z</time>
      </trkpt>
      <trkpt lat="44.14021" lon="2.96303">
        <ele>552.5</ele>
        <time>2021-08-15T14:15:52Z</time>
      </trkpt>
      <trkpt lat="44.14018" lon="2.96301">
        <ele>552.7</ele>
        <time>2021-08-15T14:15:54Z</time>
      </trkpt>
      <trkpt lat="44.14015" lon="2.96299">
        <ele>552.9</ele>
        <time>2021-08-15T14:15:56Z</time>
      </trkpt>
      <trkpt lat="44.14012" lon="2.96297">
        <ele>553</ele>
        <time>2021-08-15T14:15:58Z</time>
      </trkpt>
      <trkpt lat="44.14009" lon="2.96295">
        <ele>553.2</ele>
        <time>2021-08-15T14:16:00Z</time>
      </trkpt>
      <trkpt lat="44.14006" lon="2.96293">
        <ele>553.4</ele>
        <time>2021-08-15T14:16:02Z</time>
      </trkpt>
      <trkpt lat="44.14004" lon="2.96292">
        <ele>553.6</ele>
        <time>2021-08-15T14:16:04Z</time>
      </trkpt>
      <trkpt lat="44.14" lon="2.96289">
        <ele>553.7</ele>
        <time>2021-08-15T14:16:06Z</time>
      </trkpt>
      <trkpt lat="44.13997" lon="2.96287">
        <ele>554</ele>
        <time>2021-08-15T14:16:08Z</time>
      </trkpt>
      <trkpt lat="44.13994" lon="2.96285">
        <ele>554</ele>
        <time>2021-08-15T14:16:10Z</time>
      </trkpt>
      <trkpt lat="44.13991" lon="2.96283">
        <ele>554.2</ele>
        <time>2021-08-15T14:16:12Z</time>
      </trkpt>
      <trkpt lat="44.13988" lon="2.96281">
        <ele>554.4</ele>
        <time>2021-08-15T14:16:14Z</time>
      </trkpt>
      <trkpt lat="44.13985" lon="2.96279">
        <ele>554.6</ele>
        <time>2021-08-15T14:16:16Z</time>
      </trkpt>
      <trkpt lat="44.13982" lon="2.96277">
        <ele>554.8</ele>
        <time>2021-08-15T14:16:18Z</time>
      </trkpt>
      <trkpt lat="44.13979" lon="2.96275">
        <ele>555</ele>
        <time>2021-08-15T14:16:20Z</time>
      </trkpt>
      <trkpt lat="44.13976" lon="2.96271">
        <ele>555.3</ele>
        <time>2021-08-15T14:16:22Z</time>
      </trkpt>
      <trkpt lat="44.13973" lon="2.96269">
        <ele>555.6</ele>
        <time>2021-08-15T14:16:24Z</time>
      </trkpt>
      <trkpt lat="44.1397" lon="2.96266">
        <ele>556</ele>
        <time>2021-08-15T14:16:26Z</time>
      </trkpt>
      <trkpt lat="44.13967" lon="2.96263">
        <ele>556.3</ele>
        <time>2021-08-15T14:16:28Z</time>
      </trkpt>
      <trkpt lat="44.13965" lon="2.9626">
        <ele>556.7</ele>
        <time>2021-08-15T14:16:30Z</time>
      </trkpt>
      <trkpt lat="44.13962" lon="2.96257">
        <ele>557</ele>
        <time>2021-08-15T14:16:32Z</time>
      </trkpt>
      <trkpt lat="44.1396" lon="2.96254">
        <ele>557.4</ele>
        <time>2021-08-15T14:16:34Z</time>
      </trkpt>
      <trkpt lat="44.13957" lon="2.96252">
        <ele>557.7</ele>
        <time>2021-08-15T14:16:36Z</time>
      </trkpt>
      <trkpt lat="44.13954" lon="2.96249">
        <ele>558.2</ele>
        <time>2021-08-15T14:16:38Z</time>
      </trkpt>
      <trkpt lat="44.13951" lon="2.96246">
        <ele>558.7</ele>
        <time>2021-08-15T14:16:40Z</time>
      </trkpt>
      <trkpt lat="44.13948" lon="2.96243">
        <ele>559.2</ele>
        <time>2021-08-15T14:16:42Z</time>
      </trkpt>
      <trkpt lat="44.13946" lon="2.96241">
        <ele>559.8</ele>
        <time>2021-08-15T14:16:44Z</time>
      </trkpt>
      <trkpt lat="44.13943" lon="2.96238">
        <ele>560.3</ele>
        <time>2021-08-15T14:16:46Z</time>
      </trkpt>
      <trkpt lat="44.1394" lon="2.96236">
        <ele>560.6</ele>
        <time>2021-08-15T14:16:48Z</time>
      </trkpt>
      <trkpt lat="44.13937" lon="2.96234">
        <ele>561.1</ele>
        <time>2021-08-15T14:16:50Z</time>
      </trkpt>
      <trkpt lat="44.13934" lon="2.96232">
        <ele>561.6</ele>
        <time>2021-08-15T14:16:52Z</time>
      </trkpt>
      <trkpt lat="44.13931" lon="2.9623">
        <ele>562</ele>
        <time>2021-08-15T14:16:54Z</time>
      </trkpt>
      <trkpt lat="44.13928" lon="2.96228">
        <ele>562.3</ele>
        <time>2021-08-15T14:16:56Z</time>
      </trkpt>
      <trkpt lat="44.13925" lon="2.96227">
        <ele>562.6</ele>
        <time>2021-08-15T14:16:58Z</time>
      </trkpt>
      <trkpt lat="44.13922" lon="2.96225">
        <ele>563.1</ele>
        <time>2021-08-15T14:17:00Z</time>
      </trkpt>
      <trkpt lat="44.13919" lon="2.96222">
        <ele>563.6</ele>
        <time>2021-08-15T14:17:02Z</time>
      </trkpt>
      <trkpt lat="44.13916" lon="2.96221">
        <ele>563.9</ele>
        <time>2021-08-15T14:17:04Z</time>
      </trkpt>
      <trkpt lat="44.13913" lon="2.9622">
        <ele>564</ele>
        <time>2021-08-15T14:17:06Z</time>
      </trkpt>
      <trkpt lat="44.1391" lon="2.96218">
        <ele>564.2</ele>
        <time>2021-08-15T14:17:08Z</time>
      </trkpt>
      <trkpt lat="44.13907" lon="2.96217">
        <ele>564.3</ele>
        <time>2021-08-15T14:17:10Z</time>
      </trkpt>
      <trkpt lat="44.13904" lon="2.96216">
        <ele>564.4</ele>
        <time>2021-08-15T14:17:12Z</time>
      </trkpt>
      <trkpt lat="44.13901" lon="2.96216">
        <ele>564.4</ele>
        <time>2021-08-15T14:17:14Z</time>
      </trkpt>
      <trkpt lat="44.13898" lon="2.96214">
        <ele>564.6</ele>
        <time>2021-08-15T14:17:16Z</time>
      </trkpt>
      <trkpt lat="44.13894" lon="2.96213">
        <ele>564.6</ele>
        <time>2021-08-15T14:17:18Z</time>
      </trkpt>
      <trkpt lat="44.13891" lon="2.96212">
        <ele>564.7</ele>
        <time>2021-08-15T14:17:20Z</time>
      </trkpt>
      <trkpt lat="44.13888" lon="2.96211">
        <ele>564.8</ele>
        <time>2021-08-15T14:17:22Z</time>
      </trkpt>
      <trkpt lat="44.13884" lon="2.9621">
        <ele>564.8</ele>
        <time>2021-08-15T14:17:24Z</time>
      </trkpt>
      <trkpt lat="44.13881" lon="2.96209">
        <ele>564.9</ele>
        <time>2021-08-15T14:17:26Z</time>
      </trkpt>
      <trkpt lat="44.13878" lon="2.96207">
        <ele>565.1</ele>
        <time>2021-08-15T14:17:28Z</time>
      </trkpt>
      <trkpt lat="44.13875" lon="2.96205">
        <ele>565.4</ele>
        <time>2021-08-15T14:17:30Z</time>
      </trkpt>
      <trkpt lat="44.13871" lon="2.96203">
        <ele>565.6</ele>
        <time>2021-08-15T14:17:32Z</time>
      </trkpt>
      <trkpt lat="44.13868" lon="2.96201">
        <ele>565.8</ele>
        <time>2021-08-15T14:17:34Z</time>
      </trkpt>
      <trkpt lat="44.13865" lon="2.96199">
        <ele>566</ele>
        <time>2021-08-15T14:17:36Z</time>
      </trkpt>
      <trkpt lat="44.13862" lon="2.96197">
        <ele>566.2</ele>
        <time>2021-08-15T14:17:38Z</time>
      </trkpt>
      <trkpt lat="44.13858" lon="2.96195">
        <ele>566.5</ele>
        <time>2021-08-15T14:17:40Z</time>
      </trkpt>
      <trkpt lat="44.13855" lon="2.96191">
        <ele>566.9</ele>
        <time>2021-08-15T14:17:42Z</time>
      </trkpt>
      <trkpt lat="44.13851" lon="2.96189">
        <ele>567.2</ele>
        <time>2021-08-15T14:17:44Z</time>
      </trkpt>
      <trkpt lat="44.13848" lon="2.96186">
        <ele>567.5</ele>
        <time>2021-08-15T14:17:46Z</time>
      </trkpt>
      <trkpt lat="44.13843" lon="2.96182">
        <ele>568</ele>
        <time>2021-08-15T14:17:48Z</time>
      </trkpt>
      <trkpt lat="44.13839" lon="2.96177">
        <ele>568.5</ele>
        <time>2021-08-15T14:17:50Z</time>
      </trkpt>
      <trkpt lat="44.13834" lon="2.96174">
        <ele>568.9</ele>
        <time>2021-08-15T14:17:52Z</time>
      </trkpt>
      <trkpt lat="44.1383" lon="2.9617">
        <ele>569.1</ele>
        <time>2021-08-15T14:17:54Z</time>
      </trkpt>
      <trkpt lat="44.13826" lon="2.96167">
        <ele>569.2</ele>
        <time>2021-08-15T14:17:56Z</time>
      </trkpt>
      <trkpt lat="44.13821" lon="2.96163">
        <ele>569.2</ele>
        <time>2021-08-15T14:17:58Z</time>
      </trkpt>
      <trkpt lat="44.13816" lon="2.96158">
        <ele>569.2</ele>
        <time>2021-08-15T14:18:00Z</time>
      </trkpt>
      <trkpt lat="44.13812" lon="2.96153">
        <ele>569.4</ele>
        <time>2021-08-15T14:18:02Z</time>
      </trkpt>
      <trkpt lat="44.13808" lon="2.96148">
        <ele>569.5</ele>
        <time>2021-08-15T14:18:04Z</time>
      </trkpt>
      <trkpt lat="44.13804" lon="2.96144">
        <ele>569.5</ele>
        <time>2021-08-15T14:18:06Z</time>
      </trkpt>
      <trkpt lat="44.138" lon="2.96139">
        <ele>569.7</ele>
        <time>2021-08-15T14:18:08Z</time>
      </trkpt>
      <trkpt lat="44.13796" lon="2.96133">
        <ele>569.9</ele>
        <time>2021-08-15T14:18:10Z</time>
      </trkpt>
      <trkpt lat="44.13792" lon="2.96128">
        <ele>570.2</ele>
        <time>2021-08-15T14:18:12Z</time>
      </trkpt>
      <trkpt lat="44.13788" lon="2.96123">
        <ele>570.4</ele>
        <time>2021-08-15T14:18:14Z</time>
      </trkpt>
      <trkpt lat="44.13784" lon="2.96118">
        <ele>570.6</ele>
        <time>2021-08-15T14:18:16Z</time>
      </trkpt>
      <trkpt lat="44.1378" lon="2.96113">
        <ele>570.7</ele>
        <time>2021-08-15T14:18:18Z</time>
      </trkpt>
      <trkpt lat="44.13776" lon="2.96107">
        <ele>570.9</ele>
        <time>2021-08-15T14:18:20Z</time>
      </trkpt>
      <trkpt lat="44.13773" lon="2.96102">
        <ele>571.2</ele>
        <time>2021-08-15T14:18:22Z</time>
      </trkpt>
      <trkpt lat="44.13769" lon="2.96097">
        <ele>571.4</ele>
        <time>2021-08-15T14:18:24Z</time>
      </trkpt>
      <trkpt lat="44.13765" lon="2.96092">
        <ele>571.6</ele>
        <time>2021-08-15T14:18:26Z</time>
      </trkpt>
      <trkpt lat="44.13761" lon="2.96088">
        <ele>571.7</ele>
        <time>2021-08-15T14:18:28Z</time>
      </trkpt>
      <trkpt lat="44.13757" lon="2.96083">
        <ele>571.8</ele>
        <time>2021-08-15T14:18:30Z</time>
      </trkpt>
      <trkpt lat="44.13753" lon="2.96079">
        <ele>572.1</ele>
        <time>2021-08-15T14:18:32Z</time>
      </trkpt>
      <trkpt lat="44.13747" lon="2.96075">
        <ele>572.3</ele>
        <time>2021-08-15T14:18:34Z</time>
      </trkpt>
      <trkpt lat="44.13743" lon="2.96071">
        <ele>572.6</ele>
        <time>2021-08-15T14:18:36Z</time>
      </trkpt>
      <trkpt lat="44.13739" lon="2.96067">
        <ele>572.8</ele>
        <time>2021-08-15T14:18:38Z</time>
      </trkpt>
      <trkpt lat="44.13735" lon="2.96063">
        <ele>573.1</ele>
        <time>2021-08-15T14:18:40Z</time>
      </trkpt>
      <trkpt lat="44.1373" lon="2.9606">
        <ele>573.3</ele>
        <time>2021-08-15T14:18:42Z</time>
      </trkpt>
      <trkpt lat="44.13726" lon="2.96056">
        <ele>573.5</ele>
        <time>2021-08-15T14:18:44Z</time>
      </trkpt>
      <trkpt lat="44.13722" lon="2.96053">
        <ele>573.7</ele>
        <time>2021-08-15T14:18:46Z</time>
      </trkpt>
      <trkpt lat="44.13718" lon="2.9605">
        <ele>573.8</ele>
        <time>2021-08-15T14:18:48Z</time>
      </trkpt>
      <trkpt lat="44.13714" lon="2.96046">
        <ele>574</ele>
        <time>2021-08-15T14:18:50Z</time>
      </trkpt>
      <trkpt lat="44.13711" lon="2.96044">
        <ele>574.1</ele>
        <time>2021-08-15T14:18:52Z</time>
      </trkpt>
      <trkpt lat="44.13706" lon="2.96041">
        <ele>574.2</ele>
        <time>2021-08-15T14:18:54Z</time>
      </trkpt>
      <trkpt lat="44.13703" lon="2.96038">
        <ele>574.3</ele>
        <time>2021-08-15T14:18:56Z</time>
      </trkpt>
      <trkpt lat="44.13699" lon="2.96036">
        <ele>574.3</ele>
        <time>2021-08-15T14:18:58Z</time>
      </trkpt>
      <trkpt lat="44.13695" lon="2.96034">
        <ele>574.3</ele>
        <time>2021-08-15T14:19:00Z</time>
      </trkpt>
      <trkpt lat="44.13692" lon="2.96031">
        <ele>574.4</ele>
        <time>2021-08-15T14:19:02Z</time>
      </trkpt>
      <trkpt lat="44.13688" lon="2.96028">
        <ele>574.6</ele>
        <time>2021-08-15T14:19:04Z</time>
      </trkpt>
      <trkpt lat="44.13685" lon="2.96025">
        <ele>574.8</ele>
        <time>2021-08-15T14:19:06Z</time>
      </trkpt>
      <trkpt lat="44.13681" lon="2.96022">
        <ele>574.8</ele>
        <time>2021-08-15T14:19:08Z</time>
      </trkpt>
      <trkpt lat="44.13678" lon="2.96019">
        <ele>575.1</ele>
        <time>2021-08-15T14:19:10Z</time>
      </trkpt>
      <trkpt lat="44.13675" lon="2.96016">
        <ele>575.2</ele>
        <time>2021-08-15T14:19:12Z</time>
      </trkpt>
      <trkpt lat="44.13672" lon="2.96014">
        <ele>575.3</ele>
        <time>2021-08-15T14:19:14Z</time>
      </trkpt>
      <trkpt lat="44.13669" lon="2.9601">
        <ele>575.6</ele>
        <time>2021-08-15T14:19:16Z</time>
      </trkpt>
      <trkpt lat="44.13666" lon="2.96008">
        <ele>575.7</ele>
        <time>2021-08-15T14:19:18Z</time>
      </trkpt>
      <trkpt lat="44.13663" lon="2.96005">
        <ele>575.8</ele>
        <time>2021-08-15T14:19:20Z</time>
      </trkpt>
      <trkpt lat="44.1366" lon="2.96002">
        <ele>576</ele>
        <time>2021-08-15T14:19:22Z</time>
      </trkpt>
      <trkpt lat="44.13656" lon="2.95999">
        <ele>576.1</ele>
        <time>2021-08-15T14:19:24Z</time>
      </trkpt>
      <trkpt lat="44.13653" lon="2.95997">
        <ele>576.2</ele>
        <time>2021-08-15T14:19:26Z</time>
      </trkpt>
      <trkpt lat="44.13649" lon="2.95994">
        <ele>576.5</ele>
        <time>2021-08-15T14:19:28Z</time>
      </trkpt>
      <trkpt lat="44.13646" lon="2.95992">
        <ele>576.5</ele>
        <time>2021-08-15T14:19:30Z</time>
      </trkpt>
      <trkpt lat="44.13643" lon="2.95989">
        <ele>576.7</ele>
        <time>2021-08-15T14:19:32Z</time>
      </trkpt>
      <trkpt lat="44.1364" lon="2.95987">
        <ele>576.8</ele>
        <time>2021-08-15T14:19:34Z</time>
      </trkpt>
      <trkpt lat="44.13636" lon="2.95984">
        <ele>577</ele>
        <time>2021-08-15T14:19:36Z</time>
      </trkpt>
      <trkpt lat="44.13633" lon="2.95982">
        <ele>577.1</ele>
        <time>2021-08-15T14:19:38Z</time>
      </trkpt>
      <trkpt lat="44.13629" lon="2.95979">
        <ele>577.2</ele>
        <time>2021-08-15T14:19:40Z</time>
      </trkpt>
      <trkpt lat="44.13626" lon="2.95977">
        <ele>577.3</ele>
        <time>2021-08-15T14:19:42Z</time>
      </trkpt>
      <trkpt lat="44.13623" lon="2.95974">
        <ele>577.5</ele>
        <time>2021-08-15T14:19:44Z</time>
      </trkpt>
      <trkpt lat="44.1362" lon="2.95971">
        <ele>577.6</ele>
        <time>2021-08-15T14:19:46Z</time>
      </trkpt>
      <trkpt lat="44.13616" lon="2.95969">
        <ele>577.7</ele>
        <time>2021-08-15T14:19:48Z</time>
      </trkpt>
      <trkpt lat="44.13613" lon="2.95967">
        <ele>577.7</ele>
        <time>2021-08-15T14:19:50Z</time>
      </trkpt>
      <trkpt lat="44.13609" lon="2.95964">
        <ele>577.8</ele>
        <time>2021-08-15T14:19:52Z</time>
      </trkpt>
      <trkpt lat="44.13606" lon="2.95962">
        <ele>577.8</ele>
        <time>2021-08-15T14:19:54Z</time>
      </trkpt>
      <trkpt lat="44.13603" lon="2.95959">
        <ele>578</ele>
        <time>2021-08-15T14:19:56Z</time>
      </trkpt>
      <trkpt lat="44.136" lon="2.95957">
        <ele>578</ele>
        <time>2021-08-15T14:19:58Z</time>
      </trkpt>
      <trkpt lat="44.13597" lon="2.95954">
        <ele>578.2</ele>
        <time>2021-08-15T14:20:00Z</time>
      </trkpt>
      <trkpt lat="44.13594" lon="2.95952">
        <ele>578.2</ele>
        <time>2021-08-15T14:20:02Z</time>
      </trkpt>
      <trkpt lat="44.13591" lon="2.9595">
        <ele>578.2</ele>
        <time>2021-08-15T14:20:04Z</time>
      </trkpt>
      <trkpt lat="44.13587" lon="2.95947">
        <ele>578.3</ele>
        <time>2021-08-15T14:20:06Z</time>
      </trkpt>
      <trkpt lat="44.13584" lon="2.95944">
        <ele>578.5</ele>
        <time>2021-08-15T14:20:08Z</time>
      </trkpt>
      <trkpt lat="44.13581" lon="2.95941">
        <ele>578.5</ele>
        <time>2021-08-15T14:20:10Z</time>
      </trkpt>
      <trkpt lat="44.13577" lon="2.95937">
        <ele>578.7</ele>
        <time>2021-08-15T14:20:12Z</time>
      </trkpt>
      <trkpt lat="44.13574" lon="2.95933">
        <ele>578.9</ele>
        <time>2021-08-15T14:20:14Z</time>
      </trkpt>
      <trkpt lat="44.13571" lon="2.95929">
        <ele>579.3</ele>
        <time>2021-08-15T14:20:16Z</time>
      </trkpt>
      <trkpt lat="44.13567" lon="2.95924">
        <ele>579.6</ele>
        <time>2021-08-15T14:20:18Z</time>
      </trkpt>
      <trkpt lat="44.13564" lon="2.95919">
        <ele>580.1</ele>
        <time>2021-08-15T14:20:20Z</time>
      </trkpt>
      <trkpt lat="44.13561" lon="2.95914">
        <ele>580.5</ele>
        <time>2021-08-15T14:20:22Z</time>
      </trkpt>
      <trkpt lat="44.13557" lon="2.95909">
        <ele>580.6</ele>
        <time>2021-08-15T14:20:24Z</time>
      </trkpt>
      <trkpt lat="44.13554" lon="2.95904">
        <ele>580.7</ele>
        <time>2021-08-15T14:20:26Z</time>
      </trkpt>
      <trkpt lat="44.13549" lon="2.959">
        <ele>580.8</ele>
        <time>2021-08-15T14:20:28Z</time>
      </trkpt>
      <trkpt lat="44.13545" lon="2.95894">
        <ele>581.1</ele>
        <time>2021-08-15T14:20:30Z</time>
      </trkpt>
      <trkpt lat="44.1354" lon="2.95889">
        <ele>581.2</ele>
        <time>2021-08-15T14:20:32Z</time>
      </trkpt>
      <trkpt lat="44.13535" lon="2.95882">
        <ele>581.5</ele>
        <time>2021-08-15T14:20:34Z</time>
      </trkpt>
      <trkpt lat="44.13529" lon="2.95876">
        <ele>581.7</ele>
        <time>2021-08-15T14:20:36Z</time>
      </trkpt>
      <trkpt lat="44.13523" lon="2.9587">
        <ele>581.9</ele>
        <time>2021-08-15T14:20:38Z</time>
      </trkpt>
      <trkpt lat="44.13517" lon="2.95863">
        <ele>582.2</ele>
        <time>2021-08-15T14:20:40Z</time>
      </trkpt>
      <trkpt lat="44.13511" lon="2.95857">
        <ele>582.5</ele>
        <time>2021-08-15T14:20:42Z</time>
      </trkpt>
      <trkpt lat="44.13506" lon="2.95851">
        <ele>582.8</ele>
        <time>2021-08-15T14:20:44Z</time>
      </trkpt>
      <trkpt lat="44.135" lon="2.95844">
        <ele>583.3</ele>
        <time>2021-08-15T14:20:46Z</time>
      </trkpt>
      <trkpt lat="44.13494" lon="2.95839">
        <ele>583.8</ele>
        <time>2021-08-15T14:20:48Z</time>
      </trkpt>
      <trkpt lat="44.13489" lon="2.95833">
        <ele>584.3</ele>
        <time>2021-08-15T14:20:50Z</time>
      </trkpt>
      <trkpt lat="44.13483" lon="2.95827">
        <ele>585.6</ele>
        <time>2021-08-15T14:20:52Z</time>
      </trkpt>
      <trkpt lat="44.13478" lon="2.95821">
        <ele>587.2</ele>
        <time>2021-08-15T14:20:54Z</time>
      </trkpt>
      <trkpt lat="44.13473" lon="2.95816">
        <ele>588.4</ele>
        <time>2021-08-15T14:20:56Z</time>
      </trkpt>
      <trkpt lat="44.13467" lon="2.95812">
        <ele>589.3</ele>
        <time>2021-08-15T14:20:58Z</time>
      </trkpt>
      <trkpt lat="44.13462" lon="2.95806">
        <ele>590.5</ele>
        <time>2021-08-15T14:21:00Z</time>
      </trkpt>
      <trkpt lat="44.13456" lon="2.95803">
        <ele>591.2</ele>
        <time>2021-08-15T14:21:02Z</time>
      </trkpt>
      <trkpt lat="44.13451" lon="2.95798">
        <ele>592.1</ele>
        <time>2021-08-15T14:21:04Z</time>
      </trkpt>
      <trkpt lat="44.13446" lon="2.95796">
        <ele>592.6</ele>
        <time>2021-08-15T14:21:06Z</time>
      </trkpt>
      <trkpt lat="44.1344" lon="2.95793">
        <ele>593</ele>
        <time>2021-08-15T14:21:08Z</time>
      </trkpt>
      <trkpt lat="44.13435" lon="2.9579">
        <ele>593.3</ele>
        <time>2021-08-15T14:21:10Z</time>
      </trkpt>
      <trkpt lat="44.13429" lon="2.95788">
        <ele>593.5</ele>
        <time>2021-08-15T14:21:12Z</time>
      </trkpt>
      <trkpt lat="44.13423" lon="2.95786">
        <ele>593.6</ele>
        <time>2021-08-15T14:21:14Z</time>
      </trkpt>
      <trkpt lat="44.13417" lon="2.95785">
        <ele>593.4</ele>
        <time>2021-08-15T14:21:16Z</time>
      </trkpt>
      <trkpt lat="44.13411" lon="2.95785">
        <ele>593.6</ele>
        <time>2021-08-15T14:21:18Z</time>
      </trkpt>
      <trkpt lat="44.13405" lon="2.95784">
        <ele>593.8</ele>
        <time>2021-08-15T14:21:20Z</time>
      </trkpt>
      <trkpt lat="44.13399" lon="2.95783">
        <ele>594</ele>
        <time>2021-08-15T14:21:22Z</time>
      </trkpt>
      <trkpt lat="44.13392" lon="2.95782">
        <ele>594.2</ele>
        <time>2021-08-15T14:21:24Z</time>
      </trkpt>
      <trkpt lat="44.13387" lon="2.95781">
        <ele>594.5</ele>
        <time>2021-08-15T14:21:26Z</time>
      </trkpt>
      <trkpt lat="44.13381" lon="2.9578">
        <ele>594.8</ele>
        <time>2021-08-15T14:21:28Z</time>
      </trkpt>
      <trkpt lat="44.13375" lon="2.95779">
        <ele>594.8</ele>
        <time>2021-08-15T14:21:30Z</time>
      </trkpt>
      <trkpt lat="44.13369" lon="2.95778">
        <ele>595.2</ele>
        <time>2021-08-15T14:21:32Z</time>
      </trkpt>
      <trkpt lat="44.13363" lon="2.95777">
        <ele>595.4</ele>
        <time>2021-08-15T14:21:34Z</time>
      </trkpt>
      <trkpt lat="44.13357" lon="2.95776">
        <ele>595.7</ele>
        <time>2021-08-15T14:21:36Z</time>
      </trkpt>
      <trkpt lat="44.13351" lon="2.95776">
        <ele>595.7</ele>
        <time>2021-08-15T14:21:38Z</time>
      </trkpt>
      <trkpt lat="44.13345" lon="2.95776">
        <ele>595.7</ele>
        <time>2021-08-15T14:21:40Z</time>
      </trkpt>
      <trkpt lat="44.13339" lon="2.95775">
        <ele>595.9</ele>
        <time>2021-08-15T14:21:42Z</time>
      </trkpt>
      <trkpt lat="44.13333" lon="2.95774">
        <ele>596.1</ele>
        <time>2021-08-15T14:21:44Z</time>
      </trkpt>
      <trkpt lat="44.13327" lon="2.95774">
        <ele>595.3</ele>
        <time>2021-08-15T14:21:46Z</time>
      </trkpt>
      <trkpt lat="44.13321" lon="2.95774">
        <ele>594.9</ele>
        <time>2021-08-15T14:21:48Z</time>
      </trkpt>
      <trkpt lat="44.13314" lon="2.95773">
        <ele>594.4</ele>
        <time>2021-08-15T14:21:50Z</time>
      </trkpt>
      <trkpt lat="44.13308" lon="2.95772">
        <ele>594.1</ele>
        <time>2021-08-15T14:21:52Z</time>
      </trkpt>
      <trkpt lat="44.13303" lon="2.95772">
        <ele>593.8</ele>
        <time>2021-08-15T14:21:54Z</time>
      </trkpt>
      <trkpt lat="44.13297" lon="2.95771">
        <ele>593.5</ele>
        <time>2021-08-15T14:21:56Z</time>
      </trkpt>
      <trkpt lat="44.13291" lon="2.95769">
        <ele>593.4</ele>
        <time>2021-08-15T14:21:58Z</time>
      </trkpt>
      <trkpt lat="44.13285" lon="2.95767">
        <ele>593.4</ele>
        <time>2021-08-15T14:22:00Z</time>
      </trkpt>
      <trkpt lat="44.1328" lon="2.95766">
        <ele>593.1</ele>
        <time>2021-08-15T14:22:02Z</time>
      </trkpt>
      <trkpt lat="44.13275" lon="2.95764">
        <ele>593.2</ele>
        <time>2021-08-15T14:22:04Z</time>
      </trkpt>
      <trkpt lat="44.13269" lon="2.95762">
        <ele>593.2</ele>
        <time>2021-08-15T14:22:06Z</time>
      </trkpt>
      <trkpt lat="44.13264" lon="2.95761">
        <ele>593.3</ele>
        <time>2021-08-15T14:22:08Z</time>
      </trkpt>
      <trkpt lat="44.13259" lon="2.95759">
        <ele>593.3</ele>
        <time>2021-08-15T14:22:10Z</time>
      </trkpt>
      <trkpt lat="44.13254" lon="2.95757">
        <ele>593.4</ele>
        <time>2021-08-15T14:22:12Z</time>
      </trkpt>
      <trkpt lat="44.13249" lon="2.95754">
        <ele>593.5</ele>
        <time>2021-08-15T14:22:14Z</time>
      </trkpt>
      <trkpt lat="44.13244" lon="2.95751">
        <ele>593.4</ele>
        <time>2021-08-15T14:22:16Z</time>
      </trkpt>
      <trkpt lat="44.13239" lon="2.95749">
        <ele>593.1</ele>
        <time>2021-08-15T14:22:18Z</time>
      </trkpt>
      <trkpt lat="44.13234" lon="2.95746">
        <ele>592.9</ele>
        <time>2021-08-15T14:22:20Z</time>
      </trkpt>
      <trkpt lat="44.13229" lon="2.95742">
        <ele>592.9</ele>
        <time>2021-08-15T14:22:22Z</time>
      </trkpt>
      <trkpt lat="44.13224" lon="2.95739">
        <ele>592.9</ele>
        <time>2021-08-15T14:22:24Z</time>
      </trkpt>
      <trkpt lat="44.13219" lon="2.95735">
        <ele>593.1</ele>
        <time>2021-08-15T14:22:26Z</time>
      </trkpt>
      <trkpt lat="44.13215" lon="2.95731">
        <ele>593.4</ele>
        <time>2021-08-15T14:22:28Z</time>
      </trkpt>
      <trkpt lat="44.1321" lon="2.95727">
        <ele>593.7</ele>
        <time>2021-08-15T14:22:30Z</time>
      </trkpt>
      <trkpt lat="44.13205" lon="2.95723">
        <ele>594</ele>
        <time>2021-08-15T14:22:32Z</time>
      </trkpt>
      <trkpt lat="44.132" lon="2.95719">
        <ele>594.2</ele>
        <time>2021-08-15T14:22:34Z</time>
      </trkpt>
      <trkpt lat="44.13196" lon="2.95716">
        <ele>594.4</ele>
        <time>2021-08-15T14:22:36Z</time>
      </trkpt>
      <trkpt lat="44.13191" lon="2.95712">
        <ele>594.7</ele>
        <time>2021-08-15T14:22:38Z</time>
      </trkpt>
      <trkpt lat="44.13186" lon="2.95708">
        <ele>594.9</ele>
        <time>2021-08-15T14:22:40Z</time>
      </trkpt>
      <trkpt lat="44.13182" lon="2.95704">
        <ele>595.1</ele>
        <time>2021-08-15T14:22:42Z</time>
      </trkpt>
      <trkpt lat="44.13177" lon="2.95701">
        <ele>595.2</ele>
        <time>2021-08-15T14:22:44Z</time>
      </trkpt>
      <trkpt lat="44.13173" lon="2.95698">
        <ele>595.3</ele>
        <time>2021-08-15T14:22:46Z</time>
      </trkpt>
      <trkpt lat="44.13168" lon="2.95694">
        <ele>595.5</ele>
        <time>2021-08-15T14:22:48Z</time>
      </trkpt>
      <trkpt lat="44.13163" lon="2.95691">
        <ele>595.4</ele>
        <time>2021-08-15T14:22:50Z</time>
      </trkpt>
      <trkpt lat="44.13159" lon="2.95687">
        <ele>595.4</ele>
        <time>2021-08-15T14:22:52Z</time>
      </trkpt>
      <trkpt lat="44.13154" lon="2.95683">
        <ele>595.4</ele>
        <time>2021-08-15T14:22:54Z</time>
      </trkpt>
      <trkpt lat="44.1315" lon="2.95679">
        <ele>595.8</ele>
        <time>2021-08-15T14:22:56Z</time>
      </trkpt>
      <trkpt lat="44.13145" lon="2.95675">
        <ele>595.9</ele>
        <time>2021-08-15T14:22:58Z</time>
      </trkpt>
      <trkpt lat="44.1314" lon="2.95671">
        <ele>595.9</ele>
        <time>2021-08-15T14:23:00Z</time>
      </trkpt>
      <trkpt lat="44.13136" lon="2.95667">
        <ele>596</ele>
        <time>2021-08-15T14:23:02Z</time>
      </trkpt>
      <trkpt lat="44.13133" lon="2.95663">
        <ele>596.7</ele>
        <time>2021-08-15T14:23:04Z</time>
      </trkpt>
      <trkpt lat="44.13128" lon="2.95659">
        <ele>597</ele>
        <time>2021-08-15T14:23:06Z</time>
      </trkpt>
      <trkpt lat="44.13122" lon="2.95655">
        <ele>597</ele>
        <time>2021-08-15T14:23:08Z</time>
      </trkpt>
      <trkpt lat="44.13117" lon="2.95651">
        <ele>597.2</ele>
        <time>2021-08-15T14:23:10Z</time>
      </trkpt>
      <trkpt lat="44.13113" lon="2.95646">
        <ele>597.9</ele>
        <time>2021-08-15T14:23:12Z</time>
      </trkpt>
      <trkpt lat="44.13108" lon="2.95642">
        <ele>598.2</ele>
        <time>2021-08-15T14:23:14Z</time>
      </trkpt>
      <trkpt lat="44.13103" lon="2.95638">
        <ele>598.4</ele>
        <time>2021-08-15T14:23:16Z</time>
      </trkpt>
      <trkpt lat="44.13098" lon="2.95633">
        <ele>599</ele>
        <time>2021-08-15T14:23:18Z</time>
      </trkpt>
      <trkpt lat="44.13093" lon="2.9563">
        <ele>599</ele>
        <time>2021-08-15T14:23:20Z</time>
      </trkpt>
      <trkpt lat="44.13089" lon="2.95626">
        <ele>599.3</ele>
        <time>2021-08-15T14:23:22Z</time>
      </trkpt>
      <trkpt lat="44.13084" lon="2.95623">
        <ele>599.5</ele>
        <time>2021-08-15T14:23:24Z</time>
      </trkpt>
      <trkpt lat="44.13078" lon="2.95619">
        <ele>599.9</ele>
        <time>2021-08-15T14:23:26Z</time>
      </trkpt>
      <trkpt lat="44.13074" lon="2.95614">
        <ele>600.6</ele>
        <time>2021-08-15T14:23:28Z</time>
      </trkpt>
      <trkpt lat="44.13069" lon="2.95611">
        <ele>601.1</ele>
        <time>2021-08-15T14:23:30Z</time>
      </trkpt>
      <trkpt lat="44.13064" lon="2.95607">
        <ele>601.5</ele>
        <time>2021-08-15T14:23:32Z</time>
      </trkpt>
      <trkpt lat="44.13058" lon="2.95603">
        <ele>601.8</ele>
        <time>2021-08-15T14:23:34Z</time>
      </trkpt>
      <trkpt lat="44.13053" lon="2.95599">
        <ele>602.3</ele>
        <time>2021-08-15T14:23:36Z</time>
      </trkpt>
      <trkpt lat="44.13048" lon="2.95594">
        <ele>603.1</ele>
        <time>2021-08-15T14:23:38Z</time>
      </trkpt>
      <trkpt lat="44.13042" lon="2.9559">
        <ele>603.7</ele>
        <time>2021-08-15T14:23:40Z</time>
      </trkpt>
      <trkpt lat="44.13037" lon="2.95585">
        <ele>604.3</ele>
        <time>2021-08-15T14:23:42Z</time>
      </trkpt>
      <trkpt lat="44.13032" lon="2.95582">
        <ele>604.8</ele>
        <time>2021-08-15T14:23:44Z</time>
      </trkpt>
      <trkpt lat="44.13027" lon="2.95578">
        <ele>605.3</ele>
        <time>2021-08-15T14:23:46Z</time>
      </trkpt>
      <trkpt lat="44.13021" lon="2.95576">
        <ele>605.1</ele>
        <time>2021-08-15T14:23:48Z</time>
      </trkpt>
      <trkpt lat="44.13015" lon="2.95573">
        <ele>604.9</ele>
        <time>2021-08-15T14:23:50Z</time>
      </trkpt>
      <trkpt lat="44.13009" lon="2.95571">
        <ele>604.7</ele>
        <time>2021-08-15T14:23:52Z</time>
      </trkpt>
      <trkpt lat="44.13003" lon="2.9557">
        <ele>603.9</ele>
        <time>2021-08-15T14:23:54Z</time>
      </trkpt>
      <trkpt lat="44.12998" lon="2.95568">
        <ele>603.7</ele>
        <time>2021-08-15T14:23:56Z</time>
      </trkpt>
      <trkpt lat="44.12991" lon="2.95568">
        <ele>603.5</ele>
        <time>2021-08-15T14:23:58Z</time>
      </trkpt>
      <trkpt lat="44.12985" lon="2.95567">
        <ele>603.1</ele>
        <time>2021-08-15T14:24:00Z</time>
      </trkpt>
      <trkpt lat="44.12978" lon="2.95566">
        <ele>602.8</ele>
        <time>2021-08-15T14:24:02Z</time>
      </trkpt>
      <trkpt lat="44.12971" lon="2.95567">
        <ele>601.9</ele>
        <time>2021-08-15T14:24:04Z</time>
      </trkpt>
      <trkpt lat="44.12963" lon="2.95567">
        <ele>601</ele>
        <time>2021-08-15T14:24:06Z</time>
      </trkpt>
      <trkpt lat="44.12956" lon="2.95567">
        <ele>600.5</ele>
        <time>2021-08-15T14:24:08Z</time>
      </trkpt>
      <trkpt lat="44.12949" lon="2.95568">
        <ele>599.5</ele>
        <time>2021-08-15T14:24:10Z</time>
      </trkpt>
      <trkpt lat="44.12941" lon="2.9557">
        <ele>598.5</ele>
        <time>2021-08-15T14:24:12Z</time>
      </trkpt>
      <trkpt lat="44.12934" lon="2.95571">
        <ele>597.5</ele>
        <time>2021-08-15T14:24:14Z</time>
      </trkpt>
      <trkpt lat="44.12926" lon="2.95572">
        <ele>596.8</ele>
        <time>2021-08-15T14:24:16Z</time>
      </trkpt>
      <trkpt lat="44.12918" lon="2.95572">
        <ele>596.1</ele>
        <time>2021-08-15T14:24:18Z</time>
      </trkpt>
      <trkpt lat="44.12911" lon="2.9557">
        <ele>595.1</ele>
        <time>2021-08-15T14:24:20Z</time>
      </trkpt>
      <trkpt lat="44.12904" lon="2.95564">
        <ele>594.3</ele>
        <time>2021-08-15T14:24:22Z</time>
      </trkpt>
      <trkpt lat="44.12899" lon="2.95555">
        <ele>594.2</ele>
        <time>2021-08-15T14:24:24Z</time>
      </trkpt>
      <trkpt lat="44.12895" lon="2.95545">
        <ele>594.6</ele>
        <time>2021-08-15T14:24:26Z</time>
      </trkpt>
      <trkpt lat="44.12893" lon="2.95536">
        <ele>595.3</ele>
        <time>2021-08-15T14:24:28Z</time>
      </trkpt>
      <trkpt lat="44.12893" lon="2.95526">
        <ele>596.5</ele>
        <time>2021-08-15T14:24:30Z</time>
      </trkpt>
      <trkpt lat="44.12892" lon="2.95517">
        <ele>597.6</ele>
        <time>2021-08-15T14:24:32Z</time>
      </trkpt>
      <trkpt lat="44.12893" lon="2.95507">
        <ele>599.1</ele>
        <time>2021-08-15T14:24:34Z</time>
      </trkpt>
      <trkpt lat="44.12894" lon="2.95498">
        <ele>600.4</ele>
        <time>2021-08-15T14:24:36Z</time>
      </trkpt>
      <trkpt lat="44.12895" lon="2.95489">
        <ele>600.3</ele>
        <time>2021-08-15T14:24:38Z</time>
      </trkpt>
      <trkpt lat="44.12897" lon="2.9548">
        <ele>600.5</ele>
        <time>2021-08-15T14:24:40Z</time>
      </trkpt>
      <trkpt lat="44.12898" lon="2.95472">
        <ele>600.7</ele>
        <time>2021-08-15T14:24:42Z</time>
      </trkpt>
      <trkpt lat="44.12899" lon="2.95463">
        <ele>600.6</ele>
        <time>2021-08-15T14:24:44Z</time>
      </trkpt>
      <trkpt lat="44.12901" lon="2.95455">
        <ele>600.9</ele>
        <time>2021-08-15T14:24:46Z</time>
      </trkpt>
      <trkpt lat="44.12903" lon="2.95448">
        <ele>601.5</ele>
        <time>2021-08-15T14:24:48Z</time>
      </trkpt>
      <trkpt lat="44.12905" lon="2.9544">
        <ele>601.8</ele>
        <time>2021-08-15T14:24:50Z</time>
      </trkpt>
      <trkpt lat="44.12907" lon="2.95432">
        <ele>602.1</ele>
        <time>2021-08-15T14:24:52Z</time>
      </trkpt>
      <trkpt lat="44.12909" lon="2.95425">
        <ele>602.6</ele>
        <time>2021-08-15T14:24:54Z</time>
      </trkpt>
      <trkpt lat="44.12912" lon="2.95418">
        <ele>603.1</ele>
        <time>2021-08-15T14:24:56Z</time>
      </trkpt>
      <trkpt lat="44.12914" lon="2.95411">
        <ele>603.6</ele>
        <time>2021-08-15T14:24:58Z</time>
      </trkpt>
      <trkpt lat="44.12916" lon="2.95404">
        <ele>603.8</ele>
        <time>2021-08-15T14:25:00Z</time>
      </trkpt>
      <trkpt lat="44.12918" lon="2.95397">
        <ele>604.4</ele>
        <time>2021-08-15T14:25:02Z</time>
      </trkpt>
      <trkpt lat="44.12919" lon="2.95391">
        <ele>604.9</ele>
        <time>2021-08-15T14:25:04Z</time>
      </trkpt>
      <trkpt lat="44.12921" lon="2.95383">
        <ele>605.4</ele>
        <time>2021-08-15T14:25:06Z</time>
      </trkpt>
      <trkpt lat="44.12924" lon="2.95376">
        <ele>606.1</ele>
        <time>2021-08-15T14:25:08Z</time>
      </trkpt>
      <trkpt lat="44.12925" lon="2.95369">
        <ele>606.4</ele>
        <time>2021-08-15T14:25:10Z</time>
      </trkpt>
      <trkpt lat="44.12927" lon="2.95362">
        <ele>607</ele>
        <time>2021-08-15T14:25:12Z</time>
      </trkpt>
      <trkpt lat="44.12929" lon="2.95355">
        <ele>607.7</ele>
        <time>2021-08-15T14:25:14Z</time>
      </trkpt>
      <trkpt lat="44.12931" lon="2.95348">
        <ele>608</ele>
        <time>2021-08-15T14:25:16Z</time>
      </trkpt>
      <trkpt lat="44.12933" lon="2.9534">
        <ele>608.5</ele>
        <time>2021-08-15T14:25:18Z</time>
      </trkpt>
      <trkpt lat="44.12935" lon="2.95332">
        <ele>609.1</ele>
        <time>2021-08-15T14:25:20Z</time>
      </trkpt>
      <trkpt lat="44.12938" lon="2.95323">
        <ele>609.4</ele>
        <time>2021-08-15T14:25:22Z</time>
      </trkpt>
      <trkpt lat="44.1294" lon="2.95315">
        <ele>609.5</ele>
        <time>2021-08-15T14:25:24Z</time>
      </trkpt>
      <trkpt lat="44.12942" lon="2.95307">
        <ele>609.3</ele>
        <time>2021-08-15T14:25:26Z</time>
      </trkpt>
      <trkpt lat="44.12944" lon="2.95298">
        <ele>609.3</ele>
        <time>2021-08-15T14:25:28Z</time>
      </trkpt>
      <trkpt lat="44.12947" lon="2.9529">
        <ele>609.4</ele>
        <time>2021-08-15T14:25:30Z</time>
      </trkpt>
      <trkpt lat="44.12948" lon="2.95282">
        <ele>609.1</ele>
        <time>2021-08-15T14:25:32Z</time>
      </trkpt>
      <trkpt lat="44.12951" lon="2.95275">
        <ele>609.2</ele>
        <time>2021-08-15T14:25:34Z</time>
      </trkpt>
      <trkpt lat="44.12953" lon="2.95267">
        <ele>609</ele>
        <time>2021-08-15T14:25:36Z</time>
      </trkpt>
      <trkpt lat="44.12955" lon="2.9526">
        <ele>608.8</ele>
        <time>2021-08-15T14:25:38Z</time>
      </trkpt>
      <trkpt lat="44.12958" lon="2.95252">
        <ele>608.8</ele>
        <time>2021-08-15T14:25:40Z</time>
      </trkpt>
      <trkpt lat="44.12961" lon="2.95245">
        <ele>608.8</ele>
        <time>2021-08-15T14:25:42Z</time>
      </trkpt>
      <trkpt lat="44.12965" lon="2.95239">
        <ele>608.7</ele>
        <time>2021-08-15T14:25:44Z</time>
      </trkpt>
      <trkpt lat="44.12968" lon="2.95233">
        <ele>608.8</ele>
        <time>2021-08-15T14:25:46Z</time>
      </trkpt>
      <trkpt lat="44.12972" lon="2.95228">
        <ele>609</ele>
        <time>2021-08-15T14:25:48Z</time>
      </trkpt>
      <trkpt lat="44.12975" lon="2.95222">
        <ele>608.8</ele>
        <time>2021-08-15T14:25:50Z</time>
      </trkpt>
      <trkpt lat="44.12979" lon="2.95218">
        <ele>609.2</ele>
        <time>2021-08-15T14:25:52Z</time>
      </trkpt>
      <trkpt lat="44.12982" lon="2.95212">
        <ele>609</ele>
        <time>2021-08-15T14:25:54Z</time>
      </trkpt>
      <trkpt lat="44.12986" lon="2.95207">
        <ele>608.9</ele>
        <time>2021-08-15T14:25:56Z</time>
      </trkpt>
      <trkpt lat="44.12989" lon="2.95203">
        <ele>608.9</ele>
        <time>2021-08-15T14:25:58Z</time>
      </trkpt>
      <trkpt lat="44.12993" lon="2.95198">
        <ele>608.7</ele>
        <time>2021-08-15T14:26:00Z</time>
      </trkpt>
      <trkpt lat="44.12997" lon="2.95193">
        <ele>608.7</ele>
        <time>2021-08-15T14:26:02Z</time>
      </trkpt>
      <trkpt lat="44.13002" lon="2.95189">
        <ele>609</ele>
        <time>2021-08-15T14:26:04Z</time>
      </trkpt>
      <trkpt lat="44.13007" lon="2.95186">
        <ele>609.5</ele>
        <time>2021-08-15T14:26:06Z</time>
      </trkpt>
      <trkpt lat="44.13011" lon="2.95183">
        <ele>609.8</ele>
        <time>2021-08-15T14:26:08Z</time>
      </trkpt>
      <trkpt lat="44.13016" lon="2.9518">
        <ele>610.4</ele>
        <time>2021-08-15T14:26:10Z</time>
      </trkpt>
      <trkpt lat="44.13021" lon="2.95177">
        <ele>611</ele>
        <time>2021-08-15T14:26:12Z</time>
      </trkpt>
      <trkpt lat="44.13026" lon="2.95174">
        <ele>611.7</ele>
        <time>2021-08-15T14:26:14Z</time>
      </trkpt>
      <trkpt lat="44.13032" lon="2.95173">
        <ele>612.6</ele>
        <time>2021-08-15T14:26:16Z</time>
      </trkpt>
      <trkpt lat="44.13037" lon="2.9517">
        <ele>613.2</ele>
        <time>2021-08-15T14:26:18Z</time>
      </trkpt>
      <trkpt lat="44.13042" lon="2.95168">
        <ele>614</ele>
        <time>2021-08-15T14:26:20Z</time>
      </trkpt>
      <trkpt lat="44.13047" lon="2.95166">
        <ele>614.7</ele>
        <time>2021-08-15T14:26:22Z</time>
      </trkpt>
      <trkpt lat="44.13052" lon="2.95164">
        <ele>615.1</ele>
        <time>2021-08-15T14:26:24Z</time>
      </trkpt>
      <trkpt lat="44.13057" lon="2.95162">
        <ele>616</ele>
        <time>2021-08-15T14:26:26Z</time>
      </trkpt>
      <trkpt lat="44.13062" lon="2.9516">
        <ele>616.5</ele>
        <time>2021-08-15T14:26:28Z</time>
      </trkpt>
      <trkpt lat="44.13068" lon="2.95157">
        <ele>617</ele>
        <time>2021-08-15T14:26:30Z</time>
      </trkpt>
      <trkpt lat="44.13073" lon="2.95157">
        <ele>618.2</ele>
        <time>2021-08-15T14:26:32Z</time>
      </trkpt>
      <trkpt lat="44.13078" lon="2.95157">
        <ele>619.2</ele>
        <time>2021-08-15T14:26:34Z</time>
      </trkpt>
      <trkpt lat="44.13082" lon="2.95156">
        <ele>620.1</ele>
        <time>2021-08-15T14:26:36Z</time>
      </trkpt>
      <trkpt lat="44.13087" lon="2.95155">
        <ele>620.7</ele>
        <time>2021-08-15T14:26:38Z</time>
      </trkpt>
      <trkpt lat="44.13092" lon="2.95154">
        <ele>620.9</ele>
        <time>2021-08-15T14:26:40Z</time>
      </trkpt>
      <trkpt lat="44.13097" lon="2.95152">
        <ele>621.2</ele>
        <time>2021-08-15T14:26:42Z</time>
      </trkpt>
      <trkpt lat="44.13102" lon="2.95151">
        <ele>621.6</ele>
        <time>2021-08-15T14:26:44Z</time>
      </trkpt>
      <trkpt lat="44.13106" lon="2.9515">
        <ele>622</ele>
        <time>2021-08-15T14:26:46Z</time>
      </trkpt>
      <trkpt lat="44.13111" lon="2.95148">
        <ele>622</ele>
        <time>2021-08-15T14:26:48Z</time>
      </trkpt>
      <trkpt lat="44.13115" lon="2.95145">
        <ele>622.1</ele>
        <time>2021-08-15T14:26:50Z</time>
      </trkpt>
      <trkpt lat="44.1312" lon="2.95144">
        <ele>622.6</ele>
        <time>2021-08-15T14:26:52Z</time>
      </trkpt>
      <trkpt lat="44.13125" lon="2.95142">
        <ele>622.8</ele>
        <time>2021-08-15T14:26:54Z</time>
      </trkpt>
      <trkpt lat="44.1313" lon="2.9514">
        <ele>622.9</ele>
        <time>2021-08-15T14:26:56Z</time>
      </trkpt>
      <trkpt lat="44.13134" lon="2.95138">
        <ele>623.1</ele>
        <time>2021-08-15T14:26:58Z</time>
      </trkpt>
      <trkpt lat="44.13139" lon="2.95136">
        <ele>623.3</ele>
        <time>2021-08-15T14:27:00Z</time>
      </trkpt>
      <trkpt lat="44.13144" lon="2.95133">
        <ele>623.4</ele>
        <time>2021-08-15T14:27:02Z</time>
      </trkpt>
      <trkpt lat="44.13149" lon="2.95131">
        <ele>623.4</ele>
        <time>2021-08-15T14:27:04Z</time>
      </trkpt>
      <trkpt lat="44.13153" lon="2.95128">
        <ele>623.3</ele>
        <time>2021-08-15T14:27:06Z</time>
      </trkpt>
      <trkpt lat="44.13158" lon="2.95125">
        <ele>623.2</ele>
        <time>2021-08-15T14:27:08Z</time>
      </trkpt>
      <trkpt lat="44.13162" lon="2.95121">
        <ele>622.9</ele>
        <time>2021-08-15T14:27:10Z</time>
      </trkpt>
      <trkpt lat="44.13166" lon="2.95116">
        <ele>622.4</ele>
        <time>2021-08-15T14:27:12Z</time>
      </trkpt>
      <trkpt lat="44.1317" lon="2.95112">
        <ele>622.6</ele>
        <time>2021-08-15T14:27:14Z</time>
      </trkpt>
      <trkpt lat="44.13174" lon="2.95107">
        <ele>622.4</ele>
        <time>2021-08-15T14:27:16Z</time>
      </trkpt>
      <trkpt lat="44.13179" lon="2.95105">
        <ele>623.2</ele>
        <time>2021-08-15T14:27:18Z</time>
      </trkpt>
      <trkpt lat="44.13183" lon="2.951">
        <ele>623.5</ele>
        <time>2021-08-15T14:27:20Z</time>
      </trkpt>
      <trkpt lat="44.13187" lon="2.95096">
        <ele>623.7</ele>
        <time>2021-08-15T14:27:22Z</time>
      </trkpt>
      <trkpt lat="44.13191" lon="2.95091">
        <ele>623.8</ele>
        <time>2021-08-15T14:27:24Z</time>
      </trkpt>
      <trkpt lat="44.13195" lon="2.95085">
        <ele>623.7</ele>
        <time>2021-08-15T14:27:26Z</time>
      </trkpt>
      <trkpt lat="44.13199" lon="2.95081">
        <ele>624.5</ele>
        <time>2021-08-15T14:27:28Z</time>
      </trkpt>
      <trkpt lat="44.13203" lon="2.95075">
        <ele>625.3</ele>
        <time>2021-08-15T14:27:30Z</time>
      </trkpt>
      <trkpt lat="44.13206" lon="2.95069">
        <ele>625.7</ele>
        <time>2021-08-15T14:27:32Z</time>
      </trkpt>
      <trkpt lat="44.1321" lon="2.95063">
        <ele>626.6</ele>
        <time>2021-08-15T14:27:34Z</time>
      </trkpt>
      <trkpt lat="44.13213" lon="2.95057">
        <ele>627.4</ele>
        <time>2021-08-15T14:27:36Z</time>
      </trkpt>
      <trkpt lat="44.13216" lon="2.9505">
        <ele>627.8</ele>
        <time>2021-08-15T14:27:38Z</time>
      </trkpt>
      <trkpt lat="44.13218" lon="2.95042">
        <ele>628.2</ele>
        <time>2021-08-15T14:27:40Z</time>
      </trkpt>
      <trkpt lat="44.1322" lon="2.95035">
        <ele>628.3</ele>
        <time>2021-08-15T14:27:42Z</time>
      </trkpt>
      <trkpt lat="44.13222" lon="2.95027">
        <ele>628.3</ele>
        <time>2021-08-15T14:27:44Z</time>
      </trkpt>
      <trkpt lat="44.13223" lon="2.95019">
        <ele>628.1</ele>
        <time>2021-08-15T14:27:46Z</time>
      </trkpt>
      <trkpt lat="44.13224" lon="2.9501">
        <ele>627.8</ele>
        <time>2021-08-15T14:27:48Z</time>
      </trkpt>
      <trkpt lat="44.13223" lon="2.95001">
        <ele>626.9</ele>
        <time>2021-08-15T14:27:50Z</time>
      </trkpt>
      <trkpt lat="44.13223" lon="2.94993">
        <ele>627.2</ele>
        <time>2021-08-15T14:27:52Z</time>
      </trkpt>
      <trkpt lat="44.13222" lon="2.94985">
        <ele>627.3</ele>
        <time>2021-08-15T14:27:54Z</time>
      </trkpt>
      <trkpt lat="44.13221" lon="2.94977">
        <ele>627.4</ele>
        <time>2021-08-15T14:27:56Z</time>
      </trkpt>
      <trkpt lat="44.13219" lon="2.94969">
        <ele>627</ele>
        <time>2021-08-15T14:27:58Z</time>
      </trkpt>
      <trkpt lat="44.13218" lon="2.94961">
        <ele>627</ele>
        <time>2021-08-15T14:28:00Z</time>
      </trkpt>
      <trkpt lat="44.13216" lon="2.94953">
        <ele>626.5</ele>
        <time>2021-08-15T14:28:02Z</time>
      </trkpt>
      <trkpt lat="44.13214" lon="2.94946">
        <ele>626.1</ele>
        <time>2021-08-15T14:28:04Z</time>
      </trkpt>
      <trkpt lat="44.13211" lon="2.94938">
        <ele>625.6</ele>
        <time>2021-08-15T14:28:06Z</time>
      </trkpt>
      <trkpt lat="44.13209" lon="2.94932">
        <ele>625.1</ele>
        <time>2021-08-15T14:28:08Z</time>
      </trkpt>
      <trkpt lat="44.13207" lon="2.94925">
        <ele>624.4</ele>
        <time>2021-08-15T14:28:10Z</time>
      </trkpt>
      <trkpt lat="44.13205" lon="2.94918">
        <ele>624.1</ele>
        <time>2021-08-15T14:28:12Z</time>
      </trkpt>
      <trkpt lat="44.13203" lon="2.94911">
        <ele>623.7</ele>
        <time>2021-08-15T14:28:14Z</time>
      </trkpt>
      <trkpt lat="44.13201" lon="2.94904">
        <ele>623.2</ele>
        <time>2021-08-15T14:28:16Z</time>
      </trkpt>
      <trkpt lat="44.13199" lon="2.94897">
        <ele>622.9</ele>
        <time>2021-08-15T14:28:18Z</time>
      </trkpt>
      <trkpt lat="44.13197" lon="2.9489">
        <ele>622.7</ele>
        <time>2021-08-15T14:28:20Z</time>
      </trkpt>
      <trkpt lat="44.13196" lon="2.94883">
        <ele>622.7</ele>
        <time>2021-08-15T14:28:22Z</time>
      </trkpt>
      <trkpt lat="44.13195" lon="2.94875">
        <ele>622.7</ele>
        <time>2021-08-15T14:28:24Z</time>
      </trkpt>
      <trkpt lat="44.13193" lon="2.94868">
        <ele>622.7</ele>
        <time>2021-08-15T14:28:26Z</time>
      </trkpt>
      <trkpt lat="44.13192" lon="2.94861">
        <ele>622.7</ele>
        <time>2021-08-15T14:28:28Z</time>
      </trkpt>
      <trkpt lat="44.1319" lon="2.94854">
        <ele>622.7</ele>
        <time>2021-08-15T14:28:30Z</time>
      </trkpt>
      <trkpt lat="44.13189" lon="2.94847">
        <ele>622.9</ele>
        <time>2021-08-15T14:28:32Z</time>
      </trkpt>
      <trkpt lat="44.13188" lon="2.9484">
        <ele>623.3</ele>
        <time>2021-08-15T14:28:34Z</time>
      </trkpt>
      <trkpt lat="44.13188" lon="2.94833">
        <ele>623.6</ele>
        <time>2021-08-15T14:28:36Z</time>
      </trkpt>
      <trkpt lat="44.13188" lon="2.94826">
        <ele>623.1</ele>
        <time>2021-08-15T14:28:38Z</time>
      </trkpt>
      <trkpt lat="44.13188" lon="2.94818">
        <ele>622.7</ele>
        <time>2021-08-15T14:28:40Z</time>
      </trkpt>
      <trkpt lat="44.13189" lon="2.94812">
        <ele>622.6</ele>
        <time>2021-08-15T14:28:42Z</time>
      </trkpt>
      <trkpt lat="44.1319" lon="2.94805">
        <ele>622.3</ele>
        <time>2021-08-15T14:28:44Z</time>
      </trkpt>
      <trkpt lat="44.13192" lon="2.94798">
        <ele>622.4</ele>
        <time>2021-08-15T14:28:46Z</time>
      </trkpt>
      <trkpt lat="44.13193" lon="2.94792">
        <ele>622.4</ele>
        <time>2021-08-15T14:28:48Z</time>
      </trkpt>
      <trkpt lat="44.13196" lon="2.94785">
        <ele>622.7</ele>
        <time>2021-08-15T14:28:50Z</time>
      </trkpt>
      <trkpt lat="44.13198" lon="2.94779">
        <ele>623</ele>
        <time>2021-08-15T14:28:52Z</time>
      </trkpt>
      <trkpt lat="44.13202" lon="2.94773">
        <ele>623.6</ele>
        <time>2021-08-15T14:28:54Z</time>
      </trkpt>
      <trkpt lat="44.13205" lon="2.94768">
        <ele>624.1</ele>
        <time>2021-08-15T14:28:56Z</time>
      </trkpt>
      <trkpt lat="44.13208" lon="2.94762">
        <ele>624.6</ele>
        <time>2021-08-15T14:28:58Z</time>
      </trkpt>
      <trkpt lat="44.13213" lon="2.94758">
        <ele>625.4</ele>
        <time>2021-08-15T14:29:00Z</time>
      </trkpt>
      <trkpt lat="44.13216" lon="2.94753">
        <ele>626</ele>
        <time>2021-08-15T14:29:02Z</time>
      </trkpt>
      <trkpt lat="44.13221" lon="2.94748">
        <ele>626.5</ele>
        <time>2021-08-15T14:29:04Z</time>
      </trkpt>
      <trkpt lat="44.13225" lon="2.94745">
        <ele>627</ele>
        <time>2021-08-15T14:29:06Z</time>
      </trkpt>
      <trkpt lat="44.1323" lon="2.94742">
        <ele>627.5</ele>
        <time>2021-08-15T14:29:08Z</time>
      </trkpt>
      <trkpt lat="44.13234" lon="2.94738">
        <ele>627.9</ele>
        <time>2021-08-15T14:29:10Z</time>
      </trkpt>
      <trkpt lat="44.13239" lon="2.94735">
        <ele>628.4</ele>
        <time>2021-08-15T14:29:12Z</time>
      </trkpt>
      <trkpt lat="44.13243" lon="2.94733">
        <ele>629.1</ele>
        <time>2021-08-15T14:29:14Z</time>
      </trkpt>
      <trkpt lat="44.13248" lon="2.94729">
        <ele>629.6</ele>
        <time>2021-08-15T14:29:16Z</time>
      </trkpt>
      <trkpt lat="44.13253" lon="2.94727">
        <ele>630.2</ele>
        <time>2021-08-15T14:29:18Z</time>
      </trkpt>
      <trkpt lat="44.13258" lon="2.94725">
        <ele>630.8</ele>
        <time>2021-08-15T14:29:20Z</time>
      </trkpt>
      <trkpt lat="44.13263" lon="2.94723">
        <ele>631.5</ele>
        <time>2021-08-15T14:29:22Z</time>
      </trkpt>
      <trkpt lat="44.13268" lon="2.9472">
        <ele>631.8</ele>
        <time>2021-08-15T14:29:24Z</time>
      </trkpt>
      <trkpt lat="44.13273" lon="2.94718">
        <ele>632.4</ele>
        <time>2021-08-15T14:29:26Z</time>
      </trkpt>
      <trkpt lat="44.13277" lon="2.94715">
        <ele>632.6</ele>
        <time>2021-08-15T14:29:28Z</time>
      </trkpt>
      <trkpt lat="44.13282" lon="2.94713">
        <ele>633.1</ele>
        <time>2021-08-15T14:29:30Z</time>
      </trkpt>
      <trkpt lat="44.13287" lon="2.9471">
        <ele>633.4</ele>
        <time>2021-08-15T14:29:32Z</time>
      </trkpt>
      <trkpt lat="44.13292" lon="2.94707">
        <ele>633.7</ele>
        <time>2021-08-15T14:29:34Z</time>
      </trkpt>
      <trkpt lat="44.13296" lon="2.94703">
        <ele>633.7</ele>
        <time>2021-08-15T14:29:36Z</time>
      </trkpt>
      <trkpt lat="44.13301" lon="2.947">
        <ele>633.8</ele>
        <time>2021-08-15T14:29:38Z</time>
      </trkpt>
      <trkpt lat="44.13305" lon="2.94697">
        <ele>633.9</ele>
        <time>2021-08-15T14:29:40Z</time>
      </trkpt>
      <trkpt lat="44.1331" lon="2.94694">
        <ele>634.3</ele>
        <time>2021-08-15T14:29:42Z</time>
      </trkpt>
      <trkpt lat="44.13315" lon="2.94691">
        <ele>634.5</ele>
        <time>2021-08-15T14:29:44Z</time>
      </trkpt>
      <trkpt lat="44.13319" lon="2.94687">
        <ele>634.5</ele>
        <time>2021-08-15T14:29:46Z</time>
      </trkpt>
      <trkpt lat="44.13324" lon="2.94684">
        <ele>634.4</ele>
        <time>2021-08-15T14:29:48Z</time>
      </trkpt>
      <trkpt lat="44.13328" lon="2.9468">
        <ele>634.5</ele>
        <time>2021-08-15T14:29:50Z</time>
      </trkpt>
      <trkpt lat="44.13333" lon="2.94677">
        <ele>634.6</ele>
        <time>2021-08-15T14:29:52Z</time>
      </trkpt>
      <trkpt lat="44.13337" lon="2.94673">
        <ele>634.7</ele>
        <time>2021-08-15T14:29:54Z</time>
      </trkpt>
      <trkpt lat="44.13341" lon="2.94668">
        <ele>634.4</ele>
        <time>2021-08-15T14:29:56Z</time>
      </trkpt>
      <trkpt lat="44.13346" lon="2.94664">
        <ele>634.5</ele>
        <time>2021-08-15T14:29:58Z</time>
      </trkpt>
      <trkpt lat="44.1335" lon="2.94659">
        <ele>634.2</ele>
        <time>2021-08-15T14:30:00Z</time>
      </trkpt>
      <trkpt lat="44.13354" lon="2.94654">
        <ele>634.2</ele>
        <time>2021-08-15T14:30:02Z</time>
      </trkpt>
      <trkpt lat="44.13358" lon="2.9465">
        <ele>634.1</ele>
        <time>2021-08-15T14:30:04Z</time>
      </trkpt>
      <trkpt lat="44.13362" lon="2.94645">
        <ele>634</ele>
        <time>2021-08-15T14:30:06Z</time>
      </trkpt>
      <trkpt lat="44.13366" lon="2.94641">
        <ele>633.9</ele>
        <time>2021-08-15T14:30:08Z</time>
      </trkpt>
      <trkpt lat="44.1337" lon="2.94636">
        <ele>633.6</ele>
        <time>2021-08-15T14:30:10Z</time>
      </trkpt>
      <trkpt lat="44.13374" lon="2.94631">
        <ele>633.4</ele>
        <time>2021-08-15T14:30:12Z</time>
      </trkpt>
      <trkpt lat="44.13377" lon="2.94626">
        <ele>633.2</ele>
        <time>2021-08-15T14:30:14Z</time>
      </trkpt>
      <trkpt lat="44.13381" lon="2.94622">
        <ele>633.1</ele>
        <time>2021-08-15T14:30:16Z</time>
      </trkpt>
      <trkpt lat="44.13385" lon="2.94617">
        <ele>633</ele>
        <time>2021-08-15T14:30:18Z</time>
      </trkpt>
      <trkpt lat="44.13389" lon="2.94612">
        <ele>632.7</ele>
        <time>2021-08-15T14:30:20Z</time>
      </trkpt>
      <trkpt lat="44.13393" lon="2.94607">
        <ele>632.5</ele>
        <time>2021-08-15T14:30:22Z</time>
      </trkpt>
      <trkpt lat="44.13397" lon="2.94603">
        <ele>632.4</ele>
        <time>2021-08-15T14:30:24Z</time>
      </trkpt>
      <trkpt lat="44.134" lon="2.94599">
        <ele>632.4</ele>
        <time>2021-08-15T14:30:26Z</time>
      </trkpt>
      <trkpt lat="44.13404" lon="2.94594">
        <ele>632.2</ele>
        <time>2021-08-15T14:30:28Z</time>
      </trkpt>
      <trkpt lat="44.13408" lon="2.9459">
        <ele>632.3</ele>
        <time>2021-08-15T14:30:30Z</time>
      </trkpt>
      <trkpt lat="44.13411" lon="2.94586">
        <ele>632.2</ele>
        <time>2021-08-15T14:30:32Z</time>
      </trkpt>
      <trkpt lat="44.13415" lon="2.94582">
        <ele>632.4</ele>
        <time>2021-08-15T14:30:34Z</time>
      </trkpt>
      <trkpt lat="44.13419" lon="2.94578">
        <ele>632.3</ele>
        <time>2021-08-15T14:30:36Z</time>
      </trkpt>
      <trkpt lat="44.13422" lon="2.94574">
        <ele>632.2</ele>
        <time>2021-08-15T14:30:38Z</time>
      </trkpt>
      <trkpt lat="44.13426" lon="2.94569">
        <ele>632.1</ele>
        <time>2021-08-15T14:30:40Z</time>
      </trkpt>
      <trkpt lat="44.1343" lon="2.94566">
        <ele>632.2</ele>
        <time>2021-08-15T14:30:42Z</time>
      </trkpt>
      <trkpt lat="44.13434" lon="2.94563">
        <ele>632.7</ele>
        <time>2021-08-15T14:30:44Z</time>
      </trkpt>
      <trkpt lat="44.13439" lon="2.9456">
        <ele>633.2</ele>
        <time>2021-08-15T14:30:46Z</time>
      </trkpt>
      <trkpt lat="44.13444" lon="2.94558">
        <ele>633.7</ele>
        <time>2021-08-15T14:30:48Z</time>
      </trkpt>
      <trkpt lat="44.13448" lon="2.94555">
        <ele>634.1</ele>
        <time>2021-08-15T14:30:50Z</time>
      </trkpt>
      <trkpt lat="44.13452" lon="2.94553">
        <ele>634.7</ele>
        <time>2021-08-15T14:30:52Z</time>
      </trkpt>
      <trkpt lat="44.13457" lon="2.94551">
        <ele>635.2</ele>
        <time>2021-08-15T14:30:54Z</time>
      </trkpt>
      <trkpt lat="44.13461" lon="2.94549">
        <ele>635.8</ele>
        <time>2021-08-15T14:30:56Z</time>
      </trkpt>
      <trkpt lat="44.13466" lon="2.94547">
        <ele>636.4</ele>
        <time>2021-08-15T14:30:58Z</time>
      </trkpt>
      <trkpt lat="44.1347" lon="2.94545">
        <ele>636.9</ele>
        <time>2021-08-15T14:31:00Z</time>
      </trkpt>
      <trkpt lat="44.13474" lon="2.94543">
        <ele>637.4</ele>
        <time>2021-08-15T14:31:02Z</time>
      </trkpt>
      <trkpt lat="44.13478" lon="2.94541">
        <ele>637.8</ele>
        <time>2021-08-15T14:31:04Z</time>
      </trkpt>
      <trkpt lat="44.13482" lon="2.94539">
        <ele>638.3</ele>
        <time>2021-08-15T14:31:06Z</time>
      </trkpt>
      <trkpt lat="44.13486" lon="2.94536">
        <ele>638.9</ele>
        <time>2021-08-15T14:31:08Z</time>
      </trkpt>
      <trkpt lat="44.1349" lon="2.94533">
        <ele>639.2</ele>
        <time>2021-08-15T14:31:10Z</time>
      </trkpt>
      <trkpt lat="44.13494" lon="2.94531">
        <ele>639.5</ele>
        <time>2021-08-15T14:31:12Z</time>
      </trkpt>
      <trkpt lat="44.13497" lon="2.94526">
        <ele>639.5</ele>
        <time>2021-08-15T14:31:14Z</time>
      </trkpt>
      <trkpt lat="44.13502" lon="2.94523">
        <ele>639.8</ele>
        <time>2021-08-15T14:31:16Z</time>
      </trkpt>
      <trkpt lat="44.13505" lon="2.9452">
        <ele>640.3</ele>
        <time>2021-08-15T14:31:18Z</time>
      </trkpt>
      <trkpt lat="44.13509" lon="2.94516">
        <ele>640.6</ele>
        <time>2021-08-15T14:31:20Z</time>
      </trkpt>
      <trkpt lat="44.13513" lon="2.94511">
        <ele>640.8</ele>
        <time>2021-08-15T14:31:22Z</time>
      </trkpt>
      <trkpt lat="44.13517" lon="2.94507">
        <ele>640.9</ele>
        <time>2021-08-15T14:31:24Z</time>
      </trkpt>
      <trkpt lat="44.1352" lon="2.94502">
        <ele>641</ele>
        <time>2021-08-15T14:31:26Z</time>
      </trkpt>
      <trkpt lat="44.13523" lon="2.94498">
        <ele>641.1</ele>
        <time>2021-08-15T14:31:28Z</time>
      </trkpt>
      <trkpt lat="44.13527" lon="2.94495">
        <ele>641.4</ele>
        <time>2021-08-15T14:31:30Z</time>
      </trkpt>
      <trkpt lat="44.13531" lon="2.94491">
        <ele>641.8</ele>
        <time>2021-08-15T14:31:32Z</time>
      </trkpt>
      <trkpt lat="44.13535" lon="2.94486">
        <ele>641.9</ele>
        <time>2021-08-15T14:31:34Z</time>
      </trkpt>
      <trkpt lat="44.13539" lon="2.94482">
        <ele>642</ele>
        <time>2021-08-15T14:31:36Z</time>
      </trkpt>
      <trkpt lat="44.13543" lon="2.94478">
        <ele>642.3</ele>
        <time>2021-08-15T14:31:38Z</time>
      </trkpt>
      <trkpt lat="44.13546" lon="2.94474">
        <ele>642.7</ele>
        <time>2021-08-15T14:31:40Z</time>
      </trkpt>
      <trkpt lat="44.1355" lon="2.9447">
        <ele>643</ele>
        <time>2021-08-15T14:31:42Z</time>
      </trkpt>
      <trkpt lat="44.13554" lon="2.94466">
        <ele>643.3</ele>
        <time>2021-08-15T14:31:44Z</time>
      </trkpt>
      <trkpt lat="44.13558" lon="2.94462">
        <ele>643.7</ele>
        <time>2021-08-15T14:31:46Z</time>
      </trkpt>
      <trkpt lat="44.13562" lon="2.94458">
        <ele>644.2</ele>
        <time>2021-08-15T14:31:48Z</time>
      </trkpt>
      <trkpt lat="44.13566" lon="2.94454">
        <ele>644.6</ele>
        <time>2021-08-15T14:31:50Z</time>
      </trkpt>
      <trkpt lat="44.13569" lon="2.94449">
        <ele>645</ele>
        <time>2021-08-15T14:31:52Z</time>
      </trkpt>
      <trkpt lat="44.13573" lon="2.94445">
        <ele>645.4</ele>
        <time>2021-08-15T14:31:54Z</time>
      </trkpt>
      <trkpt lat="44.13576" lon="2.94441">
        <ele>645.8</ele>
        <time>2021-08-15T14:31:56Z</time>
      </trkpt>
      <trkpt lat="44.1358" lon="2.94437">
        <ele>646.1</ele>
        <time>2021-08-15T14:31:58Z</time>
      </trkpt>
      <trkpt lat="44.13583" lon="2.94432">
        <ele>646.3</ele>
        <time>2021-08-15T14:32:00Z</time>
      </trkpt>
      <trkpt lat="44.13585" lon="2.94426">
        <ele>646.2</ele>
        <time>2021-08-15T14:32:02Z</time>
      </trkpt>
      <trkpt lat="44.13588" lon="2.9442">
        <ele>646.4</ele>
        <time>2021-08-15T14:32:04Z</time>
      </trkpt>
      <trkpt lat="44.1359" lon="2.94414">
        <ele>646.4</ele>
        <time>2021-08-15T14:32:06Z</time>
      </trkpt>
      <trkpt lat="44.13591" lon="2.94408">
        <ele>646.1</ele>
        <time>2021-08-15T14:32:08Z</time>
      </trkpt>
      <trkpt lat="44.13593" lon="2.94402">
        <ele>646</ele>
        <time>2021-08-15T14:32:10Z</time>
      </trkpt>
      <trkpt lat="44.13595" lon="2.94396">
        <ele>645.9</ele>
        <time>2021-08-15T14:32:12Z</time>
      </trkpt>
      <trkpt lat="44.13598" lon="2.9439">
        <ele>646.1</ele>
        <time>2021-08-15T14:32:14Z</time>
      </trkpt>
      <trkpt lat="44.13599" lon="2.94384">
        <ele>645.9</ele>
        <time>2021-08-15T14:32:16Z</time>
      </trkpt>
      <trkpt lat="44.13601" lon="2.94378">
        <ele>646</ele>
        <time>2021-08-15T14:32:18Z</time>
      </trkpt>
      <trkpt lat="44.13603" lon="2.94372">
        <ele>645.9</ele>
        <time>2021-08-15T14:32:20Z</time>
      </trkpt>
      <trkpt lat="44.13605" lon="2.94367">
        <ele>645.9</ele>
        <time>2021-08-15T14:32:22Z</time>
      </trkpt>
      <trkpt lat="44.13607" lon="2.94361">
        <ele>646</ele>
        <time>2021-08-15T14:32:24Z</time>
      </trkpt>
      <trkpt lat="44.13608" lon="2.94355">
        <ele>645.8</ele>
        <time>2021-08-15T14:32:26Z</time>
      </trkpt>
      <trkpt lat="44.1361" lon="2.94348">
        <ele>645.8</ele>
        <time>2021-08-15T14:32:28Z</time>
      </trkpt>
      <trkpt lat="44.13612" lon="2.94343">
        <ele>645.7</ele>
        <time>2021-08-15T14:32:30Z</time>
      </trkpt>
      <trkpt lat="44.13614" lon="2.94337">
        <ele>645.8</ele>
        <time>2021-08-15T14:32:32Z</time>
      </trkpt>
      <trkpt lat="44.13616" lon="2.94331">
        <ele>645.8</ele>
        <time>2021-08-15T14:32:34Z</time>
      </trkpt>
      <trkpt lat="44.13618" lon="2.94324">
        <ele>646.1</ele>
        <time>2021-08-15T14:32:36Z</time>
      </trkpt>
      <trkpt lat="44.1362" lon="2.94318">
        <ele>646.4</ele>
        <time>2021-08-15T14:32:38Z</time>
      </trkpt>
      <trkpt lat="44.13621" lon="2.94312">
        <ele>646.4</ele>
        <time>2021-08-15T14:32:40Z</time>
      </trkpt>
      <trkpt lat="44.13623" lon="2.94306">
        <ele>646.7</ele>
        <time>2021-08-15T14:32:42Z</time>
      </trkpt>
      <trkpt lat="44.13625" lon="2.943">
        <ele>646.8</ele>
        <time>2021-08-15T14:32:44Z</time>
      </trkpt>
      <trkpt lat="44.13627" lon="2.94294">
        <ele>646.9</ele>
        <time>2021-08-15T14:32:46Z</time>
      </trkpt>
      <trkpt lat="44.13628" lon="2.94288">
        <ele>646.9</ele>
        <time>2021-08-15T14:32:48Z</time>
      </trkpt>
      <trkpt lat="44.1363" lon="2.94282">
        <ele>647.2</ele>
        <time>2021-08-15T14:32:50Z</time>
      </trkpt>
      <trkpt lat="44.13632" lon="2.94276">
        <ele>647.5</ele>
        <time>2021-08-15T14:32:52Z</time>
      </trkpt>
      <trkpt lat="44.13634" lon="2.94269">
        <ele>647.6</ele>
        <time>2021-08-15T14:32:54Z</time>
      </trkpt>
      <trkpt lat="44.13636" lon="2.94264">
        <ele>647.7</ele>
        <time>2021-08-15T14:32:56Z</time>
      </trkpt>
      <trkpt lat="44.13637" lon="2.94257">
        <ele>647.6</ele>
        <time>2021-08-15T14:32:58Z</time>
      </trkpt>
      <trkpt lat="44.13638" lon="2.94252">
        <ele>647.4</ele>
        <time>2021-08-15T14:33:00Z</time>
      </trkpt>
      <trkpt lat="44.13639" lon="2.94245">
        <ele>647.5</ele>
        <time>2021-08-15T14:33:02Z</time>
      </trkpt>
      <trkpt lat="44.1364" lon="2.9424">
        <ele>647.7</ele>
        <time>2021-08-15T14:33:04Z</time>
      </trkpt>
      <trkpt lat="44.13642" lon="2.94234">
        <ele>647.9</ele>
        <time>2021-08-15T14:33:06Z</time>
      </trkpt>
      <trkpt lat="44.13643" lon="2.94228">
        <ele>648.1</ele>
        <time>2021-08-15T14:33:08Z</time>
      </trkpt>
      <trkpt lat="44.13644" lon="2.94223">
        <ele>648.2</ele>
        <time>2021-08-15T14:33:10Z</time>
      </trkpt>
      <trkpt lat="44.13646" lon="2.94217">
        <ele>648.4</ele>
        <time>2021-08-15T14:33:12Z</time>
      </trkpt>
      <trkpt lat="44.13648" lon="2.94211">
        <ele>648.7</ele>
        <time>2021-08-15T14:33:14Z</time>
      </trkpt>
      <trkpt lat="44.13649" lon="2.94205">
        <ele>648.7</ele>
        <time>2021-08-15T14:33:16Z</time>
      </trkpt>
      <trkpt lat="44.1365" lon="2.94198">
        <ele>648.6</ele>
        <time>2021-08-15T14:33:18Z</time>
      </trkpt>
      <trkpt lat="44.13651" lon="2.94192">
        <ele>648.8</ele>
        <time>2021-08-15T14:33:20Z</time>
      </trkpt>
      <trkpt lat="44.13653" lon="2.94185">
        <ele>648.8</ele>
        <time>2021-08-15T14:33:22Z</time>
      </trkpt>
      <trkpt lat="44.13654" lon="2.94179">
        <ele>648.8</ele>
        <time>2021-08-15T14:33:24Z</time>
      </trkpt>
      <trkpt lat="44.13656" lon="2.94173">
        <ele>649</ele>
        <time>2021-08-15T14:33:26Z</time>
      </trkpt>
      <trkpt lat="44.13657" lon="2.94167">
        <ele>649.1</ele>
        <time>2021-08-15T14:33:28Z</time>
      </trkpt>
      <trkpt lat="44.13659" lon="2.94162">
        <ele>649.3</ele>
        <time>2021-08-15T14:33:30Z</time>
      </trkpt>
      <trkpt lat="44.13661" lon="2.94156">
        <ele>649.7</ele>
        <time>2021-08-15T14:33:32Z</time>
      </trkpt>
      <trkpt lat="44.13663" lon="2.9415">
        <ele>649.8</ele>
        <time>2021-08-15T14:33:34Z</time>
      </trkpt>
      <trkpt lat="44.13664" lon="2.94144">
        <ele>649.9</ele>
        <time>2021-08-15T14:33:36Z</time>
      </trkpt>
      <trkpt lat="44.13665" lon="2.94138">
        <ele>650.2</ele>
        <time>2021-08-15T14:33:38Z</time>
      </trkpt>
      <trkpt lat="44.13667" lon="2.94131">
        <ele>650.4</ele>
        <time>2021-08-15T14:33:40Z</time>
      </trkpt>
      <trkpt lat="44.13669" lon="2.94126">
        <ele>650.6</ele>
        <time>2021-08-15T14:33:42Z</time>
      </trkpt>
      <trkpt lat="44.1367" lon="2.94119">
        <ele>650.7</ele>
        <time>2021-08-15T14:33:44Z</time>
      </trkpt>
      <trkpt lat="44.13672" lon="2.94113">
        <ele>650.9</ele>
        <time>2021-08-15T14:33:46Z</time>
      </trkpt>
      <trkpt lat="44.13674" lon="2.94107">
        <ele>651.2</ele>
        <time>2021-08-15T14:33:48Z</time>
      </trkpt>
      <trkpt lat="44.13676" lon="2.94101">
        <ele>651.4</ele>
        <time>2021-08-15T14:33:50Z</time>
      </trkpt>
      <trkpt lat="44.13678" lon="2.94095">
        <ele>651.6</ele>
        <time>2021-08-15T14:33:52Z</time>
      </trkpt>
      <trkpt lat="44.1368" lon="2.94089">
        <ele>651.6</ele>
        <time>2021-08-15T14:33:54Z</time>
      </trkpt>
      <trkpt lat="44.13682" lon="2.94083">
        <ele>651.8</ele>
        <time>2021-08-15T14:33:56Z</time>
      </trkpt>
      <trkpt lat="44.13683" lon="2.94078">
        <ele>651.7</ele>
        <time>2021-08-15T14:33:58Z</time>
      </trkpt>
      <trkpt lat="44.13685" lon="2.94072">
        <ele>651.6</ele>
        <time>2021-08-15T14:34:00Z</time>
      </trkpt>
      <trkpt lat="44.13687" lon="2.94066">
        <ele>651.5</ele>
        <time>2021-08-15T14:34:02Z</time>
      </trkpt>
      <trkpt lat="44.13689" lon="2.9406">
        <ele>651.4</ele>
        <time>2021-08-15T14:34:04Z</time>
      </trkpt>
      <trkpt lat="44.1369" lon="2.94054">
        <ele>651.2</ele>
        <time>2021-08-15T14:34:06Z</time>
      </trkpt>
      <trkpt lat="44.13692" lon="2.94048">
        <ele>651.1</ele>
        <time>2021-08-15T14:34:08Z</time>
      </trkpt>
      <trkpt lat="44.13693" lon="2.94042">
        <ele>651</ele>
        <time>2021-08-15T14:34:10Z</time>
      </trkpt>
      <trkpt lat="44.13695" lon="2.94036">
        <ele>650.8</ele>
        <time>2021-08-15T14:34:12Z</time>
      </trkpt>
      <trkpt lat="44.13697" lon="2.9403">
        <ele>650.7</ele>
        <time>2021-08-15T14:34:14Z</time>
      </trkpt>
      <trkpt lat="44.13699" lon="2.94024">
        <ele>650.5</ele>
        <time>2021-08-15T14:34:16Z</time>
      </trkpt>
      <trkpt lat="44.13701" lon="2.94018">
        <ele>650.5</ele>
        <time>2021-08-15T14:34:18Z</time>
      </trkpt>
      <trkpt lat="44.13702" lon="2.94012">
        <ele>650.3</ele>
        <time>2021-08-15T14:34:20Z</time>
      </trkpt>
      <trkpt lat="44.13704" lon="2.94006">
        <ele>650.2</ele>
        <time>2021-08-15T14:34:22Z</time>
      </trkpt>
      <trkpt lat="44.13706" lon="2.94">
        <ele>650</ele>
        <time>2021-08-15T14:34:24Z</time>
      </trkpt>
      <trkpt lat="44.13708" lon="2.93994">
        <ele>649.9</ele>
        <time>2021-08-15T14:34:26Z</time>
      </trkpt>
      <trkpt lat="44.13711" lon="2.93989">
        <ele>649.8</ele>
        <time>2021-08-15T14:34:28Z</time>
      </trkpt>
      <trkpt lat="44.13713" lon="2.93983">
        <ele>649.7</ele>
        <time>2021-08-15T14:34:30Z</time>
      </trkpt>
      <trkpt lat="44.13715" lon="2.93978">
        <ele>649.5</ele>
        <time>2021-08-15T14:34:32Z</time>
      </trkpt>
      <trkpt lat="44.13718" lon="2.93974">
        <ele>649.8</ele>
        <time>2021-08-15T14:34:34Z</time>
      </trkpt>
      <trkpt lat="44.13722" lon="2.93969">
        <ele>649.9</ele>
        <time>2021-08-15T14:34:36Z</time>
      </trkpt>
      <trkpt lat="44.13725" lon="2.93965">
        <ele>650.1</ele>
        <time>2021-08-15T14:34:38Z</time>
      </trkpt>
      <trkpt lat="44.13729" lon="2.93961">
        <ele>650.5</ele>
        <time>2021-08-15T14:34:40Z</time>
      </trkpt>
      <trkpt lat="44.13732" lon="2.93957">
        <ele>650.8</ele>
        <time>2021-08-15T14:34:42Z</time>
      </trkpt>
      <trkpt lat="44.13737" lon="2.93955">
        <ele>651.3</ele>
        <time>2021-08-15T14:34:44Z</time>
      </trkpt>
      <trkpt lat="44.13741" lon="2.93952">
        <ele>651.8</ele>
        <time>2021-08-15T14:34:46Z</time>
      </trkpt>
      <trkpt lat="44.13745" lon="2.93949">
        <ele>652.4</ele>
        <time>2021-08-15T14:34:48Z</time>
      </trkpt>
      <trkpt lat="44.13749" lon="2.93948">
        <ele>652.9</ele>
        <time>2021-08-15T14:34:50Z</time>
      </trkpt>
      <trkpt lat="44.13754" lon="2.93946">
        <ele>653.5</ele>
        <time>2021-08-15T14:34:52Z</time>
      </trkpt>
      <trkpt lat="44.13758" lon="2.93944">
        <ele>654</ele>
        <time>2021-08-15T14:34:54Z</time>
      </trkpt>
      <trkpt lat="44.13762" lon="2.93944">
        <ele>654.7</ele>
        <time>2021-08-15T14:34:56Z</time>
      </trkpt>
      <trkpt lat="44.13766" lon="2.93942">
        <ele>655.2</ele>
        <time>2021-08-15T14:34:58Z</time>
      </trkpt>
      <trkpt lat="44.13771" lon="2.93941">
        <ele>655.8</ele>
        <time>2021-08-15T14:35:00Z</time>
      </trkpt>
      <trkpt lat="44.13775" lon="2.9394">
        <ele>656.5</ele>
        <time>2021-08-15T14:35:02Z</time>
      </trkpt>
      <trkpt lat="44.1378" lon="2.93939">
        <ele>657.1</ele>
        <time>2021-08-15T14:35:04Z</time>
      </trkpt>
      <trkpt lat="44.13784" lon="2.93938">
        <ele>657.8</ele>
        <time>2021-08-15T14:35:06Z</time>
      </trkpt>
      <trkpt lat="44.13788" lon="2.93936">
        <ele>658.2</ele>
        <time>2021-08-15T14:35:08Z</time>
      </trkpt>
      <trkpt lat="44.13793" lon="2.93935">
        <ele>658.8</ele>
        <time>2021-08-15T14:35:10Z</time>
      </trkpt>
      <trkpt lat="44.13797" lon="2.93933">
        <ele>659.3</ele>
        <time>2021-08-15T14:35:12Z</time>
      </trkpt>
      <trkpt lat="44.13801" lon="2.93932">
        <ele>659.8</ele>
        <time>2021-08-15T14:35:14Z</time>
      </trkpt>
      <trkpt lat="44.13805" lon="2.9393">
        <ele>660.2</ele>
        <time>2021-08-15T14:35:16Z</time>
      </trkpt>
      <trkpt lat="44.13809" lon="2.93928">
        <ele>660.7</ele>
        <time>2021-08-15T14:35:18Z</time>
      </trkpt>
      <trkpt lat="44.13813" lon="2.93925">
        <ele>660.9</ele>
        <time>2021-08-15T14:35:20Z</time>
      </trkpt>
      <trkpt lat="44.13817" lon="2.93923">
        <ele>661.3</ele>
        <time>2021-08-15T14:35:22Z</time>
      </trkpt>
      <trkpt lat="44.13821" lon="2.93921">
        <ele>661.6</ele>
        <time>2021-08-15T14:35:24Z</time>
      </trkpt>
      <trkpt lat="44.13825" lon="2.93918">
        <ele>661.8</ele>
        <time>2021-08-15T14:35:26Z</time>
      </trkpt>
      <trkpt lat="44.13829" lon="2.93915">
        <ele>661.9</ele>
        <time>2021-08-15T14:35:28Z</time>
      </trkpt>
      <trkpt lat="44.13833" lon="2.93914">
        <ele>662.3</ele>
        <time>2021-08-15T14:35:30Z</time>
      </trkpt>
      <trkpt lat="44.13836" lon="2.9391">
        <ele>662.5</ele>
        <time>2021-08-15T14:35:32Z</time>
      </trkpt>
      <trkpt lat="44.1384" lon="2.93907">
        <ele>662.9</ele>
        <time>2021-08-15T14:35:34Z</time>
      </trkpt>
      <trkpt lat="44.13844" lon="2.93904">
        <ele>663.1</ele>
        <time>2021-08-15T14:35:36Z</time>
      </trkpt>
      <trkpt lat="44.13848" lon="2.93901">
        <ele>663.6</ele>
        <time>2021-08-15T14:35:38Z</time>
      </trkpt>
      <trkpt lat="44.13852" lon="2.93898">
        <ele>663.9</ele>
        <time>2021-08-15T14:35:40Z</time>
      </trkpt>
      <trkpt lat="44.13855" lon="2.93894">
        <ele>664.3</ele>
        <time>2021-08-15T14:35:42Z</time>
      </trkpt>
      <trkpt lat="44.13859" lon="2.93891">
        <ele>664.5</ele>
        <time>2021-08-15T14:35:44Z</time>
      </trkpt>
      <trkpt lat="44.13863" lon="2.93888">
        <ele>665</ele>
        <time>2021-08-15T14:35:46Z</time>
      </trkpt>
      <trkpt lat="44.13866" lon="2.93884">
        <ele>665.2</ele>
        <time>2021-08-15T14:35:48Z</time>
      </trkpt>
      <trkpt lat="44.1387" lon="2.93881">
        <ele>665.7</ele>
        <time>2021-08-15T14:35:50Z</time>
      </trkpt>
      <trkpt lat="44.13873" lon="2.93877">
        <ele>666</ele>
        <time>2021-08-15T14:35:52Z</time>
      </trkpt>
      <trkpt lat="44.13877" lon="2.93875">
        <ele>666.5</ele>
        <time>2021-08-15T14:35:54Z</time>
      </trkpt>
      <trkpt lat="44.13881" lon="2.93871">
        <ele>666.8</ele>
        <time>2021-08-15T14:35:56Z</time>
      </trkpt>
      <trkpt lat="44.13884" lon="2.93867">
        <ele>667.1</ele>
        <time>2021-08-15T14:35:58Z</time>
      </trkpt>
      <trkpt lat="44.13887" lon="2.93863">
        <ele>667.2</ele>
        <time>2021-08-15T14:36:00Z</time>
      </trkpt>
      <trkpt lat="44.1389" lon="2.93859">
        <ele>667.3</ele>
        <time>2021-08-15T14:36:02Z</time>
      </trkpt>
      <trkpt lat="44.13893" lon="2.93856">
        <ele>667.7</ele>
        <time>2021-08-15T14:36:04Z</time>
      </trkpt>
      <trkpt lat="44.13896" lon="2.93856">
        <ele>668.5</ele>
        <time>2021-08-15T14:36:06Z</time>
      </trkpt>
      <trkpt lat="44.13898" lon="2.93854">
        <ele>668.9</ele>
        <time>2021-08-15T14:36:08Z</time>
      </trkpt>
      <trkpt lat="44.13898" lon="2.93854">
        <ele>668.7</ele>
        <time>2021-08-15T14:36:10Z</time>
      </trkpt>
      <trkpt lat="44.13898" lon="2.93853">
        <ele>668.7</ele>
        <time>2021-08-15T14:36:12Z</time>
      </trkpt>
      <trkpt lat="44.13898" lon="2.93853">
        <ele>668.7</ele>
        <time>2021-08-15T14:36:14Z</time>
      </trkpt>
      <trkpt lat="44.13898" lon="2.93853">
        <ele>668.8</ele>
        <time>2021-08-15T14:36:16Z</time>
      </trkpt>
      <trkpt lat="44.13898" lon="2.93854">
        <ele>668.9</ele>
        <time>2021-08-15T14:36:18Z</time>
      </trkpt>
      <trkpt lat="44.13904" lon="2.93838">
        <ele>668</ele>
        <time>2021-08-15T14:42:58Z</time>
      </trkpt>
      <trkpt lat="44.13905" lon="2.93833">
        <ele>667.8</ele>
        <time>2021-08-15T14:43:00Z</time>
      </trkpt>
      <trkpt lat="44.13908" lon="2.9383">
        <ele>668.5</ele>
        <time>2021-08-15T14:43:02Z</time>
      </trkpt>
      <trkpt lat="44.13909" lon="2.93826">
        <ele>669.1</ele>
        <time>2021-08-15T14:43:04Z</time>
      </trkpt>
      <trkpt lat="44.1391" lon="2.93822">
        <ele>669.6</ele>
        <time>2021-08-15T14:43:06Z</time>
      </trkpt>
      <trkpt lat="44.13911" lon="2.93818">
        <ele>670.1</ele>
        <time>2021-08-15T14:43:08Z</time>
      </trkpt>
      <trkpt lat="44.13912" lon="2.93813">
        <ele>670.6</ele>
        <time>2021-08-15T14:43:10Z</time>
      </trkpt>
      <trkpt lat="44.13911" lon="2.93808">
        <ele>670.5</ele>
        <time>2021-08-15T14:43:12Z</time>
      </trkpt>
      <trkpt lat="44.13911" lon="2.93803">
        <ele>670.6</ele>
        <time>2021-08-15T14:43:14Z</time>
      </trkpt>
      <trkpt lat="44.1391" lon="2.93798">
        <ele>670.7</ele>
        <time>2021-08-15T14:43:16Z</time>
      </trkpt>
      <trkpt lat="44.13909" lon="2.93793">
        <ele>670.5</ele>
        <time>2021-08-15T14:43:18Z</time>
      </trkpt>
      <trkpt lat="44.13909" lon="2.93788">
        <ele>670.5</ele>
        <time>2021-08-15T14:43:20Z</time>
      </trkpt>
      <trkpt lat="44.13907" lon="2.93784">
        <ele>670.2</ele>
        <time>2021-08-15T14:43:22Z</time>
      </trkpt>
      <trkpt lat="44.13905" lon="2.93779">
        <ele>669.8</ele>
        <time>2021-08-15T14:43:24Z</time>
      </trkpt>
      <trkpt lat="44.13903" lon="2.93775">
        <ele>669.2</ele>
        <time>2021-08-15T14:43:26Z</time>
      </trkpt>
      <trkpt lat="44.13902" lon="2.93769">
        <ele>668.9</ele>
        <time>2021-08-15T14:43:28Z</time>
      </trkpt>
      <trkpt lat="44.139" lon="2.93765">
        <ele>668.5</ele>
        <time>2021-08-15T14:43:30Z</time>
      </trkpt>
      <trkpt lat="44.13899" lon="2.9376">
        <ele>668.1</ele>
        <time>2021-08-15T14:43:32Z</time>
      </trkpt>
      <trkpt lat="44.13898" lon="2.93755">
        <ele>667.8</ele>
        <time>2021-08-15T14:43:34Z</time>
      </trkpt>
      <trkpt lat="44.13896" lon="2.93749">
        <ele>667.4</ele>
        <time>2021-08-15T14:43:36Z</time>
      </trkpt>
      <trkpt lat="44.13895" lon="2.93745">
        <ele>667.4</ele>
        <time>2021-08-15T14:43:38Z</time>
      </trkpt>
      <trkpt lat="44.13895" lon="2.93739">
        <ele>667.7</ele>
        <time>2021-08-15T14:43:40Z</time>
      </trkpt>
      <trkpt lat="44.13895" lon="2.93734">
        <ele>668</ele>
        <time>2021-08-15T14:43:42Z</time>
      </trkpt>
      <trkpt lat="44.13894" lon="2.93729">
        <ele>668.2</ele>
        <time>2021-08-15T14:43:44Z</time>
      </trkpt>
      <trkpt lat="44.13895" lon="2.93723">
        <ele>668.7</ele>
        <time>2021-08-15T14:43:46Z</time>
      </trkpt>
      <trkpt lat="44.13895" lon="2.93718">
        <ele>669.1</ele>
        <time>2021-08-15T14:43:48Z</time>
      </trkpt>
      <trkpt lat="44.13895" lon="2.93713">
        <ele>669.7</ele>
        <time>2021-08-15T14:43:50Z</time>
      </trkpt>
      <trkpt lat="44.13896" lon="2.93708">
        <ele>670.4</ele>
        <time>2021-08-15T14:43:52Z</time>
      </trkpt>
      <trkpt lat="44.13897" lon="2.93702">
        <ele>671.3</ele>
        <time>2021-08-15T14:43:54Z</time>
      </trkpt>
      <trkpt lat="44.13899" lon="2.93697">
        <ele>672</ele>
        <time>2021-08-15T14:43:56Z</time>
      </trkpt>
      <trkpt lat="44.13899" lon="2.93692">
        <ele>672.5</ele>
        <time>2021-08-15T14:43:58Z</time>
      </trkpt>
      <trkpt lat="44.13899" lon="2.93686">
        <ele>673.1</ele>
        <time>2021-08-15T14:44:00Z</time>
      </trkpt>
      <trkpt lat="44.139" lon="2.93682">
        <ele>673.8</ele>
        <time>2021-08-15T14:44:02Z</time>
      </trkpt>
      <trkpt lat="44.139" lon="2.93676">
        <ele>674.3</ele>
        <time>2021-08-15T14:44:04Z</time>
      </trkpt>
      <trkpt lat="44.139" lon="2.93671">
        <ele>674.6</ele>
        <time>2021-08-15T14:44:06Z</time>
      </trkpt>
      <trkpt lat="44.139" lon="2.93666">
        <ele>674.7</ele>
        <time>2021-08-15T14:44:08Z</time>
      </trkpt>
      <trkpt lat="44.13899" lon="2.93661">
        <ele>674.6</ele>
        <time>2021-08-15T14:44:10Z</time>
      </trkpt>
      <trkpt lat="44.13898" lon="2.93656">
        <ele>674.4</ele>
        <time>2021-08-15T14:44:12Z</time>
      </trkpt>
      <trkpt lat="44.13897" lon="2.93651">
        <ele>674.4</ele>
        <time>2021-08-15T14:44:14Z</time>
      </trkpt>
      <trkpt lat="44.13896" lon="2.93646">
        <ele>674</ele>
        <time>2021-08-15T14:44:16Z</time>
      </trkpt>
      <trkpt lat="44.13895" lon="2.93641">
        <ele>673.7</ele>
        <time>2021-08-15T14:44:18Z</time>
      </trkpt>
      <trkpt lat="44.13894" lon="2.93636">
        <ele>673.4</ele>
        <time>2021-08-15T14:44:20Z</time>
      </trkpt>
      <trkpt lat="44.13893" lon="2.93631">
        <ele>673.1</ele>
        <time>2021-08-15T14:44:22Z</time>
      </trkpt>
      <trkpt lat="44.13892" lon="2.93626">
        <ele>673</ele>
        <time>2021-08-15T14:44:24Z</time>
      </trkpt>
      <trkpt lat="44.13891" lon="2.93621">
        <ele>672.8</ele>
        <time>2021-08-15T14:44:26Z</time>
      </trkpt>
      <trkpt lat="44.1389" lon="2.93616">
        <ele>672.7</ele>
        <time>2021-08-15T14:44:28Z</time>
      </trkpt>
      <trkpt lat="44.13891" lon="2.93611">
        <ele>673</ele>
        <time>2021-08-15T14:44:30Z</time>
      </trkpt>
      <trkpt lat="44.13891" lon="2.93606">
        <ele>673.1</ele>
        <time>2021-08-15T14:44:32Z</time>
      </trkpt>
      <trkpt lat="44.1389" lon="2.936">
        <ele>673.1</ele>
        <time>2021-08-15T14:44:34Z</time>
      </trkpt>
      <trkpt lat="44.13891" lon="2.93596">
        <ele>673.6</ele>
        <time>2021-08-15T14:44:36Z</time>
      </trkpt>
      <trkpt lat="44.13891" lon="2.9359">
        <ele>673.9</ele>
        <time>2021-08-15T14:44:38Z</time>
      </trkpt>
      <trkpt lat="44.13892" lon="2.93585">
        <ele>674.2</ele>
        <time>2021-08-15T14:44:40Z</time>
      </trkpt>
      <trkpt lat="44.13892" lon="2.9358">
        <ele>674.3</ele>
        <time>2021-08-15T14:44:42Z</time>
      </trkpt>
      <trkpt lat="44.13893" lon="2.93575">
        <ele>674.2</ele>
        <time>2021-08-15T14:44:44Z</time>
      </trkpt>
      <trkpt lat="44.13893" lon="2.9357">
        <ele>674</ele>
        <time>2021-08-15T14:44:46Z</time>
      </trkpt>
      <trkpt lat="44.13895" lon="2.93565">
        <ele>674.4</ele>
        <time>2021-08-15T14:44:48Z</time>
      </trkpt>
      <trkpt lat="44.13896" lon="2.9356">
        <ele>674.8</ele>
        <time>2021-08-15T14:44:50Z</time>
      </trkpt>
      <trkpt lat="44.13898" lon="2.93555">
        <ele>674.9</ele>
        <time>2021-08-15T14:44:52Z</time>
      </trkpt>
      <trkpt lat="44.13899" lon="2.9355">
        <ele>675.1</ele>
        <time>2021-08-15T14:44:54Z</time>
      </trkpt>
      <trkpt lat="44.139" lon="2.93544">
        <ele>675.4</ele>
        <time>2021-08-15T14:44:56Z</time>
      </trkpt>
      <trkpt lat="44.13902" lon="2.93539">
        <ele>675.7</ele>
        <time>2021-08-15T14:44:58Z</time>
      </trkpt>
      <trkpt lat="44.13903" lon="2.93534">
        <ele>675.8</ele>
        <time>2021-08-15T14:45:00Z</time>
      </trkpt>
      <trkpt lat="44.13905" lon="2.93529">
        <ele>676.4</ele>
        <time>2021-08-15T14:45:02Z</time>
      </trkpt>
      <trkpt lat="44.13907" lon="2.93524">
        <ele>676.9</ele>
        <time>2021-08-15T14:45:04Z</time>
      </trkpt>
      <trkpt lat="44.13909" lon="2.9352">
        <ele>677.3</ele>
        <time>2021-08-15T14:45:06Z</time>
      </trkpt>
      <trkpt lat="44.13911" lon="2.93515">
        <ele>677.8</ele>
        <time>2021-08-15T14:45:08Z</time>
      </trkpt>
      <trkpt lat="44.13913" lon="2.9351">
        <ele>678.2</ele>
        <time>2021-08-15T14:45:10Z</time>
      </trkpt>
      <trkpt lat="44.13915" lon="2.93505">
        <ele>678.7</ele>
        <time>2021-08-15T14:45:12Z</time>
      </trkpt>
      <trkpt lat="44.13917" lon="2.935">
        <ele>679.2</ele>
        <time>2021-08-15T14:45:14Z</time>
      </trkpt>
      <trkpt lat="44.13919" lon="2.93496">
        <ele>679.3</ele>
        <time>2021-08-15T14:45:16Z</time>
      </trkpt>
      <trkpt lat="44.13922" lon="2.93491">
        <ele>679.7</ele>
        <time>2021-08-15T14:45:18Z</time>
      </trkpt>
      <trkpt lat="44.13924" lon="2.93486">
        <ele>680.1</ele>
        <time>2021-08-15T14:45:20Z</time>
      </trkpt>
      <trkpt lat="44.13927" lon="2.93482">
        <ele>680.5</ele>
        <time>2021-08-15T14:45:22Z</time>
      </trkpt>
      <trkpt lat="44.13929" lon="2.93478">
        <ele>680.8</ele>
        <time>2021-08-15T14:45:24Z</time>
      </trkpt>
      <trkpt lat="44.13932" lon="2.93474">
        <ele>681.5</ele>
        <time>2021-08-15T14:45:26Z</time>
      </trkpt>
      <trkpt lat="44.13934" lon="2.9347">
        <ele>681.9</ele>
        <time>2021-08-15T14:45:28Z</time>
      </trkpt>
      <trkpt lat="44.13937" lon="2.93465">
        <ele>682.3</ele>
        <time>2021-08-15T14:45:30Z</time>
      </trkpt>
      <trkpt lat="44.13939" lon="2.93461">
        <ele>682.8</ele>
        <time>2021-08-15T14:45:32Z</time>
      </trkpt>
      <trkpt lat="44.13942" lon="2.93457">
        <ele>683.3</ele>
        <time>2021-08-15T14:45:34Z</time>
      </trkpt>
      <trkpt lat="44.13945" lon="2.93453">
        <ele>684</ele>
        <time>2021-08-15T14:45:36Z</time>
      </trkpt>
      <trkpt lat="44.13947" lon="2.93448">
        <ele>684.5</ele>
        <time>2021-08-15T14:45:38Z</time>
      </trkpt>
      <trkpt lat="44.1395" lon="2.93444">
        <ele>685</ele>
        <time>2021-08-15T14:45:40Z</time>
      </trkpt>
      <trkpt lat="44.13952" lon="2.9344">
        <ele>685.4</ele>
        <time>2021-08-15T14:45:42Z</time>
      </trkpt>
      <trkpt lat="44.13955" lon="2.93436">
        <ele>686.1</ele>
        <time>2021-08-15T14:45:44Z</time>
      </trkpt>
      <trkpt lat="44.13957" lon="2.93432">
        <ele>686.6</ele>
        <time>2021-08-15T14:45:46Z</time>
      </trkpt>
      <trkpt lat="44.1396" lon="2.93428">
        <ele>687.1</ele>
        <time>2021-08-15T14:45:48Z</time>
      </trkpt>
      <trkpt lat="44.13962" lon="2.93423">
        <ele>687.7</ele>
        <time>2021-08-15T14:45:50Z</time>
      </trkpt>
      <trkpt lat="44.13965" lon="2.93419">
        <ele>688.2</ele>
        <time>2021-08-15T14:45:52Z</time>
      </trkpt>
      <trkpt lat="44.13967" lon="2.93415">
        <ele>688.8</ele>
        <time>2021-08-15T14:45:54Z</time>
      </trkpt>
      <trkpt lat="44.13969" lon="2.93411">
        <ele>689.1</ele>
        <time>2021-08-15T14:45:56Z</time>
      </trkpt>
      <trkpt lat="44.13971" lon="2.93406">
        <ele>689.5</ele>
        <time>2021-08-15T14:45:58Z</time>
      </trkpt>
      <trkpt lat="44.13974" lon="2.93403">
        <ele>690.1</ele>
        <time>2021-08-15T14:46:00Z</time>
      </trkpt>
      <trkpt lat="44.13976" lon="2.93398">
        <ele>690.6</ele>
        <time>2021-08-15T14:46:02Z</time>
      </trkpt>
      <trkpt lat="44.13978" lon="2.93393">
        <ele>690.8</ele>
        <time>2021-08-15T14:46:04Z</time>
      </trkpt>
      <trkpt lat="44.1398" lon="2.93388">
        <ele>691.1</ele>
        <time>2021-08-15T14:46:06Z</time>
      </trkpt>
      <trkpt lat="44.13982" lon="2.93383">
        <ele>691.1</ele>
        <time>2021-08-15T14:46:08Z</time>
      </trkpt>
      <trkpt lat="44.13984" lon="2.93378">
        <ele>691.2</ele>
        <time>2021-08-15T14:46:10Z</time>
      </trkpt>
      <trkpt lat="44.13986" lon="2.93373">
        <ele>691.3</ele>
        <time>2021-08-15T14:46:12Z</time>
      </trkpt>
      <trkpt lat="44.13988" lon="2.93368">
        <ele>691.3</ele>
        <time>2021-08-15T14:46:14Z</time>
      </trkpt>
      <trkpt lat="44.13989" lon="2.93363">
        <ele>691.2</ele>
        <time>2021-08-15T14:46:16Z</time>
      </trkpt>
      <trkpt lat="44.13991" lon="2.93358">
        <ele>691</ele>
        <time>2021-08-15T14:46:18Z</time>
      </trkpt>
      <trkpt lat="44.13991" lon="2.93352">
        <ele>690.7</ele>
        <time>2021-08-15T14:46:20Z</time>
      </trkpt>
      <trkpt lat="44.13993" lon="2.93348">
        <ele>690.6</ele>
        <time>2021-08-15T14:46:22Z</time>
      </trkpt>
      <trkpt lat="44.13994" lon="2.93342">
        <ele>690.2</ele>
        <time>2021-08-15T14:46:24Z</time>
      </trkpt>
      <trkpt lat="44.13995" lon="2.93337">
        <ele>690</ele>
        <time>2021-08-15T14:46:26Z</time>
      </trkpt>
      <trkpt lat="44.13996" lon="2.93331">
        <ele>689.8</ele>
        <time>2021-08-15T14:46:28Z</time>
      </trkpt>
      <trkpt lat="44.13997" lon="2.93326">
        <ele>689.8</ele>
        <time>2021-08-15T14:46:30Z</time>
      </trkpt>
      <trkpt lat="44.13997" lon="2.9332">
        <ele>689.9</ele>
        <time>2021-08-15T14:46:32Z</time>
      </trkpt>
      <trkpt lat="44.13998" lon="2.93314">
        <ele>689.8</ele>
        <time>2021-08-15T14:46:34Z</time>
      </trkpt>
      <trkpt lat="44.13998" lon="2.93309">
        <ele>689.8</ele>
        <time>2021-08-15T14:46:36Z</time>
      </trkpt>
      <trkpt lat="44.13998" lon="2.93304">
        <ele>689.8</ele>
        <time>2021-08-15T14:46:38Z</time>
      </trkpt>
      <trkpt lat="44.13999" lon="2.93298">
        <ele>689.9</ele>
        <time>2021-08-15T14:46:40Z</time>
      </trkpt>
      <trkpt lat="44.13999" lon="2.93292">
        <ele>689.8</ele>
        <time>2021-08-15T14:46:42Z</time>
      </trkpt>
      <trkpt lat="44.14" lon="2.93287">
        <ele>689.8</ele>
        <time>2021-08-15T14:46:44Z</time>
      </trkpt>
      <trkpt lat="44.14" lon="2.93282">
        <ele>689.7</ele>
        <time>2021-08-15T14:46:46Z</time>
      </trkpt>
      <trkpt lat="44.14" lon="2.93276">
        <ele>689.6</ele>
        <time>2021-08-15T14:46:48Z</time>
      </trkpt>
      <trkpt lat="44.14001" lon="2.93271">
        <ele>689.9</ele>
        <time>2021-08-15T14:46:50Z</time>
      </trkpt>
      <trkpt lat="44.14001" lon="2.93266">
        <ele>689.6</ele>
        <time>2021-08-15T14:46:52Z</time>
      </trkpt>
      <trkpt lat="44.14001" lon="2.9326">
        <ele>689.5</ele>
        <time>2021-08-15T14:46:54Z</time>
      </trkpt>
      <trkpt lat="44.14002" lon="2.93255">
        <ele>689.7</ele>
        <time>2021-08-15T14:46:56Z</time>
      </trkpt>
      <trkpt lat="44.14002" lon="2.9325">
        <ele>689.8</ele>
        <time>2021-08-15T14:46:58Z</time>
      </trkpt>
      <trkpt lat="44.14003" lon="2.93245">
        <ele>689.9</ele>
        <time>2021-08-15T14:47:00Z</time>
      </trkpt>
      <trkpt lat="44.14003" lon="2.93239">
        <ele>690</ele>
        <time>2021-08-15T14:47:02Z</time>
      </trkpt>
      <trkpt lat="44.14004" lon="2.93234">
        <ele>690.1</ele>
        <time>2021-08-15T14:47:04Z</time>
      </trkpt>
      <trkpt lat="44.14006" lon="2.93229">
        <ele>690.6</ele>
        <time>2021-08-15T14:47:06Z</time>
      </trkpt>
      <trkpt lat="44.14007" lon="2.93224">
        <ele>691.2</ele>
        <time>2021-08-15T14:47:08Z</time>
      </trkpt>
      <trkpt lat="44.14009" lon="2.93219">
        <ele>691.9</ele>
        <time>2021-08-15T14:47:10Z</time>
      </trkpt>
      <trkpt lat="44.14012" lon="2.93215">
        <ele>692.8</ele>
        <time>2021-08-15T14:47:12Z</time>
      </trkpt>
      <trkpt lat="44.14014" lon="2.9321">
        <ele>693.5</ele>
        <time>2021-08-15T14:47:14Z</time>
      </trkpt>
      <trkpt lat="44.14016" lon="2.93205">
        <ele>694.3</ele>
        <time>2021-08-15T14:47:16Z</time>
      </trkpt>
      <trkpt lat="44.14019" lon="2.93201">
        <ele>695.3</ele>
        <time>2021-08-15T14:47:18Z</time>
      </trkpt>
      <trkpt lat="44.14022" lon="2.93196">
        <ele>696.3</ele>
        <time>2021-08-15T14:47:20Z</time>
      </trkpt>
      <trkpt lat="44.14024" lon="2.93192">
        <ele>697.2</ele>
        <time>2021-08-15T14:47:22Z</time>
      </trkpt>
      <trkpt lat="44.14027" lon="2.93187">
        <ele>698.2</ele>
        <time>2021-08-15T14:47:24Z</time>
      </trkpt>
      <trkpt lat="44.14029" lon="2.93182">
        <ele>699</ele>
        <time>2021-08-15T14:47:26Z</time>
      </trkpt>
      <trkpt lat="44.14032" lon="2.93178">
        <ele>700</ele>
        <time>2021-08-15T14:47:28Z</time>
      </trkpt>
      <trkpt lat="44.14033" lon="2.93173">
        <ele>700.6</ele>
        <time>2021-08-15T14:47:30Z</time>
      </trkpt>
      <trkpt lat="44.14035" lon="2.93168">
        <ele>701.3</ele>
        <time>2021-08-15T14:47:32Z</time>
      </trkpt>
      <trkpt lat="44.14036" lon="2.93163">
        <ele>702.1</ele>
        <time>2021-08-15T14:47:34Z</time>
      </trkpt>
      <trkpt lat="44.14037" lon="2.93159">
        <ele>702.8</ele>
        <time>2021-08-15T14:47:36Z</time>
      </trkpt>
      <trkpt lat="44.14038" lon="2.93153">
        <ele>703.5</ele>
        <time>2021-08-15T14:47:38Z</time>
      </trkpt>
      <trkpt lat="44.14039" lon="2.93148">
        <ele>704.2</ele>
        <time>2021-08-15T14:47:40Z</time>
      </trkpt>
      <trkpt lat="44.14039" lon="2.93142">
        <ele>704.5</ele>
        <time>2021-08-15T14:47:42Z</time>
      </trkpt>
      <trkpt lat="44.14038" lon="2.93136">
        <ele>704.6</ele>
        <time>2021-08-15T14:47:44Z</time>
      </trkpt>
      <trkpt lat="44.14038" lon="2.9313">
        <ele>705</ele>
        <time>2021-08-15T14:47:46Z</time>
      </trkpt>
      <trkpt lat="44.14036" lon="2.93125">
        <ele>704.7</ele>
        <time>2021-08-15T14:47:48Z</time>
      </trkpt>
      <trkpt lat="44.14036" lon="2.93119">
        <ele>704.8</ele>
        <time>2021-08-15T14:47:50Z</time>
      </trkpt>
      <trkpt lat="44.14035" lon="2.93114">
        <ele>704.8</ele>
        <time>2021-08-15T14:47:52Z</time>
      </trkpt>
      <trkpt lat="44.14033" lon="2.93109">
        <ele>704.4</ele>
        <time>2021-08-15T14:47:54Z</time>
      </trkpt>
      <trkpt lat="44.14032" lon="2.93104">
        <ele>704.3</ele>
        <time>2021-08-15T14:47:56Z</time>
      </trkpt>
      <trkpt lat="44.14032" lon="2.93099">
        <ele>704.2</ele>
        <time>2021-08-15T14:47:58Z</time>
      </trkpt>
      <trkpt lat="44.14031" lon="2.93094">
        <ele>704.5</ele>
        <time>2021-08-15T14:48:00Z</time>
      </trkpt>
      <trkpt lat="44.1403" lon="2.93089">
        <ele>704.2</ele>
        <time>2021-08-15T14:48:02Z</time>
      </trkpt>
      <trkpt lat="44.14029" lon="2.93084">
        <ele>704.1</ele>
        <time>2021-08-15T14:48:04Z</time>
      </trkpt>
      <trkpt lat="44.14028" lon="2.93079">
        <ele>703.9</ele>
        <time>2021-08-15T14:48:06Z</time>
      </trkpt>
      <trkpt lat="44.14028" lon="2.93073">
        <ele>703.9</ele>
        <time>2021-08-15T14:48:08Z</time>
      </trkpt>
      <trkpt lat="44.14027" lon="2.93068">
        <ele>703.9</ele>
        <time>2021-08-15T14:48:10Z</time>
      </trkpt>
      <trkpt lat="44.14026" lon="2.93062">
        <ele>703.8</ele>
        <time>2021-08-15T14:48:12Z</time>
      </trkpt>
      <trkpt lat="44.14026" lon="2.93056">
        <ele>704.1</ele>
        <time>2021-08-15T14:48:14Z</time>
      </trkpt>
      <trkpt lat="44.14025" lon="2.93051">
        <ele>704.2</ele>
        <time>2021-08-15T14:48:16Z</time>
      </trkpt>
      <trkpt lat="44.14024" lon="2.93045">
        <ele>704.1</ele>
        <time>2021-08-15T14:48:18Z</time>
      </trkpt>
      <trkpt lat="44.14023" lon="2.9304">
        <ele>704</ele>
        <time>2021-08-15T14:48:20Z</time>
      </trkpt>
      <trkpt lat="44.14023" lon="2.93034">
        <ele>704.3</ele>
        <time>2021-08-15T14:48:22Z</time>
      </trkpt>
      <trkpt lat="44.14022" lon="2.93028">
        <ele>704.3</ele>
        <time>2021-08-15T14:48:24Z</time>
      </trkpt>
      <trkpt lat="44.14022" lon="2.93022">
        <ele>704.5</ele>
        <time>2021-08-15T14:48:26Z</time>
      </trkpt>
      <trkpt lat="44.14021" lon="2.93017">
        <ele>704.5</ele>
        <time>2021-08-15T14:48:28Z</time>
      </trkpt>
      <trkpt lat="44.1402" lon="2.93011">
        <ele>704.8</ele>
        <time>2021-08-15T14:48:30Z</time>
      </trkpt>
      <trkpt lat="44.1402" lon="2.93005">
        <ele>704.9</ele>
        <time>2021-08-15T14:48:32Z</time>
      </trkpt>
      <trkpt lat="44.1402" lon="2.92999">
        <ele>705.4</ele>
        <time>2021-08-15T14:48:34Z</time>
      </trkpt>
      <trkpt lat="44.1402" lon="2.92993">
        <ele>705.5</ele>
        <time>2021-08-15T14:48:36Z</time>
      </trkpt>
      <trkpt lat="44.1402" lon="2.92987">
        <ele>705.9</ele>
        <time>2021-08-15T14:48:38Z</time>
      </trkpt>
      <trkpt lat="44.14021" lon="2.92981">
        <ele>706.3</ele>
        <time>2021-08-15T14:48:40Z</time>
      </trkpt>
      <trkpt lat="44.14021" lon="2.92975">
        <ele>706.6</ele>
        <time>2021-08-15T14:48:42Z</time>
      </trkpt>
      <trkpt lat="44.14022" lon="2.92969">
        <ele>707.1</ele>
        <time>2021-08-15T14:48:44Z</time>
      </trkpt>
      <trkpt lat="44.14024" lon="2.92963">
        <ele>707.8</ele>
        <time>2021-08-15T14:48:46Z</time>
      </trkpt>
      <trkpt lat="44.14025" lon="2.92958">
        <ele>708.6</ele>
        <time>2021-08-15T14:48:48Z</time>
      </trkpt>
      <trkpt lat="44.14027" lon="2.92952">
        <ele>709.3</ele>
        <time>2021-08-15T14:48:50Z</time>
      </trkpt>
      <trkpt lat="44.14028" lon="2.92946">
        <ele>709.9</ele>
        <time>2021-08-15T14:48:52Z</time>
      </trkpt>
      <trkpt lat="44.1403" lon="2.9294">
        <ele>710.6</ele>
        <time>2021-08-15T14:48:54Z</time>
      </trkpt>
      <trkpt lat="44.14031" lon="2.92934">
        <ele>711.2</ele>
        <time>2021-08-15T14:48:56Z</time>
      </trkpt>
      <trkpt lat="44.14032" lon="2.92928">
        <ele>711.9</ele>
        <time>2021-08-15T14:48:58Z</time>
      </trkpt>
      <trkpt lat="44.14034" lon="2.92923">
        <ele>712.6</ele>
        <time>2021-08-15T14:49:00Z</time>
      </trkpt>
      <trkpt lat="44.14035" lon="2.92917">
        <ele>713.1</ele>
        <time>2021-08-15T14:49:02Z</time>
      </trkpt>
      <trkpt lat="44.14036" lon="2.92911">
        <ele>713.8</ele>
        <time>2021-08-15T14:49:04Z</time>
      </trkpt>
      <trkpt lat="44.14037" lon="2.92906">
        <ele>714.7</ele>
        <time>2021-08-15T14:49:06Z</time>
      </trkpt>
      <trkpt lat="44.14038" lon="2.929">
        <ele>715.6</ele>
        <time>2021-08-15T14:49:08Z</time>
      </trkpt>
      <trkpt lat="44.14039" lon="2.92894">
        <ele>716.4</ele>
        <time>2021-08-15T14:49:10Z</time>
      </trkpt>
      <trkpt lat="44.14039" lon="2.92888">
        <ele>717.2</ele>
        <time>2021-08-15T14:49:12Z</time>
      </trkpt>
      <trkpt lat="44.14041" lon="2.92882">
        <ele>718.1</ele>
        <time>2021-08-15T14:49:14Z</time>
      </trkpt>
      <trkpt lat="44.14041" lon="2.92877">
        <ele>718.7</ele>
        <time>2021-08-15T14:49:16Z</time>
      </trkpt>
      <trkpt lat="44.14042" lon="2.92871">
        <ele>719.3</ele>
        <time>2021-08-15T14:49:18Z</time>
      </trkpt>
      <trkpt lat="44.14042" lon="2.92866">
        <ele>719.9</ele>
        <time>2021-08-15T14:49:20Z</time>
      </trkpt>
      <trkpt lat="44.14042" lon="2.92861">
        <ele>720.4</ele>
        <time>2021-08-15T14:49:22Z</time>
      </trkpt>
      <trkpt lat="44.14043" lon="2.92855">
        <ele>721</ele>
        <time>2021-08-15T14:49:24Z</time>
      </trkpt>
      <trkpt lat="44.14043" lon="2.9285">
        <ele>721.5</ele>
        <time>2021-08-15T14:49:26Z</time>
      </trkpt>
      <trkpt lat="44.14044" lon="2.92845">
        <ele>722.1</ele>
        <time>2021-08-15T14:49:28Z</time>
      </trkpt>
      <trkpt lat="44.14044" lon="2.92839">
        <ele>722.7</ele>
        <time>2021-08-15T14:49:30Z</time>
      </trkpt>
      <trkpt lat="44.14044" lon="2.92833">
        <ele>723.1</ele>
        <time>2021-08-15T14:49:32Z</time>
      </trkpt>
      <trkpt lat="44.14044" lon="2.92828">
        <ele>723.5</ele>
        <time>2021-08-15T14:49:34Z</time>
      </trkpt>
      <trkpt lat="44.14044" lon="2.92822">
        <ele>723.8</ele>
        <time>2021-08-15T14:49:36Z</time>
      </trkpt>
      <trkpt lat="44.14043" lon="2.92817">
        <ele>723.9</ele>
        <time>2021-08-15T14:49:38Z</time>
      </trkpt>
      <trkpt lat="44.14043" lon="2.92811">
        <ele>724.2</ele>
        <time>2021-08-15T14:49:40Z</time>
      </trkpt>
      <trkpt lat="44.14042" lon="2.92805">
        <ele>724.3</ele>
        <time>2021-08-15T14:49:42Z</time>
      </trkpt>
      <trkpt lat="44.14041" lon="2.92799">
        <ele>724.4</ele>
        <time>2021-08-15T14:49:44Z</time>
      </trkpt>
      <trkpt lat="44.14039" lon="2.92794">
        <ele>724.4</ele>
        <time>2021-08-15T14:49:46Z</time>
      </trkpt>
      <trkpt lat="44.14038" lon="2.9279">
        <ele>724.3</ele>
        <time>2021-08-15T14:49:48Z</time>
      </trkpt>
      <trkpt lat="44.14035" lon="2.92785">
        <ele>724.1</ele>
        <time>2021-08-15T14:49:50Z</time>
      </trkpt>
      <trkpt lat="44.14033" lon="2.92781">
        <ele>723.9</ele>
        <time>2021-08-15T14:49:52Z</time>
      </trkpt>
      <trkpt lat="44.1403" lon="2.92777">
        <ele>723.7</ele>
        <time>2021-08-15T14:49:54Z</time>
      </trkpt>
      <trkpt lat="44.14028" lon="2.92774">
        <ele>723.4</ele>
        <time>2021-08-15T14:49:56Z</time>
      </trkpt>
      <trkpt lat="44.14025" lon="2.92771">
        <ele>723</ele>
        <time>2021-08-15T14:49:58Z</time>
      </trkpt>
      <trkpt lat="44.14021" lon="2.92769">
        <ele>722.5</ele>
        <time>2021-08-15T14:50:00Z</time>
      </trkpt>
      <trkpt lat="44.14017" lon="2.92768">
        <ele>722</ele>
        <time>2021-08-15T14:50:02Z</time>
      </trkpt>
      <trkpt lat="44.14014" lon="2.92767">
        <ele>721.4</ele>
        <time>2021-08-15T14:50:04Z</time>
      </trkpt>
      <trkpt lat="44.1401" lon="2.92766">
        <ele>720.8</ele>
        <time>2021-08-15T14:50:06Z</time>
      </trkpt>
      <trkpt lat="44.14006" lon="2.92768">
        <ele>720</ele>
        <time>2021-08-15T14:50:08Z</time>
      </trkpt>
      <trkpt lat="44.14003" lon="2.92771">
        <ele>718.9</ele>
        <time>2021-08-15T14:50:10Z</time>
      </trkpt>
      <trkpt lat="44.13999" lon="2.92774">
        <ele>718.4</ele>
        <time>2021-08-15T14:50:12Z</time>
      </trkpt>
      <trkpt lat="44.13995" lon="2.92778">
        <ele>719.7</ele>
        <time>2021-08-15T14:50:14Z</time>
      </trkpt>
      <trkpt lat="44.13992" lon="2.92781">
        <ele>720.6</ele>
        <time>2021-08-15T14:50:16Z</time>
      </trkpt>
      <trkpt lat="44.1399" lon="2.92787">
        <ele>720.8</ele>
        <time>2021-08-15T14:50:18Z</time>
      </trkpt>
      <trkpt lat="44.13987" lon="2.92792">
        <ele>721.3</ele>
        <time>2021-08-15T14:50:20Z</time>
      </trkpt>
      <trkpt lat="44.13984" lon="2.92798">
        <ele>721.9</ele>
        <time>2021-08-15T14:50:22Z</time>
      </trkpt>
      <trkpt lat="44.13981" lon="2.92803">
        <ele>722.3</ele>
        <time>2021-08-15T14:50:24Z</time>
      </trkpt>
      <trkpt lat="44.13979" lon="2.92807">
        <ele>722.6</ele>
        <time>2021-08-15T14:50:26Z</time>
      </trkpt>
      <trkpt lat="44.13978" lon="2.92813">
        <ele>722.6</ele>
        <time>2021-08-15T14:50:28Z</time>
      </trkpt>
      <trkpt lat="44.13975" lon="2.92818">
        <ele>722.7</ele>
        <time>2021-08-15T14:50:30Z</time>
      </trkpt>
      <trkpt lat="44.13973" lon="2.92823">
        <ele>723.1</ele>
        <time>2021-08-15T14:50:32Z</time>
      </trkpt>
      <trkpt lat="44.1397" lon="2.92828">
        <ele>723.3</ele>
        <time>2021-08-15T14:50:34Z</time>
      </trkpt>
      <trkpt lat="44.13968" lon="2.92833">
        <ele>723.4</ele>
        <time>2021-08-15T14:50:36Z</time>
      </trkpt>
      <trkpt lat="44.13966" lon="2.92839">
        <ele>723.1</ele>
        <time>2021-08-15T14:50:38Z</time>
      </trkpt>
      <trkpt lat="44.13963" lon="2.92845">
        <ele>722.9</ele>
        <time>2021-08-15T14:50:40Z</time>
      </trkpt>
      <trkpt lat="44.1396" lon="2.9285">
        <ele>723</ele>
        <time>2021-08-15T14:50:42Z</time>
      </trkpt>
      <trkpt lat="44.13957" lon="2.92856">
        <ele>723</ele>
        <time>2021-08-15T14:50:44Z</time>
      </trkpt>
      <trkpt lat="44.13955" lon="2.92861">
        <ele>722.9</ele>
        <time>2021-08-15T14:50:46Z</time>
      </trkpt>
      <trkpt lat="44.13951" lon="2.92866">
        <ele>723</ele>
        <time>2021-08-15T14:50:48Z</time>
      </trkpt>
      <trkpt lat="44.13948" lon="2.92871">
        <ele>722.8</ele>
        <time>2021-08-15T14:50:50Z</time>
      </trkpt>
      <trkpt lat="44.13945" lon="2.92876">
        <ele>722.7</ele>
        <time>2021-08-15T14:50:52Z</time>
      </trkpt>
      <trkpt lat="44.13942" lon="2.92882">
        <ele>722.5</ele>
        <time>2021-08-15T14:50:54Z</time>
      </trkpt>
      <trkpt lat="44.13939" lon="2.92887">
        <ele>722.3</ele>
        <time>2021-08-15T14:50:56Z</time>
      </trkpt>
      <trkpt lat="44.13935" lon="2.92892">
        <ele>722.1</ele>
        <time>2021-08-15T14:50:58Z</time>
      </trkpt>
      <trkpt lat="44.13932" lon="2.92898">
        <ele>721.7</ele>
        <time>2021-08-15T14:51:00Z</time>
      </trkpt>
      <trkpt lat="44.13929" lon="2.92903">
        <ele>721.1</ele>
        <time>2021-08-15T14:51:02Z</time>
      </trkpt>
      <trkpt lat="44.13926" lon="2.92909">
        <ele>720.7</ele>
        <time>2021-08-15T14:51:04Z</time>
      </trkpt>
      <trkpt lat="44.13923" lon="2.92914">
        <ele>720.2</ele>
        <time>2021-08-15T14:51:06Z</time>
      </trkpt>
      <trkpt lat="44.1392" lon="2.92919">
        <ele>719.7</ele>
        <time>2021-08-15T14:51:08Z</time>
      </trkpt>
      <trkpt lat="44.13917" lon="2.92924">
        <ele>719.3</ele>
        <time>2021-08-15T14:51:10Z</time>
      </trkpt>
      <trkpt lat="44.13913" lon="2.92929">
        <ele>719.5</ele>
        <time>2021-08-15T14:51:12Z</time>
      </trkpt>
      <trkpt lat="44.1391" lon="2.92934">
        <ele>719.6</ele>
        <time>2021-08-15T14:51:14Z</time>
      </trkpt>
      <trkpt lat="44.13907" lon="2.92939">
        <ele>719.9</ele>
        <time>2021-08-15T14:51:16Z</time>
      </trkpt>
      <trkpt lat="44.13904" lon="2.92945">
        <ele>720</ele>
        <time>2021-08-15T14:51:18Z</time>
      </trkpt>
      <trkpt lat="44.13901" lon="2.9295">
        <ele>719.8</ele>
        <time>2021-08-15T14:51:20Z</time>
      </trkpt>
      <trkpt lat="44.13898" lon="2.92955">
        <ele>720.1</ele>
        <time>2021-08-15T14:51:22Z</time>
      </trkpt>
      <trkpt lat="44.13895" lon="2.9296">
        <ele>719.9</ele>
        <time>2021-08-15T14:51:24Z</time>
      </trkpt>
      <trkpt lat="44.13891" lon="2.92965">
        <ele>720.2</ele>
        <time>2021-08-15T14:51:26Z</time>
      </trkpt>
      <trkpt lat="44.13888" lon="2.9297">
        <ele>720.1</ele>
        <time>2021-08-15T14:51:28Z</time>
      </trkpt>
      <trkpt lat="44.13886" lon="2.92975">
        <ele>720.1</ele>
        <time>2021-08-15T14:51:30Z</time>
      </trkpt>
      <trkpt lat="44.13882" lon="2.9298">
        <ele>720.3</ele>
        <time>2021-08-15T14:51:32Z</time>
      </trkpt>
      <trkpt lat="44.13879" lon="2.92985">
        <ele>720.3</ele>
        <time>2021-08-15T14:51:34Z</time>
      </trkpt>
      <trkpt lat="44.13876" lon="2.92989">
        <ele>720.4</ele>
        <time>2021-08-15T14:51:36Z</time>
      </trkpt>
      <trkpt lat="44.13872" lon="2.92994">
        <ele>720.6</ele>
        <time>2021-08-15T14:51:38Z</time>
      </trkpt>
      <trkpt lat="44.13869" lon="2.92998">
        <ele>720.7</ele>
        <time>2021-08-15T14:51:40Z</time>
      </trkpt>
      <trkpt lat="44.13865" lon="2.93003">
        <ele>721.4</ele>
        <time>2021-08-15T14:51:42Z</time>
      </trkpt>
      <trkpt lat="44.13862" lon="2.93006">
        <ele>722</ele>
        <time>2021-08-15T14:51:44Z</time>
      </trkpt>
      <trkpt lat="44.13859" lon="2.93011">
        <ele>722.6</ele>
        <time>2021-08-15T14:51:46Z</time>
      </trkpt>
      <trkpt lat="44.13855" lon="2.93016">
        <ele>723.1</ele>
        <time>2021-08-15T14:51:48Z</time>
      </trkpt>
      <trkpt lat="44.13851" lon="2.93021">
        <ele>724.1</ele>
        <time>2021-08-15T14:51:50Z</time>
      </trkpt>
      <trkpt lat="44.13848" lon="2.93025">
        <ele>724.6</ele>
        <time>2021-08-15T14:51:52Z</time>
      </trkpt>
      <trkpt lat="44.13844" lon="2.9303">
        <ele>725.4</ele>
        <time>2021-08-15T14:51:54Z</time>
      </trkpt>
      <trkpt lat="44.13841" lon="2.93036">
        <ele>725.8</ele>
        <time>2021-08-15T14:51:56Z</time>
      </trkpt>
      <trkpt lat="44.13838" lon="2.9304">
        <ele>726.3</ele>
        <time>2021-08-15T14:51:58Z</time>
      </trkpt>
      <trkpt lat="44.13835" lon="2.93045">
        <ele>726.9</ele>
        <time>2021-08-15T14:52:00Z</time>
      </trkpt>
      <trkpt lat="44.13833" lon="2.9305">
        <ele>726.9</ele>
        <time>2021-08-15T14:52:02Z</time>
      </trkpt>
      <trkpt lat="44.13831" lon="2.93056">
        <ele>726.7</ele>
        <time>2021-08-15T14:52:04Z</time>
      </trkpt>
      <trkpt lat="44.13829" lon="2.93061">
        <ele>726.6</ele>
        <time>2021-08-15T14:52:06Z</time>
      </trkpt>
      <trkpt lat="44.13828" lon="2.93067">
        <ele>726.3</ele>
        <time>2021-08-15T14:52:08Z</time>
      </trkpt>
      <trkpt lat="44.13827" lon="2.93074">
        <ele>725.8</ele>
        <time>2021-08-15T14:52:10Z</time>
      </trkpt>
      <trkpt lat="44.13826" lon="2.9308">
        <ele>725.2</ele>
        <time>2021-08-15T14:52:12Z</time>
      </trkpt>
      <trkpt lat="44.13825" lon="2.93086">
        <ele>724.8</ele>
        <time>2021-08-15T14:52:14Z</time>
      </trkpt>
      <trkpt lat="44.13824" lon="2.93093">
        <ele>724.6</ele>
        <time>2021-08-15T14:52:16Z</time>
      </trkpt>
      <trkpt lat="44.13823" lon="2.931">
        <ele>724.6</ele>
        <time>2021-08-15T14:52:18Z</time>
      </trkpt>
      <trkpt lat="44.13821" lon="2.93106">
        <ele>724.6</ele>
        <time>2021-08-15T14:52:20Z</time>
      </trkpt>
      <trkpt lat="44.1382" lon="2.93113">
        <ele>724.5</ele>
        <time>2021-08-15T14:52:22Z</time>
      </trkpt>
      <trkpt lat="44.13819" lon="2.93119">
        <ele>724.3</ele>
        <time>2021-08-15T14:52:24Z</time>
      </trkpt>
      <trkpt lat="44.13818" lon="2.93125">
        <ele>724.2</ele>
        <time>2021-08-15T14:52:26Z</time>
      </trkpt>
      <trkpt lat="44.13816" lon="2.93132">
        <ele>724.1</ele>
        <time>2021-08-15T14:52:28Z</time>
      </trkpt>
      <trkpt lat="44.13815" lon="2.93138">
        <ele>723.9</ele>
        <time>2021-08-15T14:52:30Z</time>
      </trkpt>
      <trkpt lat="44.13813" lon="2.93145">
        <ele>724.1</ele>
        <time>2021-08-15T14:52:32Z</time>
      </trkpt>
      <trkpt lat="44.13812" lon="2.93151">
        <ele>724</ele>
        <time>2021-08-15T14:52:34Z</time>
      </trkpt>
      <trkpt lat="44.1381" lon="2.93157">
        <ele>724.2</ele>
        <time>2021-08-15T14:52:36Z</time>
      </trkpt>
      <trkpt lat="44.13809" lon="2.93163">
        <ele>724.1</ele>
        <time>2021-08-15T14:52:38Z</time>
      </trkpt>
      <trkpt lat="44.13807" lon="2.93169">
        <ele>723.8</ele>
        <time>2021-08-15T14:52:40Z</time>
      </trkpt>
      <trkpt lat="44.13805" lon="2.93175">
        <ele>723.4</ele>
        <time>2021-08-15T14:52:42Z</time>
      </trkpt>
      <trkpt lat="44.13801" lon="2.93181">
        <ele>723.4</ele>
        <time>2021-08-15T14:52:44Z</time>
      </trkpt>
      <trkpt lat="44.13798" lon="2.93187">
        <ele>723</ele>
        <time>2021-08-15T14:52:46Z</time>
      </trkpt>
      <trkpt lat="44.13794" lon="2.93193">
        <ele>723.1</ele>
        <time>2021-08-15T14:52:48Z</time>
      </trkpt>
      <trkpt lat="44.13791" lon="2.93198">
        <ele>723.2</ele>
        <time>2021-08-15T14:52:50Z</time>
      </trkpt>
      <trkpt lat="44.13787" lon="2.93204">
        <ele>723</ele>
        <time>2021-08-15T14:52:52Z</time>
      </trkpt>
      <trkpt lat="44.13784" lon="2.93209">
        <ele>723.3</ele>
        <time>2021-08-15T14:52:54Z</time>
      </trkpt>
      <trkpt lat="44.1378" lon="2.93214">
        <ele>723.6</ele>
        <time>2021-08-15T14:52:56Z</time>
      </trkpt>
      <trkpt lat="44.13777" lon="2.93219">
        <ele>723.8</ele>
        <time>2021-08-15T14:52:58Z</time>
      </trkpt>
      <trkpt lat="44.13773" lon="2.93223">
        <ele>724.1</ele>
        <time>2021-08-15T14:53:00Z</time>
      </trkpt>
      <trkpt lat="44.13769" lon="2.93227">
        <ele>724.6</ele>
        <time>2021-08-15T14:53:02Z</time>
      </trkpt>
      <trkpt lat="44.13766" lon="2.93231">
        <ele>725.2</ele>
        <time>2021-08-15T14:53:04Z</time>
      </trkpt>
      <trkpt lat="44.13761" lon="2.93234">
        <ele>726.3</ele>
        <time>2021-08-15T14:53:06Z</time>
      </trkpt>
      <trkpt lat="44.13757" lon="2.93238">
        <ele>727.1</ele>
        <time>2021-08-15T14:53:08Z</time>
      </trkpt>
      <trkpt lat="44.13752" lon="2.93243">
        <ele>727.6</ele>
        <time>2021-08-15T14:53:10Z</time>
      </trkpt>
      <trkpt lat="44.13748" lon="2.93247">
        <ele>728.1</ele>
        <time>2021-08-15T14:53:12Z</time>
      </trkpt>
      <trkpt lat="44.13744" lon="2.93251">
        <ele>728</ele>
        <time>2021-08-15T14:53:14Z</time>
      </trkpt>
      <trkpt lat="44.13739" lon="2.93255">
        <ele>727.8</ele>
        <time>2021-08-15T14:53:16Z</time>
      </trkpt>
      <trkpt lat="44.13735" lon="2.9326">
        <ele>727.2</ele>
        <time>2021-08-15T14:53:18Z</time>
      </trkpt>
      <trkpt lat="44.13731" lon="2.93263">
        <ele>727.1</ele>
        <time>2021-08-15T14:53:20Z</time>
      </trkpt>
      <trkpt lat="44.13726" lon="2.93266">
        <ele>726.9</ele>
        <time>2021-08-15T14:53:22Z</time>
      </trkpt>
      <trkpt lat="44.13723" lon="2.93269">
        <ele>726.7</ele>
        <time>2021-08-15T14:53:24Z</time>
      </trkpt>
      <trkpt lat="44.13718" lon="2.93272">
        <ele>726.8</ele>
        <time>2021-08-15T14:53:26Z</time>
      </trkpt>
      <trkpt lat="44.13715" lon="2.93276">
        <ele>726.6</ele>
        <time>2021-08-15T14:53:28Z</time>
      </trkpt>
      <trkpt lat="44.1371" lon="2.9328">
        <ele>726.4</ele>
        <time>2021-08-15T14:53:30Z</time>
      </trkpt>
      <trkpt lat="44.13706" lon="2.93283">
        <ele>726.4</ele>
        <time>2021-08-15T14:53:32Z</time>
      </trkpt>
      <trkpt lat="44.13702" lon="2.93286">
        <ele>726.5</ele>
        <time>2021-08-15T14:53:34Z</time>
      </trkpt>
      <trkpt lat="44.13699" lon="2.93289">
        <ele>726.5</ele>
        <time>2021-08-15T14:53:36Z</time>
      </trkpt>
      <trkpt lat="44.13694" lon="2.93292">
        <ele>726.7</ele>
        <time>2021-08-15T14:53:38Z</time>
      </trkpt>
      <trkpt lat="44.1369" lon="2.93294">
        <ele>727</ele>
        <time>2021-08-15T14:53:40Z</time>
      </trkpt>
      <trkpt lat="44.13686" lon="2.93297">
        <ele>727.2</ele>
        <time>2021-08-15T14:53:42Z</time>
      </trkpt>
      <trkpt lat="44.13683" lon="2.93299">
        <ele>727.5</ele>
        <time>2021-08-15T14:53:44Z</time>
      </trkpt>
      <trkpt lat="44.13679" lon="2.93302">
        <ele>727.5</ele>
        <time>2021-08-15T14:53:46Z</time>
      </trkpt>
      <trkpt lat="44.13674" lon="2.93306">
        <ele>727.7</ele>
        <time>2021-08-15T14:53:48Z</time>
      </trkpt>
      <trkpt lat="44.1367" lon="2.9331">
        <ele>727.9</ele>
        <time>2021-08-15T14:53:50Z</time>
      </trkpt>
      <trkpt lat="44.13666" lon="2.93313">
        <ele>727.9</ele>
        <time>2021-08-15T14:53:52Z</time>
      </trkpt>
      <trkpt lat="44.13661" lon="2.93316">
        <ele>726.9</ele>
        <time>2021-08-15T14:53:54Z</time>
      </trkpt>
      <trkpt lat="44.13657" lon="2.93319">
        <ele>726</ele>
        <time>2021-08-15T14:53:56Z</time>
      </trkpt>
      <trkpt lat="44.13652" lon="2.93322">
        <ele>725.2</ele>
        <time>2021-08-15T14:53:58Z</time>
      </trkpt>
      <trkpt lat="44.13648" lon="2.93325">
        <ele>724.6</ele>
        <time>2021-08-15T14:54:00Z</time>
      </trkpt>
      <trkpt lat="44.13644" lon="2.93327">
        <ele>724</ele>
        <time>2021-08-15T14:54:02Z</time>
      </trkpt>
      <trkpt lat="44.13639" lon="2.93329">
        <ele>723.6</ele>
        <time>2021-08-15T14:54:04Z</time>
      </trkpt>
      <trkpt lat="44.13635" lon="2.93331">
        <ele>723.2</ele>
        <time>2021-08-15T14:54:06Z</time>
      </trkpt>
      <trkpt lat="44.13631" lon="2.93334">
        <ele>722.7</ele>
        <time>2021-08-15T14:54:08Z</time>
      </trkpt>
      <trkpt lat="44.13626" lon="2.93336">
        <ele>722.3</ele>
        <time>2021-08-15T14:54:10Z</time>
      </trkpt>
      <trkpt lat="44.13621" lon="2.93338">
        <ele>722.1</ele>
        <time>2021-08-15T14:54:12Z</time>
      </trkpt>
      <trkpt lat="44.13616" lon="2.93339">
        <ele>721.8</ele>
        <time>2021-08-15T14:54:14Z</time>
      </trkpt>
      <trkpt lat="44.13611" lon="2.9334">
        <ele>721.8</ele>
        <time>2021-08-15T14:54:16Z</time>
      </trkpt>
      <trkpt lat="44.13606" lon="2.93341">
        <ele>721.8</ele>
        <time>2021-08-15T14:54:18Z</time>
      </trkpt>
      <trkpt lat="44.13601" lon="2.93341">
        <ele>721.9</ele>
        <time>2021-08-15T14:54:20Z</time>
      </trkpt>
      <trkpt lat="44.13596" lon="2.93341">
        <ele>722.2</ele>
        <time>2021-08-15T14:54:22Z</time>
      </trkpt>
      <trkpt lat="44.13591" lon="2.93339">
        <ele>722.6</ele>
        <time>2021-08-15T14:54:24Z</time>
      </trkpt>
      <trkpt lat="44.13586" lon="2.93338">
        <ele>723.1</ele>
        <time>2021-08-15T14:54:26Z</time>
      </trkpt>
      <trkpt lat="44.13581" lon="2.93335">
        <ele>723</ele>
        <time>2021-08-15T14:54:28Z</time>
      </trkpt>
      <trkpt lat="44.13576" lon="2.9333">
        <ele>722.3</ele>
        <time>2021-08-15T14:54:30Z</time>
      </trkpt>
      <trkpt lat="44.13572" lon="2.93326">
        <ele>721.6</ele>
        <time>2021-08-15T14:54:32Z</time>
      </trkpt>
      <trkpt lat="44.13568" lon="2.93321">
        <ele>721.2</ele>
        <time>2021-08-15T14:54:34Z</time>
      </trkpt>
      <trkpt lat="44.13565" lon="2.93316">
        <ele>720.9</ele>
        <time>2021-08-15T14:54:36Z</time>
      </trkpt>
      <trkpt lat="44.13564" lon="2.93309">
        <ele>721.4</ele>
        <time>2021-08-15T14:54:38Z</time>
      </trkpt>
      <trkpt lat="44.13562" lon="2.93302">
        <ele>721.8</ele>
        <time>2021-08-15T14:54:40Z</time>
      </trkpt>
      <trkpt lat="44.1356" lon="2.93296">
        <ele>722.1</ele>
        <time>2021-08-15T14:54:42Z</time>
      </trkpt>
      <trkpt lat="44.13559" lon="2.93288">
        <ele>722.9</ele>
        <time>2021-08-15T14:54:44Z</time>
      </trkpt>
      <trkpt lat="44.13558" lon="2.93281">
        <ele>723.6</ele>
        <time>2021-08-15T14:54:46Z</time>
      </trkpt>
      <trkpt lat="44.13557" lon="2.93274">
        <ele>724.3</ele>
        <time>2021-08-15T14:54:48Z</time>
      </trkpt>
      <trkpt lat="44.13556" lon="2.93268">
        <ele>724.9</ele>
        <time>2021-08-15T14:54:50Z</time>
      </trkpt>
      <trkpt lat="44.13555" lon="2.93261">
        <ele>725.5</ele>
        <time>2021-08-15T14:54:52Z</time>
      </trkpt>
      <trkpt lat="44.13553" lon="2.93254">
        <ele>726</ele>
        <time>2021-08-15T14:54:54Z</time>
      </trkpt>
      <trkpt lat="44.13552" lon="2.93248">
        <ele>726.5</ele>
        <time>2021-08-15T14:54:56Z</time>
      </trkpt>
      <trkpt lat="44.13551" lon="2.93241">
        <ele>726.7</ele>
        <time>2021-08-15T14:54:58Z</time>
      </trkpt>
      <trkpt lat="44.1355" lon="2.93234">
        <ele>727</ele>
        <time>2021-08-15T14:55:00Z</time>
      </trkpt>
      <trkpt lat="44.13549" lon="2.93228">
        <ele>727.4</ele>
        <time>2021-08-15T14:55:02Z</time>
      </trkpt>
      <trkpt lat="44.13548" lon="2.93221">
        <ele>727.6</ele>
        <time>2021-08-15T14:55:04Z</time>
      </trkpt>
      <trkpt lat="44.13547" lon="2.93215">
        <ele>727.9</ele>
        <time>2021-08-15T14:55:06Z</time>
      </trkpt>
      <trkpt lat="44.13546" lon="2.93208">
        <ele>728.2</ele>
        <time>2021-08-15T14:55:08Z</time>
      </trkpt>
      <trkpt lat="44.13545" lon="2.93202">
        <ele>728.4</ele>
        <time>2021-08-15T14:55:10Z</time>
      </trkpt>
      <trkpt lat="44.13544" lon="2.93196">
        <ele>728.7</ele>
        <time>2021-08-15T14:55:12Z</time>
      </trkpt>
      <trkpt lat="44.13543" lon="2.93189">
        <ele>729.2</ele>
        <time>2021-08-15T14:55:14Z</time>
      </trkpt>
      <trkpt lat="44.13542" lon="2.93182">
        <ele>729.7</ele>
        <time>2021-08-15T14:55:16Z</time>
      </trkpt>
      <trkpt lat="44.13542" lon="2.93175">
        <ele>730.2</ele>
        <time>2021-08-15T14:55:18Z</time>
      </trkpt>
      <trkpt lat="44.1354" lon="2.93169">
        <ele>730.5</ele>
        <time>2021-08-15T14:55:20Z</time>
      </trkpt>
      <trkpt lat="44.1354" lon="2.93162">
        <ele>730.9</ele>
        <time>2021-08-15T14:55:22Z</time>
      </trkpt>
      <trkpt lat="44.13539" lon="2.93155">
        <ele>731.1</ele>
        <time>2021-08-15T14:55:24Z</time>
      </trkpt>
      <trkpt lat="44.13539" lon="2.93148">
        <ele>731.3</ele>
        <time>2021-08-15T14:55:26Z</time>
      </trkpt>
      <trkpt lat="44.13538" lon="2.93141">
        <ele>731.6</ele>
        <time>2021-08-15T14:55:28Z</time>
      </trkpt>
      <trkpt lat="44.13537" lon="2.93135">
        <ele>731.7</ele>
        <time>2021-08-15T14:55:30Z</time>
      </trkpt>
      <trkpt lat="44.13537" lon="2.93129">
        <ele>732</ele>
        <time>2021-08-15T14:55:32Z</time>
      </trkpt>
      <trkpt lat="44.13537" lon="2.93122">
        <ele>732.3</ele>
        <time>2021-08-15T14:55:34Z</time>
      </trkpt>
      <trkpt lat="44.13537" lon="2.93116">
        <ele>732.6</ele>
        <time>2021-08-15T14:55:36Z</time>
      </trkpt>
      <trkpt lat="44.13536" lon="2.93109">
        <ele>732.8</ele>
        <time>2021-08-15T14:55:38Z</time>
      </trkpt>
      <trkpt lat="44.13535" lon="2.93102">
        <ele>733.1</ele>
        <time>2021-08-15T14:55:40Z</time>
      </trkpt>
      <trkpt lat="44.13535" lon="2.93095">
        <ele>733.4</ele>
        <time>2021-08-15T14:55:42Z</time>
      </trkpt>
      <trkpt lat="44.13535" lon="2.93088">
        <ele>733.6</ele>
        <time>2021-08-15T14:55:44Z</time>
      </trkpt>
      <trkpt lat="44.13534" lon="2.93081">
        <ele>733.9</ele>
        <time>2021-08-15T14:55:46Z</time>
      </trkpt>
      <trkpt lat="44.13534" lon="2.93074">
        <ele>734.1</ele>
        <time>2021-08-15T14:55:48Z</time>
      </trkpt>
      <trkpt lat="44.13533" lon="2.93067">
        <ele>734.1</ele>
        <time>2021-08-15T14:55:50Z</time>
      </trkpt>
      <trkpt lat="44.13533" lon="2.9306">
        <ele>734.3</ele>
        <time>2021-08-15T14:55:52Z</time>
      </trkpt>
      <trkpt lat="44.13534" lon="2.93053">
        <ele>734.7</ele>
        <time>2021-08-15T14:55:54Z</time>
      </trkpt>
      <trkpt lat="44.13534" lon="2.93045">
        <ele>735</ele>
        <time>2021-08-15T14:55:56Z</time>
      </trkpt>
      <trkpt lat="44.13534" lon="2.93038">
        <ele>735.2</ele>
        <time>2021-08-15T14:55:58Z</time>
      </trkpt>
      <trkpt lat="44.13534" lon="2.93031">
        <ele>735.6</ele>
        <time>2021-08-15T14:56:00Z</time>
      </trkpt>
      <trkpt lat="44.13535" lon="2.93023">
        <ele>735.8</ele>
        <time>2021-08-15T14:56:02Z</time>
      </trkpt>
      <trkpt lat="44.13536" lon="2.93016">
        <ele>736.2</ele>
        <time>2021-08-15T14:56:04Z</time>
      </trkpt>
      <trkpt lat="44.13536" lon="2.93008">
        <ele>736.5</ele>
        <time>2021-08-15T14:56:06Z</time>
      </trkpt>
      <trkpt lat="44.13536" lon="2.93001">
        <ele>736.8</ele>
        <time>2021-08-15T14:56:08Z</time>
      </trkpt>
      <trkpt lat="44.13536" lon="2.92993">
        <ele>737.7</ele>
        <time>2021-08-15T14:56:10Z</time>
      </trkpt>
      <trkpt lat="44.13535" lon="2.92985">
        <ele>738.7</ele>
        <time>2021-08-15T14:56:12Z</time>
      </trkpt>
      <trkpt lat="44.13533" lon="2.92977">
        <ele>739.5</ele>
        <time>2021-08-15T14:56:14Z</time>
      </trkpt>
      <trkpt lat="44.13531" lon="2.9297">
        <ele>740.2</ele>
        <time>2021-08-15T14:56:16Z</time>
      </trkpt>
      <trkpt lat="44.13526" lon="2.92963">
        <ele>740.7</ele>
        <time>2021-08-15T14:56:18Z</time>
      </trkpt>
      <trkpt lat="44.13521" lon="2.92956">
        <ele>741.1</ele>
        <time>2021-08-15T14:56:20Z</time>
      </trkpt>
      <trkpt lat="44.13515" lon="2.92951">
        <ele>741.2</ele>
        <time>2021-08-15T14:56:22Z</time>
      </trkpt>
      <trkpt lat="44.13509" lon="2.92947">
        <ele>741.1</ele>
        <time>2021-08-15T14:56:24Z</time>
      </trkpt>
      <trkpt lat="44.13502" lon="2.92945">
        <ele>740.7</ele>
        <time>2021-08-15T14:56:26Z</time>
      </trkpt>
      <trkpt lat="44.13496" lon="2.92945">
        <ele>740.6</ele>
        <time>2021-08-15T14:56:28Z</time>
      </trkpt>
      <trkpt lat="44.1349" lon="2.92944">
        <ele>740.9</ele>
        <time>2021-08-15T14:56:30Z</time>
      </trkpt>
      <trkpt lat="44.13484" lon="2.92943">
        <ele>741</ele>
        <time>2021-08-15T14:56:32Z</time>
      </trkpt>
      <trkpt lat="44.13478" lon="2.92942">
        <ele>741.2</ele>
        <time>2021-08-15T14:56:34Z</time>
      </trkpt>
      <trkpt lat="44.13472" lon="2.92941">
        <ele>741.4</ele>
        <time>2021-08-15T14:56:36Z</time>
      </trkpt>
      <trkpt lat="44.13466" lon="2.9294">
        <ele>741.5</ele>
        <time>2021-08-15T14:56:38Z</time>
      </trkpt>
      <trkpt lat="44.1346" lon="2.9294">
        <ele>741.6</ele>
        <time>2021-08-15T14:56:40Z</time>
      </trkpt>
      <trkpt lat="44.13454" lon="2.92938">
        <ele>741.8</ele>
        <time>2021-08-15T14:56:42Z</time>
      </trkpt>
      <trkpt lat="44.13448" lon="2.92937">
        <ele>741.9</ele>
        <time>2021-08-15T14:56:44Z</time>
      </trkpt>
      <trkpt lat="44.13442" lon="2.92937">
        <ele>741.9</ele>
        <time>2021-08-15T14:56:46Z</time>
      </trkpt>
      <trkpt lat="44.13435" lon="2.92938">
        <ele>741.9</ele>
        <time>2021-08-15T14:56:48Z</time>
      </trkpt>
      <trkpt lat="44.1343" lon="2.92943">
        <ele>741.6</ele>
        <time>2021-08-15T14:56:50Z</time>
      </trkpt>
      <trkpt lat="44.13425" lon="2.9295">
        <ele>741.3</ele>
        <time>2021-08-15T14:56:52Z</time>
      </trkpt>
      <trkpt lat="44.13422" lon="2.92958">
        <ele>740.9</ele>
        <time>2021-08-15T14:56:54Z</time>
      </trkpt>
      <trkpt lat="44.1342" lon="2.92967">
        <ele>740.5</ele>
        <time>2021-08-15T14:56:56Z</time>
      </trkpt>
      <trkpt lat="44.13418" lon="2.92976">
        <ele>740.1</ele>
        <time>2021-08-15T14:56:58Z</time>
      </trkpt>
      <trkpt lat="44.13418" lon="2.92985">
        <ele>739.7</ele>
        <time>2021-08-15T14:57:00Z</time>
      </trkpt>
      <trkpt lat="44.13418" lon="2.92995">
        <ele>739.2</ele>
        <time>2021-08-15T14:57:02Z</time>
      </trkpt>
      <trkpt lat="44.13418" lon="2.93004">
        <ele>738.8</ele>
        <time>2021-08-15T14:57:04Z</time>
      </trkpt>
      <trkpt lat="44.13418" lon="2.93013">
        <ele>738.4</ele>
        <time>2021-08-15T14:57:06Z</time>
      </trkpt>
      <trkpt lat="44.13417" lon="2.93023">
        <ele>738.1</ele>
        <time>2021-08-15T14:57:08Z</time>
      </trkpt>
      <trkpt lat="44.13417" lon="2.93033">
        <ele>737.8</ele>
        <time>2021-08-15T14:57:10Z</time>
      </trkpt>
      <trkpt lat="44.13417" lon="2.93042">
        <ele>737.5</ele>
        <time>2021-08-15T14:57:12Z</time>
      </trkpt>
      <trkpt lat="44.13416" lon="2.93052">
        <ele>737.3</ele>
        <time>2021-08-15T14:57:14Z</time>
      </trkpt>
      <trkpt lat="44.13414" lon="2.93061">
        <ele>737.3</ele>
        <time>2021-08-15T14:57:16Z</time>
      </trkpt>
      <trkpt lat="44.13412" lon="2.93069">
        <ele>737.4</ele>
        <time>2021-08-15T14:57:18Z</time>
      </trkpt>
      <trkpt lat="44.13409" lon="2.93078">
        <ele>737.6</ele>
        <time>2021-08-15T14:57:20Z</time>
      </trkpt>
      <trkpt lat="44.13406" lon="2.93085">
        <ele>737.8</ele>
        <time>2021-08-15T14:57:22Z</time>
      </trkpt>
      <trkpt lat="44.13402" lon="2.93091">
        <ele>738.1</ele>
        <time>2021-08-15T14:57:24Z</time>
      </trkpt>
      <trkpt lat="44.13397" lon="2.93096">
        <ele>738.4</ele>
        <time>2021-08-15T14:57:26Z</time>
      </trkpt>
      <trkpt lat="44.13393" lon="2.93102">
        <ele>738.8</ele>
        <time>2021-08-15T14:57:28Z</time>
      </trkpt>
      <trkpt lat="44.13389" lon="2.93107">
        <ele>739.1</ele>
        <time>2021-08-15T14:57:30Z</time>
      </trkpt>
      <trkpt lat="44.13384" lon="2.93113">
        <ele>739.5</ele>
        <time>2021-08-15T14:57:32Z</time>
      </trkpt>
      <trkpt lat="44.1338" lon="2.93117">
        <ele>739.9</ele>
        <time>2021-08-15T14:57:34Z</time>
      </trkpt>
      <trkpt lat="44.13376" lon="2.93122">
        <ele>740.3</ele>
        <time>2021-08-15T14:57:36Z</time>
      </trkpt>
      <trkpt lat="44.13372" lon="2.93127">
        <ele>740.7</ele>
        <time>2021-08-15T14:57:38Z</time>
      </trkpt>
      <trkpt lat="44.13368" lon="2.93132">
        <ele>741.1</ele>
        <time>2021-08-15T14:57:40Z</time>
      </trkpt>
      <trkpt lat="44.13364" lon="2.93137">
        <ele>741.4</ele>
        <time>2021-08-15T14:57:42Z</time>
      </trkpt>
      <trkpt lat="44.13359" lon="2.93141">
        <ele>742</ele>
        <time>2021-08-15T14:57:44Z</time>
      </trkpt>
      <trkpt lat="44.13355" lon="2.93145">
        <ele>742.4</ele>
        <time>2021-08-15T14:57:46Z</time>
      </trkpt>
      <trkpt lat="44.13351" lon="2.93149">
        <ele>743</ele>
        <time>2021-08-15T14:57:48Z</time>
      </trkpt>
      <trkpt lat="44.13346" lon="2.93154">
        <ele>743.5</ele>
        <time>2021-08-15T14:57:50Z</time>
      </trkpt>
      <trkpt lat="44.13342" lon="2.93156">
        <ele>744.2</ele>
        <time>2021-08-15T14:57:52Z</time>
      </trkpt>
      <trkpt lat="44.13337" lon="2.93159">
        <ele>744.9</ele>
        <time>2021-08-15T14:57:54Z</time>
      </trkpt>
      <trkpt lat="44.13332" lon="2.93161">
        <ele>745.4</ele>
        <time>2021-08-15T14:57:56Z</time>
      </trkpt>
      <trkpt lat="44.13326" lon="2.93163">
        <ele>745.4</ele>
        <time>2021-08-15T14:57:58Z</time>
      </trkpt>
      <trkpt lat="44.13321" lon="2.93164">
        <ele>745.5</ele>
        <time>2021-08-15T14:58:00Z</time>
      </trkpt>
      <trkpt lat="44.13316" lon="2.93164">
        <ele>745.6</ele>
        <time>2021-08-15T14:58:02Z</time>
      </trkpt>
      <trkpt lat="44.1331" lon="2.93165">
        <ele>745.7</ele>
        <time>2021-08-15T14:58:04Z</time>
      </trkpt>
      <trkpt lat="44.13305" lon="2.93166">
        <ele>745.8</ele>
        <time>2021-08-15T14:58:06Z</time>
      </trkpt>
      <trkpt lat="44.13299" lon="2.93166">
        <ele>745.9</ele>
        <time>2021-08-15T14:58:08Z</time>
      </trkpt>
      <trkpt lat="44.13294" lon="2.93167">
        <ele>746</ele>
        <time>2021-08-15T14:58:10Z</time>
      </trkpt>
      <trkpt lat="44.13289" lon="2.93167">
        <ele>746</ele>
        <time>2021-08-15T14:58:12Z</time>
      </trkpt>
      <trkpt lat="44.13284" lon="2.93168">
        <ele>746.1</ele>
        <time>2021-08-15T14:58:14Z</time>
      </trkpt>
      <trkpt lat="44.1328" lon="2.93168">
        <ele>746.2</ele>
        <time>2021-08-15T14:58:16Z</time>
      </trkpt>
      <trkpt lat="44.13276" lon="2.93168">
        <ele>746.3</ele>
        <time>2021-08-15T14:58:18Z</time>
      </trkpt>
      <trkpt lat="44.13272" lon="2.93169">
        <ele>746.3</ele>
        <time>2021-08-15T14:58:20Z</time>
      </trkpt>
      <trkpt lat="44.13267" lon="2.93167">
        <ele>746.5</ele>
        <time>2021-08-15T14:58:22Z</time>
      </trkpt>
      <trkpt lat="44.13262" lon="2.93166">
        <ele>746.8</ele>
        <time>2021-08-15T14:58:24Z</time>
      </trkpt>
      <trkpt lat="44.13257" lon="2.93165">
        <ele>747</ele>
        <time>2021-08-15T14:58:26Z</time>
      </trkpt>
      <trkpt lat="44.13253" lon="2.93163">
        <ele>747.3</ele>
        <time>2021-08-15T14:58:28Z</time>
      </trkpt>
      <trkpt lat="44.13248" lon="2.93161">
        <ele>747.5</ele>
        <time>2021-08-15T14:58:30Z</time>
      </trkpt>
      <trkpt lat="44.13243" lon="2.9316">
        <ele>747.5</ele>
        <time>2021-08-15T14:58:32Z</time>
      </trkpt>
      <trkpt lat="44.13238" lon="2.93158">
        <ele>747.6</ele>
        <time>2021-08-15T14:58:34Z</time>
      </trkpt>
      <trkpt lat="44.13234" lon="2.93157">
        <ele>747.7</ele>
        <time>2021-08-15T14:58:36Z</time>
      </trkpt>
      <trkpt lat="44.1323" lon="2.93156">
        <ele>747.7</ele>
        <time>2021-08-15T14:58:38Z</time>
      </trkpt>
      <trkpt lat="44.13227" lon="2.93157">
        <ele>747.6</ele>
        <time>2021-08-15T14:58:40Z</time>
      </trkpt>
      <trkpt lat="44.13224" lon="2.93158">
        <ele>747.5</ele>
        <time>2021-08-15T14:58:42Z</time>
      </trkpt>
      <trkpt lat="44.13222" lon="2.93158">
        <ele>747.5</ele>
        <time>2021-08-15T14:58:44Z</time>
      </trkpt>
      <trkpt lat="44.13221" lon="2.93158">
        <ele>747.5</ele>
        <time>2021-08-15T14:58:46Z</time>
      </trkpt>
      <trkpt lat="44.13221" lon="2.93158">
        <ele>747.5</ele>
        <time>2021-08-15T14:58:48Z</time>
      </trkpt>
      <trkpt lat="44.13221" lon="2.93158">
        <ele>747.5</ele>
        <time>2021-08-15T14:58:50Z</time>
      </trkpt>
      <trkpt lat="44.13221" lon="2.93158">
        <ele>747.5</ele>
        <time>2021-08-15T14:58:52Z</time>
      </trkpt>
      <trkpt lat="44.13222" lon="2.93152">
        <ele>748</ele>
        <time>2021-08-15T15:03:44Z</time>
      </trkpt>
      <trkpt lat="44.1322" lon="2.93147">
        <ele>748.4</ele>
        <time>2021-08-15T15:03:46Z</time>
      </trkpt>
      <trkpt lat="44.13216" lon="2.93146">
        <ele>748.6</ele>
        <time>2021-08-15T15:03:48Z</time>
      </trkpt>
      <trkpt lat="44.13212" lon="2.93143">
        <ele>748.8</ele>
        <time>2021-08-15T15:03:50Z</time>
      </trkpt>
      <trkpt lat="44.13209" lon="2.9314">
        <ele>749</ele>
        <time>2021-08-15T15:03:52Z</time>
      </trkpt>
      <trkpt lat="44.13205" lon="2.93138">
        <ele>749.2</ele>
        <time>2021-08-15T15:03:54Z</time>
      </trkpt>
      <trkpt lat="44.13201" lon="2.93136">
        <ele>749.4</ele>
        <time>2021-08-15T15:03:56Z</time>
      </trkpt>
      <trkpt lat="44.13198" lon="2.93134">
        <ele>749.6</ele>
        <time>2021-08-15T15:03:58Z</time>
      </trkpt>
      <trkpt lat="44.13194" lon="2.93132">
        <ele>749.8</ele>
        <time>2021-08-15T15:04:00Z</time>
      </trkpt>
      <trkpt lat="44.13191" lon="2.9313">
        <ele>750</ele>
        <time>2021-08-15T15:04:02Z</time>
      </trkpt>
      <trkpt lat="44.13187" lon="2.93128">
        <ele>750.1</ele>
        <time>2021-08-15T15:04:04Z</time>
      </trkpt>
      <trkpt lat="44.13184" lon="2.93126">
        <ele>750.4</ele>
        <time>2021-08-15T15:04:06Z</time>
      </trkpt>
      <trkpt lat="44.1318" lon="2.93125">
        <ele>750.5</ele>
        <time>2021-08-15T15:04:08Z</time>
      </trkpt>
      <trkpt lat="44.13176" lon="2.93123">
        <ele>750.7</ele>
        <time>2021-08-15T15:04:10Z</time>
      </trkpt>
      <trkpt lat="44.13172" lon="2.93121">
        <ele>750.9</ele>
        <time>2021-08-15T15:04:12Z</time>
      </trkpt>
      <trkpt lat="44.13168" lon="2.93119">
        <ele>751.1</ele>
        <time>2021-08-15T15:04:14Z</time>
      </trkpt>
      <trkpt lat="44.13165" lon="2.93118">
        <ele>751.3</ele>
        <time>2021-08-15T15:04:16Z</time>
      </trkpt>
      <trkpt lat="44.13161" lon="2.93115">
        <ele>751.6</ele>
        <time>2021-08-15T15:04:18Z</time>
      </trkpt>
      <trkpt lat="44.13158" lon="2.93113">
        <ele>751.8</ele>
        <time>2021-08-15T15:04:20Z</time>
      </trkpt>
      <trkpt lat="44.13154" lon="2.9311">
        <ele>752.2</ele>
        <time>2021-08-15T15:04:22Z</time>
      </trkpt>
      <trkpt lat="44.13151" lon="2.93108">
        <ele>752.5</ele>
        <time>2021-08-15T15:04:24Z</time>
      </trkpt>
      <trkpt lat="44.13147" lon="2.93106">
        <ele>752.7</ele>
        <time>2021-08-15T15:04:26Z</time>
      </trkpt>
      <trkpt lat="44.13143" lon="2.93104">
        <ele>753</ele>
        <time>2021-08-15T15:04:28Z</time>
      </trkpt>
      <trkpt lat="44.13139" lon="2.93102">
        <ele>753.2</ele>
        <time>2021-08-15T15:04:30Z</time>
      </trkpt>
      <trkpt lat="44.13136" lon="2.931">
        <ele>753.5</ele>
        <time>2021-08-15T15:04:32Z</time>
      </trkpt>
      <trkpt lat="44.13133" lon="2.93098">
        <ele>753.8</ele>
        <time>2021-08-15T15:04:34Z</time>
      </trkpt>
      <trkpt lat="44.1313" lon="2.93095">
        <ele>754.1</ele>
        <time>2021-08-15T15:04:36Z</time>
      </trkpt>
      <trkpt lat="44.13127" lon="2.93093">
        <ele>754.4</ele>
        <time>2021-08-15T15:04:38Z</time>
      </trkpt>
      <trkpt lat="44.13124" lon="2.93091">
        <ele>754.7</ele>
        <time>2021-08-15T15:04:40Z</time>
      </trkpt>
      <trkpt lat="44.13121" lon="2.93088">
        <ele>755</ele>
        <time>2021-08-15T15:04:42Z</time>
      </trkpt>
      <trkpt lat="44.13117" lon="2.93085">
        <ele>755.4</ele>
        <time>2021-08-15T15:04:44Z</time>
      </trkpt>
      <trkpt lat="44.13114" lon="2.93083">
        <ele>755.7</ele>
        <time>2021-08-15T15:04:46Z</time>
      </trkpt>
      <trkpt lat="44.13111" lon="2.9308">
        <ele>756.1</ele>
        <time>2021-08-15T15:04:48Z</time>
      </trkpt>
      <trkpt lat="44.13107" lon="2.93077">
        <ele>756.4</ele>
        <time>2021-08-15T15:04:50Z</time>
      </trkpt>
      <trkpt lat="44.13104" lon="2.93075">
        <ele>756.7</ele>
        <time>2021-08-15T15:04:52Z</time>
      </trkpt>
      <trkpt lat="44.131" lon="2.93073">
        <ele>756.9</ele>
        <time>2021-08-15T15:04:54Z</time>
      </trkpt>
      <trkpt lat="44.13097" lon="2.93071">
        <ele>757.2</ele>
        <time>2021-08-15T15:04:56Z</time>
      </trkpt>
      <trkpt lat="44.13094" lon="2.9307">
        <ele>757.4</ele>
        <time>2021-08-15T15:04:58Z</time>
      </trkpt>
      <trkpt lat="44.1309" lon="2.93068">
        <ele>757.6</ele>
        <time>2021-08-15T15:05:00Z</time>
      </trkpt>
      <trkpt lat="44.13086" lon="2.93066">
        <ele>757.8</ele>
        <time>2021-08-15T15:05:02Z</time>
      </trkpt>
      <trkpt lat="44.13082" lon="2.93066">
        <ele>757.9</ele>
        <time>2021-08-15T15:05:04Z</time>
      </trkpt>
      <trkpt lat="44.13078" lon="2.93064">
        <ele>758.1</ele>
        <time>2021-08-15T15:05:06Z</time>
      </trkpt>
      <trkpt lat="44.13074" lon="2.93063">
        <ele>758.2</ele>
        <time>2021-08-15T15:05:08Z</time>
      </trkpt>
      <trkpt lat="44.1307" lon="2.93062">
        <ele>758.4</ele>
        <time>2021-08-15T15:05:10Z</time>
      </trkpt>
      <trkpt lat="44.13066" lon="2.9306">
        <ele>758.6</ele>
        <time>2021-08-15T15:05:12Z</time>
      </trkpt>
      <trkpt lat="44.13061" lon="2.93059">
        <ele>758.7</ele>
        <time>2021-08-15T15:05:14Z</time>
      </trkpt>
      <trkpt lat="44.13057" lon="2.93058">
        <ele>758.9</ele>
        <time>2021-08-15T15:05:16Z</time>
      </trkpt>
      <trkpt lat="44.13053" lon="2.93057">
        <ele>759</ele>
        <time>2021-08-15T15:05:18Z</time>
      </trkpt>
      <trkpt lat="44.13049" lon="2.93056">
        <ele>759.1</ele>
        <time>2021-08-15T15:05:20Z</time>
      </trkpt>
      <trkpt lat="44.13045" lon="2.93054">
        <ele>759.3</ele>
        <time>2021-08-15T15:05:22Z</time>
      </trkpt>
      <trkpt lat="44.13041" lon="2.93052">
        <ele>759.5</ele>
        <time>2021-08-15T15:05:24Z</time>
      </trkpt>
      <trkpt lat="44.13037" lon="2.93051">
        <ele>759.6</ele>
        <time>2021-08-15T15:05:26Z</time>
      </trkpt>
      <trkpt lat="44.13033" lon="2.9305">
        <ele>759.7</ele>
        <time>2021-08-15T15:05:28Z</time>
      </trkpt>
      <trkpt lat="44.13029" lon="2.93049">
        <ele>759.9</ele>
        <time>2021-08-15T15:05:30Z</time>
      </trkpt>
      <trkpt lat="44.13026" lon="2.93047">
        <ele>760</ele>
        <time>2021-08-15T15:05:32Z</time>
      </trkpt>
      <trkpt lat="44.13022" lon="2.93046">
        <ele>760.1</ele>
        <time>2021-08-15T15:05:34Z</time>
      </trkpt>
      <trkpt lat="44.13018" lon="2.93046">
        <ele>760.1</ele>
        <time>2021-08-15T15:05:36Z</time>
      </trkpt>
      <trkpt lat="44.13016" lon="2.93047">
        <ele>760</ele>
        <time>2021-08-15T15:05:38Z</time>
      </trkpt>
      <trkpt lat="44.13012" lon="2.93047">
        <ele>760</ele>
        <time>2021-08-15T15:05:40Z</time>
      </trkpt>
      <trkpt lat="44.13009" lon="2.93048">
        <ele>760</ele>
        <time>2021-08-15T15:05:42Z</time>
      </trkpt>
      <trkpt lat="44.13005" lon="2.9305">
        <ele>759.8</ele>
        <time>2021-08-15T15:05:44Z</time>
      </trkpt>
      <trkpt lat="44.13002" lon="2.93052">
        <ele>759.6</ele>
        <time>2021-08-15T15:05:46Z</time>
      </trkpt>
      <trkpt lat="44.12999" lon="2.93053">
        <ele>759.5</ele>
        <time>2021-08-15T15:05:48Z</time>
      </trkpt>
      <trkpt lat="44.12996" lon="2.93054">
        <ele>759.4</ele>
        <time>2021-08-15T15:05:50Z</time>
      </trkpt>
      <trkpt lat="44.12996" lon="2.93056">
        <ele>759.3</ele>
        <time>2021-08-15T15:05:52Z</time>
      </trkpt>
      <trkpt lat="44.12996" lon="2.93056">
        <ele>759.3</ele>
        <time>2021-08-15T15:05:54Z</time>
      </trkpt>
      <trkpt lat="44.12996" lon="2.93057">
        <ele>759.2</ele>
        <time>2021-08-15T15:05:56Z</time>
      </trkpt>
      <trkpt lat="44.12996" lon="2.93057">
        <ele>759.2</ele>
        <time>2021-08-15T15:05:58Z</time>
      </trkpt>
      <trkpt lat="44.12996" lon="2.93057">
        <ele>759.2</ele>
        <time>2021-08-15T15:06:00Z</time>
      </trkpt>
      <trkpt lat="44.13007" lon="2.93047">
        <ele>760.1</ele>
        <time>2021-08-15T16:24:16Z</time>
      </trkpt>
      <trkpt lat="44.1301" lon="2.93045">
        <ele>760.2</ele>
        <time>2021-08-15T16:24:18Z</time>
      </trkpt>
      <trkpt lat="44.13012" lon="2.93043">
        <ele>760.4</ele>
        <time>2021-08-15T16:24:20Z</time>
      </trkpt>
      <trkpt lat="44.13015" lon="2.93041">
        <ele>760.6</ele>
        <time>2021-08-15T16:24:22Z</time>
      </trkpt>
      <trkpt lat="44.13017" lon="2.93038">
        <ele>760.9</ele>
        <time>2021-08-15T16:24:24Z</time>
      </trkpt>
      <trkpt lat="44.13018" lon="2.93033">
        <ele>761.2</ele>
        <time>2021-08-15T16:24:26Z</time>
      </trkpt>
      <trkpt lat="44.13018" lon="2.93029">
        <ele>761.6</ele>
        <time>2021-08-15T16:24:28Z</time>
      </trkpt>
      <trkpt lat="44.13019" lon="2.93025">
        <ele>762</ele>
        <time>2021-08-15T16:24:30Z</time>
      </trkpt>
      <trkpt lat="44.13021" lon="2.93021">
        <ele>762.4</ele>
        <time>2021-08-15T16:24:32Z</time>
      </trkpt>
      <trkpt lat="44.13022" lon="2.93017">
        <ele>762.7</ele>
        <time>2021-08-15T16:24:34Z</time>
      </trkpt>
      <trkpt lat="44.13024" lon="2.93012">
        <ele>763.2</ele>
        <time>2021-08-15T16:24:36Z</time>
      </trkpt>
      <trkpt lat="44.13025" lon="2.93008">
        <ele>763.6</ele>
        <time>2021-08-15T16:24:38Z</time>
      </trkpt>
      <trkpt lat="44.13027" lon="2.93004">
        <ele>764</ele>
        <time>2021-08-15T16:24:40Z</time>
      </trkpt>
      <trkpt lat="44.13027" lon="2.92999">
        <ele>764.4</ele>
        <time>2021-08-15T16:24:42Z</time>
      </trkpt>
      <trkpt lat="44.13029" lon="2.92995">
        <ele>764.7</ele>
        <time>2021-08-15T16:24:44Z</time>
      </trkpt>
      <trkpt lat="44.1303" lon="2.9299">
        <ele>765</ele>
        <time>2021-08-15T16:24:46Z</time>
      </trkpt>
      <trkpt lat="44.13031" lon="2.92986">
        <ele>765.3</ele>
        <time>2021-08-15T16:24:48Z</time>
      </trkpt>
      <trkpt lat="44.13033" lon="2.92982">
        <ele>765.6</ele>
        <time>2021-08-15T16:24:50Z</time>
      </trkpt>
      <trkpt lat="44.13035" lon="2.92977">
        <ele>765.9</ele>
        <time>2021-08-15T16:24:52Z</time>
      </trkpt>
      <trkpt lat="44.13037" lon="2.92973">
        <ele>766.2</ele>
        <time>2021-08-15T16:24:54Z</time>
      </trkpt>
      <trkpt lat="44.1304" lon="2.9297">
        <ele>766.4</ele>
        <time>2021-08-15T16:24:56Z</time>
      </trkpt>
      <trkpt lat="44.13043" lon="2.92967">
        <ele>766.7</ele>
        <time>2021-08-15T16:24:58Z</time>
      </trkpt>
      <trkpt lat="44.13046" lon="2.92965">
        <ele>766.9</ele>
        <time>2021-08-15T16:25:00Z</time>
      </trkpt>
      <trkpt lat="44.13049" lon="2.92962">
        <ele>767.1</ele>
        <time>2021-08-15T16:25:02Z</time>
      </trkpt>
      <trkpt lat="44.13052" lon="2.92959">
        <ele>767.2</ele>
        <time>2021-08-15T16:25:04Z</time>
      </trkpt>
      <trkpt lat="44.13055" lon="2.92958">
        <ele>767.4</ele>
        <time>2021-08-15T16:25:06Z</time>
      </trkpt>
      <trkpt lat="44.13058" lon="2.92955">
        <ele>767.6</ele>
        <time>2021-08-15T16:25:08Z</time>
      </trkpt>
      <trkpt lat="44.13061" lon="2.92953">
        <ele>767.7</ele>
        <time>2021-08-15T16:25:10Z</time>
      </trkpt>
      <trkpt lat="44.13064" lon="2.92951">
        <ele>767.9</ele>
        <time>2021-08-15T16:25:12Z</time>
      </trkpt>
      <trkpt lat="44.13067" lon="2.92949">
        <ele>768</ele>
        <time>2021-08-15T16:25:14Z</time>
      </trkpt>
      <trkpt lat="44.1307" lon="2.92947">
        <ele>768.1</ele>
        <time>2021-08-15T16:25:16Z</time>
      </trkpt>
      <trkpt lat="44.13073" lon="2.92944">
        <ele>768.3</ele>
        <time>2021-08-15T16:25:18Z</time>
      </trkpt>
      <trkpt lat="44.13076" lon="2.92942">
        <ele>768.4</ele>
        <time>2021-08-15T16:25:20Z</time>
      </trkpt>
      <trkpt lat="44.13079" lon="2.9294">
        <ele>768.6</ele>
        <time>2021-08-15T16:25:22Z</time>
      </trkpt>
      <trkpt lat="44.13083" lon="2.92938">
        <ele>768.7</ele>
        <time>2021-08-15T16:25:24Z</time>
      </trkpt>
      <trkpt lat="44.13086" lon="2.92936">
        <ele>768.9</ele>
        <time>2021-08-15T16:25:26Z</time>
      </trkpt>
      <trkpt lat="44.13089" lon="2.92933">
        <ele>769</ele>
        <time>2021-08-15T16:25:28Z</time>
      </trkpt>
      <trkpt lat="44.13093" lon="2.92932">
        <ele>769.2</ele>
        <time>2021-08-15T16:25:30Z</time>
      </trkpt>
      <trkpt lat="44.13096" lon="2.9293">
        <ele>769.3</ele>
        <time>2021-08-15T16:25:32Z</time>
      </trkpt>
      <trkpt lat="44.13099" lon="2.92928">
        <ele>769.5</ele>
        <time>2021-08-15T16:25:34Z</time>
      </trkpt>
      <trkpt lat="44.13102" lon="2.92926">
        <ele>769.6</ele>
        <time>2021-08-15T16:25:36Z</time>
      </trkpt>
      <trkpt lat="44.13105" lon="2.92924">
        <ele>769.8</ele>
        <time>2021-08-15T16:25:38Z</time>
      </trkpt>
      <trkpt lat="44.13108" lon="2.92921">
        <ele>770</ele>
        <time>2021-08-15T16:25:40Z</time>
      </trkpt>
      <trkpt lat="44.13112" lon="2.92919">
        <ele>770.2</ele>
        <time>2021-08-15T16:25:42Z</time>
      </trkpt>
      <trkpt lat="44.13114" lon="2.92916">
        <ele>770.4</ele>
        <time>2021-08-15T16:25:44Z</time>
      </trkpt>
      <trkpt lat="44.13117" lon="2.92914">
        <ele>770.7</ele>
        <time>2021-08-15T16:25:46Z</time>
      </trkpt>
      <trkpt lat="44.13121" lon="2.92911">
        <ele>770.9</ele>
        <time>2021-08-15T16:25:48Z</time>
      </trkpt>
      <trkpt lat="44.13124" lon="2.92909">
        <ele>771.1</ele>
        <time>2021-08-15T16:25:50Z</time>
      </trkpt>
      <trkpt lat="44.13126" lon="2.92906">
        <ele>771.4</ele>
        <time>2021-08-15T16:25:52Z</time>
      </trkpt>
      <trkpt lat="44.13129" lon="2.92903">
        <ele>771.7</ele>
        <time>2021-08-15T16:25:54Z</time>
      </trkpt>
      <trkpt lat="44.13131" lon="2.92901">
        <ele>771.9</ele>
        <time>2021-08-15T16:25:56Z</time>
      </trkpt>
      <trkpt lat="44.13134" lon="2.92897">
        <ele>772.2</ele>
        <time>2021-08-15T16:25:58Z</time>
      </trkpt>
      <trkpt lat="44.13137" lon="2.92894">
        <ele>772.5</ele>
        <time>2021-08-15T16:26:00Z</time>
      </trkpt>
      <trkpt lat="44.1314" lon="2.92892">
        <ele>772.7</ele>
        <time>2021-08-15T16:26:02Z</time>
      </trkpt>
      <trkpt lat="44.13143" lon="2.92889">
        <ele>772.9</ele>
        <time>2021-08-15T16:26:04Z</time>
      </trkpt>
      <trkpt lat="44.13145" lon="2.92887">
        <ele>773.1</ele>
        <time>2021-08-15T16:26:06Z</time>
      </trkpt>
      <trkpt lat="44.13148" lon="2.92884">
        <ele>773.3</ele>
        <time>2021-08-15T16:26:08Z</time>
      </trkpt>
      <trkpt lat="44.13151" lon="2.92881">
        <ele>773.6</ele>
        <time>2021-08-15T16:26:10Z</time>
      </trkpt>
      <trkpt lat="44.13154" lon="2.92878">
        <ele>773.8</ele>
        <time>2021-08-15T16:26:12Z</time>
      </trkpt>
      <trkpt lat="44.13157" lon="2.92875">
        <ele>774</ele>
        <time>2021-08-15T16:26:14Z</time>
      </trkpt>
      <trkpt lat="44.13159" lon="2.92873">
        <ele>774.2</ele>
        <time>2021-08-15T16:26:16Z</time>
      </trkpt>
      <trkpt lat="44.13161" lon="2.9287">
        <ele>774.4</ele>
        <time>2021-08-15T16:26:18Z</time>
      </trkpt>
      <trkpt lat="44.13164" lon="2.92868">
        <ele>774.5</ele>
        <time>2021-08-15T16:26:20Z</time>
      </trkpt>
      <trkpt lat="44.13167" lon="2.92865">
        <ele>774.7</ele>
        <time>2021-08-15T16:26:22Z</time>
      </trkpt>
      <trkpt lat="44.1317" lon="2.92862">
        <ele>774.7</ele>
        <time>2021-08-15T16:26:24Z</time>
      </trkpt>
      <trkpt lat="44.13172" lon="2.92859">
        <ele>774.8</ele>
        <time>2021-08-15T16:26:26Z</time>
      </trkpt>
      <trkpt lat="44.13176" lon="2.92856">
        <ele>774.8</ele>
        <time>2021-08-15T16:26:28Z</time>
      </trkpt>
      <trkpt lat="44.13178" lon="2.92854">
        <ele>774.8</ele>
        <time>2021-08-15T16:26:30Z</time>
      </trkpt>
      <trkpt lat="44.13181" lon="2.92851">
        <ele>774.8</ele>
        <time>2021-08-15T16:26:32Z</time>
      </trkpt>
      <trkpt lat="44.13184" lon="2.92849">
        <ele>774.7</ele>
        <time>2021-08-15T16:26:34Z</time>
      </trkpt>
      <trkpt lat="44.13186" lon="2.92848">
        <ele>774.7</ele>
        <time>2021-08-15T16:26:36Z</time>
      </trkpt>
      <trkpt lat="44.13189" lon="2.92846">
        <ele>774.6</ele>
        <time>2021-08-15T16:26:38Z</time>
      </trkpt>
      <trkpt lat="44.1319" lon="2.92842">
        <ele>774.8</ele>
        <time>2021-08-15T16:26:40Z</time>
      </trkpt>
      <trkpt lat="44.13193" lon="2.92839">
        <ele>774.8</ele>
        <time>2021-08-15T16:26:42Z</time>
      </trkpt>
      <trkpt lat="44.13196" lon="2.92837">
        <ele>774.7</ele>
        <time>2021-08-15T16:26:44Z</time>
      </trkpt>
      <trkpt lat="44.13199" lon="2.92834">
        <ele>774.7</ele>
        <time>2021-08-15T16:26:46Z</time>
      </trkpt>
      <trkpt lat="44.13201" lon="2.92831">
        <ele>774.8</ele>
        <time>2021-08-15T16:26:48Z</time>
      </trkpt>
      <trkpt lat="44.13204" lon="2.92828">
        <ele>775</ele>
        <time>2021-08-15T16:26:50Z</time>
      </trkpt>
      <trkpt lat="44.13207" lon="2.92825">
        <ele>775.3</ele>
        <time>2021-08-15T16:26:52Z</time>
      </trkpt>
      <trkpt lat="44.1321" lon="2.92821">
        <ele>775.4</ele>
        <time>2021-08-15T16:26:54Z</time>
      </trkpt>
      <trkpt lat="44.13213" lon="2.92818">
        <ele>775.7</ele>
        <time>2021-08-15T16:26:56Z</time>
      </trkpt>
      <trkpt lat="44.13216" lon="2.92815">
        <ele>775.8</ele>
        <time>2021-08-15T16:26:58Z</time>
      </trkpt>
      <trkpt lat="44.13218" lon="2.92811">
        <ele>776.1</ele>
        <time>2021-08-15T16:27:00Z</time>
      </trkpt>
      <trkpt lat="44.13221" lon="2.92808">
        <ele>776.4</ele>
        <time>2021-08-15T16:27:02Z</time>
      </trkpt>
      <trkpt lat="44.13224" lon="2.92804">
        <ele>776.6</ele>
        <time>2021-08-15T16:27:04Z</time>
      </trkpt>
      <trkpt lat="44.13226" lon="2.928">
        <ele>776.9</ele>
        <time>2021-08-15T16:27:06Z</time>
      </trkpt>
      <trkpt lat="44.13229" lon="2.92797">
        <ele>777.1</ele>
        <time>2021-08-15T16:27:08Z</time>
      </trkpt>
      <trkpt lat="44.13231" lon="2.92793">
        <ele>777.4</ele>
        <time>2021-08-15T16:27:10Z</time>
      </trkpt>
      <trkpt lat="44.13234" lon="2.92788">
        <ele>777.8</ele>
        <time>2021-08-15T16:27:12Z</time>
      </trkpt>
      <trkpt lat="44.13237" lon="2.92783">
        <ele>778.2</ele>
        <time>2021-08-15T16:27:14Z</time>
      </trkpt>
      <trkpt lat="44.13239" lon="2.92778">
        <ele>778.6</ele>
        <time>2021-08-15T16:27:16Z</time>
      </trkpt>
      <trkpt lat="44.13242" lon="2.92772">
        <ele>779.1</ele>
        <time>2021-08-15T16:27:18Z</time>
      </trkpt>
      <trkpt lat="44.13244" lon="2.92766">
        <ele>779.6</ele>
        <time>2021-08-15T16:27:20Z</time>
      </trkpt>
      <trkpt lat="44.13246" lon="2.92759">
        <ele>780.3</ele>
        <time>2021-08-15T16:27:22Z</time>
      </trkpt>
      <trkpt lat="44.13249" lon="2.92752">
        <ele>780.8</ele>
        <time>2021-08-15T16:27:24Z</time>
      </trkpt>
      <trkpt lat="44.13251" lon="2.92745">
        <ele>781.8</ele>
        <time>2021-08-15T16:27:26Z</time>
      </trkpt>
      <trkpt lat="44.13253" lon="2.92737">
        <ele>783.1</ele>
        <time>2021-08-15T16:27:28Z</time>
      </trkpt>
      <trkpt lat="44.13257" lon="2.9273">
        <ele>784.2</ele>
        <time>2021-08-15T16:27:30Z</time>
      </trkpt>
      <trkpt lat="44.13261" lon="2.92725">
        <ele>784.8</ele>
        <time>2021-08-15T16:27:32Z</time>
      </trkpt>
      <trkpt lat="44.13265" lon="2.9272">
        <ele>785.5</ele>
        <time>2021-08-15T16:27:34Z</time>
      </trkpt>
      <trkpt lat="44.1327" lon="2.92716">
        <ele>785.9</ele>
        <time>2021-08-15T16:27:36Z</time>
      </trkpt>
      <trkpt lat="44.13275" lon="2.92713">
        <ele>786.3</ele>
        <time>2021-08-15T16:27:38Z</time>
      </trkpt>
      <trkpt lat="44.1328" lon="2.92709">
        <ele>786.6</ele>
        <time>2021-08-15T16:27:40Z</time>
      </trkpt>
      <trkpt lat="44.13285" lon="2.92707">
        <ele>786.8</ele>
        <time>2021-08-15T16:27:42Z</time>
      </trkpt>
      <trkpt lat="44.13289" lon="2.92706">
        <ele>786.8</ele>
        <time>2021-08-15T16:27:44Z</time>
      </trkpt>
      <trkpt lat="44.13294" lon="2.92704">
        <ele>786.8</ele>
        <time>2021-08-15T16:27:46Z</time>
      </trkpt>
      <trkpt lat="44.13299" lon="2.92703">
        <ele>786.6</ele>
        <time>2021-08-15T16:27:48Z</time>
      </trkpt>
      <trkpt lat="44.13303" lon="2.92701">
        <ele>786.8</ele>
        <time>2021-08-15T16:27:50Z</time>
      </trkpt>
      <trkpt lat="44.13308" lon="2.927">
        <ele>786.8</ele>
        <time>2021-08-15T16:27:52Z</time>
      </trkpt>
      <trkpt lat="44.13313" lon="2.92699">
        <ele>786.7</ele>
        <time>2021-08-15T16:27:54Z</time>
      </trkpt>
      <trkpt lat="44.13318" lon="2.92698">
        <ele>786.7</ele>
        <time>2021-08-15T16:27:56Z</time>
      </trkpt>
      <trkpt lat="44.13322" lon="2.92698">
        <ele>786.6</ele>
        <time>2021-08-15T16:27:58Z</time>
      </trkpt>
      <trkpt lat="44.13327" lon="2.92696">
        <ele>786.6</ele>
        <time>2021-08-15T16:28:00Z</time>
      </trkpt>
      <trkpt lat="44.1333" lon="2.92696">
        <ele>786.6</ele>
        <time>2021-08-15T16:28:02Z</time>
      </trkpt>
      <trkpt lat="44.13334" lon="2.92695">
        <ele>786.6</ele>
        <time>2021-08-15T16:28:04Z</time>
      </trkpt>
      <trkpt lat="44.13338" lon="2.92694">
        <ele>786.9</ele>
        <time>2021-08-15T16:28:06Z</time>
      </trkpt>
      <trkpt lat="44.13342" lon="2.92694">
        <ele>787.1</ele>
        <time>2021-08-15T16:28:08Z</time>
      </trkpt>
      <trkpt lat="44.13345" lon="2.92693">
        <ele>787.4</ele>
        <time>2021-08-15T16:28:10Z</time>
      </trkpt>
      <trkpt lat="44.13348" lon="2.92693">
        <ele>787.7</ele>
        <time>2021-08-15T16:28:12Z</time>
      </trkpt>
      <trkpt lat="44.13351" lon="2.92691">
        <ele>788.2</ele>
        <time>2021-08-15T16:28:14Z</time>
      </trkpt>
      <trkpt lat="44.13354" lon="2.92691">
        <ele>788.4</ele>
        <time>2021-08-15T16:28:16Z</time>
      </trkpt>
      <trkpt lat="44.13357" lon="2.9269">
        <ele>788.6</ele>
        <time>2021-08-15T16:28:18Z</time>
      </trkpt>
      <trkpt lat="44.13361" lon="2.92689">
        <ele>789</ele>
        <time>2021-08-15T16:28:20Z</time>
      </trkpt>
      <trkpt lat="44.13364" lon="2.92689">
        <ele>789.3</ele>
        <time>2021-08-15T16:28:22Z</time>
      </trkpt>
      <trkpt lat="44.13368" lon="2.92688">
        <ele>789.5</ele>
        <time>2021-08-15T16:28:24Z</time>
      </trkpt>
      <trkpt lat="44.13372" lon="2.92688">
        <ele>789.6</ele>
        <time>2021-08-15T16:28:26Z</time>
      </trkpt>
      <trkpt lat="44.13375" lon="2.92688">
        <ele>789.6</ele>
        <time>2021-08-15T16:28:28Z</time>
      </trkpt>
      <trkpt lat="44.13379" lon="2.92688">
        <ele>789.9</ele>
        <time>2021-08-15T16:28:30Z</time>
      </trkpt>
      <trkpt lat="44.13383" lon="2.92688">
        <ele>790.1</ele>
        <time>2021-08-15T16:28:32Z</time>
      </trkpt>
      <trkpt lat="44.13386" lon="2.92688">
        <ele>790</ele>
        <time>2021-08-15T16:28:34Z</time>
      </trkpt>
      <trkpt lat="44.13389" lon="2.92688">
        <ele>790.3</ele>
        <time>2021-08-15T16:28:36Z</time>
      </trkpt>
      <trkpt lat="44.13392" lon="2.92688">
        <ele>790.3</ele>
        <time>2021-08-15T16:28:38Z</time>
      </trkpt>
      <trkpt lat="44.13395" lon="2.92689">
        <ele>790.2</ele>
        <time>2021-08-15T16:28:40Z</time>
      </trkpt>
      <trkpt lat="44.13399" lon="2.92688">
        <ele>790.6</ele>
        <time>2021-08-15T16:28:42Z</time>
      </trkpt>
      <trkpt lat="44.13402" lon="2.92687">
        <ele>791</ele>
        <time>2021-08-15T16:28:44Z</time>
      </trkpt>
      <trkpt lat="44.13405" lon="2.92687">
        <ele>791</ele>
        <time>2021-08-15T16:28:46Z</time>
      </trkpt>
      <trkpt lat="44.13408" lon="2.92686">
        <ele>791.4</ele>
        <time>2021-08-15T16:28:48Z</time>
      </trkpt>
      <trkpt lat="44.13411" lon="2.92685">
        <ele>791.6</ele>
        <time>2021-08-15T16:28:50Z</time>
      </trkpt>
      <trkpt lat="44.13415" lon="2.92684">
        <ele>791.9</ele>
        <time>2021-08-15T16:28:52Z</time>
      </trkpt>
      <trkpt lat="44.13417" lon="2.92683">
        <ele>792.3</ele>
        <time>2021-08-15T16:28:54Z</time>
      </trkpt>
      <trkpt lat="44.13421" lon="2.92682">
        <ele>792.7</ele>
        <time>2021-08-15T16:28:56Z</time>
      </trkpt>
      <trkpt lat="44.13425" lon="2.92681">
        <ele>793.1</ele>
        <time>2021-08-15T16:28:58Z</time>
      </trkpt>
      <trkpt lat="44.13428" lon="2.9268">
        <ele>793.4</ele>
        <time>2021-08-15T16:29:00Z</time>
      </trkpt>
      <trkpt lat="44.13432" lon="2.9268">
        <ele>793.6</ele>
        <time>2021-08-15T16:29:02Z</time>
      </trkpt>
      <trkpt lat="44.13435" lon="2.9268">
        <ele>793.8</ele>
        <time>2021-08-15T16:29:04Z</time>
      </trkpt>
      <trkpt lat="44.13439" lon="2.92679">
        <ele>794</ele>
        <time>2021-08-15T16:29:06Z</time>
      </trkpt>
      <trkpt lat="44.13442" lon="2.92678">
        <ele>794.5</ele>
        <time>2021-08-15T16:29:08Z</time>
      </trkpt>
      <trkpt lat="44.13446" lon="2.92677">
        <ele>794.8</ele>
        <time>2021-08-15T16:29:10Z</time>
      </trkpt>
      <trkpt lat="44.13449" lon="2.92677">
        <ele>795.1</ele>
        <time>2021-08-15T16:29:12Z</time>
      </trkpt>
      <trkpt lat="44.13453" lon="2.92676">
        <ele>795.4</ele>
        <time>2021-08-15T16:29:14Z</time>
      </trkpt>
      <trkpt lat="44.13457" lon="2.92675">
        <ele>795.7</ele>
        <time>2021-08-15T16:29:16Z</time>
      </trkpt>
      <trkpt lat="44.1346" lon="2.92674">
        <ele>796</ele>
        <time>2021-08-15T16:29:18Z</time>
      </trkpt>
      <trkpt lat="44.13464" lon="2.92673">
        <ele>796.4</ele>
        <time>2021-08-15T16:29:20Z</time>
      </trkpt>
      <trkpt lat="44.13467" lon="2.92671">
        <ele>796.9</ele>
        <time>2021-08-15T16:29:22Z</time>
      </trkpt>
      <trkpt lat="44.1347" lon="2.9267">
        <ele>797.1</ele>
        <time>2021-08-15T16:29:24Z</time>
      </trkpt>
      <trkpt lat="44.13473" lon="2.9267">
        <ele>797.4</ele>
        <time>2021-08-15T16:29:26Z</time>
      </trkpt>
      <trkpt lat="44.13477" lon="2.9267">
        <ele>797.4</ele>
        <time>2021-08-15T16:29:28Z</time>
      </trkpt>
      <trkpt lat="44.1348" lon="2.92672">
        <ele>797.2</ele>
        <time>2021-08-15T16:29:30Z</time>
      </trkpt>
      <trkpt lat="44.13483" lon="2.92674">
        <ele>797</ele>
        <time>2021-08-15T16:29:32Z</time>
      </trkpt>
      <trkpt lat="44.13486" lon="2.92674">
        <ele>797.1</ele>
        <time>2021-08-15T16:29:34Z</time>
      </trkpt>
      <trkpt lat="44.13489" lon="2.92676">
        <ele>796.8</ele>
        <time>2021-08-15T16:29:36Z</time>
      </trkpt>
      <trkpt lat="44.13492" lon="2.92677">
        <ele>796.7</ele>
        <time>2021-08-15T16:29:38Z</time>
      </trkpt>
      <trkpt lat="44.13495" lon="2.92677">
        <ele>796.9</ele>
        <time>2021-08-15T16:29:40Z</time>
      </trkpt>
      <trkpt lat="44.13498" lon="2.92677">
        <ele>796.9</ele>
        <time>2021-08-15T16:29:42Z</time>
      </trkpt>
      <trkpt lat="44.13502" lon="2.92677">
        <ele>796.9</ele>
        <time>2021-08-15T16:29:44Z</time>
      </trkpt>
      <trkpt lat="44.13504" lon="2.92678">
        <ele>796.8</ele>
        <time>2021-08-15T16:29:46Z</time>
      </trkpt>
      <trkpt lat="44.13507" lon="2.92679">
        <ele>796.6</ele>
        <time>2021-08-15T16:29:48Z</time>
      </trkpt>
      <trkpt lat="44.13511" lon="2.92678">
        <ele>796.8</ele>
        <time>2021-08-15T16:29:50Z</time>
      </trkpt>
      <trkpt lat="44.13514" lon="2.92677">
        <ele>796.9</ele>
        <time>2021-08-15T16:29:52Z</time>
      </trkpt>
      <trkpt lat="44.13517" lon="2.92675">
        <ele>797.3</ele>
        <time>2021-08-15T16:29:54Z</time>
      </trkpt>
      <trkpt lat="44.13521" lon="2.92675">
        <ele>797.4</ele>
        <time>2021-08-15T16:29:56Z</time>
      </trkpt>
      <trkpt lat="44.13524" lon="2.92675">
        <ele>797.4</ele>
        <time>2021-08-15T16:29:58Z</time>
      </trkpt>
      <trkpt lat="44.13528" lon="2.92674">
        <ele>797.5</ele>
        <time>2021-08-15T16:30:00Z</time>
      </trkpt>
      <trkpt lat="44.13531" lon="2.92672">
        <ele>797.9</ele>
        <time>2021-08-15T16:30:02Z</time>
      </trkpt>
      <trkpt lat="44.13534" lon="2.92672">
        <ele>798</ele>
        <time>2021-08-15T16:30:04Z</time>
      </trkpt>
      <trkpt lat="44.13537" lon="2.9267">
        <ele>798.3</ele>
        <time>2021-08-15T16:30:06Z</time>
      </trkpt>
      <trkpt lat="44.1354" lon="2.92669">
        <ele>798.6</ele>
        <time>2021-08-15T16:30:08Z</time>
      </trkpt>
      <trkpt lat="44.13543" lon="2.92666">
        <ele>799.1</ele>
        <time>2021-08-15T16:30:10Z</time>
      </trkpt>
      <trkpt lat="44.13546" lon="2.92664">
        <ele>799.3</ele>
        <time>2021-08-15T16:30:12Z</time>
      </trkpt>
      <trkpt lat="44.13549" lon="2.92662">
        <ele>799.6</ele>
        <time>2021-08-15T16:30:14Z</time>
      </trkpt>
      <trkpt lat="44.13552" lon="2.92661">
        <ele>799.8</ele>
        <time>2021-08-15T16:30:16Z</time>
      </trkpt>
      <trkpt lat="44.13556" lon="2.92658">
        <ele>800.1</ele>
        <time>2021-08-15T16:30:18Z</time>
      </trkpt>
      <trkpt lat="44.13559" lon="2.92656">
        <ele>800.5</ele>
        <time>2021-08-15T16:30:20Z</time>
      </trkpt>
      <trkpt lat="44.13562" lon="2.92652">
        <ele>800.9</ele>
        <time>2021-08-15T16:30:22Z</time>
      </trkpt>
      <trkpt lat="44.13565" lon="2.92649">
        <ele>801.3</ele>
        <time>2021-08-15T16:30:24Z</time>
      </trkpt>
      <trkpt lat="44.13569" lon="2.92646">
        <ele>801.6</ele>
        <time>2021-08-15T16:30:26Z</time>
      </trkpt>
      <trkpt lat="44.13571" lon="2.92642">
        <ele>802.1</ele>
        <time>2021-08-15T16:30:28Z</time>
      </trkpt>
      <trkpt lat="44.13574" lon="2.92639">
        <ele>802.5</ele>
        <time>2021-08-15T16:30:30Z</time>
      </trkpt>
      <trkpt lat="44.13577" lon="2.92635">
        <ele>802.9</ele>
        <time>2021-08-15T16:30:32Z</time>
      </trkpt>
      <trkpt lat="44.1358" lon="2.92632">
        <ele>803.2</ele>
        <time>2021-08-15T16:30:34Z</time>
      </trkpt>
      <trkpt lat="44.13582" lon="2.92628">
        <ele>803.7</ele>
        <time>2021-08-15T16:30:36Z</time>
      </trkpt>
      <trkpt lat="44.13585" lon="2.92624">
        <ele>804</ele>
        <time>2021-08-15T16:30:38Z</time>
      </trkpt>
      <trkpt lat="44.13588" lon="2.92621">
        <ele>804.4</ele>
        <time>2021-08-15T16:30:40Z</time>
      </trkpt>
      <trkpt lat="44.13591" lon="2.92617">
        <ele>804.8</ele>
        <time>2021-08-15T16:30:42Z</time>
      </trkpt>
      <trkpt lat="44.13594" lon="2.92613">
        <ele>805.2</ele>
        <time>2021-08-15T16:30:44Z</time>
      </trkpt>
      <trkpt lat="44.13598" lon="2.92609">
        <ele>805.5</ele>
        <time>2021-08-15T16:30:46Z</time>
      </trkpt>
      <trkpt lat="44.13601" lon="2.92606">
        <ele>805.8</ele>
        <time>2021-08-15T16:30:48Z</time>
      </trkpt>
      <trkpt lat="44.13605" lon="2.92604">
        <ele>806</ele>
        <time>2021-08-15T16:30:50Z</time>
      </trkpt>
      <trkpt lat="44.13609" lon="2.92602">
        <ele>806.1</ele>
        <time>2021-08-15T16:30:52Z</time>
      </trkpt>
      <trkpt lat="44.13613" lon="2.926">
        <ele>806.2</ele>
        <time>2021-08-15T16:30:54Z</time>
      </trkpt>
      <trkpt lat="44.13617" lon="2.926">
        <ele>806.1</ele>
        <time>2021-08-15T16:30:56Z</time>
      </trkpt>
      <trkpt lat="44.13621" lon="2.926">
        <ele>806</ele>
        <time>2021-08-15T16:30:58Z</time>
      </trkpt>
      <trkpt lat="44.13626" lon="2.926">
        <ele>805.9</ele>
        <time>2021-08-15T16:31:00Z</time>
      </trkpt>
      <trkpt lat="44.13629" lon="2.926">
        <ele>805.7</ele>
        <time>2021-08-15T16:31:02Z</time>
      </trkpt>
      <trkpt lat="44.13633" lon="2.926">
        <ele>805.7</ele>
        <time>2021-08-15T16:31:04Z</time>
      </trkpt>
      <trkpt lat="44.13636" lon="2.926">
        <ele>805.6</ele>
        <time>2021-08-15T16:31:06Z</time>
      </trkpt>
      <trkpt lat="44.13639" lon="2.926">
        <ele>805.5</ele>
        <time>2021-08-15T16:31:08Z</time>
      </trkpt>
      <trkpt lat="44.13642" lon="2.92601">
        <ele>805.4</ele>
        <time>2021-08-15T16:31:10Z</time>
      </trkpt>
      <trkpt lat="44.13644" lon="2.926">
        <ele>805.4</ele>
        <time>2021-08-15T16:31:12Z</time>
      </trkpt>
      <trkpt lat="44.13647" lon="2.92599">
        <ele>805.5</ele>
        <time>2021-08-15T16:31:14Z</time>
      </trkpt>
      <trkpt lat="44.1365" lon="2.92599">
        <ele>805.4</ele>
        <time>2021-08-15T16:31:16Z</time>
      </trkpt>
      <trkpt lat="44.13653" lon="2.92598">
        <ele>805.4</ele>
        <time>2021-08-15T16:31:18Z</time>
      </trkpt>
      <trkpt lat="44.13654" lon="2.92599">
        <ele>805.3</ele>
        <time>2021-08-15T16:31:20Z</time>
      </trkpt>
      <trkpt lat="44.13653" lon="2.92599">
        <ele>805.3</ele>
        <time>2021-08-15T16:31:22Z</time>
      </trkpt>
      <trkpt lat="44.13653" lon="2.92599">
        <ele>805.3</ele>
        <time>2021-08-15T16:31:24Z</time>
      </trkpt>
      <trkpt lat="44.13653" lon="2.92599">
        <ele>805.3</ele>
        <time>2021-08-15T16:31:26Z</time>
      </trkpt>
      <trkpt lat="44.13653" lon="2.92599">
        <ele>805.3</ele>
        <time>2021-08-15T16:31:28Z</time>
      </trkpt>
      <trkpt lat="44.13655" lon="2.92598">
        <ele>805.4</ele>
        <time>2021-08-15T16:32:04Z</time>
      </trkpt>
      <trkpt lat="44.13655" lon="2.92598">
        <ele>805.4</ele>
        <time>2021-08-15T16:32:06Z</time>
      </trkpt>
      <trkpt lat="44.13655" lon="2.92598">
        <ele>805.4</ele>
        <time>2021-08-15T16:32:08Z</time>
      </trkpt>
      <trkpt lat="44.13655" lon="2.92598">
        <ele>805.3</ele>
        <time>2021-08-15T16:32:10Z</time>
      </trkpt>
      <trkpt lat="44.13655" lon="2.92599">
        <ele>805.3</ele>
        <time>2021-08-15T16:32:12Z</time>
      </trkpt>
      <trkpt lat="44.13656" lon="2.92597">
        <ele>805.4</ele>
        <time>2021-08-15T16:32:14Z</time>
      </trkpt>
      <trkpt lat="44.1366" lon="2.92595">
        <ele>805.7</ele>
        <time>2021-08-15T16:32:16Z</time>
      </trkpt>
      <trkpt lat="44.13662" lon="2.92596">
        <ele>805.5</ele>
        <time>2021-08-15T16:32:18Z</time>
      </trkpt>
      <trkpt lat="44.13665" lon="2.92595">
        <ele>805.4</ele>
        <time>2021-08-15T16:32:20Z</time>
      </trkpt>
      <trkpt lat="44.13668" lon="2.92594">
        <ele>805.6</ele>
        <time>2021-08-15T16:32:22Z</time>
      </trkpt>
      <trkpt lat="44.13669" lon="2.92594">
        <ele>805.6</ele>
        <time>2021-08-15T16:32:24Z</time>
      </trkpt>
      <trkpt lat="44.13669" lon="2.92594">
        <ele>805.5</ele>
        <time>2021-08-15T16:32:26Z</time>
      </trkpt>
      <trkpt lat="44.13671" lon="2.92594">
        <ele>805.6</ele>
        <time>2021-08-15T16:32:28Z</time>
      </trkpt>
      <trkpt lat="44.13672" lon="2.92594">
        <ele>805.6</ele>
        <time>2021-08-15T16:32:30Z</time>
      </trkpt>
      <trkpt lat="44.13672" lon="2.92593">
        <ele>805.7</ele>
        <time>2021-08-15T16:32:32Z</time>
      </trkpt>
      <trkpt lat="44.13683" lon="2.92587">
        <ele>806.5</ele>
        <time>2021-08-15T16:35:00Z</time>
      </trkpt>
      <trkpt lat="44.13686" lon="2.92586">
        <ele>806.6</ele>
        <time>2021-08-15T16:35:02Z</time>
      </trkpt>
      <trkpt lat="44.13689" lon="2.92584">
        <ele>806.9</ele>
        <time>2021-08-15T16:35:04Z</time>
      </trkpt>
      <trkpt lat="44.13692" lon="2.92582">
        <ele>807.1</ele>
        <time>2021-08-15T16:35:06Z</time>
      </trkpt>
      <trkpt lat="44.13695" lon="2.9258">
        <ele>807.3</ele>
        <time>2021-08-15T16:35:08Z</time>
      </trkpt>
      <trkpt lat="44.13698" lon="2.92578">
        <ele>807.4</ele>
        <time>2021-08-15T16:35:10Z</time>
      </trkpt>
      <trkpt lat="44.13701" lon="2.92576">
        <ele>807.6</ele>
        <time>2021-08-15T16:35:12Z</time>
      </trkpt>
      <trkpt lat="44.13705" lon="2.92573">
        <ele>807.8</ele>
        <time>2021-08-15T16:35:14Z</time>
      </trkpt>
      <trkpt lat="44.13708" lon="2.9257">
        <ele>808.1</ele>
        <time>2021-08-15T16:35:16Z</time>
      </trkpt>
      <trkpt lat="44.13711" lon="2.92567">
        <ele>808.2</ele>
        <time>2021-08-15T16:35:18Z</time>
      </trkpt>
      <trkpt lat="44.13714" lon="2.92565">
        <ele>808.4</ele>
        <time>2021-08-15T16:35:20Z</time>
      </trkpt>
      <trkpt lat="44.13717" lon="2.92562">
        <ele>808.5</ele>
        <time>2021-08-15T16:35:22Z</time>
      </trkpt>
      <trkpt lat="44.13719" lon="2.9256">
        <ele>808.6</ele>
        <time>2021-08-15T16:35:24Z</time>
      </trkpt>
      <trkpt lat="44.13721" lon="2.92557">
        <ele>808.8</ele>
        <time>2021-08-15T16:35:26Z</time>
      </trkpt>
      <trkpt lat="44.13723" lon="2.92556">
        <ele>808.8</ele>
        <time>2021-08-15T16:35:28Z</time>
      </trkpt>
      <trkpt lat="44.13723" lon="2.92557">
        <ele>808.8</ele>
        <time>2021-08-15T16:35:30Z</time>
      </trkpt>
      <trkpt lat="44.13723" lon="2.92557">
        <ele>808.8</ele>
        <time>2021-08-15T16:35:32Z</time>
      </trkpt>
      <trkpt lat="44.13722" lon="2.92557">
        <ele>808.8</ele>
        <time>2021-08-15T16:35:34Z</time>
      </trkpt>
      <trkpt lat="44.13722" lon="2.92557">
        <ele>808.8</ele>
        <time>2021-08-15T16:35:36Z</time>
      </trkpt>
    </trkseg>
      <trkpt lat="44.13733" lon="2.92539">
        <ele>809.7</ele>
        <time>2021-08-16T06:43:11Z</time>
      </trkpt>
      <trkpt lat="44.13735" lon="2.92536">
        <ele>809.8</ele>
        <time>2021-08-16T06:43:13Z</time>
      </trkpt>
      <trkpt lat="44.13737" lon="2.92531">
        <ele>810</ele>
        <time>2021-08-16T06:43:15Z</time>
      </trkpt>
      <trkpt lat="44.13739" lon="2.92526">
        <ele>810.2</ele>
        <time>2021-08-16T06:43:17Z</time>
      </trkpt>
      <trkpt lat="44.13741" lon="2.92519">
        <ele>810.5</ele>
        <time>2021-08-16T06:43:19Z</time>
      </trkpt>
      <trkpt lat="44.13743" lon="2.92512">
        <ele>810.8</ele>
        <time>2021-08-16T06:43:21Z</time>
      </trkpt>
      <trkpt lat="44.13745" lon="2.92503">
        <ele>811.2</ele>
        <time>2021-08-16T06:43:23Z</time>
      </trkpt>
      <trkpt lat="44.13747" lon="2.92492">
        <ele>812</ele>
        <time>2021-08-16T06:43:25Z</time>
      </trkpt>
      <trkpt lat="44.13748" lon="2.9248">
        <ele>813</ele>
        <time>2021-08-16T06:43:27Z</time>
      </trkpt>
      <trkpt lat="44.1375" lon="2.92469">
        <ele>813.9</ele>
        <time>2021-08-16T06:43:29Z</time>
      </trkpt>
      <trkpt lat="44.13753" lon="2.92457">
        <ele>814.6</ele>
        <time>2021-08-16T06:43:31Z</time>
      </trkpt>
      <trkpt lat="44.13757" lon="2.92445">
        <ele>815</ele>
        <time>2021-08-16T06:43:33Z</time>
      </trkpt>
      <trkpt lat="44.13762" lon="2.92433">
        <ele>815</ele>
        <time>2021-08-16T06:43:35Z</time>
      </trkpt>
      <trkpt lat="44.13769" lon="2.92422">
        <ele>814.8</ele>
        <time>2021-08-16T06:43:37Z</time>
      </trkpt>
      <trkpt lat="44.13777" lon="2.9241">
        <ele>814.7</ele>
        <time>2021-08-16T06:43:39Z</time>
      </trkpt>
      <trkpt lat="44.13785" lon="2.92399">
        <ele>814.7</ele>
        <time>2021-08-16T06:43:41Z</time>
      </trkpt>
      <trkpt lat="44.13793" lon="2.92388">
        <ele>814.6</ele>
        <time>2021-08-16T06:43:43Z</time>
      </trkpt>
      <trkpt lat="44.138" lon="2.92377">
        <ele>814.5</ele>
        <time>2021-08-16T06:43:45Z</time>
      </trkpt>
      <trkpt lat="44.13808" lon="2.92365">
        <ele>814.3</ele>
        <time>2021-08-16T06:43:47Z</time>
      </trkpt>
      <trkpt lat="44.13815" lon="2.92354">
        <ele>814.2</ele>
        <time>2021-08-16T06:43:49Z</time>
      </trkpt>
      <trkpt lat="44.13822" lon="2.92344">
        <ele>813.5</ele>
        <time>2021-08-16T06:43:51Z</time>
      </trkpt>
      <trkpt lat="44.1383" lon="2.92334">
        <ele>812.7</ele>
        <time>2021-08-16T06:43:53Z</time>
      </trkpt>
      <trkpt lat="44.1384" lon="2.92321">
        <ele>812.5</ele>
        <time>2021-08-16T06:43:55Z</time>
      </trkpt>
      <trkpt lat="44.1385" lon="2.92309">
        <ele>812.6</ele>
        <time>2021-08-16T06:43:57Z</time>
      </trkpt>
      <trkpt lat="44.1386" lon="2.92297">
        <ele>812.6</ele>
        <time>2021-08-16T06:43:59Z</time>
      </trkpt>
      <trkpt lat="44.1387" lon="2.92285">
        <ele>812.6</ele>
        <time>2021-08-16T06:44:01Z</time>
      </trkpt>
      <trkpt lat="44.13879" lon="2.92273">
        <ele>812.6</ele>
        <time>2021-08-16T06:44:03Z</time>
      </trkpt>
      <trkpt lat="44.13889" lon="2.92263">
        <ele>812.3</ele>
        <time>2021-08-16T06:44:05Z</time>
      </trkpt>
      <trkpt lat="44.13899" lon="2.92254">
        <ele>811.8</ele>
        <time>2021-08-16T06:44:07Z</time>
      </trkpt>
      <trkpt lat="44.13909" lon="2.92248">
        <ele>811</ele>
        <time>2021-08-16T06:44:09Z</time>
      </trkpt>
      <trkpt lat="44.13919" lon="2.92245">
        <ele>810.5</ele>
        <time>2021-08-16T06:44:11Z</time>
      </trkpt>
      <trkpt lat="44.13929" lon="2.92243">
        <ele>811.3</ele>
        <time>2021-08-16T06:44:13Z</time>
      </trkpt>
      <trkpt lat="44.13937" lon="2.92243">
        <ele>811.9</ele>
        <time>2021-08-16T06:44:15Z</time>
      </trkpt>
      <trkpt lat="44.13944" lon="2.92243">
        <ele>812.4</ele>
        <time>2021-08-16T06:44:17Z</time>
      </trkpt>
      <trkpt lat="44.13951" lon="2.92244">
        <ele>812.9</ele>
        <time>2021-08-16T06:44:19Z</time>
      </trkpt>
      <trkpt lat="44.13957" lon="2.92244">
        <ele>813.3</ele>
        <time>2021-08-16T06:44:21Z</time>
      </trkpt>
      <trkpt lat="44.13962" lon="2.92245">
        <ele>813.6</ele>
        <time>2021-08-16T06:44:23Z</time>
      </trkpt>
      <trkpt lat="44.13965" lon="2.92244">
        <ele>813.9</ele>
        <time>2021-08-16T06:44:25Z</time>
      </trkpt>
      <trkpt lat="44.13969" lon="2.92245">
        <ele>814.2</ele>
        <time>2021-08-16T06:44:27Z</time>
      </trkpt>
      <trkpt lat="44.13973" lon="2.92244">
        <ele>814.5</ele>
        <time>2021-08-16T06:44:29Z</time>
      </trkpt>
      <trkpt lat="44.13977" lon="2.92244">
        <ele>814.8</ele>
        <time>2021-08-16T06:44:31Z</time>
      </trkpt>
      <trkpt lat="44.13981" lon="2.92244">
        <ele>815.2</ele>
        <time>2021-08-16T06:44:33Z</time>
      </trkpt>
      <trkpt lat="44.13985" lon="2.92244">
        <ele>815.4</ele>
        <time>2021-08-16T06:44:35Z</time>
      </trkpt>
      <trkpt lat="44.13989" lon="2.92244">
        <ele>815.7</ele>
        <time>2021-08-16T06:44:37Z</time>
      </trkpt>
      <trkpt lat="44.13993" lon="2.92244">
        <ele>815.9</ele>
        <time>2021-08-16T06:44:39Z</time>
      </trkpt>
      <trkpt lat="44.13997" lon="2.92243">
        <ele>816.3</ele>
        <time>2021-08-16T06:44:41Z</time>
      </trkpt>
      <trkpt lat="44.14" lon="2.92242">
        <ele>816.6</ele>
        <time>2021-08-16T06:44:43Z</time>
      </trkpt>
      <trkpt lat="44.14004" lon="2.9224">
        <ele>816.4</ele>
        <time>2021-08-16T06:44:45Z</time>
      </trkpt>
      <trkpt lat="44.14008" lon="2.92239">
        <ele>816</ele>
        <time>2021-08-16T06:44:47Z</time>
      </trkpt>
      <trkpt lat="44.14014" lon="2.92237">
        <ele>815.5</ele>
        <time>2021-08-16T06:44:49Z</time>
      </trkpt>
      <trkpt lat="44.14018" lon="2.92236">
        <ele>815</ele>
        <time>2021-08-16T06:44:51Z</time>
      </trkpt>
      <trkpt lat="44.14021" lon="2.92234">
        <ele>814.9</ele>
        <time>2021-08-16T06:44:53Z</time>
      </trkpt>
      <trkpt lat="44.14025" lon="2.92232">
        <ele>814.6</ele>
        <time>2021-08-16T06:44:55Z</time>
      </trkpt>
      <trkpt lat="44.14029" lon="2.92231">
        <ele>814.2</ele>
        <time>2021-08-16T06:44:57Z</time>
      </trkpt>
      <trkpt lat="44.14032" lon="2.92228">
        <ele>814</ele>
        <time>2021-08-16T06:44:59Z</time>
      </trkpt>
      <trkpt lat="44.14035" lon="2.92226">
        <ele>813.9</ele>
        <time>2021-08-16T06:45:01Z</time>
      </trkpt>
      <trkpt lat="44.14038" lon="2.92224">
        <ele>813.8</ele>
        <time>2021-08-16T06:45:03Z</time>
      </trkpt>
      <trkpt lat="44.14041" lon="2.92221">
        <ele>813.7</ele>
        <time>2021-08-16T06:45:05Z</time>
      </trkpt>
      <trkpt lat="44.14045" lon="2.92217">
        <ele>813.6</ele>
        <time>2021-08-16T06:45:07Z</time>
      </trkpt>
      <trkpt lat="44.14049" lon="2.92213">
        <ele>813.5</ele>
        <time>2021-08-16T06:45:09Z</time>
      </trkpt>
      <trkpt lat="44.14052" lon="2.92209">
        <ele>813.5</ele>
        <time>2021-08-16T06:45:11Z</time>
      </trkpt>
      <trkpt lat="44.14057" lon="2.92204">
        <ele>813.4</ele>
        <time>2021-08-16T06:45:13Z</time>
      </trkpt>
      <trkpt lat="44.14062" lon="2.92198">
        <ele>813.3</ele>
        <time>2021-08-16T06:45:15Z</time>
      </trkpt>
      <trkpt lat="44.14067" lon="2.92192">
        <ele>813.3</ele>
        <time>2021-08-16T06:45:17Z</time>
      </trkpt>
      <trkpt lat="44.14073" lon="2.92186">
        <ele>813.3</ele>
        <time>2021-08-16T06:45:19Z</time>
      </trkpt>
      <trkpt lat="44.14079" lon="2.92178">
        <ele>813.3</ele>
        <time>2021-08-16T06:45:21Z</time>
      </trkpt>
      <trkpt lat="44.14086" lon="2.92171">
        <ele>813.2</ele>
        <time>2021-08-16T06:45:23Z</time>
      </trkpt>
      <trkpt lat="44.14092" lon="2.92164">
        <ele>813.1</ele>
        <time>2021-08-16T06:45:25Z</time>
      </trkpt>
      <trkpt lat="44.141" lon="2.92157">
        <ele>813.1</ele>
        <time>2021-08-16T06:45:27Z</time>
      </trkpt>
      <trkpt lat="44.14107" lon="2.9215">
        <ele>813.2</ele>
        <time>2021-08-16T06:45:29Z</time>
      </trkpt>
      <trkpt lat="44.14115" lon="2.92144">
        <ele>813</ele>
        <time>2021-08-16T06:45:31Z</time>
      </trkpt>
      <trkpt lat="44.14123" lon="2.92139">
        <ele>812.8</ele>
        <time>2021-08-16T06:45:33Z</time>
      </trkpt>
      <trkpt lat="44.14131" lon="2.92136">
        <ele>812.3</ele>
        <time>2021-08-16T06:45:35Z</time>
      </trkpt>
      <trkpt lat="44.1414" lon="2.92132">
        <ele>811.9</ele>
        <time>2021-08-16T06:45:37Z</time>
      </trkpt>
      <trkpt lat="44.14149" lon="2.92129">
        <ele>811.4</ele>
        <time>2021-08-16T06:45:39Z</time>
      </trkpt>
      <trkpt lat="44.14158" lon="2.92126">
        <ele>810.8</ele>
        <time>2021-08-16T06:45:41Z</time>
      </trkpt>
      <trkpt lat="44.14168" lon="2.92123">
        <ele>810.2</ele>
        <time>2021-08-16T06:45:43Z</time>
      </trkpt>
      <trkpt lat="44.14178" lon="2.9212">
        <ele>810.3</ele>
        <time>2021-08-16T06:45:45Z</time>
      </trkpt>
      <trkpt lat="44.14189" lon="2.92116">
        <ele>810.3</ele>
        <time>2021-08-16T06:45:47Z</time>
      </trkpt>
      <trkpt lat="44.14199" lon="2.92112">
        <ele>810.5</ele>
        <time>2021-08-16T06:45:49Z</time>
      </trkpt>
      <trkpt lat="44.14208" lon="2.9211">
        <ele>810.3</ele>
        <time>2021-08-16T06:45:51Z</time>
      </trkpt>
      <trkpt lat="44.14217" lon="2.92106">
        <ele>810.6</ele>
        <time>2021-08-16T06:45:53Z</time>
      </trkpt>
      <trkpt lat="44.14227" lon="2.92101">
        <ele>811</ele>
        <time>2021-08-16T06:45:55Z</time>
      </trkpt>
      <trkpt lat="44.14235" lon="2.92095">
        <ele>811.7</ele>
        <time>2021-08-16T06:45:57Z</time>
      </trkpt>
      <trkpt lat="44.14244" lon="2.92089">
        <ele>812.3</ele>
        <time>2021-08-16T06:45:59Z</time>
      </trkpt>
      <trkpt lat="44.14251" lon="2.92083">
        <ele>812.8</ele>
        <time>2021-08-16T06:46:01Z</time>
      </trkpt>
      <trkpt lat="44.14258" lon="2.92076">
        <ele>812.6</ele>
        <time>2021-08-16T06:46:03Z</time>
      </trkpt>
      <trkpt lat="44.14264" lon="2.9207">
        <ele>812.5</ele>
        <time>2021-08-16T06:46:05Z</time>
      </trkpt>
      <trkpt lat="44.1427" lon="2.92065">
        <ele>812.3</ele>
        <time>2021-08-16T06:46:07Z</time>
      </trkpt>
      <trkpt lat="44.14276" lon="2.92056">
        <ele>812.3</ele>
        <time>2021-08-16T06:46:09Z</time>
      </trkpt>
      <trkpt lat="44.14282" lon="2.92049">
        <ele>812.2</ele>
        <time>2021-08-16T06:46:11Z</time>
      </trkpt>
      <trkpt lat="44.14287" lon="2.92041">
        <ele>812.2</ele>
        <time>2021-08-16T06:46:13Z</time>
      </trkpt>
      <trkpt lat="44.14293" lon="2.92033">
        <ele>812.2</ele>
        <time>2021-08-16T06:46:15Z</time>
      </trkpt>
      <trkpt lat="44.14298" lon="2.92025">
        <ele>812.1</ele>
        <time>2021-08-16T06:46:17Z</time>
      </trkpt>
      <trkpt lat="44.14304" lon="2.92017">
        <ele>812</ele>
        <time>2021-08-16T06:46:19Z</time>
      </trkpt>
      <trkpt lat="44.14309" lon="2.92008">
        <ele>812.1</ele>
        <time>2021-08-16T06:46:21Z</time>
      </trkpt>
      <trkpt lat="44.14314" lon="2.92">
        <ele>812</ele>
        <time>2021-08-16T06:46:23Z</time>
      </trkpt>
      <trkpt lat="44.14319" lon="2.91991">
        <ele>812</ele>
        <time>2021-08-16T06:46:25Z</time>
      </trkpt>
      <trkpt lat="44.14324" lon="2.91983">
        <ele>811.8</ele>
        <time>2021-08-16T06:46:27Z</time>
      </trkpt>
      <trkpt lat="44.14329" lon="2.91975">
        <ele>811.8</ele>
        <time>2021-08-16T06:46:29Z</time>
      </trkpt>
      <trkpt lat="44.14334" lon="2.91966">
        <ele>811.8</ele>
        <time>2021-08-16T06:46:31Z</time>
      </trkpt>
      <trkpt lat="44.14339" lon="2.91957">
        <ele>812</ele>
        <time>2021-08-16T06:46:33Z</time>
      </trkpt>
      <trkpt lat="44.14344" lon="2.91949">
        <ele>812.3</ele>
        <time>2021-08-16T06:46:35Z</time>
      </trkpt>
      <trkpt lat="44.14348" lon="2.91941">
        <ele>812.5</ele>
        <time>2021-08-16T06:46:37Z</time>
      </trkpt>
      <trkpt lat="44.14352" lon="2.91932">
        <ele>812.9</ele>
        <time>2021-08-16T06:46:39Z</time>
      </trkpt>
      <trkpt lat="44.14355" lon="2.91924">
        <ele>813.3</ele>
        <time>2021-08-16T06:46:41Z</time>
      </trkpt>
      <trkpt lat="44.1436" lon="2.91916">
        <ele>813.5</ele>
        <time>2021-08-16T06:46:43Z</time>
      </trkpt>
      <trkpt lat="44.14364" lon="2.91907">
        <ele>813.9</ele>
        <time>2021-08-16T06:46:45Z</time>
      </trkpt>
      <trkpt lat="44.14368" lon="2.91899">
        <ele>814.1</ele>
        <time>2021-08-16T06:46:47Z</time>
      </trkpt>
      <trkpt lat="44.14372" lon="2.9189">
        <ele>814.4</ele>
        <time>2021-08-16T06:46:49Z</time>
      </trkpt>
      <trkpt lat="44.14376" lon="2.91881">
        <ele>814.7</ele>
        <time>2021-08-16T06:46:51Z</time>
      </trkpt>
      <trkpt lat="44.1438" lon="2.91872">
        <ele>814.9</ele>
        <time>2021-08-16T06:46:53Z</time>
      </trkpt>
      <trkpt lat="44.14384" lon="2.91863">
        <ele>815.1</ele>
        <time>2021-08-16T06:46:55Z</time>
      </trkpt>
      <trkpt lat="44.14389" lon="2.91854">
        <ele>815.2</ele>
        <time>2021-08-16T06:46:57Z</time>
      </trkpt>
      <trkpt lat="44.14393" lon="2.91846">
        <ele>815.3</ele>
        <time>2021-08-16T06:46:59Z</time>
      </trkpt>
      <trkpt lat="44.14397" lon="2.91838">
        <ele>815.3</ele>
        <time>2021-08-16T06:47:01Z</time>
      </trkpt>
      <trkpt lat="44.14401" lon="2.9183">
        <ele>815.2</ele>
        <time>2021-08-16T06:47:03Z</time>
      </trkpt>
      <trkpt lat="44.14405" lon="2.91822">
        <ele>815.1</ele>
        <time>2021-08-16T06:47:05Z</time>
      </trkpt>
      <trkpt lat="44.1441" lon="2.91813">
        <ele>814.9</ele>
        <time>2021-08-16T06:47:07Z</time>
      </trkpt>
      <trkpt lat="44.14415" lon="2.91804">
        <ele>814.6</ele>
        <time>2021-08-16T06:47:09Z</time>
      </trkpt>
      <trkpt lat="44.1442" lon="2.91795">
        <ele>814.6</ele>
        <time>2021-08-16T06:47:11Z</time>
      </trkpt>
      <trkpt lat="44.14425" lon="2.91787">
        <ele>814.6</ele>
        <time>2021-08-16T06:47:13Z</time>
      </trkpt>
      <trkpt lat="44.14431" lon="2.91778">
        <ele>814.6</ele>
        <time>2021-08-16T06:47:15Z</time>
      </trkpt>
      <trkpt lat="44.14436" lon="2.9177">
        <ele>814.6</ele>
        <time>2021-08-16T06:47:17Z</time>
      </trkpt>
      <trkpt lat="44.14441" lon="2.9176">
        <ele>814.7</ele>
        <time>2021-08-16T06:47:19Z</time>
      </trkpt>
      <trkpt lat="44.14447" lon="2.91752">
        <ele>814.7</ele>
        <time>2021-08-16T06:47:21Z</time>
      </trkpt>
      <trkpt lat="44.14453" lon="2.91743">
        <ele>815</ele>
        <time>2021-08-16T06:47:23Z</time>
      </trkpt>
      <trkpt lat="44.14459" lon="2.91735">
        <ele>815.2</ele>
        <time>2021-08-16T06:47:25Z</time>
      </trkpt>
      <trkpt lat="44.14465" lon="2.91727">
        <ele>815.4</ele>
        <time>2021-08-16T06:47:27Z</time>
      </trkpt>
      <trkpt lat="44.14472" lon="2.9172">
        <ele>815.3</ele>
        <time>2021-08-16T06:47:29Z</time>
      </trkpt>
      <trkpt lat="44.14478" lon="2.91713">
        <ele>815.2</ele>
        <time>2021-08-16T06:47:31Z</time>
      </trkpt>
      <trkpt lat="44.14485" lon="2.91708">
        <ele>815</ele>
        <time>2021-08-16T06:47:33Z</time>
      </trkpt>
      <trkpt lat="44.14492" lon="2.91702">
        <ele>814.7</ele>
        <time>2021-08-16T06:47:35Z</time>
      </trkpt>
      <trkpt lat="44.14499" lon="2.91697">
        <ele>814.3</ele>
        <time>2021-08-16T06:47:37Z</time>
      </trkpt>
      <trkpt lat="44.14506" lon="2.91692">
        <ele>814.8</ele>
        <time>2021-08-16T06:47:39Z</time>
      </trkpt>
      <trkpt lat="44.14514" lon="2.9169">
        <ele>815.3</ele>
        <time>2021-08-16T06:47:41Z</time>
      </trkpt>
      <trkpt lat="44.14522" lon="2.9169">
        <ele>815.7</ele>
        <time>2021-08-16T06:47:43Z</time>
      </trkpt>
      <trkpt lat="44.14529" lon="2.91693">
        <ele>816</ele>
        <time>2021-08-16T06:47:45Z</time>
      </trkpt>
      <trkpt lat="44.14535" lon="2.91698">
        <ele>816.2</ele>
        <time>2021-08-16T06:47:47Z</time>
      </trkpt>
      <trkpt lat="44.14541" lon="2.91702">
        <ele>816.4</ele>
        <time>2021-08-16T06:47:49Z</time>
      </trkpt>
      <trkpt lat="44.14546" lon="2.91708">
        <ele>816.5</ele>
        <time>2021-08-16T06:47:51Z</time>
      </trkpt>
      <trkpt lat="44.1455" lon="2.91715">
        <ele>816.6</ele>
        <time>2021-08-16T06:47:53Z</time>
      </trkpt>
      <trkpt lat="44.14554" lon="2.91721">
        <ele>816.8</ele>
        <time>2021-08-16T06:47:55Z</time>
      </trkpt>
      <trkpt lat="44.14557" lon="2.91728">
        <ele>816.9</ele>
        <time>2021-08-16T06:47:57Z</time>
      </trkpt>
      <trkpt lat="44.1456" lon="2.91735">
        <ele>817</ele>
        <time>2021-08-16T06:47:59Z</time>
      </trkpt>
      <trkpt lat="44.14562" lon="2.91741">
        <ele>817.1</ele>
        <time>2021-08-16T06:48:01Z</time>
      </trkpt>
      <trkpt lat="44.14564" lon="2.91748">
        <ele>817.1</ele>
        <time>2021-08-16T06:48:03Z</time>
      </trkpt>
      <trkpt lat="44.14565" lon="2.91754">
        <ele>817.1</ele>
        <time>2021-08-16T06:48:05Z</time>
      </trkpt>
      <trkpt lat="44.14567" lon="2.9176">
        <ele>817</ele>
        <time>2021-08-16T06:48:07Z</time>
      </trkpt>
      <trkpt lat="44.14568" lon="2.91765">
        <ele>816.9</ele>
        <time>2021-08-16T06:48:09Z</time>
      </trkpt>
      <trkpt lat="44.1457" lon="2.91771">
        <ele>816.9</ele>
        <time>2021-08-16T06:48:11Z</time>
      </trkpt>
      <trkpt lat="44.14571" lon="2.91776">
        <ele>816.8</ele>
        <time>2021-08-16T06:48:13Z</time>
      </trkpt>
      <trkpt lat="44.14572" lon="2.91782">
        <ele>816.7</ele>
        <time>2021-08-16T06:48:15Z</time>
      </trkpt>
      <trkpt lat="44.14575" lon="2.91787">
        <ele>816.7</ele>
        <time>2021-08-16T06:48:17Z</time>
      </trkpt>
      <trkpt lat="44.14577" lon="2.91792">
        <ele>816.8</ele>
        <time>2021-08-16T06:48:19Z</time>
      </trkpt>
      <trkpt lat="44.14579" lon="2.91797">
        <ele>816.9</ele>
        <time>2021-08-16T06:48:21Z</time>
      </trkpt>
      <trkpt lat="44.14583" lon="2.91801">
        <ele>817.1</ele>
        <time>2021-08-16T06:48:23Z</time>
      </trkpt>
      <trkpt lat="44.14586" lon="2.91806">
        <ele>817.5</ele>
        <time>2021-08-16T06:48:25Z</time>
      </trkpt>
      <trkpt lat="44.1459" lon="2.9181">
        <ele>818</ele>
        <time>2021-08-16T06:48:27Z</time>
      </trkpt>
      <trkpt lat="44.14593" lon="2.91816">
        <ele>818.4</ele>
        <time>2021-08-16T06:48:29Z</time>
      </trkpt>
      <trkpt lat="44.14596" lon="2.9182">
        <ele>818.9</ele>
        <time>2021-08-16T06:48:31Z</time>
      </trkpt>
      <trkpt lat="44.14599" lon="2.91825">
        <ele>819.3</ele>
        <time>2021-08-16T06:48:33Z</time>
      </trkpt>
      <trkpt lat="44.14602" lon="2.91829">
        <ele>819.8</ele>
        <time>2021-08-16T06:48:35Z</time>
      </trkpt>
      <trkpt lat="44.14606" lon="2.91834">
        <ele>820.2</ele>
        <time>2021-08-16T06:48:37Z</time>
      </trkpt>
      <trkpt lat="44.14609" lon="2.91839">
        <ele>820.2</ele>
        <time>2021-08-16T06:48:39Z</time>
      </trkpt>
      <trkpt lat="44.14612" lon="2.91844">
        <ele>820.2</ele>
        <time>2021-08-16T06:48:41Z</time>
      </trkpt>
      <trkpt lat="44.14615" lon="2.91848">
        <ele>820.2</ele>
        <time>2021-08-16T06:48:43Z</time>
      </trkpt>
      <trkpt lat="44.14618" lon="2.91853">
        <ele>820.2</ele>
        <time>2021-08-16T06:48:45Z</time>
      </trkpt>
      <trkpt lat="44.14622" lon="2.91858">
        <ele>820.1</ele>
        <time>2021-08-16T06:48:47Z</time>
      </trkpt>
      <trkpt lat="44.14625" lon="2.91862">
        <ele>820.1</ele>
        <time>2021-08-16T06:48:49Z</time>
      </trkpt>
      <trkpt lat="44.14628" lon="2.91867">
        <ele>820.1</ele>
        <time>2021-08-16T06:48:51Z</time>
      </trkpt>
      <trkpt lat="44.14632" lon="2.91871">
        <ele>820.3</ele>
        <time>2021-08-16T06:48:53Z</time>
      </trkpt>
      <trkpt lat="44.14635" lon="2.91876">
        <ele>820.2</ele>
        <time>2021-08-16T06:48:55Z</time>
      </trkpt>
      <trkpt lat="44.14639" lon="2.91881">
        <ele>820.2</ele>
        <time>2021-08-16T06:48:57Z</time>
      </trkpt>
      <trkpt lat="44.14643" lon="2.91886">
        <ele>820.1</ele>
        <time>2021-08-16T06:48:59Z</time>
      </trkpt>
      <trkpt lat="44.14646" lon="2.91891">
        <ele>820</ele>
        <time>2021-08-16T06:49:01Z</time>
      </trkpt>
      <trkpt lat="44.1465" lon="2.91896">
        <ele>820.1</ele>
        <time>2021-08-16T06:49:03Z</time>
      </trkpt>
      <trkpt lat="44.14653" lon="2.919">
        <ele>820.1</ele>
        <time>2021-08-16T06:49:05Z</time>
      </trkpt>
      <trkpt lat="44.14657" lon="2.91904">
        <ele>820.2</ele>
        <time>2021-08-16T06:49:07Z</time>
      </trkpt>
      <trkpt lat="44.14662" lon="2.91907">
        <ele>820.6</ele>
        <time>2021-08-16T06:49:09Z</time>
      </trkpt>
      <trkpt lat="44.14666" lon="2.9191">
        <ele>820.9</ele>
        <time>2021-08-16T06:49:11Z</time>
      </trkpt>
      <trkpt lat="44.14671" lon="2.91912">
        <ele>821</ele>
        <time>2021-08-16T06:49:13Z</time>
      </trkpt>
      <trkpt lat="44.14675" lon="2.91913">
        <ele>821.3</ele>
        <time>2021-08-16T06:49:15Z</time>
      </trkpt>
      <trkpt lat="44.1468" lon="2.91915">
        <ele>821.6</ele>
        <time>2021-08-16T06:49:17Z</time>
      </trkpt>
      <trkpt lat="44.14685" lon="2.91915">
        <ele>822</ele>
        <time>2021-08-16T06:49:19Z</time>
      </trkpt>
      <trkpt lat="44.14689" lon="2.91915">
        <ele>822.4</ele>
        <time>2021-08-16T06:49:21Z</time>
      </trkpt>
      <trkpt lat="44.14694" lon="2.91915">
        <ele>822.8</ele>
        <time>2021-08-16T06:49:23Z</time>
      </trkpt>
      <trkpt lat="44.14698" lon="2.91915">
        <ele>823.3</ele>
        <time>2021-08-16T06:49:25Z</time>
      </trkpt>
      <trkpt lat="44.14703" lon="2.91914">
        <ele>823.8</ele>
        <time>2021-08-16T06:49:27Z</time>
      </trkpt>
      <trkpt lat="44.14707" lon="2.91914">
        <ele>824.2</ele>
        <time>2021-08-16T06:49:29Z</time>
      </trkpt>
      <trkpt lat="44.14711" lon="2.91914">
        <ele>824.7</ele>
        <time>2021-08-16T06:49:31Z</time>
      </trkpt>
      <trkpt lat="44.14715" lon="2.91913">
        <ele>825.2</ele>
        <time>2021-08-16T06:49:33Z</time>
      </trkpt>
      <trkpt lat="44.14719" lon="2.91913">
        <ele>825.5</ele>
        <time>2021-08-16T06:49:35Z</time>
      </trkpt>
      <trkpt lat="44.14724" lon="2.91912">
        <ele>826.1</ele>
        <time>2021-08-16T06:49:37Z</time>
      </trkpt>
      <trkpt lat="44.14729" lon="2.91912">
        <ele>826.6</ele>
        <time>2021-08-16T06:49:39Z</time>
      </trkpt>
      <trkpt lat="44.14733" lon="2.91912">
        <ele>827.1</ele>
        <time>2021-08-16T06:49:41Z</time>
      </trkpt>
      <trkpt lat="44.14738" lon="2.91911">
        <ele>827.6</ele>
        <time>2021-08-16T06:49:43Z</time>
      </trkpt>
      <trkpt lat="44.14742" lon="2.91911">
        <ele>827.9</ele>
        <time>2021-08-16T06:49:45Z</time>
      </trkpt>
      <trkpt lat="44.14746" lon="2.91911">
        <ele>828.3</ele>
        <time>2021-08-16T06:49:47Z</time>
      </trkpt>
      <trkpt lat="44.1475" lon="2.91912">
        <ele>828.6</ele>
        <time>2021-08-16T06:49:49Z</time>
      </trkpt>
      <trkpt lat="44.14755" lon="2.91912">
        <ele>828.9</ele>
        <time>2021-08-16T06:49:51Z</time>
      </trkpt>
      <trkpt lat="44.14759" lon="2.91912">
        <ele>829.2</ele>
        <time>2021-08-16T06:49:53Z</time>
      </trkpt>
      <trkpt lat="44.14764" lon="2.91912">
        <ele>829.4</ele>
        <time>2021-08-16T06:49:55Z</time>
      </trkpt>
      <trkpt lat="44.14768" lon="2.91913">
        <ele>829.6</ele>
        <time>2021-08-16T06:49:57Z</time>
      </trkpt>
      <trkpt lat="44.14772" lon="2.91913">
        <ele>829.9</ele>
        <time>2021-08-16T06:49:59Z</time>
      </trkpt>
      <trkpt lat="44.14777" lon="2.91913">
        <ele>830.1</ele>
        <time>2021-08-16T06:50:01Z</time>
      </trkpt>
      <trkpt lat="44.14781" lon="2.91913">
        <ele>830.4</ele>
        <time>2021-08-16T06:50:03Z</time>
      </trkpt>
      <trkpt lat="44.14785" lon="2.91912">
        <ele>830.7</ele>
        <time>2021-08-16T06:50:05Z</time>
      </trkpt>
      <trkpt lat="44.14789" lon="2.91913">
        <ele>830.8</ele>
        <time>2021-08-16T06:50:07Z</time>
      </trkpt>
      <trkpt lat="44.14793" lon="2.91914">
        <ele>830.9</ele>
        <time>2021-08-16T06:50:09Z</time>
      </trkpt>
      <trkpt lat="44.14798" lon="2.91915">
        <ele>831.1</ele>
        <time>2021-08-16T06:50:11Z</time>
      </trkpt>
      <trkpt lat="44.14802" lon="2.91916">
        <ele>831.1</ele>
        <time>2021-08-16T06:50:13Z</time>
      </trkpt>
      <trkpt lat="44.14806" lon="2.91917">
        <ele>831.3</ele>
        <time>2021-08-16T06:50:15Z</time>
      </trkpt>
      <trkpt lat="44.1481" lon="2.91919">
        <ele>831.4</ele>
        <time>2021-08-16T06:50:17Z</time>
      </trkpt>
      <trkpt lat="44.14814" lon="2.9192">
        <ele>831.6</ele>
        <time>2021-08-16T06:50:19Z</time>
      </trkpt>
      <trkpt lat="44.14819" lon="2.91922">
        <ele>831.7</ele>
        <time>2021-08-16T06:50:21Z</time>
      </trkpt>
      <trkpt lat="44.14824" lon="2.91924">
        <ele>831.8</ele>
        <time>2021-08-16T06:50:23Z</time>
      </trkpt>
      <trkpt lat="44.14828" lon="2.91925">
        <ele>832</ele>
        <time>2021-08-16T06:50:25Z</time>
      </trkpt>
      <trkpt lat="44.14832" lon="2.91927">
        <ele>832</ele>
        <time>2021-08-16T06:50:27Z</time>
      </trkpt>
      <trkpt lat="44.14837" lon="2.91929">
        <ele>832.3</ele>
        <time>2021-08-16T06:50:29Z</time>
      </trkpt>
      <trkpt lat="44.14841" lon="2.91931">
        <ele>832.7</ele>
        <time>2021-08-16T06:50:31Z</time>
      </trkpt>
      <trkpt lat="44.14845" lon="2.91934">
        <ele>833</ele>
        <time>2021-08-16T06:50:33Z</time>
      </trkpt>
      <trkpt lat="44.14849" lon="2.91936">
        <ele>833.3</ele>
        <time>2021-08-16T06:50:35Z</time>
      </trkpt>
      <trkpt lat="44.14853" lon="2.91938">
        <ele>833.6</ele>
        <time>2021-08-16T06:50:37Z</time>
      </trkpt>
      <trkpt lat="44.14857" lon="2.9194">
        <ele>834</ele>
        <time>2021-08-16T06:50:39Z</time>
      </trkpt>
      <trkpt lat="44.14861" lon="2.91942">
        <ele>834.3</ele>
        <time>2021-08-16T06:50:41Z</time>
      </trkpt>
      <trkpt lat="44.14865" lon="2.91944">
        <ele>834.5</ele>
        <time>2021-08-16T06:50:43Z</time>
      </trkpt>
      <trkpt lat="44.14869" lon="2.91945">
        <ele>834.9</ele>
        <time>2021-08-16T06:50:45Z</time>
      </trkpt>
      <trkpt lat="44.14873" lon="2.91947">
        <ele>835.1</ele>
        <time>2021-08-16T06:50:47Z</time>
      </trkpt>
      <trkpt lat="44.14877" lon="2.91949">
        <ele>835.4</ele>
        <time>2021-08-16T06:50:49Z</time>
      </trkpt>
      <trkpt lat="44.14881" lon="2.91951">
        <ele>835.7</ele>
        <time>2021-08-16T06:50:51Z</time>
      </trkpt>
      <trkpt lat="44.14885" lon="2.91953">
        <ele>836</ele>
        <time>2021-08-16T06:50:53Z</time>
      </trkpt>
      <trkpt lat="44.14888" lon="2.91954">
        <ele>836.2</ele>
        <time>2021-08-16T06:50:55Z</time>
      </trkpt>
      <trkpt lat="44.14891" lon="2.91955">
        <ele>836.4</ele>
        <time>2021-08-16T06:50:57Z</time>
      </trkpt>
      <trkpt lat="44.14895" lon="2.91956">
        <ele>836.8</ele>
        <time>2021-08-16T06:50:59Z</time>
      </trkpt>
      <trkpt lat="44.14899" lon="2.91958">
        <ele>837</ele>
        <time>2021-08-16T06:51:01Z</time>
      </trkpt>
      <trkpt lat="44.14903" lon="2.91958">
        <ele>837.4</ele>
        <time>2021-08-16T06:51:03Z</time>
      </trkpt>
      <trkpt lat="44.14907" lon="2.91959">
        <ele>837.8</ele>
        <time>2021-08-16T06:51:05Z</time>
      </trkpt>
      <trkpt lat="44.14911" lon="2.9196">
        <ele>838.1</ele>
        <time>2021-08-16T06:51:07Z</time>
      </trkpt>
      <trkpt lat="44.14915" lon="2.91961">
        <ele>838.5</ele>
        <time>2021-08-16T06:51:09Z</time>
      </trkpt>
      <trkpt lat="44.1492" lon="2.91961">
        <ele>838.8</ele>
        <time>2021-08-16T06:51:11Z</time>
      </trkpt>
      <trkpt lat="44.14924" lon="2.91961">
        <ele>839</ele>
        <time>2021-08-16T06:51:13Z</time>
      </trkpt>
      <trkpt lat="44.14929" lon="2.91961">
        <ele>839.3</ele>
        <time>2021-08-16T06:51:15Z</time>
      </trkpt>
      <trkpt lat="44.14933" lon="2.91961">
        <ele>839.5</ele>
        <time>2021-08-16T06:51:17Z</time>
      </trkpt>
      <trkpt lat="44.14938" lon="2.91961">
        <ele>839.8</ele>
        <time>2021-08-16T06:51:19Z</time>
      </trkpt>
      <trkpt lat="44.14942" lon="2.91961">
        <ele>840</ele>
        <time>2021-08-16T06:51:21Z</time>
      </trkpt>
      <trkpt lat="44.14947" lon="2.91961">
        <ele>840.2</ele>
        <time>2021-08-16T06:51:23Z</time>
      </trkpt>
      <trkpt lat="44.14951" lon="2.91961">
        <ele>840.4</ele>
        <time>2021-08-16T06:51:25Z</time>
      </trkpt>
      <trkpt lat="44.14955" lon="2.91961">
        <ele>840.6</ele>
        <time>2021-08-16T06:51:27Z</time>
      </trkpt>
      <trkpt lat="44.14959" lon="2.9196">
        <ele>840.9</ele>
        <time>2021-08-16T06:51:29Z</time>
      </trkpt>
      <trkpt lat="44.14964" lon="2.9196">
        <ele>841.1</ele>
        <time>2021-08-16T06:51:31Z</time>
      </trkpt>
      <trkpt lat="44.14968" lon="2.9196">
        <ele>841.3</ele>
        <time>2021-08-16T06:51:33Z</time>
      </trkpt>
      <trkpt lat="44.14972" lon="2.9196">
        <ele>841.6</ele>
        <time>2021-08-16T06:51:35Z</time>
      </trkpt>
      <trkpt lat="44.14976" lon="2.9196">
        <ele>841.8</ele>
        <time>2021-08-16T06:51:37Z</time>
      </trkpt>
      <trkpt lat="44.14981" lon="2.91959">
        <ele>842.1</ele>
        <time>2021-08-16T06:51:39Z</time>
      </trkpt>
      <trkpt lat="44.14985" lon="2.91959">
        <ele>842.3</ele>
        <time>2021-08-16T06:51:41Z</time>
      </trkpt>
      <trkpt lat="44.1499" lon="2.91958">
        <ele>842.5</ele>
        <time>2021-08-16T06:51:43Z</time>
      </trkpt>
      <trkpt lat="44.14994" lon="2.91958">
        <ele>842.7</ele>
        <time>2021-08-16T06:51:45Z</time>
      </trkpt>
      <trkpt lat="44.14998" lon="2.91958">
        <ele>842.9</ele>
        <time>2021-08-16T06:51:47Z</time>
      </trkpt>
      <trkpt lat="44.15003" lon="2.91958">
        <ele>843.1</ele>
        <time>2021-08-16T06:51:49Z</time>
      </trkpt>
      <trkpt lat="44.15007" lon="2.91957">
        <ele>843.3</ele>
        <time>2021-08-16T06:51:51Z</time>
      </trkpt>
      <trkpt lat="44.15011" lon="2.91957">
        <ele>843.4</ele>
        <time>2021-08-16T06:51:53Z</time>
      </trkpt>
      <trkpt lat="44.15015" lon="2.91957">
        <ele>843.6</ele>
        <time>2021-08-16T06:51:55Z</time>
      </trkpt>
      <trkpt lat="44.15019" lon="2.91956">
        <ele>843.8</ele>
        <time>2021-08-16T06:51:57Z</time>
      </trkpt>
      <trkpt lat="44.15023" lon="2.91956">
        <ele>843.9</ele>
        <time>2021-08-16T06:51:59Z</time>
      </trkpt>
      <trkpt lat="44.15026" lon="2.91956">
        <ele>844</ele>
        <time>2021-08-16T06:52:01Z</time>
      </trkpt>
      <trkpt lat="44.15029" lon="2.91956">
        <ele>844.1</ele>
        <time>2021-08-16T06:52:03Z</time>
      </trkpt>
      <trkpt lat="44.15033" lon="2.91955">
        <ele>844.3</ele>
        <time>2021-08-16T06:52:05Z</time>
      </trkpt>
      <trkpt lat="44.15036" lon="2.91955">
        <ele>844.4</ele>
        <time>2021-08-16T06:52:07Z</time>
      </trkpt>
      <trkpt lat="44.15038" lon="2.91955">
        <ele>844.5</ele>
        <time>2021-08-16T06:52:09Z</time>
      </trkpt>
      <trkpt lat="44.1504" lon="2.91951">
        <ele>844.6</ele>
        <time>2021-08-16T06:52:11Z</time>
      </trkpt>
      <trkpt lat="44.1504" lon="2.91947">
        <ele>844.7</ele>
        <time>2021-08-16T06:52:13Z</time>
      </trkpt>
      <trkpt lat="44.15039" lon="2.91944">
        <ele>844.8</ele>
        <time>2021-08-16T06:52:15Z</time>
      </trkpt>
      <trkpt lat="44.15039" lon="2.91942">
        <ele>844.8</ele>
        <time>2021-08-16T06:52:17Z</time>
      </trkpt>
      <trkpt lat="44.15038" lon="2.9194">
        <ele>844.8</ele>
        <time>2021-08-16T06:52:19Z</time>
      </trkpt>
      <trkpt lat="44.15038" lon="2.9194">
        <ele>844.8</ele>
        <time>2021-08-16T06:52:21Z</time>
      </trkpt>
      <trkpt lat="44.15038" lon="2.9194">
        <ele>844.8</ele>
        <time>2021-08-16T06:52:23Z</time>
      </trkpt>
      <trkpt lat="44.15038" lon="2.91941">
        <ele>844.8</ele>
        <time>2021-08-16T06:52:25Z</time>
      </trkpt>
      <trkpt lat="44.15038" lon="2.91953">
        <ele>844.5</ele>
        <time>2021-08-16T06:56:25Z</time>
      </trkpt>
      <trkpt lat="44.15042" lon="2.91954">
        <ele>844.6</ele>
        <time>2021-08-16T06:56:27Z</time>
      </trkpt>
      <trkpt lat="44.15046" lon="2.91954">
        <ele>844.8</ele>
        <time>2021-08-16T06:56:29Z</time>
      </trkpt>
      <trkpt lat="44.1505" lon="2.91954">
        <ele>844.9</ele>
        <time>2021-08-16T06:56:31Z</time>
      </trkpt>
      <trkpt lat="44.15054" lon="2.91954">
        <ele>845</ele>
        <time>2021-08-16T06:56:33Z</time>
      </trkpt>
      <trkpt lat="44.15057" lon="2.91956">
        <ele>845.1</ele>
        <time>2021-08-16T06:56:35Z</time>
      </trkpt>
      <trkpt lat="44.15061" lon="2.91957">
        <ele>845.2</ele>
        <time>2021-08-16T06:56:37Z</time>
      </trkpt>
      <trkpt lat="44.15065" lon="2.91958">
        <ele>845.4</ele>
        <time>2021-08-16T06:56:39Z</time>
      </trkpt>
      <trkpt lat="44.15069" lon="2.91959">
        <ele>845.5</ele>
        <time>2021-08-16T06:56:41Z</time>
      </trkpt>
      <trkpt lat="44.15073" lon="2.91961">
        <ele>845.6</ele>
        <time>2021-08-16T06:56:43Z</time>
      </trkpt>
      <trkpt lat="44.15077" lon="2.91962">
        <ele>845.8</ele>
        <time>2021-08-16T06:56:45Z</time>
      </trkpt>
      <trkpt lat="44.15081" lon="2.91964">
        <ele>845.9</ele>
        <time>2021-08-16T06:56:47Z</time>
      </trkpt>
      <trkpt lat="44.15085" lon="2.91965">
        <ele>846.2</ele>
        <time>2021-08-16T06:56:49Z</time>
      </trkpt>
      <trkpt lat="44.15089" lon="2.91966">
        <ele>846.5</ele>
        <time>2021-08-16T06:56:51Z</time>
      </trkpt>
      <trkpt lat="44.15093" lon="2.91968">
        <ele>846.8</ele>
        <time>2021-08-16T06:56:53Z</time>
      </trkpt>
      <trkpt lat="44.15097" lon="2.91969">
        <ele>847.1</ele>
        <time>2021-08-16T06:56:55Z</time>
      </trkpt>
      <trkpt lat="44.151" lon="2.9197">
        <ele>847.4</ele>
        <time>2021-08-16T06:56:57Z</time>
      </trkpt>
      <trkpt lat="44.15103" lon="2.91972">
        <ele>847.6</ele>
        <time>2021-08-16T06:56:59Z</time>
      </trkpt>
      <trkpt lat="44.15107" lon="2.91974">
        <ele>847.9</ele>
        <time>2021-08-16T06:57:01Z</time>
      </trkpt>
      <trkpt lat="44.15111" lon="2.91975">
        <ele>848.2</ele>
        <time>2021-08-16T06:57:03Z</time>
      </trkpt>
      <trkpt lat="44.15114" lon="2.91977">
        <ele>848.5</ele>
        <time>2021-08-16T06:57:05Z</time>
      </trkpt>
      <trkpt lat="44.15117" lon="2.91978">
        <ele>848.7</ele>
        <time>2021-08-16T06:57:07Z</time>
      </trkpt>
      <trkpt lat="44.1512" lon="2.91979">
        <ele>849</ele>
        <time>2021-08-16T06:57:09Z</time>
      </trkpt>
      <trkpt lat="44.15124" lon="2.91981">
        <ele>849.3</ele>
        <time>2021-08-16T06:57:11Z</time>
      </trkpt>
      <trkpt lat="44.15127" lon="2.91982">
        <ele>849.6</ele>
        <time>2021-08-16T06:57:13Z</time>
      </trkpt>
      <trkpt lat="44.15131" lon="2.91984">
        <ele>849.9</ele>
        <time>2021-08-16T06:57:15Z</time>
      </trkpt>
      <trkpt lat="44.15134" lon="2.91985">
        <ele>850.2</ele>
        <time>2021-08-16T06:57:17Z</time>
      </trkpt>
      <trkpt lat="44.15137" lon="2.91987">
        <ele>850.4</ele>
        <time>2021-08-16T06:57:19Z</time>
      </trkpt>
      <trkpt lat="44.15141" lon="2.91988">
        <ele>850.7</ele>
        <time>2021-08-16T06:57:21Z</time>
      </trkpt>
      <trkpt lat="44.15144" lon="2.9199">
        <ele>851</ele>
        <time>2021-08-16T06:57:23Z</time>
      </trkpt>
      <trkpt lat="44.15147" lon="2.91991">
        <ele>851.3</ele>
        <time>2021-08-16T06:57:25Z</time>
      </trkpt>
      <trkpt lat="44.15151" lon="2.91993">
        <ele>851.6</ele>
        <time>2021-08-16T06:57:27Z</time>
      </trkpt>
      <trkpt lat="44.15154" lon="2.91994">
        <ele>851.9</ele>
        <time>2021-08-16T06:57:29Z</time>
      </trkpt>
      <trkpt lat="44.15158" lon="2.91996">
        <ele>852.2</ele>
        <time>2021-08-16T06:57:31Z</time>
      </trkpt>
      <trkpt lat="44.15162" lon="2.91997">
        <ele>852.5</ele>
        <time>2021-08-16T06:57:33Z</time>
      </trkpt>
      <trkpt lat="44.15165" lon="2.91998">
        <ele>852.8</ele>
        <time>2021-08-16T06:57:35Z</time>
      </trkpt>
      <trkpt lat="44.15168" lon="2.92">
        <ele>853.2</ele>
        <time>2021-08-16T06:57:37Z</time>
      </trkpt>
      <trkpt lat="44.15172" lon="2.92002">
        <ele>853.5</ele>
        <time>2021-08-16T06:57:39Z</time>
      </trkpt>
      <trkpt lat="44.15175" lon="2.92004">
        <ele>853.9</ele>
        <time>2021-08-16T06:57:41Z</time>
      </trkpt>
      <trkpt lat="44.15179" lon="2.92005">
        <ele>854.2</ele>
        <time>2021-08-16T06:57:43Z</time>
      </trkpt>
      <trkpt lat="44.15182" lon="2.92006">
        <ele>854.6</ele>
        <time>2021-08-16T06:57:45Z</time>
      </trkpt>
      <trkpt lat="44.15186" lon="2.92008">
        <ele>854.9</ele>
        <time>2021-08-16T06:57:47Z</time>
      </trkpt>
      <trkpt lat="44.15189" lon="2.92009">
        <ele>855.3</ele>
        <time>2021-08-16T06:57:49Z</time>
      </trkpt>
      <trkpt lat="44.15192" lon="2.92011">
        <ele>855.6</ele>
        <time>2021-08-16T06:57:51Z</time>
      </trkpt>
      <trkpt lat="44.15196" lon="2.92012">
        <ele>856</ele>
        <time>2021-08-16T06:57:53Z</time>
      </trkpt>
      <trkpt lat="44.15199" lon="2.92013">
        <ele>856.3</ele>
        <time>2021-08-16T06:57:55Z</time>
      </trkpt>
      <trkpt lat="44.15203" lon="2.92014">
        <ele>856.7</ele>
        <time>2021-08-16T06:57:57Z</time>
      </trkpt>
      <trkpt lat="44.15206" lon="2.92015">
        <ele>857</ele>
        <time>2021-08-16T06:57:59Z</time>
      </trkpt>
      <trkpt lat="44.15209" lon="2.92016">
        <ele>857.4</ele>
        <time>2021-08-16T06:58:01Z</time>
      </trkpt>
      <trkpt lat="44.15213" lon="2.92017">
        <ele>857.7</ele>
        <time>2021-08-16T06:58:03Z</time>
      </trkpt>
      <trkpt lat="44.15217" lon="2.92018">
        <ele>858.1</ele>
        <time>2021-08-16T06:58:05Z</time>
      </trkpt>
      <trkpt lat="44.1522" lon="2.92019">
        <ele>858.5</ele>
        <time>2021-08-16T06:58:07Z</time>
      </trkpt>
      <trkpt lat="44.15224" lon="2.9202">
        <ele>858.8</ele>
        <time>2021-08-16T06:58:09Z</time>
      </trkpt>
      <trkpt lat="44.15227" lon="2.92021">
        <ele>859.2</ele>
        <time>2021-08-16T06:58:11Z</time>
      </trkpt>
      <trkpt lat="44.15231" lon="2.92022">
        <ele>859.6</ele>
        <time>2021-08-16T06:58:13Z</time>
      </trkpt>
      <trkpt lat="44.15235" lon="2.92022">
        <ele>860</ele>
        <time>2021-08-16T06:58:15Z</time>
      </trkpt>
      <trkpt lat="44.15238" lon="2.92023">
        <ele>860.3</ele>
        <time>2021-08-16T06:58:17Z</time>
      </trkpt>
      <trkpt lat="44.15242" lon="2.92024">
        <ele>860.7</ele>
        <time>2021-08-16T06:58:19Z</time>
      </trkpt>
      <trkpt lat="44.15245" lon="2.92025">
        <ele>861</ele>
        <time>2021-08-16T06:58:21Z</time>
      </trkpt>
      <trkpt lat="44.15248" lon="2.92026">
        <ele>861.4</ele>
        <time>2021-08-16T06:58:23Z</time>
      </trkpt>
      <trkpt lat="44.15252" lon="2.92027">
        <ele>861.7</ele>
        <time>2021-08-16T06:58:25Z</time>
      </trkpt>
      <trkpt lat="44.15256" lon="2.92027">
        <ele>862.1</ele>
        <time>2021-08-16T06:58:27Z</time>
      </trkpt>
      <trkpt lat="44.15259" lon="2.92027">
        <ele>862.4</ele>
        <time>2021-08-16T06:58:29Z</time>
      </trkpt>
      <trkpt lat="44.15262" lon="2.92029">
        <ele>862.8</ele>
        <time>2021-08-16T06:58:31Z</time>
      </trkpt>
      <trkpt lat="44.15266" lon="2.92029">
        <ele>863.1</ele>
        <time>2021-08-16T06:58:33Z</time>
      </trkpt>
      <trkpt lat="44.15269" lon="2.92029">
        <ele>863.4</ele>
        <time>2021-08-16T06:58:35Z</time>
      </trkpt>
      <trkpt lat="44.15273" lon="2.92029">
        <ele>863.7</ele>
        <time>2021-08-16T06:58:37Z</time>
      </trkpt>
      <trkpt lat="44.15276" lon="2.92029">
        <ele>863.9</ele>
        <time>2021-08-16T06:58:39Z</time>
      </trkpt>
      <trkpt lat="44.15279" lon="2.92029">
        <ele>864.2</ele>
        <time>2021-08-16T06:58:41Z</time>
      </trkpt>
      <trkpt lat="44.15283" lon="2.92029">
        <ele>864.5</ele>
        <time>2021-08-16T06:58:43Z</time>
      </trkpt>
      <trkpt lat="44.15286" lon="2.92028">
        <ele>864.7</ele>
        <time>2021-08-16T06:58:45Z</time>
      </trkpt>
      <trkpt lat="44.1529" lon="2.92028">
        <ele>865</ele>
        <time>2021-08-16T06:58:47Z</time>
      </trkpt>
      <trkpt lat="44.15293" lon="2.92026">
        <ele>865.2</ele>
        <time>2021-08-16T06:58:49Z</time>
      </trkpt>
      <trkpt lat="44.15296" lon="2.92025">
        <ele>865.4</ele>
        <time>2021-08-16T06:58:51Z</time>
      </trkpt>
      <trkpt lat="44.15299" lon="2.92024">
        <ele>865.5</ele>
        <time>2021-08-16T06:58:53Z</time>
      </trkpt>
      <trkpt lat="44.15303" lon="2.92022">
        <ele>865.8</ele>
        <time>2021-08-16T06:58:55Z</time>
      </trkpt>
      <trkpt lat="44.15306" lon="2.92021">
        <ele>866</ele>
        <time>2021-08-16T06:58:57Z</time>
      </trkpt>
      <trkpt lat="44.1531" lon="2.9202">
        <ele>866.2</ele>
        <time>2021-08-16T06:58:59Z</time>
      </trkpt>
      <trkpt lat="44.15313" lon="2.92019">
        <ele>866.5</ele>
        <time>2021-08-16T06:59:01Z</time>
      </trkpt>
      <trkpt lat="44.15317" lon="2.92017">
        <ele>866.7</ele>
        <time>2021-08-16T06:59:03Z</time>
      </trkpt>
      <trkpt lat="44.15321" lon="2.92016">
        <ele>866.9</ele>
        <time>2021-08-16T06:59:05Z</time>
      </trkpt>
      <trkpt lat="44.15324" lon="2.92016">
        <ele>867.2</ele>
        <time>2021-08-16T06:59:07Z</time>
      </trkpt>
      <trkpt lat="44.15328" lon="2.92016">
        <ele>867.5</ele>
        <time>2021-08-16T06:59:09Z</time>
      </trkpt>
      <trkpt lat="44.15331" lon="2.92015">
        <ele>867.8</ele>
        <time>2021-08-16T06:59:11Z</time>
      </trkpt>
      <trkpt lat="44.15335" lon="2.92016">
        <ele>868</ele>
        <time>2021-08-16T06:59:13Z</time>
      </trkpt>
      <trkpt lat="44.15338" lon="2.92017">
        <ele>868.2</ele>
        <time>2021-08-16T06:59:15Z</time>
      </trkpt>
      <trkpt lat="44.15341" lon="2.92017">
        <ele>868.4</ele>
        <time>2021-08-16T06:59:17Z</time>
      </trkpt>
      <trkpt lat="44.15345" lon="2.92018">
        <ele>868.7</ele>
        <time>2021-08-16T06:59:19Z</time>
      </trkpt>
      <trkpt lat="44.15347" lon="2.92019">
        <ele>868.8</ele>
        <time>2021-08-16T06:59:21Z</time>
      </trkpt>
      <trkpt lat="44.15351" lon="2.9202">
        <ele>869</ele>
        <time>2021-08-16T06:59:23Z</time>
      </trkpt>
      <trkpt lat="44.15354" lon="2.92021">
        <ele>869.2</ele>
        <time>2021-08-16T06:59:25Z</time>
      </trkpt>
      <trkpt lat="44.15358" lon="2.92022">
        <ele>869.4</ele>
        <time>2021-08-16T06:59:27Z</time>
      </trkpt>
      <trkpt lat="44.15361" lon="2.92023">
        <ele>869.7</ele>
        <time>2021-08-16T06:59:29Z</time>
      </trkpt>
      <trkpt lat="44.15366" lon="2.92024">
        <ele>869.9</ele>
        <time>2021-08-16T06:59:31Z</time>
      </trkpt>
      <trkpt lat="44.1537" lon="2.92026">
        <ele>870.1</ele>
        <time>2021-08-16T06:59:33Z</time>
      </trkpt>
      <trkpt lat="44.15374" lon="2.92027">
        <ele>870.3</ele>
        <time>2021-08-16T06:59:35Z</time>
      </trkpt>
      <trkpt lat="44.15379" lon="2.92029">
        <ele>870.5</ele>
        <time>2021-08-16T06:59:37Z</time>
      </trkpt>
      <trkpt lat="44.15383" lon="2.92031">
        <ele>870.7</ele>
        <time>2021-08-16T06:59:39Z</time>
      </trkpt>
      <trkpt lat="44.15387" lon="2.92034">
        <ele>870.8</ele>
        <time>2021-08-16T06:59:41Z</time>
      </trkpt>
      <trkpt lat="44.15391" lon="2.92036">
        <ele>870.9</ele>
        <time>2021-08-16T06:59:43Z</time>
      </trkpt>
      <trkpt lat="44.15395" lon="2.92038">
        <ele>871</ele>
        <time>2021-08-16T06:59:45Z</time>
      </trkpt>
      <trkpt lat="44.15398" lon="2.92041">
        <ele>871.1</ele>
        <time>2021-08-16T06:59:47Z</time>
      </trkpt>
      <trkpt lat="44.15402" lon="2.92044">
        <ele>871.1</ele>
        <time>2021-08-16T06:59:49Z</time>
      </trkpt>
      <trkpt lat="44.15406" lon="2.92048">
        <ele>871.1</ele>
        <time>2021-08-16T06:59:51Z</time>
      </trkpt>
      <trkpt lat="44.1541" lon="2.92051">
        <ele>871.1</ele>
        <time>2021-08-16T06:59:53Z</time>
      </trkpt>
      <trkpt lat="44.15414" lon="2.92055">
        <ele>871</ele>
        <time>2021-08-16T06:59:55Z</time>
      </trkpt>
      <trkpt lat="44.15418" lon="2.92058">
        <ele>871</ele>
        <time>2021-08-16T06:59:57Z</time>
      </trkpt>
      <trkpt lat="44.15421" lon="2.92062">
        <ele>871</ele>
        <time>2021-08-16T06:59:59Z</time>
      </trkpt>
      <trkpt lat="44.15424" lon="2.92065">
        <ele>871.1</ele>
        <time>2021-08-16T07:00:01Z</time>
      </trkpt>
      <trkpt lat="44.15427" lon="2.92068">
        <ele>871.2</ele>
        <time>2021-08-16T07:00:03Z</time>
      </trkpt>
      <trkpt lat="44.15431" lon="2.92071">
        <ele>871.3</ele>
        <time>2021-08-16T07:00:05Z</time>
      </trkpt>
      <trkpt lat="44.15434" lon="2.92075">
        <ele>871.3</ele>
        <time>2021-08-16T07:00:07Z</time>
      </trkpt>
      <trkpt lat="44.15436" lon="2.9208">
        <ele>871.3</ele>
        <time>2021-08-16T07:00:09Z</time>
      </trkpt>
      <trkpt lat="44.15439" lon="2.92084">
        <ele>871.3</ele>
        <time>2021-08-16T07:00:11Z</time>
      </trkpt>
      <trkpt lat="44.15441" lon="2.92089">
        <ele>871.2</ele>
        <time>2021-08-16T07:00:13Z</time>
      </trkpt>
      <trkpt lat="44.15444" lon="2.92093">
        <ele>871.1</ele>
        <time>2021-08-16T07:00:15Z</time>
      </trkpt>
      <trkpt lat="44.15446" lon="2.92097">
        <ele>871.1</ele>
        <time>2021-08-16T07:00:17Z</time>
      </trkpt>
      <trkpt lat="44.15448" lon="2.92101">
        <ele>871</ele>
        <time>2021-08-16T07:00:19Z</time>
      </trkpt>
      <trkpt lat="44.15451" lon="2.92104">
        <ele>871</ele>
        <time>2021-08-16T07:00:21Z</time>
      </trkpt>
      <trkpt lat="44.15453" lon="2.92107">
        <ele>870.9</ele>
        <time>2021-08-16T07:00:23Z</time>
      </trkpt>
      <trkpt lat="44.15455" lon="2.9211">
        <ele>870.9</ele>
        <time>2021-08-16T07:00:25Z</time>
      </trkpt>
      <trkpt lat="44.15457" lon="2.92115">
        <ele>870.8</ele>
        <time>2021-08-16T07:00:27Z</time>
      </trkpt>
      <trkpt lat="44.15459" lon="2.92119">
        <ele>870.6</ele>
        <time>2021-08-16T07:00:29Z</time>
      </trkpt>
      <trkpt lat="44.15462" lon="2.92124">
        <ele>870.5</ele>
        <time>2021-08-16T07:00:31Z</time>
      </trkpt>
      <trkpt lat="44.15465" lon="2.92128">
        <ele>870.4</ele>
        <time>2021-08-16T07:00:33Z</time>
      </trkpt>
      <trkpt lat="44.15468" lon="2.92132">
        <ele>870.4</ele>
        <time>2021-08-16T07:00:35Z</time>
      </trkpt>
      <trkpt lat="44.15471" lon="2.92137">
        <ele>870.3</ele>
        <time>2021-08-16T07:00:37Z</time>
      </trkpt>
      <trkpt lat="44.15475" lon="2.92141">
        <ele>870.2</ele>
        <time>2021-08-16T07:00:39Z</time>
      </trkpt>
      <trkpt lat="44.15479" lon="2.92145">
        <ele>870.2</ele>
        <time>2021-08-16T07:00:41Z</time>
      </trkpt>
      <trkpt lat="44.15482" lon="2.92149">
        <ele>870.1</ele>
        <time>2021-08-16T07:00:43Z</time>
      </trkpt>
      <trkpt lat="44.15486" lon="2.92153">
        <ele>870.1</ele>
        <time>2021-08-16T07:00:45Z</time>
      </trkpt>
      <trkpt lat="44.15489" lon="2.92157">
        <ele>870.1</ele>
        <time>2021-08-16T07:00:47Z</time>
      </trkpt>
      <trkpt lat="44.15492" lon="2.9216">
        <ele>870</ele>
        <time>2021-08-16T07:00:49Z</time>
      </trkpt>
      <trkpt lat="44.15496" lon="2.92163">
        <ele>870</ele>
        <time>2021-08-16T07:00:51Z</time>
      </trkpt>
      <trkpt lat="44.15499" lon="2.92166">
        <ele>870</ele>
        <time>2021-08-16T07:00:53Z</time>
      </trkpt>
      <trkpt lat="44.15502" lon="2.92169">
        <ele>870.1</ele>
        <time>2021-08-16T07:00:55Z</time>
      </trkpt>
      <trkpt lat="44.15506" lon="2.92171">
        <ele>870.2</ele>
        <time>2021-08-16T07:00:57Z</time>
      </trkpt>
      <trkpt lat="44.1551" lon="2.92175">
        <ele>870.3</ele>
        <time>2021-08-16T07:00:59Z</time>
      </trkpt>
      <trkpt lat="44.15514" lon="2.92177">
        <ele>870.4</ele>
        <time>2021-08-16T07:01:01Z</time>
      </trkpt>
      <trkpt lat="44.15519" lon="2.9218">
        <ele>870.6</ele>
        <time>2021-08-16T07:01:03Z</time>
      </trkpt>
      <trkpt lat="44.15523" lon="2.92182">
        <ele>870.8</ele>
        <time>2021-08-16T07:01:05Z</time>
      </trkpt>
      <trkpt lat="44.15527" lon="2.92184">
        <ele>871</ele>
        <time>2021-08-16T07:01:07Z</time>
      </trkpt>
      <trkpt lat="44.15531" lon="2.92185">
        <ele>871.2</ele>
        <time>2021-08-16T07:01:09Z</time>
      </trkpt>
      <trkpt lat="44.15535" lon="2.92187">
        <ele>871.4</ele>
        <time>2021-08-16T07:01:11Z</time>
      </trkpt>
      <trkpt lat="44.1554" lon="2.92189">
        <ele>871.6</ele>
        <time>2021-08-16T07:01:13Z</time>
      </trkpt>
      <trkpt lat="44.15544" lon="2.9219">
        <ele>871.8</ele>
        <time>2021-08-16T07:01:15Z</time>
      </trkpt>
      <trkpt lat="44.15548" lon="2.92191">
        <ele>872.1</ele>
        <time>2021-08-16T07:01:17Z</time>
      </trkpt>
      <trkpt lat="44.15552" lon="2.92193">
        <ele>872.3</ele>
        <time>2021-08-16T07:01:19Z</time>
      </trkpt>
      <trkpt lat="44.15556" lon="2.92195">
        <ele>872.4</ele>
        <time>2021-08-16T07:01:21Z</time>
      </trkpt>
      <trkpt lat="44.1556" lon="2.92196">
        <ele>872.6</ele>
        <time>2021-08-16T07:01:23Z</time>
      </trkpt>
      <trkpt lat="44.15564" lon="2.92198">
        <ele>872.8</ele>
        <time>2021-08-16T07:01:25Z</time>
      </trkpt>
      <trkpt lat="44.15568" lon="2.922">
        <ele>873</ele>
        <time>2021-08-16T07:01:27Z</time>
      </trkpt>
      <trkpt lat="44.15573" lon="2.92203">
        <ele>873.1</ele>
        <time>2021-08-16T07:01:29Z</time>
      </trkpt>
      <trkpt lat="44.15577" lon="2.92206">
        <ele>873.2</ele>
        <time>2021-08-16T07:01:31Z</time>
      </trkpt>
      <trkpt lat="44.1558" lon="2.92209">
        <ele>873.2</ele>
        <time>2021-08-16T07:01:33Z</time>
      </trkpt>
      <trkpt lat="44.15584" lon="2.92213">
        <ele>873.1</ele>
        <time>2021-08-16T07:01:35Z</time>
      </trkpt>
      <trkpt lat="44.15588" lon="2.92219">
        <ele>873.3</ele>
        <time>2021-08-16T07:01:37Z</time>
      </trkpt>
      <trkpt lat="44.15592" lon="2.92225">
        <ele>873.2</ele>
        <time>2021-08-16T07:01:39Z</time>
      </trkpt>
      <trkpt lat="44.15595" lon="2.92232">
        <ele>873.1</ele>
        <time>2021-08-16T07:01:41Z</time>
      </trkpt>
      <trkpt lat="44.15599" lon="2.92239">
        <ele>873</ele>
        <time>2021-08-16T07:01:43Z</time>
      </trkpt>
      <trkpt lat="44.15603" lon="2.92247">
        <ele>872.9</ele>
        <time>2021-08-16T07:01:45Z</time>
      </trkpt>
      <trkpt lat="44.15607" lon="2.92257">
        <ele>872.7</ele>
        <time>2021-08-16T07:01:47Z</time>
      </trkpt>
      <trkpt lat="44.1561" lon="2.92266">
        <ele>872.6</ele>
        <time>2021-08-16T07:01:49Z</time>
      </trkpt>
      <trkpt lat="44.15614" lon="2.92275">
        <ele>872.6</ele>
        <time>2021-08-16T07:01:51Z</time>
      </trkpt>
      <trkpt lat="44.15618" lon="2.92285">
        <ele>872.4</ele>
        <time>2021-08-16T07:01:53Z</time>
      </trkpt>
      <trkpt lat="44.15623" lon="2.92293">
        <ele>872.5</ele>
        <time>2021-08-16T07:01:55Z</time>
      </trkpt>
      <trkpt lat="44.1563" lon="2.92299">
        <ele>872.8</ele>
        <time>2021-08-16T07:01:57Z</time>
      </trkpt>
      <trkpt lat="44.15638" lon="2.92303">
        <ele>873.2</ele>
        <time>2021-08-16T07:01:59Z</time>
      </trkpt>
      <trkpt lat="44.15645" lon="2.92307">
        <ele>873.6</ele>
        <time>2021-08-16T07:02:01Z</time>
      </trkpt>
      <trkpt lat="44.15653" lon="2.9231">
        <ele>874</ele>
        <time>2021-08-16T07:02:03Z</time>
      </trkpt>
      <trkpt lat="44.1566" lon="2.92315">
        <ele>874.2</ele>
        <time>2021-08-16T07:02:05Z</time>
      </trkpt>
      <trkpt lat="44.15666" lon="2.92322">
        <ele>874.1</ele>
        <time>2021-08-16T07:02:07Z</time>
      </trkpt>
      <trkpt lat="44.15673" lon="2.92329">
        <ele>874.5</ele>
        <time>2021-08-16T07:02:09Z</time>
      </trkpt>
      <trkpt lat="44.15678" lon="2.92337">
        <ele>874.7</ele>
        <time>2021-08-16T07:02:11Z</time>
      </trkpt>
      <trkpt lat="44.15683" lon="2.92344">
        <ele>875.1</ele>
        <time>2021-08-16T07:02:13Z</time>
      </trkpt>
      <trkpt lat="44.15689" lon="2.92352">
        <ele>875.5</ele>
        <time>2021-08-16T07:02:15Z</time>
      </trkpt>
      <trkpt lat="44.15694" lon="2.9236">
        <ele>875.8</ele>
        <time>2021-08-16T07:02:17Z</time>
      </trkpt>
      <trkpt lat="44.157" lon="2.92367">
        <ele>876.1</ele>
        <time>2021-08-16T07:02:19Z</time>
      </trkpt>
      <trkpt lat="44.15706" lon="2.92374">
        <ele>876.3</ele>
        <time>2021-08-16T07:02:21Z</time>
      </trkpt>
      <trkpt lat="44.15712" lon="2.92382">
        <ele>876.4</ele>
        <time>2021-08-16T07:02:23Z</time>
      </trkpt>
      <trkpt lat="44.15717" lon="2.92389">
        <ele>876.4</ele>
        <time>2021-08-16T07:02:25Z</time>
      </trkpt>
      <trkpt lat="44.15723" lon="2.92396">
        <ele>876.4</ele>
        <time>2021-08-16T07:02:27Z</time>
      </trkpt>
      <trkpt lat="44.15728" lon="2.92404">
        <ele>876.2</ele>
        <time>2021-08-16T07:02:29Z</time>
      </trkpt>
      <trkpt lat="44.15732" lon="2.92412">
        <ele>875.8</ele>
        <time>2021-08-16T07:02:31Z</time>
      </trkpt>
      <trkpt lat="44.15738" lon="2.9242">
        <ele>875.8</ele>
        <time>2021-08-16T07:02:33Z</time>
      </trkpt>
      <trkpt lat="44.15743" lon="2.92428">
        <ele>875.9</ele>
        <time>2021-08-16T07:02:35Z</time>
      </trkpt>
      <trkpt lat="44.15748" lon="2.92437">
        <ele>876.1</ele>
        <time>2021-08-16T07:02:37Z</time>
      </trkpt>
      <trkpt lat="44.15752" lon="2.92445">
        <ele>876.2</ele>
        <time>2021-08-16T07:02:39Z</time>
      </trkpt>
      <trkpt lat="44.15757" lon="2.92454">
        <ele>876.3</ele>
        <time>2021-08-16T07:02:41Z</time>
      </trkpt>
      <trkpt lat="44.15761" lon="2.92463">
        <ele>876.3</ele>
        <time>2021-08-16T07:02:43Z</time>
      </trkpt>
      <trkpt lat="44.15764" lon="2.92472">
        <ele>876.1</ele>
        <time>2021-08-16T07:02:45Z</time>
      </trkpt>
      <trkpt lat="44.15768" lon="2.92481">
        <ele>876.1</ele>
        <time>2021-08-16T07:02:47Z</time>
      </trkpt>
      <trkpt lat="44.15771" lon="2.92489">
        <ele>876</ele>
        <time>2021-08-16T07:02:49Z</time>
      </trkpt>
      <trkpt lat="44.15773" lon="2.92498">
        <ele>875.8</ele>
        <time>2021-08-16T07:02:51Z</time>
      </trkpt>
      <trkpt lat="44.15777" lon="2.92506">
        <ele>876</ele>
        <time>2021-08-16T07:02:53Z</time>
      </trkpt>
      <trkpt lat="44.15778" lon="2.92514">
        <ele>876.1</ele>
        <time>2021-08-16T07:02:55Z</time>
      </trkpt>
      <trkpt lat="44.15779" lon="2.92522">
        <ele>876.3</ele>
        <time>2021-08-16T07:02:57Z</time>
      </trkpt>
      <trkpt lat="44.15781" lon="2.92529">
        <ele>876.4</ele>
        <time>2021-08-16T07:02:59Z</time>
      </trkpt>
      <trkpt lat="44.15781" lon="2.92536">
        <ele>876.5</ele>
        <time>2021-08-16T07:03:01Z</time>
      </trkpt>
      <trkpt lat="44.15782" lon="2.92543">
        <ele>876.6</ele>
        <time>2021-08-16T07:03:03Z</time>
      </trkpt>
      <trkpt lat="44.15782" lon="2.9255">
        <ele>876.7</ele>
        <time>2021-08-16T07:03:05Z</time>
      </trkpt>
      <trkpt lat="44.15783" lon="2.92556">
        <ele>876.8</ele>
        <time>2021-08-16T07:03:07Z</time>
      </trkpt>
      <trkpt lat="44.15784" lon="2.92561">
        <ele>876.9</ele>
        <time>2021-08-16T07:03:09Z</time>
      </trkpt>
      <trkpt lat="44.15783" lon="2.92567">
        <ele>876.9</ele>
        <time>2021-08-16T07:03:11Z</time>
      </trkpt>
      <trkpt lat="44.15782" lon="2.92573">
        <ele>876.8</ele>
        <time>2021-08-16T07:03:13Z</time>
      </trkpt>
      <trkpt lat="44.15779" lon="2.9258">
        <ele>876.7</ele>
        <time>2021-08-16T07:03:15Z</time>
      </trkpt>
      <trkpt lat="44.15775" lon="2.92586">
        <ele>876.6</ele>
        <time>2021-08-16T07:03:17Z</time>
      </trkpt>
      <trkpt lat="44.15772" lon="2.92593">
        <ele>876.5</ele>
        <time>2021-08-16T07:03:19Z</time>
      </trkpt>
      <trkpt lat="44.15767" lon="2.92598">
        <ele>876.3</ele>
        <time>2021-08-16T07:03:21Z</time>
      </trkpt>
      <trkpt lat="44.15761" lon="2.92603">
        <ele>876</ele>
        <time>2021-08-16T07:03:23Z</time>
      </trkpt>
      <trkpt lat="44.15755" lon="2.92607">
        <ele>875.8</ele>
        <time>2021-08-16T07:03:25Z</time>
      </trkpt>
      <trkpt lat="44.15748" lon="2.92611">
        <ele>875.6</ele>
        <time>2021-08-16T07:03:27Z</time>
      </trkpt>
      <trkpt lat="44.15741" lon="2.92614">
        <ele>875.5</ele>
        <time>2021-08-16T07:03:29Z</time>
      </trkpt>
      <trkpt lat="44.15734" lon="2.92617">
        <ele>875.4</ele>
        <time>2021-08-16T07:03:31Z</time>
      </trkpt>
      <trkpt lat="44.15727" lon="2.9262">
        <ele>875.2</ele>
        <time>2021-08-16T07:03:33Z</time>
      </trkpt>
      <trkpt lat="44.15719" lon="2.92624">
        <ele>875.1</ele>
        <time>2021-08-16T07:03:35Z</time>
      </trkpt>
      <trkpt lat="44.15711" lon="2.92626">
        <ele>874.9</ele>
        <time>2021-08-16T07:03:37Z</time>
      </trkpt>
      <trkpt lat="44.15704" lon="2.9263">
        <ele>874.7</ele>
        <time>2021-08-16T07:03:39Z</time>
      </trkpt>
      <trkpt lat="44.15696" lon="2.92634">
        <ele>874.5</ele>
        <time>2021-08-16T07:03:41Z</time>
      </trkpt>
      <trkpt lat="44.15689" lon="2.92639">
        <ele>874.4</ele>
        <time>2021-08-16T07:03:43Z</time>
      </trkpt>
      <trkpt lat="44.15682" lon="2.92646">
        <ele>874.3</ele>
        <time>2021-08-16T07:03:45Z</time>
      </trkpt>
      <trkpt lat="44.15676" lon="2.92654">
        <ele>874.2</ele>
        <time>2021-08-16T07:03:47Z</time>
      </trkpt>
      <trkpt lat="44.15671" lon="2.92666">
        <ele>874.2</ele>
        <time>2021-08-16T07:03:49Z</time>
      </trkpt>
      <trkpt lat="44.15668" lon="2.92679">
        <ele>873.9</ele>
        <time>2021-08-16T07:03:51Z</time>
      </trkpt>
      <trkpt lat="44.15666" lon="2.92693">
        <ele>873.7</ele>
        <time>2021-08-16T07:03:53Z</time>
      </trkpt>
      <trkpt lat="44.15664" lon="2.92707">
        <ele>873.4</ele>
        <time>2021-08-16T07:03:55Z</time>
      </trkpt>
      <trkpt lat="44.15663" lon="2.92722">
        <ele>873.2</ele>
        <time>2021-08-16T07:03:57Z</time>
      </trkpt>
      <trkpt lat="44.15662" lon="2.92737">
        <ele>872.9</ele>
        <time>2021-08-16T07:03:59Z</time>
      </trkpt>
      <trkpt lat="44.15662" lon="2.92752">
        <ele>872.7</ele>
        <time>2021-08-16T07:04:01Z</time>
      </trkpt>
      <trkpt lat="44.15662" lon="2.92768">
        <ele>872.5</ele>
        <time>2021-08-16T07:04:03Z</time>
      </trkpt>
      <trkpt lat="44.15662" lon="2.92784">
        <ele>872.3</ele>
        <time>2021-08-16T07:04:05Z</time>
      </trkpt>
      <trkpt lat="44.15663" lon="2.928">
        <ele>872.1</ele>
        <time>2021-08-16T07:04:07Z</time>
      </trkpt>
      <trkpt lat="44.15664" lon="2.92817">
        <ele>872</ele>
        <time>2021-08-16T07:04:09Z</time>
      </trkpt>
      <trkpt lat="44.15666" lon="2.92833">
        <ele>872</ele>
        <time>2021-08-16T07:04:11Z</time>
      </trkpt>
      <trkpt lat="44.15669" lon="2.92849">
        <ele>871.6</ele>
        <time>2021-08-16T07:04:13Z</time>
      </trkpt>
      <trkpt lat="44.15672" lon="2.92864">
        <ele>871.1</ele>
        <time>2021-08-16T07:04:15Z</time>
      </trkpt>
      <trkpt lat="44.15677" lon="2.9288">
        <ele>870.8</ele>
        <time>2021-08-16T07:04:17Z</time>
      </trkpt>
      <trkpt lat="44.15682" lon="2.92896">
        <ele>870.3</ele>
        <time>2021-08-16T07:04:19Z</time>
      </trkpt>
      <trkpt lat="44.15688" lon="2.92911">
        <ele>870</ele>
        <time>2021-08-16T07:04:21Z</time>
      </trkpt>
      <trkpt lat="44.15694" lon="2.92926">
        <ele>869.6</ele>
        <time>2021-08-16T07:04:23Z</time>
      </trkpt>
      <trkpt lat="44.15703" lon="2.92938">
        <ele>869.4</ele>
        <time>2021-08-16T07:04:25Z</time>
      </trkpt>
      <trkpt lat="44.15713" lon="2.92947">
        <ele>869.1</ele>
        <time>2021-08-16T07:04:27Z</time>
      </trkpt>
      <trkpt lat="44.15725" lon="2.92955">
        <ele>868.7</ele>
        <time>2021-08-16T07:04:29Z</time>
      </trkpt>
      <trkpt lat="44.15737" lon="2.92962">
        <ele>868.3</ele>
        <time>2021-08-16T07:04:31Z</time>
      </trkpt>
      <trkpt lat="44.1575" lon="2.92968">
        <ele>867.7</ele>
        <time>2021-08-16T07:04:33Z</time>
      </trkpt>
      <trkpt lat="44.15762" lon="2.92975">
        <ele>867.5</ele>
        <time>2021-08-16T07:04:35Z</time>
      </trkpt>
      <trkpt lat="44.15774" lon="2.92981">
        <ele>867.4</ele>
        <time>2021-08-16T07:04:37Z</time>
      </trkpt>
      <trkpt lat="44.15785" lon="2.92987">
        <ele>867.3</ele>
        <time>2021-08-16T07:04:39Z</time>
      </trkpt>
      <trkpt lat="44.15797" lon="2.92993">
        <ele>867.2</ele>
        <time>2021-08-16T07:04:41Z</time>
      </trkpt>
      <trkpt lat="44.15808" lon="2.92999">
        <ele>867.2</ele>
        <time>2021-08-16T07:04:43Z</time>
      </trkpt>
      <trkpt lat="44.1582" lon="2.93005">
        <ele>867.1</ele>
        <time>2021-08-16T07:04:45Z</time>
      </trkpt>
      <trkpt lat="44.15831" lon="2.93011">
        <ele>867</ele>
        <time>2021-08-16T07:04:47Z</time>
      </trkpt>
      <trkpt lat="44.15843" lon="2.93017">
        <ele>867.3</ele>
        <time>2021-08-16T07:04:49Z</time>
      </trkpt>
      <trkpt lat="44.15854" lon="2.93022">
        <ele>867.7</ele>
        <time>2021-08-16T07:04:51Z</time>
      </trkpt>
      <trkpt lat="44.15865" lon="2.93028">
        <ele>868.1</ele>
        <time>2021-08-16T07:04:53Z</time>
      </trkpt>
      <trkpt lat="44.15877" lon="2.93034">
        <ele>868.5</ele>
        <time>2021-08-16T07:04:55Z</time>
      </trkpt>
      <trkpt lat="44.15888" lon="2.9304">
        <ele>868.9</ele>
        <time>2021-08-16T07:04:57Z</time>
      </trkpt>
      <trkpt lat="44.15899" lon="2.93044">
        <ele>869.4</ele>
        <time>2021-08-16T07:04:59Z</time>
      </trkpt>
      <trkpt lat="44.15908" lon="2.93053">
        <ele>869.5</ele>
        <time>2021-08-16T07:05:01Z</time>
      </trkpt>
      <trkpt lat="44.15916" lon="2.93065">
        <ele>869.3</ele>
        <time>2021-08-16T07:05:03Z</time>
      </trkpt>
      <trkpt lat="44.15918" lon="2.93081">
        <ele>868.3</ele>
        <time>2021-08-16T07:05:05Z</time>
      </trkpt>
      <trkpt lat="44.15917" lon="2.93096">
        <ele>868.2</ele>
        <time>2021-08-16T07:05:07Z</time>
      </trkpt>
      <trkpt lat="44.15911" lon="2.93112">
        <ele>867.9</ele>
        <time>2021-08-16T07:05:09Z</time>
      </trkpt>
      <trkpt lat="44.15903" lon="2.93124">
        <ele>867.3</ele>
        <time>2021-08-16T07:05:11Z</time>
      </trkpt>
      <trkpt lat="44.15892" lon="2.93132">
        <ele>866.3</ele>
        <time>2021-08-16T07:05:13Z</time>
      </trkpt>
      <trkpt lat="44.15879" lon="2.93137">
        <ele>865.2</ele>
        <time>2021-08-16T07:05:15Z</time>
      </trkpt>
      <trkpt lat="44.15866" lon="2.9314">
        <ele>864</ele>
        <time>2021-08-16T07:05:17Z</time>
      </trkpt>
      <trkpt lat="44.15852" lon="2.93143">
        <ele>862.8</ele>
        <time>2021-08-16T07:05:19Z</time>
      </trkpt>
      <trkpt lat="44.15839" lon="2.93146">
        <ele>861.5</ele>
        <time>2021-08-16T07:05:21Z</time>
      </trkpt>
      <trkpt lat="44.15824" lon="2.93151">
        <ele>860.1</ele>
        <time>2021-08-16T07:05:23Z</time>
      </trkpt>
      <trkpt lat="44.15811" lon="2.93159">
        <ele>858.7</ele>
        <time>2021-08-16T07:05:25Z</time>
      </trkpt>
      <trkpt lat="44.15799" lon="2.93168">
        <ele>857.2</ele>
        <time>2021-08-16T07:05:27Z</time>
      </trkpt>
      <trkpt lat="44.15787" lon="2.93181">
        <ele>855.9</ele>
        <time>2021-08-16T07:05:29Z</time>
      </trkpt>
      <trkpt lat="44.15777" lon="2.93197">
        <ele>854.8</ele>
        <time>2021-08-16T07:05:31Z</time>
      </trkpt>
      <trkpt lat="44.15768" lon="2.93215">
        <ele>853.8</ele>
        <time>2021-08-16T07:05:33Z</time>
      </trkpt>
      <trkpt lat="44.15759" lon="2.93234">
        <ele>852.9</ele>
        <time>2021-08-16T07:05:35Z</time>
      </trkpt>
      <trkpt lat="44.15751" lon="2.93254">
        <ele>852.1</ele>
        <time>2021-08-16T07:05:37Z</time>
      </trkpt>
      <trkpt lat="44.15742" lon="2.93273">
        <ele>851.2</ele>
        <time>2021-08-16T07:05:39Z</time>
      </trkpt>
      <trkpt lat="44.15733" lon="2.93293">
        <ele>850.3</ele>
        <time>2021-08-16T07:05:41Z</time>
      </trkpt>
      <trkpt lat="44.15724" lon="2.93312">
        <ele>849.7</ele>
        <time>2021-08-16T07:05:43Z</time>
      </trkpt>
      <trkpt lat="44.15715" lon="2.93332">
        <ele>849.1</ele>
        <time>2021-08-16T07:05:45Z</time>
      </trkpt>
      <trkpt lat="44.15707" lon="2.93352">
        <ele>848</ele>
        <time>2021-08-16T07:05:47Z</time>
      </trkpt>
      <trkpt lat="44.15698" lon="2.93372">
        <ele>846.6</ele>
        <time>2021-08-16T07:05:49Z</time>
      </trkpt>
      <trkpt lat="44.15688" lon="2.93392">
        <ele>844.9</ele>
        <time>2021-08-16T07:05:51Z</time>
      </trkpt>
      <trkpt lat="44.15679" lon="2.93413">
        <ele>842.9</ele>
        <time>2021-08-16T07:05:53Z</time>
      </trkpt>
      <trkpt lat="44.15669" lon="2.93434">
        <ele>841.4</ele>
        <time>2021-08-16T07:05:55Z</time>
      </trkpt>
      <trkpt lat="44.15659" lon="2.93456">
        <ele>840.2</ele>
        <time>2021-08-16T07:05:57Z</time>
      </trkpt>
      <trkpt lat="44.15648" lon="2.93477">
        <ele>839.1</ele>
        <time>2021-08-16T07:05:59Z</time>
      </trkpt>
      <trkpt lat="44.15638" lon="2.93498">
        <ele>837.9</ele>
        <time>2021-08-16T07:06:01Z</time>
      </trkpt>
      <trkpt lat="44.15626" lon="2.93518">
        <ele>836.9</ele>
        <time>2021-08-16T07:06:03Z</time>
      </trkpt>
      <trkpt lat="44.15616" lon="2.93537">
        <ele>835.7</ele>
        <time>2021-08-16T07:06:05Z</time>
      </trkpt>
      <trkpt lat="44.15605" lon="2.93556">
        <ele>834.4</ele>
        <time>2021-08-16T07:06:07Z</time>
      </trkpt>
      <trkpt lat="44.15595" lon="2.93577">
        <ele>832.8</ele>
        <time>2021-08-16T07:06:09Z</time>
      </trkpt>
      <trkpt lat="44.15587" lon="2.93598">
        <ele>830.8</ele>
        <time>2021-08-16T07:06:11Z</time>
      </trkpt>
      <trkpt lat="44.15583" lon="2.93619">
        <ele>828.8</ele>
        <time>2021-08-16T07:06:13Z</time>
      </trkpt>
      <trkpt lat="44.15581" lon="2.9364">
        <ele>827.5</ele>
        <time>2021-08-16T07:06:15Z</time>
      </trkpt>
      <trkpt lat="44.15582" lon="2.93661">
        <ele>826.3</ele>
        <time>2021-08-16T07:06:17Z</time>
      </trkpt>
      <trkpt lat="44.15586" lon="2.9368">
        <ele>825.1</ele>
        <time>2021-08-16T07:06:19Z</time>
      </trkpt>
      <trkpt lat="44.15591" lon="2.937">
        <ele>824.1</ele>
        <time>2021-08-16T07:06:21Z</time>
      </trkpt>
      <trkpt lat="44.15602" lon="2.93718">
        <ele>823.8</ele>
        <time>2021-08-16T07:06:23Z</time>
      </trkpt>
      <trkpt lat="44.15611" lon="2.93737">
        <ele>823.3</ele>
        <time>2021-08-16T07:06:25Z</time>
      </trkpt>
      <trkpt lat="44.1562" lon="2.93757">
        <ele>822.7</ele>
        <time>2021-08-16T07:06:27Z</time>
      </trkpt>
      <trkpt lat="44.15627" lon="2.93778">
        <ele>822.1</ele>
        <time>2021-08-16T07:06:29Z</time>
      </trkpt>
      <trkpt lat="44.15632" lon="2.93801">
        <ele>821.1</ele>
        <time>2021-08-16T07:06:31Z</time>
      </trkpt>
      <trkpt lat="44.15634" lon="2.93825">
        <ele>819.6</ele>
        <time>2021-08-16T07:06:33Z</time>
      </trkpt>
      <trkpt lat="44.15633" lon="2.93849">
        <ele>817.8</ele>
        <time>2021-08-16T07:06:35Z</time>
      </trkpt>
      <trkpt lat="44.15629" lon="2.93873">
        <ele>815.7</ele>
        <time>2021-08-16T07:06:37Z</time>
      </trkpt>
      <trkpt lat="44.15625" lon="2.93899">
        <ele>813.3</ele>
        <time>2021-08-16T07:06:39Z</time>
      </trkpt>
      <trkpt lat="44.15622" lon="2.93925">
        <ele>810.7</ele>
        <time>2021-08-16T07:06:41Z</time>
      </trkpt>
      <trkpt lat="44.15617" lon="2.93953">
        <ele>808.1</ele>
        <time>2021-08-16T07:06:43Z</time>
      </trkpt>
      <trkpt lat="44.15613" lon="2.93981">
        <ele>805.4</ele>
        <time>2021-08-16T07:06:45Z</time>
      </trkpt>
      <trkpt lat="44.15609" lon="2.94009">
        <ele>803</ele>
        <time>2021-08-16T07:06:47Z</time>
      </trkpt>
      <trkpt lat="44.15604" lon="2.94035">
        <ele>801.9</ele>
        <time>2021-08-16T07:06:49Z</time>
      </trkpt>
      <trkpt lat="44.156" lon="2.94061">
        <ele>800.8</ele>
        <time>2021-08-16T07:06:51Z</time>
      </trkpt>
      <trkpt lat="44.15597" lon="2.94086">
        <ele>799.9</ele>
        <time>2021-08-16T07:06:53Z</time>
      </trkpt>
      <trkpt lat="44.15593" lon="2.94112">
        <ele>798.5</ele>
        <time>2021-08-16T07:06:55Z</time>
      </trkpt>
      <trkpt lat="44.15589" lon="2.94138">
        <ele>797.3</ele>
        <time>2021-08-16T07:06:57Z</time>
      </trkpt>
      <trkpt lat="44.15585" lon="2.94165">
        <ele>796.3</ele>
        <time>2021-08-16T07:06:59Z</time>
      </trkpt>
      <trkpt lat="44.1558" lon="2.94192">
        <ele>794.8</ele>
        <time>2021-08-16T07:07:01Z</time>
      </trkpt>
      <trkpt lat="44.15577" lon="2.94218">
        <ele>793.3</ele>
        <time>2021-08-16T07:07:03Z</time>
      </trkpt>
      <trkpt lat="44.15572" lon="2.94244">
        <ele>791.6</ele>
        <time>2021-08-16T07:07:05Z</time>
      </trkpt>
      <trkpt lat="44.15568" lon="2.94269">
        <ele>789.2</ele>
        <time>2021-08-16T07:07:07Z</time>
      </trkpt>
      <trkpt lat="44.15565" lon="2.94293">
        <ele>787</ele>
        <time>2021-08-16T07:07:09Z</time>
      </trkpt>
      <trkpt lat="44.15561" lon="2.94316">
        <ele>785</ele>
        <time>2021-08-16T07:07:11Z</time>
      </trkpt>
      <trkpt lat="44.15557" lon="2.94337">
        <ele>783.3</ele>
        <time>2021-08-16T07:07:13Z</time>
      </trkpt>
      <trkpt lat="44.15553" lon="2.94359">
        <ele>782</ele>
        <time>2021-08-16T07:07:15Z</time>
      </trkpt>
      <trkpt lat="44.1555" lon="2.94381">
        <ele>781.1</ele>
        <time>2021-08-16T07:07:17Z</time>
      </trkpt>
      <trkpt lat="44.15547" lon="2.94402">
        <ele>780.5</ele>
        <time>2021-08-16T07:07:19Z</time>
      </trkpt>
      <trkpt lat="44.15544" lon="2.9442">
        <ele>780</ele>
        <time>2021-08-16T07:07:21Z</time>
      </trkpt>
      <trkpt lat="44.15542" lon="2.94439">
        <ele>779.3</ele>
        <time>2021-08-16T07:07:23Z</time>
      </trkpt>
      <trkpt lat="44.15542" lon="2.94457">
        <ele>778.8</ele>
        <time>2021-08-16T07:07:25Z</time>
      </trkpt>
      <trkpt lat="44.15547" lon="2.94473">
        <ele>778.6</ele>
        <time>2021-08-16T07:07:27Z</time>
      </trkpt>
      <trkpt lat="44.15556" lon="2.94486">
        <ele>778.5</ele>
        <time>2021-08-16T07:07:29Z</time>
      </trkpt>
      <trkpt lat="44.15568" lon="2.94492">
        <ele>778.8</ele>
        <time>2021-08-16T07:07:31Z</time>
      </trkpt>
      <trkpt lat="44.15582" lon="2.94492">
        <ele>779.3</ele>
        <time>2021-08-16T07:07:33Z</time>
      </trkpt>
      <trkpt lat="44.15596" lon="2.94489">
        <ele>778.8</ele>
        <time>2021-08-16T07:07:35Z</time>
      </trkpt>
      <trkpt lat="44.15611" lon="2.94486">
        <ele>778</ele>
        <time>2021-08-16T07:07:37Z</time>
      </trkpt>
      <trkpt lat="44.15627" lon="2.94483">
        <ele>777.3</ele>
        <time>2021-08-16T07:07:39Z</time>
      </trkpt>
      <trkpt lat="44.15643" lon="2.9448">
        <ele>776.6</ele>
        <time>2021-08-16T07:07:41Z</time>
      </trkpt>
      <trkpt lat="44.15658" lon="2.94476">
        <ele>775.9</ele>
        <time>2021-08-16T07:07:43Z</time>
      </trkpt>
      <trkpt lat="44.15674" lon="2.94474">
        <ele>775.5</ele>
        <time>2021-08-16T07:07:45Z</time>
      </trkpt>
      <trkpt lat="44.15688" lon="2.94473">
        <ele>775.5</ele>
        <time>2021-08-16T07:07:47Z</time>
      </trkpt>
      <trkpt lat="44.15702" lon="2.94475">
        <ele>775.3</ele>
        <time>2021-08-16T07:07:49Z</time>
      </trkpt>
      <trkpt lat="44.15716" lon="2.9448">
        <ele>774.7</ele>
        <time>2021-08-16T07:07:51Z</time>
      </trkpt>
      <trkpt lat="44.15729" lon="2.94488">
        <ele>773.7</ele>
        <time>2021-08-16T07:07:53Z</time>
      </trkpt>
      <trkpt lat="44.15743" lon="2.94498">
        <ele>772.5</ele>
        <time>2021-08-16T07:07:55Z</time>
      </trkpt>
      <trkpt lat="44.15756" lon="2.94508">
        <ele>770.9</ele>
        <time>2021-08-16T07:07:57Z</time>
      </trkpt>
      <trkpt lat="44.1577" lon="2.94518">
        <ele>769.5</ele>
        <time>2021-08-16T07:07:59Z</time>
      </trkpt>
      <trkpt lat="44.15784" lon="2.94525">
        <ele>768.3</ele>
        <time>2021-08-16T07:08:01Z</time>
      </trkpt>
      <trkpt lat="44.15799" lon="2.9453">
        <ele>767.7</ele>
        <time>2021-08-16T07:08:03Z</time>
      </trkpt>
      <trkpt lat="44.15815" lon="2.94531">
        <ele>767.6</ele>
        <time>2021-08-16T07:08:05Z</time>
      </trkpt>
      <trkpt lat="44.15832" lon="2.9453">
        <ele>767.7</ele>
        <time>2021-08-16T07:08:07Z</time>
      </trkpt>
      <trkpt lat="44.15847" lon="2.94527">
        <ele>766.9</ele>
        <time>2021-08-16T07:08:09Z</time>
      </trkpt>
      <trkpt lat="44.15864" lon="2.94524">
        <ele>765.6</ele>
        <time>2021-08-16T07:08:11Z</time>
      </trkpt>
      <trkpt lat="44.15879" lon="2.9452">
        <ele>764.7</ele>
        <time>2021-08-16T07:08:13Z</time>
      </trkpt>
      <trkpt lat="44.15896" lon="2.94516">
        <ele>763.5</ele>
        <time>2021-08-16T07:08:15Z</time>
      </trkpt>
      <trkpt lat="44.15913" lon="2.94513">
        <ele>762.2</ele>
        <time>2021-08-16T07:08:17Z</time>
      </trkpt>
      <trkpt lat="44.15927" lon="2.94512">
        <ele>760.2</ele>
        <time>2021-08-16T07:08:19Z</time>
      </trkpt>
      <trkpt lat="44.15943" lon="2.94509">
        <ele>758.2</ele>
        <time>2021-08-16T07:08:21Z</time>
      </trkpt>
      <trkpt lat="44.15958" lon="2.94507">
        <ele>756.3</ele>
        <time>2021-08-16T07:08:23Z</time>
      </trkpt>
      <trkpt lat="44.15972" lon="2.94501">
        <ele>755</ele>
        <time>2021-08-16T07:08:25Z</time>
      </trkpt>
      <trkpt lat="44.15984" lon="2.94489">
        <ele>754.1</ele>
        <time>2021-08-16T07:08:27Z</time>
      </trkpt>
      <trkpt lat="44.15994" lon="2.94474">
        <ele>753.7</ele>
        <time>2021-08-16T07:08:29Z</time>
      </trkpt>
      <trkpt lat="44.16004" lon="2.94455">
        <ele>753.5</ele>
        <time>2021-08-16T07:08:31Z</time>
      </trkpt>
      <trkpt lat="44.16015" lon="2.94437">
        <ele>753</ele>
        <time>2021-08-16T07:08:33Z</time>
      </trkpt>
      <trkpt lat="44.16026" lon="2.94418">
        <ele>752.9</ele>
        <time>2021-08-16T07:08:35Z</time>
      </trkpt>
      <trkpt lat="44.16036" lon="2.94399">
        <ele>752.3</ele>
        <time>2021-08-16T07:08:37Z</time>
      </trkpt>
      <trkpt lat="44.16047" lon="2.94381">
        <ele>751.2</ele>
        <time>2021-08-16T07:08:39Z</time>
      </trkpt>
      <trkpt lat="44.16057" lon="2.94361">
        <ele>749.7</ele>
        <time>2021-08-16T07:08:41Z</time>
      </trkpt>
      <trkpt lat="44.16067" lon="2.94343">
        <ele>748</ele>
        <time>2021-08-16T07:08:43Z</time>
      </trkpt>
      <trkpt lat="44.16076" lon="2.94324">
        <ele>747</ele>
        <time>2021-08-16T07:08:45Z</time>
      </trkpt>
      <trkpt lat="44.16085" lon="2.94308">
        <ele>746.4</ele>
        <time>2021-08-16T07:08:47Z</time>
      </trkpt>
      <trkpt lat="44.16093" lon="2.94295">
        <ele>745.2</ele>
        <time>2021-08-16T07:08:49Z</time>
      </trkpt>
      <trkpt lat="44.16101" lon="2.94283">
        <ele>744.1</ele>
        <time>2021-08-16T07:08:51Z</time>
      </trkpt>
      <trkpt lat="44.16107" lon="2.94272">
        <ele>743.4</ele>
        <time>2021-08-16T07:08:53Z</time>
      </trkpt>
      <trkpt lat="44.16115" lon="2.94263">
        <ele>742.2</ele>
        <time>2021-08-16T07:08:55Z</time>
      </trkpt>
      <trkpt lat="44.16122" lon="2.94252">
        <ele>741.1</ele>
        <time>2021-08-16T07:08:57Z</time>
      </trkpt>
      <trkpt lat="44.16129" lon="2.94243">
        <ele>740.3</ele>
        <time>2021-08-16T07:08:59Z</time>
      </trkpt>
      <trkpt lat="44.16135" lon="2.94236">
        <ele>739.4</ele>
        <time>2021-08-16T07:09:01Z</time>
      </trkpt>
      <trkpt lat="44.1614" lon="2.94229">
        <ele>738.5</ele>
        <time>2021-08-16T07:09:03Z</time>
      </trkpt>
      <trkpt lat="44.16145" lon="2.94224">
        <ele>737.7</ele>
        <time>2021-08-16T07:09:05Z</time>
      </trkpt>
      <trkpt lat="44.16147" lon="2.9422">
        <ele>737.5</ele>
        <time>2021-08-16T07:09:07Z</time>
      </trkpt>
      <trkpt lat="44.16147" lon="2.94221">
        <ele>737.4</ele>
        <time>2021-08-16T07:09:09Z</time>
      </trkpt>
      <trkpt lat="44.16147" lon="2.9422">
        <ele>737.4</ele>
        <time>2021-08-16T07:09:11Z</time>
      </trkpt>
      <trkpt lat="44.16148" lon="2.94221">
        <ele>737.1</ele>
        <time>2021-08-16T07:09:13Z</time>
      </trkpt>
      <trkpt lat="44.16148" lon="2.94221">
        <ele>737</ele>
        <time>2021-08-16T07:09:15Z</time>
      </trkpt>
      <trkpt lat="44.16163" lon="2.94199">
        <ele>734.8</ele>
        <time>2021-08-16T07:09:39Z</time>
      </trkpt>
      <trkpt lat="44.16168" lon="2.94188">
        <ele>734.7</ele>
        <time>2021-08-16T07:09:41Z</time>
      </trkpt>
      <trkpt lat="44.16172" lon="2.94174">
        <ele>736.3</ele>
        <time>2021-08-16T07:09:43Z</time>
      </trkpt>
      <trkpt lat="44.16175" lon="2.94158">
        <ele>738.4</ele>
        <time>2021-08-16T07:09:45Z</time>
      </trkpt>
      <trkpt lat="44.16178" lon="2.94142">
        <ele>740.8</ele>
        <time>2021-08-16T07:09:47Z</time>
      </trkpt>
      <trkpt lat="44.16182" lon="2.94128">
        <ele>742.8</ele>
        <time>2021-08-16T07:09:49Z</time>
      </trkpt>
      <trkpt lat="44.16191" lon="2.94118">
        <ele>743.7</ele>
        <time>2021-08-16T07:09:51Z</time>
      </trkpt>
      <trkpt lat="44.16204" lon="2.94115">
        <ele>743.4</ele>
        <time>2021-08-16T07:09:53Z</time>
      </trkpt>
      <trkpt lat="44.16217" lon="2.94119">
        <ele>742.2</ele>
        <time>2021-08-16T07:09:55Z</time>
      </trkpt>
      <trkpt lat="44.16226" lon="2.94126">
        <ele>741.1</ele>
        <time>2021-08-16T07:09:57Z</time>
      </trkpt>
      <trkpt lat="44.1623" lon="2.9414">
        <ele>739.8</ele>
        <time>2021-08-16T07:09:59Z</time>
      </trkpt>
      <trkpt lat="44.16229" lon="2.94154">
        <ele>738.7</ele>
        <time>2021-08-16T07:10:01Z</time>
      </trkpt>
      <trkpt lat="44.16228" lon="2.94167">
        <ele>737.7</ele>
        <time>2021-08-16T07:10:03Z</time>
      </trkpt>
      <trkpt lat="44.16228" lon="2.94179">
        <ele>737.1</ele>
        <time>2021-08-16T07:10:05Z</time>
      </trkpt>
      <trkpt lat="44.16227" lon="2.94184">
        <ele>736.8</ele>
        <time>2021-08-16T07:10:07Z</time>
      </trkpt>
      <trkpt lat="44.16227" lon="2.94184">
        <ele>736.7</ele>
        <time>2021-08-16T07:10:09Z</time>
      </trkpt>
      <trkpt lat="44.16227" lon="2.94185">
        <ele>736.7</ele>
        <time>2021-08-16T07:10:11Z</time>
      </trkpt>
      <trkpt lat="44.16227" lon="2.94185">
        <ele>736.7</ele>
        <time>2021-08-16T07:10:13Z</time>
      </trkpt>
      <trkpt lat="44.16227" lon="2.94186">
        <ele>736.7</ele>
        <time>2021-08-16T07:10:15Z</time>
      </trkpt>
      <trkpt lat="44.16231" lon="2.94228">
        <ele>734.5</ele>
        <time>2021-08-16T07:10:41Z</time>
      </trkpt>
      <trkpt lat="44.1623" lon="2.94244">
        <ele>733.7</ele>
        <time>2021-08-16T07:10:43Z</time>
      </trkpt>
      <trkpt lat="44.16229" lon="2.94259">
        <ele>732.6</ele>
        <time>2021-08-16T07:10:45Z</time>
      </trkpt>
      <trkpt lat="44.16228" lon="2.94274">
        <ele>731.4</ele>
        <time>2021-08-16T07:10:47Z</time>
      </trkpt>
      <trkpt lat="44.16227" lon="2.94289">
        <ele>730.2</ele>
        <time>2021-08-16T07:10:49Z</time>
      </trkpt>
      <trkpt lat="44.16226" lon="2.94305">
        <ele>728.9</ele>
        <time>2021-08-16T07:10:51Z</time>
      </trkpt>
      <trkpt lat="44.16225" lon="2.94322">
        <ele>727.6</ele>
        <time>2021-08-16T07:10:53Z</time>
      </trkpt>
      <trkpt lat="44.16224" lon="2.94338">
        <ele>726</ele>
        <time>2021-08-16T07:10:55Z</time>
      </trkpt>
      <trkpt lat="44.16224" lon="2.94355">
        <ele>724.4</ele>
        <time>2021-08-16T07:10:57Z</time>
      </trkpt>
      <trkpt lat="44.16228" lon="2.94374">
        <ele>723.1</ele>
        <time>2021-08-16T07:10:59Z</time>
      </trkpt>
      <trkpt lat="44.16232" lon="2.94394">
        <ele>721.8</ele>
        <time>2021-08-16T07:11:01Z</time>
      </trkpt>
      <trkpt lat="44.16236" lon="2.94416">
        <ele>720.6</ele>
        <time>2021-08-16T07:11:03Z</time>
      </trkpt>
      <trkpt lat="44.16238" lon="2.9444">
        <ele>719.1</ele>
        <time>2021-08-16T07:11:05Z</time>
      </trkpt>
      <trkpt lat="44.16239" lon="2.94463">
        <ele>717.3</ele>
        <time>2021-08-16T07:11:07Z</time>
      </trkpt>
      <trkpt lat="44.16237" lon="2.94488">
        <ele>715.2</ele>
        <time>2021-08-16T07:11:09Z</time>
      </trkpt>
      <trkpt lat="44.16236" lon="2.94511">
        <ele>713</ele>
        <time>2021-08-16T07:11:11Z</time>
      </trkpt>
      <trkpt lat="44.16233" lon="2.94535">
        <ele>710.6</ele>
        <time>2021-08-16T07:11:13Z</time>
      </trkpt>
      <trkpt lat="44.1623" lon="2.94558">
        <ele>707.9</ele>
        <time>2021-08-16T07:11:15Z</time>
      </trkpt>
      <trkpt lat="44.16228" lon="2.9458">
        <ele>705.4</ele>
        <time>2021-08-16T07:11:17Z</time>
      </trkpt>
      <trkpt lat="44.16225" lon="2.94602">
        <ele>702.8</ele>
        <time>2021-08-16T07:11:19Z</time>
      </trkpt>
      <trkpt lat="44.16223" lon="2.94623">
        <ele>700.4</ele>
        <time>2021-08-16T07:11:21Z</time>
      </trkpt>
      <trkpt lat="44.16221" lon="2.94644">
        <ele>698</ele>
        <time>2021-08-16T07:11:23Z</time>
      </trkpt>
      <trkpt lat="44.1622" lon="2.94663">
        <ele>696.1</ele>
        <time>2021-08-16T07:11:25Z</time>
      </trkpt>
      <trkpt lat="44.16222" lon="2.94683">
        <ele>693.4</ele>
        <time>2021-08-16T07:11:27Z</time>
      </trkpt>
      <trkpt lat="44.16229" lon="2.94704">
        <ele>691.7</ele>
        <time>2021-08-16T07:11:29Z</time>
      </trkpt>
      <trkpt lat="44.1624" lon="2.94721">
        <ele>691.7</ele>
        <time>2021-08-16T07:11:31Z</time>
      </trkpt>
      <trkpt lat="44.16252" lon="2.94737">
        <ele>692</ele>
        <time>2021-08-16T07:11:33Z</time>
      </trkpt>
      <trkpt lat="44.16263" lon="2.94754">
        <ele>691.2</ele>
        <time>2021-08-16T07:11:35Z</time>
      </trkpt>
      <trkpt lat="44.16274" lon="2.9477">
        <ele>691.9</ele>
        <time>2021-08-16T07:11:37Z</time>
      </trkpt>
      <trkpt lat="44.16287" lon="2.94781">
        <ele>693.6</ele>
        <time>2021-08-16T07:11:39Z</time>
      </trkpt>
      <trkpt lat="44.163" lon="2.9479">
        <ele>695.7</ele>
        <time>2021-08-16T07:11:41Z</time>
      </trkpt>
      <trkpt lat="44.16306" lon="2.94803">
        <ele>696.2</ele>
        <time>2021-08-16T07:11:43Z</time>
      </trkpt>
      <trkpt lat="44.16301" lon="2.9482">
        <ele>693.8</ele>
        <time>2021-08-16T07:11:45Z</time>
      </trkpt>
      <trkpt lat="44.1629" lon="2.94829">
        <ele>690.3</ele>
        <time>2021-08-16T07:11:47Z</time>
      </trkpt>
      <trkpt lat="44.16277" lon="2.94837">
        <ele>687.4</ele>
        <time>2021-08-16T07:11:49Z</time>
      </trkpt>
      <trkpt lat="44.16267" lon="2.9485">
        <ele>686.3</ele>
        <time>2021-08-16T07:11:51Z</time>
      </trkpt>
      <trkpt lat="44.16257" lon="2.94866">
        <ele>685.7</ele>
        <time>2021-08-16T07:11:53Z</time>
      </trkpt>
      <trkpt lat="44.16249" lon="2.94885">
        <ele>685.1</ele>
        <time>2021-08-16T07:11:55Z</time>
      </trkpt>
      <trkpt lat="44.16241" lon="2.94904">
        <ele>684.5</ele>
        <time>2021-08-16T07:11:57Z</time>
      </trkpt>
      <trkpt lat="44.16236" lon="2.94925">
        <ele>684.1</ele>
        <time>2021-08-16T07:11:59Z</time>
      </trkpt>
      <trkpt lat="44.1623" lon="2.94947">
        <ele>683.5</ele>
        <time>2021-08-16T07:12:01Z</time>
      </trkpt>
      <trkpt lat="44.16224" lon="2.94968">
        <ele>682.2</ele>
        <time>2021-08-16T07:12:03Z</time>
      </trkpt>
      <trkpt lat="44.16218" lon="2.94989">
        <ele>681</ele>
        <time>2021-08-16T07:12:05Z</time>
      </trkpt>
      <trkpt lat="44.16212" lon="2.95011">
        <ele>679.9</ele>
        <time>2021-08-16T07:12:07Z</time>
      </trkpt>
      <trkpt lat="44.16206" lon="2.9503">
        <ele>678.9</ele>
        <time>2021-08-16T07:12:09Z</time>
      </trkpt>
      <trkpt lat="44.16197" lon="2.95049">
        <ele>676.9</ele>
        <time>2021-08-16T07:12:11Z</time>
      </trkpt>
      <trkpt lat="44.16187" lon="2.95067">
        <ele>673.9</ele>
        <time>2021-08-16T07:12:13Z</time>
      </trkpt>
      <trkpt lat="44.16176" lon="2.95083">
        <ele>671.1</ele>
        <time>2021-08-16T07:12:15Z</time>
      </trkpt>
      <trkpt lat="44.16167" lon="2.951">
        <ele>669.6</ele>
        <time>2021-08-16T07:12:17Z</time>
      </trkpt>
      <trkpt lat="44.16158" lon="2.95118">
        <ele>669.3</ele>
        <time>2021-08-16T07:12:19Z</time>
      </trkpt>
      <trkpt lat="44.16149" lon="2.95139">
        <ele>669.1</ele>
        <time>2021-08-16T07:12:21Z</time>
      </trkpt>
      <trkpt lat="44.1614" lon="2.95158">
        <ele>668.5</ele>
        <time>2021-08-16T07:12:23Z</time>
      </trkpt>
      <trkpt lat="44.16131" lon="2.95178">
        <ele>666.8</ele>
        <time>2021-08-16T07:12:25Z</time>
      </trkpt>
      <trkpt lat="44.16124" lon="2.95196">
        <ele>665.4</ele>
        <time>2021-08-16T07:12:27Z</time>
      </trkpt>
      <trkpt lat="44.16115" lon="2.95214">
        <ele>663.7</ele>
        <time>2021-08-16T07:12:29Z</time>
      </trkpt>
      <trkpt lat="44.16108" lon="2.95233">
        <ele>662.6</ele>
        <time>2021-08-16T07:12:31Z</time>
      </trkpt>
      <trkpt lat="44.16101" lon="2.95252">
        <ele>661.5</ele>
        <time>2021-08-16T07:12:33Z</time>
      </trkpt>
      <trkpt lat="44.16096" lon="2.95269">
        <ele>658.6</ele>
        <time>2021-08-16T07:12:35Z</time>
      </trkpt>
      <trkpt lat="44.16093" lon="2.95286">
        <ele>656.6</ele>
        <time>2021-08-16T07:12:37Z</time>
      </trkpt>
      <trkpt lat="44.16094" lon="2.95303">
        <ele>655.5</ele>
        <time>2021-08-16T07:12:39Z</time>
      </trkpt>
      <trkpt lat="44.16101" lon="2.95318">
        <ele>656</ele>
        <time>2021-08-16T07:12:41Z</time>
      </trkpt>
      <trkpt lat="44.1611" lon="2.95332">
        <ele>656.8</ele>
        <time>2021-08-16T07:12:43Z</time>
      </trkpt>
      <trkpt lat="44.1612" lon="2.95346">
        <ele>656.6</ele>
        <time>2021-08-16T07:12:45Z</time>
      </trkpt>
      <trkpt lat="44.16131" lon="2.9536">
        <ele>655.9</ele>
        <time>2021-08-16T07:12:47Z</time>
      </trkpt>
      <trkpt lat="44.16143" lon="2.95373">
        <ele>655.2</ele>
        <time>2021-08-16T07:12:49Z</time>
      </trkpt>
      <trkpt lat="44.16155" lon="2.95385">
        <ele>654.6</ele>
        <time>2021-08-16T07:12:51Z</time>
      </trkpt>
      <trkpt lat="44.16167" lon="2.95395">
        <ele>654.3</ele>
        <time>2021-08-16T07:12:53Z</time>
      </trkpt>
      <trkpt lat="44.1618" lon="2.95404">
        <ele>656.3</ele>
        <time>2021-08-16T07:12:55Z</time>
      </trkpt>
      <trkpt lat="44.16192" lon="2.95412">
        <ele>658.1</ele>
        <time>2021-08-16T07:12:57Z</time>
      </trkpt>
      <trkpt lat="44.16201" lon="2.95426">
        <ele>658</ele>
        <time>2021-08-16T07:12:59Z</time>
      </trkpt>
      <trkpt lat="44.16206" lon="2.95443">
        <ele>656.4</ele>
        <time>2021-08-16T07:13:01Z</time>
      </trkpt>
      <trkpt lat="44.16209" lon="2.95461">
        <ele>654.1</ele>
        <time>2021-08-16T07:13:03Z</time>
      </trkpt>
      <trkpt lat="44.16211" lon="2.9548">
        <ele>651.7</ele>
        <time>2021-08-16T07:13:05Z</time>
      </trkpt>
      <trkpt lat="44.16214" lon="2.95499">
        <ele>649.2</ele>
        <time>2021-08-16T07:13:07Z</time>
      </trkpt>
      <trkpt lat="44.16215" lon="2.95518">
        <ele>646.6</ele>
        <time>2021-08-16T07:13:09Z</time>
      </trkpt>
      <trkpt lat="44.16218" lon="2.95537">
        <ele>644.6</ele>
        <time>2021-08-16T07:13:11Z</time>
      </trkpt>
      <trkpt lat="44.16222" lon="2.95555">
        <ele>642.8</ele>
        <time>2021-08-16T07:13:13Z</time>
      </trkpt>
      <trkpt lat="44.16226" lon="2.95573">
        <ele>641.4</ele>
        <time>2021-08-16T07:13:15Z</time>
      </trkpt>
      <trkpt lat="44.16231" lon="2.95592">
        <ele>640.5</ele>
        <time>2021-08-16T07:13:17Z</time>
      </trkpt>
      <trkpt lat="44.16236" lon="2.9561">
        <ele>640.1</ele>
        <time>2021-08-16T07:13:19Z</time>
      </trkpt>
      <trkpt lat="44.16242" lon="2.95627">
        <ele>639.8</ele>
        <time>2021-08-16T07:13:21Z</time>
      </trkpt>
      <trkpt lat="44.16246" lon="2.95643">
        <ele>639.1</ele>
        <time>2021-08-16T07:13:23Z</time>
      </trkpt>
      <trkpt lat="44.1625" lon="2.95656">
        <ele>638.6</ele>
        <time>2021-08-16T07:13:25Z</time>
      </trkpt>
      <trkpt lat="44.16254" lon="2.95669">
        <ele>637.5</ele>
        <time>2021-08-16T07:13:27Z</time>
      </trkpt>
      <trkpt lat="44.16258" lon="2.95681">
        <ele>636.7</ele>
        <time>2021-08-16T07:13:29Z</time>
      </trkpt>
      <trkpt lat="44.16263" lon="2.95693">
        <ele>636</ele>
        <time>2021-08-16T07:13:31Z</time>
      </trkpt>
      <trkpt lat="44.16271" lon="2.95703">
        <ele>635.9</ele>
        <time>2021-08-16T07:13:33Z</time>
      </trkpt>
      <trkpt lat="44.1628" lon="2.9571">
        <ele>636.2</ele>
        <time>2021-08-16T07:13:35Z</time>
      </trkpt>
      <trkpt lat="44.16289" lon="2.95715">
        <ele>636.9</ele>
        <time>2021-08-16T07:13:37Z</time>
      </trkpt>
      <trkpt lat="44.16299" lon="2.95719">
        <ele>637.6</ele>
        <time>2021-08-16T07:13:39Z</time>
      </trkpt>
      <trkpt lat="44.16309" lon="2.95723">
        <ele>638.5</ele>
        <time>2021-08-16T07:13:41Z</time>
      </trkpt>
      <trkpt lat="44.16318" lon="2.95729">
        <ele>638.7</ele>
        <time>2021-08-16T07:13:43Z</time>
      </trkpt>
      <trkpt lat="44.16327" lon="2.95733">
        <ele>639.2</ele>
        <time>2021-08-16T07:13:45Z</time>
      </trkpt>
      <trkpt lat="44.16335" lon="2.95737">
        <ele>639.5</ele>
        <time>2021-08-16T07:13:47Z</time>
      </trkpt>
      <trkpt lat="44.1634" lon="2.9574">
        <ele>639.4</ele>
        <time>2021-08-16T07:13:49Z</time>
      </trkpt>
      <trkpt lat="44.16345" lon="2.95744">
        <ele>639.1</ele>
        <time>2021-08-16T07:13:51Z</time>
      </trkpt>
      <trkpt lat="44.16349" lon="2.95745">
        <ele>639.2</ele>
        <time>2021-08-16T07:13:53Z</time>
      </trkpt>
      <trkpt lat="44.16352" lon="2.95747">
        <ele>639</ele>
        <time>2021-08-16T07:13:55Z</time>
      </trkpt>
      <trkpt lat="44.16356" lon="2.95752">
        <ele>638.7</ele>
        <time>2021-08-16T07:13:57Z</time>
      </trkpt>
      <trkpt lat="44.16357" lon="2.95758">
        <ele>637.7</ele>
        <time>2021-08-16T07:13:59Z</time>
      </trkpt>
      <trkpt lat="44.16359" lon="2.95765">
        <ele>636.8</ele>
        <time>2021-08-16T07:14:01Z</time>
      </trkpt>
      <trkpt lat="44.16363" lon="2.95773">
        <ele>635.9</ele>
        <time>2021-08-16T07:14:03Z</time>
      </trkpt>
      <trkpt lat="44.16367" lon="2.95777">
        <ele>635.6</ele>
        <time>2021-08-16T07:14:05Z</time>
      </trkpt>
      <trkpt lat="44.16372" lon="2.95783">
        <ele>635.1</ele>
        <time>2021-08-16T07:14:07Z</time>
      </trkpt>
      <trkpt lat="44.16378" lon="2.95787">
        <ele>635.1</ele>
        <time>2021-08-16T07:14:09Z</time>
      </trkpt>
      <trkpt lat="44.16381" lon="2.9579">
        <ele>634.8</ele>
        <time>2021-08-16T07:14:11Z</time>
      </trkpt>
      <trkpt lat="44.16383" lon="2.9579">
        <ele>635</ele>
        <time>2021-08-16T07:14:13Z</time>
      </trkpt>
      <trkpt lat="44.16383" lon="2.95787">
        <ele>635.4</ele>
        <time>2021-08-16T07:14:15Z</time>
      </trkpt>
      <trkpt lat="44.16384" lon="2.95788">
        <ele>635.4</ele>
        <time>2021-08-16T07:14:17Z</time>
      </trkpt>
      <trkpt lat="44.16385" lon="2.95787">
        <ele>635.5</ele>
        <time>2021-08-16T07:14:19Z</time>
      </trkpt>
      <trkpt lat="44.16387" lon="2.95789">
        <ele>635.4</ele>
        <time>2021-08-16T07:14:21Z</time>
      </trkpt>
      <trkpt lat="44.16389" lon="2.95791">
        <ele>635.3</ele>
        <time>2021-08-16T07:14:23Z</time>
      </trkpt>
      <trkpt lat="44.16388" lon="2.95796">
        <ele>634.4</ele>
        <time>2021-08-16T07:57:48Z</time>
      </trkpt>
      <trkpt lat="44.1639" lon="2.95798">
        <ele>634.3</ele>
        <time>2021-08-16T07:57:50Z</time>
      </trkpt>
      <trkpt lat="44.16393" lon="2.95798">
        <ele>634.5</ele>
        <time>2021-08-16T07:57:52Z</time>
      </trkpt>
      <trkpt lat="44.16397" lon="2.95798">
        <ele>634.8</ele>
        <time>2021-08-16T07:57:54Z</time>
      </trkpt>
      <trkpt lat="44.164" lon="2.95797">
        <ele>635.3</ele>
        <time>2021-08-16T07:57:56Z</time>
      </trkpt>
      <trkpt lat="44.16405" lon="2.95798">
        <ele>635.5</ele>
        <time>2021-08-16T07:57:58Z</time>
      </trkpt>
      <trkpt lat="44.16409" lon="2.95798">
        <ele>635.9</ele>
        <time>2021-08-16T07:58:00Z</time>
      </trkpt>
      <trkpt lat="44.16414" lon="2.95797">
        <ele>636.4</ele>
        <time>2021-08-16T07:58:02Z</time>
      </trkpt>
      <trkpt lat="44.16417" lon="2.95797">
        <ele>636.7</ele>
        <time>2021-08-16T07:58:04Z</time>
      </trkpt>
      <trkpt lat="44.16419" lon="2.95797">
        <ele>636.7</ele>
        <time>2021-08-16T07:58:06Z</time>
      </trkpt>
      <trkpt lat="44.16422" lon="2.95799">
        <ele>636.2</ele>
        <time>2021-08-16T07:58:08Z</time>
      </trkpt>
      <trkpt lat="44.16425" lon="2.958">
        <ele>635.9</ele>
        <time>2021-08-16T07:58:10Z</time>
      </trkpt>
      <trkpt lat="44.16428" lon="2.95802">
        <ele>635.6</ele>
        <time>2021-08-16T07:58:12Z</time>
      </trkpt>
      <trkpt lat="44.16433" lon="2.958">
        <ele>635.7</ele>
        <time>2021-08-16T07:58:14Z</time>
      </trkpt>
      <trkpt lat="44.16436" lon="2.95796">
        <ele>636.4</ele>
        <time>2021-08-16T07:58:16Z</time>
      </trkpt>
      <trkpt lat="44.16439" lon="2.95795">
        <ele>636.5</ele>
        <time>2021-08-16T07:58:18Z</time>
      </trkpt>
      <trkpt lat="44.16442" lon="2.95795">
        <ele>636.5</ele>
        <time>2021-08-16T07:58:20Z</time>
      </trkpt>
      <trkpt lat="44.16446" lon="2.95794">
        <ele>636.8</ele>
        <time>2021-08-16T07:58:22Z</time>
      </trkpt>
      <trkpt lat="44.16451" lon="2.95793">
        <ele>636.7</ele>
        <time>2021-08-16T07:58:24Z</time>
      </trkpt>
      <trkpt lat="44.16457" lon="2.95795">
        <ele>636.3</ele>
        <time>2021-08-16T07:58:26Z</time>
      </trkpt>
      <trkpt lat="44.16461" lon="2.95796">
        <ele>636</ele>
        <time>2021-08-16T07:58:28Z</time>
      </trkpt>
      <trkpt lat="44.16466" lon="2.95797">
        <ele>635.7</ele>
        <time>2021-08-16T07:58:30Z</time>
      </trkpt>
      <trkpt lat="44.16471" lon="2.95799">
        <ele>635.2</ele>
        <time>2021-08-16T07:58:32Z</time>
      </trkpt>
      <trkpt lat="44.16477" lon="2.95799">
        <ele>634.9</ele>
        <time>2021-08-16T07:58:34Z</time>
      </trkpt>
      <trkpt lat="44.16482" lon="2.95801">
        <ele>634.3</ele>
        <time>2021-08-16T07:58:36Z</time>
      </trkpt>
      <trkpt lat="44.16487" lon="2.95802">
        <ele>633.9</ele>
        <time>2021-08-16T07:58:38Z</time>
      </trkpt>
      <trkpt lat="44.16491" lon="2.95803">
        <ele>633.5</ele>
        <time>2021-08-16T07:58:40Z</time>
      </trkpt>
      <trkpt lat="44.16496" lon="2.95803">
        <ele>633.5</ele>
        <time>2021-08-16T07:58:42Z</time>
      </trkpt>
      <trkpt lat="44.16501" lon="2.95804">
        <ele>633.1</ele>
        <time>2021-08-16T07:58:44Z</time>
      </trkpt>
      <trkpt lat="44.16509" lon="2.95802">
        <ele>632.7</ele>
        <time>2021-08-16T07:58:46Z</time>
      </trkpt>
      <trkpt lat="44.16515" lon="2.95802">
        <ele>632.1</ele>
        <time>2021-08-16T07:58:48Z</time>
      </trkpt>
      <trkpt lat="44.1652" lon="2.95802">
        <ele>631.6</ele>
        <time>2021-08-16T07:58:50Z</time>
      </trkpt>
      <trkpt lat="44.16525" lon="2.95802">
        <ele>631.2</ele>
        <time>2021-08-16T07:58:52Z</time>
      </trkpt>
      <trkpt lat="44.16528" lon="2.95801">
        <ele>630.9</ele>
        <time>2021-08-16T07:58:54Z</time>
      </trkpt>
      <trkpt lat="44.16533" lon="2.958">
        <ele>630.8</ele>
        <time>2021-08-16T07:58:56Z</time>
      </trkpt>
      <trkpt lat="44.16537" lon="2.958">
        <ele>630.3</ele>
        <time>2021-08-16T07:58:58Z</time>
      </trkpt>
      <trkpt lat="44.16542" lon="2.95798">
        <ele>630.4</ele>
        <time>2021-08-16T07:59:00Z</time>
      </trkpt>
      <trkpt lat="44.16548" lon="2.95798">
        <ele>629.6</ele>
        <time>2021-08-16T07:59:02Z</time>
      </trkpt>
      <trkpt lat="44.16555" lon="2.95797">
        <ele>629.1</ele>
        <time>2021-08-16T07:59:04Z</time>
      </trkpt>
      <trkpt lat="44.16562" lon="2.95795">
        <ele>628.9</ele>
        <time>2021-08-16T07:59:06Z</time>
      </trkpt>
      <trkpt lat="44.16569" lon="2.95794">
        <ele>628.6</ele>
        <time>2021-08-16T07:59:08Z</time>
      </trkpt>
      <trkpt lat="44.16576" lon="2.95793">
        <ele>628</ele>
        <time>2021-08-16T07:59:10Z</time>
      </trkpt>
      <trkpt lat="44.16581" lon="2.95791">
        <ele>627.8</ele>
        <time>2021-08-16T07:59:12Z</time>
      </trkpt>
      <trkpt lat="44.16589" lon="2.95791">
        <ele>627.2</ele>
        <time>2021-08-16T07:59:14Z</time>
      </trkpt>
      <trkpt lat="44.16595" lon="2.95789">
        <ele>627.1</ele>
        <time>2021-08-16T07:59:16Z</time>
      </trkpt>
      <trkpt lat="44.16601" lon="2.95789">
        <ele>626.7</ele>
        <time>2021-08-16T07:59:18Z</time>
      </trkpt>
      <trkpt lat="44.16607" lon="2.95787">
        <ele>626.5</ele>
        <time>2021-08-16T07:59:20Z</time>
      </trkpt>
      <trkpt lat="44.16613" lon="2.95787">
        <ele>626</ele>
        <time>2021-08-16T07:59:22Z</time>
      </trkpt>
      <trkpt lat="44.16619" lon="2.95786">
        <ele>625.6</ele>
        <time>2021-08-16T07:59:24Z</time>
      </trkpt>
      <trkpt lat="44.16625" lon="2.95786">
        <ele>625.1</ele>
        <time>2021-08-16T07:59:26Z</time>
      </trkpt>
      <trkpt lat="44.1663" lon="2.95785">
        <ele>624.7</ele>
        <time>2021-08-16T07:59:28Z</time>
      </trkpt>
      <trkpt lat="44.16634" lon="2.95784">
        <ele>624.6</ele>
        <time>2021-08-16T07:59:30Z</time>
      </trkpt>
      <trkpt lat="44.1664" lon="2.95782">
        <ele>624.2</ele>
        <time>2021-08-16T07:59:32Z</time>
      </trkpt>
      <trkpt lat="44.16646" lon="2.95782">
        <ele>623.7</ele>
        <time>2021-08-16T07:59:34Z</time>
      </trkpt>
      <trkpt lat="44.1665" lon="2.95782">
        <ele>623.3</ele>
        <time>2021-08-16T07:59:36Z</time>
      </trkpt>
      <trkpt lat="44.16654" lon="2.95782">
        <ele>622.8</ele>
        <time>2021-08-16T07:59:38Z</time>
      </trkpt>
      <trkpt lat="44.1666" lon="2.95785">
        <ele>622.1</ele>
        <time>2021-08-16T07:59:40Z</time>
      </trkpt>
      <trkpt lat="44.16666" lon="2.95788">
        <ele>621.3</ele>
        <time>2021-08-16T07:59:42Z</time>
      </trkpt>
      <trkpt lat="44.1667" lon="2.95792">
        <ele>621.2</ele>
        <time>2021-08-16T07:59:44Z</time>
      </trkpt>
      <trkpt lat="44.16674" lon="2.95797">
        <ele>621.1</ele>
        <time>2021-08-16T07:59:46Z</time>
      </trkpt>
      <trkpt lat="44.16677" lon="2.95802">
        <ele>621</ele>
        <time>2021-08-16T07:59:48Z</time>
      </trkpt>
      <trkpt lat="44.16681" lon="2.95807">
        <ele>620.8</ele>
        <time>2021-08-16T07:59:50Z</time>
      </trkpt>
      <trkpt lat="44.16685" lon="2.95815">
        <ele>620.6</ele>
        <time>2021-08-16T07:59:52Z</time>
      </trkpt>
      <trkpt lat="44.16689" lon="2.95821">
        <ele>620.4</ele>
        <time>2021-08-16T07:59:54Z</time>
      </trkpt>
      <trkpt lat="44.16693" lon="2.95828">
        <ele>620.3</ele>
        <time>2021-08-16T07:59:56Z</time>
      </trkpt>
      <trkpt lat="44.16697" lon="2.95833">
        <ele>620.2</ele>
        <time>2021-08-16T07:59:58Z</time>
      </trkpt>
      <trkpt lat="44.16695" lon="2.95838">
        <ele>619.4</ele>
        <time>2021-08-16T08:00:00Z</time>
      </trkpt>
      <trkpt lat="44.16691" lon="2.95838">
        <ele>619.1</ele>
        <time>2021-08-16T08:00:02Z</time>
      </trkpt>
      <trkpt lat="44.16689" lon="2.95833">
        <ele>619.6</ele>
        <time>2021-08-16T08:00:04Z</time>
      </trkpt>
      <trkpt lat="44.16686" lon="2.95829">
        <ele>619.7</ele>
        <time>2021-08-16T08:00:06Z</time>
      </trkpt>
      <trkpt lat="44.16682" lon="2.95825">
        <ele>619.7</ele>
        <time>2021-08-16T08:00:08Z</time>
      </trkpt>
      <trkpt lat="44.16679" lon="2.95822">
        <ele>619.6</ele>
        <time>2021-08-16T08:00:10Z</time>
      </trkpt>
      <trkpt lat="44.16675" lon="2.95819">
        <ele>619.6</ele>
        <time>2021-08-16T08:00:12Z</time>
      </trkpt>
      <trkpt lat="44.16671" lon="2.95818">
        <ele>619.3</ele>
        <time>2021-08-16T08:00:14Z</time>
      </trkpt>
      <trkpt lat="44.16667" lon="2.95817">
        <ele>619.2</ele>
        <time>2021-08-16T08:00:16Z</time>
      </trkpt>
      <trkpt lat="44.16662" lon="2.95817">
        <ele>619.3</ele>
        <time>2021-08-16T08:00:18Z</time>
      </trkpt>
      <trkpt lat="44.16658" lon="2.95817">
        <ele>619.4</ele>
        <time>2021-08-16T08:00:20Z</time>
      </trkpt>
      <trkpt lat="44.16654" lon="2.95817">
        <ele>619.5</ele>
        <time>2021-08-16T08:00:22Z</time>
      </trkpt>
      <trkpt lat="44.1665" lon="2.95818">
        <ele>619.6</ele>
        <time>2021-08-16T08:00:24Z</time>
      </trkpt>
      <trkpt lat="44.16646" lon="2.95819">
        <ele>619.6</ele>
        <time>2021-08-16T08:00:26Z</time>
      </trkpt>
      <trkpt lat="44.16643" lon="2.95819">
        <ele>619.7</ele>
        <time>2021-08-16T08:00:28Z</time>
      </trkpt>
      <trkpt lat="44.16641" lon="2.95819">
        <ele>619.7</ele>
        <time>2021-08-16T08:00:30Z</time>
      </trkpt>
      <trkpt lat="44.16638" lon="2.95819">
        <ele>619.8</ele>
        <time>2021-08-16T08:00:32Z</time>
      </trkpt>
      <trkpt lat="44.16635" lon="2.95819">
        <ele>619.8</ele>
        <time>2021-08-16T08:00:34Z</time>
      </trkpt>
      <trkpt lat="44.16634" lon="2.95818">
        <ele>620.1</ele>
        <time>2021-08-16T08:00:36Z</time>
      </trkpt>
      <trkpt lat="44.16634" lon="2.95817">
        <ele>620.2</ele>
        <time>2021-08-16T08:00:38Z</time>
      </trkpt>
      <trkpt lat="44.16634" lon="2.95816">
        <ele>620.3</ele>
        <time>2021-08-16T08:00:40Z</time>
      </trkpt>
      <trkpt lat="44.16632" lon="2.95816">
        <ele>620.4</ele>
        <time>2021-08-16T08:00:42Z</time>
      </trkpt>
      <trkpt lat="44.16631" lon="2.95816">
        <ele>620.4</ele>
        <time>2021-08-16T08:00:44Z</time>
      </trkpt>
      <trkpt lat="44.16647" lon="2.95824">
        <ele>619</ele>
        <time>2021-08-16T08:31:40Z</time>
      </trkpt>
      <trkpt lat="44.16647" lon="2.9583">
        <ele>618.4</ele>
        <time>2021-08-16T08:31:42Z</time>
      </trkpt>
      <trkpt lat="44.16649" lon="2.95834">
        <ele>617.9</ele>
        <time>2021-08-16T08:31:44Z</time>
      </trkpt>
      <trkpt lat="44.16655" lon="2.95839">
        <ele>617.1</ele>
        <time>2021-08-16T08:31:46Z</time>
      </trkpt>
      <trkpt lat="44.16661" lon="2.95842">
        <ele>616.8</ele>
        <time>2021-08-16T08:31:48Z</time>
      </trkpt>
      <trkpt lat="44.16666" lon="2.95845">
        <ele>616.5</ele>
        <time>2021-08-16T08:31:50Z</time>
      </trkpt>
      <trkpt lat="44.16671" lon="2.95848">
        <ele>616.5</ele>
        <time>2021-08-16T08:31:52Z</time>
      </trkpt>
      <trkpt lat="44.16676" lon="2.95851">
        <ele>616.4</ele>
        <time>2021-08-16T08:31:54Z</time>
      </trkpt>
      <trkpt lat="44.16681" lon="2.95853">
        <ele>616.4</ele>
        <time>2021-08-16T08:31:56Z</time>
      </trkpt>
      <trkpt lat="44.16685" lon="2.95855">
        <ele>616.5</ele>
        <time>2021-08-16T08:31:58Z</time>
      </trkpt>
      <trkpt lat="44.16688" lon="2.95857">
        <ele>616.5</ele>
        <time>2021-08-16T08:32:00Z</time>
      </trkpt>
      <trkpt lat="44.1669" lon="2.95861">
        <ele>616.2</ele>
        <time>2021-08-16T08:32:02Z</time>
      </trkpt>
      <trkpt lat="44.16689" lon="2.95864">
        <ele>615.8</ele>
        <time>2021-08-16T08:32:04Z</time>
      </trkpt>
      <trkpt lat="44.1669" lon="2.95864">
        <ele>615.8</ele>
        <time>2021-08-16T08:32:06Z</time>
      </trkpt>
      <trkpt lat="44.1669" lon="2.95864">
        <ele>615.8</ele>
        <time>2021-08-16T08:32:08Z</time>
      </trkpt>
      <trkpt lat="44.1669" lon="2.95864">
        <ele>615.8</ele>
        <time>2021-08-16T08:32:10Z</time>
      </trkpt>
      <trkpt lat="44.16691" lon="2.95865">
        <ele>615.8</ele>
        <time>2021-08-16T08:32:12Z</time>
      </trkpt>
      <trkpt lat="44.16706" lon="2.95874">
        <ele>615.9</ele>
        <time>2021-08-16T09:17:58Z</time>
      </trkpt>
      <trkpt lat="44.1671" lon="2.95878">
        <ele>615.8</ele>
        <time>2021-08-16T09:18:00Z</time>
      </trkpt>
      <trkpt lat="44.16713" lon="2.95883">
        <ele>615.4</ele>
        <time>2021-08-16T09:18:02Z</time>
      </trkpt>
      <trkpt lat="44.16715" lon="2.95888">
        <ele>615.1</ele>
        <time>2021-08-16T09:18:04Z</time>
      </trkpt>
      <trkpt lat="44.16718" lon="2.95893">
        <ele>614.8</ele>
        <time>2021-08-16T09:18:06Z</time>
      </trkpt>
      <trkpt lat="44.16721" lon="2.95898">
        <ele>614.3</ele>
        <time>2021-08-16T09:18:08Z</time>
      </trkpt>
      <trkpt lat="44.16724" lon="2.95905">
        <ele>613.8</ele>
        <time>2021-08-16T09:18:10Z</time>
      </trkpt>
      <trkpt lat="44.16728" lon="2.95913">
        <ele>613.3</ele>
        <time>2021-08-16T09:18:12Z</time>
      </trkpt>
      <trkpt lat="44.16732" lon="2.95921">
        <ele>612.9</ele>
        <time>2021-08-16T09:18:14Z</time>
      </trkpt>
      <trkpt lat="44.16737" lon="2.9593">
        <ele>612.4</ele>
        <time>2021-08-16T09:18:16Z</time>
      </trkpt>
      <trkpt lat="44.16743" lon="2.95941">
        <ele>611.9</ele>
        <time>2021-08-16T09:18:18Z</time>
      </trkpt>
      <trkpt lat="44.16746" lon="2.95953">
        <ele>611.1</ele>
        <time>2021-08-16T09:18:20Z</time>
      </trkpt>
      <trkpt lat="44.16752" lon="2.95965">
        <ele>610.3</ele>
        <time>2021-08-16T09:18:22Z</time>
      </trkpt>
      <trkpt lat="44.16759" lon="2.95977">
        <ele>609</ele>
        <time>2021-08-16T09:18:24Z</time>
      </trkpt>
      <trkpt lat="44.16764" lon="2.9599">
        <ele>607.6</ele>
        <time>2021-08-16T09:18:26Z</time>
      </trkpt>
      <trkpt lat="44.1677" lon="2.96005">
        <ele>606.2</ele>
        <time>2021-08-16T09:18:28Z</time>
      </trkpt>
      <trkpt lat="44.16778" lon="2.9602">
        <ele>605.2</ele>
        <time>2021-08-16T09:18:30Z</time>
      </trkpt>
      <trkpt lat="44.16786" lon="2.96034">
        <ele>604.4</ele>
        <time>2021-08-16T09:18:32Z</time>
      </trkpt>
      <trkpt lat="44.16796" lon="2.96047">
        <ele>603.7</ele>
        <time>2021-08-16T09:18:34Z</time>
      </trkpt>
      <trkpt lat="44.16804" lon="2.9606">
        <ele>603.2</ele>
        <time>2021-08-16T09:18:36Z</time>
      </trkpt>
      <trkpt lat="44.16814" lon="2.96071">
        <ele>603</ele>
        <time>2021-08-16T09:18:38Z</time>
      </trkpt>
      <trkpt lat="44.16823" lon="2.96083">
        <ele>602.8</ele>
        <time>2021-08-16T09:18:40Z</time>
      </trkpt>
      <trkpt lat="44.16832" lon="2.96093">
        <ele>603</ele>
        <time>2021-08-16T09:18:42Z</time>
      </trkpt>
      <trkpt lat="44.16841" lon="2.96102">
        <ele>603.6</ele>
        <time>2021-08-16T09:18:44Z</time>
      </trkpt>
      <trkpt lat="44.16851" lon="2.96109">
        <ele>604.3</ele>
        <time>2021-08-16T09:18:46Z</time>
      </trkpt>
      <trkpt lat="44.16861" lon="2.96114">
        <ele>604.8</ele>
        <time>2021-08-16T09:18:48Z</time>
      </trkpt>
      <trkpt lat="44.16872" lon="2.96118">
        <ele>605.4</ele>
        <time>2021-08-16T09:18:50Z</time>
      </trkpt>
      <trkpt lat="44.16884" lon="2.96121">
        <ele>605.9</ele>
        <time>2021-08-16T09:18:52Z</time>
      </trkpt>
      <trkpt lat="44.16895" lon="2.96125">
        <ele>606.3</ele>
        <time>2021-08-16T09:18:54Z</time>
      </trkpt>
      <trkpt lat="44.16904" lon="2.96128">
        <ele>606.6</ele>
        <time>2021-08-16T09:18:56Z</time>
      </trkpt>
      <trkpt lat="44.16915" lon="2.96132">
        <ele>606.8</ele>
        <time>2021-08-16T09:18:58Z</time>
      </trkpt>
      <trkpt lat="44.16925" lon="2.96135">
        <ele>607.7</ele>
        <time>2021-08-16T09:19:00Z</time>
      </trkpt>
      <trkpt lat="44.16935" lon="2.96138">
        <ele>608.6</ele>
        <time>2021-08-16T09:19:02Z</time>
      </trkpt>
      <trkpt lat="44.16946" lon="2.96142">
        <ele>609.6</ele>
        <time>2021-08-16T09:19:04Z</time>
      </trkpt>
      <trkpt lat="44.16956" lon="2.96146">
        <ele>610.3</ele>
        <time>2021-08-16T09:19:06Z</time>
      </trkpt>
      <trkpt lat="44.16965" lon="2.96153">
        <ele>610.5</ele>
        <time>2021-08-16T09:19:08Z</time>
      </trkpt>
      <trkpt lat="44.16974" lon="2.9616">
        <ele>610.5</ele>
        <time>2021-08-16T09:19:10Z</time>
      </trkpt>
      <trkpt lat="44.16982" lon="2.96167">
        <ele>610.3</ele>
        <time>2021-08-16T09:19:12Z</time>
      </trkpt>
      <trkpt lat="44.1699" lon="2.96173">
        <ele>610.5</ele>
        <time>2021-08-16T09:19:14Z</time>
      </trkpt>
      <trkpt lat="44.16998" lon="2.9618">
        <ele>610.5</ele>
        <time>2021-08-16T09:19:16Z</time>
      </trkpt>
      <trkpt lat="44.17005" lon="2.96186">
        <ele>611</ele>
        <time>2021-08-16T09:19:18Z</time>
      </trkpt>
      <trkpt lat="44.17012" lon="2.96193">
        <ele>611.4</ele>
        <time>2021-08-16T09:19:20Z</time>
      </trkpt>
      <trkpt lat="44.17019" lon="2.96199">
        <ele>611.6</ele>
        <time>2021-08-16T09:19:22Z</time>
      </trkpt>
      <trkpt lat="44.17027" lon="2.96205">
        <ele>611.8</ele>
        <time>2021-08-16T09:19:24Z</time>
      </trkpt>
      <trkpt lat="44.17034" lon="2.96211">
        <ele>611.7</ele>
        <time>2021-08-16T09:19:26Z</time>
      </trkpt>
      <trkpt lat="44.17041" lon="2.96217">
        <ele>611.7</ele>
        <time>2021-08-16T09:19:28Z</time>
      </trkpt>
      <trkpt lat="44.17049" lon="2.96222">
        <ele>611.6</ele>
        <time>2021-08-16T09:19:30Z</time>
      </trkpt>
      <trkpt lat="44.17057" lon="2.96227">
        <ele>611.4</ele>
        <time>2021-08-16T09:19:32Z</time>
      </trkpt>
      <trkpt lat="44.17065" lon="2.96231">
        <ele>611.1</ele>
        <time>2021-08-16T09:19:34Z</time>
      </trkpt>
      <trkpt lat="44.17072" lon="2.96236">
        <ele>610.7</ele>
        <time>2021-08-16T09:19:36Z</time>
      </trkpt>
      <trkpt lat="44.1708" lon="2.96241">
        <ele>610.2</ele>
        <time>2021-08-16T09:19:38Z</time>
      </trkpt>
      <trkpt lat="44.17088" lon="2.96244">
        <ele>610.2</ele>
        <time>2021-08-16T09:19:40Z</time>
      </trkpt>
      <trkpt lat="44.17095" lon="2.96248">
        <ele>610.3</ele>
        <time>2021-08-16T09:19:42Z</time>
      </trkpt>
      <trkpt lat="44.17102" lon="2.96253">
        <ele>610.8</ele>
        <time>2021-08-16T09:19:44Z</time>
      </trkpt>
      <trkpt lat="44.17109" lon="2.96257">
        <ele>611.4</ele>
        <time>2021-08-16T09:19:46Z</time>
      </trkpt>
      <trkpt lat="44.17116" lon="2.96262">
        <ele>612</ele>
        <time>2021-08-16T09:19:48Z</time>
      </trkpt>
      <trkpt lat="44.17123" lon="2.96267">
        <ele>612.4</ele>
        <time>2021-08-16T09:19:50Z</time>
      </trkpt>
      <trkpt lat="44.1713" lon="2.96273">
        <ele>612.7</ele>
        <time>2021-08-16T09:19:52Z</time>
      </trkpt>
      <trkpt lat="44.17136" lon="2.9628">
        <ele>612.6</ele>
        <time>2021-08-16T09:19:54Z</time>
      </trkpt>
      <trkpt lat="44.17142" lon="2.96285">
        <ele>612.7</ele>
        <time>2021-08-16T09:19:56Z</time>
      </trkpt>
      <trkpt lat="44.17147" lon="2.96293">
        <ele>612.2</ele>
        <time>2021-08-16T09:19:58Z</time>
      </trkpt>
      <trkpt lat="44.17153" lon="2.963">
        <ele>611.9</ele>
        <time>2021-08-16T09:20:00Z</time>
      </trkpt>
      <trkpt lat="44.17158" lon="2.96307">
        <ele>611.3</ele>
        <time>2021-08-16T09:20:02Z</time>
      </trkpt>
      <trkpt lat="44.17163" lon="2.96315">
        <ele>610.5</ele>
        <time>2021-08-16T09:20:04Z</time>
      </trkpt>
      <trkpt lat="44.17167" lon="2.96324">
        <ele>609.6</ele>
        <time>2021-08-16T09:20:06Z</time>
      </trkpt>
      <trkpt lat="44.17172" lon="2.96333">
        <ele>609.4</ele>
        <time>2021-08-16T09:20:08Z</time>
      </trkpt>
      <trkpt lat="44.17176" lon="2.96342">
        <ele>610.1</ele>
        <time>2021-08-16T09:20:10Z</time>
      </trkpt>
      <trkpt lat="44.17179" lon="2.96351">
        <ele>610.7</ele>
        <time>2021-08-16T09:20:12Z</time>
      </trkpt>
      <trkpt lat="44.17183" lon="2.96361">
        <ele>611.3</ele>
        <time>2021-08-16T09:20:14Z</time>
      </trkpt>
      <trkpt lat="44.17187" lon="2.9637">
        <ele>611.8</ele>
        <time>2021-08-16T09:20:16Z</time>
      </trkpt>
      <trkpt lat="44.17191" lon="2.96378">
        <ele>612.2</ele>
        <time>2021-08-16T09:20:18Z</time>
      </trkpt>
      <trkpt lat="44.17195" lon="2.96387">
        <ele>612.5</ele>
        <time>2021-08-16T09:20:20Z</time>
      </trkpt>
      <trkpt lat="44.17199" lon="2.96396">
        <ele>612.7</ele>
        <time>2021-08-16T09:20:22Z</time>
      </trkpt>
      <trkpt lat="44.17201" lon="2.96405">
        <ele>612.6</ele>
        <time>2021-08-16T09:20:24Z</time>
      </trkpt>
      <trkpt lat="44.17206" lon="2.96413">
        <ele>612.9</ele>
        <time>2021-08-16T09:20:26Z</time>
      </trkpt>
      <trkpt lat="44.17209" lon="2.96421">
        <ele>613</ele>
        <time>2021-08-16T09:20:28Z</time>
      </trkpt>
      <trkpt lat="44.17213" lon="2.96429">
        <ele>613.3</ele>
        <time>2021-08-16T09:20:30Z</time>
      </trkpt>
      <trkpt lat="44.17216" lon="2.96438">
        <ele>613.5</ele>
        <time>2021-08-16T09:20:32Z</time>
      </trkpt>
      <trkpt lat="44.17219" lon="2.96446">
        <ele>613.7</ele>
        <time>2021-08-16T09:20:34Z</time>
      </trkpt>
      <trkpt lat="44.17223" lon="2.96454">
        <ele>613.8</ele>
        <time>2021-08-16T09:20:36Z</time>
      </trkpt>
      <trkpt lat="44.17227" lon="2.96463">
        <ele>613.7</ele>
        <time>2021-08-16T09:20:38Z</time>
      </trkpt>
      <trkpt lat="44.17231" lon="2.96472">
        <ele>613.6</ele>
        <time>2021-08-16T09:20:40Z</time>
      </trkpt>
      <trkpt lat="44.17233" lon="2.96481">
        <ele>613.3</ele>
        <time>2021-08-16T09:20:42Z</time>
      </trkpt>
      <trkpt lat="44.17234" lon="2.96487">
        <ele>613.1</ele>
        <time>2021-08-16T09:20:44Z</time>
      </trkpt>
      <trkpt lat="44.17234" lon="2.9649">
        <ele>613</ele>
        <time>2021-08-16T09:20:46Z</time>
      </trkpt>
      <trkpt lat="44.17235" lon="2.96493">
        <ele>612.8</ele>
        <time>2021-08-16T09:20:48Z</time>
      </trkpt>
      <trkpt lat="44.17236" lon="2.96497">
        <ele>612.7</ele>
        <time>2021-08-16T09:20:50Z</time>
      </trkpt>
      <trkpt lat="44.17241" lon="2.96499">
        <ele>612.7</ele>
        <time>2021-08-16T09:20:52Z</time>
      </trkpt>
      <trkpt lat="44.17246" lon="2.96501">
        <ele>612.8</ele>
        <time>2021-08-16T09:20:54Z</time>
      </trkpt>
      <trkpt lat="44.17252" lon="2.96509">
        <ele>612.9</ele>
        <time>2021-08-16T09:20:56Z</time>
      </trkpt>
      <trkpt lat="44.17257" lon="2.96515">
        <ele>613.8</ele>
        <time>2021-08-16T09:20:58Z</time>
      </trkpt>
      <trkpt lat="44.17264" lon="2.96521">
        <ele>614.6</ele>
        <time>2021-08-16T09:21:00Z</time>
      </trkpt>
      <trkpt lat="44.1727" lon="2.96526">
        <ele>615.5</ele>
        <time>2021-08-16T09:21:02Z</time>
      </trkpt>
      <trkpt lat="44.17277" lon="2.9653">
        <ele>616.4</ele>
        <time>2021-08-16T09:21:04Z</time>
      </trkpt>
      <trkpt lat="44.17284" lon="2.96534">
        <ele>617.2</ele>
        <time>2021-08-16T09:21:06Z</time>
      </trkpt>
      <trkpt lat="44.17291" lon="2.96538">
        <ele>617.8</ele>
        <time>2021-08-16T09:21:08Z</time>
      </trkpt>
      <trkpt lat="44.17299" lon="2.96543">
        <ele>618.4</ele>
        <time>2021-08-16T09:21:10Z</time>
      </trkpt>
      <trkpt lat="44.17305" lon="2.96547">
        <ele>618.9</ele>
        <time>2021-08-16T09:21:12Z</time>
      </trkpt>
      <trkpt lat="44.17313" lon="2.96552">
        <ele>619.3</ele>
        <time>2021-08-16T09:21:14Z</time>
      </trkpt>
      <trkpt lat="44.1732" lon="2.96555">
        <ele>619.7</ele>
        <time>2021-08-16T09:21:16Z</time>
      </trkpt>
      <trkpt lat="44.17328" lon="2.9656">
        <ele>619.8</ele>
        <time>2021-08-16T09:21:18Z</time>
      </trkpt>
      <trkpt lat="44.17335" lon="2.96564">
        <ele>620</ele>
        <time>2021-08-16T09:21:20Z</time>
      </trkpt>
      <trkpt lat="44.17342" lon="2.96569">
        <ele>620.4</ele>
        <time>2021-08-16T09:21:22Z</time>
      </trkpt>
      <trkpt lat="44.17349" lon="2.96572">
        <ele>621</ele>
        <time>2021-08-16T09:21:24Z</time>
      </trkpt>
      <trkpt lat="44.17355" lon="2.96577">
        <ele>621.2</ele>
        <time>2021-08-16T09:21:26Z</time>
      </trkpt>
      <trkpt lat="44.17363" lon="2.96581">
        <ele>621.6</ele>
        <time>2021-08-16T09:21:28Z</time>
      </trkpt>
      <trkpt lat="44.1737" lon="2.96584">
        <ele>622</ele>
        <time>2021-08-16T09:21:30Z</time>
      </trkpt>
      <trkpt lat="44.17378" lon="2.9659">
        <ele>622.5</ele>
        <time>2021-08-16T09:21:32Z</time>
      </trkpt>
      <trkpt lat="44.17384" lon="2.96593">
        <ele>623.1</ele>
        <time>2021-08-16T09:21:34Z</time>
      </trkpt>
      <trkpt lat="44.17391" lon="2.96598">
        <ele>623.3</ele>
        <time>2021-08-16T09:21:36Z</time>
      </trkpt>
      <trkpt lat="44.17398" lon="2.96603">
        <ele>623.2</ele>
        <time>2021-08-16T09:21:38Z</time>
      </trkpt>
      <trkpt lat="44.17403" lon="2.9661">
        <ele>622.6</ele>
        <time>2021-08-16T09:21:40Z</time>
      </trkpt>
      <trkpt lat="44.1741" lon="2.96617">
        <ele>622.1</ele>
        <time>2021-08-16T09:21:42Z</time>
      </trkpt>
      <trkpt lat="44.17415" lon="2.96624">
        <ele>621</ele>
        <time>2021-08-16T09:21:44Z</time>
      </trkpt>
      <trkpt lat="44.1742" lon="2.96632">
        <ele>620.2</ele>
        <time>2021-08-16T09:21:46Z</time>
      </trkpt>
      <trkpt lat="44.17424" lon="2.9664">
        <ele>619.4</ele>
        <time>2021-08-16T09:21:48Z</time>
      </trkpt>
      <trkpt lat="44.17428" lon="2.96649">
        <ele>618.2</ele>
        <time>2021-08-16T09:21:50Z</time>
      </trkpt>
      <trkpt lat="44.17432" lon="2.96656">
        <ele>617.2</ele>
        <time>2021-08-16T09:21:52Z</time>
      </trkpt>
      <trkpt lat="44.17436" lon="2.96664">
        <ele>616.1</ele>
        <time>2021-08-16T09:21:54Z</time>
      </trkpt>
      <trkpt lat="44.17439" lon="2.96672">
        <ele>615.9</ele>
        <time>2021-08-16T09:21:56Z</time>
      </trkpt>
      <trkpt lat="44.17443" lon="2.96681">
        <ele>616.4</ele>
        <time>2021-08-16T09:21:58Z</time>
      </trkpt>
      <trkpt lat="44.17446" lon="2.96688">
        <ele>616.7</ele>
        <time>2021-08-16T09:22:00Z</time>
      </trkpt>
      <trkpt lat="44.1745" lon="2.96695">
        <ele>616.9</ele>
        <time>2021-08-16T09:22:02Z</time>
      </trkpt>
      <trkpt lat="44.17453" lon="2.96703">
        <ele>617</ele>
        <time>2021-08-16T09:22:04Z</time>
      </trkpt>
      <trkpt lat="44.17458" lon="2.96711">
        <ele>617.1</ele>
        <time>2021-08-16T09:22:06Z</time>
      </trkpt>
      <trkpt lat="44.17462" lon="2.9672">
        <ele>616.8</ele>
        <time>2021-08-16T09:22:08Z</time>
      </trkpt>
      <trkpt lat="44.17466" lon="2.96729">
        <ele>616.5</ele>
        <time>2021-08-16T09:22:10Z</time>
      </trkpt>
      <trkpt lat="44.17472" lon="2.96737">
        <ele>616.1</ele>
        <time>2021-08-16T09:22:12Z</time>
      </trkpt>
      <trkpt lat="44.17477" lon="2.96745">
        <ele>615.4</ele>
        <time>2021-08-16T09:22:14Z</time>
      </trkpt>
      <trkpt lat="44.17481" lon="2.96754">
        <ele>615</ele>
        <time>2021-08-16T09:22:16Z</time>
      </trkpt>
      <trkpt lat="44.17486" lon="2.96763">
        <ele>615</ele>
        <time>2021-08-16T09:22:18Z</time>
      </trkpt>
      <trkpt lat="44.17492" lon="2.96771">
        <ele>614.8</ele>
        <time>2021-08-16T09:22:20Z</time>
      </trkpt>
      <trkpt lat="44.17496" lon="2.96781">
        <ele>614.5</ele>
        <time>2021-08-16T09:22:22Z</time>
      </trkpt>
      <trkpt lat="44.175" lon="2.96791">
        <ele>614.1</ele>
        <time>2021-08-16T09:22:24Z</time>
      </trkpt>
      <trkpt lat="44.17504" lon="2.968">
        <ele>614.7</ele>
        <time>2021-08-16T09:22:26Z</time>
      </trkpt>
      <trkpt lat="44.17506" lon="2.96809">
        <ele>615.1</ele>
        <time>2021-08-16T09:22:28Z</time>
      </trkpt>
      <trkpt lat="44.17509" lon="2.96818">
        <ele>615.3</ele>
        <time>2021-08-16T09:22:30Z</time>
      </trkpt>
      <trkpt lat="44.17511" lon="2.96828">
        <ele>615.3</ele>
        <time>2021-08-16T09:22:32Z</time>
      </trkpt>
      <trkpt lat="44.17513" lon="2.96837">
        <ele>615.7</ele>
        <time>2021-08-16T09:22:34Z</time>
      </trkpt>
      <trkpt lat="44.17514" lon="2.96847">
        <ele>615.8</ele>
        <time>2021-08-16T09:22:36Z</time>
      </trkpt>
      <trkpt lat="44.17516" lon="2.96857">
        <ele>616.2</ele>
        <time>2021-08-16T09:22:38Z</time>
      </trkpt>
      <trkpt lat="44.17519" lon="2.96866">
        <ele>616.5</ele>
        <time>2021-08-16T09:22:40Z</time>
      </trkpt>
      <trkpt lat="44.1752" lon="2.96876">
        <ele>616.8</ele>
        <time>2021-08-16T09:22:42Z</time>
      </trkpt>
      <trkpt lat="44.17523" lon="2.96885">
        <ele>617.1</ele>
        <time>2021-08-16T09:22:44Z</time>
      </trkpt>
      <trkpt lat="44.17525" lon="2.96894">
        <ele>617.4</ele>
        <time>2021-08-16T09:22:46Z</time>
      </trkpt>
      <trkpt lat="44.17527" lon="2.96903">
        <ele>617.7</ele>
        <time>2021-08-16T09:22:48Z</time>
      </trkpt>
      <trkpt lat="44.17529" lon="2.96911">
        <ele>617.9</ele>
        <time>2021-08-16T09:22:50Z</time>
      </trkpt>
      <trkpt lat="44.17531" lon="2.96918">
        <ele>618.2</ele>
        <time>2021-08-16T09:22:52Z</time>
      </trkpt>
      <trkpt lat="44.17533" lon="2.96927">
        <ele>618.6</ele>
        <time>2021-08-16T09:22:54Z</time>
      </trkpt>
      <trkpt lat="44.17536" lon="2.96935">
        <ele>619.2</ele>
        <time>2021-08-16T09:22:56Z</time>
      </trkpt>
      <trkpt lat="44.17538" lon="2.96943">
        <ele>619.7</ele>
        <time>2021-08-16T09:22:58Z</time>
      </trkpt>
      <trkpt lat="44.17541" lon="2.96951">
        <ele>620.3</ele>
        <time>2021-08-16T09:23:00Z</time>
      </trkpt>
      <trkpt lat="44.17543" lon="2.96959">
        <ele>620.9</ele>
        <time>2021-08-16T09:23:02Z</time>
      </trkpt>
      <trkpt lat="44.17546" lon="2.96967">
        <ele>621.4</ele>
        <time>2021-08-16T09:23:04Z</time>
      </trkpt>
      <trkpt lat="44.17549" lon="2.96976">
        <ele>622.1</ele>
        <time>2021-08-16T09:23:06Z</time>
      </trkpt>
      <trkpt lat="44.1755" lon="2.96986">
        <ele>622.6</ele>
        <time>2021-08-16T09:23:08Z</time>
      </trkpt>
      <trkpt lat="44.17551" lon="2.96995">
        <ele>623</ele>
        <time>2021-08-16T09:23:10Z</time>
      </trkpt>
      <trkpt lat="44.17551" lon="2.97004">
        <ele>623.2</ele>
        <time>2021-08-16T09:23:12Z</time>
      </trkpt>
      <trkpt lat="44.17551" lon="2.97013">
        <ele>623.3</ele>
        <time>2021-08-16T09:23:14Z</time>
      </trkpt>
      <trkpt lat="44.17549" lon="2.97022">
        <ele>623.2</ele>
        <time>2021-08-16T09:23:16Z</time>
      </trkpt>
      <trkpt lat="44.17547" lon="2.9703">
        <ele>623</ele>
        <time>2021-08-16T09:23:18Z</time>
      </trkpt>
      <trkpt lat="44.17545" lon="2.97039">
        <ele>622.7</ele>
        <time>2021-08-16T09:23:20Z</time>
      </trkpt>
      <trkpt lat="44.17542" lon="2.97047">
        <ele>622.3</ele>
        <time>2021-08-16T09:23:22Z</time>
      </trkpt>
      <trkpt lat="44.1754" lon="2.97055">
        <ele>621.9</ele>
        <time>2021-08-16T09:23:24Z</time>
      </trkpt>
      <trkpt lat="44.17538" lon="2.97064">
        <ele>621.6</ele>
        <time>2021-08-16T09:23:26Z</time>
      </trkpt>
      <trkpt lat="44.17536" lon="2.97073">
        <ele>621.4</ele>
        <time>2021-08-16T09:23:28Z</time>
      </trkpt>
      <trkpt lat="44.17535" lon="2.97083">
        <ele>621.4</ele>
        <time>2021-08-16T09:23:30Z</time>
      </trkpt>
      <trkpt lat="44.17534" lon="2.97094">
        <ele>621.7</ele>
        <time>2021-08-16T09:23:32Z</time>
      </trkpt>
      <trkpt lat="44.17534" lon="2.97105">
        <ele>622.1</ele>
        <time>2021-08-16T09:23:34Z</time>
      </trkpt>
      <trkpt lat="44.17533" lon="2.97116">
        <ele>622.5</ele>
        <time>2021-08-16T09:23:36Z</time>
      </trkpt>
      <trkpt lat="44.17533" lon="2.97128">
        <ele>622.9</ele>
        <time>2021-08-16T09:23:38Z</time>
      </trkpt>
      <trkpt lat="44.17532" lon="2.9714">
        <ele>623.2</ele>
        <time>2021-08-16T09:23:40Z</time>
      </trkpt>
      <trkpt lat="44.17532" lon="2.97152">
        <ele>623.6</ele>
        <time>2021-08-16T09:23:42Z</time>
      </trkpt>
      <trkpt lat="44.17531" lon="2.97164">
        <ele>623.9</ele>
        <time>2021-08-16T09:23:44Z</time>
      </trkpt>
      <trkpt lat="44.1753" lon="2.97176">
        <ele>624.1</ele>
        <time>2021-08-16T09:23:46Z</time>
      </trkpt>
      <trkpt lat="44.17529" lon="2.97188">
        <ele>624.2</ele>
        <time>2021-08-16T09:23:48Z</time>
      </trkpt>
      <trkpt lat="44.17527" lon="2.972">
        <ele>624.1</ele>
        <time>2021-08-16T09:23:50Z</time>
      </trkpt>
      <trkpt lat="44.17525" lon="2.97211">
        <ele>623.8</ele>
        <time>2021-08-16T09:23:52Z</time>
      </trkpt>
      <trkpt lat="44.17523" lon="2.97223">
        <ele>623.3</ele>
        <time>2021-08-16T09:23:54Z</time>
      </trkpt>
      <trkpt lat="44.17521" lon="2.97234">
        <ele>623</ele>
        <time>2021-08-16T09:23:56Z</time>
      </trkpt>
      <trkpt lat="44.17518" lon="2.97245">
        <ele>622.4</ele>
        <time>2021-08-16T09:23:58Z</time>
      </trkpt>
      <trkpt lat="44.17516" lon="2.97256">
        <ele>621.9</ele>
        <time>2021-08-16T09:24:00Z</time>
      </trkpt>
      <trkpt lat="44.17514" lon="2.97267">
        <ele>621.6</ele>
        <time>2021-08-16T09:24:02Z</time>
      </trkpt>
      <trkpt lat="44.17513" lon="2.97278">
        <ele>621.3</ele>
        <time>2021-08-16T09:24:04Z</time>
      </trkpt>
      <trkpt lat="44.17511" lon="2.97289">
        <ele>621</ele>
        <time>2021-08-16T09:24:06Z</time>
      </trkpt>
      <trkpt lat="44.1751" lon="2.97301">
        <ele>621</ele>
        <time>2021-08-16T09:24:08Z</time>
      </trkpt>
      <trkpt lat="44.1751" lon="2.97312">
        <ele>621</ele>
        <time>2021-08-16T09:24:10Z</time>
      </trkpt>
      <trkpt lat="44.17509" lon="2.97324">
        <ele>620.9</ele>
        <time>2021-08-16T09:24:12Z</time>
      </trkpt>
      <trkpt lat="44.17508" lon="2.97335">
        <ele>621</ele>
        <time>2021-08-16T09:24:14Z</time>
      </trkpt>
      <trkpt lat="44.17507" lon="2.97346">
        <ele>620.7</ele>
        <time>2021-08-16T09:24:16Z</time>
      </trkpt>
      <trkpt lat="44.17507" lon="2.97357">
        <ele>620.5</ele>
        <time>2021-08-16T09:24:18Z</time>
      </trkpt>
      <trkpt lat="44.17506" lon="2.97368">
        <ele>620.3</ele>
        <time>2021-08-16T09:24:20Z</time>
      </trkpt>
      <trkpt lat="44.17506" lon="2.9738">
        <ele>620.2</ele>
        <time>2021-08-16T09:24:22Z</time>
      </trkpt>
      <trkpt lat="44.17505" lon="2.97391">
        <ele>620.1</ele>
        <time>2021-08-16T09:24:24Z</time>
      </trkpt>
      <trkpt lat="44.17505" lon="2.97402">
        <ele>620.1</ele>
        <time>2021-08-16T09:24:26Z</time>
      </trkpt>
      <trkpt lat="44.17506" lon="2.97413">
        <ele>620.4</ele>
        <time>2021-08-16T09:24:28Z</time>
      </trkpt>
      <trkpt lat="44.17508" lon="2.97424">
        <ele>620.5</ele>
        <time>2021-08-16T09:24:30Z</time>
      </trkpt>
      <trkpt lat="44.17508" lon="2.97436">
        <ele>620.1</ele>
        <time>2021-08-16T09:24:32Z</time>
      </trkpt>
      <trkpt lat="44.1751" lon="2.97447">
        <ele>619.8</ele>
        <time>2021-08-16T09:24:34Z</time>
      </trkpt>
      <trkpt lat="44.17511" lon="2.97458">
        <ele>619.5</ele>
        <time>2021-08-16T09:24:36Z</time>
      </trkpt>
      <trkpt lat="44.17512" lon="2.97468">
        <ele>619.1</ele>
        <time>2021-08-16T09:24:38Z</time>
      </trkpt>
      <trkpt lat="44.17513" lon="2.97479">
        <ele>618.6</ele>
        <time>2021-08-16T09:24:40Z</time>
      </trkpt>
      <trkpt lat="44.17515" lon="2.97489">
        <ele>618.2</ele>
        <time>2021-08-16T09:24:42Z</time>
      </trkpt>
      <trkpt lat="44.17516" lon="2.975">
        <ele>617.7</ele>
        <time>2021-08-16T09:24:44Z</time>
      </trkpt>
      <trkpt lat="44.17517" lon="2.97508">
        <ele>617.6</ele>
        <time>2021-08-16T09:24:46Z</time>
      </trkpt>
      <trkpt lat="44.17519" lon="2.97517">
        <ele>617.4</ele>
        <time>2021-08-16T09:24:48Z</time>
      </trkpt>
      <trkpt lat="44.1752" lon="2.97524">
        <ele>617.2</ele>
        <time>2021-08-16T09:24:50Z</time>
      </trkpt>
      <trkpt lat="44.1752" lon="2.97532">
        <ele>616.9</ele>
        <time>2021-08-16T09:24:52Z</time>
      </trkpt>
      <trkpt lat="44.1752" lon="2.9754">
        <ele>616.6</ele>
        <time>2021-08-16T09:24:54Z</time>
      </trkpt>
      <trkpt lat="44.17518" lon="2.97548">
        <ele>616.2</ele>
        <time>2021-08-16T09:24:56Z</time>
      </trkpt>
      <trkpt lat="44.17517" lon="2.97556">
        <ele>615.8</ele>
        <time>2021-08-16T09:24:58Z</time>
      </trkpt>
      <trkpt lat="44.17514" lon="2.97563">
        <ele>615.4</ele>
        <time>2021-08-16T09:25:00Z</time>
      </trkpt>
      <trkpt lat="44.17511" lon="2.9757">
        <ele>615</ele>
        <time>2021-08-16T09:25:02Z</time>
      </trkpt>
      <trkpt lat="44.17508" lon="2.97575">
        <ele>614.6</ele>
        <time>2021-08-16T09:25:04Z</time>
      </trkpt>
      <trkpt lat="44.17504" lon="2.97579">
        <ele>614.3</ele>
        <time>2021-08-16T09:25:06Z</time>
      </trkpt>
      <trkpt lat="44.17499" lon="2.97582">
        <ele>614.1</ele>
        <time>2021-08-16T09:25:08Z</time>
      </trkpt>
      <trkpt lat="44.17495" lon="2.97587">
        <ele>614.4</ele>
        <time>2021-08-16T09:25:10Z</time>
      </trkpt>
      <trkpt lat="44.17491" lon="2.97593">
        <ele>615.1</ele>
        <time>2021-08-16T09:25:12Z</time>
      </trkpt>
      <trkpt lat="44.17489" lon="2.97602">
        <ele>615.8</ele>
        <time>2021-08-16T09:25:14Z</time>
      </trkpt>
      <trkpt lat="44.17489" lon="2.97613">
        <ele>616.6</ele>
        <time>2021-08-16T09:25:16Z</time>
      </trkpt>
      <trkpt lat="44.17491" lon="2.97625">
        <ele>617.2</ele>
        <time>2021-08-16T09:25:18Z</time>
      </trkpt>
      <trkpt lat="44.17493" lon="2.97637">
        <ele>617.8</ele>
        <time>2021-08-16T09:25:20Z</time>
      </trkpt>
      <trkpt lat="44.17496" lon="2.97649">
        <ele>618.4</ele>
        <time>2021-08-16T09:25:22Z</time>
      </trkpt>
      <trkpt lat="44.17498" lon="2.9766">
        <ele>618.8</ele>
        <time>2021-08-16T09:25:24Z</time>
      </trkpt>
      <trkpt lat="44.17501" lon="2.97671">
        <ele>619.6</ele>
        <time>2021-08-16T09:25:26Z</time>
      </trkpt>
      <trkpt lat="44.17503" lon="2.97681">
        <ele>621</ele>
        <time>2021-08-16T09:25:28Z</time>
      </trkpt>
      <trkpt lat="44.17506" lon="2.9769">
        <ele>622.3</ele>
        <time>2021-08-16T09:25:30Z</time>
      </trkpt>
      <trkpt lat="44.17508" lon="2.97701">
        <ele>623.5</ele>
        <time>2021-08-16T09:25:32Z</time>
      </trkpt>
      <trkpt lat="44.17509" lon="2.97711">
        <ele>624.8</ele>
        <time>2021-08-16T09:25:34Z</time>
      </trkpt>
      <trkpt lat="44.17511" lon="2.97721">
        <ele>625.9</ele>
        <time>2021-08-16T09:25:36Z</time>
      </trkpt>
      <trkpt lat="44.17513" lon="2.97731">
        <ele>627</ele>
        <time>2021-08-16T09:25:38Z</time>
      </trkpt>
      <trkpt lat="44.17514" lon="2.97741">
        <ele>627.9</ele>
        <time>2021-08-16T09:25:40Z</time>
      </trkpt>
      <trkpt lat="44.17514" lon="2.9775">
        <ele>629.2</ele>
        <time>2021-08-16T09:25:42Z</time>
      </trkpt>
      <trkpt lat="44.17516" lon="2.97759">
        <ele>630.1</ele>
        <time>2021-08-16T09:25:44Z</time>
      </trkpt>
      <trkpt lat="44.17518" lon="2.97769">
        <ele>630.8</ele>
        <time>2021-08-16T09:25:46Z</time>
      </trkpt>
      <trkpt lat="44.17519" lon="2.97777">
        <ele>631.6</ele>
        <time>2021-08-16T09:25:48Z</time>
      </trkpt>
      <trkpt lat="44.17522" lon="2.97785">
        <ele>632.1</ele>
        <time>2021-08-16T09:25:50Z</time>
      </trkpt>
      <trkpt lat="44.17523" lon="2.97793">
        <ele>632.7</ele>
        <time>2021-08-16T09:25:52Z</time>
      </trkpt>
      <trkpt lat="44.17524" lon="2.978">
        <ele>633.3</ele>
        <time>2021-08-16T09:25:54Z</time>
      </trkpt>
      <trkpt lat="44.17526" lon="2.97807">
        <ele>633.6</ele>
        <time>2021-08-16T09:25:56Z</time>
      </trkpt>
      <trkpt lat="44.17527" lon="2.97814">
        <ele>634</ele>
        <time>2021-08-16T09:25:58Z</time>
      </trkpt>
      <trkpt lat="44.17528" lon="2.9782">
        <ele>634.4</ele>
        <time>2021-08-16T09:26:00Z</time>
      </trkpt>
      <trkpt lat="44.17529" lon="2.97827">
        <ele>634.6</ele>
        <time>2021-08-16T09:26:02Z</time>
      </trkpt>
      <trkpt lat="44.17531" lon="2.97833">
        <ele>634.8</ele>
        <time>2021-08-16T09:26:04Z</time>
      </trkpt>
      <trkpt lat="44.17532" lon="2.97838">
        <ele>635</ele>
        <time>2021-08-16T09:26:06Z</time>
      </trkpt>
      <trkpt lat="44.17533" lon="2.97844">
        <ele>635</ele>
        <time>2021-08-16T09:26:08Z</time>
      </trkpt>
      <trkpt lat="44.17533" lon="2.9785">
        <ele>635.3</ele>
        <time>2021-08-16T09:26:10Z</time>
      </trkpt>
      <trkpt lat="44.17534" lon="2.97856">
        <ele>635.3</ele>
        <time>2021-08-16T09:26:12Z</time>
      </trkpt>
      <trkpt lat="44.17535" lon="2.97862">
        <ele>635.3</ele>
        <time>2021-08-16T09:26:14Z</time>
      </trkpt>
      <trkpt lat="44.17536" lon="2.97868">
        <ele>635.4</ele>
        <time>2021-08-16T09:26:16Z</time>
      </trkpt>
      <trkpt lat="44.17537" lon="2.97874">
        <ele>635.4</ele>
        <time>2021-08-16T09:26:18Z</time>
      </trkpt>
      <trkpt lat="44.17537" lon="2.97879">
        <ele>635.6</ele>
        <time>2021-08-16T09:26:20Z</time>
      </trkpt>
      <trkpt lat="44.17537" lon="2.97885">
        <ele>635.9</ele>
        <time>2021-08-16T09:26:22Z</time>
      </trkpt>
      <trkpt lat="44.17537" lon="2.9789">
        <ele>636.3</ele>
        <time>2021-08-16T09:26:24Z</time>
      </trkpt>
      <trkpt lat="44.17538" lon="2.97896">
        <ele>636.4</ele>
        <time>2021-08-16T09:26:26Z</time>
      </trkpt>
      <trkpt lat="44.17537" lon="2.97901">
        <ele>636.9</ele>
        <time>2021-08-16T09:26:28Z</time>
      </trkpt>
      <trkpt lat="44.17538" lon="2.97907">
        <ele>636.9</ele>
        <time>2021-08-16T09:26:30Z</time>
      </trkpt>
      <trkpt lat="44.17538" lon="2.97912">
        <ele>637.3</ele>
        <time>2021-08-16T09:26:32Z</time>
      </trkpt>
      <trkpt lat="44.17538" lon="2.97917">
        <ele>637.7</ele>
        <time>2021-08-16T09:26:34Z</time>
      </trkpt>
      <trkpt lat="44.17538" lon="2.97923">
        <ele>637.9</ele>
        <time>2021-08-16T09:26:36Z</time>
      </trkpt>
      <trkpt lat="44.17538" lon="2.97928">
        <ele>638.1</ele>
        <time>2021-08-16T09:26:38Z</time>
      </trkpt>
      <trkpt lat="44.17538" lon="2.97933">
        <ele>638.3</ele>
        <time>2021-08-16T09:26:40Z</time>
      </trkpt>
      <trkpt lat="44.17538" lon="2.97938">
        <ele>638.2</ele>
        <time>2021-08-16T09:26:42Z</time>
      </trkpt>
      <trkpt lat="44.17538" lon="2.97943">
        <ele>638.5</ele>
        <time>2021-08-16T09:26:44Z</time>
      </trkpt>
      <trkpt lat="44.17538" lon="2.97949">
        <ele>638.4</ele>
        <time>2021-08-16T09:26:46Z</time>
      </trkpt>
      <trkpt lat="44.17538" lon="2.97954">
        <ele>638.7</ele>
        <time>2021-08-16T09:26:48Z</time>
      </trkpt>
      <trkpt lat="44.17537" lon="2.97959">
        <ele>639.1</ele>
        <time>2021-08-16T09:26:50Z</time>
      </trkpt>
      <trkpt lat="44.17538" lon="2.97965">
        <ele>639.1</ele>
        <time>2021-08-16T09:26:52Z</time>
      </trkpt>
      <trkpt lat="44.17537" lon="2.9797">
        <ele>639.4</ele>
        <time>2021-08-16T09:26:54Z</time>
      </trkpt>
      <trkpt lat="44.17537" lon="2.97975">
        <ele>639.8</ele>
        <time>2021-08-16T09:26:56Z</time>
      </trkpt>
      <trkpt lat="44.17536" lon="2.9798">
        <ele>640.1</ele>
        <time>2021-08-16T09:26:58Z</time>
      </trkpt>
      <trkpt lat="44.17536" lon="2.97986">
        <ele>640.5</ele>
        <time>2021-08-16T09:27:00Z</time>
      </trkpt>
      <trkpt lat="44.17536" lon="2.97991">
        <ele>640.7</ele>
        <time>2021-08-16T09:27:02Z</time>
      </trkpt>
      <trkpt lat="44.17535" lon="2.97996">
        <ele>641.2</ele>
        <time>2021-08-16T09:27:04Z</time>
      </trkpt>
      <trkpt lat="44.17535" lon="2.98001">
        <ele>641.4</ele>
        <time>2021-08-16T09:27:06Z</time>
      </trkpt>
      <trkpt lat="44.17534" lon="2.98006">
        <ele>641.7</ele>
        <time>2021-08-16T09:27:08Z</time>
      </trkpt>
      <trkpt lat="44.17533" lon="2.98011">
        <ele>641.9</ele>
        <time>2021-08-16T09:27:10Z</time>
      </trkpt>
      <trkpt lat="44.17533" lon="2.98016">
        <ele>642.2</ele>
        <time>2021-08-16T09:27:12Z</time>
      </trkpt>
      <trkpt lat="44.17532" lon="2.98022">
        <ele>642.5</ele>
        <time>2021-08-16T09:27:14Z</time>
      </trkpt>
      <trkpt lat="44.17532" lon="2.98027">
        <ele>642.8</ele>
        <time>2021-08-16T09:27:16Z</time>
      </trkpt>
      <trkpt lat="44.17531" lon="2.98032">
        <ele>642.9</ele>
        <time>2021-08-16T09:27:18Z</time>
      </trkpt>
      <trkpt lat="44.17531" lon="2.98038">
        <ele>642.9</ele>
        <time>2021-08-16T09:27:20Z</time>
      </trkpt>
      <trkpt lat="44.1753" lon="2.98042">
        <ele>643.5</ele>
        <time>2021-08-16T09:27:22Z</time>
      </trkpt>
      <trkpt lat="44.17529" lon="2.98048">
        <ele>643.7</ele>
        <time>2021-08-16T09:27:24Z</time>
      </trkpt>
      <trkpt lat="44.1753" lon="2.98053">
        <ele>643.6</ele>
        <time>2021-08-16T09:27:26Z</time>
      </trkpt>
      <trkpt lat="44.17529" lon="2.98058">
        <ele>643.9</ele>
        <time>2021-08-16T09:27:28Z</time>
      </trkpt>
      <trkpt lat="44.17528" lon="2.98063">
        <ele>644.2</ele>
        <time>2021-08-16T09:27:30Z</time>
      </trkpt>
      <trkpt lat="44.17527" lon="2.98067">
        <ele>644.6</ele>
        <time>2021-08-16T09:27:32Z</time>
      </trkpt>
      <trkpt lat="44.17528" lon="2.98073">
        <ele>644.4</ele>
        <time>2021-08-16T09:27:34Z</time>
      </trkpt>
      <trkpt lat="44.17527" lon="2.98077">
        <ele>644.7</ele>
        <time>2021-08-16T09:27:36Z</time>
      </trkpt>
      <trkpt lat="44.17527" lon="2.98082">
        <ele>644.7</ele>
        <time>2021-08-16T09:27:38Z</time>
      </trkpt>
      <trkpt lat="44.17527" lon="2.98087">
        <ele>644.7</ele>
        <time>2021-08-16T09:27:40Z</time>
      </trkpt>
      <trkpt lat="44.17528" lon="2.98092">
        <ele>644.8</ele>
        <time>2021-08-16T09:27:42Z</time>
      </trkpt>
      <trkpt lat="44.17527" lon="2.98097">
        <ele>645.2</ele>
        <time>2021-08-16T09:27:44Z</time>
      </trkpt>
      <trkpt lat="44.17527" lon="2.98102">
        <ele>645.5</ele>
        <time>2021-08-16T09:27:46Z</time>
      </trkpt>
      <trkpt lat="44.17527" lon="2.98107">
        <ele>645.6</ele>
        <time>2021-08-16T09:27:48Z</time>
      </trkpt>
      <trkpt lat="44.17527" lon="2.98112">
        <ele>646</ele>
        <time>2021-08-16T09:27:50Z</time>
      </trkpt>
      <trkpt lat="44.17527" lon="2.98117">
        <ele>646.2</ele>
        <time>2021-08-16T09:27:52Z</time>
      </trkpt>
      <trkpt lat="44.17526" lon="2.98122">
        <ele>646.6</ele>
        <time>2021-08-16T09:27:54Z</time>
      </trkpt>
      <trkpt lat="44.17526" lon="2.98127">
        <ele>646.8</ele>
        <time>2021-08-16T09:27:56Z</time>
      </trkpt>
      <trkpt lat="44.17526" lon="2.98132">
        <ele>647</ele>
        <time>2021-08-16T09:27:58Z</time>
      </trkpt>
      <trkpt lat="44.17526" lon="2.98137">
        <ele>647.4</ele>
        <time>2021-08-16T09:28:00Z</time>
      </trkpt>
      <trkpt lat="44.17526" lon="2.98142">
        <ele>647.5</ele>
        <time>2021-08-16T09:28:02Z</time>
      </trkpt>
      <trkpt lat="44.17526" lon="2.98147">
        <ele>647.8</ele>
        <time>2021-08-16T09:28:04Z</time>
      </trkpt>
      <trkpt lat="44.17526" lon="2.98152">
        <ele>648</ele>
        <time>2021-08-16T09:28:06Z</time>
      </trkpt>
      <trkpt lat="44.17526" lon="2.98156">
        <ele>648</ele>
        <time>2021-08-16T09:28:08Z</time>
      </trkpt>
      <trkpt lat="44.17526" lon="2.98161">
        <ele>648.4</ele>
        <time>2021-08-16T09:28:10Z</time>
      </trkpt>
      <trkpt lat="44.17525" lon="2.98166">
        <ele>648.9</ele>
        <time>2021-08-16T09:28:12Z</time>
      </trkpt>
      <trkpt lat="44.17525" lon="2.98171">
        <ele>649.2</ele>
        <time>2021-08-16T09:28:14Z</time>
      </trkpt>
      <trkpt lat="44.17526" lon="2.98175">
        <ele>649.4</ele>
        <time>2021-08-16T09:28:16Z</time>
      </trkpt>
      <trkpt lat="44.17526" lon="2.9818">
        <ele>649.7</ele>
        <time>2021-08-16T09:28:18Z</time>
      </trkpt>
      <trkpt lat="44.17526" lon="2.98185">
        <ele>650.1</ele>
        <time>2021-08-16T09:28:20Z</time>
      </trkpt>
      <trkpt lat="44.17525" lon="2.98191">
        <ele>650.9</ele>
        <time>2021-08-16T09:28:22Z</time>
      </trkpt>
      <trkpt lat="44.17525" lon="2.98196">
        <ele>651.4</ele>
        <time>2021-08-16T09:28:24Z</time>
      </trkpt>
      <trkpt lat="44.17526" lon="2.982">
        <ele>651.6</ele>
        <time>2021-08-16T09:28:26Z</time>
      </trkpt>
      <trkpt lat="44.17526" lon="2.98205">
        <ele>651.6</ele>
        <time>2021-08-16T09:28:28Z</time>
      </trkpt>
      <trkpt lat="44.17527" lon="2.9821">
        <ele>651.7</ele>
        <time>2021-08-16T09:28:30Z</time>
      </trkpt>
      <trkpt lat="44.17528" lon="2.98214">
        <ele>651.7</ele>
        <time>2021-08-16T09:28:32Z</time>
      </trkpt>
      <trkpt lat="44.17531" lon="2.98218">
        <ele>650.2</ele>
        <time>2021-08-16T09:28:34Z</time>
      </trkpt>
      <trkpt lat="44.17535" lon="2.9822">
        <ele>648.3</ele>
        <time>2021-08-16T09:28:36Z</time>
      </trkpt>
      <trkpt lat="44.17536" lon="2.98226">
        <ele>648</ele>
        <time>2021-08-16T09:28:38Z</time>
      </trkpt>
      <trkpt lat="44.17536" lon="2.98233">
        <ele>648.9</ele>
        <time>2021-08-16T09:28:40Z</time>
      </trkpt>
      <trkpt lat="44.17536" lon="2.9824">
        <ele>649.4</ele>
        <time>2021-08-16T09:28:42Z</time>
      </trkpt>
      <trkpt lat="44.17538" lon="2.98247">
        <ele>648.7</ele>
        <time>2021-08-16T09:28:44Z</time>
      </trkpt>
      <trkpt lat="44.1754" lon="2.98256">
        <ele>648.5</ele>
        <time>2021-08-16T09:28:46Z</time>
      </trkpt>
      <trkpt lat="44.17542" lon="2.98264">
        <ele>648.4</ele>
        <time>2021-08-16T09:28:48Z</time>
      </trkpt>
      <trkpt lat="44.17546" lon="2.98274">
        <ele>647.4</ele>
        <time>2021-08-16T09:28:50Z</time>
      </trkpt>
      <trkpt lat="44.17551" lon="2.98287">
        <ele>646.4</ele>
        <time>2021-08-16T09:28:52Z</time>
      </trkpt>
      <trkpt lat="44.17557" lon="2.98301">
        <ele>645.3</ele>
        <time>2021-08-16T09:28:54Z</time>
      </trkpt>
      <trkpt lat="44.17566" lon="2.98315">
        <ele>643.2</ele>
        <time>2021-08-16T09:28:56Z</time>
      </trkpt>
      <trkpt lat="44.17574" lon="2.98325">
        <ele>641</ele>
        <time>2021-08-16T09:28:58Z</time>
      </trkpt>
      <trkpt lat="44.17584" lon="2.98337">
        <ele>638.6</ele>
        <time>2021-08-16T09:29:00Z</time>
      </trkpt>
      <trkpt lat="44.17595" lon="2.9835">
        <ele>638.7</ele>
        <time>2021-08-16T09:29:02Z</time>
      </trkpt>
      <trkpt lat="44.17605" lon="2.98362">
        <ele>638.3</ele>
        <time>2021-08-16T09:29:04Z</time>
      </trkpt>
      <trkpt lat="44.17617" lon="2.98373">
        <ele>637</ele>
        <time>2021-08-16T09:29:06Z</time>
      </trkpt>
      <trkpt lat="44.17627" lon="2.98385">
        <ele>636</ele>
        <time>2021-08-16T09:29:08Z</time>
      </trkpt>
      <trkpt lat="44.17637" lon="2.98396">
        <ele>634.7</ele>
        <time>2021-08-16T09:29:10Z</time>
      </trkpt>
      <trkpt lat="44.17647" lon="2.98406">
        <ele>633.1</ele>
        <time>2021-08-16T09:29:12Z</time>
      </trkpt>
      <trkpt lat="44.17656" lon="2.98417">
        <ele>631.5</ele>
        <time>2021-08-16T09:29:14Z</time>
      </trkpt>
      <trkpt lat="44.17665" lon="2.98428">
        <ele>629.4</ele>
        <time>2021-08-16T09:29:16Z</time>
      </trkpt>
      <trkpt lat="44.17677" lon="2.98436">
        <ele>629.2</ele>
        <time>2021-08-16T09:29:18Z</time>
      </trkpt>
      <trkpt lat="44.17691" lon="2.98435">
        <ele>628.8</ele>
        <time>2021-08-16T09:29:20Z</time>
      </trkpt>
      <trkpt lat="44.17705" lon="2.98428">
        <ele>628</ele>
        <time>2021-08-16T09:29:22Z</time>
      </trkpt>
      <trkpt lat="44.17718" lon="2.98418">
        <ele>626.9</ele>
        <time>2021-08-16T09:29:24Z</time>
      </trkpt>
      <trkpt lat="44.1773" lon="2.98408">
        <ele>626.8</ele>
        <time>2021-08-16T09:29:26Z</time>
      </trkpt>
      <trkpt lat="44.17742" lon="2.98399">
        <ele>627.4</ele>
        <time>2021-08-16T09:29:28Z</time>
      </trkpt>
      <trkpt lat="44.17754" lon="2.98393">
        <ele>628.7</ele>
        <time>2021-08-16T09:29:30Z</time>
      </trkpt>
      <trkpt lat="44.17764" lon="2.98385">
        <ele>631.3</ele>
        <time>2021-08-16T09:29:32Z</time>
      </trkpt>
      <trkpt lat="44.17774" lon="2.98381">
        <ele>634</ele>
        <time>2021-08-16T09:29:34Z</time>
      </trkpt>
      <trkpt lat="44.17785" lon="2.98382">
        <ele>636</ele>
        <time>2021-08-16T09:29:36Z</time>
      </trkpt>
      <trkpt lat="44.17794" lon="2.98389">
        <ele>636.6</ele>
        <time>2021-08-16T09:29:38Z</time>
      </trkpt>
      <trkpt lat="44.17802" lon="2.98397">
        <ele>636.3</ele>
        <time>2021-08-16T09:29:40Z</time>
      </trkpt>
      <trkpt lat="44.1781" lon="2.98405">
        <ele>635.9</ele>
        <time>2021-08-16T09:29:42Z</time>
      </trkpt>
      <trkpt lat="44.17817" lon="2.98413">
        <ele>635.1</ele>
        <time>2021-08-16T09:29:44Z</time>
      </trkpt>
      <trkpt lat="44.17823" lon="2.9842">
        <ele>634.5</ele>
        <time>2021-08-16T09:29:46Z</time>
      </trkpt>
      <trkpt lat="44.17829" lon="2.98429">
        <ele>634.3</ele>
        <time>2021-08-16T09:29:48Z</time>
      </trkpt>
      <trkpt lat="44.17835" lon="2.98437">
        <ele>634.2</ele>
        <time>2021-08-16T09:29:50Z</time>
      </trkpt>
      <trkpt lat="44.17839" lon="2.98445">
        <ele>634.9</ele>
        <time>2021-08-16T09:29:52Z</time>
      </trkpt>
      <trkpt lat="44.17844" lon="2.98453">
        <ele>635.4</ele>
        <time>2021-08-16T09:29:54Z</time>
      </trkpt>
      <trkpt lat="44.17849" lon="2.9846">
        <ele>635.9</ele>
        <time>2021-08-16T09:29:56Z</time>
      </trkpt>
      <trkpt lat="44.17853" lon="2.98467">
        <ele>636</ele>
        <time>2021-08-16T09:29:58Z</time>
      </trkpt>
      <trkpt lat="44.17856" lon="2.98474">
        <ele>636</ele>
        <time>2021-08-16T09:30:00Z</time>
      </trkpt>
      <trkpt lat="44.1786" lon="2.98481">
        <ele>635.9</ele>
        <time>2021-08-16T09:30:02Z</time>
      </trkpt>
      <trkpt lat="44.17864" lon="2.98488">
        <ele>636</ele>
        <time>2021-08-16T09:30:04Z</time>
      </trkpt>
      <trkpt lat="44.17869" lon="2.98495">
        <ele>635.9</ele>
        <time>2021-08-16T09:30:06Z</time>
      </trkpt>
      <trkpt lat="44.17872" lon="2.98502">
        <ele>635.8</ele>
        <time>2021-08-16T09:30:08Z</time>
      </trkpt>
      <trkpt lat="44.17876" lon="2.98509">
        <ele>636.2</ele>
        <time>2021-08-16T09:30:10Z</time>
      </trkpt>
      <trkpt lat="44.1788" lon="2.98515">
        <ele>636.6</ele>
        <time>2021-08-16T09:30:12Z</time>
      </trkpt>
      <trkpt lat="44.17883" lon="2.98522">
        <ele>636.8</ele>
        <time>2021-08-16T09:30:14Z</time>
      </trkpt>
      <trkpt lat="44.17887" lon="2.98529">
        <ele>637</ele>
        <time>2021-08-16T09:30:16Z</time>
      </trkpt>
      <trkpt lat="44.1789" lon="2.98536">
        <ele>636.9</ele>
        <time>2021-08-16T09:30:18Z</time>
      </trkpt>
      <trkpt lat="44.17893" lon="2.98543">
        <ele>636.8</ele>
        <time>2021-08-16T09:30:20Z</time>
      </trkpt>
      <trkpt lat="44.17896" lon="2.9855">
        <ele>636.6</ele>
        <time>2021-08-16T09:30:22Z</time>
      </trkpt>
      <trkpt lat="44.17897" lon="2.98557">
        <ele>636.2</ele>
        <time>2021-08-16T09:30:24Z</time>
      </trkpt>
      <trkpt lat="44.179" lon="2.98564">
        <ele>635.8</ele>
        <time>2021-08-16T09:30:26Z</time>
      </trkpt>
      <trkpt lat="44.17903" lon="2.98571">
        <ele>635.3</ele>
        <time>2021-08-16T09:30:28Z</time>
      </trkpt>
      <trkpt lat="44.17906" lon="2.98579">
        <ele>634.7</ele>
        <time>2021-08-16T09:30:30Z</time>
      </trkpt>
      <trkpt lat="44.17909" lon="2.98586">
        <ele>634.3</ele>
        <time>2021-08-16T09:30:32Z</time>
      </trkpt>
      <trkpt lat="44.17912" lon="2.98592">
        <ele>634</ele>
        <time>2021-08-16T09:30:34Z</time>
      </trkpt>
      <trkpt lat="44.17914" lon="2.986">
        <ele>633.5</ele>
        <time>2021-08-16T09:30:36Z</time>
      </trkpt>
      <trkpt lat="44.17918" lon="2.98606">
        <ele>633.3</ele>
        <time>2021-08-16T09:30:38Z</time>
      </trkpt>
      <trkpt lat="44.17922" lon="2.98613">
        <ele>633.2</ele>
        <time>2021-08-16T09:30:40Z</time>
      </trkpt>
      <trkpt lat="44.17926" lon="2.9862">
        <ele>633.2</ele>
        <time>2021-08-16T09:30:42Z</time>
      </trkpt>
      <trkpt lat="44.17931" lon="2.98627">
        <ele>633.1</ele>
        <time>2021-08-16T09:30:44Z</time>
      </trkpt>
      <trkpt lat="44.17936" lon="2.98633">
        <ele>633.1</ele>
        <time>2021-08-16T09:30:46Z</time>
      </trkpt>
      <trkpt lat="44.17941" lon="2.98637">
        <ele>633.1</ele>
        <time>2021-08-16T09:30:48Z</time>
      </trkpt>
      <trkpt lat="44.17947" lon="2.98643">
        <ele>632.9</ele>
        <time>2021-08-16T09:30:50Z</time>
      </trkpt>
      <trkpt lat="44.17952" lon="2.98647">
        <ele>632.8</ele>
        <time>2021-08-16T09:30:52Z</time>
      </trkpt>
      <trkpt lat="44.17957" lon="2.98651">
        <ele>632.6</ele>
        <time>2021-08-16T09:30:54Z</time>
      </trkpt>
      <trkpt lat="44.17963" lon="2.98655">
        <ele>632.3</ele>
        <time>2021-08-16T09:30:56Z</time>
      </trkpt>
      <trkpt lat="44.17968" lon="2.98658">
        <ele>632.2</ele>
        <time>2021-08-16T09:30:58Z</time>
      </trkpt>
      <trkpt lat="44.17974" lon="2.9866">
        <ele>632.1</ele>
        <time>2021-08-16T09:31:00Z</time>
      </trkpt>
      <trkpt lat="44.1798" lon="2.98661">
        <ele>632.2</ele>
        <time>2021-08-16T09:31:02Z</time>
      </trkpt>
      <trkpt lat="44.17987" lon="2.98661">
        <ele>632.6</ele>
        <time>2021-08-16T09:31:04Z</time>
      </trkpt>
      <trkpt lat="44.17994" lon="2.98661">
        <ele>633</ele>
        <time>2021-08-16T09:31:06Z</time>
      </trkpt>
      <trkpt lat="44.18001" lon="2.9866">
        <ele>633.8</ele>
        <time>2021-08-16T09:31:08Z</time>
      </trkpt>
      <trkpt lat="44.18008" lon="2.98658">
        <ele>634.2</ele>
        <time>2021-08-16T09:31:10Z</time>
      </trkpt>
      <trkpt lat="44.18015" lon="2.98656">
        <ele>634.9</ele>
        <time>2021-08-16T09:31:12Z</time>
      </trkpt>
      <trkpt lat="44.18021" lon="2.98653">
        <ele>635.7</ele>
        <time>2021-08-16T09:31:14Z</time>
      </trkpt>
      <trkpt lat="44.18028" lon="2.98651">
        <ele>636.2</ele>
        <time>2021-08-16T09:31:16Z</time>
      </trkpt>
      <trkpt lat="44.18034" lon="2.98649">
        <ele>636.7</ele>
        <time>2021-08-16T09:31:18Z</time>
      </trkpt>
      <trkpt lat="44.18041" lon="2.98646">
        <ele>637.4</ele>
        <time>2021-08-16T09:31:20Z</time>
      </trkpt>
      <trkpt lat="44.18047" lon="2.98643">
        <ele>637.9</ele>
        <time>2021-08-16T09:31:22Z</time>
      </trkpt>
      <trkpt lat="44.18054" lon="2.9864">
        <ele>638.5</ele>
        <time>2021-08-16T09:31:24Z</time>
      </trkpt>
      <trkpt lat="44.1806" lon="2.98638">
        <ele>639</ele>
        <time>2021-08-16T09:31:26Z</time>
      </trkpt>
      <trkpt lat="44.18067" lon="2.98635">
        <ele>639.4</ele>
        <time>2021-08-16T09:31:28Z</time>
      </trkpt>
      <trkpt lat="44.18073" lon="2.98633">
        <ele>639.8</ele>
        <time>2021-08-16T09:31:30Z</time>
      </trkpt>
      <trkpt lat="44.1808" lon="2.98629">
        <ele>640.3</ele>
        <time>2021-08-16T09:31:32Z</time>
      </trkpt>
      <trkpt lat="44.18086" lon="2.98626">
        <ele>640.8</ele>
        <time>2021-08-16T09:31:34Z</time>
      </trkpt>
      <trkpt lat="44.18093" lon="2.98623">
        <ele>641</ele>
        <time>2021-08-16T09:31:36Z</time>
      </trkpt>
      <trkpt lat="44.18098" lon="2.98619">
        <ele>641.4</ele>
        <time>2021-08-16T09:31:38Z</time>
      </trkpt>
      <trkpt lat="44.18104" lon="2.98615">
        <ele>641.7</ele>
        <time>2021-08-16T09:31:40Z</time>
      </trkpt>
      <trkpt lat="44.18111" lon="2.98612">
        <ele>641.8</ele>
        <time>2021-08-16T09:31:42Z</time>
      </trkpt>
      <trkpt lat="44.18117" lon="2.98609">
        <ele>641.9</ele>
        <time>2021-08-16T09:31:44Z</time>
      </trkpt>
      <trkpt lat="44.18124" lon="2.98606">
        <ele>642</ele>
        <time>2021-08-16T09:31:46Z</time>
      </trkpt>
      <trkpt lat="44.1813" lon="2.98603">
        <ele>642</ele>
        <time>2021-08-16T09:31:48Z</time>
      </trkpt>
      <trkpt lat="44.18135" lon="2.986">
        <ele>642</ele>
        <time>2021-08-16T09:31:50Z</time>
      </trkpt>
      <trkpt lat="44.18142" lon="2.98597">
        <ele>641.9</ele>
        <time>2021-08-16T09:31:52Z</time>
      </trkpt>
      <trkpt lat="44.18148" lon="2.98593">
        <ele>641.8</ele>
        <time>2021-08-16T09:31:54Z</time>
      </trkpt>
      <trkpt lat="44.18155" lon="2.98589">
        <ele>641.5</ele>
        <time>2021-08-16T09:31:56Z</time>
      </trkpt>
      <trkpt lat="44.18162" lon="2.98586">
        <ele>641.2</ele>
        <time>2021-08-16T09:31:58Z</time>
      </trkpt>
      <trkpt lat="44.18168" lon="2.98582">
        <ele>641.2</ele>
        <time>2021-08-16T09:32:00Z</time>
      </trkpt>
      <trkpt lat="44.18174" lon="2.98578">
        <ele>641.9</ele>
        <time>2021-08-16T09:32:02Z</time>
      </trkpt>
      <trkpt lat="44.1818" lon="2.98573">
        <ele>642.6</ele>
        <time>2021-08-16T09:32:04Z</time>
      </trkpt>
      <trkpt lat="44.18186" lon="2.98568">
        <ele>643.2</ele>
        <time>2021-08-16T09:32:06Z</time>
      </trkpt>
      <trkpt lat="44.18191" lon="2.98563">
        <ele>643.9</ele>
        <time>2021-08-16T09:32:08Z</time>
      </trkpt>
      <trkpt lat="44.18196" lon="2.98558">
        <ele>644.6</ele>
        <time>2021-08-16T09:32:10Z</time>
      </trkpt>
      <trkpt lat="44.18201" lon="2.98552">
        <ele>645.1</ele>
        <time>2021-08-16T09:32:12Z</time>
      </trkpt>
      <trkpt lat="44.18207" lon="2.98547">
        <ele>645.3</ele>
        <time>2021-08-16T09:32:14Z</time>
      </trkpt>
      <trkpt lat="44.18212" lon="2.98542">
        <ele>645.7</ele>
        <time>2021-08-16T09:32:16Z</time>
      </trkpt>
      <trkpt lat="44.18217" lon="2.98537">
        <ele>645.8</ele>
        <time>2021-08-16T09:32:18Z</time>
      </trkpt>
      <trkpt lat="44.18223" lon="2.98532">
        <ele>645.7</ele>
        <time>2021-08-16T09:32:20Z</time>
      </trkpt>
      <trkpt lat="44.18228" lon="2.98526">
        <ele>645.8</ele>
        <time>2021-08-16T09:32:22Z</time>
      </trkpt>
      <trkpt lat="44.18234" lon="2.98522">
        <ele>645.2</ele>
        <time>2021-08-16T09:32:24Z</time>
      </trkpt>
      <trkpt lat="44.18241" lon="2.98518">
        <ele>644.7</ele>
        <time>2021-08-16T09:32:26Z</time>
      </trkpt>
      <trkpt lat="44.18247" lon="2.98514">
        <ele>643.9</ele>
        <time>2021-08-16T09:32:28Z</time>
      </trkpt>
      <trkpt lat="44.18254" lon="2.98509">
        <ele>643.5</ele>
        <time>2021-08-16T09:32:30Z</time>
      </trkpt>
      <trkpt lat="44.18261" lon="2.98505">
        <ele>643.4</ele>
        <time>2021-08-16T09:32:32Z</time>
      </trkpt>
      <trkpt lat="44.18268" lon="2.98501">
        <ele>643</ele>
        <time>2021-08-16T09:32:34Z</time>
      </trkpt>
      <trkpt lat="44.18274" lon="2.98497">
        <ele>643.1</ele>
        <time>2021-08-16T09:32:36Z</time>
      </trkpt>
      <trkpt lat="44.18281" lon="2.98492">
        <ele>643.3</ele>
        <time>2021-08-16T09:32:38Z</time>
      </trkpt>
      <trkpt lat="44.18288" lon="2.98488">
        <ele>643.3</ele>
        <time>2021-08-16T09:32:40Z</time>
      </trkpt>
      <trkpt lat="44.18294" lon="2.98483">
        <ele>643.3</ele>
        <time>2021-08-16T09:32:42Z</time>
      </trkpt>
      <trkpt lat="44.18301" lon="2.98478">
        <ele>643.4</ele>
        <time>2021-08-16T09:32:44Z</time>
      </trkpt>
      <trkpt lat="44.18308" lon="2.98474">
        <ele>643.2</ele>
        <time>2021-08-16T09:32:46Z</time>
      </trkpt>
      <trkpt lat="44.18314" lon="2.98468">
        <ele>643.3</ele>
        <time>2021-08-16T09:32:48Z</time>
      </trkpt>
      <trkpt lat="44.18321" lon="2.98463">
        <ele>643.2</ele>
        <time>2021-08-16T09:32:50Z</time>
      </trkpt>
      <trkpt lat="44.18327" lon="2.98457">
        <ele>643.1</ele>
        <time>2021-08-16T09:32:52Z</time>
      </trkpt>
      <trkpt lat="44.18333" lon="2.98451">
        <ele>643.1</ele>
        <time>2021-08-16T09:32:54Z</time>
      </trkpt>
      <trkpt lat="44.18339" lon="2.98444">
        <ele>643.6</ele>
        <time>2021-08-16T09:32:56Z</time>
      </trkpt>
      <trkpt lat="44.18346" lon="2.98438">
        <ele>643.7</ele>
        <time>2021-08-16T09:32:58Z</time>
      </trkpt>
      <trkpt lat="44.18353" lon="2.98432">
        <ele>643.8</ele>
        <time>2021-08-16T09:33:00Z</time>
      </trkpt>
      <trkpt lat="44.18359" lon="2.98426">
        <ele>643.8</ele>
        <time>2021-08-16T09:33:02Z</time>
      </trkpt>
      <trkpt lat="44.18365" lon="2.98419">
        <ele>643.6</ele>
        <time>2021-08-16T09:33:04Z</time>
      </trkpt>
      <trkpt lat="44.18371" lon="2.98413">
        <ele>643.7</ele>
        <time>2021-08-16T09:33:06Z</time>
      </trkpt>
      <trkpt lat="44.18378" lon="2.98407">
        <ele>643.6</ele>
        <time>2021-08-16T09:33:08Z</time>
      </trkpt>
      <trkpt lat="44.18385" lon="2.98401">
        <ele>643.6</ele>
        <time>2021-08-16T09:33:10Z</time>
      </trkpt>
      <trkpt lat="44.18392" lon="2.98396">
        <ele>643.2</ele>
        <time>2021-08-16T09:33:12Z</time>
      </trkpt>
      <trkpt lat="44.184" lon="2.98392">
        <ele>642.6</ele>
        <time>2021-08-16T09:33:14Z</time>
      </trkpt>
      <trkpt lat="44.18407" lon="2.98388">
        <ele>642</ele>
        <time>2021-08-16T09:33:16Z</time>
      </trkpt>
      <trkpt lat="44.18415" lon="2.98383">
        <ele>641.3</ele>
        <time>2021-08-16T09:33:18Z</time>
      </trkpt>
      <trkpt lat="44.18422" lon="2.98379">
        <ele>641.2</ele>
        <time>2021-08-16T09:33:20Z</time>
      </trkpt>
      <trkpt lat="44.18429" lon="2.98374">
        <ele>641.3</ele>
        <time>2021-08-16T09:33:22Z</time>
      </trkpt>
      <trkpt lat="44.18437" lon="2.98369">
        <ele>641.2</ele>
        <time>2021-08-16T09:33:24Z</time>
      </trkpt>
      <trkpt lat="44.18444" lon="2.98364">
        <ele>641</ele>
        <time>2021-08-16T09:33:26Z</time>
      </trkpt>
      <trkpt lat="44.18451" lon="2.98358">
        <ele>640.8</ele>
        <time>2021-08-16T09:33:28Z</time>
      </trkpt>
      <trkpt lat="44.18459" lon="2.98353">
        <ele>640.4</ele>
        <time>2021-08-16T09:33:30Z</time>
      </trkpt>
      <trkpt lat="44.18466" lon="2.98348">
        <ele>639.8</ele>
        <time>2021-08-16T09:33:32Z</time>
      </trkpt>
      <trkpt lat="44.18474" lon="2.98342">
        <ele>639.2</ele>
        <time>2021-08-16T09:33:34Z</time>
      </trkpt>
      <trkpt lat="44.1848" lon="2.98336">
        <ele>638.5</ele>
        <time>2021-08-16T09:33:36Z</time>
      </trkpt>
      <trkpt lat="44.18487" lon="2.9833">
        <ele>638.3</ele>
        <time>2021-08-16T09:33:38Z</time>
      </trkpt>
      <trkpt lat="44.18495" lon="2.98325">
        <ele>638</ele>
        <time>2021-08-16T09:33:40Z</time>
      </trkpt>
      <trkpt lat="44.18502" lon="2.9832">
        <ele>637.9</ele>
        <time>2021-08-16T09:33:42Z</time>
      </trkpt>
      <trkpt lat="44.18509" lon="2.98315">
        <ele>638.5</ele>
        <time>2021-08-16T09:33:44Z</time>
      </trkpt>
      <trkpt lat="44.18515" lon="2.98309">
        <ele>639</ele>
        <time>2021-08-16T09:33:46Z</time>
      </trkpt>
      <trkpt lat="44.18522" lon="2.98304">
        <ele>639.4</ele>
        <time>2021-08-16T09:33:48Z</time>
      </trkpt>
      <trkpt lat="44.18529" lon="2.98299">
        <ele>639.6</ele>
        <time>2021-08-16T09:33:50Z</time>
      </trkpt>
      <trkpt lat="44.18536" lon="2.98294">
        <ele>639.9</ele>
        <time>2021-08-16T09:33:52Z</time>
      </trkpt>
      <trkpt lat="44.18543" lon="2.98288">
        <ele>639.9</ele>
        <time>2021-08-16T09:33:54Z</time>
      </trkpt>
      <trkpt lat="44.1855" lon="2.98283">
        <ele>640</ele>
        <time>2021-08-16T09:33:56Z</time>
      </trkpt>
      <trkpt lat="44.18557" lon="2.98278">
        <ele>639.9</ele>
        <time>2021-08-16T09:33:58Z</time>
      </trkpt>
      <trkpt lat="44.18564" lon="2.98274">
        <ele>639.7</ele>
        <time>2021-08-16T09:34:00Z</time>
      </trkpt>
      <trkpt lat="44.1857" lon="2.98268">
        <ele>639.5</ele>
        <time>2021-08-16T09:34:02Z</time>
      </trkpt>
      <trkpt lat="44.18576" lon="2.98263">
        <ele>639.2</ele>
        <time>2021-08-16T09:34:04Z</time>
      </trkpt>
      <trkpt lat="44.18582" lon="2.98257">
        <ele>638.9</ele>
        <time>2021-08-16T09:34:06Z</time>
      </trkpt>
      <trkpt lat="44.18587" lon="2.98251">
        <ele>639</ele>
        <time>2021-08-16T09:34:08Z</time>
      </trkpt>
      <trkpt lat="44.18593" lon="2.98245">
        <ele>640.2</ele>
        <time>2021-08-16T09:34:10Z</time>
      </trkpt>
      <trkpt lat="44.18598" lon="2.98238">
        <ele>641.6</ele>
        <time>2021-08-16T09:34:12Z</time>
      </trkpt>
      <trkpt lat="44.18603" lon="2.98231">
        <ele>642.8</ele>
        <time>2021-08-16T09:34:14Z</time>
      </trkpt>
      <trkpt lat="44.18608" lon="2.98224">
        <ele>643.9</ele>
        <time>2021-08-16T09:34:16Z</time>
      </trkpt>
      <trkpt lat="44.18613" lon="2.98217">
        <ele>645</ele>
        <time>2021-08-16T09:34:18Z</time>
      </trkpt>
      <trkpt lat="44.18619" lon="2.98211">
        <ele>645.8</ele>
        <time>2021-08-16T09:34:20Z</time>
      </trkpt>
      <trkpt lat="44.18623" lon="2.98204">
        <ele>646.8</ele>
        <time>2021-08-16T09:34:22Z</time>
      </trkpt>
      <trkpt lat="44.18628" lon="2.98198">
        <ele>647.4</ele>
        <time>2021-08-16T09:34:24Z</time>
      </trkpt>
      <trkpt lat="44.18633" lon="2.98193">
        <ele>647.9</ele>
        <time>2021-08-16T09:34:26Z</time>
      </trkpt>
      <trkpt lat="44.18638" lon="2.98187">
        <ele>648.3</ele>
        <time>2021-08-16T09:34:28Z</time>
      </trkpt>
      <trkpt lat="44.18643" lon="2.98183">
        <ele>648.5</ele>
        <time>2021-08-16T09:34:30Z</time>
      </trkpt>
      <trkpt lat="44.18648" lon="2.98178">
        <ele>648.7</ele>
        <time>2021-08-16T09:34:32Z</time>
      </trkpt>
      <trkpt lat="44.18653" lon="2.98174">
        <ele>648.7</ele>
        <time>2021-08-16T09:34:34Z</time>
      </trkpt>
      <trkpt lat="44.18657" lon="2.9817">
        <ele>648.7</ele>
        <time>2021-08-16T09:34:36Z</time>
      </trkpt>
      <trkpt lat="44.18661" lon="2.98165">
        <ele>648.9</ele>
        <time>2021-08-16T09:34:38Z</time>
      </trkpt>
      <trkpt lat="44.18666" lon="2.98161">
        <ele>649.6</ele>
        <time>2021-08-16T09:34:40Z</time>
      </trkpt>
      <trkpt lat="44.1867" lon="2.98157">
        <ele>650.1</ele>
        <time>2021-08-16T09:34:42Z</time>
      </trkpt>
      <trkpt lat="44.18674" lon="2.98153">
        <ele>650.5</ele>
        <time>2021-08-16T09:34:44Z</time>
      </trkpt>
      <trkpt lat="44.18677" lon="2.98149">
        <ele>651.1</ele>
        <time>2021-08-16T09:34:46Z</time>
      </trkpt>
      <trkpt lat="44.18681" lon="2.98145">
        <ele>651.5</ele>
        <time>2021-08-16T09:34:48Z</time>
      </trkpt>
      <trkpt lat="44.18685" lon="2.98141">
        <ele>651.8</ele>
        <time>2021-08-16T09:34:50Z</time>
      </trkpt>
      <trkpt lat="44.1869" lon="2.98137">
        <ele>652</ele>
        <time>2021-08-16T09:34:52Z</time>
      </trkpt>
      <trkpt lat="44.18695" lon="2.98133">
        <ele>652</ele>
        <time>2021-08-16T09:34:54Z</time>
      </trkpt>
      <trkpt lat="44.18699" lon="2.98129">
        <ele>652.1</ele>
        <time>2021-08-16T09:34:56Z</time>
      </trkpt>
      <trkpt lat="44.18703" lon="2.98124">
        <ele>652.3</ele>
        <time>2021-08-16T09:34:58Z</time>
      </trkpt>
      <trkpt lat="44.18707" lon="2.98121">
        <ele>652.1</ele>
        <time>2021-08-16T09:35:00Z</time>
      </trkpt>
      <trkpt lat="44.18712" lon="2.98116">
        <ele>652.1</ele>
        <time>2021-08-16T09:35:02Z</time>
      </trkpt>
      <trkpt lat="44.18716" lon="2.98112">
        <ele>652</ele>
        <time>2021-08-16T09:35:04Z</time>
      </trkpt>
      <trkpt lat="44.1872" lon="2.98108">
        <ele>652</ele>
        <time>2021-08-16T09:35:06Z</time>
      </trkpt>
      <trkpt lat="44.18724" lon="2.98103">
        <ele>651.6</ele>
        <time>2021-08-16T09:35:08Z</time>
      </trkpt>
      <trkpt lat="44.18728" lon="2.98099">
        <ele>651.3</ele>
        <time>2021-08-16T09:35:10Z</time>
      </trkpt>
      <trkpt lat="44.18732" lon="2.98095">
        <ele>651</ele>
        <time>2021-08-16T09:35:12Z</time>
      </trkpt>
      <trkpt lat="44.18736" lon="2.9809">
        <ele>650.6</ele>
        <time>2021-08-16T09:35:14Z</time>
      </trkpt>
      <trkpt lat="44.18741" lon="2.98086">
        <ele>650.1</ele>
        <time>2021-08-16T09:35:16Z</time>
      </trkpt>
      <trkpt lat="44.18745" lon="2.98081">
        <ele>649.8</ele>
        <time>2021-08-16T09:35:18Z</time>
      </trkpt>
      <trkpt lat="44.18749" lon="2.98076">
        <ele>650.1</ele>
        <time>2021-08-16T09:35:20Z</time>
      </trkpt>
      <trkpt lat="44.18753" lon="2.98072">
        <ele>650.6</ele>
        <time>2021-08-16T09:35:22Z</time>
      </trkpt>
      <trkpt lat="44.18757" lon="2.98067">
        <ele>651.2</ele>
        <time>2021-08-16T09:35:24Z</time>
      </trkpt>
      <trkpt lat="44.18762" lon="2.98063">
        <ele>651.7</ele>
        <time>2021-08-16T09:35:26Z</time>
      </trkpt>
      <trkpt lat="44.18766" lon="2.98059">
        <ele>652.2</ele>
        <time>2021-08-16T09:35:28Z</time>
      </trkpt>
      <trkpt lat="44.18769" lon="2.98054">
        <ele>652.6</ele>
        <time>2021-08-16T09:35:30Z</time>
      </trkpt>
      <trkpt lat="44.18773" lon="2.9805">
        <ele>652.8</ele>
        <time>2021-08-16T09:35:32Z</time>
      </trkpt>
      <trkpt lat="44.18776" lon="2.98048">
        <ele>652.8</ele>
        <time>2021-08-16T09:35:34Z</time>
      </trkpt>
      <trkpt lat="44.18778" lon="2.98046">
        <ele>652.8</ele>
        <time>2021-08-16T09:35:36Z</time>
      </trkpt>
      <trkpt lat="44.1878" lon="2.98044">
        <ele>652.8</ele>
        <time>2021-08-16T09:35:38Z</time>
      </trkpt>
      <trkpt lat="44.1878" lon="2.98044">
        <ele>652.9</ele>
        <time>2021-08-16T09:35:40Z</time>
      </trkpt>
      <trkpt lat="44.1878" lon="2.98044">
        <ele>652.8</ele>
        <time>2021-08-16T09:35:42Z</time>
      </trkpt>
      <trkpt lat="44.1878" lon="2.98044">
        <ele>652.7</ele>
        <time>2021-08-16T09:35:44Z</time>
      </trkpt>
      <trkpt lat="44.18781" lon="2.98044">
        <ele>652.7</ele>
        <time>2021-08-16T09:35:46Z</time>
      </trkpt>
      <trkpt lat="44.18786" lon="2.98044">
        <ele>651.9</ele>
        <time>2021-08-16T09:43:02Z</time>
      </trkpt>
      <trkpt lat="44.18786" lon="2.98044">
        <ele>651.9</ele>
        <time>2021-08-16T09:43:04Z</time>
      </trkpt>
      <trkpt lat="44.18787" lon="2.98041">
        <ele>652.1</ele>
        <time>2021-08-16T09:43:06Z</time>
      </trkpt>
      <trkpt lat="44.18788" lon="2.9804">
        <ele>652.2</ele>
        <time>2021-08-16T09:43:08Z</time>
      </trkpt>
      <trkpt lat="44.18789" lon="2.98038">
        <ele>652.2</ele>
        <time>2021-08-16T09:43:10Z</time>
      </trkpt>
      <trkpt lat="44.18793" lon="2.98036">
        <ele>651.9</ele>
        <time>2021-08-16T09:43:12Z</time>
      </trkpt>
      <trkpt lat="44.18799" lon="2.98029">
        <ele>651.6</ele>
        <time>2021-08-16T09:43:14Z</time>
      </trkpt>
      <trkpt lat="44.18808" lon="2.98021">
        <ele>650.8</ele>
        <time>2021-08-16T09:43:16Z</time>
      </trkpt>
      <trkpt lat="44.18816" lon="2.98013">
        <ele>649.5</ele>
        <time>2021-08-16T09:43:18Z</time>
      </trkpt>
      <trkpt lat="44.18824" lon="2.98011">
        <ele>647.8</ele>
        <time>2021-08-16T09:43:20Z</time>
      </trkpt>
      <trkpt lat="44.18826" lon="2.98012">
        <ele>647.2</ele>
        <time>2021-08-16T09:43:22Z</time>
      </trkpt>
      <trkpt lat="44.18826" lon="2.98014">
        <ele>647.1</ele>
        <time>2021-08-16T09:43:24Z</time>
      </trkpt>
      <trkpt lat="44.18826" lon="2.98013">
        <ele>647.1</ele>
        <time>2021-08-16T09:43:26Z</time>
      </trkpt>
      <trkpt lat="44.18826" lon="2.98013">
        <ele>647</ele>
        <time>2021-08-16T09:43:28Z</time>
      </trkpt>
      <trkpt lat="44.18827" lon="2.98014">
        <ele>647</ele>
        <time>2021-08-16T09:43:30Z</time>
      </trkpt>
      <trkpt lat="44.18837" lon="2.98017">
        <ele>645.2</ele>
        <time>2021-08-16T09:51:18Z</time>
      </trkpt>
      <trkpt lat="44.18841" lon="2.9802">
        <ele>645</ele>
        <time>2021-08-16T09:51:20Z</time>
      </trkpt>
      <trkpt lat="44.18846" lon="2.98023">
        <ele>644.8</ele>
        <time>2021-08-16T09:51:22Z</time>
      </trkpt>
      <trkpt lat="44.18851" lon="2.98026">
        <ele>644.7</ele>
        <time>2021-08-16T09:51:24Z</time>
      </trkpt>
      <trkpt lat="44.18858" lon="2.9803">
        <ele>644.5</ele>
        <time>2021-08-16T09:51:26Z</time>
      </trkpt>
      <trkpt lat="44.18865" lon="2.98034">
        <ele>644.3</ele>
        <time>2021-08-16T09:51:28Z</time>
      </trkpt>
      <trkpt lat="44.18872" lon="2.98039">
        <ele>644.1</ele>
        <time>2021-08-16T09:51:30Z</time>
      </trkpt>
      <trkpt lat="44.18879" lon="2.9804">
        <ele>644</ele>
        <time>2021-08-16T09:51:32Z</time>
      </trkpt>
      <trkpt lat="44.18885" lon="2.9804">
        <ele>644</ele>
        <time>2021-08-16T09:51:34Z</time>
      </trkpt>
      <trkpt lat="44.1889" lon="2.9804">
        <ele>644.1</ele>
        <time>2021-08-16T09:51:36Z</time>
      </trkpt>
      <trkpt lat="44.18895" lon="2.98039">
        <ele>644.1</ele>
        <time>2021-08-16T09:51:38Z</time>
      </trkpt>
      <trkpt lat="44.18899" lon="2.98037">
        <ele>644.1</ele>
        <time>2021-08-16T09:51:40Z</time>
      </trkpt>
      <trkpt lat="44.18904" lon="2.98036">
        <ele>644.1</ele>
        <time>2021-08-16T09:51:42Z</time>
      </trkpt>
      <trkpt lat="44.18908" lon="2.98035">
        <ele>644.2</ele>
        <time>2021-08-16T09:51:44Z</time>
      </trkpt>
      <trkpt lat="44.18913" lon="2.98034">
        <ele>644.2</ele>
        <time>2021-08-16T09:51:46Z</time>
      </trkpt>
      <trkpt lat="44.18917" lon="2.98033">
        <ele>644.3</ele>
        <time>2021-08-16T09:51:48Z</time>
      </trkpt>
      <trkpt lat="44.18921" lon="2.98031">
        <ele>644.9</ele>
        <time>2021-08-16T09:51:50Z</time>
      </trkpt>
      <trkpt lat="44.18925" lon="2.9803">
        <ele>645.4</ele>
        <time>2021-08-16T09:51:52Z</time>
      </trkpt>
      <trkpt lat="44.18929" lon="2.98029">
        <ele>646</ele>
        <time>2021-08-16T09:51:54Z</time>
      </trkpt>
      <trkpt lat="44.18933" lon="2.98027">
        <ele>646.8</ele>
        <time>2021-08-16T09:51:56Z</time>
      </trkpt>
      <trkpt lat="44.18938" lon="2.98026">
        <ele>647.5</ele>
        <time>2021-08-16T09:51:58Z</time>
      </trkpt>
      <trkpt lat="44.18942" lon="2.98025">
        <ele>648.1</ele>
        <time>2021-08-16T09:52:00Z</time>
      </trkpt>
      <trkpt lat="44.18946" lon="2.98025">
        <ele>648.8</ele>
        <time>2021-08-16T09:52:02Z</time>
      </trkpt>
      <trkpt lat="44.18949" lon="2.98024">
        <ele>649.4</ele>
        <time>2021-08-16T09:52:04Z</time>
      </trkpt>
      <trkpt lat="44.18953" lon="2.98024">
        <ele>650</ele>
        <time>2021-08-16T09:52:06Z</time>
      </trkpt>
      <trkpt lat="44.18957" lon="2.98023">
        <ele>650.6</ele>
        <time>2021-08-16T09:52:08Z</time>
      </trkpt>
      <trkpt lat="44.18961" lon="2.98023">
        <ele>651.2</ele>
        <time>2021-08-16T09:52:10Z</time>
      </trkpt>
      <trkpt lat="44.18964" lon="2.98021">
        <ele>652</ele>
        <time>2021-08-16T09:52:12Z</time>
      </trkpt>
      <trkpt lat="44.18968" lon="2.98021">
        <ele>652.6</ele>
        <time>2021-08-16T09:52:14Z</time>
      </trkpt>
      <trkpt lat="44.18971" lon="2.98021">
        <ele>653.2</ele>
        <time>2021-08-16T09:52:16Z</time>
      </trkpt>
      <trkpt lat="44.18975" lon="2.98021">
        <ele>653.7</ele>
        <time>2021-08-16T09:52:18Z</time>
      </trkpt>
      <trkpt lat="44.18978" lon="2.98019">
        <ele>654.5</ele>
        <time>2021-08-16T09:52:20Z</time>
      </trkpt>
      <trkpt lat="44.18981" lon="2.98019">
        <ele>655</ele>
        <time>2021-08-16T09:52:22Z</time>
      </trkpt>
      <trkpt lat="44.18985" lon="2.98019">
        <ele>655.6</ele>
        <time>2021-08-16T09:52:24Z</time>
      </trkpt>
      <trkpt lat="44.18988" lon="2.98019">
        <ele>656.2</ele>
        <time>2021-08-16T09:52:26Z</time>
      </trkpt>
      <trkpt lat="44.18992" lon="2.98019">
        <ele>656.9</ele>
        <time>2021-08-16T09:52:28Z</time>
      </trkpt>
      <trkpt lat="44.18996" lon="2.98019">
        <ele>657.5</ele>
        <time>2021-08-16T09:52:30Z</time>
      </trkpt>
      <trkpt lat="44.18999" lon="2.98018">
        <ele>658.1</ele>
        <time>2021-08-16T09:52:32Z</time>
      </trkpt>
      <trkpt lat="44.19002" lon="2.98018">
        <ele>658.4</ele>
        <time>2021-08-16T09:52:34Z</time>
      </trkpt>
      <trkpt lat="44.19006" lon="2.98019">
        <ele>658.6</ele>
        <time>2021-08-16T09:52:36Z</time>
      </trkpt>
      <trkpt lat="44.1901" lon="2.98019">
        <ele>659</ele>
        <time>2021-08-16T09:52:38Z</time>
      </trkpt>
      <trkpt lat="44.19014" lon="2.98019">
        <ele>659.4</ele>
        <time>2021-08-16T09:52:40Z</time>
      </trkpt>
      <trkpt lat="44.19017" lon="2.98019">
        <ele>659.6</ele>
        <time>2021-08-16T09:52:42Z</time>
      </trkpt>
      <trkpt lat="44.19021" lon="2.9802">
        <ele>659.7</ele>
        <time>2021-08-16T09:52:44Z</time>
      </trkpt>
      <trkpt lat="44.19025" lon="2.98021">
        <ele>659.7</ele>
        <time>2021-08-16T09:52:46Z</time>
      </trkpt>
      <trkpt lat="44.19029" lon="2.98023">
        <ele>659.9</ele>
        <time>2021-08-16T09:52:48Z</time>
      </trkpt>
      <trkpt lat="44.19033" lon="2.98023">
        <ele>660</ele>
        <time>2021-08-16T09:52:50Z</time>
      </trkpt>
      <trkpt lat="44.19037" lon="2.98024">
        <ele>660.2</ele>
        <time>2021-08-16T09:52:52Z</time>
      </trkpt>
      <trkpt lat="44.19042" lon="2.98026">
        <ele>660.3</ele>
        <time>2021-08-16T09:52:54Z</time>
      </trkpt>
      <trkpt lat="44.19046" lon="2.98027">
        <ele>660.4</ele>
        <time>2021-08-16T09:52:56Z</time>
      </trkpt>
      <trkpt lat="44.19051" lon="2.98028">
        <ele>660.6</ele>
        <time>2021-08-16T09:52:58Z</time>
      </trkpt>
      <trkpt lat="44.19056" lon="2.98029">
        <ele>660.7</ele>
        <time>2021-08-16T09:53:00Z</time>
      </trkpt>
      <trkpt lat="44.1906" lon="2.9803">
        <ele>660.9</ele>
        <time>2021-08-16T09:53:02Z</time>
      </trkpt>
      <trkpt lat="44.19064" lon="2.98032">
        <ele>660.9</ele>
        <time>2021-08-16T09:53:04Z</time>
      </trkpt>
      <trkpt lat="44.19069" lon="2.98033">
        <ele>660.9</ele>
        <time>2021-08-16T09:53:06Z</time>
      </trkpt>
      <trkpt lat="44.19073" lon="2.98033">
        <ele>661.3</ele>
        <time>2021-08-16T09:53:08Z</time>
      </trkpt>
      <trkpt lat="44.19078" lon="2.98034">
        <ele>661.4</ele>
        <time>2021-08-16T09:53:10Z</time>
      </trkpt>
      <trkpt lat="44.19082" lon="2.98035">
        <ele>661.5</ele>
        <time>2021-08-16T09:53:12Z</time>
      </trkpt>
      <trkpt lat="44.19087" lon="2.98036">
        <ele>661.6</ele>
        <time>2021-08-16T09:53:14Z</time>
      </trkpt>
      <trkpt lat="44.19092" lon="2.98037">
        <ele>661.7</ele>
        <time>2021-08-16T09:53:16Z</time>
      </trkpt>
      <trkpt lat="44.19096" lon="2.98039">
        <ele>661.6</ele>
        <time>2021-08-16T09:53:18Z</time>
      </trkpt>
      <trkpt lat="44.19101" lon="2.9804">
        <ele>661.7</ele>
        <time>2021-08-16T09:53:20Z</time>
      </trkpt>
      <trkpt lat="44.19106" lon="2.98041">
        <ele>661.8</ele>
        <time>2021-08-16T09:53:22Z</time>
      </trkpt>
      <trkpt lat="44.1911" lon="2.98042">
        <ele>661.7</ele>
        <time>2021-08-16T09:53:24Z</time>
      </trkpt>
      <trkpt lat="44.19115" lon="2.98043">
        <ele>661.8</ele>
        <time>2021-08-16T09:53:26Z</time>
      </trkpt>
      <trkpt lat="44.1912" lon="2.98044">
        <ele>661.8</ele>
        <time>2021-08-16T09:53:28Z</time>
      </trkpt>
      <trkpt lat="44.19124" lon="2.98046">
        <ele>661.5</ele>
        <time>2021-08-16T09:53:30Z</time>
      </trkpt>
      <trkpt lat="44.19128" lon="2.98047">
        <ele>661.5</ele>
        <time>2021-08-16T09:53:32Z</time>
      </trkpt>
      <trkpt lat="44.19133" lon="2.98049">
        <ele>661.3</ele>
        <time>2021-08-16T09:53:34Z</time>
      </trkpt>
      <trkpt lat="44.19138" lon="2.98051">
        <ele>661.2</ele>
        <time>2021-08-16T09:53:36Z</time>
      </trkpt>
      <trkpt lat="44.19142" lon="2.98052">
        <ele>661.1</ele>
        <time>2021-08-16T09:53:38Z</time>
      </trkpt>
      <trkpt lat="44.19147" lon="2.98054">
        <ele>660.9</ele>
        <time>2021-08-16T09:53:40Z</time>
      </trkpt>
      <trkpt lat="44.19152" lon="2.98056">
        <ele>660.5</ele>
        <time>2021-08-16T09:53:42Z</time>
      </trkpt>
      <trkpt lat="44.19156" lon="2.98059">
        <ele>660.1</ele>
        <time>2021-08-16T09:53:44Z</time>
      </trkpt>
      <trkpt lat="44.19161" lon="2.98061">
        <ele>659.9</ele>
        <time>2021-08-16T09:53:46Z</time>
      </trkpt>
      <trkpt lat="44.19166" lon="2.98063">
        <ele>659.6</ele>
        <time>2021-08-16T09:53:48Z</time>
      </trkpt>
      <trkpt lat="44.19171" lon="2.98065">
        <ele>659.8</ele>
        <time>2021-08-16T09:53:50Z</time>
      </trkpt>
      <trkpt lat="44.19176" lon="2.98068">
        <ele>659.9</ele>
        <time>2021-08-16T09:53:52Z</time>
      </trkpt>
      <trkpt lat="44.19181" lon="2.9807">
        <ele>660.2</ele>
        <time>2021-08-16T09:53:54Z</time>
      </trkpt>
      <trkpt lat="44.19186" lon="2.98072">
        <ele>660.5</ele>
        <time>2021-08-16T09:53:56Z</time>
      </trkpt>
      <trkpt lat="44.1919" lon="2.98075">
        <ele>660.6</ele>
        <time>2021-08-16T09:53:58Z</time>
      </trkpt>
      <trkpt lat="44.19195" lon="2.98078">
        <ele>660.8</ele>
        <time>2021-08-16T09:54:00Z</time>
      </trkpt>
      <trkpt lat="44.192" lon="2.98081">
        <ele>660.8</ele>
        <time>2021-08-16T09:54:02Z</time>
      </trkpt>
      <trkpt lat="44.19206" lon="2.98084">
        <ele>660.9</ele>
        <time>2021-08-16T09:54:04Z</time>
      </trkpt>
      <trkpt lat="44.19211" lon="2.98087">
        <ele>661.4</ele>
        <time>2021-08-16T09:54:06Z</time>
      </trkpt>
      <trkpt lat="44.19216" lon="2.98091">
        <ele>661.8</ele>
        <time>2021-08-16T09:54:08Z</time>
      </trkpt>
      <trkpt lat="44.19221" lon="2.98094">
        <ele>662</ele>
        <time>2021-08-16T09:54:10Z</time>
      </trkpt>
      <trkpt lat="44.19227" lon="2.98098">
        <ele>662.3</ele>
        <time>2021-08-16T09:54:12Z</time>
      </trkpt>
      <trkpt lat="44.19234" lon="2.98102">
        <ele>662.4</ele>
        <time>2021-08-16T09:54:14Z</time>
      </trkpt>
      <trkpt lat="44.1924" lon="2.98106">
        <ele>662.5</ele>
        <time>2021-08-16T09:54:16Z</time>
      </trkpt>
      <trkpt lat="44.19246" lon="2.98109">
        <ele>662.6</ele>
        <time>2021-08-16T09:54:18Z</time>
      </trkpt>
      <trkpt lat="44.19252" lon="2.98114">
        <ele>662.4</ele>
        <time>2021-08-16T09:54:20Z</time>
      </trkpt>
      <trkpt lat="44.19258" lon="2.98118">
        <ele>662.3</ele>
        <time>2021-08-16T09:54:22Z</time>
      </trkpt>
      <trkpt lat="44.19264" lon="2.98122">
        <ele>662.4</ele>
        <time>2021-08-16T09:54:24Z</time>
      </trkpt>
      <trkpt lat="44.1927" lon="2.98126">
        <ele>662.4</ele>
        <time>2021-08-16T09:54:26Z</time>
      </trkpt>
      <trkpt lat="44.19276" lon="2.9813">
        <ele>662.3</ele>
        <time>2021-08-16T09:54:28Z</time>
      </trkpt>
      <trkpt lat="44.19282" lon="2.98133">
        <ele>662.5</ele>
        <time>2021-08-16T09:54:30Z</time>
      </trkpt>
      <trkpt lat="44.19288" lon="2.98136">
        <ele>662.5</ele>
        <time>2021-08-16T09:54:32Z</time>
      </trkpt>
      <trkpt lat="44.19293" lon="2.98139">
        <ele>662.4</ele>
        <time>2021-08-16T09:54:34Z</time>
      </trkpt>
      <trkpt lat="44.19298" lon="2.98141">
        <ele>662.7</ele>
        <time>2021-08-16T09:54:36Z</time>
      </trkpt>
      <trkpt lat="44.19302" lon="2.98144">
        <ele>662.7</ele>
        <time>2021-08-16T09:54:38Z</time>
      </trkpt>
      <trkpt lat="44.19306" lon="2.98145">
        <ele>662.9</ele>
        <time>2021-08-16T09:54:40Z</time>
      </trkpt>
      <trkpt lat="44.19309" lon="2.98146">
        <ele>663.1</ele>
        <time>2021-08-16T09:54:42Z</time>
      </trkpt>
      <trkpt lat="44.19311" lon="2.98147">
        <ele>663.1</ele>
        <time>2021-08-16T09:54:44Z</time>
      </trkpt>
      <trkpt lat="44.19315" lon="2.98149">
        <ele>663.2</ele>
        <time>2021-08-16T09:54:46Z</time>
      </trkpt>
      <trkpt lat="44.1932" lon="2.98151">
        <ele>663.2</ele>
        <time>2021-08-16T09:54:48Z</time>
      </trkpt>
      <trkpt lat="44.19323" lon="2.98152">
        <ele>663.4</ele>
        <time>2021-08-16T09:54:50Z</time>
      </trkpt>
      <trkpt lat="44.19327" lon="2.98153">
        <ele>663.7</ele>
        <time>2021-08-16T09:54:52Z</time>
      </trkpt>
      <trkpt lat="44.19331" lon="2.98155">
        <ele>663.9</ele>
        <time>2021-08-16T09:54:54Z</time>
      </trkpt>
      <trkpt lat="44.19335" lon="2.98156">
        <ele>663.9</ele>
        <time>2021-08-16T09:54:56Z</time>
      </trkpt>
      <trkpt lat="44.19338" lon="2.98157">
        <ele>664.1</ele>
        <time>2021-08-16T09:54:58Z</time>
      </trkpt>
      <trkpt lat="44.19341" lon="2.98157">
        <ele>664.5</ele>
        <time>2021-08-16T09:55:00Z</time>
      </trkpt>
      <trkpt lat="44.19344" lon="2.98159">
        <ele>664.5</ele>
        <time>2021-08-16T09:55:02Z</time>
      </trkpt>
      <trkpt lat="44.19348" lon="2.9816">
        <ele>664.5</ele>
        <time>2021-08-16T09:55:04Z</time>
      </trkpt>
      <trkpt lat="44.19351" lon="2.98161">
        <ele>664.7</ele>
        <time>2021-08-16T09:55:06Z</time>
      </trkpt>
      <trkpt lat="44.19354" lon="2.98162">
        <ele>664.9</ele>
        <time>2021-08-16T09:55:08Z</time>
      </trkpt>
      <trkpt lat="44.19357" lon="2.98162">
        <ele>665.1</ele>
        <time>2021-08-16T09:55:10Z</time>
      </trkpt>
      <trkpt lat="44.1936" lon="2.98164">
        <ele>665</ele>
        <time>2021-08-16T09:55:12Z</time>
      </trkpt>
      <trkpt lat="44.19363" lon="2.98165">
        <ele>665.1</ele>
        <time>2021-08-16T09:55:14Z</time>
      </trkpt>
      <trkpt lat="44.19366" lon="2.98166">
        <ele>665.3</ele>
        <time>2021-08-16T09:55:16Z</time>
      </trkpt>
      <trkpt lat="44.19369" lon="2.98166">
        <ele>665.4</ele>
        <time>2021-08-16T09:55:18Z</time>
      </trkpt>
      <trkpt lat="44.19372" lon="2.98167">
        <ele>665.6</ele>
        <time>2021-08-16T09:55:20Z</time>
      </trkpt>
      <trkpt lat="44.19375" lon="2.98168">
        <ele>665.9</ele>
        <time>2021-08-16T09:55:22Z</time>
      </trkpt>
      <trkpt lat="44.19379" lon="2.98169">
        <ele>666.1</ele>
        <time>2021-08-16T09:55:24Z</time>
      </trkpt>
      <trkpt lat="44.19382" lon="2.9817">
        <ele>666.3</ele>
        <time>2021-08-16T09:55:26Z</time>
      </trkpt>
      <trkpt lat="44.19384" lon="2.98172">
        <ele>666.4</ele>
        <time>2021-08-16T09:55:28Z</time>
      </trkpt>
      <trkpt lat="44.19388" lon="2.98172">
        <ele>666.6</ele>
        <time>2021-08-16T09:55:30Z</time>
      </trkpt>
      <trkpt lat="44.19391" lon="2.98173">
        <ele>666.9</ele>
        <time>2021-08-16T09:55:32Z</time>
      </trkpt>
      <trkpt lat="44.19394" lon="2.98174">
        <ele>667.1</ele>
        <time>2021-08-16T09:55:34Z</time>
      </trkpt>
      <trkpt lat="44.19397" lon="2.98175">
        <ele>667.2</ele>
        <time>2021-08-16T09:55:36Z</time>
      </trkpt>
      <trkpt lat="44.19401" lon="2.98176">
        <ele>667.4</ele>
        <time>2021-08-16T09:55:38Z</time>
      </trkpt>
      <trkpt lat="44.19404" lon="2.98177">
        <ele>667.5</ele>
        <time>2021-08-16T09:55:40Z</time>
      </trkpt>
      <trkpt lat="44.19407" lon="2.98179">
        <ele>667.7</ele>
        <time>2021-08-16T09:55:42Z</time>
      </trkpt>
      <trkpt lat="44.19411" lon="2.98179">
        <ele>668</ele>
        <time>2021-08-16T09:55:44Z</time>
      </trkpt>
      <trkpt lat="44.19414" lon="2.9818">
        <ele>668.1</ele>
        <time>2021-08-16T09:55:46Z</time>
      </trkpt>
      <trkpt lat="44.19417" lon="2.98181">
        <ele>668.2</ele>
        <time>2021-08-16T09:55:48Z</time>
      </trkpt>
      <trkpt lat="44.1942" lon="2.98183">
        <ele>668.2</ele>
        <time>2021-08-16T09:55:50Z</time>
      </trkpt>
      <trkpt lat="44.19423" lon="2.98183">
        <ele>668.5</ele>
        <time>2021-08-16T09:55:52Z</time>
      </trkpt>
      <trkpt lat="44.19426" lon="2.98184">
        <ele>668.5</ele>
        <time>2021-08-16T09:55:54Z</time>
      </trkpt>
      <trkpt lat="44.1943" lon="2.98185">
        <ele>668.6</ele>
        <time>2021-08-16T09:55:56Z</time>
      </trkpt>
      <trkpt lat="44.19433" lon="2.98185">
        <ele>668.8</ele>
        <time>2021-08-16T09:55:58Z</time>
      </trkpt>
      <trkpt lat="44.19436" lon="2.98186">
        <ele>668.9</ele>
        <time>2021-08-16T09:56:00Z</time>
      </trkpt>
      <trkpt lat="44.1944" lon="2.98187">
        <ele>669.1</ele>
        <time>2021-08-16T09:56:02Z</time>
      </trkpt>
      <trkpt lat="44.19443" lon="2.98187">
        <ele>669.3</ele>
        <time>2021-08-16T09:56:04Z</time>
      </trkpt>
      <trkpt lat="44.19447" lon="2.98188">
        <ele>669.3</ele>
        <time>2021-08-16T09:56:06Z</time>
      </trkpt>
      <trkpt lat="44.19449" lon="2.98189">
        <ele>669.4</ele>
        <time>2021-08-16T09:56:08Z</time>
      </trkpt>
      <trkpt lat="44.19451" lon="2.9819">
        <ele>669.4</ele>
        <time>2021-08-16T09:56:10Z</time>
      </trkpt>
      <trkpt lat="44.19455" lon="2.98191">
        <ele>669.6</ele>
        <time>2021-08-16T09:56:12Z</time>
      </trkpt>
      <trkpt lat="44.19459" lon="2.98191">
        <ele>669.7</ele>
        <time>2021-08-16T09:56:14Z</time>
      </trkpt>
      <trkpt lat="44.19462" lon="2.98192">
        <ele>669.8</ele>
        <time>2021-08-16T09:56:16Z</time>
      </trkpt>
      <trkpt lat="44.19465" lon="2.98192">
        <ele>670</ele>
        <time>2021-08-16T09:56:18Z</time>
      </trkpt>
      <trkpt lat="44.19469" lon="2.98193">
        <ele>670.1</ele>
        <time>2021-08-16T09:56:20Z</time>
      </trkpt>
      <trkpt lat="44.19472" lon="2.98194">
        <ele>670.1</ele>
        <time>2021-08-16T09:56:22Z</time>
      </trkpt>
      <trkpt lat="44.19475" lon="2.98195">
        <ele>670.2</ele>
        <time>2021-08-16T09:56:24Z</time>
      </trkpt>
      <trkpt lat="44.19478" lon="2.98195">
        <ele>670.5</ele>
        <time>2021-08-16T09:56:26Z</time>
      </trkpt>
      <trkpt lat="44.19481" lon="2.98195">
        <ele>670.7</ele>
        <time>2021-08-16T09:56:28Z</time>
      </trkpt>
      <trkpt lat="44.19485" lon="2.98195">
        <ele>671</ele>
        <time>2021-08-16T09:56:30Z</time>
      </trkpt>
      <trkpt lat="44.19488" lon="2.98195">
        <ele>671.4</ele>
        <time>2021-08-16T09:56:32Z</time>
      </trkpt>
      <trkpt lat="44.1949" lon="2.98195">
        <ele>671.4</ele>
        <time>2021-08-16T09:56:34Z</time>
      </trkpt>
      <trkpt lat="44.19494" lon="2.98196">
        <ele>671.5</ele>
        <time>2021-08-16T09:56:36Z</time>
      </trkpt>
      <trkpt lat="44.19497" lon="2.98196">
        <ele>671.7</ele>
        <time>2021-08-16T09:56:38Z</time>
      </trkpt>
      <trkpt lat="44.195" lon="2.98197">
        <ele>671.8</ele>
        <time>2021-08-16T09:56:40Z</time>
      </trkpt>
      <trkpt lat="44.19503" lon="2.98197">
        <ele>671.9</ele>
        <time>2021-08-16T09:56:42Z</time>
      </trkpt>
      <trkpt lat="44.19507" lon="2.98196">
        <ele>672.3</ele>
        <time>2021-08-16T09:56:44Z</time>
      </trkpt>
      <trkpt lat="44.1951" lon="2.98197">
        <ele>672.6</ele>
        <time>2021-08-16T09:56:46Z</time>
      </trkpt>
      <trkpt lat="44.19514" lon="2.98197">
        <ele>672.8</ele>
        <time>2021-08-16T09:56:48Z</time>
      </trkpt>
      <trkpt lat="44.19518" lon="2.98198">
        <ele>672.8</ele>
        <time>2021-08-16T09:56:50Z</time>
      </trkpt>
      <trkpt lat="44.19521" lon="2.98198">
        <ele>673</ele>
        <time>2021-08-16T09:56:52Z</time>
      </trkpt>
      <trkpt lat="44.19525" lon="2.98198">
        <ele>673.3</ele>
        <time>2021-08-16T09:56:54Z</time>
      </trkpt>
      <trkpt lat="44.19529" lon="2.98198">
        <ele>673.7</ele>
        <time>2021-08-16T09:56:56Z</time>
      </trkpt>
      <trkpt lat="44.19534" lon="2.98198">
        <ele>673.9</ele>
        <time>2021-08-16T09:56:58Z</time>
      </trkpt>
      <trkpt lat="44.19538" lon="2.98197">
        <ele>674.4</ele>
        <time>2021-08-16T09:57:00Z</time>
      </trkpt>
      <trkpt lat="44.19543" lon="2.98198">
        <ele>674.7</ele>
        <time>2021-08-16T09:57:02Z</time>
      </trkpt>
      <trkpt lat="44.19548" lon="2.98197">
        <ele>675.1</ele>
        <time>2021-08-16T09:57:04Z</time>
      </trkpt>
      <trkpt lat="44.19553" lon="2.98197">
        <ele>675.4</ele>
        <time>2021-08-16T09:57:06Z</time>
      </trkpt>
      <trkpt lat="44.19557" lon="2.98197">
        <ele>675.8</ele>
        <time>2021-08-16T09:57:08Z</time>
      </trkpt>
      <trkpt lat="44.19561" lon="2.98199">
        <ele>675.6</ele>
        <time>2021-08-16T09:57:10Z</time>
      </trkpt>
      <trkpt lat="44.19566" lon="2.982">
        <ele>675.8</ele>
        <time>2021-08-16T09:57:12Z</time>
      </trkpt>
      <trkpt lat="44.19571" lon="2.98201">
        <ele>675.8</ele>
        <time>2021-08-16T09:57:14Z</time>
      </trkpt>
      <trkpt lat="44.19576" lon="2.98204">
        <ele>675.5</ele>
        <time>2021-08-16T09:57:16Z</time>
      </trkpt>
      <trkpt lat="44.19581" lon="2.98205">
        <ele>675.7</ele>
        <time>2021-08-16T09:57:18Z</time>
      </trkpt>
      <trkpt lat="44.19585" lon="2.98206">
        <ele>675.5</ele>
        <time>2021-08-16T09:57:20Z</time>
      </trkpt>
      <trkpt lat="44.19589" lon="2.9821">
        <ele>674.9</ele>
        <time>2021-08-16T09:57:22Z</time>
      </trkpt>
      <trkpt lat="44.19594" lon="2.98212">
        <ele>674.5</ele>
        <time>2021-08-16T09:57:24Z</time>
      </trkpt>
      <trkpt lat="44.196" lon="2.98212">
        <ele>674.7</ele>
        <time>2021-08-16T09:57:26Z</time>
      </trkpt>
      <trkpt lat="44.19606" lon="2.98213">
        <ele>674.6</ele>
        <time>2021-08-16T09:57:28Z</time>
      </trkpt>
      <trkpt lat="44.19612" lon="2.98214">
        <ele>674.6</ele>
        <time>2021-08-16T09:57:30Z</time>
      </trkpt>
      <trkpt lat="44.19619" lon="2.98215">
        <ele>674.7</ele>
        <time>2021-08-16T09:57:32Z</time>
      </trkpt>
      <trkpt lat="44.19624" lon="2.98214">
        <ele>675</ele>
        <time>2021-08-16T09:57:34Z</time>
      </trkpt>
      <trkpt lat="44.19629" lon="2.98214">
        <ele>675.3</ele>
        <time>2021-08-16T09:57:36Z</time>
      </trkpt>
      <trkpt lat="44.19635" lon="2.98213">
        <ele>675.8</ele>
        <time>2021-08-16T09:57:38Z</time>
      </trkpt>
      <trkpt lat="44.1964" lon="2.9821">
        <ele>676.6</ele>
        <time>2021-08-16T09:57:40Z</time>
      </trkpt>
      <trkpt lat="44.19646" lon="2.98209">
        <ele>677.1</ele>
        <time>2021-08-16T09:57:42Z</time>
      </trkpt>
      <trkpt lat="44.19651" lon="2.98206">
        <ele>677.9</ele>
        <time>2021-08-16T09:57:44Z</time>
      </trkpt>
      <trkpt lat="44.19657" lon="2.98206">
        <ele>678.2</ele>
        <time>2021-08-16T09:57:46Z</time>
      </trkpt>
      <trkpt lat="44.19662" lon="2.98204">
        <ele>678.8</ele>
        <time>2021-08-16T09:57:48Z</time>
      </trkpt>
      <trkpt lat="44.19668" lon="2.98202">
        <ele>679.4</ele>
        <time>2021-08-16T09:57:50Z</time>
      </trkpt>
      <trkpt lat="44.19673" lon="2.98202">
        <ele>679.4</ele>
        <time>2021-08-16T09:57:52Z</time>
      </trkpt>
      <trkpt lat="44.19678" lon="2.98201">
        <ele>679.3</ele>
        <time>2021-08-16T09:57:54Z</time>
      </trkpt>
      <trkpt lat="44.19683" lon="2.98201">
        <ele>679.2</ele>
        <time>2021-08-16T09:57:56Z</time>
      </trkpt>
      <trkpt lat="44.19688" lon="2.98201">
        <ele>679</ele>
        <time>2021-08-16T09:57:58Z</time>
      </trkpt>
      <trkpt lat="44.19694" lon="2.98201">
        <ele>678.8</ele>
        <time>2021-08-16T09:58:00Z</time>
      </trkpt>
      <trkpt lat="44.19701" lon="2.98202">
        <ele>678.5</ele>
        <time>2021-08-16T09:58:02Z</time>
      </trkpt>
      <trkpt lat="44.19708" lon="2.98202">
        <ele>678.1</ele>
        <time>2021-08-16T09:58:04Z</time>
      </trkpt>
      <trkpt lat="44.19717" lon="2.98203">
        <ele>677.8</ele>
        <time>2021-08-16T09:58:06Z</time>
      </trkpt>
      <trkpt lat="44.19725" lon="2.98202">
        <ele>677.5</ele>
        <time>2021-08-16T09:58:08Z</time>
      </trkpt>
      <trkpt lat="44.19735" lon="2.98202">
        <ele>677.3</ele>
        <time>2021-08-16T09:58:10Z</time>
      </trkpt>
      <trkpt lat="44.19744" lon="2.98202">
        <ele>677</ele>
        <time>2021-08-16T09:58:12Z</time>
      </trkpt>
      <trkpt lat="44.19753" lon="2.98201">
        <ele>676.8</ele>
        <time>2021-08-16T09:58:14Z</time>
      </trkpt>
      <trkpt lat="44.19762" lon="2.982">
        <ele>676.9</ele>
        <time>2021-08-16T09:58:16Z</time>
      </trkpt>
      <trkpt lat="44.1977" lon="2.982">
        <ele>676.6</ele>
        <time>2021-08-16T09:58:18Z</time>
      </trkpt>
      <trkpt lat="44.19777" lon="2.982">
        <ele>676.5</ele>
        <time>2021-08-16T09:58:20Z</time>
      </trkpt>
      <trkpt lat="44.19784" lon="2.98199">
        <ele>676.6</ele>
        <time>2021-08-16T09:58:22Z</time>
      </trkpt>
      <trkpt lat="44.1979" lon="2.98198">
        <ele>676.5</ele>
        <time>2021-08-16T09:58:24Z</time>
      </trkpt>
      <trkpt lat="44.19796" lon="2.98197">
        <ele>676.5</ele>
        <time>2021-08-16T09:58:26Z</time>
      </trkpt>
      <trkpt lat="44.19802" lon="2.98196">
        <ele>676.5</ele>
        <time>2021-08-16T09:58:28Z</time>
      </trkpt>
      <trkpt lat="44.19807" lon="2.98194">
        <ele>676.5</ele>
        <time>2021-08-16T09:58:30Z</time>
      </trkpt>
      <trkpt lat="44.19813" lon="2.98192">
        <ele>676.7</ele>
        <time>2021-08-16T09:58:32Z</time>
      </trkpt>
      <trkpt lat="44.19819" lon="2.9819">
        <ele>676.7</ele>
        <time>2021-08-16T09:58:34Z</time>
      </trkpt>
      <trkpt lat="44.19824" lon="2.98188">
        <ele>676.8</ele>
        <time>2021-08-16T09:58:36Z</time>
      </trkpt>
      <trkpt lat="44.19829" lon="2.98185">
        <ele>676.9</ele>
        <time>2021-08-16T09:58:38Z</time>
      </trkpt>
      <trkpt lat="44.19835" lon="2.98184">
        <ele>676.8</ele>
        <time>2021-08-16T09:58:40Z</time>
      </trkpt>
      <trkpt lat="44.1984" lon="2.9818">
        <ele>677.2</ele>
        <time>2021-08-16T09:58:42Z</time>
      </trkpt>
      <trkpt lat="44.19845" lon="2.98178">
        <ele>677.3</ele>
        <time>2021-08-16T09:58:44Z</time>
      </trkpt>
      <trkpt lat="44.19851" lon="2.98174">
        <ele>677.5</ele>
        <time>2021-08-16T09:58:46Z</time>
      </trkpt>
      <trkpt lat="44.19856" lon="2.98171">
        <ele>677.6</ele>
        <time>2021-08-16T09:58:48Z</time>
      </trkpt>
      <trkpt lat="44.19862" lon="2.98168">
        <ele>677.6</ele>
        <time>2021-08-16T09:58:50Z</time>
      </trkpt>
      <trkpt lat="44.19868" lon="2.98165">
        <ele>677.8</ele>
        <time>2021-08-16T09:58:52Z</time>
      </trkpt>
      <trkpt lat="44.19873" lon="2.98162">
        <ele>678.5</ele>
        <time>2021-08-16T09:58:54Z</time>
      </trkpt>
      <trkpt lat="44.19879" lon="2.98159">
        <ele>678.9</ele>
        <time>2021-08-16T09:58:56Z</time>
      </trkpt>
      <trkpt lat="44.19884" lon="2.98156">
        <ele>679.3</ele>
        <time>2021-08-16T09:58:58Z</time>
      </trkpt>
      <trkpt lat="44.19889" lon="2.98153">
        <ele>679.9</ele>
        <time>2021-08-16T09:59:00Z</time>
      </trkpt>
      <trkpt lat="44.19893" lon="2.98149">
        <ele>680.6</ele>
        <time>2021-08-16T09:59:02Z</time>
      </trkpt>
      <trkpt lat="44.19897" lon="2.98147">
        <ele>681</ele>
        <time>2021-08-16T09:59:04Z</time>
      </trkpt>
      <trkpt lat="44.19902" lon="2.98143">
        <ele>681.6</ele>
        <time>2021-08-16T09:59:06Z</time>
      </trkpt>
      <trkpt lat="44.19905" lon="2.98139">
        <ele>682.3</ele>
        <time>2021-08-16T09:59:08Z</time>
      </trkpt>
      <trkpt lat="44.1991" lon="2.98133">
        <ele>683.2</ele>
        <time>2021-08-16T09:59:10Z</time>
      </trkpt>
      <trkpt lat="44.19914" lon="2.9813">
        <ele>683.7</ele>
        <time>2021-08-16T09:59:12Z</time>
      </trkpt>
      <trkpt lat="44.19918" lon="2.98124">
        <ele>684.8</ele>
        <time>2021-08-16T09:59:14Z</time>
      </trkpt>
      <trkpt lat="44.19923" lon="2.98119">
        <ele>685.5</ele>
        <time>2021-08-16T09:59:16Z</time>
      </trkpt>
      <trkpt lat="44.19927" lon="2.98113">
        <ele>686.2</ele>
        <time>2021-08-16T09:59:18Z</time>
      </trkpt>
      <trkpt lat="44.19932" lon="2.98108">
        <ele>686.7</ele>
        <time>2021-08-16T09:59:20Z</time>
      </trkpt>
      <trkpt lat="44.19938" lon="2.98104">
        <ele>686.9</ele>
        <time>2021-08-16T09:59:22Z</time>
      </trkpt>
      <trkpt lat="44.19942" lon="2.98099">
        <ele>687.3</ele>
        <time>2021-08-16T09:59:24Z</time>
      </trkpt>
      <trkpt lat="44.19949" lon="2.98093">
        <ele>687.1</ele>
        <time>2021-08-16T09:59:26Z</time>
      </trkpt>
      <trkpt lat="44.19955" lon="2.98089">
        <ele>686.9</ele>
        <time>2021-08-16T09:59:28Z</time>
      </trkpt>
      <trkpt lat="44.1996" lon="2.98083">
        <ele>686.8</ele>
        <time>2021-08-16T09:59:30Z</time>
      </trkpt>
      <trkpt lat="44.19966" lon="2.98077">
        <ele>687.6</ele>
        <time>2021-08-16T09:59:32Z</time>
      </trkpt>
      <trkpt lat="44.19971" lon="2.98074">
        <ele>687.5</ele>
        <time>2021-08-16T09:59:34Z</time>
      </trkpt>
      <trkpt lat="44.19977" lon="2.98069">
        <ele>688</ele>
        <time>2021-08-16T09:59:36Z</time>
      </trkpt>
      <trkpt lat="44.1998" lon="2.98065">
        <ele>688.6</ele>
        <time>2021-08-16T09:59:38Z</time>
      </trkpt>
      <trkpt lat="44.19986" lon="2.98061">
        <ele>688.5</ele>
        <time>2021-08-16T09:59:40Z</time>
      </trkpt>
      <trkpt lat="44.19992" lon="2.98056">
        <ele>688.7</ele>
        <time>2021-08-16T09:59:42Z</time>
      </trkpt>
      <trkpt lat="44.19996" lon="2.98049">
        <ele>690</ele>
        <time>2021-08-16T09:59:44Z</time>
      </trkpt>
      <trkpt lat="44.19998" lon="2.98045">
        <ele>690.6</ele>
        <time>2021-08-16T09:59:46Z</time>
      </trkpt>
      <trkpt lat="44.20005" lon="2.98042">
        <ele>690.8</ele>
        <time>2021-08-16T09:59:48Z</time>
      </trkpt>
      <trkpt lat="44.20011" lon="2.98037">
        <ele>691.5</ele>
        <time>2021-08-16T09:59:50Z</time>
      </trkpt>
      <trkpt lat="44.20016" lon="2.98033">
        <ele>692.1</ele>
        <time>2021-08-16T09:59:52Z</time>
      </trkpt>
      <trkpt lat="44.20022" lon="2.98029">
        <ele>692.7</ele>
        <time>2021-08-16T09:59:54Z</time>
      </trkpt>
      <trkpt lat="44.20027" lon="2.98025">
        <ele>692.9</ele>
        <time>2021-08-16T09:59:56Z</time>
      </trkpt>
      <trkpt lat="44.20033" lon="2.98021">
        <ele>693</ele>
        <time>2021-08-16T09:59:58Z</time>
      </trkpt>
      <trkpt lat="44.20036" lon="2.98016">
        <ele>693.7</ele>
        <time>2021-08-16T10:00:00Z</time>
      </trkpt>
      <trkpt lat="44.20039" lon="2.98011">
        <ele>694</ele>
        <time>2021-08-16T10:00:02Z</time>
      </trkpt>
      <trkpt lat="44.20044" lon="2.98008">
        <ele>693.9</ele>
        <time>2021-08-16T10:00:04Z</time>
      </trkpt>
      <trkpt lat="44.2005" lon="2.98004">
        <ele>693.6</ele>
        <time>2021-08-16T10:00:06Z</time>
      </trkpt>
      <trkpt lat="44.20054" lon="2.97999">
        <ele>693.9</ele>
        <time>2021-08-16T10:00:08Z</time>
      </trkpt>
      <trkpt lat="44.20058" lon="2.97996">
        <ele>694.2</ele>
        <time>2021-08-16T10:00:10Z</time>
      </trkpt>
      <trkpt lat="44.20063" lon="2.97992">
        <ele>694.6</ele>
        <time>2021-08-16T10:00:12Z</time>
      </trkpt>
      <trkpt lat="44.20067" lon="2.97989">
        <ele>694.8</ele>
        <time>2021-08-16T10:00:14Z</time>
      </trkpt>
      <trkpt lat="44.20072" lon="2.97985">
        <ele>694.9</ele>
        <time>2021-08-16T10:00:16Z</time>
      </trkpt>
      <trkpt lat="44.20076" lon="2.97983">
        <ele>695.1</ele>
        <time>2021-08-16T10:00:18Z</time>
      </trkpt>
      <trkpt lat="44.20079" lon="2.97979">
        <ele>695.5</ele>
        <time>2021-08-16T10:00:20Z</time>
      </trkpt>
      <trkpt lat="44.20083" lon="2.97976">
        <ele>695.7</ele>
        <time>2021-08-16T10:00:22Z</time>
      </trkpt>
      <trkpt lat="44.20088" lon="2.97973">
        <ele>696</ele>
        <time>2021-08-16T10:00:24Z</time>
      </trkpt>
      <trkpt lat="44.20091" lon="2.9797">
        <ele>696.5</ele>
        <time>2021-08-16T10:00:26Z</time>
      </trkpt>
      <trkpt lat="44.20094" lon="2.97967">
        <ele>697.1</ele>
        <time>2021-08-16T10:00:28Z</time>
      </trkpt>
      <trkpt lat="44.20099" lon="2.97964">
        <ele>697.3</ele>
        <time>2021-08-16T10:00:30Z</time>
      </trkpt>
      <trkpt lat="44.20104" lon="2.97961">
        <ele>697.4</ele>
        <time>2021-08-16T10:00:32Z</time>
      </trkpt>
      <trkpt lat="44.20108" lon="2.97958">
        <ele>697.5</ele>
        <time>2021-08-16T10:00:34Z</time>
      </trkpt>
      <trkpt lat="44.20113" lon="2.97955">
        <ele>697.6</ele>
        <time>2021-08-16T10:00:36Z</time>
      </trkpt>
      <trkpt lat="44.20117" lon="2.97953">
        <ele>697.5</ele>
        <time>2021-08-16T10:00:38Z</time>
      </trkpt>
      <trkpt lat="44.2012" lon="2.9795">
        <ele>697.8</ele>
        <time>2021-08-16T10:00:40Z</time>
      </trkpt>
      <trkpt lat="44.20125" lon="2.97948">
        <ele>697.3</ele>
        <time>2021-08-16T10:00:42Z</time>
      </trkpt>
      <trkpt lat="44.20128" lon="2.97946">
        <ele>697.2</ele>
        <time>2021-08-16T10:00:44Z</time>
      </trkpt>
      <trkpt lat="44.20133" lon="2.97945">
        <ele>696.6</ele>
        <time>2021-08-16T10:00:46Z</time>
      </trkpt>
      <trkpt lat="44.20138" lon="2.97941">
        <ele>696.5</ele>
        <time>2021-08-16T10:00:48Z</time>
      </trkpt>
      <trkpt lat="44.20142" lon="2.97939">
        <ele>696.3</ele>
        <time>2021-08-16T10:00:50Z</time>
      </trkpt>
      <trkpt lat="44.20147" lon="2.97936">
        <ele>695.8</ele>
        <time>2021-08-16T10:00:52Z</time>
      </trkpt>
      <trkpt lat="44.2015" lon="2.97934">
        <ele>695.5</ele>
        <time>2021-08-16T10:00:54Z</time>
      </trkpt>
      <trkpt lat="44.20152" lon="2.97931">
        <ele>695.4</ele>
        <time>2021-08-16T10:00:56Z</time>
      </trkpt>
      <trkpt lat="44.20158" lon="2.97927">
        <ele>694.7</ele>
        <time>2021-08-16T10:00:58Z</time>
      </trkpt>
      <trkpt lat="44.20163" lon="2.97923">
        <ele>694.2</ele>
        <time>2021-08-16T10:01:00Z</time>
      </trkpt>
      <trkpt lat="44.20168" lon="2.9792">
        <ele>693.7</ele>
        <time>2021-08-16T10:01:02Z</time>
      </trkpt>
      <trkpt lat="44.20173" lon="2.97917">
        <ele>693.8</ele>
        <time>2021-08-16T10:01:04Z</time>
      </trkpt>
      <trkpt lat="44.20177" lon="2.97914">
        <ele>694.6</ele>
        <time>2021-08-16T10:01:06Z</time>
      </trkpt>
      <trkpt lat="44.20184" lon="2.9791">
        <ele>695.5</ele>
        <time>2021-08-16T10:01:08Z</time>
      </trkpt>
      <trkpt lat="44.20188" lon="2.97905">
        <ele>696.7</ele>
        <time>2021-08-16T10:01:10Z</time>
      </trkpt>
      <trkpt lat="44.20196" lon="2.97902">
        <ele>697.2</ele>
        <time>2021-08-16T10:01:12Z</time>
      </trkpt>
      <trkpt lat="44.20202" lon="2.97897">
        <ele>698.4</ele>
        <time>2021-08-16T10:01:14Z</time>
      </trkpt>
      <trkpt lat="44.2021" lon="2.97894">
        <ele>699.1</ele>
        <time>2021-08-16T10:01:16Z</time>
      </trkpt>
      <trkpt lat="44.20219" lon="2.97891">
        <ele>699.7</ele>
        <time>2021-08-16T10:01:18Z</time>
      </trkpt>
      <trkpt lat="44.20228" lon="2.97888">
        <ele>700</ele>
        <time>2021-08-16T10:01:20Z</time>
      </trkpt>
      <trkpt lat="44.2024" lon="2.97889">
        <ele>699.3</ele>
        <time>2021-08-16T10:01:22Z</time>
      </trkpt>
      <trkpt lat="44.20253" lon="2.97893">
        <ele>698.3</ele>
        <time>2021-08-16T10:01:24Z</time>
      </trkpt>
      <trkpt lat="44.20264" lon="2.97903">
        <ele>697.1</ele>
        <time>2021-08-16T10:01:26Z</time>
      </trkpt>
      <trkpt lat="44.20273" lon="2.97913">
        <ele>695.9</ele>
        <time>2021-08-16T10:01:28Z</time>
      </trkpt>
      <trkpt lat="44.20282" lon="2.97922">
        <ele>696.3</ele>
        <time>2021-08-16T10:01:30Z</time>
      </trkpt>
      <trkpt lat="44.2029" lon="2.97929">
        <ele>697.3</ele>
        <time>2021-08-16T10:01:32Z</time>
      </trkpt>
      <trkpt lat="44.20297" lon="2.97935">
        <ele>698.2</ele>
        <time>2021-08-16T10:01:34Z</time>
      </trkpt>
      <trkpt lat="44.20304" lon="2.97941">
        <ele>698.9</ele>
        <time>2021-08-16T10:01:36Z</time>
      </trkpt>
      <trkpt lat="44.20309" lon="2.97947">
        <ele>699.3</ele>
        <time>2021-08-16T10:01:38Z</time>
      </trkpt>
      <trkpt lat="44.20314" lon="2.97951">
        <ele>699.6</ele>
        <time>2021-08-16T10:01:40Z</time>
      </trkpt>
      <trkpt lat="44.20318" lon="2.97956">
        <ele>699.9</ele>
        <time>2021-08-16T10:01:42Z</time>
      </trkpt>
      <trkpt lat="44.20324" lon="2.97959">
        <ele>700.2</ele>
        <time>2021-08-16T10:01:44Z</time>
      </trkpt>
      <trkpt lat="44.20326" lon="2.97965">
        <ele>700.2</ele>
        <time>2021-08-16T10:01:46Z</time>
      </trkpt>
      <trkpt lat="44.20329" lon="2.97969">
        <ele>700.2</ele>
        <time>2021-08-16T10:01:48Z</time>
      </trkpt>
      <trkpt lat="44.20332" lon="2.97973">
        <ele>700.2</ele>
        <time>2021-08-16T10:01:50Z</time>
      </trkpt>
      <trkpt lat="44.20335" lon="2.97978">
        <ele>700.4</ele>
        <time>2021-08-16T10:01:52Z</time>
      </trkpt>
      <trkpt lat="44.20337" lon="2.97982">
        <ele>700.8</ele>
        <time>2021-08-16T10:01:54Z</time>
      </trkpt>
      <trkpt lat="44.2034" lon="2.97985">
        <ele>701.3</ele>
        <time>2021-08-16T10:01:56Z</time>
      </trkpt>
      <trkpt lat="44.20344" lon="2.97988">
        <ele>701.8</ele>
        <time>2021-08-16T10:01:58Z</time>
      </trkpt>
      <trkpt lat="44.20346" lon="2.97993">
        <ele>702.1</ele>
        <time>2021-08-16T10:02:00Z</time>
      </trkpt>
      <trkpt lat="44.20349" lon="2.97996">
        <ele>702.4</ele>
        <time>2021-08-16T10:02:02Z</time>
      </trkpt>
      <trkpt lat="44.20351" lon="2.98">
        <ele>702.7</ele>
        <time>2021-08-16T10:02:04Z</time>
      </trkpt>
      <trkpt lat="44.20354" lon="2.98004">
        <ele>703.4</ele>
        <time>2021-08-16T10:02:06Z</time>
      </trkpt>
      <trkpt lat="44.20358" lon="2.98007">
        <ele>704</ele>
        <time>2021-08-16T10:02:08Z</time>
      </trkpt>
      <trkpt lat="44.2036" lon="2.98011">
        <ele>704.5</ele>
        <time>2021-08-16T10:02:10Z</time>
      </trkpt>
      <trkpt lat="44.20363" lon="2.98015">
        <ele>704.9</ele>
        <time>2021-08-16T10:02:12Z</time>
      </trkpt>
      <trkpt lat="44.20367" lon="2.98018">
        <ele>705.4</ele>
        <time>2021-08-16T10:02:14Z</time>
      </trkpt>
      <trkpt lat="44.20369" lon="2.98021">
        <ele>705.6</ele>
        <time>2021-08-16T10:02:16Z</time>
      </trkpt>
      <trkpt lat="44.20372" lon="2.98024">
        <ele>705.8</ele>
        <time>2021-08-16T10:02:18Z</time>
      </trkpt>
      <trkpt lat="44.20374" lon="2.98027">
        <ele>706</ele>
        <time>2021-08-16T10:02:20Z</time>
      </trkpt>
      <trkpt lat="44.20377" lon="2.98029">
        <ele>706.2</ele>
        <time>2021-08-16T10:02:22Z</time>
      </trkpt>
      <trkpt lat="44.20381" lon="2.98031">
        <ele>706.3</ele>
        <time>2021-08-16T10:02:24Z</time>
      </trkpt>
      <trkpt lat="44.20384" lon="2.98034">
        <ele>706.4</ele>
        <time>2021-08-16T10:02:26Z</time>
      </trkpt>
      <trkpt lat="44.20387" lon="2.98037">
        <ele>706.4</ele>
        <time>2021-08-16T10:02:28Z</time>
      </trkpt>
      <trkpt lat="44.2039" lon="2.98039">
        <ele>706.3</ele>
        <time>2021-08-16T10:02:30Z</time>
      </trkpt>
      <trkpt lat="44.20391" lon="2.9804">
        <ele>706.3</ele>
        <time>2021-08-16T10:02:32Z</time>
      </trkpt>
      <trkpt lat="44.20395" lon="2.98042">
        <ele>706.3</ele>
        <time>2021-08-16T10:02:34Z</time>
      </trkpt>
      <trkpt lat="44.20398" lon="2.98042">
        <ele>706.4</ele>
        <time>2021-08-16T10:02:36Z</time>
      </trkpt>
      <trkpt lat="44.20402" lon="2.98044">
        <ele>706.4</ele>
        <time>2021-08-16T10:02:38Z</time>
      </trkpt>
      <trkpt lat="44.20406" lon="2.98046">
        <ele>706.2</ele>
        <time>2021-08-16T10:02:40Z</time>
      </trkpt>
      <trkpt lat="44.20409" lon="2.98048">
        <ele>706</ele>
        <time>2021-08-16T10:02:42Z</time>
      </trkpt>
      <trkpt lat="44.20412" lon="2.98049">
        <ele>705.8</ele>
        <time>2021-08-16T10:02:44Z</time>
      </trkpt>
      <trkpt lat="44.20416" lon="2.9805">
        <ele>705.8</ele>
        <time>2021-08-16T10:02:46Z</time>
      </trkpt>
      <trkpt lat="44.2042" lon="2.98053">
        <ele>705.8</ele>
        <time>2021-08-16T10:02:48Z</time>
      </trkpt>
      <trkpt lat="44.20423" lon="2.98054">
        <ele>706.2</ele>
        <time>2021-08-16T10:02:50Z</time>
      </trkpt>
      <trkpt lat="44.20426" lon="2.98056">
        <ele>706.5</ele>
        <time>2021-08-16T10:02:52Z</time>
      </trkpt>
      <trkpt lat="44.20429" lon="2.98058">
        <ele>706.7</ele>
        <time>2021-08-16T10:02:54Z</time>
      </trkpt>
      <trkpt lat="44.20432" lon="2.98059">
        <ele>707</ele>
        <time>2021-08-16T10:02:56Z</time>
      </trkpt>
      <trkpt lat="44.20435" lon="2.9806">
        <ele>707.3</ele>
        <time>2021-08-16T10:02:58Z</time>
      </trkpt>
      <trkpt lat="44.20438" lon="2.98062">
        <ele>707.5</ele>
        <time>2021-08-16T10:03:00Z</time>
      </trkpt>
      <trkpt lat="44.20441" lon="2.98063">
        <ele>707.9</ele>
        <time>2021-08-16T10:03:02Z</time>
      </trkpt>
      <trkpt lat="44.20444" lon="2.98064">
        <ele>708.3</ele>
        <time>2021-08-16T10:03:04Z</time>
      </trkpt>
      <trkpt lat="44.20444" lon="2.98064">
        <ele>708.4</ele>
        <time>2021-08-16T10:03:06Z</time>
      </trkpt>
      <trkpt lat="44.20445" lon="2.98063">
        <ele>708.6</ele>
        <time>2021-08-16T10:03:08Z</time>
      </trkpt>
      <trkpt lat="44.20445" lon="2.98064">
        <ele>708.5</ele>
        <time>2021-08-16T10:03:10Z</time>
      </trkpt>
      <trkpt lat="44.20445" lon="2.98064">
        <ele>708.4</ele>
        <time>2021-08-16T10:03:12Z</time>
      </trkpt>
      <trkpt lat="44.20457" lon="2.98072">
        <ele>709.1</ele>
        <time>2021-08-16T10:04:48Z</time>
      </trkpt>
      <trkpt lat="44.20461" lon="2.98074">
        <ele>709.1</ele>
        <time>2021-08-16T10:04:50Z</time>
      </trkpt>
      <trkpt lat="44.20464" lon="2.98075">
        <ele>709.4</ele>
        <time>2021-08-16T10:04:52Z</time>
      </trkpt>
      <trkpt lat="44.20467" lon="2.98077">
        <ele>709.7</ele>
        <time>2021-08-16T10:04:54Z</time>
      </trkpt>
      <trkpt lat="44.20471" lon="2.98081">
        <ele>709.4</ele>
        <time>2021-08-16T10:04:56Z</time>
      </trkpt>
      <trkpt lat="44.20473" lon="2.98083">
        <ele>709.4</ele>
        <time>2021-08-16T10:04:58Z</time>
      </trkpt>
      <trkpt lat="44.20477" lon="2.98085">
        <ele>709.7</ele>
        <time>2021-08-16T10:05:00Z</time>
      </trkpt>
      <trkpt lat="44.2048" lon="2.98088">
        <ele>709.9</ele>
        <time>2021-08-16T10:05:02Z</time>
      </trkpt>
      <trkpt lat="44.20483" lon="2.98092">
        <ele>710.1</ele>
        <time>2021-08-16T10:05:04Z</time>
      </trkpt>
      <trkpt lat="44.20487" lon="2.98094">
        <ele>710.4</ele>
        <time>2021-08-16T10:05:06Z</time>
      </trkpt>
      <trkpt lat="44.2049" lon="2.98096">
        <ele>710.5</ele>
        <time>2021-08-16T10:05:08Z</time>
      </trkpt>
      <trkpt lat="44.20494" lon="2.98098">
        <ele>710.8</ele>
        <time>2021-08-16T10:05:10Z</time>
      </trkpt>
      <trkpt lat="44.20498" lon="2.981">
        <ele>711</ele>
        <time>2021-08-16T10:05:12Z</time>
      </trkpt>
      <trkpt lat="44.20501" lon="2.98104">
        <ele>711</ele>
        <time>2021-08-16T10:05:14Z</time>
      </trkpt>
      <trkpt lat="44.20505" lon="2.98107">
        <ele>710.9</ele>
        <time>2021-08-16T10:05:16Z</time>
      </trkpt>
      <trkpt lat="44.20509" lon="2.98108">
        <ele>711.1</ele>
        <time>2021-08-16T10:05:18Z</time>
      </trkpt>
      <trkpt lat="44.20513" lon="2.98111">
        <ele>711.1</ele>
        <time>2021-08-16T10:05:20Z</time>
      </trkpt>
      <trkpt lat="44.20517" lon="2.98113">
        <ele>711.1</ele>
        <time>2021-08-16T10:05:22Z</time>
      </trkpt>
      <trkpt lat="44.20522" lon="2.98117">
        <ele>710.9</ele>
        <time>2021-08-16T10:05:24Z</time>
      </trkpt>
      <trkpt lat="44.20526" lon="2.98118">
        <ele>711</ele>
        <time>2021-08-16T10:05:26Z</time>
      </trkpt>
      <trkpt lat="44.20531" lon="2.98121">
        <ele>710.8</ele>
        <time>2021-08-16T10:05:28Z</time>
      </trkpt>
      <trkpt lat="44.20536" lon="2.98122">
        <ele>711</ele>
        <time>2021-08-16T10:05:30Z</time>
      </trkpt>
      <trkpt lat="44.20541" lon="2.98126">
        <ele>710.7</ele>
        <time>2021-08-16T10:05:32Z</time>
      </trkpt>
      <trkpt lat="44.20546" lon="2.98128">
        <ele>710.7</ele>
        <time>2021-08-16T10:05:34Z</time>
      </trkpt>
      <trkpt lat="44.20552" lon="2.98131">
        <ele>710.5</ele>
        <time>2021-08-16T10:05:36Z</time>
      </trkpt>
      <trkpt lat="44.20557" lon="2.98133">
        <ele>710.4</ele>
        <time>2021-08-16T10:05:38Z</time>
      </trkpt>
      <trkpt lat="44.20562" lon="2.98133">
        <ele>710.7</ele>
        <time>2021-08-16T10:05:40Z</time>
      </trkpt>
      <trkpt lat="44.20567" lon="2.98136">
        <ele>710.4</ele>
        <time>2021-08-16T10:05:42Z</time>
      </trkpt>
      <trkpt lat="44.20573" lon="2.98137">
        <ele>710.6</ele>
        <time>2021-08-16T10:05:44Z</time>
      </trkpt>
      <trkpt lat="44.20578" lon="2.98138">
        <ele>710.6</ele>
        <time>2021-08-16T10:05:46Z</time>
      </trkpt>
      <trkpt lat="44.20583" lon="2.98138">
        <ele>710.8</ele>
        <time>2021-08-16T10:05:48Z</time>
      </trkpt>
      <trkpt lat="44.20588" lon="2.9814">
        <ele>710.5</ele>
        <time>2021-08-16T10:05:50Z</time>
      </trkpt>
      <trkpt lat="44.20591" lon="2.9814">
        <ele>710.3</ele>
        <time>2021-08-16T10:05:52Z</time>
      </trkpt>
      <trkpt lat="44.20597" lon="2.98139">
        <ele>710.7</ele>
        <time>2021-08-16T10:05:54Z</time>
      </trkpt>
      <trkpt lat="44.20601" lon="2.9814">
        <ele>710.5</ele>
        <time>2021-08-16T10:05:56Z</time>
      </trkpt>
      <trkpt lat="44.20604" lon="2.9814">
        <ele>710.6</ele>
        <time>2021-08-16T10:05:58Z</time>
      </trkpt>
      <trkpt lat="44.20608" lon="2.98139">
        <ele>711</ele>
        <time>2021-08-16T10:06:00Z</time>
      </trkpt>
      <trkpt lat="44.20613" lon="2.98137">
        <ele>711.3</ele>
        <time>2021-08-16T10:06:02Z</time>
      </trkpt>
      <trkpt lat="44.20617" lon="2.98137">
        <ele>711.6</ele>
        <time>2021-08-16T10:06:04Z</time>
      </trkpt>
      <trkpt lat="44.20621" lon="2.98137">
        <ele>711.6</ele>
        <time>2021-08-16T10:06:06Z</time>
      </trkpt>
      <trkpt lat="44.20625" lon="2.98137">
        <ele>711.7</ele>
        <time>2021-08-16T10:06:08Z</time>
      </trkpt>
      <trkpt lat="44.20629" lon="2.98136">
        <ele>711.9</ele>
        <time>2021-08-16T10:06:10Z</time>
      </trkpt>
      <trkpt lat="44.20633" lon="2.98135">
        <ele>712.2</ele>
        <time>2021-08-16T10:06:12Z</time>
      </trkpt>
      <trkpt lat="44.20637" lon="2.98134">
        <ele>712.4</ele>
        <time>2021-08-16T10:06:14Z</time>
      </trkpt>
      <trkpt lat="44.20641" lon="2.98133">
        <ele>712.9</ele>
        <time>2021-08-16T10:06:16Z</time>
      </trkpt>
      <trkpt lat="44.20645" lon="2.98132">
        <ele>713.3</ele>
        <time>2021-08-16T10:06:18Z</time>
      </trkpt>
      <trkpt lat="44.20648" lon="2.9813">
        <ele>713.8</ele>
        <time>2021-08-16T10:06:20Z</time>
      </trkpt>
      <trkpt lat="44.20653" lon="2.98128">
        <ele>714.4</ele>
        <time>2021-08-16T10:06:22Z</time>
      </trkpt>
      <trkpt lat="44.20656" lon="2.98127">
        <ele>714.9</ele>
        <time>2021-08-16T10:06:24Z</time>
      </trkpt>
      <trkpt lat="44.2066" lon="2.98125">
        <ele>715.5</ele>
        <time>2021-08-16T10:06:26Z</time>
      </trkpt>
      <trkpt lat="44.20663" lon="2.98122">
        <ele>716.2</ele>
        <time>2021-08-16T10:06:28Z</time>
      </trkpt>
      <trkpt lat="44.20667" lon="2.9812">
        <ele>716.9</ele>
        <time>2021-08-16T10:06:30Z</time>
      </trkpt>
      <trkpt lat="44.2067" lon="2.98118">
        <ele>717.5</ele>
        <time>2021-08-16T10:06:32Z</time>
      </trkpt>
      <trkpt lat="44.20674" lon="2.98117">
        <ele>717.9</ele>
        <time>2021-08-16T10:06:34Z</time>
      </trkpt>
      <trkpt lat="44.20677" lon="2.98116">
        <ele>718.3</ele>
        <time>2021-08-16T10:06:36Z</time>
      </trkpt>
      <trkpt lat="44.20682" lon="2.98115">
        <ele>718.5</ele>
        <time>2021-08-16T10:06:38Z</time>
      </trkpt>
      <trkpt lat="44.20685" lon="2.98113">
        <ele>719</ele>
        <time>2021-08-16T10:06:40Z</time>
      </trkpt>
      <trkpt lat="44.20689" lon="2.98111">
        <ele>719.6</ele>
        <time>2021-08-16T10:06:42Z</time>
      </trkpt>
      <trkpt lat="44.20694" lon="2.9811">
        <ele>719.8</ele>
        <time>2021-08-16T10:06:44Z</time>
      </trkpt>
      <trkpt lat="44.20698" lon="2.98109">
        <ele>720.3</ele>
        <time>2021-08-16T10:06:46Z</time>
      </trkpt>
      <trkpt lat="44.20702" lon="2.98108">
        <ele>720.4</ele>
        <time>2021-08-16T10:06:48Z</time>
      </trkpt>
      <trkpt lat="44.20707" lon="2.98107">
        <ele>720.8</ele>
        <time>2021-08-16T10:06:50Z</time>
      </trkpt>
      <trkpt lat="44.20711" lon="2.98106">
        <ele>720.9</ele>
        <time>2021-08-16T10:06:52Z</time>
      </trkpt>
      <trkpt lat="44.20716" lon="2.98106">
        <ele>721</ele>
        <time>2021-08-16T10:06:54Z</time>
      </trkpt>
      <trkpt lat="44.20721" lon="2.98105">
        <ele>721.2</ele>
        <time>2021-08-16T10:06:56Z</time>
      </trkpt>
      <trkpt lat="44.20727" lon="2.98105">
        <ele>721.2</ele>
        <time>2021-08-16T10:06:58Z</time>
      </trkpt>
      <trkpt lat="44.20733" lon="2.98105">
        <ele>721.2</ele>
        <time>2021-08-16T10:07:00Z</time>
      </trkpt>
      <trkpt lat="44.20739" lon="2.98107">
        <ele>720.6</ele>
        <time>2021-08-16T10:07:02Z</time>
      </trkpt>
      <trkpt lat="44.20746" lon="2.98108">
        <ele>720.2</ele>
        <time>2021-08-16T10:07:04Z</time>
      </trkpt>
      <trkpt lat="44.20752" lon="2.9811">
        <ele>720</ele>
        <time>2021-08-16T10:07:06Z</time>
      </trkpt>
      <trkpt lat="44.20759" lon="2.98112">
        <ele>719.9</ele>
        <time>2021-08-16T10:07:08Z</time>
      </trkpt>
      <trkpt lat="44.20766" lon="2.98115">
        <ele>719.7</ele>
        <time>2021-08-16T10:07:10Z</time>
      </trkpt>
      <trkpt lat="44.20772" lon="2.98119">
        <ele>719.4</ele>
        <time>2021-08-16T10:07:12Z</time>
      </trkpt>
      <trkpt lat="44.20779" lon="2.98121">
        <ele>719.2</ele>
        <time>2021-08-16T10:07:14Z</time>
      </trkpt>
      <trkpt lat="44.20785" lon="2.98123">
        <ele>719.3</ele>
        <time>2021-08-16T10:07:16Z</time>
      </trkpt>
      <trkpt lat="44.20791" lon="2.98126">
        <ele>719.1</ele>
        <time>2021-08-16T10:07:18Z</time>
      </trkpt>
      <trkpt lat="44.20798" lon="2.98127">
        <ele>719.4</ele>
        <time>2021-08-16T10:07:20Z</time>
      </trkpt>
      <trkpt lat="44.20803" lon="2.98129">
        <ele>719.5</ele>
        <time>2021-08-16T10:07:22Z</time>
      </trkpt>
      <trkpt lat="44.20809" lon="2.9813">
        <ele>719.7</ele>
        <time>2021-08-16T10:07:24Z</time>
      </trkpt>
      <trkpt lat="44.20814" lon="2.9813">
        <ele>720.2</ele>
        <time>2021-08-16T10:07:26Z</time>
      </trkpt>
      <trkpt lat="44.2082" lon="2.98131">
        <ele>720.6</ele>
        <time>2021-08-16T10:07:28Z</time>
      </trkpt>
      <trkpt lat="44.20825" lon="2.98132">
        <ele>720.7</ele>
        <time>2021-08-16T10:07:30Z</time>
      </trkpt>
      <trkpt lat="44.20831" lon="2.98133">
        <ele>721</ele>
        <time>2021-08-16T10:07:32Z</time>
      </trkpt>
      <trkpt lat="44.20837" lon="2.98133">
        <ele>721.4</ele>
        <time>2021-08-16T10:07:34Z</time>
      </trkpt>
      <trkpt lat="44.20843" lon="2.98134">
        <ele>721.5</ele>
        <time>2021-08-16T10:07:36Z</time>
      </trkpt>
      <trkpt lat="44.2085" lon="2.98136">
        <ele>721.4</ele>
        <time>2021-08-16T10:07:38Z</time>
      </trkpt>
      <trkpt lat="44.20857" lon="2.98138">
        <ele>721.2</ele>
        <time>2021-08-16T10:07:40Z</time>
      </trkpt>
      <trkpt lat="44.20864" lon="2.98142">
        <ele>720.4</ele>
        <time>2021-08-16T10:07:42Z</time>
      </trkpt>
      <trkpt lat="44.20871" lon="2.98146">
        <ele>719.8</ele>
        <time>2021-08-16T10:07:44Z</time>
      </trkpt>
      <trkpt lat="44.20877" lon="2.98151">
        <ele>718.6</ele>
        <time>2021-08-16T10:07:46Z</time>
      </trkpt>
      <trkpt lat="44.20884" lon="2.98155">
        <ele>717.6</ele>
        <time>2021-08-16T10:07:48Z</time>
      </trkpt>
      <trkpt lat="44.2089" lon="2.98161">
        <ele>716.1</ele>
        <time>2021-08-16T10:07:50Z</time>
      </trkpt>
      <trkpt lat="44.20897" lon="2.98167">
        <ele>714.8</ele>
        <time>2021-08-16T10:07:52Z</time>
      </trkpt>
      <trkpt lat="44.20903" lon="2.98173">
        <ele>714.6</ele>
        <time>2021-08-16T10:07:54Z</time>
      </trkpt>
      <trkpt lat="44.20909" lon="2.9818">
        <ele>714.2</ele>
        <time>2021-08-16T10:07:56Z</time>
      </trkpt>
      <trkpt lat="44.20915" lon="2.98186">
        <ele>713.8</ele>
        <time>2021-08-16T10:07:58Z</time>
      </trkpt>
      <trkpt lat="44.2092" lon="2.98192">
        <ele>713.6</ele>
        <time>2021-08-16T10:08:00Z</time>
      </trkpt>
      <trkpt lat="44.20925" lon="2.98198">
        <ele>713.7</ele>
        <time>2021-08-16T10:08:02Z</time>
      </trkpt>
      <trkpt lat="44.2093" lon="2.98204">
        <ele>713.5</ele>
        <time>2021-08-16T10:08:04Z</time>
      </trkpt>
      <trkpt lat="44.20934" lon="2.98211">
        <ele>713.2</ele>
        <time>2021-08-16T10:08:06Z</time>
      </trkpt>
      <trkpt lat="44.20938" lon="2.9822">
        <ele>712.7</ele>
        <time>2021-08-16T10:08:08Z</time>
      </trkpt>
      <trkpt lat="44.20943" lon="2.98229">
        <ele>712.2</ele>
        <time>2021-08-16T10:08:10Z</time>
      </trkpt>
      <trkpt lat="44.20947" lon="2.9824">
        <ele>711.5</ele>
        <time>2021-08-16T10:08:12Z</time>
      </trkpt>
      <trkpt lat="44.20951" lon="2.98251">
        <ele>710.8</ele>
        <time>2021-08-16T10:08:14Z</time>
      </trkpt>
      <trkpt lat="44.20956" lon="2.98262">
        <ele>711.6</ele>
        <time>2021-08-16T10:08:16Z</time>
      </trkpt>
      <trkpt lat="44.2096" lon="2.98274">
        <ele>712.3</ele>
        <time>2021-08-16T10:08:18Z</time>
      </trkpt>
      <trkpt lat="44.20963" lon="2.98286">
        <ele>712.8</ele>
        <time>2021-08-16T10:08:20Z</time>
      </trkpt>
      <trkpt lat="44.20968" lon="2.98297">
        <ele>713.2</ele>
        <time>2021-08-16T10:08:22Z</time>
      </trkpt>
      <trkpt lat="44.20973" lon="2.98308">
        <ele>713.5</ele>
        <time>2021-08-16T10:08:24Z</time>
      </trkpt>
      <trkpt lat="44.20978" lon="2.98317">
        <ele>713.5</ele>
        <time>2021-08-16T10:08:26Z</time>
      </trkpt>
      <trkpt lat="44.20983" lon="2.98324">
        <ele>713.5</ele>
        <time>2021-08-16T10:08:28Z</time>
      </trkpt>
      <trkpt lat="44.20989" lon="2.98331">
        <ele>713.3</ele>
        <time>2021-08-16T10:08:30Z</time>
      </trkpt>
      <trkpt lat="44.20993" lon="2.98338">
        <ele>713.4</ele>
        <time>2021-08-16T10:08:32Z</time>
      </trkpt>
      <trkpt lat="44.20999" lon="2.98343">
        <ele>713.4</ele>
        <time>2021-08-16T10:08:34Z</time>
      </trkpt>
      <trkpt lat="44.21004" lon="2.9835">
        <ele>714.5</ele>
        <time>2021-08-16T10:08:36Z</time>
      </trkpt>
      <trkpt lat="44.21009" lon="2.98357">
        <ele>715.5</ele>
        <time>2021-08-16T10:08:38Z</time>
      </trkpt>
      <trkpt lat="44.21015" lon="2.98363">
        <ele>716.5</ele>
        <time>2021-08-16T10:08:40Z</time>
      </trkpt>
      <trkpt lat="44.2102" lon="2.9837">
        <ele>717.3</ele>
        <time>2021-08-16T10:08:42Z</time>
      </trkpt>
      <trkpt lat="44.21026" lon="2.98377">
        <ele>717.8</ele>
        <time>2021-08-16T10:08:44Z</time>
      </trkpt>
      <trkpt lat="44.2103" lon="2.98387">
        <ele>718</ele>
        <time>2021-08-16T10:08:46Z</time>
      </trkpt>
      <trkpt lat="44.21034" lon="2.98396">
        <ele>717.9</ele>
        <time>2021-08-16T10:08:48Z</time>
      </trkpt>
      <trkpt lat="44.21036" lon="2.98407">
        <ele>717.4</ele>
        <time>2021-08-16T10:08:50Z</time>
      </trkpt>
      <trkpt lat="44.21039" lon="2.98417">
        <ele>717</ele>
        <time>2021-08-16T10:08:52Z</time>
      </trkpt>
      <trkpt lat="44.21042" lon="2.98427">
        <ele>719.4</ele>
        <time>2021-08-16T10:08:54Z</time>
      </trkpt>
      <trkpt lat="44.21045" lon="2.98436">
        <ele>721.7</ele>
        <time>2021-08-16T10:08:56Z</time>
      </trkpt>
      <trkpt lat="44.21048" lon="2.98445">
        <ele>723.9</ele>
        <time>2021-08-16T10:08:58Z</time>
      </trkpt>
      <trkpt lat="44.21053" lon="2.98452">
        <ele>725.4</ele>
        <time>2021-08-16T10:09:00Z</time>
      </trkpt>
      <trkpt lat="44.21059" lon="2.98455">
        <ele>726.1</ele>
        <time>2021-08-16T10:09:02Z</time>
      </trkpt>
      <trkpt lat="44.21063" lon="2.98456">
        <ele>726.3</ele>
        <time>2021-08-16T10:09:04Z</time>
      </trkpt>
      <trkpt lat="44.21067" lon="2.98456">
        <ele>726.1</ele>
        <time>2021-08-16T10:09:06Z</time>
      </trkpt>
      <trkpt lat="44.21071" lon="2.98455">
        <ele>726</ele>
        <time>2021-08-16T10:09:08Z</time>
      </trkpt>
      <trkpt lat="44.21075" lon="2.98454">
        <ele>725.8</ele>
        <time>2021-08-16T10:09:10Z</time>
      </trkpt>
      <trkpt lat="44.21079" lon="2.98454">
        <ele>725.6</ele>
        <time>2021-08-16T10:09:12Z</time>
      </trkpt>
      <trkpt lat="44.21083" lon="2.98454">
        <ele>725.6</ele>
        <time>2021-08-16T10:09:14Z</time>
      </trkpt>
      <trkpt lat="44.21085" lon="2.98453">
        <ele>725.4</ele>
        <time>2021-08-16T10:09:16Z</time>
      </trkpt>
      <trkpt lat="44.2109" lon="2.98452">
        <ele>725.4</ele>
        <time>2021-08-16T10:09:18Z</time>
      </trkpt>
      <trkpt lat="44.21093" lon="2.98452">
        <ele>725.5</ele>
        <time>2021-08-16T10:09:20Z</time>
      </trkpt>
      <trkpt lat="44.21097" lon="2.98452">
        <ele>725.6</ele>
        <time>2021-08-16T10:09:22Z</time>
      </trkpt>
      <trkpt lat="44.211" lon="2.98451">
        <ele>725.5</ele>
        <time>2021-08-16T10:09:24Z</time>
      </trkpt>
      <trkpt lat="44.21103" lon="2.98451">
        <ele>725.7</ele>
        <time>2021-08-16T10:09:26Z</time>
      </trkpt>
      <trkpt lat="44.21107" lon="2.98452">
        <ele>725.9</ele>
        <time>2021-08-16T10:09:28Z</time>
      </trkpt>
      <trkpt lat="44.21111" lon="2.98453">
        <ele>726.2</ele>
        <time>2021-08-16T10:09:30Z</time>
      </trkpt>
      <trkpt lat="44.21114" lon="2.98454">
        <ele>726.4</ele>
        <time>2021-08-16T10:09:32Z</time>
      </trkpt>
      <trkpt lat="44.21117" lon="2.98455">
        <ele>726.6</ele>
        <time>2021-08-16T10:09:34Z</time>
      </trkpt>
      <trkpt lat="44.2112" lon="2.98457">
        <ele>726.9</ele>
        <time>2021-08-16T10:09:36Z</time>
      </trkpt>
      <trkpt lat="44.21124" lon="2.98458">
        <ele>727.2</ele>
        <time>2021-08-16T10:09:38Z</time>
      </trkpt>
      <trkpt lat="44.21128" lon="2.9846">
        <ele>727.5</ele>
        <time>2021-08-16T10:09:40Z</time>
      </trkpt>
      <trkpt lat="44.21131" lon="2.98464">
        <ele>728.1</ele>
        <time>2021-08-16T10:09:42Z</time>
      </trkpt>
      <trkpt lat="44.21135" lon="2.98467">
        <ele>728.5</ele>
        <time>2021-08-16T10:09:44Z</time>
      </trkpt>
      <trkpt lat="44.21138" lon="2.98471">
        <ele>728.9</ele>
        <time>2021-08-16T10:09:46Z</time>
      </trkpt>
      <trkpt lat="44.21141" lon="2.98472">
        <ele>729.1</ele>
        <time>2021-08-16T10:09:48Z</time>
      </trkpt>
      <trkpt lat="44.21143" lon="2.98474">
        <ele>729.3</ele>
        <time>2021-08-16T10:09:50Z</time>
      </trkpt>
      <trkpt lat="44.21147" lon="2.98478">
        <ele>729.7</ele>
        <time>2021-08-16T10:09:52Z</time>
      </trkpt>
      <trkpt lat="44.21149" lon="2.9848">
        <ele>729.8</ele>
        <time>2021-08-16T10:09:54Z</time>
      </trkpt>
      <trkpt lat="44.21153" lon="2.98483">
        <ele>730.1</ele>
        <time>2021-08-16T10:09:56Z</time>
      </trkpt>
      <trkpt lat="44.21156" lon="2.98485">
        <ele>730.1</ele>
        <time>2021-08-16T10:09:58Z</time>
      </trkpt>
      <trkpt lat="44.2116" lon="2.98487">
        <ele>730.3</ele>
        <time>2021-08-16T10:10:00Z</time>
      </trkpt>
      <trkpt lat="44.21163" lon="2.9849">
        <ele>730.4</ele>
        <time>2021-08-16T10:10:02Z</time>
      </trkpt>
      <trkpt lat="44.21166" lon="2.98491">
        <ele>730.4</ele>
        <time>2021-08-16T10:10:04Z</time>
      </trkpt>
      <trkpt lat="44.21169" lon="2.98494">
        <ele>730.4</ele>
        <time>2021-08-16T10:10:06Z</time>
      </trkpt>
      <trkpt lat="44.21172" lon="2.98496">
        <ele>730.3</ele>
        <time>2021-08-16T10:10:08Z</time>
      </trkpt>
      <trkpt lat="44.21175" lon="2.98499">
        <ele>730.3</ele>
        <time>2021-08-16T10:10:10Z</time>
      </trkpt>
      <trkpt lat="44.21178" lon="2.98501">
        <ele>730.5</ele>
        <time>2021-08-16T10:10:12Z</time>
      </trkpt>
      <trkpt lat="44.2118" lon="2.98503">
        <ele>730.9</ele>
        <time>2021-08-16T10:10:14Z</time>
      </trkpt>
      <trkpt lat="44.21183" lon="2.98506">
        <ele>731.5</ele>
        <time>2021-08-16T10:10:16Z</time>
      </trkpt>
      <trkpt lat="44.21186" lon="2.98508">
        <ele>731.8</ele>
        <time>2021-08-16T10:10:18Z</time>
      </trkpt>
      <trkpt lat="44.21189" lon="2.98511">
        <ele>732.2</ele>
        <time>2021-08-16T10:10:20Z</time>
      </trkpt>
      <trkpt lat="44.21191" lon="2.98512">
        <ele>732.5</ele>
        <time>2021-08-16T10:10:22Z</time>
      </trkpt>
      <trkpt lat="44.21194" lon="2.98514">
        <ele>732.6</ele>
        <time>2021-08-16T10:10:24Z</time>
      </trkpt>
      <trkpt lat="44.21197" lon="2.98516">
        <ele>733.1</ele>
        <time>2021-08-16T10:10:26Z</time>
      </trkpt>
      <trkpt lat="44.212" lon="2.98518">
        <ele>733.5</ele>
        <time>2021-08-16T10:10:28Z</time>
      </trkpt>
      <trkpt lat="44.21203" lon="2.9852">
        <ele>733.7</ele>
        <time>2021-08-16T10:10:30Z</time>
      </trkpt>
      <trkpt lat="44.21207" lon="2.98524">
        <ele>734.4</ele>
        <time>2021-08-16T10:10:32Z</time>
      </trkpt>
      <trkpt lat="44.2121" lon="2.98526">
        <ele>734.7</ele>
        <time>2021-08-16T10:10:34Z</time>
      </trkpt>
      <trkpt lat="44.21214" lon="2.98528">
        <ele>734.9</ele>
        <time>2021-08-16T10:10:36Z</time>
      </trkpt>
      <trkpt lat="44.21217" lon="2.9853">
        <ele>735.2</ele>
        <time>2021-08-16T10:10:38Z</time>
      </trkpt>
      <trkpt lat="44.2122" lon="2.98532">
        <ele>735.4</ele>
        <time>2021-08-16T10:10:40Z</time>
      </trkpt>
      <trkpt lat="44.21223" lon="2.98534">
        <ele>735.5</ele>
        <time>2021-08-16T10:10:42Z</time>
      </trkpt>
      <trkpt lat="44.21227" lon="2.98537">
        <ele>735.9</ele>
        <time>2021-08-16T10:10:44Z</time>
      </trkpt>
      <trkpt lat="44.21231" lon="2.98538">
        <ele>736</ele>
        <time>2021-08-16T10:10:46Z</time>
      </trkpt>
      <trkpt lat="44.21234" lon="2.9854">
        <ele>736.2</ele>
        <time>2021-08-16T10:10:48Z</time>
      </trkpt>
      <trkpt lat="44.21237" lon="2.98542">
        <ele>736.4</ele>
        <time>2021-08-16T10:10:50Z</time>
      </trkpt>
      <trkpt lat="44.21241" lon="2.98543">
        <ele>736.4</ele>
        <time>2021-08-16T10:10:52Z</time>
      </trkpt>
      <trkpt lat="44.21244" lon="2.98545">
        <ele>736.4</ele>
        <time>2021-08-16T10:10:54Z</time>
      </trkpt>
      <trkpt lat="44.21247" lon="2.98547">
        <ele>736.8</ele>
        <time>2021-08-16T10:10:56Z</time>
      </trkpt>
      <trkpt lat="44.21251" lon="2.98548">
        <ele>736.6</ele>
        <time>2021-08-16T10:10:58Z</time>
      </trkpt>
      <trkpt lat="44.21254" lon="2.98549">
        <ele>737.1</ele>
        <time>2021-08-16T10:11:00Z</time>
      </trkpt>
      <trkpt lat="44.21257" lon="2.98552">
        <ele>737.8</ele>
        <time>2021-08-16T10:11:02Z</time>
      </trkpt>
      <trkpt lat="44.2126" lon="2.98553">
        <ele>738.1</ele>
        <time>2021-08-16T10:11:04Z</time>
      </trkpt>
      <trkpt lat="44.21264" lon="2.98554">
        <ele>738.5</ele>
        <time>2021-08-16T10:11:06Z</time>
      </trkpt>
      <trkpt lat="44.21267" lon="2.98555">
        <ele>738.8</ele>
        <time>2021-08-16T10:11:08Z</time>
      </trkpt>
      <trkpt lat="44.21271" lon="2.98555">
        <ele>739.1</ele>
        <time>2021-08-16T10:11:10Z</time>
      </trkpt>
      <trkpt lat="44.21275" lon="2.98556">
        <ele>739.3</ele>
        <time>2021-08-16T10:11:12Z</time>
      </trkpt>
      <trkpt lat="44.21278" lon="2.98557">
        <ele>739.6</ele>
        <time>2021-08-16T10:11:14Z</time>
      </trkpt>
      <trkpt lat="44.21282" lon="2.98557">
        <ele>739.6</ele>
        <time>2021-08-16T10:11:16Z</time>
      </trkpt>
      <trkpt lat="44.21286" lon="2.98556">
        <ele>739.6</ele>
        <time>2021-08-16T10:11:18Z</time>
      </trkpt>
      <trkpt lat="44.21289" lon="2.98557">
        <ele>739.7</ele>
        <time>2021-08-16T10:11:20Z</time>
      </trkpt>
      <trkpt lat="44.21293" lon="2.98555">
        <ele>739.5</ele>
        <time>2021-08-16T10:11:22Z</time>
      </trkpt>
      <trkpt lat="44.21296" lon="2.98555">
        <ele>739.5</ele>
        <time>2021-08-16T10:11:24Z</time>
      </trkpt>
      <trkpt lat="44.21299" lon="2.98554">
        <ele>739.2</ele>
        <time>2021-08-16T10:11:26Z</time>
      </trkpt>
      <trkpt lat="44.21303" lon="2.98554">
        <ele>739.3</ele>
        <time>2021-08-16T10:11:28Z</time>
      </trkpt>
      <trkpt lat="44.21307" lon="2.98554">
        <ele>739.4</ele>
        <time>2021-08-16T10:11:30Z</time>
      </trkpt>
      <trkpt lat="44.2131" lon="2.98554">
        <ele>739.4</ele>
        <time>2021-08-16T10:11:32Z</time>
      </trkpt>
      <trkpt lat="44.21315" lon="2.98554">
        <ele>739.5</ele>
        <time>2021-08-16T10:11:34Z</time>
      </trkpt>
      <trkpt lat="44.21318" lon="2.98553">
        <ele>739.5</ele>
        <time>2021-08-16T10:11:36Z</time>
      </trkpt>
      <trkpt lat="44.21322" lon="2.98553">
        <ele>739.4</ele>
        <time>2021-08-16T10:11:38Z</time>
      </trkpt>
      <trkpt lat="44.21326" lon="2.98553">
        <ele>739.6</ele>
        <time>2021-08-16T10:11:40Z</time>
      </trkpt>
      <trkpt lat="44.2133" lon="2.98553">
        <ele>739.7</ele>
        <time>2021-08-16T10:11:42Z</time>
      </trkpt>
      <trkpt lat="44.21334" lon="2.98554">
        <ele>739.9</ele>
        <time>2021-08-16T10:11:44Z</time>
      </trkpt>
      <trkpt lat="44.21339" lon="2.98554">
        <ele>739.9</ele>
        <time>2021-08-16T10:11:46Z</time>
      </trkpt>
      <trkpt lat="44.21342" lon="2.98554">
        <ele>739.7</ele>
        <time>2021-08-16T10:11:48Z</time>
      </trkpt>
      <trkpt lat="44.21346" lon="2.98554">
        <ele>739.6</ele>
        <time>2021-08-16T10:11:50Z</time>
      </trkpt>
      <trkpt lat="44.2135" lon="2.98554">
        <ele>739.6</ele>
        <time>2021-08-16T10:11:52Z</time>
      </trkpt>
      <trkpt lat="44.21353" lon="2.98554">
        <ele>739.4</ele>
        <time>2021-08-16T10:11:54Z</time>
      </trkpt>
      <trkpt lat="44.21356" lon="2.98554">
        <ele>739.5</ele>
        <time>2021-08-16T10:11:56Z</time>
      </trkpt>
      <trkpt lat="44.2136" lon="2.98555">
        <ele>739.5</ele>
        <time>2021-08-16T10:11:58Z</time>
      </trkpt>
      <trkpt lat="44.21364" lon="2.98555">
        <ele>739.6</ele>
        <time>2021-08-16T10:12:00Z</time>
      </trkpt>
      <trkpt lat="44.21368" lon="2.98557">
        <ele>739.8</ele>
        <time>2021-08-16T10:12:02Z</time>
      </trkpt>
      <trkpt lat="44.21372" lon="2.98557">
        <ele>739.8</ele>
        <time>2021-08-16T10:12:04Z</time>
      </trkpt>
      <trkpt lat="44.21375" lon="2.98559">
        <ele>740.2</ele>
        <time>2021-08-16T10:12:06Z</time>
      </trkpt>
      <trkpt lat="44.21379" lon="2.98561">
        <ele>740.6</ele>
        <time>2021-08-16T10:12:08Z</time>
      </trkpt>
      <trkpt lat="44.21383" lon="2.98563">
        <ele>740.9</ele>
        <time>2021-08-16T10:12:10Z</time>
      </trkpt>
      <trkpt lat="44.21386" lon="2.98564">
        <ele>741.2</ele>
        <time>2021-08-16T10:12:12Z</time>
      </trkpt>
      <trkpt lat="44.21389" lon="2.98566">
        <ele>741.6</ele>
        <time>2021-08-16T10:12:14Z</time>
      </trkpt>
      <trkpt lat="44.21393" lon="2.98569">
        <ele>742.1</ele>
        <time>2021-08-16T10:12:16Z</time>
      </trkpt>
      <trkpt lat="44.21396" lon="2.98572">
        <ele>742.7</ele>
        <time>2021-08-16T10:12:18Z</time>
      </trkpt>
      <trkpt lat="44.21399" lon="2.98575">
        <ele>743.5</ele>
        <time>2021-08-16T10:12:20Z</time>
      </trkpt>
      <trkpt lat="44.21403" lon="2.98578">
        <ele>744.1</ele>
        <time>2021-08-16T10:12:22Z</time>
      </trkpt>
      <trkpt lat="44.21406" lon="2.9858">
        <ele>744.5</ele>
        <time>2021-08-16T10:12:24Z</time>
      </trkpt>
      <trkpt lat="44.21408" lon="2.98582">
        <ele>745</ele>
        <time>2021-08-16T10:12:26Z</time>
      </trkpt>
      <trkpt lat="44.21411" lon="2.98587">
        <ele>746.1</ele>
        <time>2021-08-16T10:12:28Z</time>
      </trkpt>
      <trkpt lat="44.21414" lon="2.9859">
        <ele>746.9</ele>
        <time>2021-08-16T10:12:30Z</time>
      </trkpt>
      <trkpt lat="44.21417" lon="2.98592">
        <ele>747.6</ele>
        <time>2021-08-16T10:12:32Z</time>
      </trkpt>
      <trkpt lat="44.2142" lon="2.98595">
        <ele>748.1</ele>
        <time>2021-08-16T10:12:34Z</time>
      </trkpt>
      <trkpt lat="44.21423" lon="2.98598">
        <ele>748.9</ele>
        <time>2021-08-16T10:12:36Z</time>
      </trkpt>
      <trkpt lat="44.21425" lon="2.98601">
        <ele>749.7</ele>
        <time>2021-08-16T10:12:38Z</time>
      </trkpt>
      <trkpt lat="44.21429" lon="2.98605">
        <ele>750.4</ele>
        <time>2021-08-16T10:12:40Z</time>
      </trkpt>
      <trkpt lat="44.21432" lon="2.98608">
        <ele>751</ele>
        <time>2021-08-16T10:12:42Z</time>
      </trkpt>
      <trkpt lat="44.21434" lon="2.98611">
        <ele>751.7</ele>
        <time>2021-08-16T10:12:44Z</time>
      </trkpt>
      <trkpt lat="44.21437" lon="2.98615">
        <ele>752.2</ele>
        <time>2021-08-16T10:12:46Z</time>
      </trkpt>
      <trkpt lat="44.2144" lon="2.98617">
        <ele>752.6</ele>
        <time>2021-08-16T10:12:48Z</time>
      </trkpt>
      <trkpt lat="44.21443" lon="2.98621">
        <ele>753</ele>
        <time>2021-08-16T10:12:50Z</time>
      </trkpt>
      <trkpt lat="44.21446" lon="2.98624">
        <ele>753.5</ele>
        <time>2021-08-16T10:12:52Z</time>
      </trkpt>
      <trkpt lat="44.21448" lon="2.98627">
        <ele>753.9</ele>
        <time>2021-08-16T10:12:54Z</time>
      </trkpt>
      <trkpt lat="44.2145" lon="2.98632">
        <ele>754.6</ele>
        <time>2021-08-16T10:12:56Z</time>
      </trkpt>
      <trkpt lat="44.21452" lon="2.98636">
        <ele>755.1</ele>
        <time>2021-08-16T10:12:58Z</time>
      </trkpt>
      <trkpt lat="44.21454" lon="2.9864">
        <ele>755.6</ele>
        <time>2021-08-16T10:13:00Z</time>
      </trkpt>
      <trkpt lat="44.21456" lon="2.98645">
        <ele>756.3</ele>
        <time>2021-08-16T10:13:02Z</time>
      </trkpt>
      <trkpt lat="44.21458" lon="2.98648">
        <ele>756.7</ele>
        <time>2021-08-16T10:13:04Z</time>
      </trkpt>
      <trkpt lat="44.21459" lon="2.98653">
        <ele>757.4</ele>
        <time>2021-08-16T10:13:06Z</time>
      </trkpt>
      <trkpt lat="44.2146" lon="2.98658">
        <ele>758</ele>
        <time>2021-08-16T10:13:08Z</time>
      </trkpt>
      <trkpt lat="44.21461" lon="2.98663">
        <ele>758.7</ele>
        <time>2021-08-16T10:13:10Z</time>
      </trkpt>
      <trkpt lat="44.21463" lon="2.98667">
        <ele>759.2</ele>
        <time>2021-08-16T10:13:12Z</time>
      </trkpt>
      <trkpt lat="44.21465" lon="2.98672">
        <ele>759.9</ele>
        <time>2021-08-16T10:13:14Z</time>
      </trkpt>
      <trkpt lat="44.21466" lon="2.98677">
        <ele>760.5</ele>
        <time>2021-08-16T10:13:16Z</time>
      </trkpt>
      <trkpt lat="44.21467" lon="2.98682">
        <ele>761.3</ele>
        <time>2021-08-16T10:13:18Z</time>
      </trkpt>
      <trkpt lat="44.21469" lon="2.98686">
        <ele>761.9</ele>
        <time>2021-08-16T10:13:20Z</time>
      </trkpt>
      <trkpt lat="44.21471" lon="2.98691">
        <ele>762.5</ele>
        <time>2021-08-16T10:13:22Z</time>
      </trkpt>
      <trkpt lat="44.21472" lon="2.98696">
        <ele>763.1</ele>
        <time>2021-08-16T10:13:24Z</time>
      </trkpt>
      <trkpt lat="44.21474" lon="2.987">
        <ele>763.7</ele>
        <time>2021-08-16T10:13:26Z</time>
      </trkpt>
      <trkpt lat="44.21476" lon="2.98705">
        <ele>764.1</ele>
        <time>2021-08-16T10:13:28Z</time>
      </trkpt>
      <trkpt lat="44.21479" lon="2.98708">
        <ele>764.1</ele>
        <time>2021-08-16T10:13:30Z</time>
      </trkpt>
      <trkpt lat="44.21482" lon="2.98714">
        <ele>764.5</ele>
        <time>2021-08-16T10:13:32Z</time>
      </trkpt>
      <trkpt lat="44.21484" lon="2.98719">
        <ele>765.1</ele>
        <time>2021-08-16T10:13:34Z</time>
      </trkpt>
      <trkpt lat="44.21487" lon="2.98722">
        <ele>764.8</ele>
        <time>2021-08-16T10:13:36Z</time>
      </trkpt>
      <trkpt lat="44.2149" lon="2.98723">
        <ele>764.4</ele>
        <time>2021-08-16T10:13:38Z</time>
      </trkpt>
      <trkpt lat="44.21492" lon="2.98725">
        <ele>764.2</ele>
        <time>2021-08-16T10:13:40Z</time>
      </trkpt>
      <trkpt lat="44.21493" lon="2.98726">
        <ele>764.2</ele>
        <time>2021-08-16T10:13:42Z</time>
      </trkpt>
      <trkpt lat="44.21496" lon="2.98727">
        <ele>763.7</ele>
        <time>2021-08-16T10:13:44Z</time>
      </trkpt>
      <trkpt lat="44.21498" lon="2.98729">
        <ele>763.5</ele>
        <time>2021-08-16T10:13:46Z</time>
      </trkpt>
      <trkpt lat="44.21499" lon="2.98731">
        <ele>763.7</ele>
        <time>2021-08-16T10:13:48Z</time>
      </trkpt>
      <trkpt lat="44.215" lon="2.98733">
        <ele>763.8</ele>
        <time>2021-08-16T10:13:50Z</time>
      </trkpt>
      <trkpt lat="44.215" lon="2.98733">
        <ele>763.8</ele>
        <time>2021-08-16T10:13:52Z</time>
      </trkpt>
      <trkpt lat="44.21501" lon="2.98733">
        <ele>763.7</ele>
        <time>2021-08-16T10:13:54Z</time>
      </trkpt>
      <trkpt lat="44.21509" lon="2.98739">
        <ele>765.6</ele>
        <time>2021-08-16T10:15:56Z</time>
      </trkpt>
      <trkpt lat="44.21512" lon="2.98741">
        <ele>766</ele>
        <time>2021-08-16T10:15:58Z</time>
      </trkpt>
      <trkpt lat="44.21516" lon="2.98743">
        <ele>766.6</ele>
        <time>2021-08-16T10:16:00Z</time>
      </trkpt>
      <trkpt lat="44.21519" lon="2.98744">
        <ele>766.9</ele>
        <time>2021-08-16T10:16:02Z</time>
      </trkpt>
      <trkpt lat="44.21522" lon="2.98745">
        <ele>767.3</ele>
        <time>2021-08-16T10:16:04Z</time>
      </trkpt>
      <trkpt lat="44.21526" lon="2.98748">
        <ele>767.9</ele>
        <time>2021-08-16T10:16:06Z</time>
      </trkpt>
      <trkpt lat="44.2153" lon="2.98749">
        <ele>768.3</ele>
        <time>2021-08-16T10:16:08Z</time>
      </trkpt>
      <trkpt lat="44.21533" lon="2.98751">
        <ele>768.9</ele>
        <time>2021-08-16T10:16:10Z</time>
      </trkpt>
      <trkpt lat="44.21537" lon="2.98752">
        <ele>769.2</ele>
        <time>2021-08-16T10:16:12Z</time>
      </trkpt>
      <trkpt lat="44.21541" lon="2.98754">
        <ele>769.7</ele>
        <time>2021-08-16T10:16:14Z</time>
      </trkpt>
      <trkpt lat="44.21545" lon="2.98754">
        <ele>769.9</ele>
        <time>2021-08-16T10:16:16Z</time>
      </trkpt>
      <trkpt lat="44.21548" lon="2.98754">
        <ele>770</ele>
        <time>2021-08-16T10:16:18Z</time>
      </trkpt>
      <trkpt lat="44.21553" lon="2.98753">
        <ele>770</ele>
        <time>2021-08-16T10:16:20Z</time>
      </trkpt>
      <trkpt lat="44.21557" lon="2.9875">
        <ele>769.8</ele>
        <time>2021-08-16T10:16:22Z</time>
      </trkpt>
      <trkpt lat="44.21561" lon="2.98748">
        <ele>769.7</ele>
        <time>2021-08-16T10:16:24Z</time>
      </trkpt>
      <trkpt lat="44.21565" lon="2.98745">
        <ele>769.7</ele>
        <time>2021-08-16T10:16:26Z</time>
      </trkpt>
      <trkpt lat="44.21568" lon="2.98743">
        <ele>769.6</ele>
        <time>2021-08-16T10:16:28Z</time>
      </trkpt>
      <trkpt lat="44.21571" lon="2.98739">
        <ele>769.5</ele>
        <time>2021-08-16T10:16:30Z</time>
      </trkpt>
      <trkpt lat="44.21574" lon="2.98734">
        <ele>769.2</ele>
        <time>2021-08-16T10:16:32Z</time>
      </trkpt>
      <trkpt lat="44.21576" lon="2.9873">
        <ele>769</ele>
        <time>2021-08-16T10:16:34Z</time>
      </trkpt>
      <trkpt lat="44.21578" lon="2.98724">
        <ele>768.7</ele>
        <time>2021-08-16T10:16:36Z</time>
      </trkpt>
      <trkpt lat="44.2158" lon="2.98718">
        <ele>768.4</ele>
        <time>2021-08-16T10:16:38Z</time>
      </trkpt>
      <trkpt lat="44.21582" lon="2.98714">
        <ele>768.3</ele>
        <time>2021-08-16T10:16:40Z</time>
      </trkpt>
      <trkpt lat="44.21583" lon="2.98708">
        <ele>767.9</ele>
        <time>2021-08-16T10:16:42Z</time>
      </trkpt>
      <trkpt lat="44.21585" lon="2.98703">
        <ele>768.1</ele>
        <time>2021-08-16T10:16:44Z</time>
      </trkpt>
      <trkpt lat="44.21586" lon="2.98697">
        <ele>768.1</ele>
        <time>2021-08-16T10:16:46Z</time>
      </trkpt>
      <trkpt lat="44.21588" lon="2.98692">
        <ele>768.4</ele>
        <time>2021-08-16T10:16:48Z</time>
      </trkpt>
      <trkpt lat="44.2159" lon="2.98686">
        <ele>768.6</ele>
        <time>2021-08-16T10:16:50Z</time>
      </trkpt>
      <trkpt lat="44.21592" lon="2.9868">
        <ele>768.8</ele>
        <time>2021-08-16T10:16:52Z</time>
      </trkpt>
      <trkpt lat="44.21594" lon="2.98674">
        <ele>769</ele>
        <time>2021-08-16T10:16:54Z</time>
      </trkpt>
      <trkpt lat="44.21595" lon="2.98669">
        <ele>769.2</ele>
        <time>2021-08-16T10:16:56Z</time>
      </trkpt>
      <trkpt lat="44.21597" lon="2.98662">
        <ele>769.2</ele>
        <time>2021-08-16T10:16:58Z</time>
      </trkpt>
      <trkpt lat="44.21597" lon="2.98655">
        <ele>769</ele>
        <time>2021-08-16T10:17:00Z</time>
      </trkpt>
      <trkpt lat="44.21597" lon="2.98648">
        <ele>768.7</ele>
        <time>2021-08-16T10:17:02Z</time>
      </trkpt>
      <trkpt lat="44.21597" lon="2.9864">
        <ele>768.2</ele>
        <time>2021-08-16T10:17:04Z</time>
      </trkpt>
      <trkpt lat="44.21596" lon="2.98634">
        <ele>767.4</ele>
        <time>2021-08-16T10:17:06Z</time>
      </trkpt>
      <trkpt lat="44.21595" lon="2.98627">
        <ele>767</ele>
        <time>2021-08-16T10:17:08Z</time>
      </trkpt>
      <trkpt lat="44.21595" lon="2.9862">
        <ele>766.4</ele>
        <time>2021-08-16T10:17:10Z</time>
      </trkpt>
      <trkpt lat="44.21593" lon="2.98613">
        <ele>765.6</ele>
        <time>2021-08-16T10:17:12Z</time>
      </trkpt>
      <trkpt lat="44.21592" lon="2.98606">
        <ele>764.8</ele>
        <time>2021-08-16T10:17:14Z</time>
      </trkpt>
      <trkpt lat="44.2159" lon="2.98599">
        <ele>764</ele>
        <time>2021-08-16T10:17:16Z</time>
      </trkpt>
      <trkpt lat="44.21589" lon="2.98591">
        <ele>763</ele>
        <time>2021-08-16T10:17:18Z</time>
      </trkpt>
      <trkpt lat="44.21589" lon="2.98584">
        <ele>762.6</ele>
        <time>2021-08-16T10:17:20Z</time>
      </trkpt>
      <trkpt lat="44.21589" lon="2.98578">
        <ele>761.8</ele>
        <time>2021-08-16T10:17:22Z</time>
      </trkpt>
      <trkpt lat="44.21591" lon="2.98571">
        <ele>761.1</ele>
        <time>2021-08-16T10:17:24Z</time>
      </trkpt>
      <trkpt lat="44.21595" lon="2.98564">
        <ele>760.7</ele>
        <time>2021-08-16T10:17:26Z</time>
      </trkpt>
      <trkpt lat="44.21601" lon="2.98557">
        <ele>761</ele>
        <time>2021-08-16T10:17:28Z</time>
      </trkpt>
      <trkpt lat="44.21608" lon="2.98553">
        <ele>762.1</ele>
        <time>2021-08-16T10:17:30Z</time>
      </trkpt>
      <trkpt lat="44.21615" lon="2.98549">
        <ele>762.8</ele>
        <time>2021-08-16T10:17:32Z</time>
      </trkpt>
      <trkpt lat="44.21622" lon="2.98544">
        <ele>763.4</ele>
        <time>2021-08-16T10:17:34Z</time>
      </trkpt>
      <trkpt lat="44.21629" lon="2.98539">
        <ele>764.1</ele>
        <time>2021-08-16T10:17:36Z</time>
      </trkpt>
      <trkpt lat="44.21637" lon="2.98535">
        <ele>765.1</ele>
        <time>2021-08-16T10:17:38Z</time>
      </trkpt>
      <trkpt lat="44.21646" lon="2.98531">
        <ele>766.2</ele>
        <time>2021-08-16T10:17:40Z</time>
      </trkpt>
      <trkpt lat="44.21654" lon="2.98528">
        <ele>767.3</ele>
        <time>2021-08-16T10:17:42Z</time>
      </trkpt>
      <trkpt lat="44.21663" lon="2.98524">
        <ele>768</ele>
        <time>2021-08-16T10:17:44Z</time>
      </trkpt>
      <trkpt lat="44.21671" lon="2.98519">
        <ele>768.5</ele>
        <time>2021-08-16T10:17:46Z</time>
      </trkpt>
      <trkpt lat="44.21679" lon="2.98512">
        <ele>768.5</ele>
        <time>2021-08-16T10:17:48Z</time>
      </trkpt>
      <trkpt lat="44.21686" lon="2.98506">
        <ele>768.7</ele>
        <time>2021-08-16T10:17:50Z</time>
      </trkpt>
      <trkpt lat="44.21694" lon="2.985">
        <ele>769.1</ele>
        <time>2021-08-16T10:17:52Z</time>
      </trkpt>
      <trkpt lat="44.21701" lon="2.98495">
        <ele>769.2</ele>
        <time>2021-08-16T10:17:54Z</time>
      </trkpt>
      <trkpt lat="44.21708" lon="2.9849">
        <ele>769.5</ele>
        <time>2021-08-16T10:17:56Z</time>
      </trkpt>
      <trkpt lat="44.21716" lon="2.98486">
        <ele>769.9</ele>
        <time>2021-08-16T10:17:58Z</time>
      </trkpt>
      <trkpt lat="44.21723" lon="2.98483">
        <ele>770.6</ele>
        <time>2021-08-16T10:18:00Z</time>
      </trkpt>
      <trkpt lat="44.21729" lon="2.9848">
        <ele>771</ele>
        <time>2021-08-16T10:18:02Z</time>
      </trkpt>
      <trkpt lat="44.21736" lon="2.98477">
        <ele>771.5</ele>
        <time>2021-08-16T10:18:04Z</time>
      </trkpt>
      <trkpt lat="44.21742" lon="2.98473">
        <ele>771.8</ele>
        <time>2021-08-16T10:18:06Z</time>
      </trkpt>
      <trkpt lat="44.21749" lon="2.98471">
        <ele>772.6</ele>
        <time>2021-08-16T10:18:08Z</time>
      </trkpt>
      <trkpt lat="44.21755" lon="2.98467">
        <ele>772</ele>
        <time>2021-08-16T10:18:10Z</time>
      </trkpt>
      <trkpt lat="44.21761" lon="2.98462">
        <ele>771.3</ele>
        <time>2021-08-16T10:18:12Z</time>
      </trkpt>
      <trkpt lat="44.21767" lon="2.98457">
        <ele>770.4</ele>
        <time>2021-08-16T10:18:14Z</time>
      </trkpt>
      <trkpt lat="44.21772" lon="2.98453">
        <ele>769.6</ele>
        <time>2021-08-16T10:18:16Z</time>
      </trkpt>
      <trkpt lat="44.21777" lon="2.98449">
        <ele>769.1</ele>
        <time>2021-08-16T10:18:18Z</time>
      </trkpt>
      <trkpt lat="44.21781" lon="2.98446">
        <ele>768.3</ele>
        <time>2021-08-16T10:18:20Z</time>
      </trkpt>
      <trkpt lat="44.21782" lon="2.98445">
        <ele>768.2</ele>
        <time>2021-08-16T10:18:22Z</time>
      </trkpt>
      <trkpt lat="44.21782" lon="2.98445">
        <ele>768.2</ele>
        <time>2021-08-16T10:18:24Z</time>
      </trkpt>
      <trkpt lat="44.21783" lon="2.98446">
        <ele>768.7</ele>
        <time>2021-08-16T10:18:26Z</time>
      </trkpt>
      <trkpt lat="44.21784" lon="2.98446">
        <ele>768.9</ele>
        <time>2021-08-16T10:18:28Z</time>
      </trkpt>
      <trkpt lat="44.21784" lon="2.98446">
        <ele>768.9</ele>
        <time>2021-08-16T10:18:30Z</time>
      </trkpt>
      <trkpt lat="44.21802" lon="2.98445">
        <ele>771.8</ele>
        <time>2021-08-16T10:19:32Z</time>
      </trkpt>
      <trkpt lat="44.21805" lon="2.98444">
        <ele>771.9</ele>
        <time>2021-08-16T10:19:34Z</time>
      </trkpt>
      <trkpt lat="44.21811" lon="2.98442">
        <ele>772</ele>
        <time>2021-08-16T10:19:36Z</time>
      </trkpt>
      <trkpt lat="44.21816" lon="2.98439">
        <ele>771.6</ele>
        <time>2021-08-16T10:19:38Z</time>
      </trkpt>
      <trkpt lat="44.21823" lon="2.98435">
        <ele>771.5</ele>
        <time>2021-08-16T10:19:40Z</time>
      </trkpt>
      <trkpt lat="44.2183" lon="2.98435">
        <ele>772.4</ele>
        <time>2021-08-16T10:19:42Z</time>
      </trkpt>
      <trkpt lat="44.21838" lon="2.98435">
        <ele>773.5</ele>
        <time>2021-08-16T10:19:44Z</time>
      </trkpt>
      <trkpt lat="44.21846" lon="2.98435">
        <ele>773.9</ele>
        <time>2021-08-16T10:19:46Z</time>
      </trkpt>
      <trkpt lat="44.21857" lon="2.98436">
        <ele>774.6</ele>
        <time>2021-08-16T10:19:48Z</time>
      </trkpt>
      <trkpt lat="44.21869" lon="2.98438">
        <ele>776</ele>
        <time>2021-08-16T10:19:50Z</time>
      </trkpt>
      <trkpt lat="44.21881" lon="2.98434">
        <ele>775.4</ele>
        <time>2021-08-16T10:19:52Z</time>
      </trkpt>
      <trkpt lat="44.21893" lon="2.98424">
        <ele>773.7</ele>
        <time>2021-08-16T10:19:54Z</time>
      </trkpt>
      <trkpt lat="44.21895" lon="2.98408">
        <ele>771.2</ele>
        <time>2021-08-16T10:19:56Z</time>
      </trkpt>
      <trkpt lat="44.21893" lon="2.98389">
        <ele>769.3</ele>
        <time>2021-08-16T10:19:58Z</time>
      </trkpt>
      <trkpt lat="44.2189" lon="2.9837">
        <ele>767</ele>
        <time>2021-08-16T10:20:00Z</time>
      </trkpt>
      <trkpt lat="44.21888" lon="2.9835">
        <ele>764.8</ele>
        <time>2021-08-16T10:20:02Z</time>
      </trkpt>
      <trkpt lat="44.21888" lon="2.9833">
        <ele>762.6</ele>
        <time>2021-08-16T10:20:04Z</time>
      </trkpt>
      <trkpt lat="44.21889" lon="2.98311">
        <ele>761</ele>
        <time>2021-08-16T10:20:06Z</time>
      </trkpt>
      <trkpt lat="44.21894" lon="2.98293">
        <ele>760.2</ele>
        <time>2021-08-16T10:20:08Z</time>
      </trkpt>
      <trkpt lat="44.21899" lon="2.98276">
        <ele>759.8</ele>
        <time>2021-08-16T10:20:10Z</time>
      </trkpt>
      <trkpt lat="44.21906" lon="2.98263">
        <ele>760.1</ele>
        <time>2021-08-16T10:20:12Z</time>
      </trkpt>
      <trkpt lat="44.21914" lon="2.98253">
        <ele>760.7</ele>
        <time>2021-08-16T10:20:14Z</time>
      </trkpt>
      <trkpt lat="44.21922" lon="2.98243">
        <ele>761.7</ele>
        <time>2021-08-16T10:20:16Z</time>
      </trkpt>
      <trkpt lat="44.21929" lon="2.98235">
        <ele>762.9</ele>
        <time>2021-08-16T10:20:18Z</time>
      </trkpt>
      <trkpt lat="44.21936" lon="2.98227">
        <ele>763.7</ele>
        <time>2021-08-16T10:20:20Z</time>
      </trkpt>
      <trkpt lat="44.21943" lon="2.98217">
        <ele>764.1</ele>
        <time>2021-08-16T10:20:22Z</time>
      </trkpt>
      <trkpt lat="44.2195" lon="2.98209">
        <ele>764.8</ele>
        <time>2021-08-16T10:20:24Z</time>
      </trkpt>
      <trkpt lat="44.21958" lon="2.98201">
        <ele>765.3</ele>
        <time>2021-08-16T10:20:26Z</time>
      </trkpt>
      <trkpt lat="44.21965" lon="2.98191">
        <ele>765.2</ele>
        <time>2021-08-16T10:20:28Z</time>
      </trkpt>
      <trkpt lat="44.21973" lon="2.98182">
        <ele>765.4</ele>
        <time>2021-08-16T10:20:30Z</time>
      </trkpt>
      <trkpt lat="44.21982" lon="2.98175">
        <ele>765.7</ele>
        <time>2021-08-16T10:20:32Z</time>
      </trkpt>
      <trkpt lat="44.2199" lon="2.98166">
        <ele>765.8</ele>
        <time>2021-08-16T10:20:34Z</time>
      </trkpt>
      <trkpt lat="44.21999" lon="2.9816">
        <ele>766.3</ele>
        <time>2021-08-16T10:20:36Z</time>
      </trkpt>
      <trkpt lat="44.22008" lon="2.98154">
        <ele>766.7</ele>
        <time>2021-08-16T10:20:38Z</time>
      </trkpt>
      <trkpt lat="44.22017" lon="2.98148">
        <ele>766.8</ele>
        <time>2021-08-16T10:20:40Z</time>
      </trkpt>
      <trkpt lat="44.22027" lon="2.98142">
        <ele>766.9</ele>
        <time>2021-08-16T10:20:42Z</time>
      </trkpt>
      <trkpt lat="44.22035" lon="2.98136">
        <ele>766.8</ele>
        <time>2021-08-16T10:20:44Z</time>
      </trkpt>
      <trkpt lat="44.22044" lon="2.98129">
        <ele>766.6</ele>
        <time>2021-08-16T10:20:46Z</time>
      </trkpt>
      <trkpt lat="44.22052" lon="2.98122">
        <ele>766</ele>
        <time>2021-08-16T10:20:48Z</time>
      </trkpt>
      <trkpt lat="44.22061" lon="2.98115">
        <ele>765.8</ele>
        <time>2021-08-16T10:20:50Z</time>
      </trkpt>
      <trkpt lat="44.2207" lon="2.98108">
        <ele>765.2</ele>
        <time>2021-08-16T10:20:52Z</time>
      </trkpt>
      <trkpt lat="44.22078" lon="2.98099">
        <ele>764.1</ele>
        <time>2021-08-16T10:20:54Z</time>
      </trkpt>
      <trkpt lat="44.22087" lon="2.98091">
        <ele>763.9</ele>
        <time>2021-08-16T10:20:56Z</time>
      </trkpt>
      <trkpt lat="44.22095" lon="2.98083">
        <ele>764.6</ele>
        <time>2021-08-16T10:20:58Z</time>
      </trkpt>
      <trkpt lat="44.22104" lon="2.98075">
        <ele>765.7</ele>
        <time>2021-08-16T10:21:00Z</time>
      </trkpt>
      <trkpt lat="44.22112" lon="2.98067">
        <ele>766.3</ele>
        <time>2021-08-16T10:21:02Z</time>
      </trkpt>
      <trkpt lat="44.22121" lon="2.98059">
        <ele>766.7</ele>
        <time>2021-08-16T10:21:04Z</time>
      </trkpt>
      <trkpt lat="44.22129" lon="2.98052">
        <ele>767.1</ele>
        <time>2021-08-16T10:21:06Z</time>
      </trkpt>
      <trkpt lat="44.22137" lon="2.98045">
        <ele>767.4</ele>
        <time>2021-08-16T10:21:08Z</time>
      </trkpt>
      <trkpt lat="44.22146" lon="2.98036">
        <ele>767.2</ele>
        <time>2021-08-16T10:21:10Z</time>
      </trkpt>
      <trkpt lat="44.22154" lon="2.98027">
        <ele>766.3</ele>
        <time>2021-08-16T10:21:12Z</time>
      </trkpt>
      <trkpt lat="44.22161" lon="2.98016">
        <ele>764.9</ele>
        <time>2021-08-16T10:21:14Z</time>
      </trkpt>
      <trkpt lat="44.22168" lon="2.98006">
        <ele>763.1</ele>
        <time>2021-08-16T10:21:16Z</time>
      </trkpt>
      <trkpt lat="44.22175" lon="2.97994">
        <ele>762.8</ele>
        <time>2021-08-16T10:21:18Z</time>
      </trkpt>
      <trkpt lat="44.22182" lon="2.97984">
        <ele>763.4</ele>
        <time>2021-08-16T10:21:20Z</time>
      </trkpt>
      <trkpt lat="44.22189" lon="2.97973">
        <ele>763.7</ele>
        <time>2021-08-16T10:21:22Z</time>
      </trkpt>
      <trkpt lat="44.22196" lon="2.97964">
        <ele>764.1</ele>
        <time>2021-08-16T10:21:24Z</time>
      </trkpt>
      <trkpt lat="44.22203" lon="2.97953">
        <ele>764.1</ele>
        <time>2021-08-16T10:21:26Z</time>
      </trkpt>
      <trkpt lat="44.22211" lon="2.97944">
        <ele>764.1</ele>
        <time>2021-08-16T10:21:28Z</time>
      </trkpt>
      <trkpt lat="44.22218" lon="2.97934">
        <ele>763.8</ele>
        <time>2021-08-16T10:21:30Z</time>
      </trkpt>
      <trkpt lat="44.22226" lon="2.97924">
        <ele>763.4</ele>
        <time>2021-08-16T10:21:32Z</time>
      </trkpt>
      <trkpt lat="44.22234" lon="2.97914">
        <ele>763.1</ele>
        <time>2021-08-16T10:21:34Z</time>
      </trkpt>
      <trkpt lat="44.22243" lon="2.97905">
        <ele>763.4</ele>
        <time>2021-08-16T10:21:36Z</time>
      </trkpt>
      <trkpt lat="44.22251" lon="2.97895">
        <ele>763.4</ele>
        <time>2021-08-16T10:21:38Z</time>
      </trkpt>
      <trkpt lat="44.22259" lon="2.97886">
        <ele>763.8</ele>
        <time>2021-08-16T10:21:40Z</time>
      </trkpt>
      <trkpt lat="44.22268" lon="2.97878">
        <ele>764.3</ele>
        <time>2021-08-16T10:21:42Z</time>
      </trkpt>
      <trkpt lat="44.22276" lon="2.97869">
        <ele>764.8</ele>
        <time>2021-08-16T10:21:44Z</time>
      </trkpt>
      <trkpt lat="44.22284" lon="2.97862">
        <ele>765.5</ele>
        <time>2021-08-16T10:21:46Z</time>
      </trkpt>
      <trkpt lat="44.22293" lon="2.97854">
        <ele>765.9</ele>
        <time>2021-08-16T10:21:48Z</time>
      </trkpt>
      <trkpt lat="44.223" lon="2.97843">
        <ele>765.8</ele>
        <time>2021-08-16T10:21:50Z</time>
      </trkpt>
      <trkpt lat="44.22305" lon="2.97831">
        <ele>765.2</ele>
        <time>2021-08-16T10:21:52Z</time>
      </trkpt>
      <trkpt lat="44.22307" lon="2.97817">
        <ele>764.8</ele>
        <time>2021-08-16T10:21:54Z</time>
      </trkpt>
      <trkpt lat="44.22307" lon="2.97803">
        <ele>764</ele>
        <time>2021-08-16T10:21:56Z</time>
      </trkpt>
      <trkpt lat="44.22307" lon="2.97788">
        <ele>763.1</ele>
        <time>2021-08-16T10:21:58Z</time>
      </trkpt>
      <trkpt lat="44.22307" lon="2.97774">
        <ele>762.3</ele>
        <time>2021-08-16T10:22:00Z</time>
      </trkpt>
      <trkpt lat="44.22307" lon="2.97759">
        <ele>761.6</ele>
        <time>2021-08-16T10:22:02Z</time>
      </trkpt>
      <trkpt lat="44.2231" lon="2.97744">
        <ele>761.4</ele>
        <time>2021-08-16T10:22:04Z</time>
      </trkpt>
      <trkpt lat="44.22314" lon="2.9773">
        <ele>761.4</ele>
        <time>2021-08-16T10:22:06Z</time>
      </trkpt>
      <trkpt lat="44.22317" lon="2.97717">
        <ele>761.2</ele>
        <time>2021-08-16T10:22:08Z</time>
      </trkpt>
      <trkpt lat="44.22319" lon="2.97702">
        <ele>760.7</ele>
        <time>2021-08-16T10:22:10Z</time>
      </trkpt>
      <trkpt lat="44.2232" lon="2.97688">
        <ele>760</ele>
        <time>2021-08-16T10:22:12Z</time>
      </trkpt>
      <trkpt lat="44.22321" lon="2.97675">
        <ele>759.2</ele>
        <time>2021-08-16T10:22:14Z</time>
      </trkpt>
      <trkpt lat="44.22321" lon="2.97662">
        <ele>758.6</ele>
        <time>2021-08-16T10:22:16Z</time>
      </trkpt>
      <trkpt lat="44.22321" lon="2.97648">
        <ele>758.2</ele>
        <time>2021-08-16T10:22:18Z</time>
      </trkpt>
      <trkpt lat="44.2232" lon="2.97634">
        <ele>757.8</ele>
        <time>2021-08-16T10:22:20Z</time>
      </trkpt>
      <trkpt lat="44.22318" lon="2.97621">
        <ele>757.4</ele>
        <time>2021-08-16T10:22:22Z</time>
      </trkpt>
      <trkpt lat="44.22316" lon="2.97609">
        <ele>757.1</ele>
        <time>2021-08-16T10:22:24Z</time>
      </trkpt>
      <trkpt lat="44.22314" lon="2.97596">
        <ele>756.7</ele>
        <time>2021-08-16T10:22:26Z</time>
      </trkpt>
      <trkpt lat="44.22311" lon="2.97584">
        <ele>756.5</ele>
        <time>2021-08-16T10:22:28Z</time>
      </trkpt>
      <trkpt lat="44.22308" lon="2.97572">
        <ele>756.7</ele>
        <time>2021-08-16T10:22:30Z</time>
      </trkpt>
      <trkpt lat="44.22305" lon="2.97559">
        <ele>757</ele>
        <time>2021-08-16T10:22:32Z</time>
      </trkpt>
      <trkpt lat="44.22305" lon="2.97548">
        <ele>757.3</ele>
        <time>2021-08-16T10:22:34Z</time>
      </trkpt>
      <trkpt lat="44.22308" lon="2.97537">
        <ele>757.6</ele>
        <time>2021-08-16T10:22:36Z</time>
      </trkpt>
      <trkpt lat="44.22311" lon="2.97529">
        <ele>757.8</ele>
        <time>2021-08-16T10:22:38Z</time>
      </trkpt>
      <trkpt lat="44.22314" lon="2.97523">
        <ele>757.9</ele>
        <time>2021-08-16T10:22:40Z</time>
      </trkpt>
      <trkpt lat="44.22318" lon="2.97519">
        <ele>758</ele>
        <time>2021-08-16T10:22:42Z</time>
      </trkpt>
      <trkpt lat="44.22321" lon="2.97516">
        <ele>758</ele>
        <time>2021-08-16T10:22:44Z</time>
      </trkpt>
      <trkpt lat="44.22326" lon="2.97513">
        <ele>758</ele>
        <time>2021-08-16T10:22:46Z</time>
      </trkpt>
      <trkpt lat="44.2233" lon="2.97511">
        <ele>757.9</ele>
        <time>2021-08-16T10:22:48Z</time>
      </trkpt>
      <trkpt lat="44.22336" lon="2.9751">
        <ele>758</ele>
        <time>2021-08-16T10:22:50Z</time>
      </trkpt>
      <trkpt lat="44.2234" lon="2.97509">
        <ele>758.2</ele>
        <time>2021-08-16T10:22:52Z</time>
      </trkpt>
      <trkpt lat="44.22345" lon="2.97508">
        <ele>758.5</ele>
        <time>2021-08-16T10:22:54Z</time>
      </trkpt>
      <trkpt lat="44.2235" lon="2.97507">
        <ele>758.7</ele>
        <time>2021-08-16T10:22:56Z</time>
      </trkpt>
      <trkpt lat="44.22355" lon="2.97506">
        <ele>758.9</ele>
        <time>2021-08-16T10:22:58Z</time>
      </trkpt>
      <trkpt lat="44.2236" lon="2.97505">
        <ele>759.1</ele>
        <time>2021-08-16T10:23:00Z</time>
      </trkpt>
      <trkpt lat="44.22365" lon="2.97504">
        <ele>759.3</ele>
        <time>2021-08-16T10:23:02Z</time>
      </trkpt>
      <trkpt lat="44.2237" lon="2.97503">
        <ele>759.4</ele>
        <time>2021-08-16T10:23:04Z</time>
      </trkpt>
      <trkpt lat="44.22375" lon="2.97502">
        <ele>759.6</ele>
        <time>2021-08-16T10:23:06Z</time>
      </trkpt>
      <trkpt lat="44.22379" lon="2.975">
        <ele>759.6</ele>
        <time>2021-08-16T10:23:08Z</time>
      </trkpt>
      <trkpt lat="44.22385" lon="2.97499">
        <ele>759.8</ele>
        <time>2021-08-16T10:23:10Z</time>
      </trkpt>
      <trkpt lat="44.2239" lon="2.97499">
        <ele>759.9</ele>
        <time>2021-08-16T10:23:12Z</time>
      </trkpt>
      <trkpt lat="44.22395" lon="2.97498">
        <ele>760.1</ele>
        <time>2021-08-16T10:23:14Z</time>
      </trkpt>
      <trkpt lat="44.22399" lon="2.97497">
        <ele>760.2</ele>
        <time>2021-08-16T10:23:16Z</time>
      </trkpt>
      <trkpt lat="44.22404" lon="2.97496">
        <ele>760.3</ele>
        <time>2021-08-16T10:23:18Z</time>
      </trkpt>
      <trkpt lat="44.2241" lon="2.97495">
        <ele>760.4</ele>
        <time>2021-08-16T10:23:20Z</time>
      </trkpt>
      <trkpt lat="44.22415" lon="2.97493">
        <ele>760.4</ele>
        <time>2021-08-16T10:23:22Z</time>
      </trkpt>
      <trkpt lat="44.2242" lon="2.97492">
        <ele>760.6</ele>
        <time>2021-08-16T10:23:24Z</time>
      </trkpt>
      <trkpt lat="44.22424" lon="2.97491">
        <ele>760.9</ele>
        <time>2021-08-16T10:23:26Z</time>
      </trkpt>
      <trkpt lat="44.22429" lon="2.9749">
        <ele>761.2</ele>
        <time>2021-08-16T10:23:28Z</time>
      </trkpt>
      <trkpt lat="44.22434" lon="2.97488">
        <ele>761.3</ele>
        <time>2021-08-16T10:23:30Z</time>
      </trkpt>
      <trkpt lat="44.22439" lon="2.97486">
        <ele>761.5</ele>
        <time>2021-08-16T10:23:32Z</time>
      </trkpt>
      <trkpt lat="44.22443" lon="2.97486">
        <ele>761.8</ele>
        <time>2021-08-16T10:23:34Z</time>
      </trkpt>
      <trkpt lat="44.22448" lon="2.97485">
        <ele>762</ele>
        <time>2021-08-16T10:23:36Z</time>
      </trkpt>
      <trkpt lat="44.22453" lon="2.97483">
        <ele>762.2</ele>
        <time>2021-08-16T10:23:38Z</time>
      </trkpt>
      <trkpt lat="44.22458" lon="2.97482">
        <ele>762.4</ele>
        <time>2021-08-16T10:23:40Z</time>
      </trkpt>
      <trkpt lat="44.22463" lon="2.97481">
        <ele>762.7</ele>
        <time>2021-08-16T10:23:42Z</time>
      </trkpt>
      <trkpt lat="44.22468" lon="2.97481">
        <ele>763</ele>
        <time>2021-08-16T10:23:44Z</time>
      </trkpt>
      <trkpt lat="44.22473" lon="2.9748">
        <ele>763.2</ele>
        <time>2021-08-16T10:23:46Z</time>
      </trkpt>
      <trkpt lat="44.22478" lon="2.97479">
        <ele>763.4</ele>
        <time>2021-08-16T10:23:48Z</time>
      </trkpt>
      <trkpt lat="44.22482" lon="2.97477">
        <ele>763.5</ele>
        <time>2021-08-16T10:23:50Z</time>
      </trkpt>
      <trkpt lat="44.22487" lon="2.97477">
        <ele>763.8</ele>
        <time>2021-08-16T10:23:52Z</time>
      </trkpt>
      <trkpt lat="44.22491" lon="2.97477">
        <ele>764.2</ele>
        <time>2021-08-16T10:23:54Z</time>
      </trkpt>
      <trkpt lat="44.22496" lon="2.97478">
        <ele>764.5</ele>
        <time>2021-08-16T10:23:56Z</time>
      </trkpt>
      <trkpt lat="44.225" lon="2.97477">
        <ele>764.8</ele>
        <time>2021-08-16T10:23:58Z</time>
      </trkpt>
      <trkpt lat="44.22505" lon="2.97478">
        <ele>765</ele>
        <time>2021-08-16T10:24:00Z</time>
      </trkpt>
      <trkpt lat="44.22509" lon="2.97478">
        <ele>765.4</ele>
        <time>2021-08-16T10:24:02Z</time>
      </trkpt>
      <trkpt lat="44.22514" lon="2.97479">
        <ele>765.7</ele>
        <time>2021-08-16T10:24:04Z</time>
      </trkpt>
      <trkpt lat="44.22519" lon="2.9748">
        <ele>766</ele>
        <time>2021-08-16T10:24:06Z</time>
      </trkpt>
      <trkpt lat="44.22523" lon="2.9748">
        <ele>766.3</ele>
        <time>2021-08-16T10:24:08Z</time>
      </trkpt>
      <trkpt lat="44.22528" lon="2.9748">
        <ele>766.6</ele>
        <time>2021-08-16T10:24:10Z</time>
      </trkpt>
      <trkpt lat="44.22532" lon="2.97481">
        <ele>767</ele>
        <time>2021-08-16T10:24:12Z</time>
      </trkpt>
      <trkpt lat="44.22536" lon="2.97482">
        <ele>767.4</ele>
        <time>2021-08-16T10:24:14Z</time>
      </trkpt>
      <trkpt lat="44.22541" lon="2.97483">
        <ele>767.8</ele>
        <time>2021-08-16T10:24:16Z</time>
      </trkpt>
      <trkpt lat="44.22545" lon="2.97484">
        <ele>768</ele>
        <time>2021-08-16T10:24:18Z</time>
      </trkpt>
      <trkpt lat="44.22549" lon="2.97484">
        <ele>768.3</ele>
        <time>2021-08-16T10:24:20Z</time>
      </trkpt>
      <trkpt lat="44.22554" lon="2.97484">
        <ele>768.6</ele>
        <time>2021-08-16T10:24:22Z</time>
      </trkpt>
      <trkpt lat="44.22558" lon="2.97484">
        <ele>768.8</ele>
        <time>2021-08-16T10:24:24Z</time>
      </trkpt>
      <trkpt lat="44.22563" lon="2.97486">
        <ele>769.4</ele>
        <time>2021-08-16T10:24:26Z</time>
      </trkpt>
      <trkpt lat="44.22567" lon="2.97486">
        <ele>769.6</ele>
        <time>2021-08-16T10:24:28Z</time>
      </trkpt>
      <trkpt lat="44.22572" lon="2.97488">
        <ele>770.3</ele>
        <time>2021-08-16T10:24:30Z</time>
      </trkpt>
      <trkpt lat="44.22576" lon="2.97489">
        <ele>770.7</ele>
        <time>2021-08-16T10:24:32Z</time>
      </trkpt>
      <trkpt lat="44.2258" lon="2.9749">
        <ele>771</ele>
        <time>2021-08-16T10:24:34Z</time>
      </trkpt>
      <trkpt lat="44.22585" lon="2.97492">
        <ele>771.6</ele>
        <time>2021-08-16T10:24:36Z</time>
      </trkpt>
      <trkpt lat="44.22589" lon="2.97494">
        <ele>771.7</ele>
        <time>2021-08-16T10:24:38Z</time>
      </trkpt>
      <trkpt lat="44.22594" lon="2.97499">
        <ele>772.3</ele>
        <time>2021-08-16T10:24:40Z</time>
      </trkpt>
      <trkpt lat="44.22598" lon="2.97502">
        <ele>772.6</ele>
        <time>2021-08-16T10:24:42Z</time>
      </trkpt>
      <trkpt lat="44.22603" lon="2.97506">
        <ele>773.2</ele>
        <time>2021-08-16T10:24:44Z</time>
      </trkpt>
      <trkpt lat="44.22607" lon="2.97511">
        <ele>773.9</ele>
        <time>2021-08-16T10:24:46Z</time>
      </trkpt>
      <trkpt lat="44.22611" lon="2.97515">
        <ele>774.4</ele>
        <time>2021-08-16T10:24:48Z</time>
      </trkpt>
      <trkpt lat="44.22615" lon="2.97521">
        <ele>775.1</ele>
        <time>2021-08-16T10:24:50Z</time>
      </trkpt>
      <trkpt lat="44.22618" lon="2.97526">
        <ele>775.9</ele>
        <time>2021-08-16T10:24:52Z</time>
      </trkpt>
      <trkpt lat="44.22621" lon="2.97532">
        <ele>776.6</ele>
        <time>2021-08-16T10:24:54Z</time>
      </trkpt>
      <trkpt lat="44.22623" lon="2.97538">
        <ele>777.3</ele>
        <time>2021-08-16T10:24:56Z</time>
      </trkpt>
      <trkpt lat="44.22626" lon="2.97543">
        <ele>777.9</ele>
        <time>2021-08-16T10:24:58Z</time>
      </trkpt>
      <trkpt lat="44.22629" lon="2.97549">
        <ele>778.5</ele>
        <time>2021-08-16T10:25:00Z</time>
      </trkpt>
      <trkpt lat="44.22632" lon="2.97554">
        <ele>778.8</ele>
        <time>2021-08-16T10:25:02Z</time>
      </trkpt>
      <trkpt lat="44.22635" lon="2.9756">
        <ele>779.3</ele>
        <time>2021-08-16T10:25:04Z</time>
      </trkpt>
      <trkpt lat="44.22639" lon="2.97565">
        <ele>779.4</ele>
        <time>2021-08-16T10:25:06Z</time>
      </trkpt>
      <trkpt lat="44.22642" lon="2.9757">
        <ele>779.6</ele>
        <time>2021-08-16T10:25:08Z</time>
      </trkpt>
      <trkpt lat="44.22645" lon="2.97575">
        <ele>779.8</ele>
        <time>2021-08-16T10:25:10Z</time>
      </trkpt>
      <trkpt lat="44.22648" lon="2.9758">
        <ele>779.8</ele>
        <time>2021-08-16T10:25:12Z</time>
      </trkpt>
      <trkpt lat="44.22651" lon="2.97585">
        <ele>780.3</ele>
        <time>2021-08-16T10:25:14Z</time>
      </trkpt>
      <trkpt lat="44.22654" lon="2.9759">
        <ele>780.5</ele>
        <time>2021-08-16T10:25:16Z</time>
      </trkpt>
      <trkpt lat="44.22657" lon="2.97596">
        <ele>781.2</ele>
        <time>2021-08-16T10:25:18Z</time>
      </trkpt>
      <trkpt lat="44.22659" lon="2.97602">
        <ele>781.7</ele>
        <time>2021-08-16T10:25:20Z</time>
      </trkpt>
      <trkpt lat="44.22662" lon="2.97608">
        <ele>782.3</ele>
        <time>2021-08-16T10:25:22Z</time>
      </trkpt>
      <trkpt lat="44.22664" lon="2.97614">
        <ele>783</ele>
        <time>2021-08-16T10:25:24Z</time>
      </trkpt>
      <trkpt lat="44.22666" lon="2.9762">
        <ele>783.7</ele>
        <time>2021-08-16T10:25:26Z</time>
      </trkpt>
      <trkpt lat="44.22668" lon="2.97627">
        <ele>784.6</ele>
        <time>2021-08-16T10:25:28Z</time>
      </trkpt>
      <trkpt lat="44.2267" lon="2.97633">
        <ele>785.5</ele>
        <time>2021-08-16T10:25:30Z</time>
      </trkpt>
      <trkpt lat="44.22671" lon="2.9764">
        <ele>786.2</ele>
        <time>2021-08-16T10:25:32Z</time>
      </trkpt>
      <trkpt lat="44.22673" lon="2.97646">
        <ele>787</ele>
        <time>2021-08-16T10:25:34Z</time>
      </trkpt>
      <trkpt lat="44.22674" lon="2.97653">
        <ele>787.8</ele>
        <time>2021-08-16T10:25:36Z</time>
      </trkpt>
      <trkpt lat="44.22677" lon="2.97659">
        <ele>788.2</ele>
        <time>2021-08-16T10:25:38Z</time>
      </trkpt>
      <trkpt lat="44.22679" lon="2.97666">
        <ele>788.5</ele>
        <time>2021-08-16T10:25:40Z</time>
      </trkpt>
      <trkpt lat="44.22681" lon="2.97673">
        <ele>789</ele>
        <time>2021-08-16T10:25:42Z</time>
      </trkpt>
      <trkpt lat="44.22684" lon="2.9768">
        <ele>789.2</ele>
        <time>2021-08-16T10:25:44Z</time>
      </trkpt>
      <trkpt lat="44.22687" lon="2.97687">
        <ele>789.4</ele>
        <time>2021-08-16T10:25:46Z</time>
      </trkpt>
      <trkpt lat="44.2269" lon="2.97693">
        <ele>789.5</ele>
        <time>2021-08-16T10:25:48Z</time>
      </trkpt>
      <trkpt lat="44.22695" lon="2.97699">
        <ele>789.3</ele>
        <time>2021-08-16T10:25:50Z</time>
      </trkpt>
      <trkpt lat="44.22699" lon="2.97705">
        <ele>789.1</ele>
        <time>2021-08-16T10:25:52Z</time>
      </trkpt>
      <trkpt lat="44.22703" lon="2.9771">
        <ele>788.9</ele>
        <time>2021-08-16T10:25:54Z</time>
      </trkpt>
      <trkpt lat="44.22708" lon="2.97716">
        <ele>788.6</ele>
        <time>2021-08-16T10:25:56Z</time>
      </trkpt>
      <trkpt lat="44.22712" lon="2.97719">
        <ele>788.1</ele>
        <time>2021-08-16T10:25:58Z</time>
      </trkpt>
      <trkpt lat="44.22718" lon="2.97722">
        <ele>787.1</ele>
        <time>2021-08-16T10:26:00Z</time>
      </trkpt>
      <trkpt lat="44.22724" lon="2.97724">
        <ele>786</ele>
        <time>2021-08-16T10:26:02Z</time>
      </trkpt>
      <trkpt lat="44.22729" lon="2.97726">
        <ele>785</ele>
        <time>2021-08-16T10:26:04Z</time>
      </trkpt>
      <trkpt lat="44.22735" lon="2.97728">
        <ele>783.8</ele>
        <time>2021-08-16T10:26:06Z</time>
      </trkpt>
      <trkpt lat="44.22741" lon="2.9773">
        <ele>782.8</ele>
        <time>2021-08-16T10:26:08Z</time>
      </trkpt>
      <trkpt lat="44.22746" lon="2.97731">
        <ele>781.6</ele>
        <time>2021-08-16T10:26:10Z</time>
      </trkpt>
      <trkpt lat="44.22752" lon="2.97733">
        <ele>780.9</ele>
        <time>2021-08-16T10:26:12Z</time>
      </trkpt>
      <trkpt lat="44.22757" lon="2.97735">
        <ele>781</ele>
        <time>2021-08-16T10:26:14Z</time>
      </trkpt>
      <trkpt lat="44.22763" lon="2.97736">
        <ele>781</ele>
        <time>2021-08-16T10:26:16Z</time>
      </trkpt>
      <trkpt lat="44.22768" lon="2.97738">
        <ele>781.1</ele>
        <time>2021-08-16T10:26:18Z</time>
      </trkpt>
      <trkpt lat="44.22773" lon="2.9774">
        <ele>781.2</ele>
        <time>2021-08-16T10:26:20Z</time>
      </trkpt>
      <trkpt lat="44.22779" lon="2.97741">
        <ele>781.1</ele>
        <time>2021-08-16T10:26:22Z</time>
      </trkpt>
      <trkpt lat="44.22784" lon="2.97742">
        <ele>781.1</ele>
        <time>2021-08-16T10:26:24Z</time>
      </trkpt>
      <trkpt lat="44.2279" lon="2.97743">
        <ele>781.1</ele>
        <time>2021-08-16T10:26:26Z</time>
      </trkpt>
      <trkpt lat="44.22795" lon="2.97745">
        <ele>781</ele>
        <time>2021-08-16T10:26:28Z</time>
      </trkpt>
      <trkpt lat="44.228" lon="2.97746">
        <ele>781</ele>
        <time>2021-08-16T10:26:30Z</time>
      </trkpt>
      <trkpt lat="44.22805" lon="2.97747">
        <ele>781</ele>
        <time>2021-08-16T10:26:32Z</time>
      </trkpt>
      <trkpt lat="44.2281" lon="2.97749">
        <ele>781</ele>
        <time>2021-08-16T10:26:34Z</time>
      </trkpt>
      <trkpt lat="44.22815" lon="2.9775">
        <ele>780.9</ele>
        <time>2021-08-16T10:26:36Z</time>
      </trkpt>
      <trkpt lat="44.2282" lon="2.97751">
        <ele>781.1</ele>
        <time>2021-08-16T10:26:38Z</time>
      </trkpt>
      <trkpt lat="44.22825" lon="2.97753">
        <ele>781.4</ele>
        <time>2021-08-16T10:26:40Z</time>
      </trkpt>
      <trkpt lat="44.2283" lon="2.97754">
        <ele>781.6</ele>
        <time>2021-08-16T10:26:42Z</time>
      </trkpt>
      <trkpt lat="44.22835" lon="2.97755">
        <ele>781.9</ele>
        <time>2021-08-16T10:26:44Z</time>
      </trkpt>
      <trkpt lat="44.2284" lon="2.97758">
        <ele>782.5</ele>
        <time>2021-08-16T10:26:46Z</time>
      </trkpt>
      <trkpt lat="44.22845" lon="2.97759">
        <ele>782.9</ele>
        <time>2021-08-16T10:26:48Z</time>
      </trkpt>
      <trkpt lat="44.2285" lon="2.97761">
        <ele>783.3</ele>
        <time>2021-08-16T10:26:50Z</time>
      </trkpt>
      <trkpt lat="44.22855" lon="2.97762">
        <ele>783.6</ele>
        <time>2021-08-16T10:26:52Z</time>
      </trkpt>
      <trkpt lat="44.2286" lon="2.97764">
        <ele>783.9</ele>
        <time>2021-08-16T10:26:54Z</time>
      </trkpt>
      <trkpt lat="44.22865" lon="2.97766">
        <ele>784.3</ele>
        <time>2021-08-16T10:26:56Z</time>
      </trkpt>
      <trkpt lat="44.2287" lon="2.97769">
        <ele>784.8</ele>
        <time>2021-08-16T10:26:58Z</time>
      </trkpt>
      <trkpt lat="44.22875" lon="2.97772">
        <ele>785.4</ele>
        <time>2021-08-16T10:27:00Z</time>
      </trkpt>
      <trkpt lat="44.22881" lon="2.97775">
        <ele>786</ele>
        <time>2021-08-16T10:27:02Z</time>
      </trkpt>
      <trkpt lat="44.22885" lon="2.97777">
        <ele>786.2</ele>
        <time>2021-08-16T10:27:04Z</time>
      </trkpt>
      <trkpt lat="44.2289" lon="2.9778">
        <ele>786.6</ele>
        <time>2021-08-16T10:27:06Z</time>
      </trkpt>
      <trkpt lat="44.22896" lon="2.97783">
        <ele>787</ele>
        <time>2021-08-16T10:27:08Z</time>
      </trkpt>
      <trkpt lat="44.22901" lon="2.97788">
        <ele>787.5</ele>
        <time>2021-08-16T10:27:10Z</time>
      </trkpt>
      <trkpt lat="44.22906" lon="2.9779">
        <ele>787.7</ele>
        <time>2021-08-16T10:27:12Z</time>
      </trkpt>
      <trkpt lat="44.22911" lon="2.97794">
        <ele>787.9</ele>
        <time>2021-08-16T10:27:14Z</time>
      </trkpt>
      <trkpt lat="44.22916" lon="2.97797">
        <ele>788</ele>
        <time>2021-08-16T10:27:16Z</time>
      </trkpt>
      <trkpt lat="44.22921" lon="2.97801">
        <ele>788.6</ele>
        <time>2021-08-16T10:27:18Z</time>
      </trkpt>
      <trkpt lat="44.22927" lon="2.97805">
        <ele>789</ele>
        <time>2021-08-16T10:27:20Z</time>
      </trkpt>
      <trkpt lat="44.22933" lon="2.97809">
        <ele>789.4</ele>
        <time>2021-08-16T10:27:22Z</time>
      </trkpt>
      <trkpt lat="44.22938" lon="2.97813">
        <ele>789.5</ele>
        <time>2021-08-16T10:27:24Z</time>
      </trkpt>
      <trkpt lat="44.22943" lon="2.97817">
        <ele>789.7</ele>
        <time>2021-08-16T10:27:26Z</time>
      </trkpt>
      <trkpt lat="44.22948" lon="2.9782">
        <ele>789.8</ele>
        <time>2021-08-16T10:27:28Z</time>
      </trkpt>
      <trkpt lat="44.22953" lon="2.97823">
        <ele>789.8</ele>
        <time>2021-08-16T10:27:30Z</time>
      </trkpt>
      <trkpt lat="44.22958" lon="2.97826">
        <ele>789.7</ele>
        <time>2021-08-16T10:27:32Z</time>
      </trkpt>
      <trkpt lat="44.22963" lon="2.9783">
        <ele>789.7</ele>
        <time>2021-08-16T10:27:34Z</time>
      </trkpt>
      <trkpt lat="44.22968" lon="2.97833">
        <ele>789.4</ele>
        <time>2021-08-16T10:27:36Z</time>
      </trkpt>
      <trkpt lat="44.22973" lon="2.97836">
        <ele>789.5</ele>
        <time>2021-08-16T10:27:38Z</time>
      </trkpt>
      <trkpt lat="44.22978" lon="2.97839">
        <ele>789.6</ele>
        <time>2021-08-16T10:27:40Z</time>
      </trkpt>
      <trkpt lat="44.22983" lon="2.97842">
        <ele>789.7</ele>
        <time>2021-08-16T10:27:42Z</time>
      </trkpt>
      <trkpt lat="44.22988" lon="2.97844">
        <ele>789.6</ele>
        <time>2021-08-16T10:27:44Z</time>
      </trkpt>
      <trkpt lat="44.22993" lon="2.97847">
        <ele>789.4</ele>
        <time>2021-08-16T10:27:46Z</time>
      </trkpt>
      <trkpt lat="44.22998" lon="2.9785">
        <ele>789.3</ele>
        <time>2021-08-16T10:27:48Z</time>
      </trkpt>
      <trkpt lat="44.23003" lon="2.97854">
        <ele>789.6</ele>
        <time>2021-08-16T10:27:50Z</time>
      </trkpt>
      <trkpt lat="44.23008" lon="2.97858">
        <ele>789.9</ele>
        <time>2021-08-16T10:27:52Z</time>
      </trkpt>
      <trkpt lat="44.23013" lon="2.97863">
        <ele>790.3</ele>
        <time>2021-08-16T10:27:54Z</time>
      </trkpt>
      <trkpt lat="44.23018" lon="2.9787">
        <ele>790.9</ele>
        <time>2021-08-16T10:27:56Z</time>
      </trkpt>
      <trkpt lat="44.23023" lon="2.97877">
        <ele>791.2</ele>
        <time>2021-08-16T10:27:58Z</time>
      </trkpt>
      <trkpt lat="44.23028" lon="2.97884">
        <ele>791.6</ele>
        <time>2021-08-16T10:28:00Z</time>
      </trkpt>
      <trkpt lat="44.23032" lon="2.97891">
        <ele>791.9</ele>
        <time>2021-08-16T10:28:02Z</time>
      </trkpt>
      <trkpt lat="44.23036" lon="2.97897">
        <ele>792.1</ele>
        <time>2021-08-16T10:28:04Z</time>
      </trkpt>
      <trkpt lat="44.23039" lon="2.97904">
        <ele>792.2</ele>
        <time>2021-08-16T10:28:06Z</time>
      </trkpt>
      <trkpt lat="44.23042" lon="2.9791">
        <ele>792.2</ele>
        <time>2021-08-16T10:28:08Z</time>
      </trkpt>
      <trkpt lat="44.23047" lon="2.97915">
        <ele>791.9</ele>
        <time>2021-08-16T10:28:10Z</time>
      </trkpt>
      <trkpt lat="44.23051" lon="2.9792">
        <ele>791.7</ele>
        <time>2021-08-16T10:28:12Z</time>
      </trkpt>
      <trkpt lat="44.23054" lon="2.97925">
        <ele>791.9</ele>
        <time>2021-08-16T10:28:14Z</time>
      </trkpt>
      <trkpt lat="44.23059" lon="2.97929">
        <ele>791.6</ele>
        <time>2021-08-16T10:28:16Z</time>
      </trkpt>
      <trkpt lat="44.23063" lon="2.97933">
        <ele>791.2</ele>
        <time>2021-08-16T10:28:18Z</time>
      </trkpt>
      <trkpt lat="44.23069" lon="2.97937">
        <ele>790.6</ele>
        <time>2021-08-16T10:28:20Z</time>
      </trkpt>
      <trkpt lat="44.23073" lon="2.97942">
        <ele>790</ele>
        <time>2021-08-16T10:28:22Z</time>
      </trkpt>
      <trkpt lat="44.2308" lon="2.97948">
        <ele>789.2</ele>
        <time>2021-08-16T10:28:24Z</time>
      </trkpt>
      <trkpt lat="44.23086" lon="2.97954">
        <ele>788.8</ele>
        <time>2021-08-16T10:28:26Z</time>
      </trkpt>
      <trkpt lat="44.23091" lon="2.9796">
        <ele>789.2</ele>
        <time>2021-08-16T10:28:28Z</time>
      </trkpt>
      <trkpt lat="44.23097" lon="2.97966">
        <ele>789.4</ele>
        <time>2021-08-16T10:28:30Z</time>
      </trkpt>
      <trkpt lat="44.23102" lon="2.97974">
        <ele>789.6</ele>
        <time>2021-08-16T10:28:32Z</time>
      </trkpt>
      <trkpt lat="44.23106" lon="2.97981">
        <ele>789.7</ele>
        <time>2021-08-16T10:28:34Z</time>
      </trkpt>
      <trkpt lat="44.23111" lon="2.9799">
        <ele>789.7</ele>
        <time>2021-08-16T10:28:36Z</time>
      </trkpt>
      <trkpt lat="44.23114" lon="2.97999">
        <ele>789.9</ele>
        <time>2021-08-16T10:28:38Z</time>
      </trkpt>
      <trkpt lat="44.23115" lon="2.98007">
        <ele>790.7</ele>
        <time>2021-08-16T10:28:40Z</time>
      </trkpt>
      <trkpt lat="44.23116" lon="2.98016">
        <ele>791.6</ele>
        <time>2021-08-16T10:28:42Z</time>
      </trkpt>
      <trkpt lat="44.23117" lon="2.98023">
        <ele>792.4</ele>
        <time>2021-08-16T10:28:44Z</time>
      </trkpt>
      <trkpt lat="44.23116" lon="2.98032">
        <ele>793.5</ele>
        <time>2021-08-16T10:28:46Z</time>
      </trkpt>
      <trkpt lat="44.23115" lon="2.9804">
        <ele>794.7</ele>
        <time>2021-08-16T10:28:48Z</time>
      </trkpt>
      <trkpt lat="44.23115" lon="2.98047">
        <ele>795.6</ele>
        <time>2021-08-16T10:28:50Z</time>
      </trkpt>
      <trkpt lat="44.23114" lon="2.98055">
        <ele>796.8</ele>
        <time>2021-08-16T10:28:52Z</time>
      </trkpt>
      <trkpt lat="44.23113" lon="2.98063">
        <ele>797.9</ele>
        <time>2021-08-16T10:28:54Z</time>
      </trkpt>
      <trkpt lat="44.23112" lon="2.98071">
        <ele>799.1</ele>
        <time>2021-08-16T10:28:56Z</time>
      </trkpt>
      <trkpt lat="44.2311" lon="2.98078">
        <ele>800.5</ele>
        <time>2021-08-16T10:28:58Z</time>
      </trkpt>
      <trkpt lat="44.2311" lon="2.98086">
        <ele>801.6</ele>
        <time>2021-08-16T10:29:00Z</time>
      </trkpt>
      <trkpt lat="44.23109" lon="2.98093">
        <ele>802.5</ele>
        <time>2021-08-16T10:29:02Z</time>
      </trkpt>
      <trkpt lat="44.23109" lon="2.98099">
        <ele>803.1</ele>
        <time>2021-08-16T10:29:04Z</time>
      </trkpt>
      <trkpt lat="44.23109" lon="2.98107">
        <ele>803.8</ele>
        <time>2021-08-16T10:29:06Z</time>
      </trkpt>
      <trkpt lat="44.23109" lon="2.98115">
        <ele>804.6</ele>
        <time>2021-08-16T10:29:08Z</time>
      </trkpt>
      <trkpt lat="44.23109" lon="2.98123">
        <ele>805.4</ele>
        <time>2021-08-16T10:29:10Z</time>
      </trkpt>
      <trkpt lat="44.2311" lon="2.98131">
        <ele>805.8</ele>
        <time>2021-08-16T10:29:12Z</time>
      </trkpt>
      <trkpt lat="44.23112" lon="2.98138">
        <ele>806</ele>
        <time>2021-08-16T10:29:14Z</time>
      </trkpt>
      <trkpt lat="44.23112" lon="2.98144">
        <ele>806.5</ele>
        <time>2021-08-16T10:29:16Z</time>
      </trkpt>
      <trkpt lat="44.23115" lon="2.98153">
        <ele>806.7</ele>
        <time>2021-08-16T10:29:18Z</time>
      </trkpt>
      <trkpt lat="44.23118" lon="2.98159">
        <ele>806.4</ele>
        <time>2021-08-16T10:29:20Z</time>
      </trkpt>
      <trkpt lat="44.2312" lon="2.98167">
        <ele>806.4</ele>
        <time>2021-08-16T10:29:22Z</time>
      </trkpt>
      <trkpt lat="44.23123" lon="2.98174">
        <ele>806.4</ele>
        <time>2021-08-16T10:29:24Z</time>
      </trkpt>
      <trkpt lat="44.23126" lon="2.98181">
        <ele>806.5</ele>
        <time>2021-08-16T10:29:26Z</time>
      </trkpt>
      <trkpt lat="44.23128" lon="2.98187">
        <ele>806.6</ele>
        <time>2021-08-16T10:29:28Z</time>
      </trkpt>
      <trkpt lat="44.23131" lon="2.98195">
        <ele>806.6</ele>
        <time>2021-08-16T10:29:30Z</time>
      </trkpt>
      <trkpt lat="44.23134" lon="2.98202">
        <ele>806.4</ele>
        <time>2021-08-16T10:29:32Z</time>
      </trkpt>
      <trkpt lat="44.23138" lon="2.98209">
        <ele>806.1</ele>
        <time>2021-08-16T10:29:34Z</time>
      </trkpt>
      <trkpt lat="44.23141" lon="2.98216">
        <ele>806.2</ele>
        <time>2021-08-16T10:29:36Z</time>
      </trkpt>
      <trkpt lat="44.23143" lon="2.98222">
        <ele>806.2</ele>
        <time>2021-08-16T10:29:38Z</time>
      </trkpt>
      <trkpt lat="44.23146" lon="2.98229">
        <ele>806.2</ele>
        <time>2021-08-16T10:29:40Z</time>
      </trkpt>
      <trkpt lat="44.23148" lon="2.98235">
        <ele>806.5</ele>
        <time>2021-08-16T10:29:42Z</time>
      </trkpt>
      <trkpt lat="44.23152" lon="2.98244">
        <ele>806.2</ele>
        <time>2021-08-16T10:29:44Z</time>
      </trkpt>
      <trkpt lat="44.23155" lon="2.98252">
        <ele>806.4</ele>
        <time>2021-08-16T10:29:46Z</time>
      </trkpt>
      <trkpt lat="44.23156" lon="2.98258">
        <ele>806.9</ele>
        <time>2021-08-16T10:29:48Z</time>
      </trkpt>
      <trkpt lat="44.23159" lon="2.98267">
        <ele>807.2</ele>
        <time>2021-08-16T10:29:50Z</time>
      </trkpt>
      <trkpt lat="44.23163" lon="2.98276">
        <ele>807.6</ele>
        <time>2021-08-16T10:29:52Z</time>
      </trkpt>
      <trkpt lat="44.23166" lon="2.98285">
        <ele>807.7</ele>
        <time>2021-08-16T10:29:54Z</time>
      </trkpt>
      <trkpt lat="44.23168" lon="2.98291">
        <ele>808.4</ele>
        <time>2021-08-16T10:29:56Z</time>
      </trkpt>
      <trkpt lat="44.2317" lon="2.98297">
        <ele>809.1</ele>
        <time>2021-08-16T10:29:58Z</time>
      </trkpt>
      <trkpt lat="44.23175" lon="2.98309">
        <ele>810.2</ele>
        <time>2021-08-16T10:30:00Z</time>
      </trkpt>
      <trkpt lat="44.23179" lon="2.98317">
        <ele>810.9</ele>
        <time>2021-08-16T10:30:02Z</time>
      </trkpt>
      <trkpt lat="44.23183" lon="2.98327">
        <ele>811.3</ele>
        <time>2021-08-16T10:30:04Z</time>
      </trkpt>
      <trkpt lat="44.23186" lon="2.98336">
        <ele>811.6</ele>
        <time>2021-08-16T10:30:06Z</time>
      </trkpt>
      <trkpt lat="44.2319" lon="2.98343">
        <ele>811.6</ele>
        <time>2021-08-16T10:30:08Z</time>
      </trkpt>
      <trkpt lat="44.23195" lon="2.98349">
        <ele>811.3</ele>
        <time>2021-08-16T10:30:10Z</time>
      </trkpt>
      <trkpt lat="44.23204" lon="2.98352">
        <ele>810.3</ele>
        <time>2021-08-16T10:30:12Z</time>
      </trkpt>
      <trkpt lat="44.23208" lon="2.98357">
        <ele>810</ele>
        <time>2021-08-16T10:30:14Z</time>
      </trkpt>
      <trkpt lat="44.23214" lon="2.98361">
        <ele>809.3</ele>
        <time>2021-08-16T10:30:16Z</time>
      </trkpt>
      <trkpt lat="44.23224" lon="2.98365">
        <ele>808</ele>
        <time>2021-08-16T10:30:18Z</time>
      </trkpt>
      <trkpt lat="44.23229" lon="2.98367">
        <ele>807.2</ele>
        <time>2021-08-16T10:30:20Z</time>
      </trkpt>
      <trkpt lat="44.23236" lon="2.98373">
        <ele>806.4</ele>
        <time>2021-08-16T10:30:22Z</time>
      </trkpt>
      <trkpt lat="44.23242" lon="2.98381">
        <ele>805.5</ele>
        <time>2021-08-16T10:30:24Z</time>
      </trkpt>
      <trkpt lat="44.23249" lon="2.98389">
        <ele>804.5</ele>
        <time>2021-08-16T10:30:26Z</time>
      </trkpt>
      <trkpt lat="44.23255" lon="2.98396">
        <ele>804.5</ele>
        <time>2021-08-16T10:30:28Z</time>
      </trkpt>
      <trkpt lat="44.23261" lon="2.98406">
        <ele>804.5</ele>
        <time>2021-08-16T10:30:30Z</time>
      </trkpt>
      <trkpt lat="44.23265" lon="2.98415">
        <ele>804.3</ele>
        <time>2021-08-16T10:30:32Z</time>
      </trkpt>
      <trkpt lat="44.23271" lon="2.98423">
        <ele>804.3</ele>
        <time>2021-08-16T10:30:34Z</time>
      </trkpt>
      <trkpt lat="44.23275" lon="2.98429">
        <ele>804.2</ele>
        <time>2021-08-16T10:30:36Z</time>
      </trkpt>
      <trkpt lat="44.23279" lon="2.98437">
        <ele>804.1</ele>
        <time>2021-08-16T10:30:38Z</time>
      </trkpt>
      <trkpt lat="44.23282" lon="2.98444">
        <ele>804</ele>
        <time>2021-08-16T10:30:40Z</time>
      </trkpt>
      <trkpt lat="44.23286" lon="2.98452">
        <ele>803.6</ele>
        <time>2021-08-16T10:30:42Z</time>
      </trkpt>
      <trkpt lat="44.2329" lon="2.9846">
        <ele>803.3</ele>
        <time>2021-08-16T10:30:44Z</time>
      </trkpt>
      <trkpt lat="44.23293" lon="2.98467">
        <ele>802.8</ele>
        <time>2021-08-16T10:30:46Z</time>
      </trkpt>
      <trkpt lat="44.23296" lon="2.98474">
        <ele>802.2</ele>
        <time>2021-08-16T10:30:48Z</time>
      </trkpt>
      <trkpt lat="44.233" lon="2.98482">
        <ele>801.5</ele>
        <time>2021-08-16T10:30:50Z</time>
      </trkpt>
      <trkpt lat="44.23303" lon="2.98489">
        <ele>800.7</ele>
        <time>2021-08-16T10:30:52Z</time>
      </trkpt>
      <trkpt lat="44.23306" lon="2.98496">
        <ele>800.1</ele>
        <time>2021-08-16T10:30:54Z</time>
      </trkpt>
      <trkpt lat="44.2331" lon="2.98503">
        <ele>799.4</ele>
        <time>2021-08-16T10:30:56Z</time>
      </trkpt>
      <trkpt lat="44.23313" lon="2.98509">
        <ele>799.4</ele>
        <time>2021-08-16T10:30:58Z</time>
      </trkpt>
      <trkpt lat="44.23315" lon="2.98515">
        <ele>799.5</ele>
        <time>2021-08-16T10:31:00Z</time>
      </trkpt>
      <trkpt lat="44.23318" lon="2.98522">
        <ele>799.6</ele>
        <time>2021-08-16T10:31:02Z</time>
      </trkpt>
      <trkpt lat="44.23321" lon="2.98527">
        <ele>799.6</ele>
        <time>2021-08-16T10:31:04Z</time>
      </trkpt>
      <trkpt lat="44.23324" lon="2.98533">
        <ele>799.7</ele>
        <time>2021-08-16T10:31:06Z</time>
      </trkpt>
      <trkpt lat="44.23327" lon="2.98537">
        <ele>799.6</ele>
        <time>2021-08-16T10:31:08Z</time>
      </trkpt>
      <trkpt lat="44.2333" lon="2.9854">
        <ele>799.4</ele>
        <time>2021-08-16T10:31:10Z</time>
      </trkpt>
      <trkpt lat="44.23333" lon="2.98543">
        <ele>799.3</ele>
        <time>2021-08-16T10:31:12Z</time>
      </trkpt>
      <trkpt lat="44.23337" lon="2.98546">
        <ele>799.5</ele>
        <time>2021-08-16T10:31:14Z</time>
      </trkpt>
      <trkpt lat="44.23341" lon="2.98547">
        <ele>799.5</ele>
        <time>2021-08-16T10:31:16Z</time>
      </trkpt>
      <trkpt lat="44.23346" lon="2.9855">
        <ele>799.7</ele>
        <time>2021-08-16T10:31:18Z</time>
      </trkpt>
      <trkpt lat="44.23351" lon="2.98552">
        <ele>799.8</ele>
        <time>2021-08-16T10:31:20Z</time>
      </trkpt>
      <trkpt lat="44.23356" lon="2.98553">
        <ele>799.8</ele>
        <time>2021-08-16T10:31:22Z</time>
      </trkpt>
      <trkpt lat="44.2336" lon="2.98554">
        <ele>799.8</ele>
        <time>2021-08-16T10:31:24Z</time>
      </trkpt>
      <trkpt lat="44.23365" lon="2.98555">
        <ele>799.7</ele>
        <time>2021-08-16T10:31:26Z</time>
      </trkpt>
      <trkpt lat="44.23369" lon="2.98555">
        <ele>799.6</ele>
        <time>2021-08-16T10:31:28Z</time>
      </trkpt>
      <trkpt lat="44.23374" lon="2.98556">
        <ele>799.5</ele>
        <time>2021-08-16T10:31:30Z</time>
      </trkpt>
      <trkpt lat="44.23378" lon="2.98556">
        <ele>799.5</ele>
        <time>2021-08-16T10:31:32Z</time>
      </trkpt>
      <trkpt lat="44.23383" lon="2.98557">
        <ele>799.4</ele>
        <time>2021-08-16T10:31:34Z</time>
      </trkpt>
      <trkpt lat="44.23388" lon="2.98557">
        <ele>799.3</ele>
        <time>2021-08-16T10:31:36Z</time>
      </trkpt>
      <trkpt lat="44.23393" lon="2.98557">
        <ele>799.2</ele>
        <time>2021-08-16T10:31:38Z</time>
      </trkpt>
      <trkpt lat="44.23397" lon="2.98558">
        <ele>799.1</ele>
        <time>2021-08-16T10:31:40Z</time>
      </trkpt>
      <trkpt lat="44.23402" lon="2.98558">
        <ele>798.9</ele>
        <time>2021-08-16T10:31:42Z</time>
      </trkpt>
      <trkpt lat="44.23407" lon="2.98559">
        <ele>798.8</ele>
        <time>2021-08-16T10:31:44Z</time>
      </trkpt>
      <trkpt lat="44.23412" lon="2.9856">
        <ele>798.8</ele>
        <time>2021-08-16T10:31:46Z</time>
      </trkpt>
      <trkpt lat="44.23417" lon="2.9856">
        <ele>798.6</ele>
        <time>2021-08-16T10:31:48Z</time>
      </trkpt>
      <trkpt lat="44.23421" lon="2.98561">
        <ele>799.1</ele>
        <time>2021-08-16T10:31:50Z</time>
      </trkpt>
      <trkpt lat="44.23426" lon="2.98561">
        <ele>799.5</ele>
        <time>2021-08-16T10:31:52Z</time>
      </trkpt>
      <trkpt lat="44.23431" lon="2.98562">
        <ele>800</ele>
        <time>2021-08-16T10:31:54Z</time>
      </trkpt>
      <trkpt lat="44.23436" lon="2.98563">
        <ele>800.6</ele>
        <time>2021-08-16T10:31:56Z</time>
      </trkpt>
      <trkpt lat="44.23441" lon="2.98563">
        <ele>801.1</ele>
        <time>2021-08-16T10:31:58Z</time>
      </trkpt>
      <trkpt lat="44.23446" lon="2.98563">
        <ele>801.6</ele>
        <time>2021-08-16T10:32:00Z</time>
      </trkpt>
      <trkpt lat="44.23451" lon="2.98564">
        <ele>802.1</ele>
        <time>2021-08-16T10:32:02Z</time>
      </trkpt>
      <trkpt lat="44.23456" lon="2.98565">
        <ele>802.6</ele>
        <time>2021-08-16T10:32:04Z</time>
      </trkpt>
      <trkpt lat="44.23461" lon="2.98565">
        <ele>803.1</ele>
        <time>2021-08-16T10:32:06Z</time>
      </trkpt>
      <trkpt lat="44.23466" lon="2.98565">
        <ele>803.6</ele>
        <time>2021-08-16T10:32:08Z</time>
      </trkpt>
      <trkpt lat="44.23471" lon="2.98566">
        <ele>804.1</ele>
        <time>2021-08-16T10:32:10Z</time>
      </trkpt>
      <trkpt lat="44.23476" lon="2.98566">
        <ele>804.7</ele>
        <time>2021-08-16T10:32:12Z</time>
      </trkpt>
      <trkpt lat="44.23481" lon="2.98567">
        <ele>805.2</ele>
        <time>2021-08-16T10:32:14Z</time>
      </trkpt>
      <trkpt lat="44.23486" lon="2.98567">
        <ele>805.7</ele>
        <time>2021-08-16T10:32:16Z</time>
      </trkpt>
      <trkpt lat="44.23491" lon="2.98568">
        <ele>806.2</ele>
        <time>2021-08-16T10:32:18Z</time>
      </trkpt>
      <trkpt lat="44.23495" lon="2.98569">
        <ele>806.8</ele>
        <time>2021-08-16T10:32:20Z</time>
      </trkpt>
      <trkpt lat="44.235" lon="2.98569">
        <ele>807.3</ele>
        <time>2021-08-16T10:32:22Z</time>
      </trkpt>
      <trkpt lat="44.23504" lon="2.98569">
        <ele>807.5</ele>
        <time>2021-08-16T10:32:24Z</time>
      </trkpt>
      <trkpt lat="44.23509" lon="2.9857">
        <ele>807.8</ele>
        <time>2021-08-16T10:32:26Z</time>
      </trkpt>
      <trkpt lat="44.23513" lon="2.9857">
        <ele>808</ele>
        <time>2021-08-16T10:32:28Z</time>
      </trkpt>
      <trkpt lat="44.23517" lon="2.9857">
        <ele>808.1</ele>
        <time>2021-08-16T10:32:30Z</time>
      </trkpt>
      <trkpt lat="44.23521" lon="2.98571">
        <ele>808.4</ele>
        <time>2021-08-16T10:32:32Z</time>
      </trkpt>
      <trkpt lat="44.23525" lon="2.9857">
        <ele>808.5</ele>
        <time>2021-08-16T10:32:34Z</time>
      </trkpt>
      <trkpt lat="44.23529" lon="2.9857">
        <ele>808.7</ele>
        <time>2021-08-16T10:32:36Z</time>
      </trkpt>
      <trkpt lat="44.23534" lon="2.98571">
        <ele>809</ele>
        <time>2021-08-16T10:32:38Z</time>
      </trkpt>
      <trkpt lat="44.23538" lon="2.98571">
        <ele>809.1</ele>
        <time>2021-08-16T10:32:40Z</time>
      </trkpt>
      <trkpt lat="44.23542" lon="2.98571">
        <ele>809.4</ele>
        <time>2021-08-16T10:32:42Z</time>
      </trkpt>
      <trkpt lat="44.23546" lon="2.98573">
        <ele>809.8</ele>
        <time>2021-08-16T10:32:44Z</time>
      </trkpt>
      <trkpt lat="44.2355" lon="2.98573">
        <ele>810</ele>
        <time>2021-08-16T10:32:46Z</time>
      </trkpt>
      <trkpt lat="44.23554" lon="2.98572">
        <ele>810.1</ele>
        <time>2021-08-16T10:32:48Z</time>
      </trkpt>
      <trkpt lat="44.23558" lon="2.98572">
        <ele>810.3</ele>
        <time>2021-08-16T10:32:50Z</time>
      </trkpt>
      <trkpt lat="44.23562" lon="2.98573">
        <ele>810.5</ele>
        <time>2021-08-16T10:32:52Z</time>
      </trkpt>
      <trkpt lat="44.23566" lon="2.98572">
        <ele>810.6</ele>
        <time>2021-08-16T10:32:54Z</time>
      </trkpt>
      <trkpt lat="44.2357" lon="2.98574">
        <ele>811</ele>
        <time>2021-08-16T10:32:56Z</time>
      </trkpt>
      <trkpt lat="44.23575" lon="2.98574">
        <ele>811.3</ele>
        <time>2021-08-16T10:32:58Z</time>
      </trkpt>
      <trkpt lat="44.23579" lon="2.98572">
        <ele>811.2</ele>
        <time>2021-08-16T10:33:00Z</time>
      </trkpt>
      <trkpt lat="44.23584" lon="2.98572">
        <ele>811.4</ele>
        <time>2021-08-16T10:33:02Z</time>
      </trkpt>
      <trkpt lat="44.23588" lon="2.98572">
        <ele>811.6</ele>
        <time>2021-08-16T10:33:04Z</time>
      </trkpt>
      <trkpt lat="44.23592" lon="2.98572">
        <ele>811.8</ele>
        <time>2021-08-16T10:33:06Z</time>
      </trkpt>
      <trkpt lat="44.23596" lon="2.98571">
        <ele>811.9</ele>
        <time>2021-08-16T10:33:08Z</time>
      </trkpt>
      <trkpt lat="44.23601" lon="2.9857">
        <ele>812</ele>
        <time>2021-08-16T10:33:10Z</time>
      </trkpt>
      <trkpt lat="44.23605" lon="2.9857">
        <ele>812.1</ele>
        <time>2021-08-16T10:33:12Z</time>
      </trkpt>
      <trkpt lat="44.23609" lon="2.98568">
        <ele>812.1</ele>
        <time>2021-08-16T10:33:14Z</time>
      </trkpt>
      <trkpt lat="44.23613" lon="2.98567">
        <ele>812</ele>
        <time>2021-08-16T10:33:16Z</time>
      </trkpt>
      <trkpt lat="44.23617" lon="2.98565">
        <ele>811.9</ele>
        <time>2021-08-16T10:33:18Z</time>
      </trkpt>
      <trkpt lat="44.2362" lon="2.98563">
        <ele>811.8</ele>
        <time>2021-08-16T10:33:20Z</time>
      </trkpt>
      <trkpt lat="44.23624" lon="2.98562">
        <ele>811.8</ele>
        <time>2021-08-16T10:33:22Z</time>
      </trkpt>
      <trkpt lat="44.23627" lon="2.9856">
        <ele>811.8</ele>
        <time>2021-08-16T10:33:24Z</time>
      </trkpt>
      <trkpt lat="44.23631" lon="2.98558">
        <ele>811.6</ele>
        <time>2021-08-16T10:33:26Z</time>
      </trkpt>
      <trkpt lat="44.23634" lon="2.98557">
        <ele>811.6</ele>
        <time>2021-08-16T10:33:28Z</time>
      </trkpt>
      <trkpt lat="44.23638" lon="2.98555">
        <ele>811.5</ele>
        <time>2021-08-16T10:33:30Z</time>
      </trkpt>
      <trkpt lat="44.23641" lon="2.98553">
        <ele>811.4</ele>
        <time>2021-08-16T10:33:32Z</time>
      </trkpt>
      <trkpt lat="44.23645" lon="2.98552">
        <ele>811.4</ele>
        <time>2021-08-16T10:33:34Z</time>
      </trkpt>
      <trkpt lat="44.23648" lon="2.9855">
        <ele>811.3</ele>
        <time>2021-08-16T10:33:36Z</time>
      </trkpt>
      <trkpt lat="44.23652" lon="2.98548">
        <ele>811.3</ele>
        <time>2021-08-16T10:33:38Z</time>
      </trkpt>
      <trkpt lat="44.23656" lon="2.98549">
        <ele>811.5</ele>
        <time>2021-08-16T10:33:40Z</time>
      </trkpt>
      <trkpt lat="44.23659" lon="2.9855">
        <ele>811.8</ele>
        <time>2021-08-16T10:33:42Z</time>
      </trkpt>
      <trkpt lat="44.23662" lon="2.98552">
        <ele>812.3</ele>
        <time>2021-08-16T10:33:44Z</time>
      </trkpt>
      <trkpt lat="44.23664" lon="2.98556">
        <ele>812.9</ele>
        <time>2021-08-16T10:33:46Z</time>
      </trkpt>
      <trkpt lat="44.23666" lon="2.98558">
        <ele>813.3</ele>
        <time>2021-08-16T10:33:48Z</time>
      </trkpt>
      <trkpt lat="44.23668" lon="2.9856">
        <ele>813.7</ele>
        <time>2021-08-16T10:33:50Z</time>
      </trkpt>
      <trkpt lat="44.23672" lon="2.98563">
        <ele>814</ele>
        <time>2021-08-16T10:33:52Z</time>
      </trkpt>
      <trkpt lat="44.23676" lon="2.98565">
        <ele>814.3</ele>
        <time>2021-08-16T10:33:54Z</time>
      </trkpt>
      <trkpt lat="44.2368" lon="2.98564">
        <ele>814.2</ele>
        <time>2021-08-16T10:33:56Z</time>
      </trkpt>
      <trkpt lat="44.23686" lon="2.98562">
        <ele>813.9</ele>
        <time>2021-08-16T10:33:58Z</time>
      </trkpt>
      <trkpt lat="44.2369" lon="2.98563">
        <ele>814</ele>
        <time>2021-08-16T10:34:00Z</time>
      </trkpt>
      <trkpt lat="44.23692" lon="2.98562">
        <ele>814</ele>
        <time>2021-08-16T10:34:02Z</time>
      </trkpt>
      <trkpt lat="44.23695" lon="2.98562">
        <ele>814</ele>
        <time>2021-08-16T10:34:04Z</time>
      </trkpt>
      <trkpt lat="44.23698" lon="2.98562">
        <ele>813.9</ele>
        <time>2021-08-16T10:34:06Z</time>
      </trkpt>
      <trkpt lat="44.23699" lon="2.9856">
        <ele>813.7</ele>
        <time>2021-08-16T10:34:08Z</time>
      </trkpt>
      <trkpt lat="44.23699" lon="2.9856">
        <ele>813.7</ele>
        <time>2021-08-16T10:34:10Z</time>
      </trkpt>
      <trkpt lat="44.23699" lon="2.9856">
        <ele>813.7</ele>
        <time>2021-08-16T10:34:12Z</time>
      </trkpt>
      <trkpt lat="44.23698" lon="2.98561">
        <ele>813.8</ele>
        <time>2021-08-16T10:34:14Z</time>
      </trkpt>
      <trkpt lat="44.23699" lon="2.9856">
        <ele>813.7</ele>
        <time>2021-08-16T10:34:16Z</time>
      </trkpt>
      <trkpt lat="44.23712" lon="2.9856">
        <ele>813.7</ele>
        <time>2021-08-16T10:37:10Z</time>
      </trkpt>
      <trkpt lat="44.23716" lon="2.98563">
        <ele>814</ele>
        <time>2021-08-16T10:37:12Z</time>
      </trkpt>
      <trkpt lat="44.2372" lon="2.98565">
        <ele>814.3</ele>
        <time>2021-08-16T10:37:14Z</time>
      </trkpt>
      <trkpt lat="44.23724" lon="2.98567">
        <ele>814.5</ele>
        <time>2021-08-16T10:37:16Z</time>
      </trkpt>
      <trkpt lat="44.23728" lon="2.98569">
        <ele>814.7</ele>
        <time>2021-08-16T10:37:18Z</time>
      </trkpt>
      <trkpt lat="44.23733" lon="2.9857">
        <ele>814.8</ele>
        <time>2021-08-16T10:37:20Z</time>
      </trkpt>
      <trkpt lat="44.23738" lon="2.98572">
        <ele>815</ele>
        <time>2021-08-16T10:37:22Z</time>
      </trkpt>
      <trkpt lat="44.23743" lon="2.98572">
        <ele>815</ele>
        <time>2021-08-16T10:37:24Z</time>
      </trkpt>
      <trkpt lat="44.23747" lon="2.9857">
        <ele>814.8</ele>
        <time>2021-08-16T10:37:26Z</time>
      </trkpt>
      <trkpt lat="44.23751" lon="2.98569">
        <ele>814.7</ele>
        <time>2021-08-16T10:37:28Z</time>
      </trkpt>
      <trkpt lat="44.23754" lon="2.98567">
        <ele>814.5</ele>
        <time>2021-08-16T10:37:30Z</time>
      </trkpt>
      <trkpt lat="44.23756" lon="2.98568">
        <ele>814.6</ele>
        <time>2021-08-16T10:37:32Z</time>
      </trkpt>
      <trkpt lat="44.23759" lon="2.98569">
        <ele>814.8</ele>
        <time>2021-08-16T10:37:34Z</time>
      </trkpt>
      <trkpt lat="44.2376" lon="2.98568">
        <ele>814.7</ele>
        <time>2021-08-16T10:37:36Z</time>
      </trkpt>
      <trkpt lat="44.2376" lon="2.98568">
        <ele>814.6</ele>
        <time>2021-08-16T10:37:38Z</time>
      </trkpt>
      <trkpt lat="44.2376" lon="2.98568">
        <ele>814.6</ele>
        <time>2021-08-16T10:37:40Z</time>
      </trkpt>
      <trkpt lat="44.2376" lon="2.98568">
        <ele>814.6</ele>
        <time>2021-08-16T10:37:42Z</time>
      </trkpt>
      <trkpt lat="44.23761" lon="2.98567">
        <ele>814.6</ele>
        <time>2021-08-16T10:37:44Z</time>
      </trkpt>
      <trkpt lat="44.2377" lon="2.98573">
        <ele>815.3</ele>
        <time>2021-08-16T10:40:28Z</time>
      </trkpt>
      <trkpt lat="44.23774" lon="2.98575">
        <ele>815.5</ele>
        <time>2021-08-16T10:40:30Z</time>
      </trkpt>
      <trkpt lat="44.2378" lon="2.98576">
        <ele>815.7</ele>
        <time>2021-08-16T10:40:32Z</time>
      </trkpt>
      <trkpt lat="44.23786" lon="2.98577">
        <ele>815.8</ele>
        <time>2021-08-16T10:40:34Z</time>
      </trkpt>
      <trkpt lat="44.23792" lon="2.98576">
        <ele>815.8</ele>
        <time>2021-08-16T10:40:36Z</time>
      </trkpt>
      <trkpt lat="44.23798" lon="2.98576">
        <ele>815.9</ele>
        <time>2021-08-16T10:40:38Z</time>
      </trkpt>
      <trkpt lat="44.23805" lon="2.98576">
        <ele>816</ele>
        <time>2021-08-16T10:40:40Z</time>
      </trkpt>
      <trkpt lat="44.23812" lon="2.98576">
        <ele>816.1</ele>
        <time>2021-08-16T10:40:42Z</time>
      </trkpt>
      <trkpt lat="44.23818" lon="2.98576">
        <ele>816.2</ele>
        <time>2021-08-16T10:40:44Z</time>
      </trkpt>
      <trkpt lat="44.23823" lon="2.98575">
        <ele>816.2</ele>
        <time>2021-08-16T10:40:46Z</time>
      </trkpt>
      <trkpt lat="44.23829" lon="2.98575">
        <ele>816.3</ele>
        <time>2021-08-16T10:40:48Z</time>
      </trkpt>
      <trkpt lat="44.23836" lon="2.98574">
        <ele>816.3</ele>
        <time>2021-08-16T10:40:50Z</time>
      </trkpt>
      <trkpt lat="44.23842" lon="2.98571">
        <ele>816.4</ele>
        <time>2021-08-16T10:40:52Z</time>
      </trkpt>
      <trkpt lat="44.23849" lon="2.98569">
        <ele>816.5</ele>
        <time>2021-08-16T10:40:54Z</time>
      </trkpt>
      <trkpt lat="44.23856" lon="2.98566">
        <ele>816.5</ele>
        <time>2021-08-16T10:40:56Z</time>
      </trkpt>
      <trkpt lat="44.23862" lon="2.98565">
        <ele>816.6</ele>
        <time>2021-08-16T10:40:58Z</time>
      </trkpt>
      <trkpt lat="44.23869" lon="2.98564">
        <ele>816.7</ele>
        <time>2021-08-16T10:41:00Z</time>
      </trkpt>
      <trkpt lat="44.23876" lon="2.9856">
        <ele>816.6</ele>
        <time>2021-08-16T10:41:02Z</time>
      </trkpt>
      <trkpt lat="44.23883" lon="2.98556">
        <ele>816.5</ele>
        <time>2021-08-16T10:41:04Z</time>
      </trkpt>
      <trkpt lat="44.23891" lon="2.98553">
        <ele>816.5</ele>
        <time>2021-08-16T10:41:06Z</time>
      </trkpt>
      <trkpt lat="44.23898" lon="2.9855">
        <ele>816.4</ele>
        <time>2021-08-16T10:41:08Z</time>
      </trkpt>
      <trkpt lat="44.23905" lon="2.98545">
        <ele>816</ele>
        <time>2021-08-16T10:41:10Z</time>
      </trkpt>
      <trkpt lat="44.23912" lon="2.98538">
        <ele>815.5</ele>
        <time>2021-08-16T10:41:12Z</time>
      </trkpt>
      <trkpt lat="44.23917" lon="2.98529">
        <ele>814.5</ele>
        <time>2021-08-16T10:41:14Z</time>
      </trkpt>
      <trkpt lat="44.23917" lon="2.98518">
        <ele>813.2</ele>
        <time>2021-08-16T10:41:16Z</time>
      </trkpt>
      <trkpt lat="44.23916" lon="2.98509">
        <ele>812.1</ele>
        <time>2021-08-16T10:41:18Z</time>
      </trkpt>
      <trkpt lat="44.23916" lon="2.98501">
        <ele>811.1</ele>
        <time>2021-08-16T10:41:20Z</time>
      </trkpt>
      <trkpt lat="44.23915" lon="2.98493">
        <ele>811.7</ele>
        <time>2021-08-16T10:41:22Z</time>
      </trkpt>
      <trkpt lat="44.23913" lon="2.98492">
        <ele>811.8</ele>
        <time>2021-08-16T10:41:24Z</time>
      </trkpt>
      <trkpt lat="44.23911" lon="2.98493">
        <ele>811.7</ele>
        <time>2021-08-16T10:41:26Z</time>
      </trkpt>
      <trkpt lat="44.23911" lon="2.98493">
        <ele>811.6</ele>
        <time>2021-08-16T10:41:28Z</time>
      </trkpt>
      <trkpt lat="44.23912" lon="2.98494">
        <ele>811.6</ele>
        <time>2021-08-16T10:41:30Z</time>
      </trkpt>
      <trkpt lat="44.23912" lon="2.98494">
        <ele>811.5</ele>
        <time>2021-08-16T10:41:32Z</time>
      </trkpt>
      <trkpt lat="44.23912" lon="2.98495">
        <ele>811.5</ele>
        <time>2021-08-16T10:41:34Z</time>
      </trkpt>
      <trkpt lat="44.23913" lon="2.98495">
        <ele>811.5</ele>
        <time>2021-08-16T10:41:36Z</time>
      </trkpt>
      <trkpt lat="44.23911" lon="2.9848">
        <ele>813</ele>
        <time>2021-08-16T10:42:20Z</time>
      </trkpt>
      <trkpt lat="44.23907" lon="2.98477">
        <ele>813.2</ele>
        <time>2021-08-16T10:42:22Z</time>
      </trkpt>
      <trkpt lat="44.23904" lon="2.98474">
        <ele>813.4</ele>
        <time>2021-08-16T10:42:24Z</time>
      </trkpt>
      <trkpt lat="44.23901" lon="2.98473">
        <ele>813.4</ele>
        <time>2021-08-16T10:42:26Z</time>
      </trkpt>
      <trkpt lat="44.23898" lon="2.98471">
        <ele>813.5</ele>
        <time>2021-08-16T10:42:28Z</time>
      </trkpt>
      <trkpt lat="44.23895" lon="2.98469">
        <ele>813.6</ele>
        <time>2021-08-16T10:42:30Z</time>
      </trkpt>
      <trkpt lat="44.23892" lon="2.98467">
        <ele>813.7</ele>
        <time>2021-08-16T10:42:32Z</time>
      </trkpt>
      <trkpt lat="44.23889" lon="2.98466">
        <ele>813.6</ele>
        <time>2021-08-16T10:42:34Z</time>
      </trkpt>
      <trkpt lat="44.23886" lon="2.98464">
        <ele>813.7</ele>
        <time>2021-08-16T10:42:36Z</time>
      </trkpt>
      <trkpt lat="44.23883" lon="2.98462">
        <ele>813.8</ele>
        <time>2021-08-16T10:42:38Z</time>
      </trkpt>
      <trkpt lat="44.2388" lon="2.9846">
        <ele>813.8</ele>
        <time>2021-08-16T10:42:40Z</time>
      </trkpt>
      <trkpt lat="44.23877" lon="2.98459">
        <ele>813.8</ele>
        <time>2021-08-16T10:42:42Z</time>
      </trkpt>
      <trkpt lat="44.23874" lon="2.98457">
        <ele>813.8</ele>
        <time>2021-08-16T10:42:44Z</time>
      </trkpt>
      <trkpt lat="44.23871" lon="2.98456">
        <ele>813.8</ele>
        <time>2021-08-16T10:42:46Z</time>
      </trkpt>
      <trkpt lat="44.23868" lon="2.98453">
        <ele>813.8</ele>
        <time>2021-08-16T10:42:48Z</time>
      </trkpt>
      <trkpt lat="44.23865" lon="2.98452">
        <ele>813.8</ele>
        <time>2021-08-16T10:42:50Z</time>
      </trkpt>
      <trkpt lat="44.23863" lon="2.9845">
        <ele>813.9</ele>
        <time>2021-08-16T10:42:52Z</time>
      </trkpt>
      <trkpt lat="44.23862" lon="2.98447">
        <ele>814</ele>
        <time>2021-08-16T10:42:54Z</time>
      </trkpt>
      <trkpt lat="44.23861" lon="2.98446">
        <ele>814</ele>
        <time>2021-08-16T10:42:56Z</time>
      </trkpt>
      <trkpt lat="44.23862" lon="2.98447">
        <ele>813.9</ele>
        <time>2021-08-16T10:42:58Z</time>
      </trkpt>
      <trkpt lat="44.23862" lon="2.98448">
        <ele>813.9</ele>
        <time>2021-08-16T10:43:00Z</time>
      </trkpt>
      <trkpt lat="44.23862" lon="2.98447">
        <ele>814</ele>
        <time>2021-08-16T10:43:02Z</time>
      </trkpt>
      <trkpt lat="44.23876" lon="2.9846">
        <ele>813.7</ele>
        <time>2021-08-16T10:43:12Z</time>
      </trkpt>
      <trkpt lat="44.23881" lon="2.98463">
        <ele>813.6</ele>
        <time>2021-08-16T10:43:14Z</time>
      </trkpt>
      <trkpt lat="44.23888" lon="2.98466">
        <ele>813.6</ele>
        <time>2021-08-16T10:43:16Z</time>
      </trkpt>
      <trkpt lat="44.23895" lon="2.98469">
        <ele>813.6</ele>
        <time>2021-08-16T10:43:18Z</time>
      </trkpt>
      <trkpt lat="44.23904" lon="2.98475">
        <ele>813.3</ele>
        <time>2021-08-16T10:43:20Z</time>
      </trkpt>
      <trkpt lat="44.23913" lon="2.98486">
        <ele>812.4</ele>
        <time>2021-08-16T10:43:22Z</time>
      </trkpt>
      <trkpt lat="44.23917" lon="2.98503">
        <ele>811.3</ele>
        <time>2021-08-16T10:43:24Z</time>
      </trkpt>
      <trkpt lat="44.23917" lon="2.98517">
        <ele>813</ele>
        <time>2021-08-16T10:43:26Z</time>
      </trkpt>
      <trkpt lat="44.23917" lon="2.9853">
        <ele>814.6</ele>
        <time>2021-08-16T10:43:28Z</time>
      </trkpt>
      <trkpt lat="44.23917" lon="2.9854">
        <ele>815.8</ele>
        <time>2021-08-16T10:43:30Z</time>
      </trkpt>
      <trkpt lat="44.23917" lon="2.98544">
        <ele>816.3</ele>
        <time>2021-08-16T10:43:32Z</time>
      </trkpt>
      <trkpt lat="44.2392" lon="2.98546">
        <ele>816.6</ele>
        <time>2021-08-16T10:43:34Z</time>
      </trkpt>
      <trkpt lat="44.23926" lon="2.98545">
        <ele>816.5</ele>
        <time>2021-08-16T10:43:36Z</time>
      </trkpt>
      <trkpt lat="44.23931" lon="2.98543">
        <ele>816.3</ele>
        <time>2021-08-16T10:43:38Z</time>
      </trkpt>
      <trkpt lat="44.23935" lon="2.98541">
        <ele>816</ele>
        <time>2021-08-16T10:43:40Z</time>
      </trkpt>
      <trkpt lat="44.2394" lon="2.9854">
        <ele>815.9</ele>
        <time>2021-08-16T10:43:42Z</time>
      </trkpt>
      <trkpt lat="44.23945" lon="2.98538">
        <ele>815.8</ele>
        <time>2021-08-16T10:43:44Z</time>
      </trkpt>
      <trkpt lat="44.23949" lon="2.98537">
        <ele>815.6</ele>
        <time>2021-08-16T10:43:46Z</time>
      </trkpt>
      <trkpt lat="44.23954" lon="2.98536">
        <ele>815.5</ele>
        <time>2021-08-16T10:43:48Z</time>
      </trkpt>
      <trkpt lat="44.23959" lon="2.98534">
        <ele>815.3</ele>
        <time>2021-08-16T10:43:50Z</time>
      </trkpt>
      <trkpt lat="44.23963" lon="2.98533">
        <ele>815.3</ele>
        <time>2021-08-16T10:43:52Z</time>
      </trkpt>
      <trkpt lat="44.23968" lon="2.98532">
        <ele>815.2</ele>
        <time>2021-08-16T10:43:54Z</time>
      </trkpt>
      <trkpt lat="44.23972" lon="2.98532">
        <ele>815.2</ele>
        <time>2021-08-16T10:43:56Z</time>
      </trkpt>
      <trkpt lat="44.23977" lon="2.98531">
        <ele>815.2</ele>
        <time>2021-08-16T10:43:58Z</time>
      </trkpt>
      <trkpt lat="44.23982" lon="2.98531">
        <ele>815.2</ele>
        <time>2021-08-16T10:44:00Z</time>
      </trkpt>
      <trkpt lat="44.23987" lon="2.98529">
        <ele>815</ele>
        <time>2021-08-16T10:44:02Z</time>
      </trkpt>
      <trkpt lat="44.23991" lon="2.98528">
        <ele>814.9</ele>
        <time>2021-08-16T10:44:04Z</time>
      </trkpt>
      <trkpt lat="44.23996" lon="2.98526">
        <ele>814.8</ele>
        <time>2021-08-16T10:44:06Z</time>
      </trkpt>
      <trkpt lat="44.24001" lon="2.98527">
        <ele>815</ele>
        <time>2021-08-16T10:44:08Z</time>
      </trkpt>
      <trkpt lat="44.24006" lon="2.98527">
        <ele>815.1</ele>
        <time>2021-08-16T10:44:10Z</time>
      </trkpt>
      <trkpt lat="44.24011" lon="2.98528">
        <ele>815.3</ele>
        <time>2021-08-16T10:44:12Z</time>
      </trkpt>
      <trkpt lat="44.24015" lon="2.98529">
        <ele>815.6</ele>
        <time>2021-08-16T10:44:14Z</time>
      </trkpt>
      <trkpt lat="44.24019" lon="2.9853">
        <ele>815.8</ele>
        <time>2021-08-16T10:44:16Z</time>
      </trkpt>
      <trkpt lat="44.24024" lon="2.9853">
        <ele>815.9</ele>
        <time>2021-08-16T10:44:18Z</time>
      </trkpt>
      <trkpt lat="44.2403" lon="2.98534">
        <ele>816.4</ele>
        <time>2021-08-16T10:44:20Z</time>
      </trkpt>
      <trkpt lat="44.24035" lon="2.98536">
        <ele>816.8</ele>
        <time>2021-08-16T10:44:22Z</time>
      </trkpt>
      <trkpt lat="44.2404" lon="2.98538">
        <ele>817.1</ele>
        <time>2021-08-16T10:44:24Z</time>
      </trkpt>
      <trkpt lat="44.24045" lon="2.9854">
        <ele>817.4</ele>
        <time>2021-08-16T10:44:26Z</time>
      </trkpt>
      <trkpt lat="44.2405" lon="2.98541">
        <ele>817.7</ele>
        <time>2021-08-16T10:44:28Z</time>
      </trkpt>
      <trkpt lat="44.24054" lon="2.98541">
        <ele>817.8</ele>
        <time>2021-08-16T10:44:30Z</time>
      </trkpt>
      <trkpt lat="44.24059" lon="2.98542">
        <ele>817.9</ele>
        <time>2021-08-16T10:44:32Z</time>
      </trkpt>
      <trkpt lat="44.24063" lon="2.98543">
        <ele>818.1</ele>
        <time>2021-08-16T10:44:34Z</time>
      </trkpt>
      <trkpt lat="44.24068" lon="2.98543">
        <ele>818.2</ele>
        <time>2021-08-16T10:44:36Z</time>
      </trkpt>
      <trkpt lat="44.24072" lon="2.98543">
        <ele>818.4</ele>
        <time>2021-08-16T10:44:38Z</time>
      </trkpt>
      <trkpt lat="44.24077" lon="2.98543">
        <ele>818.5</ele>
        <time>2021-08-16T10:44:40Z</time>
      </trkpt>
      <trkpt lat="44.24082" lon="2.98542">
        <ele>818.5</ele>
        <time>2021-08-16T10:44:42Z</time>
      </trkpt>
      <trkpt lat="44.24086" lon="2.98541">
        <ele>818.8</ele>
        <time>2021-08-16T10:44:44Z</time>
      </trkpt>
      <trkpt lat="44.2409" lon="2.98539">
        <ele>819.2</ele>
        <time>2021-08-16T10:44:46Z</time>
      </trkpt>
      <trkpt lat="44.24094" lon="2.98537">
        <ele>819.6</ele>
        <time>2021-08-16T10:44:48Z</time>
      </trkpt>
      <trkpt lat="44.24097" lon="2.98535">
        <ele>819.9</ele>
        <time>2021-08-16T10:44:50Z</time>
      </trkpt>
      <trkpt lat="44.24101" lon="2.98532">
        <ele>820.1</ele>
        <time>2021-08-16T10:44:52Z</time>
      </trkpt>
      <trkpt lat="44.24104" lon="2.98529">
        <ele>820.4</ele>
        <time>2021-08-16T10:44:54Z</time>
      </trkpt>
      <trkpt lat="44.24108" lon="2.98526">
        <ele>820.6</ele>
        <time>2021-08-16T10:44:56Z</time>
      </trkpt>
      <trkpt lat="44.24112" lon="2.98523">
        <ele>820.9</ele>
        <time>2021-08-16T10:44:58Z</time>
      </trkpt>
      <trkpt lat="44.24115" lon="2.98521">
        <ele>821.2</ele>
        <time>2021-08-16T10:45:00Z</time>
      </trkpt>
      <trkpt lat="44.24119" lon="2.98518">
        <ele>821.5</ele>
        <time>2021-08-16T10:45:02Z</time>
      </trkpt>
      <trkpt lat="44.24123" lon="2.98515">
        <ele>821.6</ele>
        <time>2021-08-16T10:45:04Z</time>
      </trkpt>
      <trkpt lat="44.24126" lon="2.98512">
        <ele>821.8</ele>
        <time>2021-08-16T10:45:06Z</time>
      </trkpt>
      <trkpt lat="44.2413" lon="2.98509">
        <ele>822</ele>
        <time>2021-08-16T10:45:08Z</time>
      </trkpt>
      <trkpt lat="44.24134" lon="2.98506">
        <ele>822.2</ele>
        <time>2021-08-16T10:45:10Z</time>
      </trkpt>
      <trkpt lat="44.24137" lon="2.98502">
        <ele>822.3</ele>
        <time>2021-08-16T10:45:12Z</time>
      </trkpt>
      <trkpt lat="44.24141" lon="2.98499">
        <ele>822.6</ele>
        <time>2021-08-16T10:45:14Z</time>
      </trkpt>
      <trkpt lat="44.24144" lon="2.98496">
        <ele>822.9</ele>
        <time>2021-08-16T10:45:16Z</time>
      </trkpt>
      <trkpt lat="44.24148" lon="2.98494">
        <ele>823.3</ele>
        <time>2021-08-16T10:45:18Z</time>
      </trkpt>
      <trkpt lat="44.24151" lon="2.98491">
        <ele>823.7</ele>
        <time>2021-08-16T10:45:20Z</time>
      </trkpt>
      <trkpt lat="44.24155" lon="2.98488">
        <ele>823.9</ele>
        <time>2021-08-16T10:45:22Z</time>
      </trkpt>
      <trkpt lat="44.24159" lon="2.98485">
        <ele>824.2</ele>
        <time>2021-08-16T10:45:24Z</time>
      </trkpt>
      <trkpt lat="44.24162" lon="2.98482">
        <ele>824.4</ele>
        <time>2021-08-16T10:45:26Z</time>
      </trkpt>
      <trkpt lat="44.24166" lon="2.98479">
        <ele>824.6</ele>
        <time>2021-08-16T10:45:28Z</time>
      </trkpt>
      <trkpt lat="44.24169" lon="2.98477">
        <ele>825.1</ele>
        <time>2021-08-16T10:45:30Z</time>
      </trkpt>
      <trkpt lat="44.24173" lon="2.98474">
        <ele>825.4</ele>
        <time>2021-08-16T10:45:32Z</time>
      </trkpt>
      <trkpt lat="44.24176" lon="2.98471">
        <ele>825.7</ele>
        <time>2021-08-16T10:45:34Z</time>
      </trkpt>
      <trkpt lat="44.2418" lon="2.98471">
        <ele>826.3</ele>
        <time>2021-08-16T10:45:36Z</time>
      </trkpt>
      <trkpt lat="44.24184" lon="2.98468">
        <ele>826.6</ele>
        <time>2021-08-16T10:45:38Z</time>
      </trkpt>
      <trkpt lat="44.24187" lon="2.98465">
        <ele>826.9</ele>
        <time>2021-08-16T10:45:40Z</time>
      </trkpt>
      <trkpt lat="44.24191" lon="2.98463">
        <ele>827.2</ele>
        <time>2021-08-16T10:45:42Z</time>
      </trkpt>
      <trkpt lat="44.24195" lon="2.9846">
        <ele>827.6</ele>
        <time>2021-08-16T10:45:44Z</time>
      </trkpt>
      <trkpt lat="44.24199" lon="2.98458">
        <ele>827.9</ele>
        <time>2021-08-16T10:45:46Z</time>
      </trkpt>
      <trkpt lat="44.24202" lon="2.98455">
        <ele>828.1</ele>
        <time>2021-08-16T10:45:48Z</time>
      </trkpt>
      <trkpt lat="44.24206" lon="2.98453">
        <ele>828.3</ele>
        <time>2021-08-16T10:45:50Z</time>
      </trkpt>
      <trkpt lat="44.24209" lon="2.9845">
        <ele>828.5</ele>
        <time>2021-08-16T10:45:52Z</time>
      </trkpt>
      <trkpt lat="44.24213" lon="2.98447">
        <ele>828.8</ele>
        <time>2021-08-16T10:45:54Z</time>
      </trkpt>
      <trkpt lat="44.24217" lon="2.98445">
        <ele>829.1</ele>
        <time>2021-08-16T10:45:56Z</time>
      </trkpt>
      <trkpt lat="44.24221" lon="2.98443">
        <ele>829.2</ele>
        <time>2021-08-16T10:45:58Z</time>
      </trkpt>
      <trkpt lat="44.24225" lon="2.98441">
        <ele>829.4</ele>
        <time>2021-08-16T10:46:00Z</time>
      </trkpt>
      <trkpt lat="44.24228" lon="2.98438">
        <ele>829.6</ele>
        <time>2021-08-16T10:46:02Z</time>
      </trkpt>
      <trkpt lat="44.24232" lon="2.98436">
        <ele>829.8</ele>
        <time>2021-08-16T10:46:04Z</time>
      </trkpt>
      <trkpt lat="44.24235" lon="2.98433">
        <ele>829.7</ele>
        <time>2021-08-16T10:46:06Z</time>
      </trkpt>
      <trkpt lat="44.24239" lon="2.98429">
        <ele>829.6</ele>
        <time>2021-08-16T10:46:08Z</time>
      </trkpt>
      <trkpt lat="44.24243" lon="2.98427">
        <ele>829.7</ele>
        <time>2021-08-16T10:46:10Z</time>
      </trkpt>
      <trkpt lat="44.24247" lon="2.98425">
        <ele>829.8</ele>
        <time>2021-08-16T10:46:12Z</time>
      </trkpt>
      <trkpt lat="44.24251" lon="2.98422">
        <ele>829.9</ele>
        <time>2021-08-16T10:46:14Z</time>
      </trkpt>
      <trkpt lat="44.24255" lon="2.9842">
        <ele>830</ele>
        <time>2021-08-16T10:46:16Z</time>
      </trkpt>
      <trkpt lat="44.24258" lon="2.98416">
        <ele>830.1</ele>
        <time>2021-08-16T10:46:18Z</time>
      </trkpt>
      <trkpt lat="44.24262" lon="2.98414">
        <ele>830.4</ele>
        <time>2021-08-16T10:46:20Z</time>
      </trkpt>
      <trkpt lat="44.24266" lon="2.98412">
        <ele>830.7</ele>
        <time>2021-08-16T10:46:22Z</time>
      </trkpt>
      <trkpt lat="44.24269" lon="2.98409">
        <ele>830.9</ele>
        <time>2021-08-16T10:46:24Z</time>
      </trkpt>
      <trkpt lat="44.24273" lon="2.98406">
        <ele>831.1</ele>
        <time>2021-08-16T10:46:26Z</time>
      </trkpt>
      <trkpt lat="44.24277" lon="2.98404">
        <ele>831.4</ele>
        <time>2021-08-16T10:46:28Z</time>
      </trkpt>
      <trkpt lat="44.24281" lon="2.98402">
        <ele>831.6</ele>
        <time>2021-08-16T10:46:30Z</time>
      </trkpt>
      <trkpt lat="44.24285" lon="2.984">
        <ele>831.9</ele>
        <time>2021-08-16T10:46:32Z</time>
      </trkpt>
      <trkpt lat="44.24288" lon="2.98397">
        <ele>832.1</ele>
        <time>2021-08-16T10:46:34Z</time>
      </trkpt>
      <trkpt lat="44.24292" lon="2.98395">
        <ele>832.3</ele>
        <time>2021-08-16T10:46:36Z</time>
      </trkpt>
      <trkpt lat="44.24296" lon="2.98393">
        <ele>832.4</ele>
        <time>2021-08-16T10:46:38Z</time>
      </trkpt>
      <trkpt lat="44.243" lon="2.98391">
        <ele>832.6</ele>
        <time>2021-08-16T10:46:40Z</time>
      </trkpt>
      <trkpt lat="44.24303" lon="2.98389">
        <ele>832.7</ele>
        <time>2021-08-16T10:46:42Z</time>
      </trkpt>
      <trkpt lat="44.24307" lon="2.98387">
        <ele>832.9</ele>
        <time>2021-08-16T10:46:44Z</time>
      </trkpt>
      <trkpt lat="44.24311" lon="2.98384">
        <ele>833</ele>
        <time>2021-08-16T10:46:46Z</time>
      </trkpt>
      <trkpt lat="44.24315" lon="2.98382">
        <ele>833.2</ele>
        <time>2021-08-16T10:46:48Z</time>
      </trkpt>
      <trkpt lat="44.24319" lon="2.9838">
        <ele>833.3</ele>
        <time>2021-08-16T10:46:50Z</time>
      </trkpt>
      <trkpt lat="44.24323" lon="2.98379">
        <ele>833.5</ele>
        <time>2021-08-16T10:46:52Z</time>
      </trkpt>
      <trkpt lat="44.24326" lon="2.98378">
        <ele>833.7</ele>
        <time>2021-08-16T10:46:54Z</time>
      </trkpt>
      <trkpt lat="44.2433" lon="2.98376">
        <ele>833.8</ele>
        <time>2021-08-16T10:46:56Z</time>
      </trkpt>
      <trkpt lat="44.24334" lon="2.98374">
        <ele>833.9</ele>
        <time>2021-08-16T10:46:58Z</time>
      </trkpt>
      <trkpt lat="44.24338" lon="2.98373">
        <ele>834.2</ele>
        <time>2021-08-16T10:47:00Z</time>
      </trkpt>
      <trkpt lat="44.24342" lon="2.9837">
        <ele>834.3</ele>
        <time>2021-08-16T10:47:02Z</time>
      </trkpt>
      <trkpt lat="44.24346" lon="2.98369">
        <ele>834.6</ele>
        <time>2021-08-16T10:47:04Z</time>
      </trkpt>
      <trkpt lat="44.2435" lon="2.98368">
        <ele>834.8</ele>
        <time>2021-08-16T10:47:06Z</time>
      </trkpt>
      <trkpt lat="44.24353" lon="2.98366">
        <ele>835</ele>
        <time>2021-08-16T10:47:08Z</time>
      </trkpt>
      <trkpt lat="44.24357" lon="2.98365">
        <ele>835.2</ele>
        <time>2021-08-16T10:47:10Z</time>
      </trkpt>
      <trkpt lat="44.24361" lon="2.98364">
        <ele>835.5</ele>
        <time>2021-08-16T10:47:12Z</time>
      </trkpt>
      <trkpt lat="44.24365" lon="2.98362">
        <ele>835.6</ele>
        <time>2021-08-16T10:47:14Z</time>
      </trkpt>
      <trkpt lat="44.24369" lon="2.98361">
        <ele>835.8</ele>
        <time>2021-08-16T10:47:16Z</time>
      </trkpt>
      <trkpt lat="44.24373" lon="2.98358">
        <ele>835.8</ele>
        <time>2021-08-16T10:47:18Z</time>
      </trkpt>
      <trkpt lat="44.24377" lon="2.98357">
        <ele>836</ele>
        <time>2021-08-16T10:47:20Z</time>
      </trkpt>
      <trkpt lat="44.24381" lon="2.98356">
        <ele>836.3</ele>
        <time>2021-08-16T10:47:22Z</time>
      </trkpt>
      <trkpt lat="44.24385" lon="2.98355">
        <ele>836.3</ele>
        <time>2021-08-16T10:47:24Z</time>
      </trkpt>
      <trkpt lat="44.24389" lon="2.98353">
        <ele>836.5</ele>
        <time>2021-08-16T10:47:26Z</time>
      </trkpt>
      <trkpt lat="44.24393" lon="2.98353">
        <ele>836.7</ele>
        <time>2021-08-16T10:47:28Z</time>
      </trkpt>
      <trkpt lat="44.24396" lon="2.98352">
        <ele>837</ele>
        <time>2021-08-16T10:47:30Z</time>
      </trkpt>
      <trkpt lat="44.24401" lon="2.98351">
        <ele>837.2</ele>
        <time>2021-08-16T10:47:32Z</time>
      </trkpt>
      <trkpt lat="44.24404" lon="2.98349">
        <ele>837.3</ele>
        <time>2021-08-16T10:47:34Z</time>
      </trkpt>
      <trkpt lat="44.24408" lon="2.98349">
        <ele>837.6</ele>
        <time>2021-08-16T10:47:36Z</time>
      </trkpt>
      <trkpt lat="44.24412" lon="2.98348">
        <ele>837.8</ele>
        <time>2021-08-16T10:47:38Z</time>
      </trkpt>
      <trkpt lat="44.24417" lon="2.98348">
        <ele>838.2</ele>
        <time>2021-08-16T10:47:40Z</time>
      </trkpt>
      <trkpt lat="44.24421" lon="2.98348">
        <ele>838.2</ele>
        <time>2021-08-16T10:47:42Z</time>
      </trkpt>
      <trkpt lat="44.24425" lon="2.98347">
        <ele>838.3</ele>
        <time>2021-08-16T10:47:44Z</time>
      </trkpt>
      <trkpt lat="44.24428" lon="2.98347">
        <ele>838.4</ele>
        <time>2021-08-16T10:47:46Z</time>
      </trkpt>
      <trkpt lat="44.24432" lon="2.98347">
        <ele>838.5</ele>
        <time>2021-08-16T10:47:48Z</time>
      </trkpt>
      <trkpt lat="44.24436" lon="2.98347">
        <ele>838.7</ele>
        <time>2021-08-16T10:47:50Z</time>
      </trkpt>
      <trkpt lat="44.2444" lon="2.98347">
        <ele>838.7</ele>
        <time>2021-08-16T10:47:52Z</time>
      </trkpt>
      <trkpt lat="44.24444" lon="2.98347">
        <ele>838.8</ele>
        <time>2021-08-16T10:47:54Z</time>
      </trkpt>
      <trkpt lat="44.24448" lon="2.98346">
        <ele>838.9</ele>
        <time>2021-08-16T10:47:56Z</time>
      </trkpt>
      <trkpt lat="44.24452" lon="2.98348">
        <ele>839.2</ele>
        <time>2021-08-16T10:47:58Z</time>
      </trkpt>
      <trkpt lat="44.24456" lon="2.98349">
        <ele>839.5</ele>
        <time>2021-08-16T10:48:00Z</time>
      </trkpt>
      <trkpt lat="44.2446" lon="2.9835">
        <ele>839.9</ele>
        <time>2021-08-16T10:48:02Z</time>
      </trkpt>
      <trkpt lat="44.24464" lon="2.98351">
        <ele>840.2</ele>
        <time>2021-08-16T10:48:04Z</time>
      </trkpt>
      <trkpt lat="44.24468" lon="2.98351">
        <ele>840.4</ele>
        <time>2021-08-16T10:48:06Z</time>
      </trkpt>
      <trkpt lat="44.24472" lon="2.98352">
        <ele>840.7</ele>
        <time>2021-08-16T10:48:08Z</time>
      </trkpt>
      <trkpt lat="44.24476" lon="2.98354">
        <ele>841.2</ele>
        <time>2021-08-16T10:48:10Z</time>
      </trkpt>
      <trkpt lat="44.2448" lon="2.98355">
        <ele>841.6</ele>
        <time>2021-08-16T10:48:12Z</time>
      </trkpt>
      <trkpt lat="44.24484" lon="2.98356">
        <ele>841.8</ele>
        <time>2021-08-16T10:48:14Z</time>
      </trkpt>
      <trkpt lat="44.24488" lon="2.98357">
        <ele>842.3</ele>
        <time>2021-08-16T10:48:16Z</time>
      </trkpt>
      <trkpt lat="44.24492" lon="2.98359">
        <ele>842.7</ele>
        <time>2021-08-16T10:48:18Z</time>
      </trkpt>
      <trkpt lat="44.24495" lon="2.9836">
        <ele>842.9</ele>
        <time>2021-08-16T10:48:20Z</time>
      </trkpt>
      <trkpt lat="44.245" lon="2.98361">
        <ele>843.4</ele>
        <time>2021-08-16T10:48:22Z</time>
      </trkpt>
      <trkpt lat="44.24504" lon="2.98362">
        <ele>843.5</ele>
        <time>2021-08-16T10:48:24Z</time>
      </trkpt>
      <trkpt lat="44.24508" lon="2.98363">
        <ele>843.8</ele>
        <time>2021-08-16T10:48:26Z</time>
      </trkpt>
      <trkpt lat="44.24512" lon="2.98364">
        <ele>844.1</ele>
        <time>2021-08-16T10:48:28Z</time>
      </trkpt>
      <trkpt lat="44.24516" lon="2.98365">
        <ele>844.1</ele>
        <time>2021-08-16T10:48:30Z</time>
      </trkpt>
      <trkpt lat="44.24521" lon="2.98365">
        <ele>844.3</ele>
        <time>2021-08-16T10:48:32Z</time>
      </trkpt>
      <trkpt lat="44.24525" lon="2.98366">
        <ele>844.5</ele>
        <time>2021-08-16T10:48:34Z</time>
      </trkpt>
      <trkpt lat="44.2453" lon="2.98367">
        <ele>844.6</ele>
        <time>2021-08-16T10:48:36Z</time>
      </trkpt>
      <trkpt lat="44.24534" lon="2.98367">
        <ele>844.7</ele>
        <time>2021-08-16T10:48:38Z</time>
      </trkpt>
      <trkpt lat="44.24538" lon="2.98368">
        <ele>844.9</ele>
        <time>2021-08-16T10:48:40Z</time>
      </trkpt>
      <trkpt lat="44.24543" lon="2.98368">
        <ele>845</ele>
        <time>2021-08-16T10:48:42Z</time>
      </trkpt>
      <trkpt lat="44.24546" lon="2.98368">
        <ele>844.9</ele>
        <time>2021-08-16T10:48:44Z</time>
      </trkpt>
      <trkpt lat="44.24551" lon="2.98368">
        <ele>845</ele>
        <time>2021-08-16T10:48:46Z</time>
      </trkpt>
      <trkpt lat="44.24555" lon="2.98368">
        <ele>845</ele>
        <time>2021-08-16T10:48:48Z</time>
      </trkpt>
      <trkpt lat="44.24559" lon="2.98369">
        <ele>845.3</ele>
        <time>2021-08-16T10:48:50Z</time>
      </trkpt>
      <trkpt lat="44.24563" lon="2.98369">
        <ele>845.3</ele>
        <time>2021-08-16T10:48:52Z</time>
      </trkpt>
      <trkpt lat="44.24566" lon="2.9837">
        <ele>845.4</ele>
        <time>2021-08-16T10:48:54Z</time>
      </trkpt>
      <trkpt lat="44.2457" lon="2.9837">
        <ele>845.5</ele>
        <time>2021-08-16T10:48:56Z</time>
      </trkpt>
      <trkpt lat="44.24574" lon="2.9837">
        <ele>845.5</ele>
        <time>2021-08-16T10:48:58Z</time>
      </trkpt>
      <trkpt lat="44.24578" lon="2.9837">
        <ele>845.5</ele>
        <time>2021-08-16T10:49:00Z</time>
      </trkpt>
      <trkpt lat="44.24582" lon="2.98369">
        <ele>845.5</ele>
        <time>2021-08-16T10:49:02Z</time>
      </trkpt>
      <trkpt lat="44.24586" lon="2.98369">
        <ele>845.6</ele>
        <time>2021-08-16T10:49:04Z</time>
      </trkpt>
      <trkpt lat="44.2459" lon="2.98369">
        <ele>845.9</ele>
        <time>2021-08-16T10:49:06Z</time>
      </trkpt>
      <trkpt lat="44.24594" lon="2.98368">
        <ele>845.9</ele>
        <time>2021-08-16T10:49:08Z</time>
      </trkpt>
      <trkpt lat="44.24598" lon="2.98368">
        <ele>846.3</ele>
        <time>2021-08-16T10:49:10Z</time>
      </trkpt>
      <trkpt lat="44.24602" lon="2.98368">
        <ele>846.5</ele>
        <time>2021-08-16T10:49:12Z</time>
      </trkpt>
      <trkpt lat="44.24607" lon="2.98368">
        <ele>846.9</ele>
        <time>2021-08-16T10:49:14Z</time>
      </trkpt>
      <trkpt lat="44.24611" lon="2.98369">
        <ele>847.2</ele>
        <time>2021-08-16T10:49:16Z</time>
      </trkpt>
      <trkpt lat="44.24615" lon="2.98369">
        <ele>847.5</ele>
        <time>2021-08-16T10:49:18Z</time>
      </trkpt>
      <trkpt lat="44.24619" lon="2.98369">
        <ele>847.7</ele>
        <time>2021-08-16T10:49:20Z</time>
      </trkpt>
      <trkpt lat="44.24624" lon="2.98369">
        <ele>848.1</ele>
        <time>2021-08-16T10:49:22Z</time>
      </trkpt>
      <trkpt lat="44.24628" lon="2.9837">
        <ele>848.5</ele>
        <time>2021-08-16T10:49:24Z</time>
      </trkpt>
      <trkpt lat="44.24632" lon="2.9837">
        <ele>848.8</ele>
        <time>2021-08-16T10:49:26Z</time>
      </trkpt>
      <trkpt lat="44.24637" lon="2.9837">
        <ele>849.1</ele>
        <time>2021-08-16T10:49:28Z</time>
      </trkpt>
      <trkpt lat="44.24641" lon="2.98371">
        <ele>849.5</ele>
        <time>2021-08-16T10:49:30Z</time>
      </trkpt>
      <trkpt lat="44.24646" lon="2.9837">
        <ele>849.6</ele>
        <time>2021-08-16T10:49:32Z</time>
      </trkpt>
      <trkpt lat="44.2465" lon="2.98371">
        <ele>850.1</ele>
        <time>2021-08-16T10:49:34Z</time>
      </trkpt>
      <trkpt lat="44.24654" lon="2.9837">
        <ele>850.1</ele>
        <time>2021-08-16T10:49:36Z</time>
      </trkpt>
      <trkpt lat="44.24659" lon="2.98369">
        <ele>850.3</ele>
        <time>2021-08-16T10:49:38Z</time>
      </trkpt>
      <trkpt lat="44.24663" lon="2.98369">
        <ele>850.6</ele>
        <time>2021-08-16T10:49:40Z</time>
      </trkpt>
      <trkpt lat="44.24667" lon="2.98369">
        <ele>850.8</ele>
        <time>2021-08-16T10:49:42Z</time>
      </trkpt>
      <trkpt lat="44.24671" lon="2.98367">
        <ele>850.4</ele>
        <time>2021-08-16T10:49:44Z</time>
      </trkpt>
      <trkpt lat="44.24675" lon="2.98367">
        <ele>850</ele>
        <time>2021-08-16T10:49:46Z</time>
      </trkpt>
      <trkpt lat="44.24679" lon="2.98367">
        <ele>849.9</ele>
        <time>2021-08-16T10:49:48Z</time>
      </trkpt>
      <trkpt lat="44.24683" lon="2.98367">
        <ele>849.8</ele>
        <time>2021-08-16T10:49:50Z</time>
      </trkpt>
      <trkpt lat="44.24688" lon="2.98369">
        <ele>850</ele>
        <time>2021-08-16T10:49:52Z</time>
      </trkpt>
      <trkpt lat="44.24692" lon="2.98371">
        <ele>850.2</ele>
        <time>2021-08-16T10:49:54Z</time>
      </trkpt>
      <trkpt lat="44.24696" lon="2.98372">
        <ele>850.2</ele>
        <time>2021-08-16T10:49:56Z</time>
      </trkpt>
      <trkpt lat="44.247" lon="2.98374">
        <ele>850.5</ele>
        <time>2021-08-16T10:49:58Z</time>
      </trkpt>
      <trkpt lat="44.24704" lon="2.98377">
        <ele>850.8</ele>
        <time>2021-08-16T10:50:00Z</time>
      </trkpt>
      <trkpt lat="44.24708" lon="2.9838">
        <ele>851.3</ele>
        <time>2021-08-16T10:50:02Z</time>
      </trkpt>
      <trkpt lat="44.24711" lon="2.98383">
        <ele>851.7</ele>
        <time>2021-08-16T10:50:04Z</time>
      </trkpt>
      <trkpt lat="44.24716" lon="2.98386">
        <ele>852</ele>
        <time>2021-08-16T10:50:06Z</time>
      </trkpt>
      <trkpt lat="44.2472" lon="2.9839">
        <ele>852.5</ele>
        <time>2021-08-16T10:50:08Z</time>
      </trkpt>
      <trkpt lat="44.24724" lon="2.98394">
        <ele>853</ele>
        <time>2021-08-16T10:50:10Z</time>
      </trkpt>
      <trkpt lat="44.24728" lon="2.98399">
        <ele>853.8</ele>
        <time>2021-08-16T10:50:12Z</time>
      </trkpt>
      <trkpt lat="44.24731" lon="2.98403">
        <ele>854.4</ele>
        <time>2021-08-16T10:50:14Z</time>
      </trkpt>
      <trkpt lat="44.24735" lon="2.98407">
        <ele>855</ele>
        <time>2021-08-16T10:50:16Z</time>
      </trkpt>
      <trkpt lat="44.24739" lon="2.98412">
        <ele>855.8</ele>
        <time>2021-08-16T10:50:18Z</time>
      </trkpt>
      <trkpt lat="44.24742" lon="2.98417">
        <ele>856.5</ele>
        <time>2021-08-16T10:50:20Z</time>
      </trkpt>
      <trkpt lat="44.24745" lon="2.98422">
        <ele>857.3</ele>
        <time>2021-08-16T10:50:22Z</time>
      </trkpt>
      <trkpt lat="44.24749" lon="2.98426">
        <ele>857.9</ele>
        <time>2021-08-16T10:50:24Z</time>
      </trkpt>
      <trkpt lat="44.24752" lon="2.98432">
        <ele>858.8</ele>
        <time>2021-08-16T10:50:26Z</time>
      </trkpt>
      <trkpt lat="44.24755" lon="2.98437">
        <ele>859.4</ele>
        <time>2021-08-16T10:50:28Z</time>
      </trkpt>
      <trkpt lat="44.24758" lon="2.98441">
        <ele>860</ele>
        <time>2021-08-16T10:50:30Z</time>
      </trkpt>
      <trkpt lat="44.24761" lon="2.98446">
        <ele>860.5</ele>
        <time>2021-08-16T10:50:32Z</time>
      </trkpt>
      <trkpt lat="44.24765" lon="2.98451">
        <ele>861</ele>
        <time>2021-08-16T10:50:34Z</time>
      </trkpt>
      <trkpt lat="44.24769" lon="2.98456">
        <ele>861.3</ele>
        <time>2021-08-16T10:50:36Z</time>
      </trkpt>
      <trkpt lat="44.24774" lon="2.98462">
        <ele>861.7</ele>
        <time>2021-08-16T10:50:38Z</time>
      </trkpt>
      <trkpt lat="44.24777" lon="2.98467">
        <ele>862</ele>
        <time>2021-08-16T10:50:40Z</time>
      </trkpt>
      <trkpt lat="44.24781" lon="2.98472">
        <ele>862.4</ele>
        <time>2021-08-16T10:50:42Z</time>
      </trkpt>
      <trkpt lat="44.24784" lon="2.98478">
        <ele>862.7</ele>
        <time>2021-08-16T10:50:44Z</time>
      </trkpt>
      <trkpt lat="44.24788" lon="2.98483">
        <ele>862.9</ele>
        <time>2021-08-16T10:50:46Z</time>
      </trkpt>
      <trkpt lat="44.24791" lon="2.98488">
        <ele>863</ele>
        <time>2021-08-16T10:50:48Z</time>
      </trkpt>
      <trkpt lat="44.24794" lon="2.98493">
        <ele>863.1</ele>
        <time>2021-08-16T10:50:50Z</time>
      </trkpt>
      <trkpt lat="44.24798" lon="2.98498">
        <ele>863.2</ele>
        <time>2021-08-16T10:50:52Z</time>
      </trkpt>
      <trkpt lat="44.24801" lon="2.98502">
        <ele>863</ele>
        <time>2021-08-16T10:50:54Z</time>
      </trkpt>
      <trkpt lat="44.24803" lon="2.98506">
        <ele>863</ele>
        <time>2021-08-16T10:50:56Z</time>
      </trkpt>
      <trkpt lat="44.24805" lon="2.98509">
        <ele>862.8</ele>
        <time>2021-08-16T10:50:58Z</time>
      </trkpt>
      <trkpt lat="44.24806" lon="2.98512">
        <ele>862.8</ele>
        <time>2021-08-16T10:51:00Z</time>
      </trkpt>
      <trkpt lat="44.24806" lon="2.98514">
        <ele>862.9</ele>
        <time>2021-08-16T10:51:02Z</time>
      </trkpt>
      <trkpt lat="44.24806" lon="2.98513">
        <ele>862.9</ele>
        <time>2021-08-16T10:51:04Z</time>
      </trkpt>
      <trkpt lat="44.24806" lon="2.98514">
        <ele>862.9</ele>
        <time>2021-08-16T10:51:06Z</time>
      </trkpt>
      <trkpt lat="44.24806" lon="2.98514">
        <ele>862.9</ele>
        <time>2021-08-16T10:51:08Z</time>
      </trkpt>
      <trkpt lat="44.24807" lon="2.98514">
        <ele>862.9</ele>
        <time>2021-08-16T10:51:10Z</time>
      </trkpt>
      <trkpt lat="44.24807" lon="2.98536">
        <ele>864.5</ele>
        <time>2021-08-16T10:52:10Z</time>
      </trkpt>
      <trkpt lat="44.24808" lon="2.98544">
        <ele>865.1</ele>
        <time>2021-08-16T10:52:12Z</time>
      </trkpt>
      <trkpt lat="44.24808" lon="2.98552">
        <ele>865.6</ele>
        <time>2021-08-16T10:52:14Z</time>
      </trkpt>
      <trkpt lat="44.24808" lon="2.98558">
        <ele>866.1</ele>
        <time>2021-08-16T10:52:16Z</time>
      </trkpt>
      <trkpt lat="44.24809" lon="2.98565">
        <ele>866.4</ele>
        <time>2021-08-16T10:52:18Z</time>
      </trkpt>
      <trkpt lat="44.2481" lon="2.9857">
        <ele>866.7</ele>
        <time>2021-08-16T10:52:20Z</time>
      </trkpt>
      <trkpt lat="44.2481" lon="2.98576">
        <ele>867.1</ele>
        <time>2021-08-16T10:52:22Z</time>
      </trkpt>
      <trkpt lat="44.24811" lon="2.98581">
        <ele>867.2</ele>
        <time>2021-08-16T10:52:24Z</time>
      </trkpt>
      <trkpt lat="44.24812" lon="2.98586">
        <ele>867.4</ele>
        <time>2021-08-16T10:52:26Z</time>
      </trkpt>
      <trkpt lat="44.24812" lon="2.98591">
        <ele>867.6</ele>
        <time>2021-08-16T10:52:28Z</time>
      </trkpt>
      <trkpt lat="44.24812" lon="2.98597">
        <ele>868</ele>
        <time>2021-08-16T10:52:30Z</time>
      </trkpt>
      <trkpt lat="44.24813" lon="2.98602">
        <ele>868.1</ele>
        <time>2021-08-16T10:52:32Z</time>
      </trkpt>
      <trkpt lat="44.24815" lon="2.98606">
        <ele>868</ele>
        <time>2021-08-16T10:52:34Z</time>
      </trkpt>
      <trkpt lat="44.24816" lon="2.98611">
        <ele>868.1</ele>
        <time>2021-08-16T10:52:36Z</time>
      </trkpt>
      <trkpt lat="44.24818" lon="2.98615">
        <ele>868</ele>
        <time>2021-08-16T10:52:38Z</time>
      </trkpt>
      <trkpt lat="44.2482" lon="2.98621">
        <ele>868</ele>
        <time>2021-08-16T10:52:40Z</time>
      </trkpt>
      <trkpt lat="44.24822" lon="2.98626">
        <ele>867.9</ele>
        <time>2021-08-16T10:52:42Z</time>
      </trkpt>
      <trkpt lat="44.24823" lon="2.9863">
        <ele>867.9</ele>
        <time>2021-08-16T10:52:44Z</time>
      </trkpt>
      <trkpt lat="44.24824" lon="2.98634">
        <ele>868</ele>
        <time>2021-08-16T10:52:46Z</time>
      </trkpt>
      <trkpt lat="44.24827" lon="2.98638">
        <ele>867.9</ele>
        <time>2021-08-16T10:52:48Z</time>
      </trkpt>
      <trkpt lat="44.24829" lon="2.98641">
        <ele>867.6</ele>
        <time>2021-08-16T10:52:50Z</time>
      </trkpt>
      <trkpt lat="44.24831" lon="2.98644">
        <ele>867.6</ele>
        <time>2021-08-16T10:52:52Z</time>
      </trkpt>
      <trkpt lat="44.24834" lon="2.98647">
        <ele>867.4</ele>
        <time>2021-08-16T10:52:54Z</time>
      </trkpt>
      <trkpt lat="44.24836" lon="2.98649">
        <ele>867.8</ele>
        <time>2021-08-16T10:52:56Z</time>
      </trkpt>
      <trkpt lat="44.24838" lon="2.98653">
        <ele>868.2</ele>
        <time>2021-08-16T10:52:58Z</time>
      </trkpt>
      <trkpt lat="44.24838" lon="2.98655">
        <ele>868.5</ele>
        <time>2021-08-16T10:53:00Z</time>
      </trkpt>
      <trkpt lat="44.24839" lon="2.98657">
        <ele>868.7</ele>
        <time>2021-08-16T10:53:02Z</time>
      </trkpt>
      <trkpt lat="44.24839" lon="2.98657">
        <ele>868.8</ele>
        <time>2021-08-16T10:53:04Z</time>
      </trkpt>
      <trkpt lat="44.2484" lon="2.98658">
        <ele>868.8</ele>
        <time>2021-08-16T10:53:06Z</time>
      </trkpt>
      <trkpt lat="44.2484" lon="2.98659">
        <ele>868.9</ele>
        <time>2021-08-16T10:53:08Z</time>
      </trkpt>
      <trkpt lat="44.24889" lon="2.98609">
        <ele>870.2</ele>
        <time>2021-08-16T13:23:12Z</time>
      </trkpt>
      <trkpt lat="44.24891" lon="2.98605">
        <ele>870.2</ele>
        <time>2021-08-16T13:23:14Z</time>
      </trkpt>
      <trkpt lat="44.24893" lon="2.98601">
        <ele>870.2</ele>
        <time>2021-08-16T13:23:16Z</time>
      </trkpt>
      <trkpt lat="44.24895" lon="2.98597">
        <ele>870.2</ele>
        <time>2021-08-16T13:23:18Z</time>
      </trkpt>
      <trkpt lat="44.24897" lon="2.98593">
        <ele>870.2</ele>
        <time>2021-08-16T13:23:20Z</time>
      </trkpt>
      <trkpt lat="44.249" lon="2.98591">
        <ele>870.3</ele>
        <time>2021-08-16T13:23:22Z</time>
      </trkpt>
      <trkpt lat="44.24902" lon="2.98586">
        <ele>870.4</ele>
        <time>2021-08-16T13:23:24Z</time>
      </trkpt>
      <trkpt lat="44.24904" lon="2.98582">
        <ele>870.5</ele>
        <time>2021-08-16T13:23:26Z</time>
      </trkpt>
      <trkpt lat="44.24906" lon="2.98578">
        <ele>870.5</ele>
        <time>2021-08-16T13:23:28Z</time>
      </trkpt>
      <trkpt lat="44.24908" lon="2.98573">
        <ele>870.5</ele>
        <time>2021-08-16T13:23:30Z</time>
      </trkpt>
      <trkpt lat="44.24909" lon="2.98569">
        <ele>870.5</ele>
        <time>2021-08-16T13:23:32Z</time>
      </trkpt>
      <trkpt lat="44.2491" lon="2.98565">
        <ele>870.5</ele>
        <time>2021-08-16T13:23:34Z</time>
      </trkpt>
      <trkpt lat="44.24911" lon="2.9856">
        <ele>870.4</ele>
        <time>2021-08-16T13:23:36Z</time>
      </trkpt>
      <trkpt lat="44.24911" lon="2.98556">
        <ele>870.3</ele>
        <time>2021-08-16T13:23:38Z</time>
      </trkpt>
      <trkpt lat="44.24911" lon="2.98551">
        <ele>870.1</ele>
        <time>2021-08-16T13:23:40Z</time>
      </trkpt>
      <trkpt lat="44.2491" lon="2.98546">
        <ele>869.8</ele>
        <time>2021-08-16T13:23:42Z</time>
      </trkpt>
      <trkpt lat="44.24909" lon="2.98541">
        <ele>869.5</ele>
        <time>2021-08-16T13:23:44Z</time>
      </trkpt>
      <trkpt lat="44.24908" lon="2.98536">
        <ele>869.2</ele>
        <time>2021-08-16T13:23:46Z</time>
      </trkpt>
      <trkpt lat="44.24908" lon="2.98532">
        <ele>868.9</ele>
        <time>2021-08-16T13:23:48Z</time>
      </trkpt>
      <trkpt lat="44.24907" lon="2.98529">
        <ele>868.7</ele>
        <time>2021-08-16T13:23:50Z</time>
      </trkpt>
      <trkpt lat="44.24906" lon="2.98525">
        <ele>868.4</ele>
        <time>2021-08-16T13:23:52Z</time>
      </trkpt>
      <trkpt lat="44.24903" lon="2.9852">
        <ele>867.9</ele>
        <time>2021-08-16T13:23:54Z</time>
      </trkpt>
      <trkpt lat="44.24903" lon="2.98512">
        <ele>867.5</ele>
        <time>2021-08-16T13:23:56Z</time>
      </trkpt>
      <trkpt lat="44.24906" lon="2.98507">
        <ele>867.8</ele>
        <time>2021-08-16T13:23:58Z</time>
      </trkpt>
      <trkpt lat="44.2491" lon="2.98504">
        <ele>868.2</ele>
        <time>2021-08-16T13:24:00Z</time>
      </trkpt>
      <trkpt lat="44.24913" lon="2.98499">
        <ele>868.4</ele>
        <time>2021-08-16T13:24:02Z</time>
      </trkpt>
      <trkpt lat="44.24916" lon="2.98496">
        <ele>868.6</ele>
        <time>2021-08-16T13:24:04Z</time>
      </trkpt>
      <trkpt lat="44.24919" lon="2.98494">
        <ele>868.9</ele>
        <time>2021-08-16T13:24:06Z</time>
      </trkpt>
      <trkpt lat="44.24923" lon="2.98491">
        <ele>869.1</ele>
        <time>2021-08-16T13:24:08Z</time>
      </trkpt>
      <trkpt lat="44.24925" lon="2.98488">
        <ele>869.3</ele>
        <time>2021-08-16T13:24:10Z</time>
      </trkpt>
      <trkpt lat="44.24929" lon="2.98485">
        <ele>869.5</ele>
        <time>2021-08-16T13:24:12Z</time>
      </trkpt>
      <trkpt lat="44.24932" lon="2.98481">
        <ele>869.6</ele>
        <time>2021-08-16T13:24:14Z</time>
      </trkpt>
      <trkpt lat="44.24934" lon="2.98479">
        <ele>869.8</ele>
        <time>2021-08-16T13:24:16Z</time>
      </trkpt>
      <trkpt lat="44.24937" lon="2.98476">
        <ele>870</ele>
        <time>2021-08-16T13:24:18Z</time>
      </trkpt>
      <trkpt lat="44.2494" lon="2.98473">
        <ele>870</ele>
        <time>2021-08-16T13:24:20Z</time>
      </trkpt>
      <trkpt lat="44.24943" lon="2.98471">
        <ele>870.1</ele>
        <time>2021-08-16T13:24:22Z</time>
      </trkpt>
      <trkpt lat="44.24946" lon="2.98469">
        <ele>870.3</ele>
        <time>2021-08-16T13:24:24Z</time>
      </trkpt>
      <trkpt lat="44.24948" lon="2.98466">
        <ele>870.4</ele>
        <time>2021-08-16T13:24:26Z</time>
      </trkpt>
      <trkpt lat="44.2495" lon="2.98463">
        <ele>870.4</ele>
        <time>2021-08-16T13:24:28Z</time>
      </trkpt>
      <trkpt lat="44.24953" lon="2.98461">
        <ele>870.7</ele>
        <time>2021-08-16T13:24:30Z</time>
      </trkpt>
      <trkpt lat="44.24956" lon="2.9846">
        <ele>870.9</ele>
        <time>2021-08-16T13:24:32Z</time>
      </trkpt>
      <trkpt lat="44.24959" lon="2.98458">
        <ele>871.1</ele>
        <time>2021-08-16T13:24:34Z</time>
      </trkpt>
      <trkpt lat="44.24962" lon="2.98456">
        <ele>871.2</ele>
        <time>2021-08-16T13:24:36Z</time>
      </trkpt>
      <trkpt lat="44.24964" lon="2.98454">
        <ele>871.4</ele>
        <time>2021-08-16T13:24:38Z</time>
      </trkpt>
      <trkpt lat="44.24967" lon="2.98453">
        <ele>871.5</ele>
        <time>2021-08-16T13:24:40Z</time>
      </trkpt>
      <trkpt lat="44.2497" lon="2.98451">
        <ele>871.7</ele>
        <time>2021-08-16T13:24:42Z</time>
      </trkpt>
      <trkpt lat="44.24973" lon="2.9845">
        <ele>871.9</ele>
        <time>2021-08-16T13:24:44Z</time>
      </trkpt>
      <trkpt lat="44.24976" lon="2.98449">
        <ele>872.2</ele>
        <time>2021-08-16T13:24:46Z</time>
      </trkpt>
      <trkpt lat="44.24979" lon="2.98448">
        <ele>872.4</ele>
        <time>2021-08-16T13:24:48Z</time>
      </trkpt>
      <trkpt lat="44.24982" lon="2.98446">
        <ele>872.6</ele>
        <time>2021-08-16T13:24:50Z</time>
      </trkpt>
      <trkpt lat="44.24985" lon="2.98445">
        <ele>872.8</ele>
        <time>2021-08-16T13:24:52Z</time>
      </trkpt>
      <trkpt lat="44.24988" lon="2.98443">
        <ele>873</ele>
        <time>2021-08-16T13:24:54Z</time>
      </trkpt>
      <trkpt lat="44.24991" lon="2.98443">
        <ele>873.3</ele>
        <time>2021-08-16T13:24:56Z</time>
      </trkpt>
      <trkpt lat="44.24994" lon="2.98442">
        <ele>873.5</ele>
        <time>2021-08-16T13:24:58Z</time>
      </trkpt>
      <trkpt lat="44.24997" lon="2.98441">
        <ele>873.8</ele>
        <time>2021-08-16T13:25:00Z</time>
      </trkpt>
      <trkpt lat="44.25" lon="2.9844">
        <ele>874.2</ele>
        <time>2021-08-16T13:25:02Z</time>
      </trkpt>
      <trkpt lat="44.25003" lon="2.9844">
        <ele>874.2</ele>
        <time>2021-08-16T13:25:04Z</time>
      </trkpt>
      <trkpt lat="44.25006" lon="2.98439">
        <ele>874.4</ele>
        <time>2021-08-16T13:25:06Z</time>
      </trkpt>
      <trkpt lat="44.25009" lon="2.98438">
        <ele>874.5</ele>
        <time>2021-08-16T13:25:08Z</time>
      </trkpt>
      <trkpt lat="44.25012" lon="2.98438">
        <ele>874.6</ele>
        <time>2021-08-16T13:25:10Z</time>
      </trkpt>
      <trkpt lat="44.25015" lon="2.98438">
        <ele>874.8</ele>
        <time>2021-08-16T13:25:12Z</time>
      </trkpt>
      <trkpt lat="44.25018" lon="2.98438">
        <ele>875</ele>
        <time>2021-08-16T13:25:14Z</time>
      </trkpt>
      <trkpt lat="44.25021" lon="2.98437">
        <ele>875</ele>
        <time>2021-08-16T13:25:16Z</time>
      </trkpt>
      <trkpt lat="44.25024" lon="2.98437">
        <ele>875.2</ele>
        <time>2021-08-16T13:25:18Z</time>
      </trkpt>
      <trkpt lat="44.25027" lon="2.98438">
        <ele>875.5</ele>
        <time>2021-08-16T13:25:20Z</time>
      </trkpt>
      <trkpt lat="44.2503" lon="2.98437">
        <ele>875.7</ele>
        <time>2021-08-16T13:25:22Z</time>
      </trkpt>
      <trkpt lat="44.25033" lon="2.98437">
        <ele>875.8</ele>
        <time>2021-08-16T13:25:24Z</time>
      </trkpt>
      <trkpt lat="44.25036" lon="2.98437">
        <ele>876</ele>
        <time>2021-08-16T13:25:26Z</time>
      </trkpt>
      <trkpt lat="44.2504" lon="2.98438">
        <ele>876.3</ele>
        <time>2021-08-16T13:25:28Z</time>
      </trkpt>
      <trkpt lat="44.25043" lon="2.98439">
        <ele>876.6</ele>
        <time>2021-08-16T13:25:30Z</time>
      </trkpt>
      <trkpt lat="44.25046" lon="2.98439">
        <ele>876.9</ele>
        <time>2021-08-16T13:25:32Z</time>
      </trkpt>
      <trkpt lat="44.25049" lon="2.9844">
        <ele>877.2</ele>
        <time>2021-08-16T13:25:34Z</time>
      </trkpt>
      <trkpt lat="44.25052" lon="2.9844">
        <ele>877.4</ele>
        <time>2021-08-16T13:25:36Z</time>
      </trkpt>
      <trkpt lat="44.25055" lon="2.98443">
        <ele>877.9</ele>
        <time>2021-08-16T13:25:38Z</time>
      </trkpt>
      <trkpt lat="44.25059" lon="2.98443">
        <ele>878.2</ele>
        <time>2021-08-16T13:25:40Z</time>
      </trkpt>
      <trkpt lat="44.25062" lon="2.98444">
        <ele>878.5</ele>
        <time>2021-08-16T13:25:42Z</time>
      </trkpt>
      <trkpt lat="44.25065" lon="2.98444">
        <ele>878.8</ele>
        <time>2021-08-16T13:25:44Z</time>
      </trkpt>
      <trkpt lat="44.25068" lon="2.98445">
        <ele>879.1</ele>
        <time>2021-08-16T13:25:46Z</time>
      </trkpt>
      <trkpt lat="44.25071" lon="2.98447">
        <ele>879.6</ele>
        <time>2021-08-16T13:25:48Z</time>
      </trkpt>
      <trkpt lat="44.25074" lon="2.98448">
        <ele>880</ele>
        <time>2021-08-16T13:25:50Z</time>
      </trkpt>
      <trkpt lat="44.25078" lon="2.9845">
        <ele>880.4</ele>
        <time>2021-08-16T13:25:52Z</time>
      </trkpt>
      <trkpt lat="44.25081" lon="2.98452">
        <ele>880.9</ele>
        <time>2021-08-16T13:25:54Z</time>
      </trkpt>
      <trkpt lat="44.25084" lon="2.98454">
        <ele>881.3</ele>
        <time>2021-08-16T13:25:56Z</time>
      </trkpt>
      <trkpt lat="44.25087" lon="2.98456">
        <ele>881.6</ele>
        <time>2021-08-16T13:25:58Z</time>
      </trkpt>
      <trkpt lat="44.25091" lon="2.98457">
        <ele>881.9</ele>
        <time>2021-08-16T13:26:00Z</time>
      </trkpt>
      <trkpt lat="44.25094" lon="2.98459">
        <ele>882.1</ele>
        <time>2021-08-16T13:26:02Z</time>
      </trkpt>
      <trkpt lat="44.25098" lon="2.98461">
        <ele>882.4</ele>
        <time>2021-08-16T13:26:04Z</time>
      </trkpt>
      <trkpt lat="44.25101" lon="2.98462">
        <ele>882.6</ele>
        <time>2021-08-16T13:26:06Z</time>
      </trkpt>
      <trkpt lat="44.25105" lon="2.98465">
        <ele>883</ele>
        <time>2021-08-16T13:26:08Z</time>
      </trkpt>
      <trkpt lat="44.25108" lon="2.98467">
        <ele>883.2</ele>
        <time>2021-08-16T13:26:10Z</time>
      </trkpt>
      <trkpt lat="44.25112" lon="2.98469">
        <ele>883.5</ele>
        <time>2021-08-16T13:26:12Z</time>
      </trkpt>
      <trkpt lat="44.25115" lon="2.98471">
        <ele>883.8</ele>
        <time>2021-08-16T13:26:14Z</time>
      </trkpt>
      <trkpt lat="44.25118" lon="2.98473">
        <ele>884.1</ele>
        <time>2021-08-16T13:26:16Z</time>
      </trkpt>
      <trkpt lat="44.25121" lon="2.98474">
        <ele>884.3</ele>
        <time>2021-08-16T13:26:18Z</time>
      </trkpt>
      <trkpt lat="44.25124" lon="2.98477">
        <ele>884.6</ele>
        <time>2021-08-16T13:26:20Z</time>
      </trkpt>
      <trkpt lat="44.25127" lon="2.98478">
        <ele>884.8</ele>
        <time>2021-08-16T13:26:22Z</time>
      </trkpt>
      <trkpt lat="44.25131" lon="2.98479">
        <ele>885</ele>
        <time>2021-08-16T13:26:24Z</time>
      </trkpt>
      <trkpt lat="44.25134" lon="2.98482">
        <ele>885.4</ele>
        <time>2021-08-16T13:26:26Z</time>
      </trkpt>
      <trkpt lat="44.25137" lon="2.98484">
        <ele>885.7</ele>
        <time>2021-08-16T13:26:28Z</time>
      </trkpt>
      <trkpt lat="44.2514" lon="2.98484">
        <ele>885.7</ele>
        <time>2021-08-16T13:26:30Z</time>
      </trkpt>
      <trkpt lat="44.25143" lon="2.98486">
        <ele>886</ele>
        <time>2021-08-16T13:26:32Z</time>
      </trkpt>
      <trkpt lat="44.25147" lon="2.98488">
        <ele>886.3</ele>
        <time>2021-08-16T13:26:34Z</time>
      </trkpt>
      <trkpt lat="44.25151" lon="2.98488">
        <ele>886.3</ele>
        <time>2021-08-16T13:26:36Z</time>
      </trkpt>
      <trkpt lat="44.25155" lon="2.98489">
        <ele>886.4</ele>
        <time>2021-08-16T13:26:38Z</time>
      </trkpt>
      <trkpt lat="44.25159" lon="2.9849">
        <ele>886.6</ele>
        <time>2021-08-16T13:26:40Z</time>
      </trkpt>
      <trkpt lat="44.25162" lon="2.98491">
        <ele>886.7</ele>
        <time>2021-08-16T13:26:42Z</time>
      </trkpt>
      <trkpt lat="44.25166" lon="2.98492">
        <ele>886.8</ele>
        <time>2021-08-16T13:26:44Z</time>
      </trkpt>
      <trkpt lat="44.2517" lon="2.98492">
        <ele>887.3</ele>
        <time>2021-08-16T13:26:46Z</time>
      </trkpt>
      <trkpt lat="44.25173" lon="2.98493">
        <ele>887.7</ele>
        <time>2021-08-16T13:26:48Z</time>
      </trkpt>
      <trkpt lat="44.25177" lon="2.98494">
        <ele>888.2</ele>
        <time>2021-08-16T13:26:50Z</time>
      </trkpt>
      <trkpt lat="44.2518" lon="2.98494">
        <ele>888.7</ele>
        <time>2021-08-16T13:26:52Z</time>
      </trkpt>
      <trkpt lat="44.25184" lon="2.98494">
        <ele>889.1</ele>
        <time>2021-08-16T13:26:54Z</time>
      </trkpt>
      <trkpt lat="44.25188" lon="2.98493">
        <ele>889.5</ele>
        <time>2021-08-16T13:26:56Z</time>
      </trkpt>
      <trkpt lat="44.25191" lon="2.98493">
        <ele>889.9</ele>
        <time>2021-08-16T13:26:58Z</time>
      </trkpt>
      <trkpt lat="44.25195" lon="2.98492">
        <ele>890.2</ele>
        <time>2021-08-16T13:27:00Z</time>
      </trkpt>
      <trkpt lat="44.25198" lon="2.98492">
        <ele>890.5</ele>
        <time>2021-08-16T13:27:02Z</time>
      </trkpt>
      <trkpt lat="44.25202" lon="2.98491">
        <ele>890.8</ele>
        <time>2021-08-16T13:27:04Z</time>
      </trkpt>
      <trkpt lat="44.25206" lon="2.9849">
        <ele>891.1</ele>
        <time>2021-08-16T13:27:06Z</time>
      </trkpt>
      <trkpt lat="44.2521" lon="2.98489">
        <ele>891.4</ele>
        <time>2021-08-16T13:27:08Z</time>
      </trkpt>
      <trkpt lat="44.25214" lon="2.98488">
        <ele>891.7</ele>
        <time>2021-08-16T13:27:10Z</time>
      </trkpt>
      <trkpt lat="44.25217" lon="2.98487">
        <ele>892</ele>
        <time>2021-08-16T13:27:12Z</time>
      </trkpt>
      <trkpt lat="44.25222" lon="2.98486">
        <ele>892.3</ele>
        <time>2021-08-16T13:27:14Z</time>
      </trkpt>
      <trkpt lat="44.25226" lon="2.98485">
        <ele>892.6</ele>
        <time>2021-08-16T13:27:16Z</time>
      </trkpt>
      <trkpt lat="44.2523" lon="2.98483">
        <ele>892.7</ele>
        <time>2021-08-16T13:27:18Z</time>
      </trkpt>
      <trkpt lat="44.25233" lon="2.98482">
        <ele>892.9</ele>
        <time>2021-08-16T13:27:20Z</time>
      </trkpt>
      <trkpt lat="44.25237" lon="2.98481">
        <ele>893.2</ele>
        <time>2021-08-16T13:27:22Z</time>
      </trkpt>
      <trkpt lat="44.25241" lon="2.9848">
        <ele>893.4</ele>
        <time>2021-08-16T13:27:24Z</time>
      </trkpt>
      <trkpt lat="44.25245" lon="2.98478">
        <ele>893.6</ele>
        <time>2021-08-16T13:27:26Z</time>
      </trkpt>
      <trkpt lat="44.2525" lon="2.98477">
        <ele>893.9</ele>
        <time>2021-08-16T13:27:28Z</time>
      </trkpt>
      <trkpt lat="44.25254" lon="2.98476">
        <ele>894.1</ele>
        <time>2021-08-16T13:27:30Z</time>
      </trkpt>
      <trkpt lat="44.25258" lon="2.98475">
        <ele>894.3</ele>
        <time>2021-08-16T13:27:32Z</time>
      </trkpt>
      <trkpt lat="44.25262" lon="2.98474">
        <ele>894.4</ele>
        <time>2021-08-16T13:27:34Z</time>
      </trkpt>
      <trkpt lat="44.25265" lon="2.98472">
        <ele>894.6</ele>
        <time>2021-08-16T13:27:36Z</time>
      </trkpt>
      <trkpt lat="44.25269" lon="2.98471">
        <ele>894.6</ele>
        <time>2021-08-16T13:27:38Z</time>
      </trkpt>
      <trkpt lat="44.25272" lon="2.9847">
        <ele>894.8</ele>
        <time>2021-08-16T13:27:40Z</time>
      </trkpt>
      <trkpt lat="44.25276" lon="2.98468">
        <ele>894.9</ele>
        <time>2021-08-16T13:27:42Z</time>
      </trkpt>
      <trkpt lat="44.25281" lon="2.98465">
        <ele>894.9</ele>
        <time>2021-08-16T13:27:44Z</time>
      </trkpt>
      <trkpt lat="44.25285" lon="2.98464">
        <ele>895</ele>
        <time>2021-08-16T13:27:46Z</time>
      </trkpt>
      <trkpt lat="44.2529" lon="2.98462">
        <ele>895.1</ele>
        <time>2021-08-16T13:27:48Z</time>
      </trkpt>
      <trkpt lat="44.25294" lon="2.9846">
        <ele>895.4</ele>
        <time>2021-08-16T13:27:50Z</time>
      </trkpt>
      <trkpt lat="44.25299" lon="2.9846">
        <ele>895.8</ele>
        <time>2021-08-16T13:27:52Z</time>
      </trkpt>
      <trkpt lat="44.25303" lon="2.98459">
        <ele>896.1</ele>
        <time>2021-08-16T13:27:54Z</time>
      </trkpt>
      <trkpt lat="44.25308" lon="2.98458">
        <ele>896.3</ele>
        <time>2021-08-16T13:27:56Z</time>
      </trkpt>
      <trkpt lat="44.25312" lon="2.98456">
        <ele>896.5</ele>
        <time>2021-08-16T13:27:58Z</time>
      </trkpt>
      <trkpt lat="44.25317" lon="2.98455">
        <ele>896.7</ele>
        <time>2021-08-16T13:28:00Z</time>
      </trkpt>
      <trkpt lat="44.25321" lon="2.98453">
        <ele>896.9</ele>
        <time>2021-08-16T13:28:02Z</time>
      </trkpt>
      <trkpt lat="44.25325" lon="2.98452">
        <ele>897.1</ele>
        <time>2021-08-16T13:28:04Z</time>
      </trkpt>
      <trkpt lat="44.2533" lon="2.9845">
        <ele>897.3</ele>
        <time>2021-08-16T13:28:06Z</time>
      </trkpt>
      <trkpt lat="44.25334" lon="2.9845">
        <ele>897.7</ele>
        <time>2021-08-16T13:28:08Z</time>
      </trkpt>
      <trkpt lat="44.25338" lon="2.98448">
        <ele>898.1</ele>
        <time>2021-08-16T13:28:10Z</time>
      </trkpt>
      <trkpt lat="44.25342" lon="2.98447">
        <ele>898.6</ele>
        <time>2021-08-16T13:28:12Z</time>
      </trkpt>
      <trkpt lat="44.25346" lon="2.98446">
        <ele>899</ele>
        <time>2021-08-16T13:28:14Z</time>
      </trkpt>
      <trkpt lat="44.2535" lon="2.98444">
        <ele>899.4</ele>
        <time>2021-08-16T13:28:16Z</time>
      </trkpt>
      <trkpt lat="44.25354" lon="2.98443">
        <ele>899.8</ele>
        <time>2021-08-16T13:28:18Z</time>
      </trkpt>
      <trkpt lat="44.25358" lon="2.98442">
        <ele>900.3</ele>
        <time>2021-08-16T13:28:20Z</time>
      </trkpt>
      <trkpt lat="44.25361" lon="2.9844">
        <ele>900.7</ele>
        <time>2021-08-16T13:28:22Z</time>
      </trkpt>
      <trkpt lat="44.25365" lon="2.98439">
        <ele>901.2</ele>
        <time>2021-08-16T13:28:24Z</time>
      </trkpt>
      <trkpt lat="44.25369" lon="2.98438">
        <ele>901.6</ele>
        <time>2021-08-16T13:28:26Z</time>
      </trkpt>
      <trkpt lat="44.25373" lon="2.98436">
        <ele>902.1</ele>
        <time>2021-08-16T13:28:28Z</time>
      </trkpt>
      <trkpt lat="44.25377" lon="2.98434">
        <ele>902.5</ele>
        <time>2021-08-16T13:28:30Z</time>
      </trkpt>
      <trkpt lat="44.25381" lon="2.98433">
        <ele>903</ele>
        <time>2021-08-16T13:28:32Z</time>
      </trkpt>
      <trkpt lat="44.25384" lon="2.9843">
        <ele>903.3</ele>
        <time>2021-08-16T13:28:34Z</time>
      </trkpt>
      <trkpt lat="44.25388" lon="2.98428">
        <ele>903.7</ele>
        <time>2021-08-16T13:28:36Z</time>
      </trkpt>
      <trkpt lat="44.25391" lon="2.98425">
        <ele>904</ele>
        <time>2021-08-16T13:28:38Z</time>
      </trkpt>
      <trkpt lat="44.25395" lon="2.98422">
        <ele>904.3</ele>
        <time>2021-08-16T13:28:40Z</time>
      </trkpt>
      <trkpt lat="44.25398" lon="2.98419">
        <ele>904.6</ele>
        <time>2021-08-16T13:28:42Z</time>
      </trkpt>
      <trkpt lat="44.25401" lon="2.98415">
        <ele>904.9</ele>
        <time>2021-08-16T13:28:44Z</time>
      </trkpt>
      <trkpt lat="44.25404" lon="2.98411">
        <ele>905.4</ele>
        <time>2021-08-16T13:28:46Z</time>
      </trkpt>
      <trkpt lat="44.25407" lon="2.98406">
        <ele>905.7</ele>
        <time>2021-08-16T13:28:48Z</time>
      </trkpt>
      <trkpt lat="44.2541" lon="2.98403">
        <ele>906</ele>
        <time>2021-08-16T13:28:50Z</time>
      </trkpt>
      <trkpt lat="44.25412" lon="2.98398">
        <ele>906.3</ele>
        <time>2021-08-16T13:28:52Z</time>
      </trkpt>
      <trkpt lat="44.25414" lon="2.98394">
        <ele>906.5</ele>
        <time>2021-08-16T13:28:54Z</time>
      </trkpt>
      <trkpt lat="44.25417" lon="2.98389">
        <ele>906.7</ele>
        <time>2021-08-16T13:28:56Z</time>
      </trkpt>
      <trkpt lat="44.25418" lon="2.98383">
        <ele>906.7</ele>
        <time>2021-08-16T13:28:58Z</time>
      </trkpt>
      <trkpt lat="44.2542" lon="2.98379">
        <ele>906.9</ele>
        <time>2021-08-16T13:29:00Z</time>
      </trkpt>
      <trkpt lat="44.25422" lon="2.98373">
        <ele>906.8</ele>
        <time>2021-08-16T13:29:02Z</time>
      </trkpt>
      <trkpt lat="44.25423" lon="2.98367">
        <ele>906.8</ele>
        <time>2021-08-16T13:29:04Z</time>
      </trkpt>
      <trkpt lat="44.25424" lon="2.98362">
        <ele>906.7</ele>
        <time>2021-08-16T13:29:06Z</time>
      </trkpt>
      <trkpt lat="44.25424" lon="2.98356">
        <ele>906.5</ele>
        <time>2021-08-16T13:29:08Z</time>
      </trkpt>
      <trkpt lat="44.25425" lon="2.9835">
        <ele>906.3</ele>
        <time>2021-08-16T13:29:10Z</time>
      </trkpt>
      <trkpt lat="44.25425" lon="2.98345">
        <ele>906</ele>
        <time>2021-08-16T13:29:12Z</time>
      </trkpt>
      <trkpt lat="44.25425" lon="2.98339">
        <ele>905.8</ele>
        <time>2021-08-16T13:29:14Z</time>
      </trkpt>
      <trkpt lat="44.25425" lon="2.98333">
        <ele>905.5</ele>
        <time>2021-08-16T13:29:16Z</time>
      </trkpt>
      <trkpt lat="44.25424" lon="2.98327">
        <ele>905.6</ele>
        <time>2021-08-16T13:29:18Z</time>
      </trkpt>
      <trkpt lat="44.25423" lon="2.98322">
        <ele>905.7</ele>
        <time>2021-08-16T13:29:20Z</time>
      </trkpt>
      <trkpt lat="44.25423" lon="2.98315">
        <ele>905.9</ele>
        <time>2021-08-16T13:29:22Z</time>
      </trkpt>
      <trkpt lat="44.25422" lon="2.98308">
        <ele>906</ele>
        <time>2021-08-16T13:29:24Z</time>
      </trkpt>
      <trkpt lat="44.25421" lon="2.98301">
        <ele>906.1</ele>
        <time>2021-08-16T13:29:26Z</time>
      </trkpt>
      <trkpt lat="44.25419" lon="2.98295">
        <ele>906.2</ele>
        <time>2021-08-16T13:29:28Z</time>
      </trkpt>
      <trkpt lat="44.25417" lon="2.98288">
        <ele>906.3</ele>
        <time>2021-08-16T13:29:30Z</time>
      </trkpt>
      <trkpt lat="44.25416" lon="2.98282">
        <ele>906.4</ele>
        <time>2021-08-16T13:29:32Z</time>
      </trkpt>
      <trkpt lat="44.25414" lon="2.98275">
        <ele>906.5</ele>
        <time>2021-08-16T13:29:34Z</time>
      </trkpt>
      <trkpt lat="44.25413" lon="2.98269">
        <ele>906.7</ele>
        <time>2021-08-16T13:29:36Z</time>
      </trkpt>
      <trkpt lat="44.25412" lon="2.98263">
        <ele>906.9</ele>
        <time>2021-08-16T13:29:38Z</time>
      </trkpt>
      <trkpt lat="44.25411" lon="2.98257">
        <ele>907</ele>
        <time>2021-08-16T13:29:40Z</time>
      </trkpt>
      <trkpt lat="44.25409" lon="2.98251">
        <ele>907.2</ele>
        <time>2021-08-16T13:29:42Z</time>
      </trkpt>
      <trkpt lat="44.25408" lon="2.98245">
        <ele>907.1</ele>
        <time>2021-08-16T13:29:44Z</time>
      </trkpt>
      <trkpt lat="44.25407" lon="2.98238">
        <ele>907.1</ele>
        <time>2021-08-16T13:29:46Z</time>
      </trkpt>
      <trkpt lat="44.25406" lon="2.98232">
        <ele>907</ele>
        <time>2021-08-16T13:29:48Z</time>
      </trkpt>
      <trkpt lat="44.25404" lon="2.98225">
        <ele>906.9</ele>
        <time>2021-08-16T13:29:50Z</time>
      </trkpt>
      <trkpt lat="44.25403" lon="2.98219">
        <ele>906.8</ele>
        <time>2021-08-16T13:29:52Z</time>
      </trkpt>
      <trkpt lat="44.25402" lon="2.98212">
        <ele>906.7</ele>
        <time>2021-08-16T13:29:54Z</time>
      </trkpt>
      <trkpt lat="44.25402" lon="2.98205">
        <ele>906.7</ele>
        <time>2021-08-16T13:29:56Z</time>
      </trkpt>
      <trkpt lat="44.25401" lon="2.98197">
        <ele>906.6</ele>
        <time>2021-08-16T13:29:58Z</time>
      </trkpt>
      <trkpt lat="44.25401" lon="2.98189">
        <ele>906.6</ele>
        <time>2021-08-16T13:30:00Z</time>
      </trkpt>
      <trkpt lat="44.254" lon="2.98182">
        <ele>906.6</ele>
        <time>2021-08-16T13:30:02Z</time>
      </trkpt>
      <trkpt lat="44.25401" lon="2.98174">
        <ele>906.6</ele>
        <time>2021-08-16T13:30:04Z</time>
      </trkpt>
      <trkpt lat="44.25401" lon="2.98166">
        <ele>906.7</ele>
        <time>2021-08-16T13:30:06Z</time>
      </trkpt>
      <trkpt lat="44.25402" lon="2.98158">
        <ele>906.9</ele>
        <time>2021-08-16T13:30:08Z</time>
      </trkpt>
      <trkpt lat="44.25403" lon="2.98151">
        <ele>907</ele>
        <time>2021-08-16T13:30:10Z</time>
      </trkpt>
      <trkpt lat="44.25404" lon="2.98144">
        <ele>907.1</ele>
        <time>2021-08-16T13:30:12Z</time>
      </trkpt>
      <trkpt lat="44.25405" lon="2.98138">
        <ele>907.2</ele>
        <time>2021-08-16T13:30:14Z</time>
      </trkpt>
      <trkpt lat="44.25407" lon="2.98131">
        <ele>907.4</ele>
        <time>2021-08-16T13:30:16Z</time>
      </trkpt>
      <trkpt lat="44.25408" lon="2.98125">
        <ele>907.5</ele>
        <time>2021-08-16T13:30:18Z</time>
      </trkpt>
      <trkpt lat="44.25409" lon="2.9812">
        <ele>907.6</ele>
        <time>2021-08-16T13:30:20Z</time>
      </trkpt>
      <trkpt lat="44.25413" lon="2.98116">
        <ele>907.8</ele>
        <time>2021-08-16T13:30:22Z</time>
      </trkpt>
      <trkpt lat="44.25416" lon="2.98113">
        <ele>908</ele>
        <time>2021-08-16T13:30:24Z</time>
      </trkpt>
      <trkpt lat="44.25418" lon="2.9811">
        <ele>908</ele>
        <time>2021-08-16T13:30:26Z</time>
      </trkpt>
      <trkpt lat="44.25419" lon="2.98106">
        <ele>908</ele>
        <time>2021-08-16T13:30:28Z</time>
      </trkpt>
      <trkpt lat="44.25419" lon="2.98102">
        <ele>908</ele>
        <time>2021-08-16T13:30:30Z</time>
      </trkpt>
      <trkpt lat="44.25419" lon="2.98102">
        <ele>908</ele>
        <time>2021-08-16T13:30:32Z</time>
      </trkpt>
      <trkpt lat="44.25419" lon="2.98102">
        <ele>908</ele>
        <time>2021-08-16T13:30:34Z</time>
      </trkpt>
      <trkpt lat="44.25419" lon="2.98102">
        <ele>908</ele>
        <time>2021-08-16T13:30:36Z</time>
      </trkpt>
      <trkpt lat="44.25419" lon="2.98102">
        <ele>908</ele>
        <time>2021-08-16T13:30:38Z</time>
      </trkpt>
      <trkpt lat="44.25423" lon="2.98122">
        <ele>908</ele>
        <time>2021-08-16T13:33:06Z</time>
      </trkpt>
      <trkpt lat="44.25425" lon="2.98128">
        <ele>908.1</ele>
        <time>2021-08-16T13:33:08Z</time>
      </trkpt>
      <trkpt lat="44.25428" lon="2.98134">
        <ele>908.1</ele>
        <time>2021-08-16T13:33:10Z</time>
      </trkpt>
      <trkpt lat="44.2543" lon="2.9814">
        <ele>908.2</ele>
        <time>2021-08-16T13:33:12Z</time>
      </trkpt>
      <trkpt lat="44.25433" lon="2.98146">
        <ele>908.3</ele>
        <time>2021-08-16T13:33:14Z</time>
      </trkpt>
      <trkpt lat="44.25435" lon="2.98151">
        <ele>908.5</ele>
        <time>2021-08-16T13:33:16Z</time>
      </trkpt>
      <trkpt lat="44.25439" lon="2.98155">
        <ele>908.6</ele>
        <time>2021-08-16T13:33:18Z</time>
      </trkpt>
      <trkpt lat="44.25441" lon="2.98158">
        <ele>908.7</ele>
        <time>2021-08-16T13:33:20Z</time>
      </trkpt>
      <trkpt lat="44.25443" lon="2.9816">
        <ele>908.8</ele>
        <time>2021-08-16T13:33:22Z</time>
      </trkpt>
      <trkpt lat="44.25445" lon="2.98162">
        <ele>908.9</ele>
        <time>2021-08-16T13:33:24Z</time>
      </trkpt>
      <trkpt lat="44.25447" lon="2.98164">
        <ele>909</ele>
        <time>2021-08-16T13:33:26Z</time>
      </trkpt>
      <trkpt lat="44.25449" lon="2.98164">
        <ele>909.1</ele>
        <time>2021-08-16T13:33:28Z</time>
      </trkpt>
      <trkpt lat="44.25449" lon="2.98165">
        <ele>909.1</ele>
        <time>2021-08-16T13:33:30Z</time>
      </trkpt>
      <trkpt lat="44.25449" lon="2.98165">
        <ele>909.1</ele>
        <time>2021-08-16T13:33:32Z</time>
      </trkpt>
      <trkpt lat="44.2545" lon="2.98165">
        <ele>909.2</ele>
        <time>2021-08-16T13:33:34Z</time>
      </trkpt>
      <trkpt lat="44.25453" lon="2.98165">
        <ele>909.3</ele>
        <time>2021-08-16T13:33:36Z</time>
      </trkpt>
      <trkpt lat="44.25455" lon="2.98167">
        <ele>909.4</ele>
        <time>2021-08-16T13:33:38Z</time>
      </trkpt>
      <trkpt lat="44.25456" lon="2.98169">
        <ele>909.5</ele>
        <time>2021-08-16T13:33:40Z</time>
      </trkpt>
      <trkpt lat="44.25458" lon="2.98169">
        <ele>909.5</ele>
        <time>2021-08-16T13:33:42Z</time>
      </trkpt>
      <trkpt lat="44.25459" lon="2.9817">
        <ele>909.6</ele>
        <time>2021-08-16T13:33:44Z</time>
      </trkpt>
      <trkpt lat="44.25458" lon="2.9817">
        <ele>909.6</ele>
        <time>2021-08-16T13:33:46Z</time>
      </trkpt>
      <trkpt lat="44.25458" lon="2.9817">
        <ele>909.6</ele>
        <time>2021-08-16T13:33:48Z</time>
      </trkpt>
      <trkpt lat="44.25473" lon="2.98172">
        <ele>910.2</ele>
        <time>2021-08-16T13:34:24Z</time>
      </trkpt>
      <trkpt lat="44.25479" lon="2.98173">
        <ele>910.4</ele>
        <time>2021-08-16T13:34:26Z</time>
      </trkpt>
      <trkpt lat="44.25485" lon="2.98174">
        <ele>910.7</ele>
        <time>2021-08-16T13:34:28Z</time>
      </trkpt>
      <trkpt lat="44.25491" lon="2.98173">
        <ele>910.9</ele>
        <time>2021-08-16T13:34:30Z</time>
      </trkpt>
      <trkpt lat="44.25496" lon="2.98172">
        <ele>911</ele>
        <time>2021-08-16T13:34:32Z</time>
      </trkpt>
      <trkpt lat="44.25501" lon="2.98173">
        <ele>911.2</ele>
        <time>2021-08-16T13:34:34Z</time>
      </trkpt>
      <trkpt lat="44.25506" lon="2.98173">
        <ele>911.2</ele>
        <time>2021-08-16T13:34:36Z</time>
      </trkpt>
      <trkpt lat="44.25512" lon="2.98174">
        <ele>911.2</ele>
        <time>2021-08-16T13:34:38Z</time>
      </trkpt>
      <trkpt lat="44.25518" lon="2.98175">
        <ele>911.2</ele>
        <time>2021-08-16T13:34:40Z</time>
      </trkpt>
      <trkpt lat="44.25524" lon="2.98175">
        <ele>911.1</ele>
        <time>2021-08-16T13:34:42Z</time>
      </trkpt>
      <trkpt lat="44.25531" lon="2.98176">
        <ele>911.1</ele>
        <time>2021-08-16T13:34:44Z</time>
      </trkpt>
      <trkpt lat="44.25538" lon="2.98176">
        <ele>911.1</ele>
        <time>2021-08-16T13:34:46Z</time>
      </trkpt>
      <trkpt lat="44.25545" lon="2.98178">
        <ele>911.1</ele>
        <time>2021-08-16T13:34:48Z</time>
      </trkpt>
      <trkpt lat="44.25552" lon="2.98179">
        <ele>911.2</ele>
        <time>2021-08-16T13:34:50Z</time>
      </trkpt>
      <trkpt lat="44.25559" lon="2.9818">
        <ele>911.2</ele>
        <time>2021-08-16T13:34:52Z</time>
      </trkpt>
      <trkpt lat="44.25565" lon="2.98181">
        <ele>911.3</ele>
        <time>2021-08-16T13:34:54Z</time>
      </trkpt>
      <trkpt lat="44.25572" lon="2.98181">
        <ele>911.2</ele>
        <time>2021-08-16T13:34:56Z</time>
      </trkpt>
      <trkpt lat="44.2558" lon="2.98183">
        <ele>911.3</ele>
        <time>2021-08-16T13:34:58Z</time>
      </trkpt>
      <trkpt lat="44.25588" lon="2.98183">
        <ele>911.3</ele>
        <time>2021-08-16T13:35:00Z</time>
      </trkpt>
      <trkpt lat="44.25596" lon="2.98183">
        <ele>911.3</ele>
        <time>2021-08-16T13:35:02Z</time>
      </trkpt>
      <trkpt lat="44.25604" lon="2.98184">
        <ele>911.3</ele>
        <time>2021-08-16T13:35:04Z</time>
      </trkpt>
      <trkpt lat="44.25612" lon="2.98185">
        <ele>911.3</ele>
        <time>2021-08-16T13:35:06Z</time>
      </trkpt>
      <trkpt lat="44.2562" lon="2.98185">
        <ele>911.3</ele>
        <time>2021-08-16T13:35:08Z</time>
      </trkpt>
      <trkpt lat="44.25628" lon="2.98186">
        <ele>911.4</ele>
        <time>2021-08-16T13:35:10Z</time>
      </trkpt>
      <trkpt lat="44.25634" lon="2.98187">
        <ele>911.4</ele>
        <time>2021-08-16T13:35:12Z</time>
      </trkpt>
      <trkpt lat="44.25641" lon="2.98187">
        <ele>911.3</ele>
        <time>2021-08-16T13:35:14Z</time>
      </trkpt>
      <trkpt lat="44.25648" lon="2.98187">
        <ele>911.4</ele>
        <time>2021-08-16T13:35:16Z</time>
      </trkpt>
      <trkpt lat="44.25654" lon="2.98188">
        <ele>911.4</ele>
        <time>2021-08-16T13:35:18Z</time>
      </trkpt>
      <trkpt lat="44.25661" lon="2.98189">
        <ele>911.4</ele>
        <time>2021-08-16T13:35:20Z</time>
      </trkpt>
      <trkpt lat="44.25667" lon="2.9819">
        <ele>911.5</ele>
        <time>2021-08-16T13:35:22Z</time>
      </trkpt>
      <trkpt lat="44.25674" lon="2.98191">
        <ele>911.5</ele>
        <time>2021-08-16T13:35:24Z</time>
      </trkpt>
      <trkpt lat="44.25681" lon="2.9819">
        <ele>911.5</ele>
        <time>2021-08-16T13:35:26Z</time>
      </trkpt>
      <trkpt lat="44.25688" lon="2.98192">
        <ele>911.5</ele>
        <time>2021-08-16T13:35:28Z</time>
      </trkpt>
      <trkpt lat="44.25694" lon="2.98193">
        <ele>911.6</ele>
        <time>2021-08-16T13:35:30Z</time>
      </trkpt>
      <trkpt lat="44.25701" lon="2.98194">
        <ele>911.7</ele>
        <time>2021-08-16T13:35:32Z</time>
      </trkpt>
      <trkpt lat="44.25706" lon="2.98196">
        <ele>911.8</ele>
        <time>2021-08-16T13:35:34Z</time>
      </trkpt>
      <trkpt lat="44.25712" lon="2.98197">
        <ele>911.9</ele>
        <time>2021-08-16T13:35:36Z</time>
      </trkpt>
      <trkpt lat="44.25718" lon="2.98199">
        <ele>912</ele>
        <time>2021-08-16T13:35:38Z</time>
      </trkpt>
      <trkpt lat="44.25723" lon="2.98202">
        <ele>912.2</ele>
        <time>2021-08-16T13:35:40Z</time>
      </trkpt>
      <trkpt lat="44.25729" lon="2.98204">
        <ele>912.3</ele>
        <time>2021-08-16T13:35:42Z</time>
      </trkpt>
      <trkpt lat="44.25734" lon="2.98207">
        <ele>912.5</ele>
        <time>2021-08-16T13:35:44Z</time>
      </trkpt>
      <trkpt lat="44.2574" lon="2.98211">
        <ele>912.8</ele>
        <time>2021-08-16T13:35:46Z</time>
      </trkpt>
      <trkpt lat="44.25748" lon="2.98215">
        <ele>913.1</ele>
        <time>2021-08-16T13:35:48Z</time>
      </trkpt>
      <trkpt lat="44.25756" lon="2.98222">
        <ele>913.1</ele>
        <time>2021-08-16T13:35:50Z</time>
      </trkpt>
      <trkpt lat="44.25765" lon="2.98229">
        <ele>912.7</ele>
        <time>2021-08-16T13:35:52Z</time>
      </trkpt>
      <trkpt lat="44.25774" lon="2.98238">
        <ele>912.6</ele>
        <time>2021-08-16T13:35:54Z</time>
      </trkpt>
      <trkpt lat="44.25783" lon="2.98248">
        <ele>912.4</ele>
        <time>2021-08-16T13:35:56Z</time>
      </trkpt>
      <trkpt lat="44.25792" lon="2.98259">
        <ele>912.1</ele>
        <time>2021-08-16T13:35:58Z</time>
      </trkpt>
      <trkpt lat="44.25802" lon="2.9827">
        <ele>911.8</ele>
        <time>2021-08-16T13:36:00Z</time>
      </trkpt>
      <trkpt lat="44.25812" lon="2.98282">
        <ele>911.6</ele>
        <time>2021-08-16T13:36:02Z</time>
      </trkpt>
      <trkpt lat="44.25823" lon="2.98294">
        <ele>911.3</ele>
        <time>2021-08-16T13:36:04Z</time>
      </trkpt>
      <trkpt lat="44.25833" lon="2.98306">
        <ele>911.1</ele>
        <time>2021-08-16T13:36:06Z</time>
      </trkpt>
      <trkpt lat="44.25844" lon="2.98318">
        <ele>910.9</ele>
        <time>2021-08-16T13:36:08Z</time>
      </trkpt>
      <trkpt lat="44.25855" lon="2.98331">
        <ele>910.8</ele>
        <time>2021-08-16T13:36:10Z</time>
      </trkpt>
      <trkpt lat="44.25866" lon="2.98344">
        <ele>910.4</ele>
        <time>2021-08-16T13:36:12Z</time>
      </trkpt>
      <trkpt lat="44.25877" lon="2.98357">
        <ele>909.8</ele>
        <time>2021-08-16T13:36:14Z</time>
      </trkpt>
      <trkpt lat="44.25888" lon="2.98371">
        <ele>909.2</ele>
        <time>2021-08-16T13:36:16Z</time>
      </trkpt>
      <trkpt lat="44.25901" lon="2.98384">
        <ele>908.5</ele>
        <time>2021-08-16T13:36:18Z</time>
      </trkpt>
      <trkpt lat="44.25912" lon="2.984">
        <ele>907.9</ele>
        <time>2021-08-16T13:36:20Z</time>
      </trkpt>
      <trkpt lat="44.25923" lon="2.98416">
        <ele>907.7</ele>
        <time>2021-08-16T13:36:22Z</time>
      </trkpt>
      <trkpt lat="44.25932" lon="2.98435">
        <ele>907.4</ele>
        <time>2021-08-16T13:36:24Z</time>
      </trkpt>
      <trkpt lat="44.2594" lon="2.98454">
        <ele>907</ele>
        <time>2021-08-16T13:36:26Z</time>
      </trkpt>
      <trkpt lat="44.25949" lon="2.98473">
        <ele>906.3</ele>
        <time>2021-08-16T13:36:28Z</time>
      </trkpt>
      <trkpt lat="44.25961" lon="2.9849">
        <ele>905.3</ele>
        <time>2021-08-16T13:36:30Z</time>
      </trkpt>
      <trkpt lat="44.25973" lon="2.98506">
        <ele>904.3</ele>
        <time>2021-08-16T13:36:32Z</time>
      </trkpt>
      <trkpt lat="44.25985" lon="2.98521">
        <ele>903.3</ele>
        <time>2021-08-16T13:36:34Z</time>
      </trkpt>
      <trkpt lat="44.25998" lon="2.98534">
        <ele>902.2</ele>
        <time>2021-08-16T13:36:36Z</time>
      </trkpt>
      <trkpt lat="44.26014" lon="2.98542">
        <ele>901.8</ele>
        <time>2021-08-16T13:36:38Z</time>
      </trkpt>
      <trkpt lat="44.26029" lon="2.98542">
        <ele>901.6</ele>
        <time>2021-08-16T13:36:40Z</time>
      </trkpt>
      <trkpt lat="44.26044" lon="2.98538">
        <ele>901.5</ele>
        <time>2021-08-16T13:36:42Z</time>
      </trkpt>
      <trkpt lat="44.26057" lon="2.98532">
        <ele>901.3</ele>
        <time>2021-08-16T13:36:44Z</time>
      </trkpt>
      <trkpt lat="44.2607" lon="2.98526">
        <ele>901.2</ele>
        <time>2021-08-16T13:36:46Z</time>
      </trkpt>
      <trkpt lat="44.26082" lon="2.98518">
        <ele>901</ele>
        <time>2021-08-16T13:36:48Z</time>
      </trkpt>
      <trkpt lat="44.2609" lon="2.9851">
        <ele>901.7</ele>
        <time>2021-08-16T13:36:50Z</time>
      </trkpt>
      <trkpt lat="44.26097" lon="2.98504">
        <ele>902.5</ele>
        <time>2021-08-16T13:36:52Z</time>
      </trkpt>
      <trkpt lat="44.26102" lon="2.98503">
        <ele>903</ele>
        <time>2021-08-16T13:36:54Z</time>
      </trkpt>
      <trkpt lat="44.26106" lon="2.98507">
        <ele>903.4</ele>
        <time>2021-08-16T13:36:56Z</time>
      </trkpt>
      <trkpt lat="44.26108" lon="2.98511">
        <ele>903.6</ele>
        <time>2021-08-16T13:36:58Z</time>
      </trkpt>
      <trkpt lat="44.2611" lon="2.98516">
        <ele>903.7</ele>
        <time>2021-08-16T13:37:00Z</time>
      </trkpt>
      <trkpt lat="44.26112" lon="2.98523">
        <ele>903.8</ele>
        <time>2021-08-16T13:37:02Z</time>
      </trkpt>
      <trkpt lat="44.26115" lon="2.98529">
        <ele>904</ele>
        <time>2021-08-16T13:37:04Z</time>
      </trkpt>
      <trkpt lat="44.26117" lon="2.98537">
        <ele>904.1</ele>
        <time>2021-08-16T13:37:06Z</time>
      </trkpt>
      <trkpt lat="44.26119" lon="2.98545">
        <ele>904.2</ele>
        <time>2021-08-16T13:37:08Z</time>
      </trkpt>
      <trkpt lat="44.26121" lon="2.98553">
        <ele>904.2</ele>
        <time>2021-08-16T13:37:10Z</time>
      </trkpt>
      <trkpt lat="44.26122" lon="2.98562">
        <ele>904.1</ele>
        <time>2021-08-16T13:37:12Z</time>
      </trkpt>
      <trkpt lat="44.26124" lon="2.98569">
        <ele>904.1</ele>
        <time>2021-08-16T13:37:14Z</time>
      </trkpt>
      <trkpt lat="44.26125" lon="2.98577">
        <ele>904.1</ele>
        <time>2021-08-16T13:37:16Z</time>
      </trkpt>
      <trkpt lat="44.26126" lon="2.98585">
        <ele>904.1</ele>
        <time>2021-08-16T13:37:18Z</time>
      </trkpt>
      <trkpt lat="44.26127" lon="2.98593">
        <ele>904</ele>
        <time>2021-08-16T13:37:20Z</time>
      </trkpt>
      <trkpt lat="44.26128" lon="2.98601">
        <ele>904</ele>
        <time>2021-08-16T13:37:22Z</time>
      </trkpt>
      <trkpt lat="44.26129" lon="2.98611">
        <ele>904</ele>
        <time>2021-08-16T13:37:24Z</time>
      </trkpt>
      <trkpt lat="44.26129" lon="2.9862">
        <ele>903.9</ele>
        <time>2021-08-16T13:37:26Z</time>
      </trkpt>
      <trkpt lat="44.26129" lon="2.98629">
        <ele>903.8</ele>
        <time>2021-08-16T13:37:28Z</time>
      </trkpt>
      <trkpt lat="44.2613" lon="2.98638">
        <ele>903.7</ele>
        <time>2021-08-16T13:37:30Z</time>
      </trkpt>
      <trkpt lat="44.2613" lon="2.98647">
        <ele>903.6</ele>
        <time>2021-08-16T13:37:32Z</time>
      </trkpt>
      <trkpt lat="44.2613" lon="2.98657">
        <ele>903.5</ele>
        <time>2021-08-16T13:37:34Z</time>
      </trkpt>
      <trkpt lat="44.2613" lon="2.98667">
        <ele>903.4</ele>
        <time>2021-08-16T13:37:36Z</time>
      </trkpt>
      <trkpt lat="44.2613" lon="2.98676">
        <ele>903.5</ele>
        <time>2021-08-16T13:37:38Z</time>
      </trkpt>
      <trkpt lat="44.2613" lon="2.98685">
        <ele>903.7</ele>
        <time>2021-08-16T13:37:40Z</time>
      </trkpt>
      <trkpt lat="44.2613" lon="2.98695">
        <ele>903.9</ele>
        <time>2021-08-16T13:37:42Z</time>
      </trkpt>
      <trkpt lat="44.26129" lon="2.98703">
        <ele>904</ele>
        <time>2021-08-16T13:37:44Z</time>
      </trkpt>
      <trkpt lat="44.26128" lon="2.98712">
        <ele>904.1</ele>
        <time>2021-08-16T13:37:46Z</time>
      </trkpt>
      <trkpt lat="44.26127" lon="2.98721">
        <ele>904.2</ele>
        <time>2021-08-16T13:37:48Z</time>
      </trkpt>
      <trkpt lat="44.26126" lon="2.9873">
        <ele>904.3</ele>
        <time>2021-08-16T13:37:50Z</time>
      </trkpt>
      <trkpt lat="44.26125" lon="2.9874">
        <ele>904.3</ele>
        <time>2021-08-16T13:37:52Z</time>
      </trkpt>
      <trkpt lat="44.26124" lon="2.98749">
        <ele>904.4</ele>
        <time>2021-08-16T13:37:54Z</time>
      </trkpt>
      <trkpt lat="44.26123" lon="2.98758">
        <ele>904.5</ele>
        <time>2021-08-16T13:37:56Z</time>
      </trkpt>
      <trkpt lat="44.26123" lon="2.98767">
        <ele>904.7</ele>
        <time>2021-08-16T13:37:58Z</time>
      </trkpt>
      <trkpt lat="44.26122" lon="2.98776">
        <ele>904.9</ele>
        <time>2021-08-16T13:38:00Z</time>
      </trkpt>
      <trkpt lat="44.26123" lon="2.98785">
        <ele>905.2</ele>
        <time>2021-08-16T13:38:02Z</time>
      </trkpt>
      <trkpt lat="44.26123" lon="2.98794">
        <ele>905.4</ele>
        <time>2021-08-16T13:38:04Z</time>
      </trkpt>
      <trkpt lat="44.26123" lon="2.98803">
        <ele>905.7</ele>
        <time>2021-08-16T13:38:06Z</time>
      </trkpt>
      <trkpt lat="44.26124" lon="2.98812">
        <ele>905.9</ele>
        <time>2021-08-16T13:38:08Z</time>
      </trkpt>
      <trkpt lat="44.26123" lon="2.98821">
        <ele>906.1</ele>
        <time>2021-08-16T13:38:10Z</time>
      </trkpt>
      <trkpt lat="44.26123" lon="2.98829">
        <ele>906.3</ele>
        <time>2021-08-16T13:38:12Z</time>
      </trkpt>
      <trkpt lat="44.26123" lon="2.98838">
        <ele>906.5</ele>
        <time>2021-08-16T13:38:14Z</time>
      </trkpt>
      <trkpt lat="44.26122" lon="2.98847">
        <ele>906.7</ele>
        <time>2021-08-16T13:38:16Z</time>
      </trkpt>
      <trkpt lat="44.26122" lon="2.98856">
        <ele>907</ele>
        <time>2021-08-16T13:38:18Z</time>
      </trkpt>
      <trkpt lat="44.26121" lon="2.98865">
        <ele>907.2</ele>
        <time>2021-08-16T13:38:20Z</time>
      </trkpt>
      <trkpt lat="44.2612" lon="2.98874">
        <ele>907.4</ele>
        <time>2021-08-16T13:38:22Z</time>
      </trkpt>
      <trkpt lat="44.2612" lon="2.98883">
        <ele>907.7</ele>
        <time>2021-08-16T13:38:24Z</time>
      </trkpt>
      <trkpt lat="44.2612" lon="2.98892">
        <ele>907.9</ele>
        <time>2021-08-16T13:38:26Z</time>
      </trkpt>
      <trkpt lat="44.26119" lon="2.98902">
        <ele>908.2</ele>
        <time>2021-08-16T13:38:28Z</time>
      </trkpt>
      <trkpt lat="44.26118" lon="2.98911">
        <ele>908.3</ele>
        <time>2021-08-16T13:38:30Z</time>
      </trkpt>
      <trkpt lat="44.26116" lon="2.9892">
        <ele>908.5</ele>
        <time>2021-08-16T13:38:32Z</time>
      </trkpt>
      <trkpt lat="44.26114" lon="2.98929">
        <ele>908.5</ele>
        <time>2021-08-16T13:38:34Z</time>
      </trkpt>
      <trkpt lat="44.26111" lon="2.98937">
        <ele>908.5</ele>
        <time>2021-08-16T13:38:36Z</time>
      </trkpt>
      <trkpt lat="44.26108" lon="2.98944">
        <ele>908.6</ele>
        <time>2021-08-16T13:38:38Z</time>
      </trkpt>
      <trkpt lat="44.26105" lon="2.98952">
        <ele>908.6</ele>
        <time>2021-08-16T13:38:40Z</time>
      </trkpt>
      <trkpt lat="44.26103" lon="2.9896">
        <ele>908.7</ele>
        <time>2021-08-16T13:38:42Z</time>
      </trkpt>
      <trkpt lat="44.26101" lon="2.98969">
        <ele>908.9</ele>
        <time>2021-08-16T13:38:44Z</time>
      </trkpt>
      <trkpt lat="44.261" lon="2.98977">
        <ele>909.1</ele>
        <time>2021-08-16T13:38:46Z</time>
      </trkpt>
      <trkpt lat="44.261" lon="2.98985">
        <ele>909.3</ele>
        <time>2021-08-16T13:38:48Z</time>
      </trkpt>
      <trkpt lat="44.26099" lon="2.98993">
        <ele>909.5</ele>
        <time>2021-08-16T13:38:50Z</time>
      </trkpt>
      <trkpt lat="44.26099" lon="2.99001">
        <ele>909.8</ele>
        <time>2021-08-16T13:38:52Z</time>
      </trkpt>
      <trkpt lat="44.26099" lon="2.99009">
        <ele>910.3</ele>
        <time>2021-08-16T13:38:54Z</time>
      </trkpt>
      <trkpt lat="44.26099" lon="2.99017">
        <ele>910.8</ele>
        <time>2021-08-16T13:38:56Z</time>
      </trkpt>
      <trkpt lat="44.26099" lon="2.99025">
        <ele>911.3</ele>
        <time>2021-08-16T13:38:58Z</time>
      </trkpt>
      <trkpt lat="44.26099" lon="2.99033">
        <ele>911.8</ele>
        <time>2021-08-16T13:39:00Z</time>
      </trkpt>
      <trkpt lat="44.26099" lon="2.9904">
        <ele>912.2</ele>
        <time>2021-08-16T13:39:02Z</time>
      </trkpt>
      <trkpt lat="44.261" lon="2.99048">
        <ele>912.6</ele>
        <time>2021-08-16T13:39:04Z</time>
      </trkpt>
      <trkpt lat="44.261" lon="2.99054">
        <ele>913.1</ele>
        <time>2021-08-16T13:39:06Z</time>
      </trkpt>
      <trkpt lat="44.261" lon="2.99061">
        <ele>913.5</ele>
        <time>2021-08-16T13:39:08Z</time>
      </trkpt>
      <trkpt lat="44.26101" lon="2.99069">
        <ele>913.9</ele>
        <time>2021-08-16T13:39:10Z</time>
      </trkpt>
      <trkpt lat="44.26102" lon="2.99076">
        <ele>914.3</ele>
        <time>2021-08-16T13:39:12Z</time>
      </trkpt>
      <trkpt lat="44.26104" lon="2.99083">
        <ele>914.7</ele>
        <time>2021-08-16T13:39:14Z</time>
      </trkpt>
      <trkpt lat="44.26106" lon="2.99089">
        <ele>915.2</ele>
        <time>2021-08-16T13:39:16Z</time>
      </trkpt>
      <trkpt lat="44.26109" lon="2.99096">
        <ele>915.6</ele>
        <time>2021-08-16T13:39:18Z</time>
      </trkpt>
      <trkpt lat="44.26111" lon="2.99102">
        <ele>916</ele>
        <time>2021-08-16T13:39:20Z</time>
      </trkpt>
      <trkpt lat="44.26114" lon="2.99108">
        <ele>916.3</ele>
        <time>2021-08-16T13:39:22Z</time>
      </trkpt>
      <trkpt lat="44.26116" lon="2.99115">
        <ele>916.6</ele>
        <time>2021-08-16T13:39:24Z</time>
      </trkpt>
      <trkpt lat="44.26118" lon="2.99121">
        <ele>916.9</ele>
        <time>2021-08-16T13:39:26Z</time>
      </trkpt>
      <trkpt lat="44.2612" lon="2.99128">
        <ele>917.2</ele>
        <time>2021-08-16T13:39:28Z</time>
      </trkpt>
      <trkpt lat="44.26122" lon="2.99135">
        <ele>917.5</ele>
        <time>2021-08-16T13:39:30Z</time>
      </trkpt>
      <trkpt lat="44.26123" lon="2.99143">
        <ele>917.8</ele>
        <time>2021-08-16T13:39:32Z</time>
      </trkpt>
      <trkpt lat="44.26124" lon="2.9915">
        <ele>918.1</ele>
        <time>2021-08-16T13:39:34Z</time>
      </trkpt>
      <trkpt lat="44.26125" lon="2.99157">
        <ele>918.5</ele>
        <time>2021-08-16T13:39:36Z</time>
      </trkpt>
      <trkpt lat="44.26125" lon="2.99164">
        <ele>918.9</ele>
        <time>2021-08-16T13:39:38Z</time>
      </trkpt>
      <trkpt lat="44.26125" lon="2.9917">
        <ele>919.1</ele>
        <time>2021-08-16T13:39:40Z</time>
      </trkpt>
      <trkpt lat="44.26126" lon="2.99177">
        <ele>919.1</ele>
        <time>2021-08-16T13:39:42Z</time>
      </trkpt>
      <trkpt lat="44.26126" lon="2.99183">
        <ele>919.2</ele>
        <time>2021-08-16T13:39:44Z</time>
      </trkpt>
      <trkpt lat="44.26126" lon="2.99189">
        <ele>919.3</ele>
        <time>2021-08-16T13:39:46Z</time>
      </trkpt>
      <trkpt lat="44.26125" lon="2.99195">
        <ele>919.5</ele>
        <time>2021-08-16T13:39:48Z</time>
      </trkpt>
      <trkpt lat="44.26125" lon="2.99201">
        <ele>919.6</ele>
        <time>2021-08-16T13:39:50Z</time>
      </trkpt>
      <trkpt lat="44.26124" lon="2.99207">
        <ele>919.8</ele>
        <time>2021-08-16T13:39:52Z</time>
      </trkpt>
      <trkpt lat="44.26124" lon="2.99214">
        <ele>920</ele>
        <time>2021-08-16T13:39:54Z</time>
      </trkpt>
      <trkpt lat="44.26123" lon="2.9922">
        <ele>920.2</ele>
        <time>2021-08-16T13:39:56Z</time>
      </trkpt>
      <trkpt lat="44.26121" lon="2.99227">
        <ele>920.4</ele>
        <time>2021-08-16T13:39:58Z</time>
      </trkpt>
      <trkpt lat="44.2612" lon="2.99233">
        <ele>920.6</ele>
        <time>2021-08-16T13:40:00Z</time>
      </trkpt>
      <trkpt lat="44.26119" lon="2.99239">
        <ele>920.8</ele>
        <time>2021-08-16T13:40:02Z</time>
      </trkpt>
      <trkpt lat="44.26118" lon="2.99245">
        <ele>921</ele>
        <time>2021-08-16T13:40:04Z</time>
      </trkpt>
      <trkpt lat="44.26118" lon="2.99251">
        <ele>921.1</ele>
        <time>2021-08-16T13:40:06Z</time>
      </trkpt>
      <trkpt lat="44.26117" lon="2.99257">
        <ele>921</ele>
        <time>2021-08-16T13:40:08Z</time>
      </trkpt>
      <trkpt lat="44.26117" lon="2.99263">
        <ele>921</ele>
        <time>2021-08-16T13:40:10Z</time>
      </trkpt>
      <trkpt lat="44.26117" lon="2.99269">
        <ele>920.9</ele>
        <time>2021-08-16T13:40:12Z</time>
      </trkpt>
      <trkpt lat="44.26117" lon="2.99276">
        <ele>920.7</ele>
        <time>2021-08-16T13:40:14Z</time>
      </trkpt>
      <trkpt lat="44.26117" lon="2.99282">
        <ele>920.6</ele>
        <time>2021-08-16T13:40:16Z</time>
      </trkpt>
      <trkpt lat="44.26117" lon="2.99288">
        <ele>920.6</ele>
        <time>2021-08-16T13:40:18Z</time>
      </trkpt>
      <trkpt lat="44.26116" lon="2.99294">
        <ele>920.5</ele>
        <time>2021-08-16T13:40:20Z</time>
      </trkpt>
      <trkpt lat="44.26115" lon="2.99301">
        <ele>920.4</ele>
        <time>2021-08-16T13:40:22Z</time>
      </trkpt>
      <trkpt lat="44.26114" lon="2.99308">
        <ele>920.4</ele>
        <time>2021-08-16T13:40:24Z</time>
      </trkpt>
      <trkpt lat="44.26112" lon="2.99315">
        <ele>920.3</ele>
        <time>2021-08-16T13:40:26Z</time>
      </trkpt>
      <trkpt lat="44.26111" lon="2.99323">
        <ele>920.2</ele>
        <time>2021-08-16T13:40:28Z</time>
      </trkpt>
      <trkpt lat="44.26109" lon="2.99332">
        <ele>920.1</ele>
        <time>2021-08-16T13:40:30Z</time>
      </trkpt>
      <trkpt lat="44.26107" lon="2.99341">
        <ele>920.4</ele>
        <time>2021-08-16T13:40:32Z</time>
      </trkpt>
      <trkpt lat="44.26106" lon="2.99349">
        <ele>920.7</ele>
        <time>2021-08-16T13:40:34Z</time>
      </trkpt>
      <trkpt lat="44.26104" lon="2.99358">
        <ele>921</ele>
        <time>2021-08-16T13:40:36Z</time>
      </trkpt>
      <trkpt lat="44.26102" lon="2.99366">
        <ele>921.3</ele>
        <time>2021-08-16T13:40:38Z</time>
      </trkpt>
      <trkpt lat="44.261" lon="2.99374">
        <ele>921.6</ele>
        <time>2021-08-16T13:40:40Z</time>
      </trkpt>
      <trkpt lat="44.26098" lon="2.99382">
        <ele>921.8</ele>
        <time>2021-08-16T13:40:42Z</time>
      </trkpt>
      <trkpt lat="44.26097" lon="2.9939">
        <ele>922.1</ele>
        <time>2021-08-16T13:40:44Z</time>
      </trkpt>
      <trkpt lat="44.26096" lon="2.99397">
        <ele>922.3</ele>
        <time>2021-08-16T13:40:46Z</time>
      </trkpt>
      <trkpt lat="44.26094" lon="2.99404">
        <ele>922.5</ele>
        <time>2021-08-16T13:40:48Z</time>
      </trkpt>
      <trkpt lat="44.26093" lon="2.99411">
        <ele>922.7</ele>
        <time>2021-08-16T13:40:50Z</time>
      </trkpt>
      <trkpt lat="44.26093" lon="2.99418">
        <ele>923</ele>
        <time>2021-08-16T13:40:52Z</time>
      </trkpt>
      <trkpt lat="44.26092" lon="2.99424">
        <ele>923.5</ele>
        <time>2021-08-16T13:40:54Z</time>
      </trkpt>
      <trkpt lat="44.26091" lon="2.9943">
        <ele>923.9</ele>
        <time>2021-08-16T13:40:56Z</time>
      </trkpt>
      <trkpt lat="44.26093" lon="2.99436">
        <ele>924.3</ele>
        <time>2021-08-16T13:40:58Z</time>
      </trkpt>
      <trkpt lat="44.26094" lon="2.99441">
        <ele>924.6</ele>
        <time>2021-08-16T13:41:00Z</time>
      </trkpt>
      <trkpt lat="44.26096" lon="2.99447">
        <ele>925</ele>
        <time>2021-08-16T13:41:02Z</time>
      </trkpt>
      <trkpt lat="44.26098" lon="2.99451">
        <ele>925.3</ele>
        <time>2021-08-16T13:41:04Z</time>
      </trkpt>
      <trkpt lat="44.261" lon="2.99455">
        <ele>925.6</ele>
        <time>2021-08-16T13:41:06Z</time>
      </trkpt>
      <trkpt lat="44.26103" lon="2.99459">
        <ele>925.8</ele>
        <time>2021-08-16T13:41:08Z</time>
      </trkpt>
      <trkpt lat="44.26107" lon="2.99462">
        <ele>926</ele>
        <time>2021-08-16T13:41:10Z</time>
      </trkpt>
      <trkpt lat="44.2611" lon="2.99464">
        <ele>926.1</ele>
        <time>2021-08-16T13:41:12Z</time>
      </trkpt>
      <trkpt lat="44.26114" lon="2.99466">
        <ele>926.2</ele>
        <time>2021-08-16T13:41:14Z</time>
      </trkpt>
      <trkpt lat="44.26118" lon="2.99468">
        <ele>926.3</ele>
        <time>2021-08-16T13:41:16Z</time>
      </trkpt>
      <trkpt lat="44.26122" lon="2.99469">
        <ele>926.3</ele>
        <time>2021-08-16T13:41:18Z</time>
      </trkpt>
      <trkpt lat="44.26126" lon="2.9947">
        <ele>926.3</ele>
        <time>2021-08-16T13:41:20Z</time>
      </trkpt>
      <trkpt lat="44.2613" lon="2.99471">
        <ele>926.4</ele>
        <time>2021-08-16T13:41:22Z</time>
      </trkpt>
      <trkpt lat="44.26133" lon="2.99472">
        <ele>926.4</ele>
        <time>2021-08-16T13:41:24Z</time>
      </trkpt>
      <trkpt lat="44.26137" lon="2.99474">
        <ele>926.4</ele>
        <time>2021-08-16T13:41:26Z</time>
      </trkpt>
      <trkpt lat="44.26141" lon="2.99475">
        <ele>926.5</ele>
        <time>2021-08-16T13:41:28Z</time>
      </trkpt>
      <trkpt lat="44.26145" lon="2.99476">
        <ele>926.5</ele>
        <time>2021-08-16T13:41:30Z</time>
      </trkpt>
      <trkpt lat="44.26149" lon="2.99478">
        <ele>926.6</ele>
        <time>2021-08-16T13:41:32Z</time>
      </trkpt>
      <trkpt lat="44.26153" lon="2.99479">
        <ele>926.7</ele>
        <time>2021-08-16T13:41:34Z</time>
      </trkpt>
      <trkpt lat="44.26157" lon="2.99482">
        <ele>926.9</ele>
        <time>2021-08-16T13:41:36Z</time>
      </trkpt>
      <trkpt lat="44.2616" lon="2.99486">
        <ele>927.1</ele>
        <time>2021-08-16T13:41:38Z</time>
      </trkpt>
      <trkpt lat="44.26162" lon="2.99491">
        <ele>927.4</ele>
        <time>2021-08-16T13:41:40Z</time>
      </trkpt>
      <trkpt lat="44.26165" lon="2.99496">
        <ele>927.8</ele>
        <time>2021-08-16T13:41:42Z</time>
      </trkpt>
      <trkpt lat="44.26167" lon="2.99501">
        <ele>928.1</ele>
        <time>2021-08-16T13:41:44Z</time>
      </trkpt>
      <trkpt lat="44.26168" lon="2.99507">
        <ele>928.4</ele>
        <time>2021-08-16T13:41:46Z</time>
      </trkpt>
      <trkpt lat="44.26169" lon="2.99514">
        <ele>928.7</ele>
        <time>2021-08-16T13:41:48Z</time>
      </trkpt>
      <trkpt lat="44.26169" lon="2.9952">
        <ele>929</ele>
        <time>2021-08-16T13:41:50Z</time>
      </trkpt>
      <trkpt lat="44.26169" lon="2.99525">
        <ele>929.4</ele>
        <time>2021-08-16T13:41:52Z</time>
      </trkpt>
      <trkpt lat="44.26169" lon="2.99532">
        <ele>929.7</ele>
        <time>2021-08-16T13:41:54Z</time>
      </trkpt>
      <trkpt lat="44.26168" lon="2.99537">
        <ele>930.1</ele>
        <time>2021-08-16T13:41:56Z</time>
      </trkpt>
      <trkpt lat="44.26168" lon="2.99543">
        <ele>930.4</ele>
        <time>2021-08-16T13:41:58Z</time>
      </trkpt>
      <trkpt lat="44.26168" lon="2.99548">
        <ele>930.8</ele>
        <time>2021-08-16T13:42:00Z</time>
      </trkpt>
      <trkpt lat="44.26168" lon="2.99554">
        <ele>931.1</ele>
        <time>2021-08-16T13:42:02Z</time>
      </trkpt>
      <trkpt lat="44.26168" lon="2.99559">
        <ele>931.5</ele>
        <time>2021-08-16T13:42:04Z</time>
      </trkpt>
      <trkpt lat="44.26167" lon="2.99565">
        <ele>931.9</ele>
        <time>2021-08-16T13:42:06Z</time>
      </trkpt>
      <trkpt lat="44.26167" lon="2.99571">
        <ele>932.2</ele>
        <time>2021-08-16T13:42:08Z</time>
      </trkpt>
      <trkpt lat="44.26167" lon="2.99577">
        <ele>932.6</ele>
        <time>2021-08-16T13:42:10Z</time>
      </trkpt>
      <trkpt lat="44.26168" lon="2.99582">
        <ele>932.8</ele>
        <time>2021-08-16T13:42:12Z</time>
      </trkpt>
      <trkpt lat="44.26169" lon="2.99588">
        <ele>932.9</ele>
        <time>2021-08-16T13:42:14Z</time>
      </trkpt>
      <trkpt lat="44.26169" lon="2.99593">
        <ele>933</ele>
        <time>2021-08-16T13:42:16Z</time>
      </trkpt>
      <trkpt lat="44.2617" lon="2.99599">
        <ele>933</ele>
        <time>2021-08-16T13:42:18Z</time>
      </trkpt>
      <trkpt lat="44.2617" lon="2.99604">
        <ele>933.1</ele>
        <time>2021-08-16T13:42:20Z</time>
      </trkpt>
      <trkpt lat="44.26171" lon="2.9961">
        <ele>933.2</ele>
        <time>2021-08-16T13:42:22Z</time>
      </trkpt>
      <trkpt lat="44.26171" lon="2.99615">
        <ele>933.2</ele>
        <time>2021-08-16T13:42:24Z</time>
      </trkpt>
      <trkpt lat="44.26172" lon="2.9962">
        <ele>933.3</ele>
        <time>2021-08-16T13:42:26Z</time>
      </trkpt>
      <trkpt lat="44.26172" lon="2.99625">
        <ele>933.4</ele>
        <time>2021-08-16T13:42:28Z</time>
      </trkpt>
      <trkpt lat="44.26172" lon="2.9963">
        <ele>933.5</ele>
        <time>2021-08-16T13:42:30Z</time>
      </trkpt>
      <trkpt lat="44.26171" lon="2.99635">
        <ele>933.7</ele>
        <time>2021-08-16T13:42:32Z</time>
      </trkpt>
      <trkpt lat="44.2617" lon="2.9964">
        <ele>933.9</ele>
        <time>2021-08-16T13:42:34Z</time>
      </trkpt>
      <trkpt lat="44.2617" lon="2.99645">
        <ele>934.1</ele>
        <time>2021-08-16T13:42:36Z</time>
      </trkpt>
      <trkpt lat="44.26169" lon="2.9965">
        <ele>934.4</ele>
        <time>2021-08-16T13:42:38Z</time>
      </trkpt>
      <trkpt lat="44.26167" lon="2.99655">
        <ele>934.7</ele>
        <time>2021-08-16T13:42:40Z</time>
      </trkpt>
      <trkpt lat="44.26166" lon="2.99661">
        <ele>934.9</ele>
        <time>2021-08-16T13:42:42Z</time>
      </trkpt>
      <trkpt lat="44.26164" lon="2.99667">
        <ele>935.1</ele>
        <time>2021-08-16T13:42:44Z</time>
      </trkpt>
      <trkpt lat="44.26162" lon="2.99672">
        <ele>935.1</ele>
        <time>2021-08-16T13:42:46Z</time>
      </trkpt>
      <trkpt lat="44.2616" lon="2.99678">
        <ele>935.1</ele>
        <time>2021-08-16T13:42:48Z</time>
      </trkpt>
      <trkpt lat="44.26158" lon="2.99685">
        <ele>935.2</ele>
        <time>2021-08-16T13:42:50Z</time>
      </trkpt>
      <trkpt lat="44.26155" lon="2.99692">
        <ele>935.3</ele>
        <time>2021-08-16T13:42:52Z</time>
      </trkpt>
      <trkpt lat="44.26153" lon="2.99699">
        <ele>935.4</ele>
        <time>2021-08-16T13:42:54Z</time>
      </trkpt>
      <trkpt lat="44.2615" lon="2.99706">
        <ele>935.5</ele>
        <time>2021-08-16T13:42:56Z</time>
      </trkpt>
      <trkpt lat="44.26147" lon="2.99713">
        <ele>935.6</ele>
        <time>2021-08-16T13:42:58Z</time>
      </trkpt>
      <trkpt lat="44.26145" lon="2.9972">
        <ele>935.8</ele>
        <time>2021-08-16T13:43:00Z</time>
      </trkpt>
      <trkpt lat="44.26143" lon="2.99727">
        <ele>936</ele>
        <time>2021-08-16T13:43:02Z</time>
      </trkpt>
      <trkpt lat="44.26141" lon="2.99734">
        <ele>936.1</ele>
        <time>2021-08-16T13:43:04Z</time>
      </trkpt>
      <trkpt lat="44.26138" lon="2.99741">
        <ele>936.3</ele>
        <time>2021-08-16T13:43:06Z</time>
      </trkpt>
      <trkpt lat="44.26136" lon="2.99749">
        <ele>936.6</ele>
        <time>2021-08-16T13:43:08Z</time>
      </trkpt>
      <trkpt lat="44.26133" lon="2.99756">
        <ele>936.8</ele>
        <time>2021-08-16T13:43:10Z</time>
      </trkpt>
      <trkpt lat="44.2613" lon="2.99765">
        <ele>937.1</ele>
        <time>2021-08-16T13:43:12Z</time>
      </trkpt>
      <trkpt lat="44.26127" lon="2.99775">
        <ele>937.3</ele>
        <time>2021-08-16T13:43:14Z</time>
      </trkpt>
      <trkpt lat="44.26123" lon="2.99785">
        <ele>937.6</ele>
        <time>2021-08-16T13:43:16Z</time>
      </trkpt>
      <trkpt lat="44.2612" lon="2.99796">
        <ele>938</ele>
        <time>2021-08-16T13:43:18Z</time>
      </trkpt>
      <trkpt lat="44.26116" lon="2.99809">
        <ele>938.3</ele>
        <time>2021-08-16T13:43:20Z</time>
      </trkpt>
      <trkpt lat="44.26112" lon="2.99821">
        <ele>938.6</ele>
        <time>2021-08-16T13:43:22Z</time>
      </trkpt>
      <trkpt lat="44.26108" lon="2.99833">
        <ele>939</ele>
        <time>2021-08-16T13:43:24Z</time>
      </trkpt>
      <trkpt lat="44.26104" lon="2.99846">
        <ele>939.2</ele>
        <time>2021-08-16T13:43:26Z</time>
      </trkpt>
      <trkpt lat="44.261" lon="2.99859">
        <ele>939.4</ele>
        <time>2021-08-16T13:43:28Z</time>
      </trkpt>
      <trkpt lat="44.26096" lon="2.99871">
        <ele>939.6</ele>
        <time>2021-08-16T13:43:30Z</time>
      </trkpt>
      <trkpt lat="44.26092" lon="2.99883">
        <ele>939.8</ele>
        <time>2021-08-16T13:43:32Z</time>
      </trkpt>
      <trkpt lat="44.26088" lon="2.99894">
        <ele>939.9</ele>
        <time>2021-08-16T13:43:34Z</time>
      </trkpt>
      <trkpt lat="44.26085" lon="2.99905">
        <ele>940</ele>
        <time>2021-08-16T13:43:36Z</time>
      </trkpt>
      <trkpt lat="44.26082" lon="2.99915">
        <ele>940.1</ele>
        <time>2021-08-16T13:43:38Z</time>
      </trkpt>
      <trkpt lat="44.26078" lon="2.99925">
        <ele>940.5</ele>
        <time>2021-08-16T13:43:40Z</time>
      </trkpt>
      <trkpt lat="44.26075" lon="2.99935">
        <ele>941</ele>
        <time>2021-08-16T13:43:42Z</time>
      </trkpt>
      <trkpt lat="44.26072" lon="2.99944">
        <ele>941.4</ele>
        <time>2021-08-16T13:43:44Z</time>
      </trkpt>
      <trkpt lat="44.26068" lon="2.99953">
        <ele>941.8</ele>
        <time>2021-08-16T13:43:46Z</time>
      </trkpt>
      <trkpt lat="44.26065" lon="2.99962">
        <ele>942.2</ele>
        <time>2021-08-16T13:43:48Z</time>
      </trkpt>
      <trkpt lat="44.26062" lon="2.99972">
        <ele>942.5</ele>
        <time>2021-08-16T13:43:50Z</time>
      </trkpt>
      <trkpt lat="44.2606" lon="2.9998">
        <ele>942.8</ele>
        <time>2021-08-16T13:43:52Z</time>
      </trkpt>
      <trkpt lat="44.26057" lon="2.99988">
        <ele>943</ele>
        <time>2021-08-16T13:43:54Z</time>
      </trkpt>
      <trkpt lat="44.26054" lon="2.99997">
        <ele>943.3</ele>
        <time>2021-08-16T13:43:56Z</time>
      </trkpt>
      <trkpt lat="44.26051" lon="3.00005">
        <ele>943.6</ele>
        <time>2021-08-16T13:43:58Z</time>
      </trkpt>
      <trkpt lat="44.26048" lon="3.00013">
        <ele>944</ele>
        <time>2021-08-16T13:44:00Z</time>
      </trkpt>
      <trkpt lat="44.26046" lon="3.00021">
        <ele>944.4</ele>
        <time>2021-08-16T13:44:02Z</time>
      </trkpt>
      <trkpt lat="44.26044" lon="3.00028">
        <ele>944.7</ele>
        <time>2021-08-16T13:44:04Z</time>
      </trkpt>
      <trkpt lat="44.26041" lon="3.00035">
        <ele>945</ele>
        <time>2021-08-16T13:44:06Z</time>
      </trkpt>
      <trkpt lat="44.26039" lon="3.00042">
        <ele>945.2</ele>
        <time>2021-08-16T13:44:08Z</time>
      </trkpt>
      <trkpt lat="44.26036" lon="3.00049">
        <ele>945.5</ele>
        <time>2021-08-16T13:44:10Z</time>
      </trkpt>
      <trkpt lat="44.26034" lon="3.00056">
        <ele>945.7</ele>
        <time>2021-08-16T13:44:12Z</time>
      </trkpt>
      <trkpt lat="44.26032" lon="3.00063">
        <ele>946</ele>
        <time>2021-08-16T13:44:14Z</time>
      </trkpt>
      <trkpt lat="44.26029" lon="3.0007">
        <ele>946.2</ele>
        <time>2021-08-16T13:44:16Z</time>
      </trkpt>
      <trkpt lat="44.26027" lon="3.00076">
        <ele>946.4</ele>
        <time>2021-08-16T13:44:18Z</time>
      </trkpt>
      <trkpt lat="44.26024" lon="3.00083">
        <ele>946.6</ele>
        <time>2021-08-16T13:44:20Z</time>
      </trkpt>
      <trkpt lat="44.26022" lon="3.0009">
        <ele>946.7</ele>
        <time>2021-08-16T13:44:22Z</time>
      </trkpt>
      <trkpt lat="44.2602" lon="3.00097">
        <ele>946.9</ele>
        <time>2021-08-16T13:44:24Z</time>
      </trkpt>
      <trkpt lat="44.26018" lon="3.00105">
        <ele>947</ele>
        <time>2021-08-16T13:44:26Z</time>
      </trkpt>
      <trkpt lat="44.26016" lon="3.00112">
        <ele>947.1</ele>
        <time>2021-08-16T13:44:28Z</time>
      </trkpt>
      <trkpt lat="44.26014" lon="3.0012">
        <ele>947.3</ele>
        <time>2021-08-16T13:44:30Z</time>
      </trkpt>
      <trkpt lat="44.26013" lon="3.00128">
        <ele>947.5</ele>
        <time>2021-08-16T13:44:32Z</time>
      </trkpt>
      <trkpt lat="44.26012" lon="3.00137">
        <ele>947.7</ele>
        <time>2021-08-16T13:44:34Z</time>
      </trkpt>
      <trkpt lat="44.26011" lon="3.00145">
        <ele>947.9</ele>
        <time>2021-08-16T13:44:36Z</time>
      </trkpt>
      <trkpt lat="44.26012" lon="3.00154">
        <ele>948.1</ele>
        <time>2021-08-16T13:44:38Z</time>
      </trkpt>
      <trkpt lat="44.26012" lon="3.00163">
        <ele>948.3</ele>
        <time>2021-08-16T13:44:40Z</time>
      </trkpt>
      <trkpt lat="44.26013" lon="3.00172">
        <ele>948.3</ele>
        <time>2021-08-16T13:44:42Z</time>
      </trkpt>
      <trkpt lat="44.26013" lon="3.00181">
        <ele>948.1</ele>
        <time>2021-08-16T13:44:44Z</time>
      </trkpt>
      <trkpt lat="44.26014" lon="3.0019">
        <ele>947.8</ele>
        <time>2021-08-16T13:44:46Z</time>
      </trkpt>
      <trkpt lat="44.26014" lon="3.002">
        <ele>947.6</ele>
        <time>2021-08-16T13:44:48Z</time>
      </trkpt>
      <trkpt lat="44.26014" lon="3.0021">
        <ele>947.3</ele>
        <time>2021-08-16T13:44:50Z</time>
      </trkpt>
      <trkpt lat="44.26016" lon="3.0022">
        <ele>947.2</ele>
        <time>2021-08-16T13:44:52Z</time>
      </trkpt>
      <trkpt lat="44.26019" lon="3.00229">
        <ele>947.1</ele>
        <time>2021-08-16T13:44:54Z</time>
      </trkpt>
      <trkpt lat="44.26024" lon="3.00239">
        <ele>947.2</ele>
        <time>2021-08-16T13:44:56Z</time>
      </trkpt>
      <trkpt lat="44.26029" lon="3.00246">
        <ele>947.5</ele>
        <time>2021-08-16T13:44:58Z</time>
      </trkpt>
      <trkpt lat="44.26034" lon="3.00254">
        <ele>947.6</ele>
        <time>2021-08-16T13:45:00Z</time>
      </trkpt>
      <trkpt lat="44.26039" lon="3.00263">
        <ele>947.6</ele>
        <time>2021-08-16T13:45:02Z</time>
      </trkpt>
      <trkpt lat="44.26043" lon="3.00273">
        <ele>947.4</ele>
        <time>2021-08-16T13:45:04Z</time>
      </trkpt>
      <trkpt lat="44.26049" lon="3.00284">
        <ele>947.3</ele>
        <time>2021-08-16T13:45:06Z</time>
      </trkpt>
      <trkpt lat="44.26055" lon="3.00296">
        <ele>947</ele>
        <time>2021-08-16T13:45:08Z</time>
      </trkpt>
      <trkpt lat="44.2606" lon="3.00309">
        <ele>946.8</ele>
        <time>2021-08-16T13:45:10Z</time>
      </trkpt>
      <trkpt lat="44.26066" lon="3.00321">
        <ele>946.5</ele>
        <time>2021-08-16T13:45:12Z</time>
      </trkpt>
      <trkpt lat="44.26072" lon="3.00332">
        <ele>946.2</ele>
        <time>2021-08-16T13:45:14Z</time>
      </trkpt>
      <trkpt lat="44.26077" lon="3.00344">
        <ele>946.1</ele>
        <time>2021-08-16T13:45:16Z</time>
      </trkpt>
      <trkpt lat="44.26082" lon="3.00356">
        <ele>945.8</ele>
        <time>2021-08-16T13:45:18Z</time>
      </trkpt>
      <trkpt lat="44.26087" lon="3.00368">
        <ele>945.3</ele>
        <time>2021-08-16T13:45:20Z</time>
      </trkpt>
      <trkpt lat="44.26092" lon="3.0038">
        <ele>944.7</ele>
        <time>2021-08-16T13:45:22Z</time>
      </trkpt>
      <trkpt lat="44.26096" lon="3.00392">
        <ele>944.3</ele>
        <time>2021-08-16T13:45:24Z</time>
      </trkpt>
      <trkpt lat="44.261" lon="3.00403">
        <ele>943.9</ele>
        <time>2021-08-16T13:45:26Z</time>
      </trkpt>
      <trkpt lat="44.26103" lon="3.00415">
        <ele>943.5</ele>
        <time>2021-08-16T13:45:28Z</time>
      </trkpt>
      <trkpt lat="44.26107" lon="3.00425">
        <ele>943.8</ele>
        <time>2021-08-16T13:45:30Z</time>
      </trkpt>
      <trkpt lat="44.2611" lon="3.00436">
        <ele>944.3</ele>
        <time>2021-08-16T13:45:32Z</time>
      </trkpt>
      <trkpt lat="44.26113" lon="3.00447">
        <ele>944.7</ele>
        <time>2021-08-16T13:45:34Z</time>
      </trkpt>
      <trkpt lat="44.26117" lon="3.00458">
        <ele>945.2</ele>
        <time>2021-08-16T13:45:36Z</time>
      </trkpt>
      <trkpt lat="44.2612" lon="3.00468">
        <ele>945.7</ele>
        <time>2021-08-16T13:45:38Z</time>
      </trkpt>
      <trkpt lat="44.26124" lon="3.00478">
        <ele>946.2</ele>
        <time>2021-08-16T13:45:40Z</time>
      </trkpt>
      <trkpt lat="44.26127" lon="3.00488">
        <ele>946.7</ele>
        <time>2021-08-16T13:45:42Z</time>
      </trkpt>
      <trkpt lat="44.2613" lon="3.00498">
        <ele>947.2</ele>
        <time>2021-08-16T13:45:44Z</time>
      </trkpt>
      <trkpt lat="44.26133" lon="3.00507">
        <ele>947.7</ele>
        <time>2021-08-16T13:45:46Z</time>
      </trkpt>
      <trkpt lat="44.26136" lon="3.00517">
        <ele>948.4</ele>
        <time>2021-08-16T13:45:48Z</time>
      </trkpt>
      <trkpt lat="44.26138" lon="3.00526">
        <ele>949</ele>
        <time>2021-08-16T13:45:50Z</time>
      </trkpt>
      <trkpt lat="44.2614" lon="3.00535">
        <ele>949.6</ele>
        <time>2021-08-16T13:45:52Z</time>
      </trkpt>
      <trkpt lat="44.26142" lon="3.00543">
        <ele>950.1</ele>
        <time>2021-08-16T13:45:54Z</time>
      </trkpt>
      <trkpt lat="44.26143" lon="3.00552">
        <ele>950.7</ele>
        <time>2021-08-16T13:45:56Z</time>
      </trkpt>
      <trkpt lat="44.26144" lon="3.00561">
        <ele>951.2</ele>
        <time>2021-08-16T13:45:58Z</time>
      </trkpt>
      <trkpt lat="44.26145" lon="3.0057">
        <ele>951.7</ele>
        <time>2021-08-16T13:46:00Z</time>
      </trkpt>
      <trkpt lat="44.26146" lon="3.00579">
        <ele>952.3</ele>
        <time>2021-08-16T13:46:02Z</time>
      </trkpt>
      <trkpt lat="44.26146" lon="3.00587">
        <ele>952.9</ele>
        <time>2021-08-16T13:46:04Z</time>
      </trkpt>
      <trkpt lat="44.26147" lon="3.00595">
        <ele>953.6</ele>
        <time>2021-08-16T13:46:06Z</time>
      </trkpt>
      <trkpt lat="44.26146" lon="3.00603">
        <ele>954.3</ele>
        <time>2021-08-16T13:46:08Z</time>
      </trkpt>
      <trkpt lat="44.26145" lon="3.00612">
        <ele>955</ele>
        <time>2021-08-16T13:46:10Z</time>
      </trkpt>
      <trkpt lat="44.26143" lon="3.0062">
        <ele>955.5</ele>
        <time>2021-08-16T13:46:12Z</time>
      </trkpt>
      <trkpt lat="44.2614" lon="3.00627">
        <ele>955.9</ele>
        <time>2021-08-16T13:46:14Z</time>
      </trkpt>
      <trkpt lat="44.26137" lon="3.00632">
        <ele>956.2</ele>
        <time>2021-08-16T13:46:16Z</time>
      </trkpt>
      <trkpt lat="44.26133" lon="3.00636">
        <ele>956.3</ele>
        <time>2021-08-16T13:46:18Z</time>
      </trkpt>
      <trkpt lat="44.26128" lon="3.00639">
        <ele>956.2</ele>
        <time>2021-08-16T13:46:20Z</time>
      </trkpt>
      <trkpt lat="44.26123" lon="3.00642">
        <ele>956.2</ele>
        <time>2021-08-16T13:46:22Z</time>
      </trkpt>
      <trkpt lat="44.26118" lon="3.00645">
        <ele>956.1</ele>
        <time>2021-08-16T13:46:24Z</time>
      </trkpt>
      <trkpt lat="44.26113" lon="3.00648">
        <ele>956.1</ele>
        <time>2021-08-16T13:46:26Z</time>
      </trkpt>
      <trkpt lat="44.26108" lon="3.0065">
        <ele>956</ele>
        <time>2021-08-16T13:46:28Z</time>
      </trkpt>
      <trkpt lat="44.26103" lon="3.00653">
        <ele>955.9</ele>
        <time>2021-08-16T13:46:30Z</time>
      </trkpt>
      <trkpt lat="44.26098" lon="3.00655">
        <ele>955.8</ele>
        <time>2021-08-16T13:46:32Z</time>
      </trkpt>
      <trkpt lat="44.26092" lon="3.00658">
        <ele>955.7</ele>
        <time>2021-08-16T13:46:34Z</time>
      </trkpt>
      <trkpt lat="44.26086" lon="3.00662">
        <ele>955.7</ele>
        <time>2021-08-16T13:46:36Z</time>
      </trkpt>
      <trkpt lat="44.2608" lon="3.00666">
        <ele>955.7</ele>
        <time>2021-08-16T13:46:38Z</time>
      </trkpt>
      <trkpt lat="44.26075" lon="3.0067">
        <ele>955.6</ele>
        <time>2021-08-16T13:46:40Z</time>
      </trkpt>
      <trkpt lat="44.2607" lon="3.00673">
        <ele>955.6</ele>
        <time>2021-08-16T13:46:42Z</time>
      </trkpt>
      <trkpt lat="44.26065" lon="3.00677">
        <ele>955.6</ele>
        <time>2021-08-16T13:46:44Z</time>
      </trkpt>
      <trkpt lat="44.26061" lon="3.00681">
        <ele>955.6</ele>
        <time>2021-08-16T13:46:46Z</time>
      </trkpt>
      <trkpt lat="44.26056" lon="3.00686">
        <ele>955.7</ele>
        <time>2021-08-16T13:46:48Z</time>
      </trkpt>
      <trkpt lat="44.26053" lon="3.00692">
        <ele>956</ele>
        <time>2021-08-16T13:46:50Z</time>
      </trkpt>
      <trkpt lat="44.2605" lon="3.00699">
        <ele>956.4</ele>
        <time>2021-08-16T13:46:52Z</time>
      </trkpt>
      <trkpt lat="44.26046" lon="3.00707">
        <ele>956.7</ele>
        <time>2021-08-16T13:46:54Z</time>
      </trkpt>
      <trkpt lat="44.26042" lon="3.00717">
        <ele>957.2</ele>
        <time>2021-08-16T13:46:56Z</time>
      </trkpt>
      <trkpt lat="44.26039" lon="3.00727">
        <ele>957.8</ele>
        <time>2021-08-16T13:46:58Z</time>
      </trkpt>
      <trkpt lat="44.26036" lon="3.00737">
        <ele>958.4</ele>
        <time>2021-08-16T13:47:00Z</time>
      </trkpt>
      <trkpt lat="44.26033" lon="3.00748">
        <ele>959</ele>
        <time>2021-08-16T13:47:02Z</time>
      </trkpt>
      <trkpt lat="44.26031" lon="3.00758">
        <ele>959.3</ele>
        <time>2021-08-16T13:47:04Z</time>
      </trkpt>
      <trkpt lat="44.26029" lon="3.00768">
        <ele>959.6</ele>
        <time>2021-08-16T13:47:06Z</time>
      </trkpt>
      <trkpt lat="44.26027" lon="3.00777">
        <ele>959.9</ele>
        <time>2021-08-16T13:47:08Z</time>
      </trkpt>
      <trkpt lat="44.26025" lon="3.00786">
        <ele>960.1</ele>
        <time>2021-08-16T13:47:10Z</time>
      </trkpt>
      <trkpt lat="44.26023" lon="3.00796">
        <ele>960.4</ele>
        <time>2021-08-16T13:47:12Z</time>
      </trkpt>
      <trkpt lat="44.26021" lon="3.00805">
        <ele>960.7</ele>
        <time>2021-08-16T13:47:14Z</time>
      </trkpt>
      <trkpt lat="44.26019" lon="3.00815">
        <ele>960.9</ele>
        <time>2021-08-16T13:47:16Z</time>
      </trkpt>
      <trkpt lat="44.26016" lon="3.00824">
        <ele>961.1</ele>
        <time>2021-08-16T13:47:18Z</time>
      </trkpt>
      <trkpt lat="44.26014" lon="3.00833">
        <ele>961.3</ele>
        <time>2021-08-16T13:47:20Z</time>
      </trkpt>
      <trkpt lat="44.26011" lon="3.00843">
        <ele>961.1</ele>
        <time>2021-08-16T13:47:22Z</time>
      </trkpt>
      <trkpt lat="44.2601" lon="3.00854">
        <ele>961</ele>
        <time>2021-08-16T13:47:24Z</time>
      </trkpt>
      <trkpt lat="44.2601" lon="3.00865">
        <ele>961</ele>
        <time>2021-08-16T13:47:26Z</time>
      </trkpt>
      <trkpt lat="44.2601" lon="3.00876">
        <ele>961.1</ele>
        <time>2021-08-16T13:47:28Z</time>
      </trkpt>
      <trkpt lat="44.26012" lon="3.00887">
        <ele>961.3</ele>
        <time>2021-08-16T13:47:30Z</time>
      </trkpt>
      <trkpt lat="44.26014" lon="3.009">
        <ele>961.6</ele>
        <time>2021-08-16T13:47:32Z</time>
      </trkpt>
      <trkpt lat="44.26019" lon="3.00913">
        <ele>962.2</ele>
        <time>2021-08-16T13:47:34Z</time>
      </trkpt>
      <trkpt lat="44.26024" lon="3.00925">
        <ele>961.9</ele>
        <time>2021-08-16T13:47:36Z</time>
      </trkpt>
      <trkpt lat="44.26032" lon="3.00937">
        <ele>961.5</ele>
        <time>2021-08-16T13:47:38Z</time>
      </trkpt>
      <trkpt lat="44.26038" lon="3.0095">
        <ele>961</ele>
        <time>2021-08-16T13:47:40Z</time>
      </trkpt>
      <trkpt lat="44.26043" lon="3.00965">
        <ele>960.6</ele>
        <time>2021-08-16T13:47:42Z</time>
      </trkpt>
      <trkpt lat="44.26047" lon="3.00979">
        <ele>960.3</ele>
        <time>2021-08-16T13:47:44Z</time>
      </trkpt>
      <trkpt lat="44.2605" lon="3.00993">
        <ele>959.7</ele>
        <time>2021-08-16T13:47:46Z</time>
      </trkpt>
      <trkpt lat="44.26052" lon="3.01006">
        <ele>959.5</ele>
        <time>2021-08-16T13:47:48Z</time>
      </trkpt>
      <trkpt lat="44.26055" lon="3.01017">
        <ele>959.7</ele>
        <time>2021-08-16T13:47:50Z</time>
      </trkpt>
      <trkpt lat="44.26058" lon="3.01028">
        <ele>960.1</ele>
        <time>2021-08-16T13:47:52Z</time>
      </trkpt>
      <trkpt lat="44.26063" lon="3.01039">
        <ele>960.9</ele>
        <time>2021-08-16T13:47:54Z</time>
      </trkpt>
      <trkpt lat="44.26067" lon="3.01048">
        <ele>961.6</ele>
        <time>2021-08-16T13:47:56Z</time>
      </trkpt>
      <trkpt lat="44.26071" lon="3.01055">
        <ele>962.5</ele>
        <time>2021-08-16T13:47:58Z</time>
      </trkpt>
      <trkpt lat="44.26074" lon="3.01062">
        <ele>963.2</ele>
        <time>2021-08-16T13:48:00Z</time>
      </trkpt>
      <trkpt lat="44.26077" lon="3.01068">
        <ele>963.9</ele>
        <time>2021-08-16T13:48:02Z</time>
      </trkpt>
      <trkpt lat="44.26081" lon="3.01074">
        <ele>964.5</ele>
        <time>2021-08-16T13:48:04Z</time>
      </trkpt>
      <trkpt lat="44.26083" lon="3.01081">
        <ele>965.1</ele>
        <time>2021-08-16T13:48:06Z</time>
      </trkpt>
      <trkpt lat="44.26086" lon="3.01088">
        <ele>966.1</ele>
        <time>2021-08-16T13:48:08Z</time>
      </trkpt>
      <trkpt lat="44.26087" lon="3.01096">
        <ele>966.7</ele>
        <time>2021-08-16T13:48:10Z</time>
      </trkpt>
      <trkpt lat="44.26088" lon="3.01103">
        <ele>967.2</ele>
        <time>2021-08-16T13:48:12Z</time>
      </trkpt>
      <trkpt lat="44.26088" lon="3.01111">
        <ele>967.4</ele>
        <time>2021-08-16T13:48:14Z</time>
      </trkpt>
      <trkpt lat="44.26087" lon="3.01118">
        <ele>967.2</ele>
        <time>2021-08-16T13:48:16Z</time>
      </trkpt>
      <trkpt lat="44.26086" lon="3.01126">
        <ele>967</ele>
        <time>2021-08-16T13:48:18Z</time>
      </trkpt>
      <trkpt lat="44.26085" lon="3.01134">
        <ele>966.9</ele>
        <time>2021-08-16T13:48:20Z</time>
      </trkpt>
      <trkpt lat="44.26083" lon="3.01142">
        <ele>966.4</ele>
        <time>2021-08-16T13:48:22Z</time>
      </trkpt>
      <trkpt lat="44.26081" lon="3.01151">
        <ele>966.2</ele>
        <time>2021-08-16T13:48:24Z</time>
      </trkpt>
      <trkpt lat="44.2608" lon="3.0116">
        <ele>966.2</ele>
        <time>2021-08-16T13:48:26Z</time>
      </trkpt>
      <trkpt lat="44.26079" lon="3.0117">
        <ele>966.2</ele>
        <time>2021-08-16T13:48:28Z</time>
      </trkpt>
      <trkpt lat="44.26079" lon="3.01177">
        <ele>966.7</ele>
        <time>2021-08-16T13:48:30Z</time>
      </trkpt>
      <trkpt lat="44.26078" lon="3.01185">
        <ele>967.1</ele>
        <time>2021-08-16T13:48:32Z</time>
      </trkpt>
      <trkpt lat="44.26079" lon="3.01193">
        <ele>967.9</ele>
        <time>2021-08-16T13:48:34Z</time>
      </trkpt>
      <trkpt lat="44.26079" lon="3.012">
        <ele>968.5</ele>
        <time>2021-08-16T13:48:36Z</time>
      </trkpt>
      <trkpt lat="44.26079" lon="3.01206">
        <ele>968.9</ele>
        <time>2021-08-16T13:48:38Z</time>
      </trkpt>
      <trkpt lat="44.2608" lon="3.01213">
        <ele>969.7</ele>
        <time>2021-08-16T13:48:40Z</time>
      </trkpt>
      <trkpt lat="44.26081" lon="3.0122">
        <ele>970.3</ele>
        <time>2021-08-16T13:48:42Z</time>
      </trkpt>
      <trkpt lat="44.26082" lon="3.01226">
        <ele>970.9</ele>
        <time>2021-08-16T13:48:44Z</time>
      </trkpt>
      <trkpt lat="44.26083" lon="3.01231">
        <ele>971.5</ele>
        <time>2021-08-16T13:48:46Z</time>
      </trkpt>
      <trkpt lat="44.26084" lon="3.01238">
        <ele>972.2</ele>
        <time>2021-08-16T13:48:48Z</time>
      </trkpt>
      <trkpt lat="44.26085" lon="3.01243">
        <ele>972.8</ele>
        <time>2021-08-16T13:48:50Z</time>
      </trkpt>
      <trkpt lat="44.26085" lon="3.01249">
        <ele>973.4</ele>
        <time>2021-08-16T13:48:52Z</time>
      </trkpt>
      <trkpt lat="44.26085" lon="3.01255">
        <ele>973.7</ele>
        <time>2021-08-16T13:48:54Z</time>
      </trkpt>
      <trkpt lat="44.26084" lon="3.01261">
        <ele>973.8</ele>
        <time>2021-08-16T13:48:56Z</time>
      </trkpt>
      <trkpt lat="44.26084" lon="3.01266">
        <ele>974.1</ele>
        <time>2021-08-16T13:48:58Z</time>
      </trkpt>
      <trkpt lat="44.26083" lon="3.01272">
        <ele>974.2</ele>
        <time>2021-08-16T13:49:00Z</time>
      </trkpt>
      <trkpt lat="44.26082" lon="3.01276">
        <ele>974.3</ele>
        <time>2021-08-16T13:49:02Z</time>
      </trkpt>
      <trkpt lat="44.26081" lon="3.01282">
        <ele>974.4</ele>
        <time>2021-08-16T13:49:04Z</time>
      </trkpt>
      <trkpt lat="44.2608" lon="3.01286">
        <ele>974.5</ele>
        <time>2021-08-16T13:49:06Z</time>
      </trkpt>
      <trkpt lat="44.26078" lon="3.01291">
        <ele>974.5</ele>
        <time>2021-08-16T13:49:08Z</time>
      </trkpt>
      <trkpt lat="44.26077" lon="3.01295">
        <ele>974.6</ele>
        <time>2021-08-16T13:49:10Z</time>
      </trkpt>
      <trkpt lat="44.26076" lon="3.013">
        <ele>974.7</ele>
        <time>2021-08-16T13:49:12Z</time>
      </trkpt>
      <trkpt lat="44.26074" lon="3.01305">
        <ele>974.6</ele>
        <time>2021-08-16T13:49:14Z</time>
      </trkpt>
      <trkpt lat="44.26073" lon="3.0131">
        <ele>974.8</ele>
        <time>2021-08-16T13:49:16Z</time>
      </trkpt>
      <trkpt lat="44.2607" lon="3.01315">
        <ele>974.6</ele>
        <time>2021-08-16T13:49:18Z</time>
      </trkpt>
      <trkpt lat="44.26069" lon="3.0132">
        <ele>974.8</ele>
        <time>2021-08-16T13:49:20Z</time>
      </trkpt>
      <trkpt lat="44.26066" lon="3.01325">
        <ele>974.7</ele>
        <time>2021-08-16T13:49:22Z</time>
      </trkpt>
      <trkpt lat="44.26064" lon="3.01329">
        <ele>974.7</ele>
        <time>2021-08-16T13:49:24Z</time>
      </trkpt>
      <trkpt lat="44.26062" lon="3.01334">
        <ele>974.7</ele>
        <time>2021-08-16T13:49:26Z</time>
      </trkpt>
      <trkpt lat="44.2606" lon="3.01338">
        <ele>974.4</ele>
        <time>2021-08-16T13:49:28Z</time>
      </trkpt>
      <trkpt lat="44.26059" lon="3.01342">
        <ele>974.2</ele>
        <time>2021-08-16T13:49:30Z</time>
      </trkpt>
      <trkpt lat="44.26057" lon="3.01348">
        <ele>973.9</ele>
        <time>2021-08-16T13:49:32Z</time>
      </trkpt>
      <trkpt lat="44.26056" lon="3.01353">
        <ele>973.8</ele>
        <time>2021-08-16T13:49:34Z</time>
      </trkpt>
      <trkpt lat="44.26053" lon="3.01359">
        <ele>973.5</ele>
        <time>2021-08-16T13:49:36Z</time>
      </trkpt>
      <trkpt lat="44.26052" lon="3.01365">
        <ele>973.4</ele>
        <time>2021-08-16T13:49:38Z</time>
      </trkpt>
      <trkpt lat="44.2605" lon="3.01371">
        <ele>973.3</ele>
        <time>2021-08-16T13:49:40Z</time>
      </trkpt>
      <trkpt lat="44.26049" lon="3.01377">
        <ele>973.3</ele>
        <time>2021-08-16T13:49:42Z</time>
      </trkpt>
      <trkpt lat="44.26048" lon="3.01384">
        <ele>973.2</ele>
        <time>2021-08-16T13:49:44Z</time>
      </trkpt>
      <trkpt lat="44.26048" lon="3.01389">
        <ele>973.3</ele>
        <time>2021-08-16T13:49:46Z</time>
      </trkpt>
      <trkpt lat="44.26048" lon="3.01395">
        <ele>973.4</ele>
        <time>2021-08-16T13:49:48Z</time>
      </trkpt>
      <trkpt lat="44.26049" lon="3.014">
        <ele>973.6</ele>
        <time>2021-08-16T13:49:50Z</time>
      </trkpt>
      <trkpt lat="44.26052" lon="3.01405">
        <ele>973.8</ele>
        <time>2021-08-16T13:49:52Z</time>
      </trkpt>
      <trkpt lat="44.26055" lon="3.01409">
        <ele>973.9</ele>
        <time>2021-08-16T13:49:54Z</time>
      </trkpt>
      <trkpt lat="44.26058" lon="3.01411">
        <ele>974.1</ele>
        <time>2021-08-16T13:49:56Z</time>
      </trkpt>
      <trkpt lat="44.26061" lon="3.01412">
        <ele>974.2</ele>
        <time>2021-08-16T13:49:58Z</time>
      </trkpt>
      <trkpt lat="44.26065" lon="3.01413">
        <ele>974.4</ele>
        <time>2021-08-16T13:50:00Z</time>
      </trkpt>
      <trkpt lat="44.26068" lon="3.01412">
        <ele>974.5</ele>
        <time>2021-08-16T13:50:02Z</time>
      </trkpt>
      <trkpt lat="44.26072" lon="3.0141">
        <ele>974.7</ele>
        <time>2021-08-16T13:50:04Z</time>
      </trkpt>
      <trkpt lat="44.26076" lon="3.01406">
        <ele>975</ele>
        <time>2021-08-16T13:50:06Z</time>
      </trkpt>
      <trkpt lat="44.26079" lon="3.01404">
        <ele>975.2</ele>
        <time>2021-08-16T13:50:08Z</time>
      </trkpt>
      <trkpt lat="44.26083" lon="3.01402">
        <ele>975.5</ele>
        <time>2021-08-16T13:50:10Z</time>
      </trkpt>
      <trkpt lat="44.26084" lon="3.014">
        <ele>975.5</ele>
        <time>2021-08-16T13:50:12Z</time>
      </trkpt>
      <trkpt lat="44.26086" lon="3.01397">
        <ele>975.2</ele>
        <time>2021-08-16T13:50:14Z</time>
      </trkpt>
      <trkpt lat="44.26089" lon="3.01395">
        <ele>975</ele>
        <time>2021-08-16T13:50:16Z</time>
      </trkpt>
      <trkpt lat="44.26091" lon="3.01393">
        <ele>974.8</ele>
        <time>2021-08-16T13:50:18Z</time>
      </trkpt>
      <trkpt lat="44.26092" lon="3.01391">
        <ele>974.8</ele>
        <time>2021-08-16T13:50:20Z</time>
      </trkpt>
      <trkpt lat="44.2609" lon="3.01388">
        <ele>975.1</ele>
        <time>2021-08-16T13:50:22Z</time>
      </trkpt>
      <trkpt lat="44.26087" lon="3.0139">
        <ele>975.5</ele>
        <time>2021-08-16T13:50:24Z</time>
      </trkpt>
      <trkpt lat="44.26088" lon="3.01395">
        <ele>975.1</ele>
        <time>2021-08-16T13:50:26Z</time>
      </trkpt>
      <trkpt lat="44.26091" lon="3.01396">
        <ele>974.6</ele>
        <time>2021-08-16T13:50:28Z</time>
      </trkpt>
      <trkpt lat="44.26095" lon="3.01392">
        <ele>974.3</ele>
        <time>2021-08-16T13:50:30Z</time>
      </trkpt>
      <trkpt lat="44.26098" lon="3.0139">
        <ele>974</ele>
        <time>2021-08-16T13:50:32Z</time>
      </trkpt>
      <trkpt lat="44.26101" lon="3.01388">
        <ele>973.7</ele>
        <time>2021-08-16T13:50:34Z</time>
      </trkpt>
      <trkpt lat="44.26104" lon="3.01385">
        <ele>973.6</ele>
        <time>2021-08-16T13:50:36Z</time>
      </trkpt>
      <trkpt lat="44.26107" lon="3.01381">
        <ele>973.7</ele>
        <time>2021-08-16T13:50:38Z</time>
      </trkpt>
      <trkpt lat="44.2611" lon="3.01378">
        <ele>973.7</ele>
        <time>2021-08-16T13:50:40Z</time>
      </trkpt>
      <trkpt lat="44.26113" lon="3.01377">
        <ele>973.5</ele>
        <time>2021-08-16T13:50:42Z</time>
      </trkpt>
      <trkpt lat="44.26115" lon="3.01375">
        <ele>973.4</ele>
        <time>2021-08-16T13:50:44Z</time>
      </trkpt>
      <trkpt lat="44.26114" lon="3.01376">
        <ele>973.5</ele>
        <time>2021-08-16T13:50:46Z</time>
      </trkpt>
      <trkpt lat="44.26114" lon="3.01376">
        <ele>973.4</ele>
        <time>2021-08-16T13:50:48Z</time>
      </trkpt>
      <trkpt lat="44.26114" lon="3.01376">
        <ele>973.4</ele>
        <time>2021-08-16T13:50:50Z</time>
      </trkpt>
      <trkpt lat="44.26114" lon="3.01376">
        <ele>973.4</ele>
        <time>2021-08-16T13:50:52Z</time>
      </trkpt>
      <trkpt lat="44.26126" lon="3.01366">
        <ele>973.8</ele>
        <time>2021-08-16T13:52:10Z</time>
      </trkpt>
      <trkpt lat="44.26133" lon="3.0136">
        <ele>974.2</ele>
        <time>2021-08-16T13:52:12Z</time>
      </trkpt>
      <trkpt lat="44.26142" lon="3.01354">
        <ele>974.8</ele>
        <time>2021-08-16T13:52:14Z</time>
      </trkpt>
      <trkpt lat="44.26152" lon="3.01348">
        <ele>975.7</ele>
        <time>2021-08-16T13:52:16Z</time>
      </trkpt>
      <trkpt lat="44.26163" lon="3.0134">
        <ele>977.2</ele>
        <time>2021-08-16T13:52:18Z</time>
      </trkpt>
      <trkpt lat="44.26176" lon="3.01333">
        <ele>977.8</ele>
        <time>2021-08-16T13:52:20Z</time>
      </trkpt>
      <trkpt lat="44.26191" lon="3.01328">
        <ele>977</ele>
        <time>2021-08-16T13:52:22Z</time>
      </trkpt>
      <trkpt lat="44.26206" lon="3.01324">
        <ele>976.3</ele>
        <time>2021-08-16T13:52:24Z</time>
      </trkpt>
      <trkpt lat="44.26222" lon="3.01319">
        <ele>976.4</ele>
        <time>2021-08-16T13:52:26Z</time>
      </trkpt>
      <trkpt lat="44.26237" lon="3.01314">
        <ele>976.8</ele>
        <time>2021-08-16T13:52:28Z</time>
      </trkpt>
      <trkpt lat="44.26254" lon="3.01314">
        <ele>975.7</ele>
        <time>2021-08-16T13:52:30Z</time>
      </trkpt>
      <trkpt lat="44.2627" lon="3.01318">
        <ele>973.4</ele>
        <time>2021-08-16T13:52:32Z</time>
      </trkpt>
      <trkpt lat="44.2629" lon="3.01319">
        <ele>972</ele>
        <time>2021-08-16T13:52:34Z</time>
      </trkpt>
      <trkpt lat="44.26309" lon="3.01317">
        <ele>972.2</ele>
        <time>2021-08-16T13:52:36Z</time>
      </trkpt>
      <trkpt lat="44.26329" lon="3.01312">
        <ele>973.2</ele>
        <time>2021-08-16T13:52:38Z</time>
      </trkpt>
      <trkpt lat="44.26349" lon="3.01311">
        <ele>972.7</ele>
        <time>2021-08-16T13:52:40Z</time>
      </trkpt>
      <trkpt lat="44.2637" lon="3.01312">
        <ele>971.5</ele>
        <time>2021-08-16T13:52:42Z</time>
      </trkpt>
      <trkpt lat="44.26391" lon="3.01313">
        <ele>970.1</ele>
        <time>2021-08-16T13:52:44Z</time>
      </trkpt>
      <trkpt lat="44.2641" lon="3.01314">
        <ele>969.1</ele>
        <time>2021-08-16T13:52:46Z</time>
      </trkpt>
      <trkpt lat="44.26425" lon="3.01313">
        <ele>969.1</ele>
        <time>2021-08-16T13:52:48Z</time>
      </trkpt>
      <trkpt lat="44.26437" lon="3.01321">
        <ele>968.1</ele>
        <time>2021-08-16T13:52:50Z</time>
      </trkpt>
      <trkpt lat="44.26443" lon="3.01337">
        <ele>966</ele>
        <time>2021-08-16T13:52:52Z</time>
      </trkpt>
      <trkpt lat="44.26441" lon="3.01353">
        <ele>966.4</ele>
        <time>2021-08-16T13:52:54Z</time>
      </trkpt>
      <trkpt lat="44.26434" lon="3.01366">
        <ele>966</ele>
        <time>2021-08-16T13:52:56Z</time>
      </trkpt>
      <trkpt lat="44.26426" lon="3.01378">
        <ele>965</ele>
        <time>2021-08-16T13:52:58Z</time>
      </trkpt>
      <trkpt lat="44.26416" lon="3.01385">
        <ele>963.3</ele>
        <time>2021-08-16T13:53:00Z</time>
      </trkpt>
      <trkpt lat="44.26405" lon="3.01391">
        <ele>961.6</ele>
        <time>2021-08-16T13:53:02Z</time>
      </trkpt>
      <trkpt lat="44.26397" lon="3.01401">
        <ele>959.7</ele>
        <time>2021-08-16T13:53:04Z</time>
      </trkpt>
      <trkpt lat="44.26389" lon="3.01415">
        <ele>957.3</ele>
        <time>2021-08-16T13:53:06Z</time>
      </trkpt>
      <trkpt lat="44.26384" lon="3.0143">
        <ele>957.1</ele>
        <time>2021-08-16T13:53:08Z</time>
      </trkpt>
      <trkpt lat="44.26379" lon="3.01445">
        <ele>957.2</ele>
        <time>2021-08-16T13:53:10Z</time>
      </trkpt>
      <trkpt lat="44.26375" lon="3.0146">
        <ele>957.4</ele>
        <time>2021-08-16T13:53:12Z</time>
      </trkpt>
      <trkpt lat="44.2637" lon="3.01475">
        <ele>957.1</ele>
        <time>2021-08-16T13:53:14Z</time>
      </trkpt>
      <trkpt lat="44.26365" lon="3.01489">
        <ele>956.4</ele>
        <time>2021-08-16T13:53:16Z</time>
      </trkpt>
      <trkpt lat="44.2636" lon="3.01503">
        <ele>955.7</ele>
        <time>2021-08-16T13:53:18Z</time>
      </trkpt>
      <trkpt lat="44.26355" lon="3.01517">
        <ele>955.2</ele>
        <time>2021-08-16T13:53:20Z</time>
      </trkpt>
      <trkpt lat="44.26351" lon="3.0153">
        <ele>954.9</ele>
        <time>2021-08-16T13:53:22Z</time>
      </trkpt>
      <trkpt lat="44.26347" lon="3.01544">
        <ele>954.7</ele>
        <time>2021-08-16T13:53:24Z</time>
      </trkpt>
      <trkpt lat="44.26343" lon="3.01558">
        <ele>954.7</ele>
        <time>2021-08-16T13:53:26Z</time>
      </trkpt>
      <trkpt lat="44.26339" lon="3.01573">
        <ele>955</ele>
        <time>2021-08-16T13:53:28Z</time>
      </trkpt>
      <trkpt lat="44.26337" lon="3.01587">
        <ele>955.4</ele>
        <time>2021-08-16T13:53:30Z</time>
      </trkpt>
      <trkpt lat="44.26333" lon="3.01601">
        <ele>955</ele>
        <time>2021-08-16T13:53:32Z</time>
      </trkpt>
      <trkpt lat="44.26331" lon="3.01614">
        <ele>955.1</ele>
        <time>2021-08-16T13:53:34Z</time>
      </trkpt>
      <trkpt lat="44.26329" lon="3.01627">
        <ele>955.1</ele>
        <time>2021-08-16T13:53:36Z</time>
      </trkpt>
      <trkpt lat="44.26327" lon="3.01642">
        <ele>955.3</ele>
        <time>2021-08-16T13:53:38Z</time>
      </trkpt>
      <trkpt lat="44.26326" lon="3.01656">
        <ele>955.9</ele>
        <time>2021-08-16T13:53:40Z</time>
      </trkpt>
      <trkpt lat="44.26325" lon="3.01671">
        <ele>955.9</ele>
        <time>2021-08-16T13:53:42Z</time>
      </trkpt>
      <trkpt lat="44.26326" lon="3.01684">
        <ele>956</ele>
        <time>2021-08-16T13:53:44Z</time>
      </trkpt>
      <trkpt lat="44.26328" lon="3.01698">
        <ele>956.2</ele>
        <time>2021-08-16T13:53:46Z</time>
      </trkpt>
      <trkpt lat="44.2633" lon="3.01713">
        <ele>956.5</ele>
        <time>2021-08-16T13:53:48Z</time>
      </trkpt>
      <trkpt lat="44.26333" lon="3.01726">
        <ele>957.5</ele>
        <time>2021-08-16T13:53:50Z</time>
      </trkpt>
      <trkpt lat="44.26337" lon="3.01739">
        <ele>958.5</ele>
        <time>2021-08-16T13:53:52Z</time>
      </trkpt>
      <trkpt lat="44.26343" lon="3.0175">
        <ele>960.1</ele>
        <time>2021-08-16T13:53:54Z</time>
      </trkpt>
      <trkpt lat="44.26348" lon="3.01763">
        <ele>961.5</ele>
        <time>2021-08-16T13:53:56Z</time>
      </trkpt>
      <trkpt lat="44.2635" lon="3.01777">
        <ele>962.1</ele>
        <time>2021-08-16T13:53:58Z</time>
      </trkpt>
      <trkpt lat="44.26348" lon="3.01792">
        <ele>961.8</ele>
        <time>2021-08-16T13:54:00Z</time>
      </trkpt>
      <trkpt lat="44.26347" lon="3.01805">
        <ele>961.5</ele>
        <time>2021-08-16T13:54:02Z</time>
      </trkpt>
      <trkpt lat="44.26346" lon="3.01818">
        <ele>961.2</ele>
        <time>2021-08-16T13:54:04Z</time>
      </trkpt>
      <trkpt lat="44.26344" lon="3.01832">
        <ele>960.7</ele>
        <time>2021-08-16T13:54:06Z</time>
      </trkpt>
      <trkpt lat="44.26342" lon="3.01845">
        <ele>960.5</ele>
        <time>2021-08-16T13:54:08Z</time>
      </trkpt>
      <trkpt lat="44.2634" lon="3.01857">
        <ele>960.4</ele>
        <time>2021-08-16T13:54:10Z</time>
      </trkpt>
      <trkpt lat="44.2634" lon="3.01869">
        <ele>960.7</ele>
        <time>2021-08-16T13:54:12Z</time>
      </trkpt>
      <trkpt lat="44.26338" lon="3.01881">
        <ele>960.6</ele>
        <time>2021-08-16T13:54:14Z</time>
      </trkpt>
      <trkpt lat="44.26337" lon="3.01893">
        <ele>961</ele>
        <time>2021-08-16T13:54:16Z</time>
      </trkpt>
      <trkpt lat="44.26337" lon="3.01904">
        <ele>961.4</ele>
        <time>2021-08-16T13:54:18Z</time>
      </trkpt>
      <trkpt lat="44.26335" lon="3.01917">
        <ele>961.5</ele>
        <time>2021-08-16T13:54:20Z</time>
      </trkpt>
      <trkpt lat="44.26334" lon="3.01929">
        <ele>961.2</ele>
        <time>2021-08-16T13:54:22Z</time>
      </trkpt>
      <trkpt lat="44.26334" lon="3.0194">
        <ele>961.1</ele>
        <time>2021-08-16T13:54:24Z</time>
      </trkpt>
      <trkpt lat="44.26333" lon="3.01952">
        <ele>960.8</ele>
        <time>2021-08-16T13:54:26Z</time>
      </trkpt>
      <trkpt lat="44.26332" lon="3.01965">
        <ele>960.6</ele>
        <time>2021-08-16T13:54:28Z</time>
      </trkpt>
      <trkpt lat="44.26331" lon="3.01978">
        <ele>960.3</ele>
        <time>2021-08-16T13:54:30Z</time>
      </trkpt>
      <trkpt lat="44.2633" lon="3.01993">
        <ele>960</ele>
        <time>2021-08-16T13:54:32Z</time>
      </trkpt>
      <trkpt lat="44.2633" lon="3.02006">
        <ele>959.7</ele>
        <time>2021-08-16T13:54:34Z</time>
      </trkpt>
      <trkpt lat="44.26328" lon="3.0202">
        <ele>958.5</ele>
        <time>2021-08-16T13:54:36Z</time>
      </trkpt>
      <trkpt lat="44.26328" lon="3.02034">
        <ele>957.7</ele>
        <time>2021-08-16T13:54:38Z</time>
      </trkpt>
      <trkpt lat="44.26328" lon="3.02049">
        <ele>957.1</ele>
        <time>2021-08-16T13:54:40Z</time>
      </trkpt>
      <trkpt lat="44.26331" lon="3.02064">
        <ele>957.3</ele>
        <time>2021-08-16T13:54:42Z</time>
      </trkpt>
      <trkpt lat="44.26336" lon="3.02076">
        <ele>958</ele>
        <time>2021-08-16T13:54:44Z</time>
      </trkpt>
      <trkpt lat="44.26342" lon="3.02088">
        <ele>958.7</ele>
        <time>2021-08-16T13:54:46Z</time>
      </trkpt>
      <trkpt lat="44.26348" lon="3.02098">
        <ele>959.1</ele>
        <time>2021-08-16T13:54:48Z</time>
      </trkpt>
      <trkpt lat="44.26354" lon="3.02109">
        <ele>959.3</ele>
        <time>2021-08-16T13:54:50Z</time>
      </trkpt>
      <trkpt lat="44.26359" lon="3.0212">
        <ele>959.4</ele>
        <time>2021-08-16T13:54:52Z</time>
      </trkpt>
      <trkpt lat="44.26364" lon="3.02131">
        <ele>959.4</ele>
        <time>2021-08-16T13:54:54Z</time>
      </trkpt>
      <trkpt lat="44.26368" lon="3.02143">
        <ele>959</ele>
        <time>2021-08-16T13:54:56Z</time>
      </trkpt>
      <trkpt lat="44.26369" lon="3.02156">
        <ele>958</ele>
        <time>2021-08-16T13:54:58Z</time>
      </trkpt>
      <trkpt lat="44.26369" lon="3.02168">
        <ele>956.9</ele>
        <time>2021-08-16T13:55:00Z</time>
      </trkpt>
      <trkpt lat="44.26369" lon="3.0218">
        <ele>956.3</ele>
        <time>2021-08-16T13:55:02Z</time>
      </trkpt>
      <trkpt lat="44.26367" lon="3.02191">
        <ele>955.5</ele>
        <time>2021-08-16T13:55:04Z</time>
      </trkpt>
      <trkpt lat="44.26364" lon="3.02202">
        <ele>954.6</ele>
        <time>2021-08-16T13:55:06Z</time>
      </trkpt>
      <trkpt lat="44.2636" lon="3.02212">
        <ele>953.8</ele>
        <time>2021-08-16T13:55:08Z</time>
      </trkpt>
      <trkpt lat="44.26356" lon="3.02221">
        <ele>953</ele>
        <time>2021-08-16T13:55:10Z</time>
      </trkpt>
      <trkpt lat="44.26353" lon="3.0223">
        <ele>952.3</ele>
        <time>2021-08-16T13:55:12Z</time>
      </trkpt>
      <trkpt lat="44.26348" lon="3.02238">
        <ele>951.6</ele>
        <time>2021-08-16T13:55:14Z</time>
      </trkpt>
      <trkpt lat="44.26344" lon="3.02247">
        <ele>951.1</ele>
        <time>2021-08-16T13:55:16Z</time>
      </trkpt>
      <trkpt lat="44.26341" lon="3.02256">
        <ele>950.3</ele>
        <time>2021-08-16T13:55:18Z</time>
      </trkpt>
      <trkpt lat="44.26338" lon="3.02265">
        <ele>949.6</ele>
        <time>2021-08-16T13:55:20Z</time>
      </trkpt>
      <trkpt lat="44.26337" lon="3.02274">
        <ele>949.1</ele>
        <time>2021-08-16T13:55:22Z</time>
      </trkpt>
      <trkpt lat="44.26336" lon="3.02279">
        <ele>948.7</ele>
        <time>2021-08-16T13:55:24Z</time>
      </trkpt>
      <trkpt lat="44.26335" lon="3.02283">
        <ele>948.5</ele>
        <time>2021-08-16T13:55:26Z</time>
      </trkpt>
      <trkpt lat="44.26335" lon="3.02284">
        <ele>948.4</ele>
        <time>2021-08-16T13:55:28Z</time>
      </trkpt>
      <trkpt lat="44.26335" lon="3.02284">
        <ele>948.5</ele>
        <time>2021-08-16T13:55:30Z</time>
      </trkpt>
      <trkpt lat="44.26335" lon="3.02284">
        <ele>948.5</ele>
        <time>2021-08-16T13:55:32Z</time>
      </trkpt>
      <trkpt lat="44.26335" lon="3.02284">
        <ele>948.4</ele>
        <time>2021-08-16T13:55:34Z</time>
      </trkpt>
      <trkpt lat="44.26359" lon="3.02312">
        <ele>947</ele>
        <time>2021-08-16T14:03:00Z</time>
      </trkpt>
      <trkpt lat="44.26372" lon="3.02313">
        <ele>946.9</ele>
        <time>2021-08-16T14:03:02Z</time>
      </trkpt>
      <trkpt lat="44.26385" lon="3.0231">
        <ele>947.1</ele>
        <time>2021-08-16T14:03:04Z</time>
      </trkpt>
      <trkpt lat="44.26399" lon="3.0231">
        <ele>947.2</ele>
        <time>2021-08-16T14:03:06Z</time>
      </trkpt>
      <trkpt lat="44.26414" lon="3.0231">
        <ele>947.3</ele>
        <time>2021-08-16T14:03:08Z</time>
      </trkpt>
      <trkpt lat="44.26429" lon="3.02311">
        <ele>947.9</ele>
        <time>2021-08-16T14:03:10Z</time>
      </trkpt>
      <trkpt lat="44.26444" lon="3.02318">
        <ele>947.7</ele>
        <time>2021-08-16T14:03:12Z</time>
      </trkpt>
      <trkpt lat="44.26458" lon="3.02333">
        <ele>946</ele>
        <time>2021-08-16T14:03:14Z</time>
      </trkpt>
      <trkpt lat="44.2647" lon="3.02352">
        <ele>943.7</ele>
        <time>2021-08-16T14:03:16Z</time>
      </trkpt>
      <trkpt lat="44.26482" lon="3.02371">
        <ele>941.4</ele>
        <time>2021-08-16T14:03:18Z</time>
      </trkpt>
      <trkpt lat="44.26496" lon="3.02388">
        <ele>939.6</ele>
        <time>2021-08-16T14:03:20Z</time>
      </trkpt>
      <trkpt lat="44.26513" lon="3.02402">
        <ele>939.1</ele>
        <time>2021-08-16T14:03:22Z</time>
      </trkpt>
      <trkpt lat="44.26532" lon="3.02412">
        <ele>940.1</ele>
        <time>2021-08-16T14:03:24Z</time>
      </trkpt>
      <trkpt lat="44.26554" lon="3.02418">
        <ele>941.9</ele>
        <time>2021-08-16T14:03:26Z</time>
      </trkpt>
      <trkpt lat="44.26573" lon="3.02428">
        <ele>943</ele>
        <time>2021-08-16T14:03:28Z</time>
      </trkpt>
      <trkpt lat="44.26588" lon="3.02442">
        <ele>943.8</ele>
        <time>2021-08-16T14:03:30Z</time>
      </trkpt>
      <trkpt lat="44.26599" lon="3.02456">
        <ele>944.4</ele>
        <time>2021-08-16T14:03:32Z</time>
      </trkpt>
      <trkpt lat="44.26607" lon="3.02471">
        <ele>944.2</ele>
        <time>2021-08-16T14:03:34Z</time>
      </trkpt>
      <trkpt lat="44.26612" lon="3.02485">
        <ele>943.8</ele>
        <time>2021-08-16T14:03:36Z</time>
      </trkpt>
      <trkpt lat="44.26618" lon="3.02495">
        <ele>944</ele>
        <time>2021-08-16T14:03:38Z</time>
      </trkpt>
      <trkpt lat="44.26623" lon="3.02504">
        <ele>944.3</ele>
        <time>2021-08-16T14:03:40Z</time>
      </trkpt>
      <trkpt lat="44.26628" lon="3.02512">
        <ele>944.6</ele>
        <time>2021-08-16T14:03:42Z</time>
      </trkpt>
      <trkpt lat="44.26631" lon="3.0252">
        <ele>944.7</ele>
        <time>2021-08-16T14:03:44Z</time>
      </trkpt>
      <trkpt lat="44.26634" lon="3.02527">
        <ele>944.8</ele>
        <time>2021-08-16T14:03:46Z</time>
      </trkpt>
      <trkpt lat="44.26637" lon="3.02532">
        <ele>945.1</ele>
        <time>2021-08-16T14:03:48Z</time>
      </trkpt>
      <trkpt lat="44.2664" lon="3.02536">
        <ele>945.3</ele>
        <time>2021-08-16T14:03:50Z</time>
      </trkpt>
      <trkpt lat="44.26643" lon="3.02542">
        <ele>945.5</ele>
        <time>2021-08-16T14:03:52Z</time>
      </trkpt>
      <trkpt lat="44.26645" lon="3.02548">
        <ele>945.4</ele>
        <time>2021-08-16T14:03:54Z</time>
      </trkpt>
      <trkpt lat="44.26646" lon="3.02556">
        <ele>945.1</ele>
        <time>2021-08-16T14:03:56Z</time>
      </trkpt>
      <trkpt lat="44.26649" lon="3.02562">
        <ele>945.1</ele>
        <time>2021-08-16T14:03:58Z</time>
      </trkpt>
      <trkpt lat="44.26651" lon="3.02567">
        <ele>945.2</ele>
        <time>2021-08-16T14:04:00Z</time>
      </trkpt>
      <trkpt lat="44.26654" lon="3.02572">
        <ele>945.2</ele>
        <time>2021-08-16T14:04:02Z</time>
      </trkpt>
      <trkpt lat="44.26656" lon="3.02577">
        <ele>945.2</ele>
        <time>2021-08-16T14:04:04Z</time>
      </trkpt>
      <trkpt lat="44.26658" lon="3.0258">
        <ele>945.5</ele>
        <time>2021-08-16T14:04:06Z</time>
      </trkpt>
      <trkpt lat="44.26661" lon="3.02584">
        <ele>945.8</ele>
        <time>2021-08-16T14:04:08Z</time>
      </trkpt>
      <trkpt lat="44.26664" lon="3.02587">
        <ele>946.1</ele>
        <time>2021-08-16T14:04:10Z</time>
      </trkpt>
      <trkpt lat="44.26667" lon="3.0259">
        <ele>946.6</ele>
        <time>2021-08-16T14:04:12Z</time>
      </trkpt>
      <trkpt lat="44.2667" lon="3.02593">
        <ele>946.7</ele>
        <time>2021-08-16T14:04:14Z</time>
      </trkpt>
      <trkpt lat="44.26674" lon="3.02595">
        <ele>946.9</ele>
        <time>2021-08-16T14:04:16Z</time>
      </trkpt>
      <trkpt lat="44.26677" lon="3.02598">
        <ele>947</ele>
        <time>2021-08-16T14:04:18Z</time>
      </trkpt>
      <trkpt lat="44.26681" lon="3.026">
        <ele>947.1</ele>
        <time>2021-08-16T14:04:20Z</time>
      </trkpt>
      <trkpt lat="44.26684" lon="3.02602">
        <ele>947.3</ele>
        <time>2021-08-16T14:04:22Z</time>
      </trkpt>
      <trkpt lat="44.26688" lon="3.02604">
        <ele>947.5</ele>
        <time>2021-08-16T14:04:24Z</time>
      </trkpt>
      <trkpt lat="44.26691" lon="3.02606">
        <ele>947.7</ele>
        <time>2021-08-16T14:04:26Z</time>
      </trkpt>
      <trkpt lat="44.26695" lon="3.02607">
        <ele>947.9</ele>
        <time>2021-08-16T14:04:28Z</time>
      </trkpt>
      <trkpt lat="44.26698" lon="3.02609">
        <ele>948.1</ele>
        <time>2021-08-16T14:04:30Z</time>
      </trkpt>
      <trkpt lat="44.26701" lon="3.0261">
        <ele>948.3</ele>
        <time>2021-08-16T14:04:32Z</time>
      </trkpt>
      <trkpt lat="44.26704" lon="3.02609">
        <ele>948.6</ele>
        <time>2021-08-16T14:04:34Z</time>
      </trkpt>
      <trkpt lat="44.26708" lon="3.0261">
        <ele>948.9</ele>
        <time>2021-08-16T14:04:36Z</time>
      </trkpt>
      <trkpt lat="44.26712" lon="3.0261">
        <ele>949.2</ele>
        <time>2021-08-16T14:04:38Z</time>
      </trkpt>
      <trkpt lat="44.26715" lon="3.02609">
        <ele>949.5</ele>
        <time>2021-08-16T14:04:40Z</time>
      </trkpt>
      <trkpt lat="44.26719" lon="3.02607">
        <ele>949.9</ele>
        <time>2021-08-16T14:04:42Z</time>
      </trkpt>
      <trkpt lat="44.26722" lon="3.02606">
        <ele>950.3</ele>
        <time>2021-08-16T14:04:44Z</time>
      </trkpt>
      <trkpt lat="44.26725" lon="3.02604">
        <ele>950.7</ele>
        <time>2021-08-16T14:04:46Z</time>
      </trkpt>
      <trkpt lat="44.26729" lon="3.02602">
        <ele>951.1</ele>
        <time>2021-08-16T14:04:48Z</time>
      </trkpt>
      <trkpt lat="44.26732" lon="3.02599">
        <ele>951.6</ele>
        <time>2021-08-16T14:04:50Z</time>
      </trkpt>
      <trkpt lat="44.26736" lon="3.02596">
        <ele>952</ele>
        <time>2021-08-16T14:04:52Z</time>
      </trkpt>
      <trkpt lat="44.26739" lon="3.02594">
        <ele>952.4</ele>
        <time>2021-08-16T14:04:54Z</time>
      </trkpt>
      <trkpt lat="44.26743" lon="3.02592">
        <ele>952.9</ele>
        <time>2021-08-16T14:04:56Z</time>
      </trkpt>
      <trkpt lat="44.26747" lon="3.02588">
        <ele>953.5</ele>
        <time>2021-08-16T14:04:58Z</time>
      </trkpt>
      <trkpt lat="44.26752" lon="3.02586">
        <ele>953.7</ele>
        <time>2021-08-16T14:05:00Z</time>
      </trkpt>
      <trkpt lat="44.26756" lon="3.02583">
        <ele>953.6</ele>
        <time>2021-08-16T14:05:02Z</time>
      </trkpt>
      <trkpt lat="44.26761" lon="3.0258">
        <ele>953.6</ele>
        <time>2021-08-16T14:05:04Z</time>
      </trkpt>
      <trkpt lat="44.26765" lon="3.02576">
        <ele>953.6</ele>
        <time>2021-08-16T14:05:06Z</time>
      </trkpt>
      <trkpt lat="44.2677" lon="3.02574">
        <ele>953.4</ele>
        <time>2021-08-16T14:05:08Z</time>
      </trkpt>
      <trkpt lat="44.26774" lon="3.02571">
        <ele>953.5</ele>
        <time>2021-08-16T14:05:10Z</time>
      </trkpt>
      <trkpt lat="44.26779" lon="3.02568">
        <ele>953.5</ele>
        <time>2021-08-16T14:05:12Z</time>
      </trkpt>
      <trkpt lat="44.26784" lon="3.02565">
        <ele>953.5</ele>
        <time>2021-08-16T14:05:14Z</time>
      </trkpt>
      <trkpt lat="44.26788" lon="3.0256">
        <ele>953.7</ele>
        <time>2021-08-16T14:05:16Z</time>
      </trkpt>
      <trkpt lat="44.26793" lon="3.02557">
        <ele>953.8</ele>
        <time>2021-08-16T14:05:18Z</time>
      </trkpt>
      <trkpt lat="44.26797" lon="3.02552">
        <ele>954.1</ele>
        <time>2021-08-16T14:05:20Z</time>
      </trkpt>
      <trkpt lat="44.26801" lon="3.02547">
        <ele>954.4</ele>
        <time>2021-08-16T14:05:22Z</time>
      </trkpt>
      <trkpt lat="44.26805" lon="3.02542">
        <ele>954.8</ele>
        <time>2021-08-16T14:05:24Z</time>
      </trkpt>
      <trkpt lat="44.26809" lon="3.02538">
        <ele>955.1</ele>
        <time>2021-08-16T14:05:26Z</time>
      </trkpt>
      <trkpt lat="44.26814" lon="3.02533">
        <ele>955.5</ele>
        <time>2021-08-16T14:05:28Z</time>
      </trkpt>
      <trkpt lat="44.26818" lon="3.02527">
        <ele>956</ele>
        <time>2021-08-16T14:05:30Z</time>
      </trkpt>
      <trkpt lat="44.26822" lon="3.02526">
        <ele>956</ele>
        <time>2021-08-16T14:05:32Z</time>
      </trkpt>
      <trkpt lat="44.26828" lon="3.02522">
        <ele>956.3</ele>
        <time>2021-08-16T14:05:34Z</time>
      </trkpt>
      <trkpt lat="44.26834" lon="3.02518">
        <ele>956.6</ele>
        <time>2021-08-16T14:05:36Z</time>
      </trkpt>
      <trkpt lat="44.26839" lon="3.02517">
        <ele>956.8</ele>
        <time>2021-08-16T14:05:38Z</time>
      </trkpt>
      <trkpt lat="44.26844" lon="3.02515">
        <ele>957.1</ele>
        <time>2021-08-16T14:05:40Z</time>
      </trkpt>
      <trkpt lat="44.26849" lon="3.02513">
        <ele>957.4</ele>
        <time>2021-08-16T14:05:42Z</time>
      </trkpt>
      <trkpt lat="44.26855" lon="3.02511">
        <ele>957.8</ele>
        <time>2021-08-16T14:05:44Z</time>
      </trkpt>
      <trkpt lat="44.2686" lon="3.0251">
        <ele>957.9</ele>
        <time>2021-08-16T14:05:46Z</time>
      </trkpt>
      <trkpt lat="44.26865" lon="3.02508">
        <ele>958.3</ele>
        <time>2021-08-16T14:05:48Z</time>
      </trkpt>
      <trkpt lat="44.26872" lon="3.02507">
        <ele>958.5</ele>
        <time>2021-08-16T14:05:50Z</time>
      </trkpt>
      <trkpt lat="44.26879" lon="3.02506">
        <ele>958.7</ele>
        <time>2021-08-16T14:05:52Z</time>
      </trkpt>
      <trkpt lat="44.26886" lon="3.02504">
        <ele>959</ele>
        <time>2021-08-16T14:05:54Z</time>
      </trkpt>
      <trkpt lat="44.26895" lon="3.02504">
        <ele>959.1</ele>
        <time>2021-08-16T14:05:56Z</time>
      </trkpt>
      <trkpt lat="44.26904" lon="3.02504">
        <ele>959.3</ele>
        <time>2021-08-16T14:05:58Z</time>
      </trkpt>
      <trkpt lat="44.26912" lon="3.02503">
        <ele>959.5</ele>
        <time>2021-08-16T14:06:00Z</time>
      </trkpt>
      <trkpt lat="44.26921" lon="3.02505">
        <ele>959.5</ele>
        <time>2021-08-16T14:06:02Z</time>
      </trkpt>
      <trkpt lat="44.2693" lon="3.02508">
        <ele>959.5</ele>
        <time>2021-08-16T14:06:04Z</time>
      </trkpt>
      <trkpt lat="44.2694" lon="3.02512">
        <ele>959.5</ele>
        <time>2021-08-16T14:06:06Z</time>
      </trkpt>
      <trkpt lat="44.26949" lon="3.02516">
        <ele>959.4</ele>
        <time>2021-08-16T14:06:08Z</time>
      </trkpt>
      <trkpt lat="44.26958" lon="3.0252">
        <ele>959.4</ele>
        <time>2021-08-16T14:06:10Z</time>
      </trkpt>
      <trkpt lat="44.26965" lon="3.02525">
        <ele>959.3</ele>
        <time>2021-08-16T14:06:12Z</time>
      </trkpt>
      <trkpt lat="44.26974" lon="3.02528">
        <ele>959.3</ele>
        <time>2021-08-16T14:06:14Z</time>
      </trkpt>
      <trkpt lat="44.26982" lon="3.0253">
        <ele>959.6</ele>
        <time>2021-08-16T14:06:16Z</time>
      </trkpt>
      <trkpt lat="44.2699" lon="3.02532">
        <ele>959.7</ele>
        <time>2021-08-16T14:06:18Z</time>
      </trkpt>
      <trkpt lat="44.26999" lon="3.02536">
        <ele>959.8</ele>
        <time>2021-08-16T14:06:20Z</time>
      </trkpt>
      <trkpt lat="44.27006" lon="3.02538">
        <ele>959.8</ele>
        <time>2021-08-16T14:06:22Z</time>
      </trkpt>
      <trkpt lat="44.27014" lon="3.02542">
        <ele>959.5</ele>
        <time>2021-08-16T14:06:24Z</time>
      </trkpt>
      <trkpt lat="44.27021" lon="3.02544">
        <ele>959.4</ele>
        <time>2021-08-16T14:06:26Z</time>
      </trkpt>
      <trkpt lat="44.27028" lon="3.02546">
        <ele>959.3</ele>
        <time>2021-08-16T14:06:28Z</time>
      </trkpt>
      <trkpt lat="44.27034" lon="3.02548">
        <ele>959.1</ele>
        <time>2021-08-16T14:06:30Z</time>
      </trkpt>
      <trkpt lat="44.2704" lon="3.02553">
        <ele>958.6</ele>
        <time>2021-08-16T14:06:32Z</time>
      </trkpt>
      <trkpt lat="44.27046" lon="3.02556">
        <ele>958.2</ele>
        <time>2021-08-16T14:06:34Z</time>
      </trkpt>
      <trkpt lat="44.27052" lon="3.02562">
        <ele>957.2</ele>
        <time>2021-08-16T14:06:36Z</time>
      </trkpt>
      <trkpt lat="44.27056" lon="3.02566">
        <ele>956.7</ele>
        <time>2021-08-16T14:06:38Z</time>
      </trkpt>
      <trkpt lat="44.2706" lon="3.02569">
        <ele>956.2</ele>
        <time>2021-08-16T14:06:40Z</time>
      </trkpt>
      <trkpt lat="44.27065" lon="3.02572">
        <ele>955.9</ele>
        <time>2021-08-16T14:06:42Z</time>
      </trkpt>
      <trkpt lat="44.27072" lon="3.02574">
        <ele>955.7</ele>
        <time>2021-08-16T14:06:44Z</time>
      </trkpt>
      <trkpt lat="44.2708" lon="3.02575">
        <ele>955.5</ele>
        <time>2021-08-16T14:06:46Z</time>
      </trkpt>
      <trkpt lat="44.2709" lon="3.02577">
        <ele>954.8</ele>
        <time>2021-08-16T14:06:48Z</time>
      </trkpt>
      <trkpt lat="44.27101" lon="3.02576">
        <ele>954.4</ele>
        <time>2021-08-16T14:06:50Z</time>
      </trkpt>
      <trkpt lat="44.27111" lon="3.02575">
        <ele>954</ele>
        <time>2021-08-16T14:06:52Z</time>
      </trkpt>
      <trkpt lat="44.27122" lon="3.02573">
        <ele>953.7</ele>
        <time>2021-08-16T14:06:54Z</time>
      </trkpt>
      <trkpt lat="44.27134" lon="3.0257">
        <ele>953.5</ele>
        <time>2021-08-16T14:06:56Z</time>
      </trkpt>
      <trkpt lat="44.27145" lon="3.02568">
        <ele>953.3</ele>
        <time>2021-08-16T14:06:58Z</time>
      </trkpt>
      <trkpt lat="44.27157" lon="3.02565">
        <ele>953.4</ele>
        <time>2021-08-16T14:07:00Z</time>
      </trkpt>
      <trkpt lat="44.27168" lon="3.02559">
        <ele>953.7</ele>
        <time>2021-08-16T14:07:02Z</time>
      </trkpt>
      <trkpt lat="44.27181" lon="3.02552">
        <ele>954.3</ele>
        <time>2021-08-16T14:07:04Z</time>
      </trkpt>
      <trkpt lat="44.27195" lon="3.02544">
        <ele>954.6</ele>
        <time>2021-08-16T14:07:06Z</time>
      </trkpt>
      <trkpt lat="44.2721" lon="3.02535">
        <ele>955.2</ele>
        <time>2021-08-16T14:07:08Z</time>
      </trkpt>
      <trkpt lat="44.27225" lon="3.02525">
        <ele>955.7</ele>
        <time>2021-08-16T14:07:10Z</time>
      </trkpt>
      <trkpt lat="44.2724" lon="3.02515">
        <ele>956.3</ele>
        <time>2021-08-16T14:07:12Z</time>
      </trkpt>
      <trkpt lat="44.27254" lon="3.02506">
        <ele>957.2</ele>
        <time>2021-08-16T14:07:14Z</time>
      </trkpt>
      <trkpt lat="44.27268" lon="3.02496">
        <ele>959.5</ele>
        <time>2021-08-16T14:07:16Z</time>
      </trkpt>
      <trkpt lat="44.27282" lon="3.02488">
        <ele>961.4</ele>
        <time>2021-08-16T14:07:18Z</time>
      </trkpt>
      <trkpt lat="44.27293" lon="3.02483">
        <ele>962.7</ele>
        <time>2021-08-16T14:07:20Z</time>
      </trkpt>
      <trkpt lat="44.27303" lon="3.0248">
        <ele>963.6</ele>
        <time>2021-08-16T14:07:22Z</time>
      </trkpt>
      <trkpt lat="44.2731" lon="3.02479">
        <ele>964.1</ele>
        <time>2021-08-16T14:07:24Z</time>
      </trkpt>
      <trkpt lat="44.27316" lon="3.0248">
        <ele>964.2</ele>
        <time>2021-08-16T14:07:26Z</time>
      </trkpt>
      <trkpt lat="44.27322" lon="3.02484">
        <ele>964</ele>
        <time>2021-08-16T14:07:28Z</time>
      </trkpt>
      <trkpt lat="44.27327" lon="3.0249">
        <ele>963.3</ele>
        <time>2021-08-16T14:07:30Z</time>
      </trkpt>
      <trkpt lat="44.27331" lon="3.02499">
        <ele>962</ele>
        <time>2021-08-16T14:07:32Z</time>
      </trkpt>
      <trkpt lat="44.27332" lon="3.0251">
        <ele>961.4</ele>
        <time>2021-08-16T14:07:34Z</time>
      </trkpt>
      <trkpt lat="44.27333" lon="3.02521">
        <ele>960.8</ele>
        <time>2021-08-16T14:07:36Z</time>
      </trkpt>
      <trkpt lat="44.27334" lon="3.02532">
        <ele>960.2</ele>
        <time>2021-08-16T14:07:38Z</time>
      </trkpt>
      <trkpt lat="44.27334" lon="3.02544">
        <ele>959.7</ele>
        <time>2021-08-16T14:07:40Z</time>
      </trkpt>
      <trkpt lat="44.27335" lon="3.02555">
        <ele>959.2</ele>
        <time>2021-08-16T14:07:42Z</time>
      </trkpt>
      <trkpt lat="44.27335" lon="3.02566">
        <ele>958.7</ele>
        <time>2021-08-16T14:07:44Z</time>
      </trkpt>
      <trkpt lat="44.27336" lon="3.02578">
        <ele>958.1</ele>
        <time>2021-08-16T14:07:46Z</time>
      </trkpt>
      <trkpt lat="44.27337" lon="3.02588">
        <ele>958.1</ele>
        <time>2021-08-16T14:07:48Z</time>
      </trkpt>
      <trkpt lat="44.27337" lon="3.02599">
        <ele>958.2</ele>
        <time>2021-08-16T14:07:50Z</time>
      </trkpt>
      <trkpt lat="44.27337" lon="3.02609">
        <ele>958.3</ele>
        <time>2021-08-16T14:07:52Z</time>
      </trkpt>
      <trkpt lat="44.27338" lon="3.02619">
        <ele>958.4</ele>
        <time>2021-08-16T14:07:54Z</time>
      </trkpt>
      <trkpt lat="44.27338" lon="3.02629">
        <ele>958.5</ele>
        <time>2021-08-16T14:07:56Z</time>
      </trkpt>
      <trkpt lat="44.27338" lon="3.02639">
        <ele>958.5</ele>
        <time>2021-08-16T14:07:58Z</time>
      </trkpt>
      <trkpt lat="44.27339" lon="3.02649">
        <ele>958.7</ele>
        <time>2021-08-16T14:08:00Z</time>
      </trkpt>
      <trkpt lat="44.27338" lon="3.02658">
        <ele>958.6</ele>
        <time>2021-08-16T14:08:02Z</time>
      </trkpt>
      <trkpt lat="44.27339" lon="3.02669">
        <ele>958.6</ele>
        <time>2021-08-16T14:08:04Z</time>
      </trkpt>
      <trkpt lat="44.27339" lon="3.02679">
        <ele>958.2</ele>
        <time>2021-08-16T14:08:06Z</time>
      </trkpt>
      <trkpt lat="44.2734" lon="3.02688">
        <ele>957.9</ele>
        <time>2021-08-16T14:08:08Z</time>
      </trkpt>
      <trkpt lat="44.27339" lon="3.02698">
        <ele>957.3</ele>
        <time>2021-08-16T14:08:10Z</time>
      </trkpt>
      <trkpt lat="44.27339" lon="3.02707">
        <ele>956.8</ele>
        <time>2021-08-16T14:08:12Z</time>
      </trkpt>
      <trkpt lat="44.27341" lon="3.02716">
        <ele>956.8</ele>
        <time>2021-08-16T14:08:14Z</time>
      </trkpt>
      <trkpt lat="44.27341" lon="3.02726">
        <ele>956.4</ele>
        <time>2021-08-16T14:08:16Z</time>
      </trkpt>
      <trkpt lat="44.27343" lon="3.02735">
        <ele>956.3</ele>
        <time>2021-08-16T14:08:18Z</time>
      </trkpt>
      <trkpt lat="44.27345" lon="3.02744">
        <ele>956.4</ele>
        <time>2021-08-16T14:08:20Z</time>
      </trkpt>
      <trkpt lat="44.27348" lon="3.02753">
        <ele>956.5</ele>
        <time>2021-08-16T14:08:22Z</time>
      </trkpt>
      <trkpt lat="44.27354" lon="3.02763">
        <ele>956.9</ele>
        <time>2021-08-16T14:08:24Z</time>
      </trkpt>
      <trkpt lat="44.27361" lon="3.02773">
        <ele>957.5</ele>
        <time>2021-08-16T14:08:26Z</time>
      </trkpt>
      <trkpt lat="44.27369" lon="3.02784">
        <ele>958.4</ele>
        <time>2021-08-16T14:08:28Z</time>
      </trkpt>
      <trkpt lat="44.27377" lon="3.02796">
        <ele>959.4</ele>
        <time>2021-08-16T14:08:30Z</time>
      </trkpt>
      <trkpt lat="44.27385" lon="3.02812">
        <ele>959.7</ele>
        <time>2021-08-16T14:08:32Z</time>
      </trkpt>
      <trkpt lat="44.27389" lon="3.02831">
        <ele>958.5</ele>
        <time>2021-08-16T14:08:34Z</time>
      </trkpt>
      <trkpt lat="44.27387" lon="3.02851">
        <ele>958.1</ele>
        <time>2021-08-16T14:08:36Z</time>
      </trkpt>
      <trkpt lat="44.27385" lon="3.02869">
        <ele>957.7</ele>
        <time>2021-08-16T14:08:38Z</time>
      </trkpt>
      <trkpt lat="44.27381" lon="3.02885">
        <ele>957</ele>
        <time>2021-08-16T14:08:40Z</time>
      </trkpt>
      <trkpt lat="44.27377" lon="3.029">
        <ele>956.1</ele>
        <time>2021-08-16T14:08:42Z</time>
      </trkpt>
      <trkpt lat="44.27371" lon="3.02913">
        <ele>955</ele>
        <time>2021-08-16T14:08:44Z</time>
      </trkpt>
      <trkpt lat="44.27367" lon="3.02925">
        <ele>954.4</ele>
        <time>2021-08-16T14:08:46Z</time>
      </trkpt>
      <trkpt lat="44.27362" lon="3.02935">
        <ele>954.1</ele>
        <time>2021-08-16T14:08:48Z</time>
      </trkpt>
      <trkpt lat="44.27359" lon="3.02944">
        <ele>953.9</ele>
        <time>2021-08-16T14:08:50Z</time>
      </trkpt>
      <trkpt lat="44.27356" lon="3.02951">
        <ele>953.8</ele>
        <time>2021-08-16T14:08:52Z</time>
      </trkpt>
      <trkpt lat="44.27354" lon="3.02958">
        <ele>953.8</ele>
        <time>2021-08-16T14:08:54Z</time>
      </trkpt>
      <trkpt lat="44.27353" lon="3.02965">
        <ele>954</ele>
        <time>2021-08-16T14:08:56Z</time>
      </trkpt>
      <trkpt lat="44.27353" lon="3.02972">
        <ele>954.3</ele>
        <time>2021-08-16T14:08:58Z</time>
      </trkpt>
      <trkpt lat="44.27352" lon="3.02978">
        <ele>954.6</ele>
        <time>2021-08-16T14:09:00Z</time>
      </trkpt>
      <trkpt lat="44.27352" lon="3.02984">
        <ele>955</ele>
        <time>2021-08-16T14:09:02Z</time>
      </trkpt>
      <trkpt lat="44.27352" lon="3.0299">
        <ele>955.4</ele>
        <time>2021-08-16T14:09:04Z</time>
      </trkpt>
      <trkpt lat="44.27351" lon="3.02996">
        <ele>955.8</ele>
        <time>2021-08-16T14:09:06Z</time>
      </trkpt>
      <trkpt lat="44.27351" lon="3.03002">
        <ele>955.9</ele>
        <time>2021-08-16T14:09:08Z</time>
      </trkpt>
      <trkpt lat="44.27352" lon="3.03008">
        <ele>955.7</ele>
        <time>2021-08-16T14:09:10Z</time>
      </trkpt>
      <trkpt lat="44.27353" lon="3.03014">
        <ele>955.7</ele>
        <time>2021-08-16T14:09:12Z</time>
      </trkpt>
      <trkpt lat="44.27355" lon="3.03019">
        <ele>955.7</ele>
        <time>2021-08-16T14:09:14Z</time>
      </trkpt>
      <trkpt lat="44.27357" lon="3.03024">
        <ele>955.8</ele>
        <time>2021-08-16T14:09:16Z</time>
      </trkpt>
      <trkpt lat="44.2736" lon="3.03028">
        <ele>956</ele>
        <time>2021-08-16T14:09:18Z</time>
      </trkpt>
      <trkpt lat="44.27363" lon="3.03033">
        <ele>956.2</ele>
        <time>2021-08-16T14:09:20Z</time>
      </trkpt>
      <trkpt lat="44.27366" lon="3.03037">
        <ele>956.5</ele>
        <time>2021-08-16T14:09:22Z</time>
      </trkpt>
      <trkpt lat="44.27369" lon="3.03041">
        <ele>956.9</ele>
        <time>2021-08-16T14:09:24Z</time>
      </trkpt>
      <trkpt lat="44.27373" lon="3.03046">
        <ele>957.3</ele>
        <time>2021-08-16T14:09:26Z</time>
      </trkpt>
      <trkpt lat="44.27376" lon="3.0305">
        <ele>957.5</ele>
        <time>2021-08-16T14:09:28Z</time>
      </trkpt>
      <trkpt lat="44.2738" lon="3.03055">
        <ele>957.8</ele>
        <time>2021-08-16T14:09:30Z</time>
      </trkpt>
      <trkpt lat="44.27383" lon="3.03059">
        <ele>958</ele>
        <time>2021-08-16T14:09:32Z</time>
      </trkpt>
      <trkpt lat="44.27386" lon="3.03064">
        <ele>958.3</ele>
        <time>2021-08-16T14:09:34Z</time>
      </trkpt>
      <trkpt lat="44.27389" lon="3.03068">
        <ele>958.6</ele>
        <time>2021-08-16T14:09:36Z</time>
      </trkpt>
      <trkpt lat="44.27393" lon="3.03072">
        <ele>958.9</ele>
        <time>2021-08-16T14:09:38Z</time>
      </trkpt>
      <trkpt lat="44.27396" lon="3.03076">
        <ele>959.2</ele>
        <time>2021-08-16T14:09:40Z</time>
      </trkpt>
      <trkpt lat="44.274" lon="3.03081">
        <ele>959.5</ele>
        <time>2021-08-16T14:09:42Z</time>
      </trkpt>
      <trkpt lat="44.27405" lon="3.03087">
        <ele>960</ele>
        <time>2021-08-16T14:09:44Z</time>
      </trkpt>
      <trkpt lat="44.27412" lon="3.03095">
        <ele>960.5</ele>
        <time>2021-08-16T14:09:46Z</time>
      </trkpt>
      <trkpt lat="44.27421" lon="3.03106">
        <ele>960.8</ele>
        <time>2021-08-16T14:09:48Z</time>
      </trkpt>
      <trkpt lat="44.27432" lon="3.03117">
        <ele>961.1</ele>
        <time>2021-08-16T14:09:50Z</time>
      </trkpt>
      <trkpt lat="44.27445" lon="3.0313">
        <ele>961.4</ele>
        <time>2021-08-16T14:09:52Z</time>
      </trkpt>
      <trkpt lat="44.27457" lon="3.03145">
        <ele>961.6</ele>
        <time>2021-08-16T14:09:54Z</time>
      </trkpt>
      <trkpt lat="44.27469" lon="3.0316">
        <ele>961.5</ele>
        <time>2021-08-16T14:09:56Z</time>
      </trkpt>
      <trkpt lat="44.27479" lon="3.03174">
        <ele>961.9</ele>
        <time>2021-08-16T14:09:58Z</time>
      </trkpt>
      <trkpt lat="44.27489" lon="3.03186">
        <ele>962.6</ele>
        <time>2021-08-16T14:10:00Z</time>
      </trkpt>
      <trkpt lat="44.27498" lon="3.03196">
        <ele>963.1</ele>
        <time>2021-08-16T14:10:02Z</time>
      </trkpt>
      <trkpt lat="44.27506" lon="3.03206">
        <ele>963.7</ele>
        <time>2021-08-16T14:10:04Z</time>
      </trkpt>
      <trkpt lat="44.27513" lon="3.03215">
        <ele>964.3</ele>
        <time>2021-08-16T14:10:06Z</time>
      </trkpt>
      <trkpt lat="44.27519" lon="3.03222">
        <ele>964.6</ele>
        <time>2021-08-16T14:10:08Z</time>
      </trkpt>
      <trkpt lat="44.27524" lon="3.03229">
        <ele>964.8</ele>
        <time>2021-08-16T14:10:10Z</time>
      </trkpt>
      <trkpt lat="44.27529" lon="3.03236">
        <ele>965</ele>
        <time>2021-08-16T14:10:12Z</time>
      </trkpt>
      <trkpt lat="44.27534" lon="3.03242">
        <ele>965.2</ele>
        <time>2021-08-16T14:10:14Z</time>
      </trkpt>
      <trkpt lat="44.27538" lon="3.03248">
        <ele>965.3</ele>
        <time>2021-08-16T14:10:16Z</time>
      </trkpt>
      <trkpt lat="44.27543" lon="3.03253">
        <ele>965.5</ele>
        <time>2021-08-16T14:10:18Z</time>
      </trkpt>
      <trkpt lat="44.27547" lon="3.03257">
        <ele>965.6</ele>
        <time>2021-08-16T14:10:20Z</time>
      </trkpt>
      <trkpt lat="44.2755" lon="3.03263">
        <ele>965.6</ele>
        <time>2021-08-16T14:10:22Z</time>
      </trkpt>
      <trkpt lat="44.27554" lon="3.03267">
        <ele>965.6</ele>
        <time>2021-08-16T14:10:24Z</time>
      </trkpt>
      <trkpt lat="44.27558" lon="3.0327">
        <ele>965.7</ele>
        <time>2021-08-16T14:10:26Z</time>
      </trkpt>
      <trkpt lat="44.27561" lon="3.03274">
        <ele>965.7</ele>
        <time>2021-08-16T14:10:28Z</time>
      </trkpt>
      <trkpt lat="44.27563" lon="3.03278">
        <ele>965.6</ele>
        <time>2021-08-16T14:10:30Z</time>
      </trkpt>
      <trkpt lat="44.27567" lon="3.03281">
        <ele>965.7</ele>
        <time>2021-08-16T14:10:32Z</time>
      </trkpt>
      <trkpt lat="44.27571" lon="3.03283">
        <ele>965.8</ele>
        <time>2021-08-16T14:10:34Z</time>
      </trkpt>
      <trkpt lat="44.27575" lon="3.03286">
        <ele>965.9</ele>
        <time>2021-08-16T14:10:36Z</time>
      </trkpt>
      <trkpt lat="44.27578" lon="3.03289">
        <ele>965.9</ele>
        <time>2021-08-16T14:10:38Z</time>
      </trkpt>
      <trkpt lat="44.27582" lon="3.0329">
        <ele>966</ele>
        <time>2021-08-16T14:10:40Z</time>
      </trkpt>
      <trkpt lat="44.27587" lon="3.03292">
        <ele>966.3</ele>
        <time>2021-08-16T14:10:42Z</time>
      </trkpt>
      <trkpt lat="44.27591" lon="3.03295">
        <ele>966.4</ele>
        <time>2021-08-16T14:10:44Z</time>
      </trkpt>
      <trkpt lat="44.27595" lon="3.03297">
        <ele>966.6</ele>
        <time>2021-08-16T14:10:46Z</time>
      </trkpt>
      <trkpt lat="44.276" lon="3.03298">
        <ele>967</ele>
        <time>2021-08-16T14:10:48Z</time>
      </trkpt>
      <trkpt lat="44.27605" lon="3.03299">
        <ele>967.2</ele>
        <time>2021-08-16T14:10:50Z</time>
      </trkpt>
      <trkpt lat="44.2761" lon="3.03301">
        <ele>967.5</ele>
        <time>2021-08-16T14:10:52Z</time>
      </trkpt>
      <trkpt lat="44.27615" lon="3.03301">
        <ele>967.9</ele>
        <time>2021-08-16T14:10:54Z</time>
      </trkpt>
      <trkpt lat="44.2762" lon="3.03302">
        <ele>968.3</ele>
        <time>2021-08-16T14:10:56Z</time>
      </trkpt>
      <trkpt lat="44.27626" lon="3.03302">
        <ele>968.7</ele>
        <time>2021-08-16T14:10:58Z</time>
      </trkpt>
      <trkpt lat="44.27633" lon="3.03302">
        <ele>969.2</ele>
        <time>2021-08-16T14:11:00Z</time>
      </trkpt>
      <trkpt lat="44.27639" lon="3.03302">
        <ele>969.8</ele>
        <time>2021-08-16T14:11:02Z</time>
      </trkpt>
      <trkpt lat="44.27645" lon="3.03302">
        <ele>970.2</ele>
        <time>2021-08-16T14:11:04Z</time>
      </trkpt>
      <trkpt lat="44.27652" lon="3.03304">
        <ele>970.6</ele>
        <time>2021-08-16T14:11:06Z</time>
      </trkpt>
      <trkpt lat="44.27657" lon="3.03306">
        <ele>970.9</ele>
        <time>2021-08-16T14:11:08Z</time>
      </trkpt>
      <trkpt lat="44.27664" lon="3.0331">
        <ele>971</ele>
        <time>2021-08-16T14:11:10Z</time>
      </trkpt>
      <trkpt lat="44.27669" lon="3.03315">
        <ele>971.1</ele>
        <time>2021-08-16T14:11:12Z</time>
      </trkpt>
      <trkpt lat="44.27674" lon="3.03321">
        <ele>971</ele>
        <time>2021-08-16T14:11:14Z</time>
      </trkpt>
      <trkpt lat="44.27677" lon="3.03328">
        <ele>970.9</ele>
        <time>2021-08-16T14:11:16Z</time>
      </trkpt>
      <trkpt lat="44.2768" lon="3.03335">
        <ele>970.7</ele>
        <time>2021-08-16T14:11:18Z</time>
      </trkpt>
      <trkpt lat="44.27682" lon="3.03342">
        <ele>970.9</ele>
        <time>2021-08-16T14:11:20Z</time>
      </trkpt>
      <trkpt lat="44.27684" lon="3.03349">
        <ele>971</ele>
        <time>2021-08-16T14:11:22Z</time>
      </trkpt>
      <trkpt lat="44.27687" lon="3.03356">
        <ele>971.2</ele>
        <time>2021-08-16T14:11:24Z</time>
      </trkpt>
      <trkpt lat="44.27688" lon="3.03362">
        <ele>971.3</ele>
        <time>2021-08-16T14:11:26Z</time>
      </trkpt>
      <trkpt lat="44.2769" lon="3.03369">
        <ele>971.4</ele>
        <time>2021-08-16T14:11:28Z</time>
      </trkpt>
      <trkpt lat="44.27692" lon="3.03375">
        <ele>971.5</ele>
        <time>2021-08-16T14:11:30Z</time>
      </trkpt>
      <trkpt lat="44.27694" lon="3.03382">
        <ele>971.6</ele>
        <time>2021-08-16T14:11:32Z</time>
      </trkpt>
      <trkpt lat="44.27696" lon="3.03388">
        <ele>971.8</ele>
        <time>2021-08-16T14:11:34Z</time>
      </trkpt>
      <trkpt lat="44.27698" lon="3.03393">
        <ele>972</ele>
        <time>2021-08-16T14:11:36Z</time>
      </trkpt>
      <trkpt lat="44.277" lon="3.03399">
        <ele>972.2</ele>
        <time>2021-08-16T14:11:38Z</time>
      </trkpt>
      <trkpt lat="44.27702" lon="3.03404">
        <ele>972.4</ele>
        <time>2021-08-16T14:11:40Z</time>
      </trkpt>
      <trkpt lat="44.27704" lon="3.03409">
        <ele>972.6</ele>
        <time>2021-08-16T14:11:42Z</time>
      </trkpt>
      <trkpt lat="44.27707" lon="3.03414">
        <ele>972.8</ele>
        <time>2021-08-16T14:11:44Z</time>
      </trkpt>
      <trkpt lat="44.27709" lon="3.03418">
        <ele>973.1</ele>
        <time>2021-08-16T14:11:46Z</time>
      </trkpt>
      <trkpt lat="44.27711" lon="3.03423">
        <ele>973.4</ele>
        <time>2021-08-16T14:11:48Z</time>
      </trkpt>
      <trkpt lat="44.27714" lon="3.03427">
        <ele>973.7</ele>
        <time>2021-08-16T14:11:50Z</time>
      </trkpt>
      <trkpt lat="44.27716" lon="3.03431">
        <ele>974</ele>
        <time>2021-08-16T14:11:52Z</time>
      </trkpt>
      <trkpt lat="44.27718" lon="3.03435">
        <ele>974.2</ele>
        <time>2021-08-16T14:11:54Z</time>
      </trkpt>
      <trkpt lat="44.2772" lon="3.0344">
        <ele>974.4</ele>
        <time>2021-08-16T14:11:56Z</time>
      </trkpt>
      <trkpt lat="44.27721" lon="3.03445">
        <ele>974.5</ele>
        <time>2021-08-16T14:11:58Z</time>
      </trkpt>
      <trkpt lat="44.27722" lon="3.03449">
        <ele>974.6</ele>
        <time>2021-08-16T14:12:00Z</time>
      </trkpt>
      <trkpt lat="44.27723" lon="3.03454">
        <ele>974.7</ele>
        <time>2021-08-16T14:12:02Z</time>
      </trkpt>
      <trkpt lat="44.27724" lon="3.0346">
        <ele>974.7</ele>
        <time>2021-08-16T14:12:04Z</time>
      </trkpt>
      <trkpt lat="44.27725" lon="3.03463">
        <ele>974.8</ele>
        <time>2021-08-16T14:12:06Z</time>
      </trkpt>
      <trkpt lat="44.27727" lon="3.03464">
        <ele>975</ele>
        <time>2021-08-16T14:12:08Z</time>
      </trkpt>
      <trkpt lat="44.27726" lon="3.03466">
        <ele>974.9</ele>
        <time>2021-08-16T14:12:10Z</time>
      </trkpt>
      <trkpt lat="44.27726" lon="3.03467">
        <ele>974.8</ele>
        <time>2021-08-16T14:12:12Z</time>
      </trkpt>
      <trkpt lat="44.27725" lon="3.03466">
        <ele>974.8</ele>
        <time>2021-08-16T14:12:14Z</time>
      </trkpt>
      <trkpt lat="44.27725" lon="3.03466">
        <ele>974.8</ele>
        <time>2021-08-16T14:12:16Z</time>
      </trkpt>
      <trkpt lat="44.2774" lon="3.03472">
        <ele>976.5</ele>
        <time>2021-08-16T14:13:36Z</time>
      </trkpt>
      <trkpt lat="44.27742" lon="3.03477">
        <ele>976.7</ele>
        <time>2021-08-16T14:13:38Z</time>
      </trkpt>
      <trkpt lat="44.27745" lon="3.03481">
        <ele>976.9</ele>
        <time>2021-08-16T14:13:40Z</time>
      </trkpt>
      <trkpt lat="44.27747" lon="3.03486">
        <ele>977</ele>
        <time>2021-08-16T14:13:42Z</time>
      </trkpt>
      <trkpt lat="44.27749" lon="3.03491">
        <ele>977.2</ele>
        <time>2021-08-16T14:13:44Z</time>
      </trkpt>
      <trkpt lat="44.27752" lon="3.03496">
        <ele>977.2</ele>
        <time>2021-08-16T14:13:46Z</time>
      </trkpt>
      <trkpt lat="44.27754" lon="3.03501">
        <ele>977.3</ele>
        <time>2021-08-16T14:13:48Z</time>
      </trkpt>
      <trkpt lat="44.27756" lon="3.03506">
        <ele>977.2</ele>
        <time>2021-08-16T14:13:50Z</time>
      </trkpt>
      <trkpt lat="44.27758" lon="3.03511">
        <ele>977</ele>
        <time>2021-08-16T14:13:52Z</time>
      </trkpt>
      <trkpt lat="44.27759" lon="3.03516">
        <ele>976.9</ele>
        <time>2021-08-16T14:13:54Z</time>
      </trkpt>
      <trkpt lat="44.27761" lon="3.03521">
        <ele>976.7</ele>
        <time>2021-08-16T14:13:56Z</time>
      </trkpt>
      <trkpt lat="44.27762" lon="3.03528">
        <ele>976.4</ele>
        <time>2021-08-16T14:13:58Z</time>
      </trkpt>
      <trkpt lat="44.27764" lon="3.03534">
        <ele>976.1</ele>
        <time>2021-08-16T14:14:00Z</time>
      </trkpt>
      <trkpt lat="44.27765" lon="3.0354">
        <ele>975.9</ele>
        <time>2021-08-16T14:14:02Z</time>
      </trkpt>
      <trkpt lat="44.27766" lon="3.03545">
        <ele>975.6</ele>
        <time>2021-08-16T14:14:04Z</time>
      </trkpt>
      <trkpt lat="44.27768" lon="3.0355">
        <ele>975.4</ele>
        <time>2021-08-16T14:14:06Z</time>
      </trkpt>
      <trkpt lat="44.27771" lon="3.03556">
        <ele>975.1</ele>
        <time>2021-08-16T14:14:08Z</time>
      </trkpt>
      <trkpt lat="44.27777" lon="3.03563">
        <ele>974.8</ele>
        <time>2021-08-16T14:14:10Z</time>
      </trkpt>
      <trkpt lat="44.27785" lon="3.03569">
        <ele>974.6</ele>
        <time>2021-08-16T14:14:12Z</time>
      </trkpt>
      <trkpt lat="44.27796" lon="3.03574">
        <ele>974.4</ele>
        <time>2021-08-16T14:14:14Z</time>
      </trkpt>
      <trkpt lat="44.27809" lon="3.03578">
        <ele>974.2</ele>
        <time>2021-08-16T14:14:16Z</time>
      </trkpt>
      <trkpt lat="44.27823" lon="3.03583">
        <ele>973.9</ele>
        <time>2021-08-16T14:14:18Z</time>
      </trkpt>
      <trkpt lat="44.27837" lon="3.03586">
        <ele>973.5</ele>
        <time>2021-08-16T14:14:20Z</time>
      </trkpt>
      <trkpt lat="44.27852" lon="3.03589">
        <ele>973.5</ele>
        <time>2021-08-16T14:14:22Z</time>
      </trkpt>
      <trkpt lat="44.27866" lon="3.03592">
        <ele>973.5</ele>
        <time>2021-08-16T14:14:24Z</time>
      </trkpt>
      <trkpt lat="44.27881" lon="3.03595">
        <ele>973.5</ele>
        <time>2021-08-16T14:14:26Z</time>
      </trkpt>
      <trkpt lat="44.27895" lon="3.03599">
        <ele>973.2</ele>
        <time>2021-08-16T14:14:28Z</time>
      </trkpt>
      <trkpt lat="44.2791" lon="3.03607">
        <ele>972.1</ele>
        <time>2021-08-16T14:14:30Z</time>
      </trkpt>
      <trkpt lat="44.27923" lon="3.03619">
        <ele>970.1</ele>
        <time>2021-08-16T14:14:32Z</time>
      </trkpt>
      <trkpt lat="44.27937" lon="3.03633">
        <ele>967.8</ele>
        <time>2021-08-16T14:14:34Z</time>
      </trkpt>
      <trkpt lat="44.27951" lon="3.03642">
        <ele>966.4</ele>
        <time>2021-08-16T14:14:36Z</time>
      </trkpt>
      <trkpt lat="44.27967" lon="3.03647">
        <ele>965.8</ele>
        <time>2021-08-16T14:14:38Z</time>
      </trkpt>
      <trkpt lat="44.27984" lon="3.03648">
        <ele>965.9</ele>
        <time>2021-08-16T14:14:40Z</time>
      </trkpt>
      <trkpt lat="44.28" lon="3.03647">
        <ele>966.4</ele>
        <time>2021-08-16T14:14:42Z</time>
      </trkpt>
      <trkpt lat="44.28015" lon="3.03644">
        <ele>966.8</ele>
        <time>2021-08-16T14:14:44Z</time>
      </trkpt>
      <trkpt lat="44.2803" lon="3.03642">
        <ele>967.2</ele>
        <time>2021-08-16T14:14:46Z</time>
      </trkpt>
      <trkpt lat="44.28044" lon="3.03639">
        <ele>967.7</ele>
        <time>2021-08-16T14:14:48Z</time>
      </trkpt>
      <trkpt lat="44.28057" lon="3.03636">
        <ele>968.1</ele>
        <time>2021-08-16T14:14:50Z</time>
      </trkpt>
      <trkpt lat="44.2807" lon="3.03633">
        <ele>968.5</ele>
        <time>2021-08-16T14:14:52Z</time>
      </trkpt>
      <trkpt lat="44.28081" lon="3.03629">
        <ele>968.9</ele>
        <time>2021-08-16T14:14:54Z</time>
      </trkpt>
      <trkpt lat="44.28093" lon="3.03628">
        <ele>969.7</ele>
        <time>2021-08-16T14:14:56Z</time>
      </trkpt>
      <trkpt lat="44.28103" lon="3.0363">
        <ele>970.2</ele>
        <time>2021-08-16T14:14:58Z</time>
      </trkpt>
      <trkpt lat="44.28113" lon="3.03633">
        <ele>970.6</ele>
        <time>2021-08-16T14:15:00Z</time>
      </trkpt>
      <trkpt lat="44.28122" lon="3.03636">
        <ele>970.8</ele>
        <time>2021-08-16T14:15:02Z</time>
      </trkpt>
      <trkpt lat="44.2813" lon="3.0364">
        <ele>970.9</ele>
        <time>2021-08-16T14:15:04Z</time>
      </trkpt>
      <trkpt lat="44.28138" lon="3.03645">
        <ele>970.9</ele>
        <time>2021-08-16T14:15:06Z</time>
      </trkpt>
      <trkpt lat="44.28145" lon="3.03652">
        <ele>970.7</ele>
        <time>2021-08-16T14:15:08Z</time>
      </trkpt>
      <trkpt lat="44.28152" lon="3.03658">
        <ele>970.6</ele>
        <time>2021-08-16T14:15:10Z</time>
      </trkpt>
      <trkpt lat="44.28157" lon="3.03665">
        <ele>970.4</ele>
        <time>2021-08-16T14:15:12Z</time>
      </trkpt>
      <trkpt lat="44.28163" lon="3.03671">
        <ele>970.4</ele>
        <time>2021-08-16T14:15:14Z</time>
      </trkpt>
      <trkpt lat="44.28168" lon="3.03678">
        <ele>970.6</ele>
        <time>2021-08-16T14:15:16Z</time>
      </trkpt>
      <trkpt lat="44.28172" lon="3.03683">
        <ele>970.9</ele>
        <time>2021-08-16T14:15:18Z</time>
      </trkpt>
      <trkpt lat="44.28176" lon="3.03688">
        <ele>971.1</ele>
        <time>2021-08-16T14:15:20Z</time>
      </trkpt>
      <trkpt lat="44.28179" lon="3.03694">
        <ele>971.3</ele>
        <time>2021-08-16T14:15:22Z</time>
      </trkpt>
      <trkpt lat="44.28182" lon="3.03698">
        <ele>971.4</ele>
        <time>2021-08-16T14:15:24Z</time>
      </trkpt>
      <trkpt lat="44.28185" lon="3.03704">
        <ele>971.6</ele>
        <time>2021-08-16T14:15:26Z</time>
      </trkpt>
      <trkpt lat="44.28188" lon="3.03711">
        <ele>971.7</ele>
        <time>2021-08-16T14:15:28Z</time>
      </trkpt>
      <trkpt lat="44.28191" lon="3.03717">
        <ele>971.8</ele>
        <time>2021-08-16T14:15:30Z</time>
      </trkpt>
      <trkpt lat="44.28194" lon="3.03723">
        <ele>971.9</ele>
        <time>2021-08-16T14:15:32Z</time>
      </trkpt>
      <trkpt lat="44.28197" lon="3.03727">
        <ele>972.1</ele>
        <time>2021-08-16T14:15:34Z</time>
      </trkpt>
      <trkpt lat="44.28199" lon="3.03731">
        <ele>972.2</ele>
        <time>2021-08-16T14:15:36Z</time>
      </trkpt>
      <trkpt lat="44.28202" lon="3.03734">
        <ele>972.5</ele>
        <time>2021-08-16T14:15:38Z</time>
      </trkpt>
      <trkpt lat="44.28203" lon="3.03735">
        <ele>972.6</ele>
        <time>2021-08-16T14:15:40Z</time>
      </trkpt>
      <trkpt lat="44.28205" lon="3.03738">
        <ele>972.7</ele>
        <time>2021-08-16T14:15:42Z</time>
      </trkpt>
      <trkpt lat="44.28207" lon="3.03744">
        <ele>972.7</ele>
        <time>2021-08-16T14:15:44Z</time>
      </trkpt>
      <trkpt lat="44.28209" lon="3.03747">
        <ele>972.8</ele>
        <time>2021-08-16T14:15:46Z</time>
      </trkpt>
      <trkpt lat="44.28211" lon="3.03751">
        <ele>972.9</ele>
        <time>2021-08-16T14:15:48Z</time>
      </trkpt>
      <trkpt lat="44.28213" lon="3.03755">
        <ele>973.1</ele>
        <time>2021-08-16T14:15:50Z</time>
      </trkpt>
      <trkpt lat="44.28214" lon="3.03757">
        <ele>973.3</ele>
        <time>2021-08-16T14:15:52Z</time>
      </trkpt>
      <trkpt lat="44.28215" lon="3.0376">
        <ele>973.6</ele>
        <time>2021-08-16T14:15:54Z</time>
      </trkpt>
      <trkpt lat="44.28217" lon="3.03763">
        <ele>973.8</ele>
        <time>2021-08-16T14:15:56Z</time>
      </trkpt>
      <trkpt lat="44.28218" lon="3.03766">
        <ele>974</ele>
        <time>2021-08-16T14:15:58Z</time>
      </trkpt>
      <trkpt lat="44.28227" lon="3.03782">
        <ele>975.1</ele>
        <time>2021-08-16T14:16:20Z</time>
      </trkpt>
      <trkpt lat="44.2823" lon="3.03786">
        <ele>975.4</ele>
        <time>2021-08-16T14:16:22Z</time>
      </trkpt>
      <trkpt lat="44.28233" lon="3.03789">
        <ele>975.8</ele>
        <time>2021-08-16T14:16:24Z</time>
      </trkpt>
      <trkpt lat="44.28236" lon="3.03792">
        <ele>976.1</ele>
        <time>2021-08-16T14:16:26Z</time>
      </trkpt>
      <trkpt lat="44.28239" lon="3.03795">
        <ele>976.5</ele>
        <time>2021-08-16T14:16:28Z</time>
      </trkpt>
      <trkpt lat="44.28242" lon="3.03797">
        <ele>976.8</ele>
        <time>2021-08-16T14:16:30Z</time>
      </trkpt>
      <trkpt lat="44.28246" lon="3.03798">
        <ele>977.3</ele>
        <time>2021-08-16T14:16:32Z</time>
      </trkpt>
      <trkpt lat="44.28249" lon="3.03799">
        <ele>977.7</ele>
        <time>2021-08-16T14:16:34Z</time>
      </trkpt>
      <trkpt lat="44.28253" lon="3.038">
        <ele>977.8</ele>
        <time>2021-08-16T14:16:36Z</time>
      </trkpt>
      <trkpt lat="44.28257" lon="3.03801">
        <ele>977.8</ele>
        <time>2021-08-16T14:16:38Z</time>
      </trkpt>
      <trkpt lat="44.28261" lon="3.03802">
        <ele>977.7</ele>
        <time>2021-08-16T14:16:40Z</time>
      </trkpt>
      <trkpt lat="44.28265" lon="3.03802">
        <ele>977.7</ele>
        <time>2021-08-16T14:16:42Z</time>
      </trkpt>
      <trkpt lat="44.28269" lon="3.03801">
        <ele>977.7</ele>
        <time>2021-08-16T14:16:44Z</time>
      </trkpt>
      <trkpt lat="44.28273" lon="3.03803">
        <ele>977.7</ele>
        <time>2021-08-16T14:16:46Z</time>
      </trkpt>
      <trkpt lat="44.28276" lon="3.03804">
        <ele>977.6</ele>
        <time>2021-08-16T14:16:48Z</time>
      </trkpt>
      <trkpt lat="44.28281" lon="3.03803">
        <ele>977.6</ele>
        <time>2021-08-16T14:16:50Z</time>
      </trkpt>
      <trkpt lat="44.28286" lon="3.038">
        <ele>977.7</ele>
        <time>2021-08-16T14:16:52Z</time>
      </trkpt>
      <trkpt lat="44.28289" lon="3.038">
        <ele>977.7</ele>
        <time>2021-08-16T14:16:54Z</time>
      </trkpt>
      <trkpt lat="44.28288" lon="3.03801">
        <ele>977.7</ele>
        <time>2021-08-16T14:16:56Z</time>
      </trkpt>
      <trkpt lat="44.28289" lon="3.038">
        <ele>977.7</ele>
        <time>2021-08-16T14:16:58Z</time>
      </trkpt>
      <trkpt lat="44.28289" lon="3.038">
        <ele>977.7</ele>
        <time>2021-08-16T14:17:00Z</time>
      </trkpt>
      <trkpt lat="44.28289" lon="3.038">
        <ele>977.7</ele>
        <time>2021-08-16T14:17:02Z</time>
      </trkpt>
      <trkpt lat="44.28289" lon="3.038">
        <ele>977.7</ele>
        <time>2021-08-16T14:17:04Z</time>
      </trkpt>
      <trkpt lat="44.28312" lon="3.03811">
        <ele>977.2</ele>
        <time>2021-08-16T14:40:24Z</time>
      </trkpt>
      <trkpt lat="44.28319" lon="3.03814">
        <ele>977</ele>
        <time>2021-08-16T14:40:26Z</time>
      </trkpt>
      <trkpt lat="44.28326" lon="3.03815">
        <ele>976.9</ele>
        <time>2021-08-16T14:40:28Z</time>
      </trkpt>
      <trkpt lat="44.28335" lon="3.03817">
        <ele>976.5</ele>
        <time>2021-08-16T14:40:30Z</time>
      </trkpt>
      <trkpt lat="44.28345" lon="3.03816">
        <ele>974.9</ele>
        <time>2021-08-16T14:40:32Z</time>
      </trkpt>
      <trkpt lat="44.28356" lon="3.03814">
        <ele>973.1</ele>
        <time>2021-08-16T14:40:34Z</time>
      </trkpt>
      <trkpt lat="44.28369" lon="3.0381">
        <ele>971.3</ele>
        <time>2021-08-16T14:40:36Z</time>
      </trkpt>
      <trkpt lat="44.28383" lon="3.03803">
        <ele>969.4</ele>
        <time>2021-08-16T14:40:38Z</time>
      </trkpt>
      <trkpt lat="44.28398" lon="3.03793">
        <ele>967.5</ele>
        <time>2021-08-16T14:40:40Z</time>
      </trkpt>
      <trkpt lat="44.28413" lon="3.0378">
        <ele>965.8</ele>
        <time>2021-08-16T14:40:42Z</time>
      </trkpt>
      <trkpt lat="44.28428" lon="3.03765">
        <ele>963.6</ele>
        <time>2021-08-16T14:40:44Z</time>
      </trkpt>
      <trkpt lat="44.28443" lon="3.03753">
        <ele>961</ele>
        <time>2021-08-16T14:40:46Z</time>
      </trkpt>
      <trkpt lat="44.2846" lon="3.03746">
        <ele>958.5</ele>
        <time>2021-08-16T14:40:48Z</time>
      </trkpt>
      <trkpt lat="44.28477" lon="3.03738">
        <ele>956.5</ele>
        <time>2021-08-16T14:40:50Z</time>
      </trkpt>
      <trkpt lat="44.28493" lon="3.03727">
        <ele>955.3</ele>
        <time>2021-08-16T14:40:52Z</time>
      </trkpt>
      <trkpt lat="44.28509" lon="3.03718">
        <ele>954.9</ele>
        <time>2021-08-16T14:40:54Z</time>
      </trkpt>
      <trkpt lat="44.28525" lon="3.03717">
        <ele>953.2</ele>
        <time>2021-08-16T14:40:56Z</time>
      </trkpt>
      <trkpt lat="44.28541" lon="3.03725">
        <ele>949.5</ele>
        <time>2021-08-16T14:40:58Z</time>
      </trkpt>
      <trkpt lat="44.28555" lon="3.03737">
        <ele>945.3</ele>
        <time>2021-08-16T14:41:00Z</time>
      </trkpt>
      <trkpt lat="44.28566" lon="3.03752">
        <ele>940.7</ele>
        <time>2021-08-16T14:41:02Z</time>
      </trkpt>
      <trkpt lat="44.28579" lon="3.03762">
        <ele>937.1</ele>
        <time>2021-08-16T14:41:04Z</time>
      </trkpt>
      <trkpt lat="44.28597" lon="3.03768">
        <ele>934.2</ele>
        <time>2021-08-16T14:41:06Z</time>
      </trkpt>
      <trkpt lat="44.28616" lon="3.03773">
        <ele>931.6</ele>
        <time>2021-08-16T14:41:08Z</time>
      </trkpt>
      <trkpt lat="44.28635" lon="3.03779">
        <ele>928.9</ele>
        <time>2021-08-16T14:41:10Z</time>
      </trkpt>
      <trkpt lat="44.28652" lon="3.03787">
        <ele>925.7</ele>
        <time>2021-08-16T14:41:12Z</time>
      </trkpt>
      <trkpt lat="44.28669" lon="3.03792">
        <ele>923.3</ele>
        <time>2021-08-16T14:41:14Z</time>
      </trkpt>
      <trkpt lat="44.28688" lon="3.03789">
        <ele>921.6</ele>
        <time>2021-08-16T14:41:16Z</time>
      </trkpt>
      <trkpt lat="44.28707" lon="3.03783">
        <ele>920.4</ele>
        <time>2021-08-16T14:41:18Z</time>
      </trkpt>
      <trkpt lat="44.28727" lon="3.03774">
        <ele>919.4</ele>
        <time>2021-08-16T14:41:20Z</time>
      </trkpt>
      <trkpt lat="44.28745" lon="3.03765">
        <ele>918.4</ele>
        <time>2021-08-16T14:41:22Z</time>
      </trkpt>
      <trkpt lat="44.28763" lon="3.0376">
        <ele>917.2</ele>
        <time>2021-08-16T14:41:24Z</time>
      </trkpt>
      <trkpt lat="44.28783" lon="3.03761">
        <ele>915.2</ele>
        <time>2021-08-16T14:41:26Z</time>
      </trkpt>
      <trkpt lat="44.28802" lon="3.03767">
        <ele>912.5</ele>
        <time>2021-08-16T14:41:28Z</time>
      </trkpt>
      <trkpt lat="44.28821" lon="3.03774">
        <ele>910.1</ele>
        <time>2021-08-16T14:41:30Z</time>
      </trkpt>
      <trkpt lat="44.28841" lon="3.03776">
        <ele>907.9</ele>
        <time>2021-08-16T14:41:32Z</time>
      </trkpt>
      <trkpt lat="44.28862" lon="3.03774">
        <ele>905.7</ele>
        <time>2021-08-16T14:41:34Z</time>
      </trkpt>
      <trkpt lat="44.28883" lon="3.03773">
        <ele>903.4</ele>
        <time>2021-08-16T14:41:36Z</time>
      </trkpt>
      <trkpt lat="44.28901" lon="3.03774">
        <ele>901.2</ele>
        <time>2021-08-16T14:41:38Z</time>
      </trkpt>
      <trkpt lat="44.28918" lon="3.03781">
        <ele>899.3</ele>
        <time>2021-08-16T14:41:40Z</time>
      </trkpt>
      <trkpt lat="44.28934" lon="3.03791">
        <ele>899</ele>
        <time>2021-08-16T14:41:42Z</time>
      </trkpt>
      <trkpt lat="44.28949" lon="3.03803">
        <ele>898.9</ele>
        <time>2021-08-16T14:41:44Z</time>
      </trkpt>
      <trkpt lat="44.28962" lon="3.03818">
        <ele>899.1</ele>
        <time>2021-08-16T14:41:46Z</time>
      </trkpt>
      <trkpt lat="44.28975" lon="3.03833">
        <ele>899.4</ele>
        <time>2021-08-16T14:41:48Z</time>
      </trkpt>
      <trkpt lat="44.28989" lon="3.03846">
        <ele>899.1</ele>
        <time>2021-08-16T14:41:50Z</time>
      </trkpt>
      <trkpt lat="44.29" lon="3.03858">
        <ele>899.1</ele>
        <time>2021-08-16T14:41:52Z</time>
      </trkpt>
      <trkpt lat="44.29008" lon="3.03876">
        <ele>899.3</ele>
        <time>2021-08-16T14:41:54Z</time>
      </trkpt>
      <trkpt lat="44.29013" lon="3.03894">
        <ele>899.2</ele>
        <time>2021-08-16T14:41:56Z</time>
      </trkpt>
      <trkpt lat="44.29015" lon="3.03912">
        <ele>899</ele>
        <time>2021-08-16T14:41:58Z</time>
      </trkpt>
      <trkpt lat="44.29018" lon="3.03931">
        <ele>898.7</ele>
        <time>2021-08-16T14:42:00Z</time>
      </trkpt>
      <trkpt lat="44.29021" lon="3.03948">
        <ele>898.7</ele>
        <time>2021-08-16T14:42:02Z</time>
      </trkpt>
      <trkpt lat="44.29023" lon="3.03965">
        <ele>898.4</ele>
        <time>2021-08-16T14:42:04Z</time>
      </trkpt>
      <trkpt lat="44.29026" lon="3.03981">
        <ele>898.5</ele>
        <time>2021-08-16T14:42:06Z</time>
      </trkpt>
      <trkpt lat="44.29029" lon="3.03997">
        <ele>898.6</ele>
        <time>2021-08-16T14:42:08Z</time>
      </trkpt>
      <trkpt lat="44.29033" lon="3.04012">
        <ele>898.6</ele>
        <time>2021-08-16T14:42:10Z</time>
      </trkpt>
      <trkpt lat="44.29036" lon="3.04025">
        <ele>898.7</ele>
        <time>2021-08-16T14:42:12Z</time>
      </trkpt>
      <trkpt lat="44.29039" lon="3.04036">
        <ele>898.7</ele>
        <time>2021-08-16T14:42:14Z</time>
      </trkpt>
      <trkpt lat="44.29042" lon="3.04046">
        <ele>898.7</ele>
        <time>2021-08-16T14:42:16Z</time>
      </trkpt>
      <trkpt lat="44.29045" lon="3.04055">
        <ele>898.7</ele>
        <time>2021-08-16T14:42:18Z</time>
      </trkpt>
      <trkpt lat="44.29048" lon="3.04064">
        <ele>898.8</ele>
        <time>2021-08-16T14:42:20Z</time>
      </trkpt>
      <trkpt lat="44.29053" lon="3.04073">
        <ele>899</ele>
        <time>2021-08-16T14:42:22Z</time>
      </trkpt>
      <trkpt lat="44.29057" lon="3.04082">
        <ele>899.3</ele>
        <time>2021-08-16T14:42:24Z</time>
      </trkpt>
      <trkpt lat="44.29061" lon="3.04091">
        <ele>899.1</ele>
        <time>2021-08-16T14:42:26Z</time>
      </trkpt>
      <trkpt lat="44.29066" lon="3.04099">
        <ele>899.2</ele>
        <time>2021-08-16T14:42:28Z</time>
      </trkpt>
      <trkpt lat="44.29073" lon="3.04109">
        <ele>899.1</ele>
        <time>2021-08-16T14:42:30Z</time>
      </trkpt>
      <trkpt lat="44.29079" lon="3.04119">
        <ele>899</ele>
        <time>2021-08-16T14:42:32Z</time>
      </trkpt>
      <trkpt lat="44.29086" lon="3.0413">
        <ele>898.5</ele>
        <time>2021-08-16T14:42:34Z</time>
      </trkpt>
      <trkpt lat="44.29094" lon="3.04143">
        <ele>897.3</ele>
        <time>2021-08-16T14:42:36Z</time>
      </trkpt>
      <trkpt lat="44.29102" lon="3.04156">
        <ele>896.1</ele>
        <time>2021-08-16T14:42:38Z</time>
      </trkpt>
      <trkpt lat="44.29111" lon="3.04169">
        <ele>894.8</ele>
        <time>2021-08-16T14:42:40Z</time>
      </trkpt>
      <trkpt lat="44.29121" lon="3.0418">
        <ele>893.5</ele>
        <time>2021-08-16T14:42:42Z</time>
      </trkpt>
      <trkpt lat="44.29132" lon="3.04189">
        <ele>892.5</ele>
        <time>2021-08-16T14:42:44Z</time>
      </trkpt>
      <trkpt lat="44.29144" lon="3.04197">
        <ele>891.8</ele>
        <time>2021-08-16T14:42:46Z</time>
      </trkpt>
      <trkpt lat="44.29156" lon="3.04203">
        <ele>891.4</ele>
        <time>2021-08-16T14:42:48Z</time>
      </trkpt>
      <trkpt lat="44.29168" lon="3.04207">
        <ele>891</ele>
        <time>2021-08-16T14:42:50Z</time>
      </trkpt>
      <trkpt lat="44.2918" lon="3.04209">
        <ele>889.3</ele>
        <time>2021-08-16T14:42:52Z</time>
      </trkpt>
      <trkpt lat="44.29194" lon="3.04209">
        <ele>887.9</ele>
        <time>2021-08-16T14:42:54Z</time>
      </trkpt>
      <trkpt lat="44.29208" lon="3.04204">
        <ele>886.8</ele>
        <time>2021-08-16T14:42:56Z</time>
      </trkpt>
      <trkpt lat="44.29222" lon="3.04197">
        <ele>886.1</ele>
        <time>2021-08-16T14:42:58Z</time>
      </trkpt>
      <trkpt lat="44.29236" lon="3.04186">
        <ele>885.9</ele>
        <time>2021-08-16T14:43:00Z</time>
      </trkpt>
      <trkpt lat="44.29251" lon="3.04179">
        <ele>885.3</ele>
        <time>2021-08-16T14:43:02Z</time>
      </trkpt>
      <trkpt lat="44.29268" lon="3.04175">
        <ele>884.2</ele>
        <time>2021-08-16T14:43:04Z</time>
      </trkpt>
      <trkpt lat="44.29286" lon="3.04179">
        <ele>882.1</ele>
        <time>2021-08-16T14:43:06Z</time>
      </trkpt>
      <trkpt lat="44.29306" lon="3.04186">
        <ele>879.7</ele>
        <time>2021-08-16T14:43:08Z</time>
      </trkpt>
      <trkpt lat="44.29326" lon="3.04198">
        <ele>877</ele>
        <time>2021-08-16T14:43:10Z</time>
      </trkpt>
      <trkpt lat="44.29344" lon="3.04212">
        <ele>874.8</ele>
        <time>2021-08-16T14:43:12Z</time>
      </trkpt>
      <trkpt lat="44.29363" lon="3.04225">
        <ele>873.4</ele>
        <time>2021-08-16T14:43:14Z</time>
      </trkpt>
      <trkpt lat="44.29382" lon="3.04234">
        <ele>872.5</ele>
        <time>2021-08-16T14:43:16Z</time>
      </trkpt>
      <trkpt lat="44.29401" lon="3.04243">
        <ele>872.1</ele>
        <time>2021-08-16T14:43:18Z</time>
      </trkpt>
      <trkpt lat="44.29418" lon="3.04253">
        <ele>871.7</ele>
        <time>2021-08-16T14:43:20Z</time>
      </trkpt>
      <trkpt lat="44.29434" lon="3.04262">
        <ele>870</ele>
        <time>2021-08-16T14:43:22Z</time>
      </trkpt>
      <trkpt lat="44.2945" lon="3.0427">
        <ele>868.4</ele>
        <time>2021-08-16T14:43:24Z</time>
      </trkpt>
      <trkpt lat="44.29465" lon="3.04277">
        <ele>866.9</ele>
        <time>2021-08-16T14:43:26Z</time>
      </trkpt>
      <trkpt lat="44.29482" lon="3.04282">
        <ele>865.3</ele>
        <time>2021-08-16T14:43:28Z</time>
      </trkpt>
      <trkpt lat="44.29501" lon="3.04288">
        <ele>863.7</ele>
        <time>2021-08-16T14:43:30Z</time>
      </trkpt>
      <trkpt lat="44.29522" lon="3.04293">
        <ele>861.7</ele>
        <time>2021-08-16T14:43:32Z</time>
      </trkpt>
      <trkpt lat="44.29544" lon="3.04298">
        <ele>859.9</ele>
        <time>2021-08-16T14:43:34Z</time>
      </trkpt>
      <trkpt lat="44.29565" lon="3.043">
        <ele>858.3</ele>
        <time>2021-08-16T14:43:36Z</time>
      </trkpt>
      <trkpt lat="44.29586" lon="3.04303">
        <ele>856.9</ele>
        <time>2021-08-16T14:43:38Z</time>
      </trkpt>
      <trkpt lat="44.29607" lon="3.04303">
        <ele>856.3</ele>
        <time>2021-08-16T14:43:40Z</time>
      </trkpt>
      <trkpt lat="44.29628" lon="3.04305">
        <ele>855.7</ele>
        <time>2021-08-16T14:43:42Z</time>
      </trkpt>
      <trkpt lat="44.29647" lon="3.04311">
        <ele>855.4</ele>
        <time>2021-08-16T14:43:44Z</time>
      </trkpt>
      <trkpt lat="44.29665" lon="3.04321">
        <ele>855.4</ele>
        <time>2021-08-16T14:43:46Z</time>
      </trkpt>
      <trkpt lat="44.29683" lon="3.0433">
        <ele>855.5</ele>
        <time>2021-08-16T14:43:48Z</time>
      </trkpt>
      <trkpt lat="44.297" lon="3.04339">
        <ele>855</ele>
        <time>2021-08-16T14:43:50Z</time>
      </trkpt>
      <trkpt lat="44.29717" lon="3.04344">
        <ele>854.5</ele>
        <time>2021-08-16T14:43:52Z</time>
      </trkpt>
      <trkpt lat="44.29733" lon="3.04347">
        <ele>854</ele>
        <time>2021-08-16T14:43:54Z</time>
      </trkpt>
      <trkpt lat="44.29749" lon="3.04347">
        <ele>853.6</ele>
        <time>2021-08-16T14:43:56Z</time>
      </trkpt>
      <trkpt lat="44.29764" lon="3.04344">
        <ele>853.9</ele>
        <time>2021-08-16T14:43:58Z</time>
      </trkpt>
      <trkpt lat="44.29777" lon="3.0434">
        <ele>854.3</ele>
        <time>2021-08-16T14:44:00Z</time>
      </trkpt>
      <trkpt lat="44.2979" lon="3.04337">
        <ele>854.8</ele>
        <time>2021-08-16T14:44:02Z</time>
      </trkpt>
      <trkpt lat="44.29803" lon="3.04335">
        <ele>855.2</ele>
        <time>2021-08-16T14:44:04Z</time>
      </trkpt>
      <trkpt lat="44.29814" lon="3.04337">
        <ele>855.4</ele>
        <time>2021-08-16T14:44:06Z</time>
      </trkpt>
      <trkpt lat="44.29824" lon="3.04339">
        <ele>855.5</ele>
        <time>2021-08-16T14:44:08Z</time>
      </trkpt>
      <trkpt lat="44.29832" lon="3.04342">
        <ele>855.5</ele>
        <time>2021-08-16T14:44:10Z</time>
      </trkpt>
      <trkpt lat="44.29839" lon="3.04345">
        <ele>856</ele>
        <time>2021-08-16T14:44:12Z</time>
      </trkpt>
      <trkpt lat="44.29844" lon="3.04348">
        <ele>856.6</ele>
        <time>2021-08-16T14:44:14Z</time>
      </trkpt>
      <trkpt lat="44.29849" lon="3.04349">
        <ele>857.2</ele>
        <time>2021-08-16T14:44:16Z</time>
      </trkpt>
      <trkpt lat="44.29853" lon="3.04348">
        <ele>857.8</ele>
        <time>2021-08-16T14:44:18Z</time>
      </trkpt>
      <trkpt lat="44.29857" lon="3.04349">
        <ele>858.4</ele>
        <time>2021-08-16T14:44:20Z</time>
      </trkpt>
      <trkpt lat="44.2986" lon="3.0435">
        <ele>858.6</ele>
        <time>2021-08-16T14:44:22Z</time>
      </trkpt>
      <trkpt lat="44.29861" lon="3.04351">
        <ele>858.7</ele>
        <time>2021-08-16T14:44:24Z</time>
      </trkpt>
      <trkpt lat="44.29862" lon="3.04354">
        <ele>858.7</ele>
        <time>2021-08-16T14:44:26Z</time>
      </trkpt>
      <trkpt lat="44.29864" lon="3.04355">
        <ele>858.8</ele>
        <time>2021-08-16T14:44:28Z</time>
      </trkpt>
      <trkpt lat="44.29866" lon="3.04354">
        <ele>859.2</ele>
        <time>2021-08-16T14:44:30Z</time>
      </trkpt>
      <trkpt lat="44.29867" lon="3.0435">
        <ele>859.6</ele>
        <time>2021-08-16T14:44:32Z</time>
      </trkpt>
      <trkpt lat="44.29865" lon="3.04345">
        <ele>859.7</ele>
        <time>2021-08-16T14:44:34Z</time>
      </trkpt>
      <trkpt lat="44.29866" lon="3.04344">
        <ele>859.9</ele>
        <time>2021-08-16T14:44:36Z</time>
      </trkpt>
      <trkpt lat="44.29865" lon="3.04344">
        <ele>859.8</ele>
        <time>2021-08-16T14:44:38Z</time>
      </trkpt>
      <trkpt lat="44.29865" lon="3.04345">
        <ele>859.7</ele>
        <time>2021-08-16T14:44:40Z</time>
      </trkpt>
      <trkpt lat="44.29865" lon="3.04345">
        <ele>859.7</ele>
        <time>2021-08-16T14:44:42Z</time>
      </trkpt>
      <trkpt lat="44.29862" lon="3.04346">
        <ele>859.2</ele>
        <time>2021-08-16T14:44:44Z</time>
      </trkpt>
      <trkpt lat="44.2986" lon="3.04347">
        <ele>858.8</ele>
        <time>2021-08-16T14:44:46Z</time>
      </trkpt>
      <trkpt lat="44.29858" lon="3.0435">
        <ele>858.3</ele>
        <time>2021-08-16T14:44:48Z</time>
      </trkpt>
      <trkpt lat="44.29859" lon="3.04355">
        <ele>858.2</ele>
        <time>2021-08-16T14:44:50Z</time>
      </trkpt>
      <trkpt lat="44.29862" lon="3.04358">
        <ele>858.4</ele>
        <time>2021-08-16T14:44:52Z</time>
      </trkpt>
      <trkpt lat="44.29865" lon="3.04356">
        <ele>858.9</ele>
        <time>2021-08-16T14:44:54Z</time>
      </trkpt>
      <trkpt lat="44.29866" lon="3.04351">
        <ele>859.4</ele>
        <time>2021-08-16T14:44:56Z</time>
      </trkpt>
      <trkpt lat="44.29865" lon="3.04346">
        <ele>859.7</ele>
        <time>2021-08-16T14:44:58Z</time>
      </trkpt>
      <trkpt lat="44.29866" lon="3.04341">
        <ele>860.1</ele>
        <time>2021-08-16T14:45:00Z</time>
      </trkpt>
      <trkpt lat="44.29867" lon="3.04337">
        <ele>860.5</ele>
        <time>2021-08-16T14:45:02Z</time>
      </trkpt>
      <trkpt lat="44.29867" lon="3.04334">
        <ele>860.8</ele>
        <time>2021-08-16T14:45:04Z</time>
      </trkpt>
      <trkpt lat="44.29868" lon="3.04331">
        <ele>861</ele>
        <time>2021-08-16T14:45:06Z</time>
      </trkpt>
      <trkpt lat="44.2987" lon="3.04327">
        <ele>861</ele>
        <time>2021-08-16T14:45:08Z</time>
      </trkpt>
      <trkpt lat="44.29871" lon="3.04323">
        <ele>861.1</ele>
        <time>2021-08-16T14:45:10Z</time>
      </trkpt>
      <trkpt lat="44.29872" lon="3.04319">
        <ele>861.2</ele>
        <time>2021-08-16T14:45:12Z</time>
      </trkpt>
      <trkpt lat="44.29874" lon="3.04315">
        <ele>861.3</ele>
        <time>2021-08-16T14:45:14Z</time>
      </trkpt>
      <trkpt lat="44.29875" lon="3.04312">
        <ele>861.3</ele>
        <time>2021-08-16T14:45:16Z</time>
      </trkpt>
      <trkpt lat="44.29876" lon="3.04308">
        <ele>861.3</ele>
        <time>2021-08-16T14:45:18Z</time>
      </trkpt>
      <trkpt lat="44.29877" lon="3.04303">
        <ele>861.3</ele>
        <time>2021-08-16T14:45:20Z</time>
      </trkpt>
      <trkpt lat="44.29877" lon="3.04299">
        <ele>861.3</ele>
        <time>2021-08-16T14:45:22Z</time>
      </trkpt>
      <trkpt lat="44.29878" lon="3.04296">
        <ele>861.3</ele>
        <time>2021-08-16T14:45:24Z</time>
      </trkpt>
      <trkpt lat="44.29878" lon="3.04291">
        <ele>861.2</ele>
        <time>2021-08-16T14:45:26Z</time>
      </trkpt>
      <trkpt lat="44.29879" lon="3.04287">
        <ele>861.2</ele>
        <time>2021-08-16T14:45:28Z</time>
      </trkpt>
      <trkpt lat="44.2988" lon="3.04282">
        <ele>861.2</ele>
        <time>2021-08-16T14:45:30Z</time>
      </trkpt>
      <trkpt lat="44.29882" lon="3.04279">
        <ele>861.3</ele>
        <time>2021-08-16T14:45:32Z</time>
      </trkpt>
      <trkpt lat="44.29885" lon="3.04275">
        <ele>861.6</ele>
        <time>2021-08-16T14:45:34Z</time>
      </trkpt>
      <trkpt lat="44.29887" lon="3.04271">
        <ele>861.8</ele>
        <time>2021-08-16T14:45:36Z</time>
      </trkpt>
      <trkpt lat="44.2989" lon="3.04268">
        <ele>862</ele>
        <time>2021-08-16T14:45:38Z</time>
      </trkpt>
      <trkpt lat="44.29892" lon="3.04265">
        <ele>862.3</ele>
        <time>2021-08-16T14:45:40Z</time>
      </trkpt>
      <trkpt lat="44.29895" lon="3.04263">
        <ele>862.6</ele>
        <time>2021-08-16T14:45:42Z</time>
      </trkpt>
      <trkpt lat="44.29898" lon="3.0426">
        <ele>862.9</ele>
        <time>2021-08-16T14:45:44Z</time>
      </trkpt>
      <trkpt lat="44.29901" lon="3.04258">
        <ele>863.3</ele>
        <time>2021-08-16T14:45:46Z</time>
      </trkpt>
      <trkpt lat="44.29905" lon="3.04257">
        <ele>863.7</ele>
        <time>2021-08-16T14:45:48Z</time>
      </trkpt>
      <trkpt lat="44.29908" lon="3.04256">
        <ele>864.1</ele>
        <time>2021-08-16T14:45:50Z</time>
      </trkpt>
      <trkpt lat="44.2991" lon="3.04255">
        <ele>864.4</ele>
        <time>2021-08-16T14:45:52Z</time>
      </trkpt>
      <trkpt lat="44.29914" lon="3.04254">
        <ele>864.7</ele>
        <time>2021-08-16T14:45:54Z</time>
      </trkpt>
      <trkpt lat="44.29917" lon="3.04253">
        <ele>865.1</ele>
        <time>2021-08-16T14:45:56Z</time>
      </trkpt>
      <trkpt lat="44.29921" lon="3.04252">
        <ele>865.5</ele>
        <time>2021-08-16T14:45:58Z</time>
      </trkpt>
      <trkpt lat="44.29923" lon="3.04252">
        <ele>865.7</ele>
        <time>2021-08-16T14:46:00Z</time>
      </trkpt>
      <trkpt lat="44.29927" lon="3.04251">
        <ele>866</ele>
        <time>2021-08-16T14:46:02Z</time>
      </trkpt>
      <trkpt lat="44.2993" lon="3.0425">
        <ele>866.3</ele>
        <time>2021-08-16T14:46:04Z</time>
      </trkpt>
      <trkpt lat="44.29934" lon="3.04249">
        <ele>866.6</ele>
        <time>2021-08-16T14:46:06Z</time>
      </trkpt>
      <trkpt lat="44.29936" lon="3.04249">
        <ele>866.8</ele>
        <time>2021-08-16T14:46:08Z</time>
      </trkpt>
      <trkpt lat="44.29939" lon="3.04248">
        <ele>867.1</ele>
        <time>2021-08-16T14:46:10Z</time>
      </trkpt>
      <trkpt lat="44.29943" lon="3.04249">
        <ele>867.4</ele>
        <time>2021-08-16T14:46:12Z</time>
      </trkpt>
      <trkpt lat="44.29946" lon="3.04248">
        <ele>867.7</ele>
        <time>2021-08-16T14:46:14Z</time>
      </trkpt>
      <trkpt lat="44.2995" lon="3.04247">
        <ele>868</ele>
        <time>2021-08-16T14:46:16Z</time>
      </trkpt>
      <trkpt lat="44.29954" lon="3.04246">
        <ele>868.2</ele>
        <time>2021-08-16T14:46:18Z</time>
      </trkpt>
      <trkpt lat="44.29957" lon="3.04245">
        <ele>868.4</ele>
        <time>2021-08-16T14:46:20Z</time>
      </trkpt>
      <trkpt lat="44.2996" lon="3.04244">
        <ele>868.7</ele>
        <time>2021-08-16T14:46:22Z</time>
      </trkpt>
      <trkpt lat="44.29963" lon="3.04243">
        <ele>868.9</ele>
        <time>2021-08-16T14:46:24Z</time>
      </trkpt>
      <trkpt lat="44.29966" lon="3.04241">
        <ele>869</ele>
        <time>2021-08-16T14:46:26Z</time>
      </trkpt>
      <trkpt lat="44.29969" lon="3.04239">
        <ele>869.1</ele>
        <time>2021-08-16T14:46:28Z</time>
      </trkpt>
      <trkpt lat="44.29973" lon="3.04238">
        <ele>869.4</ele>
        <time>2021-08-16T14:46:30Z</time>
      </trkpt>
      <trkpt lat="44.29976" lon="3.04238">
        <ele>869.7</ele>
        <time>2021-08-16T14:46:32Z</time>
      </trkpt>
      <trkpt lat="44.29979" lon="3.04236">
        <ele>869.7</ele>
        <time>2021-08-16T14:46:34Z</time>
      </trkpt>
      <trkpt lat="44.29981" lon="3.04234">
        <ele>869.8</ele>
        <time>2021-08-16T14:46:36Z</time>
      </trkpt>
      <trkpt lat="44.29984" lon="3.04234">
        <ele>870</ele>
        <time>2021-08-16T14:46:38Z</time>
      </trkpt>
      <trkpt lat="44.29987" lon="3.04234">
        <ele>870.4</ele>
        <time>2021-08-16T14:46:40Z</time>
      </trkpt>
      <trkpt lat="44.2999" lon="3.04233">
        <ele>870.5</ele>
        <time>2021-08-16T14:46:42Z</time>
      </trkpt>
      <trkpt lat="44.29993" lon="3.04232">
        <ele>870.7</ele>
        <time>2021-08-16T14:46:44Z</time>
      </trkpt>
      <trkpt lat="44.29996" lon="3.04232">
        <ele>871</ele>
        <time>2021-08-16T14:46:46Z</time>
      </trkpt>
      <trkpt lat="44.3" lon="3.04232">
        <ele>871.2</ele>
        <time>2021-08-16T14:46:48Z</time>
      </trkpt>
      <trkpt lat="44.30003" lon="3.04231">
        <ele>870.7</ele>
        <time>2021-08-16T14:46:50Z</time>
      </trkpt>
      <trkpt lat="44.30006" lon="3.04231">
        <ele>870.2</ele>
        <time>2021-08-16T14:46:52Z</time>
      </trkpt>
      <trkpt lat="44.30009" lon="3.04232">
        <ele>869.8</ele>
        <time>2021-08-16T14:46:54Z</time>
      </trkpt>
      <trkpt lat="44.30012" lon="3.04232">
        <ele>869.4</ele>
        <time>2021-08-16T14:46:56Z</time>
      </trkpt>
      <trkpt lat="44.30016" lon="3.04231">
        <ele>868.9</ele>
        <time>2021-08-16T14:46:58Z</time>
      </trkpt>
      <trkpt lat="44.30019" lon="3.04233">
        <ele>868.5</ele>
        <time>2021-08-16T14:47:00Z</time>
      </trkpt>
      <trkpt lat="44.30023" lon="3.04233">
        <ele>868</ele>
        <time>2021-08-16T14:47:02Z</time>
      </trkpt>
      <trkpt lat="44.30027" lon="3.04234">
        <ele>867.4</ele>
        <time>2021-08-16T14:47:04Z</time>
      </trkpt>
      <trkpt lat="44.3003" lon="3.04236">
        <ele>867.1</ele>
        <time>2021-08-16T14:47:06Z</time>
      </trkpt>
      <trkpt lat="44.30033" lon="3.04241">
        <ele>867.3</ele>
        <time>2021-08-16T14:47:08Z</time>
      </trkpt>
      <trkpt lat="44.30034" lon="3.04244">
        <ele>867.4</ele>
        <time>2021-08-16T14:47:10Z</time>
      </trkpt>
      <trkpt lat="44.30036" lon="3.04245">
        <ele>867.3</ele>
        <time>2021-08-16T14:47:12Z</time>
      </trkpt>
      <trkpt lat="44.30035" lon="3.04245">
        <ele>867.3</ele>
        <time>2021-08-16T14:47:14Z</time>
      </trkpt>
      <trkpt lat="44.30035" lon="3.04244">
        <ele>867.3</ele>
        <time>2021-08-16T14:47:16Z</time>
      </trkpt>
      <trkpt lat="44.30035" lon="3.04244">
        <ele>867.3</ele>
        <time>2021-08-16T14:47:18Z</time>
      </trkpt>
      <trkpt lat="44.30035" lon="3.04244">
        <ele>867.3</ele>
        <time>2021-08-16T14:47:20Z</time>
      </trkpt>
      <trkpt lat="44.3007" lon="3.04281">
        <ele>865.2</ele>
        <time>2021-08-16T14:49:40Z</time>
      </trkpt>
      <trkpt lat="44.30083" lon="3.04291">
        <ele>864.5</ele>
        <time>2021-08-16T14:49:42Z</time>
      </trkpt>
      <trkpt lat="44.30099" lon="3.04302">
        <ele>861.8</ele>
        <time>2021-08-16T14:49:44Z</time>
      </trkpt>
      <trkpt lat="44.30114" lon="3.04315">
        <ele>859.9</ele>
        <time>2021-08-16T14:49:46Z</time>
      </trkpt>
      <trkpt lat="44.30128" lon="3.04327">
        <ele>858.5</ele>
        <time>2021-08-16T14:49:48Z</time>
      </trkpt>
      <trkpt lat="44.30144" lon="3.0434">
        <ele>856.8</ele>
        <time>2021-08-16T14:49:50Z</time>
      </trkpt>
      <trkpt lat="44.30158" lon="3.04353">
        <ele>854.9</ele>
        <time>2021-08-16T14:49:52Z</time>
      </trkpt>
      <trkpt lat="44.30173" lon="3.04365">
        <ele>852.6</ele>
        <time>2021-08-16T14:49:54Z</time>
      </trkpt>
      <trkpt lat="44.30188" lon="3.04379">
        <ele>849.7</ele>
        <time>2021-08-16T14:49:56Z</time>
      </trkpt>
      <trkpt lat="44.30202" lon="3.04394">
        <ele>847.7</ele>
        <time>2021-08-16T14:49:58Z</time>
      </trkpt>
      <trkpt lat="44.30217" lon="3.04411">
        <ele>846.3</ele>
        <time>2021-08-16T14:50:00Z</time>
      </trkpt>
      <trkpt lat="44.30232" lon="3.04427">
        <ele>844.1</ele>
        <time>2021-08-16T14:50:02Z</time>
      </trkpt>
      <trkpt lat="44.30247" lon="3.04442">
        <ele>841.5</ele>
        <time>2021-08-16T14:50:04Z</time>
      </trkpt>
      <trkpt lat="44.3026" lon="3.04456">
        <ele>840.5</ele>
        <time>2021-08-16T14:50:06Z</time>
      </trkpt>
      <trkpt lat="44.30268" lon="3.04465">
        <ele>840.1</ele>
        <time>2021-08-16T14:50:08Z</time>
      </trkpt>
      <trkpt lat="44.30268" lon="3.04466">
        <ele>840.2</ele>
        <time>2021-08-16T14:50:10Z</time>
      </trkpt>
      <trkpt lat="44.30268" lon="3.04466">
        <ele>840.2</ele>
        <time>2021-08-16T14:50:12Z</time>
      </trkpt>
      <trkpt lat="44.30268" lon="3.04466">
        <ele>840.1</ele>
        <time>2021-08-16T14:50:14Z</time>
      </trkpt>
      <trkpt lat="44.30268" lon="3.04466">
        <ele>840.1</ele>
        <time>2021-08-16T14:50:16Z</time>
      </trkpt>
      <trkpt lat="44.30269" lon="3.04467">
        <ele>840.1</ele>
        <time>2021-08-16T14:50:18Z</time>
      </trkpt>
      <trkpt lat="44.30281" lon="3.04486">
        <ele>839.8</ele>
        <time>2021-08-16T14:51:16Z</time>
      </trkpt>
      <trkpt lat="44.30286" lon="3.04494">
        <ele>839.7</ele>
        <time>2021-08-16T14:51:18Z</time>
      </trkpt>
      <trkpt lat="44.30291" lon="3.04503">
        <ele>839.5</ele>
        <time>2021-08-16T14:51:20Z</time>
      </trkpt>
      <trkpt lat="44.30297" lon="3.04514">
        <ele>838.9</ele>
        <time>2021-08-16T14:51:22Z</time>
      </trkpt>
      <trkpt lat="44.30303" lon="3.04527">
        <ele>838.3</ele>
        <time>2021-08-16T14:51:24Z</time>
      </trkpt>
      <trkpt lat="44.30308" lon="3.04542">
        <ele>837.5</ele>
        <time>2021-08-16T14:51:26Z</time>
      </trkpt>
      <trkpt lat="44.30314" lon="3.04558">
        <ele>836.8</ele>
        <time>2021-08-16T14:51:28Z</time>
      </trkpt>
      <trkpt lat="44.30319" lon="3.04575">
        <ele>835.9</ele>
        <time>2021-08-16T14:51:30Z</time>
      </trkpt>
      <trkpt lat="44.30325" lon="3.04596">
        <ele>834.5</ele>
        <time>2021-08-16T14:51:32Z</time>
      </trkpt>
      <trkpt lat="44.30331" lon="3.04616">
        <ele>832.7</ele>
        <time>2021-08-16T14:51:34Z</time>
      </trkpt>
      <trkpt lat="44.30339" lon="3.04638">
        <ele>830.8</ele>
        <time>2021-08-16T14:51:36Z</time>
      </trkpt>
      <trkpt lat="44.30348" lon="3.0466">
        <ele>828.9</ele>
        <time>2021-08-16T14:51:38Z</time>
      </trkpt>
      <trkpt lat="44.30359" lon="3.0468">
        <ele>827.4</ele>
        <time>2021-08-16T14:51:40Z</time>
      </trkpt>
      <trkpt lat="44.30374" lon="3.04696">
        <ele>825.7</ele>
        <time>2021-08-16T14:51:42Z</time>
      </trkpt>
      <trkpt lat="44.30391" lon="3.0471">
        <ele>824</ele>
        <time>2021-08-16T14:51:44Z</time>
      </trkpt>
      <trkpt lat="44.30405" lon="3.04723">
        <ele>822.4</ele>
        <time>2021-08-16T14:51:46Z</time>
      </trkpt>
      <trkpt lat="44.30418" lon="3.0474">
        <ele>821.1</ele>
        <time>2021-08-16T14:51:48Z</time>
      </trkpt>
      <trkpt lat="44.30429" lon="3.0476">
        <ele>820.4</ele>
        <time>2021-08-16T14:51:50Z</time>
      </trkpt>
      <trkpt lat="44.3044" lon="3.04781">
        <ele>819.4</ele>
        <time>2021-08-16T14:51:52Z</time>
      </trkpt>
      <trkpt lat="44.30452" lon="3.04802">
        <ele>818</ele>
        <time>2021-08-16T14:51:54Z</time>
      </trkpt>
      <trkpt lat="44.30464" lon="3.04824">
        <ele>816.4</ele>
        <time>2021-08-16T14:51:56Z</time>
      </trkpt>
      <trkpt lat="44.30475" lon="3.04845">
        <ele>814.7</ele>
        <time>2021-08-16T14:51:58Z</time>
      </trkpt>
      <trkpt lat="44.30485" lon="3.04866">
        <ele>813.3</ele>
        <time>2021-08-16T14:52:00Z</time>
      </trkpt>
      <trkpt lat="44.30496" lon="3.04883">
        <ele>812.1</ele>
        <time>2021-08-16T14:52:02Z</time>
      </trkpt>
      <trkpt lat="44.30509" lon="3.04897">
        <ele>811</ele>
        <time>2021-08-16T14:52:04Z</time>
      </trkpt>
      <trkpt lat="44.30518" lon="3.04911">
        <ele>810</ele>
        <time>2021-08-16T14:52:06Z</time>
      </trkpt>
      <trkpt lat="44.30529" lon="3.04922">
        <ele>808.8</ele>
        <time>2021-08-16T14:52:08Z</time>
      </trkpt>
      <trkpt lat="44.30548" lon="3.04927">
        <ele>807.4</ele>
        <time>2021-08-16T14:52:10Z</time>
      </trkpt>
      <trkpt lat="44.30569" lon="3.04933">
        <ele>805.8</ele>
        <time>2021-08-16T14:52:12Z</time>
      </trkpt>
      <trkpt lat="44.30589" lon="3.04938">
        <ele>804.2</ele>
        <time>2021-08-16T14:52:14Z</time>
      </trkpt>
      <trkpt lat="44.30609" lon="3.04939">
        <ele>802.1</ele>
        <time>2021-08-16T14:52:16Z</time>
      </trkpt>
      <trkpt lat="44.30626" lon="3.04932">
        <ele>800.1</ele>
        <time>2021-08-16T14:52:18Z</time>
      </trkpt>
      <trkpt lat="44.30643" lon="3.04919">
        <ele>797.3</ele>
        <time>2021-08-16T14:52:20Z</time>
      </trkpt>
      <trkpt lat="44.3066" lon="3.04903">
        <ele>795.8</ele>
        <time>2021-08-16T14:52:22Z</time>
      </trkpt>
      <trkpt lat="44.30677" lon="3.04885">
        <ele>795.4</ele>
        <time>2021-08-16T14:52:24Z</time>
      </trkpt>
      <trkpt lat="44.30694" lon="3.04867">
        <ele>794.3</ele>
        <time>2021-08-16T14:52:26Z</time>
      </trkpt>
      <trkpt lat="44.30712" lon="3.04854">
        <ele>791.9</ele>
        <time>2021-08-16T14:52:28Z</time>
      </trkpt>
      <trkpt lat="44.3073" lon="3.0484">
        <ele>788.3</ele>
        <time>2021-08-16T14:52:30Z</time>
      </trkpt>
      <trkpt lat="44.30747" lon="3.04829">
        <ele>785.1</ele>
        <time>2021-08-16T14:52:32Z</time>
      </trkpt>
      <trkpt lat="44.30766" lon="3.04819">
        <ele>784.1</ele>
        <time>2021-08-16T14:52:34Z</time>
      </trkpt>
      <trkpt lat="44.30786" lon="3.04808">
        <ele>782.2</ele>
        <time>2021-08-16T14:52:36Z</time>
      </trkpt>
      <trkpt lat="44.30805" lon="3.04796">
        <ele>779.2</ele>
        <time>2021-08-16T14:52:38Z</time>
      </trkpt>
      <trkpt lat="44.30824" lon="3.04783">
        <ele>774.9</ele>
        <time>2021-08-16T14:52:40Z</time>
      </trkpt>
      <trkpt lat="44.30841" lon="3.04769">
        <ele>770.9</ele>
        <time>2021-08-16T14:52:42Z</time>
      </trkpt>
      <trkpt lat="44.30859" lon="3.04753">
        <ele>767.2</ele>
        <time>2021-08-16T14:52:44Z</time>
      </trkpt>
      <trkpt lat="44.30874" lon="3.04739">
        <ele>765.2</ele>
        <time>2021-08-16T14:52:46Z</time>
      </trkpt>
      <trkpt lat="44.30892" lon="3.04727">
        <ele>762.5</ele>
        <time>2021-08-16T14:52:48Z</time>
      </trkpt>
      <trkpt lat="44.30908" lon="3.04713">
        <ele>758.8</ele>
        <time>2021-08-16T14:52:50Z</time>
      </trkpt>
      <trkpt lat="44.30922" lon="3.04696">
        <ele>754.4</ele>
        <time>2021-08-16T14:52:52Z</time>
      </trkpt>
      <trkpt lat="44.30936" lon="3.04677">
        <ele>749.4</ele>
        <time>2021-08-16T14:52:54Z</time>
      </trkpt>
      <trkpt lat="44.30948" lon="3.04661">
        <ele>745.2</ele>
        <time>2021-08-16T14:52:56Z</time>
      </trkpt>
      <trkpt lat="44.3096" lon="3.04648">
        <ele>742.2</ele>
        <time>2021-08-16T14:52:58Z</time>
      </trkpt>
      <trkpt lat="44.30969" lon="3.04639">
        <ele>740</ele>
        <time>2021-08-16T14:53:00Z</time>
      </trkpt>
      <trkpt lat="44.30974" lon="3.04636">
        <ele>738.7</ele>
        <time>2021-08-16T14:53:02Z</time>
      </trkpt>
      <trkpt lat="44.30977" lon="3.04639">
        <ele>737.5</ele>
        <time>2021-08-16T14:53:04Z</time>
      </trkpt>
      <trkpt lat="44.30979" lon="3.04645">
        <ele>736.8</ele>
        <time>2021-08-16T14:53:06Z</time>
      </trkpt>
      <trkpt lat="44.30978" lon="3.04646">
        <ele>737</ele>
        <time>2021-08-16T14:53:08Z</time>
      </trkpt>
      <trkpt lat="44.30978" lon="3.04647">
        <ele>737</ele>
        <time>2021-08-16T14:53:10Z</time>
      </trkpt>
      <trkpt lat="44.30979" lon="3.04647">
        <ele>736.9</ele>
        <time>2021-08-16T14:53:12Z</time>
      </trkpt>
      <trkpt lat="44.30979" lon="3.04647">
        <ele>736.8</ele>
        <time>2021-08-16T14:53:14Z</time>
      </trkpt>
      <trkpt lat="44.3098" lon="3.04642">
        <ele>736.7</ele>
        <time>2021-08-16T14:59:44Z</time>
      </trkpt>
      <trkpt lat="44.3098" lon="3.04642">
        <ele>736.6</ele>
        <time>2021-08-16T14:59:46Z</time>
      </trkpt>
      <trkpt lat="44.3098" lon="3.04642">
        <ele>736.6</ele>
        <time>2021-08-16T14:59:48Z</time>
      </trkpt>
      <trkpt lat="44.3098" lon="3.04642">
        <ele>736.7</ele>
        <time>2021-08-16T14:59:50Z</time>
      </trkpt>
      <trkpt lat="44.3098" lon="3.04643">
        <ele>736.7</ele>
        <time>2021-08-16T14:59:52Z</time>
      </trkpt>
      <trkpt lat="44.30978" lon="3.04647">
        <ele>737.1</ele>
        <time>2021-08-16T14:59:54Z</time>
      </trkpt>
      <trkpt lat="44.30978" lon="3.0465">
        <ele>736.9</ele>
        <time>2021-08-16T14:59:56Z</time>
      </trkpt>
      <trkpt lat="44.30979" lon="3.04655">
        <ele>736.4</ele>
        <time>2021-08-16T14:59:58Z</time>
      </trkpt>
      <trkpt lat="44.30979" lon="3.04658">
        <ele>736.3</ele>
        <time>2021-08-16T15:00:00Z</time>
      </trkpt>
      <trkpt lat="44.30978" lon="3.04659">
        <ele>736.5</ele>
        <time>2021-08-16T15:00:02Z</time>
      </trkpt>
      <trkpt lat="44.30978" lon="3.04662">
        <ele>736.5</ele>
        <time>2021-08-16T15:00:04Z</time>
      </trkpt>
      <trkpt lat="44.30978" lon="3.04663">
        <ele>736.5</ele>
        <time>2021-08-16T15:00:06Z</time>
      </trkpt>
      <trkpt lat="44.30978" lon="3.04662">
        <ele>736.4</ele>
        <time>2021-08-16T15:00:08Z</time>
      </trkpt>
      <trkpt lat="44.30978" lon="3.04662">
        <ele>736.4</ele>
        <time>2021-08-16T15:00:10Z</time>
      </trkpt>
      <trkpt lat="44.30979" lon="3.04662">
        <ele>736.4</ele>
        <time>2021-08-16T15:00:12Z</time>
      </trkpt>
      <trkpt lat="44.30984" lon="3.04679">
        <ele>736.7</ele>
        <time>2021-08-16T15:00:28Z</time>
      </trkpt>
      <trkpt lat="44.30988" lon="3.04686">
        <ele>736.5</ele>
        <time>2021-08-16T15:00:30Z</time>
      </trkpt>
      <trkpt lat="44.30994" lon="3.04693">
        <ele>736.3</ele>
        <time>2021-08-16T15:00:32Z</time>
      </trkpt>
      <trkpt lat="44.31001" lon="3.047">
        <ele>735.9</ele>
        <time>2021-08-16T15:00:34Z</time>
      </trkpt>
      <trkpt lat="44.3101" lon="3.04705">
        <ele>735.4</ele>
        <time>2021-08-16T15:00:36Z</time>
      </trkpt>
      <trkpt lat="44.3102" lon="3.04708">
        <ele>734.4</ele>
        <time>2021-08-16T15:00:38Z</time>
      </trkpt>
      <trkpt lat="44.3103" lon="3.04708">
        <ele>732.8</ele>
        <time>2021-08-16T15:00:40Z</time>
      </trkpt>
      <trkpt lat="44.31041" lon="3.04705">
        <ele>730.7</ele>
        <time>2021-08-16T15:00:42Z</time>
      </trkpt>
      <trkpt lat="44.31053" lon="3.04702">
        <ele>728.3</ele>
        <time>2021-08-16T15:00:44Z</time>
      </trkpt>
      <trkpt lat="44.31067" lon="3.04698">
        <ele>725.8</ele>
        <time>2021-08-16T15:00:46Z</time>
      </trkpt>
      <trkpt lat="44.31082" lon="3.04694">
        <ele>723.1</ele>
        <time>2021-08-16T15:00:48Z</time>
      </trkpt>
      <trkpt lat="44.31099" lon="3.04689">
        <ele>721.2</ele>
        <time>2021-08-16T15:00:50Z</time>
      </trkpt>
      <trkpt lat="44.31117" lon="3.04688">
        <ele>719.4</ele>
        <time>2021-08-16T15:00:52Z</time>
      </trkpt>
      <trkpt lat="44.31136" lon="3.04685">
        <ele>717.5</ele>
        <time>2021-08-16T15:00:54Z</time>
      </trkpt>
      <trkpt lat="44.31155" lon="3.04681">
        <ele>715.5</ele>
        <time>2021-08-16T15:00:56Z</time>
      </trkpt>
      <trkpt lat="44.31174" lon="3.04678">
        <ele>713.5</ele>
        <time>2021-08-16T15:00:58Z</time>
      </trkpt>
      <trkpt lat="44.31191" lon="3.04676">
        <ele>711.9</ele>
        <time>2021-08-16T15:01:00Z</time>
      </trkpt>
      <trkpt lat="44.31209" lon="3.04677">
        <ele>710.4</ele>
        <time>2021-08-16T15:01:02Z</time>
      </trkpt>
      <trkpt lat="44.31226" lon="3.0468">
        <ele>709.1</ele>
        <time>2021-08-16T15:01:04Z</time>
      </trkpt>
      <trkpt lat="44.31244" lon="3.04685">
        <ele>707.9</ele>
        <time>2021-08-16T15:01:06Z</time>
      </trkpt>
      <trkpt lat="44.31261" lon="3.04691">
        <ele>706.7</ele>
        <time>2021-08-16T15:01:08Z</time>
      </trkpt>
      <trkpt lat="44.31275" lon="3.04697">
        <ele>705.7</ele>
        <time>2021-08-16T15:01:10Z</time>
      </trkpt>
      <trkpt lat="44.31287" lon="3.04703">
        <ele>704.9</ele>
        <time>2021-08-16T15:01:12Z</time>
      </trkpt>
      <trkpt lat="44.31297" lon="3.04708">
        <ele>704.2</ele>
        <time>2021-08-16T15:01:14Z</time>
      </trkpt>
      <trkpt lat="44.31303" lon="3.0471">
        <ele>703.7</ele>
        <time>2021-08-16T15:01:16Z</time>
      </trkpt>
      <trkpt lat="44.31309" lon="3.04709">
        <ele>703.1</ele>
        <time>2021-08-16T15:01:18Z</time>
      </trkpt>
      <trkpt lat="44.31311" lon="3.04709">
        <ele>702.8</ele>
        <time>2021-08-16T15:01:20Z</time>
      </trkpt>
      <trkpt lat="44.31312" lon="3.04712">
        <ele>702.9</ele>
        <time>2021-08-16T15:01:22Z</time>
      </trkpt>
      <trkpt lat="44.31313" lon="3.04713">
        <ele>702.8</ele>
        <time>2021-08-16T15:01:24Z</time>
      </trkpt>
      <trkpt lat="44.31314" lon="3.04714">
        <ele>702.9</ele>
        <time>2021-08-16T15:01:26Z</time>
      </trkpt>
      <trkpt lat="44.31314" lon="3.04715">
        <ele>702.9</ele>
        <time>2021-08-16T15:01:28Z</time>
      </trkpt>
      <trkpt lat="44.31313" lon="3.04714">
        <ele>702.9</ele>
        <time>2021-08-16T15:01:30Z</time>
      </trkpt>
      <trkpt lat="44.31314" lon="3.04714">
        <ele>702.9</ele>
        <time>2021-08-16T15:01:32Z</time>
      </trkpt>
      <trkpt lat="44.31314" lon="3.04714">
        <ele>702.8</ele>
        <time>2021-08-16T15:01:34Z</time>
      </trkpt>
      <trkpt lat="44.3133" lon="3.04716">
        <ele>701.4</ele>
        <time>2021-08-16T15:02:08Z</time>
      </trkpt>
      <trkpt lat="44.31339" lon="3.04721">
        <ele>700.7</ele>
        <time>2021-08-16T15:02:10Z</time>
      </trkpt>
      <trkpt lat="44.31349" lon="3.04728">
        <ele>699.7</ele>
        <time>2021-08-16T15:02:12Z</time>
      </trkpt>
      <trkpt lat="44.3136" lon="3.04734">
        <ele>698.6</ele>
        <time>2021-08-16T15:02:14Z</time>
      </trkpt>
      <trkpt lat="44.31371" lon="3.04741">
        <ele>697.3</ele>
        <time>2021-08-16T15:02:16Z</time>
      </trkpt>
      <trkpt lat="44.31383" lon="3.04747">
        <ele>695.8</ele>
        <time>2021-08-16T15:02:18Z</time>
      </trkpt>
      <trkpt lat="44.31393" lon="3.04752">
        <ele>694.4</ele>
        <time>2021-08-16T15:02:20Z</time>
      </trkpt>
      <trkpt lat="44.31404" lon="3.04756">
        <ele>692.9</ele>
        <time>2021-08-16T15:02:22Z</time>
      </trkpt>
      <trkpt lat="44.31417" lon="3.04761">
        <ele>691.2</ele>
        <time>2021-08-16T15:02:24Z</time>
      </trkpt>
      <trkpt lat="44.3143" lon="3.04763">
        <ele>690.7</ele>
        <time>2021-08-16T15:02:26Z</time>
      </trkpt>
      <trkpt lat="44.31442" lon="3.04764">
        <ele>690.2</ele>
        <time>2021-08-16T15:02:28Z</time>
      </trkpt>
      <trkpt lat="44.31454" lon="3.04761">
        <ele>689.7</ele>
        <time>2021-08-16T15:02:30Z</time>
      </trkpt>
      <trkpt lat="44.31466" lon="3.04755">
        <ele>689.2</ele>
        <time>2021-08-16T15:02:32Z</time>
      </trkpt>
      <trkpt lat="44.31477" lon="3.04748">
        <ele>688.8</ele>
        <time>2021-08-16T15:02:34Z</time>
      </trkpt>
      <trkpt lat="44.31489" lon="3.0474">
        <ele>688.4</ele>
        <time>2021-08-16T15:02:36Z</time>
      </trkpt>
      <trkpt lat="44.315" lon="3.04732">
        <ele>688</ele>
        <time>2021-08-16T15:02:38Z</time>
      </trkpt>
      <trkpt lat="44.31511" lon="3.04724">
        <ele>688</ele>
        <time>2021-08-16T15:02:40Z</time>
      </trkpt>
      <trkpt lat="44.31521" lon="3.04716">
        <ele>688</ele>
        <time>2021-08-16T15:02:42Z</time>
      </trkpt>
      <trkpt lat="44.3153" lon="3.04709">
        <ele>688</ele>
        <time>2021-08-16T15:02:44Z</time>
      </trkpt>
      <trkpt lat="44.31539" lon="3.04702">
        <ele>688.1</ele>
        <time>2021-08-16T15:02:46Z</time>
      </trkpt>
      <trkpt lat="44.31547" lon="3.04695">
        <ele>688.2</ele>
        <time>2021-08-16T15:02:48Z</time>
      </trkpt>
      <trkpt lat="44.31555" lon="3.04689">
        <ele>688.3</ele>
        <time>2021-08-16T15:02:50Z</time>
      </trkpt>
      <trkpt lat="44.31564" lon="3.04683">
        <ele>688.5</ele>
        <time>2021-08-16T15:02:52Z</time>
      </trkpt>
      <trkpt lat="44.31572" lon="3.04677">
        <ele>688.6</ele>
        <time>2021-08-16T15:02:54Z</time>
      </trkpt>
      <trkpt lat="44.3158" lon="3.04672">
        <ele>688.8</ele>
        <time>2021-08-16T15:02:56Z</time>
      </trkpt>
      <trkpt lat="44.31587" lon="3.04667">
        <ele>689.1</ele>
        <time>2021-08-16T15:02:58Z</time>
      </trkpt>
      <trkpt lat="44.31595" lon="3.04664">
        <ele>689.4</ele>
        <time>2021-08-16T15:03:00Z</time>
      </trkpt>
      <trkpt lat="44.31603" lon="3.0466">
        <ele>689.8</ele>
        <time>2021-08-16T15:03:02Z</time>
      </trkpt>
      <trkpt lat="44.31612" lon="3.0466">
        <ele>690</ele>
        <time>2021-08-16T15:03:04Z</time>
      </trkpt>
      <trkpt lat="44.31621" lon="3.04661">
        <ele>690.1</ele>
        <time>2021-08-16T15:03:06Z</time>
      </trkpt>
      <trkpt lat="44.31629" lon="3.04663">
        <ele>690.3</ele>
        <time>2021-08-16T15:03:08Z</time>
      </trkpt>
      <trkpt lat="44.31637" lon="3.04667">
        <ele>690.3</ele>
        <time>2021-08-16T15:03:10Z</time>
      </trkpt>
      <trkpt lat="44.31646" lon="3.04671">
        <ele>690.4</ele>
        <time>2021-08-16T15:03:12Z</time>
      </trkpt>
      <trkpt lat="44.31654" lon="3.04676">
        <ele>690.5</ele>
        <time>2021-08-16T15:03:14Z</time>
      </trkpt>
      <trkpt lat="44.31661" lon="3.0468">
        <ele>690.5</ele>
        <time>2021-08-16T15:03:16Z</time>
      </trkpt>
      <trkpt lat="44.31669" lon="3.04685">
        <ele>690.6</ele>
        <time>2021-08-16T15:03:18Z</time>
      </trkpt>
      <trkpt lat="44.31676" lon="3.0469">
        <ele>690.7</ele>
        <time>2021-08-16T15:03:20Z</time>
      </trkpt>
      <trkpt lat="44.31683" lon="3.04694">
        <ele>690.7</ele>
        <time>2021-08-16T15:03:22Z</time>
      </trkpt>
      <trkpt lat="44.31688" lon="3.047">
        <ele>690.7</ele>
        <time>2021-08-16T15:03:24Z</time>
      </trkpt>
      <trkpt lat="44.31692" lon="3.04706">
        <ele>690.5</ele>
        <time>2021-08-16T15:03:26Z</time>
      </trkpt>
      <trkpt lat="44.31693" lon="3.04715">
        <ele>690.2</ele>
        <time>2021-08-16T15:03:28Z</time>
      </trkpt>
      <trkpt lat="44.31693" lon="3.04724">
        <ele>689.9</ele>
        <time>2021-08-16T15:03:30Z</time>
      </trkpt>
      <trkpt lat="44.31693" lon="3.04734">
        <ele>689.5</ele>
        <time>2021-08-16T15:03:32Z</time>
      </trkpt>
      <trkpt lat="44.31691" lon="3.04746">
        <ele>689.2</ele>
        <time>2021-08-16T15:03:34Z</time>
      </trkpt>
      <trkpt lat="44.3169" lon="3.04758">
        <ele>688.8</ele>
        <time>2021-08-16T15:03:36Z</time>
      </trkpt>
      <trkpt lat="44.31687" lon="3.04771">
        <ele>688.4</ele>
        <time>2021-08-16T15:03:38Z</time>
      </trkpt>
      <trkpt lat="44.31686" lon="3.04784">
        <ele>688.1</ele>
        <time>2021-08-16T15:03:40Z</time>
      </trkpt>
      <trkpt lat="44.31683" lon="3.04796">
        <ele>687.8</ele>
        <time>2021-08-16T15:03:42Z</time>
      </trkpt>
      <trkpt lat="44.31681" lon="3.04808">
        <ele>687.5</ele>
        <time>2021-08-16T15:03:44Z</time>
      </trkpt>
      <trkpt lat="44.31679" lon="3.0482">
        <ele>687.2</ele>
        <time>2021-08-16T15:03:46Z</time>
      </trkpt>
      <trkpt lat="44.31677" lon="3.04832">
        <ele>686.9</ele>
        <time>2021-08-16T15:03:48Z</time>
      </trkpt>
      <trkpt lat="44.31675" lon="3.04844">
        <ele>686.9</ele>
        <time>2021-08-16T15:03:50Z</time>
      </trkpt>
      <trkpt lat="44.31673" lon="3.04856">
        <ele>686.9</ele>
        <time>2021-08-16T15:03:52Z</time>
      </trkpt>
      <trkpt lat="44.31671" lon="3.04867">
        <ele>687</ele>
        <time>2021-08-16T15:03:54Z</time>
      </trkpt>
      <trkpt lat="44.31668" lon="3.04879">
        <ele>687</ele>
        <time>2021-08-16T15:03:56Z</time>
      </trkpt>
      <trkpt lat="44.31667" lon="3.04892">
        <ele>687</ele>
        <time>2021-08-16T15:03:58Z</time>
      </trkpt>
      <trkpt lat="44.31666" lon="3.04906">
        <ele>687</ele>
        <time>2021-08-16T15:04:00Z</time>
      </trkpt>
      <trkpt lat="44.31668" lon="3.04919">
        <ele>687</ele>
        <time>2021-08-16T15:04:02Z</time>
      </trkpt>
      <trkpt lat="44.31671" lon="3.04931">
        <ele>686.7</ele>
        <time>2021-08-16T15:04:04Z</time>
      </trkpt>
      <trkpt lat="44.31676" lon="3.04944">
        <ele>686.4</ele>
        <time>2021-08-16T15:04:06Z</time>
      </trkpt>
      <trkpt lat="44.3168" lon="3.04956">
        <ele>686.1</ele>
        <time>2021-08-16T15:04:08Z</time>
      </trkpt>
      <trkpt lat="44.31686" lon="3.04967">
        <ele>685.9</ele>
        <time>2021-08-16T15:04:10Z</time>
      </trkpt>
      <trkpt lat="44.31692" lon="3.04978">
        <ele>685.7</ele>
        <time>2021-08-16T15:04:12Z</time>
      </trkpt>
      <trkpt lat="44.31698" lon="3.04991">
        <ele>685.6</ele>
        <time>2021-08-16T15:04:14Z</time>
      </trkpt>
      <trkpt lat="44.31705" lon="3.05003">
        <ele>685.3</ele>
        <time>2021-08-16T15:04:16Z</time>
      </trkpt>
      <trkpt lat="44.31711" lon="3.05016">
        <ele>684.9</ele>
        <time>2021-08-16T15:04:18Z</time>
      </trkpt>
      <trkpt lat="44.31718" lon="3.0503">
        <ele>684.3</ele>
        <time>2021-08-16T15:04:20Z</time>
      </trkpt>
      <trkpt lat="44.31725" lon="3.05044">
        <ele>683.7</ele>
        <time>2021-08-16T15:04:22Z</time>
      </trkpt>
      <trkpt lat="44.31731" lon="3.0506">
        <ele>683.1</ele>
        <time>2021-08-16T15:04:24Z</time>
      </trkpt>
      <trkpt lat="44.31738" lon="3.05076">
        <ele>682.3</ele>
        <time>2021-08-16T15:04:26Z</time>
      </trkpt>
      <trkpt lat="44.31746" lon="3.05094">
        <ele>681.4</ele>
        <time>2021-08-16T15:04:28Z</time>
      </trkpt>
      <trkpt lat="44.31756" lon="3.05111">
        <ele>680</ele>
        <time>2021-08-16T15:04:30Z</time>
      </trkpt>
      <trkpt lat="44.31766" lon="3.05131">
        <ele>678.4</ele>
        <time>2021-08-16T15:04:32Z</time>
      </trkpt>
      <trkpt lat="44.31777" lon="3.05152">
        <ele>676.6</ele>
        <time>2021-08-16T15:04:34Z</time>
      </trkpt>
      <trkpt lat="44.31789" lon="3.05172">
        <ele>675</ele>
        <time>2021-08-16T15:04:36Z</time>
      </trkpt>
      <trkpt lat="44.318" lon="3.05193">
        <ele>674.3</ele>
        <time>2021-08-16T15:04:38Z</time>
      </trkpt>
      <trkpt lat="44.31812" lon="3.05214">
        <ele>673.7</ele>
        <time>2021-08-16T15:04:40Z</time>
      </trkpt>
      <trkpt lat="44.31824" lon="3.05234">
        <ele>673.3</ele>
        <time>2021-08-16T15:04:42Z</time>
      </trkpt>
      <trkpt lat="44.31836" lon="3.05255">
        <ele>672.7</ele>
        <time>2021-08-16T15:04:44Z</time>
      </trkpt>
      <trkpt lat="44.31848" lon="3.05277">
        <ele>671.7</ele>
        <time>2021-08-16T15:04:46Z</time>
      </trkpt>
      <trkpt lat="44.3186" lon="3.05299">
        <ele>670.7</ele>
        <time>2021-08-16T15:04:48Z</time>
      </trkpt>
      <trkpt lat="44.31872" lon="3.05322">
        <ele>669.8</ele>
        <time>2021-08-16T15:04:50Z</time>
      </trkpt>
      <trkpt lat="44.31884" lon="3.05345">
        <ele>669.1</ele>
        <time>2021-08-16T15:04:52Z</time>
      </trkpt>
      <trkpt lat="44.31895" lon="3.05367">
        <ele>668.6</ele>
        <time>2021-08-16T15:04:54Z</time>
      </trkpt>
      <trkpt lat="44.31906" lon="3.05387">
        <ele>668.2</ele>
        <time>2021-08-16T15:04:56Z</time>
      </trkpt>
      <trkpt lat="44.31916" lon="3.05406">
        <ele>668</ele>
        <time>2021-08-16T15:04:58Z</time>
      </trkpt>
      <trkpt lat="44.31925" lon="3.05423">
        <ele>667.9</ele>
        <time>2021-08-16T15:05:00Z</time>
      </trkpt>
      <trkpt lat="44.31933" lon="3.05437">
        <ele>667.9</ele>
        <time>2021-08-16T15:05:02Z</time>
      </trkpt>
      <trkpt lat="44.31939" lon="3.05449">
        <ele>668</ele>
        <time>2021-08-16T15:05:04Z</time>
      </trkpt>
      <trkpt lat="44.31942" lon="3.05457">
        <ele>668</ele>
        <time>2021-08-16T15:05:06Z</time>
      </trkpt>
      <trkpt lat="44.31944" lon="3.05461">
        <ele>668.1</ele>
        <time>2021-08-16T15:05:08Z</time>
      </trkpt>
      <trkpt lat="44.31943" lon="3.0546">
        <ele>668</ele>
        <time>2021-08-16T15:05:10Z</time>
      </trkpt>
      <trkpt lat="44.31944" lon="3.05461">
        <ele>668.1</ele>
        <time>2021-08-16T15:05:12Z</time>
      </trkpt>
      <trkpt lat="44.31944" lon="3.05461">
        <ele>668.1</ele>
        <time>2021-08-16T15:05:14Z</time>
      </trkpt>
      <trkpt lat="44.31944" lon="3.05461">
        <ele>668.1</ele>
        <time>2021-08-16T15:05:16Z</time>
      </trkpt>
      <trkpt lat="44.31957" lon="3.05498">
        <ele>668.5</ele>
        <time>2021-08-16T15:06:14Z</time>
      </trkpt>
      <trkpt lat="44.31957" lon="3.05512">
        <ele>668.4</ele>
        <time>2021-08-16T15:06:16Z</time>
      </trkpt>
      <trkpt lat="44.31955" lon="3.05526">
        <ele>668.2</ele>
        <time>2021-08-16T15:06:18Z</time>
      </trkpt>
      <trkpt lat="44.31951" lon="3.0554">
        <ele>668.1</ele>
        <time>2021-08-16T15:06:20Z</time>
      </trkpt>
      <trkpt lat="44.31949" lon="3.05555">
        <ele>668</ele>
        <time>2021-08-16T15:06:22Z</time>
      </trkpt>
      <trkpt lat="44.31945" lon="3.05569">
        <ele>667.8</ele>
        <time>2021-08-16T15:06:24Z</time>
      </trkpt>
      <trkpt lat="44.31945" lon="3.05584">
        <ele>667.7</ele>
        <time>2021-08-16T15:06:26Z</time>
      </trkpt>
      <trkpt lat="44.3195" lon="3.05598">
        <ele>667.5</ele>
        <time>2021-08-16T15:06:28Z</time>
      </trkpt>
      <trkpt lat="44.31958" lon="3.05609">
        <ele>667.4</ele>
        <time>2021-08-16T15:06:30Z</time>
      </trkpt>
      <trkpt lat="44.31968" lon="3.05618">
        <ele>667.2</ele>
        <time>2021-08-16T15:06:32Z</time>
      </trkpt>
      <trkpt lat="44.31978" lon="3.05628">
        <ele>667.1</ele>
        <time>2021-08-16T15:06:34Z</time>
      </trkpt>
      <trkpt lat="44.31988" lon="3.05638">
        <ele>667.1</ele>
        <time>2021-08-16T15:06:36Z</time>
      </trkpt>
      <trkpt lat="44.31997" lon="3.05649">
        <ele>667</ele>
        <time>2021-08-16T15:06:38Z</time>
      </trkpt>
      <trkpt lat="44.32007" lon="3.0566">
        <ele>667.2</ele>
        <time>2021-08-16T15:06:40Z</time>
      </trkpt>
      <trkpt lat="44.32016" lon="3.05672">
        <ele>667.5</ele>
        <time>2021-08-16T15:06:42Z</time>
      </trkpt>
      <trkpt lat="44.32025" lon="3.05681">
        <ele>667.9</ele>
        <time>2021-08-16T15:06:44Z</time>
      </trkpt>
      <trkpt lat="44.32033" lon="3.05685">
        <ele>668.2</ele>
        <time>2021-08-16T15:06:46Z</time>
      </trkpt>
      <trkpt lat="44.3204" lon="3.05687">
        <ele>668.3</ele>
        <time>2021-08-16T15:06:48Z</time>
      </trkpt>
      <trkpt lat="44.32046" lon="3.05687">
        <ele>668.5</ele>
        <time>2021-08-16T15:06:50Z</time>
      </trkpt>
      <trkpt lat="44.32051" lon="3.0569">
        <ele>668.6</ele>
        <time>2021-08-16T15:06:52Z</time>
      </trkpt>
      <trkpt lat="44.32056" lon="3.05691">
        <ele>668.7</ele>
        <time>2021-08-16T15:06:54Z</time>
      </trkpt>
      <trkpt lat="44.3206" lon="3.0569">
        <ele>668.8</ele>
        <time>2021-08-16T15:06:56Z</time>
      </trkpt>
      <trkpt lat="44.32066" lon="3.05692">
        <ele>668.9</ele>
        <time>2021-08-16T15:06:58Z</time>
      </trkpt>
      <trkpt lat="44.32073" lon="3.05692">
        <ele>669.1</ele>
        <time>2021-08-16T15:07:00Z</time>
      </trkpt>
      <trkpt lat="44.3208" lon="3.05694">
        <ele>669.3</ele>
        <time>2021-08-16T15:07:02Z</time>
      </trkpt>
      <trkpt lat="44.32087" lon="3.05698">
        <ele>669.4</ele>
        <time>2021-08-16T15:07:04Z</time>
      </trkpt>
      <trkpt lat="44.32093" lon="3.05704">
        <ele>669.5</ele>
        <time>2021-08-16T15:07:06Z</time>
      </trkpt>
      <trkpt lat="44.32099" lon="3.05709">
        <ele>669.6</ele>
        <time>2021-08-16T15:07:08Z</time>
      </trkpt>
      <trkpt lat="44.32104" lon="3.05715">
        <ele>669.7</ele>
        <time>2021-08-16T15:07:10Z</time>
      </trkpt>
      <trkpt lat="44.32107" lon="3.05721">
        <ele>669.8</ele>
        <time>2021-08-16T15:07:12Z</time>
      </trkpt>
      <trkpt lat="44.3211" lon="3.05727">
        <ele>669.8</ele>
        <time>2021-08-16T15:07:14Z</time>
      </trkpt>
      <trkpt lat="44.32111" lon="3.05733">
        <ele>669.9</ele>
        <time>2021-08-16T15:07:16Z</time>
      </trkpt>
      <trkpt lat="44.3211" lon="3.05737">
        <ele>669.9</ele>
        <time>2021-08-16T15:07:18Z</time>
      </trkpt>
      <trkpt lat="44.3211" lon="3.05743">
        <ele>669.9</ele>
        <time>2021-08-16T15:07:20Z</time>
      </trkpt>
      <trkpt lat="44.3211" lon="3.05748">
        <ele>670</ele>
        <time>2021-08-16T15:07:22Z</time>
      </trkpt>
      <trkpt lat="44.32108" lon="3.05753">
        <ele>670.1</ele>
        <time>2021-08-16T15:07:24Z</time>
      </trkpt>
      <trkpt lat="44.32105" lon="3.05757">
        <ele>670.3</ele>
        <time>2021-08-16T15:07:26Z</time>
      </trkpt>
      <trkpt lat="44.32102" lon="3.05762">
        <ele>670.5</ele>
        <time>2021-08-16T15:07:28Z</time>
      </trkpt>
      <trkpt lat="44.32099" lon="3.05766">
        <ele>670.6</ele>
        <time>2021-08-16T15:07:30Z</time>
      </trkpt>
      <trkpt lat="44.32095" lon="3.05769">
        <ele>670.7</ele>
        <time>2021-08-16T15:07:32Z</time>
      </trkpt>
      <trkpt lat="44.32091" lon="3.05771">
        <ele>670.8</ele>
        <time>2021-08-16T15:07:34Z</time>
      </trkpt>
      <trkpt lat="44.32087" lon="3.05773">
        <ele>670.9</ele>
        <time>2021-08-16T15:07:36Z</time>
      </trkpt>
      <trkpt lat="44.32084" lon="3.05776">
        <ele>670.9</ele>
        <time>2021-08-16T15:07:38Z</time>
      </trkpt>
      <trkpt lat="44.3208" lon="3.05778">
        <ele>671</ele>
        <time>2021-08-16T15:07:40Z</time>
      </trkpt>
      <trkpt lat="44.32077" lon="3.05781">
        <ele>671</ele>
        <time>2021-08-16T15:07:42Z</time>
      </trkpt>
      <trkpt lat="44.32074" lon="3.05784">
        <ele>671</ele>
        <time>2021-08-16T15:07:44Z</time>
      </trkpt>
      <trkpt lat="44.3207" lon="3.05786">
        <ele>671.1</ele>
        <time>2021-08-16T15:07:46Z</time>
      </trkpt>
      <trkpt lat="44.32068" lon="3.0579">
        <ele>671.2</ele>
        <time>2021-08-16T15:07:48Z</time>
      </trkpt>
      <trkpt lat="44.32066" lon="3.05793">
        <ele>671.2</ele>
        <time>2021-08-16T15:07:50Z</time>
      </trkpt>
      <trkpt lat="44.32064" lon="3.05798">
        <ele>671.4</ele>
        <time>2021-08-16T15:07:52Z</time>
      </trkpt>
      <trkpt lat="44.32064" lon="3.05804">
        <ele>671.6</ele>
        <time>2021-08-16T15:07:54Z</time>
      </trkpt>
      <trkpt lat="44.32064" lon="3.05808">
        <ele>671.7</ele>
        <time>2021-08-16T15:07:56Z</time>
      </trkpt>
      <trkpt lat="44.32066" lon="3.05811">
        <ele>671.8</ele>
        <time>2021-08-16T15:07:58Z</time>
      </trkpt>
      <trkpt lat="44.32067" lon="3.05815">
        <ele>672</ele>
        <time>2021-08-16T15:08:00Z</time>
      </trkpt>
      <trkpt lat="44.32067" lon="3.0582">
        <ele>672.1</ele>
        <time>2021-08-16T15:08:02Z</time>
      </trkpt>
      <trkpt lat="44.32068" lon="3.05824">
        <ele>672.3</ele>
        <time>2021-08-16T15:08:04Z</time>
      </trkpt>
      <trkpt lat="44.32067" lon="3.05828">
        <ele>672.5</ele>
        <time>2021-08-16T15:08:06Z</time>
      </trkpt>
      <trkpt lat="44.32068" lon="3.05832">
        <ele>672.6</ele>
        <time>2021-08-16T15:08:08Z</time>
      </trkpt>
      <trkpt lat="44.32068" lon="3.05835">
        <ele>672.8</ele>
        <time>2021-08-16T15:08:10Z</time>
      </trkpt>
      <trkpt lat="44.32068" lon="3.05839">
        <ele>673.2</ele>
        <time>2021-08-16T15:08:12Z</time>
      </trkpt>
      <trkpt lat="44.32068" lon="3.05843">
        <ele>673.6</ele>
        <time>2021-08-16T15:08:14Z</time>
      </trkpt>
      <trkpt lat="44.32067" lon="3.05845">
        <ele>673.8</ele>
        <time>2021-08-16T15:08:16Z</time>
      </trkpt>
      <trkpt lat="44.32067" lon="3.05845">
        <ele>673.8</ele>
        <time>2021-08-16T15:08:18Z</time>
      </trkpt>
      <trkpt lat="44.32068" lon="3.05845">
        <ele>673.8</ele>
        <time>2021-08-16T15:08:20Z</time>
      </trkpt>
      <trkpt lat="44.32068" lon="3.05845">
        <ele>673.8</ele>
        <time>2021-08-16T15:08:22Z</time>
      </trkpt>
      <trkpt lat="44.32068" lon="3.05846">
        <ele>673.8</ele>
        <time>2021-08-16T15:08:24Z</time>
      </trkpt>
      <trkpt lat="44.32055" lon="3.05865">
        <ele>675.2</ele>
        <time>2021-08-16T15:09:38Z</time>
      </trkpt>
      <trkpt lat="44.32047" lon="3.05872">
        <ele>675.3</ele>
        <time>2021-08-16T15:09:40Z</time>
      </trkpt>
      <trkpt lat="44.3204" lon="3.05881">
        <ele>675.6</ele>
        <time>2021-08-16T15:09:42Z</time>
      </trkpt>
      <trkpt lat="44.32032" lon="3.05888">
        <ele>675.6</ele>
        <time>2021-08-16T15:09:44Z</time>
      </trkpt>
      <trkpt lat="44.32024" lon="3.05895">
        <ele>675.6</ele>
        <time>2021-08-16T15:09:46Z</time>
      </trkpt>
      <trkpt lat="44.32018" lon="3.05903">
        <ele>675.7</ele>
        <time>2021-08-16T15:09:48Z</time>
      </trkpt>
      <trkpt lat="44.32011" lon="3.05909">
        <ele>675.5</ele>
        <time>2021-08-16T15:09:50Z</time>
      </trkpt>
      <trkpt lat="44.32006" lon="3.05917">
        <ele>675.5</ele>
        <time>2021-08-16T15:09:52Z</time>
      </trkpt>
      <trkpt lat="44.32001" lon="3.05924">
        <ele>675.7</ele>
        <time>2021-08-16T15:09:54Z</time>
      </trkpt>
      <trkpt lat="44.31994" lon="3.05931">
        <ele>676</ele>
        <time>2021-08-16T15:09:56Z</time>
      </trkpt>
      <trkpt lat="44.31989" lon="3.05939">
        <ele>676.4</ele>
        <time>2021-08-16T15:09:58Z</time>
      </trkpt>
      <trkpt lat="44.31983" lon="3.05946">
        <ele>676.6</ele>
        <time>2021-08-16T15:10:00Z</time>
      </trkpt>
      <trkpt lat="44.31979" lon="3.05954">
        <ele>676.8</ele>
        <time>2021-08-16T15:10:02Z</time>
      </trkpt>
      <trkpt lat="44.31973" lon="3.05961">
        <ele>676.9</ele>
        <time>2021-08-16T15:10:04Z</time>
      </trkpt>
      <trkpt lat="44.31968" lon="3.05967">
        <ele>677</ele>
        <time>2021-08-16T15:10:06Z</time>
      </trkpt>
      <trkpt lat="44.31963" lon="3.05975">
        <ele>677.2</ele>
        <time>2021-08-16T15:10:08Z</time>
      </trkpt>
      <trkpt lat="44.31958" lon="3.05983">
        <ele>677.3</ele>
        <time>2021-08-16T15:10:10Z</time>
      </trkpt>
      <trkpt lat="44.31953" lon="3.05991">
        <ele>677.4</ele>
        <time>2021-08-16T15:10:12Z</time>
      </trkpt>
      <trkpt lat="44.31946" lon="3.05998">
        <ele>677.1</ele>
        <time>2021-08-16T15:10:14Z</time>
      </trkpt>
      <trkpt lat="44.31935" lon="3.06002">
        <ele>676.2</ele>
        <time>2021-08-16T15:10:16Z</time>
      </trkpt>
      <trkpt lat="44.31925" lon="3.06003">
        <ele>675.3</ele>
        <time>2021-08-16T15:10:18Z</time>
      </trkpt>
      <trkpt lat="44.31915" lon="3.06008">
        <ele>675</ele>
        <time>2021-08-16T15:10:20Z</time>
      </trkpt>
      <trkpt lat="44.31905" lon="3.06014">
        <ele>675.4</ele>
        <time>2021-08-16T15:10:22Z</time>
      </trkpt>
      <trkpt lat="44.31896" lon="3.06022">
        <ele>675.9</ele>
        <time>2021-08-16T15:10:24Z</time>
      </trkpt>
      <trkpt lat="44.31887" lon="3.0603">
        <ele>676.4</ele>
        <time>2021-08-16T15:10:26Z</time>
      </trkpt>
      <trkpt lat="44.3188" lon="3.06038">
        <ele>676.7</ele>
        <time>2021-08-16T15:10:28Z</time>
      </trkpt>
      <trkpt lat="44.31873" lon="3.06047">
        <ele>677.1</ele>
        <time>2021-08-16T15:10:30Z</time>
      </trkpt>
      <trkpt lat="44.31866" lon="3.06056">
        <ele>677.3</ele>
        <time>2021-08-16T15:10:32Z</time>
      </trkpt>
      <trkpt lat="44.31857" lon="3.06064">
        <ele>677.2</ele>
        <time>2021-08-16T15:10:34Z</time>
      </trkpt>
      <trkpt lat="44.31848" lon="3.06069">
        <ele>676.7</ele>
        <time>2021-08-16T15:10:36Z</time>
      </trkpt>
      <trkpt lat="44.3184" lon="3.06075">
        <ele>676.2</ele>
        <time>2021-08-16T15:10:38Z</time>
      </trkpt>
      <trkpt lat="44.31832" lon="3.06082">
        <ele>675.9</ele>
        <time>2021-08-16T15:10:40Z</time>
      </trkpt>
      <trkpt lat="44.31825" lon="3.06091">
        <ele>676.2</ele>
        <time>2021-08-16T15:10:42Z</time>
      </trkpt>
      <trkpt lat="44.31818" lon="3.06101">
        <ele>676.6</ele>
        <time>2021-08-16T15:10:44Z</time>
      </trkpt>
      <trkpt lat="44.31811" lon="3.0611">
        <ele>676.7</ele>
        <time>2021-08-16T15:10:46Z</time>
      </trkpt>
      <trkpt lat="44.31803" lon="3.06118">
        <ele>676.8</ele>
        <time>2021-08-16T15:10:48Z</time>
      </trkpt>
      <trkpt lat="44.31796" lon="3.06126">
        <ele>676.7</ele>
        <time>2021-08-16T15:10:50Z</time>
      </trkpt>
      <trkpt lat="44.3179" lon="3.06133">
        <ele>676.7</ele>
        <time>2021-08-16T15:10:52Z</time>
      </trkpt>
      <trkpt lat="44.31785" lon="3.06141">
        <ele>676.7</ele>
        <time>2021-08-16T15:10:54Z</time>
      </trkpt>
      <trkpt lat="44.3178" lon="3.06149">
        <ele>676.7</ele>
        <time>2021-08-16T15:10:56Z</time>
      </trkpt>
      <trkpt lat="44.31774" lon="3.06156">
        <ele>676.5</ele>
        <time>2021-08-16T15:10:58Z</time>
      </trkpt>
      <trkpt lat="44.31769" lon="3.06166">
        <ele>676.4</ele>
        <time>2021-08-16T15:11:00Z</time>
      </trkpt>
      <trkpt lat="44.31767" lon="3.06177">
        <ele>676.6</ele>
        <time>2021-08-16T15:11:02Z</time>
      </trkpt>
      <trkpt lat="44.31764" lon="3.06187">
        <ele>676.7</ele>
        <time>2021-08-16T15:11:04Z</time>
      </trkpt>
      <trkpt lat="44.3176" lon="3.06197">
        <ele>676.8</ele>
        <time>2021-08-16T15:11:06Z</time>
      </trkpt>
      <trkpt lat="44.31755" lon="3.06205">
        <ele>676.8</ele>
        <time>2021-08-16T15:11:08Z</time>
      </trkpt>
      <trkpt lat="44.3175" lon="3.06214">
        <ele>676.7</ele>
        <time>2021-08-16T15:11:10Z</time>
      </trkpt>
      <trkpt lat="44.31745" lon="3.06224">
        <ele>677.1</ele>
        <time>2021-08-16T15:11:12Z</time>
      </trkpt>
      <trkpt lat="44.3174" lon="3.06232">
        <ele>677.4</ele>
        <time>2021-08-16T15:11:14Z</time>
      </trkpt>
      <trkpt lat="44.31734" lon="3.06241">
        <ele>677.7</ele>
        <time>2021-08-16T15:11:16Z</time>
      </trkpt>
      <trkpt lat="44.31728" lon="3.06249">
        <ele>678</ele>
        <time>2021-08-16T15:11:18Z</time>
      </trkpt>
      <trkpt lat="44.31724" lon="3.06259">
        <ele>678</ele>
        <time>2021-08-16T15:11:20Z</time>
      </trkpt>
      <trkpt lat="44.31721" lon="3.0627">
        <ele>678.1</ele>
        <time>2021-08-16T15:11:22Z</time>
      </trkpt>
      <trkpt lat="44.31718" lon="3.06278">
        <ele>678.1</ele>
        <time>2021-08-16T15:11:24Z</time>
      </trkpt>
      <trkpt lat="44.31717" lon="3.06286">
        <ele>678.1</ele>
        <time>2021-08-16T15:11:26Z</time>
      </trkpt>
      <trkpt lat="44.31719" lon="3.06295">
        <ele>678.1</ele>
        <time>2021-08-16T15:11:28Z</time>
      </trkpt>
      <trkpt lat="44.31721" lon="3.06301">
        <ele>678.2</ele>
        <time>2021-08-16T15:11:30Z</time>
      </trkpt>
      <trkpt lat="44.31722" lon="3.06306">
        <ele>678.2</ele>
        <time>2021-08-16T15:11:32Z</time>
      </trkpt>
      <trkpt lat="44.31725" lon="3.06312">
        <ele>678.3</ele>
        <time>2021-08-16T15:11:34Z</time>
      </trkpt>
      <trkpt lat="44.31726" lon="3.06319">
        <ele>678.4</ele>
        <time>2021-08-16T15:11:36Z</time>
      </trkpt>
      <trkpt lat="44.31728" lon="3.06329">
        <ele>678.4</ele>
        <time>2021-08-16T15:11:38Z</time>
      </trkpt>
      <trkpt lat="44.3173" lon="3.06336">
        <ele>678.6</ele>
        <time>2021-08-16T15:11:40Z</time>
      </trkpt>
      <trkpt lat="44.31731" lon="3.06342">
        <ele>678.7</ele>
        <time>2021-08-16T15:11:42Z</time>
      </trkpt>
      <trkpt lat="44.31732" lon="3.06348">
        <ele>678.8</ele>
        <time>2021-08-16T15:11:44Z</time>
      </trkpt>
      <trkpt lat="44.31731" lon="3.06352">
        <ele>678.9</ele>
        <time>2021-08-16T15:11:46Z</time>
      </trkpt>
      <trkpt lat="44.31732" lon="3.06356">
        <ele>678.9</ele>
        <time>2021-08-16T15:11:48Z</time>
      </trkpt>
      <trkpt lat="44.31732" lon="3.06359">
        <ele>679</ele>
        <time>2021-08-16T15:11:50Z</time>
      </trkpt>
      <trkpt lat="44.31732" lon="3.06362">
        <ele>679</ele>
        <time>2021-08-16T15:11:52Z</time>
      </trkpt>
      <trkpt lat="44.31733" lon="3.06365">
        <ele>679.1</ele>
        <time>2021-08-16T15:11:54Z</time>
      </trkpt>
      <trkpt lat="44.31734" lon="3.06369">
        <ele>679.2</ele>
        <time>2021-08-16T15:11:56Z</time>
      </trkpt>
      <trkpt lat="44.31735" lon="3.06373">
        <ele>679.3</ele>
        <time>2021-08-16T15:11:58Z</time>
      </trkpt>
      <trkpt lat="44.31735" lon="3.06377">
        <ele>679.4</ele>
        <time>2021-08-16T15:12:00Z</time>
      </trkpt>
      <trkpt lat="44.31736" lon="3.0638">
        <ele>679.5</ele>
        <time>2021-08-16T15:12:02Z</time>
      </trkpt>
      <trkpt lat="44.31737" lon="3.06383">
        <ele>679.6</ele>
        <time>2021-08-16T15:12:04Z</time>
      </trkpt>
      <trkpt lat="44.31738" lon="3.06387">
        <ele>679.7</ele>
        <time>2021-08-16T15:12:06Z</time>
      </trkpt>
      <trkpt lat="44.3174" lon="3.06393">
        <ele>679.9</ele>
        <time>2021-08-16T15:12:08Z</time>
      </trkpt>
      <trkpt lat="44.31742" lon="3.06398">
        <ele>680.1</ele>
        <time>2021-08-16T15:12:10Z</time>
      </trkpt>
      <trkpt lat="44.31744" lon="3.06403">
        <ele>680.3</ele>
        <time>2021-08-16T15:12:12Z</time>
      </trkpt>
      <trkpt lat="44.31745" lon="3.06409">
        <ele>680.5</ele>
        <time>2021-08-16T15:12:14Z</time>
      </trkpt>
      <trkpt lat="44.31746" lon="3.06415">
        <ele>680.7</ele>
        <time>2021-08-16T15:12:16Z</time>
      </trkpt>
      <trkpt lat="44.31747" lon="3.06422">
        <ele>680.9</ele>
        <time>2021-08-16T15:12:18Z</time>
      </trkpt>
      <trkpt lat="44.31748" lon="3.06429">
        <ele>681</ele>
        <time>2021-08-16T15:12:20Z</time>
      </trkpt>
      <trkpt lat="44.31749" lon="3.06436">
        <ele>681.2</ele>
        <time>2021-08-16T15:12:22Z</time>
      </trkpt>
      <trkpt lat="44.3175" lon="3.06443">
        <ele>681.3</ele>
        <time>2021-08-16T15:12:24Z</time>
      </trkpt>
      <trkpt lat="44.31752" lon="3.06451">
        <ele>681.5</ele>
        <time>2021-08-16T15:12:26Z</time>
      </trkpt>
      <trkpt lat="44.31753" lon="3.06459">
        <ele>681.6</ele>
        <time>2021-08-16T15:12:28Z</time>
      </trkpt>
      <trkpt lat="44.31755" lon="3.06467">
        <ele>681.8</ele>
        <time>2021-08-16T15:12:30Z</time>
      </trkpt>
      <trkpt lat="44.31756" lon="3.06475">
        <ele>682</ele>
        <time>2021-08-16T15:12:32Z</time>
      </trkpt>
      <trkpt lat="44.31757" lon="3.06483">
        <ele>682.1</ele>
        <time>2021-08-16T15:12:34Z</time>
      </trkpt>
      <trkpt lat="44.31758" lon="3.06492">
        <ele>682.3</ele>
        <time>2021-08-16T15:12:36Z</time>
      </trkpt>
      <trkpt lat="44.3176" lon="3.065">
        <ele>682.5</ele>
        <time>2021-08-16T15:12:38Z</time>
      </trkpt>
      <trkpt lat="44.31762" lon="3.06508">
        <ele>682.7</ele>
        <time>2021-08-16T15:12:40Z</time>
      </trkpt>
      <trkpt lat="44.31763" lon="3.06516">
        <ele>682.9</ele>
        <time>2021-08-16T15:12:42Z</time>
      </trkpt>
      <trkpt lat="44.31765" lon="3.06524">
        <ele>683.1</ele>
        <time>2021-08-16T15:12:44Z</time>
      </trkpt>
      <trkpt lat="44.31766" lon="3.06532">
        <ele>683.2</ele>
        <time>2021-08-16T15:12:46Z</time>
      </trkpt>
      <trkpt lat="44.31767" lon="3.0654">
        <ele>683.4</ele>
        <time>2021-08-16T15:12:48Z</time>
      </trkpt>
      <trkpt lat="44.31768" lon="3.06548">
        <ele>683.6</ele>
        <time>2021-08-16T15:12:50Z</time>
      </trkpt>
      <trkpt lat="44.31769" lon="3.06556">
        <ele>683.8</ele>
        <time>2021-08-16T15:12:52Z</time>
      </trkpt>
      <trkpt lat="44.31771" lon="3.06564">
        <ele>683.9</ele>
        <time>2021-08-16T15:12:54Z</time>
      </trkpt>
      <trkpt lat="44.31772" lon="3.06572">
        <ele>684.1</ele>
        <time>2021-08-16T15:12:56Z</time>
      </trkpt>
      <trkpt lat="44.31773" lon="3.06579">
        <ele>684.3</ele>
        <time>2021-08-16T15:12:58Z</time>
      </trkpt>
      <trkpt lat="44.31775" lon="3.06587">
        <ele>684.6</ele>
        <time>2021-08-16T15:13:00Z</time>
      </trkpt>
      <trkpt lat="44.31776" lon="3.06595">
        <ele>684.8</ele>
        <time>2021-08-16T15:13:02Z</time>
      </trkpt>
      <trkpt lat="44.31778" lon="3.06602">
        <ele>685.1</ele>
        <time>2021-08-16T15:13:04Z</time>
      </trkpt>
      <trkpt lat="44.3178" lon="3.0661">
        <ele>685.3</ele>
        <time>2021-08-16T15:13:06Z</time>
      </trkpt>
      <trkpt lat="44.31782" lon="3.06618">
        <ele>685.6</ele>
        <time>2021-08-16T15:13:08Z</time>
      </trkpt>
      <trkpt lat="44.31783" lon="3.06625">
        <ele>685.9</ele>
        <time>2021-08-16T15:13:10Z</time>
      </trkpt>
      <trkpt lat="44.31785" lon="3.06632">
        <ele>686.2</ele>
        <time>2021-08-16T15:13:12Z</time>
      </trkpt>
      <trkpt lat="44.31786" lon="3.06639">
        <ele>686.5</ele>
        <time>2021-08-16T15:13:14Z</time>
      </trkpt>
      <trkpt lat="44.31789" lon="3.06646">
        <ele>686.8</ele>
        <time>2021-08-16T15:13:16Z</time>
      </trkpt>
      <trkpt lat="44.3179" lon="3.06653">
        <ele>687</ele>
        <time>2021-08-16T15:13:18Z</time>
      </trkpt>
      <trkpt lat="44.31792" lon="3.06659">
        <ele>687.3</ele>
        <time>2021-08-16T15:13:20Z</time>
      </trkpt>
      <trkpt lat="44.31794" lon="3.06666">
        <ele>687.7</ele>
        <time>2021-08-16T15:13:22Z</time>
      </trkpt>
      <trkpt lat="44.31796" lon="3.06673">
        <ele>687.9</ele>
        <time>2021-08-16T15:13:24Z</time>
      </trkpt>
      <trkpt lat="44.31798" lon="3.06678">
        <ele>688.1</ele>
        <time>2021-08-16T15:13:26Z</time>
      </trkpt>
      <trkpt lat="44.318" lon="3.06684">
        <ele>688.4</ele>
        <time>2021-08-16T15:13:28Z</time>
      </trkpt>
      <trkpt lat="44.31802" lon="3.06688">
        <ele>688.6</ele>
        <time>2021-08-16T15:13:30Z</time>
      </trkpt>
      <trkpt lat="44.31804" lon="3.06694">
        <ele>688.8</ele>
        <time>2021-08-16T15:13:32Z</time>
      </trkpt>
      <trkpt lat="44.31807" lon="3.067">
        <ele>689</ele>
        <time>2021-08-16T15:13:34Z</time>
      </trkpt>
      <trkpt lat="44.31809" lon="3.06705">
        <ele>689.3</ele>
        <time>2021-08-16T15:13:36Z</time>
      </trkpt>
      <trkpt lat="44.31811" lon="3.0671">
        <ele>689.5</ele>
        <time>2021-08-16T15:13:38Z</time>
      </trkpt>
      <trkpt lat="44.31813" lon="3.06716">
        <ele>689.7</ele>
        <time>2021-08-16T15:13:40Z</time>
      </trkpt>
      <trkpt lat="44.31814" lon="3.06722">
        <ele>689.9</ele>
        <time>2021-08-16T15:13:42Z</time>
      </trkpt>
      <trkpt lat="44.31815" lon="3.06726">
        <ele>690</ele>
        <time>2021-08-16T15:13:44Z</time>
      </trkpt>
      <trkpt lat="44.31816" lon="3.06732">
        <ele>690.2</ele>
        <time>2021-08-16T15:13:46Z</time>
      </trkpt>
      <trkpt lat="44.31817" lon="3.06738">
        <ele>690.3</ele>
        <time>2021-08-16T15:13:48Z</time>
      </trkpt>
      <trkpt lat="44.31817" lon="3.06744">
        <ele>690.4</ele>
        <time>2021-08-16T15:13:50Z</time>
      </trkpt>
      <trkpt lat="44.31818" lon="3.0675">
        <ele>690.6</ele>
        <time>2021-08-16T15:13:52Z</time>
      </trkpt>
      <trkpt lat="44.31819" lon="3.06757">
        <ele>690.6</ele>
        <time>2021-08-16T15:13:54Z</time>
      </trkpt>
      <trkpt lat="44.3182" lon="3.06763">
        <ele>690.6</ele>
        <time>2021-08-16T15:13:56Z</time>
      </trkpt>
      <trkpt lat="44.31821" lon="3.06769">
        <ele>690.6</ele>
        <time>2021-08-16T15:13:58Z</time>
      </trkpt>
      <trkpt lat="44.31822" lon="3.06775">
        <ele>690.6</ele>
        <time>2021-08-16T15:14:00Z</time>
      </trkpt>
      <trkpt lat="44.31823" lon="3.06782">
        <ele>690.7</ele>
        <time>2021-08-16T15:14:02Z</time>
      </trkpt>
      <trkpt lat="44.31825" lon="3.06787">
        <ele>690.8</ele>
        <time>2021-08-16T15:14:04Z</time>
      </trkpt>
      <trkpt lat="44.31824" lon="3.06794">
        <ele>690.7</ele>
        <time>2021-08-16T15:14:06Z</time>
      </trkpt>
      <trkpt lat="44.31825" lon="3.068">
        <ele>690.7</ele>
        <time>2021-08-16T15:14:08Z</time>
      </trkpt>
      <trkpt lat="44.31827" lon="3.06807">
        <ele>690.7</ele>
        <time>2021-08-16T15:14:10Z</time>
      </trkpt>
      <trkpt lat="44.31827" lon="3.06813">
        <ele>690.7</ele>
        <time>2021-08-16T15:14:12Z</time>
      </trkpt>
      <trkpt lat="44.31829" lon="3.0682">
        <ele>690.8</ele>
        <time>2021-08-16T15:14:14Z</time>
      </trkpt>
      <trkpt lat="44.3183" lon="3.06826">
        <ele>690.8</ele>
        <time>2021-08-16T15:14:16Z</time>
      </trkpt>
      <trkpt lat="44.31831" lon="3.06833">
        <ele>690.8</ele>
        <time>2021-08-16T15:14:18Z</time>
      </trkpt>
      <trkpt lat="44.31832" lon="3.0684">
        <ele>691.2</ele>
        <time>2021-08-16T15:14:20Z</time>
      </trkpt>
      <trkpt lat="44.31834" lon="3.06847">
        <ele>691.7</ele>
        <time>2021-08-16T15:14:22Z</time>
      </trkpt>
      <trkpt lat="44.31835" lon="3.06855">
        <ele>692.2</ele>
        <time>2021-08-16T15:14:24Z</time>
      </trkpt>
      <trkpt lat="44.31836" lon="3.06862">
        <ele>692.8</ele>
        <time>2021-08-16T15:14:26Z</time>
      </trkpt>
      <trkpt lat="44.31838" lon="3.06869">
        <ele>693.3</ele>
        <time>2021-08-16T15:14:28Z</time>
      </trkpt>
      <trkpt lat="44.31838" lon="3.06876">
        <ele>693.8</ele>
        <time>2021-08-16T15:14:30Z</time>
      </trkpt>
      <trkpt lat="44.31839" lon="3.06882">
        <ele>694.2</ele>
        <time>2021-08-16T15:14:32Z</time>
      </trkpt>
      <trkpt lat="44.3184" lon="3.06889">
        <ele>694.7</ele>
        <time>2021-08-16T15:14:34Z</time>
      </trkpt>
      <trkpt lat="44.31841" lon="3.06895">
        <ele>695</ele>
        <time>2021-08-16T15:14:36Z</time>
      </trkpt>
      <trkpt lat="44.31842" lon="3.069">
        <ele>695.4</ele>
        <time>2021-08-16T15:14:38Z</time>
      </trkpt>
      <trkpt lat="44.31843" lon="3.06906">
        <ele>695.8</ele>
        <time>2021-08-16T15:14:40Z</time>
      </trkpt>
      <trkpt lat="44.31844" lon="3.06911">
        <ele>696.1</ele>
        <time>2021-08-16T15:14:42Z</time>
      </trkpt>
      <trkpt lat="44.31845" lon="3.06913">
        <ele>696.3</ele>
        <time>2021-08-16T15:14:44Z</time>
      </trkpt>
      <trkpt lat="44.31844" lon="3.06913">
        <ele>696.3</ele>
        <time>2021-08-16T15:14:46Z</time>
      </trkpt>
      <trkpt lat="44.31845" lon="3.06913">
        <ele>696.3</ele>
        <time>2021-08-16T15:14:48Z</time>
      </trkpt>
      <trkpt lat="44.31845" lon="3.06913">
        <ele>696.4</ele>
        <time>2021-08-16T15:14:50Z</time>
      </trkpt>
      <trkpt lat="44.31845" lon="3.06913">
        <ele>696.3</ele>
        <time>2021-08-16T15:14:52Z</time>
      </trkpt>
      <trkpt lat="44.3185" lon="3.06931">
        <ele>697.6</ele>
        <time>2021-08-16T15:16:50Z</time>
      </trkpt>
      <trkpt lat="44.31852" lon="3.06936">
        <ele>698</ele>
        <time>2021-08-16T15:16:52Z</time>
      </trkpt>
      <trkpt lat="44.31854" lon="3.06942">
        <ele>698.4</ele>
        <time>2021-08-16T15:16:54Z</time>
      </trkpt>
      <trkpt lat="44.31856" lon="3.06947">
        <ele>698.8</ele>
        <time>2021-08-16T15:16:56Z</time>
      </trkpt>
      <trkpt lat="44.31859" lon="3.06952">
        <ele>699.2</ele>
        <time>2021-08-16T15:16:58Z</time>
      </trkpt>
      <trkpt lat="44.31862" lon="3.06957">
        <ele>699.7</ele>
        <time>2021-08-16T15:17:00Z</time>
      </trkpt>
      <trkpt lat="44.31864" lon="3.06962">
        <ele>700.1</ele>
        <time>2021-08-16T15:17:02Z</time>
      </trkpt>
      <trkpt lat="44.31867" lon="3.06966">
        <ele>700.5</ele>
        <time>2021-08-16T15:17:04Z</time>
      </trkpt>
      <trkpt lat="44.31869" lon="3.06971">
        <ele>700.9</ele>
        <time>2021-08-16T15:17:06Z</time>
      </trkpt>
      <trkpt lat="44.31872" lon="3.06976">
        <ele>701.2</ele>
        <time>2021-08-16T15:17:08Z</time>
      </trkpt>
      <trkpt lat="44.31874" lon="3.06981">
        <ele>701.5</ele>
        <time>2021-08-16T15:17:10Z</time>
      </trkpt>
      <trkpt lat="44.31877" lon="3.06986">
        <ele>701.9</ele>
        <time>2021-08-16T15:17:12Z</time>
      </trkpt>
      <trkpt lat="44.31879" lon="3.0699">
        <ele>702.3</ele>
        <time>2021-08-16T15:17:14Z</time>
      </trkpt>
      <trkpt lat="44.31882" lon="3.06994">
        <ele>702.6</ele>
        <time>2021-08-16T15:17:16Z</time>
      </trkpt>
      <trkpt lat="44.31884" lon="3.06998">
        <ele>702.8</ele>
        <time>2021-08-16T15:17:18Z</time>
      </trkpt>
      <trkpt lat="44.31887" lon="3.07002">
        <ele>703.1</ele>
        <time>2021-08-16T15:17:20Z</time>
      </trkpt>
      <trkpt lat="44.31889" lon="3.07005">
        <ele>703.4</ele>
        <time>2021-08-16T15:17:22Z</time>
      </trkpt>
      <trkpt lat="44.31892" lon="3.07009">
        <ele>703.7</ele>
        <time>2021-08-16T15:17:24Z</time>
      </trkpt>
      <trkpt lat="44.31894" lon="3.07013">
        <ele>703.9</ele>
        <time>2021-08-16T15:17:26Z</time>
      </trkpt>
      <trkpt lat="44.31896" lon="3.07017">
        <ele>704.1</ele>
        <time>2021-08-16T15:17:28Z</time>
      </trkpt>
      <trkpt lat="44.31898" lon="3.07022">
        <ele>704.2</ele>
        <time>2021-08-16T15:17:30Z</time>
      </trkpt>
      <trkpt lat="44.31899" lon="3.07027">
        <ele>704.4</ele>
        <time>2021-08-16T15:17:32Z</time>
      </trkpt>
      <trkpt lat="44.31901" lon="3.07032">
        <ele>704.5</ele>
        <time>2021-08-16T15:17:34Z</time>
      </trkpt>
      <trkpt lat="44.31902" lon="3.07037">
        <ele>704.5</ele>
        <time>2021-08-16T15:17:36Z</time>
      </trkpt>
      <trkpt lat="44.31903" lon="3.07042">
        <ele>704.6</ele>
        <time>2021-08-16T15:17:38Z</time>
      </trkpt>
      <trkpt lat="44.31904" lon="3.07046">
        <ele>704.6</ele>
        <time>2021-08-16T15:17:40Z</time>
      </trkpt>
      <trkpt lat="44.31905" lon="3.07052">
        <ele>704.7</ele>
        <time>2021-08-16T15:17:42Z</time>
      </trkpt>
      <trkpt lat="44.31907" lon="3.07057">
        <ele>704.8</ele>
        <time>2021-08-16T15:17:44Z</time>
      </trkpt>
      <trkpt lat="44.3191" lon="3.07061">
        <ele>704.9</ele>
        <time>2021-08-16T15:17:46Z</time>
      </trkpt>
      <trkpt lat="44.31913" lon="3.07066">
        <ele>705</ele>
        <time>2021-08-16T15:17:48Z</time>
      </trkpt>
      <trkpt lat="44.31916" lon="3.07071">
        <ele>705.1</ele>
        <time>2021-08-16T15:17:50Z</time>
      </trkpt>
      <trkpt lat="44.31919" lon="3.07076">
        <ele>705.4</ele>
        <time>2021-08-16T15:17:52Z</time>
      </trkpt>
      <trkpt lat="44.31922" lon="3.0708">
        <ele>705.6</ele>
        <time>2021-08-16T15:17:54Z</time>
      </trkpt>
      <trkpt lat="44.31924" lon="3.07085">
        <ele>705.9</ele>
        <time>2021-08-16T15:17:56Z</time>
      </trkpt>
      <trkpt lat="44.31926" lon="3.0709">
        <ele>706.4</ele>
        <time>2021-08-16T15:17:58Z</time>
      </trkpt>
      <trkpt lat="44.31929" lon="3.07095">
        <ele>706.9</ele>
        <time>2021-08-16T15:18:00Z</time>
      </trkpt>
      <trkpt lat="44.31931" lon="3.071">
        <ele>707.3</ele>
        <time>2021-08-16T15:18:02Z</time>
      </trkpt>
      <trkpt lat="44.31934" lon="3.07104">
        <ele>707.7</ele>
        <time>2021-08-16T15:18:04Z</time>
      </trkpt>
      <trkpt lat="44.31936" lon="3.07109">
        <ele>708.1</ele>
        <time>2021-08-16T15:18:06Z</time>
      </trkpt>
      <trkpt lat="44.31938" lon="3.07113">
        <ele>708.5</ele>
        <time>2021-08-16T15:18:08Z</time>
      </trkpt>
      <trkpt lat="44.31941" lon="3.07117">
        <ele>708.8</ele>
        <time>2021-08-16T15:18:10Z</time>
      </trkpt>
      <trkpt lat="44.31943" lon="3.07122">
        <ele>709.1</ele>
        <time>2021-08-16T15:18:12Z</time>
      </trkpt>
      <trkpt lat="44.31945" lon="3.07126">
        <ele>709.4</ele>
        <time>2021-08-16T15:18:14Z</time>
      </trkpt>
      <trkpt lat="44.31947" lon="3.07131">
        <ele>709.7</ele>
        <time>2021-08-16T15:18:16Z</time>
      </trkpt>
      <trkpt lat="44.31949" lon="3.07135">
        <ele>709.9</ele>
        <time>2021-08-16T15:18:18Z</time>
      </trkpt>
      <trkpt lat="44.31951" lon="3.0714">
        <ele>710.1</ele>
        <time>2021-08-16T15:18:20Z</time>
      </trkpt>
      <trkpt lat="44.31953" lon="3.07144">
        <ele>710.3</ele>
        <time>2021-08-16T15:18:22Z</time>
      </trkpt>
      <trkpt lat="44.31955" lon="3.07149">
        <ele>710.5</ele>
        <time>2021-08-16T15:18:24Z</time>
      </trkpt>
      <trkpt lat="44.31956" lon="3.07154">
        <ele>710.7</ele>
        <time>2021-08-16T15:18:26Z</time>
      </trkpt>
      <trkpt lat="44.31958" lon="3.07159">
        <ele>710.8</ele>
        <time>2021-08-16T15:18:28Z</time>
      </trkpt>
      <trkpt lat="44.31959" lon="3.07163">
        <ele>711</ele>
        <time>2021-08-16T15:18:30Z</time>
      </trkpt>
      <trkpt lat="44.31961" lon="3.07169">
        <ele>711.1</ele>
        <time>2021-08-16T15:18:32Z</time>
      </trkpt>
      <trkpt lat="44.31961" lon="3.07174">
        <ele>711.4</ele>
        <time>2021-08-16T15:18:34Z</time>
      </trkpt>
      <trkpt lat="44.31962" lon="3.07179">
        <ele>711.6</ele>
        <time>2021-08-16T15:18:36Z</time>
      </trkpt>
      <trkpt lat="44.31963" lon="3.07184">
        <ele>711.8</ele>
        <time>2021-08-16T15:18:38Z</time>
      </trkpt>
      <trkpt lat="44.31963" lon="3.07189">
        <ele>711.9</ele>
        <time>2021-08-16T15:18:40Z</time>
      </trkpt>
      <trkpt lat="44.31964" lon="3.07194">
        <ele>712.1</ele>
        <time>2021-08-16T15:18:42Z</time>
      </trkpt>
      <trkpt lat="44.31965" lon="3.07199">
        <ele>712.3</ele>
        <time>2021-08-16T15:18:44Z</time>
      </trkpt>
      <trkpt lat="44.31965" lon="3.07203">
        <ele>712.5</ele>
        <time>2021-08-16T15:18:46Z</time>
      </trkpt>
      <trkpt lat="44.31966" lon="3.07208">
        <ele>712.6</ele>
        <time>2021-08-16T15:18:48Z</time>
      </trkpt>
      <trkpt lat="44.31966" lon="3.07212">
        <ele>712.7</ele>
        <time>2021-08-16T15:18:50Z</time>
      </trkpt>
      <trkpt lat="44.31967" lon="3.07216">
        <ele>712.8</ele>
        <time>2021-08-16T15:18:52Z</time>
      </trkpt>
      <trkpt lat="44.31969" lon="3.07221">
        <ele>712.9</ele>
        <time>2021-08-16T15:18:54Z</time>
      </trkpt>
      <trkpt lat="44.31971" lon="3.07225">
        <ele>713</ele>
        <time>2021-08-16T15:18:56Z</time>
      </trkpt>
      <trkpt lat="44.31974" lon="3.07228">
        <ele>713</ele>
        <time>2021-08-16T15:18:58Z</time>
      </trkpt>
      <trkpt lat="44.31976" lon="3.07232">
        <ele>713</ele>
        <time>2021-08-16T15:19:00Z</time>
      </trkpt>
      <trkpt lat="44.31978" lon="3.07236">
        <ele>713</ele>
        <time>2021-08-16T15:19:02Z</time>
      </trkpt>
      <trkpt lat="44.31981" lon="3.07239">
        <ele>712.9</ele>
        <time>2021-08-16T15:19:04Z</time>
      </trkpt>
      <trkpt lat="44.31983" lon="3.07242">
        <ele>712.9</ele>
        <time>2021-08-16T15:19:06Z</time>
      </trkpt>
      <trkpt lat="44.31986" lon="3.07245">
        <ele>712.8</ele>
        <time>2021-08-16T15:19:08Z</time>
      </trkpt>
      <trkpt lat="44.31989" lon="3.07249">
        <ele>712.6</ele>
        <time>2021-08-16T15:19:10Z</time>
      </trkpt>
      <trkpt lat="44.31992" lon="3.07251">
        <ele>712.5</ele>
        <time>2021-08-16T15:19:12Z</time>
      </trkpt>
      <trkpt lat="44.31994" lon="3.07254">
        <ele>712.6</ele>
        <time>2021-08-16T15:19:14Z</time>
      </trkpt>
      <trkpt lat="44.31996" lon="3.07259">
        <ele>712.9</ele>
        <time>2021-08-16T15:19:16Z</time>
      </trkpt>
      <trkpt lat="44.31998" lon="3.07263">
        <ele>713</ele>
        <time>2021-08-16T15:19:18Z</time>
      </trkpt>
      <trkpt lat="44.32" lon="3.07267">
        <ele>713.2</ele>
        <time>2021-08-16T15:19:20Z</time>
      </trkpt>
      <trkpt lat="44.32001" lon="3.07271">
        <ele>713.7</ele>
        <time>2021-08-16T15:19:22Z</time>
      </trkpt>
      <trkpt lat="44.32002" lon="3.07276">
        <ele>714.1</ele>
        <time>2021-08-16T15:19:24Z</time>
      </trkpt>
      <trkpt lat="44.32003" lon="3.07281">
        <ele>714.6</ele>
        <time>2021-08-16T15:19:26Z</time>
      </trkpt>
      <trkpt lat="44.32003" lon="3.07286">
        <ele>714.9</ele>
        <time>2021-08-16T15:19:28Z</time>
      </trkpt>
      <trkpt lat="44.32003" lon="3.0729">
        <ele>715.3</ele>
        <time>2021-08-16T15:19:30Z</time>
      </trkpt>
      <trkpt lat="44.32003" lon="3.07295">
        <ele>715.6</ele>
        <time>2021-08-16T15:19:32Z</time>
      </trkpt>
      <trkpt lat="44.32003" lon="3.073">
        <ele>715.9</ele>
        <time>2021-08-16T15:19:34Z</time>
      </trkpt>
      <trkpt lat="44.32002" lon="3.07304">
        <ele>716.1</ele>
        <time>2021-08-16T15:19:36Z</time>
      </trkpt>
      <trkpt lat="44.32001" lon="3.07309">
        <ele>716.4</ele>
        <time>2021-08-16T15:19:38Z</time>
      </trkpt>
      <trkpt lat="44.32001" lon="3.07314">
        <ele>716.7</ele>
        <time>2021-08-16T15:19:40Z</time>
      </trkpt>
      <trkpt lat="44.32" lon="3.07319">
        <ele>717</ele>
        <time>2021-08-16T15:19:42Z</time>
      </trkpt>
      <trkpt lat="44.32" lon="3.07323">
        <ele>717.3</ele>
        <time>2021-08-16T15:19:44Z</time>
      </trkpt>
      <trkpt lat="44.32" lon="3.07328">
        <ele>717.7</ele>
        <time>2021-08-16T15:19:46Z</time>
      </trkpt>
      <trkpt lat="44.31999" lon="3.07333">
        <ele>718</ele>
        <time>2021-08-16T15:19:48Z</time>
      </trkpt>
      <trkpt lat="44.31999" lon="3.07338">
        <ele>718.4</ele>
        <time>2021-08-16T15:19:50Z</time>
      </trkpt>
      <trkpt lat="44.31999" lon="3.07343">
        <ele>718.7</ele>
        <time>2021-08-16T15:19:52Z</time>
      </trkpt>
      <trkpt lat="44.31999" lon="3.07348">
        <ele>719.1</ele>
        <time>2021-08-16T15:19:54Z</time>
      </trkpt>
      <trkpt lat="44.32001" lon="3.07352">
        <ele>719.5</ele>
        <time>2021-08-16T15:19:56Z</time>
      </trkpt>
      <trkpt lat="44.32003" lon="3.07356">
        <ele>719.9</ele>
        <time>2021-08-16T15:19:58Z</time>
      </trkpt>
      <trkpt lat="44.32005" lon="3.07359">
        <ele>720.3</ele>
        <time>2021-08-16T15:20:00Z</time>
      </trkpt>
      <trkpt lat="44.32008" lon="3.07362">
        <ele>720.7</ele>
        <time>2021-08-16T15:20:02Z</time>
      </trkpt>
      <trkpt lat="44.32011" lon="3.07363">
        <ele>721</ele>
        <time>2021-08-16T15:20:04Z</time>
      </trkpt>
      <trkpt lat="44.32014" lon="3.07364">
        <ele>721.4</ele>
        <time>2021-08-16T15:20:06Z</time>
      </trkpt>
      <trkpt lat="44.32017" lon="3.07366">
        <ele>721.7</ele>
        <time>2021-08-16T15:20:08Z</time>
      </trkpt>
      <trkpt lat="44.3202" lon="3.07366">
        <ele>721.9</ele>
        <time>2021-08-16T15:20:10Z</time>
      </trkpt>
      <trkpt lat="44.32023" lon="3.07366">
        <ele>722.1</ele>
        <time>2021-08-16T15:20:12Z</time>
      </trkpt>
      <trkpt lat="44.32026" lon="3.07367">
        <ele>722.4</ele>
        <time>2021-08-16T15:20:14Z</time>
      </trkpt>
      <trkpt lat="44.32029" lon="3.07367">
        <ele>722.7</ele>
        <time>2021-08-16T15:20:16Z</time>
      </trkpt>
      <trkpt lat="44.32032" lon="3.07367">
        <ele>722.9</ele>
        <time>2021-08-16T15:20:18Z</time>
      </trkpt>
      <trkpt lat="44.32035" lon="3.07368">
        <ele>723.2</ele>
        <time>2021-08-16T15:20:20Z</time>
      </trkpt>
      <trkpt lat="44.32039" lon="3.07369">
        <ele>723.5</ele>
        <time>2021-08-16T15:20:22Z</time>
      </trkpt>
      <trkpt lat="44.32042" lon="3.07369">
        <ele>723.7</ele>
        <time>2021-08-16T15:20:24Z</time>
      </trkpt>
      <trkpt lat="44.32045" lon="3.0737">
        <ele>724</ele>
        <time>2021-08-16T15:20:26Z</time>
      </trkpt>
      <trkpt lat="44.32048" lon="3.0737">
        <ele>724.2</ele>
        <time>2021-08-16T15:20:28Z</time>
      </trkpt>
      <trkpt lat="44.32051" lon="3.0737">
        <ele>724.5</ele>
        <time>2021-08-16T15:20:30Z</time>
      </trkpt>
      <trkpt lat="44.32054" lon="3.07371">
        <ele>724.7</ele>
        <time>2021-08-16T15:20:32Z</time>
      </trkpt>
      <trkpt lat="44.32057" lon="3.07372">
        <ele>725</ele>
        <time>2021-08-16T15:20:34Z</time>
      </trkpt>
      <trkpt lat="44.32059" lon="3.07374">
        <ele>725.2</ele>
        <time>2021-08-16T15:20:36Z</time>
      </trkpt>
      <trkpt lat="44.32062" lon="3.07375">
        <ele>725.4</ele>
        <time>2021-08-16T15:20:38Z</time>
      </trkpt>
      <trkpt lat="44.32064" lon="3.07376">
        <ele>725.6</ele>
        <time>2021-08-16T15:20:40Z</time>
      </trkpt>
      <trkpt lat="44.32066" lon="3.07376">
        <ele>725.8</ele>
        <time>2021-08-16T15:20:42Z</time>
      </trkpt>
      <trkpt lat="44.32068" lon="3.07375">
        <ele>725.9</ele>
        <time>2021-08-16T15:20:44Z</time>
      </trkpt>
      <trkpt lat="44.32071" lon="3.07372">
        <ele>726</ele>
        <time>2021-08-16T15:20:46Z</time>
      </trkpt>
      <trkpt lat="44.32073" lon="3.07369">
        <ele>726.1</ele>
        <time>2021-08-16T15:20:48Z</time>
      </trkpt>
      <trkpt lat="44.32076" lon="3.07365">
        <ele>726.2</ele>
        <time>2021-08-16T15:20:50Z</time>
      </trkpt>
      <trkpt lat="44.32078" lon="3.0736">
        <ele>726.2</ele>
        <time>2021-08-16T15:20:52Z</time>
      </trkpt>
      <trkpt lat="44.3208" lon="3.07354">
        <ele>726.2</ele>
        <time>2021-08-16T15:20:54Z</time>
      </trkpt>
      <trkpt lat="44.32082" lon="3.07347">
        <ele>726.3</ele>
        <time>2021-08-16T15:20:56Z</time>
      </trkpt>
      <trkpt lat="44.32085" lon="3.07341">
        <ele>726.3</ele>
        <time>2021-08-16T15:20:58Z</time>
      </trkpt>
      <trkpt lat="44.32086" lon="3.07333">
        <ele>726.2</ele>
        <time>2021-08-16T15:21:00Z</time>
      </trkpt>
      <trkpt lat="44.32088" lon="3.07326">
        <ele>726.1</ele>
        <time>2021-08-16T15:21:02Z</time>
      </trkpt>
      <trkpt lat="44.32091" lon="3.07318">
        <ele>726.1</ele>
        <time>2021-08-16T15:21:04Z</time>
      </trkpt>
      <trkpt lat="44.32093" lon="3.07311">
        <ele>726.1</ele>
        <time>2021-08-16T15:21:06Z</time>
      </trkpt>
      <trkpt lat="44.32095" lon="3.07303">
        <ele>726.1</ele>
        <time>2021-08-16T15:21:08Z</time>
      </trkpt>
      <trkpt lat="44.32098" lon="3.07295">
        <ele>726.2</ele>
        <time>2021-08-16T15:21:10Z</time>
      </trkpt>
      <trkpt lat="44.32101" lon="3.07287">
        <ele>726.4</ele>
        <time>2021-08-16T15:21:12Z</time>
      </trkpt>
      <trkpt lat="44.32103" lon="3.07279">
        <ele>726.5</ele>
        <time>2021-08-16T15:21:14Z</time>
      </trkpt>
      <trkpt lat="44.32104" lon="3.07271">
        <ele>726.6</ele>
        <time>2021-08-16T15:21:16Z</time>
      </trkpt>
      <trkpt lat="44.32106" lon="3.07263">
        <ele>726.7</ele>
        <time>2021-08-16T15:21:18Z</time>
      </trkpt>
      <trkpt lat="44.32106" lon="3.07255">
        <ele>726.5</ele>
        <time>2021-08-16T15:21:20Z</time>
      </trkpt>
      <trkpt lat="44.32106" lon="3.07247">
        <ele>726.6</ele>
        <time>2021-08-16T15:21:22Z</time>
      </trkpt>
      <trkpt lat="44.32106" lon="3.07239">
        <ele>726.8</ele>
        <time>2021-08-16T15:21:24Z</time>
      </trkpt>
      <trkpt lat="44.32105" lon="3.07231">
        <ele>726.8</ele>
        <time>2021-08-16T15:21:26Z</time>
      </trkpt>
      <trkpt lat="44.32104" lon="3.07223">
        <ele>726.9</ele>
        <time>2021-08-16T15:21:28Z</time>
      </trkpt>
      <trkpt lat="44.32103" lon="3.07215">
        <ele>726.8</ele>
        <time>2021-08-16T15:21:30Z</time>
      </trkpt>
      <trkpt lat="44.32103" lon="3.07208">
        <ele>727</ele>
        <time>2021-08-16T15:21:32Z</time>
      </trkpt>
      <trkpt lat="44.32104" lon="3.07202">
        <ele>727.3</ele>
        <time>2021-08-16T15:21:34Z</time>
      </trkpt>
      <trkpt lat="44.32104" lon="3.07196">
        <ele>727.4</ele>
        <time>2021-08-16T15:21:36Z</time>
      </trkpt>
      <trkpt lat="44.32104" lon="3.07191">
        <ele>727.5</ele>
        <time>2021-08-16T15:21:38Z</time>
      </trkpt>
      <trkpt lat="44.32105" lon="3.07187">
        <ele>727.8</ele>
        <time>2021-08-16T15:21:40Z</time>
      </trkpt>
      <trkpt lat="44.32106" lon="3.07182">
        <ele>728.1</ele>
        <time>2021-08-16T15:21:42Z</time>
      </trkpt>
      <trkpt lat="44.32107" lon="3.07178">
        <ele>728.4</ele>
        <time>2021-08-16T15:21:44Z</time>
      </trkpt>
      <trkpt lat="44.32109" lon="3.07173">
        <ele>728.7</ele>
        <time>2021-08-16T15:21:46Z</time>
      </trkpt>
      <trkpt lat="44.3211" lon="3.07169">
        <ele>729.2</ele>
        <time>2021-08-16T15:21:48Z</time>
      </trkpt>
      <trkpt lat="44.32112" lon="3.07164">
        <ele>729.7</ele>
        <time>2021-08-16T15:21:50Z</time>
      </trkpt>
      <trkpt lat="44.32113" lon="3.0716">
        <ele>730.2</ele>
        <time>2021-08-16T15:21:52Z</time>
      </trkpt>
      <trkpt lat="44.32115" lon="3.07156">
        <ele>730.8</ele>
        <time>2021-08-16T15:21:54Z</time>
      </trkpt>
      <trkpt lat="44.32119" lon="3.07154">
        <ele>731.7</ele>
        <time>2021-08-16T15:21:56Z</time>
      </trkpt>
      <trkpt lat="44.32123" lon="3.07157">
        <ele>732.2</ele>
        <time>2021-08-16T15:21:58Z</time>
      </trkpt>
      <trkpt lat="44.32125" lon="3.07161">
        <ele>732.4</ele>
        <time>2021-08-16T15:22:00Z</time>
      </trkpt>
      <trkpt lat="44.32128" lon="3.07163">
        <ele>732.8</ele>
        <time>2021-08-16T15:22:02Z</time>
      </trkpt>
      <trkpt lat="44.32131" lon="3.07165">
        <ele>733.3</ele>
        <time>2021-08-16T15:22:04Z</time>
      </trkpt>
      <trkpt lat="44.32135" lon="3.07166">
        <ele>733.9</ele>
        <time>2021-08-16T15:22:06Z</time>
      </trkpt>
      <trkpt lat="44.32138" lon="3.07169">
        <ele>734.4</ele>
        <time>2021-08-16T15:22:08Z</time>
      </trkpt>
      <trkpt lat="44.3214" lon="3.07172">
        <ele>734.8</ele>
        <time>2021-08-16T15:22:10Z</time>
      </trkpt>
      <trkpt lat="44.32143" lon="3.07173">
        <ele>735.3</ele>
        <time>2021-08-16T15:22:12Z</time>
      </trkpt>
      <trkpt lat="44.32146" lon="3.07176">
        <ele>735.7</ele>
        <time>2021-08-16T15:22:14Z</time>
      </trkpt>
      <trkpt lat="44.32149" lon="3.07177">
        <ele>736.3</ele>
        <time>2021-08-16T15:22:16Z</time>
      </trkpt>
      <trkpt lat="44.32153" lon="3.07179">
        <ele>736.9</ele>
        <time>2021-08-16T15:22:18Z</time>
      </trkpt>
      <trkpt lat="44.32155" lon="3.07179">
        <ele>737.2</ele>
        <time>2021-08-16T15:22:20Z</time>
      </trkpt>
      <trkpt lat="44.32157" lon="3.0718">
        <ele>737.7</ele>
        <time>2021-08-16T15:22:22Z</time>
      </trkpt>
      <trkpt lat="44.32159" lon="3.07179">
        <ele>738.1</ele>
        <time>2021-08-16T15:22:24Z</time>
      </trkpt>
      <trkpt lat="44.32161" lon="3.07178">
        <ele>738.4</ele>
        <time>2021-08-16T15:22:26Z</time>
      </trkpt>
      <trkpt lat="44.32163" lon="3.07177">
        <ele>738.7</ele>
        <time>2021-08-16T15:22:28Z</time>
      </trkpt>
      <trkpt lat="44.32165" lon="3.07177">
        <ele>739.1</ele>
        <time>2021-08-16T15:22:30Z</time>
      </trkpt>
      <trkpt lat="44.32166" lon="3.07176">
        <ele>739.4</ele>
        <time>2021-08-16T15:22:32Z</time>
      </trkpt>
      <trkpt lat="44.32165" lon="3.07174">
        <ele>739.4</ele>
        <time>2021-08-16T15:22:34Z</time>
      </trkpt>
      <trkpt lat="44.32165" lon="3.07175">
        <ele>739.4</ele>
        <time>2021-08-16T15:22:36Z</time>
      </trkpt>
      <trkpt lat="44.32164" lon="3.07171">
        <ele>739.3</ele>
        <time>2021-08-16T15:22:50Z</time>
      </trkpt>
      <trkpt lat="44.32162" lon="3.07171">
        <ele>739</ele>
        <time>2021-08-16T15:22:52Z</time>
      </trkpt>
      <trkpt lat="44.3216" lon="3.0717">
        <ele>738.5</ele>
        <time>2021-08-16T15:22:54Z</time>
      </trkpt>
      <trkpt lat="44.32156" lon="3.07167">
        <ele>737.9</ele>
        <time>2021-08-16T15:22:56Z</time>
      </trkpt>
      <trkpt lat="44.32153" lon="3.07163">
        <ele>737.6</ele>
        <time>2021-08-16T15:22:58Z</time>
      </trkpt>
      <trkpt lat="44.32152" lon="3.07158">
        <ele>737.8</ele>
        <time>2021-08-16T15:23:00Z</time>
      </trkpt>
      <trkpt lat="44.32152" lon="3.07153">
        <ele>738.3</ele>
        <time>2021-08-16T15:23:02Z</time>
      </trkpt>
      <trkpt lat="44.32152" lon="3.07147">
        <ele>738.7</ele>
        <time>2021-08-16T15:23:04Z</time>
      </trkpt>
      <trkpt lat="44.32153" lon="3.07143">
        <ele>739.3</ele>
        <time>2021-08-16T15:23:06Z</time>
      </trkpt>
      <trkpt lat="44.32155" lon="3.07147">
        <ele>739.4</ele>
        <time>2021-08-16T15:23:08Z</time>
      </trkpt>
      <trkpt lat="44.32157" lon="3.07149">
        <ele>739.6</ele>
        <time>2021-08-16T15:23:10Z</time>
      </trkpt>
      <trkpt lat="44.32157" lon="3.07148">
        <ele>739.7</ele>
        <time>2021-08-16T15:23:12Z</time>
      </trkpt>
      <trkpt lat="44.32157" lon="3.07147">
        <ele>739.6</ele>
        <time>2021-08-16T15:23:14Z</time>
      </trkpt>
      <trkpt lat="44.32157" lon="3.07147">
        <ele>739.6</ele>
        <time>2021-08-16T15:23:16Z</time>
      </trkpt>
      <trkpt lat="44.32157" lon="3.07147">
        <ele>739.7</ele>
        <time>2021-08-16T15:23:18Z</time>
      </trkpt>
      <trkpt lat="44.32144" lon="3.07141">
        <ele>737.7</ele>
        <time>2021-08-16T16:51:35Z</time>
      </trkpt>
      <trkpt lat="44.32142" lon="3.07139">
        <ele>737.4</ele>
        <time>2021-08-16T16:51:37Z</time>
      </trkpt>
      <trkpt lat="44.3214" lon="3.07137">
        <ele>737.2</ele>
        <time>2021-08-16T16:51:39Z</time>
      </trkpt>
      <trkpt lat="44.3214" lon="3.07133">
        <ele>737.4</ele>
        <time>2021-08-16T16:51:41Z</time>
      </trkpt>
      <trkpt lat="44.32139" lon="3.07128">
        <ele>737.6</ele>
        <time>2021-08-16T16:51:43Z</time>
      </trkpt>
      <trkpt lat="44.32139" lon="3.07123">
        <ele>738.1</ele>
        <time>2021-08-16T16:51:45Z</time>
      </trkpt>
      <trkpt lat="44.32138" lon="3.07119">
        <ele>738.1</ele>
        <time>2021-08-16T16:51:47Z</time>
      </trkpt>
      <trkpt lat="44.32135" lon="3.07119">
        <ele>737.5</ele>
        <time>2021-08-16T16:51:49Z</time>
      </trkpt>
      <trkpt lat="44.32132" lon="3.07121">
        <ele>736.7</ele>
        <time>2021-08-16T16:51:51Z</time>
      </trkpt>
      <trkpt lat="44.32129" lon="3.07123">
        <ele>736</ele>
        <time>2021-08-16T16:51:53Z</time>
      </trkpt>
      <trkpt lat="44.32128" lon="3.07127">
        <ele>735.5</ele>
        <time>2021-08-16T16:51:55Z</time>
      </trkpt>
      <trkpt lat="44.32125" lon="3.07133">
        <ele>734.4</ele>
        <time>2021-08-16T16:51:57Z</time>
      </trkpt>
      <trkpt lat="44.32123" lon="3.07138">
        <ele>733.6</ele>
        <time>2021-08-16T16:51:59Z</time>
      </trkpt>
      <trkpt lat="44.32119" lon="3.07144">
        <ele>732.4</ele>
        <time>2021-08-16T16:52:01Z</time>
      </trkpt>
      <trkpt lat="44.32115" lon="3.07147">
        <ele>731.4</ele>
        <time>2021-08-16T16:52:03Z</time>
      </trkpt>
      <trkpt lat="44.32113" lon="3.07154">
        <ele>730.6</ele>
        <time>2021-08-16T16:52:05Z</time>
      </trkpt>
      <trkpt lat="44.32111" lon="3.07161">
        <ele>729.7</ele>
        <time>2021-08-16T16:52:07Z</time>
      </trkpt>
      <trkpt lat="44.32108" lon="3.07169">
        <ele>728.7</ele>
        <time>2021-08-16T16:52:09Z</time>
      </trkpt>
      <trkpt lat="44.32106" lon="3.07173">
        <ele>728.3</ele>
        <time>2021-08-16T16:52:11Z</time>
      </trkpt>
      <trkpt lat="44.32105" lon="3.07178">
        <ele>727.9</ele>
        <time>2021-08-16T16:52:13Z</time>
      </trkpt>
      <trkpt lat="44.32103" lon="3.07182">
        <ele>727.5</ele>
        <time>2021-08-16T16:52:15Z</time>
      </trkpt>
      <trkpt lat="44.32102" lon="3.07188">
        <ele>727.1</ele>
        <time>2021-08-16T16:52:17Z</time>
      </trkpt>
      <trkpt lat="44.32101" lon="3.07193">
        <ele>726.9</ele>
        <time>2021-08-16T16:52:19Z</time>
      </trkpt>
      <trkpt lat="44.321" lon="3.07196">
        <ele>726.6</ele>
        <time>2021-08-16T16:52:21Z</time>
      </trkpt>
      <trkpt lat="44.32095" lon="3.07195">
        <ele>725.8</ele>
        <time>2021-08-16T16:52:23Z</time>
      </trkpt>
      <trkpt lat="44.32091" lon="3.07187">
        <ele>725.1</ele>
        <time>2021-08-16T16:52:25Z</time>
      </trkpt>
      <trkpt lat="44.3209" lon="3.07178">
        <ele>725</ele>
        <time>2021-08-16T16:52:27Z</time>
      </trkpt>
      <trkpt lat="44.32087" lon="3.07171">
        <ele>724.6</ele>
        <time>2021-08-16T16:52:29Z</time>
      </trkpt>
      <trkpt lat="44.32083" lon="3.07165">
        <ele>724.1</ele>
        <time>2021-08-16T16:52:31Z</time>
      </trkpt>
      <trkpt lat="44.3208" lon="3.07158">
        <ele>724.1</ele>
        <time>2021-08-16T16:52:33Z</time>
      </trkpt>
      <trkpt lat="44.32078" lon="3.0715">
        <ele>724.2</ele>
        <time>2021-08-16T16:52:35Z</time>
      </trkpt>
      <trkpt lat="44.32075" lon="3.07142">
        <ele>724.2</ele>
        <time>2021-08-16T16:52:37Z</time>
      </trkpt>
      <trkpt lat="44.32072" lon="3.07134">
        <ele>724.1</ele>
        <time>2021-08-16T16:52:39Z</time>
      </trkpt>
      <trkpt lat="44.32068" lon="3.07126">
        <ele>724</ele>
        <time>2021-08-16T16:52:41Z</time>
      </trkpt>
      <trkpt lat="44.32064" lon="3.07118">
        <ele>723.8</ele>
        <time>2021-08-16T16:52:43Z</time>
      </trkpt>
      <trkpt lat="44.32061" lon="3.07109">
        <ele>723.6</ele>
        <time>2021-08-16T16:52:45Z</time>
      </trkpt>
      <trkpt lat="44.32058" lon="3.071">
        <ele>723.6</ele>
        <time>2021-08-16T16:52:47Z</time>
      </trkpt>
      <trkpt lat="44.32054" lon="3.0709">
        <ele>723.4</ele>
        <time>2021-08-16T16:52:49Z</time>
      </trkpt>
      <trkpt lat="44.32051" lon="3.07081">
        <ele>723.2</ele>
        <time>2021-08-16T16:52:51Z</time>
      </trkpt>
      <trkpt lat="44.32047" lon="3.07072">
        <ele>723.1</ele>
        <time>2021-08-16T16:52:53Z</time>
      </trkpt>
      <trkpt lat="44.32043" lon="3.07064">
        <ele>722.6</ele>
        <time>2021-08-16T16:52:55Z</time>
      </trkpt>
      <trkpt lat="44.32039" lon="3.07055">
        <ele>722.4</ele>
        <time>2021-08-16T16:52:57Z</time>
      </trkpt>
      <trkpt lat="44.32036" lon="3.07046">
        <ele>722.2</ele>
        <time>2021-08-16T16:52:59Z</time>
      </trkpt>
      <trkpt lat="44.32032" lon="3.07036">
        <ele>722</ele>
        <time>2021-08-16T16:53:01Z</time>
      </trkpt>
      <trkpt lat="44.32028" lon="3.07027">
        <ele>721.6</ele>
        <time>2021-08-16T16:53:03Z</time>
      </trkpt>
      <trkpt lat="44.32025" lon="3.07018">
        <ele>721.3</ele>
        <time>2021-08-16T16:53:05Z</time>
      </trkpt>
      <trkpt lat="44.32021" lon="3.07007">
        <ele>720.9</ele>
        <time>2021-08-16T16:53:07Z</time>
      </trkpt>
      <trkpt lat="44.32016" lon="3.06995">
        <ele>720.5</ele>
        <time>2021-08-16T16:53:09Z</time>
      </trkpt>
      <trkpt lat="44.32011" lon="3.06982">
        <ele>720.2</ele>
        <time>2021-08-16T16:53:11Z</time>
      </trkpt>
      <trkpt lat="44.32006" lon="3.06969">
        <ele>719.7</ele>
        <time>2021-08-16T16:53:13Z</time>
      </trkpt>
      <trkpt lat="44.32001" lon="3.06956">
        <ele>719.3</ele>
        <time>2021-08-16T16:53:15Z</time>
      </trkpt>
      <trkpt lat="44.31996" lon="3.06944">
        <ele>719.1</ele>
        <time>2021-08-16T16:53:17Z</time>
      </trkpt>
      <trkpt lat="44.31991" lon="3.06931">
        <ele>718.8</ele>
        <time>2021-08-16T16:53:19Z</time>
      </trkpt>
      <trkpt lat="44.31986" lon="3.06918">
        <ele>718.5</ele>
        <time>2021-08-16T16:53:21Z</time>
      </trkpt>
      <trkpt lat="44.31981" lon="3.06904">
        <ele>717.5</ele>
        <time>2021-08-16T16:53:23Z</time>
      </trkpt>
      <trkpt lat="44.31976" lon="3.06889">
        <ele>716.5</ele>
        <time>2021-08-16T16:53:25Z</time>
      </trkpt>
      <trkpt lat="44.31972" lon="3.06873">
        <ele>715.6</ele>
        <time>2021-08-16T16:53:27Z</time>
      </trkpt>
      <trkpt lat="44.3197" lon="3.06855">
        <ele>715.2</ele>
        <time>2021-08-16T16:53:29Z</time>
      </trkpt>
      <trkpt lat="44.31971" lon="3.06838">
        <ele>715.2</ele>
        <time>2021-08-16T16:53:31Z</time>
      </trkpt>
      <trkpt lat="44.31973" lon="3.0682">
        <ele>714.8</ele>
        <time>2021-08-16T16:53:33Z</time>
      </trkpt>
      <trkpt lat="44.31974" lon="3.06803">
        <ele>714.2</ele>
        <time>2021-08-16T16:53:35Z</time>
      </trkpt>
      <trkpt lat="44.31974" lon="3.06785">
        <ele>713.4</ele>
        <time>2021-08-16T16:53:37Z</time>
      </trkpt>
      <trkpt lat="44.31977" lon="3.06768">
        <ele>713</ele>
        <time>2021-08-16T16:53:39Z</time>
      </trkpt>
      <trkpt lat="44.31983" lon="3.06753">
        <ele>713.3</ele>
        <time>2021-08-16T16:53:41Z</time>
      </trkpt>
      <trkpt lat="44.31987" lon="3.06737">
        <ele>712.8</ele>
        <time>2021-08-16T16:53:43Z</time>
      </trkpt>
      <trkpt lat="44.31994" lon="3.06722">
        <ele>712.4</ele>
        <time>2021-08-16T16:53:45Z</time>
      </trkpt>
      <trkpt lat="44.32002" lon="3.06713">
        <ele>712.8</ele>
        <time>2021-08-16T16:53:47Z</time>
      </trkpt>
      <trkpt lat="44.32009" lon="3.06708">
        <ele>713.2</ele>
        <time>2021-08-16T16:53:49Z</time>
      </trkpt>
      <trkpt lat="44.32015" lon="3.06702">
        <ele>713.3</ele>
        <time>2021-08-16T16:53:51Z</time>
      </trkpt>
      <trkpt lat="44.3202" lon="3.06698">
        <ele>713.5</ele>
        <time>2021-08-16T16:53:53Z</time>
      </trkpt>
      <trkpt lat="44.32025" lon="3.06694">
        <ele>713.6</ele>
        <time>2021-08-16T16:53:55Z</time>
      </trkpt>
      <trkpt lat="44.3203" lon="3.06689">
        <ele>713.5</ele>
        <time>2021-08-16T16:53:57Z</time>
      </trkpt>
      <trkpt lat="44.32036" lon="3.06686">
        <ele>713.7</ele>
        <time>2021-08-16T16:53:59Z</time>
      </trkpt>
      <trkpt lat="44.3204" lon="3.06681">
        <ele>713.6</ele>
        <time>2021-08-16T16:54:01Z</time>
      </trkpt>
      <trkpt lat="44.32045" lon="3.06678">
        <ele>713.7</ele>
        <time>2021-08-16T16:54:03Z</time>
      </trkpt>
      <trkpt lat="44.32049" lon="3.06674">
        <ele>713.7</ele>
        <time>2021-08-16T16:54:05Z</time>
      </trkpt>
      <trkpt lat="44.32053" lon="3.0667">
        <ele>713.6</ele>
        <time>2021-08-16T16:54:07Z</time>
      </trkpt>
      <trkpt lat="44.32058" lon="3.06667">
        <ele>713.6</ele>
        <time>2021-08-16T16:54:09Z</time>
      </trkpt>
      <trkpt lat="44.32062" lon="3.06663">
        <ele>713.6</ele>
        <time>2021-08-16T16:54:11Z</time>
      </trkpt>
      <trkpt lat="44.32067" lon="3.06659">
        <ele>713.6</ele>
        <time>2021-08-16T16:54:13Z</time>
      </trkpt>
      <trkpt lat="44.32072" lon="3.06655">
        <ele>713.7</ele>
        <time>2021-08-16T16:54:15Z</time>
      </trkpt>
      <trkpt lat="44.32077" lon="3.06651">
        <ele>713.6</ele>
        <time>2021-08-16T16:54:17Z</time>
      </trkpt>
      <trkpt lat="44.32083" lon="3.06647">
        <ele>713.6</ele>
        <time>2021-08-16T16:54:19Z</time>
      </trkpt>
      <trkpt lat="44.32089" lon="3.06642">
        <ele>713.9</ele>
        <time>2021-08-16T16:54:21Z</time>
      </trkpt>
      <trkpt lat="44.32094" lon="3.06637">
        <ele>714</ele>
        <time>2021-08-16T16:54:23Z</time>
      </trkpt>
      <trkpt lat="44.321" lon="3.06633">
        <ele>714.2</ele>
        <time>2021-08-16T16:54:25Z</time>
      </trkpt>
      <trkpt lat="44.32106" lon="3.06627">
        <ele>714.2</ele>
        <time>2021-08-16T16:54:27Z</time>
      </trkpt>
      <trkpt lat="44.32112" lon="3.06622">
        <ele>714.2</ele>
        <time>2021-08-16T16:54:29Z</time>
      </trkpt>
      <trkpt lat="44.32119" lon="3.06618">
        <ele>714.3</ele>
        <time>2021-08-16T16:54:31Z</time>
      </trkpt>
      <trkpt lat="44.32125" lon="3.06612">
        <ele>714.2</ele>
        <time>2021-08-16T16:54:33Z</time>
      </trkpt>
      <trkpt lat="44.32131" lon="3.06607">
        <ele>714</ele>
        <time>2021-08-16T16:54:35Z</time>
      </trkpt>
      <trkpt lat="44.32138" lon="3.06601">
        <ele>713.7</ele>
        <time>2021-08-16T16:54:37Z</time>
      </trkpt>
      <trkpt lat="44.32145" lon="3.06595">
        <ele>713.2</ele>
        <time>2021-08-16T16:54:39Z</time>
      </trkpt>
      <trkpt lat="44.32152" lon="3.06587">
        <ele>712.5</ele>
        <time>2021-08-16T16:54:41Z</time>
      </trkpt>
      <trkpt lat="44.32158" lon="3.06579">
        <ele>711.9</ele>
        <time>2021-08-16T16:54:43Z</time>
      </trkpt>
      <trkpt lat="44.32164" lon="3.06571">
        <ele>711.7</ele>
        <time>2021-08-16T16:54:45Z</time>
      </trkpt>
      <trkpt lat="44.32171" lon="3.06563">
        <ele>711.6</ele>
        <time>2021-08-16T16:54:47Z</time>
      </trkpt>
      <trkpt lat="44.32176" lon="3.06553">
        <ele>711.4</ele>
        <time>2021-08-16T16:54:49Z</time>
      </trkpt>
      <trkpt lat="44.32182" lon="3.06544">
        <ele>711.1</ele>
        <time>2021-08-16T16:54:51Z</time>
      </trkpt>
      <trkpt lat="44.32187" lon="3.06535">
        <ele>710.8</ele>
        <time>2021-08-16T16:54:53Z</time>
      </trkpt>
      <trkpt lat="44.32193" lon="3.06526">
        <ele>710.4</ele>
        <time>2021-08-16T16:54:55Z</time>
      </trkpt>
      <trkpt lat="44.32198" lon="3.06517">
        <ele>710</ele>
        <time>2021-08-16T16:54:57Z</time>
      </trkpt>
      <trkpt lat="44.32204" lon="3.06508">
        <ele>709.5</ele>
        <time>2021-08-16T16:54:59Z</time>
      </trkpt>
      <trkpt lat="44.32209" lon="3.06499">
        <ele>709</ele>
        <time>2021-08-16T16:55:01Z</time>
      </trkpt>
      <trkpt lat="44.32215" lon="3.0649">
        <ele>709.1</ele>
        <time>2021-08-16T16:55:03Z</time>
      </trkpt>
      <trkpt lat="44.3222" lon="3.06482">
        <ele>709</ele>
        <time>2021-08-16T16:55:05Z</time>
      </trkpt>
      <trkpt lat="44.32225" lon="3.06472">
        <ele>708.9</ele>
        <time>2021-08-16T16:55:07Z</time>
      </trkpt>
      <trkpt lat="44.32231" lon="3.06463">
        <ele>708.8</ele>
        <time>2021-08-16T16:55:09Z</time>
      </trkpt>
      <trkpt lat="44.32236" lon="3.06454">
        <ele>708.6</ele>
        <time>2021-08-16T16:55:11Z</time>
      </trkpt>
      <trkpt lat="44.32241" lon="3.06446">
        <ele>708.5</ele>
        <time>2021-08-16T16:55:13Z</time>
      </trkpt>
      <trkpt lat="44.32247" lon="3.06437">
        <ele>708.2</ele>
        <time>2021-08-16T16:55:15Z</time>
      </trkpt>
      <trkpt lat="44.32251" lon="3.06428">
        <ele>707.8</ele>
        <time>2021-08-16T16:55:17Z</time>
      </trkpt>
      <trkpt lat="44.32256" lon="3.0642">
        <ele>707.3</ele>
        <time>2021-08-16T16:55:19Z</time>
      </trkpt>
      <trkpt lat="44.3226" lon="3.06413">
        <ele>707.1</ele>
        <time>2021-08-16T16:55:21Z</time>
      </trkpt>
      <trkpt lat="44.32265" lon="3.06406">
        <ele>707</ele>
        <time>2021-08-16T16:55:23Z</time>
      </trkpt>
      <trkpt lat="44.32267" lon="3.06398">
        <ele>706.8</ele>
        <time>2021-08-16T16:55:25Z</time>
      </trkpt>
      <trkpt lat="44.32263" lon="3.06387">
        <ele>706.6</ele>
        <time>2021-08-16T16:55:27Z</time>
      </trkpt>
      <trkpt lat="44.32262" lon="3.06381">
        <ele>706.5</ele>
        <time>2021-08-16T16:55:29Z</time>
      </trkpt>
      <trkpt lat="44.32262" lon="3.06376">
        <ele>706.4</ele>
        <time>2021-08-16T16:55:31Z</time>
      </trkpt>
      <trkpt lat="44.32263" lon="3.0637">
        <ele>706.2</ele>
        <time>2021-08-16T16:55:33Z</time>
      </trkpt>
      <trkpt lat="44.32265" lon="3.06365">
        <ele>706.1</ele>
        <time>2021-08-16T16:55:35Z</time>
      </trkpt>
      <trkpt lat="44.32266" lon="3.0636">
        <ele>706</ele>
        <time>2021-08-16T16:55:37Z</time>
      </trkpt>
      <trkpt lat="44.32267" lon="3.06356">
        <ele>705.9</ele>
        <time>2021-08-16T16:55:39Z</time>
      </trkpt>
      <trkpt lat="44.32267" lon="3.06353">
        <ele>705.8</ele>
        <time>2021-08-16T16:55:41Z</time>
      </trkpt>
      <trkpt lat="44.32266" lon="3.06352">
        <ele>705.8</ele>
        <time>2021-08-16T16:55:43Z</time>
      </trkpt>
      <trkpt lat="44.32266" lon="3.06352">
        <ele>705.8</ele>
        <time>2021-08-16T16:55:45Z</time>
      </trkpt>
      <trkpt lat="44.32265" lon="3.06352">
        <ele>705.8</ele>
        <time>2021-08-16T16:55:47Z</time>
      </trkpt>
      <trkpt lat="44.32265" lon="3.06351">
        <ele>705.8</ele>
        <time>2021-08-16T16:55:49Z</time>
      </trkpt>
      <trkpt lat="44.32263" lon="3.06389">
        <ele>706.6</ele>
        <time>2021-08-16T17:05:21Z</time>
      </trkpt>
      <trkpt lat="44.32268" lon="3.06395">
        <ele>706.7</ele>
        <time>2021-08-16T17:05:23Z</time>
      </trkpt>
      <trkpt lat="44.32275" lon="3.06392">
        <ele>706.7</ele>
        <time>2021-08-16T17:05:25Z</time>
      </trkpt>
      <trkpt lat="44.32279" lon="3.06384">
        <ele>706.4</ele>
        <time>2021-08-16T17:05:27Z</time>
      </trkpt>
      <trkpt lat="44.32283" lon="3.06376">
        <ele>706.1</ele>
        <time>2021-08-16T17:05:29Z</time>
      </trkpt>
      <trkpt lat="44.32286" lon="3.06369">
        <ele>705.9</ele>
        <time>2021-08-16T17:05:31Z</time>
      </trkpt>
      <trkpt lat="44.32291" lon="3.06363">
        <ele>705.6</ele>
        <time>2021-08-16T17:05:33Z</time>
      </trkpt>
      <trkpt lat="44.32295" lon="3.06356">
        <ele>705.2</ele>
        <time>2021-08-16T17:05:35Z</time>
      </trkpt>
      <trkpt lat="44.32298" lon="3.06347">
        <ele>704.8</ele>
        <time>2021-08-16T17:05:37Z</time>
      </trkpt>
      <trkpt lat="44.32299" lon="3.06338">
        <ele>704.4</ele>
        <time>2021-08-16T17:05:39Z</time>
      </trkpt>
      <trkpt lat="44.32301" lon="3.06332">
        <ele>704.2</ele>
        <time>2021-08-16T17:05:41Z</time>
      </trkpt>
      <trkpt lat="44.32302" lon="3.06332">
        <ele>704.1</ele>
        <time>2021-08-16T17:05:43Z</time>
      </trkpt>
      <trkpt lat="44.32304" lon="3.06332">
        <ele>704</ele>
        <time>2021-08-16T17:05:45Z</time>
      </trkpt>
      <trkpt lat="44.32307" lon="3.06333">
        <ele>703.9</ele>
        <time>2021-08-16T17:05:47Z</time>
      </trkpt>
      <trkpt lat="44.32311" lon="3.06335">
        <ele>703.9</ele>
        <time>2021-08-16T17:05:49Z</time>
      </trkpt>
      <trkpt lat="44.32332" lon="3.06339">
        <ele>703.4</ele>
        <time>2021-08-16T17:05:57Z</time>
      </trkpt>
      <trkpt lat="44.3234" lon="3.06339">
        <ele>703</ele>
        <time>2021-08-16T17:05:59Z</time>
      </trkpt>
      <trkpt lat="44.32347" lon="3.06338">
        <ele>702.5</ele>
        <time>2021-08-16T17:06:01Z</time>
      </trkpt>
      <trkpt lat="44.32353" lon="3.06333">
        <ele>701.8</ele>
        <time>2021-08-16T17:06:03Z</time>
      </trkpt>
      <trkpt lat="44.32357" lon="3.06325">
        <ele>701.7</ele>
        <time>2021-08-16T17:06:05Z</time>
      </trkpt>
      <trkpt lat="44.32364" lon="3.06321">
        <ele>701.3</ele>
        <time>2021-08-16T17:06:07Z</time>
      </trkpt>
      <trkpt lat="44.32372" lon="3.06319">
        <ele>700.8</ele>
        <time>2021-08-16T17:06:09Z</time>
      </trkpt>
      <trkpt lat="44.3238" lon="3.06317">
        <ele>700.4</ele>
        <time>2021-08-16T17:06:11Z</time>
      </trkpt>
      <trkpt lat="44.32387" lon="3.06313">
        <ele>700</ele>
        <time>2021-08-16T17:06:13Z</time>
      </trkpt>
      <trkpt lat="44.32393" lon="3.0631">
        <ele>699.7</ele>
        <time>2021-08-16T17:06:15Z</time>
      </trkpt>
      <trkpt lat="44.32398" lon="3.06308">
        <ele>699.4</ele>
        <time>2021-08-16T17:06:17Z</time>
      </trkpt>
      <trkpt lat="44.32404" lon="3.06305">
        <ele>699.1</ele>
        <time>2021-08-16T17:06:19Z</time>
      </trkpt>
      <trkpt lat="44.32408" lon="3.06301">
        <ele>698.9</ele>
        <time>2021-08-16T17:06:21Z</time>
      </trkpt>
      <trkpt lat="44.32412" lon="3.06297">
        <ele>698.7</ele>
        <time>2021-08-16T17:06:23Z</time>
      </trkpt>
      <trkpt lat="44.32415" lon="3.06293">
        <ele>698.6</ele>
        <time>2021-08-16T17:06:25Z</time>
      </trkpt>
      <trkpt lat="44.32415" lon="3.06291">
        <ele>698.6</ele>
        <time>2021-08-16T17:06:27Z</time>
      </trkpt>
      <trkpt lat="44.32416" lon="3.0629">
        <ele>698.6</ele>
        <time>2021-08-16T17:06:29Z</time>
      </trkpt>
      <trkpt lat="44.32416" lon="3.0629">
        <ele>698.6</ele>
        <time>2021-08-16T17:06:31Z</time>
      </trkpt>
      <trkpt lat="44.32415" lon="3.0629">
        <ele>698.6</ele>
        <time>2021-08-16T17:06:33Z</time>
      </trkpt>
      <trkpt lat="44.32416" lon="3.06289">
        <ele>698.6</ele>
        <time>2021-08-16T17:06:35Z</time>
      </trkpt>
      <trkpt lat="44.32438" lon="3.06326">
        <ele>697.7</ele>
        <time>2021-08-16T17:08:47Z</time>
      </trkpt>
      <trkpt lat="44.32439" lon="3.06327">
        <ele>697.7</ele>
        <time>2021-08-16T17:08:49Z</time>
      </trkpt>
      <trkpt lat="44.32441" lon="3.06329">
        <ele>697.7</ele>
        <time>2021-08-16T17:08:51Z</time>
      </trkpt>
      <trkpt lat="44.32446" lon="3.06332">
        <ele>697.6</ele>
        <time>2021-08-16T17:08:53Z</time>
      </trkpt>
      <trkpt lat="44.32452" lon="3.0633">
        <ele>697.5</ele>
        <time>2021-08-16T17:08:55Z</time>
      </trkpt>
      <trkpt lat="44.32458" lon="3.06324">
        <ele>697.3</ele>
        <time>2021-08-16T17:08:57Z</time>
      </trkpt>
      <trkpt lat="44.32464" lon="3.0632">
        <ele>697</ele>
        <time>2021-08-16T17:08:59Z</time>
      </trkpt>
      <trkpt lat="44.3247" lon="3.06314">
        <ele>696.7</ele>
        <time>2021-08-16T17:09:01Z</time>
      </trkpt>
      <trkpt lat="44.32475" lon="3.06308">
        <ele>696.3</ele>
        <time>2021-08-16T17:09:03Z</time>
      </trkpt>
      <trkpt lat="44.32481" lon="3.06303">
        <ele>695.9</ele>
        <time>2021-08-16T17:09:05Z</time>
      </trkpt>
      <trkpt lat="44.32488" lon="3.06298">
        <ele>695.4</ele>
        <time>2021-08-16T17:09:07Z</time>
      </trkpt>
      <trkpt lat="44.32495" lon="3.06293">
        <ele>694.8</ele>
        <time>2021-08-16T17:09:09Z</time>
      </trkpt>
      <trkpt lat="44.32503" lon="3.06288">
        <ele>694.1</ele>
        <time>2021-08-16T17:09:11Z</time>
      </trkpt>
      <trkpt lat="44.32511" lon="3.06281">
        <ele>693.4</ele>
        <time>2021-08-16T17:09:13Z</time>
      </trkpt>
      <trkpt lat="44.32519" lon="3.06273">
        <ele>692.4</ele>
        <time>2021-08-16T17:09:15Z</time>
      </trkpt>
      <trkpt lat="44.32525" lon="3.06257">
        <ele>690.8</ele>
        <time>2021-08-16T17:09:17Z</time>
      </trkpt>
      <trkpt lat="44.32528" lon="3.06237">
        <ele>690.1</ele>
        <time>2021-08-16T17:09:19Z</time>
      </trkpt>
      <trkpt lat="44.32536" lon="3.06219">
        <ele>689.5</ele>
        <time>2021-08-16T17:09:21Z</time>
      </trkpt>
      <trkpt lat="44.32547" lon="3.06204">
        <ele>688.4</ele>
        <time>2021-08-16T17:09:23Z</time>
      </trkpt>
      <trkpt lat="44.32558" lon="3.06191">
        <ele>687</ele>
        <time>2021-08-16T17:09:25Z</time>
      </trkpt>
      <trkpt lat="44.32568" lon="3.06178">
        <ele>685.5</ele>
        <time>2021-08-16T17:09:27Z</time>
      </trkpt>
      <trkpt lat="44.32577" lon="3.06166">
        <ele>683.9</ele>
        <time>2021-08-16T17:09:29Z</time>
      </trkpt>
      <trkpt lat="44.32585" lon="3.06156">
        <ele>682.7</ele>
        <time>2021-08-16T17:09:31Z</time>
      </trkpt>
      <trkpt lat="44.32594" lon="3.06146">
        <ele>682.1</ele>
        <time>2021-08-16T17:09:33Z</time>
      </trkpt>
      <trkpt lat="44.32599" lon="3.06141">
        <ele>681.7</ele>
        <time>2021-08-16T17:09:35Z</time>
      </trkpt>
      <trkpt lat="44.32603" lon="3.06138">
        <ele>681.4</ele>
        <time>2021-08-16T17:09:37Z</time>
      </trkpt>
      <trkpt lat="44.32606" lon="3.06133">
        <ele>681.2</ele>
        <time>2021-08-16T17:09:39Z</time>
      </trkpt>
      <trkpt lat="44.32609" lon="3.06129">
        <ele>680.9</ele>
        <time>2021-08-16T17:09:41Z</time>
      </trkpt>
      <trkpt lat="44.32613" lon="3.06125">
        <ele>680.6</ele>
        <time>2021-08-16T17:09:43Z</time>
      </trkpt>
      <trkpt lat="44.32618" lon="3.06118">
        <ele>680.1</ele>
        <time>2021-08-16T17:09:45Z</time>
      </trkpt>
      <trkpt lat="44.32624" lon="3.06108">
        <ele>679.4</ele>
        <time>2021-08-16T17:09:47Z</time>
      </trkpt>
      <trkpt lat="44.3263" lon="3.06099">
        <ele>678.8</ele>
        <time>2021-08-16T17:09:49Z</time>
      </trkpt>
      <trkpt lat="44.32636" lon="3.06089">
        <ele>678.1</ele>
        <time>2021-08-16T17:09:51Z</time>
      </trkpt>
      <trkpt lat="44.32642" lon="3.06078">
        <ele>677.3</ele>
        <time>2021-08-16T17:09:53Z</time>
      </trkpt>
      <trkpt lat="44.32648" lon="3.06068">
        <ele>676.7</ele>
        <time>2021-08-16T17:09:55Z</time>
      </trkpt>
      <trkpt lat="44.32653" lon="3.06057">
        <ele>676.1</ele>
        <time>2021-08-16T17:09:57Z</time>
      </trkpt>
      <trkpt lat="44.32657" lon="3.06047">
        <ele>675.5</ele>
        <time>2021-08-16T17:09:59Z</time>
      </trkpt>
      <trkpt lat="44.3266" lon="3.06039">
        <ele>675.2</ele>
        <time>2021-08-16T17:10:01Z</time>
      </trkpt>
      <trkpt lat="44.32663" lon="3.06033">
        <ele>674.9</ele>
        <time>2021-08-16T17:10:03Z</time>
      </trkpt>
      <trkpt lat="44.32666" lon="3.06029">
        <ele>674.7</ele>
        <time>2021-08-16T17:10:05Z</time>
      </trkpt>
      <trkpt lat="44.32667" lon="3.06026">
        <ele>674.6</ele>
        <time>2021-08-16T17:10:07Z</time>
      </trkpt>
      <trkpt lat="44.32668" lon="3.06022">
        <ele>674.5</ele>
        <time>2021-08-16T17:10:09Z</time>
      </trkpt>
      <trkpt lat="44.32671" lon="3.06017">
        <ele>674.5</ele>
        <time>2021-08-16T17:10:11Z</time>
      </trkpt>
      <trkpt lat="44.32672" lon="3.06015">
        <ele>674.5</ele>
        <time>2021-08-16T17:10:13Z</time>
      </trkpt>
      <trkpt lat="44.32671" lon="3.06012">
        <ele>674.4</ele>
        <time>2021-08-16T17:10:15Z</time>
      </trkpt>
      <trkpt lat="44.32669" lon="3.06008">
        <ele>674.2</ele>
        <time>2021-08-16T17:10:17Z</time>
      </trkpt>
      <trkpt lat="44.32666" lon="3.06003">
        <ele>674.1</ele>
        <time>2021-08-16T17:10:19Z</time>
      </trkpt>
      <trkpt lat="44.32661" lon="3.05999">
        <ele>674.1</ele>
        <time>2021-08-16T17:10:21Z</time>
      </trkpt>
      <trkpt lat="44.32655" lon="3.05993">
        <ele>674.2</ele>
        <time>2021-08-16T17:10:23Z</time>
      </trkpt>
      <trkpt lat="44.32649" lon="3.05988">
        <ele>674.2</ele>
        <time>2021-08-16T17:10:25Z</time>
      </trkpt>
      <trkpt lat="44.32643" lon="3.05982">
        <ele>674.2</ele>
        <time>2021-08-16T17:10:27Z</time>
      </trkpt>
      <trkpt lat="44.32637" lon="3.05976">
        <ele>674.2</ele>
        <time>2021-08-16T17:10:29Z</time>
      </trkpt>
      <trkpt lat="44.32631" lon="3.05969">
        <ele>674.2</ele>
        <time>2021-08-16T17:10:31Z</time>
      </trkpt>
      <trkpt lat="44.32625" lon="3.05962">
        <ele>674.1</ele>
        <time>2021-08-16T17:10:33Z</time>
      </trkpt>
      <trkpt lat="44.32618" lon="3.05956">
        <ele>674</ele>
        <time>2021-08-16T17:10:35Z</time>
      </trkpt>
      <trkpt lat="44.32611" lon="3.0595">
        <ele>673.9</ele>
        <time>2021-08-16T17:10:37Z</time>
      </trkpt>
      <trkpt lat="44.32604" lon="3.05945">
        <ele>673.8</ele>
        <time>2021-08-16T17:10:39Z</time>
      </trkpt>
      <trkpt lat="44.32598" lon="3.05939">
        <ele>673.7</ele>
        <time>2021-08-16T17:10:41Z</time>
      </trkpt>
      <trkpt lat="44.32591" lon="3.05933">
        <ele>673.5</ele>
        <time>2021-08-16T17:10:43Z</time>
      </trkpt>
      <trkpt lat="44.32585" lon="3.05927">
        <ele>673.4</ele>
        <time>2021-08-16T17:10:45Z</time>
      </trkpt>
      <trkpt lat="44.32578" lon="3.05923">
        <ele>673.6</ele>
        <time>2021-08-16T17:10:47Z</time>
      </trkpt>
      <trkpt lat="44.32572" lon="3.05917">
        <ele>673.7</ele>
        <time>2021-08-16T17:10:49Z</time>
      </trkpt>
      <trkpt lat="44.32565" lon="3.05912">
        <ele>674</ele>
        <time>2021-08-16T17:10:51Z</time>
      </trkpt>
      <trkpt lat="44.32559" lon="3.05908">
        <ele>674.2</ele>
        <time>2021-08-16T17:10:53Z</time>
      </trkpt>
      <trkpt lat="44.32555" lon="3.05906">
        <ele>674.4</ele>
        <time>2021-08-16T17:10:55Z</time>
      </trkpt>
      <trkpt lat="44.32554" lon="3.05904">
        <ele>674.4</ele>
        <time>2021-08-16T17:10:57Z</time>
      </trkpt>
      <trkpt lat="44.32551" lon="3.05904">
        <ele>674.5</ele>
        <time>2021-08-16T17:10:59Z</time>
      </trkpt>
      <trkpt lat="44.3255" lon="3.05907">
        <ele>674.7</ele>
        <time>2021-08-16T17:11:01Z</time>
      </trkpt>
      <trkpt lat="44.3255" lon="3.0591">
        <ele>674.8</ele>
        <time>2021-08-16T17:11:03Z</time>
      </trkpt>
      <trkpt lat="44.32549" lon="3.05912">
        <ele>674.9</ele>
        <time>2021-08-16T17:11:05Z</time>
      </trkpt>
      <trkpt lat="44.32582" lon="3.05904">
        <ele>672.8</ele>
        <time>2021-08-16T17:13:57Z</time>
      </trkpt>
      <trkpt lat="44.32586" lon="3.05891">
        <ele>672.4</ele>
        <time>2021-08-16T17:13:59Z</time>
      </trkpt>
      <trkpt lat="44.3259" lon="3.0588">
        <ele>672.1</ele>
        <time>2021-08-16T17:14:01Z</time>
      </trkpt>
      <trkpt lat="44.32593" lon="3.05869">
        <ele>671.8</ele>
        <time>2021-08-16T17:14:03Z</time>
      </trkpt>
      <trkpt lat="44.32599" lon="3.05858">
        <ele>671.6</ele>
        <time>2021-08-16T17:14:05Z</time>
      </trkpt>
      <trkpt lat="44.32602" lon="3.05849">
        <ele>671.4</ele>
        <time>2021-08-16T17:14:07Z</time>
      </trkpt>
      <trkpt lat="44.32605" lon="3.05841">
        <ele>671.2</ele>
        <time>2021-08-16T17:14:09Z</time>
      </trkpt>
      <trkpt lat="44.32608" lon="3.05834">
        <ele>671</ele>
        <time>2021-08-16T17:14:11Z</time>
      </trkpt>
      <trkpt lat="44.32611" lon="3.05827">
        <ele>670.9</ele>
        <time>2021-08-16T17:14:13Z</time>
      </trkpt>
      <trkpt lat="44.32611" lon="3.05821">
        <ele>670.7</ele>
        <time>2021-08-16T17:14:15Z</time>
      </trkpt>
      <trkpt lat="44.3261" lon="3.05816">
        <ele>670.6</ele>
        <time>2021-08-16T17:14:17Z</time>
      </trkpt>
      <trkpt lat="44.3261" lon="3.05812">
        <ele>670.6</ele>
        <time>2021-08-16T17:14:19Z</time>
      </trkpt>
      <trkpt lat="44.32609" lon="3.0581">
        <ele>670.5</ele>
        <time>2021-08-16T17:14:21Z</time>
      </trkpt>
      <trkpt lat="44.32607" lon="3.05806">
        <ele>670.4</ele>
        <time>2021-08-16T17:14:23Z</time>
      </trkpt>
      <trkpt lat="44.32603" lon="3.05801">
        <ele>670.3</ele>
        <time>2021-08-16T17:14:25Z</time>
      </trkpt>
      <trkpt lat="44.32601" lon="3.05795">
        <ele>670.2</ele>
        <time>2021-08-16T17:14:27Z</time>
      </trkpt>
      <trkpt lat="44.32598" lon="3.05789">
        <ele>670</ele>
        <time>2021-08-16T17:14:29Z</time>
      </trkpt>
      <trkpt lat="44.32597" lon="3.05783">
        <ele>669.9</ele>
        <time>2021-08-16T17:14:31Z</time>
      </trkpt>
      <trkpt lat="44.32595" lon="3.05778">
        <ele>669.8</ele>
        <time>2021-08-16T17:14:33Z</time>
      </trkpt>
      <trkpt lat="44.32594" lon="3.05776">
        <ele>669.7</ele>
        <time>2021-08-16T17:14:35Z</time>
      </trkpt>
      <trkpt lat="44.32594" lon="3.05776">
        <ele>669.7</ele>
        <time>2021-08-16T17:14:37Z</time>
      </trkpt>
      <trkpt lat="44.32594" lon="3.05775">
        <ele>669.7</ele>
        <time>2021-08-16T17:14:39Z</time>
      </trkpt>
      <trkpt lat="44.32594" lon="3.05775">
        <ele>669.7</ele>
        <time>2021-08-16T17:14:41Z</time>
      </trkpt>
      <trkpt lat="44.32595" lon="3.05774">
        <ele>669.7</ele>
        <time>2021-08-16T17:14:43Z</time>
      </trkpt>
      <trkpt lat="44.32596" lon="3.05827">
        <ele>670.8</ele>
        <time>2021-08-16T17:15:41Z</time>
      </trkpt>
      <trkpt lat="44.32598" lon="3.05834">
        <ele>671</ele>
        <time>2021-08-16T17:15:43Z</time>
      </trkpt>
      <trkpt lat="44.32598" lon="3.0584">
        <ele>671.1</ele>
        <time>2021-08-16T17:15:45Z</time>
      </trkpt>
      <trkpt lat="44.32595" lon="3.05843">
        <ele>671.2</ele>
        <time>2021-08-16T17:15:47Z</time>
      </trkpt>
      <trkpt lat="44.32591" lon="3.05845">
        <ele>671.3</ele>
        <time>2021-08-16T17:15:49Z</time>
      </trkpt>
      <trkpt lat="44.32584" lon="3.05848">
        <ele>671.4</ele>
        <time>2021-08-16T17:15:51Z</time>
      </trkpt>
      <trkpt lat="44.32578" lon="3.0585">
        <ele>671.6</ele>
        <time>2021-08-16T17:15:53Z</time>
      </trkpt>
      <trkpt lat="44.32573" lon="3.05852">
        <ele>671.9</ele>
        <time>2021-08-16T17:15:55Z</time>
      </trkpt>
      <trkpt lat="44.32568" lon="3.05855">
        <ele>672.1</ele>
        <time>2021-08-16T17:15:57Z</time>
      </trkpt>
      <trkpt lat="44.32564" lon="3.05856">
        <ele>672.4</ele>
        <time>2021-08-16T17:15:59Z</time>
      </trkpt>
      <trkpt lat="44.32562" lon="3.05857">
        <ele>672.5</ele>
        <time>2021-08-16T17:16:01Z</time>
      </trkpt>
      <trkpt lat="44.32561" lon="3.05859">
        <ele>672.6</ele>
        <time>2021-08-16T17:16:03Z</time>
      </trkpt>
      <trkpt lat="44.32561" lon="3.05864">
        <ele>672.7</ele>
        <time>2021-08-16T17:16:05Z</time>
      </trkpt>
      <trkpt lat="44.32562" lon="3.05869">
        <ele>672.9</ele>
        <time>2021-08-16T17:16:07Z</time>
      </trkpt>
      <trkpt lat="44.32562" lon="3.05875">
        <ele>673</ele>
        <time>2021-08-16T17:16:09Z</time>
      </trkpt>
      <trkpt lat="44.32562" lon="3.0588">
        <ele>673.2</ele>
        <time>2021-08-16T17:16:11Z</time>
      </trkpt>
      <trkpt lat="44.3256" lon="3.05887">
        <ele>673.5</ele>
        <time>2021-08-16T17:16:13Z</time>
      </trkpt>
      <trkpt lat="44.32559" lon="3.05892">
        <ele>673.7</ele>
        <time>2021-08-16T17:16:15Z</time>
      </trkpt>
      <trkpt lat="44.32557" lon="3.05895">
        <ele>673.9</ele>
        <time>2021-08-16T17:16:17Z</time>
      </trkpt>
      <trkpt lat="44.32557" lon="3.05897">
        <ele>674</ele>
        <time>2021-08-16T17:16:19Z</time>
      </trkpt>
      <trkpt lat="44.32554" lon="3.05898">
        <ele>674.2</ele>
        <time>2021-08-16T17:16:21Z</time>
      </trkpt>
      <trkpt lat="44.32551" lon="3.05898">
        <ele>674.3</ele>
        <time>2021-08-16T17:16:23Z</time>
      </trkpt>
      <trkpt lat="44.32547" lon="3.05896">
        <ele>674.5</ele>
        <time>2021-08-16T17:16:25Z</time>
      </trkpt>
      <trkpt lat="44.32521" lon="3.05886">
        <ele>675.5</ele>
        <time>2021-08-16T17:16:35Z</time>
      </trkpt>
      <trkpt lat="44.32516" lon="3.05885">
        <ele>675.6</ele>
        <time>2021-08-16T17:16:37Z</time>
      </trkpt>
      <trkpt lat="44.32512" lon="3.05883">
        <ele>675.8</ele>
        <time>2021-08-16T17:16:39Z</time>
      </trkpt>
      <trkpt lat="44.32508" lon="3.05882">
        <ele>675.9</ele>
        <time>2021-08-16T17:16:41Z</time>
      </trkpt>
      <trkpt lat="44.32504" lon="3.05879">
        <ele>676</ele>
        <time>2021-08-16T17:16:43Z</time>
      </trkpt>
      <trkpt lat="44.32499" lon="3.05876">
        <ele>676.1</ele>
        <time>2021-08-16T17:16:45Z</time>
      </trkpt>
      <trkpt lat="44.32495" lon="3.0587">
        <ele>675.9</ele>
        <time>2021-08-16T17:16:47Z</time>
      </trkpt>
      <trkpt lat="44.32492" lon="3.05861">
        <ele>675.6</ele>
        <time>2021-08-16T17:16:49Z</time>
      </trkpt>
      <trkpt lat="44.32491" lon="3.05851">
        <ele>675.2</ele>
        <time>2021-08-16T17:16:51Z</time>
      </trkpt>
      <trkpt lat="44.3249" lon="3.05844">
        <ele>674.9</ele>
        <time>2021-08-16T17:16:53Z</time>
      </trkpt>
      <trkpt lat="44.32488" lon="3.05835">
        <ele>674.5</ele>
        <time>2021-08-16T17:16:55Z</time>
      </trkpt>
      <trkpt lat="44.32487" lon="3.05828">
        <ele>674.2</ele>
        <time>2021-08-16T17:16:57Z</time>
      </trkpt>
      <trkpt lat="44.32485" lon="3.0582">
        <ele>674</ele>
        <time>2021-08-16T17:16:59Z</time>
      </trkpt>
      <trkpt lat="44.32484" lon="3.05811">
        <ele>673.7</ele>
        <time>2021-08-16T17:17:01Z</time>
      </trkpt>
      <trkpt lat="44.32482" lon="3.05804">
        <ele>673.4</ele>
        <time>2021-08-16T17:17:03Z</time>
      </trkpt>
      <trkpt lat="44.32481" lon="3.05797">
        <ele>673.2</ele>
        <time>2021-08-16T17:17:05Z</time>
      </trkpt>
      <trkpt lat="44.32479" lon="3.05792">
        <ele>673</ele>
        <time>2021-08-16T17:17:07Z</time>
      </trkpt>
      <trkpt lat="44.32479" lon="3.05788">
        <ele>672.8</ele>
        <time>2021-08-16T17:17:09Z</time>
      </trkpt>
      <trkpt lat="44.32478" lon="3.05782">
        <ele>672.6</ele>
        <time>2021-08-16T17:17:11Z</time>
      </trkpt>
      <trkpt lat="44.32477" lon="3.05777">
        <ele>672.4</ele>
        <time>2021-08-16T17:17:13Z</time>
      </trkpt>
      <trkpt lat="44.32478" lon="3.0577">
        <ele>672.1</ele>
        <time>2021-08-16T17:17:15Z</time>
      </trkpt>
      <trkpt lat="44.32478" lon="3.05761">
        <ele>671.7</ele>
        <time>2021-08-16T17:17:17Z</time>
      </trkpt>
      <trkpt lat="44.32475" lon="3.05755">
        <ele>671.5</ele>
        <time>2021-08-16T17:17:19Z</time>
      </trkpt>
      <trkpt lat="44.32474" lon="3.05754">
        <ele>671.5</ele>
        <time>2021-08-16T17:17:21Z</time>
      </trkpt>
      <trkpt lat="44.32472" lon="3.05752">
        <ele>671.4</ele>
        <time>2021-08-16T17:17:23Z</time>
      </trkpt>
      <trkpt lat="44.32471" lon="3.0575">
        <ele>671.4</ele>
        <time>2021-08-16T17:17:25Z</time>
      </trkpt>
      <trkpt lat="44.32467" lon="3.05748">
        <ele>671.4</ele>
        <time>2021-08-16T17:17:27Z</time>
      </trkpt>
      <trkpt lat="44.32463" lon="3.05748">
        <ele>671.4</ele>
        <time>2021-08-16T17:17:29Z</time>
      </trkpt>
      <trkpt lat="44.32459" lon="3.0575">
        <ele>671.5</ele>
        <time>2021-08-16T17:17:31Z</time>
      </trkpt>
      <trkpt lat="44.32454" lon="3.0575">
        <ele>671.5</ele>
        <time>2021-08-16T17:17:33Z</time>
      </trkpt>
      <trkpt lat="44.32452" lon="3.05749">
        <ele>671.6</ele>
        <time>2021-08-16T17:17:35Z</time>
      </trkpt>
      <trkpt lat="44.3245" lon="3.05747">
        <ele>671.5</ele>
        <time>2021-08-16T17:17:37Z</time>
      </trkpt>
      <trkpt lat="44.32447" lon="3.05744">
        <ele>671.5</ele>
        <time>2021-08-16T17:17:39Z</time>
      </trkpt>
      <trkpt lat="44.32446" lon="3.0574">
        <ele>671.4</ele>
        <time>2021-08-16T17:17:41Z</time>
      </trkpt>
      <trkpt lat="44.32444" lon="3.05736">
        <ele>671.3</ele>
        <time>2021-08-16T17:17:43Z</time>
      </trkpt>
      <trkpt lat="44.32442" lon="3.05734">
        <ele>671.2</ele>
        <time>2021-08-16T17:17:45Z</time>
      </trkpt>
      <trkpt lat="44.32442" lon="3.05732">
        <ele>671.2</ele>
        <time>2021-08-16T17:17:47Z</time>
      </trkpt>
      <trkpt lat="44.32442" lon="3.05729">
        <ele>671.1</ele>
        <time>2021-08-16T17:17:49Z</time>
      </trkpt>
      <trkpt lat="44.32442" lon="3.05728">
        <ele>671.1</ele>
        <time>2021-08-16T17:17:51Z</time>
      </trkpt>
      <trkpt lat="44.32442" lon="3.05728">
        <ele>671.1</ele>
        <time>2021-08-16T17:17:53Z</time>
      </trkpt>
      <trkpt lat="44.32442" lon="3.05728">
        <ele>671.1</ele>
        <time>2021-08-16T17:17:55Z</time>
      </trkpt>
      <trkpt lat="44.32442" lon="3.05728">
        <ele>671.1</ele>
        <time>2021-08-16T17:17:57Z</time>
      </trkpt>
      <trkpt lat="44.32441" lon="3.05728">
        <ele>671.1</ele>
        <time>2021-08-16T17:17:59Z</time>
      </trkpt>
      <trkpt lat="44.32441" lon="3.05728">
        <ele>671.1</ele>
        <time>2021-08-16T17:18:01Z</time>
      </trkpt>
      <trkpt lat="44.32441" lon="3.05728">
        <ele>671.1</ele>
        <time>2021-08-16T17:18:03Z</time>
      </trkpt>
      <trkpt lat="44.32441" lon="3.05728">
        <ele>671.1</ele>
        <time>2021-08-16T17:18:05Z</time>
      </trkpt>
      <trkpt lat="44.32441" lon="3.05728">
        <ele>671.1</ele>
        <time>2021-08-16T17:18:07Z</time>
      </trkpt>
      <trkpt lat="44.32441" lon="3.05728">
        <ele>671.1</ele>
        <time>2021-08-16T17:18:09Z</time>
      </trkpt>
      <trkpt lat="44.32441" lon="3.05728">
        <ele>671.1</ele>
        <time>2021-08-16T17:18:11Z</time>
      </trkpt>
      <trkpt lat="44.32441" lon="3.05728">
        <ele>671.1</ele>
        <time>2021-08-16T17:18:13Z</time>
      </trkpt>
      <trkpt lat="44.32441" lon="3.05728">
        <ele>671.1</ele>
        <time>2021-08-16T17:18:15Z</time>
      </trkpt>
      <trkpt lat="44.32441" lon="3.05728">
        <ele>671.1</ele>
        <time>2021-08-16T17:18:17Z</time>
      </trkpt>
      <trkpt lat="44.32441" lon="3.05728">
        <ele>671.1</ele>
        <time>2021-08-16T17:18:21Z</time>
      </trkpt>
      <trkpt lat="44.32441" lon="3.05728">
        <ele>671.1</ele>
        <time>2021-08-16T17:18:25Z</time>
      </trkpt>
      <trkpt lat="44.32441" lon="3.05728">
        <ele>671.1</ele>
        <time>2021-08-16T17:18:29Z</time>
      </trkpt>
      <trkpt lat="44.32441" lon="3.05728">
        <ele>671.1</ele>
        <time>2021-08-16T17:18:33Z</time>
      </trkpt>
      <trkpt lat="44.32441" lon="3.05728">
        <ele>671.1</ele>
        <time>2021-08-16T17:18:37Z</time>
      </trkpt>
      <trkpt lat="44.32441" lon="3.05728">
        <ele>671.1</ele>
        <time>2021-08-16T17:18:41Z</time>
      </trkpt>
      <trkpt lat="44.32441" lon="3.05728">
        <ele>671.1</ele>
        <time>2021-08-16T17:18:45Z</time>
      </trkpt>
      <trkpt lat="44.32441" lon="3.05728">
        <ele>671.1</ele>
        <time>2021-08-16T17:18:49Z</time>
      </trkpt>
      <trkpt lat="44.32441" lon="3.05728">
        <ele>671.1</ele>
        <time>2021-08-16T17:18:53Z</time>
      </trkpt>
      <trkpt lat="44.32441" lon="3.05728">
        <ele>671.1</ele>
        <time>2021-08-16T17:18:57Z</time>
      </trkpt>
      <trkpt lat="44.32441" lon="3.05728">
        <ele>671.1</ele>
        <time>2021-08-16T17:19:01Z</time>
      </trkpt>
      <trkpt lat="44.32441" lon="3.05728">
        <ele>671.1</ele>
        <time>2021-08-16T17:19:05Z</time>
      </trkpt>
      <trkpt lat="44.32441" lon="3.05728">
        <ele>671.1</ele>
        <time>2021-08-16T17:19:09Z</time>
      </trkpt>
      <trkpt lat="44.32441" lon="3.05728">
        <ele>671.1</ele>
        <time>2021-08-16T17:19:13Z</time>
      </trkpt>
      <trkpt lat="44.32441" lon="3.05728">
        <ele>671.1</ele>
        <time>2021-08-16T17:19:17Z</time>
      </trkpt>
      <trkpt lat="44.32442" lon="3.05734">
        <ele>671.2</ele>
        <time>2021-08-16T17:19:19Z</time>
      </trkpt>
      <trkpt lat="44.32442" lon="3.05734">
        <ele>671.2</ele>
        <time>2021-08-16T17:19:21Z</time>
      </trkpt>
      <trkpt lat="44.32442" lon="3.05734">
        <ele>671.2</ele>
        <time>2021-08-16T17:19:23Z</time>
      </trkpt>
      <trkpt lat="44.32442" lon="3.05734">
        <ele>671.2</ele>
        <time>2021-08-16T17:19:25Z</time>
      </trkpt>
      <trkpt lat="44.32442" lon="3.05734">
        <ele>671.2</ele>
        <time>2021-08-16T17:19:29Z</time>
      </trkpt>
      <trkpt lat="44.32442" lon="3.05734">
        <ele>671.2</ele>
        <time>2021-08-16T17:19:33Z</time>
      </trkpt>
      <trkpt lat="44.32442" lon="3.05734">
        <ele>671.2</ele>
        <time>2021-08-16T17:19:37Z</time>
      </trkpt>
      <trkpt lat="44.32442" lon="3.05734">
        <ele>671.2</ele>
        <time>2021-08-16T17:19:41Z</time>
      </trkpt>
      <trkpt lat="44.32442" lon="3.05734">
        <ele>671.2</ele>
        <time>2021-08-16T17:19:45Z</time>
      </trkpt>
      <trkpt lat="44.32442" lon="3.05734">
        <ele>671.2</ele>
        <time>2021-08-16T17:19:49Z</time>
      </trkpt>
      <trkpt lat="44.32442" lon="3.05734">
        <ele>671.2</ele>
        <time>2021-08-16T17:19:53Z</time>
      </trkpt>
      <trkpt lat="44.32442" lon="3.05734">
        <ele>671.2</ele>
        <time>2021-08-16T17:19:57Z</time>
      </trkpt>
      <trkpt lat="44.32442" lon="3.05734">
        <ele>671.2</ele>
        <time>2021-08-16T17:20:01Z</time>
      </trkpt>
      <trkpt lat="44.32442" lon="3.05734">
        <ele>671.2</ele>
        <time>2021-08-16T17:20:05Z</time>
      </trkpt>
      <trkpt lat="44.32442" lon="3.05734">
        <ele>671.2</ele>
        <time>2021-08-16T17:20:09Z</time>
      </trkpt>
      <trkpt lat="44.32442" lon="3.05734">
        <ele>671.2</ele>
        <time>2021-08-16T17:20:13Z</time>
      </trkpt>
      <trkpt lat="44.32442" lon="3.05734">
        <ele>671.2</ele>
        <time>2021-08-16T17:20:17Z</time>
      </trkpt>
      <trkpt lat="44.32442" lon="3.05734">
        <ele>671.2</ele>
        <time>2021-08-16T17:20:21Z</time>
      </trkpt>
      <trkpt lat="44.32442" lon="3.05734">
        <ele>671.2</ele>
        <time>2021-08-16T17:20:25Z</time>
      </trkpt>
      <trkpt lat="44.32442" lon="3.05734">
        <ele>671.2</ele>
        <time>2021-08-16T17:20:29Z</time>
      </trkpt>
      <trkpt lat="44.32442" lon="3.05734">
        <ele>671.2</ele>
        <time>2021-08-16T17:20:33Z</time>
      </trkpt>
      <trkpt lat="44.32442" lon="3.05734">
        <ele>671.2</ele>
        <time>2021-08-16T17:20:37Z</time>
      </trkpt>
      <trkpt lat="44.32442" lon="3.05734">
        <ele>671.2</ele>
        <time>2021-08-16T17:20:41Z</time>
      </trkpt>
      <trkpt lat="44.32442" lon="3.05734">
        <ele>671.2</ele>
        <time>2021-08-16T17:20:45Z</time>
      </trkpt>
      <trkpt lat="44.32442" lon="3.05734">
        <ele>671.2</ele>
        <time>2021-08-16T17:20:49Z</time>
      </trkpt>
      <trkpt lat="44.32442" lon="3.05734">
        <ele>671.2</ele>
        <time>2021-08-16T17:20:53Z</time>
      </trkpt>
      <trkpt lat="44.32442" lon="3.05734">
        <ele>671.2</ele>
        <time>2021-08-16T17:20:57Z</time>
      </trkpt>
      <trkpt lat="44.32442" lon="3.05734">
        <ele>671.2</ele>
        <time>2021-08-16T17:21:01Z</time>
      </trkpt>
      <trkpt lat="44.32442" lon="3.05734">
        <ele>671.2</ele>
        <time>2021-08-16T17:21:05Z</time>
      </trkpt>
      <trkpt lat="44.32442" lon="3.05734">
        <ele>671.2</ele>
        <time>2021-08-16T17:21:09Z</time>
      </trkpt>
      <trkpt lat="44.32442" lon="3.05734">
        <ele>671.2</ele>
        <time>2021-08-16T17:21:13Z</time>
      </trkpt>
      <trkpt lat="44.32442" lon="3.05734">
        <ele>671.2</ele>
        <time>2021-08-16T17:21:17Z</time>
      </trkpt>
      <trkpt lat="44.32442" lon="3.05734">
        <ele>671.2</ele>
        <time>2021-08-16T17:21:21Z</time>
      </trkpt>
      <trkpt lat="44.32442" lon="3.05734">
        <ele>671.2</ele>
        <time>2021-08-16T17:21:25Z</time>
      </trkpt>
      <trkpt lat="44.32442" lon="3.05734">
        <ele>671.2</ele>
        <time>2021-08-16T17:21:29Z</time>
      </trkpt>
      <trkpt lat="44.32442" lon="3.05734">
        <ele>671.2</ele>
        <time>2021-08-16T17:21:33Z</time>
      </trkpt>
      <trkpt lat="44.32442" lon="3.05734">
        <ele>671.2</ele>
        <time>2021-08-16T17:21:37Z</time>
      </trkpt>
      <trkpt lat="44.32442" lon="3.05734">
        <ele>671.2</ele>
        <time>2021-08-16T17:21:41Z</time>
      </trkpt>
      <trkpt lat="44.32442" lon="3.05734">
        <ele>671.2</ele>
        <time>2021-08-16T17:21:45Z</time>
      </trkpt>
      <trkpt lat="44.32442" lon="3.05734">
        <ele>671.2</ele>
        <time>2021-08-16T17:21:49Z</time>
      </trkpt>
      <trkpt lat="44.32442" lon="3.05734">
        <ele>671.2</ele>
        <time>2021-08-16T17:21:53Z</time>
      </trkpt>
      <trkpt lat="44.32442" lon="3.05734">
        <ele>671.2</ele>
        <time>2021-08-16T17:21:57Z</time>
      </trkpt>
      <trkpt lat="44.32442" lon="3.05734">
        <ele>671.2</ele>
        <time>2021-08-16T17:22:01Z</time>
      </trkpt>
      <trkpt lat="44.32442" lon="3.05734">
        <ele>671.2</ele>
        <time>2021-08-16T17:22:05Z</time>
      </trkpt>
      <trkpt lat="44.32442" lon="3.05737">
        <ele>671.3</ele>
        <time>2021-08-16T17:22:07Z</time>
      </trkpt>
      <trkpt lat="44.32442" lon="3.05737">
        <ele>671.3</ele>
        <time>2021-08-16T17:22:09Z</time>
      </trkpt>
      <trkpt lat="44.32442" lon="3.05737">
        <ele>671.3</ele>
        <time>2021-08-16T17:22:11Z</time>
      </trkpt>
      <trkpt lat="44.32442" lon="3.05736">
        <ele>671.3</ele>
        <time>2021-08-16T17:22:13Z</time>
      </trkpt>
      <trkpt lat="44.32441" lon="3.05736">
        <ele>671.3</ele>
        <time>2021-08-16T17:22:15Z</time>
      </trkpt>
      <trkpt lat="44.32441" lon="3.05737">
        <ele>671.3</ele>
        <time>2021-08-16T17:22:17Z</time>
      </trkpt>
      <trkpt lat="44.32442" lon="3.05737">
        <ele>671.3</ele>
        <time>2021-08-16T17:22:19Z</time>
      </trkpt>
      <trkpt lat="44.32443" lon="3.05737">
        <ele>671.3</ele>
        <time>2021-08-16T17:22:21Z</time>
      </trkpt>
      <trkpt lat="44.32443" lon="3.05736">
        <ele>671.3</ele>
        <time>2021-08-16T17:22:23Z</time>
      </trkpt>
      <trkpt lat="44.32443" lon="3.05735">
        <ele>671.3</ele>
        <time>2021-08-16T17:22:25Z</time>
      </trkpt>
      <trkpt lat="44.32442" lon="3.05735">
        <ele>671.3</ele>
        <time>2021-08-16T17:22:27Z</time>
      </trkpt>
      <trkpt lat="44.32443" lon="3.05735">
        <ele>671.3</ele>
        <time>2021-08-16T17:22:29Z</time>
      </trkpt>
      <trkpt lat="44.32442" lon="3.05734">
        <ele>671.2</ele>
        <time>2021-08-16T17:22:31Z</time>
      </trkpt>
      <trkpt lat="44.32442" lon="3.05734">
        <ele>671.2</ele>
        <time>2021-08-16T17:22:33Z</time>
      </trkpt>
      <trkpt lat="44.32442" lon="3.05733">
        <ele>671.2</ele>
        <time>2021-08-16T17:22:35Z</time>
      </trkpt>
      <trkpt lat="44.32442" lon="3.05733">
        <ele>671.2</ele>
        <time>2021-08-16T17:22:37Z</time>
      </trkpt>
      <trkpt lat="44.32442" lon="3.05733">
        <ele>671.2</ele>
        <time>2021-08-16T17:22:39Z</time>
      </trkpt>
      <trkpt lat="44.32442" lon="3.05733">
        <ele>671.2</ele>
        <time>2021-08-16T17:22:41Z</time>
      </trkpt>
      <trkpt lat="44.32442" lon="3.05733">
        <ele>671.2</ele>
        <time>2021-08-16T17:22:43Z</time>
      </trkpt>
      <trkpt lat="44.32442" lon="3.05733">
        <ele>671.2</ele>
        <time>2021-08-16T17:22:45Z</time>
      </trkpt>
      <trkpt lat="44.32442" lon="3.05733">
        <ele>671.2</ele>
        <time>2021-08-16T17:22:47Z</time>
      </trkpt>
      <trkpt lat="44.32442" lon="3.05733">
        <ele>671.2</ele>
        <time>2021-08-16T17:22:49Z</time>
      </trkpt>
      <trkpt lat="44.32442" lon="3.05732">
        <ele>671.2</ele>
        <time>2021-08-16T17:22:51Z</time>
      </trkpt>
      <trkpt lat="44.32442" lon="3.05731">
        <ele>671.2</ele>
        <time>2021-08-16T17:22:53Z</time>
      </trkpt>
      <trkpt lat="44.32442" lon="3.05731">
        <ele>671.2</ele>
        <time>2021-08-16T17:22:55Z</time>
      </trkpt>
      <trkpt lat="44.32442" lon="3.05731">
        <ele>671.1</ele>
        <time>2021-08-16T17:22:57Z</time>
      </trkpt>
      <trkpt lat="44.32441" lon="3.0573">
        <ele>671.1</ele>
        <time>2021-08-16T17:22:59Z</time>
      </trkpt>
      <trkpt lat="44.32441" lon="3.0573">
        <ele>671.1</ele>
        <time>2021-08-16T17:23:01Z</time>
      </trkpt>
      <trkpt lat="44.32442" lon="3.05729">
        <ele>671.1</ele>
        <time>2021-08-16T17:23:03Z</time>
      </trkpt>
      <trkpt lat="44.32442" lon="3.05729">
        <ele>671.1</ele>
        <time>2021-08-16T17:23:05Z</time>
      </trkpt>
      <trkpt lat="44.32442" lon="3.05729">
        <ele>671.1</ele>
        <time>2021-08-16T17:23:07Z</time>
      </trkpt>
      <trkpt lat="44.32442" lon="3.05728">
        <ele>671.1</ele>
        <time>2021-08-16T17:23:09Z</time>
      </trkpt>
      <trkpt lat="44.32443" lon="3.05728">
        <ele>671.1</ele>
        <time>2021-08-16T17:23:11Z</time>
      </trkpt>
      <trkpt lat="44.32442" lon="3.05728">
        <ele>671.1</ele>
        <time>2021-08-16T17:23:13Z</time>
      </trkpt>
      <trkpt lat="44.32442" lon="3.05728">
        <ele>671.1</ele>
        <time>2021-08-16T17:23:15Z</time>
      </trkpt>
      <trkpt lat="44.32442" lon="3.05728">
        <ele>671.1</ele>
        <time>2021-08-16T17:23:17Z</time>
      </trkpt>
      <trkpt lat="44.32442" lon="3.05728">
        <ele>671.1</ele>
        <time>2021-08-16T17:23:19Z</time>
      </trkpt>
      <trkpt lat="44.32443" lon="3.05727">
        <ele>671</ele>
        <time>2021-08-16T17:23:23Z</time>
      </trkpt>
      <trkpt lat="44.32443" lon="3.05727">
        <ele>671</ele>
        <time>2021-08-16T17:23:25Z</time>
      </trkpt>
      <trkpt lat="44.32442" lon="3.05727">
        <ele>671</ele>
        <time>2021-08-16T17:23:27Z</time>
      </trkpt>
      <trkpt lat="44.32442" lon="3.05728">
        <ele>671.1</ele>
        <time>2021-08-16T17:23:29Z</time>
      </trkpt>
      <trkpt lat="44.32442" lon="3.05728">
        <ele>671.1</ele>
        <time>2021-08-16T17:23:31Z</time>
      </trkpt>
      <trkpt lat="44.32441" lon="3.05728">
        <ele>671.1</ele>
        <time>2021-08-16T17:23:33Z</time>
      </trkpt>
      <trkpt lat="44.32441" lon="3.05728">
        <ele>671.1</ele>
        <time>2021-08-16T17:23:35Z</time>
      </trkpt>
      <trkpt lat="44.32441" lon="3.05728">
        <ele>671.1</ele>
        <time>2021-08-16T17:23:37Z</time>
      </trkpt>
      <trkpt lat="44.32441" lon="3.05728">
        <ele>671.1</ele>
        <time>2021-08-16T17:23:39Z</time>
      </trkpt>
      <trkpt lat="44.32441" lon="3.05729">
        <ele>671.1</ele>
        <time>2021-08-16T17:23:41Z</time>
      </trkpt>
      <trkpt lat="44.32441" lon="3.05729">
        <ele>671.1</ele>
        <time>2021-08-16T17:23:43Z</time>
      </trkpt>
      <trkpt lat="44.32441" lon="3.05729">
        <ele>671.1</ele>
        <time>2021-08-16T17:23:45Z</time>
      </trkpt>
      <trkpt lat="44.32441" lon="3.05729">
        <ele>671.1</ele>
        <time>2021-08-16T17:23:47Z</time>
      </trkpt>
      <trkpt lat="44.32441" lon="3.05728">
        <ele>671.1</ele>
        <time>2021-08-16T17:23:49Z</time>
      </trkpt>
      <trkpt lat="44.32441" lon="3.05728">
        <ele>671.1</ele>
        <time>2021-08-16T17:23:51Z</time>
      </trkpt>
      <trkpt lat="44.32441" lon="3.05727">
        <ele>671</ele>
        <time>2021-08-16T17:23:53Z</time>
      </trkpt>
      <trkpt lat="44.32441" lon="3.05727">
        <ele>671</ele>
        <time>2021-08-16T17:23:55Z</time>
      </trkpt>
      <trkpt lat="44.32441" lon="3.05728">
        <ele>671.1</ele>
        <time>2021-08-16T17:23:57Z</time>
      </trkpt>
      <trkpt lat="44.32442" lon="3.05727">
        <ele>671</ele>
        <time>2021-08-16T17:23:59Z</time>
      </trkpt>
      <trkpt lat="44.32442" lon="3.05726">
        <ele>671</ele>
        <time>2021-08-16T17:24:01Z</time>
      </trkpt>
      <trkpt lat="44.32443" lon="3.05726">
        <ele>671</ele>
        <time>2021-08-16T17:24:03Z</time>
      </trkpt>
      <trkpt lat="44.32443" lon="3.05726">
        <ele>671</ele>
        <time>2021-08-16T17:24:05Z</time>
      </trkpt>
      <trkpt lat="44.32443" lon="3.05725">
        <ele>671</ele>
        <time>2021-08-16T17:24:07Z</time>
      </trkpt>
      <trkpt lat="44.32444" lon="3.05725">
        <ele>671</ele>
        <time>2021-08-16T17:24:09Z</time>
      </trkpt>
      <trkpt lat="44.32443" lon="3.05725">
        <ele>671</ele>
        <time>2021-08-16T17:24:11Z</time>
      </trkpt>
      <trkpt lat="44.32443" lon="3.05725">
        <ele>671</ele>
        <time>2021-08-16T17:24:13Z</time>
      </trkpt>
      <trkpt lat="44.32443" lon="3.05725">
        <ele>671</ele>
        <time>2021-08-16T17:24:15Z</time>
      </trkpt>
      <trkpt lat="44.32443" lon="3.05724">
        <ele>671</ele>
        <time>2021-08-16T17:24:17Z</time>
      </trkpt>
      <trkpt lat="44.32443" lon="3.05724">
        <ele>670.9</ele>
        <time>2021-08-16T17:24:19Z</time>
      </trkpt>
      <trkpt lat="44.32445" lon="3.05726">
        <ele>671</ele>
        <time>2021-08-16T17:24:21Z</time>
      </trkpt>
      <trkpt lat="44.32447" lon="3.05728">
        <ele>671</ele>
        <time>2021-08-16T17:24:23Z</time>
      </trkpt>
      <trkpt lat="44.3245" lon="3.05728">
        <ele>671</ele>
        <time>2021-08-16T17:24:25Z</time>
      </trkpt>
      <trkpt lat="44.32455" lon="3.05726">
        <ele>670.9</ele>
        <time>2021-08-16T17:24:27Z</time>
      </trkpt>
      <trkpt lat="44.3246" lon="3.05726">
        <ele>670.9</ele>
        <time>2021-08-16T17:24:29Z</time>
      </trkpt>
      <trkpt lat="44.32464" lon="3.05725">
        <ele>670.9</ele>
        <time>2021-08-16T17:24:31Z</time>
      </trkpt>
      <trkpt lat="44.32468" lon="3.05723">
        <ele>670.8</ele>
        <time>2021-08-16T17:24:33Z</time>
      </trkpt>
      <trkpt lat="44.32473" lon="3.05722">
        <ele>670.8</ele>
        <time>2021-08-16T17:24:35Z</time>
      </trkpt>
      <trkpt lat="44.32478" lon="3.0572">
        <ele>670.7</ele>
        <time>2021-08-16T17:24:37Z</time>
      </trkpt>
      <trkpt lat="44.32484" lon="3.05719">
        <ele>670.7</ele>
        <time>2021-08-16T17:24:39Z</time>
      </trkpt>
      <trkpt lat="44.32488" lon="3.05724">
        <ele>670.7</ele>
        <time>2021-08-16T17:24:41Z</time>
      </trkpt>
      <trkpt lat="44.32491" lon="3.05731">
        <ele>670.8</ele>
        <time>2021-08-16T17:24:43Z</time>
      </trkpt>
      <trkpt lat="44.32494" lon="3.05738">
        <ele>670.9</ele>
        <time>2021-08-16T17:24:45Z</time>
      </trkpt>
      <trkpt lat="44.32495" lon="3.05742">
        <ele>671</ele>
        <time>2021-08-16T17:24:47Z</time>
      </trkpt>
      <trkpt lat="44.32498" lon="3.05745">
        <ele>671</ele>
        <time>2021-08-16T17:24:49Z</time>
      </trkpt>
      <trkpt lat="44.32501" lon="3.05745">
        <ele>670.9</ele>
        <time>2021-08-16T17:24:51Z</time>
      </trkpt>
      <trkpt lat="44.32507" lon="3.05743">
        <ele>670.8</ele>
        <time>2021-08-16T17:24:53Z</time>
      </trkpt>
      <trkpt lat="44.32513" lon="3.0574">
        <ele>670.6</ele>
        <time>2021-08-16T17:24:55Z</time>
      </trkpt>
      <trkpt lat="44.3252" lon="3.05738">
        <ele>670.4</ele>
        <time>2021-08-16T17:24:57Z</time>
      </trkpt>
      <trkpt lat="44.32527" lon="3.05735">
        <ele>670.2</ele>
        <time>2021-08-16T17:24:59Z</time>
      </trkpt>
      <trkpt lat="44.32533" lon="3.05732">
        <ele>670.1</ele>
        <time>2021-08-16T17:25:01Z</time>
      </trkpt>
      <trkpt lat="44.32543" lon="3.05727">
        <ele>669.8</ele>
        <time>2021-08-16T17:25:03Z</time>
      </trkpt>
      <trkpt lat="44.3255" lon="3.05723">
        <ele>669.7</ele>
        <time>2021-08-16T17:25:05Z</time>
      </trkpt>
      <trkpt lat="44.32557" lon="3.05718">
        <ele>669.5</ele>
        <time>2021-08-16T17:25:07Z</time>
      </trkpt>
      <trkpt lat="44.32564" lon="3.05712">
        <ele>669.4</ele>
        <time>2021-08-16T17:25:09Z</time>
      </trkpt>
      <trkpt lat="44.32571" lon="3.05705">
        <ele>669.2</ele>
        <time>2021-08-16T17:25:11Z</time>
      </trkpt>
      <trkpt lat="44.32577" lon="3.05698">
        <ele>669.1</ele>
        <time>2021-08-16T17:25:13Z</time>
      </trkpt>
      <trkpt lat="44.32583" lon="3.05691">
        <ele>669</ele>
        <time>2021-08-16T17:25:15Z</time>
      </trkpt>
      <trkpt lat="44.32589" lon="3.05685">
        <ele>669</ele>
        <time>2021-08-16T17:25:17Z</time>
      </trkpt>
      <trkpt lat="44.32596" lon="3.05679">
        <ele>669</ele>
        <time>2021-08-16T17:25:19Z</time>
      </trkpt>
      <trkpt lat="44.32602" lon="3.05672">
        <ele>669</ele>
        <time>2021-08-16T17:25:21Z</time>
      </trkpt>
      <trkpt lat="44.32608" lon="3.05666">
        <ele>669</ele>
        <time>2021-08-16T17:25:23Z</time>
      </trkpt>
      <trkpt lat="44.32616" lon="3.0566">
        <ele>668.9</ele>
        <time>2021-08-16T17:25:25Z</time>
      </trkpt>
      <trkpt lat="44.32623" lon="3.05654">
        <ele>668.8</ele>
        <time>2021-08-16T17:25:27Z</time>
      </trkpt>
      <trkpt lat="44.3263" lon="3.05649">
        <ele>668.8</ele>
        <time>2021-08-16T17:25:29Z</time>
      </trkpt>
      <trkpt lat="44.32637" lon="3.05645">
        <ele>668.8</ele>
        <time>2021-08-16T17:25:31Z</time>
      </trkpt>
      <trkpt lat="44.32644" lon="3.05642">
        <ele>668.8</ele>
        <time>2021-08-16T17:25:33Z</time>
      </trkpt>
      <trkpt lat="44.32652" lon="3.05639">
        <ele>668.9</ele>
        <time>2021-08-16T17:25:35Z</time>
      </trkpt>
      <trkpt lat="44.32659" lon="3.05636">
        <ele>668.9</ele>
        <time>2021-08-16T17:25:37Z</time>
      </trkpt>
      <trkpt lat="44.32666" lon="3.05632">
        <ele>669</ele>
        <time>2021-08-16T17:25:39Z</time>
      </trkpt>
      <trkpt lat="44.32672" lon="3.05629">
        <ele>669.1</ele>
        <time>2021-08-16T17:25:41Z</time>
      </trkpt>
      <trkpt lat="44.32679" lon="3.05627">
        <ele>669.2</ele>
        <time>2021-08-16T17:25:43Z</time>
      </trkpt>
      <trkpt lat="44.32687" lon="3.05623">
        <ele>669.3</ele>
        <time>2021-08-16T17:25:45Z</time>
      </trkpt>
      <trkpt lat="44.32694" lon="3.05619">
        <ele>669.4</ele>
        <time>2021-08-16T17:25:47Z</time>
      </trkpt>
      <trkpt lat="44.32702" lon="3.05617">
        <ele>669.5</ele>
        <time>2021-08-16T17:25:49Z</time>
      </trkpt>
      <trkpt lat="44.32709" lon="3.05614">
        <ele>669.6</ele>
        <time>2021-08-16T17:25:51Z</time>
      </trkpt>
      <trkpt lat="44.32717" lon="3.05612">
        <ele>669.6</ele>
        <time>2021-08-16T17:25:53Z</time>
      </trkpt>
      <trkpt lat="44.32724" lon="3.05609">
        <ele>669.6</ele>
        <time>2021-08-16T17:25:55Z</time>
      </trkpt>
      <trkpt lat="44.32731" lon="3.05606">
        <ele>669.6</ele>
        <time>2021-08-16T17:25:57Z</time>
      </trkpt>
      <trkpt lat="44.32737" lon="3.05602">
        <ele>669.6</ele>
        <time>2021-08-16T17:25:59Z</time>
      </trkpt>
      <trkpt lat="44.32744" lon="3.056">
        <ele>669.6</ele>
        <time>2021-08-16T17:26:01Z</time>
      </trkpt>
      <trkpt lat="44.3275" lon="3.05602">
        <ele>669.7</ele>
        <time>2021-08-16T17:26:03Z</time>
      </trkpt>
      <trkpt lat="44.32755" lon="3.05604">
        <ele>669.8</ele>
        <time>2021-08-16T17:26:05Z</time>
      </trkpt>
      <trkpt lat="44.3276" lon="3.05606">
        <ele>669.9</ele>
        <time>2021-08-16T17:26:07Z</time>
      </trkpt>
      <trkpt lat="44.32766" lon="3.05604">
        <ele>669.9</ele>
        <time>2021-08-16T17:26:09Z</time>
      </trkpt>
      <trkpt lat="44.32772" lon="3.05601">
        <ele>669.9</ele>
        <time>2021-08-16T17:26:11Z</time>
      </trkpt>
      <trkpt lat="44.32779" lon="3.05599">
        <ele>669.9</ele>
        <time>2021-08-16T17:26:13Z</time>
      </trkpt>
      <trkpt lat="44.32787" lon="3.05597">
        <ele>669.9</ele>
        <time>2021-08-16T17:26:15Z</time>
      </trkpt>
      <trkpt lat="44.32796" lon="3.05597">
        <ele>670</ele>
        <time>2021-08-16T17:26:17Z</time>
      </trkpt>
      <trkpt lat="44.32805" lon="3.05595">
        <ele>670.1</ele>
        <time>2021-08-16T17:26:19Z</time>
      </trkpt>
      <trkpt lat="44.32814" lon="3.05591">
        <ele>670</ele>
        <time>2021-08-16T17:26:21Z</time>
      </trkpt>
      <trkpt lat="44.32822" lon="3.05584">
        <ele>669.9</ele>
        <time>2021-08-16T17:26:23Z</time>
      </trkpt>
      <trkpt lat="44.32829" lon="3.05573">
        <ele>669.7</ele>
        <time>2021-08-16T17:26:25Z</time>
      </trkpt>
      <trkpt lat="44.32833" lon="3.05561">
        <ele>669.5</ele>
        <time>2021-08-16T17:26:27Z</time>
      </trkpt>
      <trkpt lat="44.32834" lon="3.05548">
        <ele>669.1</ele>
        <time>2021-08-16T17:26:29Z</time>
      </trkpt>
      <trkpt lat="44.32835" lon="3.05535">
        <ele>668.8</ele>
        <time>2021-08-16T17:26:31Z</time>
      </trkpt>
      <trkpt lat="44.3284" lon="3.05523">
        <ele>668.5</ele>
        <time>2021-08-16T17:26:33Z</time>
      </trkpt>
      <trkpt lat="44.32845" lon="3.05512">
        <ele>668.2</ele>
        <time>2021-08-16T17:26:35Z</time>
      </trkpt>
      <trkpt lat="44.32853" lon="3.05502">
        <ele>668</ele>
        <time>2021-08-16T17:26:37Z</time>
      </trkpt>
      <trkpt lat="44.3286" lon="3.05494">
        <ele>667.9</ele>
        <time>2021-08-16T17:26:39Z</time>
      </trkpt>
      <trkpt lat="44.32867" lon="3.05486">
        <ele>667.7</ele>
        <time>2021-08-16T17:26:41Z</time>
      </trkpt>
      <trkpt lat="44.32874" lon="3.0548">
        <ele>667.5</ele>
        <time>2021-08-16T17:26:43Z</time>
      </trkpt>
      <trkpt lat="44.32881" lon="3.05472">
        <ele>667.3</ele>
        <time>2021-08-16T17:26:45Z</time>
      </trkpt>
      <trkpt lat="44.32887" lon="3.05465">
        <ele>667.2</ele>
        <time>2021-08-16T17:26:47Z</time>
      </trkpt>
      <trkpt lat="44.32892" lon="3.05456">
        <ele>667</ele>
        <time>2021-08-16T17:26:49Z</time>
      </trkpt>
      <trkpt lat="44.32898" lon="3.05448">
        <ele>666.8</ele>
        <time>2021-08-16T17:26:51Z</time>
      </trkpt>
      <trkpt lat="44.32901" lon="3.05445">
        <ele>666.7</ele>
        <time>2021-08-16T17:26:53Z</time>
      </trkpt>
      <trkpt lat="44.32904" lon="3.05443">
        <ele>666.6</ele>
        <time>2021-08-16T17:26:55Z</time>
      </trkpt>
      <trkpt lat="44.32904" lon="3.05443">
        <ele>666.6</ele>
        <time>2021-08-16T17:26:57Z</time>
      </trkpt>
      <trkpt lat="44.32904" lon="3.05443">
        <ele>666.6</ele>
        <time>2021-08-16T17:26:59Z</time>
      </trkpt>
      <trkpt lat="44.32903" lon="3.05442">
        <ele>666.6</ele>
        <time>2021-08-16T17:27:01Z</time>
      </trkpt>
      <trkpt lat="44.32904" lon="3.05441">
        <ele>666.6</ele>
        <time>2021-08-16T17:27:03Z</time>
      </trkpt>
      <trkpt lat="44.32906" lon="3.05442">
        <ele>666.6</ele>
        <time>2021-08-16T17:27:05Z</time>
      </trkpt>
      <trkpt lat="44.3293" lon="3.05444">
        <ele>667.4</ele>
        <time>2021-08-16T17:27:17Z</time>
      </trkpt>
      <trkpt lat="44.32935" lon="3.0544">
        <ele>667.6</ele>
        <time>2021-08-16T17:27:19Z</time>
      </trkpt>
      <trkpt lat="44.3294" lon="3.05437">
        <ele>667.8</ele>
        <time>2021-08-16T17:27:21Z</time>
      </trkpt>
      <trkpt lat="44.32945" lon="3.05434">
        <ele>667.9</ele>
        <time>2021-08-16T17:27:23Z</time>
      </trkpt>
      <trkpt lat="44.32949" lon="3.05431">
        <ele>668</ele>
        <time>2021-08-16T17:27:25Z</time>
      </trkpt>
      <trkpt lat="44.32953" lon="3.05428">
        <ele>668.1</ele>
        <time>2021-08-16T17:27:27Z</time>
      </trkpt>
      <trkpt lat="44.32957" lon="3.05426">
        <ele>668.2</ele>
        <time>2021-08-16T17:27:29Z</time>
      </trkpt>
      <trkpt lat="44.32961" lon="3.05424">
        <ele>668.4</ele>
        <time>2021-08-16T17:27:31Z</time>
      </trkpt>
      <trkpt lat="44.32965" lon="3.05422">
        <ele>668.5</ele>
        <time>2021-08-16T17:27:33Z</time>
      </trkpt>
      <trkpt lat="44.32969" lon="3.05421">
        <ele>668.7</ele>
        <time>2021-08-16T17:27:35Z</time>
      </trkpt>
      <trkpt lat="44.32973" lon="3.05419">
        <ele>668.8</ele>
        <time>2021-08-16T17:27:37Z</time>
      </trkpt>
      <trkpt lat="44.32977" lon="3.05416">
        <ele>668.9</ele>
        <time>2021-08-16T17:27:39Z</time>
      </trkpt>
      <trkpt lat="44.32981" lon="3.05414">
        <ele>669</ele>
        <time>2021-08-16T17:27:41Z</time>
      </trkpt>
      <trkpt lat="44.32985" lon="3.05412">
        <ele>669</ele>
        <time>2021-08-16T17:27:43Z</time>
      </trkpt>
      <trkpt lat="44.32989" lon="3.0541">
        <ele>669.1</ele>
        <time>2021-08-16T17:27:45Z</time>
      </trkpt>
      <trkpt lat="44.32993" lon="3.05408">
        <ele>669.1</ele>
        <time>2021-08-16T17:27:47Z</time>
      </trkpt>
      <trkpt lat="44.32997" lon="3.05406">
        <ele>669.2</ele>
        <time>2021-08-16T17:27:49Z</time>
      </trkpt>
      <trkpt lat="44.33001" lon="3.05406">
        <ele>669.4</ele>
        <time>2021-08-16T17:27:51Z</time>
      </trkpt>
      <trkpt lat="44.33005" lon="3.05405">
        <ele>669.7</ele>
        <time>2021-08-16T17:27:53Z</time>
      </trkpt>
      <trkpt lat="44.33009" lon="3.05404">
        <ele>669.9</ele>
        <time>2021-08-16T17:27:55Z</time>
      </trkpt>
      <trkpt lat="44.33013" lon="3.05401">
        <ele>670</ele>
        <time>2021-08-16T17:27:57Z</time>
      </trkpt>
      <trkpt lat="44.33016" lon="3.05399">
        <ele>670.2</ele>
        <time>2021-08-16T17:27:59Z</time>
      </trkpt>
      <trkpt lat="44.3302" lon="3.05398">
        <ele>670.3</ele>
        <time>2021-08-16T17:28:01Z</time>
      </trkpt>
      <trkpt lat="44.33023" lon="3.05396">
        <ele>670.5</ele>
        <time>2021-08-16T17:28:03Z</time>
      </trkpt>
      <trkpt lat="44.33027" lon="3.05395">
        <ele>670.6</ele>
        <time>2021-08-16T17:28:05Z</time>
      </trkpt>
      <trkpt lat="44.3303" lon="3.05393">
        <ele>670.7</ele>
        <time>2021-08-16T17:28:07Z</time>
      </trkpt>
      <trkpt lat="44.33033" lon="3.05391">
        <ele>670.8</ele>
        <time>2021-08-16T17:28:09Z</time>
      </trkpt>
      <trkpt lat="44.33037" lon="3.05389">
        <ele>670.9</ele>
        <time>2021-08-16T17:28:11Z</time>
      </trkpt>
      <trkpt lat="44.3304" lon="3.05388">
        <ele>671</ele>
        <time>2021-08-16T17:28:13Z</time>
      </trkpt>
      <trkpt lat="44.33044" lon="3.05386">
        <ele>671.1</ele>
        <time>2021-08-16T17:28:15Z</time>
      </trkpt>
      <trkpt lat="44.33047" lon="3.05385">
        <ele>671.2</ele>
        <time>2021-08-16T17:28:17Z</time>
      </trkpt>
      <trkpt lat="44.33051" lon="3.05383">
        <ele>671.3</ele>
        <time>2021-08-16T17:28:19Z</time>
      </trkpt>
      <trkpt lat="44.33055" lon="3.05381">
        <ele>671.3</ele>
        <time>2021-08-16T17:28:21Z</time>
      </trkpt>
      <trkpt lat="44.33058" lon="3.05379">
        <ele>671.4</ele>
        <time>2021-08-16T17:28:23Z</time>
      </trkpt>
      <trkpt lat="44.33062" lon="3.05377">
        <ele>671.3</ele>
        <time>2021-08-16T17:28:25Z</time>
      </trkpt>
      <trkpt lat="44.33065" lon="3.05375">
        <ele>671.4</ele>
        <time>2021-08-16T17:28:27Z</time>
      </trkpt>
      <trkpt lat="44.33069" lon="3.05373">
        <ele>671.4</ele>
        <time>2021-08-16T17:28:29Z</time>
      </trkpt>
      <trkpt lat="44.33072" lon="3.05371">
        <ele>671.4</ele>
        <time>2021-08-16T17:28:31Z</time>
      </trkpt>
      <trkpt lat="44.33076" lon="3.05369">
        <ele>671.4</ele>
        <time>2021-08-16T17:28:33Z</time>
      </trkpt>
      <trkpt lat="44.33079" lon="3.05367">
        <ele>671.4</ele>
        <time>2021-08-16T17:28:35Z</time>
      </trkpt>
      <trkpt lat="44.33083" lon="3.05365">
        <ele>671.5</ele>
        <time>2021-08-16T17:28:37Z</time>
      </trkpt>
      <trkpt lat="44.33087" lon="3.05364">
        <ele>671.7</ele>
        <time>2021-08-16T17:28:39Z</time>
      </trkpt>
      <trkpt lat="44.33091" lon="3.05362">
        <ele>672</ele>
        <time>2021-08-16T17:28:41Z</time>
      </trkpt>
      <trkpt lat="44.33094" lon="3.0536">
        <ele>672.2</ele>
        <time>2021-08-16T17:28:43Z</time>
      </trkpt>
      <trkpt lat="44.33097" lon="3.05358">
        <ele>672.5</ele>
        <time>2021-08-16T17:28:45Z</time>
      </trkpt>
      <trkpt lat="44.33101" lon="3.05356">
        <ele>672.9</ele>
        <time>2021-08-16T17:28:47Z</time>
      </trkpt>
      <trkpt lat="44.33105" lon="3.05354">
        <ele>673.2</ele>
        <time>2021-08-16T17:28:49Z</time>
      </trkpt>
      <trkpt lat="44.33109" lon="3.05352">
        <ele>673.6</ele>
        <time>2021-08-16T17:28:51Z</time>
      </trkpt>
      <trkpt lat="44.33112" lon="3.05349">
        <ele>673.8</ele>
        <time>2021-08-16T17:28:53Z</time>
      </trkpt>
      <trkpt lat="44.33115" lon="3.05346">
        <ele>674.1</ele>
        <time>2021-08-16T17:28:55Z</time>
      </trkpt>
      <trkpt lat="44.33118" lon="3.05343">
        <ele>674.4</ele>
        <time>2021-08-16T17:28:57Z</time>
      </trkpt>
      <trkpt lat="44.33122" lon="3.0534">
        <ele>674.8</ele>
        <time>2021-08-16T17:28:59Z</time>
      </trkpt>
      <trkpt lat="44.33125" lon="3.05337">
        <ele>675.2</ele>
        <time>2021-08-16T17:29:01Z</time>
      </trkpt>
      <trkpt lat="44.33128" lon="3.05334">
        <ele>675.6</ele>
        <time>2021-08-16T17:29:03Z</time>
      </trkpt>
      <trkpt lat="44.33132" lon="3.05331">
        <ele>675.9</ele>
        <time>2021-08-16T17:29:05Z</time>
      </trkpt>
      <trkpt lat="44.33135" lon="3.05328">
        <ele>676.2</ele>
        <time>2021-08-16T17:29:07Z</time>
      </trkpt>
      <trkpt lat="44.33138" lon="3.05325">
        <ele>676.5</ele>
        <time>2021-08-16T17:29:09Z</time>
      </trkpt>
      <trkpt lat="44.33141" lon="3.05322">
        <ele>676.8</ele>
        <time>2021-08-16T17:29:11Z</time>
      </trkpt>
      <trkpt lat="44.33144" lon="3.05319">
        <ele>677</ele>
        <time>2021-08-16T17:29:13Z</time>
      </trkpt>
      <trkpt lat="44.33148" lon="3.05317">
        <ele>677.3</ele>
        <time>2021-08-16T17:29:15Z</time>
      </trkpt>
      <trkpt lat="44.33151" lon="3.05314">
        <ele>677.6</ele>
        <time>2021-08-16T17:29:17Z</time>
      </trkpt>
      <trkpt lat="44.33154" lon="3.05311">
        <ele>677.9</ele>
        <time>2021-08-16T17:29:19Z</time>
      </trkpt>
      <trkpt lat="44.33157" lon="3.05308">
        <ele>678.1</ele>
        <time>2021-08-16T17:29:21Z</time>
      </trkpt>
      <trkpt lat="44.33161" lon="3.05306">
        <ele>678.4</ele>
        <time>2021-08-16T17:29:23Z</time>
      </trkpt>
      <trkpt lat="44.33163" lon="3.05303">
        <ele>678.5</ele>
        <time>2021-08-16T17:29:25Z</time>
      </trkpt>
      <trkpt lat="44.33166" lon="3.053">
        <ele>678.7</ele>
        <time>2021-08-16T17:29:27Z</time>
      </trkpt>
      <trkpt lat="44.33169" lon="3.05297">
        <ele>678.7</ele>
        <time>2021-08-16T17:29:29Z</time>
      </trkpt>
      <trkpt lat="44.33171" lon="3.05296">
        <ele>678.8</ele>
        <time>2021-08-16T17:29:31Z</time>
      </trkpt>
      <trkpt lat="44.33173" lon="3.05294">
        <ele>678.8</ele>
        <time>2021-08-16T17:29:33Z</time>
      </trkpt>
      <trkpt lat="44.33175" lon="3.05293">
        <ele>678.9</ele>
        <time>2021-08-16T17:29:35Z</time>
      </trkpt>
      <trkpt lat="44.33176" lon="3.05292">
        <ele>678.9</ele>
        <time>2021-08-16T17:29:37Z</time>
      </trkpt>
      <trkpt lat="44.33176" lon="3.05292">
        <ele>678.9</ele>
        <time>2021-08-16T17:29:39Z</time>
      </trkpt>
      <trkpt lat="44.33176" lon="3.05292">
        <ele>678.9</ele>
        <time>2021-08-16T17:29:41Z</time>
      </trkpt>
      <trkpt lat="44.33178" lon="3.05292">
        <ele>679</ele>
        <time>2021-08-16T17:29:43Z</time>
      </trkpt>
      <trkpt lat="44.3318" lon="3.0529">
        <ele>679</ele>
        <time>2021-08-16T17:29:45Z</time>
      </trkpt>
      <trkpt lat="44.3318" lon="3.05287">
        <ele>678.7</ele>
        <time>2021-08-16T17:29:47Z</time>
      </trkpt>
      <trkpt lat="44.3318" lon="3.05281">
        <ele>678.2</ele>
        <time>2021-08-16T17:29:49Z</time>
      </trkpt>
      <trkpt lat="44.33183" lon="3.05273">
        <ele>677.8</ele>
        <time>2021-08-16T17:29:51Z</time>
      </trkpt>
      <trkpt lat="44.33187" lon="3.05263">
        <ele>677.3</ele>
        <time>2021-08-16T17:29:53Z</time>
      </trkpt>
      <trkpt lat="44.33192" lon="3.05254">
        <ele>677</ele>
        <time>2021-08-16T17:29:55Z</time>
      </trkpt>
      <trkpt lat="44.33198" lon="3.05247">
        <ele>677.2</ele>
        <time>2021-08-16T17:29:57Z</time>
      </trkpt>
      <trkpt lat="44.33204" lon="3.05242">
        <ele>677.6</ele>
        <time>2021-08-16T17:29:59Z</time>
      </trkpt>
      <trkpt lat="44.33209" lon="3.05236">
        <ele>678</ele>
        <time>2021-08-16T17:30:01Z</time>
      </trkpt>
      <trkpt lat="44.33214" lon="3.05233">
        <ele>678.3</ele>
        <time>2021-08-16T17:30:03Z</time>
      </trkpt>
      <trkpt lat="44.33219" lon="3.05228">
        <ele>678.7</ele>
        <time>2021-08-16T17:30:05Z</time>
      </trkpt>
      <trkpt lat="44.33224" lon="3.05223">
        <ele>679</ele>
        <time>2021-08-16T17:30:07Z</time>
      </trkpt>
      <trkpt lat="44.3323" lon="3.05219">
        <ele>679.5</ele>
        <time>2021-08-16T17:30:09Z</time>
      </trkpt>
      <trkpt lat="44.33236" lon="3.05215">
        <ele>680</ele>
        <time>2021-08-16T17:30:11Z</time>
      </trkpt>
      <trkpt lat="44.33241" lon="3.05211">
        <ele>680.6</ele>
        <time>2021-08-16T17:30:13Z</time>
      </trkpt>
      <trkpt lat="44.33246" lon="3.05206">
        <ele>681</ele>
        <time>2021-08-16T17:30:15Z</time>
      </trkpt>
      <trkpt lat="44.33252" lon="3.05201">
        <ele>681.4</ele>
        <time>2021-08-16T17:30:17Z</time>
      </trkpt>
      <trkpt lat="44.33256" lon="3.05197">
        <ele>681.5</ele>
        <time>2021-08-16T17:30:19Z</time>
      </trkpt>
      <trkpt lat="44.33261" lon="3.05194">
        <ele>681.6</ele>
        <time>2021-08-16T17:30:21Z</time>
      </trkpt>
      <trkpt lat="44.33267" lon="3.0519">
        <ele>681.8</ele>
        <time>2021-08-16T17:30:23Z</time>
      </trkpt>
      <trkpt lat="44.33272" lon="3.05188">
        <ele>681.9</ele>
        <time>2021-08-16T17:30:25Z</time>
      </trkpt>
      <trkpt lat="44.33276" lon="3.05184">
        <ele>682</ele>
        <time>2021-08-16T17:30:27Z</time>
      </trkpt>
      <trkpt lat="44.33281" lon="3.05181">
        <ele>682.1</ele>
        <time>2021-08-16T17:30:29Z</time>
      </trkpt>
      <trkpt lat="44.33286" lon="3.05178">
        <ele>682.2</ele>
        <time>2021-08-16T17:30:31Z</time>
      </trkpt>
      <trkpt lat="44.33291" lon="3.05175">
        <ele>682.4</ele>
        <time>2021-08-16T17:30:33Z</time>
      </trkpt>
      <trkpt lat="44.33295" lon="3.05173">
        <ele>682.5</ele>
        <time>2021-08-16T17:30:35Z</time>
      </trkpt>
      <trkpt lat="44.33299" lon="3.05171">
        <ele>682.6</ele>
        <time>2021-08-16T17:30:37Z</time>
      </trkpt>
      <trkpt lat="44.33304" lon="3.05169">
        <ele>682.7</ele>
        <time>2021-08-16T17:30:39Z</time>
      </trkpt>
      <trkpt lat="44.33308" lon="3.05166">
        <ele>682.8</ele>
        <time>2021-08-16T17:30:41Z</time>
      </trkpt>
      <trkpt lat="44.33313" lon="3.05163">
        <ele>682.8</ele>
        <time>2021-08-16T17:30:43Z</time>
      </trkpt>
      <trkpt lat="44.33317" lon="3.05159">
        <ele>682.8</ele>
        <time>2021-08-16T17:30:45Z</time>
      </trkpt>
      <trkpt lat="44.33322" lon="3.05157">
        <ele>682.8</ele>
        <time>2021-08-16T17:30:47Z</time>
      </trkpt>
      <trkpt lat="44.33326" lon="3.05153">
        <ele>682.9</ele>
        <time>2021-08-16T17:30:49Z</time>
      </trkpt>
      <trkpt lat="44.33331" lon="3.0515">
        <ele>682.9</ele>
        <time>2021-08-16T17:30:51Z</time>
      </trkpt>
      <trkpt lat="44.33335" lon="3.05147">
        <ele>682.9</ele>
        <time>2021-08-16T17:30:53Z</time>
      </trkpt>
      <trkpt lat="44.3334" lon="3.05144">
        <ele>682.8</ele>
        <time>2021-08-16T17:30:55Z</time>
      </trkpt>
      <trkpt lat="44.33344" lon="3.0514">
        <ele>682.8</ele>
        <time>2021-08-16T17:30:57Z</time>
      </trkpt>
      <trkpt lat="44.33349" lon="3.05137">
        <ele>682.8</ele>
        <time>2021-08-16T17:30:59Z</time>
      </trkpt>
      <trkpt lat="44.33354" lon="3.05134">
        <ele>682.8</ele>
        <time>2021-08-16T17:31:01Z</time>
      </trkpt>
      <trkpt lat="44.33359" lon="3.05131">
        <ele>682.8</ele>
        <time>2021-08-16T17:31:03Z</time>
      </trkpt>
      <trkpt lat="44.33363" lon="3.05127">
        <ele>682.9</ele>
        <time>2021-08-16T17:31:05Z</time>
      </trkpt>
      <trkpt lat="44.33368" lon="3.05122">
        <ele>682.8</ele>
        <time>2021-08-16T17:31:07Z</time>
      </trkpt>
      <trkpt lat="44.33372" lon="3.05119">
        <ele>682.8</ele>
        <time>2021-08-16T17:31:09Z</time>
      </trkpt>
      <trkpt lat="44.33376" lon="3.05116">
        <ele>682.9</ele>
        <time>2021-08-16T17:31:11Z</time>
      </trkpt>
      <trkpt lat="44.3338" lon="3.05111">
        <ele>682.9</ele>
        <time>2021-08-16T17:31:13Z</time>
      </trkpt>
      <trkpt lat="44.33384" lon="3.05108">
        <ele>683</ele>
        <time>2021-08-16T17:31:15Z</time>
      </trkpt>
      <trkpt lat="44.33389" lon="3.05105">
        <ele>683.1</ele>
        <time>2021-08-16T17:31:17Z</time>
      </trkpt>
      <trkpt lat="44.33393" lon="3.05101">
        <ele>683.2</ele>
        <time>2021-08-16T17:31:19Z</time>
      </trkpt>
      <trkpt lat="44.33396" lon="3.05097">
        <ele>683.2</ele>
        <time>2021-08-16T17:31:21Z</time>
      </trkpt>
      <trkpt lat="44.334" lon="3.05094">
        <ele>683.3</ele>
        <time>2021-08-16T17:31:23Z</time>
      </trkpt>
      <trkpt lat="44.33404" lon="3.0509">
        <ele>683.4</ele>
        <time>2021-08-16T17:31:25Z</time>
      </trkpt>
      <trkpt lat="44.33408" lon="3.05086">
        <ele>683.6</ele>
        <time>2021-08-16T17:31:27Z</time>
      </trkpt>
      <trkpt lat="44.33412" lon="3.05082">
        <ele>683.7</ele>
        <time>2021-08-16T17:31:29Z</time>
      </trkpt>
      <trkpt lat="44.33417" lon="3.05079">
        <ele>683.9</ele>
        <time>2021-08-16T17:31:31Z</time>
      </trkpt>
      <trkpt lat="44.33421" lon="3.05075">
        <ele>684.2</ele>
        <time>2021-08-16T17:31:33Z</time>
      </trkpt>
      <trkpt lat="44.33426" lon="3.05072">
        <ele>684.4</ele>
        <time>2021-08-16T17:31:35Z</time>
      </trkpt>
      <trkpt lat="44.3343" lon="3.0507">
        <ele>684.7</ele>
        <time>2021-08-16T17:31:37Z</time>
      </trkpt>
      <trkpt lat="44.33435" lon="3.05068">
        <ele>685</ele>
        <time>2021-08-16T17:31:39Z</time>
      </trkpt>
      <trkpt lat="44.3344" lon="3.05066">
        <ele>685.3</ele>
        <time>2021-08-16T17:31:41Z</time>
      </trkpt>
      <trkpt lat="44.33445" lon="3.05064">
        <ele>685.6</ele>
        <time>2021-08-16T17:31:43Z</time>
      </trkpt>
      <trkpt lat="44.3345" lon="3.05062">
        <ele>685.9</ele>
        <time>2021-08-16T17:31:45Z</time>
      </trkpt>
      <trkpt lat="44.33454" lon="3.05061">
        <ele>686.2</ele>
        <time>2021-08-16T17:31:47Z</time>
      </trkpt>
      <trkpt lat="44.33459" lon="3.0506">
        <ele>686.5</ele>
        <time>2021-08-16T17:31:49Z</time>
      </trkpt>
      <trkpt lat="44.33463" lon="3.05059">
        <ele>686.8</ele>
        <time>2021-08-16T17:31:51Z</time>
      </trkpt>
      <trkpt lat="44.33467" lon="3.05058">
        <ele>687.1</ele>
        <time>2021-08-16T17:31:53Z</time>
      </trkpt>
      <trkpt lat="44.33472" lon="3.05058">
        <ele>687.3</ele>
        <time>2021-08-16T17:31:55Z</time>
      </trkpt>
      <trkpt lat="44.33476" lon="3.05057">
        <ele>687.6</ele>
        <time>2021-08-16T17:31:57Z</time>
      </trkpt>
      <trkpt lat="44.3348" lon="3.05056">
        <ele>687.9</ele>
        <time>2021-08-16T17:31:59Z</time>
      </trkpt>
      <trkpt lat="44.33484" lon="3.05056">
        <ele>688.2</ele>
        <time>2021-08-16T17:32:01Z</time>
      </trkpt>
      <trkpt lat="44.33488" lon="3.05054">
        <ele>688.4</ele>
        <time>2021-08-16T17:32:03Z</time>
      </trkpt>
      <trkpt lat="44.33493" lon="3.05053">
        <ele>688.8</ele>
        <time>2021-08-16T17:32:05Z</time>
      </trkpt>
      <trkpt lat="44.33497" lon="3.05053">
        <ele>689</ele>
        <time>2021-08-16T17:32:07Z</time>
      </trkpt>
      <trkpt lat="44.33501" lon="3.05051">
        <ele>689.2</ele>
        <time>2021-08-16T17:32:09Z</time>
      </trkpt>
      <trkpt lat="44.33507" lon="3.0505">
        <ele>689.3</ele>
        <time>2021-08-16T17:32:11Z</time>
      </trkpt>
      <trkpt lat="44.33513" lon="3.05049">
        <ele>689.3</ele>
        <time>2021-08-16T17:32:13Z</time>
      </trkpt>
      <trkpt lat="44.3352" lon="3.05049">
        <ele>689.3</ele>
        <time>2021-08-16T17:32:15Z</time>
      </trkpt>
      <trkpt lat="44.33526" lon="3.05051">
        <ele>689.5</ele>
        <time>2021-08-16T17:32:17Z</time>
      </trkpt>
      <trkpt lat="44.33531" lon="3.05054">
        <ele>689.6</ele>
        <time>2021-08-16T17:32:19Z</time>
      </trkpt>
      <trkpt lat="44.33537" lon="3.05055">
        <ele>689.8</ele>
        <time>2021-08-16T17:32:21Z</time>
      </trkpt>
      <trkpt lat="44.33542" lon="3.05057">
        <ele>689.9</ele>
        <time>2021-08-16T17:32:23Z</time>
      </trkpt>
      <trkpt lat="44.33548" lon="3.05058">
        <ele>690</ele>
        <time>2021-08-16T17:32:25Z</time>
      </trkpt>
      <trkpt lat="44.33554" lon="3.0506">
        <ele>690.2</ele>
        <time>2021-08-16T17:32:27Z</time>
      </trkpt>
      <trkpt lat="44.33561" lon="3.0506">
        <ele>690.3</ele>
        <time>2021-08-16T17:32:29Z</time>
      </trkpt>
      <trkpt lat="44.33566" lon="3.05063">
        <ele>690.5</ele>
        <time>2021-08-16T17:32:31Z</time>
      </trkpt>
      <trkpt lat="44.33572" lon="3.05064">
        <ele>690.7</ele>
        <time>2021-08-16T17:32:33Z</time>
      </trkpt>
      <trkpt lat="44.33579" lon="3.05066">
        <ele>690.9</ele>
        <time>2021-08-16T17:32:35Z</time>
      </trkpt>
      <trkpt lat="44.33585" lon="3.05069">
        <ele>691.1</ele>
        <time>2021-08-16T17:32:37Z</time>
      </trkpt>
      <trkpt lat="44.33591" lon="3.05071">
        <ele>691.3</ele>
        <time>2021-08-16T17:32:39Z</time>
      </trkpt>
      <trkpt lat="44.33597" lon="3.05074">
        <ele>691.6</ele>
        <time>2021-08-16T17:32:41Z</time>
      </trkpt>
      <trkpt lat="44.33603" lon="3.05076">
        <ele>691.8</ele>
        <time>2021-08-16T17:32:43Z</time>
      </trkpt>
      <trkpt lat="44.33608" lon="3.05079">
        <ele>692</ele>
        <time>2021-08-16T17:32:45Z</time>
      </trkpt>
      <trkpt lat="44.33614" lon="3.05082">
        <ele>692.3</ele>
        <time>2021-08-16T17:32:47Z</time>
      </trkpt>
      <trkpt lat="44.33619" lon="3.05085">
        <ele>692.6</ele>
        <time>2021-08-16T17:32:49Z</time>
      </trkpt>
      <trkpt lat="44.33624" lon="3.05087">
        <ele>692.8</ele>
        <time>2021-08-16T17:32:51Z</time>
      </trkpt>
      <trkpt lat="44.33629" lon="3.05089">
        <ele>693</ele>
        <time>2021-08-16T17:32:53Z</time>
      </trkpt>
      <trkpt lat="44.33634" lon="3.05091">
        <ele>693.2</ele>
        <time>2021-08-16T17:32:55Z</time>
      </trkpt>
      <trkpt lat="44.33639" lon="3.05093">
        <ele>693.5</ele>
        <time>2021-08-16T17:32:57Z</time>
      </trkpt>
      <trkpt lat="44.33644" lon="3.05095">
        <ele>693.7</ele>
        <time>2021-08-16T17:32:59Z</time>
      </trkpt>
      <trkpt lat="44.33649" lon="3.05097">
        <ele>694</ele>
        <time>2021-08-16T17:33:01Z</time>
      </trkpt>
      <trkpt lat="44.33655" lon="3.05099">
        <ele>694.3</ele>
        <time>2021-08-16T17:33:03Z</time>
      </trkpt>
      <trkpt lat="44.3366" lon="3.05101">
        <ele>694.6</ele>
        <time>2021-08-16T17:33:05Z</time>
      </trkpt>
      <trkpt lat="44.33665" lon="3.05103">
        <ele>694.8</ele>
        <time>2021-08-16T17:33:07Z</time>
      </trkpt>
      <trkpt lat="44.33669" lon="3.05106">
        <ele>695.1</ele>
        <time>2021-08-16T17:33:09Z</time>
      </trkpt>
      <trkpt lat="44.33674" lon="3.05107">
        <ele>695.3</ele>
        <time>2021-08-16T17:33:11Z</time>
      </trkpt>
      <trkpt lat="44.33679" lon="3.05109">
        <ele>695.4</ele>
        <time>2021-08-16T17:33:13Z</time>
      </trkpt>
      <trkpt lat="44.33684" lon="3.05112">
        <ele>695.7</ele>
        <time>2021-08-16T17:33:15Z</time>
      </trkpt>
      <trkpt lat="44.33688" lon="3.05114">
        <ele>695.8</ele>
        <time>2021-08-16T17:33:17Z</time>
      </trkpt>
      <trkpt lat="44.33693" lon="3.05115">
        <ele>696</ele>
        <time>2021-08-16T17:33:19Z</time>
      </trkpt>
      <trkpt lat="44.33698" lon="3.05118">
        <ele>696.2</ele>
        <time>2021-08-16T17:33:21Z</time>
      </trkpt>
      <trkpt lat="44.33702" lon="3.0512">
        <ele>696.4</ele>
        <time>2021-08-16T17:33:23Z</time>
      </trkpt>
      <trkpt lat="44.33707" lon="3.05122">
        <ele>696.5</ele>
        <time>2021-08-16T17:33:25Z</time>
      </trkpt>
      <trkpt lat="44.33711" lon="3.05125">
        <ele>696.7</ele>
        <time>2021-08-16T17:33:27Z</time>
      </trkpt>
      <trkpt lat="44.33715" lon="3.05127">
        <ele>696.9</ele>
        <time>2021-08-16T17:33:29Z</time>
      </trkpt>
      <trkpt lat="44.3372" lon="3.0513">
        <ele>697.1</ele>
        <time>2021-08-16T17:33:31Z</time>
      </trkpt>
      <trkpt lat="44.33724" lon="3.05133">
        <ele>697.3</ele>
        <time>2021-08-16T17:33:33Z</time>
      </trkpt>
      <trkpt lat="44.33728" lon="3.05135">
        <ele>697.5</ele>
        <time>2021-08-16T17:33:35Z</time>
      </trkpt>
      <trkpt lat="44.33732" lon="3.05138">
        <ele>697.7</ele>
        <time>2021-08-16T17:33:37Z</time>
      </trkpt>
      <trkpt lat="44.33736" lon="3.0514">
        <ele>697.9</ele>
        <time>2021-08-16T17:33:39Z</time>
      </trkpt>
      <trkpt lat="44.3374" lon="3.05142">
        <ele>698</ele>
        <time>2021-08-16T17:33:41Z</time>
      </trkpt>
      <trkpt lat="44.33744" lon="3.05145">
        <ele>698.2</ele>
        <time>2021-08-16T17:33:43Z</time>
      </trkpt>
      <trkpt lat="44.33748" lon="3.05147">
        <ele>698.4</ele>
        <time>2021-08-16T17:33:45Z</time>
      </trkpt>
      <trkpt lat="44.33752" lon="3.0515">
        <ele>698.7</ele>
        <time>2021-08-16T17:33:47Z</time>
      </trkpt>
      <trkpt lat="44.33757" lon="3.05153">
        <ele>699.1</ele>
        <time>2021-08-16T17:33:49Z</time>
      </trkpt>
      <trkpt lat="44.33762" lon="3.05155">
        <ele>699.5</ele>
        <time>2021-08-16T17:33:51Z</time>
      </trkpt>
      <trkpt lat="44.33766" lon="3.05157">
        <ele>699.8</ele>
        <time>2021-08-16T17:33:53Z</time>
      </trkpt>
      <trkpt lat="44.33771" lon="3.0516">
        <ele>700.2</ele>
        <time>2021-08-16T17:33:55Z</time>
      </trkpt>
      <trkpt lat="44.33775" lon="3.05162">
        <ele>700.5</ele>
        <time>2021-08-16T17:33:57Z</time>
      </trkpt>
      <trkpt lat="44.33779" lon="3.05164">
        <ele>700.8</ele>
        <time>2021-08-16T17:33:59Z</time>
      </trkpt>
      <trkpt lat="44.33784" lon="3.05166">
        <ele>701.2</ele>
        <time>2021-08-16T17:34:01Z</time>
      </trkpt>
      <trkpt lat="44.33789" lon="3.05168">
        <ele>701.4</ele>
        <time>2021-08-16T17:34:03Z</time>
      </trkpt>
      <trkpt lat="44.33793" lon="3.05171">
        <ele>701.7</ele>
        <time>2021-08-16T17:34:05Z</time>
      </trkpt>
      <trkpt lat="44.33798" lon="3.05172">
        <ele>701.9</ele>
        <time>2021-08-16T17:34:07Z</time>
      </trkpt>
      <trkpt lat="44.33802" lon="3.05175">
        <ele>702.1</ele>
        <time>2021-08-16T17:34:09Z</time>
      </trkpt>
      <trkpt lat="44.33806" lon="3.05176">
        <ele>702.3</ele>
        <time>2021-08-16T17:34:11Z</time>
      </trkpt>
      <trkpt lat="44.33811" lon="3.05178">
        <ele>702.4</ele>
        <time>2021-08-16T17:34:13Z</time>
      </trkpt>
      <trkpt lat="44.33815" lon="3.0518">
        <ele>702.6</ele>
        <time>2021-08-16T17:34:15Z</time>
      </trkpt>
      <trkpt lat="44.33819" lon="3.05182">
        <ele>702.8</ele>
        <time>2021-08-16T17:34:17Z</time>
      </trkpt>
      <trkpt lat="44.33823" lon="3.05184">
        <ele>702.9</ele>
        <time>2021-08-16T17:34:19Z</time>
      </trkpt>
      <trkpt lat="44.33828" lon="3.05186">
        <ele>703.1</ele>
        <time>2021-08-16T17:34:21Z</time>
      </trkpt>
      <trkpt lat="44.33832" lon="3.05188">
        <ele>703.2</ele>
        <time>2021-08-16T17:34:23Z</time>
      </trkpt>
      <trkpt lat="44.33836" lon="3.05191">
        <ele>703.3</ele>
        <time>2021-08-16T17:34:25Z</time>
      </trkpt>
      <trkpt lat="44.3384" lon="3.05193">
        <ele>703.4</ele>
        <time>2021-08-16T17:34:27Z</time>
      </trkpt>
      <trkpt lat="44.33843" lon="3.05195">
        <ele>703.5</ele>
        <time>2021-08-16T17:34:29Z</time>
      </trkpt>
      <trkpt lat="44.33846" lon="3.05199">
        <ele>703.6</ele>
        <time>2021-08-16T17:34:31Z</time>
      </trkpt>
      <trkpt lat="44.3385" lon="3.05202">
        <ele>703.7</ele>
        <time>2021-08-16T17:34:33Z</time>
      </trkpt>
      <trkpt lat="44.33853" lon="3.05207">
        <ele>703.8</ele>
        <time>2021-08-16T17:34:35Z</time>
      </trkpt>
      <trkpt lat="44.33855" lon="3.05211">
        <ele>703.9</ele>
        <time>2021-08-16T17:34:37Z</time>
      </trkpt>
      <trkpt lat="44.33858" lon="3.05215">
        <ele>704</ele>
        <time>2021-08-16T17:34:39Z</time>
      </trkpt>
      <trkpt lat="44.33861" lon="3.0522">
        <ele>704.1</ele>
        <time>2021-08-16T17:34:41Z</time>
      </trkpt>
      <trkpt lat="44.33865" lon="3.05224">
        <ele>704.2</ele>
        <time>2021-08-16T17:34:43Z</time>
      </trkpt>
      <trkpt lat="44.33869" lon="3.0523">
        <ele>704.3</ele>
        <time>2021-08-16T17:34:45Z</time>
      </trkpt>
      <trkpt lat="44.33874" lon="3.05237">
        <ele>704.4</ele>
        <time>2021-08-16T17:34:47Z</time>
      </trkpt>
      <trkpt lat="44.33879" lon="3.05245">
        <ele>704.5</ele>
        <time>2021-08-16T17:34:49Z</time>
      </trkpt>
      <trkpt lat="44.33885" lon="3.05253">
        <ele>704.5</ele>
        <time>2021-08-16T17:34:51Z</time>
      </trkpt>
      <trkpt lat="44.3389" lon="3.05261">
        <ele>704.3</ele>
        <time>2021-08-16T17:34:53Z</time>
      </trkpt>
      <trkpt lat="44.33896" lon="3.0527">
        <ele>704.2</ele>
        <time>2021-08-16T17:34:55Z</time>
      </trkpt>
      <trkpt lat="44.33903" lon="3.05278">
        <ele>704</ele>
        <time>2021-08-16T17:34:57Z</time>
      </trkpt>
      <trkpt lat="44.3391" lon="3.05287">
        <ele>704</ele>
        <time>2021-08-16T17:34:59Z</time>
      </trkpt>
      <trkpt lat="44.33914" lon="3.05292">
        <ele>703.9</ele>
        <time>2021-08-16T17:35:01Z</time>
      </trkpt>
      <trkpt lat="44.33916" lon="3.05298">
        <ele>703.8</ele>
        <time>2021-08-16T17:35:03Z</time>
      </trkpt>
      <trkpt lat="44.3392" lon="3.05301">
        <ele>703.8</ele>
        <time>2021-08-16T17:35:05Z</time>
      </trkpt>
      <trkpt lat="44.33923" lon="3.05307">
        <ele>703.7</ele>
        <time>2021-08-16T17:35:07Z</time>
      </trkpt>
      <trkpt lat="44.33927" lon="3.05312">
        <ele>703.6</ele>
        <time>2021-08-16T17:35:09Z</time>
      </trkpt>
      <trkpt lat="44.33929" lon="3.05317">
        <ele>703.6</ele>
        <time>2021-08-16T17:35:11Z</time>
      </trkpt>
      <trkpt lat="44.33932" lon="3.0532">
        <ele>703.5</ele>
        <time>2021-08-16T17:35:13Z</time>
      </trkpt>
      <trkpt lat="44.33934" lon="3.05324">
        <ele>703.4</ele>
        <time>2021-08-16T17:35:15Z</time>
      </trkpt>
      <trkpt lat="44.33937" lon="3.0533">
        <ele>703.3</ele>
        <time>2021-08-16T17:35:17Z</time>
      </trkpt>
      <trkpt lat="44.3394" lon="3.05336">
        <ele>703.3</ele>
        <time>2021-08-16T17:35:19Z</time>
      </trkpt>
      <trkpt lat="44.33943" lon="3.05341">
        <ele>703.5</ele>
        <time>2021-08-16T17:35:21Z</time>
      </trkpt>
      <trkpt lat="44.33947" lon="3.05347">
        <ele>703.7</ele>
        <time>2021-08-16T17:35:23Z</time>
      </trkpt>
      <trkpt lat="44.33951" lon="3.05353">
        <ele>704</ele>
        <time>2021-08-16T17:35:25Z</time>
      </trkpt>
      <trkpt lat="44.33955" lon="3.05358">
        <ele>704.2</ele>
        <time>2021-08-16T17:35:27Z</time>
      </trkpt>
      <trkpt lat="44.33959" lon="3.05362">
        <ele>704.4</ele>
        <time>2021-08-16T17:35:29Z</time>
      </trkpt>
      <trkpt lat="44.33963" lon="3.05367">
        <ele>704.6</ele>
        <time>2021-08-16T17:35:31Z</time>
      </trkpt>
      <trkpt lat="44.33968" lon="3.0537">
        <ele>704.8</ele>
        <time>2021-08-16T17:35:33Z</time>
      </trkpt>
      <trkpt lat="44.33973" lon="3.05373">
        <ele>704.9</ele>
        <time>2021-08-16T17:35:35Z</time>
      </trkpt>
      <trkpt lat="44.33977" lon="3.05376">
        <ele>705.1</ele>
        <time>2021-08-16T17:35:37Z</time>
      </trkpt>
      <trkpt lat="44.33981" lon="3.05378">
        <ele>705.3</ele>
        <time>2021-08-16T17:35:39Z</time>
      </trkpt>
      <trkpt lat="44.33985" lon="3.0538">
        <ele>705.4</ele>
        <time>2021-08-16T17:35:41Z</time>
      </trkpt>
      <trkpt lat="44.33989" lon="3.05383">
        <ele>705.6</ele>
        <time>2021-08-16T17:35:43Z</time>
      </trkpt>
      <trkpt lat="44.33994" lon="3.05385">
        <ele>705.7</ele>
        <time>2021-08-16T17:35:45Z</time>
      </trkpt>
      <trkpt lat="44.33998" lon="3.05387">
        <ele>705.9</ele>
        <time>2021-08-16T17:35:47Z</time>
      </trkpt>
      <trkpt lat="44.34003" lon="3.05389">
        <ele>706.1</ele>
        <time>2021-08-16T17:35:49Z</time>
      </trkpt>
      <trkpt lat="44.34007" lon="3.0539">
        <ele>706.2</ele>
        <time>2021-08-16T17:35:51Z</time>
      </trkpt>
      <trkpt lat="44.34011" lon="3.05392">
        <ele>706.4</ele>
        <time>2021-08-16T17:35:53Z</time>
      </trkpt>
      <trkpt lat="44.34015" lon="3.05395">
        <ele>706.6</ele>
        <time>2021-08-16T17:35:55Z</time>
      </trkpt>
      <trkpt lat="44.34019" lon="3.05397">
        <ele>706.8</ele>
        <time>2021-08-16T17:35:57Z</time>
      </trkpt>
      <trkpt lat="44.34023" lon="3.054">
        <ele>707</ele>
        <time>2021-08-16T17:35:59Z</time>
      </trkpt>
      <trkpt lat="44.34027" lon="3.05402">
        <ele>707.2</ele>
        <time>2021-08-16T17:36:01Z</time>
      </trkpt>
      <trkpt lat="44.34031" lon="3.05405">
        <ele>707.4</ele>
        <time>2021-08-16T17:36:03Z</time>
      </trkpt>
      <trkpt lat="44.34035" lon="3.05407">
        <ele>707.5</ele>
        <time>2021-08-16T17:36:05Z</time>
      </trkpt>
      <trkpt lat="44.34038" lon="3.05409">
        <ele>707.7</ele>
        <time>2021-08-16T17:36:07Z</time>
      </trkpt>
      <trkpt lat="44.34042" lon="3.05411">
        <ele>707.8</ele>
        <time>2021-08-16T17:36:09Z</time>
      </trkpt>
      <trkpt lat="44.34046" lon="3.05412">
        <ele>708</ele>
        <time>2021-08-16T17:36:11Z</time>
      </trkpt>
      <trkpt lat="44.34049" lon="3.05414">
        <ele>708.1</ele>
        <time>2021-08-16T17:36:13Z</time>
      </trkpt>
      <trkpt lat="44.34053" lon="3.05416">
        <ele>708.3</ele>
        <time>2021-08-16T17:36:15Z</time>
      </trkpt>
      <trkpt lat="44.34057" lon="3.05417">
        <ele>708.4</ele>
        <time>2021-08-16T17:36:17Z</time>
      </trkpt>
      <trkpt lat="44.34061" lon="3.05419">
        <ele>708.6</ele>
        <time>2021-08-16T17:36:19Z</time>
      </trkpt>
      <trkpt lat="44.34065" lon="3.05421">
        <ele>708.8</ele>
        <time>2021-08-16T17:36:21Z</time>
      </trkpt>
      <trkpt lat="44.34068" lon="3.05423">
        <ele>709</ele>
        <time>2021-08-16T17:36:23Z</time>
      </trkpt>
      <trkpt lat="44.34072" lon="3.05425">
        <ele>709.2</ele>
        <time>2021-08-16T17:36:25Z</time>
      </trkpt>
      <trkpt lat="44.34075" lon="3.05426">
        <ele>709.4</ele>
        <time>2021-08-16T17:36:27Z</time>
      </trkpt>
      <trkpt lat="44.34079" lon="3.05429">
        <ele>709.6</ele>
        <time>2021-08-16T17:36:29Z</time>
      </trkpt>
      <trkpt lat="44.34083" lon="3.05433">
        <ele>710</ele>
        <time>2021-08-16T17:36:31Z</time>
      </trkpt>
      <trkpt lat="44.34085" lon="3.05436">
        <ele>710.3</ele>
        <time>2021-08-16T17:36:33Z</time>
      </trkpt>
      <trkpt lat="44.34089" lon="3.05439">
        <ele>710.6</ele>
        <time>2021-08-16T17:36:35Z</time>
      </trkpt>
      <trkpt lat="44.34093" lon="3.05441">
        <ele>710.9</ele>
        <time>2021-08-16T17:36:37Z</time>
      </trkpt>
      <trkpt lat="44.34096" lon="3.05444">
        <ele>711.3</ele>
        <time>2021-08-16T17:36:39Z</time>
      </trkpt>
      <trkpt lat="44.341" lon="3.05447">
        <ele>711.7</ele>
        <time>2021-08-16T17:36:41Z</time>
      </trkpt>
      <trkpt lat="44.34103" lon="3.0545">
        <ele>712.1</ele>
        <time>2021-08-16T17:36:43Z</time>
      </trkpt>
      <trkpt lat="44.34106" lon="3.05453">
        <ele>712.4</ele>
        <time>2021-08-16T17:36:45Z</time>
      </trkpt>
      <trkpt lat="44.34109" lon="3.05455">
        <ele>712.7</ele>
        <time>2021-08-16T17:36:47Z</time>
      </trkpt>
      <trkpt lat="44.34113" lon="3.05459">
        <ele>713.1</ele>
        <time>2021-08-16T17:36:49Z</time>
      </trkpt>
      <trkpt lat="44.34117" lon="3.05462">
        <ele>713.5</ele>
        <time>2021-08-16T17:36:51Z</time>
      </trkpt>
      <trkpt lat="44.34121" lon="3.05463">
        <ele>713.9</ele>
        <time>2021-08-16T17:36:53Z</time>
      </trkpt>
      <trkpt lat="44.34126" lon="3.05464">
        <ele>714.1</ele>
        <time>2021-08-16T17:36:55Z</time>
      </trkpt>
      <trkpt lat="44.3413" lon="3.05465">
        <ele>714.5</ele>
        <time>2021-08-16T17:36:57Z</time>
      </trkpt>
      <trkpt lat="44.34134" lon="3.05466">
        <ele>714.8</ele>
        <time>2021-08-16T17:36:59Z</time>
      </trkpt>
      <trkpt lat="44.34139" lon="3.05466">
        <ele>715</ele>
        <time>2021-08-16T17:37:01Z</time>
      </trkpt>
      <trkpt lat="44.34143" lon="3.05467">
        <ele>715.3</ele>
        <time>2021-08-16T17:37:03Z</time>
      </trkpt>
      <trkpt lat="44.34148" lon="3.05466">
        <ele>715.5</ele>
        <time>2021-08-16T17:37:05Z</time>
      </trkpt>
      <trkpt lat="44.34152" lon="3.05467">
        <ele>715.8</ele>
        <time>2021-08-16T17:37:07Z</time>
      </trkpt>
      <trkpt lat="44.34157" lon="3.05465">
        <ele>716</ele>
        <time>2021-08-16T17:37:09Z</time>
      </trkpt>
      <trkpt lat="44.34161" lon="3.05465">
        <ele>716.2</ele>
        <time>2021-08-16T17:37:11Z</time>
      </trkpt>
      <trkpt lat="44.34166" lon="3.05465">
        <ele>716.5</ele>
        <time>2021-08-16T17:37:13Z</time>
      </trkpt>
      <trkpt lat="44.34172" lon="3.05464">
        <ele>716.5</ele>
        <time>2021-08-16T17:37:15Z</time>
      </trkpt>
      <trkpt lat="44.34177" lon="3.05464">
        <ele>716.6</ele>
        <time>2021-08-16T17:37:17Z</time>
      </trkpt>
      <trkpt lat="44.34182" lon="3.05463">
        <ele>716.6</ele>
        <time>2021-08-16T17:37:19Z</time>
      </trkpt>
      <trkpt lat="44.34188" lon="3.05462">
        <ele>716.6</ele>
        <time>2021-08-16T17:37:21Z</time>
      </trkpt>
      <trkpt lat="44.34194" lon="3.05461">
        <ele>716.7</ele>
        <time>2021-08-16T17:37:23Z</time>
      </trkpt>
      <trkpt lat="44.342" lon="3.0546">
        <ele>716.7</ele>
        <time>2021-08-16T17:37:25Z</time>
      </trkpt>
      <trkpt lat="44.34206" lon="3.05458">
        <ele>716.7</ele>
        <time>2021-08-16T17:37:27Z</time>
      </trkpt>
      <trkpt lat="44.34212" lon="3.05456">
        <ele>716.7</ele>
        <time>2021-08-16T17:37:29Z</time>
      </trkpt>
      <trkpt lat="44.34219" lon="3.05455">
        <ele>716.7</ele>
        <time>2021-08-16T17:37:31Z</time>
      </trkpt>
      <trkpt lat="44.34224" lon="3.05453">
        <ele>716.7</ele>
        <time>2021-08-16T17:37:33Z</time>
      </trkpt>
      <trkpt lat="44.3423" lon="3.05451">
        <ele>716.7</ele>
        <time>2021-08-16T17:37:35Z</time>
      </trkpt>
      <trkpt lat="44.34236" lon="3.0545">
        <ele>716.7</ele>
        <time>2021-08-16T17:37:37Z</time>
      </trkpt>
      <trkpt lat="44.34242" lon="3.05449">
        <ele>716.8</ele>
        <time>2021-08-16T17:37:39Z</time>
      </trkpt>
      <trkpt lat="44.34247" lon="3.05446">
        <ele>716.7</ele>
        <time>2021-08-16T17:37:41Z</time>
      </trkpt>
      <trkpt lat="44.34252" lon="3.05444">
        <ele>716.7</ele>
        <time>2021-08-16T17:37:43Z</time>
      </trkpt>
      <trkpt lat="44.34257" lon="3.05442">
        <ele>716.8</ele>
        <time>2021-08-16T17:37:45Z</time>
      </trkpt>
      <trkpt lat="44.34262" lon="3.0544">
        <ele>716.9</ele>
        <time>2021-08-16T17:37:47Z</time>
      </trkpt>
      <trkpt lat="44.34267" lon="3.05438">
        <ele>717</ele>
        <time>2021-08-16T17:37:49Z</time>
      </trkpt>
      <trkpt lat="44.34271" lon="3.05436">
        <ele>717.1</ele>
        <time>2021-08-16T17:37:51Z</time>
      </trkpt>
      <trkpt lat="44.34275" lon="3.05434">
        <ele>717.2</ele>
        <time>2021-08-16T17:37:53Z</time>
      </trkpt>
      <trkpt lat="44.34279" lon="3.05432">
        <ele>717.3</ele>
        <time>2021-08-16T17:37:55Z</time>
      </trkpt>
      <trkpt lat="44.34284" lon="3.05429">
        <ele>717.5</ele>
        <time>2021-08-16T17:37:57Z</time>
      </trkpt>
      <trkpt lat="44.34288" lon="3.05425">
        <ele>717.6</ele>
        <time>2021-08-16T17:37:59Z</time>
      </trkpt>
      <trkpt lat="44.34292" lon="3.05422">
        <ele>717.7</ele>
        <time>2021-08-16T17:38:01Z</time>
      </trkpt>
      <trkpt lat="44.34296" lon="3.05419">
        <ele>717.8</ele>
        <time>2021-08-16T17:38:03Z</time>
      </trkpt>
      <trkpt lat="44.34301" lon="3.05418">
        <ele>718.1</ele>
        <time>2021-08-16T17:38:05Z</time>
      </trkpt>
      <trkpt lat="44.34304" lon="3.05417">
        <ele>718.3</ele>
        <time>2021-08-16T17:38:07Z</time>
      </trkpt>
      <trkpt lat="44.34307" lon="3.05417">
        <ele>718.4</ele>
        <time>2021-08-16T17:38:09Z</time>
      </trkpt>
      <trkpt lat="44.34309" lon="3.05417">
        <ele>718.5</ele>
        <time>2021-08-16T17:38:11Z</time>
      </trkpt>
      <trkpt lat="44.3431" lon="3.05414">
        <ele>718.6</ele>
        <time>2021-08-16T17:38:13Z</time>
      </trkpt>
      <trkpt lat="44.34311" lon="3.05409">
        <ele>718.6</ele>
        <time>2021-08-16T17:38:15Z</time>
      </trkpt>
      <trkpt lat="44.34311" lon="3.05406">
        <ele>718.6</ele>
        <time>2021-08-16T17:38:17Z</time>
      </trkpt>
      <trkpt lat="44.34312" lon="3.05406">
        <ele>718.6</ele>
        <time>2021-08-16T17:38:19Z</time>
      </trkpt>
      <trkpt lat="44.34312" lon="3.05406">
        <ele>718.6</ele>
        <time>2021-08-16T17:38:21Z</time>
      </trkpt>
      <trkpt lat="44.34312" lon="3.05406">
        <ele>718.6</ele>
        <time>2021-08-16T17:38:23Z</time>
      </trkpt>
      <trkpt lat="44.34308" lon="3.05422">
        <ele>718.6</ele>
        <time>2021-08-16T17:39:31Z</time>
      </trkpt>
      <trkpt lat="44.34311" lon="3.05428">
        <ele>718.9</ele>
        <time>2021-08-16T17:39:33Z</time>
      </trkpt>
      <trkpt lat="44.34313" lon="3.05433">
        <ele>719</ele>
        <time>2021-08-16T17:39:35Z</time>
      </trkpt>
      <trkpt lat="44.34314" lon="3.05438">
        <ele>719.1</ele>
        <time>2021-08-16T17:39:37Z</time>
      </trkpt>
      <trkpt lat="44.34317" lon="3.05442">
        <ele>719.3</ele>
        <time>2021-08-16T17:39:39Z</time>
      </trkpt>
      <trkpt lat="44.34318" lon="3.05446">
        <ele>719.4</ele>
        <time>2021-08-16T17:39:41Z</time>
      </trkpt>
      <trkpt lat="44.3432" lon="3.05448">
        <ele>719.5</ele>
        <time>2021-08-16T17:39:43Z</time>
      </trkpt>
      <trkpt lat="44.34321" lon="3.05448">
        <ele>719.5</ele>
        <time>2021-08-16T17:39:45Z</time>
      </trkpt>
      <trkpt lat="44.34322" lon="3.05451">
        <ele>719.6</ele>
        <time>2021-08-16T17:39:47Z</time>
      </trkpt>
      <trkpt lat="44.34323" lon="3.05453">
        <ele>719.6</ele>
        <time>2021-08-16T17:39:49Z</time>
      </trkpt>
      <trkpt lat="44.34322" lon="3.05452">
        <ele>719.6</ele>
        <time>2021-08-16T17:39:51Z</time>
      </trkpt>
      <trkpt lat="44.34323" lon="3.05451">
        <ele>719.6</ele>
        <time>2021-08-16T17:39:53Z</time>
      </trkpt>
      <trkpt lat="44.34323" lon="3.05448">
        <ele>719.6</ele>
        <time>2021-08-16T17:39:55Z</time>
      </trkpt>
      <trkpt lat="44.34321" lon="3.05445">
        <ele>719.5</ele>
        <time>2021-08-16T17:39:57Z</time>
      </trkpt>
      <trkpt lat="44.34314" lon="3.05435">
        <ele>719.1</ele>
        <time>2021-08-16T17:44:53Z</time>
      </trkpt>
      <trkpt lat="44.34316" lon="3.0544">
        <ele>719.2</ele>
        <time>2021-08-16T17:44:55Z</time>
      </trkpt>
      <trkpt lat="44.34318" lon="3.05447">
        <ele>719.4</ele>
        <time>2021-08-16T17:44:57Z</time>
      </trkpt>
      <trkpt lat="44.3432" lon="3.05453">
        <ele>719.5</ele>
        <time>2021-08-16T17:44:59Z</time>
      </trkpt>
      <trkpt lat="44.34321" lon="3.05459">
        <ele>719.6</ele>
        <time>2021-08-16T17:45:01Z</time>
      </trkpt>
      <trkpt lat="44.34323" lon="3.05465">
        <ele>719.7</ele>
        <time>2021-08-16T17:45:03Z</time>
      </trkpt>
      <trkpt lat="44.34324" lon="3.0547">
        <ele>719.8</ele>
        <time>2021-08-16T17:45:05Z</time>
      </trkpt>
      <trkpt lat="44.34324" lon="3.05474">
        <ele>719.8</ele>
        <time>2021-08-16T17:45:07Z</time>
      </trkpt>
      <trkpt lat="44.34324" lon="3.0548">
        <ele>719.9</ele>
        <time>2021-08-16T17:45:09Z</time>
      </trkpt>
      <trkpt lat="44.34323" lon="3.05485">
        <ele>719.9</ele>
        <time>2021-08-16T17:45:11Z</time>
      </trkpt>
      <trkpt lat="44.34322" lon="3.0549">
        <ele>719.9</ele>
        <time>2021-08-16T17:45:13Z</time>
      </trkpt>
      <trkpt lat="44.34321" lon="3.05495">
        <ele>720</ele>
        <time>2021-08-16T17:45:15Z</time>
      </trkpt>
      <trkpt lat="44.34319" lon="3.05499">
        <ele>720</ele>
        <time>2021-08-16T17:45:17Z</time>
      </trkpt>
      <trkpt lat="44.34317" lon="3.05503">
        <ele>720.2</ele>
        <time>2021-08-16T17:45:19Z</time>
      </trkpt>
      <trkpt lat="44.34316" lon="3.05507">
        <ele>720.4</ele>
        <time>2021-08-16T17:45:21Z</time>
      </trkpt>
      <trkpt lat="44.34314" lon="3.05512">
        <ele>720.6</ele>
        <time>2021-08-16T17:45:23Z</time>
      </trkpt>
      <trkpt lat="44.34312" lon="3.05516">
        <ele>720.9</ele>
        <time>2021-08-16T17:45:25Z</time>
      </trkpt>
      <trkpt lat="44.3431" lon="3.0552">
        <ele>721.1</ele>
        <time>2021-08-16T17:45:27Z</time>
      </trkpt>
      <trkpt lat="44.34309" lon="3.05525">
        <ele>721.4</ele>
        <time>2021-08-16T17:45:29Z</time>
      </trkpt>
      <trkpt lat="44.34307" lon="3.05529">
        <ele>721.6</ele>
        <time>2021-08-16T17:45:31Z</time>
      </trkpt>
      <trkpt lat="44.34305" lon="3.05534">
        <ele>721.9</ele>
        <time>2021-08-16T17:45:33Z</time>
      </trkpt>
      <trkpt lat="44.34304" lon="3.05538">
        <ele>722.2</ele>
        <time>2021-08-16T17:45:35Z</time>
      </trkpt>
      <trkpt lat="44.34302" lon="3.05543">
        <ele>722.5</ele>
        <time>2021-08-16T17:45:37Z</time>
      </trkpt>
      <trkpt lat="44.34302" lon="3.05548">
        <ele>722.7</ele>
        <time>2021-08-16T17:45:39Z</time>
      </trkpt>
      <trkpt lat="44.343" lon="3.05551">
        <ele>723</ele>
        <time>2021-08-16T17:45:41Z</time>
      </trkpt>
      <trkpt lat="44.34299" lon="3.05556">
        <ele>723.2</ele>
        <time>2021-08-16T17:45:43Z</time>
      </trkpt>
      <trkpt lat="44.34298" lon="3.0556">
        <ele>723.5</ele>
        <time>2021-08-16T17:45:45Z</time>
      </trkpt>
      <trkpt lat="44.34296" lon="3.05564">
        <ele>723.8</ele>
        <time>2021-08-16T17:45:47Z</time>
      </trkpt>
      <trkpt lat="44.34296" lon="3.05569">
        <ele>724.1</ele>
        <time>2021-08-16T17:45:49Z</time>
      </trkpt>
      <trkpt lat="44.34295" lon="3.05574">
        <ele>724.4</ele>
        <time>2021-08-16T17:45:51Z</time>
      </trkpt>
      <trkpt lat="44.34293" lon="3.05578">
        <ele>724.6</ele>
        <time>2021-08-16T17:45:53Z</time>
      </trkpt>
      <trkpt lat="44.34291" lon="3.05582">
        <ele>724.9</ele>
        <time>2021-08-16T17:45:55Z</time>
      </trkpt>
      <trkpt lat="44.34291" lon="3.05587">
        <ele>725.2</ele>
        <time>2021-08-16T17:45:57Z</time>
      </trkpt>
      <trkpt lat="44.3429" lon="3.05591">
        <ele>725.5</ele>
        <time>2021-08-16T17:45:59Z</time>
      </trkpt>
      <trkpt lat="44.34289" lon="3.05595">
        <ele>725.7</ele>
        <time>2021-08-16T17:46:01Z</time>
      </trkpt>
      <trkpt lat="44.34288" lon="3.05599">
        <ele>725.9</ele>
        <time>2021-08-16T17:46:03Z</time>
      </trkpt>
      <trkpt lat="44.34287" lon="3.05603">
        <ele>726.2</ele>
        <time>2021-08-16T17:46:05Z</time>
      </trkpt>
      <trkpt lat="44.34286" lon="3.05607">
        <ele>726.4</ele>
        <time>2021-08-16T17:46:07Z</time>
      </trkpt>
      <trkpt lat="44.34285" lon="3.05611">
        <ele>726.6</ele>
        <time>2021-08-16T17:46:09Z</time>
      </trkpt>
      <trkpt lat="44.34284" lon="3.05616">
        <ele>726.9</ele>
        <time>2021-08-16T17:46:11Z</time>
      </trkpt>
      <trkpt lat="44.34283" lon="3.0562">
        <ele>727.1</ele>
        <time>2021-08-16T17:46:13Z</time>
      </trkpt>
      <trkpt lat="44.34281" lon="3.05625">
        <ele>727.4</ele>
        <time>2021-08-16T17:46:15Z</time>
      </trkpt>
      <trkpt lat="44.3428" lon="3.0563">
        <ele>727.7</ele>
        <time>2021-08-16T17:46:17Z</time>
      </trkpt>
      <trkpt lat="44.3428" lon="3.05635">
        <ele>728</ele>
        <time>2021-08-16T17:46:19Z</time>
      </trkpt>
      <trkpt lat="44.34279" lon="3.0564">
        <ele>728.3</ele>
        <time>2021-08-16T17:46:21Z</time>
      </trkpt>
      <trkpt lat="44.34279" lon="3.05645">
        <ele>728.5</ele>
        <time>2021-08-16T17:46:23Z</time>
      </trkpt>
      <trkpt lat="44.3428" lon="3.05649">
        <ele>728.7</ele>
        <time>2021-08-16T17:46:25Z</time>
      </trkpt>
      <trkpt lat="44.34282" lon="3.05653">
        <ele>728.9</ele>
        <time>2021-08-16T17:46:27Z</time>
      </trkpt>
      <trkpt lat="44.34283" lon="3.05656">
        <ele>729.1</ele>
        <time>2021-08-16T17:46:29Z</time>
      </trkpt>
      <trkpt lat="44.34285" lon="3.05659">
        <ele>729.2</ele>
        <time>2021-08-16T17:46:31Z</time>
      </trkpt>
      <trkpt lat="44.34287" lon="3.05663">
        <ele>729.4</ele>
        <time>2021-08-16T17:46:33Z</time>
      </trkpt>
      <trkpt lat="44.3429" lon="3.05667">
        <ele>729.5</ele>
        <time>2021-08-16T17:46:35Z</time>
      </trkpt>
      <trkpt lat="44.34292" lon="3.05669">
        <ele>729.6</ele>
        <time>2021-08-16T17:46:37Z</time>
      </trkpt>
      <trkpt lat="44.34295" lon="3.05672">
        <ele>729.6</ele>
        <time>2021-08-16T17:46:39Z</time>
      </trkpt>
      <trkpt lat="44.34299" lon="3.05675">
        <ele>729.7</ele>
        <time>2021-08-16T17:46:41Z</time>
      </trkpt>
      <trkpt lat="44.34302" lon="3.05677">
        <ele>729.8</ele>
        <time>2021-08-16T17:46:43Z</time>
      </trkpt>
      <trkpt lat="44.34306" lon="3.0568">
        <ele>729.9</ele>
        <time>2021-08-16T17:46:45Z</time>
      </trkpt>
      <trkpt lat="44.34309" lon="3.05683">
        <ele>730</ele>
        <time>2021-08-16T17:46:47Z</time>
      </trkpt>
      <trkpt lat="44.34314" lon="3.05684">
        <ele>730.1</ele>
        <time>2021-08-16T17:46:49Z</time>
      </trkpt>
      <trkpt lat="44.34318" lon="3.05686">
        <ele>730.2</ele>
        <time>2021-08-16T17:46:51Z</time>
      </trkpt>
      <trkpt lat="44.34322" lon="3.05688">
        <ele>730.3</ele>
        <time>2021-08-16T17:46:53Z</time>
      </trkpt>
      <trkpt lat="44.34326" lon="3.0569">
        <ele>730.4</ele>
        <time>2021-08-16T17:46:55Z</time>
      </trkpt>
      <trkpt lat="44.3433" lon="3.05691">
        <ele>730.5</ele>
        <time>2021-08-16T17:46:57Z</time>
      </trkpt>
      <trkpt lat="44.34334" lon="3.05692">
        <ele>730.5</ele>
        <time>2021-08-16T17:46:59Z</time>
      </trkpt>
      <trkpt lat="44.34337" lon="3.05694">
        <ele>730.8</ele>
        <time>2021-08-16T17:47:01Z</time>
      </trkpt>
      <trkpt lat="44.34341" lon="3.05695">
        <ele>731.1</ele>
        <time>2021-08-16T17:47:03Z</time>
      </trkpt>
      <trkpt lat="44.34344" lon="3.05697">
        <ele>731.4</ele>
        <time>2021-08-16T17:47:05Z</time>
      </trkpt>
      <trkpt lat="44.34347" lon="3.057">
        <ele>731.7</ele>
        <time>2021-08-16T17:47:07Z</time>
      </trkpt>
      <trkpt lat="44.3435" lon="3.05703">
        <ele>732</ele>
        <time>2021-08-16T17:47:09Z</time>
      </trkpt>
      <trkpt lat="44.34353" lon="3.05704">
        <ele>732.3</ele>
        <time>2021-08-16T17:47:11Z</time>
      </trkpt>
      <trkpt lat="44.34356" lon="3.05708">
        <ele>732.7</ele>
        <time>2021-08-16T17:47:13Z</time>
      </trkpt>
      <trkpt lat="44.34358" lon="3.05712">
        <ele>733.1</ele>
        <time>2021-08-16T17:47:15Z</time>
      </trkpt>
      <trkpt lat="44.34361" lon="3.05715">
        <ele>733.4</ele>
        <time>2021-08-16T17:47:17Z</time>
      </trkpt>
      <trkpt lat="44.34363" lon="3.05718">
        <ele>733.7</ele>
        <time>2021-08-16T17:47:19Z</time>
      </trkpt>
      <trkpt lat="44.34366" lon="3.05722">
        <ele>734.1</ele>
        <time>2021-08-16T17:47:21Z</time>
      </trkpt>
      <trkpt lat="44.34369" lon="3.05725">
        <ele>734.5</ele>
        <time>2021-08-16T17:47:23Z</time>
      </trkpt>
      <trkpt lat="44.34371" lon="3.05729">
        <ele>734.9</ele>
        <time>2021-08-16T17:47:25Z</time>
      </trkpt>
      <trkpt lat="44.34373" lon="3.05732">
        <ele>735.3</ele>
        <time>2021-08-16T17:47:27Z</time>
      </trkpt>
      <trkpt lat="44.34376" lon="3.05736">
        <ele>735.6</ele>
        <time>2021-08-16T17:47:29Z</time>
      </trkpt>
      <trkpt lat="44.34378" lon="3.05739">
        <ele>736</ele>
        <time>2021-08-16T17:47:31Z</time>
      </trkpt>
      <trkpt lat="44.3438" lon="3.05743">
        <ele>736.3</ele>
        <time>2021-08-16T17:47:33Z</time>
      </trkpt>
      <trkpt lat="44.34382" lon="3.05746">
        <ele>736.6</ele>
        <time>2021-08-16T17:47:35Z</time>
      </trkpt>
      <trkpt lat="44.34385" lon="3.05749">
        <ele>737</ele>
        <time>2021-08-16T17:47:37Z</time>
      </trkpt>
      <trkpt lat="44.34387" lon="3.05752">
        <ele>737.2</ele>
        <time>2021-08-16T17:47:39Z</time>
      </trkpt>
      <trkpt lat="44.34389" lon="3.05755">
        <ele>737.4</ele>
        <time>2021-08-16T17:47:41Z</time>
      </trkpt>
      <trkpt lat="44.34392" lon="3.05758">
        <ele>737.7</ele>
        <time>2021-08-16T17:47:43Z</time>
      </trkpt>
      <trkpt lat="44.34393" lon="3.05762">
        <ele>737.8</ele>
        <time>2021-08-16T17:47:45Z</time>
      </trkpt>
      <trkpt lat="44.34396" lon="3.05765">
        <ele>738</ele>
        <time>2021-08-16T17:47:47Z</time>
      </trkpt>
      <trkpt lat="44.34398" lon="3.05768">
        <ele>738.2</ele>
        <time>2021-08-16T17:47:49Z</time>
      </trkpt>
      <trkpt lat="44.344" lon="3.05771">
        <ele>738.4</ele>
        <time>2021-08-16T17:47:51Z</time>
      </trkpt>
      <trkpt lat="44.34403" lon="3.05774">
        <ele>738.7</ele>
        <time>2021-08-16T17:47:53Z</time>
      </trkpt>
      <trkpt lat="44.34406" lon="3.05778">
        <ele>738.9</ele>
        <time>2021-08-16T17:47:55Z</time>
      </trkpt>
      <trkpt lat="44.34408" lon="3.05781">
        <ele>739.2</ele>
        <time>2021-08-16T17:47:57Z</time>
      </trkpt>
      <trkpt lat="44.34411" lon="3.05785">
        <ele>739.4</ele>
        <time>2021-08-16T17:47:59Z</time>
      </trkpt>
      <trkpt lat="44.34414" lon="3.05788">
        <ele>739.7</ele>
        <time>2021-08-16T17:48:01Z</time>
      </trkpt>
      <trkpt lat="44.34417" lon="3.05792">
        <ele>740</ele>
        <time>2021-08-16T17:48:03Z</time>
      </trkpt>
      <trkpt lat="44.34419" lon="3.05795">
        <ele>740.2</ele>
        <time>2021-08-16T17:48:05Z</time>
      </trkpt>
      <trkpt lat="44.34421" lon="3.05798">
        <ele>740.3</ele>
        <time>2021-08-16T17:48:07Z</time>
      </trkpt>
      <trkpt lat="44.34424" lon="3.05801">
        <ele>740.5</ele>
        <time>2021-08-16T17:48:09Z</time>
      </trkpt>
      <trkpt lat="44.34426" lon="3.05804">
        <ele>740.7</ele>
        <time>2021-08-16T17:48:11Z</time>
      </trkpt>
      <trkpt lat="44.34428" lon="3.05806">
        <ele>740.8</ele>
        <time>2021-08-16T17:48:13Z</time>
      </trkpt>
      <trkpt lat="44.34431" lon="3.0581">
        <ele>741</ele>
        <time>2021-08-16T17:48:15Z</time>
      </trkpt>
      <trkpt lat="44.34434" lon="3.05813">
        <ele>741.2</ele>
        <time>2021-08-16T17:48:17Z</time>
      </trkpt>
      <trkpt lat="44.34436" lon="3.05816">
        <ele>741.4</ele>
        <time>2021-08-16T17:48:19Z</time>
      </trkpt>
      <trkpt lat="44.34439" lon="3.05819">
        <ele>741.6</ele>
        <time>2021-08-16T17:48:21Z</time>
      </trkpt>
      <trkpt lat="44.34441" lon="3.05822">
        <ele>741.8</ele>
        <time>2021-08-16T17:48:23Z</time>
      </trkpt>
      <trkpt lat="44.34443" lon="3.05826">
        <ele>742</ele>
        <time>2021-08-16T17:48:25Z</time>
      </trkpt>
      <trkpt lat="44.34446" lon="3.0583">
        <ele>742.3</ele>
        <time>2021-08-16T17:48:27Z</time>
      </trkpt>
      <trkpt lat="44.34448" lon="3.05834">
        <ele>742.5</ele>
        <time>2021-08-16T17:48:29Z</time>
      </trkpt>
      <trkpt lat="44.3445" lon="3.05839">
        <ele>742.5</ele>
        <time>2021-08-16T17:48:31Z</time>
      </trkpt>
      <trkpt lat="44.34453" lon="3.05842">
        <ele>742.6</ele>
        <time>2021-08-16T17:48:33Z</time>
      </trkpt>
      <trkpt lat="44.34456" lon="3.05845">
        <ele>742.8</ele>
        <time>2021-08-16T17:48:35Z</time>
      </trkpt>
      <trkpt lat="44.34459" lon="3.05847">
        <ele>742.9</ele>
        <time>2021-08-16T17:48:37Z</time>
      </trkpt>
      <trkpt lat="44.34461" lon="3.0585">
        <ele>742.9</ele>
        <time>2021-08-16T17:48:39Z</time>
      </trkpt>
      <trkpt lat="44.34463" lon="3.05853">
        <ele>743</ele>
        <time>2021-08-16T17:48:41Z</time>
      </trkpt>
      <trkpt lat="44.34465" lon="3.05856">
        <ele>743.1</ele>
        <time>2021-08-16T17:48:43Z</time>
      </trkpt>
      <trkpt lat="44.34468" lon="3.05858">
        <ele>743.2</ele>
        <time>2021-08-16T17:48:45Z</time>
      </trkpt>
      <trkpt lat="44.34472" lon="3.05861">
        <ele>743.3</ele>
        <time>2021-08-16T17:48:47Z</time>
      </trkpt>
      <trkpt lat="44.34475" lon="3.05862">
        <ele>743.5</ele>
        <time>2021-08-16T17:48:49Z</time>
      </trkpt>
      <trkpt lat="44.34477" lon="3.05863">
        <ele>743.6</ele>
        <time>2021-08-16T17:48:51Z</time>
      </trkpt>
      <trkpt lat="44.3448" lon="3.05866">
        <ele>743.7</ele>
        <time>2021-08-16T17:48:53Z</time>
      </trkpt>
      <trkpt lat="44.34484" lon="3.05866">
        <ele>743.8</ele>
        <time>2021-08-16T17:48:55Z</time>
      </trkpt>
      <trkpt lat="44.34487" lon="3.05867">
        <ele>744</ele>
        <time>2021-08-16T17:48:57Z</time>
      </trkpt>
      <trkpt lat="44.3449" lon="3.05868">
        <ele>744.1</ele>
        <time>2021-08-16T17:48:59Z</time>
      </trkpt>
      <trkpt lat="44.34492" lon="3.05867">
        <ele>744.2</ele>
        <time>2021-08-16T17:49:01Z</time>
      </trkpt>
      <trkpt lat="44.34493" lon="3.05867">
        <ele>744.3</ele>
        <time>2021-08-16T17:49:03Z</time>
      </trkpt>
      <trkpt lat="44.34493" lon="3.05867">
        <ele>744.3</ele>
        <time>2021-08-16T17:49:05Z</time>
      </trkpt>
      <trkpt lat="44.34493" lon="3.05867">
        <ele>744.3</ele>
        <time>2021-08-16T17:49:07Z</time>
      </trkpt>
      <trkpt lat="44.34493" lon="3.05867">
        <ele>744.3</ele>
        <time>2021-08-16T17:49:09Z</time>
      </trkpt>
      <trkpt lat="44.34507" lon="3.05871">
        <ele>744.7</ele>
        <time>2021-08-16T17:49:25Z</time>
      </trkpt>
      <trkpt lat="44.34511" lon="3.05872">
        <ele>744.8</ele>
        <time>2021-08-16T17:49:27Z</time>
      </trkpt>
      <trkpt lat="44.34514" lon="3.05873">
        <ele>744.9</ele>
        <time>2021-08-16T17:49:29Z</time>
      </trkpt>
      <trkpt lat="44.34518" lon="3.05874">
        <ele>745</ele>
        <time>2021-08-16T17:49:31Z</time>
      </trkpt>
      <trkpt lat="44.34522" lon="3.05873">
        <ele>745</ele>
        <time>2021-08-16T17:49:33Z</time>
      </trkpt>
      <trkpt lat="44.34525" lon="3.05874">
        <ele>745.1</ele>
        <time>2021-08-16T17:49:35Z</time>
      </trkpt>
      <trkpt lat="44.34528" lon="3.05874">
        <ele>745.2</ele>
        <time>2021-08-16T17:49:37Z</time>
      </trkpt>
      <trkpt lat="44.34531" lon="3.05874">
        <ele>745.3</ele>
        <time>2021-08-16T17:49:39Z</time>
      </trkpt>
      <trkpt lat="44.34534" lon="3.05872">
        <ele>745.4</ele>
        <time>2021-08-16T17:49:41Z</time>
      </trkpt>
      <trkpt lat="44.34538" lon="3.05869">
        <ele>745.5</ele>
        <time>2021-08-16T17:49:43Z</time>
      </trkpt>
      <trkpt lat="44.34541" lon="3.05866">
        <ele>745.6</ele>
        <time>2021-08-16T17:49:45Z</time>
      </trkpt>
      <trkpt lat="44.34545" lon="3.05862">
        <ele>745.7</ele>
        <time>2021-08-16T17:49:47Z</time>
      </trkpt>
      <trkpt lat="44.34548" lon="3.0586">
        <ele>745.8</ele>
        <time>2021-08-16T17:49:49Z</time>
      </trkpt>
      <trkpt lat="44.34549" lon="3.05857">
        <ele>745.9</ele>
        <time>2021-08-16T17:49:51Z</time>
      </trkpt>
      <trkpt lat="44.34554" lon="3.05857">
        <ele>746</ele>
        <time>2021-08-16T17:49:53Z</time>
      </trkpt>
      <trkpt lat="44.34557" lon="3.05857">
        <ele>746.1</ele>
        <time>2021-08-16T17:49:55Z</time>
      </trkpt>
      <trkpt lat="44.3456" lon="3.05857">
        <ele>746.2</ele>
        <time>2021-08-16T17:49:57Z</time>
      </trkpt>
      <trkpt lat="44.34563" lon="3.05857">
        <ele>746.2</ele>
        <time>2021-08-16T17:49:59Z</time>
      </trkpt>
      <trkpt lat="44.34567" lon="3.05856">
        <ele>746.3</ele>
        <time>2021-08-16T17:50:01Z</time>
      </trkpt>
      <trkpt lat="44.3457" lon="3.05855">
        <ele>746.4</ele>
        <time>2021-08-16T17:50:03Z</time>
      </trkpt>
      <trkpt lat="44.34572" lon="3.05856">
        <ele>746.5</ele>
        <time>2021-08-16T17:50:05Z</time>
      </trkpt>
      <trkpt lat="44.34572" lon="3.05855">
        <ele>746.5</ele>
        <time>2021-08-16T17:50:07Z</time>
      </trkpt>
      <trkpt lat="44.34572" lon="3.05855">
        <ele>746.5</ele>
        <time>2021-08-16T17:50:09Z</time>
      </trkpt>
      <trkpt lat="44.34572" lon="3.05855">
        <ele>746.5</ele>
        <time>2021-08-16T17:50:11Z</time>
      </trkpt>
      <trkpt lat="44.34573" lon="3.05854">
        <ele>746.5</ele>
        <time>2021-08-16T17:50:13Z</time>
      </trkpt>
      <trkpt lat="44.34547" lon="3.05863">
        <ele>745.8</ele>
        <time>2021-08-16T17:50:31Z</time>
      </trkpt>
      <trkpt lat="44.34542" lon="3.05871">
        <ele>745.6</ele>
        <time>2021-08-16T17:50:33Z</time>
      </trkpt>
      <trkpt lat="44.34537" lon="3.05876">
        <ele>745.4</ele>
        <time>2021-08-16T17:50:35Z</time>
      </trkpt>
      <trkpt lat="44.34532" lon="3.05876">
        <ele>745.3</ele>
        <time>2021-08-16T17:50:37Z</time>
      </trkpt>
      <trkpt lat="44.3453" lon="3.05878">
        <ele>745.2</ele>
        <time>2021-08-16T17:50:39Z</time>
      </trkpt>
      <trkpt lat="44.34528" lon="3.0588">
        <ele>745.1</ele>
        <time>2021-08-16T17:50:41Z</time>
      </trkpt>
      <trkpt lat="44.34524" lon="3.05879">
        <ele>745</ele>
        <time>2021-08-16T17:50:43Z</time>
      </trkpt>
      <trkpt lat="44.3452" lon="3.05878">
        <ele>744.9</ele>
        <time>2021-08-16T17:50:45Z</time>
      </trkpt>
      <trkpt lat="44.34515" lon="3.05877">
        <ele>744.9</ele>
        <time>2021-08-16T17:50:47Z</time>
      </trkpt>
      <trkpt lat="44.3451" lon="3.05876">
        <ele>744.7</ele>
        <time>2021-08-16T17:50:49Z</time>
      </trkpt>
      <trkpt lat="44.34505" lon="3.05875">
        <ele>744.6</ele>
        <time>2021-08-16T17:50:51Z</time>
      </trkpt>
      <trkpt lat="44.34501" lon="3.05872">
        <ele>744.5</ele>
        <time>2021-08-16T17:50:53Z</time>
      </trkpt>
      <trkpt lat="44.34495" lon="3.0587">
        <ele>744.3</ele>
        <time>2021-08-16T17:50:55Z</time>
      </trkpt>
      <trkpt lat="44.34491" lon="3.05869">
        <ele>744.2</ele>
        <time>2021-08-16T17:50:57Z</time>
      </trkpt>
      <trkpt lat="44.34486" lon="3.05867">
        <ele>743.9</ele>
        <time>2021-08-16T17:50:59Z</time>
      </trkpt>
      <trkpt lat="44.3448" lon="3.05865">
        <ele>743.7</ele>
        <time>2021-08-16T17:51:01Z</time>
      </trkpt>
      <trkpt lat="44.34475" lon="3.05862">
        <ele>743.4</ele>
        <time>2021-08-16T17:51:03Z</time>
      </trkpt>
      <trkpt lat="44.3447" lon="3.05858">
        <ele>743.2</ele>
        <time>2021-08-16T17:51:05Z</time>
      </trkpt>
      <trkpt lat="44.34464" lon="3.05855">
        <ele>743</ele>
        <time>2021-08-16T17:51:07Z</time>
      </trkpt>
      <trkpt lat="44.3446" lon="3.05849">
        <ele>742.9</ele>
        <time>2021-08-16T17:51:09Z</time>
      </trkpt>
      <trkpt lat="44.34455" lon="3.05844">
        <ele>742.7</ele>
        <time>2021-08-16T17:51:11Z</time>
      </trkpt>
      <trkpt lat="44.3445" lon="3.05836">
        <ele>742.6</ele>
        <time>2021-08-16T17:51:13Z</time>
      </trkpt>
      <trkpt lat="44.34446" lon="3.0583">
        <ele>742.3</ele>
        <time>2021-08-16T17:51:15Z</time>
      </trkpt>
      <trkpt lat="44.34441" lon="3.05825">
        <ele>741.9</ele>
        <time>2021-08-16T17:51:17Z</time>
      </trkpt>
      <trkpt lat="44.34437" lon="3.05819">
        <ele>741.6</ele>
        <time>2021-08-16T17:51:19Z</time>
      </trkpt>
      <trkpt lat="44.34433" lon="3.05813">
        <ele>741.2</ele>
        <time>2021-08-16T17:51:21Z</time>
      </trkpt>
      <trkpt lat="44.3443" lon="3.05807">
        <ele>740.9</ele>
        <time>2021-08-16T17:51:23Z</time>
      </trkpt>
      <trkpt lat="44.34425" lon="3.05803">
        <ele>740.6</ele>
        <time>2021-08-16T17:51:25Z</time>
      </trkpt>
      <trkpt lat="44.3442" lon="3.05798">
        <ele>740.3</ele>
        <time>2021-08-16T17:51:27Z</time>
      </trkpt>
      <trkpt lat="44.34416" lon="3.05793">
        <ele>740</ele>
        <time>2021-08-16T17:51:29Z</time>
      </trkpt>
      <trkpt lat="44.34413" lon="3.05789">
        <ele>739.7</ele>
        <time>2021-08-16T17:51:31Z</time>
      </trkpt>
      <trkpt lat="44.34411" lon="3.05785">
        <ele>739.4</ele>
        <time>2021-08-16T17:51:33Z</time>
      </trkpt>
      <trkpt lat="44.3441" lon="3.05783">
        <ele>739.3</ele>
        <time>2021-08-16T17:51:35Z</time>
      </trkpt>
      <trkpt lat="44.34408" lon="3.05781">
        <ele>739.1</ele>
        <time>2021-08-16T17:51:37Z</time>
      </trkpt>
      <trkpt lat="44.34406" lon="3.05782">
        <ele>739.1</ele>
        <time>2021-08-16T17:51:39Z</time>
      </trkpt>
      <trkpt lat="44.34408" lon="3.05785">
        <ele>739.2</ele>
        <time>2021-08-16T17:51:41Z</time>
      </trkpt>
      <trkpt lat="44.34411" lon="3.0579">
        <ele>739.6</ele>
        <time>2021-08-16T17:51:43Z</time>
      </trkpt>
      <trkpt lat="44.34415" lon="3.05793">
        <ele>739.9</ele>
        <time>2021-08-16T17:51:45Z</time>
      </trkpt>
      <trkpt lat="44.34418" lon="3.05797">
        <ele>740.2</ele>
        <time>2021-08-16T17:51:47Z</time>
      </trkpt>
      <trkpt lat="44.34421" lon="3.05801">
        <ele>740.4</ele>
        <time>2021-08-16T17:51:49Z</time>
      </trkpt>
      <trkpt lat="44.34424" lon="3.05804">
        <ele>740.6</ele>
        <time>2021-08-16T17:51:51Z</time>
      </trkpt>
      <trkpt lat="44.34427" lon="3.05807">
        <ele>740.8</ele>
        <time>2021-08-16T17:51:53Z</time>
      </trkpt>
      <trkpt lat="44.3443" lon="3.05811">
        <ele>741</ele>
        <time>2021-08-16T17:51:55Z</time>
      </trkpt>
      <trkpt lat="44.34432" lon="3.05814">
        <ele>741.2</ele>
        <time>2021-08-16T17:51:57Z</time>
      </trkpt>
      <trkpt lat="44.34435" lon="3.05817">
        <ele>741.4</ele>
        <time>2021-08-16T17:51:59Z</time>
      </trkpt>
      <trkpt lat="44.34437" lon="3.05818">
        <ele>741.5</ele>
        <time>2021-08-16T17:52:01Z</time>
      </trkpt>
      <trkpt lat="44.34438" lon="3.05821">
        <ele>741.7</ele>
        <time>2021-08-16T17:52:03Z</time>
      </trkpt>
      <trkpt lat="44.34438" lon="3.0582">
        <ele>741.6</ele>
        <time>2021-08-16T17:52:05Z</time>
      </trkpt>
      <trkpt lat="44.34438" lon="3.0582">
        <ele>741.7</ele>
        <time>2021-08-16T17:52:07Z</time>
      </trkpt>
      <trkpt lat="44.34439" lon="3.0582">
        <ele>741.7</ele>
        <time>2021-08-16T17:52:09Z</time>
      </trkpt>
      <trkpt lat="44.34439" lon="3.05821">
        <ele>741.7</ele>
        <time>2021-08-16T17:52:11Z</time>
      </trkpt>
      <trkpt lat="44.34439" lon="3.05821">
        <ele>741.7</ele>
        <time>2021-08-16T17:53:27Z</time>
      </trkpt>
      <trkpt lat="44.34439" lon="3.0582">
        <ele>741.7</ele>
        <time>2021-08-16T17:53:29Z</time>
      </trkpt>
      <trkpt lat="44.34439" lon="3.05821">
        <ele>741.7</ele>
        <time>2021-08-16T17:53:31Z</time>
      </trkpt>
      <trkpt lat="44.34441" lon="3.05822">
        <ele>741.8</ele>
        <time>2021-08-16T17:53:33Z</time>
      </trkpt>
      <trkpt lat="44.34444" lon="3.05824">
        <ele>742</ele>
        <time>2021-08-16T17:53:35Z</time>
      </trkpt>
      <trkpt lat="44.34446" lon="3.05828">
        <ele>742.2</ele>
        <time>2021-08-16T17:53:37Z</time>
      </trkpt>
      <trkpt lat="44.34447" lon="3.05831">
        <ele>742.4</ele>
        <time>2021-08-16T17:53:39Z</time>
      </trkpt>
      <trkpt lat="44.34447" lon="3.05836">
        <ele>742.4</ele>
        <time>2021-08-16T17:53:41Z</time>
      </trkpt>
      <trkpt lat="44.34446" lon="3.05839">
        <ele>742.4</ele>
        <time>2021-08-16T17:53:43Z</time>
      </trkpt>
      <trkpt lat="44.34444" lon="3.0584">
        <ele>742.2</ele>
        <time>2021-08-16T17:53:45Z</time>
      </trkpt>
      <trkpt lat="44.34442" lon="3.0584">
        <ele>742.1</ele>
        <time>2021-08-16T17:53:47Z</time>
      </trkpt>
      <trkpt lat="44.34443" lon="3.0584">
        <ele>742.2</ele>
        <time>2021-08-16T17:53:49Z</time>
      </trkpt>
      <trkpt lat="44.34443" lon="3.0584">
        <ele>742.2</ele>
        <time>2021-08-16T17:53:51Z</time>
      </trkpt>
      <trkpt lat="44.34442" lon="3.0584">
        <ele>742.1</ele>
        <time>2021-08-16T17:53:53Z</time>
      </trkpt>
      <trkpt lat="44.3444" lon="3.0584">
        <ele>742</ele>
        <time>2021-08-16T17:53:55Z</time>
      </trkpt>
    </trkseg>
      <trkpt lat="44.34461" lon="3.05848">
        <ele>743</ele>
        <time>2021-08-17T07:45:11Z</time>
      </trkpt>
      <trkpt lat="44.34463" lon="3.0585">
        <ele>743</ele>
        <time>2021-08-17T07:45:13Z</time>
      </trkpt>
      <trkpt lat="44.34465" lon="3.05854">
        <ele>743.1</ele>
        <time>2021-08-17T07:45:15Z</time>
      </trkpt>
      <trkpt lat="44.34468" lon="3.05856">
        <ele>743.2</ele>
        <time>2021-08-17T07:45:17Z</time>
      </trkpt>
      <trkpt lat="44.34471" lon="3.05858">
        <ele>743.3</ele>
        <time>2021-08-17T07:45:19Z</time>
      </trkpt>
      <trkpt lat="44.34475" lon="3.05859">
        <ele>743.5</ele>
        <time>2021-08-17T07:45:21Z</time>
      </trkpt>
      <trkpt lat="44.34479" lon="3.05861">
        <ele>743.7</ele>
        <time>2021-08-17T07:45:23Z</time>
      </trkpt>
      <trkpt lat="44.34483" lon="3.05863">
        <ele>743.8</ele>
        <time>2021-08-17T07:45:25Z</time>
      </trkpt>
      <trkpt lat="44.34486" lon="3.05865">
        <ele>743.9</ele>
        <time>2021-08-17T07:45:27Z</time>
      </trkpt>
      <trkpt lat="44.34489" lon="3.05865">
        <ele>744.1</ele>
        <time>2021-08-17T07:45:29Z</time>
      </trkpt>
      <trkpt lat="44.34493" lon="3.05866">
        <ele>744.3</ele>
        <time>2021-08-17T07:45:31Z</time>
      </trkpt>
      <trkpt lat="44.34498" lon="3.05867">
        <ele>744.5</ele>
        <time>2021-08-17T07:45:33Z</time>
      </trkpt>
      <trkpt lat="44.34503" lon="3.05867">
        <ele>744.7</ele>
        <time>2021-08-17T07:45:35Z</time>
      </trkpt>
      <trkpt lat="44.34506" lon="3.05868">
        <ele>744.7</ele>
        <time>2021-08-17T07:45:37Z</time>
      </trkpt>
      <trkpt lat="44.3451" lon="3.0587">
        <ele>744.8</ele>
        <time>2021-08-17T07:45:39Z</time>
      </trkpt>
      <trkpt lat="44.34514" lon="3.0587">
        <ele>744.9</ele>
        <time>2021-08-17T07:45:41Z</time>
      </trkpt>
      <trkpt lat="44.34518" lon="3.05872">
        <ele>745</ele>
        <time>2021-08-17T07:45:43Z</time>
      </trkpt>
      <trkpt lat="44.34522" lon="3.05872">
        <ele>745.1</ele>
        <time>2021-08-17T07:45:45Z</time>
      </trkpt>
      <trkpt lat="44.34526" lon="3.05874">
        <ele>745.1</ele>
        <time>2021-08-17T07:45:47Z</time>
      </trkpt>
      <trkpt lat="44.34531" lon="3.05873">
        <ele>745.3</ele>
        <time>2021-08-17T07:45:49Z</time>
      </trkpt>
      <trkpt lat="44.34534" lon="3.05871">
        <ele>745.4</ele>
        <time>2021-08-17T07:45:51Z</time>
      </trkpt>
      <trkpt lat="44.34539" lon="3.05869">
        <ele>745.5</ele>
        <time>2021-08-17T07:45:53Z</time>
      </trkpt>
      <trkpt lat="44.34544" lon="3.05867">
        <ele>745.6</ele>
        <time>2021-08-17T07:45:55Z</time>
      </trkpt>
      <trkpt lat="44.34548" lon="3.05863">
        <ele>745.8</ele>
        <time>2021-08-17T07:45:57Z</time>
      </trkpt>
      <trkpt lat="44.34552" lon="3.0586">
        <ele>745.9</ele>
        <time>2021-08-17T07:45:59Z</time>
      </trkpt>
      <trkpt lat="44.34556" lon="3.05857">
        <ele>746</ele>
        <time>2021-08-17T07:46:01Z</time>
      </trkpt>
      <trkpt lat="44.34561" lon="3.05856">
        <ele>746.2</ele>
        <time>2021-08-17T07:46:03Z</time>
      </trkpt>
      <trkpt lat="44.34564" lon="3.05856">
        <ele>746.3</ele>
        <time>2021-08-17T07:46:05Z</time>
      </trkpt>
      <trkpt lat="44.34568" lon="3.05855">
        <ele>746.4</ele>
        <time>2021-08-17T07:46:07Z</time>
      </trkpt>
      <trkpt lat="44.34571" lon="3.05855">
        <ele>746.4</ele>
        <time>2021-08-17T07:46:09Z</time>
      </trkpt>
      <trkpt lat="44.34574" lon="3.05855">
        <ele>746.5</ele>
        <time>2021-08-17T07:46:11Z</time>
      </trkpt>
      <trkpt lat="44.34577" lon="3.05855">
        <ele>746.6</ele>
        <time>2021-08-17T07:46:13Z</time>
      </trkpt>
      <trkpt lat="44.34581" lon="3.05852">
        <ele>746.7</ele>
        <time>2021-08-17T07:46:15Z</time>
      </trkpt>
      <trkpt lat="44.34583" lon="3.05849">
        <ele>746.8</ele>
        <time>2021-08-17T07:46:17Z</time>
      </trkpt>
      <trkpt lat="44.34586" lon="3.05846">
        <ele>746.9</ele>
        <time>2021-08-17T07:46:19Z</time>
      </trkpt>
      <trkpt lat="44.34589" lon="3.05844">
        <ele>747</ele>
        <time>2021-08-17T07:46:21Z</time>
      </trkpt>
      <trkpt lat="44.34592" lon="3.05842">
        <ele>747.2</ele>
        <time>2021-08-17T07:46:23Z</time>
      </trkpt>
      <trkpt lat="44.34595" lon="3.05839">
        <ele>747.3</ele>
        <time>2021-08-17T07:46:25Z</time>
      </trkpt>
      <trkpt lat="44.34599" lon="3.05837">
        <ele>747.5</ele>
        <time>2021-08-17T07:46:27Z</time>
      </trkpt>
      <trkpt lat="44.34603" lon="3.05836">
        <ele>747.6</ele>
        <time>2021-08-17T07:46:29Z</time>
      </trkpt>
      <trkpt lat="44.34607" lon="3.05834">
        <ele>747.8</ele>
        <time>2021-08-17T07:46:31Z</time>
      </trkpt>
      <trkpt lat="44.3461" lon="3.05833">
        <ele>748</ele>
        <time>2021-08-17T07:46:33Z</time>
      </trkpt>
      <trkpt lat="44.34614" lon="3.05832">
        <ele>748.1</ele>
        <time>2021-08-17T07:46:35Z</time>
      </trkpt>
      <trkpt lat="44.34617" lon="3.05832">
        <ele>748.2</ele>
        <time>2021-08-17T07:46:37Z</time>
      </trkpt>
      <trkpt lat="44.34621" lon="3.05832">
        <ele>748.3</ele>
        <time>2021-08-17T07:46:39Z</time>
      </trkpt>
      <trkpt lat="44.34624" lon="3.0583">
        <ele>748.4</ele>
        <time>2021-08-17T07:46:41Z</time>
      </trkpt>
      <trkpt lat="44.34628" lon="3.05829">
        <ele>748.5</ele>
        <time>2021-08-17T07:46:43Z</time>
      </trkpt>
      <trkpt lat="44.34631" lon="3.05829">
        <ele>748.7</ele>
        <time>2021-08-17T07:46:45Z</time>
      </trkpt>
      <trkpt lat="44.34634" lon="3.05828">
        <ele>748.8</ele>
        <time>2021-08-17T07:46:47Z</time>
      </trkpt>
      <trkpt lat="44.34638" lon="3.05827">
        <ele>748.9</ele>
        <time>2021-08-17T07:46:49Z</time>
      </trkpt>
      <trkpt lat="44.34641" lon="3.05826">
        <ele>749</ele>
        <time>2021-08-17T07:46:51Z</time>
      </trkpt>
      <trkpt lat="44.34645" lon="3.05825">
        <ele>749.2</ele>
        <time>2021-08-17T07:46:53Z</time>
      </trkpt>
      <trkpt lat="44.34649" lon="3.05824">
        <ele>749.3</ele>
        <time>2021-08-17T07:46:55Z</time>
      </trkpt>
      <trkpt lat="44.34652" lon="3.05823">
        <ele>749.5</ele>
        <time>2021-08-17T07:46:57Z</time>
      </trkpt>
      <trkpt lat="44.34655" lon="3.05823">
        <ele>749.6</ele>
        <time>2021-08-17T07:46:59Z</time>
      </trkpt>
      <trkpt lat="44.34658" lon="3.05822">
        <ele>749.8</ele>
        <time>2021-08-17T07:47:01Z</time>
      </trkpt>
      <trkpt lat="44.34662" lon="3.05821">
        <ele>749.9</ele>
        <time>2021-08-17T07:47:03Z</time>
      </trkpt>
      <trkpt lat="44.34665" lon="3.05818">
        <ele>750.1</ele>
        <time>2021-08-17T07:47:05Z</time>
      </trkpt>
      <trkpt lat="44.34668" lon="3.05818">
        <ele>750.2</ele>
        <time>2021-08-17T07:47:07Z</time>
      </trkpt>
      <trkpt lat="44.34671" lon="3.05817">
        <ele>750.3</ele>
        <time>2021-08-17T07:47:09Z</time>
      </trkpt>
      <trkpt lat="44.34674" lon="3.05816">
        <ele>750.4</ele>
        <time>2021-08-17T07:47:11Z</time>
      </trkpt>
      <trkpt lat="44.34677" lon="3.05814">
        <ele>750.5</ele>
        <time>2021-08-17T07:47:13Z</time>
      </trkpt>
      <trkpt lat="44.3468" lon="3.05813">
        <ele>750.6</ele>
        <time>2021-08-17T07:47:15Z</time>
      </trkpt>
      <trkpt lat="44.34683" lon="3.0581">
        <ele>750.7</ele>
        <time>2021-08-17T07:47:17Z</time>
      </trkpt>
      <trkpt lat="44.34686" lon="3.05808">
        <ele>750.8</ele>
        <time>2021-08-17T07:47:19Z</time>
      </trkpt>
      <trkpt lat="44.34689" lon="3.05805">
        <ele>751</ele>
        <time>2021-08-17T07:47:21Z</time>
      </trkpt>
      <trkpt lat="44.34692" lon="3.05803">
        <ele>751.1</ele>
        <time>2021-08-17T07:47:23Z</time>
      </trkpt>
      <trkpt lat="44.34695" lon="3.058">
        <ele>751.3</ele>
        <time>2021-08-17T07:47:25Z</time>
      </trkpt>
      <trkpt lat="44.34698" lon="3.05798">
        <ele>751.5</ele>
        <time>2021-08-17T07:47:27Z</time>
      </trkpt>
      <trkpt lat="44.34701" lon="3.05794">
        <ele>751.6</ele>
        <time>2021-08-17T07:47:29Z</time>
      </trkpt>
      <trkpt lat="44.34704" lon="3.05792">
        <ele>751.8</ele>
        <time>2021-08-17T07:47:31Z</time>
      </trkpt>
      <trkpt lat="44.34706" lon="3.05789">
        <ele>752</ele>
        <time>2021-08-17T07:47:33Z</time>
      </trkpt>
      <trkpt lat="44.34708" lon="3.05786">
        <ele>752.2</ele>
        <time>2021-08-17T07:47:35Z</time>
      </trkpt>
      <trkpt lat="44.3471" lon="3.05782">
        <ele>752.4</ele>
        <time>2021-08-17T07:47:37Z</time>
      </trkpt>
      <trkpt lat="44.34711" lon="3.05777">
        <ele>752.7</ele>
        <time>2021-08-17T07:47:39Z</time>
      </trkpt>
      <trkpt lat="44.34713" lon="3.05772">
        <ele>752.9</ele>
        <time>2021-08-17T07:47:41Z</time>
      </trkpt>
      <trkpt lat="44.34714" lon="3.05768">
        <ele>753.1</ele>
        <time>2021-08-17T07:47:43Z</time>
      </trkpt>
      <trkpt lat="44.34716" lon="3.05764">
        <ele>753.4</ele>
        <time>2021-08-17T07:47:45Z</time>
      </trkpt>
      <trkpt lat="44.34717" lon="3.0576">
        <ele>753.6</ele>
        <time>2021-08-17T07:47:47Z</time>
      </trkpt>
      <trkpt lat="44.34718" lon="3.05755">
        <ele>753.8</ele>
        <time>2021-08-17T07:47:49Z</time>
      </trkpt>
      <trkpt lat="44.3472" lon="3.05752">
        <ele>754.1</ele>
        <time>2021-08-17T07:47:51Z</time>
      </trkpt>
      <trkpt lat="44.34721" lon="3.05747">
        <ele>754.2</ele>
        <time>2021-08-17T07:47:53Z</time>
      </trkpt>
      <trkpt lat="44.34722" lon="3.05742">
        <ele>754.2</ele>
        <time>2021-08-17T07:47:55Z</time>
      </trkpt>
      <trkpt lat="44.34724" lon="3.05737">
        <ele>754.3</ele>
        <time>2021-08-17T07:47:57Z</time>
      </trkpt>
      <trkpt lat="44.34725" lon="3.05732">
        <ele>754.3</ele>
        <time>2021-08-17T07:47:59Z</time>
      </trkpt>
      <trkpt lat="44.34726" lon="3.05728">
        <ele>754.3</ele>
        <time>2021-08-17T07:48:01Z</time>
      </trkpt>
      <trkpt lat="44.34728" lon="3.05723">
        <ele>754.4</ele>
        <time>2021-08-17T07:48:03Z</time>
      </trkpt>
      <trkpt lat="44.34729" lon="3.05718">
        <ele>754.5</ele>
        <time>2021-08-17T07:48:05Z</time>
      </trkpt>
      <trkpt lat="44.34731" lon="3.05713">
        <ele>754.6</ele>
        <time>2021-08-17T07:48:07Z</time>
      </trkpt>
      <trkpt lat="44.34733" lon="3.05708">
        <ele>754.7</ele>
        <time>2021-08-17T07:48:09Z</time>
      </trkpt>
      <trkpt lat="44.34735" lon="3.05704">
        <ele>754.8</ele>
        <time>2021-08-17T07:48:11Z</time>
      </trkpt>
      <trkpt lat="44.34738" lon="3.057">
        <ele>755</ele>
        <time>2021-08-17T07:48:13Z</time>
      </trkpt>
      <trkpt lat="44.3474" lon="3.05695">
        <ele>755.2</ele>
        <time>2021-08-17T07:48:15Z</time>
      </trkpt>
      <trkpt lat="44.34743" lon="3.05691">
        <ele>755.4</ele>
        <time>2021-08-17T07:48:17Z</time>
      </trkpt>
      <trkpt lat="44.34746" lon="3.05686">
        <ele>755.7</ele>
        <time>2021-08-17T07:48:19Z</time>
      </trkpt>
      <trkpt lat="44.34749" lon="3.05683">
        <ele>755.9</ele>
        <time>2021-08-17T07:48:21Z</time>
      </trkpt>
      <trkpt lat="44.34752" lon="3.05678">
        <ele>756.2</ele>
        <time>2021-08-17T07:48:23Z</time>
      </trkpt>
      <trkpt lat="44.34756" lon="3.05674">
        <ele>756.4</ele>
        <time>2021-08-17T07:48:25Z</time>
      </trkpt>
      <trkpt lat="44.34759" lon="3.0567">
        <ele>756.7</ele>
        <time>2021-08-17T07:48:27Z</time>
      </trkpt>
      <trkpt lat="44.34762" lon="3.05665">
        <ele>757</ele>
        <time>2021-08-17T07:48:29Z</time>
      </trkpt>
      <trkpt lat="44.34765" lon="3.05661">
        <ele>757.3</ele>
        <time>2021-08-17T07:48:31Z</time>
      </trkpt>
      <trkpt lat="44.34769" lon="3.05657">
        <ele>757.6</ele>
        <time>2021-08-17T07:48:33Z</time>
      </trkpt>
      <trkpt lat="44.34772" lon="3.05652">
        <ele>757.9</ele>
        <time>2021-08-17T07:48:35Z</time>
      </trkpt>
      <trkpt lat="44.34775" lon="3.05648">
        <ele>758.2</ele>
        <time>2021-08-17T07:48:37Z</time>
      </trkpt>
      <trkpt lat="44.34778" lon="3.05644">
        <ele>758.5</ele>
        <time>2021-08-17T07:48:39Z</time>
      </trkpt>
      <trkpt lat="44.34781" lon="3.05639">
        <ele>758.9</ele>
        <time>2021-08-17T07:48:41Z</time>
      </trkpt>
      <trkpt lat="44.34784" lon="3.05635">
        <ele>759.3</ele>
        <time>2021-08-17T07:48:43Z</time>
      </trkpt>
      <trkpt lat="44.34788" lon="3.05631">
        <ele>759.7</ele>
        <time>2021-08-17T07:48:45Z</time>
      </trkpt>
      <trkpt lat="44.3479" lon="3.05626">
        <ele>760.1</ele>
        <time>2021-08-17T07:48:47Z</time>
      </trkpt>
      <trkpt lat="44.34794" lon="3.05622">
        <ele>760.5</ele>
        <time>2021-08-17T07:48:49Z</time>
      </trkpt>
      <trkpt lat="44.34796" lon="3.05618">
        <ele>760.9</ele>
        <time>2021-08-17T07:48:51Z</time>
      </trkpt>
      <trkpt lat="44.34798" lon="3.05612">
        <ele>761.3</ele>
        <time>2021-08-17T07:48:53Z</time>
      </trkpt>
      <trkpt lat="44.348" lon="3.05606">
        <ele>761.6</ele>
        <time>2021-08-17T07:48:55Z</time>
      </trkpt>
      <trkpt lat="44.34801" lon="3.05601">
        <ele>761.9</ele>
        <time>2021-08-17T07:48:57Z</time>
      </trkpt>
      <trkpt lat="44.34801" lon="3.05594">
        <ele>762</ele>
        <time>2021-08-17T07:48:59Z</time>
      </trkpt>
      <trkpt lat="44.348" lon="3.05588">
        <ele>762.1</ele>
        <time>2021-08-17T07:49:01Z</time>
      </trkpt>
      <trkpt lat="44.34799" lon="3.05583">
        <ele>762.1</ele>
        <time>2021-08-17T07:49:03Z</time>
      </trkpt>
      <trkpt lat="44.34797" lon="3.05577">
        <ele>762</ele>
        <time>2021-08-17T07:49:05Z</time>
      </trkpt>
      <trkpt lat="44.34795" lon="3.05571">
        <ele>761.9</ele>
        <time>2021-08-17T07:49:07Z</time>
      </trkpt>
      <trkpt lat="44.34792" lon="3.05566">
        <ele>761.7</ele>
        <time>2021-08-17T07:49:09Z</time>
      </trkpt>
      <trkpt lat="44.3479" lon="3.0556">
        <ele>761.6</ele>
        <time>2021-08-17T07:49:11Z</time>
      </trkpt>
      <trkpt lat="44.34787" lon="3.05554">
        <ele>761.4</ele>
        <time>2021-08-17T07:49:13Z</time>
      </trkpt>
      <trkpt lat="44.34786" lon="3.05548">
        <ele>761.4</ele>
        <time>2021-08-17T07:49:15Z</time>
      </trkpt>
      <trkpt lat="44.34784" lon="3.05542">
        <ele>761.5</ele>
        <time>2021-08-17T07:49:17Z</time>
      </trkpt>
      <trkpt lat="44.34783" lon="3.05536">
        <ele>761.6</ele>
        <time>2021-08-17T07:49:19Z</time>
      </trkpt>
      <trkpt lat="44.34782" lon="3.05529">
        <ele>761.7</ele>
        <time>2021-08-17T07:49:21Z</time>
      </trkpt>
      <trkpt lat="44.34781" lon="3.05523">
        <ele>761.8</ele>
        <time>2021-08-17T07:49:23Z</time>
      </trkpt>
      <trkpt lat="44.3478" lon="3.05517">
        <ele>761.9</ele>
        <time>2021-08-17T07:49:25Z</time>
      </trkpt>
      <trkpt lat="44.34779" lon="3.0551">
        <ele>762.1</ele>
        <time>2021-08-17T07:49:27Z</time>
      </trkpt>
      <trkpt lat="44.34777" lon="3.05504">
        <ele>762.1</ele>
        <time>2021-08-17T07:49:29Z</time>
      </trkpt>
      <trkpt lat="44.34776" lon="3.05498">
        <ele>762.1</ele>
        <time>2021-08-17T07:49:31Z</time>
      </trkpt>
      <trkpt lat="44.34776" lon="3.05492">
        <ele>762.1</ele>
        <time>2021-08-17T07:49:33Z</time>
      </trkpt>
      <trkpt lat="44.34775" lon="3.05485">
        <ele>762</ele>
        <time>2021-08-17T07:49:35Z</time>
      </trkpt>
      <trkpt lat="44.34773" lon="3.05479">
        <ele>761.9</ele>
        <time>2021-08-17T07:49:37Z</time>
      </trkpt>
      <trkpt lat="44.34772" lon="3.05472">
        <ele>761.7</ele>
        <time>2021-08-17T07:49:39Z</time>
      </trkpt>
      <trkpt lat="44.34771" lon="3.05466">
        <ele>761.6</ele>
        <time>2021-08-17T07:49:41Z</time>
      </trkpt>
      <trkpt lat="44.3477" lon="3.05459">
        <ele>761.5</ele>
        <time>2021-08-17T07:49:43Z</time>
      </trkpt>
      <trkpt lat="44.34769" lon="3.05452">
        <ele>761.4</ele>
        <time>2021-08-17T07:49:45Z</time>
      </trkpt>
      <trkpt lat="44.3477" lon="3.05445">
        <ele>761.5</ele>
        <time>2021-08-17T07:49:47Z</time>
      </trkpt>
      <trkpt lat="44.3477" lon="3.05438">
        <ele>761.6</ele>
        <time>2021-08-17T07:49:49Z</time>
      </trkpt>
      <trkpt lat="44.34771" lon="3.05431">
        <ele>761.7</ele>
        <time>2021-08-17T07:49:51Z</time>
      </trkpt>
      <trkpt lat="44.34772" lon="3.05425">
        <ele>761.9</ele>
        <time>2021-08-17T07:49:53Z</time>
      </trkpt>
      <trkpt lat="44.34774" lon="3.05418">
        <ele>762.1</ele>
        <time>2021-08-17T07:49:55Z</time>
      </trkpt>
      <trkpt lat="44.34776" lon="3.05411">
        <ele>762.2</ele>
        <time>2021-08-17T07:49:57Z</time>
      </trkpt>
      <trkpt lat="44.34777" lon="3.05405">
        <ele>762.3</ele>
        <time>2021-08-17T07:49:59Z</time>
      </trkpt>
      <trkpt lat="44.34779" lon="3.05399">
        <ele>762.4</ele>
        <time>2021-08-17T07:50:01Z</time>
      </trkpt>
      <trkpt lat="44.34782" lon="3.05393">
        <ele>762.5</ele>
        <time>2021-08-17T07:50:03Z</time>
      </trkpt>
      <trkpt lat="44.34785" lon="3.05388">
        <ele>762.8</ele>
        <time>2021-08-17T07:50:05Z</time>
      </trkpt>
      <trkpt lat="44.34788" lon="3.05382">
        <ele>763</ele>
        <time>2021-08-17T07:50:07Z</time>
      </trkpt>
      <trkpt lat="44.34791" lon="3.05377">
        <ele>763.2</ele>
        <time>2021-08-17T07:50:09Z</time>
      </trkpt>
      <trkpt lat="44.34794" lon="3.05372">
        <ele>763.4</ele>
        <time>2021-08-17T07:50:11Z</time>
      </trkpt>
      <trkpt lat="44.34797" lon="3.05366">
        <ele>763.6</ele>
        <time>2021-08-17T07:50:13Z</time>
      </trkpt>
      <trkpt lat="44.34799" lon="3.0536">
        <ele>763.7</ele>
        <time>2021-08-17T07:50:15Z</time>
      </trkpt>
      <trkpt lat="44.34802" lon="3.05355">
        <ele>763.9</ele>
        <time>2021-08-17T07:50:17Z</time>
      </trkpt>
      <trkpt lat="44.34804" lon="3.05349">
        <ele>764</ele>
        <time>2021-08-17T07:50:19Z</time>
      </trkpt>
      <trkpt lat="44.34807" lon="3.05344">
        <ele>764.2</ele>
        <time>2021-08-17T07:50:21Z</time>
      </trkpt>
      <trkpt lat="44.3481" lon="3.05339">
        <ele>764.4</ele>
        <time>2021-08-17T07:50:23Z</time>
      </trkpt>
      <trkpt lat="44.34813" lon="3.05334">
        <ele>764.5</ele>
        <time>2021-08-17T07:50:25Z</time>
      </trkpt>
      <trkpt lat="44.34816" lon="3.05328">
        <ele>764.7</ele>
        <time>2021-08-17T07:50:27Z</time>
      </trkpt>
      <trkpt lat="44.34819" lon="3.05323">
        <ele>765</ele>
        <time>2021-08-17T07:50:29Z</time>
      </trkpt>
      <trkpt lat="44.34823" lon="3.05317">
        <ele>765.2</ele>
        <time>2021-08-17T07:50:31Z</time>
      </trkpt>
      <trkpt lat="44.34826" lon="3.05312">
        <ele>765.4</ele>
        <time>2021-08-17T07:50:33Z</time>
      </trkpt>
      <trkpt lat="44.3483" lon="3.05307">
        <ele>765.6</ele>
        <time>2021-08-17T07:50:35Z</time>
      </trkpt>
      <trkpt lat="44.34833" lon="3.05301">
        <ele>765.8</ele>
        <time>2021-08-17T07:50:37Z</time>
      </trkpt>
      <trkpt lat="44.34836" lon="3.05296">
        <ele>766.1</ele>
        <time>2021-08-17T07:50:39Z</time>
      </trkpt>
      <trkpt lat="44.34839" lon="3.05291">
        <ele>766.4</ele>
        <time>2021-08-17T07:50:41Z</time>
      </trkpt>
      <trkpt lat="44.34843" lon="3.05286">
        <ele>766.8</ele>
        <time>2021-08-17T07:50:43Z</time>
      </trkpt>
      <trkpt lat="44.34847" lon="3.05282">
        <ele>767.1</ele>
        <time>2021-08-17T07:50:45Z</time>
      </trkpt>
      <trkpt lat="44.3485" lon="3.05276">
        <ele>767.4</ele>
        <time>2021-08-17T07:50:47Z</time>
      </trkpt>
      <trkpt lat="44.34854" lon="3.05271">
        <ele>767.8</ele>
        <time>2021-08-17T07:50:49Z</time>
      </trkpt>
      <trkpt lat="44.34857" lon="3.05266">
        <ele>768</ele>
        <time>2021-08-17T07:50:51Z</time>
      </trkpt>
      <trkpt lat="44.3486" lon="3.05261">
        <ele>768.3</ele>
        <time>2021-08-17T07:50:53Z</time>
      </trkpt>
      <trkpt lat="44.34864" lon="3.05255">
        <ele>768.6</ele>
        <time>2021-08-17T07:50:55Z</time>
      </trkpt>
      <trkpt lat="44.34867" lon="3.0525">
        <ele>768.9</ele>
        <time>2021-08-17T07:50:57Z</time>
      </trkpt>
      <trkpt lat="44.3487" lon="3.05245">
        <ele>769.6</ele>
        <time>2021-08-17T07:50:59Z</time>
      </trkpt>
      <trkpt lat="44.34874" lon="3.05239">
        <ele>770.2</ele>
        <time>2021-08-17T07:51:01Z</time>
      </trkpt>
      <trkpt lat="44.34877" lon="3.05234">
        <ele>770.8</ele>
        <time>2021-08-17T07:51:03Z</time>
      </trkpt>
      <trkpt lat="44.3488" lon="3.05228">
        <ele>771.4</ele>
        <time>2021-08-17T07:51:05Z</time>
      </trkpt>
      <trkpt lat="44.34882" lon="3.05222">
        <ele>771.9</ele>
        <time>2021-08-17T07:51:07Z</time>
      </trkpt>
      <trkpt lat="44.34883" lon="3.05215">
        <ele>772.3</ele>
        <time>2021-08-17T07:51:09Z</time>
      </trkpt>
      <trkpt lat="44.34884" lon="3.05208">
        <ele>772.7</ele>
        <time>2021-08-17T07:51:11Z</time>
      </trkpt>
      <trkpt lat="44.34883" lon="3.05201">
        <ele>772.9</ele>
        <time>2021-08-17T07:51:13Z</time>
      </trkpt>
      <trkpt lat="44.34882" lon="3.05195">
        <ele>772.8</ele>
        <time>2021-08-17T07:51:15Z</time>
      </trkpt>
      <trkpt lat="44.34879" lon="3.05189">
        <ele>772.7</ele>
        <time>2021-08-17T07:51:17Z</time>
      </trkpt>
      <trkpt lat="44.34875" lon="3.05184">
        <ele>772.4</ele>
        <time>2021-08-17T07:51:19Z</time>
      </trkpt>
      <trkpt lat="44.3487" lon="3.0518">
        <ele>771.9</ele>
        <time>2021-08-17T07:51:21Z</time>
      </trkpt>
      <trkpt lat="44.34866" lon="3.05178">
        <ele>771.4</ele>
        <time>2021-08-17T07:51:23Z</time>
      </trkpt>
      <trkpt lat="44.34861" lon="3.05175">
        <ele>771</ele>
        <time>2021-08-17T07:51:25Z</time>
      </trkpt>
      <trkpt lat="44.34855" lon="3.05172">
        <ele>770.4</ele>
        <time>2021-08-17T07:51:27Z</time>
      </trkpt>
      <trkpt lat="44.3485" lon="3.05169">
        <ele>769.9</ele>
        <time>2021-08-17T07:51:29Z</time>
      </trkpt>
      <trkpt lat="44.34845" lon="3.05165">
        <ele>769.5</ele>
        <time>2021-08-17T07:51:31Z</time>
      </trkpt>
      <trkpt lat="44.3484" lon="3.0516">
        <ele>769.2</ele>
        <time>2021-08-17T07:51:33Z</time>
      </trkpt>
      <trkpt lat="44.34836" lon="3.05153">
        <ele>769.2</ele>
        <time>2021-08-17T07:51:35Z</time>
      </trkpt>
      <trkpt lat="44.34833" lon="3.05146">
        <ele>769.3</ele>
        <time>2021-08-17T07:51:37Z</time>
      </trkpt>
      <trkpt lat="44.34832" lon="3.05138">
        <ele>769.5</ele>
        <time>2021-08-17T07:51:39Z</time>
      </trkpt>
      <trkpt lat="44.3483" lon="3.05131">
        <ele>769.7</ele>
        <time>2021-08-17T07:51:41Z</time>
      </trkpt>
      <trkpt lat="44.34831" lon="3.05123">
        <ele>770.2</ele>
        <time>2021-08-17T07:51:43Z</time>
      </trkpt>
      <trkpt lat="44.3483" lon="3.05115">
        <ele>770.6</ele>
        <time>2021-08-17T07:51:45Z</time>
      </trkpt>
      <trkpt lat="44.34831" lon="3.05108">
        <ele>771.2</ele>
        <time>2021-08-17T07:51:47Z</time>
      </trkpt>
      <trkpt lat="44.34832" lon="3.05101">
        <ele>771.7</ele>
        <time>2021-08-17T07:51:49Z</time>
      </trkpt>
      <trkpt lat="44.34833" lon="3.05094">
        <ele>772.3</ele>
        <time>2021-08-17T07:51:51Z</time>
      </trkpt>
      <trkpt lat="44.34833" lon="3.05087">
        <ele>772.8</ele>
        <time>2021-08-17T07:51:53Z</time>
      </trkpt>
      <trkpt lat="44.34835" lon="3.0508">
        <ele>773.2</ele>
        <time>2021-08-17T07:51:55Z</time>
      </trkpt>
      <trkpt lat="44.34836" lon="3.05072">
        <ele>773.3</ele>
        <time>2021-08-17T07:51:57Z</time>
      </trkpt>
      <trkpt lat="44.34837" lon="3.05065">
        <ele>773.5</ele>
        <time>2021-08-17T07:51:59Z</time>
      </trkpt>
      <trkpt lat="44.34838" lon="3.05058">
        <ele>773.6</ele>
        <time>2021-08-17T07:52:01Z</time>
      </trkpt>
      <trkpt lat="44.34839" lon="3.05051">
        <ele>773.7</ele>
        <time>2021-08-17T07:52:03Z</time>
      </trkpt>
      <trkpt lat="44.3484" lon="3.05044">
        <ele>773.9</ele>
        <time>2021-08-17T07:52:05Z</time>
      </trkpt>
      <trkpt lat="44.34841" lon="3.05037">
        <ele>774</ele>
        <time>2021-08-17T07:52:07Z</time>
      </trkpt>
      <trkpt lat="44.34842" lon="3.0503">
        <ele>774.2</ele>
        <time>2021-08-17T07:52:09Z</time>
      </trkpt>
      <trkpt lat="44.34844" lon="3.05023">
        <ele>774.4</ele>
        <time>2021-08-17T07:52:11Z</time>
      </trkpt>
      <trkpt lat="44.34845" lon="3.05016">
        <ele>774.6</ele>
        <time>2021-08-17T07:52:13Z</time>
      </trkpt>
      <trkpt lat="44.34847" lon="3.05008">
        <ele>774.8</ele>
        <time>2021-08-17T07:52:15Z</time>
      </trkpt>
      <trkpt lat="44.34848" lon="3.05001">
        <ele>775</ele>
        <time>2021-08-17T07:52:17Z</time>
      </trkpt>
      <trkpt lat="44.3485" lon="3.04994">
        <ele>775.3</ele>
        <time>2021-08-17T07:52:19Z</time>
      </trkpt>
      <trkpt lat="44.34851" lon="3.04987">
        <ele>775.5</ele>
        <time>2021-08-17T07:52:21Z</time>
      </trkpt>
      <trkpt lat="44.34853" lon="3.0498">
        <ele>775.8</ele>
        <time>2021-08-17T07:52:23Z</time>
      </trkpt>
      <trkpt lat="44.34854" lon="3.04973">
        <ele>776</ele>
        <time>2021-08-17T07:52:25Z</time>
      </trkpt>
      <trkpt lat="44.34855" lon="3.04965">
        <ele>776.2</ele>
        <time>2021-08-17T07:52:27Z</time>
      </trkpt>
      <trkpt lat="44.34856" lon="3.04958">
        <ele>776.4</ele>
        <time>2021-08-17T07:52:29Z</time>
      </trkpt>
      <trkpt lat="44.34856" lon="3.0495">
        <ele>776.5</ele>
        <time>2021-08-17T07:52:31Z</time>
      </trkpt>
      <trkpt lat="44.34856" lon="3.04943">
        <ele>776.5</ele>
        <time>2021-08-17T07:52:33Z</time>
      </trkpt>
      <trkpt lat="44.34856" lon="3.04936">
        <ele>776.5</ele>
        <time>2021-08-17T07:52:35Z</time>
      </trkpt>
      <trkpt lat="44.34856" lon="3.04928">
        <ele>776.6</ele>
        <time>2021-08-17T07:52:37Z</time>
      </trkpt>
      <trkpt lat="44.34856" lon="3.0492">
        <ele>776.7</ele>
        <time>2021-08-17T07:52:39Z</time>
      </trkpt>
      <trkpt lat="44.34856" lon="3.04912">
        <ele>776.6</ele>
        <time>2021-08-17T07:52:41Z</time>
      </trkpt>
      <trkpt lat="44.34857" lon="3.04905">
        <ele>776.5</ele>
        <time>2021-08-17T07:52:43Z</time>
      </trkpt>
      <trkpt lat="44.34859" lon="3.04897">
        <ele>776.4</ele>
        <time>2021-08-17T07:52:45Z</time>
      </trkpt>
      <trkpt lat="44.34861" lon="3.0489">
        <ele>776.5</ele>
        <time>2021-08-17T07:52:47Z</time>
      </trkpt>
      <trkpt lat="44.34864" lon="3.04883">
        <ele>776.5</ele>
        <time>2021-08-17T07:52:49Z</time>
      </trkpt>
      <trkpt lat="44.34867" lon="3.04877">
        <ele>776.8</ele>
        <time>2021-08-17T07:52:51Z</time>
      </trkpt>
      <trkpt lat="44.34871" lon="3.04872">
        <ele>777</ele>
        <time>2021-08-17T07:52:53Z</time>
      </trkpt>
      <trkpt lat="44.34875" lon="3.04867">
        <ele>777.2</ele>
        <time>2021-08-17T07:52:55Z</time>
      </trkpt>
      <trkpt lat="44.3488" lon="3.04862">
        <ele>777.5</ele>
        <time>2021-08-17T07:52:57Z</time>
      </trkpt>
      <trkpt lat="44.34884" lon="3.04858">
        <ele>777.8</ele>
        <time>2021-08-17T07:52:59Z</time>
      </trkpt>
      <trkpt lat="44.34888" lon="3.04853">
        <ele>778.1</ele>
        <time>2021-08-17T07:53:01Z</time>
      </trkpt>
      <trkpt lat="44.34893" lon="3.04848">
        <ele>778.3</ele>
        <time>2021-08-17T07:53:03Z</time>
      </trkpt>
      <trkpt lat="44.34898" lon="3.04843">
        <ele>778.6</ele>
        <time>2021-08-17T07:53:05Z</time>
      </trkpt>
      <trkpt lat="44.34902" lon="3.04837">
        <ele>778.8</ele>
        <time>2021-08-17T07:53:07Z</time>
      </trkpt>
      <trkpt lat="44.34907" lon="3.04832">
        <ele>778.9</ele>
        <time>2021-08-17T07:53:09Z</time>
      </trkpt>
      <trkpt lat="44.34911" lon="3.04826">
        <ele>778.9</ele>
        <time>2021-08-17T07:53:11Z</time>
      </trkpt>
      <trkpt lat="44.34916" lon="3.04819">
        <ele>778.7</ele>
        <time>2021-08-17T07:53:13Z</time>
      </trkpt>
      <trkpt lat="44.3492" lon="3.04813">
        <ele>778.6</ele>
        <time>2021-08-17T07:53:15Z</time>
      </trkpt>
      <trkpt lat="44.34925" lon="3.04807">
        <ele>778.5</ele>
        <time>2021-08-17T07:53:17Z</time>
      </trkpt>
      <trkpt lat="44.3493" lon="3.04801">
        <ele>778.4</ele>
        <time>2021-08-17T07:53:19Z</time>
      </trkpt>
      <trkpt lat="44.34935" lon="3.04794">
        <ele>778.2</ele>
        <time>2021-08-17T07:53:21Z</time>
      </trkpt>
      <trkpt lat="44.3494" lon="3.04787">
        <ele>778.1</ele>
        <time>2021-08-17T07:53:23Z</time>
      </trkpt>
      <trkpt lat="44.34945" lon="3.04781">
        <ele>777.9</ele>
        <time>2021-08-17T07:53:25Z</time>
      </trkpt>
      <trkpt lat="44.3495" lon="3.04774">
        <ele>777.8</ele>
        <time>2021-08-17T07:53:27Z</time>
      </trkpt>
      <trkpt lat="44.34955" lon="3.04768">
        <ele>777.7</ele>
        <time>2021-08-17T07:53:29Z</time>
      </trkpt>
      <trkpt lat="44.3496" lon="3.04761">
        <ele>777.5</ele>
        <time>2021-08-17T07:53:31Z</time>
      </trkpt>
      <trkpt lat="44.34965" lon="3.04754">
        <ele>777.4</ele>
        <time>2021-08-17T07:53:33Z</time>
      </trkpt>
      <trkpt lat="44.3497" lon="3.04748">
        <ele>777.3</ele>
        <time>2021-08-17T07:53:35Z</time>
      </trkpt>
      <trkpt lat="44.34975" lon="3.04742">
        <ele>777.3</ele>
        <time>2021-08-17T07:53:37Z</time>
      </trkpt>
      <trkpt lat="44.3498" lon="3.04735">
        <ele>777.2</ele>
        <time>2021-08-17T07:53:39Z</time>
      </trkpt>
      <trkpt lat="44.34986" lon="3.04728">
        <ele>777.2</ele>
        <time>2021-08-17T07:53:41Z</time>
      </trkpt>
      <trkpt lat="44.34991" lon="3.04722">
        <ele>777.1</ele>
        <time>2021-08-17T07:53:43Z</time>
      </trkpt>
      <trkpt lat="44.34996" lon="3.04715">
        <ele>777.1</ele>
        <time>2021-08-17T07:53:45Z</time>
      </trkpt>
      <trkpt lat="44.35002" lon="3.0471">
        <ele>777.2</ele>
        <time>2021-08-17T07:53:47Z</time>
      </trkpt>
      <trkpt lat="44.35007" lon="3.04703">
        <ele>777.1</ele>
        <time>2021-08-17T07:53:49Z</time>
      </trkpt>
      <trkpt lat="44.35013" lon="3.04698">
        <ele>777.1</ele>
        <time>2021-08-17T07:53:51Z</time>
      </trkpt>
      <trkpt lat="44.35019" lon="3.04692">
        <ele>777</ele>
        <time>2021-08-17T07:53:53Z</time>
      </trkpt>
      <trkpt lat="44.35025" lon="3.04687">
        <ele>777.1</ele>
        <time>2021-08-17T07:53:55Z</time>
      </trkpt>
      <trkpt lat="44.35031" lon="3.04683">
        <ele>777.1</ele>
        <time>2021-08-17T07:53:57Z</time>
      </trkpt>
      <trkpt lat="44.35037" lon="3.04679">
        <ele>777.2</ele>
        <time>2021-08-17T07:53:59Z</time>
      </trkpt>
      <trkpt lat="44.35043" lon="3.04675">
        <ele>777.2</ele>
        <time>2021-08-17T07:54:01Z</time>
      </trkpt>
      <trkpt lat="44.35049" lon="3.04671">
        <ele>777.3</ele>
        <time>2021-08-17T07:54:03Z</time>
      </trkpt>
      <trkpt lat="44.35055" lon="3.04667">
        <ele>777.4</ele>
        <time>2021-08-17T07:54:05Z</time>
      </trkpt>
      <trkpt lat="44.35062" lon="3.04664">
        <ele>777.4</ele>
        <time>2021-08-17T07:54:07Z</time>
      </trkpt>
      <trkpt lat="44.35068" lon="3.04661">
        <ele>777.5</ele>
        <time>2021-08-17T07:54:09Z</time>
      </trkpt>
      <trkpt lat="44.35075" lon="3.04659">
        <ele>777.7</ele>
        <time>2021-08-17T07:54:11Z</time>
      </trkpt>
      <trkpt lat="44.35082" lon="3.04658">
        <ele>778</ele>
        <time>2021-08-17T07:54:13Z</time>
      </trkpt>
      <trkpt lat="44.3509" lon="3.04658">
        <ele>777.9</ele>
        <time>2021-08-17T07:54:15Z</time>
      </trkpt>
      <trkpt lat="44.35097" lon="3.0466">
        <ele>778</ele>
        <time>2021-08-17T07:54:17Z</time>
      </trkpt>
      <trkpt lat="44.35104" lon="3.04665">
        <ele>778.4</ele>
        <time>2021-08-17T07:54:19Z</time>
      </trkpt>
      <trkpt lat="44.35109" lon="3.04673">
        <ele>778.9</ele>
        <time>2021-08-17T07:54:21Z</time>
      </trkpt>
      <trkpt lat="44.35112" lon="3.04681">
        <ele>779.5</ele>
        <time>2021-08-17T07:54:23Z</time>
      </trkpt>
      <trkpt lat="44.35114" lon="3.0469">
        <ele>780.1</ele>
        <time>2021-08-17T07:54:25Z</time>
      </trkpt>
      <trkpt lat="44.35117" lon="3.047">
        <ele>780.9</ele>
        <time>2021-08-17T07:54:27Z</time>
      </trkpt>
      <trkpt lat="44.3512" lon="3.0471">
        <ele>781.5</ele>
        <time>2021-08-17T07:54:29Z</time>
      </trkpt>
      <trkpt lat="44.35123" lon="3.0472">
        <ele>782.2</ele>
        <time>2021-08-17T07:54:31Z</time>
      </trkpt>
      <trkpt lat="44.35126" lon="3.0473">
        <ele>782.9</ele>
        <time>2021-08-17T07:54:33Z</time>
      </trkpt>
      <trkpt lat="44.3513" lon="3.04739">
        <ele>783.5</ele>
        <time>2021-08-17T07:54:35Z</time>
      </trkpt>
      <trkpt lat="44.35133" lon="3.04747">
        <ele>784</ele>
        <time>2021-08-17T07:54:37Z</time>
      </trkpt>
      <trkpt lat="44.35139" lon="3.04753">
        <ele>784.4</ele>
        <time>2021-08-17T07:54:39Z</time>
      </trkpt>
      <trkpt lat="44.35144" lon="3.04759">
        <ele>784.9</ele>
        <time>2021-08-17T07:54:41Z</time>
      </trkpt>
      <trkpt lat="44.35151" lon="3.04761">
        <ele>784.9</ele>
        <time>2021-08-17T07:54:43Z</time>
      </trkpt>
      <trkpt lat="44.35158" lon="3.04761">
        <ele>784.7</ele>
        <time>2021-08-17T07:54:45Z</time>
      </trkpt>
      <trkpt lat="44.35165" lon="3.04758">
        <ele>784.1</ele>
        <time>2021-08-17T07:54:47Z</time>
      </trkpt>
      <trkpt lat="44.35172" lon="3.04754">
        <ele>784.5</ele>
        <time>2021-08-17T07:54:49Z</time>
      </trkpt>
      <trkpt lat="44.35177" lon="3.04748">
        <ele>785</ele>
        <time>2021-08-17T07:54:51Z</time>
      </trkpt>
      <trkpt lat="44.35183" lon="3.0474">
        <ele>785.6</ele>
        <time>2021-08-17T07:54:53Z</time>
      </trkpt>
      <trkpt lat="44.35187" lon="3.04732">
        <ele>785.6</ele>
        <time>2021-08-17T07:54:55Z</time>
      </trkpt>
      <trkpt lat="44.3519" lon="3.04723">
        <ele>785.6</ele>
        <time>2021-08-17T07:54:57Z</time>
      </trkpt>
      <trkpt lat="44.35194" lon="3.04715">
        <ele>785.6</ele>
        <time>2021-08-17T07:54:59Z</time>
      </trkpt>
      <trkpt lat="44.35199" lon="3.04707">
        <ele>785.8</ele>
        <time>2021-08-17T07:55:01Z</time>
      </trkpt>
      <trkpt lat="44.35202" lon="3.04698">
        <ele>785.7</ele>
        <time>2021-08-17T07:55:03Z</time>
      </trkpt>
      <trkpt lat="44.35207" lon="3.0469">
        <ele>785.8</ele>
        <time>2021-08-17T07:55:05Z</time>
      </trkpt>
      <trkpt lat="44.35211" lon="3.04683">
        <ele>785.9</ele>
        <time>2021-08-17T07:55:07Z</time>
      </trkpt>
      <trkpt lat="44.35216" lon="3.04675">
        <ele>786</ele>
        <time>2021-08-17T07:55:09Z</time>
      </trkpt>
      <trkpt lat="44.35221" lon="3.0467">
        <ele>786.4</ele>
        <time>2021-08-17T07:55:11Z</time>
      </trkpt>
      <trkpt lat="44.35224" lon="3.04661">
        <ele>786.5</ele>
        <time>2021-08-17T07:55:13Z</time>
      </trkpt>
      <trkpt lat="44.35228" lon="3.04653">
        <ele>786.9</ele>
        <time>2021-08-17T07:55:15Z</time>
      </trkpt>
      <trkpt lat="44.35232" lon="3.04645">
        <ele>787.4</ele>
        <time>2021-08-17T07:55:17Z</time>
      </trkpt>
      <trkpt lat="44.35234" lon="3.04636">
        <ele>787.5</ele>
        <time>2021-08-17T07:55:19Z</time>
      </trkpt>
      <trkpt lat="44.35235" lon="3.04626">
        <ele>787.7</ele>
        <time>2021-08-17T07:55:21Z</time>
      </trkpt>
      <trkpt lat="44.35236" lon="3.04617">
        <ele>787.5</ele>
        <time>2021-08-17T07:55:23Z</time>
      </trkpt>
      <trkpt lat="44.35236" lon="3.04607">
        <ele>787.2</ele>
        <time>2021-08-17T07:55:25Z</time>
      </trkpt>
      <trkpt lat="44.35235" lon="3.04597">
        <ele>787</ele>
        <time>2021-08-17T07:55:27Z</time>
      </trkpt>
      <trkpt lat="44.35235" lon="3.04588">
        <ele>786.8</ele>
        <time>2021-08-17T07:55:29Z</time>
      </trkpt>
      <trkpt lat="44.35235" lon="3.04579">
        <ele>786.5</ele>
        <time>2021-08-17T07:55:31Z</time>
      </trkpt>
      <trkpt lat="44.35235" lon="3.04569">
        <ele>786.3</ele>
        <time>2021-08-17T07:55:33Z</time>
      </trkpt>
      <trkpt lat="44.35234" lon="3.04559">
        <ele>785.9</ele>
        <time>2021-08-17T07:55:35Z</time>
      </trkpt>
      <trkpt lat="44.35234" lon="3.04548">
        <ele>785.6</ele>
        <time>2021-08-17T07:55:37Z</time>
      </trkpt>
      <trkpt lat="44.35234" lon="3.04538">
        <ele>785.3</ele>
        <time>2021-08-17T07:55:39Z</time>
      </trkpt>
      <trkpt lat="44.35233" lon="3.04528">
        <ele>785</ele>
        <time>2021-08-17T07:55:41Z</time>
      </trkpt>
      <trkpt lat="44.35233" lon="3.04518">
        <ele>784.7</ele>
        <time>2021-08-17T07:55:43Z</time>
      </trkpt>
      <trkpt lat="44.35232" lon="3.04508">
        <ele>784.3</ele>
        <time>2021-08-17T07:55:45Z</time>
      </trkpt>
      <trkpt lat="44.35231" lon="3.04498">
        <ele>783.8</ele>
        <time>2021-08-17T07:55:47Z</time>
      </trkpt>
      <trkpt lat="44.35231" lon="3.04489">
        <ele>783.3</ele>
        <time>2021-08-17T07:55:49Z</time>
      </trkpt>
      <trkpt lat="44.35231" lon="3.04479">
        <ele>783</ele>
        <time>2021-08-17T07:55:51Z</time>
      </trkpt>
      <trkpt lat="44.3523" lon="3.0447">
        <ele>782.5</ele>
        <time>2021-08-17T07:55:53Z</time>
      </trkpt>
      <trkpt lat="44.35229" lon="3.0446">
        <ele>782.1</ele>
        <time>2021-08-17T07:55:55Z</time>
      </trkpt>
      <trkpt lat="44.35229" lon="3.04449">
        <ele>781.8</ele>
        <time>2021-08-17T07:55:57Z</time>
      </trkpt>
      <trkpt lat="44.35229" lon="3.04439">
        <ele>781.5</ele>
        <time>2021-08-17T07:55:59Z</time>
      </trkpt>
      <trkpt lat="44.35231" lon="3.04429">
        <ele>781.5</ele>
        <time>2021-08-17T07:56:01Z</time>
      </trkpt>
      <trkpt lat="44.35233" lon="3.0442">
        <ele>781.7</ele>
        <time>2021-08-17T07:56:03Z</time>
      </trkpt>
      <trkpt lat="44.35235" lon="3.0441">
        <ele>781.9</ele>
        <time>2021-08-17T07:56:05Z</time>
      </trkpt>
      <trkpt lat="44.35238" lon="3.04401">
        <ele>782.2</ele>
        <time>2021-08-17T07:56:07Z</time>
      </trkpt>
      <trkpt lat="44.35241" lon="3.04392">
        <ele>782.4</ele>
        <time>2021-08-17T07:56:09Z</time>
      </trkpt>
      <trkpt lat="44.35244" lon="3.04383">
        <ele>782.7</ele>
        <time>2021-08-17T07:56:11Z</time>
      </trkpt>
      <trkpt lat="44.35248" lon="3.04375">
        <ele>782.9</ele>
        <time>2021-08-17T07:56:13Z</time>
      </trkpt>
      <trkpt lat="44.35251" lon="3.04365">
        <ele>783.1</ele>
        <time>2021-08-17T07:56:15Z</time>
      </trkpt>
      <trkpt lat="44.35255" lon="3.04357">
        <ele>783.2</ele>
        <time>2021-08-17T07:56:17Z</time>
      </trkpt>
      <trkpt lat="44.35258" lon="3.04348">
        <ele>783.3</ele>
        <time>2021-08-17T07:56:19Z</time>
      </trkpt>
      <trkpt lat="44.35262" lon="3.0434">
        <ele>783.3</ele>
        <time>2021-08-17T07:56:21Z</time>
      </trkpt>
      <trkpt lat="44.35266" lon="3.04331">
        <ele>783.3</ele>
        <time>2021-08-17T07:56:23Z</time>
      </trkpt>
      <trkpt lat="44.3527" lon="3.04323">
        <ele>783.4</ele>
        <time>2021-08-17T07:56:25Z</time>
      </trkpt>
      <trkpt lat="44.35275" lon="3.04315">
        <ele>783.5</ele>
        <time>2021-08-17T07:56:27Z</time>
      </trkpt>
      <trkpt lat="44.3528" lon="3.04308">
        <ele>783.7</ele>
        <time>2021-08-17T07:56:29Z</time>
      </trkpt>
      <trkpt lat="44.35285" lon="3.04301">
        <ele>783.8</ele>
        <time>2021-08-17T07:56:31Z</time>
      </trkpt>
      <trkpt lat="44.35291" lon="3.04293">
        <ele>784</ele>
        <time>2021-08-17T07:56:33Z</time>
      </trkpt>
      <trkpt lat="44.35296" lon="3.04287">
        <ele>784.2</ele>
        <time>2021-08-17T07:56:35Z</time>
      </trkpt>
      <trkpt lat="44.35302" lon="3.0428">
        <ele>784.5</ele>
        <time>2021-08-17T07:56:37Z</time>
      </trkpt>
      <trkpt lat="44.35307" lon="3.04273">
        <ele>784.6</ele>
        <time>2021-08-17T07:56:39Z</time>
      </trkpt>
      <trkpt lat="44.35313" lon="3.04267">
        <ele>784.9</ele>
        <time>2021-08-17T07:56:41Z</time>
      </trkpt>
      <trkpt lat="44.35319" lon="3.04261">
        <ele>785</ele>
        <time>2021-08-17T07:56:43Z</time>
      </trkpt>
      <trkpt lat="44.35325" lon="3.04255">
        <ele>785.3</ele>
        <time>2021-08-17T07:56:45Z</time>
      </trkpt>
      <trkpt lat="44.35331" lon="3.0425">
        <ele>785.6</ele>
        <time>2021-08-17T07:56:47Z</time>
      </trkpt>
      <trkpt lat="44.35337" lon="3.04244">
        <ele>785.8</ele>
        <time>2021-08-17T07:56:49Z</time>
      </trkpt>
      <trkpt lat="44.35343" lon="3.04239">
        <ele>785.8</ele>
        <time>2021-08-17T07:56:51Z</time>
      </trkpt>
      <trkpt lat="44.3535" lon="3.04233">
        <ele>785.8</ele>
        <time>2021-08-17T07:56:53Z</time>
      </trkpt>
      <trkpt lat="44.35356" lon="3.04229">
        <ele>785.9</ele>
        <time>2021-08-17T07:56:55Z</time>
      </trkpt>
      <trkpt lat="44.35363" lon="3.04224">
        <ele>786</ele>
        <time>2021-08-17T07:56:57Z</time>
      </trkpt>
      <trkpt lat="44.3537" lon="3.0422">
        <ele>786.2</ele>
        <time>2021-08-17T07:56:59Z</time>
      </trkpt>
      <trkpt lat="44.35377" lon="3.04215">
        <ele>786.3</ele>
        <time>2021-08-17T07:57:01Z</time>
      </trkpt>
      <trkpt lat="44.35384" lon="3.04212">
        <ele>786.6</ele>
        <time>2021-08-17T07:57:03Z</time>
      </trkpt>
      <trkpt lat="44.35392" lon="3.04209">
        <ele>786.9</ele>
        <time>2021-08-17T07:57:05Z</time>
      </trkpt>
      <trkpt lat="44.35399" lon="3.04206">
        <ele>787.2</ele>
        <time>2021-08-17T07:57:07Z</time>
      </trkpt>
      <trkpt lat="44.35407" lon="3.04203">
        <ele>787.5</ele>
        <time>2021-08-17T07:57:09Z</time>
      </trkpt>
      <trkpt lat="44.35415" lon="3.04199">
        <ele>787.8</ele>
        <time>2021-08-17T07:57:11Z</time>
      </trkpt>
      <trkpt lat="44.35422" lon="3.04196">
        <ele>788</ele>
        <time>2021-08-17T07:57:13Z</time>
      </trkpt>
      <trkpt lat="44.35428" lon="3.04192">
        <ele>788.1</ele>
        <time>2021-08-17T07:57:15Z</time>
      </trkpt>
      <trkpt lat="44.35435" lon="3.04187">
        <ele>788.2</ele>
        <time>2021-08-17T07:57:17Z</time>
      </trkpt>
      <trkpt lat="44.35441" lon="3.04181">
        <ele>788.1</ele>
        <time>2021-08-17T07:57:19Z</time>
      </trkpt>
      <trkpt lat="44.35447" lon="3.04176">
        <ele>788</ele>
        <time>2021-08-17T07:57:21Z</time>
      </trkpt>
      <trkpt lat="44.35453" lon="3.04169">
        <ele>787.8</ele>
        <time>2021-08-17T07:57:23Z</time>
      </trkpt>
      <trkpt lat="44.35458" lon="3.04162">
        <ele>787.8</ele>
        <time>2021-08-17T07:57:25Z</time>
      </trkpt>
      <trkpt lat="44.35464" lon="3.04154">
        <ele>787.8</ele>
        <time>2021-08-17T07:57:27Z</time>
      </trkpt>
      <trkpt lat="44.3547" lon="3.04147">
        <ele>787.8</ele>
        <time>2021-08-17T07:57:29Z</time>
      </trkpt>
      <trkpt lat="44.35475" lon="3.04139">
        <ele>787.9</ele>
        <time>2021-08-17T07:57:31Z</time>
      </trkpt>
      <trkpt lat="44.35481" lon="3.04131">
        <ele>787.9</ele>
        <time>2021-08-17T07:57:33Z</time>
      </trkpt>
      <trkpt lat="44.35486" lon="3.04124">
        <ele>788.1</ele>
        <time>2021-08-17T07:57:35Z</time>
      </trkpt>
      <trkpt lat="44.35491" lon="3.04116">
        <ele>788.2</ele>
        <time>2021-08-17T07:57:37Z</time>
      </trkpt>
      <trkpt lat="44.35496" lon="3.04107">
        <ele>788.3</ele>
        <time>2021-08-17T07:57:39Z</time>
      </trkpt>
      <trkpt lat="44.355" lon="3.04098">
        <ele>788.4</ele>
        <time>2021-08-17T07:57:41Z</time>
      </trkpt>
      <trkpt lat="44.35504" lon="3.04089">
        <ele>788.2</ele>
        <time>2021-08-17T07:57:43Z</time>
      </trkpt>
      <trkpt lat="44.35506" lon="3.04078">
        <ele>788.1</ele>
        <time>2021-08-17T07:57:45Z</time>
      </trkpt>
      <trkpt lat="44.35508" lon="3.04069">
        <ele>788</ele>
        <time>2021-08-17T07:57:47Z</time>
      </trkpt>
      <trkpt lat="44.35509" lon="3.04058">
        <ele>787.8</ele>
        <time>2021-08-17T07:57:49Z</time>
      </trkpt>
      <trkpt lat="44.35509" lon="3.04048">
        <ele>787.7</ele>
        <time>2021-08-17T07:57:51Z</time>
      </trkpt>
      <trkpt lat="44.35508" lon="3.04038">
        <ele>787.5</ele>
        <time>2021-08-17T07:57:53Z</time>
      </trkpt>
      <trkpt lat="44.35507" lon="3.04028">
        <ele>787.3</ele>
        <time>2021-08-17T07:57:55Z</time>
      </trkpt>
      <trkpt lat="44.35507" lon="3.04018">
        <ele>787.2</ele>
        <time>2021-08-17T07:57:57Z</time>
      </trkpt>
      <trkpt lat="44.35505" lon="3.04007">
        <ele>787</ele>
        <time>2021-08-17T07:57:59Z</time>
      </trkpt>
      <trkpt lat="44.35504" lon="3.03997">
        <ele>787</ele>
        <time>2021-08-17T07:58:01Z</time>
      </trkpt>
      <trkpt lat="44.35503" lon="3.03987">
        <ele>787.4</ele>
        <time>2021-08-17T07:58:03Z</time>
      </trkpt>
      <trkpt lat="44.35501" lon="3.03977">
        <ele>787.8</ele>
        <time>2021-08-17T07:58:05Z</time>
      </trkpt>
      <trkpt lat="44.35499" lon="3.03967">
        <ele>788.2</ele>
        <time>2021-08-17T07:58:07Z</time>
      </trkpt>
      <trkpt lat="44.35498" lon="3.03957">
        <ele>788.6</ele>
        <time>2021-08-17T07:58:09Z</time>
      </trkpt>
      <trkpt lat="44.35497" lon="3.03947">
        <ele>789</ele>
        <time>2021-08-17T07:58:11Z</time>
      </trkpt>
      <trkpt lat="44.35496" lon="3.03937">
        <ele>789.4</ele>
        <time>2021-08-17T07:58:13Z</time>
      </trkpt>
      <trkpt lat="44.35496" lon="3.03926">
        <ele>789.8</ele>
        <time>2021-08-17T07:58:15Z</time>
      </trkpt>
      <trkpt lat="44.35496" lon="3.03916">
        <ele>790.2</ele>
        <time>2021-08-17T07:58:17Z</time>
      </trkpt>
      <trkpt lat="44.35496" lon="3.03906">
        <ele>790.7</ele>
        <time>2021-08-17T07:58:19Z</time>
      </trkpt>
      <trkpt lat="44.35497" lon="3.03896">
        <ele>791.2</ele>
        <time>2021-08-17T07:58:21Z</time>
      </trkpt>
      <trkpt lat="44.35498" lon="3.03886">
        <ele>791.6</ele>
        <time>2021-08-17T07:58:23Z</time>
      </trkpt>
      <trkpt lat="44.355" lon="3.03877">
        <ele>791.9</ele>
        <time>2021-08-17T07:58:25Z</time>
      </trkpt>
      <trkpt lat="44.35503" lon="3.03868">
        <ele>792.2</ele>
        <time>2021-08-17T07:58:27Z</time>
      </trkpt>
      <trkpt lat="44.35506" lon="3.03859">
        <ele>792.5</ele>
        <time>2021-08-17T07:58:29Z</time>
      </trkpt>
      <trkpt lat="44.35509" lon="3.03852">
        <ele>792.7</ele>
        <time>2021-08-17T07:58:31Z</time>
      </trkpt>
      <trkpt lat="44.35512" lon="3.03844">
        <ele>792.9</ele>
        <time>2021-08-17T07:58:33Z</time>
      </trkpt>
      <trkpt lat="44.35515" lon="3.03837">
        <ele>793.1</ele>
        <time>2021-08-17T07:58:35Z</time>
      </trkpt>
      <trkpt lat="44.35519" lon="3.03831">
        <ele>793.3</ele>
        <time>2021-08-17T07:58:37Z</time>
      </trkpt>
      <trkpt lat="44.35523" lon="3.03823">
        <ele>793.8</ele>
        <time>2021-08-17T07:58:39Z</time>
      </trkpt>
      <trkpt lat="44.35527" lon="3.03816">
        <ele>794.2</ele>
        <time>2021-08-17T07:58:41Z</time>
      </trkpt>
      <trkpt lat="44.35531" lon="3.03809">
        <ele>794.6</ele>
        <time>2021-08-17T07:58:43Z</time>
      </trkpt>
      <trkpt lat="44.35535" lon="3.03802">
        <ele>794.8</ele>
        <time>2021-08-17T07:58:45Z</time>
      </trkpt>
      <trkpt lat="44.35539" lon="3.03796">
        <ele>795</ele>
        <time>2021-08-17T07:58:47Z</time>
      </trkpt>
      <trkpt lat="44.35544" lon="3.0379">
        <ele>795.2</ele>
        <time>2021-08-17T07:58:49Z</time>
      </trkpt>
      <trkpt lat="44.35549" lon="3.03783">
        <ele>795.4</ele>
        <time>2021-08-17T07:58:51Z</time>
      </trkpt>
      <trkpt lat="44.35553" lon="3.03777">
        <ele>795.6</ele>
        <time>2021-08-17T07:58:53Z</time>
      </trkpt>
      <trkpt lat="44.35559" lon="3.03771">
        <ele>795.5</ele>
        <time>2021-08-17T07:58:55Z</time>
      </trkpt>
      <trkpt lat="44.35565" lon="3.03766">
        <ele>795.5</ele>
        <time>2021-08-17T07:58:57Z</time>
      </trkpt>
      <trkpt lat="44.35571" lon="3.03762">
        <ele>795.2</ele>
        <time>2021-08-17T07:58:59Z</time>
      </trkpt>
      <trkpt lat="44.35577" lon="3.0376">
        <ele>794.8</ele>
        <time>2021-08-17T07:59:01Z</time>
      </trkpt>
      <trkpt lat="44.35584" lon="3.0376">
        <ele>794.4</ele>
        <time>2021-08-17T07:59:03Z</time>
      </trkpt>
      <trkpt lat="44.3559" lon="3.0376">
        <ele>794.5</ele>
        <time>2021-08-17T07:59:05Z</time>
      </trkpt>
      <trkpt lat="44.35595" lon="3.03761">
        <ele>794.5</ele>
        <time>2021-08-17T07:59:07Z</time>
      </trkpt>
      <trkpt lat="44.35602" lon="3.03762">
        <ele>794.5</ele>
        <time>2021-08-17T07:59:09Z</time>
      </trkpt>
      <trkpt lat="44.35608" lon="3.03763">
        <ele>794.5</ele>
        <time>2021-08-17T07:59:11Z</time>
      </trkpt>
      <trkpt lat="44.35614" lon="3.03764">
        <ele>794.6</ele>
        <time>2021-08-17T07:59:13Z</time>
      </trkpt>
      <trkpt lat="44.3562" lon="3.03764">
        <ele>794.6</ele>
        <time>2021-08-17T07:59:15Z</time>
      </trkpt>
      <trkpt lat="44.35627" lon="3.03763">
        <ele>794.7</ele>
        <time>2021-08-17T07:59:17Z</time>
      </trkpt>
      <trkpt lat="44.35633" lon="3.03762">
        <ele>794.9</ele>
        <time>2021-08-17T07:59:19Z</time>
      </trkpt>
      <trkpt lat="44.3564" lon="3.03761">
        <ele>795</ele>
        <time>2021-08-17T07:59:21Z</time>
      </trkpt>
      <trkpt lat="44.35646" lon="3.03758">
        <ele>795.3</ele>
        <time>2021-08-17T07:59:23Z</time>
      </trkpt>
      <trkpt lat="44.35652" lon="3.03755">
        <ele>795.5</ele>
        <time>2021-08-17T07:59:25Z</time>
      </trkpt>
      <trkpt lat="44.35659" lon="3.03753">
        <ele>795.7</ele>
        <time>2021-08-17T07:59:27Z</time>
      </trkpt>
      <trkpt lat="44.35665" lon="3.03751">
        <ele>795.9</ele>
        <time>2021-08-17T07:59:29Z</time>
      </trkpt>
      <trkpt lat="44.35672" lon="3.03749">
        <ele>796.3</ele>
        <time>2021-08-17T07:59:31Z</time>
      </trkpt>
      <trkpt lat="44.35678" lon="3.03749">
        <ele>796.6</ele>
        <time>2021-08-17T07:59:33Z</time>
      </trkpt>
      <trkpt lat="44.35685" lon="3.03751">
        <ele>796.8</ele>
        <time>2021-08-17T07:59:35Z</time>
      </trkpt>
      <trkpt lat="44.35691" lon="3.03755">
        <ele>796.9</ele>
        <time>2021-08-17T07:59:37Z</time>
      </trkpt>
      <trkpt lat="44.35696" lon="3.03761">
        <ele>796.8</ele>
        <time>2021-08-17T07:59:39Z</time>
      </trkpt>
      <trkpt lat="44.35701" lon="3.03768">
        <ele>796.7</ele>
        <time>2021-08-17T07:59:41Z</time>
      </trkpt>
      <trkpt lat="44.35705" lon="3.03775">
        <ele>796.4</ele>
        <time>2021-08-17T07:59:43Z</time>
      </trkpt>
      <trkpt lat="44.35708" lon="3.03783">
        <ele>796.2</ele>
        <time>2021-08-17T07:59:45Z</time>
      </trkpt>
      <trkpt lat="44.35711" lon="3.03791">
        <ele>796</ele>
        <time>2021-08-17T07:59:47Z</time>
      </trkpt>
      <trkpt lat="44.35715" lon="3.03798">
        <ele>795.8</ele>
        <time>2021-08-17T07:59:49Z</time>
      </trkpt>
      <trkpt lat="44.35718" lon="3.03805">
        <ele>795.6</ele>
        <time>2021-08-17T07:59:51Z</time>
      </trkpt>
      <trkpt lat="44.35722" lon="3.03812">
        <ele>795.4</ele>
        <time>2021-08-17T07:59:53Z</time>
      </trkpt>
      <trkpt lat="44.35725" lon="3.03819">
        <ele>795.3</ele>
        <time>2021-08-17T07:59:55Z</time>
      </trkpt>
      <trkpt lat="44.3573" lon="3.03825">
        <ele>795.2</ele>
        <time>2021-08-17T07:59:57Z</time>
      </trkpt>
      <trkpt lat="44.35734" lon="3.03831">
        <ele>795.2</ele>
        <time>2021-08-17T07:59:59Z</time>
      </trkpt>
      <trkpt lat="44.35739" lon="3.03836">
        <ele>795.2</ele>
        <time>2021-08-17T08:00:01Z</time>
      </trkpt>
      <trkpt lat="44.35745" lon="3.03842">
        <ele>795.3</ele>
        <time>2021-08-17T08:00:03Z</time>
      </trkpt>
      <trkpt lat="44.35751" lon="3.03847">
        <ele>795.4</ele>
        <time>2021-08-17T08:00:05Z</time>
      </trkpt>
      <trkpt lat="44.35758" lon="3.03852">
        <ele>795.4</ele>
        <time>2021-08-17T08:00:07Z</time>
      </trkpt>
      <trkpt lat="44.35764" lon="3.03857">
        <ele>795.4</ele>
        <time>2021-08-17T08:00:09Z</time>
      </trkpt>
      <trkpt lat="44.35771" lon="3.03861">
        <ele>795.4</ele>
        <time>2021-08-17T08:00:11Z</time>
      </trkpt>
      <trkpt lat="44.35778" lon="3.03866">
        <ele>795.4</ele>
        <time>2021-08-17T08:00:13Z</time>
      </trkpt>
      <trkpt lat="44.35784" lon="3.0387">
        <ele>795.5</ele>
        <time>2021-08-17T08:00:15Z</time>
      </trkpt>
      <trkpt lat="44.3579" lon="3.03874">
        <ele>795.5</ele>
        <time>2021-08-17T08:00:17Z</time>
      </trkpt>
      <trkpt lat="44.35797" lon="3.03878">
        <ele>795.6</ele>
        <time>2021-08-17T08:00:19Z</time>
      </trkpt>
      <trkpt lat="44.35803" lon="3.0388">
        <ele>795.7</ele>
        <time>2021-08-17T08:00:21Z</time>
      </trkpt>
      <trkpt lat="44.3581" lon="3.03881">
        <ele>795.9</ele>
        <time>2021-08-17T08:00:23Z</time>
      </trkpt>
      <trkpt lat="44.35817" lon="3.03882">
        <ele>796.1</ele>
        <time>2021-08-17T08:00:25Z</time>
      </trkpt>
      <trkpt lat="44.35824" lon="3.03881">
        <ele>796.4</ele>
        <time>2021-08-17T08:00:27Z</time>
      </trkpt>
      <trkpt lat="44.35831" lon="3.03877">
        <ele>796.8</ele>
        <time>2021-08-17T08:00:29Z</time>
      </trkpt>
      <trkpt lat="44.35837" lon="3.03873">
        <ele>796.9</ele>
        <time>2021-08-17T08:00:31Z</time>
      </trkpt>
      <trkpt lat="44.35842" lon="3.03868">
        <ele>796.9</ele>
        <time>2021-08-17T08:00:33Z</time>
      </trkpt>
      <trkpt lat="44.35847" lon="3.03863">
        <ele>796.9</ele>
        <time>2021-08-17T08:00:35Z</time>
      </trkpt>
      <trkpt lat="44.35852" lon="3.03857">
        <ele>797</ele>
        <time>2021-08-17T08:00:37Z</time>
      </trkpt>
      <trkpt lat="44.35856" lon="3.03851">
        <ele>797.1</ele>
        <time>2021-08-17T08:00:39Z</time>
      </trkpt>
      <trkpt lat="44.3586" lon="3.03843">
        <ele>797.2</ele>
        <time>2021-08-17T08:00:41Z</time>
      </trkpt>
      <trkpt lat="44.35865" lon="3.03836">
        <ele>797.4</ele>
        <time>2021-08-17T08:00:43Z</time>
      </trkpt>
      <trkpt lat="44.35868" lon="3.03828">
        <ele>797.6</ele>
        <time>2021-08-17T08:00:45Z</time>
      </trkpt>
      <trkpt lat="44.35872" lon="3.0382">
        <ele>797.9</ele>
        <time>2021-08-17T08:00:47Z</time>
      </trkpt>
      <trkpt lat="44.35875" lon="3.03812">
        <ele>798.2</ele>
        <time>2021-08-17T08:00:49Z</time>
      </trkpt>
      <trkpt lat="44.35878" lon="3.03805">
        <ele>798.4</ele>
        <time>2021-08-17T08:00:51Z</time>
      </trkpt>
      <trkpt lat="44.35881" lon="3.03798">
        <ele>798.6</ele>
        <time>2021-08-17T08:00:53Z</time>
      </trkpt>
      <trkpt lat="44.35885" lon="3.03791">
        <ele>798.9</ele>
        <time>2021-08-17T08:00:55Z</time>
      </trkpt>
      <trkpt lat="44.35888" lon="3.03785">
        <ele>799.1</ele>
        <time>2021-08-17T08:00:57Z</time>
      </trkpt>
      <trkpt lat="44.3589" lon="3.03778">
        <ele>799.4</ele>
        <time>2021-08-17T08:00:59Z</time>
      </trkpt>
      <trkpt lat="44.35893" lon="3.03771">
        <ele>799.6</ele>
        <time>2021-08-17T08:01:01Z</time>
      </trkpt>
      <trkpt lat="44.35897" lon="3.03764">
        <ele>799.9</ele>
        <time>2021-08-17T08:01:03Z</time>
      </trkpt>
      <trkpt lat="44.35899" lon="3.03757">
        <ele>800.2</ele>
        <time>2021-08-17T08:01:05Z</time>
      </trkpt>
      <trkpt lat="44.35902" lon="3.0375">
        <ele>800.5</ele>
        <time>2021-08-17T08:01:07Z</time>
      </trkpt>
      <trkpt lat="44.35905" lon="3.03743">
        <ele>801.1</ele>
        <time>2021-08-17T08:01:09Z</time>
      </trkpt>
      <trkpt lat="44.35909" lon="3.03736">
        <ele>801.7</ele>
        <time>2021-08-17T08:01:11Z</time>
      </trkpt>
      <trkpt lat="44.35913" lon="3.03729">
        <ele>802.2</ele>
        <time>2021-08-17T08:01:13Z</time>
      </trkpt>
      <trkpt lat="44.35917" lon="3.03721">
        <ele>802.8</ele>
        <time>2021-08-17T08:01:15Z</time>
      </trkpt>
      <trkpt lat="44.35921" lon="3.03715">
        <ele>803.4</ele>
        <time>2021-08-17T08:01:17Z</time>
      </trkpt>
      <trkpt lat="44.35926" lon="3.03709">
        <ele>804.1</ele>
        <time>2021-08-17T08:01:19Z</time>
      </trkpt>
      <trkpt lat="44.35931" lon="3.03704">
        <ele>804.6</ele>
        <time>2021-08-17T08:01:21Z</time>
      </trkpt>
      <trkpt lat="44.35936" lon="3.03699">
        <ele>805.2</ele>
        <time>2021-08-17T08:01:23Z</time>
      </trkpt>
      <trkpt lat="44.35942" lon="3.03695">
        <ele>805.7</ele>
        <time>2021-08-17T08:01:25Z</time>
      </trkpt>
      <trkpt lat="44.35948" lon="3.03692">
        <ele>806.1</ele>
        <time>2021-08-17T08:01:27Z</time>
      </trkpt>
      <trkpt lat="44.35954" lon="3.03689">
        <ele>806.5</ele>
        <time>2021-08-17T08:01:29Z</time>
      </trkpt>
      <trkpt lat="44.3596" lon="3.03687">
        <ele>806.9</ele>
        <time>2021-08-17T08:01:31Z</time>
      </trkpt>
      <trkpt lat="44.35967" lon="3.03685">
        <ele>807.2</ele>
        <time>2021-08-17T08:01:33Z</time>
      </trkpt>
      <trkpt lat="44.35973" lon="3.03685">
        <ele>807.3</ele>
        <time>2021-08-17T08:01:35Z</time>
      </trkpt>
      <trkpt lat="44.3598" lon="3.03685">
        <ele>807.5</ele>
        <time>2021-08-17T08:01:37Z</time>
      </trkpt>
      <trkpt lat="44.35986" lon="3.03685">
        <ele>807.5</ele>
        <time>2021-08-17T08:01:39Z</time>
      </trkpt>
      <trkpt lat="44.35993" lon="3.03686">
        <ele>807.6</ele>
        <time>2021-08-17T08:01:41Z</time>
      </trkpt>
      <trkpt lat="44.35999" lon="3.03686">
        <ele>807.7</ele>
        <time>2021-08-17T08:01:43Z</time>
      </trkpt>
      <trkpt lat="44.36006" lon="3.03687">
        <ele>807.6</ele>
        <time>2021-08-17T08:01:45Z</time>
      </trkpt>
      <trkpt lat="44.36012" lon="3.03687">
        <ele>807.6</ele>
        <time>2021-08-17T08:01:47Z</time>
      </trkpt>
      <trkpt lat="44.36019" lon="3.03689">
        <ele>807.5</ele>
        <time>2021-08-17T08:01:49Z</time>
      </trkpt>
      <trkpt lat="44.36025" lon="3.03689">
        <ele>807.4</ele>
        <time>2021-08-17T08:01:51Z</time>
      </trkpt>
      <trkpt lat="44.36031" lon="3.03691">
        <ele>807.3</ele>
        <time>2021-08-17T08:01:53Z</time>
      </trkpt>
      <trkpt lat="44.36037" lon="3.03692">
        <ele>807.2</ele>
        <time>2021-08-17T08:01:55Z</time>
      </trkpt>
      <trkpt lat="44.36043" lon="3.03693">
        <ele>807.1</ele>
        <time>2021-08-17T08:01:57Z</time>
      </trkpt>
      <trkpt lat="44.3605" lon="3.03694">
        <ele>807.1</ele>
        <time>2021-08-17T08:01:59Z</time>
      </trkpt>
      <trkpt lat="44.36056" lon="3.03696">
        <ele>807</ele>
        <time>2021-08-17T08:02:01Z</time>
      </trkpt>
      <trkpt lat="44.36062" lon="3.03697">
        <ele>806.9</ele>
        <time>2021-08-17T08:02:03Z</time>
      </trkpt>
      <trkpt lat="44.36069" lon="3.03698">
        <ele>806.9</ele>
        <time>2021-08-17T08:02:05Z</time>
      </trkpt>
      <trkpt lat="44.36075" lon="3.03699">
        <ele>806.8</ele>
        <time>2021-08-17T08:02:07Z</time>
      </trkpt>
      <trkpt lat="44.36082" lon="3.03701">
        <ele>806.7</ele>
        <time>2021-08-17T08:02:09Z</time>
      </trkpt>
      <trkpt lat="44.36088" lon="3.03702">
        <ele>806.7</ele>
        <time>2021-08-17T08:02:11Z</time>
      </trkpt>
      <trkpt lat="44.36094" lon="3.03703">
        <ele>806.7</ele>
        <time>2021-08-17T08:02:13Z</time>
      </trkpt>
      <trkpt lat="44.361" lon="3.03705">
        <ele>806.6</ele>
        <time>2021-08-17T08:02:15Z</time>
      </trkpt>
      <trkpt lat="44.36107" lon="3.03706">
        <ele>806.7</ele>
        <time>2021-08-17T08:02:17Z</time>
      </trkpt>
      <trkpt lat="44.36113" lon="3.03707">
        <ele>806.7</ele>
        <time>2021-08-17T08:02:19Z</time>
      </trkpt>
      <trkpt lat="44.36119" lon="3.03708">
        <ele>806.7</ele>
        <time>2021-08-17T08:02:21Z</time>
      </trkpt>
      <trkpt lat="44.36125" lon="3.03709">
        <ele>806.6</ele>
        <time>2021-08-17T08:02:23Z</time>
      </trkpt>
      <trkpt lat="44.36131" lon="3.0371">
        <ele>806.7</ele>
        <time>2021-08-17T08:02:25Z</time>
      </trkpt>
      <trkpt lat="44.36137" lon="3.0371">
        <ele>806.8</ele>
        <time>2021-08-17T08:02:27Z</time>
      </trkpt>
      <trkpt lat="44.36142" lon="3.03711">
        <ele>806.8</ele>
        <time>2021-08-17T08:02:29Z</time>
      </trkpt>
      <trkpt lat="44.36148" lon="3.0371">
        <ele>807</ele>
        <time>2021-08-17T08:02:31Z</time>
      </trkpt>
      <trkpt lat="44.36154" lon="3.03709">
        <ele>807.2</ele>
        <time>2021-08-17T08:02:33Z</time>
      </trkpt>
      <trkpt lat="44.3616" lon="3.03708">
        <ele>807.4</ele>
        <time>2021-08-17T08:02:35Z</time>
      </trkpt>
      <trkpt lat="44.36165" lon="3.03706">
        <ele>807.6</ele>
        <time>2021-08-17T08:02:37Z</time>
      </trkpt>
      <trkpt lat="44.3617" lon="3.03705">
        <ele>807.7</ele>
        <time>2021-08-17T08:02:39Z</time>
      </trkpt>
      <trkpt lat="44.36176" lon="3.03704">
        <ele>807.7</ele>
        <time>2021-08-17T08:02:41Z</time>
      </trkpt>
      <trkpt lat="44.36181" lon="3.03704">
        <ele>807.7</ele>
        <time>2021-08-17T08:02:43Z</time>
      </trkpt>
      <trkpt lat="44.36185" lon="3.03704">
        <ele>807.7</ele>
        <time>2021-08-17T08:02:45Z</time>
      </trkpt>
      <trkpt lat="44.36188" lon="3.03704">
        <ele>807.6</ele>
        <time>2021-08-17T08:02:47Z</time>
      </trkpt>
      <trkpt lat="44.36189" lon="3.03704">
        <ele>807.6</ele>
        <time>2021-08-17T08:02:49Z</time>
      </trkpt>
      <trkpt lat="44.36189" lon="3.03704">
        <ele>807.6</ele>
        <time>2021-08-17T08:02:51Z</time>
      </trkpt>
      <trkpt lat="44.36189" lon="3.03704">
        <ele>807.6</ele>
        <time>2021-08-17T08:02:53Z</time>
      </trkpt>
      <trkpt lat="44.36189" lon="3.03704">
        <ele>807.6</ele>
        <time>2021-08-17T08:02:55Z</time>
      </trkpt>
      <trkpt lat="44.36188" lon="3.03704">
        <ele>807.6</ele>
        <time>2021-08-17T08:02:57Z</time>
      </trkpt>
      <trkpt lat="44.36195" lon="3.03691">
        <ele>808.1</ele>
        <time>2021-08-17T08:11:37Z</time>
      </trkpt>
      <trkpt lat="44.36199" lon="3.03688">
        <ele>808.2</ele>
        <time>2021-08-17T08:11:39Z</time>
      </trkpt>
      <trkpt lat="44.36204" lon="3.03685">
        <ele>808.1</ele>
        <time>2021-08-17T08:11:41Z</time>
      </trkpt>
      <trkpt lat="44.36209" lon="3.03679">
        <ele>808.1</ele>
        <time>2021-08-17T08:11:43Z</time>
      </trkpt>
      <trkpt lat="44.36215" lon="3.03672">
        <ele>808</ele>
        <time>2021-08-17T08:11:45Z</time>
      </trkpt>
      <trkpt lat="44.36221" lon="3.03663">
        <ele>807.5</ele>
        <time>2021-08-17T08:11:47Z</time>
      </trkpt>
      <trkpt lat="44.36228" lon="3.03654">
        <ele>806.5</ele>
        <time>2021-08-17T08:11:49Z</time>
      </trkpt>
      <trkpt lat="44.36235" lon="3.03644">
        <ele>805.3</ele>
        <time>2021-08-17T08:11:51Z</time>
      </trkpt>
      <trkpt lat="44.36243" lon="3.03633">
        <ele>803.9</ele>
        <time>2021-08-17T08:11:53Z</time>
      </trkpt>
      <trkpt lat="44.36251" lon="3.03622">
        <ele>802.3</ele>
        <time>2021-08-17T08:11:55Z</time>
      </trkpt>
      <trkpt lat="44.36259" lon="3.0361">
        <ele>802.3</ele>
        <time>2021-08-17T08:11:57Z</time>
      </trkpt>
      <trkpt lat="44.36268" lon="3.03597">
        <ele>802.1</ele>
        <time>2021-08-17T08:11:59Z</time>
      </trkpt>
      <trkpt lat="44.36277" lon="3.03584">
        <ele>802</ele>
        <time>2021-08-17T08:12:01Z</time>
      </trkpt>
      <trkpt lat="44.36286" lon="3.03571">
        <ele>801.2</ele>
        <time>2021-08-17T08:12:03Z</time>
      </trkpt>
      <trkpt lat="44.36294" lon="3.03558">
        <ele>800.2</ele>
        <time>2021-08-17T08:12:05Z</time>
      </trkpt>
      <trkpt lat="44.36301" lon="3.03543">
        <ele>798.9</ele>
        <time>2021-08-17T08:12:07Z</time>
      </trkpt>
      <trkpt lat="44.36308" lon="3.03526">
        <ele>797.5</ele>
        <time>2021-08-17T08:12:09Z</time>
      </trkpt>
      <trkpt lat="44.36314" lon="3.03509">
        <ele>795.9</ele>
        <time>2021-08-17T08:12:11Z</time>
      </trkpt>
      <trkpt lat="44.3632" lon="3.03492">
        <ele>794.5</ele>
        <time>2021-08-17T08:12:13Z</time>
      </trkpt>
      <trkpt lat="44.36326" lon="3.03474">
        <ele>793.3</ele>
        <time>2021-08-17T08:12:15Z</time>
      </trkpt>
      <trkpt lat="44.36333" lon="3.03457">
        <ele>792.3</ele>
        <time>2021-08-17T08:12:17Z</time>
      </trkpt>
      <trkpt lat="44.3634" lon="3.03442">
        <ele>792.7</ele>
        <time>2021-08-17T08:12:19Z</time>
      </trkpt>
      <trkpt lat="44.36347" lon="3.03429">
        <ele>793.4</ele>
        <time>2021-08-17T08:12:21Z</time>
      </trkpt>
      <trkpt lat="44.36353" lon="3.03417">
        <ele>793.7</ele>
        <time>2021-08-17T08:12:23Z</time>
      </trkpt>
      <trkpt lat="44.36359" lon="3.03407">
        <ele>794.3</ele>
        <time>2021-08-17T08:12:25Z</time>
      </trkpt>
      <trkpt lat="44.36364" lon="3.03399">
        <ele>795</ele>
        <time>2021-08-17T08:12:27Z</time>
      </trkpt>
      <trkpt lat="44.36368" lon="3.03391">
        <ele>795.7</ele>
        <time>2021-08-17T08:12:29Z</time>
      </trkpt>
      <trkpt lat="44.36373" lon="3.03384">
        <ele>796.2</ele>
        <time>2021-08-17T08:12:31Z</time>
      </trkpt>
      <trkpt lat="44.36376" lon="3.03378">
        <ele>796.6</ele>
        <time>2021-08-17T08:12:33Z</time>
      </trkpt>
      <trkpt lat="44.3638" lon="3.03372">
        <ele>797.1</ele>
        <time>2021-08-17T08:12:35Z</time>
      </trkpt>
      <trkpt lat="44.36383" lon="3.03366">
        <ele>797.5</ele>
        <time>2021-08-17T08:12:37Z</time>
      </trkpt>
      <trkpt lat="44.36386" lon="3.03362">
        <ele>798</ele>
        <time>2021-08-17T08:12:39Z</time>
      </trkpt>
      <trkpt lat="44.36389" lon="3.03357">
        <ele>798.3</ele>
        <time>2021-08-17T08:12:41Z</time>
      </trkpt>
      <trkpt lat="44.36392" lon="3.03352">
        <ele>798.8</ele>
        <time>2021-08-17T08:12:43Z</time>
      </trkpt>
      <trkpt lat="44.36395" lon="3.03347">
        <ele>799.1</ele>
        <time>2021-08-17T08:12:45Z</time>
      </trkpt>
      <trkpt lat="44.36398" lon="3.03342">
        <ele>799.4</ele>
        <time>2021-08-17T08:12:47Z</time>
      </trkpt>
      <trkpt lat="44.36401" lon="3.03337">
        <ele>799.9</ele>
        <time>2021-08-17T08:12:49Z</time>
      </trkpt>
      <trkpt lat="44.36404" lon="3.03331">
        <ele>800.1</ele>
        <time>2021-08-17T08:12:51Z</time>
      </trkpt>
      <trkpt lat="44.36407" lon="3.03326">
        <ele>800.5</ele>
        <time>2021-08-17T08:12:53Z</time>
      </trkpt>
      <trkpt lat="44.3641" lon="3.0332">
        <ele>800.8</ele>
        <time>2021-08-17T08:12:55Z</time>
      </trkpt>
      <trkpt lat="44.36413" lon="3.03313">
        <ele>801.3</ele>
        <time>2021-08-17T08:12:57Z</time>
      </trkpt>
      <trkpt lat="44.36416" lon="3.03306">
        <ele>801.5</ele>
        <time>2021-08-17T08:12:59Z</time>
      </trkpt>
      <trkpt lat="44.36419" lon="3.03298">
        <ele>801.6</ele>
        <time>2021-08-17T08:13:01Z</time>
      </trkpt>
      <trkpt lat="44.36423" lon="3.0329">
        <ele>801.6</ele>
        <time>2021-08-17T08:13:03Z</time>
      </trkpt>
      <trkpt lat="44.36427" lon="3.03282">
        <ele>801.5</ele>
        <time>2021-08-17T08:13:05Z</time>
      </trkpt>
      <trkpt lat="44.36431" lon="3.03273">
        <ele>801.3</ele>
        <time>2021-08-17T08:13:07Z</time>
      </trkpt>
      <trkpt lat="44.36436" lon="3.03264">
        <ele>801.2</ele>
        <time>2021-08-17T08:13:09Z</time>
      </trkpt>
      <trkpt lat="44.3644" lon="3.03255">
        <ele>801</ele>
        <time>2021-08-17T08:13:11Z</time>
      </trkpt>
      <trkpt lat="44.36446" lon="3.03246">
        <ele>800.9</ele>
        <time>2021-08-17T08:13:13Z</time>
      </trkpt>
      <trkpt lat="44.36452" lon="3.03237">
        <ele>800.8</ele>
        <time>2021-08-17T08:13:15Z</time>
      </trkpt>
      <trkpt lat="44.36459" lon="3.03227">
        <ele>800.6</ele>
        <time>2021-08-17T08:13:17Z</time>
      </trkpt>
      <trkpt lat="44.36466" lon="3.03218">
        <ele>800.5</ele>
        <time>2021-08-17T08:13:19Z</time>
      </trkpt>
      <trkpt lat="44.36473" lon="3.0321">
        <ele>800.5</ele>
        <time>2021-08-17T08:13:21Z</time>
      </trkpt>
      <trkpt lat="44.3648" lon="3.03203">
        <ele>800.5</ele>
        <time>2021-08-17T08:13:23Z</time>
      </trkpt>
      <trkpt lat="44.36488" lon="3.03195">
        <ele>800.4</ele>
        <time>2021-08-17T08:13:25Z</time>
      </trkpt>
      <trkpt lat="44.36497" lon="3.03187">
        <ele>800.4</ele>
        <time>2021-08-17T08:13:27Z</time>
      </trkpt>
      <trkpt lat="44.36506" lon="3.0318">
        <ele>800</ele>
        <time>2021-08-17T08:13:29Z</time>
      </trkpt>
      <trkpt lat="44.36515" lon="3.03174">
        <ele>799.5</ele>
        <time>2021-08-17T08:13:31Z</time>
      </trkpt>
      <trkpt lat="44.36524" lon="3.03169">
        <ele>799.2</ele>
        <time>2021-08-17T08:13:33Z</time>
      </trkpt>
      <trkpt lat="44.36535" lon="3.03164">
        <ele>798.9</ele>
        <time>2021-08-17T08:13:35Z</time>
      </trkpt>
      <trkpt lat="44.36545" lon="3.0316">
        <ele>798.6</ele>
        <time>2021-08-17T08:13:37Z</time>
      </trkpt>
      <trkpt lat="44.36556" lon="3.03157">
        <ele>798.6</ele>
        <time>2021-08-17T08:13:39Z</time>
      </trkpt>
      <trkpt lat="44.36567" lon="3.03155">
        <ele>798.5</ele>
        <time>2021-08-17T08:13:41Z</time>
      </trkpt>
      <trkpt lat="44.36578" lon="3.03152">
        <ele>798.5</ele>
        <time>2021-08-17T08:13:43Z</time>
      </trkpt>
      <trkpt lat="44.36589" lon="3.03151">
        <ele>798.1</ele>
        <time>2021-08-17T08:13:45Z</time>
      </trkpt>
      <trkpt lat="44.366" lon="3.03152">
        <ele>797.3</ele>
        <time>2021-08-17T08:13:47Z</time>
      </trkpt>
      <trkpt lat="44.36611" lon="3.03153">
        <ele>796.8</ele>
        <time>2021-08-17T08:13:49Z</time>
      </trkpt>
      <trkpt lat="44.36623" lon="3.03155">
        <ele>796.4</ele>
        <time>2021-08-17T08:13:51Z</time>
      </trkpt>
      <trkpt lat="44.36634" lon="3.03159">
        <ele>796.1</ele>
        <time>2021-08-17T08:13:53Z</time>
      </trkpt>
      <trkpt lat="44.36646" lon="3.03164">
        <ele>796</ele>
        <time>2021-08-17T08:13:55Z</time>
      </trkpt>
      <trkpt lat="44.36657" lon="3.03171">
        <ele>796.3</ele>
        <time>2021-08-17T08:13:57Z</time>
      </trkpt>
      <trkpt lat="44.36668" lon="3.0318">
        <ele>796.4</ele>
        <time>2021-08-17T08:13:59Z</time>
      </trkpt>
      <trkpt lat="44.36678" lon="3.0319">
        <ele>795.6</ele>
        <time>2021-08-17T08:14:01Z</time>
      </trkpt>
      <trkpt lat="44.36688" lon="3.03202">
        <ele>795.3</ele>
        <time>2021-08-17T08:14:03Z</time>
      </trkpt>
      <trkpt lat="44.36698" lon="3.03214">
        <ele>795.2</ele>
        <time>2021-08-17T08:14:05Z</time>
      </trkpt>
      <trkpt lat="44.36708" lon="3.03226">
        <ele>795</ele>
        <time>2021-08-17T08:14:07Z</time>
      </trkpt>
      <trkpt lat="44.3672" lon="3.03235">
        <ele>794</ele>
        <time>2021-08-17T08:14:09Z</time>
      </trkpt>
      <trkpt lat="44.36734" lon="3.03243">
        <ele>792.7</ele>
        <time>2021-08-17T08:14:11Z</time>
      </trkpt>
      <trkpt lat="44.36747" lon="3.0325">
        <ele>791.5</ele>
        <time>2021-08-17T08:14:13Z</time>
      </trkpt>
      <trkpt lat="44.3676" lon="3.03258">
        <ele>791.9</ele>
        <time>2021-08-17T08:14:15Z</time>
      </trkpt>
      <trkpt lat="44.36774" lon="3.03267">
        <ele>792.5</ele>
        <time>2021-08-17T08:14:17Z</time>
      </trkpt>
      <trkpt lat="44.36787" lon="3.03275">
        <ele>792.9</ele>
        <time>2021-08-17T08:14:19Z</time>
      </trkpt>
      <trkpt lat="44.368" lon="3.03283">
        <ele>792.9</ele>
        <time>2021-08-17T08:14:21Z</time>
      </trkpt>
      <trkpt lat="44.36813" lon="3.03289">
        <ele>792.7</ele>
        <time>2021-08-17T08:14:23Z</time>
      </trkpt>
      <trkpt lat="44.36825" lon="3.03295">
        <ele>792.3</ele>
        <time>2021-08-17T08:14:25Z</time>
      </trkpt>
      <trkpt lat="44.36839" lon="3.033">
        <ele>791.5</ele>
        <time>2021-08-17T08:14:27Z</time>
      </trkpt>
      <trkpt lat="44.36852" lon="3.03307">
        <ele>790.6</ele>
        <time>2021-08-17T08:14:29Z</time>
      </trkpt>
      <trkpt lat="44.36864" lon="3.03315">
        <ele>789.8</ele>
        <time>2021-08-17T08:14:31Z</time>
      </trkpt>
      <trkpt lat="44.36876" lon="3.03323">
        <ele>789.1</ele>
        <time>2021-08-17T08:14:33Z</time>
      </trkpt>
      <trkpt lat="44.36886" lon="3.03335">
        <ele>789.1</ele>
        <time>2021-08-17T08:14:35Z</time>
      </trkpt>
      <trkpt lat="44.36895" lon="3.03348">
        <ele>790</ele>
        <time>2021-08-17T08:14:37Z</time>
      </trkpt>
      <trkpt lat="44.36904" lon="3.03361">
        <ele>790.9</ele>
        <time>2021-08-17T08:14:39Z</time>
      </trkpt>
      <trkpt lat="44.36914" lon="3.03372">
        <ele>791.4</ele>
        <time>2021-08-17T08:14:41Z</time>
      </trkpt>
      <trkpt lat="44.36927" lon="3.03376">
        <ele>790.4</ele>
        <time>2021-08-17T08:14:43Z</time>
      </trkpt>
      <trkpt lat="44.36941" lon="3.03376">
        <ele>788.7</ele>
        <time>2021-08-17T08:14:45Z</time>
      </trkpt>
      <trkpt lat="44.36954" lon="3.03379">
        <ele>787.3</ele>
        <time>2021-08-17T08:14:47Z</time>
      </trkpt>
      <trkpt lat="44.36967" lon="3.03386">
        <ele>786.8</ele>
        <time>2021-08-17T08:14:49Z</time>
      </trkpt>
      <trkpt lat="44.36979" lon="3.03394">
        <ele>786.2</ele>
        <time>2021-08-17T08:14:51Z</time>
      </trkpt>
      <trkpt lat="44.36992" lon="3.03403">
        <ele>785.6</ele>
        <time>2021-08-17T08:14:53Z</time>
      </trkpt>
      <trkpt lat="44.37004" lon="3.03412">
        <ele>785</ele>
        <time>2021-08-17T08:14:55Z</time>
      </trkpt>
      <trkpt lat="44.37015" lon="3.03421">
        <ele>784.9</ele>
        <time>2021-08-17T08:14:57Z</time>
      </trkpt>
      <trkpt lat="44.37027" lon="3.03431">
        <ele>784.7</ele>
        <time>2021-08-17T08:14:59Z</time>
      </trkpt>
      <trkpt lat="44.37038" lon="3.03443">
        <ele>784.7</ele>
        <time>2021-08-17T08:15:01Z</time>
      </trkpt>
      <trkpt lat="44.37047" lon="3.03457">
        <ele>785</ele>
        <time>2021-08-17T08:15:03Z</time>
      </trkpt>
      <trkpt lat="44.37054" lon="3.03474">
        <ele>785.5</ele>
        <time>2021-08-17T08:15:05Z</time>
      </trkpt>
      <trkpt lat="44.37063" lon="3.03489">
        <ele>785.4</ele>
        <time>2021-08-17T08:15:07Z</time>
      </trkpt>
      <trkpt lat="44.37072" lon="3.03505">
        <ele>785.2</ele>
        <time>2021-08-17T08:15:09Z</time>
      </trkpt>
      <trkpt lat="44.3708" lon="3.03521">
        <ele>785.3</ele>
        <time>2021-08-17T08:15:11Z</time>
      </trkpt>
      <trkpt lat="44.37089" lon="3.03535">
        <ele>785.9</ele>
        <time>2021-08-17T08:15:13Z</time>
      </trkpt>
      <trkpt lat="44.371" lon="3.03548">
        <ele>786.6</ele>
        <time>2021-08-17T08:15:15Z</time>
      </trkpt>
      <trkpt lat="44.37111" lon="3.03559">
        <ele>786.9</ele>
        <time>2021-08-17T08:15:17Z</time>
      </trkpt>
      <trkpt lat="44.37124" lon="3.03569">
        <ele>786.8</ele>
        <time>2021-08-17T08:15:19Z</time>
      </trkpt>
      <trkpt lat="44.37137" lon="3.03575">
        <ele>786.1</ele>
        <time>2021-08-17T08:15:21Z</time>
      </trkpt>
      <trkpt lat="44.37151" lon="3.03571">
        <ele>784.6</ele>
        <time>2021-08-17T08:15:23Z</time>
      </trkpt>
      <trkpt lat="44.37161" lon="3.03558">
        <ele>782.9</ele>
        <time>2021-08-17T08:15:25Z</time>
      </trkpt>
      <trkpt lat="44.37168" lon="3.03542">
        <ele>781.6</ele>
        <time>2021-08-17T08:15:27Z</time>
      </trkpt>
      <trkpt lat="44.37174" lon="3.03528">
        <ele>781.5</ele>
        <time>2021-08-17T08:15:29Z</time>
      </trkpt>
      <trkpt lat="44.37179" lon="3.03516">
        <ele>781.4</ele>
        <time>2021-08-17T08:15:31Z</time>
      </trkpt>
      <trkpt lat="44.37185" lon="3.03506">
        <ele>781.5</ele>
        <time>2021-08-17T08:15:33Z</time>
      </trkpt>
      <trkpt lat="44.3719" lon="3.03499">
        <ele>781.8</ele>
        <time>2021-08-17T08:15:35Z</time>
      </trkpt>
      <trkpt lat="44.37196" lon="3.03493">
        <ele>782.5</ele>
        <time>2021-08-17T08:15:37Z</time>
      </trkpt>
      <trkpt lat="44.372" lon="3.03488">
        <ele>783</ele>
        <time>2021-08-17T08:15:39Z</time>
      </trkpt>
      <trkpt lat="44.37205" lon="3.03484">
        <ele>783.7</ele>
        <time>2021-08-17T08:15:41Z</time>
      </trkpt>
      <trkpt lat="44.3721" lon="3.0348">
        <ele>784.2</ele>
        <time>2021-08-17T08:15:43Z</time>
      </trkpt>
      <trkpt lat="44.37215" lon="3.03475">
        <ele>784.8</ele>
        <time>2021-08-17T08:15:45Z</time>
      </trkpt>
      <trkpt lat="44.37219" lon="3.0347">
        <ele>785.2</ele>
        <time>2021-08-17T08:15:47Z</time>
      </trkpt>
      <trkpt lat="44.37222" lon="3.03464">
        <ele>785.7</ele>
        <time>2021-08-17T08:15:49Z</time>
      </trkpt>
      <trkpt lat="44.37226" lon="3.03459">
        <ele>786.1</ele>
        <time>2021-08-17T08:15:51Z</time>
      </trkpt>
      <trkpt lat="44.37229" lon="3.03454">
        <ele>786.5</ele>
        <time>2021-08-17T08:15:53Z</time>
      </trkpt>
      <trkpt lat="44.37232" lon="3.03448">
        <ele>786.8</ele>
        <time>2021-08-17T08:15:55Z</time>
      </trkpt>
      <trkpt lat="44.37235" lon="3.03443">
        <ele>787.2</ele>
        <time>2021-08-17T08:15:57Z</time>
      </trkpt>
      <trkpt lat="44.37238" lon="3.03438">
        <ele>787.6</ele>
        <time>2021-08-17T08:15:59Z</time>
      </trkpt>
      <trkpt lat="44.37242" lon="3.03435">
        <ele>788.1</ele>
        <time>2021-08-17T08:16:01Z</time>
      </trkpt>
      <trkpt lat="44.37246" lon="3.0343">
        <ele>788.5</ele>
        <time>2021-08-17T08:16:03Z</time>
      </trkpt>
      <trkpt lat="44.37249" lon="3.03427">
        <ele>788.9</ele>
        <time>2021-08-17T08:16:05Z</time>
      </trkpt>
      <trkpt lat="44.37253" lon="3.03425">
        <ele>789.6</ele>
        <time>2021-08-17T08:16:07Z</time>
      </trkpt>
      <trkpt lat="44.37257" lon="3.03422">
        <ele>790.4</ele>
        <time>2021-08-17T08:16:09Z</time>
      </trkpt>
      <trkpt lat="44.3726" lon="3.03418">
        <ele>791</ele>
        <time>2021-08-17T08:16:11Z</time>
      </trkpt>
      <trkpt lat="44.37264" lon="3.03415">
        <ele>791.8</ele>
        <time>2021-08-17T08:16:13Z</time>
      </trkpt>
      <trkpt lat="44.37266" lon="3.03411">
        <ele>792.5</ele>
        <time>2021-08-17T08:16:15Z</time>
      </trkpt>
      <trkpt lat="44.37268" lon="3.03406">
        <ele>793.1</ele>
        <time>2021-08-17T08:16:17Z</time>
      </trkpt>
      <trkpt lat="44.37269" lon="3.03401">
        <ele>793.6</ele>
        <time>2021-08-17T08:16:19Z</time>
      </trkpt>
      <trkpt lat="44.3727" lon="3.03396">
        <ele>794</ele>
        <time>2021-08-17T08:16:21Z</time>
      </trkpt>
      <trkpt lat="44.37269" lon="3.03389">
        <ele>794.3</ele>
        <time>2021-08-17T08:16:23Z</time>
      </trkpt>
      <trkpt lat="44.37267" lon="3.03384">
        <ele>794.1</ele>
        <time>2021-08-17T08:16:25Z</time>
      </trkpt>
      <trkpt lat="44.37264" lon="3.0338">
        <ele>793.9</ele>
        <time>2021-08-17T08:16:27Z</time>
      </trkpt>
      <trkpt lat="44.37261" lon="3.03377">
        <ele>793.4</ele>
        <time>2021-08-17T08:16:29Z</time>
      </trkpt>
      <trkpt lat="44.37257" lon="3.03374">
        <ele>792.9</ele>
        <time>2021-08-17T08:16:31Z</time>
      </trkpt>
      <trkpt lat="44.37253" lon="3.03372">
        <ele>792.3</ele>
        <time>2021-08-17T08:16:33Z</time>
      </trkpt>
      <trkpt lat="44.37249" lon="3.03369">
        <ele>791.7</ele>
        <time>2021-08-17T08:16:35Z</time>
      </trkpt>
      <trkpt lat="44.37246" lon="3.03367">
        <ele>791.4</ele>
        <time>2021-08-17T08:16:37Z</time>
      </trkpt>
      <trkpt lat="44.37242" lon="3.03364">
        <ele>791</ele>
        <time>2021-08-17T08:16:39Z</time>
      </trkpt>
      <trkpt lat="44.37238" lon="3.0336">
        <ele>790.7</ele>
        <time>2021-08-17T08:16:41Z</time>
      </trkpt>
      <trkpt lat="44.37235" lon="3.03357">
        <ele>790.5</ele>
        <time>2021-08-17T08:16:43Z</time>
      </trkpt>
      <trkpt lat="44.37232" lon="3.03353">
        <ele>790.2</ele>
        <time>2021-08-17T08:16:45Z</time>
      </trkpt>
      <trkpt lat="44.37229" lon="3.03348">
        <ele>790.1</ele>
        <time>2021-08-17T08:16:47Z</time>
      </trkpt>
      <trkpt lat="44.37228" lon="3.03342">
        <ele>790</ele>
        <time>2021-08-17T08:16:49Z</time>
      </trkpt>
      <trkpt lat="44.37226" lon="3.03337">
        <ele>790.1</ele>
        <time>2021-08-17T08:16:51Z</time>
      </trkpt>
      <trkpt lat="44.37226" lon="3.03331">
        <ele>790.2</ele>
        <time>2021-08-17T08:16:53Z</time>
      </trkpt>
      <trkpt lat="44.37225" lon="3.03326">
        <ele>790.1</ele>
        <time>2021-08-17T08:16:55Z</time>
      </trkpt>
      <trkpt lat="44.37226" lon="3.0332">
        <ele>790.1</ele>
        <time>2021-08-17T08:16:57Z</time>
      </trkpt>
      <trkpt lat="44.37227" lon="3.03314">
        <ele>790.3</ele>
        <time>2021-08-17T08:16:59Z</time>
      </trkpt>
      <trkpt lat="44.37229" lon="3.03309">
        <ele>790.5</ele>
        <time>2021-08-17T08:17:01Z</time>
      </trkpt>
      <trkpt lat="44.37231" lon="3.03304">
        <ele>790.8</ele>
        <time>2021-08-17T08:17:03Z</time>
      </trkpt>
      <trkpt lat="44.37234" lon="3.03299">
        <ele>791.2</ele>
        <time>2021-08-17T08:17:05Z</time>
      </trkpt>
      <trkpt lat="44.37237" lon="3.03295">
        <ele>791.6</ele>
        <time>2021-08-17T08:17:07Z</time>
      </trkpt>
      <trkpt lat="44.3724" lon="3.03291">
        <ele>792.1</ele>
        <time>2021-08-17T08:17:09Z</time>
      </trkpt>
      <trkpt lat="44.37243" lon="3.03288">
        <ele>792.5</ele>
        <time>2021-08-17T08:17:11Z</time>
      </trkpt>
      <trkpt lat="44.37247" lon="3.03285">
        <ele>793</ele>
        <time>2021-08-17T08:17:13Z</time>
      </trkpt>
      <trkpt lat="44.3725" lon="3.03282">
        <ele>793.5</ele>
        <time>2021-08-17T08:17:15Z</time>
      </trkpt>
      <trkpt lat="44.37254" lon="3.03279">
        <ele>793.9</ele>
        <time>2021-08-17T08:17:17Z</time>
      </trkpt>
      <trkpt lat="44.37257" lon="3.03277">
        <ele>794.3</ele>
        <time>2021-08-17T08:17:19Z</time>
      </trkpt>
      <trkpt lat="44.3726" lon="3.03275">
        <ele>794.8</ele>
        <time>2021-08-17T08:17:21Z</time>
      </trkpt>
      <trkpt lat="44.37263" lon="3.03273">
        <ele>795.2</ele>
        <time>2021-08-17T08:17:23Z</time>
      </trkpt>
      <trkpt lat="44.37266" lon="3.0327">
        <ele>795.6</ele>
        <time>2021-08-17T08:17:25Z</time>
      </trkpt>
      <trkpt lat="44.3727" lon="3.03268">
        <ele>796</ele>
        <time>2021-08-17T08:17:27Z</time>
      </trkpt>
      <trkpt lat="44.37273" lon="3.03266">
        <ele>796.4</ele>
        <time>2021-08-17T08:17:29Z</time>
      </trkpt>
      <trkpt lat="44.37276" lon="3.03263">
        <ele>796.8</ele>
        <time>2021-08-17T08:17:31Z</time>
      </trkpt>
      <trkpt lat="44.3728" lon="3.03261">
        <ele>797.2</ele>
        <time>2021-08-17T08:17:33Z</time>
      </trkpt>
      <trkpt lat="44.37283" lon="3.03258">
        <ele>797.6</ele>
        <time>2021-08-17T08:17:35Z</time>
      </trkpt>
      <trkpt lat="44.37286" lon="3.03256">
        <ele>798</ele>
        <time>2021-08-17T08:17:37Z</time>
      </trkpt>
      <trkpt lat="44.3729" lon="3.03254">
        <ele>798.4</ele>
        <time>2021-08-17T08:17:39Z</time>
      </trkpt>
      <trkpt lat="44.37293" lon="3.03252">
        <ele>798.7</ele>
        <time>2021-08-17T08:17:41Z</time>
      </trkpt>
      <trkpt lat="44.37297" lon="3.03249">
        <ele>799.1</ele>
        <time>2021-08-17T08:17:43Z</time>
      </trkpt>
      <trkpt lat="44.373" lon="3.03247">
        <ele>799.4</ele>
        <time>2021-08-17T08:17:45Z</time>
      </trkpt>
      <trkpt lat="44.37304" lon="3.03244">
        <ele>799.6</ele>
        <time>2021-08-17T08:17:47Z</time>
      </trkpt>
      <trkpt lat="44.37307" lon="3.03242">
        <ele>799.8</ele>
        <time>2021-08-17T08:17:49Z</time>
      </trkpt>
      <trkpt lat="44.3731" lon="3.0324">
        <ele>800.1</ele>
        <time>2021-08-17T08:17:51Z</time>
      </trkpt>
      <trkpt lat="44.37314" lon="3.03237">
        <ele>800.4</ele>
        <time>2021-08-17T08:17:53Z</time>
      </trkpt>
      <trkpt lat="44.37317" lon="3.03235">
        <ele>800.6</ele>
        <time>2021-08-17T08:17:55Z</time>
      </trkpt>
      <trkpt lat="44.37321" lon="3.03233">
        <ele>801</ele>
        <time>2021-08-17T08:17:57Z</time>
      </trkpt>
      <trkpt lat="44.37324" lon="3.03231">
        <ele>801.2</ele>
        <time>2021-08-17T08:17:59Z</time>
      </trkpt>
      <trkpt lat="44.37328" lon="3.03228">
        <ele>801.5</ele>
        <time>2021-08-17T08:18:01Z</time>
      </trkpt>
      <trkpt lat="44.37331" lon="3.03226">
        <ele>801.7</ele>
        <time>2021-08-17T08:18:03Z</time>
      </trkpt>
      <trkpt lat="44.37335" lon="3.03224">
        <ele>802</ele>
        <time>2021-08-17T08:18:05Z</time>
      </trkpt>
      <trkpt lat="44.37338" lon="3.03222">
        <ele>802.2</ele>
        <time>2021-08-17T08:18:07Z</time>
      </trkpt>
      <trkpt lat="44.37342" lon="3.0322">
        <ele>802.5</ele>
        <time>2021-08-17T08:18:09Z</time>
      </trkpt>
      <trkpt lat="44.37345" lon="3.03218">
        <ele>802.8</ele>
        <time>2021-08-17T08:18:11Z</time>
      </trkpt>
      <trkpt lat="44.37349" lon="3.03216">
        <ele>803</ele>
        <time>2021-08-17T08:18:13Z</time>
      </trkpt>
      <trkpt lat="44.37352" lon="3.03214">
        <ele>803.2</ele>
        <time>2021-08-17T08:18:15Z</time>
      </trkpt>
      <trkpt lat="44.37356" lon="3.03213">
        <ele>803.5</ele>
        <time>2021-08-17T08:18:17Z</time>
      </trkpt>
      <trkpt lat="44.37359" lon="3.03211">
        <ele>803.7</ele>
        <time>2021-08-17T08:18:19Z</time>
      </trkpt>
      <trkpt lat="44.37363" lon="3.03209">
        <ele>803.9</ele>
        <time>2021-08-17T08:18:21Z</time>
      </trkpt>
      <trkpt lat="44.37366" lon="3.03208">
        <ele>804.2</ele>
        <time>2021-08-17T08:18:23Z</time>
      </trkpt>
      <trkpt lat="44.3737" lon="3.03206">
        <ele>804.4</ele>
        <time>2021-08-17T08:18:25Z</time>
      </trkpt>
      <trkpt lat="44.37374" lon="3.03205">
        <ele>804.7</ele>
        <time>2021-08-17T08:18:27Z</time>
      </trkpt>
      <trkpt lat="44.37377" lon="3.03203">
        <ele>805</ele>
        <time>2021-08-17T08:18:29Z</time>
      </trkpt>
      <trkpt lat="44.3738" lon="3.03202">
        <ele>805.2</ele>
        <time>2021-08-17T08:18:31Z</time>
      </trkpt>
      <trkpt lat="44.37384" lon="3.03201">
        <ele>805.5</ele>
        <time>2021-08-17T08:18:33Z</time>
      </trkpt>
      <trkpt lat="44.37388" lon="3.032">
        <ele>805.8</ele>
        <time>2021-08-17T08:18:35Z</time>
      </trkpt>
      <trkpt lat="44.37392" lon="3.03198">
        <ele>806.1</ele>
        <time>2021-08-17T08:18:37Z</time>
      </trkpt>
      <trkpt lat="44.37396" lon="3.03197">
        <ele>806.4</ele>
        <time>2021-08-17T08:18:39Z</time>
      </trkpt>
      <trkpt lat="44.37399" lon="3.03196">
        <ele>806.7</ele>
        <time>2021-08-17T08:18:41Z</time>
      </trkpt>
      <trkpt lat="44.37403" lon="3.03196">
        <ele>807</ele>
        <time>2021-08-17T08:18:43Z</time>
      </trkpt>
      <trkpt lat="44.37407" lon="3.03194">
        <ele>807.3</ele>
        <time>2021-08-17T08:18:45Z</time>
      </trkpt>
      <trkpt lat="44.37411" lon="3.03194">
        <ele>807.7</ele>
        <time>2021-08-17T08:18:47Z</time>
      </trkpt>
      <trkpt lat="44.37415" lon="3.03193">
        <ele>808</ele>
        <time>2021-08-17T08:18:49Z</time>
      </trkpt>
      <trkpt lat="44.37419" lon="3.03192">
        <ele>808.3</ele>
        <time>2021-08-17T08:18:51Z</time>
      </trkpt>
      <trkpt lat="44.37423" lon="3.03191">
        <ele>808.5</ele>
        <time>2021-08-17T08:18:53Z</time>
      </trkpt>
      <trkpt lat="44.37427" lon="3.03191">
        <ele>808.7</ele>
        <time>2021-08-17T08:18:55Z</time>
      </trkpt>
      <trkpt lat="44.37431" lon="3.0319">
        <ele>808.9</ele>
        <time>2021-08-17T08:18:57Z</time>
      </trkpt>
      <trkpt lat="44.37435" lon="3.03189">
        <ele>809.2</ele>
        <time>2021-08-17T08:18:59Z</time>
      </trkpt>
      <trkpt lat="44.37439" lon="3.03189">
        <ele>809.4</ele>
        <time>2021-08-17T08:19:01Z</time>
      </trkpt>
      <trkpt lat="44.37443" lon="3.03188">
        <ele>809.7</ele>
        <time>2021-08-17T08:19:03Z</time>
      </trkpt>
      <trkpt lat="44.37447" lon="3.03188">
        <ele>809.9</ele>
        <time>2021-08-17T08:19:05Z</time>
      </trkpt>
      <trkpt lat="44.37451" lon="3.03187">
        <ele>810.1</ele>
        <time>2021-08-17T08:19:07Z</time>
      </trkpt>
      <trkpt lat="44.37455" lon="3.03186">
        <ele>810.3</ele>
        <time>2021-08-17T08:19:09Z</time>
      </trkpt>
      <trkpt lat="44.37459" lon="3.03186">
        <ele>810.6</ele>
        <time>2021-08-17T08:19:11Z</time>
      </trkpt>
      <trkpt lat="44.37463" lon="3.03186">
        <ele>810.9</ele>
        <time>2021-08-17T08:19:13Z</time>
      </trkpt>
      <trkpt lat="44.37467" lon="3.03185">
        <ele>811.1</ele>
        <time>2021-08-17T08:19:15Z</time>
      </trkpt>
      <trkpt lat="44.37471" lon="3.03185">
        <ele>811.3</ele>
        <time>2021-08-17T08:19:17Z</time>
      </trkpt>
      <trkpt lat="44.37475" lon="3.03184">
        <ele>811.5</ele>
        <time>2021-08-17T08:19:19Z</time>
      </trkpt>
      <trkpt lat="44.37479" lon="3.03183">
        <ele>811.7</ele>
        <time>2021-08-17T08:19:21Z</time>
      </trkpt>
      <trkpt lat="44.37481" lon="3.03183">
        <ele>811.9</ele>
        <time>2021-08-17T08:19:23Z</time>
      </trkpt>
      <trkpt lat="44.37486" lon="3.03183">
        <ele>812.3</ele>
        <time>2021-08-17T08:19:25Z</time>
      </trkpt>
      <trkpt lat="44.3749" lon="3.03183">
        <ele>812.5</ele>
        <time>2021-08-17T08:19:27Z</time>
      </trkpt>
      <trkpt lat="44.37494" lon="3.03183">
        <ele>812.8</ele>
        <time>2021-08-17T08:19:29Z</time>
      </trkpt>
      <trkpt lat="44.37498" lon="3.03182">
        <ele>813.1</ele>
        <time>2021-08-17T08:19:31Z</time>
      </trkpt>
      <trkpt lat="44.37502" lon="3.03182">
        <ele>813.5</ele>
        <time>2021-08-17T08:19:33Z</time>
      </trkpt>
      <trkpt lat="44.37506" lon="3.03183">
        <ele>813.9</ele>
        <time>2021-08-17T08:19:35Z</time>
      </trkpt>
      <trkpt lat="44.37511" lon="3.03183">
        <ele>814.2</ele>
        <time>2021-08-17T08:19:37Z</time>
      </trkpt>
      <trkpt lat="44.37515" lon="3.03183">
        <ele>814.6</ele>
        <time>2021-08-17T08:19:39Z</time>
      </trkpt>
      <trkpt lat="44.37519" lon="3.03183">
        <ele>815</ele>
        <time>2021-08-17T08:19:41Z</time>
      </trkpt>
      <trkpt lat="44.37524" lon="3.03184">
        <ele>815.5</ele>
        <time>2021-08-17T08:19:43Z</time>
      </trkpt>
      <trkpt lat="44.37528" lon="3.03184">
        <ele>815.8</ele>
        <time>2021-08-17T08:19:45Z</time>
      </trkpt>
      <trkpt lat="44.37532" lon="3.03184">
        <ele>816.2</ele>
        <time>2021-08-17T08:19:47Z</time>
      </trkpt>
      <trkpt lat="44.37536" lon="3.03183">
        <ele>816.5</ele>
        <time>2021-08-17T08:19:49Z</time>
      </trkpt>
      <trkpt lat="44.3754" lon="3.03183">
        <ele>816.9</ele>
        <time>2021-08-17T08:19:51Z</time>
      </trkpt>
      <trkpt lat="44.37544" lon="3.03184">
        <ele>817.3</ele>
        <time>2021-08-17T08:19:53Z</time>
      </trkpt>
      <trkpt lat="44.37548" lon="3.03184">
        <ele>817.7</ele>
        <time>2021-08-17T08:19:55Z</time>
      </trkpt>
      <trkpt lat="44.37552" lon="3.03184">
        <ele>818</ele>
        <time>2021-08-17T08:19:57Z</time>
      </trkpt>
      <trkpt lat="44.37556" lon="3.03183">
        <ele>818.2</ele>
        <time>2021-08-17T08:19:59Z</time>
      </trkpt>
      <trkpt lat="44.3756" lon="3.03182">
        <ele>818.4</ele>
        <time>2021-08-17T08:20:01Z</time>
      </trkpt>
      <trkpt lat="44.37564" lon="3.03182">
        <ele>818.7</ele>
        <time>2021-08-17T08:20:03Z</time>
      </trkpt>
      <trkpt lat="44.37568" lon="3.03181">
        <ele>818.9</ele>
        <time>2021-08-17T08:20:05Z</time>
      </trkpt>
      <trkpt lat="44.37573" lon="3.03179">
        <ele>819</ele>
        <time>2021-08-17T08:20:07Z</time>
      </trkpt>
      <trkpt lat="44.37577" lon="3.03179">
        <ele>819.3</ele>
        <time>2021-08-17T08:20:09Z</time>
      </trkpt>
      <trkpt lat="44.37581" lon="3.03178">
        <ele>819.6</ele>
        <time>2021-08-17T08:20:11Z</time>
      </trkpt>
      <trkpt lat="44.37586" lon="3.03178">
        <ele>819.9</ele>
        <time>2021-08-17T08:20:13Z</time>
      </trkpt>
      <trkpt lat="44.3759" lon="3.03177">
        <ele>820</ele>
        <time>2021-08-17T08:20:15Z</time>
      </trkpt>
      <trkpt lat="44.37594" lon="3.03177">
        <ele>820.2</ele>
        <time>2021-08-17T08:20:17Z</time>
      </trkpt>
      <trkpt lat="44.37599" lon="3.03177">
        <ele>820.5</ele>
        <time>2021-08-17T08:20:19Z</time>
      </trkpt>
      <trkpt lat="44.37603" lon="3.03177">
        <ele>820.7</ele>
        <time>2021-08-17T08:20:21Z</time>
      </trkpt>
      <trkpt lat="44.37607" lon="3.03176">
        <ele>820.8</ele>
        <time>2021-08-17T08:20:23Z</time>
      </trkpt>
      <trkpt lat="44.37611" lon="3.03176">
        <ele>821</ele>
        <time>2021-08-17T08:20:25Z</time>
      </trkpt>
      <trkpt lat="44.37616" lon="3.03176">
        <ele>821.3</ele>
        <time>2021-08-17T08:20:27Z</time>
      </trkpt>
      <trkpt lat="44.3762" lon="3.03177">
        <ele>821.6</ele>
        <time>2021-08-17T08:20:29Z</time>
      </trkpt>
      <trkpt lat="44.37624" lon="3.03177">
        <ele>821.9</ele>
        <time>2021-08-17T08:20:31Z</time>
      </trkpt>
      <trkpt lat="44.37628" lon="3.03178">
        <ele>822.2</ele>
        <time>2021-08-17T08:20:33Z</time>
      </trkpt>
      <trkpt lat="44.37633" lon="3.0318">
        <ele>822.7</ele>
        <time>2021-08-17T08:20:35Z</time>
      </trkpt>
      <trkpt lat="44.37637" lon="3.03181">
        <ele>823.1</ele>
        <time>2021-08-17T08:20:37Z</time>
      </trkpt>
      <trkpt lat="44.37641" lon="3.03183">
        <ele>823.5</ele>
        <time>2021-08-17T08:20:39Z</time>
      </trkpt>
      <trkpt lat="44.37645" lon="3.03185">
        <ele>823.9</ele>
        <time>2021-08-17T08:20:41Z</time>
      </trkpt>
      <trkpt lat="44.37649" lon="3.03186">
        <ele>824.3</ele>
        <time>2021-08-17T08:20:43Z</time>
      </trkpt>
      <trkpt lat="44.37653" lon="3.03189">
        <ele>824.8</ele>
        <time>2021-08-17T08:20:45Z</time>
      </trkpt>
      <trkpt lat="44.37657" lon="3.03192">
        <ele>825.3</ele>
        <time>2021-08-17T08:20:47Z</time>
      </trkpt>
      <trkpt lat="44.37662" lon="3.03196">
        <ele>825.9</ele>
        <time>2021-08-17T08:20:49Z</time>
      </trkpt>
      <trkpt lat="44.37666" lon="3.03198">
        <ele>826.4</ele>
        <time>2021-08-17T08:20:51Z</time>
      </trkpt>
      <trkpt lat="44.3767" lon="3.03201">
        <ele>826.9</ele>
        <time>2021-08-17T08:20:53Z</time>
      </trkpt>
      <trkpt lat="44.37674" lon="3.03204">
        <ele>827.5</ele>
        <time>2021-08-17T08:20:55Z</time>
      </trkpt>
      <trkpt lat="44.37678" lon="3.03207">
        <ele>828</ele>
        <time>2021-08-17T08:20:57Z</time>
      </trkpt>
      <trkpt lat="44.37682" lon="3.0321">
        <ele>828.4</ele>
        <time>2021-08-17T08:20:59Z</time>
      </trkpt>
      <trkpt lat="44.37686" lon="3.03212">
        <ele>828.7</ele>
        <time>2021-08-17T08:21:01Z</time>
      </trkpt>
      <trkpt lat="44.3769" lon="3.03215">
        <ele>829</ele>
        <time>2021-08-17T08:21:03Z</time>
      </trkpt>
      <trkpt lat="44.37694" lon="3.03218">
        <ele>829.2</ele>
        <time>2021-08-17T08:21:05Z</time>
      </trkpt>
      <trkpt lat="44.37699" lon="3.0322">
        <ele>829.4</ele>
        <time>2021-08-17T08:21:07Z</time>
      </trkpt>
      <trkpt lat="44.37702" lon="3.03221">
        <ele>829.5</ele>
        <time>2021-08-17T08:21:09Z</time>
      </trkpt>
      <trkpt lat="44.37707" lon="3.03222">
        <ele>829.6</ele>
        <time>2021-08-17T08:21:11Z</time>
      </trkpt>
      <trkpt lat="44.37712" lon="3.03223">
        <ele>829.7</ele>
        <time>2021-08-17T08:21:13Z</time>
      </trkpt>
      <trkpt lat="44.37716" lon="3.03224">
        <ele>829.8</ele>
        <time>2021-08-17T08:21:15Z</time>
      </trkpt>
      <trkpt lat="44.3772" lon="3.03225">
        <ele>829.8</ele>
        <time>2021-08-17T08:21:17Z</time>
      </trkpt>
      <trkpt lat="44.37724" lon="3.03225">
        <ele>829.8</ele>
        <time>2021-08-17T08:21:19Z</time>
      </trkpt>
      <trkpt lat="44.37728" lon="3.03227">
        <ele>829.8</ele>
        <time>2021-08-17T08:21:21Z</time>
      </trkpt>
      <trkpt lat="44.37732" lon="3.03227">
        <ele>829.8</ele>
        <time>2021-08-17T08:21:23Z</time>
      </trkpt>
      <trkpt lat="44.37736" lon="3.03228">
        <ele>829.8</ele>
        <time>2021-08-17T08:21:25Z</time>
      </trkpt>
      <trkpt lat="44.3774" lon="3.03229">
        <ele>829.7</ele>
        <time>2021-08-17T08:21:27Z</time>
      </trkpt>
      <trkpt lat="44.37744" lon="3.0323">
        <ele>829.7</ele>
        <time>2021-08-17T08:21:29Z</time>
      </trkpt>
      <trkpt lat="44.37748" lon="3.03231">
        <ele>829.6</ele>
        <time>2021-08-17T08:21:31Z</time>
      </trkpt>
      <trkpt lat="44.37751" lon="3.03232">
        <ele>829.6</ele>
        <time>2021-08-17T08:21:33Z</time>
      </trkpt>
      <trkpt lat="44.37754" lon="3.03232">
        <ele>829.6</ele>
        <time>2021-08-17T08:21:35Z</time>
      </trkpt>
      <trkpt lat="44.37757" lon="3.03233">
        <ele>829.7</ele>
        <time>2021-08-17T08:21:37Z</time>
      </trkpt>
      <trkpt lat="44.3776" lon="3.03235">
        <ele>829.6</ele>
        <time>2021-08-17T08:21:39Z</time>
      </trkpt>
      <trkpt lat="44.3776" lon="3.03235">
        <ele>829.6</ele>
        <time>2021-08-17T08:21:41Z</time>
      </trkpt>
      <trkpt lat="44.3776" lon="3.03235">
        <ele>829.6</ele>
        <time>2021-08-17T08:21:43Z</time>
      </trkpt>
      <trkpt lat="44.3776" lon="3.03235">
        <ele>829.5</ele>
        <time>2021-08-17T08:21:45Z</time>
      </trkpt>
      <trkpt lat="44.3776" lon="3.03235">
        <ele>829.6</ele>
        <time>2021-08-17T08:21:47Z</time>
      </trkpt>
      <trkpt lat="44.37778" lon="3.03237">
        <ele>829.9</ele>
        <time>2021-08-17T08:26:09Z</time>
      </trkpt>
      <trkpt lat="44.37787" lon="3.03241">
        <ele>829.7</ele>
        <time>2021-08-17T08:26:11Z</time>
      </trkpt>
      <trkpt lat="44.37798" lon="3.03246">
        <ele>829.1</ele>
        <time>2021-08-17T08:26:13Z</time>
      </trkpt>
      <trkpt lat="44.37809" lon="3.03256">
        <ele>828.3</ele>
        <time>2021-08-17T08:26:15Z</time>
      </trkpt>
      <trkpt lat="44.37818" lon="3.0327">
        <ele>827.1</ele>
        <time>2021-08-17T08:26:17Z</time>
      </trkpt>
      <trkpt lat="44.37824" lon="3.03289">
        <ele>825.2</ele>
        <time>2021-08-17T08:26:19Z</time>
      </trkpt>
      <trkpt lat="44.37825" lon="3.03309">
        <ele>823.2</ele>
        <time>2021-08-17T08:26:21Z</time>
      </trkpt>
      <trkpt lat="44.37828" lon="3.03328">
        <ele>821.2</ele>
        <time>2021-08-17T08:26:23Z</time>
      </trkpt>
      <trkpt lat="44.37835" lon="3.03343">
        <ele>819.5</ele>
        <time>2021-08-17T08:26:25Z</time>
      </trkpt>
      <trkpt lat="44.37848" lon="3.03353">
        <ele>818.9</ele>
        <time>2021-08-17T08:26:27Z</time>
      </trkpt>
      <trkpt lat="44.3786" lon="3.03362">
        <ele>818.3</ele>
        <time>2021-08-17T08:26:29Z</time>
      </trkpt>
      <trkpt lat="44.37873" lon="3.03371">
        <ele>817.6</ele>
        <time>2021-08-17T08:26:31Z</time>
      </trkpt>
      <trkpt lat="44.37887" lon="3.0338">
        <ele>816.7</ele>
        <time>2021-08-17T08:26:33Z</time>
      </trkpt>
      <trkpt lat="44.37902" lon="3.03387">
        <ele>815.8</ele>
        <time>2021-08-17T08:26:35Z</time>
      </trkpt>
      <trkpt lat="44.37917" lon="3.03386">
        <ele>815.6</ele>
        <time>2021-08-17T08:26:37Z</time>
      </trkpt>
      <trkpt lat="44.37933" lon="3.03383">
        <ele>815.2</ele>
        <time>2021-08-17T08:26:39Z</time>
      </trkpt>
      <trkpt lat="44.37948" lon="3.03388">
        <ele>814</ele>
        <time>2021-08-17T08:26:41Z</time>
      </trkpt>
      <trkpt lat="44.37962" lon="3.03399">
        <ele>812.2</ele>
        <time>2021-08-17T08:26:43Z</time>
      </trkpt>
      <trkpt lat="44.37975" lon="3.0341">
        <ele>810.3</ele>
        <time>2021-08-17T08:26:45Z</time>
      </trkpt>
      <trkpt lat="44.37989" lon="3.03417">
        <ele>808.6</ele>
        <time>2021-08-17T08:26:47Z</time>
      </trkpt>
      <trkpt lat="44.38005" lon="3.0342">
        <ele>806.6</ele>
        <time>2021-08-17T08:26:49Z</time>
      </trkpt>
      <trkpt lat="44.38021" lon="3.03419">
        <ele>802.5</ele>
        <time>2021-08-17T08:26:51Z</time>
      </trkpt>
      <trkpt lat="44.38037" lon="3.03411">
        <ele>799.6</ele>
        <time>2021-08-17T08:26:53Z</time>
      </trkpt>
      <trkpt lat="44.38051" lon="3.03398">
        <ele>798.1</ele>
        <time>2021-08-17T08:26:55Z</time>
      </trkpt>
      <trkpt lat="44.38063" lon="3.03381">
        <ele>798</ele>
        <time>2021-08-17T08:26:57Z</time>
      </trkpt>
      <trkpt lat="44.38074" lon="3.03362">
        <ele>798.8</ele>
        <time>2021-08-17T08:26:59Z</time>
      </trkpt>
      <trkpt lat="44.38083" lon="3.03342">
        <ele>800.6</ele>
        <time>2021-08-17T08:27:01Z</time>
      </trkpt>
      <trkpt lat="44.38095" lon="3.03325">
        <ele>802</ele>
        <time>2021-08-17T08:27:03Z</time>
      </trkpt>
      <trkpt lat="44.38113" lon="3.03315">
        <ele>801.9</ele>
        <time>2021-08-17T08:27:05Z</time>
      </trkpt>
      <trkpt lat="44.38131" lon="3.03309">
        <ele>800.6</ele>
        <time>2021-08-17T08:27:07Z</time>
      </trkpt>
      <trkpt lat="44.3815" lon="3.0331">
        <ele>797.5</ele>
        <time>2021-08-17T08:27:09Z</time>
      </trkpt>
      <trkpt lat="44.38168" lon="3.03313">
        <ele>793.8</ele>
        <time>2021-08-17T08:27:11Z</time>
      </trkpt>
      <trkpt lat="44.38186" lon="3.03314">
        <ele>789.9</ele>
        <time>2021-08-17T08:27:13Z</time>
      </trkpt>
      <trkpt lat="44.38204" lon="3.03308">
        <ele>787.6</ele>
        <time>2021-08-17T08:27:15Z</time>
      </trkpt>
      <trkpt lat="44.3822" lon="3.03298">
        <ele>786.1</ele>
        <time>2021-08-17T08:27:17Z</time>
      </trkpt>
      <trkpt lat="44.38231" lon="3.03284">
        <ele>786.1</ele>
        <time>2021-08-17T08:27:19Z</time>
      </trkpt>
      <trkpt lat="44.38238" lon="3.03265">
        <ele>787.4</ele>
        <time>2021-08-17T08:27:21Z</time>
      </trkpt>
      <trkpt lat="44.38239" lon="3.03242">
        <ele>790.6</ele>
        <time>2021-08-17T08:27:23Z</time>
      </trkpt>
      <trkpt lat="44.3824" lon="3.03219">
        <ele>792.8</ele>
        <time>2021-08-17T08:27:25Z</time>
      </trkpt>
      <trkpt lat="44.38243" lon="3.03195">
        <ele>794.4</ele>
        <time>2021-08-17T08:27:27Z</time>
      </trkpt>
      <trkpt lat="44.3825" lon="3.03173">
        <ele>794.4</ele>
        <time>2021-08-17T08:27:29Z</time>
      </trkpt>
      <trkpt lat="44.38262" lon="3.03154">
        <ele>794.6</ele>
        <time>2021-08-17T08:27:31Z</time>
      </trkpt>
      <trkpt lat="44.38276" lon="3.03138">
        <ele>794.4</ele>
        <time>2021-08-17T08:27:33Z</time>
      </trkpt>
      <trkpt lat="44.38291" lon="3.03124">
        <ele>794.3</ele>
        <time>2021-08-17T08:27:35Z</time>
      </trkpt>
      <trkpt lat="44.3831" lon="3.03117">
        <ele>792</ele>
        <time>2021-08-17T08:27:37Z</time>
      </trkpt>
      <trkpt lat="44.38329" lon="3.03118">
        <ele>788</ele>
        <time>2021-08-17T08:27:39Z</time>
      </trkpt>
      <trkpt lat="44.38347" lon="3.0312">
        <ele>787.1</ele>
        <time>2021-08-17T08:27:41Z</time>
      </trkpt>
      <trkpt lat="44.38365" lon="3.03123">
        <ele>787.1</ele>
        <time>2021-08-17T08:27:43Z</time>
      </trkpt>
      <trkpt lat="44.3838" lon="3.03132">
        <ele>785.6</ele>
        <time>2021-08-17T08:27:45Z</time>
      </trkpt>
      <trkpt lat="44.38392" lon="3.03149">
        <ele>782.1</ele>
        <time>2021-08-17T08:27:47Z</time>
      </trkpt>
      <trkpt lat="44.38399" lon="3.03175">
        <ele>777.3</ele>
        <time>2021-08-17T08:27:49Z</time>
      </trkpt>
      <trkpt lat="44.38399" lon="3.03201">
        <ele>773.6</ele>
        <time>2021-08-17T08:27:51Z</time>
      </trkpt>
      <trkpt lat="44.38401" lon="3.03223">
        <ele>770.6</ele>
        <time>2021-08-17T08:27:53Z</time>
      </trkpt>
      <trkpt lat="44.38411" lon="3.03241">
        <ele>768.7</ele>
        <time>2021-08-17T08:27:55Z</time>
      </trkpt>
      <trkpt lat="44.38426" lon="3.03253">
        <ele>767.5</ele>
        <time>2021-08-17T08:27:57Z</time>
      </trkpt>
      <trkpt lat="44.3844" lon="3.03265">
        <ele>765.1</ele>
        <time>2021-08-17T08:27:59Z</time>
      </trkpt>
      <trkpt lat="44.38456" lon="3.03278">
        <ele>762.7</ele>
        <time>2021-08-17T08:28:01Z</time>
      </trkpt>
      <trkpt lat="44.38472" lon="3.03286">
        <ele>761.2</ele>
        <time>2021-08-17T08:28:03Z</time>
      </trkpt>
      <trkpt lat="44.38491" lon="3.03288">
        <ele>761.2</ele>
        <time>2021-08-17T08:28:05Z</time>
      </trkpt>
      <trkpt lat="44.38509" lon="3.03281">
        <ele>761.2</ele>
        <time>2021-08-17T08:28:07Z</time>
      </trkpt>
      <trkpt lat="44.38526" lon="3.03272">
        <ele>760</ele>
        <time>2021-08-17T08:28:09Z</time>
      </trkpt>
      <trkpt lat="44.38538" lon="3.03257">
        <ele>760.1</ele>
        <time>2021-08-17T08:28:11Z</time>
      </trkpt>
      <trkpt lat="44.38545" lon="3.03235">
        <ele>761.8</ele>
        <time>2021-08-17T08:28:13Z</time>
      </trkpt>
      <trkpt lat="44.38545" lon="3.03211">
        <ele>764.8</ele>
        <time>2021-08-17T08:28:15Z</time>
      </trkpt>
      <trkpt lat="44.38551" lon="3.03188">
        <ele>766.4</ele>
        <time>2021-08-17T08:28:17Z</time>
      </trkpt>
      <trkpt lat="44.38565" lon="3.03172">
        <ele>765.9</ele>
        <time>2021-08-17T08:28:19Z</time>
      </trkpt>
      <trkpt lat="44.38583" lon="3.03167">
        <ele>763.1</ele>
        <time>2021-08-17T08:28:21Z</time>
      </trkpt>
      <trkpt lat="44.386" lon="3.03169">
        <ele>761.2</ele>
        <time>2021-08-17T08:28:23Z</time>
      </trkpt>
      <trkpt lat="44.38617" lon="3.03174">
        <ele>759.2</ele>
        <time>2021-08-17T08:28:25Z</time>
      </trkpt>
      <trkpt lat="44.38634" lon="3.03178">
        <ele>757.5</ele>
        <time>2021-08-17T08:28:27Z</time>
      </trkpt>
      <trkpt lat="44.38651" lon="3.03181">
        <ele>755.8</ele>
        <time>2021-08-17T08:28:29Z</time>
      </trkpt>
      <trkpt lat="44.38668" lon="3.03185">
        <ele>754.1</ele>
        <time>2021-08-17T08:28:31Z</time>
      </trkpt>
      <trkpt lat="44.38685" lon="3.03189">
        <ele>752.4</ele>
        <time>2021-08-17T08:28:33Z</time>
      </trkpt>
      <trkpt lat="44.38702" lon="3.03193">
        <ele>750.7</ele>
        <time>2021-08-17T08:28:35Z</time>
      </trkpt>
      <trkpt lat="44.38719" lon="3.03195">
        <ele>749.1</ele>
        <time>2021-08-17T08:28:37Z</time>
      </trkpt>
      <trkpt lat="44.38736" lon="3.03196">
        <ele>747.7</ele>
        <time>2021-08-17T08:28:39Z</time>
      </trkpt>
      <trkpt lat="44.38752" lon="3.03195">
        <ele>746.5</ele>
        <time>2021-08-17T08:28:41Z</time>
      </trkpt>
      <trkpt lat="44.38769" lon="3.03193">
        <ele>746.4</ele>
        <time>2021-08-17T08:28:43Z</time>
      </trkpt>
      <trkpt lat="44.38786" lon="3.03192">
        <ele>746.1</ele>
        <time>2021-08-17T08:28:45Z</time>
      </trkpt>
      <trkpt lat="44.38802" lon="3.0319">
        <ele>745.9</ele>
        <time>2021-08-17T08:28:47Z</time>
      </trkpt>
      <trkpt lat="44.38819" lon="3.03188">
        <ele>745.6</ele>
        <time>2021-08-17T08:28:49Z</time>
      </trkpt>
      <trkpt lat="44.38834" lon="3.03187">
        <ele>745.3</ele>
        <time>2021-08-17T08:28:51Z</time>
      </trkpt>
      <trkpt lat="44.3885" lon="3.03185">
        <ele>745.2</ele>
        <time>2021-08-17T08:28:53Z</time>
      </trkpt>
      <trkpt lat="44.38865" lon="3.03183">
        <ele>745.2</ele>
        <time>2021-08-17T08:28:55Z</time>
      </trkpt>
      <trkpt lat="44.3888" lon="3.03183">
        <ele>745.1</ele>
        <time>2021-08-17T08:28:57Z</time>
      </trkpt>
      <trkpt lat="44.38894" lon="3.03182">
        <ele>745</ele>
        <time>2021-08-17T08:28:59Z</time>
      </trkpt>
      <trkpt lat="44.38909" lon="3.03181">
        <ele>744.9</ele>
        <time>2021-08-17T08:29:01Z</time>
      </trkpt>
      <trkpt lat="44.38922" lon="3.03178">
        <ele>744.6</ele>
        <time>2021-08-17T08:29:03Z</time>
      </trkpt>
      <trkpt lat="44.38934" lon="3.03171">
        <ele>744.1</ele>
        <time>2021-08-17T08:29:05Z</time>
      </trkpt>
      <trkpt lat="44.38945" lon="3.03159">
        <ele>744.2</ele>
        <time>2021-08-17T08:29:07Z</time>
      </trkpt>
      <trkpt lat="44.38953" lon="3.03145">
        <ele>744.6</ele>
        <time>2021-08-17T08:29:09Z</time>
      </trkpt>
      <trkpt lat="44.38961" lon="3.03132">
        <ele>744.9</ele>
        <time>2021-08-17T08:29:11Z</time>
      </trkpt>
      <trkpt lat="44.38968" lon="3.03119">
        <ele>745</ele>
        <time>2021-08-17T08:29:13Z</time>
      </trkpt>
      <trkpt lat="44.38976" lon="3.03107">
        <ele>744.8</ele>
        <time>2021-08-17T08:29:15Z</time>
      </trkpt>
      <trkpt lat="44.38984" lon="3.03095">
        <ele>744.5</ele>
        <time>2021-08-17T08:29:17Z</time>
      </trkpt>
      <trkpt lat="44.38992" lon="3.03085">
        <ele>743.9</ele>
        <time>2021-08-17T08:29:19Z</time>
      </trkpt>
      <trkpt lat="44.39001" lon="3.03078">
        <ele>743.4</ele>
        <time>2021-08-17T08:29:21Z</time>
      </trkpt>
      <trkpt lat="44.3901" lon="3.03072">
        <ele>743.7</ele>
        <time>2021-08-17T08:29:23Z</time>
      </trkpt>
      <trkpt lat="44.39019" lon="3.03068">
        <ele>743.9</ele>
        <time>2021-08-17T08:29:25Z</time>
      </trkpt>
      <trkpt lat="44.39029" lon="3.03066">
        <ele>744</ele>
        <time>2021-08-17T08:29:27Z</time>
      </trkpt>
      <trkpt lat="44.39039" lon="3.03064">
        <ele>744</ele>
        <time>2021-08-17T08:29:29Z</time>
      </trkpt>
      <trkpt lat="44.39048" lon="3.03062">
        <ele>744</ele>
        <time>2021-08-17T08:29:31Z</time>
      </trkpt>
      <trkpt lat="44.39057" lon="3.0306">
        <ele>743.9</ele>
        <time>2021-08-17T08:29:33Z</time>
      </trkpt>
      <trkpt lat="44.39066" lon="3.03058">
        <ele>743.9</ele>
        <time>2021-08-17T08:29:35Z</time>
      </trkpt>
      <trkpt lat="44.39076" lon="3.03056">
        <ele>743.8</ele>
        <time>2021-08-17T08:29:37Z</time>
      </trkpt>
      <trkpt lat="44.39085" lon="3.03054">
        <ele>743.6</ele>
        <time>2021-08-17T08:29:39Z</time>
      </trkpt>
      <trkpt lat="44.39095" lon="3.03052">
        <ele>743.2</ele>
        <time>2021-08-17T08:29:41Z</time>
      </trkpt>
      <trkpt lat="44.39105" lon="3.0305">
        <ele>742.9</ele>
        <time>2021-08-17T08:29:43Z</time>
      </trkpt>
      <trkpt lat="44.39115" lon="3.03048">
        <ele>742.6</ele>
        <time>2021-08-17T08:29:45Z</time>
      </trkpt>
      <trkpt lat="44.39125" lon="3.03045">
        <ele>742.3</ele>
        <time>2021-08-17T08:29:47Z</time>
      </trkpt>
      <trkpt lat="44.39135" lon="3.03043">
        <ele>742.1</ele>
        <time>2021-08-17T08:29:49Z</time>
      </trkpt>
      <trkpt lat="44.39145" lon="3.03041">
        <ele>741.8</ele>
        <time>2021-08-17T08:29:51Z</time>
      </trkpt>
      <trkpt lat="44.39155" lon="3.03039">
        <ele>741.6</ele>
        <time>2021-08-17T08:29:53Z</time>
      </trkpt>
      <trkpt lat="44.39165" lon="3.03037">
        <ele>741.5</ele>
        <time>2021-08-17T08:29:55Z</time>
      </trkpt>
      <trkpt lat="44.39176" lon="3.03035">
        <ele>741.5</ele>
        <time>2021-08-17T08:29:57Z</time>
      </trkpt>
      <trkpt lat="44.39186" lon="3.03033">
        <ele>741.5</ele>
        <time>2021-08-17T08:29:59Z</time>
      </trkpt>
      <trkpt lat="44.39197" lon="3.03031">
        <ele>741.5</ele>
        <time>2021-08-17T08:30:01Z</time>
      </trkpt>
      <trkpt lat="44.39209" lon="3.03028">
        <ele>741.5</ele>
        <time>2021-08-17T08:30:03Z</time>
      </trkpt>
      <trkpt lat="44.39221" lon="3.03025">
        <ele>741.4</ele>
        <time>2021-08-17T08:30:05Z</time>
      </trkpt>
      <trkpt lat="44.39232" lon="3.03023">
        <ele>741.3</ele>
        <time>2021-08-17T08:30:07Z</time>
      </trkpt>
      <trkpt lat="44.39244" lon="3.0302">
        <ele>741.2</ele>
        <time>2021-08-17T08:30:09Z</time>
      </trkpt>
      <trkpt lat="44.39255" lon="3.03018">
        <ele>740.9</ele>
        <time>2021-08-17T08:30:11Z</time>
      </trkpt>
      <trkpt lat="44.39267" lon="3.03015">
        <ele>740.6</ele>
        <time>2021-08-17T08:30:13Z</time>
      </trkpt>
      <trkpt lat="44.39278" lon="3.03011">
        <ele>740.2</ele>
        <time>2021-08-17T08:30:15Z</time>
      </trkpt>
      <trkpt lat="44.3929" lon="3.03007">
        <ele>739.8</ele>
        <time>2021-08-17T08:30:17Z</time>
      </trkpt>
      <trkpt lat="44.39301" lon="3.03003">
        <ele>739.5</ele>
        <time>2021-08-17T08:30:19Z</time>
      </trkpt>
      <trkpt lat="44.39313" lon="3.02998">
        <ele>739.1</ele>
        <time>2021-08-17T08:30:21Z</time>
      </trkpt>
      <trkpt lat="44.39324" lon="3.02993">
        <ele>738.7</ele>
        <time>2021-08-17T08:30:23Z</time>
      </trkpt>
      <trkpt lat="44.39336" lon="3.02988">
        <ele>738.3</ele>
        <time>2021-08-17T08:30:25Z</time>
      </trkpt>
      <trkpt lat="44.39347" lon="3.02984">
        <ele>738.1</ele>
        <time>2021-08-17T08:30:27Z</time>
      </trkpt>
      <trkpt lat="44.39359" lon="3.02979">
        <ele>737.8</ele>
        <time>2021-08-17T08:30:29Z</time>
      </trkpt>
      <trkpt lat="44.3937" lon="3.02974">
        <ele>737.6</ele>
        <time>2021-08-17T08:30:31Z</time>
      </trkpt>
      <trkpt lat="44.39382" lon="3.0297">
        <ele>737.3</ele>
        <time>2021-08-17T08:30:33Z</time>
      </trkpt>
      <trkpt lat="44.39393" lon="3.02965">
        <ele>737.1</ele>
        <time>2021-08-17T08:30:35Z</time>
      </trkpt>
      <trkpt lat="44.39404" lon="3.02959">
        <ele>736.9</ele>
        <time>2021-08-17T08:30:37Z</time>
      </trkpt>
      <trkpt lat="44.39416" lon="3.02955">
        <ele>736.6</ele>
        <time>2021-08-17T08:30:39Z</time>
      </trkpt>
      <trkpt lat="44.39427" lon="3.02951">
        <ele>736.6</ele>
        <time>2021-08-17T08:30:41Z</time>
      </trkpt>
      <trkpt lat="44.39439" lon="3.02947">
        <ele>736.6</ele>
        <time>2021-08-17T08:30:43Z</time>
      </trkpt>
      <trkpt lat="44.3945" lon="3.02943">
        <ele>736.5</ele>
        <time>2021-08-17T08:30:45Z</time>
      </trkpt>
      <trkpt lat="44.39462" lon="3.0294">
        <ele>736.4</ele>
        <time>2021-08-17T08:30:47Z</time>
      </trkpt>
      <trkpt lat="44.39475" lon="3.0294">
        <ele>736.2</ele>
        <time>2021-08-17T08:30:49Z</time>
      </trkpt>
      <trkpt lat="44.39486" lon="3.02941">
        <ele>735.9</ele>
        <time>2021-08-17T08:30:51Z</time>
      </trkpt>
      <trkpt lat="44.39498" lon="3.02943">
        <ele>735.7</ele>
        <time>2021-08-17T08:30:53Z</time>
      </trkpt>
      <trkpt lat="44.39509" lon="3.02945">
        <ele>735.5</ele>
        <time>2021-08-17T08:30:55Z</time>
      </trkpt>
      <trkpt lat="44.39521" lon="3.02947">
        <ele>735.2</ele>
        <time>2021-08-17T08:30:57Z</time>
      </trkpt>
      <trkpt lat="44.39533" lon="3.02949">
        <ele>735</ele>
        <time>2021-08-17T08:30:59Z</time>
      </trkpt>
      <trkpt lat="44.39545" lon="3.02951">
        <ele>734.7</ele>
        <time>2021-08-17T08:31:01Z</time>
      </trkpt>
      <trkpt lat="44.39556" lon="3.02952">
        <ele>734.5</ele>
        <time>2021-08-17T08:31:03Z</time>
      </trkpt>
      <trkpt lat="44.39567" lon="3.02954">
        <ele>734.3</ele>
        <time>2021-08-17T08:31:05Z</time>
      </trkpt>
      <trkpt lat="44.39579" lon="3.02956">
        <ele>734.1</ele>
        <time>2021-08-17T08:31:07Z</time>
      </trkpt>
      <trkpt lat="44.3959" lon="3.02958">
        <ele>734.1</ele>
        <time>2021-08-17T08:31:09Z</time>
      </trkpt>
      <trkpt lat="44.39601" lon="3.0296">
        <ele>734.3</ele>
        <time>2021-08-17T08:31:11Z</time>
      </trkpt>
      <trkpt lat="44.39612" lon="3.02962">
        <ele>734.5</ele>
        <time>2021-08-17T08:31:13Z</time>
      </trkpt>
      <trkpt lat="44.39623" lon="3.02963">
        <ele>734.7</ele>
        <time>2021-08-17T08:31:15Z</time>
      </trkpt>
      <trkpt lat="44.39633" lon="3.02965">
        <ele>734.9</ele>
        <time>2021-08-17T08:31:17Z</time>
      </trkpt>
      <trkpt lat="44.39643" lon="3.02966">
        <ele>735.1</ele>
        <time>2021-08-17T08:31:19Z</time>
      </trkpt>
      <trkpt lat="44.39653" lon="3.02968">
        <ele>735.3</ele>
        <time>2021-08-17T08:31:21Z</time>
      </trkpt>
      <trkpt lat="44.39663" lon="3.02969">
        <ele>735.6</ele>
        <time>2021-08-17T08:31:23Z</time>
      </trkpt>
      <trkpt lat="44.39673" lon="3.02971">
        <ele>735.6</ele>
        <time>2021-08-17T08:31:25Z</time>
      </trkpt>
      <trkpt lat="44.39682" lon="3.02972">
        <ele>735.6</ele>
        <time>2021-08-17T08:31:27Z</time>
      </trkpt>
      <trkpt lat="44.39692" lon="3.02974">
        <ele>735.6</ele>
        <time>2021-08-17T08:31:29Z</time>
      </trkpt>
      <trkpt lat="44.39701" lon="3.02975">
        <ele>735.6</ele>
        <time>2021-08-17T08:31:31Z</time>
      </trkpt>
      <trkpt lat="44.39712" lon="3.02978">
        <ele>735.6</ele>
        <time>2021-08-17T08:31:33Z</time>
      </trkpt>
      <trkpt lat="44.39722" lon="3.02982">
        <ele>735.6</ele>
        <time>2021-08-17T08:31:35Z</time>
      </trkpt>
      <trkpt lat="44.39731" lon="3.02987">
        <ele>735.7</ele>
        <time>2021-08-17T08:31:37Z</time>
      </trkpt>
      <trkpt lat="44.3974" lon="3.02992">
        <ele>735.8</ele>
        <time>2021-08-17T08:31:39Z</time>
      </trkpt>
      <trkpt lat="44.39749" lon="3.02997">
        <ele>735.9</ele>
        <time>2021-08-17T08:31:41Z</time>
      </trkpt>
      <trkpt lat="44.39758" lon="3.03">
        <ele>736</ele>
        <time>2021-08-17T08:31:43Z</time>
      </trkpt>
      <trkpt lat="44.39768" lon="3.03001">
        <ele>736.1</ele>
        <time>2021-08-17T08:31:45Z</time>
      </trkpt>
      <trkpt lat="44.39778" lon="3.03001">
        <ele>736.1</ele>
        <time>2021-08-17T08:31:47Z</time>
      </trkpt>
      <trkpt lat="44.39788" lon="3.03">
        <ele>736</ele>
        <time>2021-08-17T08:31:49Z</time>
      </trkpt>
      <trkpt lat="44.39798" lon="3.02999">
        <ele>736</ele>
        <time>2021-08-17T08:31:51Z</time>
      </trkpt>
      <trkpt lat="44.39808" lon="3.03001">
        <ele>736.1</ele>
        <time>2021-08-17T08:31:53Z</time>
      </trkpt>
      <trkpt lat="44.39817" lon="3.03004">
        <ele>736.4</ele>
        <time>2021-08-17T08:31:55Z</time>
      </trkpt>
      <trkpt lat="44.39826" lon="3.03009">
        <ele>737</ele>
        <time>2021-08-17T08:31:57Z</time>
      </trkpt>
      <trkpt lat="44.39836" lon="3.03014">
        <ele>737.5</ele>
        <time>2021-08-17T08:31:59Z</time>
      </trkpt>
      <trkpt lat="44.39844" lon="3.03019">
        <ele>738</ele>
        <time>2021-08-17T08:32:01Z</time>
      </trkpt>
      <trkpt lat="44.39853" lon="3.03023">
        <ele>738.4</ele>
        <time>2021-08-17T08:32:03Z</time>
      </trkpt>
      <trkpt lat="44.39862" lon="3.03026">
        <ele>738.7</ele>
        <time>2021-08-17T08:32:05Z</time>
      </trkpt>
      <trkpt lat="44.39871" lon="3.03027">
        <ele>738.7</ele>
        <time>2021-08-17T08:32:07Z</time>
      </trkpt>
      <trkpt lat="44.3988" lon="3.03027">
        <ele>738.7</ele>
        <time>2021-08-17T08:32:09Z</time>
      </trkpt>
      <trkpt lat="44.3989" lon="3.03024">
        <ele>738.4</ele>
        <time>2021-08-17T08:32:11Z</time>
      </trkpt>
      <trkpt lat="44.39899" lon="3.03021">
        <ele>738.1</ele>
        <time>2021-08-17T08:32:13Z</time>
      </trkpt>
      <trkpt lat="44.39909" lon="3.03018">
        <ele>737.7</ele>
        <time>2021-08-17T08:32:15Z</time>
      </trkpt>
      <trkpt lat="44.39919" lon="3.03014">
        <ele>737.2</ele>
        <time>2021-08-17T08:32:17Z</time>
      </trkpt>
      <trkpt lat="44.39929" lon="3.03011">
        <ele>736.6</ele>
        <time>2021-08-17T08:32:19Z</time>
      </trkpt>
      <trkpt lat="44.39939" lon="3.03009">
        <ele>736</ele>
        <time>2021-08-17T08:32:21Z</time>
      </trkpt>
      <trkpt lat="44.39949" lon="3.03008">
        <ele>735.6</ele>
        <time>2021-08-17T08:32:23Z</time>
      </trkpt>
      <trkpt lat="44.39959" lon="3.03009">
        <ele>735.2</ele>
        <time>2021-08-17T08:32:25Z</time>
      </trkpt>
      <trkpt lat="44.39969" lon="3.0301">
        <ele>735</ele>
        <time>2021-08-17T08:32:27Z</time>
      </trkpt>
      <trkpt lat="44.39979" lon="3.03012">
        <ele>734.8</ele>
        <time>2021-08-17T08:32:29Z</time>
      </trkpt>
      <trkpt lat="44.39989" lon="3.03015">
        <ele>734.7</ele>
        <time>2021-08-17T08:32:31Z</time>
      </trkpt>
      <trkpt lat="44.39998" lon="3.03018">
        <ele>734.6</ele>
        <time>2021-08-17T08:32:33Z</time>
      </trkpt>
      <trkpt lat="44.40007" lon="3.03021">
        <ele>735</ele>
        <time>2021-08-17T08:32:35Z</time>
      </trkpt>
      <trkpt lat="44.40016" lon="3.03022">
        <ele>735.3</ele>
        <time>2021-08-17T08:32:37Z</time>
      </trkpt>
      <trkpt lat="44.40026" lon="3.03021">
        <ele>735.5</ele>
        <time>2021-08-17T08:32:39Z</time>
      </trkpt>
      <trkpt lat="44.40036" lon="3.03018">
        <ele>735.5</ele>
        <time>2021-08-17T08:32:41Z</time>
      </trkpt>
      <trkpt lat="44.40045" lon="3.03014">
        <ele>735.5</ele>
        <time>2021-08-17T08:32:43Z</time>
      </trkpt>
      <trkpt lat="44.40054" lon="3.03009">
        <ele>735.5</ele>
        <time>2021-08-17T08:32:45Z</time>
      </trkpt>
      <trkpt lat="44.40063" lon="3.03004">
        <ele>735.5</ele>
        <time>2021-08-17T08:32:47Z</time>
      </trkpt>
      <trkpt lat="44.40072" lon="3.02999">
        <ele>735.5</ele>
        <time>2021-08-17T08:32:49Z</time>
      </trkpt>
      <trkpt lat="44.40081" lon="3.02994">
        <ele>735.6</ele>
        <time>2021-08-17T08:32:51Z</time>
      </trkpt>
      <trkpt lat="44.40089" lon="3.02987">
        <ele>735.9</ele>
        <time>2021-08-17T08:32:53Z</time>
      </trkpt>
      <trkpt lat="44.40097" lon="3.02978">
        <ele>736</ele>
        <time>2021-08-17T08:32:55Z</time>
      </trkpt>
      <trkpt lat="44.40103" lon="3.02967">
        <ele>736</ele>
        <time>2021-08-17T08:32:57Z</time>
      </trkpt>
      <trkpt lat="44.40107" lon="3.02955">
        <ele>735.8</ele>
        <time>2021-08-17T08:32:59Z</time>
      </trkpt>
      <trkpt lat="44.40111" lon="3.02941">
        <ele>735.5</ele>
        <time>2021-08-17T08:33:01Z</time>
      </trkpt>
      <trkpt lat="44.40114" lon="3.02928">
        <ele>735.2</ele>
        <time>2021-08-17T08:33:03Z</time>
      </trkpt>
      <trkpt lat="44.4012" lon="3.02916">
        <ele>735</ele>
        <time>2021-08-17T08:33:05Z</time>
      </trkpt>
      <trkpt lat="44.40127" lon="3.02906">
        <ele>734.9</ele>
        <time>2021-08-17T08:33:07Z</time>
      </trkpt>
      <trkpt lat="44.40136" lon="3.029">
        <ele>735.2</ele>
        <time>2021-08-17T08:33:09Z</time>
      </trkpt>
      <trkpt lat="44.40145" lon="3.02896">
        <ele>735.4</ele>
        <time>2021-08-17T08:33:11Z</time>
      </trkpt>
      <trkpt lat="44.40153" lon="3.02891">
        <ele>735.6</ele>
        <time>2021-08-17T08:33:13Z</time>
      </trkpt>
      <trkpt lat="44.40161" lon="3.02885">
        <ele>735.6</ele>
        <time>2021-08-17T08:33:15Z</time>
      </trkpt>
      <trkpt lat="44.40169" lon="3.02879">
        <ele>735.6</ele>
        <time>2021-08-17T08:33:17Z</time>
      </trkpt>
      <trkpt lat="44.40177" lon="3.02875">
        <ele>736</ele>
        <time>2021-08-17T08:33:19Z</time>
      </trkpt>
      <trkpt lat="44.40186" lon="3.0287">
        <ele>736.5</ele>
        <time>2021-08-17T08:33:21Z</time>
      </trkpt>
      <trkpt lat="44.40194" lon="3.02866">
        <ele>737</ele>
        <time>2021-08-17T08:33:23Z</time>
      </trkpt>
      <trkpt lat="44.40202" lon="3.02861">
        <ele>737.4</ele>
        <time>2021-08-17T08:33:25Z</time>
      </trkpt>
      <trkpt lat="44.40208" lon="3.02853">
        <ele>737.5</ele>
        <time>2021-08-17T08:33:27Z</time>
      </trkpt>
      <trkpt lat="44.40213" lon="3.02843">
        <ele>737.3</ele>
        <time>2021-08-17T08:33:29Z</time>
      </trkpt>
      <trkpt lat="44.40216" lon="3.02831">
        <ele>736.8</ele>
        <time>2021-08-17T08:33:31Z</time>
      </trkpt>
      <trkpt lat="44.40216" lon="3.02819">
        <ele>736.7</ele>
        <time>2021-08-17T08:33:33Z</time>
      </trkpt>
      <trkpt lat="44.40214" lon="3.02806">
        <ele>736.4</ele>
        <time>2021-08-17T08:33:35Z</time>
      </trkpt>
      <trkpt lat="44.40211" lon="3.02794">
        <ele>735.9</ele>
        <time>2021-08-17T08:33:37Z</time>
      </trkpt>
      <trkpt lat="44.40208" lon="3.02782">
        <ele>735.4</ele>
        <time>2021-08-17T08:33:39Z</time>
      </trkpt>
      <trkpt lat="44.40207" lon="3.02769">
        <ele>735.1</ele>
        <time>2021-08-17T08:33:41Z</time>
      </trkpt>
      <trkpt lat="44.40206" lon="3.02756">
        <ele>734.8</ele>
        <time>2021-08-17T08:33:43Z</time>
      </trkpt>
      <trkpt lat="44.40209" lon="3.02743">
        <ele>734.8</ele>
        <time>2021-08-17T08:33:45Z</time>
      </trkpt>
      <trkpt lat="44.40213" lon="3.02731">
        <ele>734.5</ele>
        <time>2021-08-17T08:33:47Z</time>
      </trkpt>
      <trkpt lat="44.40217" lon="3.0272">
        <ele>734.4</ele>
        <time>2021-08-17T08:33:49Z</time>
      </trkpt>
      <trkpt lat="44.40222" lon="3.02708">
        <ele>734.3</ele>
        <time>2021-08-17T08:33:51Z</time>
      </trkpt>
      <trkpt lat="44.40228" lon="3.02698">
        <ele>734.3</ele>
        <time>2021-08-17T08:33:53Z</time>
      </trkpt>
      <trkpt lat="44.40234" lon="3.02689">
        <ele>734.3</ele>
        <time>2021-08-17T08:33:55Z</time>
      </trkpt>
      <trkpt lat="44.40242" lon="3.02681">
        <ele>734.4</ele>
        <time>2021-08-17T08:33:57Z</time>
      </trkpt>
      <trkpt lat="44.40249" lon="3.02674">
        <ele>734.4</ele>
        <time>2021-08-17T08:33:59Z</time>
      </trkpt>
      <trkpt lat="44.40256" lon="3.02668">
        <ele>735</ele>
        <time>2021-08-17T08:34:01Z</time>
      </trkpt>
      <trkpt lat="44.40263" lon="3.02661">
        <ele>735.5</ele>
        <time>2021-08-17T08:34:03Z</time>
      </trkpt>
      <trkpt lat="44.4027" lon="3.02655">
        <ele>736.1</ele>
        <time>2021-08-17T08:34:05Z</time>
      </trkpt>
      <trkpt lat="44.40277" lon="3.02648">
        <ele>736.4</ele>
        <time>2021-08-17T08:34:07Z</time>
      </trkpt>
      <trkpt lat="44.40283" lon="3.02641">
        <ele>736.7</ele>
        <time>2021-08-17T08:34:09Z</time>
      </trkpt>
      <trkpt lat="44.40289" lon="3.02632">
        <ele>736.9</ele>
        <time>2021-08-17T08:34:11Z</time>
      </trkpt>
      <trkpt lat="44.40295" lon="3.02624">
        <ele>737.1</ele>
        <time>2021-08-17T08:34:13Z</time>
      </trkpt>
      <trkpt lat="44.40301" lon="3.02615">
        <ele>737.3</ele>
        <time>2021-08-17T08:34:15Z</time>
      </trkpt>
      <trkpt lat="44.40307" lon="3.02607">
        <ele>737.5</ele>
        <time>2021-08-17T08:34:17Z</time>
      </trkpt>
      <trkpt lat="44.40314" lon="3.02599">
        <ele>737.7</ele>
        <time>2021-08-17T08:34:19Z</time>
      </trkpt>
      <trkpt lat="44.4032" lon="3.02591">
        <ele>737.8</ele>
        <time>2021-08-17T08:34:21Z</time>
      </trkpt>
      <trkpt lat="44.40327" lon="3.02582">
        <ele>738</ele>
        <time>2021-08-17T08:34:23Z</time>
      </trkpt>
      <trkpt lat="44.40333" lon="3.02573">
        <ele>737.9</ele>
        <time>2021-08-17T08:34:25Z</time>
      </trkpt>
      <trkpt lat="44.4034" lon="3.02565">
        <ele>737.9</ele>
        <time>2021-08-17T08:34:27Z</time>
      </trkpt>
      <trkpt lat="44.40347" lon="3.02557">
        <ele>737.9</ele>
        <time>2021-08-17T08:34:29Z</time>
      </trkpt>
      <trkpt lat="44.40353" lon="3.0255">
        <ele>738</ele>
        <time>2021-08-17T08:34:31Z</time>
      </trkpt>
      <trkpt lat="44.4036" lon="3.02543">
        <ele>738</ele>
        <time>2021-08-17T08:34:33Z</time>
      </trkpt>
      <trkpt lat="44.40366" lon="3.02537">
        <ele>738.1</ele>
        <time>2021-08-17T08:34:35Z</time>
      </trkpt>
      <trkpt lat="44.40373" lon="3.02531">
        <ele>738.2</ele>
        <time>2021-08-17T08:34:37Z</time>
      </trkpt>
      <trkpt lat="44.4038" lon="3.02525">
        <ele>738.2</ele>
        <time>2021-08-17T08:34:39Z</time>
      </trkpt>
      <trkpt lat="44.40386" lon="3.02519">
        <ele>738.2</ele>
        <time>2021-08-17T08:34:41Z</time>
      </trkpt>
      <trkpt lat="44.40392" lon="3.02515">
        <ele>738.4</ele>
        <time>2021-08-17T08:34:43Z</time>
      </trkpt>
      <trkpt lat="44.40399" lon="3.02511">
        <ele>738.6</ele>
        <time>2021-08-17T08:34:45Z</time>
      </trkpt>
      <trkpt lat="44.40405" lon="3.02506">
        <ele>738.6</ele>
        <time>2021-08-17T08:34:47Z</time>
      </trkpt>
      <trkpt lat="44.40412" lon="3.02501">
        <ele>738.6</ele>
        <time>2021-08-17T08:34:49Z</time>
      </trkpt>
      <trkpt lat="44.40418" lon="3.02498">
        <ele>738.8</ele>
        <time>2021-08-17T08:34:51Z</time>
      </trkpt>
      <trkpt lat="44.40425" lon="3.02494">
        <ele>739.2</ele>
        <time>2021-08-17T08:34:53Z</time>
      </trkpt>
      <trkpt lat="44.40431" lon="3.02491">
        <ele>739.8</ele>
        <time>2021-08-17T08:34:55Z</time>
      </trkpt>
      <trkpt lat="44.40438" lon="3.02487">
        <ele>740.2</ele>
        <time>2021-08-17T08:34:57Z</time>
      </trkpt>
      <trkpt lat="44.40445" lon="3.02484">
        <ele>740.7</ele>
        <time>2021-08-17T08:34:59Z</time>
      </trkpt>
      <trkpt lat="44.40451" lon="3.0248">
        <ele>741</ele>
        <time>2021-08-17T08:35:01Z</time>
      </trkpt>
      <trkpt lat="44.40458" lon="3.02476">
        <ele>741.4</ele>
        <time>2021-08-17T08:35:03Z</time>
      </trkpt>
      <trkpt lat="44.40465" lon="3.02472">
        <ele>741.8</ele>
        <time>2021-08-17T08:35:05Z</time>
      </trkpt>
      <trkpt lat="44.40471" lon="3.02469">
        <ele>742.2</ele>
        <time>2021-08-17T08:35:07Z</time>
      </trkpt>
      <trkpt lat="44.40478" lon="3.02465">
        <ele>742.5</ele>
        <time>2021-08-17T08:35:09Z</time>
      </trkpt>
      <trkpt lat="44.40484" lon="3.02462">
        <ele>742.9</ele>
        <time>2021-08-17T08:35:11Z</time>
      </trkpt>
      <trkpt lat="44.40491" lon="3.02459">
        <ele>743.3</ele>
        <time>2021-08-17T08:35:13Z</time>
      </trkpt>
      <trkpt lat="44.40497" lon="3.02456">
        <ele>743.7</ele>
        <time>2021-08-17T08:35:15Z</time>
      </trkpt>
      <trkpt lat="44.40504" lon="3.02452">
        <ele>743.8</ele>
        <time>2021-08-17T08:35:17Z</time>
      </trkpt>
      <trkpt lat="44.4051" lon="3.02449">
        <ele>743.9</ele>
        <time>2021-08-17T08:35:19Z</time>
      </trkpt>
      <trkpt lat="44.40517" lon="3.02446">
        <ele>744</ele>
        <time>2021-08-17T08:35:21Z</time>
      </trkpt>
      <trkpt lat="44.40524" lon="3.02443">
        <ele>744.3</ele>
        <time>2021-08-17T08:35:23Z</time>
      </trkpt>
      <trkpt lat="44.40531" lon="3.0244">
        <ele>744.3</ele>
        <time>2021-08-17T08:35:25Z</time>
      </trkpt>
      <trkpt lat="44.40537" lon="3.02437">
        <ele>744.4</ele>
        <time>2021-08-17T08:35:27Z</time>
      </trkpt>
      <trkpt lat="44.40544" lon="3.02433">
        <ele>744.3</ele>
        <time>2021-08-17T08:35:29Z</time>
      </trkpt>
      <trkpt lat="44.4055" lon="3.0243">
        <ele>744.4</ele>
        <time>2021-08-17T08:35:31Z</time>
      </trkpt>
      <trkpt lat="44.40556" lon="3.02427">
        <ele>744.4</ele>
        <time>2021-08-17T08:35:33Z</time>
      </trkpt>
      <trkpt lat="44.40562" lon="3.02424">
        <ele>744.4</ele>
        <time>2021-08-17T08:35:35Z</time>
      </trkpt>
      <trkpt lat="44.40568" lon="3.02421">
        <ele>744.5</ele>
        <time>2021-08-17T08:35:37Z</time>
      </trkpt>
      <trkpt lat="44.40575" lon="3.02417">
        <ele>744.4</ele>
        <time>2021-08-17T08:35:39Z</time>
      </trkpt>
      <trkpt lat="44.40581" lon="3.02414">
        <ele>744.4</ele>
        <time>2021-08-17T08:35:41Z</time>
      </trkpt>
      <trkpt lat="44.40588" lon="3.0241">
        <ele>744.2</ele>
        <time>2021-08-17T08:35:43Z</time>
      </trkpt>
      <trkpt lat="44.40594" lon="3.02406">
        <ele>744</ele>
        <time>2021-08-17T08:35:45Z</time>
      </trkpt>
      <trkpt lat="44.40601" lon="3.02402">
        <ele>743.7</ele>
        <time>2021-08-17T08:35:47Z</time>
      </trkpt>
      <trkpt lat="44.40608" lon="3.02398">
        <ele>743.4</ele>
        <time>2021-08-17T08:35:49Z</time>
      </trkpt>
      <trkpt lat="44.40615" lon="3.02394">
        <ele>743.1</ele>
        <time>2021-08-17T08:35:51Z</time>
      </trkpt>
      <trkpt lat="44.40622" lon="3.0239">
        <ele>742.7</ele>
        <time>2021-08-17T08:35:53Z</time>
      </trkpt>
      <trkpt lat="44.40629" lon="3.02386">
        <ele>742.3</ele>
        <time>2021-08-17T08:35:55Z</time>
      </trkpt>
      <trkpt lat="44.40637" lon="3.02381">
        <ele>741.8</ele>
        <time>2021-08-17T08:35:57Z</time>
      </trkpt>
      <trkpt lat="44.40644" lon="3.02376">
        <ele>741.3</ele>
        <time>2021-08-17T08:35:59Z</time>
      </trkpt>
      <trkpt lat="44.40652" lon="3.02373">
        <ele>741</ele>
        <time>2021-08-17T08:36:01Z</time>
      </trkpt>
      <trkpt lat="44.4066" lon="3.02369">
        <ele>740.5</ele>
        <time>2021-08-17T08:36:03Z</time>
      </trkpt>
      <trkpt lat="44.40667" lon="3.02365">
        <ele>740.1</ele>
        <time>2021-08-17T08:36:05Z</time>
      </trkpt>
      <trkpt lat="44.40675" lon="3.02361">
        <ele>739.7</ele>
        <time>2021-08-17T08:36:07Z</time>
      </trkpt>
      <trkpt lat="44.40683" lon="3.02357">
        <ele>739.5</ele>
        <time>2021-08-17T08:36:09Z</time>
      </trkpt>
      <trkpt lat="44.40692" lon="3.02354">
        <ele>739.5</ele>
        <time>2021-08-17T08:36:11Z</time>
      </trkpt>
      <trkpt lat="44.40701" lon="3.02351">
        <ele>739.5</ele>
        <time>2021-08-17T08:36:13Z</time>
      </trkpt>
      <trkpt lat="44.4071" lon="3.02348">
        <ele>739.7</ele>
        <time>2021-08-17T08:36:15Z</time>
      </trkpt>
      <trkpt lat="44.40719" lon="3.02344">
        <ele>739.8</ele>
        <time>2021-08-17T08:36:17Z</time>
      </trkpt>
      <trkpt lat="44.40726" lon="3.02341">
        <ele>740</ele>
        <time>2021-08-17T08:36:19Z</time>
      </trkpt>
      <trkpt lat="44.40734" lon="3.02338">
        <ele>740.2</ele>
        <time>2021-08-17T08:36:21Z</time>
      </trkpt>
      <trkpt lat="44.4074" lon="3.02338">
        <ele>740.6</ele>
        <time>2021-08-17T08:36:23Z</time>
      </trkpt>
      <trkpt lat="44.4074" lon="3.02338">
        <ele>740.7</ele>
        <time>2021-08-17T08:36:25Z</time>
      </trkpt>
      <trkpt lat="44.4074" lon="3.02338">
        <ele>740.7</ele>
        <time>2021-08-17T08:36:27Z</time>
      </trkpt>
      <trkpt lat="44.4074" lon="3.02338">
        <ele>740.7</ele>
        <time>2021-08-17T08:36:29Z</time>
      </trkpt>
      <trkpt lat="44.4074" lon="3.02338">
        <ele>740.7</ele>
        <time>2021-08-17T08:36:31Z</time>
      </trkpt>
      <trkpt lat="44.4074" lon="3.02338">
        <ele>740.7</ele>
        <time>2021-08-17T08:36:33Z</time>
      </trkpt>
      <trkpt lat="44.40756" lon="3.02329">
        <ele>739.3</ele>
        <time>2021-08-17T08:41:01Z</time>
      </trkpt>
      <trkpt lat="44.4076" lon="3.02327">
        <ele>738.3</ele>
        <time>2021-08-17T08:41:03Z</time>
      </trkpt>
      <trkpt lat="44.40767" lon="3.02328">
        <ele>738.1</ele>
        <time>2021-08-17T08:41:05Z</time>
      </trkpt>
      <trkpt lat="44.40774" lon="3.02326">
        <ele>737.2</ele>
        <time>2021-08-17T08:41:07Z</time>
      </trkpt>
      <trkpt lat="44.40783" lon="3.02324">
        <ele>736.4</ele>
        <time>2021-08-17T08:41:09Z</time>
      </trkpt>
      <trkpt lat="44.40792" lon="3.02323">
        <ele>735.9</ele>
        <time>2021-08-17T08:41:11Z</time>
      </trkpt>
      <trkpt lat="44.40802" lon="3.02323">
        <ele>735.5</ele>
        <time>2021-08-17T08:41:13Z</time>
      </trkpt>
      <trkpt lat="44.40814" lon="3.02324">
        <ele>735.4</ele>
        <time>2021-08-17T08:41:15Z</time>
      </trkpt>
      <trkpt lat="44.40826" lon="3.02328">
        <ele>735.6</ele>
        <time>2021-08-17T08:41:17Z</time>
      </trkpt>
      <trkpt lat="44.40839" lon="3.02336">
        <ele>735.6</ele>
        <time>2021-08-17T08:41:19Z</time>
      </trkpt>
      <trkpt lat="44.40852" lon="3.02345">
        <ele>734.8</ele>
        <time>2021-08-17T08:41:21Z</time>
      </trkpt>
      <trkpt lat="44.40865" lon="3.02356">
        <ele>734.2</ele>
        <time>2021-08-17T08:41:23Z</time>
      </trkpt>
      <trkpt lat="44.40877" lon="3.02368">
        <ele>733.9</ele>
        <time>2021-08-17T08:41:25Z</time>
      </trkpt>
      <trkpt lat="44.40889" lon="3.02381">
        <ele>733.7</ele>
        <time>2021-08-17T08:41:27Z</time>
      </trkpt>
      <trkpt lat="44.409" lon="3.02394">
        <ele>733.6</ele>
        <time>2021-08-17T08:41:29Z</time>
      </trkpt>
      <trkpt lat="44.40913" lon="3.02403">
        <ele>733.1</ele>
        <time>2021-08-17T08:41:31Z</time>
      </trkpt>
      <trkpt lat="44.40928" lon="3.02402">
        <ele>733</ele>
        <time>2021-08-17T08:41:33Z</time>
      </trkpt>
      <trkpt lat="44.40942" lon="3.02392">
        <ele>732.6</ele>
        <time>2021-08-17T08:41:35Z</time>
      </trkpt>
      <trkpt lat="44.40955" lon="3.0238">
        <ele>732.2</ele>
        <time>2021-08-17T08:41:37Z</time>
      </trkpt>
      <trkpt lat="44.40967" lon="3.02368">
        <ele>732</ele>
        <time>2021-08-17T08:41:39Z</time>
      </trkpt>
      <trkpt lat="44.40976" lon="3.02354">
        <ele>731.5</ele>
        <time>2021-08-17T08:41:41Z</time>
      </trkpt>
      <trkpt lat="44.40978" lon="3.02336">
        <ele>730.5</ele>
        <time>2021-08-17T08:41:43Z</time>
      </trkpt>
      <trkpt lat="44.40973" lon="3.02317">
        <ele>729.4</ele>
        <time>2021-08-17T08:41:45Z</time>
      </trkpt>
      <trkpt lat="44.40969" lon="3.02298">
        <ele>728.2</ele>
        <time>2021-08-17T08:41:47Z</time>
      </trkpt>
      <trkpt lat="44.40964" lon="3.02277">
        <ele>726.7</ele>
        <time>2021-08-17T08:41:49Z</time>
      </trkpt>
      <trkpt lat="44.40963" lon="3.02254">
        <ele>725.5</ele>
        <time>2021-08-17T08:41:51Z</time>
      </trkpt>
      <trkpt lat="44.40965" lon="3.02231">
        <ele>723.8</ele>
        <time>2021-08-17T08:41:53Z</time>
      </trkpt>
      <trkpt lat="44.40965" lon="3.02209">
        <ele>721.9</ele>
        <time>2021-08-17T08:41:55Z</time>
      </trkpt>
      <trkpt lat="44.40965" lon="3.02187">
        <ele>720</ele>
        <time>2021-08-17T08:41:57Z</time>
      </trkpt>
      <trkpt lat="44.40966" lon="3.02164">
        <ele>717.8</ele>
        <time>2021-08-17T08:41:59Z</time>
      </trkpt>
      <trkpt lat="44.40969" lon="3.0214">
        <ele>713.9</ele>
        <time>2021-08-17T08:42:01Z</time>
      </trkpt>
      <trkpt lat="44.40977" lon="3.02117">
        <ele>711.3</ele>
        <time>2021-08-17T08:42:03Z</time>
      </trkpt>
      <trkpt lat="44.40987" lon="3.02096">
        <ele>710.4</ele>
        <time>2021-08-17T08:42:05Z</time>
      </trkpt>
      <trkpt lat="44.40998" lon="3.0208">
        <ele>710.4</ele>
        <time>2021-08-17T08:42:07Z</time>
      </trkpt>
      <trkpt lat="44.41009" lon="3.02066">
        <ele>708.6</ele>
        <time>2021-08-17T08:42:09Z</time>
      </trkpt>
      <trkpt lat="44.41018" lon="3.0205">
        <ele>705.5</ele>
        <time>2021-08-17T08:42:11Z</time>
      </trkpt>
      <trkpt lat="44.41025" lon="3.02032">
        <ele>701.2</ele>
        <time>2021-08-17T08:42:13Z</time>
      </trkpt>
      <trkpt lat="44.41033" lon="3.02017">
        <ele>697.8</ele>
        <time>2021-08-17T08:42:15Z</time>
      </trkpt>
      <trkpt lat="44.41047" lon="3.02011">
        <ele>698</ele>
        <time>2021-08-17T08:42:17Z</time>
      </trkpt>
      <trkpt lat="44.41064" lon="3.02011">
        <ele>701</ele>
        <time>2021-08-17T08:42:19Z</time>
      </trkpt>
      <trkpt lat="44.41082" lon="3.02012">
        <ele>704.1</ele>
        <time>2021-08-17T08:42:21Z</time>
      </trkpt>
      <trkpt lat="44.41101" lon="3.02011">
        <ele>704.5</ele>
        <time>2021-08-17T08:42:23Z</time>
      </trkpt>
      <trkpt lat="44.4112" lon="3.02009">
        <ele>704.2</ele>
        <time>2021-08-17T08:42:25Z</time>
      </trkpt>
      <trkpt lat="44.4114" lon="3.02003">
        <ele>702.4</ele>
        <time>2021-08-17T08:42:27Z</time>
      </trkpt>
      <trkpt lat="44.4116" lon="3.01996">
        <ele>700.4</ele>
        <time>2021-08-17T08:42:29Z</time>
      </trkpt>
      <trkpt lat="44.4118" lon="3.01993">
        <ele>700.3</ele>
        <time>2021-08-17T08:42:31Z</time>
      </trkpt>
      <trkpt lat="44.412" lon="3.01988">
        <ele>700.6</ele>
        <time>2021-08-17T08:42:33Z</time>
      </trkpt>
      <trkpt lat="44.41219" lon="3.01982">
        <ele>699.8</ele>
        <time>2021-08-17T08:42:35Z</time>
      </trkpt>
      <trkpt lat="44.41238" lon="3.01972">
        <ele>697.6</ele>
        <time>2021-08-17T08:42:37Z</time>
      </trkpt>
      <trkpt lat="44.41256" lon="3.01961">
        <ele>695.3</ele>
        <time>2021-08-17T08:42:39Z</time>
      </trkpt>
      <trkpt lat="44.41272" lon="3.01952">
        <ele>694.6</ele>
        <time>2021-08-17T08:42:41Z</time>
      </trkpt>
      <trkpt lat="44.41288" lon="3.01942">
        <ele>693.6</ele>
        <time>2021-08-17T08:42:43Z</time>
      </trkpt>
      <trkpt lat="44.41304" lon="3.01932">
        <ele>693</ele>
        <time>2021-08-17T08:42:45Z</time>
      </trkpt>
      <trkpt lat="44.4132" lon="3.01923">
        <ele>691.9</ele>
        <time>2021-08-17T08:42:47Z</time>
      </trkpt>
      <trkpt lat="44.41336" lon="3.01911">
        <ele>690.8</ele>
        <time>2021-08-17T08:42:49Z</time>
      </trkpt>
      <trkpt lat="44.41351" lon="3.01898">
        <ele>690.3</ele>
        <time>2021-08-17T08:42:51Z</time>
      </trkpt>
      <trkpt lat="44.41367" lon="3.01883">
        <ele>688.6</ele>
        <time>2021-08-17T08:42:53Z</time>
      </trkpt>
      <trkpt lat="44.41381" lon="3.01866">
        <ele>686.1</ele>
        <time>2021-08-17T08:42:55Z</time>
      </trkpt>
      <trkpt lat="44.41395" lon="3.01849">
        <ele>683.4</ele>
        <time>2021-08-17T08:42:57Z</time>
      </trkpt>
      <trkpt lat="44.41409" lon="3.01832">
        <ele>681</ele>
        <time>2021-08-17T08:42:59Z</time>
      </trkpt>
      <trkpt lat="44.41423" lon="3.01816">
        <ele>679.5</ele>
        <time>2021-08-17T08:43:01Z</time>
      </trkpt>
      <trkpt lat="44.41437" lon="3.01798">
        <ele>677.2</ele>
        <time>2021-08-17T08:43:03Z</time>
      </trkpt>
      <trkpt lat="44.41451" lon="3.01782">
        <ele>675.1</ele>
        <time>2021-08-17T08:43:05Z</time>
      </trkpt>
      <trkpt lat="44.41466" lon="3.01767">
        <ele>673.5</ele>
        <time>2021-08-17T08:43:07Z</time>
      </trkpt>
      <trkpt lat="44.41482" lon="3.01754">
        <ele>672.4</ele>
        <time>2021-08-17T08:43:09Z</time>
      </trkpt>
      <trkpt lat="44.415" lon="3.01745">
        <ele>672.7</ele>
        <time>2021-08-17T08:43:11Z</time>
      </trkpt>
      <trkpt lat="44.41517" lon="3.01737">
        <ele>670.4</ele>
        <time>2021-08-17T08:43:13Z</time>
      </trkpt>
      <trkpt lat="44.41535" lon="3.0173">
        <ele>668.5</ele>
        <time>2021-08-17T08:43:15Z</time>
      </trkpt>
      <trkpt lat="44.41554" lon="3.01727">
        <ele>667.5</ele>
        <time>2021-08-17T08:43:17Z</time>
      </trkpt>
      <trkpt lat="44.41573" lon="3.01726">
        <ele>667</ele>
        <time>2021-08-17T08:43:19Z</time>
      </trkpt>
      <trkpt lat="44.41591" lon="3.01725">
        <ele>666.1</ele>
        <time>2021-08-17T08:43:21Z</time>
      </trkpt>
      <trkpt lat="44.41609" lon="3.01721">
        <ele>664.7</ele>
        <time>2021-08-17T08:43:23Z</time>
      </trkpt>
      <trkpt lat="44.41626" lon="3.01716">
        <ele>663</ele>
        <time>2021-08-17T08:43:25Z</time>
      </trkpt>
      <trkpt lat="44.41643" lon="3.01709">
        <ele>661.2</ele>
        <time>2021-08-17T08:43:27Z</time>
      </trkpt>
      <trkpt lat="44.4166" lon="3.017">
        <ele>659</ele>
        <time>2021-08-17T08:43:29Z</time>
      </trkpt>
      <trkpt lat="44.41675" lon="3.01689">
        <ele>657.1</ele>
        <time>2021-08-17T08:43:31Z</time>
      </trkpt>
      <trkpt lat="44.41691" lon="3.01677">
        <ele>655.1</ele>
        <time>2021-08-17T08:43:33Z</time>
      </trkpt>
      <trkpt lat="44.41707" lon="3.01665">
        <ele>653.4</ele>
        <time>2021-08-17T08:43:35Z</time>
      </trkpt>
      <trkpt lat="44.41723" lon="3.01654">
        <ele>652.4</ele>
        <time>2021-08-17T08:43:37Z</time>
      </trkpt>
      <trkpt lat="44.41739" lon="3.01644">
        <ele>651.5</ele>
        <time>2021-08-17T08:43:39Z</time>
      </trkpt>
      <trkpt lat="44.41757" lon="3.01638">
        <ele>650.7</ele>
        <time>2021-08-17T08:43:41Z</time>
      </trkpt>
      <trkpt lat="44.41774" lon="3.01635">
        <ele>650</ele>
        <time>2021-08-17T08:43:43Z</time>
      </trkpt>
      <trkpt lat="44.41792" lon="3.01633">
        <ele>649.3</ele>
        <time>2021-08-17T08:43:45Z</time>
      </trkpt>
      <trkpt lat="44.4181" lon="3.01631">
        <ele>648.7</ele>
        <time>2021-08-17T08:43:47Z</time>
      </trkpt>
      <trkpt lat="44.41827" lon="3.01628">
        <ele>647.9</ele>
        <time>2021-08-17T08:43:49Z</time>
      </trkpt>
      <trkpt lat="44.41845" lon="3.01625">
        <ele>646.6</ele>
        <time>2021-08-17T08:43:51Z</time>
      </trkpt>
      <trkpt lat="44.41862" lon="3.01622">
        <ele>645.2</ele>
        <time>2021-08-17T08:43:53Z</time>
      </trkpt>
      <trkpt lat="44.41877" lon="3.0162">
        <ele>644</ele>
        <time>2021-08-17T08:43:55Z</time>
      </trkpt>
      <trkpt lat="44.41892" lon="3.01618">
        <ele>642.8</ele>
        <time>2021-08-17T08:43:57Z</time>
      </trkpt>
      <trkpt lat="44.41907" lon="3.01616">
        <ele>641.6</ele>
        <time>2021-08-17T08:43:59Z</time>
      </trkpt>
      <trkpt lat="44.41922" lon="3.01613">
        <ele>640.3</ele>
        <time>2021-08-17T08:44:01Z</time>
      </trkpt>
      <trkpt lat="44.41936" lon="3.01611">
        <ele>638.8</ele>
        <time>2021-08-17T08:44:03Z</time>
      </trkpt>
      <trkpt lat="44.4195" lon="3.01608">
        <ele>637.5</ele>
        <time>2021-08-17T08:44:05Z</time>
      </trkpt>
      <trkpt lat="44.41964" lon="3.01606">
        <ele>636.2</ele>
        <time>2021-08-17T08:44:07Z</time>
      </trkpt>
      <trkpt lat="44.41978" lon="3.01604">
        <ele>634.9</ele>
        <time>2021-08-17T08:44:09Z</time>
      </trkpt>
      <trkpt lat="44.41992" lon="3.01603">
        <ele>633.7</ele>
        <time>2021-08-17T08:44:11Z</time>
      </trkpt>
      <trkpt lat="44.42007" lon="3.01601">
        <ele>633</ele>
        <time>2021-08-17T08:44:13Z</time>
      </trkpt>
      <trkpt lat="44.42023" lon="3.01598">
        <ele>633.1</ele>
        <time>2021-08-17T08:44:15Z</time>
      </trkpt>
      <trkpt lat="44.42039" lon="3.01594">
        <ele>633.3</ele>
        <time>2021-08-17T08:44:17Z</time>
      </trkpt>
      <trkpt lat="44.42057" lon="3.01592">
        <ele>633.5</ele>
        <time>2021-08-17T08:44:19Z</time>
      </trkpt>
      <trkpt lat="44.42073" lon="3.01589">
        <ele>633.7</ele>
        <time>2021-08-17T08:44:21Z</time>
      </trkpt>
      <trkpt lat="44.42089" lon="3.01585">
        <ele>633.7</ele>
        <time>2021-08-17T08:44:23Z</time>
      </trkpt>
      <trkpt lat="44.42105" lon="3.01582">
        <ele>633.2</ele>
        <time>2021-08-17T08:44:25Z</time>
      </trkpt>
      <trkpt lat="44.4212" lon="3.01581">
        <ele>632.6</ele>
        <time>2021-08-17T08:44:27Z</time>
      </trkpt>
      <trkpt lat="44.42134" lon="3.01579">
        <ele>632.1</ele>
        <time>2021-08-17T08:44:29Z</time>
      </trkpt>
      <trkpt lat="44.42147" lon="3.01577">
        <ele>631.6</ele>
        <time>2021-08-17T08:44:31Z</time>
      </trkpt>
      <trkpt lat="44.42158" lon="3.01577">
        <ele>631.2</ele>
        <time>2021-08-17T08:44:33Z</time>
      </trkpt>
      <trkpt lat="44.4217" lon="3.01575">
        <ele>630.9</ele>
        <time>2021-08-17T08:44:35Z</time>
      </trkpt>
      <trkpt lat="44.4218" lon="3.01572">
        <ele>631</ele>
        <time>2021-08-17T08:44:37Z</time>
      </trkpt>
      <trkpt lat="44.4219" lon="3.0157">
        <ele>631.2</ele>
        <time>2021-08-17T08:44:39Z</time>
      </trkpt>
      <trkpt lat="44.422" lon="3.01568">
        <ele>631.3</ele>
        <time>2021-08-17T08:44:41Z</time>
      </trkpt>
      <trkpt lat="44.42208" lon="3.01568">
        <ele>631.4</ele>
        <time>2021-08-17T08:44:43Z</time>
      </trkpt>
      <trkpt lat="44.42217" lon="3.01567">
        <ele>631.5</ele>
        <time>2021-08-17T08:44:45Z</time>
      </trkpt>
      <trkpt lat="44.42225" lon="3.01566">
        <ele>631.6</ele>
        <time>2021-08-17T08:44:47Z</time>
      </trkpt>
      <trkpt lat="44.42232" lon="3.01565">
        <ele>631.7</ele>
        <time>2021-08-17T08:44:49Z</time>
      </trkpt>
      <trkpt lat="44.42238" lon="3.01564">
        <ele>631.8</ele>
        <time>2021-08-17T08:44:51Z</time>
      </trkpt>
      <trkpt lat="44.42245" lon="3.01563">
        <ele>631.9</ele>
        <time>2021-08-17T08:44:53Z</time>
      </trkpt>
      <trkpt lat="44.42251" lon="3.01563">
        <ele>632</ele>
        <time>2021-08-17T08:44:55Z</time>
      </trkpt>
      <trkpt lat="44.42254" lon="3.01564">
        <ele>632.1</ele>
        <time>2021-08-17T08:44:57Z</time>
      </trkpt>
      <trkpt lat="44.42255" lon="3.01565">
        <ele>632.1</ele>
        <time>2021-08-17T08:44:59Z</time>
      </trkpt>
      <trkpt lat="44.42256" lon="3.01566">
        <ele>632.1</ele>
        <time>2021-08-17T08:45:01Z</time>
      </trkpt>
      <trkpt lat="44.42256" lon="3.01566">
        <ele>632.2</ele>
        <time>2021-08-17T08:45:03Z</time>
      </trkpt>
      <trkpt lat="44.42257" lon="3.01566">
        <ele>632.2</ele>
        <time>2021-08-17T08:45:05Z</time>
      </trkpt>
      <trkpt lat="44.42261" lon="3.01606">
        <ele>632.1</ele>
        <time>2021-08-17T08:45:51Z</time>
      </trkpt>
      <trkpt lat="44.42261" lon="3.01615">
        <ele>632</ele>
        <time>2021-08-17T08:45:53Z</time>
      </trkpt>
      <trkpt lat="44.42261" lon="3.01625">
        <ele>632</ele>
        <time>2021-08-17T08:45:55Z</time>
      </trkpt>
      <trkpt lat="44.42261" lon="3.01636">
        <ele>631.9</ele>
        <time>2021-08-17T08:45:57Z</time>
      </trkpt>
      <trkpt lat="44.42261" lon="3.01646">
        <ele>631.8</ele>
        <time>2021-08-17T08:45:59Z</time>
      </trkpt>
      <trkpt lat="44.42261" lon="3.01657">
        <ele>631.7</ele>
        <time>2021-08-17T08:46:01Z</time>
      </trkpt>
      <trkpt lat="44.42261" lon="3.01668">
        <ele>631.7</ele>
        <time>2021-08-17T08:46:03Z</time>
      </trkpt>
      <trkpt lat="44.4226" lon="3.01678">
        <ele>631.8</ele>
        <time>2021-08-17T08:46:05Z</time>
      </trkpt>
      <trkpt lat="44.42258" lon="3.01688">
        <ele>631.7</ele>
        <time>2021-08-17T08:46:07Z</time>
      </trkpt>
      <trkpt lat="44.42256" lon="3.01697">
        <ele>631.8</ele>
        <time>2021-08-17T08:46:09Z</time>
      </trkpt>
      <trkpt lat="44.42256" lon="3.01705">
        <ele>631.8</ele>
        <time>2021-08-17T08:46:11Z</time>
      </trkpt>
      <trkpt lat="44.42255" lon="3.01714">
        <ele>631.9</ele>
        <time>2021-08-17T08:46:13Z</time>
      </trkpt>
      <trkpt lat="44.42253" lon="3.01722">
        <ele>631.9</ele>
        <time>2021-08-17T08:46:15Z</time>
      </trkpt>
      <trkpt lat="44.4225" lon="3.0173">
        <ele>631.8</ele>
        <time>2021-08-17T08:46:17Z</time>
      </trkpt>
      <trkpt lat="44.42248" lon="3.01739">
        <ele>631.8</ele>
        <time>2021-08-17T08:46:19Z</time>
      </trkpt>
      <trkpt lat="44.42245" lon="3.01748">
        <ele>631.9</ele>
        <time>2021-08-17T08:46:21Z</time>
      </trkpt>
      <trkpt lat="44.42243" lon="3.01757">
        <ele>631.8</ele>
        <time>2021-08-17T08:46:23Z</time>
      </trkpt>
      <trkpt lat="44.42242" lon="3.01765">
        <ele>631.8</ele>
        <time>2021-08-17T08:46:25Z</time>
      </trkpt>
      <trkpt lat="44.42242" lon="3.01774">
        <ele>631.8</ele>
        <time>2021-08-17T08:46:27Z</time>
      </trkpt>
      <trkpt lat="44.42241" lon="3.01783">
        <ele>631.8</ele>
        <time>2021-08-17T08:46:29Z</time>
      </trkpt>
      <trkpt lat="44.42239" lon="3.01792">
        <ele>631.7</ele>
        <time>2021-08-17T08:46:31Z</time>
      </trkpt>
      <trkpt lat="44.42239" lon="3.01798">
        <ele>631.7</ele>
        <time>2021-08-17T08:46:33Z</time>
      </trkpt>
      <trkpt lat="44.4224" lon="3.01804">
        <ele>631.8</ele>
        <time>2021-08-17T08:46:35Z</time>
      </trkpt>
      <trkpt lat="44.42239" lon="3.0181">
        <ele>631.7</ele>
        <time>2021-08-17T08:46:37Z</time>
      </trkpt>
      <trkpt lat="44.42238" lon="3.01814">
        <ele>631.7</ele>
        <time>2021-08-17T08:46:39Z</time>
      </trkpt>
      <trkpt lat="44.42238" lon="3.01817">
        <ele>631.7</ele>
        <time>2021-08-17T08:46:41Z</time>
      </trkpt>
      <trkpt lat="44.42239" lon="3.01818">
        <ele>631.7</ele>
        <time>2021-08-17T08:46:43Z</time>
      </trkpt>
      <trkpt lat="44.4224" lon="3.01819">
        <ele>631.8</ele>
        <time>2021-08-17T08:46:45Z</time>
      </trkpt>
      <trkpt lat="44.42241" lon="3.01819">
        <ele>631.8</ele>
        <time>2021-08-17T08:46:47Z</time>
      </trkpt>
      <trkpt lat="44.42238" lon="3.01795">
        <ele>631.7</ele>
        <time>2021-08-17T09:14:07Z</time>
      </trkpt>
      <trkpt lat="44.4224" lon="3.01789">
        <ele>631.8</ele>
        <time>2021-08-17T09:14:09Z</time>
      </trkpt>
      <trkpt lat="44.42241" lon="3.01782">
        <ele>631.8</ele>
        <time>2021-08-17T09:14:11Z</time>
      </trkpt>
      <trkpt lat="44.42242" lon="3.01775">
        <ele>631.8</ele>
        <time>2021-08-17T09:14:13Z</time>
      </trkpt>
      <trkpt lat="44.42243" lon="3.01767">
        <ele>631.8</ele>
        <time>2021-08-17T09:14:15Z</time>
      </trkpt>
      <trkpt lat="44.42244" lon="3.01759">
        <ele>631.9</ele>
        <time>2021-08-17T09:14:17Z</time>
      </trkpt>
      <trkpt lat="44.42246" lon="3.01751">
        <ele>631.9</ele>
        <time>2021-08-17T09:14:19Z</time>
      </trkpt>
      <trkpt lat="44.42248" lon="3.01744">
        <ele>631.9</ele>
        <time>2021-08-17T09:14:21Z</time>
      </trkpt>
      <trkpt lat="44.42249" lon="3.01736">
        <ele>631.8</ele>
        <time>2021-08-17T09:14:23Z</time>
      </trkpt>
      <trkpt lat="44.42251" lon="3.01728">
        <ele>631.8</ele>
        <time>2021-08-17T09:14:25Z</time>
      </trkpt>
      <trkpt lat="44.42252" lon="3.0172">
        <ele>631.8</ele>
        <time>2021-08-17T09:14:27Z</time>
      </trkpt>
      <trkpt lat="44.42254" lon="3.01714">
        <ele>631.8</ele>
        <time>2021-08-17T09:14:29Z</time>
      </trkpt>
      <trkpt lat="44.42255" lon="3.01705">
        <ele>631.8</ele>
        <time>2021-08-17T09:14:31Z</time>
      </trkpt>
      <trkpt lat="44.42256" lon="3.01697">
        <ele>631.7</ele>
        <time>2021-08-17T09:14:33Z</time>
      </trkpt>
      <trkpt lat="44.42256" lon="3.01689">
        <ele>631.7</ele>
        <time>2021-08-17T09:14:35Z</time>
      </trkpt>
      <trkpt lat="44.42258" lon="3.0168">
        <ele>631.7</ele>
        <time>2021-08-17T09:14:37Z</time>
      </trkpt>
      <trkpt lat="44.42259" lon="3.0167">
        <ele>631.6</ele>
        <time>2021-08-17T09:14:39Z</time>
      </trkpt>
      <trkpt lat="44.4226" lon="3.01662">
        <ele>631.6</ele>
        <time>2021-08-17T09:14:41Z</time>
      </trkpt>
      <trkpt lat="44.42261" lon="3.01653">
        <ele>631.8</ele>
        <time>2021-08-17T09:14:43Z</time>
      </trkpt>
      <trkpt lat="44.42261" lon="3.01644">
        <ele>631.8</ele>
        <time>2021-08-17T09:14:45Z</time>
      </trkpt>
      <trkpt lat="44.42262" lon="3.01635">
        <ele>631.9</ele>
        <time>2021-08-17T09:14:47Z</time>
      </trkpt>
      <trkpt lat="44.42262" lon="3.01627">
        <ele>632</ele>
        <time>2021-08-17T09:14:49Z</time>
      </trkpt>
      <trkpt lat="44.42261" lon="3.01618">
        <ele>632</ele>
        <time>2021-08-17T09:14:51Z</time>
      </trkpt>
      <trkpt lat="44.42262" lon="3.0161">
        <ele>632.1</ele>
        <time>2021-08-17T09:14:53Z</time>
      </trkpt>
      <trkpt lat="44.42262" lon="3.01602">
        <ele>632.2</ele>
        <time>2021-08-17T09:14:55Z</time>
      </trkpt>
      <trkpt lat="44.42263" lon="3.01594">
        <ele>632.2</ele>
        <time>2021-08-17T09:14:57Z</time>
      </trkpt>
      <trkpt lat="44.42263" lon="3.01587">
        <ele>632.3</ele>
        <time>2021-08-17T09:14:59Z</time>
      </trkpt>
      <trkpt lat="44.42264" lon="3.01579">
        <ele>632.3</ele>
        <time>2021-08-17T09:15:01Z</time>
      </trkpt>
      <trkpt lat="44.42266" lon="3.01571">
        <ele>632.4</ele>
        <time>2021-08-17T09:15:03Z</time>
      </trkpt>
      <trkpt lat="44.42269" lon="3.01564">
        <ele>632.5</ele>
        <time>2021-08-17T09:15:05Z</time>
      </trkpt>
      <trkpt lat="44.42274" lon="3.01561">
        <ele>632.6</ele>
        <time>2021-08-17T09:15:07Z</time>
      </trkpt>
      <trkpt lat="44.42279" lon="3.01562">
        <ele>632.7</ele>
        <time>2021-08-17T09:15:09Z</time>
      </trkpt>
      <trkpt lat="44.42284" lon="3.01562">
        <ele>632.8</ele>
        <time>2021-08-17T09:15:11Z</time>
      </trkpt>
      <trkpt lat="44.4229" lon="3.01562">
        <ele>633</ele>
        <time>2021-08-17T09:15:13Z</time>
      </trkpt>
      <trkpt lat="44.42296" lon="3.01562">
        <ele>633.1</ele>
        <time>2021-08-17T09:15:15Z</time>
      </trkpt>
      <trkpt lat="44.42301" lon="3.01562">
        <ele>633.2</ele>
        <time>2021-08-17T09:15:17Z</time>
      </trkpt>
      <trkpt lat="44.42307" lon="3.01562">
        <ele>633.4</ele>
        <time>2021-08-17T09:15:19Z</time>
      </trkpt>
      <trkpt lat="44.42312" lon="3.01562">
        <ele>633.5</ele>
        <time>2021-08-17T09:15:21Z</time>
      </trkpt>
      <trkpt lat="44.42317" lon="3.01562">
        <ele>633.6</ele>
        <time>2021-08-17T09:15:23Z</time>
      </trkpt>
      <trkpt lat="44.42322" lon="3.01562">
        <ele>633.7</ele>
        <time>2021-08-17T09:15:25Z</time>
      </trkpt>
      <trkpt lat="44.42328" lon="3.01561">
        <ele>633.9</ele>
        <time>2021-08-17T09:15:27Z</time>
      </trkpt>
      <trkpt lat="44.42333" lon="3.01561">
        <ele>634</ele>
        <time>2021-08-17T09:15:29Z</time>
      </trkpt>
      <trkpt lat="44.42338" lon="3.01561">
        <ele>634.2</ele>
        <time>2021-08-17T09:15:31Z</time>
      </trkpt>
      <trkpt lat="44.42344" lon="3.01561">
        <ele>634.4</ele>
        <time>2021-08-17T09:15:33Z</time>
      </trkpt>
      <trkpt lat="44.4235" lon="3.01561">
        <ele>634.7</ele>
        <time>2021-08-17T09:15:35Z</time>
      </trkpt>
      <trkpt lat="44.42356" lon="3.01561">
        <ele>634.9</ele>
        <time>2021-08-17T09:15:37Z</time>
      </trkpt>
      <trkpt lat="44.42361" lon="3.01561">
        <ele>635.2</ele>
        <time>2021-08-17T09:15:39Z</time>
      </trkpt>
      <trkpt lat="44.42366" lon="3.0156">
        <ele>635.3</ele>
        <time>2021-08-17T09:15:41Z</time>
      </trkpt>
      <trkpt lat="44.4237" lon="3.01561">
        <ele>635.5</ele>
        <time>2021-08-17T09:15:43Z</time>
      </trkpt>
      <trkpt lat="44.42376" lon="3.01563">
        <ele>635.8</ele>
        <time>2021-08-17T09:15:45Z</time>
      </trkpt>
      <trkpt lat="44.42381" lon="3.01564">
        <ele>636</ele>
        <time>2021-08-17T09:15:47Z</time>
      </trkpt>
      <trkpt lat="44.42386" lon="3.01564">
        <ele>636.2</ele>
        <time>2021-08-17T09:15:49Z</time>
      </trkpt>
      <trkpt lat="44.4239" lon="3.01565">
        <ele>636.4</ele>
        <time>2021-08-17T09:15:51Z</time>
      </trkpt>
      <trkpt lat="44.42396" lon="3.01566">
        <ele>636.7</ele>
        <time>2021-08-17T09:15:53Z</time>
      </trkpt>
      <trkpt lat="44.424" lon="3.01567">
        <ele>636.9</ele>
        <time>2021-08-17T09:15:55Z</time>
      </trkpt>
      <trkpt lat="44.42404" lon="3.01568">
        <ele>637.1</ele>
        <time>2021-08-17T09:15:57Z</time>
      </trkpt>
      <trkpt lat="44.42409" lon="3.01569">
        <ele>637.3</ele>
        <time>2021-08-17T09:15:59Z</time>
      </trkpt>
      <trkpt lat="44.42415" lon="3.0157">
        <ele>637.6</ele>
        <time>2021-08-17T09:16:01Z</time>
      </trkpt>
      <trkpt lat="44.4242" lon="3.01571">
        <ele>637.9</ele>
        <time>2021-08-17T09:16:03Z</time>
      </trkpt>
      <trkpt lat="44.42425" lon="3.01573">
        <ele>638.3</ele>
        <time>2021-08-17T09:16:05Z</time>
      </trkpt>
      <trkpt lat="44.4243" lon="3.01574">
        <ele>638.7</ele>
        <time>2021-08-17T09:16:07Z</time>
      </trkpt>
      <trkpt lat="44.42435" lon="3.01575">
        <ele>639.1</ele>
        <time>2021-08-17T09:16:09Z</time>
      </trkpt>
      <trkpt lat="44.4244" lon="3.01575">
        <ele>639.5</ele>
        <time>2021-08-17T09:16:11Z</time>
      </trkpt>
      <trkpt lat="44.42445" lon="3.01577">
        <ele>639.9</ele>
        <time>2021-08-17T09:16:13Z</time>
      </trkpt>
      <trkpt lat="44.4245" lon="3.01578">
        <ele>640.2</ele>
        <time>2021-08-17T09:16:15Z</time>
      </trkpt>
      <trkpt lat="44.42454" lon="3.01579">
        <ele>640.6</ele>
        <time>2021-08-17T09:16:17Z</time>
      </trkpt>
      <trkpt lat="44.42459" lon="3.0158">
        <ele>640.9</ele>
        <time>2021-08-17T09:16:19Z</time>
      </trkpt>
      <trkpt lat="44.42464" lon="3.01581">
        <ele>641.3</ele>
        <time>2021-08-17T09:16:21Z</time>
      </trkpt>
      <trkpt lat="44.42468" lon="3.01583">
        <ele>641.7</ele>
        <time>2021-08-17T09:16:23Z</time>
      </trkpt>
      <trkpt lat="44.42473" lon="3.01584">
        <ele>642.1</ele>
        <time>2021-08-17T09:16:25Z</time>
      </trkpt>
      <trkpt lat="44.42479" lon="3.01585">
        <ele>642.5</ele>
        <time>2021-08-17T09:16:27Z</time>
      </trkpt>
      <trkpt lat="44.42483" lon="3.01586">
        <ele>642.8</ele>
        <time>2021-08-17T09:16:29Z</time>
      </trkpt>
      <trkpt lat="44.42488" lon="3.01588">
        <ele>643.2</ele>
        <time>2021-08-17T09:16:31Z</time>
      </trkpt>
      <trkpt lat="44.42493" lon="3.01589">
        <ele>643.6</ele>
        <time>2021-08-17T09:16:33Z</time>
      </trkpt>
      <trkpt lat="44.42498" lon="3.01591">
        <ele>643.9</ele>
        <time>2021-08-17T09:16:35Z</time>
      </trkpt>
      <trkpt lat="44.42504" lon="3.01593">
        <ele>644.2</ele>
        <time>2021-08-17T09:16:37Z</time>
      </trkpt>
      <trkpt lat="44.42509" lon="3.01594">
        <ele>644.3</ele>
        <time>2021-08-17T09:16:39Z</time>
      </trkpt>
      <trkpt lat="44.42514" lon="3.01595">
        <ele>644.5</ele>
        <time>2021-08-17T09:16:41Z</time>
      </trkpt>
      <trkpt lat="44.42519" lon="3.01597">
        <ele>644.6</ele>
        <time>2021-08-17T09:16:43Z</time>
      </trkpt>
      <trkpt lat="44.42523" lon="3.01598">
        <ele>644.7</ele>
        <time>2021-08-17T09:16:45Z</time>
      </trkpt>
      <trkpt lat="44.42528" lon="3.016">
        <ele>644.9</ele>
        <time>2021-08-17T09:16:47Z</time>
      </trkpt>
      <trkpt lat="44.42532" lon="3.01601">
        <ele>645</ele>
        <time>2021-08-17T09:16:49Z</time>
      </trkpt>
      <trkpt lat="44.42536" lon="3.01603">
        <ele>645.1</ele>
        <time>2021-08-17T09:16:51Z</time>
      </trkpt>
      <trkpt lat="44.42541" lon="3.01604">
        <ele>645.2</ele>
        <time>2021-08-17T09:16:53Z</time>
      </trkpt>
      <trkpt lat="44.42546" lon="3.01606">
        <ele>645.4</ele>
        <time>2021-08-17T09:16:55Z</time>
      </trkpt>
      <trkpt lat="44.42551" lon="3.01607">
        <ele>645.5</ele>
        <time>2021-08-17T09:16:57Z</time>
      </trkpt>
      <trkpt lat="44.42556" lon="3.01609">
        <ele>645.6</ele>
        <time>2021-08-17T09:16:59Z</time>
      </trkpt>
      <trkpt lat="44.4256" lon="3.01611">
        <ele>645.8</ele>
        <time>2021-08-17T09:17:01Z</time>
      </trkpt>
      <trkpt lat="44.42565" lon="3.01613">
        <ele>645.9</ele>
        <time>2021-08-17T09:17:03Z</time>
      </trkpt>
      <trkpt lat="44.42569" lon="3.01615">
        <ele>646</ele>
        <time>2021-08-17T09:17:05Z</time>
      </trkpt>
      <trkpt lat="44.42574" lon="3.01616">
        <ele>646.2</ele>
        <time>2021-08-17T09:17:07Z</time>
      </trkpt>
      <trkpt lat="44.42578" lon="3.01618">
        <ele>646.3</ele>
        <time>2021-08-17T09:17:09Z</time>
      </trkpt>
      <trkpt lat="44.42582" lon="3.0162">
        <ele>646.4</ele>
        <time>2021-08-17T09:17:11Z</time>
      </trkpt>
      <trkpt lat="44.42587" lon="3.01621">
        <ele>646.6</ele>
        <time>2021-08-17T09:17:13Z</time>
      </trkpt>
      <trkpt lat="44.42591" lon="3.01623">
        <ele>646.8</ele>
        <time>2021-08-17T09:17:15Z</time>
      </trkpt>
      <trkpt lat="44.42596" lon="3.01624">
        <ele>647</ele>
        <time>2021-08-17T09:17:17Z</time>
      </trkpt>
      <trkpt lat="44.426" lon="3.01626">
        <ele>647.2</ele>
        <time>2021-08-17T09:17:19Z</time>
      </trkpt>
      <trkpt lat="44.42605" lon="3.01628">
        <ele>647.4</ele>
        <time>2021-08-17T09:17:21Z</time>
      </trkpt>
      <trkpt lat="44.42609" lon="3.01629">
        <ele>647.6</ele>
        <time>2021-08-17T09:17:23Z</time>
      </trkpt>
      <trkpt lat="44.42614" lon="3.01631">
        <ele>647.9</ele>
        <time>2021-08-17T09:17:25Z</time>
      </trkpt>
      <trkpt lat="44.42618" lon="3.01631">
        <ele>648.1</ele>
        <time>2021-08-17T09:17:27Z</time>
      </trkpt>
      <trkpt lat="44.42623" lon="3.01633">
        <ele>648.3</ele>
        <time>2021-08-17T09:17:29Z</time>
      </trkpt>
      <trkpt lat="44.42627" lon="3.01635">
        <ele>648.5</ele>
        <time>2021-08-17T09:17:31Z</time>
      </trkpt>
      <trkpt lat="44.42631" lon="3.01636">
        <ele>648.7</ele>
        <time>2021-08-17T09:17:33Z</time>
      </trkpt>
      <trkpt lat="44.42636" lon="3.01636">
        <ele>648.9</ele>
        <time>2021-08-17T09:17:35Z</time>
      </trkpt>
      <trkpt lat="44.4264" lon="3.01637">
        <ele>649.1</ele>
        <time>2021-08-17T09:17:37Z</time>
      </trkpt>
      <trkpt lat="44.42645" lon="3.01639">
        <ele>649.4</ele>
        <time>2021-08-17T09:17:39Z</time>
      </trkpt>
      <trkpt lat="44.42649" lon="3.01639">
        <ele>649.6</ele>
        <time>2021-08-17T09:17:41Z</time>
      </trkpt>
      <trkpt lat="44.42654" lon="3.0164">
        <ele>649.8</ele>
        <time>2021-08-17T09:17:43Z</time>
      </trkpt>
      <trkpt lat="44.42658" lon="3.01642">
        <ele>650</ele>
        <time>2021-08-17T09:17:45Z</time>
      </trkpt>
      <trkpt lat="44.42663" lon="3.01643">
        <ele>650.3</ele>
        <time>2021-08-17T09:17:47Z</time>
      </trkpt>
      <trkpt lat="44.42667" lon="3.01645">
        <ele>650.5</ele>
        <time>2021-08-17T09:17:49Z</time>
      </trkpt>
      <trkpt lat="44.42673" lon="3.01647">
        <ele>650.7</ele>
        <time>2021-08-17T09:17:51Z</time>
      </trkpt>
      <trkpt lat="44.42678" lon="3.01649">
        <ele>650.9</ele>
        <time>2021-08-17T09:17:53Z</time>
      </trkpt>
      <trkpt lat="44.42682" lon="3.01651">
        <ele>651</ele>
        <time>2021-08-17T09:17:55Z</time>
      </trkpt>
      <trkpt lat="44.42687" lon="3.01653">
        <ele>651.2</ele>
        <time>2021-08-17T09:17:57Z</time>
      </trkpt>
      <trkpt lat="44.42691" lon="3.01654">
        <ele>651.3</ele>
        <time>2021-08-17T09:17:59Z</time>
      </trkpt>
      <trkpt lat="44.42695" lon="3.01655">
        <ele>651.4</ele>
        <time>2021-08-17T09:18:01Z</time>
      </trkpt>
      <trkpt lat="44.42699" lon="3.01656">
        <ele>651.5</ele>
        <time>2021-08-17T09:18:03Z</time>
      </trkpt>
      <trkpt lat="44.42704" lon="3.01658">
        <ele>651.7</ele>
        <time>2021-08-17T09:18:05Z</time>
      </trkpt>
      <trkpt lat="44.42708" lon="3.01659">
        <ele>651.8</ele>
        <time>2021-08-17T09:18:07Z</time>
      </trkpt>
      <trkpt lat="44.42712" lon="3.01661">
        <ele>652</ele>
        <time>2021-08-17T09:18:09Z</time>
      </trkpt>
      <trkpt lat="44.42717" lon="3.01662">
        <ele>652.1</ele>
        <time>2021-08-17T09:18:11Z</time>
      </trkpt>
      <trkpt lat="44.42721" lon="3.01663">
        <ele>652.2</ele>
        <time>2021-08-17T09:18:13Z</time>
      </trkpt>
      <trkpt lat="44.42724" lon="3.01664">
        <ele>652.3</ele>
        <time>2021-08-17T09:18:15Z</time>
      </trkpt>
      <trkpt lat="44.42729" lon="3.01665">
        <ele>652.4</ele>
        <time>2021-08-17T09:18:17Z</time>
      </trkpt>
      <trkpt lat="44.42733" lon="3.01666">
        <ele>652.6</ele>
        <time>2021-08-17T09:18:19Z</time>
      </trkpt>
      <trkpt lat="44.42737" lon="3.01668">
        <ele>652.7</ele>
        <time>2021-08-17T09:18:21Z</time>
      </trkpt>
      <trkpt lat="44.42741" lon="3.01669">
        <ele>652.9</ele>
        <time>2021-08-17T09:18:23Z</time>
      </trkpt>
      <trkpt lat="44.42745" lon="3.01671">
        <ele>653.1</ele>
        <time>2021-08-17T09:18:25Z</time>
      </trkpt>
      <trkpt lat="44.4275" lon="3.01672">
        <ele>653.3</ele>
        <time>2021-08-17T09:18:27Z</time>
      </trkpt>
      <trkpt lat="44.42754" lon="3.01674">
        <ele>653.5</ele>
        <time>2021-08-17T09:18:29Z</time>
      </trkpt>
      <trkpt lat="44.42759" lon="3.01675">
        <ele>653.7</ele>
        <time>2021-08-17T09:18:31Z</time>
      </trkpt>
      <trkpt lat="44.42763" lon="3.01677">
        <ele>654</ele>
        <time>2021-08-17T09:18:33Z</time>
      </trkpt>
      <trkpt lat="44.42768" lon="3.01678">
        <ele>654.2</ele>
        <time>2021-08-17T09:18:35Z</time>
      </trkpt>
      <trkpt lat="44.42772" lon="3.0168">
        <ele>654.5</ele>
        <time>2021-08-17T09:18:37Z</time>
      </trkpt>
      <trkpt lat="44.42777" lon="3.01682">
        <ele>654.8</ele>
        <time>2021-08-17T09:18:39Z</time>
      </trkpt>
      <trkpt lat="44.42781" lon="3.01684">
        <ele>655.1</ele>
        <time>2021-08-17T09:18:41Z</time>
      </trkpt>
      <trkpt lat="44.42785" lon="3.01685">
        <ele>655.3</ele>
        <time>2021-08-17T09:18:43Z</time>
      </trkpt>
      <trkpt lat="44.42789" lon="3.01687">
        <ele>655.6</ele>
        <time>2021-08-17T09:18:45Z</time>
      </trkpt>
      <trkpt lat="44.42793" lon="3.01688">
        <ele>655.9</ele>
        <time>2021-08-17T09:18:47Z</time>
      </trkpt>
      <trkpt lat="44.42798" lon="3.0169">
        <ele>656.1</ele>
        <time>2021-08-17T09:18:49Z</time>
      </trkpt>
      <trkpt lat="44.42801" lon="3.01692">
        <ele>656.4</ele>
        <time>2021-08-17T09:18:51Z</time>
      </trkpt>
      <trkpt lat="44.42806" lon="3.01692">
        <ele>656.6</ele>
        <time>2021-08-17T09:18:53Z</time>
      </trkpt>
      <trkpt lat="44.42809" lon="3.01694">
        <ele>656.9</ele>
        <time>2021-08-17T09:18:55Z</time>
      </trkpt>
      <trkpt lat="44.42814" lon="3.01696">
        <ele>657.2</ele>
        <time>2021-08-17T09:18:57Z</time>
      </trkpt>
      <trkpt lat="44.42818" lon="3.01697">
        <ele>657.5</ele>
        <time>2021-08-17T09:18:59Z</time>
      </trkpt>
      <trkpt lat="44.42822" lon="3.01699">
        <ele>657.8</ele>
        <time>2021-08-17T09:19:01Z</time>
      </trkpt>
      <trkpt lat="44.42826" lon="3.017">
        <ele>658.1</ele>
        <time>2021-08-17T09:19:03Z</time>
      </trkpt>
      <trkpt lat="44.4283" lon="3.01701">
        <ele>658.4</ele>
        <time>2021-08-17T09:19:05Z</time>
      </trkpt>
      <trkpt lat="44.42834" lon="3.01703">
        <ele>658.6</ele>
        <time>2021-08-17T09:19:07Z</time>
      </trkpt>
      <trkpt lat="44.42839" lon="3.01704">
        <ele>658.9</ele>
        <time>2021-08-17T09:19:09Z</time>
      </trkpt>
      <trkpt lat="44.42842" lon="3.01706">
        <ele>659.1</ele>
        <time>2021-08-17T09:19:11Z</time>
      </trkpt>
      <trkpt lat="44.42847" lon="3.01707">
        <ele>659.3</ele>
        <time>2021-08-17T09:19:13Z</time>
      </trkpt>
      <trkpt lat="44.42851" lon="3.01709">
        <ele>659.6</ele>
        <time>2021-08-17T09:19:15Z</time>
      </trkpt>
      <trkpt lat="44.42855" lon="3.01711">
        <ele>659.8</ele>
        <time>2021-08-17T09:19:17Z</time>
      </trkpt>
      <trkpt lat="44.42859" lon="3.01712">
        <ele>660.1</ele>
        <time>2021-08-17T09:19:19Z</time>
      </trkpt>
      <trkpt lat="44.42864" lon="3.01713">
        <ele>660.3</ele>
        <time>2021-08-17T09:19:21Z</time>
      </trkpt>
      <trkpt lat="44.42868" lon="3.01715">
        <ele>660.5</ele>
        <time>2021-08-17T09:19:23Z</time>
      </trkpt>
      <trkpt lat="44.42873" lon="3.01717">
        <ele>660.7</ele>
        <time>2021-08-17T09:19:25Z</time>
      </trkpt>
      <trkpt lat="44.42877" lon="3.01718">
        <ele>661</ele>
        <time>2021-08-17T09:19:27Z</time>
      </trkpt>
      <trkpt lat="44.42882" lon="3.0172">
        <ele>661.2</ele>
        <time>2021-08-17T09:19:29Z</time>
      </trkpt>
      <trkpt lat="44.42886" lon="3.01721">
        <ele>661.4</ele>
        <time>2021-08-17T09:19:31Z</time>
      </trkpt>
      <trkpt lat="44.4289" lon="3.01722">
        <ele>661.6</ele>
        <time>2021-08-17T09:19:33Z</time>
      </trkpt>
      <trkpt lat="44.42894" lon="3.01723">
        <ele>661.8</ele>
        <time>2021-08-17T09:19:35Z</time>
      </trkpt>
      <trkpt lat="44.42898" lon="3.01725">
        <ele>662</ele>
        <time>2021-08-17T09:19:37Z</time>
      </trkpt>
      <trkpt lat="44.42903" lon="3.01725">
        <ele>662.1</ele>
        <time>2021-08-17T09:19:39Z</time>
      </trkpt>
      <trkpt lat="44.42907" lon="3.01726">
        <ele>662.3</ele>
        <time>2021-08-17T09:19:41Z</time>
      </trkpt>
      <trkpt lat="44.42911" lon="3.01727">
        <ele>662.4</ele>
        <time>2021-08-17T09:19:43Z</time>
      </trkpt>
      <trkpt lat="44.42916" lon="3.01727">
        <ele>662.6</ele>
        <time>2021-08-17T09:19:45Z</time>
      </trkpt>
      <trkpt lat="44.4292" lon="3.01727">
        <ele>663</ele>
        <time>2021-08-17T09:19:47Z</time>
      </trkpt>
      <trkpt lat="44.42924" lon="3.01727">
        <ele>663.6</ele>
        <time>2021-08-17T09:19:49Z</time>
      </trkpt>
      <trkpt lat="44.42929" lon="3.01727">
        <ele>664.1</ele>
        <time>2021-08-17T09:19:51Z</time>
      </trkpt>
      <trkpt lat="44.42933" lon="3.01726">
        <ele>664.5</ele>
        <time>2021-08-17T09:19:53Z</time>
      </trkpt>
      <trkpt lat="44.42937" lon="3.01726">
        <ele>664.9</ele>
        <time>2021-08-17T09:19:55Z</time>
      </trkpt>
      <trkpt lat="44.42941" lon="3.01724">
        <ele>665.3</ele>
        <time>2021-08-17T09:19:57Z</time>
      </trkpt>
      <trkpt lat="44.42945" lon="3.01723">
        <ele>665.7</ele>
        <time>2021-08-17T09:19:59Z</time>
      </trkpt>
      <trkpt lat="44.42949" lon="3.01721">
        <ele>666.1</ele>
        <time>2021-08-17T09:20:01Z</time>
      </trkpt>
      <trkpt lat="44.42953" lon="3.0172">
        <ele>666.4</ele>
        <time>2021-08-17T09:20:03Z</time>
      </trkpt>
      <trkpt lat="44.42957" lon="3.01717">
        <ele>666.6</ele>
        <time>2021-08-17T09:20:05Z</time>
      </trkpt>
      <trkpt lat="44.42961" lon="3.01714">
        <ele>666.8</ele>
        <time>2021-08-17T09:20:07Z</time>
      </trkpt>
      <trkpt lat="44.42965" lon="3.01711">
        <ele>667</ele>
        <time>2021-08-17T09:20:09Z</time>
      </trkpt>
      <trkpt lat="44.42969" lon="3.01708">
        <ele>667.2</ele>
        <time>2021-08-17T09:20:11Z</time>
      </trkpt>
      <trkpt lat="44.42973" lon="3.01706">
        <ele>667.4</ele>
        <time>2021-08-17T09:20:13Z</time>
      </trkpt>
      <trkpt lat="44.42977" lon="3.01703">
        <ele>667.5</ele>
        <time>2021-08-17T09:20:15Z</time>
      </trkpt>
      <trkpt lat="44.42981" lon="3.01701">
        <ele>667.6</ele>
        <time>2021-08-17T09:20:17Z</time>
      </trkpt>
      <trkpt lat="44.42984" lon="3.01698">
        <ele>667.8</ele>
        <time>2021-08-17T09:20:19Z</time>
      </trkpt>
      <trkpt lat="44.42988" lon="3.01695">
        <ele>667.9</ele>
        <time>2021-08-17T09:20:21Z</time>
      </trkpt>
      <trkpt lat="44.42991" lon="3.01692">
        <ele>667.9</ele>
        <time>2021-08-17T09:20:23Z</time>
      </trkpt>
      <trkpt lat="44.42995" lon="3.01689">
        <ele>668</ele>
        <time>2021-08-17T09:20:25Z</time>
      </trkpt>
      <trkpt lat="44.42999" lon="3.01687">
        <ele>668.1</ele>
        <time>2021-08-17T09:20:27Z</time>
      </trkpt>
      <trkpt lat="44.43003" lon="3.01684">
        <ele>668.3</ele>
        <time>2021-08-17T09:20:29Z</time>
      </trkpt>
      <trkpt lat="44.43007" lon="3.01681">
        <ele>668.6</ele>
        <time>2021-08-17T09:20:31Z</time>
      </trkpt>
      <trkpt lat="44.4301" lon="3.01679">
        <ele>668.8</ele>
        <time>2021-08-17T09:20:33Z</time>
      </trkpt>
      <trkpt lat="44.43014" lon="3.01677">
        <ele>669.1</ele>
        <time>2021-08-17T09:20:35Z</time>
      </trkpt>
      <trkpt lat="44.43018" lon="3.01674">
        <ele>669.4</ele>
        <time>2021-08-17T09:20:37Z</time>
      </trkpt>
      <trkpt lat="44.43022" lon="3.01671">
        <ele>669.6</ele>
        <time>2021-08-17T09:20:39Z</time>
      </trkpt>
      <trkpt lat="44.43026" lon="3.01668">
        <ele>669.8</ele>
        <time>2021-08-17T09:20:41Z</time>
      </trkpt>
      <trkpt lat="44.4303" lon="3.01665">
        <ele>670.2</ele>
        <time>2021-08-17T09:20:43Z</time>
      </trkpt>
      <trkpt lat="44.43033" lon="3.01662">
        <ele>670.5</ele>
        <time>2021-08-17T09:20:45Z</time>
      </trkpt>
      <trkpt lat="44.43037" lon="3.01659">
        <ele>670.8</ele>
        <time>2021-08-17T09:20:47Z</time>
      </trkpt>
      <trkpt lat="44.43041" lon="3.01656">
        <ele>671.1</ele>
        <time>2021-08-17T09:20:49Z</time>
      </trkpt>
      <trkpt lat="44.43044" lon="3.01653">
        <ele>671.4</ele>
        <time>2021-08-17T09:20:51Z</time>
      </trkpt>
      <trkpt lat="44.43048" lon="3.01651">
        <ele>671.8</ele>
        <time>2021-08-17T09:20:53Z</time>
      </trkpt>
      <trkpt lat="44.43052" lon="3.01648">
        <ele>672.1</ele>
        <time>2021-08-17T09:20:55Z</time>
      </trkpt>
      <trkpt lat="44.43056" lon="3.01645">
        <ele>672.4</ele>
        <time>2021-08-17T09:20:57Z</time>
      </trkpt>
      <trkpt lat="44.4306" lon="3.01643">
        <ele>672.7</ele>
        <time>2021-08-17T09:20:59Z</time>
      </trkpt>
      <trkpt lat="44.43063" lon="3.0164">
        <ele>673</ele>
        <time>2021-08-17T09:21:01Z</time>
      </trkpt>
      <trkpt lat="44.43067" lon="3.01637">
        <ele>673.3</ele>
        <time>2021-08-17T09:21:03Z</time>
      </trkpt>
      <trkpt lat="44.43071" lon="3.01634">
        <ele>673.6</ele>
        <time>2021-08-17T09:21:05Z</time>
      </trkpt>
      <trkpt lat="44.43075" lon="3.01631">
        <ele>673.9</ele>
        <time>2021-08-17T09:21:07Z</time>
      </trkpt>
      <trkpt lat="44.43078" lon="3.01628">
        <ele>674.1</ele>
        <time>2021-08-17T09:21:09Z</time>
      </trkpt>
      <trkpt lat="44.43082" lon="3.01625">
        <ele>674.3</ele>
        <time>2021-08-17T09:21:11Z</time>
      </trkpt>
      <trkpt lat="44.43085" lon="3.01623">
        <ele>674.5</ele>
        <time>2021-08-17T09:21:13Z</time>
      </trkpt>
      <trkpt lat="44.43089" lon="3.01621">
        <ele>674.6</ele>
        <time>2021-08-17T09:21:15Z</time>
      </trkpt>
      <trkpt lat="44.43092" lon="3.01618">
        <ele>674.7</ele>
        <time>2021-08-17T09:21:17Z</time>
      </trkpt>
      <trkpt lat="44.43096" lon="3.01616">
        <ele>674.8</ele>
        <time>2021-08-17T09:21:19Z</time>
      </trkpt>
      <trkpt lat="44.43099" lon="3.01613">
        <ele>674.8</ele>
        <time>2021-08-17T09:21:21Z</time>
      </trkpt>
      <trkpt lat="44.43103" lon="3.01611">
        <ele>674.9</ele>
        <time>2021-08-17T09:21:23Z</time>
      </trkpt>
      <trkpt lat="44.43106" lon="3.01608">
        <ele>674.9</ele>
        <time>2021-08-17T09:21:25Z</time>
      </trkpt>
      <trkpt lat="44.4311" lon="3.01607">
        <ele>675</ele>
        <time>2021-08-17T09:21:27Z</time>
      </trkpt>
      <trkpt lat="44.43113" lon="3.01604">
        <ele>675</ele>
        <time>2021-08-17T09:21:29Z</time>
      </trkpt>
      <trkpt lat="44.43116" lon="3.01602">
        <ele>675.1</ele>
        <time>2021-08-17T09:21:31Z</time>
      </trkpt>
      <trkpt lat="44.4312" lon="3.016">
        <ele>675.2</ele>
        <time>2021-08-17T09:21:33Z</time>
      </trkpt>
      <trkpt lat="44.43123" lon="3.01598">
        <ele>675.2</ele>
        <time>2021-08-17T09:21:35Z</time>
      </trkpt>
      <trkpt lat="44.43127" lon="3.01596">
        <ele>675.4</ele>
        <time>2021-08-17T09:21:37Z</time>
      </trkpt>
      <trkpt lat="44.43131" lon="3.01595">
        <ele>675.5</ele>
        <time>2021-08-17T09:21:39Z</time>
      </trkpt>
      <trkpt lat="44.43134" lon="3.01593">
        <ele>675.6</ele>
        <time>2021-08-17T09:21:41Z</time>
      </trkpt>
      <trkpt lat="44.43138" lon="3.01593">
        <ele>675.9</ele>
        <time>2021-08-17T09:21:43Z</time>
      </trkpt>
      <trkpt lat="44.43142" lon="3.01592">
        <ele>676.1</ele>
        <time>2021-08-17T09:21:45Z</time>
      </trkpt>
      <trkpt lat="44.43146" lon="3.01592">
        <ele>676.3</ele>
        <time>2021-08-17T09:21:47Z</time>
      </trkpt>
      <trkpt lat="44.43149" lon="3.01591">
        <ele>676.5</ele>
        <time>2021-08-17T09:21:49Z</time>
      </trkpt>
      <trkpt lat="44.43153" lon="3.01591">
        <ele>676.9</ele>
        <time>2021-08-17T09:21:51Z</time>
      </trkpt>
      <trkpt lat="44.43157" lon="3.01592">
        <ele>677.2</ele>
        <time>2021-08-17T09:21:53Z</time>
      </trkpt>
      <trkpt lat="44.43161" lon="3.01592">
        <ele>677.5</ele>
        <time>2021-08-17T09:21:55Z</time>
      </trkpt>
      <trkpt lat="44.43165" lon="3.01593">
        <ele>677.9</ele>
        <time>2021-08-17T09:21:57Z</time>
      </trkpt>
      <trkpt lat="44.43168" lon="3.01595">
        <ele>678.2</ele>
        <time>2021-08-17T09:21:59Z</time>
      </trkpt>
      <trkpt lat="44.43172" lon="3.01596">
        <ele>678.4</ele>
        <time>2021-08-17T09:22:01Z</time>
      </trkpt>
      <trkpt lat="44.43175" lon="3.01597">
        <ele>678.6</ele>
        <time>2021-08-17T09:22:03Z</time>
      </trkpt>
      <trkpt lat="44.43179" lon="3.016">
        <ele>678.8</ele>
        <time>2021-08-17T09:22:05Z</time>
      </trkpt>
      <trkpt lat="44.43182" lon="3.01602">
        <ele>679</ele>
        <time>2021-08-17T09:22:07Z</time>
      </trkpt>
      <trkpt lat="44.43185" lon="3.01604">
        <ele>679.3</ele>
        <time>2021-08-17T09:22:09Z</time>
      </trkpt>
      <trkpt lat="44.43189" lon="3.01607">
        <ele>679.6</ele>
        <time>2021-08-17T09:22:11Z</time>
      </trkpt>
      <trkpt lat="44.43192" lon="3.01609">
        <ele>679.8</ele>
        <time>2021-08-17T09:22:13Z</time>
      </trkpt>
      <trkpt lat="44.43195" lon="3.01612">
        <ele>680.1</ele>
        <time>2021-08-17T09:22:15Z</time>
      </trkpt>
      <trkpt lat="44.43197" lon="3.01615">
        <ele>680.4</ele>
        <time>2021-08-17T09:22:17Z</time>
      </trkpt>
      <trkpt lat="44.432" lon="3.01618">
        <ele>680.7</ele>
        <time>2021-08-17T09:22:19Z</time>
      </trkpt>
      <trkpt lat="44.43203" lon="3.01622">
        <ele>681</ele>
        <time>2021-08-17T09:22:21Z</time>
      </trkpt>
      <trkpt lat="44.43205" lon="3.01626">
        <ele>681.4</ele>
        <time>2021-08-17T09:22:23Z</time>
      </trkpt>
      <trkpt lat="44.43207" lon="3.0163">
        <ele>681.7</ele>
        <time>2021-08-17T09:22:25Z</time>
      </trkpt>
      <trkpt lat="44.4321" lon="3.01634">
        <ele>682</ele>
        <time>2021-08-17T09:22:27Z</time>
      </trkpt>
      <trkpt lat="44.43212" lon="3.01638">
        <ele>682.4</ele>
        <time>2021-08-17T09:22:29Z</time>
      </trkpt>
      <trkpt lat="44.43214" lon="3.01642">
        <ele>682.7</ele>
        <time>2021-08-17T09:22:31Z</time>
      </trkpt>
      <trkpt lat="44.43217" lon="3.01647">
        <ele>683.1</ele>
        <time>2021-08-17T09:22:33Z</time>
      </trkpt>
      <trkpt lat="44.43219" lon="3.0165">
        <ele>683.3</ele>
        <time>2021-08-17T09:22:35Z</time>
      </trkpt>
      <trkpt lat="44.43221" lon="3.01654">
        <ele>683.7</ele>
        <time>2021-08-17T09:22:37Z</time>
      </trkpt>
      <trkpt lat="44.43223" lon="3.01658">
        <ele>683.9</ele>
        <time>2021-08-17T09:22:39Z</time>
      </trkpt>
      <trkpt lat="44.43226" lon="3.01662">
        <ele>684.2</ele>
        <time>2021-08-17T09:22:41Z</time>
      </trkpt>
      <trkpt lat="44.43228" lon="3.01666">
        <ele>684.5</ele>
        <time>2021-08-17T09:22:43Z</time>
      </trkpt>
      <trkpt lat="44.43231" lon="3.0167">
        <ele>684.7</ele>
        <time>2021-08-17T09:22:45Z</time>
      </trkpt>
      <trkpt lat="44.43234" lon="3.01673">
        <ele>685</ele>
        <time>2021-08-17T09:22:47Z</time>
      </trkpt>
      <trkpt lat="44.43236" lon="3.01677">
        <ele>685.3</ele>
        <time>2021-08-17T09:22:49Z</time>
      </trkpt>
      <trkpt lat="44.4324" lon="3.0168">
        <ele>685.5</ele>
        <time>2021-08-17T09:22:51Z</time>
      </trkpt>
      <trkpt lat="44.43242" lon="3.01683">
        <ele>685.7</ele>
        <time>2021-08-17T09:22:53Z</time>
      </trkpt>
      <trkpt lat="44.43245" lon="3.01684">
        <ele>685.8</ele>
        <time>2021-08-17T09:22:55Z</time>
      </trkpt>
      <trkpt lat="44.43248" lon="3.01686">
        <ele>685.9</ele>
        <time>2021-08-17T09:22:57Z</time>
      </trkpt>
      <trkpt lat="44.43252" lon="3.01688">
        <ele>686.3</ele>
        <time>2021-08-17T09:22:59Z</time>
      </trkpt>
      <trkpt lat="44.43255" lon="3.0169">
        <ele>686.9</ele>
        <time>2021-08-17T09:23:01Z</time>
      </trkpt>
      <trkpt lat="44.43259" lon="3.01692">
        <ele>687.6</ele>
        <time>2021-08-17T09:23:03Z</time>
      </trkpt>
      <trkpt lat="44.43262" lon="3.01693">
        <ele>688.1</ele>
        <time>2021-08-17T09:23:05Z</time>
      </trkpt>
      <trkpt lat="44.43266" lon="3.01694">
        <ele>688.6</ele>
        <time>2021-08-17T09:23:07Z</time>
      </trkpt>
      <trkpt lat="44.43269" lon="3.01695">
        <ele>689.2</ele>
        <time>2021-08-17T09:23:09Z</time>
      </trkpt>
      <trkpt lat="44.43273" lon="3.01695">
        <ele>689.6</ele>
        <time>2021-08-17T09:23:11Z</time>
      </trkpt>
      <trkpt lat="44.43276" lon="3.01695">
        <ele>690.1</ele>
        <time>2021-08-17T09:23:13Z</time>
      </trkpt>
      <trkpt lat="44.4328" lon="3.01695">
        <ele>690.5</ele>
        <time>2021-08-17T09:23:15Z</time>
      </trkpt>
      <trkpt lat="44.43283" lon="3.01695">
        <ele>691</ele>
        <time>2021-08-17T09:23:17Z</time>
      </trkpt>
      <trkpt lat="44.43286" lon="3.01694">
        <ele>691.3</ele>
        <time>2021-08-17T09:23:19Z</time>
      </trkpt>
      <trkpt lat="44.4329" lon="3.01693">
        <ele>691.7</ele>
        <time>2021-08-17T09:23:21Z</time>
      </trkpt>
      <trkpt lat="44.43293" lon="3.01693">
        <ele>692</ele>
        <time>2021-08-17T09:23:23Z</time>
      </trkpt>
      <trkpt lat="44.43297" lon="3.01691">
        <ele>692.4</ele>
        <time>2021-08-17T09:23:25Z</time>
      </trkpt>
      <trkpt lat="44.433" lon="3.0169">
        <ele>692.6</ele>
        <time>2021-08-17T09:23:27Z</time>
      </trkpt>
      <trkpt lat="44.43303" lon="3.01688">
        <ele>692.8</ele>
        <time>2021-08-17T09:23:29Z</time>
      </trkpt>
      <trkpt lat="44.43306" lon="3.01686">
        <ele>693.1</ele>
        <time>2021-08-17T09:23:31Z</time>
      </trkpt>
      <trkpt lat="44.43309" lon="3.01683">
        <ele>693.3</ele>
        <time>2021-08-17T09:23:33Z</time>
      </trkpt>
      <trkpt lat="44.43312" lon="3.0168">
        <ele>693.3</ele>
        <time>2021-08-17T09:23:35Z</time>
      </trkpt>
      <trkpt lat="44.43315" lon="3.01678">
        <ele>693.5</ele>
        <time>2021-08-17T09:23:37Z</time>
      </trkpt>
      <trkpt lat="44.43317" lon="3.01675">
        <ele>693.7</ele>
        <time>2021-08-17T09:23:39Z</time>
      </trkpt>
      <trkpt lat="44.4332" lon="3.01672">
        <ele>693.6</ele>
        <time>2021-08-17T09:23:41Z</time>
      </trkpt>
      <trkpt lat="44.43322" lon="3.01668">
        <ele>693.6</ele>
        <time>2021-08-17T09:23:43Z</time>
      </trkpt>
      <trkpt lat="44.43324" lon="3.01664">
        <ele>693.7</ele>
        <time>2021-08-17T09:23:45Z</time>
      </trkpt>
      <trkpt lat="44.43326" lon="3.0166">
        <ele>693.8</ele>
        <time>2021-08-17T09:23:47Z</time>
      </trkpt>
      <trkpt lat="44.43328" lon="3.01655">
        <ele>694</ele>
        <time>2021-08-17T09:23:49Z</time>
      </trkpt>
      <trkpt lat="44.4333" lon="3.01651">
        <ele>694.1</ele>
        <time>2021-08-17T09:23:51Z</time>
      </trkpt>
      <trkpt lat="44.43332" lon="3.01647">
        <ele>694.3</ele>
        <time>2021-08-17T09:23:53Z</time>
      </trkpt>
      <trkpt lat="44.43333" lon="3.01643">
        <ele>694.4</ele>
        <time>2021-08-17T09:23:55Z</time>
      </trkpt>
      <trkpt lat="44.43336" lon="3.0164">
        <ele>694.8</ele>
        <time>2021-08-17T09:23:57Z</time>
      </trkpt>
      <trkpt lat="44.43337" lon="3.01635">
        <ele>694.8</ele>
        <time>2021-08-17T09:23:59Z</time>
      </trkpt>
      <trkpt lat="44.43338" lon="3.0163">
        <ele>695</ele>
        <time>2021-08-17T09:24:01Z</time>
      </trkpt>
      <trkpt lat="44.4334" lon="3.01626">
        <ele>695.1</ele>
        <time>2021-08-17T09:24:03Z</time>
      </trkpt>
      <trkpt lat="44.43342" lon="3.01622">
        <ele>695.4</ele>
        <time>2021-08-17T09:24:05Z</time>
      </trkpt>
      <trkpt lat="44.43343" lon="3.01618">
        <ele>695.5</ele>
        <time>2021-08-17T09:24:07Z</time>
      </trkpt>
      <trkpt lat="44.43345" lon="3.01614">
        <ele>695.7</ele>
        <time>2021-08-17T09:24:09Z</time>
      </trkpt>
      <trkpt lat="44.43347" lon="3.01609">
        <ele>695.8</ele>
        <time>2021-08-17T09:24:11Z</time>
      </trkpt>
      <trkpt lat="44.43348" lon="3.01605">
        <ele>695.9</ele>
        <time>2021-08-17T09:24:13Z</time>
      </trkpt>
      <trkpt lat="44.4335" lon="3.016">
        <ele>696.1</ele>
        <time>2021-08-17T09:24:15Z</time>
      </trkpt>
      <trkpt lat="44.43352" lon="3.01596">
        <ele>696.2</ele>
        <time>2021-08-17T09:24:17Z</time>
      </trkpt>
      <trkpt lat="44.43353" lon="3.01591">
        <ele>696.3</ele>
        <time>2021-08-17T09:24:19Z</time>
      </trkpt>
      <trkpt lat="44.43355" lon="3.01587">
        <ele>696.5</ele>
        <time>2021-08-17T09:24:21Z</time>
      </trkpt>
      <trkpt lat="44.43356" lon="3.01582">
        <ele>696.6</ele>
        <time>2021-08-17T09:24:23Z</time>
      </trkpt>
      <trkpt lat="44.43358" lon="3.01578">
        <ele>696.7</ele>
        <time>2021-08-17T09:24:25Z</time>
      </trkpt>
      <trkpt lat="44.4336" lon="3.01573">
        <ele>696.8</ele>
        <time>2021-08-17T09:24:27Z</time>
      </trkpt>
      <trkpt lat="44.43362" lon="3.01568">
        <ele>696.9</ele>
        <time>2021-08-17T09:24:29Z</time>
      </trkpt>
      <trkpt lat="44.43363" lon="3.01563">
        <ele>697</ele>
        <time>2021-08-17T09:24:31Z</time>
      </trkpt>
      <trkpt lat="44.43365" lon="3.01559">
        <ele>697.2</ele>
        <time>2021-08-17T09:24:33Z</time>
      </trkpt>
      <trkpt lat="44.43368" lon="3.01554">
        <ele>697.4</ele>
        <time>2021-08-17T09:24:35Z</time>
      </trkpt>
      <trkpt lat="44.4337" lon="3.01549">
        <ele>697.5</ele>
        <time>2021-08-17T09:24:37Z</time>
      </trkpt>
      <trkpt lat="44.43373" lon="3.01545">
        <ele>697.8</ele>
        <time>2021-08-17T09:24:39Z</time>
      </trkpt>
      <trkpt lat="44.43376" lon="3.01541">
        <ele>698.1</ele>
        <time>2021-08-17T09:24:41Z</time>
      </trkpt>
      <trkpt lat="44.43379" lon="3.01539">
        <ele>698.5</ele>
        <time>2021-08-17T09:24:43Z</time>
      </trkpt>
      <trkpt lat="44.43382" lon="3.01536">
        <ele>698.8</ele>
        <time>2021-08-17T09:24:45Z</time>
      </trkpt>
      <trkpt lat="44.43386" lon="3.01533">
        <ele>699.2</ele>
        <time>2021-08-17T09:24:47Z</time>
      </trkpt>
      <trkpt lat="44.43389" lon="3.01531">
        <ele>699.6</ele>
        <time>2021-08-17T09:24:49Z</time>
      </trkpt>
      <trkpt lat="44.43393" lon="3.01528">
        <ele>700.1</ele>
        <time>2021-08-17T09:24:51Z</time>
      </trkpt>
      <trkpt lat="44.43396" lon="3.01525">
        <ele>700.4</ele>
        <time>2021-08-17T09:24:53Z</time>
      </trkpt>
      <trkpt lat="44.434" lon="3.01522">
        <ele>700.7</ele>
        <time>2021-08-17T09:24:55Z</time>
      </trkpt>
      <trkpt lat="44.43404" lon="3.0152">
        <ele>701.2</ele>
        <time>2021-08-17T09:24:57Z</time>
      </trkpt>
      <trkpt lat="44.43407" lon="3.01518">
        <ele>701.6</ele>
        <time>2021-08-17T09:24:59Z</time>
      </trkpt>
      <trkpt lat="44.43411" lon="3.01515">
        <ele>702</ele>
        <time>2021-08-17T09:25:01Z</time>
      </trkpt>
      <trkpt lat="44.43414" lon="3.01512">
        <ele>702.3</ele>
        <time>2021-08-17T09:25:03Z</time>
      </trkpt>
      <trkpt lat="44.43418" lon="3.01509">
        <ele>702.5</ele>
        <time>2021-08-17T09:25:05Z</time>
      </trkpt>
      <trkpt lat="44.43421" lon="3.01507">
        <ele>702.4</ele>
        <time>2021-08-17T09:25:07Z</time>
      </trkpt>
      <trkpt lat="44.43425" lon="3.01504">
        <ele>702.4</ele>
        <time>2021-08-17T09:25:09Z</time>
      </trkpt>
      <trkpt lat="44.43428" lon="3.015">
        <ele>702.3</ele>
        <time>2021-08-17T09:25:11Z</time>
      </trkpt>
      <trkpt lat="44.43431" lon="3.01498">
        <ele>702.2</ele>
        <time>2021-08-17T09:25:13Z</time>
      </trkpt>
      <trkpt lat="44.43434" lon="3.01495">
        <ele>702.2</ele>
        <time>2021-08-17T09:25:15Z</time>
      </trkpt>
      <trkpt lat="44.43438" lon="3.01492">
        <ele>702.1</ele>
        <time>2021-08-17T09:25:17Z</time>
      </trkpt>
      <trkpt lat="44.43441" lon="3.01488">
        <ele>702.1</ele>
        <time>2021-08-17T09:25:19Z</time>
      </trkpt>
      <trkpt lat="44.43445" lon="3.01484">
        <ele>702</ele>
        <time>2021-08-17T09:25:21Z</time>
      </trkpt>
      <trkpt lat="44.43448" lon="3.0148">
        <ele>702</ele>
        <time>2021-08-17T09:25:23Z</time>
      </trkpt>
      <trkpt lat="44.43452" lon="3.01476">
        <ele>702</ele>
        <time>2021-08-17T09:25:25Z</time>
      </trkpt>
      <trkpt lat="44.43455" lon="3.01472">
        <ele>702</ele>
        <time>2021-08-17T09:25:27Z</time>
      </trkpt>
      <trkpt lat="44.43458" lon="3.01468">
        <ele>702</ele>
        <time>2021-08-17T09:25:29Z</time>
      </trkpt>
      <trkpt lat="44.43461" lon="3.01464">
        <ele>702.1</ele>
        <time>2021-08-17T09:25:31Z</time>
      </trkpt>
      <trkpt lat="44.43464" lon="3.01459">
        <ele>702.1</ele>
        <time>2021-08-17T09:25:33Z</time>
      </trkpt>
      <trkpt lat="44.43468" lon="3.01456">
        <ele>702.2</ele>
        <time>2021-08-17T09:25:35Z</time>
      </trkpt>
      <trkpt lat="44.43471" lon="3.01453">
        <ele>702.3</ele>
        <time>2021-08-17T09:25:37Z</time>
      </trkpt>
      <trkpt lat="44.43475" lon="3.01452">
        <ele>702.5</ele>
        <time>2021-08-17T09:25:39Z</time>
      </trkpt>
      <trkpt lat="44.43476" lon="3.01453">
        <ele>702.6</ele>
        <time>2021-08-17T09:25:41Z</time>
      </trkpt>
      <trkpt lat="44.43475" lon="3.01452">
        <ele>702.6</ele>
        <time>2021-08-17T09:25:43Z</time>
      </trkpt>
      <trkpt lat="44.43475" lon="3.01452">
        <ele>702.6</ele>
        <time>2021-08-17T09:25:45Z</time>
      </trkpt>
      <trkpt lat="44.43475" lon="3.01452">
        <ele>702.5</ele>
        <time>2021-08-17T09:25:47Z</time>
      </trkpt>
      <trkpt lat="44.43475" lon="3.01452">
        <ele>702.5</ele>
        <time>2021-08-17T09:25:49Z</time>
      </trkpt>
      <trkpt lat="44.43479" lon="3.01434">
        <ele>702.5</ele>
        <time>2021-08-17T09:27:03Z</time>
      </trkpt>
      <trkpt lat="44.43482" lon="3.01429">
        <ele>702.6</ele>
        <time>2021-08-17T09:27:05Z</time>
      </trkpt>
      <trkpt lat="44.43485" lon="3.01425">
        <ele>702.8</ele>
        <time>2021-08-17T09:27:07Z</time>
      </trkpt>
      <trkpt lat="44.43488" lon="3.0142">
        <ele>703</ele>
        <time>2021-08-17T09:27:09Z</time>
      </trkpt>
      <trkpt lat="44.4349" lon="3.01414">
        <ele>703.3</ele>
        <time>2021-08-17T09:27:11Z</time>
      </trkpt>
      <trkpt lat="44.43493" lon="3.0141">
        <ele>703.6</ele>
        <time>2021-08-17T09:27:13Z</time>
      </trkpt>
      <trkpt lat="44.43496" lon="3.01404">
        <ele>704</ele>
        <time>2021-08-17T09:27:15Z</time>
      </trkpt>
      <trkpt lat="44.43497" lon="3.01399">
        <ele>704.4</ele>
        <time>2021-08-17T09:27:17Z</time>
      </trkpt>
      <trkpt lat="44.435" lon="3.01395">
        <ele>704.8</ele>
        <time>2021-08-17T09:27:19Z</time>
      </trkpt>
      <trkpt lat="44.43502" lon="3.01391">
        <ele>704.3</ele>
        <time>2021-08-17T09:27:21Z</time>
      </trkpt>
      <trkpt lat="44.43503" lon="3.01386">
        <ele>704</ele>
        <time>2021-08-17T09:27:23Z</time>
      </trkpt>
      <trkpt lat="44.43504" lon="3.01381">
        <ele>704.1</ele>
        <time>2021-08-17T09:27:25Z</time>
      </trkpt>
      <trkpt lat="44.43504" lon="3.01376">
        <ele>704.1</ele>
        <time>2021-08-17T09:27:27Z</time>
      </trkpt>
      <trkpt lat="44.43504" lon="3.01371">
        <ele>704.4</ele>
        <time>2021-08-17T09:27:29Z</time>
      </trkpt>
      <trkpt lat="44.43505" lon="3.01367">
        <ele>704.2</ele>
        <time>2021-08-17T09:27:31Z</time>
      </trkpt>
      <trkpt lat="44.43507" lon="3.01364">
        <ele>703.8</ele>
        <time>2021-08-17T09:27:33Z</time>
      </trkpt>
      <trkpt lat="44.43507" lon="3.01359">
        <ele>704</ele>
        <time>2021-08-17T09:27:35Z</time>
      </trkpt>
      <trkpt lat="44.43506" lon="3.01354">
        <ele>704.5</ele>
        <time>2021-08-17T09:27:37Z</time>
      </trkpt>
      <trkpt lat="44.43504" lon="3.01352">
        <ele>705.1</ele>
        <time>2021-08-17T09:27:39Z</time>
      </trkpt>
      <trkpt lat="44.43504" lon="3.01352">
        <ele>705.2</ele>
        <time>2021-08-17T09:27:41Z</time>
      </trkpt>
      <trkpt lat="44.43504" lon="3.01353">
        <ele>705.1</ele>
        <time>2021-08-17T09:27:43Z</time>
      </trkpt>
      <trkpt lat="44.43504" lon="3.01353">
        <ele>705.1</ele>
        <time>2021-08-17T09:27:45Z</time>
      </trkpt>
      <trkpt lat="44.43504" lon="3.01353">
        <ele>705.1</ele>
        <time>2021-08-17T09:27:47Z</time>
      </trkpt>
      <trkpt lat="44.43521" lon="3.01352">
        <ele>700.1</ele>
        <time>2021-08-17T09:29:45Z</time>
      </trkpt>
      <trkpt lat="44.43524" lon="3.01346">
        <ele>699.7</ele>
        <time>2021-08-17T09:29:47Z</time>
      </trkpt>
      <trkpt lat="44.43526" lon="3.01342">
        <ele>699.4</ele>
        <time>2021-08-17T09:29:49Z</time>
      </trkpt>
      <trkpt lat="44.43528" lon="3.01336">
        <ele>699.2</ele>
        <time>2021-08-17T09:29:51Z</time>
      </trkpt>
      <trkpt lat="44.4353" lon="3.01329">
        <ele>698.7</ele>
        <time>2021-08-17T09:29:53Z</time>
      </trkpt>
      <trkpt lat="44.43533" lon="3.01321">
        <ele>698.2</ele>
        <time>2021-08-17T09:29:55Z</time>
      </trkpt>
      <trkpt lat="44.43536" lon="3.01311">
        <ele>697.8</ele>
        <time>2021-08-17T09:29:57Z</time>
      </trkpt>
      <trkpt lat="44.43538" lon="3.01301">
        <ele>697.7</ele>
        <time>2021-08-17T09:29:59Z</time>
      </trkpt>
      <trkpt lat="44.4354" lon="3.0129">
        <ele>697.6</ele>
        <time>2021-08-17T09:30:01Z</time>
      </trkpt>
      <trkpt lat="44.4354" lon="3.01278">
        <ele>697.8</ele>
        <time>2021-08-17T09:30:03Z</time>
      </trkpt>
      <trkpt lat="44.43541" lon="3.01265">
        <ele>698</ele>
        <time>2021-08-17T09:30:05Z</time>
      </trkpt>
      <trkpt lat="44.43543" lon="3.01252">
        <ele>698.2</ele>
        <time>2021-08-17T09:30:07Z</time>
      </trkpt>
      <trkpt lat="44.43543" lon="3.0124">
        <ele>698.4</ele>
        <time>2021-08-17T09:30:09Z</time>
      </trkpt>
      <trkpt lat="44.43543" lon="3.01227">
        <ele>698.6</ele>
        <time>2021-08-17T09:30:11Z</time>
      </trkpt>
      <trkpt lat="44.43546" lon="3.01213">
        <ele>698.5</ele>
        <time>2021-08-17T09:30:13Z</time>
      </trkpt>
      <trkpt lat="44.43548" lon="3.01199">
        <ele>698.6</ele>
        <time>2021-08-17T09:30:15Z</time>
      </trkpt>
      <trkpt lat="44.43553" lon="3.01185">
        <ele>698.3</ele>
        <time>2021-08-17T09:30:17Z</time>
      </trkpt>
      <trkpt lat="44.43558" lon="3.01172">
        <ele>698.2</ele>
        <time>2021-08-17T09:30:19Z</time>
      </trkpt>
      <trkpt lat="44.43564" lon="3.0116">
        <ele>698.6</ele>
        <time>2021-08-17T09:30:21Z</time>
      </trkpt>
      <trkpt lat="44.43571" lon="3.01147">
        <ele>699.4</ele>
        <time>2021-08-17T09:30:23Z</time>
      </trkpt>
      <trkpt lat="44.43576" lon="3.01135">
        <ele>700.5</ele>
        <time>2021-08-17T09:30:25Z</time>
      </trkpt>
      <trkpt lat="44.43582" lon="3.01122">
        <ele>702</ele>
        <time>2021-08-17T09:30:27Z</time>
      </trkpt>
      <trkpt lat="44.43588" lon="3.01109">
        <ele>702.2</ele>
        <time>2021-08-17T09:30:29Z</time>
      </trkpt>
      <trkpt lat="44.43592" lon="3.01095">
        <ele>702.6</ele>
        <time>2021-08-17T09:30:31Z</time>
      </trkpt>
      <trkpt lat="44.43597" lon="3.01081">
        <ele>702.8</ele>
        <time>2021-08-17T09:30:33Z</time>
      </trkpt>
      <trkpt lat="44.43602" lon="3.01066">
        <ele>702.9</ele>
        <time>2021-08-17T09:30:35Z</time>
      </trkpt>
      <trkpt lat="44.43607" lon="3.01052">
        <ele>703</ele>
        <time>2021-08-17T09:30:37Z</time>
      </trkpt>
      <trkpt lat="44.43613" lon="3.01037">
        <ele>703.1</ele>
        <time>2021-08-17T09:30:39Z</time>
      </trkpt>
      <trkpt lat="44.43619" lon="3.01024">
        <ele>703.1</ele>
        <time>2021-08-17T09:30:41Z</time>
      </trkpt>
      <trkpt lat="44.43625" lon="3.01011">
        <ele>703</ele>
        <time>2021-08-17T09:30:43Z</time>
      </trkpt>
      <trkpt lat="44.43633" lon="3.00999">
        <ele>702.8</ele>
        <time>2021-08-17T09:30:45Z</time>
      </trkpt>
      <trkpt lat="44.43639" lon="3.00986">
        <ele>703.2</ele>
        <time>2021-08-17T09:30:47Z</time>
      </trkpt>
      <trkpt lat="44.43646" lon="3.00974">
        <ele>703.9</ele>
        <time>2021-08-17T09:30:49Z</time>
      </trkpt>
      <trkpt lat="44.43653" lon="3.0096">
        <ele>705.2</ele>
        <time>2021-08-17T09:30:51Z</time>
      </trkpt>
      <trkpt lat="44.4366" lon="3.00947">
        <ele>706.6</ele>
        <time>2021-08-17T09:30:53Z</time>
      </trkpt>
      <trkpt lat="44.43666" lon="3.00934">
        <ele>708.3</ele>
        <time>2021-08-17T09:30:55Z</time>
      </trkpt>
      <trkpt lat="44.43673" lon="3.00922">
        <ele>708.8</ele>
        <time>2021-08-17T09:30:57Z</time>
      </trkpt>
      <trkpt lat="44.43681" lon="3.0091">
        <ele>708.5</ele>
        <time>2021-08-17T09:30:59Z</time>
      </trkpt>
      <trkpt lat="44.4369" lon="3.00899">
        <ele>708.1</ele>
        <time>2021-08-17T09:31:01Z</time>
      </trkpt>
      <trkpt lat="44.43699" lon="3.00888">
        <ele>707.5</ele>
        <time>2021-08-17T09:31:03Z</time>
      </trkpt>
      <trkpt lat="44.43708" lon="3.00877">
        <ele>707</ele>
        <time>2021-08-17T09:31:05Z</time>
      </trkpt>
      <trkpt lat="44.43716" lon="3.00867">
        <ele>706.7</ele>
        <time>2021-08-17T09:31:07Z</time>
      </trkpt>
      <trkpt lat="44.43725" lon="3.00857">
        <ele>706.4</ele>
        <time>2021-08-17T09:31:09Z</time>
      </trkpt>
      <trkpt lat="44.43735" lon="3.00846">
        <ele>706.1</ele>
        <time>2021-08-17T09:31:11Z</time>
      </trkpt>
      <trkpt lat="44.43743" lon="3.00836">
        <ele>706.2</ele>
        <time>2021-08-17T09:31:13Z</time>
      </trkpt>
      <trkpt lat="44.43752" lon="3.00825">
        <ele>706.3</ele>
        <time>2021-08-17T09:31:15Z</time>
      </trkpt>
      <trkpt lat="44.4376" lon="3.00814">
        <ele>706.6</ele>
        <time>2021-08-17T09:31:17Z</time>
      </trkpt>
      <trkpt lat="44.43769" lon="3.00803">
        <ele>706.8</ele>
        <time>2021-08-17T09:31:19Z</time>
      </trkpt>
      <trkpt lat="44.43776" lon="3.00792">
        <ele>707.1</ele>
        <time>2021-08-17T09:31:21Z</time>
      </trkpt>
      <trkpt lat="44.43784" lon="3.0078">
        <ele>707.3</ele>
        <time>2021-08-17T09:31:23Z</time>
      </trkpt>
      <trkpt lat="44.4379" lon="3.00767">
        <ele>708.1</ele>
        <time>2021-08-17T09:31:25Z</time>
      </trkpt>
      <trkpt lat="44.43797" lon="3.00755">
        <ele>707.9</ele>
        <time>2021-08-17T09:31:27Z</time>
      </trkpt>
      <trkpt lat="44.43806" lon="3.00745">
        <ele>707.4</ele>
        <time>2021-08-17T09:31:29Z</time>
      </trkpt>
      <trkpt lat="44.43816" lon="3.00737">
        <ele>706.7</ele>
        <time>2021-08-17T09:31:31Z</time>
      </trkpt>
      <trkpt lat="44.43825" lon="3.00729">
        <ele>705.8</ele>
        <time>2021-08-17T09:31:33Z</time>
      </trkpt>
      <trkpt lat="44.43836" lon="3.00721">
        <ele>705.3</ele>
        <time>2021-08-17T09:31:35Z</time>
      </trkpt>
      <trkpt lat="44.43847" lon="3.00715">
        <ele>704.8</ele>
        <time>2021-08-17T09:31:37Z</time>
      </trkpt>
      <trkpt lat="44.43857" lon="3.0071">
        <ele>704.1</ele>
        <time>2021-08-17T09:31:39Z</time>
      </trkpt>
      <trkpt lat="44.43868" lon="3.00706">
        <ele>703</ele>
        <time>2021-08-17T09:31:41Z</time>
      </trkpt>
      <trkpt lat="44.43877" lon="3.00702">
        <ele>702.2</ele>
        <time>2021-08-17T09:31:43Z</time>
      </trkpt>
      <trkpt lat="44.43886" lon="3.00698">
        <ele>701.3</ele>
        <time>2021-08-17T09:31:45Z</time>
      </trkpt>
      <trkpt lat="44.43894" lon="3.00694">
        <ele>700.3</ele>
        <time>2021-08-17T09:31:47Z</time>
      </trkpt>
      <trkpt lat="44.43902" lon="3.00691">
        <ele>699.3</ele>
        <time>2021-08-17T09:31:49Z</time>
      </trkpt>
      <trkpt lat="44.43908" lon="3.00687">
        <ele>698.7</ele>
        <time>2021-08-17T09:31:51Z</time>
      </trkpt>
      <trkpt lat="44.43913" lon="3.00683">
        <ele>698.3</ele>
        <time>2021-08-17T09:31:53Z</time>
      </trkpt>
      <trkpt lat="44.43917" lon="3.00682">
        <ele>697.7</ele>
        <time>2021-08-17T09:31:55Z</time>
      </trkpt>
      <trkpt lat="44.43919" lon="3.0068">
        <ele>697.8</ele>
        <time>2021-08-17T09:31:57Z</time>
      </trkpt>
      <trkpt lat="44.43918" lon="3.00679">
        <ele>697.8</ele>
        <time>2021-08-17T09:31:59Z</time>
      </trkpt>
      <trkpt lat="44.43918" lon="3.0068">
        <ele>697.8</ele>
        <time>2021-08-17T09:32:01Z</time>
      </trkpt>
      <trkpt lat="44.43918" lon="3.0068">
        <ele>697.8</ele>
        <time>2021-08-17T09:32:03Z</time>
      </trkpt>
      <trkpt lat="44.43918" lon="3.0068">
        <ele>697.8</ele>
        <time>2021-08-17T09:32:05Z</time>
      </trkpt>
      <trkpt lat="44.43926" lon="3.00665">
        <ele>699</ele>
        <time>2021-08-17T10:05:39Z</time>
      </trkpt>
      <trkpt lat="44.43928" lon="3.00659">
        <ele>699.3</ele>
        <time>2021-08-17T10:05:41Z</time>
      </trkpt>
      <trkpt lat="44.43929" lon="3.00653">
        <ele>699.5</ele>
        <time>2021-08-17T10:05:43Z</time>
      </trkpt>
      <trkpt lat="44.4393" lon="3.00647">
        <ele>699.9</ele>
        <time>2021-08-17T10:05:45Z</time>
      </trkpt>
      <trkpt lat="44.4393" lon="3.0064">
        <ele>700.4</ele>
        <time>2021-08-17T10:05:47Z</time>
      </trkpt>
      <trkpt lat="44.43929" lon="3.00632">
        <ele>701.1</ele>
        <time>2021-08-17T10:05:49Z</time>
      </trkpt>
      <trkpt lat="44.43929" lon="3.00623">
        <ele>701.8</ele>
        <time>2021-08-17T10:05:51Z</time>
      </trkpt>
      <trkpt lat="44.4393" lon="3.00613">
        <ele>702.4</ele>
        <time>2021-08-17T10:05:53Z</time>
      </trkpt>
      <trkpt lat="44.43931" lon="3.00603">
        <ele>703</ele>
        <time>2021-08-17T10:05:55Z</time>
      </trkpt>
      <trkpt lat="44.43932" lon="3.00592">
        <ele>703.7</ele>
        <time>2021-08-17T10:05:57Z</time>
      </trkpt>
      <trkpt lat="44.43932" lon="3.0058">
        <ele>704.4</ele>
        <time>2021-08-17T10:05:59Z</time>
      </trkpt>
      <trkpt lat="44.43934" lon="3.00568">
        <ele>704.7</ele>
        <time>2021-08-17T10:06:01Z</time>
      </trkpt>
      <trkpt lat="44.43936" lon="3.00557">
        <ele>704.9</ele>
        <time>2021-08-17T10:06:03Z</time>
      </trkpt>
      <trkpt lat="44.43938" lon="3.00545">
        <ele>705.2</ele>
        <time>2021-08-17T10:06:05Z</time>
      </trkpt>
      <trkpt lat="44.4394" lon="3.00533">
        <ele>705.3</ele>
        <time>2021-08-17T10:06:07Z</time>
      </trkpt>
      <trkpt lat="44.43942" lon="3.00521">
        <ele>705.4</ele>
        <time>2021-08-17T10:06:09Z</time>
      </trkpt>
      <trkpt lat="44.43945" lon="3.00509">
        <ele>705.4</ele>
        <time>2021-08-17T10:06:11Z</time>
      </trkpt>
      <trkpt lat="44.43948" lon="3.00498">
        <ele>705.2</ele>
        <time>2021-08-17T10:06:13Z</time>
      </trkpt>
      <trkpt lat="44.43951" lon="3.00486">
        <ele>704.2</ele>
        <time>2021-08-17T10:06:15Z</time>
      </trkpt>
      <trkpt lat="44.43954" lon="3.00475">
        <ele>703.2</ele>
        <time>2021-08-17T10:06:17Z</time>
      </trkpt>
      <trkpt lat="44.4396" lon="3.00464">
        <ele>701.8</ele>
        <time>2021-08-17T10:06:19Z</time>
      </trkpt>
      <trkpt lat="44.43968" lon="3.00456">
        <ele>699.9</ele>
        <time>2021-08-17T10:06:21Z</time>
      </trkpt>
      <trkpt lat="44.43978" lon="3.00451">
        <ele>697.9</ele>
        <time>2021-08-17T10:06:23Z</time>
      </trkpt>
      <trkpt lat="44.43988" lon="3.00448">
        <ele>695.8</ele>
        <time>2021-08-17T10:06:25Z</time>
      </trkpt>
      <trkpt lat="44.43998" lon="3.00447">
        <ele>693.7</ele>
        <time>2021-08-17T10:06:27Z</time>
      </trkpt>
      <trkpt lat="44.44008" lon="3.00447">
        <ele>693.6</ele>
        <time>2021-08-17T10:06:29Z</time>
      </trkpt>
      <trkpt lat="44.44019" lon="3.00448">
        <ele>693.8</ele>
        <time>2021-08-17T10:06:31Z</time>
      </trkpt>
      <trkpt lat="44.44029" lon="3.00451">
        <ele>694</ele>
        <time>2021-08-17T10:06:33Z</time>
      </trkpt>
      <trkpt lat="44.4404" lon="3.00455">
        <ele>694.2</ele>
        <time>2021-08-17T10:06:35Z</time>
      </trkpt>
      <trkpt lat="44.44049" lon="3.00459">
        <ele>694.4</ele>
        <time>2021-08-17T10:06:37Z</time>
      </trkpt>
      <trkpt lat="44.44058" lon="3.00465">
        <ele>694.5</ele>
        <time>2021-08-17T10:06:39Z</time>
      </trkpt>
      <trkpt lat="44.44068" lon="3.00471">
        <ele>694.5</ele>
        <time>2021-08-17T10:06:41Z</time>
      </trkpt>
      <trkpt lat="44.44077" lon="3.00478">
        <ele>694.5</ele>
        <time>2021-08-17T10:06:43Z</time>
      </trkpt>
      <trkpt lat="44.44085" lon="3.00487">
        <ele>694.4</ele>
        <time>2021-08-17T10:06:45Z</time>
      </trkpt>
      <trkpt lat="44.44093" lon="3.005">
        <ele>694.4</ele>
        <time>2021-08-17T10:06:47Z</time>
      </trkpt>
      <trkpt lat="44.44099" lon="3.00512">
        <ele>693.1</ele>
        <time>2021-08-17T10:06:49Z</time>
      </trkpt>
      <trkpt lat="44.44106" lon="3.00526">
        <ele>691.8</ele>
        <time>2021-08-17T10:06:51Z</time>
      </trkpt>
      <trkpt lat="44.44114" lon="3.00537">
        <ele>690.7</ele>
        <time>2021-08-17T10:06:53Z</time>
      </trkpt>
      <trkpt lat="44.44124" lon="3.00546">
        <ele>689.7</ele>
        <time>2021-08-17T10:06:55Z</time>
      </trkpt>
      <trkpt lat="44.44136" lon="3.00548">
        <ele>689.6</ele>
        <time>2021-08-17T10:06:57Z</time>
      </trkpt>
      <trkpt lat="44.44149" lon="3.00549">
        <ele>689.7</ele>
        <time>2021-08-17T10:06:59Z</time>
      </trkpt>
      <trkpt lat="44.44162" lon="3.00547">
        <ele>690.2</ele>
        <time>2021-08-17T10:07:01Z</time>
      </trkpt>
      <trkpt lat="44.44174" lon="3.00543">
        <ele>689.8</ele>
        <time>2021-08-17T10:07:03Z</time>
      </trkpt>
      <trkpt lat="44.44186" lon="3.00537">
        <ele>689</ele>
        <time>2021-08-17T10:07:05Z</time>
      </trkpt>
      <trkpt lat="44.44198" lon="3.00527">
        <ele>688.7</ele>
        <time>2021-08-17T10:07:07Z</time>
      </trkpt>
      <trkpt lat="44.44208" lon="3.00515">
        <ele>688.9</ele>
        <time>2021-08-17T10:07:09Z</time>
      </trkpt>
      <trkpt lat="44.44216" lon="3.005">
        <ele>689.9</ele>
        <time>2021-08-17T10:07:11Z</time>
      </trkpt>
      <trkpt lat="44.44219" lon="3.00481">
        <ele>690.6</ele>
        <time>2021-08-17T10:07:13Z</time>
      </trkpt>
      <trkpt lat="44.44221" lon="3.00461">
        <ele>691.5</ele>
        <time>2021-08-17T10:07:15Z</time>
      </trkpt>
      <trkpt lat="44.44227" lon="3.00444">
        <ele>691.6</ele>
        <time>2021-08-17T10:07:17Z</time>
      </trkpt>
      <trkpt lat="44.44239" lon="3.00436">
        <ele>690.4</ele>
        <time>2021-08-17T10:07:19Z</time>
      </trkpt>
      <trkpt lat="44.44252" lon="3.00434">
        <ele>688.6</ele>
        <time>2021-08-17T10:07:21Z</time>
      </trkpt>
      <trkpt lat="44.44264" lon="3.00431">
        <ele>687.4</ele>
        <time>2021-08-17T10:07:23Z</time>
      </trkpt>
      <trkpt lat="44.44277" lon="3.00425">
        <ele>686.4</ele>
        <time>2021-08-17T10:07:25Z</time>
      </trkpt>
      <trkpt lat="44.44288" lon="3.00417">
        <ele>685.8</ele>
        <time>2021-08-17T10:07:27Z</time>
      </trkpt>
      <trkpt lat="44.443" lon="3.00409">
        <ele>684.4</ele>
        <time>2021-08-17T10:07:29Z</time>
      </trkpt>
      <trkpt lat="44.44311" lon="3.004">
        <ele>683</ele>
        <time>2021-08-17T10:07:31Z</time>
      </trkpt>
      <trkpt lat="44.44322" lon="3.00392">
        <ele>681.6</ele>
        <time>2021-08-17T10:07:33Z</time>
      </trkpt>
      <trkpt lat="44.44334" lon="3.00384">
        <ele>680.2</ele>
        <time>2021-08-17T10:07:35Z</time>
      </trkpt>
      <trkpt lat="44.44345" lon="3.00375">
        <ele>679.4</ele>
        <time>2021-08-17T10:07:37Z</time>
      </trkpt>
      <trkpt lat="44.44356" lon="3.00366">
        <ele>678.7</ele>
        <time>2021-08-17T10:07:39Z</time>
      </trkpt>
      <trkpt lat="44.44368" lon="3.00356">
        <ele>678.3</ele>
        <time>2021-08-17T10:07:41Z</time>
      </trkpt>
      <trkpt lat="44.4438" lon="3.00348">
        <ele>678.1</ele>
        <time>2021-08-17T10:07:43Z</time>
      </trkpt>
      <trkpt lat="44.44392" lon="3.00339">
        <ele>678.1</ele>
        <time>2021-08-17T10:07:45Z</time>
      </trkpt>
      <trkpt lat="44.44404" lon="3.0033">
        <ele>678</ele>
        <time>2021-08-17T10:07:47Z</time>
      </trkpt>
      <trkpt lat="44.44415" lon="3.00323">
        <ele>677.8</ele>
        <time>2021-08-17T10:07:49Z</time>
      </trkpt>
      <trkpt lat="44.44427" lon="3.00317">
        <ele>676.7</ele>
        <time>2021-08-17T10:07:51Z</time>
      </trkpt>
      <trkpt lat="44.44438" lon="3.00311">
        <ele>675.7</ele>
        <time>2021-08-17T10:07:53Z</time>
      </trkpt>
      <trkpt lat="44.4445" lon="3.00304">
        <ele>674.8</ele>
        <time>2021-08-17T10:07:55Z</time>
      </trkpt>
      <trkpt lat="44.44462" lon="3.00298">
        <ele>674.1</ele>
        <time>2021-08-17T10:07:57Z</time>
      </trkpt>
      <trkpt lat="44.44474" lon="3.0029">
        <ele>673.6</ele>
        <time>2021-08-17T10:07:59Z</time>
      </trkpt>
      <trkpt lat="44.44485" lon="3.00282">
        <ele>673.4</ele>
        <time>2021-08-17T10:08:01Z</time>
      </trkpt>
      <trkpt lat="44.44497" lon="3.00274">
        <ele>673.4</ele>
        <time>2021-08-17T10:08:03Z</time>
      </trkpt>
      <trkpt lat="44.44507" lon="3.00264">
        <ele>673.8</ele>
        <time>2021-08-17T10:08:05Z</time>
      </trkpt>
      <trkpt lat="44.44517" lon="3.00253">
        <ele>674.5</ele>
        <time>2021-08-17T10:08:07Z</time>
      </trkpt>
      <trkpt lat="44.44524" lon="3.00239">
        <ele>674.3</ele>
        <time>2021-08-17T10:08:09Z</time>
      </trkpt>
      <trkpt lat="44.44529" lon="3.00221">
        <ele>673.9</ele>
        <time>2021-08-17T10:08:11Z</time>
      </trkpt>
      <trkpt lat="44.44533" lon="3.00203">
        <ele>673.7</ele>
        <time>2021-08-17T10:08:13Z</time>
      </trkpt>
      <trkpt lat="44.44537" lon="3.00184">
        <ele>673.6</ele>
        <time>2021-08-17T10:08:15Z</time>
      </trkpt>
      <trkpt lat="44.4454" lon="3.00163">
        <ele>673.7</ele>
        <time>2021-08-17T10:08:17Z</time>
      </trkpt>
      <trkpt lat="44.44544" lon="3.00143">
        <ele>673.6</ele>
        <time>2021-08-17T10:08:19Z</time>
      </trkpt>
      <trkpt lat="44.44547" lon="3.00123">
        <ele>673.6</ele>
        <time>2021-08-17T10:08:21Z</time>
      </trkpt>
      <trkpt lat="44.44551" lon="3.00102">
        <ele>673.7</ele>
        <time>2021-08-17T10:08:23Z</time>
      </trkpt>
      <trkpt lat="44.44552" lon="3.00083">
        <ele>673.7</ele>
        <time>2021-08-17T10:08:25Z</time>
      </trkpt>
      <trkpt lat="44.44552" lon="3.00062">
        <ele>673.4</ele>
        <time>2021-08-17T10:08:27Z</time>
      </trkpt>
      <trkpt lat="44.44547" lon="3.0004">
        <ele>672.3</ele>
        <time>2021-08-17T10:08:29Z</time>
      </trkpt>
      <trkpt lat="44.44539" lon="3.0002">
        <ele>670.6</ele>
        <time>2021-08-17T10:08:31Z</time>
      </trkpt>
      <trkpt lat="44.4453" lon="3">
        <ele>668.5</ele>
        <time>2021-08-17T10:08:33Z</time>
      </trkpt>
      <trkpt lat="44.44521" lon="2.99979">
        <ele>667.2</ele>
        <time>2021-08-17T10:08:35Z</time>
      </trkpt>
      <trkpt lat="44.44514" lon="2.99957">
        <ele>666.2</ele>
        <time>2021-08-17T10:08:37Z</time>
      </trkpt>
      <trkpt lat="44.44508" lon="2.99933">
        <ele>665.5</ele>
        <time>2021-08-17T10:08:39Z</time>
      </trkpt>
      <trkpt lat="44.44502" lon="2.99909">
        <ele>664.3</ele>
        <time>2021-08-17T10:08:41Z</time>
      </trkpt>
      <trkpt lat="44.44497" lon="2.99885">
        <ele>662.2</ele>
        <time>2021-08-17T10:08:43Z</time>
      </trkpt>
      <trkpt lat="44.44492" lon="2.99863">
        <ele>660</ele>
        <time>2021-08-17T10:08:45Z</time>
      </trkpt>
      <trkpt lat="44.44486" lon="2.99839">
        <ele>657.3</ele>
        <time>2021-08-17T10:08:47Z</time>
      </trkpt>
      <trkpt lat="44.44481" lon="2.99821">
        <ele>655.5</ele>
        <time>2021-08-17T10:08:49Z</time>
      </trkpt>
      <trkpt lat="44.44477" lon="2.99804">
        <ele>653.9</ele>
        <time>2021-08-17T10:08:51Z</time>
      </trkpt>
      <trkpt lat="44.44472" lon="2.99783">
        <ele>652.2</ele>
        <time>2021-08-17T10:08:53Z</time>
      </trkpt>
      <trkpt lat="44.44477" lon="2.99759">
        <ele>653.8</ele>
        <time>2021-08-17T10:08:55Z</time>
      </trkpt>
      <trkpt lat="44.44482" lon="2.99737">
        <ele>654.3</ele>
        <time>2021-08-17T10:08:57Z</time>
      </trkpt>
      <trkpt lat="44.44491" lon="2.99714">
        <ele>655</ele>
        <time>2021-08-17T10:08:59Z</time>
      </trkpt>
      <trkpt lat="44.44498" lon="2.9969">
        <ele>655</ele>
        <time>2021-08-17T10:09:01Z</time>
      </trkpt>
      <trkpt lat="44.44507" lon="2.99668">
        <ele>655.3</ele>
        <time>2021-08-17T10:09:03Z</time>
      </trkpt>
      <trkpt lat="44.44515" lon="2.99642">
        <ele>652.2</ele>
        <time>2021-08-17T10:09:05Z</time>
      </trkpt>
      <trkpt lat="44.44523" lon="2.99618">
        <ele>649.2</ele>
        <time>2021-08-17T10:09:07Z</time>
      </trkpt>
      <trkpt lat="44.4453" lon="2.99594">
        <ele>646</ele>
        <time>2021-08-17T10:09:09Z</time>
      </trkpt>
      <trkpt lat="44.44537" lon="2.99571">
        <ele>642.1</ele>
        <time>2021-08-17T10:09:11Z</time>
      </trkpt>
      <trkpt lat="44.44543" lon="2.9955">
        <ele>637.4</ele>
        <time>2021-08-17T10:09:13Z</time>
      </trkpt>
      <trkpt lat="44.4455" lon="2.99532">
        <ele>634.3</ele>
        <time>2021-08-17T10:09:15Z</time>
      </trkpt>
      <trkpt lat="44.44563" lon="2.99522">
        <ele>634.5</ele>
        <time>2021-08-17T10:09:17Z</time>
      </trkpt>
      <trkpt lat="44.44579" lon="2.99522">
        <ele>638.8</ele>
        <time>2021-08-17T10:09:19Z</time>
      </trkpt>
      <trkpt lat="44.44595" lon="2.99528">
        <ele>642</ele>
        <time>2021-08-17T10:09:21Z</time>
      </trkpt>
      <trkpt lat="44.44612" lon="2.99535">
        <ele>644.4</ele>
        <time>2021-08-17T10:09:23Z</time>
      </trkpt>
      <trkpt lat="44.44626" lon="2.99541">
        <ele>646.5</ele>
        <time>2021-08-17T10:09:25Z</time>
      </trkpt>
      <trkpt lat="44.44641" lon="2.99545">
        <ele>647.9</ele>
        <time>2021-08-17T10:09:27Z</time>
      </trkpt>
      <trkpt lat="44.44658" lon="2.99544">
        <ele>647.9</ele>
        <time>2021-08-17T10:09:29Z</time>
      </trkpt>
      <trkpt lat="44.44674" lon="2.99541">
        <ele>649.4</ele>
        <time>2021-08-17T10:09:31Z</time>
      </trkpt>
      <trkpt lat="44.44689" lon="2.99537">
        <ele>653</ele>
        <time>2021-08-17T10:09:33Z</time>
      </trkpt>
      <trkpt lat="44.44701" lon="2.99534">
        <ele>655.9</ele>
        <time>2021-08-17T10:09:35Z</time>
      </trkpt>
      <trkpt lat="44.4471" lon="2.99525">
        <ele>657.4</ele>
        <time>2021-08-17T10:09:37Z</time>
      </trkpt>
      <trkpt lat="44.44713" lon="2.99508">
        <ele>655.8</ele>
        <time>2021-08-17T10:09:39Z</time>
      </trkpt>
      <trkpt lat="44.44709" lon="2.99489">
        <ele>652.2</ele>
        <time>2021-08-17T10:09:41Z</time>
      </trkpt>
      <trkpt lat="44.44704" lon="2.99469">
        <ele>649.3</ele>
        <time>2021-08-17T10:09:43Z</time>
      </trkpt>
      <trkpt lat="44.447" lon="2.99448">
        <ele>645.6</ele>
        <time>2021-08-17T10:09:45Z</time>
      </trkpt>
      <trkpt lat="44.44695" lon="2.99425">
        <ele>641.4</ele>
        <time>2021-08-17T10:09:47Z</time>
      </trkpt>
      <trkpt lat="44.44691" lon="2.99401">
        <ele>638.6</ele>
        <time>2021-08-17T10:09:49Z</time>
      </trkpt>
      <trkpt lat="44.44686" lon="2.99375">
        <ele>636.2</ele>
        <time>2021-08-17T10:09:51Z</time>
      </trkpt>
      <trkpt lat="44.44681" lon="2.9935">
        <ele>633.3</ele>
        <time>2021-08-17T10:09:53Z</time>
      </trkpt>
      <trkpt lat="44.44675" lon="2.99327">
        <ele>629.4</ele>
        <time>2021-08-17T10:09:55Z</time>
      </trkpt>
      <trkpt lat="44.44667" lon="2.99306">
        <ele>624.3</ele>
        <time>2021-08-17T10:09:57Z</time>
      </trkpt>
      <trkpt lat="44.44658" lon="2.99287">
        <ele>620.4</ele>
        <time>2021-08-17T10:09:59Z</time>
      </trkpt>
      <trkpt lat="44.44654" lon="2.99269">
        <ele>618.6</ele>
        <time>2021-08-17T10:10:01Z</time>
      </trkpt>
      <trkpt lat="44.44658" lon="2.9925">
        <ele>619.8</ele>
        <time>2021-08-17T10:10:03Z</time>
      </trkpt>
      <trkpt lat="44.44668" lon="2.99234">
        <ele>619.2</ele>
        <time>2021-08-17T10:10:05Z</time>
      </trkpt>
      <trkpt lat="44.44681" lon="2.99222">
        <ele>621.1</ele>
        <time>2021-08-17T10:10:07Z</time>
      </trkpt>
      <trkpt lat="44.44696" lon="2.99212">
        <ele>623</ele>
        <time>2021-08-17T10:10:09Z</time>
      </trkpt>
      <trkpt lat="44.44712" lon="2.99203">
        <ele>625.5</ele>
        <time>2021-08-17T10:10:11Z</time>
      </trkpt>
      <trkpt lat="44.44728" lon="2.99194">
        <ele>627.4</ele>
        <time>2021-08-17T10:10:13Z</time>
      </trkpt>
      <trkpt lat="44.44743" lon="2.99181">
        <ele>627</ele>
        <time>2021-08-17T10:10:15Z</time>
      </trkpt>
      <trkpt lat="44.44758" lon="2.99165">
        <ele>624.4</ele>
        <time>2021-08-17T10:10:17Z</time>
      </trkpt>
      <trkpt lat="44.44772" lon="2.99148">
        <ele>622.4</ele>
        <time>2021-08-17T10:10:19Z</time>
      </trkpt>
      <trkpt lat="44.44784" lon="2.99132">
        <ele>620.3</ele>
        <time>2021-08-17T10:10:21Z</time>
      </trkpt>
      <trkpt lat="44.44797" lon="2.99115">
        <ele>617.7</ele>
        <time>2021-08-17T10:10:23Z</time>
      </trkpt>
      <trkpt lat="44.44808" lon="2.99103">
        <ele>616.4</ele>
        <time>2021-08-17T10:10:25Z</time>
      </trkpt>
      <trkpt lat="44.4482" lon="2.99092">
        <ele>615.6</ele>
        <time>2021-08-17T10:10:27Z</time>
      </trkpt>
      <trkpt lat="44.44834" lon="2.99087">
        <ele>617.3</ele>
        <time>2021-08-17T10:10:29Z</time>
      </trkpt>
      <trkpt lat="44.44847" lon="2.99085">
        <ele>618.4</ele>
        <time>2021-08-17T10:10:31Z</time>
      </trkpt>
      <trkpt lat="44.44859" lon="2.99075">
        <ele>619.2</ele>
        <time>2021-08-17T10:10:33Z</time>
      </trkpt>
      <trkpt lat="44.4487" lon="2.99062">
        <ele>620.6</ele>
        <time>2021-08-17T10:10:35Z</time>
      </trkpt>
      <trkpt lat="44.44885" lon="2.99056">
        <ele>622.8</ele>
        <time>2021-08-17T10:10:37Z</time>
      </trkpt>
      <trkpt lat="44.44898" lon="2.99053">
        <ele>624.8</ele>
        <time>2021-08-17T10:10:39Z</time>
      </trkpt>
      <trkpt lat="44.44908" lon="2.99049">
        <ele>626.5</ele>
        <time>2021-08-17T10:10:41Z</time>
      </trkpt>
      <trkpt lat="44.44914" lon="2.99034">
        <ele>627.7</ele>
        <time>2021-08-17T10:10:43Z</time>
      </trkpt>
      <trkpt lat="44.44908" lon="2.99018">
        <ele>627</ele>
        <time>2021-08-17T10:10:45Z</time>
      </trkpt>
      <trkpt lat="44.44895" lon="2.9901">
        <ele>624.7</ele>
        <time>2021-08-17T10:10:47Z</time>
      </trkpt>
      <trkpt lat="44.44882" lon="2.99005">
        <ele>622.4</ele>
        <time>2021-08-17T10:10:49Z</time>
      </trkpt>
      <trkpt lat="44.44869" lon="2.98998">
        <ele>620.5</ele>
        <time>2021-08-17T10:10:51Z</time>
      </trkpt>
      <trkpt lat="44.44855" lon="2.98992">
        <ele>619.5</ele>
        <time>2021-08-17T10:10:53Z</time>
      </trkpt>
      <trkpt lat="44.4484" lon="2.98984">
        <ele>618.9</ele>
        <time>2021-08-17T10:10:55Z</time>
      </trkpt>
      <trkpt lat="44.44824" lon="2.98982">
        <ele>616.8</ele>
        <time>2021-08-17T10:10:57Z</time>
      </trkpt>
      <trkpt lat="44.44807" lon="2.98986">
        <ele>612.6</ele>
        <time>2021-08-17T10:10:59Z</time>
      </trkpt>
      <trkpt lat="44.44791" lon="2.98997">
        <ele>606.9</ele>
        <time>2021-08-17T10:11:01Z</time>
      </trkpt>
      <trkpt lat="44.44779" lon="2.99016">
        <ele>603.6</ele>
        <time>2021-08-17T10:11:03Z</time>
      </trkpt>
      <trkpt lat="44.44764" lon="2.99012">
        <ele>600.9</ele>
        <time>2021-08-17T10:11:05Z</time>
      </trkpt>
      <trkpt lat="44.44747" lon="2.99005">
        <ele>598.1</ele>
        <time>2021-08-17T10:11:07Z</time>
      </trkpt>
      <trkpt lat="44.44733" lon="2.9899">
        <ele>597.1</ele>
        <time>2021-08-17T10:11:09Z</time>
      </trkpt>
      <trkpt lat="44.44716" lon="2.9898">
        <ele>595.2</ele>
        <time>2021-08-17T10:11:11Z</time>
      </trkpt>
      <trkpt lat="44.44699" lon="2.98971">
        <ele>592.2</ele>
        <time>2021-08-17T10:11:13Z</time>
      </trkpt>
      <trkpt lat="44.44682" lon="2.98963">
        <ele>588.8</ele>
        <time>2021-08-17T10:11:15Z</time>
      </trkpt>
      <trkpt lat="44.44666" lon="2.98955">
        <ele>585.3</ele>
        <time>2021-08-17T10:11:17Z</time>
      </trkpt>
      <trkpt lat="44.44652" lon="2.98948">
        <ele>580.6</ele>
        <time>2021-08-17T10:11:19Z</time>
      </trkpt>
      <trkpt lat="44.44639" lon="2.98937">
        <ele>576.9</ele>
        <time>2021-08-17T10:11:21Z</time>
      </trkpt>
      <trkpt lat="44.44632" lon="2.98918">
        <ele>575.9</ele>
        <time>2021-08-17T10:11:23Z</time>
      </trkpt>
      <trkpt lat="44.44632" lon="2.98897">
        <ele>574.9</ele>
        <time>2021-08-17T10:11:25Z</time>
      </trkpt>
      <trkpt lat="44.44636" lon="2.98875">
        <ele>575.6</ele>
        <time>2021-08-17T10:11:27Z</time>
      </trkpt>
      <trkpt lat="44.4464" lon="2.98853">
        <ele>576.3</ele>
        <time>2021-08-17T10:11:29Z</time>
      </trkpt>
      <trkpt lat="44.44644" lon="2.98833">
        <ele>577.2</ele>
        <time>2021-08-17T10:11:31Z</time>
      </trkpt>
      <trkpt lat="44.44652" lon="2.98813">
        <ele>575.1</ele>
        <time>2021-08-17T10:11:33Z</time>
      </trkpt>
      <trkpt lat="44.44663" lon="2.98796">
        <ele>574.8</ele>
        <time>2021-08-17T10:11:35Z</time>
      </trkpt>
      <trkpt lat="44.44676" lon="2.98785">
        <ele>575.9</ele>
        <time>2021-08-17T10:11:37Z</time>
      </trkpt>
      <trkpt lat="44.44688" lon="2.98776">
        <ele>577.6</ele>
        <time>2021-08-17T10:11:39Z</time>
      </trkpt>
      <trkpt lat="44.447" lon="2.98768">
        <ele>578.9</ele>
        <time>2021-08-17T10:11:41Z</time>
      </trkpt>
      <trkpt lat="44.44712" lon="2.98761">
        <ele>580.6</ele>
        <time>2021-08-17T10:11:43Z</time>
      </trkpt>
      <trkpt lat="44.44725" lon="2.98752">
        <ele>581.8</ele>
        <time>2021-08-17T10:11:45Z</time>
      </trkpt>
      <trkpt lat="44.44736" lon="2.9874">
        <ele>583.1</ele>
        <time>2021-08-17T10:11:47Z</time>
      </trkpt>
      <trkpt lat="44.44747" lon="2.98727">
        <ele>584.6</ele>
        <time>2021-08-17T10:11:49Z</time>
      </trkpt>
      <trkpt lat="44.44756" lon="2.98712">
        <ele>585.5</ele>
        <time>2021-08-17T10:11:51Z</time>
      </trkpt>
      <trkpt lat="44.44764" lon="2.98697">
        <ele>586.3</ele>
        <time>2021-08-17T10:11:53Z</time>
      </trkpt>
      <trkpt lat="44.44768" lon="2.9868">
        <ele>584.8</ele>
        <time>2021-08-17T10:11:55Z</time>
      </trkpt>
      <trkpt lat="44.44765" lon="2.98662">
        <ele>581.6</ele>
        <time>2021-08-17T10:11:57Z</time>
      </trkpt>
      <trkpt lat="44.44757" lon="2.98646">
        <ele>578</ele>
        <time>2021-08-17T10:11:59Z</time>
      </trkpt>
      <trkpt lat="44.44747" lon="2.9863">
        <ele>574.5</ele>
        <time>2021-08-17T10:12:01Z</time>
      </trkpt>
      <trkpt lat="44.44738" lon="2.98613">
        <ele>570.4</ele>
        <time>2021-08-17T10:12:03Z</time>
      </trkpt>
      <trkpt lat="44.44727" lon="2.98597">
        <ele>565.7</ele>
        <time>2021-08-17T10:12:05Z</time>
      </trkpt>
      <trkpt lat="44.44719" lon="2.98581">
        <ele>561.7</ele>
        <time>2021-08-17T10:12:07Z</time>
      </trkpt>
      <trkpt lat="44.44717" lon="2.98562">
        <ele>558.6</ele>
        <time>2021-08-17T10:12:09Z</time>
      </trkpt>
      <trkpt lat="44.44722" lon="2.98542">
        <ele>558</ele>
        <time>2021-08-17T10:12:11Z</time>
      </trkpt>
      <trkpt lat="44.44734" lon="2.98529">
        <ele>560.3</ele>
        <time>2021-08-17T10:12:13Z</time>
      </trkpt>
      <trkpt lat="44.44749" lon="2.98519">
        <ele>563.1</ele>
        <time>2021-08-17T10:12:15Z</time>
      </trkpt>
      <trkpt lat="44.44763" lon="2.98512">
        <ele>565.4</ele>
        <time>2021-08-17T10:12:17Z</time>
      </trkpt>
      <trkpt lat="44.44778" lon="2.98513">
        <ele>568.9</ele>
        <time>2021-08-17T10:12:19Z</time>
      </trkpt>
      <trkpt lat="44.44792" lon="2.98517">
        <ele>572.9</ele>
        <time>2021-08-17T10:12:21Z</time>
      </trkpt>
      <trkpt lat="44.44803" lon="2.98516">
        <ele>575.5</ele>
        <time>2021-08-17T10:12:23Z</time>
      </trkpt>
      <trkpt lat="44.44812" lon="2.98504">
        <ele>575</ele>
        <time>2021-08-17T10:12:25Z</time>
      </trkpt>
      <trkpt lat="44.44814" lon="2.98483">
        <ele>574.9</ele>
        <time>2021-08-17T10:12:27Z</time>
      </trkpt>
      <trkpt lat="44.44811" lon="2.98461">
        <ele>574.6</ele>
        <time>2021-08-17T10:12:29Z</time>
      </trkpt>
      <trkpt lat="44.44804" lon="2.98445">
        <ele>572.6</ele>
        <time>2021-08-17T10:12:31Z</time>
      </trkpt>
      <trkpt lat="44.4479" lon="2.98436">
        <ele>568.2</ele>
        <time>2021-08-17T10:12:33Z</time>
      </trkpt>
      <trkpt lat="44.44776" lon="2.98426">
        <ele>563.2</ele>
        <time>2021-08-17T10:12:35Z</time>
      </trkpt>
      <trkpt lat="44.44761" lon="2.98416">
        <ele>557.8</ele>
        <time>2021-08-17T10:12:37Z</time>
      </trkpt>
      <trkpt lat="44.44749" lon="2.98406">
        <ele>553.5</ele>
        <time>2021-08-17T10:12:39Z</time>
      </trkpt>
      <trkpt lat="44.44738" lon="2.98395">
        <ele>548.8</ele>
        <time>2021-08-17T10:12:41Z</time>
      </trkpt>
      <trkpt lat="44.44731" lon="2.98378">
        <ele>545.2</ele>
        <time>2021-08-17T10:12:43Z</time>
      </trkpt>
      <trkpt lat="44.44733" lon="2.98357">
        <ele>545.3</ele>
        <time>2021-08-17T10:12:45Z</time>
      </trkpt>
      <trkpt lat="44.4474" lon="2.98337">
        <ele>548.2</ele>
        <time>2021-08-17T10:12:47Z</time>
      </trkpt>
      <trkpt lat="44.44748" lon="2.98316">
        <ele>548.9</ele>
        <time>2021-08-17T10:12:49Z</time>
      </trkpt>
      <trkpt lat="44.44754" lon="2.98293">
        <ele>547.5</ele>
        <time>2021-08-17T10:12:51Z</time>
      </trkpt>
      <trkpt lat="44.4476" lon="2.9827">
        <ele>545.9</ele>
        <time>2021-08-17T10:12:53Z</time>
      </trkpt>
      <trkpt lat="44.44766" lon="2.98246">
        <ele>545</ele>
        <time>2021-08-17T10:12:55Z</time>
      </trkpt>
      <trkpt lat="44.44773" lon="2.98222">
        <ele>544.6</ele>
        <time>2021-08-17T10:12:57Z</time>
      </trkpt>
      <trkpt lat="44.44779" lon="2.98198">
        <ele>543.4</ele>
        <time>2021-08-17T10:12:59Z</time>
      </trkpt>
      <trkpt lat="44.44786" lon="2.98175">
        <ele>542.5</ele>
        <time>2021-08-17T10:13:01Z</time>
      </trkpt>
      <trkpt lat="44.44795" lon="2.98154">
        <ele>542.3</ele>
        <time>2021-08-17T10:13:03Z</time>
      </trkpt>
      <trkpt lat="44.44805" lon="2.98135">
        <ele>543</ele>
        <time>2021-08-17T10:13:05Z</time>
      </trkpt>
      <trkpt lat="44.44816" lon="2.98117">
        <ele>545.2</ele>
        <time>2021-08-17T10:13:07Z</time>
      </trkpt>
      <trkpt lat="44.44826" lon="2.98097">
        <ele>546</ele>
        <time>2021-08-17T10:13:09Z</time>
      </trkpt>
      <trkpt lat="44.44832" lon="2.98075">
        <ele>545.1</ele>
        <time>2021-08-17T10:13:11Z</time>
      </trkpt>
      <trkpt lat="44.44836" lon="2.98052">
        <ele>542.6</ele>
        <time>2021-08-17T10:13:13Z</time>
      </trkpt>
      <trkpt lat="44.44837" lon="2.98028">
        <ele>538.6</ele>
        <time>2021-08-17T10:13:15Z</time>
      </trkpt>
      <trkpt lat="44.44839" lon="2.98004">
        <ele>534.8</ele>
        <time>2021-08-17T10:13:17Z</time>
      </trkpt>
      <trkpt lat="44.44841" lon="2.97982">
        <ele>532.4</ele>
        <time>2021-08-17T10:13:19Z</time>
      </trkpt>
      <trkpt lat="44.44843" lon="2.97961">
        <ele>530.4</ele>
        <time>2021-08-17T10:13:21Z</time>
      </trkpt>
      <trkpt lat="44.44844" lon="2.97938">
        <ele>527.9</ele>
        <time>2021-08-17T10:13:23Z</time>
      </trkpt>
      <trkpt lat="44.44846" lon="2.97916">
        <ele>525.3</ele>
        <time>2021-08-17T10:13:25Z</time>
      </trkpt>
      <trkpt lat="44.44848" lon="2.97895">
        <ele>522.8</ele>
        <time>2021-08-17T10:13:27Z</time>
      </trkpt>
      <trkpt lat="44.44852" lon="2.97873">
        <ele>520.5</ele>
        <time>2021-08-17T10:13:29Z</time>
      </trkpt>
      <trkpt lat="44.44858" lon="2.97853">
        <ele>519</ele>
        <time>2021-08-17T10:13:31Z</time>
      </trkpt>
      <trkpt lat="44.44866" lon="2.97834">
        <ele>518</ele>
        <time>2021-08-17T10:13:33Z</time>
      </trkpt>
      <trkpt lat="44.44878" lon="2.97818">
        <ele>517.4</ele>
        <time>2021-08-17T10:13:35Z</time>
      </trkpt>
      <trkpt lat="44.4489" lon="2.97806">
        <ele>517.6</ele>
        <time>2021-08-17T10:13:37Z</time>
      </trkpt>
      <trkpt lat="44.44903" lon="2.97795">
        <ele>517.8</ele>
        <time>2021-08-17T10:13:39Z</time>
      </trkpt>
      <trkpt lat="44.44916" lon="2.97784">
        <ele>517.9</ele>
        <time>2021-08-17T10:13:41Z</time>
      </trkpt>
      <trkpt lat="44.44932" lon="2.97777">
        <ele>517.2</ele>
        <time>2021-08-17T10:13:43Z</time>
      </trkpt>
      <trkpt lat="44.44948" lon="2.97774">
        <ele>517.3</ele>
        <time>2021-08-17T10:13:45Z</time>
      </trkpt>
      <trkpt lat="44.44965" lon="2.97773">
        <ele>518</ele>
        <time>2021-08-17T10:13:47Z</time>
      </trkpt>
      <trkpt lat="44.44982" lon="2.97774">
        <ele>519</ele>
        <time>2021-08-17T10:13:49Z</time>
      </trkpt>
      <trkpt lat="44.45" lon="2.97775">
        <ele>520</ele>
        <time>2021-08-17T10:13:51Z</time>
      </trkpt>
      <trkpt lat="44.45018" lon="2.97774">
        <ele>521.7</ele>
        <time>2021-08-17T10:13:53Z</time>
      </trkpt>
      <trkpt lat="44.45035" lon="2.97774">
        <ele>523.3</ele>
        <time>2021-08-17T10:13:55Z</time>
      </trkpt>
      <trkpt lat="44.45052" lon="2.97771">
        <ele>523.9</ele>
        <time>2021-08-17T10:13:57Z</time>
      </trkpt>
      <trkpt lat="44.4507" lon="2.97765">
        <ele>523.7</ele>
        <time>2021-08-17T10:13:59Z</time>
      </trkpt>
      <trkpt lat="44.45087" lon="2.97758">
        <ele>522</ele>
        <time>2021-08-17T10:14:01Z</time>
      </trkpt>
      <trkpt lat="44.45105" lon="2.97754">
        <ele>520.1</ele>
        <time>2021-08-17T10:14:03Z</time>
      </trkpt>
      <trkpt lat="44.4512" lon="2.97755">
        <ele>520.2</ele>
        <time>2021-08-17T10:14:05Z</time>
      </trkpt>
      <trkpt lat="44.45136" lon="2.97756">
        <ele>520.2</ele>
        <time>2021-08-17T10:14:07Z</time>
      </trkpt>
      <trkpt lat="44.45152" lon="2.97758">
        <ele>520.8</ele>
        <time>2021-08-17T10:14:09Z</time>
      </trkpt>
      <trkpt lat="44.45169" lon="2.97761">
        <ele>521.3</ele>
        <time>2021-08-17T10:14:11Z</time>
      </trkpt>
      <trkpt lat="44.45186" lon="2.97765">
        <ele>519.6</ele>
        <time>2021-08-17T10:14:13Z</time>
      </trkpt>
      <trkpt lat="44.45204" lon="2.97769">
        <ele>517.5</ele>
        <time>2021-08-17T10:14:15Z</time>
      </trkpt>
      <trkpt lat="44.45222" lon="2.97774">
        <ele>515.5</ele>
        <time>2021-08-17T10:14:17Z</time>
      </trkpt>
      <trkpt lat="44.45238" lon="2.97779">
        <ele>513.3</ele>
        <time>2021-08-17T10:14:19Z</time>
      </trkpt>
      <trkpt lat="44.45254" lon="2.97783">
        <ele>510.7</ele>
        <time>2021-08-17T10:14:21Z</time>
      </trkpt>
      <trkpt lat="44.45267" lon="2.97788">
        <ele>507.6</ele>
        <time>2021-08-17T10:14:23Z</time>
      </trkpt>
      <trkpt lat="44.45278" lon="2.97796">
        <ele>506.2</ele>
        <time>2021-08-17T10:14:25Z</time>
      </trkpt>
      <trkpt lat="44.45287" lon="2.97811">
        <ele>506.9</ele>
        <time>2021-08-17T10:14:27Z</time>
      </trkpt>
      <trkpt lat="44.4529" lon="2.9783">
        <ele>510.8</ele>
        <time>2021-08-17T10:14:29Z</time>
      </trkpt>
      <trkpt lat="44.45292" lon="2.9785">
        <ele>514.3</ele>
        <time>2021-08-17T10:14:31Z</time>
      </trkpt>
      <trkpt lat="44.45297" lon="2.97867">
        <ele>515.6</ele>
        <time>2021-08-17T10:14:33Z</time>
      </trkpt>
      <trkpt lat="44.45307" lon="2.97877">
        <ele>513.4</ele>
        <time>2021-08-17T10:14:35Z</time>
      </trkpt>
      <trkpt lat="44.45319" lon="2.97881">
        <ele>509.5</ele>
        <time>2021-08-17T10:14:37Z</time>
      </trkpt>
      <trkpt lat="44.45331" lon="2.97889">
        <ele>505.9</ele>
        <time>2021-08-17T10:14:39Z</time>
      </trkpt>
      <trkpt lat="44.45341" lon="2.97904">
        <ele>507</ele>
        <time>2021-08-17T10:14:41Z</time>
      </trkpt>
      <trkpt lat="44.45349" lon="2.97923">
        <ele>509.8</ele>
        <time>2021-08-17T10:14:43Z</time>
      </trkpt>
      <trkpt lat="44.45353" lon="2.9794">
        <ele>513</ele>
        <time>2021-08-17T10:14:45Z</time>
      </trkpt>
      <trkpt lat="44.45358" lon="2.97955">
        <ele>515.7</ele>
        <time>2021-08-17T10:14:47Z</time>
      </trkpt>
      <trkpt lat="44.45366" lon="2.97964">
        <ele>516.6</ele>
        <time>2021-08-17T10:14:49Z</time>
      </trkpt>
      <trkpt lat="44.45377" lon="2.97962">
        <ele>515</ele>
        <time>2021-08-17T10:14:51Z</time>
      </trkpt>
      <trkpt lat="44.45384" lon="2.97948">
        <ele>511.4</ele>
        <time>2021-08-17T10:14:53Z</time>
      </trkpt>
      <trkpt lat="44.45387" lon="2.97928">
        <ele>507.1</ele>
        <time>2021-08-17T10:14:55Z</time>
      </trkpt>
      <trkpt lat="44.4539" lon="2.97905">
        <ele>502.6</ele>
        <time>2021-08-17T10:14:57Z</time>
      </trkpt>
      <trkpt lat="44.45391" lon="2.97883">
        <ele>498.4</ele>
        <time>2021-08-17T10:14:59Z</time>
      </trkpt>
      <trkpt lat="44.45392" lon="2.9786">
        <ele>494.2</ele>
        <time>2021-08-17T10:15:01Z</time>
      </trkpt>
      <trkpt lat="44.45394" lon="2.9784">
        <ele>490.4</ele>
        <time>2021-08-17T10:15:03Z</time>
      </trkpt>
      <trkpt lat="44.45401" lon="2.97823">
        <ele>485.6</ele>
        <time>2021-08-17T10:15:05Z</time>
      </trkpt>
      <trkpt lat="44.45416" lon="2.97813">
        <ele>481.1</ele>
        <time>2021-08-17T10:15:07Z</time>
      </trkpt>
      <trkpt lat="44.45433" lon="2.97816">
        <ele>478.9</ele>
        <time>2021-08-17T10:15:09Z</time>
      </trkpt>
      <trkpt lat="44.45448" lon="2.97826">
        <ele>479.3</ele>
        <time>2021-08-17T10:15:11Z</time>
      </trkpt>
      <trkpt lat="44.45459" lon="2.97846">
        <ele>482.2</ele>
        <time>2021-08-17T10:15:13Z</time>
      </trkpt>
      <trkpt lat="44.45467" lon="2.97861">
        <ele>484.4</ele>
        <time>2021-08-17T10:15:15Z</time>
      </trkpt>
      <trkpt lat="44.45477" lon="2.97874">
        <ele>486</ele>
        <time>2021-08-17T10:15:17Z</time>
      </trkpt>
      <trkpt lat="44.45491" lon="2.97881">
        <ele>485.8</ele>
        <time>2021-08-17T10:15:19Z</time>
      </trkpt>
      <trkpt lat="44.45505" lon="2.97881">
        <ele>484.4</ele>
        <time>2021-08-17T10:15:21Z</time>
      </trkpt>
      <trkpt lat="44.45519" lon="2.97877">
        <ele>483.1</ele>
        <time>2021-08-17T10:15:23Z</time>
      </trkpt>
      <trkpt lat="44.45533" lon="2.97872">
        <ele>481.6</ele>
        <time>2021-08-17T10:15:25Z</time>
      </trkpt>
      <trkpt lat="44.45548" lon="2.97867">
        <ele>480</ele>
        <time>2021-08-17T10:15:27Z</time>
      </trkpt>
      <trkpt lat="44.45562" lon="2.97861">
        <ele>478.2</ele>
        <time>2021-08-17T10:15:29Z</time>
      </trkpt>
      <trkpt lat="44.45577" lon="2.97854">
        <ele>476.3</ele>
        <time>2021-08-17T10:15:31Z</time>
      </trkpt>
      <trkpt lat="44.4559" lon="2.97845">
        <ele>473.5</ele>
        <time>2021-08-17T10:15:33Z</time>
      </trkpt>
      <trkpt lat="44.45604" lon="2.97834">
        <ele>470.2</ele>
        <time>2021-08-17T10:15:35Z</time>
      </trkpt>
      <trkpt lat="44.45619" lon="2.97824">
        <ele>467.4</ele>
        <time>2021-08-17T10:15:37Z</time>
      </trkpt>
      <trkpt lat="44.45636" lon="2.97821">
        <ele>466.2</ele>
        <time>2021-08-17T10:15:39Z</time>
      </trkpt>
      <trkpt lat="44.45652" lon="2.97825">
        <ele>466.3</ele>
        <time>2021-08-17T10:15:41Z</time>
      </trkpt>
      <trkpt lat="44.45669" lon="2.97833">
        <ele>466.5</ele>
        <time>2021-08-17T10:15:43Z</time>
      </trkpt>
      <trkpt lat="44.45685" lon="2.97843">
        <ele>466.5</ele>
        <time>2021-08-17T10:15:45Z</time>
      </trkpt>
      <trkpt lat="44.45698" lon="2.97858">
        <ele>467.7</ele>
        <time>2021-08-17T10:15:47Z</time>
      </trkpt>
      <trkpt lat="44.45711" lon="2.9787">
        <ele>468.3</ele>
        <time>2021-08-17T10:15:49Z</time>
      </trkpt>
      <trkpt lat="44.45727" lon="2.97874">
        <ele>467</ele>
        <time>2021-08-17T10:15:51Z</time>
      </trkpt>
      <trkpt lat="44.45743" lon="2.97875">
        <ele>465.1</ele>
        <time>2021-08-17T10:15:53Z</time>
      </trkpt>
      <trkpt lat="44.4576" lon="2.97875">
        <ele>462.5</ele>
        <time>2021-08-17T10:15:55Z</time>
      </trkpt>
      <trkpt lat="44.45777" lon="2.97875">
        <ele>460</ele>
        <time>2021-08-17T10:15:57Z</time>
      </trkpt>
      <trkpt lat="44.45791" lon="2.97879">
        <ele>458.4</ele>
        <time>2021-08-17T10:15:59Z</time>
      </trkpt>
      <trkpt lat="44.45802" lon="2.97889">
        <ele>458.1</ele>
        <time>2021-08-17T10:16:01Z</time>
      </trkpt>
      <trkpt lat="44.45809" lon="2.97907">
        <ele>459</ele>
        <time>2021-08-17T10:16:03Z</time>
      </trkpt>
      <trkpt lat="44.45816" lon="2.97927">
        <ele>460</ele>
        <time>2021-08-17T10:16:05Z</time>
      </trkpt>
      <trkpt lat="44.45827" lon="2.97943">
        <ele>459</ele>
        <time>2021-08-17T10:16:07Z</time>
      </trkpt>
      <trkpt lat="44.4584" lon="2.97951">
        <ele>458.5</ele>
        <time>2021-08-17T10:16:09Z</time>
      </trkpt>
      <trkpt lat="44.45854" lon="2.97948">
        <ele>459.6</ele>
        <time>2021-08-17T10:16:11Z</time>
      </trkpt>
      <trkpt lat="44.45866" lon="2.97936">
        <ele>459.3</ele>
        <time>2021-08-17T10:16:13Z</time>
      </trkpt>
      <trkpt lat="44.45875" lon="2.97918">
        <ele>457.7</ele>
        <time>2021-08-17T10:16:15Z</time>
      </trkpt>
      <trkpt lat="44.45882" lon="2.97899">
        <ele>455.5</ele>
        <time>2021-08-17T10:16:17Z</time>
      </trkpt>
      <trkpt lat="44.45889" lon="2.9788">
        <ele>453.2</ele>
        <time>2021-08-17T10:16:19Z</time>
      </trkpt>
      <trkpt lat="44.45899" lon="2.97864">
        <ele>451</ele>
        <time>2021-08-17T10:16:21Z</time>
      </trkpt>
      <trkpt lat="44.45912" lon="2.9785">
        <ele>448.9</ele>
        <time>2021-08-17T10:16:23Z</time>
      </trkpt>
      <trkpt lat="44.45927" lon="2.97838">
        <ele>447.3</ele>
        <time>2021-08-17T10:16:25Z</time>
      </trkpt>
      <trkpt lat="44.45942" lon="2.97826">
        <ele>446.5</ele>
        <time>2021-08-17T10:16:27Z</time>
      </trkpt>
      <trkpt lat="44.45957" lon="2.97814">
        <ele>445.8</ele>
        <time>2021-08-17T10:16:29Z</time>
      </trkpt>
      <trkpt lat="44.45972" lon="2.97802">
        <ele>445.1</ele>
        <time>2021-08-17T10:16:31Z</time>
      </trkpt>
      <trkpt lat="44.45987" lon="2.97791">
        <ele>444.1</ele>
        <time>2021-08-17T10:16:33Z</time>
      </trkpt>
      <trkpt lat="44.46002" lon="2.97779">
        <ele>443.2</ele>
        <time>2021-08-17T10:16:35Z</time>
      </trkpt>
      <trkpt lat="44.46016" lon="2.97768">
        <ele>443.7</ele>
        <time>2021-08-17T10:16:37Z</time>
      </trkpt>
      <trkpt lat="44.46031" lon="2.97758">
        <ele>444.2</ele>
        <time>2021-08-17T10:16:39Z</time>
      </trkpt>
      <trkpt lat="44.46045" lon="2.97747">
        <ele>444.7</ele>
        <time>2021-08-17T10:16:41Z</time>
      </trkpt>
      <trkpt lat="44.46058" lon="2.97736">
        <ele>445.3</ele>
        <time>2021-08-17T10:16:43Z</time>
      </trkpt>
      <trkpt lat="44.46071" lon="2.97725">
        <ele>445.2</ele>
        <time>2021-08-17T10:16:45Z</time>
      </trkpt>
      <trkpt lat="44.46084" lon="2.97715">
        <ele>444.6</ele>
        <time>2021-08-17T10:16:47Z</time>
      </trkpt>
      <trkpt lat="44.46096" lon="2.97707">
        <ele>443.5</ele>
        <time>2021-08-17T10:16:49Z</time>
      </trkpt>
      <trkpt lat="44.46108" lon="2.97698">
        <ele>442.5</ele>
        <time>2021-08-17T10:16:51Z</time>
      </trkpt>
      <trkpt lat="44.4612" lon="2.97689">
        <ele>441.4</ele>
        <time>2021-08-17T10:16:53Z</time>
      </trkpt>
      <trkpt lat="44.46132" lon="2.9768">
        <ele>440.3</ele>
        <time>2021-08-17T10:16:55Z</time>
      </trkpt>
      <trkpt lat="44.46143" lon="2.97671">
        <ele>439</ele>
        <time>2021-08-17T10:16:57Z</time>
      </trkpt>
      <trkpt lat="44.46154" lon="2.97662">
        <ele>438.5</ele>
        <time>2021-08-17T10:16:59Z</time>
      </trkpt>
      <trkpt lat="44.46165" lon="2.97654">
        <ele>438.2</ele>
        <time>2021-08-17T10:17:01Z</time>
      </trkpt>
      <trkpt lat="44.46176" lon="2.97645">
        <ele>438</ele>
        <time>2021-08-17T10:17:03Z</time>
      </trkpt>
      <trkpt lat="44.46186" lon="2.97637">
        <ele>437.8</ele>
        <time>2021-08-17T10:17:05Z</time>
      </trkpt>
      <trkpt lat="44.46197" lon="2.97629">
        <ele>437.6</ele>
        <time>2021-08-17T10:17:07Z</time>
      </trkpt>
      <trkpt lat="44.46207" lon="2.97622">
        <ele>437.5</ele>
        <time>2021-08-17T10:17:09Z</time>
      </trkpt>
      <trkpt lat="44.46217" lon="2.97614">
        <ele>437.4</ele>
        <time>2021-08-17T10:17:11Z</time>
      </trkpt>
      <trkpt lat="44.46225" lon="2.97604">
        <ele>437.2</ele>
        <time>2021-08-17T10:17:13Z</time>
      </trkpt>
      <trkpt lat="44.46235" lon="2.97597">
        <ele>437.1</ele>
        <time>2021-08-17T10:17:15Z</time>
      </trkpt>
      <trkpt lat="44.46245" lon="2.97589">
        <ele>437.1</ele>
        <time>2021-08-17T10:17:17Z</time>
      </trkpt>
      <trkpt lat="44.46255" lon="2.97582">
        <ele>437</ele>
        <time>2021-08-17T10:17:19Z</time>
      </trkpt>
      <trkpt lat="44.4626" lon="2.9758">
        <ele>437</ele>
        <time>2021-08-17T10:17:21Z</time>
      </trkpt>
      <trkpt lat="44.46261" lon="2.9758">
        <ele>437</ele>
        <time>2021-08-17T10:17:23Z</time>
      </trkpt>
      <trkpt lat="44.46262" lon="2.9758">
        <ele>437</ele>
        <time>2021-08-17T10:17:25Z</time>
      </trkpt>
      <trkpt lat="44.46262" lon="2.97581">
        <ele>437</ele>
        <time>2021-08-17T10:17:27Z</time>
      </trkpt>
      <trkpt lat="44.46262" lon="2.97581">
        <ele>437</ele>
        <time>2021-08-17T10:17:29Z</time>
      </trkpt>
      <trkpt lat="44.46261" lon="2.97582">
        <ele>437.1</ele>
        <time>2021-08-17T10:17:31Z</time>
      </trkpt>
      <trkpt lat="44.46274" lon="2.97567">
        <ele>436.5</ele>
        <time>2021-08-17T10:18:43Z</time>
      </trkpt>
      <trkpt lat="44.46279" lon="2.97564">
        <ele>436.4</ele>
        <time>2021-08-17T10:18:45Z</time>
      </trkpt>
      <trkpt lat="44.46285" lon="2.9756">
        <ele>436.3</ele>
        <time>2021-08-17T10:18:47Z</time>
      </trkpt>
      <trkpt lat="44.4629" lon="2.97557">
        <ele>436.2</ele>
        <time>2021-08-17T10:18:49Z</time>
      </trkpt>
      <trkpt lat="44.46296" lon="2.97553">
        <ele>436.1</ele>
        <time>2021-08-17T10:18:51Z</time>
      </trkpt>
      <trkpt lat="44.46301" lon="2.97549">
        <ele>436</ele>
        <time>2021-08-17T10:18:53Z</time>
      </trkpt>
      <trkpt lat="44.46307" lon="2.97545">
        <ele>435.8</ele>
        <time>2021-08-17T10:18:55Z</time>
      </trkpt>
      <trkpt lat="44.46312" lon="2.9754">
        <ele>435.7</ele>
        <time>2021-08-17T10:18:57Z</time>
      </trkpt>
      <trkpt lat="44.46319" lon="2.97537">
        <ele>435.6</ele>
        <time>2021-08-17T10:18:59Z</time>
      </trkpt>
      <trkpt lat="44.46324" lon="2.97533">
        <ele>435.5</ele>
        <time>2021-08-17T10:19:01Z</time>
      </trkpt>
      <trkpt lat="44.46329" lon="2.97528">
        <ele>435.3</ele>
        <time>2021-08-17T10:19:03Z</time>
      </trkpt>
      <trkpt lat="44.46335" lon="2.97523">
        <ele>435.1</ele>
        <time>2021-08-17T10:19:05Z</time>
      </trkpt>
      <trkpt lat="44.4634" lon="2.97519">
        <ele>434.9</ele>
        <time>2021-08-17T10:19:07Z</time>
      </trkpt>
      <trkpt lat="44.46344" lon="2.97517">
        <ele>434.8</ele>
        <time>2021-08-17T10:19:09Z</time>
      </trkpt>
      <trkpt lat="44.46347" lon="2.97514">
        <ele>434.6</ele>
        <time>2021-08-17T10:19:11Z</time>
      </trkpt>
      <trkpt lat="44.4635" lon="2.97511">
        <ele>434.5</ele>
        <time>2021-08-17T10:19:13Z</time>
      </trkpt>
      <trkpt lat="44.46352" lon="2.97509">
        <ele>434.4</ele>
        <time>2021-08-17T10:19:15Z</time>
      </trkpt>
      <trkpt lat="44.46355" lon="2.97507">
        <ele>434.3</ele>
        <time>2021-08-17T10:19:17Z</time>
      </trkpt>
      <trkpt lat="44.46357" lon="2.97505">
        <ele>434.2</ele>
        <time>2021-08-17T10:19:19Z</time>
      </trkpt>
      <trkpt lat="44.46357" lon="2.97505">
        <ele>434.2</ele>
        <time>2021-08-17T10:19:21Z</time>
      </trkpt>
      <trkpt lat="44.46358" lon="2.97504">
        <ele>434.2</ele>
        <time>2021-08-17T10:19:23Z</time>
      </trkpt>
      <trkpt lat="44.46358" lon="2.97504">
        <ele>434.2</ele>
        <time>2021-08-17T10:19:25Z</time>
      </trkpt>
      <trkpt lat="44.46358" lon="2.97505">
        <ele>434.2</ele>
        <time>2021-08-17T10:19:27Z</time>
      </trkpt>
      <trkpt lat="44.4638" lon="2.97483">
        <ele>434.1</ele>
        <time>2021-08-17T10:22:07Z</time>
      </trkpt>
      <trkpt lat="44.46384" lon="2.97476">
        <ele>434.1</ele>
        <time>2021-08-17T10:22:09Z</time>
      </trkpt>
      <trkpt lat="44.46387" lon="2.97468">
        <ele>434.1</ele>
        <time>2021-08-17T10:22:11Z</time>
      </trkpt>
      <trkpt lat="44.46393" lon="2.9746">
        <ele>434.1</ele>
        <time>2021-08-17T10:22:13Z</time>
      </trkpt>
      <trkpt lat="44.46399" lon="2.97454">
        <ele>434.1</ele>
        <time>2021-08-17T10:22:15Z</time>
      </trkpt>
      <trkpt lat="44.46407" lon="2.97451">
        <ele>434.1</ele>
        <time>2021-08-17T10:22:17Z</time>
      </trkpt>
      <trkpt lat="44.46414" lon="2.9745">
        <ele>434</ele>
        <time>2021-08-17T10:22:19Z</time>
      </trkpt>
      <trkpt lat="44.46422" lon="2.97449">
        <ele>434.1</ele>
        <time>2021-08-17T10:22:21Z</time>
      </trkpt>
      <trkpt lat="44.46428" lon="2.97447">
        <ele>434.1</ele>
        <time>2021-08-17T10:22:23Z</time>
      </trkpt>
      <trkpt lat="44.46435" lon="2.97447">
        <ele>434.2</ele>
        <time>2021-08-17T10:22:25Z</time>
      </trkpt>
      <trkpt lat="44.4644" lon="2.97446">
        <ele>434.2</ele>
        <time>2021-08-17T10:22:27Z</time>
      </trkpt>
      <trkpt lat="44.46444" lon="2.97445">
        <ele>434.2</ele>
        <time>2021-08-17T10:22:29Z</time>
      </trkpt>
      <trkpt lat="44.46449" lon="2.97443">
        <ele>434.2</ele>
        <time>2021-08-17T10:22:31Z</time>
      </trkpt>
      <trkpt lat="44.46454" lon="2.97441">
        <ele>434.3</ele>
        <time>2021-08-17T10:22:33Z</time>
      </trkpt>
      <trkpt lat="44.46457" lon="2.97439">
        <ele>434.3</ele>
        <time>2021-08-17T10:22:35Z</time>
      </trkpt>
      <trkpt lat="44.46461" lon="2.97438">
        <ele>434.3</ele>
        <time>2021-08-17T10:22:37Z</time>
      </trkpt>
      <trkpt lat="44.46464" lon="2.97437">
        <ele>434.3</ele>
        <time>2021-08-17T10:22:39Z</time>
      </trkpt>
      <trkpt lat="44.46469" lon="2.97436">
        <ele>434.3</ele>
        <time>2021-08-17T10:22:41Z</time>
      </trkpt>
      <trkpt lat="44.46473" lon="2.97433">
        <ele>434.3</ele>
        <time>2021-08-17T10:22:43Z</time>
      </trkpt>
      <trkpt lat="44.46477" lon="2.97433">
        <ele>434.3</ele>
        <time>2021-08-17T10:22:45Z</time>
      </trkpt>
      <trkpt lat="44.46477" lon="2.97432">
        <ele>434.3</ele>
        <time>2021-08-17T10:22:47Z</time>
      </trkpt>
      <trkpt lat="44.46478" lon="2.97431">
        <ele>434.2</ele>
        <time>2021-08-17T10:22:49Z</time>
      </trkpt>
      <trkpt lat="44.46478" lon="2.9743">
        <ele>434.2</ele>
        <time>2021-08-17T10:22:51Z</time>
      </trkpt>
      <trkpt lat="44.46478" lon="2.9743">
        <ele>434.2</ele>
        <time>2021-08-17T10:22:53Z</time>
      </trkpt>
      <trkpt lat="44.46479" lon="2.9743">
        <ele>434.2</ele>
        <time>2021-08-17T10:22:55Z</time>
      </trkpt>
      <trkpt lat="44.46492" lon="2.9741">
        <ele>434</ele>
        <time>2021-08-17T10:23:51Z</time>
      </trkpt>
      <trkpt lat="44.46496" lon="2.97406">
        <ele>434</ele>
        <time>2021-08-17T10:23:53Z</time>
      </trkpt>
      <trkpt lat="44.46501" lon="2.97403">
        <ele>434</ele>
        <time>2021-08-17T10:23:55Z</time>
      </trkpt>
      <trkpt lat="44.46505" lon="2.974">
        <ele>434</ele>
        <time>2021-08-17T10:23:57Z</time>
      </trkpt>
      <trkpt lat="44.4651" lon="2.97397">
        <ele>434</ele>
        <time>2021-08-17T10:23:59Z</time>
      </trkpt>
      <trkpt lat="44.46514" lon="2.97392">
        <ele>434</ele>
        <time>2021-08-17T10:24:01Z</time>
      </trkpt>
      <trkpt lat="44.46517" lon="2.97388">
        <ele>434.1</ele>
        <time>2021-08-17T10:24:03Z</time>
      </trkpt>
      <trkpt lat="44.46521" lon="2.97384">
        <ele>434.1</ele>
        <time>2021-08-17T10:24:05Z</time>
      </trkpt>
      <trkpt lat="44.46525" lon="2.9738">
        <ele>434.1</ele>
        <time>2021-08-17T10:24:07Z</time>
      </trkpt>
      <trkpt lat="44.46528" lon="2.97376">
        <ele>434.2</ele>
        <time>2021-08-17T10:24:09Z</time>
      </trkpt>
      <trkpt lat="44.46532" lon="2.97373">
        <ele>434.2</ele>
        <time>2021-08-17T10:24:11Z</time>
      </trkpt>
      <trkpt lat="44.46535" lon="2.97369">
        <ele>434.2</ele>
        <time>2021-08-17T10:24:13Z</time>
      </trkpt>
      <trkpt lat="44.46537" lon="2.97364">
        <ele>434.3</ele>
        <time>2021-08-17T10:24:15Z</time>
      </trkpt>
      <trkpt lat="44.46541" lon="2.9736">
        <ele>434.3</ele>
        <time>2021-08-17T10:24:17Z</time>
      </trkpt>
      <trkpt lat="44.46545" lon="2.97359">
        <ele>434.4</ele>
        <time>2021-08-17T10:24:19Z</time>
      </trkpt>
      <trkpt lat="44.46549" lon="2.97358">
        <ele>434.4</ele>
        <time>2021-08-17T10:24:21Z</time>
      </trkpt>
      <trkpt lat="44.46553" lon="2.97358">
        <ele>434.5</ele>
        <time>2021-08-17T10:24:23Z</time>
      </trkpt>
      <trkpt lat="44.46559" lon="2.97354">
        <ele>434.5</ele>
        <time>2021-08-17T10:24:25Z</time>
      </trkpt>
      <trkpt lat="44.46562" lon="2.9735">
        <ele>434.6</ele>
        <time>2021-08-17T10:24:27Z</time>
      </trkpt>
      <trkpt lat="44.46566" lon="2.97346">
        <ele>434.7</ele>
        <time>2021-08-17T10:24:29Z</time>
      </trkpt>
      <trkpt lat="44.46574" lon="2.97345">
        <ele>434.8</ele>
        <time>2021-08-17T10:24:31Z</time>
      </trkpt>
      <trkpt lat="44.4658" lon="2.97344">
        <ele>434.8</ele>
        <time>2021-08-17T10:24:33Z</time>
      </trkpt>
      <trkpt lat="44.46584" lon="2.97341">
        <ele>434.9</ele>
        <time>2021-08-17T10:24:35Z</time>
      </trkpt>
      <trkpt lat="44.46587" lon="2.97336">
        <ele>434.8</ele>
        <time>2021-08-17T10:24:37Z</time>
      </trkpt>
      <trkpt lat="44.4659" lon="2.97332">
        <ele>434.6</ele>
        <time>2021-08-17T10:24:39Z</time>
      </trkpt>
      <trkpt lat="44.46594" lon="2.97327">
        <ele>434.2</ele>
        <time>2021-08-17T10:24:41Z</time>
      </trkpt>
      <trkpt lat="44.46597" lon="2.97323">
        <ele>433.8</ele>
        <time>2021-08-17T10:24:43Z</time>
      </trkpt>
      <trkpt lat="44.466" lon="2.97318">
        <ele>433.5</ele>
        <time>2021-08-17T10:24:45Z</time>
      </trkpt>
      <trkpt lat="44.46603" lon="2.97313">
        <ele>433.1</ele>
        <time>2021-08-17T10:24:47Z</time>
      </trkpt>
      <trkpt lat="44.46604" lon="2.9731">
        <ele>432.9</ele>
        <time>2021-08-17T10:24:49Z</time>
      </trkpt>
      <trkpt lat="44.46603" lon="2.97307">
        <ele>432.9</ele>
        <time>2021-08-17T10:24:51Z</time>
      </trkpt>
      <trkpt lat="44.46601" lon="2.97303">
        <ele>432.7</ele>
        <time>2021-08-17T10:24:53Z</time>
      </trkpt>
      <trkpt lat="44.46599" lon="2.97299">
        <ele>432.7</ele>
        <time>2021-08-17T10:24:55Z</time>
      </trkpt>
      <trkpt lat="44.466" lon="2.97297">
        <ele>432.6</ele>
        <time>2021-08-17T10:24:57Z</time>
      </trkpt>
      <trkpt lat="44.46601" lon="2.973">
        <ele>432.6</ele>
        <time>2021-08-17T10:33:09Z</time>
      </trkpt>
      <trkpt lat="44.46601" lon="2.973">
        <ele>432.6</ele>
        <time>2021-08-17T10:33:11Z</time>
      </trkpt>
      <trkpt lat="44.46602" lon="2.973">
        <ele>432.6</ele>
        <time>2021-08-17T10:33:13Z</time>
      </trkpt>
      <trkpt lat="44.46603" lon="2.97305">
        <ele>432.8</ele>
        <time>2021-08-17T10:33:15Z</time>
      </trkpt>
      <trkpt lat="44.46605" lon="2.9731">
        <ele>432.9</ele>
        <time>2021-08-17T10:33:17Z</time>
      </trkpt>
      <trkpt lat="44.46606" lon="2.97312">
        <ele>432.9</ele>
        <time>2021-08-17T10:33:19Z</time>
      </trkpt>
      <trkpt lat="44.46608" lon="2.97312">
        <ele>432.9</ele>
        <time>2021-08-17T10:33:21Z</time>
      </trkpt>
      <trkpt lat="44.46612" lon="2.97308">
        <ele>432.5</ele>
        <time>2021-08-17T10:33:23Z</time>
      </trkpt>
      <trkpt lat="44.46614" lon="2.97302">
        <ele>432.2</ele>
        <time>2021-08-17T10:33:25Z</time>
      </trkpt>
      <trkpt lat="44.46616" lon="2.973">
        <ele>432</ele>
        <time>2021-08-17T10:33:27Z</time>
      </trkpt>
      <trkpt lat="44.46617" lon="2.97298">
        <ele>431.9</ele>
        <time>2021-08-17T10:33:29Z</time>
      </trkpt>
      <trkpt lat="44.46616" lon="2.97298">
        <ele>431.9</ele>
        <time>2021-08-17T10:33:31Z</time>
      </trkpt>
      <trkpt lat="44.46616" lon="2.97297">
        <ele>431.9</ele>
        <time>2021-08-17T10:33:33Z</time>
      </trkpt>
      <trkpt lat="44.46615" lon="2.97296">
        <ele>431.9</ele>
        <time>2021-08-17T10:33:35Z</time>
      </trkpt>
      <trkpt lat="44.46614" lon="2.97296">
        <ele>431.9</ele>
        <time>2021-08-17T10:33:37Z</time>
      </trkpt>
      <trkpt lat="44.46623" lon="2.97276">
        <ele>430.7</ele>
        <time>2021-08-17T10:34:37Z</time>
      </trkpt>
      <trkpt lat="44.46626" lon="2.97272">
        <ele>430.4</ele>
        <time>2021-08-17T10:34:39Z</time>
      </trkpt>
      <trkpt lat="44.4663" lon="2.97268">
        <ele>430.1</ele>
        <time>2021-08-17T10:34:41Z</time>
      </trkpt>
      <trkpt lat="44.46632" lon="2.97261">
        <ele>429.7</ele>
        <time>2021-08-17T10:34:43Z</time>
      </trkpt>
      <trkpt lat="44.46633" lon="2.97253">
        <ele>429.3</ele>
        <time>2021-08-17T10:34:45Z</time>
      </trkpt>
      <trkpt lat="44.46633" lon="2.97245">
        <ele>429.1</ele>
        <time>2021-08-17T10:34:47Z</time>
      </trkpt>
      <trkpt lat="44.46634" lon="2.9724">
        <ele>429</ele>
        <time>2021-08-17T10:34:49Z</time>
      </trkpt>
      <trkpt lat="44.46636" lon="2.97238">
        <ele>428.9</ele>
        <time>2021-08-17T10:34:51Z</time>
      </trkpt>
      <trkpt lat="44.46636" lon="2.97236">
        <ele>428.8</ele>
        <time>2021-08-17T10:34:53Z</time>
      </trkpt>
      <trkpt lat="44.46635" lon="2.97231">
        <ele>428.7</ele>
        <time>2021-08-17T10:34:55Z</time>
      </trkpt>
      <trkpt lat="44.46635" lon="2.97226">
        <ele>428.6</ele>
        <time>2021-08-17T10:34:57Z</time>
      </trkpt>
      <trkpt lat="44.46636" lon="2.97222">
        <ele>428.5</ele>
        <time>2021-08-17T10:34:59Z</time>
      </trkpt>
      <trkpt lat="44.46637" lon="2.97219">
        <ele>428.4</ele>
        <time>2021-08-17T10:35:01Z</time>
      </trkpt>
      <trkpt lat="44.46638" lon="2.97215">
        <ele>428.3</ele>
        <time>2021-08-17T10:35:03Z</time>
      </trkpt>
      <trkpt lat="44.4664" lon="2.97211">
        <ele>428.2</ele>
        <time>2021-08-17T10:35:05Z</time>
      </trkpt>
      <trkpt lat="44.46642" lon="2.97208">
        <ele>428.1</ele>
        <time>2021-08-17T10:35:07Z</time>
      </trkpt>
      <trkpt lat="44.46645" lon="2.97207">
        <ele>428</ele>
        <time>2021-08-17T10:35:09Z</time>
      </trkpt>
      <trkpt lat="44.46647" lon="2.97205">
        <ele>427.9</ele>
        <time>2021-08-17T10:35:11Z</time>
      </trkpt>
      <trkpt lat="44.46646" lon="2.97205">
        <ele>427.9</ele>
        <time>2021-08-17T10:35:13Z</time>
      </trkpt>
      <trkpt lat="44.46646" lon="2.97205">
        <ele>427.9</ele>
        <time>2021-08-17T10:35:15Z</time>
      </trkpt>
      <trkpt lat="44.46646" lon="2.97205">
        <ele>427.9</ele>
        <time>2021-08-17T10:35:17Z</time>
      </trkpt>
      <trkpt lat="44.46646" lon="2.97206">
        <ele>427.9</ele>
        <time>2021-08-17T10:35:19Z</time>
      </trkpt>
      <trkpt lat="44.46647" lon="2.97206">
        <ele>427.9</ele>
        <time>2021-08-17T10:35:39Z</time>
      </trkpt>
      <trkpt lat="44.46647" lon="2.97206">
        <ele>427.9</ele>
        <time>2021-08-17T10:35:41Z</time>
      </trkpt>
      <trkpt lat="44.46649" lon="2.97203">
        <ele>427.8</ele>
        <time>2021-08-17T10:35:43Z</time>
      </trkpt>
      <trkpt lat="44.4665" lon="2.972">
        <ele>427.8</ele>
        <time>2021-08-17T10:35:45Z</time>
      </trkpt>
      <trkpt lat="44.46652" lon="2.97197">
        <ele>427.7</ele>
        <time>2021-08-17T10:35:47Z</time>
      </trkpt>
      <trkpt lat="44.46655" lon="2.97194">
        <ele>427.6</ele>
        <time>2021-08-17T10:35:49Z</time>
      </trkpt>
      <trkpt lat="44.46659" lon="2.97192">
        <ele>427.4</ele>
        <time>2021-08-17T10:35:51Z</time>
      </trkpt>
      <trkpt lat="44.46661" lon="2.97189">
        <ele>427.4</ele>
        <time>2021-08-17T10:35:53Z</time>
      </trkpt>
      <trkpt lat="44.4666" lon="2.97186">
        <ele>427.4</ele>
        <time>2021-08-17T10:35:55Z</time>
      </trkpt>
      <trkpt lat="44.46657" lon="2.97187">
        <ele>427.4</ele>
        <time>2021-08-17T10:35:57Z</time>
      </trkpt>
      <trkpt lat="44.46657" lon="2.97188">
        <ele>427.4</ele>
        <time>2021-08-17T10:35:59Z</time>
      </trkpt>
      <trkpt lat="44.46657" lon="2.97189">
        <ele>427.4</ele>
        <time>2021-08-17T10:36:01Z</time>
      </trkpt>
      <trkpt lat="44.46657" lon="2.97189">
        <ele>427.4</ele>
        <time>2021-08-17T10:36:03Z</time>
      </trkpt>
      <trkpt lat="44.46657" lon="2.97189">
        <ele>427.4</ele>
        <time>2021-08-17T10:36:05Z</time>
      </trkpt>
      <trkpt lat="44.46657" lon="2.97189">
        <ele>427.4</ele>
        <time>2021-08-17T10:36:07Z</time>
      </trkpt>
      <trkpt lat="44.46649" lon="2.97201">
        <ele>427.8</ele>
        <time>2021-08-17T10:37:07Z</time>
      </trkpt>
      <trkpt lat="44.46647" lon="2.97204">
        <ele>427.9</ele>
        <time>2021-08-17T10:37:09Z</time>
      </trkpt>
      <trkpt lat="44.46645" lon="2.97206">
        <ele>428</ele>
        <time>2021-08-17T10:37:11Z</time>
      </trkpt>
      <trkpt lat="44.46642" lon="2.9721">
        <ele>428.1</ele>
        <time>2021-08-17T10:37:13Z</time>
      </trkpt>
      <trkpt lat="44.4664" lon="2.97213">
        <ele>428.2</ele>
        <time>2021-08-17T10:37:15Z</time>
      </trkpt>
      <trkpt lat="44.46638" lon="2.97216">
        <ele>428.4</ele>
        <time>2021-08-17T10:37:17Z</time>
      </trkpt>
      <trkpt lat="44.46636" lon="2.97219">
        <ele>428.4</ele>
        <time>2021-08-17T10:37:19Z</time>
      </trkpt>
      <trkpt lat="44.46634" lon="2.97222">
        <ele>428.6</ele>
        <time>2021-08-17T10:37:21Z</time>
      </trkpt>
      <trkpt lat="44.46633" lon="2.97224">
        <ele>428.7</ele>
        <time>2021-08-17T10:37:23Z</time>
      </trkpt>
      <trkpt lat="44.46632" lon="2.97228">
        <ele>428.8</ele>
        <time>2021-08-17T10:37:25Z</time>
      </trkpt>
      <trkpt lat="44.46633" lon="2.97234">
        <ele>428.8</ele>
        <time>2021-08-17T10:37:27Z</time>
      </trkpt>
      <trkpt lat="44.46635" lon="2.97237">
        <ele>428.9</ele>
        <time>2021-08-17T10:37:29Z</time>
      </trkpt>
      <trkpt lat="44.46637" lon="2.9724">
        <ele>428.8</ele>
        <time>2021-08-17T10:37:31Z</time>
      </trkpt>
      <trkpt lat="44.46639" lon="2.97242">
        <ele>428.8</ele>
        <time>2021-08-17T10:37:33Z</time>
      </trkpt>
      <trkpt lat="44.46639" lon="2.97242">
        <ele>428.8</ele>
        <time>2021-08-17T10:37:35Z</time>
      </trkpt>
      <trkpt lat="44.46639" lon="2.97242">
        <ele>428.8</ele>
        <time>2021-08-17T10:37:37Z</time>
      </trkpt>
      <trkpt lat="44.46639" lon="2.97242">
        <ele>428.8</ele>
        <time>2021-08-17T10:37:39Z</time>
      </trkpt>
      <trkpt lat="44.46639" lon="2.97242">
        <ele>428.8</ele>
        <time>2021-08-17T10:37:41Z</time>
      </trkpt>
      <trkpt lat="44.46639" lon="2.97242">
        <ele>428.8</ele>
        <time>2021-08-17T10:37:43Z</time>
      </trkpt>
      <trkpt lat="44.4664" lon="2.97216">
        <ele>428.3</ele>
        <time>2021-08-17T10:38:41Z</time>
      </trkpt>
      <trkpt lat="44.46641" lon="2.97216">
        <ele>428.3</ele>
        <time>2021-08-17T10:38:43Z</time>
      </trkpt>
      <trkpt lat="44.46641" lon="2.97216">
        <ele>428.3</ele>
        <time>2021-08-17T10:38:45Z</time>
      </trkpt>
      <trkpt lat="44.46641" lon="2.97216">
        <ele>428.3</ele>
        <time>2021-08-17T10:38:47Z</time>
      </trkpt>
      <trkpt lat="44.4664" lon="2.97215">
        <ele>428.3</ele>
        <time>2021-08-17T10:38:49Z</time>
      </trkpt>
      <trkpt lat="44.4664" lon="2.97214">
        <ele>428.3</ele>
        <time>2021-08-17T10:38:51Z</time>
      </trkpt>
      <trkpt lat="44.4664" lon="2.97213">
        <ele>428.2</ele>
        <time>2021-08-17T10:38:53Z</time>
      </trkpt>
      <trkpt lat="44.46641" lon="2.97211">
        <ele>428.2</ele>
        <time>2021-08-17T10:38:55Z</time>
      </trkpt>
      <trkpt lat="44.46643" lon="2.97207">
        <ele>428</ele>
        <time>2021-08-17T10:38:57Z</time>
      </trkpt>
      <trkpt lat="44.46646" lon="2.97204">
        <ele>427.9</ele>
        <time>2021-08-17T10:38:59Z</time>
      </trkpt>
      <trkpt lat="44.46648" lon="2.97202">
        <ele>427.8</ele>
        <time>2021-08-17T10:39:01Z</time>
      </trkpt>
      <trkpt lat="44.46649" lon="2.97202">
        <ele>427.8</ele>
        <time>2021-08-17T10:39:03Z</time>
      </trkpt>
      <trkpt lat="44.46649" lon="2.97202">
        <ele>427.8</ele>
        <time>2021-08-17T10:39:05Z</time>
      </trkpt>
      <trkpt lat="44.46649" lon="2.97202">
        <ele>427.8</ele>
        <time>2021-08-17T10:39:07Z</time>
      </trkpt>
      <trkpt lat="44.46649" lon="2.97202">
        <ele>427.8</ele>
        <time>2021-08-17T10:39:09Z</time>
      </trkpt>
      <trkpt lat="44.46658" lon="2.97193">
        <ele>427.5</ele>
        <time>2021-08-17T10:39:35Z</time>
      </trkpt>
      <trkpt lat="44.46661" lon="2.9719">
        <ele>427.4</ele>
        <time>2021-08-17T10:39:37Z</time>
      </trkpt>
      <trkpt lat="44.46663" lon="2.97187">
        <ele>427.3</ele>
        <time>2021-08-17T10:39:39Z</time>
      </trkpt>
      <trkpt lat="44.46665" lon="2.97185">
        <ele>427.2</ele>
        <time>2021-08-17T10:39:41Z</time>
      </trkpt>
      <trkpt lat="44.46668" lon="2.97182">
        <ele>427.3</ele>
        <time>2021-08-17T10:39:43Z</time>
      </trkpt>
      <trkpt lat="44.4667" lon="2.9718">
        <ele>427.5</ele>
        <time>2021-08-17T10:39:45Z</time>
      </trkpt>
      <trkpt lat="44.46674" lon="2.97177">
        <ele>427.8</ele>
        <time>2021-08-17T10:39:47Z</time>
      </trkpt>
      <trkpt lat="44.46677" lon="2.97173">
        <ele>428.1</ele>
        <time>2021-08-17T10:39:49Z</time>
      </trkpt>
      <trkpt lat="44.46681" lon="2.97168">
        <ele>428.6</ele>
        <time>2021-08-17T10:39:51Z</time>
      </trkpt>
      <trkpt lat="44.46684" lon="2.97165">
        <ele>428.9</ele>
        <time>2021-08-17T10:39:53Z</time>
      </trkpt>
      <trkpt lat="44.46686" lon="2.97163">
        <ele>429.2</ele>
        <time>2021-08-17T10:39:55Z</time>
      </trkpt>
      <trkpt lat="44.46689" lon="2.9716">
        <ele>429.6</ele>
        <time>2021-08-17T10:39:57Z</time>
      </trkpt>
      <trkpt lat="44.4669" lon="2.97158">
        <ele>429.8</ele>
        <time>2021-08-17T10:39:59Z</time>
      </trkpt>
      <trkpt lat="44.46692" lon="2.97157">
        <ele>430</ele>
        <time>2021-08-17T10:40:01Z</time>
      </trkpt>
      <trkpt lat="44.46693" lon="2.97154">
        <ele>430.3</ele>
        <time>2021-08-17T10:40:03Z</time>
      </trkpt>
      <trkpt lat="44.46694" lon="2.9715">
        <ele>430.4</ele>
        <time>2021-08-17T10:40:05Z</time>
      </trkpt>
      <trkpt lat="44.46691" lon="2.97147">
        <ele>430.3</ele>
        <time>2021-08-17T10:40:07Z</time>
      </trkpt>
      <trkpt lat="44.46689" lon="2.97144">
        <ele>430.1</ele>
        <time>2021-08-17T10:40:09Z</time>
      </trkpt>
      <trkpt lat="44.46687" lon="2.97142">
        <ele>430</ele>
        <time>2021-08-17T10:40:11Z</time>
      </trkpt>
      <trkpt lat="44.46685" lon="2.9714">
        <ele>429.8</ele>
        <time>2021-08-17T10:40:13Z</time>
      </trkpt>
      <trkpt lat="44.46684" lon="2.97136">
        <ele>429.8</ele>
        <time>2021-08-17T10:40:15Z</time>
      </trkpt>
      <trkpt lat="44.46684" lon="2.97135">
        <ele>429.9</ele>
        <time>2021-08-17T10:40:17Z</time>
      </trkpt>
      <trkpt lat="44.46685" lon="2.97135">
        <ele>429.9</ele>
        <time>2021-08-17T10:40:19Z</time>
      </trkpt>
      <trkpt lat="44.46685" lon="2.97135">
        <ele>429.9</ele>
        <time>2021-08-17T10:40:21Z</time>
      </trkpt>
      <trkpt lat="44.46685" lon="2.97134">
        <ele>430</ele>
        <time>2021-08-17T10:40:23Z</time>
      </trkpt>
      <trkpt lat="44.46685" lon="2.97134">
        <ele>429.9</ele>
        <time>2021-08-17T10:40:25Z</time>
      </trkpt>
      <trkpt lat="44.46684" lon="2.97138">
        <ele>429.8</ele>
        <time>2021-08-17T10:41:41Z</time>
      </trkpt>
      <trkpt lat="44.46684" lon="2.97138">
        <ele>429.8</ele>
        <time>2021-08-17T10:41:43Z</time>
      </trkpt>
      <trkpt lat="44.46685" lon="2.97138">
        <ele>429.8</ele>
        <time>2021-08-17T10:41:45Z</time>
      </trkpt>
      <trkpt lat="44.46685" lon="2.97137">
        <ele>429.8</ele>
        <time>2021-08-17T10:41:47Z</time>
      </trkpt>
      <trkpt lat="44.46684" lon="2.97135">
        <ele>429.9</ele>
        <time>2021-08-17T10:41:49Z</time>
      </trkpt>
      <trkpt lat="44.46682" lon="2.97132">
        <ele>429.7</ele>
        <time>2021-08-17T10:41:51Z</time>
      </trkpt>
      <trkpt lat="44.46679" lon="2.9713">
        <ele>429.6</ele>
        <time>2021-08-17T10:41:53Z</time>
      </trkpt>
      <trkpt lat="44.46676" lon="2.97126">
        <ele>429.4</ele>
        <time>2021-08-17T10:41:55Z</time>
      </trkpt>
      <trkpt lat="44.46675" lon="2.97124">
        <ele>429.3</ele>
        <time>2021-08-17T10:41:57Z</time>
      </trkpt>
      <trkpt lat="44.46673" lon="2.97121">
        <ele>429.2</ele>
        <time>2021-08-17T10:41:59Z</time>
      </trkpt>
      <trkpt lat="44.46672" lon="2.97119">
        <ele>429.2</ele>
        <time>2021-08-17T10:42:01Z</time>
      </trkpt>
      <trkpt lat="44.46672" lon="2.97117">
        <ele>429.3</ele>
        <time>2021-08-17T10:42:03Z</time>
      </trkpt>
      <trkpt lat="44.46673" lon="2.97117">
        <ele>429.4</ele>
        <time>2021-08-17T10:42:05Z</time>
      </trkpt>
      <trkpt lat="44.46672" lon="2.97117">
        <ele>429.3</ele>
        <time>2021-08-17T10:42:07Z</time>
      </trkpt>
      <trkpt lat="44.46672" lon="2.97116">
        <ele>429.4</ele>
        <time>2021-08-17T10:42:09Z</time>
      </trkpt>
      <trkpt lat="44.46658" lon="2.971">
        <ele>429</ele>
        <time>2021-08-17T10:47:49Z</time>
      </trkpt>
      <trkpt lat="44.46654" lon="2.97098">
        <ele>428.9</ele>
        <time>2021-08-17T10:47:51Z</time>
      </trkpt>
      <trkpt lat="44.46651" lon="2.97097">
        <ele>428.8</ele>
        <time>2021-08-17T10:47:53Z</time>
      </trkpt>
      <trkpt lat="44.46649" lon="2.97097">
        <ele>428.6</ele>
        <time>2021-08-17T10:47:55Z</time>
      </trkpt>
      <trkpt lat="44.46647" lon="2.97099">
        <ele>428.5</ele>
        <time>2021-08-17T10:47:57Z</time>
      </trkpt>
      <trkpt lat="44.46646" lon="2.97104">
        <ele>428.4</ele>
        <time>2021-08-17T10:47:59Z</time>
      </trkpt>
      <trkpt lat="44.46644" lon="2.97107">
        <ele>428.3</ele>
        <time>2021-08-17T10:48:01Z</time>
      </trkpt>
      <trkpt lat="44.46642" lon="2.9711">
        <ele>428.1</ele>
        <time>2021-08-17T10:48:03Z</time>
      </trkpt>
      <trkpt lat="44.46641" lon="2.97112">
        <ele>428.1</ele>
        <time>2021-08-17T10:48:05Z</time>
      </trkpt>
      <trkpt lat="44.4664" lon="2.97114">
        <ele>428</ele>
        <time>2021-08-17T10:48:07Z</time>
      </trkpt>
      <trkpt lat="44.46638" lon="2.97116">
        <ele>427.9</ele>
        <time>2021-08-17T10:48:09Z</time>
      </trkpt>
      <trkpt lat="44.46638" lon="2.97118">
        <ele>427.9</ele>
        <time>2021-08-17T10:48:11Z</time>
      </trkpt>
      <trkpt lat="44.46639" lon="2.9712">
        <ele>427.9</ele>
        <time>2021-08-17T10:48:13Z</time>
      </trkpt>
      <trkpt lat="44.46639" lon="2.97123">
        <ele>427.9</ele>
        <time>2021-08-17T10:48:15Z</time>
      </trkpt>
      <trkpt lat="44.46639" lon="2.97124">
        <ele>427.9</ele>
        <time>2021-08-17T10:48:17Z</time>
      </trkpt>
      <trkpt lat="44.46638" lon="2.97122">
        <ele>427.8</ele>
        <time>2021-08-17T10:49:27Z</time>
      </trkpt>
      <trkpt lat="44.46636" lon="2.97119">
        <ele>427.8</ele>
        <time>2021-08-17T10:49:29Z</time>
      </trkpt>
      <trkpt lat="44.46634" lon="2.97116">
        <ele>427.8</ele>
        <time>2021-08-17T10:49:31Z</time>
      </trkpt>
      <trkpt lat="44.46631" lon="2.97113">
        <ele>427.7</ele>
        <time>2021-08-17T10:49:33Z</time>
      </trkpt>
      <trkpt lat="44.46629" lon="2.97113">
        <ele>427.6</ele>
        <time>2021-08-17T10:49:35Z</time>
      </trkpt>
      <trkpt lat="44.46626" lon="2.97111">
        <ele>427.5</ele>
        <time>2021-08-17T10:49:37Z</time>
      </trkpt>
      <trkpt lat="44.46623" lon="2.9711">
        <ele>427.4</ele>
        <time>2021-08-17T10:49:39Z</time>
      </trkpt>
      <trkpt lat="44.46619" lon="2.97108">
        <ele>427.3</ele>
        <time>2021-08-17T10:49:41Z</time>
      </trkpt>
      <trkpt lat="44.46616" lon="2.97105">
        <ele>427.1</ele>
        <time>2021-08-17T10:49:43Z</time>
      </trkpt>
      <trkpt lat="44.46613" lon="2.97102">
        <ele>427</ele>
        <time>2021-08-17T10:49:45Z</time>
      </trkpt>
      <trkpt lat="44.4661" lon="2.97099">
        <ele>426.8</ele>
        <time>2021-08-17T10:49:47Z</time>
      </trkpt>
      <trkpt lat="44.46608" lon="2.97095">
        <ele>426.7</ele>
        <time>2021-08-17T10:49:49Z</time>
      </trkpt>
      <trkpt lat="44.46606" lon="2.97093">
        <ele>426.5</ele>
        <time>2021-08-17T10:49:51Z</time>
      </trkpt>
      <trkpt lat="44.46603" lon="2.97091">
        <ele>426.4</ele>
        <time>2021-08-17T10:49:53Z</time>
      </trkpt>
      <trkpt lat="44.466" lon="2.9709">
        <ele>426.1</ele>
        <time>2021-08-17T10:49:55Z</time>
      </trkpt>
      <trkpt lat="44.46598" lon="2.97085">
        <ele>425.9</ele>
        <time>2021-08-17T10:49:57Z</time>
      </trkpt>
      <trkpt lat="44.46597" lon="2.97081">
        <ele>425.9</ele>
        <time>2021-08-17T10:49:59Z</time>
      </trkpt>
      <trkpt lat="44.46595" lon="2.97079">
        <ele>425.9</ele>
        <time>2021-08-17T10:50:01Z</time>
      </trkpt>
      <trkpt lat="44.46592" lon="2.97077">
        <ele>425.9</ele>
        <time>2021-08-17T10:50:03Z</time>
      </trkpt>
      <trkpt lat="44.4659" lon="2.97075">
        <ele>425.9</ele>
        <time>2021-08-17T10:50:05Z</time>
      </trkpt>
      <trkpt lat="44.46588" lon="2.97072">
        <ele>425.8</ele>
        <time>2021-08-17T10:50:07Z</time>
      </trkpt>
      <trkpt lat="44.46585" lon="2.97068">
        <ele>425.9</ele>
        <time>2021-08-17T10:50:09Z</time>
      </trkpt>
      <trkpt lat="44.46582" lon="2.97064">
        <ele>425.9</ele>
        <time>2021-08-17T10:50:11Z</time>
      </trkpt>
      <trkpt lat="44.4658" lon="2.97061">
        <ele>426.1</ele>
        <time>2021-08-17T10:50:13Z</time>
      </trkpt>
      <trkpt lat="44.46578" lon="2.97058">
        <ele>426.2</ele>
        <time>2021-08-17T10:50:15Z</time>
      </trkpt>
      <trkpt lat="44.46577" lon="2.97056">
        <ele>426.3</ele>
        <time>2021-08-17T10:50:17Z</time>
      </trkpt>
      <trkpt lat="44.46575" lon="2.97055">
        <ele>426.3</ele>
        <time>2021-08-17T10:50:19Z</time>
      </trkpt>
      <trkpt lat="44.46574" lon="2.97053">
        <ele>426.4</ele>
        <time>2021-08-17T10:50:21Z</time>
      </trkpt>
      <trkpt lat="44.46572" lon="2.97049">
        <ele>426.5</ele>
        <time>2021-08-17T10:50:23Z</time>
      </trkpt>
      <trkpt lat="44.4657" lon="2.97047">
        <ele>426.6</ele>
        <time>2021-08-17T10:50:25Z</time>
      </trkpt>
      <trkpt lat="44.46568" lon="2.97044">
        <ele>426.6</ele>
        <time>2021-08-17T10:50:27Z</time>
      </trkpt>
      <trkpt lat="44.46565" lon="2.97041">
        <ele>426.7</ele>
        <time>2021-08-17T10:50:29Z</time>
      </trkpt>
      <trkpt lat="44.46563" lon="2.97039">
        <ele>426.7</ele>
        <time>2021-08-17T10:50:31Z</time>
      </trkpt>
      <trkpt lat="44.46561" lon="2.97036">
        <ele>426.7</ele>
        <time>2021-08-17T10:50:33Z</time>
      </trkpt>
      <trkpt lat="44.46559" lon="2.97034">
        <ele>426.7</ele>
        <time>2021-08-17T10:50:35Z</time>
      </trkpt>
      <trkpt lat="44.46556" lon="2.97031">
        <ele>426.7</ele>
        <time>2021-08-17T10:50:37Z</time>
      </trkpt>
      <trkpt lat="44.46554" lon="2.97029">
        <ele>426.7</ele>
        <time>2021-08-17T10:50:39Z</time>
      </trkpt>
      <trkpt lat="44.46552" lon="2.97026">
        <ele>426.7</ele>
        <time>2021-08-17T10:50:41Z</time>
      </trkpt>
      <trkpt lat="44.46549" lon="2.97022">
        <ele>426.6</ele>
        <time>2021-08-17T10:50:43Z</time>
      </trkpt>
      <trkpt lat="44.46546" lon="2.97019">
        <ele>426.6</ele>
        <time>2021-08-17T10:50:45Z</time>
      </trkpt>
      <trkpt lat="44.46544" lon="2.97016">
        <ele>426.5</ele>
        <time>2021-08-17T10:50:47Z</time>
      </trkpt>
      <trkpt lat="44.46542" lon="2.97013">
        <ele>426.4</ele>
        <time>2021-08-17T10:50:49Z</time>
      </trkpt>
      <trkpt lat="44.4654" lon="2.97013">
        <ele>426.3</ele>
        <time>2021-08-17T10:50:51Z</time>
      </trkpt>
      <trkpt lat="44.46537" lon="2.9701">
        <ele>426.2</ele>
        <time>2021-08-17T10:50:53Z</time>
      </trkpt>
      <trkpt lat="44.46535" lon="2.97008">
        <ele>426.1</ele>
        <time>2021-08-17T10:50:55Z</time>
      </trkpt>
      <trkpt lat="44.46534" lon="2.97006">
        <ele>426</ele>
        <time>2021-08-17T10:50:57Z</time>
      </trkpt>
      <trkpt lat="44.46533" lon="2.97006">
        <ele>426</ele>
        <time>2021-08-17T10:50:59Z</time>
      </trkpt>
      <trkpt lat="44.46523" lon="2.96989">
        <ele>426.2</ele>
        <time>2021-08-17T10:52:15Z</time>
      </trkpt>
      <trkpt lat="44.46519" lon="2.96986">
        <ele>426.1</ele>
        <time>2021-08-17T10:52:17Z</time>
      </trkpt>
      <trkpt lat="44.46516" lon="2.96982">
        <ele>426</ele>
        <time>2021-08-17T10:52:19Z</time>
      </trkpt>
      <trkpt lat="44.46514" lon="2.96977">
        <ele>426.1</ele>
        <time>2021-08-17T10:52:21Z</time>
      </trkpt>
      <trkpt lat="44.46511" lon="2.96973">
        <ele>426</ele>
        <time>2021-08-17T10:52:23Z</time>
      </trkpt>
      <trkpt lat="44.46507" lon="2.96969">
        <ele>425.6</ele>
        <time>2021-08-17T10:52:25Z</time>
      </trkpt>
      <trkpt lat="44.46503" lon="2.96964">
        <ele>425.3</ele>
        <time>2021-08-17T10:52:27Z</time>
      </trkpt>
      <trkpt lat="44.465" lon="2.96959">
        <ele>425</ele>
        <time>2021-08-17T10:52:29Z</time>
      </trkpt>
      <trkpt lat="44.46496" lon="2.96956">
        <ele>425</ele>
        <time>2021-08-17T10:52:31Z</time>
      </trkpt>
      <trkpt lat="44.46493" lon="2.96951">
        <ele>425</ele>
        <time>2021-08-17T10:52:33Z</time>
      </trkpt>
      <trkpt lat="44.4649" lon="2.96947">
        <ele>425</ele>
        <time>2021-08-17T10:52:35Z</time>
      </trkpt>
      <trkpt lat="44.46488" lon="2.96943">
        <ele>425</ele>
        <time>2021-08-17T10:52:37Z</time>
      </trkpt>
      <trkpt lat="44.46486" lon="2.96939">
        <ele>425</ele>
        <time>2021-08-17T10:52:39Z</time>
      </trkpt>
      <trkpt lat="44.46485" lon="2.96937">
        <ele>425</ele>
        <time>2021-08-17T10:52:41Z</time>
      </trkpt>
      <trkpt lat="44.46483" lon="2.96935">
        <ele>425</ele>
        <time>2021-08-17T10:52:43Z</time>
      </trkpt>
      <trkpt lat="44.46483" lon="2.96931">
        <ele>425</ele>
        <time>2021-08-17T10:52:45Z</time>
      </trkpt>
      <trkpt lat="44.46485" lon="2.96932">
        <ele>425.1</ele>
        <time>2021-08-17T10:52:47Z</time>
      </trkpt>
      <trkpt lat="44.46487" lon="2.96933">
        <ele>425.1</ele>
        <time>2021-08-17T10:52:49Z</time>
      </trkpt>
      <trkpt lat="44.46487" lon="2.96934">
        <ele>425.1</ele>
        <time>2021-08-17T10:52:51Z</time>
      </trkpt>
      <trkpt lat="44.46487" lon="2.96934">
        <ele>425.1</ele>
        <time>2021-08-17T10:52:53Z</time>
      </trkpt>
      <trkpt lat="44.46507" lon="2.9692">
        <ele>427.6</ele>
        <time>2021-08-17T13:39:46Z</time>
      </trkpt>
      <trkpt lat="44.46506" lon="2.96916">
        <ele>427.4</ele>
        <time>2021-08-17T13:39:48Z</time>
      </trkpt>
      <trkpt lat="44.46504" lon="2.96912">
        <ele>427.4</ele>
        <time>2021-08-17T13:39:50Z</time>
      </trkpt>
      <trkpt lat="44.46502" lon="2.96908">
        <ele>427.3</ele>
        <time>2021-08-17T13:39:52Z</time>
      </trkpt>
      <trkpt lat="44.465" lon="2.96904">
        <ele>427.2</ele>
        <time>2021-08-17T13:39:54Z</time>
      </trkpt>
      <trkpt lat="44.46499" lon="2.969">
        <ele>427.4</ele>
        <time>2021-08-17T13:39:56Z</time>
      </trkpt>
      <trkpt lat="44.46498" lon="2.96896">
        <ele>427.6</ele>
        <time>2021-08-17T13:39:58Z</time>
      </trkpt>
      <trkpt lat="44.46496" lon="2.96891">
        <ele>427.9</ele>
        <time>2021-08-17T13:40:00Z</time>
      </trkpt>
      <trkpt lat="44.46494" lon="2.96887">
        <ele>428.1</ele>
        <time>2021-08-17T13:40:02Z</time>
      </trkpt>
      <trkpt lat="44.46492" lon="2.96882">
        <ele>428.3</ele>
        <time>2021-08-17T13:40:04Z</time>
      </trkpt>
      <trkpt lat="44.46491" lon="2.96877">
        <ele>428.5</ele>
        <time>2021-08-17T13:40:06Z</time>
      </trkpt>
      <trkpt lat="44.46488" lon="2.96872">
        <ele>428.6</ele>
        <time>2021-08-17T13:40:08Z</time>
      </trkpt>
      <trkpt lat="44.46487" lon="2.96867">
        <ele>428.8</ele>
        <time>2021-08-17T13:40:10Z</time>
      </trkpt>
      <trkpt lat="44.46484" lon="2.96863">
        <ele>428.9</ele>
        <time>2021-08-17T13:40:12Z</time>
      </trkpt>
      <trkpt lat="44.46483" lon="2.96858">
        <ele>429.1</ele>
        <time>2021-08-17T13:40:14Z</time>
      </trkpt>
      <trkpt lat="44.46481" lon="2.96853">
        <ele>429.2</ele>
        <time>2021-08-17T13:40:16Z</time>
      </trkpt>
      <trkpt lat="44.46479" lon="2.96848">
        <ele>429.3</ele>
        <time>2021-08-17T13:40:18Z</time>
      </trkpt>
      <trkpt lat="44.46477" lon="2.96843">
        <ele>429.3</ele>
        <time>2021-08-17T13:40:20Z</time>
      </trkpt>
      <trkpt lat="44.46475" lon="2.96838">
        <ele>429.4</ele>
        <time>2021-08-17T13:40:22Z</time>
      </trkpt>
      <trkpt lat="44.46472" lon="2.96836">
        <ele>429.2</ele>
        <time>2021-08-17T13:40:24Z</time>
      </trkpt>
      <trkpt lat="44.4647" lon="2.96832">
        <ele>429.2</ele>
        <time>2021-08-17T13:40:26Z</time>
      </trkpt>
      <trkpt lat="44.46471" lon="2.96826">
        <ele>429.6</ele>
        <time>2021-08-17T13:40:28Z</time>
      </trkpt>
      <trkpt lat="44.4647" lon="2.96821">
        <ele>429.8</ele>
        <time>2021-08-17T13:40:30Z</time>
      </trkpt>
      <trkpt lat="44.46468" lon="2.96817">
        <ele>430</ele>
        <time>2021-08-17T13:40:32Z</time>
      </trkpt>
      <trkpt lat="44.46466" lon="2.96812">
        <ele>430</ele>
        <time>2021-08-17T13:40:34Z</time>
      </trkpt>
      <trkpt lat="44.46464" lon="2.96808">
        <ele>430.1</ele>
        <time>2021-08-17T13:40:36Z</time>
      </trkpt>
      <trkpt lat="44.46464" lon="2.96803">
        <ele>430.3</ele>
        <time>2021-08-17T13:40:38Z</time>
      </trkpt>
      <trkpt lat="44.46463" lon="2.96799">
        <ele>430.4</ele>
        <time>2021-08-17T13:40:40Z</time>
      </trkpt>
      <trkpt lat="44.46461" lon="2.96796">
        <ele>430.3</ele>
        <time>2021-08-17T13:40:42Z</time>
      </trkpt>
      <trkpt lat="44.46458" lon="2.96791">
        <ele>430.3</ele>
        <time>2021-08-17T13:40:44Z</time>
      </trkpt>
      <trkpt lat="44.46456" lon="2.96787">
        <ele>430.3</ele>
        <time>2021-08-17T13:40:46Z</time>
      </trkpt>
      <trkpt lat="44.46455" lon="2.96782">
        <ele>430.3</ele>
        <time>2021-08-17T13:40:48Z</time>
      </trkpt>
      <trkpt lat="44.46453" lon="2.96777">
        <ele>430.4</ele>
        <time>2021-08-17T13:40:50Z</time>
      </trkpt>
      <trkpt lat="44.46451" lon="2.96773">
        <ele>430.4</ele>
        <time>2021-08-17T13:40:52Z</time>
      </trkpt>
      <trkpt lat="44.46449" lon="2.96768">
        <ele>430.4</ele>
        <time>2021-08-17T13:40:54Z</time>
      </trkpt>
      <trkpt lat="44.46448" lon="2.96764">
        <ele>430.4</ele>
        <time>2021-08-17T13:40:56Z</time>
      </trkpt>
      <trkpt lat="44.46447" lon="2.96759">
        <ele>430.5</ele>
        <time>2021-08-17T13:40:58Z</time>
      </trkpt>
      <trkpt lat="44.46447" lon="2.96754">
        <ele>430.8</ele>
        <time>2021-08-17T13:41:00Z</time>
      </trkpt>
      <trkpt lat="44.46447" lon="2.96749">
        <ele>431.1</ele>
        <time>2021-08-17T13:41:02Z</time>
      </trkpt>
      <trkpt lat="44.46446" lon="2.96744">
        <ele>431</ele>
        <time>2021-08-17T13:41:04Z</time>
      </trkpt>
      <trkpt lat="44.46446" lon="2.96738">
        <ele>431.2</ele>
        <time>2021-08-17T13:41:06Z</time>
      </trkpt>
      <trkpt lat="44.46445" lon="2.96733">
        <ele>431.2</ele>
        <time>2021-08-17T13:41:08Z</time>
      </trkpt>
      <trkpt lat="44.46444" lon="2.96727">
        <ele>431.1</ele>
        <time>2021-08-17T13:41:10Z</time>
      </trkpt>
      <trkpt lat="44.46443" lon="2.96722">
        <ele>431.1</ele>
        <time>2021-08-17T13:41:12Z</time>
      </trkpt>
      <trkpt lat="44.46441" lon="2.96718">
        <ele>431</ele>
        <time>2021-08-17T13:41:14Z</time>
      </trkpt>
      <trkpt lat="44.46439" lon="2.96713">
        <ele>430.8</ele>
        <time>2021-08-17T13:41:16Z</time>
      </trkpt>
      <trkpt lat="44.46437" lon="2.96708">
        <ele>430.6</ele>
        <time>2021-08-17T13:41:18Z</time>
      </trkpt>
      <trkpt lat="44.46435" lon="2.96704">
        <ele>430.4</ele>
        <time>2021-08-17T13:41:20Z</time>
      </trkpt>
      <trkpt lat="44.46433" lon="2.967">
        <ele>430.2</ele>
        <time>2021-08-17T13:41:22Z</time>
      </trkpt>
      <trkpt lat="44.46432" lon="2.96697">
        <ele>430.1</ele>
        <time>2021-08-17T13:41:24Z</time>
      </trkpt>
      <trkpt lat="44.4643" lon="2.96692">
        <ele>429.9</ele>
        <time>2021-08-17T13:41:26Z</time>
      </trkpt>
      <trkpt lat="44.46428" lon="2.96688">
        <ele>429.8</ele>
        <time>2021-08-17T13:41:28Z</time>
      </trkpt>
      <trkpt lat="44.46426" lon="2.96684">
        <ele>429.6</ele>
        <time>2021-08-17T13:41:30Z</time>
      </trkpt>
      <trkpt lat="44.46423" lon="2.96681">
        <ele>429.4</ele>
        <time>2021-08-17T13:41:32Z</time>
      </trkpt>
      <trkpt lat="44.46421" lon="2.96676">
        <ele>429.2</ele>
        <time>2021-08-17T13:41:34Z</time>
      </trkpt>
      <trkpt lat="44.46419" lon="2.96673">
        <ele>429.1</ele>
        <time>2021-08-17T13:41:36Z</time>
      </trkpt>
      <trkpt lat="44.46416" lon="2.96667">
        <ele>429</ele>
        <time>2021-08-17T13:41:38Z</time>
      </trkpt>
      <trkpt lat="44.46414" lon="2.96664">
        <ele>428.9</ele>
        <time>2021-08-17T13:41:40Z</time>
      </trkpt>
      <trkpt lat="44.46413" lon="2.96657">
        <ele>429.2</ele>
        <time>2021-08-17T13:41:42Z</time>
      </trkpt>
      <trkpt lat="44.46413" lon="2.96652">
        <ele>429.5</ele>
        <time>2021-08-17T13:41:44Z</time>
      </trkpt>
      <trkpt lat="44.46413" lon="2.96646">
        <ele>429.9</ele>
        <time>2021-08-17T13:41:46Z</time>
      </trkpt>
      <trkpt lat="44.46413" lon="2.96641">
        <ele>430.2</ele>
        <time>2021-08-17T13:41:48Z</time>
      </trkpt>
      <trkpt lat="44.46413" lon="2.96636">
        <ele>430.5</ele>
        <time>2021-08-17T13:41:50Z</time>
      </trkpt>
      <trkpt lat="44.46413" lon="2.96631">
        <ele>430.8</ele>
        <time>2021-08-17T13:41:52Z</time>
      </trkpt>
      <trkpt lat="44.46413" lon="2.96627">
        <ele>431</ele>
        <time>2021-08-17T13:41:54Z</time>
      </trkpt>
      <trkpt lat="44.46411" lon="2.96621">
        <ele>431.2</ele>
        <time>2021-08-17T13:41:56Z</time>
      </trkpt>
      <trkpt lat="44.46408" lon="2.96617">
        <ele>431.1</ele>
        <time>2021-08-17T13:41:58Z</time>
      </trkpt>
      <trkpt lat="44.46401" lon="2.96616">
        <ele>430.5</ele>
        <time>2021-08-17T13:42:00Z</time>
      </trkpt>
      <trkpt lat="44.46393" lon="2.96617">
        <ele>429.7</ele>
        <time>2021-08-17T13:42:02Z</time>
      </trkpt>
      <trkpt lat="44.46383" lon="2.96617">
        <ele>428.7</ele>
        <time>2021-08-17T13:42:04Z</time>
      </trkpt>
      <trkpt lat="44.46372" lon="2.96617">
        <ele>427.7</ele>
        <time>2021-08-17T13:42:06Z</time>
      </trkpt>
      <trkpt lat="44.46361" lon="2.96616">
        <ele>426.7</ele>
        <time>2021-08-17T13:42:08Z</time>
      </trkpt>
      <trkpt lat="44.46348" lon="2.96616">
        <ele>425.5</ele>
        <time>2021-08-17T13:42:10Z</time>
      </trkpt>
      <trkpt lat="44.46335" lon="2.96616">
        <ele>424.2</ele>
        <time>2021-08-17T13:42:12Z</time>
      </trkpt>
      <trkpt lat="44.46321" lon="2.96616">
        <ele>423.6</ele>
        <time>2021-08-17T13:42:14Z</time>
      </trkpt>
      <trkpt lat="44.46307" lon="2.96616">
        <ele>423.1</ele>
        <time>2021-08-17T13:42:16Z</time>
      </trkpt>
      <trkpt lat="44.46293" lon="2.96617">
        <ele>422.6</ele>
        <time>2021-08-17T13:42:18Z</time>
      </trkpt>
      <trkpt lat="44.46278" lon="2.96616">
        <ele>422.2</ele>
        <time>2021-08-17T13:42:20Z</time>
      </trkpt>
      <trkpt lat="44.46263" lon="2.96616">
        <ele>421.6</ele>
        <time>2021-08-17T13:42:22Z</time>
      </trkpt>
      <trkpt lat="44.46248" lon="2.96617">
        <ele>421.2</ele>
        <time>2021-08-17T13:42:24Z</time>
      </trkpt>
      <trkpt lat="44.46235" lon="2.96619">
        <ele>421.2</ele>
        <time>2021-08-17T13:42:26Z</time>
      </trkpt>
      <trkpt lat="44.46222" lon="2.96622">
        <ele>421.2</ele>
        <time>2021-08-17T13:42:28Z</time>
      </trkpt>
      <trkpt lat="44.46211" lon="2.96627">
        <ele>421.2</ele>
        <time>2021-08-17T13:42:30Z</time>
      </trkpt>
      <trkpt lat="44.46202" lon="2.96633">
        <ele>421.4</ele>
        <time>2021-08-17T13:42:32Z</time>
      </trkpt>
      <trkpt lat="44.46192" lon="2.96639">
        <ele>421.6</ele>
        <time>2021-08-17T13:42:34Z</time>
      </trkpt>
      <trkpt lat="44.46183" lon="2.96645">
        <ele>421.9</ele>
        <time>2021-08-17T13:42:36Z</time>
      </trkpt>
      <trkpt lat="44.46175" lon="2.96651">
        <ele>422.2</ele>
        <time>2021-08-17T13:42:38Z</time>
      </trkpt>
      <trkpt lat="44.46166" lon="2.96656">
        <ele>422.6</ele>
        <time>2021-08-17T13:42:40Z</time>
      </trkpt>
      <trkpt lat="44.46159" lon="2.96661">
        <ele>423.1</ele>
        <time>2021-08-17T13:42:42Z</time>
      </trkpt>
      <trkpt lat="44.46151" lon="2.96667">
        <ele>423.6</ele>
        <time>2021-08-17T13:42:44Z</time>
      </trkpt>
      <trkpt lat="44.46143" lon="2.96672">
        <ele>424</ele>
        <time>2021-08-17T13:42:46Z</time>
      </trkpt>
      <trkpt lat="44.46136" lon="2.96677">
        <ele>424.5</ele>
        <time>2021-08-17T13:42:48Z</time>
      </trkpt>
      <trkpt lat="44.46129" lon="2.96681">
        <ele>424.8</ele>
        <time>2021-08-17T13:42:50Z</time>
      </trkpt>
      <trkpt lat="44.46121" lon="2.96685">
        <ele>425.2</ele>
        <time>2021-08-17T13:42:52Z</time>
      </trkpt>
      <trkpt lat="44.46114" lon="2.9669">
        <ele>425.5</ele>
        <time>2021-08-17T13:42:54Z</time>
      </trkpt>
      <trkpt lat="44.46107" lon="2.96694">
        <ele>425.8</ele>
        <time>2021-08-17T13:42:56Z</time>
      </trkpt>
      <trkpt lat="44.46101" lon="2.96699">
        <ele>426</ele>
        <time>2021-08-17T13:42:58Z</time>
      </trkpt>
      <trkpt lat="44.46095" lon="2.96705">
        <ele>426.2</ele>
        <time>2021-08-17T13:43:00Z</time>
      </trkpt>
      <trkpt lat="44.4609" lon="2.96711">
        <ele>426.4</ele>
        <time>2021-08-17T13:43:02Z</time>
      </trkpt>
      <trkpt lat="44.46087" lon="2.96719">
        <ele>426.6</ele>
        <time>2021-08-17T13:43:04Z</time>
      </trkpt>
      <trkpt lat="44.46083" lon="2.96726">
        <ele>426.7</ele>
        <time>2021-08-17T13:43:06Z</time>
      </trkpt>
      <trkpt lat="44.46077" lon="2.96729">
        <ele>426.9</ele>
        <time>2021-08-17T13:43:08Z</time>
      </trkpt>
      <trkpt lat="44.4607" lon="2.96733">
        <ele>427.1</ele>
        <time>2021-08-17T13:43:10Z</time>
      </trkpt>
      <trkpt lat="44.46065" lon="2.96738">
        <ele>427.3</ele>
        <time>2021-08-17T13:43:12Z</time>
      </trkpt>
      <trkpt lat="44.46059" lon="2.96741">
        <ele>427.4</ele>
        <time>2021-08-17T13:43:14Z</time>
      </trkpt>
      <trkpt lat="44.46053" lon="2.96745">
        <ele>427.6</ele>
        <time>2021-08-17T13:43:16Z</time>
      </trkpt>
      <trkpt lat="44.46048" lon="2.96748">
        <ele>427.8</ele>
        <time>2021-08-17T13:43:18Z</time>
      </trkpt>
      <trkpt lat="44.46044" lon="2.96753">
        <ele>428</ele>
        <time>2021-08-17T13:43:20Z</time>
      </trkpt>
      <trkpt lat="44.46042" lon="2.96758">
        <ele>428.1</ele>
        <time>2021-08-17T13:43:22Z</time>
      </trkpt>
      <trkpt lat="44.46042" lon="2.96764">
        <ele>428.2</ele>
        <time>2021-08-17T13:43:24Z</time>
      </trkpt>
      <trkpt lat="44.46043" lon="2.96769">
        <ele>428.3</ele>
        <time>2021-08-17T13:43:26Z</time>
      </trkpt>
      <trkpt lat="44.46045" lon="2.96772">
        <ele>428.3</ele>
        <time>2021-08-17T13:43:28Z</time>
      </trkpt>
      <trkpt lat="44.46044" lon="2.96775">
        <ele>428.4</ele>
        <time>2021-08-17T13:43:30Z</time>
      </trkpt>
      <trkpt lat="44.46046" lon="2.96777">
        <ele>428.4</ele>
        <time>2021-08-17T13:43:32Z</time>
      </trkpt>
      <trkpt lat="44.46047" lon="2.96778">
        <ele>428.4</ele>
        <time>2021-08-17T13:43:34Z</time>
      </trkpt>
      <trkpt lat="44.46047" lon="2.96779">
        <ele>428.4</ele>
        <time>2021-08-17T13:43:36Z</time>
      </trkpt>
      <trkpt lat="44.46047" lon="2.96779">
        <ele>428.4</ele>
        <time>2021-08-17T13:43:38Z</time>
      </trkpt>
      <trkpt lat="44.46055" lon="2.96796">
        <ele>428.6</ele>
        <time>2021-08-17T14:21:58Z</time>
      </trkpt>
      <trkpt lat="44.46057" lon="2.96801">
        <ele>428.7</ele>
        <time>2021-08-17T14:22:00Z</time>
      </trkpt>
      <trkpt lat="44.4606" lon="2.96806">
        <ele>428.7</ele>
        <time>2021-08-17T14:22:02Z</time>
      </trkpt>
      <trkpt lat="44.46064" lon="2.96805">
        <ele>428.6</ele>
        <time>2021-08-17T14:22:04Z</time>
      </trkpt>
      <trkpt lat="44.46069" lon="2.96802">
        <ele>428.5</ele>
        <time>2021-08-17T14:22:06Z</time>
      </trkpt>
      <trkpt lat="44.46074" lon="2.96802">
        <ele>428.4</ele>
        <time>2021-08-17T14:22:08Z</time>
      </trkpt>
      <trkpt lat="44.46079" lon="2.96801">
        <ele>428.3</ele>
        <time>2021-08-17T14:22:10Z</time>
      </trkpt>
      <trkpt lat="44.46084" lon="2.968">
        <ele>428.2</ele>
        <time>2021-08-17T14:22:12Z</time>
      </trkpt>
      <trkpt lat="44.46089" lon="2.96798">
        <ele>428.2</ele>
        <time>2021-08-17T14:22:14Z</time>
      </trkpt>
      <trkpt lat="44.46093" lon="2.96798">
        <ele>428.1</ele>
        <time>2021-08-17T14:22:16Z</time>
      </trkpt>
      <trkpt lat="44.46098" lon="2.96797">
        <ele>428.1</ele>
        <time>2021-08-17T14:22:18Z</time>
      </trkpt>
      <trkpt lat="44.46102" lon="2.96795">
        <ele>428.1</ele>
        <time>2021-08-17T14:22:20Z</time>
      </trkpt>
      <trkpt lat="44.46106" lon="2.96793">
        <ele>428</ele>
        <time>2021-08-17T14:22:22Z</time>
      </trkpt>
      <trkpt lat="44.46109" lon="2.96792">
        <ele>428</ele>
        <time>2021-08-17T14:22:24Z</time>
      </trkpt>
      <trkpt lat="44.46113" lon="2.96791">
        <ele>428</ele>
        <time>2021-08-17T14:22:26Z</time>
      </trkpt>
      <trkpt lat="44.46116" lon="2.96793">
        <ele>428</ele>
        <time>2021-08-17T14:22:28Z</time>
      </trkpt>
      <trkpt lat="44.46119" lon="2.96795">
        <ele>428.1</ele>
        <time>2021-08-17T14:22:30Z</time>
      </trkpt>
      <trkpt lat="44.46123" lon="2.96796">
        <ele>428.1</ele>
        <time>2021-08-17T14:22:32Z</time>
      </trkpt>
      <trkpt lat="44.46125" lon="2.96795">
        <ele>428.1</ele>
        <time>2021-08-17T14:22:34Z</time>
      </trkpt>
      <trkpt lat="44.46124" lon="2.96795">
        <ele>428.1</ele>
        <time>2021-08-17T14:22:36Z</time>
      </trkpt>
      <trkpt lat="44.46125" lon="2.96795">
        <ele>428.1</ele>
        <time>2021-08-17T14:22:38Z</time>
      </trkpt>
      <trkpt lat="44.46125" lon="2.96796">
        <ele>428.1</ele>
        <time>2021-08-17T14:22:40Z</time>
      </trkpt>
      <trkpt lat="44.46125" lon="2.96795">
        <ele>428.1</ele>
        <time>2021-08-17T14:22:42Z</time>
      </trkpt>
      <trkpt lat="44.46063" lon="2.96766">
        <ele>427.8</ele>
        <time>2021-08-17T14:24:04Z</time>
      </trkpt>
      <trkpt lat="44.46067" lon="2.96763">
        <ele>427.7</ele>
        <time>2021-08-17T14:24:06Z</time>
      </trkpt>
      <trkpt lat="44.46071" lon="2.96758">
        <ele>427.5</ele>
        <time>2021-08-17T14:24:08Z</time>
      </trkpt>
      <trkpt lat="44.46071" lon="2.96751">
        <ele>427.3</ele>
        <time>2021-08-17T14:24:10Z</time>
      </trkpt>
      <trkpt lat="44.46071" lon="2.96743">
        <ele>427.2</ele>
        <time>2021-08-17T14:24:12Z</time>
      </trkpt>
      <trkpt lat="44.46073" lon="2.96737">
        <ele>427.1</ele>
        <time>2021-08-17T14:24:14Z</time>
      </trkpt>
      <trkpt lat="44.46077" lon="2.96734">
        <ele>427</ele>
        <time>2021-08-17T14:24:16Z</time>
      </trkpt>
      <trkpt lat="44.4608" lon="2.96732">
        <ele>426.8</ele>
        <time>2021-08-17T14:24:18Z</time>
      </trkpt>
      <trkpt lat="44.46082" lon="2.96731">
        <ele>426.8</ele>
        <time>2021-08-17T14:24:20Z</time>
      </trkpt>
      <trkpt lat="44.46084" lon="2.9673">
        <ele>426.8</ele>
        <time>2021-08-17T14:24:22Z</time>
      </trkpt>
      <trkpt lat="44.46089" lon="2.96729">
        <ele>426.7</ele>
        <time>2021-08-17T14:24:24Z</time>
      </trkpt>
      <trkpt lat="44.46092" lon="2.96726">
        <ele>426.6</ele>
        <time>2021-08-17T14:24:26Z</time>
      </trkpt>
      <trkpt lat="44.46095" lon="2.96721">
        <ele>426.5</ele>
        <time>2021-08-17T14:24:28Z</time>
      </trkpt>
      <trkpt lat="44.46097" lon="2.96714">
        <ele>426.4</ele>
        <time>2021-08-17T14:24:30Z</time>
      </trkpt>
      <trkpt lat="44.46098" lon="2.96706">
        <ele>426.2</ele>
        <time>2021-08-17T14:24:32Z</time>
      </trkpt>
      <trkpt lat="44.46096" lon="2.96699">
        <ele>426.1</ele>
        <time>2021-08-17T14:24:34Z</time>
      </trkpt>
      <trkpt lat="44.46091" lon="2.96692">
        <ele>426.1</ele>
        <time>2021-08-17T14:24:36Z</time>
      </trkpt>
      <trkpt lat="44.46086" lon="2.96687">
        <ele>426.2</ele>
        <time>2021-08-17T14:24:38Z</time>
      </trkpt>
      <trkpt lat="44.46082" lon="2.96681">
        <ele>426.2</ele>
        <time>2021-08-17T14:24:40Z</time>
      </trkpt>
      <trkpt lat="44.46077" lon="2.96676">
        <ele>426.2</ele>
        <time>2021-08-17T14:24:42Z</time>
      </trkpt>
      <trkpt lat="44.46073" lon="2.96669">
        <ele>426.2</ele>
        <time>2021-08-17T14:24:44Z</time>
      </trkpt>
      <trkpt lat="44.46069" lon="2.96661">
        <ele>426.1</ele>
        <time>2021-08-17T14:24:46Z</time>
      </trkpt>
      <trkpt lat="44.46067" lon="2.96652">
        <ele>426.1</ele>
        <time>2021-08-17T14:24:48Z</time>
      </trkpt>
      <trkpt lat="44.46064" lon="2.96643">
        <ele>426</ele>
        <time>2021-08-17T14:24:50Z</time>
      </trkpt>
      <trkpt lat="44.4606" lon="2.96635">
        <ele>426</ele>
        <time>2021-08-17T14:24:52Z</time>
      </trkpt>
      <trkpt lat="44.46057" lon="2.96626">
        <ele>426</ele>
        <time>2021-08-17T14:24:54Z</time>
      </trkpt>
      <trkpt lat="44.46054" lon="2.96617">
        <ele>426</ele>
        <time>2021-08-17T14:24:56Z</time>
      </trkpt>
      <trkpt lat="44.46051" lon="2.96608">
        <ele>426</ele>
        <time>2021-08-17T14:24:58Z</time>
      </trkpt>
      <trkpt lat="44.46048" lon="2.96599">
        <ele>426</ele>
        <time>2021-08-17T14:25:00Z</time>
      </trkpt>
      <trkpt lat="44.46045" lon="2.9659">
        <ele>426</ele>
        <time>2021-08-17T14:25:02Z</time>
      </trkpt>
      <trkpt lat="44.46042" lon="2.9658">
        <ele>426</ele>
        <time>2021-08-17T14:25:04Z</time>
      </trkpt>
      <trkpt lat="44.46038" lon="2.9657">
        <ele>426</ele>
        <time>2021-08-17T14:25:06Z</time>
      </trkpt>
      <trkpt lat="44.46035" lon="2.96561">
        <ele>426.1</ele>
        <time>2021-08-17T14:25:08Z</time>
      </trkpt>
      <trkpt lat="44.46032" lon="2.96551">
        <ele>426.2</ele>
        <time>2021-08-17T14:25:10Z</time>
      </trkpt>
      <trkpt lat="44.46029" lon="2.96541">
        <ele>426.3</ele>
        <time>2021-08-17T14:25:12Z</time>
      </trkpt>
      <trkpt lat="44.46025" lon="2.96533">
        <ele>426.5</ele>
        <time>2021-08-17T14:25:14Z</time>
      </trkpt>
      <trkpt lat="44.46022" lon="2.96524">
        <ele>426.6</ele>
        <time>2021-08-17T14:25:16Z</time>
      </trkpt>
      <trkpt lat="44.46019" lon="2.96516">
        <ele>426.8</ele>
        <time>2021-08-17T14:25:18Z</time>
      </trkpt>
      <trkpt lat="44.46018" lon="2.96514">
        <ele>426.8</ele>
        <time>2021-08-17T14:25:20Z</time>
      </trkpt>
      <trkpt lat="44.46018" lon="2.96514">
        <ele>426.8</ele>
        <time>2021-08-17T14:25:22Z</time>
      </trkpt>
      <trkpt lat="44.46018" lon="2.96513">
        <ele>426.9</ele>
        <time>2021-08-17T14:25:24Z</time>
      </trkpt>
      <trkpt lat="44.46018" lon="2.96513">
        <ele>426.9</ele>
        <time>2021-08-17T14:25:26Z</time>
      </trkpt>
      <trkpt lat="44.46018" lon="2.96513">
        <ele>426.9</ele>
        <time>2021-08-17T14:25:28Z</time>
      </trkpt>
      <trkpt lat="44.46008" lon="2.9649">
        <ele>427.2</ele>
        <time>2021-08-17T14:25:48Z</time>
      </trkpt>
      <trkpt lat="44.46006" lon="2.96482">
        <ele>427.2</ele>
        <time>2021-08-17T14:25:50Z</time>
      </trkpt>
      <trkpt lat="44.46003" lon="2.96473">
        <ele>427.2</ele>
        <time>2021-08-17T14:25:52Z</time>
      </trkpt>
      <trkpt lat="44.46" lon="2.96466">
        <ele>427.2</ele>
        <time>2021-08-17T14:25:54Z</time>
      </trkpt>
      <trkpt lat="44.45996" lon="2.96458">
        <ele>427.3</ele>
        <time>2021-08-17T14:25:56Z</time>
      </trkpt>
      <trkpt lat="44.45994" lon="2.96449">
        <ele>427.3</ele>
        <time>2021-08-17T14:25:58Z</time>
      </trkpt>
      <trkpt lat="44.45991" lon="2.9644">
        <ele>427.3</ele>
        <time>2021-08-17T14:26:00Z</time>
      </trkpt>
      <trkpt lat="44.45988" lon="2.96432">
        <ele>427.3</ele>
        <time>2021-08-17T14:26:02Z</time>
      </trkpt>
      <trkpt lat="44.45985" lon="2.96423">
        <ele>427.3</ele>
        <time>2021-08-17T14:26:04Z</time>
      </trkpt>
      <trkpt lat="44.45981" lon="2.96414">
        <ele>427.3</ele>
        <time>2021-08-17T14:26:06Z</time>
      </trkpt>
      <trkpt lat="44.45978" lon="2.96405">
        <ele>427.5</ele>
        <time>2021-08-17T14:26:08Z</time>
      </trkpt>
      <trkpt lat="44.45975" lon="2.96397">
        <ele>427.6</ele>
        <time>2021-08-17T14:26:10Z</time>
      </trkpt>
      <trkpt lat="44.45972" lon="2.96388">
        <ele>427.7</ele>
        <time>2021-08-17T14:26:12Z</time>
      </trkpt>
      <trkpt lat="44.45969" lon="2.96379">
        <ele>427.7</ele>
        <time>2021-08-17T14:26:14Z</time>
      </trkpt>
      <trkpt lat="44.45966" lon="2.96371">
        <ele>427.8</ele>
        <time>2021-08-17T14:26:16Z</time>
      </trkpt>
      <trkpt lat="44.45963" lon="2.96363">
        <ele>427.8</ele>
        <time>2021-08-17T14:26:18Z</time>
      </trkpt>
      <trkpt lat="44.45959" lon="2.96354">
        <ele>427.8</ele>
        <time>2021-08-17T14:26:20Z</time>
      </trkpt>
      <trkpt lat="44.45957" lon="2.96345">
        <ele>427.8</ele>
        <time>2021-08-17T14:26:22Z</time>
      </trkpt>
      <trkpt lat="44.45954" lon="2.96337">
        <ele>427.7</ele>
        <time>2021-08-17T14:26:24Z</time>
      </trkpt>
      <trkpt lat="44.4595" lon="2.96329">
        <ele>427.7</ele>
        <time>2021-08-17T14:26:26Z</time>
      </trkpt>
      <trkpt lat="44.45947" lon="2.96322">
        <ele>427.7</ele>
        <time>2021-08-17T14:26:28Z</time>
      </trkpt>
      <trkpt lat="44.45943" lon="2.96318">
        <ele>427.9</ele>
        <time>2021-08-17T14:26:30Z</time>
      </trkpt>
      <trkpt lat="44.45938" lon="2.96317">
        <ele>428.2</ele>
        <time>2021-08-17T14:26:32Z</time>
      </trkpt>
      <trkpt lat="44.45933" lon="2.96318">
        <ele>428.4</ele>
        <time>2021-08-17T14:26:34Z</time>
      </trkpt>
      <trkpt lat="44.45932" lon="2.96318">
        <ele>428.5</ele>
        <time>2021-08-17T14:26:36Z</time>
      </trkpt>
      <trkpt lat="44.4593" lon="2.96318">
        <ele>428.5</ele>
        <time>2021-08-17T14:26:38Z</time>
      </trkpt>
      <trkpt lat="44.4593" lon="2.96318">
        <ele>428.5</ele>
        <time>2021-08-17T14:26:40Z</time>
      </trkpt>
      <trkpt lat="44.4593" lon="2.96318">
        <ele>428.5</ele>
        <time>2021-08-17T14:26:42Z</time>
      </trkpt>
      <trkpt lat="44.4593" lon="2.96318">
        <ele>428.5</ele>
        <time>2021-08-17T14:26:44Z</time>
      </trkpt>
      <trkpt lat="44.45935" lon="2.96283">
        <ele>428.2</ele>
        <time>2021-08-17T14:30:40Z</time>
      </trkpt>
      <trkpt lat="44.45932" lon="2.96275">
        <ele>428.4</ele>
        <time>2021-08-17T14:30:42Z</time>
      </trkpt>
      <trkpt lat="44.45929" lon="2.96268">
        <ele>428.6</ele>
        <time>2021-08-17T14:30:44Z</time>
      </trkpt>
      <trkpt lat="44.45927" lon="2.96261">
        <ele>428.9</ele>
        <time>2021-08-17T14:30:46Z</time>
      </trkpt>
      <trkpt lat="44.45925" lon="2.96254">
        <ele>429.1</ele>
        <time>2021-08-17T14:30:48Z</time>
      </trkpt>
      <trkpt lat="44.45923" lon="2.96247">
        <ele>429.3</ele>
        <time>2021-08-17T14:30:50Z</time>
      </trkpt>
      <trkpt lat="44.4592" lon="2.9624">
        <ele>429.5</ele>
        <time>2021-08-17T14:30:52Z</time>
      </trkpt>
      <trkpt lat="44.45917" lon="2.96232">
        <ele>429.7</ele>
        <time>2021-08-17T14:30:54Z</time>
      </trkpt>
      <trkpt lat="44.45915" lon="2.96226">
        <ele>430.1</ele>
        <time>2021-08-17T14:30:56Z</time>
      </trkpt>
      <trkpt lat="44.45913" lon="2.96218">
        <ele>430.8</ele>
        <time>2021-08-17T14:30:58Z</time>
      </trkpt>
      <trkpt lat="44.45911" lon="2.96211">
        <ele>431.5</ele>
        <time>2021-08-17T14:31:00Z</time>
      </trkpt>
      <trkpt lat="44.45908" lon="2.96204">
        <ele>432</ele>
        <time>2021-08-17T14:31:02Z</time>
      </trkpt>
      <trkpt lat="44.45906" lon="2.96197">
        <ele>432.6</ele>
        <time>2021-08-17T14:31:04Z</time>
      </trkpt>
      <trkpt lat="44.45904" lon="2.96189">
        <ele>433.2</ele>
        <time>2021-08-17T14:31:06Z</time>
      </trkpt>
      <trkpt lat="44.45901" lon="2.96182">
        <ele>433.9</ele>
        <time>2021-08-17T14:31:08Z</time>
      </trkpt>
      <trkpt lat="44.45899" lon="2.96175">
        <ele>434.4</ele>
        <time>2021-08-17T14:31:10Z</time>
      </trkpt>
      <trkpt lat="44.45896" lon="2.96167">
        <ele>434.9</ele>
        <time>2021-08-17T14:31:12Z</time>
      </trkpt>
      <trkpt lat="44.45894" lon="2.9616">
        <ele>435.1</ele>
        <time>2021-08-17T14:31:14Z</time>
      </trkpt>
      <trkpt lat="44.45891" lon="2.96153">
        <ele>435.1</ele>
        <time>2021-08-17T14:31:16Z</time>
      </trkpt>
      <trkpt lat="44.45889" lon="2.96146">
        <ele>435.2</ele>
        <time>2021-08-17T14:31:18Z</time>
      </trkpt>
      <trkpt lat="44.45887" lon="2.9614">
        <ele>435.1</ele>
        <time>2021-08-17T14:31:20Z</time>
      </trkpt>
      <trkpt lat="44.45885" lon="2.96134">
        <ele>435</ele>
        <time>2021-08-17T14:31:22Z</time>
      </trkpt>
      <trkpt lat="44.45882" lon="2.96128">
        <ele>435.1</ele>
        <time>2021-08-17T14:31:24Z</time>
      </trkpt>
      <trkpt lat="44.4588" lon="2.96122">
        <ele>435.1</ele>
        <time>2021-08-17T14:31:26Z</time>
      </trkpt>
      <trkpt lat="44.45878" lon="2.96115">
        <ele>435.1</ele>
        <time>2021-08-17T14:31:28Z</time>
      </trkpt>
      <trkpt lat="44.45876" lon="2.96109">
        <ele>435</ele>
        <time>2021-08-17T14:31:30Z</time>
      </trkpt>
      <trkpt lat="44.45873" lon="2.96103">
        <ele>435</ele>
        <time>2021-08-17T14:31:32Z</time>
      </trkpt>
      <trkpt lat="44.45871" lon="2.96096">
        <ele>434.9</ele>
        <time>2021-08-17T14:31:34Z</time>
      </trkpt>
      <trkpt lat="44.45868" lon="2.9609">
        <ele>434.7</ele>
        <time>2021-08-17T14:31:36Z</time>
      </trkpt>
      <trkpt lat="44.45866" lon="2.96083">
        <ele>434.5</ele>
        <time>2021-08-17T14:31:38Z</time>
      </trkpt>
      <trkpt lat="44.45864" lon="2.96076">
        <ele>434.6</ele>
        <time>2021-08-17T14:31:40Z</time>
      </trkpt>
      <trkpt lat="44.45861" lon="2.96069">
        <ele>434.7</ele>
        <time>2021-08-17T14:31:42Z</time>
      </trkpt>
      <trkpt lat="44.45859" lon="2.96061">
        <ele>434.6</ele>
        <time>2021-08-17T14:31:44Z</time>
      </trkpt>
      <trkpt lat="44.45858" lon="2.96053">
        <ele>434.4</ele>
        <time>2021-08-17T14:31:46Z</time>
      </trkpt>
      <trkpt lat="44.45856" lon="2.96045">
        <ele>434</ele>
        <time>2021-08-17T14:31:48Z</time>
      </trkpt>
      <trkpt lat="44.45855" lon="2.96036">
        <ele>433.6</ele>
        <time>2021-08-17T14:31:50Z</time>
      </trkpt>
      <trkpt lat="44.45855" lon="2.96027">
        <ele>433.1</ele>
        <time>2021-08-17T14:31:52Z</time>
      </trkpt>
      <trkpt lat="44.45854" lon="2.96018">
        <ele>432.5</ele>
        <time>2021-08-17T14:31:54Z</time>
      </trkpt>
      <trkpt lat="44.45854" lon="2.96008">
        <ele>431.9</ele>
        <time>2021-08-17T14:31:56Z</time>
      </trkpt>
      <trkpt lat="44.45854" lon="2.95999">
        <ele>431.3</ele>
        <time>2021-08-17T14:31:58Z</time>
      </trkpt>
      <trkpt lat="44.45853" lon="2.9599">
        <ele>431.6</ele>
        <time>2021-08-17T14:32:00Z</time>
      </trkpt>
      <trkpt lat="44.45854" lon="2.9598">
        <ele>431.7</ele>
        <time>2021-08-17T14:32:02Z</time>
      </trkpt>
      <trkpt lat="44.45854" lon="2.9597">
        <ele>431.9</ele>
        <time>2021-08-17T14:32:04Z</time>
      </trkpt>
      <trkpt lat="44.45854" lon="2.9596">
        <ele>432.1</ele>
        <time>2021-08-17T14:32:06Z</time>
      </trkpt>
      <trkpt lat="44.45854" lon="2.95951">
        <ele>432.3</ele>
        <time>2021-08-17T14:32:08Z</time>
      </trkpt>
      <trkpt lat="44.45854" lon="2.95942">
        <ele>432.4</ele>
        <time>2021-08-17T14:32:10Z</time>
      </trkpt>
      <trkpt lat="44.45854" lon="2.95933">
        <ele>432.6</ele>
        <time>2021-08-17T14:32:12Z</time>
      </trkpt>
      <trkpt lat="44.45854" lon="2.95923">
        <ele>432.9</ele>
        <time>2021-08-17T14:32:14Z</time>
      </trkpt>
      <trkpt lat="44.45854" lon="2.95913">
        <ele>433.4</ele>
        <time>2021-08-17T14:32:16Z</time>
      </trkpt>
      <trkpt lat="44.45854" lon="2.95904">
        <ele>434.4</ele>
        <time>2021-08-17T14:32:18Z</time>
      </trkpt>
      <trkpt lat="44.45854" lon="2.95894">
        <ele>435.6</ele>
        <time>2021-08-17T14:32:20Z</time>
      </trkpt>
      <trkpt lat="44.45855" lon="2.95885">
        <ele>436.6</ele>
        <time>2021-08-17T14:32:22Z</time>
      </trkpt>
      <trkpt lat="44.45855" lon="2.95874">
        <ele>437.7</ele>
        <time>2021-08-17T14:32:24Z</time>
      </trkpt>
      <trkpt lat="44.45856" lon="2.95865">
        <ele>438.7</ele>
        <time>2021-08-17T14:32:26Z</time>
      </trkpt>
      <trkpt lat="44.45856" lon="2.95855">
        <ele>439.8</ele>
        <time>2021-08-17T14:32:28Z</time>
      </trkpt>
      <trkpt lat="44.45857" lon="2.95845">
        <ele>440.7</ele>
        <time>2021-08-17T14:32:30Z</time>
      </trkpt>
      <trkpt lat="44.45857" lon="2.95834">
        <ele>441.8</ele>
        <time>2021-08-17T14:32:32Z</time>
      </trkpt>
      <trkpt lat="44.45857" lon="2.95824">
        <ele>441.9</ele>
        <time>2021-08-17T14:32:34Z</time>
      </trkpt>
      <trkpt lat="44.45857" lon="2.95814">
        <ele>442</ele>
        <time>2021-08-17T14:32:36Z</time>
      </trkpt>
      <trkpt lat="44.45857" lon="2.95803">
        <ele>442.1</ele>
        <time>2021-08-17T14:32:38Z</time>
      </trkpt>
      <trkpt lat="44.45857" lon="2.95792">
        <ele>442.2</ele>
        <time>2021-08-17T14:32:40Z</time>
      </trkpt>
      <trkpt lat="44.45857" lon="2.95782">
        <ele>442.4</ele>
        <time>2021-08-17T14:32:42Z</time>
      </trkpt>
      <trkpt lat="44.45857" lon="2.95772">
        <ele>442.6</ele>
        <time>2021-08-17T14:32:44Z</time>
      </trkpt>
      <trkpt lat="44.45856" lon="2.95762">
        <ele>442.9</ele>
        <time>2021-08-17T14:32:46Z</time>
      </trkpt>
      <trkpt lat="44.45856" lon="2.95751">
        <ele>443.2</ele>
        <time>2021-08-17T14:32:48Z</time>
      </trkpt>
      <trkpt lat="44.45856" lon="2.9574">
        <ele>442.4</ele>
        <time>2021-08-17T14:32:50Z</time>
      </trkpt>
      <trkpt lat="44.45855" lon="2.95729">
        <ele>441.7</ele>
        <time>2021-08-17T14:32:52Z</time>
      </trkpt>
      <trkpt lat="44.45855" lon="2.95719">
        <ele>441</ele>
        <time>2021-08-17T14:32:54Z</time>
      </trkpt>
      <trkpt lat="44.45854" lon="2.95708">
        <ele>440.5</ele>
        <time>2021-08-17T14:32:56Z</time>
      </trkpt>
      <trkpt lat="44.45854" lon="2.95697">
        <ele>439.7</ele>
        <time>2021-08-17T14:32:58Z</time>
      </trkpt>
      <trkpt lat="44.45853" lon="2.95687">
        <ele>439</ele>
        <time>2021-08-17T14:33:00Z</time>
      </trkpt>
      <trkpt lat="44.45852" lon="2.95676">
        <ele>438.6</ele>
        <time>2021-08-17T14:33:02Z</time>
      </trkpt>
      <trkpt lat="44.4585" lon="2.95667">
        <ele>438.3</ele>
        <time>2021-08-17T14:33:04Z</time>
      </trkpt>
      <trkpt lat="44.45848" lon="2.95657">
        <ele>438.2</ele>
        <time>2021-08-17T14:33:06Z</time>
      </trkpt>
      <trkpt lat="44.45846" lon="2.95647">
        <ele>438.1</ele>
        <time>2021-08-17T14:33:08Z</time>
      </trkpt>
      <trkpt lat="44.45844" lon="2.95637">
        <ele>437.9</ele>
        <time>2021-08-17T14:33:10Z</time>
      </trkpt>
      <trkpt lat="44.45841" lon="2.95627">
        <ele>437.9</ele>
        <time>2021-08-17T14:33:12Z</time>
      </trkpt>
      <trkpt lat="44.45839" lon="2.95618">
        <ele>437.6</ele>
        <time>2021-08-17T14:33:14Z</time>
      </trkpt>
      <trkpt lat="44.45836" lon="2.95607">
        <ele>437.3</ele>
        <time>2021-08-17T14:33:16Z</time>
      </trkpt>
      <trkpt lat="44.45833" lon="2.95596">
        <ele>437</ele>
        <time>2021-08-17T14:33:18Z</time>
      </trkpt>
      <trkpt lat="44.45831" lon="2.95586">
        <ele>437.2</ele>
        <time>2021-08-17T14:33:20Z</time>
      </trkpt>
      <trkpt lat="44.45827" lon="2.95575">
        <ele>438</ele>
        <time>2021-08-17T14:33:22Z</time>
      </trkpt>
      <trkpt lat="44.45825" lon="2.95566">
        <ele>438.8</ele>
        <time>2021-08-17T14:33:24Z</time>
      </trkpt>
      <trkpt lat="44.45823" lon="2.95554">
        <ele>439.6</ele>
        <time>2021-08-17T14:33:26Z</time>
      </trkpt>
      <trkpt lat="44.45821" lon="2.95543">
        <ele>440.2</ele>
        <time>2021-08-17T14:33:28Z</time>
      </trkpt>
      <trkpt lat="44.4582" lon="2.95531">
        <ele>440.4</ele>
        <time>2021-08-17T14:33:30Z</time>
      </trkpt>
      <trkpt lat="44.4582" lon="2.95519">
        <ele>440.4</ele>
        <time>2021-08-17T14:33:32Z</time>
      </trkpt>
      <trkpt lat="44.4582" lon="2.95508">
        <ele>440.4</ele>
        <time>2021-08-17T14:33:34Z</time>
      </trkpt>
      <trkpt lat="44.45821" lon="2.95496">
        <ele>440.1</ele>
        <time>2021-08-17T14:33:36Z</time>
      </trkpt>
      <trkpt lat="44.45821" lon="2.95485">
        <ele>440.4</ele>
        <time>2021-08-17T14:33:38Z</time>
      </trkpt>
      <trkpt lat="44.45821" lon="2.95474">
        <ele>440.4</ele>
        <time>2021-08-17T14:33:40Z</time>
      </trkpt>
      <trkpt lat="44.4582" lon="2.95463">
        <ele>440.9</ele>
        <time>2021-08-17T14:33:42Z</time>
      </trkpt>
      <trkpt lat="44.45821" lon="2.95451">
        <ele>440.8</ele>
        <time>2021-08-17T14:33:44Z</time>
      </trkpt>
      <trkpt lat="44.45821" lon="2.9544">
        <ele>440.9</ele>
        <time>2021-08-17T14:33:46Z</time>
      </trkpt>
      <trkpt lat="44.45821" lon="2.95429">
        <ele>440.9</ele>
        <time>2021-08-17T14:33:48Z</time>
      </trkpt>
      <trkpt lat="44.45821" lon="2.95419">
        <ele>441</ele>
        <time>2021-08-17T14:33:50Z</time>
      </trkpt>
      <trkpt lat="44.45821" lon="2.95408">
        <ele>440.7</ele>
        <time>2021-08-17T14:33:52Z</time>
      </trkpt>
      <trkpt lat="44.45822" lon="2.95398">
        <ele>440</ele>
        <time>2021-08-17T14:33:54Z</time>
      </trkpt>
      <trkpt lat="44.45822" lon="2.95386">
        <ele>439.1</ele>
        <time>2021-08-17T14:33:56Z</time>
      </trkpt>
      <trkpt lat="44.45821" lon="2.95375">
        <ele>439</ele>
        <time>2021-08-17T14:33:58Z</time>
      </trkpt>
      <trkpt lat="44.45822" lon="2.95364">
        <ele>438.2</ele>
        <time>2021-08-17T14:34:00Z</time>
      </trkpt>
      <trkpt lat="44.45822" lon="2.95353">
        <ele>437.7</ele>
        <time>2021-08-17T14:34:02Z</time>
      </trkpt>
      <trkpt lat="44.45822" lon="2.95342">
        <ele>437.3</ele>
        <time>2021-08-17T14:34:04Z</time>
      </trkpt>
      <trkpt lat="44.45821" lon="2.95332">
        <ele>437</ele>
        <time>2021-08-17T14:34:06Z</time>
      </trkpt>
      <trkpt lat="44.45822" lon="2.95321">
        <ele>436.8</ele>
        <time>2021-08-17T14:34:08Z</time>
      </trkpt>
      <trkpt lat="44.45822" lon="2.9531">
        <ele>436.9</ele>
        <time>2021-08-17T14:34:10Z</time>
      </trkpt>
      <trkpt lat="44.45822" lon="2.95299">
        <ele>437</ele>
        <time>2021-08-17T14:34:12Z</time>
      </trkpt>
      <trkpt lat="44.45822" lon="2.95289">
        <ele>436.9</ele>
        <time>2021-08-17T14:34:14Z</time>
      </trkpt>
      <trkpt lat="44.45822" lon="2.95278">
        <ele>436.8</ele>
        <time>2021-08-17T14:34:16Z</time>
      </trkpt>
      <trkpt lat="44.45822" lon="2.95268">
        <ele>436.8</ele>
        <time>2021-08-17T14:34:18Z</time>
      </trkpt>
      <trkpt lat="44.45822" lon="2.95258">
        <ele>436.7</ele>
        <time>2021-08-17T14:34:20Z</time>
      </trkpt>
      <trkpt lat="44.45823" lon="2.95247">
        <ele>436.5</ele>
        <time>2021-08-17T14:34:22Z</time>
      </trkpt>
      <trkpt lat="44.45823" lon="2.95237">
        <ele>436.7</ele>
        <time>2021-08-17T14:34:24Z</time>
      </trkpt>
      <trkpt lat="44.45823" lon="2.95226">
        <ele>436.5</ele>
        <time>2021-08-17T14:34:26Z</time>
      </trkpt>
      <trkpt lat="44.45825" lon="2.95215">
        <ele>436.1</ele>
        <time>2021-08-17T14:34:28Z</time>
      </trkpt>
      <trkpt lat="44.45825" lon="2.95204">
        <ele>435.9</ele>
        <time>2021-08-17T14:34:30Z</time>
      </trkpt>
      <trkpt lat="44.45827" lon="2.95193">
        <ele>435.4</ele>
        <time>2021-08-17T14:34:32Z</time>
      </trkpt>
      <trkpt lat="44.45829" lon="2.95183">
        <ele>434.8</ele>
        <time>2021-08-17T14:34:34Z</time>
      </trkpt>
      <trkpt lat="44.45831" lon="2.95172">
        <ele>434</ele>
        <time>2021-08-17T14:34:36Z</time>
      </trkpt>
      <trkpt lat="44.45833" lon="2.95162">
        <ele>433.3</ele>
        <time>2021-08-17T14:34:38Z</time>
      </trkpt>
      <trkpt lat="44.45835" lon="2.95151">
        <ele>433.4</ele>
        <time>2021-08-17T14:34:40Z</time>
      </trkpt>
      <trkpt lat="44.45838" lon="2.95142">
        <ele>433.5</ele>
        <time>2021-08-17T14:34:42Z</time>
      </trkpt>
      <trkpt lat="44.45841" lon="2.95132">
        <ele>433.6</ele>
        <time>2021-08-17T14:34:44Z</time>
      </trkpt>
      <trkpt lat="44.45842" lon="2.95123">
        <ele>433.8</ele>
        <time>2021-08-17T14:34:46Z</time>
      </trkpt>
      <trkpt lat="44.45845" lon="2.95113">
        <ele>434</ele>
        <time>2021-08-17T14:34:48Z</time>
      </trkpt>
      <trkpt lat="44.45847" lon="2.95104">
        <ele>434</ele>
        <time>2021-08-17T14:34:50Z</time>
      </trkpt>
      <trkpt lat="44.4585" lon="2.95097">
        <ele>434</ele>
        <time>2021-08-17T14:34:52Z</time>
      </trkpt>
      <trkpt lat="44.45852" lon="2.9509">
        <ele>434.2</ele>
        <time>2021-08-17T14:34:54Z</time>
      </trkpt>
      <trkpt lat="44.45854" lon="2.95082">
        <ele>434.3</ele>
        <time>2021-08-17T14:34:56Z</time>
      </trkpt>
      <trkpt lat="44.45855" lon="2.95075">
        <ele>434.3</ele>
        <time>2021-08-17T14:34:58Z</time>
      </trkpt>
      <trkpt lat="44.45856" lon="2.95067">
        <ele>434.2</ele>
        <time>2021-08-17T14:35:00Z</time>
      </trkpt>
      <trkpt lat="44.45857" lon="2.95061">
        <ele>434.2</ele>
        <time>2021-08-17T14:35:02Z</time>
      </trkpt>
      <trkpt lat="44.45858" lon="2.95057">
        <ele>434.1</ele>
        <time>2021-08-17T14:35:04Z</time>
      </trkpt>
      <trkpt lat="44.45858" lon="2.95055">
        <ele>434.1</ele>
        <time>2021-08-17T14:35:06Z</time>
      </trkpt>
      <trkpt lat="44.45859" lon="2.95053">
        <ele>434</ele>
        <time>2021-08-17T14:35:08Z</time>
      </trkpt>
      <trkpt lat="44.4586" lon="2.95052">
        <ele>433.9</ele>
        <time>2021-08-17T14:35:10Z</time>
      </trkpt>
      <trkpt lat="44.4586" lon="2.95052">
        <ele>433.9</ele>
        <time>2021-08-17T14:35:12Z</time>
      </trkpt>
      <trkpt lat="44.45894" lon="2.95081">
        <ele>429</ele>
        <time>2021-08-17T14:35:50Z</time>
      </trkpt>
      <trkpt lat="44.45904" lon="2.95082">
        <ele>427.6</ele>
        <time>2021-08-17T14:35:52Z</time>
      </trkpt>
      <trkpt lat="44.45917" lon="2.95082">
        <ele>426</ele>
        <time>2021-08-17T14:35:54Z</time>
      </trkpt>
      <trkpt lat="44.4593" lon="2.95082">
        <ele>425</ele>
        <time>2021-08-17T14:35:56Z</time>
      </trkpt>
      <trkpt lat="44.45945" lon="2.9508">
        <ele>424</ele>
        <time>2021-08-17T14:35:58Z</time>
      </trkpt>
      <trkpt lat="44.4596" lon="2.95076">
        <ele>422.9</ele>
        <time>2021-08-17T14:36:00Z</time>
      </trkpt>
      <trkpt lat="44.45977" lon="2.9507">
        <ele>421.9</ele>
        <time>2021-08-17T14:36:02Z</time>
      </trkpt>
      <trkpt lat="44.45995" lon="2.95062">
        <ele>420.8</ele>
        <time>2021-08-17T14:36:04Z</time>
      </trkpt>
      <trkpt lat="44.46013" lon="2.95055">
        <ele>420.6</ele>
        <time>2021-08-17T14:36:06Z</time>
      </trkpt>
      <trkpt lat="44.46033" lon="2.95051">
        <ele>420.6</ele>
        <time>2021-08-17T14:36:08Z</time>
      </trkpt>
      <trkpt lat="44.46053" lon="2.95049">
        <ele>420.6</ele>
        <time>2021-08-17T14:36:10Z</time>
      </trkpt>
      <trkpt lat="44.46072" lon="2.95049">
        <ele>420.5</ele>
        <time>2021-08-17T14:36:12Z</time>
      </trkpt>
      <trkpt lat="44.46091" lon="2.95048">
        <ele>420.3</ele>
        <time>2021-08-17T14:36:14Z</time>
      </trkpt>
      <trkpt lat="44.46108" lon="2.95048">
        <ele>419.9</ele>
        <time>2021-08-17T14:36:16Z</time>
      </trkpt>
      <trkpt lat="44.46125" lon="2.95048">
        <ele>419.5</ele>
        <time>2021-08-17T14:36:18Z</time>
      </trkpt>
      <trkpt lat="44.4614" lon="2.95046">
        <ele>419.2</ele>
        <time>2021-08-17T14:36:20Z</time>
      </trkpt>
      <trkpt lat="44.46154" lon="2.95044">
        <ele>418.8</ele>
        <time>2021-08-17T14:36:22Z</time>
      </trkpt>
      <trkpt lat="44.46168" lon="2.95042">
        <ele>418.5</ele>
        <time>2021-08-17T14:36:24Z</time>
      </trkpt>
      <trkpt lat="44.4618" lon="2.95039">
        <ele>418.6</ele>
        <time>2021-08-17T14:36:26Z</time>
      </trkpt>
      <trkpt lat="44.46191" lon="2.95037">
        <ele>418.6</ele>
        <time>2021-08-17T14:36:28Z</time>
      </trkpt>
      <trkpt lat="44.46202" lon="2.95033">
        <ele>418.7</ele>
        <time>2021-08-17T14:36:30Z</time>
      </trkpt>
      <trkpt lat="44.4621" lon="2.95026">
        <ele>418.9</ele>
        <time>2021-08-17T14:36:32Z</time>
      </trkpt>
      <trkpt lat="44.46218" lon="2.95017">
        <ele>419.1</ele>
        <time>2021-08-17T14:36:34Z</time>
      </trkpt>
      <trkpt lat="44.46224" lon="2.95006">
        <ele>419.3</ele>
        <time>2021-08-17T14:36:36Z</time>
      </trkpt>
      <trkpt lat="44.4623" lon="2.94997">
        <ele>419.6</ele>
        <time>2021-08-17T14:36:38Z</time>
      </trkpt>
      <trkpt lat="44.46237" lon="2.94989">
        <ele>420</ele>
        <time>2021-08-17T14:36:40Z</time>
      </trkpt>
      <trkpt lat="44.46243" lon="2.94979">
        <ele>420.4</ele>
        <time>2021-08-17T14:36:42Z</time>
      </trkpt>
      <trkpt lat="44.46248" lon="2.94969">
        <ele>420.7</ele>
        <time>2021-08-17T14:36:44Z</time>
      </trkpt>
      <trkpt lat="44.46254" lon="2.9496">
        <ele>420.9</ele>
        <time>2021-08-17T14:36:46Z</time>
      </trkpt>
      <trkpt lat="44.46257" lon="2.9495">
        <ele>421.1</ele>
        <time>2021-08-17T14:36:48Z</time>
      </trkpt>
      <trkpt lat="44.46262" lon="2.94941">
        <ele>421.2</ele>
        <time>2021-08-17T14:36:50Z</time>
      </trkpt>
      <trkpt lat="44.46267" lon="2.94933">
        <ele>421.4</ele>
        <time>2021-08-17T14:36:52Z</time>
      </trkpt>
      <trkpt lat="44.46273" lon="2.94923">
        <ele>421.5</ele>
        <time>2021-08-17T14:36:54Z</time>
      </trkpt>
      <trkpt lat="44.46278" lon="2.94914">
        <ele>421.7</ele>
        <time>2021-08-17T14:36:56Z</time>
      </trkpt>
      <trkpt lat="44.46283" lon="2.94905">
        <ele>421.6</ele>
        <time>2021-08-17T14:36:58Z</time>
      </trkpt>
      <trkpt lat="44.46287" lon="2.94896">
        <ele>421.4</ele>
        <time>2021-08-17T14:37:00Z</time>
      </trkpt>
      <trkpt lat="44.46292" lon="2.94887">
        <ele>421.3</ele>
        <time>2021-08-17T14:37:02Z</time>
      </trkpt>
      <trkpt lat="44.46297" lon="2.94878">
        <ele>421.2</ele>
        <time>2021-08-17T14:37:04Z</time>
      </trkpt>
      <trkpt lat="44.46302" lon="2.94869">
        <ele>421</ele>
        <time>2021-08-17T14:37:06Z</time>
      </trkpt>
      <trkpt lat="44.46307" lon="2.9486">
        <ele>420.9</ele>
        <time>2021-08-17T14:37:08Z</time>
      </trkpt>
      <trkpt lat="44.46312" lon="2.94851">
        <ele>420.7</ele>
        <time>2021-08-17T14:37:10Z</time>
      </trkpt>
      <trkpt lat="44.46317" lon="2.94842">
        <ele>420.5</ele>
        <time>2021-08-17T14:37:12Z</time>
      </trkpt>
      <trkpt lat="44.46321" lon="2.94833">
        <ele>420.3</ele>
        <time>2021-08-17T14:37:14Z</time>
      </trkpt>
      <trkpt lat="44.46326" lon="2.94823">
        <ele>420.3</ele>
        <time>2021-08-17T14:37:16Z</time>
      </trkpt>
      <trkpt lat="44.46331" lon="2.94814">
        <ele>420.3</ele>
        <time>2021-08-17T14:37:18Z</time>
      </trkpt>
      <trkpt lat="44.46337" lon="2.94806">
        <ele>420.3</ele>
        <time>2021-08-17T14:37:20Z</time>
      </trkpt>
      <trkpt lat="44.46344" lon="2.948">
        <ele>420.4</ele>
        <time>2021-08-17T14:37:22Z</time>
      </trkpt>
      <trkpt lat="44.46352" lon="2.948">
        <ele>420.4</ele>
        <time>2021-08-17T14:37:24Z</time>
      </trkpt>
      <trkpt lat="44.4636" lon="2.94804">
        <ele>420.4</ele>
        <time>2021-08-17T14:37:26Z</time>
      </trkpt>
      <trkpt lat="44.46366" lon="2.94809">
        <ele>420.3</ele>
        <time>2021-08-17T14:37:28Z</time>
      </trkpt>
      <trkpt lat="44.46373" lon="2.94814">
        <ele>420.2</ele>
        <time>2021-08-17T14:37:30Z</time>
      </trkpt>
      <trkpt lat="44.4638" lon="2.94817">
        <ele>420.2</ele>
        <time>2021-08-17T14:37:32Z</time>
      </trkpt>
      <trkpt lat="44.46387" lon="2.94814">
        <ele>420.2</ele>
        <time>2021-08-17T14:37:34Z</time>
      </trkpt>
      <trkpt lat="44.46393" lon="2.94807">
        <ele>420.3</ele>
        <time>2021-08-17T14:37:36Z</time>
      </trkpt>
      <trkpt lat="44.46395" lon="2.94798">
        <ele>420.4</ele>
        <time>2021-08-17T14:37:38Z</time>
      </trkpt>
      <trkpt lat="44.46397" lon="2.94792">
        <ele>420.5</ele>
        <time>2021-08-17T14:37:40Z</time>
      </trkpt>
      <trkpt lat="44.46398" lon="2.94786">
        <ele>420.6</ele>
        <time>2021-08-17T14:37:42Z</time>
      </trkpt>
      <trkpt lat="44.46399" lon="2.94779">
        <ele>420.6</ele>
        <time>2021-08-17T14:37:44Z</time>
      </trkpt>
      <trkpt lat="44.46398" lon="2.94772">
        <ele>420.7</ele>
        <time>2021-08-17T14:37:46Z</time>
      </trkpt>
      <trkpt lat="44.46399" lon="2.94767">
        <ele>420.8</ele>
        <time>2021-08-17T14:37:48Z</time>
      </trkpt>
      <trkpt lat="44.46401" lon="2.94763">
        <ele>420.8</ele>
        <time>2021-08-17T14:37:50Z</time>
      </trkpt>
      <trkpt lat="44.46403" lon="2.94757">
        <ele>420.9</ele>
        <time>2021-08-17T14:37:52Z</time>
      </trkpt>
      <trkpt lat="44.46407" lon="2.94752">
        <ele>421</ele>
        <time>2021-08-17T14:37:54Z</time>
      </trkpt>
      <trkpt lat="44.4641" lon="2.94747">
        <ele>421</ele>
        <time>2021-08-17T14:37:56Z</time>
      </trkpt>
      <trkpt lat="44.46413" lon="2.9474">
        <ele>421</ele>
        <time>2021-08-17T14:37:58Z</time>
      </trkpt>
      <trkpt lat="44.46416" lon="2.94734">
        <ele>421</ele>
        <time>2021-08-17T14:38:00Z</time>
      </trkpt>
      <trkpt lat="44.46419" lon="2.94728">
        <ele>420.9</ele>
        <time>2021-08-17T14:38:02Z</time>
      </trkpt>
      <trkpt lat="44.46421" lon="2.94722">
        <ele>420.8</ele>
        <time>2021-08-17T14:38:04Z</time>
      </trkpt>
      <trkpt lat="44.46423" lon="2.94718">
        <ele>420.8</ele>
        <time>2021-08-17T14:38:06Z</time>
      </trkpt>
      <trkpt lat="44.46426" lon="2.94713">
        <ele>420.7</ele>
        <time>2021-08-17T14:38:08Z</time>
      </trkpt>
      <trkpt lat="44.46427" lon="2.94709">
        <ele>420.7</ele>
        <time>2021-08-17T14:38:10Z</time>
      </trkpt>
      <trkpt lat="44.46429" lon="2.94705">
        <ele>420.7</ele>
        <time>2021-08-17T14:38:12Z</time>
      </trkpt>
      <trkpt lat="44.46432" lon="2.94701">
        <ele>420.6</ele>
        <time>2021-08-17T14:38:14Z</time>
      </trkpt>
      <trkpt lat="44.46432" lon="2.94697">
        <ele>420.6</ele>
        <time>2021-08-17T14:38:16Z</time>
      </trkpt>
      <trkpt lat="44.46433" lon="2.94692">
        <ele>420.6</ele>
        <time>2021-08-17T14:38:18Z</time>
      </trkpt>
      <trkpt lat="44.46433" lon="2.94687">
        <ele>420.7</ele>
        <time>2021-08-17T14:38:20Z</time>
      </trkpt>
      <trkpt lat="44.46432" lon="2.94681">
        <ele>420.7</ele>
        <time>2021-08-17T14:38:22Z</time>
      </trkpt>
      <trkpt lat="44.46431" lon="2.94676">
        <ele>420.8</ele>
        <time>2021-08-17T14:38:24Z</time>
      </trkpt>
      <trkpt lat="44.4643" lon="2.94671">
        <ele>420.8</ele>
        <time>2021-08-17T14:38:26Z</time>
      </trkpt>
      <trkpt lat="44.46429" lon="2.94666">
        <ele>420.9</ele>
        <time>2021-08-17T14:38:28Z</time>
      </trkpt>
      <trkpt lat="44.46427" lon="2.9466">
        <ele>420.9</ele>
        <time>2021-08-17T14:38:30Z</time>
      </trkpt>
      <trkpt lat="44.46426" lon="2.94654">
        <ele>421</ele>
        <time>2021-08-17T14:38:32Z</time>
      </trkpt>
      <trkpt lat="44.46427" lon="2.94647">
        <ele>421.1</ele>
        <time>2021-08-17T14:38:34Z</time>
      </trkpt>
      <trkpt lat="44.46427" lon="2.94642">
        <ele>421.2</ele>
        <time>2021-08-17T14:38:36Z</time>
      </trkpt>
      <trkpt lat="44.46428" lon="2.94637">
        <ele>421.2</ele>
        <time>2021-08-17T14:38:38Z</time>
      </trkpt>
      <trkpt lat="44.46428" lon="2.94634">
        <ele>421.3</ele>
        <time>2021-08-17T14:38:40Z</time>
      </trkpt>
      <trkpt lat="44.46427" lon="2.94631">
        <ele>421.3</ele>
        <time>2021-08-17T14:38:42Z</time>
      </trkpt>
      <trkpt lat="44.46427" lon="2.94627">
        <ele>421.4</ele>
        <time>2021-08-17T14:38:44Z</time>
      </trkpt>
      <trkpt lat="44.46427" lon="2.94623">
        <ele>421.4</ele>
        <time>2021-08-17T14:38:46Z</time>
      </trkpt>
      <trkpt lat="44.46427" lon="2.94619">
        <ele>421.5</ele>
        <time>2021-08-17T14:38:48Z</time>
      </trkpt>
      <trkpt lat="44.46436" lon="2.94609">
        <ele>421.5</ele>
        <time>2021-08-17T15:12:52Z</time>
      </trkpt>
      <trkpt lat="44.46435" lon="2.94614">
        <ele>421.4</ele>
        <time>2021-08-17T15:12:54Z</time>
      </trkpt>
      <trkpt lat="44.46432" lon="2.9462">
        <ele>421.4</ele>
        <time>2021-08-17T15:12:56Z</time>
      </trkpt>
      <trkpt lat="44.4643" lon="2.94626">
        <ele>421.3</ele>
        <time>2021-08-17T15:12:58Z</time>
      </trkpt>
      <trkpt lat="44.4643" lon="2.94633">
        <ele>421.2</ele>
        <time>2021-08-17T15:13:00Z</time>
      </trkpt>
      <trkpt lat="44.46431" lon="2.9464">
        <ele>421.2</ele>
        <time>2021-08-17T15:13:02Z</time>
      </trkpt>
      <trkpt lat="44.46431" lon="2.94647">
        <ele>421.1</ele>
        <time>2021-08-17T15:13:04Z</time>
      </trkpt>
      <trkpt lat="44.4643" lon="2.94654">
        <ele>421</ele>
        <time>2021-08-17T15:13:06Z</time>
      </trkpt>
      <trkpt lat="44.46431" lon="2.94659">
        <ele>420.9</ele>
        <time>2021-08-17T15:13:08Z</time>
      </trkpt>
      <trkpt lat="44.46432" lon="2.94666">
        <ele>420.8</ele>
        <time>2021-08-17T15:13:10Z</time>
      </trkpt>
      <trkpt lat="44.46432" lon="2.94673">
        <ele>420.8</ele>
        <time>2021-08-17T15:13:12Z</time>
      </trkpt>
      <trkpt lat="44.46434" lon="2.94679">
        <ele>420.7</ele>
        <time>2021-08-17T15:13:14Z</time>
      </trkpt>
      <trkpt lat="44.46433" lon="2.94686">
        <ele>420.7</ele>
        <time>2021-08-17T15:13:16Z</time>
      </trkpt>
      <trkpt lat="44.46436" lon="2.94693">
        <ele>420.6</ele>
        <time>2021-08-17T15:13:18Z</time>
      </trkpt>
      <trkpt lat="44.46436" lon="2.947">
        <ele>420.5</ele>
        <time>2021-08-17T15:13:20Z</time>
      </trkpt>
      <trkpt lat="44.46434" lon="2.94705">
        <ele>420.5</ele>
        <time>2021-08-17T15:13:22Z</time>
      </trkpt>
      <trkpt lat="44.46432" lon="2.9471">
        <ele>420.5</ele>
        <time>2021-08-17T15:13:24Z</time>
      </trkpt>
      <trkpt lat="44.46432" lon="2.94715">
        <ele>420.5</ele>
        <time>2021-08-17T15:13:26Z</time>
      </trkpt>
      <trkpt lat="44.4643" lon="2.94721">
        <ele>420.5</ele>
        <time>2021-08-17T15:13:28Z</time>
      </trkpt>
      <trkpt lat="44.46429" lon="2.94726">
        <ele>420.5</ele>
        <time>2021-08-17T15:13:30Z</time>
      </trkpt>
      <trkpt lat="44.46426" lon="2.94731">
        <ele>420.6</ele>
        <time>2021-08-17T15:13:32Z</time>
      </trkpt>
      <trkpt lat="44.46423" lon="2.94736">
        <ele>420.7</ele>
        <time>2021-08-17T15:13:34Z</time>
      </trkpt>
      <trkpt lat="44.4642" lon="2.9474">
        <ele>420.9</ele>
        <time>2021-08-17T15:13:36Z</time>
      </trkpt>
      <trkpt lat="44.46418" lon="2.94745">
        <ele>421</ele>
        <time>2021-08-17T15:13:38Z</time>
      </trkpt>
      <trkpt lat="44.46416" lon="2.94749">
        <ele>421</ele>
        <time>2021-08-17T15:13:40Z</time>
      </trkpt>
      <trkpt lat="44.46414" lon="2.94753">
        <ele>421</ele>
        <time>2021-08-17T15:13:42Z</time>
      </trkpt>
      <trkpt lat="44.46411" lon="2.94758">
        <ele>420.9</ele>
        <time>2021-08-17T15:13:44Z</time>
      </trkpt>
      <trkpt lat="44.46409" lon="2.94763">
        <ele>420.8</ele>
        <time>2021-08-17T15:13:46Z</time>
      </trkpt>
      <trkpt lat="44.46405" lon="2.94768">
        <ele>420.8</ele>
        <time>2021-08-17T15:13:48Z</time>
      </trkpt>
      <trkpt lat="44.46403" lon="2.94775">
        <ele>420.7</ele>
        <time>2021-08-17T15:13:50Z</time>
      </trkpt>
      <trkpt lat="44.46403" lon="2.94781">
        <ele>420.6</ele>
        <time>2021-08-17T15:13:52Z</time>
      </trkpt>
      <trkpt lat="44.46403" lon="2.94786">
        <ele>420.6</ele>
        <time>2021-08-17T15:13:54Z</time>
      </trkpt>
      <trkpt lat="44.46401" lon="2.9479">
        <ele>420.5</ele>
        <time>2021-08-17T15:13:56Z</time>
      </trkpt>
      <trkpt lat="44.46399" lon="2.94796">
        <ele>420.5</ele>
        <time>2021-08-17T15:13:58Z</time>
      </trkpt>
      <trkpt lat="44.46397" lon="2.94801">
        <ele>420.4</ele>
        <time>2021-08-17T15:14:00Z</time>
      </trkpt>
      <trkpt lat="44.46395" lon="2.94806">
        <ele>420.3</ele>
        <time>2021-08-17T15:14:02Z</time>
      </trkpt>
      <trkpt lat="44.46393" lon="2.94811">
        <ele>420.3</ele>
        <time>2021-08-17T15:14:04Z</time>
      </trkpt>
      <trkpt lat="44.46392" lon="2.94814">
        <ele>420.2</ele>
        <time>2021-08-17T15:14:06Z</time>
      </trkpt>
      <trkpt lat="44.46391" lon="2.94816">
        <ele>420.2</ele>
        <time>2021-08-17T15:14:08Z</time>
      </trkpt>
      <trkpt lat="44.46391" lon="2.94819">
        <ele>420.2</ele>
        <time>2021-08-17T15:14:10Z</time>
      </trkpt>
      <trkpt lat="44.4639" lon="2.94819">
        <ele>420.2</ele>
        <time>2021-08-17T15:14:12Z</time>
      </trkpt>
      <trkpt lat="44.4639" lon="2.9482">
        <ele>420.2</ele>
        <time>2021-08-17T15:14:14Z</time>
      </trkpt>
      <trkpt lat="44.46392" lon="2.94821">
        <ele>420.2</ele>
        <time>2021-08-17T15:14:16Z</time>
      </trkpt>
      <trkpt lat="44.46406" lon="2.94833">
        <ele>420</ele>
        <time>2021-08-17T15:14:24Z</time>
      </trkpt>
      <trkpt lat="44.4641" lon="2.94839">
        <ele>419.9</ele>
        <time>2021-08-17T15:14:26Z</time>
      </trkpt>
      <trkpt lat="44.46415" lon="2.94845">
        <ele>419.7</ele>
        <time>2021-08-17T15:14:28Z</time>
      </trkpt>
      <trkpt lat="44.4642" lon="2.94851">
        <ele>419.6</ele>
        <time>2021-08-17T15:14:30Z</time>
      </trkpt>
      <trkpt lat="44.46426" lon="2.94856">
        <ele>419.4</ele>
        <time>2021-08-17T15:14:32Z</time>
      </trkpt>
      <trkpt lat="44.46432" lon="2.9486">
        <ele>419.4</ele>
        <time>2021-08-17T15:14:34Z</time>
      </trkpt>
      <trkpt lat="44.46438" lon="2.94863">
        <ele>419.3</ele>
        <time>2021-08-17T15:14:36Z</time>
      </trkpt>
      <trkpt lat="44.46445" lon="2.94864">
        <ele>419.3</ele>
        <time>2021-08-17T15:14:38Z</time>
      </trkpt>
      <trkpt lat="44.46452" lon="2.94865">
        <ele>419.3</ele>
        <time>2021-08-17T15:14:40Z</time>
      </trkpt>
      <trkpt lat="44.46459" lon="2.94864">
        <ele>419.3</ele>
        <time>2021-08-17T15:14:42Z</time>
      </trkpt>
      <trkpt lat="44.46467" lon="2.94862">
        <ele>419.3</ele>
        <time>2021-08-17T15:14:44Z</time>
      </trkpt>
      <trkpt lat="44.46473" lon="2.94861">
        <ele>419.3</ele>
        <time>2021-08-17T15:14:46Z</time>
      </trkpt>
      <trkpt lat="44.46479" lon="2.9486">
        <ele>419.3</ele>
        <time>2021-08-17T15:14:48Z</time>
      </trkpt>
      <trkpt lat="44.46484" lon="2.94859">
        <ele>419.3</ele>
        <time>2021-08-17T15:14:50Z</time>
      </trkpt>
      <trkpt lat="44.4649" lon="2.94858">
        <ele>419.3</ele>
        <time>2021-08-17T15:14:52Z</time>
      </trkpt>
      <trkpt lat="44.46495" lon="2.94856">
        <ele>419.3</ele>
        <time>2021-08-17T15:14:54Z</time>
      </trkpt>
      <trkpt lat="44.46502" lon="2.94854">
        <ele>419.5</ele>
        <time>2021-08-17T15:14:56Z</time>
      </trkpt>
      <trkpt lat="44.46508" lon="2.94854">
        <ele>420.4</ele>
        <time>2021-08-17T15:14:58Z</time>
      </trkpt>
      <trkpt lat="44.46513" lon="2.94853">
        <ele>421.3</ele>
        <time>2021-08-17T15:15:00Z</time>
      </trkpt>
      <trkpt lat="44.46519" lon="2.94851">
        <ele>422.2</ele>
        <time>2021-08-17T15:15:02Z</time>
      </trkpt>
      <trkpt lat="44.46525" lon="2.94851">
        <ele>423</ele>
        <time>2021-08-17T15:15:04Z</time>
      </trkpt>
      <trkpt lat="44.46531" lon="2.9485">
        <ele>423.9</ele>
        <time>2021-08-17T15:15:06Z</time>
      </trkpt>
      <trkpt lat="44.46536" lon="2.94848">
        <ele>424.7</ele>
        <time>2021-08-17T15:15:08Z</time>
      </trkpt>
      <trkpt lat="44.46542" lon="2.94847">
        <ele>425.6</ele>
        <time>2021-08-17T15:15:10Z</time>
      </trkpt>
      <trkpt lat="44.46548" lon="2.94845">
        <ele>426.4</ele>
        <time>2021-08-17T15:15:12Z</time>
      </trkpt>
      <trkpt lat="44.46553" lon="2.94843">
        <ele>427</ele>
        <time>2021-08-17T15:15:14Z</time>
      </trkpt>
      <trkpt lat="44.46556" lon="2.9484">
        <ele>427.3</ele>
        <time>2021-08-17T15:15:16Z</time>
      </trkpt>
      <trkpt lat="44.46559" lon="2.94837">
        <ele>427.7</ele>
        <time>2021-08-17T15:15:18Z</time>
      </trkpt>
      <trkpt lat="44.46562" lon="2.94835">
        <ele>428</ele>
        <time>2021-08-17T15:15:20Z</time>
      </trkpt>
      <trkpt lat="44.46564" lon="2.94832">
        <ele>428.1</ele>
        <time>2021-08-17T15:15:22Z</time>
      </trkpt>
      <trkpt lat="44.46567" lon="2.9483">
        <ele>428.3</ele>
        <time>2021-08-17T15:15:24Z</time>
      </trkpt>
      <trkpt lat="44.4657" lon="2.94828">
        <ele>428.6</ele>
        <time>2021-08-17T15:15:26Z</time>
      </trkpt>
      <trkpt lat="44.46573" lon="2.94825">
        <ele>428.8</ele>
        <time>2021-08-17T15:15:28Z</time>
      </trkpt>
      <trkpt lat="44.46576" lon="2.94823">
        <ele>429</ele>
        <time>2021-08-17T15:15:30Z</time>
      </trkpt>
      <trkpt lat="44.46579" lon="2.94821">
        <ele>429.2</ele>
        <time>2021-08-17T15:15:32Z</time>
      </trkpt>
      <trkpt lat="44.46581" lon="2.94818">
        <ele>429.3</ele>
        <time>2021-08-17T15:15:34Z</time>
      </trkpt>
      <trkpt lat="44.46584" lon="2.94816">
        <ele>429.6</ele>
        <time>2021-08-17T15:15:36Z</time>
      </trkpt>
      <trkpt lat="44.46587" lon="2.94814">
        <ele>430.2</ele>
        <time>2021-08-17T15:15:38Z</time>
      </trkpt>
      <trkpt lat="44.46589" lon="2.94812">
        <ele>430.8</ele>
        <time>2021-08-17T15:15:40Z</time>
      </trkpt>
      <trkpt lat="44.46592" lon="2.9481">
        <ele>431.4</ele>
        <time>2021-08-17T15:15:42Z</time>
      </trkpt>
      <trkpt lat="44.46594" lon="2.94808">
        <ele>431.8</ele>
        <time>2021-08-17T15:15:44Z</time>
      </trkpt>
      <trkpt lat="44.46597" lon="2.94806">
        <ele>432.2</ele>
        <time>2021-08-17T15:15:46Z</time>
      </trkpt>
      <trkpt lat="44.466" lon="2.94804">
        <ele>432.8</ele>
        <time>2021-08-17T15:15:48Z</time>
      </trkpt>
      <trkpt lat="44.46602" lon="2.94803">
        <ele>433.4</ele>
        <time>2021-08-17T15:15:50Z</time>
      </trkpt>
      <trkpt lat="44.46605" lon="2.948">
        <ele>433.8</ele>
        <time>2021-08-17T15:15:52Z</time>
      </trkpt>
      <trkpt lat="44.46608" lon="2.94799">
        <ele>434.3</ele>
        <time>2021-08-17T15:15:54Z</time>
      </trkpt>
      <trkpt lat="44.4661" lon="2.94797">
        <ele>434.7</ele>
        <time>2021-08-17T15:15:56Z</time>
      </trkpt>
      <trkpt lat="44.46613" lon="2.94795">
        <ele>435.2</ele>
        <time>2021-08-17T15:15:58Z</time>
      </trkpt>
      <trkpt lat="44.46616" lon="2.94794">
        <ele>435.7</ele>
        <time>2021-08-17T15:16:00Z</time>
      </trkpt>
      <trkpt lat="44.46618" lon="2.94791">
        <ele>435.9</ele>
        <time>2021-08-17T15:16:02Z</time>
      </trkpt>
      <trkpt lat="44.46622" lon="2.94788">
        <ele>436.2</ele>
        <time>2021-08-17T15:16:04Z</time>
      </trkpt>
      <trkpt lat="44.46625" lon="2.94786">
        <ele>436.7</ele>
        <time>2021-08-17T15:16:06Z</time>
      </trkpt>
      <trkpt lat="44.46628" lon="2.94784">
        <ele>437</ele>
        <time>2021-08-17T15:16:08Z</time>
      </trkpt>
      <trkpt lat="44.4663" lon="2.94782">
        <ele>437.3</ele>
        <time>2021-08-17T15:16:10Z</time>
      </trkpt>
      <trkpt lat="44.46634" lon="2.9478">
        <ele>437.5</ele>
        <time>2021-08-17T15:16:12Z</time>
      </trkpt>
      <trkpt lat="44.46636" lon="2.94777">
        <ele>437.6</ele>
        <time>2021-08-17T15:16:14Z</time>
      </trkpt>
      <trkpt lat="44.46639" lon="2.94776">
        <ele>438</ele>
        <time>2021-08-17T15:16:16Z</time>
      </trkpt>
      <trkpt lat="44.46642" lon="2.94773">
        <ele>438</ele>
        <time>2021-08-17T15:16:18Z</time>
      </trkpt>
      <trkpt lat="44.46645" lon="2.94772">
        <ele>438.3</ele>
        <time>2021-08-17T15:16:20Z</time>
      </trkpt>
      <trkpt lat="44.46648" lon="2.9477">
        <ele>438.6</ele>
        <time>2021-08-17T15:16:22Z</time>
      </trkpt>
      <trkpt lat="44.46651" lon="2.94769">
        <ele>439.1</ele>
        <time>2021-08-17T15:16:24Z</time>
      </trkpt>
      <trkpt lat="44.46654" lon="2.9477">
        <ele>439.9</ele>
        <time>2021-08-17T15:16:26Z</time>
      </trkpt>
      <trkpt lat="44.46656" lon="2.94774">
        <ele>441.4</ele>
        <time>2021-08-17T15:16:28Z</time>
      </trkpt>
      <trkpt lat="44.46657" lon="2.94779">
        <ele>442.6</ele>
        <time>2021-08-17T15:16:30Z</time>
      </trkpt>
      <trkpt lat="44.46655" lon="2.94782">
        <ele>443</ele>
        <time>2021-08-17T15:16:32Z</time>
      </trkpt>
      <trkpt lat="44.46653" lon="2.94785">
        <ele>443.5</ele>
        <time>2021-08-17T15:16:34Z</time>
      </trkpt>
      <trkpt lat="44.46652" lon="2.94789">
        <ele>444</ele>
        <time>2021-08-17T15:16:36Z</time>
      </trkpt>
      <trkpt lat="44.4665" lon="2.94792">
        <ele>444.3</ele>
        <time>2021-08-17T15:16:38Z</time>
      </trkpt>
      <trkpt lat="44.46648" lon="2.94795">
        <ele>444.5</ele>
        <time>2021-08-17T15:16:40Z</time>
      </trkpt>
      <trkpt lat="44.46647" lon="2.94798">
        <ele>444.8</ele>
        <time>2021-08-17T15:16:42Z</time>
      </trkpt>
      <trkpt lat="44.46645" lon="2.948">
        <ele>444.8</ele>
        <time>2021-08-17T15:16:44Z</time>
      </trkpt>
      <trkpt lat="44.46643" lon="2.94802">
        <ele>444.8</ele>
        <time>2021-08-17T15:16:46Z</time>
      </trkpt>
      <trkpt lat="44.46641" lon="2.94805">
        <ele>445</ele>
        <time>2021-08-17T15:16:48Z</time>
      </trkpt>
      <trkpt lat="44.46639" lon="2.94808">
        <ele>445</ele>
        <time>2021-08-17T15:16:50Z</time>
      </trkpt>
      <trkpt lat="44.46637" lon="2.94811">
        <ele>444.9</ele>
        <time>2021-08-17T15:16:52Z</time>
      </trkpt>
      <trkpt lat="44.46635" lon="2.94814">
        <ele>445</ele>
        <time>2021-08-17T15:16:54Z</time>
      </trkpt>
      <trkpt lat="44.46633" lon="2.94817">
        <ele>445.1</ele>
        <time>2021-08-17T15:16:56Z</time>
      </trkpt>
      <trkpt lat="44.46632" lon="2.94821">
        <ele>445.4</ele>
        <time>2021-08-17T15:16:58Z</time>
      </trkpt>
      <trkpt lat="44.4663" lon="2.94823">
        <ele>445.2</ele>
        <time>2021-08-17T15:17:00Z</time>
      </trkpt>
      <trkpt lat="44.46627" lon="2.94826">
        <ele>444.9</ele>
        <time>2021-08-17T15:17:02Z</time>
      </trkpt>
      <trkpt lat="44.46625" lon="2.9483">
        <ele>444.9</ele>
        <time>2021-08-17T15:17:04Z</time>
      </trkpt>
      <trkpt lat="44.46623" lon="2.94832">
        <ele>444.8</ele>
        <time>2021-08-17T15:17:06Z</time>
      </trkpt>
      <trkpt lat="44.46621" lon="2.94835">
        <ele>444.3</ele>
        <time>2021-08-17T15:17:08Z</time>
      </trkpt>
      <trkpt lat="44.46619" lon="2.94838">
        <ele>443.7</ele>
        <time>2021-08-17T15:17:10Z</time>
      </trkpt>
      <trkpt lat="44.46617" lon="2.94841">
        <ele>443.2</ele>
        <time>2021-08-17T15:17:12Z</time>
      </trkpt>
      <trkpt lat="44.46615" lon="2.94844">
        <ele>442.9</ele>
        <time>2021-08-17T15:17:14Z</time>
      </trkpt>
      <trkpt lat="44.46613" lon="2.94847">
        <ele>442.3</ele>
        <time>2021-08-17T15:17:16Z</time>
      </trkpt>
      <trkpt lat="44.46611" lon="2.9485">
        <ele>441.7</ele>
        <time>2021-08-17T15:17:18Z</time>
      </trkpt>
      <trkpt lat="44.46608" lon="2.94853">
        <ele>441</ele>
        <time>2021-08-17T15:17:20Z</time>
      </trkpt>
      <trkpt lat="44.46606" lon="2.94856">
        <ele>440.5</ele>
        <time>2021-08-17T15:17:22Z</time>
      </trkpt>
      <trkpt lat="44.46604" lon="2.94859">
        <ele>439.9</ele>
        <time>2021-08-17T15:17:24Z</time>
      </trkpt>
      <trkpt lat="44.46601" lon="2.94863">
        <ele>439.2</ele>
        <time>2021-08-17T15:17:26Z</time>
      </trkpt>
      <trkpt lat="44.46599" lon="2.94866">
        <ele>438.7</ele>
        <time>2021-08-17T15:17:28Z</time>
      </trkpt>
      <trkpt lat="44.46597" lon="2.94869">
        <ele>438.2</ele>
        <time>2021-08-17T15:17:30Z</time>
      </trkpt>
      <trkpt lat="44.46595" lon="2.94873">
        <ele>437.7</ele>
        <time>2021-08-17T15:17:32Z</time>
      </trkpt>
      <trkpt lat="44.46594" lon="2.94876">
        <ele>437.4</ele>
        <time>2021-08-17T15:17:34Z</time>
      </trkpt>
      <trkpt lat="44.46592" lon="2.9488">
        <ele>437</ele>
        <time>2021-08-17T15:17:36Z</time>
      </trkpt>
      <trkpt lat="44.46591" lon="2.94884">
        <ele>436.9</ele>
        <time>2021-08-17T15:17:38Z</time>
      </trkpt>
      <trkpt lat="44.4659" lon="2.94888">
        <ele>436.8</ele>
        <time>2021-08-17T15:17:40Z</time>
      </trkpt>
      <trkpt lat="44.46591" lon="2.94892">
        <ele>437.4</ele>
        <time>2021-08-17T15:17:42Z</time>
      </trkpt>
      <trkpt lat="44.46594" lon="2.94894">
        <ele>438.6</ele>
        <time>2021-08-17T15:17:44Z</time>
      </trkpt>
      <trkpt lat="44.46595" lon="2.94898">
        <ele>439.3</ele>
        <time>2021-08-17T15:17:46Z</time>
      </trkpt>
      <trkpt lat="44.46597" lon="2.949">
        <ele>440.1</ele>
        <time>2021-08-17T15:17:48Z</time>
      </trkpt>
      <trkpt lat="44.466" lon="2.94902">
        <ele>441.4</ele>
        <time>2021-08-17T15:17:50Z</time>
      </trkpt>
      <trkpt lat="44.46603" lon="2.94903">
        <ele>442.8</ele>
        <time>2021-08-17T15:17:52Z</time>
      </trkpt>
      <trkpt lat="44.46607" lon="2.94906">
        <ele>444.5</ele>
        <time>2021-08-17T15:17:54Z</time>
      </trkpt>
      <trkpt lat="44.4661" lon="2.94908">
        <ele>445.7</ele>
        <time>2021-08-17T15:17:56Z</time>
      </trkpt>
      <trkpt lat="44.46613" lon="2.94909">
        <ele>446.9</ele>
        <time>2021-08-17T15:17:58Z</time>
      </trkpt>
      <trkpt lat="44.46616" lon="2.9491">
        <ele>448.1</ele>
        <time>2021-08-17T15:18:00Z</time>
      </trkpt>
      <trkpt lat="44.46619" lon="2.94907">
        <ele>449.1</ele>
        <time>2021-08-17T15:18:02Z</time>
      </trkpt>
      <trkpt lat="44.46624" lon="2.94899">
        <ele>450.2</ele>
        <time>2021-08-17T15:18:04Z</time>
      </trkpt>
      <trkpt lat="44.46626" lon="2.94893">
        <ele>450.7</ele>
        <time>2021-08-17T15:18:06Z</time>
      </trkpt>
      <trkpt lat="44.46629" lon="2.94886">
        <ele>451.2</ele>
        <time>2021-08-17T15:18:08Z</time>
      </trkpt>
      <trkpt lat="44.46633" lon="2.94879">
        <ele>451.9</ele>
        <time>2021-08-17T15:18:10Z</time>
      </trkpt>
      <trkpt lat="44.46637" lon="2.94871">
        <ele>452.8</ele>
        <time>2021-08-17T15:18:12Z</time>
      </trkpt>
      <trkpt lat="44.46641" lon="2.94863">
        <ele>453.6</ele>
        <time>2021-08-17T15:18:14Z</time>
      </trkpt>
      <trkpt lat="44.46645" lon="2.94854">
        <ele>454.4</ele>
        <time>2021-08-17T15:18:16Z</time>
      </trkpt>
      <trkpt lat="44.4665" lon="2.94845">
        <ele>455.2</ele>
        <time>2021-08-17T15:18:18Z</time>
      </trkpt>
      <trkpt lat="44.46655" lon="2.94836">
        <ele>456.2</ele>
        <time>2021-08-17T15:18:20Z</time>
      </trkpt>
      <trkpt lat="44.46661" lon="2.94826">
        <ele>456</ele>
        <time>2021-08-17T15:18:22Z</time>
      </trkpt>
      <trkpt lat="44.46666" lon="2.94816">
        <ele>454.8</ele>
        <time>2021-08-17T15:18:24Z</time>
      </trkpt>
      <trkpt lat="44.46671" lon="2.94805">
        <ele>453.6</ele>
        <time>2021-08-17T15:18:26Z</time>
      </trkpt>
      <trkpt lat="44.46677" lon="2.94795">
        <ele>453</ele>
        <time>2021-08-17T15:18:28Z</time>
      </trkpt>
      <trkpt lat="44.46684" lon="2.94785">
        <ele>452.1</ele>
        <time>2021-08-17T15:18:30Z</time>
      </trkpt>
      <trkpt lat="44.4669" lon="2.94775">
        <ele>451.2</ele>
        <time>2021-08-17T15:18:32Z</time>
      </trkpt>
      <trkpt lat="44.46698" lon="2.94764">
        <ele>450.4</ele>
        <time>2021-08-17T15:18:34Z</time>
      </trkpt>
      <trkpt lat="44.46707" lon="2.94755">
        <ele>450.1</ele>
        <time>2021-08-17T15:18:36Z</time>
      </trkpt>
      <trkpt lat="44.46715" lon="2.94747">
        <ele>450.1</ele>
        <time>2021-08-17T15:18:38Z</time>
      </trkpt>
      <trkpt lat="44.46725" lon="2.94739">
        <ele>450.5</ele>
        <time>2021-08-17T15:18:40Z</time>
      </trkpt>
      <trkpt lat="44.46735" lon="2.94731">
        <ele>450.8</ele>
        <time>2021-08-17T15:18:42Z</time>
      </trkpt>
      <trkpt lat="44.46745" lon="2.94724">
        <ele>451</ele>
        <time>2021-08-17T15:18:44Z</time>
      </trkpt>
      <trkpt lat="44.46755" lon="2.94718">
        <ele>451.8</ele>
        <time>2021-08-17T15:18:46Z</time>
      </trkpt>
      <trkpt lat="44.46765" lon="2.94711">
        <ele>452.4</ele>
        <time>2021-08-17T15:18:48Z</time>
      </trkpt>
      <trkpt lat="44.46775" lon="2.94704">
        <ele>453</ele>
        <time>2021-08-17T15:18:50Z</time>
      </trkpt>
      <trkpt lat="44.46786" lon="2.94697">
        <ele>453.9</ele>
        <time>2021-08-17T15:18:52Z</time>
      </trkpt>
      <trkpt lat="44.46797" lon="2.9469">
        <ele>454.7</ele>
        <time>2021-08-17T15:18:54Z</time>
      </trkpt>
      <trkpt lat="44.46808" lon="2.94682">
        <ele>455.3</ele>
        <time>2021-08-17T15:18:56Z</time>
      </trkpt>
      <trkpt lat="44.46818" lon="2.94674">
        <ele>455.8</ele>
        <time>2021-08-17T15:18:58Z</time>
      </trkpt>
      <trkpt lat="44.46828" lon="2.94664">
        <ele>455.7</ele>
        <time>2021-08-17T15:19:00Z</time>
      </trkpt>
      <trkpt lat="44.46839" lon="2.94654">
        <ele>455.4</ele>
        <time>2021-08-17T15:19:02Z</time>
      </trkpt>
      <trkpt lat="44.46849" lon="2.94644">
        <ele>454.1</ele>
        <time>2021-08-17T15:19:04Z</time>
      </trkpt>
      <trkpt lat="44.46859" lon="2.94633">
        <ele>452.5</ele>
        <time>2021-08-17T15:19:06Z</time>
      </trkpt>
      <trkpt lat="44.46869" lon="2.94624">
        <ele>451</ele>
        <time>2021-08-17T15:19:08Z</time>
      </trkpt>
      <trkpt lat="44.46879" lon="2.94615">
        <ele>449.4</ele>
        <time>2021-08-17T15:19:10Z</time>
      </trkpt>
      <trkpt lat="44.46889" lon="2.94607">
        <ele>448.4</ele>
        <time>2021-08-17T15:19:12Z</time>
      </trkpt>
      <trkpt lat="44.46901" lon="2.94603">
        <ele>448.2</ele>
        <time>2021-08-17T15:19:14Z</time>
      </trkpt>
      <trkpt lat="44.46913" lon="2.94599">
        <ele>448.2</ele>
        <time>2021-08-17T15:19:16Z</time>
      </trkpt>
      <trkpt lat="44.46925" lon="2.94597">
        <ele>448.6</ele>
        <time>2021-08-17T15:19:18Z</time>
      </trkpt>
      <trkpt lat="44.46937" lon="2.94594">
        <ele>448.8</ele>
        <time>2021-08-17T15:19:20Z</time>
      </trkpt>
      <trkpt lat="44.46948" lon="2.94591">
        <ele>448.8</ele>
        <time>2021-08-17T15:19:22Z</time>
      </trkpt>
      <trkpt lat="44.46959" lon="2.94588">
        <ele>448.5</ele>
        <time>2021-08-17T15:19:24Z</time>
      </trkpt>
      <trkpt lat="44.46969" lon="2.94584">
        <ele>447.8</ele>
        <time>2021-08-17T15:19:26Z</time>
      </trkpt>
      <trkpt lat="44.4698" lon="2.9458">
        <ele>447.5</ele>
        <time>2021-08-17T15:19:28Z</time>
      </trkpt>
      <trkpt lat="44.4699" lon="2.94576">
        <ele>447</ele>
        <time>2021-08-17T15:19:30Z</time>
      </trkpt>
      <trkpt lat="44.47" lon="2.94572">
        <ele>446.7</ele>
        <time>2021-08-17T15:19:32Z</time>
      </trkpt>
      <trkpt lat="44.4701" lon="2.94569">
        <ele>447.8</ele>
        <time>2021-08-17T15:19:34Z</time>
      </trkpt>
      <trkpt lat="44.4702" lon="2.94565">
        <ele>448.4</ele>
        <time>2021-08-17T15:19:36Z</time>
      </trkpt>
      <trkpt lat="44.4703" lon="2.94561">
        <ele>448.9</ele>
        <time>2021-08-17T15:19:38Z</time>
      </trkpt>
      <trkpt lat="44.47039" lon="2.94558">
        <ele>449.5</ele>
        <time>2021-08-17T15:19:40Z</time>
      </trkpt>
      <trkpt lat="44.47049" lon="2.94553">
        <ele>449.7</ele>
        <time>2021-08-17T15:19:42Z</time>
      </trkpt>
      <trkpt lat="44.4706" lon="2.9455">
        <ele>450</ele>
        <time>2021-08-17T15:19:44Z</time>
      </trkpt>
      <trkpt lat="44.47069" lon="2.94546">
        <ele>449.8</ele>
        <time>2021-08-17T15:19:46Z</time>
      </trkpt>
      <trkpt lat="44.4708" lon="2.94543">
        <ele>450.1</ele>
        <time>2021-08-17T15:19:48Z</time>
      </trkpt>
      <trkpt lat="44.4709" lon="2.94539">
        <ele>450</ele>
        <time>2021-08-17T15:19:50Z</time>
      </trkpt>
      <trkpt lat="44.47101" lon="2.94535">
        <ele>449.7</ele>
        <time>2021-08-17T15:19:52Z</time>
      </trkpt>
      <trkpt lat="44.47111" lon="2.94531">
        <ele>449.2</ele>
        <time>2021-08-17T15:19:54Z</time>
      </trkpt>
      <trkpt lat="44.47122" lon="2.94527">
        <ele>448.8</ele>
        <time>2021-08-17T15:19:56Z</time>
      </trkpt>
      <trkpt lat="44.47133" lon="2.94522">
        <ele>448.1</ele>
        <time>2021-08-17T15:19:58Z</time>
      </trkpt>
      <trkpt lat="44.47145" lon="2.94518">
        <ele>447.6</ele>
        <time>2021-08-17T15:20:00Z</time>
      </trkpt>
      <trkpt lat="44.47157" lon="2.94513">
        <ele>446.7</ele>
        <time>2021-08-17T15:20:02Z</time>
      </trkpt>
      <trkpt lat="44.47169" lon="2.94509">
        <ele>446</ele>
        <time>2021-08-17T15:20:04Z</time>
      </trkpt>
      <trkpt lat="44.47182" lon="2.94505">
        <ele>446</ele>
        <time>2021-08-17T15:20:06Z</time>
      </trkpt>
      <trkpt lat="44.47194" lon="2.94499">
        <ele>445.8</ele>
        <time>2021-08-17T15:20:08Z</time>
      </trkpt>
      <trkpt lat="44.47207" lon="2.94494">
        <ele>446.5</ele>
        <time>2021-08-17T15:20:10Z</time>
      </trkpt>
      <trkpt lat="44.4722" lon="2.9449">
        <ele>447.1</ele>
        <time>2021-08-17T15:20:12Z</time>
      </trkpt>
      <trkpt lat="44.47232" lon="2.94485">
        <ele>447.7</ele>
        <time>2021-08-17T15:20:14Z</time>
      </trkpt>
      <trkpt lat="44.47244" lon="2.9448">
        <ele>447.7</ele>
        <time>2021-08-17T15:20:16Z</time>
      </trkpt>
      <trkpt lat="44.47257" lon="2.94474">
        <ele>447.6</ele>
        <time>2021-08-17T15:20:18Z</time>
      </trkpt>
      <trkpt lat="44.47269" lon="2.94467">
        <ele>447.7</ele>
        <time>2021-08-17T15:20:20Z</time>
      </trkpt>
      <trkpt lat="44.47281" lon="2.9446">
        <ele>447.4</ele>
        <time>2021-08-17T15:20:22Z</time>
      </trkpt>
      <trkpt lat="44.47293" lon="2.94452">
        <ele>446.5</ele>
        <time>2021-08-17T15:20:24Z</time>
      </trkpt>
      <trkpt lat="44.47307" lon="2.94445">
        <ele>445.9</ele>
        <time>2021-08-17T15:20:26Z</time>
      </trkpt>
      <trkpt lat="44.4732" lon="2.94436">
        <ele>443.9</ele>
        <time>2021-08-17T15:20:28Z</time>
      </trkpt>
      <trkpt lat="44.47333" lon="2.94427">
        <ele>442</ele>
        <time>2021-08-17T15:20:30Z</time>
      </trkpt>
      <trkpt lat="44.47346" lon="2.94419">
        <ele>440.6</ele>
        <time>2021-08-17T15:20:32Z</time>
      </trkpt>
      <trkpt lat="44.47359" lon="2.94411">
        <ele>440.4</ele>
        <time>2021-08-17T15:20:34Z</time>
      </trkpt>
      <trkpt lat="44.47372" lon="2.94404">
        <ele>440.7</ele>
        <time>2021-08-17T15:20:36Z</time>
      </trkpt>
      <trkpt lat="44.47385" lon="2.94397">
        <ele>441</ele>
        <time>2021-08-17T15:20:38Z</time>
      </trkpt>
      <trkpt lat="44.47399" lon="2.94392">
        <ele>441.9</ele>
        <time>2021-08-17T15:20:40Z</time>
      </trkpt>
      <trkpt lat="44.47413" lon="2.94388">
        <ele>442.8</ele>
        <time>2021-08-17T15:20:42Z</time>
      </trkpt>
      <trkpt lat="44.47425" lon="2.94385">
        <ele>442.3</ele>
        <time>2021-08-17T15:20:44Z</time>
      </trkpt>
      <trkpt lat="44.47438" lon="2.94382">
        <ele>441.5</ele>
        <time>2021-08-17T15:20:46Z</time>
      </trkpt>
      <trkpt lat="44.4745" lon="2.94379">
        <ele>440.8</ele>
        <time>2021-08-17T15:20:48Z</time>
      </trkpt>
      <trkpt lat="44.47463" lon="2.94376">
        <ele>440.3</ele>
        <time>2021-08-17T15:20:50Z</time>
      </trkpt>
      <trkpt lat="44.47475" lon="2.94374">
        <ele>439.9</ele>
        <time>2021-08-17T15:20:52Z</time>
      </trkpt>
      <trkpt lat="44.47487" lon="2.94371">
        <ele>439.3</ele>
        <time>2021-08-17T15:20:54Z</time>
      </trkpt>
      <trkpt lat="44.47499" lon="2.94369">
        <ele>439.1</ele>
        <time>2021-08-17T15:20:56Z</time>
      </trkpt>
      <trkpt lat="44.47511" lon="2.94367">
        <ele>439.4</ele>
        <time>2021-08-17T15:20:58Z</time>
      </trkpt>
      <trkpt lat="44.47522" lon="2.94364">
        <ele>439.7</ele>
        <time>2021-08-17T15:21:00Z</time>
      </trkpt>
      <trkpt lat="44.47533" lon="2.94363">
        <ele>440.1</ele>
        <time>2021-08-17T15:21:02Z</time>
      </trkpt>
      <trkpt lat="44.47544" lon="2.94361">
        <ele>440.7</ele>
        <time>2021-08-17T15:21:04Z</time>
      </trkpt>
      <trkpt lat="44.47556" lon="2.9436">
        <ele>441.2</ele>
        <time>2021-08-17T15:21:06Z</time>
      </trkpt>
      <trkpt lat="44.47568" lon="2.94359">
        <ele>441.7</ele>
        <time>2021-08-17T15:21:08Z</time>
      </trkpt>
      <trkpt lat="44.4758" lon="2.94358">
        <ele>442.4</ele>
        <time>2021-08-17T15:21:10Z</time>
      </trkpt>
      <trkpt lat="44.4759" lon="2.94356">
        <ele>442.4</ele>
        <time>2021-08-17T15:21:12Z</time>
      </trkpt>
      <trkpt lat="44.47601" lon="2.94356">
        <ele>442.9</ele>
        <time>2021-08-17T15:21:14Z</time>
      </trkpt>
      <trkpt lat="44.47612" lon="2.94356">
        <ele>443.4</ele>
        <time>2021-08-17T15:21:16Z</time>
      </trkpt>
      <trkpt lat="44.47623" lon="2.94355">
        <ele>443.6</ele>
        <time>2021-08-17T15:21:18Z</time>
      </trkpt>
      <trkpt lat="44.47634" lon="2.94354">
        <ele>443.9</ele>
        <time>2021-08-17T15:21:20Z</time>
      </trkpt>
      <trkpt lat="44.47645" lon="2.94353">
        <ele>444</ele>
        <time>2021-08-17T15:21:22Z</time>
      </trkpt>
      <trkpt lat="44.47656" lon="2.94352">
        <ele>444</ele>
        <time>2021-08-17T15:21:24Z</time>
      </trkpt>
      <trkpt lat="44.47667" lon="2.94351">
        <ele>444.3</ele>
        <time>2021-08-17T15:21:26Z</time>
      </trkpt>
      <trkpt lat="44.47679" lon="2.9435">
        <ele>444.2</ele>
        <time>2021-08-17T15:21:28Z</time>
      </trkpt>
      <trkpt lat="44.4769" lon="2.9435">
        <ele>444.3</ele>
        <time>2021-08-17T15:21:30Z</time>
      </trkpt>
      <trkpt lat="44.47701" lon="2.94349">
        <ele>444.3</ele>
        <time>2021-08-17T15:21:32Z</time>
      </trkpt>
      <trkpt lat="44.47712" lon="2.94348">
        <ele>444.3</ele>
        <time>2021-08-17T15:21:34Z</time>
      </trkpt>
      <trkpt lat="44.47723" lon="2.94347">
        <ele>444.4</ele>
        <time>2021-08-17T15:21:36Z</time>
      </trkpt>
      <trkpt lat="44.47734" lon="2.94346">
        <ele>444.4</ele>
        <time>2021-08-17T15:21:38Z</time>
      </trkpt>
      <trkpt lat="44.47745" lon="2.94346">
        <ele>444.4</ele>
        <time>2021-08-17T15:21:40Z</time>
      </trkpt>
      <trkpt lat="44.47755" lon="2.94344">
        <ele>444.3</ele>
        <time>2021-08-17T15:21:42Z</time>
      </trkpt>
      <trkpt lat="44.47765" lon="2.94342">
        <ele>444</ele>
        <time>2021-08-17T15:21:44Z</time>
      </trkpt>
      <trkpt lat="44.47775" lon="2.9434">
        <ele>443.7</ele>
        <time>2021-08-17T15:21:46Z</time>
      </trkpt>
      <trkpt lat="44.47786" lon="2.94338">
        <ele>443.4</ele>
        <time>2021-08-17T15:21:48Z</time>
      </trkpt>
      <trkpt lat="44.47796" lon="2.94334">
        <ele>442.6</ele>
        <time>2021-08-17T15:21:50Z</time>
      </trkpt>
      <trkpt lat="44.47807" lon="2.94331">
        <ele>442.5</ele>
        <time>2021-08-17T15:21:52Z</time>
      </trkpt>
      <trkpt lat="44.47818" lon="2.94326">
        <ele>442.1</ele>
        <time>2021-08-17T15:21:54Z</time>
      </trkpt>
      <trkpt lat="44.47829" lon="2.94321">
        <ele>441.6</ele>
        <time>2021-08-17T15:21:56Z</time>
      </trkpt>
      <trkpt lat="44.47839" lon="2.94316">
        <ele>442</ele>
        <time>2021-08-17T15:21:58Z</time>
      </trkpt>
      <trkpt lat="44.47849" lon="2.94311">
        <ele>442.7</ele>
        <time>2021-08-17T15:22:00Z</time>
      </trkpt>
      <trkpt lat="44.47859" lon="2.94305">
        <ele>443.2</ele>
        <time>2021-08-17T15:22:02Z</time>
      </trkpt>
      <trkpt lat="44.47869" lon="2.94299">
        <ele>443.1</ele>
        <time>2021-08-17T15:22:04Z</time>
      </trkpt>
      <trkpt lat="44.47879" lon="2.94293">
        <ele>442.7</ele>
        <time>2021-08-17T15:22:06Z</time>
      </trkpt>
      <trkpt lat="44.47889" lon="2.94286">
        <ele>441.6</ele>
        <time>2021-08-17T15:22:08Z</time>
      </trkpt>
      <trkpt lat="44.47898" lon="2.94278">
        <ele>439.7</ele>
        <time>2021-08-17T15:22:10Z</time>
      </trkpt>
      <trkpt lat="44.47907" lon="2.94271">
        <ele>437.7</ele>
        <time>2021-08-17T15:22:12Z</time>
      </trkpt>
      <trkpt lat="44.47916" lon="2.94262">
        <ele>434.8</ele>
        <time>2021-08-17T15:22:14Z</time>
      </trkpt>
      <trkpt lat="44.47925" lon="2.94254">
        <ele>434.4</ele>
        <time>2021-08-17T15:22:16Z</time>
      </trkpt>
      <trkpt lat="44.47934" lon="2.94246">
        <ele>435.5</ele>
        <time>2021-08-17T15:22:18Z</time>
      </trkpt>
      <trkpt lat="44.47943" lon="2.94237">
        <ele>437.5</ele>
        <time>2021-08-17T15:22:20Z</time>
      </trkpt>
      <trkpt lat="44.47952" lon="2.94227">
        <ele>438.7</ele>
        <time>2021-08-17T15:22:22Z</time>
      </trkpt>
      <trkpt lat="44.47961" lon="2.94217">
        <ele>439.5</ele>
        <time>2021-08-17T15:22:24Z</time>
      </trkpt>
      <trkpt lat="44.47969" lon="2.94206">
        <ele>439.9</ele>
        <time>2021-08-17T15:22:26Z</time>
      </trkpt>
      <trkpt lat="44.47977" lon="2.94195">
        <ele>439.5</ele>
        <time>2021-08-17T15:22:28Z</time>
      </trkpt>
      <trkpt lat="44.47986" lon="2.94184">
        <ele>438.9</ele>
        <time>2021-08-17T15:22:30Z</time>
      </trkpt>
      <trkpt lat="44.47995" lon="2.94173">
        <ele>437.8</ele>
        <time>2021-08-17T15:22:32Z</time>
      </trkpt>
      <trkpt lat="44.48004" lon="2.94162">
        <ele>437.8</ele>
        <time>2021-08-17T15:22:34Z</time>
      </trkpt>
      <trkpt lat="44.48012" lon="2.94151">
        <ele>439.5</ele>
        <time>2021-08-17T15:22:36Z</time>
      </trkpt>
      <trkpt lat="44.4802" lon="2.9414">
        <ele>440.5</ele>
        <time>2021-08-17T15:22:38Z</time>
      </trkpt>
      <trkpt lat="44.48028" lon="2.94128">
        <ele>441.2</ele>
        <time>2021-08-17T15:22:40Z</time>
      </trkpt>
      <trkpt lat="44.48035" lon="2.94115">
        <ele>441.1</ele>
        <time>2021-08-17T15:22:42Z</time>
      </trkpt>
      <trkpt lat="44.48042" lon="2.94103">
        <ele>441.1</ele>
        <time>2021-08-17T15:22:44Z</time>
      </trkpt>
      <trkpt lat="44.48049" lon="2.94089">
        <ele>440.3</ele>
        <time>2021-08-17T15:22:46Z</time>
      </trkpt>
      <trkpt lat="44.48056" lon="2.94076">
        <ele>440.2</ele>
        <time>2021-08-17T15:22:48Z</time>
      </trkpt>
      <trkpt lat="44.48063" lon="2.94063">
        <ele>440.4</ele>
        <time>2021-08-17T15:22:50Z</time>
      </trkpt>
      <trkpt lat="44.4807" lon="2.9405">
        <ele>440.3</ele>
        <time>2021-08-17T15:22:52Z</time>
      </trkpt>
      <trkpt lat="44.48077" lon="2.94037">
        <ele>440</ele>
        <time>2021-08-17T15:22:54Z</time>
      </trkpt>
      <trkpt lat="44.48083" lon="2.94025">
        <ele>438.9</ele>
        <time>2021-08-17T15:22:56Z</time>
      </trkpt>
      <trkpt lat="44.4809" lon="2.94012">
        <ele>440.1</ele>
        <time>2021-08-17T15:22:58Z</time>
      </trkpt>
      <trkpt lat="44.48095" lon="2.93997">
        <ele>440.4</ele>
        <time>2021-08-17T15:23:00Z</time>
      </trkpt>
      <trkpt lat="44.48101" lon="2.93983">
        <ele>442.2</ele>
        <time>2021-08-17T15:23:02Z</time>
      </trkpt>
      <trkpt lat="44.48105" lon="2.93968">
        <ele>443.4</ele>
        <time>2021-08-17T15:23:04Z</time>
      </trkpt>
      <trkpt lat="44.48109" lon="2.93952">
        <ele>444</ele>
        <time>2021-08-17T15:23:06Z</time>
      </trkpt>
      <trkpt lat="44.48112" lon="2.93935">
        <ele>444.1</ele>
        <time>2021-08-17T15:23:08Z</time>
      </trkpt>
      <trkpt lat="44.48114" lon="2.93918">
        <ele>444.3</ele>
        <time>2021-08-17T15:23:10Z</time>
      </trkpt>
      <trkpt lat="44.48117" lon="2.93901">
        <ele>444.5</ele>
        <time>2021-08-17T15:23:12Z</time>
      </trkpt>
      <trkpt lat="44.48119" lon="2.93884">
        <ele>444.7</ele>
        <time>2021-08-17T15:23:14Z</time>
      </trkpt>
      <trkpt lat="44.48121" lon="2.93866">
        <ele>445</ele>
        <time>2021-08-17T15:23:16Z</time>
      </trkpt>
      <trkpt lat="44.48123" lon="2.93848">
        <ele>444.9</ele>
        <time>2021-08-17T15:23:18Z</time>
      </trkpt>
      <trkpt lat="44.48124" lon="2.93829">
        <ele>444.3</ele>
        <time>2021-08-17T15:23:20Z</time>
      </trkpt>
      <trkpt lat="44.48125" lon="2.9381">
        <ele>443.8</ele>
        <time>2021-08-17T15:23:22Z</time>
      </trkpt>
      <trkpt lat="44.48125" lon="2.93791">
        <ele>443</ele>
        <time>2021-08-17T15:23:24Z</time>
      </trkpt>
      <trkpt lat="44.48124" lon="2.93772">
        <ele>441.7</ele>
        <time>2021-08-17T15:23:26Z</time>
      </trkpt>
      <trkpt lat="44.48124" lon="2.93753">
        <ele>441</ele>
        <time>2021-08-17T15:23:28Z</time>
      </trkpt>
      <trkpt lat="44.48124" lon="2.93735">
        <ele>440.9</ele>
        <time>2021-08-17T15:23:30Z</time>
      </trkpt>
      <trkpt lat="44.48123" lon="2.93717">
        <ele>440.6</ele>
        <time>2021-08-17T15:23:32Z</time>
      </trkpt>
      <trkpt lat="44.48122" lon="2.937">
        <ele>440</ele>
        <time>2021-08-17T15:23:34Z</time>
      </trkpt>
      <trkpt lat="44.48121" lon="2.93684">
        <ele>439.3</ele>
        <time>2021-08-17T15:23:36Z</time>
      </trkpt>
      <trkpt lat="44.48119" lon="2.93668">
        <ele>438.6</ele>
        <time>2021-08-17T15:23:38Z</time>
      </trkpt>
      <trkpt lat="44.48118" lon="2.93652">
        <ele>438.5</ele>
        <time>2021-08-17T15:23:40Z</time>
      </trkpt>
      <trkpt lat="44.48116" lon="2.93636">
        <ele>438.1</ele>
        <time>2021-08-17T15:23:42Z</time>
      </trkpt>
      <trkpt lat="44.48114" lon="2.93621">
        <ele>437.6</ele>
        <time>2021-08-17T15:23:44Z</time>
      </trkpt>
      <trkpt lat="44.48113" lon="2.93607">
        <ele>437.4</ele>
        <time>2021-08-17T15:23:46Z</time>
      </trkpt>
      <trkpt lat="44.48111" lon="2.93592">
        <ele>436.9</ele>
        <time>2021-08-17T15:23:48Z</time>
      </trkpt>
      <trkpt lat="44.48109" lon="2.93578">
        <ele>436.8</ele>
        <time>2021-08-17T15:23:50Z</time>
      </trkpt>
      <trkpt lat="44.48107" lon="2.93563">
        <ele>437.4</ele>
        <time>2021-08-17T15:23:52Z</time>
      </trkpt>
      <trkpt lat="44.48104" lon="2.9355">
        <ele>437.4</ele>
        <time>2021-08-17T15:23:54Z</time>
      </trkpt>
      <trkpt lat="44.48101" lon="2.93535">
        <ele>437.5</ele>
        <time>2021-08-17T15:23:56Z</time>
      </trkpt>
      <trkpt lat="44.48098" lon="2.93521">
        <ele>437.8</ele>
        <time>2021-08-17T15:23:58Z</time>
      </trkpt>
      <trkpt lat="44.48094" lon="2.93507">
        <ele>437.6</ele>
        <time>2021-08-17T15:24:00Z</time>
      </trkpt>
      <trkpt lat="44.48089" lon="2.93493">
        <ele>437.2</ele>
        <time>2021-08-17T15:24:02Z</time>
      </trkpt>
      <trkpt lat="44.48083" lon="2.9348">
        <ele>436.3</ele>
        <time>2021-08-17T15:24:04Z</time>
      </trkpt>
      <trkpt lat="44.48077" lon="2.93467">
        <ele>437.1</ele>
        <time>2021-08-17T15:24:06Z</time>
      </trkpt>
      <trkpt lat="44.4807" lon="2.93455">
        <ele>437.6</ele>
        <time>2021-08-17T15:24:08Z</time>
      </trkpt>
      <trkpt lat="44.48064" lon="2.93442">
        <ele>437.9</ele>
        <time>2021-08-17T15:24:10Z</time>
      </trkpt>
      <trkpt lat="44.48058" lon="2.93429">
        <ele>437.5</ele>
        <time>2021-08-17T15:24:12Z</time>
      </trkpt>
      <trkpt lat="44.48051" lon="2.93417">
        <ele>436.8</ele>
        <time>2021-08-17T15:24:14Z</time>
      </trkpt>
      <trkpt lat="44.48043" lon="2.93406">
        <ele>435.4</ele>
        <time>2021-08-17T15:24:16Z</time>
      </trkpt>
      <trkpt lat="44.48036" lon="2.93394">
        <ele>433.9</ele>
        <time>2021-08-17T15:24:18Z</time>
      </trkpt>
      <trkpt lat="44.48029" lon="2.93382">
        <ele>432.6</ele>
        <time>2021-08-17T15:24:20Z</time>
      </trkpt>
      <trkpt lat="44.48022" lon="2.9337">
        <ele>431</ele>
        <time>2021-08-17T15:24:22Z</time>
      </trkpt>
      <trkpt lat="44.48014" lon="2.93359">
        <ele>429.3</ele>
        <time>2021-08-17T15:24:24Z</time>
      </trkpt>
      <trkpt lat="44.48007" lon="2.93348">
        <ele>427.5</ele>
        <time>2021-08-17T15:24:26Z</time>
      </trkpt>
      <trkpt lat="44.48" lon="2.93337">
        <ele>425.8</ele>
        <time>2021-08-17T15:24:28Z</time>
      </trkpt>
      <trkpt lat="44.47991" lon="2.93329">
        <ele>425.4</ele>
        <time>2021-08-17T15:24:30Z</time>
      </trkpt>
      <trkpt lat="44.47982" lon="2.93321">
        <ele>425.4</ele>
        <time>2021-08-17T15:24:32Z</time>
      </trkpt>
      <trkpt lat="44.47973" lon="2.93316">
        <ele>425.2</ele>
        <time>2021-08-17T15:24:34Z</time>
      </trkpt>
      <trkpt lat="44.47963" lon="2.9331">
        <ele>425.2</ele>
        <time>2021-08-17T15:24:36Z</time>
      </trkpt>
      <trkpt lat="44.47954" lon="2.93306">
        <ele>425.4</ele>
        <time>2021-08-17T15:24:38Z</time>
      </trkpt>
      <trkpt lat="44.47945" lon="2.933">
        <ele>425.8</ele>
        <time>2021-08-17T15:24:40Z</time>
      </trkpt>
      <trkpt lat="44.47936" lon="2.93295">
        <ele>426.4</ele>
        <time>2021-08-17T15:24:42Z</time>
      </trkpt>
      <trkpt lat="44.47927" lon="2.93291">
        <ele>427</ele>
        <time>2021-08-17T15:24:44Z</time>
      </trkpt>
      <trkpt lat="44.47918" lon="2.93286">
        <ele>427.9</ele>
        <time>2021-08-17T15:24:46Z</time>
      </trkpt>
      <trkpt lat="44.47909" lon="2.93282">
        <ele>429.1</ele>
        <time>2021-08-17T15:24:48Z</time>
      </trkpt>
      <trkpt lat="44.479" lon="2.93277">
        <ele>430.3</ele>
        <time>2021-08-17T15:24:50Z</time>
      </trkpt>
      <trkpt lat="44.47891" lon="2.93273">
        <ele>431.4</ele>
        <time>2021-08-17T15:24:52Z</time>
      </trkpt>
      <trkpt lat="44.47883" lon="2.93269">
        <ele>432.5</ele>
        <time>2021-08-17T15:24:54Z</time>
      </trkpt>
      <trkpt lat="44.47875" lon="2.93266">
        <ele>433.4</ele>
        <time>2021-08-17T15:24:56Z</time>
      </trkpt>
      <trkpt lat="44.47866" lon="2.93264">
        <ele>434</ele>
        <time>2021-08-17T15:24:58Z</time>
      </trkpt>
      <trkpt lat="44.47857" lon="2.93263">
        <ele>434.4</ele>
        <time>2021-08-17T15:25:00Z</time>
      </trkpt>
      <trkpt lat="44.47848" lon="2.93262">
        <ele>434.7</ele>
        <time>2021-08-17T15:25:02Z</time>
      </trkpt>
      <trkpt lat="44.47839" lon="2.9326">
        <ele>435.3</ele>
        <time>2021-08-17T15:25:04Z</time>
      </trkpt>
      <trkpt lat="44.4783" lon="2.93259">
        <ele>435.5</ele>
        <time>2021-08-17T15:25:06Z</time>
      </trkpt>
      <trkpt lat="44.47821" lon="2.93257">
        <ele>435.2</ele>
        <time>2021-08-17T15:25:08Z</time>
      </trkpt>
      <trkpt lat="44.47812" lon="2.93255">
        <ele>434.9</ele>
        <time>2021-08-17T15:25:10Z</time>
      </trkpt>
      <trkpt lat="44.47803" lon="2.93253">
        <ele>434.6</ele>
        <time>2021-08-17T15:25:12Z</time>
      </trkpt>
      <trkpt lat="44.47794" lon="2.93252">
        <ele>434.2</ele>
        <time>2021-08-17T15:25:14Z</time>
      </trkpt>
      <trkpt lat="44.47786" lon="2.93251">
        <ele>433.9</ele>
        <time>2021-08-17T15:25:16Z</time>
      </trkpt>
      <trkpt lat="44.47778" lon="2.93249">
        <ele>433.7</ele>
        <time>2021-08-17T15:25:18Z</time>
      </trkpt>
      <trkpt lat="44.47771" lon="2.93248">
        <ele>433.5</ele>
        <time>2021-08-17T15:25:20Z</time>
      </trkpt>
      <trkpt lat="44.47764" lon="2.93247">
        <ele>433.4</ele>
        <time>2021-08-17T15:25:22Z</time>
      </trkpt>
      <trkpt lat="44.47757" lon="2.93247">
        <ele>433.2</ele>
        <time>2021-08-17T15:25:24Z</time>
      </trkpt>
      <trkpt lat="44.47751" lon="2.93246">
        <ele>433.2</ele>
        <time>2021-08-17T15:25:26Z</time>
      </trkpt>
      <trkpt lat="44.47745" lon="2.93244">
        <ele>433.8</ele>
        <time>2021-08-17T15:25:28Z</time>
      </trkpt>
      <trkpt lat="44.47738" lon="2.93244">
        <ele>434.3</ele>
        <time>2021-08-17T15:25:30Z</time>
      </trkpt>
      <trkpt lat="44.47732" lon="2.93244">
        <ele>434.4</ele>
        <time>2021-08-17T15:25:32Z</time>
      </trkpt>
      <trkpt lat="44.47727" lon="2.93244">
        <ele>434.5</ele>
        <time>2021-08-17T15:25:34Z</time>
      </trkpt>
      <trkpt lat="44.47722" lon="2.93244">
        <ele>434.4</ele>
        <time>2021-08-17T15:25:36Z</time>
      </trkpt>
      <trkpt lat="44.47716" lon="2.93244">
        <ele>434.6</ele>
        <time>2021-08-17T15:25:38Z</time>
      </trkpt>
      <trkpt lat="44.47711" lon="2.93243">
        <ele>434.9</ele>
        <time>2021-08-17T15:25:40Z</time>
      </trkpt>
      <trkpt lat="44.47706" lon="2.93243">
        <ele>435.1</ele>
        <time>2021-08-17T15:25:42Z</time>
      </trkpt>
      <trkpt lat="44.47701" lon="2.93242">
        <ele>435.4</ele>
        <time>2021-08-17T15:25:44Z</time>
      </trkpt>
      <trkpt lat="44.47696" lon="2.93243">
        <ele>435.4</ele>
        <time>2021-08-17T15:25:46Z</time>
      </trkpt>
      <trkpt lat="44.47691" lon="2.93243">
        <ele>435.3</ele>
        <time>2021-08-17T15:25:48Z</time>
      </trkpt>
      <trkpt lat="44.47687" lon="2.93243">
        <ele>435.2</ele>
        <time>2021-08-17T15:25:50Z</time>
      </trkpt>
      <trkpt lat="44.47682" lon="2.93243">
        <ele>435.3</ele>
        <time>2021-08-17T15:25:52Z</time>
      </trkpt>
      <trkpt lat="44.47678" lon="2.93244">
        <ele>435.2</ele>
        <time>2021-08-17T15:25:54Z</time>
      </trkpt>
      <trkpt lat="44.47672" lon="2.93243">
        <ele>435.3</ele>
        <time>2021-08-17T15:25:56Z</time>
      </trkpt>
      <trkpt lat="44.47668" lon="2.93244">
        <ele>435.2</ele>
        <time>2021-08-17T15:25:58Z</time>
      </trkpt>
      <trkpt lat="44.47663" lon="2.93244">
        <ele>435.4</ele>
        <time>2021-08-17T15:26:00Z</time>
      </trkpt>
      <trkpt lat="44.47658" lon="2.93244">
        <ele>435.3</ele>
        <time>2021-08-17T15:26:02Z</time>
      </trkpt>
      <trkpt lat="44.47653" lon="2.93243">
        <ele>435.5</ele>
        <time>2021-08-17T15:26:04Z</time>
      </trkpt>
      <trkpt lat="44.47647" lon="2.93243">
        <ele>435.6</ele>
        <time>2021-08-17T15:26:06Z</time>
      </trkpt>
      <trkpt lat="44.47643" lon="2.93242">
        <ele>435.8</ele>
        <time>2021-08-17T15:26:08Z</time>
      </trkpt>
      <trkpt lat="44.47638" lon="2.93242">
        <ele>436</ele>
        <time>2021-08-17T15:26:10Z</time>
      </trkpt>
      <trkpt lat="44.47633" lon="2.93241">
        <ele>436</ele>
        <time>2021-08-17T15:26:12Z</time>
      </trkpt>
      <trkpt lat="44.47628" lon="2.93242">
        <ele>435.7</ele>
        <time>2021-08-17T15:26:14Z</time>
      </trkpt>
      <trkpt lat="44.47623" lon="2.93243">
        <ele>435.3</ele>
        <time>2021-08-17T15:26:16Z</time>
      </trkpt>
      <trkpt lat="44.47617" lon="2.93245">
        <ele>434.7</ele>
        <time>2021-08-17T15:26:18Z</time>
      </trkpt>
      <trkpt lat="44.47612" lon="2.93246">
        <ele>434.4</ele>
        <time>2021-08-17T15:26:20Z</time>
      </trkpt>
      <trkpt lat="44.47608" lon="2.93246">
        <ele>434.2</ele>
        <time>2021-08-17T15:26:22Z</time>
      </trkpt>
      <trkpt lat="44.47602" lon="2.93248">
        <ele>433.8</ele>
        <time>2021-08-17T15:26:24Z</time>
      </trkpt>
      <trkpt lat="44.47598" lon="2.9325">
        <ele>433.1</ele>
        <time>2021-08-17T15:26:26Z</time>
      </trkpt>
      <trkpt lat="44.47593" lon="2.93252">
        <ele>432.7</ele>
        <time>2021-08-17T15:26:28Z</time>
      </trkpt>
      <trkpt lat="44.47589" lon="2.93253">
        <ele>432.5</ele>
        <time>2021-08-17T15:26:30Z</time>
      </trkpt>
      <trkpt lat="44.47584" lon="2.93254">
        <ele>432.2</ele>
        <time>2021-08-17T15:26:32Z</time>
      </trkpt>
      <trkpt lat="44.47579" lon="2.93255">
        <ele>432.1</ele>
        <time>2021-08-17T15:26:34Z</time>
      </trkpt>
      <trkpt lat="44.47575" lon="2.93257">
        <ele>432</ele>
        <time>2021-08-17T15:26:36Z</time>
      </trkpt>
      <trkpt lat="44.47569" lon="2.93258">
        <ele>432</ele>
        <time>2021-08-17T15:26:38Z</time>
      </trkpt>
      <trkpt lat="44.47565" lon="2.93259">
        <ele>431.9</ele>
        <time>2021-08-17T15:26:40Z</time>
      </trkpt>
      <trkpt lat="44.4756" lon="2.9326">
        <ele>431.9</ele>
        <time>2021-08-17T15:26:42Z</time>
      </trkpt>
      <trkpt lat="44.47556" lon="2.93262">
        <ele>431.6</ele>
        <time>2021-08-17T15:26:44Z</time>
      </trkpt>
      <trkpt lat="44.47551" lon="2.93263">
        <ele>431.6</ele>
        <time>2021-08-17T15:26:46Z</time>
      </trkpt>
      <trkpt lat="44.47547" lon="2.93264">
        <ele>431.5</ele>
        <time>2021-08-17T15:26:48Z</time>
      </trkpt>
      <trkpt lat="44.47543" lon="2.93265">
        <ele>431.5</ele>
        <time>2021-08-17T15:26:50Z</time>
      </trkpt>
      <trkpt lat="44.47538" lon="2.93265">
        <ele>431.5</ele>
        <time>2021-08-17T15:26:52Z</time>
      </trkpt>
      <trkpt lat="44.47533" lon="2.93266">
        <ele>431.5</ele>
        <time>2021-08-17T15:26:54Z</time>
      </trkpt>
      <trkpt lat="44.47529" lon="2.93266">
        <ele>431.6</ele>
        <time>2021-08-17T15:26:56Z</time>
      </trkpt>
      <trkpt lat="44.47524" lon="2.93266">
        <ele>431.9</ele>
        <time>2021-08-17T15:26:58Z</time>
      </trkpt>
      <trkpt lat="44.4752" lon="2.93265">
        <ele>432.1</ele>
        <time>2021-08-17T15:27:00Z</time>
      </trkpt>
      <trkpt lat="44.47515" lon="2.93265">
        <ele>432.4</ele>
        <time>2021-08-17T15:27:02Z</time>
      </trkpt>
      <trkpt lat="44.47511" lon="2.93264">
        <ele>432.8</ele>
        <time>2021-08-17T15:27:04Z</time>
      </trkpt>
      <trkpt lat="44.47506" lon="2.93263">
        <ele>433.1</ele>
        <time>2021-08-17T15:27:06Z</time>
      </trkpt>
      <trkpt lat="44.47501" lon="2.93262">
        <ele>433.7</ele>
        <time>2021-08-17T15:27:08Z</time>
      </trkpt>
      <trkpt lat="44.47497" lon="2.93261">
        <ele>433.7</ele>
        <time>2021-08-17T15:27:10Z</time>
      </trkpt>
      <trkpt lat="44.47492" lon="2.9326">
        <ele>433.7</ele>
        <time>2021-08-17T15:27:12Z</time>
      </trkpt>
      <trkpt lat="44.47487" lon="2.93258">
        <ele>433.7</ele>
        <time>2021-08-17T15:27:14Z</time>
      </trkpt>
      <trkpt lat="44.47483" lon="2.93256">
        <ele>433.9</ele>
        <time>2021-08-17T15:27:16Z</time>
      </trkpt>
      <trkpt lat="44.47478" lon="2.93253">
        <ele>434.1</ele>
        <time>2021-08-17T15:27:18Z</time>
      </trkpt>
      <trkpt lat="44.47474" lon="2.9325">
        <ele>434.4</ele>
        <time>2021-08-17T15:27:20Z</time>
      </trkpt>
      <trkpt lat="44.4747" lon="2.93248">
        <ele>434.5</ele>
        <time>2021-08-17T15:27:22Z</time>
      </trkpt>
      <trkpt lat="44.47465" lon="2.93245">
        <ele>434.6</ele>
        <time>2021-08-17T15:27:24Z</time>
      </trkpt>
      <trkpt lat="44.47462" lon="2.93241">
        <ele>434.9</ele>
        <time>2021-08-17T15:27:26Z</time>
      </trkpt>
      <trkpt lat="44.47458" lon="2.93238">
        <ele>435</ele>
        <time>2021-08-17T15:27:28Z</time>
      </trkpt>
      <trkpt lat="44.47454" lon="2.93235">
        <ele>435.1</ele>
        <time>2021-08-17T15:27:30Z</time>
      </trkpt>
      <trkpt lat="44.4745" lon="2.93231">
        <ele>435.3</ele>
        <time>2021-08-17T15:27:32Z</time>
      </trkpt>
      <trkpt lat="44.47447" lon="2.93228">
        <ele>435.5</ele>
        <time>2021-08-17T15:27:34Z</time>
      </trkpt>
      <trkpt lat="44.47443" lon="2.93224">
        <ele>435.7</ele>
        <time>2021-08-17T15:27:36Z</time>
      </trkpt>
      <trkpt lat="44.4744" lon="2.9322">
        <ele>436</ele>
        <time>2021-08-17T15:27:38Z</time>
      </trkpt>
      <trkpt lat="44.47437" lon="2.93215">
        <ele>436.4</ele>
        <time>2021-08-17T15:27:40Z</time>
      </trkpt>
      <trkpt lat="44.47435" lon="2.9321">
        <ele>436.9</ele>
        <time>2021-08-17T15:27:42Z</time>
      </trkpt>
      <trkpt lat="44.47432" lon="2.93205">
        <ele>437.3</ele>
        <time>2021-08-17T15:27:44Z</time>
      </trkpt>
      <trkpt lat="44.4743" lon="2.932">
        <ele>437.7</ele>
        <time>2021-08-17T15:27:46Z</time>
      </trkpt>
      <trkpt lat="44.47428" lon="2.93195">
        <ele>438.3</ele>
        <time>2021-08-17T15:27:48Z</time>
      </trkpt>
      <trkpt lat="44.47426" lon="2.9319">
        <ele>438.9</ele>
        <time>2021-08-17T15:27:50Z</time>
      </trkpt>
      <trkpt lat="44.47424" lon="2.93184">
        <ele>439.5</ele>
        <time>2021-08-17T15:27:52Z</time>
      </trkpt>
      <trkpt lat="44.47423" lon="2.93179">
        <ele>440.1</ele>
        <time>2021-08-17T15:27:54Z</time>
      </trkpt>
      <trkpt lat="44.47422" lon="2.93174">
        <ele>440.7</ele>
        <time>2021-08-17T15:27:56Z</time>
      </trkpt>
      <trkpt lat="44.47421" lon="2.93168">
        <ele>441.4</ele>
        <time>2021-08-17T15:27:58Z</time>
      </trkpt>
      <trkpt lat="44.4742" lon="2.93163">
        <ele>441.5</ele>
        <time>2021-08-17T15:28:00Z</time>
      </trkpt>
      <trkpt lat="44.4742" lon="2.93157">
        <ele>441.5</ele>
        <time>2021-08-17T15:28:02Z</time>
      </trkpt>
      <trkpt lat="44.4742" lon="2.93151">
        <ele>441.5</ele>
        <time>2021-08-17T15:28:04Z</time>
      </trkpt>
      <trkpt lat="44.47421" lon="2.93146">
        <ele>441.7</ele>
        <time>2021-08-17T15:28:06Z</time>
      </trkpt>
      <trkpt lat="44.47421" lon="2.93141">
        <ele>441.7</ele>
        <time>2021-08-17T15:28:08Z</time>
      </trkpt>
      <trkpt lat="44.47422" lon="2.93135">
        <ele>441.9</ele>
        <time>2021-08-17T15:28:10Z</time>
      </trkpt>
      <trkpt lat="44.47423" lon="2.9313">
        <ele>442.1</ele>
        <time>2021-08-17T15:28:12Z</time>
      </trkpt>
      <trkpt lat="44.47424" lon="2.93125">
        <ele>442.3</ele>
        <time>2021-08-17T15:28:14Z</time>
      </trkpt>
      <trkpt lat="44.47426" lon="2.9312">
        <ele>442.5</ele>
        <time>2021-08-17T15:28:16Z</time>
      </trkpt>
      <trkpt lat="44.47427" lon="2.93115">
        <ele>442.8</ele>
        <time>2021-08-17T15:28:18Z</time>
      </trkpt>
      <trkpt lat="44.47429" lon="2.93108">
        <ele>443.2</ele>
        <time>2021-08-17T15:28:20Z</time>
      </trkpt>
      <trkpt lat="44.47429" lon="2.93104">
        <ele>443.2</ele>
        <time>2021-08-17T15:28:22Z</time>
      </trkpt>
      <trkpt lat="44.47428" lon="2.93099">
        <ele>442.9</ele>
        <time>2021-08-17T15:28:24Z</time>
      </trkpt>
      <trkpt lat="44.47428" lon="2.93095">
        <ele>442.9</ele>
        <time>2021-08-17T15:28:26Z</time>
      </trkpt>
      <trkpt lat="44.47429" lon="2.93092">
        <ele>443.1</ele>
        <time>2021-08-17T15:28:28Z</time>
      </trkpt>
      <trkpt lat="44.47429" lon="2.93093">
        <ele>443.1</ele>
        <time>2021-08-17T15:28:30Z</time>
      </trkpt>
      <trkpt lat="44.47429" lon="2.93093">
        <ele>443.1</ele>
        <time>2021-08-17T15:28:32Z</time>
      </trkpt>
      <trkpt lat="44.47429" lon="2.93093">
        <ele>443.1</ele>
        <time>2021-08-17T15:28:34Z</time>
      </trkpt>
      <trkpt lat="44.47428" lon="2.93092">
        <ele>443.1</ele>
        <time>2021-08-17T15:28:36Z</time>
      </trkpt>
      <trkpt lat="44.47442" lon="2.93083">
        <ele>445.6</ele>
        <time>2021-08-17T15:33:04Z</time>
      </trkpt>
      <trkpt lat="44.47446" lon="2.93078">
        <ele>446.1</ele>
        <time>2021-08-17T15:33:06Z</time>
      </trkpt>
      <trkpt lat="44.47449" lon="2.93074">
        <ele>446.5</ele>
        <time>2021-08-17T15:33:08Z</time>
      </trkpt>
      <trkpt lat="44.47452" lon="2.93069">
        <ele>447</ele>
        <time>2021-08-17T15:33:10Z</time>
      </trkpt>
      <trkpt lat="44.47456" lon="2.93065">
        <ele>447.5</ele>
        <time>2021-08-17T15:33:12Z</time>
      </trkpt>
      <trkpt lat="44.47459" lon="2.93061">
        <ele>448</ele>
        <time>2021-08-17T15:33:14Z</time>
      </trkpt>
      <trkpt lat="44.47463" lon="2.93057">
        <ele>448.5</ele>
        <time>2021-08-17T15:33:16Z</time>
      </trkpt>
      <trkpt lat="44.47466" lon="2.93052">
        <ele>448.9</ele>
        <time>2021-08-17T15:33:18Z</time>
      </trkpt>
      <trkpt lat="44.47469" lon="2.93048">
        <ele>449.4</ele>
        <time>2021-08-17T15:33:20Z</time>
      </trkpt>
      <trkpt lat="44.47473" lon="2.93044">
        <ele>449.8</ele>
        <time>2021-08-17T15:33:22Z</time>
      </trkpt>
      <trkpt lat="44.47476" lon="2.9304">
        <ele>450.3</ele>
        <time>2021-08-17T15:33:24Z</time>
      </trkpt>
      <trkpt lat="44.47479" lon="2.93035">
        <ele>450.6</ele>
        <time>2021-08-17T15:33:26Z</time>
      </trkpt>
      <trkpt lat="44.47483" lon="2.93032">
        <ele>451.1</ele>
        <time>2021-08-17T15:33:28Z</time>
      </trkpt>
      <trkpt lat="44.47486" lon="2.93028">
        <ele>451.5</ele>
        <time>2021-08-17T15:33:30Z</time>
      </trkpt>
      <trkpt lat="44.47489" lon="2.93023">
        <ele>452</ele>
        <time>2021-08-17T15:33:32Z</time>
      </trkpt>
      <trkpt lat="44.47492" lon="2.93019">
        <ele>452.3</ele>
        <time>2021-08-17T15:33:34Z</time>
      </trkpt>
      <trkpt lat="44.47496" lon="2.93015">
        <ele>452.8</ele>
        <time>2021-08-17T15:33:36Z</time>
      </trkpt>
      <trkpt lat="44.47499" lon="2.93011">
        <ele>453.3</ele>
        <time>2021-08-17T15:33:38Z</time>
      </trkpt>
      <trkpt lat="44.47502" lon="2.93007">
        <ele>453.7</ele>
        <time>2021-08-17T15:33:40Z</time>
      </trkpt>
      <trkpt lat="44.47506" lon="2.93003">
        <ele>454.1</ele>
        <time>2021-08-17T15:33:42Z</time>
      </trkpt>
      <trkpt lat="44.47509" lon="2.92999">
        <ele>454.5</ele>
        <time>2021-08-17T15:33:44Z</time>
      </trkpt>
      <trkpt lat="44.47512" lon="2.92995">
        <ele>454.8</ele>
        <time>2021-08-17T15:33:46Z</time>
      </trkpt>
      <trkpt lat="44.47516" lon="2.9299">
        <ele>455.1</ele>
        <time>2021-08-17T15:33:48Z</time>
      </trkpt>
      <trkpt lat="44.47519" lon="2.92986">
        <ele>455.5</ele>
        <time>2021-08-17T15:33:50Z</time>
      </trkpt>
      <trkpt lat="44.47523" lon="2.92982">
        <ele>455.9</ele>
        <time>2021-08-17T15:33:52Z</time>
      </trkpt>
      <trkpt lat="44.47526" lon="2.92978">
        <ele>456.2</ele>
        <time>2021-08-17T15:33:54Z</time>
      </trkpt>
      <trkpt lat="44.47529" lon="2.92974">
        <ele>456.5</ele>
        <time>2021-08-17T15:33:56Z</time>
      </trkpt>
      <trkpt lat="44.47533" lon="2.9297">
        <ele>456.8</ele>
        <time>2021-08-17T15:33:58Z</time>
      </trkpt>
      <trkpt lat="44.47536" lon="2.92966">
        <ele>457</ele>
        <time>2021-08-17T15:34:00Z</time>
      </trkpt>
      <trkpt lat="44.47539" lon="2.92961">
        <ele>457.3</ele>
        <time>2021-08-17T15:34:02Z</time>
      </trkpt>
      <trkpt lat="44.47543" lon="2.92957">
        <ele>457.6</ele>
        <time>2021-08-17T15:34:04Z</time>
      </trkpt>
      <trkpt lat="44.47546" lon="2.92952">
        <ele>457.9</ele>
        <time>2021-08-17T15:34:06Z</time>
      </trkpt>
      <trkpt lat="44.4755" lon="2.92948">
        <ele>458.1</ele>
        <time>2021-08-17T15:34:08Z</time>
      </trkpt>
      <trkpt lat="44.47553" lon="2.92944">
        <ele>458.4</ele>
        <time>2021-08-17T15:34:10Z</time>
      </trkpt>
      <trkpt lat="44.47557" lon="2.92939">
        <ele>458.6</ele>
        <time>2021-08-17T15:34:12Z</time>
      </trkpt>
      <trkpt lat="44.4756" lon="2.92935">
        <ele>458.8</ele>
        <time>2021-08-17T15:34:14Z</time>
      </trkpt>
      <trkpt lat="44.47564" lon="2.9293">
        <ele>459.1</ele>
        <time>2021-08-17T15:34:16Z</time>
      </trkpt>
      <trkpt lat="44.47567" lon="2.92926">
        <ele>459.3</ele>
        <time>2021-08-17T15:34:18Z</time>
      </trkpt>
      <trkpt lat="44.47571" lon="2.92922">
        <ele>459.6</ele>
        <time>2021-08-17T15:34:20Z</time>
      </trkpt>
      <trkpt lat="44.47575" lon="2.92918">
        <ele>459.8</ele>
        <time>2021-08-17T15:34:22Z</time>
      </trkpt>
      <trkpt lat="44.47578" lon="2.92914">
        <ele>460</ele>
        <time>2021-08-17T15:34:24Z</time>
      </trkpt>
      <trkpt lat="44.47582" lon="2.9291">
        <ele>460.2</ele>
        <time>2021-08-17T15:34:26Z</time>
      </trkpt>
      <trkpt lat="44.47586" lon="2.92906">
        <ele>460.3</ele>
        <time>2021-08-17T15:34:28Z</time>
      </trkpt>
      <trkpt lat="44.47589" lon="2.92901">
        <ele>460.5</ele>
        <time>2021-08-17T15:34:30Z</time>
      </trkpt>
      <trkpt lat="44.47593" lon="2.92898">
        <ele>460.7</ele>
        <time>2021-08-17T15:34:32Z</time>
      </trkpt>
      <trkpt lat="44.47597" lon="2.92894">
        <ele>460.9</ele>
        <time>2021-08-17T15:34:34Z</time>
      </trkpt>
      <trkpt lat="44.47601" lon="2.9289">
        <ele>461.3</ele>
        <time>2021-08-17T15:34:36Z</time>
      </trkpt>
      <trkpt lat="44.47605" lon="2.92886">
        <ele>461.5</ele>
        <time>2021-08-17T15:34:38Z</time>
      </trkpt>
      <trkpt lat="44.47609" lon="2.92882">
        <ele>461.8</ele>
        <time>2021-08-17T15:34:40Z</time>
      </trkpt>
      <trkpt lat="44.47613" lon="2.92878">
        <ele>462</ele>
        <time>2021-08-17T15:34:42Z</time>
      </trkpt>
      <trkpt lat="44.47618" lon="2.92875">
        <ele>462.3</ele>
        <time>2021-08-17T15:34:44Z</time>
      </trkpt>
      <trkpt lat="44.47622" lon="2.9287">
        <ele>462.5</ele>
        <time>2021-08-17T15:34:46Z</time>
      </trkpt>
      <trkpt lat="44.47627" lon="2.92867">
        <ele>462.8</ele>
        <time>2021-08-17T15:34:48Z</time>
      </trkpt>
      <trkpt lat="44.4763" lon="2.92863">
        <ele>463.1</ele>
        <time>2021-08-17T15:34:50Z</time>
      </trkpt>
      <trkpt lat="44.47635" lon="2.9286">
        <ele>463.4</ele>
        <time>2021-08-17T15:34:52Z</time>
      </trkpt>
      <trkpt lat="44.4764" lon="2.92857">
        <ele>463.7</ele>
        <time>2021-08-17T15:34:54Z</time>
      </trkpt>
      <trkpt lat="44.47644" lon="2.92852">
        <ele>463.8</ele>
        <time>2021-08-17T15:34:56Z</time>
      </trkpt>
      <trkpt lat="44.47648" lon="2.92848">
        <ele>464.1</ele>
        <time>2021-08-17T15:34:58Z</time>
      </trkpt>
      <trkpt lat="44.47653" lon="2.92846">
        <ele>464.4</ele>
        <time>2021-08-17T15:35:00Z</time>
      </trkpt>
      <trkpt lat="44.47658" lon="2.92841">
        <ele>464.6</ele>
        <time>2021-08-17T15:35:02Z</time>
      </trkpt>
      <trkpt lat="44.47662" lon="2.92838">
        <ele>464.9</ele>
        <time>2021-08-17T15:35:04Z</time>
      </trkpt>
      <trkpt lat="44.47667" lon="2.92835">
        <ele>465.3</ele>
        <time>2021-08-17T15:35:06Z</time>
      </trkpt>
      <trkpt lat="44.47673" lon="2.92833">
        <ele>465.3</ele>
        <time>2021-08-17T15:35:08Z</time>
      </trkpt>
      <trkpt lat="44.47678" lon="2.92831">
        <ele>465.1</ele>
        <time>2021-08-17T15:35:10Z</time>
      </trkpt>
      <trkpt lat="44.47683" lon="2.9283">
        <ele>465.1</ele>
        <time>2021-08-17T15:35:12Z</time>
      </trkpt>
      <trkpt lat="44.47687" lon="2.92829">
        <ele>465.2</ele>
        <time>2021-08-17T15:35:14Z</time>
      </trkpt>
      <trkpt lat="44.47692" lon="2.92829">
        <ele>465.5</ele>
        <time>2021-08-17T15:35:16Z</time>
      </trkpt>
      <trkpt lat="44.47698" lon="2.92829">
        <ele>465.8</ele>
        <time>2021-08-17T15:35:18Z</time>
      </trkpt>
      <trkpt lat="44.47703" lon="2.9283">
        <ele>466.4</ele>
        <time>2021-08-17T15:35:20Z</time>
      </trkpt>
      <trkpt lat="44.47707" lon="2.92831">
        <ele>466.9</ele>
        <time>2021-08-17T15:35:22Z</time>
      </trkpt>
      <trkpt lat="44.47712" lon="2.92832">
        <ele>467.4</ele>
        <time>2021-08-17T15:35:24Z</time>
      </trkpt>
      <trkpt lat="44.47716" lon="2.92833">
        <ele>467.9</ele>
        <time>2021-08-17T15:35:26Z</time>
      </trkpt>
      <trkpt lat="44.47721" lon="2.92833">
        <ele>468.3</ele>
        <time>2021-08-17T15:35:28Z</time>
      </trkpt>
      <trkpt lat="44.47725" lon="2.92835">
        <ele>468.9</ele>
        <time>2021-08-17T15:35:30Z</time>
      </trkpt>
      <trkpt lat="44.4773" lon="2.92836">
        <ele>469.3</ele>
        <time>2021-08-17T15:35:32Z</time>
      </trkpt>
      <trkpt lat="44.47735" lon="2.92837">
        <ele>469.8</ele>
        <time>2021-08-17T15:35:34Z</time>
      </trkpt>
      <trkpt lat="44.4774" lon="2.92837">
        <ele>470</ele>
        <time>2021-08-17T15:35:36Z</time>
      </trkpt>
      <trkpt lat="44.47744" lon="2.92836">
        <ele>470.3</ele>
        <time>2021-08-17T15:35:38Z</time>
      </trkpt>
      <trkpt lat="44.47749" lon="2.92835">
        <ele>470.4</ele>
        <time>2021-08-17T15:35:40Z</time>
      </trkpt>
      <trkpt lat="44.47753" lon="2.92835">
        <ele>470.2</ele>
        <time>2021-08-17T15:35:42Z</time>
      </trkpt>
      <trkpt lat="44.47757" lon="2.92835">
        <ele>470.1</ele>
        <time>2021-08-17T15:35:44Z</time>
      </trkpt>
      <trkpt lat="44.47761" lon="2.92834">
        <ele>469.8</ele>
        <time>2021-08-17T15:35:46Z</time>
      </trkpt>
      <trkpt lat="44.47766" lon="2.92834">
        <ele>469.5</ele>
        <time>2021-08-17T15:35:48Z</time>
      </trkpt>
      <trkpt lat="44.4777" lon="2.92833">
        <ele>469.1</ele>
        <time>2021-08-17T15:35:50Z</time>
      </trkpt>
      <trkpt lat="44.47775" lon="2.92832">
        <ele>468.7</ele>
        <time>2021-08-17T15:35:52Z</time>
      </trkpt>
      <trkpt lat="44.4778" lon="2.92832">
        <ele>468.6</ele>
        <time>2021-08-17T15:35:54Z</time>
      </trkpt>
      <trkpt lat="44.47784" lon="2.92831">
        <ele>468.3</ele>
        <time>2021-08-17T15:35:56Z</time>
      </trkpt>
      <trkpt lat="44.47789" lon="2.92832">
        <ele>468.3</ele>
        <time>2021-08-17T15:35:58Z</time>
      </trkpt>
      <trkpt lat="44.47794" lon="2.92833">
        <ele>468.5</ele>
        <time>2021-08-17T15:36:00Z</time>
      </trkpt>
      <trkpt lat="44.47798" lon="2.92836">
        <ele>469</ele>
        <time>2021-08-17T15:36:02Z</time>
      </trkpt>
      <trkpt lat="44.47803" lon="2.92839">
        <ele>469.8</ele>
        <time>2021-08-17T15:36:04Z</time>
      </trkpt>
      <trkpt lat="44.47807" lon="2.92843">
        <ele>470.7</ele>
        <time>2021-08-17T15:36:06Z</time>
      </trkpt>
      <trkpt lat="44.47811" lon="2.92849">
        <ele>472.2</ele>
        <time>2021-08-17T15:36:08Z</time>
      </trkpt>
      <trkpt lat="44.47814" lon="2.92854">
        <ele>473.6</ele>
        <time>2021-08-17T15:36:10Z</time>
      </trkpt>
      <trkpt lat="44.47817" lon="2.9286">
        <ele>475.3</ele>
        <time>2021-08-17T15:36:12Z</time>
      </trkpt>
      <trkpt lat="44.47821" lon="2.92865">
        <ele>476.9</ele>
        <time>2021-08-17T15:36:14Z</time>
      </trkpt>
      <trkpt lat="44.47826" lon="2.92869">
        <ele>478.2</ele>
        <time>2021-08-17T15:36:16Z</time>
      </trkpt>
      <trkpt lat="44.4783" lon="2.92874">
        <ele>479.7</ele>
        <time>2021-08-17T15:36:18Z</time>
      </trkpt>
      <trkpt lat="44.47834" lon="2.92878">
        <ele>481.1</ele>
        <time>2021-08-17T15:36:20Z</time>
      </trkpt>
      <trkpt lat="44.47839" lon="2.92882">
        <ele>482.7</ele>
        <time>2021-08-17T15:36:22Z</time>
      </trkpt>
      <trkpt lat="44.47844" lon="2.92885">
        <ele>484</ele>
        <time>2021-08-17T15:36:24Z</time>
      </trkpt>
      <trkpt lat="44.47849" lon="2.92888">
        <ele>485.4</ele>
        <time>2021-08-17T15:36:26Z</time>
      </trkpt>
      <trkpt lat="44.47854" lon="2.92889">
        <ele>486.3</ele>
        <time>2021-08-17T15:36:28Z</time>
      </trkpt>
      <trkpt lat="44.4786" lon="2.92891">
        <ele>487.5</ele>
        <time>2021-08-17T15:36:30Z</time>
      </trkpt>
      <trkpt lat="44.47865" lon="2.92892">
        <ele>488.3</ele>
        <time>2021-08-17T15:36:32Z</time>
      </trkpt>
      <trkpt lat="44.47869" lon="2.92892">
        <ele>488.8</ele>
        <time>2021-08-17T15:36:34Z</time>
      </trkpt>
      <trkpt lat="44.47876" lon="2.9289">
        <ele>488.8</ele>
        <time>2021-08-17T15:36:36Z</time>
      </trkpt>
      <trkpt lat="44.47881" lon="2.9289">
        <ele>489.2</ele>
        <time>2021-08-17T15:36:38Z</time>
      </trkpt>
      <trkpt lat="44.47888" lon="2.92887">
        <ele>488.7</ele>
        <time>2021-08-17T15:36:40Z</time>
      </trkpt>
      <trkpt lat="44.47894" lon="2.92885">
        <ele>488.5</ele>
        <time>2021-08-17T15:36:42Z</time>
      </trkpt>
      <trkpt lat="44.479" lon="2.92882">
        <ele>487.8</ele>
        <time>2021-08-17T15:36:44Z</time>
      </trkpt>
      <trkpt lat="44.47907" lon="2.92879">
        <ele>487</ele>
        <time>2021-08-17T15:36:46Z</time>
      </trkpt>
      <trkpt lat="44.47914" lon="2.92875">
        <ele>486.1</ele>
        <time>2021-08-17T15:36:48Z</time>
      </trkpt>
      <trkpt lat="44.47922" lon="2.92873">
        <ele>485.1</ele>
        <time>2021-08-17T15:36:50Z</time>
      </trkpt>
      <trkpt lat="44.4793" lon="2.92871">
        <ele>483.9</ele>
        <time>2021-08-17T15:36:52Z</time>
      </trkpt>
      <trkpt lat="44.47937" lon="2.92871">
        <ele>483.3</ele>
        <time>2021-08-17T15:36:54Z</time>
      </trkpt>
      <trkpt lat="44.47945" lon="2.92871">
        <ele>483.2</ele>
        <time>2021-08-17T15:36:56Z</time>
      </trkpt>
      <trkpt lat="44.47952" lon="2.92872">
        <ele>483.3</ele>
        <time>2021-08-17T15:36:58Z</time>
      </trkpt>
      <trkpt lat="44.4796" lon="2.92873">
        <ele>483.5</ele>
        <time>2021-08-17T15:37:00Z</time>
      </trkpt>
      <trkpt lat="44.47968" lon="2.92875">
        <ele>483.7</ele>
        <time>2021-08-17T15:37:02Z</time>
      </trkpt>
      <trkpt lat="44.47975" lon="2.92878">
        <ele>484.7</ele>
        <time>2021-08-17T15:37:04Z</time>
      </trkpt>
      <trkpt lat="44.47982" lon="2.92881">
        <ele>485.5</ele>
        <time>2021-08-17T15:37:06Z</time>
      </trkpt>
      <trkpt lat="44.47989" lon="2.92884">
        <ele>486.5</ele>
        <time>2021-08-17T15:37:08Z</time>
      </trkpt>
      <trkpt lat="44.47996" lon="2.92887">
        <ele>487.6</ele>
        <time>2021-08-17T15:37:10Z</time>
      </trkpt>
      <trkpt lat="44.48003" lon="2.92891">
        <ele>488.1</ele>
        <time>2021-08-17T15:37:12Z</time>
      </trkpt>
      <trkpt lat="44.48009" lon="2.92894">
        <ele>488.4</ele>
        <time>2021-08-17T15:37:14Z</time>
      </trkpt>
      <trkpt lat="44.48016" lon="2.92897">
        <ele>488</ele>
        <time>2021-08-17T15:37:16Z</time>
      </trkpt>
      <trkpt lat="44.48022" lon="2.92899">
        <ele>487.9</ele>
        <time>2021-08-17T15:37:18Z</time>
      </trkpt>
      <trkpt lat="44.48028" lon="2.92902">
        <ele>487.6</ele>
        <time>2021-08-17T15:37:20Z</time>
      </trkpt>
      <trkpt lat="44.48034" lon="2.92904">
        <ele>487.1</ele>
        <time>2021-08-17T15:37:22Z</time>
      </trkpt>
      <trkpt lat="44.48041" lon="2.92905">
        <ele>486.3</ele>
        <time>2021-08-17T15:37:24Z</time>
      </trkpt>
      <trkpt lat="44.48048" lon="2.92907">
        <ele>485.7</ele>
        <time>2021-08-17T15:37:26Z</time>
      </trkpt>
      <trkpt lat="44.48055" lon="2.92908">
        <ele>484.7</ele>
        <time>2021-08-17T15:37:28Z</time>
      </trkpt>
      <trkpt lat="44.48062" lon="2.92909">
        <ele>483.8</ele>
        <time>2021-08-17T15:37:30Z</time>
      </trkpt>
      <trkpt lat="44.48069" lon="2.92911">
        <ele>482.9</ele>
        <time>2021-08-17T15:37:32Z</time>
      </trkpt>
      <trkpt lat="44.48076" lon="2.92912">
        <ele>481.8</ele>
        <time>2021-08-17T15:37:34Z</time>
      </trkpt>
      <trkpt lat="44.48083" lon="2.92913">
        <ele>480.8</ele>
        <time>2021-08-17T15:37:36Z</time>
      </trkpt>
      <trkpt lat="44.4809" lon="2.92914">
        <ele>481</ele>
        <time>2021-08-17T15:37:38Z</time>
      </trkpt>
      <trkpt lat="44.48098" lon="2.92915">
        <ele>481</ele>
        <time>2021-08-17T15:37:40Z</time>
      </trkpt>
      <trkpt lat="44.48106" lon="2.92917">
        <ele>481.2</ele>
        <time>2021-08-17T15:37:42Z</time>
      </trkpt>
      <trkpt lat="44.48113" lon="2.92919">
        <ele>480.9</ele>
        <time>2021-08-17T15:37:44Z</time>
      </trkpt>
      <trkpt lat="44.4812" lon="2.9292">
        <ele>480.4</ele>
        <time>2021-08-17T15:37:46Z</time>
      </trkpt>
      <trkpt lat="44.48128" lon="2.92921">
        <ele>480</ele>
        <time>2021-08-17T15:37:48Z</time>
      </trkpt>
      <trkpt lat="44.48135" lon="2.92923">
        <ele>479.5</ele>
        <time>2021-08-17T15:37:50Z</time>
      </trkpt>
      <trkpt lat="44.48142" lon="2.92924">
        <ele>478.9</ele>
        <time>2021-08-17T15:37:52Z</time>
      </trkpt>
      <trkpt lat="44.48149" lon="2.92925">
        <ele>478.4</ele>
        <time>2021-08-17T15:37:54Z</time>
      </trkpt>
      <trkpt lat="44.48157" lon="2.92925">
        <ele>477.9</ele>
        <time>2021-08-17T15:37:56Z</time>
      </trkpt>
      <trkpt lat="44.48163" lon="2.92927">
        <ele>477.1</ele>
        <time>2021-08-17T15:37:58Z</time>
      </trkpt>
      <trkpt lat="44.4817" lon="2.92928">
        <ele>476.6</ele>
        <time>2021-08-17T15:38:00Z</time>
      </trkpt>
      <trkpt lat="44.48177" lon="2.92929">
        <ele>476.3</ele>
        <time>2021-08-17T15:38:02Z</time>
      </trkpt>
      <trkpt lat="44.48184" lon="2.9293">
        <ele>475.9</ele>
        <time>2021-08-17T15:38:04Z</time>
      </trkpt>
      <trkpt lat="44.48191" lon="2.92931">
        <ele>475.5</ele>
        <time>2021-08-17T15:38:06Z</time>
      </trkpt>
      <trkpt lat="44.48198" lon="2.92932">
        <ele>475.1</ele>
        <time>2021-08-17T15:38:08Z</time>
      </trkpt>
      <trkpt lat="44.48205" lon="2.92933">
        <ele>474.8</ele>
        <time>2021-08-17T15:38:10Z</time>
      </trkpt>
      <trkpt lat="44.48212" lon="2.92934">
        <ele>474.6</ele>
        <time>2021-08-17T15:38:12Z</time>
      </trkpt>
      <trkpt lat="44.48219" lon="2.92934">
        <ele>474.3</ele>
        <time>2021-08-17T15:38:14Z</time>
      </trkpt>
      <trkpt lat="44.48228" lon="2.92937">
        <ele>473.8</ele>
        <time>2021-08-17T15:38:16Z</time>
      </trkpt>
      <trkpt lat="44.48235" lon="2.92938">
        <ele>473.4</ele>
        <time>2021-08-17T15:38:18Z</time>
      </trkpt>
      <trkpt lat="44.48243" lon="2.9294">
        <ele>473</ele>
        <time>2021-08-17T15:38:20Z</time>
      </trkpt>
      <trkpt lat="44.4825" lon="2.92942">
        <ele>472.7</ele>
        <time>2021-08-17T15:38:22Z</time>
      </trkpt>
      <trkpt lat="44.48258" lon="2.92945">
        <ele>471.7</ele>
        <time>2021-08-17T15:38:24Z</time>
      </trkpt>
      <trkpt lat="44.48265" lon="2.92948">
        <ele>470.9</ele>
        <time>2021-08-17T15:38:26Z</time>
      </trkpt>
      <trkpt lat="44.48272" lon="2.92952">
        <ele>470.2</ele>
        <time>2021-08-17T15:38:28Z</time>
      </trkpt>
      <trkpt lat="44.48279" lon="2.92956">
        <ele>469.7</ele>
        <time>2021-08-17T15:38:30Z</time>
      </trkpt>
      <trkpt lat="44.48286" lon="2.92961">
        <ele>469.4</ele>
        <time>2021-08-17T15:38:32Z</time>
      </trkpt>
      <trkpt lat="44.48293" lon="2.92967">
        <ele>469.3</ele>
        <time>2021-08-17T15:38:34Z</time>
      </trkpt>
      <trkpt lat="44.48299" lon="2.92973">
        <ele>469.5</ele>
        <time>2021-08-17T15:38:36Z</time>
      </trkpt>
      <trkpt lat="44.48305" lon="2.9298">
        <ele>469.9</ele>
        <time>2021-08-17T15:38:38Z</time>
      </trkpt>
      <trkpt lat="44.4831" lon="2.92988">
        <ele>470.7</ele>
        <time>2021-08-17T15:38:40Z</time>
      </trkpt>
      <trkpt lat="44.48316" lon="2.92995">
        <ele>471.7</ele>
        <time>2021-08-17T15:38:42Z</time>
      </trkpt>
      <trkpt lat="44.48322" lon="2.93003">
        <ele>472.5</ele>
        <time>2021-08-17T15:38:44Z</time>
      </trkpt>
      <trkpt lat="44.48327" lon="2.93009">
        <ele>472.5</ele>
        <time>2021-08-17T15:38:46Z</time>
      </trkpt>
      <trkpt lat="44.48332" lon="2.93017">
        <ele>472.6</ele>
        <time>2021-08-17T15:38:48Z</time>
      </trkpt>
      <trkpt lat="44.48338" lon="2.93025">
        <ele>472.2</ele>
        <time>2021-08-17T15:38:50Z</time>
      </trkpt>
      <trkpt lat="44.48343" lon="2.93031">
        <ele>471.8</ele>
        <time>2021-08-17T15:38:52Z</time>
      </trkpt>
      <trkpt lat="44.48348" lon="2.93038">
        <ele>471.7</ele>
        <time>2021-08-17T15:38:54Z</time>
      </trkpt>
      <trkpt lat="44.48354" lon="2.93043">
        <ele>471.9</ele>
        <time>2021-08-17T15:38:56Z</time>
      </trkpt>
      <trkpt lat="44.48359" lon="2.93049">
        <ele>472.2</ele>
        <time>2021-08-17T15:38:58Z</time>
      </trkpt>
      <trkpt lat="44.48364" lon="2.93054">
        <ele>472.6</ele>
        <time>2021-08-17T15:39:00Z</time>
      </trkpt>
      <trkpt lat="44.4837" lon="2.93059">
        <ele>473.4</ele>
        <time>2021-08-17T15:39:02Z</time>
      </trkpt>
      <trkpt lat="44.48376" lon="2.93064">
        <ele>474.3</ele>
        <time>2021-08-17T15:39:04Z</time>
      </trkpt>
      <trkpt lat="44.48382" lon="2.93068">
        <ele>475.3</ele>
        <time>2021-08-17T15:39:06Z</time>
      </trkpt>
      <trkpt lat="44.48387" lon="2.93073">
        <ele>476.5</ele>
        <time>2021-08-17T15:39:08Z</time>
      </trkpt>
      <trkpt lat="44.48393" lon="2.93077">
        <ele>477.9</ele>
        <time>2021-08-17T15:39:10Z</time>
      </trkpt>
      <trkpt lat="44.48398" lon="2.93081">
        <ele>479.3</ele>
        <time>2021-08-17T15:39:12Z</time>
      </trkpt>
      <trkpt lat="44.48403" lon="2.93086">
        <ele>480.7</ele>
        <time>2021-08-17T15:39:14Z</time>
      </trkpt>
      <trkpt lat="44.48408" lon="2.9309">
        <ele>482.1</ele>
        <time>2021-08-17T15:39:16Z</time>
      </trkpt>
      <trkpt lat="44.48414" lon="2.93094">
        <ele>483.6</ele>
        <time>2021-08-17T15:39:18Z</time>
      </trkpt>
      <trkpt lat="44.48419" lon="2.93097">
        <ele>484.4</ele>
        <time>2021-08-17T15:39:20Z</time>
      </trkpt>
      <trkpt lat="44.48425" lon="2.93101">
        <ele>484.8</ele>
        <time>2021-08-17T15:39:22Z</time>
      </trkpt>
      <trkpt lat="44.48431" lon="2.93104">
        <ele>485.2</ele>
        <time>2021-08-17T15:39:24Z</time>
      </trkpt>
      <trkpt lat="44.48437" lon="2.93108">
        <ele>485.8</ele>
        <time>2021-08-17T15:39:26Z</time>
      </trkpt>
      <trkpt lat="44.48443" lon="2.93111">
        <ele>486.4</ele>
        <time>2021-08-17T15:39:28Z</time>
      </trkpt>
      <trkpt lat="44.48448" lon="2.93115">
        <ele>487.2</ele>
        <time>2021-08-17T15:39:30Z</time>
      </trkpt>
      <trkpt lat="44.48454" lon="2.93118">
        <ele>488.1</ele>
        <time>2021-08-17T15:39:32Z</time>
      </trkpt>
      <trkpt lat="44.4846" lon="2.93121">
        <ele>489</ele>
        <time>2021-08-17T15:39:34Z</time>
      </trkpt>
      <trkpt lat="44.48466" lon="2.93124">
        <ele>490</ele>
        <time>2021-08-17T15:39:36Z</time>
      </trkpt>
      <trkpt lat="44.48471" lon="2.93128">
        <ele>491.1</ele>
        <time>2021-08-17T15:39:38Z</time>
      </trkpt>
      <trkpt lat="44.48476" lon="2.93131">
        <ele>492.3</ele>
        <time>2021-08-17T15:39:40Z</time>
      </trkpt>
      <trkpt lat="44.48481" lon="2.93133">
        <ele>493.4</ele>
        <time>2021-08-17T15:39:42Z</time>
      </trkpt>
      <trkpt lat="44.48486" lon="2.93137">
        <ele>494.7</ele>
        <time>2021-08-17T15:39:44Z</time>
      </trkpt>
      <trkpt lat="44.48491" lon="2.93139">
        <ele>496</ele>
        <time>2021-08-17T15:39:46Z</time>
      </trkpt>
      <trkpt lat="44.48496" lon="2.93142">
        <ele>497.4</ele>
        <time>2021-08-17T15:39:48Z</time>
      </trkpt>
      <trkpt lat="44.485" lon="2.93145">
        <ele>498.7</ele>
        <time>2021-08-17T15:39:50Z</time>
      </trkpt>
      <trkpt lat="44.48505" lon="2.93147">
        <ele>498.9</ele>
        <time>2021-08-17T15:39:52Z</time>
      </trkpt>
      <trkpt lat="44.48509" lon="2.93149">
        <ele>499.3</ele>
        <time>2021-08-17T15:39:54Z</time>
      </trkpt>
      <trkpt lat="44.48515" lon="2.93151">
        <ele>499.3</ele>
        <time>2021-08-17T15:39:56Z</time>
      </trkpt>
      <trkpt lat="44.4852" lon="2.93152">
        <ele>499.3</ele>
        <time>2021-08-17T15:39:58Z</time>
      </trkpt>
      <trkpt lat="44.48525" lon="2.93153">
        <ele>499.2</ele>
        <time>2021-08-17T15:40:00Z</time>
      </trkpt>
      <trkpt lat="44.48529" lon="2.93155">
        <ele>499.5</ele>
        <time>2021-08-17T15:40:02Z</time>
      </trkpt>
      <trkpt lat="44.48534" lon="2.93156">
        <ele>499.5</ele>
        <time>2021-08-17T15:40:04Z</time>
      </trkpt>
      <trkpt lat="44.4854" lon="2.93157">
        <ele>499.1</ele>
        <time>2021-08-17T15:40:06Z</time>
      </trkpt>
      <trkpt lat="44.48544" lon="2.93158">
        <ele>499.3</ele>
        <time>2021-08-17T15:40:08Z</time>
      </trkpt>
      <trkpt lat="44.48549" lon="2.93159">
        <ele>498.9</ele>
        <time>2021-08-17T15:40:10Z</time>
      </trkpt>
      <trkpt lat="44.48555" lon="2.93159">
        <ele>498.5</ele>
        <time>2021-08-17T15:40:12Z</time>
      </trkpt>
      <trkpt lat="44.4856" lon="2.93159">
        <ele>498.2</ele>
        <time>2021-08-17T15:40:14Z</time>
      </trkpt>
      <trkpt lat="44.48565" lon="2.93161">
        <ele>498.4</ele>
        <time>2021-08-17T15:40:16Z</time>
      </trkpt>
      <trkpt lat="44.4857" lon="2.93163">
        <ele>498.5</ele>
        <time>2021-08-17T15:40:18Z</time>
      </trkpt>
      <trkpt lat="44.48575" lon="2.93163">
        <ele>498.4</ele>
        <time>2021-08-17T15:40:20Z</time>
      </trkpt>
      <trkpt lat="44.4858" lon="2.93165">
        <ele>498.7</ele>
        <time>2021-08-17T15:40:22Z</time>
      </trkpt>
      <trkpt lat="44.48585" lon="2.93168">
        <ele>499.2</ele>
        <time>2021-08-17T15:40:24Z</time>
      </trkpt>
      <trkpt lat="44.48589" lon="2.93171">
        <ele>499.4</ele>
        <time>2021-08-17T15:40:26Z</time>
      </trkpt>
      <trkpt lat="44.48594" lon="2.93174">
        <ele>499.6</ele>
        <time>2021-08-17T15:40:28Z</time>
      </trkpt>
      <trkpt lat="44.48598" lon="2.93176">
        <ele>499.5</ele>
        <time>2021-08-17T15:40:30Z</time>
      </trkpt>
      <trkpt lat="44.48601" lon="2.9318">
        <ele>500.2</ele>
        <time>2021-08-17T15:40:32Z</time>
      </trkpt>
      <trkpt lat="44.48606" lon="2.93183">
        <ele>500.5</ele>
        <time>2021-08-17T15:40:34Z</time>
      </trkpt>
      <trkpt lat="44.48609" lon="2.93187">
        <ele>500.9</ele>
        <time>2021-08-17T15:40:36Z</time>
      </trkpt>
      <trkpt lat="44.48614" lon="2.9319">
        <ele>501.2</ele>
        <time>2021-08-17T15:40:38Z</time>
      </trkpt>
      <trkpt lat="44.48618" lon="2.93194">
        <ele>501.5</ele>
        <time>2021-08-17T15:40:40Z</time>
      </trkpt>
      <trkpt lat="44.48622" lon="2.93198">
        <ele>502</ele>
        <time>2021-08-17T15:40:42Z</time>
      </trkpt>
      <trkpt lat="44.48626" lon="2.93202">
        <ele>502.3</ele>
        <time>2021-08-17T15:40:44Z</time>
      </trkpt>
      <trkpt lat="44.4863" lon="2.93205">
        <ele>502.6</ele>
        <time>2021-08-17T15:40:46Z</time>
      </trkpt>
      <trkpt lat="44.48634" lon="2.93209">
        <ele>503</ele>
        <time>2021-08-17T15:40:48Z</time>
      </trkpt>
      <trkpt lat="44.48638" lon="2.93213">
        <ele>503.2</ele>
        <time>2021-08-17T15:40:50Z</time>
      </trkpt>
      <trkpt lat="44.48642" lon="2.93217">
        <ele>503.5</ele>
        <time>2021-08-17T15:40:52Z</time>
      </trkpt>
      <trkpt lat="44.48646" lon="2.9322">
        <ele>503.6</ele>
        <time>2021-08-17T15:40:54Z</time>
      </trkpt>
      <trkpt lat="44.4865" lon="2.93223">
        <ele>503.9</ele>
        <time>2021-08-17T15:40:56Z</time>
      </trkpt>
      <trkpt lat="44.48653" lon="2.93228">
        <ele>504.2</ele>
        <time>2021-08-17T15:40:58Z</time>
      </trkpt>
      <trkpt lat="44.48657" lon="2.93233">
        <ele>504.8</ele>
        <time>2021-08-17T15:41:00Z</time>
      </trkpt>
      <trkpt lat="44.48662" lon="2.93237">
        <ele>504.9</ele>
        <time>2021-08-17T15:41:02Z</time>
      </trkpt>
      <trkpt lat="44.48666" lon="2.9324">
        <ele>505</ele>
        <time>2021-08-17T15:41:04Z</time>
      </trkpt>
      <trkpt lat="44.4867" lon="2.93244">
        <ele>505.2</ele>
        <time>2021-08-17T15:41:06Z</time>
      </trkpt>
      <trkpt lat="44.48675" lon="2.93248">
        <ele>505.5</ele>
        <time>2021-08-17T15:41:08Z</time>
      </trkpt>
      <trkpt lat="44.48679" lon="2.93251">
        <ele>505.7</ele>
        <time>2021-08-17T15:41:10Z</time>
      </trkpt>
      <trkpt lat="44.48683" lon="2.93255">
        <ele>506</ele>
        <time>2021-08-17T15:41:12Z</time>
      </trkpt>
      <trkpt lat="44.48687" lon="2.93259">
        <ele>506.3</ele>
        <time>2021-08-17T15:41:14Z</time>
      </trkpt>
      <trkpt lat="44.48692" lon="2.93263">
        <ele>506.5</ele>
        <time>2021-08-17T15:41:16Z</time>
      </trkpt>
      <trkpt lat="44.48696" lon="2.93266">
        <ele>506.7</ele>
        <time>2021-08-17T15:41:18Z</time>
      </trkpt>
      <trkpt lat="44.48701" lon="2.93271">
        <ele>507</ele>
        <time>2021-08-17T15:41:20Z</time>
      </trkpt>
      <trkpt lat="44.48705" lon="2.93275">
        <ele>507.3</ele>
        <time>2021-08-17T15:41:22Z</time>
      </trkpt>
      <trkpt lat="44.4871" lon="2.93278">
        <ele>507.5</ele>
        <time>2021-08-17T15:41:24Z</time>
      </trkpt>
      <trkpt lat="44.48714" lon="2.93282">
        <ele>507.9</ele>
        <time>2021-08-17T15:41:26Z</time>
      </trkpt>
      <trkpt lat="44.48719" lon="2.93285">
        <ele>507.9</ele>
        <time>2021-08-17T15:41:28Z</time>
      </trkpt>
      <trkpt lat="44.48724" lon="2.93288">
        <ele>508.1</ele>
        <time>2021-08-17T15:41:30Z</time>
      </trkpt>
      <trkpt lat="44.48728" lon="2.93292">
        <ele>508.3</ele>
        <time>2021-08-17T15:41:32Z</time>
      </trkpt>
      <trkpt lat="44.48733" lon="2.93294">
        <ele>508.3</ele>
        <time>2021-08-17T15:41:34Z</time>
      </trkpt>
      <trkpt lat="44.48738" lon="2.93297">
        <ele>508.3</ele>
        <time>2021-08-17T15:41:36Z</time>
      </trkpt>
      <trkpt lat="44.48743" lon="2.933">
        <ele>508.2</ele>
        <time>2021-08-17T15:41:38Z</time>
      </trkpt>
      <trkpt lat="44.48747" lon="2.93302">
        <ele>508.1</ele>
        <time>2021-08-17T15:41:40Z</time>
      </trkpt>
      <trkpt lat="44.48752" lon="2.93302">
        <ele>507.8</ele>
        <time>2021-08-17T15:41:42Z</time>
      </trkpt>
      <trkpt lat="44.48756" lon="2.93303">
        <ele>507.9</ele>
        <time>2021-08-17T15:41:44Z</time>
      </trkpt>
      <trkpt lat="44.48761" lon="2.93304">
        <ele>507.9</ele>
        <time>2021-08-17T15:41:46Z</time>
      </trkpt>
      <trkpt lat="44.48767" lon="2.93305">
        <ele>507.8</ele>
        <time>2021-08-17T15:41:48Z</time>
      </trkpt>
      <trkpt lat="44.48772" lon="2.93306">
        <ele>507.8</ele>
        <time>2021-08-17T15:41:50Z</time>
      </trkpt>
      <trkpt lat="44.48777" lon="2.93307">
        <ele>507.7</ele>
        <time>2021-08-17T15:41:52Z</time>
      </trkpt>
      <trkpt lat="44.48782" lon="2.93307">
        <ele>507.6</ele>
        <time>2021-08-17T15:41:54Z</time>
      </trkpt>
      <trkpt lat="44.48788" lon="2.93308">
        <ele>507.5</ele>
        <time>2021-08-17T15:41:56Z</time>
      </trkpt>
      <trkpt lat="44.48793" lon="2.93309">
        <ele>507.6</ele>
        <time>2021-08-17T15:41:58Z</time>
      </trkpt>
      <trkpt lat="44.48798" lon="2.93309">
        <ele>507.5</ele>
        <time>2021-08-17T15:42:00Z</time>
      </trkpt>
      <trkpt lat="44.48803" lon="2.93311">
        <ele>507.6</ele>
        <time>2021-08-17T15:42:02Z</time>
      </trkpt>
      <trkpt lat="44.48808" lon="2.93312">
        <ele>507.7</ele>
        <time>2021-08-17T15:42:04Z</time>
      </trkpt>
      <trkpt lat="44.48813" lon="2.93313">
        <ele>507.8</ele>
        <time>2021-08-17T15:42:06Z</time>
      </trkpt>
      <trkpt lat="44.48818" lon="2.93314">
        <ele>507.8</ele>
        <time>2021-08-17T15:42:08Z</time>
      </trkpt>
      <trkpt lat="44.48823" lon="2.93314">
        <ele>507.7</ele>
        <time>2021-08-17T15:42:10Z</time>
      </trkpt>
      <trkpt lat="44.48828" lon="2.93316">
        <ele>507.9</ele>
        <time>2021-08-17T15:42:12Z</time>
      </trkpt>
      <trkpt lat="44.48833" lon="2.93317">
        <ele>507.9</ele>
        <time>2021-08-17T15:42:14Z</time>
      </trkpt>
      <trkpt lat="44.48838" lon="2.93316">
        <ele>508.2</ele>
        <time>2021-08-17T15:42:16Z</time>
      </trkpt>
      <trkpt lat="44.48843" lon="2.93319">
        <ele>509.6</ele>
        <time>2021-08-17T15:42:18Z</time>
      </trkpt>
      <trkpt lat="44.48849" lon="2.9332">
        <ele>510.3</ele>
        <time>2021-08-17T15:42:20Z</time>
      </trkpt>
      <trkpt lat="44.48854" lon="2.9332">
        <ele>511.1</ele>
        <time>2021-08-17T15:42:22Z</time>
      </trkpt>
      <trkpt lat="44.48858" lon="2.93321">
        <ele>511.9</ele>
        <time>2021-08-17T15:42:24Z</time>
      </trkpt>
      <trkpt lat="44.48863" lon="2.93322">
        <ele>512.5</ele>
        <time>2021-08-17T15:42:26Z</time>
      </trkpt>
      <trkpt lat="44.48868" lon="2.93322">
        <ele>513.3</ele>
        <time>2021-08-17T15:42:28Z</time>
      </trkpt>
      <trkpt lat="44.48873" lon="2.93322">
        <ele>513.9</ele>
        <time>2021-08-17T15:42:30Z</time>
      </trkpt>
      <trkpt lat="44.48877" lon="2.93322">
        <ele>514.4</ele>
        <time>2021-08-17T15:42:32Z</time>
      </trkpt>
      <trkpt lat="44.48882" lon="2.93322">
        <ele>514.8</ele>
        <time>2021-08-17T15:42:34Z</time>
      </trkpt>
      <trkpt lat="44.48886" lon="2.93321">
        <ele>515.1</ele>
        <time>2021-08-17T15:42:36Z</time>
      </trkpt>
      <trkpt lat="44.48891" lon="2.9332">
        <ele>515.3</ele>
        <time>2021-08-17T15:42:38Z</time>
      </trkpt>
      <trkpt lat="44.48895" lon="2.93319">
        <ele>515.6</ele>
        <time>2021-08-17T15:42:40Z</time>
      </trkpt>
      <trkpt lat="44.489" lon="2.93316">
        <ele>515.5</ele>
        <time>2021-08-17T15:42:42Z</time>
      </trkpt>
      <trkpt lat="44.48904" lon="2.93314">
        <ele>515.5</ele>
        <time>2021-08-17T15:42:44Z</time>
      </trkpt>
      <trkpt lat="44.48908" lon="2.93312">
        <ele>515.4</ele>
        <time>2021-08-17T15:42:46Z</time>
      </trkpt>
      <trkpt lat="44.48913" lon="2.9331">
        <ele>515.4</ele>
        <time>2021-08-17T15:42:48Z</time>
      </trkpt>
      <trkpt lat="44.48916" lon="2.93308">
        <ele>515.3</ele>
        <time>2021-08-17T15:42:50Z</time>
      </trkpt>
      <trkpt lat="44.4892" lon="2.93305">
        <ele>515.3</ele>
        <time>2021-08-17T15:42:52Z</time>
      </trkpt>
      <trkpt lat="44.48924" lon="2.93301">
        <ele>515.3</ele>
        <time>2021-08-17T15:42:54Z</time>
      </trkpt>
      <trkpt lat="44.48928" lon="2.93299">
        <ele>515.5</ele>
        <time>2021-08-17T15:42:56Z</time>
      </trkpt>
      <trkpt lat="44.48931" lon="2.93295">
        <ele>515.1</ele>
        <time>2021-08-17T15:42:58Z</time>
      </trkpt>
      <trkpt lat="44.48935" lon="2.9329">
        <ele>514.7</ele>
        <time>2021-08-17T15:43:00Z</time>
      </trkpt>
      <trkpt lat="44.48938" lon="2.93286">
        <ele>514.4</ele>
        <time>2021-08-17T15:43:02Z</time>
      </trkpt>
      <trkpt lat="44.48941" lon="2.93281">
        <ele>514.1</ele>
        <time>2021-08-17T15:43:04Z</time>
      </trkpt>
      <trkpt lat="44.48944" lon="2.93277">
        <ele>513.6</ele>
        <time>2021-08-17T15:43:06Z</time>
      </trkpt>
      <trkpt lat="44.48947" lon="2.93273">
        <ele>513.3</ele>
        <time>2021-08-17T15:43:08Z</time>
      </trkpt>
      <trkpt lat="44.4895" lon="2.93268">
        <ele>513</ele>
        <time>2021-08-17T15:43:10Z</time>
      </trkpt>
      <trkpt lat="44.48954" lon="2.93264">
        <ele>512.8</ele>
        <time>2021-08-17T15:43:12Z</time>
      </trkpt>
      <trkpt lat="44.48957" lon="2.9326">
        <ele>512.7</ele>
        <time>2021-08-17T15:43:14Z</time>
      </trkpt>
      <trkpt lat="44.48961" lon="2.93256">
        <ele>512.4</ele>
        <time>2021-08-17T15:43:16Z</time>
      </trkpt>
      <trkpt lat="44.48963" lon="2.93251">
        <ele>512.1</ele>
        <time>2021-08-17T15:43:18Z</time>
      </trkpt>
      <trkpt lat="44.48967" lon="2.93247">
        <ele>512.3</ele>
        <time>2021-08-17T15:43:20Z</time>
      </trkpt>
      <trkpt lat="44.4897" lon="2.93242">
        <ele>512.6</ele>
        <time>2021-08-17T15:43:22Z</time>
      </trkpt>
      <trkpt lat="44.48973" lon="2.93238">
        <ele>513.1</ele>
        <time>2021-08-17T15:43:24Z</time>
      </trkpt>
      <trkpt lat="44.48977" lon="2.93235">
        <ele>513.8</ele>
        <time>2021-08-17T15:43:26Z</time>
      </trkpt>
      <trkpt lat="44.4898" lon="2.93231">
        <ele>514.3</ele>
        <time>2021-08-17T15:43:28Z</time>
      </trkpt>
      <trkpt lat="44.48984" lon="2.93227">
        <ele>514.8</ele>
        <time>2021-08-17T15:43:30Z</time>
      </trkpt>
      <trkpt lat="44.48988" lon="2.93224">
        <ele>515.6</ele>
        <time>2021-08-17T15:43:32Z</time>
      </trkpt>
      <trkpt lat="44.48991" lon="2.9322">
        <ele>516.2</ele>
        <time>2021-08-17T15:43:34Z</time>
      </trkpt>
      <trkpt lat="44.48995" lon="2.93216">
        <ele>516.8</ele>
        <time>2021-08-17T15:43:36Z</time>
      </trkpt>
      <trkpt lat="44.48999" lon="2.93212">
        <ele>517.5</ele>
        <time>2021-08-17T15:43:38Z</time>
      </trkpt>
      <trkpt lat="44.49003" lon="2.93208">
        <ele>517.9</ele>
        <time>2021-08-17T15:43:40Z</time>
      </trkpt>
      <trkpt lat="44.49006" lon="2.93205">
        <ele>518.1</ele>
        <time>2021-08-17T15:43:42Z</time>
      </trkpt>
      <trkpt lat="44.4901" lon="2.93202">
        <ele>518.6</ele>
        <time>2021-08-17T15:43:44Z</time>
      </trkpt>
      <trkpt lat="44.49014" lon="2.93198">
        <ele>518.8</ele>
        <time>2021-08-17T15:43:46Z</time>
      </trkpt>
      <trkpt lat="44.49017" lon="2.93195">
        <ele>519.1</ele>
        <time>2021-08-17T15:43:48Z</time>
      </trkpt>
      <trkpt lat="44.49021" lon="2.93191">
        <ele>519.3</ele>
        <time>2021-08-17T15:43:50Z</time>
      </trkpt>
      <trkpt lat="44.49025" lon="2.93187">
        <ele>519.6</ele>
        <time>2021-08-17T15:43:52Z</time>
      </trkpt>
      <trkpt lat="44.49029" lon="2.93184">
        <ele>519.9</ele>
        <time>2021-08-17T15:43:54Z</time>
      </trkpt>
      <trkpt lat="44.49033" lon="2.9318">
        <ele>520.1</ele>
        <time>2021-08-17T15:43:56Z</time>
      </trkpt>
      <trkpt lat="44.49036" lon="2.93176">
        <ele>520.2</ele>
        <time>2021-08-17T15:43:58Z</time>
      </trkpt>
      <trkpt lat="44.4904" lon="2.93172">
        <ele>520.3</ele>
        <time>2021-08-17T15:44:00Z</time>
      </trkpt>
      <trkpt lat="44.49043" lon="2.93169">
        <ele>520.4</ele>
        <time>2021-08-17T15:44:02Z</time>
      </trkpt>
      <trkpt lat="44.49047" lon="2.93166">
        <ele>520.7</ele>
        <time>2021-08-17T15:44:04Z</time>
      </trkpt>
      <trkpt lat="44.4905" lon="2.93162">
        <ele>520.9</ele>
        <time>2021-08-17T15:44:06Z</time>
      </trkpt>
      <trkpt lat="44.49053" lon="2.93158">
        <ele>521.1</ele>
        <time>2021-08-17T15:44:08Z</time>
      </trkpt>
      <trkpt lat="44.49056" lon="2.93154">
        <ele>521.3</ele>
        <time>2021-08-17T15:44:10Z</time>
      </trkpt>
      <trkpt lat="44.4906" lon="2.9315">
        <ele>521.4</ele>
        <time>2021-08-17T15:44:12Z</time>
      </trkpt>
      <trkpt lat="44.49063" lon="2.93145">
        <ele>521.7</ele>
        <time>2021-08-17T15:44:14Z</time>
      </trkpt>
      <trkpt lat="44.49067" lon="2.9314">
        <ele>521.8</ele>
        <time>2021-08-17T15:44:16Z</time>
      </trkpt>
      <trkpt lat="44.4907" lon="2.93135">
        <ele>522</ele>
        <time>2021-08-17T15:44:18Z</time>
      </trkpt>
      <trkpt lat="44.49074" lon="2.9313">
        <ele>522.3</ele>
        <time>2021-08-17T15:44:20Z</time>
      </trkpt>
      <trkpt lat="44.49077" lon="2.93125">
        <ele>522.5</ele>
        <time>2021-08-17T15:44:22Z</time>
      </trkpt>
      <trkpt lat="44.49081" lon="2.9312">
        <ele>522.9</ele>
        <time>2021-08-17T15:44:24Z</time>
      </trkpt>
      <trkpt lat="44.49085" lon="2.93115">
        <ele>523.3</ele>
        <time>2021-08-17T15:44:26Z</time>
      </trkpt>
      <trkpt lat="44.49089" lon="2.9311">
        <ele>523.8</ele>
        <time>2021-08-17T15:44:28Z</time>
      </trkpt>
      <trkpt lat="44.49093" lon="2.93104">
        <ele>524.3</ele>
        <time>2021-08-17T15:44:30Z</time>
      </trkpt>
      <trkpt lat="44.49097" lon="2.93099">
        <ele>524.8</ele>
        <time>2021-08-17T15:44:32Z</time>
      </trkpt>
      <trkpt lat="44.49101" lon="2.93093">
        <ele>525.2</ele>
        <time>2021-08-17T15:44:34Z</time>
      </trkpt>
      <trkpt lat="44.49105" lon="2.93088">
        <ele>525.7</ele>
        <time>2021-08-17T15:44:36Z</time>
      </trkpt>
      <trkpt lat="44.49108" lon="2.93082">
        <ele>526</ele>
        <time>2021-08-17T15:44:38Z</time>
      </trkpt>
      <trkpt lat="44.49112" lon="2.93076">
        <ele>526.2</ele>
        <time>2021-08-17T15:44:40Z</time>
      </trkpt>
      <trkpt lat="44.49116" lon="2.9307">
        <ele>526.1</ele>
        <time>2021-08-17T15:44:42Z</time>
      </trkpt>
      <trkpt lat="44.49119" lon="2.93064">
        <ele>526.2</ele>
        <time>2021-08-17T15:44:44Z</time>
      </trkpt>
      <trkpt lat="44.49122" lon="2.93058">
        <ele>526.3</ele>
        <time>2021-08-17T15:44:46Z</time>
      </trkpt>
      <trkpt lat="44.49126" lon="2.93053">
        <ele>526.3</ele>
        <time>2021-08-17T15:44:48Z</time>
      </trkpt>
      <trkpt lat="44.49128" lon="2.93047">
        <ele>526.3</ele>
        <time>2021-08-17T15:44:50Z</time>
      </trkpt>
      <trkpt lat="44.49131" lon="2.93041">
        <ele>526.1</ele>
        <time>2021-08-17T15:44:52Z</time>
      </trkpt>
      <trkpt lat="44.49133" lon="2.93035">
        <ele>525.9</ele>
        <time>2021-08-17T15:44:54Z</time>
      </trkpt>
      <trkpt lat="44.49135" lon="2.93029">
        <ele>525.7</ele>
        <time>2021-08-17T15:44:56Z</time>
      </trkpt>
      <trkpt lat="44.49137" lon="2.93022">
        <ele>525.6</ele>
        <time>2021-08-17T15:44:58Z</time>
      </trkpt>
      <trkpt lat="44.4914" lon="2.93017">
        <ele>525.6</ele>
        <time>2021-08-17T15:45:00Z</time>
      </trkpt>
      <trkpt lat="44.49141" lon="2.9301">
        <ele>525.2</ele>
        <time>2021-08-17T15:45:02Z</time>
      </trkpt>
      <trkpt lat="44.49143" lon="2.93005">
        <ele>525.1</ele>
        <time>2021-08-17T15:45:04Z</time>
      </trkpt>
      <trkpt lat="44.49145" lon="2.93002">
        <ele>525.2</ele>
        <time>2021-08-17T15:45:06Z</time>
      </trkpt>
      <trkpt lat="44.49145" lon="2.92999">
        <ele>525.1</ele>
        <time>2021-08-17T15:45:08Z</time>
      </trkpt>
      <trkpt lat="44.49145" lon="2.93">
        <ele>525.1</ele>
        <time>2021-08-17T15:45:10Z</time>
      </trkpt>
      <trkpt lat="44.49145" lon="2.93">
        <ele>525.1</ele>
        <time>2021-08-17T15:45:12Z</time>
      </trkpt>
      <trkpt lat="44.49145" lon="2.93">
        <ele>525.1</ele>
        <time>2021-08-17T15:45:14Z</time>
      </trkpt>
      <trkpt lat="44.49145" lon="2.93">
        <ele>525.1</ele>
        <time>2021-08-17T15:45:16Z</time>
      </trkpt>
      <trkpt lat="44.49149" lon="2.92982">
        <ele>524</ele>
        <time>2021-08-17T15:46:56Z</time>
      </trkpt>
      <trkpt lat="44.49151" lon="2.92977">
        <ele>524</ele>
        <time>2021-08-17T15:46:58Z</time>
      </trkpt>
      <trkpt lat="44.49154" lon="2.9297">
        <ele>523.9</ele>
        <time>2021-08-17T15:47:00Z</time>
      </trkpt>
      <trkpt lat="44.49157" lon="2.92963">
        <ele>523.8</ele>
        <time>2021-08-17T15:47:02Z</time>
      </trkpt>
      <trkpt lat="44.4916" lon="2.92956">
        <ele>523.8</ele>
        <time>2021-08-17T15:47:04Z</time>
      </trkpt>
      <trkpt lat="44.49164" lon="2.92948">
        <ele>523.8</ele>
        <time>2021-08-17T15:47:06Z</time>
      </trkpt>
      <trkpt lat="44.49168" lon="2.92939">
        <ele>523.7</ele>
        <time>2021-08-17T15:47:08Z</time>
      </trkpt>
      <trkpt lat="44.49172" lon="2.92928">
        <ele>523.8</ele>
        <time>2021-08-17T15:47:10Z</time>
      </trkpt>
      <trkpt lat="44.49177" lon="2.92917">
        <ele>524.2</ele>
        <time>2021-08-17T15:47:12Z</time>
      </trkpt>
      <trkpt lat="44.49182" lon="2.92905">
        <ele>524.3</ele>
        <time>2021-08-17T15:47:14Z</time>
      </trkpt>
      <trkpt lat="44.49187" lon="2.92893">
        <ele>524.3</ele>
        <time>2021-08-17T15:47:16Z</time>
      </trkpt>
      <trkpt lat="44.49192" lon="2.92881">
        <ele>524.3</ele>
        <time>2021-08-17T15:47:18Z</time>
      </trkpt>
      <trkpt lat="44.49197" lon="2.9287">
        <ele>524.2</ele>
        <time>2021-08-17T15:47:20Z</time>
      </trkpt>
      <trkpt lat="44.49203" lon="2.92859">
        <ele>524.4</ele>
        <time>2021-08-17T15:47:22Z</time>
      </trkpt>
      <trkpt lat="44.49208" lon="2.92848">
        <ele>524.5</ele>
        <time>2021-08-17T15:47:24Z</time>
      </trkpt>
      <trkpt lat="44.49214" lon="2.92839">
        <ele>524.7</ele>
        <time>2021-08-17T15:47:26Z</time>
      </trkpt>
      <trkpt lat="44.49219" lon="2.9283">
        <ele>524.9</ele>
        <time>2021-08-17T15:47:28Z</time>
      </trkpt>
      <trkpt lat="44.49224" lon="2.92822">
        <ele>525.1</ele>
        <time>2021-08-17T15:47:30Z</time>
      </trkpt>
      <trkpt lat="44.49229" lon="2.92813">
        <ele>525.5</ele>
        <time>2021-08-17T15:47:32Z</time>
      </trkpt>
      <trkpt lat="44.49232" lon="2.92805">
        <ele>525.4</ele>
        <time>2021-08-17T15:47:34Z</time>
      </trkpt>
      <trkpt lat="44.49236" lon="2.92797">
        <ele>525.5</ele>
        <time>2021-08-17T15:47:36Z</time>
      </trkpt>
      <trkpt lat="44.49239" lon="2.92789">
        <ele>525.6</ele>
        <time>2021-08-17T15:47:38Z</time>
      </trkpt>
      <trkpt lat="44.49242" lon="2.92782">
        <ele>525.6</ele>
        <time>2021-08-17T15:47:40Z</time>
      </trkpt>
      <trkpt lat="44.49244" lon="2.92774">
        <ele>525.4</ele>
        <time>2021-08-17T15:47:42Z</time>
      </trkpt>
      <trkpt lat="44.49246" lon="2.92767">
        <ele>525.5</ele>
        <time>2021-08-17T15:47:44Z</time>
      </trkpt>
      <trkpt lat="44.4925" lon="2.9276">
        <ele>525.8</ele>
        <time>2021-08-17T15:47:46Z</time>
      </trkpt>
      <trkpt lat="44.49251" lon="2.92752">
        <ele>525.6</ele>
        <time>2021-08-17T15:47:48Z</time>
      </trkpt>
      <trkpt lat="44.49253" lon="2.92746">
        <ele>525.7</ele>
        <time>2021-08-17T15:47:50Z</time>
      </trkpt>
      <trkpt lat="44.49256" lon="2.9274">
        <ele>525.9</ele>
        <time>2021-08-17T15:47:52Z</time>
      </trkpt>
      <trkpt lat="44.49258" lon="2.92733">
        <ele>526</ele>
        <time>2021-08-17T15:47:54Z</time>
      </trkpt>
      <trkpt lat="44.49261" lon="2.92727">
        <ele>526.3</ele>
        <time>2021-08-17T15:47:56Z</time>
      </trkpt>
      <trkpt lat="44.49263" lon="2.92721">
        <ele>526.5</ele>
        <time>2021-08-17T15:47:58Z</time>
      </trkpt>
      <trkpt lat="44.49266" lon="2.92715">
        <ele>526.9</ele>
        <time>2021-08-17T15:48:00Z</time>
      </trkpt>
      <trkpt lat="44.49268" lon="2.9271">
        <ele>527.1</ele>
        <time>2021-08-17T15:48:02Z</time>
      </trkpt>
      <trkpt lat="44.49271" lon="2.92704">
        <ele>527.6</ele>
        <time>2021-08-17T15:48:04Z</time>
      </trkpt>
      <trkpt lat="44.49274" lon="2.92699">
        <ele>527.9</ele>
        <time>2021-08-17T15:48:06Z</time>
      </trkpt>
      <trkpt lat="44.49277" lon="2.92694">
        <ele>528.5</ele>
        <time>2021-08-17T15:48:08Z</time>
      </trkpt>
      <trkpt lat="44.4928" lon="2.92688">
        <ele>528.9</ele>
        <time>2021-08-17T15:48:10Z</time>
      </trkpt>
      <trkpt lat="44.49283" lon="2.92683">
        <ele>529.3</ele>
        <time>2021-08-17T15:48:12Z</time>
      </trkpt>
      <trkpt lat="44.49286" lon="2.92679">
        <ele>529.9</ele>
        <time>2021-08-17T15:48:14Z</time>
      </trkpt>
      <trkpt lat="44.4929" lon="2.92675">
        <ele>530.7</ele>
        <time>2021-08-17T15:48:16Z</time>
      </trkpt>
      <trkpt lat="44.49293" lon="2.9267">
        <ele>531.2</ele>
        <time>2021-08-17T15:48:18Z</time>
      </trkpt>
      <trkpt lat="44.49296" lon="2.92665">
        <ele>531.8</ele>
        <time>2021-08-17T15:48:20Z</time>
      </trkpt>
      <trkpt lat="44.49299" lon="2.9266">
        <ele>532.2</ele>
        <time>2021-08-17T15:48:22Z</time>
      </trkpt>
      <trkpt lat="44.49302" lon="2.92654">
        <ele>532.6</ele>
        <time>2021-08-17T15:48:24Z</time>
      </trkpt>
      <trkpt lat="44.49305" lon="2.9265">
        <ele>533.2</ele>
        <time>2021-08-17T15:48:26Z</time>
      </trkpt>
      <trkpt lat="44.49307" lon="2.92644">
        <ele>533.6</ele>
        <time>2021-08-17T15:48:28Z</time>
      </trkpt>
      <trkpt lat="44.4931" lon="2.92639">
        <ele>533.9</ele>
        <time>2021-08-17T15:48:30Z</time>
      </trkpt>
      <trkpt lat="44.49312" lon="2.92633">
        <ele>534.2</ele>
        <time>2021-08-17T15:48:32Z</time>
      </trkpt>
      <trkpt lat="44.49315" lon="2.92628">
        <ele>534.4</ele>
        <time>2021-08-17T15:48:34Z</time>
      </trkpt>
      <trkpt lat="44.49317" lon="2.92622">
        <ele>534.5</ele>
        <time>2021-08-17T15:48:36Z</time>
      </trkpt>
      <trkpt lat="44.49318" lon="2.92616">
        <ele>534.5</ele>
        <time>2021-08-17T15:48:38Z</time>
      </trkpt>
      <trkpt lat="44.4932" lon="2.9261">
        <ele>534.4</ele>
        <time>2021-08-17T15:48:40Z</time>
      </trkpt>
      <trkpt lat="44.49321" lon="2.92605">
        <ele>534.4</ele>
        <time>2021-08-17T15:48:42Z</time>
      </trkpt>
      <trkpt lat="44.49323" lon="2.92599">
        <ele>534.4</ele>
        <time>2021-08-17T15:48:44Z</time>
      </trkpt>
      <trkpt lat="44.49325" lon="2.92594">
        <ele>534.5</ele>
        <time>2021-08-17T15:48:46Z</time>
      </trkpt>
      <trkpt lat="44.49327" lon="2.92589">
        <ele>534.5</ele>
        <time>2021-08-17T15:48:48Z</time>
      </trkpt>
      <trkpt lat="44.49329" lon="2.92583">
        <ele>534.6</ele>
        <time>2021-08-17T15:48:50Z</time>
      </trkpt>
      <trkpt lat="44.4933" lon="2.92578">
        <ele>534.6</ele>
        <time>2021-08-17T15:48:52Z</time>
      </trkpt>
      <trkpt lat="44.49333" lon="2.92573">
        <ele>534.9</ele>
        <time>2021-08-17T15:48:54Z</time>
      </trkpt>
      <trkpt lat="44.49335" lon="2.92568">
        <ele>535.1</ele>
        <time>2021-08-17T15:48:56Z</time>
      </trkpt>
      <trkpt lat="44.49338" lon="2.92563">
        <ele>535.4</ele>
        <time>2021-08-17T15:48:58Z</time>
      </trkpt>
      <trkpt lat="44.49341" lon="2.9256">
        <ele>535.8</ele>
        <time>2021-08-17T15:49:00Z</time>
      </trkpt>
      <trkpt lat="44.49344" lon="2.92555">
        <ele>536</ele>
        <time>2021-08-17T15:49:02Z</time>
      </trkpt>
      <trkpt lat="44.49346" lon="2.92551">
        <ele>536.2</ele>
        <time>2021-08-17T15:49:04Z</time>
      </trkpt>
      <trkpt lat="44.4935" lon="2.92548">
        <ele>536.7</ele>
        <time>2021-08-17T15:49:06Z</time>
      </trkpt>
      <trkpt lat="44.49353" lon="2.92543">
        <ele>537</ele>
        <time>2021-08-17T15:49:08Z</time>
      </trkpt>
      <trkpt lat="44.49357" lon="2.9254">
        <ele>537.5</ele>
        <time>2021-08-17T15:49:10Z</time>
      </trkpt>
      <trkpt lat="44.4936" lon="2.92536">
        <ele>537.9</ele>
        <time>2021-08-17T15:49:12Z</time>
      </trkpt>
      <trkpt lat="44.49363" lon="2.92532">
        <ele>538.1</ele>
        <time>2021-08-17T15:49:14Z</time>
      </trkpt>
      <trkpt lat="44.49367" lon="2.92529">
        <ele>538.6</ele>
        <time>2021-08-17T15:49:16Z</time>
      </trkpt>
      <trkpt lat="44.49371" lon="2.92525">
        <ele>539</ele>
        <time>2021-08-17T15:49:18Z</time>
      </trkpt>
      <trkpt lat="44.49375" lon="2.92522">
        <ele>539.5</ele>
        <time>2021-08-17T15:49:20Z</time>
      </trkpt>
      <trkpt lat="44.49379" lon="2.92519">
        <ele>540</ele>
        <time>2021-08-17T15:49:22Z</time>
      </trkpt>
      <trkpt lat="44.49383" lon="2.92515">
        <ele>540.5</ele>
        <time>2021-08-17T15:49:24Z</time>
      </trkpt>
      <trkpt lat="44.49388" lon="2.92512">
        <ele>541</ele>
        <time>2021-08-17T15:49:26Z</time>
      </trkpt>
      <trkpt lat="44.49392" lon="2.92508">
        <ele>541.3</ele>
        <time>2021-08-17T15:49:28Z</time>
      </trkpt>
      <trkpt lat="44.49396" lon="2.92504">
        <ele>541.5</ele>
        <time>2021-08-17T15:49:30Z</time>
      </trkpt>
      <trkpt lat="44.49401" lon="2.925">
        <ele>541.7</ele>
        <time>2021-08-17T15:49:32Z</time>
      </trkpt>
      <trkpt lat="44.49405" lon="2.92496">
        <ele>542.1</ele>
        <time>2021-08-17T15:49:34Z</time>
      </trkpt>
      <trkpt lat="44.4941" lon="2.92492">
        <ele>542.4</ele>
        <time>2021-08-17T15:49:36Z</time>
      </trkpt>
      <trkpt lat="44.49414" lon="2.92488">
        <ele>542.6</ele>
        <time>2021-08-17T15:49:38Z</time>
      </trkpt>
      <trkpt lat="44.49418" lon="2.92484">
        <ele>542.9</ele>
        <time>2021-08-17T15:49:40Z</time>
      </trkpt>
      <trkpt lat="44.49422" lon="2.9248">
        <ele>543</ele>
        <time>2021-08-17T15:49:42Z</time>
      </trkpt>
      <trkpt lat="44.49427" lon="2.92476">
        <ele>543.1</ele>
        <time>2021-08-17T15:49:44Z</time>
      </trkpt>
      <trkpt lat="44.49431" lon="2.92472">
        <ele>543.3</ele>
        <time>2021-08-17T15:49:46Z</time>
      </trkpt>
      <trkpt lat="44.49436" lon="2.92468">
        <ele>543.5</ele>
        <time>2021-08-17T15:49:48Z</time>
      </trkpt>
      <trkpt lat="44.4944" lon="2.92464">
        <ele>543.6</ele>
        <time>2021-08-17T15:49:50Z</time>
      </trkpt>
      <trkpt lat="44.49445" lon="2.9246">
        <ele>543.6</ele>
        <time>2021-08-17T15:49:52Z</time>
      </trkpt>
      <trkpt lat="44.49449" lon="2.92456">
        <ele>543.7</ele>
        <time>2021-08-17T15:49:54Z</time>
      </trkpt>
      <trkpt lat="44.49454" lon="2.92452">
        <ele>543.8</ele>
        <time>2021-08-17T15:49:56Z</time>
      </trkpt>
      <trkpt lat="44.49458" lon="2.92447">
        <ele>543.7</ele>
        <time>2021-08-17T15:49:58Z</time>
      </trkpt>
      <trkpt lat="44.49463" lon="2.92443">
        <ele>543.7</ele>
        <time>2021-08-17T15:50:00Z</time>
      </trkpt>
      <trkpt lat="44.49468" lon="2.9244">
        <ele>543.9</ele>
        <time>2021-08-17T15:50:02Z</time>
      </trkpt>
      <trkpt lat="44.49473" lon="2.92437">
        <ele>544.1</ele>
        <time>2021-08-17T15:50:04Z</time>
      </trkpt>
      <trkpt lat="44.49478" lon="2.92434">
        <ele>544.2</ele>
        <time>2021-08-17T15:50:06Z</time>
      </trkpt>
      <trkpt lat="44.49483" lon="2.92432">
        <ele>544.6</ele>
        <time>2021-08-17T15:50:08Z</time>
      </trkpt>
      <trkpt lat="44.49488" lon="2.9243">
        <ele>545</ele>
        <time>2021-08-17T15:50:10Z</time>
      </trkpt>
      <trkpt lat="44.49494" lon="2.92429">
        <ele>545.7</ele>
        <time>2021-08-17T15:50:12Z</time>
      </trkpt>
      <trkpt lat="44.49501" lon="2.92428">
        <ele>546.3</ele>
        <time>2021-08-17T15:50:14Z</time>
      </trkpt>
      <trkpt lat="44.49507" lon="2.92427">
        <ele>545.7</ele>
        <time>2021-08-17T15:50:16Z</time>
      </trkpt>
      <trkpt lat="44.49513" lon="2.9243">
        <ele>545.7</ele>
        <time>2021-08-17T15:50:18Z</time>
      </trkpt>
      <trkpt lat="44.4952" lon="2.92432">
        <ele>545.5</ele>
        <time>2021-08-17T15:50:20Z</time>
      </trkpt>
      <trkpt lat="44.49527" lon="2.92435">
        <ele>545.5</ele>
        <time>2021-08-17T15:50:22Z</time>
      </trkpt>
      <trkpt lat="44.49535" lon="2.92439">
        <ele>545.6</ele>
        <time>2021-08-17T15:50:24Z</time>
      </trkpt>
      <trkpt lat="44.49542" lon="2.92444">
        <ele>546.1</ele>
        <time>2021-08-17T15:50:26Z</time>
      </trkpt>
      <trkpt lat="44.49551" lon="2.92448">
        <ele>546.1</ele>
        <time>2021-08-17T15:50:28Z</time>
      </trkpt>
      <trkpt lat="44.49559" lon="2.92453">
        <ele>546.3</ele>
        <time>2021-08-17T15:50:30Z</time>
      </trkpt>
      <trkpt lat="44.49567" lon="2.92458">
        <ele>546.5</ele>
        <time>2021-08-17T15:50:32Z</time>
      </trkpt>
      <trkpt lat="44.49576" lon="2.92464">
        <ele>546.8</ele>
        <time>2021-08-17T15:50:34Z</time>
      </trkpt>
      <trkpt lat="44.49584" lon="2.92469">
        <ele>546.8</ele>
        <time>2021-08-17T15:50:36Z</time>
      </trkpt>
      <trkpt lat="44.49594" lon="2.92474">
        <ele>545</ele>
        <time>2021-08-17T15:50:38Z</time>
      </trkpt>
      <trkpt lat="44.49603" lon="2.92481">
        <ele>543.9</ele>
        <time>2021-08-17T15:50:40Z</time>
      </trkpt>
      <trkpt lat="44.49611" lon="2.92489">
        <ele>543.1</ele>
        <time>2021-08-17T15:50:42Z</time>
      </trkpt>
      <trkpt lat="44.49619" lon="2.92497">
        <ele>542.7</ele>
        <time>2021-08-17T15:50:44Z</time>
      </trkpt>
      <trkpt lat="44.49625" lon="2.92508">
        <ele>543.5</ele>
        <time>2021-08-17T15:50:46Z</time>
      </trkpt>
      <trkpt lat="44.49631" lon="2.92519">
        <ele>544.4</ele>
        <time>2021-08-17T15:50:48Z</time>
      </trkpt>
      <trkpt lat="44.49637" lon="2.9253">
        <ele>545.4</ele>
        <time>2021-08-17T15:50:50Z</time>
      </trkpt>
      <trkpt lat="44.49643" lon="2.92542">
        <ele>546.8</ele>
        <time>2021-08-17T15:50:52Z</time>
      </trkpt>
      <trkpt lat="44.49649" lon="2.92553">
        <ele>547.6</ele>
        <time>2021-08-17T15:50:54Z</time>
      </trkpt>
      <trkpt lat="44.49656" lon="2.92563">
        <ele>548.1</ele>
        <time>2021-08-17T15:50:56Z</time>
      </trkpt>
      <trkpt lat="44.49662" lon="2.92573">
        <ele>548.7</ele>
        <time>2021-08-17T15:50:58Z</time>
      </trkpt>
      <trkpt lat="44.49672" lon="2.92581">
        <ele>547.9</ele>
        <time>2021-08-17T15:51:00Z</time>
      </trkpt>
      <trkpt lat="44.49679" lon="2.9259">
        <ele>547.2</ele>
        <time>2021-08-17T15:51:02Z</time>
      </trkpt>
      <trkpt lat="44.49688" lon="2.92597">
        <ele>546.1</ele>
        <time>2021-08-17T15:51:04Z</time>
      </trkpt>
      <trkpt lat="44.49697" lon="2.92605">
        <ele>544.9</ele>
        <time>2021-08-17T15:51:06Z</time>
      </trkpt>
      <trkpt lat="44.49705" lon="2.92614">
        <ele>544.3</ele>
        <time>2021-08-17T15:51:08Z</time>
      </trkpt>
      <trkpt lat="44.49714" lon="2.92623">
        <ele>543.5</ele>
        <time>2021-08-17T15:51:10Z</time>
      </trkpt>
      <trkpt lat="44.49721" lon="2.92634">
        <ele>544</ele>
        <time>2021-08-17T15:51:12Z</time>
      </trkpt>
      <trkpt lat="44.49728" lon="2.92645">
        <ele>544.3</ele>
        <time>2021-08-17T15:51:14Z</time>
      </trkpt>
      <trkpt lat="44.49734" lon="2.92658">
        <ele>545.5</ele>
        <time>2021-08-17T15:51:16Z</time>
      </trkpt>
      <trkpt lat="44.49741" lon="2.9267">
        <ele>546.4</ele>
        <time>2021-08-17T15:51:18Z</time>
      </trkpt>
      <trkpt lat="44.49745" lon="2.92683">
        <ele>548.5</ele>
        <time>2021-08-17T15:51:20Z</time>
      </trkpt>
      <trkpt lat="44.49749" lon="2.92697">
        <ele>551.1</ele>
        <time>2021-08-17T15:51:22Z</time>
      </trkpt>
      <trkpt lat="44.49754" lon="2.92711">
        <ele>552.7</ele>
        <time>2021-08-17T15:51:24Z</time>
      </trkpt>
      <trkpt lat="44.49759" lon="2.92725">
        <ele>554.4</ele>
        <time>2021-08-17T15:51:26Z</time>
      </trkpt>
      <trkpt lat="44.49763" lon="2.92738">
        <ele>555.6</ele>
        <time>2021-08-17T15:51:28Z</time>
      </trkpt>
      <trkpt lat="44.49767" lon="2.92752">
        <ele>557.1</ele>
        <time>2021-08-17T15:51:30Z</time>
      </trkpt>
      <trkpt lat="44.49773" lon="2.92765">
        <ele>556.9</ele>
        <time>2021-08-17T15:51:32Z</time>
      </trkpt>
      <trkpt lat="44.49778" lon="2.92778">
        <ele>557.1</ele>
        <time>2021-08-17T15:51:34Z</time>
      </trkpt>
      <trkpt lat="44.49786" lon="2.9279">
        <ele>556.3</ele>
        <time>2021-08-17T15:51:36Z</time>
      </trkpt>
      <trkpt lat="44.49794" lon="2.92802">
        <ele>555.6</ele>
        <time>2021-08-17T15:51:38Z</time>
      </trkpt>
      <trkpt lat="44.49803" lon="2.92812">
        <ele>554.3</ele>
        <time>2021-08-17T15:51:40Z</time>
      </trkpt>
      <trkpt lat="44.49814" lon="2.9282">
        <ele>552.5</ele>
        <time>2021-08-17T15:51:42Z</time>
      </trkpt>
      <trkpt lat="44.49823" lon="2.92826">
        <ele>550.5</ele>
        <time>2021-08-17T15:51:44Z</time>
      </trkpt>
      <trkpt lat="44.49834" lon="2.92832">
        <ele>548.5</ele>
        <time>2021-08-17T15:51:46Z</time>
      </trkpt>
      <trkpt lat="44.49845" lon="2.92837">
        <ele>547.7</ele>
        <time>2021-08-17T15:51:48Z</time>
      </trkpt>
      <trkpt lat="44.49855" lon="2.92842">
        <ele>546.9</ele>
        <time>2021-08-17T15:51:50Z</time>
      </trkpt>
      <trkpt lat="44.49867" lon="2.92849">
        <ele>546</ele>
        <time>2021-08-17T15:51:52Z</time>
      </trkpt>
      <trkpt lat="44.49877" lon="2.92859">
        <ele>545.9</ele>
        <time>2021-08-17T15:51:54Z</time>
      </trkpt>
      <trkpt lat="44.49885" lon="2.92872">
        <ele>546.4</ele>
        <time>2021-08-17T15:51:56Z</time>
      </trkpt>
      <trkpt lat="44.4989" lon="2.92887">
        <ele>547.8</ele>
        <time>2021-08-17T15:51:58Z</time>
      </trkpt>
      <trkpt lat="44.49894" lon="2.92903">
        <ele>549.6</ele>
        <time>2021-08-17T15:52:00Z</time>
      </trkpt>
      <trkpt lat="44.49897" lon="2.92919">
        <ele>551.3</ele>
        <time>2021-08-17T15:52:02Z</time>
      </trkpt>
      <trkpt lat="44.49898" lon="2.92936">
        <ele>552.7</ele>
        <time>2021-08-17T15:52:04Z</time>
      </trkpt>
      <trkpt lat="44.49899" lon="2.92952">
        <ele>554.1</ele>
        <time>2021-08-17T15:52:06Z</time>
      </trkpt>
      <trkpt lat="44.499" lon="2.92969">
        <ele>555.4</ele>
        <time>2021-08-17T15:52:08Z</time>
      </trkpt>
      <trkpt lat="44.49901" lon="2.92987">
        <ele>556.8</ele>
        <time>2021-08-17T15:52:10Z</time>
      </trkpt>
      <trkpt lat="44.49902" lon="2.93004">
        <ele>557.9</ele>
        <time>2021-08-17T15:52:12Z</time>
      </trkpt>
      <trkpt lat="44.49905" lon="2.93021">
        <ele>558.2</ele>
        <time>2021-08-17T15:52:14Z</time>
      </trkpt>
      <trkpt lat="44.49908" lon="2.93037">
        <ele>558.5</ele>
        <time>2021-08-17T15:52:16Z</time>
      </trkpt>
      <trkpt lat="44.49913" lon="2.93052">
        <ele>557.8</ele>
        <time>2021-08-17T15:52:18Z</time>
      </trkpt>
      <trkpt lat="44.49919" lon="2.93067">
        <ele>557.4</ele>
        <time>2021-08-17T15:52:20Z</time>
      </trkpt>
      <trkpt lat="44.49924" lon="2.93082">
        <ele>557.5</ele>
        <time>2021-08-17T15:52:22Z</time>
      </trkpt>
      <trkpt lat="44.49929" lon="2.93097">
        <ele>557.5</ele>
        <time>2021-08-17T15:52:24Z</time>
      </trkpt>
      <trkpt lat="44.49932" lon="2.93113">
        <ele>557.9</ele>
        <time>2021-08-17T15:52:26Z</time>
      </trkpt>
      <trkpt lat="44.49935" lon="2.93129">
        <ele>558.2</ele>
        <time>2021-08-17T15:52:28Z</time>
      </trkpt>
      <trkpt lat="44.49935" lon="2.93145">
        <ele>559.2</ele>
        <time>2021-08-17T15:52:30Z</time>
      </trkpt>
      <trkpt lat="44.49937" lon="2.9316">
        <ele>559.4</ele>
        <time>2021-08-17T15:52:32Z</time>
      </trkpt>
      <trkpt lat="44.49941" lon="2.93176">
        <ele>559.4</ele>
        <time>2021-08-17T15:52:34Z</time>
      </trkpt>
      <trkpt lat="44.49944" lon="2.93192">
        <ele>559.5</ele>
        <time>2021-08-17T15:52:36Z</time>
      </trkpt>
      <trkpt lat="44.49948" lon="2.93209">
        <ele>559.4</ele>
        <time>2021-08-17T15:52:38Z</time>
      </trkpt>
      <trkpt lat="44.49953" lon="2.93221">
        <ele>558.8</ele>
        <time>2021-08-17T15:52:40Z</time>
      </trkpt>
      <trkpt lat="44.4996" lon="2.93235">
        <ele>557.7</ele>
        <time>2021-08-17T15:52:42Z</time>
      </trkpt>
      <trkpt lat="44.49967" lon="2.93248">
        <ele>556.6</ele>
        <time>2021-08-17T15:52:44Z</time>
      </trkpt>
      <trkpt lat="44.49975" lon="2.93261">
        <ele>555.6</ele>
        <time>2021-08-17T15:52:46Z</time>
      </trkpt>
      <trkpt lat="44.49981" lon="2.93275">
        <ele>555</ele>
        <time>2021-08-17T15:52:48Z</time>
      </trkpt>
      <trkpt lat="44.49988" lon="2.93288">
        <ele>553.8</ele>
        <time>2021-08-17T15:52:50Z</time>
      </trkpt>
      <trkpt lat="44.49996" lon="2.933">
        <ele>552.5</ele>
        <time>2021-08-17T15:52:52Z</time>
      </trkpt>
      <trkpt lat="44.50003" lon="2.93311">
        <ele>552.2</ele>
        <time>2021-08-17T15:52:54Z</time>
      </trkpt>
      <trkpt lat="44.50011" lon="2.93323">
        <ele>552.4</ele>
        <time>2021-08-17T15:52:56Z</time>
      </trkpt>
      <trkpt lat="44.50019" lon="2.93333">
        <ele>552.4</ele>
        <time>2021-08-17T15:52:58Z</time>
      </trkpt>
      <trkpt lat="44.50027" lon="2.93341">
        <ele>551.8</ele>
        <time>2021-08-17T15:53:00Z</time>
      </trkpt>
      <trkpt lat="44.50035" lon="2.93346">
        <ele>551.3</ele>
        <time>2021-08-17T15:53:02Z</time>
      </trkpt>
      <trkpt lat="44.50042" lon="2.9335">
        <ele>551</ele>
        <time>2021-08-17T15:53:04Z</time>
      </trkpt>
      <trkpt lat="44.5005" lon="2.9335">
        <ele>550.6</ele>
        <time>2021-08-17T15:53:06Z</time>
      </trkpt>
      <trkpt lat="44.50056" lon="2.9335">
        <ele>550.2</ele>
        <time>2021-08-17T15:53:08Z</time>
      </trkpt>
      <trkpt lat="44.50063" lon="2.93349">
        <ele>549.8</ele>
        <time>2021-08-17T15:53:10Z</time>
      </trkpt>
      <trkpt lat="44.50069" lon="2.93347">
        <ele>549.3</ele>
        <time>2021-08-17T15:53:12Z</time>
      </trkpt>
      <trkpt lat="44.50074" lon="2.93345">
        <ele>548.8</ele>
        <time>2021-08-17T15:53:14Z</time>
      </trkpt>
      <trkpt lat="44.50079" lon="2.93342">
        <ele>548.2</ele>
        <time>2021-08-17T15:53:16Z</time>
      </trkpt>
      <trkpt lat="44.50084" lon="2.93338">
        <ele>547.8</ele>
        <time>2021-08-17T15:53:18Z</time>
      </trkpt>
      <trkpt lat="44.50087" lon="2.93335">
        <ele>549.7</ele>
        <time>2021-08-17T15:53:20Z</time>
      </trkpt>
      <trkpt lat="44.5009" lon="2.9333">
        <ele>551.2</ele>
        <time>2021-08-17T15:53:22Z</time>
      </trkpt>
      <trkpt lat="44.50093" lon="2.93325">
        <ele>552.5</ele>
        <time>2021-08-17T15:53:24Z</time>
      </trkpt>
      <trkpt lat="44.50095" lon="2.9332">
        <ele>553.6</ele>
        <time>2021-08-17T15:53:26Z</time>
      </trkpt>
      <trkpt lat="44.50097" lon="2.93317">
        <ele>554.9</ele>
        <time>2021-08-17T15:53:28Z</time>
      </trkpt>
      <trkpt lat="44.50099" lon="2.93312">
        <ele>555.5</ele>
        <time>2021-08-17T15:53:30Z</time>
      </trkpt>
      <trkpt lat="44.501" lon="2.93306">
        <ele>556</ele>
        <time>2021-08-17T15:53:32Z</time>
      </trkpt>
      <trkpt lat="44.50101" lon="2.93302">
        <ele>556.6</ele>
        <time>2021-08-17T15:53:34Z</time>
      </trkpt>
      <trkpt lat="44.50102" lon="2.93296">
        <ele>556.8</ele>
        <time>2021-08-17T15:53:36Z</time>
      </trkpt>
      <trkpt lat="44.50103" lon="2.93292">
        <ele>557.2</ele>
        <time>2021-08-17T15:53:38Z</time>
      </trkpt>
      <trkpt lat="44.50104" lon="2.93287">
        <ele>557.4</ele>
        <time>2021-08-17T15:53:40Z</time>
      </trkpt>
      <trkpt lat="44.50105" lon="2.93283">
        <ele>557.5</ele>
        <time>2021-08-17T15:53:42Z</time>
      </trkpt>
      <trkpt lat="44.50106" lon="2.93279">
        <ele>557.9</ele>
        <time>2021-08-17T15:53:44Z</time>
      </trkpt>
      <trkpt lat="44.50107" lon="2.93275">
        <ele>558.2</ele>
        <time>2021-08-17T15:53:46Z</time>
      </trkpt>
      <trkpt lat="44.50108" lon="2.9327">
        <ele>558.4</ele>
        <time>2021-08-17T15:53:48Z</time>
      </trkpt>
      <trkpt lat="44.50109" lon="2.93266">
        <ele>558.6</ele>
        <time>2021-08-17T15:53:50Z</time>
      </trkpt>
      <trkpt lat="44.5011" lon="2.93262">
        <ele>559</ele>
        <time>2021-08-17T15:53:52Z</time>
      </trkpt>
      <trkpt lat="44.50111" lon="2.93257">
        <ele>558.9</ele>
        <time>2021-08-17T15:53:54Z</time>
      </trkpt>
      <trkpt lat="44.50112" lon="2.93252">
        <ele>559.3</ele>
        <time>2021-08-17T15:53:56Z</time>
      </trkpt>
      <trkpt lat="44.50113" lon="2.93248">
        <ele>560.1</ele>
        <time>2021-08-17T15:53:58Z</time>
      </trkpt>
      <trkpt lat="44.50115" lon="2.93244">
        <ele>561.6</ele>
        <time>2021-08-17T15:54:00Z</time>
      </trkpt>
      <trkpt lat="44.50117" lon="2.93241">
        <ele>563</ele>
        <time>2021-08-17T15:54:02Z</time>
      </trkpt>
      <trkpt lat="44.50118" lon="2.93237">
        <ele>564</ele>
        <time>2021-08-17T15:54:04Z</time>
      </trkpt>
      <trkpt lat="44.50119" lon="2.93234">
        <ele>564.7</ele>
        <time>2021-08-17T15:54:06Z</time>
      </trkpt>
      <trkpt lat="44.50119" lon="2.93234">
        <ele>564.5</ele>
        <time>2021-08-17T15:54:08Z</time>
      </trkpt>
      <trkpt lat="44.5012" lon="2.93235">
        <ele>564.8</ele>
        <time>2021-08-17T15:54:10Z</time>
      </trkpt>
      <trkpt lat="44.5012" lon="2.93235">
        <ele>565.1</ele>
        <time>2021-08-17T15:54:12Z</time>
      </trkpt>
      <trkpt lat="44.50121" lon="2.93236">
        <ele>565.3</ele>
        <time>2021-08-17T15:54:14Z</time>
      </trkpt>
      <trkpt lat="44.50121" lon="2.93236">
        <ele>565.3</ele>
        <time>2021-08-17T15:54:16Z</time>
      </trkpt>
      <trkpt lat="44.50117" lon="2.93207">
        <ele>567.3</ele>
        <time>2021-08-17T16:00:24Z</time>
      </trkpt>
      <trkpt lat="44.50115" lon="2.93205">
        <ele>567.2</ele>
        <time>2021-08-17T16:00:26Z</time>
      </trkpt>
      <trkpt lat="44.50113" lon="2.93202">
        <ele>566.8</ele>
        <time>2021-08-17T16:00:28Z</time>
      </trkpt>
      <trkpt lat="44.50111" lon="2.93199">
        <ele>566.3</ele>
        <time>2021-08-17T16:00:30Z</time>
      </trkpt>
      <trkpt lat="44.50108" lon="2.93196">
        <ele>565.8</ele>
        <time>2021-08-17T16:00:32Z</time>
      </trkpt>
      <trkpt lat="44.50105" lon="2.93193">
        <ele>565.2</ele>
        <time>2021-08-17T16:00:34Z</time>
      </trkpt>
      <trkpt lat="44.50103" lon="2.93191">
        <ele>564.7</ele>
        <time>2021-08-17T16:00:36Z</time>
      </trkpt>
      <trkpt lat="44.50101" lon="2.93188">
        <ele>564.5</ele>
        <time>2021-08-17T16:00:38Z</time>
      </trkpt>
      <trkpt lat="44.50098" lon="2.93185">
        <ele>564.1</ele>
        <time>2021-08-17T16:00:40Z</time>
      </trkpt>
      <trkpt lat="44.50095" lon="2.93183">
        <ele>563.3</ele>
        <time>2021-08-17T16:00:42Z</time>
      </trkpt>
      <trkpt lat="44.50092" lon="2.93181">
        <ele>562.7</ele>
        <time>2021-08-17T16:00:44Z</time>
      </trkpt>
      <trkpt lat="44.50088" lon="2.93178">
        <ele>562.1</ele>
        <time>2021-08-17T16:00:46Z</time>
      </trkpt>
      <trkpt lat="44.50086" lon="2.93176">
        <ele>561.8</ele>
        <time>2021-08-17T16:00:48Z</time>
      </trkpt>
      <trkpt lat="44.50083" lon="2.93173">
        <ele>561.5</ele>
        <time>2021-08-17T16:00:50Z</time>
      </trkpt>
      <trkpt lat="44.5008" lon="2.9317">
        <ele>561.5</ele>
        <time>2021-08-17T16:00:52Z</time>
      </trkpt>
      <trkpt lat="44.50077" lon="2.93167">
        <ele>561.5</ele>
        <time>2021-08-17T16:00:54Z</time>
      </trkpt>
      <trkpt lat="44.50075" lon="2.93164">
        <ele>561.7</ele>
        <time>2021-08-17T16:00:56Z</time>
      </trkpt>
      <trkpt lat="44.50073" lon="2.9316">
        <ele>561.9</ele>
        <time>2021-08-17T16:00:58Z</time>
      </trkpt>
      <trkpt lat="44.50071" lon="2.93156">
        <ele>562.1</ele>
        <time>2021-08-17T16:01:00Z</time>
      </trkpt>
      <trkpt lat="44.50069" lon="2.93152">
        <ele>562.4</ele>
        <time>2021-08-17T16:01:02Z</time>
      </trkpt>
      <trkpt lat="44.50068" lon="2.93148">
        <ele>562.7</ele>
        <time>2021-08-17T16:01:04Z</time>
      </trkpt>
      <trkpt lat="44.50067" lon="2.93143">
        <ele>563.2</ele>
        <time>2021-08-17T16:01:06Z</time>
      </trkpt>
      <trkpt lat="44.50065" lon="2.93138">
        <ele>563.6</ele>
        <time>2021-08-17T16:01:08Z</time>
      </trkpt>
      <trkpt lat="44.50065" lon="2.93134">
        <ele>564.3</ele>
        <time>2021-08-17T16:01:10Z</time>
      </trkpt>
      <trkpt lat="44.50064" lon="2.93129">
        <ele>564.9</ele>
        <time>2021-08-17T16:01:12Z</time>
      </trkpt>
      <trkpt lat="44.50064" lon="2.93124">
        <ele>565.5</ele>
        <time>2021-08-17T16:01:14Z</time>
      </trkpt>
      <trkpt lat="44.50064" lon="2.93119">
        <ele>566.3</ele>
        <time>2021-08-17T16:01:16Z</time>
      </trkpt>
      <trkpt lat="44.50064" lon="2.93114">
        <ele>567.3</ele>
        <time>2021-08-17T16:01:18Z</time>
      </trkpt>
      <trkpt lat="44.50064" lon="2.93109">
        <ele>567.8</ele>
        <time>2021-08-17T16:01:20Z</time>
      </trkpt>
      <trkpt lat="44.50063" lon="2.93105">
        <ele>568.4</ele>
        <time>2021-08-17T16:01:22Z</time>
      </trkpt>
      <trkpt lat="44.50063" lon="2.931">
        <ele>569.3</ele>
        <time>2021-08-17T16:01:24Z</time>
      </trkpt>
      <trkpt lat="44.50063" lon="2.93094">
        <ele>570.2</ele>
        <time>2021-08-17T16:01:26Z</time>
      </trkpt>
      <trkpt lat="44.50063" lon="2.9309">
        <ele>570.8</ele>
        <time>2021-08-17T16:01:28Z</time>
      </trkpt>
      <trkpt lat="44.50063" lon="2.93085">
        <ele>571.5</ele>
        <time>2021-08-17T16:01:30Z</time>
      </trkpt>
      <trkpt lat="44.50064" lon="2.9308">
        <ele>572.2</ele>
        <time>2021-08-17T16:01:32Z</time>
      </trkpt>
      <trkpt lat="44.50064" lon="2.93076">
        <ele>572.4</ele>
        <time>2021-08-17T16:01:34Z</time>
      </trkpt>
      <trkpt lat="44.50064" lon="2.93071">
        <ele>572.9</ele>
        <time>2021-08-17T16:01:36Z</time>
      </trkpt>
      <trkpt lat="44.50064" lon="2.93066">
        <ele>573</ele>
        <time>2021-08-17T16:01:38Z</time>
      </trkpt>
      <trkpt lat="44.50064" lon="2.93061">
        <ele>573.4</ele>
        <time>2021-08-17T16:01:40Z</time>
      </trkpt>
      <trkpt lat="44.50065" lon="2.93056">
        <ele>574</ele>
        <time>2021-08-17T16:01:42Z</time>
      </trkpt>
      <trkpt lat="44.50065" lon="2.93051">
        <ele>574.1</ele>
        <time>2021-08-17T16:01:44Z</time>
      </trkpt>
      <trkpt lat="44.50066" lon="2.93047">
        <ele>574.9</ele>
        <time>2021-08-17T16:01:46Z</time>
      </trkpt>
      <trkpt lat="44.50066" lon="2.93042">
        <ele>575.3</ele>
        <time>2021-08-17T16:01:48Z</time>
      </trkpt>
      <trkpt lat="44.50067" lon="2.93037">
        <ele>575.8</ele>
        <time>2021-08-17T16:01:50Z</time>
      </trkpt>
      <trkpt lat="44.50068" lon="2.93033">
        <ele>576.6</ele>
        <time>2021-08-17T16:01:52Z</time>
      </trkpt>
      <trkpt lat="44.50069" lon="2.93029">
        <ele>577.2</ele>
        <time>2021-08-17T16:01:54Z</time>
      </trkpt>
      <trkpt lat="44.50069" lon="2.93024">
        <ele>577.5</ele>
        <time>2021-08-17T16:01:56Z</time>
      </trkpt>
      <trkpt lat="44.50069" lon="2.93019">
        <ele>577.7</ele>
        <time>2021-08-17T16:01:58Z</time>
      </trkpt>
      <trkpt lat="44.50069" lon="2.93015">
        <ele>578</ele>
        <time>2021-08-17T16:02:00Z</time>
      </trkpt>
      <trkpt lat="44.50069" lon="2.9301">
        <ele>578.3</ele>
        <time>2021-08-17T16:02:02Z</time>
      </trkpt>
      <trkpt lat="44.50068" lon="2.93005">
        <ele>578.2</ele>
        <time>2021-08-17T16:02:04Z</time>
      </trkpt>
      <trkpt lat="44.50068" lon="2.93">
        <ele>578.3</ele>
        <time>2021-08-17T16:02:06Z</time>
      </trkpt>
      <trkpt lat="44.50067" lon="2.92995">
        <ele>578.2</ele>
        <time>2021-08-17T16:02:08Z</time>
      </trkpt>
      <trkpt lat="44.50067" lon="2.9299">
        <ele>578.4</ele>
        <time>2021-08-17T16:02:10Z</time>
      </trkpt>
      <trkpt lat="44.50066" lon="2.92986">
        <ele>578.2</ele>
        <time>2021-08-17T16:02:12Z</time>
      </trkpt>
      <trkpt lat="44.50065" lon="2.92981">
        <ele>578</ele>
        <time>2021-08-17T16:02:14Z</time>
      </trkpt>
      <trkpt lat="44.50065" lon="2.92976">
        <ele>578.2</ele>
        <time>2021-08-17T16:02:16Z</time>
      </trkpt>
      <trkpt lat="44.50065" lon="2.92971">
        <ele>578.3</ele>
        <time>2021-08-17T16:02:18Z</time>
      </trkpt>
      <trkpt lat="44.50064" lon="2.92967">
        <ele>578.2</ele>
        <time>2021-08-17T16:02:20Z</time>
      </trkpt>
      <trkpt lat="44.50064" lon="2.92962">
        <ele>578.4</ele>
        <time>2021-08-17T16:02:22Z</time>
      </trkpt>
      <trkpt lat="44.50063" lon="2.92958">
        <ele>578.1</ele>
        <time>2021-08-17T16:02:24Z</time>
      </trkpt>
      <trkpt lat="44.50063" lon="2.92953">
        <ele>578.4</ele>
        <time>2021-08-17T16:02:26Z</time>
      </trkpt>
      <trkpt lat="44.50063" lon="2.92948">
        <ele>578.4</ele>
        <time>2021-08-17T16:02:28Z</time>
      </trkpt>
      <trkpt lat="44.50062" lon="2.92943">
        <ele>578.7</ele>
        <time>2021-08-17T16:02:30Z</time>
      </trkpt>
      <trkpt lat="44.50063" lon="2.92938">
        <ele>579</ele>
        <time>2021-08-17T16:02:32Z</time>
      </trkpt>
      <trkpt lat="44.50063" lon="2.92933">
        <ele>579.5</ele>
        <time>2021-08-17T16:02:34Z</time>
      </trkpt>
      <trkpt lat="44.50063" lon="2.92927">
        <ele>579.8</ele>
        <time>2021-08-17T16:02:36Z</time>
      </trkpt>
      <trkpt lat="44.50064" lon="2.92922">
        <ele>580.3</ele>
        <time>2021-08-17T16:02:38Z</time>
      </trkpt>
      <trkpt lat="44.50064" lon="2.92917">
        <ele>580.9</ele>
        <time>2021-08-17T16:02:40Z</time>
      </trkpt>
      <trkpt lat="44.50065" lon="2.92912">
        <ele>581.4</ele>
        <time>2021-08-17T16:02:42Z</time>
      </trkpt>
      <trkpt lat="44.50066" lon="2.92907">
        <ele>581.8</ele>
        <time>2021-08-17T16:02:44Z</time>
      </trkpt>
      <trkpt lat="44.50067" lon="2.92902">
        <ele>582.3</ele>
        <time>2021-08-17T16:02:46Z</time>
      </trkpt>
      <trkpt lat="44.50067" lon="2.92898">
        <ele>582.8</ele>
        <time>2021-08-17T16:02:48Z</time>
      </trkpt>
      <trkpt lat="44.50068" lon="2.92893">
        <ele>583.3</ele>
        <time>2021-08-17T16:02:50Z</time>
      </trkpt>
      <trkpt lat="44.50069" lon="2.92888">
        <ele>583.7</ele>
        <time>2021-08-17T16:02:52Z</time>
      </trkpt>
      <trkpt lat="44.50069" lon="2.92884">
        <ele>584</ele>
        <time>2021-08-17T16:02:54Z</time>
      </trkpt>
      <trkpt lat="44.50071" lon="2.92879">
        <ele>585</ele>
        <time>2021-08-17T16:02:56Z</time>
      </trkpt>
      <trkpt lat="44.50072" lon="2.92875">
        <ele>585.8</ele>
        <time>2021-08-17T16:02:58Z</time>
      </trkpt>
      <trkpt lat="44.50073" lon="2.9287">
        <ele>586.2</ele>
        <time>2021-08-17T16:03:00Z</time>
      </trkpt>
      <trkpt lat="44.50073" lon="2.92865">
        <ele>586.4</ele>
        <time>2021-08-17T16:03:02Z</time>
      </trkpt>
      <trkpt lat="44.50074" lon="2.92861">
        <ele>587.2</ele>
        <time>2021-08-17T16:03:04Z</time>
      </trkpt>
      <trkpt lat="44.50074" lon="2.92857">
        <ele>587.4</ele>
        <time>2021-08-17T16:03:06Z</time>
      </trkpt>
      <trkpt lat="44.50075" lon="2.92852">
        <ele>588.1</ele>
        <time>2021-08-17T16:03:08Z</time>
      </trkpt>
      <trkpt lat="44.50075" lon="2.92848">
        <ele>588.2</ele>
        <time>2021-08-17T16:03:10Z</time>
      </trkpt>
      <trkpt lat="44.50076" lon="2.92844">
        <ele>588.6</ele>
        <time>2021-08-17T16:03:12Z</time>
      </trkpt>
      <trkpt lat="44.50075" lon="2.92839">
        <ele>588.4</ele>
        <time>2021-08-17T16:03:14Z</time>
      </trkpt>
      <trkpt lat="44.50075" lon="2.92835">
        <ele>588.3</ele>
        <time>2021-08-17T16:03:16Z</time>
      </trkpt>
      <trkpt lat="44.50074" lon="2.92829">
        <ele>588.3</ele>
        <time>2021-08-17T16:03:18Z</time>
      </trkpt>
      <trkpt lat="44.50074" lon="2.92826">
        <ele>588.8</ele>
        <time>2021-08-17T16:03:20Z</time>
      </trkpt>
      <trkpt lat="44.50074" lon="2.92822">
        <ele>589.1</ele>
        <time>2021-08-17T16:03:22Z</time>
      </trkpt>
      <trkpt lat="44.50073" lon="2.92818">
        <ele>589</ele>
        <time>2021-08-17T16:03:24Z</time>
      </trkpt>
      <trkpt lat="44.50073" lon="2.92813">
        <ele>589</ele>
        <time>2021-08-17T16:03:26Z</time>
      </trkpt>
      <trkpt lat="44.50072" lon="2.92809">
        <ele>589.2</ele>
        <time>2021-08-17T16:03:28Z</time>
      </trkpt>
      <trkpt lat="44.5007" lon="2.92806">
        <ele>588.4</ele>
        <time>2021-08-17T16:03:30Z</time>
      </trkpt>
      <trkpt lat="44.50068" lon="2.92801">
        <ele>587.8</ele>
        <time>2021-08-17T16:03:32Z</time>
      </trkpt>
      <trkpt lat="44.50068" lon="2.92796">
        <ele>588.1</ele>
        <time>2021-08-17T16:03:34Z</time>
      </trkpt>
      <trkpt lat="44.50067" lon="2.92792">
        <ele>587.9</ele>
        <time>2021-08-17T16:03:36Z</time>
      </trkpt>
      <trkpt lat="44.50065" lon="2.92789">
        <ele>587.2</ele>
        <time>2021-08-17T16:03:38Z</time>
      </trkpt>
      <trkpt lat="44.50064" lon="2.92784">
        <ele>586.9</ele>
        <time>2021-08-17T16:03:40Z</time>
      </trkpt>
      <trkpt lat="44.50062" lon="2.9278">
        <ele>586.5</ele>
        <time>2021-08-17T16:03:42Z</time>
      </trkpt>
      <trkpt lat="44.50061" lon="2.92776">
        <ele>586.5</ele>
        <time>2021-08-17T16:03:44Z</time>
      </trkpt>
      <trkpt lat="44.5006" lon="2.92771">
        <ele>586.3</ele>
        <time>2021-08-17T16:03:46Z</time>
      </trkpt>
      <trkpt lat="44.50059" lon="2.92767">
        <ele>586</ele>
        <time>2021-08-17T16:03:48Z</time>
      </trkpt>
      <trkpt lat="44.50057" lon="2.92762">
        <ele>585.5</ele>
        <time>2021-08-17T16:03:50Z</time>
      </trkpt>
      <trkpt lat="44.50056" lon="2.92757">
        <ele>585.6</ele>
        <time>2021-08-17T16:03:52Z</time>
      </trkpt>
      <trkpt lat="44.50055" lon="2.92752">
        <ele>585.4</ele>
        <time>2021-08-17T16:03:54Z</time>
      </trkpt>
      <trkpt lat="44.50055" lon="2.92747">
        <ele>585.7</ele>
        <time>2021-08-17T16:03:56Z</time>
      </trkpt>
      <trkpt lat="44.50054" lon="2.92742">
        <ele>585.2</ele>
        <time>2021-08-17T16:03:58Z</time>
      </trkpt>
      <trkpt lat="44.50053" lon="2.92736">
        <ele>585.3</ele>
        <time>2021-08-17T16:04:00Z</time>
      </trkpt>
      <trkpt lat="44.50053" lon="2.92731">
        <ele>585.4</ele>
        <time>2021-08-17T16:04:02Z</time>
      </trkpt>
      <trkpt lat="44.50053" lon="2.92726">
        <ele>585.3</ele>
        <time>2021-08-17T16:04:04Z</time>
      </trkpt>
      <trkpt lat="44.50052" lon="2.9272">
        <ele>585.3</ele>
        <time>2021-08-17T16:04:06Z</time>
      </trkpt>
      <trkpt lat="44.50052" lon="2.92715">
        <ele>585.2</ele>
        <time>2021-08-17T16:04:08Z</time>
      </trkpt>
      <trkpt lat="44.50052" lon="2.9271">
        <ele>585.3</ele>
        <time>2021-08-17T16:04:10Z</time>
      </trkpt>
      <trkpt lat="44.50052" lon="2.92705">
        <ele>585.5</ele>
        <time>2021-08-17T16:04:12Z</time>
      </trkpt>
      <trkpt lat="44.50052" lon="2.927">
        <ele>585.9</ele>
        <time>2021-08-17T16:04:14Z</time>
      </trkpt>
      <trkpt lat="44.50053" lon="2.92695">
        <ele>586.5</ele>
        <time>2021-08-17T16:04:16Z</time>
      </trkpt>
      <trkpt lat="44.50054" lon="2.9269">
        <ele>587.2</ele>
        <time>2021-08-17T16:04:18Z</time>
      </trkpt>
      <trkpt lat="44.50055" lon="2.92686">
        <ele>587.7</ele>
        <time>2021-08-17T16:04:20Z</time>
      </trkpt>
      <trkpt lat="44.50056" lon="2.92681">
        <ele>588.2</ele>
        <time>2021-08-17T16:04:22Z</time>
      </trkpt>
      <trkpt lat="44.50057" lon="2.92677">
        <ele>589.2</ele>
        <time>2021-08-17T16:04:24Z</time>
      </trkpt>
      <trkpt lat="44.50058" lon="2.92671">
        <ele>589.9</ele>
        <time>2021-08-17T16:04:26Z</time>
      </trkpt>
      <trkpt lat="44.50059" lon="2.92667">
        <ele>590.4</ele>
        <time>2021-08-17T16:04:28Z</time>
      </trkpt>
      <trkpt lat="44.5006" lon="2.92663">
        <ele>591.1</ele>
        <time>2021-08-17T16:04:30Z</time>
      </trkpt>
      <trkpt lat="44.50062" lon="2.92657">
        <ele>591.7</ele>
        <time>2021-08-17T16:04:32Z</time>
      </trkpt>
      <trkpt lat="44.50062" lon="2.92652">
        <ele>592.1</ele>
        <time>2021-08-17T16:04:34Z</time>
      </trkpt>
      <trkpt lat="44.50063" lon="2.92648">
        <ele>592.6</ele>
        <time>2021-08-17T16:04:36Z</time>
      </trkpt>
      <trkpt lat="44.50064" lon="2.92643">
        <ele>593</ele>
        <time>2021-08-17T16:04:38Z</time>
      </trkpt>
      <trkpt lat="44.50064" lon="2.92638">
        <ele>593</ele>
        <time>2021-08-17T16:04:40Z</time>
      </trkpt>
      <trkpt lat="44.50065" lon="2.92634">
        <ele>593.5</ele>
        <time>2021-08-17T16:04:42Z</time>
      </trkpt>
      <trkpt lat="44.50065" lon="2.92629">
        <ele>593.8</ele>
        <time>2021-08-17T16:04:44Z</time>
      </trkpt>
      <trkpt lat="44.50066" lon="2.92624">
        <ele>594.2</ele>
        <time>2021-08-17T16:04:46Z</time>
      </trkpt>
      <trkpt lat="44.50066" lon="2.92619">
        <ele>594.4</ele>
        <time>2021-08-17T16:04:48Z</time>
      </trkpt>
      <trkpt lat="44.50066" lon="2.92614">
        <ele>594.5</ele>
        <time>2021-08-17T16:04:50Z</time>
      </trkpt>
      <trkpt lat="44.50066" lon="2.92609">
        <ele>594.6</ele>
        <time>2021-08-17T16:04:52Z</time>
      </trkpt>
      <trkpt lat="44.50066" lon="2.92604">
        <ele>594.6</ele>
        <time>2021-08-17T16:04:54Z</time>
      </trkpt>
      <trkpt lat="44.50067" lon="2.92599">
        <ele>594.9</ele>
        <time>2021-08-17T16:04:56Z</time>
      </trkpt>
      <trkpt lat="44.50067" lon="2.92594">
        <ele>595.2</ele>
        <time>2021-08-17T16:04:58Z</time>
      </trkpt>
      <trkpt lat="44.50067" lon="2.9259">
        <ele>595.5</ele>
        <time>2021-08-17T16:05:00Z</time>
      </trkpt>
      <trkpt lat="44.50068" lon="2.92585">
        <ele>595.6</ele>
        <time>2021-08-17T16:05:02Z</time>
      </trkpt>
      <trkpt lat="44.50068" lon="2.9258">
        <ele>595.9</ele>
        <time>2021-08-17T16:05:04Z</time>
      </trkpt>
      <trkpt lat="44.50068" lon="2.92575">
        <ele>596.4</ele>
        <time>2021-08-17T16:05:06Z</time>
      </trkpt>
      <trkpt lat="44.50068" lon="2.9257">
        <ele>596.8</ele>
        <time>2021-08-17T16:05:08Z</time>
      </trkpt>
      <trkpt lat="44.50068" lon="2.92565">
        <ele>597.1</ele>
        <time>2021-08-17T16:05:10Z</time>
      </trkpt>
      <trkpt lat="44.50069" lon="2.9256">
        <ele>597.8</ele>
        <time>2021-08-17T16:05:12Z</time>
      </trkpt>
      <trkpt lat="44.50069" lon="2.92555">
        <ele>598.3</ele>
        <time>2021-08-17T16:05:14Z</time>
      </trkpt>
      <trkpt lat="44.50069" lon="2.92549">
        <ele>598.7</ele>
        <time>2021-08-17T16:05:16Z</time>
      </trkpt>
      <trkpt lat="44.50069" lon="2.92544">
        <ele>599.2</ele>
        <time>2021-08-17T16:05:18Z</time>
      </trkpt>
      <trkpt lat="44.50069" lon="2.92539">
        <ele>599.6</ele>
        <time>2021-08-17T16:05:20Z</time>
      </trkpt>
      <trkpt lat="44.50069" lon="2.92534">
        <ele>600.1</ele>
        <time>2021-08-17T16:05:22Z</time>
      </trkpt>
      <trkpt lat="44.50069" lon="2.92529">
        <ele>600.4</ele>
        <time>2021-08-17T16:05:24Z</time>
      </trkpt>
      <trkpt lat="44.50069" lon="2.92525">
        <ele>600.7</ele>
        <time>2021-08-17T16:05:26Z</time>
      </trkpt>
      <trkpt lat="44.50069" lon="2.9252">
        <ele>600.8</ele>
        <time>2021-08-17T16:05:28Z</time>
      </trkpt>
      <trkpt lat="44.50069" lon="2.92515">
        <ele>601.1</ele>
        <time>2021-08-17T16:05:30Z</time>
      </trkpt>
      <trkpt lat="44.50068" lon="2.9251">
        <ele>601.4</ele>
        <time>2021-08-17T16:05:32Z</time>
      </trkpt>
      <trkpt lat="44.50068" lon="2.92505">
        <ele>601.3</ele>
        <time>2021-08-17T16:05:34Z</time>
      </trkpt>
      <trkpt lat="44.50067" lon="2.925">
        <ele>601.4</ele>
        <time>2021-08-17T16:05:36Z</time>
      </trkpt>
      <trkpt lat="44.50067" lon="2.92495">
        <ele>601.6</ele>
        <time>2021-08-17T16:05:38Z</time>
      </trkpt>
      <trkpt lat="44.50066" lon="2.92491">
        <ele>601.6</ele>
        <time>2021-08-17T16:05:40Z</time>
      </trkpt>
      <trkpt lat="44.50065" lon="2.92486">
        <ele>601.8</ele>
        <time>2021-08-17T16:05:42Z</time>
      </trkpt>
      <trkpt lat="44.50065" lon="2.92481">
        <ele>602</ele>
        <time>2021-08-17T16:05:44Z</time>
      </trkpt>
      <trkpt lat="44.50064" lon="2.92476">
        <ele>602.4</ele>
        <time>2021-08-17T16:05:46Z</time>
      </trkpt>
      <trkpt lat="44.50063" lon="2.92471">
        <ele>602.3</ele>
        <time>2021-08-17T16:05:48Z</time>
      </trkpt>
      <trkpt lat="44.50062" lon="2.92466">
        <ele>602.5</ele>
        <time>2021-08-17T16:05:50Z</time>
      </trkpt>
      <trkpt lat="44.50061" lon="2.92462">
        <ele>602.5</ele>
        <time>2021-08-17T16:05:52Z</time>
      </trkpt>
      <trkpt lat="44.5006" lon="2.92457">
        <ele>602.4</ele>
        <time>2021-08-17T16:05:54Z</time>
      </trkpt>
      <trkpt lat="44.50059" lon="2.92453">
        <ele>602.5</ele>
        <time>2021-08-17T16:05:56Z</time>
      </trkpt>
      <trkpt lat="44.50059" lon="2.92447">
        <ele>602.8</ele>
        <time>2021-08-17T16:05:58Z</time>
      </trkpt>
      <trkpt lat="44.50057" lon="2.92443">
        <ele>602.4</ele>
        <time>2021-08-17T16:06:00Z</time>
      </trkpt>
      <trkpt lat="44.50056" lon="2.92438">
        <ele>602.7</ele>
        <time>2021-08-17T16:06:02Z</time>
      </trkpt>
      <trkpt lat="44.50055" lon="2.92433">
        <ele>602.6</ele>
        <time>2021-08-17T16:06:04Z</time>
      </trkpt>
      <trkpt lat="44.50054" lon="2.92429">
        <ele>602.6</ele>
        <time>2021-08-17T16:06:06Z</time>
      </trkpt>
      <trkpt lat="44.50053" lon="2.92424">
        <ele>602.6</ele>
        <time>2021-08-17T16:06:08Z</time>
      </trkpt>
      <trkpt lat="44.50051" lon="2.92419">
        <ele>602.6</ele>
        <time>2021-08-17T16:06:10Z</time>
      </trkpt>
      <trkpt lat="44.5005" lon="2.92414">
        <ele>602.7</ele>
        <time>2021-08-17T16:06:12Z</time>
      </trkpt>
      <trkpt lat="44.5005" lon="2.92409">
        <ele>603.2</ele>
        <time>2021-08-17T16:06:14Z</time>
      </trkpt>
      <trkpt lat="44.50049" lon="2.92404">
        <ele>603.4</ele>
        <time>2021-08-17T16:06:16Z</time>
      </trkpt>
      <trkpt lat="44.50047" lon="2.924">
        <ele>603.4</ele>
        <time>2021-08-17T16:06:18Z</time>
      </trkpt>
      <trkpt lat="44.50046" lon="2.92395">
        <ele>603.7</ele>
        <time>2021-08-17T16:06:20Z</time>
      </trkpt>
      <trkpt lat="44.50044" lon="2.92391">
        <ele>603.9</ele>
        <time>2021-08-17T16:06:22Z</time>
      </trkpt>
      <trkpt lat="44.50043" lon="2.92386">
        <ele>604.2</ele>
        <time>2021-08-17T16:06:24Z</time>
      </trkpt>
      <trkpt lat="44.50042" lon="2.92381">
        <ele>604.5</ele>
        <time>2021-08-17T16:06:26Z</time>
      </trkpt>
      <trkpt lat="44.50041" lon="2.92376">
        <ele>605.2</ele>
        <time>2021-08-17T16:06:28Z</time>
      </trkpt>
      <trkpt lat="44.50039" lon="2.92371">
        <ele>605.5</ele>
        <time>2021-08-17T16:06:30Z</time>
      </trkpt>
      <trkpt lat="44.50038" lon="2.92367">
        <ele>605.8</ele>
        <time>2021-08-17T16:06:32Z</time>
      </trkpt>
      <trkpt lat="44.50037" lon="2.92362">
        <ele>606.3</ele>
        <time>2021-08-17T16:06:34Z</time>
      </trkpt>
      <trkpt lat="44.50035" lon="2.92358">
        <ele>606.5</ele>
        <time>2021-08-17T16:06:36Z</time>
      </trkpt>
      <trkpt lat="44.50034" lon="2.92353">
        <ele>607</ele>
        <time>2021-08-17T16:06:38Z</time>
      </trkpt>
      <trkpt lat="44.50032" lon="2.92349">
        <ele>607.4</ele>
        <time>2021-08-17T16:06:40Z</time>
      </trkpt>
      <trkpt lat="44.50031" lon="2.92344">
        <ele>607.9</ele>
        <time>2021-08-17T16:06:42Z</time>
      </trkpt>
      <trkpt lat="44.50028" lon="2.9234">
        <ele>608.1</ele>
        <time>2021-08-17T16:06:44Z</time>
      </trkpt>
      <trkpt lat="44.50026" lon="2.92336">
        <ele>608.4</ele>
        <time>2021-08-17T16:06:46Z</time>
      </trkpt>
      <trkpt lat="44.50025" lon="2.92332">
        <ele>608.7</ele>
        <time>2021-08-17T16:06:48Z</time>
      </trkpt>
      <trkpt lat="44.50022" lon="2.92328">
        <ele>608.5</ele>
        <time>2021-08-17T16:06:50Z</time>
      </trkpt>
      <trkpt lat="44.5002" lon="2.92325">
        <ele>608.3</ele>
        <time>2021-08-17T16:06:52Z</time>
      </trkpt>
      <trkpt lat="44.50017" lon="2.92321">
        <ele>608.1</ele>
        <time>2021-08-17T16:06:54Z</time>
      </trkpt>
      <trkpt lat="44.50014" lon="2.92318">
        <ele>607.9</ele>
        <time>2021-08-17T16:06:56Z</time>
      </trkpt>
      <trkpt lat="44.50012" lon="2.92314">
        <ele>607.8</ele>
        <time>2021-08-17T16:06:58Z</time>
      </trkpt>
      <trkpt lat="44.5001" lon="2.92311">
        <ele>607.8</ele>
        <time>2021-08-17T16:07:00Z</time>
      </trkpt>
      <trkpt lat="44.50007" lon="2.92308">
        <ele>607.7</ele>
        <time>2021-08-17T16:07:02Z</time>
      </trkpt>
      <trkpt lat="44.50005" lon="2.92304">
        <ele>607.8</ele>
        <time>2021-08-17T16:07:04Z</time>
      </trkpt>
      <trkpt lat="44.50003" lon="2.923">
        <ele>608</ele>
        <time>2021-08-17T16:07:06Z</time>
      </trkpt>
      <trkpt lat="44.50002" lon="2.92297">
        <ele>608.1</ele>
        <time>2021-08-17T16:07:08Z</time>
      </trkpt>
      <trkpt lat="44.5" lon="2.92293">
        <ele>608.3</ele>
        <time>2021-08-17T16:07:10Z</time>
      </trkpt>
      <trkpt lat="44.49998" lon="2.92289">
        <ele>608.3</ele>
        <time>2021-08-17T16:07:12Z</time>
      </trkpt>
      <trkpt lat="44.49996" lon="2.92285">
        <ele>608.3</ele>
        <time>2021-08-17T16:07:14Z</time>
      </trkpt>
      <trkpt lat="44.49995" lon="2.92282">
        <ele>608.2</ele>
        <time>2021-08-17T16:07:16Z</time>
      </trkpt>
      <trkpt lat="44.49993" lon="2.92278">
        <ele>608.4</ele>
        <time>2021-08-17T16:07:18Z</time>
      </trkpt>
      <trkpt lat="44.49991" lon="2.92275">
        <ele>608.4</ele>
        <time>2021-08-17T16:07:20Z</time>
      </trkpt>
      <trkpt lat="44.4999" lon="2.9227">
        <ele>608.8</ele>
        <time>2021-08-17T16:07:22Z</time>
      </trkpt>
      <trkpt lat="44.49989" lon="2.92265">
        <ele>609.5</ele>
        <time>2021-08-17T16:07:24Z</time>
      </trkpt>
      <trkpt lat="44.49989" lon="2.92259">
        <ele>610.2</ele>
        <time>2021-08-17T16:07:26Z</time>
      </trkpt>
      <trkpt lat="44.49989" lon="2.92254">
        <ele>611.2</ele>
        <time>2021-08-17T16:07:28Z</time>
      </trkpt>
      <trkpt lat="44.49989" lon="2.92248">
        <ele>611.8</ele>
        <time>2021-08-17T16:07:30Z</time>
      </trkpt>
      <trkpt lat="44.4999" lon="2.92243">
        <ele>612</ele>
        <time>2021-08-17T16:07:32Z</time>
      </trkpt>
      <trkpt lat="44.49992" lon="2.92238">
        <ele>612.3</ele>
        <time>2021-08-17T16:07:34Z</time>
      </trkpt>
      <trkpt lat="44.49993" lon="2.92233">
        <ele>612.6</ele>
        <time>2021-08-17T16:07:36Z</time>
      </trkpt>
      <trkpt lat="44.49995" lon="2.92229">
        <ele>612.9</ele>
        <time>2021-08-17T16:07:38Z</time>
      </trkpt>
      <trkpt lat="44.49997" lon="2.92225">
        <ele>613.3</ele>
        <time>2021-08-17T16:07:40Z</time>
      </trkpt>
      <trkpt lat="44.5" lon="2.92221">
        <ele>613.6</ele>
        <time>2021-08-17T16:07:42Z</time>
      </trkpt>
      <trkpt lat="44.50003" lon="2.92218">
        <ele>613.8</ele>
        <time>2021-08-17T16:07:44Z</time>
      </trkpt>
      <trkpt lat="44.50006" lon="2.92215">
        <ele>614</ele>
        <time>2021-08-17T16:07:46Z</time>
      </trkpt>
      <trkpt lat="44.50009" lon="2.92213">
        <ele>614.1</ele>
        <time>2021-08-17T16:07:48Z</time>
      </trkpt>
      <trkpt lat="44.50013" lon="2.92212">
        <ele>614.3</ele>
        <time>2021-08-17T16:07:50Z</time>
      </trkpt>
      <trkpt lat="44.50016" lon="2.92211">
        <ele>614.5</ele>
        <time>2021-08-17T16:07:52Z</time>
      </trkpt>
      <trkpt lat="44.5002" lon="2.9221">
        <ele>614.7</ele>
        <time>2021-08-17T16:07:54Z</time>
      </trkpt>
      <trkpt lat="44.50024" lon="2.92209">
        <ele>614.9</ele>
        <time>2021-08-17T16:07:56Z</time>
      </trkpt>
      <trkpt lat="44.50028" lon="2.92209">
        <ele>615.2</ele>
        <time>2021-08-17T16:07:58Z</time>
      </trkpt>
      <trkpt lat="44.50031" lon="2.92209">
        <ele>615.4</ele>
        <time>2021-08-17T16:08:00Z</time>
      </trkpt>
      <trkpt lat="44.50035" lon="2.92209">
        <ele>615.6</ele>
        <time>2021-08-17T16:08:02Z</time>
      </trkpt>
      <trkpt lat="44.50038" lon="2.9221">
        <ele>615.8</ele>
        <time>2021-08-17T16:08:04Z</time>
      </trkpt>
      <trkpt lat="44.50041" lon="2.92211">
        <ele>616.1</ele>
        <time>2021-08-17T16:08:06Z</time>
      </trkpt>
      <trkpt lat="44.50045" lon="2.92211">
        <ele>616.3</ele>
        <time>2021-08-17T16:08:08Z</time>
      </trkpt>
      <trkpt lat="44.50048" lon="2.92212">
        <ele>616.6</ele>
        <time>2021-08-17T16:08:10Z</time>
      </trkpt>
      <trkpt lat="44.50051" lon="2.92213">
        <ele>616.8</ele>
        <time>2021-08-17T16:08:12Z</time>
      </trkpt>
      <trkpt lat="44.50054" lon="2.92214">
        <ele>617</ele>
        <time>2021-08-17T16:08:14Z</time>
      </trkpt>
      <trkpt lat="44.50058" lon="2.92214">
        <ele>617.2</ele>
        <time>2021-08-17T16:08:16Z</time>
      </trkpt>
      <trkpt lat="44.50061" lon="2.92215">
        <ele>617.5</ele>
        <time>2021-08-17T16:08:18Z</time>
      </trkpt>
      <trkpt lat="44.50065" lon="2.92216">
        <ele>617.8</ele>
        <time>2021-08-17T16:08:20Z</time>
      </trkpt>
      <trkpt lat="44.50068" lon="2.92217">
        <ele>618</ele>
        <time>2021-08-17T16:08:22Z</time>
      </trkpt>
      <trkpt lat="44.50072" lon="2.92218">
        <ele>618.3</ele>
        <time>2021-08-17T16:08:24Z</time>
      </trkpt>
      <trkpt lat="44.50075" lon="2.92218">
        <ele>618.6</ele>
        <time>2021-08-17T16:08:26Z</time>
      </trkpt>
      <trkpt lat="44.50079" lon="2.92219">
        <ele>618.8</ele>
        <time>2021-08-17T16:08:28Z</time>
      </trkpt>
      <trkpt lat="44.50082" lon="2.92219">
        <ele>619.1</ele>
        <time>2021-08-17T16:08:30Z</time>
      </trkpt>
      <trkpt lat="44.50086" lon="2.9222">
        <ele>619.3</ele>
        <time>2021-08-17T16:08:32Z</time>
      </trkpt>
      <trkpt lat="44.5009" lon="2.92221">
        <ele>619.5</ele>
        <time>2021-08-17T16:08:34Z</time>
      </trkpt>
      <trkpt lat="44.50093" lon="2.92222">
        <ele>619.6</ele>
        <time>2021-08-17T16:08:36Z</time>
      </trkpt>
      <trkpt lat="44.50097" lon="2.92222">
        <ele>619.8</ele>
        <time>2021-08-17T16:08:38Z</time>
      </trkpt>
      <trkpt lat="44.501" lon="2.92223">
        <ele>619.9</ele>
        <time>2021-08-17T16:08:40Z</time>
      </trkpt>
      <trkpt lat="44.50103" lon="2.92223">
        <ele>620</ele>
        <time>2021-08-17T16:08:42Z</time>
      </trkpt>
      <trkpt lat="44.50107" lon="2.92224">
        <ele>620.2</ele>
        <time>2021-08-17T16:08:44Z</time>
      </trkpt>
      <trkpt lat="44.5011" lon="2.92225">
        <ele>620.3</ele>
        <time>2021-08-17T16:08:46Z</time>
      </trkpt>
      <trkpt lat="44.50113" lon="2.92226">
        <ele>620.5</ele>
        <time>2021-08-17T16:08:48Z</time>
      </trkpt>
      <trkpt lat="44.50116" lon="2.92226">
        <ele>620.7</ele>
        <time>2021-08-17T16:08:50Z</time>
      </trkpt>
      <trkpt lat="44.5012" lon="2.92227">
        <ele>620.8</ele>
        <time>2021-08-17T16:08:52Z</time>
      </trkpt>
      <trkpt lat="44.50124" lon="2.92228">
        <ele>621</ele>
        <time>2021-08-17T16:08:54Z</time>
      </trkpt>
      <trkpt lat="44.50128" lon="2.92228">
        <ele>621.1</ele>
        <time>2021-08-17T16:08:56Z</time>
      </trkpt>
      <trkpt lat="44.50132" lon="2.92229">
        <ele>621.4</ele>
        <time>2021-08-17T16:08:58Z</time>
      </trkpt>
      <trkpt lat="44.50136" lon="2.9223">
        <ele>621.6</ele>
        <time>2021-08-17T16:09:00Z</time>
      </trkpt>
      <trkpt lat="44.5014" lon="2.92231">
        <ele>621.7</ele>
        <time>2021-08-17T16:09:02Z</time>
      </trkpt>
      <trkpt lat="44.50144" lon="2.92232">
        <ele>621.9</ele>
        <time>2021-08-17T16:09:04Z</time>
      </trkpt>
      <trkpt lat="44.50148" lon="2.92233">
        <ele>622.1</ele>
        <time>2021-08-17T16:09:06Z</time>
      </trkpt>
      <trkpt lat="44.50152" lon="2.92233">
        <ele>622.3</ele>
        <time>2021-08-17T16:09:08Z</time>
      </trkpt>
      <trkpt lat="44.50156" lon="2.92234">
        <ele>622.5</ele>
        <time>2021-08-17T16:09:10Z</time>
      </trkpt>
      <trkpt lat="44.5016" lon="2.92235">
        <ele>622.7</ele>
        <time>2021-08-17T16:09:12Z</time>
      </trkpt>
      <trkpt lat="44.50164" lon="2.92236">
        <ele>622.9</ele>
        <time>2021-08-17T16:09:14Z</time>
      </trkpt>
      <trkpt lat="44.50168" lon="2.92236">
        <ele>623</ele>
        <time>2021-08-17T16:09:16Z</time>
      </trkpt>
      <trkpt lat="44.50172" lon="2.92238">
        <ele>623.2</ele>
        <time>2021-08-17T16:09:18Z</time>
      </trkpt>
      <trkpt lat="44.50176" lon="2.9224">
        <ele>623.4</ele>
        <time>2021-08-17T16:09:20Z</time>
      </trkpt>
      <trkpt lat="44.5018" lon="2.92241">
        <ele>623.5</ele>
        <time>2021-08-17T16:09:22Z</time>
      </trkpt>
      <trkpt lat="44.50184" lon="2.92243">
        <ele>623.6</ele>
        <time>2021-08-17T16:09:24Z</time>
      </trkpt>
      <trkpt lat="44.50188" lon="2.92245">
        <ele>623.8</ele>
        <time>2021-08-17T16:09:26Z</time>
      </trkpt>
      <trkpt lat="44.50192" lon="2.92247">
        <ele>623.9</ele>
        <time>2021-08-17T16:09:28Z</time>
      </trkpt>
      <trkpt lat="44.50196" lon="2.92249">
        <ele>624</ele>
        <time>2021-08-17T16:09:30Z</time>
      </trkpt>
      <trkpt lat="44.50199" lon="2.92251">
        <ele>624.1</ele>
        <time>2021-08-17T16:09:32Z</time>
      </trkpt>
      <trkpt lat="44.50202" lon="2.92252">
        <ele>624.3</ele>
        <time>2021-08-17T16:09:34Z</time>
      </trkpt>
      <trkpt lat="44.50206" lon="2.92255">
        <ele>624.6</ele>
        <time>2021-08-17T16:09:36Z</time>
      </trkpt>
      <trkpt lat="44.5021" lon="2.92257">
        <ele>624.8</ele>
        <time>2021-08-17T16:09:38Z</time>
      </trkpt>
      <trkpt lat="44.50214" lon="2.92259">
        <ele>625.2</ele>
        <time>2021-08-17T16:09:40Z</time>
      </trkpt>
      <trkpt lat="44.50218" lon="2.92262">
        <ele>625.4</ele>
        <time>2021-08-17T16:09:42Z</time>
      </trkpt>
      <trkpt lat="44.50222" lon="2.92263">
        <ele>625.7</ele>
        <time>2021-08-17T16:09:44Z</time>
      </trkpt>
      <trkpt lat="44.50225" lon="2.92266">
        <ele>626</ele>
        <time>2021-08-17T16:09:46Z</time>
      </trkpt>
      <trkpt lat="44.50229" lon="2.92268">
        <ele>626.3</ele>
        <time>2021-08-17T16:09:48Z</time>
      </trkpt>
      <trkpt lat="44.50233" lon="2.9227">
        <ele>626.6</ele>
        <time>2021-08-17T16:09:50Z</time>
      </trkpt>
      <trkpt lat="44.50236" lon="2.92272">
        <ele>626.8</ele>
        <time>2021-08-17T16:09:52Z</time>
      </trkpt>
      <trkpt lat="44.5024" lon="2.92274">
        <ele>627.1</ele>
        <time>2021-08-17T16:09:54Z</time>
      </trkpt>
      <trkpt lat="44.50243" lon="2.92277">
        <ele>627.5</ele>
        <time>2021-08-17T16:09:56Z</time>
      </trkpt>
      <trkpt lat="44.50247" lon="2.92279">
        <ele>627.8</ele>
        <time>2021-08-17T16:09:58Z</time>
      </trkpt>
      <trkpt lat="44.50251" lon="2.92281">
        <ele>628.1</ele>
        <time>2021-08-17T16:10:00Z</time>
      </trkpt>
      <trkpt lat="44.50254" lon="2.92283">
        <ele>628.6</ele>
        <time>2021-08-17T16:10:02Z</time>
      </trkpt>
      <trkpt lat="44.50258" lon="2.92285">
        <ele>629</ele>
        <time>2021-08-17T16:10:04Z</time>
      </trkpt>
      <trkpt lat="44.50261" lon="2.92288">
        <ele>629.5</ele>
        <time>2021-08-17T16:10:06Z</time>
      </trkpt>
      <trkpt lat="44.50265" lon="2.9229">
        <ele>629.9</ele>
        <time>2021-08-17T16:10:08Z</time>
      </trkpt>
      <trkpt lat="44.50269" lon="2.92292">
        <ele>630.3</ele>
        <time>2021-08-17T16:10:10Z</time>
      </trkpt>
      <trkpt lat="44.50272" lon="2.92294">
        <ele>630.6</ele>
        <time>2021-08-17T16:10:12Z</time>
      </trkpt>
      <trkpt lat="44.50276" lon="2.92296">
        <ele>631</ele>
        <time>2021-08-17T16:10:14Z</time>
      </trkpt>
      <trkpt lat="44.50279" lon="2.92298">
        <ele>631.3</ele>
        <time>2021-08-17T16:10:16Z</time>
      </trkpt>
      <trkpt lat="44.50282" lon="2.923">
        <ele>631.6</ele>
        <time>2021-08-17T16:10:18Z</time>
      </trkpt>
      <trkpt lat="44.50286" lon="2.92302">
        <ele>631.9</ele>
        <time>2021-08-17T16:10:20Z</time>
      </trkpt>
      <trkpt lat="44.50289" lon="2.92304">
        <ele>632.1</ele>
        <time>2021-08-17T16:10:22Z</time>
      </trkpt>
      <trkpt lat="44.50292" lon="2.92306">
        <ele>632.4</ele>
        <time>2021-08-17T16:10:24Z</time>
      </trkpt>
      <trkpt lat="44.50295" lon="2.92308">
        <ele>632.6</ele>
        <time>2021-08-17T16:10:26Z</time>
      </trkpt>
      <trkpt lat="44.50299" lon="2.92309">
        <ele>632.8</ele>
        <time>2021-08-17T16:10:28Z</time>
      </trkpt>
      <trkpt lat="44.50302" lon="2.92311">
        <ele>633</ele>
        <time>2021-08-17T16:10:30Z</time>
      </trkpt>
      <trkpt lat="44.50305" lon="2.92313">
        <ele>633.1</ele>
        <time>2021-08-17T16:10:32Z</time>
      </trkpt>
      <trkpt lat="44.50309" lon="2.92315">
        <ele>633.3</ele>
        <time>2021-08-17T16:10:34Z</time>
      </trkpt>
      <trkpt lat="44.50312" lon="2.92316">
        <ele>633.4</ele>
        <time>2021-08-17T16:10:36Z</time>
      </trkpt>
      <trkpt lat="44.50315" lon="2.92318">
        <ele>633.5</ele>
        <time>2021-08-17T16:10:38Z</time>
      </trkpt>
      <trkpt lat="44.50319" lon="2.92319">
        <ele>633.6</ele>
        <time>2021-08-17T16:10:40Z</time>
      </trkpt>
      <trkpt lat="44.50322" lon="2.92321">
        <ele>633.7</ele>
        <time>2021-08-17T16:10:42Z</time>
      </trkpt>
      <trkpt lat="44.50325" lon="2.92322">
        <ele>633.7</ele>
        <time>2021-08-17T16:10:44Z</time>
      </trkpt>
      <trkpt lat="44.50329" lon="2.92323">
        <ele>633.7</ele>
        <time>2021-08-17T16:10:46Z</time>
      </trkpt>
      <trkpt lat="44.50332" lon="2.92324">
        <ele>633.8</ele>
        <time>2021-08-17T16:10:48Z</time>
      </trkpt>
      <trkpt lat="44.50336" lon="2.92325">
        <ele>634</ele>
        <time>2021-08-17T16:10:50Z</time>
      </trkpt>
      <trkpt lat="44.50339" lon="2.92326">
        <ele>634.3</ele>
        <time>2021-08-17T16:10:52Z</time>
      </trkpt>
      <trkpt lat="44.50343" lon="2.92327">
        <ele>634.5</ele>
        <time>2021-08-17T16:10:54Z</time>
      </trkpt>
      <trkpt lat="44.50347" lon="2.92328">
        <ele>634.8</ele>
        <time>2021-08-17T16:10:56Z</time>
      </trkpt>
      <trkpt lat="44.5035" lon="2.92328">
        <ele>635.1</ele>
        <time>2021-08-17T16:10:58Z</time>
      </trkpt>
      <trkpt lat="44.50354" lon="2.92329">
        <ele>635.3</ele>
        <time>2021-08-17T16:11:00Z</time>
      </trkpt>
      <trkpt lat="44.50357" lon="2.92329">
        <ele>635.6</ele>
        <time>2021-08-17T16:11:02Z</time>
      </trkpt>
      <trkpt lat="44.50361" lon="2.92329">
        <ele>635.9</ele>
        <time>2021-08-17T16:11:04Z</time>
      </trkpt>
      <trkpt lat="44.50364" lon="2.9233">
        <ele>636.1</ele>
        <time>2021-08-17T16:11:06Z</time>
      </trkpt>
      <trkpt lat="44.50368" lon="2.9233">
        <ele>636.4</ele>
        <time>2021-08-17T16:11:08Z</time>
      </trkpt>
      <trkpt lat="44.50372" lon="2.9233">
        <ele>636.7</ele>
        <time>2021-08-17T16:11:10Z</time>
      </trkpt>
      <trkpt lat="44.50375" lon="2.92332">
        <ele>637</ele>
        <time>2021-08-17T16:11:12Z</time>
      </trkpt>
      <trkpt lat="44.5038" lon="2.92331">
        <ele>637.3</ele>
        <time>2021-08-17T16:11:14Z</time>
      </trkpt>
      <trkpt lat="44.50384" lon="2.92331">
        <ele>637.6</ele>
        <time>2021-08-17T16:11:16Z</time>
      </trkpt>
      <trkpt lat="44.50387" lon="2.92331">
        <ele>637.8</ele>
        <time>2021-08-17T16:11:18Z</time>
      </trkpt>
      <trkpt lat="44.50391" lon="2.92331">
        <ele>638.1</ele>
        <time>2021-08-17T16:11:20Z</time>
      </trkpt>
      <trkpt lat="44.50395" lon="2.92331">
        <ele>638.4</ele>
        <time>2021-08-17T16:11:22Z</time>
      </trkpt>
      <trkpt lat="44.50399" lon="2.92331">
        <ele>638.7</ele>
        <time>2021-08-17T16:11:24Z</time>
      </trkpt>
      <trkpt lat="44.50403" lon="2.92332">
        <ele>639</ele>
        <time>2021-08-17T16:11:26Z</time>
      </trkpt>
      <trkpt lat="44.50407" lon="2.92331">
        <ele>639.3</ele>
        <time>2021-08-17T16:11:28Z</time>
      </trkpt>
      <trkpt lat="44.50411" lon="2.92332">
        <ele>639.6</ele>
        <time>2021-08-17T16:11:30Z</time>
      </trkpt>
      <trkpt lat="44.50415" lon="2.92332">
        <ele>639.9</ele>
        <time>2021-08-17T16:11:32Z</time>
      </trkpt>
      <trkpt lat="44.50419" lon="2.92333">
        <ele>640</ele>
        <time>2021-08-17T16:11:34Z</time>
      </trkpt>
      <trkpt lat="44.50422" lon="2.92334">
        <ele>640</ele>
        <time>2021-08-17T16:11:36Z</time>
      </trkpt>
      <trkpt lat="44.50426" lon="2.92334">
        <ele>640</ele>
        <time>2021-08-17T16:11:38Z</time>
      </trkpt>
      <trkpt lat="44.5043" lon="2.92335">
        <ele>640</ele>
        <time>2021-08-17T16:11:40Z</time>
      </trkpt>
      <trkpt lat="44.50434" lon="2.92336">
        <ele>640</ele>
        <time>2021-08-17T16:11:42Z</time>
      </trkpt>
      <trkpt lat="44.50438" lon="2.92337">
        <ele>640.1</ele>
        <time>2021-08-17T16:11:44Z</time>
      </trkpt>
      <trkpt lat="44.50442" lon="2.92338">
        <ele>640.2</ele>
        <time>2021-08-17T16:11:46Z</time>
      </trkpt>
      <trkpt lat="44.50446" lon="2.92339">
        <ele>640.4</ele>
        <time>2021-08-17T16:11:48Z</time>
      </trkpt>
      <trkpt lat="44.5045" lon="2.9234">
        <ele>640.5</ele>
        <time>2021-08-17T16:11:50Z</time>
      </trkpt>
      <trkpt lat="44.50454" lon="2.92342">
        <ele>640.7</ele>
        <time>2021-08-17T16:11:52Z</time>
      </trkpt>
      <trkpt lat="44.50458" lon="2.92343">
        <ele>640.8</ele>
        <time>2021-08-17T16:11:54Z</time>
      </trkpt>
      <trkpt lat="44.50462" lon="2.92345">
        <ele>641.1</ele>
        <time>2021-08-17T16:11:56Z</time>
      </trkpt>
      <trkpt lat="44.50466" lon="2.92347">
        <ele>641.3</ele>
        <time>2021-08-17T16:11:58Z</time>
      </trkpt>
      <trkpt lat="44.50469" lon="2.92348">
        <ele>641.5</ele>
        <time>2021-08-17T16:12:00Z</time>
      </trkpt>
      <trkpt lat="44.50473" lon="2.92351">
        <ele>642</ele>
        <time>2021-08-17T16:12:02Z</time>
      </trkpt>
      <trkpt lat="44.50477" lon="2.92352">
        <ele>642.2</ele>
        <time>2021-08-17T16:12:04Z</time>
      </trkpt>
      <trkpt lat="44.5048" lon="2.92354">
        <ele>642.6</ele>
        <time>2021-08-17T16:12:06Z</time>
      </trkpt>
      <trkpt lat="44.50484" lon="2.92357">
        <ele>643</ele>
        <time>2021-08-17T16:12:08Z</time>
      </trkpt>
      <trkpt lat="44.50488" lon="2.92359">
        <ele>643.4</ele>
        <time>2021-08-17T16:12:10Z</time>
      </trkpt>
      <trkpt lat="44.50492" lon="2.92361">
        <ele>643.9</ele>
        <time>2021-08-17T16:12:12Z</time>
      </trkpt>
      <trkpt lat="44.50496" lon="2.92364">
        <ele>644.4</ele>
        <time>2021-08-17T16:12:14Z</time>
      </trkpt>
      <trkpt lat="44.505" lon="2.92366">
        <ele>644.9</ele>
        <time>2021-08-17T16:12:16Z</time>
      </trkpt>
      <trkpt lat="44.50504" lon="2.92369">
        <ele>645.4</ele>
        <time>2021-08-17T16:12:18Z</time>
      </trkpt>
      <trkpt lat="44.50508" lon="2.92372">
        <ele>645.8</ele>
        <time>2021-08-17T16:12:20Z</time>
      </trkpt>
      <trkpt lat="44.50512" lon="2.92375">
        <ele>646.2</ele>
        <time>2021-08-17T16:12:22Z</time>
      </trkpt>
      <trkpt lat="44.50516" lon="2.92379">
        <ele>646.7</ele>
        <time>2021-08-17T16:12:24Z</time>
      </trkpt>
      <trkpt lat="44.5052" lon="2.92382">
        <ele>647</ele>
        <time>2021-08-17T16:12:26Z</time>
      </trkpt>
      <trkpt lat="44.50524" lon="2.92385">
        <ele>647.3</ele>
        <time>2021-08-17T16:12:28Z</time>
      </trkpt>
      <trkpt lat="44.50527" lon="2.92389">
        <ele>647.7</ele>
        <time>2021-08-17T16:12:30Z</time>
      </trkpt>
      <trkpt lat="44.50531" lon="2.92393">
        <ele>648</ele>
        <time>2021-08-17T16:12:32Z</time>
      </trkpt>
      <trkpt lat="44.50535" lon="2.92396">
        <ele>648.2</ele>
        <time>2021-08-17T16:12:34Z</time>
      </trkpt>
      <trkpt lat="44.50539" lon="2.924">
        <ele>648.5</ele>
        <time>2021-08-17T16:12:36Z</time>
      </trkpt>
      <trkpt lat="44.50543" lon="2.92403">
        <ele>648.7</ele>
        <time>2021-08-17T16:12:38Z</time>
      </trkpt>
      <trkpt lat="44.50547" lon="2.92406">
        <ele>648.8</ele>
        <time>2021-08-17T16:12:40Z</time>
      </trkpt>
      <trkpt lat="44.50551" lon="2.9241">
        <ele>648.9</ele>
        <time>2021-08-17T16:12:42Z</time>
      </trkpt>
      <trkpt lat="44.50555" lon="2.92413">
        <ele>649.1</ele>
        <time>2021-08-17T16:12:44Z</time>
      </trkpt>
      <trkpt lat="44.50559" lon="2.92417">
        <ele>649.2</ele>
        <time>2021-08-17T16:12:46Z</time>
      </trkpt>
      <trkpt lat="44.50563" lon="2.92421">
        <ele>649.4</ele>
        <time>2021-08-17T16:12:48Z</time>
      </trkpt>
      <trkpt lat="44.50566" lon="2.92424">
        <ele>649.6</ele>
        <time>2021-08-17T16:12:50Z</time>
      </trkpt>
      <trkpt lat="44.5057" lon="2.92428">
        <ele>649.9</ele>
        <time>2021-08-17T16:12:52Z</time>
      </trkpt>
      <trkpt lat="44.50574" lon="2.92432">
        <ele>650.2</ele>
        <time>2021-08-17T16:12:54Z</time>
      </trkpt>
      <trkpt lat="44.50579" lon="2.92436">
        <ele>650.5</ele>
        <time>2021-08-17T16:12:56Z</time>
      </trkpt>
      <trkpt lat="44.50583" lon="2.92439">
        <ele>650.8</ele>
        <time>2021-08-17T16:12:58Z</time>
      </trkpt>
      <trkpt lat="44.50587" lon="2.92443">
        <ele>651.5</ele>
        <time>2021-08-17T16:13:00Z</time>
      </trkpt>
      <trkpt lat="44.50591" lon="2.92447">
        <ele>652.1</ele>
        <time>2021-08-17T16:13:02Z</time>
      </trkpt>
      <trkpt lat="44.50596" lon="2.92451">
        <ele>652.7</ele>
        <time>2021-08-17T16:13:04Z</time>
      </trkpt>
      <trkpt lat="44.506" lon="2.92454">
        <ele>653.2</ele>
        <time>2021-08-17T16:13:06Z</time>
      </trkpt>
      <trkpt lat="44.50604" lon="2.92458">
        <ele>653.7</ele>
        <time>2021-08-17T16:13:08Z</time>
      </trkpt>
      <trkpt lat="44.50608" lon="2.92462">
        <ele>654.1</ele>
        <time>2021-08-17T16:13:10Z</time>
      </trkpt>
      <trkpt lat="44.50613" lon="2.92465">
        <ele>654.5</ele>
        <time>2021-08-17T16:13:12Z</time>
      </trkpt>
      <trkpt lat="44.50617" lon="2.92469">
        <ele>654.9</ele>
        <time>2021-08-17T16:13:14Z</time>
      </trkpt>
      <trkpt lat="44.50621" lon="2.92473">
        <ele>655.2</ele>
        <time>2021-08-17T16:13:16Z</time>
      </trkpt>
      <trkpt lat="44.50625" lon="2.92476">
        <ele>655.4</ele>
        <time>2021-08-17T16:13:18Z</time>
      </trkpt>
      <trkpt lat="44.50629" lon="2.92479">
        <ele>655.6</ele>
        <time>2021-08-17T16:13:20Z</time>
      </trkpt>
      <trkpt lat="44.50633" lon="2.92483">
        <ele>655.8</ele>
        <time>2021-08-17T16:13:22Z</time>
      </trkpt>
      <trkpt lat="44.50637" lon="2.92486">
        <ele>655.9</ele>
        <time>2021-08-17T16:13:24Z</time>
      </trkpt>
      <trkpt lat="44.5064" lon="2.9249">
        <ele>656</ele>
        <time>2021-08-17T16:13:26Z</time>
      </trkpt>
      <trkpt lat="44.50643" lon="2.92493">
        <ele>656.1</ele>
        <time>2021-08-17T16:13:28Z</time>
      </trkpt>
      <trkpt lat="44.50646" lon="2.92495">
        <ele>656.1</ele>
        <time>2021-08-17T16:13:30Z</time>
      </trkpt>
      <trkpt lat="44.5065" lon="2.92499">
        <ele>656.1</ele>
        <time>2021-08-17T16:13:32Z</time>
      </trkpt>
      <trkpt lat="44.50654" lon="2.92502">
        <ele>656.1</ele>
        <time>2021-08-17T16:13:34Z</time>
      </trkpt>
      <trkpt lat="44.50657" lon="2.92504">
        <ele>656.1</ele>
        <time>2021-08-17T16:13:36Z</time>
      </trkpt>
      <trkpt lat="44.50661" lon="2.92505">
        <ele>656</ele>
        <time>2021-08-17T16:13:38Z</time>
      </trkpt>
      <trkpt lat="44.50665" lon="2.92507">
        <ele>656</ele>
        <time>2021-08-17T16:13:40Z</time>
      </trkpt>
      <trkpt lat="44.50669" lon="2.92508">
        <ele>656.4</ele>
        <time>2021-08-17T16:13:42Z</time>
      </trkpt>
      <trkpt lat="44.50673" lon="2.92508">
        <ele>656.9</ele>
        <time>2021-08-17T16:13:44Z</time>
      </trkpt>
      <trkpt lat="44.50677" lon="2.9251">
        <ele>657.6</ele>
        <time>2021-08-17T16:13:46Z</time>
      </trkpt>
      <trkpt lat="44.50681" lon="2.92509">
        <ele>658.1</ele>
        <time>2021-08-17T16:13:48Z</time>
      </trkpt>
      <trkpt lat="44.50684" lon="2.92508">
        <ele>658.5</ele>
        <time>2021-08-17T16:13:50Z</time>
      </trkpt>
      <trkpt lat="44.50688" lon="2.92506">
        <ele>658.8</ele>
        <time>2021-08-17T16:13:52Z</time>
      </trkpt>
      <trkpt lat="44.50692" lon="2.92504">
        <ele>659.3</ele>
        <time>2021-08-17T16:13:54Z</time>
      </trkpt>
      <trkpt lat="44.50696" lon="2.92502">
        <ele>659.7</ele>
        <time>2021-08-17T16:13:56Z</time>
      </trkpt>
      <trkpt lat="44.50699" lon="2.92499">
        <ele>660</ele>
        <time>2021-08-17T16:13:58Z</time>
      </trkpt>
      <trkpt lat="44.50702" lon="2.92496">
        <ele>660.5</ele>
        <time>2021-08-17T16:14:00Z</time>
      </trkpt>
      <trkpt lat="44.50705" lon="2.92491">
        <ele>660.8</ele>
        <time>2021-08-17T16:14:02Z</time>
      </trkpt>
      <trkpt lat="44.50707" lon="2.92487">
        <ele>661.1</ele>
        <time>2021-08-17T16:14:04Z</time>
      </trkpt>
      <trkpt lat="44.50709" lon="2.92482">
        <ele>661.3</ele>
        <time>2021-08-17T16:14:06Z</time>
      </trkpt>
      <trkpt lat="44.50711" lon="2.92476">
        <ele>661.5</ele>
        <time>2021-08-17T16:14:08Z</time>
      </trkpt>
      <trkpt lat="44.50712" lon="2.92471">
        <ele>661.6</ele>
        <time>2021-08-17T16:14:10Z</time>
      </trkpt>
      <trkpt lat="44.50713" lon="2.92466">
        <ele>661.6</ele>
        <time>2021-08-17T16:14:12Z</time>
      </trkpt>
      <trkpt lat="44.50713" lon="2.9246">
        <ele>661.7</ele>
        <time>2021-08-17T16:14:14Z</time>
      </trkpt>
      <trkpt lat="44.50713" lon="2.92454">
        <ele>661.6</ele>
        <time>2021-08-17T16:14:16Z</time>
      </trkpt>
      <trkpt lat="44.50713" lon="2.92449">
        <ele>661.4</ele>
        <time>2021-08-17T16:14:18Z</time>
      </trkpt>
      <trkpt lat="44.50712" lon="2.92444">
        <ele>661.3</ele>
        <time>2021-08-17T16:14:20Z</time>
      </trkpt>
      <trkpt lat="44.50712" lon="2.92438">
        <ele>661</ele>
        <time>2021-08-17T16:14:22Z</time>
      </trkpt>
      <trkpt lat="44.50711" lon="2.92432">
        <ele>660.9</ele>
        <time>2021-08-17T16:14:24Z</time>
      </trkpt>
      <trkpt lat="44.50711" lon="2.92427">
        <ele>660.7</ele>
        <time>2021-08-17T16:14:26Z</time>
      </trkpt>
      <trkpt lat="44.5071" lon="2.92422">
        <ele>660.5</ele>
        <time>2021-08-17T16:14:28Z</time>
      </trkpt>
      <trkpt lat="44.5071" lon="2.92417">
        <ele>660.5</ele>
        <time>2021-08-17T16:14:30Z</time>
      </trkpt>
      <trkpt lat="44.5071" lon="2.92412">
        <ele>660.3</ele>
        <time>2021-08-17T16:14:32Z</time>
      </trkpt>
      <trkpt lat="44.5071" lon="2.92407">
        <ele>660.3</ele>
        <time>2021-08-17T16:14:34Z</time>
      </trkpt>
      <trkpt lat="44.5071" lon="2.92402">
        <ele>660.3</ele>
        <time>2021-08-17T16:14:36Z</time>
      </trkpt>
      <trkpt lat="44.50709" lon="2.92396">
        <ele>660.2</ele>
        <time>2021-08-17T16:14:38Z</time>
      </trkpt>
      <trkpt lat="44.5071" lon="2.92391">
        <ele>660.3</ele>
        <time>2021-08-17T16:14:40Z</time>
      </trkpt>
      <trkpt lat="44.50709" lon="2.92385">
        <ele>660.2</ele>
        <time>2021-08-17T16:14:42Z</time>
      </trkpt>
      <trkpt lat="44.5071" lon="2.92379">
        <ele>660.3</ele>
        <time>2021-08-17T16:14:44Z</time>
      </trkpt>
      <trkpt lat="44.5071" lon="2.92373">
        <ele>660.4</ele>
        <time>2021-08-17T16:14:46Z</time>
      </trkpt>
      <trkpt lat="44.50711" lon="2.92366">
        <ele>660.5</ele>
        <time>2021-08-17T16:14:48Z</time>
      </trkpt>
      <trkpt lat="44.50712" lon="2.92359">
        <ele>660.7</ele>
        <time>2021-08-17T16:14:50Z</time>
      </trkpt>
      <trkpt lat="44.50714" lon="2.9235">
        <ele>661.1</ele>
        <time>2021-08-17T16:14:52Z</time>
      </trkpt>
      <trkpt lat="44.50716" lon="2.92342">
        <ele>661.3</ele>
        <time>2021-08-17T16:14:54Z</time>
      </trkpt>
      <trkpt lat="44.50718" lon="2.92333">
        <ele>661.6</ele>
        <time>2021-08-17T16:14:56Z</time>
      </trkpt>
      <trkpt lat="44.50723" lon="2.92325">
        <ele>662.4</ele>
        <time>2021-08-17T16:14:58Z</time>
      </trkpt>
      <trkpt lat="44.50727" lon="2.92317">
        <ele>663.1</ele>
        <time>2021-08-17T16:15:00Z</time>
      </trkpt>
      <trkpt lat="44.50731" lon="2.9231">
        <ele>663.7</ele>
        <time>2021-08-17T16:15:02Z</time>
      </trkpt>
      <trkpt lat="44.50736" lon="2.92303">
        <ele>664.4</ele>
        <time>2021-08-17T16:15:04Z</time>
      </trkpt>
      <trkpt lat="44.5074" lon="2.92295">
        <ele>664.9</ele>
        <time>2021-08-17T16:15:06Z</time>
      </trkpt>
      <trkpt lat="44.50743" lon="2.92285">
        <ele>665.3</ele>
        <time>2021-08-17T16:15:08Z</time>
      </trkpt>
      <trkpt lat="44.50745" lon="2.92275">
        <ele>665.6</ele>
        <time>2021-08-17T16:15:10Z</time>
      </trkpt>
      <trkpt lat="44.50746" lon="2.92265">
        <ele>665.6</ele>
        <time>2021-08-17T16:15:12Z</time>
      </trkpt>
      <trkpt lat="44.50746" lon="2.92254">
        <ele>665.4</ele>
        <time>2021-08-17T16:15:14Z</time>
      </trkpt>
      <trkpt lat="44.50745" lon="2.92243">
        <ele>665.5</ele>
        <time>2021-08-17T16:15:16Z</time>
      </trkpt>
      <trkpt lat="44.50744" lon="2.92233">
        <ele>665.6</ele>
        <time>2021-08-17T16:15:18Z</time>
      </trkpt>
      <trkpt lat="44.50742" lon="2.92222">
        <ele>665.7</ele>
        <time>2021-08-17T16:15:20Z</time>
      </trkpt>
      <trkpt lat="44.5074" lon="2.92212">
        <ele>665.8</ele>
        <time>2021-08-17T16:15:22Z</time>
      </trkpt>
      <trkpt lat="44.50738" lon="2.92202">
        <ele>665.9</ele>
        <time>2021-08-17T16:15:24Z</time>
      </trkpt>
      <trkpt lat="44.50735" lon="2.92193">
        <ele>666</ele>
        <time>2021-08-17T16:15:26Z</time>
      </trkpt>
      <trkpt lat="44.50733" lon="2.92183">
        <ele>666.2</ele>
        <time>2021-08-17T16:15:28Z</time>
      </trkpt>
      <trkpt lat="44.50732" lon="2.92174">
        <ele>666.4</ele>
        <time>2021-08-17T16:15:30Z</time>
      </trkpt>
      <trkpt lat="44.50731" lon="2.92165">
        <ele>666.6</ele>
        <time>2021-08-17T16:15:32Z</time>
      </trkpt>
      <trkpt lat="44.50731" lon="2.92156">
        <ele>666.6</ele>
        <time>2021-08-17T16:15:34Z</time>
      </trkpt>
      <trkpt lat="44.50733" lon="2.92147">
        <ele>666.6</ele>
        <time>2021-08-17T16:15:36Z</time>
      </trkpt>
      <trkpt lat="44.50734" lon="2.92138">
        <ele>666.7</ele>
        <time>2021-08-17T16:15:38Z</time>
      </trkpt>
      <trkpt lat="44.50737" lon="2.92131">
        <ele>667</ele>
        <time>2021-08-17T16:15:40Z</time>
      </trkpt>
      <trkpt lat="44.5074" lon="2.92124">
        <ele>667.2</ele>
        <time>2021-08-17T16:15:42Z</time>
      </trkpt>
      <trkpt lat="44.50744" lon="2.92117">
        <ele>667.5</ele>
        <time>2021-08-17T16:15:44Z</time>
      </trkpt>
      <trkpt lat="44.50747" lon="2.92111">
        <ele>667.8</ele>
        <time>2021-08-17T16:15:46Z</time>
      </trkpt>
      <trkpt lat="44.50751" lon="2.92105">
        <ele>668.2</ele>
        <time>2021-08-17T16:15:48Z</time>
      </trkpt>
      <trkpt lat="44.50754" lon="2.92099">
        <ele>668.7</ele>
        <time>2021-08-17T16:15:50Z</time>
      </trkpt>
      <trkpt lat="44.50758" lon="2.92094">
        <ele>669.3</ele>
        <time>2021-08-17T16:15:52Z</time>
      </trkpt>
      <trkpt lat="44.50762" lon="2.92088">
        <ele>670</ele>
        <time>2021-08-17T16:15:54Z</time>
      </trkpt>
      <trkpt lat="44.50765" lon="2.92082">
        <ele>670.3</ele>
        <time>2021-08-17T16:15:56Z</time>
      </trkpt>
      <trkpt lat="44.50768" lon="2.92076">
        <ele>670.4</ele>
        <time>2021-08-17T16:15:58Z</time>
      </trkpt>
      <trkpt lat="44.50771" lon="2.9207">
        <ele>670.5</ele>
        <time>2021-08-17T16:16:00Z</time>
      </trkpt>
      <trkpt lat="44.50775" lon="2.92065">
        <ele>670.6</ele>
        <time>2021-08-17T16:16:02Z</time>
      </trkpt>
      <trkpt lat="44.50778" lon="2.92059">
        <ele>670.8</ele>
        <time>2021-08-17T16:16:04Z</time>
      </trkpt>
      <trkpt lat="44.50781" lon="2.92053">
        <ele>670.8</ele>
        <time>2021-08-17T16:16:06Z</time>
      </trkpt>
      <trkpt lat="44.50785" lon="2.92048">
        <ele>671</ele>
        <time>2021-08-17T16:16:08Z</time>
      </trkpt>
      <trkpt lat="44.50789" lon="2.92043">
        <ele>671.2</ele>
        <time>2021-08-17T16:16:10Z</time>
      </trkpt>
      <trkpt lat="44.50792" lon="2.92037">
        <ele>671.2</ele>
        <time>2021-08-17T16:16:12Z</time>
      </trkpt>
      <trkpt lat="44.50795" lon="2.92032">
        <ele>671.3</ele>
        <time>2021-08-17T16:16:14Z</time>
      </trkpt>
      <trkpt lat="44.50799" lon="2.92026">
        <ele>671.4</ele>
        <time>2021-08-17T16:16:16Z</time>
      </trkpt>
      <trkpt lat="44.50803" lon="2.92021">
        <ele>671.5</ele>
        <time>2021-08-17T16:16:18Z</time>
      </trkpt>
      <trkpt lat="44.50808" lon="2.92017">
        <ele>671.8</ele>
        <time>2021-08-17T16:16:20Z</time>
      </trkpt>
      <trkpt lat="44.50811" lon="2.92011">
        <ele>671.8</ele>
        <time>2021-08-17T16:16:22Z</time>
      </trkpt>
      <trkpt lat="44.50815" lon="2.92006">
        <ele>671.8</ele>
        <time>2021-08-17T16:16:24Z</time>
      </trkpt>
      <trkpt lat="44.50818" lon="2.92">
        <ele>671.8</ele>
        <time>2021-08-17T16:16:26Z</time>
      </trkpt>
      <trkpt lat="44.50822" lon="2.91995">
        <ele>671.9</ele>
        <time>2021-08-17T16:16:28Z</time>
      </trkpt>
      <trkpt lat="44.50826" lon="2.91989">
        <ele>671.9</ele>
        <time>2021-08-17T16:16:30Z</time>
      </trkpt>
      <trkpt lat="44.50829" lon="2.91984">
        <ele>671.8</ele>
        <time>2021-08-17T16:16:32Z</time>
      </trkpt>
      <trkpt lat="44.50833" lon="2.91978">
        <ele>671.8</ele>
        <time>2021-08-17T16:16:34Z</time>
      </trkpt>
      <trkpt lat="44.50837" lon="2.91972">
        <ele>672.3</ele>
        <time>2021-08-17T16:16:36Z</time>
      </trkpt>
      <trkpt lat="44.50841" lon="2.91967">
        <ele>672.8</ele>
        <time>2021-08-17T16:16:38Z</time>
      </trkpt>
      <trkpt lat="44.50844" lon="2.91961">
        <ele>673.1</ele>
        <time>2021-08-17T16:16:40Z</time>
      </trkpt>
      <trkpt lat="44.50848" lon="2.91954">
        <ele>673.4</ele>
        <time>2021-08-17T16:16:42Z</time>
      </trkpt>
      <trkpt lat="44.50852" lon="2.91947">
        <ele>673.7</ele>
        <time>2021-08-17T16:16:44Z</time>
      </trkpt>
      <trkpt lat="44.50856" lon="2.9194">
        <ele>673.9</ele>
        <time>2021-08-17T16:16:46Z</time>
      </trkpt>
      <trkpt lat="44.5086" lon="2.91933">
        <ele>674</ele>
        <time>2021-08-17T16:16:48Z</time>
      </trkpt>
      <trkpt lat="44.50863" lon="2.91926">
        <ele>674.1</ele>
        <time>2021-08-17T16:16:50Z</time>
      </trkpt>
      <trkpt lat="44.50867" lon="2.91919">
        <ele>674.3</ele>
        <time>2021-08-17T16:16:52Z</time>
      </trkpt>
      <trkpt lat="44.5087" lon="2.91912">
        <ele>674.5</ele>
        <time>2021-08-17T16:16:54Z</time>
      </trkpt>
      <trkpt lat="44.50874" lon="2.91905">
        <ele>674.6</ele>
        <time>2021-08-17T16:16:56Z</time>
      </trkpt>
      <trkpt lat="44.50877" lon="2.91899">
        <ele>674.8</ele>
        <time>2021-08-17T16:16:58Z</time>
      </trkpt>
      <trkpt lat="44.50881" lon="2.91892">
        <ele>675.1</ele>
        <time>2021-08-17T16:17:00Z</time>
      </trkpt>
      <trkpt lat="44.50884" lon="2.91885">
        <ele>675.2</ele>
        <time>2021-08-17T16:17:02Z</time>
      </trkpt>
      <trkpt lat="44.50888" lon="2.91879">
        <ele>675.3</ele>
        <time>2021-08-17T16:17:04Z</time>
      </trkpt>
      <trkpt lat="44.50892" lon="2.91872">
        <ele>675.5</ele>
        <time>2021-08-17T16:17:06Z</time>
      </trkpt>
      <trkpt lat="44.50895" lon="2.91866">
        <ele>675.7</ele>
        <time>2021-08-17T16:17:08Z</time>
      </trkpt>
      <trkpt lat="44.50899" lon="2.91859">
        <ele>675.7</ele>
        <time>2021-08-17T16:17:10Z</time>
      </trkpt>
      <trkpt lat="44.50902" lon="2.91852">
        <ele>675.8</ele>
        <time>2021-08-17T16:17:12Z</time>
      </trkpt>
      <trkpt lat="44.50905" lon="2.91845">
        <ele>675.8</ele>
        <time>2021-08-17T16:17:14Z</time>
      </trkpt>
      <trkpt lat="44.50909" lon="2.91838">
        <ele>675.8</ele>
        <time>2021-08-17T16:17:16Z</time>
      </trkpt>
      <trkpt lat="44.50913" lon="2.91832">
        <ele>675.9</ele>
        <time>2021-08-17T16:17:18Z</time>
      </trkpt>
      <trkpt lat="44.50916" lon="2.91825">
        <ele>675.9</ele>
        <time>2021-08-17T16:17:20Z</time>
      </trkpt>
      <trkpt lat="44.5092" lon="2.91819">
        <ele>676.2</ele>
        <time>2021-08-17T16:17:22Z</time>
      </trkpt>
      <trkpt lat="44.50923" lon="2.91812">
        <ele>676.3</ele>
        <time>2021-08-17T16:17:24Z</time>
      </trkpt>
      <trkpt lat="44.50927" lon="2.91806">
        <ele>676.5</ele>
        <time>2021-08-17T16:17:26Z</time>
      </trkpt>
      <trkpt lat="44.5093" lon="2.91799">
        <ele>676.7</ele>
        <time>2021-08-17T16:17:28Z</time>
      </trkpt>
      <trkpt lat="44.50934" lon="2.91791">
        <ele>676.8</ele>
        <time>2021-08-17T16:17:30Z</time>
      </trkpt>
      <trkpt lat="44.50938" lon="2.91785">
        <ele>677.1</ele>
        <time>2021-08-17T16:17:32Z</time>
      </trkpt>
      <trkpt lat="44.50942" lon="2.91777">
        <ele>677.2</ele>
        <time>2021-08-17T16:17:34Z</time>
      </trkpt>
      <trkpt lat="44.50945" lon="2.9177">
        <ele>677.1</ele>
        <time>2021-08-17T16:17:36Z</time>
      </trkpt>
      <trkpt lat="44.50948" lon="2.91764">
        <ele>677.2</ele>
        <time>2021-08-17T16:17:38Z</time>
      </trkpt>
      <trkpt lat="44.50952" lon="2.91757">
        <ele>677.3</ele>
        <time>2021-08-17T16:17:40Z</time>
      </trkpt>
      <trkpt lat="44.50956" lon="2.9175">
        <ele>677.3</ele>
        <time>2021-08-17T16:17:42Z</time>
      </trkpt>
      <trkpt lat="44.5096" lon="2.91743">
        <ele>677.4</ele>
        <time>2021-08-17T16:17:44Z</time>
      </trkpt>
      <trkpt lat="44.50963" lon="2.91737">
        <ele>677.5</ele>
        <time>2021-08-17T16:17:46Z</time>
      </trkpt>
      <trkpt lat="44.50966" lon="2.9173">
        <ele>677.4</ele>
        <time>2021-08-17T16:17:48Z</time>
      </trkpt>
      <trkpt lat="44.5097" lon="2.91723">
        <ele>677.6</ele>
        <time>2021-08-17T16:17:50Z</time>
      </trkpt>
      <trkpt lat="44.50974" lon="2.91715">
        <ele>677.5</ele>
        <time>2021-08-17T16:17:52Z</time>
      </trkpt>
      <trkpt lat="44.50977" lon="2.91708">
        <ele>677.6</ele>
        <time>2021-08-17T16:17:54Z</time>
      </trkpt>
      <trkpt lat="44.50981" lon="2.91701">
        <ele>677.7</ele>
        <time>2021-08-17T16:17:56Z</time>
      </trkpt>
      <trkpt lat="44.50985" lon="2.91694">
        <ele>678</ele>
        <time>2021-08-17T16:17:58Z</time>
      </trkpt>
      <trkpt lat="44.50988" lon="2.91687">
        <ele>678</ele>
        <time>2021-08-17T16:18:00Z</time>
      </trkpt>
      <trkpt lat="44.50992" lon="2.91679">
        <ele>678.1</ele>
        <time>2021-08-17T16:18:02Z</time>
      </trkpt>
      <trkpt lat="44.50996" lon="2.91672">
        <ele>678.3</ele>
        <time>2021-08-17T16:18:04Z</time>
      </trkpt>
      <trkpt lat="44.50999" lon="2.91664">
        <ele>678.3</ele>
        <time>2021-08-17T16:18:06Z</time>
      </trkpt>
      <trkpt lat="44.51003" lon="2.91656">
        <ele>678.4</ele>
        <time>2021-08-17T16:18:08Z</time>
      </trkpt>
      <trkpt lat="44.51008" lon="2.91649">
        <ele>678.6</ele>
        <time>2021-08-17T16:18:10Z</time>
      </trkpt>
      <trkpt lat="44.51011" lon="2.91641">
        <ele>678.5</ele>
        <time>2021-08-17T16:18:12Z</time>
      </trkpt>
      <trkpt lat="44.51014" lon="2.91634">
        <ele>678.5</ele>
        <time>2021-08-17T16:18:14Z</time>
      </trkpt>
      <trkpt lat="44.51018" lon="2.91627">
        <ele>678.3</ele>
        <time>2021-08-17T16:18:16Z</time>
      </trkpt>
      <trkpt lat="44.51021" lon="2.9162">
        <ele>678.3</ele>
        <time>2021-08-17T16:18:18Z</time>
      </trkpt>
      <trkpt lat="44.51025" lon="2.91613">
        <ele>678.3</ele>
        <time>2021-08-17T16:18:20Z</time>
      </trkpt>
      <trkpt lat="44.51029" lon="2.91606">
        <ele>678.3</ele>
        <time>2021-08-17T16:18:22Z</time>
      </trkpt>
      <trkpt lat="44.51032" lon="2.91599">
        <ele>678.2</ele>
        <time>2021-08-17T16:18:24Z</time>
      </trkpt>
      <trkpt lat="44.51036" lon="2.91591">
        <ele>678.1</ele>
        <time>2021-08-17T16:18:26Z</time>
      </trkpt>
      <trkpt lat="44.5104" lon="2.91584">
        <ele>678.1</ele>
        <time>2021-08-17T16:18:28Z</time>
      </trkpt>
      <trkpt lat="44.51043" lon="2.91578">
        <ele>678.3</ele>
        <time>2021-08-17T16:18:30Z</time>
      </trkpt>
      <trkpt lat="44.51047" lon="2.91572">
        <ele>678.5</ele>
        <time>2021-08-17T16:18:32Z</time>
      </trkpt>
      <trkpt lat="44.51051" lon="2.91566">
        <ele>678.6</ele>
        <time>2021-08-17T16:18:34Z</time>
      </trkpt>
      <trkpt lat="44.51054" lon="2.91559">
        <ele>678.6</ele>
        <time>2021-08-17T16:18:36Z</time>
      </trkpt>
      <trkpt lat="44.51058" lon="2.91554">
        <ele>678.7</ele>
        <time>2021-08-17T16:18:38Z</time>
      </trkpt>
      <trkpt lat="44.51062" lon="2.91548">
        <ele>678.8</ele>
        <time>2021-08-17T16:18:40Z</time>
      </trkpt>
      <trkpt lat="44.51066" lon="2.91543">
        <ele>678.9</ele>
        <time>2021-08-17T16:18:42Z</time>
      </trkpt>
      <trkpt lat="44.51069" lon="2.91538">
        <ele>679</ele>
        <time>2021-08-17T16:18:44Z</time>
      </trkpt>
      <trkpt lat="44.51073" lon="2.91533">
        <ele>679</ele>
        <time>2021-08-17T16:18:46Z</time>
      </trkpt>
      <trkpt lat="44.51077" lon="2.91529">
        <ele>679.2</ele>
        <time>2021-08-17T16:18:48Z</time>
      </trkpt>
      <trkpt lat="44.51081" lon="2.91524">
        <ele>679.2</ele>
        <time>2021-08-17T16:18:50Z</time>
      </trkpt>
      <trkpt lat="44.51084" lon="2.9152">
        <ele>679.3</ele>
        <time>2021-08-17T16:18:52Z</time>
      </trkpt>
      <trkpt lat="44.51087" lon="2.91513">
        <ele>678.9</ele>
        <time>2021-08-17T16:18:54Z</time>
      </trkpt>
      <trkpt lat="44.5109" lon="2.91506">
        <ele>678.3</ele>
        <time>2021-08-17T16:18:56Z</time>
      </trkpt>
      <trkpt lat="44.51093" lon="2.915">
        <ele>677.7</ele>
        <time>2021-08-17T16:18:58Z</time>
      </trkpt>
      <trkpt lat="44.51094" lon="2.91492">
        <ele>677.2</ele>
        <time>2021-08-17T16:19:00Z</time>
      </trkpt>
      <trkpt lat="44.51096" lon="2.91483">
        <ele>676.5</ele>
        <time>2021-08-17T16:19:02Z</time>
      </trkpt>
      <trkpt lat="44.51099" lon="2.91473">
        <ele>676</ele>
        <time>2021-08-17T16:19:04Z</time>
      </trkpt>
      <trkpt lat="44.51105" lon="2.91463">
        <ele>675.8</ele>
        <time>2021-08-17T16:19:06Z</time>
      </trkpt>
      <trkpt lat="44.51112" lon="2.91453">
        <ele>675.6</ele>
        <time>2021-08-17T16:19:08Z</time>
      </trkpt>
      <trkpt lat="44.51119" lon="2.91441">
        <ele>675.1</ele>
        <time>2021-08-17T16:19:10Z</time>
      </trkpt>
      <trkpt lat="44.51128" lon="2.91429">
        <ele>674.5</ele>
        <time>2021-08-17T16:19:12Z</time>
      </trkpt>
      <trkpt lat="44.51138" lon="2.91416">
        <ele>673.8</ele>
        <time>2021-08-17T16:19:14Z</time>
      </trkpt>
      <trkpt lat="44.51148" lon="2.91404">
        <ele>673.4</ele>
        <time>2021-08-17T16:19:16Z</time>
      </trkpt>
      <trkpt lat="44.5116" lon="2.91392">
        <ele>673</ele>
        <time>2021-08-17T16:19:18Z</time>
      </trkpt>
      <trkpt lat="44.51171" lon="2.91381">
        <ele>673</ele>
        <time>2021-08-17T16:19:20Z</time>
      </trkpt>
      <trkpt lat="44.51182" lon="2.91367">
        <ele>672.8</ele>
        <time>2021-08-17T16:19:22Z</time>
      </trkpt>
      <trkpt lat="44.51192" lon="2.91352">
        <ele>672.1</ele>
        <time>2021-08-17T16:19:24Z</time>
      </trkpt>
      <trkpt lat="44.51201" lon="2.91335">
        <ele>671.1</ele>
        <time>2021-08-17T16:19:26Z</time>
      </trkpt>
      <trkpt lat="44.5121" lon="2.91316">
        <ele>669.7</ele>
        <time>2021-08-17T16:19:28Z</time>
      </trkpt>
      <trkpt lat="44.5122" lon="2.91295">
        <ele>668</ele>
        <time>2021-08-17T16:19:30Z</time>
      </trkpt>
      <trkpt lat="44.5123" lon="2.91272">
        <ele>665.9</ele>
        <time>2021-08-17T16:19:32Z</time>
      </trkpt>
      <trkpt lat="44.51237" lon="2.91247">
        <ele>663.3</ele>
        <time>2021-08-17T16:19:34Z</time>
      </trkpt>
      <trkpt lat="44.51242" lon="2.91221">
        <ele>661.6</ele>
        <time>2021-08-17T16:19:36Z</time>
      </trkpt>
      <trkpt lat="44.51245" lon="2.91193">
        <ele>659.6</ele>
        <time>2021-08-17T16:19:38Z</time>
      </trkpt>
      <trkpt lat="44.51248" lon="2.91165">
        <ele>657.8</ele>
        <time>2021-08-17T16:19:40Z</time>
      </trkpt>
      <trkpt lat="44.51251" lon="2.91137">
        <ele>656.7</ele>
        <time>2021-08-17T16:19:42Z</time>
      </trkpt>
      <trkpt lat="44.51254" lon="2.9111">
        <ele>655.6</ele>
        <time>2021-08-17T16:19:44Z</time>
      </trkpt>
      <trkpt lat="44.51257" lon="2.91082">
        <ele>654.2</ele>
        <time>2021-08-17T16:19:46Z</time>
      </trkpt>
      <trkpt lat="44.51262" lon="2.91054">
        <ele>651.4</ele>
        <time>2021-08-17T16:19:48Z</time>
      </trkpt>
      <trkpt lat="44.5127" lon="2.91026">
        <ele>649</ele>
        <time>2021-08-17T16:19:50Z</time>
      </trkpt>
      <trkpt lat="44.51282" lon="2.91">
        <ele>647</ele>
        <time>2021-08-17T16:19:52Z</time>
      </trkpt>
      <trkpt lat="44.51297" lon="2.90979">
        <ele>645.4</ele>
        <time>2021-08-17T16:19:54Z</time>
      </trkpt>
      <trkpt lat="44.51311" lon="2.90957">
        <ele>643.7</ele>
        <time>2021-08-17T16:19:56Z</time>
      </trkpt>
      <trkpt lat="44.51323" lon="2.90934">
        <ele>641.5</ele>
        <time>2021-08-17T16:19:58Z</time>
      </trkpt>
      <trkpt lat="44.51332" lon="2.90908">
        <ele>639.8</ele>
        <time>2021-08-17T16:20:00Z</time>
      </trkpt>
      <trkpt lat="44.51339" lon="2.90882">
        <ele>640.3</ele>
        <time>2021-08-17T16:20:02Z</time>
      </trkpt>
      <trkpt lat="44.51346" lon="2.90857">
        <ele>641.1</ele>
        <time>2021-08-17T16:20:04Z</time>
      </trkpt>
      <trkpt lat="44.51353" lon="2.90834">
        <ele>642.1</ele>
        <time>2021-08-17T16:20:06Z</time>
      </trkpt>
      <trkpt lat="44.51359" lon="2.90812">
        <ele>641.3</ele>
        <time>2021-08-17T16:20:08Z</time>
      </trkpt>
      <trkpt lat="44.51365" lon="2.90793">
        <ele>640.8</ele>
        <time>2021-08-17T16:20:10Z</time>
      </trkpt>
      <trkpt lat="44.51372" lon="2.90774">
        <ele>640.7</ele>
        <time>2021-08-17T16:20:12Z</time>
      </trkpt>
      <trkpt lat="44.5138" lon="2.90758">
        <ele>641.1</ele>
        <time>2021-08-17T16:20:14Z</time>
      </trkpt>
      <trkpt lat="44.51389" lon="2.90745">
        <ele>642.2</ele>
        <time>2021-08-17T16:20:16Z</time>
      </trkpt>
      <trkpt lat="44.51398" lon="2.90733">
        <ele>643.8</ele>
        <time>2021-08-17T16:20:18Z</time>
      </trkpt>
      <trkpt lat="44.51407" lon="2.90723">
        <ele>645.3</ele>
        <time>2021-08-17T16:20:20Z</time>
      </trkpt>
      <trkpt lat="44.51415" lon="2.90712">
        <ele>646.4</ele>
        <time>2021-08-17T16:20:22Z</time>
      </trkpt>
      <trkpt lat="44.51421" lon="2.90699">
        <ele>647.1</ele>
        <time>2021-08-17T16:20:24Z</time>
      </trkpt>
      <trkpt lat="44.51425" lon="2.90685">
        <ele>647.5</ele>
        <time>2021-08-17T16:20:26Z</time>
      </trkpt>
      <trkpt lat="44.51425" lon="2.9067">
        <ele>647</ele>
        <time>2021-08-17T16:20:28Z</time>
      </trkpt>
      <trkpt lat="44.51423" lon="2.90655">
        <ele>647.1</ele>
        <time>2021-08-17T16:20:30Z</time>
      </trkpt>
      <trkpt lat="44.51418" lon="2.90642">
        <ele>646.9</ele>
        <time>2021-08-17T16:20:32Z</time>
      </trkpt>
      <trkpt lat="44.51413" lon="2.90629">
        <ele>646.7</ele>
        <time>2021-08-17T16:20:34Z</time>
      </trkpt>
      <trkpt lat="44.51407" lon="2.90616">
        <ele>646.7</ele>
        <time>2021-08-17T16:20:36Z</time>
      </trkpt>
      <trkpt lat="44.51401" lon="2.90604">
        <ele>646.5</ele>
        <time>2021-08-17T16:20:38Z</time>
      </trkpt>
      <trkpt lat="44.51395" lon="2.90591">
        <ele>646.5</ele>
        <time>2021-08-17T16:20:40Z</time>
      </trkpt>
      <trkpt lat="44.5139" lon="2.90578">
        <ele>646.2</ele>
        <time>2021-08-17T16:20:42Z</time>
      </trkpt>
      <trkpt lat="44.51386" lon="2.90568">
        <ele>645.7</ele>
        <time>2021-08-17T16:20:44Z</time>
      </trkpt>
      <trkpt lat="44.51384" lon="2.90563">
        <ele>645.5</ele>
        <time>2021-08-17T16:20:46Z</time>
      </trkpt>
      <trkpt lat="44.5138" lon="2.90558">
        <ele>645</ele>
        <time>2021-08-17T16:20:48Z</time>
      </trkpt>
      <trkpt lat="44.51376" lon="2.90558">
        <ele>644.3</ele>
        <time>2021-08-17T16:20:50Z</time>
      </trkpt>
      <trkpt lat="44.51373" lon="2.90559">
        <ele>643.8</ele>
        <time>2021-08-17T16:20:52Z</time>
      </trkpt>
      <trkpt lat="44.51369" lon="2.90559">
        <ele>643.2</ele>
        <time>2021-08-17T16:20:54Z</time>
      </trkpt>
      <trkpt lat="44.51363" lon="2.9056">
        <ele>642.3</ele>
        <time>2021-08-17T16:20:56Z</time>
      </trkpt>
      <trkpt lat="44.51359" lon="2.90559">
        <ele>641.6</ele>
        <time>2021-08-17T16:20:58Z</time>
      </trkpt>
      <trkpt lat="44.51354" lon="2.90559">
        <ele>640.9</ele>
        <time>2021-08-17T16:21:00Z</time>
      </trkpt>
      <trkpt lat="44.51349" lon="2.90557">
        <ele>640.1</ele>
        <time>2021-08-17T16:21:02Z</time>
      </trkpt>
      <trkpt lat="44.51341" lon="2.90556">
        <ele>638.9</ele>
        <time>2021-08-17T16:21:04Z</time>
      </trkpt>
      <trkpt lat="44.51333" lon="2.90555">
        <ele>637.6</ele>
        <time>2021-08-17T16:21:06Z</time>
      </trkpt>
      <trkpt lat="44.51325" lon="2.90554">
        <ele>637.3</ele>
        <time>2021-08-17T16:21:08Z</time>
      </trkpt>
      <trkpt lat="44.51316" lon="2.90553">
        <ele>636.9</ele>
        <time>2021-08-17T16:21:10Z</time>
      </trkpt>
      <trkpt lat="44.51307" lon="2.90552">
        <ele>636.5</ele>
        <time>2021-08-17T16:21:12Z</time>
      </trkpt>
      <trkpt lat="44.513" lon="2.90551">
        <ele>636.1</ele>
        <time>2021-08-17T16:21:14Z</time>
      </trkpt>
      <trkpt lat="44.51293" lon="2.90551">
        <ele>635.8</ele>
        <time>2021-08-17T16:21:16Z</time>
      </trkpt>
      <trkpt lat="44.51287" lon="2.90554">
        <ele>635.7</ele>
        <time>2021-08-17T16:21:18Z</time>
      </trkpt>
      <trkpt lat="44.51281" lon="2.90559">
        <ele>635.8</ele>
        <time>2021-08-17T16:21:20Z</time>
      </trkpt>
      <trkpt lat="44.51277" lon="2.90563">
        <ele>635.9</ele>
        <time>2021-08-17T16:21:22Z</time>
      </trkpt>
      <trkpt lat="44.51273" lon="2.90566">
        <ele>636</ele>
        <time>2021-08-17T16:21:24Z</time>
      </trkpt>
      <trkpt lat="44.51269" lon="2.90569">
        <ele>636.1</ele>
        <time>2021-08-17T16:21:26Z</time>
      </trkpt>
      <trkpt lat="44.51267" lon="2.90572">
        <ele>636.3</ele>
        <time>2021-08-17T16:21:28Z</time>
      </trkpt>
      <trkpt lat="44.51263" lon="2.90574">
        <ele>636.4</ele>
        <time>2021-08-17T16:21:30Z</time>
      </trkpt>
      <trkpt lat="44.51259" lon="2.90577">
        <ele>636.5</ele>
        <time>2021-08-17T16:21:32Z</time>
      </trkpt>
      <trkpt lat="44.51255" lon="2.9058">
        <ele>636.8</ele>
        <time>2021-08-17T16:21:34Z</time>
      </trkpt>
      <trkpt lat="44.51251" lon="2.90584">
        <ele>637</ele>
        <time>2021-08-17T16:21:36Z</time>
      </trkpt>
      <trkpt lat="44.51247" lon="2.90585">
        <ele>636.8</ele>
        <time>2021-08-17T16:21:38Z</time>
      </trkpt>
      <trkpt lat="44.51242" lon="2.90587">
        <ele>636.4</ele>
        <time>2021-08-17T16:21:40Z</time>
      </trkpt>
      <trkpt lat="44.51237" lon="2.90589">
        <ele>636.1</ele>
        <time>2021-08-17T16:21:42Z</time>
      </trkpt>
      <trkpt lat="44.51232" lon="2.90591">
        <ele>635.8</ele>
        <time>2021-08-17T16:21:44Z</time>
      </trkpt>
      <trkpt lat="44.51228" lon="2.9059">
        <ele>635.5</ele>
        <time>2021-08-17T16:21:46Z</time>
      </trkpt>
      <trkpt lat="44.51224" lon="2.90589">
        <ele>635.3</ele>
        <time>2021-08-17T16:21:48Z</time>
      </trkpt>
      <trkpt lat="44.51218" lon="2.90589">
        <ele>634.9</ele>
        <time>2021-08-17T16:21:50Z</time>
      </trkpt>
      <trkpt lat="44.5121" lon="2.90589">
        <ele>634.5</ele>
        <time>2021-08-17T16:21:52Z</time>
      </trkpt>
      <trkpt lat="44.51202" lon="2.90589">
        <ele>634</ele>
        <time>2021-08-17T16:21:54Z</time>
      </trkpt>
      <trkpt lat="44.51194" lon="2.90589">
        <ele>633.4</ele>
        <time>2021-08-17T16:21:56Z</time>
      </trkpt>
      <trkpt lat="44.51185" lon="2.90588">
        <ele>633</ele>
        <time>2021-08-17T16:21:58Z</time>
      </trkpt>
      <trkpt lat="44.51177" lon="2.90587">
        <ele>632.5</ele>
        <time>2021-08-17T16:22:00Z</time>
      </trkpt>
      <trkpt lat="44.5117" lon="2.90586">
        <ele>632.1</ele>
        <time>2021-08-17T16:22:02Z</time>
      </trkpt>
      <trkpt lat="44.51162" lon="2.90585">
        <ele>631.8</ele>
        <time>2021-08-17T16:22:04Z</time>
      </trkpt>
      <trkpt lat="44.51154" lon="2.90584">
        <ele>631.7</ele>
        <time>2021-08-17T16:22:06Z</time>
      </trkpt>
      <trkpt lat="44.51147" lon="2.90583">
        <ele>631.5</ele>
        <time>2021-08-17T16:22:08Z</time>
      </trkpt>
      <trkpt lat="44.51141" lon="2.90581">
        <ele>631.3</ele>
        <time>2021-08-17T16:22:10Z</time>
      </trkpt>
      <trkpt lat="44.51135" lon="2.90579">
        <ele>631.1</ele>
        <time>2021-08-17T16:22:12Z</time>
      </trkpt>
      <trkpt lat="44.51127" lon="2.90579">
        <ele>630.9</ele>
        <time>2021-08-17T16:22:14Z</time>
      </trkpt>
      <trkpt lat="44.51121" lon="2.90577">
        <ele>630.7</ele>
        <time>2021-08-17T16:22:16Z</time>
      </trkpt>
      <trkpt lat="44.51114" lon="2.90576">
        <ele>630.5</ele>
        <time>2021-08-17T16:22:18Z</time>
      </trkpt>
      <trkpt lat="44.51109" lon="2.90576">
        <ele>630.4</ele>
        <time>2021-08-17T16:22:20Z</time>
      </trkpt>
      <trkpt lat="44.51104" lon="2.90576">
        <ele>630.2</ele>
        <time>2021-08-17T16:22:22Z</time>
      </trkpt>
      <trkpt lat="44.51099" lon="2.90575">
        <ele>630.1</ele>
        <time>2021-08-17T16:22:24Z</time>
      </trkpt>
      <trkpt lat="44.51094" lon="2.90575">
        <ele>629.9</ele>
        <time>2021-08-17T16:22:26Z</time>
      </trkpt>
      <trkpt lat="44.51088" lon="2.90573">
        <ele>629.8</ele>
        <time>2021-08-17T16:22:28Z</time>
      </trkpt>
      <trkpt lat="44.51083" lon="2.90573">
        <ele>629.6</ele>
        <time>2021-08-17T16:22:30Z</time>
      </trkpt>
      <trkpt lat="44.51079" lon="2.90572">
        <ele>629</ele>
        <time>2021-08-17T16:22:32Z</time>
      </trkpt>
      <trkpt lat="44.51075" lon="2.90571">
        <ele>628.5</ele>
        <time>2021-08-17T16:22:34Z</time>
      </trkpt>
      <trkpt lat="44.51071" lon="2.9057">
        <ele>627.9</ele>
        <time>2021-08-17T16:22:36Z</time>
      </trkpt>
      <trkpt lat="44.51068" lon="2.90569">
        <ele>627.4</ele>
        <time>2021-08-17T16:22:38Z</time>
      </trkpt>
      <trkpt lat="44.51065" lon="2.90568">
        <ele>627</ele>
        <time>2021-08-17T16:22:40Z</time>
      </trkpt>
      <trkpt lat="44.51065" lon="2.90568">
        <ele>627</ele>
        <time>2021-08-17T16:22:42Z</time>
      </trkpt>
      <trkpt lat="44.51065" lon="2.90568">
        <ele>627</ele>
        <time>2021-08-17T16:22:44Z</time>
      </trkpt>
      <trkpt lat="44.51065" lon="2.90568">
        <ele>627</ele>
        <time>2021-08-17T16:22:46Z</time>
      </trkpt>
      <trkpt lat="44.51065" lon="2.90568">
        <ele>627</ele>
        <time>2021-08-17T16:22:48Z</time>
      </trkpt>
      <trkpt lat="44.51086" lon="2.90575">
        <ele>629.8</ele>
        <time>2021-08-17T16:25:10Z</time>
      </trkpt>
      <trkpt lat="44.5109" lon="2.90576">
        <ele>629.9</ele>
        <time>2021-08-17T16:25:12Z</time>
      </trkpt>
      <trkpt lat="44.51093" lon="2.90577">
        <ele>630</ele>
        <time>2021-08-17T16:25:14Z</time>
      </trkpt>
      <trkpt lat="44.51098" lon="2.90577">
        <ele>630.1</ele>
        <time>2021-08-17T16:25:16Z</time>
      </trkpt>
      <trkpt lat="44.51103" lon="2.90578">
        <ele>630.3</ele>
        <time>2021-08-17T16:25:18Z</time>
      </trkpt>
      <trkpt lat="44.51107" lon="2.90579">
        <ele>630.4</ele>
        <time>2021-08-17T16:25:20Z</time>
      </trkpt>
      <trkpt lat="44.51112" lon="2.9058">
        <ele>630.5</ele>
        <time>2021-08-17T16:25:22Z</time>
      </trkpt>
      <trkpt lat="44.51116" lon="2.90578">
        <ele>630.6</ele>
        <time>2021-08-17T16:25:24Z</time>
      </trkpt>
      <trkpt lat="44.5112" lon="2.9058">
        <ele>630.8</ele>
        <time>2021-08-17T16:25:26Z</time>
      </trkpt>
      <trkpt lat="44.51124" lon="2.90581">
        <ele>630.9</ele>
        <time>2021-08-17T16:25:28Z</time>
      </trkpt>
      <trkpt lat="44.51128" lon="2.90582">
        <ele>631</ele>
        <time>2021-08-17T16:25:30Z</time>
      </trkpt>
      <trkpt lat="44.51132" lon="2.90582">
        <ele>631.1</ele>
        <time>2021-08-17T16:25:32Z</time>
      </trkpt>
      <trkpt lat="44.51136" lon="2.90583">
        <ele>631.3</ele>
        <time>2021-08-17T16:25:34Z</time>
      </trkpt>
      <trkpt lat="44.51141" lon="2.90584">
        <ele>631.4</ele>
        <time>2021-08-17T16:25:36Z</time>
      </trkpt>
      <trkpt lat="44.51146" lon="2.90584">
        <ele>631.5</ele>
        <time>2021-08-17T16:25:38Z</time>
      </trkpt>
      <trkpt lat="44.51151" lon="2.90584">
        <ele>631.6</ele>
        <time>2021-08-17T16:25:40Z</time>
      </trkpt>
      <trkpt lat="44.51155" lon="2.90585">
        <ele>631.7</ele>
        <time>2021-08-17T16:25:42Z</time>
      </trkpt>
      <trkpt lat="44.5116" lon="2.90587">
        <ele>631.7</ele>
        <time>2021-08-17T16:25:44Z</time>
      </trkpt>
      <trkpt lat="44.51165" lon="2.90587">
        <ele>631.8</ele>
        <time>2021-08-17T16:25:46Z</time>
      </trkpt>
      <trkpt lat="44.51168" lon="2.90586">
        <ele>632</ele>
        <time>2021-08-17T16:25:48Z</time>
      </trkpt>
      <trkpt lat="44.51173" lon="2.90588">
        <ele>632.2</ele>
        <time>2021-08-17T16:25:50Z</time>
      </trkpt>
      <trkpt lat="44.51177" lon="2.90588">
        <ele>632.5</ele>
        <time>2021-08-17T16:25:52Z</time>
      </trkpt>
      <trkpt lat="44.51182" lon="2.90589">
        <ele>632.7</ele>
        <time>2021-08-17T16:25:54Z</time>
      </trkpt>
      <trkpt lat="44.51186" lon="2.90589">
        <ele>633</ele>
        <time>2021-08-17T16:25:56Z</time>
      </trkpt>
      <trkpt lat="44.51191" lon="2.9059">
        <ele>633.2</ele>
        <time>2021-08-17T16:25:58Z</time>
      </trkpt>
      <trkpt lat="44.51195" lon="2.9059">
        <ele>633.5</ele>
        <time>2021-08-17T16:26:00Z</time>
      </trkpt>
      <trkpt lat="44.51199" lon="2.90591">
        <ele>633.7</ele>
        <time>2021-08-17T16:26:02Z</time>
      </trkpt>
      <trkpt lat="44.51204" lon="2.90591">
        <ele>634</ele>
        <time>2021-08-17T16:26:04Z</time>
      </trkpt>
      <trkpt lat="44.51209" lon="2.90591">
        <ele>634.3</ele>
        <time>2021-08-17T16:26:06Z</time>
      </trkpt>
      <trkpt lat="44.51213" lon="2.90591">
        <ele>634.6</ele>
        <time>2021-08-17T16:26:08Z</time>
      </trkpt>
      <trkpt lat="44.51217" lon="2.90591">
        <ele>634.8</ele>
        <time>2021-08-17T16:26:10Z</time>
      </trkpt>
      <trkpt lat="44.51222" lon="2.90592">
        <ele>635.1</ele>
        <time>2021-08-17T16:26:12Z</time>
      </trkpt>
      <trkpt lat="44.51226" lon="2.90592">
        <ele>635.3</ele>
        <time>2021-08-17T16:26:14Z</time>
      </trkpt>
      <trkpt lat="44.51231" lon="2.90592">
        <ele>635.6</ele>
        <time>2021-08-17T16:26:16Z</time>
      </trkpt>
      <trkpt lat="44.51236" lon="2.90592">
        <ele>635.9</ele>
        <time>2021-08-17T16:26:18Z</time>
      </trkpt>
      <trkpt lat="44.5124" lon="2.9059">
        <ele>636.3</ele>
        <time>2021-08-17T16:26:20Z</time>
      </trkpt>
      <trkpt lat="44.51245" lon="2.90587">
        <ele>636.6</ele>
        <time>2021-08-17T16:26:22Z</time>
      </trkpt>
      <trkpt lat="44.51249" lon="2.90584">
        <ele>636.9</ele>
        <time>2021-08-17T16:26:24Z</time>
      </trkpt>
      <trkpt lat="44.51253" lon="2.90581">
        <ele>636.8</ele>
        <time>2021-08-17T16:26:26Z</time>
      </trkpt>
      <trkpt lat="44.51258" lon="2.90578">
        <ele>636.6</ele>
        <time>2021-08-17T16:26:28Z</time>
      </trkpt>
      <trkpt lat="44.51262" lon="2.90575">
        <ele>636.4</ele>
        <time>2021-08-17T16:26:30Z</time>
      </trkpt>
      <trkpt lat="44.51266" lon="2.90572">
        <ele>636.3</ele>
        <time>2021-08-17T16:26:32Z</time>
      </trkpt>
      <trkpt lat="44.5127" lon="2.90569">
        <ele>636.2</ele>
        <time>2021-08-17T16:26:34Z</time>
      </trkpt>
      <trkpt lat="44.51275" lon="2.90566">
        <ele>636.1</ele>
        <time>2021-08-17T16:26:36Z</time>
      </trkpt>
      <trkpt lat="44.51279" lon="2.90563">
        <ele>636</ele>
        <time>2021-08-17T16:26:38Z</time>
      </trkpt>
      <trkpt lat="44.51284" lon="2.90559">
        <ele>635.9</ele>
        <time>2021-08-17T16:26:40Z</time>
      </trkpt>
      <trkpt lat="44.51287" lon="2.90555">
        <ele>635.8</ele>
        <time>2021-08-17T16:26:42Z</time>
      </trkpt>
      <trkpt lat="44.51291" lon="2.90553">
        <ele>635.8</ele>
        <time>2021-08-17T16:26:44Z</time>
      </trkpt>
      <trkpt lat="44.51295" lon="2.90552">
        <ele>635.9</ele>
        <time>2021-08-17T16:26:46Z</time>
      </trkpt>
      <trkpt lat="44.51299" lon="2.90552">
        <ele>636.1</ele>
        <time>2021-08-17T16:26:48Z</time>
      </trkpt>
      <trkpt lat="44.51304" lon="2.90552">
        <ele>636.4</ele>
        <time>2021-08-17T16:26:50Z</time>
      </trkpt>
      <trkpt lat="44.51308" lon="2.90553">
        <ele>636.6</ele>
        <time>2021-08-17T16:26:52Z</time>
      </trkpt>
      <trkpt lat="44.51313" lon="2.90554">
        <ele>636.8</ele>
        <time>2021-08-17T16:26:54Z</time>
      </trkpt>
      <trkpt lat="44.51317" lon="2.90555">
        <ele>637</ele>
        <time>2021-08-17T16:26:56Z</time>
      </trkpt>
      <trkpt lat="44.51321" lon="2.90556">
        <ele>637.2</ele>
        <time>2021-08-17T16:26:58Z</time>
      </trkpt>
      <trkpt lat="44.51326" lon="2.90556">
        <ele>637.4</ele>
        <time>2021-08-17T16:27:00Z</time>
      </trkpt>
      <trkpt lat="44.5133" lon="2.90557">
        <ele>637.6</ele>
        <time>2021-08-17T16:27:02Z</time>
      </trkpt>
      <trkpt lat="44.51335" lon="2.90558">
        <ele>637.9</ele>
        <time>2021-08-17T16:27:04Z</time>
      </trkpt>
      <trkpt lat="44.51339" lon="2.90559">
        <ele>638.5</ele>
        <time>2021-08-17T16:27:06Z</time>
      </trkpt>
      <trkpt lat="44.51343" lon="2.90559">
        <ele>639.2</ele>
        <time>2021-08-17T16:27:08Z</time>
      </trkpt>
      <trkpt lat="44.51348" lon="2.9056">
        <ele>639.9</ele>
        <time>2021-08-17T16:27:10Z</time>
      </trkpt>
      <trkpt lat="44.51353" lon="2.90561">
        <ele>640.7</ele>
        <time>2021-08-17T16:27:12Z</time>
      </trkpt>
      <trkpt lat="44.51357" lon="2.90561">
        <ele>641.4</ele>
        <time>2021-08-17T16:27:14Z</time>
      </trkpt>
      <trkpt lat="44.51361" lon="2.90562">
        <ele>642.1</ele>
        <time>2021-08-17T16:27:16Z</time>
      </trkpt>
      <trkpt lat="44.51365" lon="2.90562">
        <ele>642.6</ele>
        <time>2021-08-17T16:27:18Z</time>
      </trkpt>
      <trkpt lat="44.51369" lon="2.90562">
        <ele>643.2</ele>
        <time>2021-08-17T16:27:20Z</time>
      </trkpt>
      <trkpt lat="44.51371" lon="2.90562">
        <ele>643.5</ele>
        <time>2021-08-17T16:27:22Z</time>
      </trkpt>
      <trkpt lat="44.51371" lon="2.90562">
        <ele>643.5</ele>
        <time>2021-08-17T16:27:24Z</time>
      </trkpt>
      <trkpt lat="44.51371" lon="2.90561">
        <ele>643.5</ele>
        <time>2021-08-17T16:27:26Z</time>
      </trkpt>
      <trkpt lat="44.51371" lon="2.90561">
        <ele>643.5</ele>
        <time>2021-08-17T16:27:28Z</time>
      </trkpt>
      <trkpt lat="44.51371" lon="2.90561">
        <ele>643.5</ele>
        <time>2021-08-17T16:27:30Z</time>
      </trkpt>
      <trkpt lat="44.51368" lon="2.90507">
        <ele>643.3</ele>
        <time>2021-08-17T16:28:22Z</time>
      </trkpt>
      <trkpt lat="44.5137" lon="2.90498">
        <ele>643.4</ele>
        <time>2021-08-17T16:28:24Z</time>
      </trkpt>
      <trkpt lat="44.51371" lon="2.9049">
        <ele>643.1</ele>
        <time>2021-08-17T16:28:26Z</time>
      </trkpt>
      <trkpt lat="44.51373" lon="2.90481">
        <ele>642.8</ele>
        <time>2021-08-17T16:28:28Z</time>
      </trkpt>
      <trkpt lat="44.51374" lon="2.90472">
        <ele>642.6</ele>
        <time>2021-08-17T16:28:30Z</time>
      </trkpt>
      <trkpt lat="44.51377" lon="2.90464">
        <ele>642.4</ele>
        <time>2021-08-17T16:28:32Z</time>
      </trkpt>
      <trkpt lat="44.51379" lon="2.90455">
        <ele>642.1</ele>
        <time>2021-08-17T16:28:34Z</time>
      </trkpt>
      <trkpt lat="44.51381" lon="2.90445">
        <ele>641.7</ele>
        <time>2021-08-17T16:28:36Z</time>
      </trkpt>
      <trkpt lat="44.51383" lon="2.90435">
        <ele>641.3</ele>
        <time>2021-08-17T16:28:38Z</time>
      </trkpt>
      <trkpt lat="44.51386" lon="2.90426">
        <ele>641</ele>
        <time>2021-08-17T16:28:40Z</time>
      </trkpt>
      <trkpt lat="44.51388" lon="2.90415">
        <ele>640.5</ele>
        <time>2021-08-17T16:28:42Z</time>
      </trkpt>
      <trkpt lat="44.51391" lon="2.90405">
        <ele>640.4</ele>
        <time>2021-08-17T16:28:44Z</time>
      </trkpt>
      <trkpt lat="44.51395" lon="2.90394">
        <ele>640.3</ele>
        <time>2021-08-17T16:28:46Z</time>
      </trkpt>
      <trkpt lat="44.514" lon="2.90383">
        <ele>640.3</ele>
        <time>2021-08-17T16:28:48Z</time>
      </trkpt>
      <trkpt lat="44.51404" lon="2.90373">
        <ele>640.2</ele>
        <time>2021-08-17T16:28:50Z</time>
      </trkpt>
      <trkpt lat="44.51409" lon="2.90364">
        <ele>640.1</ele>
        <time>2021-08-17T16:28:52Z</time>
      </trkpt>
      <trkpt lat="44.51414" lon="2.90356">
        <ele>640.1</ele>
        <time>2021-08-17T16:28:54Z</time>
      </trkpt>
      <trkpt lat="44.51419" lon="2.90349">
        <ele>640.2</ele>
        <time>2021-08-17T16:28:56Z</time>
      </trkpt>
      <trkpt lat="44.51424" lon="2.90343">
        <ele>640.4</ele>
        <time>2021-08-17T16:28:58Z</time>
      </trkpt>
      <trkpt lat="44.5143" lon="2.90337">
        <ele>640.6</ele>
        <time>2021-08-17T16:29:00Z</time>
      </trkpt>
      <trkpt lat="44.51437" lon="2.90328">
        <ele>640.6</ele>
        <time>2021-08-17T16:29:02Z</time>
      </trkpt>
      <trkpt lat="44.51444" lon="2.90318">
        <ele>640.4</ele>
        <time>2021-08-17T16:29:04Z</time>
      </trkpt>
      <trkpt lat="44.51451" lon="2.90305">
        <ele>640.1</ele>
        <time>2021-08-17T16:29:06Z</time>
      </trkpt>
      <trkpt lat="44.51457" lon="2.9029">
        <ele>639.5</ele>
        <time>2021-08-17T16:29:08Z</time>
      </trkpt>
      <trkpt lat="44.5146" lon="2.90274">
        <ele>638.5</ele>
        <time>2021-08-17T16:29:10Z</time>
      </trkpt>
      <trkpt lat="44.5146" lon="2.90258">
        <ele>637.3</ele>
        <time>2021-08-17T16:29:12Z</time>
      </trkpt>
      <trkpt lat="44.51458" lon="2.90244">
        <ele>636.2</ele>
        <time>2021-08-17T16:29:14Z</time>
      </trkpt>
      <trkpt lat="44.51457" lon="2.90231">
        <ele>635.5</ele>
        <time>2021-08-17T16:29:16Z</time>
      </trkpt>
      <trkpt lat="44.51457" lon="2.9022">
        <ele>634.9</ele>
        <time>2021-08-17T16:29:18Z</time>
      </trkpt>
      <trkpt lat="44.51457" lon="2.90209">
        <ele>634.4</ele>
        <time>2021-08-17T16:29:20Z</time>
      </trkpt>
      <trkpt lat="44.51458" lon="2.90196">
        <ele>633.8</ele>
        <time>2021-08-17T16:29:22Z</time>
      </trkpt>
      <trkpt lat="44.51456" lon="2.9018">
        <ele>632.8</ele>
        <time>2021-08-17T16:29:24Z</time>
      </trkpt>
      <trkpt lat="44.51451" lon="2.90164">
        <ele>631.6</ele>
        <time>2021-08-17T16:29:26Z</time>
      </trkpt>
      <trkpt lat="44.51446" lon="2.9015">
        <ele>631.9</ele>
        <time>2021-08-17T16:29:28Z</time>
      </trkpt>
      <trkpt lat="44.51443" lon="2.90137">
        <ele>632.4</ele>
        <time>2021-08-17T16:29:30Z</time>
      </trkpt>
      <trkpt lat="44.51439" lon="2.90126">
        <ele>632.6</ele>
        <time>2021-08-17T16:29:32Z</time>
      </trkpt>
      <trkpt lat="44.51433" lon="2.90116">
        <ele>632.4</ele>
        <time>2021-08-17T16:29:34Z</time>
      </trkpt>
      <trkpt lat="44.51427" lon="2.9011">
        <ele>631.8</ele>
        <time>2021-08-17T16:29:36Z</time>
      </trkpt>
      <trkpt lat="44.51421" lon="2.90105">
        <ele>631.1</ele>
        <time>2021-08-17T16:29:38Z</time>
      </trkpt>
      <trkpt lat="44.51415" lon="2.90099">
        <ele>630.6</ele>
        <time>2021-08-17T16:29:40Z</time>
      </trkpt>
      <trkpt lat="44.51409" lon="2.90091">
        <ele>630.3</ele>
        <time>2021-08-17T16:29:42Z</time>
      </trkpt>
      <trkpt lat="44.51404" lon="2.90081">
        <ele>630.1</ele>
        <time>2021-08-17T16:29:44Z</time>
      </trkpt>
      <trkpt lat="44.51399" lon="2.90072">
        <ele>630.2</ele>
        <time>2021-08-17T16:29:46Z</time>
      </trkpt>
      <trkpt lat="44.51394" lon="2.90064">
        <ele>630.1</ele>
        <time>2021-08-17T16:29:48Z</time>
      </trkpt>
      <trkpt lat="44.5139" lon="2.90056">
        <ele>630.2</ele>
        <time>2021-08-17T16:29:50Z</time>
      </trkpt>
      <trkpt lat="44.51386" lon="2.90049">
        <ele>630.2</ele>
        <time>2021-08-17T16:29:52Z</time>
      </trkpt>
      <trkpt lat="44.51382" lon="2.90042">
        <ele>630.1</ele>
        <time>2021-08-17T16:29:54Z</time>
      </trkpt>
      <trkpt lat="44.51378" lon="2.90036">
        <ele>629.9</ele>
        <time>2021-08-17T16:29:56Z</time>
      </trkpt>
      <trkpt lat="44.51377" lon="2.90031">
        <ele>630.3</ele>
        <time>2021-08-17T16:29:58Z</time>
      </trkpt>
      <trkpt lat="44.51378" lon="2.9003">
        <ele>630.5</ele>
        <time>2021-08-17T16:30:00Z</time>
      </trkpt>
      <trkpt lat="44.51378" lon="2.9003">
        <ele>630.6</ele>
        <time>2021-08-17T16:30:02Z</time>
      </trkpt>
      <trkpt lat="44.51378" lon="2.9003">
        <ele>630.6</ele>
        <time>2021-08-17T16:30:04Z</time>
      </trkpt>
      <trkpt lat="44.51378" lon="2.90029">
        <ele>630.6</ele>
        <time>2021-08-17T16:30:06Z</time>
      </trkpt>
      <trkpt lat="44.51376" lon="2.90023">
        <ele>631</ele>
        <time>2021-08-17T16:32:56Z</time>
      </trkpt>
      <trkpt lat="44.51376" lon="2.90023">
        <ele>631</ele>
        <time>2021-08-17T16:32:58Z</time>
      </trkpt>
      <trkpt lat="44.51375" lon="2.90022">
        <ele>630.9</ele>
        <time>2021-08-17T16:33:00Z</time>
      </trkpt>
      <trkpt lat="44.51374" lon="2.9002">
        <ele>630.9</ele>
        <time>2021-08-17T16:33:02Z</time>
      </trkpt>
      <trkpt lat="44.51372" lon="2.90017">
        <ele>630.8</ele>
        <time>2021-08-17T16:33:04Z</time>
      </trkpt>
      <trkpt lat="44.51368" lon="2.90013">
        <ele>630.6</ele>
        <time>2021-08-17T16:33:06Z</time>
      </trkpt>
      <trkpt lat="44.51365" lon="2.90009">
        <ele>630.4</ele>
        <time>2021-08-17T16:33:08Z</time>
      </trkpt>
      <trkpt lat="44.51363" lon="2.90007">
        <ele>630.3</ele>
        <time>2021-08-17T16:33:10Z</time>
      </trkpt>
      <trkpt lat="44.5136" lon="2.90003">
        <ele>630.2</ele>
        <time>2021-08-17T16:33:12Z</time>
      </trkpt>
      <trkpt lat="44.51358" lon="2.89999">
        <ele>630.1</ele>
        <time>2021-08-17T16:33:14Z</time>
      </trkpt>
      <trkpt lat="44.51357" lon="2.89997">
        <ele>629.9</ele>
        <time>2021-08-17T16:33:16Z</time>
      </trkpt>
      <trkpt lat="44.51356" lon="2.89995">
        <ele>629.8</ele>
        <time>2021-08-17T16:33:18Z</time>
      </trkpt>
      <trkpt lat="44.51356" lon="2.89996">
        <ele>629.7</ele>
        <time>2021-08-17T16:33:20Z</time>
      </trkpt>
      <trkpt lat="44.51355" lon="2.89996">
        <ele>629.7</ele>
        <time>2021-08-17T16:33:22Z</time>
      </trkpt>
      <trkpt lat="44.51354" lon="2.89995">
        <ele>629.5</ele>
        <time>2021-08-17T16:33:24Z</time>
      </trkpt>
      <trkpt lat="44.51362" lon="2.90002">
        <ele>630.7</ele>
        <time>2021-08-17T16:42:56Z</time>
      </trkpt>
      <trkpt lat="44.51364" lon="2.90004">
        <ele>630.7</ele>
        <time>2021-08-17T16:42:58Z</time>
      </trkpt>
      <trkpt lat="44.51366" lon="2.90009">
        <ele>630.6</ele>
        <time>2021-08-17T16:43:00Z</time>
      </trkpt>
      <trkpt lat="44.51369" lon="2.90014">
        <ele>630.6</ele>
        <time>2021-08-17T16:43:02Z</time>
      </trkpt>
      <trkpt lat="44.51371" lon="2.90017">
        <ele>630.7</ele>
        <time>2021-08-17T16:43:04Z</time>
      </trkpt>
      <trkpt lat="44.51374" lon="2.90019">
        <ele>631</ele>
        <time>2021-08-17T16:43:06Z</time>
      </trkpt>
      <trkpt lat="44.51375" lon="2.90022">
        <ele>630.9</ele>
        <time>2021-08-17T16:43:08Z</time>
      </trkpt>
      <trkpt lat="44.51377" lon="2.90023">
        <ele>631</ele>
        <time>2021-08-17T16:43:10Z</time>
      </trkpt>
      <trkpt lat="44.51379" lon="2.90025">
        <ele>631.3</ele>
        <time>2021-08-17T16:43:12Z</time>
      </trkpt>
      <trkpt lat="44.51381" lon="2.90027">
        <ele>631.5</ele>
        <time>2021-08-17T16:43:14Z</time>
      </trkpt>
      <trkpt lat="44.51383" lon="2.90029">
        <ele>631.6</ele>
        <time>2021-08-17T16:43:16Z</time>
      </trkpt>
      <trkpt lat="44.51385" lon="2.90029">
        <ele>631.8</ele>
        <time>2021-08-17T16:43:18Z</time>
      </trkpt>
      <trkpt lat="44.51386" lon="2.9003">
        <ele>632</ele>
        <time>2021-08-17T16:43:20Z</time>
      </trkpt>
      <trkpt lat="44.51386" lon="2.9003">
        <ele>631.9</ele>
        <time>2021-08-17T16:43:22Z</time>
      </trkpt>
      <trkpt lat="44.51386" lon="2.9003">
        <ele>631.9</ele>
        <time>2021-08-17T16:43:24Z</time>
      </trkpt>
      <trkpt lat="44.51425" lon="2.89948">
        <ele>642.1</ele>
        <time>2021-08-17T16:47:20Z</time>
      </trkpt>
      <trkpt lat="44.51425" lon="2.89945">
        <ele>642.3</ele>
        <time>2021-08-17T16:47:22Z</time>
      </trkpt>
      <trkpt lat="44.51425" lon="2.89942">
        <ele>642.4</ele>
        <time>2021-08-17T16:47:24Z</time>
      </trkpt>
      <trkpt lat="44.51425" lon="2.8994">
        <ele>642.4</ele>
        <time>2021-08-17T16:47:26Z</time>
      </trkpt>
      <trkpt lat="44.51426" lon="2.89937">
        <ele>642.6</ele>
        <time>2021-08-17T16:47:28Z</time>
      </trkpt>
      <trkpt lat="44.51426" lon="2.89934">
        <ele>642.6</ele>
        <time>2021-08-17T16:47:30Z</time>
      </trkpt>
      <trkpt lat="44.51425" lon="2.89931">
        <ele>642.5</ele>
        <time>2021-08-17T16:47:32Z</time>
      </trkpt>
      <trkpt lat="44.51425" lon="2.89928">
        <ele>642.4</ele>
        <time>2021-08-17T16:47:34Z</time>
      </trkpt>
      <trkpt lat="44.51425" lon="2.89926">
        <ele>642.5</ele>
        <time>2021-08-17T16:47:36Z</time>
      </trkpt>
      <trkpt lat="44.51425" lon="2.89923">
        <ele>642.5</ele>
        <time>2021-08-17T16:47:38Z</time>
      </trkpt>
      <trkpt lat="44.51425" lon="2.8992">
        <ele>642.4</ele>
        <time>2021-08-17T16:47:40Z</time>
      </trkpt>
      <trkpt lat="44.51424" lon="2.89917">
        <ele>642.3</ele>
        <time>2021-08-17T16:47:42Z</time>
      </trkpt>
      <trkpt lat="44.51424" lon="2.89915">
        <ele>642.4</ele>
        <time>2021-08-17T16:47:44Z</time>
      </trkpt>
      <trkpt lat="44.51424" lon="2.89912">
        <ele>642.6</ele>
        <time>2021-08-17T16:47:46Z</time>
      </trkpt>
      <trkpt lat="44.51425" lon="2.8991">
        <ele>642.9</ele>
        <time>2021-08-17T16:47:48Z</time>
      </trkpt>
      <trkpt lat="44.51426" lon="2.89903">
        <ele>643.4</ele>
        <time>2021-08-17T16:47:54Z</time>
      </trkpt>
      <trkpt lat="44.51426" lon="2.89901">
        <ele>643.5</ele>
        <time>2021-08-17T16:47:56Z</time>
      </trkpt>
      <trkpt lat="44.51426" lon="2.89898">
        <ele>643.6</ele>
        <time>2021-08-17T16:47:58Z</time>
      </trkpt>
      <trkpt lat="44.51426" lon="2.89895">
        <ele>643.7</ele>
        <time>2021-08-17T16:48:00Z</time>
      </trkpt>
      <trkpt lat="44.51426" lon="2.89893">
        <ele>643.7</ele>
        <time>2021-08-17T16:48:02Z</time>
      </trkpt>
      <trkpt lat="44.51425" lon="2.8989">
        <ele>643.7</ele>
        <time>2021-08-17T16:48:04Z</time>
      </trkpt>
      <trkpt lat="44.51425" lon="2.89887">
        <ele>643.7</ele>
        <time>2021-08-17T16:48:06Z</time>
      </trkpt>
      <trkpt lat="44.51424" lon="2.89885">
        <ele>643.4</ele>
        <time>2021-08-17T16:48:08Z</time>
      </trkpt>
      <trkpt lat="44.51423" lon="2.89882">
        <ele>643.2</ele>
        <time>2021-08-17T16:48:10Z</time>
      </trkpt>
      <trkpt lat="44.51421" lon="2.89881">
        <ele>642.5</ele>
        <time>2021-08-17T16:48:12Z</time>
      </trkpt>
      <trkpt lat="44.51419" lon="2.8988">
        <ele>642</ele>
        <time>2021-08-17T16:48:14Z</time>
      </trkpt>
      <trkpt lat="44.51418" lon="2.89879">
        <ele>641.8</ele>
        <time>2021-08-17T16:48:16Z</time>
      </trkpt>
      <trkpt lat="44.51418" lon="2.89879">
        <ele>641.9</ele>
        <time>2021-08-17T16:48:18Z</time>
      </trkpt>
      <trkpt lat="44.51418" lon="2.89879">
        <ele>641.8</ele>
        <time>2021-08-17T16:48:20Z</time>
      </trkpt>
      <trkpt lat="44.51418" lon="2.89879">
        <ele>641.9</ele>
        <time>2021-08-17T16:48:22Z</time>
      </trkpt>
    </trkseg>
      <trkpt lat="44.51428" lon="2.89874">
        <ele>645</ele>
        <time>2021-08-18T07:14:10Z</time>
      </trkpt>
      <trkpt lat="44.51427" lon="2.89878">
        <ele>644.7</ele>
        <time>2021-08-18T07:14:12Z</time>
      </trkpt>
      <trkpt lat="44.51426" lon="2.89883">
        <ele>644.3</ele>
        <time>2021-08-18T07:14:14Z</time>
      </trkpt>
      <trkpt lat="44.51427" lon="2.89887">
        <ele>644.2</ele>
        <time>2021-08-18T07:14:16Z</time>
      </trkpt>
      <trkpt lat="44.51427" lon="2.89891">
        <ele>644.2</ele>
        <time>2021-08-18T07:14:18Z</time>
      </trkpt>
      <trkpt lat="44.51426" lon="2.89896">
        <ele>643.8</ele>
        <time>2021-08-18T07:14:20Z</time>
      </trkpt>
      <trkpt lat="44.51427" lon="2.89899">
        <ele>643.8</ele>
        <time>2021-08-18T07:14:22Z</time>
      </trkpt>
      <trkpt lat="44.51427" lon="2.89903">
        <ele>643.7</ele>
        <time>2021-08-18T07:14:24Z</time>
      </trkpt>
      <trkpt lat="44.51427" lon="2.89908">
        <ele>643.4</ele>
        <time>2021-08-18T07:14:26Z</time>
      </trkpt>
      <trkpt lat="44.51426" lon="2.89912">
        <ele>643</ele>
        <time>2021-08-18T07:14:28Z</time>
      </trkpt>
      <trkpt lat="44.51425" lon="2.89917">
        <ele>642.7</ele>
        <time>2021-08-18T07:14:30Z</time>
      </trkpt>
      <trkpt lat="44.51426" lon="2.89922">
        <ele>642.8</ele>
        <time>2021-08-18T07:14:32Z</time>
      </trkpt>
      <trkpt lat="44.51426" lon="2.89926">
        <ele>642.9</ele>
        <time>2021-08-18T07:14:34Z</time>
      </trkpt>
      <trkpt lat="44.51426" lon="2.8993">
        <ele>642.9</ele>
        <time>2021-08-18T07:14:36Z</time>
      </trkpt>
      <trkpt lat="44.51427" lon="2.89934">
        <ele>643</ele>
        <time>2021-08-18T07:14:38Z</time>
      </trkpt>
      <trkpt lat="44.51427" lon="2.89938">
        <ele>642.9</ele>
        <time>2021-08-18T07:14:40Z</time>
      </trkpt>
      <trkpt lat="44.51427" lon="2.89942">
        <ele>642.8</ele>
        <time>2021-08-18T07:14:42Z</time>
      </trkpt>
      <trkpt lat="44.51426" lon="2.89948">
        <ele>642.6</ele>
        <time>2021-08-18T07:14:44Z</time>
      </trkpt>
      <trkpt lat="44.51425" lon="2.89952">
        <ele>642.3</ele>
        <time>2021-08-18T07:14:46Z</time>
      </trkpt>
      <trkpt lat="44.51425" lon="2.89957">
        <ele>642.1</ele>
        <time>2021-08-18T07:14:48Z</time>
      </trkpt>
      <trkpt lat="44.51425" lon="2.89962">
        <ele>642</ele>
        <time>2021-08-18T07:14:50Z</time>
      </trkpt>
      <trkpt lat="44.51424" lon="2.89968">
        <ele>641.8</ele>
        <time>2021-08-18T07:14:52Z</time>
      </trkpt>
      <trkpt lat="44.51423" lon="2.89972">
        <ele>641.6</ele>
        <time>2021-08-18T07:14:54Z</time>
      </trkpt>
      <trkpt lat="44.51423" lon="2.89977">
        <ele>641.4</ele>
        <time>2021-08-18T07:14:56Z</time>
      </trkpt>
      <trkpt lat="44.51422" lon="2.89983">
        <ele>641.2</ele>
        <time>2021-08-18T07:14:58Z</time>
      </trkpt>
      <trkpt lat="44.51422" lon="2.89988">
        <ele>641.1</ele>
        <time>2021-08-18T07:15:00Z</time>
      </trkpt>
      <trkpt lat="44.51421" lon="2.89995">
        <ele>640.9</ele>
        <time>2021-08-18T07:15:02Z</time>
      </trkpt>
      <trkpt lat="44.51421" lon="2.90001">
        <ele>640.7</ele>
        <time>2021-08-18T07:15:04Z</time>
      </trkpt>
      <trkpt lat="44.51421" lon="2.90006">
        <ele>640.2</ele>
        <time>2021-08-18T07:15:06Z</time>
      </trkpt>
      <trkpt lat="44.51421" lon="2.9001">
        <ele>639.7</ele>
        <time>2021-08-18T07:15:08Z</time>
      </trkpt>
      <trkpt lat="44.51421" lon="2.90011">
        <ele>639.7</ele>
        <time>2021-08-18T07:15:10Z</time>
      </trkpt>
      <trkpt lat="44.51421" lon="2.90012">
        <ele>639.6</ele>
        <time>2021-08-18T07:15:12Z</time>
      </trkpt>
      <trkpt lat="44.51421" lon="2.90016">
        <ele>639.3</ele>
        <time>2021-08-18T07:15:14Z</time>
      </trkpt>
      <trkpt lat="44.5142" lon="2.90017">
        <ele>639</ele>
        <time>2021-08-18T07:15:16Z</time>
      </trkpt>
      <trkpt lat="44.5142" lon="2.90017">
        <ele>639</ele>
        <time>2021-08-18T07:15:18Z</time>
      </trkpt>
      <trkpt lat="44.51419" lon="2.90017">
        <ele>638.8</ele>
        <time>2021-08-18T07:15:20Z</time>
      </trkpt>
      <trkpt lat="44.51419" lon="2.90017">
        <ele>638.8</ele>
        <time>2021-08-18T07:15:22Z</time>
      </trkpt>
      <trkpt lat="44.51418" lon="2.90017">
        <ele>638.6</ele>
        <time>2021-08-18T07:15:24Z</time>
      </trkpt>
      <trkpt lat="44.5139" lon="2.90032">
        <ele>632.5</ele>
        <time>2021-08-18T07:17:48Z</time>
      </trkpt>
      <trkpt lat="44.5139" lon="2.90032">
        <ele>632.4</ele>
        <time>2021-08-18T07:17:50Z</time>
      </trkpt>
      <trkpt lat="44.51389" lon="2.90032">
        <ele>632.4</ele>
        <time>2021-08-18T07:17:52Z</time>
      </trkpt>
      <trkpt lat="44.51386" lon="2.9003">
        <ele>631.9</ele>
        <time>2021-08-18T07:17:54Z</time>
      </trkpt>
      <trkpt lat="44.51382" lon="2.90029">
        <ele>631.5</ele>
        <time>2021-08-18T07:17:56Z</time>
      </trkpt>
      <trkpt lat="44.51379" lon="2.90027">
        <ele>631</ele>
        <time>2021-08-18T07:17:58Z</time>
      </trkpt>
      <trkpt lat="44.51374" lon="2.90025">
        <ele>630.4</ele>
        <time>2021-08-18T07:18:00Z</time>
      </trkpt>
      <trkpt lat="44.51371" lon="2.90023">
        <ele>630.1</ele>
        <time>2021-08-18T07:18:02Z</time>
      </trkpt>
      <trkpt lat="44.51368" lon="2.90018">
        <ele>630.1</ele>
        <time>2021-08-18T07:18:04Z</time>
      </trkpt>
      <trkpt lat="44.51367" lon="2.90014">
        <ele>630.3</ele>
        <time>2021-08-18T07:18:06Z</time>
      </trkpt>
      <trkpt lat="44.51366" lon="2.90011">
        <ele>630.5</ele>
        <time>2021-08-18T07:18:08Z</time>
      </trkpt>
      <trkpt lat="44.51365" lon="2.90009">
        <ele>630.4</ele>
        <time>2021-08-18T07:18:10Z</time>
      </trkpt>
      <trkpt lat="44.51365" lon="2.90008">
        <ele>630.5</ele>
        <time>2021-08-18T07:18:12Z</time>
      </trkpt>
      <trkpt lat="44.51365" lon="2.90008">
        <ele>630.5</ele>
        <time>2021-08-18T07:18:14Z</time>
      </trkpt>
      <trkpt lat="44.51365" lon="2.90008">
        <ele>630.5</ele>
        <time>2021-08-18T07:18:16Z</time>
      </trkpt>
      <trkpt lat="44.51365" lon="2.90008">
        <ele>630.6</ele>
        <time>2021-08-18T07:18:18Z</time>
      </trkpt>
      <trkpt lat="44.51359" lon="2.89997">
        <ele>630.4</ele>
        <time>2021-08-18T07:18:32Z</time>
      </trkpt>
      <trkpt lat="44.51356" lon="2.89993">
        <ele>629.9</ele>
        <time>2021-08-18T07:18:34Z</time>
      </trkpt>
      <trkpt lat="44.51353" lon="2.89989">
        <ele>629.4</ele>
        <time>2021-08-18T07:18:36Z</time>
      </trkpt>
      <trkpt lat="44.51349" lon="2.89985">
        <ele>628.6</ele>
        <time>2021-08-18T07:18:38Z</time>
      </trkpt>
      <trkpt lat="44.51345" lon="2.89981">
        <ele>628</ele>
        <time>2021-08-18T07:18:40Z</time>
      </trkpt>
      <trkpt lat="44.5134" lon="2.89979">
        <ele>627.2</ele>
        <time>2021-08-18T07:18:42Z</time>
      </trkpt>
      <trkpt lat="44.51335" lon="2.89977">
        <ele>626.3</ele>
        <time>2021-08-18T07:18:44Z</time>
      </trkpt>
      <trkpt lat="44.5133" lon="2.89975">
        <ele>625.5</ele>
        <time>2021-08-18T07:18:46Z</time>
      </trkpt>
      <trkpt lat="44.51324" lon="2.89974">
        <ele>624.5</ele>
        <time>2021-08-18T07:18:48Z</time>
      </trkpt>
      <trkpt lat="44.51317" lon="2.89976">
        <ele>623.4</ele>
        <time>2021-08-18T07:18:50Z</time>
      </trkpt>
      <trkpt lat="44.51312" lon="2.8998">
        <ele>622.5</ele>
        <time>2021-08-18T07:18:52Z</time>
      </trkpt>
      <trkpt lat="44.51307" lon="2.89984">
        <ele>621.7</ele>
        <time>2021-08-18T07:18:54Z</time>
      </trkpt>
      <trkpt lat="44.51303" lon="2.89988">
        <ele>621.1</ele>
        <time>2021-08-18T07:18:56Z</time>
      </trkpt>
      <trkpt lat="44.513" lon="2.89992">
        <ele>620.4</ele>
        <time>2021-08-18T07:18:58Z</time>
      </trkpt>
      <trkpt lat="44.51296" lon="2.89995">
        <ele>619.8</ele>
        <time>2021-08-18T07:19:00Z</time>
      </trkpt>
      <trkpt lat="44.51292" lon="2.89998">
        <ele>619.1</ele>
        <time>2021-08-18T07:19:02Z</time>
      </trkpt>
      <trkpt lat="44.51288" lon="2.89999">
        <ele>618.4</ele>
        <time>2021-08-18T07:19:04Z</time>
      </trkpt>
      <trkpt lat="44.51283" lon="2.89996">
        <ele>617.6</ele>
        <time>2021-08-18T07:19:06Z</time>
      </trkpt>
      <trkpt lat="44.51279" lon="2.89991">
        <ele>617.1</ele>
        <time>2021-08-18T07:19:08Z</time>
      </trkpt>
      <trkpt lat="44.51277" lon="2.89985">
        <ele>616.9</ele>
        <time>2021-08-18T07:19:10Z</time>
      </trkpt>
      <trkpt lat="44.51275" lon="2.89981">
        <ele>616.7</ele>
        <time>2021-08-18T07:19:12Z</time>
      </trkpt>
      <trkpt lat="44.51274" lon="2.89976">
        <ele>616.6</ele>
        <time>2021-08-18T07:19:14Z</time>
      </trkpt>
      <trkpt lat="44.51273" lon="2.89971">
        <ele>616.6</ele>
        <time>2021-08-18T07:19:16Z</time>
      </trkpt>
      <trkpt lat="44.51271" lon="2.89967">
        <ele>616.5</ele>
        <time>2021-08-18T07:19:18Z</time>
      </trkpt>
      <trkpt lat="44.5127" lon="2.89963">
        <ele>616.4</ele>
        <time>2021-08-18T07:19:20Z</time>
      </trkpt>
      <trkpt lat="44.51269" lon="2.8996">
        <ele>616.4</ele>
        <time>2021-08-18T07:19:22Z</time>
      </trkpt>
      <trkpt lat="44.51268" lon="2.89957">
        <ele>616.2</ele>
        <time>2021-08-18T07:19:24Z</time>
      </trkpt>
      <trkpt lat="44.51265" lon="2.89953">
        <ele>615.9</ele>
        <time>2021-08-18T07:19:26Z</time>
      </trkpt>
      <trkpt lat="44.51261" lon="2.89949">
        <ele>615.4</ele>
        <time>2021-08-18T07:19:28Z</time>
      </trkpt>
      <trkpt lat="44.51256" lon="2.89944">
        <ele>614.9</ele>
        <time>2021-08-18T07:19:30Z</time>
      </trkpt>
      <trkpt lat="44.51251" lon="2.89938">
        <ele>614.3</ele>
        <time>2021-08-18T07:19:32Z</time>
      </trkpt>
      <trkpt lat="44.51246" lon="2.89932">
        <ele>613.8</ele>
        <time>2021-08-18T07:19:34Z</time>
      </trkpt>
      <trkpt lat="44.51241" lon="2.89927">
        <ele>613.1</ele>
        <time>2021-08-18T07:19:36Z</time>
      </trkpt>
      <trkpt lat="44.51235" lon="2.89922">
        <ele>612.4</ele>
        <time>2021-08-18T07:19:38Z</time>
      </trkpt>
      <trkpt lat="44.5123" lon="2.89918">
        <ele>611.5</ele>
        <time>2021-08-18T07:19:40Z</time>
      </trkpt>
      <trkpt lat="44.51223" lon="2.89914">
        <ele>610.4</ele>
        <time>2021-08-18T07:19:42Z</time>
      </trkpt>
      <trkpt lat="44.51217" lon="2.89911">
        <ele>609.3</ele>
        <time>2021-08-18T07:19:44Z</time>
      </trkpt>
      <trkpt lat="44.51211" lon="2.8991">
        <ele>608.2</ele>
        <time>2021-08-18T07:19:46Z</time>
      </trkpt>
      <trkpt lat="44.51204" lon="2.89908">
        <ele>607.1</ele>
        <time>2021-08-18T07:19:48Z</time>
      </trkpt>
      <trkpt lat="44.51198" lon="2.89909">
        <ele>606.1</ele>
        <time>2021-08-18T07:19:50Z</time>
      </trkpt>
      <trkpt lat="44.51193" lon="2.89912">
        <ele>605.3</ele>
        <time>2021-08-18T07:19:52Z</time>
      </trkpt>
      <trkpt lat="44.51188" lon="2.89917">
        <ele>604.5</ele>
        <time>2021-08-18T07:19:54Z</time>
      </trkpt>
      <trkpt lat="44.51183" lon="2.89924">
        <ele>603.6</ele>
        <time>2021-08-18T07:19:56Z</time>
      </trkpt>
      <trkpt lat="44.51181" lon="2.89932">
        <ele>602.9</ele>
        <time>2021-08-18T07:19:58Z</time>
      </trkpt>
      <trkpt lat="44.5118" lon="2.89941">
        <ele>602.6</ele>
        <time>2021-08-18T07:20:00Z</time>
      </trkpt>
      <trkpt lat="44.51181" lon="2.89951">
        <ele>602.5</ele>
        <time>2021-08-18T07:20:02Z</time>
      </trkpt>
      <trkpt lat="44.51183" lon="2.8996">
        <ele>602.7</ele>
        <time>2021-08-18T07:20:04Z</time>
      </trkpt>
      <trkpt lat="44.51185" lon="2.89969">
        <ele>602.7</ele>
        <time>2021-08-18T07:20:06Z</time>
      </trkpt>
      <trkpt lat="44.51185" lon="2.89978">
        <ele>602.4</ele>
        <time>2021-08-18T07:20:08Z</time>
      </trkpt>
      <trkpt lat="44.51182" lon="2.89985">
        <ele>601.8</ele>
        <time>2021-08-18T07:20:10Z</time>
      </trkpt>
      <trkpt lat="44.51178" lon="2.89986">
        <ele>601.1</ele>
        <time>2021-08-18T07:20:12Z</time>
      </trkpt>
      <trkpt lat="44.51175" lon="2.89985">
        <ele>600.7</ele>
        <time>2021-08-18T07:20:14Z</time>
      </trkpt>
      <trkpt lat="44.51173" lon="2.89983">
        <ele>600.4</ele>
        <time>2021-08-18T07:20:16Z</time>
      </trkpt>
      <trkpt lat="44.51173" lon="2.89983">
        <ele>600.4</ele>
        <time>2021-08-18T07:20:18Z</time>
      </trkpt>
      <trkpt lat="44.51173" lon="2.89983">
        <ele>600.4</ele>
        <time>2021-08-18T07:20:20Z</time>
      </trkpt>
      <trkpt lat="44.51173" lon="2.89983">
        <ele>600.4</ele>
        <time>2021-08-18T07:20:22Z</time>
      </trkpt>
      <trkpt lat="44.51173" lon="2.89983">
        <ele>600.4</ele>
        <time>2021-08-18T07:20:24Z</time>
      </trkpt>
      <trkpt lat="44.51168" lon="2.89965">
        <ele>600</ele>
        <time>2021-08-18T07:20:48Z</time>
      </trkpt>
      <trkpt lat="44.51167" lon="2.89957">
        <ele>600.1</ele>
        <time>2021-08-18T07:20:50Z</time>
      </trkpt>
      <trkpt lat="44.51165" lon="2.89949">
        <ele>600</ele>
        <time>2021-08-18T07:20:52Z</time>
      </trkpt>
      <trkpt lat="44.51164" lon="2.8994">
        <ele>600.1</ele>
        <time>2021-08-18T07:20:54Z</time>
      </trkpt>
      <trkpt lat="44.51163" lon="2.89932">
        <ele>600.1</ele>
        <time>2021-08-18T07:20:56Z</time>
      </trkpt>
      <trkpt lat="44.5116" lon="2.89922">
        <ele>600.1</ele>
        <time>2021-08-18T07:20:58Z</time>
      </trkpt>
      <trkpt lat="44.5116" lon="2.89912">
        <ele>600</ele>
        <time>2021-08-18T07:21:00Z</time>
      </trkpt>
      <trkpt lat="44.51157" lon="2.89901">
        <ele>599.6</ele>
        <time>2021-08-18T07:21:02Z</time>
      </trkpt>
      <trkpt lat="44.51156" lon="2.89889">
        <ele>599.2</ele>
        <time>2021-08-18T07:21:04Z</time>
      </trkpt>
      <trkpt lat="44.51154" lon="2.89875">
        <ele>598.9</ele>
        <time>2021-08-18T07:21:06Z</time>
      </trkpt>
      <trkpt lat="44.51152" lon="2.8986">
        <ele>598.5</ele>
        <time>2021-08-18T07:21:08Z</time>
      </trkpt>
      <trkpt lat="44.51151" lon="2.89843">
        <ele>598.2</ele>
        <time>2021-08-18T07:21:10Z</time>
      </trkpt>
      <trkpt lat="44.51151" lon="2.89824">
        <ele>597.5</ele>
        <time>2021-08-18T07:21:12Z</time>
      </trkpt>
      <trkpt lat="44.5115" lon="2.89803">
        <ele>596</ele>
        <time>2021-08-18T07:21:14Z</time>
      </trkpt>
      <trkpt lat="44.5115" lon="2.89781">
        <ele>594.5</ele>
        <time>2021-08-18T07:21:16Z</time>
      </trkpt>
      <trkpt lat="44.5115" lon="2.89758">
        <ele>592.9</ele>
        <time>2021-08-18T07:21:18Z</time>
      </trkpt>
      <trkpt lat="44.51149" lon="2.89734">
        <ele>591.8</ele>
        <time>2021-08-18T07:21:20Z</time>
      </trkpt>
      <trkpt lat="44.51149" lon="2.8971">
        <ele>591.2</ele>
        <time>2021-08-18T07:21:22Z</time>
      </trkpt>
      <trkpt lat="44.51148" lon="2.89688">
        <ele>590.4</ele>
        <time>2021-08-18T07:21:24Z</time>
      </trkpt>
      <trkpt lat="44.51146" lon="2.89667">
        <ele>589.6</ele>
        <time>2021-08-18T07:21:26Z</time>
      </trkpt>
      <trkpt lat="44.51143" lon="2.89648">
        <ele>590.5</ele>
        <time>2021-08-18T07:21:28Z</time>
      </trkpt>
      <trkpt lat="44.51136" lon="2.89632">
        <ele>590.8</ele>
        <time>2021-08-18T07:21:30Z</time>
      </trkpt>
      <trkpt lat="44.5113" lon="2.89618">
        <ele>591.1</ele>
        <time>2021-08-18T07:21:32Z</time>
      </trkpt>
      <trkpt lat="44.51122" lon="2.89605">
        <ele>591.1</ele>
        <time>2021-08-18T07:21:34Z</time>
      </trkpt>
      <trkpt lat="44.51115" lon="2.89593">
        <ele>591</ele>
        <time>2021-08-18T07:21:36Z</time>
      </trkpt>
      <trkpt lat="44.51107" lon="2.89582">
        <ele>590.9</ele>
        <time>2021-08-18T07:21:38Z</time>
      </trkpt>
      <trkpt lat="44.511" lon="2.89569">
        <ele>590.5</ele>
        <time>2021-08-18T07:21:40Z</time>
      </trkpt>
      <trkpt lat="44.51092" lon="2.89555">
        <ele>590</ele>
        <time>2021-08-18T07:21:42Z</time>
      </trkpt>
      <trkpt lat="44.51085" lon="2.8954">
        <ele>589.2</ele>
        <time>2021-08-18T07:21:44Z</time>
      </trkpt>
      <trkpt lat="44.51077" lon="2.89525">
        <ele>588.7</ele>
        <time>2021-08-18T07:21:46Z</time>
      </trkpt>
      <trkpt lat="44.5107" lon="2.89509">
        <ele>588.3</ele>
        <time>2021-08-18T07:21:48Z</time>
      </trkpt>
      <trkpt lat="44.51062" lon="2.89493">
        <ele>587.9</ele>
        <time>2021-08-18T07:21:50Z</time>
      </trkpt>
      <trkpt lat="44.51055" lon="2.89477">
        <ele>587.8</ele>
        <time>2021-08-18T07:21:52Z</time>
      </trkpt>
      <trkpt lat="44.51049" lon="2.89461">
        <ele>587.7</ele>
        <time>2021-08-18T07:21:54Z</time>
      </trkpt>
      <trkpt lat="44.51044" lon="2.89443">
        <ele>587.8</ele>
        <time>2021-08-18T07:21:56Z</time>
      </trkpt>
      <trkpt lat="44.51041" lon="2.89425">
        <ele>588.2</ele>
        <time>2021-08-18T07:21:58Z</time>
      </trkpt>
      <trkpt lat="44.5104" lon="2.89407">
        <ele>588.1</ele>
        <time>2021-08-18T07:22:00Z</time>
      </trkpt>
      <trkpt lat="44.5104" lon="2.89388">
        <ele>587.6</ele>
        <time>2021-08-18T07:22:02Z</time>
      </trkpt>
      <trkpt lat="44.51041" lon="2.8937">
        <ele>587.3</ele>
        <time>2021-08-18T07:22:04Z</time>
      </trkpt>
      <trkpt lat="44.51042" lon="2.89351">
        <ele>587</ele>
        <time>2021-08-18T07:22:06Z</time>
      </trkpt>
      <trkpt lat="44.51044" lon="2.89333">
        <ele>586.8</ele>
        <time>2021-08-18T07:22:08Z</time>
      </trkpt>
      <trkpt lat="44.51045" lon="2.89315">
        <ele>586.4</ele>
        <time>2021-08-18T07:22:10Z</time>
      </trkpt>
      <trkpt lat="44.51047" lon="2.89296">
        <ele>586.1</ele>
        <time>2021-08-18T07:22:12Z</time>
      </trkpt>
      <trkpt lat="44.51049" lon="2.89277">
        <ele>585.7</ele>
        <time>2021-08-18T07:22:14Z</time>
      </trkpt>
      <trkpt lat="44.51051" lon="2.89258">
        <ele>585.4</ele>
        <time>2021-08-18T07:22:16Z</time>
      </trkpt>
      <trkpt lat="44.51052" lon="2.89239">
        <ele>585.2</ele>
        <time>2021-08-18T07:22:18Z</time>
      </trkpt>
      <trkpt lat="44.51053" lon="2.8922">
        <ele>585</ele>
        <time>2021-08-18T07:22:20Z</time>
      </trkpt>
      <trkpt lat="44.51053" lon="2.892">
        <ele>584.7</ele>
        <time>2021-08-18T07:22:22Z</time>
      </trkpt>
      <trkpt lat="44.51053" lon="2.89181">
        <ele>584.3</ele>
        <time>2021-08-18T07:22:24Z</time>
      </trkpt>
      <trkpt lat="44.51052" lon="2.89162">
        <ele>583.8</ele>
        <time>2021-08-18T07:22:26Z</time>
      </trkpt>
      <trkpt lat="44.51052" lon="2.89142">
        <ele>582.6</ele>
        <time>2021-08-18T07:22:28Z</time>
      </trkpt>
      <trkpt lat="44.51051" lon="2.89122">
        <ele>581.4</ele>
        <time>2021-08-18T07:22:30Z</time>
      </trkpt>
      <trkpt lat="44.51052" lon="2.89101">
        <ele>580.2</ele>
        <time>2021-08-18T07:22:32Z</time>
      </trkpt>
      <trkpt lat="44.51053" lon="2.8908">
        <ele>579.1</ele>
        <time>2021-08-18T07:22:34Z</time>
      </trkpt>
      <trkpt lat="44.51056" lon="2.8906">
        <ele>577.9</ele>
        <time>2021-08-18T07:22:36Z</time>
      </trkpt>
      <trkpt lat="44.51063" lon="2.89043">
        <ele>577.2</ele>
        <time>2021-08-18T07:22:38Z</time>
      </trkpt>
      <trkpt lat="44.51074" lon="2.89029">
        <ele>576.6</ele>
        <time>2021-08-18T07:22:40Z</time>
      </trkpt>
      <trkpt lat="44.51088" lon="2.8902">
        <ele>576.4</ele>
        <time>2021-08-18T07:22:42Z</time>
      </trkpt>
      <trkpt lat="44.51103" lon="2.89019">
        <ele>577</ele>
        <time>2021-08-18T07:22:44Z</time>
      </trkpt>
      <trkpt lat="44.51118" lon="2.8902">
        <ele>578</ele>
        <time>2021-08-18T07:22:46Z</time>
      </trkpt>
      <trkpt lat="44.51132" lon="2.89023">
        <ele>578.9</ele>
        <time>2021-08-18T07:22:48Z</time>
      </trkpt>
      <trkpt lat="44.51142" lon="2.89023">
        <ele>579.5</ele>
        <time>2021-08-18T07:22:50Z</time>
      </trkpt>
      <trkpt lat="44.51152" lon="2.89022">
        <ele>579.8</ele>
        <time>2021-08-18T07:22:52Z</time>
      </trkpt>
      <trkpt lat="44.51161" lon="2.89018">
        <ele>579.8</ele>
        <time>2021-08-18T07:22:54Z</time>
      </trkpt>
      <trkpt lat="44.51166" lon="2.89011">
        <ele>579.3</ele>
        <time>2021-08-18T07:22:56Z</time>
      </trkpt>
      <trkpt lat="44.51169" lon="2.89005">
        <ele>579.2</ele>
        <time>2021-08-18T07:22:58Z</time>
      </trkpt>
      <trkpt lat="44.51168" lon="2.89004">
        <ele>578.9</ele>
        <time>2021-08-18T07:23:00Z</time>
      </trkpt>
      <trkpt lat="44.51168" lon="2.89004">
        <ele>578.9</ele>
        <time>2021-08-18T07:23:02Z</time>
      </trkpt>
      <trkpt lat="44.51168" lon="2.89004">
        <ele>578.9</ele>
        <time>2021-08-18T07:23:04Z</time>
      </trkpt>
      <trkpt lat="44.51169" lon="2.89004">
        <ele>579</ele>
        <time>2021-08-18T07:23:06Z</time>
      </trkpt>
      <trkpt lat="44.51162" lon="2.88982">
        <ele>578.1</ele>
        <time>2021-08-18T07:24:36Z</time>
      </trkpt>
      <trkpt lat="44.51159" lon="2.88974">
        <ele>577.9</ele>
        <time>2021-08-18T07:24:38Z</time>
      </trkpt>
      <trkpt lat="44.51154" lon="2.88967">
        <ele>577.5</ele>
        <time>2021-08-18T07:24:40Z</time>
      </trkpt>
      <trkpt lat="44.51148" lon="2.88958">
        <ele>576.9</ele>
        <time>2021-08-18T07:24:42Z</time>
      </trkpt>
      <trkpt lat="44.51142" lon="2.88949">
        <ele>576.1</ele>
        <time>2021-08-18T07:24:44Z</time>
      </trkpt>
      <trkpt lat="44.51137" lon="2.88939">
        <ele>575.1</ele>
        <time>2021-08-18T07:24:46Z</time>
      </trkpt>
      <trkpt lat="44.51132" lon="2.88926">
        <ele>574.1</ele>
        <time>2021-08-18T07:24:48Z</time>
      </trkpt>
      <trkpt lat="44.51128" lon="2.88914">
        <ele>573.3</ele>
        <time>2021-08-18T07:24:50Z</time>
      </trkpt>
      <trkpt lat="44.51124" lon="2.88901">
        <ele>573.5</ele>
        <time>2021-08-18T07:24:52Z</time>
      </trkpt>
      <trkpt lat="44.51121" lon="2.88889">
        <ele>573.7</ele>
        <time>2021-08-18T07:24:54Z</time>
      </trkpt>
      <trkpt lat="44.51117" lon="2.88878">
        <ele>573.7</ele>
        <time>2021-08-18T07:24:56Z</time>
      </trkpt>
      <trkpt lat="44.51115" lon="2.88867">
        <ele>573.8</ele>
        <time>2021-08-18T07:24:58Z</time>
      </trkpt>
      <trkpt lat="44.51109" lon="2.88857">
        <ele>573.2</ele>
        <time>2021-08-18T07:25:00Z</time>
      </trkpt>
      <trkpt lat="44.51104" lon="2.88848">
        <ele>572.4</ele>
        <time>2021-08-18T07:25:02Z</time>
      </trkpt>
      <trkpt lat="44.51097" lon="2.88838">
        <ele>571.3</ele>
        <time>2021-08-18T07:25:04Z</time>
      </trkpt>
      <trkpt lat="44.51089" lon="2.88829">
        <ele>569.6</ele>
        <time>2021-08-18T07:25:06Z</time>
      </trkpt>
      <trkpt lat="44.51079" lon="2.88821">
        <ele>568</ele>
        <time>2021-08-18T07:25:08Z</time>
      </trkpt>
      <trkpt lat="44.51069" lon="2.88812">
        <ele>566.8</ele>
        <time>2021-08-18T07:25:10Z</time>
      </trkpt>
      <trkpt lat="44.5106" lon="2.88801">
        <ele>565.8</ele>
        <time>2021-08-18T07:25:12Z</time>
      </trkpt>
      <trkpt lat="44.51051" lon="2.88788">
        <ele>564.9</ele>
        <time>2021-08-18T07:25:14Z</time>
      </trkpt>
      <trkpt lat="44.51045" lon="2.88773">
        <ele>564.5</ele>
        <time>2021-08-18T07:25:16Z</time>
      </trkpt>
      <trkpt lat="44.51041" lon="2.88755">
        <ele>564.6</ele>
        <time>2021-08-18T07:25:18Z</time>
      </trkpt>
      <trkpt lat="44.51039" lon="2.88736">
        <ele>563.8</ele>
        <time>2021-08-18T07:25:20Z</time>
      </trkpt>
      <trkpt lat="44.51042" lon="2.88716">
        <ele>563.2</ele>
        <time>2021-08-18T07:25:22Z</time>
      </trkpt>
      <trkpt lat="44.51047" lon="2.88696">
        <ele>563.3</ele>
        <time>2021-08-18T07:25:24Z</time>
      </trkpt>
      <trkpt lat="44.51055" lon="2.88678">
        <ele>564</ele>
        <time>2021-08-18T07:25:26Z</time>
      </trkpt>
      <trkpt lat="44.51063" lon="2.88658">
        <ele>564.6</ele>
        <time>2021-08-18T07:25:28Z</time>
      </trkpt>
      <trkpt lat="44.51072" lon="2.88639">
        <ele>564.6</ele>
        <time>2021-08-18T07:25:30Z</time>
      </trkpt>
      <trkpt lat="44.51078" lon="2.88618">
        <ele>564.1</ele>
        <time>2021-08-18T07:25:32Z</time>
      </trkpt>
      <trkpt lat="44.51079" lon="2.88595">
        <ele>562.2</ele>
        <time>2021-08-18T07:25:34Z</time>
      </trkpt>
      <trkpt lat="44.51076" lon="2.88573">
        <ele>561</ele>
        <time>2021-08-18T07:25:36Z</time>
      </trkpt>
      <trkpt lat="44.51069" lon="2.88554">
        <ele>560.7</ele>
        <time>2021-08-18T07:25:38Z</time>
      </trkpt>
      <trkpt lat="44.51058" lon="2.88539">
        <ele>559.7</ele>
        <time>2021-08-18T07:25:40Z</time>
      </trkpt>
      <trkpt lat="44.51046" lon="2.88528">
        <ele>558.3</ele>
        <time>2021-08-18T07:25:42Z</time>
      </trkpt>
      <trkpt lat="44.51033" lon="2.88517">
        <ele>557</ele>
        <time>2021-08-18T07:25:44Z</time>
      </trkpt>
      <trkpt lat="44.51022" lon="2.88509">
        <ele>555.7</ele>
        <time>2021-08-18T07:25:46Z</time>
      </trkpt>
      <trkpt lat="44.51016" lon="2.88504">
        <ele>555.3</ele>
        <time>2021-08-18T07:25:48Z</time>
      </trkpt>
      <trkpt lat="44.51016" lon="2.88498">
        <ele>555.7</ele>
        <time>2021-08-18T07:25:50Z</time>
      </trkpt>
      <trkpt lat="44.51016" lon="2.88499">
        <ele>555.7</ele>
        <time>2021-08-18T07:25:52Z</time>
      </trkpt>
      <trkpt lat="44.51016" lon="2.88498">
        <ele>555.8</ele>
        <time>2021-08-18T07:25:54Z</time>
      </trkpt>
      <trkpt lat="44.51016" lon="2.88499">
        <ele>555.7</ele>
        <time>2021-08-18T07:25:56Z</time>
      </trkpt>
      <trkpt lat="44.51016" lon="2.88499">
        <ele>555.7</ele>
        <time>2021-08-18T07:25:58Z</time>
      </trkpt>
      <trkpt lat="44.51016" lon="2.88499">
        <ele>555.7</ele>
        <time>2021-08-18T07:26:00Z</time>
      </trkpt>
      <trkpt lat="44.50995" lon="2.8849">
        <ele>552.7</ele>
        <time>2021-08-18T07:26:58Z</time>
      </trkpt>
      <trkpt lat="44.50989" lon="2.88487">
        <ele>552</ele>
        <time>2021-08-18T07:27:00Z</time>
      </trkpt>
      <trkpt lat="44.50983" lon="2.88483">
        <ele>551.4</ele>
        <time>2021-08-18T07:27:02Z</time>
      </trkpt>
      <trkpt lat="44.50977" lon="2.88479">
        <ele>550.9</ele>
        <time>2021-08-18T07:27:04Z</time>
      </trkpt>
      <trkpt lat="44.50971" lon="2.88474">
        <ele>550.3</ele>
        <time>2021-08-18T07:27:06Z</time>
      </trkpt>
      <trkpt lat="44.50965" lon="2.88469">
        <ele>549.7</ele>
        <time>2021-08-18T07:27:08Z</time>
      </trkpt>
      <trkpt lat="44.50958" lon="2.88461">
        <ele>549.5</ele>
        <time>2021-08-18T07:27:10Z</time>
      </trkpt>
      <trkpt lat="44.50953" lon="2.88453">
        <ele>549.4</ele>
        <time>2021-08-18T07:27:12Z</time>
      </trkpt>
      <trkpt lat="44.50946" lon="2.88444">
        <ele>549.5</ele>
        <time>2021-08-18T07:27:14Z</time>
      </trkpt>
      <trkpt lat="44.50939" lon="2.88434">
        <ele>549.6</ele>
        <time>2021-08-18T07:27:16Z</time>
      </trkpt>
      <trkpt lat="44.50932" lon="2.88424">
        <ele>549.9</ele>
        <time>2021-08-18T07:27:18Z</time>
      </trkpt>
      <trkpt lat="44.50924" lon="2.88411">
        <ele>549.8</ele>
        <time>2021-08-18T07:27:20Z</time>
      </trkpt>
      <trkpt lat="44.50918" lon="2.88398">
        <ele>549.1</ele>
        <time>2021-08-18T07:27:22Z</time>
      </trkpt>
      <trkpt lat="44.50912" lon="2.88383">
        <ele>547.9</ele>
        <time>2021-08-18T07:27:24Z</time>
      </trkpt>
      <trkpt lat="44.50908" lon="2.88368">
        <ele>547</ele>
        <time>2021-08-18T07:27:26Z</time>
      </trkpt>
      <trkpt lat="44.50904" lon="2.88354">
        <ele>546.4</ele>
        <time>2021-08-18T07:27:28Z</time>
      </trkpt>
      <trkpt lat="44.50903" lon="2.88341">
        <ele>546.4</ele>
        <time>2021-08-18T07:27:30Z</time>
      </trkpt>
      <trkpt lat="44.50905" lon="2.88337">
        <ele>546.8</ele>
        <time>2021-08-18T07:27:32Z</time>
      </trkpt>
      <trkpt lat="44.50905" lon="2.88337">
        <ele>546.8</ele>
        <time>2021-08-18T07:27:34Z</time>
      </trkpt>
      <trkpt lat="44.50905" lon="2.88337">
        <ele>546.8</ele>
        <time>2021-08-18T07:27:36Z</time>
      </trkpt>
      <trkpt lat="44.50904" lon="2.88335">
        <ele>546.8</ele>
        <time>2021-08-18T07:27:38Z</time>
      </trkpt>
      <trkpt lat="44.50903" lon="2.88336">
        <ele>546.5</ele>
        <time>2021-08-18T07:27:40Z</time>
      </trkpt>
      <trkpt lat="44.50904" lon="2.88327">
        <ele>546</ele>
        <time>2021-08-18T07:33:16Z</time>
      </trkpt>
      <trkpt lat="44.50909" lon="2.88318">
        <ele>545.7</ele>
        <time>2021-08-18T07:33:18Z</time>
      </trkpt>
      <trkpt lat="44.50913" lon="2.88309">
        <ele>545.2</ele>
        <time>2021-08-18T07:33:20Z</time>
      </trkpt>
      <trkpt lat="44.50917" lon="2.88298">
        <ele>544.4</ele>
        <time>2021-08-18T07:33:22Z</time>
      </trkpt>
      <trkpt lat="44.50922" lon="2.88286">
        <ele>543</ele>
        <time>2021-08-18T07:33:24Z</time>
      </trkpt>
      <trkpt lat="44.50927" lon="2.88275">
        <ele>541.7</ele>
        <time>2021-08-18T07:33:26Z</time>
      </trkpt>
      <trkpt lat="44.50934" lon="2.88264">
        <ele>540.5</ele>
        <time>2021-08-18T07:33:28Z</time>
      </trkpt>
      <trkpt lat="44.50944" lon="2.88255">
        <ele>539.8</ele>
        <time>2021-08-18T07:33:30Z</time>
      </trkpt>
      <trkpt lat="44.50956" lon="2.88251">
        <ele>539.5</ele>
        <time>2021-08-18T07:33:32Z</time>
      </trkpt>
      <trkpt lat="44.50969" lon="2.88248">
        <ele>539.4</ele>
        <time>2021-08-18T07:33:34Z</time>
      </trkpt>
      <trkpt lat="44.50982" lon="2.88247">
        <ele>539.5</ele>
        <time>2021-08-18T07:33:36Z</time>
      </trkpt>
      <trkpt lat="44.50995" lon="2.88244">
        <ele>539.3</ele>
        <time>2021-08-18T07:33:38Z</time>
      </trkpt>
      <trkpt lat="44.51009" lon="2.88237">
        <ele>538.2</ele>
        <time>2021-08-18T07:33:40Z</time>
      </trkpt>
      <trkpt lat="44.51022" lon="2.8823">
        <ele>537</ele>
        <time>2021-08-18T07:33:42Z</time>
      </trkpt>
      <trkpt lat="44.51033" lon="2.88223">
        <ele>535.7</ele>
        <time>2021-08-18T07:33:44Z</time>
      </trkpt>
      <trkpt lat="44.51042" lon="2.88218">
        <ele>534.8</ele>
        <time>2021-08-18T07:33:46Z</time>
      </trkpt>
      <trkpt lat="44.51051" lon="2.88212">
        <ele>533.7</ele>
        <time>2021-08-18T07:33:48Z</time>
      </trkpt>
      <trkpt lat="44.51059" lon="2.88207">
        <ele>532.9</ele>
        <time>2021-08-18T07:33:50Z</time>
      </trkpt>
      <trkpt lat="44.51067" lon="2.88204">
        <ele>532.3</ele>
        <time>2021-08-18T07:33:52Z</time>
      </trkpt>
      <trkpt lat="44.51074" lon="2.88199">
        <ele>531.4</ele>
        <time>2021-08-18T07:33:54Z</time>
      </trkpt>
      <trkpt lat="44.51082" lon="2.88194">
        <ele>530.6</ele>
        <time>2021-08-18T07:33:56Z</time>
      </trkpt>
      <trkpt lat="44.51089" lon="2.8819">
        <ele>530.2</ele>
        <time>2021-08-18T07:33:58Z</time>
      </trkpt>
      <trkpt lat="44.51096" lon="2.88186">
        <ele>530.2</ele>
        <time>2021-08-18T07:34:00Z</time>
      </trkpt>
      <trkpt lat="44.51101" lon="2.88182">
        <ele>530</ele>
        <time>2021-08-18T07:34:02Z</time>
      </trkpt>
      <trkpt lat="44.51105" lon="2.88176">
        <ele>529.2</ele>
        <time>2021-08-18T07:34:04Z</time>
      </trkpt>
      <trkpt lat="44.51105" lon="2.88172">
        <ele>528.3</ele>
        <time>2021-08-18T07:34:06Z</time>
      </trkpt>
      <trkpt lat="44.51103" lon="2.8817">
        <ele>527.5</ele>
        <time>2021-08-18T07:34:08Z</time>
      </trkpt>
      <trkpt lat="44.511" lon="2.88169">
        <ele>527</ele>
        <time>2021-08-18T07:34:10Z</time>
      </trkpt>
      <trkpt lat="44.51098" lon="2.88169">
        <ele>526.7</ele>
        <time>2021-08-18T07:34:12Z</time>
      </trkpt>
      <trkpt lat="44.51097" lon="2.8817">
        <ele>526.7</ele>
        <time>2021-08-18T07:34:14Z</time>
      </trkpt>
      <trkpt lat="44.51153" lon="2.88167">
        <ele>534.1</ele>
        <time>2021-08-18T07:39:00Z</time>
      </trkpt>
      <trkpt lat="44.51163" lon="2.88165">
        <ele>535.2</ele>
        <time>2021-08-18T07:39:02Z</time>
      </trkpt>
      <trkpt lat="44.51173" lon="2.88158">
        <ele>535.5</ele>
        <time>2021-08-18T07:39:04Z</time>
      </trkpt>
      <trkpt lat="44.51181" lon="2.88145">
        <ele>534.5</ele>
        <time>2021-08-18T07:39:06Z</time>
      </trkpt>
      <trkpt lat="44.51185" lon="2.88128">
        <ele>532</ele>
        <time>2021-08-18T07:39:08Z</time>
      </trkpt>
      <trkpt lat="44.51188" lon="2.88108">
        <ele>528.9</ele>
        <time>2021-08-18T07:39:10Z</time>
      </trkpt>
      <trkpt lat="44.5119" lon="2.88088">
        <ele>525.4</ele>
        <time>2021-08-18T07:39:12Z</time>
      </trkpt>
      <trkpt lat="44.51192" lon="2.88066">
        <ele>523.4</ele>
        <time>2021-08-18T07:39:14Z</time>
      </trkpt>
      <trkpt lat="44.51195" lon="2.88045">
        <ele>521.8</ele>
        <time>2021-08-18T07:39:16Z</time>
      </trkpt>
      <trkpt lat="44.51197" lon="2.88023">
        <ele>520.4</ele>
        <time>2021-08-18T07:39:18Z</time>
      </trkpt>
      <trkpt lat="44.51199" lon="2.88">
        <ele>519.1</ele>
        <time>2021-08-18T07:39:20Z</time>
      </trkpt>
      <trkpt lat="44.51202" lon="2.87978">
        <ele>517.9</ele>
        <time>2021-08-18T07:39:22Z</time>
      </trkpt>
      <trkpt lat="44.51204" lon="2.87955">
        <ele>516.6</ele>
        <time>2021-08-18T07:39:24Z</time>
      </trkpt>
      <trkpt lat="44.51205" lon="2.87933">
        <ele>515</ele>
        <time>2021-08-18T07:39:26Z</time>
      </trkpt>
      <trkpt lat="44.51206" lon="2.8791">
        <ele>513</ele>
        <time>2021-08-18T07:39:28Z</time>
      </trkpt>
      <trkpt lat="44.51206" lon="2.87887">
        <ele>510</ele>
        <time>2021-08-18T07:39:30Z</time>
      </trkpt>
      <trkpt lat="44.51206" lon="2.87863">
        <ele>507.1</ele>
        <time>2021-08-18T07:39:32Z</time>
      </trkpt>
      <trkpt lat="44.51206" lon="2.87839">
        <ele>504</ele>
        <time>2021-08-18T07:39:34Z</time>
      </trkpt>
      <trkpt lat="44.51207" lon="2.87816">
        <ele>500.6</ele>
        <time>2021-08-18T07:39:36Z</time>
      </trkpt>
      <trkpt lat="44.51207" lon="2.87792">
        <ele>497.3</ele>
        <time>2021-08-18T07:39:38Z</time>
      </trkpt>
      <trkpt lat="44.51209" lon="2.87768">
        <ele>494.5</ele>
        <time>2021-08-18T07:39:40Z</time>
      </trkpt>
      <trkpt lat="44.51211" lon="2.87745">
        <ele>491.9</ele>
        <time>2021-08-18T07:39:42Z</time>
      </trkpt>
      <trkpt lat="44.51215" lon="2.87722">
        <ele>488.5</ele>
        <time>2021-08-18T07:39:44Z</time>
      </trkpt>
      <trkpt lat="44.51219" lon="2.87698">
        <ele>485.5</ele>
        <time>2021-08-18T07:39:46Z</time>
      </trkpt>
      <trkpt lat="44.51223" lon="2.87675">
        <ele>482.8</ele>
        <time>2021-08-18T07:39:48Z</time>
      </trkpt>
      <trkpt lat="44.51229" lon="2.87654">
        <ele>480.4</ele>
        <time>2021-08-18T07:39:50Z</time>
      </trkpt>
      <trkpt lat="44.51234" lon="2.87633">
        <ele>478.7</ele>
        <time>2021-08-18T07:39:52Z</time>
      </trkpt>
      <trkpt lat="44.51243" lon="2.87615">
        <ele>478.7</ele>
        <time>2021-08-18T07:39:54Z</time>
      </trkpt>
      <trkpt lat="44.51253" lon="2.876">
        <ele>479.1</ele>
        <time>2021-08-18T07:39:56Z</time>
      </trkpt>
      <trkpt lat="44.51264" lon="2.87586">
        <ele>477.8</ele>
        <time>2021-08-18T07:39:58Z</time>
      </trkpt>
      <trkpt lat="44.51274" lon="2.8757">
        <ele>476.3</ele>
        <time>2021-08-18T07:40:00Z</time>
      </trkpt>
      <trkpt lat="44.5128" lon="2.87551">
        <ele>474.1</ele>
        <time>2021-08-18T07:40:02Z</time>
      </trkpt>
      <trkpt lat="44.51284" lon="2.87535">
        <ele>472.1</ele>
        <time>2021-08-18T07:40:04Z</time>
      </trkpt>
      <trkpt lat="44.51288" lon="2.8752">
        <ele>470.3</ele>
        <time>2021-08-18T07:40:06Z</time>
      </trkpt>
      <trkpt lat="44.51294" lon="2.87504">
        <ele>469.3</ele>
        <time>2021-08-18T07:40:08Z</time>
      </trkpt>
      <trkpt lat="44.51302" lon="2.87489">
        <ele>468.8</ele>
        <time>2021-08-18T07:40:10Z</time>
      </trkpt>
      <trkpt lat="44.51311" lon="2.87475">
        <ele>469</ele>
        <time>2021-08-18T07:40:12Z</time>
      </trkpt>
      <trkpt lat="44.51322" lon="2.87466">
        <ele>470.3</ele>
        <time>2021-08-18T07:40:14Z</time>
      </trkpt>
      <trkpt lat="44.51332" lon="2.87458">
        <ele>471.5</ele>
        <time>2021-08-18T07:40:16Z</time>
      </trkpt>
      <trkpt lat="44.51343" lon="2.87453">
        <ele>470.1</ele>
        <time>2021-08-18T07:40:18Z</time>
      </trkpt>
      <trkpt lat="44.51355" lon="2.87456">
        <ele>469.4</ele>
        <time>2021-08-18T07:40:20Z</time>
      </trkpt>
      <trkpt lat="44.51366" lon="2.87464">
        <ele>469.5</ele>
        <time>2021-08-18T07:40:22Z</time>
      </trkpt>
      <trkpt lat="44.51377" lon="2.87475">
        <ele>469.8</ele>
        <time>2021-08-18T07:40:24Z</time>
      </trkpt>
      <trkpt lat="44.51388" lon="2.87487">
        <ele>470.1</ele>
        <time>2021-08-18T07:40:26Z</time>
      </trkpt>
      <trkpt lat="44.51399" lon="2.87498">
        <ele>470.1</ele>
        <time>2021-08-18T07:40:28Z</time>
      </trkpt>
      <trkpt lat="44.51411" lon="2.8751">
        <ele>469.6</ele>
        <time>2021-08-18T07:40:30Z</time>
      </trkpt>
      <trkpt lat="44.51423" lon="2.87522">
        <ele>468</ele>
        <time>2021-08-18T07:40:32Z</time>
      </trkpt>
      <trkpt lat="44.51435" lon="2.87534">
        <ele>466</ele>
        <time>2021-08-18T07:40:34Z</time>
      </trkpt>
      <trkpt lat="44.51447" lon="2.87548">
        <ele>464.6</ele>
        <time>2021-08-18T07:40:36Z</time>
      </trkpt>
      <trkpt lat="44.51457" lon="2.87564">
        <ele>464</ele>
        <time>2021-08-18T07:40:38Z</time>
      </trkpt>
      <trkpt lat="44.51468" lon="2.87579">
        <ele>463.8</ele>
        <time>2021-08-18T07:40:40Z</time>
      </trkpt>
      <trkpt lat="44.51478" lon="2.87594">
        <ele>463.1</ele>
        <time>2021-08-18T07:40:42Z</time>
      </trkpt>
      <trkpt lat="44.51488" lon="2.87607">
        <ele>462</ele>
        <time>2021-08-18T07:40:44Z</time>
      </trkpt>
      <trkpt lat="44.51496" lon="2.87619">
        <ele>461</ele>
        <time>2021-08-18T07:40:46Z</time>
      </trkpt>
      <trkpt lat="44.51505" lon="2.87633">
        <ele>459.8</ele>
        <time>2021-08-18T07:40:48Z</time>
      </trkpt>
      <trkpt lat="44.51516" lon="2.8765">
        <ele>458.9</ele>
        <time>2021-08-18T07:40:50Z</time>
      </trkpt>
      <trkpt lat="44.51527" lon="2.87667">
        <ele>458.5</ele>
        <time>2021-08-18T07:40:52Z</time>
      </trkpt>
      <trkpt lat="44.51538" lon="2.87683">
        <ele>456.9</ele>
        <time>2021-08-18T07:40:54Z</time>
      </trkpt>
      <trkpt lat="44.51547" lon="2.877">
        <ele>455.6</ele>
        <time>2021-08-18T07:40:56Z</time>
      </trkpt>
      <trkpt lat="44.51555" lon="2.87716">
        <ele>454.5</ele>
        <time>2021-08-18T07:40:58Z</time>
      </trkpt>
      <trkpt lat="44.51561" lon="2.87729">
        <ele>453.7</ele>
        <time>2021-08-18T07:41:00Z</time>
      </trkpt>
      <trkpt lat="44.5157" lon="2.87737">
        <ele>452.2</ele>
        <time>2021-08-18T07:41:02Z</time>
      </trkpt>
      <trkpt lat="44.5158" lon="2.87737">
        <ele>450.4</ele>
        <time>2021-08-18T07:41:04Z</time>
      </trkpt>
      <trkpt lat="44.51589" lon="2.87729">
        <ele>448.9</ele>
        <time>2021-08-18T07:41:06Z</time>
      </trkpt>
      <trkpt lat="44.51592" lon="2.87714">
        <ele>447.7</ele>
        <time>2021-08-18T07:41:08Z</time>
      </trkpt>
      <trkpt lat="44.51588" lon="2.87699">
        <ele>448.2</ele>
        <time>2021-08-18T07:41:10Z</time>
      </trkpt>
      <trkpt lat="44.51578" lon="2.8769">
        <ele>450.1</ele>
        <time>2021-08-18T07:41:12Z</time>
      </trkpt>
      <trkpt lat="44.51567" lon="2.87681">
        <ele>451.9</ele>
        <time>2021-08-18T07:41:14Z</time>
      </trkpt>
      <trkpt lat="44.51557" lon="2.87668">
        <ele>453.4</ele>
        <time>2021-08-18T07:41:16Z</time>
      </trkpt>
      <trkpt lat="44.51548" lon="2.87653">
        <ele>453.1</ele>
        <time>2021-08-18T07:41:18Z</time>
      </trkpt>
      <trkpt lat="44.51539" lon="2.87636">
        <ele>452.8</ele>
        <time>2021-08-18T07:41:20Z</time>
      </trkpt>
      <trkpt lat="44.5153" lon="2.87619">
        <ele>453.1</ele>
        <time>2021-08-18T07:41:22Z</time>
      </trkpt>
      <trkpt lat="44.51519" lon="2.87603">
        <ele>454.3</ele>
        <time>2021-08-18T07:41:24Z</time>
      </trkpt>
      <trkpt lat="44.51509" lon="2.87585">
        <ele>455.5</ele>
        <time>2021-08-18T07:41:26Z</time>
      </trkpt>
      <trkpt lat="44.51499" lon="2.87566">
        <ele>454.8</ele>
        <time>2021-08-18T07:41:28Z</time>
      </trkpt>
      <trkpt lat="44.51491" lon="2.87547">
        <ele>453.3</ele>
        <time>2021-08-18T07:41:30Z</time>
      </trkpt>
      <trkpt lat="44.51482" lon="2.87526">
        <ele>451.9</ele>
        <time>2021-08-18T07:41:32Z</time>
      </trkpt>
      <trkpt lat="44.51474" lon="2.87506">
        <ele>451.2</ele>
        <time>2021-08-18T07:41:34Z</time>
      </trkpt>
      <trkpt lat="44.51468" lon="2.87484">
        <ele>450.1</ele>
        <time>2021-08-18T07:41:36Z</time>
      </trkpt>
      <trkpt lat="44.51464" lon="2.87461">
        <ele>448.2</ele>
        <time>2021-08-18T07:41:38Z</time>
      </trkpt>
      <trkpt lat="44.51462" lon="2.87439">
        <ele>446.1</ele>
        <time>2021-08-18T07:41:40Z</time>
      </trkpt>
      <trkpt lat="44.51461" lon="2.8742">
        <ele>444.1</ele>
        <time>2021-08-18T07:41:42Z</time>
      </trkpt>
      <trkpt lat="44.5146" lon="2.87404">
        <ele>442.2</ele>
        <time>2021-08-18T07:41:44Z</time>
      </trkpt>
      <trkpt lat="44.51458" lon="2.87389">
        <ele>440.8</ele>
        <time>2021-08-18T07:41:46Z</time>
      </trkpt>
      <trkpt lat="44.51461" lon="2.87374">
        <ele>437.9</ele>
        <time>2021-08-18T07:41:48Z</time>
      </trkpt>
      <trkpt lat="44.51469" lon="2.87364">
        <ele>434</ele>
        <time>2021-08-18T07:41:50Z</time>
      </trkpt>
      <trkpt lat="44.51481" lon="2.8737">
        <ele>431.4</ele>
        <time>2021-08-18T07:41:52Z</time>
      </trkpt>
      <trkpt lat="44.51487" lon="2.87389">
        <ele>431.4</ele>
        <time>2021-08-18T07:41:54Z</time>
      </trkpt>
      <trkpt lat="44.51492" lon="2.87407">
        <ele>431.8</ele>
        <time>2021-08-18T07:41:56Z</time>
      </trkpt>
      <trkpt lat="44.515" lon="2.87421">
        <ele>430.7</ele>
        <time>2021-08-18T07:41:58Z</time>
      </trkpt>
      <trkpt lat="44.51512" lon="2.87425">
        <ele>429.1</ele>
        <time>2021-08-18T07:42:00Z</time>
      </trkpt>
      <trkpt lat="44.51523" lon="2.87416">
        <ele>426.2</ele>
        <time>2021-08-18T07:42:02Z</time>
      </trkpt>
      <trkpt lat="44.51525" lon="2.87398">
        <ele>425.1</ele>
        <time>2021-08-18T07:42:04Z</time>
      </trkpt>
      <trkpt lat="44.51519" lon="2.87378">
        <ele>424.9</ele>
        <time>2021-08-18T07:42:06Z</time>
      </trkpt>
      <trkpt lat="44.51513" lon="2.87356">
        <ele>424</ele>
        <time>2021-08-18T07:42:08Z</time>
      </trkpt>
      <trkpt lat="44.51505" lon="2.87332">
        <ele>422.1</ele>
        <time>2021-08-18T07:42:10Z</time>
      </trkpt>
      <trkpt lat="44.51498" lon="2.87308">
        <ele>419.6</ele>
        <time>2021-08-18T07:42:12Z</time>
      </trkpt>
      <trkpt lat="44.51491" lon="2.87284">
        <ele>417.9</ele>
        <time>2021-08-18T07:42:14Z</time>
      </trkpt>
      <trkpt lat="44.51482" lon="2.87261">
        <ele>415.8</ele>
        <time>2021-08-18T07:42:16Z</time>
      </trkpt>
      <trkpt lat="44.5147" lon="2.87243">
        <ele>414.5</ele>
        <time>2021-08-18T07:42:18Z</time>
      </trkpt>
      <trkpt lat="44.51457" lon="2.87231">
        <ele>414.2</ele>
        <time>2021-08-18T07:42:20Z</time>
      </trkpt>
      <trkpt lat="44.51441" lon="2.87227">
        <ele>414.1</ele>
        <time>2021-08-18T07:42:22Z</time>
      </trkpt>
      <trkpt lat="44.51423" lon="2.87228">
        <ele>414.5</ele>
        <time>2021-08-18T07:42:24Z</time>
      </trkpt>
      <trkpt lat="44.51405" lon="2.87232">
        <ele>413.9</ele>
        <time>2021-08-18T07:42:26Z</time>
      </trkpt>
      <trkpt lat="44.51387" lon="2.87233">
        <ele>412.4</ele>
        <time>2021-08-18T07:42:28Z</time>
      </trkpt>
      <trkpt lat="44.51369" lon="2.87233">
        <ele>410.6</ele>
        <time>2021-08-18T07:42:30Z</time>
      </trkpt>
      <trkpt lat="44.51351" lon="2.87233">
        <ele>408.8</ele>
        <time>2021-08-18T07:42:32Z</time>
      </trkpt>
      <trkpt lat="44.51335" lon="2.87239">
        <ele>408.1</ele>
        <time>2021-08-18T07:42:34Z</time>
      </trkpt>
      <trkpt lat="44.51321" lon="2.87246">
        <ele>409.1</ele>
        <time>2021-08-18T07:42:36Z</time>
      </trkpt>
      <trkpt lat="44.51309" lon="2.87247">
        <ele>409</ele>
        <time>2021-08-18T07:42:38Z</time>
      </trkpt>
      <trkpt lat="44.51301" lon="2.87236">
        <ele>406.9</ele>
        <time>2021-08-18T07:42:40Z</time>
      </trkpt>
      <trkpt lat="44.513" lon="2.87222">
        <ele>404.4</ele>
        <time>2021-08-18T07:42:42Z</time>
      </trkpt>
      <trkpt lat="44.51299" lon="2.8721">
        <ele>402.4</ele>
        <time>2021-08-18T07:42:44Z</time>
      </trkpt>
      <trkpt lat="44.51299" lon="2.872">
        <ele>400.6</ele>
        <time>2021-08-18T07:42:46Z</time>
      </trkpt>
      <trkpt lat="44.51299" lon="2.8719">
        <ele>399</ele>
        <time>2021-08-18T07:42:48Z</time>
      </trkpt>
      <trkpt lat="44.51299" lon="2.87181">
        <ele>397.5</ele>
        <time>2021-08-18T07:42:50Z</time>
      </trkpt>
      <trkpt lat="44.51297" lon="2.87174">
        <ele>396.3</ele>
        <time>2021-08-18T07:42:52Z</time>
      </trkpt>
      <trkpt lat="44.51295" lon="2.87171">
        <ele>395.8</ele>
        <time>2021-08-18T07:42:54Z</time>
      </trkpt>
      <trkpt lat="44.51293" lon="2.87172">
        <ele>396</ele>
        <time>2021-08-18T07:42:56Z</time>
      </trkpt>
      <trkpt lat="44.51292" lon="2.87174">
        <ele>396.2</ele>
        <time>2021-08-18T07:42:58Z</time>
      </trkpt>
      <trkpt lat="44.51291" lon="2.87174">
        <ele>396.2</ele>
        <time>2021-08-18T07:43:00Z</time>
      </trkpt>
      <trkpt lat="44.51292" lon="2.87174">
        <ele>396.2</ele>
        <time>2021-08-18T07:43:02Z</time>
      </trkpt>
      <trkpt lat="44.51292" lon="2.87173">
        <ele>396.1</ele>
        <time>2021-08-18T07:43:04Z</time>
      </trkpt>
      <trkpt lat="44.51303" lon="2.87166">
        <ele>395</ele>
        <time>2021-08-18T07:48:16Z</time>
      </trkpt>
      <trkpt lat="44.51305" lon="2.8716">
        <ele>395.3</ele>
        <time>2021-08-18T07:48:18Z</time>
      </trkpt>
      <trkpt lat="44.51306" lon="2.87153">
        <ele>395.6</ele>
        <time>2021-08-18T07:48:20Z</time>
      </trkpt>
      <trkpt lat="44.5131" lon="2.87146">
        <ele>395.8</ele>
        <time>2021-08-18T07:48:22Z</time>
      </trkpt>
      <trkpt lat="44.51314" lon="2.87139">
        <ele>395.9</ele>
        <time>2021-08-18T07:48:24Z</time>
      </trkpt>
      <trkpt lat="44.51318" lon="2.87132">
        <ele>396</ele>
        <time>2021-08-18T07:48:26Z</time>
      </trkpt>
      <trkpt lat="44.51322" lon="2.87126">
        <ele>396</ele>
        <time>2021-08-18T07:48:28Z</time>
      </trkpt>
      <trkpt lat="44.51327" lon="2.87121">
        <ele>395.9</ele>
        <time>2021-08-18T07:48:30Z</time>
      </trkpt>
      <trkpt lat="44.51331" lon="2.87115">
        <ele>395.7</ele>
        <time>2021-08-18T07:48:32Z</time>
      </trkpt>
      <trkpt lat="44.51335" lon="2.87108">
        <ele>396.1</ele>
        <time>2021-08-18T07:48:34Z</time>
      </trkpt>
      <trkpt lat="44.51339" lon="2.87102">
        <ele>397</ele>
        <time>2021-08-18T07:48:36Z</time>
      </trkpt>
      <trkpt lat="44.51342" lon="2.87095">
        <ele>398.1</ele>
        <time>2021-08-18T07:48:38Z</time>
      </trkpt>
      <trkpt lat="44.51346" lon="2.87088">
        <ele>399.1</ele>
        <time>2021-08-18T07:48:40Z</time>
      </trkpt>
      <trkpt lat="44.51349" lon="2.87081">
        <ele>400</ele>
        <time>2021-08-18T07:48:42Z</time>
      </trkpt>
      <trkpt lat="44.51351" lon="2.87074">
        <ele>400.5</ele>
        <time>2021-08-18T07:48:44Z</time>
      </trkpt>
      <trkpt lat="44.51354" lon="2.87066">
        <ele>401.1</ele>
        <time>2021-08-18T07:48:46Z</time>
      </trkpt>
      <trkpt lat="44.51356" lon="2.87059">
        <ele>401.7</ele>
        <time>2021-08-18T07:48:48Z</time>
      </trkpt>
      <trkpt lat="44.51359" lon="2.87051">
        <ele>402.2</ele>
        <time>2021-08-18T07:48:50Z</time>
      </trkpt>
      <trkpt lat="44.51361" lon="2.87044">
        <ele>402.8</ele>
        <time>2021-08-18T07:48:52Z</time>
      </trkpt>
      <trkpt lat="44.51363" lon="2.87036">
        <ele>403.4</ele>
        <time>2021-08-18T07:48:54Z</time>
      </trkpt>
      <trkpt lat="44.51365" lon="2.87029">
        <ele>404</ele>
        <time>2021-08-18T07:48:56Z</time>
      </trkpt>
      <trkpt lat="44.51367" lon="2.87022">
        <ele>404.5</ele>
        <time>2021-08-18T07:48:58Z</time>
      </trkpt>
      <trkpt lat="44.51369" lon="2.87015">
        <ele>405.1</ele>
        <time>2021-08-18T07:49:00Z</time>
      </trkpt>
      <trkpt lat="44.5137" lon="2.87008">
        <ele>405.5</ele>
        <time>2021-08-18T07:49:02Z</time>
      </trkpt>
      <trkpt lat="44.51371" lon="2.87001">
        <ele>405.9</ele>
        <time>2021-08-18T07:49:04Z</time>
      </trkpt>
      <trkpt lat="44.51372" lon="2.86995">
        <ele>406.9</ele>
        <time>2021-08-18T07:49:06Z</time>
      </trkpt>
      <trkpt lat="44.51373" lon="2.86988">
        <ele>407.8</ele>
        <time>2021-08-18T07:49:08Z</time>
      </trkpt>
      <trkpt lat="44.51374" lon="2.86982">
        <ele>408.8</ele>
        <time>2021-08-18T07:49:10Z</time>
      </trkpt>
      <trkpt lat="44.51375" lon="2.86976">
        <ele>409.4</ele>
        <time>2021-08-18T07:49:12Z</time>
      </trkpt>
      <trkpt lat="44.51375" lon="2.8697">
        <ele>410.1</ele>
        <time>2021-08-18T07:49:14Z</time>
      </trkpt>
      <trkpt lat="44.51375" lon="2.86964">
        <ele>410.7</ele>
        <time>2021-08-18T07:49:16Z</time>
      </trkpt>
      <trkpt lat="44.51374" lon="2.86957">
        <ele>410.7</ele>
        <time>2021-08-18T07:49:18Z</time>
      </trkpt>
      <trkpt lat="44.51374" lon="2.86951">
        <ele>411.3</ele>
        <time>2021-08-18T07:49:20Z</time>
      </trkpt>
      <trkpt lat="44.51373" lon="2.86944">
        <ele>411.2</ele>
        <time>2021-08-18T07:49:22Z</time>
      </trkpt>
      <trkpt lat="44.51371" lon="2.86937">
        <ele>411.3</ele>
        <time>2021-08-18T07:49:24Z</time>
      </trkpt>
      <trkpt lat="44.5137" lon="2.8693">
        <ele>411.3</ele>
        <time>2021-08-18T07:49:26Z</time>
      </trkpt>
      <trkpt lat="44.51369" lon="2.86924">
        <ele>411.1</ele>
        <time>2021-08-18T07:49:28Z</time>
      </trkpt>
      <trkpt lat="44.51367" lon="2.86917">
        <ele>411</ele>
        <time>2021-08-18T07:49:30Z</time>
      </trkpt>
      <trkpt lat="44.51365" lon="2.86912">
        <ele>411.3</ele>
        <time>2021-08-18T07:49:32Z</time>
      </trkpt>
      <trkpt lat="44.51363" lon="2.86906">
        <ele>412.1</ele>
        <time>2021-08-18T07:49:34Z</time>
      </trkpt>
      <trkpt lat="44.51361" lon="2.869">
        <ele>412.9</ele>
        <time>2021-08-18T07:49:36Z</time>
      </trkpt>
      <trkpt lat="44.5136" lon="2.86895">
        <ele>413.6</ele>
        <time>2021-08-18T07:49:38Z</time>
      </trkpt>
      <trkpt lat="44.51357" lon="2.86889">
        <ele>414.1</ele>
        <time>2021-08-18T07:49:40Z</time>
      </trkpt>
      <trkpt lat="44.51355" lon="2.86884">
        <ele>414.3</ele>
        <time>2021-08-18T07:49:42Z</time>
      </trkpt>
      <trkpt lat="44.51352" lon="2.86879">
        <ele>414.7</ele>
        <time>2021-08-18T07:49:44Z</time>
      </trkpt>
      <trkpt lat="44.5135" lon="2.86874">
        <ele>414.6</ele>
        <time>2021-08-18T07:49:46Z</time>
      </trkpt>
      <trkpt lat="44.51347" lon="2.86869">
        <ele>414.8</ele>
        <time>2021-08-18T07:49:48Z</time>
      </trkpt>
      <trkpt lat="44.51344" lon="2.86864">
        <ele>414.6</ele>
        <time>2021-08-18T07:49:50Z</time>
      </trkpt>
      <trkpt lat="44.5134" lon="2.86861">
        <ele>413.9</ele>
        <time>2021-08-18T07:49:52Z</time>
      </trkpt>
      <trkpt lat="44.51337" lon="2.86857">
        <ele>413.6</ele>
        <time>2021-08-18T07:49:54Z</time>
      </trkpt>
      <trkpt lat="44.51334" lon="2.86854">
        <ele>412.8</ele>
        <time>2021-08-18T07:49:56Z</time>
      </trkpt>
      <trkpt lat="44.51331" lon="2.86849">
        <ele>413.3</ele>
        <time>2021-08-18T07:49:58Z</time>
      </trkpt>
      <trkpt lat="44.51327" lon="2.86846">
        <ele>413.4</ele>
        <time>2021-08-18T07:50:00Z</time>
      </trkpt>
      <trkpt lat="44.51323" lon="2.86842">
        <ele>413.4</ele>
        <time>2021-08-18T07:50:02Z</time>
      </trkpt>
      <trkpt lat="44.51319" lon="2.86839">
        <ele>413.1</ele>
        <time>2021-08-18T07:50:04Z</time>
      </trkpt>
      <trkpt lat="44.51316" lon="2.86836">
        <ele>412.9</ele>
        <time>2021-08-18T07:50:06Z</time>
      </trkpt>
      <trkpt lat="44.51313" lon="2.86832">
        <ele>413.1</ele>
        <time>2021-08-18T07:50:08Z</time>
      </trkpt>
      <trkpt lat="44.51309" lon="2.86829">
        <ele>413.2</ele>
        <time>2021-08-18T07:50:10Z</time>
      </trkpt>
      <trkpt lat="44.51306" lon="2.86826">
        <ele>413.6</ele>
        <time>2021-08-18T07:50:12Z</time>
      </trkpt>
      <trkpt lat="44.51302" lon="2.86823">
        <ele>413.7</ele>
        <time>2021-08-18T07:50:14Z</time>
      </trkpt>
      <trkpt lat="44.51298" lon="2.86819">
        <ele>414.2</ele>
        <time>2021-08-18T07:50:16Z</time>
      </trkpt>
      <trkpt lat="44.51295" lon="2.86816">
        <ele>414.4</ele>
        <time>2021-08-18T07:50:18Z</time>
      </trkpt>
      <trkpt lat="44.51291" lon="2.86812">
        <ele>414.5</ele>
        <time>2021-08-18T07:50:20Z</time>
      </trkpt>
      <trkpt lat="44.51287" lon="2.86809">
        <ele>414.6</ele>
        <time>2021-08-18T07:50:22Z</time>
      </trkpt>
      <trkpt lat="44.51284" lon="2.86806">
        <ele>414.5</ele>
        <time>2021-08-18T07:50:24Z</time>
      </trkpt>
      <trkpt lat="44.5128" lon="2.86803">
        <ele>414.4</ele>
        <time>2021-08-18T07:50:26Z</time>
      </trkpt>
      <trkpt lat="44.51276" lon="2.86801">
        <ele>413.9</ele>
        <time>2021-08-18T07:50:28Z</time>
      </trkpt>
      <trkpt lat="44.51271" lon="2.86797">
        <ele>413.7</ele>
        <time>2021-08-18T07:50:30Z</time>
      </trkpt>
      <trkpt lat="44.51267" lon="2.86793">
        <ele>413.6</ele>
        <time>2021-08-18T07:50:32Z</time>
      </trkpt>
      <trkpt lat="44.51262" lon="2.8679">
        <ele>413.1</ele>
        <time>2021-08-18T07:50:34Z</time>
      </trkpt>
      <trkpt lat="44.51258" lon="2.86787">
        <ele>412.4</ele>
        <time>2021-08-18T07:50:36Z</time>
      </trkpt>
      <trkpt lat="44.51254" lon="2.86784">
        <ele>412.1</ele>
        <time>2021-08-18T07:50:38Z</time>
      </trkpt>
      <trkpt lat="44.51249" lon="2.86781">
        <ele>411.7</ele>
        <time>2021-08-18T07:50:40Z</time>
      </trkpt>
      <trkpt lat="44.51245" lon="2.86777">
        <ele>411.9</ele>
        <time>2021-08-18T07:50:42Z</time>
      </trkpt>
      <trkpt lat="44.51241" lon="2.86774">
        <ele>412.3</ele>
        <time>2021-08-18T07:50:44Z</time>
      </trkpt>
      <trkpt lat="44.51236" lon="2.86771">
        <ele>412.2</ele>
        <time>2021-08-18T07:50:46Z</time>
      </trkpt>
      <trkpt lat="44.51233" lon="2.86767">
        <ele>412.3</ele>
        <time>2021-08-18T07:50:48Z</time>
      </trkpt>
      <trkpt lat="44.51229" lon="2.86764">
        <ele>412.1</ele>
        <time>2021-08-18T07:50:50Z</time>
      </trkpt>
      <trkpt lat="44.51225" lon="2.86759">
        <ele>412.1</ele>
        <time>2021-08-18T07:50:52Z</time>
      </trkpt>
      <trkpt lat="44.51221" lon="2.86755">
        <ele>411.9</ele>
        <time>2021-08-18T07:50:54Z</time>
      </trkpt>
      <trkpt lat="44.51218" lon="2.8675">
        <ele>411.9</ele>
        <time>2021-08-18T07:50:56Z</time>
      </trkpt>
      <trkpt lat="44.51216" lon="2.86745">
        <ele>411.9</ele>
        <time>2021-08-18T07:50:58Z</time>
      </trkpt>
      <trkpt lat="44.51213" lon="2.8674">
        <ele>411.9</ele>
        <time>2021-08-18T07:51:00Z</time>
      </trkpt>
      <trkpt lat="44.5121" lon="2.86735">
        <ele>411.8</ele>
        <time>2021-08-18T07:51:02Z</time>
      </trkpt>
      <trkpt lat="44.51207" lon="2.8673">
        <ele>411.8</ele>
        <time>2021-08-18T07:51:04Z</time>
      </trkpt>
      <trkpt lat="44.51204" lon="2.86725">
        <ele>411.6</ele>
        <time>2021-08-18T07:51:06Z</time>
      </trkpt>
      <trkpt lat="44.51202" lon="2.86719">
        <ele>411.6</ele>
        <time>2021-08-18T07:51:08Z</time>
      </trkpt>
      <trkpt lat="44.51199" lon="2.86714">
        <ele>411.5</ele>
        <time>2021-08-18T07:51:10Z</time>
      </trkpt>
      <trkpt lat="44.51196" lon="2.86708">
        <ele>411.2</ele>
        <time>2021-08-18T07:51:12Z</time>
      </trkpt>
      <trkpt lat="44.51194" lon="2.86703">
        <ele>411.2</ele>
        <time>2021-08-18T07:51:14Z</time>
      </trkpt>
      <trkpt lat="44.51192" lon="2.86697">
        <ele>411.2</ele>
        <time>2021-08-18T07:51:16Z</time>
      </trkpt>
      <trkpt lat="44.51191" lon="2.86691">
        <ele>411.6</ele>
        <time>2021-08-18T07:51:18Z</time>
      </trkpt>
      <trkpt lat="44.5119" lon="2.86684">
        <ele>412.1</ele>
        <time>2021-08-18T07:51:20Z</time>
      </trkpt>
      <trkpt lat="44.51189" lon="2.86678">
        <ele>412.5</ele>
        <time>2021-08-18T07:51:22Z</time>
      </trkpt>
      <trkpt lat="44.51188" lon="2.86672">
        <ele>412.9</ele>
        <time>2021-08-18T07:51:24Z</time>
      </trkpt>
      <trkpt lat="44.51187" lon="2.86666">
        <ele>413.4</ele>
        <time>2021-08-18T07:51:26Z</time>
      </trkpt>
      <trkpt lat="44.51187" lon="2.86659">
        <ele>413.6</ele>
        <time>2021-08-18T07:51:28Z</time>
      </trkpt>
      <trkpt lat="44.51187" lon="2.86652">
        <ele>413.9</ele>
        <time>2021-08-18T07:51:30Z</time>
      </trkpt>
      <trkpt lat="44.51187" lon="2.86646">
        <ele>414.1</ele>
        <time>2021-08-18T07:51:32Z</time>
      </trkpt>
      <trkpt lat="44.51187" lon="2.86639">
        <ele>414.7</ele>
        <time>2021-08-18T07:51:34Z</time>
      </trkpt>
      <trkpt lat="44.51187" lon="2.86633">
        <ele>415</ele>
        <time>2021-08-18T07:51:36Z</time>
      </trkpt>
      <trkpt lat="44.51188" lon="2.86626">
        <ele>415.6</ele>
        <time>2021-08-18T07:51:38Z</time>
      </trkpt>
      <trkpt lat="44.51188" lon="2.86621">
        <ele>416</ele>
        <time>2021-08-18T07:51:40Z</time>
      </trkpt>
      <trkpt lat="44.51189" lon="2.86614">
        <ele>416.4</ele>
        <time>2021-08-18T07:51:42Z</time>
      </trkpt>
      <trkpt lat="44.51189" lon="2.86607">
        <ele>416.9</ele>
        <time>2021-08-18T07:51:44Z</time>
      </trkpt>
      <trkpt lat="44.51188" lon="2.86601">
        <ele>416.9</ele>
        <time>2021-08-18T07:51:46Z</time>
      </trkpt>
      <trkpt lat="44.51189" lon="2.86595">
        <ele>417.4</ele>
        <time>2021-08-18T07:51:48Z</time>
      </trkpt>
      <trkpt lat="44.51189" lon="2.86589">
        <ele>417.8</ele>
        <time>2021-08-18T07:51:50Z</time>
      </trkpt>
      <trkpt lat="44.51189" lon="2.86583">
        <ele>418.2</ele>
        <time>2021-08-18T07:51:52Z</time>
      </trkpt>
      <trkpt lat="44.5119" lon="2.86578">
        <ele>418.2</ele>
        <time>2021-08-18T07:51:54Z</time>
      </trkpt>
      <trkpt lat="44.51191" lon="2.86572">
        <ele>418.2</ele>
        <time>2021-08-18T07:51:56Z</time>
      </trkpt>
      <trkpt lat="44.51191" lon="2.86566">
        <ele>418.2</ele>
        <time>2021-08-18T07:51:58Z</time>
      </trkpt>
      <trkpt lat="44.51192" lon="2.86561">
        <ele>418.3</ele>
        <time>2021-08-18T07:52:00Z</time>
      </trkpt>
      <trkpt lat="44.51192" lon="2.86556">
        <ele>418.2</ele>
        <time>2021-08-18T07:52:02Z</time>
      </trkpt>
      <trkpt lat="44.51192" lon="2.8655">
        <ele>418.1</ele>
        <time>2021-08-18T07:52:04Z</time>
      </trkpt>
      <trkpt lat="44.51193" lon="2.86545">
        <ele>418.2</ele>
        <time>2021-08-18T07:52:06Z</time>
      </trkpt>
      <trkpt lat="44.51193" lon="2.86539">
        <ele>418.3</ele>
        <time>2021-08-18T07:52:08Z</time>
      </trkpt>
      <trkpt lat="44.51194" lon="2.86534">
        <ele>418.4</ele>
        <time>2021-08-18T07:52:10Z</time>
      </trkpt>
      <trkpt lat="44.51195" lon="2.86528">
        <ele>418.6</ele>
        <time>2021-08-18T07:52:12Z</time>
      </trkpt>
      <trkpt lat="44.51195" lon="2.86522">
        <ele>418.7</ele>
        <time>2021-08-18T07:52:14Z</time>
      </trkpt>
      <trkpt lat="44.51197" lon="2.86517">
        <ele>419</ele>
        <time>2021-08-18T07:52:16Z</time>
      </trkpt>
      <trkpt lat="44.51197" lon="2.86511">
        <ele>419.3</ele>
        <time>2021-08-18T07:52:18Z</time>
      </trkpt>
      <trkpt lat="44.51198" lon="2.86505">
        <ele>419.6</ele>
        <time>2021-08-18T07:52:20Z</time>
      </trkpt>
      <trkpt lat="44.51199" lon="2.86499">
        <ele>419.9</ele>
        <time>2021-08-18T07:52:22Z</time>
      </trkpt>
      <trkpt lat="44.51201" lon="2.86494">
        <ele>420.3</ele>
        <time>2021-08-18T07:52:24Z</time>
      </trkpt>
      <trkpt lat="44.51202" lon="2.86488">
        <ele>420.8</ele>
        <time>2021-08-18T07:52:26Z</time>
      </trkpt>
      <trkpt lat="44.51205" lon="2.86483">
        <ele>421.5</ele>
        <time>2021-08-18T07:52:28Z</time>
      </trkpt>
      <trkpt lat="44.51207" lon="2.86478">
        <ele>422.5</ele>
        <time>2021-08-18T07:52:30Z</time>
      </trkpt>
      <trkpt lat="44.51209" lon="2.86473">
        <ele>423</ele>
        <time>2021-08-18T07:52:32Z</time>
      </trkpt>
      <trkpt lat="44.51211" lon="2.86468">
        <ele>423.8</ele>
        <time>2021-08-18T07:52:34Z</time>
      </trkpt>
      <trkpt lat="44.51213" lon="2.86463">
        <ele>424.7</ele>
        <time>2021-08-18T07:52:36Z</time>
      </trkpt>
      <trkpt lat="44.51215" lon="2.86458">
        <ele>425.3</ele>
        <time>2021-08-18T07:52:38Z</time>
      </trkpt>
      <trkpt lat="44.51216" lon="2.86452">
        <ele>426</ele>
        <time>2021-08-18T07:52:40Z</time>
      </trkpt>
      <trkpt lat="44.51218" lon="2.86447">
        <ele>426.7</ele>
        <time>2021-08-18T07:52:42Z</time>
      </trkpt>
      <trkpt lat="44.51219" lon="2.86442">
        <ele>427.1</ele>
        <time>2021-08-18T07:52:44Z</time>
      </trkpt>
      <trkpt lat="44.51221" lon="2.86437">
        <ele>427.8</ele>
        <time>2021-08-18T07:52:46Z</time>
      </trkpt>
      <trkpt lat="44.51222" lon="2.86432">
        <ele>428.1</ele>
        <time>2021-08-18T07:52:48Z</time>
      </trkpt>
      <trkpt lat="44.51223" lon="2.86427">
        <ele>428.2</ele>
        <time>2021-08-18T07:52:50Z</time>
      </trkpt>
      <trkpt lat="44.51223" lon="2.86421">
        <ele>428.4</ele>
        <time>2021-08-18T07:52:52Z</time>
      </trkpt>
      <trkpt lat="44.51224" lon="2.86415">
        <ele>428.8</ele>
        <time>2021-08-18T07:52:54Z</time>
      </trkpt>
      <trkpt lat="44.51225" lon="2.8641">
        <ele>428.9</ele>
        <time>2021-08-18T07:52:56Z</time>
      </trkpt>
      <trkpt lat="44.51225" lon="2.86403">
        <ele>429.2</ele>
        <time>2021-08-18T07:52:58Z</time>
      </trkpt>
      <trkpt lat="44.51225" lon="2.86398">
        <ele>429.2</ele>
        <time>2021-08-18T07:53:00Z</time>
      </trkpt>
      <trkpt lat="44.51225" lon="2.86392">
        <ele>429.2</ele>
        <time>2021-08-18T07:53:02Z</time>
      </trkpt>
      <trkpt lat="44.51225" lon="2.86387">
        <ele>429.5</ele>
        <time>2021-08-18T07:53:04Z</time>
      </trkpt>
      <trkpt lat="44.51225" lon="2.86381">
        <ele>429.3</ele>
        <time>2021-08-18T07:53:06Z</time>
      </trkpt>
      <trkpt lat="44.51226" lon="2.86376">
        <ele>429.7</ele>
        <time>2021-08-18T07:53:08Z</time>
      </trkpt>
      <trkpt lat="44.51226" lon="2.8637">
        <ele>429.9</ele>
        <time>2021-08-18T07:53:10Z</time>
      </trkpt>
      <trkpt lat="44.51227" lon="2.86365">
        <ele>430.3</ele>
        <time>2021-08-18T07:53:12Z</time>
      </trkpt>
      <trkpt lat="44.51228" lon="2.86359">
        <ele>430.7</ele>
        <time>2021-08-18T07:53:14Z</time>
      </trkpt>
      <trkpt lat="44.51229" lon="2.86354">
        <ele>431.4</ele>
        <time>2021-08-18T07:53:16Z</time>
      </trkpt>
      <trkpt lat="44.51231" lon="2.86348">
        <ele>431.9</ele>
        <time>2021-08-18T07:53:18Z</time>
      </trkpt>
      <trkpt lat="44.51232" lon="2.86344">
        <ele>432.5</ele>
        <time>2021-08-18T07:53:20Z</time>
      </trkpt>
      <trkpt lat="44.51233" lon="2.86339">
        <ele>433</ele>
        <time>2021-08-18T07:53:22Z</time>
      </trkpt>
      <trkpt lat="44.51234" lon="2.86334">
        <ele>433.3</ele>
        <time>2021-08-18T07:53:24Z</time>
      </trkpt>
      <trkpt lat="44.51235" lon="2.86329">
        <ele>434.2</ele>
        <time>2021-08-18T07:53:26Z</time>
      </trkpt>
      <trkpt lat="44.51237" lon="2.86324">
        <ele>435.7</ele>
        <time>2021-08-18T07:53:28Z</time>
      </trkpt>
      <trkpt lat="44.51239" lon="2.8632">
        <ele>437.1</ele>
        <time>2021-08-18T07:53:30Z</time>
      </trkpt>
      <trkpt lat="44.5124" lon="2.86315">
        <ele>438.2</ele>
        <time>2021-08-18T07:53:32Z</time>
      </trkpt>
      <trkpt lat="44.51241" lon="2.8631">
        <ele>439.3</ele>
        <time>2021-08-18T07:53:34Z</time>
      </trkpt>
      <trkpt lat="44.51243" lon="2.86305">
        <ele>440.4</ele>
        <time>2021-08-18T07:53:36Z</time>
      </trkpt>
      <trkpt lat="44.51244" lon="2.86301">
        <ele>441.3</ele>
        <time>2021-08-18T07:53:38Z</time>
      </trkpt>
      <trkpt lat="44.51244" lon="2.86297">
        <ele>441.9</ele>
        <time>2021-08-18T07:53:40Z</time>
      </trkpt>
      <trkpt lat="44.51244" lon="2.86292">
        <ele>442.3</ele>
        <time>2021-08-18T07:53:42Z</time>
      </trkpt>
      <trkpt lat="44.51244" lon="2.86287">
        <ele>442.8</ele>
        <time>2021-08-18T07:53:44Z</time>
      </trkpt>
      <trkpt lat="44.51244" lon="2.86282">
        <ele>443.4</ele>
        <time>2021-08-18T07:53:46Z</time>
      </trkpt>
      <trkpt lat="44.51243" lon="2.86278">
        <ele>443.7</ele>
        <time>2021-08-18T07:53:48Z</time>
      </trkpt>
      <trkpt lat="44.51241" lon="2.86273">
        <ele>443.6</ele>
        <time>2021-08-18T07:53:50Z</time>
      </trkpt>
      <trkpt lat="44.51241" lon="2.86269">
        <ele>443.9</ele>
        <time>2021-08-18T07:53:52Z</time>
      </trkpt>
      <trkpt lat="44.51239" lon="2.86265">
        <ele>443.8</ele>
        <time>2021-08-18T07:53:54Z</time>
      </trkpt>
      <trkpt lat="44.51236" lon="2.8626">
        <ele>443.7</ele>
        <time>2021-08-18T07:53:56Z</time>
      </trkpt>
      <trkpt lat="44.51233" lon="2.86256">
        <ele>443.2</ele>
        <time>2021-08-18T07:53:58Z</time>
      </trkpt>
      <trkpt lat="44.5123" lon="2.86252">
        <ele>442.8</ele>
        <time>2021-08-18T07:54:00Z</time>
      </trkpt>
      <trkpt lat="44.51227" lon="2.86248">
        <ele>442.5</ele>
        <time>2021-08-18T07:54:02Z</time>
      </trkpt>
      <trkpt lat="44.51225" lon="2.86243">
        <ele>443.1</ele>
        <time>2021-08-18T07:54:04Z</time>
      </trkpt>
      <trkpt lat="44.51222" lon="2.86239">
        <ele>443.2</ele>
        <time>2021-08-18T07:54:06Z</time>
      </trkpt>
      <trkpt lat="44.51219" lon="2.86234">
        <ele>443.5</ele>
        <time>2021-08-18T07:54:08Z</time>
      </trkpt>
      <trkpt lat="44.51216" lon="2.86228">
        <ele>443.9</ele>
        <time>2021-08-18T07:54:10Z</time>
      </trkpt>
      <trkpt lat="44.51213" lon="2.86223">
        <ele>444.1</ele>
        <time>2021-08-18T07:54:12Z</time>
      </trkpt>
      <trkpt lat="44.5121" lon="2.86218">
        <ele>444.3</ele>
        <time>2021-08-18T07:54:14Z</time>
      </trkpt>
      <trkpt lat="44.51205" lon="2.86213">
        <ele>444.3</ele>
        <time>2021-08-18T07:54:16Z</time>
      </trkpt>
      <trkpt lat="44.512" lon="2.86207">
        <ele>444.2</ele>
        <time>2021-08-18T07:54:18Z</time>
      </trkpt>
      <trkpt lat="44.51195" lon="2.86203">
        <ele>443.8</ele>
        <time>2021-08-18T07:54:20Z</time>
      </trkpt>
      <trkpt lat="44.51189" lon="2.86199">
        <ele>443.4</ele>
        <time>2021-08-18T07:54:22Z</time>
      </trkpt>
      <trkpt lat="44.51184" lon="2.86195">
        <ele>442.9</ele>
        <time>2021-08-18T07:54:24Z</time>
      </trkpt>
      <trkpt lat="44.51178" lon="2.86192">
        <ele>442.2</ele>
        <time>2021-08-18T07:54:26Z</time>
      </trkpt>
      <trkpt lat="44.51172" lon="2.8619">
        <ele>441</ele>
        <time>2021-08-18T07:54:28Z</time>
      </trkpt>
      <trkpt lat="44.51165" lon="2.86188">
        <ele>439.9</ele>
        <time>2021-08-18T07:54:30Z</time>
      </trkpt>
      <trkpt lat="44.51158" lon="2.86185">
        <ele>438.9</ele>
        <time>2021-08-18T07:54:32Z</time>
      </trkpt>
      <trkpt lat="44.51152" lon="2.86181">
        <ele>438.3</ele>
        <time>2021-08-18T07:54:34Z</time>
      </trkpt>
      <trkpt lat="44.51146" lon="2.86176">
        <ele>438.2</ele>
        <time>2021-08-18T07:54:36Z</time>
      </trkpt>
      <trkpt lat="44.5114" lon="2.86171">
        <ele>437.8</ele>
        <time>2021-08-18T07:54:38Z</time>
      </trkpt>
      <trkpt lat="44.51135" lon="2.86163">
        <ele>438</ele>
        <time>2021-08-18T07:54:40Z</time>
      </trkpt>
      <trkpt lat="44.5113" lon="2.86157">
        <ele>437.2</ele>
        <time>2021-08-18T07:54:42Z</time>
      </trkpt>
      <trkpt lat="44.51125" lon="2.86151">
        <ele>436.6</ele>
        <time>2021-08-18T07:54:44Z</time>
      </trkpt>
      <trkpt lat="44.51121" lon="2.86143">
        <ele>436.1</ele>
        <time>2021-08-18T07:54:46Z</time>
      </trkpt>
      <trkpt lat="44.51117" lon="2.86136">
        <ele>435.5</ele>
        <time>2021-08-18T07:54:48Z</time>
      </trkpt>
      <trkpt lat="44.51113" lon="2.86127">
        <ele>435.3</ele>
        <time>2021-08-18T07:54:50Z</time>
      </trkpt>
      <trkpt lat="44.5111" lon="2.86118">
        <ele>435</ele>
        <time>2021-08-18T07:54:52Z</time>
      </trkpt>
      <trkpt lat="44.51107" lon="2.86109">
        <ele>434.9</ele>
        <time>2021-08-18T07:54:54Z</time>
      </trkpt>
      <trkpt lat="44.51104" lon="2.86099">
        <ele>434.9</ele>
        <time>2021-08-18T07:54:56Z</time>
      </trkpt>
      <trkpt lat="44.51102" lon="2.86089">
        <ele>434.8</ele>
        <time>2021-08-18T07:54:58Z</time>
      </trkpt>
      <trkpt lat="44.511" lon="2.86079">
        <ele>434.8</ele>
        <time>2021-08-18T07:55:00Z</time>
      </trkpt>
      <trkpt lat="44.51098" lon="2.8607">
        <ele>434.6</ele>
        <time>2021-08-18T07:55:02Z</time>
      </trkpt>
      <trkpt lat="44.51096" lon="2.8606">
        <ele>434.5</ele>
        <time>2021-08-18T07:55:04Z</time>
      </trkpt>
      <trkpt lat="44.51094" lon="2.86051">
        <ele>434.3</ele>
        <time>2021-08-18T07:55:06Z</time>
      </trkpt>
      <trkpt lat="44.51092" lon="2.86041">
        <ele>434.3</ele>
        <time>2021-08-18T07:55:08Z</time>
      </trkpt>
      <trkpt lat="44.51091" lon="2.86032">
        <ele>434.4</ele>
        <time>2021-08-18T07:55:10Z</time>
      </trkpt>
      <trkpt lat="44.51088" lon="2.86023">
        <ele>434.2</ele>
        <time>2021-08-18T07:55:12Z</time>
      </trkpt>
      <trkpt lat="44.51086" lon="2.86014">
        <ele>434.1</ele>
        <time>2021-08-18T07:55:14Z</time>
      </trkpt>
      <trkpt lat="44.51084" lon="2.86004">
        <ele>434</ele>
        <time>2021-08-18T07:55:16Z</time>
      </trkpt>
      <trkpt lat="44.51082" lon="2.85994">
        <ele>433.3</ele>
        <time>2021-08-18T07:55:18Z</time>
      </trkpt>
      <trkpt lat="44.5108" lon="2.85985">
        <ele>432.6</ele>
        <time>2021-08-18T07:55:20Z</time>
      </trkpt>
      <trkpt lat="44.51079" lon="2.85976">
        <ele>431.9</ele>
        <time>2021-08-18T07:55:22Z</time>
      </trkpt>
      <trkpt lat="44.51078" lon="2.85966">
        <ele>431.5</ele>
        <time>2021-08-18T07:55:24Z</time>
      </trkpt>
      <trkpt lat="44.51077" lon="2.85956">
        <ele>431.2</ele>
        <time>2021-08-18T07:55:26Z</time>
      </trkpt>
      <trkpt lat="44.51077" lon="2.85947">
        <ele>431.3</ele>
        <time>2021-08-18T07:55:28Z</time>
      </trkpt>
      <trkpt lat="44.51078" lon="2.85938">
        <ele>431.6</ele>
        <time>2021-08-18T07:55:30Z</time>
      </trkpt>
      <trkpt lat="44.51079" lon="2.85929">
        <ele>432.1</ele>
        <time>2021-08-18T07:55:32Z</time>
      </trkpt>
      <trkpt lat="44.5108" lon="2.85919">
        <ele>432.4</ele>
        <time>2021-08-18T07:55:34Z</time>
      </trkpt>
      <trkpt lat="44.51082" lon="2.85911">
        <ele>433.4</ele>
        <time>2021-08-18T07:55:36Z</time>
      </trkpt>
      <trkpt lat="44.51083" lon="2.85903">
        <ele>434.1</ele>
        <time>2021-08-18T07:55:38Z</time>
      </trkpt>
      <trkpt lat="44.51085" lon="2.85896">
        <ele>434.7</ele>
        <time>2021-08-18T07:55:40Z</time>
      </trkpt>
      <trkpt lat="44.51087" lon="2.85888">
        <ele>435.3</ele>
        <time>2021-08-18T07:55:42Z</time>
      </trkpt>
      <trkpt lat="44.51088" lon="2.85881">
        <ele>435.8</ele>
        <time>2021-08-18T07:55:44Z</time>
      </trkpt>
      <trkpt lat="44.51089" lon="2.85874">
        <ele>436.3</ele>
        <time>2021-08-18T07:55:46Z</time>
      </trkpt>
      <trkpt lat="44.51091" lon="2.85867">
        <ele>436.7</ele>
        <time>2021-08-18T07:55:48Z</time>
      </trkpt>
      <trkpt lat="44.51092" lon="2.8586">
        <ele>437.2</ele>
        <time>2021-08-18T07:55:50Z</time>
      </trkpt>
      <trkpt lat="44.51094" lon="2.85853">
        <ele>437.7</ele>
        <time>2021-08-18T07:55:52Z</time>
      </trkpt>
      <trkpt lat="44.51095" lon="2.85846">
        <ele>438.1</ele>
        <time>2021-08-18T07:55:54Z</time>
      </trkpt>
      <trkpt lat="44.51096" lon="2.85838">
        <ele>438.5</ele>
        <time>2021-08-18T07:55:56Z</time>
      </trkpt>
      <trkpt lat="44.51097" lon="2.85831">
        <ele>438.9</ele>
        <time>2021-08-18T07:55:58Z</time>
      </trkpt>
      <trkpt lat="44.51099" lon="2.85825">
        <ele>439.4</ele>
        <time>2021-08-18T07:56:00Z</time>
      </trkpt>
      <trkpt lat="44.511" lon="2.85819">
        <ele>439.8</ele>
        <time>2021-08-18T07:56:02Z</time>
      </trkpt>
      <trkpt lat="44.51102" lon="2.85812">
        <ele>440.3</ele>
        <time>2021-08-18T07:56:04Z</time>
      </trkpt>
      <trkpt lat="44.51103" lon="2.85807">
        <ele>440.7</ele>
        <time>2021-08-18T07:56:06Z</time>
      </trkpt>
      <trkpt lat="44.51104" lon="2.858">
        <ele>441</ele>
        <time>2021-08-18T07:56:08Z</time>
      </trkpt>
      <trkpt lat="44.51106" lon="2.85794">
        <ele>441.6</ele>
        <time>2021-08-18T07:56:10Z</time>
      </trkpt>
      <trkpt lat="44.51107" lon="2.85788">
        <ele>441.9</ele>
        <time>2021-08-18T07:56:12Z</time>
      </trkpt>
      <trkpt lat="44.51109" lon="2.85782">
        <ele>442.3</ele>
        <time>2021-08-18T07:56:14Z</time>
      </trkpt>
      <trkpt lat="44.5111" lon="2.85776">
        <ele>442.7</ele>
        <time>2021-08-18T07:56:16Z</time>
      </trkpt>
      <trkpt lat="44.51112" lon="2.8577">
        <ele>443.1</ele>
        <time>2021-08-18T07:56:18Z</time>
      </trkpt>
      <trkpt lat="44.51114" lon="2.85763">
        <ele>443.5</ele>
        <time>2021-08-18T07:56:20Z</time>
      </trkpt>
      <trkpt lat="44.51115" lon="2.85756">
        <ele>443.8</ele>
        <time>2021-08-18T07:56:22Z</time>
      </trkpt>
      <trkpt lat="44.51118" lon="2.85751">
        <ele>444.4</ele>
        <time>2021-08-18T07:56:24Z</time>
      </trkpt>
      <trkpt lat="44.5112" lon="2.85745">
        <ele>444.8</ele>
        <time>2021-08-18T07:56:26Z</time>
      </trkpt>
      <trkpt lat="44.51122" lon="2.85739">
        <ele>445.1</ele>
        <time>2021-08-18T07:56:28Z</time>
      </trkpt>
      <trkpt lat="44.51124" lon="2.85733">
        <ele>445.5</ele>
        <time>2021-08-18T07:56:30Z</time>
      </trkpt>
      <trkpt lat="44.51126" lon="2.85727">
        <ele>445.7</ele>
        <time>2021-08-18T07:56:32Z</time>
      </trkpt>
      <trkpt lat="44.51128" lon="2.85722">
        <ele>446</ele>
        <time>2021-08-18T07:56:34Z</time>
      </trkpt>
      <trkpt lat="44.5113" lon="2.85717">
        <ele>446.3</ele>
        <time>2021-08-18T07:56:36Z</time>
      </trkpt>
      <trkpt lat="44.51132" lon="2.85712">
        <ele>446.6</ele>
        <time>2021-08-18T07:56:38Z</time>
      </trkpt>
      <trkpt lat="44.51134" lon="2.85706">
        <ele>446.9</ele>
        <time>2021-08-18T07:56:40Z</time>
      </trkpt>
      <trkpt lat="44.51136" lon="2.85702">
        <ele>447.2</ele>
        <time>2021-08-18T07:56:42Z</time>
      </trkpt>
      <trkpt lat="44.51137" lon="2.85699">
        <ele>447.3</ele>
        <time>2021-08-18T07:56:44Z</time>
      </trkpt>
      <trkpt lat="44.51137" lon="2.857">
        <ele>447.3</ele>
        <time>2021-08-18T07:56:46Z</time>
      </trkpt>
      <trkpt lat="44.51137" lon="2.857">
        <ele>447.3</ele>
        <time>2021-08-18T07:56:48Z</time>
      </trkpt>
      <trkpt lat="44.51137" lon="2.857">
        <ele>447.3</ele>
        <time>2021-08-18T07:56:50Z</time>
      </trkpt>
      <trkpt lat="44.51137" lon="2.857">
        <ele>447.3</ele>
        <time>2021-08-18T07:56:52Z</time>
      </trkpt>
      <trkpt lat="44.51141" lon="2.85682">
        <ele>447.4</ele>
        <time>2021-08-18T07:59:14Z</time>
      </trkpt>
      <trkpt lat="44.51142" lon="2.85677">
        <ele>447.5</ele>
        <time>2021-08-18T07:59:16Z</time>
      </trkpt>
      <trkpt lat="44.51144" lon="2.8567">
        <ele>447.6</ele>
        <time>2021-08-18T07:59:18Z</time>
      </trkpt>
      <trkpt lat="44.51146" lon="2.85662">
        <ele>447.5</ele>
        <time>2021-08-18T07:59:20Z</time>
      </trkpt>
      <trkpt lat="44.51148" lon="2.85653">
        <ele>447.5</ele>
        <time>2021-08-18T07:59:22Z</time>
      </trkpt>
      <trkpt lat="44.51151" lon="2.85644">
        <ele>447.4</ele>
        <time>2021-08-18T07:59:24Z</time>
      </trkpt>
      <trkpt lat="44.51153" lon="2.85636">
        <ele>447.4</ele>
        <time>2021-08-18T07:59:26Z</time>
      </trkpt>
      <trkpt lat="44.51155" lon="2.85628">
        <ele>447.2</ele>
        <time>2021-08-18T07:59:28Z</time>
      </trkpt>
      <trkpt lat="44.51156" lon="2.85621">
        <ele>446.9</ele>
        <time>2021-08-18T07:59:30Z</time>
      </trkpt>
      <trkpt lat="44.51157" lon="2.85613">
        <ele>446.7</ele>
        <time>2021-08-18T07:59:32Z</time>
      </trkpt>
      <trkpt lat="44.5116" lon="2.85607">
        <ele>446.7</ele>
        <time>2021-08-18T07:59:34Z</time>
      </trkpt>
      <trkpt lat="44.51164" lon="2.85599">
        <ele>446.6</ele>
        <time>2021-08-18T07:59:36Z</time>
      </trkpt>
      <trkpt lat="44.51168" lon="2.8559">
        <ele>446.4</ele>
        <time>2021-08-18T07:59:38Z</time>
      </trkpt>
      <trkpt lat="44.51173" lon="2.85582">
        <ele>445.5</ele>
        <time>2021-08-18T07:59:40Z</time>
      </trkpt>
      <trkpt lat="44.51179" lon="2.85571">
        <ele>444.2</ele>
        <time>2021-08-18T07:59:42Z</time>
      </trkpt>
      <trkpt lat="44.51188" lon="2.85561">
        <ele>442.8</ele>
        <time>2021-08-18T07:59:44Z</time>
      </trkpt>
      <trkpt lat="44.51197" lon="2.85554">
        <ele>441.5</ele>
        <time>2021-08-18T07:59:46Z</time>
      </trkpt>
      <trkpt lat="44.51206" lon="2.85548">
        <ele>440.3</ele>
        <time>2021-08-18T07:59:48Z</time>
      </trkpt>
      <trkpt lat="44.51216" lon="2.85545">
        <ele>439.3</ele>
        <time>2021-08-18T07:59:50Z</time>
      </trkpt>
      <trkpt lat="44.51226" lon="2.85543">
        <ele>438.4</ele>
        <time>2021-08-18T07:59:52Z</time>
      </trkpt>
      <trkpt lat="44.51237" lon="2.85544">
        <ele>437.8</ele>
        <time>2021-08-18T07:59:54Z</time>
      </trkpt>
      <trkpt lat="44.51248" lon="2.85547">
        <ele>437.4</ele>
        <time>2021-08-18T07:59:56Z</time>
      </trkpt>
      <trkpt lat="44.5126" lon="2.85552">
        <ele>436.5</ele>
        <time>2021-08-18T07:59:58Z</time>
      </trkpt>
      <trkpt lat="44.51271" lon="2.85557">
        <ele>435.3</ele>
        <time>2021-08-18T08:00:00Z</time>
      </trkpt>
      <trkpt lat="44.51283" lon="2.85562">
        <ele>434</ele>
        <time>2021-08-18T08:00:02Z</time>
      </trkpt>
      <trkpt lat="44.51296" lon="2.85568">
        <ele>432.5</ele>
        <time>2021-08-18T08:00:04Z</time>
      </trkpt>
      <trkpt lat="44.51309" lon="2.85572">
        <ele>430.7</ele>
        <time>2021-08-18T08:00:06Z</time>
      </trkpt>
      <trkpt lat="44.51321" lon="2.85574">
        <ele>428.7</ele>
        <time>2021-08-18T08:00:08Z</time>
      </trkpt>
      <trkpt lat="44.51334" lon="2.85574">
        <ele>426.6</ele>
        <time>2021-08-18T08:00:10Z</time>
      </trkpt>
      <trkpt lat="44.51347" lon="2.85569">
        <ele>426</ele>
        <time>2021-08-18T08:00:12Z</time>
      </trkpt>
      <trkpt lat="44.51359" lon="2.85562">
        <ele>425.1</ele>
        <time>2021-08-18T08:00:14Z</time>
      </trkpt>
      <trkpt lat="44.51369" lon="2.85552">
        <ele>423.9</ele>
        <time>2021-08-18T08:00:16Z</time>
      </trkpt>
      <trkpt lat="44.51379" lon="2.85539">
        <ele>422.3</ele>
        <time>2021-08-18T08:00:18Z</time>
      </trkpt>
      <trkpt lat="44.51388" lon="2.85525">
        <ele>420.4</ele>
        <time>2021-08-18T08:00:20Z</time>
      </trkpt>
      <trkpt lat="44.51399" lon="2.85514">
        <ele>418.4</ele>
        <time>2021-08-18T08:00:22Z</time>
      </trkpt>
      <trkpt lat="44.51411" lon="2.85506">
        <ele>416.4</ele>
        <time>2021-08-18T08:00:24Z</time>
      </trkpt>
      <trkpt lat="44.51424" lon="2.85504">
        <ele>414.5</ele>
        <time>2021-08-18T08:00:26Z</time>
      </trkpt>
      <trkpt lat="44.51438" lon="2.85507">
        <ele>413</ele>
        <time>2021-08-18T08:00:28Z</time>
      </trkpt>
      <trkpt lat="44.51452" lon="2.85515">
        <ele>412.2</ele>
        <time>2021-08-18T08:00:30Z</time>
      </trkpt>
      <trkpt lat="44.51465" lon="2.85528">
        <ele>412.4</ele>
        <time>2021-08-18T08:00:32Z</time>
      </trkpt>
      <trkpt lat="44.51477" lon="2.85541">
        <ele>412.7</ele>
        <time>2021-08-18T08:00:34Z</time>
      </trkpt>
      <trkpt lat="44.5149" lon="2.8555">
        <ele>412.4</ele>
        <time>2021-08-18T08:00:36Z</time>
      </trkpt>
      <trkpt lat="44.51505" lon="2.85556">
        <ele>411.8</ele>
        <time>2021-08-18T08:00:38Z</time>
      </trkpt>
      <trkpt lat="44.51523" lon="2.85555">
        <ele>411</ele>
        <time>2021-08-18T08:00:40Z</time>
      </trkpt>
      <trkpt lat="44.51541" lon="2.85552">
        <ele>409.7</ele>
        <time>2021-08-18T08:00:42Z</time>
      </trkpt>
      <trkpt lat="44.51559" lon="2.85546">
        <ele>408.3</ele>
        <time>2021-08-18T08:00:44Z</time>
      </trkpt>
      <trkpt lat="44.51574" lon="2.85534">
        <ele>406.5</ele>
        <time>2021-08-18T08:00:46Z</time>
      </trkpt>
      <trkpt lat="44.51586" lon="2.85515">
        <ele>405</ele>
        <time>2021-08-18T08:00:48Z</time>
      </trkpt>
      <trkpt lat="44.51593" lon="2.85492">
        <ele>405.1</ele>
        <time>2021-08-18T08:00:50Z</time>
      </trkpt>
      <trkpt lat="44.51595" lon="2.85467">
        <ele>404.9</ele>
        <time>2021-08-18T08:00:52Z</time>
      </trkpt>
      <trkpt lat="44.51593" lon="2.85443">
        <ele>404</ele>
        <time>2021-08-18T08:00:54Z</time>
      </trkpt>
      <trkpt lat="44.51591" lon="2.85419">
        <ele>403</ele>
        <time>2021-08-18T08:00:56Z</time>
      </trkpt>
      <trkpt lat="44.51589" lon="2.85397">
        <ele>401.2</ele>
        <time>2021-08-18T08:00:58Z</time>
      </trkpt>
      <trkpt lat="44.51588" lon="2.85375">
        <ele>399.6</ele>
        <time>2021-08-18T08:01:00Z</time>
      </trkpt>
      <trkpt lat="44.51588" lon="2.85353">
        <ele>398.3</ele>
        <time>2021-08-18T08:01:02Z</time>
      </trkpt>
      <trkpt lat="44.5159" lon="2.85331">
        <ele>397.2</ele>
        <time>2021-08-18T08:01:04Z</time>
      </trkpt>
      <trkpt lat="44.51592" lon="2.85309">
        <ele>395.9</ele>
        <time>2021-08-18T08:01:06Z</time>
      </trkpt>
      <trkpt lat="44.51595" lon="2.85287">
        <ele>394.5</ele>
        <time>2021-08-18T08:01:08Z</time>
      </trkpt>
      <trkpt lat="44.51598" lon="2.85265">
        <ele>393.1</ele>
        <time>2021-08-18T08:01:10Z</time>
      </trkpt>
      <trkpt lat="44.51601" lon="2.85242">
        <ele>391.8</ele>
        <time>2021-08-18T08:01:12Z</time>
      </trkpt>
      <trkpt lat="44.51603" lon="2.8522">
        <ele>390.6</ele>
        <time>2021-08-18T08:01:14Z</time>
      </trkpt>
      <trkpt lat="44.51606" lon="2.85199">
        <ele>389.6</ele>
        <time>2021-08-18T08:01:16Z</time>
      </trkpt>
      <trkpt lat="44.51609" lon="2.85177">
        <ele>388.6</ele>
        <time>2021-08-18T08:01:18Z</time>
      </trkpt>
      <trkpt lat="44.51611" lon="2.85156">
        <ele>388.1</ele>
        <time>2021-08-18T08:01:20Z</time>
      </trkpt>
      <trkpt lat="44.5161" lon="2.85136">
        <ele>387.8</ele>
        <time>2021-08-18T08:01:22Z</time>
      </trkpt>
      <trkpt lat="44.51609" lon="2.85117">
        <ele>387.3</ele>
        <time>2021-08-18T08:01:24Z</time>
      </trkpt>
      <trkpt lat="44.51609" lon="2.85098">
        <ele>387</ele>
        <time>2021-08-18T08:01:26Z</time>
      </trkpt>
      <trkpt lat="44.5161" lon="2.85079">
        <ele>387.1</ele>
        <time>2021-08-18T08:01:28Z</time>
      </trkpt>
      <trkpt lat="44.51613" lon="2.8506">
        <ele>387.3</ele>
        <time>2021-08-18T08:01:30Z</time>
      </trkpt>
      <trkpt lat="44.51613" lon="2.85041">
        <ele>387</ele>
        <time>2021-08-18T08:01:32Z</time>
      </trkpt>
      <trkpt lat="44.51611" lon="2.85021">
        <ele>386.3</ele>
        <time>2021-08-18T08:01:34Z</time>
      </trkpt>
      <trkpt lat="44.51608" lon="2.85002">
        <ele>385.5</ele>
        <time>2021-08-18T08:01:36Z</time>
      </trkpt>
      <trkpt lat="44.51605" lon="2.84981">
        <ele>385.4</ele>
        <time>2021-08-18T08:01:38Z</time>
      </trkpt>
      <trkpt lat="44.51604" lon="2.84958">
        <ele>385.6</ele>
        <time>2021-08-18T08:01:40Z</time>
      </trkpt>
      <trkpt lat="44.51605" lon="2.84934">
        <ele>386.1</ele>
        <time>2021-08-18T08:01:42Z</time>
      </trkpt>
      <trkpt lat="44.51606" lon="2.84911">
        <ele>386.9</ele>
        <time>2021-08-18T08:01:44Z</time>
      </trkpt>
      <trkpt lat="44.51604" lon="2.84888">
        <ele>387.9</ele>
        <time>2021-08-18T08:01:46Z</time>
      </trkpt>
      <trkpt lat="44.51599" lon="2.84868">
        <ele>388.4</ele>
        <time>2021-08-18T08:01:48Z</time>
      </trkpt>
      <trkpt lat="44.51591" lon="2.8485">
        <ele>388.1</ele>
        <time>2021-08-18T08:01:50Z</time>
      </trkpt>
      <trkpt lat="44.51582" lon="2.84835">
        <ele>387.4</ele>
        <time>2021-08-18T08:01:52Z</time>
      </trkpt>
      <trkpt lat="44.51571" lon="2.84823">
        <ele>384.7</ele>
        <time>2021-08-18T08:01:54Z</time>
      </trkpt>
      <trkpt lat="44.51559" lon="2.84813">
        <ele>381.7</ele>
        <time>2021-08-18T08:01:56Z</time>
      </trkpt>
      <trkpt lat="44.51548" lon="2.848">
        <ele>379</ele>
        <time>2021-08-18T08:01:58Z</time>
      </trkpt>
      <trkpt lat="44.51542" lon="2.8478">
        <ele>377.2</ele>
        <time>2021-08-18T08:02:00Z</time>
      </trkpt>
      <trkpt lat="44.51538" lon="2.84757">
        <ele>376.3</ele>
        <time>2021-08-18T08:02:02Z</time>
      </trkpt>
      <trkpt lat="44.51537" lon="2.84733">
        <ele>376.1</ele>
        <time>2021-08-18T08:02:04Z</time>
      </trkpt>
      <trkpt lat="44.51535" lon="2.84709">
        <ele>376</ele>
        <time>2021-08-18T08:02:06Z</time>
      </trkpt>
      <trkpt lat="44.51531" lon="2.84685">
        <ele>375.5</ele>
        <time>2021-08-18T08:02:08Z</time>
      </trkpt>
      <trkpt lat="44.51523" lon="2.84662">
        <ele>374.5</ele>
        <time>2021-08-18T08:02:10Z</time>
      </trkpt>
      <trkpt lat="44.51513" lon="2.84641">
        <ele>373</ele>
        <time>2021-08-18T08:02:12Z</time>
      </trkpt>
      <trkpt lat="44.51503" lon="2.8462">
        <ele>371.7</ele>
        <time>2021-08-18T08:02:14Z</time>
      </trkpt>
      <trkpt lat="44.51493" lon="2.84599">
        <ele>370.9</ele>
        <time>2021-08-18T08:02:16Z</time>
      </trkpt>
      <trkpt lat="44.51483" lon="2.84577">
        <ele>370.1</ele>
        <time>2021-08-18T08:02:18Z</time>
      </trkpt>
      <trkpt lat="44.51472" lon="2.84556">
        <ele>368.7</ele>
        <time>2021-08-18T08:02:20Z</time>
      </trkpt>
      <trkpt lat="44.51462" lon="2.84533">
        <ele>367.3</ele>
        <time>2021-08-18T08:02:22Z</time>
      </trkpt>
      <trkpt lat="44.51455" lon="2.84508">
        <ele>366.3</ele>
        <time>2021-08-18T08:02:24Z</time>
      </trkpt>
      <trkpt lat="44.51454" lon="2.84483">
        <ele>365.9</ele>
        <time>2021-08-18T08:02:26Z</time>
      </trkpt>
      <trkpt lat="44.51457" lon="2.84459">
        <ele>366.1</ele>
        <time>2021-08-18T08:02:28Z</time>
      </trkpt>
      <trkpt lat="44.51466" lon="2.84438">
        <ele>366.9</ele>
        <time>2021-08-18T08:02:30Z</time>
      </trkpt>
      <trkpt lat="44.51479" lon="2.84424">
        <ele>368.1</ele>
        <time>2021-08-18T08:02:32Z</time>
      </trkpt>
      <trkpt lat="44.51495" lon="2.84415">
        <ele>369.5</ele>
        <time>2021-08-18T08:02:34Z</time>
      </trkpt>
      <trkpt lat="44.51509" lon="2.84408">
        <ele>370.7</ele>
        <time>2021-08-18T08:02:36Z</time>
      </trkpt>
      <trkpt lat="44.51519" lon="2.84397">
        <ele>371.4</ele>
        <time>2021-08-18T08:02:38Z</time>
      </trkpt>
      <trkpt lat="44.51522" lon="2.84378">
        <ele>371.3</ele>
        <time>2021-08-18T08:02:40Z</time>
      </trkpt>
      <trkpt lat="44.51519" lon="2.84359">
        <ele>370.7</ele>
        <time>2021-08-18T08:02:42Z</time>
      </trkpt>
      <trkpt lat="44.51516" lon="2.84339">
        <ele>370.1</ele>
        <time>2021-08-18T08:02:44Z</time>
      </trkpt>
      <trkpt lat="44.51511" lon="2.84322">
        <ele>371.7</ele>
        <time>2021-08-18T08:02:46Z</time>
      </trkpt>
      <trkpt lat="44.51504" lon="2.84308">
        <ele>373.8</ele>
        <time>2021-08-18T08:02:48Z</time>
      </trkpt>
      <trkpt lat="44.51495" lon="2.843">
        <ele>374.6</ele>
        <time>2021-08-18T08:02:50Z</time>
      </trkpt>
      <trkpt lat="44.51487" lon="2.84295">
        <ele>374.6</ele>
        <time>2021-08-18T08:02:52Z</time>
      </trkpt>
      <trkpt lat="44.51479" lon="2.84293">
        <ele>374.2</ele>
        <time>2021-08-18T08:02:54Z</time>
      </trkpt>
      <trkpt lat="44.51472" lon="2.84293">
        <ele>373.7</ele>
        <time>2021-08-18T08:02:56Z</time>
      </trkpt>
      <trkpt lat="44.51466" lon="2.84293">
        <ele>373</ele>
        <time>2021-08-18T08:02:58Z</time>
      </trkpt>
      <trkpt lat="44.51461" lon="2.84295">
        <ele>372.3</ele>
        <time>2021-08-18T08:03:00Z</time>
      </trkpt>
      <trkpt lat="44.51456" lon="2.84294">
        <ele>371.9</ele>
        <time>2021-08-18T08:03:02Z</time>
      </trkpt>
      <trkpt lat="44.51451" lon="2.84292">
        <ele>371.8</ele>
        <time>2021-08-18T08:03:04Z</time>
      </trkpt>
      <trkpt lat="44.51447" lon="2.84289">
        <ele>371.7</ele>
        <time>2021-08-18T08:03:06Z</time>
      </trkpt>
      <trkpt lat="44.51443" lon="2.84285">
        <ele>371.7</ele>
        <time>2021-08-18T08:03:08Z</time>
      </trkpt>
      <trkpt lat="44.51439" lon="2.84281">
        <ele>371.8</ele>
        <time>2021-08-18T08:03:10Z</time>
      </trkpt>
      <trkpt lat="44.51436" lon="2.84276">
        <ele>371.9</ele>
        <time>2021-08-18T08:03:12Z</time>
      </trkpt>
      <trkpt lat="44.51432" lon="2.84271">
        <ele>372.1</ele>
        <time>2021-08-18T08:03:14Z</time>
      </trkpt>
      <trkpt lat="44.5143" lon="2.84265">
        <ele>372.4</ele>
        <time>2021-08-18T08:03:16Z</time>
      </trkpt>
      <trkpt lat="44.51428" lon="2.84259">
        <ele>372.7</ele>
        <time>2021-08-18T08:03:18Z</time>
      </trkpt>
      <trkpt lat="44.51427" lon="2.84254">
        <ele>373.1</ele>
        <time>2021-08-18T08:03:20Z</time>
      </trkpt>
      <trkpt lat="44.51426" lon="2.84247">
        <ele>373.4</ele>
        <time>2021-08-18T08:03:22Z</time>
      </trkpt>
      <trkpt lat="44.51425" lon="2.84241">
        <ele>373.6</ele>
        <time>2021-08-18T08:03:24Z</time>
      </trkpt>
      <trkpt lat="44.51424" lon="2.84236">
        <ele>373.8</ele>
        <time>2021-08-18T08:03:26Z</time>
      </trkpt>
      <trkpt lat="44.51424" lon="2.8423">
        <ele>374.2</ele>
        <time>2021-08-18T08:03:28Z</time>
      </trkpt>
      <trkpt lat="44.51424" lon="2.84224">
        <ele>374.4</ele>
        <time>2021-08-18T08:03:30Z</time>
      </trkpt>
      <trkpt lat="44.51424" lon="2.84218">
        <ele>374.8</ele>
        <time>2021-08-18T08:03:32Z</time>
      </trkpt>
      <trkpt lat="44.51425" lon="2.84212">
        <ele>375.1</ele>
        <time>2021-08-18T08:03:34Z</time>
      </trkpt>
      <trkpt lat="44.51425" lon="2.84207">
        <ele>375.5</ele>
        <time>2021-08-18T08:03:36Z</time>
      </trkpt>
      <trkpt lat="44.51425" lon="2.84201">
        <ele>375.7</ele>
        <time>2021-08-18T08:03:38Z</time>
      </trkpt>
      <trkpt lat="44.51425" lon="2.84195">
        <ele>376</ele>
        <time>2021-08-18T08:03:40Z</time>
      </trkpt>
      <trkpt lat="44.51425" lon="2.8419">
        <ele>376.3</ele>
        <time>2021-08-18T08:03:42Z</time>
      </trkpt>
      <trkpt lat="44.51425" lon="2.84184">
        <ele>376.5</ele>
        <time>2021-08-18T08:03:44Z</time>
      </trkpt>
      <trkpt lat="44.51425" lon="2.84179">
        <ele>376.9</ele>
        <time>2021-08-18T08:03:46Z</time>
      </trkpt>
      <trkpt lat="44.51425" lon="2.84173">
        <ele>377.1</ele>
        <time>2021-08-18T08:03:48Z</time>
      </trkpt>
      <trkpt lat="44.51425" lon="2.84168">
        <ele>377.4</ele>
        <time>2021-08-18T08:03:50Z</time>
      </trkpt>
      <trkpt lat="44.51424" lon="2.84162">
        <ele>377.7</ele>
        <time>2021-08-18T08:03:52Z</time>
      </trkpt>
      <trkpt lat="44.51424" lon="2.84157">
        <ele>378.1</ele>
        <time>2021-08-18T08:03:54Z</time>
      </trkpt>
      <trkpt lat="44.51424" lon="2.84151">
        <ele>378.4</ele>
        <time>2021-08-18T08:03:56Z</time>
      </trkpt>
      <trkpt lat="44.51424" lon="2.84145">
        <ele>378.9</ele>
        <time>2021-08-18T08:03:58Z</time>
      </trkpt>
      <trkpt lat="44.51424" lon="2.8414">
        <ele>379.3</ele>
        <time>2021-08-18T08:04:00Z</time>
      </trkpt>
      <trkpt lat="44.51424" lon="2.84134">
        <ele>379.7</ele>
        <time>2021-08-18T08:04:02Z</time>
      </trkpt>
      <trkpt lat="44.51424" lon="2.84128">
        <ele>380.1</ele>
        <time>2021-08-18T08:04:04Z</time>
      </trkpt>
      <trkpt lat="44.51424" lon="2.84123">
        <ele>380.5</ele>
        <time>2021-08-18T08:04:06Z</time>
      </trkpt>
      <trkpt lat="44.51425" lon="2.84117">
        <ele>381</ele>
        <time>2021-08-18T08:04:08Z</time>
      </trkpt>
      <trkpt lat="44.51425" lon="2.84112">
        <ele>381.3</ele>
        <time>2021-08-18T08:04:10Z</time>
      </trkpt>
      <trkpt lat="44.51425" lon="2.84106">
        <ele>381.8</ele>
        <time>2021-08-18T08:04:12Z</time>
      </trkpt>
      <trkpt lat="44.51425" lon="2.841">
        <ele>382.2</ele>
        <time>2021-08-18T08:04:14Z</time>
      </trkpt>
      <trkpt lat="44.51425" lon="2.84095">
        <ele>382.6</ele>
        <time>2021-08-18T08:04:16Z</time>
      </trkpt>
      <trkpt lat="44.51425" lon="2.84089">
        <ele>383</ele>
        <time>2021-08-18T08:04:18Z</time>
      </trkpt>
      <trkpt lat="44.51425" lon="2.84083">
        <ele>383.4</ele>
        <time>2021-08-18T08:04:20Z</time>
      </trkpt>
      <trkpt lat="44.51425" lon="2.84077">
        <ele>383.6</ele>
        <time>2021-08-18T08:04:22Z</time>
      </trkpt>
      <trkpt lat="44.51425" lon="2.84072">
        <ele>383.6</ele>
        <time>2021-08-18T08:04:24Z</time>
      </trkpt>
      <trkpt lat="44.51425" lon="2.84066">
        <ele>383.7</ele>
        <time>2021-08-18T08:04:26Z</time>
      </trkpt>
      <trkpt lat="44.51425" lon="2.8406">
        <ele>383.9</ele>
        <time>2021-08-18T08:04:28Z</time>
      </trkpt>
      <trkpt lat="44.51426" lon="2.84055">
        <ele>384.1</ele>
        <time>2021-08-18T08:04:30Z</time>
      </trkpt>
      <trkpt lat="44.51426" lon="2.84049">
        <ele>384.2</ele>
        <time>2021-08-18T08:04:32Z</time>
      </trkpt>
      <trkpt lat="44.51425" lon="2.84043">
        <ele>384.3</ele>
        <time>2021-08-18T08:04:34Z</time>
      </trkpt>
      <trkpt lat="44.51426" lon="2.84038">
        <ele>384.5</ele>
        <time>2021-08-18T08:04:36Z</time>
      </trkpt>
      <trkpt lat="44.51426" lon="2.84032">
        <ele>384.6</ele>
        <time>2021-08-18T08:04:38Z</time>
      </trkpt>
      <trkpt lat="44.51426" lon="2.84026">
        <ele>384.7</ele>
        <time>2021-08-18T08:04:40Z</time>
      </trkpt>
      <trkpt lat="44.51426" lon="2.8402">
        <ele>384.7</ele>
        <time>2021-08-18T08:04:42Z</time>
      </trkpt>
      <trkpt lat="44.51426" lon="2.84014">
        <ele>384.9</ele>
        <time>2021-08-18T08:04:44Z</time>
      </trkpt>
      <trkpt lat="44.51426" lon="2.84008">
        <ele>385.1</ele>
        <time>2021-08-18T08:04:46Z</time>
      </trkpt>
      <trkpt lat="44.51426" lon="2.84002">
        <ele>385.3</ele>
        <time>2021-08-18T08:04:48Z</time>
      </trkpt>
      <trkpt lat="44.51426" lon="2.83996">
        <ele>385.5</ele>
        <time>2021-08-18T08:04:50Z</time>
      </trkpt>
      <trkpt lat="44.51427" lon="2.8399">
        <ele>385.9</ele>
        <time>2021-08-18T08:04:52Z</time>
      </trkpt>
      <trkpt lat="44.51427" lon="2.83984">
        <ele>386.3</ele>
        <time>2021-08-18T08:04:54Z</time>
      </trkpt>
      <trkpt lat="44.51427" lon="2.83978">
        <ele>386.5</ele>
        <time>2021-08-18T08:04:56Z</time>
      </trkpt>
      <trkpt lat="44.51427" lon="2.83973">
        <ele>386.9</ele>
        <time>2021-08-18T08:04:58Z</time>
      </trkpt>
      <trkpt lat="44.51427" lon="2.83967">
        <ele>387.1</ele>
        <time>2021-08-18T08:05:00Z</time>
      </trkpt>
      <trkpt lat="44.51427" lon="2.83961">
        <ele>387.3</ele>
        <time>2021-08-18T08:05:02Z</time>
      </trkpt>
      <trkpt lat="44.51427" lon="2.83955">
        <ele>387.5</ele>
        <time>2021-08-18T08:05:04Z</time>
      </trkpt>
      <trkpt lat="44.51426" lon="2.83949">
        <ele>387.7</ele>
        <time>2021-08-18T08:05:06Z</time>
      </trkpt>
      <trkpt lat="44.51426" lon="2.83944">
        <ele>388</ele>
        <time>2021-08-18T08:05:08Z</time>
      </trkpt>
      <trkpt lat="44.51426" lon="2.83938">
        <ele>388.1</ele>
        <time>2021-08-18T08:05:10Z</time>
      </trkpt>
      <trkpt lat="44.51426" lon="2.83932">
        <ele>388.4</ele>
        <time>2021-08-18T08:05:12Z</time>
      </trkpt>
      <trkpt lat="44.51425" lon="2.83927">
        <ele>388.6</ele>
        <time>2021-08-18T08:05:14Z</time>
      </trkpt>
      <trkpt lat="44.51425" lon="2.83922">
        <ele>388.7</ele>
        <time>2021-08-18T08:05:16Z</time>
      </trkpt>
      <trkpt lat="44.51425" lon="2.83916">
        <ele>389</ele>
        <time>2021-08-18T08:05:18Z</time>
      </trkpt>
      <trkpt lat="44.51424" lon="2.83911">
        <ele>389.2</ele>
        <time>2021-08-18T08:05:20Z</time>
      </trkpt>
      <trkpt lat="44.51424" lon="2.83905">
        <ele>389.5</ele>
        <time>2021-08-18T08:05:22Z</time>
      </trkpt>
      <trkpt lat="44.51423" lon="2.839">
        <ele>389.7</ele>
        <time>2021-08-18T08:05:24Z</time>
      </trkpt>
      <trkpt lat="44.51422" lon="2.83894">
        <ele>389.8</ele>
        <time>2021-08-18T08:05:26Z</time>
      </trkpt>
      <trkpt lat="44.51421" lon="2.83889">
        <ele>390</ele>
        <time>2021-08-18T08:05:28Z</time>
      </trkpt>
      <trkpt lat="44.5142" lon="2.83884">
        <ele>390.2</ele>
        <time>2021-08-18T08:05:30Z</time>
      </trkpt>
      <trkpt lat="44.5142" lon="2.83879">
        <ele>390.4</ele>
        <time>2021-08-18T08:05:32Z</time>
      </trkpt>
      <trkpt lat="44.51419" lon="2.83873">
        <ele>390.5</ele>
        <time>2021-08-18T08:05:34Z</time>
      </trkpt>
      <trkpt lat="44.51418" lon="2.83868">
        <ele>390.7</ele>
        <time>2021-08-18T08:05:36Z</time>
      </trkpt>
      <trkpt lat="44.51417" lon="2.83862">
        <ele>390.9</ele>
        <time>2021-08-18T08:05:38Z</time>
      </trkpt>
      <trkpt lat="44.51415" lon="2.83857">
        <ele>391</ele>
        <time>2021-08-18T08:05:40Z</time>
      </trkpt>
      <trkpt lat="44.51414" lon="2.83851">
        <ele>391</ele>
        <time>2021-08-18T08:05:42Z</time>
      </trkpt>
      <trkpt lat="44.51413" lon="2.83846">
        <ele>391.3</ele>
        <time>2021-08-18T08:05:44Z</time>
      </trkpt>
      <trkpt lat="44.51413" lon="2.8384">
        <ele>391.6</ele>
        <time>2021-08-18T08:05:46Z</time>
      </trkpt>
      <trkpt lat="44.51412" lon="2.83834">
        <ele>391.7</ele>
        <time>2021-08-18T08:05:48Z</time>
      </trkpt>
      <trkpt lat="44.51412" lon="2.83828">
        <ele>391.9</ele>
        <time>2021-08-18T08:05:50Z</time>
      </trkpt>
      <trkpt lat="44.51411" lon="2.83822">
        <ele>392.1</ele>
        <time>2021-08-18T08:05:52Z</time>
      </trkpt>
      <trkpt lat="44.51411" lon="2.83817">
        <ele>392.1</ele>
        <time>2021-08-18T08:05:54Z</time>
      </trkpt>
      <trkpt lat="44.5141" lon="2.83811">
        <ele>392.2</ele>
        <time>2021-08-18T08:05:56Z</time>
      </trkpt>
      <trkpt lat="44.5141" lon="2.83805">
        <ele>392.5</ele>
        <time>2021-08-18T08:05:58Z</time>
      </trkpt>
      <trkpt lat="44.51409" lon="2.838">
        <ele>392.4</ele>
        <time>2021-08-18T08:06:00Z</time>
      </trkpt>
      <trkpt lat="44.51409" lon="2.83794">
        <ele>392.6</ele>
        <time>2021-08-18T08:06:02Z</time>
      </trkpt>
      <trkpt lat="44.5141" lon="2.83787">
        <ele>393.1</ele>
        <time>2021-08-18T08:06:04Z</time>
      </trkpt>
      <trkpt lat="44.5141" lon="2.83781">
        <ele>393.3</ele>
        <time>2021-08-18T08:06:06Z</time>
      </trkpt>
      <trkpt lat="44.5141" lon="2.83775">
        <ele>393.5</ele>
        <time>2021-08-18T08:06:08Z</time>
      </trkpt>
      <trkpt lat="44.51409" lon="2.83769">
        <ele>393.7</ele>
        <time>2021-08-18T08:06:10Z</time>
      </trkpt>
      <trkpt lat="44.51409" lon="2.83763">
        <ele>393.8</ele>
        <time>2021-08-18T08:06:12Z</time>
      </trkpt>
      <trkpt lat="44.51409" lon="2.83757">
        <ele>394.1</ele>
        <time>2021-08-18T08:06:14Z</time>
      </trkpt>
      <trkpt lat="44.51409" lon="2.8375">
        <ele>394.3</ele>
        <time>2021-08-18T08:06:16Z</time>
      </trkpt>
      <trkpt lat="44.51409" lon="2.83744">
        <ele>394.4</ele>
        <time>2021-08-18T08:06:18Z</time>
      </trkpt>
      <trkpt lat="44.51409" lon="2.83737">
        <ele>394.5</ele>
        <time>2021-08-18T08:06:20Z</time>
      </trkpt>
      <trkpt lat="44.51409" lon="2.8373">
        <ele>394.5</ele>
        <time>2021-08-18T08:06:22Z</time>
      </trkpt>
      <trkpt lat="44.51409" lon="2.83722">
        <ele>394.6</ele>
        <time>2021-08-18T08:06:24Z</time>
      </trkpt>
      <trkpt lat="44.51408" lon="2.83715">
        <ele>394.6</ele>
        <time>2021-08-18T08:06:26Z</time>
      </trkpt>
      <trkpt lat="44.51408" lon="2.83708">
        <ele>394.6</ele>
        <time>2021-08-18T08:06:28Z</time>
      </trkpt>
      <trkpt lat="44.51407" lon="2.83701">
        <ele>394.6</ele>
        <time>2021-08-18T08:06:30Z</time>
      </trkpt>
      <trkpt lat="44.51407" lon="2.83693">
        <ele>394.6</ele>
        <time>2021-08-18T08:06:32Z</time>
      </trkpt>
      <trkpt lat="44.51406" lon="2.83686">
        <ele>394.7</ele>
        <time>2021-08-18T08:06:34Z</time>
      </trkpt>
      <trkpt lat="44.51406" lon="2.83678">
        <ele>394.7</ele>
        <time>2021-08-18T08:06:36Z</time>
      </trkpt>
      <trkpt lat="44.51406" lon="2.83669">
        <ele>394.7</ele>
        <time>2021-08-18T08:06:38Z</time>
      </trkpt>
      <trkpt lat="44.51405" lon="2.83659">
        <ele>394.6</ele>
        <time>2021-08-18T08:06:40Z</time>
      </trkpt>
      <trkpt lat="44.51406" lon="2.83649">
        <ele>394.4</ele>
        <time>2021-08-18T08:06:42Z</time>
      </trkpt>
      <trkpt lat="44.51405" lon="2.83637">
        <ele>394.1</ele>
        <time>2021-08-18T08:06:44Z</time>
      </trkpt>
      <trkpt lat="44.51405" lon="2.83624">
        <ele>393.8</ele>
        <time>2021-08-18T08:06:46Z</time>
      </trkpt>
      <trkpt lat="44.51404" lon="2.83611">
        <ele>393.5</ele>
        <time>2021-08-18T08:06:48Z</time>
      </trkpt>
      <trkpt lat="44.51404" lon="2.83598">
        <ele>393.3</ele>
        <time>2021-08-18T08:06:50Z</time>
      </trkpt>
      <trkpt lat="44.51405" lon="2.83585">
        <ele>393.2</ele>
        <time>2021-08-18T08:06:52Z</time>
      </trkpt>
      <trkpt lat="44.51407" lon="2.83571">
        <ele>392.9</ele>
        <time>2021-08-18T08:06:54Z</time>
      </trkpt>
      <trkpt lat="44.5141" lon="2.83559">
        <ele>392.7</ele>
        <time>2021-08-18T08:06:56Z</time>
      </trkpt>
      <trkpt lat="44.51414" lon="2.83548">
        <ele>392.6</ele>
        <time>2021-08-18T08:06:58Z</time>
      </trkpt>
      <trkpt lat="44.51419" lon="2.83537">
        <ele>392.3</ele>
        <time>2021-08-18T08:07:00Z</time>
      </trkpt>
      <trkpt lat="44.51424" lon="2.83525">
        <ele>391.8</ele>
        <time>2021-08-18T08:07:02Z</time>
      </trkpt>
      <trkpt lat="44.5143" lon="2.83514">
        <ele>391.4</ele>
        <time>2021-08-18T08:07:04Z</time>
      </trkpt>
      <trkpt lat="44.51435" lon="2.83503">
        <ele>390.9</ele>
        <time>2021-08-18T08:07:06Z</time>
      </trkpt>
      <trkpt lat="44.51439" lon="2.83493">
        <ele>390.5</ele>
        <time>2021-08-18T08:07:08Z</time>
      </trkpt>
      <trkpt lat="44.51444" lon="2.83482">
        <ele>390.2</ele>
        <time>2021-08-18T08:07:10Z</time>
      </trkpt>
      <trkpt lat="44.51446" lon="2.83471">
        <ele>389.9</ele>
        <time>2021-08-18T08:07:12Z</time>
      </trkpt>
      <trkpt lat="44.51447" lon="2.83462">
        <ele>389.6</ele>
        <time>2021-08-18T08:07:14Z</time>
      </trkpt>
      <trkpt lat="44.51449" lon="2.83455">
        <ele>389.4</ele>
        <time>2021-08-18T08:07:16Z</time>
      </trkpt>
      <trkpt lat="44.5145" lon="2.83448">
        <ele>389.2</ele>
        <time>2021-08-18T08:07:18Z</time>
      </trkpt>
      <trkpt lat="44.5145" lon="2.83443">
        <ele>389</ele>
        <time>2021-08-18T08:07:20Z</time>
      </trkpt>
      <trkpt lat="44.5145" lon="2.83441">
        <ele>389</ele>
        <time>2021-08-18T08:07:22Z</time>
      </trkpt>
      <trkpt lat="44.5145" lon="2.83438">
        <ele>388.8</ele>
        <time>2021-08-18T08:07:24Z</time>
      </trkpt>
      <trkpt lat="44.5145" lon="2.83438">
        <ele>388.8</ele>
        <time>2021-08-18T08:07:26Z</time>
      </trkpt>
      <trkpt lat="44.5145" lon="2.83438">
        <ele>388.8</ele>
        <time>2021-08-18T08:07:28Z</time>
      </trkpt>
      <trkpt lat="44.51445" lon="2.83401">
        <ele>387.5</ele>
        <time>2021-08-18T08:09:52Z</time>
      </trkpt>
      <trkpt lat="44.51443" lon="2.83393">
        <ele>387.3</ele>
        <time>2021-08-18T08:09:54Z</time>
      </trkpt>
      <trkpt lat="44.51441" lon="2.83386">
        <ele>387</ele>
        <time>2021-08-18T08:09:56Z</time>
      </trkpt>
      <trkpt lat="44.51438" lon="2.83379">
        <ele>386.7</ele>
        <time>2021-08-18T08:09:58Z</time>
      </trkpt>
      <trkpt lat="44.51436" lon="2.83372">
        <ele>386.5</ele>
        <time>2021-08-18T08:10:00Z</time>
      </trkpt>
      <trkpt lat="44.51433" lon="2.83365">
        <ele>386.1</ele>
        <time>2021-08-18T08:10:02Z</time>
      </trkpt>
      <trkpt lat="44.51429" lon="2.83357">
        <ele>385.6</ele>
        <time>2021-08-18T08:10:04Z</time>
      </trkpt>
      <trkpt lat="44.51423" lon="2.83349">
        <ele>384.9</ele>
        <time>2021-08-18T08:10:06Z</time>
      </trkpt>
      <trkpt lat="44.51416" lon="2.8334">
        <ele>384</ele>
        <time>2021-08-18T08:10:08Z</time>
      </trkpt>
      <trkpt lat="44.51407" lon="2.8333">
        <ele>383.1</ele>
        <time>2021-08-18T08:10:10Z</time>
      </trkpt>
      <trkpt lat="44.51398" lon="2.83321">
        <ele>382.3</ele>
        <time>2021-08-18T08:10:12Z</time>
      </trkpt>
      <trkpt lat="44.51388" lon="2.83312">
        <ele>381.4</ele>
        <time>2021-08-18T08:10:14Z</time>
      </trkpt>
      <trkpt lat="44.51377" lon="2.83303">
        <ele>380.4</ele>
        <time>2021-08-18T08:10:16Z</time>
      </trkpt>
      <trkpt lat="44.51365" lon="2.83293">
        <ele>379.4</ele>
        <time>2021-08-18T08:10:18Z</time>
      </trkpt>
      <trkpt lat="44.51354" lon="2.83282">
        <ele>378.4</ele>
        <time>2021-08-18T08:10:20Z</time>
      </trkpt>
      <trkpt lat="44.51342" lon="2.8327">
        <ele>377.4</ele>
        <time>2021-08-18T08:10:22Z</time>
      </trkpt>
      <trkpt lat="44.51332" lon="2.83253">
        <ele>376.7</ele>
        <time>2021-08-18T08:10:24Z</time>
      </trkpt>
      <trkpt lat="44.51325" lon="2.83233">
        <ele>375.2</ele>
        <time>2021-08-18T08:10:26Z</time>
      </trkpt>
      <trkpt lat="44.51322" lon="2.83212">
        <ele>373.9</ele>
        <time>2021-08-18T08:10:28Z</time>
      </trkpt>
      <trkpt lat="44.51325" lon="2.83189">
        <ele>373.1</ele>
        <time>2021-08-18T08:10:30Z</time>
      </trkpt>
      <trkpt lat="44.5133" lon="2.83167">
        <ele>372.7</ele>
        <time>2021-08-18T08:10:32Z</time>
      </trkpt>
      <trkpt lat="44.51339" lon="2.83146">
        <ele>372.4</ele>
        <time>2021-08-18T08:10:34Z</time>
      </trkpt>
      <trkpt lat="44.51346" lon="2.83123">
        <ele>372.1</ele>
        <time>2021-08-18T08:10:36Z</time>
      </trkpt>
      <trkpt lat="44.5135" lon="2.83098">
        <ele>371.4</ele>
        <time>2021-08-18T08:10:38Z</time>
      </trkpt>
      <trkpt lat="44.51352" lon="2.83072">
        <ele>370.3</ele>
        <time>2021-08-18T08:10:40Z</time>
      </trkpt>
      <trkpt lat="44.51352" lon="2.83043">
        <ele>368.9</ele>
        <time>2021-08-18T08:10:42Z</time>
      </trkpt>
      <trkpt lat="44.51353" lon="2.83015">
        <ele>367.6</ele>
        <time>2021-08-18T08:10:44Z</time>
      </trkpt>
      <trkpt lat="44.51355" lon="2.82988">
        <ele>366.9</ele>
        <time>2021-08-18T08:10:46Z</time>
      </trkpt>
      <trkpt lat="44.51359" lon="2.82963">
        <ele>366.9</ele>
        <time>2021-08-18T08:10:48Z</time>
      </trkpt>
      <trkpt lat="44.51365" lon="2.82941">
        <ele>367.1</ele>
        <time>2021-08-18T08:10:50Z</time>
      </trkpt>
      <trkpt lat="44.51371" lon="2.82924">
        <ele>367.3</ele>
        <time>2021-08-18T08:10:52Z</time>
      </trkpt>
      <trkpt lat="44.51376" lon="2.82909">
        <ele>367.6</ele>
        <time>2021-08-18T08:10:54Z</time>
      </trkpt>
      <trkpt lat="44.5138" lon="2.82896">
        <ele>368</ele>
        <time>2021-08-18T08:10:56Z</time>
      </trkpt>
      <trkpt lat="44.51384" lon="2.82886">
        <ele>368.5</ele>
        <time>2021-08-18T08:10:58Z</time>
      </trkpt>
      <trkpt lat="44.51387" lon="2.82876">
        <ele>368.9</ele>
        <time>2021-08-18T08:11:00Z</time>
      </trkpt>
      <trkpt lat="44.5139" lon="2.82868">
        <ele>369.3</ele>
        <time>2021-08-18T08:11:02Z</time>
      </trkpt>
      <trkpt lat="44.51392" lon="2.8286">
        <ele>369.7</ele>
        <time>2021-08-18T08:11:04Z</time>
      </trkpt>
      <trkpt lat="44.51394" lon="2.82854">
        <ele>370.1</ele>
        <time>2021-08-18T08:11:06Z</time>
      </trkpt>
      <trkpt lat="44.51395" lon="2.82846">
        <ele>370.4</ele>
        <time>2021-08-18T08:11:08Z</time>
      </trkpt>
      <trkpt lat="44.51397" lon="2.8284">
        <ele>370.8</ele>
        <time>2021-08-18T08:11:10Z</time>
      </trkpt>
      <trkpt lat="44.51397" lon="2.82833">
        <ele>371</ele>
        <time>2021-08-18T08:11:12Z</time>
      </trkpt>
      <trkpt lat="44.51399" lon="2.82826">
        <ele>371.2</ele>
        <time>2021-08-18T08:11:14Z</time>
      </trkpt>
      <trkpt lat="44.514" lon="2.82818">
        <ele>371.4</ele>
        <time>2021-08-18T08:11:16Z</time>
      </trkpt>
      <trkpt lat="44.51401" lon="2.82811">
        <ele>371.4</ele>
        <time>2021-08-18T08:11:18Z</time>
      </trkpt>
      <trkpt lat="44.51401" lon="2.82804">
        <ele>371.5</ele>
        <time>2021-08-18T08:11:20Z</time>
      </trkpt>
      <trkpt lat="44.51402" lon="2.82797">
        <ele>371.6</ele>
        <time>2021-08-18T08:11:22Z</time>
      </trkpt>
      <trkpt lat="44.51402" lon="2.8279">
        <ele>371.7</ele>
        <time>2021-08-18T08:11:24Z</time>
      </trkpt>
      <trkpt lat="44.51403" lon="2.82783">
        <ele>371.7</ele>
        <time>2021-08-18T08:11:26Z</time>
      </trkpt>
      <trkpt lat="44.51403" lon="2.82776">
        <ele>371.7</ele>
        <time>2021-08-18T08:11:28Z</time>
      </trkpt>
      <trkpt lat="44.51403" lon="2.82768">
        <ele>371.8</ele>
        <time>2021-08-18T08:11:30Z</time>
      </trkpt>
      <trkpt lat="44.51404" lon="2.82761">
        <ele>371.9</ele>
        <time>2021-08-18T08:11:32Z</time>
      </trkpt>
      <trkpt lat="44.51404" lon="2.82754">
        <ele>371.9</ele>
        <time>2021-08-18T08:11:34Z</time>
      </trkpt>
      <trkpt lat="44.51405" lon="2.82747">
        <ele>372</ele>
        <time>2021-08-18T08:11:36Z</time>
      </trkpt>
      <trkpt lat="44.51405" lon="2.8274">
        <ele>372.1</ele>
        <time>2021-08-18T08:11:38Z</time>
      </trkpt>
      <trkpt lat="44.51405" lon="2.82733">
        <ele>372.3</ele>
        <time>2021-08-18T08:11:40Z</time>
      </trkpt>
      <trkpt lat="44.51406" lon="2.82725">
        <ele>372.4</ele>
        <time>2021-08-18T08:11:42Z</time>
      </trkpt>
      <trkpt lat="44.51405" lon="2.82718">
        <ele>372.4</ele>
        <time>2021-08-18T08:11:44Z</time>
      </trkpt>
      <trkpt lat="44.51405" lon="2.82711">
        <ele>372.5</ele>
        <time>2021-08-18T08:11:46Z</time>
      </trkpt>
      <trkpt lat="44.51405" lon="2.82703">
        <ele>372.6</ele>
        <time>2021-08-18T08:11:48Z</time>
      </trkpt>
      <trkpt lat="44.51405" lon="2.82696">
        <ele>372.5</ele>
        <time>2021-08-18T08:11:50Z</time>
      </trkpt>
      <trkpt lat="44.51404" lon="2.82688">
        <ele>372.4</ele>
        <time>2021-08-18T08:11:52Z</time>
      </trkpt>
      <trkpt lat="44.51402" lon="2.8268">
        <ele>372.3</ele>
        <time>2021-08-18T08:11:54Z</time>
      </trkpt>
      <trkpt lat="44.51401" lon="2.82672">
        <ele>372.1</ele>
        <time>2021-08-18T08:11:56Z</time>
      </trkpt>
      <trkpt lat="44.51401" lon="2.82663">
        <ele>372.2</ele>
        <time>2021-08-18T08:11:58Z</time>
      </trkpt>
      <trkpt lat="44.51401" lon="2.82654">
        <ele>372.4</ele>
        <time>2021-08-18T08:12:00Z</time>
      </trkpt>
      <trkpt lat="44.51402" lon="2.82645">
        <ele>372.6</ele>
        <time>2021-08-18T08:12:02Z</time>
      </trkpt>
      <trkpt lat="44.51404" lon="2.82636">
        <ele>373.1</ele>
        <time>2021-08-18T08:12:04Z</time>
      </trkpt>
      <trkpt lat="44.51405" lon="2.82627">
        <ele>373.4</ele>
        <time>2021-08-18T08:12:06Z</time>
      </trkpt>
      <trkpt lat="44.51406" lon="2.8262">
        <ele>373.7</ele>
        <time>2021-08-18T08:12:08Z</time>
      </trkpt>
      <trkpt lat="44.51409" lon="2.82612">
        <ele>374.3</ele>
        <time>2021-08-18T08:12:10Z</time>
      </trkpt>
      <trkpt lat="44.51412" lon="2.82605">
        <ele>374.8</ele>
        <time>2021-08-18T08:12:12Z</time>
      </trkpt>
      <trkpt lat="44.51414" lon="2.82598">
        <ele>375.3</ele>
        <time>2021-08-18T08:12:14Z</time>
      </trkpt>
      <trkpt lat="44.51416" lon="2.82592">
        <ele>375.8</ele>
        <time>2021-08-18T08:12:16Z</time>
      </trkpt>
      <trkpt lat="44.51418" lon="2.82585">
        <ele>376.1</ele>
        <time>2021-08-18T08:12:18Z</time>
      </trkpt>
      <trkpt lat="44.5142" lon="2.82579">
        <ele>376.3</ele>
        <time>2021-08-18T08:12:20Z</time>
      </trkpt>
      <trkpt lat="44.51422" lon="2.82572">
        <ele>376.4</ele>
        <time>2021-08-18T08:12:22Z</time>
      </trkpt>
      <trkpt lat="44.51424" lon="2.82566">
        <ele>376.6</ele>
        <time>2021-08-18T08:12:24Z</time>
      </trkpt>
      <trkpt lat="44.51425" lon="2.82559">
        <ele>376.8</ele>
        <time>2021-08-18T08:12:26Z</time>
      </trkpt>
      <trkpt lat="44.51428" lon="2.82552">
        <ele>377</ele>
        <time>2021-08-18T08:12:28Z</time>
      </trkpt>
      <trkpt lat="44.51431" lon="2.82545">
        <ele>377.2</ele>
        <time>2021-08-18T08:12:30Z</time>
      </trkpt>
      <trkpt lat="44.51434" lon="2.82538">
        <ele>377.5</ele>
        <time>2021-08-18T08:12:32Z</time>
      </trkpt>
      <trkpt lat="44.51436" lon="2.8253">
        <ele>377.7</ele>
        <time>2021-08-18T08:12:34Z</time>
      </trkpt>
      <trkpt lat="44.51439" lon="2.82522">
        <ele>377.9</ele>
        <time>2021-08-18T08:12:36Z</time>
      </trkpt>
      <trkpt lat="44.51442" lon="2.82513">
        <ele>378.1</ele>
        <time>2021-08-18T08:12:38Z</time>
      </trkpt>
      <trkpt lat="44.51444" lon="2.82505">
        <ele>378.3</ele>
        <time>2021-08-18T08:12:40Z</time>
      </trkpt>
      <trkpt lat="44.51447" lon="2.82496">
        <ele>378.4</ele>
        <time>2021-08-18T08:12:42Z</time>
      </trkpt>
      <trkpt lat="44.5145" lon="2.82487">
        <ele>378.2</ele>
        <time>2021-08-18T08:12:44Z</time>
      </trkpt>
      <trkpt lat="44.51453" lon="2.82478">
        <ele>378.1</ele>
        <time>2021-08-18T08:12:46Z</time>
      </trkpt>
      <trkpt lat="44.51457" lon="2.8247">
        <ele>378</ele>
        <time>2021-08-18T08:12:48Z</time>
      </trkpt>
      <trkpt lat="44.51461" lon="2.82461">
        <ele>378</ele>
        <time>2021-08-18T08:12:50Z</time>
      </trkpt>
      <trkpt lat="44.51466" lon="2.82452">
        <ele>378</ele>
        <time>2021-08-18T08:12:52Z</time>
      </trkpt>
      <trkpt lat="44.51471" lon="2.82444">
        <ele>378</ele>
        <time>2021-08-18T08:12:54Z</time>
      </trkpt>
      <trkpt lat="44.51477" lon="2.82436">
        <ele>378.1</ele>
        <time>2021-08-18T08:12:56Z</time>
      </trkpt>
      <trkpt lat="44.51483" lon="2.82428">
        <ele>378.3</ele>
        <time>2021-08-18T08:12:58Z</time>
      </trkpt>
      <trkpt lat="44.5149" lon="2.8242">
        <ele>378.5</ele>
        <time>2021-08-18T08:13:00Z</time>
      </trkpt>
      <trkpt lat="44.51497" lon="2.82413">
        <ele>378.7</ele>
        <time>2021-08-18T08:13:02Z</time>
      </trkpt>
      <trkpt lat="44.51503" lon="2.82404">
        <ele>378.6</ele>
        <time>2021-08-18T08:13:04Z</time>
      </trkpt>
      <trkpt lat="44.5151" lon="2.82395">
        <ele>378.5</ele>
        <time>2021-08-18T08:13:06Z</time>
      </trkpt>
      <trkpt lat="44.51516" lon="2.82385">
        <ele>378.3</ele>
        <time>2021-08-18T08:13:08Z</time>
      </trkpt>
      <trkpt lat="44.51521" lon="2.82375">
        <ele>378.3</ele>
        <time>2021-08-18T08:13:10Z</time>
      </trkpt>
      <trkpt lat="44.51525" lon="2.82365">
        <ele>378.2</ele>
        <time>2021-08-18T08:13:12Z</time>
      </trkpt>
      <trkpt lat="44.5153" lon="2.82354">
        <ele>378.2</ele>
        <time>2021-08-18T08:13:14Z</time>
      </trkpt>
      <trkpt lat="44.51534" lon="2.82344">
        <ele>378.2</ele>
        <time>2021-08-18T08:13:16Z</time>
      </trkpt>
      <trkpt lat="44.51538" lon="2.82334">
        <ele>378.3</ele>
        <time>2021-08-18T08:13:18Z</time>
      </trkpt>
      <trkpt lat="44.51541" lon="2.82323">
        <ele>378.4</ele>
        <time>2021-08-18T08:13:20Z</time>
      </trkpt>
      <trkpt lat="44.51545" lon="2.82313">
        <ele>378.4</ele>
        <time>2021-08-18T08:13:22Z</time>
      </trkpt>
      <trkpt lat="44.51548" lon="2.82302">
        <ele>378.4</ele>
        <time>2021-08-18T08:13:24Z</time>
      </trkpt>
      <trkpt lat="44.51551" lon="2.82292">
        <ele>378.5</ele>
        <time>2021-08-18T08:13:26Z</time>
      </trkpt>
      <trkpt lat="44.51556" lon="2.82282">
        <ele>378.5</ele>
        <time>2021-08-18T08:13:28Z</time>
      </trkpt>
      <trkpt lat="44.51561" lon="2.82272">
        <ele>378.6</ele>
        <time>2021-08-18T08:13:30Z</time>
      </trkpt>
      <trkpt lat="44.51565" lon="2.82262">
        <ele>378.6</ele>
        <time>2021-08-18T08:13:32Z</time>
      </trkpt>
      <trkpt lat="44.51569" lon="2.82251">
        <ele>378.5</ele>
        <time>2021-08-18T08:13:34Z</time>
      </trkpt>
      <trkpt lat="44.51573" lon="2.8224">
        <ele>378.6</ele>
        <time>2021-08-18T08:13:36Z</time>
      </trkpt>
      <trkpt lat="44.51577" lon="2.82229">
        <ele>378.8</ele>
        <time>2021-08-18T08:13:38Z</time>
      </trkpt>
      <trkpt lat="44.51581" lon="2.82219">
        <ele>378.9</ele>
        <time>2021-08-18T08:13:40Z</time>
      </trkpt>
      <trkpt lat="44.51587" lon="2.82209">
        <ele>379.1</ele>
        <time>2021-08-18T08:13:42Z</time>
      </trkpt>
      <trkpt lat="44.51592" lon="2.82199">
        <ele>379.4</ele>
        <time>2021-08-18T08:13:44Z</time>
      </trkpt>
      <trkpt lat="44.51599" lon="2.8219">
        <ele>379.6</ele>
        <time>2021-08-18T08:13:46Z</time>
      </trkpt>
      <trkpt lat="44.51605" lon="2.82182">
        <ele>379.8</ele>
        <time>2021-08-18T08:13:48Z</time>
      </trkpt>
      <trkpt lat="44.51611" lon="2.82174">
        <ele>380</ele>
        <time>2021-08-18T08:13:50Z</time>
      </trkpt>
      <trkpt lat="44.51616" lon="2.82167">
        <ele>380.2</ele>
        <time>2021-08-18T08:13:52Z</time>
      </trkpt>
      <trkpt lat="44.51621" lon="2.82158">
        <ele>380.2</ele>
        <time>2021-08-18T08:13:54Z</time>
      </trkpt>
      <trkpt lat="44.51625" lon="2.82149">
        <ele>380.1</ele>
        <time>2021-08-18T08:13:56Z</time>
      </trkpt>
      <trkpt lat="44.51628" lon="2.82139">
        <ele>380</ele>
        <time>2021-08-18T08:13:58Z</time>
      </trkpt>
      <trkpt lat="44.51631" lon="2.8213">
        <ele>379.8</ele>
        <time>2021-08-18T08:14:00Z</time>
      </trkpt>
      <trkpt lat="44.51634" lon="2.8212">
        <ele>379.7</ele>
        <time>2021-08-18T08:14:02Z</time>
      </trkpt>
      <trkpt lat="44.51638" lon="2.82109">
        <ele>379.6</ele>
        <time>2021-08-18T08:14:04Z</time>
      </trkpt>
      <trkpt lat="44.5164" lon="2.82099">
        <ele>379.4</ele>
        <time>2021-08-18T08:14:06Z</time>
      </trkpt>
      <trkpt lat="44.51643" lon="2.82089">
        <ele>379.3</ele>
        <time>2021-08-18T08:14:08Z</time>
      </trkpt>
      <trkpt lat="44.51647" lon="2.8208">
        <ele>379.2</ele>
        <time>2021-08-18T08:14:10Z</time>
      </trkpt>
      <trkpt lat="44.51651" lon="2.82071">
        <ele>379.1</ele>
        <time>2021-08-18T08:14:12Z</time>
      </trkpt>
      <trkpt lat="44.51654" lon="2.82061">
        <ele>379</ele>
        <time>2021-08-18T08:14:14Z</time>
      </trkpt>
      <trkpt lat="44.51658" lon="2.82052">
        <ele>378.9</ele>
        <time>2021-08-18T08:14:16Z</time>
      </trkpt>
      <trkpt lat="44.5166" lon="2.82043">
        <ele>378.8</ele>
        <time>2021-08-18T08:14:18Z</time>
      </trkpt>
      <trkpt lat="44.51664" lon="2.82034">
        <ele>378.7</ele>
        <time>2021-08-18T08:14:20Z</time>
      </trkpt>
      <trkpt lat="44.51666" lon="2.82024">
        <ele>378.5</ele>
        <time>2021-08-18T08:14:22Z</time>
      </trkpt>
      <trkpt lat="44.51668" lon="2.82015">
        <ele>378.4</ele>
        <time>2021-08-18T08:14:24Z</time>
      </trkpt>
      <trkpt lat="44.5167" lon="2.82004">
        <ele>378.3</ele>
        <time>2021-08-18T08:14:26Z</time>
      </trkpt>
      <trkpt lat="44.5167" lon="2.81993">
        <ele>378</ele>
        <time>2021-08-18T08:14:28Z</time>
      </trkpt>
      <trkpt lat="44.51669" lon="2.81981">
        <ele>377.7</ele>
        <time>2021-08-18T08:14:30Z</time>
      </trkpt>
      <trkpt lat="44.51668" lon="2.8197">
        <ele>377.3</ele>
        <time>2021-08-18T08:14:32Z</time>
      </trkpt>
      <trkpt lat="44.51667" lon="2.81958">
        <ele>377</ele>
        <time>2021-08-18T08:14:34Z</time>
      </trkpt>
      <trkpt lat="44.51666" lon="2.81946">
        <ele>376.7</ele>
        <time>2021-08-18T08:14:36Z</time>
      </trkpt>
      <trkpt lat="44.51666" lon="2.81935">
        <ele>376.4</ele>
        <time>2021-08-18T08:14:38Z</time>
      </trkpt>
      <trkpt lat="44.51666" lon="2.81925">
        <ele>376.2</ele>
        <time>2021-08-18T08:14:40Z</time>
      </trkpt>
      <trkpt lat="44.51666" lon="2.81916">
        <ele>376</ele>
        <time>2021-08-18T08:14:42Z</time>
      </trkpt>
      <trkpt lat="44.51666" lon="2.81907">
        <ele>375.8</ele>
        <time>2021-08-18T08:14:44Z</time>
      </trkpt>
      <trkpt lat="44.51668" lon="2.81899">
        <ele>375.7</ele>
        <time>2021-08-18T08:14:46Z</time>
      </trkpt>
      <trkpt lat="44.51664" lon="2.81889">
        <ele>375.3</ele>
        <time>2021-08-18T08:14:48Z</time>
      </trkpt>
      <trkpt lat="44.51658" lon="2.81878">
        <ele>374.9</ele>
        <time>2021-08-18T08:14:50Z</time>
      </trkpt>
      <trkpt lat="44.51652" lon="2.81864">
        <ele>374.5</ele>
        <time>2021-08-18T08:14:52Z</time>
      </trkpt>
      <trkpt lat="44.51648" lon="2.81847">
        <ele>374.1</ele>
        <time>2021-08-18T08:14:54Z</time>
      </trkpt>
      <trkpt lat="44.51645" lon="2.81828">
        <ele>373.5</ele>
        <time>2021-08-18T08:14:56Z</time>
      </trkpt>
      <trkpt lat="44.51643" lon="2.81808">
        <ele>372.5</ele>
        <time>2021-08-18T08:14:58Z</time>
      </trkpt>
      <trkpt lat="44.51643" lon="2.81786">
        <ele>371.4</ele>
        <time>2021-08-18T08:15:00Z</time>
      </trkpt>
      <trkpt lat="44.51642" lon="2.81765">
        <ele>370.3</ele>
        <time>2021-08-18T08:15:02Z</time>
      </trkpt>
      <trkpt lat="44.51641" lon="2.81743">
        <ele>369.3</ele>
        <time>2021-08-18T08:15:04Z</time>
      </trkpt>
      <trkpt lat="44.51641" lon="2.81722">
        <ele>368.8</ele>
        <time>2021-08-18T08:15:06Z</time>
      </trkpt>
      <trkpt lat="44.51641" lon="2.81702">
        <ele>368.4</ele>
        <time>2021-08-18T08:15:08Z</time>
      </trkpt>
      <trkpt lat="44.5164" lon="2.81682">
        <ele>368</ele>
        <time>2021-08-18T08:15:10Z</time>
      </trkpt>
      <trkpt lat="44.51639" lon="2.81665">
        <ele>367.8</ele>
        <time>2021-08-18T08:15:12Z</time>
      </trkpt>
      <trkpt lat="44.51636" lon="2.81648">
        <ele>368.9</ele>
        <time>2021-08-18T08:15:14Z</time>
      </trkpt>
      <trkpt lat="44.51633" lon="2.81634">
        <ele>369.9</ele>
        <time>2021-08-18T08:15:16Z</time>
      </trkpt>
      <trkpt lat="44.51628" lon="2.81622">
        <ele>370.8</ele>
        <time>2021-08-18T08:15:18Z</time>
      </trkpt>
      <trkpt lat="44.51625" lon="2.81612">
        <ele>371.6</ele>
        <time>2021-08-18T08:15:20Z</time>
      </trkpt>
      <trkpt lat="44.5162" lon="2.81604">
        <ele>372.3</ele>
        <time>2021-08-18T08:15:22Z</time>
      </trkpt>
      <trkpt lat="44.51616" lon="2.81597">
        <ele>372.9</ele>
        <time>2021-08-18T08:15:24Z</time>
      </trkpt>
      <trkpt lat="44.51611" lon="2.81592">
        <ele>373.4</ele>
        <time>2021-08-18T08:15:26Z</time>
      </trkpt>
      <trkpt lat="44.51606" lon="2.81587">
        <ele>373.9</ele>
        <time>2021-08-18T08:15:28Z</time>
      </trkpt>
      <trkpt lat="44.51602" lon="2.81582">
        <ele>374.4</ele>
        <time>2021-08-18T08:15:30Z</time>
      </trkpt>
      <trkpt lat="44.51598" lon="2.81578">
        <ele>374.6</ele>
        <time>2021-08-18T08:15:32Z</time>
      </trkpt>
      <trkpt lat="44.51594" lon="2.81572">
        <ele>374.8</ele>
        <time>2021-08-18T08:15:34Z</time>
      </trkpt>
      <trkpt lat="44.51591" lon="2.81566">
        <ele>375</ele>
        <time>2021-08-18T08:15:36Z</time>
      </trkpt>
      <trkpt lat="44.51589" lon="2.81559">
        <ele>375.1</ele>
        <time>2021-08-18T08:15:38Z</time>
      </trkpt>
      <trkpt lat="44.51586" lon="2.81554">
        <ele>375.3</ele>
        <time>2021-08-18T08:15:40Z</time>
      </trkpt>
      <trkpt lat="44.51585" lon="2.81549">
        <ele>375.4</ele>
        <time>2021-08-18T08:15:42Z</time>
      </trkpt>
      <trkpt lat="44.51584" lon="2.81544">
        <ele>375.4</ele>
        <time>2021-08-18T08:15:44Z</time>
      </trkpt>
      <trkpt lat="44.51582" lon="2.81543">
        <ele>375.5</ele>
        <time>2021-08-18T08:15:46Z</time>
      </trkpt>
      <trkpt lat="44.51579" lon="2.81545">
        <ele>375.4</ele>
        <time>2021-08-18T08:15:48Z</time>
      </trkpt>
      <trkpt lat="44.51576" lon="2.81547">
        <ele>375.4</ele>
        <time>2021-08-18T08:15:50Z</time>
      </trkpt>
      <trkpt lat="44.51573" lon="2.8155">
        <ele>375.3</ele>
        <time>2021-08-18T08:15:52Z</time>
      </trkpt>
      <trkpt lat="44.51524" lon="2.81567">
        <ele>375.1</ele>
        <time>2021-08-18T08:17:54Z</time>
      </trkpt>
      <trkpt lat="44.5152" lon="2.81569">
        <ele>375</ele>
        <time>2021-08-18T08:17:56Z</time>
      </trkpt>
      <trkpt lat="44.51517" lon="2.81571">
        <ele>375</ele>
        <time>2021-08-18T08:17:58Z</time>
      </trkpt>
      <trkpt lat="44.51514" lon="2.81572">
        <ele>375</ele>
        <time>2021-08-18T08:18:00Z</time>
      </trkpt>
      <trkpt lat="44.51511" lon="2.81575">
        <ele>375</ele>
        <time>2021-08-18T08:18:02Z</time>
      </trkpt>
      <trkpt lat="44.51507" lon="2.81575">
        <ele>375</ele>
        <time>2021-08-18T08:18:04Z</time>
      </trkpt>
      <trkpt lat="44.515" lon="2.81576">
        <ele>375</ele>
        <time>2021-08-18T08:18:06Z</time>
      </trkpt>
      <trkpt lat="44.51495" lon="2.81576">
        <ele>374.4</ele>
        <time>2021-08-18T08:18:08Z</time>
      </trkpt>
      <trkpt lat="44.51491" lon="2.81577">
        <ele>373.9</ele>
        <time>2021-08-18T08:18:10Z</time>
      </trkpt>
      <trkpt lat="44.51486" lon="2.81575">
        <ele>373.3</ele>
        <time>2021-08-18T08:18:12Z</time>
      </trkpt>
      <trkpt lat="44.51482" lon="2.81574">
        <ele>372.8</ele>
        <time>2021-08-18T08:18:14Z</time>
      </trkpt>
      <trkpt lat="44.51481" lon="2.81574">
        <ele>372.6</ele>
        <time>2021-08-18T08:18:16Z</time>
      </trkpt>
      <trkpt lat="44.51479" lon="2.81574">
        <ele>372.4</ele>
        <time>2021-08-18T08:18:18Z</time>
      </trkpt>
      <trkpt lat="44.51479" lon="2.81574">
        <ele>372.4</ele>
        <time>2021-08-18T08:18:20Z</time>
      </trkpt>
      <trkpt lat="44.51478" lon="2.81574">
        <ele>372.3</ele>
        <time>2021-08-18T08:18:22Z</time>
      </trkpt>
      <trkpt lat="44.51476" lon="2.81575">
        <ele>372</ele>
        <time>2021-08-18T08:18:24Z</time>
      </trkpt>
      <trkpt lat="44.51471" lon="2.81573">
        <ele>371.5</ele>
        <time>2021-08-18T08:18:26Z</time>
      </trkpt>
      <trkpt lat="44.51467" lon="2.8157">
        <ele>371</ele>
        <time>2021-08-18T08:18:28Z</time>
      </trkpt>
      <trkpt lat="44.51465" lon="2.81567">
        <ele>370.6</ele>
        <time>2021-08-18T08:18:30Z</time>
      </trkpt>
      <trkpt lat="44.51465" lon="2.81569">
        <ele>370.6</ele>
        <time>2021-08-18T08:18:32Z</time>
      </trkpt>
      <trkpt lat="44.51465" lon="2.81569">
        <ele>370.7</ele>
        <time>2021-08-18T08:18:34Z</time>
      </trkpt>
      <trkpt lat="44.51466" lon="2.81569">
        <ele>370.7</ele>
        <time>2021-08-18T08:18:36Z</time>
      </trkpt>
      <trkpt lat="44.51467" lon="2.81568">
        <ele>370.8</ele>
        <time>2021-08-18T08:18:38Z</time>
      </trkpt>
      <trkpt lat="44.51467" lon="2.81567">
        <ele>370.9</ele>
        <time>2021-08-18T08:18:40Z</time>
      </trkpt>
      <trkpt lat="44.51468" lon="2.81549">
        <ele>370.9</ele>
        <time>2021-08-18T09:07:02Z</time>
      </trkpt>
      <trkpt lat="44.51465" lon="2.81545">
        <ele>370.5</ele>
        <time>2021-08-18T09:07:04Z</time>
      </trkpt>
      <trkpt lat="44.51463" lon="2.81541">
        <ele>370.1</ele>
        <time>2021-08-18T09:07:06Z</time>
      </trkpt>
      <trkpt lat="44.51463" lon="2.81536">
        <ele>370</ele>
        <time>2021-08-18T09:07:08Z</time>
      </trkpt>
      <trkpt lat="44.51461" lon="2.8153">
        <ele>369.8</ele>
        <time>2021-08-18T09:07:10Z</time>
      </trkpt>
      <trkpt lat="44.51458" lon="2.81524">
        <ele>369.3</ele>
        <time>2021-08-18T09:07:12Z</time>
      </trkpt>
      <trkpt lat="44.51456" lon="2.81519">
        <ele>368.9</ele>
        <time>2021-08-18T09:07:14Z</time>
      </trkpt>
      <trkpt lat="44.51456" lon="2.81512">
        <ele>368.8</ele>
        <time>2021-08-18T09:07:16Z</time>
      </trkpt>
      <trkpt lat="44.51456" lon="2.81503">
        <ele>368.7</ele>
        <time>2021-08-18T09:07:18Z</time>
      </trkpt>
      <trkpt lat="44.51456" lon="2.81493">
        <ele>368.5</ele>
        <time>2021-08-18T09:07:20Z</time>
      </trkpt>
      <trkpt lat="44.51458" lon="2.81484">
        <ele>368.6</ele>
        <time>2021-08-18T09:07:22Z</time>
      </trkpt>
      <trkpt lat="44.51461" lon="2.81475">
        <ele>368.7</ele>
        <time>2021-08-18T09:07:24Z</time>
      </trkpt>
      <trkpt lat="44.51463" lon="2.81466">
        <ele>368.8</ele>
        <time>2021-08-18T09:07:26Z</time>
      </trkpt>
      <trkpt lat="44.51465" lon="2.81457">
        <ele>369</ele>
        <time>2021-08-18T09:07:28Z</time>
      </trkpt>
      <trkpt lat="44.51467" lon="2.8145">
        <ele>369.1</ele>
        <time>2021-08-18T09:07:30Z</time>
      </trkpt>
      <trkpt lat="44.51468" lon="2.81449">
        <ele>369.2</ele>
        <time>2021-08-18T09:07:32Z</time>
      </trkpt>
      <trkpt lat="44.51468" lon="2.81447">
        <ele>369.1</ele>
        <time>2021-08-18T09:07:34Z</time>
      </trkpt>
      <trkpt lat="44.51468" lon="2.81441">
        <ele>369.1</ele>
        <time>2021-08-18T09:07:36Z</time>
      </trkpt>
      <trkpt lat="44.5147" lon="2.81435">
        <ele>369.1</ele>
        <time>2021-08-18T09:07:38Z</time>
      </trkpt>
      <trkpt lat="44.51471" lon="2.81431">
        <ele>369.2</ele>
        <time>2021-08-18T09:07:40Z</time>
      </trkpt>
      <trkpt lat="44.51474" lon="2.81429">
        <ele>369.6</ele>
        <time>2021-08-18T09:07:42Z</time>
      </trkpt>
      <trkpt lat="44.51477" lon="2.81426">
        <ele>369.9</ele>
        <time>2021-08-18T09:07:44Z</time>
      </trkpt>
      <trkpt lat="44.51479" lon="2.81424">
        <ele>370.1</ele>
        <time>2021-08-18T09:07:46Z</time>
      </trkpt>
      <trkpt lat="44.51481" lon="2.81421">
        <ele>370.4</ele>
        <time>2021-08-18T09:07:48Z</time>
      </trkpt>
      <trkpt lat="44.51484" lon="2.81419">
        <ele>370.8</ele>
        <time>2021-08-18T09:07:50Z</time>
      </trkpt>
      <trkpt lat="44.51487" lon="2.81418">
        <ele>371.2</ele>
        <time>2021-08-18T09:07:52Z</time>
      </trkpt>
      <trkpt lat="44.5149" lon="2.81416">
        <ele>371.6</ele>
        <time>2021-08-18T09:07:54Z</time>
      </trkpt>
      <trkpt lat="44.51494" lon="2.81414">
        <ele>372</ele>
        <time>2021-08-18T09:07:56Z</time>
      </trkpt>
      <trkpt lat="44.51498" lon="2.81413">
        <ele>372.5</ele>
        <time>2021-08-18T09:07:58Z</time>
      </trkpt>
      <trkpt lat="44.51501" lon="2.81412">
        <ele>372.8</ele>
        <time>2021-08-18T09:08:00Z</time>
      </trkpt>
      <trkpt lat="44.51504" lon="2.8141">
        <ele>372.7</ele>
        <time>2021-08-18T09:08:02Z</time>
      </trkpt>
      <trkpt lat="44.51507" lon="2.8141">
        <ele>372.7</ele>
        <time>2021-08-18T09:08:04Z</time>
      </trkpt>
      <trkpt lat="44.5151" lon="2.81408">
        <ele>372.6</ele>
        <time>2021-08-18T09:08:06Z</time>
      </trkpt>
      <trkpt lat="44.51514" lon="2.81407">
        <ele>372.6</ele>
        <time>2021-08-18T09:08:08Z</time>
      </trkpt>
      <trkpt lat="44.51518" lon="2.81406">
        <ele>372.6</ele>
        <time>2021-08-18T09:08:10Z</time>
      </trkpt>
      <trkpt lat="44.51521" lon="2.81406">
        <ele>372.6</ele>
        <time>2021-08-18T09:08:12Z</time>
      </trkpt>
      <trkpt lat="44.51523" lon="2.81409">
        <ele>372.7</ele>
        <time>2021-08-18T09:08:14Z</time>
      </trkpt>
      <trkpt lat="44.51526" lon="2.8141">
        <ele>372.8</ele>
        <time>2021-08-18T09:08:16Z</time>
      </trkpt>
      <trkpt lat="44.51529" lon="2.81412">
        <ele>372.8</ele>
        <time>2021-08-18T09:08:18Z</time>
      </trkpt>
      <trkpt lat="44.51532" lon="2.81413">
        <ele>372.9</ele>
        <time>2021-08-18T09:08:20Z</time>
      </trkpt>
      <trkpt lat="44.51534" lon="2.81414">
        <ele>372.9</ele>
        <time>2021-08-18T09:08:22Z</time>
      </trkpt>
      <trkpt lat="44.51537" lon="2.81415">
        <ele>373</ele>
        <time>2021-08-18T09:08:24Z</time>
      </trkpt>
      <trkpt lat="44.51539" lon="2.81415">
        <ele>372.9</ele>
        <time>2021-08-18T09:08:26Z</time>
      </trkpt>
      <trkpt lat="44.51542" lon="2.81414">
        <ele>372.9</ele>
        <time>2021-08-18T09:08:28Z</time>
      </trkpt>
      <trkpt lat="44.51546" lon="2.81414">
        <ele>372.9</ele>
        <time>2021-08-18T09:08:30Z</time>
      </trkpt>
      <trkpt lat="44.5155" lon="2.81413">
        <ele>372.9</ele>
        <time>2021-08-18T09:08:32Z</time>
      </trkpt>
      <trkpt lat="44.51554" lon="2.81411">
        <ele>372.8</ele>
        <time>2021-08-18T09:08:34Z</time>
      </trkpt>
      <trkpt lat="44.51559" lon="2.81411">
        <ele>372.9</ele>
        <time>2021-08-18T09:08:36Z</time>
      </trkpt>
      <trkpt lat="44.51563" lon="2.81413">
        <ele>372.9</ele>
        <time>2021-08-18T09:08:38Z</time>
      </trkpt>
      <trkpt lat="44.51567" lon="2.81413">
        <ele>372.9</ele>
        <time>2021-08-18T09:08:40Z</time>
      </trkpt>
      <trkpt lat="44.51571" lon="2.8141">
        <ele>372.9</ele>
        <time>2021-08-18T09:08:42Z</time>
      </trkpt>
      <trkpt lat="44.51575" lon="2.81406">
        <ele>372.8</ele>
        <time>2021-08-18T09:08:44Z</time>
      </trkpt>
      <trkpt lat="44.51578" lon="2.814">
        <ele>372.8</ele>
        <time>2021-08-18T09:08:46Z</time>
      </trkpt>
      <trkpt lat="44.51579" lon="2.81394">
        <ele>372.7</ele>
        <time>2021-08-18T09:08:48Z</time>
      </trkpt>
      <trkpt lat="44.51581" lon="2.81387">
        <ele>372.6</ele>
        <time>2021-08-18T09:08:50Z</time>
      </trkpt>
      <trkpt lat="44.51582" lon="2.81382">
        <ele>372.6</ele>
        <time>2021-08-18T09:08:52Z</time>
      </trkpt>
      <trkpt lat="44.51583" lon="2.81381">
        <ele>372.6</ele>
        <time>2021-08-18T09:08:54Z</time>
      </trkpt>
      <trkpt lat="44.51583" lon="2.81381">
        <ele>372.6</ele>
        <time>2021-08-18T09:08:56Z</time>
      </trkpt>
      <trkpt lat="44.51583" lon="2.81381">
        <ele>372.6</ele>
        <time>2021-08-18T09:08:58Z</time>
      </trkpt>
      <trkpt lat="44.51583" lon="2.8138">
        <ele>372.6</ele>
        <time>2021-08-18T09:09:00Z</time>
      </trkpt>
      <trkpt lat="44.51584" lon="2.8138">
        <ele>372.6</ele>
        <time>2021-08-18T09:09:02Z</time>
      </trkpt>
      <trkpt lat="44.51577" lon="2.81393">
        <ele>372.6</ele>
        <time>2021-08-18T09:10:52Z</time>
      </trkpt>
      <trkpt lat="44.51576" lon="2.81396">
        <ele>372.7</ele>
        <time>2021-08-18T09:10:54Z</time>
      </trkpt>
      <trkpt lat="44.51574" lon="2.81405">
        <ele>372.8</ele>
        <time>2021-08-18T09:10:56Z</time>
      </trkpt>
      <trkpt lat="44.51571" lon="2.8141">
        <ele>372.9</ele>
        <time>2021-08-18T09:10:58Z</time>
      </trkpt>
      <trkpt lat="44.51566" lon="2.81413">
        <ele>372.9</ele>
        <time>2021-08-18T09:11:00Z</time>
      </trkpt>
      <trkpt lat="44.51559" lon="2.81414">
        <ele>372.9</ele>
        <time>2021-08-18T09:11:02Z</time>
      </trkpt>
      <trkpt lat="44.51552" lon="2.81415">
        <ele>373</ele>
        <time>2021-08-18T09:11:04Z</time>
      </trkpt>
      <trkpt lat="44.51546" lon="2.81415">
        <ele>373</ele>
        <time>2021-08-18T09:11:06Z</time>
      </trkpt>
      <trkpt lat="44.51537" lon="2.81413">
        <ele>372.9</ele>
        <time>2021-08-18T09:11:08Z</time>
      </trkpt>
      <trkpt lat="44.51529" lon="2.81411">
        <ele>372.8</ele>
        <time>2021-08-18T09:11:10Z</time>
      </trkpt>
      <trkpt lat="44.5152" lon="2.8141">
        <ele>372.7</ele>
        <time>2021-08-18T09:11:12Z</time>
      </trkpt>
      <trkpt lat="44.51512" lon="2.8141">
        <ele>372.7</ele>
        <time>2021-08-18T09:11:14Z</time>
      </trkpt>
      <trkpt lat="44.51503" lon="2.81414">
        <ele>372.9</ele>
        <time>2021-08-18T09:11:16Z</time>
      </trkpt>
      <trkpt lat="44.51495" lon="2.81418">
        <ele>372.4</ele>
        <time>2021-08-18T09:11:18Z</time>
      </trkpt>
      <trkpt lat="44.51488" lon="2.81422">
        <ele>371.4</ele>
        <time>2021-08-18T09:11:20Z</time>
      </trkpt>
      <trkpt lat="44.5148" lon="2.81425">
        <ele>370.3</ele>
        <time>2021-08-18T09:11:22Z</time>
      </trkpt>
      <trkpt lat="44.51472" lon="2.81431">
        <ele>369.3</ele>
        <time>2021-08-18T09:11:24Z</time>
      </trkpt>
      <trkpt lat="44.51467" lon="2.81441">
        <ele>368.9</ele>
        <time>2021-08-18T09:11:26Z</time>
      </trkpt>
      <trkpt lat="44.51467" lon="2.8145">
        <ele>369</ele>
        <time>2021-08-18T09:11:28Z</time>
      </trkpt>
      <trkpt lat="44.51466" lon="2.81452">
        <ele>369</ele>
        <time>2021-08-18T09:11:30Z</time>
      </trkpt>
      <trkpt lat="44.51465" lon="2.81455">
        <ele>368.9</ele>
        <time>2021-08-18T09:11:32Z</time>
      </trkpt>
      <trkpt lat="44.51464" lon="2.81457">
        <ele>368.7</ele>
        <time>2021-08-18T09:11:34Z</time>
      </trkpt>
      <trkpt lat="44.51464" lon="2.8146">
        <ele>368.9</ele>
        <time>2021-08-18T09:11:36Z</time>
      </trkpt>
      <trkpt lat="44.51466" lon="2.81461">
        <ele>369.2</ele>
        <time>2021-08-18T09:11:38Z</time>
      </trkpt>
      <trkpt lat="44.51467" lon="2.81459">
        <ele>369.3</ele>
        <time>2021-08-18T09:11:40Z</time>
      </trkpt>
      <trkpt lat="44.51466" lon="2.81459">
        <ele>369.2</ele>
        <time>2021-08-18T09:11:42Z</time>
      </trkpt>
      <trkpt lat="44.51466" lon="2.81459">
        <ele>369.1</ele>
        <time>2021-08-18T09:11:44Z</time>
      </trkpt>
      <trkpt lat="44.51466" lon="2.81459">
        <ele>369.1</ele>
        <time>2021-08-18T09:11:46Z</time>
      </trkpt>
      <trkpt lat="44.51459" lon="2.81469">
        <ele>368.4</ele>
        <time>2021-08-18T09:11:54Z</time>
      </trkpt>
      <trkpt lat="44.51457" lon="2.81475">
        <ele>368.2</ele>
        <time>2021-08-18T09:11:56Z</time>
      </trkpt>
      <trkpt lat="44.51455" lon="2.81483">
        <ele>368.1</ele>
        <time>2021-08-18T09:11:58Z</time>
      </trkpt>
      <trkpt lat="44.51453" lon="2.81492">
        <ele>368</ele>
        <time>2021-08-18T09:12:00Z</time>
      </trkpt>
      <trkpt lat="44.51451" lon="2.81501">
        <ele>368</ele>
        <time>2021-08-18T09:12:02Z</time>
      </trkpt>
      <trkpt lat="44.51451" lon="2.81509">
        <ele>368</ele>
        <time>2021-08-18T09:12:04Z</time>
      </trkpt>
      <trkpt lat="44.51451" lon="2.81516">
        <ele>368.1</ele>
        <time>2021-08-18T09:12:06Z</time>
      </trkpt>
      <trkpt lat="44.5145" lon="2.81522">
        <ele>368.1</ele>
        <time>2021-08-18T09:12:08Z</time>
      </trkpt>
      <trkpt lat="44.51447" lon="2.81527">
        <ele>367.8</ele>
        <time>2021-08-18T09:12:10Z</time>
      </trkpt>
      <trkpt lat="44.51447" lon="2.81535">
        <ele>367.9</ele>
        <time>2021-08-18T09:12:12Z</time>
      </trkpt>
      <trkpt lat="44.51445" lon="2.81541">
        <ele>367.7</ele>
        <time>2021-08-18T09:12:14Z</time>
      </trkpt>
      <trkpt lat="44.51441" lon="2.81547">
        <ele>367.3</ele>
        <time>2021-08-18T09:12:16Z</time>
      </trkpt>
      <trkpt lat="44.51436" lon="2.81552">
        <ele>366.7</ele>
        <time>2021-08-18T09:12:18Z</time>
      </trkpt>
      <trkpt lat="44.51433" lon="2.81559">
        <ele>366.4</ele>
        <time>2021-08-18T09:12:20Z</time>
      </trkpt>
      <trkpt lat="44.51432" lon="2.81567">
        <ele>366.5</ele>
        <time>2021-08-18T09:12:22Z</time>
      </trkpt>
      <trkpt lat="44.51429" lon="2.81575">
        <ele>366.3</ele>
        <time>2021-08-18T09:12:24Z</time>
      </trkpt>
      <trkpt lat="44.51427" lon="2.81583">
        <ele>366.2</ele>
        <time>2021-08-18T09:12:26Z</time>
      </trkpt>
      <trkpt lat="44.51424" lon="2.81591">
        <ele>365.8</ele>
        <time>2021-08-18T09:12:28Z</time>
      </trkpt>
      <trkpt lat="44.51423" lon="2.81598">
        <ele>365.5</ele>
        <time>2021-08-18T09:12:30Z</time>
      </trkpt>
      <trkpt lat="44.51421" lon="2.81604">
        <ele>365.2</ele>
        <time>2021-08-18T09:12:32Z</time>
      </trkpt>
      <trkpt lat="44.51419" lon="2.81611">
        <ele>364.9</ele>
        <time>2021-08-18T09:12:34Z</time>
      </trkpt>
      <trkpt lat="44.51419" lon="2.81619">
        <ele>364.8</ele>
        <time>2021-08-18T09:12:36Z</time>
      </trkpt>
      <trkpt lat="44.51418" lon="2.81627">
        <ele>364.6</ele>
        <time>2021-08-18T09:12:38Z</time>
      </trkpt>
      <trkpt lat="44.51414" lon="2.81632">
        <ele>364</ele>
        <time>2021-08-18T09:12:40Z</time>
      </trkpt>
      <trkpt lat="44.51413" lon="2.81639">
        <ele>363.7</ele>
        <time>2021-08-18T09:12:42Z</time>
      </trkpt>
      <trkpt lat="44.51412" lon="2.81643">
        <ele>363.5</ele>
        <time>2021-08-18T09:12:44Z</time>
      </trkpt>
      <trkpt lat="44.51408" lon="2.81646">
        <ele>362.8</ele>
        <time>2021-08-18T09:12:46Z</time>
      </trkpt>
      <trkpt lat="44.51405" lon="2.81646">
        <ele>362.4</ele>
        <time>2021-08-18T09:12:48Z</time>
      </trkpt>
      <trkpt lat="44.51402" lon="2.81647">
        <ele>361.8</ele>
        <time>2021-08-18T09:12:50Z</time>
      </trkpt>
      <trkpt lat="44.51399" lon="2.81649">
        <ele>361.3</ele>
        <time>2021-08-18T09:12:52Z</time>
      </trkpt>
      <trkpt lat="44.51396" lon="2.8165">
        <ele>360.8</ele>
        <time>2021-08-18T09:12:54Z</time>
      </trkpt>
      <trkpt lat="44.51393" lon="2.81651">
        <ele>360.3</ele>
        <time>2021-08-18T09:12:56Z</time>
      </trkpt>
      <trkpt lat="44.5139" lon="2.81652">
        <ele>359.7</ele>
        <time>2021-08-18T09:12:58Z</time>
      </trkpt>
      <trkpt lat="44.51383" lon="2.81653">
        <ele>358.6</ele>
        <time>2021-08-18T09:13:00Z</time>
      </trkpt>
      <trkpt lat="44.51378" lon="2.81657">
        <ele>357.6</ele>
        <time>2021-08-18T09:13:02Z</time>
      </trkpt>
      <trkpt lat="44.51371" lon="2.81661">
        <ele>356.4</ele>
        <time>2021-08-18T09:13:04Z</time>
      </trkpt>
      <trkpt lat="44.51362" lon="2.81662">
        <ele>354.9</ele>
        <time>2021-08-18T09:13:06Z</time>
      </trkpt>
      <trkpt lat="44.51353" lon="2.81662">
        <ele>353.3</ele>
        <time>2021-08-18T09:13:08Z</time>
      </trkpt>
      <trkpt lat="44.51344" lon="2.81658">
        <ele>352</ele>
        <time>2021-08-18T09:13:10Z</time>
      </trkpt>
      <trkpt lat="44.51336" lon="2.81655">
        <ele>350.7</ele>
        <time>2021-08-18T09:13:12Z</time>
      </trkpt>
      <trkpt lat="44.51328" lon="2.81652">
        <ele>350.3</ele>
        <time>2021-08-18T09:13:14Z</time>
      </trkpt>
      <trkpt lat="44.5132" lon="2.8165">
        <ele>350.3</ele>
        <time>2021-08-18T09:13:16Z</time>
      </trkpt>
      <trkpt lat="44.51313" lon="2.81648">
        <ele>350.3</ele>
        <time>2021-08-18T09:13:18Z</time>
      </trkpt>
      <trkpt lat="44.51306" lon="2.81647">
        <ele>350.3</ele>
        <time>2021-08-18T09:13:20Z</time>
      </trkpt>
      <trkpt lat="44.513" lon="2.81644">
        <ele>350.3</ele>
        <time>2021-08-18T09:13:22Z</time>
      </trkpt>
      <trkpt lat="44.513" lon="2.8164">
        <ele>350.4</ele>
        <time>2021-08-18T09:13:24Z</time>
      </trkpt>
      <trkpt lat="44.51299" lon="2.81638">
        <ele>350.4</ele>
        <time>2021-08-18T09:13:26Z</time>
      </trkpt>
      <trkpt lat="44.51299" lon="2.81638">
        <ele>350.4</ele>
        <time>2021-08-18T09:13:28Z</time>
      </trkpt>
      <trkpt lat="44.51299" lon="2.81638">
        <ele>350.4</ele>
        <time>2021-08-18T09:13:30Z</time>
      </trkpt>
      <trkpt lat="44.51299" lon="2.81637">
        <ele>350.4</ele>
        <time>2021-08-18T09:13:32Z</time>
      </trkpt>
      <trkpt lat="44.51299" lon="2.81637">
        <ele>350.4</ele>
        <time>2021-08-18T09:13:34Z</time>
      </trkpt>
      <trkpt lat="44.51285" lon="2.81636">
        <ele>350.3</ele>
        <time>2021-08-18T09:14:50Z</time>
      </trkpt>
      <trkpt lat="44.51278" lon="2.81634">
        <ele>350.3</ele>
        <time>2021-08-18T09:14:52Z</time>
      </trkpt>
      <trkpt lat="44.5127" lon="2.8163">
        <ele>350.2</ele>
        <time>2021-08-18T09:14:54Z</time>
      </trkpt>
      <trkpt lat="44.5126" lon="2.81626">
        <ele>350.1</ele>
        <time>2021-08-18T09:14:56Z</time>
      </trkpt>
      <trkpt lat="44.5125" lon="2.81622">
        <ele>350</ele>
        <time>2021-08-18T09:14:58Z</time>
      </trkpt>
      <trkpt lat="44.51238" lon="2.81618">
        <ele>350</ele>
        <time>2021-08-18T09:15:00Z</time>
      </trkpt>
      <trkpt lat="44.51225" lon="2.81613">
        <ele>350</ele>
        <time>2021-08-18T09:15:02Z</time>
      </trkpt>
      <trkpt lat="44.51213" lon="2.81611">
        <ele>350</ele>
        <time>2021-08-18T09:15:04Z</time>
      </trkpt>
      <trkpt lat="44.51204" lon="2.81607">
        <ele>350</ele>
        <time>2021-08-18T09:15:06Z</time>
      </trkpt>
      <trkpt lat="44.512" lon="2.81605">
        <ele>350</ele>
        <time>2021-08-18T09:15:08Z</time>
      </trkpt>
      <trkpt lat="44.512" lon="2.81605">
        <ele>350</ele>
        <time>2021-08-18T09:15:10Z</time>
      </trkpt>
      <trkpt lat="44.512" lon="2.81605">
        <ele>350</ele>
        <time>2021-08-18T09:15:12Z</time>
      </trkpt>
      <trkpt lat="44.512" lon="2.81605">
        <ele>350</ele>
        <time>2021-08-18T09:15:14Z</time>
      </trkpt>
      <trkpt lat="44.512" lon="2.81605">
        <ele>350</ele>
        <time>2021-08-18T09:15:16Z</time>
      </trkpt>
      <trkpt lat="44.512" lon="2.81604">
        <ele>350</ele>
        <time>2021-08-18T09:15:18Z</time>
      </trkpt>
      <trkpt lat="44.5121" lon="2.81614">
        <ele>350</ele>
        <time>2021-08-18T09:15:26Z</time>
      </trkpt>
      <trkpt lat="44.51216" lon="2.81615">
        <ele>350</ele>
        <time>2021-08-18T09:15:28Z</time>
      </trkpt>
      <trkpt lat="44.5122" lon="2.81616">
        <ele>350</ele>
        <time>2021-08-18T09:15:30Z</time>
      </trkpt>
      <trkpt lat="44.51224" lon="2.81613">
        <ele>350</ele>
        <time>2021-08-18T09:15:32Z</time>
      </trkpt>
      <trkpt lat="44.51225" lon="2.81605">
        <ele>350</ele>
        <time>2021-08-18T09:15:34Z</time>
      </trkpt>
      <trkpt lat="44.51223" lon="2.81598">
        <ele>350</ele>
        <time>2021-08-18T09:15:36Z</time>
      </trkpt>
      <trkpt lat="44.5122" lon="2.8159">
        <ele>350</ele>
        <time>2021-08-18T09:15:38Z</time>
      </trkpt>
      <trkpt lat="44.51216" lon="2.81581">
        <ele>350</ele>
        <time>2021-08-18T09:15:40Z</time>
      </trkpt>
      <trkpt lat="44.51213" lon="2.81571">
        <ele>349.9</ele>
        <time>2021-08-18T09:15:42Z</time>
      </trkpt>
      <trkpt lat="44.51211" lon="2.81561">
        <ele>349.9</ele>
        <time>2021-08-18T09:15:44Z</time>
      </trkpt>
      <trkpt lat="44.51208" lon="2.81551">
        <ele>349.8</ele>
        <time>2021-08-18T09:15:46Z</time>
      </trkpt>
      <trkpt lat="44.51206" lon="2.81541">
        <ele>349.7</ele>
        <time>2021-08-18T09:15:48Z</time>
      </trkpt>
      <trkpt lat="44.51204" lon="2.81531">
        <ele>349.7</ele>
        <time>2021-08-18T09:15:50Z</time>
      </trkpt>
      <trkpt lat="44.51202" lon="2.8152">
        <ele>349.6</ele>
        <time>2021-08-18T09:15:52Z</time>
      </trkpt>
      <trkpt lat="44.51199" lon="2.8151">
        <ele>349.5</ele>
        <time>2021-08-18T09:15:54Z</time>
      </trkpt>
      <trkpt lat="44.51196" lon="2.81501">
        <ele>349.4</ele>
        <time>2021-08-18T09:15:56Z</time>
      </trkpt>
      <trkpt lat="44.51193" lon="2.81491">
        <ele>349.2</ele>
        <time>2021-08-18T09:15:58Z</time>
      </trkpt>
      <trkpt lat="44.5119" lon="2.81481">
        <ele>349.1</ele>
        <time>2021-08-18T09:16:00Z</time>
      </trkpt>
      <trkpt lat="44.51187" lon="2.81471">
        <ele>348.9</ele>
        <time>2021-08-18T09:16:02Z</time>
      </trkpt>
      <trkpt lat="44.51184" lon="2.81461">
        <ele>348.7</ele>
        <time>2021-08-18T09:16:04Z</time>
      </trkpt>
      <trkpt lat="44.5118" lon="2.81451">
        <ele>348.6</ele>
        <time>2021-08-18T09:16:06Z</time>
      </trkpt>
      <trkpt lat="44.51177" lon="2.81441">
        <ele>348.4</ele>
        <time>2021-08-18T09:16:08Z</time>
      </trkpt>
      <trkpt lat="44.51175" lon="2.8143">
        <ele>348.3</ele>
        <time>2021-08-18T09:16:10Z</time>
      </trkpt>
      <trkpt lat="44.51172" lon="2.8142">
        <ele>348.1</ele>
        <time>2021-08-18T09:16:12Z</time>
      </trkpt>
      <trkpt lat="44.51168" lon="2.8141">
        <ele>348</ele>
        <time>2021-08-18T09:16:14Z</time>
      </trkpt>
      <trkpt lat="44.51165" lon="2.814">
        <ele>348</ele>
        <time>2021-08-18T09:16:16Z</time>
      </trkpt>
      <trkpt lat="44.51162" lon="2.81389">
        <ele>348</ele>
        <time>2021-08-18T09:16:18Z</time>
      </trkpt>
      <trkpt lat="44.51158" lon="2.8138">
        <ele>348</ele>
        <time>2021-08-18T09:16:20Z</time>
      </trkpt>
      <trkpt lat="44.51155" lon="2.8137">
        <ele>347.9</ele>
        <time>2021-08-18T09:16:22Z</time>
      </trkpt>
      <trkpt lat="44.51152" lon="2.8136">
        <ele>347.9</ele>
        <time>2021-08-18T09:16:24Z</time>
      </trkpt>
      <trkpt lat="44.5115" lon="2.81351">
        <ele>347.8</ele>
        <time>2021-08-18T09:16:26Z</time>
      </trkpt>
      <trkpt lat="44.51147" lon="2.81342">
        <ele>347.8</ele>
        <time>2021-08-18T09:16:28Z</time>
      </trkpt>
      <trkpt lat="44.51143" lon="2.81333">
        <ele>347.7</ele>
        <time>2021-08-18T09:16:30Z</time>
      </trkpt>
      <trkpt lat="44.51141" lon="2.81325">
        <ele>347.6</ele>
        <time>2021-08-18T09:16:32Z</time>
      </trkpt>
      <trkpt lat="44.51138" lon="2.81316">
        <ele>347.4</ele>
        <time>2021-08-18T09:16:34Z</time>
      </trkpt>
      <trkpt lat="44.51135" lon="2.81307">
        <ele>347.2</ele>
        <time>2021-08-18T09:16:36Z</time>
      </trkpt>
      <trkpt lat="44.51132" lon="2.81298">
        <ele>347</ele>
        <time>2021-08-18T09:16:38Z</time>
      </trkpt>
      <trkpt lat="44.51129" lon="2.81289">
        <ele>346.8</ele>
        <time>2021-08-18T09:16:40Z</time>
      </trkpt>
      <trkpt lat="44.51126" lon="2.81279">
        <ele>346.5</ele>
        <time>2021-08-18T09:16:42Z</time>
      </trkpt>
      <trkpt lat="44.51123" lon="2.81269">
        <ele>346.3</ele>
        <time>2021-08-18T09:16:44Z</time>
      </trkpt>
      <trkpt lat="44.5112" lon="2.8126">
        <ele>346.1</ele>
        <time>2021-08-18T09:16:46Z</time>
      </trkpt>
      <trkpt lat="44.51116" lon="2.8125">
        <ele>345.8</ele>
        <time>2021-08-18T09:16:48Z</time>
      </trkpt>
      <trkpt lat="44.51113" lon="2.81241">
        <ele>345.8</ele>
        <time>2021-08-18T09:16:50Z</time>
      </trkpt>
      <trkpt lat="44.5111" lon="2.81231">
        <ele>345.8</ele>
        <time>2021-08-18T09:16:52Z</time>
      </trkpt>
      <trkpt lat="44.51107" lon="2.81221">
        <ele>345.8</ele>
        <time>2021-08-18T09:16:54Z</time>
      </trkpt>
      <trkpt lat="44.51103" lon="2.81211">
        <ele>345.8</ele>
        <time>2021-08-18T09:16:56Z</time>
      </trkpt>
      <trkpt lat="44.51099" lon="2.81201">
        <ele>345.9</ele>
        <time>2021-08-18T09:16:58Z</time>
      </trkpt>
      <trkpt lat="44.51096" lon="2.81191">
        <ele>345.9</ele>
        <time>2021-08-18T09:17:00Z</time>
      </trkpt>
      <trkpt lat="44.51092" lon="2.81181">
        <ele>346</ele>
        <time>2021-08-18T09:17:02Z</time>
      </trkpt>
      <trkpt lat="44.51089" lon="2.81171">
        <ele>346</ele>
        <time>2021-08-18T09:17:04Z</time>
      </trkpt>
      <trkpt lat="44.51085" lon="2.81161">
        <ele>346.2</ele>
        <time>2021-08-18T09:17:06Z</time>
      </trkpt>
      <trkpt lat="44.51081" lon="2.8115">
        <ele>346.6</ele>
        <time>2021-08-18T09:17:08Z</time>
      </trkpt>
      <trkpt lat="44.51078" lon="2.8114">
        <ele>346.9</ele>
        <time>2021-08-18T09:17:10Z</time>
      </trkpt>
      <trkpt lat="44.51074" lon="2.8113">
        <ele>347.3</ele>
        <time>2021-08-18T09:17:12Z</time>
      </trkpt>
      <trkpt lat="44.51071" lon="2.81119">
        <ele>347.6</ele>
        <time>2021-08-18T09:17:14Z</time>
      </trkpt>
      <trkpt lat="44.51068" lon="2.81109">
        <ele>347.9</ele>
        <time>2021-08-18T09:17:16Z</time>
      </trkpt>
      <trkpt lat="44.51065" lon="2.811">
        <ele>348.1</ele>
        <time>2021-08-18T09:17:18Z</time>
      </trkpt>
      <trkpt lat="44.51062" lon="2.8109">
        <ele>348.3</ele>
        <time>2021-08-18T09:17:20Z</time>
      </trkpt>
      <trkpt lat="44.51059" lon="2.8108">
        <ele>348.4</ele>
        <time>2021-08-18T09:17:22Z</time>
      </trkpt>
      <trkpt lat="44.51055" lon="2.81071">
        <ele>348.4</ele>
        <time>2021-08-18T09:17:24Z</time>
      </trkpt>
      <trkpt lat="44.51053" lon="2.8106">
        <ele>348.4</ele>
        <time>2021-08-18T09:17:26Z</time>
      </trkpt>
      <trkpt lat="44.51049" lon="2.81049">
        <ele>348.3</ele>
        <time>2021-08-18T09:17:28Z</time>
      </trkpt>
      <trkpt lat="44.51046" lon="2.81038">
        <ele>348.3</ele>
        <time>2021-08-18T09:17:30Z</time>
      </trkpt>
      <trkpt lat="44.51043" lon="2.81027">
        <ele>348.4</ele>
        <time>2021-08-18T09:17:32Z</time>
      </trkpt>
      <trkpt lat="44.5104" lon="2.81017">
        <ele>348.4</ele>
        <time>2021-08-18T09:17:34Z</time>
      </trkpt>
      <trkpt lat="44.51037" lon="2.81006">
        <ele>348.4</ele>
        <time>2021-08-18T09:17:36Z</time>
      </trkpt>
      <trkpt lat="44.51033" lon="2.80994">
        <ele>348.6</ele>
        <time>2021-08-18T09:17:38Z</time>
      </trkpt>
      <trkpt lat="44.51028" lon="2.80984">
        <ele>348.8</ele>
        <time>2021-08-18T09:17:40Z</time>
      </trkpt>
      <trkpt lat="44.5102" lon="2.80973">
        <ele>349</ele>
        <time>2021-08-18T09:17:42Z</time>
      </trkpt>
      <trkpt lat="44.51013" lon="2.80964">
        <ele>349.1</ele>
        <time>2021-08-18T09:17:44Z</time>
      </trkpt>
      <trkpt lat="44.51005" lon="2.80956">
        <ele>349.2</ele>
        <time>2021-08-18T09:17:46Z</time>
      </trkpt>
      <trkpt lat="44.50998" lon="2.80949">
        <ele>349.2</ele>
        <time>2021-08-18T09:17:48Z</time>
      </trkpt>
      <trkpt lat="44.5099" lon="2.80942">
        <ele>349.2</ele>
        <time>2021-08-18T09:17:50Z</time>
      </trkpt>
      <trkpt lat="44.50983" lon="2.80935">
        <ele>349.2</ele>
        <time>2021-08-18T09:17:52Z</time>
      </trkpt>
      <trkpt lat="44.50977" lon="2.80928">
        <ele>349.2</ele>
        <time>2021-08-18T09:17:54Z</time>
      </trkpt>
      <trkpt lat="44.5097" lon="2.8092">
        <ele>349.2</ele>
        <time>2021-08-18T09:17:56Z</time>
      </trkpt>
      <trkpt lat="44.50964" lon="2.80913">
        <ele>349.1</ele>
        <time>2021-08-18T09:17:58Z</time>
      </trkpt>
      <trkpt lat="44.50958" lon="2.80905">
        <ele>348.8</ele>
        <time>2021-08-18T09:18:00Z</time>
      </trkpt>
      <trkpt lat="44.50951" lon="2.80899">
        <ele>348.7</ele>
        <time>2021-08-18T09:18:02Z</time>
      </trkpt>
      <trkpt lat="44.50944" lon="2.80893">
        <ele>348.6</ele>
        <time>2021-08-18T09:18:04Z</time>
      </trkpt>
      <trkpt lat="44.50939" lon="2.80888">
        <ele>348.5</ele>
        <time>2021-08-18T09:18:06Z</time>
      </trkpt>
      <trkpt lat="44.50932" lon="2.80883">
        <ele>348.5</ele>
        <time>2021-08-18T09:18:08Z</time>
      </trkpt>
      <trkpt lat="44.50926" lon="2.80877">
        <ele>348.5</ele>
        <time>2021-08-18T09:18:10Z</time>
      </trkpt>
      <trkpt lat="44.50919" lon="2.80873">
        <ele>348.5</ele>
        <time>2021-08-18T09:18:12Z</time>
      </trkpt>
      <trkpt lat="44.50914" lon="2.80868">
        <ele>348.6</ele>
        <time>2021-08-18T09:18:14Z</time>
      </trkpt>
      <trkpt lat="44.50909" lon="2.80864">
        <ele>348.7</ele>
        <time>2021-08-18T09:18:16Z</time>
      </trkpt>
      <trkpt lat="44.50903" lon="2.80858">
        <ele>348.8</ele>
        <time>2021-08-18T09:18:18Z</time>
      </trkpt>
      <trkpt lat="44.50897" lon="2.80853">
        <ele>348.8</ele>
        <time>2021-08-18T09:18:20Z</time>
      </trkpt>
      <trkpt lat="44.50891" lon="2.80849">
        <ele>348.9</ele>
        <time>2021-08-18T09:18:22Z</time>
      </trkpt>
      <trkpt lat="44.50885" lon="2.80844">
        <ele>348.9</ele>
        <time>2021-08-18T09:18:24Z</time>
      </trkpt>
      <trkpt lat="44.5088" lon="2.8084">
        <ele>349</ele>
        <time>2021-08-18T09:18:26Z</time>
      </trkpt>
      <trkpt lat="44.50874" lon="2.80834">
        <ele>349</ele>
        <time>2021-08-18T09:18:28Z</time>
      </trkpt>
      <trkpt lat="44.50869" lon="2.80829">
        <ele>349</ele>
        <time>2021-08-18T09:18:30Z</time>
      </trkpt>
      <trkpt lat="44.50863" lon="2.80824">
        <ele>349</ele>
        <time>2021-08-18T09:18:32Z</time>
      </trkpt>
      <trkpt lat="44.50857" lon="2.80817">
        <ele>349</ele>
        <time>2021-08-18T09:18:34Z</time>
      </trkpt>
      <trkpt lat="44.50852" lon="2.80811">
        <ele>349.1</ele>
        <time>2021-08-18T09:18:36Z</time>
      </trkpt>
      <trkpt lat="44.50847" lon="2.80805">
        <ele>349.2</ele>
        <time>2021-08-18T09:18:38Z</time>
      </trkpt>
      <trkpt lat="44.50842" lon="2.80798">
        <ele>349.3</ele>
        <time>2021-08-18T09:18:40Z</time>
      </trkpt>
      <trkpt lat="44.50837" lon="2.80791">
        <ele>349.4</ele>
        <time>2021-08-18T09:18:42Z</time>
      </trkpt>
      <trkpt lat="44.50832" lon="2.80784">
        <ele>349.6</ele>
        <time>2021-08-18T09:18:44Z</time>
      </trkpt>
      <trkpt lat="44.50828" lon="2.80776">
        <ele>349.9</ele>
        <time>2021-08-18T09:18:46Z</time>
      </trkpt>
      <trkpt lat="44.50823" lon="2.80767">
        <ele>350.1</ele>
        <time>2021-08-18T09:18:48Z</time>
      </trkpt>
      <trkpt lat="44.50819" lon="2.80757">
        <ele>350.4</ele>
        <time>2021-08-18T09:18:50Z</time>
      </trkpt>
      <trkpt lat="44.50816" lon="2.80748">
        <ele>350.6</ele>
        <time>2021-08-18T09:18:52Z</time>
      </trkpt>
      <trkpt lat="44.50811" lon="2.80739">
        <ele>350.6</ele>
        <time>2021-08-18T09:18:54Z</time>
      </trkpt>
      <trkpt lat="44.50809" lon="2.8073">
        <ele>350.6</ele>
        <time>2021-08-18T09:18:56Z</time>
      </trkpt>
      <trkpt lat="44.50805" lon="2.80721">
        <ele>350.7</ele>
        <time>2021-08-18T09:18:58Z</time>
      </trkpt>
      <trkpt lat="44.50799" lon="2.8071">
        <ele>351</ele>
        <time>2021-08-18T09:19:00Z</time>
      </trkpt>
      <trkpt lat="44.50793" lon="2.80701">
        <ele>351.4</ele>
        <time>2021-08-18T09:19:02Z</time>
      </trkpt>
      <trkpt lat="44.5079" lon="2.80693">
        <ele>351.7</ele>
        <time>2021-08-18T09:19:04Z</time>
      </trkpt>
      <trkpt lat="44.50783" lon="2.80681">
        <ele>352.3</ele>
        <time>2021-08-18T09:19:06Z</time>
      </trkpt>
      <trkpt lat="44.50778" lon="2.8067">
        <ele>353</ele>
        <time>2021-08-18T09:19:08Z</time>
      </trkpt>
      <trkpt lat="44.50774" lon="2.8066">
        <ele>353.4</ele>
        <time>2021-08-18T09:19:10Z</time>
      </trkpt>
      <trkpt lat="44.50767" lon="2.80648">
        <ele>354.2</ele>
        <time>2021-08-18T09:19:12Z</time>
      </trkpt>
      <trkpt lat="44.50764" lon="2.80637">
        <ele>354.5</ele>
        <time>2021-08-18T09:19:14Z</time>
      </trkpt>
      <trkpt lat="44.50762" lon="2.80628">
        <ele>354.8</ele>
        <time>2021-08-18T09:19:16Z</time>
      </trkpt>
      <trkpt lat="44.50757" lon="2.80618">
        <ele>355.3</ele>
        <time>2021-08-18T09:19:18Z</time>
      </trkpt>
      <trkpt lat="44.50753" lon="2.8061">
        <ele>355.7</ele>
        <time>2021-08-18T09:19:20Z</time>
      </trkpt>
      <trkpt lat="44.5075" lon="2.80601">
        <ele>356</ele>
        <time>2021-08-18T09:19:22Z</time>
      </trkpt>
      <trkpt lat="44.50746" lon="2.80592">
        <ele>356.6</ele>
        <time>2021-08-18T09:19:24Z</time>
      </trkpt>
      <trkpt lat="44.50743" lon="2.80584">
        <ele>357</ele>
        <time>2021-08-18T09:19:26Z</time>
      </trkpt>
      <trkpt lat="44.5074" lon="2.80574">
        <ele>357.5</ele>
        <time>2021-08-18T09:19:28Z</time>
      </trkpt>
      <trkpt lat="44.50737" lon="2.80567">
        <ele>357.7</ele>
        <time>2021-08-18T09:19:30Z</time>
      </trkpt>
      <trkpt lat="44.50734" lon="2.80556">
        <ele>358.2</ele>
        <time>2021-08-18T09:19:32Z</time>
      </trkpt>
      <trkpt lat="44.50731" lon="2.80547">
        <ele>358.6</ele>
        <time>2021-08-18T09:19:34Z</time>
      </trkpt>
      <trkpt lat="44.5073" lon="2.80539">
        <ele>358.8</ele>
        <time>2021-08-18T09:19:36Z</time>
      </trkpt>
      <trkpt lat="44.50729" lon="2.80529">
        <ele>359.1</ele>
        <time>2021-08-18T09:19:38Z</time>
      </trkpt>
      <trkpt lat="44.50726" lon="2.80519">
        <ele>359.6</ele>
        <time>2021-08-18T09:19:40Z</time>
      </trkpt>
      <trkpt lat="44.50724" lon="2.80509">
        <ele>360</ele>
        <time>2021-08-18T09:19:42Z</time>
      </trkpt>
      <trkpt lat="44.50722" lon="2.805">
        <ele>360.3</ele>
        <time>2021-08-18T09:19:44Z</time>
      </trkpt>
      <trkpt lat="44.50722" lon="2.80489">
        <ele>359.9</ele>
        <time>2021-08-18T09:19:46Z</time>
      </trkpt>
      <trkpt lat="44.5072" lon="2.80479">
        <ele>359.7</ele>
        <time>2021-08-18T09:19:48Z</time>
      </trkpt>
      <trkpt lat="44.5072" lon="2.80468">
        <ele>359.2</ele>
        <time>2021-08-18T09:19:50Z</time>
      </trkpt>
      <trkpt lat="44.5072" lon="2.80456">
        <ele>358.6</ele>
        <time>2021-08-18T09:19:52Z</time>
      </trkpt>
      <trkpt lat="44.50721" lon="2.80443">
        <ele>357.7</ele>
        <time>2021-08-18T09:19:54Z</time>
      </trkpt>
      <trkpt lat="44.50722" lon="2.80429">
        <ele>356.9</ele>
        <time>2021-08-18T09:19:56Z</time>
      </trkpt>
      <trkpt lat="44.50724" lon="2.80415">
        <ele>356</ele>
        <time>2021-08-18T09:19:58Z</time>
      </trkpt>
      <trkpt lat="44.50725" lon="2.804">
        <ele>355.4</ele>
        <time>2021-08-18T09:20:00Z</time>
      </trkpt>
      <trkpt lat="44.50724" lon="2.80385">
        <ele>354.9</ele>
        <time>2021-08-18T09:20:02Z</time>
      </trkpt>
      <trkpt lat="44.50723" lon="2.80371">
        <ele>354.6</ele>
        <time>2021-08-18T09:20:04Z</time>
      </trkpt>
      <trkpt lat="44.5072" lon="2.80359">
        <ele>354.4</ele>
        <time>2021-08-18T09:20:06Z</time>
      </trkpt>
      <trkpt lat="44.50716" lon="2.80346">
        <ele>354.4</ele>
        <time>2021-08-18T09:20:08Z</time>
      </trkpt>
      <trkpt lat="44.50712" lon="2.80335">
        <ele>354.3</ele>
        <time>2021-08-18T09:20:10Z</time>
      </trkpt>
      <trkpt lat="44.50707" lon="2.80326">
        <ele>354.5</ele>
        <time>2021-08-18T09:20:12Z</time>
      </trkpt>
      <trkpt lat="44.50703" lon="2.80318">
        <ele>354.7</ele>
        <time>2021-08-18T09:20:14Z</time>
      </trkpt>
      <trkpt lat="44.50698" lon="2.8031">
        <ele>354.9</ele>
        <time>2021-08-18T09:20:16Z</time>
      </trkpt>
      <trkpt lat="44.50694" lon="2.80302">
        <ele>355.1</ele>
        <time>2021-08-18T09:20:18Z</time>
      </trkpt>
      <trkpt lat="44.5069" lon="2.80294">
        <ele>355.2</ele>
        <time>2021-08-18T09:20:20Z</time>
      </trkpt>
      <trkpt lat="44.50686" lon="2.80289">
        <ele>355.3</ele>
        <time>2021-08-18T09:20:22Z</time>
      </trkpt>
      <trkpt lat="44.50681" lon="2.80282">
        <ele>355.4</ele>
        <time>2021-08-18T09:20:24Z</time>
      </trkpt>
      <trkpt lat="44.50677" lon="2.80274">
        <ele>355.4</ele>
        <time>2021-08-18T09:20:26Z</time>
      </trkpt>
      <trkpt lat="44.50673" lon="2.80267">
        <ele>355.3</ele>
        <time>2021-08-18T09:20:28Z</time>
      </trkpt>
      <trkpt lat="44.50669" lon="2.8026">
        <ele>355.2</ele>
        <time>2021-08-18T09:20:30Z</time>
      </trkpt>
      <trkpt lat="44.50667" lon="2.8025">
        <ele>355</ele>
        <time>2021-08-18T09:20:32Z</time>
      </trkpt>
      <trkpt lat="44.50669" lon="2.80239">
        <ele>356</ele>
        <time>2021-08-18T09:20:34Z</time>
      </trkpt>
      <trkpt lat="44.50671" lon="2.80229">
        <ele>356.8</ele>
        <time>2021-08-18T09:20:36Z</time>
      </trkpt>
      <trkpt lat="44.50674" lon="2.8022">
        <ele>357.3</ele>
        <time>2021-08-18T09:20:38Z</time>
      </trkpt>
      <trkpt lat="44.50678" lon="2.80211">
        <ele>357.7</ele>
        <time>2021-08-18T09:20:40Z</time>
      </trkpt>
      <trkpt lat="44.50682" lon="2.80204">
        <ele>357.8</ele>
        <time>2021-08-18T09:20:42Z</time>
      </trkpt>
      <trkpt lat="44.50687" lon="2.80198">
        <ele>357.8</ele>
        <time>2021-08-18T09:20:44Z</time>
      </trkpt>
      <trkpt lat="44.50692" lon="2.80192">
        <ele>357.5</ele>
        <time>2021-08-18T09:20:46Z</time>
      </trkpt>
      <trkpt lat="44.50697" lon="2.80185">
        <ele>357.4</ele>
        <time>2021-08-18T09:20:48Z</time>
      </trkpt>
      <trkpt lat="44.50701" lon="2.80178">
        <ele>357.2</ele>
        <time>2021-08-18T09:20:50Z</time>
      </trkpt>
      <trkpt lat="44.50705" lon="2.80171">
        <ele>356.9</ele>
        <time>2021-08-18T09:20:52Z</time>
      </trkpt>
      <trkpt lat="44.50708" lon="2.80162">
        <ele>356.9</ele>
        <time>2021-08-18T09:20:54Z</time>
      </trkpt>
      <trkpt lat="44.50711" lon="2.80153">
        <ele>357.1</ele>
        <time>2021-08-18T09:20:56Z</time>
      </trkpt>
      <trkpt lat="44.50713" lon="2.80143">
        <ele>357.3</ele>
        <time>2021-08-18T09:20:58Z</time>
      </trkpt>
      <trkpt lat="44.50715" lon="2.80132">
        <ele>357.6</ele>
        <time>2021-08-18T09:21:00Z</time>
      </trkpt>
      <trkpt lat="44.50717" lon="2.80122">
        <ele>357.8</ele>
        <time>2021-08-18T09:21:02Z</time>
      </trkpt>
      <trkpt lat="44.50719" lon="2.80112">
        <ele>358</ele>
        <time>2021-08-18T09:21:04Z</time>
      </trkpt>
      <trkpt lat="44.50721" lon="2.80102">
        <ele>358</ele>
        <time>2021-08-18T09:21:06Z</time>
      </trkpt>
      <trkpt lat="44.50723" lon="2.80092">
        <ele>358.1</ele>
        <time>2021-08-18T09:21:08Z</time>
      </trkpt>
      <trkpt lat="44.50724" lon="2.80082">
        <ele>358.1</ele>
        <time>2021-08-18T09:21:10Z</time>
      </trkpt>
      <trkpt lat="44.50725" lon="2.80071">
        <ele>358.1</ele>
        <time>2021-08-18T09:21:12Z</time>
      </trkpt>
      <trkpt lat="44.50727" lon="2.80061">
        <ele>358</ele>
        <time>2021-08-18T09:21:14Z</time>
      </trkpt>
      <trkpt lat="44.50728" lon="2.8005">
        <ele>358</ele>
        <time>2021-08-18T09:21:16Z</time>
      </trkpt>
      <trkpt lat="44.50729" lon="2.8004">
        <ele>358.2</ele>
        <time>2021-08-18T09:21:18Z</time>
      </trkpt>
      <trkpt lat="44.50729" lon="2.8003">
        <ele>358.4</ele>
        <time>2021-08-18T09:21:20Z</time>
      </trkpt>
      <trkpt lat="44.50729" lon="2.80019">
        <ele>358.7</ele>
        <time>2021-08-18T09:21:22Z</time>
      </trkpt>
      <trkpt lat="44.5073" lon="2.80009">
        <ele>358.7</ele>
        <time>2021-08-18T09:21:24Z</time>
      </trkpt>
      <trkpt lat="44.50729" lon="2.79998">
        <ele>359.3</ele>
        <time>2021-08-18T09:21:26Z</time>
      </trkpt>
      <trkpt lat="44.50729" lon="2.79988">
        <ele>359.4</ele>
        <time>2021-08-18T09:21:28Z</time>
      </trkpt>
      <trkpt lat="44.50729" lon="2.79979">
        <ele>359.6</ele>
        <time>2021-08-18T09:21:30Z</time>
      </trkpt>
      <trkpt lat="44.50727" lon="2.7997">
        <ele>360.1</ele>
        <time>2021-08-18T09:21:32Z</time>
      </trkpt>
      <trkpt lat="44.50727" lon="2.79961">
        <ele>360.4</ele>
        <time>2021-08-18T09:21:34Z</time>
      </trkpt>
      <trkpt lat="44.50727" lon="2.79952">
        <ele>360.5</ele>
        <time>2021-08-18T09:21:36Z</time>
      </trkpt>
      <trkpt lat="44.50725" lon="2.79945">
        <ele>361</ele>
        <time>2021-08-18T09:21:38Z</time>
      </trkpt>
      <trkpt lat="44.50725" lon="2.79936">
        <ele>361.1</ele>
        <time>2021-08-18T09:21:40Z</time>
      </trkpt>
      <trkpt lat="44.50725" lon="2.79928">
        <ele>361.3</ele>
        <time>2021-08-18T09:21:42Z</time>
      </trkpt>
      <trkpt lat="44.50724" lon="2.7992">
        <ele>361.6</ele>
        <time>2021-08-18T09:21:44Z</time>
      </trkpt>
      <trkpt lat="44.50724" lon="2.79912">
        <ele>362.1</ele>
        <time>2021-08-18T09:21:46Z</time>
      </trkpt>
      <trkpt lat="44.50723" lon="2.79903">
        <ele>362.9</ele>
        <time>2021-08-18T09:21:48Z</time>
      </trkpt>
      <trkpt lat="44.50723" lon="2.79894">
        <ele>363.8</ele>
        <time>2021-08-18T09:21:50Z</time>
      </trkpt>
      <trkpt lat="44.50722" lon="2.79885">
        <ele>364.8</ele>
        <time>2021-08-18T09:21:52Z</time>
      </trkpt>
      <trkpt lat="44.50721" lon="2.79876">
        <ele>365.8</ele>
        <time>2021-08-18T09:21:54Z</time>
      </trkpt>
      <trkpt lat="44.50721" lon="2.79867">
        <ele>366.6</ele>
        <time>2021-08-18T09:21:56Z</time>
      </trkpt>
      <trkpt lat="44.50721" lon="2.79857">
        <ele>367.2</ele>
        <time>2021-08-18T09:21:58Z</time>
      </trkpt>
      <trkpt lat="44.50721" lon="2.79848">
        <ele>367.6</ele>
        <time>2021-08-18T09:22:00Z</time>
      </trkpt>
      <trkpt lat="44.50723" lon="2.79839">
        <ele>367.6</ele>
        <time>2021-08-18T09:22:02Z</time>
      </trkpt>
      <trkpt lat="44.50725" lon="2.7983">
        <ele>367.5</ele>
        <time>2021-08-18T09:22:04Z</time>
      </trkpt>
      <trkpt lat="44.50727" lon="2.79821">
        <ele>367.2</ele>
        <time>2021-08-18T09:22:06Z</time>
      </trkpt>
      <trkpt lat="44.5073" lon="2.79812">
        <ele>367</ele>
        <time>2021-08-18T09:22:08Z</time>
      </trkpt>
      <trkpt lat="44.50732" lon="2.79803">
        <ele>366.8</ele>
        <time>2021-08-18T09:22:10Z</time>
      </trkpt>
      <trkpt lat="44.50734" lon="2.79794">
        <ele>366.6</ele>
        <time>2021-08-18T09:22:12Z</time>
      </trkpt>
      <trkpt lat="44.50736" lon="2.79784">
        <ele>366.7</ele>
        <time>2021-08-18T09:22:14Z</time>
      </trkpt>
      <trkpt lat="44.50738" lon="2.79775">
        <ele>366.5</ele>
        <time>2021-08-18T09:22:16Z</time>
      </trkpt>
      <trkpt lat="44.5074" lon="2.79767">
        <ele>366.3</ele>
        <time>2021-08-18T09:22:18Z</time>
      </trkpt>
      <trkpt lat="44.50741" lon="2.79757">
        <ele>366.7</ele>
        <time>2021-08-18T09:22:20Z</time>
      </trkpt>
      <trkpt lat="44.50742" lon="2.79749">
        <ele>367.1</ele>
        <time>2021-08-18T09:22:22Z</time>
      </trkpt>
      <trkpt lat="44.50742" lon="2.7974">
        <ele>368.1</ele>
        <time>2021-08-18T09:22:24Z</time>
      </trkpt>
      <trkpt lat="44.50743" lon="2.79732">
        <ele>368.6</ele>
        <time>2021-08-18T09:22:26Z</time>
      </trkpt>
      <trkpt lat="44.50743" lon="2.79725">
        <ele>369.6</ele>
        <time>2021-08-18T09:22:28Z</time>
      </trkpt>
      <trkpt lat="44.50744" lon="2.79718">
        <ele>370.2</ele>
        <time>2021-08-18T09:22:30Z</time>
      </trkpt>
      <trkpt lat="44.50745" lon="2.79711">
        <ele>370.8</ele>
        <time>2021-08-18T09:22:32Z</time>
      </trkpt>
      <trkpt lat="44.50747" lon="2.79703">
        <ele>371</ele>
        <time>2021-08-18T09:22:34Z</time>
      </trkpt>
      <trkpt lat="44.50749" lon="2.79697">
        <ele>371.1</ele>
        <time>2021-08-18T09:22:36Z</time>
      </trkpt>
      <trkpt lat="44.50751" lon="2.7969">
        <ele>371.3</ele>
        <time>2021-08-18T09:22:38Z</time>
      </trkpt>
      <trkpt lat="44.50753" lon="2.79684">
        <ele>371.5</ele>
        <time>2021-08-18T09:22:40Z</time>
      </trkpt>
      <trkpt lat="44.50757" lon="2.79679">
        <ele>371.4</ele>
        <time>2021-08-18T09:22:42Z</time>
      </trkpt>
      <trkpt lat="44.50761" lon="2.79673">
        <ele>370.9</ele>
        <time>2021-08-18T09:22:44Z</time>
      </trkpt>
      <trkpt lat="44.50765" lon="2.79667">
        <ele>370.8</ele>
        <time>2021-08-18T09:22:46Z</time>
      </trkpt>
      <trkpt lat="44.5077" lon="2.79659">
        <ele>370.7</ele>
        <time>2021-08-18T09:22:48Z</time>
      </trkpt>
      <trkpt lat="44.50776" lon="2.79651">
        <ele>370.5</ele>
        <time>2021-08-18T09:22:50Z</time>
      </trkpt>
      <trkpt lat="44.50781" lon="2.79644">
        <ele>370.1</ele>
        <time>2021-08-18T09:22:52Z</time>
      </trkpt>
      <trkpt lat="44.50787" lon="2.79638">
        <ele>369.1</ele>
        <time>2021-08-18T09:22:54Z</time>
      </trkpt>
      <trkpt lat="44.50791" lon="2.7963">
        <ele>369.1</ele>
        <time>2021-08-18T09:22:56Z</time>
      </trkpt>
      <trkpt lat="44.50796" lon="2.79622">
        <ele>368.7</ele>
        <time>2021-08-18T09:22:58Z</time>
      </trkpt>
      <trkpt lat="44.50801" lon="2.79613">
        <ele>368.6</ele>
        <time>2021-08-18T09:23:00Z</time>
      </trkpt>
      <trkpt lat="44.50806" lon="2.79605">
        <ele>368.1</ele>
        <time>2021-08-18T09:23:02Z</time>
      </trkpt>
      <trkpt lat="44.50811" lon="2.79594">
        <ele>367.7</ele>
        <time>2021-08-18T09:23:04Z</time>
      </trkpt>
      <trkpt lat="44.50815" lon="2.79584">
        <ele>367.6</ele>
        <time>2021-08-18T09:23:06Z</time>
      </trkpt>
      <trkpt lat="44.5082" lon="2.79573">
        <ele>367</ele>
        <time>2021-08-18T09:23:08Z</time>
      </trkpt>
      <trkpt lat="44.50824" lon="2.79561">
        <ele>366.9</ele>
        <time>2021-08-18T09:23:10Z</time>
      </trkpt>
      <trkpt lat="44.50828" lon="2.79549">
        <ele>366.5</ele>
        <time>2021-08-18T09:23:12Z</time>
      </trkpt>
      <trkpt lat="44.50832" lon="2.79537">
        <ele>366.1</ele>
        <time>2021-08-18T09:23:14Z</time>
      </trkpt>
      <trkpt lat="44.50835" lon="2.79526">
        <ele>366.1</ele>
        <time>2021-08-18T09:23:16Z</time>
      </trkpt>
      <trkpt lat="44.50837" lon="2.79515">
        <ele>366.7</ele>
        <time>2021-08-18T09:23:18Z</time>
      </trkpt>
      <trkpt lat="44.5084" lon="2.79505">
        <ele>366.5</ele>
        <time>2021-08-18T09:23:20Z</time>
      </trkpt>
      <trkpt lat="44.50842" lon="2.79495">
        <ele>366.8</ele>
        <time>2021-08-18T09:23:22Z</time>
      </trkpt>
      <trkpt lat="44.50845" lon="2.79487">
        <ele>366.9</ele>
        <time>2021-08-18T09:23:24Z</time>
      </trkpt>
      <trkpt lat="44.50847" lon="2.79479">
        <ele>367.1</ele>
        <time>2021-08-18T09:23:26Z</time>
      </trkpt>
      <trkpt lat="44.50849" lon="2.79471">
        <ele>367.3</ele>
        <time>2021-08-18T09:23:28Z</time>
      </trkpt>
      <trkpt lat="44.5085" lon="2.79463">
        <ele>367.5</ele>
        <time>2021-08-18T09:23:30Z</time>
      </trkpt>
      <trkpt lat="44.50851" lon="2.79456">
        <ele>367.7</ele>
        <time>2021-08-18T09:23:32Z</time>
      </trkpt>
      <trkpt lat="44.50853" lon="2.79448">
        <ele>367.9</ele>
        <time>2021-08-18T09:23:34Z</time>
      </trkpt>
      <trkpt lat="44.50854" lon="2.79441">
        <ele>368.3</ele>
        <time>2021-08-18T09:23:36Z</time>
      </trkpt>
      <trkpt lat="44.50855" lon="2.79435">
        <ele>368.4</ele>
        <time>2021-08-18T09:23:38Z</time>
      </trkpt>
      <trkpt lat="44.50855" lon="2.79429">
        <ele>368.7</ele>
        <time>2021-08-18T09:23:40Z</time>
      </trkpt>
      <trkpt lat="44.50857" lon="2.79424">
        <ele>368.7</ele>
        <time>2021-08-18T09:23:42Z</time>
      </trkpt>
      <trkpt lat="44.50856" lon="2.79418">
        <ele>369.4</ele>
        <time>2021-08-18T09:23:44Z</time>
      </trkpt>
      <trkpt lat="44.50857" lon="2.79412">
        <ele>370.1</ele>
        <time>2021-08-18T09:23:46Z</time>
      </trkpt>
      <trkpt lat="44.50857" lon="2.79406">
        <ele>371</ele>
        <time>2021-08-18T09:23:48Z</time>
      </trkpt>
      <trkpt lat="44.50857" lon="2.79401">
        <ele>371.9</ele>
        <time>2021-08-18T09:23:50Z</time>
      </trkpt>
      <trkpt lat="44.50858" lon="2.79395">
        <ele>372.8</ele>
        <time>2021-08-18T09:23:52Z</time>
      </trkpt>
      <trkpt lat="44.50858" lon="2.79388">
        <ele>373.7</ele>
        <time>2021-08-18T09:23:54Z</time>
      </trkpt>
      <trkpt lat="44.50858" lon="2.79381">
        <ele>374.8</ele>
        <time>2021-08-18T09:23:56Z</time>
      </trkpt>
      <trkpt lat="44.50859" lon="2.79375">
        <ele>375.6</ele>
        <time>2021-08-18T09:23:58Z</time>
      </trkpt>
      <trkpt lat="44.5086" lon="2.79369">
        <ele>376.3</ele>
        <time>2021-08-18T09:24:00Z</time>
      </trkpt>
      <trkpt lat="44.50861" lon="2.79363">
        <ele>377.1</ele>
        <time>2021-08-18T09:24:02Z</time>
      </trkpt>
      <trkpt lat="44.50862" lon="2.79356">
        <ele>377.7</ele>
        <time>2021-08-18T09:24:04Z</time>
      </trkpt>
      <trkpt lat="44.50864" lon="2.7935">
        <ele>377.9</ele>
        <time>2021-08-18T09:24:06Z</time>
      </trkpt>
      <trkpt lat="44.50866" lon="2.79343">
        <ele>378.4</ele>
        <time>2021-08-18T09:24:08Z</time>
      </trkpt>
      <trkpt lat="44.50867" lon="2.79336">
        <ele>379.1</ele>
        <time>2021-08-18T09:24:10Z</time>
      </trkpt>
      <trkpt lat="44.50869" lon="2.79329">
        <ele>379.3</ele>
        <time>2021-08-18T09:24:12Z</time>
      </trkpt>
      <trkpt lat="44.50872" lon="2.79322">
        <ele>379.8</ele>
        <time>2021-08-18T09:24:14Z</time>
      </trkpt>
      <trkpt lat="44.50875" lon="2.79315">
        <ele>380.1</ele>
        <time>2021-08-18T09:24:16Z</time>
      </trkpt>
      <trkpt lat="44.50879" lon="2.79307">
        <ele>380</ele>
        <time>2021-08-18T09:24:18Z</time>
      </trkpt>
      <trkpt lat="44.50885" lon="2.79299">
        <ele>379.6</ele>
        <time>2021-08-18T09:24:20Z</time>
      </trkpt>
      <trkpt lat="44.5089" lon="2.79292">
        <ele>379.3</ele>
        <time>2021-08-18T09:24:22Z</time>
      </trkpt>
      <trkpt lat="44.50897" lon="2.79284">
        <ele>378.2</ele>
        <time>2021-08-18T09:24:24Z</time>
      </trkpt>
      <trkpt lat="44.50905" lon="2.79276">
        <ele>377</ele>
        <time>2021-08-18T09:24:26Z</time>
      </trkpt>
      <trkpt lat="44.50914" lon="2.79269">
        <ele>375.3</ele>
        <time>2021-08-18T09:24:28Z</time>
      </trkpt>
      <trkpt lat="44.50923" lon="2.79261">
        <ele>374.4</ele>
        <time>2021-08-18T09:24:30Z</time>
      </trkpt>
      <trkpt lat="44.50931" lon="2.79253">
        <ele>373.8</ele>
        <time>2021-08-18T09:24:32Z</time>
      </trkpt>
      <trkpt lat="44.50939" lon="2.79244">
        <ele>373.3</ele>
        <time>2021-08-18T09:24:34Z</time>
      </trkpt>
      <trkpt lat="44.50948" lon="2.79234">
        <ele>373.2</ele>
        <time>2021-08-18T09:24:36Z</time>
      </trkpt>
      <trkpt lat="44.50957" lon="2.79223">
        <ele>373.2</ele>
        <time>2021-08-18T09:24:38Z</time>
      </trkpt>
      <trkpt lat="44.50966" lon="2.79211">
        <ele>373.6</ele>
        <time>2021-08-18T09:24:40Z</time>
      </trkpt>
      <trkpt lat="44.50976" lon="2.792">
        <ele>373.5</ele>
        <time>2021-08-18T09:24:42Z</time>
      </trkpt>
      <trkpt lat="44.50986" lon="2.79189">
        <ele>373.2</ele>
        <time>2021-08-18T09:24:44Z</time>
      </trkpt>
      <trkpt lat="44.50997" lon="2.79178">
        <ele>372.7</ele>
        <time>2021-08-18T09:24:46Z</time>
      </trkpt>
      <trkpt lat="44.5101" lon="2.79169">
        <ele>371.1</ele>
        <time>2021-08-18T09:24:48Z</time>
      </trkpt>
      <trkpt lat="44.51021" lon="2.79161">
        <ele>368.9</ele>
        <time>2021-08-18T09:24:50Z</time>
      </trkpt>
      <trkpt lat="44.51032" lon="2.79153">
        <ele>366.6</ele>
        <time>2021-08-18T09:24:52Z</time>
      </trkpt>
      <trkpt lat="44.51041" lon="2.79144">
        <ele>365.3</ele>
        <time>2021-08-18T09:24:54Z</time>
      </trkpt>
      <trkpt lat="44.5105" lon="2.79133">
        <ele>364.3</ele>
        <time>2021-08-18T09:24:56Z</time>
      </trkpt>
      <trkpt lat="44.51059" lon="2.79123">
        <ele>363.2</ele>
        <time>2021-08-18T09:24:58Z</time>
      </trkpt>
      <trkpt lat="44.51067" lon="2.79113">
        <ele>362.2</ele>
        <time>2021-08-18T09:25:00Z</time>
      </trkpt>
      <trkpt lat="44.51073" lon="2.79101">
        <ele>362.5</ele>
        <time>2021-08-18T09:25:02Z</time>
      </trkpt>
      <trkpt lat="44.51079" lon="2.79089">
        <ele>362.6</ele>
        <time>2021-08-18T09:25:04Z</time>
      </trkpt>
      <trkpt lat="44.51085" lon="2.79076">
        <ele>361.7</ele>
        <time>2021-08-18T09:25:06Z</time>
      </trkpt>
      <trkpt lat="44.51092" lon="2.79063">
        <ele>360.1</ele>
        <time>2021-08-18T09:25:08Z</time>
      </trkpt>
      <trkpt lat="44.51099" lon="2.79047">
        <ele>358.6</ele>
        <time>2021-08-18T09:25:10Z</time>
      </trkpt>
      <trkpt lat="44.51104" lon="2.7903">
        <ele>357.4</ele>
        <time>2021-08-18T09:25:12Z</time>
      </trkpt>
      <trkpt lat="44.51107" lon="2.79013">
        <ele>356.6</ele>
        <time>2021-08-18T09:25:14Z</time>
      </trkpt>
      <trkpt lat="44.51113" lon="2.78995">
        <ele>355.9</ele>
        <time>2021-08-18T09:25:16Z</time>
      </trkpt>
      <trkpt lat="44.51118" lon="2.78978">
        <ele>357.2</ele>
        <time>2021-08-18T09:25:18Z</time>
      </trkpt>
      <trkpt lat="44.51124" lon="2.78961">
        <ele>357.8</ele>
        <time>2021-08-18T09:25:20Z</time>
      </trkpt>
      <trkpt lat="44.51134" lon="2.78948">
        <ele>356.9</ele>
        <time>2021-08-18T09:25:22Z</time>
      </trkpt>
      <trkpt lat="44.51146" lon="2.78937">
        <ele>354.9</ele>
        <time>2021-08-18T09:25:24Z</time>
      </trkpt>
      <trkpt lat="44.5116" lon="2.78931">
        <ele>351.6</ele>
        <time>2021-08-18T09:25:26Z</time>
      </trkpt>
      <trkpt lat="44.51175" lon="2.78931">
        <ele>348.6</ele>
        <time>2021-08-18T09:25:28Z</time>
      </trkpt>
      <trkpt lat="44.5119" lon="2.78931">
        <ele>347</ele>
        <time>2021-08-18T09:25:30Z</time>
      </trkpt>
      <trkpt lat="44.51202" lon="2.7893">
        <ele>345.6</ele>
        <time>2021-08-18T09:25:32Z</time>
      </trkpt>
      <trkpt lat="44.51214" lon="2.78926">
        <ele>344.3</ele>
        <time>2021-08-18T09:25:34Z</time>
      </trkpt>
      <trkpt lat="44.51225" lon="2.78922">
        <ele>343.1</ele>
        <time>2021-08-18T09:25:36Z</time>
      </trkpt>
      <trkpt lat="44.51235" lon="2.78915">
        <ele>342.1</ele>
        <time>2021-08-18T09:25:38Z</time>
      </trkpt>
      <trkpt lat="44.51245" lon="2.78907">
        <ele>341.3</ele>
        <time>2021-08-18T09:25:40Z</time>
      </trkpt>
      <trkpt lat="44.51254" lon="2.78898">
        <ele>340.9</ele>
        <time>2021-08-18T09:25:42Z</time>
      </trkpt>
      <trkpt lat="44.51263" lon="2.78888">
        <ele>341.3</ele>
        <time>2021-08-18T09:25:44Z</time>
      </trkpt>
      <trkpt lat="44.51272" lon="2.7888">
        <ele>341.6</ele>
        <time>2021-08-18T09:25:46Z</time>
      </trkpt>
      <trkpt lat="44.5128" lon="2.78869">
        <ele>341.8</ele>
        <time>2021-08-18T09:25:48Z</time>
      </trkpt>
      <trkpt lat="44.51288" lon="2.78859">
        <ele>342</ele>
        <time>2021-08-18T09:25:50Z</time>
      </trkpt>
      <trkpt lat="44.51296" lon="2.78849">
        <ele>342</ele>
        <time>2021-08-18T09:25:52Z</time>
      </trkpt>
      <trkpt lat="44.51304" lon="2.78839">
        <ele>342</ele>
        <time>2021-08-18T09:25:54Z</time>
      </trkpt>
      <trkpt lat="44.51312" lon="2.78829">
        <ele>341.9</ele>
        <time>2021-08-18T09:25:56Z</time>
      </trkpt>
      <trkpt lat="44.5132" lon="2.78818">
        <ele>341.7</ele>
        <time>2021-08-18T09:25:58Z</time>
      </trkpt>
      <trkpt lat="44.51328" lon="2.78807">
        <ele>341.3</ele>
        <time>2021-08-18T09:26:00Z</time>
      </trkpt>
      <trkpt lat="44.51338" lon="2.78798">
        <ele>340.9</ele>
        <time>2021-08-18T09:26:02Z</time>
      </trkpt>
      <trkpt lat="44.51348" lon="2.78791">
        <ele>340.8</ele>
        <time>2021-08-18T09:26:04Z</time>
      </trkpt>
      <trkpt lat="44.51358" lon="2.78786">
        <ele>340.7</ele>
        <time>2021-08-18T09:26:06Z</time>
      </trkpt>
      <trkpt lat="44.51368" lon="2.78781">
        <ele>340.7</ele>
        <time>2021-08-18T09:26:08Z</time>
      </trkpt>
      <trkpt lat="44.51379" lon="2.78778">
        <ele>340.6</ele>
        <time>2021-08-18T09:26:10Z</time>
      </trkpt>
      <trkpt lat="44.51389" lon="2.78774">
        <ele>340.6</ele>
        <time>2021-08-18T09:26:12Z</time>
      </trkpt>
      <trkpt lat="44.514" lon="2.78771">
        <ele>340.6</ele>
        <time>2021-08-18T09:26:14Z</time>
      </trkpt>
      <trkpt lat="44.51411" lon="2.7877">
        <ele>340.6</ele>
        <time>2021-08-18T09:26:16Z</time>
      </trkpt>
      <trkpt lat="44.51421" lon="2.78768">
        <ele>340.5</ele>
        <time>2021-08-18T09:26:18Z</time>
      </trkpt>
      <trkpt lat="44.51432" lon="2.78767">
        <ele>340.5</ele>
        <time>2021-08-18T09:26:20Z</time>
      </trkpt>
      <trkpt lat="44.51442" lon="2.78765">
        <ele>340.5</ele>
        <time>2021-08-18T09:26:22Z</time>
      </trkpt>
      <trkpt lat="44.51452" lon="2.78762">
        <ele>340.5</ele>
        <time>2021-08-18T09:26:24Z</time>
      </trkpt>
      <trkpt lat="44.51462" lon="2.78759">
        <ele>340.4</ele>
        <time>2021-08-18T09:26:26Z</time>
      </trkpt>
      <trkpt lat="44.51472" lon="2.78756">
        <ele>340.3</ele>
        <time>2021-08-18T09:26:28Z</time>
      </trkpt>
      <trkpt lat="44.51482" lon="2.78752">
        <ele>340.2</ele>
        <time>2021-08-18T09:26:30Z</time>
      </trkpt>
      <trkpt lat="44.51492" lon="2.78748">
        <ele>340.1</ele>
        <time>2021-08-18T09:26:32Z</time>
      </trkpt>
      <trkpt lat="44.51502" lon="2.78744">
        <ele>340.1</ele>
        <time>2021-08-18T09:26:34Z</time>
      </trkpt>
      <trkpt lat="44.51511" lon="2.7874">
        <ele>340.3</ele>
        <time>2021-08-18T09:26:36Z</time>
      </trkpt>
      <trkpt lat="44.5152" lon="2.78736">
        <ele>340.5</ele>
        <time>2021-08-18T09:26:38Z</time>
      </trkpt>
      <trkpt lat="44.51529" lon="2.78731">
        <ele>340.6</ele>
        <time>2021-08-18T09:26:40Z</time>
      </trkpt>
      <trkpt lat="44.51538" lon="2.78727">
        <ele>340.6</ele>
        <time>2021-08-18T09:26:42Z</time>
      </trkpt>
      <trkpt lat="44.51548" lon="2.78722">
        <ele>340.7</ele>
        <time>2021-08-18T09:26:44Z</time>
      </trkpt>
      <trkpt lat="44.51557" lon="2.78717">
        <ele>340.7</ele>
        <time>2021-08-18T09:26:46Z</time>
      </trkpt>
      <trkpt lat="44.51566" lon="2.78712">
        <ele>340.6</ele>
        <time>2021-08-18T09:26:48Z</time>
      </trkpt>
      <trkpt lat="44.51574" lon="2.78706">
        <ele>340.5</ele>
        <time>2021-08-18T09:26:50Z</time>
      </trkpt>
      <trkpt lat="44.51583" lon="2.78701">
        <ele>340.4</ele>
        <time>2021-08-18T09:26:52Z</time>
      </trkpt>
      <trkpt lat="44.51592" lon="2.78696">
        <ele>340.5</ele>
        <time>2021-08-18T09:26:54Z</time>
      </trkpt>
      <trkpt lat="44.516" lon="2.78689">
        <ele>340.6</ele>
        <time>2021-08-18T09:26:56Z</time>
      </trkpt>
      <trkpt lat="44.51608" lon="2.78683">
        <ele>340.7</ele>
        <time>2021-08-18T09:26:58Z</time>
      </trkpt>
      <trkpt lat="44.51617" lon="2.78676">
        <ele>340.8</ele>
        <time>2021-08-18T09:27:00Z</time>
      </trkpt>
      <trkpt lat="44.51625" lon="2.78671">
        <ele>341</ele>
        <time>2021-08-18T09:27:02Z</time>
      </trkpt>
      <trkpt lat="44.51632" lon="2.78664">
        <ele>341.2</ele>
        <time>2021-08-18T09:27:04Z</time>
      </trkpt>
      <trkpt lat="44.51639" lon="2.78658">
        <ele>341.3</ele>
        <time>2021-08-18T09:27:06Z</time>
      </trkpt>
      <trkpt lat="44.51647" lon="2.78652">
        <ele>341.5</ele>
        <time>2021-08-18T09:27:08Z</time>
      </trkpt>
      <trkpt lat="44.51654" lon="2.78646">
        <ele>341.6</ele>
        <time>2021-08-18T09:27:10Z</time>
      </trkpt>
      <trkpt lat="44.51661" lon="2.78639">
        <ele>341.6</ele>
        <time>2021-08-18T09:27:12Z</time>
      </trkpt>
      <trkpt lat="44.51667" lon="2.78628">
        <ele>341.5</ele>
        <time>2021-08-18T09:27:14Z</time>
      </trkpt>
      <trkpt lat="44.51671" lon="2.78616">
        <ele>341.3</ele>
        <time>2021-08-18T09:27:16Z</time>
      </trkpt>
      <trkpt lat="44.51675" lon="2.78604">
        <ele>341</ele>
        <time>2021-08-18T09:27:18Z</time>
      </trkpt>
      <trkpt lat="44.51679" lon="2.78592">
        <ele>340.8</ele>
        <time>2021-08-18T09:27:20Z</time>
      </trkpt>
      <trkpt lat="44.51683" lon="2.78581">
        <ele>340.7</ele>
        <time>2021-08-18T09:27:22Z</time>
      </trkpt>
      <trkpt lat="44.51686" lon="2.78569">
        <ele>340.8</ele>
        <time>2021-08-18T09:27:24Z</time>
      </trkpt>
      <trkpt lat="44.51688" lon="2.78557">
        <ele>341</ele>
        <time>2021-08-18T09:27:26Z</time>
      </trkpt>
      <trkpt lat="44.5169" lon="2.78544">
        <ele>341.2</ele>
        <time>2021-08-18T09:27:28Z</time>
      </trkpt>
      <trkpt lat="44.51692" lon="2.78532">
        <ele>341.4</ele>
        <time>2021-08-18T09:27:30Z</time>
      </trkpt>
      <trkpt lat="44.51695" lon="2.7852">
        <ele>341.6</ele>
        <time>2021-08-18T09:27:32Z</time>
      </trkpt>
      <trkpt lat="44.51696" lon="2.78508">
        <ele>341.8</ele>
        <time>2021-08-18T09:27:34Z</time>
      </trkpt>
      <trkpt lat="44.51699" lon="2.78495">
        <ele>342.2</ele>
        <time>2021-08-18T09:27:36Z</time>
      </trkpt>
      <trkpt lat="44.51702" lon="2.78482">
        <ele>343</ele>
        <time>2021-08-18T09:27:38Z</time>
      </trkpt>
      <trkpt lat="44.51703" lon="2.78468">
        <ele>343.9</ele>
        <time>2021-08-18T09:27:40Z</time>
      </trkpt>
      <trkpt lat="44.51705" lon="2.78455">
        <ele>344.7</ele>
        <time>2021-08-18T09:27:42Z</time>
      </trkpt>
      <trkpt lat="44.51709" lon="2.78442">
        <ele>345.3</ele>
        <time>2021-08-18T09:27:44Z</time>
      </trkpt>
      <trkpt lat="44.51712" lon="2.78429">
        <ele>345.8</ele>
        <time>2021-08-18T09:27:46Z</time>
      </trkpt>
      <trkpt lat="44.51714" lon="2.78416">
        <ele>346.3</ele>
        <time>2021-08-18T09:27:48Z</time>
      </trkpt>
      <trkpt lat="44.51717" lon="2.78404">
        <ele>346.9</ele>
        <time>2021-08-18T09:27:50Z</time>
      </trkpt>
      <trkpt lat="44.5172" lon="2.78391">
        <ele>347.5</ele>
        <time>2021-08-18T09:27:52Z</time>
      </trkpt>
      <trkpt lat="44.51723" lon="2.78378">
        <ele>347.9</ele>
        <time>2021-08-18T09:27:54Z</time>
      </trkpt>
      <trkpt lat="44.51726" lon="2.78365">
        <ele>348</ele>
        <time>2021-08-18T09:27:56Z</time>
      </trkpt>
      <trkpt lat="44.51731" lon="2.78353">
        <ele>347.5</ele>
        <time>2021-08-18T09:27:58Z</time>
      </trkpt>
      <trkpt lat="44.51735" lon="2.7834">
        <ele>347</ele>
        <time>2021-08-18T09:28:00Z</time>
      </trkpt>
      <trkpt lat="44.51739" lon="2.78328">
        <ele>346.6</ele>
        <time>2021-08-18T09:28:02Z</time>
      </trkpt>
      <trkpt lat="44.51743" lon="2.78316">
        <ele>346.5</ele>
        <time>2021-08-18T09:28:04Z</time>
      </trkpt>
      <trkpt lat="44.51746" lon="2.78304">
        <ele>346.1</ele>
        <time>2021-08-18T09:28:06Z</time>
      </trkpt>
      <trkpt lat="44.51751" lon="2.78294">
        <ele>345.3</ele>
        <time>2021-08-18T09:28:08Z</time>
      </trkpt>
      <trkpt lat="44.51753" lon="2.78284">
        <ele>345.6</ele>
        <time>2021-08-18T09:28:10Z</time>
      </trkpt>
      <trkpt lat="44.51757" lon="2.78273">
        <ele>345.8</ele>
        <time>2021-08-18T09:28:12Z</time>
      </trkpt>
      <trkpt lat="44.51762" lon="2.78263">
        <ele>345.8</ele>
        <time>2021-08-18T09:28:14Z</time>
      </trkpt>
      <trkpt lat="44.51765" lon="2.78251">
        <ele>345.9</ele>
        <time>2021-08-18T09:28:16Z</time>
      </trkpt>
      <trkpt lat="44.51769" lon="2.7824">
        <ele>346.9</ele>
        <time>2021-08-18T09:28:18Z</time>
      </trkpt>
      <trkpt lat="44.51773" lon="2.78228">
        <ele>347.9</ele>
        <time>2021-08-18T09:28:20Z</time>
      </trkpt>
      <trkpt lat="44.51776" lon="2.78216">
        <ele>348.9</ele>
        <time>2021-08-18T09:28:22Z</time>
      </trkpt>
      <trkpt lat="44.5178" lon="2.78205">
        <ele>349.5</ele>
        <time>2021-08-18T09:28:24Z</time>
      </trkpt>
      <trkpt lat="44.51784" lon="2.78191">
        <ele>350.3</ele>
        <time>2021-08-18T09:28:26Z</time>
      </trkpt>
      <trkpt lat="44.51788" lon="2.7818">
        <ele>350.5</ele>
        <time>2021-08-18T09:28:28Z</time>
      </trkpt>
      <trkpt lat="44.51794" lon="2.78168">
        <ele>350.3</ele>
        <time>2021-08-18T09:28:30Z</time>
      </trkpt>
      <trkpt lat="44.51796" lon="2.78156">
        <ele>350.7</ele>
        <time>2021-08-18T09:28:32Z</time>
      </trkpt>
      <trkpt lat="44.518" lon="2.78145">
        <ele>350.4</ele>
        <time>2021-08-18T09:28:34Z</time>
      </trkpt>
      <trkpt lat="44.51804" lon="2.78134">
        <ele>350.3</ele>
        <time>2021-08-18T09:28:36Z</time>
      </trkpt>
      <trkpt lat="44.51807" lon="2.78123">
        <ele>350.3</ele>
        <time>2021-08-18T09:28:38Z</time>
      </trkpt>
      <trkpt lat="44.51811" lon="2.78112">
        <ele>349.9</ele>
        <time>2021-08-18T09:28:40Z</time>
      </trkpt>
      <trkpt lat="44.51816" lon="2.781">
        <ele>349.6</ele>
        <time>2021-08-18T09:28:42Z</time>
      </trkpt>
      <trkpt lat="44.5182" lon="2.78088">
        <ele>349.2</ele>
        <time>2021-08-18T09:28:44Z</time>
      </trkpt>
      <trkpt lat="44.51825" lon="2.78076">
        <ele>348.4</ele>
        <time>2021-08-18T09:28:46Z</time>
      </trkpt>
      <trkpt lat="44.51829" lon="2.78065">
        <ele>347.1</ele>
        <time>2021-08-18T09:28:48Z</time>
      </trkpt>
      <trkpt lat="44.51833" lon="2.78053">
        <ele>345.9</ele>
        <time>2021-08-18T09:28:50Z</time>
      </trkpt>
      <trkpt lat="44.51839" lon="2.78042">
        <ele>345.1</ele>
        <time>2021-08-18T09:28:52Z</time>
      </trkpt>
      <trkpt lat="44.51843" lon="2.78028">
        <ele>344.6</ele>
        <time>2021-08-18T09:28:54Z</time>
      </trkpt>
      <trkpt lat="44.51848" lon="2.78015">
        <ele>344.2</ele>
        <time>2021-08-18T09:28:56Z</time>
      </trkpt>
      <trkpt lat="44.51853" lon="2.78001">
        <ele>343.6</ele>
        <time>2021-08-18T09:28:58Z</time>
      </trkpt>
      <trkpt lat="44.51857" lon="2.77988">
        <ele>343.3</ele>
        <time>2021-08-18T09:29:00Z</time>
      </trkpt>
      <trkpt lat="44.51861" lon="2.77975">
        <ele>342.9</ele>
        <time>2021-08-18T09:29:02Z</time>
      </trkpt>
      <trkpt lat="44.51866" lon="2.77962">
        <ele>342.4</ele>
        <time>2021-08-18T09:29:04Z</time>
      </trkpt>
      <trkpt lat="44.5187" lon="2.77949">
        <ele>341.9</ele>
        <time>2021-08-18T09:29:06Z</time>
      </trkpt>
      <trkpt lat="44.51874" lon="2.77935">
        <ele>341.3</ele>
        <time>2021-08-18T09:29:08Z</time>
      </trkpt>
      <trkpt lat="44.51879" lon="2.77922">
        <ele>340.6</ele>
        <time>2021-08-18T09:29:10Z</time>
      </trkpt>
      <trkpt lat="44.51884" lon="2.7791">
        <ele>340</ele>
        <time>2021-08-18T09:29:12Z</time>
      </trkpt>
      <trkpt lat="44.51888" lon="2.77897">
        <ele>339.7</ele>
        <time>2021-08-18T09:29:14Z</time>
      </trkpt>
      <trkpt lat="44.51893" lon="2.77884">
        <ele>339.3</ele>
        <time>2021-08-18T09:29:16Z</time>
      </trkpt>
      <trkpt lat="44.51897" lon="2.77871">
        <ele>339.1</ele>
        <time>2021-08-18T09:29:18Z</time>
      </trkpt>
      <trkpt lat="44.51902" lon="2.77859">
        <ele>338.8</ele>
        <time>2021-08-18T09:29:20Z</time>
      </trkpt>
      <trkpt lat="44.51906" lon="2.77845">
        <ele>338.7</ele>
        <time>2021-08-18T09:29:22Z</time>
      </trkpt>
      <trkpt lat="44.5191" lon="2.77832">
        <ele>338.6</ele>
        <time>2021-08-18T09:29:24Z</time>
      </trkpt>
      <trkpt lat="44.51914" lon="2.77818">
        <ele>338.4</ele>
        <time>2021-08-18T09:29:26Z</time>
      </trkpt>
      <trkpt lat="44.51918" lon="2.77805">
        <ele>338.3</ele>
        <time>2021-08-18T09:29:28Z</time>
      </trkpt>
      <trkpt lat="44.51922" lon="2.77792">
        <ele>338.3</ele>
        <time>2021-08-18T09:29:30Z</time>
      </trkpt>
      <trkpt lat="44.51927" lon="2.77781">
        <ele>338.3</ele>
        <time>2021-08-18T09:29:32Z</time>
      </trkpt>
      <trkpt lat="44.51931" lon="2.77769">
        <ele>338.4</ele>
        <time>2021-08-18T09:29:34Z</time>
      </trkpt>
      <trkpt lat="44.51935" lon="2.77757">
        <ele>338.5</ele>
        <time>2021-08-18T09:29:36Z</time>
      </trkpt>
      <trkpt lat="44.51939" lon="2.77747">
        <ele>338.5</ele>
        <time>2021-08-18T09:29:38Z</time>
      </trkpt>
      <trkpt lat="44.51943" lon="2.77737">
        <ele>338.3</ele>
        <time>2021-08-18T09:29:40Z</time>
      </trkpt>
      <trkpt lat="44.51947" lon="2.77726">
        <ele>338.2</ele>
        <time>2021-08-18T09:29:42Z</time>
      </trkpt>
      <trkpt lat="44.51951" lon="2.77716">
        <ele>338.1</ele>
        <time>2021-08-18T09:29:44Z</time>
      </trkpt>
      <trkpt lat="44.51954" lon="2.77705">
        <ele>338</ele>
        <time>2021-08-18T09:29:46Z</time>
      </trkpt>
      <trkpt lat="44.51959" lon="2.77695">
        <ele>338</ele>
        <time>2021-08-18T09:29:48Z</time>
      </trkpt>
      <trkpt lat="44.51964" lon="2.77685">
        <ele>338</ele>
        <time>2021-08-18T09:29:50Z</time>
      </trkpt>
      <trkpt lat="44.51967" lon="2.77674">
        <ele>338</ele>
        <time>2021-08-18T09:29:52Z</time>
      </trkpt>
      <trkpt lat="44.51972" lon="2.77664">
        <ele>338</ele>
        <time>2021-08-18T09:29:54Z</time>
      </trkpt>
      <trkpt lat="44.51976" lon="2.77653">
        <ele>338</ele>
        <time>2021-08-18T09:29:56Z</time>
      </trkpt>
      <trkpt lat="44.5198" lon="2.77643">
        <ele>338</ele>
        <time>2021-08-18T09:29:58Z</time>
      </trkpt>
      <trkpt lat="44.51984" lon="2.77632">
        <ele>338</ele>
        <time>2021-08-18T09:30:00Z</time>
      </trkpt>
      <trkpt lat="44.51988" lon="2.77622">
        <ele>338</ele>
        <time>2021-08-18T09:30:02Z</time>
      </trkpt>
      <trkpt lat="44.51993" lon="2.77611">
        <ele>338</ele>
        <time>2021-08-18T09:30:04Z</time>
      </trkpt>
      <trkpt lat="44.51997" lon="2.77601">
        <ele>338</ele>
        <time>2021-08-18T09:30:06Z</time>
      </trkpt>
      <trkpt lat="44.52002" lon="2.77591">
        <ele>338</ele>
        <time>2021-08-18T09:30:08Z</time>
      </trkpt>
      <trkpt lat="44.52007" lon="2.77581">
        <ele>337.9</ele>
        <time>2021-08-18T09:30:10Z</time>
      </trkpt>
      <trkpt lat="44.52013" lon="2.77571">
        <ele>337.8</ele>
        <time>2021-08-18T09:30:12Z</time>
      </trkpt>
      <trkpt lat="44.52019" lon="2.7756">
        <ele>337.7</ele>
        <time>2021-08-18T09:30:14Z</time>
      </trkpt>
      <trkpt lat="44.52024" lon="2.77549">
        <ele>337.7</ele>
        <time>2021-08-18T09:30:16Z</time>
      </trkpt>
      <trkpt lat="44.5203" lon="2.77539">
        <ele>337.7</ele>
        <time>2021-08-18T09:30:18Z</time>
      </trkpt>
      <trkpt lat="44.52035" lon="2.77528">
        <ele>337.8</ele>
        <time>2021-08-18T09:30:20Z</time>
      </trkpt>
      <trkpt lat="44.52042" lon="2.77518">
        <ele>337.9</ele>
        <time>2021-08-18T09:30:22Z</time>
      </trkpt>
      <trkpt lat="44.52047" lon="2.77507">
        <ele>338.1</ele>
        <time>2021-08-18T09:30:24Z</time>
      </trkpt>
      <trkpt lat="44.52053" lon="2.77496">
        <ele>338.3</ele>
        <time>2021-08-18T09:30:26Z</time>
      </trkpt>
      <trkpt lat="44.52059" lon="2.77486">
        <ele>338.5</ele>
        <time>2021-08-18T09:30:28Z</time>
      </trkpt>
      <trkpt lat="44.52065" lon="2.77475">
        <ele>338.8</ele>
        <time>2021-08-18T09:30:30Z</time>
      </trkpt>
      <trkpt lat="44.52071" lon="2.77466">
        <ele>339</ele>
        <time>2021-08-18T09:30:32Z</time>
      </trkpt>
      <trkpt lat="44.52076" lon="2.77456">
        <ele>339.3</ele>
        <time>2021-08-18T09:30:34Z</time>
      </trkpt>
      <trkpt lat="44.52082" lon="2.77446">
        <ele>339.6</ele>
        <time>2021-08-18T09:30:36Z</time>
      </trkpt>
      <trkpt lat="44.52087" lon="2.77435">
        <ele>339.7</ele>
        <time>2021-08-18T09:30:38Z</time>
      </trkpt>
      <trkpt lat="44.52092" lon="2.77425">
        <ele>339.8</ele>
        <time>2021-08-18T09:30:40Z</time>
      </trkpt>
      <trkpt lat="44.52097" lon="2.77414">
        <ele>339.8</ele>
        <time>2021-08-18T09:30:42Z</time>
      </trkpt>
      <trkpt lat="44.52102" lon="2.77403">
        <ele>339.8</ele>
        <time>2021-08-18T09:30:44Z</time>
      </trkpt>
      <trkpt lat="44.52105" lon="2.77392">
        <ele>339.8</ele>
        <time>2021-08-18T09:30:46Z</time>
      </trkpt>
      <trkpt lat="44.52109" lon="2.77381">
        <ele>339.8</ele>
        <time>2021-08-18T09:30:48Z</time>
      </trkpt>
      <trkpt lat="44.52112" lon="2.7737">
        <ele>339.8</ele>
        <time>2021-08-18T09:30:50Z</time>
      </trkpt>
      <trkpt lat="44.52115" lon="2.7736">
        <ele>339.9</ele>
        <time>2021-08-18T09:30:52Z</time>
      </trkpt>
      <trkpt lat="44.52118" lon="2.77351">
        <ele>339.9</ele>
        <time>2021-08-18T09:30:54Z</time>
      </trkpt>
      <trkpt lat="44.52121" lon="2.77345">
        <ele>339.9</ele>
        <time>2021-08-18T09:30:56Z</time>
      </trkpt>
      <trkpt lat="44.52123" lon="2.77336">
        <ele>340</ele>
        <time>2021-08-18T09:30:58Z</time>
      </trkpt>
      <trkpt lat="44.52124" lon="2.77329">
        <ele>339.8</ele>
        <time>2021-08-18T09:31:00Z</time>
      </trkpt>
      <trkpt lat="44.52124" lon="2.77322">
        <ele>339.5</ele>
        <time>2021-08-18T09:31:02Z</time>
      </trkpt>
      <trkpt lat="44.52123" lon="2.77315">
        <ele>339.3</ele>
        <time>2021-08-18T09:31:04Z</time>
      </trkpt>
      <trkpt lat="44.52125" lon="2.77311">
        <ele>339.1</ele>
        <time>2021-08-18T09:31:06Z</time>
      </trkpt>
      <trkpt lat="44.52128" lon="2.77309">
        <ele>339</ele>
        <time>2021-08-18T09:31:08Z</time>
      </trkpt>
      <trkpt lat="44.52132" lon="2.7731">
        <ele>339</ele>
        <time>2021-08-18T09:31:10Z</time>
      </trkpt>
      <trkpt lat="44.52135" lon="2.77313">
        <ele>339.1</ele>
        <time>2021-08-18T09:31:12Z</time>
      </trkpt>
      <trkpt lat="44.52137" lon="2.77316">
        <ele>339.2</ele>
        <time>2021-08-18T09:31:14Z</time>
      </trkpt>
      <trkpt lat="44.52139" lon="2.77318">
        <ele>339.3</ele>
        <time>2021-08-18T09:31:16Z</time>
      </trkpt>
      <trkpt lat="44.52142" lon="2.77318">
        <ele>339.3</ele>
        <time>2021-08-18T09:31:18Z</time>
      </trkpt>
      <trkpt lat="44.52144" lon="2.77318">
        <ele>339.3</ele>
        <time>2021-08-18T09:31:20Z</time>
      </trkpt>
      <trkpt lat="44.52148" lon="2.77316">
        <ele>339.2</ele>
        <time>2021-08-18T09:31:22Z</time>
      </trkpt>
      <trkpt lat="44.52154" lon="2.77313">
        <ele>339.1</ele>
        <time>2021-08-18T09:31:24Z</time>
      </trkpt>
      <trkpt lat="44.52159" lon="2.77312">
        <ele>339</ele>
        <time>2021-08-18T09:31:26Z</time>
      </trkpt>
      <trkpt lat="44.52166" lon="2.7731">
        <ele>338.9</ele>
        <time>2021-08-18T09:31:28Z</time>
      </trkpt>
      <trkpt lat="44.52173" lon="2.77309">
        <ele>338.9</ele>
        <time>2021-08-18T09:31:30Z</time>
      </trkpt>
      <trkpt lat="44.5218" lon="2.77306">
        <ele>338.7</ele>
        <time>2021-08-18T09:31:32Z</time>
      </trkpt>
      <trkpt lat="44.52188" lon="2.77304">
        <ele>338.7</ele>
        <time>2021-08-18T09:31:34Z</time>
      </trkpt>
      <trkpt lat="44.52194" lon="2.77297">
        <ele>338.5</ele>
        <time>2021-08-18T09:31:36Z</time>
      </trkpt>
      <trkpt lat="44.52199" lon="2.77288">
        <ele>338.3</ele>
        <time>2021-08-18T09:31:38Z</time>
      </trkpt>
      <trkpt lat="44.52205" lon="2.77281">
        <ele>338.2</ele>
        <time>2021-08-18T09:31:40Z</time>
      </trkpt>
      <trkpt lat="44.5221" lon="2.77275">
        <ele>338.1</ele>
        <time>2021-08-18T09:31:42Z</time>
      </trkpt>
      <trkpt lat="44.52214" lon="2.77267">
        <ele>338.1</ele>
        <time>2021-08-18T09:31:44Z</time>
      </trkpt>
      <trkpt lat="44.5222" lon="2.77259">
        <ele>338.1</ele>
        <time>2021-08-18T09:31:46Z</time>
      </trkpt>
      <trkpt lat="44.52226" lon="2.77251">
        <ele>338.2</ele>
        <time>2021-08-18T09:31:48Z</time>
      </trkpt>
      <trkpt lat="44.52231" lon="2.77244">
        <ele>338.3</ele>
        <time>2021-08-18T09:31:50Z</time>
      </trkpt>
      <trkpt lat="44.52237" lon="2.77237">
        <ele>338.5</ele>
        <time>2021-08-18T09:31:52Z</time>
      </trkpt>
      <trkpt lat="44.52242" lon="2.77231">
        <ele>338.7</ele>
        <time>2021-08-18T09:31:54Z</time>
      </trkpt>
      <trkpt lat="44.52248" lon="2.77224">
        <ele>338.9</ele>
        <time>2021-08-18T09:31:56Z</time>
      </trkpt>
      <trkpt lat="44.52252" lon="2.77215">
        <ele>339.2</ele>
        <time>2021-08-18T09:31:58Z</time>
      </trkpt>
      <trkpt lat="44.52257" lon="2.77206">
        <ele>339.6</ele>
        <time>2021-08-18T09:32:00Z</time>
      </trkpt>
      <trkpt lat="44.52263" lon="2.77196">
        <ele>339.9</ele>
        <time>2021-08-18T09:32:02Z</time>
      </trkpt>
      <trkpt lat="44.52266" lon="2.77185">
        <ele>340</ele>
        <time>2021-08-18T09:32:04Z</time>
      </trkpt>
      <trkpt lat="44.5227" lon="2.77174">
        <ele>340.1</ele>
        <time>2021-08-18T09:32:06Z</time>
      </trkpt>
      <trkpt lat="44.52273" lon="2.77162">
        <ele>340.1</ele>
        <time>2021-08-18T09:32:08Z</time>
      </trkpt>
      <trkpt lat="44.52276" lon="2.77152">
        <ele>340.3</ele>
        <time>2021-08-18T09:32:10Z</time>
      </trkpt>
      <trkpt lat="44.52278" lon="2.77141">
        <ele>340.5</ele>
        <time>2021-08-18T09:32:12Z</time>
      </trkpt>
      <trkpt lat="44.52281" lon="2.77131">
        <ele>340.6</ele>
        <time>2021-08-18T09:32:14Z</time>
      </trkpt>
      <trkpt lat="44.52284" lon="2.77121">
        <ele>340.7</ele>
        <time>2021-08-18T09:32:16Z</time>
      </trkpt>
      <trkpt lat="44.52285" lon="2.7711">
        <ele>340.8</ele>
        <time>2021-08-18T09:32:18Z</time>
      </trkpt>
      <trkpt lat="44.52285" lon="2.771">
        <ele>340.8</ele>
        <time>2021-08-18T09:32:20Z</time>
      </trkpt>
      <trkpt lat="44.52283" lon="2.7709">
        <ele>340.8</ele>
        <time>2021-08-18T09:32:22Z</time>
      </trkpt>
      <trkpt lat="44.52281" lon="2.77081">
        <ele>340.7</ele>
        <time>2021-08-18T09:32:24Z</time>
      </trkpt>
      <trkpt lat="44.52278" lon="2.77072">
        <ele>340.2</ele>
        <time>2021-08-18T09:32:26Z</time>
      </trkpt>
      <trkpt lat="44.52276" lon="2.77062">
        <ele>339.8</ele>
        <time>2021-08-18T09:32:28Z</time>
      </trkpt>
      <trkpt lat="44.52273" lon="2.77052">
        <ele>339.3</ele>
        <time>2021-08-18T09:32:30Z</time>
      </trkpt>
      <trkpt lat="44.5227" lon="2.77043">
        <ele>338.8</ele>
        <time>2021-08-18T09:32:32Z</time>
      </trkpt>
      <trkpt lat="44.52269" lon="2.77031">
        <ele>338.2</ele>
        <time>2021-08-18T09:32:34Z</time>
      </trkpt>
      <trkpt lat="44.52268" lon="2.7702">
        <ele>337.7</ele>
        <time>2021-08-18T09:32:36Z</time>
      </trkpt>
      <trkpt lat="44.52269" lon="2.77009">
        <ele>337.3</ele>
        <time>2021-08-18T09:32:38Z</time>
      </trkpt>
      <trkpt lat="44.52269" lon="2.76997">
        <ele>336.9</ele>
        <time>2021-08-18T09:32:40Z</time>
      </trkpt>
      <trkpt lat="44.52267" lon="2.76986">
        <ele>336.9</ele>
        <time>2021-08-18T09:32:42Z</time>
      </trkpt>
      <trkpt lat="44.52265" lon="2.76975">
        <ele>336.9</ele>
        <time>2021-08-18T09:32:44Z</time>
      </trkpt>
      <trkpt lat="44.52262" lon="2.76963">
        <ele>336.9</ele>
        <time>2021-08-18T09:32:46Z</time>
      </trkpt>
      <trkpt lat="44.52259" lon="2.76953">
        <ele>336.9</ele>
        <time>2021-08-18T09:32:48Z</time>
      </trkpt>
      <trkpt lat="44.52256" lon="2.76942">
        <ele>336.9</ele>
        <time>2021-08-18T09:32:50Z</time>
      </trkpt>
      <trkpt lat="44.52255" lon="2.76932">
        <ele>337</ele>
        <time>2021-08-18T09:32:52Z</time>
      </trkpt>
      <trkpt lat="44.52252" lon="2.76922">
        <ele>337</ele>
        <time>2021-08-18T09:32:54Z</time>
      </trkpt>
      <trkpt lat="44.52249" lon="2.76911">
        <ele>337.1</ele>
        <time>2021-08-18T09:32:56Z</time>
      </trkpt>
      <trkpt lat="44.52246" lon="2.769">
        <ele>337.3</ele>
        <time>2021-08-18T09:32:58Z</time>
      </trkpt>
      <trkpt lat="44.52243" lon="2.7689">
        <ele>337.6</ele>
        <time>2021-08-18T09:33:00Z</time>
      </trkpt>
      <trkpt lat="44.52239" lon="2.76879">
        <ele>337.9</ele>
        <time>2021-08-18T09:33:02Z</time>
      </trkpt>
      <trkpt lat="44.52237" lon="2.76869">
        <ele>338.2</ele>
        <time>2021-08-18T09:33:04Z</time>
      </trkpt>
      <trkpt lat="44.52233" lon="2.76858">
        <ele>338.5</ele>
        <time>2021-08-18T09:33:06Z</time>
      </trkpt>
      <trkpt lat="44.52229" lon="2.76848">
        <ele>338.9</ele>
        <time>2021-08-18T09:33:08Z</time>
      </trkpt>
      <trkpt lat="44.52226" lon="2.76839">
        <ele>339.3</ele>
        <time>2021-08-18T09:33:10Z</time>
      </trkpt>
      <trkpt lat="44.52222" lon="2.76828">
        <ele>339.8</ele>
        <time>2021-08-18T09:33:12Z</time>
      </trkpt>
      <trkpt lat="44.52218" lon="2.76818">
        <ele>340.1</ele>
        <time>2021-08-18T09:33:14Z</time>
      </trkpt>
      <trkpt lat="44.52213" lon="2.7681">
        <ele>340.6</ele>
        <time>2021-08-18T09:33:16Z</time>
      </trkpt>
      <trkpt lat="44.52208" lon="2.76802">
        <ele>341.1</ele>
        <time>2021-08-18T09:33:18Z</time>
      </trkpt>
      <trkpt lat="44.52201" lon="2.76794">
        <ele>341.7</ele>
        <time>2021-08-18T09:33:20Z</time>
      </trkpt>
      <trkpt lat="44.52197" lon="2.76785">
        <ele>342.1</ele>
        <time>2021-08-18T09:33:22Z</time>
      </trkpt>
      <trkpt lat="44.52193" lon="2.76778">
        <ele>342.6</ele>
        <time>2021-08-18T09:33:24Z</time>
      </trkpt>
      <trkpt lat="44.5219" lon="2.76775">
        <ele>342.8</ele>
        <time>2021-08-18T09:33:26Z</time>
      </trkpt>
      <trkpt lat="44.52191" lon="2.76775">
        <ele>342.7</ele>
        <time>2021-08-18T09:33:28Z</time>
      </trkpt>
      <trkpt lat="44.52191" lon="2.76775">
        <ele>342.8</ele>
        <time>2021-08-18T09:33:30Z</time>
      </trkpt>
      <trkpt lat="44.5219" lon="2.76775">
        <ele>342.8</ele>
        <time>2021-08-18T09:33:32Z</time>
      </trkpt>
      <trkpt lat="44.5219" lon="2.76775">
        <ele>342.8</ele>
        <time>2021-08-18T09:33:34Z</time>
      </trkpt>
      <trkpt lat="44.52183" lon="2.76765">
        <ele>343.5</ele>
        <time>2021-08-18T09:40:52Z</time>
      </trkpt>
      <trkpt lat="44.5218" lon="2.76762">
        <ele>343.8</ele>
        <time>2021-08-18T09:40:54Z</time>
      </trkpt>
      <trkpt lat="44.52177" lon="2.76765">
        <ele>343.9</ele>
        <time>2021-08-18T09:40:56Z</time>
      </trkpt>
      <trkpt lat="44.52176" lon="2.7677">
        <ele>343.9</ele>
        <time>2021-08-18T09:40:58Z</time>
      </trkpt>
      <trkpt lat="44.52178" lon="2.76776">
        <ele>343.6</ele>
        <time>2021-08-18T09:41:00Z</time>
      </trkpt>
      <trkpt lat="44.5218" lon="2.76782">
        <ele>343.3</ele>
        <time>2021-08-18T09:41:02Z</time>
      </trkpt>
      <trkpt lat="44.52183" lon="2.76787">
        <ele>343</ele>
        <time>2021-08-18T09:41:04Z</time>
      </trkpt>
      <trkpt lat="44.52186" lon="2.76793">
        <ele>342.7</ele>
        <time>2021-08-18T09:41:06Z</time>
      </trkpt>
      <trkpt lat="44.52189" lon="2.76795">
        <ele>342.4</ele>
        <time>2021-08-18T09:41:08Z</time>
      </trkpt>
      <trkpt lat="44.52194" lon="2.76798">
        <ele>342.1</ele>
        <time>2021-08-18T09:41:10Z</time>
      </trkpt>
      <trkpt lat="44.52198" lon="2.768">
        <ele>341.8</ele>
        <time>2021-08-18T09:41:12Z</time>
      </trkpt>
      <trkpt lat="44.52202" lon="2.76803">
        <ele>341.4</ele>
        <time>2021-08-18T09:41:14Z</time>
      </trkpt>
      <trkpt lat="44.52205" lon="2.76806">
        <ele>341.2</ele>
        <time>2021-08-18T09:41:16Z</time>
      </trkpt>
      <trkpt lat="44.52208" lon="2.76808">
        <ele>341</ele>
        <time>2021-08-18T09:41:18Z</time>
      </trkpt>
      <trkpt lat="44.5221" lon="2.76808">
        <ele>340.9</ele>
        <time>2021-08-18T09:41:20Z</time>
      </trkpt>
      <trkpt lat="44.52212" lon="2.76806">
        <ele>340.7</ele>
        <time>2021-08-18T09:41:22Z</time>
      </trkpt>
      <trkpt lat="44.52212" lon="2.76804">
        <ele>340.8</ele>
        <time>2021-08-18T09:41:24Z</time>
      </trkpt>
      <trkpt lat="44.52211" lon="2.76804">
        <ele>340.9</ele>
        <time>2021-08-18T09:41:26Z</time>
      </trkpt>
      <trkpt lat="44.5221" lon="2.76804">
        <ele>340.9</ele>
        <time>2021-08-18T09:41:28Z</time>
      </trkpt>
      <trkpt lat="44.5221" lon="2.76804">
        <ele>340.9</ele>
        <time>2021-08-18T09:41:30Z</time>
      </trkpt>
      <trkpt lat="44.52199" lon="2.76789">
        <ele>341.9</ele>
        <time>2021-08-18T09:42:02Z</time>
      </trkpt>
      <trkpt lat="44.52196" lon="2.76784">
        <ele>342.2</ele>
        <time>2021-08-18T09:42:04Z</time>
      </trkpt>
      <trkpt lat="44.52193" lon="2.76779">
        <ele>342.5</ele>
        <time>2021-08-18T09:42:06Z</time>
      </trkpt>
      <trkpt lat="44.5219" lon="2.76774">
        <ele>342.8</ele>
        <time>2021-08-18T09:42:08Z</time>
      </trkpt>
      <trkpt lat="44.52186" lon="2.76769">
        <ele>343.2</ele>
        <time>2021-08-18T09:42:10Z</time>
      </trkpt>
      <trkpt lat="44.52183" lon="2.76764">
        <ele>343.5</ele>
        <time>2021-08-18T09:42:12Z</time>
      </trkpt>
      <trkpt lat="44.52179" lon="2.7676">
        <ele>343.9</ele>
        <time>2021-08-18T09:42:14Z</time>
      </trkpt>
      <trkpt lat="44.52176" lon="2.76759">
        <ele>344.1</ele>
        <time>2021-08-18T09:42:16Z</time>
      </trkpt>
      <trkpt lat="44.52173" lon="2.76762">
        <ele>344.3</ele>
        <time>2021-08-18T09:42:18Z</time>
      </trkpt>
      <trkpt lat="44.52174" lon="2.76767">
        <ele>344.1</ele>
        <time>2021-08-18T09:42:20Z</time>
      </trkpt>
      <trkpt lat="44.52178" lon="2.76772">
        <ele>343.7</ele>
        <time>2021-08-18T09:42:22Z</time>
      </trkpt>
      <trkpt lat="44.52182" lon="2.76779">
        <ele>343.3</ele>
        <time>2021-08-18T09:42:24Z</time>
      </trkpt>
      <trkpt lat="44.52185" lon="2.76781">
        <ele>343</ele>
        <time>2021-08-18T09:42:26Z</time>
      </trkpt>
      <trkpt lat="44.5219" lon="2.76784">
        <ele>342.6</ele>
        <time>2021-08-18T09:42:28Z</time>
      </trkpt>
      <trkpt lat="44.52194" lon="2.76788">
        <ele>342.3</ele>
        <time>2021-08-18T09:42:30Z</time>
      </trkpt>
      <trkpt lat="44.52196" lon="2.76791">
        <ele>342</ele>
        <time>2021-08-18T09:42:32Z</time>
      </trkpt>
      <trkpt lat="44.52197" lon="2.76792">
        <ele>342</ele>
        <time>2021-08-18T09:42:34Z</time>
      </trkpt>
      <trkpt lat="44.52197" lon="2.76792">
        <ele>342</ele>
        <time>2021-08-18T09:42:36Z</time>
      </trkpt>
      <trkpt lat="44.52197" lon="2.76792">
        <ele>342</ele>
        <time>2021-08-18T09:42:38Z</time>
      </trkpt>
      <trkpt lat="44.52197" lon="2.76792">
        <ele>342</ele>
        <time>2021-08-18T09:42:40Z</time>
      </trkpt>
      <trkpt lat="44.52197" lon="2.76792">
        <ele>342</ele>
        <time>2021-08-18T09:42:42Z</time>
      </trkpt>
      <trkpt lat="44.52184" lon="2.76767">
        <ele>343.4</ele>
        <time>2021-08-18T09:45:02Z</time>
      </trkpt>
      <trkpt lat="44.52182" lon="2.76764">
        <ele>343.6</ele>
        <time>2021-08-18T09:45:04Z</time>
      </trkpt>
      <trkpt lat="44.52179" lon="2.76761">
        <ele>343.9</ele>
        <time>2021-08-18T09:45:06Z</time>
      </trkpt>
      <trkpt lat="44.52176" lon="2.76757">
        <ele>344.2</ele>
        <time>2021-08-18T09:45:08Z</time>
      </trkpt>
      <trkpt lat="44.52175" lon="2.76753">
        <ele>344.3</ele>
        <time>2021-08-18T09:45:10Z</time>
      </trkpt>
      <trkpt lat="44.52174" lon="2.76748">
        <ele>344.4</ele>
        <time>2021-08-18T09:45:12Z</time>
      </trkpt>
      <trkpt lat="44.52172" lon="2.76742">
        <ele>344.1</ele>
        <time>2021-08-18T09:45:14Z</time>
      </trkpt>
      <trkpt lat="44.5217" lon="2.76735">
        <ele>343.9</ele>
        <time>2021-08-18T09:45:16Z</time>
      </trkpt>
      <trkpt lat="44.52168" lon="2.76728">
        <ele>343.6</ele>
        <time>2021-08-18T09:45:18Z</time>
      </trkpt>
      <trkpt lat="44.52167" lon="2.76723">
        <ele>343.3</ele>
        <time>2021-08-18T09:45:20Z</time>
      </trkpt>
      <trkpt lat="44.52165" lon="2.76713">
        <ele>342.7</ele>
        <time>2021-08-18T09:45:22Z</time>
      </trkpt>
      <trkpt lat="44.52163" lon="2.76706">
        <ele>342.1</ele>
        <time>2021-08-18T09:45:24Z</time>
      </trkpt>
      <trkpt lat="44.52161" lon="2.76697">
        <ele>341.5</ele>
        <time>2021-08-18T09:45:26Z</time>
      </trkpt>
      <trkpt lat="44.52157" lon="2.76687">
        <ele>340.8</ele>
        <time>2021-08-18T09:45:28Z</time>
      </trkpt>
      <trkpt lat="44.52155" lon="2.76679">
        <ele>340.2</ele>
        <time>2021-08-18T09:45:30Z</time>
      </trkpt>
      <trkpt lat="44.52155" lon="2.76672">
        <ele>339.8</ele>
        <time>2021-08-18T09:45:32Z</time>
      </trkpt>
      <trkpt lat="44.52152" lon="2.76663">
        <ele>339.4</ele>
        <time>2021-08-18T09:45:34Z</time>
      </trkpt>
      <trkpt lat="44.5215" lon="2.76653">
        <ele>339.1</ele>
        <time>2021-08-18T09:45:36Z</time>
      </trkpt>
      <trkpt lat="44.52148" lon="2.76645">
        <ele>338.8</ele>
        <time>2021-08-18T09:45:38Z</time>
      </trkpt>
      <trkpt lat="44.52145" lon="2.76636">
        <ele>338.6</ele>
        <time>2021-08-18T09:45:40Z</time>
      </trkpt>
      <trkpt lat="44.52143" lon="2.76627">
        <ele>338.4</ele>
        <time>2021-08-18T09:45:42Z</time>
      </trkpt>
      <trkpt lat="44.52141" lon="2.76618">
        <ele>338.2</ele>
        <time>2021-08-18T09:45:44Z</time>
      </trkpt>
      <trkpt lat="44.52138" lon="2.7661">
        <ele>338.1</ele>
        <time>2021-08-18T09:45:46Z</time>
      </trkpt>
      <trkpt lat="44.52137" lon="2.76601">
        <ele>338</ele>
        <time>2021-08-18T09:45:48Z</time>
      </trkpt>
      <trkpt lat="44.52135" lon="2.76592">
        <ele>337.9</ele>
        <time>2021-08-18T09:45:50Z</time>
      </trkpt>
      <trkpt lat="44.52133" lon="2.76583">
        <ele>337.8</ele>
        <time>2021-08-18T09:45:52Z</time>
      </trkpt>
      <trkpt lat="44.52131" lon="2.76576">
        <ele>337.9</ele>
        <time>2021-08-18T09:45:54Z</time>
      </trkpt>
      <trkpt lat="44.52129" lon="2.76567">
        <ele>338</ele>
        <time>2021-08-18T09:45:56Z</time>
      </trkpt>
      <trkpt lat="44.52127" lon="2.76561">
        <ele>338.1</ele>
        <time>2021-08-18T09:45:58Z</time>
      </trkpt>
      <trkpt lat="44.52126" lon="2.76554">
        <ele>338.1</ele>
        <time>2021-08-18T09:46:00Z</time>
      </trkpt>
      <trkpt lat="44.52125" lon="2.7655">
        <ele>338.2</ele>
        <time>2021-08-18T09:46:02Z</time>
      </trkpt>
      <trkpt lat="44.52124" lon="2.76545">
        <ele>338.3</ele>
        <time>2021-08-18T09:46:04Z</time>
      </trkpt>
      <trkpt lat="44.52124" lon="2.76543">
        <ele>338.3</ele>
        <time>2021-08-18T09:46:06Z</time>
      </trkpt>
      <trkpt lat="44.52124" lon="2.76543">
        <ele>338.3</ele>
        <time>2021-08-18T09:46:08Z</time>
      </trkpt>
      <trkpt lat="44.52124" lon="2.76543">
        <ele>338.3</ele>
        <time>2021-08-18T09:46:10Z</time>
      </trkpt>
      <trkpt lat="44.52124" lon="2.76543">
        <ele>338.3</ele>
        <time>2021-08-18T09:46:12Z</time>
      </trkpt>
      <trkpt lat="44.52124" lon="2.76542">
        <ele>338.3</ele>
        <time>2021-08-18T09:46:14Z</time>
      </trkpt>
      <trkpt lat="44.52118" lon="2.76514">
        <ele>338.8</ele>
        <time>2021-08-18T09:48:20Z</time>
      </trkpt>
      <trkpt lat="44.52118" lon="2.76507">
        <ele>338.9</ele>
        <time>2021-08-18T09:48:22Z</time>
      </trkpt>
      <trkpt lat="44.52119" lon="2.765">
        <ele>338.9</ele>
        <time>2021-08-18T09:48:24Z</time>
      </trkpt>
      <trkpt lat="44.52117" lon="2.76493">
        <ele>339.3</ele>
        <time>2021-08-18T09:48:26Z</time>
      </trkpt>
      <trkpt lat="44.52117" lon="2.76486">
        <ele>339.7</ele>
        <time>2021-08-18T09:48:28Z</time>
      </trkpt>
      <trkpt lat="44.52116" lon="2.7648">
        <ele>340</ele>
        <time>2021-08-18T09:48:30Z</time>
      </trkpt>
      <trkpt lat="44.52115" lon="2.76475">
        <ele>340.3</ele>
        <time>2021-08-18T09:48:32Z</time>
      </trkpt>
      <trkpt lat="44.52115" lon="2.7647">
        <ele>340.6</ele>
        <time>2021-08-18T09:48:34Z</time>
      </trkpt>
      <trkpt lat="44.52116" lon="2.76465">
        <ele>340.8</ele>
        <time>2021-08-18T09:48:36Z</time>
      </trkpt>
      <trkpt lat="44.52114" lon="2.76461">
        <ele>341.1</ele>
        <time>2021-08-18T09:48:38Z</time>
      </trkpt>
      <trkpt lat="44.52112" lon="2.7646">
        <ele>341.2</ele>
        <time>2021-08-18T09:48:40Z</time>
      </trkpt>
      <trkpt lat="44.52112" lon="2.7646">
        <ele>341.2</ele>
        <time>2021-08-18T09:48:42Z</time>
      </trkpt>
      <trkpt lat="44.52112" lon="2.76459">
        <ele>341.3</ele>
        <time>2021-08-18T09:48:44Z</time>
      </trkpt>
      <trkpt lat="44.52112" lon="2.76459">
        <ele>341.3</ele>
        <time>2021-08-18T09:48:46Z</time>
      </trkpt>
      <trkpt lat="44.52112" lon="2.76459">
        <ele>341.3</ele>
        <time>2021-08-18T09:48:48Z</time>
      </trkpt>
      <trkpt lat="44.52107" lon="2.7645">
        <ele>341.9</ele>
        <time>2021-08-18T09:49:26Z</time>
      </trkpt>
      <trkpt lat="44.52107" lon="2.7645">
        <ele>341.9</ele>
        <time>2021-08-18T09:49:28Z</time>
      </trkpt>
      <trkpt lat="44.52108" lon="2.76448">
        <ele>342</ele>
        <time>2021-08-18T09:49:30Z</time>
      </trkpt>
      <trkpt lat="44.52109" lon="2.76444">
        <ele>342.1</ele>
        <time>2021-08-18T09:49:32Z</time>
      </trkpt>
      <trkpt lat="44.52113" lon="2.76439">
        <ele>342.2</ele>
        <time>2021-08-18T09:49:34Z</time>
      </trkpt>
      <trkpt lat="44.52115" lon="2.76433">
        <ele>342.5</ele>
        <time>2021-08-18T09:49:36Z</time>
      </trkpt>
      <trkpt lat="44.52116" lon="2.76428">
        <ele>342.7</ele>
        <time>2021-08-18T09:49:38Z</time>
      </trkpt>
      <trkpt lat="44.52115" lon="2.76423">
        <ele>342.9</ele>
        <time>2021-08-18T09:49:40Z</time>
      </trkpt>
      <trkpt lat="44.52116" lon="2.76419">
        <ele>343.1</ele>
        <time>2021-08-18T09:49:42Z</time>
      </trkpt>
      <trkpt lat="44.52117" lon="2.76415">
        <ele>343.3</ele>
        <time>2021-08-18T09:49:44Z</time>
      </trkpt>
      <trkpt lat="44.52118" lon="2.76412">
        <ele>343.4</ele>
        <time>2021-08-18T09:49:46Z</time>
      </trkpt>
      <trkpt lat="44.52119" lon="2.7641">
        <ele>343.4</ele>
        <time>2021-08-18T09:49:48Z</time>
      </trkpt>
      <trkpt lat="44.52119" lon="2.7641">
        <ele>343.4</ele>
        <time>2021-08-18T09:49:50Z</time>
      </trkpt>
      <trkpt lat="44.52119" lon="2.7641">
        <ele>343.4</ele>
        <time>2021-08-18T09:49:52Z</time>
      </trkpt>
      <trkpt lat="44.52119" lon="2.76409">
        <ele>343.4</ele>
        <time>2021-08-18T09:49:54Z</time>
      </trkpt>
      <trkpt lat="44.52127" lon="2.76401">
        <ele>343.6</ele>
        <time>2021-08-18T09:50:12Z</time>
      </trkpt>
      <trkpt lat="44.52129" lon="2.76395">
        <ele>343.8</ele>
        <time>2021-08-18T09:50:14Z</time>
      </trkpt>
      <trkpt lat="44.52132" lon="2.7639">
        <ele>344</ele>
        <time>2021-08-18T09:50:16Z</time>
      </trkpt>
      <trkpt lat="44.52135" lon="2.76386">
        <ele>344.1</ele>
        <time>2021-08-18T09:50:18Z</time>
      </trkpt>
      <trkpt lat="44.52136" lon="2.76382">
        <ele>344.2</ele>
        <time>2021-08-18T09:50:20Z</time>
      </trkpt>
      <trkpt lat="44.52138" lon="2.76379">
        <ele>344.3</ele>
        <time>2021-08-18T09:50:22Z</time>
      </trkpt>
      <trkpt lat="44.52139" lon="2.76377">
        <ele>344.4</ele>
        <time>2021-08-18T09:50:24Z</time>
      </trkpt>
      <trkpt lat="44.52142" lon="2.76375">
        <ele>344.5</ele>
        <time>2021-08-18T09:50:26Z</time>
      </trkpt>
      <trkpt lat="44.52142" lon="2.76371">
        <ele>344.6</ele>
        <time>2021-08-18T09:50:28Z</time>
      </trkpt>
      <trkpt lat="44.52145" lon="2.7637">
        <ele>344.6</ele>
        <time>2021-08-18T09:50:30Z</time>
      </trkpt>
      <trkpt lat="44.52146" lon="2.76372">
        <ele>344.5</ele>
        <time>2021-08-18T09:50:32Z</time>
      </trkpt>
      <trkpt lat="44.52146" lon="2.76371">
        <ele>344.5</ele>
        <time>2021-08-18T09:50:34Z</time>
      </trkpt>
      <trkpt lat="44.5215" lon="2.76372">
        <ele>344.4</ele>
        <time>2021-08-18T09:50:36Z</time>
      </trkpt>
      <trkpt lat="44.52153" lon="2.7637">
        <ele>344.5</ele>
        <time>2021-08-18T09:50:38Z</time>
      </trkpt>
      <trkpt lat="44.52155" lon="2.76368">
        <ele>344.5</ele>
        <time>2021-08-18T09:50:40Z</time>
      </trkpt>
      <trkpt lat="44.52157" lon="2.76364">
        <ele>344.7</ele>
        <time>2021-08-18T09:50:42Z</time>
      </trkpt>
      <trkpt lat="44.52161" lon="2.76361">
        <ele>344.7</ele>
        <time>2021-08-18T09:50:44Z</time>
      </trkpt>
      <trkpt lat="44.52165" lon="2.76359">
        <ele>344.8</ele>
        <time>2021-08-18T09:50:46Z</time>
      </trkpt>
      <trkpt lat="44.52168" lon="2.76355">
        <ele>344.9</ele>
        <time>2021-08-18T09:50:48Z</time>
      </trkpt>
      <trkpt lat="44.52169" lon="2.76354">
        <ele>344.9</ele>
        <time>2021-08-18T09:50:50Z</time>
      </trkpt>
      <trkpt lat="44.52171" lon="2.7635">
        <ele>345</ele>
        <time>2021-08-18T09:50:52Z</time>
      </trkpt>
      <trkpt lat="44.52177" lon="2.76349">
        <ele>344.7</ele>
        <time>2021-08-18T09:50:54Z</time>
      </trkpt>
      <trkpt lat="44.5218" lon="2.76347">
        <ele>344.7</ele>
        <time>2021-08-18T09:50:56Z</time>
      </trkpt>
      <trkpt lat="44.52184" lon="2.76344">
        <ele>344.5</ele>
        <time>2021-08-18T09:50:58Z</time>
      </trkpt>
      <trkpt lat="44.52187" lon="2.76341">
        <ele>344.5</ele>
        <time>2021-08-18T09:51:00Z</time>
      </trkpt>
      <trkpt lat="44.52189" lon="2.76339">
        <ele>344.4</ele>
        <time>2021-08-18T09:51:02Z</time>
      </trkpt>
      <trkpt lat="44.52192" lon="2.76337">
        <ele>344.4</ele>
        <time>2021-08-18T09:51:04Z</time>
      </trkpt>
      <trkpt lat="44.52194" lon="2.76334">
        <ele>344.3</ele>
        <time>2021-08-18T09:51:06Z</time>
      </trkpt>
      <trkpt lat="44.52195" lon="2.76333">
        <ele>344.3</ele>
        <time>2021-08-18T09:51:08Z</time>
      </trkpt>
      <trkpt lat="44.52194" lon="2.76333">
        <ele>344.3</ele>
        <time>2021-08-18T09:51:10Z</time>
      </trkpt>
      <trkpt lat="44.52196" lon="2.76331">
        <ele>344.3</ele>
        <time>2021-08-18T09:51:12Z</time>
      </trkpt>
      <trkpt lat="44.52196" lon="2.76331">
        <ele>344.3</ele>
        <time>2021-08-18T09:51:14Z</time>
      </trkpt>
    </trkseg>
      <trkpt lat="44.52205" lon="2.76321">
        <ele>343.7</ele>
        <time>2021-08-18T10:43:44Z</time>
      </trkpt>
      <trkpt lat="44.52208" lon="2.76323">
        <ele>343.5</ele>
        <time>2021-08-18T10:43:46Z</time>
      </trkpt>
      <trkpt lat="44.52213" lon="2.76329">
        <ele>343.2</ele>
        <time>2021-08-18T10:43:48Z</time>
      </trkpt>
      <trkpt lat="44.52218" lon="2.7633">
        <ele>342.9</ele>
        <time>2021-08-18T10:43:50Z</time>
      </trkpt>
      <trkpt lat="44.52222" lon="2.76329">
        <ele>342.6</ele>
        <time>2021-08-18T10:43:52Z</time>
      </trkpt>
      <trkpt lat="44.52225" lon="2.76327">
        <ele>342.4</ele>
        <time>2021-08-18T10:43:54Z</time>
      </trkpt>
      <trkpt lat="44.52228" lon="2.76323">
        <ele>342.2</ele>
        <time>2021-08-18T10:43:56Z</time>
      </trkpt>
      <trkpt lat="44.52231" lon="2.76317">
        <ele>342</ele>
        <time>2021-08-18T10:43:58Z</time>
      </trkpt>
      <trkpt lat="44.52232" lon="2.76312">
        <ele>341.9</ele>
        <time>2021-08-18T10:44:00Z</time>
      </trkpt>
      <trkpt lat="44.52232" lon="2.76306">
        <ele>341.8</ele>
        <time>2021-08-18T10:44:02Z</time>
      </trkpt>
      <trkpt lat="44.52234" lon="2.76302">
        <ele>341.7</ele>
        <time>2021-08-18T10:44:04Z</time>
      </trkpt>
      <trkpt lat="44.52236" lon="2.76298">
        <ele>341.5</ele>
        <time>2021-08-18T10:44:06Z</time>
      </trkpt>
      <trkpt lat="44.52237" lon="2.76294">
        <ele>341.4</ele>
        <time>2021-08-18T10:44:08Z</time>
      </trkpt>
      <trkpt lat="44.52239" lon="2.76292">
        <ele>341.2</ele>
        <time>2021-08-18T10:44:10Z</time>
      </trkpt>
      <trkpt lat="44.5224" lon="2.7629">
        <ele>341.1</ele>
        <time>2021-08-18T10:44:12Z</time>
      </trkpt>
      <trkpt lat="44.52241" lon="2.76288">
        <ele>341</ele>
        <time>2021-08-18T10:44:14Z</time>
      </trkpt>
      <trkpt lat="44.52241" lon="2.76288">
        <ele>341</ele>
        <time>2021-08-18T10:44:16Z</time>
      </trkpt>
      <trkpt lat="44.52243" lon="2.76286">
        <ele>340.9</ele>
        <time>2021-08-18T10:44:18Z</time>
      </trkpt>
      <trkpt lat="44.52245" lon="2.76282">
        <ele>340.7</ele>
        <time>2021-08-18T10:44:20Z</time>
      </trkpt>
      <trkpt lat="44.52247" lon="2.76278">
        <ele>340.5</ele>
        <time>2021-08-18T10:44:22Z</time>
      </trkpt>
      <trkpt lat="44.52249" lon="2.76277">
        <ele>340.4</ele>
        <time>2021-08-18T10:44:24Z</time>
      </trkpt>
      <trkpt lat="44.5225" lon="2.76274">
        <ele>340.3</ele>
        <time>2021-08-18T10:44:26Z</time>
      </trkpt>
      <trkpt lat="44.52252" lon="2.76271">
        <ele>340.2</ele>
        <time>2021-08-18T10:44:28Z</time>
      </trkpt>
      <trkpt lat="44.52253" lon="2.76268">
        <ele>340.1</ele>
        <time>2021-08-18T10:44:30Z</time>
      </trkpt>
      <trkpt lat="44.52255" lon="2.76265">
        <ele>340</ele>
        <time>2021-08-18T10:44:32Z</time>
      </trkpt>
      <trkpt lat="44.52257" lon="2.76261">
        <ele>339.9</ele>
        <time>2021-08-18T10:44:34Z</time>
      </trkpt>
      <trkpt lat="44.5226" lon="2.76258">
        <ele>339.7</ele>
        <time>2021-08-18T10:44:36Z</time>
      </trkpt>
      <trkpt lat="44.52263" lon="2.76254">
        <ele>339.6</ele>
        <time>2021-08-18T10:44:38Z</time>
      </trkpt>
      <trkpt lat="44.52267" lon="2.7625">
        <ele>339.4</ele>
        <time>2021-08-18T10:44:40Z</time>
      </trkpt>
      <trkpt lat="44.52271" lon="2.76245">
        <ele>339.2</ele>
        <time>2021-08-18T10:44:42Z</time>
      </trkpt>
      <trkpt lat="44.52276" lon="2.76241">
        <ele>339.1</ele>
        <time>2021-08-18T10:44:44Z</time>
      </trkpt>
      <trkpt lat="44.5228" lon="2.76235">
        <ele>338.9</ele>
        <time>2021-08-18T10:44:46Z</time>
      </trkpt>
      <trkpt lat="44.52284" lon="2.76228">
        <ele>338.7</ele>
        <time>2021-08-18T10:44:48Z</time>
      </trkpt>
      <trkpt lat="44.52288" lon="2.76221">
        <ele>338.5</ele>
        <time>2021-08-18T10:44:50Z</time>
      </trkpt>
      <trkpt lat="44.52294" lon="2.76214">
        <ele>338.2</ele>
        <time>2021-08-18T10:44:52Z</time>
      </trkpt>
      <trkpt lat="44.523" lon="2.76204">
        <ele>337.8</ele>
        <time>2021-08-18T10:44:54Z</time>
      </trkpt>
      <trkpt lat="44.52305" lon="2.76194">
        <ele>337.4</ele>
        <time>2021-08-18T10:44:56Z</time>
      </trkpt>
      <trkpt lat="44.52311" lon="2.76185">
        <ele>336.9</ele>
        <time>2021-08-18T10:44:58Z</time>
      </trkpt>
      <trkpt lat="44.52315" lon="2.76176">
        <ele>336.4</ele>
        <time>2021-08-18T10:45:00Z</time>
      </trkpt>
      <trkpt lat="44.5232" lon="2.76167">
        <ele>336</ele>
        <time>2021-08-18T10:45:02Z</time>
      </trkpt>
      <trkpt lat="44.52325" lon="2.76159">
        <ele>335.8</ele>
        <time>2021-08-18T10:45:04Z</time>
      </trkpt>
      <trkpt lat="44.52329" lon="2.7615">
        <ele>335.7</ele>
        <time>2021-08-18T10:45:06Z</time>
      </trkpt>
      <trkpt lat="44.52334" lon="2.76141">
        <ele>335.6</ele>
        <time>2021-08-18T10:45:08Z</time>
      </trkpt>
      <trkpt lat="44.52339" lon="2.76132">
        <ele>335.7</ele>
        <time>2021-08-18T10:45:10Z</time>
      </trkpt>
      <trkpt lat="44.52343" lon="2.76125">
        <ele>335.8</ele>
        <time>2021-08-18T10:45:12Z</time>
      </trkpt>
      <trkpt lat="44.52347" lon="2.76116">
        <ele>335.8</ele>
        <time>2021-08-18T10:45:14Z</time>
      </trkpt>
      <trkpt lat="44.52351" lon="2.76108">
        <ele>335.9</ele>
        <time>2021-08-18T10:45:16Z</time>
      </trkpt>
      <trkpt lat="44.52355" lon="2.761">
        <ele>335.9</ele>
        <time>2021-08-18T10:45:18Z</time>
      </trkpt>
      <trkpt lat="44.52359" lon="2.76093">
        <ele>335.9</ele>
        <time>2021-08-18T10:45:20Z</time>
      </trkpt>
      <trkpt lat="44.52363" lon="2.76085">
        <ele>335.9</ele>
        <time>2021-08-18T10:45:22Z</time>
      </trkpt>
      <trkpt lat="44.52368" lon="2.76077">
        <ele>335.8</ele>
        <time>2021-08-18T10:45:24Z</time>
      </trkpt>
      <trkpt lat="44.52373" lon="2.76069">
        <ele>335.7</ele>
        <time>2021-08-18T10:45:26Z</time>
      </trkpt>
      <trkpt lat="44.52378" lon="2.76061">
        <ele>335.6</ele>
        <time>2021-08-18T10:45:28Z</time>
      </trkpt>
      <trkpt lat="44.52382" lon="2.76054">
        <ele>335.5</ele>
        <time>2021-08-18T10:45:30Z</time>
      </trkpt>
      <trkpt lat="44.52385" lon="2.76047">
        <ele>335.4</ele>
        <time>2021-08-18T10:45:32Z</time>
      </trkpt>
      <trkpt lat="44.52388" lon="2.76041">
        <ele>335.4</ele>
        <time>2021-08-18T10:45:34Z</time>
      </trkpt>
      <trkpt lat="44.52389" lon="2.76036">
        <ele>335.4</ele>
        <time>2021-08-18T10:45:36Z</time>
      </trkpt>
      <trkpt lat="44.52389" lon="2.76032">
        <ele>335.4</ele>
        <time>2021-08-18T10:45:38Z</time>
      </trkpt>
      <trkpt lat="44.52389" lon="2.76028">
        <ele>335.4</ele>
        <time>2021-08-18T10:45:40Z</time>
      </trkpt>
      <trkpt lat="44.52389" lon="2.76026">
        <ele>335.5</ele>
        <time>2021-08-18T10:45:42Z</time>
      </trkpt>
      <trkpt lat="44.52388" lon="2.76024">
        <ele>335.5</ele>
        <time>2021-08-18T10:45:44Z</time>
      </trkpt>
      <trkpt lat="44.52386" lon="2.76028">
        <ele>335.5</ele>
        <time>2021-08-18T10:45:46Z</time>
      </trkpt>
      <trkpt lat="44.5239" lon="2.76032">
        <ele>335.4</ele>
        <time>2021-08-18T10:45:48Z</time>
      </trkpt>
      <trkpt lat="44.52395" lon="2.7603">
        <ele>335.3</ele>
        <time>2021-08-18T10:45:50Z</time>
      </trkpt>
      <trkpt lat="44.52398" lon="2.76026">
        <ele>335.2</ele>
        <time>2021-08-18T10:45:52Z</time>
      </trkpt>
      <trkpt lat="44.52401" lon="2.76021">
        <ele>335.2</ele>
        <time>2021-08-18T10:45:54Z</time>
      </trkpt>
      <trkpt lat="44.52405" lon="2.76017">
        <ele>335.1</ele>
        <time>2021-08-18T10:45:56Z</time>
      </trkpt>
      <trkpt lat="44.52409" lon="2.76013">
        <ele>335</ele>
        <time>2021-08-18T10:45:58Z</time>
      </trkpt>
      <trkpt lat="44.52414" lon="2.76008">
        <ele>335</ele>
        <time>2021-08-18T10:46:00Z</time>
      </trkpt>
      <trkpt lat="44.52419" lon="2.76001">
        <ele>334.9</ele>
        <time>2021-08-18T10:46:02Z</time>
      </trkpt>
      <trkpt lat="44.52424" lon="2.75994">
        <ele>334.8</ele>
        <time>2021-08-18T10:46:04Z</time>
      </trkpt>
      <trkpt lat="44.52429" lon="2.75989">
        <ele>334.7</ele>
        <time>2021-08-18T10:46:06Z</time>
      </trkpt>
      <trkpt lat="44.52434" lon="2.75983">
        <ele>334.6</ele>
        <time>2021-08-18T10:46:08Z</time>
      </trkpt>
      <trkpt lat="44.52439" lon="2.75975">
        <ele>334.6</ele>
        <time>2021-08-18T10:46:10Z</time>
      </trkpt>
      <trkpt lat="44.52443" lon="2.75968">
        <ele>334.5</ele>
        <time>2021-08-18T10:46:12Z</time>
      </trkpt>
      <trkpt lat="44.52447" lon="2.7596">
        <ele>334.4</ele>
        <time>2021-08-18T10:46:14Z</time>
      </trkpt>
      <trkpt lat="44.52453" lon="2.75952">
        <ele>334.4</ele>
        <time>2021-08-18T10:46:16Z</time>
      </trkpt>
      <trkpt lat="44.52457" lon="2.75945">
        <ele>334.4</ele>
        <time>2021-08-18T10:46:18Z</time>
      </trkpt>
      <trkpt lat="44.52462" lon="2.75936">
        <ele>334.3</ele>
        <time>2021-08-18T10:46:20Z</time>
      </trkpt>
      <trkpt lat="44.52467" lon="2.75928">
        <ele>334.3</ele>
        <time>2021-08-18T10:46:22Z</time>
      </trkpt>
      <trkpt lat="44.52473" lon="2.75919">
        <ele>334.3</ele>
        <time>2021-08-18T10:46:24Z</time>
      </trkpt>
      <trkpt lat="44.52476" lon="2.75912">
        <ele>334.2</ele>
        <time>2021-08-18T10:46:26Z</time>
      </trkpt>
      <trkpt lat="44.52481" lon="2.75905">
        <ele>334.1</ele>
        <time>2021-08-18T10:46:28Z</time>
      </trkpt>
      <trkpt lat="44.52486" lon="2.75898">
        <ele>333.9</ele>
        <time>2021-08-18T10:46:30Z</time>
      </trkpt>
      <trkpt lat="44.52492" lon="2.75891">
        <ele>333.8</ele>
        <time>2021-08-18T10:46:32Z</time>
      </trkpt>
      <trkpt lat="44.52498" lon="2.75884">
        <ele>333.6</ele>
        <time>2021-08-18T10:46:34Z</time>
      </trkpt>
      <trkpt lat="44.52503" lon="2.75878">
        <ele>333.6</ele>
        <time>2021-08-18T10:46:36Z</time>
      </trkpt>
      <trkpt lat="44.52509" lon="2.75871">
        <ele>333.5</ele>
        <time>2021-08-18T10:46:38Z</time>
      </trkpt>
      <trkpt lat="44.52515" lon="2.75864">
        <ele>333.5</ele>
        <time>2021-08-18T10:46:40Z</time>
      </trkpt>
      <trkpt lat="44.52521" lon="2.75858">
        <ele>333.5</ele>
        <time>2021-08-18T10:46:42Z</time>
      </trkpt>
      <trkpt lat="44.52526" lon="2.75851">
        <ele>333.5</ele>
        <time>2021-08-18T10:46:44Z</time>
      </trkpt>
      <trkpt lat="44.52531" lon="2.75845">
        <ele>333.5</ele>
        <time>2021-08-18T10:46:46Z</time>
      </trkpt>
      <trkpt lat="44.52536" lon="2.75838">
        <ele>333.5</ele>
        <time>2021-08-18T10:46:48Z</time>
      </trkpt>
      <trkpt lat="44.52541" lon="2.75831">
        <ele>333.5</ele>
        <time>2021-08-18T10:46:50Z</time>
      </trkpt>
      <trkpt lat="44.52545" lon="2.75823">
        <ele>333.6</ele>
        <time>2021-08-18T10:46:52Z</time>
      </trkpt>
      <trkpt lat="44.52551" lon="2.75816">
        <ele>333.7</ele>
        <time>2021-08-18T10:46:54Z</time>
      </trkpt>
      <trkpt lat="44.52556" lon="2.75808">
        <ele>333.8</ele>
        <time>2021-08-18T10:46:56Z</time>
      </trkpt>
      <trkpt lat="44.52561" lon="2.75802">
        <ele>333.8</ele>
        <time>2021-08-18T10:46:58Z</time>
      </trkpt>
      <trkpt lat="44.52565" lon="2.75795">
        <ele>333.9</ele>
        <time>2021-08-18T10:47:00Z</time>
      </trkpt>
      <trkpt lat="44.52569" lon="2.75791">
        <ele>333.9</ele>
        <time>2021-08-18T10:47:02Z</time>
      </trkpt>
      <trkpt lat="44.5257" lon="2.75786">
        <ele>333.9</ele>
        <time>2021-08-18T10:47:04Z</time>
      </trkpt>
      <trkpt lat="44.52569" lon="2.75781">
        <ele>333.9</ele>
        <time>2021-08-18T10:47:06Z</time>
      </trkpt>
      <trkpt lat="44.52566" lon="2.75775">
        <ele>333.9</ele>
        <time>2021-08-18T10:47:08Z</time>
      </trkpt>
      <trkpt lat="44.52562" lon="2.7577">
        <ele>333.9</ele>
        <time>2021-08-18T10:47:10Z</time>
      </trkpt>
      <trkpt lat="44.52556" lon="2.75766">
        <ele>333.9</ele>
        <time>2021-08-18T10:47:12Z</time>
      </trkpt>
      <trkpt lat="44.52551" lon="2.75761">
        <ele>333.9</ele>
        <time>2021-08-18T10:47:14Z</time>
      </trkpt>
      <trkpt lat="44.52546" lon="2.75757">
        <ele>334</ele>
        <time>2021-08-18T10:47:16Z</time>
      </trkpt>
      <trkpt lat="44.5254" lon="2.75752">
        <ele>334</ele>
        <time>2021-08-18T10:47:18Z</time>
      </trkpt>
      <trkpt lat="44.52535" lon="2.75747">
        <ele>334</ele>
        <time>2021-08-18T10:47:20Z</time>
      </trkpt>
      <trkpt lat="44.5253" lon="2.75742">
        <ele>334</ele>
        <time>2021-08-18T10:47:22Z</time>
      </trkpt>
      <trkpt lat="44.52524" lon="2.75737">
        <ele>334</ele>
        <time>2021-08-18T10:47:24Z</time>
      </trkpt>
      <trkpt lat="44.52519" lon="2.75732">
        <ele>334.1</ele>
        <time>2021-08-18T10:47:26Z</time>
      </trkpt>
      <trkpt lat="44.52514" lon="2.75726">
        <ele>334</ele>
        <time>2021-08-18T10:47:28Z</time>
      </trkpt>
      <trkpt lat="44.52508" lon="2.75722">
        <ele>334</ele>
        <time>2021-08-18T10:47:30Z</time>
      </trkpt>
      <trkpt lat="44.52503" lon="2.75717">
        <ele>334</ele>
        <time>2021-08-18T10:47:32Z</time>
      </trkpt>
      <trkpt lat="44.525" lon="2.75713">
        <ele>334</ele>
        <time>2021-08-18T10:47:34Z</time>
      </trkpt>
      <trkpt lat="44.525" lon="2.75707">
        <ele>334</ele>
        <time>2021-08-18T10:47:36Z</time>
      </trkpt>
      <trkpt lat="44.52503" lon="2.75702">
        <ele>334</ele>
        <time>2021-08-18T10:47:38Z</time>
      </trkpt>
      <trkpt lat="44.52508" lon="2.75699">
        <ele>334.1</ele>
        <time>2021-08-18T10:47:40Z</time>
      </trkpt>
      <trkpt lat="44.52514" lon="2.75695">
        <ele>334.1</ele>
        <time>2021-08-18T10:47:42Z</time>
      </trkpt>
      <trkpt lat="44.52518" lon="2.7569">
        <ele>334.2</ele>
        <time>2021-08-18T10:47:44Z</time>
      </trkpt>
      <trkpt lat="44.52523" lon="2.75685">
        <ele>334.2</ele>
        <time>2021-08-18T10:47:46Z</time>
      </trkpt>
      <trkpt lat="44.52527" lon="2.75679">
        <ele>334.3</ele>
        <time>2021-08-18T10:47:48Z</time>
      </trkpt>
      <trkpt lat="44.52531" lon="2.75673">
        <ele>334.3</ele>
        <time>2021-08-18T10:47:50Z</time>
      </trkpt>
      <trkpt lat="44.52534" lon="2.75667">
        <ele>334.4</ele>
        <time>2021-08-18T10:47:52Z</time>
      </trkpt>
      <trkpt lat="44.52537" lon="2.75661">
        <ele>334.4</ele>
        <time>2021-08-18T10:47:54Z</time>
      </trkpt>
      <trkpt lat="44.52539" lon="2.75653">
        <ele>334.4</ele>
        <time>2021-08-18T10:47:56Z</time>
      </trkpt>
      <trkpt lat="44.52542" lon="2.75646">
        <ele>334.4</ele>
        <time>2021-08-18T10:47:58Z</time>
      </trkpt>
      <trkpt lat="44.52545" lon="2.75638">
        <ele>334.4</ele>
        <time>2021-08-18T10:48:00Z</time>
      </trkpt>
      <trkpt lat="44.52549" lon="2.75629">
        <ele>334.3</ele>
        <time>2021-08-18T10:48:02Z</time>
      </trkpt>
      <trkpt lat="44.52552" lon="2.75621">
        <ele>334.3</ele>
        <time>2021-08-18T10:48:04Z</time>
      </trkpt>
      <trkpt lat="44.52555" lon="2.75612">
        <ele>334.2</ele>
        <time>2021-08-18T10:48:06Z</time>
      </trkpt>
      <trkpt lat="44.52559" lon="2.75604">
        <ele>334.2</ele>
        <time>2021-08-18T10:48:08Z</time>
      </trkpt>
      <trkpt lat="44.52562" lon="2.75595">
        <ele>334.1</ele>
        <time>2021-08-18T10:48:10Z</time>
      </trkpt>
      <trkpt lat="44.52566" lon="2.75587">
        <ele>334</ele>
        <time>2021-08-18T10:48:12Z</time>
      </trkpt>
      <trkpt lat="44.52569" lon="2.75578">
        <ele>334</ele>
        <time>2021-08-18T10:48:14Z</time>
      </trkpt>
      <trkpt lat="44.52572" lon="2.75569">
        <ele>334</ele>
        <time>2021-08-18T10:48:16Z</time>
      </trkpt>
      <trkpt lat="44.52575" lon="2.75561">
        <ele>333.9</ele>
        <time>2021-08-18T10:48:18Z</time>
      </trkpt>
      <trkpt lat="44.52578" lon="2.75551">
        <ele>333.8</ele>
        <time>2021-08-18T10:48:20Z</time>
      </trkpt>
      <trkpt lat="44.52581" lon="2.75542">
        <ele>333.6</ele>
        <time>2021-08-18T10:48:22Z</time>
      </trkpt>
      <trkpt lat="44.52584" lon="2.75532">
        <ele>333.4</ele>
        <time>2021-08-18T10:48:24Z</time>
      </trkpt>
      <trkpt lat="44.52587" lon="2.75522">
        <ele>333.3</ele>
        <time>2021-08-18T10:48:26Z</time>
      </trkpt>
      <trkpt lat="44.5259" lon="2.75512">
        <ele>333.1</ele>
        <time>2021-08-18T10:48:28Z</time>
      </trkpt>
      <trkpt lat="44.52594" lon="2.75503">
        <ele>333</ele>
        <time>2021-08-18T10:48:30Z</time>
      </trkpt>
      <trkpt lat="44.52597" lon="2.75494">
        <ele>333</ele>
        <time>2021-08-18T10:48:32Z</time>
      </trkpt>
      <trkpt lat="44.526" lon="2.75484">
        <ele>333.1</ele>
        <time>2021-08-18T10:48:34Z</time>
      </trkpt>
      <trkpt lat="44.52603" lon="2.75474">
        <ele>333.1</ele>
        <time>2021-08-18T10:48:36Z</time>
      </trkpt>
      <trkpt lat="44.52606" lon="2.75464">
        <ele>333.1</ele>
        <time>2021-08-18T10:48:38Z</time>
      </trkpt>
      <trkpt lat="44.52609" lon="2.75454">
        <ele>333</ele>
        <time>2021-08-18T10:48:40Z</time>
      </trkpt>
      <trkpt lat="44.52613" lon="2.75444">
        <ele>333</ele>
        <time>2021-08-18T10:48:42Z</time>
      </trkpt>
      <trkpt lat="44.52615" lon="2.75433">
        <ele>332.9</ele>
        <time>2021-08-18T10:48:44Z</time>
      </trkpt>
      <trkpt lat="44.52617" lon="2.75423">
        <ele>332.8</ele>
        <time>2021-08-18T10:48:46Z</time>
      </trkpt>
      <trkpt lat="44.52619" lon="2.75412">
        <ele>332.8</ele>
        <time>2021-08-18T10:48:48Z</time>
      </trkpt>
      <trkpt lat="44.52622" lon="2.75401">
        <ele>332.9</ele>
        <time>2021-08-18T10:48:50Z</time>
      </trkpt>
      <trkpt lat="44.52625" lon="2.75391">
        <ele>333</ele>
        <time>2021-08-18T10:48:52Z</time>
      </trkpt>
      <trkpt lat="44.52628" lon="2.75381">
        <ele>333</ele>
        <time>2021-08-18T10:48:54Z</time>
      </trkpt>
      <trkpt lat="44.52631" lon="2.75372">
        <ele>333</ele>
        <time>2021-08-18T10:48:56Z</time>
      </trkpt>
      <trkpt lat="44.52634" lon="2.75361">
        <ele>333.1</ele>
        <time>2021-08-18T10:48:58Z</time>
      </trkpt>
      <trkpt lat="44.52637" lon="2.75351">
        <ele>333.2</ele>
        <time>2021-08-18T10:49:00Z</time>
      </trkpt>
      <trkpt lat="44.52639" lon="2.75341">
        <ele>333.2</ele>
        <time>2021-08-18T10:49:02Z</time>
      </trkpt>
      <trkpt lat="44.52641" lon="2.75331">
        <ele>333.2</ele>
        <time>2021-08-18T10:49:04Z</time>
      </trkpt>
      <trkpt lat="44.52644" lon="2.75322">
        <ele>333.2</ele>
        <time>2021-08-18T10:49:06Z</time>
      </trkpt>
      <trkpt lat="44.52646" lon="2.75313">
        <ele>333.1</ele>
        <time>2021-08-18T10:49:08Z</time>
      </trkpt>
      <trkpt lat="44.52648" lon="2.75305">
        <ele>333.1</ele>
        <time>2021-08-18T10:49:10Z</time>
      </trkpt>
      <trkpt lat="44.5265" lon="2.75295">
        <ele>333.1</ele>
        <time>2021-08-18T10:49:12Z</time>
      </trkpt>
      <trkpt lat="44.52652" lon="2.75286">
        <ele>333.1</ele>
        <time>2021-08-18T10:49:14Z</time>
      </trkpt>
      <trkpt lat="44.52655" lon="2.75277">
        <ele>333.1</ele>
        <time>2021-08-18T10:49:16Z</time>
      </trkpt>
      <trkpt lat="44.52656" lon="2.75268">
        <ele>333.1</ele>
        <time>2021-08-18T10:49:18Z</time>
      </trkpt>
      <trkpt lat="44.52658" lon="2.75259">
        <ele>333.1</ele>
        <time>2021-08-18T10:49:20Z</time>
      </trkpt>
      <trkpt lat="44.5266" lon="2.7525">
        <ele>333.2</ele>
        <time>2021-08-18T10:49:22Z</time>
      </trkpt>
      <trkpt lat="44.52662" lon="2.75241">
        <ele>333.1</ele>
        <time>2021-08-18T10:49:24Z</time>
      </trkpt>
      <trkpt lat="44.52663" lon="2.75233">
        <ele>332.9</ele>
        <time>2021-08-18T10:49:26Z</time>
      </trkpt>
      <trkpt lat="44.52662" lon="2.75228">
        <ele>333</ele>
        <time>2021-08-18T10:49:28Z</time>
      </trkpt>
      <trkpt lat="44.52654" lon="2.75224">
        <ele>333.3</ele>
        <time>2021-08-18T10:49:30Z</time>
      </trkpt>
      <trkpt lat="44.52648" lon="2.75222">
        <ele>333.6</ele>
        <time>2021-08-18T10:49:32Z</time>
      </trkpt>
      <trkpt lat="44.52642" lon="2.75218">
        <ele>334</ele>
        <time>2021-08-18T10:49:34Z</time>
      </trkpt>
      <trkpt lat="44.52637" lon="2.75215">
        <ele>334.3</ele>
        <time>2021-08-18T10:49:36Z</time>
      </trkpt>
      <trkpt lat="44.52631" lon="2.75212">
        <ele>334.7</ele>
        <time>2021-08-18T10:49:38Z</time>
      </trkpt>
      <trkpt lat="44.52626" lon="2.75208">
        <ele>335.2</ele>
        <time>2021-08-18T10:49:40Z</time>
      </trkpt>
      <trkpt lat="44.5262" lon="2.75205">
        <ele>335.7</ele>
        <time>2021-08-18T10:49:42Z</time>
      </trkpt>
      <trkpt lat="44.52615" lon="2.75201">
        <ele>336.2</ele>
        <time>2021-08-18T10:49:44Z</time>
      </trkpt>
      <trkpt lat="44.52609" lon="2.75198">
        <ele>336.8</ele>
        <time>2021-08-18T10:49:46Z</time>
      </trkpt>
      <trkpt lat="44.52603" lon="2.75194">
        <ele>337.5</ele>
        <time>2021-08-18T10:49:48Z</time>
      </trkpt>
      <trkpt lat="44.52597" lon="2.75191">
        <ele>338.1</ele>
        <time>2021-08-18T10:49:50Z</time>
      </trkpt>
      <trkpt lat="44.52591" lon="2.75188">
        <ele>338.8</ele>
        <time>2021-08-18T10:49:52Z</time>
      </trkpt>
      <trkpt lat="44.52585" lon="2.75185">
        <ele>339.5</ele>
        <time>2021-08-18T10:49:54Z</time>
      </trkpt>
      <trkpt lat="44.52582" lon="2.75182">
        <ele>340</ele>
        <time>2021-08-18T10:49:56Z</time>
      </trkpt>
      <trkpt lat="44.52579" lon="2.75177">
        <ele>341</ele>
        <time>2021-08-18T10:49:58Z</time>
      </trkpt>
      <trkpt lat="44.52577" lon="2.7517">
        <ele>341.7</ele>
        <time>2021-08-18T10:50:00Z</time>
      </trkpt>
      <trkpt lat="44.52578" lon="2.75163">
        <ele>342</ele>
        <time>2021-08-18T10:50:02Z</time>
      </trkpt>
      <trkpt lat="44.5258" lon="2.75156">
        <ele>342.2</ele>
        <time>2021-08-18T10:50:04Z</time>
      </trkpt>
      <trkpt lat="44.52583" lon="2.7515">
        <ele>342.3</ele>
        <time>2021-08-18T10:50:06Z</time>
      </trkpt>
      <trkpt lat="44.52586" lon="2.75143">
        <ele>342.3</ele>
        <time>2021-08-18T10:50:08Z</time>
      </trkpt>
      <trkpt lat="44.5259" lon="2.75135">
        <ele>342.4</ele>
        <time>2021-08-18T10:50:10Z</time>
      </trkpt>
      <trkpt lat="44.52593" lon="2.75127">
        <ele>342.6</ele>
        <time>2021-08-18T10:50:12Z</time>
      </trkpt>
      <trkpt lat="44.52597" lon="2.75117">
        <ele>342.5</ele>
        <time>2021-08-18T10:50:14Z</time>
      </trkpt>
      <trkpt lat="44.52602" lon="2.75107">
        <ele>342.5</ele>
        <time>2021-08-18T10:50:16Z</time>
      </trkpt>
      <trkpt lat="44.52608" lon="2.75096">
        <ele>342.3</ele>
        <time>2021-08-18T10:50:18Z</time>
      </trkpt>
      <trkpt lat="44.52613" lon="2.75089">
        <ele>341.8</ele>
        <time>2021-08-18T10:50:20Z</time>
      </trkpt>
      <trkpt lat="44.52616" lon="2.75083">
        <ele>341.5</ele>
        <time>2021-08-18T10:50:22Z</time>
      </trkpt>
      <trkpt lat="44.52618" lon="2.75078">
        <ele>341.5</ele>
        <time>2021-08-18T10:50:24Z</time>
      </trkpt>
      <trkpt lat="44.52619" lon="2.75075">
        <ele>341.6</ele>
        <time>2021-08-18T10:50:26Z</time>
      </trkpt>
      <trkpt lat="44.5262" lon="2.75072">
        <ele>341.7</ele>
        <time>2021-08-18T10:50:28Z</time>
      </trkpt>
      <trkpt lat="44.52622" lon="2.75068">
        <ele>341.7</ele>
        <time>2021-08-18T10:50:30Z</time>
      </trkpt>
      <trkpt lat="44.52623" lon="2.75065">
        <ele>341.8</ele>
        <time>2021-08-18T10:50:32Z</time>
      </trkpt>
      <trkpt lat="44.52624" lon="2.75061">
        <ele>341.8</ele>
        <time>2021-08-18T10:50:34Z</time>
      </trkpt>
      <trkpt lat="44.52625" lon="2.75058">
        <ele>341.9</ele>
        <time>2021-08-18T10:50:36Z</time>
      </trkpt>
      <trkpt lat="44.52628" lon="2.75056">
        <ele>341.7</ele>
        <time>2021-08-18T10:50:38Z</time>
      </trkpt>
      <trkpt lat="44.5263" lon="2.75054">
        <ele>341.5</ele>
        <time>2021-08-18T10:50:40Z</time>
      </trkpt>
      <trkpt lat="44.52633" lon="2.75051">
        <ele>341.3</ele>
        <time>2021-08-18T10:50:42Z</time>
      </trkpt>
      <trkpt lat="44.52635" lon="2.75047">
        <ele>341.3</ele>
        <time>2021-08-18T10:50:44Z</time>
      </trkpt>
      <trkpt lat="44.52637" lon="2.75044">
        <ele>341.2</ele>
        <time>2021-08-18T10:50:46Z</time>
      </trkpt>
      <trkpt lat="44.52639" lon="2.7504">
        <ele>341.3</ele>
        <time>2021-08-18T10:50:48Z</time>
      </trkpt>
      <trkpt lat="44.52641" lon="2.75036">
        <ele>341.4</ele>
        <time>2021-08-18T10:50:50Z</time>
      </trkpt>
      <trkpt lat="44.5264" lon="2.75032">
        <ele>341.8</ele>
        <time>2021-08-18T10:50:52Z</time>
      </trkpt>
      <trkpt lat="44.52641" lon="2.75027">
        <ele>342.1</ele>
        <time>2021-08-18T10:50:54Z</time>
      </trkpt>
      <trkpt lat="44.52641" lon="2.75022">
        <ele>342.6</ele>
        <time>2021-08-18T10:50:56Z</time>
      </trkpt>
      <trkpt lat="44.52641" lon="2.75017">
        <ele>343</ele>
        <time>2021-08-18T10:50:58Z</time>
      </trkpt>
      <trkpt lat="44.5264" lon="2.75012">
        <ele>343.5</ele>
        <time>2021-08-18T10:51:00Z</time>
      </trkpt>
      <trkpt lat="44.52639" lon="2.75009">
        <ele>343.9</ele>
        <time>2021-08-18T10:51:02Z</time>
      </trkpt>
      <trkpt lat="44.52637" lon="2.75006">
        <ele>344.4</ele>
        <time>2021-08-18T10:51:04Z</time>
      </trkpt>
      <trkpt lat="44.52635" lon="2.75001">
        <ele>345.1</ele>
        <time>2021-08-18T10:51:06Z</time>
      </trkpt>
      <trkpt lat="44.52633" lon="2.74998">
        <ele>345.5</ele>
        <time>2021-08-18T10:51:08Z</time>
      </trkpt>
      <trkpt lat="44.52631" lon="2.74994">
        <ele>345.7</ele>
        <time>2021-08-18T10:51:10Z</time>
      </trkpt>
      <trkpt lat="44.52629" lon="2.74991">
        <ele>346</ele>
        <time>2021-08-18T10:51:12Z</time>
      </trkpt>
      <trkpt lat="44.52627" lon="2.74989">
        <ele>346.3</ele>
        <time>2021-08-18T10:51:14Z</time>
      </trkpt>
      <trkpt lat="44.52624" lon="2.74987">
        <ele>346.6</ele>
        <time>2021-08-18T10:51:16Z</time>
      </trkpt>
      <trkpt lat="44.52622" lon="2.74985">
        <ele>347</ele>
        <time>2021-08-18T10:51:18Z</time>
      </trkpt>
      <trkpt lat="44.5262" lon="2.74983">
        <ele>347.2</ele>
        <time>2021-08-18T10:51:20Z</time>
      </trkpt>
      <trkpt lat="44.52617" lon="2.7498">
        <ele>347.6</ele>
        <time>2021-08-18T10:51:22Z</time>
      </trkpt>
      <trkpt lat="44.52615" lon="2.74979">
        <ele>347.9</ele>
        <time>2021-08-18T10:51:24Z</time>
      </trkpt>
      <trkpt lat="44.52611" lon="2.74978">
        <ele>348.4</ele>
        <time>2021-08-18T10:51:26Z</time>
      </trkpt>
      <trkpt lat="44.52609" lon="2.74976">
        <ele>348.8</ele>
        <time>2021-08-18T10:51:28Z</time>
      </trkpt>
      <trkpt lat="44.52606" lon="2.74975">
        <ele>349.1</ele>
        <time>2021-08-18T10:51:30Z</time>
      </trkpt>
      <trkpt lat="44.52603" lon="2.74973">
        <ele>349.5</ele>
        <time>2021-08-18T10:51:32Z</time>
      </trkpt>
      <trkpt lat="44.52601" lon="2.74972">
        <ele>349.9</ele>
        <time>2021-08-18T10:51:34Z</time>
      </trkpt>
      <trkpt lat="44.52598" lon="2.7497">
        <ele>350.3</ele>
        <time>2021-08-18T10:51:36Z</time>
      </trkpt>
      <trkpt lat="44.52596" lon="2.74967">
        <ele>350.5</ele>
        <time>2021-08-18T10:51:38Z</time>
      </trkpt>
      <trkpt lat="44.52595" lon="2.74966">
        <ele>350.7</ele>
        <time>2021-08-18T10:51:40Z</time>
      </trkpt>
      <trkpt lat="44.52595" lon="2.74967">
        <ele>350.7</ele>
        <time>2021-08-18T10:51:42Z</time>
      </trkpt>
      <trkpt lat="44.52595" lon="2.74967">
        <ele>350.7</ele>
        <time>2021-08-18T10:51:44Z</time>
      </trkpt>
      <trkpt lat="44.52595" lon="2.74967">
        <ele>350.7</ele>
        <time>2021-08-18T10:51:46Z</time>
      </trkpt>
      <trkpt lat="44.52595" lon="2.74967">
        <ele>350.7</ele>
        <time>2021-08-18T10:51:48Z</time>
      </trkpt>
      <trkpt lat="44.52579" lon="2.74955">
        <ele>352.6</ele>
        <time>2021-08-18T10:56:14Z</time>
      </trkpt>
      <trkpt lat="44.52576" lon="2.74952">
        <ele>352.7</ele>
        <time>2021-08-18T10:56:16Z</time>
      </trkpt>
      <trkpt lat="44.52573" lon="2.7495">
        <ele>352.7</ele>
        <time>2021-08-18T10:56:18Z</time>
      </trkpt>
      <trkpt lat="44.5257" lon="2.74948">
        <ele>352.8</ele>
        <time>2021-08-18T10:56:20Z</time>
      </trkpt>
      <trkpt lat="44.52566" lon="2.74945">
        <ele>352.9</ele>
        <time>2021-08-18T10:56:22Z</time>
      </trkpt>
      <trkpt lat="44.52563" lon="2.74942">
        <ele>352.9</ele>
        <time>2021-08-18T10:56:24Z</time>
      </trkpt>
      <trkpt lat="44.52559" lon="2.7494">
        <ele>353</ele>
        <time>2021-08-18T10:56:26Z</time>
      </trkpt>
      <trkpt lat="44.52556" lon="2.74937">
        <ele>353.1</ele>
        <time>2021-08-18T10:56:28Z</time>
      </trkpt>
      <trkpt lat="44.52553" lon="2.74935">
        <ele>353.2</ele>
        <time>2021-08-18T10:56:30Z</time>
      </trkpt>
      <trkpt lat="44.52549" lon="2.74932">
        <ele>353.2</ele>
        <time>2021-08-18T10:56:32Z</time>
      </trkpt>
      <trkpt lat="44.52546" lon="2.74928">
        <ele>353.3</ele>
        <time>2021-08-18T10:56:34Z</time>
      </trkpt>
      <trkpt lat="44.52543" lon="2.74925">
        <ele>353.4</ele>
        <time>2021-08-18T10:56:36Z</time>
      </trkpt>
      <trkpt lat="44.52539" lon="2.74922">
        <ele>353.5</ele>
        <time>2021-08-18T10:56:38Z</time>
      </trkpt>
      <trkpt lat="44.52535" lon="2.74919">
        <ele>353.5</ele>
        <time>2021-08-18T10:56:40Z</time>
      </trkpt>
      <trkpt lat="44.52531" lon="2.74916">
        <ele>353.6</ele>
        <time>2021-08-18T10:56:42Z</time>
      </trkpt>
      <trkpt lat="44.52528" lon="2.74913">
        <ele>353.7</ele>
        <time>2021-08-18T10:56:44Z</time>
      </trkpt>
      <trkpt lat="44.52524" lon="2.74912">
        <ele>353.7</ele>
        <time>2021-08-18T10:56:46Z</time>
      </trkpt>
      <trkpt lat="44.5252" lon="2.74909">
        <ele>353.8</ele>
        <time>2021-08-18T10:56:48Z</time>
      </trkpt>
      <trkpt lat="44.52516" lon="2.74905">
        <ele>353.9</ele>
        <time>2021-08-18T10:56:50Z</time>
      </trkpt>
      <trkpt lat="44.52511" lon="2.74903">
        <ele>354</ele>
        <time>2021-08-18T10:56:52Z</time>
      </trkpt>
      <trkpt lat="44.52508" lon="2.749">
        <ele>354.1</ele>
        <time>2021-08-18T10:56:54Z</time>
      </trkpt>
      <trkpt lat="44.52503" lon="2.74898">
        <ele>354.2</ele>
        <time>2021-08-18T10:56:56Z</time>
      </trkpt>
      <trkpt lat="44.52499" lon="2.74896">
        <ele>354.3</ele>
        <time>2021-08-18T10:56:58Z</time>
      </trkpt>
      <trkpt lat="44.52495" lon="2.74894">
        <ele>354.5</ele>
        <time>2021-08-18T10:57:00Z</time>
      </trkpt>
      <trkpt lat="44.52491" lon="2.74892">
        <ele>354.6</ele>
        <time>2021-08-18T10:57:02Z</time>
      </trkpt>
      <trkpt lat="44.52486" lon="2.7489">
        <ele>354.8</ele>
        <time>2021-08-18T10:57:04Z</time>
      </trkpt>
      <trkpt lat="44.52482" lon="2.7489">
        <ele>355</ele>
        <time>2021-08-18T10:57:06Z</time>
      </trkpt>
      <trkpt lat="44.52478" lon="2.74889">
        <ele>355.1</ele>
        <time>2021-08-18T10:57:08Z</time>
      </trkpt>
      <trkpt lat="44.52473" lon="2.74887">
        <ele>355.3</ele>
        <time>2021-08-18T10:57:10Z</time>
      </trkpt>
      <trkpt lat="44.52469" lon="2.74886">
        <ele>355.5</ele>
        <time>2021-08-18T10:57:12Z</time>
      </trkpt>
      <trkpt lat="44.52464" lon="2.74885">
        <ele>355.7</ele>
        <time>2021-08-18T10:57:14Z</time>
      </trkpt>
      <trkpt lat="44.5246" lon="2.74884">
        <ele>355.8</ele>
        <time>2021-08-18T10:57:16Z</time>
      </trkpt>
      <trkpt lat="44.52456" lon="2.74884">
        <ele>356</ele>
        <time>2021-08-18T10:57:18Z</time>
      </trkpt>
      <trkpt lat="44.52452" lon="2.74882">
        <ele>356.2</ele>
        <time>2021-08-18T10:57:20Z</time>
      </trkpt>
      <trkpt lat="44.52447" lon="2.7488">
        <ele>356.4</ele>
        <time>2021-08-18T10:57:22Z</time>
      </trkpt>
      <trkpt lat="44.52441" lon="2.74879">
        <ele>356.6</ele>
        <time>2021-08-18T10:57:24Z</time>
      </trkpt>
      <trkpt lat="44.52437" lon="2.74878">
        <ele>356.7</ele>
        <time>2021-08-18T10:57:26Z</time>
      </trkpt>
      <trkpt lat="44.52432" lon="2.74876">
        <ele>357</ele>
        <time>2021-08-18T10:57:28Z</time>
      </trkpt>
      <trkpt lat="44.52427" lon="2.74874">
        <ele>357.1</ele>
        <time>2021-08-18T10:57:30Z</time>
      </trkpt>
      <trkpt lat="44.52422" lon="2.74872">
        <ele>357.3</ele>
        <time>2021-08-18T10:57:32Z</time>
      </trkpt>
      <trkpt lat="44.52418" lon="2.74871">
        <ele>357.5</ele>
        <time>2021-08-18T10:57:34Z</time>
      </trkpt>
      <trkpt lat="44.52413" lon="2.7487">
        <ele>357.8</ele>
        <time>2021-08-18T10:57:36Z</time>
      </trkpt>
      <trkpt lat="44.52409" lon="2.74869">
        <ele>358</ele>
        <time>2021-08-18T10:57:38Z</time>
      </trkpt>
      <trkpt lat="44.52405" lon="2.74867">
        <ele>358.3</ele>
        <time>2021-08-18T10:57:40Z</time>
      </trkpt>
      <trkpt lat="44.52401" lon="2.74866">
        <ele>358.6</ele>
        <time>2021-08-18T10:57:42Z</time>
      </trkpt>
      <trkpt lat="44.52399" lon="2.74862">
        <ele>358.7</ele>
        <time>2021-08-18T10:57:44Z</time>
      </trkpt>
      <trkpt lat="44.52398" lon="2.74854">
        <ele>358.9</ele>
        <time>2021-08-18T10:57:46Z</time>
      </trkpt>
      <trkpt lat="44.52401" lon="2.74847">
        <ele>358.8</ele>
        <time>2021-08-18T10:57:48Z</time>
      </trkpt>
      <trkpt lat="44.52402" lon="2.74839">
        <ele>358.8</ele>
        <time>2021-08-18T10:57:50Z</time>
      </trkpt>
      <trkpt lat="44.52404" lon="2.74831">
        <ele>358.8</ele>
        <time>2021-08-18T10:57:52Z</time>
      </trkpt>
      <trkpt lat="44.52406" lon="2.74822">
        <ele>358.8</ele>
        <time>2021-08-18T10:57:54Z</time>
      </trkpt>
      <trkpt lat="44.52409" lon="2.74813">
        <ele>358.9</ele>
        <time>2021-08-18T10:57:56Z</time>
      </trkpt>
      <trkpt lat="44.52411" lon="2.74804">
        <ele>359</ele>
        <time>2021-08-18T10:57:58Z</time>
      </trkpt>
      <trkpt lat="44.52414" lon="2.74795">
        <ele>359.1</ele>
        <time>2021-08-18T10:58:00Z</time>
      </trkpt>
      <trkpt lat="44.52417" lon="2.74784">
        <ele>359.2</ele>
        <time>2021-08-18T10:58:02Z</time>
      </trkpt>
      <trkpt lat="44.52419" lon="2.74774">
        <ele>359.3</ele>
        <time>2021-08-18T10:58:04Z</time>
      </trkpt>
      <trkpt lat="44.52422" lon="2.74763">
        <ele>359.4</ele>
        <time>2021-08-18T10:58:06Z</time>
      </trkpt>
      <trkpt lat="44.52424" lon="2.74753">
        <ele>359.4</ele>
        <time>2021-08-18T10:58:08Z</time>
      </trkpt>
      <trkpt lat="44.52427" lon="2.74743">
        <ele>359.3</ele>
        <time>2021-08-18T10:58:10Z</time>
      </trkpt>
      <trkpt lat="44.52429" lon="2.74731">
        <ele>359.1</ele>
        <time>2021-08-18T10:58:12Z</time>
      </trkpt>
      <trkpt lat="44.52432" lon="2.74721">
        <ele>359</ele>
        <time>2021-08-18T10:58:14Z</time>
      </trkpt>
      <trkpt lat="44.52434" lon="2.74711">
        <ele>358.8</ele>
        <time>2021-08-18T10:58:16Z</time>
      </trkpt>
      <trkpt lat="44.52436" lon="2.747">
        <ele>358.8</ele>
        <time>2021-08-18T10:58:18Z</time>
      </trkpt>
      <trkpt lat="44.52437" lon="2.74691">
        <ele>358.7</ele>
        <time>2021-08-18T10:58:20Z</time>
      </trkpt>
      <trkpt lat="44.52439" lon="2.74681">
        <ele>358.6</ele>
        <time>2021-08-18T10:58:22Z</time>
      </trkpt>
      <trkpt lat="44.52441" lon="2.74671">
        <ele>358.5</ele>
        <time>2021-08-18T10:58:24Z</time>
      </trkpt>
      <trkpt lat="44.52442" lon="2.7466">
        <ele>358.4</ele>
        <time>2021-08-18T10:58:26Z</time>
      </trkpt>
      <trkpt lat="44.52443" lon="2.7465">
        <ele>358.2</ele>
        <time>2021-08-18T10:58:28Z</time>
      </trkpt>
      <trkpt lat="44.52443" lon="2.74639">
        <ele>358.1</ele>
        <time>2021-08-18T10:58:30Z</time>
      </trkpt>
      <trkpt lat="44.52443" lon="2.74628">
        <ele>357.9</ele>
        <time>2021-08-18T10:58:32Z</time>
      </trkpt>
      <trkpt lat="44.52444" lon="2.74616">
        <ele>357.7</ele>
        <time>2021-08-18T10:58:34Z</time>
      </trkpt>
      <trkpt lat="44.52446" lon="2.74603">
        <ele>357.5</ele>
        <time>2021-08-18T10:58:36Z</time>
      </trkpt>
      <trkpt lat="44.52447" lon="2.7459">
        <ele>357.4</ele>
        <time>2021-08-18T10:58:38Z</time>
      </trkpt>
      <trkpt lat="44.52448" lon="2.74576">
        <ele>357.1</ele>
        <time>2021-08-18T10:58:40Z</time>
      </trkpt>
      <trkpt lat="44.5245" lon="2.74561">
        <ele>356.8</ele>
        <time>2021-08-18T10:58:42Z</time>
      </trkpt>
      <trkpt lat="44.52453" lon="2.74545">
        <ele>356.5</ele>
        <time>2021-08-18T10:58:44Z</time>
      </trkpt>
      <trkpt lat="44.52455" lon="2.74528">
        <ele>356.1</ele>
        <time>2021-08-18T10:58:46Z</time>
      </trkpt>
      <trkpt lat="44.52458" lon="2.74512">
        <ele>355.7</ele>
        <time>2021-08-18T10:58:48Z</time>
      </trkpt>
      <trkpt lat="44.52461" lon="2.74495">
        <ele>355.3</ele>
        <time>2021-08-18T10:58:50Z</time>
      </trkpt>
      <trkpt lat="44.52464" lon="2.74477">
        <ele>354.8</ele>
        <time>2021-08-18T10:58:52Z</time>
      </trkpt>
      <trkpt lat="44.52467" lon="2.74459">
        <ele>354.3</ele>
        <time>2021-08-18T10:58:54Z</time>
      </trkpt>
      <trkpt lat="44.5247" lon="2.74441">
        <ele>353.7</ele>
        <time>2021-08-18T10:58:56Z</time>
      </trkpt>
      <trkpt lat="44.52473" lon="2.74424">
        <ele>353.1</ele>
        <time>2021-08-18T10:58:58Z</time>
      </trkpt>
      <trkpt lat="44.52476" lon="2.74408">
        <ele>353.1</ele>
        <time>2021-08-18T10:59:00Z</time>
      </trkpt>
      <trkpt lat="44.52479" lon="2.74393">
        <ele>353.7</ele>
        <time>2021-08-18T10:59:02Z</time>
      </trkpt>
      <trkpt lat="44.52482" lon="2.74379">
        <ele>354.2</ele>
        <time>2021-08-18T10:59:04Z</time>
      </trkpt>
      <trkpt lat="44.52486" lon="2.74367">
        <ele>354.5</ele>
        <time>2021-08-18T10:59:06Z</time>
      </trkpt>
      <trkpt lat="44.5249" lon="2.74354">
        <ele>354.8</ele>
        <time>2021-08-18T10:59:08Z</time>
      </trkpt>
      <trkpt lat="44.52496" lon="2.74344">
        <ele>354.9</ele>
        <time>2021-08-18T10:59:10Z</time>
      </trkpt>
      <trkpt lat="44.52501" lon="2.74333">
        <ele>355</ele>
        <time>2021-08-18T10:59:12Z</time>
      </trkpt>
      <trkpt lat="44.52506" lon="2.74324">
        <ele>355.2</ele>
        <time>2021-08-18T10:59:14Z</time>
      </trkpt>
      <trkpt lat="44.52512" lon="2.74314">
        <ele>355.3</ele>
        <time>2021-08-18T10:59:16Z</time>
      </trkpt>
      <trkpt lat="44.52518" lon="2.74304">
        <ele>355.4</ele>
        <time>2021-08-18T10:59:18Z</time>
      </trkpt>
      <trkpt lat="44.52525" lon="2.74295">
        <ele>355.4</ele>
        <time>2021-08-18T10:59:20Z</time>
      </trkpt>
      <trkpt lat="44.52531" lon="2.74285">
        <ele>355.4</ele>
        <time>2021-08-18T10:59:22Z</time>
      </trkpt>
      <trkpt lat="44.52538" lon="2.74276">
        <ele>355.2</ele>
        <time>2021-08-18T10:59:24Z</time>
      </trkpt>
      <trkpt lat="44.52546" lon="2.74267">
        <ele>354.9</ele>
        <time>2021-08-18T10:59:26Z</time>
      </trkpt>
      <trkpt lat="44.52553" lon="2.74257">
        <ele>354.6</ele>
        <time>2021-08-18T10:59:28Z</time>
      </trkpt>
      <trkpt lat="44.52562" lon="2.74247">
        <ele>354.1</ele>
        <time>2021-08-18T10:59:30Z</time>
      </trkpt>
      <trkpt lat="44.5257" lon="2.74237">
        <ele>353.6</ele>
        <time>2021-08-18T10:59:32Z</time>
      </trkpt>
      <trkpt lat="44.52578" lon="2.74227">
        <ele>353</ele>
        <time>2021-08-18T10:59:34Z</time>
      </trkpt>
      <trkpt lat="44.52587" lon="2.74216">
        <ele>352.7</ele>
        <time>2021-08-18T10:59:36Z</time>
      </trkpt>
      <trkpt lat="44.52596" lon="2.74206">
        <ele>352.6</ele>
        <time>2021-08-18T10:59:38Z</time>
      </trkpt>
      <trkpt lat="44.52605" lon="2.74196">
        <ele>352.5</ele>
        <time>2021-08-18T10:59:40Z</time>
      </trkpt>
      <trkpt lat="44.52613" lon="2.74185">
        <ele>352.3</ele>
        <time>2021-08-18T10:59:42Z</time>
      </trkpt>
      <trkpt lat="44.52622" lon="2.74174">
        <ele>352</ele>
        <time>2021-08-18T10:59:44Z</time>
      </trkpt>
      <trkpt lat="44.52632" lon="2.74162">
        <ele>351.6</ele>
        <time>2021-08-18T10:59:46Z</time>
      </trkpt>
      <trkpt lat="44.52641" lon="2.74151">
        <ele>351</ele>
        <time>2021-08-18T10:59:48Z</time>
      </trkpt>
      <trkpt lat="44.52647" lon="2.74138">
        <ele>350.4</ele>
        <time>2021-08-18T10:59:50Z</time>
      </trkpt>
      <trkpt lat="44.52652" lon="2.74124">
        <ele>349.9</ele>
        <time>2021-08-18T10:59:52Z</time>
      </trkpt>
      <trkpt lat="44.52657" lon="2.7411">
        <ele>349.3</ele>
        <time>2021-08-18T10:59:54Z</time>
      </trkpt>
      <trkpt lat="44.52661" lon="2.74096">
        <ele>348.7</ele>
        <time>2021-08-18T10:59:56Z</time>
      </trkpt>
      <trkpt lat="44.52665" lon="2.74081">
        <ele>348</ele>
        <time>2021-08-18T10:59:58Z</time>
      </trkpt>
      <trkpt lat="44.52671" lon="2.74066">
        <ele>347.1</ele>
        <time>2021-08-18T11:00:00Z</time>
      </trkpt>
      <trkpt lat="44.52678" lon="2.74053">
        <ele>346</ele>
        <time>2021-08-18T11:00:02Z</time>
      </trkpt>
      <trkpt lat="44.52685" lon="2.7404">
        <ele>344.8</ele>
        <time>2021-08-18T11:00:04Z</time>
      </trkpt>
      <trkpt lat="44.52694" lon="2.74026">
        <ele>343.6</ele>
        <time>2021-08-18T11:00:06Z</time>
      </trkpt>
      <trkpt lat="44.52703" lon="2.74012">
        <ele>342.3</ele>
        <time>2021-08-18T11:00:08Z</time>
      </trkpt>
      <trkpt lat="44.52711" lon="2.73997">
        <ele>341.2</ele>
        <time>2021-08-18T11:00:10Z</time>
      </trkpt>
      <trkpt lat="44.52719" lon="2.73981">
        <ele>340.7</ele>
        <time>2021-08-18T11:00:12Z</time>
      </trkpt>
      <trkpt lat="44.52725" lon="2.73964">
        <ele>340.3</ele>
        <time>2021-08-18T11:00:14Z</time>
      </trkpt>
      <trkpt lat="44.52731" lon="2.73947">
        <ele>340</ele>
        <time>2021-08-18T11:00:16Z</time>
      </trkpt>
      <trkpt lat="44.52737" lon="2.7393">
        <ele>339.9</ele>
        <time>2021-08-18T11:00:18Z</time>
      </trkpt>
      <trkpt lat="44.52742" lon="2.73911">
        <ele>340.1</ele>
        <time>2021-08-18T11:00:20Z</time>
      </trkpt>
      <trkpt lat="44.52748" lon="2.73892">
        <ele>340.9</ele>
        <time>2021-08-18T11:00:22Z</time>
      </trkpt>
      <trkpt lat="44.52754" lon="2.73872">
        <ele>341.8</ele>
        <time>2021-08-18T11:00:24Z</time>
      </trkpt>
      <trkpt lat="44.5276" lon="2.73852">
        <ele>342.4</ele>
        <time>2021-08-18T11:00:26Z</time>
      </trkpt>
      <trkpt lat="44.52767" lon="2.73831">
        <ele>342.8</ele>
        <time>2021-08-18T11:00:28Z</time>
      </trkpt>
      <trkpt lat="44.52773" lon="2.7381">
        <ele>341.8</ele>
        <time>2021-08-18T11:00:30Z</time>
      </trkpt>
      <trkpt lat="44.52778" lon="2.73792">
        <ele>341</ele>
        <time>2021-08-18T11:00:32Z</time>
      </trkpt>
      <trkpt lat="44.52783" lon="2.73773">
        <ele>340</ele>
        <time>2021-08-18T11:00:34Z</time>
      </trkpt>
      <trkpt lat="44.52788" lon="2.73754">
        <ele>339.1</ele>
        <time>2021-08-18T11:00:36Z</time>
      </trkpt>
      <trkpt lat="44.52795" lon="2.73734">
        <ele>337.3</ele>
        <time>2021-08-18T11:00:38Z</time>
      </trkpt>
      <trkpt lat="44.52801" lon="2.73713">
        <ele>335.8</ele>
        <time>2021-08-18T11:00:40Z</time>
      </trkpt>
      <trkpt lat="44.52807" lon="2.73694">
        <ele>334.4</ele>
        <time>2021-08-18T11:00:42Z</time>
      </trkpt>
      <trkpt lat="44.5281" lon="2.73677">
        <ele>333.5</ele>
        <time>2021-08-18T11:00:44Z</time>
      </trkpt>
      <trkpt lat="44.52815" lon="2.7366">
        <ele>332.9</ele>
        <time>2021-08-18T11:00:46Z</time>
      </trkpt>
      <trkpt lat="44.52818" lon="2.73645">
        <ele>332.8</ele>
        <time>2021-08-18T11:00:48Z</time>
      </trkpt>
      <trkpt lat="44.52821" lon="2.73629">
        <ele>332.6</ele>
        <time>2021-08-18T11:00:50Z</time>
      </trkpt>
      <trkpt lat="44.52824" lon="2.73614">
        <ele>332.5</ele>
        <time>2021-08-18T11:00:52Z</time>
      </trkpt>
      <trkpt lat="44.52827" lon="2.73601">
        <ele>332.4</ele>
        <time>2021-08-18T11:00:54Z</time>
      </trkpt>
      <trkpt lat="44.52829" lon="2.73589">
        <ele>332.4</ele>
        <time>2021-08-18T11:00:56Z</time>
      </trkpt>
      <trkpt lat="44.52831" lon="2.73577">
        <ele>332.4</ele>
        <time>2021-08-18T11:00:58Z</time>
      </trkpt>
      <trkpt lat="44.52834" lon="2.73565">
        <ele>332.4</ele>
        <time>2021-08-18T11:01:00Z</time>
      </trkpt>
      <trkpt lat="44.52833" lon="2.73553">
        <ele>332.8</ele>
        <time>2021-08-18T11:01:02Z</time>
      </trkpt>
      <trkpt lat="44.52827" lon="2.73543">
        <ele>333.5</ele>
        <time>2021-08-18T11:01:04Z</time>
      </trkpt>
      <trkpt lat="44.52823" lon="2.73536">
        <ele>334.1</ele>
        <time>2021-08-18T11:01:06Z</time>
      </trkpt>
      <trkpt lat="44.52819" lon="2.73528">
        <ele>334.7</ele>
        <time>2021-08-18T11:01:08Z</time>
      </trkpt>
      <trkpt lat="44.52816" lon="2.7352">
        <ele>335.2</ele>
        <time>2021-08-18T11:01:10Z</time>
      </trkpt>
      <trkpt lat="44.52812" lon="2.73513">
        <ele>335.7</ele>
        <time>2021-08-18T11:01:12Z</time>
      </trkpt>
      <trkpt lat="44.52808" lon="2.73506">
        <ele>336.3</ele>
        <time>2021-08-18T11:01:14Z</time>
      </trkpt>
      <trkpt lat="44.52805" lon="2.73499">
        <ele>336.8</ele>
        <time>2021-08-18T11:01:16Z</time>
      </trkpt>
      <trkpt lat="44.52801" lon="2.73491">
        <ele>337.1</ele>
        <time>2021-08-18T11:01:18Z</time>
      </trkpt>
      <trkpt lat="44.52798" lon="2.73487">
        <ele>337.3</ele>
        <time>2021-08-18T11:01:20Z</time>
      </trkpt>
      <trkpt lat="44.52795" lon="2.73481">
        <ele>337.6</ele>
        <time>2021-08-18T11:01:22Z</time>
      </trkpt>
      <trkpt lat="44.5279" lon="2.73474">
        <ele>338</ele>
        <time>2021-08-18T11:01:24Z</time>
      </trkpt>
      <trkpt lat="44.52786" lon="2.73467">
        <ele>338.3</ele>
        <time>2021-08-18T11:01:26Z</time>
      </trkpt>
      <trkpt lat="44.52781" lon="2.7346">
        <ele>338.8</ele>
        <time>2021-08-18T11:01:28Z</time>
      </trkpt>
      <trkpt lat="44.52777" lon="2.73454">
        <ele>339.1</ele>
        <time>2021-08-18T11:01:30Z</time>
      </trkpt>
      <trkpt lat="44.52773" lon="2.73448">
        <ele>339.3</ele>
        <time>2021-08-18T11:01:32Z</time>
      </trkpt>
      <trkpt lat="44.5277" lon="2.73441">
        <ele>339.5</ele>
        <time>2021-08-18T11:01:34Z</time>
      </trkpt>
      <trkpt lat="44.52768" lon="2.73433">
        <ele>339.7</ele>
        <time>2021-08-18T11:01:36Z</time>
      </trkpt>
      <trkpt lat="44.52765" lon="2.73425">
        <ele>339.8</ele>
        <time>2021-08-18T11:01:38Z</time>
      </trkpt>
      <trkpt lat="44.52763" lon="2.73418">
        <ele>339.9</ele>
        <time>2021-08-18T11:01:40Z</time>
      </trkpt>
      <trkpt lat="44.52761" lon="2.7341">
        <ele>340.1</ele>
        <time>2021-08-18T11:01:42Z</time>
      </trkpt>
      <trkpt lat="44.5276" lon="2.73403">
        <ele>340.2</ele>
        <time>2021-08-18T11:01:44Z</time>
      </trkpt>
      <trkpt lat="44.52758" lon="2.73395">
        <ele>340.3</ele>
        <time>2021-08-18T11:01:46Z</time>
      </trkpt>
      <trkpt lat="44.52756" lon="2.73386">
        <ele>340.5</ele>
        <time>2021-08-18T11:01:48Z</time>
      </trkpt>
      <trkpt lat="44.52754" lon="2.73378">
        <ele>340.6</ele>
        <time>2021-08-18T11:01:50Z</time>
      </trkpt>
      <trkpt lat="44.52753" lon="2.7337">
        <ele>340.8</ele>
        <time>2021-08-18T11:01:52Z</time>
      </trkpt>
      <trkpt lat="44.52751" lon="2.73362">
        <ele>340.9</ele>
        <time>2021-08-18T11:01:54Z</time>
      </trkpt>
      <trkpt lat="44.52749" lon="2.73354">
        <ele>341.1</ele>
        <time>2021-08-18T11:01:56Z</time>
      </trkpt>
      <trkpt lat="44.52748" lon="2.73346">
        <ele>341.4</ele>
        <time>2021-08-18T11:01:58Z</time>
      </trkpt>
      <trkpt lat="44.52746" lon="2.73339">
        <ele>341.8</ele>
        <time>2021-08-18T11:02:00Z</time>
      </trkpt>
      <trkpt lat="44.52746" lon="2.73331">
        <ele>341.9</ele>
        <time>2021-08-18T11:02:02Z</time>
      </trkpt>
      <trkpt lat="44.52745" lon="2.73324">
        <ele>341.9</ele>
        <time>2021-08-18T11:02:04Z</time>
      </trkpt>
      <trkpt lat="44.52744" lon="2.73316">
        <ele>341.8</ele>
        <time>2021-08-18T11:02:06Z</time>
      </trkpt>
      <trkpt lat="44.52743" lon="2.73308">
        <ele>341.8</ele>
        <time>2021-08-18T11:02:08Z</time>
      </trkpt>
      <trkpt lat="44.52742" lon="2.733">
        <ele>341.8</ele>
        <time>2021-08-18T11:02:10Z</time>
      </trkpt>
      <trkpt lat="44.5274" lon="2.73292">
        <ele>341.9</ele>
        <time>2021-08-18T11:02:12Z</time>
      </trkpt>
      <trkpt lat="44.52738" lon="2.73284">
        <ele>342.1</ele>
        <time>2021-08-18T11:02:14Z</time>
      </trkpt>
      <trkpt lat="44.52736" lon="2.73276">
        <ele>342.2</ele>
        <time>2021-08-18T11:02:16Z</time>
      </trkpt>
      <trkpt lat="44.52734" lon="2.73269">
        <ele>342.4</ele>
        <time>2021-08-18T11:02:18Z</time>
      </trkpt>
      <trkpt lat="44.52731" lon="2.7326">
        <ele>342.6</ele>
        <time>2021-08-18T11:02:20Z</time>
      </trkpt>
      <trkpt lat="44.52728" lon="2.73253">
        <ele>342.8</ele>
        <time>2021-08-18T11:02:22Z</time>
      </trkpt>
      <trkpt lat="44.52724" lon="2.73246">
        <ele>343</ele>
        <time>2021-08-18T11:02:24Z</time>
      </trkpt>
      <trkpt lat="44.52722" lon="2.73239">
        <ele>343</ele>
        <time>2021-08-18T11:02:26Z</time>
      </trkpt>
      <trkpt lat="44.52718" lon="2.73231">
        <ele>343</ele>
        <time>2021-08-18T11:02:28Z</time>
      </trkpt>
      <trkpt lat="44.52715" lon="2.73225">
        <ele>343.1</ele>
        <time>2021-08-18T11:02:30Z</time>
      </trkpt>
      <trkpt lat="44.52712" lon="2.73218">
        <ele>343.1</ele>
        <time>2021-08-18T11:02:32Z</time>
      </trkpt>
      <trkpt lat="44.52709" lon="2.7321">
        <ele>343.1</ele>
        <time>2021-08-18T11:02:34Z</time>
      </trkpt>
      <trkpt lat="44.52705" lon="2.73203">
        <ele>343.1</ele>
        <time>2021-08-18T11:02:36Z</time>
      </trkpt>
      <trkpt lat="44.52702" lon="2.73196">
        <ele>343</ele>
        <time>2021-08-18T11:02:38Z</time>
      </trkpt>
      <trkpt lat="44.52698" lon="2.73188">
        <ele>343</ele>
        <time>2021-08-18T11:02:40Z</time>
      </trkpt>
      <trkpt lat="44.52694" lon="2.73181">
        <ele>343.1</ele>
        <time>2021-08-18T11:02:42Z</time>
      </trkpt>
      <trkpt lat="44.52691" lon="2.73173">
        <ele>342.9</ele>
        <time>2021-08-18T11:02:44Z</time>
      </trkpt>
      <trkpt lat="44.52689" lon="2.73165">
        <ele>342.7</ele>
        <time>2021-08-18T11:02:46Z</time>
      </trkpt>
      <trkpt lat="44.52685" lon="2.73156">
        <ele>342.8</ele>
        <time>2021-08-18T11:02:48Z</time>
      </trkpt>
      <trkpt lat="44.5268" lon="2.73147">
        <ele>343.1</ele>
        <time>2021-08-18T11:02:50Z</time>
      </trkpt>
      <trkpt lat="44.52674" lon="2.73138">
        <ele>343.3</ele>
        <time>2021-08-18T11:02:52Z</time>
      </trkpt>
      <trkpt lat="44.52669" lon="2.73129">
        <ele>343.5</ele>
        <time>2021-08-18T11:02:54Z</time>
      </trkpt>
      <trkpt lat="44.52664" lon="2.73122">
        <ele>343.8</ele>
        <time>2021-08-18T11:02:56Z</time>
      </trkpt>
      <trkpt lat="44.52659" lon="2.73114">
        <ele>344.1</ele>
        <time>2021-08-18T11:02:58Z</time>
      </trkpt>
      <trkpt lat="44.52653" lon="2.73106">
        <ele>344.5</ele>
        <time>2021-08-18T11:03:00Z</time>
      </trkpt>
      <trkpt lat="44.52648" lon="2.73098">
        <ele>344.9</ele>
        <time>2021-08-18T11:03:02Z</time>
      </trkpt>
      <trkpt lat="44.52642" lon="2.73089">
        <ele>345.2</ele>
        <time>2021-08-18T11:03:04Z</time>
      </trkpt>
      <trkpt lat="44.52636" lon="2.7308">
        <ele>345.5</ele>
        <time>2021-08-18T11:03:06Z</time>
      </trkpt>
      <trkpt lat="44.52631" lon="2.73072">
        <ele>345.9</ele>
        <time>2021-08-18T11:03:08Z</time>
      </trkpt>
      <trkpt lat="44.52629" lon="2.73068">
        <ele>346.1</ele>
        <time>2021-08-18T11:03:10Z</time>
      </trkpt>
      <trkpt lat="44.52625" lon="2.7306">
        <ele>346.3</ele>
        <time>2021-08-18T11:03:12Z</time>
      </trkpt>
      <trkpt lat="44.52621" lon="2.73052">
        <ele>346.5</ele>
        <time>2021-08-18T11:03:14Z</time>
      </trkpt>
      <trkpt lat="44.52618" lon="2.73045">
        <ele>346.5</ele>
        <time>2021-08-18T11:03:16Z</time>
      </trkpt>
      <trkpt lat="44.52616" lon="2.73036">
        <ele>346.4</ele>
        <time>2021-08-18T11:03:18Z</time>
      </trkpt>
      <trkpt lat="44.52614" lon="2.73028">
        <ele>346.3</ele>
        <time>2021-08-18T11:03:20Z</time>
      </trkpt>
      <trkpt lat="44.52614" lon="2.73023">
        <ele>346.1</ele>
        <time>2021-08-18T11:03:22Z</time>
      </trkpt>
      <trkpt lat="44.52613" lon="2.73017">
        <ele>345.9</ele>
        <time>2021-08-18T11:03:24Z</time>
      </trkpt>
      <trkpt lat="44.52613" lon="2.73008">
        <ele>345.4</ele>
        <time>2021-08-18T11:03:26Z</time>
      </trkpt>
      <trkpt lat="44.52612" lon="2.73002">
        <ele>345.3</ele>
        <time>2021-08-18T11:03:28Z</time>
      </trkpt>
      <trkpt lat="44.52611" lon="2.72995">
        <ele>345</ele>
        <time>2021-08-18T11:03:30Z</time>
      </trkpt>
      <trkpt lat="44.52611" lon="2.72987">
        <ele>344.5</ele>
        <time>2021-08-18T11:03:32Z</time>
      </trkpt>
      <trkpt lat="44.52611" lon="2.72977">
        <ele>343.8</ele>
        <time>2021-08-18T11:03:34Z</time>
      </trkpt>
      <trkpt lat="44.52611" lon="2.72965">
        <ele>343.2</ele>
        <time>2021-08-18T11:03:36Z</time>
      </trkpt>
      <trkpt lat="44.5261" lon="2.72954">
        <ele>342.5</ele>
        <time>2021-08-18T11:03:38Z</time>
      </trkpt>
      <trkpt lat="44.52609" lon="2.72943">
        <ele>341.9</ele>
        <time>2021-08-18T11:03:40Z</time>
      </trkpt>
      <trkpt lat="44.52606" lon="2.72933">
        <ele>341.5</ele>
        <time>2021-08-18T11:03:42Z</time>
      </trkpt>
      <trkpt lat="44.52604" lon="2.72922">
        <ele>340.9</ele>
        <time>2021-08-18T11:03:44Z</time>
      </trkpt>
      <trkpt lat="44.52602" lon="2.72912">
        <ele>340.6</ele>
        <time>2021-08-18T11:03:46Z</time>
      </trkpt>
      <trkpt lat="44.526" lon="2.72903">
        <ele>340.5</ele>
        <time>2021-08-18T11:03:48Z</time>
      </trkpt>
      <trkpt lat="44.52597" lon="2.72894">
        <ele>340.3</ele>
        <time>2021-08-18T11:03:50Z</time>
      </trkpt>
      <trkpt lat="44.52596" lon="2.72885">
        <ele>340.1</ele>
        <time>2021-08-18T11:03:52Z</time>
      </trkpt>
      <trkpt lat="44.52594" lon="2.72878">
        <ele>339.8</ele>
        <time>2021-08-18T11:03:54Z</time>
      </trkpt>
      <trkpt lat="44.52593" lon="2.7287">
        <ele>339.5</ele>
        <time>2021-08-18T11:03:56Z</time>
      </trkpt>
      <trkpt lat="44.52591" lon="2.72863">
        <ele>339.1</ele>
        <time>2021-08-18T11:03:58Z</time>
      </trkpt>
      <trkpt lat="44.5259" lon="2.72856">
        <ele>338.7</ele>
        <time>2021-08-18T11:04:00Z</time>
      </trkpt>
      <trkpt lat="44.52588" lon="2.72849">
        <ele>338.3</ele>
        <time>2021-08-18T11:04:02Z</time>
      </trkpt>
      <trkpt lat="44.52586" lon="2.72842">
        <ele>337.8</ele>
        <time>2021-08-18T11:04:04Z</time>
      </trkpt>
      <trkpt lat="44.52584" lon="2.72836">
        <ele>337.2</ele>
        <time>2021-08-18T11:04:06Z</time>
      </trkpt>
      <trkpt lat="44.52582" lon="2.7283">
        <ele>337.3</ele>
        <time>2021-08-18T11:04:08Z</time>
      </trkpt>
      <trkpt lat="44.5258" lon="2.72825">
        <ele>337.7</ele>
        <time>2021-08-18T11:04:10Z</time>
      </trkpt>
      <trkpt lat="44.52584" lon="2.72819">
        <ele>337.6</ele>
        <time>2021-08-18T11:04:12Z</time>
      </trkpt>
      <trkpt lat="44.52588" lon="2.72815">
        <ele>338.4</ele>
        <time>2021-08-18T11:04:14Z</time>
      </trkpt>
      <trkpt lat="44.52591" lon="2.72812">
        <ele>339</ele>
        <time>2021-08-18T11:04:16Z</time>
      </trkpt>
      <trkpt lat="44.52594" lon="2.72807">
        <ele>339.6</ele>
        <time>2021-08-18T11:04:18Z</time>
      </trkpt>
      <trkpt lat="44.52597" lon="2.72806">
        <ele>340.2</ele>
        <time>2021-08-18T11:04:20Z</time>
      </trkpt>
      <trkpt lat="44.52601" lon="2.72808">
        <ele>340.7</ele>
        <time>2021-08-18T11:04:22Z</time>
      </trkpt>
      <trkpt lat="44.52604" lon="2.72811">
        <ele>340.9</ele>
        <time>2021-08-18T11:04:24Z</time>
      </trkpt>
      <trkpt lat="44.52607" lon="2.72815">
        <ele>341</ele>
        <time>2021-08-18T11:04:26Z</time>
      </trkpt>
      <trkpt lat="44.5261" lon="2.72817">
        <ele>341.3</ele>
        <time>2021-08-18T11:04:28Z</time>
      </trkpt>
      <trkpt lat="44.52613" lon="2.72818">
        <ele>341.6</ele>
        <time>2021-08-18T11:04:30Z</time>
      </trkpt>
      <trkpt lat="44.52617" lon="2.72821">
        <ele>341.8</ele>
        <time>2021-08-18T11:04:32Z</time>
      </trkpt>
      <trkpt lat="44.5262" lon="2.72823">
        <ele>342</ele>
        <time>2021-08-18T11:04:34Z</time>
      </trkpt>
      <trkpt lat="44.52623" lon="2.72826">
        <ele>342</ele>
        <time>2021-08-18T11:04:36Z</time>
      </trkpt>
      <trkpt lat="44.52626" lon="2.72829">
        <ele>342.1</ele>
        <time>2021-08-18T11:04:38Z</time>
      </trkpt>
      <trkpt lat="44.52628" lon="2.7283">
        <ele>342.3</ele>
        <time>2021-08-18T11:04:40Z</time>
      </trkpt>
      <trkpt lat="44.52632" lon="2.72832">
        <ele>342.4</ele>
        <time>2021-08-18T11:04:42Z</time>
      </trkpt>
      <trkpt lat="44.52635" lon="2.72835">
        <ele>342.5</ele>
        <time>2021-08-18T11:04:44Z</time>
      </trkpt>
      <trkpt lat="44.52639" lon="2.72837">
        <ele>342.8</ele>
        <time>2021-08-18T11:04:46Z</time>
      </trkpt>
      <trkpt lat="44.52642" lon="2.72841">
        <ele>342.8</ele>
        <time>2021-08-18T11:04:48Z</time>
      </trkpt>
      <trkpt lat="44.52645" lon="2.72847">
        <ele>342.7</ele>
        <time>2021-08-18T11:04:50Z</time>
      </trkpt>
      <trkpt lat="44.52649" lon="2.72853">
        <ele>342.5</ele>
        <time>2021-08-18T11:04:52Z</time>
      </trkpt>
      <trkpt lat="44.52655" lon="2.7286">
        <ele>342.2</ele>
        <time>2021-08-18T11:04:54Z</time>
      </trkpt>
      <trkpt lat="44.52661" lon="2.72867">
        <ele>341.8</ele>
        <time>2021-08-18T11:04:56Z</time>
      </trkpt>
      <trkpt lat="44.52665" lon="2.72873">
        <ele>341.3</ele>
        <time>2021-08-18T11:04:58Z</time>
      </trkpt>
      <trkpt lat="44.52671" lon="2.72879">
        <ele>341.5</ele>
        <time>2021-08-18T11:05:00Z</time>
      </trkpt>
      <trkpt lat="44.52676" lon="2.72885">
        <ele>341.9</ele>
        <time>2021-08-18T11:05:02Z</time>
      </trkpt>
      <trkpt lat="44.52681" lon="2.72893">
        <ele>341.9</ele>
        <time>2021-08-18T11:05:04Z</time>
      </trkpt>
      <trkpt lat="44.52689" lon="2.72898">
        <ele>342.7</ele>
        <time>2021-08-18T11:05:06Z</time>
      </trkpt>
      <trkpt lat="44.52699" lon="2.72904">
        <ele>343.5</ele>
        <time>2021-08-18T11:05:08Z</time>
      </trkpt>
      <trkpt lat="44.5271" lon="2.72906">
        <ele>345.1</ele>
        <time>2021-08-18T11:05:10Z</time>
      </trkpt>
      <trkpt lat="44.52722" lon="2.72907">
        <ele>346.9</ele>
        <time>2021-08-18T11:05:12Z</time>
      </trkpt>
      <trkpt lat="44.52733" lon="2.72914">
        <ele>347</ele>
        <time>2021-08-18T11:05:14Z</time>
      </trkpt>
      <trkpt lat="44.5274" lon="2.72929">
        <ele>345.5</ele>
        <time>2021-08-18T11:05:16Z</time>
      </trkpt>
      <trkpt lat="44.52747" lon="2.72944">
        <ele>343.8</ele>
        <time>2021-08-18T11:05:18Z</time>
      </trkpt>
      <trkpt lat="44.52753" lon="2.72956">
        <ele>342.2</ele>
        <time>2021-08-18T11:05:20Z</time>
      </trkpt>
      <trkpt lat="44.5276" lon="2.72967">
        <ele>340.8</ele>
        <time>2021-08-18T11:05:22Z</time>
      </trkpt>
      <trkpt lat="44.52768" lon="2.72976">
        <ele>339.6</ele>
        <time>2021-08-18T11:05:24Z</time>
      </trkpt>
      <trkpt lat="44.52774" lon="2.72986">
        <ele>338.1</ele>
        <time>2021-08-18T11:05:26Z</time>
      </trkpt>
      <trkpt lat="44.52781" lon="2.72994">
        <ele>337.1</ele>
        <time>2021-08-18T11:05:28Z</time>
      </trkpt>
      <trkpt lat="44.52787" lon="2.73">
        <ele>336.3</ele>
        <time>2021-08-18T11:05:30Z</time>
      </trkpt>
      <trkpt lat="44.52793" lon="2.73006">
        <ele>336.2</ele>
        <time>2021-08-18T11:05:32Z</time>
      </trkpt>
      <trkpt lat="44.52797" lon="2.73012">
        <ele>336.1</ele>
        <time>2021-08-18T11:05:34Z</time>
      </trkpt>
      <trkpt lat="44.52803" lon="2.73017">
        <ele>336</ele>
        <time>2021-08-18T11:05:36Z</time>
      </trkpt>
      <trkpt lat="44.5281" lon="2.73023">
        <ele>335.8</ele>
        <time>2021-08-18T11:05:38Z</time>
      </trkpt>
      <trkpt lat="44.52816" lon="2.73029">
        <ele>335.6</ele>
        <time>2021-08-18T11:05:40Z</time>
      </trkpt>
      <trkpt lat="44.52823" lon="2.73035">
        <ele>335.3</ele>
        <time>2021-08-18T11:05:42Z</time>
      </trkpt>
      <trkpt lat="44.52829" lon="2.73041">
        <ele>335</ele>
        <time>2021-08-18T11:05:44Z</time>
      </trkpt>
      <trkpt lat="44.52834" lon="2.73049">
        <ele>334.3</ele>
        <time>2021-08-18T11:05:46Z</time>
      </trkpt>
      <trkpt lat="44.52835" lon="2.73059">
        <ele>333.4</ele>
        <time>2021-08-18T11:05:48Z</time>
      </trkpt>
      <trkpt lat="44.52838" lon="2.73068">
        <ele>332.5</ele>
        <time>2021-08-18T11:05:50Z</time>
      </trkpt>
      <trkpt lat="44.52846" lon="2.73071">
        <ele>332.4</ele>
        <time>2021-08-18T11:05:52Z</time>
      </trkpt>
      <trkpt lat="44.52854" lon="2.73072">
        <ele>332.4</ele>
        <time>2021-08-18T11:05:54Z</time>
      </trkpt>
      <trkpt lat="44.52862" lon="2.73072">
        <ele>332.5</ele>
        <time>2021-08-18T11:05:56Z</time>
      </trkpt>
      <trkpt lat="44.52871" lon="2.73074">
        <ele>332.5</ele>
        <time>2021-08-18T11:05:58Z</time>
      </trkpt>
      <trkpt lat="44.52878" lon="2.73074">
        <ele>332.6</ele>
        <time>2021-08-18T11:06:00Z</time>
      </trkpt>
      <trkpt lat="44.52886" lon="2.73076">
        <ele>332.6</ele>
        <time>2021-08-18T11:06:02Z</time>
      </trkpt>
      <trkpt lat="44.52893" lon="2.73076">
        <ele>332.6</ele>
        <time>2021-08-18T11:06:04Z</time>
      </trkpt>
      <trkpt lat="44.529" lon="2.73078">
        <ele>332.5</ele>
        <time>2021-08-18T11:06:06Z</time>
      </trkpt>
      <trkpt lat="44.52906" lon="2.73078">
        <ele>332.6</ele>
        <time>2021-08-18T11:06:08Z</time>
      </trkpt>
      <trkpt lat="44.52912" lon="2.73079">
        <ele>332.5</ele>
        <time>2021-08-18T11:06:10Z</time>
      </trkpt>
      <trkpt lat="44.52918" lon="2.7308">
        <ele>332.5</ele>
        <time>2021-08-18T11:06:12Z</time>
      </trkpt>
      <trkpt lat="44.52923" lon="2.7308">
        <ele>332.3</ele>
        <time>2021-08-18T11:06:14Z</time>
      </trkpt>
      <trkpt lat="44.52928" lon="2.73079">
        <ele>332.2</ele>
        <time>2021-08-18T11:06:16Z</time>
      </trkpt>
      <trkpt lat="44.52934" lon="2.73077">
        <ele>332.1</ele>
        <time>2021-08-18T11:06:18Z</time>
      </trkpt>
      <trkpt lat="44.52939" lon="2.73076">
        <ele>332.1</ele>
        <time>2021-08-18T11:06:20Z</time>
      </trkpt>
      <trkpt lat="44.52944" lon="2.73073">
        <ele>332.2</ele>
        <time>2021-08-18T11:06:22Z</time>
      </trkpt>
      <trkpt lat="44.52948" lon="2.73069">
        <ele>332.5</ele>
        <time>2021-08-18T11:06:24Z</time>
      </trkpt>
      <trkpt lat="44.52953" lon="2.73065">
        <ele>332.8</ele>
        <time>2021-08-18T11:06:26Z</time>
      </trkpt>
      <trkpt lat="44.52957" lon="2.7306">
        <ele>333.2</ele>
        <time>2021-08-18T11:06:28Z</time>
      </trkpt>
      <trkpt lat="44.52961" lon="2.73056">
        <ele>333.5</ele>
        <time>2021-08-18T11:06:30Z</time>
      </trkpt>
      <trkpt lat="44.52966" lon="2.73051">
        <ele>333.8</ele>
        <time>2021-08-18T11:06:32Z</time>
      </trkpt>
      <trkpt lat="44.52969" lon="2.73046">
        <ele>334.2</ele>
        <time>2021-08-18T11:06:34Z</time>
      </trkpt>
      <trkpt lat="44.52973" lon="2.73041">
        <ele>334.5</ele>
        <time>2021-08-18T11:06:36Z</time>
      </trkpt>
      <trkpt lat="44.52976" lon="2.73036">
        <ele>334.9</ele>
        <time>2021-08-18T11:06:38Z</time>
      </trkpt>
      <trkpt lat="44.52979" lon="2.73031">
        <ele>335.3</ele>
        <time>2021-08-18T11:06:40Z</time>
      </trkpt>
      <trkpt lat="44.52982" lon="2.73027">
        <ele>335.5</ele>
        <time>2021-08-18T11:06:42Z</time>
      </trkpt>
      <trkpt lat="44.52986" lon="2.73021">
        <ele>335.8</ele>
        <time>2021-08-18T11:06:44Z</time>
      </trkpt>
      <trkpt lat="44.52989" lon="2.73015">
        <ele>336.2</ele>
        <time>2021-08-18T11:06:46Z</time>
      </trkpt>
      <trkpt lat="44.52993" lon="2.7301">
        <ele>336.5</ele>
        <time>2021-08-18T11:06:48Z</time>
      </trkpt>
      <trkpt lat="44.52997" lon="2.73006">
        <ele>336.7</ele>
        <time>2021-08-18T11:06:50Z</time>
      </trkpt>
      <trkpt lat="44.53001" lon="2.73">
        <ele>336.9</ele>
        <time>2021-08-18T11:06:52Z</time>
      </trkpt>
      <trkpt lat="44.53005" lon="2.72995">
        <ele>337.3</ele>
        <time>2021-08-18T11:06:54Z</time>
      </trkpt>
      <trkpt lat="44.53009" lon="2.72991">
        <ele>337.5</ele>
        <time>2021-08-18T11:06:56Z</time>
      </trkpt>
      <trkpt lat="44.53012" lon="2.72986">
        <ele>338</ele>
        <time>2021-08-18T11:06:58Z</time>
      </trkpt>
      <trkpt lat="44.53017" lon="2.72982">
        <ele>338</ele>
        <time>2021-08-18T11:07:00Z</time>
      </trkpt>
      <trkpt lat="44.5302" lon="2.72977">
        <ele>338.4</ele>
        <time>2021-08-18T11:07:02Z</time>
      </trkpt>
      <trkpt lat="44.53024" lon="2.72972">
        <ele>338.6</ele>
        <time>2021-08-18T11:07:04Z</time>
      </trkpt>
      <trkpt lat="44.53028" lon="2.72966">
        <ele>339</ele>
        <time>2021-08-18T11:07:06Z</time>
      </trkpt>
      <trkpt lat="44.53031" lon="2.72961">
        <ele>339.5</ele>
        <time>2021-08-18T11:07:08Z</time>
      </trkpt>
      <trkpt lat="44.53035" lon="2.72956">
        <ele>339.6</ele>
        <time>2021-08-18T11:07:10Z</time>
      </trkpt>
      <trkpt lat="44.53039" lon="2.7295">
        <ele>339.9</ele>
        <time>2021-08-18T11:07:12Z</time>
      </trkpt>
      <trkpt lat="44.53041" lon="2.72944">
        <ele>340.4</ele>
        <time>2021-08-18T11:07:14Z</time>
      </trkpt>
      <trkpt lat="44.53044" lon="2.72938">
        <ele>340.9</ele>
        <time>2021-08-18T11:07:16Z</time>
      </trkpt>
      <trkpt lat="44.53047" lon="2.72933">
        <ele>341.1</ele>
        <time>2021-08-18T11:07:18Z</time>
      </trkpt>
      <trkpt lat="44.5305" lon="2.72927">
        <ele>341.5</ele>
        <time>2021-08-18T11:07:20Z</time>
      </trkpt>
      <trkpt lat="44.53053" lon="2.7292">
        <ele>341.9</ele>
        <time>2021-08-18T11:07:22Z</time>
      </trkpt>
      <trkpt lat="44.53056" lon="2.72915">
        <ele>342.4</ele>
        <time>2021-08-18T11:07:24Z</time>
      </trkpt>
      <trkpt lat="44.53059" lon="2.72908">
        <ele>343.4</ele>
        <time>2021-08-18T11:07:26Z</time>
      </trkpt>
      <trkpt lat="44.53063" lon="2.72901">
        <ele>344.6</ele>
        <time>2021-08-18T11:07:28Z</time>
      </trkpt>
      <trkpt lat="44.53065" lon="2.72893">
        <ele>346.2</ele>
        <time>2021-08-18T11:07:30Z</time>
      </trkpt>
      <trkpt lat="44.53069" lon="2.72887">
        <ele>347.3</ele>
        <time>2021-08-18T11:07:32Z</time>
      </trkpt>
      <trkpt lat="44.53074" lon="2.7288">
        <ele>348.4</ele>
        <time>2021-08-18T11:07:34Z</time>
      </trkpt>
      <trkpt lat="44.53079" lon="2.72874">
        <ele>349.5</ele>
        <time>2021-08-18T11:07:36Z</time>
      </trkpt>
      <trkpt lat="44.53084" lon="2.72867">
        <ele>350.7</ele>
        <time>2021-08-18T11:07:38Z</time>
      </trkpt>
      <trkpt lat="44.5309" lon="2.72861">
        <ele>350.6</ele>
        <time>2021-08-18T11:07:40Z</time>
      </trkpt>
      <trkpt lat="44.53097" lon="2.72856">
        <ele>350.4</ele>
        <time>2021-08-18T11:07:42Z</time>
      </trkpt>
      <trkpt lat="44.53103" lon="2.7285">
        <ele>350.2</ele>
        <time>2021-08-18T11:07:44Z</time>
      </trkpt>
      <trkpt lat="44.53109" lon="2.72845">
        <ele>349.8</ele>
        <time>2021-08-18T11:07:46Z</time>
      </trkpt>
      <trkpt lat="44.53116" lon="2.72839">
        <ele>349.2</ele>
        <time>2021-08-18T11:07:48Z</time>
      </trkpt>
      <trkpt lat="44.53124" lon="2.72832">
        <ele>349</ele>
        <time>2021-08-18T11:07:50Z</time>
      </trkpt>
      <trkpt lat="44.53132" lon="2.72826">
        <ele>348.6</ele>
        <time>2021-08-18T11:07:52Z</time>
      </trkpt>
      <trkpt lat="44.5314" lon="2.72819">
        <ele>348.7</ele>
        <time>2021-08-18T11:07:54Z</time>
      </trkpt>
      <trkpt lat="44.5315" lon="2.72816">
        <ele>346.8</ele>
        <time>2021-08-18T11:07:56Z</time>
      </trkpt>
      <trkpt lat="44.5316" lon="2.72813">
        <ele>344.7</ele>
        <time>2021-08-18T11:07:58Z</time>
      </trkpt>
      <trkpt lat="44.53171" lon="2.72809">
        <ele>343.3</ele>
        <time>2021-08-18T11:08:00Z</time>
      </trkpt>
      <trkpt lat="44.53182" lon="2.72806">
        <ele>342.8</ele>
        <time>2021-08-18T11:08:02Z</time>
      </trkpt>
      <trkpt lat="44.53193" lon="2.72803">
        <ele>342</ele>
        <time>2021-08-18T11:08:04Z</time>
      </trkpt>
      <trkpt lat="44.53205" lon="2.72801">
        <ele>340.8</ele>
        <time>2021-08-18T11:08:06Z</time>
      </trkpt>
      <trkpt lat="44.53217" lon="2.72798">
        <ele>339.6</ele>
        <time>2021-08-18T11:08:08Z</time>
      </trkpt>
      <trkpt lat="44.53229" lon="2.72794">
        <ele>338.3</ele>
        <time>2021-08-18T11:08:10Z</time>
      </trkpt>
      <trkpt lat="44.5324" lon="2.72788">
        <ele>337.3</ele>
        <time>2021-08-18T11:08:12Z</time>
      </trkpt>
      <trkpt lat="44.53251" lon="2.7278">
        <ele>336</ele>
        <time>2021-08-18T11:08:14Z</time>
      </trkpt>
      <trkpt lat="44.53262" lon="2.72771">
        <ele>335.6</ele>
        <time>2021-08-18T11:08:16Z</time>
      </trkpt>
      <trkpt lat="44.53273" lon="2.72761">
        <ele>335.2</ele>
        <time>2021-08-18T11:08:18Z</time>
      </trkpt>
      <trkpt lat="44.53282" lon="2.72751">
        <ele>334.7</ele>
        <time>2021-08-18T11:08:20Z</time>
      </trkpt>
      <trkpt lat="44.5329" lon="2.72743">
        <ele>335.2</ele>
        <time>2021-08-18T11:08:22Z</time>
      </trkpt>
      <trkpt lat="44.53297" lon="2.72737">
        <ele>335.3</ele>
        <time>2021-08-18T11:08:24Z</time>
      </trkpt>
      <trkpt lat="44.53302" lon="2.72733">
        <ele>335.1</ele>
        <time>2021-08-18T11:08:26Z</time>
      </trkpt>
      <trkpt lat="44.53307" lon="2.72729">
        <ele>334.8</ele>
        <time>2021-08-18T11:08:28Z</time>
      </trkpt>
      <trkpt lat="44.53311" lon="2.72725">
        <ele>334.5</ele>
        <time>2021-08-18T11:08:30Z</time>
      </trkpt>
      <trkpt lat="44.53316" lon="2.72721">
        <ele>334.1</ele>
        <time>2021-08-18T11:08:32Z</time>
      </trkpt>
      <trkpt lat="44.53321" lon="2.72716">
        <ele>333.4</ele>
        <time>2021-08-18T11:08:34Z</time>
      </trkpt>
      <trkpt lat="44.53328" lon="2.72714">
        <ele>332</ele>
        <time>2021-08-18T11:08:36Z</time>
      </trkpt>
      <trkpt lat="44.53333" lon="2.72719">
        <ele>330.3</ele>
        <time>2021-08-18T11:08:38Z</time>
      </trkpt>
      <trkpt lat="44.53337" lon="2.72727">
        <ele>329.5</ele>
        <time>2021-08-18T11:08:40Z</time>
      </trkpt>
      <trkpt lat="44.53341" lon="2.72735">
        <ele>328.7</ele>
        <time>2021-08-18T11:08:42Z</time>
      </trkpt>
      <trkpt lat="44.53345" lon="2.72743">
        <ele>328</ele>
        <time>2021-08-18T11:08:44Z</time>
      </trkpt>
      <trkpt lat="44.53349" lon="2.72751">
        <ele>327.4</ele>
        <time>2021-08-18T11:08:46Z</time>
      </trkpt>
      <trkpt lat="44.53352" lon="2.72758">
        <ele>327.1</ele>
        <time>2021-08-18T11:08:48Z</time>
      </trkpt>
      <trkpt lat="44.53355" lon="2.72764">
        <ele>326.9</ele>
        <time>2021-08-18T11:08:50Z</time>
      </trkpt>
      <trkpt lat="44.53357" lon="2.72768">
        <ele>326.7</ele>
        <time>2021-08-18T11:08:52Z</time>
      </trkpt>
      <trkpt lat="44.53359" lon="2.72771">
        <ele>326.6</ele>
        <time>2021-08-18T11:08:54Z</time>
      </trkpt>
      <trkpt lat="44.53364" lon="2.72775">
        <ele>326.3</ele>
        <time>2021-08-18T11:08:56Z</time>
      </trkpt>
      <trkpt lat="44.5337" lon="2.72776">
        <ele>326.1</ele>
        <time>2021-08-18T11:08:58Z</time>
      </trkpt>
      <trkpt lat="44.53377" lon="2.72776">
        <ele>325.8</ele>
        <time>2021-08-18T11:09:00Z</time>
      </trkpt>
      <trkpt lat="44.53383" lon="2.72775">
        <ele>325.6</ele>
        <time>2021-08-18T11:09:02Z</time>
      </trkpt>
      <trkpt lat="44.5339" lon="2.72774">
        <ele>325.4</ele>
        <time>2021-08-18T11:09:04Z</time>
      </trkpt>
      <trkpt lat="44.53397" lon="2.72773">
        <ele>325.2</ele>
        <time>2021-08-18T11:09:06Z</time>
      </trkpt>
      <trkpt lat="44.53404" lon="2.72771">
        <ele>325</ele>
        <time>2021-08-18T11:09:08Z</time>
      </trkpt>
      <trkpt lat="44.5341" lon="2.7277">
        <ele>324.8</ele>
        <time>2021-08-18T11:09:10Z</time>
      </trkpt>
      <trkpt lat="44.53415" lon="2.72769">
        <ele>324.6</ele>
        <time>2021-08-18T11:09:12Z</time>
      </trkpt>
      <trkpt lat="44.53421" lon="2.72768">
        <ele>324.5</ele>
        <time>2021-08-18T11:09:14Z</time>
      </trkpt>
      <trkpt lat="44.53425" lon="2.72769">
        <ele>324.4</ele>
        <time>2021-08-18T11:09:16Z</time>
      </trkpt>
      <trkpt lat="44.53429" lon="2.72772">
        <ele>324.3</ele>
        <time>2021-08-18T11:09:18Z</time>
      </trkpt>
      <trkpt lat="44.53432" lon="2.72778">
        <ele>324.1</ele>
        <time>2021-08-18T11:09:20Z</time>
      </trkpt>
      <trkpt lat="44.53434" lon="2.72782">
        <ele>324</ele>
        <time>2021-08-18T11:09:22Z</time>
      </trkpt>
      <trkpt lat="44.53435" lon="2.72782">
        <ele>324</ele>
        <time>2021-08-18T11:09:24Z</time>
      </trkpt>
      <trkpt lat="44.53435" lon="2.72782">
        <ele>324</ele>
        <time>2021-08-18T11:09:26Z</time>
      </trkpt>
      <trkpt lat="44.53435" lon="2.72782">
        <ele>324</ele>
        <time>2021-08-18T11:09:28Z</time>
      </trkpt>
      <trkpt lat="44.53435" lon="2.72782">
        <ele>324</ele>
        <time>2021-08-18T11:09:30Z</time>
      </trkpt>
      <trkpt lat="44.53435" lon="2.72782">
        <ele>324</ele>
        <time>2021-08-18T11:09:32Z</time>
      </trkpt>
      <trkpt lat="44.53408" lon="2.72773">
        <ele>324.8</ele>
        <time>2021-08-18T12:41:48Z</time>
      </trkpt>
      <trkpt lat="44.53406" lon="2.72773">
        <ele>324.8</ele>
        <time>2021-08-18T12:41:50Z</time>
      </trkpt>
      <trkpt lat="44.53403" lon="2.72774">
        <ele>324.9</ele>
        <time>2021-08-18T12:41:52Z</time>
      </trkpt>
      <trkpt lat="44.53401" lon="2.72775">
        <ele>325</ele>
        <time>2021-08-18T12:41:54Z</time>
      </trkpt>
      <trkpt lat="44.53398" lon="2.72775">
        <ele>325.1</ele>
        <time>2021-08-18T12:41:56Z</time>
      </trkpt>
      <trkpt lat="44.53395" lon="2.72775">
        <ele>325.2</ele>
        <time>2021-08-18T12:41:58Z</time>
      </trkpt>
      <trkpt lat="44.53392" lon="2.72775">
        <ele>325.3</ele>
        <time>2021-08-18T12:42:00Z</time>
      </trkpt>
      <trkpt lat="44.5339" lon="2.72776">
        <ele>325.3</ele>
        <time>2021-08-18T12:42:02Z</time>
      </trkpt>
      <trkpt lat="44.53387" lon="2.72776">
        <ele>325.4</ele>
        <time>2021-08-18T12:42:04Z</time>
      </trkpt>
      <trkpt lat="44.53384" lon="2.72777">
        <ele>325.5</ele>
        <time>2021-08-18T12:42:06Z</time>
      </trkpt>
      <trkpt lat="44.53381" lon="2.72778">
        <ele>325.6</ele>
        <time>2021-08-18T12:42:08Z</time>
      </trkpt>
      <trkpt lat="44.53378" lon="2.72778">
        <ele>325.7</ele>
        <time>2021-08-18T12:42:10Z</time>
      </trkpt>
      <trkpt lat="44.53375" lon="2.72778">
        <ele>325.8</ele>
        <time>2021-08-18T12:42:12Z</time>
      </trkpt>
      <trkpt lat="44.53373" lon="2.72778">
        <ele>325.9</ele>
        <time>2021-08-18T12:42:14Z</time>
      </trkpt>
      <trkpt lat="44.5337" lon="2.72778">
        <ele>326</ele>
        <time>2021-08-18T12:42:16Z</time>
      </trkpt>
      <trkpt lat="44.53368" lon="2.72777">
        <ele>326.1</ele>
        <time>2021-08-18T12:42:18Z</time>
      </trkpt>
      <trkpt lat="44.53365" lon="2.72777">
        <ele>326.2</ele>
        <time>2021-08-18T12:42:20Z</time>
      </trkpt>
      <trkpt lat="44.53362" lon="2.72775">
        <ele>326.4</ele>
        <time>2021-08-18T12:42:22Z</time>
      </trkpt>
      <trkpt lat="44.5336" lon="2.72773">
        <ele>326.5</ele>
        <time>2021-08-18T12:42:24Z</time>
      </trkpt>
      <trkpt lat="44.53357" lon="2.7277">
        <ele>326.7</ele>
        <time>2021-08-18T12:42:26Z</time>
      </trkpt>
      <trkpt lat="44.53355" lon="2.72767">
        <ele>326.8</ele>
        <time>2021-08-18T12:42:28Z</time>
      </trkpt>
      <trkpt lat="44.53353" lon="2.72763">
        <ele>327</ele>
        <time>2021-08-18T12:42:30Z</time>
      </trkpt>
      <trkpt lat="44.53351" lon="2.72761">
        <ele>327.1</ele>
        <time>2021-08-18T12:42:32Z</time>
      </trkpt>
      <trkpt lat="44.5335" lon="2.72758">
        <ele>327.2</ele>
        <time>2021-08-18T12:42:34Z</time>
      </trkpt>
      <trkpt lat="44.53347" lon="2.72756">
        <ele>327.4</ele>
        <time>2021-08-18T12:42:36Z</time>
      </trkpt>
      <trkpt lat="44.53347" lon="2.72753">
        <ele>327.4</ele>
        <time>2021-08-18T12:42:38Z</time>
      </trkpt>
      <trkpt lat="44.53346" lon="2.7275">
        <ele>327.6</ele>
        <time>2021-08-18T12:42:40Z</time>
      </trkpt>
      <trkpt lat="44.53344" lon="2.72747">
        <ele>327.8</ele>
        <time>2021-08-18T12:42:42Z</time>
      </trkpt>
      <trkpt lat="44.53342" lon="2.72744">
        <ele>328.1</ele>
        <time>2021-08-18T12:42:44Z</time>
      </trkpt>
      <trkpt lat="44.53341" lon="2.72741">
        <ele>328.3</ele>
        <time>2021-08-18T12:42:46Z</time>
      </trkpt>
      <trkpt lat="44.53339" lon="2.7274">
        <ele>328.5</ele>
        <time>2021-08-18T12:42:48Z</time>
      </trkpt>
      <trkpt lat="44.53338" lon="2.72736">
        <ele>328.8</ele>
        <time>2021-08-18T12:42:50Z</time>
      </trkpt>
      <trkpt lat="44.53337" lon="2.72733">
        <ele>329</ele>
        <time>2021-08-18T12:42:52Z</time>
      </trkpt>
      <trkpt lat="44.53337" lon="2.72731">
        <ele>329.2</ele>
        <time>2021-08-18T12:42:54Z</time>
      </trkpt>
      <trkpt lat="44.53335" lon="2.72728">
        <ele>329.5</ele>
        <time>2021-08-18T12:42:56Z</time>
      </trkpt>
      <trkpt lat="44.53332" lon="2.72726">
        <ele>330</ele>
        <time>2021-08-18T12:42:58Z</time>
      </trkpt>
      <trkpt lat="44.5333" lon="2.72725">
        <ele>330.6</ele>
        <time>2021-08-18T12:43:00Z</time>
      </trkpt>
      <trkpt lat="44.53328" lon="2.72723">
        <ele>331.2</ele>
        <time>2021-08-18T12:43:02Z</time>
      </trkpt>
      <trkpt lat="44.53328" lon="2.72723">
        <ele>331.2</ele>
        <time>2021-08-18T12:43:04Z</time>
      </trkpt>
      <trkpt lat="44.53328" lon="2.72723">
        <ele>331.2</ele>
        <time>2021-08-18T12:43:06Z</time>
      </trkpt>
      <trkpt lat="44.53328" lon="2.72723">
        <ele>331.1</ele>
        <time>2021-08-18T12:43:08Z</time>
      </trkpt>
      <trkpt lat="44.53328" lon="2.72723">
        <ele>331.1</ele>
        <time>2021-08-18T12:43:10Z</time>
      </trkpt>
      <trkpt lat="44.53333" lon="2.72711">
        <ele>330.8</ele>
        <time>2021-08-18T12:44:02Z</time>
      </trkpt>
      <trkpt lat="44.53336" lon="2.7271">
        <ele>330.7</ele>
        <time>2021-08-18T12:44:04Z</time>
      </trkpt>
      <trkpt lat="44.53338" lon="2.72707">
        <ele>330.8</ele>
        <time>2021-08-18T12:44:06Z</time>
      </trkpt>
      <trkpt lat="44.53342" lon="2.72704">
        <ele>330.7</ele>
        <time>2021-08-18T12:44:08Z</time>
      </trkpt>
      <trkpt lat="44.53344" lon="2.72701">
        <ele>330.8</ele>
        <time>2021-08-18T12:44:10Z</time>
      </trkpt>
      <trkpt lat="44.53346" lon="2.72699">
        <ele>330.8</ele>
        <time>2021-08-18T12:44:12Z</time>
      </trkpt>
      <trkpt lat="44.53348" lon="2.72696">
        <ele>330.8</ele>
        <time>2021-08-18T12:44:14Z</time>
      </trkpt>
      <trkpt lat="44.5335" lon="2.72693">
        <ele>330.8</ele>
        <time>2021-08-18T12:44:16Z</time>
      </trkpt>
      <trkpt lat="44.53354" lon="2.72691">
        <ele>330.6</ele>
        <time>2021-08-18T12:44:18Z</time>
      </trkpt>
      <trkpt lat="44.53357" lon="2.72687">
        <ele>330.6</ele>
        <time>2021-08-18T12:44:20Z</time>
      </trkpt>
      <trkpt lat="44.53361" lon="2.72684">
        <ele>330.4</ele>
        <time>2021-08-18T12:44:22Z</time>
      </trkpt>
      <trkpt lat="44.53365" lon="2.7268">
        <ele>330.3</ele>
        <time>2021-08-18T12:44:24Z</time>
      </trkpt>
      <trkpt lat="44.53369" lon="2.72676">
        <ele>330.1</ele>
        <time>2021-08-18T12:44:26Z</time>
      </trkpt>
      <trkpt lat="44.53374" lon="2.72671">
        <ele>329.9</ele>
        <time>2021-08-18T12:44:28Z</time>
      </trkpt>
      <trkpt lat="44.53379" lon="2.72666">
        <ele>329.7</ele>
        <time>2021-08-18T12:44:30Z</time>
      </trkpt>
      <trkpt lat="44.53384" lon="2.72662">
        <ele>329.8</ele>
        <time>2021-08-18T12:44:32Z</time>
      </trkpt>
      <trkpt lat="44.53389" lon="2.72657">
        <ele>329.7</ele>
        <time>2021-08-18T12:44:34Z</time>
      </trkpt>
      <trkpt lat="44.53393" lon="2.72651">
        <ele>329.8</ele>
        <time>2021-08-18T12:44:36Z</time>
      </trkpt>
      <trkpt lat="44.53398" lon="2.72644">
        <ele>329.7</ele>
        <time>2021-08-18T12:44:38Z</time>
      </trkpt>
      <trkpt lat="44.53403" lon="2.72639">
        <ele>329.3</ele>
        <time>2021-08-18T12:44:40Z</time>
      </trkpt>
      <trkpt lat="44.53407" lon="2.72633">
        <ele>329</ele>
        <time>2021-08-18T12:44:42Z</time>
      </trkpt>
      <trkpt lat="44.53411" lon="2.72626">
        <ele>328.5</ele>
        <time>2021-08-18T12:44:44Z</time>
      </trkpt>
      <trkpt lat="44.53416" lon="2.72621">
        <ele>327.7</ele>
        <time>2021-08-18T12:44:46Z</time>
      </trkpt>
      <trkpt lat="44.53421" lon="2.72614">
        <ele>327.7</ele>
        <time>2021-08-18T12:44:48Z</time>
      </trkpt>
      <trkpt lat="44.53424" lon="2.72607">
        <ele>327.7</ele>
        <time>2021-08-18T12:44:50Z</time>
      </trkpt>
      <trkpt lat="44.53428" lon="2.726">
        <ele>327.8</ele>
        <time>2021-08-18T12:44:52Z</time>
      </trkpt>
      <trkpt lat="44.53433" lon="2.72593">
        <ele>327.7</ele>
        <time>2021-08-18T12:44:54Z</time>
      </trkpt>
      <trkpt lat="44.53437" lon="2.72585">
        <ele>327.7</ele>
        <time>2021-08-18T12:44:56Z</time>
      </trkpt>
      <trkpt lat="44.5344" lon="2.72578">
        <ele>328.2</ele>
        <time>2021-08-18T12:44:58Z</time>
      </trkpt>
      <trkpt lat="44.53444" lon="2.72572">
        <ele>328.7</ele>
        <time>2021-08-18T12:45:00Z</time>
      </trkpt>
      <trkpt lat="44.53449" lon="2.72565">
        <ele>329.1</ele>
        <time>2021-08-18T12:45:02Z</time>
      </trkpt>
      <trkpt lat="44.53452" lon="2.72558">
        <ele>329.6</ele>
        <time>2021-08-18T12:45:04Z</time>
      </trkpt>
      <trkpt lat="44.53456" lon="2.72551">
        <ele>329.9</ele>
        <time>2021-08-18T12:45:06Z</time>
      </trkpt>
      <trkpt lat="44.5346" lon="2.72545">
        <ele>330</ele>
        <time>2021-08-18T12:45:08Z</time>
      </trkpt>
      <trkpt lat="44.53463" lon="2.72537">
        <ele>330.3</ele>
        <time>2021-08-18T12:45:10Z</time>
      </trkpt>
      <trkpt lat="44.53467" lon="2.72531">
        <ele>330.3</ele>
        <time>2021-08-18T12:45:12Z</time>
      </trkpt>
      <trkpt lat="44.5347" lon="2.72524">
        <ele>330.3</ele>
        <time>2021-08-18T12:45:14Z</time>
      </trkpt>
      <trkpt lat="44.53473" lon="2.72518">
        <ele>330.3</ele>
        <time>2021-08-18T12:45:16Z</time>
      </trkpt>
      <trkpt lat="44.53476" lon="2.72512">
        <ele>330.1</ele>
        <time>2021-08-18T12:45:18Z</time>
      </trkpt>
      <trkpt lat="44.53479" lon="2.72506">
        <ele>330</ele>
        <time>2021-08-18T12:45:20Z</time>
      </trkpt>
      <trkpt lat="44.53481" lon="2.725">
        <ele>329.9</ele>
        <time>2021-08-18T12:45:22Z</time>
      </trkpt>
      <trkpt lat="44.53483" lon="2.72493">
        <ele>330</ele>
        <time>2021-08-18T12:45:24Z</time>
      </trkpt>
      <trkpt lat="44.53485" lon="2.72486">
        <ele>330.1</ele>
        <time>2021-08-18T12:45:26Z</time>
      </trkpt>
      <trkpt lat="44.53486" lon="2.72479">
        <ele>330.2</ele>
        <time>2021-08-18T12:45:28Z</time>
      </trkpt>
      <trkpt lat="44.53487" lon="2.72472">
        <ele>330.4</ele>
        <time>2021-08-18T12:45:30Z</time>
      </trkpt>
      <trkpt lat="44.53488" lon="2.72464">
        <ele>330.7</ele>
        <time>2021-08-18T12:45:32Z</time>
      </trkpt>
      <trkpt lat="44.53489" lon="2.72457">
        <ele>331</ele>
        <time>2021-08-18T12:45:34Z</time>
      </trkpt>
      <trkpt lat="44.53489" lon="2.72448">
        <ele>331.4</ele>
        <time>2021-08-18T12:45:36Z</time>
      </trkpt>
      <trkpt lat="44.5349" lon="2.72439">
        <ele>331.7</ele>
        <time>2021-08-18T12:45:38Z</time>
      </trkpt>
      <trkpt lat="44.53491" lon="2.72429">
        <ele>332</ele>
        <time>2021-08-18T12:45:40Z</time>
      </trkpt>
      <trkpt lat="44.53492" lon="2.72421">
        <ele>332.2</ele>
        <time>2021-08-18T12:45:42Z</time>
      </trkpt>
      <trkpt lat="44.53494" lon="2.72412">
        <ele>332.5</ele>
        <time>2021-08-18T12:45:44Z</time>
      </trkpt>
      <trkpt lat="44.53496" lon="2.72403">
        <ele>332.8</ele>
        <time>2021-08-18T12:45:46Z</time>
      </trkpt>
      <trkpt lat="44.53498" lon="2.72395">
        <ele>333.3</ele>
        <time>2021-08-18T12:45:48Z</time>
      </trkpt>
      <trkpt lat="44.535" lon="2.72387">
        <ele>333.5</ele>
        <time>2021-08-18T12:45:50Z</time>
      </trkpt>
      <trkpt lat="44.53502" lon="2.72379">
        <ele>334.2</ele>
        <time>2021-08-18T12:45:52Z</time>
      </trkpt>
      <trkpt lat="44.53504" lon="2.72372">
        <ele>334.8</ele>
        <time>2021-08-18T12:45:54Z</time>
      </trkpt>
      <trkpt lat="44.53507" lon="2.72365">
        <ele>335.3</ele>
        <time>2021-08-18T12:45:56Z</time>
      </trkpt>
      <trkpt lat="44.5351" lon="2.72358">
        <ele>335.7</ele>
        <time>2021-08-18T12:45:58Z</time>
      </trkpt>
      <trkpt lat="44.53513" lon="2.72351">
        <ele>335.9</ele>
        <time>2021-08-18T12:46:00Z</time>
      </trkpt>
      <trkpt lat="44.53517" lon="2.72345">
        <ele>336.1</ele>
        <time>2021-08-18T12:46:02Z</time>
      </trkpt>
      <trkpt lat="44.5352" lon="2.72338">
        <ele>336.2</ele>
        <time>2021-08-18T12:46:04Z</time>
      </trkpt>
      <trkpt lat="44.53524" lon="2.72331">
        <ele>336.3</ele>
        <time>2021-08-18T12:46:06Z</time>
      </trkpt>
      <trkpt lat="44.53528" lon="2.72324">
        <ele>336.5</ele>
        <time>2021-08-18T12:46:08Z</time>
      </trkpt>
      <trkpt lat="44.53531" lon="2.72317">
        <ele>336.7</ele>
        <time>2021-08-18T12:46:10Z</time>
      </trkpt>
      <trkpt lat="44.53535" lon="2.72309">
        <ele>337</ele>
        <time>2021-08-18T12:46:12Z</time>
      </trkpt>
      <trkpt lat="44.53539" lon="2.72301">
        <ele>337.2</ele>
        <time>2021-08-18T12:46:14Z</time>
      </trkpt>
      <trkpt lat="44.53544" lon="2.72293">
        <ele>337.1</ele>
        <time>2021-08-18T12:46:16Z</time>
      </trkpt>
      <trkpt lat="44.53549" lon="2.72286">
        <ele>336.9</ele>
        <time>2021-08-18T12:46:18Z</time>
      </trkpt>
      <trkpt lat="44.53554" lon="2.72279">
        <ele>336.6</ele>
        <time>2021-08-18T12:46:20Z</time>
      </trkpt>
      <trkpt lat="44.53559" lon="2.7227">
        <ele>336.3</ele>
        <time>2021-08-18T12:46:22Z</time>
      </trkpt>
      <trkpt lat="44.53564" lon="2.7226">
        <ele>335.9</ele>
        <time>2021-08-18T12:46:24Z</time>
      </trkpt>
      <trkpt lat="44.5357" lon="2.7225">
        <ele>335.3</ele>
        <time>2021-08-18T12:46:26Z</time>
      </trkpt>
      <trkpt lat="44.53577" lon="2.72242">
        <ele>334.3</ele>
        <time>2021-08-18T12:46:28Z</time>
      </trkpt>
      <trkpt lat="44.53582" lon="2.72232">
        <ele>333.4</ele>
        <time>2021-08-18T12:46:30Z</time>
      </trkpt>
      <trkpt lat="44.53588" lon="2.72222">
        <ele>333.2</ele>
        <time>2021-08-18T12:46:32Z</time>
      </trkpt>
      <trkpt lat="44.53594" lon="2.72213">
        <ele>333</ele>
        <time>2021-08-18T12:46:34Z</time>
      </trkpt>
      <trkpt lat="44.536" lon="2.72204">
        <ele>332.7</ele>
        <time>2021-08-18T12:46:36Z</time>
      </trkpt>
      <trkpt lat="44.53607" lon="2.72195">
        <ele>332.4</ele>
        <time>2021-08-18T12:46:38Z</time>
      </trkpt>
      <trkpt lat="44.53614" lon="2.72187">
        <ele>331.8</ele>
        <time>2021-08-18T12:46:40Z</time>
      </trkpt>
      <trkpt lat="44.53621" lon="2.72179">
        <ele>331.1</ele>
        <time>2021-08-18T12:46:42Z</time>
      </trkpt>
      <trkpt lat="44.53629" lon="2.7217">
        <ele>330.4</ele>
        <time>2021-08-18T12:46:44Z</time>
      </trkpt>
      <trkpt lat="44.53636" lon="2.72162">
        <ele>329.6</ele>
        <time>2021-08-18T12:46:46Z</time>
      </trkpt>
      <trkpt lat="44.53642" lon="2.72153">
        <ele>329.1</ele>
        <time>2021-08-18T12:46:48Z</time>
      </trkpt>
      <trkpt lat="44.53648" lon="2.72143">
        <ele>328.6</ele>
        <time>2021-08-18T12:46:50Z</time>
      </trkpt>
      <trkpt lat="44.53653" lon="2.72132">
        <ele>328.2</ele>
        <time>2021-08-18T12:46:52Z</time>
      </trkpt>
      <trkpt lat="44.53657" lon="2.72121">
        <ele>327.8</ele>
        <time>2021-08-18T12:46:54Z</time>
      </trkpt>
      <trkpt lat="44.5366" lon="2.72109">
        <ele>327.6</ele>
        <time>2021-08-18T12:46:56Z</time>
      </trkpt>
      <trkpt lat="44.53663" lon="2.72097">
        <ele>327.4</ele>
        <time>2021-08-18T12:46:58Z</time>
      </trkpt>
      <trkpt lat="44.53665" lon="2.72087">
        <ele>327.3</ele>
        <time>2021-08-18T12:47:00Z</time>
      </trkpt>
      <trkpt lat="44.53667" lon="2.72077">
        <ele>327.1</ele>
        <time>2021-08-18T12:47:02Z</time>
      </trkpt>
      <trkpt lat="44.53669" lon="2.72066">
        <ele>327.1</ele>
        <time>2021-08-18T12:47:04Z</time>
      </trkpt>
      <trkpt lat="44.53671" lon="2.72056">
        <ele>327.2</ele>
        <time>2021-08-18T12:47:06Z</time>
      </trkpt>
      <trkpt lat="44.53672" lon="2.72047">
        <ele>327.2</ele>
        <time>2021-08-18T12:47:08Z</time>
      </trkpt>
      <trkpt lat="44.53674" lon="2.72037">
        <ele>327.2</ele>
        <time>2021-08-18T12:47:10Z</time>
      </trkpt>
      <trkpt lat="44.53676" lon="2.72028">
        <ele>327.3</ele>
        <time>2021-08-18T12:47:12Z</time>
      </trkpt>
      <trkpt lat="44.53679" lon="2.72019">
        <ele>327.3</ele>
        <time>2021-08-18T12:47:14Z</time>
      </trkpt>
      <trkpt lat="44.53681" lon="2.7201">
        <ele>327.3</ele>
        <time>2021-08-18T12:47:16Z</time>
      </trkpt>
      <trkpt lat="44.53683" lon="2.72001">
        <ele>327.4</ele>
        <time>2021-08-18T12:47:18Z</time>
      </trkpt>
      <trkpt lat="44.53685" lon="2.71992">
        <ele>327.9</ele>
        <time>2021-08-18T12:47:20Z</time>
      </trkpt>
      <trkpt lat="44.53687" lon="2.71984">
        <ele>328.5</ele>
        <time>2021-08-18T12:47:22Z</time>
      </trkpt>
      <trkpt lat="44.5369" lon="2.71976">
        <ele>329</ele>
        <time>2021-08-18T12:47:24Z</time>
      </trkpt>
      <trkpt lat="44.53692" lon="2.71967">
        <ele>329.5</ele>
        <time>2021-08-18T12:47:26Z</time>
      </trkpt>
      <trkpt lat="44.53694" lon="2.7196">
        <ele>329.9</ele>
        <time>2021-08-18T12:47:28Z</time>
      </trkpt>
      <trkpt lat="44.53696" lon="2.71952">
        <ele>330.3</ele>
        <time>2021-08-18T12:47:30Z</time>
      </trkpt>
      <trkpt lat="44.53699" lon="2.71944">
        <ele>330.7</ele>
        <time>2021-08-18T12:47:32Z</time>
      </trkpt>
      <trkpt lat="44.53701" lon="2.71936">
        <ele>331</ele>
        <time>2021-08-18T12:47:34Z</time>
      </trkpt>
      <trkpt lat="44.53703" lon="2.71929">
        <ele>331.3</ele>
        <time>2021-08-18T12:47:36Z</time>
      </trkpt>
      <trkpt lat="44.53705" lon="2.71921">
        <ele>331.6</ele>
        <time>2021-08-18T12:47:38Z</time>
      </trkpt>
      <trkpt lat="44.53707" lon="2.71914">
        <ele>331.8</ele>
        <time>2021-08-18T12:47:40Z</time>
      </trkpt>
      <trkpt lat="44.53709" lon="2.71905">
        <ele>332</ele>
        <time>2021-08-18T12:47:42Z</time>
      </trkpt>
      <trkpt lat="44.5371" lon="2.71898">
        <ele>332.2</ele>
        <time>2021-08-18T12:47:44Z</time>
      </trkpt>
      <trkpt lat="44.53712" lon="2.7189">
        <ele>332.4</ele>
        <time>2021-08-18T12:47:46Z</time>
      </trkpt>
      <trkpt lat="44.53714" lon="2.71883">
        <ele>332.5</ele>
        <time>2021-08-18T12:47:48Z</time>
      </trkpt>
      <trkpt lat="44.53716" lon="2.71875">
        <ele>332.5</ele>
        <time>2021-08-18T12:47:50Z</time>
      </trkpt>
      <trkpt lat="44.53717" lon="2.71867">
        <ele>332.7</ele>
        <time>2021-08-18T12:47:52Z</time>
      </trkpt>
      <trkpt lat="44.53719" lon="2.71859">
        <ele>332.7</ele>
        <time>2021-08-18T12:47:54Z</time>
      </trkpt>
      <trkpt lat="44.53722" lon="2.71851">
        <ele>332.7</ele>
        <time>2021-08-18T12:47:56Z</time>
      </trkpt>
      <trkpt lat="44.53723" lon="2.71843">
        <ele>332.9</ele>
        <time>2021-08-18T12:47:58Z</time>
      </trkpt>
      <trkpt lat="44.53725" lon="2.71835">
        <ele>332.9</ele>
        <time>2021-08-18T12:48:00Z</time>
      </trkpt>
      <trkpt lat="44.53727" lon="2.71827">
        <ele>332.9</ele>
        <time>2021-08-18T12:48:02Z</time>
      </trkpt>
      <trkpt lat="44.53729" lon="2.71819">
        <ele>333</ele>
        <time>2021-08-18T12:48:04Z</time>
      </trkpt>
      <trkpt lat="44.5373" lon="2.71811">
        <ele>333.1</ele>
        <time>2021-08-18T12:48:06Z</time>
      </trkpt>
      <trkpt lat="44.53732" lon="2.71803">
        <ele>333.2</ele>
        <time>2021-08-18T12:48:08Z</time>
      </trkpt>
      <trkpt lat="44.53734" lon="2.71796">
        <ele>333.3</ele>
        <time>2021-08-18T12:48:10Z</time>
      </trkpt>
      <trkpt lat="44.53736" lon="2.71788">
        <ele>333.5</ele>
        <time>2021-08-18T12:48:12Z</time>
      </trkpt>
      <trkpt lat="44.53738" lon="2.71781">
        <ele>333.6</ele>
        <time>2021-08-18T12:48:14Z</time>
      </trkpt>
      <trkpt lat="44.5374" lon="2.71773">
        <ele>333.7</ele>
        <time>2021-08-18T12:48:16Z</time>
      </trkpt>
      <trkpt lat="44.53743" lon="2.71764">
        <ele>333.9</ele>
        <time>2021-08-18T12:48:18Z</time>
      </trkpt>
      <trkpt lat="44.53746" lon="2.71757">
        <ele>334</ele>
        <time>2021-08-18T12:48:20Z</time>
      </trkpt>
      <trkpt lat="44.5375" lon="2.71749">
        <ele>334.2</ele>
        <time>2021-08-18T12:48:22Z</time>
      </trkpt>
      <trkpt lat="44.53753" lon="2.71742">
        <ele>335.3</ele>
        <time>2021-08-18T12:48:24Z</time>
      </trkpt>
      <trkpt lat="44.53757" lon="2.71735">
        <ele>336.3</ele>
        <time>2021-08-18T12:48:26Z</time>
      </trkpt>
      <trkpt lat="44.53761" lon="2.71728">
        <ele>337.2</ele>
        <time>2021-08-18T12:48:28Z</time>
      </trkpt>
      <trkpt lat="44.53766" lon="2.71722">
        <ele>338</ele>
        <time>2021-08-18T12:48:30Z</time>
      </trkpt>
      <trkpt lat="44.53771" lon="2.71716">
        <ele>338.7</ele>
        <time>2021-08-18T12:48:32Z</time>
      </trkpt>
      <trkpt lat="44.53776" lon="2.7171">
        <ele>339.2</ele>
        <time>2021-08-18T12:48:34Z</time>
      </trkpt>
      <trkpt lat="44.53781" lon="2.71705">
        <ele>339.6</ele>
        <time>2021-08-18T12:48:36Z</time>
      </trkpt>
      <trkpt lat="44.53787" lon="2.71701">
        <ele>339.7</ele>
        <time>2021-08-18T12:48:38Z</time>
      </trkpt>
      <trkpt lat="44.53795" lon="2.71699">
        <ele>339.4</ele>
        <time>2021-08-18T12:48:40Z</time>
      </trkpt>
      <trkpt lat="44.53803" lon="2.71697">
        <ele>338.9</ele>
        <time>2021-08-18T12:48:42Z</time>
      </trkpt>
      <trkpt lat="44.53813" lon="2.71698">
        <ele>338</ele>
        <time>2021-08-18T12:48:44Z</time>
      </trkpt>
      <trkpt lat="44.53823" lon="2.717">
        <ele>336.9</ele>
        <time>2021-08-18T12:48:46Z</time>
      </trkpt>
      <trkpt lat="44.53835" lon="2.717">
        <ele>335.8</ele>
        <time>2021-08-18T12:48:48Z</time>
      </trkpt>
      <trkpt lat="44.53848" lon="2.717">
        <ele>334.9</ele>
        <time>2021-08-18T12:48:50Z</time>
      </trkpt>
      <trkpt lat="44.53861" lon="2.71694">
        <ele>334.5</ele>
        <time>2021-08-18T12:48:52Z</time>
      </trkpt>
      <trkpt lat="44.53875" lon="2.71687">
        <ele>334.1</ele>
        <time>2021-08-18T12:48:54Z</time>
      </trkpt>
      <trkpt lat="44.53888" lon="2.71679">
        <ele>333.6</ele>
        <time>2021-08-18T12:48:56Z</time>
      </trkpt>
      <trkpt lat="44.53902" lon="2.7167">
        <ele>333.1</ele>
        <time>2021-08-18T12:48:58Z</time>
      </trkpt>
      <trkpt lat="44.53915" lon="2.71662">
        <ele>333.9</ele>
        <time>2021-08-18T12:49:00Z</time>
      </trkpt>
      <trkpt lat="44.53928" lon="2.71654">
        <ele>335.5</ele>
        <time>2021-08-18T12:49:02Z</time>
      </trkpt>
      <trkpt lat="44.53939" lon="2.71644">
        <ele>337</ele>
        <time>2021-08-18T12:49:04Z</time>
      </trkpt>
      <trkpt lat="44.53951" lon="2.71634">
        <ele>338.1</ele>
        <time>2021-08-18T12:49:06Z</time>
      </trkpt>
      <trkpt lat="44.53962" lon="2.71623">
        <ele>338.6</ele>
        <time>2021-08-18T12:49:08Z</time>
      </trkpt>
      <trkpt lat="44.53973" lon="2.71612">
        <ele>338.6</ele>
        <time>2021-08-18T12:49:10Z</time>
      </trkpt>
      <trkpt lat="44.53984" lon="2.716">
        <ele>338</ele>
        <time>2021-08-18T12:49:12Z</time>
      </trkpt>
      <trkpt lat="44.53995" lon="2.71589">
        <ele>336.8</ele>
        <time>2021-08-18T12:49:14Z</time>
      </trkpt>
      <trkpt lat="44.54004" lon="2.71578">
        <ele>337.5</ele>
        <time>2021-08-18T12:49:16Z</time>
      </trkpt>
      <trkpt lat="44.54014" lon="2.71568">
        <ele>339.6</ele>
        <time>2021-08-18T12:49:18Z</time>
      </trkpt>
      <trkpt lat="44.54023" lon="2.71558">
        <ele>341</ele>
        <time>2021-08-18T12:49:20Z</time>
      </trkpt>
      <trkpt lat="44.54032" lon="2.7155">
        <ele>341.6</ele>
        <time>2021-08-18T12:49:22Z</time>
      </trkpt>
      <trkpt lat="44.54039" lon="2.71541">
        <ele>341.9</ele>
        <time>2021-08-18T12:49:24Z</time>
      </trkpt>
      <trkpt lat="44.54044" lon="2.71534">
        <ele>342</ele>
        <time>2021-08-18T12:49:26Z</time>
      </trkpt>
      <trkpt lat="44.54049" lon="2.71526">
        <ele>342</ele>
        <time>2021-08-18T12:49:28Z</time>
      </trkpt>
      <trkpt lat="44.54053" lon="2.71519">
        <ele>342</ele>
        <time>2021-08-18T12:49:30Z</time>
      </trkpt>
      <trkpt lat="44.54057" lon="2.71512">
        <ele>341.9</ele>
        <time>2021-08-18T12:49:32Z</time>
      </trkpt>
      <trkpt lat="44.54059" lon="2.71505">
        <ele>342.1</ele>
        <time>2021-08-18T12:49:34Z</time>
      </trkpt>
      <trkpt lat="44.54062" lon="2.71498">
        <ele>342.1</ele>
        <time>2021-08-18T12:49:36Z</time>
      </trkpt>
      <trkpt lat="44.54065" lon="2.71492">
        <ele>342.1</ele>
        <time>2021-08-18T12:49:38Z</time>
      </trkpt>
      <trkpt lat="44.54066" lon="2.71485">
        <ele>342.6</ele>
        <time>2021-08-18T12:49:40Z</time>
      </trkpt>
      <trkpt lat="44.54068" lon="2.7148">
        <ele>342.9</ele>
        <time>2021-08-18T12:49:42Z</time>
      </trkpt>
      <trkpt lat="44.5407" lon="2.71475">
        <ele>343</ele>
        <time>2021-08-18T12:49:44Z</time>
      </trkpt>
      <trkpt lat="44.54072" lon="2.71469">
        <ele>342.8</ele>
        <time>2021-08-18T12:49:46Z</time>
      </trkpt>
      <trkpt lat="44.54074" lon="2.71464">
        <ele>342.8</ele>
        <time>2021-08-18T12:49:48Z</time>
      </trkpt>
      <trkpt lat="44.54076" lon="2.71458">
        <ele>343</ele>
        <time>2021-08-18T12:49:50Z</time>
      </trkpt>
      <trkpt lat="44.54077" lon="2.71453">
        <ele>343.4</ele>
        <time>2021-08-18T12:49:52Z</time>
      </trkpt>
      <trkpt lat="44.54078" lon="2.71449">
        <ele>343.4</ele>
        <time>2021-08-18T12:49:54Z</time>
      </trkpt>
      <trkpt lat="44.5408" lon="2.71445">
        <ele>343.5</ele>
        <time>2021-08-18T12:49:56Z</time>
      </trkpt>
      <trkpt lat="44.54081" lon="2.7144">
        <ele>343.6</ele>
        <time>2021-08-18T12:49:58Z</time>
      </trkpt>
      <trkpt lat="44.54083" lon="2.71435">
        <ele>343.6</ele>
        <time>2021-08-18T12:50:00Z</time>
      </trkpt>
      <trkpt lat="44.54085" lon="2.71431">
        <ele>344</ele>
        <time>2021-08-18T12:50:02Z</time>
      </trkpt>
      <trkpt lat="44.54086" lon="2.71426">
        <ele>344.5</ele>
        <time>2021-08-18T12:50:04Z</time>
      </trkpt>
      <trkpt lat="44.54087" lon="2.71421">
        <ele>345</ele>
        <time>2021-08-18T12:50:06Z</time>
      </trkpt>
      <trkpt lat="44.54089" lon="2.71416">
        <ele>345.4</ele>
        <time>2021-08-18T12:50:08Z</time>
      </trkpt>
      <trkpt lat="44.54091" lon="2.71412">
        <ele>345.9</ele>
        <time>2021-08-18T12:50:10Z</time>
      </trkpt>
      <trkpt lat="44.54092" lon="2.71408">
        <ele>346.1</ele>
        <time>2021-08-18T12:50:12Z</time>
      </trkpt>
      <trkpt lat="44.54094" lon="2.71403">
        <ele>346.5</ele>
        <time>2021-08-18T12:50:14Z</time>
      </trkpt>
      <trkpt lat="44.54096" lon="2.71399">
        <ele>346.7</ele>
        <time>2021-08-18T12:50:16Z</time>
      </trkpt>
      <trkpt lat="44.54097" lon="2.71394">
        <ele>347</ele>
        <time>2021-08-18T12:50:18Z</time>
      </trkpt>
      <trkpt lat="44.54099" lon="2.7139">
        <ele>347.2</ele>
        <time>2021-08-18T12:50:20Z</time>
      </trkpt>
      <trkpt lat="44.54101" lon="2.71385">
        <ele>347.3</ele>
        <time>2021-08-18T12:50:22Z</time>
      </trkpt>
      <trkpt lat="44.54103" lon="2.71381">
        <ele>347.4</ele>
        <time>2021-08-18T12:50:24Z</time>
      </trkpt>
      <trkpt lat="44.54104" lon="2.71376">
        <ele>347.5</ele>
        <time>2021-08-18T12:50:26Z</time>
      </trkpt>
      <trkpt lat="44.54106" lon="2.71372">
        <ele>347.6</ele>
        <time>2021-08-18T12:50:28Z</time>
      </trkpt>
      <trkpt lat="44.54108" lon="2.71368">
        <ele>347.6</ele>
        <time>2021-08-18T12:50:30Z</time>
      </trkpt>
      <trkpt lat="44.54109" lon="2.71365">
        <ele>347.4</ele>
        <time>2021-08-18T12:50:32Z</time>
      </trkpt>
      <trkpt lat="44.54111" lon="2.71361">
        <ele>347.4</ele>
        <time>2021-08-18T12:50:34Z</time>
      </trkpt>
      <trkpt lat="44.54112" lon="2.71357">
        <ele>347.4</ele>
        <time>2021-08-18T12:50:36Z</time>
      </trkpt>
      <trkpt lat="44.54114" lon="2.71354">
        <ele>347.3</ele>
        <time>2021-08-18T12:50:38Z</time>
      </trkpt>
      <trkpt lat="44.54115" lon="2.7135">
        <ele>347.4</ele>
        <time>2021-08-18T12:50:40Z</time>
      </trkpt>
      <trkpt lat="44.54117" lon="2.71346">
        <ele>347.3</ele>
        <time>2021-08-18T12:50:42Z</time>
      </trkpt>
      <trkpt lat="44.54118" lon="2.71341">
        <ele>347.3</ele>
        <time>2021-08-18T12:50:44Z</time>
      </trkpt>
      <trkpt lat="44.5412" lon="2.71338">
        <ele>347.2</ele>
        <time>2021-08-18T12:50:46Z</time>
      </trkpt>
      <trkpt lat="44.5412" lon="2.71335">
        <ele>347.3</ele>
        <time>2021-08-18T12:50:48Z</time>
      </trkpt>
      <trkpt lat="44.54122" lon="2.7133">
        <ele>347.2</ele>
        <time>2021-08-18T12:50:50Z</time>
      </trkpt>
      <trkpt lat="44.54124" lon="2.71325">
        <ele>347.1</ele>
        <time>2021-08-18T12:50:52Z</time>
      </trkpt>
      <trkpt lat="44.54125" lon="2.71321">
        <ele>347.2</ele>
        <time>2021-08-18T12:50:54Z</time>
      </trkpt>
      <trkpt lat="44.54126" lon="2.71317">
        <ele>347.3</ele>
        <time>2021-08-18T12:50:56Z</time>
      </trkpt>
      <trkpt lat="44.54127" lon="2.71312">
        <ele>347.4</ele>
        <time>2021-08-18T12:50:58Z</time>
      </trkpt>
      <trkpt lat="44.54128" lon="2.71307">
        <ele>347.7</ele>
        <time>2021-08-18T12:51:00Z</time>
      </trkpt>
      <trkpt lat="44.5413" lon="2.71303">
        <ele>347.5</ele>
        <time>2021-08-18T12:51:02Z</time>
      </trkpt>
      <trkpt lat="44.54132" lon="2.71299">
        <ele>347.2</ele>
        <time>2021-08-18T12:51:04Z</time>
      </trkpt>
      <trkpt lat="44.54133" lon="2.71294">
        <ele>347.2</ele>
        <time>2021-08-18T12:51:06Z</time>
      </trkpt>
      <trkpt lat="44.54134" lon="2.7129">
        <ele>347.4</ele>
        <time>2021-08-18T12:51:08Z</time>
      </trkpt>
      <trkpt lat="44.54136" lon="2.71285">
        <ele>347.3</ele>
        <time>2021-08-18T12:51:10Z</time>
      </trkpt>
      <trkpt lat="44.54137" lon="2.71281">
        <ele>347.1</ele>
        <time>2021-08-18T12:51:12Z</time>
      </trkpt>
      <trkpt lat="44.54138" lon="2.71276">
        <ele>347.1</ele>
        <time>2021-08-18T12:51:14Z</time>
      </trkpt>
      <trkpt lat="44.54139" lon="2.71272">
        <ele>347.4</ele>
        <time>2021-08-18T12:51:16Z</time>
      </trkpt>
      <trkpt lat="44.54141" lon="2.71267">
        <ele>347.2</ele>
        <time>2021-08-18T12:51:18Z</time>
      </trkpt>
      <trkpt lat="44.54142" lon="2.71263">
        <ele>347</ele>
        <time>2021-08-18T12:51:20Z</time>
      </trkpt>
      <trkpt lat="44.54143" lon="2.71259">
        <ele>347.1</ele>
        <time>2021-08-18T12:51:22Z</time>
      </trkpt>
      <trkpt lat="44.54144" lon="2.71254">
        <ele>347.2</ele>
        <time>2021-08-18T12:51:24Z</time>
      </trkpt>
      <trkpt lat="44.54145" lon="2.7125">
        <ele>347.1</ele>
        <time>2021-08-18T12:51:26Z</time>
      </trkpt>
      <trkpt lat="44.54147" lon="2.71246">
        <ele>347.3</ele>
        <time>2021-08-18T12:51:28Z</time>
      </trkpt>
      <trkpt lat="44.54148" lon="2.71242">
        <ele>347.8</ele>
        <time>2021-08-18T12:51:30Z</time>
      </trkpt>
      <trkpt lat="44.54149" lon="2.71236">
        <ele>348.4</ele>
        <time>2021-08-18T12:51:32Z</time>
      </trkpt>
      <trkpt lat="44.5415" lon="2.71231">
        <ele>348.8</ele>
        <time>2021-08-18T12:51:34Z</time>
      </trkpt>
      <trkpt lat="44.54151" lon="2.71226">
        <ele>349.2</ele>
        <time>2021-08-18T12:51:36Z</time>
      </trkpt>
      <trkpt lat="44.54152" lon="2.71221">
        <ele>349.9</ele>
        <time>2021-08-18T12:51:38Z</time>
      </trkpt>
      <trkpt lat="44.54152" lon="2.71216">
        <ele>350.5</ele>
        <time>2021-08-18T12:51:40Z</time>
      </trkpt>
      <trkpt lat="44.54153" lon="2.71211">
        <ele>350.9</ele>
        <time>2021-08-18T12:51:42Z</time>
      </trkpt>
      <trkpt lat="44.54154" lon="2.71206">
        <ele>351.6</ele>
        <time>2021-08-18T12:51:44Z</time>
      </trkpt>
      <trkpt lat="44.54155" lon="2.71201">
        <ele>352.3</ele>
        <time>2021-08-18T12:51:46Z</time>
      </trkpt>
      <trkpt lat="44.54155" lon="2.71196">
        <ele>353.1</ele>
        <time>2021-08-18T12:51:48Z</time>
      </trkpt>
      <trkpt lat="44.54156" lon="2.71191">
        <ele>353.6</ele>
        <time>2021-08-18T12:51:50Z</time>
      </trkpt>
      <trkpt lat="44.54157" lon="2.71186">
        <ele>354.3</ele>
        <time>2021-08-18T12:51:52Z</time>
      </trkpt>
      <trkpt lat="44.54157" lon="2.71181">
        <ele>355</ele>
        <time>2021-08-18T12:51:54Z</time>
      </trkpt>
      <trkpt lat="44.54158" lon="2.71176">
        <ele>355.7</ele>
        <time>2021-08-18T12:51:56Z</time>
      </trkpt>
      <trkpt lat="44.54158" lon="2.71172">
        <ele>356.2</ele>
        <time>2021-08-18T12:51:58Z</time>
      </trkpt>
      <trkpt lat="44.54158" lon="2.71167">
        <ele>357.1</ele>
        <time>2021-08-18T12:52:00Z</time>
      </trkpt>
      <trkpt lat="44.54159" lon="2.71162">
        <ele>357.8</ele>
        <time>2021-08-18T12:52:02Z</time>
      </trkpt>
      <trkpt lat="44.54159" lon="2.71157">
        <ele>358.5</ele>
        <time>2021-08-18T12:52:04Z</time>
      </trkpt>
      <trkpt lat="44.5416" lon="2.71152">
        <ele>359.1</ele>
        <time>2021-08-18T12:52:06Z</time>
      </trkpt>
      <trkpt lat="44.54161" lon="2.71147">
        <ele>359.5</ele>
        <time>2021-08-18T12:52:08Z</time>
      </trkpt>
      <trkpt lat="44.54162" lon="2.71142">
        <ele>360</ele>
        <time>2021-08-18T12:52:10Z</time>
      </trkpt>
      <trkpt lat="44.54162" lon="2.71136">
        <ele>360.7</ele>
        <time>2021-08-18T12:52:12Z</time>
      </trkpt>
      <trkpt lat="44.54162" lon="2.71132">
        <ele>361.5</ele>
        <time>2021-08-18T12:52:14Z</time>
      </trkpt>
      <trkpt lat="44.54163" lon="2.71127">
        <ele>362.1</ele>
        <time>2021-08-18T12:52:16Z</time>
      </trkpt>
      <trkpt lat="44.54163" lon="2.71122">
        <ele>362.6</ele>
        <time>2021-08-18T12:52:18Z</time>
      </trkpt>
      <trkpt lat="44.54163" lon="2.71117">
        <ele>363.5</ele>
        <time>2021-08-18T12:52:20Z</time>
      </trkpt>
      <trkpt lat="44.54164" lon="2.71113">
        <ele>364</ele>
        <time>2021-08-18T12:52:22Z</time>
      </trkpt>
      <trkpt lat="44.54165" lon="2.71107">
        <ele>364.6</ele>
        <time>2021-08-18T12:52:24Z</time>
      </trkpt>
      <trkpt lat="44.54166" lon="2.71102">
        <ele>365.2</ele>
        <time>2021-08-18T12:52:26Z</time>
      </trkpt>
      <trkpt lat="44.54167" lon="2.71097">
        <ele>365.4</ele>
        <time>2021-08-18T12:52:28Z</time>
      </trkpt>
      <trkpt lat="44.54167" lon="2.71092">
        <ele>366.2</ele>
        <time>2021-08-18T12:52:30Z</time>
      </trkpt>
      <trkpt lat="44.54168" lon="2.71088">
        <ele>366.7</ele>
        <time>2021-08-18T12:52:32Z</time>
      </trkpt>
      <trkpt lat="44.54169" lon="2.71083">
        <ele>367</ele>
        <time>2021-08-18T12:52:34Z</time>
      </trkpt>
      <trkpt lat="44.54169" lon="2.71078">
        <ele>367.5</ele>
        <time>2021-08-18T12:52:36Z</time>
      </trkpt>
      <trkpt lat="44.5417" lon="2.71073">
        <ele>367.5</ele>
        <time>2021-08-18T12:52:38Z</time>
      </trkpt>
      <trkpt lat="44.54171" lon="2.71068">
        <ele>367.8</ele>
        <time>2021-08-18T12:52:40Z</time>
      </trkpt>
      <trkpt lat="44.54171" lon="2.71063">
        <ele>368.2</ele>
        <time>2021-08-18T12:52:42Z</time>
      </trkpt>
      <trkpt lat="44.54173" lon="2.71056">
        <ele>368.1</ele>
        <time>2021-08-18T12:52:44Z</time>
      </trkpt>
      <trkpt lat="44.54173" lon="2.71051">
        <ele>368.8</ele>
        <time>2021-08-18T12:52:46Z</time>
      </trkpt>
      <trkpt lat="44.54175" lon="2.71045">
        <ele>368.5</ele>
        <time>2021-08-18T12:52:48Z</time>
      </trkpt>
      <trkpt lat="44.54176" lon="2.71038">
        <ele>368.6</ele>
        <time>2021-08-18T12:52:50Z</time>
      </trkpt>
      <trkpt lat="44.54176" lon="2.71032">
        <ele>369.4</ele>
        <time>2021-08-18T12:52:52Z</time>
      </trkpt>
      <trkpt lat="44.54177" lon="2.71026">
        <ele>369.5</ele>
        <time>2021-08-18T12:52:54Z</time>
      </trkpt>
      <trkpt lat="44.54178" lon="2.7102">
        <ele>369.6</ele>
        <time>2021-08-18T12:52:56Z</time>
      </trkpt>
      <trkpt lat="44.54178" lon="2.71014">
        <ele>369.8</ele>
        <time>2021-08-18T12:52:58Z</time>
      </trkpt>
      <trkpt lat="44.54179" lon="2.71008">
        <ele>370.1</ele>
        <time>2021-08-18T12:53:00Z</time>
      </trkpt>
      <trkpt lat="44.5418" lon="2.71002">
        <ele>370.2</ele>
        <time>2021-08-18T12:53:02Z</time>
      </trkpt>
      <trkpt lat="44.54181" lon="2.70996">
        <ele>370.5</ele>
        <time>2021-08-18T12:53:04Z</time>
      </trkpt>
      <trkpt lat="44.54183" lon="2.7099">
        <ele>370.1</ele>
        <time>2021-08-18T12:53:06Z</time>
      </trkpt>
      <trkpt lat="44.54184" lon="2.70984">
        <ele>370.4</ele>
        <time>2021-08-18T12:53:08Z</time>
      </trkpt>
      <trkpt lat="44.54185" lon="2.70978">
        <ele>370.1</ele>
        <time>2021-08-18T12:53:10Z</time>
      </trkpt>
      <trkpt lat="44.54187" lon="2.70971">
        <ele>369.9</ele>
        <time>2021-08-18T12:53:12Z</time>
      </trkpt>
      <trkpt lat="44.54189" lon="2.70965">
        <ele>369.8</ele>
        <time>2021-08-18T12:53:14Z</time>
      </trkpt>
      <trkpt lat="44.5419" lon="2.70959">
        <ele>369.9</ele>
        <time>2021-08-18T12:53:16Z</time>
      </trkpt>
      <trkpt lat="44.54191" lon="2.70953">
        <ele>369.8</ele>
        <time>2021-08-18T12:53:18Z</time>
      </trkpt>
      <trkpt lat="44.54192" lon="2.70947">
        <ele>369.9</ele>
        <time>2021-08-18T12:53:20Z</time>
      </trkpt>
      <trkpt lat="44.54193" lon="2.70941">
        <ele>370</ele>
        <time>2021-08-18T12:53:22Z</time>
      </trkpt>
      <trkpt lat="44.54194" lon="2.70935">
        <ele>369.9</ele>
        <time>2021-08-18T12:53:24Z</time>
      </trkpt>
      <trkpt lat="44.54195" lon="2.7093">
        <ele>370.3</ele>
        <time>2021-08-18T12:53:26Z</time>
      </trkpt>
      <trkpt lat="44.54195" lon="2.70925">
        <ele>370.4</ele>
        <time>2021-08-18T12:53:28Z</time>
      </trkpt>
      <trkpt lat="44.54196" lon="2.7092">
        <ele>370.7</ele>
        <time>2021-08-18T12:53:30Z</time>
      </trkpt>
      <trkpt lat="44.54197" lon="2.70913">
        <ele>370.9</ele>
        <time>2021-08-18T12:53:32Z</time>
      </trkpt>
      <trkpt lat="44.54198" lon="2.70907">
        <ele>370.8</ele>
        <time>2021-08-18T12:53:34Z</time>
      </trkpt>
      <trkpt lat="44.54198" lon="2.70901">
        <ele>371</ele>
        <time>2021-08-18T12:53:36Z</time>
      </trkpt>
      <trkpt lat="44.54199" lon="2.70895">
        <ele>370.9</ele>
        <time>2021-08-18T12:53:38Z</time>
      </trkpt>
      <trkpt lat="44.54199" lon="2.7089">
        <ele>371.2</ele>
        <time>2021-08-18T12:53:40Z</time>
      </trkpt>
      <trkpt lat="44.542" lon="2.70883">
        <ele>371.3</ele>
        <time>2021-08-18T12:53:42Z</time>
      </trkpt>
      <trkpt lat="44.54201" lon="2.70877">
        <ele>371.5</ele>
        <time>2021-08-18T12:53:44Z</time>
      </trkpt>
      <trkpt lat="44.54201" lon="2.70871">
        <ele>371.7</ele>
        <time>2021-08-18T12:53:46Z</time>
      </trkpt>
      <trkpt lat="44.54201" lon="2.70865">
        <ele>371.9</ele>
        <time>2021-08-18T12:53:48Z</time>
      </trkpt>
      <trkpt lat="44.54202" lon="2.70859">
        <ele>372</ele>
        <time>2021-08-18T12:53:50Z</time>
      </trkpt>
      <trkpt lat="44.54202" lon="2.70853">
        <ele>372.4</ele>
        <time>2021-08-18T12:53:52Z</time>
      </trkpt>
      <trkpt lat="44.54203" lon="2.70847">
        <ele>372.6</ele>
        <time>2021-08-18T12:53:54Z</time>
      </trkpt>
      <trkpt lat="44.54203" lon="2.70842">
        <ele>372.9</ele>
        <time>2021-08-18T12:53:56Z</time>
      </trkpt>
      <trkpt lat="44.54203" lon="2.70836">
        <ele>373.7</ele>
        <time>2021-08-18T12:53:58Z</time>
      </trkpt>
      <trkpt lat="44.54203" lon="2.70831">
        <ele>373.9</ele>
        <time>2021-08-18T12:54:00Z</time>
      </trkpt>
      <trkpt lat="44.54203" lon="2.70826">
        <ele>373.6</ele>
        <time>2021-08-18T12:54:02Z</time>
      </trkpt>
      <trkpt lat="44.54203" lon="2.7082">
        <ele>373.5</ele>
        <time>2021-08-18T12:54:04Z</time>
      </trkpt>
      <trkpt lat="44.54203" lon="2.70815">
        <ele>373.4</ele>
        <time>2021-08-18T12:54:06Z</time>
      </trkpt>
      <trkpt lat="44.54204" lon="2.70809">
        <ele>373.2</ele>
        <time>2021-08-18T12:54:08Z</time>
      </trkpt>
      <trkpt lat="44.54203" lon="2.70804">
        <ele>373.5</ele>
        <time>2021-08-18T12:54:10Z</time>
      </trkpt>
      <trkpt lat="44.54204" lon="2.70799">
        <ele>373.3</ele>
        <time>2021-08-18T12:54:12Z</time>
      </trkpt>
      <trkpt lat="44.54204" lon="2.70793">
        <ele>373.1</ele>
        <time>2021-08-18T12:54:14Z</time>
      </trkpt>
      <trkpt lat="44.54205" lon="2.70788">
        <ele>372.8</ele>
        <time>2021-08-18T12:54:16Z</time>
      </trkpt>
      <trkpt lat="44.54206" lon="2.70783">
        <ele>372.3</ele>
        <time>2021-08-18T12:54:18Z</time>
      </trkpt>
      <trkpt lat="44.54206" lon="2.70778">
        <ele>372</ele>
        <time>2021-08-18T12:54:20Z</time>
      </trkpt>
      <trkpt lat="44.54207" lon="2.70774">
        <ele>371.7</ele>
        <time>2021-08-18T12:54:22Z</time>
      </trkpt>
      <trkpt lat="44.54207" lon="2.7077">
        <ele>371.6</ele>
        <time>2021-08-18T12:54:24Z</time>
      </trkpt>
      <trkpt lat="44.54208" lon="2.70765">
        <ele>370.9</ele>
        <time>2021-08-18T12:54:26Z</time>
      </trkpt>
      <trkpt lat="44.54209" lon="2.7076">
        <ele>370.4</ele>
        <time>2021-08-18T12:54:28Z</time>
      </trkpt>
      <trkpt lat="44.5421" lon="2.70753">
        <ele>370.2</ele>
        <time>2021-08-18T12:54:30Z</time>
      </trkpt>
      <trkpt lat="44.5421" lon="2.70747">
        <ele>370</ele>
        <time>2021-08-18T12:54:32Z</time>
      </trkpt>
      <trkpt lat="44.54211" lon="2.70741">
        <ele>369.7</ele>
        <time>2021-08-18T12:54:34Z</time>
      </trkpt>
      <trkpt lat="44.54212" lon="2.70735">
        <ele>369.5</ele>
        <time>2021-08-18T12:54:36Z</time>
      </trkpt>
      <trkpt lat="44.54214" lon="2.70728">
        <ele>369.1</ele>
        <time>2021-08-18T12:54:38Z</time>
      </trkpt>
      <trkpt lat="44.54215" lon="2.70721">
        <ele>368.9</ele>
        <time>2021-08-18T12:54:40Z</time>
      </trkpt>
      <trkpt lat="44.54215" lon="2.70715">
        <ele>368.9</ele>
        <time>2021-08-18T12:54:42Z</time>
      </trkpt>
      <trkpt lat="44.54216" lon="2.70709">
        <ele>368.7</ele>
        <time>2021-08-18T12:54:44Z</time>
      </trkpt>
      <trkpt lat="44.54217" lon="2.70703">
        <ele>368.8</ele>
        <time>2021-08-18T12:54:46Z</time>
      </trkpt>
      <trkpt lat="44.54217" lon="2.70696">
        <ele>368.8</ele>
        <time>2021-08-18T12:54:48Z</time>
      </trkpt>
      <trkpt lat="44.54218" lon="2.7069">
        <ele>368.8</ele>
        <time>2021-08-18T12:54:50Z</time>
      </trkpt>
      <trkpt lat="44.54219" lon="2.70684">
        <ele>368.8</ele>
        <time>2021-08-18T12:54:52Z</time>
      </trkpt>
      <trkpt lat="44.54219" lon="2.70678">
        <ele>369</ele>
        <time>2021-08-18T12:54:54Z</time>
      </trkpt>
      <trkpt lat="44.54219" lon="2.70672">
        <ele>369.2</ele>
        <time>2021-08-18T12:54:56Z</time>
      </trkpt>
      <trkpt lat="44.5422" lon="2.70665">
        <ele>369.1</ele>
        <time>2021-08-18T12:54:58Z</time>
      </trkpt>
      <trkpt lat="44.54221" lon="2.70659">
        <ele>369</ele>
        <time>2021-08-18T12:55:00Z</time>
      </trkpt>
      <trkpt lat="44.54222" lon="2.70653">
        <ele>368.5</ele>
        <time>2021-08-18T12:55:02Z</time>
      </trkpt>
      <trkpt lat="44.54223" lon="2.70647">
        <ele>368.3</ele>
        <time>2021-08-18T12:55:04Z</time>
      </trkpt>
      <trkpt lat="44.54223" lon="2.7064">
        <ele>368.1</ele>
        <time>2021-08-18T12:55:06Z</time>
      </trkpt>
      <trkpt lat="44.54224" lon="2.70634">
        <ele>367.7</ele>
        <time>2021-08-18T12:55:08Z</time>
      </trkpt>
      <trkpt lat="44.54225" lon="2.70627">
        <ele>367.6</ele>
        <time>2021-08-18T12:55:10Z</time>
      </trkpt>
      <trkpt lat="44.54225" lon="2.70622">
        <ele>367.6</ele>
        <time>2021-08-18T12:55:12Z</time>
      </trkpt>
      <trkpt lat="44.54224" lon="2.70616">
        <ele>367.8</ele>
        <time>2021-08-18T12:55:14Z</time>
      </trkpt>
      <trkpt lat="44.54221" lon="2.70615">
        <ele>368.9</ele>
        <time>2021-08-18T12:55:16Z</time>
      </trkpt>
      <trkpt lat="44.54221" lon="2.70617">
        <ele>368.9</ele>
        <time>2021-08-18T12:55:18Z</time>
      </trkpt>
      <trkpt lat="44.54222" lon="2.70617">
        <ele>368.7</ele>
        <time>2021-08-18T12:55:20Z</time>
      </trkpt>
      <trkpt lat="44.54222" lon="2.70617">
        <ele>368.6</ele>
        <time>2021-08-18T12:55:22Z</time>
      </trkpt>
      <trkpt lat="44.54222" lon="2.70617">
        <ele>368.5</ele>
        <time>2021-08-18T12:55:24Z</time>
      </trkpt>
      <trkpt lat="44.54223" lon="2.70617">
        <ele>368.3</ele>
        <time>2021-08-18T12:55:26Z</time>
      </trkpt>
      <trkpt lat="44.54228" lon="2.70601">
        <ele>367.1</ele>
        <time>2021-08-18T12:57:16Z</time>
      </trkpt>
      <trkpt lat="44.54228" lon="2.70593">
        <ele>367</ele>
        <time>2021-08-18T12:57:18Z</time>
      </trkpt>
      <trkpt lat="44.54231" lon="2.70583">
        <ele>366.7</ele>
        <time>2021-08-18T12:57:20Z</time>
      </trkpt>
      <trkpt lat="44.54233" lon="2.7057">
        <ele>366.2</ele>
        <time>2021-08-18T12:57:22Z</time>
      </trkpt>
      <trkpt lat="44.54235" lon="2.70557">
        <ele>365.8</ele>
        <time>2021-08-18T12:57:24Z</time>
      </trkpt>
      <trkpt lat="44.54239" lon="2.70543">
        <ele>365.2</ele>
        <time>2021-08-18T12:57:26Z</time>
      </trkpt>
      <trkpt lat="44.54243" lon="2.70528">
        <ele>364.6</ele>
        <time>2021-08-18T12:57:28Z</time>
      </trkpt>
      <trkpt lat="44.54247" lon="2.70512">
        <ele>364.2</ele>
        <time>2021-08-18T12:57:30Z</time>
      </trkpt>
      <trkpt lat="44.5425" lon="2.70497">
        <ele>363.9</ele>
        <time>2021-08-18T12:57:32Z</time>
      </trkpt>
      <trkpt lat="44.54253" lon="2.70482">
        <ele>362.6</ele>
        <time>2021-08-18T12:57:34Z</time>
      </trkpt>
      <trkpt lat="44.54254" lon="2.70467">
        <ele>362.2</ele>
        <time>2021-08-18T12:57:36Z</time>
      </trkpt>
      <trkpt lat="44.54254" lon="2.70451">
        <ele>362.3</ele>
        <time>2021-08-18T12:57:38Z</time>
      </trkpt>
      <trkpt lat="44.54253" lon="2.70436">
        <ele>362.6</ele>
        <time>2021-08-18T12:57:40Z</time>
      </trkpt>
      <trkpt lat="44.54253" lon="2.7042">
        <ele>363</ele>
        <time>2021-08-18T12:57:42Z</time>
      </trkpt>
      <trkpt lat="44.54252" lon="2.70405">
        <ele>363.2</ele>
        <time>2021-08-18T12:57:44Z</time>
      </trkpt>
      <trkpt lat="44.54253" lon="2.7039">
        <ele>362.8</ele>
        <time>2021-08-18T12:57:46Z</time>
      </trkpt>
      <trkpt lat="44.54254" lon="2.70375">
        <ele>362.3</ele>
        <time>2021-08-18T12:57:48Z</time>
      </trkpt>
      <trkpt lat="44.54256" lon="2.70359">
        <ele>361.5</ele>
        <time>2021-08-18T12:57:50Z</time>
      </trkpt>
      <trkpt lat="44.54257" lon="2.70344">
        <ele>361.1</ele>
        <time>2021-08-18T12:57:52Z</time>
      </trkpt>
      <trkpt lat="44.54259" lon="2.70328">
        <ele>360.3</ele>
        <time>2021-08-18T12:57:54Z</time>
      </trkpt>
      <trkpt lat="44.5426" lon="2.70313">
        <ele>359.8</ele>
        <time>2021-08-18T12:57:56Z</time>
      </trkpt>
      <trkpt lat="44.54262" lon="2.70298">
        <ele>359.2</ele>
        <time>2021-08-18T12:57:58Z</time>
      </trkpt>
      <trkpt lat="44.54263" lon="2.70284">
        <ele>358.7</ele>
        <time>2021-08-18T12:58:00Z</time>
      </trkpt>
      <trkpt lat="44.54265" lon="2.70267">
        <ele>357.9</ele>
        <time>2021-08-18T12:58:02Z</time>
      </trkpt>
      <trkpt lat="44.54266" lon="2.70248">
        <ele>357.1</ele>
        <time>2021-08-18T12:58:04Z</time>
      </trkpt>
      <trkpt lat="44.54268" lon="2.70228">
        <ele>355.5</ele>
        <time>2021-08-18T12:58:06Z</time>
      </trkpt>
      <trkpt lat="44.54269" lon="2.70207">
        <ele>354</ele>
        <time>2021-08-18T12:58:08Z</time>
      </trkpt>
      <trkpt lat="44.5427" lon="2.70186">
        <ele>352.8</ele>
        <time>2021-08-18T12:58:10Z</time>
      </trkpt>
      <trkpt lat="44.5427" lon="2.70164">
        <ele>351.9</ele>
        <time>2021-08-18T12:58:12Z</time>
      </trkpt>
      <trkpt lat="44.54267" lon="2.7014">
        <ele>350.1</ele>
        <time>2021-08-18T12:58:14Z</time>
      </trkpt>
      <trkpt lat="44.54263" lon="2.70115">
        <ele>348.4</ele>
        <time>2021-08-18T12:58:16Z</time>
      </trkpt>
      <trkpt lat="44.54258" lon="2.70092">
        <ele>346.9</ele>
        <time>2021-08-18T12:58:18Z</time>
      </trkpt>
      <trkpt lat="44.54253" lon="2.70068">
        <ele>345</ele>
        <time>2021-08-18T12:58:20Z</time>
      </trkpt>
      <trkpt lat="44.54247" lon="2.70044">
        <ele>342.7</ele>
        <time>2021-08-18T12:58:22Z</time>
      </trkpt>
      <trkpt lat="44.54241" lon="2.70022">
        <ele>340.3</ele>
        <time>2021-08-18T12:58:24Z</time>
      </trkpt>
      <trkpt lat="44.54236" lon="2.70003">
        <ele>338.1</ele>
        <time>2021-08-18T12:58:26Z</time>
      </trkpt>
      <trkpt lat="44.54229" lon="2.69983">
        <ele>337.1</ele>
        <time>2021-08-18T12:58:28Z</time>
      </trkpt>
      <trkpt lat="44.54219" lon="2.69968">
        <ele>336.7</ele>
        <time>2021-08-18T12:58:30Z</time>
      </trkpt>
      <trkpt lat="44.54206" lon="2.69954">
        <ele>336.6</ele>
        <time>2021-08-18T12:58:32Z</time>
      </trkpt>
      <trkpt lat="44.5419" lon="2.69945">
        <ele>336.8</ele>
        <time>2021-08-18T12:58:34Z</time>
      </trkpt>
      <trkpt lat="44.54175" lon="2.69937">
        <ele>337</ele>
        <time>2021-08-18T12:58:36Z</time>
      </trkpt>
      <trkpt lat="44.5416" lon="2.6993">
        <ele>337.1</ele>
        <time>2021-08-18T12:58:38Z</time>
      </trkpt>
      <trkpt lat="44.54147" lon="2.69926">
        <ele>337.4</ele>
        <time>2021-08-18T12:58:40Z</time>
      </trkpt>
      <trkpt lat="44.54137" lon="2.69909">
        <ele>337.4</ele>
        <time>2021-08-18T12:58:42Z</time>
      </trkpt>
      <trkpt lat="44.54134" lon="2.6989">
        <ele>338.4</ele>
        <time>2021-08-18T12:58:44Z</time>
      </trkpt>
      <trkpt lat="44.54135" lon="2.69872">
        <ele>338.8</ele>
        <time>2021-08-18T12:58:46Z</time>
      </trkpt>
      <trkpt lat="44.5414" lon="2.69858">
        <ele>338.7</ele>
        <time>2021-08-18T12:58:48Z</time>
      </trkpt>
      <trkpt lat="44.54147" lon="2.69844">
        <ele>338.1</ele>
        <time>2021-08-18T12:58:50Z</time>
      </trkpt>
      <trkpt lat="44.54151" lon="2.69833">
        <ele>337.7</ele>
        <time>2021-08-18T12:58:52Z</time>
      </trkpt>
      <trkpt lat="44.54155" lon="2.69823">
        <ele>338</ele>
        <time>2021-08-18T12:58:54Z</time>
      </trkpt>
      <trkpt lat="44.54158" lon="2.69814">
        <ele>338.4</ele>
        <time>2021-08-18T12:58:56Z</time>
      </trkpt>
      <trkpt lat="44.54162" lon="2.69806">
        <ele>338.7</ele>
        <time>2021-08-18T12:58:58Z</time>
      </trkpt>
      <trkpt lat="44.54165" lon="2.69798">
        <ele>339.1</ele>
        <time>2021-08-18T12:59:00Z</time>
      </trkpt>
      <trkpt lat="44.54168" lon="2.6979">
        <ele>339.5</ele>
        <time>2021-08-18T12:59:02Z</time>
      </trkpt>
      <trkpt lat="44.54171" lon="2.69782">
        <ele>339.8</ele>
        <time>2021-08-18T12:59:04Z</time>
      </trkpt>
      <trkpt lat="44.54175" lon="2.69774">
        <ele>340.1</ele>
        <time>2021-08-18T12:59:06Z</time>
      </trkpt>
      <trkpt lat="44.54177" lon="2.69767">
        <ele>340.3</ele>
        <time>2021-08-18T12:59:08Z</time>
      </trkpt>
      <trkpt lat="44.5418" lon="2.6976">
        <ele>340.5</ele>
        <time>2021-08-18T12:59:10Z</time>
      </trkpt>
      <trkpt lat="44.54183" lon="2.69753">
        <ele>340.6</ele>
        <time>2021-08-18T12:59:12Z</time>
      </trkpt>
      <trkpt lat="44.54187" lon="2.69746">
        <ele>340.2</ele>
        <time>2021-08-18T12:59:14Z</time>
      </trkpt>
      <trkpt lat="44.54189" lon="2.69739">
        <ele>339.8</ele>
        <time>2021-08-18T12:59:16Z</time>
      </trkpt>
      <trkpt lat="44.54193" lon="2.69733">
        <ele>339.3</ele>
        <time>2021-08-18T12:59:18Z</time>
      </trkpt>
      <trkpt lat="44.54196" lon="2.69726">
        <ele>338.9</ele>
        <time>2021-08-18T12:59:20Z</time>
      </trkpt>
      <trkpt lat="44.54198" lon="2.69719">
        <ele>338.6</ele>
        <time>2021-08-18T12:59:22Z</time>
      </trkpt>
      <trkpt lat="44.54201" lon="2.69712">
        <ele>338.3</ele>
        <time>2021-08-18T12:59:24Z</time>
      </trkpt>
      <trkpt lat="44.54204" lon="2.69706">
        <ele>337.9</ele>
        <time>2021-08-18T12:59:26Z</time>
      </trkpt>
      <trkpt lat="44.54207" lon="2.69699">
        <ele>337.7</ele>
        <time>2021-08-18T12:59:28Z</time>
      </trkpt>
      <trkpt lat="44.54209" lon="2.69692">
        <ele>337.6</ele>
        <time>2021-08-18T12:59:30Z</time>
      </trkpt>
      <trkpt lat="44.54212" lon="2.69685">
        <ele>337.4</ele>
        <time>2021-08-18T12:59:32Z</time>
      </trkpt>
      <trkpt lat="44.54214" lon="2.69678">
        <ele>337.3</ele>
        <time>2021-08-18T12:59:34Z</time>
      </trkpt>
      <trkpt lat="44.54216" lon="2.69671">
        <ele>337.4</ele>
        <time>2021-08-18T12:59:36Z</time>
      </trkpt>
      <trkpt lat="44.54217" lon="2.69663">
        <ele>337.6</ele>
        <time>2021-08-18T12:59:38Z</time>
      </trkpt>
      <trkpt lat="44.54218" lon="2.69655">
        <ele>337.8</ele>
        <time>2021-08-18T12:59:40Z</time>
      </trkpt>
      <trkpt lat="44.5422" lon="2.69648">
        <ele>338.1</ele>
        <time>2021-08-18T12:59:42Z</time>
      </trkpt>
      <trkpt lat="44.54221" lon="2.6964">
        <ele>338.4</ele>
        <time>2021-08-18T12:59:44Z</time>
      </trkpt>
      <trkpt lat="44.54222" lon="2.69633">
        <ele>338.7</ele>
        <time>2021-08-18T12:59:46Z</time>
      </trkpt>
      <trkpt lat="44.54223" lon="2.69625">
        <ele>339</ele>
        <time>2021-08-18T12:59:48Z</time>
      </trkpt>
      <trkpt lat="44.54225" lon="2.69617">
        <ele>339.3</ele>
        <time>2021-08-18T12:59:50Z</time>
      </trkpt>
      <trkpt lat="44.54226" lon="2.69609">
        <ele>339.7</ele>
        <time>2021-08-18T12:59:52Z</time>
      </trkpt>
      <trkpt lat="44.54227" lon="2.696">
        <ele>340.1</ele>
        <time>2021-08-18T12:59:54Z</time>
      </trkpt>
      <trkpt lat="44.54229" lon="2.69592">
        <ele>340.5</ele>
        <time>2021-08-18T12:59:56Z</time>
      </trkpt>
      <trkpt lat="44.5423" lon="2.69584">
        <ele>340.9</ele>
        <time>2021-08-18T12:59:58Z</time>
      </trkpt>
      <trkpt lat="44.54231" lon="2.69575">
        <ele>341</ele>
        <time>2021-08-18T13:00:00Z</time>
      </trkpt>
      <trkpt lat="44.54233" lon="2.69567">
        <ele>341.2</ele>
        <time>2021-08-18T13:00:02Z</time>
      </trkpt>
      <trkpt lat="44.54233" lon="2.69559">
        <ele>341.3</ele>
        <time>2021-08-18T13:00:04Z</time>
      </trkpt>
      <trkpt lat="44.54235" lon="2.69551">
        <ele>341.4</ele>
        <time>2021-08-18T13:00:06Z</time>
      </trkpt>
      <trkpt lat="44.54237" lon="2.69544">
        <ele>341.5</ele>
        <time>2021-08-18T13:00:08Z</time>
      </trkpt>
      <trkpt lat="44.54238" lon="2.69537">
        <ele>341.6</ele>
        <time>2021-08-18T13:00:10Z</time>
      </trkpt>
      <trkpt lat="44.54239" lon="2.69529">
        <ele>341.8</ele>
        <time>2021-08-18T13:00:12Z</time>
      </trkpt>
      <trkpt lat="44.54241" lon="2.69522">
        <ele>341.9</ele>
        <time>2021-08-18T13:00:14Z</time>
      </trkpt>
      <trkpt lat="44.54242" lon="2.69515">
        <ele>342.1</ele>
        <time>2021-08-18T13:00:16Z</time>
      </trkpt>
      <trkpt lat="44.54243" lon="2.69509">
        <ele>342.2</ele>
        <time>2021-08-18T13:00:18Z</time>
      </trkpt>
      <trkpt lat="44.54244" lon="2.69502">
        <ele>342.3</ele>
        <time>2021-08-18T13:00:20Z</time>
      </trkpt>
      <trkpt lat="44.54246" lon="2.69496">
        <ele>342.5</ele>
        <time>2021-08-18T13:00:22Z</time>
      </trkpt>
      <trkpt lat="44.54247" lon="2.69489">
        <ele>342.6</ele>
        <time>2021-08-18T13:00:24Z</time>
      </trkpt>
      <trkpt lat="44.54248" lon="2.69483">
        <ele>342.7</ele>
        <time>2021-08-18T13:00:26Z</time>
      </trkpt>
      <trkpt lat="44.54249" lon="2.69476">
        <ele>342.9</ele>
        <time>2021-08-18T13:00:28Z</time>
      </trkpt>
      <trkpt lat="44.5425" lon="2.69469">
        <ele>343</ele>
        <time>2021-08-18T13:00:30Z</time>
      </trkpt>
      <trkpt lat="44.54251" lon="2.69462">
        <ele>343</ele>
        <time>2021-08-18T13:00:32Z</time>
      </trkpt>
      <trkpt lat="44.54252" lon="2.69456">
        <ele>343.1</ele>
        <time>2021-08-18T13:00:34Z</time>
      </trkpt>
      <trkpt lat="44.54253" lon="2.69449">
        <ele>343.1</ele>
        <time>2021-08-18T13:00:36Z</time>
      </trkpt>
      <trkpt lat="44.54253" lon="2.69443">
        <ele>343.3</ele>
        <time>2021-08-18T13:00:38Z</time>
      </trkpt>
      <trkpt lat="44.54252" lon="2.69436">
        <ele>343.6</ele>
        <time>2021-08-18T13:00:40Z</time>
      </trkpt>
      <trkpt lat="44.54252" lon="2.69429">
        <ele>344</ele>
        <time>2021-08-18T13:00:42Z</time>
      </trkpt>
      <trkpt lat="44.54251" lon="2.69421">
        <ele>344.4</ele>
        <time>2021-08-18T13:00:44Z</time>
      </trkpt>
      <trkpt lat="44.54251" lon="2.69414">
        <ele>344.8</ele>
        <time>2021-08-18T13:00:46Z</time>
      </trkpt>
      <trkpt lat="44.5425" lon="2.69406">
        <ele>345</ele>
        <time>2021-08-18T13:00:48Z</time>
      </trkpt>
      <trkpt lat="44.54248" lon="2.69398">
        <ele>345.1</ele>
        <time>2021-08-18T13:00:50Z</time>
      </trkpt>
      <trkpt lat="44.54246" lon="2.69391">
        <ele>345.1</ele>
        <time>2021-08-18T13:00:52Z</time>
      </trkpt>
      <trkpt lat="44.54245" lon="2.69383">
        <ele>345.2</ele>
        <time>2021-08-18T13:00:54Z</time>
      </trkpt>
      <trkpt lat="44.54243" lon="2.69375">
        <ele>345.2</ele>
        <time>2021-08-18T13:00:56Z</time>
      </trkpt>
      <trkpt lat="44.54242" lon="2.69367">
        <ele>345.3</ele>
        <time>2021-08-18T13:00:58Z</time>
      </trkpt>
      <trkpt lat="44.5424" lon="2.69359">
        <ele>345.3</ele>
        <time>2021-08-18T13:01:00Z</time>
      </trkpt>
      <trkpt lat="44.54239" lon="2.6935">
        <ele>345.4</ele>
        <time>2021-08-18T13:01:02Z</time>
      </trkpt>
      <trkpt lat="44.54237" lon="2.69341">
        <ele>345.5</ele>
        <time>2021-08-18T13:01:04Z</time>
      </trkpt>
      <trkpt lat="44.54235" lon="2.69332">
        <ele>345.5</ele>
        <time>2021-08-18T13:01:06Z</time>
      </trkpt>
      <trkpt lat="44.54233" lon="2.69323">
        <ele>345.6</ele>
        <time>2021-08-18T13:01:08Z</time>
      </trkpt>
      <trkpt lat="44.54231" lon="2.69313">
        <ele>345.6</ele>
        <time>2021-08-18T13:01:10Z</time>
      </trkpt>
      <trkpt lat="44.54229" lon="2.69303">
        <ele>345.7</ele>
        <time>2021-08-18T13:01:12Z</time>
      </trkpt>
      <trkpt lat="44.54227" lon="2.69292">
        <ele>345.7</ele>
        <time>2021-08-18T13:01:14Z</time>
      </trkpt>
      <trkpt lat="44.54225" lon="2.69282">
        <ele>345.7</ele>
        <time>2021-08-18T13:01:16Z</time>
      </trkpt>
      <trkpt lat="44.54223" lon="2.69271">
        <ele>345.7</ele>
        <time>2021-08-18T13:01:18Z</time>
      </trkpt>
      <trkpt lat="44.54221" lon="2.6926">
        <ele>345.7</ele>
        <time>2021-08-18T13:01:20Z</time>
      </trkpt>
      <trkpt lat="44.54218" lon="2.69249">
        <ele>345.7</ele>
        <time>2021-08-18T13:01:22Z</time>
      </trkpt>
      <trkpt lat="44.54216" lon="2.69238">
        <ele>345.4</ele>
        <time>2021-08-18T13:01:24Z</time>
      </trkpt>
      <trkpt lat="44.54214" lon="2.69226">
        <ele>345.1</ele>
        <time>2021-08-18T13:01:26Z</time>
      </trkpt>
      <trkpt lat="44.54212" lon="2.69214">
        <ele>344.8</ele>
        <time>2021-08-18T13:01:28Z</time>
      </trkpt>
      <trkpt lat="44.54212" lon="2.69202">
        <ele>344.4</ele>
        <time>2021-08-18T13:01:30Z</time>
      </trkpt>
      <trkpt lat="44.54213" lon="2.6919">
        <ele>344</ele>
        <time>2021-08-18T13:01:32Z</time>
      </trkpt>
      <trkpt lat="44.54213" lon="2.69178">
        <ele>343.7</ele>
        <time>2021-08-18T13:01:34Z</time>
      </trkpt>
      <trkpt lat="44.54214" lon="2.69165">
        <ele>343.3</ele>
        <time>2021-08-18T13:01:36Z</time>
      </trkpt>
      <trkpt lat="44.54215" lon="2.69152">
        <ele>343.1</ele>
        <time>2021-08-18T13:01:38Z</time>
      </trkpt>
      <trkpt lat="44.54215" lon="2.69139">
        <ele>342.9</ele>
        <time>2021-08-18T13:01:40Z</time>
      </trkpt>
      <trkpt lat="44.54215" lon="2.69126">
        <ele>342.8</ele>
        <time>2021-08-18T13:01:42Z</time>
      </trkpt>
      <trkpt lat="44.54215" lon="2.69113">
        <ele>342.6</ele>
        <time>2021-08-18T13:01:44Z</time>
      </trkpt>
      <trkpt lat="44.54214" lon="2.691">
        <ele>342.5</ele>
        <time>2021-08-18T13:01:46Z</time>
      </trkpt>
      <trkpt lat="44.54215" lon="2.69085">
        <ele>342.3</ele>
        <time>2021-08-18T13:01:48Z</time>
      </trkpt>
      <trkpt lat="44.54215" lon="2.69071">
        <ele>342</ele>
        <time>2021-08-18T13:01:50Z</time>
      </trkpt>
      <trkpt lat="44.54215" lon="2.69056">
        <ele>341.8</ele>
        <time>2021-08-18T13:01:52Z</time>
      </trkpt>
      <trkpt lat="44.54214" lon="2.69041">
        <ele>341.6</ele>
        <time>2021-08-18T13:01:54Z</time>
      </trkpt>
      <trkpt lat="44.54214" lon="2.69026">
        <ele>341.3</ele>
        <time>2021-08-18T13:01:56Z</time>
      </trkpt>
      <trkpt lat="44.54214" lon="2.69012">
        <ele>341.1</ele>
        <time>2021-08-18T13:01:58Z</time>
      </trkpt>
      <trkpt lat="44.54214" lon="2.68997">
        <ele>340.8</ele>
        <time>2021-08-18T13:02:00Z</time>
      </trkpt>
      <trkpt lat="44.54213" lon="2.68982">
        <ele>340.7</ele>
        <time>2021-08-18T13:02:02Z</time>
      </trkpt>
      <trkpt lat="44.54212" lon="2.68967">
        <ele>340.5</ele>
        <time>2021-08-18T13:02:04Z</time>
      </trkpt>
      <trkpt lat="44.5421" lon="2.68952">
        <ele>340.4</ele>
        <time>2021-08-18T13:02:06Z</time>
      </trkpt>
      <trkpt lat="44.54207" lon="2.68937">
        <ele>340.3</ele>
        <time>2021-08-18T13:02:08Z</time>
      </trkpt>
      <trkpt lat="44.54205" lon="2.68921">
        <ele>340.1</ele>
        <time>2021-08-18T13:02:10Z</time>
      </trkpt>
      <trkpt lat="44.54202" lon="2.68903">
        <ele>339.8</ele>
        <time>2021-08-18T13:02:12Z</time>
      </trkpt>
      <trkpt lat="44.542" lon="2.68885">
        <ele>339.4</ele>
        <time>2021-08-18T13:02:14Z</time>
      </trkpt>
      <trkpt lat="44.54197" lon="2.68866">
        <ele>338.9</ele>
        <time>2021-08-18T13:02:16Z</time>
      </trkpt>
      <trkpt lat="44.54195" lon="2.68846">
        <ele>338.4</ele>
        <time>2021-08-18T13:02:18Z</time>
      </trkpt>
      <trkpt lat="44.54195" lon="2.68825">
        <ele>337.8</ele>
        <time>2021-08-18T13:02:20Z</time>
      </trkpt>
      <trkpt lat="44.54197" lon="2.68802">
        <ele>337.4</ele>
        <time>2021-08-18T13:02:22Z</time>
      </trkpt>
      <trkpt lat="44.54203" lon="2.68779">
        <ele>336.8</ele>
        <time>2021-08-18T13:02:24Z</time>
      </trkpt>
      <trkpt lat="44.54212" lon="2.68758">
        <ele>336.1</ele>
        <time>2021-08-18T13:02:26Z</time>
      </trkpt>
      <trkpt lat="44.54223" lon="2.68745">
        <ele>335.8</ele>
        <time>2021-08-18T13:02:28Z</time>
      </trkpt>
      <trkpt lat="44.54232" lon="2.68734">
        <ele>335.8</ele>
        <time>2021-08-18T13:02:30Z</time>
      </trkpt>
      <trkpt lat="44.5424" lon="2.68725">
        <ele>335.8</ele>
        <time>2021-08-18T13:02:32Z</time>
      </trkpt>
      <trkpt lat="44.54246" lon="2.68717">
        <ele>335.9</ele>
        <time>2021-08-18T13:02:34Z</time>
      </trkpt>
      <trkpt lat="44.5425" lon="2.68709">
        <ele>336</ele>
        <time>2021-08-18T13:02:36Z</time>
      </trkpt>
      <trkpt lat="44.54254" lon="2.68701">
        <ele>335.8</ele>
        <time>2021-08-18T13:02:38Z</time>
      </trkpt>
      <trkpt lat="44.54257" lon="2.68692">
        <ele>335.7</ele>
        <time>2021-08-18T13:02:40Z</time>
      </trkpt>
      <trkpt lat="44.5426" lon="2.68683">
        <ele>335.5</ele>
        <time>2021-08-18T13:02:42Z</time>
      </trkpt>
      <trkpt lat="44.54262" lon="2.68673">
        <ele>335.4</ele>
        <time>2021-08-18T13:02:44Z</time>
      </trkpt>
      <trkpt lat="44.54264" lon="2.68663">
        <ele>335.3</ele>
        <time>2021-08-18T13:02:46Z</time>
      </trkpt>
      <trkpt lat="44.54265" lon="2.68652">
        <ele>335.1</ele>
        <time>2021-08-18T13:02:48Z</time>
      </trkpt>
      <trkpt lat="44.54266" lon="2.68641">
        <ele>335</ele>
        <time>2021-08-18T13:02:50Z</time>
      </trkpt>
      <trkpt lat="44.54266" lon="2.6863">
        <ele>335</ele>
        <time>2021-08-18T13:02:52Z</time>
      </trkpt>
      <trkpt lat="44.54265" lon="2.68619">
        <ele>335.1</ele>
        <time>2021-08-18T13:02:54Z</time>
      </trkpt>
      <trkpt lat="44.54265" lon="2.68607">
        <ele>335</ele>
        <time>2021-08-18T13:02:56Z</time>
      </trkpt>
      <trkpt lat="44.54264" lon="2.68596">
        <ele>335.1</ele>
        <time>2021-08-18T13:02:58Z</time>
      </trkpt>
      <trkpt lat="44.54264" lon="2.68585">
        <ele>335.1</ele>
        <time>2021-08-18T13:03:00Z</time>
      </trkpt>
      <trkpt lat="44.54263" lon="2.68573">
        <ele>335</ele>
        <time>2021-08-18T13:03:02Z</time>
      </trkpt>
      <trkpt lat="44.54263" lon="2.68562">
        <ele>334.9</ele>
        <time>2021-08-18T13:03:04Z</time>
      </trkpt>
      <trkpt lat="44.54263" lon="2.68552">
        <ele>334.7</ele>
        <time>2021-08-18T13:03:06Z</time>
      </trkpt>
      <trkpt lat="44.54263" lon="2.68543">
        <ele>334.5</ele>
        <time>2021-08-18T13:03:08Z</time>
      </trkpt>
      <trkpt lat="44.54263" lon="2.68535">
        <ele>334.3</ele>
        <time>2021-08-18T13:03:10Z</time>
      </trkpt>
      <trkpt lat="44.54265" lon="2.68525">
        <ele>333.9</ele>
        <time>2021-08-18T13:03:12Z</time>
      </trkpt>
      <trkpt lat="44.54269" lon="2.68516">
        <ele>333.2</ele>
        <time>2021-08-18T13:03:14Z</time>
      </trkpt>
      <trkpt lat="44.54275" lon="2.68507">
        <ele>332.5</ele>
        <time>2021-08-18T13:03:16Z</time>
      </trkpt>
      <trkpt lat="44.54279" lon="2.68497">
        <ele>331.9</ele>
        <time>2021-08-18T13:03:18Z</time>
      </trkpt>
      <trkpt lat="44.54286" lon="2.68489">
        <ele>331.4</ele>
        <time>2021-08-18T13:03:20Z</time>
      </trkpt>
      <trkpt lat="44.54292" lon="2.6848">
        <ele>331</ele>
        <time>2021-08-18T13:03:22Z</time>
      </trkpt>
      <trkpt lat="44.54299" lon="2.6847">
        <ele>330.6</ele>
        <time>2021-08-18T13:03:24Z</time>
      </trkpt>
      <trkpt lat="44.54306" lon="2.68459">
        <ele>330.3</ele>
        <time>2021-08-18T13:03:26Z</time>
      </trkpt>
      <trkpt lat="44.54312" lon="2.68446">
        <ele>330.1</ele>
        <time>2021-08-18T13:03:28Z</time>
      </trkpt>
      <trkpt lat="44.54318" lon="2.6843">
        <ele>330</ele>
        <time>2021-08-18T13:03:30Z</time>
      </trkpt>
      <trkpt lat="44.54324" lon="2.68413">
        <ele>330</ele>
        <time>2021-08-18T13:03:32Z</time>
      </trkpt>
      <trkpt lat="44.5433" lon="2.68397">
        <ele>329.9</ele>
        <time>2021-08-18T13:03:34Z</time>
      </trkpt>
      <trkpt lat="44.54335" lon="2.68384">
        <ele>330</ele>
        <time>2021-08-18T13:03:36Z</time>
      </trkpt>
      <trkpt lat="44.54336" lon="2.68376">
        <ele>330.1</ele>
        <time>2021-08-18T13:03:38Z</time>
      </trkpt>
      <trkpt lat="44.54331" lon="2.68375">
        <ele>330.6</ele>
        <time>2021-08-18T13:03:40Z</time>
      </trkpt>
      <trkpt lat="44.5433" lon="2.68379">
        <ele>330.6</ele>
        <time>2021-08-18T13:03:42Z</time>
      </trkpt>
      <trkpt lat="44.5433" lon="2.6838">
        <ele>330.5</ele>
        <time>2021-08-18T13:03:44Z</time>
      </trkpt>
      <trkpt lat="44.5433" lon="2.68379">
        <ele>330.5</ele>
        <time>2021-08-18T13:03:46Z</time>
      </trkpt>
      <trkpt lat="44.54331" lon="2.68379">
        <ele>330.5</ele>
        <time>2021-08-18T13:03:48Z</time>
      </trkpt>
      <trkpt lat="44.54331" lon="2.68379">
        <ele>330.5</ele>
        <time>2021-08-18T13:03:50Z</time>
      </trkpt>
      <trkpt lat="44.54331" lon="2.68379">
        <ele>330.5</ele>
        <time>2021-08-18T13:03:52Z</time>
      </trkpt>
      <trkpt lat="44.54347" lon="2.68354">
        <ele>329.3</ele>
        <time>2021-08-18T13:04:36Z</time>
      </trkpt>
      <trkpt lat="44.54351" lon="2.68342">
        <ele>329</ele>
        <time>2021-08-18T13:04:38Z</time>
      </trkpt>
      <trkpt lat="44.54355" lon="2.68331">
        <ele>328.7</ele>
        <time>2021-08-18T13:04:40Z</time>
      </trkpt>
      <trkpt lat="44.54358" lon="2.6832">
        <ele>328.1</ele>
        <time>2021-08-18T13:04:42Z</time>
      </trkpt>
      <trkpt lat="44.54361" lon="2.68309">
        <ele>327.6</ele>
        <time>2021-08-18T13:04:44Z</time>
      </trkpt>
      <trkpt lat="44.54364" lon="2.68298">
        <ele>327.2</ele>
        <time>2021-08-18T13:04:46Z</time>
      </trkpt>
      <trkpt lat="44.54366" lon="2.68285">
        <ele>326.9</ele>
        <time>2021-08-18T13:04:48Z</time>
      </trkpt>
      <trkpt lat="44.54367" lon="2.68271">
        <ele>326.7</ele>
        <time>2021-08-18T13:04:50Z</time>
      </trkpt>
      <trkpt lat="44.54371" lon="2.68256">
        <ele>326.2</ele>
        <time>2021-08-18T13:04:52Z</time>
      </trkpt>
      <trkpt lat="44.54375" lon="2.68239">
        <ele>325.4</ele>
        <time>2021-08-18T13:04:54Z</time>
      </trkpt>
      <trkpt lat="44.54382" lon="2.68222">
        <ele>324.8</ele>
        <time>2021-08-18T13:04:56Z</time>
      </trkpt>
      <trkpt lat="44.54391" lon="2.68207">
        <ele>324.4</ele>
        <time>2021-08-18T13:04:58Z</time>
      </trkpt>
      <trkpt lat="44.54401" lon="2.68195">
        <ele>324.3</ele>
        <time>2021-08-18T13:05:00Z</time>
      </trkpt>
      <trkpt lat="44.54412" lon="2.68185">
        <ele>324.5</ele>
        <time>2021-08-18T13:05:02Z</time>
      </trkpt>
      <trkpt lat="44.54423" lon="2.68178">
        <ele>325.6</ele>
        <time>2021-08-18T13:05:04Z</time>
      </trkpt>
      <trkpt lat="44.54435" lon="2.68176">
        <ele>326.8</ele>
        <time>2021-08-18T13:05:06Z</time>
      </trkpt>
      <trkpt lat="44.54445" lon="2.68177">
        <ele>327.6</ele>
        <time>2021-08-18T13:05:08Z</time>
      </trkpt>
      <trkpt lat="44.54455" lon="2.68177">
        <ele>328.4</ele>
        <time>2021-08-18T13:05:10Z</time>
      </trkpt>
      <trkpt lat="44.54464" lon="2.68176">
        <ele>329.3</ele>
        <time>2021-08-18T13:05:12Z</time>
      </trkpt>
      <trkpt lat="44.54472" lon="2.68175">
        <ele>330.1</ele>
        <time>2021-08-18T13:05:14Z</time>
      </trkpt>
      <trkpt lat="44.5448" lon="2.68173">
        <ele>331.1</ele>
        <time>2021-08-18T13:05:16Z</time>
      </trkpt>
      <trkpt lat="44.54487" lon="2.68172">
        <ele>332</ele>
        <time>2021-08-18T13:05:18Z</time>
      </trkpt>
      <trkpt lat="44.54494" lon="2.6817">
        <ele>332.8</ele>
        <time>2021-08-18T13:05:20Z</time>
      </trkpt>
      <trkpt lat="44.54501" lon="2.68168">
        <ele>333.8</ele>
        <time>2021-08-18T13:05:22Z</time>
      </trkpt>
      <trkpt lat="44.54506" lon="2.68167">
        <ele>334.8</ele>
        <time>2021-08-18T13:05:24Z</time>
      </trkpt>
      <trkpt lat="44.54511" lon="2.68164">
        <ele>336.1</ele>
        <time>2021-08-18T13:05:26Z</time>
      </trkpt>
      <trkpt lat="44.54514" lon="2.68161">
        <ele>337.9</ele>
        <time>2021-08-18T13:05:28Z</time>
      </trkpt>
      <trkpt lat="44.54516" lon="2.68156">
        <ele>339.7</ele>
        <time>2021-08-18T13:05:30Z</time>
      </trkpt>
      <trkpt lat="44.54516" lon="2.68153">
        <ele>340.9</ele>
        <time>2021-08-18T13:05:32Z</time>
      </trkpt>
      <trkpt lat="44.54516" lon="2.68152">
        <ele>341</ele>
        <time>2021-08-18T13:05:34Z</time>
      </trkpt>
      <trkpt lat="44.54516" lon="2.68153">
        <ele>340.9</ele>
        <time>2021-08-18T13:05:36Z</time>
      </trkpt>
      <trkpt lat="44.54516" lon="2.68152">
        <ele>341</ele>
        <time>2021-08-18T13:05:38Z</time>
      </trkpt>
      <trkpt lat="44.54516" lon="2.68153">
        <ele>341</ele>
        <time>2021-08-18T13:05:40Z</time>
      </trkpt>
      <trkpt lat="44.54517" lon="2.68154">
        <ele>340.6</ele>
        <time>2021-08-18T13:05:42Z</time>
      </trkpt>
      <trkpt lat="44.54534" lon="2.6816">
        <ele>340.7</ele>
        <time>2021-08-18T13:06:02Z</time>
      </trkpt>
      <trkpt lat="44.5454" lon="2.68161">
        <ele>341.2</ele>
        <time>2021-08-18T13:06:04Z</time>
      </trkpt>
      <trkpt lat="44.54545" lon="2.68161">
        <ele>341.8</ele>
        <time>2021-08-18T13:06:06Z</time>
      </trkpt>
      <trkpt lat="44.54549" lon="2.68163">
        <ele>341.5</ele>
        <time>2021-08-18T13:06:08Z</time>
      </trkpt>
      <trkpt lat="44.54554" lon="2.68165">
        <ele>341.1</ele>
        <time>2021-08-18T13:06:10Z</time>
      </trkpt>
      <trkpt lat="44.54558" lon="2.68166">
        <ele>341.2</ele>
        <time>2021-08-18T13:06:12Z</time>
      </trkpt>
      <trkpt lat="44.54563" lon="2.68167">
        <ele>341.5</ele>
        <time>2021-08-18T13:06:14Z</time>
      </trkpt>
      <trkpt lat="44.54568" lon="2.68169">
        <ele>341.7</ele>
        <time>2021-08-18T13:06:16Z</time>
      </trkpt>
      <trkpt lat="44.54573" lon="2.68169">
        <ele>342.2</ele>
        <time>2021-08-18T13:06:18Z</time>
      </trkpt>
      <trkpt lat="44.54578" lon="2.6817">
        <ele>342.6</ele>
        <time>2021-08-18T13:06:20Z</time>
      </trkpt>
      <trkpt lat="44.54584" lon="2.6817">
        <ele>343.3</ele>
        <time>2021-08-18T13:06:22Z</time>
      </trkpt>
      <trkpt lat="44.5459" lon="2.68171">
        <ele>344.6</ele>
        <time>2021-08-18T13:06:24Z</time>
      </trkpt>
      <trkpt lat="44.54596" lon="2.68172">
        <ele>345.8</ele>
        <time>2021-08-18T13:06:26Z</time>
      </trkpt>
      <trkpt lat="44.54602" lon="2.68175">
        <ele>346.8</ele>
        <time>2021-08-18T13:06:28Z</time>
      </trkpt>
      <trkpt lat="44.54609" lon="2.68177">
        <ele>348</ele>
        <time>2021-08-18T13:06:30Z</time>
      </trkpt>
      <trkpt lat="44.54614" lon="2.68181">
        <ele>348.3</ele>
        <time>2021-08-18T13:06:32Z</time>
      </trkpt>
      <trkpt lat="44.54619" lon="2.68187">
        <ele>347.9</ele>
        <time>2021-08-18T13:06:34Z</time>
      </trkpt>
      <trkpt lat="44.54624" lon="2.68193">
        <ele>347.2</ele>
        <time>2021-08-18T13:06:36Z</time>
      </trkpt>
      <trkpt lat="44.54628" lon="2.68201">
        <ele>346.2</ele>
        <time>2021-08-18T13:06:38Z</time>
      </trkpt>
      <trkpt lat="44.54632" lon="2.6821">
        <ele>344.7</ele>
        <time>2021-08-18T13:06:40Z</time>
      </trkpt>
      <trkpt lat="44.54635" lon="2.68219">
        <ele>342.9</ele>
        <time>2021-08-18T13:06:42Z</time>
      </trkpt>
      <trkpt lat="44.54638" lon="2.68228">
        <ele>341</ele>
        <time>2021-08-18T13:06:44Z</time>
      </trkpt>
      <trkpt lat="44.54641" lon="2.68236">
        <ele>339.3</ele>
        <time>2021-08-18T13:06:46Z</time>
      </trkpt>
      <trkpt lat="44.54643" lon="2.68244">
        <ele>337.5</ele>
        <time>2021-08-18T13:06:48Z</time>
      </trkpt>
      <trkpt lat="44.54647" lon="2.68253">
        <ele>336.1</ele>
        <time>2021-08-18T13:06:50Z</time>
      </trkpt>
      <trkpt lat="44.5465" lon="2.68261">
        <ele>335.9</ele>
        <time>2021-08-18T13:06:52Z</time>
      </trkpt>
      <trkpt lat="44.54653" lon="2.6827">
        <ele>335.5</ele>
        <time>2021-08-18T13:06:54Z</time>
      </trkpt>
      <trkpt lat="44.54656" lon="2.68279">
        <ele>335.1</ele>
        <time>2021-08-18T13:06:56Z</time>
      </trkpt>
      <trkpt lat="44.5466" lon="2.68287">
        <ele>334.7</ele>
        <time>2021-08-18T13:06:58Z</time>
      </trkpt>
      <trkpt lat="44.54664" lon="2.68295">
        <ele>334.3</ele>
        <time>2021-08-18T13:07:00Z</time>
      </trkpt>
      <trkpt lat="44.54669" lon="2.68304">
        <ele>334.6</ele>
        <time>2021-08-18T13:07:02Z</time>
      </trkpt>
      <trkpt lat="44.54675" lon="2.68311">
        <ele>336.5</ele>
        <time>2021-08-18T13:07:04Z</time>
      </trkpt>
      <trkpt lat="44.54681" lon="2.6832">
        <ele>338.5</ele>
        <time>2021-08-18T13:07:06Z</time>
      </trkpt>
      <trkpt lat="44.54687" lon="2.68329">
        <ele>340.2</ele>
        <time>2021-08-18T13:07:08Z</time>
      </trkpt>
      <trkpt lat="44.54694" lon="2.68339">
        <ele>342.6</ele>
        <time>2021-08-18T13:07:10Z</time>
      </trkpt>
      <trkpt lat="44.547" lon="2.68349">
        <ele>344.5</ele>
        <time>2021-08-18T13:07:12Z</time>
      </trkpt>
      <trkpt lat="44.54704" lon="2.68361">
        <ele>345.5</ele>
        <time>2021-08-18T13:07:14Z</time>
      </trkpt>
      <trkpt lat="44.54709" lon="2.68374">
        <ele>346.5</ele>
        <time>2021-08-18T13:07:16Z</time>
      </trkpt>
      <trkpt lat="44.54712" lon="2.68386">
        <ele>347.1</ele>
        <time>2021-08-18T13:07:18Z</time>
      </trkpt>
      <trkpt lat="44.54715" lon="2.684">
        <ele>347</ele>
        <time>2021-08-18T13:07:20Z</time>
      </trkpt>
      <trkpt lat="44.54718" lon="2.68413">
        <ele>346.9</ele>
        <time>2021-08-18T13:07:22Z</time>
      </trkpt>
      <trkpt lat="44.5472" lon="2.68428">
        <ele>346.3</ele>
        <time>2021-08-18T13:07:24Z</time>
      </trkpt>
      <trkpt lat="44.54724" lon="2.68442">
        <ele>346</ele>
        <time>2021-08-18T13:07:26Z</time>
      </trkpt>
      <trkpt lat="44.54727" lon="2.68455">
        <ele>345.4</ele>
        <time>2021-08-18T13:07:28Z</time>
      </trkpt>
      <trkpt lat="44.54729" lon="2.68469">
        <ele>344.5</ele>
        <time>2021-08-18T13:07:30Z</time>
      </trkpt>
      <trkpt lat="44.54733" lon="2.68482">
        <ele>344</ele>
        <time>2021-08-18T13:07:32Z</time>
      </trkpt>
      <trkpt lat="44.54736" lon="2.68496">
        <ele>343</ele>
        <time>2021-08-18T13:07:34Z</time>
      </trkpt>
      <trkpt lat="44.54741" lon="2.68508">
        <ele>342.6</ele>
        <time>2021-08-18T13:07:36Z</time>
      </trkpt>
      <trkpt lat="44.54746" lon="2.68522">
        <ele>341.7</ele>
        <time>2021-08-18T13:07:38Z</time>
      </trkpt>
      <trkpt lat="44.5475" lon="2.68534">
        <ele>340.8</ele>
        <time>2021-08-18T13:07:40Z</time>
      </trkpt>
      <trkpt lat="44.54754" lon="2.68548">
        <ele>340.1</ele>
        <time>2021-08-18T13:07:42Z</time>
      </trkpt>
      <trkpt lat="44.54758" lon="2.68561">
        <ele>339.7</ele>
        <time>2021-08-18T13:07:44Z</time>
      </trkpt>
      <trkpt lat="44.54762" lon="2.68575">
        <ele>339</ele>
        <time>2021-08-18T13:07:46Z</time>
      </trkpt>
      <trkpt lat="44.54765" lon="2.68589">
        <ele>338.1</ele>
        <time>2021-08-18T13:07:48Z</time>
      </trkpt>
      <trkpt lat="44.5477" lon="2.68603">
        <ele>338.1</ele>
        <time>2021-08-18T13:07:50Z</time>
      </trkpt>
      <trkpt lat="44.54775" lon="2.68616">
        <ele>337.5</ele>
        <time>2021-08-18T13:07:52Z</time>
      </trkpt>
      <trkpt lat="44.5478" lon="2.68629">
        <ele>337.3</ele>
        <time>2021-08-18T13:07:54Z</time>
      </trkpt>
      <trkpt lat="44.54785" lon="2.68642">
        <ele>336.7</ele>
        <time>2021-08-18T13:07:56Z</time>
      </trkpt>
      <trkpt lat="44.54791" lon="2.68654">
        <ele>336.2</ele>
        <time>2021-08-18T13:07:58Z</time>
      </trkpt>
      <trkpt lat="44.54797" lon="2.68665">
        <ele>335.7</ele>
        <time>2021-08-18T13:08:00Z</time>
      </trkpt>
      <trkpt lat="44.54802" lon="2.68677">
        <ele>335</ele>
        <time>2021-08-18T13:08:02Z</time>
      </trkpt>
      <trkpt lat="44.54808" lon="2.68688">
        <ele>334.6</ele>
        <time>2021-08-18T13:08:04Z</time>
      </trkpt>
      <trkpt lat="44.54814" lon="2.687">
        <ele>333.7</ele>
        <time>2021-08-18T13:08:06Z</time>
      </trkpt>
      <trkpt lat="44.5482" lon="2.68711">
        <ele>332.7</ele>
        <time>2021-08-18T13:08:08Z</time>
      </trkpt>
      <trkpt lat="44.54826" lon="2.68721">
        <ele>331.4</ele>
        <time>2021-08-18T13:08:10Z</time>
      </trkpt>
      <trkpt lat="44.54832" lon="2.6873">
        <ele>330.3</ele>
        <time>2021-08-18T13:08:12Z</time>
      </trkpt>
      <trkpt lat="44.54839" lon="2.68737">
        <ele>329.3</ele>
        <time>2021-08-18T13:08:14Z</time>
      </trkpt>
      <trkpt lat="44.54846" lon="2.68745">
        <ele>327.9</ele>
        <time>2021-08-18T13:08:16Z</time>
      </trkpt>
      <trkpt lat="44.54855" lon="2.68751">
        <ele>327.2</ele>
        <time>2021-08-18T13:08:18Z</time>
      </trkpt>
      <trkpt lat="44.54863" lon="2.68759">
        <ele>327</ele>
        <time>2021-08-18T13:08:20Z</time>
      </trkpt>
      <trkpt lat="44.54871" lon="2.68764">
        <ele>326.9</ele>
        <time>2021-08-18T13:08:22Z</time>
      </trkpt>
      <trkpt lat="44.54879" lon="2.6877">
        <ele>326.8</ele>
        <time>2021-08-18T13:08:24Z</time>
      </trkpt>
      <trkpt lat="44.54887" lon="2.68775">
        <ele>326.6</ele>
        <time>2021-08-18T13:08:26Z</time>
      </trkpt>
      <trkpt lat="44.54896" lon="2.68778">
        <ele>326.7</ele>
        <time>2021-08-18T13:08:28Z</time>
      </trkpt>
      <trkpt lat="44.54905" lon="2.6878">
        <ele>326.9</ele>
        <time>2021-08-18T13:08:30Z</time>
      </trkpt>
      <trkpt lat="44.54914" lon="2.68781">
        <ele>327.2</ele>
        <time>2021-08-18T13:08:32Z</time>
      </trkpt>
      <trkpt lat="44.54922" lon="2.68779">
        <ele>327.7</ele>
        <time>2021-08-18T13:08:34Z</time>
      </trkpt>
      <trkpt lat="44.54931" lon="2.68774">
        <ele>328.6</ele>
        <time>2021-08-18T13:08:36Z</time>
      </trkpt>
      <trkpt lat="44.54937" lon="2.68764">
        <ele>329.5</ele>
        <time>2021-08-18T13:08:38Z</time>
      </trkpt>
      <trkpt lat="44.54942" lon="2.68753">
        <ele>330.2</ele>
        <time>2021-08-18T13:08:40Z</time>
      </trkpt>
      <trkpt lat="44.54946" lon="2.68741">
        <ele>331</ele>
        <time>2021-08-18T13:08:42Z</time>
      </trkpt>
      <trkpt lat="44.54947" lon="2.68728">
        <ele>331.9</ele>
        <time>2021-08-18T13:08:44Z</time>
      </trkpt>
      <trkpt lat="44.54948" lon="2.68715">
        <ele>332.9</ele>
        <time>2021-08-18T13:08:46Z</time>
      </trkpt>
      <trkpt lat="44.54948" lon="2.68702">
        <ele>333.9</ele>
        <time>2021-08-18T13:08:48Z</time>
      </trkpt>
      <trkpt lat="44.54948" lon="2.68688">
        <ele>334.9</ele>
        <time>2021-08-18T13:08:50Z</time>
      </trkpt>
      <trkpt lat="44.54947" lon="2.68675">
        <ele>336.1</ele>
        <time>2021-08-18T13:08:52Z</time>
      </trkpt>
      <trkpt lat="44.54945" lon="2.68662">
        <ele>337.4</ele>
        <time>2021-08-18T13:08:54Z</time>
      </trkpt>
      <trkpt lat="44.54944" lon="2.68648">
        <ele>338.6</ele>
        <time>2021-08-18T13:08:56Z</time>
      </trkpt>
      <trkpt lat="44.54942" lon="2.68634">
        <ele>339.8</ele>
        <time>2021-08-18T13:08:58Z</time>
      </trkpt>
      <trkpt lat="44.54942" lon="2.6862">
        <ele>340.6</ele>
        <time>2021-08-18T13:09:00Z</time>
      </trkpt>
      <trkpt lat="44.54944" lon="2.68606">
        <ele>340.8</ele>
        <time>2021-08-18T13:09:02Z</time>
      </trkpt>
      <trkpt lat="44.54947" lon="2.68593">
        <ele>340.6</ele>
        <time>2021-08-18T13:09:04Z</time>
      </trkpt>
      <trkpt lat="44.54948" lon="2.6858">
        <ele>340.9</ele>
        <time>2021-08-18T13:09:06Z</time>
      </trkpt>
      <trkpt lat="44.54949" lon="2.68567">
        <ele>340.4</ele>
        <time>2021-08-18T13:09:08Z</time>
      </trkpt>
      <trkpt lat="44.54948" lon="2.68555">
        <ele>340.8</ele>
        <time>2021-08-18T13:09:10Z</time>
      </trkpt>
      <trkpt lat="44.54947" lon="2.68541">
        <ele>341.3</ele>
        <time>2021-08-18T13:09:12Z</time>
      </trkpt>
      <trkpt lat="44.54945" lon="2.68527">
        <ele>342.2</ele>
        <time>2021-08-18T13:09:14Z</time>
      </trkpt>
      <trkpt lat="44.54943" lon="2.68514">
        <ele>343</ele>
        <time>2021-08-18T13:09:16Z</time>
      </trkpt>
      <trkpt lat="44.54941" lon="2.68502">
        <ele>344</ele>
        <time>2021-08-18T13:09:18Z</time>
      </trkpt>
      <trkpt lat="44.54939" lon="2.68488">
        <ele>344.1</ele>
        <time>2021-08-18T13:09:20Z</time>
      </trkpt>
      <trkpt lat="44.54938" lon="2.68476">
        <ele>343.9</ele>
        <time>2021-08-18T13:09:22Z</time>
      </trkpt>
      <trkpt lat="44.54935" lon="2.68464">
        <ele>344</ele>
        <time>2021-08-18T13:09:24Z</time>
      </trkpt>
      <trkpt lat="44.54934" lon="2.68452">
        <ele>343.6</ele>
        <time>2021-08-18T13:09:26Z</time>
      </trkpt>
      <trkpt lat="44.54933" lon="2.68439">
        <ele>343.2</ele>
        <time>2021-08-18T13:09:28Z</time>
      </trkpt>
      <trkpt lat="44.54931" lon="2.68427">
        <ele>343</ele>
        <time>2021-08-18T13:09:30Z</time>
      </trkpt>
      <trkpt lat="44.5493" lon="2.68414">
        <ele>342.5</ele>
        <time>2021-08-18T13:09:32Z</time>
      </trkpt>
      <trkpt lat="44.54929" lon="2.68401">
        <ele>341.4</ele>
        <time>2021-08-18T13:09:34Z</time>
      </trkpt>
      <trkpt lat="44.54929" lon="2.68389">
        <ele>340.3</ele>
        <time>2021-08-18T13:09:36Z</time>
      </trkpt>
      <trkpt lat="44.54928" lon="2.68376">
        <ele>338.9</ele>
        <time>2021-08-18T13:09:38Z</time>
      </trkpt>
      <trkpt lat="44.54928" lon="2.68364">
        <ele>337.8</ele>
        <time>2021-08-18T13:09:40Z</time>
      </trkpt>
      <trkpt lat="44.54928" lon="2.6835">
        <ele>336.2</ele>
        <time>2021-08-18T13:09:42Z</time>
      </trkpt>
      <trkpt lat="44.54926" lon="2.68337">
        <ele>335.1</ele>
        <time>2021-08-18T13:09:44Z</time>
      </trkpt>
      <trkpt lat="44.54926" lon="2.68322">
        <ele>333.3</ele>
        <time>2021-08-18T13:09:46Z</time>
      </trkpt>
      <trkpt lat="44.54924" lon="2.68309">
        <ele>331.8</ele>
        <time>2021-08-18T13:09:48Z</time>
      </trkpt>
      <trkpt lat="44.54922" lon="2.68295">
        <ele>330.2</ele>
        <time>2021-08-18T13:09:50Z</time>
      </trkpt>
      <trkpt lat="44.54918" lon="2.68281">
        <ele>328.5</ele>
        <time>2021-08-18T13:09:52Z</time>
      </trkpt>
      <trkpt lat="44.54913" lon="2.68269">
        <ele>328.9</ele>
        <time>2021-08-18T13:09:54Z</time>
      </trkpt>
      <trkpt lat="44.54907" lon="2.68256">
        <ele>330.6</ele>
        <time>2021-08-18T13:09:56Z</time>
      </trkpt>
      <trkpt lat="44.54901" lon="2.68244">
        <ele>332.6</ele>
        <time>2021-08-18T13:09:58Z</time>
      </trkpt>
      <trkpt lat="44.54896" lon="2.68231">
        <ele>334.7</ele>
        <time>2021-08-18T13:10:00Z</time>
      </trkpt>
      <trkpt lat="44.54891" lon="2.68219">
        <ele>336.3</ele>
        <time>2021-08-18T13:10:02Z</time>
      </trkpt>
      <trkpt lat="44.54886" lon="2.68206">
        <ele>337.9</ele>
        <time>2021-08-18T13:10:04Z</time>
      </trkpt>
      <trkpt lat="44.54882" lon="2.68192">
        <ele>338.4</ele>
        <time>2021-08-18T13:10:06Z</time>
      </trkpt>
      <trkpt lat="44.54879" lon="2.68178">
        <ele>338.7</ele>
        <time>2021-08-18T13:10:08Z</time>
      </trkpt>
      <trkpt lat="44.54876" lon="2.68164">
        <ele>339</ele>
        <time>2021-08-18T13:10:10Z</time>
      </trkpt>
      <trkpt lat="44.54872" lon="2.68151">
        <ele>340.4</ele>
        <time>2021-08-18T13:10:12Z</time>
      </trkpt>
      <trkpt lat="44.54868" lon="2.68137">
        <ele>341.2</ele>
        <time>2021-08-18T13:10:14Z</time>
      </trkpt>
      <trkpt lat="44.54865" lon="2.68124">
        <ele>341.9</ele>
        <time>2021-08-18T13:10:16Z</time>
      </trkpt>
      <trkpt lat="44.54862" lon="2.6811">
        <ele>342.4</ele>
        <time>2021-08-18T13:10:18Z</time>
      </trkpt>
      <trkpt lat="44.5486" lon="2.68095">
        <ele>342</ele>
        <time>2021-08-18T13:10:20Z</time>
      </trkpt>
      <trkpt lat="44.54858" lon="2.68081">
        <ele>341.9</ele>
        <time>2021-08-18T13:10:22Z</time>
      </trkpt>
      <trkpt lat="44.54858" lon="2.68066">
        <ele>342.7</ele>
        <time>2021-08-18T13:10:24Z</time>
      </trkpt>
      <trkpt lat="44.5486" lon="2.68051">
        <ele>342.9</ele>
        <time>2021-08-18T13:10:26Z</time>
      </trkpt>
      <trkpt lat="44.54862" lon="2.68036">
        <ele>342.7</ele>
        <time>2021-08-18T13:10:28Z</time>
      </trkpt>
      <trkpt lat="44.54864" lon="2.68022">
        <ele>342.5</ele>
        <time>2021-08-18T13:10:30Z</time>
      </trkpt>
      <trkpt lat="44.54865" lon="2.68007">
        <ele>342.4</ele>
        <time>2021-08-18T13:10:32Z</time>
      </trkpt>
      <trkpt lat="44.54868" lon="2.67992">
        <ele>342.7</ele>
        <time>2021-08-18T13:10:34Z</time>
      </trkpt>
      <trkpt lat="44.54871" lon="2.67976">
        <ele>343.7</ele>
        <time>2021-08-18T13:10:36Z</time>
      </trkpt>
      <trkpt lat="44.54875" lon="2.67962">
        <ele>343.8</ele>
        <time>2021-08-18T13:10:38Z</time>
      </trkpt>
      <trkpt lat="44.54879" lon="2.67947">
        <ele>343.3</ele>
        <time>2021-08-18T13:10:40Z</time>
      </trkpt>
      <trkpt lat="44.54885" lon="2.67933">
        <ele>341.6</ele>
        <time>2021-08-18T13:10:42Z</time>
      </trkpt>
      <trkpt lat="44.54891" lon="2.67921">
        <ele>339.2</ele>
        <time>2021-08-18T13:10:44Z</time>
      </trkpt>
      <trkpt lat="44.54896" lon="2.67907">
        <ele>339</ele>
        <time>2021-08-18T13:10:46Z</time>
      </trkpt>
      <trkpt lat="44.54902" lon="2.67895">
        <ele>338.8</ele>
        <time>2021-08-18T13:10:48Z</time>
      </trkpt>
      <trkpt lat="44.54909" lon="2.67882">
        <ele>338.5</ele>
        <time>2021-08-18T13:10:50Z</time>
      </trkpt>
      <trkpt lat="44.54916" lon="2.6787">
        <ele>337.3</ele>
        <time>2021-08-18T13:10:52Z</time>
      </trkpt>
      <trkpt lat="44.54925" lon="2.6786">
        <ele>337.9</ele>
        <time>2021-08-18T13:10:54Z</time>
      </trkpt>
      <trkpt lat="44.54933" lon="2.6785">
        <ele>338.4</ele>
        <time>2021-08-18T13:10:56Z</time>
      </trkpt>
      <trkpt lat="44.54942" lon="2.6784">
        <ele>337.9</ele>
        <time>2021-08-18T13:10:58Z</time>
      </trkpt>
      <trkpt lat="44.54951" lon="2.6783">
        <ele>337.5</ele>
        <time>2021-08-18T13:11:00Z</time>
      </trkpt>
      <trkpt lat="44.5496" lon="2.67821">
        <ele>337.1</ele>
        <time>2021-08-18T13:11:02Z</time>
      </trkpt>
      <trkpt lat="44.5497" lon="2.67812">
        <ele>336.6</ele>
        <time>2021-08-18T13:11:04Z</time>
      </trkpt>
      <trkpt lat="44.54979" lon="2.67804">
        <ele>335.6</ele>
        <time>2021-08-18T13:11:06Z</time>
      </trkpt>
      <trkpt lat="44.54989" lon="2.67796">
        <ele>333.9</ele>
        <time>2021-08-18T13:11:08Z</time>
      </trkpt>
      <trkpt lat="44.54999" lon="2.67788">
        <ele>332.1</ele>
        <time>2021-08-18T13:11:10Z</time>
      </trkpt>
      <trkpt lat="44.55007" lon="2.67779">
        <ele>333.2</ele>
        <time>2021-08-18T13:11:12Z</time>
      </trkpt>
      <trkpt lat="44.55016" lon="2.67768">
        <ele>334.3</ele>
        <time>2021-08-18T13:11:14Z</time>
      </trkpt>
      <trkpt lat="44.55023" lon="2.67756">
        <ele>335</ele>
        <time>2021-08-18T13:11:16Z</time>
      </trkpt>
      <trkpt lat="44.55031" lon="2.67746">
        <ele>335.3</ele>
        <time>2021-08-18T13:11:18Z</time>
      </trkpt>
      <trkpt lat="44.55038" lon="2.67734">
        <ele>336.2</ele>
        <time>2021-08-18T13:11:20Z</time>
      </trkpt>
      <trkpt lat="44.55046" lon="2.67724">
        <ele>336.2</ele>
        <time>2021-08-18T13:11:22Z</time>
      </trkpt>
      <trkpt lat="44.55053" lon="2.67715">
        <ele>336</ele>
        <time>2021-08-18T13:11:24Z</time>
      </trkpt>
      <trkpt lat="44.5506" lon="2.67705">
        <ele>335.7</ele>
        <time>2021-08-18T13:11:26Z</time>
      </trkpt>
      <trkpt lat="44.55066" lon="2.67697">
        <ele>334.9</ele>
        <time>2021-08-18T13:11:28Z</time>
      </trkpt>
      <trkpt lat="44.55071" lon="2.67687">
        <ele>334.6</ele>
        <time>2021-08-18T13:11:30Z</time>
      </trkpt>
      <trkpt lat="44.55076" lon="2.67679">
        <ele>334.1</ele>
        <time>2021-08-18T13:11:32Z</time>
      </trkpt>
      <trkpt lat="44.55081" lon="2.67672">
        <ele>333.2</ele>
        <time>2021-08-18T13:11:34Z</time>
      </trkpt>
      <trkpt lat="44.55085" lon="2.67665">
        <ele>333.1</ele>
        <time>2021-08-18T13:11:36Z</time>
      </trkpt>
      <trkpt lat="44.55089" lon="2.6766">
        <ele>333.6</ele>
        <time>2021-08-18T13:11:38Z</time>
      </trkpt>
      <trkpt lat="44.55091" lon="2.67655">
        <ele>334</ele>
        <time>2021-08-18T13:11:40Z</time>
      </trkpt>
      <trkpt lat="44.55091" lon="2.67655">
        <ele>334</ele>
        <time>2021-08-18T13:11:42Z</time>
      </trkpt>
      <trkpt lat="44.55092" lon="2.67656">
        <ele>333.9</ele>
        <time>2021-08-18T13:11:44Z</time>
      </trkpt>
      <trkpt lat="44.55092" lon="2.67656">
        <ele>333.9</ele>
        <time>2021-08-18T13:11:46Z</time>
      </trkpt>
      <trkpt lat="44.55092" lon="2.67656">
        <ele>333.8</ele>
        <time>2021-08-18T13:11:48Z</time>
      </trkpt>
      <trkpt lat="44.55092" lon="2.67656">
        <ele>333.8</ele>
        <time>2021-08-18T13:11:50Z</time>
      </trkpt>
      <trkpt lat="44.55094" lon="2.67631">
        <ele>336.7</ele>
        <time>2021-08-18T13:19:20Z</time>
      </trkpt>
      <trkpt lat="44.55094" lon="2.67626">
        <ele>337.2</ele>
        <time>2021-08-18T13:19:22Z</time>
      </trkpt>
      <trkpt lat="44.55096" lon="2.67619">
        <ele>337.7</ele>
        <time>2021-08-18T13:19:24Z</time>
      </trkpt>
      <trkpt lat="44.55096" lon="2.67612">
        <ele>338.5</ele>
        <time>2021-08-18T13:19:26Z</time>
      </trkpt>
      <trkpt lat="44.55098" lon="2.67603">
        <ele>338.8</ele>
        <time>2021-08-18T13:19:28Z</time>
      </trkpt>
      <trkpt lat="44.55101" lon="2.67595">
        <ele>339</ele>
        <time>2021-08-18T13:19:30Z</time>
      </trkpt>
      <trkpt lat="44.55103" lon="2.67587">
        <ele>338.9</ele>
        <time>2021-08-18T13:19:32Z</time>
      </trkpt>
      <trkpt lat="44.55106" lon="2.67581">
        <ele>338.9</ele>
        <time>2021-08-18T13:19:34Z</time>
      </trkpt>
      <trkpt lat="44.55109" lon="2.67575">
        <ele>339.4</ele>
        <time>2021-08-18T13:19:36Z</time>
      </trkpt>
      <trkpt lat="44.5511" lon="2.67569">
        <ele>340.1</ele>
        <time>2021-08-18T13:19:38Z</time>
      </trkpt>
      <trkpt lat="44.55113" lon="2.67563">
        <ele>340.6</ele>
        <time>2021-08-18T13:19:40Z</time>
      </trkpt>
      <trkpt lat="44.55114" lon="2.67556">
        <ele>341.5</ele>
        <time>2021-08-18T13:19:42Z</time>
      </trkpt>
      <trkpt lat="44.55116" lon="2.67549">
        <ele>342.4</ele>
        <time>2021-08-18T13:19:44Z</time>
      </trkpt>
      <trkpt lat="44.55119" lon="2.67542">
        <ele>342.8</ele>
        <time>2021-08-18T13:19:46Z</time>
      </trkpt>
      <trkpt lat="44.55123" lon="2.67534">
        <ele>342.8</ele>
        <time>2021-08-18T13:19:48Z</time>
      </trkpt>
      <trkpt lat="44.55127" lon="2.67526">
        <ele>342.8</ele>
        <time>2021-08-18T13:19:50Z</time>
      </trkpt>
      <trkpt lat="44.55132" lon="2.67518">
        <ele>342.5</ele>
        <time>2021-08-18T13:19:52Z</time>
      </trkpt>
      <trkpt lat="44.55138" lon="2.6751">
        <ele>341.6</ele>
        <time>2021-08-18T13:19:54Z</time>
      </trkpt>
      <trkpt lat="44.55142" lon="2.67502">
        <ele>341.3</ele>
        <time>2021-08-18T13:19:56Z</time>
      </trkpt>
      <trkpt lat="44.55147" lon="2.67495">
        <ele>340.8</ele>
        <time>2021-08-18T13:19:58Z</time>
      </trkpt>
      <trkpt lat="44.55153" lon="2.67488">
        <ele>340.5</ele>
        <time>2021-08-18T13:20:00Z</time>
      </trkpt>
      <trkpt lat="44.55158" lon="2.67481">
        <ele>340.2</ele>
        <time>2021-08-18T13:20:02Z</time>
      </trkpt>
      <trkpt lat="44.55163" lon="2.67474">
        <ele>339.9</ele>
        <time>2021-08-18T13:20:04Z</time>
      </trkpt>
      <trkpt lat="44.5517" lon="2.67467">
        <ele>339.9</ele>
        <time>2021-08-18T13:20:06Z</time>
      </trkpt>
      <trkpt lat="44.55177" lon="2.67461">
        <ele>339.8</ele>
        <time>2021-08-18T13:20:08Z</time>
      </trkpt>
      <trkpt lat="44.55183" lon="2.67456">
        <ele>339.5</ele>
        <time>2021-08-18T13:20:10Z</time>
      </trkpt>
      <trkpt lat="44.55189" lon="2.6745">
        <ele>339.1</ele>
        <time>2021-08-18T13:20:12Z</time>
      </trkpt>
      <trkpt lat="44.55194" lon="2.67444">
        <ele>338.5</ele>
        <time>2021-08-18T13:20:14Z</time>
      </trkpt>
      <trkpt lat="44.55199" lon="2.67438">
        <ele>337.9</ele>
        <time>2021-08-18T13:20:16Z</time>
      </trkpt>
      <trkpt lat="44.55204" lon="2.67431">
        <ele>337.1</ele>
        <time>2021-08-18T13:20:18Z</time>
      </trkpt>
      <trkpt lat="44.55209" lon="2.67423">
        <ele>336.5</ele>
        <time>2021-08-18T13:20:20Z</time>
      </trkpt>
      <trkpt lat="44.55214" lon="2.67415">
        <ele>335.3</ele>
        <time>2021-08-18T13:20:22Z</time>
      </trkpt>
      <trkpt lat="44.55218" lon="2.67408">
        <ele>333.7</ele>
        <time>2021-08-18T13:20:24Z</time>
      </trkpt>
      <trkpt lat="44.55222" lon="2.67401">
        <ele>332.3</ele>
        <time>2021-08-18T13:20:26Z</time>
      </trkpt>
      <trkpt lat="44.55225" lon="2.67397">
        <ele>331.3</ele>
        <time>2021-08-18T13:20:28Z</time>
      </trkpt>
      <trkpt lat="44.55227" lon="2.67394">
        <ele>330.3</ele>
        <time>2021-08-18T13:20:30Z</time>
      </trkpt>
      <trkpt lat="44.55227" lon="2.67394">
        <ele>330.4</ele>
        <time>2021-08-18T13:20:32Z</time>
      </trkpt>
      <trkpt lat="44.55227" lon="2.67393">
        <ele>330.3</ele>
        <time>2021-08-18T13:20:34Z</time>
      </trkpt>
      <trkpt lat="44.55228" lon="2.67393">
        <ele>330.1</ele>
        <time>2021-08-18T13:20:36Z</time>
      </trkpt>
      <trkpt lat="44.55229" lon="2.67394">
        <ele>329.7</ele>
        <time>2021-08-18T13:20:40Z</time>
      </trkpt>
      <trkpt lat="44.55229" lon="2.67394">
        <ele>329.6</ele>
        <time>2021-08-18T13:21:04Z</time>
      </trkpt>
      <trkpt lat="44.55229" lon="2.67394">
        <ele>329.5</ele>
        <time>2021-08-18T13:21:06Z</time>
      </trkpt>
      <trkpt lat="44.55229" lon="2.67393">
        <ele>329.5</ele>
        <time>2021-08-18T13:21:08Z</time>
      </trkpt>
      <trkpt lat="44.55231" lon="2.67389">
        <ele>329</ele>
        <time>2021-08-18T13:21:10Z</time>
      </trkpt>
      <trkpt lat="44.55234" lon="2.67383">
        <ele>327.9</ele>
        <time>2021-08-18T13:21:12Z</time>
      </trkpt>
      <trkpt lat="44.55236" lon="2.67376">
        <ele>327</ele>
        <time>2021-08-18T13:21:14Z</time>
      </trkpt>
      <trkpt lat="44.55238" lon="2.6737">
        <ele>326.2</ele>
        <time>2021-08-18T13:21:16Z</time>
      </trkpt>
      <trkpt lat="44.5524" lon="2.67364">
        <ele>325.8</ele>
        <time>2021-08-18T13:21:18Z</time>
      </trkpt>
      <trkpt lat="44.5524" lon="2.6736">
        <ele>325.6</ele>
        <time>2021-08-18T13:21:20Z</time>
      </trkpt>
      <trkpt lat="44.55241" lon="2.67357">
        <ele>325.5</ele>
        <time>2021-08-18T13:21:22Z</time>
      </trkpt>
      <trkpt lat="44.55241" lon="2.67356">
        <ele>325.4</ele>
        <time>2021-08-18T13:21:24Z</time>
      </trkpt>
      <trkpt lat="44.55241" lon="2.67356">
        <ele>325.4</ele>
        <time>2021-08-18T13:21:26Z</time>
      </trkpt>
      <trkpt lat="44.55241" lon="2.67356">
        <ele>325.3</ele>
        <time>2021-08-18T13:21:28Z</time>
      </trkpt>
      <trkpt lat="44.55241" lon="2.67357">
        <ele>325.2</ele>
        <time>2021-08-18T13:21:30Z</time>
      </trkpt>
      <trkpt lat="44.55247" lon="2.67329">
        <ele>322.9</ele>
        <time>2021-08-18T13:23:24Z</time>
      </trkpt>
      <trkpt lat="44.55248" lon="2.67321">
        <ele>322.3</ele>
        <time>2021-08-18T13:23:26Z</time>
      </trkpt>
      <trkpt lat="44.55248" lon="2.67313">
        <ele>321.5</ele>
        <time>2021-08-18T13:23:28Z</time>
      </trkpt>
      <trkpt lat="44.55248" lon="2.67306">
        <ele>321.2</ele>
        <time>2021-08-18T13:23:30Z</time>
      </trkpt>
      <trkpt lat="44.55248" lon="2.67299">
        <ele>320.7</ele>
        <time>2021-08-18T13:23:32Z</time>
      </trkpt>
      <trkpt lat="44.55248" lon="2.67292">
        <ele>320.3</ele>
        <time>2021-08-18T13:23:34Z</time>
      </trkpt>
      <trkpt lat="44.55247" lon="2.67285">
        <ele>320</ele>
        <time>2021-08-18T13:23:36Z</time>
      </trkpt>
      <trkpt lat="44.55247" lon="2.67278">
        <ele>319.7</ele>
        <time>2021-08-18T13:23:38Z</time>
      </trkpt>
      <trkpt lat="44.55247" lon="2.6727">
        <ele>319.1</ele>
        <time>2021-08-18T13:23:40Z</time>
      </trkpt>
      <trkpt lat="44.55246" lon="2.67263">
        <ele>318.7</ele>
        <time>2021-08-18T13:23:42Z</time>
      </trkpt>
      <trkpt lat="44.55246" lon="2.67255">
        <ele>318.2</ele>
        <time>2021-08-18T13:23:44Z</time>
      </trkpt>
      <trkpt lat="44.55245" lon="2.67247">
        <ele>317.8</ele>
        <time>2021-08-18T13:23:46Z</time>
      </trkpt>
      <trkpt lat="44.55245" lon="2.67239">
        <ele>317.5</ele>
        <time>2021-08-18T13:23:48Z</time>
      </trkpt>
      <trkpt lat="44.55245" lon="2.67231">
        <ele>317.1</ele>
        <time>2021-08-18T13:23:50Z</time>
      </trkpt>
      <trkpt lat="44.55245" lon="2.67224">
        <ele>316.6</ele>
        <time>2021-08-18T13:23:52Z</time>
      </trkpt>
      <trkpt lat="44.55247" lon="2.67217">
        <ele>315.9</ele>
        <time>2021-08-18T13:23:54Z</time>
      </trkpt>
      <trkpt lat="44.5525" lon="2.67211">
        <ele>315.2</ele>
        <time>2021-08-18T13:23:56Z</time>
      </trkpt>
      <trkpt lat="44.55256" lon="2.67207">
        <ele>315.1</ele>
        <time>2021-08-18T13:23:58Z</time>
      </trkpt>
      <trkpt lat="44.55261" lon="2.67204">
        <ele>315.1</ele>
        <time>2021-08-18T13:24:00Z</time>
      </trkpt>
      <trkpt lat="44.55265" lon="2.67204">
        <ele>315.2</ele>
        <time>2021-08-18T13:24:02Z</time>
      </trkpt>
      <trkpt lat="44.55269" lon="2.67203">
        <ele>315.3</ele>
        <time>2021-08-18T13:24:04Z</time>
      </trkpt>
      <trkpt lat="44.5527" lon="2.67203">
        <ele>315.3</ele>
        <time>2021-08-18T13:24:06Z</time>
      </trkpt>
      <trkpt lat="44.55272" lon="2.67203">
        <ele>315.3</ele>
        <time>2021-08-18T13:24:08Z</time>
      </trkpt>
      <trkpt lat="44.55275" lon="2.67203">
        <ele>315.4</ele>
        <time>2021-08-18T13:24:10Z</time>
      </trkpt>
      <trkpt lat="44.55276" lon="2.67203">
        <ele>315.4</ele>
        <time>2021-08-18T13:24:12Z</time>
      </trkpt>
      <trkpt lat="44.55276" lon="2.67203">
        <ele>315.4</ele>
        <time>2021-08-18T13:24:14Z</time>
      </trkpt>
      <trkpt lat="44.55293" lon="2.67196">
        <ele>315.8</ele>
        <time>2021-08-18T13:25:10Z</time>
      </trkpt>
      <trkpt lat="44.55294" lon="2.67196">
        <ele>315.8</ele>
        <time>2021-08-18T13:25:12Z</time>
      </trkpt>
      <trkpt lat="44.55297" lon="2.67196">
        <ele>315.9</ele>
        <time>2021-08-18T13:25:14Z</time>
      </trkpt>
      <trkpt lat="44.55301" lon="2.67194">
        <ele>316</ele>
        <time>2021-08-18T13:25:16Z</time>
      </trkpt>
      <trkpt lat="44.55305" lon="2.67193">
        <ele>316.1</ele>
        <time>2021-08-18T13:25:18Z</time>
      </trkpt>
      <trkpt lat="44.55308" lon="2.67192">
        <ele>316.2</ele>
        <time>2021-08-18T13:25:20Z</time>
      </trkpt>
      <trkpt lat="44.55312" lon="2.67191">
        <ele>316.3</ele>
        <time>2021-08-18T13:25:22Z</time>
      </trkpt>
      <trkpt lat="44.55316" lon="2.67191">
        <ele>316.4</ele>
        <time>2021-08-18T13:25:24Z</time>
      </trkpt>
      <trkpt lat="44.5532" lon="2.67189">
        <ele>316.5</ele>
        <time>2021-08-18T13:25:26Z</time>
      </trkpt>
      <trkpt lat="44.55324" lon="2.67188">
        <ele>316.7</ele>
        <time>2021-08-18T13:25:28Z</time>
      </trkpt>
      <trkpt lat="44.55327" lon="2.67187">
        <ele>316.8</ele>
        <time>2021-08-18T13:25:30Z</time>
      </trkpt>
      <trkpt lat="44.55331" lon="2.67186">
        <ele>316.9</ele>
        <time>2021-08-18T13:25:32Z</time>
      </trkpt>
      <trkpt lat="44.55335" lon="2.67186">
        <ele>317.1</ele>
        <time>2021-08-18T13:25:34Z</time>
      </trkpt>
      <trkpt lat="44.55338" lon="2.67186">
        <ele>317.4</ele>
        <time>2021-08-18T13:25:36Z</time>
      </trkpt>
      <trkpt lat="44.55341" lon="2.67188">
        <ele>317.6</ele>
        <time>2021-08-18T13:25:38Z</time>
      </trkpt>
      <trkpt lat="44.55342" lon="2.6719">
        <ele>317.7</ele>
        <time>2021-08-18T13:25:40Z</time>
      </trkpt>
      <trkpt lat="44.55344" lon="2.67194">
        <ele>317.9</ele>
        <time>2021-08-18T13:25:42Z</time>
      </trkpt>
      <trkpt lat="44.55344" lon="2.67199">
        <ele>317.9</ele>
        <time>2021-08-18T13:25:44Z</time>
      </trkpt>
      <trkpt lat="44.55344" lon="2.67205">
        <ele>318</ele>
        <time>2021-08-18T13:25:46Z</time>
      </trkpt>
      <trkpt lat="44.55346" lon="2.67212">
        <ele>318.1</ele>
        <time>2021-08-18T13:25:48Z</time>
      </trkpt>
      <trkpt lat="44.55348" lon="2.67218">
        <ele>318.4</ele>
        <time>2021-08-18T13:25:50Z</time>
      </trkpt>
      <trkpt lat="44.55354" lon="2.6722">
        <ele>319</ele>
        <time>2021-08-18T13:25:52Z</time>
      </trkpt>
      <trkpt lat="44.55359" lon="2.67219">
        <ele>319.4</ele>
        <time>2021-08-18T13:25:54Z</time>
      </trkpt>
      <trkpt lat="44.55362" lon="2.67218">
        <ele>319.7</ele>
        <time>2021-08-18T13:25:56Z</time>
      </trkpt>
      <trkpt lat="44.55365" lon="2.67217">
        <ele>320</ele>
        <time>2021-08-18T13:25:58Z</time>
      </trkpt>
      <trkpt lat="44.55367" lon="2.67217">
        <ele>320.2</ele>
        <time>2021-08-18T13:26:00Z</time>
      </trkpt>
      <trkpt lat="44.55372" lon="2.67217">
        <ele>320.6</ele>
        <time>2021-08-18T13:26:02Z</time>
      </trkpt>
      <trkpt lat="44.55376" lon="2.67216">
        <ele>321</ele>
        <time>2021-08-18T13:26:04Z</time>
      </trkpt>
      <trkpt lat="44.55379" lon="2.67215">
        <ele>321.2</ele>
        <time>2021-08-18T13:26:06Z</time>
      </trkpt>
      <trkpt lat="44.55382" lon="2.67215">
        <ele>321.6</ele>
        <time>2021-08-18T13:26:08Z</time>
      </trkpt>
      <trkpt lat="44.55386" lon="2.67214">
        <ele>321.9</ele>
        <time>2021-08-18T13:26:10Z</time>
      </trkpt>
      <trkpt lat="44.55389" lon="2.67214">
        <ele>322.2</ele>
        <time>2021-08-18T13:26:12Z</time>
      </trkpt>
      <trkpt lat="44.55392" lon="2.67213">
        <ele>322.4</ele>
        <time>2021-08-18T13:26:14Z</time>
      </trkpt>
      <trkpt lat="44.55394" lon="2.67214">
        <ele>322.6</ele>
        <time>2021-08-18T13:26:16Z</time>
      </trkpt>
      <trkpt lat="44.55397" lon="2.67213">
        <ele>322.9</ele>
        <time>2021-08-18T13:26:18Z</time>
      </trkpt>
      <trkpt lat="44.55399" lon="2.67212">
        <ele>323</ele>
        <time>2021-08-18T13:26:20Z</time>
      </trkpt>
      <trkpt lat="44.55401" lon="2.67212">
        <ele>323.2</ele>
        <time>2021-08-18T13:26:22Z</time>
      </trkpt>
      <trkpt lat="44.5545" lon="2.67207">
        <ele>326.4</ele>
        <time>2021-08-18T13:27:02Z</time>
      </trkpt>
      <trkpt lat="44.55454" lon="2.67206">
        <ele>326.6</ele>
        <time>2021-08-18T13:27:04Z</time>
      </trkpt>
      <trkpt lat="44.55456" lon="2.67204">
        <ele>326.7</ele>
        <time>2021-08-18T13:27:06Z</time>
      </trkpt>
      <trkpt lat="44.5546" lon="2.67202">
        <ele>326.8</ele>
        <time>2021-08-18T13:27:08Z</time>
      </trkpt>
      <trkpt lat="44.55463" lon="2.672">
        <ele>326.9</ele>
        <time>2021-08-18T13:27:10Z</time>
      </trkpt>
      <trkpt lat="44.55467" lon="2.67197">
        <ele>326.9</ele>
        <time>2021-08-18T13:27:12Z</time>
      </trkpt>
      <trkpt lat="44.5547" lon="2.67191">
        <ele>326.8</ele>
        <time>2021-08-18T13:27:14Z</time>
      </trkpt>
      <trkpt lat="44.55472" lon="2.67185">
        <ele>326.6</ele>
        <time>2021-08-18T13:27:16Z</time>
      </trkpt>
      <trkpt lat="44.55475" lon="2.67182">
        <ele>326.6</ele>
        <time>2021-08-18T13:27:18Z</time>
      </trkpt>
      <trkpt lat="44.55479" lon="2.6718">
        <ele>326.7</ele>
        <time>2021-08-18T13:27:20Z</time>
      </trkpt>
      <trkpt lat="44.55484" lon="2.67177">
        <ele>326.8</ele>
        <time>2021-08-18T13:27:22Z</time>
      </trkpt>
      <trkpt lat="44.55488" lon="2.67176">
        <ele>326.9</ele>
        <time>2021-08-18T13:27:24Z</time>
      </trkpt>
      <trkpt lat="44.55491" lon="2.67174">
        <ele>327</ele>
        <time>2021-08-18T13:27:26Z</time>
      </trkpt>
      <trkpt lat="44.55496" lon="2.67172">
        <ele>327.1</ele>
        <time>2021-08-18T13:27:28Z</time>
      </trkpt>
      <trkpt lat="44.555" lon="2.67169">
        <ele>327.1</ele>
        <time>2021-08-18T13:27:30Z</time>
      </trkpt>
      <trkpt lat="44.55503" lon="2.67164">
        <ele>327.1</ele>
        <time>2021-08-18T13:27:32Z</time>
      </trkpt>
      <trkpt lat="44.55503" lon="2.67157">
        <ele>327.5</ele>
        <time>2021-08-18T13:27:34Z</time>
      </trkpt>
      <trkpt lat="44.55501" lon="2.67152">
        <ele>327.7</ele>
        <time>2021-08-18T13:27:36Z</time>
      </trkpt>
      <trkpt lat="44.555" lon="2.67152">
        <ele>327.7</ele>
        <time>2021-08-18T13:27:38Z</time>
      </trkpt>
      <trkpt lat="44.55498" lon="2.67152">
        <ele>327.6</ele>
        <time>2021-08-18T13:27:40Z</time>
      </trkpt>
      <trkpt lat="44.55497" lon="2.67153">
        <ele>327.5</ele>
        <time>2021-08-18T13:27:42Z</time>
      </trkpt>
      <trkpt lat="44.55497" lon="2.67153">
        <ele>327.5</ele>
        <time>2021-08-18T13:27:44Z</time>
      </trkpt>
      <trkpt lat="44.55498" lon="2.67153">
        <ele>327.6</ele>
        <time>2021-08-18T13:27:46Z</time>
      </trkpt>
      <trkpt lat="44.55505" lon="2.67162">
        <ele>327.2</ele>
        <time>2021-08-18T14:42:18Z</time>
      </trkpt>
      <trkpt lat="44.55506" lon="2.67163">
        <ele>327.1</ele>
        <time>2021-08-18T14:42:20Z</time>
      </trkpt>
      <trkpt lat="44.55507" lon="2.67168">
        <ele>327</ele>
        <time>2021-08-18T14:42:22Z</time>
      </trkpt>
      <trkpt lat="44.5551" lon="2.6717">
        <ele>327.1</ele>
        <time>2021-08-18T14:42:24Z</time>
      </trkpt>
      <trkpt lat="44.55514" lon="2.67169">
        <ele>327</ele>
        <time>2021-08-18T14:42:26Z</time>
      </trkpt>
      <trkpt lat="44.55517" lon="2.67167">
        <ele>326.9</ele>
        <time>2021-08-18T14:42:28Z</time>
      </trkpt>
      <trkpt lat="44.5552" lon="2.67167">
        <ele>326.8</ele>
        <time>2021-08-18T14:42:30Z</time>
      </trkpt>
      <trkpt lat="44.55524" lon="2.67167">
        <ele>326.7</ele>
        <time>2021-08-18T14:42:32Z</time>
      </trkpt>
      <trkpt lat="44.55528" lon="2.67166">
        <ele>326.7</ele>
        <time>2021-08-18T14:42:34Z</time>
      </trkpt>
      <trkpt lat="44.55531" lon="2.67163">
        <ele>326.8</ele>
        <time>2021-08-18T14:42:36Z</time>
      </trkpt>
      <trkpt lat="44.55534" lon="2.67162">
        <ele>326.8</ele>
        <time>2021-08-18T14:42:38Z</time>
      </trkpt>
      <trkpt lat="44.55534" lon="2.67162">
        <ele>326.9</ele>
        <time>2021-08-18T14:42:40Z</time>
      </trkpt>
      <trkpt lat="44.55535" lon="2.67161">
        <ele>326.9</ele>
        <time>2021-08-18T14:42:42Z</time>
      </trkpt>
      <trkpt lat="44.55535" lon="2.67161">
        <ele>326.9</ele>
        <time>2021-08-18T14:42:44Z</time>
      </trkpt>
      <trkpt lat="44.55536" lon="2.67161">
        <ele>326.9</ele>
        <time>2021-08-18T14:42:46Z</time>
      </trkpt>
      <trkpt lat="44.55521" lon="2.67166">
        <ele>326.8</ele>
        <time>2021-08-18T14:43:12Z</time>
      </trkpt>
      <trkpt lat="44.55515" lon="2.67168">
        <ele>326.9</ele>
        <time>2021-08-18T14:43:14Z</time>
      </trkpt>
      <trkpt lat="44.55508" lon="2.67167">
        <ele>326.9</ele>
        <time>2021-08-18T14:43:16Z</time>
      </trkpt>
      <trkpt lat="44.55501" lon="2.67168">
        <ele>327</ele>
        <time>2021-08-18T14:43:18Z</time>
      </trkpt>
      <trkpt lat="44.55496" lon="2.6717">
        <ele>327</ele>
        <time>2021-08-18T14:43:20Z</time>
      </trkpt>
      <trkpt lat="44.5549" lon="2.67171">
        <ele>326.8</ele>
        <time>2021-08-18T14:43:22Z</time>
      </trkpt>
      <trkpt lat="44.55483" lon="2.67174">
        <ele>326.6</ele>
        <time>2021-08-18T14:43:24Z</time>
      </trkpt>
      <trkpt lat="44.5548" lon="2.67177">
        <ele>326.6</ele>
        <time>2021-08-18T14:43:26Z</time>
      </trkpt>
      <trkpt lat="44.55477" lon="2.67182">
        <ele>326.7</ele>
        <time>2021-08-18T14:43:28Z</time>
      </trkpt>
      <trkpt lat="44.55472" lon="2.67191">
        <ele>326.9</ele>
        <time>2021-08-18T14:43:30Z</time>
      </trkpt>
      <trkpt lat="44.55467" lon="2.67195">
        <ele>326.9</ele>
        <time>2021-08-18T14:43:32Z</time>
      </trkpt>
      <trkpt lat="44.55462" lon="2.67195">
        <ele>326.6</ele>
        <time>2021-08-18T14:43:34Z</time>
      </trkpt>
      <trkpt lat="44.55457" lon="2.67197">
        <ele>326.3</ele>
        <time>2021-08-18T14:43:36Z</time>
      </trkpt>
      <trkpt lat="44.55449" lon="2.672">
        <ele>326.1</ele>
        <time>2021-08-18T14:43:38Z</time>
      </trkpt>
      <trkpt lat="44.55442" lon="2.67202">
        <ele>325.8</ele>
        <time>2021-08-18T14:43:40Z</time>
      </trkpt>
      <trkpt lat="44.55437" lon="2.67203">
        <ele>325.5</ele>
        <time>2021-08-18T14:43:42Z</time>
      </trkpt>
      <trkpt lat="44.55432" lon="2.67205">
        <ele>325.3</ele>
        <time>2021-08-18T14:43:44Z</time>
      </trkpt>
      <trkpt lat="44.55428" lon="2.67208">
        <ele>325.1</ele>
        <time>2021-08-18T14:43:46Z</time>
      </trkpt>
      <trkpt lat="44.55423" lon="2.67209">
        <ele>324.9</ele>
        <time>2021-08-18T14:43:48Z</time>
      </trkpt>
      <trkpt lat="44.55417" lon="2.67211">
        <ele>324.6</ele>
        <time>2021-08-18T14:43:50Z</time>
      </trkpt>
      <trkpt lat="44.55412" lon="2.67211">
        <ele>324.1</ele>
        <time>2021-08-18T14:43:52Z</time>
      </trkpt>
      <trkpt lat="44.55406" lon="2.67211">
        <ele>323.6</ele>
        <time>2021-08-18T14:43:54Z</time>
      </trkpt>
      <trkpt lat="44.554" lon="2.67211">
        <ele>323.1</ele>
        <time>2021-08-18T14:43:56Z</time>
      </trkpt>
      <trkpt lat="44.55395" lon="2.67212">
        <ele>322.6</ele>
        <time>2021-08-18T14:43:58Z</time>
      </trkpt>
      <trkpt lat="44.55389" lon="2.67213">
        <ele>322.1</ele>
        <time>2021-08-18T14:44:00Z</time>
      </trkpt>
      <trkpt lat="44.55382" lon="2.67215">
        <ele>321.5</ele>
        <time>2021-08-18T14:44:02Z</time>
      </trkpt>
      <trkpt lat="44.55376" lon="2.67218">
        <ele>321</ele>
        <time>2021-08-18T14:44:04Z</time>
      </trkpt>
      <trkpt lat="44.5537" lon="2.67221">
        <ele>320.5</ele>
        <time>2021-08-18T14:44:06Z</time>
      </trkpt>
      <trkpt lat="44.55365" lon="2.67222">
        <ele>320</ele>
        <time>2021-08-18T14:44:08Z</time>
      </trkpt>
      <trkpt lat="44.55361" lon="2.67223">
        <ele>319.6</ele>
        <time>2021-08-18T14:44:10Z</time>
      </trkpt>
      <trkpt lat="44.55357" lon="2.67224">
        <ele>319.3</ele>
        <time>2021-08-18T14:44:12Z</time>
      </trkpt>
      <trkpt lat="44.55353" lon="2.67227">
        <ele>318.9</ele>
        <time>2021-08-18T14:44:14Z</time>
      </trkpt>
      <trkpt lat="44.5535" lon="2.67226">
        <ele>318.6</ele>
        <time>2021-08-18T14:44:16Z</time>
      </trkpt>
      <trkpt lat="44.55347" lon="2.6722">
        <ele>318.3</ele>
        <time>2021-08-18T14:44:18Z</time>
      </trkpt>
      <trkpt lat="44.55347" lon="2.6721">
        <ele>318.2</ele>
        <time>2021-08-18T14:44:20Z</time>
      </trkpt>
      <trkpt lat="44.55348" lon="2.67202">
        <ele>318.3</ele>
        <time>2021-08-18T14:44:22Z</time>
      </trkpt>
      <trkpt lat="44.55347" lon="2.67195">
        <ele>318.1</ele>
        <time>2021-08-18T14:44:24Z</time>
      </trkpt>
      <trkpt lat="44.55343" lon="2.67191">
        <ele>317.8</ele>
        <time>2021-08-18T14:44:26Z</time>
      </trkpt>
      <trkpt lat="44.55339" lon="2.6719">
        <ele>317.4</ele>
        <time>2021-08-18T14:44:28Z</time>
      </trkpt>
      <trkpt lat="44.55334" lon="2.67192">
        <ele>317</ele>
        <time>2021-08-18T14:44:30Z</time>
      </trkpt>
      <trkpt lat="44.5533" lon="2.67192">
        <ele>316.9</ele>
        <time>2021-08-18T14:44:32Z</time>
      </trkpt>
      <trkpt lat="44.55326" lon="2.67191">
        <ele>316.7</ele>
        <time>2021-08-18T14:44:34Z</time>
      </trkpt>
      <trkpt lat="44.55322" lon="2.67193">
        <ele>316.6</ele>
        <time>2021-08-18T14:44:36Z</time>
      </trkpt>
      <trkpt lat="44.55319" lon="2.67193">
        <ele>316.5</ele>
        <time>2021-08-18T14:44:38Z</time>
      </trkpt>
      <trkpt lat="44.55315" lon="2.67193">
        <ele>316.4</ele>
        <time>2021-08-18T14:44:40Z</time>
      </trkpt>
      <trkpt lat="44.55311" lon="2.67194">
        <ele>316.3</ele>
        <time>2021-08-18T14:44:42Z</time>
      </trkpt>
      <trkpt lat="44.55306" lon="2.67195">
        <ele>316.1</ele>
        <time>2021-08-18T14:44:44Z</time>
      </trkpt>
      <trkpt lat="44.55302" lon="2.67196">
        <ele>316</ele>
        <time>2021-08-18T14:44:46Z</time>
      </trkpt>
      <trkpt lat="44.55298" lon="2.67196">
        <ele>315.9</ele>
        <time>2021-08-18T14:44:48Z</time>
      </trkpt>
      <trkpt lat="44.55294" lon="2.67197">
        <ele>315.8</ele>
        <time>2021-08-18T14:44:50Z</time>
      </trkpt>
      <trkpt lat="44.5529" lon="2.67198">
        <ele>315.7</ele>
        <time>2021-08-18T14:44:52Z</time>
      </trkpt>
      <trkpt lat="44.55285" lon="2.67199">
        <ele>315.6</ele>
        <time>2021-08-18T14:44:54Z</time>
      </trkpt>
      <trkpt lat="44.55281" lon="2.67199">
        <ele>315.5</ele>
        <time>2021-08-18T14:44:56Z</time>
      </trkpt>
      <trkpt lat="44.55277" lon="2.67201">
        <ele>315.4</ele>
        <time>2021-08-18T14:44:58Z</time>
      </trkpt>
      <trkpt lat="44.55273" lon="2.67202">
        <ele>315.4</ele>
        <time>2021-08-18T14:45:00Z</time>
      </trkpt>
      <trkpt lat="44.5527" lon="2.67203">
        <ele>315.3</ele>
        <time>2021-08-18T14:45:02Z</time>
      </trkpt>
      <trkpt lat="44.55265" lon="2.67204">
        <ele>315.2</ele>
        <time>2021-08-18T14:45:04Z</time>
      </trkpt>
      <trkpt lat="44.55261" lon="2.67204">
        <ele>315.1</ele>
        <time>2021-08-18T14:45:06Z</time>
      </trkpt>
      <trkpt lat="44.55257" lon="2.67205">
        <ele>315</ele>
        <time>2021-08-18T14:45:08Z</time>
      </trkpt>
      <trkpt lat="44.55253" lon="2.67206">
        <ele>315</ele>
        <time>2021-08-18T14:45:10Z</time>
      </trkpt>
      <trkpt lat="44.5525" lon="2.67208">
        <ele>315</ele>
        <time>2021-08-18T14:45:12Z</time>
      </trkpt>
      <trkpt lat="44.55246" lon="2.67208">
        <ele>315.6</ele>
        <time>2021-08-18T14:45:14Z</time>
      </trkpt>
      <trkpt lat="44.55241" lon="2.67207">
        <ele>316.3</ele>
        <time>2021-08-18T14:45:16Z</time>
      </trkpt>
      <trkpt lat="44.55236" lon="2.67208">
        <ele>317</ele>
        <time>2021-08-18T14:45:18Z</time>
      </trkpt>
      <trkpt lat="44.55232" lon="2.67209">
        <ele>317.8</ele>
        <time>2021-08-18T14:45:20Z</time>
      </trkpt>
      <trkpt lat="44.55227" lon="2.67209">
        <ele>318.5</ele>
        <time>2021-08-18T14:45:22Z</time>
      </trkpt>
      <trkpt lat="44.55223" lon="2.67208">
        <ele>319</ele>
        <time>2021-08-18T14:45:24Z</time>
      </trkpt>
      <trkpt lat="44.5522" lon="2.67206">
        <ele>319.3</ele>
        <time>2021-08-18T14:45:26Z</time>
      </trkpt>
      <trkpt lat="44.55217" lon="2.67201">
        <ele>319.3</ele>
        <time>2021-08-18T14:45:28Z</time>
      </trkpt>
      <trkpt lat="44.55214" lon="2.67196">
        <ele>319.2</ele>
        <time>2021-08-18T14:45:30Z</time>
      </trkpt>
      <trkpt lat="44.55211" lon="2.67189">
        <ele>318.8</ele>
        <time>2021-08-18T14:45:32Z</time>
      </trkpt>
      <trkpt lat="44.55209" lon="2.67181">
        <ele>318.4</ele>
        <time>2021-08-18T14:45:34Z</time>
      </trkpt>
      <trkpt lat="44.55204" lon="2.67173">
        <ele>318.1</ele>
        <time>2021-08-18T14:45:36Z</time>
      </trkpt>
      <trkpt lat="44.55198" lon="2.67165">
        <ele>317.9</ele>
        <time>2021-08-18T14:45:38Z</time>
      </trkpt>
      <trkpt lat="44.55191" lon="2.67158">
        <ele>318.3</ele>
        <time>2021-08-18T14:45:40Z</time>
      </trkpt>
      <trkpt lat="44.55184" lon="2.67152">
        <ele>318.6</ele>
        <time>2021-08-18T14:45:42Z</time>
      </trkpt>
      <trkpt lat="44.55176" lon="2.67149">
        <ele>319.1</ele>
        <time>2021-08-18T14:45:44Z</time>
      </trkpt>
      <trkpt lat="44.55169" lon="2.67145">
        <ele>319.5</ele>
        <time>2021-08-18T14:45:46Z</time>
      </trkpt>
      <trkpt lat="44.55161" lon="2.6714">
        <ele>319.7</ele>
        <time>2021-08-18T14:45:48Z</time>
      </trkpt>
      <trkpt lat="44.55154" lon="2.67136">
        <ele>319.9</ele>
        <time>2021-08-18T14:45:50Z</time>
      </trkpt>
      <trkpt lat="44.55145" lon="2.67132">
        <ele>320.1</ele>
        <time>2021-08-18T14:45:52Z</time>
      </trkpt>
      <trkpt lat="44.55136" lon="2.67129">
        <ele>320.3</ele>
        <time>2021-08-18T14:45:54Z</time>
      </trkpt>
      <trkpt lat="44.55128" lon="2.67128">
        <ele>320.6</ele>
        <time>2021-08-18T14:45:56Z</time>
      </trkpt>
      <trkpt lat="44.5512" lon="2.67128">
        <ele>321</ele>
        <time>2021-08-18T14:45:58Z</time>
      </trkpt>
      <trkpt lat="44.55112" lon="2.6713">
        <ele>321.6</ele>
        <time>2021-08-18T14:46:00Z</time>
      </trkpt>
      <trkpt lat="44.55105" lon="2.67132">
        <ele>322.2</ele>
        <time>2021-08-18T14:46:02Z</time>
      </trkpt>
      <trkpt lat="44.55097" lon="2.67134">
        <ele>322.9</ele>
        <time>2021-08-18T14:46:04Z</time>
      </trkpt>
      <trkpt lat="44.5509" lon="2.67137">
        <ele>323.8</ele>
        <time>2021-08-18T14:46:06Z</time>
      </trkpt>
      <trkpt lat="44.55082" lon="2.67141">
        <ele>324.7</ele>
        <time>2021-08-18T14:46:08Z</time>
      </trkpt>
      <trkpt lat="44.55074" lon="2.67144">
        <ele>326.3</ele>
        <time>2021-08-18T14:46:10Z</time>
      </trkpt>
      <trkpt lat="44.55066" lon="2.67146">
        <ele>327.7</ele>
        <time>2021-08-18T14:46:12Z</time>
      </trkpt>
      <trkpt lat="44.55057" lon="2.67145">
        <ele>328.8</ele>
        <time>2021-08-18T14:46:14Z</time>
      </trkpt>
      <trkpt lat="44.55049" lon="2.67143">
        <ele>329.6</ele>
        <time>2021-08-18T14:46:16Z</time>
      </trkpt>
      <trkpt lat="44.55041" lon="2.6714">
        <ele>330.2</ele>
        <time>2021-08-18T14:46:18Z</time>
      </trkpt>
      <trkpt lat="44.55033" lon="2.67137">
        <ele>330.7</ele>
        <time>2021-08-18T14:46:20Z</time>
      </trkpt>
      <trkpt lat="44.55026" lon="2.67134">
        <ele>331</ele>
        <time>2021-08-18T14:46:22Z</time>
      </trkpt>
      <trkpt lat="44.55019" lon="2.67131">
        <ele>331.2</ele>
        <time>2021-08-18T14:46:24Z</time>
      </trkpt>
      <trkpt lat="44.55012" lon="2.67129">
        <ele>331.6</ele>
        <time>2021-08-18T14:46:26Z</time>
      </trkpt>
      <trkpt lat="44.55007" lon="2.67127">
        <ele>331.7</ele>
        <time>2021-08-18T14:46:28Z</time>
      </trkpt>
      <trkpt lat="44.55002" lon="2.67126">
        <ele>331.9</ele>
        <time>2021-08-18T14:46:30Z</time>
      </trkpt>
      <trkpt lat="44.54998" lon="2.67125">
        <ele>332.1</ele>
        <time>2021-08-18T14:46:32Z</time>
      </trkpt>
      <trkpt lat="44.54994" lon="2.67125">
        <ele>331.8</ele>
        <time>2021-08-18T14:46:34Z</time>
      </trkpt>
      <trkpt lat="44.54989" lon="2.67125">
        <ele>331.8</ele>
        <time>2021-08-18T14:46:36Z</time>
      </trkpt>
      <trkpt lat="44.54986" lon="2.67125">
        <ele>331.7</ele>
        <time>2021-08-18T14:46:38Z</time>
      </trkpt>
      <trkpt lat="44.54982" lon="2.67125">
        <ele>331.8</ele>
        <time>2021-08-18T14:46:40Z</time>
      </trkpt>
      <trkpt lat="44.54978" lon="2.67126">
        <ele>331.9</ele>
        <time>2021-08-18T14:46:42Z</time>
      </trkpt>
      <trkpt lat="44.54975" lon="2.67127">
        <ele>332.2</ele>
        <time>2021-08-18T14:46:44Z</time>
      </trkpt>
      <trkpt lat="44.54971" lon="2.6713">
        <ele>332.6</ele>
        <time>2021-08-18T14:46:46Z</time>
      </trkpt>
      <trkpt lat="44.54968" lon="2.67131">
        <ele>332.8</ele>
        <time>2021-08-18T14:46:48Z</time>
      </trkpt>
      <trkpt lat="44.54965" lon="2.67133">
        <ele>333.1</ele>
        <time>2021-08-18T14:46:50Z</time>
      </trkpt>
      <trkpt lat="44.54962" lon="2.67135">
        <ele>333.3</ele>
        <time>2021-08-18T14:46:52Z</time>
      </trkpt>
      <trkpt lat="44.54961" lon="2.67138">
        <ele>333.9</ele>
        <time>2021-08-18T14:46:54Z</time>
      </trkpt>
      <trkpt lat="44.54958" lon="2.67141">
        <ele>334.3</ele>
        <time>2021-08-18T14:46:56Z</time>
      </trkpt>
      <trkpt lat="44.54955" lon="2.67143">
        <ele>334.7</ele>
        <time>2021-08-18T14:46:58Z</time>
      </trkpt>
      <trkpt lat="44.54952" lon="2.67146">
        <ele>335</ele>
        <time>2021-08-18T14:47:00Z</time>
      </trkpt>
      <trkpt lat="44.54949" lon="2.67148">
        <ele>335.3</ele>
        <time>2021-08-18T14:47:02Z</time>
      </trkpt>
      <trkpt lat="44.54946" lon="2.6715">
        <ele>335.4</ele>
        <time>2021-08-18T14:47:04Z</time>
      </trkpt>
      <trkpt lat="44.54943" lon="2.67152">
        <ele>335.5</ele>
        <time>2021-08-18T14:47:06Z</time>
      </trkpt>
      <trkpt lat="44.54942" lon="2.67153">
        <ele>335.6</ele>
        <time>2021-08-18T14:47:08Z</time>
      </trkpt>
      <trkpt lat="44.54939" lon="2.67155">
        <ele>335.8</ele>
        <time>2021-08-18T14:47:10Z</time>
      </trkpt>
      <trkpt lat="44.54934" lon="2.67158">
        <ele>336</ele>
        <time>2021-08-18T14:47:12Z</time>
      </trkpt>
      <trkpt lat="44.54931" lon="2.6716">
        <ele>336.1</ele>
        <time>2021-08-18T14:47:14Z</time>
      </trkpt>
      <trkpt lat="44.54928" lon="2.67162">
        <ele>336.1</ele>
        <time>2021-08-18T14:47:16Z</time>
      </trkpt>
      <trkpt lat="44.54924" lon="2.67164">
        <ele>336.2</ele>
        <time>2021-08-18T14:47:18Z</time>
      </trkpt>
      <trkpt lat="44.54921" lon="2.67166">
        <ele>336.2</ele>
        <time>2021-08-18T14:47:20Z</time>
      </trkpt>
      <trkpt lat="44.54918" lon="2.67168">
        <ele>336.6</ele>
        <time>2021-08-18T14:47:22Z</time>
      </trkpt>
      <trkpt lat="44.54914" lon="2.6717">
        <ele>337.4</ele>
        <time>2021-08-18T14:47:24Z</time>
      </trkpt>
      <trkpt lat="44.5491" lon="2.67173">
        <ele>338.1</ele>
        <time>2021-08-18T14:47:26Z</time>
      </trkpt>
      <trkpt lat="44.54906" lon="2.67175">
        <ele>338.8</ele>
        <time>2021-08-18T14:47:28Z</time>
      </trkpt>
      <trkpt lat="44.54901" lon="2.67177">
        <ele>339.2</ele>
        <time>2021-08-18T14:47:30Z</time>
      </trkpt>
      <trkpt lat="44.54896" lon="2.67179">
        <ele>339.5</ele>
        <time>2021-08-18T14:47:32Z</time>
      </trkpt>
      <trkpt lat="44.5489" lon="2.67182">
        <ele>339.9</ele>
        <time>2021-08-18T14:47:34Z</time>
      </trkpt>
      <trkpt lat="44.54883" lon="2.67184">
        <ele>340</ele>
        <time>2021-08-18T14:47:36Z</time>
      </trkpt>
      <trkpt lat="44.54876" lon="2.67185">
        <ele>340.1</ele>
        <time>2021-08-18T14:47:38Z</time>
      </trkpt>
      <trkpt lat="44.54869" lon="2.67187">
        <ele>340</ele>
        <time>2021-08-18T14:47:40Z</time>
      </trkpt>
      <trkpt lat="44.5486" lon="2.67189">
        <ele>340</ele>
        <time>2021-08-18T14:47:42Z</time>
      </trkpt>
      <trkpt lat="44.5485" lon="2.6719">
        <ele>339.4</ele>
        <time>2021-08-18T14:47:44Z</time>
      </trkpt>
      <trkpt lat="44.5484" lon="2.67191">
        <ele>338.7</ele>
        <time>2021-08-18T14:47:46Z</time>
      </trkpt>
      <trkpt lat="44.54829" lon="2.67191">
        <ele>338.5</ele>
        <time>2021-08-18T14:47:48Z</time>
      </trkpt>
      <trkpt lat="44.54818" lon="2.67189">
        <ele>339.7</ele>
        <time>2021-08-18T14:47:50Z</time>
      </trkpt>
      <trkpt lat="44.54807" lon="2.67186">
        <ele>340.1</ele>
        <time>2021-08-18T14:47:52Z</time>
      </trkpt>
      <trkpt lat="44.54797" lon="2.6718">
        <ele>339.4</ele>
        <time>2021-08-18T14:47:54Z</time>
      </trkpt>
      <trkpt lat="44.54789" lon="2.67174">
        <ele>338.6</ele>
        <time>2021-08-18T14:47:56Z</time>
      </trkpt>
      <trkpt lat="44.54783" lon="2.67168">
        <ele>336.9</ele>
        <time>2021-08-18T14:47:58Z</time>
      </trkpt>
      <trkpt lat="44.54778" lon="2.67164">
        <ele>337</ele>
        <time>2021-08-18T14:48:00Z</time>
      </trkpt>
      <trkpt lat="44.54774" lon="2.67161">
        <ele>337.4</ele>
        <time>2021-08-18T14:48:02Z</time>
      </trkpt>
      <trkpt lat="44.5477" lon="2.67158">
        <ele>337.6</ele>
        <time>2021-08-18T14:48:04Z</time>
      </trkpt>
      <trkpt lat="44.54765" lon="2.67154">
        <ele>338</ele>
        <time>2021-08-18T14:48:06Z</time>
      </trkpt>
      <trkpt lat="44.54761" lon="2.67151">
        <ele>338.2</ele>
        <time>2021-08-18T14:48:08Z</time>
      </trkpt>
      <trkpt lat="44.54757" lon="2.67146">
        <ele>338</ele>
        <time>2021-08-18T14:48:10Z</time>
      </trkpt>
      <trkpt lat="44.54754" lon="2.67143">
        <ele>338.1</ele>
        <time>2021-08-18T14:48:12Z</time>
      </trkpt>
      <trkpt lat="44.5475" lon="2.6714">
        <ele>338</ele>
        <time>2021-08-18T14:48:14Z</time>
      </trkpt>
      <trkpt lat="44.54746" lon="2.67135">
        <ele>339.2</ele>
        <time>2021-08-18T14:48:16Z</time>
      </trkpt>
      <trkpt lat="44.54743" lon="2.67131">
        <ele>340.2</ele>
        <time>2021-08-18T14:48:18Z</time>
      </trkpt>
      <trkpt lat="44.5474" lon="2.67128">
        <ele>341.2</ele>
        <time>2021-08-18T14:48:20Z</time>
      </trkpt>
      <trkpt lat="44.54738" lon="2.67125">
        <ele>341.9</ele>
        <time>2021-08-18T14:48:22Z</time>
      </trkpt>
      <trkpt lat="44.54736" lon="2.67121">
        <ele>342.3</ele>
        <time>2021-08-18T14:48:24Z</time>
      </trkpt>
      <trkpt lat="44.54733" lon="2.67118">
        <ele>343.1</ele>
        <time>2021-08-18T14:48:26Z</time>
      </trkpt>
      <trkpt lat="44.5473" lon="2.67115">
        <ele>344</ele>
        <time>2021-08-18T14:48:28Z</time>
      </trkpt>
      <trkpt lat="44.54728" lon="2.67112">
        <ele>344.9</ele>
        <time>2021-08-18T14:48:30Z</time>
      </trkpt>
      <trkpt lat="44.54724" lon="2.67108">
        <ele>345.9</ele>
        <time>2021-08-18T14:48:32Z</time>
      </trkpt>
      <trkpt lat="44.54722" lon="2.67104">
        <ele>346.3</ele>
        <time>2021-08-18T14:48:34Z</time>
      </trkpt>
      <trkpt lat="44.5472" lon="2.67101">
        <ele>347.2</ele>
        <time>2021-08-18T14:48:36Z</time>
      </trkpt>
      <trkpt lat="44.54717" lon="2.67098">
        <ele>347.8</ele>
        <time>2021-08-18T14:48:38Z</time>
      </trkpt>
      <trkpt lat="44.54715" lon="2.67094">
        <ele>348.4</ele>
        <time>2021-08-18T14:48:40Z</time>
      </trkpt>
      <trkpt lat="44.54713" lon="2.67089">
        <ele>348.7</ele>
        <time>2021-08-18T14:48:42Z</time>
      </trkpt>
      <trkpt lat="44.54711" lon="2.67085">
        <ele>348.9</ele>
        <time>2021-08-18T14:48:44Z</time>
      </trkpt>
      <trkpt lat="44.54709" lon="2.6708">
        <ele>349.6</ele>
        <time>2021-08-18T14:48:46Z</time>
      </trkpt>
      <trkpt lat="44.54706" lon="2.67076">
        <ele>350.8</ele>
        <time>2021-08-18T14:48:48Z</time>
      </trkpt>
      <trkpt lat="44.54704" lon="2.67071">
        <ele>351.5</ele>
        <time>2021-08-18T14:48:50Z</time>
      </trkpt>
      <trkpt lat="44.54701" lon="2.67067">
        <ele>352.9</ele>
        <time>2021-08-18T14:48:52Z</time>
      </trkpt>
      <trkpt lat="44.547" lon="2.67061">
        <ele>353.1</ele>
        <time>2021-08-18T14:48:54Z</time>
      </trkpt>
      <trkpt lat="44.54699" lon="2.67055">
        <ele>353</ele>
        <time>2021-08-18T14:48:56Z</time>
      </trkpt>
      <trkpt lat="44.547" lon="2.67049">
        <ele>352.2</ele>
        <time>2021-08-18T14:48:58Z</time>
      </trkpt>
      <trkpt lat="44.54701" lon="2.67043">
        <ele>351.4</ele>
        <time>2021-08-18T14:49:00Z</time>
      </trkpt>
      <trkpt lat="44.54702" lon="2.67038">
        <ele>350.6</ele>
        <time>2021-08-18T14:49:02Z</time>
      </trkpt>
      <trkpt lat="44.54704" lon="2.67032">
        <ele>349.6</ele>
        <time>2021-08-18T14:49:04Z</time>
      </trkpt>
      <trkpt lat="44.54704" lon="2.67027">
        <ele>349.5</ele>
        <time>2021-08-18T14:49:06Z</time>
      </trkpt>
      <trkpt lat="44.54706" lon="2.6702">
        <ele>348.2</ele>
        <time>2021-08-18T14:49:08Z</time>
      </trkpt>
      <trkpt lat="44.54708" lon="2.67012">
        <ele>346.7</ele>
        <time>2021-08-18T14:49:10Z</time>
      </trkpt>
      <trkpt lat="44.54709" lon="2.67003">
        <ele>345.9</ele>
        <time>2021-08-18T14:49:12Z</time>
      </trkpt>
      <trkpt lat="44.54708" lon="2.66992">
        <ele>346</ele>
        <time>2021-08-18T14:49:14Z</time>
      </trkpt>
      <trkpt lat="44.54707" lon="2.6698">
        <ele>346.5</ele>
        <time>2021-08-18T14:49:16Z</time>
      </trkpt>
      <trkpt lat="44.54707" lon="2.66966">
        <ele>346.6</ele>
        <time>2021-08-18T14:49:18Z</time>
      </trkpt>
      <trkpt lat="44.54706" lon="2.66951">
        <ele>346.6</ele>
        <time>2021-08-18T14:49:20Z</time>
      </trkpt>
      <trkpt lat="44.54707" lon="2.66934">
        <ele>346.3</ele>
        <time>2021-08-18T14:49:22Z</time>
      </trkpt>
      <trkpt lat="44.54707" lon="2.66917">
        <ele>346.2</ele>
        <time>2021-08-18T14:49:24Z</time>
      </trkpt>
      <trkpt lat="44.54705" lon="2.66897">
        <ele>345.2</ele>
        <time>2021-08-18T14:49:26Z</time>
      </trkpt>
      <trkpt lat="44.54703" lon="2.66877">
        <ele>344.2</ele>
        <time>2021-08-18T14:49:28Z</time>
      </trkpt>
      <trkpt lat="44.547" lon="2.66856">
        <ele>343.3</ele>
        <time>2021-08-18T14:49:30Z</time>
      </trkpt>
      <trkpt lat="44.54697" lon="2.66834">
        <ele>342.3</ele>
        <time>2021-08-18T14:49:32Z</time>
      </trkpt>
      <trkpt lat="44.54693" lon="2.66811">
        <ele>341.5</ele>
        <time>2021-08-18T14:49:34Z</time>
      </trkpt>
      <trkpt lat="44.54686" lon="2.66788">
        <ele>340.8</ele>
        <time>2021-08-18T14:49:36Z</time>
      </trkpt>
      <trkpt lat="44.54684" lon="2.66763">
        <ele>338.6</ele>
        <time>2021-08-18T14:49:38Z</time>
      </trkpt>
      <trkpt lat="44.54687" lon="2.66737">
        <ele>336.5</ele>
        <time>2021-08-18T14:49:40Z</time>
      </trkpt>
      <trkpt lat="44.54693" lon="2.66715">
        <ele>336</ele>
        <time>2021-08-18T14:49:42Z</time>
      </trkpt>
      <trkpt lat="44.54699" lon="2.66695">
        <ele>335</ele>
        <time>2021-08-18T14:49:44Z</time>
      </trkpt>
      <trkpt lat="44.54703" lon="2.66677">
        <ele>334.4</ele>
        <time>2021-08-18T14:49:46Z</time>
      </trkpt>
      <trkpt lat="44.54707" lon="2.66662">
        <ele>334.9</ele>
        <time>2021-08-18T14:49:48Z</time>
      </trkpt>
      <trkpt lat="44.54714" lon="2.66647">
        <ele>336.5</ele>
        <time>2021-08-18T14:49:50Z</time>
      </trkpt>
      <trkpt lat="44.54721" lon="2.66633">
        <ele>337.7</ele>
        <time>2021-08-18T14:49:52Z</time>
      </trkpt>
      <trkpt lat="44.54731" lon="2.66622">
        <ele>337.1</ele>
        <time>2021-08-18T14:49:54Z</time>
      </trkpt>
      <trkpt lat="44.54741" lon="2.66613">
        <ele>336.4</ele>
        <time>2021-08-18T14:49:56Z</time>
      </trkpt>
      <trkpt lat="44.5475" lon="2.66607">
        <ele>335</ele>
        <time>2021-08-18T14:49:58Z</time>
      </trkpt>
      <trkpt lat="44.54759" lon="2.66601">
        <ele>335.8</ele>
        <time>2021-08-18T14:50:00Z</time>
      </trkpt>
      <trkpt lat="44.54768" lon="2.66597">
        <ele>335.8</ele>
        <time>2021-08-18T14:50:02Z</time>
      </trkpt>
      <trkpt lat="44.5478" lon="2.66594">
        <ele>335.3</ele>
        <time>2021-08-18T14:50:04Z</time>
      </trkpt>
      <trkpt lat="44.54792" lon="2.66593">
        <ele>334.3</ele>
        <time>2021-08-18T14:50:06Z</time>
      </trkpt>
      <trkpt lat="44.54804" lon="2.66596">
        <ele>332.7</ele>
        <time>2021-08-18T14:50:08Z</time>
      </trkpt>
      <trkpt lat="44.54814" lon="2.66598">
        <ele>331.1</ele>
        <time>2021-08-18T14:50:10Z</time>
      </trkpt>
      <trkpt lat="44.54826" lon="2.66599">
        <ele>329.8</ele>
        <time>2021-08-18T14:50:12Z</time>
      </trkpt>
      <trkpt lat="44.54838" lon="2.66601">
        <ele>328.8</ele>
        <time>2021-08-18T14:50:14Z</time>
      </trkpt>
      <trkpt lat="44.54849" lon="2.66606">
        <ele>328.2</ele>
        <time>2021-08-18T14:50:16Z</time>
      </trkpt>
      <trkpt lat="44.54861" lon="2.6661">
        <ele>327.8</ele>
        <time>2021-08-18T14:50:18Z</time>
      </trkpt>
      <trkpt lat="44.54873" lon="2.66612">
        <ele>327.6</ele>
        <time>2021-08-18T14:50:20Z</time>
      </trkpt>
      <trkpt lat="44.54885" lon="2.66615">
        <ele>327.5</ele>
        <time>2021-08-18T14:50:22Z</time>
      </trkpt>
      <trkpt lat="44.54897" lon="2.66619">
        <ele>327.3</ele>
        <time>2021-08-18T14:50:24Z</time>
      </trkpt>
      <trkpt lat="44.5491" lon="2.6662">
        <ele>327.4</ele>
        <time>2021-08-18T14:50:26Z</time>
      </trkpt>
      <trkpt lat="44.54923" lon="2.66616">
        <ele>327.9</ele>
        <time>2021-08-18T14:50:28Z</time>
      </trkpt>
      <trkpt lat="44.54936" lon="2.66611">
        <ele>328</ele>
        <time>2021-08-18T14:50:30Z</time>
      </trkpt>
      <trkpt lat="44.54949" lon="2.66605">
        <ele>328</ele>
        <time>2021-08-18T14:50:32Z</time>
      </trkpt>
      <trkpt lat="44.54962" lon="2.66599">
        <ele>327.6</ele>
        <time>2021-08-18T14:50:34Z</time>
      </trkpt>
      <trkpt lat="44.54975" lon="2.66592">
        <ele>327</ele>
        <time>2021-08-18T14:50:36Z</time>
      </trkpt>
      <trkpt lat="44.54986" lon="2.66584">
        <ele>326.1</ele>
        <time>2021-08-18T14:50:38Z</time>
      </trkpt>
      <trkpt lat="44.54997" lon="2.66573">
        <ele>328.7</ele>
        <time>2021-08-18T14:50:40Z</time>
      </trkpt>
      <trkpt lat="44.55006" lon="2.66561">
        <ele>331</ele>
        <time>2021-08-18T14:50:42Z</time>
      </trkpt>
      <trkpt lat="44.55016" lon="2.66551">
        <ele>332.6</ele>
        <time>2021-08-18T14:50:44Z</time>
      </trkpt>
      <trkpt lat="44.55027" lon="2.66543">
        <ele>332.7</ele>
        <time>2021-08-18T14:50:46Z</time>
      </trkpt>
      <trkpt lat="44.55039" lon="2.66539">
        <ele>331.7</ele>
        <time>2021-08-18T14:50:48Z</time>
      </trkpt>
      <trkpt lat="44.5505" lon="2.66533">
        <ele>331.1</ele>
        <time>2021-08-18T14:50:50Z</time>
      </trkpt>
      <trkpt lat="44.55061" lon="2.66527">
        <ele>330</ele>
        <time>2021-08-18T14:50:52Z</time>
      </trkpt>
      <trkpt lat="44.55072" lon="2.66523">
        <ele>328.5</ele>
        <time>2021-08-18T14:50:54Z</time>
      </trkpt>
      <trkpt lat="44.55082" lon="2.66519">
        <ele>327.1</ele>
        <time>2021-08-18T14:50:56Z</time>
      </trkpt>
      <trkpt lat="44.55092" lon="2.66514">
        <ele>326.7</ele>
        <time>2021-08-18T14:50:58Z</time>
      </trkpt>
      <trkpt lat="44.55104" lon="2.66511">
        <ele>325.4</ele>
        <time>2021-08-18T14:51:00Z</time>
      </trkpt>
      <trkpt lat="44.55113" lon="2.66506">
        <ele>324.8</ele>
        <time>2021-08-18T14:51:02Z</time>
      </trkpt>
      <trkpt lat="44.55122" lon="2.66503">
        <ele>323.7</ele>
        <time>2021-08-18T14:51:04Z</time>
      </trkpt>
      <trkpt lat="44.55132" lon="2.66505">
        <ele>322.2</ele>
        <time>2021-08-18T14:51:06Z</time>
      </trkpt>
      <trkpt lat="44.55142" lon="2.66504">
        <ele>320.7</ele>
        <time>2021-08-18T14:51:08Z</time>
      </trkpt>
      <trkpt lat="44.55152" lon="2.66501">
        <ele>319.3</ele>
        <time>2021-08-18T14:51:10Z</time>
      </trkpt>
      <trkpt lat="44.55162" lon="2.66494">
        <ele>319.3</ele>
        <time>2021-08-18T14:51:12Z</time>
      </trkpt>
      <trkpt lat="44.55171" lon="2.66485">
        <ele>320.5</ele>
        <time>2021-08-18T14:51:14Z</time>
      </trkpt>
      <trkpt lat="44.5518" lon="2.66476">
        <ele>321.9</ele>
        <time>2021-08-18T14:51:16Z</time>
      </trkpt>
      <trkpt lat="44.5519" lon="2.66468">
        <ele>322.9</ele>
        <time>2021-08-18T14:51:18Z</time>
      </trkpt>
      <trkpt lat="44.552" lon="2.66456">
        <ele>324.1</ele>
        <time>2021-08-18T14:51:20Z</time>
      </trkpt>
      <trkpt lat="44.55208" lon="2.66446">
        <ele>324.8</ele>
        <time>2021-08-18T14:51:22Z</time>
      </trkpt>
      <trkpt lat="44.55216" lon="2.66438">
        <ele>324.9</ele>
        <time>2021-08-18T14:51:24Z</time>
      </trkpt>
      <trkpt lat="44.55226" lon="2.6643">
        <ele>324.3</ele>
        <time>2021-08-18T14:51:26Z</time>
      </trkpt>
      <trkpt lat="44.55231" lon="2.66426">
        <ele>323.9</ele>
        <time>2021-08-18T14:51:28Z</time>
      </trkpt>
      <trkpt lat="44.55242" lon="2.66418">
        <ele>322.6</ele>
        <time>2021-08-18T14:51:30Z</time>
      </trkpt>
      <trkpt lat="44.5525" lon="2.6641">
        <ele>323.2</ele>
        <time>2021-08-18T14:51:32Z</time>
      </trkpt>
      <trkpt lat="44.5526" lon="2.66401">
        <ele>324.7</ele>
        <time>2021-08-18T14:51:34Z</time>
      </trkpt>
      <trkpt lat="44.55268" lon="2.66393">
        <ele>326</ele>
        <time>2021-08-18T14:51:36Z</time>
      </trkpt>
      <trkpt lat="44.55278" lon="2.66387">
        <ele>325.8</ele>
        <time>2021-08-18T14:51:38Z</time>
      </trkpt>
      <trkpt lat="44.55286" lon="2.66378">
        <ele>326.8</ele>
        <time>2021-08-18T14:51:40Z</time>
      </trkpt>
      <trkpt lat="44.55295" lon="2.66374">
        <ele>326.2</ele>
        <time>2021-08-18T14:51:42Z</time>
      </trkpt>
      <trkpt lat="44.55303" lon="2.66365">
        <ele>326.4</ele>
        <time>2021-08-18T14:51:44Z</time>
      </trkpt>
      <trkpt lat="44.55313" lon="2.66359">
        <ele>325.5</ele>
        <time>2021-08-18T14:51:46Z</time>
      </trkpt>
      <trkpt lat="44.55321" lon="2.6635">
        <ele>325.4</ele>
        <time>2021-08-18T14:51:48Z</time>
      </trkpt>
      <trkpt lat="44.55328" lon="2.66343">
        <ele>324.8</ele>
        <time>2021-08-18T14:51:50Z</time>
      </trkpt>
      <trkpt lat="44.55336" lon="2.66334">
        <ele>324.5</ele>
        <time>2021-08-18T14:51:52Z</time>
      </trkpt>
      <trkpt lat="44.55345" lon="2.66328">
        <ele>324.7</ele>
        <time>2021-08-18T14:51:54Z</time>
      </trkpt>
      <trkpt lat="44.55352" lon="2.6632">
        <ele>325.6</ele>
        <time>2021-08-18T14:51:56Z</time>
      </trkpt>
      <trkpt lat="44.5536" lon="2.66309">
        <ele>326.8</ele>
        <time>2021-08-18T14:51:58Z</time>
      </trkpt>
      <trkpt lat="44.55367" lon="2.66304">
        <ele>326.5</ele>
        <time>2021-08-18T14:52:00Z</time>
      </trkpt>
      <trkpt lat="44.55374" lon="2.66297">
        <ele>326.8</ele>
        <time>2021-08-18T14:52:02Z</time>
      </trkpt>
      <trkpt lat="44.55382" lon="2.66291">
        <ele>326.7</ele>
        <time>2021-08-18T14:52:04Z</time>
      </trkpt>
      <trkpt lat="44.55389" lon="2.66285">
        <ele>326.4</ele>
        <time>2021-08-18T14:52:06Z</time>
      </trkpt>
      <trkpt lat="44.55396" lon="2.66279">
        <ele>325.9</ele>
        <time>2021-08-18T14:52:08Z</time>
      </trkpt>
      <trkpt lat="44.55403" lon="2.66272">
        <ele>325.7</ele>
        <time>2021-08-18T14:52:10Z</time>
      </trkpt>
      <trkpt lat="44.5541" lon="2.66266">
        <ele>325.2</ele>
        <time>2021-08-18T14:52:12Z</time>
      </trkpt>
      <trkpt lat="44.55417" lon="2.66262">
        <ele>324.3</ele>
        <time>2021-08-18T14:52:14Z</time>
      </trkpt>
      <trkpt lat="44.55424" lon="2.66258">
        <ele>324.8</ele>
        <time>2021-08-18T14:52:16Z</time>
      </trkpt>
      <trkpt lat="44.55432" lon="2.66254">
        <ele>325.4</ele>
        <time>2021-08-18T14:52:18Z</time>
      </trkpt>
      <trkpt lat="44.55439" lon="2.66253">
        <ele>325.6</ele>
        <time>2021-08-18T14:52:20Z</time>
      </trkpt>
      <trkpt lat="44.55447" lon="2.66252">
        <ele>325.7</ele>
        <time>2021-08-18T14:52:22Z</time>
      </trkpt>
      <trkpt lat="44.55453" lon="2.66251">
        <ele>325.9</ele>
        <time>2021-08-18T14:52:24Z</time>
      </trkpt>
      <trkpt lat="44.55459" lon="2.6625">
        <ele>326.1</ele>
        <time>2021-08-18T14:52:26Z</time>
      </trkpt>
      <trkpt lat="44.55464" lon="2.66248">
        <ele>326.5</ele>
        <time>2021-08-18T14:52:28Z</time>
      </trkpt>
      <trkpt lat="44.55468" lon="2.66246">
        <ele>327</ele>
        <time>2021-08-18T14:52:30Z</time>
      </trkpt>
      <trkpt lat="44.55474" lon="2.66244">
        <ele>327.6</ele>
        <time>2021-08-18T14:52:32Z</time>
      </trkpt>
      <trkpt lat="44.55479" lon="2.66242">
        <ele>328.2</ele>
        <time>2021-08-18T14:52:34Z</time>
      </trkpt>
      <trkpt lat="44.55482" lon="2.66238">
        <ele>329.3</ele>
        <time>2021-08-18T14:52:36Z</time>
      </trkpt>
      <trkpt lat="44.55487" lon="2.66236">
        <ele>330</ele>
        <time>2021-08-18T14:52:38Z</time>
      </trkpt>
      <trkpt lat="44.55492" lon="2.66232">
        <ele>331.1</ele>
        <time>2021-08-18T14:52:40Z</time>
      </trkpt>
      <trkpt lat="44.55496" lon="2.66229">
        <ele>332.1</ele>
        <time>2021-08-18T14:52:42Z</time>
      </trkpt>
      <trkpt lat="44.555" lon="2.66226">
        <ele>333</ele>
        <time>2021-08-18T14:52:44Z</time>
      </trkpt>
      <trkpt lat="44.55505" lon="2.66221">
        <ele>333.7</ele>
        <time>2021-08-18T14:52:46Z</time>
      </trkpt>
      <trkpt lat="44.55509" lon="2.66218">
        <ele>334.1</ele>
        <time>2021-08-18T14:52:48Z</time>
      </trkpt>
      <trkpt lat="44.55514" lon="2.66214">
        <ele>334.6</ele>
        <time>2021-08-18T14:52:50Z</time>
      </trkpt>
      <trkpt lat="44.55519" lon="2.66208">
        <ele>335.2</ele>
        <time>2021-08-18T14:52:52Z</time>
      </trkpt>
      <trkpt lat="44.55524" lon="2.66204">
        <ele>335.7</ele>
        <time>2021-08-18T14:52:54Z</time>
      </trkpt>
      <trkpt lat="44.55529" lon="2.662">
        <ele>335.9</ele>
        <time>2021-08-18T14:52:56Z</time>
      </trkpt>
      <trkpt lat="44.55534" lon="2.66194">
        <ele>336.4</ele>
        <time>2021-08-18T14:52:58Z</time>
      </trkpt>
      <trkpt lat="44.55539" lon="2.66191">
        <ele>336.3</ele>
        <time>2021-08-18T14:53:00Z</time>
      </trkpt>
      <trkpt lat="44.55546" lon="2.66185">
        <ele>336.5</ele>
        <time>2021-08-18T14:53:02Z</time>
      </trkpt>
      <trkpt lat="44.5555" lon="2.66182">
        <ele>336.5</ele>
        <time>2021-08-18T14:53:04Z</time>
      </trkpt>
      <trkpt lat="44.55558" lon="2.66178">
        <ele>335.9</ele>
        <time>2021-08-18T14:53:06Z</time>
      </trkpt>
      <trkpt lat="44.55564" lon="2.66173">
        <ele>335.7</ele>
        <time>2021-08-18T14:53:08Z</time>
      </trkpt>
      <trkpt lat="44.55574" lon="2.66168">
        <ele>334.6</ele>
        <time>2021-08-18T14:53:10Z</time>
      </trkpt>
      <trkpt lat="44.55584" lon="2.66163">
        <ele>334.4</ele>
        <time>2021-08-18T14:53:12Z</time>
      </trkpt>
      <trkpt lat="44.55597" lon="2.66157">
        <ele>334.5</ele>
        <time>2021-08-18T14:53:14Z</time>
      </trkpt>
      <trkpt lat="44.55612" lon="2.66153">
        <ele>334.2</ele>
        <time>2021-08-18T14:53:16Z</time>
      </trkpt>
      <trkpt lat="44.55628" lon="2.66149">
        <ele>333.3</ele>
        <time>2021-08-18T14:53:18Z</time>
      </trkpt>
      <trkpt lat="44.55646" lon="2.66147">
        <ele>331.6</ele>
        <time>2021-08-18T14:53:20Z</time>
      </trkpt>
      <trkpt lat="44.55662" lon="2.66141">
        <ele>331.2</ele>
        <time>2021-08-18T14:53:22Z</time>
      </trkpt>
      <trkpt lat="44.55678" lon="2.66134">
        <ele>331.8</ele>
        <time>2021-08-18T14:53:24Z</time>
      </trkpt>
      <trkpt lat="44.55695" lon="2.66129">
        <ele>331.4</ele>
        <time>2021-08-18T14:53:26Z</time>
      </trkpt>
      <trkpt lat="44.5571" lon="2.66124">
        <ele>331</ele>
        <time>2021-08-18T14:53:28Z</time>
      </trkpt>
      <trkpt lat="44.55726" lon="2.66119">
        <ele>330.2</ele>
        <time>2021-08-18T14:53:30Z</time>
      </trkpt>
      <trkpt lat="44.5574" lon="2.66111">
        <ele>330.2</ele>
        <time>2021-08-18T14:53:32Z</time>
      </trkpt>
      <trkpt lat="44.55755" lon="2.66106">
        <ele>329.2</ele>
        <time>2021-08-18T14:53:34Z</time>
      </trkpt>
      <trkpt lat="44.55769" lon="2.66101">
        <ele>328.6</ele>
        <time>2021-08-18T14:53:36Z</time>
      </trkpt>
      <trkpt lat="44.55782" lon="2.66097">
        <ele>327.7</ele>
        <time>2021-08-18T14:53:38Z</time>
      </trkpt>
      <trkpt lat="44.55799" lon="2.6609">
        <ele>326.7</ele>
        <time>2021-08-18T14:53:40Z</time>
      </trkpt>
      <trkpt lat="44.55809" lon="2.66088">
        <ele>325.7</ele>
        <time>2021-08-18T14:53:42Z</time>
      </trkpt>
      <trkpt lat="44.55822" lon="2.66082">
        <ele>324.9</ele>
        <time>2021-08-18T14:53:44Z</time>
      </trkpt>
      <trkpt lat="44.55835" lon="2.66074">
        <ele>325.6</ele>
        <time>2021-08-18T14:53:46Z</time>
      </trkpt>
      <trkpt lat="44.55846" lon="2.6607">
        <ele>326.1</ele>
        <time>2021-08-18T14:53:48Z</time>
      </trkpt>
      <trkpt lat="44.55858" lon="2.66066">
        <ele>326.4</ele>
        <time>2021-08-18T14:53:50Z</time>
      </trkpt>
      <trkpt lat="44.55873" lon="2.66061">
        <ele>326.3</ele>
        <time>2021-08-18T14:53:52Z</time>
      </trkpt>
      <trkpt lat="44.55885" lon="2.66056">
        <ele>326.3</ele>
        <time>2021-08-18T14:53:54Z</time>
      </trkpt>
      <trkpt lat="44.55896" lon="2.66049">
        <ele>326.4</ele>
        <time>2021-08-18T14:53:56Z</time>
      </trkpt>
      <trkpt lat="44.55908" lon="2.66045">
        <ele>325.6</ele>
        <time>2021-08-18T14:53:58Z</time>
      </trkpt>
      <trkpt lat="44.55919" lon="2.66042">
        <ele>324.8</ele>
        <time>2021-08-18T14:54:00Z</time>
      </trkpt>
      <trkpt lat="44.55928" lon="2.66039">
        <ele>324.9</ele>
        <time>2021-08-18T14:54:02Z</time>
      </trkpt>
      <trkpt lat="44.55937" lon="2.66035">
        <ele>324.9</ele>
        <time>2021-08-18T14:54:04Z</time>
      </trkpt>
      <trkpt lat="44.55944" lon="2.66035">
        <ele>324.5</ele>
        <time>2021-08-18T14:54:06Z</time>
      </trkpt>
      <trkpt lat="44.55952" lon="2.6603">
        <ele>324.4</ele>
        <time>2021-08-18T14:54:08Z</time>
      </trkpt>
      <trkpt lat="44.55959" lon="2.66025">
        <ele>324.3</ele>
        <time>2021-08-18T14:54:10Z</time>
      </trkpt>
      <trkpt lat="44.55966" lon="2.66021">
        <ele>324</ele>
        <time>2021-08-18T14:54:12Z</time>
      </trkpt>
      <trkpt lat="44.55971" lon="2.6602">
        <ele>323.6</ele>
        <time>2021-08-18T14:54:14Z</time>
      </trkpt>
      <trkpt lat="44.55977" lon="2.6602">
        <ele>323.2</ele>
        <time>2021-08-18T14:54:16Z</time>
      </trkpt>
      <trkpt lat="44.55983" lon="2.66015">
        <ele>322.8</ele>
        <time>2021-08-18T14:54:18Z</time>
      </trkpt>
      <trkpt lat="44.55989" lon="2.66013">
        <ele>322.2</ele>
        <time>2021-08-18T14:54:20Z</time>
      </trkpt>
      <trkpt lat="44.55996" lon="2.66009">
        <ele>321.6</ele>
        <time>2021-08-18T14:54:22Z</time>
      </trkpt>
      <trkpt lat="44.56002" lon="2.66005">
        <ele>321.1</ele>
        <time>2021-08-18T14:54:24Z</time>
      </trkpt>
      <trkpt lat="44.56006" lon="2.66004">
        <ele>320.9</ele>
        <time>2021-08-18T14:54:26Z</time>
      </trkpt>
      <trkpt lat="44.56013" lon="2.66">
        <ele>320.6</ele>
        <time>2021-08-18T14:54:28Z</time>
      </trkpt>
      <trkpt lat="44.56018" lon="2.65997">
        <ele>320.9</ele>
        <time>2021-08-18T14:54:30Z</time>
      </trkpt>
      <trkpt lat="44.56025" lon="2.65994">
        <ele>321.2</ele>
        <time>2021-08-18T14:54:32Z</time>
      </trkpt>
      <trkpt lat="44.5603" lon="2.6599">
        <ele>321.7</ele>
        <time>2021-08-18T14:54:34Z</time>
      </trkpt>
      <trkpt lat="44.56037" lon="2.65988">
        <ele>321.9</ele>
        <time>2021-08-18T14:54:36Z</time>
      </trkpt>
      <trkpt lat="44.56043" lon="2.65985">
        <ele>322.3</ele>
        <time>2021-08-18T14:54:38Z</time>
      </trkpt>
      <trkpt lat="44.56049" lon="2.65982">
        <ele>322.5</ele>
        <time>2021-08-18T14:54:40Z</time>
      </trkpt>
      <trkpt lat="44.56055" lon="2.65978">
        <ele>323</ele>
        <time>2021-08-18T14:54:42Z</time>
      </trkpt>
      <trkpt lat="44.5606" lon="2.65975">
        <ele>323.3</ele>
        <time>2021-08-18T14:54:44Z</time>
      </trkpt>
      <trkpt lat="44.56066" lon="2.65971">
        <ele>323.7</ele>
        <time>2021-08-18T14:54:46Z</time>
      </trkpt>
      <trkpt lat="44.56073" lon="2.65969">
        <ele>323.8</ele>
        <time>2021-08-18T14:54:48Z</time>
      </trkpt>
      <trkpt lat="44.56079" lon="2.65965">
        <ele>324.1</ele>
        <time>2021-08-18T14:54:50Z</time>
      </trkpt>
      <trkpt lat="44.56086" lon="2.65961">
        <ele>324.3</ele>
        <time>2021-08-18T14:54:52Z</time>
      </trkpt>
      <trkpt lat="44.56092" lon="2.65956">
        <ele>324.7</ele>
        <time>2021-08-18T14:54:54Z</time>
      </trkpt>
      <trkpt lat="44.56099" lon="2.65952">
        <ele>324.8</ele>
        <time>2021-08-18T14:54:56Z</time>
      </trkpt>
      <trkpt lat="44.56105" lon="2.65947">
        <ele>325</ele>
        <time>2021-08-18T14:54:58Z</time>
      </trkpt>
      <trkpt lat="44.56111" lon="2.65944">
        <ele>324.9</ele>
        <time>2021-08-18T14:55:00Z</time>
      </trkpt>
      <trkpt lat="44.56118" lon="2.6594">
        <ele>324.8</ele>
        <time>2021-08-18T14:55:02Z</time>
      </trkpt>
      <trkpt lat="44.56125" lon="2.65936">
        <ele>324.7</ele>
        <time>2021-08-18T14:55:04Z</time>
      </trkpt>
      <trkpt lat="44.56133" lon="2.65932">
        <ele>324.3</ele>
        <time>2021-08-18T14:55:06Z</time>
      </trkpt>
      <trkpt lat="44.56141" lon="2.65929">
        <ele>323.9</ele>
        <time>2021-08-18T14:55:08Z</time>
      </trkpt>
      <trkpt lat="44.56149" lon="2.65925">
        <ele>323.3</ele>
        <time>2021-08-18T14:55:10Z</time>
      </trkpt>
      <trkpt lat="44.56158" lon="2.65923">
        <ele>322.5</ele>
        <time>2021-08-18T14:55:12Z</time>
      </trkpt>
      <trkpt lat="44.56167" lon="2.6592">
        <ele>321.7</ele>
        <time>2021-08-18T14:55:14Z</time>
      </trkpt>
      <trkpt lat="44.56177" lon="2.65918">
        <ele>321.8</ele>
        <time>2021-08-18T14:55:16Z</time>
      </trkpt>
      <trkpt lat="44.56186" lon="2.65917">
        <ele>321.7</ele>
        <time>2021-08-18T14:55:18Z</time>
      </trkpt>
      <trkpt lat="44.56196" lon="2.65916">
        <ele>321.7</ele>
        <time>2021-08-18T14:55:20Z</time>
      </trkpt>
      <trkpt lat="44.56206" lon="2.65915">
        <ele>321.8</ele>
        <time>2021-08-18T14:55:22Z</time>
      </trkpt>
      <trkpt lat="44.56216" lon="2.65915">
        <ele>321.7</ele>
        <time>2021-08-18T14:55:24Z</time>
      </trkpt>
      <trkpt lat="44.56226" lon="2.65914">
        <ele>321.6</ele>
        <time>2021-08-18T14:55:26Z</time>
      </trkpt>
      <trkpt lat="44.56236" lon="2.65914">
        <ele>321.6</ele>
        <time>2021-08-18T14:55:28Z</time>
      </trkpt>
      <trkpt lat="44.56245" lon="2.65913">
        <ele>321.6</ele>
        <time>2021-08-18T14:55:30Z</time>
      </trkpt>
      <trkpt lat="44.56255" lon="2.65911">
        <ele>321.7</ele>
        <time>2021-08-18T14:55:32Z</time>
      </trkpt>
      <trkpt lat="44.56264" lon="2.6591">
        <ele>321.8</ele>
        <time>2021-08-18T14:55:34Z</time>
      </trkpt>
      <trkpt lat="44.56273" lon="2.6591">
        <ele>321.7</ele>
        <time>2021-08-18T14:55:36Z</time>
      </trkpt>
      <trkpt lat="44.56282" lon="2.65908">
        <ele>321.8</ele>
        <time>2021-08-18T14:55:38Z</time>
      </trkpt>
      <trkpt lat="44.56291" lon="2.65906">
        <ele>322</ele>
        <time>2021-08-18T14:55:40Z</time>
      </trkpt>
      <trkpt lat="44.56299" lon="2.65904">
        <ele>322.1</ele>
        <time>2021-08-18T14:55:42Z</time>
      </trkpt>
      <trkpt lat="44.56308" lon="2.65902">
        <ele>322.2</ele>
        <time>2021-08-18T14:55:44Z</time>
      </trkpt>
      <trkpt lat="44.56315" lon="2.65901">
        <ele>322.3</ele>
        <time>2021-08-18T14:55:46Z</time>
      </trkpt>
      <trkpt lat="44.56323" lon="2.65899">
        <ele>322.4</ele>
        <time>2021-08-18T14:55:48Z</time>
      </trkpt>
      <trkpt lat="44.56329" lon="2.65897">
        <ele>322.4</ele>
        <time>2021-08-18T14:55:50Z</time>
      </trkpt>
      <trkpt lat="44.56336" lon="2.65896">
        <ele>322.7</ele>
        <time>2021-08-18T14:55:52Z</time>
      </trkpt>
      <trkpt lat="44.56342" lon="2.65894">
        <ele>323.1</ele>
        <time>2021-08-18T14:55:54Z</time>
      </trkpt>
      <trkpt lat="44.56346" lon="2.65894">
        <ele>323.5</ele>
        <time>2021-08-18T14:55:56Z</time>
      </trkpt>
      <trkpt lat="44.56351" lon="2.65892">
        <ele>323.8</ele>
        <time>2021-08-18T14:55:58Z</time>
      </trkpt>
      <trkpt lat="44.56356" lon="2.65892">
        <ele>324.1</ele>
        <time>2021-08-18T14:56:00Z</time>
      </trkpt>
      <trkpt lat="44.5636" lon="2.65891">
        <ele>324.4</ele>
        <time>2021-08-18T14:56:02Z</time>
      </trkpt>
      <trkpt lat="44.56364" lon="2.65889">
        <ele>324.7</ele>
        <time>2021-08-18T14:56:04Z</time>
      </trkpt>
      <trkpt lat="44.56369" lon="2.65888">
        <ele>325</ele>
        <time>2021-08-18T14:56:06Z</time>
      </trkpt>
      <trkpt lat="44.56373" lon="2.65888">
        <ele>325.3</ele>
        <time>2021-08-18T14:56:08Z</time>
      </trkpt>
      <trkpt lat="44.56378" lon="2.65887">
        <ele>325.5</ele>
        <time>2021-08-18T14:56:10Z</time>
      </trkpt>
      <trkpt lat="44.56382" lon="2.65886">
        <ele>325.8</ele>
        <time>2021-08-18T14:56:12Z</time>
      </trkpt>
      <trkpt lat="44.56385" lon="2.65886">
        <ele>326</ele>
        <time>2021-08-18T14:56:14Z</time>
      </trkpt>
      <trkpt lat="44.56389" lon="2.65886">
        <ele>326.2</ele>
        <time>2021-08-18T14:56:16Z</time>
      </trkpt>
      <trkpt lat="44.56393" lon="2.65886">
        <ele>326.4</ele>
        <time>2021-08-18T14:56:18Z</time>
      </trkpt>
      <trkpt lat="44.56397" lon="2.65885">
        <ele>326.6</ele>
        <time>2021-08-18T14:56:20Z</time>
      </trkpt>
      <trkpt lat="44.564" lon="2.65884">
        <ele>326.8</ele>
        <time>2021-08-18T14:56:22Z</time>
      </trkpt>
      <trkpt lat="44.56404" lon="2.65884">
        <ele>327</ele>
        <time>2021-08-18T14:56:24Z</time>
      </trkpt>
      <trkpt lat="44.56408" lon="2.65884">
        <ele>327.1</ele>
        <time>2021-08-18T14:56:26Z</time>
      </trkpt>
      <trkpt lat="44.5641" lon="2.65882">
        <ele>327.3</ele>
        <time>2021-08-18T14:56:28Z</time>
      </trkpt>
      <trkpt lat="44.56413" lon="2.6588">
        <ele>327.4</ele>
        <time>2021-08-18T14:56:30Z</time>
      </trkpt>
      <trkpt lat="44.56416" lon="2.65877">
        <ele>327.5</ele>
        <time>2021-08-18T14:56:32Z</time>
      </trkpt>
      <trkpt lat="44.56417" lon="2.65872">
        <ele>327.5</ele>
        <time>2021-08-18T14:56:34Z</time>
      </trkpt>
      <trkpt lat="44.56416" lon="2.65867">
        <ele>327.4</ele>
        <time>2021-08-18T14:56:36Z</time>
      </trkpt>
      <trkpt lat="44.56415" lon="2.6586">
        <ele>327.3</ele>
        <time>2021-08-18T14:56:38Z</time>
      </trkpt>
      <trkpt lat="44.56414" lon="2.65855">
        <ele>327.2</ele>
        <time>2021-08-18T14:56:40Z</time>
      </trkpt>
      <trkpt lat="44.5641" lon="2.6585">
        <ele>327.1</ele>
        <time>2021-08-18T14:56:42Z</time>
      </trkpt>
      <trkpt lat="44.56407" lon="2.65845">
        <ele>327</ele>
        <time>2021-08-18T14:56:44Z</time>
      </trkpt>
      <trkpt lat="44.56404" lon="2.65841">
        <ele>327</ele>
        <time>2021-08-18T14:56:46Z</time>
      </trkpt>
      <trkpt lat="44.564" lon="2.65836">
        <ele>327</ele>
        <time>2021-08-18T14:56:48Z</time>
      </trkpt>
      <trkpt lat="44.56397" lon="2.65831">
        <ele>327</ele>
        <time>2021-08-18T14:56:50Z</time>
      </trkpt>
      <trkpt lat="44.56395" lon="2.65825">
        <ele>327.1</ele>
        <time>2021-08-18T14:56:52Z</time>
      </trkpt>
      <trkpt lat="44.56393" lon="2.65819">
        <ele>327.3</ele>
        <time>2021-08-18T14:56:54Z</time>
      </trkpt>
      <trkpt lat="44.5639" lon="2.65813">
        <ele>327.5</ele>
        <time>2021-08-18T14:56:56Z</time>
      </trkpt>
      <trkpt lat="44.56389" lon="2.65807">
        <ele>327.8</ele>
        <time>2021-08-18T14:56:58Z</time>
      </trkpt>
      <trkpt lat="44.56388" lon="2.658">
        <ele>328.1</ele>
        <time>2021-08-18T14:57:00Z</time>
      </trkpt>
      <trkpt lat="44.56387" lon="2.65794">
        <ele>328.5</ele>
        <time>2021-08-18T14:57:02Z</time>
      </trkpt>
      <trkpt lat="44.56387" lon="2.65788">
        <ele>328.7</ele>
        <time>2021-08-18T14:57:04Z</time>
      </trkpt>
      <trkpt lat="44.56386" lon="2.65781">
        <ele>329.2</ele>
        <time>2021-08-18T14:57:06Z</time>
      </trkpt>
      <trkpt lat="44.56385" lon="2.65773">
        <ele>329.8</ele>
        <time>2021-08-18T14:57:08Z</time>
      </trkpt>
      <trkpt lat="44.56383" lon="2.65767">
        <ele>330.4</ele>
        <time>2021-08-18T14:57:10Z</time>
      </trkpt>
      <trkpt lat="44.56381" lon="2.6576">
        <ele>331.2</ele>
        <time>2021-08-18T14:57:12Z</time>
      </trkpt>
      <trkpt lat="44.5638" lon="2.65754">
        <ele>331.8</ele>
        <time>2021-08-18T14:57:14Z</time>
      </trkpt>
      <trkpt lat="44.56378" lon="2.65748">
        <ele>332.9</ele>
        <time>2021-08-18T14:57:16Z</time>
      </trkpt>
      <trkpt lat="44.56377" lon="2.65741">
        <ele>333.4</ele>
        <time>2021-08-18T14:57:18Z</time>
      </trkpt>
      <trkpt lat="44.56377" lon="2.65734">
        <ele>334</ele>
        <time>2021-08-18T14:57:20Z</time>
      </trkpt>
      <trkpt lat="44.56376" lon="2.65728">
        <ele>334.7</ele>
        <time>2021-08-18T14:57:22Z</time>
      </trkpt>
      <trkpt lat="44.56376" lon="2.65721">
        <ele>335</ele>
        <time>2021-08-18T14:57:24Z</time>
      </trkpt>
      <trkpt lat="44.56374" lon="2.65717">
        <ele>336</ele>
        <time>2021-08-18T14:57:26Z</time>
      </trkpt>
      <trkpt lat="44.56372" lon="2.65709">
        <ele>337.2</ele>
        <time>2021-08-18T14:57:28Z</time>
      </trkpt>
      <trkpt lat="44.56371" lon="2.65702">
        <ele>338.4</ele>
        <time>2021-08-18T14:57:30Z</time>
      </trkpt>
      <trkpt lat="44.56369" lon="2.65694">
        <ele>339.6</ele>
        <time>2021-08-18T14:57:32Z</time>
      </trkpt>
      <trkpt lat="44.56368" lon="2.65686">
        <ele>341.1</ele>
        <time>2021-08-18T14:57:34Z</time>
      </trkpt>
      <trkpt lat="44.56366" lon="2.65678">
        <ele>342.3</ele>
        <time>2021-08-18T14:57:36Z</time>
      </trkpt>
      <trkpt lat="44.56366" lon="2.6567">
        <ele>343.3</ele>
        <time>2021-08-18T14:57:38Z</time>
      </trkpt>
      <trkpt lat="44.56365" lon="2.65663">
        <ele>344.1</ele>
        <time>2021-08-18T14:57:40Z</time>
      </trkpt>
      <trkpt lat="44.56365" lon="2.65656">
        <ele>344.8</ele>
        <time>2021-08-18T14:57:42Z</time>
      </trkpt>
      <trkpt lat="44.56365" lon="2.65647">
        <ele>345.5</ele>
        <time>2021-08-18T14:57:44Z</time>
      </trkpt>
      <trkpt lat="44.56365" lon="2.65641">
        <ele>346.2</ele>
        <time>2021-08-18T14:57:46Z</time>
      </trkpt>
      <trkpt lat="44.56366" lon="2.65633">
        <ele>346.5</ele>
        <time>2021-08-18T14:57:48Z</time>
      </trkpt>
      <trkpt lat="44.56367" lon="2.65624">
        <ele>346.6</ele>
        <time>2021-08-18T14:57:50Z</time>
      </trkpt>
      <trkpt lat="44.56367" lon="2.65617">
        <ele>347.3</ele>
        <time>2021-08-18T14:57:52Z</time>
      </trkpt>
      <trkpt lat="44.56368" lon="2.65609">
        <ele>347.6</ele>
        <time>2021-08-18T14:57:54Z</time>
      </trkpt>
      <trkpt lat="44.56367" lon="2.65602">
        <ele>348.4</ele>
        <time>2021-08-18T14:57:56Z</time>
      </trkpt>
      <trkpt lat="44.56367" lon="2.65594">
        <ele>349.4</ele>
        <time>2021-08-18T14:57:58Z</time>
      </trkpt>
      <trkpt lat="44.56365" lon="2.65585">
        <ele>350.9</ele>
        <time>2021-08-18T14:58:00Z</time>
      </trkpt>
      <trkpt lat="44.56363" lon="2.65576">
        <ele>352.6</ele>
        <time>2021-08-18T14:58:02Z</time>
      </trkpt>
      <trkpt lat="44.56362" lon="2.65567">
        <ele>353.7</ele>
        <time>2021-08-18T14:58:04Z</time>
      </trkpt>
      <trkpt lat="44.56361" lon="2.65558">
        <ele>354.9</ele>
        <time>2021-08-18T14:58:06Z</time>
      </trkpt>
      <trkpt lat="44.56361" lon="2.65549">
        <ele>355.4</ele>
        <time>2021-08-18T14:58:08Z</time>
      </trkpt>
      <trkpt lat="44.56361" lon="2.65539">
        <ele>355.8</ele>
        <time>2021-08-18T14:58:10Z</time>
      </trkpt>
      <trkpt lat="44.56361" lon="2.6553">
        <ele>355.9</ele>
        <time>2021-08-18T14:58:12Z</time>
      </trkpt>
      <trkpt lat="44.56367" lon="2.6552">
        <ele>354.1</ele>
        <time>2021-08-18T14:58:14Z</time>
      </trkpt>
      <trkpt lat="44.5637" lon="2.6551">
        <ele>353.1</ele>
        <time>2021-08-18T14:58:16Z</time>
      </trkpt>
      <trkpt lat="44.56377" lon="2.65503">
        <ele>350.6</ele>
        <time>2021-08-18T14:58:18Z</time>
      </trkpt>
      <trkpt lat="44.56383" lon="2.65496">
        <ele>347.8</ele>
        <time>2021-08-18T14:58:20Z</time>
      </trkpt>
      <trkpt lat="44.56391" lon="2.6549">
        <ele>344.4</ele>
        <time>2021-08-18T14:58:22Z</time>
      </trkpt>
      <trkpt lat="44.56397" lon="2.65481">
        <ele>341.8</ele>
        <time>2021-08-18T14:58:24Z</time>
      </trkpt>
      <trkpt lat="44.56404" lon="2.65472">
        <ele>339.1</ele>
        <time>2021-08-18T14:58:26Z</time>
      </trkpt>
      <trkpt lat="44.56409" lon="2.65462">
        <ele>337.2</ele>
        <time>2021-08-18T14:58:28Z</time>
      </trkpt>
      <trkpt lat="44.56413" lon="2.65451">
        <ele>336.1</ele>
        <time>2021-08-18T14:58:30Z</time>
      </trkpt>
      <trkpt lat="44.56414" lon="2.65439">
        <ele>336.2</ele>
        <time>2021-08-18T14:58:32Z</time>
      </trkpt>
      <trkpt lat="44.56415" lon="2.65427">
        <ele>336.2</ele>
        <time>2021-08-18T14:58:34Z</time>
      </trkpt>
      <trkpt lat="44.56415" lon="2.65415">
        <ele>336.3</ele>
        <time>2021-08-18T14:58:36Z</time>
      </trkpt>
      <trkpt lat="44.56419" lon="2.65404">
        <ele>334</ele>
        <time>2021-08-18T14:58:38Z</time>
      </trkpt>
      <trkpt lat="44.56425" lon="2.65394">
        <ele>331.6</ele>
        <time>2021-08-18T14:58:40Z</time>
      </trkpt>
      <trkpt lat="44.5643" lon="2.65383">
        <ele>329.5</ele>
        <time>2021-08-18T14:58:42Z</time>
      </trkpt>
      <trkpt lat="44.56429" lon="2.65372">
        <ele>328.6</ele>
        <time>2021-08-18T14:58:44Z</time>
      </trkpt>
      <trkpt lat="44.56423" lon="2.65363">
        <ele>328.6</ele>
        <time>2021-08-18T14:58:46Z</time>
      </trkpt>
      <trkpt lat="44.56414" lon="2.65357">
        <ele>329.5</ele>
        <time>2021-08-18T14:58:48Z</time>
      </trkpt>
      <trkpt lat="44.56409" lon="2.65351">
        <ele>330.2</ele>
        <time>2021-08-18T14:58:50Z</time>
      </trkpt>
      <trkpt lat="44.56402" lon="2.65345">
        <ele>331.3</ele>
        <time>2021-08-18T14:58:52Z</time>
      </trkpt>
      <trkpt lat="44.56396" lon="2.6534">
        <ele>331.9</ele>
        <time>2021-08-18T14:58:54Z</time>
      </trkpt>
      <trkpt lat="44.5639" lon="2.65338">
        <ele>333.1</ele>
        <time>2021-08-18T14:58:56Z</time>
      </trkpt>
      <trkpt lat="44.56384" lon="2.65331">
        <ele>333.8</ele>
        <time>2021-08-18T14:58:58Z</time>
      </trkpt>
      <trkpt lat="44.56377" lon="2.65326">
        <ele>335.1</ele>
        <time>2021-08-18T14:59:00Z</time>
      </trkpt>
      <trkpt lat="44.56372" lon="2.65323">
        <ele>336.5</ele>
        <time>2021-08-18T14:59:02Z</time>
      </trkpt>
      <trkpt lat="44.56365" lon="2.65319">
        <ele>337.8</ele>
        <time>2021-08-18T14:59:04Z</time>
      </trkpt>
      <trkpt lat="44.56358" lon="2.65316">
        <ele>339.5</ele>
        <time>2021-08-18T14:59:06Z</time>
      </trkpt>
      <trkpt lat="44.5635" lon="2.65307">
        <ele>341</ele>
        <time>2021-08-18T14:59:08Z</time>
      </trkpt>
      <trkpt lat="44.56349" lon="2.65288">
        <ele>340.5</ele>
        <time>2021-08-18T14:59:10Z</time>
      </trkpt>
      <trkpt lat="44.56353" lon="2.65272">
        <ele>339.1</ele>
        <time>2021-08-18T14:59:12Z</time>
      </trkpt>
      <trkpt lat="44.56354" lon="2.65256">
        <ele>338.2</ele>
        <time>2021-08-18T14:59:14Z</time>
      </trkpt>
      <trkpt lat="44.56355" lon="2.6524">
        <ele>337.9</ele>
        <time>2021-08-18T14:59:16Z</time>
      </trkpt>
      <trkpt lat="44.56355" lon="2.65223">
        <ele>338.1</ele>
        <time>2021-08-18T14:59:18Z</time>
      </trkpt>
      <trkpt lat="44.56354" lon="2.65208">
        <ele>338.6</ele>
        <time>2021-08-18T14:59:20Z</time>
      </trkpt>
      <trkpt lat="44.56352" lon="2.65191">
        <ele>339</ele>
        <time>2021-08-18T14:59:22Z</time>
      </trkpt>
      <trkpt lat="44.56352" lon="2.65172">
        <ele>339.1</ele>
        <time>2021-08-18T14:59:24Z</time>
      </trkpt>
      <trkpt lat="44.56352" lon="2.65153">
        <ele>339.5</ele>
        <time>2021-08-18T14:59:26Z</time>
      </trkpt>
      <trkpt lat="44.56356" lon="2.65132">
        <ele>339.8</ele>
        <time>2021-08-18T14:59:28Z</time>
      </trkpt>
      <trkpt lat="44.56359" lon="2.65112">
        <ele>340.4</ele>
        <time>2021-08-18T14:59:30Z</time>
      </trkpt>
      <trkpt lat="44.56364" lon="2.65092">
        <ele>341</ele>
        <time>2021-08-18T14:59:32Z</time>
      </trkpt>
      <trkpt lat="44.56368" lon="2.65073">
        <ele>341.6</ele>
        <time>2021-08-18T14:59:34Z</time>
      </trkpt>
      <trkpt lat="44.5637" lon="2.65054">
        <ele>342</ele>
        <time>2021-08-18T14:59:36Z</time>
      </trkpt>
      <trkpt lat="44.56368" lon="2.65036">
        <ele>342.1</ele>
        <time>2021-08-18T14:59:38Z</time>
      </trkpt>
      <trkpt lat="44.56366" lon="2.6502">
        <ele>342.3</ele>
        <time>2021-08-18T14:59:40Z</time>
      </trkpt>
      <trkpt lat="44.5636" lon="2.65007">
        <ele>341.8</ele>
        <time>2021-08-18T14:59:42Z</time>
      </trkpt>
      <trkpt lat="44.56354" lon="2.64995">
        <ele>341.5</ele>
        <time>2021-08-18T14:59:44Z</time>
      </trkpt>
      <trkpt lat="44.56349" lon="2.64985">
        <ele>341.5</ele>
        <time>2021-08-18T14:59:46Z</time>
      </trkpt>
      <trkpt lat="44.56341" lon="2.64978">
        <ele>340.4</ele>
        <time>2021-08-18T14:59:48Z</time>
      </trkpt>
      <trkpt lat="44.56337" lon="2.64969">
        <ele>339.8</ele>
        <time>2021-08-18T14:59:50Z</time>
      </trkpt>
      <trkpt lat="44.56341" lon="2.64957">
        <ele>340.8</ele>
        <time>2021-08-18T14:59:52Z</time>
      </trkpt>
      <trkpt lat="44.56349" lon="2.64951">
        <ele>343</ele>
        <time>2021-08-18T14:59:54Z</time>
      </trkpt>
      <trkpt lat="44.56356" lon="2.64954">
        <ele>344.6</ele>
        <time>2021-08-18T14:59:56Z</time>
      </trkpt>
      <trkpt lat="44.5636" lon="2.6496">
        <ele>345.1</ele>
        <time>2021-08-18T14:59:58Z</time>
      </trkpt>
      <trkpt lat="44.56362" lon="2.64964">
        <ele>345.3</ele>
        <time>2021-08-18T15:00:00Z</time>
      </trkpt>
      <trkpt lat="44.56365" lon="2.64966">
        <ele>345.7</ele>
        <time>2021-08-18T15:00:02Z</time>
      </trkpt>
      <trkpt lat="44.56367" lon="2.64968">
        <ele>346</ele>
        <time>2021-08-18T15:00:04Z</time>
      </trkpt>
      <trkpt lat="44.56369" lon="2.64971">
        <ele>346</ele>
        <time>2021-08-18T15:00:06Z</time>
      </trkpt>
      <trkpt lat="44.5637" lon="2.64975">
        <ele>345.8</ele>
        <time>2021-08-18T15:00:08Z</time>
      </trkpt>
      <trkpt lat="44.56372" lon="2.64976">
        <ele>345.9</ele>
        <time>2021-08-18T15:00:10Z</time>
      </trkpt>
      <trkpt lat="44.56374" lon="2.6498">
        <ele>345.9</ele>
        <time>2021-08-18T15:00:12Z</time>
      </trkpt>
      <trkpt lat="44.56376" lon="2.64983">
        <ele>345.8</ele>
        <time>2021-08-18T15:00:14Z</time>
      </trkpt>
      <trkpt lat="44.56377" lon="2.64987">
        <ele>345.5</ele>
        <time>2021-08-18T15:00:16Z</time>
      </trkpt>
      <trkpt lat="44.56379" lon="2.6499">
        <ele>345.3</ele>
        <time>2021-08-18T15:00:18Z</time>
      </trkpt>
      <trkpt lat="44.5638" lon="2.64995">
        <ele>344.8</ele>
        <time>2021-08-18T15:00:20Z</time>
      </trkpt>
      <trkpt lat="44.56381" lon="2.64999">
        <ele>344.2</ele>
        <time>2021-08-18T15:00:22Z</time>
      </trkpt>
      <trkpt lat="44.56383" lon="2.65003">
        <ele>344.3</ele>
        <time>2021-08-18T15:00:24Z</time>
      </trkpt>
      <trkpt lat="44.56385" lon="2.65008">
        <ele>344.3</ele>
        <time>2021-08-18T15:00:26Z</time>
      </trkpt>
      <trkpt lat="44.56385" lon="2.65013">
        <ele>344.2</ele>
        <time>2021-08-18T15:00:28Z</time>
      </trkpt>
      <trkpt lat="44.56387" lon="2.65017">
        <ele>344.1</ele>
        <time>2021-08-18T15:00:30Z</time>
      </trkpt>
      <trkpt lat="44.56388" lon="2.65021">
        <ele>344.1</ele>
        <time>2021-08-18T15:00:32Z</time>
      </trkpt>
      <trkpt lat="44.5639" lon="2.65025">
        <ele>344.1</ele>
        <time>2021-08-18T15:00:34Z</time>
      </trkpt>
      <trkpt lat="44.5639" lon="2.65029">
        <ele>343.9</ele>
        <time>2021-08-18T15:00:36Z</time>
      </trkpt>
      <trkpt lat="44.56391" lon="2.65035">
        <ele>343.8</ele>
        <time>2021-08-18T15:00:38Z</time>
      </trkpt>
      <trkpt lat="44.56393" lon="2.6504">
        <ele>343.6</ele>
        <time>2021-08-18T15:00:40Z</time>
      </trkpt>
      <trkpt lat="44.56394" lon="2.65045">
        <ele>343.5</ele>
        <time>2021-08-18T15:00:42Z</time>
      </trkpt>
      <trkpt lat="44.56395" lon="2.65049">
        <ele>343.4</ele>
        <time>2021-08-18T15:00:44Z</time>
      </trkpt>
      <trkpt lat="44.56396" lon="2.65054">
        <ele>343.2</ele>
        <time>2021-08-18T15:00:46Z</time>
      </trkpt>
      <trkpt lat="44.56397" lon="2.65059">
        <ele>343</ele>
        <time>2021-08-18T15:00:48Z</time>
      </trkpt>
      <trkpt lat="44.56399" lon="2.65063">
        <ele>342.8</ele>
        <time>2021-08-18T15:00:50Z</time>
      </trkpt>
      <trkpt lat="44.564" lon="2.65067">
        <ele>342.6</ele>
        <time>2021-08-18T15:00:52Z</time>
      </trkpt>
      <trkpt lat="44.56401" lon="2.65072">
        <ele>342.4</ele>
        <time>2021-08-18T15:00:54Z</time>
      </trkpt>
      <trkpt lat="44.56402" lon="2.65078">
        <ele>342.1</ele>
        <time>2021-08-18T15:00:56Z</time>
      </trkpt>
      <trkpt lat="44.56404" lon="2.65084">
        <ele>341.8</ele>
        <time>2021-08-18T15:00:58Z</time>
      </trkpt>
      <trkpt lat="44.56404" lon="2.65089">
        <ele>341.3</ele>
        <time>2021-08-18T15:01:00Z</time>
      </trkpt>
      <trkpt lat="44.56404" lon="2.65095">
        <ele>340.8</ele>
        <time>2021-08-18T15:01:02Z</time>
      </trkpt>
      <trkpt lat="44.56404" lon="2.65099">
        <ele>340.4</ele>
        <time>2021-08-18T15:01:04Z</time>
      </trkpt>
      <trkpt lat="44.56405" lon="2.65105">
        <ele>339.8</ele>
        <time>2021-08-18T15:01:06Z</time>
      </trkpt>
      <trkpt lat="44.56406" lon="2.6511">
        <ele>339.3</ele>
        <time>2021-08-18T15:01:08Z</time>
      </trkpt>
      <trkpt lat="44.56406" lon="2.65116">
        <ele>338.8</ele>
        <time>2021-08-18T15:01:10Z</time>
      </trkpt>
      <trkpt lat="44.56406" lon="2.65122">
        <ele>338.2</ele>
        <time>2021-08-18T15:01:12Z</time>
      </trkpt>
      <trkpt lat="44.56407" lon="2.65126">
        <ele>337.8</ele>
        <time>2021-08-18T15:01:14Z</time>
      </trkpt>
      <trkpt lat="44.56409" lon="2.65132">
        <ele>337.1</ele>
        <time>2021-08-18T15:01:16Z</time>
      </trkpt>
      <trkpt lat="44.5641" lon="2.65138">
        <ele>336.5</ele>
        <time>2021-08-18T15:01:18Z</time>
      </trkpt>
      <trkpt lat="44.56412" lon="2.65145">
        <ele>335.7</ele>
        <time>2021-08-18T15:01:20Z</time>
      </trkpt>
      <trkpt lat="44.56414" lon="2.65151">
        <ele>334.9</ele>
        <time>2021-08-18T15:01:22Z</time>
      </trkpt>
      <trkpt lat="44.56416" lon="2.65156">
        <ele>334.2</ele>
        <time>2021-08-18T15:01:24Z</time>
      </trkpt>
      <trkpt lat="44.56418" lon="2.65162">
        <ele>334.1</ele>
        <time>2021-08-18T15:01:26Z</time>
      </trkpt>
      <trkpt lat="44.5642" lon="2.65168">
        <ele>333.8</ele>
        <time>2021-08-18T15:01:28Z</time>
      </trkpt>
      <trkpt lat="44.56422" lon="2.65173">
        <ele>333.8</ele>
        <time>2021-08-18T15:01:30Z</time>
      </trkpt>
      <trkpt lat="44.56424" lon="2.65179">
        <ele>333.6</ele>
        <time>2021-08-18T15:01:32Z</time>
      </trkpt>
      <trkpt lat="44.56426" lon="2.65184">
        <ele>333.3</ele>
        <time>2021-08-18T15:01:34Z</time>
      </trkpt>
      <trkpt lat="44.56427" lon="2.6519">
        <ele>332.9</ele>
        <time>2021-08-18T15:01:36Z</time>
      </trkpt>
      <trkpt lat="44.5643" lon="2.65196">
        <ele>332.8</ele>
        <time>2021-08-18T15:01:38Z</time>
      </trkpt>
      <trkpt lat="44.56433" lon="2.65201">
        <ele>332.6</ele>
        <time>2021-08-18T15:01:40Z</time>
      </trkpt>
      <trkpt lat="44.56435" lon="2.65205">
        <ele>332.5</ele>
        <time>2021-08-18T15:01:42Z</time>
      </trkpt>
      <trkpt lat="44.56438" lon="2.65211">
        <ele>332.2</ele>
        <time>2021-08-18T15:01:44Z</time>
      </trkpt>
      <trkpt lat="44.56441" lon="2.65215">
        <ele>332.1</ele>
        <time>2021-08-18T15:01:46Z</time>
      </trkpt>
      <trkpt lat="44.56445" lon="2.65217">
        <ele>332.6</ele>
        <time>2021-08-18T15:01:48Z</time>
      </trkpt>
      <trkpt lat="44.56449" lon="2.65215">
        <ele>333.7</ele>
        <time>2021-08-18T15:01:50Z</time>
      </trkpt>
      <trkpt lat="44.56449" lon="2.65209">
        <ele>335</ele>
        <time>2021-08-18T15:01:52Z</time>
      </trkpt>
      <trkpt lat="44.56446" lon="2.65205">
        <ele>335</ele>
        <time>2021-08-18T15:01:54Z</time>
      </trkpt>
      <trkpt lat="44.56445" lon="2.65202">
        <ele>335.3</ele>
        <time>2021-08-18T15:01:56Z</time>
      </trkpt>
      <trkpt lat="44.56443" lon="2.65198">
        <ele>335.6</ele>
        <time>2021-08-18T15:01:58Z</time>
      </trkpt>
      <trkpt lat="44.56442" lon="2.65195">
        <ele>335.8</ele>
        <time>2021-08-18T15:02:00Z</time>
      </trkpt>
      <trkpt lat="44.5644" lon="2.65192">
        <ele>335.8</ele>
        <time>2021-08-18T15:02:02Z</time>
      </trkpt>
      <trkpt lat="44.56438" lon="2.65189">
        <ele>336.1</ele>
        <time>2021-08-18T15:02:04Z</time>
      </trkpt>
      <trkpt lat="44.56437" lon="2.65184">
        <ele>336.4</ele>
        <time>2021-08-18T15:02:06Z</time>
      </trkpt>
      <trkpt lat="44.56436" lon="2.6518">
        <ele>336.7</ele>
        <time>2021-08-18T15:02:08Z</time>
      </trkpt>
      <trkpt lat="44.56435" lon="2.65175">
        <ele>337.3</ele>
        <time>2021-08-18T15:02:10Z</time>
      </trkpt>
      <trkpt lat="44.56434" lon="2.65171">
        <ele>337.6</ele>
        <time>2021-08-18T15:02:12Z</time>
      </trkpt>
      <trkpt lat="44.56432" lon="2.65169">
        <ele>337.4</ele>
        <time>2021-08-18T15:02:14Z</time>
      </trkpt>
      <trkpt lat="44.56433" lon="2.65163">
        <ele>338.5</ele>
        <time>2021-08-18T15:02:16Z</time>
      </trkpt>
      <trkpt lat="44.56432" lon="2.65159">
        <ele>338.7</ele>
        <time>2021-08-18T15:02:18Z</time>
      </trkpt>
      <trkpt lat="44.56432" lon="2.65154">
        <ele>339.4</ele>
        <time>2021-08-18T15:02:20Z</time>
      </trkpt>
      <trkpt lat="44.56432" lon="2.65149">
        <ele>340.1</ele>
        <time>2021-08-18T15:02:22Z</time>
      </trkpt>
      <trkpt lat="44.5643" lon="2.65145">
        <ele>340</ele>
        <time>2021-08-18T15:02:24Z</time>
      </trkpt>
      <trkpt lat="44.56429" lon="2.6514">
        <ele>340.3</ele>
        <time>2021-08-18T15:02:26Z</time>
      </trkpt>
      <trkpt lat="44.56428" lon="2.65136">
        <ele>340.5</ele>
        <time>2021-08-18T15:02:28Z</time>
      </trkpt>
      <trkpt lat="44.56428" lon="2.65132">
        <ele>340.9</ele>
        <time>2021-08-18T15:02:30Z</time>
      </trkpt>
      <trkpt lat="44.56428" lon="2.65127">
        <ele>341.7</ele>
        <time>2021-08-18T15:02:32Z</time>
      </trkpt>
      <trkpt lat="44.56427" lon="2.65123">
        <ele>341.8</ele>
        <time>2021-08-18T15:02:34Z</time>
      </trkpt>
      <trkpt lat="44.56428" lon="2.65118">
        <ele>342.9</ele>
        <time>2021-08-18T15:02:36Z</time>
      </trkpt>
      <trkpt lat="44.56428" lon="2.65113">
        <ele>343.4</ele>
        <time>2021-08-18T15:02:38Z</time>
      </trkpt>
      <trkpt lat="44.56428" lon="2.65107">
        <ele>343.9</ele>
        <time>2021-08-18T15:02:40Z</time>
      </trkpt>
      <trkpt lat="44.56427" lon="2.65102">
        <ele>344.5</ele>
        <time>2021-08-18T15:02:42Z</time>
      </trkpt>
      <trkpt lat="44.56428" lon="2.65097">
        <ele>345.4</ele>
        <time>2021-08-18T15:02:44Z</time>
      </trkpt>
      <trkpt lat="44.56427" lon="2.65092">
        <ele>345.6</ele>
        <time>2021-08-18T15:02:46Z</time>
      </trkpt>
      <trkpt lat="44.56427" lon="2.65087">
        <ele>346.2</ele>
        <time>2021-08-18T15:02:48Z</time>
      </trkpt>
      <trkpt lat="44.56426" lon="2.65082">
        <ele>346.5</ele>
        <time>2021-08-18T15:02:50Z</time>
      </trkpt>
      <trkpt lat="44.56426" lon="2.65078">
        <ele>346.8</ele>
        <time>2021-08-18T15:02:52Z</time>
      </trkpt>
      <trkpt lat="44.56426" lon="2.65073">
        <ele>347.3</ele>
        <time>2021-08-18T15:02:54Z</time>
      </trkpt>
      <trkpt lat="44.56426" lon="2.65068">
        <ele>347.7</ele>
        <time>2021-08-18T15:02:56Z</time>
      </trkpt>
      <trkpt lat="44.56426" lon="2.65064">
        <ele>348.1</ele>
        <time>2021-08-18T15:02:58Z</time>
      </trkpt>
      <trkpt lat="44.56426" lon="2.65059">
        <ele>348.6</ele>
        <time>2021-08-18T15:03:00Z</time>
      </trkpt>
      <trkpt lat="44.56426" lon="2.65055">
        <ele>348.8</ele>
        <time>2021-08-18T15:03:02Z</time>
      </trkpt>
      <trkpt lat="44.56426" lon="2.6505">
        <ele>349.2</ele>
        <time>2021-08-18T15:03:04Z</time>
      </trkpt>
      <trkpt lat="44.56425" lon="2.65045">
        <ele>349.4</ele>
        <time>2021-08-18T15:03:06Z</time>
      </trkpt>
      <trkpt lat="44.56425" lon="2.6504">
        <ele>349.7</ele>
        <time>2021-08-18T15:03:08Z</time>
      </trkpt>
      <trkpt lat="44.56424" lon="2.65036">
        <ele>349.5</ele>
        <time>2021-08-18T15:03:10Z</time>
      </trkpt>
      <trkpt lat="44.56423" lon="2.65032">
        <ele>349.7</ele>
        <time>2021-08-18T15:03:12Z</time>
      </trkpt>
      <trkpt lat="44.56422" lon="2.65027">
        <ele>349.2</ele>
        <time>2021-08-18T15:03:14Z</time>
      </trkpt>
      <trkpt lat="44.56422" lon="2.65023">
        <ele>349.3</ele>
        <time>2021-08-18T15:03:16Z</time>
      </trkpt>
      <trkpt lat="44.56421" lon="2.65019">
        <ele>349</ele>
        <time>2021-08-18T15:03:18Z</time>
      </trkpt>
      <trkpt lat="44.56419" lon="2.65015">
        <ele>348.5</ele>
        <time>2021-08-18T15:03:20Z</time>
      </trkpt>
      <trkpt lat="44.56418" lon="2.65011">
        <ele>348.1</ele>
        <time>2021-08-18T15:03:22Z</time>
      </trkpt>
      <trkpt lat="44.56417" lon="2.65006">
        <ele>347.8</ele>
        <time>2021-08-18T15:03:24Z</time>
      </trkpt>
      <trkpt lat="44.56415" lon="2.65003">
        <ele>347.7</ele>
        <time>2021-08-18T15:03:26Z</time>
      </trkpt>
      <trkpt lat="44.56415" lon="2.64998">
        <ele>348.4</ele>
        <time>2021-08-18T15:03:28Z</time>
      </trkpt>
      <trkpt lat="44.56415" lon="2.64994">
        <ele>349.3</ele>
        <time>2021-08-18T15:03:30Z</time>
      </trkpt>
      <trkpt lat="44.56413" lon="2.64991">
        <ele>349.9</ele>
        <time>2021-08-18T15:03:32Z</time>
      </trkpt>
      <trkpt lat="44.56411" lon="2.64986">
        <ele>350.7</ele>
        <time>2021-08-18T15:03:34Z</time>
      </trkpt>
      <trkpt lat="44.56411" lon="2.64982">
        <ele>351.7</ele>
        <time>2021-08-18T15:03:36Z</time>
      </trkpt>
      <trkpt lat="44.5641" lon="2.64977">
        <ele>352.7</ele>
        <time>2021-08-18T15:03:38Z</time>
      </trkpt>
      <trkpt lat="44.56408" lon="2.64973">
        <ele>353.2</ele>
        <time>2021-08-18T15:03:40Z</time>
      </trkpt>
      <trkpt lat="44.56407" lon="2.64969">
        <ele>353.9</ele>
        <time>2021-08-18T15:03:42Z</time>
      </trkpt>
      <trkpt lat="44.56407" lon="2.64964">
        <ele>354.9</ele>
        <time>2021-08-18T15:03:44Z</time>
      </trkpt>
      <trkpt lat="44.56406" lon="2.6496">
        <ele>355.7</ele>
        <time>2021-08-18T15:03:46Z</time>
      </trkpt>
      <trkpt lat="44.56405" lon="2.64956">
        <ele>356.4</ele>
        <time>2021-08-18T15:03:48Z</time>
      </trkpt>
      <trkpt lat="44.56405" lon="2.64951">
        <ele>357.2</ele>
        <time>2021-08-18T15:03:50Z</time>
      </trkpt>
      <trkpt lat="44.56404" lon="2.64946">
        <ele>358.1</ele>
        <time>2021-08-18T15:03:52Z</time>
      </trkpt>
      <trkpt lat="44.56404" lon="2.64942">
        <ele>358.9</ele>
        <time>2021-08-18T15:03:54Z</time>
      </trkpt>
      <trkpt lat="44.56403" lon="2.64937">
        <ele>359.7</ele>
        <time>2021-08-18T15:03:56Z</time>
      </trkpt>
      <trkpt lat="44.56403" lon="2.64933">
        <ele>360.6</ele>
        <time>2021-08-18T15:03:58Z</time>
      </trkpt>
      <trkpt lat="44.56402" lon="2.64929">
        <ele>361.1</ele>
        <time>2021-08-18T15:04:00Z</time>
      </trkpt>
      <trkpt lat="44.564" lon="2.64925">
        <ele>361.5</ele>
        <time>2021-08-18T15:04:02Z</time>
      </trkpt>
      <trkpt lat="44.564" lon="2.64919">
        <ele>362.4</ele>
        <time>2021-08-18T15:04:04Z</time>
      </trkpt>
      <trkpt lat="44.56399" lon="2.64915">
        <ele>362.6</ele>
        <time>2021-08-18T15:04:06Z</time>
      </trkpt>
      <trkpt lat="44.56399" lon="2.6491">
        <ele>362.7</ele>
        <time>2021-08-18T15:04:08Z</time>
      </trkpt>
      <trkpt lat="44.56398" lon="2.64906">
        <ele>362.6</ele>
        <time>2021-08-18T15:04:10Z</time>
      </trkpt>
      <trkpt lat="44.56396" lon="2.64901">
        <ele>362.2</ele>
        <time>2021-08-18T15:04:12Z</time>
      </trkpt>
      <trkpt lat="44.56395" lon="2.64897">
        <ele>361.9</ele>
        <time>2021-08-18T15:04:14Z</time>
      </trkpt>
      <trkpt lat="44.56395" lon="2.64891">
        <ele>361.9</ele>
        <time>2021-08-18T15:04:16Z</time>
      </trkpt>
      <trkpt lat="44.56394" lon="2.64887">
        <ele>361.8</ele>
        <time>2021-08-18T15:04:18Z</time>
      </trkpt>
      <trkpt lat="44.56394" lon="2.64883">
        <ele>361.8</ele>
        <time>2021-08-18T15:04:20Z</time>
      </trkpt>
      <trkpt lat="44.56394" lon="2.64879">
        <ele>361.8</ele>
        <time>2021-08-18T15:04:22Z</time>
      </trkpt>
      <trkpt lat="44.56394" lon="2.64874">
        <ele>362</ele>
        <time>2021-08-18T15:04:24Z</time>
      </trkpt>
      <trkpt lat="44.56394" lon="2.6487">
        <ele>362.3</ele>
        <time>2021-08-18T15:04:26Z</time>
      </trkpt>
      <trkpt lat="44.56394" lon="2.64865">
        <ele>362.6</ele>
        <time>2021-08-18T15:04:28Z</time>
      </trkpt>
      <trkpt lat="44.56395" lon="2.6486">
        <ele>363</ele>
        <time>2021-08-18T15:04:30Z</time>
      </trkpt>
      <trkpt lat="44.56396" lon="2.64856">
        <ele>363.4</ele>
        <time>2021-08-18T15:04:32Z</time>
      </trkpt>
      <trkpt lat="44.56396" lon="2.64852">
        <ele>363.6</ele>
        <time>2021-08-18T15:04:34Z</time>
      </trkpt>
      <trkpt lat="44.56397" lon="2.64847">
        <ele>364.2</ele>
        <time>2021-08-18T15:04:36Z</time>
      </trkpt>
      <trkpt lat="44.56398" lon="2.64843">
        <ele>364.8</ele>
        <time>2021-08-18T15:04:38Z</time>
      </trkpt>
      <trkpt lat="44.56398" lon="2.64839">
        <ele>365.1</ele>
        <time>2021-08-18T15:04:40Z</time>
      </trkpt>
      <trkpt lat="44.56398" lon="2.64834">
        <ele>365.3</ele>
        <time>2021-08-18T15:04:42Z</time>
      </trkpt>
      <trkpt lat="44.56398" lon="2.6483">
        <ele>365.7</ele>
        <time>2021-08-18T15:04:44Z</time>
      </trkpt>
      <trkpt lat="44.56398" lon="2.64825">
        <ele>366.4</ele>
        <time>2021-08-18T15:04:46Z</time>
      </trkpt>
      <trkpt lat="44.56398" lon="2.64821">
        <ele>366.8</ele>
        <time>2021-08-18T15:04:48Z</time>
      </trkpt>
      <trkpt lat="44.56398" lon="2.64816">
        <ele>367.1</ele>
        <time>2021-08-18T15:04:50Z</time>
      </trkpt>
      <trkpt lat="44.56398" lon="2.64812">
        <ele>367.6</ele>
        <time>2021-08-18T15:04:52Z</time>
      </trkpt>
      <trkpt lat="44.56398" lon="2.64808">
        <ele>368</ele>
        <time>2021-08-18T15:04:54Z</time>
      </trkpt>
      <trkpt lat="44.56397" lon="2.64804">
        <ele>368.1</ele>
        <time>2021-08-18T15:04:56Z</time>
      </trkpt>
      <trkpt lat="44.56397" lon="2.64799">
        <ele>368.5</ele>
        <time>2021-08-18T15:04:58Z</time>
      </trkpt>
      <trkpt lat="44.56396" lon="2.64795">
        <ele>368.8</ele>
        <time>2021-08-18T15:05:00Z</time>
      </trkpt>
      <trkpt lat="44.56396" lon="2.64791">
        <ele>369.1</ele>
        <time>2021-08-18T15:05:02Z</time>
      </trkpt>
      <trkpt lat="44.56396" lon="2.64786">
        <ele>369.6</ele>
        <time>2021-08-18T15:05:04Z</time>
      </trkpt>
      <trkpt lat="44.56395" lon="2.64782">
        <ele>369.7</ele>
        <time>2021-08-18T15:05:06Z</time>
      </trkpt>
      <trkpt lat="44.56395" lon="2.64778">
        <ele>370.1</ele>
        <time>2021-08-18T15:05:08Z</time>
      </trkpt>
      <trkpt lat="44.56395" lon="2.64774">
        <ele>370.5</ele>
        <time>2021-08-18T15:05:10Z</time>
      </trkpt>
      <trkpt lat="44.56394" lon="2.6477">
        <ele>370.5</ele>
        <time>2021-08-18T15:05:12Z</time>
      </trkpt>
      <trkpt lat="44.56394" lon="2.64766">
        <ele>371</ele>
        <time>2021-08-18T15:05:14Z</time>
      </trkpt>
      <trkpt lat="44.56394" lon="2.64762">
        <ele>371.3</ele>
        <time>2021-08-18T15:05:16Z</time>
      </trkpt>
      <trkpt lat="44.56394" lon="2.64757">
        <ele>371.7</ele>
        <time>2021-08-18T15:05:18Z</time>
      </trkpt>
      <trkpt lat="44.56393" lon="2.64753">
        <ele>371.8</ele>
        <time>2021-08-18T15:05:20Z</time>
      </trkpt>
      <trkpt lat="44.56394" lon="2.6475">
        <ele>372.3</ele>
        <time>2021-08-18T15:05:22Z</time>
      </trkpt>
      <trkpt lat="44.56393" lon="2.64745">
        <ele>372.8</ele>
        <time>2021-08-18T15:05:24Z</time>
      </trkpt>
      <trkpt lat="44.56393" lon="2.64742">
        <ele>373.5</ele>
        <time>2021-08-18T15:05:26Z</time>
      </trkpt>
      <trkpt lat="44.56393" lon="2.64738">
        <ele>373.7</ele>
        <time>2021-08-18T15:05:28Z</time>
      </trkpt>
      <trkpt lat="44.56392" lon="2.64734">
        <ele>374.1</ele>
        <time>2021-08-18T15:05:30Z</time>
      </trkpt>
      <trkpt lat="44.56392" lon="2.6473">
        <ele>374.5</ele>
        <time>2021-08-18T15:05:32Z</time>
      </trkpt>
      <trkpt lat="44.56391" lon="2.64726">
        <ele>374.9</ele>
        <time>2021-08-18T15:05:34Z</time>
      </trkpt>
      <trkpt lat="44.5639" lon="2.64722">
        <ele>375.2</ele>
        <time>2021-08-18T15:05:36Z</time>
      </trkpt>
      <trkpt lat="44.5639" lon="2.64718">
        <ele>375.5</ele>
        <time>2021-08-18T15:05:38Z</time>
      </trkpt>
      <trkpt lat="44.5639" lon="2.64714">
        <ele>376.3</ele>
        <time>2021-08-18T15:05:40Z</time>
      </trkpt>
      <trkpt lat="44.56389" lon="2.6471">
        <ele>376.8</ele>
        <time>2021-08-18T15:05:42Z</time>
      </trkpt>
      <trkpt lat="44.56389" lon="2.64706">
        <ele>377.4</ele>
        <time>2021-08-18T15:05:44Z</time>
      </trkpt>
      <trkpt lat="44.5639" lon="2.64701">
        <ele>378.4</ele>
        <time>2021-08-18T15:05:46Z</time>
      </trkpt>
      <trkpt lat="44.5639" lon="2.64697">
        <ele>379.3</ele>
        <time>2021-08-18T15:05:48Z</time>
      </trkpt>
      <trkpt lat="44.56391" lon="2.64692">
        <ele>380.3</ele>
        <time>2021-08-18T15:05:50Z</time>
      </trkpt>
      <trkpt lat="44.56391" lon="2.64688">
        <ele>381</ele>
        <time>2021-08-18T15:05:52Z</time>
      </trkpt>
      <trkpt lat="44.5639" lon="2.64684">
        <ele>381.5</ele>
        <time>2021-08-18T15:05:54Z</time>
      </trkpt>
      <trkpt lat="44.5639" lon="2.6468">
        <ele>382.1</ele>
        <time>2021-08-18T15:05:56Z</time>
      </trkpt>
      <trkpt lat="44.56391" lon="2.64675">
        <ele>383.3</ele>
        <time>2021-08-18T15:05:58Z</time>
      </trkpt>
      <trkpt lat="44.56391" lon="2.64672">
        <ele>384.1</ele>
        <time>2021-08-18T15:06:00Z</time>
      </trkpt>
      <trkpt lat="44.56391" lon="2.64668">
        <ele>384.5</ele>
        <time>2021-08-18T15:06:02Z</time>
      </trkpt>
      <trkpt lat="44.5639" lon="2.64663">
        <ele>384.7</ele>
        <time>2021-08-18T15:06:04Z</time>
      </trkpt>
      <trkpt lat="44.56391" lon="2.64659">
        <ele>385.3</ele>
        <time>2021-08-18T15:06:06Z</time>
      </trkpt>
      <trkpt lat="44.5639" lon="2.64655">
        <ele>385.4</ele>
        <time>2021-08-18T15:06:08Z</time>
      </trkpt>
      <trkpt lat="44.5639" lon="2.64651">
        <ele>385.7</ele>
        <time>2021-08-18T15:06:10Z</time>
      </trkpt>
      <trkpt lat="44.5639" lon="2.64647">
        <ele>385.9</ele>
        <time>2021-08-18T15:06:12Z</time>
      </trkpt>
      <trkpt lat="44.5639" lon="2.64643">
        <ele>386.2</ele>
        <time>2021-08-18T15:06:14Z</time>
      </trkpt>
      <trkpt lat="44.5639" lon="2.64639">
        <ele>386.5</ele>
        <time>2021-08-18T15:06:16Z</time>
      </trkpt>
      <trkpt lat="44.56389" lon="2.64635">
        <ele>386.3</ele>
        <time>2021-08-18T15:06:18Z</time>
      </trkpt>
      <trkpt lat="44.56388" lon="2.6463">
        <ele>386.4</ele>
        <time>2021-08-18T15:06:20Z</time>
      </trkpt>
      <trkpt lat="44.56387" lon="2.64626">
        <ele>386.3</ele>
        <time>2021-08-18T15:06:22Z</time>
      </trkpt>
      <trkpt lat="44.56386" lon="2.64622">
        <ele>386</ele>
        <time>2021-08-18T15:06:24Z</time>
      </trkpt>
      <trkpt lat="44.56386" lon="2.64618">
        <ele>386.1</ele>
        <time>2021-08-18T15:06:26Z</time>
      </trkpt>
      <trkpt lat="44.56385" lon="2.64615">
        <ele>385.9</ele>
        <time>2021-08-18T15:06:28Z</time>
      </trkpt>
      <trkpt lat="44.56384" lon="2.64611">
        <ele>386.1</ele>
        <time>2021-08-18T15:06:30Z</time>
      </trkpt>
      <trkpt lat="44.56383" lon="2.64607">
        <ele>385.9</ele>
        <time>2021-08-18T15:06:32Z</time>
      </trkpt>
      <trkpt lat="44.56382" lon="2.64604">
        <ele>385.5</ele>
        <time>2021-08-18T15:06:34Z</time>
      </trkpt>
      <trkpt lat="44.56381" lon="2.64601">
        <ele>385.2</ele>
        <time>2021-08-18T15:06:36Z</time>
      </trkpt>
      <trkpt lat="44.56381" lon="2.64596">
        <ele>385.5</ele>
        <time>2021-08-18T15:06:38Z</time>
      </trkpt>
      <trkpt lat="44.5638" lon="2.64593">
        <ele>385.5</ele>
        <time>2021-08-18T15:06:40Z</time>
      </trkpt>
      <trkpt lat="44.56379" lon="2.64589">
        <ele>385.2</ele>
        <time>2021-08-18T15:06:42Z</time>
      </trkpt>
      <trkpt lat="44.56377" lon="2.64585">
        <ele>385</ele>
        <time>2021-08-18T15:06:44Z</time>
      </trkpt>
      <trkpt lat="44.56377" lon="2.64581">
        <ele>385.2</ele>
        <time>2021-08-18T15:06:46Z</time>
      </trkpt>
      <trkpt lat="44.56376" lon="2.64576">
        <ele>385.7</ele>
        <time>2021-08-18T15:06:48Z</time>
      </trkpt>
      <trkpt lat="44.56375" lon="2.64572">
        <ele>385.9</ele>
        <time>2021-08-18T15:06:50Z</time>
      </trkpt>
      <trkpt lat="44.56375" lon="2.64568">
        <ele>386.6</ele>
        <time>2021-08-18T15:06:52Z</time>
      </trkpt>
      <trkpt lat="44.56374" lon="2.64564">
        <ele>386.8</ele>
        <time>2021-08-18T15:06:54Z</time>
      </trkpt>
      <trkpt lat="44.56373" lon="2.64561">
        <ele>386.5</ele>
        <time>2021-08-18T15:06:56Z</time>
      </trkpt>
      <trkpt lat="44.56372" lon="2.64557">
        <ele>386.8</ele>
        <time>2021-08-18T15:06:58Z</time>
      </trkpt>
      <trkpt lat="44.56371" lon="2.64553">
        <ele>387.4</ele>
        <time>2021-08-18T15:07:00Z</time>
      </trkpt>
      <trkpt lat="44.5637" lon="2.64548">
        <ele>387.5</ele>
        <time>2021-08-18T15:07:02Z</time>
      </trkpt>
      <trkpt lat="44.56369" lon="2.64544">
        <ele>387.6</ele>
        <time>2021-08-18T15:07:04Z</time>
      </trkpt>
      <trkpt lat="44.56368" lon="2.6454">
        <ele>387.8</ele>
        <time>2021-08-18T15:07:06Z</time>
      </trkpt>
      <trkpt lat="44.56366" lon="2.64537">
        <ele>387.7</ele>
        <time>2021-08-18T15:07:08Z</time>
      </trkpt>
      <trkpt lat="44.56364" lon="2.64533">
        <ele>387.5</ele>
        <time>2021-08-18T15:07:10Z</time>
      </trkpt>
      <trkpt lat="44.56362" lon="2.6453">
        <ele>387.3</ele>
        <time>2021-08-18T15:07:12Z</time>
      </trkpt>
      <trkpt lat="44.56361" lon="2.64527">
        <ele>387.4</ele>
        <time>2021-08-18T15:07:14Z</time>
      </trkpt>
      <trkpt lat="44.5636" lon="2.64524">
        <ele>387.2</ele>
        <time>2021-08-18T15:07:16Z</time>
      </trkpt>
      <trkpt lat="44.56358" lon="2.64521">
        <ele>387</ele>
        <time>2021-08-18T15:07:18Z</time>
      </trkpt>
      <trkpt lat="44.56357" lon="2.64517">
        <ele>387.5</ele>
        <time>2021-08-18T15:07:20Z</time>
      </trkpt>
      <trkpt lat="44.56356" lon="2.64514">
        <ele>387.6</ele>
        <time>2021-08-18T15:07:22Z</time>
      </trkpt>
      <trkpt lat="44.56355" lon="2.6451">
        <ele>387.6</ele>
        <time>2021-08-18T15:07:24Z</time>
      </trkpt>
      <trkpt lat="44.56355" lon="2.64508">
        <ele>388.1</ele>
        <time>2021-08-18T15:07:26Z</time>
      </trkpt>
      <trkpt lat="44.56356" lon="2.64509">
        <ele>388.3</ele>
        <time>2021-08-18T15:07:28Z</time>
      </trkpt>
      <trkpt lat="44.56356" lon="2.64509">
        <ele>388.3</ele>
        <time>2021-08-18T15:07:30Z</time>
      </trkpt>
      <trkpt lat="44.56356" lon="2.64509">
        <ele>388.4</ele>
        <time>2021-08-18T15:07:32Z</time>
      </trkpt>
      <trkpt lat="44.56356" lon="2.64508">
        <ele>388.6</ele>
        <time>2021-08-18T15:07:34Z</time>
      </trkpt>
      <trkpt lat="44.56365" lon="2.64513">
        <ele>391.5</ele>
        <time>2021-08-18T15:12:48Z</time>
      </trkpt>
      <trkpt lat="44.56367" lon="2.64516">
        <ele>391.8</ele>
        <time>2021-08-18T15:12:50Z</time>
      </trkpt>
      <trkpt lat="44.5637" lon="2.64518">
        <ele>392.5</ele>
        <time>2021-08-18T15:12:52Z</time>
      </trkpt>
      <trkpt lat="44.56372" lon="2.64522">
        <ele>392.7</ele>
        <time>2021-08-18T15:12:54Z</time>
      </trkpt>
      <trkpt lat="44.56374" lon="2.64524">
        <ele>393.1</ele>
        <time>2021-08-18T15:12:56Z</time>
      </trkpt>
      <trkpt lat="44.56376" lon="2.64527">
        <ele>393.7</ele>
        <time>2021-08-18T15:12:58Z</time>
      </trkpt>
      <trkpt lat="44.56378" lon="2.6453">
        <ele>393.8</ele>
        <time>2021-08-18T15:13:00Z</time>
      </trkpt>
      <trkpt lat="44.5638" lon="2.64533">
        <ele>394.2</ele>
        <time>2021-08-18T15:13:02Z</time>
      </trkpt>
      <trkpt lat="44.56382" lon="2.64535">
        <ele>394.7</ele>
        <time>2021-08-18T15:13:04Z</time>
      </trkpt>
      <trkpt lat="44.56384" lon="2.64538">
        <ele>395</ele>
        <time>2021-08-18T15:13:06Z</time>
      </trkpt>
      <trkpt lat="44.56385" lon="2.64541">
        <ele>395.4</ele>
        <time>2021-08-18T15:13:08Z</time>
      </trkpt>
      <trkpt lat="44.56388" lon="2.64544">
        <ele>395.9</ele>
        <time>2021-08-18T15:13:10Z</time>
      </trkpt>
      <trkpt lat="44.5639" lon="2.64546">
        <ele>396.5</ele>
        <time>2021-08-18T15:13:12Z</time>
      </trkpt>
      <trkpt lat="44.56391" lon="2.6455">
        <ele>396.7</ele>
        <time>2021-08-18T15:13:14Z</time>
      </trkpt>
      <trkpt lat="44.56394" lon="2.64552">
        <ele>397.4</ele>
        <time>2021-08-18T15:13:16Z</time>
      </trkpt>
      <trkpt lat="44.56396" lon="2.64555">
        <ele>397.9</ele>
        <time>2021-08-18T15:13:18Z</time>
      </trkpt>
      <trkpt lat="44.56398" lon="2.64558">
        <ele>398.6</ele>
        <time>2021-08-18T15:13:20Z</time>
      </trkpt>
      <trkpt lat="44.564" lon="2.64561">
        <ele>399.1</ele>
        <time>2021-08-18T15:13:22Z</time>
      </trkpt>
      <trkpt lat="44.56402" lon="2.64564">
        <ele>399.7</ele>
        <time>2021-08-18T15:13:24Z</time>
      </trkpt>
      <trkpt lat="44.56404" lon="2.64567">
        <ele>400.1</ele>
        <time>2021-08-18T15:13:26Z</time>
      </trkpt>
      <trkpt lat="44.56406" lon="2.6457">
        <ele>400.8</ele>
        <time>2021-08-18T15:13:28Z</time>
      </trkpt>
      <trkpt lat="44.56408" lon="2.64573">
        <ele>401.3</ele>
        <time>2021-08-18T15:13:30Z</time>
      </trkpt>
      <trkpt lat="44.5641" lon="2.64575">
        <ele>401.9</ele>
        <time>2021-08-18T15:13:32Z</time>
      </trkpt>
      <trkpt lat="44.56412" lon="2.64578">
        <ele>402.5</ele>
        <time>2021-08-18T15:13:34Z</time>
      </trkpt>
      <trkpt lat="44.56414" lon="2.64581">
        <ele>403</ele>
        <time>2021-08-18T15:13:36Z</time>
      </trkpt>
      <trkpt lat="44.56416" lon="2.64584">
        <ele>403.5</ele>
        <time>2021-08-18T15:13:38Z</time>
      </trkpt>
      <trkpt lat="44.56418" lon="2.64587">
        <ele>404.6</ele>
        <time>2021-08-18T15:13:40Z</time>
      </trkpt>
      <trkpt lat="44.5642" lon="2.6459">
        <ele>405.1</ele>
        <time>2021-08-18T15:13:42Z</time>
      </trkpt>
      <trkpt lat="44.56422" lon="2.64593">
        <ele>405.8</ele>
        <time>2021-08-18T15:13:44Z</time>
      </trkpt>
      <trkpt lat="44.56423" lon="2.64596">
        <ele>406.3</ele>
        <time>2021-08-18T15:13:46Z</time>
      </trkpt>
      <trkpt lat="44.56425" lon="2.64599">
        <ele>406.9</ele>
        <time>2021-08-18T15:13:48Z</time>
      </trkpt>
      <trkpt lat="44.56426" lon="2.64602">
        <ele>407.5</ele>
        <time>2021-08-18T15:13:50Z</time>
      </trkpt>
      <trkpt lat="44.56427" lon="2.64605">
        <ele>407.7</ele>
        <time>2021-08-18T15:13:52Z</time>
      </trkpt>
      <trkpt lat="44.56429" lon="2.64609">
        <ele>408.2</ele>
        <time>2021-08-18T15:13:54Z</time>
      </trkpt>
      <trkpt lat="44.5643" lon="2.64612">
        <ele>408.5</ele>
        <time>2021-08-18T15:13:56Z</time>
      </trkpt>
      <trkpt lat="44.56431" lon="2.64616">
        <ele>408.8</ele>
        <time>2021-08-18T15:13:58Z</time>
      </trkpt>
      <trkpt lat="44.56432" lon="2.6462">
        <ele>409.1</ele>
        <time>2021-08-18T15:14:00Z</time>
      </trkpt>
      <trkpt lat="44.56433" lon="2.64624">
        <ele>409.4</ele>
        <time>2021-08-18T15:14:02Z</time>
      </trkpt>
      <trkpt lat="44.56435" lon="2.64628">
        <ele>409.9</ele>
        <time>2021-08-18T15:14:04Z</time>
      </trkpt>
      <trkpt lat="44.56436" lon="2.64633">
        <ele>409.9</ele>
        <time>2021-08-18T15:14:06Z</time>
      </trkpt>
      <trkpt lat="44.56436" lon="2.64638">
        <ele>409.9</ele>
        <time>2021-08-18T15:14:08Z</time>
      </trkpt>
      <trkpt lat="44.56438" lon="2.64642">
        <ele>410.3</ele>
        <time>2021-08-18T15:14:10Z</time>
      </trkpt>
      <trkpt lat="44.56438" lon="2.64646">
        <ele>410.3</ele>
        <time>2021-08-18T15:14:12Z</time>
      </trkpt>
      <trkpt lat="44.56439" lon="2.6465">
        <ele>410.4</ele>
        <time>2021-08-18T15:14:14Z</time>
      </trkpt>
      <trkpt lat="44.56439" lon="2.64655">
        <ele>410.3</ele>
        <time>2021-08-18T15:14:16Z</time>
      </trkpt>
      <trkpt lat="44.5644" lon="2.64658">
        <ele>410.4</ele>
        <time>2021-08-18T15:14:18Z</time>
      </trkpt>
      <trkpt lat="44.5644" lon="2.64663">
        <ele>410.3</ele>
        <time>2021-08-18T15:14:20Z</time>
      </trkpt>
      <trkpt lat="44.56441" lon="2.64667">
        <ele>410.5</ele>
        <time>2021-08-18T15:14:22Z</time>
      </trkpt>
      <trkpt lat="44.56442" lon="2.64671">
        <ele>410.5</ele>
        <time>2021-08-18T15:14:24Z</time>
      </trkpt>
      <trkpt lat="44.56443" lon="2.64675">
        <ele>410.4</ele>
        <time>2021-08-18T15:14:26Z</time>
      </trkpt>
      <trkpt lat="44.56443" lon="2.64679">
        <ele>410.1</ele>
        <time>2021-08-18T15:14:28Z</time>
      </trkpt>
      <trkpt lat="44.56444" lon="2.64683">
        <ele>410.1</ele>
        <time>2021-08-18T15:14:30Z</time>
      </trkpt>
      <trkpt lat="44.56445" lon="2.64687">
        <ele>409.9</ele>
        <time>2021-08-18T15:14:32Z</time>
      </trkpt>
      <trkpt lat="44.56445" lon="2.64691">
        <ele>409.7</ele>
        <time>2021-08-18T15:14:34Z</time>
      </trkpt>
      <trkpt lat="44.56446" lon="2.64695">
        <ele>409.6</ele>
        <time>2021-08-18T15:14:36Z</time>
      </trkpt>
      <trkpt lat="44.56446" lon="2.64699">
        <ele>409.5</ele>
        <time>2021-08-18T15:14:38Z</time>
      </trkpt>
      <trkpt lat="44.56447" lon="2.64703">
        <ele>409.4</ele>
        <time>2021-08-18T15:14:40Z</time>
      </trkpt>
      <trkpt lat="44.56447" lon="2.64707">
        <ele>409</ele>
        <time>2021-08-18T15:14:42Z</time>
      </trkpt>
      <trkpt lat="44.56448" lon="2.64711">
        <ele>409.1</ele>
        <time>2021-08-18T15:14:44Z</time>
      </trkpt>
      <trkpt lat="44.56448" lon="2.64716">
        <ele>408.9</ele>
        <time>2021-08-18T15:14:46Z</time>
      </trkpt>
      <trkpt lat="44.56449" lon="2.64719">
        <ele>409.2</ele>
        <time>2021-08-18T15:14:48Z</time>
      </trkpt>
      <trkpt lat="44.56451" lon="2.64724">
        <ele>409.5</ele>
        <time>2021-08-18T15:14:50Z</time>
      </trkpt>
      <trkpt lat="44.56451" lon="2.64728">
        <ele>409.4</ele>
        <time>2021-08-18T15:14:52Z</time>
      </trkpt>
      <trkpt lat="44.56452" lon="2.64731">
        <ele>409.5</ele>
        <time>2021-08-18T15:14:54Z</time>
      </trkpt>
      <trkpt lat="44.56452" lon="2.64735">
        <ele>409.5</ele>
        <time>2021-08-18T15:14:56Z</time>
      </trkpt>
      <trkpt lat="44.56453" lon="2.64739">
        <ele>409.5</ele>
        <time>2021-08-18T15:14:58Z</time>
      </trkpt>
      <trkpt lat="44.56454" lon="2.64743">
        <ele>410.1</ele>
        <time>2021-08-18T15:15:00Z</time>
      </trkpt>
      <trkpt lat="44.56455" lon="2.64747">
        <ele>410.4</ele>
        <time>2021-08-18T15:15:02Z</time>
      </trkpt>
      <trkpt lat="44.56456" lon="2.64751">
        <ele>410.6</ele>
        <time>2021-08-18T15:15:04Z</time>
      </trkpt>
      <trkpt lat="44.56457" lon="2.64755">
        <ele>410.9</ele>
        <time>2021-08-18T15:15:06Z</time>
      </trkpt>
      <trkpt lat="44.56458" lon="2.64758">
        <ele>411.5</ele>
        <time>2021-08-18T15:15:08Z</time>
      </trkpt>
      <trkpt lat="44.56459" lon="2.64762">
        <ele>411.9</ele>
        <time>2021-08-18T15:15:10Z</time>
      </trkpt>
      <trkpt lat="44.5646" lon="2.64765">
        <ele>412.3</ele>
        <time>2021-08-18T15:15:12Z</time>
      </trkpt>
      <trkpt lat="44.56461" lon="2.64769">
        <ele>412.4</ele>
        <time>2021-08-18T15:15:14Z</time>
      </trkpt>
      <trkpt lat="44.56462" lon="2.64773">
        <ele>413</ele>
        <time>2021-08-18T15:15:16Z</time>
      </trkpt>
      <trkpt lat="44.56464" lon="2.64776">
        <ele>414</ele>
        <time>2021-08-18T15:15:18Z</time>
      </trkpt>
      <trkpt lat="44.56464" lon="2.64779">
        <ele>414</ele>
        <time>2021-08-18T15:15:20Z</time>
      </trkpt>
      <trkpt lat="44.56465" lon="2.64783">
        <ele>414.6</ele>
        <time>2021-08-18T15:15:22Z</time>
      </trkpt>
      <trkpt lat="44.56466" lon="2.64787">
        <ele>415.3</ele>
        <time>2021-08-18T15:15:24Z</time>
      </trkpt>
      <trkpt lat="44.56467" lon="2.6479">
        <ele>415.8</ele>
        <time>2021-08-18T15:15:26Z</time>
      </trkpt>
      <trkpt lat="44.56468" lon="2.64793">
        <ele>416.3</ele>
        <time>2021-08-18T15:15:28Z</time>
      </trkpt>
      <trkpt lat="44.56469" lon="2.64796">
        <ele>417</ele>
        <time>2021-08-18T15:15:30Z</time>
      </trkpt>
      <trkpt lat="44.56471" lon="2.648">
        <ele>417.6</ele>
        <time>2021-08-18T15:15:32Z</time>
      </trkpt>
      <trkpt lat="44.56471" lon="2.64804">
        <ele>417.7</ele>
        <time>2021-08-18T15:15:34Z</time>
      </trkpt>
      <trkpt lat="44.56472" lon="2.64808">
        <ele>418.3</ele>
        <time>2021-08-18T15:15:36Z</time>
      </trkpt>
      <trkpt lat="44.56474" lon="2.64811">
        <ele>419.4</ele>
        <time>2021-08-18T15:15:38Z</time>
      </trkpt>
      <trkpt lat="44.56474" lon="2.64816">
        <ele>419.6</ele>
        <time>2021-08-18T15:15:40Z</time>
      </trkpt>
      <trkpt lat="44.56475" lon="2.6482">
        <ele>420</ele>
        <time>2021-08-18T15:15:42Z</time>
      </trkpt>
      <trkpt lat="44.56475" lon="2.64823">
        <ele>420.1</ele>
        <time>2021-08-18T15:15:44Z</time>
      </trkpt>
      <trkpt lat="44.56477" lon="2.64828">
        <ele>421</ele>
        <time>2021-08-18T15:15:46Z</time>
      </trkpt>
      <trkpt lat="44.56478" lon="2.64832">
        <ele>421.7</ele>
        <time>2021-08-18T15:15:48Z</time>
      </trkpt>
      <trkpt lat="44.56478" lon="2.64836">
        <ele>421.8</ele>
        <time>2021-08-18T15:15:50Z</time>
      </trkpt>
      <trkpt lat="44.5648" lon="2.6484">
        <ele>422.5</ele>
        <time>2021-08-18T15:15:52Z</time>
      </trkpt>
      <trkpt lat="44.56481" lon="2.64843">
        <ele>422.6</ele>
        <time>2021-08-18T15:15:54Z</time>
      </trkpt>
      <trkpt lat="44.56482" lon="2.64848">
        <ele>423.2</ele>
        <time>2021-08-18T15:15:56Z</time>
      </trkpt>
      <trkpt lat="44.56483" lon="2.64852">
        <ele>423.4</ele>
        <time>2021-08-18T15:15:58Z</time>
      </trkpt>
      <trkpt lat="44.56484" lon="2.64856">
        <ele>423.8</ele>
        <time>2021-08-18T15:16:00Z</time>
      </trkpt>
      <trkpt lat="44.56486" lon="2.64859">
        <ele>424.6</ele>
        <time>2021-08-18T15:16:02Z</time>
      </trkpt>
      <trkpt lat="44.56487" lon="2.64862">
        <ele>424.9</ele>
        <time>2021-08-18T15:16:04Z</time>
      </trkpt>
      <trkpt lat="44.56488" lon="2.64867">
        <ele>425.1</ele>
        <time>2021-08-18T15:16:06Z</time>
      </trkpt>
      <trkpt lat="44.56489" lon="2.64871">
        <ele>425.4</ele>
        <time>2021-08-18T15:16:08Z</time>
      </trkpt>
      <trkpt lat="44.5649" lon="2.64875">
        <ele>425.7</ele>
        <time>2021-08-18T15:16:10Z</time>
      </trkpt>
      <trkpt lat="44.56491" lon="2.64879">
        <ele>425.7</ele>
        <time>2021-08-18T15:16:12Z</time>
      </trkpt>
      <trkpt lat="44.56492" lon="2.64883">
        <ele>426</ele>
        <time>2021-08-18T15:16:14Z</time>
      </trkpt>
      <trkpt lat="44.56493" lon="2.64887">
        <ele>426.5</ele>
        <time>2021-08-18T15:16:16Z</time>
      </trkpt>
      <trkpt lat="44.56494" lon="2.6489">
        <ele>426.7</ele>
        <time>2021-08-18T15:16:18Z</time>
      </trkpt>
      <trkpt lat="44.56496" lon="2.64895">
        <ele>427.5</ele>
        <time>2021-08-18T15:16:20Z</time>
      </trkpt>
      <trkpt lat="44.56498" lon="2.64899">
        <ele>428.2</ele>
        <time>2021-08-18T15:16:22Z</time>
      </trkpt>
      <trkpt lat="44.565" lon="2.64904">
        <ele>429</ele>
        <time>2021-08-18T15:16:24Z</time>
      </trkpt>
      <trkpt lat="44.56502" lon="2.64908">
        <ele>429</ele>
        <time>2021-08-18T15:16:26Z</time>
      </trkpt>
      <trkpt lat="44.56504" lon="2.64912">
        <ele>429.5</ele>
        <time>2021-08-18T15:16:28Z</time>
      </trkpt>
      <trkpt lat="44.56505" lon="2.64915">
        <ele>429.6</ele>
        <time>2021-08-18T15:16:30Z</time>
      </trkpt>
      <trkpt lat="44.56507" lon="2.64918">
        <ele>429.7</ele>
        <time>2021-08-18T15:16:32Z</time>
      </trkpt>
      <trkpt lat="44.56509" lon="2.64921">
        <ele>429.5</ele>
        <time>2021-08-18T15:16:34Z</time>
      </trkpt>
      <trkpt lat="44.5651" lon="2.64924">
        <ele>429.2</ele>
        <time>2021-08-18T15:16:36Z</time>
      </trkpt>
      <trkpt lat="44.56512" lon="2.64927">
        <ele>429.4</ele>
        <time>2021-08-18T15:16:38Z</time>
      </trkpt>
      <trkpt lat="44.56514" lon="2.6493">
        <ele>429.4</ele>
        <time>2021-08-18T15:16:40Z</time>
      </trkpt>
      <trkpt lat="44.56517" lon="2.64933">
        <ele>429.9</ele>
        <time>2021-08-18T15:16:42Z</time>
      </trkpt>
      <trkpt lat="44.56519" lon="2.64936">
        <ele>429.7</ele>
        <time>2021-08-18T15:16:44Z</time>
      </trkpt>
      <trkpt lat="44.5652" lon="2.64939">
        <ele>429.4</ele>
        <time>2021-08-18T15:16:46Z</time>
      </trkpt>
      <trkpt lat="44.56523" lon="2.64942">
        <ele>429.7</ele>
        <time>2021-08-18T15:16:48Z</time>
      </trkpt>
      <trkpt lat="44.56525" lon="2.64945">
        <ele>429.8</ele>
        <time>2021-08-18T15:16:50Z</time>
      </trkpt>
      <trkpt lat="44.56527" lon="2.64948">
        <ele>429.7</ele>
        <time>2021-08-18T15:16:52Z</time>
      </trkpt>
      <trkpt lat="44.56528" lon="2.64951">
        <ele>429.5</ele>
        <time>2021-08-18T15:16:54Z</time>
      </trkpt>
      <trkpt lat="44.5653" lon="2.64954">
        <ele>429.3</ele>
        <time>2021-08-18T15:16:56Z</time>
      </trkpt>
      <trkpt lat="44.56531" lon="2.64957">
        <ele>429.2</ele>
        <time>2021-08-18T15:16:58Z</time>
      </trkpt>
      <trkpt lat="44.56534" lon="2.64961">
        <ele>429.4</ele>
        <time>2021-08-18T15:17:00Z</time>
      </trkpt>
      <trkpt lat="44.56536" lon="2.64964">
        <ele>429.3</ele>
        <time>2021-08-18T15:17:02Z</time>
      </trkpt>
      <trkpt lat="44.56538" lon="2.64968">
        <ele>429.1</ele>
        <time>2021-08-18T15:17:04Z</time>
      </trkpt>
      <trkpt lat="44.56541" lon="2.64971">
        <ele>429.6</ele>
        <time>2021-08-18T15:17:06Z</time>
      </trkpt>
      <trkpt lat="44.56543" lon="2.64975">
        <ele>429.7</ele>
        <time>2021-08-18T15:17:08Z</time>
      </trkpt>
      <trkpt lat="44.56545" lon="2.64979">
        <ele>429.5</ele>
        <time>2021-08-18T15:17:10Z</time>
      </trkpt>
      <trkpt lat="44.56547" lon="2.64983">
        <ele>429.2</ele>
        <time>2021-08-18T15:17:12Z</time>
      </trkpt>
      <trkpt lat="44.56549" lon="2.64986">
        <ele>429.1</ele>
        <time>2021-08-18T15:17:14Z</time>
      </trkpt>
      <trkpt lat="44.56551" lon="2.6499">
        <ele>429.1</ele>
        <time>2021-08-18T15:17:16Z</time>
      </trkpt>
      <trkpt lat="44.56553" lon="2.64994">
        <ele>428.9</ele>
        <time>2021-08-18T15:17:18Z</time>
      </trkpt>
      <trkpt lat="44.56555" lon="2.64997">
        <ele>429.1</ele>
        <time>2021-08-18T15:17:20Z</time>
      </trkpt>
      <trkpt lat="44.56557" lon="2.65">
        <ele>429.1</ele>
        <time>2021-08-18T15:17:22Z</time>
      </trkpt>
      <trkpt lat="44.5656" lon="2.65003">
        <ele>429.4</ele>
        <time>2021-08-18T15:17:24Z</time>
      </trkpt>
      <trkpt lat="44.56562" lon="2.65005">
        <ele>429.8</ele>
        <time>2021-08-18T15:17:26Z</time>
      </trkpt>
      <trkpt lat="44.56565" lon="2.65007">
        <ele>430.4</ele>
        <time>2021-08-18T15:17:28Z</time>
      </trkpt>
      <trkpt lat="44.56567" lon="2.65008">
        <ele>431.3</ele>
        <time>2021-08-18T15:17:30Z</time>
      </trkpt>
      <trkpt lat="44.5657" lon="2.6501">
        <ele>432.1</ele>
        <time>2021-08-18T15:17:32Z</time>
      </trkpt>
      <trkpt lat="44.56573" lon="2.65011">
        <ele>433</ele>
        <time>2021-08-18T15:17:34Z</time>
      </trkpt>
      <trkpt lat="44.56577" lon="2.65012">
        <ele>434.5</ele>
        <time>2021-08-18T15:17:36Z</time>
      </trkpt>
      <trkpt lat="44.56579" lon="2.65012">
        <ele>435.6</ele>
        <time>2021-08-18T15:17:38Z</time>
      </trkpt>
      <trkpt lat="44.56582" lon="2.65014">
        <ele>436.3</ele>
        <time>2021-08-18T15:17:40Z</time>
      </trkpt>
      <trkpt lat="44.56585" lon="2.65015">
        <ele>436.9</ele>
        <time>2021-08-18T15:17:42Z</time>
      </trkpt>
      <trkpt lat="44.56588" lon="2.65016">
        <ele>437</ele>
        <time>2021-08-18T15:17:44Z</time>
      </trkpt>
      <trkpt lat="44.56591" lon="2.65017">
        <ele>437.3</ele>
        <time>2021-08-18T15:17:46Z</time>
      </trkpt>
      <trkpt lat="44.56594" lon="2.65016">
        <ele>438</ele>
        <time>2021-08-18T15:17:48Z</time>
      </trkpt>
      <trkpt lat="44.56597" lon="2.65016">
        <ele>438.7</ele>
        <time>2021-08-18T15:17:50Z</time>
      </trkpt>
      <trkpt lat="44.566" lon="2.65014">
        <ele>439.8</ele>
        <time>2021-08-18T15:17:52Z</time>
      </trkpt>
      <trkpt lat="44.566" lon="2.65011">
        <ele>441</ele>
        <time>2021-08-18T15:17:54Z</time>
      </trkpt>
      <trkpt lat="44.566" lon="2.65008">
        <ele>441.8</ele>
        <time>2021-08-18T15:17:56Z</time>
      </trkpt>
      <trkpt lat="44.56598" lon="2.65005">
        <ele>442.5</ele>
        <time>2021-08-18T15:17:58Z</time>
      </trkpt>
      <trkpt lat="44.56597" lon="2.65003">
        <ele>442.9</ele>
        <time>2021-08-18T15:18:00Z</time>
      </trkpt>
      <trkpt lat="44.56595" lon="2.65001">
        <ele>443</ele>
        <time>2021-08-18T15:18:02Z</time>
      </trkpt>
      <trkpt lat="44.56593" lon="2.65001">
        <ele>442.8</ele>
        <time>2021-08-18T15:18:04Z</time>
      </trkpt>
      <trkpt lat="44.56591" lon="2.65">
        <ele>442.7</ele>
        <time>2021-08-18T15:18:06Z</time>
      </trkpt>
      <trkpt lat="44.56589" lon="2.64999">
        <ele>442.6</ele>
        <time>2021-08-18T15:18:08Z</time>
      </trkpt>
      <trkpt lat="44.56587" lon="2.64998">
        <ele>442.2</ele>
        <time>2021-08-18T15:18:10Z</time>
      </trkpt>
      <trkpt lat="44.56584" lon="2.64996">
        <ele>442.2</ele>
        <time>2021-08-18T15:18:12Z</time>
      </trkpt>
      <trkpt lat="44.56582" lon="2.64995">
        <ele>441.7</ele>
        <time>2021-08-18T15:18:14Z</time>
      </trkpt>
      <trkpt lat="44.56579" lon="2.64992">
        <ele>441.2</ele>
        <time>2021-08-18T15:18:16Z</time>
      </trkpt>
      <trkpt lat="44.56578" lon="2.64989">
        <ele>441.3</ele>
        <time>2021-08-18T15:18:18Z</time>
      </trkpt>
      <trkpt lat="44.56576" lon="2.64986">
        <ele>441.6</ele>
        <time>2021-08-18T15:18:20Z</time>
      </trkpt>
      <trkpt lat="44.56574" lon="2.64982">
        <ele>441.8</ele>
        <time>2021-08-18T15:18:22Z</time>
      </trkpt>
      <trkpt lat="44.56573" lon="2.64978">
        <ele>442.2</ele>
        <time>2021-08-18T15:18:24Z</time>
      </trkpt>
      <trkpt lat="44.56571" lon="2.64975">
        <ele>442.2</ele>
        <time>2021-08-18T15:18:26Z</time>
      </trkpt>
      <trkpt lat="44.56569" lon="2.64971">
        <ele>442.2</ele>
        <time>2021-08-18T15:18:28Z</time>
      </trkpt>
      <trkpt lat="44.56567" lon="2.64968">
        <ele>442.2</ele>
        <time>2021-08-18T15:18:30Z</time>
      </trkpt>
      <trkpt lat="44.56566" lon="2.64963">
        <ele>442.9</ele>
        <time>2021-08-18T15:18:32Z</time>
      </trkpt>
      <trkpt lat="44.56565" lon="2.6496">
        <ele>443.3</ele>
        <time>2021-08-18T15:18:34Z</time>
      </trkpt>
      <trkpt lat="44.56563" lon="2.64956">
        <ele>443.6</ele>
        <time>2021-08-18T15:18:36Z</time>
      </trkpt>
      <trkpt lat="44.56561" lon="2.64952">
        <ele>443.9</ele>
        <time>2021-08-18T15:18:38Z</time>
      </trkpt>
      <trkpt lat="44.5656" lon="2.64948">
        <ele>444.6</ele>
        <time>2021-08-18T15:18:40Z</time>
      </trkpt>
      <trkpt lat="44.56559" lon="2.64944">
        <ele>444.9</ele>
        <time>2021-08-18T15:18:42Z</time>
      </trkpt>
      <trkpt lat="44.56556" lon="2.64941">
        <ele>444.7</ele>
        <time>2021-08-18T15:18:44Z</time>
      </trkpt>
      <trkpt lat="44.56555" lon="2.64937">
        <ele>445.2</ele>
        <time>2021-08-18T15:18:46Z</time>
      </trkpt>
      <trkpt lat="44.56554" lon="2.64934">
        <ele>445.4</ele>
        <time>2021-08-18T15:18:48Z</time>
      </trkpt>
      <trkpt lat="44.56553" lon="2.64931">
        <ele>445.9</ele>
        <time>2021-08-18T15:18:50Z</time>
      </trkpt>
      <trkpt lat="44.56551" lon="2.64928">
        <ele>446</ele>
        <time>2021-08-18T15:18:52Z</time>
      </trkpt>
      <trkpt lat="44.56549" lon="2.64924">
        <ele>446.3</ele>
        <time>2021-08-18T15:18:54Z</time>
      </trkpt>
      <trkpt lat="44.56549" lon="2.64921">
        <ele>446.9</ele>
        <time>2021-08-18T15:18:56Z</time>
      </trkpt>
      <trkpt lat="44.56547" lon="2.64917">
        <ele>447.1</ele>
        <time>2021-08-18T15:18:58Z</time>
      </trkpt>
      <trkpt lat="44.56546" lon="2.64913">
        <ele>447.4</ele>
        <time>2021-08-18T15:19:00Z</time>
      </trkpt>
      <trkpt lat="44.56544" lon="2.6491">
        <ele>447.1</ele>
        <time>2021-08-18T15:19:02Z</time>
      </trkpt>
      <trkpt lat="44.56543" lon="2.64907">
        <ele>447.1</ele>
        <time>2021-08-18T15:19:04Z</time>
      </trkpt>
      <trkpt lat="44.56542" lon="2.64904">
        <ele>447</ele>
        <time>2021-08-18T15:19:06Z</time>
      </trkpt>
      <trkpt lat="44.56541" lon="2.649">
        <ele>447.1</ele>
        <time>2021-08-18T15:19:08Z</time>
      </trkpt>
      <trkpt lat="44.5654" lon="2.64897">
        <ele>447</ele>
        <time>2021-08-18T15:19:10Z</time>
      </trkpt>
      <trkpt lat="44.5654" lon="2.64892">
        <ele>447.7</ele>
        <time>2021-08-18T15:19:12Z</time>
      </trkpt>
      <trkpt lat="44.56539" lon="2.64888">
        <ele>447.8</ele>
        <time>2021-08-18T15:19:14Z</time>
      </trkpt>
      <trkpt lat="44.56538" lon="2.64883">
        <ele>448.4</ele>
        <time>2021-08-18T15:19:16Z</time>
      </trkpt>
      <trkpt lat="44.56538" lon="2.64879">
        <ele>449.1</ele>
        <time>2021-08-18T15:19:18Z</time>
      </trkpt>
      <trkpt lat="44.56538" lon="2.64874">
        <ele>449.6</ele>
        <time>2021-08-18T15:19:20Z</time>
      </trkpt>
      <trkpt lat="44.56538" lon="2.64869">
        <ele>450.2</ele>
        <time>2021-08-18T15:19:22Z</time>
      </trkpt>
      <trkpt lat="44.56538" lon="2.64865">
        <ele>450.8</ele>
        <time>2021-08-18T15:19:24Z</time>
      </trkpt>
      <trkpt lat="44.56538" lon="2.6486">
        <ele>451.4</ele>
        <time>2021-08-18T15:19:26Z</time>
      </trkpt>
      <trkpt lat="44.56537" lon="2.64855">
        <ele>451.9</ele>
        <time>2021-08-18T15:19:28Z</time>
      </trkpt>
      <trkpt lat="44.56537" lon="2.64849">
        <ele>452.6</ele>
        <time>2021-08-18T15:19:30Z</time>
      </trkpt>
      <trkpt lat="44.56537" lon="2.64844">
        <ele>453.6</ele>
        <time>2021-08-18T15:19:32Z</time>
      </trkpt>
      <trkpt lat="44.56537" lon="2.64839">
        <ele>454.1</ele>
        <time>2021-08-18T15:19:34Z</time>
      </trkpt>
      <trkpt lat="44.56537" lon="2.64834">
        <ele>455.1</ele>
        <time>2021-08-18T15:19:36Z</time>
      </trkpt>
      <trkpt lat="44.56537" lon="2.6483">
        <ele>455</ele>
        <time>2021-08-18T15:19:38Z</time>
      </trkpt>
      <trkpt lat="44.56537" lon="2.64825">
        <ele>454.9</ele>
        <time>2021-08-18T15:19:40Z</time>
      </trkpt>
      <trkpt lat="44.56538" lon="2.64821">
        <ele>455</ele>
        <time>2021-08-18T15:19:42Z</time>
      </trkpt>
      <trkpt lat="44.56539" lon="2.64817">
        <ele>455.2</ele>
        <time>2021-08-18T15:19:44Z</time>
      </trkpt>
      <trkpt lat="44.5654" lon="2.64813">
        <ele>455.7</ele>
        <time>2021-08-18T15:19:46Z</time>
      </trkpt>
      <trkpt lat="44.5654" lon="2.64807">
        <ele>455.5</ele>
        <time>2021-08-18T15:19:48Z</time>
      </trkpt>
      <trkpt lat="44.56541" lon="2.64802">
        <ele>455.6</ele>
        <time>2021-08-18T15:19:50Z</time>
      </trkpt>
      <trkpt lat="44.5654" lon="2.64796">
        <ele>455.3</ele>
        <time>2021-08-18T15:19:52Z</time>
      </trkpt>
      <trkpt lat="44.56542" lon="2.64792">
        <ele>455.8</ele>
        <time>2021-08-18T15:19:54Z</time>
      </trkpt>
      <trkpt lat="44.56543" lon="2.64789">
        <ele>456.2</ele>
        <time>2021-08-18T15:19:56Z</time>
      </trkpt>
      <trkpt lat="44.56544" lon="2.64784">
        <ele>456.5</ele>
        <time>2021-08-18T15:19:58Z</time>
      </trkpt>
      <trkpt lat="44.56546" lon="2.6478">
        <ele>457.1</ele>
        <time>2021-08-18T15:20:00Z</time>
      </trkpt>
      <trkpt lat="44.56547" lon="2.64776">
        <ele>457.4</ele>
        <time>2021-08-18T15:20:02Z</time>
      </trkpt>
      <trkpt lat="44.56549" lon="2.64773">
        <ele>457.9</ele>
        <time>2021-08-18T15:20:04Z</time>
      </trkpt>
      <trkpt lat="44.56549" lon="2.64769">
        <ele>458.1</ele>
        <time>2021-08-18T15:20:06Z</time>
      </trkpt>
      <trkpt lat="44.56551" lon="2.64765">
        <ele>458.4</ele>
        <time>2021-08-18T15:20:08Z</time>
      </trkpt>
      <trkpt lat="44.56551" lon="2.6476">
        <ele>458.4</ele>
        <time>2021-08-18T15:20:10Z</time>
      </trkpt>
      <trkpt lat="44.56552" lon="2.64756">
        <ele>458.7</ele>
        <time>2021-08-18T15:20:12Z</time>
      </trkpt>
      <trkpt lat="44.56553" lon="2.6475">
        <ele>458.7</ele>
        <time>2021-08-18T15:20:14Z</time>
      </trkpt>
      <trkpt lat="44.56554" lon="2.64745">
        <ele>458.9</ele>
        <time>2021-08-18T15:20:16Z</time>
      </trkpt>
      <trkpt lat="44.56555" lon="2.6474">
        <ele>458.9</ele>
        <time>2021-08-18T15:20:18Z</time>
      </trkpt>
      <trkpt lat="44.56555" lon="2.64736">
        <ele>458.9</ele>
        <time>2021-08-18T15:20:20Z</time>
      </trkpt>
      <trkpt lat="44.56555" lon="2.64731">
        <ele>458.8</ele>
        <time>2021-08-18T15:20:22Z</time>
      </trkpt>
      <trkpt lat="44.56556" lon="2.64726">
        <ele>458.7</ele>
        <time>2021-08-18T15:20:24Z</time>
      </trkpt>
      <trkpt lat="44.56556" lon="2.64721">
        <ele>458.6</ele>
        <time>2021-08-18T15:20:26Z</time>
      </trkpt>
      <trkpt lat="44.56556" lon="2.64717">
        <ele>458.5</ele>
        <time>2021-08-18T15:20:28Z</time>
      </trkpt>
      <trkpt lat="44.56556" lon="2.64713">
        <ele>458.2</ele>
        <time>2021-08-18T15:20:30Z</time>
      </trkpt>
      <trkpt lat="44.56556" lon="2.64708">
        <ele>458</ele>
        <time>2021-08-18T15:20:32Z</time>
      </trkpt>
      <trkpt lat="44.56555" lon="2.64703">
        <ele>457.5</ele>
        <time>2021-08-18T15:20:34Z</time>
      </trkpt>
      <trkpt lat="44.56555" lon="2.64699">
        <ele>457.2</ele>
        <time>2021-08-18T15:20:36Z</time>
      </trkpt>
      <trkpt lat="44.56554" lon="2.64695">
        <ele>456.8</ele>
        <time>2021-08-18T15:20:38Z</time>
      </trkpt>
      <trkpt lat="44.56554" lon="2.64689">
        <ele>456.4</ele>
        <time>2021-08-18T15:20:40Z</time>
      </trkpt>
      <trkpt lat="44.56554" lon="2.64684">
        <ele>456.1</ele>
        <time>2021-08-18T15:20:42Z</time>
      </trkpt>
      <trkpt lat="44.56553" lon="2.64677">
        <ele>455.7</ele>
        <time>2021-08-18T15:20:44Z</time>
      </trkpt>
      <trkpt lat="44.56553" lon="2.64671">
        <ele>455.3</ele>
        <time>2021-08-18T15:20:46Z</time>
      </trkpt>
      <trkpt lat="44.56552" lon="2.64664">
        <ele>454.9</ele>
        <time>2021-08-18T15:20:48Z</time>
      </trkpt>
      <trkpt lat="44.56552" lon="2.64658">
        <ele>454.5</ele>
        <time>2021-08-18T15:20:50Z</time>
      </trkpt>
      <trkpt lat="44.56551" lon="2.64651">
        <ele>454.1</ele>
        <time>2021-08-18T15:20:52Z</time>
      </trkpt>
      <trkpt lat="44.56551" lon="2.64645">
        <ele>454</ele>
        <time>2021-08-18T15:20:54Z</time>
      </trkpt>
      <trkpt lat="44.5655" lon="2.64639">
        <ele>453.6</ele>
        <time>2021-08-18T15:20:56Z</time>
      </trkpt>
      <trkpt lat="44.56549" lon="2.64631">
        <ele>453.4</ele>
        <time>2021-08-18T15:20:58Z</time>
      </trkpt>
      <trkpt lat="44.56548" lon="2.64624">
        <ele>452.9</ele>
        <time>2021-08-18T15:21:00Z</time>
      </trkpt>
      <trkpt lat="44.56547" lon="2.64618">
        <ele>452.6</ele>
        <time>2021-08-18T15:21:02Z</time>
      </trkpt>
      <trkpt lat="44.56546" lon="2.64611">
        <ele>452.3</ele>
        <time>2021-08-18T15:21:04Z</time>
      </trkpt>
      <trkpt lat="44.56547" lon="2.64604">
        <ele>452.2</ele>
        <time>2021-08-18T15:21:06Z</time>
      </trkpt>
      <trkpt lat="44.56545" lon="2.646">
        <ele>451.8</ele>
        <time>2021-08-18T15:21:08Z</time>
      </trkpt>
      <trkpt lat="44.56544" lon="2.64593">
        <ele>451.5</ele>
        <time>2021-08-18T15:21:10Z</time>
      </trkpt>
      <trkpt lat="44.56543" lon="2.64587">
        <ele>451.2</ele>
        <time>2021-08-18T15:21:12Z</time>
      </trkpt>
      <trkpt lat="44.56542" lon="2.64582">
        <ele>451.1</ele>
        <time>2021-08-18T15:21:14Z</time>
      </trkpt>
      <trkpt lat="44.56541" lon="2.64577">
        <ele>450.6</ele>
        <time>2021-08-18T15:21:16Z</time>
      </trkpt>
      <trkpt lat="44.5654" lon="2.64572">
        <ele>450.3</ele>
        <time>2021-08-18T15:21:18Z</time>
      </trkpt>
      <trkpt lat="44.5654" lon="2.64567">
        <ele>450.1</ele>
        <time>2021-08-18T15:21:20Z</time>
      </trkpt>
      <trkpt lat="44.5654" lon="2.64563">
        <ele>449.8</ele>
        <time>2021-08-18T15:21:22Z</time>
      </trkpt>
      <trkpt lat="44.56539" lon="2.64558">
        <ele>449.6</ele>
        <time>2021-08-18T15:21:24Z</time>
      </trkpt>
      <trkpt lat="44.56539" lon="2.64553">
        <ele>449.4</ele>
        <time>2021-08-18T15:21:26Z</time>
      </trkpt>
      <trkpt lat="44.56539" lon="2.64548">
        <ele>449.2</ele>
        <time>2021-08-18T15:21:28Z</time>
      </trkpt>
      <trkpt lat="44.56538" lon="2.64543">
        <ele>449</ele>
        <time>2021-08-18T15:21:30Z</time>
      </trkpt>
      <trkpt lat="44.56539" lon="2.64538">
        <ele>448.9</ele>
        <time>2021-08-18T15:21:32Z</time>
      </trkpt>
      <trkpt lat="44.56538" lon="2.64534">
        <ele>448.7</ele>
        <time>2021-08-18T15:21:34Z</time>
      </trkpt>
      <trkpt lat="44.56538" lon="2.64529">
        <ele>448.5</ele>
        <time>2021-08-18T15:21:36Z</time>
      </trkpt>
      <trkpt lat="44.56537" lon="2.64525">
        <ele>448.3</ele>
        <time>2021-08-18T15:21:38Z</time>
      </trkpt>
      <trkpt lat="44.56536" lon="2.6452">
        <ele>448.1</ele>
        <time>2021-08-18T15:21:40Z</time>
      </trkpt>
      <trkpt lat="44.56536" lon="2.64516">
        <ele>448</ele>
        <time>2021-08-18T15:21:42Z</time>
      </trkpt>
      <trkpt lat="44.56536" lon="2.64511">
        <ele>447.9</ele>
        <time>2021-08-18T15:21:44Z</time>
      </trkpt>
      <trkpt lat="44.56535" lon="2.64507">
        <ele>447.7</ele>
        <time>2021-08-18T15:21:46Z</time>
      </trkpt>
      <trkpt lat="44.56534" lon="2.64501">
        <ele>447.6</ele>
        <time>2021-08-18T15:21:48Z</time>
      </trkpt>
      <trkpt lat="44.56534" lon="2.64497">
        <ele>448</ele>
        <time>2021-08-18T15:21:50Z</time>
      </trkpt>
      <trkpt lat="44.56534" lon="2.64492">
        <ele>448.5</ele>
        <time>2021-08-18T15:21:52Z</time>
      </trkpt>
      <trkpt lat="44.56534" lon="2.64487">
        <ele>449</ele>
        <time>2021-08-18T15:21:54Z</time>
      </trkpt>
      <trkpt lat="44.56533" lon="2.64482">
        <ele>449.6</ele>
        <time>2021-08-18T15:21:56Z</time>
      </trkpt>
      <trkpt lat="44.56533" lon="2.64477">
        <ele>450.1</ele>
        <time>2021-08-18T15:21:58Z</time>
      </trkpt>
      <trkpt lat="44.56532" lon="2.64473">
        <ele>450.5</ele>
        <time>2021-08-18T15:22:00Z</time>
      </trkpt>
      <trkpt lat="44.56532" lon="2.64468">
        <ele>451.1</ele>
        <time>2021-08-18T15:22:02Z</time>
      </trkpt>
      <trkpt lat="44.56531" lon="2.64464">
        <ele>451.5</ele>
        <time>2021-08-18T15:22:04Z</time>
      </trkpt>
      <trkpt lat="44.5653" lon="2.6446">
        <ele>452</ele>
        <time>2021-08-18T15:22:06Z</time>
      </trkpt>
      <trkpt lat="44.5653" lon="2.64456">
        <ele>452.4</ele>
        <time>2021-08-18T15:22:08Z</time>
      </trkpt>
      <trkpt lat="44.56529" lon="2.64452">
        <ele>452.9</ele>
        <time>2021-08-18T15:22:10Z</time>
      </trkpt>
      <trkpt lat="44.56528" lon="2.64448">
        <ele>453.3</ele>
        <time>2021-08-18T15:22:12Z</time>
      </trkpt>
      <trkpt lat="44.56528" lon="2.64443">
        <ele>453.8</ele>
        <time>2021-08-18T15:22:14Z</time>
      </trkpt>
      <trkpt lat="44.56527" lon="2.64438">
        <ele>454.4</ele>
        <time>2021-08-18T15:22:16Z</time>
      </trkpt>
      <trkpt lat="44.56527" lon="2.64433">
        <ele>454.9</ele>
        <time>2021-08-18T15:22:18Z</time>
      </trkpt>
      <trkpt lat="44.56526" lon="2.6443">
        <ele>455.3</ele>
        <time>2021-08-18T15:22:20Z</time>
      </trkpt>
      <trkpt lat="44.56525" lon="2.64425">
        <ele>455.8</ele>
        <time>2021-08-18T15:22:22Z</time>
      </trkpt>
      <trkpt lat="44.56524" lon="2.6442">
        <ele>456.3</ele>
        <time>2021-08-18T15:22:24Z</time>
      </trkpt>
      <trkpt lat="44.56524" lon="2.64415">
        <ele>457.1</ele>
        <time>2021-08-18T15:22:26Z</time>
      </trkpt>
      <trkpt lat="44.56523" lon="2.64411">
        <ele>458.5</ele>
        <time>2021-08-18T15:22:28Z</time>
      </trkpt>
      <trkpt lat="44.56522" lon="2.64407">
        <ele>460</ele>
        <time>2021-08-18T15:22:30Z</time>
      </trkpt>
      <trkpt lat="44.56521" lon="2.64402">
        <ele>461.4</ele>
        <time>2021-08-18T15:22:32Z</time>
      </trkpt>
      <trkpt lat="44.5652" lon="2.64397">
        <ele>463</ele>
        <time>2021-08-18T15:22:34Z</time>
      </trkpt>
      <trkpt lat="44.56519" lon="2.64393">
        <ele>464.5</ele>
        <time>2021-08-18T15:22:36Z</time>
      </trkpt>
      <trkpt lat="44.56518" lon="2.64388">
        <ele>465.9</ele>
        <time>2021-08-18T15:22:38Z</time>
      </trkpt>
      <trkpt lat="44.56518" lon="2.64384">
        <ele>467.3</ele>
        <time>2021-08-18T15:22:40Z</time>
      </trkpt>
      <trkpt lat="44.56517" lon="2.6438">
        <ele>468.8</ele>
        <time>2021-08-18T15:22:42Z</time>
      </trkpt>
      <trkpt lat="44.56516" lon="2.64375">
        <ele>470.2</ele>
        <time>2021-08-18T15:22:44Z</time>
      </trkpt>
      <trkpt lat="44.56515" lon="2.64372">
        <ele>471.3</ele>
        <time>2021-08-18T15:22:46Z</time>
      </trkpt>
      <trkpt lat="44.56513" lon="2.64369">
        <ele>472.1</ele>
        <time>2021-08-18T15:22:48Z</time>
      </trkpt>
      <trkpt lat="44.56513" lon="2.64367">
        <ele>473.1</ele>
        <time>2021-08-18T15:22:50Z</time>
      </trkpt>
      <trkpt lat="44.56511" lon="2.64363">
        <ele>474.1</ele>
        <time>2021-08-18T15:22:52Z</time>
      </trkpt>
      <trkpt lat="44.5651" lon="2.64361">
        <ele>475.1</ele>
        <time>2021-08-18T15:22:54Z</time>
      </trkpt>
      <trkpt lat="44.56508" lon="2.64358">
        <ele>476</ele>
        <time>2021-08-18T15:22:56Z</time>
      </trkpt>
      <trkpt lat="44.56506" lon="2.64354">
        <ele>477.2</ele>
        <time>2021-08-18T15:22:58Z</time>
      </trkpt>
      <trkpt lat="44.56504" lon="2.64351">
        <ele>478.1</ele>
        <time>2021-08-18T15:23:00Z</time>
      </trkpt>
      <trkpt lat="44.56502" lon="2.64349">
        <ele>479</ele>
        <time>2021-08-18T15:23:02Z</time>
      </trkpt>
      <trkpt lat="44.56501" lon="2.64345">
        <ele>480.1</ele>
        <time>2021-08-18T15:23:04Z</time>
      </trkpt>
      <trkpt lat="44.56499" lon="2.64343">
        <ele>480.7</ele>
        <time>2021-08-18T15:23:06Z</time>
      </trkpt>
      <trkpt lat="44.56497" lon="2.6434">
        <ele>480.8</ele>
        <time>2021-08-18T15:23:08Z</time>
      </trkpt>
      <trkpt lat="44.56495" lon="2.64337">
        <ele>481.1</ele>
        <time>2021-08-18T15:23:10Z</time>
      </trkpt>
      <trkpt lat="44.56494" lon="2.64334">
        <ele>481.9</ele>
        <time>2021-08-18T15:23:12Z</time>
      </trkpt>
      <trkpt lat="44.56492" lon="2.64332">
        <ele>481.5</ele>
        <time>2021-08-18T15:23:14Z</time>
      </trkpt>
      <trkpt lat="44.5649" lon="2.6433">
        <ele>481.4</ele>
        <time>2021-08-18T15:23:16Z</time>
      </trkpt>
      <trkpt lat="44.56488" lon="2.64327">
        <ele>481.5</ele>
        <time>2021-08-18T15:23:18Z</time>
      </trkpt>
      <trkpt lat="44.56487" lon="2.64325">
        <ele>481.5</ele>
        <time>2021-08-18T15:23:20Z</time>
      </trkpt>
      <trkpt lat="44.56485" lon="2.64322">
        <ele>481.6</ele>
        <time>2021-08-18T15:23:22Z</time>
      </trkpt>
      <trkpt lat="44.56482" lon="2.64319">
        <ele>481.3</ele>
        <time>2021-08-18T15:23:24Z</time>
      </trkpt>
      <trkpt lat="44.56479" lon="2.64317">
        <ele>481.2</ele>
        <time>2021-08-18T15:23:26Z</time>
      </trkpt>
      <trkpt lat="44.56477" lon="2.64316">
        <ele>480.6</ele>
        <time>2021-08-18T15:23:28Z</time>
      </trkpt>
      <trkpt lat="44.56474" lon="2.64313">
        <ele>480.3</ele>
        <time>2021-08-18T15:23:30Z</time>
      </trkpt>
      <trkpt lat="44.56471" lon="2.6431">
        <ele>480.2</ele>
        <time>2021-08-18T15:23:32Z</time>
      </trkpt>
      <trkpt lat="44.56469" lon="2.64308">
        <ele>480.1</ele>
        <time>2021-08-18T15:23:34Z</time>
      </trkpt>
      <trkpt lat="44.56467" lon="2.64305">
        <ele>480.3</ele>
        <time>2021-08-18T15:23:36Z</time>
      </trkpt>
      <trkpt lat="44.56465" lon="2.64303">
        <ele>480.3</ele>
        <time>2021-08-18T15:23:38Z</time>
      </trkpt>
      <trkpt lat="44.56462" lon="2.643">
        <ele>480.3</ele>
        <time>2021-08-18T15:23:40Z</time>
      </trkpt>
      <trkpt lat="44.5646" lon="2.64297">
        <ele>480.2</ele>
        <time>2021-08-18T15:23:42Z</time>
      </trkpt>
      <trkpt lat="44.56458" lon="2.64294">
        <ele>480.3</ele>
        <time>2021-08-18T15:23:44Z</time>
      </trkpt>
      <trkpt lat="44.56456" lon="2.64291">
        <ele>480.5</ele>
        <time>2021-08-18T15:23:46Z</time>
      </trkpt>
      <trkpt lat="44.56454" lon="2.64289">
        <ele>480.7</ele>
        <time>2021-08-18T15:23:48Z</time>
      </trkpt>
      <trkpt lat="44.56451" lon="2.64286">
        <ele>480.8</ele>
        <time>2021-08-18T15:23:50Z</time>
      </trkpt>
      <trkpt lat="44.5645" lon="2.64282">
        <ele>481.4</ele>
        <time>2021-08-18T15:23:52Z</time>
      </trkpt>
      <trkpt lat="44.56448" lon="2.64279">
        <ele>481.6</ele>
        <time>2021-08-18T15:23:54Z</time>
      </trkpt>
      <trkpt lat="44.56447" lon="2.64276">
        <ele>482.3</ele>
        <time>2021-08-18T15:23:56Z</time>
      </trkpt>
      <trkpt lat="44.56445" lon="2.64273">
        <ele>482.7</ele>
        <time>2021-08-18T15:23:58Z</time>
      </trkpt>
      <trkpt lat="44.56444" lon="2.64269">
        <ele>483.5</ele>
        <time>2021-08-18T15:24:00Z</time>
      </trkpt>
      <trkpt lat="44.56442" lon="2.64265">
        <ele>484.1</ele>
        <time>2021-08-18T15:24:02Z</time>
      </trkpt>
      <trkpt lat="44.56441" lon="2.64261">
        <ele>484.8</ele>
        <time>2021-08-18T15:24:04Z</time>
      </trkpt>
      <trkpt lat="44.5644" lon="2.64258">
        <ele>485.5</ele>
        <time>2021-08-18T15:24:06Z</time>
      </trkpt>
      <trkpt lat="44.56438" lon="2.64254">
        <ele>486.1</ele>
        <time>2021-08-18T15:24:08Z</time>
      </trkpt>
      <trkpt lat="44.56437" lon="2.64251">
        <ele>486.8</ele>
        <time>2021-08-18T15:24:10Z</time>
      </trkpt>
      <trkpt lat="44.56436" lon="2.64247">
        <ele>487.2</ele>
        <time>2021-08-18T15:24:12Z</time>
      </trkpt>
      <trkpt lat="44.56435" lon="2.64244">
        <ele>487.3</ele>
        <time>2021-08-18T15:24:14Z</time>
      </trkpt>
      <trkpt lat="44.56434" lon="2.6424">
        <ele>487.7</ele>
        <time>2021-08-18T15:24:16Z</time>
      </trkpt>
      <trkpt lat="44.56433" lon="2.64237">
        <ele>487.9</ele>
        <time>2021-08-18T15:24:18Z</time>
      </trkpt>
      <trkpt lat="44.56432" lon="2.64233">
        <ele>488.1</ele>
        <time>2021-08-18T15:24:20Z</time>
      </trkpt>
      <trkpt lat="44.56431" lon="2.64229">
        <ele>488.3</ele>
        <time>2021-08-18T15:24:22Z</time>
      </trkpt>
      <trkpt lat="44.5643" lon="2.64225">
        <ele>488.6</ele>
        <time>2021-08-18T15:24:24Z</time>
      </trkpt>
      <trkpt lat="44.56429" lon="2.64222">
        <ele>488.8</ele>
        <time>2021-08-18T15:24:26Z</time>
      </trkpt>
      <trkpt lat="44.56428" lon="2.64218">
        <ele>489</ele>
        <time>2021-08-18T15:24:28Z</time>
      </trkpt>
      <trkpt lat="44.56427" lon="2.64214">
        <ele>489.3</ele>
        <time>2021-08-18T15:24:30Z</time>
      </trkpt>
      <trkpt lat="44.56426" lon="2.64211">
        <ele>489.5</ele>
        <time>2021-08-18T15:24:32Z</time>
      </trkpt>
      <trkpt lat="44.56425" lon="2.64207">
        <ele>489.8</ele>
        <time>2021-08-18T15:24:34Z</time>
      </trkpt>
      <trkpt lat="44.56424" lon="2.64203">
        <ele>490.1</ele>
        <time>2021-08-18T15:24:36Z</time>
      </trkpt>
      <trkpt lat="44.56423" lon="2.64198">
        <ele>490.5</ele>
        <time>2021-08-18T15:24:38Z</time>
      </trkpt>
      <trkpt lat="44.56423" lon="2.64195">
        <ele>490.8</ele>
        <time>2021-08-18T15:24:40Z</time>
      </trkpt>
      <trkpt lat="44.56423" lon="2.64191">
        <ele>491.3</ele>
        <time>2021-08-18T15:24:42Z</time>
      </trkpt>
      <trkpt lat="44.56423" lon="2.64187">
        <ele>491.8</ele>
        <time>2021-08-18T15:24:44Z</time>
      </trkpt>
      <trkpt lat="44.56423" lon="2.64183">
        <ele>492.3</ele>
        <time>2021-08-18T15:24:46Z</time>
      </trkpt>
      <trkpt lat="44.56423" lon="2.6418">
        <ele>492.8</ele>
        <time>2021-08-18T15:24:48Z</time>
      </trkpt>
      <trkpt lat="44.56423" lon="2.64176">
        <ele>493.3</ele>
        <time>2021-08-18T15:24:50Z</time>
      </trkpt>
      <trkpt lat="44.56423" lon="2.64173">
        <ele>493.9</ele>
        <time>2021-08-18T15:24:52Z</time>
      </trkpt>
      <trkpt lat="44.56424" lon="2.64169">
        <ele>494.6</ele>
        <time>2021-08-18T15:24:54Z</time>
      </trkpt>
      <trkpt lat="44.56424" lon="2.64165">
        <ele>494.9</ele>
        <time>2021-08-18T15:24:56Z</time>
      </trkpt>
      <trkpt lat="44.56425" lon="2.64161">
        <ele>495</ele>
        <time>2021-08-18T15:24:58Z</time>
      </trkpt>
      <trkpt lat="44.56426" lon="2.64157">
        <ele>495.1</ele>
        <time>2021-08-18T15:25:00Z</time>
      </trkpt>
      <trkpt lat="44.56426" lon="2.64153">
        <ele>495.1</ele>
        <time>2021-08-18T15:25:02Z</time>
      </trkpt>
      <trkpt lat="44.56427" lon="2.64149">
        <ele>495.2</ele>
        <time>2021-08-18T15:25:04Z</time>
      </trkpt>
      <trkpt lat="44.56428" lon="2.64146">
        <ele>495.4</ele>
        <time>2021-08-18T15:25:06Z</time>
      </trkpt>
      <trkpt lat="44.56428" lon="2.64142">
        <ele>495.4</ele>
        <time>2021-08-18T15:25:08Z</time>
      </trkpt>
      <trkpt lat="44.56429" lon="2.64138">
        <ele>495.5</ele>
        <time>2021-08-18T15:25:10Z</time>
      </trkpt>
      <trkpt lat="44.56429" lon="2.64135">
        <ele>495.6</ele>
        <time>2021-08-18T15:25:12Z</time>
      </trkpt>
      <trkpt lat="44.5643" lon="2.64131">
        <ele>495.7</ele>
        <time>2021-08-18T15:25:14Z</time>
      </trkpt>
      <trkpt lat="44.56431" lon="2.64127">
        <ele>496</ele>
        <time>2021-08-18T15:25:16Z</time>
      </trkpt>
      <trkpt lat="44.56432" lon="2.64124">
        <ele>496</ele>
        <time>2021-08-18T15:25:18Z</time>
      </trkpt>
      <trkpt lat="44.56432" lon="2.6412">
        <ele>496.1</ele>
        <time>2021-08-18T15:25:20Z</time>
      </trkpt>
      <trkpt lat="44.56433" lon="2.64116">
        <ele>496.3</ele>
        <time>2021-08-18T15:25:22Z</time>
      </trkpt>
      <trkpt lat="44.56434" lon="2.64113">
        <ele>496.5</ele>
        <time>2021-08-18T15:25:24Z</time>
      </trkpt>
      <trkpt lat="44.56434" lon="2.64109">
        <ele>496.5</ele>
        <time>2021-08-18T15:25:26Z</time>
      </trkpt>
      <trkpt lat="44.56435" lon="2.64104">
        <ele>496.8</ele>
        <time>2021-08-18T15:25:28Z</time>
      </trkpt>
      <trkpt lat="44.56436" lon="2.64102">
        <ele>496.9</ele>
        <time>2021-08-18T15:25:30Z</time>
      </trkpt>
      <trkpt lat="44.56437" lon="2.64098">
        <ele>497.2</ele>
        <time>2021-08-18T15:25:32Z</time>
      </trkpt>
      <trkpt lat="44.56438" lon="2.64094">
        <ele>497.4</ele>
        <time>2021-08-18T15:25:34Z</time>
      </trkpt>
      <trkpt lat="44.56439" lon="2.64091">
        <ele>497.7</ele>
        <time>2021-08-18T15:25:36Z</time>
      </trkpt>
      <trkpt lat="44.56441" lon="2.64087">
        <ele>497.9</ele>
        <time>2021-08-18T15:25:38Z</time>
      </trkpt>
      <trkpt lat="44.56442" lon="2.64083">
        <ele>498.2</ele>
        <time>2021-08-18T15:25:40Z</time>
      </trkpt>
      <trkpt lat="44.56443" lon="2.64079">
        <ele>498.2</ele>
        <time>2021-08-18T15:25:42Z</time>
      </trkpt>
      <trkpt lat="44.56444" lon="2.64076">
        <ele>498.5</ele>
        <time>2021-08-18T15:25:44Z</time>
      </trkpt>
      <trkpt lat="44.56446" lon="2.64073">
        <ele>498.7</ele>
        <time>2021-08-18T15:25:46Z</time>
      </trkpt>
      <trkpt lat="44.56447" lon="2.6407">
        <ele>498.9</ele>
        <time>2021-08-18T15:25:48Z</time>
      </trkpt>
      <trkpt lat="44.56448" lon="2.64066">
        <ele>499</ele>
        <time>2021-08-18T15:25:50Z</time>
      </trkpt>
      <trkpt lat="44.5645" lon="2.64063">
        <ele>499.2</ele>
        <time>2021-08-18T15:25:52Z</time>
      </trkpt>
      <trkpt lat="44.56451" lon="2.64061">
        <ele>499.6</ele>
        <time>2021-08-18T15:25:54Z</time>
      </trkpt>
      <trkpt lat="44.56452" lon="2.64058">
        <ele>499.7</ele>
        <time>2021-08-18T15:25:56Z</time>
      </trkpt>
      <trkpt lat="44.56454" lon="2.64055">
        <ele>499.9</ele>
        <time>2021-08-18T15:25:58Z</time>
      </trkpt>
      <trkpt lat="44.56456" lon="2.64052">
        <ele>500.3</ele>
        <time>2021-08-18T15:26:00Z</time>
      </trkpt>
      <trkpt lat="44.56457" lon="2.64049">
        <ele>500.6</ele>
        <time>2021-08-18T15:26:02Z</time>
      </trkpt>
      <trkpt lat="44.56459" lon="2.64046">
        <ele>500.9</ele>
        <time>2021-08-18T15:26:04Z</time>
      </trkpt>
      <trkpt lat="44.56461" lon="2.64043">
        <ele>501.3</ele>
        <time>2021-08-18T15:26:06Z</time>
      </trkpt>
      <trkpt lat="44.56462" lon="2.6404">
        <ele>501.7</ele>
        <time>2021-08-18T15:26:08Z</time>
      </trkpt>
      <trkpt lat="44.56464" lon="2.64037">
        <ele>502</ele>
        <time>2021-08-18T15:26:10Z</time>
      </trkpt>
      <trkpt lat="44.56465" lon="2.64034">
        <ele>502.3</ele>
        <time>2021-08-18T15:26:12Z</time>
      </trkpt>
      <trkpt lat="44.56467" lon="2.64031">
        <ele>502.6</ele>
        <time>2021-08-18T15:26:14Z</time>
      </trkpt>
      <trkpt lat="44.56469" lon="2.64028">
        <ele>503.1</ele>
        <time>2021-08-18T15:26:16Z</time>
      </trkpt>
      <trkpt lat="44.56471" lon="2.64025">
        <ele>503.5</ele>
        <time>2021-08-18T15:26:18Z</time>
      </trkpt>
      <trkpt lat="44.56472" lon="2.64022">
        <ele>503.9</ele>
        <time>2021-08-18T15:26:20Z</time>
      </trkpt>
      <trkpt lat="44.56474" lon="2.64019">
        <ele>504.3</ele>
        <time>2021-08-18T15:26:22Z</time>
      </trkpt>
      <trkpt lat="44.56475" lon="2.64016">
        <ele>504.6</ele>
        <time>2021-08-18T15:26:24Z</time>
      </trkpt>
      <trkpt lat="44.56477" lon="2.64013">
        <ele>504.9</ele>
        <time>2021-08-18T15:26:26Z</time>
      </trkpt>
      <trkpt lat="44.56479" lon="2.6401">
        <ele>505.3</ele>
        <time>2021-08-18T15:26:28Z</time>
      </trkpt>
      <trkpt lat="44.5648" lon="2.64007">
        <ele>505.6</ele>
        <time>2021-08-18T15:26:30Z</time>
      </trkpt>
      <trkpt lat="44.56481" lon="2.64004">
        <ele>505.9</ele>
        <time>2021-08-18T15:26:32Z</time>
      </trkpt>
      <trkpt lat="44.56483" lon="2.64001">
        <ele>506.2</ele>
        <time>2021-08-18T15:26:34Z</time>
      </trkpt>
      <trkpt lat="44.56484" lon="2.63999">
        <ele>506.7</ele>
        <time>2021-08-18T15:26:36Z</time>
      </trkpt>
      <trkpt lat="44.56486" lon="2.63996">
        <ele>507.2</ele>
        <time>2021-08-18T15:26:38Z</time>
      </trkpt>
      <trkpt lat="44.56488" lon="2.63993">
        <ele>507.7</ele>
        <time>2021-08-18T15:26:40Z</time>
      </trkpt>
      <trkpt lat="44.56489" lon="2.6399">
        <ele>508.2</ele>
        <time>2021-08-18T15:26:42Z</time>
      </trkpt>
      <trkpt lat="44.56491" lon="2.63987">
        <ele>508.7</ele>
        <time>2021-08-18T15:26:44Z</time>
      </trkpt>
      <trkpt lat="44.56493" lon="2.63984">
        <ele>509.3</ele>
        <time>2021-08-18T15:26:46Z</time>
      </trkpt>
      <trkpt lat="44.56494" lon="2.63981">
        <ele>509.8</ele>
        <time>2021-08-18T15:26:48Z</time>
      </trkpt>
      <trkpt lat="44.56496" lon="2.63978">
        <ele>510.3</ele>
        <time>2021-08-18T15:26:50Z</time>
      </trkpt>
      <trkpt lat="44.56498" lon="2.63974">
        <ele>511</ele>
        <time>2021-08-18T15:26:52Z</time>
      </trkpt>
      <trkpt lat="44.565" lon="2.63971">
        <ele>511.6</ele>
        <time>2021-08-18T15:26:54Z</time>
      </trkpt>
      <trkpt lat="44.56502" lon="2.63968">
        <ele>511.8</ele>
        <time>2021-08-18T15:26:56Z</time>
      </trkpt>
      <trkpt lat="44.56504" lon="2.63964">
        <ele>512</ele>
        <time>2021-08-18T15:26:58Z</time>
      </trkpt>
      <trkpt lat="44.56505" lon="2.63961">
        <ele>512.1</ele>
        <time>2021-08-18T15:27:00Z</time>
      </trkpt>
      <trkpt lat="44.56507" lon="2.63957">
        <ele>512.2</ele>
        <time>2021-08-18T15:27:02Z</time>
      </trkpt>
      <trkpt lat="44.56508" lon="2.63953">
        <ele>512.4</ele>
        <time>2021-08-18T15:27:04Z</time>
      </trkpt>
      <trkpt lat="44.5651" lon="2.63949">
        <ele>512.5</ele>
        <time>2021-08-18T15:27:06Z</time>
      </trkpt>
      <trkpt lat="44.56512" lon="2.63946">
        <ele>512.8</ele>
        <time>2021-08-18T15:27:08Z</time>
      </trkpt>
      <trkpt lat="44.56513" lon="2.63943">
        <ele>512.9</ele>
        <time>2021-08-18T15:27:10Z</time>
      </trkpt>
      <trkpt lat="44.56514" lon="2.63938">
        <ele>513</ele>
        <time>2021-08-18T15:27:12Z</time>
      </trkpt>
      <trkpt lat="44.56515" lon="2.63934">
        <ele>513.2</ele>
        <time>2021-08-18T15:27:14Z</time>
      </trkpt>
      <trkpt lat="44.56516" lon="2.6393">
        <ele>513.3</ele>
        <time>2021-08-18T15:27:16Z</time>
      </trkpt>
      <trkpt lat="44.56516" lon="2.63926">
        <ele>513.3</ele>
        <time>2021-08-18T15:27:18Z</time>
      </trkpt>
      <trkpt lat="44.56517" lon="2.63921">
        <ele>513.4</ele>
        <time>2021-08-18T15:27:20Z</time>
      </trkpt>
      <trkpt lat="44.56517" lon="2.63917">
        <ele>513.4</ele>
        <time>2021-08-18T15:27:22Z</time>
      </trkpt>
      <trkpt lat="44.56517" lon="2.63913">
        <ele>513.6</ele>
        <time>2021-08-18T15:27:24Z</time>
      </trkpt>
      <trkpt lat="44.56518" lon="2.63909">
        <ele>513.7</ele>
        <time>2021-08-18T15:27:26Z</time>
      </trkpt>
      <trkpt lat="44.56517" lon="2.63905">
        <ele>513.8</ele>
        <time>2021-08-18T15:27:28Z</time>
      </trkpt>
      <trkpt lat="44.56518" lon="2.639">
        <ele>514</ele>
        <time>2021-08-18T15:27:30Z</time>
      </trkpt>
      <trkpt lat="44.56518" lon="2.63896">
        <ele>514.2</ele>
        <time>2021-08-18T15:27:32Z</time>
      </trkpt>
      <trkpt lat="44.56518" lon="2.63892">
        <ele>514.2</ele>
        <time>2021-08-18T15:27:34Z</time>
      </trkpt>
      <trkpt lat="44.56519" lon="2.63888">
        <ele>514.4</ele>
        <time>2021-08-18T15:27:36Z</time>
      </trkpt>
      <trkpt lat="44.56518" lon="2.63883">
        <ele>514.5</ele>
        <time>2021-08-18T15:27:38Z</time>
      </trkpt>
      <trkpt lat="44.56519" lon="2.63879">
        <ele>514.7</ele>
        <time>2021-08-18T15:27:40Z</time>
      </trkpt>
      <trkpt lat="44.56519" lon="2.63875">
        <ele>514.9</ele>
        <time>2021-08-18T15:27:42Z</time>
      </trkpt>
      <trkpt lat="44.56519" lon="2.63871">
        <ele>515</ele>
        <time>2021-08-18T15:27:44Z</time>
      </trkpt>
      <trkpt lat="44.56519" lon="2.63866">
        <ele>515.1</ele>
        <time>2021-08-18T15:27:46Z</time>
      </trkpt>
      <trkpt lat="44.56519" lon="2.63862">
        <ele>515.2</ele>
        <time>2021-08-18T15:27:48Z</time>
      </trkpt>
      <trkpt lat="44.56519" lon="2.63858">
        <ele>515.4</ele>
        <time>2021-08-18T15:27:50Z</time>
      </trkpt>
      <trkpt lat="44.56519" lon="2.63854">
        <ele>515.5</ele>
        <time>2021-08-18T15:27:52Z</time>
      </trkpt>
      <trkpt lat="44.5652" lon="2.6385">
        <ele>515.6</ele>
        <time>2021-08-18T15:27:54Z</time>
      </trkpt>
      <trkpt lat="44.56519" lon="2.63846">
        <ele>515.7</ele>
        <time>2021-08-18T15:27:56Z</time>
      </trkpt>
      <trkpt lat="44.56519" lon="2.63842">
        <ele>515.8</ele>
        <time>2021-08-18T15:27:58Z</time>
      </trkpt>
      <trkpt lat="44.56519" lon="2.63838">
        <ele>515.9</ele>
        <time>2021-08-18T15:28:00Z</time>
      </trkpt>
      <trkpt lat="44.56519" lon="2.63834">
        <ele>516</ele>
        <time>2021-08-18T15:28:02Z</time>
      </trkpt>
      <trkpt lat="44.56519" lon="2.6383">
        <ele>516.3</ele>
        <time>2021-08-18T15:28:04Z</time>
      </trkpt>
      <trkpt lat="44.56519" lon="2.63825">
        <ele>516.6</ele>
        <time>2021-08-18T15:28:06Z</time>
      </trkpt>
      <trkpt lat="44.56519" lon="2.63821">
        <ele>516.9</ele>
        <time>2021-08-18T15:28:08Z</time>
      </trkpt>
      <trkpt lat="44.56518" lon="2.63817">
        <ele>517.3</ele>
        <time>2021-08-18T15:28:10Z</time>
      </trkpt>
      <trkpt lat="44.56519" lon="2.63813">
        <ele>517.6</ele>
        <time>2021-08-18T15:28:12Z</time>
      </trkpt>
      <trkpt lat="44.56519" lon="2.63809">
        <ele>518</ele>
        <time>2021-08-18T15:28:14Z</time>
      </trkpt>
      <trkpt lat="44.56519" lon="2.63805">
        <ele>518.3</ele>
        <time>2021-08-18T15:28:16Z</time>
      </trkpt>
      <trkpt lat="44.56519" lon="2.63801">
        <ele>518.7</ele>
        <time>2021-08-18T15:28:18Z</time>
      </trkpt>
      <trkpt lat="44.5652" lon="2.63797">
        <ele>519.1</ele>
        <time>2021-08-18T15:28:20Z</time>
      </trkpt>
      <trkpt lat="44.56519" lon="2.63793">
        <ele>519.4</ele>
        <time>2021-08-18T15:28:22Z</time>
      </trkpt>
      <trkpt lat="44.5652" lon="2.6379">
        <ele>519.8</ele>
        <time>2021-08-18T15:28:24Z</time>
      </trkpt>
      <trkpt lat="44.5652" lon="2.63786">
        <ele>520.1</ele>
        <time>2021-08-18T15:28:26Z</time>
      </trkpt>
      <trkpt lat="44.5652" lon="2.63783">
        <ele>520.4</ele>
        <time>2021-08-18T15:28:28Z</time>
      </trkpt>
      <trkpt lat="44.5652" lon="2.63779">
        <ele>520.7</ele>
        <time>2021-08-18T15:28:30Z</time>
      </trkpt>
      <trkpt lat="44.56521" lon="2.63775">
        <ele>521.2</ele>
        <time>2021-08-18T15:28:32Z</time>
      </trkpt>
      <trkpt lat="44.56521" lon="2.63771">
        <ele>521.5</ele>
        <time>2021-08-18T15:28:34Z</time>
      </trkpt>
      <trkpt lat="44.56521" lon="2.63768">
        <ele>521.8</ele>
        <time>2021-08-18T15:28:36Z</time>
      </trkpt>
      <trkpt lat="44.56521" lon="2.63764">
        <ele>522.1</ele>
        <time>2021-08-18T15:28:38Z</time>
      </trkpt>
      <trkpt lat="44.56521" lon="2.63761">
        <ele>522.4</ele>
        <time>2021-08-18T15:28:40Z</time>
      </trkpt>
      <trkpt lat="44.56522" lon="2.63758">
        <ele>522.8</ele>
        <time>2021-08-18T15:28:42Z</time>
      </trkpt>
      <trkpt lat="44.56522" lon="2.63755">
        <ele>523.1</ele>
        <time>2021-08-18T15:28:44Z</time>
      </trkpt>
      <trkpt lat="44.56524" lon="2.63752">
        <ele>523.5</ele>
        <time>2021-08-18T15:28:46Z</time>
      </trkpt>
      <trkpt lat="44.56524" lon="2.63752">
        <ele>523.5</ele>
        <time>2021-08-18T15:28:48Z</time>
      </trkpt>
      <trkpt lat="44.56524" lon="2.63752">
        <ele>523.5</ele>
        <time>2021-08-18T15:28:50Z</time>
      </trkpt>
      <trkpt lat="44.56523" lon="2.63752">
        <ele>523.5</ele>
        <time>2021-08-18T15:28:52Z</time>
      </trkpt>
      <trkpt lat="44.56523" lon="2.63752">
        <ele>523.5</ele>
        <time>2021-08-18T15:28:54Z</time>
      </trkpt>
      <trkpt lat="44.5652" lon="2.63679">
        <ele>530.4</ele>
        <time>2021-08-18T15:47:34Z</time>
      </trkpt>
      <trkpt lat="44.5652" lon="2.63676">
        <ele>530.7</ele>
        <time>2021-08-18T15:47:36Z</time>
      </trkpt>
      <trkpt lat="44.5652" lon="2.63673">
        <ele>531.1</ele>
        <time>2021-08-18T15:47:38Z</time>
      </trkpt>
      <trkpt lat="44.5652" lon="2.63669">
        <ele>531.5</ele>
        <time>2021-08-18T15:47:40Z</time>
      </trkpt>
      <trkpt lat="44.5652" lon="2.63665">
        <ele>531.9</ele>
        <time>2021-08-18T15:47:42Z</time>
      </trkpt>
      <trkpt lat="44.5652" lon="2.63662">
        <ele>532.2</ele>
        <time>2021-08-18T15:47:44Z</time>
      </trkpt>
      <trkpt lat="44.56521" lon="2.63658">
        <ele>532.7</ele>
        <time>2021-08-18T15:47:46Z</time>
      </trkpt>
      <trkpt lat="44.56521" lon="2.63654">
        <ele>533.1</ele>
        <time>2021-08-18T15:47:48Z</time>
      </trkpt>
      <trkpt lat="44.56522" lon="2.63651">
        <ele>533.5</ele>
        <time>2021-08-18T15:47:50Z</time>
      </trkpt>
      <trkpt lat="44.56522" lon="2.63648">
        <ele>533.9</ele>
        <time>2021-08-18T15:47:52Z</time>
      </trkpt>
      <trkpt lat="44.56523" lon="2.63644">
        <ele>534.3</ele>
        <time>2021-08-18T15:47:54Z</time>
      </trkpt>
      <trkpt lat="44.56524" lon="2.63641">
        <ele>534.7</ele>
        <time>2021-08-18T15:47:56Z</time>
      </trkpt>
      <trkpt lat="44.56525" lon="2.63637">
        <ele>535.1</ele>
        <time>2021-08-18T15:47:58Z</time>
      </trkpt>
      <trkpt lat="44.56525" lon="2.63634">
        <ele>535.4</ele>
        <time>2021-08-18T15:48:00Z</time>
      </trkpt>
      <trkpt lat="44.56525" lon="2.63631">
        <ele>535.7</ele>
        <time>2021-08-18T15:48:02Z</time>
      </trkpt>
      <trkpt lat="44.56524" lon="2.63627">
        <ele>536.1</ele>
        <time>2021-08-18T15:48:04Z</time>
      </trkpt>
      <trkpt lat="44.56524" lon="2.63624">
        <ele>536.4</ele>
        <time>2021-08-18T15:48:06Z</time>
      </trkpt>
      <trkpt lat="44.56524" lon="2.63621">
        <ele>536.7</ele>
        <time>2021-08-18T15:48:08Z</time>
      </trkpt>
      <trkpt lat="44.56523" lon="2.63618">
        <ele>537</ele>
        <time>2021-08-18T15:48:10Z</time>
      </trkpt>
      <trkpt lat="44.56523" lon="2.63615">
        <ele>537.3</ele>
        <time>2021-08-18T15:48:12Z</time>
      </trkpt>
      <trkpt lat="44.56523" lon="2.63611">
        <ele>537.6</ele>
        <time>2021-08-18T15:48:14Z</time>
      </trkpt>
      <trkpt lat="44.56523" lon="2.63608">
        <ele>538</ele>
        <time>2021-08-18T15:48:16Z</time>
      </trkpt>
      <trkpt lat="44.56522" lon="2.63606">
        <ele>538.2</ele>
        <time>2021-08-18T15:48:18Z</time>
      </trkpt>
      <trkpt lat="44.56522" lon="2.63603">
        <ele>538.5</ele>
        <time>2021-08-18T15:48:20Z</time>
      </trkpt>
      <trkpt lat="44.56522" lon="2.63599">
        <ele>538.8</ele>
        <time>2021-08-18T15:48:22Z</time>
      </trkpt>
      <trkpt lat="44.56521" lon="2.63596">
        <ele>539.2</ele>
        <time>2021-08-18T15:48:24Z</time>
      </trkpt>
      <trkpt lat="44.5652" lon="2.63593">
        <ele>539.5</ele>
        <time>2021-08-18T15:48:26Z</time>
      </trkpt>
      <trkpt lat="44.56519" lon="2.6359">
        <ele>539.8</ele>
        <time>2021-08-18T15:48:28Z</time>
      </trkpt>
      <trkpt lat="44.56518" lon="2.63587">
        <ele>540.1</ele>
        <time>2021-08-18T15:48:30Z</time>
      </trkpt>
      <trkpt lat="44.56517" lon="2.63584">
        <ele>540.4</ele>
        <time>2021-08-18T15:48:32Z</time>
      </trkpt>
      <trkpt lat="44.56516" lon="2.63581">
        <ele>540.9</ele>
        <time>2021-08-18T15:48:34Z</time>
      </trkpt>
      <trkpt lat="44.56515" lon="2.63577">
        <ele>541.6</ele>
        <time>2021-08-18T15:48:36Z</time>
      </trkpt>
      <trkpt lat="44.56514" lon="2.63574">
        <ele>542.2</ele>
        <time>2021-08-18T15:48:38Z</time>
      </trkpt>
      <trkpt lat="44.56513" lon="2.63571">
        <ele>542.8</ele>
        <time>2021-08-18T15:48:40Z</time>
      </trkpt>
      <trkpt lat="44.56512" lon="2.63569">
        <ele>543.3</ele>
        <time>2021-08-18T15:48:42Z</time>
      </trkpt>
      <trkpt lat="44.5651" lon="2.63566">
        <ele>543.9</ele>
        <time>2021-08-18T15:48:44Z</time>
      </trkpt>
      <trkpt lat="44.56509" lon="2.63562">
        <ele>544.5</ele>
        <time>2021-08-18T15:48:46Z</time>
      </trkpt>
      <trkpt lat="44.56508" lon="2.63559">
        <ele>545.2</ele>
        <time>2021-08-18T15:48:48Z</time>
      </trkpt>
      <trkpt lat="44.56507" lon="2.63556">
        <ele>545.8</ele>
        <time>2021-08-18T15:48:50Z</time>
      </trkpt>
      <trkpt lat="44.56505" lon="2.63554">
        <ele>546.4</ele>
        <time>2021-08-18T15:48:52Z</time>
      </trkpt>
      <trkpt lat="44.56504" lon="2.63551">
        <ele>547</ele>
        <time>2021-08-18T15:48:54Z</time>
      </trkpt>
      <trkpt lat="44.56503" lon="2.63548">
        <ele>547.6</ele>
        <time>2021-08-18T15:48:56Z</time>
      </trkpt>
      <trkpt lat="44.56503" lon="2.63545">
        <ele>548.3</ele>
        <time>2021-08-18T15:48:58Z</time>
      </trkpt>
      <trkpt lat="44.56501" lon="2.63542">
        <ele>548.9</ele>
        <time>2021-08-18T15:49:00Z</time>
      </trkpt>
      <trkpt lat="44.565" lon="2.63539">
        <ele>549.5</ele>
        <time>2021-08-18T15:49:02Z</time>
      </trkpt>
      <trkpt lat="44.56499" lon="2.63536">
        <ele>550</ele>
        <time>2021-08-18T15:49:04Z</time>
      </trkpt>
      <trkpt lat="44.56497" lon="2.63532">
        <ele>550.3</ele>
        <time>2021-08-18T15:49:06Z</time>
      </trkpt>
      <trkpt lat="44.56496" lon="2.63529">
        <ele>550.6</ele>
        <time>2021-08-18T15:49:08Z</time>
      </trkpt>
      <trkpt lat="44.56495" lon="2.63526">
        <ele>551.1</ele>
        <time>2021-08-18T15:49:10Z</time>
      </trkpt>
      <trkpt lat="44.56494" lon="2.63522">
        <ele>551.6</ele>
        <time>2021-08-18T15:49:12Z</time>
      </trkpt>
      <trkpt lat="44.56493" lon="2.63519">
        <ele>552</ele>
        <time>2021-08-18T15:49:14Z</time>
      </trkpt>
      <trkpt lat="44.56491" lon="2.63516">
        <ele>552.4</ele>
        <time>2021-08-18T15:49:16Z</time>
      </trkpt>
      <trkpt lat="44.56489" lon="2.63513">
        <ele>552.7</ele>
        <time>2021-08-18T15:49:18Z</time>
      </trkpt>
      <trkpt lat="44.56488" lon="2.63509">
        <ele>553.1</ele>
        <time>2021-08-18T15:49:20Z</time>
      </trkpt>
      <trkpt lat="44.56487" lon="2.63506">
        <ele>553.5</ele>
        <time>2021-08-18T15:49:22Z</time>
      </trkpt>
      <trkpt lat="44.56485" lon="2.63503">
        <ele>553.9</ele>
        <time>2021-08-18T15:49:24Z</time>
      </trkpt>
      <trkpt lat="44.56484" lon="2.63499">
        <ele>554.3</ele>
        <time>2021-08-18T15:49:26Z</time>
      </trkpt>
      <trkpt lat="44.56483" lon="2.63496">
        <ele>554.4</ele>
        <time>2021-08-18T15:49:28Z</time>
      </trkpt>
      <trkpt lat="44.56482" lon="2.63493">
        <ele>554.6</ele>
        <time>2021-08-18T15:49:30Z</time>
      </trkpt>
      <trkpt lat="44.56481" lon="2.63489">
        <ele>554.8</ele>
        <time>2021-08-18T15:49:32Z</time>
      </trkpt>
      <trkpt lat="44.56479" lon="2.63486">
        <ele>554.8</ele>
        <time>2021-08-18T15:49:34Z</time>
      </trkpt>
      <trkpt lat="44.56478" lon="2.63483">
        <ele>554.9</ele>
        <time>2021-08-18T15:49:36Z</time>
      </trkpt>
      <trkpt lat="44.56476" lon="2.63481">
        <ele>554.8</ele>
        <time>2021-08-18T15:49:38Z</time>
      </trkpt>
      <trkpt lat="44.56475" lon="2.63477">
        <ele>554.9</ele>
        <time>2021-08-18T15:49:40Z</time>
      </trkpt>
      <trkpt lat="44.56474" lon="2.63473">
        <ele>555.3</ele>
        <time>2021-08-18T15:49:42Z</time>
      </trkpt>
      <trkpt lat="44.56473" lon="2.6347">
        <ele>555.4</ele>
        <time>2021-08-18T15:49:44Z</time>
      </trkpt>
      <trkpt lat="44.56471" lon="2.63467">
        <ele>555.5</ele>
        <time>2021-08-18T15:49:46Z</time>
      </trkpt>
      <trkpt lat="44.56471" lon="2.63464">
        <ele>555.7</ele>
        <time>2021-08-18T15:49:48Z</time>
      </trkpt>
      <trkpt lat="44.5647" lon="2.6346">
        <ele>556.1</ele>
        <time>2021-08-18T15:49:50Z</time>
      </trkpt>
      <trkpt lat="44.56469" lon="2.63456">
        <ele>556.3</ele>
        <time>2021-08-18T15:49:52Z</time>
      </trkpt>
      <trkpt lat="44.56468" lon="2.63452">
        <ele>556.6</ele>
        <time>2021-08-18T15:49:54Z</time>
      </trkpt>
      <trkpt lat="44.56466" lon="2.63449">
        <ele>556.7</ele>
        <time>2021-08-18T15:49:56Z</time>
      </trkpt>
      <trkpt lat="44.56465" lon="2.63445">
        <ele>557</ele>
        <time>2021-08-18T15:49:58Z</time>
      </trkpt>
      <trkpt lat="44.56464" lon="2.63441">
        <ele>557.1</ele>
        <time>2021-08-18T15:50:00Z</time>
      </trkpt>
      <trkpt lat="44.56463" lon="2.63438">
        <ele>557.2</ele>
        <time>2021-08-18T15:50:02Z</time>
      </trkpt>
      <trkpt lat="44.56461" lon="2.63435">
        <ele>557.4</ele>
        <time>2021-08-18T15:50:04Z</time>
      </trkpt>
      <trkpt lat="44.5646" lon="2.63431">
        <ele>557.6</ele>
        <time>2021-08-18T15:50:06Z</time>
      </trkpt>
      <trkpt lat="44.56458" lon="2.63428">
        <ele>557.5</ele>
        <time>2021-08-18T15:50:08Z</time>
      </trkpt>
      <trkpt lat="44.56457" lon="2.63425">
        <ele>557.6</ele>
        <time>2021-08-18T15:50:10Z</time>
      </trkpt>
      <trkpt lat="44.56456" lon="2.63421">
        <ele>558</ele>
        <time>2021-08-18T15:50:12Z</time>
      </trkpt>
      <trkpt lat="44.56455" lon="2.63418">
        <ele>558.1</ele>
        <time>2021-08-18T15:50:14Z</time>
      </trkpt>
      <trkpt lat="44.56454" lon="2.63414">
        <ele>558.2</ele>
        <time>2021-08-18T15:50:16Z</time>
      </trkpt>
      <trkpt lat="44.56453" lon="2.63411">
        <ele>558.4</ele>
        <time>2021-08-18T15:50:18Z</time>
      </trkpt>
      <trkpt lat="44.56452" lon="2.63407">
        <ele>558.6</ele>
        <time>2021-08-18T15:50:20Z</time>
      </trkpt>
      <trkpt lat="44.5645" lon="2.63404">
        <ele>558.6</ele>
        <time>2021-08-18T15:50:22Z</time>
      </trkpt>
      <trkpt lat="44.56449" lon="2.634">
        <ele>558.9</ele>
        <time>2021-08-18T15:50:24Z</time>
      </trkpt>
      <trkpt lat="44.56448" lon="2.63397">
        <ele>559.1</ele>
        <time>2021-08-18T15:50:26Z</time>
      </trkpt>
      <trkpt lat="44.56447" lon="2.63393">
        <ele>559.4</ele>
        <time>2021-08-18T15:50:28Z</time>
      </trkpt>
      <trkpt lat="44.56446" lon="2.63389">
        <ele>559.7</ele>
        <time>2021-08-18T15:50:30Z</time>
      </trkpt>
      <trkpt lat="44.56445" lon="2.63386">
        <ele>559.8</ele>
        <time>2021-08-18T15:50:32Z</time>
      </trkpt>
      <trkpt lat="44.56444" lon="2.63382">
        <ele>560.2</ele>
        <time>2021-08-18T15:50:34Z</time>
      </trkpt>
      <trkpt lat="44.56444" lon="2.63379">
        <ele>560.5</ele>
        <time>2021-08-18T15:50:36Z</time>
      </trkpt>
      <trkpt lat="44.56443" lon="2.63375">
        <ele>560.8</ele>
        <time>2021-08-18T15:50:38Z</time>
      </trkpt>
      <trkpt lat="44.56442" lon="2.63372">
        <ele>561</ele>
        <time>2021-08-18T15:50:40Z</time>
      </trkpt>
      <trkpt lat="44.56441" lon="2.63369">
        <ele>561.3</ele>
        <time>2021-08-18T15:50:42Z</time>
      </trkpt>
      <trkpt lat="44.56441" lon="2.63365">
        <ele>561.7</ele>
        <time>2021-08-18T15:50:44Z</time>
      </trkpt>
      <trkpt lat="44.5644" lon="2.63362">
        <ele>562</ele>
        <time>2021-08-18T15:50:46Z</time>
      </trkpt>
      <trkpt lat="44.56439" lon="2.63359">
        <ele>562.2</ele>
        <time>2021-08-18T15:50:48Z</time>
      </trkpt>
      <trkpt lat="44.56439" lon="2.63355">
        <ele>562.6</ele>
        <time>2021-08-18T15:50:50Z</time>
      </trkpt>
      <trkpt lat="44.56438" lon="2.63351">
        <ele>563</ele>
        <time>2021-08-18T15:50:52Z</time>
      </trkpt>
      <trkpt lat="44.56438" lon="2.63348">
        <ele>563.4</ele>
        <time>2021-08-18T15:50:54Z</time>
      </trkpt>
      <trkpt lat="44.56438" lon="2.63345">
        <ele>563.9</ele>
        <time>2021-08-18T15:50:56Z</time>
      </trkpt>
      <trkpt lat="44.56438" lon="2.63341">
        <ele>564.3</ele>
        <time>2021-08-18T15:50:58Z</time>
      </trkpt>
      <trkpt lat="44.56437" lon="2.63337">
        <ele>564.7</ele>
        <time>2021-08-18T15:51:00Z</time>
      </trkpt>
      <trkpt lat="44.56437" lon="2.63334">
        <ele>565.1</ele>
        <time>2021-08-18T15:51:02Z</time>
      </trkpt>
      <trkpt lat="44.56436" lon="2.6333">
        <ele>565.3</ele>
        <time>2021-08-18T15:51:04Z</time>
      </trkpt>
      <trkpt lat="44.56436" lon="2.63326">
        <ele>565.6</ele>
        <time>2021-08-18T15:51:06Z</time>
      </trkpt>
      <trkpt lat="44.56435" lon="2.63322">
        <ele>565.8</ele>
        <time>2021-08-18T15:51:08Z</time>
      </trkpt>
      <trkpt lat="44.56435" lon="2.63319">
        <ele>566</ele>
        <time>2021-08-18T15:51:10Z</time>
      </trkpt>
      <trkpt lat="44.56434" lon="2.63315">
        <ele>566.3</ele>
        <time>2021-08-18T15:51:12Z</time>
      </trkpt>
      <trkpt lat="44.56434" lon="2.63311">
        <ele>566.6</ele>
        <time>2021-08-18T15:51:14Z</time>
      </trkpt>
      <trkpt lat="44.56434" lon="2.63308">
        <ele>566.8</ele>
        <time>2021-08-18T15:51:16Z</time>
      </trkpt>
      <trkpt lat="44.56433" lon="2.63304">
        <ele>567.2</ele>
        <time>2021-08-18T15:51:18Z</time>
      </trkpt>
      <trkpt lat="44.56433" lon="2.633">
        <ele>567.5</ele>
        <time>2021-08-18T15:51:20Z</time>
      </trkpt>
      <trkpt lat="44.56433" lon="2.63296">
        <ele>567.8</ele>
        <time>2021-08-18T15:51:22Z</time>
      </trkpt>
      <trkpt lat="44.56432" lon="2.63292">
        <ele>568.1</ele>
        <time>2021-08-18T15:51:24Z</time>
      </trkpt>
      <trkpt lat="44.56432" lon="2.63289">
        <ele>568.4</ele>
        <time>2021-08-18T15:51:26Z</time>
      </trkpt>
      <trkpt lat="44.56432" lon="2.63285">
        <ele>568.7</ele>
        <time>2021-08-18T15:51:28Z</time>
      </trkpt>
      <trkpt lat="44.56432" lon="2.63281">
        <ele>569</ele>
        <time>2021-08-18T15:51:30Z</time>
      </trkpt>
      <trkpt lat="44.56432" lon="2.63278">
        <ele>569.4</ele>
        <time>2021-08-18T15:51:32Z</time>
      </trkpt>
      <trkpt lat="44.5643" lon="2.63275">
        <ele>569.4</ele>
        <time>2021-08-18T15:51:34Z</time>
      </trkpt>
      <trkpt lat="44.56429" lon="2.63272">
        <ele>569.5</ele>
        <time>2021-08-18T15:51:36Z</time>
      </trkpt>
      <trkpt lat="44.5643" lon="2.63267">
        <ele>570.2</ele>
        <time>2021-08-18T15:51:38Z</time>
      </trkpt>
      <trkpt lat="44.56432" lon="2.63264">
        <ele>570.8</ele>
        <time>2021-08-18T15:51:40Z</time>
      </trkpt>
      <trkpt lat="44.56431" lon="2.6326">
        <ele>571</ele>
        <time>2021-08-18T15:51:42Z</time>
      </trkpt>
      <trkpt lat="44.56431" lon="2.63257">
        <ele>571.2</ele>
        <time>2021-08-18T15:51:44Z</time>
      </trkpt>
      <trkpt lat="44.56432" lon="2.63254">
        <ele>571.7</ele>
        <time>2021-08-18T15:51:46Z</time>
      </trkpt>
      <trkpt lat="44.56433" lon="2.6325">
        <ele>572.2</ele>
        <time>2021-08-18T15:51:48Z</time>
      </trkpt>
      <trkpt lat="44.56432" lon="2.63245">
        <ele>571.9</ele>
        <time>2021-08-18T15:51:50Z</time>
      </trkpt>
      <trkpt lat="44.56433" lon="2.63242">
        <ele>571.8</ele>
        <time>2021-08-18T15:51:52Z</time>
      </trkpt>
      <trkpt lat="44.56435" lon="2.63239">
        <ele>572</ele>
        <time>2021-08-18T15:51:54Z</time>
      </trkpt>
      <trkpt lat="44.56438" lon="2.63237">
        <ele>572.2</ele>
        <time>2021-08-18T15:51:56Z</time>
      </trkpt>
      <trkpt lat="44.56437" lon="2.63232">
        <ele>571.9</ele>
        <time>2021-08-18T15:51:58Z</time>
      </trkpt>
      <trkpt lat="44.56438" lon="2.63228">
        <ele>571.8</ele>
        <time>2021-08-18T15:52:00Z</time>
      </trkpt>
      <trkpt lat="44.56441" lon="2.63227">
        <ele>572.1</ele>
        <time>2021-08-18T15:52:02Z</time>
      </trkpt>
      <trkpt lat="44.56443" lon="2.63228">
        <ele>572.4</ele>
        <time>2021-08-18T15:52:04Z</time>
      </trkpt>
      <trkpt lat="44.56446" lon="2.63227">
        <ele>572.7</ele>
        <time>2021-08-18T15:52:06Z</time>
      </trkpt>
      <trkpt lat="44.56447" lon="2.63224">
        <ele>572.6</ele>
        <time>2021-08-18T15:52:08Z</time>
      </trkpt>
      <trkpt lat="44.5645" lon="2.63222">
        <ele>572.7</ele>
        <time>2021-08-18T15:52:10Z</time>
      </trkpt>
      <trkpt lat="44.56453" lon="2.63224">
        <ele>573.2</ele>
        <time>2021-08-18T15:52:12Z</time>
      </trkpt>
      <trkpt lat="44.56454" lon="2.63227">
        <ele>573.6</ele>
        <time>2021-08-18T15:52:14Z</time>
      </trkpt>
      <trkpt lat="44.56457" lon="2.63228">
        <ele>573.9</ele>
        <time>2021-08-18T15:52:16Z</time>
      </trkpt>
      <trkpt lat="44.56459" lon="2.63231">
        <ele>574.3</ele>
        <time>2021-08-18T15:52:18Z</time>
      </trkpt>
      <trkpt lat="44.56459" lon="2.63235">
        <ele>574.7</ele>
        <time>2021-08-18T15:52:20Z</time>
      </trkpt>
      <trkpt lat="44.56459" lon="2.63239">
        <ele>574.9</ele>
        <time>2021-08-18T15:52:22Z</time>
      </trkpt>
      <trkpt lat="44.56458" lon="2.63243">
        <ele>575.1</ele>
        <time>2021-08-18T15:52:24Z</time>
      </trkpt>
      <trkpt lat="44.56459" lon="2.63247">
        <ele>575.4</ele>
        <time>2021-08-18T15:52:26Z</time>
      </trkpt>
      <trkpt lat="44.5646" lon="2.63251">
        <ele>575.6</ele>
        <time>2021-08-18T15:52:28Z</time>
      </trkpt>
      <trkpt lat="44.56461" lon="2.63254">
        <ele>575.6</ele>
        <time>2021-08-18T15:52:30Z</time>
      </trkpt>
      <trkpt lat="44.56461" lon="2.63258">
        <ele>575.3</ele>
        <time>2021-08-18T15:52:32Z</time>
      </trkpt>
      <trkpt lat="44.5646" lon="2.6326">
        <ele>575</ele>
        <time>2021-08-18T15:52:34Z</time>
      </trkpt>
      <trkpt lat="44.5646" lon="2.6326">
        <ele>575.1</ele>
        <time>2021-08-18T15:52:36Z</time>
      </trkpt>
      <trkpt lat="44.5646" lon="2.6326">
        <ele>575</ele>
        <time>2021-08-18T15:52:38Z</time>
      </trkpt>
      <trkpt lat="44.5646" lon="2.6326">
        <ele>575</ele>
        <time>2021-08-18T15:52:40Z</time>
      </trkpt>
      <trkpt lat="44.5646" lon="2.6326">
        <ele>575.1</ele>
        <time>2021-08-18T15:52:42Z</time>
      </trkpt>
      <trkpt lat="44.56472" lon="2.63261">
        <ele>576.7</ele>
        <time>2021-08-18T15:55:50Z</time>
      </trkpt>
      <trkpt lat="44.56474" lon="2.63257">
        <ele>577.2</ele>
        <time>2021-08-18T15:55:52Z</time>
      </trkpt>
      <trkpt lat="44.56477" lon="2.63256">
        <ele>577.6</ele>
        <time>2021-08-18T15:55:54Z</time>
      </trkpt>
      <trkpt lat="44.56479" lon="2.63255">
        <ele>578</ele>
        <time>2021-08-18T15:55:56Z</time>
      </trkpt>
      <trkpt lat="44.5648" lon="2.63251">
        <ele>578.3</ele>
        <time>2021-08-18T15:55:58Z</time>
      </trkpt>
      <trkpt lat="44.56481" lon="2.63248">
        <ele>578.4</ele>
        <time>2021-08-18T15:56:00Z</time>
      </trkpt>
      <trkpt lat="44.56484" lon="2.63248">
        <ele>578.7</ele>
        <time>2021-08-18T15:56:02Z</time>
      </trkpt>
      <trkpt lat="44.56487" lon="2.63248">
        <ele>579.1</ele>
        <time>2021-08-18T15:56:04Z</time>
      </trkpt>
      <trkpt lat="44.56488" lon="2.63243">
        <ele>578.8</ele>
        <time>2021-08-18T15:56:06Z</time>
      </trkpt>
      <trkpt lat="44.5649" lon="2.63241">
        <ele>578.8</ele>
        <time>2021-08-18T15:56:08Z</time>
      </trkpt>
      <trkpt lat="44.56492" lon="2.6324">
        <ele>578.9</ele>
        <time>2021-08-18T15:56:10Z</time>
      </trkpt>
      <trkpt lat="44.56495" lon="2.63238">
        <ele>579.1</ele>
        <time>2021-08-18T15:56:12Z</time>
      </trkpt>
      <trkpt lat="44.56497" lon="2.63237">
        <ele>579.2</ele>
        <time>2021-08-18T15:56:14Z</time>
      </trkpt>
      <trkpt lat="44.565" lon="2.63235">
        <ele>579.4</ele>
        <time>2021-08-18T15:56:16Z</time>
      </trkpt>
      <trkpt lat="44.56502" lon="2.63235">
        <ele>579.6</ele>
        <time>2021-08-18T15:56:18Z</time>
      </trkpt>
      <trkpt lat="44.56505" lon="2.63234">
        <ele>579.9</ele>
        <time>2021-08-18T15:56:20Z</time>
      </trkpt>
      <trkpt lat="44.56507" lon="2.63232">
        <ele>580.1</ele>
        <time>2021-08-18T15:56:22Z</time>
      </trkpt>
      <trkpt lat="44.5651" lon="2.63232">
        <ele>580.4</ele>
        <time>2021-08-18T15:56:24Z</time>
      </trkpt>
      <trkpt lat="44.56512" lon="2.6323">
        <ele>580.6</ele>
        <time>2021-08-18T15:56:26Z</time>
      </trkpt>
      <trkpt lat="44.56515" lon="2.6323">
        <ele>581</ele>
        <time>2021-08-18T15:56:28Z</time>
      </trkpt>
      <trkpt lat="44.56517" lon="2.63229">
        <ele>581.2</ele>
        <time>2021-08-18T15:56:30Z</time>
      </trkpt>
      <trkpt lat="44.5652" lon="2.63227">
        <ele>581.5</ele>
        <time>2021-08-18T15:56:32Z</time>
      </trkpt>
      <trkpt lat="44.56523" lon="2.63226">
        <ele>581.7</ele>
        <time>2021-08-18T15:56:34Z</time>
      </trkpt>
      <trkpt lat="44.56525" lon="2.63225">
        <ele>582</ele>
        <time>2021-08-18T15:56:36Z</time>
      </trkpt>
      <trkpt lat="44.56528" lon="2.63224">
        <ele>582.3</ele>
        <time>2021-08-18T15:56:38Z</time>
      </trkpt>
      <trkpt lat="44.5653" lon="2.63223">
        <ele>582.6</ele>
        <time>2021-08-18T15:56:40Z</time>
      </trkpt>
      <trkpt lat="44.56533" lon="2.63221">
        <ele>582.7</ele>
        <time>2021-08-18T15:56:42Z</time>
      </trkpt>
      <trkpt lat="44.56535" lon="2.6322">
        <ele>583.1</ele>
        <time>2021-08-18T15:56:44Z</time>
      </trkpt>
      <trkpt lat="44.56538" lon="2.63218">
        <ele>583.2</ele>
        <time>2021-08-18T15:56:46Z</time>
      </trkpt>
      <trkpt lat="44.56541" lon="2.63216">
        <ele>583.5</ele>
        <time>2021-08-18T15:56:48Z</time>
      </trkpt>
      <trkpt lat="44.56544" lon="2.63215">
        <ele>583.9</ele>
        <time>2021-08-18T15:56:50Z</time>
      </trkpt>
      <trkpt lat="44.56547" lon="2.63213">
        <ele>584.2</ele>
        <time>2021-08-18T15:56:52Z</time>
      </trkpt>
      <trkpt lat="44.56549" lon="2.63211">
        <ele>584.4</ele>
        <time>2021-08-18T15:56:54Z</time>
      </trkpt>
      <trkpt lat="44.56552" lon="2.63209">
        <ele>584.7</ele>
        <time>2021-08-18T15:56:56Z</time>
      </trkpt>
      <trkpt lat="44.56555" lon="2.63208">
        <ele>585.1</ele>
        <time>2021-08-18T15:56:58Z</time>
      </trkpt>
      <trkpt lat="44.56558" lon="2.63206">
        <ele>585.4</ele>
        <time>2021-08-18T15:57:00Z</time>
      </trkpt>
      <trkpt lat="44.56561" lon="2.63203">
        <ele>585.7</ele>
        <time>2021-08-18T15:57:02Z</time>
      </trkpt>
      <trkpt lat="44.56565" lon="2.63201">
        <ele>586.1</ele>
        <time>2021-08-18T15:57:04Z</time>
      </trkpt>
      <trkpt lat="44.56568" lon="2.63199">
        <ele>586.4</ele>
        <time>2021-08-18T15:57:06Z</time>
      </trkpt>
      <trkpt lat="44.56571" lon="2.63197">
        <ele>586.9</ele>
        <time>2021-08-18T15:57:08Z</time>
      </trkpt>
      <trkpt lat="44.56575" lon="2.63194">
        <ele>587.3</ele>
        <time>2021-08-18T15:57:10Z</time>
      </trkpt>
      <trkpt lat="44.56578" lon="2.63192">
        <ele>587.7</ele>
        <time>2021-08-18T15:57:12Z</time>
      </trkpt>
      <trkpt lat="44.56582" lon="2.6319">
        <ele>588.2</ele>
        <time>2021-08-18T15:57:14Z</time>
      </trkpt>
      <trkpt lat="44.56585" lon="2.63187">
        <ele>588.6</ele>
        <time>2021-08-18T15:57:16Z</time>
      </trkpt>
      <trkpt lat="44.56589" lon="2.63185">
        <ele>589</ele>
        <time>2021-08-18T15:57:18Z</time>
      </trkpt>
      <trkpt lat="44.56592" lon="2.63183">
        <ele>589.4</ele>
        <time>2021-08-18T15:57:20Z</time>
      </trkpt>
      <trkpt lat="44.56596" lon="2.6318">
        <ele>589.8</ele>
        <time>2021-08-18T15:57:22Z</time>
      </trkpt>
      <trkpt lat="44.56599" lon="2.63177">
        <ele>590.3</ele>
        <time>2021-08-18T15:57:24Z</time>
      </trkpt>
      <trkpt lat="44.56602" lon="2.63174">
        <ele>590.8</ele>
        <time>2021-08-18T15:57:26Z</time>
      </trkpt>
      <trkpt lat="44.56606" lon="2.63171">
        <ele>591.4</ele>
        <time>2021-08-18T15:57:28Z</time>
      </trkpt>
      <trkpt lat="44.56609" lon="2.63167">
        <ele>591.9</ele>
        <time>2021-08-18T15:57:30Z</time>
      </trkpt>
      <trkpt lat="44.56612" lon="2.63163">
        <ele>592.2</ele>
        <time>2021-08-18T15:57:32Z</time>
      </trkpt>
      <trkpt lat="44.56615" lon="2.63159">
        <ele>592.4</ele>
        <time>2021-08-18T15:57:34Z</time>
      </trkpt>
      <trkpt lat="44.56618" lon="2.63155">
        <ele>592.7</ele>
        <time>2021-08-18T15:57:36Z</time>
      </trkpt>
      <trkpt lat="44.56621" lon="2.6315">
        <ele>592.8</ele>
        <time>2021-08-18T15:57:38Z</time>
      </trkpt>
      <trkpt lat="44.56624" lon="2.63146">
        <ele>593</ele>
        <time>2021-08-18T15:57:40Z</time>
      </trkpt>
      <trkpt lat="44.56626" lon="2.63141">
        <ele>593.2</ele>
        <time>2021-08-18T15:57:42Z</time>
      </trkpt>
      <trkpt lat="44.56629" lon="2.63137">
        <ele>593.4</ele>
        <time>2021-08-18T15:57:44Z</time>
      </trkpt>
      <trkpt lat="44.56631" lon="2.63133">
        <ele>593.5</ele>
        <time>2021-08-18T15:57:46Z</time>
      </trkpt>
      <trkpt lat="44.56634" lon="2.63128">
        <ele>593.6</ele>
        <time>2021-08-18T15:57:48Z</time>
      </trkpt>
      <trkpt lat="44.56636" lon="2.63124">
        <ele>593.7</ele>
        <time>2021-08-18T15:57:50Z</time>
      </trkpt>
      <trkpt lat="44.56639" lon="2.63119">
        <ele>593.8</ele>
        <time>2021-08-18T15:57:52Z</time>
      </trkpt>
      <trkpt lat="44.56642" lon="2.63114">
        <ele>594</ele>
        <time>2021-08-18T15:57:54Z</time>
      </trkpt>
      <trkpt lat="44.56645" lon="2.6311">
        <ele>594.3</ele>
        <time>2021-08-18T15:57:56Z</time>
      </trkpt>
      <trkpt lat="44.56647" lon="2.63105">
        <ele>594.5</ele>
        <time>2021-08-18T15:57:58Z</time>
      </trkpt>
      <trkpt lat="44.5665" lon="2.63101">
        <ele>594.7</ele>
        <time>2021-08-18T15:58:00Z</time>
      </trkpt>
      <trkpt lat="44.56653" lon="2.63096">
        <ele>595</ele>
        <time>2021-08-18T15:58:02Z</time>
      </trkpt>
      <trkpt lat="44.56656" lon="2.63091">
        <ele>595.3</ele>
        <time>2021-08-18T15:58:04Z</time>
      </trkpt>
      <trkpt lat="44.56659" lon="2.63087">
        <ele>595.5</ele>
        <time>2021-08-18T15:58:06Z</time>
      </trkpt>
      <trkpt lat="44.56662" lon="2.63082">
        <ele>595.9</ele>
        <time>2021-08-18T15:58:08Z</time>
      </trkpt>
      <trkpt lat="44.56665" lon="2.63077">
        <ele>596.4</ele>
        <time>2021-08-18T15:58:10Z</time>
      </trkpt>
      <trkpt lat="44.56668" lon="2.63072">
        <ele>596.4</ele>
        <time>2021-08-18T15:58:12Z</time>
      </trkpt>
      <trkpt lat="44.56671" lon="2.63068">
        <ele>596</ele>
        <time>2021-08-18T15:58:14Z</time>
      </trkpt>
      <trkpt lat="44.56674" lon="2.63063">
        <ele>595.7</ele>
        <time>2021-08-18T15:58:16Z</time>
      </trkpt>
      <trkpt lat="44.56677" lon="2.63059">
        <ele>595.4</ele>
        <time>2021-08-18T15:58:18Z</time>
      </trkpt>
      <trkpt lat="44.56679" lon="2.63054">
        <ele>595</ele>
        <time>2021-08-18T15:58:20Z</time>
      </trkpt>
      <trkpt lat="44.56682" lon="2.63049">
        <ele>594.7</ele>
        <time>2021-08-18T15:58:22Z</time>
      </trkpt>
      <trkpt lat="44.56685" lon="2.63044">
        <ele>594.4</ele>
        <time>2021-08-18T15:58:24Z</time>
      </trkpt>
      <trkpt lat="44.56688" lon="2.6304">
        <ele>594.2</ele>
        <time>2021-08-18T15:58:26Z</time>
      </trkpt>
      <trkpt lat="44.56691" lon="2.63034">
        <ele>593.9</ele>
        <time>2021-08-18T15:58:28Z</time>
      </trkpt>
      <trkpt lat="44.56694" lon="2.63029">
        <ele>593.6</ele>
        <time>2021-08-18T15:58:30Z</time>
      </trkpt>
      <trkpt lat="44.56697" lon="2.63023">
        <ele>593.3</ele>
        <time>2021-08-18T15:58:32Z</time>
      </trkpt>
      <trkpt lat="44.567" lon="2.63017">
        <ele>593.1</ele>
        <time>2021-08-18T15:58:34Z</time>
      </trkpt>
      <trkpt lat="44.56703" lon="2.63011">
        <ele>592.9</ele>
        <time>2021-08-18T15:58:36Z</time>
      </trkpt>
      <trkpt lat="44.56705" lon="2.63005">
        <ele>592.7</ele>
        <time>2021-08-18T15:58:38Z</time>
      </trkpt>
      <trkpt lat="44.56708" lon="2.62999">
        <ele>592.6</ele>
        <time>2021-08-18T15:58:40Z</time>
      </trkpt>
      <trkpt lat="44.56711" lon="2.62993">
        <ele>593</ele>
        <time>2021-08-18T15:58:42Z</time>
      </trkpt>
      <trkpt lat="44.56713" lon="2.62987">
        <ele>593.5</ele>
        <time>2021-08-18T15:58:44Z</time>
      </trkpt>
      <trkpt lat="44.56715" lon="2.62981">
        <ele>594</ele>
        <time>2021-08-18T15:58:46Z</time>
      </trkpt>
      <trkpt lat="44.56717" lon="2.62975">
        <ele>594.5</ele>
        <time>2021-08-18T15:58:48Z</time>
      </trkpt>
      <trkpt lat="44.56719" lon="2.62969">
        <ele>595</ele>
        <time>2021-08-18T15:58:50Z</time>
      </trkpt>
      <trkpt lat="44.56721" lon="2.62963">
        <ele>595.5</ele>
        <time>2021-08-18T15:58:52Z</time>
      </trkpt>
      <trkpt lat="44.56723" lon="2.62957">
        <ele>596</ele>
        <time>2021-08-18T15:58:54Z</time>
      </trkpt>
      <trkpt lat="44.56725" lon="2.62951">
        <ele>596.4</ele>
        <time>2021-08-18T15:58:56Z</time>
      </trkpt>
      <trkpt lat="44.56727" lon="2.62946">
        <ele>596.8</ele>
        <time>2021-08-18T15:58:58Z</time>
      </trkpt>
      <trkpt lat="44.56729" lon="2.6294">
        <ele>597.3</ele>
        <time>2021-08-18T15:59:00Z</time>
      </trkpt>
      <trkpt lat="44.5673" lon="2.62934">
        <ele>597.7</ele>
        <time>2021-08-18T15:59:02Z</time>
      </trkpt>
      <trkpt lat="44.56731" lon="2.62929">
        <ele>598.2</ele>
        <time>2021-08-18T15:59:04Z</time>
      </trkpt>
      <trkpt lat="44.56732" lon="2.62923">
        <ele>598.7</ele>
        <time>2021-08-18T15:59:06Z</time>
      </trkpt>
      <trkpt lat="44.56734" lon="2.62918">
        <ele>599.1</ele>
        <time>2021-08-18T15:59:08Z</time>
      </trkpt>
      <trkpt lat="44.56735" lon="2.62913">
        <ele>599.5</ele>
        <time>2021-08-18T15:59:10Z</time>
      </trkpt>
      <trkpt lat="44.56735" lon="2.62908">
        <ele>599.9</ele>
        <time>2021-08-18T15:59:12Z</time>
      </trkpt>
      <trkpt lat="44.56737" lon="2.62904">
        <ele>600.4</ele>
        <time>2021-08-18T15:59:14Z</time>
      </trkpt>
      <trkpt lat="44.56737" lon="2.629">
        <ele>600.7</ele>
        <time>2021-08-18T15:59:16Z</time>
      </trkpt>
      <trkpt lat="44.56738" lon="2.62895">
        <ele>601.1</ele>
        <time>2021-08-18T15:59:18Z</time>
      </trkpt>
      <trkpt lat="44.56738" lon="2.62891">
        <ele>601.5</ele>
        <time>2021-08-18T15:59:20Z</time>
      </trkpt>
      <trkpt lat="44.56739" lon="2.62887">
        <ele>601.9</ele>
        <time>2021-08-18T15:59:22Z</time>
      </trkpt>
      <trkpt lat="44.56739" lon="2.62884">
        <ele>602.2</ele>
        <time>2021-08-18T15:59:24Z</time>
      </trkpt>
      <trkpt lat="44.56739" lon="2.6288">
        <ele>602.5</ele>
        <time>2021-08-18T15:59:26Z</time>
      </trkpt>
      <trkpt lat="44.56739" lon="2.62877">
        <ele>602.9</ele>
        <time>2021-08-18T15:59:28Z</time>
      </trkpt>
      <trkpt lat="44.56739" lon="2.62873">
        <ele>603.1</ele>
        <time>2021-08-18T15:59:30Z</time>
      </trkpt>
      <trkpt lat="44.5674" lon="2.62871">
        <ele>603.4</ele>
        <time>2021-08-18T15:59:32Z</time>
      </trkpt>
      <trkpt lat="44.56741" lon="2.62869">
        <ele>603.5</ele>
        <time>2021-08-18T15:59:34Z</time>
      </trkpt>
      <trkpt lat="44.56741" lon="2.62869">
        <ele>603.5</ele>
        <time>2021-08-18T15:59:36Z</time>
      </trkpt>
      <trkpt lat="44.56742" lon="2.62868">
        <ele>603.7</ele>
        <time>2021-08-18T15:59:38Z</time>
      </trkpt>
      <trkpt lat="44.56742" lon="2.62867">
        <ele>603.7</ele>
        <time>2021-08-18T15:59:40Z</time>
      </trkpt>
      <trkpt lat="44.56742" lon="2.62867">
        <ele>603.8</ele>
        <time>2021-08-18T15:59:42Z</time>
      </trkpt>
      <trkpt lat="44.56738" lon="2.62838">
        <ele>606.5</ele>
        <time>2021-08-18T16:03:38Z</time>
      </trkpt>
      <trkpt lat="44.56737" lon="2.62835">
        <ele>606.7</ele>
        <time>2021-08-18T16:03:40Z</time>
      </trkpt>
      <trkpt lat="44.56737" lon="2.62832">
        <ele>606.9</ele>
        <time>2021-08-18T16:03:42Z</time>
      </trkpt>
      <trkpt lat="44.56738" lon="2.62828">
        <ele>607.2</ele>
        <time>2021-08-18T16:03:44Z</time>
      </trkpt>
      <trkpt lat="44.56739" lon="2.62825">
        <ele>607.4</ele>
        <time>2021-08-18T16:03:46Z</time>
      </trkpt>
      <trkpt lat="44.56739" lon="2.62822">
        <ele>607.6</ele>
        <time>2021-08-18T16:03:48Z</time>
      </trkpt>
      <trkpt lat="44.56739" lon="2.62818">
        <ele>607.8</ele>
        <time>2021-08-18T16:03:50Z</time>
      </trkpt>
      <trkpt lat="44.56738" lon="2.62815">
        <ele>608</ele>
        <time>2021-08-18T16:03:52Z</time>
      </trkpt>
      <trkpt lat="44.56739" lon="2.62812">
        <ele>608.2</ele>
        <time>2021-08-18T16:03:54Z</time>
      </trkpt>
      <trkpt lat="44.56741" lon="2.62809">
        <ele>608.4</ele>
        <time>2021-08-18T16:03:56Z</time>
      </trkpt>
      <trkpt lat="44.56742" lon="2.62806">
        <ele>608.7</ele>
        <time>2021-08-18T16:03:58Z</time>
      </trkpt>
      <trkpt lat="44.56742" lon="2.62802">
        <ele>608.9</ele>
        <time>2021-08-18T16:04:00Z</time>
      </trkpt>
      <trkpt lat="44.56742" lon="2.62799">
        <ele>609.1</ele>
        <time>2021-08-18T16:04:02Z</time>
      </trkpt>
      <trkpt lat="44.56743" lon="2.62795">
        <ele>609.3</ele>
        <time>2021-08-18T16:04:04Z</time>
      </trkpt>
      <trkpt lat="44.56745" lon="2.62794">
        <ele>609.4</ele>
        <time>2021-08-18T16:04:06Z</time>
      </trkpt>
      <trkpt lat="44.56748" lon="2.62795">
        <ele>609.3</ele>
        <time>2021-08-18T16:04:08Z</time>
      </trkpt>
      <trkpt lat="44.5675" lon="2.62794">
        <ele>609.4</ele>
        <time>2021-08-18T16:04:10Z</time>
      </trkpt>
      <trkpt lat="44.56752" lon="2.62789">
        <ele>609.8</ele>
        <time>2021-08-18T16:04:12Z</time>
      </trkpt>
      <trkpt lat="44.56754" lon="2.62789">
        <ele>610</ele>
        <time>2021-08-18T16:04:14Z</time>
      </trkpt>
      <trkpt lat="44.56757" lon="2.62792">
        <ele>610</ele>
        <time>2021-08-18T16:04:16Z</time>
      </trkpt>
      <trkpt lat="44.56759" lon="2.62793">
        <ele>610.1</ele>
        <time>2021-08-18T16:04:18Z</time>
      </trkpt>
      <trkpt lat="44.56762" lon="2.62794">
        <ele>610.3</ele>
        <time>2021-08-18T16:04:20Z</time>
      </trkpt>
      <trkpt lat="44.56765" lon="2.62793">
        <ele>610.6</ele>
        <time>2021-08-18T16:04:22Z</time>
      </trkpt>
      <trkpt lat="44.56768" lon="2.62792">
        <ele>610.9</ele>
        <time>2021-08-18T16:04:24Z</time>
      </trkpt>
      <trkpt lat="44.56771" lon="2.62791">
        <ele>611.2</ele>
        <time>2021-08-18T16:04:26Z</time>
      </trkpt>
      <trkpt lat="44.56774" lon="2.6279">
        <ele>611.4</ele>
        <time>2021-08-18T16:04:28Z</time>
      </trkpt>
      <trkpt lat="44.56776" lon="2.62789">
        <ele>611.7</ele>
        <time>2021-08-18T16:04:30Z</time>
      </trkpt>
      <trkpt lat="44.56779" lon="2.62788">
        <ele>612</ele>
        <time>2021-08-18T16:04:32Z</time>
      </trkpt>
      <trkpt lat="44.56781" lon="2.62787">
        <ele>612.3</ele>
        <time>2021-08-18T16:04:34Z</time>
      </trkpt>
      <trkpt lat="44.56784" lon="2.62785">
        <ele>612.6</ele>
        <time>2021-08-18T16:04:36Z</time>
      </trkpt>
      <trkpt lat="44.56786" lon="2.62782">
        <ele>612.9</ele>
        <time>2021-08-18T16:04:38Z</time>
      </trkpt>
      <trkpt lat="44.56788" lon="2.62779">
        <ele>613.3</ele>
        <time>2021-08-18T16:04:40Z</time>
      </trkpt>
      <trkpt lat="44.56791" lon="2.62778">
        <ele>613.6</ele>
        <time>2021-08-18T16:04:42Z</time>
      </trkpt>
      <trkpt lat="44.56793" lon="2.62776">
        <ele>613.9</ele>
        <time>2021-08-18T16:04:44Z</time>
      </trkpt>
      <trkpt lat="44.56795" lon="2.62774">
        <ele>614.2</ele>
        <time>2021-08-18T16:04:46Z</time>
      </trkpt>
      <trkpt lat="44.56797" lon="2.62772">
        <ele>614.5</ele>
        <time>2021-08-18T16:04:48Z</time>
      </trkpt>
      <trkpt lat="44.56799" lon="2.62769">
        <ele>614.9</ele>
        <time>2021-08-18T16:04:50Z</time>
      </trkpt>
      <trkpt lat="44.56802" lon="2.62767">
        <ele>615.2</ele>
        <time>2021-08-18T16:04:52Z</time>
      </trkpt>
      <trkpt lat="44.56804" lon="2.62765">
        <ele>615.6</ele>
        <time>2021-08-18T16:04:54Z</time>
      </trkpt>
      <trkpt lat="44.56807" lon="2.62763">
        <ele>615.9</ele>
        <time>2021-08-18T16:04:56Z</time>
      </trkpt>
      <trkpt lat="44.56809" lon="2.62761">
        <ele>616.2</ele>
        <time>2021-08-18T16:04:58Z</time>
      </trkpt>
      <trkpt lat="44.56812" lon="2.62759">
        <ele>616.6</ele>
        <time>2021-08-18T16:05:00Z</time>
      </trkpt>
      <trkpt lat="44.56814" lon="2.62757">
        <ele>616.9</ele>
        <time>2021-08-18T16:05:02Z</time>
      </trkpt>
      <trkpt lat="44.56817" lon="2.62755">
        <ele>617.3</ele>
        <time>2021-08-18T16:05:04Z</time>
      </trkpt>
      <trkpt lat="44.56819" lon="2.62753">
        <ele>617.6</ele>
        <time>2021-08-18T16:05:06Z</time>
      </trkpt>
      <trkpt lat="44.56822" lon="2.62751">
        <ele>617.9</ele>
        <time>2021-08-18T16:05:08Z</time>
      </trkpt>
      <trkpt lat="44.56824" lon="2.6275">
        <ele>618.2</ele>
        <time>2021-08-18T16:05:10Z</time>
      </trkpt>
      <trkpt lat="44.56827" lon="2.62748">
        <ele>618.4</ele>
        <time>2021-08-18T16:05:12Z</time>
      </trkpt>
      <trkpt lat="44.56829" lon="2.62746">
        <ele>618.5</ele>
        <time>2021-08-18T16:05:14Z</time>
      </trkpt>
      <trkpt lat="44.56832" lon="2.62744">
        <ele>618.7</ele>
        <time>2021-08-18T16:05:16Z</time>
      </trkpt>
      <trkpt lat="44.56834" lon="2.62744">
        <ele>618.8</ele>
        <time>2021-08-18T16:05:18Z</time>
      </trkpt>
      <trkpt lat="44.56837" lon="2.62743">
        <ele>618.9</ele>
        <time>2021-08-18T16:05:20Z</time>
      </trkpt>
      <trkpt lat="44.5684" lon="2.62741">
        <ele>619</ele>
        <time>2021-08-18T16:05:22Z</time>
      </trkpt>
      <trkpt lat="44.56843" lon="2.62741">
        <ele>619.1</ele>
        <time>2021-08-18T16:05:24Z</time>
      </trkpt>
      <trkpt lat="44.56845" lon="2.62739">
        <ele>619.2</ele>
        <time>2021-08-18T16:05:26Z</time>
      </trkpt>
      <trkpt lat="44.56848" lon="2.62738">
        <ele>619.3</ele>
        <time>2021-08-18T16:05:28Z</time>
      </trkpt>
      <trkpt lat="44.56851" lon="2.62737">
        <ele>619.4</ele>
        <time>2021-08-18T16:05:30Z</time>
      </trkpt>
      <trkpt lat="44.56854" lon="2.62736">
        <ele>619.5</ele>
        <time>2021-08-18T16:05:32Z</time>
      </trkpt>
      <trkpt lat="44.56857" lon="2.62736">
        <ele>619.6</ele>
        <time>2021-08-18T16:05:34Z</time>
      </trkpt>
      <trkpt lat="44.5686" lon="2.62735">
        <ele>619.7</ele>
        <time>2021-08-18T16:05:36Z</time>
      </trkpt>
      <trkpt lat="44.56862" lon="2.62734">
        <ele>619.8</ele>
        <time>2021-08-18T16:05:38Z</time>
      </trkpt>
      <trkpt lat="44.56866" lon="2.62733">
        <ele>620</ele>
        <time>2021-08-18T16:05:40Z</time>
      </trkpt>
      <trkpt lat="44.56869" lon="2.62733">
        <ele>620.1</ele>
        <time>2021-08-18T16:05:42Z</time>
      </trkpt>
      <trkpt lat="44.56872" lon="2.62732">
        <ele>620.2</ele>
        <time>2021-08-18T16:05:44Z</time>
      </trkpt>
      <trkpt lat="44.56875" lon="2.62731">
        <ele>620.3</ele>
        <time>2021-08-18T16:05:46Z</time>
      </trkpt>
      <trkpt lat="44.56879" lon="2.62731">
        <ele>620.5</ele>
        <time>2021-08-18T16:05:48Z</time>
      </trkpt>
      <trkpt lat="44.56882" lon="2.6273">
        <ele>620.6</ele>
        <time>2021-08-18T16:05:50Z</time>
      </trkpt>
      <trkpt lat="44.56885" lon="2.62729">
        <ele>620.7</ele>
        <time>2021-08-18T16:05:52Z</time>
      </trkpt>
      <trkpt lat="44.56888" lon="2.62728">
        <ele>620.9</ele>
        <time>2021-08-18T16:05:54Z</time>
      </trkpt>
      <trkpt lat="44.56892" lon="2.62728">
        <ele>621</ele>
        <time>2021-08-18T16:05:56Z</time>
      </trkpt>
      <trkpt lat="44.56896" lon="2.62727">
        <ele>621.2</ele>
        <time>2021-08-18T16:05:58Z</time>
      </trkpt>
      <trkpt lat="44.56899" lon="2.62726">
        <ele>621.3</ele>
        <time>2021-08-18T16:06:00Z</time>
      </trkpt>
      <trkpt lat="44.56903" lon="2.62725">
        <ele>621.4</ele>
        <time>2021-08-18T16:06:02Z</time>
      </trkpt>
      <trkpt lat="44.56906" lon="2.62725">
        <ele>621.6</ele>
        <time>2021-08-18T16:06:04Z</time>
      </trkpt>
      <trkpt lat="44.56909" lon="2.62723">
        <ele>621.7</ele>
        <time>2021-08-18T16:06:06Z</time>
      </trkpt>
      <trkpt lat="44.56913" lon="2.62723">
        <ele>621.8</ele>
        <time>2021-08-18T16:06:08Z</time>
      </trkpt>
      <trkpt lat="44.56916" lon="2.62722">
        <ele>622</ele>
        <time>2021-08-18T16:06:10Z</time>
      </trkpt>
      <trkpt lat="44.56919" lon="2.62722">
        <ele>622.1</ele>
        <time>2021-08-18T16:06:12Z</time>
      </trkpt>
      <trkpt lat="44.56921" lon="2.62721">
        <ele>622.2</ele>
        <time>2021-08-18T16:06:14Z</time>
      </trkpt>
      <trkpt lat="44.56925" lon="2.6272">
        <ele>622.4</ele>
        <time>2021-08-18T16:06:16Z</time>
      </trkpt>
      <trkpt lat="44.56928" lon="2.62718">
        <ele>622.5</ele>
        <time>2021-08-18T16:06:18Z</time>
      </trkpt>
      <trkpt lat="44.56931" lon="2.62717">
        <ele>622.7</ele>
        <time>2021-08-18T16:06:20Z</time>
      </trkpt>
      <trkpt lat="44.56934" lon="2.62716">
        <ele>622.8</ele>
        <time>2021-08-18T16:06:22Z</time>
      </trkpt>
      <trkpt lat="44.56937" lon="2.62715">
        <ele>623</ele>
        <time>2021-08-18T16:06:24Z</time>
      </trkpt>
      <trkpt lat="44.5694" lon="2.62713">
        <ele>623.2</ele>
        <time>2021-08-18T16:06:26Z</time>
      </trkpt>
      <trkpt lat="44.56943" lon="2.62712">
        <ele>623.3</ele>
        <time>2021-08-18T16:06:28Z</time>
      </trkpt>
      <trkpt lat="44.56946" lon="2.6271">
        <ele>623.5</ele>
        <time>2021-08-18T16:06:30Z</time>
      </trkpt>
      <trkpt lat="44.56949" lon="2.62708">
        <ele>623.7</ele>
        <time>2021-08-18T16:06:32Z</time>
      </trkpt>
      <trkpt lat="44.56952" lon="2.62706">
        <ele>623.8</ele>
        <time>2021-08-18T16:06:34Z</time>
      </trkpt>
      <trkpt lat="44.56955" lon="2.62705">
        <ele>624</ele>
        <time>2021-08-18T16:06:36Z</time>
      </trkpt>
      <trkpt lat="44.56958" lon="2.62703">
        <ele>624.2</ele>
        <time>2021-08-18T16:06:38Z</time>
      </trkpt>
      <trkpt lat="44.56961" lon="2.62701">
        <ele>624.4</ele>
        <time>2021-08-18T16:06:40Z</time>
      </trkpt>
      <trkpt lat="44.56963" lon="2.627">
        <ele>624.6</ele>
        <time>2021-08-18T16:06:42Z</time>
      </trkpt>
      <trkpt lat="44.56966" lon="2.62698">
        <ele>624.8</ele>
        <time>2021-08-18T16:06:44Z</time>
      </trkpt>
      <trkpt lat="44.56969" lon="2.62695">
        <ele>625</ele>
        <time>2021-08-18T16:06:46Z</time>
      </trkpt>
      <trkpt lat="44.56972" lon="2.62693">
        <ele>625.2</ele>
        <time>2021-08-18T16:06:48Z</time>
      </trkpt>
      <trkpt lat="44.56974" lon="2.62691">
        <ele>625.4</ele>
        <time>2021-08-18T16:06:50Z</time>
      </trkpt>
      <trkpt lat="44.56977" lon="2.62689">
        <ele>625.6</ele>
        <time>2021-08-18T16:06:52Z</time>
      </trkpt>
      <trkpt lat="44.56979" lon="2.62686">
        <ele>625.8</ele>
        <time>2021-08-18T16:06:54Z</time>
      </trkpt>
      <trkpt lat="44.56982" lon="2.62684">
        <ele>626</ele>
        <time>2021-08-18T16:06:56Z</time>
      </trkpt>
      <trkpt lat="44.56984" lon="2.62681">
        <ele>626.3</ele>
        <time>2021-08-18T16:06:58Z</time>
      </trkpt>
      <trkpt lat="44.56986" lon="2.62679">
        <ele>626.5</ele>
        <time>2021-08-18T16:07:00Z</time>
      </trkpt>
      <trkpt lat="44.56989" lon="2.62676">
        <ele>626.8</ele>
        <time>2021-08-18T16:07:02Z</time>
      </trkpt>
      <trkpt lat="44.56991" lon="2.62673">
        <ele>627</ele>
        <time>2021-08-18T16:07:04Z</time>
      </trkpt>
      <trkpt lat="44.56993" lon="2.6267">
        <ele>627.3</ele>
        <time>2021-08-18T16:07:06Z</time>
      </trkpt>
      <trkpt lat="44.56996" lon="2.62668">
        <ele>627.6</ele>
        <time>2021-08-18T16:07:08Z</time>
      </trkpt>
      <trkpt lat="44.56998" lon="2.62665">
        <ele>627.8</ele>
        <time>2021-08-18T16:07:10Z</time>
      </trkpt>
      <trkpt lat="44.57" lon="2.62663">
        <ele>628</ele>
        <time>2021-08-18T16:07:12Z</time>
      </trkpt>
      <trkpt lat="44.57002" lon="2.6266">
        <ele>628.3</ele>
        <time>2021-08-18T16:07:14Z</time>
      </trkpt>
      <trkpt lat="44.57004" lon="2.62657">
        <ele>628.6</ele>
        <time>2021-08-18T16:07:16Z</time>
      </trkpt>
      <trkpt lat="44.57007" lon="2.62654">
        <ele>628.8</ele>
        <time>2021-08-18T16:07:18Z</time>
      </trkpt>
      <trkpt lat="44.57009" lon="2.62652">
        <ele>629.1</ele>
        <time>2021-08-18T16:07:20Z</time>
      </trkpt>
      <trkpt lat="44.57011" lon="2.6265">
        <ele>629.4</ele>
        <time>2021-08-18T16:07:22Z</time>
      </trkpt>
      <trkpt lat="44.57014" lon="2.62647">
        <ele>629.7</ele>
        <time>2021-08-18T16:07:24Z</time>
      </trkpt>
      <trkpt lat="44.57016" lon="2.62645">
        <ele>630</ele>
        <time>2021-08-18T16:07:26Z</time>
      </trkpt>
      <trkpt lat="44.57018" lon="2.62642">
        <ele>630.2</ele>
        <time>2021-08-18T16:07:28Z</time>
      </trkpt>
      <trkpt lat="44.5702" lon="2.6264">
        <ele>630.6</ele>
        <time>2021-08-18T16:07:30Z</time>
      </trkpt>
      <trkpt lat="44.57022" lon="2.62638">
        <ele>630.8</ele>
        <time>2021-08-18T16:07:32Z</time>
      </trkpt>
      <trkpt lat="44.57024" lon="2.62635">
        <ele>631.1</ele>
        <time>2021-08-18T16:07:34Z</time>
      </trkpt>
      <trkpt lat="44.57026" lon="2.62633">
        <ele>631.4</ele>
        <time>2021-08-18T16:07:36Z</time>
      </trkpt>
      <trkpt lat="44.57028" lon="2.6263">
        <ele>631.7</ele>
        <time>2021-08-18T16:07:38Z</time>
      </trkpt>
      <trkpt lat="44.57031" lon="2.62628">
        <ele>632</ele>
        <time>2021-08-18T16:07:40Z</time>
      </trkpt>
      <trkpt lat="44.57033" lon="2.62626">
        <ele>632.4</ele>
        <time>2021-08-18T16:07:42Z</time>
      </trkpt>
      <trkpt lat="44.57036" lon="2.62624">
        <ele>632.7</ele>
        <time>2021-08-18T16:07:44Z</time>
      </trkpt>
      <trkpt lat="44.57039" lon="2.62621">
        <ele>633.2</ele>
        <time>2021-08-18T16:07:46Z</time>
      </trkpt>
      <trkpt lat="44.57041" lon="2.62619">
        <ele>633.5</ele>
        <time>2021-08-18T16:07:48Z</time>
      </trkpt>
      <trkpt lat="44.57044" lon="2.62617">
        <ele>633.9</ele>
        <time>2021-08-18T16:07:50Z</time>
      </trkpt>
      <trkpt lat="44.57047" lon="2.62615">
        <ele>634.3</ele>
        <time>2021-08-18T16:07:52Z</time>
      </trkpt>
      <trkpt lat="44.57049" lon="2.62613">
        <ele>634.7</ele>
        <time>2021-08-18T16:07:54Z</time>
      </trkpt>
      <trkpt lat="44.57052" lon="2.62611">
        <ele>635.1</ele>
        <time>2021-08-18T16:07:56Z</time>
      </trkpt>
      <trkpt lat="44.57055" lon="2.6261">
        <ele>635.4</ele>
        <time>2021-08-18T16:07:58Z</time>
      </trkpt>
      <trkpt lat="44.57057" lon="2.62608">
        <ele>635.9</ele>
        <time>2021-08-18T16:08:00Z</time>
      </trkpt>
      <trkpt lat="44.5706" lon="2.62606">
        <ele>636.3</ele>
        <time>2021-08-18T16:08:02Z</time>
      </trkpt>
      <trkpt lat="44.57062" lon="2.62604">
        <ele>636.6</ele>
        <time>2021-08-18T16:08:04Z</time>
      </trkpt>
      <trkpt lat="44.57065" lon="2.62602">
        <ele>637</ele>
        <time>2021-08-18T16:08:06Z</time>
      </trkpt>
      <trkpt lat="44.57067" lon="2.62599">
        <ele>637.4</ele>
        <time>2021-08-18T16:08:08Z</time>
      </trkpt>
      <trkpt lat="44.5707" lon="2.62598">
        <ele>637.8</ele>
        <time>2021-08-18T16:08:10Z</time>
      </trkpt>
      <trkpt lat="44.57073" lon="2.62596">
        <ele>638.3</ele>
        <time>2021-08-18T16:08:12Z</time>
      </trkpt>
      <trkpt lat="44.57076" lon="2.62595">
        <ele>638.7</ele>
        <time>2021-08-18T16:08:14Z</time>
      </trkpt>
      <trkpt lat="44.57079" lon="2.62593">
        <ele>639.1</ele>
        <time>2021-08-18T16:08:16Z</time>
      </trkpt>
      <trkpt lat="44.57081" lon="2.62591">
        <ele>639.5</ele>
        <time>2021-08-18T16:08:18Z</time>
      </trkpt>
      <trkpt lat="44.57084" lon="2.62589">
        <ele>639.9</ele>
        <time>2021-08-18T16:08:20Z</time>
      </trkpt>
      <trkpt lat="44.57087" lon="2.62587">
        <ele>640</ele>
        <time>2021-08-18T16:08:22Z</time>
      </trkpt>
      <trkpt lat="44.57089" lon="2.62586">
        <ele>640.1</ele>
        <time>2021-08-18T16:08:24Z</time>
      </trkpt>
      <trkpt lat="44.57091" lon="2.62585">
        <ele>640.2</ele>
        <time>2021-08-18T16:08:26Z</time>
      </trkpt>
      <trkpt lat="44.57093" lon="2.62584">
        <ele>640.2</ele>
        <time>2021-08-18T16:08:28Z</time>
      </trkpt>
      <trkpt lat="44.57096" lon="2.62584">
        <ele>640.3</ele>
        <time>2021-08-18T16:08:30Z</time>
      </trkpt>
      <trkpt lat="44.57098" lon="2.62583">
        <ele>640.3</ele>
        <time>2021-08-18T16:08:32Z</time>
      </trkpt>
      <trkpt lat="44.571" lon="2.62581">
        <ele>640.4</ele>
        <time>2021-08-18T16:08:34Z</time>
      </trkpt>
      <trkpt lat="44.57099" lon="2.62579">
        <ele>640.3</ele>
        <time>2021-08-18T16:08:36Z</time>
      </trkpt>
      <trkpt lat="44.57097" lon="2.62581">
        <ele>640.3</ele>
        <time>2021-08-18T16:08:38Z</time>
      </trkpt>
      <trkpt lat="44.57094" lon="2.62582">
        <ele>640.2</ele>
        <time>2021-08-18T16:08:40Z</time>
      </trkpt>
      <trkpt lat="44.57092" lon="2.62583">
        <ele>640.2</ele>
        <time>2021-08-18T16:08:42Z</time>
      </trkpt>
      <trkpt lat="44.57091" lon="2.62583">
        <ele>640.2</ele>
        <time>2021-08-18T16:08:44Z</time>
      </trkpt>
      <trkpt lat="44.57091" lon="2.62586">
        <ele>640.1</ele>
        <time>2021-08-18T16:08:46Z</time>
      </trkpt>
      <trkpt lat="44.57095" lon="2.62586">
        <ele>640.2</ele>
        <time>2021-08-18T16:08:48Z</time>
      </trkpt>
      <trkpt lat="44.57098" lon="2.62583">
        <ele>640.4</ele>
        <time>2021-08-18T16:08:50Z</time>
      </trkpt>
      <trkpt lat="44.57101" lon="2.62582">
        <ele>640.4</ele>
        <time>2021-08-18T16:08:52Z</time>
      </trkpt>
      <trkpt lat="44.57105" lon="2.6258">
        <ele>640.4</ele>
        <time>2021-08-18T16:08:54Z</time>
      </trkpt>
      <trkpt lat="44.57108" lon="2.62577">
        <ele>640.5</ele>
        <time>2021-08-18T16:08:56Z</time>
      </trkpt>
      <trkpt lat="44.57111" lon="2.62576">
        <ele>640.5</ele>
        <time>2021-08-18T16:08:58Z</time>
      </trkpt>
      <trkpt lat="44.57115" lon="2.62574">
        <ele>640.6</ele>
        <time>2021-08-18T16:09:00Z</time>
      </trkpt>
      <trkpt lat="44.57118" lon="2.62572">
        <ele>640.6</ele>
        <time>2021-08-18T16:09:02Z</time>
      </trkpt>
      <trkpt lat="44.57121" lon="2.62571">
        <ele>640.6</ele>
        <time>2021-08-18T16:09:04Z</time>
      </trkpt>
      <trkpt lat="44.57125" lon="2.6257">
        <ele>640.7</ele>
        <time>2021-08-18T16:09:06Z</time>
      </trkpt>
      <trkpt lat="44.57128" lon="2.62568">
        <ele>640.7</ele>
        <time>2021-08-18T16:09:08Z</time>
      </trkpt>
      <trkpt lat="44.57132" lon="2.62566">
        <ele>640.7</ele>
        <time>2021-08-18T16:09:10Z</time>
      </trkpt>
      <trkpt lat="44.57135" lon="2.62565">
        <ele>640.8</ele>
        <time>2021-08-18T16:09:12Z</time>
      </trkpt>
      <trkpt lat="44.57139" lon="2.62564">
        <ele>640.8</ele>
        <time>2021-08-18T16:09:14Z</time>
      </trkpt>
      <trkpt lat="44.57142" lon="2.62562">
        <ele>640.8</ele>
        <time>2021-08-18T16:09:16Z</time>
      </trkpt>
      <trkpt lat="44.57145" lon="2.62561">
        <ele>640.8</ele>
        <time>2021-08-18T16:09:18Z</time>
      </trkpt>
      <trkpt lat="44.57149" lon="2.6256">
        <ele>640.8</ele>
        <time>2021-08-18T16:09:20Z</time>
      </trkpt>
      <trkpt lat="44.57152" lon="2.62558">
        <ele>640.8</ele>
        <time>2021-08-18T16:09:22Z</time>
      </trkpt>
      <trkpt lat="44.57156" lon="2.62556">
        <ele>640.9</ele>
        <time>2021-08-18T16:09:24Z</time>
      </trkpt>
      <trkpt lat="44.57159" lon="2.62555">
        <ele>640.9</ele>
        <time>2021-08-18T16:09:26Z</time>
      </trkpt>
      <trkpt lat="44.57162" lon="2.62553">
        <ele>640.8</ele>
        <time>2021-08-18T16:09:28Z</time>
      </trkpt>
      <trkpt lat="44.57165" lon="2.62552">
        <ele>640.9</ele>
        <time>2021-08-18T16:09:30Z</time>
      </trkpt>
      <trkpt lat="44.57169" lon="2.6255">
        <ele>641.1</ele>
        <time>2021-08-18T16:09:32Z</time>
      </trkpt>
      <trkpt lat="44.57172" lon="2.62548">
        <ele>641.4</ele>
        <time>2021-08-18T16:09:34Z</time>
      </trkpt>
      <trkpt lat="44.57176" lon="2.62547">
        <ele>641.8</ele>
        <time>2021-08-18T16:09:36Z</time>
      </trkpt>
      <trkpt lat="44.5718" lon="2.62546">
        <ele>642.1</ele>
        <time>2021-08-18T16:09:38Z</time>
      </trkpt>
      <trkpt lat="44.57183" lon="2.62544">
        <ele>642.5</ele>
        <time>2021-08-18T16:09:40Z</time>
      </trkpt>
      <trkpt lat="44.57187" lon="2.62542">
        <ele>642.8</ele>
        <time>2021-08-18T16:09:42Z</time>
      </trkpt>
      <trkpt lat="44.5719" lon="2.62541">
        <ele>643.1</ele>
        <time>2021-08-18T16:09:44Z</time>
      </trkpt>
      <trkpt lat="44.57193" lon="2.6254">
        <ele>643.5</ele>
        <time>2021-08-18T16:09:46Z</time>
      </trkpt>
      <trkpt lat="44.57197" lon="2.62538">
        <ele>643.8</ele>
        <time>2021-08-18T16:09:48Z</time>
      </trkpt>
      <trkpt lat="44.572" lon="2.62536">
        <ele>644.2</ele>
        <time>2021-08-18T16:09:50Z</time>
      </trkpt>
      <trkpt lat="44.57203" lon="2.62535">
        <ele>644.5</ele>
        <time>2021-08-18T16:09:52Z</time>
      </trkpt>
      <trkpt lat="44.57207" lon="2.62533">
        <ele>644.8</ele>
        <time>2021-08-18T16:09:54Z</time>
      </trkpt>
      <trkpt lat="44.5721" lon="2.62532">
        <ele>645.1</ele>
        <time>2021-08-18T16:09:56Z</time>
      </trkpt>
      <trkpt lat="44.57213" lon="2.6253">
        <ele>645.5</ele>
        <time>2021-08-18T16:09:58Z</time>
      </trkpt>
      <trkpt lat="44.57217" lon="2.62529">
        <ele>645.9</ele>
        <time>2021-08-18T16:10:00Z</time>
      </trkpt>
      <trkpt lat="44.57221" lon="2.62527">
        <ele>646.2</ele>
        <time>2021-08-18T16:10:02Z</time>
      </trkpt>
      <trkpt lat="44.57224" lon="2.62525">
        <ele>646.6</ele>
        <time>2021-08-18T16:10:04Z</time>
      </trkpt>
      <trkpt lat="44.57229" lon="2.62523">
        <ele>647.1</ele>
        <time>2021-08-18T16:10:06Z</time>
      </trkpt>
      <trkpt lat="44.57232" lon="2.62521">
        <ele>647.4</ele>
        <time>2021-08-18T16:10:08Z</time>
      </trkpt>
      <trkpt lat="44.57236" lon="2.6252">
        <ele>647.9</ele>
        <time>2021-08-18T16:10:10Z</time>
      </trkpt>
      <trkpt lat="44.57241" lon="2.62518">
        <ele>648.3</ele>
        <time>2021-08-18T16:10:12Z</time>
      </trkpt>
      <trkpt lat="44.57245" lon="2.62516">
        <ele>648.8</ele>
        <time>2021-08-18T16:10:14Z</time>
      </trkpt>
      <trkpt lat="44.57249" lon="2.62515">
        <ele>649.2</ele>
        <time>2021-08-18T16:10:16Z</time>
      </trkpt>
      <trkpt lat="44.57252" lon="2.62512">
        <ele>649.5</ele>
        <time>2021-08-18T16:10:18Z</time>
      </trkpt>
      <trkpt lat="44.57257" lon="2.62511">
        <ele>649.9</ele>
        <time>2021-08-18T16:10:20Z</time>
      </trkpt>
      <trkpt lat="44.57261" lon="2.62508">
        <ele>650.2</ele>
        <time>2021-08-18T16:10:22Z</time>
      </trkpt>
      <trkpt lat="44.57266" lon="2.62506">
        <ele>650.6</ele>
        <time>2021-08-18T16:10:24Z</time>
      </trkpt>
      <trkpt lat="44.5727" lon="2.62504">
        <ele>651</ele>
        <time>2021-08-18T16:10:26Z</time>
      </trkpt>
      <trkpt lat="44.57274" lon="2.62502">
        <ele>651.4</ele>
        <time>2021-08-18T16:10:28Z</time>
      </trkpt>
      <trkpt lat="44.57279" lon="2.62499">
        <ele>651.7</ele>
        <time>2021-08-18T16:10:30Z</time>
      </trkpt>
      <trkpt lat="44.57283" lon="2.62497">
        <ele>652</ele>
        <time>2021-08-18T16:10:32Z</time>
      </trkpt>
      <trkpt lat="44.57288" lon="2.62495">
        <ele>652.3</ele>
        <time>2021-08-18T16:10:34Z</time>
      </trkpt>
      <trkpt lat="44.57291" lon="2.62493">
        <ele>652.6</ele>
        <time>2021-08-18T16:10:36Z</time>
      </trkpt>
      <trkpt lat="44.57295" lon="2.62489">
        <ele>652.8</ele>
        <time>2021-08-18T16:10:38Z</time>
      </trkpt>
      <trkpt lat="44.57298" lon="2.62486">
        <ele>653.1</ele>
        <time>2021-08-18T16:10:40Z</time>
      </trkpt>
      <trkpt lat="44.57302" lon="2.62482">
        <ele>653.3</ele>
        <time>2021-08-18T16:10:42Z</time>
      </trkpt>
      <trkpt lat="44.57305" lon="2.6248">
        <ele>653.5</ele>
        <time>2021-08-18T16:10:44Z</time>
      </trkpt>
      <trkpt lat="44.57307" lon="2.62476">
        <ele>653.7</ele>
        <time>2021-08-18T16:10:46Z</time>
      </trkpt>
      <trkpt lat="44.57309" lon="2.62472">
        <ele>653.8</ele>
        <time>2021-08-18T16:10:48Z</time>
      </trkpt>
      <trkpt lat="44.57311" lon="2.62467">
        <ele>653.9</ele>
        <time>2021-08-18T16:10:50Z</time>
      </trkpt>
      <trkpt lat="44.57314" lon="2.62464">
        <ele>654.1</ele>
        <time>2021-08-18T16:10:52Z</time>
      </trkpt>
      <trkpt lat="44.57315" lon="2.62459">
        <ele>654.1</ele>
        <time>2021-08-18T16:10:54Z</time>
      </trkpt>
      <trkpt lat="44.57317" lon="2.62455">
        <ele>654.3</ele>
        <time>2021-08-18T16:10:56Z</time>
      </trkpt>
      <trkpt lat="44.57319" lon="2.62452">
        <ele>654.5</ele>
        <time>2021-08-18T16:10:58Z</time>
      </trkpt>
      <trkpt lat="44.57321" lon="2.62448">
        <ele>654.7</ele>
        <time>2021-08-18T16:11:00Z</time>
      </trkpt>
      <trkpt lat="44.57323" lon="2.62443">
        <ele>654.8</ele>
        <time>2021-08-18T16:11:02Z</time>
      </trkpt>
      <trkpt lat="44.57324" lon="2.62439">
        <ele>654.9</ele>
        <time>2021-08-18T16:11:04Z</time>
      </trkpt>
      <trkpt lat="44.57326" lon="2.62435">
        <ele>655.2</ele>
        <time>2021-08-18T16:11:06Z</time>
      </trkpt>
      <trkpt lat="44.57329" lon="2.62431">
        <ele>655.4</ele>
        <time>2021-08-18T16:11:08Z</time>
      </trkpt>
      <trkpt lat="44.5733" lon="2.62426">
        <ele>655.6</ele>
        <time>2021-08-18T16:11:10Z</time>
      </trkpt>
      <trkpt lat="44.57332" lon="2.62422">
        <ele>655.8</ele>
        <time>2021-08-18T16:11:12Z</time>
      </trkpt>
      <trkpt lat="44.57333" lon="2.62418">
        <ele>655.9</ele>
        <time>2021-08-18T16:11:14Z</time>
      </trkpt>
      <trkpt lat="44.57334" lon="2.62414">
        <ele>656</ele>
        <time>2021-08-18T16:11:16Z</time>
      </trkpt>
      <trkpt lat="44.57336" lon="2.62411">
        <ele>655.9</ele>
        <time>2021-08-18T16:11:18Z</time>
      </trkpt>
      <trkpt lat="44.57338" lon="2.62408">
        <ele>656</ele>
        <time>2021-08-18T16:11:20Z</time>
      </trkpt>
      <trkpt lat="44.57341" lon="2.62404">
        <ele>656</ele>
        <time>2021-08-18T16:11:22Z</time>
      </trkpt>
      <trkpt lat="44.57343" lon="2.624">
        <ele>656</ele>
        <time>2021-08-18T16:11:24Z</time>
      </trkpt>
      <trkpt lat="44.57346" lon="2.62396">
        <ele>655.9</ele>
        <time>2021-08-18T16:11:26Z</time>
      </trkpt>
      <trkpt lat="44.5735" lon="2.62392">
        <ele>656</ele>
        <time>2021-08-18T16:11:28Z</time>
      </trkpt>
      <trkpt lat="44.57353" lon="2.62389">
        <ele>656</ele>
        <time>2021-08-18T16:11:30Z</time>
      </trkpt>
      <trkpt lat="44.57357" lon="2.62385">
        <ele>656.1</ele>
        <time>2021-08-18T16:11:32Z</time>
      </trkpt>
      <trkpt lat="44.57361" lon="2.6238">
        <ele>656</ele>
        <time>2021-08-18T16:11:34Z</time>
      </trkpt>
      <trkpt lat="44.57367" lon="2.62376">
        <ele>656.1</ele>
        <time>2021-08-18T16:11:36Z</time>
      </trkpt>
      <trkpt lat="44.57373" lon="2.62372">
        <ele>656.2</ele>
        <time>2021-08-18T16:11:38Z</time>
      </trkpt>
      <trkpt lat="44.57378" lon="2.62368">
        <ele>656.3</ele>
        <time>2021-08-18T16:11:40Z</time>
      </trkpt>
      <trkpt lat="44.57385" lon="2.62364">
        <ele>656.4</ele>
        <time>2021-08-18T16:11:42Z</time>
      </trkpt>
      <trkpt lat="44.57392" lon="2.62359">
        <ele>656.5</ele>
        <time>2021-08-18T16:11:44Z</time>
      </trkpt>
      <trkpt lat="44.57399" lon="2.62355">
        <ele>656.6</ele>
        <time>2021-08-18T16:11:46Z</time>
      </trkpt>
      <trkpt lat="44.57406" lon="2.62349">
        <ele>656.5</ele>
        <time>2021-08-18T16:11:48Z</time>
      </trkpt>
      <trkpt lat="44.57413" lon="2.62343">
        <ele>656.5</ele>
        <time>2021-08-18T16:11:50Z</time>
      </trkpt>
      <trkpt lat="44.57417" lon="2.62333">
        <ele>656</ele>
        <time>2021-08-18T16:11:52Z</time>
      </trkpt>
      <trkpt lat="44.57418" lon="2.62321">
        <ele>655.4</ele>
        <time>2021-08-18T16:11:54Z</time>
      </trkpt>
      <trkpt lat="44.57419" lon="2.62309">
        <ele>654.9</ele>
        <time>2021-08-18T16:11:56Z</time>
      </trkpt>
      <trkpt lat="44.57419" lon="2.62297">
        <ele>654.3</ele>
        <time>2021-08-18T16:11:58Z</time>
      </trkpt>
      <trkpt lat="44.5742" lon="2.62286">
        <ele>653.8</ele>
        <time>2021-08-18T16:12:00Z</time>
      </trkpt>
      <trkpt lat="44.57421" lon="2.62275">
        <ele>653.4</ele>
        <time>2021-08-18T16:12:02Z</time>
      </trkpt>
      <trkpt lat="44.57421" lon="2.62264">
        <ele>652.9</ele>
        <time>2021-08-18T16:12:04Z</time>
      </trkpt>
      <trkpt lat="44.57421" lon="2.62252">
        <ele>652.4</ele>
        <time>2021-08-18T16:12:06Z</time>
      </trkpt>
      <trkpt lat="44.57421" lon="2.62242">
        <ele>652.2</ele>
        <time>2021-08-18T16:12:08Z</time>
      </trkpt>
      <trkpt lat="44.57422" lon="2.62231">
        <ele>652.1</ele>
        <time>2021-08-18T16:12:10Z</time>
      </trkpt>
      <trkpt lat="44.57422" lon="2.6222">
        <ele>652</ele>
        <time>2021-08-18T16:12:12Z</time>
      </trkpt>
      <trkpt lat="44.57423" lon="2.6221">
        <ele>651.9</ele>
        <time>2021-08-18T16:12:14Z</time>
      </trkpt>
      <trkpt lat="44.57423" lon="2.62199">
        <ele>651.8</ele>
        <time>2021-08-18T16:12:16Z</time>
      </trkpt>
      <trkpt lat="44.57423" lon="2.62188">
        <ele>651.7</ele>
        <time>2021-08-18T16:12:18Z</time>
      </trkpt>
      <trkpt lat="44.57424" lon="2.62178">
        <ele>651.6</ele>
        <time>2021-08-18T16:12:20Z</time>
      </trkpt>
      <trkpt lat="44.57424" lon="2.62168">
        <ele>651.4</ele>
        <time>2021-08-18T16:12:22Z</time>
      </trkpt>
      <trkpt lat="44.57423" lon="2.62158">
        <ele>651.8</ele>
        <time>2021-08-18T16:12:24Z</time>
      </trkpt>
      <trkpt lat="44.5742" lon="2.62149">
        <ele>652.2</ele>
        <time>2021-08-18T16:12:26Z</time>
      </trkpt>
      <trkpt lat="44.57416" lon="2.62142">
        <ele>652.4</ele>
        <time>2021-08-18T16:12:28Z</time>
      </trkpt>
      <trkpt lat="44.5741" lon="2.62137">
        <ele>652.4</ele>
        <time>2021-08-18T16:12:30Z</time>
      </trkpt>
      <trkpt lat="44.57403" lon="2.62133">
        <ele>652.3</ele>
        <time>2021-08-18T16:12:32Z</time>
      </trkpt>
      <trkpt lat="44.57395" lon="2.62132">
        <ele>652</ele>
        <time>2021-08-18T16:12:34Z</time>
      </trkpt>
      <trkpt lat="44.57387" lon="2.6213">
        <ele>651.8</ele>
        <time>2021-08-18T16:12:36Z</time>
      </trkpt>
      <trkpt lat="44.57379" lon="2.62127">
        <ele>651.5</ele>
        <time>2021-08-18T16:12:38Z</time>
      </trkpt>
      <trkpt lat="44.57371" lon="2.62125">
        <ele>651.3</ele>
        <time>2021-08-18T16:12:40Z</time>
      </trkpt>
      <trkpt lat="44.57363" lon="2.62123">
        <ele>651</ele>
        <time>2021-08-18T16:12:42Z</time>
      </trkpt>
      <trkpt lat="44.57355" lon="2.62121">
        <ele>650.8</ele>
        <time>2021-08-18T16:12:44Z</time>
      </trkpt>
      <trkpt lat="44.57348" lon="2.6212">
        <ele>650.6</ele>
        <time>2021-08-18T16:12:46Z</time>
      </trkpt>
      <trkpt lat="44.5734" lon="2.62118">
        <ele>650.4</ele>
        <time>2021-08-18T16:12:48Z</time>
      </trkpt>
      <trkpt lat="44.57333" lon="2.62116">
        <ele>650.2</ele>
        <time>2021-08-18T16:12:50Z</time>
      </trkpt>
      <trkpt lat="44.57325" lon="2.62114">
        <ele>650.1</ele>
        <time>2021-08-18T16:12:52Z</time>
      </trkpt>
      <trkpt lat="44.57318" lon="2.62113">
        <ele>650</ele>
        <time>2021-08-18T16:12:54Z</time>
      </trkpt>
      <trkpt lat="44.57312" lon="2.6211">
        <ele>650</ele>
        <time>2021-08-18T16:12:56Z</time>
      </trkpt>
      <trkpt lat="44.57305" lon="2.62106">
        <ele>650.1</ele>
        <time>2021-08-18T16:12:58Z</time>
      </trkpt>
      <trkpt lat="44.573" lon="2.62101">
        <ele>650.3</ele>
        <time>2021-08-18T16:13:00Z</time>
      </trkpt>
      <trkpt lat="44.57295" lon="2.62095">
        <ele>650.6</ele>
        <time>2021-08-18T16:13:02Z</time>
      </trkpt>
      <trkpt lat="44.5729" lon="2.62088">
        <ele>651</ele>
        <time>2021-08-18T16:13:04Z</time>
      </trkpt>
      <trkpt lat="44.57286" lon="2.62082">
        <ele>651.4</ele>
        <time>2021-08-18T16:13:06Z</time>
      </trkpt>
      <trkpt lat="44.57283" lon="2.62073">
        <ele>651.8</ele>
        <time>2021-08-18T16:13:08Z</time>
      </trkpt>
      <trkpt lat="44.57279" lon="2.62065">
        <ele>652.1</ele>
        <time>2021-08-18T16:13:10Z</time>
      </trkpt>
      <trkpt lat="44.57276" lon="2.62056">
        <ele>652.5</ele>
        <time>2021-08-18T16:13:12Z</time>
      </trkpt>
      <trkpt lat="44.57273" lon="2.62046">
        <ele>652.8</ele>
        <time>2021-08-18T16:13:14Z</time>
      </trkpt>
      <trkpt lat="44.5727" lon="2.62037">
        <ele>653.1</ele>
        <time>2021-08-18T16:13:16Z</time>
      </trkpt>
      <trkpt lat="44.57268" lon="2.62028">
        <ele>653.4</ele>
        <time>2021-08-18T16:13:18Z</time>
      </trkpt>
      <trkpt lat="44.57265" lon="2.62018">
        <ele>653.6</ele>
        <time>2021-08-18T16:13:20Z</time>
      </trkpt>
      <trkpt lat="44.57262" lon="2.62007">
        <ele>653.8</ele>
        <time>2021-08-18T16:13:22Z</time>
      </trkpt>
      <trkpt lat="44.57259" lon="2.61997">
        <ele>654</ele>
        <time>2021-08-18T16:13:24Z</time>
      </trkpt>
      <trkpt lat="44.57256" lon="2.61987">
        <ele>654.3</ele>
        <time>2021-08-18T16:13:26Z</time>
      </trkpt>
      <trkpt lat="44.57253" lon="2.61979">
        <ele>654.5</ele>
        <time>2021-08-18T16:13:28Z</time>
      </trkpt>
      <trkpt lat="44.5725" lon="2.61971">
        <ele>654.7</ele>
        <time>2021-08-18T16:13:30Z</time>
      </trkpt>
      <trkpt lat="44.57247" lon="2.61963">
        <ele>655</ele>
        <time>2021-08-18T16:13:32Z</time>
      </trkpt>
      <trkpt lat="44.57244" lon="2.61957">
        <ele>655.2</ele>
        <time>2021-08-18T16:13:34Z</time>
      </trkpt>
      <trkpt lat="44.57241" lon="2.61952">
        <ele>655.4</ele>
        <time>2021-08-18T16:13:36Z</time>
      </trkpt>
      <trkpt lat="44.57239" lon="2.61948">
        <ele>655.5</ele>
        <time>2021-08-18T16:13:38Z</time>
      </trkpt>
      <trkpt lat="44.57238" lon="2.61946">
        <ele>655.5</ele>
        <time>2021-08-18T16:13:40Z</time>
      </trkpt>
      <trkpt lat="44.57238" lon="2.61946">
        <ele>655.5</ele>
        <time>2021-08-18T16:13:42Z</time>
      </trkpt>
      <trkpt lat="44.57238" lon="2.61946">
        <ele>655.5</ele>
        <time>2021-08-18T16:13:44Z</time>
      </trkpt>
      <trkpt lat="44.57238" lon="2.61947">
        <ele>655.5</ele>
        <time>2021-08-18T16:13:46Z</time>
      </trkpt>
      <trkpt lat="44.57238" lon="2.61947">
        <ele>655.4</ele>
        <time>2021-08-18T16:13:48Z</time>
      </trkpt>
      <trkpt lat="44.57233" lon="2.61937">
        <ele>655.7</ele>
        <time>2021-08-18T16:14:36Z</time>
      </trkpt>
      <trkpt lat="44.57231" lon="2.61932">
        <ele>655.8</ele>
        <time>2021-08-18T16:14:38Z</time>
      </trkpt>
      <trkpt lat="44.57228" lon="2.61927">
        <ele>655.9</ele>
        <time>2021-08-18T16:14:40Z</time>
      </trkpt>
      <trkpt lat="44.57225" lon="2.61923">
        <ele>655.9</ele>
        <time>2021-08-18T16:14:42Z</time>
      </trkpt>
      <trkpt lat="44.57222" lon="2.61917">
        <ele>656</ele>
        <time>2021-08-18T16:14:44Z</time>
      </trkpt>
      <trkpt lat="44.5722" lon="2.61911">
        <ele>655.8</ele>
        <time>2021-08-18T16:14:46Z</time>
      </trkpt>
      <trkpt lat="44.57217" lon="2.61905">
        <ele>655.6</ele>
        <time>2021-08-18T16:14:48Z</time>
      </trkpt>
      <trkpt lat="44.57215" lon="2.61902">
        <ele>655.4</ele>
        <time>2021-08-18T16:14:50Z</time>
      </trkpt>
      <trkpt lat="44.57214" lon="2.619">
        <ele>655.3</ele>
        <time>2021-08-18T16:14:52Z</time>
      </trkpt>
      <trkpt lat="44.57213" lon="2.61896">
        <ele>655.2</ele>
        <time>2021-08-18T16:14:54Z</time>
      </trkpt>
      <trkpt lat="44.57212" lon="2.61894">
        <ele>655.1</ele>
        <time>2021-08-18T16:14:56Z</time>
      </trkpt>
      <trkpt lat="44.57212" lon="2.61894">
        <ele>655.2</ele>
        <time>2021-08-18T16:14:58Z</time>
      </trkpt>
      <trkpt lat="44.57212" lon="2.61894">
        <ele>655.2</ele>
        <time>2021-08-18T16:15:00Z</time>
      </trkpt>
      <trkpt lat="44.57212" lon="2.61894">
        <ele>655.2</ele>
        <time>2021-08-18T16:15:02Z</time>
      </trkpt>
      <trkpt lat="44.57212" lon="2.61894">
        <ele>655.2</ele>
        <time>2021-08-18T16:15:04Z</time>
      </trkpt>
      <trkpt lat="44.57202" lon="2.61876">
        <ele>654.2</ele>
        <time>2021-08-18T16:15:14Z</time>
      </trkpt>
      <trkpt lat="44.57198" lon="2.6187">
        <ele>653.9</ele>
        <time>2021-08-18T16:15:16Z</time>
      </trkpt>
      <trkpt lat="44.57195" lon="2.61863">
        <ele>653.6</ele>
        <time>2021-08-18T16:15:18Z</time>
      </trkpt>
      <trkpt lat="44.57192" lon="2.61855">
        <ele>653.3</ele>
        <time>2021-08-18T16:15:20Z</time>
      </trkpt>
      <trkpt lat="44.57189" lon="2.61845">
        <ele>653</ele>
        <time>2021-08-18T16:15:22Z</time>
      </trkpt>
      <trkpt lat="44.57186" lon="2.61833">
        <ele>652.6</ele>
        <time>2021-08-18T16:15:24Z</time>
      </trkpt>
      <trkpt lat="44.57185" lon="2.61819">
        <ele>652.2</ele>
        <time>2021-08-18T16:15:26Z</time>
      </trkpt>
      <trkpt lat="44.57184" lon="2.61805">
        <ele>651.8</ele>
        <time>2021-08-18T16:15:28Z</time>
      </trkpt>
      <trkpt lat="44.57183" lon="2.61789">
        <ele>651.3</ele>
        <time>2021-08-18T16:15:30Z</time>
      </trkpt>
      <trkpt lat="44.57182" lon="2.61773">
        <ele>650.9</ele>
        <time>2021-08-18T16:15:32Z</time>
      </trkpt>
      <trkpt lat="44.57181" lon="2.61756">
        <ele>650.3</ele>
        <time>2021-08-18T16:15:34Z</time>
      </trkpt>
      <trkpt lat="44.5718" lon="2.61739">
        <ele>650</ele>
        <time>2021-08-18T16:15:36Z</time>
      </trkpt>
      <trkpt lat="44.57181" lon="2.61724">
        <ele>649.8</ele>
        <time>2021-08-18T16:15:38Z</time>
      </trkpt>
      <trkpt lat="44.5718" lon="2.61709">
        <ele>649.6</ele>
        <time>2021-08-18T16:15:40Z</time>
      </trkpt>
      <trkpt lat="44.57179" lon="2.61696">
        <ele>649.4</ele>
        <time>2021-08-18T16:15:42Z</time>
      </trkpt>
      <trkpt lat="44.57179" lon="2.61684">
        <ele>649.2</ele>
        <time>2021-08-18T16:15:44Z</time>
      </trkpt>
      <trkpt lat="44.57179" lon="2.61672">
        <ele>649.1</ele>
        <time>2021-08-18T16:15:46Z</time>
      </trkpt>
      <trkpt lat="44.5718" lon="2.61661">
        <ele>649.1</ele>
        <time>2021-08-18T16:15:48Z</time>
      </trkpt>
      <trkpt lat="44.57182" lon="2.6165">
        <ele>649.2</ele>
        <time>2021-08-18T16:15:50Z</time>
      </trkpt>
      <trkpt lat="44.57184" lon="2.6164">
        <ele>649.3</ele>
        <time>2021-08-18T16:15:52Z</time>
      </trkpt>
      <trkpt lat="44.57185" lon="2.61631">
        <ele>649.4</ele>
        <time>2021-08-18T16:15:54Z</time>
      </trkpt>
      <trkpt lat="44.57187" lon="2.61622">
        <ele>649.4</ele>
        <time>2021-08-18T16:15:56Z</time>
      </trkpt>
      <trkpt lat="44.57188" lon="2.61613">
        <ele>649.5</ele>
        <time>2021-08-18T16:15:58Z</time>
      </trkpt>
      <trkpt lat="44.5719" lon="2.61604">
        <ele>649.5</ele>
        <time>2021-08-18T16:16:00Z</time>
      </trkpt>
      <trkpt lat="44.57191" lon="2.61598">
        <ele>649.6</ele>
        <time>2021-08-18T16:16:02Z</time>
      </trkpt>
      <trkpt lat="44.57192" lon="2.61593">
        <ele>649.6</ele>
        <time>2021-08-18T16:16:04Z</time>
      </trkpt>
      <trkpt lat="44.57193" lon="2.61589">
        <ele>649.6</ele>
        <time>2021-08-18T16:16:06Z</time>
      </trkpt>
      <trkpt lat="44.57196" lon="2.61584">
        <ele>649.8</ele>
        <time>2021-08-18T16:16:08Z</time>
      </trkpt>
      <trkpt lat="44.572" lon="2.61578">
        <ele>649.8</ele>
        <time>2021-08-18T16:16:10Z</time>
      </trkpt>
      <trkpt lat="44.57204" lon="2.61571">
        <ele>649.8</ele>
        <time>2021-08-18T16:16:12Z</time>
      </trkpt>
      <trkpt lat="44.57208" lon="2.61565">
        <ele>649.8</ele>
        <time>2021-08-18T16:16:14Z</time>
      </trkpt>
      <trkpt lat="44.57214" lon="2.61559">
        <ele>650</ele>
        <time>2021-08-18T16:16:16Z</time>
      </trkpt>
      <trkpt lat="44.57218" lon="2.61553">
        <ele>650.2</ele>
        <time>2021-08-18T16:16:18Z</time>
      </trkpt>
      <trkpt lat="44.57223" lon="2.61548">
        <ele>650.4</ele>
        <time>2021-08-18T16:16:20Z</time>
      </trkpt>
      <trkpt lat="44.57228" lon="2.61542">
        <ele>650.7</ele>
        <time>2021-08-18T16:16:22Z</time>
      </trkpt>
      <trkpt lat="44.57233" lon="2.61536">
        <ele>651</ele>
        <time>2021-08-18T16:16:24Z</time>
      </trkpt>
      <trkpt lat="44.57239" lon="2.61531">
        <ele>651.4</ele>
        <time>2021-08-18T16:16:26Z</time>
      </trkpt>
      <trkpt lat="44.57244" lon="2.61526">
        <ele>651.7</ele>
        <time>2021-08-18T16:16:28Z</time>
      </trkpt>
      <trkpt lat="44.57248" lon="2.61522">
        <ele>652.1</ele>
        <time>2021-08-18T16:16:30Z</time>
      </trkpt>
      <trkpt lat="44.57253" lon="2.61518">
        <ele>652.6</ele>
        <time>2021-08-18T16:16:32Z</time>
      </trkpt>
      <trkpt lat="44.57256" lon="2.61513">
        <ele>653.1</ele>
        <time>2021-08-18T16:16:34Z</time>
      </trkpt>
      <trkpt lat="44.57259" lon="2.61508">
        <ele>653.6</ele>
        <time>2021-08-18T16:16:36Z</time>
      </trkpt>
      <trkpt lat="44.57262" lon="2.61503">
        <ele>654</ele>
        <time>2021-08-18T16:16:38Z</time>
      </trkpt>
      <trkpt lat="44.57264" lon="2.61497">
        <ele>654.5</ele>
        <time>2021-08-18T16:16:40Z</time>
      </trkpt>
      <trkpt lat="44.57266" lon="2.61491">
        <ele>655</ele>
        <time>2021-08-18T16:16:42Z</time>
      </trkpt>
      <trkpt lat="44.57268" lon="2.61485">
        <ele>655.4</ele>
        <time>2021-08-18T16:16:44Z</time>
      </trkpt>
      <trkpt lat="44.57268" lon="2.61479">
        <ele>655.8</ele>
        <time>2021-08-18T16:16:46Z</time>
      </trkpt>
      <trkpt lat="44.57269" lon="2.61473">
        <ele>656.1</ele>
        <time>2021-08-18T16:16:48Z</time>
      </trkpt>
      <trkpt lat="44.57269" lon="2.61467">
        <ele>656.3</ele>
        <time>2021-08-18T16:16:50Z</time>
      </trkpt>
      <trkpt lat="44.57269" lon="2.61461">
        <ele>656.5</ele>
        <time>2021-08-18T16:16:52Z</time>
      </trkpt>
      <trkpt lat="44.5727" lon="2.61455">
        <ele>656.8</ele>
        <time>2021-08-18T16:16:54Z</time>
      </trkpt>
      <trkpt lat="44.5727" lon="2.6145">
        <ele>657</ele>
        <time>2021-08-18T16:16:56Z</time>
      </trkpt>
      <trkpt lat="44.5727" lon="2.61444">
        <ele>657.2</ele>
        <time>2021-08-18T16:16:58Z</time>
      </trkpt>
      <trkpt lat="44.5727" lon="2.61439">
        <ele>657.4</ele>
        <time>2021-08-18T16:17:00Z</time>
      </trkpt>
      <trkpt lat="44.57271" lon="2.61434">
        <ele>657.6</ele>
        <time>2021-08-18T16:17:02Z</time>
      </trkpt>
      <trkpt lat="44.57271" lon="2.61429">
        <ele>657.9</ele>
        <time>2021-08-18T16:17:04Z</time>
      </trkpt>
      <trkpt lat="44.57272" lon="2.61425">
        <ele>658.2</ele>
        <time>2021-08-18T16:17:06Z</time>
      </trkpt>
      <trkpt lat="44.57274" lon="2.6142">
        <ele>658.6</ele>
        <time>2021-08-18T16:17:08Z</time>
      </trkpt>
      <trkpt lat="44.57275" lon="2.61416">
        <ele>658.9</ele>
        <time>2021-08-18T16:17:10Z</time>
      </trkpt>
      <trkpt lat="44.57276" lon="2.61411">
        <ele>658.9</ele>
        <time>2021-08-18T16:17:12Z</time>
      </trkpt>
      <trkpt lat="44.57277" lon="2.61406">
        <ele>658.9</ele>
        <time>2021-08-18T16:17:14Z</time>
      </trkpt>
      <trkpt lat="44.57278" lon="2.61401">
        <ele>659</ele>
        <time>2021-08-18T16:17:16Z</time>
      </trkpt>
      <trkpt lat="44.57279" lon="2.61397">
        <ele>659.1</ele>
        <time>2021-08-18T16:17:18Z</time>
      </trkpt>
      <trkpt lat="44.57281" lon="2.61391">
        <ele>659.2</ele>
        <time>2021-08-18T16:17:20Z</time>
      </trkpt>
      <trkpt lat="44.57283" lon="2.61386">
        <ele>659.4</ele>
        <time>2021-08-18T16:17:22Z</time>
      </trkpt>
      <trkpt lat="44.57284" lon="2.61381">
        <ele>659.5</ele>
        <time>2021-08-18T16:17:24Z</time>
      </trkpt>
      <trkpt lat="44.57285" lon="2.61376">
        <ele>659.6</ele>
        <time>2021-08-18T16:17:26Z</time>
      </trkpt>
      <trkpt lat="44.57286" lon="2.61371">
        <ele>659.7</ele>
        <time>2021-08-18T16:17:28Z</time>
      </trkpt>
      <trkpt lat="44.57287" lon="2.61366">
        <ele>659.8</ele>
        <time>2021-08-18T16:17:30Z</time>
      </trkpt>
      <trkpt lat="44.57289" lon="2.61361">
        <ele>660</ele>
        <time>2021-08-18T16:17:32Z</time>
      </trkpt>
      <trkpt lat="44.5729" lon="2.61356">
        <ele>660.2</ele>
        <time>2021-08-18T16:17:34Z</time>
      </trkpt>
      <trkpt lat="44.57292" lon="2.61352">
        <ele>660.3</ele>
        <time>2021-08-18T16:17:36Z</time>
      </trkpt>
      <trkpt lat="44.57293" lon="2.61347">
        <ele>660.4</ele>
        <time>2021-08-18T16:17:38Z</time>
      </trkpt>
      <trkpt lat="44.57294" lon="2.61342">
        <ele>660.7</ele>
        <time>2021-08-18T16:17:40Z</time>
      </trkpt>
      <trkpt lat="44.57296" lon="2.61338">
        <ele>660.9</ele>
        <time>2021-08-18T16:17:42Z</time>
      </trkpt>
      <trkpt lat="44.57298" lon="2.61333">
        <ele>661.2</ele>
        <time>2021-08-18T16:17:44Z</time>
      </trkpt>
      <trkpt lat="44.57299" lon="2.61328">
        <ele>661.5</ele>
        <time>2021-08-18T16:17:46Z</time>
      </trkpt>
      <trkpt lat="44.573" lon="2.61323">
        <ele>661.8</ele>
        <time>2021-08-18T16:17:48Z</time>
      </trkpt>
      <trkpt lat="44.57302" lon="2.61318">
        <ele>662.2</ele>
        <time>2021-08-18T16:17:50Z</time>
      </trkpt>
      <trkpt lat="44.57303" lon="2.61313">
        <ele>662.6</ele>
        <time>2021-08-18T16:17:52Z</time>
      </trkpt>
      <trkpt lat="44.57305" lon="2.61308">
        <ele>663</ele>
        <time>2021-08-18T16:17:54Z</time>
      </trkpt>
      <trkpt lat="44.57306" lon="2.61303">
        <ele>663.3</ele>
        <time>2021-08-18T16:17:56Z</time>
      </trkpt>
      <trkpt lat="44.57307" lon="2.61297">
        <ele>663.5</ele>
        <time>2021-08-18T16:17:58Z</time>
      </trkpt>
      <trkpt lat="44.57307" lon="2.61292">
        <ele>663.6</ele>
        <time>2021-08-18T16:18:00Z</time>
      </trkpt>
      <trkpt lat="44.57308" lon="2.61287">
        <ele>663.8</ele>
        <time>2021-08-18T16:18:02Z</time>
      </trkpt>
      <trkpt lat="44.57309" lon="2.61281">
        <ele>664</ele>
        <time>2021-08-18T16:18:04Z</time>
      </trkpt>
      <trkpt lat="44.57309" lon="2.61276">
        <ele>664.1</ele>
        <time>2021-08-18T16:18:06Z</time>
      </trkpt>
      <trkpt lat="44.5731" lon="2.61271">
        <ele>664.3</ele>
        <time>2021-08-18T16:18:08Z</time>
      </trkpt>
      <trkpt lat="44.5731" lon="2.61266">
        <ele>664.4</ele>
        <time>2021-08-18T16:18:10Z</time>
      </trkpt>
      <trkpt lat="44.57309" lon="2.6126">
        <ele>664.4</ele>
        <time>2021-08-18T16:18:12Z</time>
      </trkpt>
      <trkpt lat="44.57309" lon="2.61255">
        <ele>664.5</ele>
        <time>2021-08-18T16:18:14Z</time>
      </trkpt>
      <trkpt lat="44.57309" lon="2.6125">
        <ele>664.5</ele>
        <time>2021-08-18T16:18:16Z</time>
      </trkpt>
      <trkpt lat="44.57308" lon="2.61245">
        <ele>664.8</ele>
        <time>2021-08-18T16:18:18Z</time>
      </trkpt>
      <trkpt lat="44.57308" lon="2.6124">
        <ele>665.2</ele>
        <time>2021-08-18T16:18:20Z</time>
      </trkpt>
      <trkpt lat="44.57307" lon="2.61235">
        <ele>665.5</ele>
        <time>2021-08-18T16:18:22Z</time>
      </trkpt>
      <trkpt lat="44.57306" lon="2.6123">
        <ele>665.7</ele>
        <time>2021-08-18T16:18:24Z</time>
      </trkpt>
      <trkpt lat="44.57306" lon="2.61225">
        <ele>666.1</ele>
        <time>2021-08-18T16:18:26Z</time>
      </trkpt>
      <trkpt lat="44.57304" lon="2.6122">
        <ele>666.3</ele>
        <time>2021-08-18T16:18:28Z</time>
      </trkpt>
      <trkpt lat="44.57303" lon="2.61215">
        <ele>666.6</ele>
        <time>2021-08-18T16:18:30Z</time>
      </trkpt>
      <trkpt lat="44.57301" lon="2.6121">
        <ele>666.8</ele>
        <time>2021-08-18T16:18:32Z</time>
      </trkpt>
      <trkpt lat="44.573" lon="2.61205">
        <ele>667.1</ele>
        <time>2021-08-18T16:18:34Z</time>
      </trkpt>
      <trkpt lat="44.57298" lon="2.612">
        <ele>667.3</ele>
        <time>2021-08-18T16:18:36Z</time>
      </trkpt>
      <trkpt lat="44.57297" lon="2.61195">
        <ele>667.5</ele>
        <time>2021-08-18T16:18:38Z</time>
      </trkpt>
      <trkpt lat="44.57295" lon="2.61191">
        <ele>667.7</ele>
        <time>2021-08-18T16:18:40Z</time>
      </trkpt>
      <trkpt lat="44.57293" lon="2.61187">
        <ele>667.9</ele>
        <time>2021-08-18T16:18:42Z</time>
      </trkpt>
      <trkpt lat="44.57291" lon="2.61182">
        <ele>668.1</ele>
        <time>2021-08-18T16:18:44Z</time>
      </trkpt>
      <trkpt lat="44.5729" lon="2.61178">
        <ele>668.3</ele>
        <time>2021-08-18T16:18:46Z</time>
      </trkpt>
      <trkpt lat="44.57288" lon="2.61173">
        <ele>668.6</ele>
        <time>2021-08-18T16:18:48Z</time>
      </trkpt>
      <trkpt lat="44.57286" lon="2.61168">
        <ele>668.8</ele>
        <time>2021-08-18T16:18:50Z</time>
      </trkpt>
      <trkpt lat="44.57284" lon="2.61164">
        <ele>668.9</ele>
        <time>2021-08-18T16:18:52Z</time>
      </trkpt>
      <trkpt lat="44.57283" lon="2.61159">
        <ele>668.9</ele>
        <time>2021-08-18T16:18:54Z</time>
      </trkpt>
      <trkpt lat="44.57281" lon="2.61154">
        <ele>669</ele>
        <time>2021-08-18T16:18:56Z</time>
      </trkpt>
      <trkpt lat="44.57279" lon="2.61149">
        <ele>669.1</ele>
        <time>2021-08-18T16:18:58Z</time>
      </trkpt>
      <trkpt lat="44.57277" lon="2.61145">
        <ele>669.1</ele>
        <time>2021-08-18T16:19:00Z</time>
      </trkpt>
      <trkpt lat="44.57275" lon="2.6114">
        <ele>669.1</ele>
        <time>2021-08-18T16:19:02Z</time>
      </trkpt>
      <trkpt lat="44.57273" lon="2.61135">
        <ele>669.1</ele>
        <time>2021-08-18T16:19:04Z</time>
      </trkpt>
      <trkpt lat="44.57271" lon="2.6113">
        <ele>669.2</ele>
        <time>2021-08-18T16:19:06Z</time>
      </trkpt>
      <trkpt lat="44.57268" lon="2.61126">
        <ele>669.2</ele>
        <time>2021-08-18T16:19:08Z</time>
      </trkpt>
      <trkpt lat="44.57266" lon="2.61121">
        <ele>669.2</ele>
        <time>2021-08-18T16:19:10Z</time>
      </trkpt>
      <trkpt lat="44.57262" lon="2.61117">
        <ele>669.1</ele>
        <time>2021-08-18T16:19:12Z</time>
      </trkpt>
      <trkpt lat="44.57259" lon="2.61112">
        <ele>669.1</ele>
        <time>2021-08-18T16:19:14Z</time>
      </trkpt>
      <trkpt lat="44.57255" lon="2.61107">
        <ele>669</ele>
        <time>2021-08-18T16:19:16Z</time>
      </trkpt>
      <trkpt lat="44.57252" lon="2.61102">
        <ele>669</ele>
        <time>2021-08-18T16:19:18Z</time>
      </trkpt>
      <trkpt lat="44.57248" lon="2.61097">
        <ele>669</ele>
        <time>2021-08-18T16:19:20Z</time>
      </trkpt>
      <trkpt lat="44.57244" lon="2.61092">
        <ele>669</ele>
        <time>2021-08-18T16:19:22Z</time>
      </trkpt>
      <trkpt lat="44.5724" lon="2.61086">
        <ele>669</ele>
        <time>2021-08-18T16:19:24Z</time>
      </trkpt>
      <trkpt lat="44.57236" lon="2.61081">
        <ele>669</ele>
        <time>2021-08-18T16:19:26Z</time>
      </trkpt>
      <trkpt lat="44.57232" lon="2.61075">
        <ele>669.1</ele>
        <time>2021-08-18T16:19:28Z</time>
      </trkpt>
      <trkpt lat="44.57228" lon="2.61069">
        <ele>669.2</ele>
        <time>2021-08-18T16:19:30Z</time>
      </trkpt>
      <trkpt lat="44.57224" lon="2.61062">
        <ele>669.4</ele>
        <time>2021-08-18T16:19:32Z</time>
      </trkpt>
      <trkpt lat="44.57219" lon="2.61056">
        <ele>669.6</ele>
        <time>2021-08-18T16:19:34Z</time>
      </trkpt>
      <trkpt lat="44.57214" lon="2.6105">
        <ele>669.7</ele>
        <time>2021-08-18T16:19:36Z</time>
      </trkpt>
      <trkpt lat="44.5721" lon="2.61044">
        <ele>669.9</ele>
        <time>2021-08-18T16:19:38Z</time>
      </trkpt>
      <trkpt lat="44.57206" lon="2.61039">
        <ele>670.1</ele>
        <time>2021-08-18T16:19:40Z</time>
      </trkpt>
      <trkpt lat="44.57202" lon="2.61032">
        <ele>670.5</ele>
        <time>2021-08-18T16:19:42Z</time>
      </trkpt>
      <trkpt lat="44.57197" lon="2.61027">
        <ele>670.6</ele>
        <time>2021-08-18T16:19:44Z</time>
      </trkpt>
      <trkpt lat="44.57194" lon="2.61021">
        <ele>671.1</ele>
        <time>2021-08-18T16:19:46Z</time>
      </trkpt>
      <trkpt lat="44.57189" lon="2.61015">
        <ele>671.4</ele>
        <time>2021-08-18T16:19:48Z</time>
      </trkpt>
      <trkpt lat="44.57185" lon="2.6101">
        <ele>671.6</ele>
        <time>2021-08-18T16:19:50Z</time>
      </trkpt>
      <trkpt lat="44.5718" lon="2.61005">
        <ele>672</ele>
        <time>2021-08-18T16:19:52Z</time>
      </trkpt>
      <trkpt lat="44.57176" lon="2.61">
        <ele>672.3</ele>
        <time>2021-08-18T16:19:54Z</time>
      </trkpt>
      <trkpt lat="44.57169" lon="2.60996">
        <ele>672.3</ele>
        <time>2021-08-18T16:19:56Z</time>
      </trkpt>
      <trkpt lat="44.57162" lon="2.60991">
        <ele>671.9</ele>
        <time>2021-08-18T16:19:58Z</time>
      </trkpt>
      <trkpt lat="44.57154" lon="2.60984">
        <ele>671.3</ele>
        <time>2021-08-18T16:20:00Z</time>
      </trkpt>
      <trkpt lat="44.57147" lon="2.60981">
        <ele>670.8</ele>
        <time>2021-08-18T16:20:02Z</time>
      </trkpt>
      <trkpt lat="44.57142" lon="2.60978">
        <ele>670.3</ele>
        <time>2021-08-18T16:20:04Z</time>
      </trkpt>
      <trkpt lat="44.57135" lon="2.60973">
        <ele>669.8</ele>
        <time>2021-08-18T16:20:06Z</time>
      </trkpt>
      <trkpt lat="44.57129" lon="2.60968">
        <ele>669.3</ele>
        <time>2021-08-18T16:20:08Z</time>
      </trkpt>
      <trkpt lat="44.57122" lon="2.60964">
        <ele>668.8</ele>
        <time>2021-08-18T16:20:10Z</time>
      </trkpt>
      <trkpt lat="44.57115" lon="2.60959">
        <ele>668.2</ele>
        <time>2021-08-18T16:20:12Z</time>
      </trkpt>
      <trkpt lat="44.57107" lon="2.60954">
        <ele>667.6</ele>
        <time>2021-08-18T16:20:14Z</time>
      </trkpt>
      <trkpt lat="44.571" lon="2.60949">
        <ele>666.9</ele>
        <time>2021-08-18T16:20:16Z</time>
      </trkpt>
      <trkpt lat="44.57092" lon="2.60944">
        <ele>666.2</ele>
        <time>2021-08-18T16:20:18Z</time>
      </trkpt>
      <trkpt lat="44.57084" lon="2.60939">
        <ele>665.5</ele>
        <time>2021-08-18T16:20:20Z</time>
      </trkpt>
      <trkpt lat="44.57076" lon="2.60932">
        <ele>664.9</ele>
        <time>2021-08-18T16:20:22Z</time>
      </trkpt>
      <trkpt lat="44.57069" lon="2.60922">
        <ele>664.3</ele>
        <time>2021-08-18T16:20:24Z</time>
      </trkpt>
      <trkpt lat="44.57067" lon="2.60909">
        <ele>663.6</ele>
        <time>2021-08-18T16:20:26Z</time>
      </trkpt>
      <trkpt lat="44.57069" lon="2.60894">
        <ele>662.9</ele>
        <time>2021-08-18T16:20:28Z</time>
      </trkpt>
      <trkpt lat="44.57073" lon="2.6088">
        <ele>662.6</ele>
        <time>2021-08-18T16:20:30Z</time>
      </trkpt>
      <trkpt lat="44.57078" lon="2.60864">
        <ele>662.6</ele>
        <time>2021-08-18T16:20:32Z</time>
      </trkpt>
      <trkpt lat="44.57084" lon="2.60849">
        <ele>662.8</ele>
        <time>2021-08-18T16:20:34Z</time>
      </trkpt>
      <trkpt lat="44.5709" lon="2.60833">
        <ele>662.7</ele>
        <time>2021-08-18T16:20:36Z</time>
      </trkpt>
      <trkpt lat="44.57096" lon="2.60817">
        <ele>661.5</ele>
        <time>2021-08-18T16:20:38Z</time>
      </trkpt>
      <trkpt lat="44.57101" lon="2.60799">
        <ele>660.2</ele>
        <time>2021-08-18T16:20:40Z</time>
      </trkpt>
      <trkpt lat="44.57105" lon="2.6078">
        <ele>658.5</ele>
        <time>2021-08-18T16:20:42Z</time>
      </trkpt>
      <trkpt lat="44.57106" lon="2.60761">
        <ele>656.6</ele>
        <time>2021-08-18T16:20:44Z</time>
      </trkpt>
      <trkpt lat="44.57108" lon="2.60742">
        <ele>655.3</ele>
        <time>2021-08-18T16:20:46Z</time>
      </trkpt>
      <trkpt lat="44.5711" lon="2.60724">
        <ele>654.7</ele>
        <time>2021-08-18T16:20:48Z</time>
      </trkpt>
      <trkpt lat="44.57112" lon="2.60705">
        <ele>654.1</ele>
        <time>2021-08-18T16:20:50Z</time>
      </trkpt>
      <trkpt lat="44.57114" lon="2.60688">
        <ele>653.5</ele>
        <time>2021-08-18T16:20:52Z</time>
      </trkpt>
      <trkpt lat="44.57115" lon="2.60672">
        <ele>652.9</ele>
        <time>2021-08-18T16:20:54Z</time>
      </trkpt>
      <trkpt lat="44.57117" lon="2.60655">
        <ele>652.4</ele>
        <time>2021-08-18T16:20:56Z</time>
      </trkpt>
      <trkpt lat="44.57119" lon="2.60639">
        <ele>651.9</ele>
        <time>2021-08-18T16:20:58Z</time>
      </trkpt>
      <trkpt lat="44.57123" lon="2.60622">
        <ele>651.5</ele>
        <time>2021-08-18T16:21:00Z</time>
      </trkpt>
      <trkpt lat="44.57128" lon="2.60605">
        <ele>651.1</ele>
        <time>2021-08-18T16:21:02Z</time>
      </trkpt>
      <trkpt lat="44.57133" lon="2.60587">
        <ele>650.5</ele>
        <time>2021-08-18T16:21:04Z</time>
      </trkpt>
      <trkpt lat="44.57138" lon="2.60567">
        <ele>649.4</ele>
        <time>2021-08-18T16:21:06Z</time>
      </trkpt>
      <trkpt lat="44.5714" lon="2.60542">
        <ele>647.7</ele>
        <time>2021-08-18T16:21:08Z</time>
      </trkpt>
      <trkpt lat="44.57137" lon="2.60513">
        <ele>645.6</ele>
        <time>2021-08-18T16:21:10Z</time>
      </trkpt>
      <trkpt lat="44.57131" lon="2.60487">
        <ele>644.5</ele>
        <time>2021-08-18T16:21:12Z</time>
      </trkpt>
      <trkpt lat="44.57119" lon="2.60461">
        <ele>644</ele>
        <time>2021-08-18T16:21:14Z</time>
      </trkpt>
      <trkpt lat="44.57117" lon="2.60438">
        <ele>644.1</ele>
        <time>2021-08-18T16:21:16Z</time>
      </trkpt>
      <trkpt lat="44.57111" lon="2.60418">
        <ele>643.6</ele>
        <time>2021-08-18T16:21:18Z</time>
      </trkpt>
      <trkpt lat="44.57106" lon="2.604">
        <ele>643.4</ele>
        <time>2021-08-18T16:21:20Z</time>
      </trkpt>
      <trkpt lat="44.57101" lon="2.60384">
        <ele>643.1</ele>
        <time>2021-08-18T16:21:22Z</time>
      </trkpt>
      <trkpt lat="44.57098" lon="2.6037">
        <ele>642.8</ele>
        <time>2021-08-18T16:21:24Z</time>
      </trkpt>
      <trkpt lat="44.57096" lon="2.60356">
        <ele>642.7</ele>
        <time>2021-08-18T16:21:26Z</time>
      </trkpt>
      <trkpt lat="44.57095" lon="2.60343">
        <ele>642.7</ele>
        <time>2021-08-18T16:21:28Z</time>
      </trkpt>
      <trkpt lat="44.57095" lon="2.60331">
        <ele>642.8</ele>
        <time>2021-08-18T16:21:30Z</time>
      </trkpt>
      <trkpt lat="44.57095" lon="2.60319">
        <ele>643.1</ele>
        <time>2021-08-18T16:21:32Z</time>
      </trkpt>
      <trkpt lat="44.57094" lon="2.60308">
        <ele>643.3</ele>
        <time>2021-08-18T16:21:34Z</time>
      </trkpt>
      <trkpt lat="44.57094" lon="2.60297">
        <ele>643.6</ele>
        <time>2021-08-18T16:21:36Z</time>
      </trkpt>
      <trkpt lat="44.57093" lon="2.60286">
        <ele>643.8</ele>
        <time>2021-08-18T16:21:38Z</time>
      </trkpt>
      <trkpt lat="44.57092" lon="2.60275">
        <ele>644</ele>
        <time>2021-08-18T16:21:40Z</time>
      </trkpt>
      <trkpt lat="44.57091" lon="2.60265">
        <ele>644.1</ele>
        <time>2021-08-18T16:21:42Z</time>
      </trkpt>
      <trkpt lat="44.5709" lon="2.60256">
        <ele>644.4</ele>
        <time>2021-08-18T16:21:44Z</time>
      </trkpt>
      <trkpt lat="44.57089" lon="2.60247">
        <ele>644.8</ele>
        <time>2021-08-18T16:21:46Z</time>
      </trkpt>
      <trkpt lat="44.57087" lon="2.6024">
        <ele>645.7</ele>
        <time>2021-08-18T16:21:48Z</time>
      </trkpt>
      <trkpt lat="44.57086" lon="2.60234">
        <ele>646.5</ele>
        <time>2021-08-18T16:21:50Z</time>
      </trkpt>
      <trkpt lat="44.57084" lon="2.60228">
        <ele>647.2</ele>
        <time>2021-08-18T16:21:52Z</time>
      </trkpt>
      <trkpt lat="44.57081" lon="2.60222">
        <ele>647.9</ele>
        <time>2021-08-18T16:21:54Z</time>
      </trkpt>
      <trkpt lat="44.57079" lon="2.60217">
        <ele>648.6</ele>
        <time>2021-08-18T16:21:56Z</time>
      </trkpt>
      <trkpt lat="44.57076" lon="2.60212">
        <ele>649.2</ele>
        <time>2021-08-18T16:21:58Z</time>
      </trkpt>
      <trkpt lat="44.57073" lon="2.60208">
        <ele>649.7</ele>
        <time>2021-08-18T16:22:00Z</time>
      </trkpt>
      <trkpt lat="44.5707" lon="2.60204">
        <ele>650.2</ele>
        <time>2021-08-18T16:22:02Z</time>
      </trkpt>
      <trkpt lat="44.57067" lon="2.602">
        <ele>650.6</ele>
        <time>2021-08-18T16:22:04Z</time>
      </trkpt>
      <trkpt lat="44.57065" lon="2.60196">
        <ele>651.1</ele>
        <time>2021-08-18T16:22:06Z</time>
      </trkpt>
      <trkpt lat="44.57062" lon="2.60193">
        <ele>651.5</ele>
        <time>2021-08-18T16:22:08Z</time>
      </trkpt>
      <trkpt lat="44.5706" lon="2.60189">
        <ele>651.9</ele>
        <time>2021-08-18T16:22:10Z</time>
      </trkpt>
      <trkpt lat="44.57057" lon="2.60185">
        <ele>652.3</ele>
        <time>2021-08-18T16:22:12Z</time>
      </trkpt>
      <trkpt lat="44.57054" lon="2.60182">
        <ele>652.6</ele>
        <time>2021-08-18T16:22:14Z</time>
      </trkpt>
      <trkpt lat="44.57052" lon="2.60178">
        <ele>653</ele>
        <time>2021-08-18T16:22:16Z</time>
      </trkpt>
      <trkpt lat="44.5705" lon="2.60174">
        <ele>653.4</ele>
        <time>2021-08-18T16:22:18Z</time>
      </trkpt>
      <trkpt lat="44.57047" lon="2.6017">
        <ele>653.8</ele>
        <time>2021-08-18T16:22:20Z</time>
      </trkpt>
      <trkpt lat="44.57045" lon="2.60167">
        <ele>654.2</ele>
        <time>2021-08-18T16:22:22Z</time>
      </trkpt>
      <trkpt lat="44.57042" lon="2.60163">
        <ele>654.2</ele>
        <time>2021-08-18T16:22:24Z</time>
      </trkpt>
      <trkpt lat="44.5704" lon="2.60159">
        <ele>654.3</ele>
        <time>2021-08-18T16:22:26Z</time>
      </trkpt>
      <trkpt lat="44.57038" lon="2.60155">
        <ele>654.5</ele>
        <time>2021-08-18T16:22:28Z</time>
      </trkpt>
      <trkpt lat="44.57036" lon="2.6015">
        <ele>654.6</ele>
        <time>2021-08-18T16:22:30Z</time>
      </trkpt>
      <trkpt lat="44.57034" lon="2.60146">
        <ele>654.7</ele>
        <time>2021-08-18T16:22:32Z</time>
      </trkpt>
      <trkpt lat="44.57033" lon="2.60141">
        <ele>654.9</ele>
        <time>2021-08-18T16:22:34Z</time>
      </trkpt>
      <trkpt lat="44.57031" lon="2.60136">
        <ele>655.1</ele>
        <time>2021-08-18T16:22:36Z</time>
      </trkpt>
      <trkpt lat="44.5703" lon="2.60131">
        <ele>655.3</ele>
        <time>2021-08-18T16:22:38Z</time>
      </trkpt>
      <trkpt lat="44.5703" lon="2.60125">
        <ele>655.6</ele>
        <time>2021-08-18T16:22:40Z</time>
      </trkpt>
      <trkpt lat="44.57029" lon="2.60119">
        <ele>655.9</ele>
        <time>2021-08-18T16:22:42Z</time>
      </trkpt>
      <trkpt lat="44.57029" lon="2.60113">
        <ele>656.2</ele>
        <time>2021-08-18T16:22:44Z</time>
      </trkpt>
      <trkpt lat="44.57029" lon="2.60106">
        <ele>656.6</ele>
        <time>2021-08-18T16:22:46Z</time>
      </trkpt>
      <trkpt lat="44.5703" lon="2.60099">
        <ele>657</ele>
        <time>2021-08-18T16:22:48Z</time>
      </trkpt>
      <trkpt lat="44.5703" lon="2.60092">
        <ele>657.3</ele>
        <time>2021-08-18T16:22:50Z</time>
      </trkpt>
      <trkpt lat="44.5703" lon="2.60085">
        <ele>657.7</ele>
        <time>2021-08-18T16:22:52Z</time>
      </trkpt>
      <trkpt lat="44.57031" lon="2.60078">
        <ele>657.9</ele>
        <time>2021-08-18T16:22:54Z</time>
      </trkpt>
      <trkpt lat="44.57032" lon="2.60071">
        <ele>657.9</ele>
        <time>2021-08-18T16:22:56Z</time>
      </trkpt>
      <trkpt lat="44.57033" lon="2.60064">
        <ele>657.9</ele>
        <time>2021-08-18T16:22:58Z</time>
      </trkpt>
      <trkpt lat="44.57033" lon="2.60057">
        <ele>657.9</ele>
        <time>2021-08-18T16:23:00Z</time>
      </trkpt>
      <trkpt lat="44.57033" lon="2.6005">
        <ele>657.9</ele>
        <time>2021-08-18T16:23:02Z</time>
      </trkpt>
      <trkpt lat="44.57034" lon="2.60043">
        <ele>657.9</ele>
        <time>2021-08-18T16:23:04Z</time>
      </trkpt>
      <trkpt lat="44.57034" lon="2.60036">
        <ele>657.9</ele>
        <time>2021-08-18T16:23:06Z</time>
      </trkpt>
      <trkpt lat="44.57034" lon="2.60029">
        <ele>657.9</ele>
        <time>2021-08-18T16:23:08Z</time>
      </trkpt>
      <trkpt lat="44.57035" lon="2.60023">
        <ele>657.9</ele>
        <time>2021-08-18T16:23:10Z</time>
      </trkpt>
      <trkpt lat="44.57035" lon="2.60017">
        <ele>657.9</ele>
        <time>2021-08-18T16:23:12Z</time>
      </trkpt>
      <trkpt lat="44.57035" lon="2.60012">
        <ele>657.9</ele>
        <time>2021-08-18T16:23:14Z</time>
      </trkpt>
      <trkpt lat="44.57036" lon="2.60009">
        <ele>657.9</ele>
        <time>2021-08-18T16:23:16Z</time>
      </trkpt>
      <trkpt lat="44.57037" lon="2.60004">
        <ele>657.9</ele>
        <time>2021-08-18T16:23:18Z</time>
      </trkpt>
      <trkpt lat="44.57037" lon="2.59999">
        <ele>657.9</ele>
        <time>2021-08-18T16:23:20Z</time>
      </trkpt>
      <trkpt lat="44.57038" lon="2.59995">
        <ele>657.7</ele>
        <time>2021-08-18T16:23:22Z</time>
      </trkpt>
      <trkpt lat="44.57037" lon="2.59992">
        <ele>657.6</ele>
        <time>2021-08-18T16:23:24Z</time>
      </trkpt>
      <trkpt lat="44.57036" lon="2.59989">
        <ele>657.4</ele>
        <time>2021-08-18T16:23:26Z</time>
      </trkpt>
      <trkpt lat="44.57036" lon="2.59984">
        <ele>657.2</ele>
        <time>2021-08-18T16:23:28Z</time>
      </trkpt>
      <trkpt lat="44.57036" lon="2.59978">
        <ele>657</ele>
        <time>2021-08-18T16:23:30Z</time>
      </trkpt>
      <trkpt lat="44.57037" lon="2.5997">
        <ele>656.7</ele>
        <time>2021-08-18T16:23:32Z</time>
      </trkpt>
      <trkpt lat="44.57038" lon="2.5996">
        <ele>656.3</ele>
        <time>2021-08-18T16:23:34Z</time>
      </trkpt>
      <trkpt lat="44.5704" lon="2.5995">
        <ele>655.9</ele>
        <time>2021-08-18T16:23:36Z</time>
      </trkpt>
      <trkpt lat="44.57041" lon="2.59938">
        <ele>655.4</ele>
        <time>2021-08-18T16:23:38Z</time>
      </trkpt>
      <trkpt lat="44.57042" lon="2.59927">
        <ele>654.9</ele>
        <time>2021-08-18T16:23:40Z</time>
      </trkpt>
      <trkpt lat="44.57044" lon="2.59916">
        <ele>654.5</ele>
        <time>2021-08-18T16:23:42Z</time>
      </trkpt>
      <trkpt lat="44.57045" lon="2.59907">
        <ele>654.4</ele>
        <time>2021-08-18T16:23:44Z</time>
      </trkpt>
      <trkpt lat="44.57046" lon="2.599">
        <ele>654.4</ele>
        <time>2021-08-18T16:23:46Z</time>
      </trkpt>
      <trkpt lat="44.57047" lon="2.59894">
        <ele>654.4</ele>
        <time>2021-08-18T16:23:48Z</time>
      </trkpt>
      <trkpt lat="44.57048" lon="2.59889">
        <ele>654.4</ele>
        <time>2021-08-18T16:23:50Z</time>
      </trkpt>
      <trkpt lat="44.57049" lon="2.59884">
        <ele>654.4</ele>
        <time>2021-08-18T16:23:52Z</time>
      </trkpt>
      <trkpt lat="44.5705" lon="2.59878">
        <ele>654.4</ele>
        <time>2021-08-18T16:23:54Z</time>
      </trkpt>
      <trkpt lat="44.57051" lon="2.59872">
        <ele>654.4</ele>
        <time>2021-08-18T16:23:56Z</time>
      </trkpt>
      <trkpt lat="44.57052" lon="2.59864">
        <ele>654.4</ele>
        <time>2021-08-18T16:23:58Z</time>
      </trkpt>
      <trkpt lat="44.57052" lon="2.59856">
        <ele>654.5</ele>
        <time>2021-08-18T16:24:00Z</time>
      </trkpt>
      <trkpt lat="44.57053" lon="2.59849">
        <ele>654.5</ele>
        <time>2021-08-18T16:24:02Z</time>
      </trkpt>
      <trkpt lat="44.57054" lon="2.59842">
        <ele>654.6</ele>
        <time>2021-08-18T16:24:04Z</time>
      </trkpt>
      <trkpt lat="44.57055" lon="2.59836">
        <ele>654.6</ele>
        <time>2021-08-18T16:24:06Z</time>
      </trkpt>
      <trkpt lat="44.57056" lon="2.59829">
        <ele>654.9</ele>
        <time>2021-08-18T16:24:08Z</time>
      </trkpt>
      <trkpt lat="44.57056" lon="2.59823">
        <ele>655.2</ele>
        <time>2021-08-18T16:24:10Z</time>
      </trkpt>
      <trkpt lat="44.57057" lon="2.59816">
        <ele>655.5</ele>
        <time>2021-08-18T16:24:12Z</time>
      </trkpt>
      <trkpt lat="44.57058" lon="2.5981">
        <ele>655.8</ele>
        <time>2021-08-18T16:24:14Z</time>
      </trkpt>
      <trkpt lat="44.57058" lon="2.59803">
        <ele>656.1</ele>
        <time>2021-08-18T16:24:16Z</time>
      </trkpt>
      <trkpt lat="44.57059" lon="2.59797">
        <ele>656.4</ele>
        <time>2021-08-18T16:24:18Z</time>
      </trkpt>
      <trkpt lat="44.57059" lon="2.5979">
        <ele>656.7</ele>
        <time>2021-08-18T16:24:20Z</time>
      </trkpt>
      <trkpt lat="44.57059" lon="2.59784">
        <ele>657.1</ele>
        <time>2021-08-18T16:24:22Z</time>
      </trkpt>
      <trkpt lat="44.5706" lon="2.59777">
        <ele>657.4</ele>
        <time>2021-08-18T16:24:24Z</time>
      </trkpt>
      <trkpt lat="44.57061" lon="2.5977">
        <ele>657.8</ele>
        <time>2021-08-18T16:24:26Z</time>
      </trkpt>
      <trkpt lat="44.57062" lon="2.59763">
        <ele>658.1</ele>
        <time>2021-08-18T16:24:28Z</time>
      </trkpt>
      <trkpt lat="44.57062" lon="2.59756">
        <ele>658.4</ele>
        <time>2021-08-18T16:24:30Z</time>
      </trkpt>
      <trkpt lat="44.57062" lon="2.59749">
        <ele>658.8</ele>
        <time>2021-08-18T16:24:32Z</time>
      </trkpt>
      <trkpt lat="44.57062" lon="2.59741">
        <ele>659</ele>
        <time>2021-08-18T16:24:34Z</time>
      </trkpt>
      <trkpt lat="44.57063" lon="2.59733">
        <ele>659.2</ele>
        <time>2021-08-18T16:24:36Z</time>
      </trkpt>
      <trkpt lat="44.57063" lon="2.59725">
        <ele>659.4</ele>
        <time>2021-08-18T16:24:38Z</time>
      </trkpt>
      <trkpt lat="44.57063" lon="2.59716">
        <ele>659.7</ele>
        <time>2021-08-18T16:24:40Z</time>
      </trkpt>
      <trkpt lat="44.57063" lon="2.59707">
        <ele>659.9</ele>
        <time>2021-08-18T16:24:42Z</time>
      </trkpt>
      <trkpt lat="44.57063" lon="2.59698">
        <ele>660.2</ele>
        <time>2021-08-18T16:24:44Z</time>
      </trkpt>
      <trkpt lat="44.57062" lon="2.59689">
        <ele>660.4</ele>
        <time>2021-08-18T16:24:46Z</time>
      </trkpt>
      <trkpt lat="44.57061" lon="2.5968">
        <ele>660.6</ele>
        <time>2021-08-18T16:24:48Z</time>
      </trkpt>
      <trkpt lat="44.57059" lon="2.5967">
        <ele>660.7</ele>
        <time>2021-08-18T16:24:50Z</time>
      </trkpt>
      <trkpt lat="44.57056" lon="2.59661">
        <ele>660.8</ele>
        <time>2021-08-18T16:24:52Z</time>
      </trkpt>
      <trkpt lat="44.57053" lon="2.59652">
        <ele>660.7</ele>
        <time>2021-08-18T16:24:54Z</time>
      </trkpt>
      <trkpt lat="44.57049" lon="2.59644">
        <ele>660.6</ele>
        <time>2021-08-18T16:24:56Z</time>
      </trkpt>
      <trkpt lat="44.57045" lon="2.59637">
        <ele>660.5</ele>
        <time>2021-08-18T16:24:58Z</time>
      </trkpt>
      <trkpt lat="44.57041" lon="2.59629">
        <ele>660.4</ele>
        <time>2021-08-18T16:25:00Z</time>
      </trkpt>
      <trkpt lat="44.57037" lon="2.59619">
        <ele>660.3</ele>
        <time>2021-08-18T16:25:02Z</time>
      </trkpt>
      <trkpt lat="44.57031" lon="2.59608">
        <ele>660.2</ele>
        <time>2021-08-18T16:25:04Z</time>
      </trkpt>
      <trkpt lat="44.57024" lon="2.59595">
        <ele>660</ele>
        <time>2021-08-18T16:25:06Z</time>
      </trkpt>
      <trkpt lat="44.57017" lon="2.59581">
        <ele>659.7</ele>
        <time>2021-08-18T16:25:08Z</time>
      </trkpt>
      <trkpt lat="44.5701" lon="2.59566">
        <ele>659</ele>
        <time>2021-08-18T16:25:10Z</time>
      </trkpt>
      <trkpt lat="44.57003" lon="2.59551">
        <ele>658.3</ele>
        <time>2021-08-18T16:25:12Z</time>
      </trkpt>
      <trkpt lat="44.56996" lon="2.59535">
        <ele>657.7</ele>
        <time>2021-08-18T16:25:14Z</time>
      </trkpt>
      <trkpt lat="44.56989" lon="2.59521">
        <ele>657.1</ele>
        <time>2021-08-18T16:25:16Z</time>
      </trkpt>
      <trkpt lat="44.56985" lon="2.59513">
        <ele>656.7</ele>
        <time>2021-08-18T16:25:18Z</time>
      </trkpt>
      <trkpt lat="44.56981" lon="2.59507">
        <ele>656.5</ele>
        <time>2021-08-18T16:25:20Z</time>
      </trkpt>
      <trkpt lat="44.5698" lon="2.59503">
        <ele>656.3</ele>
        <time>2021-08-18T16:25:22Z</time>
      </trkpt>
      <trkpt lat="44.5698" lon="2.59503">
        <ele>656.4</ele>
        <time>2021-08-18T16:25:24Z</time>
      </trkpt>
      <trkpt lat="44.5698" lon="2.59503">
        <ele>656.3</ele>
        <time>2021-08-18T16:25:26Z</time>
      </trkpt>
      <trkpt lat="44.5698" lon="2.59503">
        <ele>656.3</ele>
        <time>2021-08-18T16:25:28Z</time>
      </trkpt>
      <trkpt lat="44.56979" lon="2.59503">
        <ele>656.3</ele>
        <time>2021-08-18T16:25:30Z</time>
      </trkpt>
      <trkpt lat="44.56969" lon="2.59481">
        <ele>656</ele>
        <time>2021-08-18T16:26:26Z</time>
      </trkpt>
      <trkpt lat="44.56965" lon="2.59473">
        <ele>655.9</ele>
        <time>2021-08-18T16:26:28Z</time>
      </trkpt>
      <trkpt lat="44.5696" lon="2.59466">
        <ele>655.8</ele>
        <time>2021-08-18T16:26:30Z</time>
      </trkpt>
      <trkpt lat="44.56955" lon="2.59458">
        <ele>655.7</ele>
        <time>2021-08-18T16:26:32Z</time>
      </trkpt>
      <trkpt lat="44.56951" lon="2.59449">
        <ele>655.6</ele>
        <time>2021-08-18T16:26:34Z</time>
      </trkpt>
      <trkpt lat="44.56948" lon="2.5944">
        <ele>655.6</ele>
        <time>2021-08-18T16:26:36Z</time>
      </trkpt>
      <trkpt lat="44.56945" lon="2.59432">
        <ele>655.6</ele>
        <time>2021-08-18T16:26:38Z</time>
      </trkpt>
      <trkpt lat="44.56941" lon="2.59424">
        <ele>655.5</ele>
        <time>2021-08-18T16:26:40Z</time>
      </trkpt>
      <trkpt lat="44.56938" lon="2.59415">
        <ele>655.5</ele>
        <time>2021-08-18T16:26:42Z</time>
      </trkpt>
      <trkpt lat="44.56936" lon="2.59405">
        <ele>655.1</ele>
        <time>2021-08-18T16:26:44Z</time>
      </trkpt>
      <trkpt lat="44.56933" lon="2.59394">
        <ele>654.6</ele>
        <time>2021-08-18T16:26:46Z</time>
      </trkpt>
      <trkpt lat="44.5693" lon="2.59381">
        <ele>654.1</ele>
        <time>2021-08-18T16:26:48Z</time>
      </trkpt>
      <trkpt lat="44.56928" lon="2.59366">
        <ele>653.5</ele>
        <time>2021-08-18T16:26:50Z</time>
      </trkpt>
      <trkpt lat="44.56927" lon="2.59351">
        <ele>653</ele>
        <time>2021-08-18T16:26:52Z</time>
      </trkpt>
      <trkpt lat="44.56925" lon="2.59336">
        <ele>652.4</ele>
        <time>2021-08-18T16:26:54Z</time>
      </trkpt>
      <trkpt lat="44.56924" lon="2.5932">
        <ele>652.2</ele>
        <time>2021-08-18T16:26:56Z</time>
      </trkpt>
      <trkpt lat="44.56923" lon="2.59305">
        <ele>652.2</ele>
        <time>2021-08-18T16:26:58Z</time>
      </trkpt>
      <trkpt lat="44.56922" lon="2.5929">
        <ele>652.2</ele>
        <time>2021-08-18T16:27:00Z</time>
      </trkpt>
      <trkpt lat="44.56921" lon="2.59275">
        <ele>652.1</ele>
        <time>2021-08-18T16:27:02Z</time>
      </trkpt>
      <trkpt lat="44.56921" lon="2.59262">
        <ele>652.1</ele>
        <time>2021-08-18T16:27:04Z</time>
      </trkpt>
      <trkpt lat="44.56922" lon="2.5925">
        <ele>652.1</ele>
        <time>2021-08-18T16:27:06Z</time>
      </trkpt>
      <trkpt lat="44.56924" lon="2.59239">
        <ele>652.3</ele>
        <time>2021-08-18T16:27:08Z</time>
      </trkpt>
      <trkpt lat="44.56922" lon="2.5923">
        <ele>652.3</ele>
        <time>2021-08-18T16:27:10Z</time>
      </trkpt>
      <trkpt lat="44.56919" lon="2.5922">
        <ele>652.4</ele>
        <time>2021-08-18T16:27:12Z</time>
      </trkpt>
      <trkpt lat="44.56917" lon="2.59209">
        <ele>652.5</ele>
        <time>2021-08-18T16:27:14Z</time>
      </trkpt>
      <trkpt lat="44.56915" lon="2.59197">
        <ele>652.6</ele>
        <time>2021-08-18T16:27:16Z</time>
      </trkpt>
      <trkpt lat="44.56911" lon="2.59186">
        <ele>652.7</ele>
        <time>2021-08-18T16:27:18Z</time>
      </trkpt>
      <trkpt lat="44.56909" lon="2.59174">
        <ele>652.8</ele>
        <time>2021-08-18T16:27:20Z</time>
      </trkpt>
      <trkpt lat="44.56905" lon="2.59162">
        <ele>652.9</ele>
        <time>2021-08-18T16:27:22Z</time>
      </trkpt>
      <trkpt lat="44.56902" lon="2.5915">
        <ele>653.1</ele>
        <time>2021-08-18T16:27:24Z</time>
      </trkpt>
      <trkpt lat="44.56899" lon="2.59138">
        <ele>653.3</ele>
        <time>2021-08-18T16:27:26Z</time>
      </trkpt>
      <trkpt lat="44.56896" lon="2.59127">
        <ele>653.5</ele>
        <time>2021-08-18T16:27:28Z</time>
      </trkpt>
      <trkpt lat="44.56893" lon="2.59117">
        <ele>653.6</ele>
        <time>2021-08-18T16:27:30Z</time>
      </trkpt>
      <trkpt lat="44.56891" lon="2.59107">
        <ele>653.8</ele>
        <time>2021-08-18T16:27:32Z</time>
      </trkpt>
      <trkpt lat="44.56888" lon="2.59098">
        <ele>654.1</ele>
        <time>2021-08-18T16:27:34Z</time>
      </trkpt>
      <trkpt lat="44.56885" lon="2.59089">
        <ele>654.3</ele>
        <time>2021-08-18T16:27:36Z</time>
      </trkpt>
      <trkpt lat="44.56883" lon="2.59081">
        <ele>654.4</ele>
        <time>2021-08-18T16:27:38Z</time>
      </trkpt>
      <trkpt lat="44.5688" lon="2.59074">
        <ele>654.4</ele>
        <time>2021-08-18T16:27:40Z</time>
      </trkpt>
      <trkpt lat="44.56878" lon="2.59068">
        <ele>654.5</ele>
        <time>2021-08-18T16:27:42Z</time>
      </trkpt>
      <trkpt lat="44.56875" lon="2.59062">
        <ele>654.5</ele>
        <time>2021-08-18T16:27:44Z</time>
      </trkpt>
      <trkpt lat="44.56875" lon="2.59055">
        <ele>654.5</ele>
        <time>2021-08-18T16:27:46Z</time>
      </trkpt>
      <trkpt lat="44.56876" lon="2.59047">
        <ele>654.5</ele>
        <time>2021-08-18T16:27:48Z</time>
      </trkpt>
      <trkpt lat="44.56877" lon="2.5904">
        <ele>654.5</ele>
        <time>2021-08-18T16:27:50Z</time>
      </trkpt>
      <trkpt lat="44.56879" lon="2.59032">
        <ele>654.5</ele>
        <time>2021-08-18T16:27:52Z</time>
      </trkpt>
      <trkpt lat="44.5688" lon="2.59025">
        <ele>654.4</ele>
        <time>2021-08-18T16:27:54Z</time>
      </trkpt>
      <trkpt lat="44.56883" lon="2.59021">
        <ele>654.4</ele>
        <time>2021-08-18T16:27:56Z</time>
      </trkpt>
      <trkpt lat="44.56887" lon="2.5902">
        <ele>654.4</ele>
        <time>2021-08-18T16:27:58Z</time>
      </trkpt>
      <trkpt lat="44.56891" lon="2.59017">
        <ele>654.3</ele>
        <time>2021-08-18T16:28:00Z</time>
      </trkpt>
      <trkpt lat="44.56893" lon="2.59012">
        <ele>654.3</ele>
        <time>2021-08-18T16:28:02Z</time>
      </trkpt>
      <trkpt lat="44.56894" lon="2.59008">
        <ele>654.3</ele>
        <time>2021-08-18T16:28:04Z</time>
      </trkpt>
      <trkpt lat="44.56896" lon="2.59004">
        <ele>654.2</ele>
        <time>2021-08-18T16:28:06Z</time>
      </trkpt>
      <trkpt lat="44.56897" lon="2.58998">
        <ele>654.2</ele>
        <time>2021-08-18T16:28:08Z</time>
      </trkpt>
      <trkpt lat="44.56898" lon="2.58992">
        <ele>654.1</ele>
        <time>2021-08-18T16:28:10Z</time>
      </trkpt>
      <trkpt lat="44.56894" lon="2.5899">
        <ele>654.1</ele>
        <time>2021-08-18T16:28:12Z</time>
      </trkpt>
      <trkpt lat="44.56891" lon="2.5899">
        <ele>654.2</ele>
        <time>2021-08-18T16:28:14Z</time>
      </trkpt>
      <trkpt lat="44.56887" lon="2.58992">
        <ele>654.2</ele>
        <time>2021-08-18T16:28:16Z</time>
      </trkpt>
      <trkpt lat="44.56884" lon="2.58992">
        <ele>654.3</ele>
        <time>2021-08-18T16:28:18Z</time>
      </trkpt>
      <trkpt lat="44.5688" lon="2.58992">
        <ele>654.3</ele>
        <time>2021-08-18T16:28:20Z</time>
      </trkpt>
      <trkpt lat="44.56877" lon="2.58992">
        <ele>654.3</ele>
        <time>2021-08-18T16:28:22Z</time>
      </trkpt>
      <trkpt lat="44.56874" lon="2.58997">
        <ele>654.4</ele>
        <time>2021-08-18T16:28:24Z</time>
      </trkpt>
      <trkpt lat="44.56872" lon="2.59001">
        <ele>654.5</ele>
        <time>2021-08-18T16:28:26Z</time>
      </trkpt>
      <trkpt lat="44.56869" lon="2.59001">
        <ele>654.6</ele>
        <time>2021-08-18T16:28:28Z</time>
      </trkpt>
      <trkpt lat="44.56869" lon="2.59001">
        <ele>654.6</ele>
        <time>2021-08-18T16:28:30Z</time>
      </trkpt>
      <trkpt lat="44.56869" lon="2.59">
        <ele>654.6</ele>
        <time>2021-08-18T16:28:32Z</time>
      </trkpt>
      <trkpt lat="44.56869" lon="2.59">
        <ele>654.6</ele>
        <time>2021-08-18T16:28:34Z</time>
      </trkpt>
      <trkpt lat="44.56869" lon="2.59">
        <ele>654.6</ele>
        <time>2021-08-18T16:28:36Z</time>
      </trkpt>
      <trkpt lat="44.56869" lon="2.59">
        <ele>654.6</ele>
        <time>2021-08-18T16:28:38Z</time>
      </trkpt>
      <trkpt lat="44.56877" lon="2.59011">
        <ele>654.5</ele>
        <time>2021-08-18T16:31:54Z</time>
      </trkpt>
      <trkpt lat="44.56879" lon="2.59014">
        <ele>654.5</ele>
        <time>2021-08-18T16:31:56Z</time>
      </trkpt>
      <trkpt lat="44.56882" lon="2.59017">
        <ele>654.4</ele>
        <time>2021-08-18T16:31:58Z</time>
      </trkpt>
      <trkpt lat="44.56885" lon="2.59022">
        <ele>654.4</ele>
        <time>2021-08-18T16:32:00Z</time>
      </trkpt>
      <trkpt lat="44.56889" lon="2.59026">
        <ele>654.3</ele>
        <time>2021-08-18T16:32:02Z</time>
      </trkpt>
      <trkpt lat="44.56893" lon="2.5903">
        <ele>654.3</ele>
        <time>2021-08-18T16:32:04Z</time>
      </trkpt>
      <trkpt lat="44.56897" lon="2.59033">
        <ele>654.2</ele>
        <time>2021-08-18T16:32:06Z</time>
      </trkpt>
      <trkpt lat="44.569" lon="2.59037">
        <ele>654.2</ele>
        <time>2021-08-18T16:32:08Z</time>
      </trkpt>
      <trkpt lat="44.56904" lon="2.59036">
        <ele>654.2</ele>
        <time>2021-08-18T16:32:10Z</time>
      </trkpt>
      <trkpt lat="44.56907" lon="2.59031">
        <ele>654.1</ele>
        <time>2021-08-18T16:32:12Z</time>
      </trkpt>
      <trkpt lat="44.5691" lon="2.59024">
        <ele>654.1</ele>
        <time>2021-08-18T16:32:14Z</time>
      </trkpt>
      <trkpt lat="44.56912" lon="2.59016">
        <ele>654.1</ele>
        <time>2021-08-18T16:32:16Z</time>
      </trkpt>
      <trkpt lat="44.56915" lon="2.59007">
        <ele>654</ele>
        <time>2021-08-18T16:32:18Z</time>
      </trkpt>
      <trkpt lat="44.56918" lon="2.58999">
        <ele>654</ele>
        <time>2021-08-18T16:32:20Z</time>
      </trkpt>
      <trkpt lat="44.5692" lon="2.58989">
        <ele>653.9</ele>
        <time>2021-08-18T16:32:22Z</time>
      </trkpt>
      <trkpt lat="44.56921" lon="2.58979">
        <ele>653.9</ele>
        <time>2021-08-18T16:32:24Z</time>
      </trkpt>
      <trkpt lat="44.56914" lon="2.5897">
        <ele>654</ele>
        <time>2021-08-18T16:32:26Z</time>
      </trkpt>
      <trkpt lat="44.56911" lon="2.58961">
        <ele>653.9</ele>
        <time>2021-08-18T16:32:28Z</time>
      </trkpt>
      <trkpt lat="44.56918" lon="2.58954">
        <ele>653.9</ele>
        <time>2021-08-18T16:32:30Z</time>
      </trkpt>
      <trkpt lat="44.56921" lon="2.58946">
        <ele>653.8</ele>
        <time>2021-08-18T16:32:32Z</time>
      </trkpt>
      <trkpt lat="44.56921" lon="2.58935">
        <ele>653.8</ele>
        <time>2021-08-18T16:32:34Z</time>
      </trkpt>
      <trkpt lat="44.56921" lon="2.58927">
        <ele>653.7</ele>
        <time>2021-08-18T16:32:36Z</time>
      </trkpt>
      <trkpt lat="44.56922" lon="2.58918">
        <ele>653.7</ele>
        <time>2021-08-18T16:32:38Z</time>
      </trkpt>
      <trkpt lat="44.56923" lon="2.58909">
        <ele>653.3</ele>
        <time>2021-08-18T16:32:40Z</time>
      </trkpt>
      <trkpt lat="44.56927" lon="2.58899">
        <ele>652.8</ele>
        <time>2021-08-18T16:32:42Z</time>
      </trkpt>
      <trkpt lat="44.56933" lon="2.58891">
        <ele>652.2</ele>
        <time>2021-08-18T16:32:44Z</time>
      </trkpt>
      <trkpt lat="44.56937" lon="2.58881">
        <ele>651.6</ele>
        <time>2021-08-18T16:32:46Z</time>
      </trkpt>
      <trkpt lat="44.56943" lon="2.58871">
        <ele>650.9</ele>
        <time>2021-08-18T16:32:48Z</time>
      </trkpt>
      <trkpt lat="44.56951" lon="2.58865">
        <ele>650.3</ele>
        <time>2021-08-18T16:32:50Z</time>
      </trkpt>
      <trkpt lat="44.56959" lon="2.58858">
        <ele>649.7</ele>
        <time>2021-08-18T16:32:52Z</time>
      </trkpt>
      <trkpt lat="44.56967" lon="2.5885">
        <ele>649.1</ele>
        <time>2021-08-18T16:32:54Z</time>
      </trkpt>
      <trkpt lat="44.56975" lon="2.58845">
        <ele>648.5</ele>
        <time>2021-08-18T16:32:56Z</time>
      </trkpt>
      <trkpt lat="44.56985" lon="2.5884">
        <ele>647.9</ele>
        <time>2021-08-18T16:32:58Z</time>
      </trkpt>
      <trkpt lat="44.56996" lon="2.58833">
        <ele>647.2</ele>
        <time>2021-08-18T16:33:00Z</time>
      </trkpt>
      <trkpt lat="44.57008" lon="2.58825">
        <ele>646.5</ele>
        <time>2021-08-18T16:33:02Z</time>
      </trkpt>
      <trkpt lat="44.5702" lon="2.58816">
        <ele>646.1</ele>
        <time>2021-08-18T16:33:04Z</time>
      </trkpt>
      <trkpt lat="44.57032" lon="2.58807">
        <ele>645.7</ele>
        <time>2021-08-18T16:33:06Z</time>
      </trkpt>
      <trkpt lat="44.57042" lon="2.58797">
        <ele>645.5</ele>
        <time>2021-08-18T16:33:08Z</time>
      </trkpt>
      <trkpt lat="44.57052" lon="2.58785">
        <ele>645.4</ele>
        <time>2021-08-18T16:33:10Z</time>
      </trkpt>
      <trkpt lat="44.57061" lon="2.58772">
        <ele>645.5</ele>
        <time>2021-08-18T16:33:12Z</time>
      </trkpt>
      <trkpt lat="44.5707" lon="2.58761">
        <ele>645.7</ele>
        <time>2021-08-18T16:33:14Z</time>
      </trkpt>
      <trkpt lat="44.57077" lon="2.58752">
        <ele>645.9</ele>
        <time>2021-08-18T16:33:16Z</time>
      </trkpt>
      <trkpt lat="44.57086" lon="2.58743">
        <ele>646.3</ele>
        <time>2021-08-18T16:33:18Z</time>
      </trkpt>
      <trkpt lat="44.57097" lon="2.58738">
        <ele>646.8</ele>
        <time>2021-08-18T16:33:20Z</time>
      </trkpt>
      <trkpt lat="44.57106" lon="2.58734">
        <ele>647.2</ele>
        <time>2021-08-18T16:33:22Z</time>
      </trkpt>
      <trkpt lat="44.57116" lon="2.5873">
        <ele>647.7</ele>
        <time>2021-08-18T16:33:24Z</time>
      </trkpt>
      <trkpt lat="44.57124" lon="2.58727">
        <ele>648</ele>
        <time>2021-08-18T16:33:26Z</time>
      </trkpt>
      <trkpt lat="44.57131" lon="2.58726">
        <ele>648.3</ele>
        <time>2021-08-18T16:33:28Z</time>
      </trkpt>
      <trkpt lat="44.57138" lon="2.58724">
        <ele>648.6</ele>
        <time>2021-08-18T16:33:30Z</time>
      </trkpt>
      <trkpt lat="44.57145" lon="2.58722">
        <ele>648.9</ele>
        <time>2021-08-18T16:33:32Z</time>
      </trkpt>
      <trkpt lat="44.57152" lon="2.5872">
        <ele>649.2</ele>
        <time>2021-08-18T16:33:34Z</time>
      </trkpt>
      <trkpt lat="44.57158" lon="2.58718">
        <ele>649.5</ele>
        <time>2021-08-18T16:33:36Z</time>
      </trkpt>
      <trkpt lat="44.57165" lon="2.58717">
        <ele>649.7</ele>
        <time>2021-08-18T16:33:38Z</time>
      </trkpt>
      <trkpt lat="44.5717" lon="2.58715">
        <ele>650</ele>
        <time>2021-08-18T16:33:40Z</time>
      </trkpt>
      <trkpt lat="44.57175" lon="2.58714">
        <ele>650.2</ele>
        <time>2021-08-18T16:33:42Z</time>
      </trkpt>
      <trkpt lat="44.5718" lon="2.58713">
        <ele>650.5</ele>
        <time>2021-08-18T16:33:44Z</time>
      </trkpt>
      <trkpt lat="44.57186" lon="2.58712">
        <ele>650.7</ele>
        <time>2021-08-18T16:33:46Z</time>
      </trkpt>
      <trkpt lat="44.57191" lon="2.58711">
        <ele>650.9</ele>
        <time>2021-08-18T16:33:48Z</time>
      </trkpt>
      <trkpt lat="44.57196" lon="2.5871">
        <ele>651.2</ele>
        <time>2021-08-18T16:33:50Z</time>
      </trkpt>
      <trkpt lat="44.572" lon="2.58708">
        <ele>651.4</ele>
        <time>2021-08-18T16:33:52Z</time>
      </trkpt>
      <trkpt lat="44.57205" lon="2.58707">
        <ele>651.6</ele>
        <time>2021-08-18T16:33:54Z</time>
      </trkpt>
      <trkpt lat="44.5721" lon="2.58707">
        <ele>651.8</ele>
        <time>2021-08-18T16:33:56Z</time>
      </trkpt>
      <trkpt lat="44.57215" lon="2.58706">
        <ele>652.1</ele>
        <time>2021-08-18T16:33:58Z</time>
      </trkpt>
      <trkpt lat="44.5722" lon="2.58706">
        <ele>652.3</ele>
        <time>2021-08-18T16:34:00Z</time>
      </trkpt>
      <trkpt lat="44.57226" lon="2.58704">
        <ele>652.5</ele>
        <time>2021-08-18T16:34:02Z</time>
      </trkpt>
      <trkpt lat="44.57231" lon="2.58703">
        <ele>652.8</ele>
        <time>2021-08-18T16:34:04Z</time>
      </trkpt>
      <trkpt lat="44.57236" lon="2.58701">
        <ele>653</ele>
        <time>2021-08-18T16:34:06Z</time>
      </trkpt>
      <trkpt lat="44.57241" lon="2.58699">
        <ele>653.2</ele>
        <time>2021-08-18T16:34:08Z</time>
      </trkpt>
      <trkpt lat="44.57247" lon="2.58699">
        <ele>653.5</ele>
        <time>2021-08-18T16:34:10Z</time>
      </trkpt>
      <trkpt lat="44.57252" lon="2.58697">
        <ele>653.6</ele>
        <time>2021-08-18T16:34:12Z</time>
      </trkpt>
      <trkpt lat="44.57257" lon="2.58696">
        <ele>653.7</ele>
        <time>2021-08-18T16:34:14Z</time>
      </trkpt>
      <trkpt lat="44.57261" lon="2.58695">
        <ele>653.7</ele>
        <time>2021-08-18T16:34:16Z</time>
      </trkpt>
      <trkpt lat="44.57266" lon="2.58695">
        <ele>653.7</ele>
        <time>2021-08-18T16:34:18Z</time>
      </trkpt>
      <trkpt lat="44.57271" lon="2.58693">
        <ele>653.7</ele>
        <time>2021-08-18T16:34:20Z</time>
      </trkpt>
      <trkpt lat="44.57276" lon="2.58691">
        <ele>653.7</ele>
        <time>2021-08-18T16:34:22Z</time>
      </trkpt>
      <trkpt lat="44.57281" lon="2.58689">
        <ele>653.7</ele>
        <time>2021-08-18T16:34:24Z</time>
      </trkpt>
      <trkpt lat="44.57286" lon="2.58687">
        <ele>653.6</ele>
        <time>2021-08-18T16:34:26Z</time>
      </trkpt>
      <trkpt lat="44.57292" lon="2.58685">
        <ele>653.6</ele>
        <time>2021-08-18T16:34:28Z</time>
      </trkpt>
      <trkpt lat="44.57296" lon="2.58683">
        <ele>653.6</ele>
        <time>2021-08-18T16:34:30Z</time>
      </trkpt>
      <trkpt lat="44.57302" lon="2.58681">
        <ele>653.5</ele>
        <time>2021-08-18T16:34:32Z</time>
      </trkpt>
      <trkpt lat="44.57307" lon="2.5868">
        <ele>653.5</ele>
        <time>2021-08-18T16:34:34Z</time>
      </trkpt>
      <trkpt lat="44.57312" lon="2.58679">
        <ele>653.4</ele>
        <time>2021-08-18T16:34:36Z</time>
      </trkpt>
      <trkpt lat="44.57317" lon="2.58678">
        <ele>653.4</ele>
        <time>2021-08-18T16:34:38Z</time>
      </trkpt>
      <trkpt lat="44.57322" lon="2.58677">
        <ele>653.3</ele>
        <time>2021-08-18T16:34:40Z</time>
      </trkpt>
      <trkpt lat="44.57326" lon="2.58675">
        <ele>653.3</ele>
        <time>2021-08-18T16:34:42Z</time>
      </trkpt>
      <trkpt lat="44.57331" lon="2.58672">
        <ele>653.1</ele>
        <time>2021-08-18T16:34:44Z</time>
      </trkpt>
      <trkpt lat="44.57337" lon="2.58667">
        <ele>653.1</ele>
        <time>2021-08-18T16:34:46Z</time>
      </trkpt>
      <trkpt lat="44.57342" lon="2.58664">
        <ele>653.2</ele>
        <time>2021-08-18T16:34:48Z</time>
      </trkpt>
      <trkpt lat="44.57349" lon="2.58662">
        <ele>653.3</ele>
        <time>2021-08-18T16:34:50Z</time>
      </trkpt>
      <trkpt lat="44.57355" lon="2.58661">
        <ele>653.5</ele>
        <time>2021-08-18T16:34:52Z</time>
      </trkpt>
      <trkpt lat="44.57362" lon="2.5866">
        <ele>653.6</ele>
        <time>2021-08-18T16:34:54Z</time>
      </trkpt>
      <trkpt lat="44.57368" lon="2.5866">
        <ele>653.7</ele>
        <time>2021-08-18T16:34:56Z</time>
      </trkpt>
      <trkpt lat="44.57374" lon="2.5866">
        <ele>653.9</ele>
        <time>2021-08-18T16:34:58Z</time>
      </trkpt>
      <trkpt lat="44.5738" lon="2.5866">
        <ele>654</ele>
        <time>2021-08-18T16:35:00Z</time>
      </trkpt>
      <trkpt lat="44.57386" lon="2.5866">
        <ele>654.1</ele>
        <time>2021-08-18T16:35:02Z</time>
      </trkpt>
      <trkpt lat="44.57392" lon="2.58661">
        <ele>654.3</ele>
        <time>2021-08-18T16:35:04Z</time>
      </trkpt>
      <trkpt lat="44.57398" lon="2.58661">
        <ele>654.4</ele>
        <time>2021-08-18T16:35:06Z</time>
      </trkpt>
      <trkpt lat="44.57403" lon="2.58662">
        <ele>654.5</ele>
        <time>2021-08-18T16:35:08Z</time>
      </trkpt>
      <trkpt lat="44.57409" lon="2.58663">
        <ele>654.7</ele>
        <time>2021-08-18T16:35:10Z</time>
      </trkpt>
      <trkpt lat="44.57414" lon="2.58664">
        <ele>654.8</ele>
        <time>2021-08-18T16:35:12Z</time>
      </trkpt>
      <trkpt lat="44.57419" lon="2.58664">
        <ele>654.9</ele>
        <time>2021-08-18T16:35:14Z</time>
      </trkpt>
      <trkpt lat="44.57424" lon="2.58664">
        <ele>655</ele>
        <time>2021-08-18T16:35:16Z</time>
      </trkpt>
      <trkpt lat="44.57429" lon="2.58665">
        <ele>655.1</ele>
        <time>2021-08-18T16:35:18Z</time>
      </trkpt>
      <trkpt lat="44.57435" lon="2.58666">
        <ele>655.2</ele>
        <time>2021-08-18T16:35:20Z</time>
      </trkpt>
      <trkpt lat="44.57441" lon="2.58666">
        <ele>655.3</ele>
        <time>2021-08-18T16:35:22Z</time>
      </trkpt>
      <trkpt lat="44.57446" lon="2.58667">
        <ele>655.4</ele>
        <time>2021-08-18T16:35:24Z</time>
      </trkpt>
      <trkpt lat="44.57452" lon="2.58668">
        <ele>655.4</ele>
        <time>2021-08-18T16:35:26Z</time>
      </trkpt>
      <trkpt lat="44.57457" lon="2.58668">
        <ele>655.5</ele>
        <time>2021-08-18T16:35:28Z</time>
      </trkpt>
      <trkpt lat="44.57462" lon="2.58668">
        <ele>655.6</ele>
        <time>2021-08-18T16:35:30Z</time>
      </trkpt>
      <trkpt lat="44.57468" lon="2.58669">
        <ele>655.6</ele>
        <time>2021-08-18T16:35:32Z</time>
      </trkpt>
      <trkpt lat="44.57474" lon="2.58669">
        <ele>655.7</ele>
        <time>2021-08-18T16:35:34Z</time>
      </trkpt>
      <trkpt lat="44.5748" lon="2.58669">
        <ele>655.8</ele>
        <time>2021-08-18T16:35:36Z</time>
      </trkpt>
      <trkpt lat="44.57486" lon="2.5867">
        <ele>655.9</ele>
        <time>2021-08-18T16:35:38Z</time>
      </trkpt>
      <trkpt lat="44.57493" lon="2.5867">
        <ele>656</ele>
        <time>2021-08-18T16:35:40Z</time>
      </trkpt>
      <trkpt lat="44.57499" lon="2.5867">
        <ele>656</ele>
        <time>2021-08-18T16:35:42Z</time>
      </trkpt>
      <trkpt lat="44.57506" lon="2.5867">
        <ele>655.9</ele>
        <time>2021-08-18T16:35:44Z</time>
      </trkpt>
      <trkpt lat="44.57513" lon="2.58669">
        <ele>655.7</ele>
        <time>2021-08-18T16:35:46Z</time>
      </trkpt>
      <trkpt lat="44.57521" lon="2.58669">
        <ele>655.5</ele>
        <time>2021-08-18T16:35:48Z</time>
      </trkpt>
      <trkpt lat="44.57529" lon="2.58668">
        <ele>655.3</ele>
        <time>2021-08-18T16:35:50Z</time>
      </trkpt>
      <trkpt lat="44.57537" lon="2.58668">
        <ele>655.1</ele>
        <time>2021-08-18T16:35:52Z</time>
      </trkpt>
      <trkpt lat="44.57547" lon="2.58669">
        <ele>654.9</ele>
        <time>2021-08-18T16:35:54Z</time>
      </trkpt>
      <trkpt lat="44.57557" lon="2.5867">
        <ele>654.7</ele>
        <time>2021-08-18T16:35:56Z</time>
      </trkpt>
      <trkpt lat="44.57569" lon="2.58673">
        <ele>654.5</ele>
        <time>2021-08-18T16:35:58Z</time>
      </trkpt>
      <trkpt lat="44.57582" lon="2.58676">
        <ele>654.4</ele>
        <time>2021-08-18T16:36:00Z</time>
      </trkpt>
      <trkpt lat="44.57596" lon="2.58681">
        <ele>654.5</ele>
        <time>2021-08-18T16:36:02Z</time>
      </trkpt>
      <trkpt lat="44.5761" lon="2.58684">
        <ele>654.6</ele>
        <time>2021-08-18T16:36:04Z</time>
      </trkpt>
      <trkpt lat="44.57624" lon="2.58688">
        <ele>654.8</ele>
        <time>2021-08-18T16:36:06Z</time>
      </trkpt>
      <trkpt lat="44.57638" lon="2.5869">
        <ele>654.8</ele>
        <time>2021-08-18T16:36:08Z</time>
      </trkpt>
      <trkpt lat="44.5765" lon="2.5869">
        <ele>654.8</ele>
        <time>2021-08-18T16:36:10Z</time>
      </trkpt>
      <trkpt lat="44.57659" lon="2.58686">
        <ele>654.7</ele>
        <time>2021-08-18T16:36:12Z</time>
      </trkpt>
      <trkpt lat="44.57668" lon="2.58685">
        <ele>654.7</ele>
        <time>2021-08-18T16:36:14Z</time>
      </trkpt>
      <trkpt lat="44.57675" lon="2.58684">
        <ele>654.7</ele>
        <time>2021-08-18T16:36:16Z</time>
      </trkpt>
      <trkpt lat="44.57681" lon="2.58682">
        <ele>654.7</ele>
        <time>2021-08-18T16:36:18Z</time>
      </trkpt>
      <trkpt lat="44.57686" lon="2.58681">
        <ele>654.7</ele>
        <time>2021-08-18T16:36:20Z</time>
      </trkpt>
      <trkpt lat="44.57691" lon="2.58681">
        <ele>654.7</ele>
        <time>2021-08-18T16:36:22Z</time>
      </trkpt>
      <trkpt lat="44.57694" lon="2.5868">
        <ele>654.7</ele>
        <time>2021-08-18T16:36:24Z</time>
      </trkpt>
      <trkpt lat="44.57698" lon="2.5868">
        <ele>654.7</ele>
        <time>2021-08-18T16:36:26Z</time>
      </trkpt>
      <trkpt lat="44.57701" lon="2.58679">
        <ele>654.7</ele>
        <time>2021-08-18T16:36:28Z</time>
      </trkpt>
      <trkpt lat="44.57704" lon="2.58677">
        <ele>654.6</ele>
        <time>2021-08-18T16:36:30Z</time>
      </trkpt>
      <trkpt lat="44.57709" lon="2.58676">
        <ele>654.6</ele>
        <time>2021-08-18T16:36:32Z</time>
      </trkpt>
      <trkpt lat="44.57714" lon="2.58674">
        <ele>654.5</ele>
        <time>2021-08-18T16:36:34Z</time>
      </trkpt>
      <trkpt lat="44.5772" lon="2.58674">
        <ele>654.5</ele>
        <time>2021-08-18T16:36:36Z</time>
      </trkpt>
      <trkpt lat="44.57724" lon="2.58674">
        <ele>654.5</ele>
        <time>2021-08-18T16:36:38Z</time>
      </trkpt>
      <trkpt lat="44.57725" lon="2.58676">
        <ele>654.7</ele>
        <time>2021-08-18T16:36:40Z</time>
      </trkpt>
      <trkpt lat="44.57727" lon="2.58675">
        <ele>654.6</ele>
        <time>2021-08-18T16:36:42Z</time>
      </trkpt>
      <trkpt lat="44.57726" lon="2.58674">
        <ele>654.5</ele>
        <time>2021-08-18T16:36:44Z</time>
      </trkpt>
      <trkpt lat="44.57726" lon="2.58674">
        <ele>654.5</ele>
        <time>2021-08-18T16:36:46Z</time>
      </trkpt>
      <trkpt lat="44.57725" lon="2.58674">
        <ele>654.5</ele>
        <time>2021-08-18T16:36:48Z</time>
      </trkpt>
      <trkpt lat="44.577" lon="2.58678">
        <ele>654.6</ele>
        <time>2021-08-18T16:37:06Z</time>
      </trkpt>
      <trkpt lat="44.57694" lon="2.58679">
        <ele>654.7</ele>
        <time>2021-08-18T16:37:08Z</time>
      </trkpt>
      <trkpt lat="44.57688" lon="2.5868">
        <ele>654.6</ele>
        <time>2021-08-18T16:37:10Z</time>
      </trkpt>
      <trkpt lat="44.57682" lon="2.58681">
        <ele>654.6</ele>
        <time>2021-08-18T16:37:12Z</time>
      </trkpt>
      <trkpt lat="44.57676" lon="2.58682">
        <ele>654.6</ele>
        <time>2021-08-18T16:37:14Z</time>
      </trkpt>
      <trkpt lat="44.5767" lon="2.58684">
        <ele>654.7</ele>
        <time>2021-08-18T16:37:16Z</time>
      </trkpt>
      <trkpt lat="44.57663" lon="2.58685">
        <ele>654.7</ele>
        <time>2021-08-18T16:37:18Z</time>
      </trkpt>
      <trkpt lat="44.57656" lon="2.58686">
        <ele>654.7</ele>
        <time>2021-08-18T16:37:20Z</time>
      </trkpt>
      <trkpt lat="44.5765" lon="2.58687">
        <ele>654.7</ele>
        <time>2021-08-18T16:37:22Z</time>
      </trkpt>
      <trkpt lat="44.57644" lon="2.58687">
        <ele>654.7</ele>
        <time>2021-08-18T16:37:24Z</time>
      </trkpt>
      <trkpt lat="44.57638" lon="2.58687">
        <ele>654.7</ele>
        <time>2021-08-18T16:37:26Z</time>
      </trkpt>
      <trkpt lat="44.57632" lon="2.58686">
        <ele>654.7</ele>
        <time>2021-08-18T16:37:28Z</time>
      </trkpt>
      <trkpt lat="44.57626" lon="2.58686">
        <ele>654.7</ele>
        <time>2021-08-18T16:37:30Z</time>
      </trkpt>
      <trkpt lat="44.57624" lon="2.58689">
        <ele>654.8</ele>
        <time>2021-08-18T16:37:32Z</time>
      </trkpt>
      <trkpt lat="44.57623" lon="2.58695">
        <ele>655</ele>
        <time>2021-08-18T16:37:34Z</time>
      </trkpt>
      <trkpt lat="44.57626" lon="2.587">
        <ele>655.2</ele>
        <time>2021-08-18T16:37:36Z</time>
      </trkpt>
      <trkpt lat="44.5763" lon="2.58701">
        <ele>655.2</ele>
        <time>2021-08-18T16:37:38Z</time>
      </trkpt>
      <trkpt lat="44.57634" lon="2.58703">
        <ele>655.3</ele>
        <time>2021-08-18T16:37:40Z</time>
      </trkpt>
      <trkpt lat="44.57637" lon="2.58706">
        <ele>655.4</ele>
        <time>2021-08-18T16:37:42Z</time>
      </trkpt>
      <trkpt lat="44.57638" lon="2.58712">
        <ele>655.6</ele>
        <time>2021-08-18T16:37:44Z</time>
      </trkpt>
      <trkpt lat="44.57639" lon="2.58716">
        <ele>655.8</ele>
        <time>2021-08-18T16:37:46Z</time>
      </trkpt>
      <trkpt lat="44.5764" lon="2.58718">
        <ele>655.9</ele>
        <time>2021-08-18T16:37:48Z</time>
      </trkpt>
      <trkpt lat="44.57643" lon="2.58719">
        <ele>655.9</ele>
        <time>2021-08-18T16:37:50Z</time>
      </trkpt>
      <trkpt lat="44.57646" lon="2.5872">
        <ele>655.9</ele>
        <time>2021-08-18T16:37:52Z</time>
      </trkpt>
      <trkpt lat="44.57649" lon="2.58721">
        <ele>656</ele>
        <time>2021-08-18T16:37:54Z</time>
      </trkpt>
      <trkpt lat="44.57652" lon="2.58722">
        <ele>656</ele>
        <time>2021-08-18T16:37:56Z</time>
      </trkpt>
      <trkpt lat="44.57654" lon="2.58724">
        <ele>656.1</ele>
        <time>2021-08-18T16:37:58Z</time>
      </trkpt>
      <trkpt lat="44.57657" lon="2.58725">
        <ele>656.1</ele>
        <time>2021-08-18T16:38:00Z</time>
      </trkpt>
      <trkpt lat="44.5766" lon="2.58727">
        <ele>656.2</ele>
        <time>2021-08-18T16:38:02Z</time>
      </trkpt>
      <trkpt lat="44.57662" lon="2.58728">
        <ele>656.2</ele>
        <time>2021-08-18T16:38:04Z</time>
      </trkpt>
      <trkpt lat="44.57665" lon="2.5873">
        <ele>656.3</ele>
        <time>2021-08-18T16:38:06Z</time>
      </trkpt>
      <trkpt lat="44.57667" lon="2.5873">
        <ele>656.3</ele>
        <time>2021-08-18T16:38:08Z</time>
      </trkpt>
      <trkpt lat="44.5767" lon="2.58731">
        <ele>656.4</ele>
        <time>2021-08-18T16:38:10Z</time>
      </trkpt>
      <trkpt lat="44.57672" lon="2.58733">
        <ele>656.6</ele>
        <time>2021-08-18T16:38:12Z</time>
      </trkpt>
      <trkpt lat="44.57675" lon="2.58734">
        <ele>656.7</ele>
        <time>2021-08-18T16:38:14Z</time>
      </trkpt>
      <trkpt lat="44.57676" lon="2.58737">
        <ele>656.9</ele>
        <time>2021-08-18T16:38:16Z</time>
      </trkpt>
      <trkpt lat="44.57679" lon="2.58739">
        <ele>657.1</ele>
        <time>2021-08-18T16:38:18Z</time>
      </trkpt>
      <trkpt lat="44.57681" lon="2.58741">
        <ele>657.3</ele>
        <time>2021-08-18T16:38:20Z</time>
      </trkpt>
      <trkpt lat="44.57683" lon="2.58742">
        <ele>657.4</ele>
        <time>2021-08-18T16:38:22Z</time>
      </trkpt>
      <trkpt lat="44.57685" lon="2.58744">
        <ele>657.6</ele>
        <time>2021-08-18T16:38:24Z</time>
      </trkpt>
      <trkpt lat="44.57688" lon="2.58746">
        <ele>657.8</ele>
        <time>2021-08-18T16:38:26Z</time>
      </trkpt>
      <trkpt lat="44.5769" lon="2.58747">
        <ele>658</ele>
        <time>2021-08-18T16:38:28Z</time>
      </trkpt>
      <trkpt lat="44.57693" lon="2.58749">
        <ele>658.2</ele>
        <time>2021-08-18T16:38:30Z</time>
      </trkpt>
      <trkpt lat="44.57694" lon="2.58751">
        <ele>658.4</ele>
        <time>2021-08-18T16:38:32Z</time>
      </trkpt>
      <trkpt lat="44.57697" lon="2.58752">
        <ele>658.5</ele>
        <time>2021-08-18T16:38:34Z</time>
      </trkpt>
      <trkpt lat="44.577" lon="2.58754">
        <ele>658.7</ele>
        <time>2021-08-18T16:38:36Z</time>
      </trkpt>
      <trkpt lat="44.57702" lon="2.58755">
        <ele>658.8</ele>
        <time>2021-08-18T16:38:38Z</time>
      </trkpt>
      <trkpt lat="44.57704" lon="2.58758">
        <ele>658.9</ele>
        <time>2021-08-18T16:38:40Z</time>
      </trkpt>
      <trkpt lat="44.57706" lon="2.58759">
        <ele>659</ele>
        <time>2021-08-18T16:38:42Z</time>
      </trkpt>
      <trkpt lat="44.57709" lon="2.58761">
        <ele>659.2</ele>
        <time>2021-08-18T16:38:44Z</time>
      </trkpt>
      <trkpt lat="44.57711" lon="2.58763">
        <ele>659.3</ele>
        <time>2021-08-18T16:38:46Z</time>
      </trkpt>
      <trkpt lat="44.57713" lon="2.58766">
        <ele>659.4</ele>
        <time>2021-08-18T16:38:48Z</time>
      </trkpt>
      <trkpt lat="44.57714" lon="2.58768">
        <ele>659.4</ele>
        <time>2021-08-18T16:38:50Z</time>
      </trkpt>
      <trkpt lat="44.57716" lon="2.58771">
        <ele>659.5</ele>
        <time>2021-08-18T16:38:52Z</time>
      </trkpt>
      <trkpt lat="44.57716" lon="2.58775">
        <ele>659.5</ele>
        <time>2021-08-18T16:38:54Z</time>
      </trkpt>
      <trkpt lat="44.57716" lon="2.58779">
        <ele>659.5</ele>
        <time>2021-08-18T16:38:56Z</time>
      </trkpt>
      <trkpt lat="44.57717" lon="2.58783">
        <ele>659.6</ele>
        <time>2021-08-18T16:38:58Z</time>
      </trkpt>
      <trkpt lat="44.57716" lon="2.58787">
        <ele>659.6</ele>
        <time>2021-08-18T16:39:00Z</time>
      </trkpt>
      <trkpt lat="44.57716" lon="2.58792">
        <ele>659.6</ele>
        <time>2021-08-18T16:39:02Z</time>
      </trkpt>
      <trkpt lat="44.57715" lon="2.58795">
        <ele>659.6</ele>
        <time>2021-08-18T16:39:04Z</time>
      </trkpt>
      <trkpt lat="44.57714" lon="2.58799">
        <ele>659.6</ele>
        <time>2021-08-18T16:39:06Z</time>
      </trkpt>
      <trkpt lat="44.57713" lon="2.58802">
        <ele>659.6</ele>
        <time>2021-08-18T16:39:08Z</time>
      </trkpt>
      <trkpt lat="44.5771" lon="2.58806">
        <ele>659.7</ele>
        <time>2021-08-18T16:39:10Z</time>
      </trkpt>
      <trkpt lat="44.57709" lon="2.58809">
        <ele>659.7</ele>
        <time>2021-08-18T16:39:12Z</time>
      </trkpt>
      <trkpt lat="44.5771" lon="2.58808">
        <ele>659.7</ele>
        <time>2021-08-18T16:39:14Z</time>
      </trkpt>
      <trkpt lat="44.5771" lon="2.58808">
        <ele>659.7</ele>
        <time>2021-08-18T16:39:16Z</time>
      </trkpt>
      <trkpt lat="44.5771" lon="2.58808">
        <ele>659.7</ele>
        <time>2021-08-18T16:39:18Z</time>
      </trkpt>
      <trkpt lat="44.5771" lon="2.58808">
        <ele>659.7</ele>
        <time>2021-08-18T16:39:20Z</time>
      </trkpt>
    </trkseg>
      <trkpt lat="44.57636" lon="2.58685">
        <ele>654.7</ele>
        <time>2021-08-19T06:20:32Z</time>
      </trkpt>
      <trkpt lat="44.5764" lon="2.58686">
        <ele>654.7</ele>
        <time>2021-08-19T06:20:34Z</time>
      </trkpt>
      <trkpt lat="44.57645" lon="2.58685">
        <ele>654.7</ele>
        <time>2021-08-19T06:20:36Z</time>
      </trkpt>
      <trkpt lat="44.5765" lon="2.58685">
        <ele>654.6</ele>
        <time>2021-08-19T06:20:38Z</time>
      </trkpt>
      <trkpt lat="44.57655" lon="2.58685">
        <ele>654.6</ele>
        <time>2021-08-19T06:20:40Z</time>
      </trkpt>
      <trkpt lat="44.57659" lon="2.58684">
        <ele>654.6</ele>
        <time>2021-08-19T06:20:42Z</time>
      </trkpt>
      <trkpt lat="44.57663" lon="2.58683">
        <ele>654.6</ele>
        <time>2021-08-19T06:20:44Z</time>
      </trkpt>
      <trkpt lat="44.57668" lon="2.58682">
        <ele>654.6</ele>
        <time>2021-08-19T06:20:46Z</time>
      </trkpt>
      <trkpt lat="44.57673" lon="2.58681">
        <ele>654.5</ele>
        <time>2021-08-19T06:20:48Z</time>
      </trkpt>
      <trkpt lat="44.57677" lon="2.5868">
        <ele>654.6</ele>
        <time>2021-08-19T06:20:50Z</time>
      </trkpt>
      <trkpt lat="44.57683" lon="2.58679">
        <ele>654.5</ele>
        <time>2021-08-19T06:20:52Z</time>
      </trkpt>
      <trkpt lat="44.57688" lon="2.58678">
        <ele>654.5</ele>
        <time>2021-08-19T06:20:54Z</time>
      </trkpt>
      <trkpt lat="44.57693" lon="2.58677">
        <ele>654.5</ele>
        <time>2021-08-19T06:20:56Z</time>
      </trkpt>
      <trkpt lat="44.57699" lon="2.58676">
        <ele>654.5</ele>
        <time>2021-08-19T06:20:58Z</time>
      </trkpt>
      <trkpt lat="44.57705" lon="2.58675">
        <ele>654.5</ele>
        <time>2021-08-19T06:21:00Z</time>
      </trkpt>
      <trkpt lat="44.57711" lon="2.58674">
        <ele>654.4</ele>
        <time>2021-08-19T06:21:02Z</time>
      </trkpt>
      <trkpt lat="44.57719" lon="2.58673">
        <ele>654.4</ele>
        <time>2021-08-19T06:21:04Z</time>
      </trkpt>
      <trkpt lat="44.57726" lon="2.58672">
        <ele>654.4</ele>
        <time>2021-08-19T06:21:06Z</time>
      </trkpt>
      <trkpt lat="44.57734" lon="2.58672">
        <ele>654.4</ele>
        <time>2021-08-19T06:21:08Z</time>
      </trkpt>
      <trkpt lat="44.57741" lon="2.58672">
        <ele>654.4</ele>
        <time>2021-08-19T06:21:10Z</time>
      </trkpt>
      <trkpt lat="44.5775" lon="2.58672">
        <ele>654.5</ele>
        <time>2021-08-19T06:21:12Z</time>
      </trkpt>
      <trkpt lat="44.57759" lon="2.58672">
        <ele>654.1</ele>
        <time>2021-08-19T06:21:14Z</time>
      </trkpt>
      <trkpt lat="44.57768" lon="2.58672">
        <ele>653.8</ele>
        <time>2021-08-19T06:21:16Z</time>
      </trkpt>
      <trkpt lat="44.57778" lon="2.58672">
        <ele>653.4</ele>
        <time>2021-08-19T06:21:18Z</time>
      </trkpt>
      <trkpt lat="44.57788" lon="2.58674">
        <ele>653.1</ele>
        <time>2021-08-19T06:21:20Z</time>
      </trkpt>
      <trkpt lat="44.57801" lon="2.58675">
        <ele>652.6</ele>
        <time>2021-08-19T06:21:22Z</time>
      </trkpt>
      <trkpt lat="44.57811" lon="2.58677">
        <ele>652.3</ele>
        <time>2021-08-19T06:21:24Z</time>
      </trkpt>
      <trkpt lat="44.5782" lon="2.58681">
        <ele>652.1</ele>
        <time>2021-08-19T06:21:26Z</time>
      </trkpt>
      <trkpt lat="44.57828" lon="2.58688">
        <ele>652</ele>
        <time>2021-08-19T06:21:28Z</time>
      </trkpt>
      <trkpt lat="44.57839" lon="2.58698">
        <ele>652.2</ele>
        <time>2021-08-19T06:21:30Z</time>
      </trkpt>
      <trkpt lat="44.5785" lon="2.58708">
        <ele>652.5</ele>
        <time>2021-08-19T06:21:32Z</time>
      </trkpt>
      <trkpt lat="44.57861" lon="2.58717">
        <ele>652.6</ele>
        <time>2021-08-19T06:21:34Z</time>
      </trkpt>
      <trkpt lat="44.57876" lon="2.58728">
        <ele>652.5</ele>
        <time>2021-08-19T06:21:36Z</time>
      </trkpt>
      <trkpt lat="44.57889" lon="2.5873">
        <ele>652.2</ele>
        <time>2021-08-19T06:21:38Z</time>
      </trkpt>
      <trkpt lat="44.57897" lon="2.58735">
        <ele>652</ele>
        <time>2021-08-19T06:21:40Z</time>
      </trkpt>
      <trkpt lat="44.57907" lon="2.58737">
        <ele>651.7</ele>
        <time>2021-08-19T06:21:42Z</time>
      </trkpt>
      <trkpt lat="44.57914" lon="2.58738">
        <ele>651.5</ele>
        <time>2021-08-19T06:21:44Z</time>
      </trkpt>
      <trkpt lat="44.57919" lon="2.58739">
        <ele>651.5</ele>
        <time>2021-08-19T06:21:46Z</time>
      </trkpt>
      <trkpt lat="44.57925" lon="2.58739">
        <ele>651.9</ele>
        <time>2021-08-19T06:21:48Z</time>
      </trkpt>
      <trkpt lat="44.5793" lon="2.58741">
        <ele>652.1</ele>
        <time>2021-08-19T06:21:50Z</time>
      </trkpt>
      <trkpt lat="44.57935" lon="2.58741">
        <ele>652.4</ele>
        <time>2021-08-19T06:21:52Z</time>
      </trkpt>
      <trkpt lat="44.57939" lon="2.58742">
        <ele>652.6</ele>
        <time>2021-08-19T06:21:54Z</time>
      </trkpt>
      <trkpt lat="44.57944" lon="2.58742">
        <ele>652.8</ele>
        <time>2021-08-19T06:21:56Z</time>
      </trkpt>
      <trkpt lat="44.57947" lon="2.58742">
        <ele>653.1</ele>
        <time>2021-08-19T06:21:58Z</time>
      </trkpt>
      <trkpt lat="44.57952" lon="2.58742">
        <ele>653.3</ele>
        <time>2021-08-19T06:22:00Z</time>
      </trkpt>
      <trkpt lat="44.57956" lon="2.58742">
        <ele>653.5</ele>
        <time>2021-08-19T06:22:02Z</time>
      </trkpt>
      <trkpt lat="44.5796" lon="2.58743">
        <ele>653.8</ele>
        <time>2021-08-19T06:22:04Z</time>
      </trkpt>
      <trkpt lat="44.57964" lon="2.58743">
        <ele>654</ele>
        <time>2021-08-19T06:22:06Z</time>
      </trkpt>
      <trkpt lat="44.57967" lon="2.58744">
        <ele>654.2</ele>
        <time>2021-08-19T06:22:08Z</time>
      </trkpt>
      <trkpt lat="44.57971" lon="2.58744">
        <ele>654.4</ele>
        <time>2021-08-19T06:22:10Z</time>
      </trkpt>
      <trkpt lat="44.57975" lon="2.58744">
        <ele>654.6</ele>
        <time>2021-08-19T06:22:12Z</time>
      </trkpt>
      <trkpt lat="44.57979" lon="2.58745">
        <ele>654.8</ele>
        <time>2021-08-19T06:22:14Z</time>
      </trkpt>
      <trkpt lat="44.57984" lon="2.58745">
        <ele>655.1</ele>
        <time>2021-08-19T06:22:16Z</time>
      </trkpt>
      <trkpt lat="44.57989" lon="2.58745">
        <ele>655.4</ele>
        <time>2021-08-19T06:22:18Z</time>
      </trkpt>
      <trkpt lat="44.57993" lon="2.58745">
        <ele>655.7</ele>
        <time>2021-08-19T06:22:20Z</time>
      </trkpt>
      <trkpt lat="44.57998" lon="2.58745">
        <ele>655.9</ele>
        <time>2021-08-19T06:22:22Z</time>
      </trkpt>
      <trkpt lat="44.58002" lon="2.58745">
        <ele>656.1</ele>
        <time>2021-08-19T06:22:24Z</time>
      </trkpt>
      <trkpt lat="44.58007" lon="2.58746">
        <ele>656.3</ele>
        <time>2021-08-19T06:22:26Z</time>
      </trkpt>
      <trkpt lat="44.58011" lon="2.58747">
        <ele>656.4</ele>
        <time>2021-08-19T06:22:28Z</time>
      </trkpt>
      <trkpt lat="44.58016" lon="2.58748">
        <ele>656.6</ele>
        <time>2021-08-19T06:22:30Z</time>
      </trkpt>
      <trkpt lat="44.5802" lon="2.58749">
        <ele>656.7</ele>
        <time>2021-08-19T06:22:32Z</time>
      </trkpt>
      <trkpt lat="44.58025" lon="2.58749">
        <ele>656.9</ele>
        <time>2021-08-19T06:22:34Z</time>
      </trkpt>
      <trkpt lat="44.5803" lon="2.5875">
        <ele>657.1</ele>
        <time>2021-08-19T06:22:36Z</time>
      </trkpt>
      <trkpt lat="44.58035" lon="2.5875">
        <ele>657.3</ele>
        <time>2021-08-19T06:22:38Z</time>
      </trkpt>
      <trkpt lat="44.5804" lon="2.58751">
        <ele>657.5</ele>
        <time>2021-08-19T06:22:40Z</time>
      </trkpt>
      <trkpt lat="44.58045" lon="2.58752">
        <ele>657.6</ele>
        <time>2021-08-19T06:22:42Z</time>
      </trkpt>
      <trkpt lat="44.5805" lon="2.58753">
        <ele>657.8</ele>
        <time>2021-08-19T06:22:44Z</time>
      </trkpt>
      <trkpt lat="44.58056" lon="2.58753">
        <ele>658</ele>
        <time>2021-08-19T06:22:46Z</time>
      </trkpt>
      <trkpt lat="44.58061" lon="2.58754">
        <ele>658.2</ele>
        <time>2021-08-19T06:22:48Z</time>
      </trkpt>
      <trkpt lat="44.58067" lon="2.58754">
        <ele>658.5</ele>
        <time>2021-08-19T06:22:50Z</time>
      </trkpt>
      <trkpt lat="44.58073" lon="2.58755">
        <ele>658.7</ele>
        <time>2021-08-19T06:22:52Z</time>
      </trkpt>
      <trkpt lat="44.58078" lon="2.58755">
        <ele>658.9</ele>
        <time>2021-08-19T06:22:54Z</time>
      </trkpt>
      <trkpt lat="44.58083" lon="2.58756">
        <ele>659.1</ele>
        <time>2021-08-19T06:22:56Z</time>
      </trkpt>
      <trkpt lat="44.58089" lon="2.58755">
        <ele>659.5</ele>
        <time>2021-08-19T06:22:58Z</time>
      </trkpt>
      <trkpt lat="44.58094" lon="2.58756">
        <ele>659.8</ele>
        <time>2021-08-19T06:23:00Z</time>
      </trkpt>
      <trkpt lat="44.581" lon="2.58756">
        <ele>660.1</ele>
        <time>2021-08-19T06:23:02Z</time>
      </trkpt>
      <trkpt lat="44.58105" lon="2.58757">
        <ele>660.4</ele>
        <time>2021-08-19T06:23:04Z</time>
      </trkpt>
      <trkpt lat="44.5811" lon="2.58758">
        <ele>660.7</ele>
        <time>2021-08-19T06:23:06Z</time>
      </trkpt>
      <trkpt lat="44.58115" lon="2.58757">
        <ele>661</ele>
        <time>2021-08-19T06:23:08Z</time>
      </trkpt>
      <trkpt lat="44.5812" lon="2.58757">
        <ele>661.3</ele>
        <time>2021-08-19T06:23:10Z</time>
      </trkpt>
      <trkpt lat="44.58125" lon="2.58758">
        <ele>661.6</ele>
        <time>2021-08-19T06:23:12Z</time>
      </trkpt>
      <trkpt lat="44.58129" lon="2.58758">
        <ele>661.8</ele>
        <time>2021-08-19T06:23:14Z</time>
      </trkpt>
      <trkpt lat="44.58134" lon="2.58759">
        <ele>662.1</ele>
        <time>2021-08-19T06:23:16Z</time>
      </trkpt>
      <trkpt lat="44.58139" lon="2.58758">
        <ele>662.4</ele>
        <time>2021-08-19T06:23:18Z</time>
      </trkpt>
      <trkpt lat="44.58143" lon="2.58757">
        <ele>662.6</ele>
        <time>2021-08-19T06:23:20Z</time>
      </trkpt>
      <trkpt lat="44.58149" lon="2.58759">
        <ele>663</ele>
        <time>2021-08-19T06:23:22Z</time>
      </trkpt>
      <trkpt lat="44.58155" lon="2.58758">
        <ele>663.3</ele>
        <time>2021-08-19T06:23:24Z</time>
      </trkpt>
      <trkpt lat="44.5816" lon="2.58758">
        <ele>663.6</ele>
        <time>2021-08-19T06:23:26Z</time>
      </trkpt>
      <trkpt lat="44.58166" lon="2.58757">
        <ele>663.9</ele>
        <time>2021-08-19T06:23:28Z</time>
      </trkpt>
      <trkpt lat="44.5817" lon="2.58756">
        <ele>664</ele>
        <time>2021-08-19T06:23:30Z</time>
      </trkpt>
      <trkpt lat="44.58178" lon="2.58755">
        <ele>663.9</ele>
        <time>2021-08-19T06:23:32Z</time>
      </trkpt>
      <trkpt lat="44.58185" lon="2.58752">
        <ele>663.8</ele>
        <time>2021-08-19T06:23:34Z</time>
      </trkpt>
      <trkpt lat="44.58188" lon="2.58751">
        <ele>663.7</ele>
        <time>2021-08-19T06:23:36Z</time>
      </trkpt>
      <trkpt lat="44.58196" lon="2.58749">
        <ele>663.6</ele>
        <time>2021-08-19T06:23:38Z</time>
      </trkpt>
      <trkpt lat="44.58205" lon="2.58745">
        <ele>663.1</ele>
        <time>2021-08-19T06:23:40Z</time>
      </trkpt>
      <trkpt lat="44.58212" lon="2.58741">
        <ele>662.7</ele>
        <time>2021-08-19T06:23:42Z</time>
      </trkpt>
      <trkpt lat="44.5822" lon="2.58736">
        <ele>662.2</ele>
        <time>2021-08-19T06:23:44Z</time>
      </trkpt>
      <trkpt lat="44.58227" lon="2.58727">
        <ele>661.3</ele>
        <time>2021-08-19T06:23:46Z</time>
      </trkpt>
      <trkpt lat="44.58234" lon="2.58716">
        <ele>660.2</ele>
        <time>2021-08-19T06:23:48Z</time>
      </trkpt>
      <trkpt lat="44.58242" lon="2.58708">
        <ele>659.2</ele>
        <time>2021-08-19T06:23:50Z</time>
      </trkpt>
      <trkpt lat="44.5825" lon="2.58697">
        <ele>657.9</ele>
        <time>2021-08-19T06:23:52Z</time>
      </trkpt>
      <trkpt lat="44.58258" lon="2.58686">
        <ele>657.1</ele>
        <time>2021-08-19T06:23:54Z</time>
      </trkpt>
      <trkpt lat="44.58268" lon="2.58676">
        <ele>656.6</ele>
        <time>2021-08-19T06:23:56Z</time>
      </trkpt>
      <trkpt lat="44.58276" lon="2.58667">
        <ele>656.3</ele>
        <time>2021-08-19T06:23:58Z</time>
      </trkpt>
      <trkpt lat="44.58286" lon="2.58656">
        <ele>655.9</ele>
        <time>2021-08-19T06:24:00Z</time>
      </trkpt>
      <trkpt lat="44.58295" lon="2.58645">
        <ele>655.6</ele>
        <time>2021-08-19T06:24:02Z</time>
      </trkpt>
      <trkpt lat="44.58303" lon="2.58635">
        <ele>655.5</ele>
        <time>2021-08-19T06:24:04Z</time>
      </trkpt>
      <trkpt lat="44.58313" lon="2.58625">
        <ele>655.5</ele>
        <time>2021-08-19T06:24:06Z</time>
      </trkpt>
      <trkpt lat="44.5832" lon="2.58612">
        <ele>655.3</ele>
        <time>2021-08-19T06:24:08Z</time>
      </trkpt>
      <trkpt lat="44.58324" lon="2.58597">
        <ele>654.8</ele>
        <time>2021-08-19T06:24:10Z</time>
      </trkpt>
      <trkpt lat="44.58325" lon="2.58582">
        <ele>654.1</ele>
        <time>2021-08-19T06:24:12Z</time>
      </trkpt>
      <trkpt lat="44.58324" lon="2.58569">
        <ele>653.3</ele>
        <time>2021-08-19T06:24:14Z</time>
      </trkpt>
      <trkpt lat="44.58324" lon="2.58555">
        <ele>652.6</ele>
        <time>2021-08-19T06:24:16Z</time>
      </trkpt>
      <trkpt lat="44.58325" lon="2.58542">
        <ele>651.9</ele>
        <time>2021-08-19T06:24:18Z</time>
      </trkpt>
      <trkpt lat="44.58328" lon="2.5853">
        <ele>651.4</ele>
        <time>2021-08-19T06:24:20Z</time>
      </trkpt>
      <trkpt lat="44.58333" lon="2.58519">
        <ele>651.1</ele>
        <time>2021-08-19T06:24:22Z</time>
      </trkpt>
      <trkpt lat="44.5834" lon="2.58512">
        <ele>651.2</ele>
        <time>2021-08-19T06:24:24Z</time>
      </trkpt>
      <trkpt lat="44.58347" lon="2.58506">
        <ele>651.4</ele>
        <time>2021-08-19T06:24:26Z</time>
      </trkpt>
      <trkpt lat="44.58352" lon="2.585">
        <ele>651.6</ele>
        <time>2021-08-19T06:24:28Z</time>
      </trkpt>
      <trkpt lat="44.58358" lon="2.58493">
        <ele>651.6</ele>
        <time>2021-08-19T06:24:30Z</time>
      </trkpt>
      <trkpt lat="44.58363" lon="2.58486">
        <ele>651.6</ele>
        <time>2021-08-19T06:24:32Z</time>
      </trkpt>
      <trkpt lat="44.58369" lon="2.58478">
        <ele>651.6</ele>
        <time>2021-08-19T06:24:34Z</time>
      </trkpt>
      <trkpt lat="44.58376" lon="2.58471">
        <ele>651.6</ele>
        <time>2021-08-19T06:24:36Z</time>
      </trkpt>
      <trkpt lat="44.58382" lon="2.58462">
        <ele>651.6</ele>
        <time>2021-08-19T06:24:38Z</time>
      </trkpt>
      <trkpt lat="44.5839" lon="2.58455">
        <ele>651.7</ele>
        <time>2021-08-19T06:24:40Z</time>
      </trkpt>
      <trkpt lat="44.584" lon="2.5845">
        <ele>652.1</ele>
        <time>2021-08-19T06:24:42Z</time>
      </trkpt>
      <trkpt lat="44.5841" lon="2.58447">
        <ele>652.7</ele>
        <time>2021-08-19T06:24:44Z</time>
      </trkpt>
      <trkpt lat="44.58421" lon="2.58445">
        <ele>653</ele>
        <time>2021-08-19T06:24:46Z</time>
      </trkpt>
      <trkpt lat="44.58433" lon="2.58444">
        <ele>652.8</ele>
        <time>2021-08-19T06:24:48Z</time>
      </trkpt>
      <trkpt lat="44.58443" lon="2.58439">
        <ele>652.5</ele>
        <time>2021-08-19T06:24:50Z</time>
      </trkpt>
      <trkpt lat="44.58454" lon="2.58435">
        <ele>652.1</ele>
        <time>2021-08-19T06:24:52Z</time>
      </trkpt>
      <trkpt lat="44.58463" lon="2.58427">
        <ele>651.6</ele>
        <time>2021-08-19T06:24:54Z</time>
      </trkpt>
      <trkpt lat="44.58472" lon="2.58421">
        <ele>651.2</ele>
        <time>2021-08-19T06:24:56Z</time>
      </trkpt>
      <trkpt lat="44.5848" lon="2.58414">
        <ele>650.8</ele>
        <time>2021-08-19T06:24:58Z</time>
      </trkpt>
      <trkpt lat="44.58489" lon="2.58407">
        <ele>650.2</ele>
        <time>2021-08-19T06:25:00Z</time>
      </trkpt>
      <trkpt lat="44.58495" lon="2.58401">
        <ele>649.8</ele>
        <time>2021-08-19T06:25:02Z</time>
      </trkpt>
      <trkpt lat="44.58503" lon="2.58395">
        <ele>649.5</ele>
        <time>2021-08-19T06:25:04Z</time>
      </trkpt>
      <trkpt lat="44.58512" lon="2.58392">
        <ele>649.5</ele>
        <time>2021-08-19T06:25:06Z</time>
      </trkpt>
      <trkpt lat="44.58522" lon="2.58389">
        <ele>649.5</ele>
        <time>2021-08-19T06:25:08Z</time>
      </trkpt>
      <trkpt lat="44.58532" lon="2.58386">
        <ele>649.6</ele>
        <time>2021-08-19T06:25:10Z</time>
      </trkpt>
      <trkpt lat="44.58542" lon="2.58383">
        <ele>649.7</ele>
        <time>2021-08-19T06:25:12Z</time>
      </trkpt>
      <trkpt lat="44.58552" lon="2.5838">
        <ele>649.8</ele>
        <time>2021-08-19T06:25:14Z</time>
      </trkpt>
      <trkpt lat="44.58563" lon="2.58376">
        <ele>649.9</ele>
        <time>2021-08-19T06:25:16Z</time>
      </trkpt>
      <trkpt lat="44.58573" lon="2.58373">
        <ele>650.1</ele>
        <time>2021-08-19T06:25:18Z</time>
      </trkpt>
      <trkpt lat="44.58583" lon="2.5837">
        <ele>650.3</ele>
        <time>2021-08-19T06:25:20Z</time>
      </trkpt>
      <trkpt lat="44.58594" lon="2.58368">
        <ele>650</ele>
        <time>2021-08-19T06:25:22Z</time>
      </trkpt>
      <trkpt lat="44.58605" lon="2.58364">
        <ele>649.6</ele>
        <time>2021-08-19T06:25:24Z</time>
      </trkpt>
      <trkpt lat="44.58615" lon="2.58361">
        <ele>649.4</ele>
        <time>2021-08-19T06:25:26Z</time>
      </trkpt>
      <trkpt lat="44.58624" lon="2.58358">
        <ele>649.2</ele>
        <time>2021-08-19T06:25:28Z</time>
      </trkpt>
      <trkpt lat="44.58633" lon="2.58355">
        <ele>649</ele>
        <time>2021-08-19T06:25:30Z</time>
      </trkpt>
      <trkpt lat="44.58645" lon="2.58351">
        <ele>648.9</ele>
        <time>2021-08-19T06:25:32Z</time>
      </trkpt>
      <trkpt lat="44.58655" lon="2.58345">
        <ele>648.8</ele>
        <time>2021-08-19T06:25:34Z</time>
      </trkpt>
      <trkpt lat="44.58667" lon="2.5834">
        <ele>648.8</ele>
        <time>2021-08-19T06:25:36Z</time>
      </trkpt>
      <trkpt lat="44.5868" lon="2.58329">
        <ele>647.4</ele>
        <time>2021-08-19T06:25:38Z</time>
      </trkpt>
      <trkpt lat="44.58691" lon="2.58315">
        <ele>645.4</ele>
        <time>2021-08-19T06:25:40Z</time>
      </trkpt>
      <trkpt lat="44.58699" lon="2.58298">
        <ele>643.9</ele>
        <time>2021-08-19T06:25:42Z</time>
      </trkpt>
      <trkpt lat="44.58707" lon="2.58281">
        <ele>642.8</ele>
        <time>2021-08-19T06:25:44Z</time>
      </trkpt>
      <trkpt lat="44.58714" lon="2.58263">
        <ele>642.1</ele>
        <time>2021-08-19T06:25:46Z</time>
      </trkpt>
      <trkpt lat="44.58721" lon="2.58245">
        <ele>641.9</ele>
        <time>2021-08-19T06:25:48Z</time>
      </trkpt>
      <trkpt lat="44.58729" lon="2.58229">
        <ele>641.9</ele>
        <time>2021-08-19T06:25:50Z</time>
      </trkpt>
      <trkpt lat="44.58737" lon="2.58213">
        <ele>642.2</ele>
        <time>2021-08-19T06:25:52Z</time>
      </trkpt>
      <trkpt lat="44.58746" lon="2.58201">
        <ele>642.7</ele>
        <time>2021-08-19T06:25:54Z</time>
      </trkpt>
      <trkpt lat="44.58756" lon="2.58189">
        <ele>643</ele>
        <time>2021-08-19T06:25:56Z</time>
      </trkpt>
      <trkpt lat="44.58766" lon="2.58179">
        <ele>643.1</ele>
        <time>2021-08-19T06:25:58Z</time>
      </trkpt>
      <trkpt lat="44.58777" lon="2.58173">
        <ele>643.2</ele>
        <time>2021-08-19T06:26:00Z</time>
      </trkpt>
      <trkpt lat="44.58789" lon="2.58169">
        <ele>643.4</ele>
        <time>2021-08-19T06:26:02Z</time>
      </trkpt>
      <trkpt lat="44.58802" lon="2.58167">
        <ele>643.6</ele>
        <time>2021-08-19T06:26:04Z</time>
      </trkpt>
      <trkpt lat="44.58815" lon="2.58165">
        <ele>643.8</ele>
        <time>2021-08-19T06:26:06Z</time>
      </trkpt>
      <trkpt lat="44.5883" lon="2.58164">
        <ele>643.9</ele>
        <time>2021-08-19T06:26:08Z</time>
      </trkpt>
      <trkpt lat="44.58843" lon="2.58165">
        <ele>644</ele>
        <time>2021-08-19T06:26:10Z</time>
      </trkpt>
      <trkpt lat="44.58855" lon="2.5817">
        <ele>644</ele>
        <time>2021-08-19T06:26:12Z</time>
      </trkpt>
      <trkpt lat="44.58865" lon="2.58177">
        <ele>644</ele>
        <time>2021-08-19T06:26:14Z</time>
      </trkpt>
      <trkpt lat="44.58872" lon="2.58188">
        <ele>644.3</ele>
        <time>2021-08-19T06:26:16Z</time>
      </trkpt>
      <trkpt lat="44.58874" lon="2.58198">
        <ele>644.5</ele>
        <time>2021-08-19T06:26:18Z</time>
      </trkpt>
      <trkpt lat="44.58876" lon="2.58205">
        <ele>644.8</ele>
        <time>2021-08-19T06:26:20Z</time>
      </trkpt>
      <trkpt lat="44.58877" lon="2.58212">
        <ele>645</ele>
        <time>2021-08-19T06:26:22Z</time>
      </trkpt>
      <trkpt lat="44.58879" lon="2.5822">
        <ele>645.3</ele>
        <time>2021-08-19T06:26:24Z</time>
      </trkpt>
      <trkpt lat="44.58881" lon="2.58226">
        <ele>645.6</ele>
        <time>2021-08-19T06:26:26Z</time>
      </trkpt>
      <trkpt lat="44.58883" lon="2.58233">
        <ele>646</ele>
        <time>2021-08-19T06:26:28Z</time>
      </trkpt>
      <trkpt lat="44.58885" lon="2.58239">
        <ele>646.5</ele>
        <time>2021-08-19T06:26:30Z</time>
      </trkpt>
      <trkpt lat="44.58887" lon="2.58245">
        <ele>647</ele>
        <time>2021-08-19T06:26:32Z</time>
      </trkpt>
      <trkpt lat="44.5889" lon="2.58251">
        <ele>647.3</ele>
        <time>2021-08-19T06:26:34Z</time>
      </trkpt>
      <trkpt lat="44.58892" lon="2.58257">
        <ele>647.2</ele>
        <time>2021-08-19T06:26:36Z</time>
      </trkpt>
      <trkpt lat="44.58894" lon="2.58262">
        <ele>647</ele>
        <time>2021-08-19T06:26:38Z</time>
      </trkpt>
      <trkpt lat="44.58897" lon="2.58268">
        <ele>646.9</ele>
        <time>2021-08-19T06:26:40Z</time>
      </trkpt>
      <trkpt lat="44.589" lon="2.58273">
        <ele>646.8</ele>
        <time>2021-08-19T06:26:42Z</time>
      </trkpt>
      <trkpt lat="44.58902" lon="2.58277">
        <ele>646.8</ele>
        <time>2021-08-19T06:26:44Z</time>
      </trkpt>
      <trkpt lat="44.58905" lon="2.5828">
        <ele>646.8</ele>
        <time>2021-08-19T06:26:46Z</time>
      </trkpt>
      <trkpt lat="44.58909" lon="2.58284">
        <ele>646.8</ele>
        <time>2021-08-19T06:26:48Z</time>
      </trkpt>
      <trkpt lat="44.58912" lon="2.58287">
        <ele>646.9</ele>
        <time>2021-08-19T06:26:50Z</time>
      </trkpt>
      <trkpt lat="44.58916" lon="2.5829">
        <ele>647.1</ele>
        <time>2021-08-19T06:26:52Z</time>
      </trkpt>
      <trkpt lat="44.5892" lon="2.58291">
        <ele>647.1</ele>
        <time>2021-08-19T06:26:54Z</time>
      </trkpt>
      <trkpt lat="44.58923" lon="2.58292">
        <ele>647</ele>
        <time>2021-08-19T06:26:56Z</time>
      </trkpt>
      <trkpt lat="44.58928" lon="2.58292">
        <ele>647.1</ele>
        <time>2021-08-19T06:26:58Z</time>
      </trkpt>
      <trkpt lat="44.58933" lon="2.58292">
        <ele>647.2</ele>
        <time>2021-08-19T06:27:00Z</time>
      </trkpt>
      <trkpt lat="44.58937" lon="2.5829">
        <ele>647.3</ele>
        <time>2021-08-19T06:27:02Z</time>
      </trkpt>
      <trkpt lat="44.58941" lon="2.58288">
        <ele>647.6</ele>
        <time>2021-08-19T06:27:04Z</time>
      </trkpt>
      <trkpt lat="44.58945" lon="2.58287">
        <ele>647.7</ele>
        <time>2021-08-19T06:27:06Z</time>
      </trkpt>
      <trkpt lat="44.58949" lon="2.58284">
        <ele>648</ele>
        <time>2021-08-19T06:27:08Z</time>
      </trkpt>
      <trkpt lat="44.58953" lon="2.58282">
        <ele>648.2</ele>
        <time>2021-08-19T06:27:10Z</time>
      </trkpt>
      <trkpt lat="44.58958" lon="2.5828">
        <ele>648.3</ele>
        <time>2021-08-19T06:27:12Z</time>
      </trkpt>
      <trkpt lat="44.58962" lon="2.58278">
        <ele>648.5</ele>
        <time>2021-08-19T06:27:14Z</time>
      </trkpt>
      <trkpt lat="44.58967" lon="2.58278">
        <ele>648.5</ele>
        <time>2021-08-19T06:27:16Z</time>
      </trkpt>
      <trkpt lat="44.58972" lon="2.58279">
        <ele>648.5</ele>
        <time>2021-08-19T06:27:18Z</time>
      </trkpt>
      <trkpt lat="44.58976" lon="2.5828">
        <ele>648.4</ele>
        <time>2021-08-19T06:27:20Z</time>
      </trkpt>
      <trkpt lat="44.5898" lon="2.58282">
        <ele>648.3</ele>
        <time>2021-08-19T06:27:22Z</time>
      </trkpt>
      <trkpt lat="44.58984" lon="2.58283">
        <ele>648.3</ele>
        <time>2021-08-19T06:27:24Z</time>
      </trkpt>
      <trkpt lat="44.58988" lon="2.58284">
        <ele>648.3</ele>
        <time>2021-08-19T06:27:26Z</time>
      </trkpt>
      <trkpt lat="44.58992" lon="2.58285">
        <ele>648.2</ele>
        <time>2021-08-19T06:27:28Z</time>
      </trkpt>
      <trkpt lat="44.58996" lon="2.58286">
        <ele>648.3</ele>
        <time>2021-08-19T06:27:30Z</time>
      </trkpt>
      <trkpt lat="44.58999" lon="2.58287">
        <ele>648.2</ele>
        <time>2021-08-19T06:27:32Z</time>
      </trkpt>
      <trkpt lat="44.59003" lon="2.58287">
        <ele>648.2</ele>
        <time>2021-08-19T06:27:34Z</time>
      </trkpt>
      <trkpt lat="44.59007" lon="2.58287">
        <ele>648.2</ele>
        <time>2021-08-19T06:27:36Z</time>
      </trkpt>
      <trkpt lat="44.59011" lon="2.58287">
        <ele>648.2</ele>
        <time>2021-08-19T06:27:38Z</time>
      </trkpt>
      <trkpt lat="44.59015" lon="2.58287">
        <ele>648.2</ele>
        <time>2021-08-19T06:27:40Z</time>
      </trkpt>
      <trkpt lat="44.59019" lon="2.58286">
        <ele>648.2</ele>
        <time>2021-08-19T06:27:42Z</time>
      </trkpt>
      <trkpt lat="44.59024" lon="2.58284">
        <ele>648.2</ele>
        <time>2021-08-19T06:27:44Z</time>
      </trkpt>
      <trkpt lat="44.59029" lon="2.58283">
        <ele>648.3</ele>
        <time>2021-08-19T06:27:46Z</time>
      </trkpt>
      <trkpt lat="44.59034" lon="2.58281">
        <ele>648.4</ele>
        <time>2021-08-19T06:27:48Z</time>
      </trkpt>
      <trkpt lat="44.5904" lon="2.58278">
        <ele>648.5</ele>
        <time>2021-08-19T06:27:50Z</time>
      </trkpt>
      <trkpt lat="44.59047" lon="2.58276">
        <ele>648.6</ele>
        <time>2021-08-19T06:27:52Z</time>
      </trkpt>
      <trkpt lat="44.59054" lon="2.58273">
        <ele>648.7</ele>
        <time>2021-08-19T06:27:54Z</time>
      </trkpt>
      <trkpt lat="44.59062" lon="2.58272">
        <ele>648.8</ele>
        <time>2021-08-19T06:27:56Z</time>
      </trkpt>
      <trkpt lat="44.5907" lon="2.58272">
        <ele>648.7</ele>
        <time>2021-08-19T06:27:58Z</time>
      </trkpt>
      <trkpt lat="44.59079" lon="2.58275">
        <ele>648.5</ele>
        <time>2021-08-19T06:28:00Z</time>
      </trkpt>
      <trkpt lat="44.59088" lon="2.58278">
        <ele>648.3</ele>
        <time>2021-08-19T06:28:02Z</time>
      </trkpt>
      <trkpt lat="44.59097" lon="2.58283">
        <ele>648</ele>
        <time>2021-08-19T06:28:04Z</time>
      </trkpt>
      <trkpt lat="44.59105" lon="2.58288">
        <ele>647.7</ele>
        <time>2021-08-19T06:28:06Z</time>
      </trkpt>
      <trkpt lat="44.59114" lon="2.58294">
        <ele>647.4</ele>
        <time>2021-08-19T06:28:08Z</time>
      </trkpt>
      <trkpt lat="44.59123" lon="2.58298">
        <ele>647.3</ele>
        <time>2021-08-19T06:28:10Z</time>
      </trkpt>
      <trkpt lat="44.59132" lon="2.58302">
        <ele>647.2</ele>
        <time>2021-08-19T06:28:12Z</time>
      </trkpt>
      <trkpt lat="44.5914" lon="2.58306">
        <ele>647.1</ele>
        <time>2021-08-19T06:28:14Z</time>
      </trkpt>
      <trkpt lat="44.59149" lon="2.58307">
        <ele>647.2</ele>
        <time>2021-08-19T06:28:16Z</time>
      </trkpt>
      <trkpt lat="44.59158" lon="2.58308">
        <ele>647.2</ele>
        <time>2021-08-19T06:28:18Z</time>
      </trkpt>
      <trkpt lat="44.59167" lon="2.58309">
        <ele>647.3</ele>
        <time>2021-08-19T06:28:20Z</time>
      </trkpt>
      <trkpt lat="44.59177" lon="2.58309">
        <ele>646.7</ele>
        <time>2021-08-19T06:28:22Z</time>
      </trkpt>
      <trkpt lat="44.59189" lon="2.58311">
        <ele>646.1</ele>
        <time>2021-08-19T06:28:24Z</time>
      </trkpt>
      <trkpt lat="44.59202" lon="2.58313">
        <ele>645.5</ele>
        <time>2021-08-19T06:28:26Z</time>
      </trkpt>
      <trkpt lat="44.59215" lon="2.58316">
        <ele>644.8</ele>
        <time>2021-08-19T06:28:28Z</time>
      </trkpt>
      <trkpt lat="44.59229" lon="2.58319">
        <ele>644</ele>
        <time>2021-08-19T06:28:30Z</time>
      </trkpt>
      <trkpt lat="44.59244" lon="2.58323">
        <ele>643.3</ele>
        <time>2021-08-19T06:28:32Z</time>
      </trkpt>
      <trkpt lat="44.5926" lon="2.58326">
        <ele>642.7</ele>
        <time>2021-08-19T06:28:34Z</time>
      </trkpt>
      <trkpt lat="44.59275" lon="2.58328">
        <ele>642.3</ele>
        <time>2021-08-19T06:28:36Z</time>
      </trkpt>
      <trkpt lat="44.59291" lon="2.58329">
        <ele>641.9</ele>
        <time>2021-08-19T06:28:38Z</time>
      </trkpt>
      <trkpt lat="44.59307" lon="2.58326">
        <ele>641.3</ele>
        <time>2021-08-19T06:28:40Z</time>
      </trkpt>
      <trkpt lat="44.59324" lon="2.5832">
        <ele>640.5</ele>
        <time>2021-08-19T06:28:42Z</time>
      </trkpt>
      <trkpt lat="44.5934" lon="2.58314">
        <ele>639.9</ele>
        <time>2021-08-19T06:28:44Z</time>
      </trkpt>
      <trkpt lat="44.59356" lon="2.58306">
        <ele>639.8</ele>
        <time>2021-08-19T06:28:46Z</time>
      </trkpt>
      <trkpt lat="44.59371" lon="2.583">
        <ele>639.8</ele>
        <time>2021-08-19T06:28:48Z</time>
      </trkpt>
      <trkpt lat="44.59386" lon="2.58296">
        <ele>640</ele>
        <time>2021-08-19T06:28:50Z</time>
      </trkpt>
      <trkpt lat="44.594" lon="2.58292">
        <ele>640.1</ele>
        <time>2021-08-19T06:28:52Z</time>
      </trkpt>
      <trkpt lat="44.59412" lon="2.58288">
        <ele>640.3</ele>
        <time>2021-08-19T06:28:54Z</time>
      </trkpt>
      <trkpt lat="44.59422" lon="2.58286">
        <ele>640.4</ele>
        <time>2021-08-19T06:28:56Z</time>
      </trkpt>
      <trkpt lat="44.59431" lon="2.58284">
        <ele>640.4</ele>
        <time>2021-08-19T06:28:58Z</time>
      </trkpt>
      <trkpt lat="44.59439" lon="2.58283">
        <ele>640.5</ele>
        <time>2021-08-19T06:29:00Z</time>
      </trkpt>
      <trkpt lat="44.59445" lon="2.58283">
        <ele>640.5</ele>
        <time>2021-08-19T06:29:02Z</time>
      </trkpt>
      <trkpt lat="44.5945" lon="2.5828">
        <ele>640.5</ele>
        <time>2021-08-19T06:29:04Z</time>
      </trkpt>
      <trkpt lat="44.59456" lon="2.58272">
        <ele>640.2</ele>
        <time>2021-08-19T06:29:06Z</time>
      </trkpt>
      <trkpt lat="44.59461" lon="2.58262">
        <ele>640</ele>
        <time>2021-08-19T06:29:08Z</time>
      </trkpt>
      <trkpt lat="44.59468" lon="2.58253">
        <ele>639.7</ele>
        <time>2021-08-19T06:29:10Z</time>
      </trkpt>
      <trkpt lat="44.59474" lon="2.58244">
        <ele>639.7</ele>
        <time>2021-08-19T06:29:12Z</time>
      </trkpt>
      <trkpt lat="44.59482" lon="2.58236">
        <ele>639.8</ele>
        <time>2021-08-19T06:29:14Z</time>
      </trkpt>
      <trkpt lat="44.59489" lon="2.58228">
        <ele>640</ele>
        <time>2021-08-19T06:29:16Z</time>
      </trkpt>
      <trkpt lat="44.59497" lon="2.58222">
        <ele>640.2</ele>
        <time>2021-08-19T06:29:18Z</time>
      </trkpt>
      <trkpt lat="44.59505" lon="2.58215">
        <ele>640.3</ele>
        <time>2021-08-19T06:29:20Z</time>
      </trkpt>
      <trkpt lat="44.59512" lon="2.5821">
        <ele>640.2</ele>
        <time>2021-08-19T06:29:22Z</time>
      </trkpt>
      <trkpt lat="44.5952" lon="2.58205">
        <ele>640.2</ele>
        <time>2021-08-19T06:29:24Z</time>
      </trkpt>
      <trkpt lat="44.59528" lon="2.582">
        <ele>640.3</ele>
        <time>2021-08-19T06:29:26Z</time>
      </trkpt>
      <trkpt lat="44.59536" lon="2.58196">
        <ele>640.3</ele>
        <time>2021-08-19T06:29:28Z</time>
      </trkpt>
      <trkpt lat="44.59543" lon="2.58192">
        <ele>640.4</ele>
        <time>2021-08-19T06:29:30Z</time>
      </trkpt>
      <trkpt lat="44.5955" lon="2.58188">
        <ele>640.6</ele>
        <time>2021-08-19T06:29:32Z</time>
      </trkpt>
      <trkpt lat="44.59557" lon="2.58184">
        <ele>640.7</ele>
        <time>2021-08-19T06:29:34Z</time>
      </trkpt>
      <trkpt lat="44.59565" lon="2.58181">
        <ele>640.9</ele>
        <time>2021-08-19T06:29:36Z</time>
      </trkpt>
      <trkpt lat="44.59572" lon="2.58178">
        <ele>641.1</ele>
        <time>2021-08-19T06:29:38Z</time>
      </trkpt>
      <trkpt lat="44.5958" lon="2.58175">
        <ele>641.3</ele>
        <time>2021-08-19T06:29:40Z</time>
      </trkpt>
      <trkpt lat="44.59587" lon="2.58173">
        <ele>641.7</ele>
        <time>2021-08-19T06:29:42Z</time>
      </trkpt>
      <trkpt lat="44.59593" lon="2.58171">
        <ele>642.2</ele>
        <time>2021-08-19T06:29:44Z</time>
      </trkpt>
      <trkpt lat="44.596" lon="2.58169">
        <ele>642.6</ele>
        <time>2021-08-19T06:29:46Z</time>
      </trkpt>
      <trkpt lat="44.59607" lon="2.58167">
        <ele>643.1</ele>
        <time>2021-08-19T06:29:48Z</time>
      </trkpt>
      <trkpt lat="44.59613" lon="2.58166">
        <ele>643.4</ele>
        <time>2021-08-19T06:29:50Z</time>
      </trkpt>
      <trkpt lat="44.59619" lon="2.58164">
        <ele>643.7</ele>
        <time>2021-08-19T06:29:52Z</time>
      </trkpt>
      <trkpt lat="44.59625" lon="2.58163">
        <ele>644</ele>
        <time>2021-08-19T06:29:54Z</time>
      </trkpt>
      <trkpt lat="44.59631" lon="2.58162">
        <ele>644.3</ele>
        <time>2021-08-19T06:29:56Z</time>
      </trkpt>
      <trkpt lat="44.59636" lon="2.58162">
        <ele>644.6</ele>
        <time>2021-08-19T06:29:58Z</time>
      </trkpt>
      <trkpt lat="44.59642" lon="2.58161">
        <ele>644.9</ele>
        <time>2021-08-19T06:30:00Z</time>
      </trkpt>
      <trkpt lat="44.59647" lon="2.5816">
        <ele>645.2</ele>
        <time>2021-08-19T06:30:02Z</time>
      </trkpt>
      <trkpt lat="44.59653" lon="2.58159">
        <ele>645.5</ele>
        <time>2021-08-19T06:30:04Z</time>
      </trkpt>
      <trkpt lat="44.59658" lon="2.58158">
        <ele>645.8</ele>
        <time>2021-08-19T06:30:06Z</time>
      </trkpt>
      <trkpt lat="44.59664" lon="2.58158">
        <ele>646.1</ele>
        <time>2021-08-19T06:30:08Z</time>
      </trkpt>
      <trkpt lat="44.59669" lon="2.58158">
        <ele>646.3</ele>
        <time>2021-08-19T06:30:10Z</time>
      </trkpt>
      <trkpt lat="44.59675" lon="2.58157">
        <ele>646.6</ele>
        <time>2021-08-19T06:30:12Z</time>
      </trkpt>
      <trkpt lat="44.5968" lon="2.58156">
        <ele>646.9</ele>
        <time>2021-08-19T06:30:14Z</time>
      </trkpt>
      <trkpt lat="44.59685" lon="2.58156">
        <ele>647.2</ele>
        <time>2021-08-19T06:30:16Z</time>
      </trkpt>
      <trkpt lat="44.5969" lon="2.58156">
        <ele>647.4</ele>
        <time>2021-08-19T06:30:18Z</time>
      </trkpt>
      <trkpt lat="44.59695" lon="2.58156">
        <ele>647.7</ele>
        <time>2021-08-19T06:30:20Z</time>
      </trkpt>
      <trkpt lat="44.59701" lon="2.58156">
        <ele>647.9</ele>
        <time>2021-08-19T06:30:22Z</time>
      </trkpt>
      <trkpt lat="44.59706" lon="2.58155">
        <ele>648.2</ele>
        <time>2021-08-19T06:30:24Z</time>
      </trkpt>
      <trkpt lat="44.59711" lon="2.58154">
        <ele>648.5</ele>
        <time>2021-08-19T06:30:26Z</time>
      </trkpt>
      <trkpt lat="44.59717" lon="2.58154">
        <ele>648.8</ele>
        <time>2021-08-19T06:30:28Z</time>
      </trkpt>
      <trkpt lat="44.59723" lon="2.58154">
        <ele>649.1</ele>
        <time>2021-08-19T06:30:30Z</time>
      </trkpt>
      <trkpt lat="44.59728" lon="2.58153">
        <ele>649.4</ele>
        <time>2021-08-19T06:30:32Z</time>
      </trkpt>
      <trkpt lat="44.59733" lon="2.58153">
        <ele>649.8</ele>
        <time>2021-08-19T06:30:34Z</time>
      </trkpt>
      <trkpt lat="44.59738" lon="2.58152">
        <ele>650.1</ele>
        <time>2021-08-19T06:30:36Z</time>
      </trkpt>
      <trkpt lat="44.59743" lon="2.58153">
        <ele>650.3</ele>
        <time>2021-08-19T06:30:38Z</time>
      </trkpt>
      <trkpt lat="44.59749" lon="2.58154">
        <ele>650.5</ele>
        <time>2021-08-19T06:30:40Z</time>
      </trkpt>
      <trkpt lat="44.59754" lon="2.58152">
        <ele>650.6</ele>
        <time>2021-08-19T06:30:42Z</time>
      </trkpt>
      <trkpt lat="44.5976" lon="2.58152">
        <ele>650.4</ele>
        <time>2021-08-19T06:30:44Z</time>
      </trkpt>
      <trkpt lat="44.59765" lon="2.58152">
        <ele>650.3</ele>
        <time>2021-08-19T06:30:46Z</time>
      </trkpt>
      <trkpt lat="44.59771" lon="2.58151">
        <ele>650.1</ele>
        <time>2021-08-19T06:30:48Z</time>
      </trkpt>
      <trkpt lat="44.59776" lon="2.5815">
        <ele>650</ele>
        <time>2021-08-19T06:30:50Z</time>
      </trkpt>
      <trkpt lat="44.59782" lon="2.5815">
        <ele>649.8</ele>
        <time>2021-08-19T06:30:52Z</time>
      </trkpt>
      <trkpt lat="44.59788" lon="2.58148">
        <ele>649.9</ele>
        <time>2021-08-19T06:30:54Z</time>
      </trkpt>
      <trkpt lat="44.59794" lon="2.58146">
        <ele>649.9</ele>
        <time>2021-08-19T06:30:56Z</time>
      </trkpt>
      <trkpt lat="44.598" lon="2.58143">
        <ele>650</ele>
        <time>2021-08-19T06:30:58Z</time>
      </trkpt>
      <trkpt lat="44.59805" lon="2.58139">
        <ele>650.3</ele>
        <time>2021-08-19T06:31:00Z</time>
      </trkpt>
      <trkpt lat="44.59811" lon="2.58135">
        <ele>650.7</ele>
        <time>2021-08-19T06:31:02Z</time>
      </trkpt>
      <trkpt lat="44.59816" lon="2.58129">
        <ele>651.1</ele>
        <time>2021-08-19T06:31:04Z</time>
      </trkpt>
      <trkpt lat="44.59821" lon="2.58123">
        <ele>651.6</ele>
        <time>2021-08-19T06:31:06Z</time>
      </trkpt>
      <trkpt lat="44.59825" lon="2.58118">
        <ele>652.2</ele>
        <time>2021-08-19T06:31:08Z</time>
      </trkpt>
      <trkpt lat="44.5983" lon="2.58112">
        <ele>652.6</ele>
        <time>2021-08-19T06:31:10Z</time>
      </trkpt>
      <trkpt lat="44.59835" lon="2.58107">
        <ele>653.1</ele>
        <time>2021-08-19T06:31:12Z</time>
      </trkpt>
      <trkpt lat="44.5984" lon="2.58102">
        <ele>653.5</ele>
        <time>2021-08-19T06:31:14Z</time>
      </trkpt>
      <trkpt lat="44.59845" lon="2.58097">
        <ele>653.9</ele>
        <time>2021-08-19T06:31:16Z</time>
      </trkpt>
      <trkpt lat="44.5985" lon="2.58092">
        <ele>654.4</ele>
        <time>2021-08-19T06:31:18Z</time>
      </trkpt>
      <trkpt lat="44.59855" lon="2.58087">
        <ele>654.8</ele>
        <time>2021-08-19T06:31:20Z</time>
      </trkpt>
      <trkpt lat="44.5986" lon="2.58082">
        <ele>655.2</ele>
        <time>2021-08-19T06:31:22Z</time>
      </trkpt>
      <trkpt lat="44.59864" lon="2.58077">
        <ele>655.7</ele>
        <time>2021-08-19T06:31:24Z</time>
      </trkpt>
      <trkpt lat="44.59868" lon="2.58072">
        <ele>656.2</ele>
        <time>2021-08-19T06:31:26Z</time>
      </trkpt>
      <trkpt lat="44.59873" lon="2.58067">
        <ele>656.7</ele>
        <time>2021-08-19T06:31:28Z</time>
      </trkpt>
      <trkpt lat="44.59878" lon="2.58063">
        <ele>657.2</ele>
        <time>2021-08-19T06:31:30Z</time>
      </trkpt>
      <trkpt lat="44.59882" lon="2.58058">
        <ele>657.7</ele>
        <time>2021-08-19T06:31:32Z</time>
      </trkpt>
      <trkpt lat="44.59886" lon="2.58053">
        <ele>658.2</ele>
        <time>2021-08-19T06:31:34Z</time>
      </trkpt>
      <trkpt lat="44.59891" lon="2.58048">
        <ele>658.7</ele>
        <time>2021-08-19T06:31:36Z</time>
      </trkpt>
      <trkpt lat="44.59895" lon="2.58044">
        <ele>659.3</ele>
        <time>2021-08-19T06:31:38Z</time>
      </trkpt>
      <trkpt lat="44.59899" lon="2.58039">
        <ele>659.8</ele>
        <time>2021-08-19T06:31:40Z</time>
      </trkpt>
      <trkpt lat="44.59903" lon="2.58035">
        <ele>660.3</ele>
        <time>2021-08-19T06:31:42Z</time>
      </trkpt>
      <trkpt lat="44.59907" lon="2.5803">
        <ele>660.9</ele>
        <time>2021-08-19T06:31:44Z</time>
      </trkpt>
      <trkpt lat="44.59911" lon="2.58025">
        <ele>661.5</ele>
        <time>2021-08-19T06:31:46Z</time>
      </trkpt>
      <trkpt lat="44.59915" lon="2.58021">
        <ele>662</ele>
        <time>2021-08-19T06:31:48Z</time>
      </trkpt>
      <trkpt lat="44.59918" lon="2.58017">
        <ele>662.4</ele>
        <time>2021-08-19T06:31:50Z</time>
      </trkpt>
      <trkpt lat="44.5992" lon="2.58017">
        <ele>662.3</ele>
        <time>2021-08-19T06:31:52Z</time>
      </trkpt>
      <trkpt lat="44.59923" lon="2.58021">
        <ele>661.6</ele>
        <time>2021-08-19T06:31:54Z</time>
      </trkpt>
      <trkpt lat="44.59923" lon="2.58027">
        <ele>660.8</ele>
        <time>2021-08-19T06:31:56Z</time>
      </trkpt>
      <trkpt lat="44.5992" lon="2.58031">
        <ele>660.4</ele>
        <time>2021-08-19T06:31:58Z</time>
      </trkpt>
      <trkpt lat="44.59917" lon="2.58032">
        <ele>660.4</ele>
        <time>2021-08-19T06:32:00Z</time>
      </trkpt>
      <trkpt lat="44.59935" lon="2.58002">
        <ele>663.2</ele>
        <time>2021-08-19T06:34:32Z</time>
      </trkpt>
      <trkpt lat="44.59939" lon="2.57997">
        <ele>663.3</ele>
        <time>2021-08-19T06:34:34Z</time>
      </trkpt>
      <trkpt lat="44.59943" lon="2.57993">
        <ele>663.3</ele>
        <time>2021-08-19T06:34:36Z</time>
      </trkpt>
      <trkpt lat="44.59946" lon="2.57988">
        <ele>663.3</ele>
        <time>2021-08-19T06:34:38Z</time>
      </trkpt>
      <trkpt lat="44.5995" lon="2.57984">
        <ele>663.2</ele>
        <time>2021-08-19T06:34:40Z</time>
      </trkpt>
      <trkpt lat="44.59954" lon="2.57979">
        <ele>663.2</ele>
        <time>2021-08-19T06:34:42Z</time>
      </trkpt>
      <trkpt lat="44.59958" lon="2.57975">
        <ele>663.2</ele>
        <time>2021-08-19T06:34:44Z</time>
      </trkpt>
      <trkpt lat="44.59962" lon="2.5797">
        <ele>663.2</ele>
        <time>2021-08-19T06:34:46Z</time>
      </trkpt>
      <trkpt lat="44.59967" lon="2.57966">
        <ele>663.1</ele>
        <time>2021-08-19T06:34:48Z</time>
      </trkpt>
      <trkpt lat="44.59971" lon="2.57962">
        <ele>663.1</ele>
        <time>2021-08-19T06:34:50Z</time>
      </trkpt>
      <trkpt lat="44.59975" lon="2.57958">
        <ele>663</ele>
        <time>2021-08-19T06:34:52Z</time>
      </trkpt>
      <trkpt lat="44.59979" lon="2.57954">
        <ele>663</ele>
        <time>2021-08-19T06:34:54Z</time>
      </trkpt>
      <trkpt lat="44.59984" lon="2.57952">
        <ele>662.7</ele>
        <time>2021-08-19T06:34:56Z</time>
      </trkpt>
      <trkpt lat="44.59989" lon="2.5795">
        <ele>662.4</ele>
        <time>2021-08-19T06:34:58Z</time>
      </trkpt>
      <trkpt lat="44.59995" lon="2.57949">
        <ele>662.1</ele>
        <time>2021-08-19T06:35:00Z</time>
      </trkpt>
      <trkpt lat="44.6" lon="2.57948">
        <ele>661.7</ele>
        <time>2021-08-19T06:35:02Z</time>
      </trkpt>
      <trkpt lat="44.60005" lon="2.57949">
        <ele>662.1</ele>
        <time>2021-08-19T06:35:04Z</time>
      </trkpt>
      <trkpt lat="44.60009" lon="2.5795">
        <ele>662.4</ele>
        <time>2021-08-19T06:35:06Z</time>
      </trkpt>
      <trkpt lat="44.60014" lon="2.57953">
        <ele>662.7</ele>
        <time>2021-08-19T06:35:08Z</time>
      </trkpt>
      <trkpt lat="44.60018" lon="2.57956">
        <ele>662.7</ele>
        <time>2021-08-19T06:35:10Z</time>
      </trkpt>
      <trkpt lat="44.60021" lon="2.5796">
        <ele>662.8</ele>
        <time>2021-08-19T06:35:12Z</time>
      </trkpt>
      <trkpt lat="44.60025" lon="2.57964">
        <ele>662.8</ele>
        <time>2021-08-19T06:35:14Z</time>
      </trkpt>
      <trkpt lat="44.60029" lon="2.57967">
        <ele>662.8</ele>
        <time>2021-08-19T06:35:16Z</time>
      </trkpt>
      <trkpt lat="44.60032" lon="2.57971">
        <ele>662.9</ele>
        <time>2021-08-19T06:35:18Z</time>
      </trkpt>
      <trkpt lat="44.60036" lon="2.57974">
        <ele>662.9</ele>
        <time>2021-08-19T06:35:20Z</time>
      </trkpt>
      <trkpt lat="44.6004" lon="2.57977">
        <ele>662.9</ele>
        <time>2021-08-19T06:35:22Z</time>
      </trkpt>
      <trkpt lat="44.60044" lon="2.57981">
        <ele>662.9</ele>
        <time>2021-08-19T06:35:24Z</time>
      </trkpt>
      <trkpt lat="44.60047" lon="2.57985">
        <ele>662.8</ele>
        <time>2021-08-19T06:35:26Z</time>
      </trkpt>
      <trkpt lat="44.6005" lon="2.5799">
        <ele>662.6</ele>
        <time>2021-08-19T06:35:28Z</time>
      </trkpt>
      <trkpt lat="44.60054" lon="2.57995">
        <ele>662.4</ele>
        <time>2021-08-19T06:35:30Z</time>
      </trkpt>
      <trkpt lat="44.60057" lon="2.58002">
        <ele>662</ele>
        <time>2021-08-19T06:35:32Z</time>
      </trkpt>
      <trkpt lat="44.60059" lon="2.58009">
        <ele>661.9</ele>
        <time>2021-08-19T06:35:34Z</time>
      </trkpt>
      <trkpt lat="44.60063" lon="2.58019">
        <ele>661.7</ele>
        <time>2021-08-19T06:35:36Z</time>
      </trkpt>
      <trkpt lat="44.60066" lon="2.58029">
        <ele>661.5</ele>
        <time>2021-08-19T06:35:38Z</time>
      </trkpt>
      <trkpt lat="44.60069" lon="2.58041">
        <ele>661.2</ele>
        <time>2021-08-19T06:35:40Z</time>
      </trkpt>
      <trkpt lat="44.60072" lon="2.58054">
        <ele>660.8</ele>
        <time>2021-08-19T06:35:42Z</time>
      </trkpt>
      <trkpt lat="44.60076" lon="2.58068">
        <ele>660.4</ele>
        <time>2021-08-19T06:35:44Z</time>
      </trkpt>
      <trkpt lat="44.60082" lon="2.58083">
        <ele>659.9</ele>
        <time>2021-08-19T06:35:46Z</time>
      </trkpt>
      <trkpt lat="44.60089" lon="2.58099">
        <ele>659.8</ele>
        <time>2021-08-19T06:35:48Z</time>
      </trkpt>
      <trkpt lat="44.60096" lon="2.58115">
        <ele>659.6</ele>
        <time>2021-08-19T06:35:50Z</time>
      </trkpt>
      <trkpt lat="44.60105" lon="2.58133">
        <ele>659.2</ele>
        <time>2021-08-19T06:35:52Z</time>
      </trkpt>
      <trkpt lat="44.60116" lon="2.58151">
        <ele>658.6</ele>
        <time>2021-08-19T06:35:54Z</time>
      </trkpt>
      <trkpt lat="44.60126" lon="2.58171">
        <ele>657.8</ele>
        <time>2021-08-19T06:35:56Z</time>
      </trkpt>
      <trkpt lat="44.60137" lon="2.58189">
        <ele>656.5</ele>
        <time>2021-08-19T06:35:58Z</time>
      </trkpt>
      <trkpt lat="44.60147" lon="2.58208">
        <ele>655.2</ele>
        <time>2021-08-19T06:36:00Z</time>
      </trkpt>
      <trkpt lat="44.60157" lon="2.58226">
        <ele>653.8</ele>
        <time>2021-08-19T06:36:02Z</time>
      </trkpt>
      <trkpt lat="44.60168" lon="2.58242">
        <ele>652.5</ele>
        <time>2021-08-19T06:36:04Z</time>
      </trkpt>
      <trkpt lat="44.60179" lon="2.58256">
        <ele>653.3</ele>
        <time>2021-08-19T06:36:06Z</time>
      </trkpt>
      <trkpt lat="44.60189" lon="2.58269">
        <ele>653.6</ele>
        <time>2021-08-19T06:36:08Z</time>
      </trkpt>
      <trkpt lat="44.60199" lon="2.58279">
        <ele>654.1</ele>
        <time>2021-08-19T06:36:10Z</time>
      </trkpt>
      <trkpt lat="44.6021" lon="2.5829">
        <ele>654.7</ele>
        <time>2021-08-19T06:36:12Z</time>
      </trkpt>
      <trkpt lat="44.60219" lon="2.58303">
        <ele>654.9</ele>
        <time>2021-08-19T06:36:14Z</time>
      </trkpt>
      <trkpt lat="44.60225" lon="2.58318">
        <ele>654.3</ele>
        <time>2021-08-19T06:36:16Z</time>
      </trkpt>
      <trkpt lat="44.60228" lon="2.58334">
        <ele>653</ele>
        <time>2021-08-19T06:36:18Z</time>
      </trkpt>
      <trkpt lat="44.60229" lon="2.58351">
        <ele>652.1</ele>
        <time>2021-08-19T06:36:20Z</time>
      </trkpt>
      <trkpt lat="44.60228" lon="2.58368">
        <ele>651</ele>
        <time>2021-08-19T06:36:22Z</time>
      </trkpt>
      <trkpt lat="44.60229" lon="2.58383">
        <ele>650.3</ele>
        <time>2021-08-19T06:36:24Z</time>
      </trkpt>
      <trkpt lat="44.60231" lon="2.58399">
        <ele>649.6</ele>
        <time>2021-08-19T06:36:26Z</time>
      </trkpt>
      <trkpt lat="44.60234" lon="2.58414">
        <ele>649.3</ele>
        <time>2021-08-19T06:36:28Z</time>
      </trkpt>
      <trkpt lat="44.60239" lon="2.58427">
        <ele>649</ele>
        <time>2021-08-19T06:36:30Z</time>
      </trkpt>
      <trkpt lat="44.60247" lon="2.58439">
        <ele>648.9</ele>
        <time>2021-08-19T06:36:32Z</time>
      </trkpt>
      <trkpt lat="44.60257" lon="2.58448">
        <ele>648.2</ele>
        <time>2021-08-19T06:36:34Z</time>
      </trkpt>
      <trkpt lat="44.60269" lon="2.58454">
        <ele>647.5</ele>
        <time>2021-08-19T06:36:36Z</time>
      </trkpt>
      <trkpt lat="44.60281" lon="2.58455">
        <ele>647.3</ele>
        <time>2021-08-19T06:36:38Z</time>
      </trkpt>
      <trkpt lat="44.60293" lon="2.58453">
        <ele>647.4</ele>
        <time>2021-08-19T06:36:40Z</time>
      </trkpt>
      <trkpt lat="44.60303" lon="2.58451">
        <ele>647.6</ele>
        <time>2021-08-19T06:36:42Z</time>
      </trkpt>
      <trkpt lat="44.60314" lon="2.58448">
        <ele>647.9</ele>
        <time>2021-08-19T06:36:44Z</time>
      </trkpt>
      <trkpt lat="44.60323" lon="2.58447">
        <ele>648.1</ele>
        <time>2021-08-19T06:36:46Z</time>
      </trkpt>
      <trkpt lat="44.60333" lon="2.58445">
        <ele>648.3</ele>
        <time>2021-08-19T06:36:48Z</time>
      </trkpt>
      <trkpt lat="44.60342" lon="2.58443">
        <ele>647.7</ele>
        <time>2021-08-19T06:36:50Z</time>
      </trkpt>
      <trkpt lat="44.6035" lon="2.58441">
        <ele>647.2</ele>
        <time>2021-08-19T06:36:52Z</time>
      </trkpt>
      <trkpt lat="44.60358" lon="2.58439">
        <ele>646.6</ele>
        <time>2021-08-19T06:36:54Z</time>
      </trkpt>
      <trkpt lat="44.60366" lon="2.58436">
        <ele>646.3</ele>
        <time>2021-08-19T06:36:56Z</time>
      </trkpt>
      <trkpt lat="44.60375" lon="2.58433">
        <ele>645.9</ele>
        <time>2021-08-19T06:36:58Z</time>
      </trkpt>
      <trkpt lat="44.60382" lon="2.58429">
        <ele>645.7</ele>
        <time>2021-08-19T06:37:00Z</time>
      </trkpt>
      <trkpt lat="44.60389" lon="2.58423">
        <ele>645.8</ele>
        <time>2021-08-19T06:37:02Z</time>
      </trkpt>
      <trkpt lat="44.60396" lon="2.58415">
        <ele>646.2</ele>
        <time>2021-08-19T06:37:04Z</time>
      </trkpt>
      <trkpt lat="44.60403" lon="2.58407">
        <ele>646.6</ele>
        <time>2021-08-19T06:37:06Z</time>
      </trkpt>
      <trkpt lat="44.60413" lon="2.58399">
        <ele>646.7</ele>
        <time>2021-08-19T06:37:08Z</time>
      </trkpt>
      <trkpt lat="44.60423" lon="2.58392">
        <ele>646.6</ele>
        <time>2021-08-19T06:37:10Z</time>
      </trkpt>
      <trkpt lat="44.60433" lon="2.58384">
        <ele>646.4</ele>
        <time>2021-08-19T06:37:12Z</time>
      </trkpt>
      <trkpt lat="44.60443" lon="2.58376">
        <ele>646.4</ele>
        <time>2021-08-19T06:37:14Z</time>
      </trkpt>
      <trkpt lat="44.60451" lon="2.58365">
        <ele>646.9</ele>
        <time>2021-08-19T06:37:16Z</time>
      </trkpt>
      <trkpt lat="44.60457" lon="2.58356">
        <ele>647.3</ele>
        <time>2021-08-19T06:37:18Z</time>
      </trkpt>
      <trkpt lat="44.60463" lon="2.58353">
        <ele>647</ele>
        <time>2021-08-19T06:37:20Z</time>
      </trkpt>
      <trkpt lat="44.60466" lon="2.58354">
        <ele>646.5</ele>
        <time>2021-08-19T06:37:22Z</time>
      </trkpt>
      <trkpt lat="44.60471" lon="2.58355">
        <ele>645.8</ele>
        <time>2021-08-19T06:37:24Z</time>
      </trkpt>
      <trkpt lat="44.60476" lon="2.58351">
        <ele>645.7</ele>
        <time>2021-08-19T06:37:26Z</time>
      </trkpt>
      <trkpt lat="44.6048" lon="2.58347">
        <ele>645.8</ele>
        <time>2021-08-19T06:37:28Z</time>
      </trkpt>
      <trkpt lat="44.60482" lon="2.58344">
        <ele>645.9</ele>
        <time>2021-08-19T06:37:30Z</time>
      </trkpt>
      <trkpt lat="44.60483" lon="2.58342">
        <ele>646</ele>
        <time>2021-08-19T06:37:32Z</time>
      </trkpt>
      <trkpt lat="44.60485" lon="2.58341">
        <ele>645.9</ele>
        <time>2021-08-19T06:37:34Z</time>
      </trkpt>
      <trkpt lat="44.60485" lon="2.5834">
        <ele>645.9</ele>
        <time>2021-08-19T06:37:36Z</time>
      </trkpt>
      <trkpt lat="44.60486" lon="2.5834">
        <ele>645.8</ele>
        <time>2021-08-19T06:37:38Z</time>
      </trkpt>
      <trkpt lat="44.60488" lon="2.58339">
        <ele>645.8</ele>
        <time>2021-08-19T06:37:40Z</time>
      </trkpt>
      <trkpt lat="44.60475" lon="2.58301">
        <ele>648.1</ele>
        <time>2021-08-19T06:41:58Z</time>
      </trkpt>
      <trkpt lat="44.60477" lon="2.58296">
        <ele>647.7</ele>
        <time>2021-08-19T06:42:00Z</time>
      </trkpt>
      <trkpt lat="44.6048" lon="2.58292">
        <ele>647.2</ele>
        <time>2021-08-19T06:42:02Z</time>
      </trkpt>
      <trkpt lat="44.60483" lon="2.58287">
        <ele>646.8</ele>
        <time>2021-08-19T06:42:04Z</time>
      </trkpt>
      <trkpt lat="44.60485" lon="2.58283">
        <ele>646.3</ele>
        <time>2021-08-19T06:42:06Z</time>
      </trkpt>
      <trkpt lat="44.60487" lon="2.58278">
        <ele>645.9</ele>
        <time>2021-08-19T06:42:08Z</time>
      </trkpt>
      <trkpt lat="44.60488" lon="2.58272">
        <ele>645.6</ele>
        <time>2021-08-19T06:42:10Z</time>
      </trkpt>
      <trkpt lat="44.6049" lon="2.58266">
        <ele>645.3</ele>
        <time>2021-08-19T06:42:12Z</time>
      </trkpt>
      <trkpt lat="44.6049" lon="2.58258">
        <ele>645.1</ele>
        <time>2021-08-19T06:42:14Z</time>
      </trkpt>
      <trkpt lat="44.60493" lon="2.5825">
        <ele>644.5</ele>
        <time>2021-08-19T06:42:16Z</time>
      </trkpt>
      <trkpt lat="44.60496" lon="2.58242">
        <ele>644.3</ele>
        <time>2021-08-19T06:42:18Z</time>
      </trkpt>
      <trkpt lat="44.605" lon="2.58233">
        <ele>644</ele>
        <time>2021-08-19T06:42:20Z</time>
      </trkpt>
      <trkpt lat="44.60505" lon="2.58222">
        <ele>643.8</ele>
        <time>2021-08-19T06:42:22Z</time>
      </trkpt>
      <trkpt lat="44.60513" lon="2.58211">
        <ele>643</ele>
        <time>2021-08-19T06:42:24Z</time>
      </trkpt>
      <trkpt lat="44.60521" lon="2.58198">
        <ele>642.3</ele>
        <time>2021-08-19T06:42:26Z</time>
      </trkpt>
      <trkpt lat="44.60528" lon="2.58183">
        <ele>642.2</ele>
        <time>2021-08-19T06:42:28Z</time>
      </trkpt>
      <trkpt lat="44.60532" lon="2.58169">
        <ele>642.4</ele>
        <time>2021-08-19T06:42:30Z</time>
      </trkpt>
      <trkpt lat="44.60536" lon="2.58157">
        <ele>643.3</ele>
        <time>2021-08-19T06:42:32Z</time>
      </trkpt>
      <trkpt lat="44.60539" lon="2.58147">
        <ele>644.1</ele>
        <time>2021-08-19T06:42:34Z</time>
      </trkpt>
      <trkpt lat="44.60542" lon="2.58138">
        <ele>644.8</ele>
        <time>2021-08-19T06:42:36Z</time>
      </trkpt>
      <trkpt lat="44.60545" lon="2.5813">
        <ele>645.2</ele>
        <time>2021-08-19T06:42:38Z</time>
      </trkpt>
      <trkpt lat="44.60548" lon="2.58123">
        <ele>645.6</ele>
        <time>2021-08-19T06:42:40Z</time>
      </trkpt>
      <trkpt lat="44.6055" lon="2.58117">
        <ele>646</ele>
        <time>2021-08-19T06:42:42Z</time>
      </trkpt>
      <trkpt lat="44.60551" lon="2.58112">
        <ele>646.3</ele>
        <time>2021-08-19T06:42:44Z</time>
      </trkpt>
      <trkpt lat="44.60554" lon="2.58106">
        <ele>646.6</ele>
        <time>2021-08-19T06:42:46Z</time>
      </trkpt>
      <trkpt lat="44.60555" lon="2.581">
        <ele>647</ele>
        <time>2021-08-19T06:42:48Z</time>
      </trkpt>
      <trkpt lat="44.60557" lon="2.58094">
        <ele>647.3</ele>
        <time>2021-08-19T06:42:50Z</time>
      </trkpt>
      <trkpt lat="44.60559" lon="2.58088">
        <ele>647.6</ele>
        <time>2021-08-19T06:42:52Z</time>
      </trkpt>
      <trkpt lat="44.60561" lon="2.58084">
        <ele>647.7</ele>
        <time>2021-08-19T06:42:54Z</time>
      </trkpt>
      <trkpt lat="44.60563" lon="2.58078">
        <ele>648.1</ele>
        <time>2021-08-19T06:42:56Z</time>
      </trkpt>
      <trkpt lat="44.60566" lon="2.58073">
        <ele>648.3</ele>
        <time>2021-08-19T06:42:58Z</time>
      </trkpt>
      <trkpt lat="44.60567" lon="2.58068">
        <ele>648.6</ele>
        <time>2021-08-19T06:43:00Z</time>
      </trkpt>
      <trkpt lat="44.60569" lon="2.58063">
        <ele>649</ele>
        <time>2021-08-19T06:43:02Z</time>
      </trkpt>
      <trkpt lat="44.60571" lon="2.58059">
        <ele>649.3</ele>
        <time>2021-08-19T06:43:04Z</time>
      </trkpt>
      <trkpt lat="44.60572" lon="2.58053">
        <ele>649.7</ele>
        <time>2021-08-19T06:43:06Z</time>
      </trkpt>
      <trkpt lat="44.60574" lon="2.58049">
        <ele>649.9</ele>
        <time>2021-08-19T06:43:08Z</time>
      </trkpt>
      <trkpt lat="44.60575" lon="2.58044">
        <ele>650.4</ele>
        <time>2021-08-19T06:43:10Z</time>
      </trkpt>
      <trkpt lat="44.60576" lon="2.58039">
        <ele>650.9</ele>
        <time>2021-08-19T06:43:12Z</time>
      </trkpt>
      <trkpt lat="44.60578" lon="2.58034">
        <ele>651.4</ele>
        <time>2021-08-19T06:43:14Z</time>
      </trkpt>
      <trkpt lat="44.60579" lon="2.58029">
        <ele>651.9</ele>
        <time>2021-08-19T06:43:16Z</time>
      </trkpt>
      <trkpt lat="44.6058" lon="2.58024">
        <ele>652.3</ele>
        <time>2021-08-19T06:43:18Z</time>
      </trkpt>
      <trkpt lat="44.60581" lon="2.58018">
        <ele>652.9</ele>
        <time>2021-08-19T06:43:20Z</time>
      </trkpt>
      <trkpt lat="44.60582" lon="2.58013">
        <ele>653.4</ele>
        <time>2021-08-19T06:43:22Z</time>
      </trkpt>
      <trkpt lat="44.60583" lon="2.58008">
        <ele>654</ele>
        <time>2021-08-19T06:43:24Z</time>
      </trkpt>
      <trkpt lat="44.60584" lon="2.58004">
        <ele>654.4</ele>
        <time>2021-08-19T06:43:26Z</time>
      </trkpt>
      <trkpt lat="44.60585" lon="2.57999">
        <ele>654.8</ele>
        <time>2021-08-19T06:43:28Z</time>
      </trkpt>
      <trkpt lat="44.60587" lon="2.57994">
        <ele>654.9</ele>
        <time>2021-08-19T06:43:30Z</time>
      </trkpt>
      <trkpt lat="44.60588" lon="2.5799">
        <ele>655</ele>
        <time>2021-08-19T06:43:32Z</time>
      </trkpt>
      <trkpt lat="44.6059" lon="2.57986">
        <ele>655</ele>
        <time>2021-08-19T06:43:34Z</time>
      </trkpt>
      <trkpt lat="44.60592" lon="2.57983">
        <ele>655</ele>
        <time>2021-08-19T06:43:36Z</time>
      </trkpt>
      <trkpt lat="44.60593" lon="2.57978">
        <ele>655.1</ele>
        <time>2021-08-19T06:43:38Z</time>
      </trkpt>
      <trkpt lat="44.60595" lon="2.57975">
        <ele>655.2</ele>
        <time>2021-08-19T06:43:40Z</time>
      </trkpt>
      <trkpt lat="44.60596" lon="2.5797">
        <ele>655.3</ele>
        <time>2021-08-19T06:43:42Z</time>
      </trkpt>
      <trkpt lat="44.60597" lon="2.57966">
        <ele>655.4</ele>
        <time>2021-08-19T06:43:44Z</time>
      </trkpt>
      <trkpt lat="44.60599" lon="2.57962">
        <ele>655.6</ele>
        <time>2021-08-19T06:43:46Z</time>
      </trkpt>
      <trkpt lat="44.606" lon="2.57957">
        <ele>655.8</ele>
        <time>2021-08-19T06:43:48Z</time>
      </trkpt>
      <trkpt lat="44.60601" lon="2.57953">
        <ele>656</ele>
        <time>2021-08-19T06:43:50Z</time>
      </trkpt>
      <trkpt lat="44.60602" lon="2.57948">
        <ele>656.2</ele>
        <time>2021-08-19T06:43:52Z</time>
      </trkpt>
      <trkpt lat="44.60603" lon="2.57944">
        <ele>656.4</ele>
        <time>2021-08-19T06:43:54Z</time>
      </trkpt>
      <trkpt lat="44.60603" lon="2.57938">
        <ele>656.7</ele>
        <time>2021-08-19T06:43:56Z</time>
      </trkpt>
      <trkpt lat="44.60604" lon="2.57934">
        <ele>656.9</ele>
        <time>2021-08-19T06:43:58Z</time>
      </trkpt>
      <trkpt lat="44.60605" lon="2.57929">
        <ele>657.2</ele>
        <time>2021-08-19T06:44:00Z</time>
      </trkpt>
      <trkpt lat="44.60605" lon="2.57924">
        <ele>657.5</ele>
        <time>2021-08-19T06:44:02Z</time>
      </trkpt>
      <trkpt lat="44.60605" lon="2.5792">
        <ele>657.8</ele>
        <time>2021-08-19T06:44:04Z</time>
      </trkpt>
      <trkpt lat="44.60605" lon="2.57915">
        <ele>658</ele>
        <time>2021-08-19T06:44:06Z</time>
      </trkpt>
      <trkpt lat="44.60606" lon="2.5791">
        <ele>658.2</ele>
        <time>2021-08-19T06:44:08Z</time>
      </trkpt>
      <trkpt lat="44.60606" lon="2.57905">
        <ele>658.5</ele>
        <time>2021-08-19T06:44:10Z</time>
      </trkpt>
      <trkpt lat="44.60606" lon="2.579">
        <ele>658.7</ele>
        <time>2021-08-19T06:44:12Z</time>
      </trkpt>
      <trkpt lat="44.60606" lon="2.57896">
        <ele>658.9</ele>
        <time>2021-08-19T06:44:14Z</time>
      </trkpt>
      <trkpt lat="44.60606" lon="2.5789">
        <ele>659.2</ele>
        <time>2021-08-19T06:44:16Z</time>
      </trkpt>
      <trkpt lat="44.60606" lon="2.57885">
        <ele>659.5</ele>
        <time>2021-08-19T06:44:18Z</time>
      </trkpt>
      <trkpt lat="44.60606" lon="2.57881">
        <ele>659.7</ele>
        <time>2021-08-19T06:44:20Z</time>
      </trkpt>
      <trkpt lat="44.60605" lon="2.57875">
        <ele>660</ele>
        <time>2021-08-19T06:44:22Z</time>
      </trkpt>
      <trkpt lat="44.60605" lon="2.5787">
        <ele>660.3</ele>
        <time>2021-08-19T06:44:24Z</time>
      </trkpt>
      <trkpt lat="44.60605" lon="2.57865">
        <ele>660.5</ele>
        <time>2021-08-19T06:44:26Z</time>
      </trkpt>
      <trkpt lat="44.60605" lon="2.5786">
        <ele>660.7</ele>
        <time>2021-08-19T06:44:28Z</time>
      </trkpt>
      <trkpt lat="44.60605" lon="2.57854">
        <ele>661</ele>
        <time>2021-08-19T06:44:30Z</time>
      </trkpt>
      <trkpt lat="44.60605" lon="2.57849">
        <ele>661.3</ele>
        <time>2021-08-19T06:44:32Z</time>
      </trkpt>
      <trkpt lat="44.60605" lon="2.57844">
        <ele>661.5</ele>
        <time>2021-08-19T06:44:34Z</time>
      </trkpt>
      <trkpt lat="44.60605" lon="2.57839">
        <ele>661.8</ele>
        <time>2021-08-19T06:44:36Z</time>
      </trkpt>
      <trkpt lat="44.60605" lon="2.57834">
        <ele>662.1</ele>
        <time>2021-08-19T06:44:38Z</time>
      </trkpt>
      <trkpt lat="44.60604" lon="2.57829">
        <ele>662.6</ele>
        <time>2021-08-19T06:44:40Z</time>
      </trkpt>
      <trkpt lat="44.60604" lon="2.57824">
        <ele>663.1</ele>
        <time>2021-08-19T06:44:42Z</time>
      </trkpt>
      <trkpt lat="44.60604" lon="2.57819">
        <ele>663.6</ele>
        <time>2021-08-19T06:44:44Z</time>
      </trkpt>
      <trkpt lat="44.60604" lon="2.57813">
        <ele>664</ele>
        <time>2021-08-19T06:44:46Z</time>
      </trkpt>
      <trkpt lat="44.60603" lon="2.57809">
        <ele>664.5</ele>
        <time>2021-08-19T06:44:48Z</time>
      </trkpt>
      <trkpt lat="44.60603" lon="2.57804">
        <ele>664.9</ele>
        <time>2021-08-19T06:44:50Z</time>
      </trkpt>
      <trkpt lat="44.60603" lon="2.57799">
        <ele>665.5</ele>
        <time>2021-08-19T06:44:52Z</time>
      </trkpt>
      <trkpt lat="44.60603" lon="2.57794">
        <ele>665.9</ele>
        <time>2021-08-19T06:44:54Z</time>
      </trkpt>
      <trkpt lat="44.60603" lon="2.57789">
        <ele>666.2</ele>
        <time>2021-08-19T06:44:56Z</time>
      </trkpt>
      <trkpt lat="44.60603" lon="2.57784">
        <ele>666.7</ele>
        <time>2021-08-19T06:44:58Z</time>
      </trkpt>
      <trkpt lat="44.60604" lon="2.57779">
        <ele>667</ele>
        <time>2021-08-19T06:45:00Z</time>
      </trkpt>
      <trkpt lat="44.60604" lon="2.57775">
        <ele>667.4</ele>
        <time>2021-08-19T06:45:02Z</time>
      </trkpt>
      <trkpt lat="44.60604" lon="2.5777">
        <ele>667.8</ele>
        <time>2021-08-19T06:45:04Z</time>
      </trkpt>
      <trkpt lat="44.60605" lon="2.57764">
        <ele>668.1</ele>
        <time>2021-08-19T06:45:06Z</time>
      </trkpt>
      <trkpt lat="44.60606" lon="2.5776">
        <ele>668.3</ele>
        <time>2021-08-19T06:45:08Z</time>
      </trkpt>
      <trkpt lat="44.60607" lon="2.57756">
        <ele>668.6</ele>
        <time>2021-08-19T06:45:10Z</time>
      </trkpt>
      <trkpt lat="44.60607" lon="2.57751">
        <ele>668.9</ele>
        <time>2021-08-19T06:45:12Z</time>
      </trkpt>
      <trkpt lat="44.60608" lon="2.57746">
        <ele>669.2</ele>
        <time>2021-08-19T06:45:14Z</time>
      </trkpt>
      <trkpt lat="44.60609" lon="2.57742">
        <ele>669.3</ele>
        <time>2021-08-19T06:45:16Z</time>
      </trkpt>
      <trkpt lat="44.6061" lon="2.57737">
        <ele>669.4</ele>
        <time>2021-08-19T06:45:18Z</time>
      </trkpt>
      <trkpt lat="44.60611" lon="2.57732">
        <ele>669.8</ele>
        <time>2021-08-19T06:45:20Z</time>
      </trkpt>
      <trkpt lat="44.60612" lon="2.57728">
        <ele>670</ele>
        <time>2021-08-19T06:45:22Z</time>
      </trkpt>
      <trkpt lat="44.60614" lon="2.57722">
        <ele>670.3</ele>
        <time>2021-08-19T06:45:24Z</time>
      </trkpt>
      <trkpt lat="44.60615" lon="2.57718">
        <ele>670.5</ele>
        <time>2021-08-19T06:45:26Z</time>
      </trkpt>
      <trkpt lat="44.60616" lon="2.57713">
        <ele>670.8</ele>
        <time>2021-08-19T06:45:28Z</time>
      </trkpt>
      <trkpt lat="44.60616" lon="2.57708">
        <ele>671.3</ele>
        <time>2021-08-19T06:45:30Z</time>
      </trkpt>
      <trkpt lat="44.60617" lon="2.57703">
        <ele>671.6</ele>
        <time>2021-08-19T06:45:32Z</time>
      </trkpt>
      <trkpt lat="44.60618" lon="2.57698">
        <ele>672</ele>
        <time>2021-08-19T06:45:34Z</time>
      </trkpt>
      <trkpt lat="44.60619" lon="2.57692">
        <ele>672.5</ele>
        <time>2021-08-19T06:45:36Z</time>
      </trkpt>
      <trkpt lat="44.6062" lon="2.57687">
        <ele>673</ele>
        <time>2021-08-19T06:45:38Z</time>
      </trkpt>
      <trkpt lat="44.60621" lon="2.57682">
        <ele>673.4</ele>
        <time>2021-08-19T06:45:40Z</time>
      </trkpt>
      <trkpt lat="44.60622" lon="2.57678">
        <ele>673.9</ele>
        <time>2021-08-19T06:45:42Z</time>
      </trkpt>
      <trkpt lat="44.60622" lon="2.57672">
        <ele>674.4</ele>
        <time>2021-08-19T06:45:44Z</time>
      </trkpt>
      <trkpt lat="44.60623" lon="2.57668">
        <ele>674.9</ele>
        <time>2021-08-19T06:45:46Z</time>
      </trkpt>
      <trkpt lat="44.60624" lon="2.57663">
        <ele>675.2</ele>
        <time>2021-08-19T06:45:48Z</time>
      </trkpt>
      <trkpt lat="44.60626" lon="2.57658">
        <ele>675.5</ele>
        <time>2021-08-19T06:45:50Z</time>
      </trkpt>
      <trkpt lat="44.60627" lon="2.57653">
        <ele>675.8</ele>
        <time>2021-08-19T06:45:52Z</time>
      </trkpt>
      <trkpt lat="44.60628" lon="2.57648">
        <ele>676.1</ele>
        <time>2021-08-19T06:45:54Z</time>
      </trkpt>
      <trkpt lat="44.6063" lon="2.57644">
        <ele>676.3</ele>
        <time>2021-08-19T06:45:56Z</time>
      </trkpt>
      <trkpt lat="44.60631" lon="2.5764">
        <ele>676.6</ele>
        <time>2021-08-19T06:45:58Z</time>
      </trkpt>
      <trkpt lat="44.60633" lon="2.57637">
        <ele>676.9</ele>
        <time>2021-08-19T06:46:00Z</time>
      </trkpt>
      <trkpt lat="44.60635" lon="2.57632">
        <ele>677.2</ele>
        <time>2021-08-19T06:46:02Z</time>
      </trkpt>
      <trkpt lat="44.60635" lon="2.57627">
        <ele>677.5</ele>
        <time>2021-08-19T06:46:04Z</time>
      </trkpt>
      <trkpt lat="44.60636" lon="2.57623">
        <ele>677.9</ele>
        <time>2021-08-19T06:46:06Z</time>
      </trkpt>
      <trkpt lat="44.60637" lon="2.57618">
        <ele>678.3</ele>
        <time>2021-08-19T06:46:08Z</time>
      </trkpt>
      <trkpt lat="44.60638" lon="2.57613">
        <ele>678.6</ele>
        <time>2021-08-19T06:46:10Z</time>
      </trkpt>
      <trkpt lat="44.60638" lon="2.57609">
        <ele>678.9</ele>
        <time>2021-08-19T06:46:12Z</time>
      </trkpt>
      <trkpt lat="44.60638" lon="2.57604">
        <ele>679.2</ele>
        <time>2021-08-19T06:46:14Z</time>
      </trkpt>
      <trkpt lat="44.60638" lon="2.57599">
        <ele>679.6</ele>
        <time>2021-08-19T06:46:16Z</time>
      </trkpt>
      <trkpt lat="44.60639" lon="2.57594">
        <ele>679.9</ele>
        <time>2021-08-19T06:46:18Z</time>
      </trkpt>
      <trkpt lat="44.60639" lon="2.57589">
        <ele>680.3</ele>
        <time>2021-08-19T06:46:20Z</time>
      </trkpt>
      <trkpt lat="44.60638" lon="2.57584">
        <ele>680.6</ele>
        <time>2021-08-19T06:46:22Z</time>
      </trkpt>
      <trkpt lat="44.60639" lon="2.57579">
        <ele>680.5</ele>
        <time>2021-08-19T06:46:24Z</time>
      </trkpt>
      <trkpt lat="44.60639" lon="2.57574">
        <ele>680.3</ele>
        <time>2021-08-19T06:46:26Z</time>
      </trkpt>
      <trkpt lat="44.60639" lon="2.57569">
        <ele>680.1</ele>
        <time>2021-08-19T06:46:28Z</time>
      </trkpt>
      <trkpt lat="44.6064" lon="2.57564">
        <ele>679.9</ele>
        <time>2021-08-19T06:46:30Z</time>
      </trkpt>
      <trkpt lat="44.6064" lon="2.5756">
        <ele>679.8</ele>
        <time>2021-08-19T06:46:32Z</time>
      </trkpt>
      <trkpt lat="44.60639" lon="2.57556">
        <ele>679.6</ele>
        <time>2021-08-19T06:46:34Z</time>
      </trkpt>
      <trkpt lat="44.60637" lon="2.57555">
        <ele>679.4</ele>
        <time>2021-08-19T06:46:36Z</time>
      </trkpt>
      <trkpt lat="44.60635" lon="2.57555">
        <ele>679.3</ele>
        <time>2021-08-19T06:46:38Z</time>
      </trkpt>
      <trkpt lat="44.60635" lon="2.57555">
        <ele>679.3</ele>
        <time>2021-08-19T06:46:40Z</time>
      </trkpt>
      <trkpt lat="44.60635" lon="2.57554">
        <ele>679.2</ele>
        <time>2021-08-19T06:46:42Z</time>
      </trkpt>
      <trkpt lat="44.60634" lon="2.57554">
        <ele>679.2</ele>
        <time>2021-08-19T06:46:44Z</time>
      </trkpt>
      <trkpt lat="44.60638" lon="2.57534">
        <ele>678.6</ele>
        <time>2021-08-19T06:47:50Z</time>
      </trkpt>
      <trkpt lat="44.60639" lon="2.57526">
        <ele>678.4</ele>
        <time>2021-08-19T06:47:52Z</time>
      </trkpt>
      <trkpt lat="44.6064" lon="2.57517">
        <ele>678</ele>
        <time>2021-08-19T06:47:54Z</time>
      </trkpt>
      <trkpt lat="44.6064" lon="2.57506">
        <ele>677.6</ele>
        <time>2021-08-19T06:47:56Z</time>
      </trkpt>
      <trkpt lat="44.6064" lon="2.57493">
        <ele>677.1</ele>
        <time>2021-08-19T06:47:58Z</time>
      </trkpt>
      <trkpt lat="44.60641" lon="2.5748">
        <ele>676.6</ele>
        <time>2021-08-19T06:48:00Z</time>
      </trkpt>
      <trkpt lat="44.60643" lon="2.57465">
        <ele>676.1</ele>
        <time>2021-08-19T06:48:02Z</time>
      </trkpt>
      <trkpt lat="44.60647" lon="2.57448">
        <ele>675.5</ele>
        <time>2021-08-19T06:48:04Z</time>
      </trkpt>
      <trkpt lat="44.6065" lon="2.57428">
        <ele>674.8</ele>
        <time>2021-08-19T06:48:06Z</time>
      </trkpt>
      <trkpt lat="44.60651" lon="2.57406">
        <ele>673.5</ele>
        <time>2021-08-19T06:48:08Z</time>
      </trkpt>
      <trkpt lat="44.60653" lon="2.57385">
        <ele>671.6</ele>
        <time>2021-08-19T06:48:10Z</time>
      </trkpt>
      <trkpt lat="44.60653" lon="2.57363">
        <ele>669.6</ele>
        <time>2021-08-19T06:48:12Z</time>
      </trkpt>
      <trkpt lat="44.60656" lon="2.57343">
        <ele>668</ele>
        <time>2021-08-19T06:48:14Z</time>
      </trkpt>
      <trkpt lat="44.60663" lon="2.57324">
        <ele>666.9</ele>
        <time>2021-08-19T06:48:16Z</time>
      </trkpt>
      <trkpt lat="44.60669" lon="2.57307">
        <ele>665.6</ele>
        <time>2021-08-19T06:48:18Z</time>
      </trkpt>
      <trkpt lat="44.60673" lon="2.5729">
        <ele>663.7</ele>
        <time>2021-08-19T06:48:20Z</time>
      </trkpt>
      <trkpt lat="44.60675" lon="2.57271">
        <ele>662.1</ele>
        <time>2021-08-19T06:48:22Z</time>
      </trkpt>
      <trkpt lat="44.60671" lon="2.57253">
        <ele>660.8</ele>
        <time>2021-08-19T06:48:24Z</time>
      </trkpt>
      <trkpt lat="44.60667" lon="2.57234">
        <ele>661</ele>
        <time>2021-08-19T06:48:26Z</time>
      </trkpt>
      <trkpt lat="44.60661" lon="2.57216">
        <ele>660.6</ele>
        <time>2021-08-19T06:48:28Z</time>
      </trkpt>
      <trkpt lat="44.60657" lon="2.57196">
        <ele>660.4</ele>
        <time>2021-08-19T06:48:30Z</time>
      </trkpt>
      <trkpt lat="44.60658" lon="2.57174">
        <ele>660.4</ele>
        <time>2021-08-19T06:48:32Z</time>
      </trkpt>
      <trkpt lat="44.60659" lon="2.57154">
        <ele>659.9</ele>
        <time>2021-08-19T06:48:34Z</time>
      </trkpt>
      <trkpt lat="44.6066" lon="2.57134">
        <ele>659.3</ele>
        <time>2021-08-19T06:48:36Z</time>
      </trkpt>
      <trkpt lat="44.60661" lon="2.57114">
        <ele>658.6</ele>
        <time>2021-08-19T06:48:38Z</time>
      </trkpt>
      <trkpt lat="44.60663" lon="2.57095">
        <ele>658</ele>
        <time>2021-08-19T06:48:40Z</time>
      </trkpt>
      <trkpt lat="44.60663" lon="2.57077">
        <ele>656.7</ele>
        <time>2021-08-19T06:48:42Z</time>
      </trkpt>
      <trkpt lat="44.60663" lon="2.57061">
        <ele>654.3</ele>
        <time>2021-08-19T06:48:44Z</time>
      </trkpt>
      <trkpt lat="44.60661" lon="2.57044">
        <ele>651.7</ele>
        <time>2021-08-19T06:48:46Z</time>
      </trkpt>
      <trkpt lat="44.60652" lon="2.57028">
        <ele>649.1</ele>
        <time>2021-08-19T06:48:48Z</time>
      </trkpt>
      <trkpt lat="44.60641" lon="2.57015">
        <ele>647.3</ele>
        <time>2021-08-19T06:48:50Z</time>
      </trkpt>
      <trkpt lat="44.6063" lon="2.57">
        <ele>645.8</ele>
        <time>2021-08-19T06:48:52Z</time>
      </trkpt>
      <trkpt lat="44.60617" lon="2.56986">
        <ele>644.8</ele>
        <time>2021-08-19T06:48:54Z</time>
      </trkpt>
      <trkpt lat="44.60608" lon="2.56971">
        <ele>643.6</ele>
        <time>2021-08-19T06:48:56Z</time>
      </trkpt>
      <trkpt lat="44.60597" lon="2.56958">
        <ele>642.9</ele>
        <time>2021-08-19T06:48:58Z</time>
      </trkpt>
      <trkpt lat="44.60585" lon="2.56948">
        <ele>642.5</ele>
        <time>2021-08-19T06:49:00Z</time>
      </trkpt>
      <trkpt lat="44.60574" lon="2.56941">
        <ele>641.1</ele>
        <time>2021-08-19T06:49:02Z</time>
      </trkpt>
      <trkpt lat="44.60564" lon="2.56937">
        <ele>639.8</ele>
        <time>2021-08-19T06:49:04Z</time>
      </trkpt>
      <trkpt lat="44.60552" lon="2.56939">
        <ele>638.6</ele>
        <time>2021-08-19T06:49:06Z</time>
      </trkpt>
      <trkpt lat="44.6054" lon="2.56945">
        <ele>638</ele>
        <time>2021-08-19T06:49:08Z</time>
      </trkpt>
      <trkpt lat="44.60532" lon="2.56957">
        <ele>638.5</ele>
        <time>2021-08-19T06:49:10Z</time>
      </trkpt>
      <trkpt lat="44.60526" lon="2.56971">
        <ele>639.3</ele>
        <time>2021-08-19T06:49:12Z</time>
      </trkpt>
      <trkpt lat="44.60523" lon="2.56983">
        <ele>640.2</ele>
        <time>2021-08-19T06:49:14Z</time>
      </trkpt>
      <trkpt lat="44.60518" lon="2.56991">
        <ele>640.6</ele>
        <time>2021-08-19T06:49:16Z</time>
      </trkpt>
      <trkpt lat="44.60511" lon="2.56994">
        <ele>640.3</ele>
        <time>2021-08-19T06:49:18Z</time>
      </trkpt>
      <trkpt lat="44.60502" lon="2.56991">
        <ele>639.2</ele>
        <time>2021-08-19T06:49:20Z</time>
      </trkpt>
      <trkpt lat="44.60499" lon="2.56982">
        <ele>638.1</ele>
        <time>2021-08-19T06:49:22Z</time>
      </trkpt>
      <trkpt lat="44.60504" lon="2.56973">
        <ele>637.5</ele>
        <time>2021-08-19T06:49:24Z</time>
      </trkpt>
      <trkpt lat="44.60511" lon="2.56965">
        <ele>637.2</ele>
        <time>2021-08-19T06:49:26Z</time>
      </trkpt>
      <trkpt lat="44.60517" lon="2.56957">
        <ele>637.1</ele>
        <time>2021-08-19T06:49:28Z</time>
      </trkpt>
      <trkpt lat="44.60524" lon="2.56948">
        <ele>636.7</ele>
        <time>2021-08-19T06:49:30Z</time>
      </trkpt>
      <trkpt lat="44.6053" lon="2.56937">
        <ele>636.2</ele>
        <time>2021-08-19T06:49:32Z</time>
      </trkpt>
      <trkpt lat="44.60537" lon="2.56926">
        <ele>635.9</ele>
        <time>2021-08-19T06:49:34Z</time>
      </trkpt>
      <trkpt lat="44.60544" lon="2.56916">
        <ele>635.7</ele>
        <time>2021-08-19T06:49:36Z</time>
      </trkpt>
      <trkpt lat="44.60553" lon="2.56906">
        <ele>635.3</ele>
        <time>2021-08-19T06:49:38Z</time>
      </trkpt>
      <trkpt lat="44.60562" lon="2.56898">
        <ele>634.9</ele>
        <time>2021-08-19T06:49:40Z</time>
      </trkpt>
      <trkpt lat="44.60573" lon="2.56894">
        <ele>635</ele>
        <time>2021-08-19T06:49:42Z</time>
      </trkpt>
      <trkpt lat="44.60584" lon="2.56893">
        <ele>635.4</ele>
        <time>2021-08-19T06:49:44Z</time>
      </trkpt>
      <trkpt lat="44.60596" lon="2.56893">
        <ele>634.9</ele>
        <time>2021-08-19T06:49:46Z</time>
      </trkpt>
      <trkpt lat="44.60607" lon="2.56894">
        <ele>634.4</ele>
        <time>2021-08-19T06:49:48Z</time>
      </trkpt>
      <trkpt lat="44.60619" lon="2.56894">
        <ele>633.9</ele>
        <time>2021-08-19T06:49:50Z</time>
      </trkpt>
      <trkpt lat="44.60631" lon="2.56895">
        <ele>633.5</ele>
        <time>2021-08-19T06:49:52Z</time>
      </trkpt>
      <trkpt lat="44.60644" lon="2.56895">
        <ele>632.8</ele>
        <time>2021-08-19T06:49:54Z</time>
      </trkpt>
      <trkpt lat="44.60657" lon="2.56895">
        <ele>632</ele>
        <time>2021-08-19T06:49:56Z</time>
      </trkpt>
      <trkpt lat="44.60671" lon="2.56892">
        <ele>631.3</ele>
        <time>2021-08-19T06:49:58Z</time>
      </trkpt>
      <trkpt lat="44.60684" lon="2.56886">
        <ele>630.8</ele>
        <time>2021-08-19T06:50:00Z</time>
      </trkpt>
      <trkpt lat="44.60696" lon="2.56877">
        <ele>630.2</ele>
        <time>2021-08-19T06:50:02Z</time>
      </trkpt>
      <trkpt lat="44.60708" lon="2.56866">
        <ele>629.4</ele>
        <time>2021-08-19T06:50:04Z</time>
      </trkpt>
      <trkpt lat="44.60719" lon="2.56852">
        <ele>628.5</ele>
        <time>2021-08-19T06:50:06Z</time>
      </trkpt>
      <trkpt lat="44.60728" lon="2.56836">
        <ele>627.5</ele>
        <time>2021-08-19T06:50:08Z</time>
      </trkpt>
      <trkpt lat="44.60738" lon="2.56821">
        <ele>626.6</ele>
        <time>2021-08-19T06:50:10Z</time>
      </trkpt>
      <trkpt lat="44.60749" lon="2.56807">
        <ele>625.5</ele>
        <time>2021-08-19T06:50:12Z</time>
      </trkpt>
      <trkpt lat="44.60761" lon="2.56795">
        <ele>625.2</ele>
        <time>2021-08-19T06:50:14Z</time>
      </trkpt>
      <trkpt lat="44.60773" lon="2.56783">
        <ele>625</ele>
        <time>2021-08-19T06:50:16Z</time>
      </trkpt>
      <trkpt lat="44.60785" lon="2.56771">
        <ele>624.6</ele>
        <time>2021-08-19T06:50:18Z</time>
      </trkpt>
      <trkpt lat="44.60797" lon="2.56759">
        <ele>624.3</ele>
        <time>2021-08-19T06:50:20Z</time>
      </trkpt>
      <trkpt lat="44.60809" lon="2.56748">
        <ele>624.1</ele>
        <time>2021-08-19T06:50:22Z</time>
      </trkpt>
      <trkpt lat="44.6082" lon="2.56737">
        <ele>623.4</ele>
        <time>2021-08-19T06:50:24Z</time>
      </trkpt>
      <trkpt lat="44.60833" lon="2.56728">
        <ele>623.3</ele>
        <time>2021-08-19T06:50:26Z</time>
      </trkpt>
      <trkpt lat="44.60847" lon="2.56724">
        <ele>623.9</ele>
        <time>2021-08-19T06:50:28Z</time>
      </trkpt>
      <trkpt lat="44.60861" lon="2.56726">
        <ele>625.6</ele>
        <time>2021-08-19T06:50:30Z</time>
      </trkpt>
      <trkpt lat="44.60875" lon="2.56724">
        <ele>626.5</ele>
        <time>2021-08-19T06:50:32Z</time>
      </trkpt>
      <trkpt lat="44.60887" lon="2.56715">
        <ele>626.4</ele>
        <time>2021-08-19T06:50:34Z</time>
      </trkpt>
      <trkpt lat="44.60897" lon="2.56701">
        <ele>625.4</ele>
        <time>2021-08-19T06:50:36Z</time>
      </trkpt>
      <trkpt lat="44.60902" lon="2.56682">
        <ele>623.4</ele>
        <time>2021-08-19T06:50:38Z</time>
      </trkpt>
      <trkpt lat="44.60907" lon="2.56664">
        <ele>621.6</ele>
        <time>2021-08-19T06:50:40Z</time>
      </trkpt>
      <trkpt lat="44.60914" lon="2.56646">
        <ele>620.9</ele>
        <time>2021-08-19T06:50:42Z</time>
      </trkpt>
      <trkpt lat="44.60921" lon="2.56628">
        <ele>620.3</ele>
        <time>2021-08-19T06:50:44Z</time>
      </trkpt>
      <trkpt lat="44.60927" lon="2.56611">
        <ele>619.5</ele>
        <time>2021-08-19T06:50:46Z</time>
      </trkpt>
      <trkpt lat="44.60934" lon="2.56594">
        <ele>618.8</ele>
        <time>2021-08-19T06:50:48Z</time>
      </trkpt>
      <trkpt lat="44.60941" lon="2.56578">
        <ele>618</ele>
        <time>2021-08-19T06:50:50Z</time>
      </trkpt>
      <trkpt lat="44.6095" lon="2.56562">
        <ele>617</ele>
        <time>2021-08-19T06:50:52Z</time>
      </trkpt>
      <trkpt lat="44.6096" lon="2.56548">
        <ele>616.2</ele>
        <time>2021-08-19T06:50:54Z</time>
      </trkpt>
      <trkpt lat="44.60973" lon="2.56539">
        <ele>616.2</ele>
        <time>2021-08-19T06:50:56Z</time>
      </trkpt>
      <trkpt lat="44.60986" lon="2.56534">
        <ele>616.7</ele>
        <time>2021-08-19T06:50:58Z</time>
      </trkpt>
      <trkpt lat="44.60999" lon="2.56533">
        <ele>617.6</ele>
        <time>2021-08-19T06:51:00Z</time>
      </trkpt>
      <trkpt lat="44.61013" lon="2.56533">
        <ele>616.8</ele>
        <time>2021-08-19T06:51:02Z</time>
      </trkpt>
      <trkpt lat="44.61026" lon="2.56538">
        <ele>616.5</ele>
        <time>2021-08-19T06:51:04Z</time>
      </trkpt>
      <trkpt lat="44.61039" lon="2.56545">
        <ele>616.5</ele>
        <time>2021-08-19T06:51:06Z</time>
      </trkpt>
      <trkpt lat="44.61051" lon="2.56556">
        <ele>617.2</ele>
        <time>2021-08-19T06:51:08Z</time>
      </trkpt>
      <trkpt lat="44.61062" lon="2.56567">
        <ele>618.1</ele>
        <time>2021-08-19T06:51:10Z</time>
      </trkpt>
      <trkpt lat="44.61073" lon="2.56581">
        <ele>619.3</ele>
        <time>2021-08-19T06:51:12Z</time>
      </trkpt>
      <trkpt lat="44.61084" lon="2.56593">
        <ele>620.1</ele>
        <time>2021-08-19T06:51:14Z</time>
      </trkpt>
      <trkpt lat="44.61099" lon="2.56595">
        <ele>621.1</ele>
        <time>2021-08-19T06:51:16Z</time>
      </trkpt>
      <trkpt lat="44.61111" lon="2.56588">
        <ele>620.9</ele>
        <time>2021-08-19T06:51:18Z</time>
      </trkpt>
      <trkpt lat="44.61122" lon="2.56576">
        <ele>619.7</ele>
        <time>2021-08-19T06:51:20Z</time>
      </trkpt>
      <trkpt lat="44.61132" lon="2.56561">
        <ele>618</ele>
        <time>2021-08-19T06:51:22Z</time>
      </trkpt>
      <trkpt lat="44.61141" lon="2.56547">
        <ele>616.4</ele>
        <time>2021-08-19T06:51:24Z</time>
      </trkpt>
      <trkpt lat="44.61152" lon="2.56535">
        <ele>615.2</ele>
        <time>2021-08-19T06:51:26Z</time>
      </trkpt>
      <trkpt lat="44.61163" lon="2.56521">
        <ele>613.9</ele>
        <time>2021-08-19T06:51:28Z</time>
      </trkpt>
      <trkpt lat="44.61175" lon="2.56509">
        <ele>613.1</ele>
        <time>2021-08-19T06:51:30Z</time>
      </trkpt>
      <trkpt lat="44.61188" lon="2.56501">
        <ele>613.3</ele>
        <time>2021-08-19T06:51:32Z</time>
      </trkpt>
      <trkpt lat="44.61202" lon="2.56497">
        <ele>614.3</ele>
        <time>2021-08-19T06:51:34Z</time>
      </trkpt>
      <trkpt lat="44.61216" lon="2.56496">
        <ele>615.7</ele>
        <time>2021-08-19T06:51:36Z</time>
      </trkpt>
      <trkpt lat="44.6123" lon="2.5649">
        <ele>616.1</ele>
        <time>2021-08-19T06:51:38Z</time>
      </trkpt>
      <trkpt lat="44.61241" lon="2.56478">
        <ele>614.8</ele>
        <time>2021-08-19T06:51:40Z</time>
      </trkpt>
      <trkpt lat="44.6125" lon="2.56461">
        <ele>612.4</ele>
        <time>2021-08-19T06:51:42Z</time>
      </trkpt>
      <trkpt lat="44.6126" lon="2.56446">
        <ele>610.2</ele>
        <time>2021-08-19T06:51:44Z</time>
      </trkpt>
      <trkpt lat="44.6127" lon="2.56432">
        <ele>608.5</ele>
        <time>2021-08-19T06:51:46Z</time>
      </trkpt>
      <trkpt lat="44.61281" lon="2.56421">
        <ele>607.3</ele>
        <time>2021-08-19T06:51:48Z</time>
      </trkpt>
      <trkpt lat="44.61293" lon="2.56411">
        <ele>606.7</ele>
        <time>2021-08-19T06:51:50Z</time>
      </trkpt>
      <trkpt lat="44.61306" lon="2.56401">
        <ele>606.1</ele>
        <time>2021-08-19T06:51:52Z</time>
      </trkpt>
      <trkpt lat="44.61318" lon="2.56394">
        <ele>605.8</ele>
        <time>2021-08-19T06:51:54Z</time>
      </trkpt>
      <trkpt lat="44.61332" lon="2.56389">
        <ele>605.9</ele>
        <time>2021-08-19T06:51:56Z</time>
      </trkpt>
      <trkpt lat="44.61346" lon="2.56385">
        <ele>606.1</ele>
        <time>2021-08-19T06:51:58Z</time>
      </trkpt>
      <trkpt lat="44.61358" lon="2.56379">
        <ele>605.5</ele>
        <time>2021-08-19T06:52:00Z</time>
      </trkpt>
      <trkpt lat="44.61368" lon="2.56366">
        <ele>603.8</ele>
        <time>2021-08-19T06:52:02Z</time>
      </trkpt>
      <trkpt lat="44.61378" lon="2.56352">
        <ele>601.7</ele>
        <time>2021-08-19T06:52:04Z</time>
      </trkpt>
      <trkpt lat="44.6139" lon="2.56343">
        <ele>600.5</ele>
        <time>2021-08-19T06:52:06Z</time>
      </trkpt>
      <trkpt lat="44.61403" lon="2.56336">
        <ele>599.9</ele>
        <time>2021-08-19T06:52:08Z</time>
      </trkpt>
      <trkpt lat="44.61417" lon="2.5633">
        <ele>599.5</ele>
        <time>2021-08-19T06:52:10Z</time>
      </trkpt>
      <trkpt lat="44.6143" lon="2.56325">
        <ele>598.5</ele>
        <time>2021-08-19T06:52:12Z</time>
      </trkpt>
      <trkpt lat="44.61444" lon="2.56323">
        <ele>598.2</ele>
        <time>2021-08-19T06:52:14Z</time>
      </trkpt>
      <trkpt lat="44.61458" lon="2.56326">
        <ele>598.8</ele>
        <time>2021-08-19T06:52:16Z</time>
      </trkpt>
      <trkpt lat="44.61471" lon="2.56334">
        <ele>600</ele>
        <time>2021-08-19T06:52:18Z</time>
      </trkpt>
      <trkpt lat="44.61484" lon="2.56339">
        <ele>600.8</ele>
        <time>2021-08-19T06:52:20Z</time>
      </trkpt>
      <trkpt lat="44.61498" lon="2.56337">
        <ele>600.5</ele>
        <time>2021-08-19T06:52:22Z</time>
      </trkpt>
      <trkpt lat="44.61511" lon="2.56327">
        <ele>600.2</ele>
        <time>2021-08-19T06:52:24Z</time>
      </trkpt>
      <trkpt lat="44.61521" lon="2.56312">
        <ele>599.1</ele>
        <time>2021-08-19T06:52:26Z</time>
      </trkpt>
      <trkpt lat="44.61533" lon="2.56299">
        <ele>598.4</ele>
        <time>2021-08-19T06:52:28Z</time>
      </trkpt>
      <trkpt lat="44.61546" lon="2.56289">
        <ele>598.3</ele>
        <time>2021-08-19T06:52:30Z</time>
      </trkpt>
      <trkpt lat="44.61558" lon="2.56279">
        <ele>598.3</ele>
        <time>2021-08-19T06:52:32Z</time>
      </trkpt>
      <trkpt lat="44.61572" lon="2.56267">
        <ele>598.2</ele>
        <time>2021-08-19T06:52:34Z</time>
      </trkpt>
      <trkpt lat="44.61584" lon="2.56258">
        <ele>598.4</ele>
        <time>2021-08-19T06:52:36Z</time>
      </trkpt>
      <trkpt lat="44.61599" lon="2.56253">
        <ele>598.7</ele>
        <time>2021-08-19T06:52:38Z</time>
      </trkpt>
      <trkpt lat="44.61613" lon="2.56247">
        <ele>599</ele>
        <time>2021-08-19T06:52:40Z</time>
      </trkpt>
      <trkpt lat="44.61625" lon="2.56237">
        <ele>598.2</ele>
        <time>2021-08-19T06:52:42Z</time>
      </trkpt>
      <trkpt lat="44.61634" lon="2.56222">
        <ele>596.5</ele>
        <time>2021-08-19T06:52:44Z</time>
      </trkpt>
      <trkpt lat="44.61641" lon="2.56203">
        <ele>593.9</ele>
        <time>2021-08-19T06:52:46Z</time>
      </trkpt>
      <trkpt lat="44.61649" lon="2.56186">
        <ele>592</ele>
        <time>2021-08-19T06:52:48Z</time>
      </trkpt>
      <trkpt lat="44.6166" lon="2.56172">
        <ele>591</ele>
        <time>2021-08-19T06:52:50Z</time>
      </trkpt>
      <trkpt lat="44.61671" lon="2.5616">
        <ele>590.4</ele>
        <time>2021-08-19T06:52:52Z</time>
      </trkpt>
      <trkpt lat="44.61683" lon="2.56149">
        <ele>589.8</ele>
        <time>2021-08-19T06:52:54Z</time>
      </trkpt>
      <trkpt lat="44.61695" lon="2.56138">
        <ele>589.3</ele>
        <time>2021-08-19T06:52:56Z</time>
      </trkpt>
      <trkpt lat="44.61708" lon="2.56129">
        <ele>589.2</ele>
        <time>2021-08-19T06:52:58Z</time>
      </trkpt>
      <trkpt lat="44.61722" lon="2.56124">
        <ele>589.7</ele>
        <time>2021-08-19T06:53:00Z</time>
      </trkpt>
      <trkpt lat="44.61736" lon="2.56123">
        <ele>590.7</ele>
        <time>2021-08-19T06:53:02Z</time>
      </trkpt>
      <trkpt lat="44.6175" lon="2.56121">
        <ele>591.6</ele>
        <time>2021-08-19T06:53:04Z</time>
      </trkpt>
      <trkpt lat="44.61764" lon="2.56121">
        <ele>591.6</ele>
        <time>2021-08-19T06:53:06Z</time>
      </trkpt>
      <trkpt lat="44.61778" lon="2.5612">
        <ele>591.4</ele>
        <time>2021-08-19T06:53:08Z</time>
      </trkpt>
      <trkpt lat="44.61791" lon="2.56119">
        <ele>591.2</ele>
        <time>2021-08-19T06:53:10Z</time>
      </trkpt>
      <trkpt lat="44.61805" lon="2.56117">
        <ele>591</ele>
        <time>2021-08-19T06:53:12Z</time>
      </trkpt>
      <trkpt lat="44.61818" lon="2.56117">
        <ele>590.9</ele>
        <time>2021-08-19T06:53:14Z</time>
      </trkpt>
      <trkpt lat="44.61832" lon="2.56117">
        <ele>590.8</ele>
        <time>2021-08-19T06:53:16Z</time>
      </trkpt>
      <trkpt lat="44.61846" lon="2.56119">
        <ele>591.2</ele>
        <time>2021-08-19T06:53:18Z</time>
      </trkpt>
      <trkpt lat="44.61859" lon="2.56121">
        <ele>591.4</ele>
        <time>2021-08-19T06:53:20Z</time>
      </trkpt>
      <trkpt lat="44.61873" lon="2.56124">
        <ele>591.8</ele>
        <time>2021-08-19T06:53:22Z</time>
      </trkpt>
      <trkpt lat="44.61886" lon="2.56123">
        <ele>591.8</ele>
        <time>2021-08-19T06:53:24Z</time>
      </trkpt>
      <trkpt lat="44.619" lon="2.56121">
        <ele>591.4</ele>
        <time>2021-08-19T06:53:26Z</time>
      </trkpt>
      <trkpt lat="44.61914" lon="2.56117">
        <ele>590.9</ele>
        <time>2021-08-19T06:53:28Z</time>
      </trkpt>
      <trkpt lat="44.61926" lon="2.56112">
        <ele>589.7</ele>
        <time>2021-08-19T06:53:30Z</time>
      </trkpt>
      <trkpt lat="44.61939" lon="2.56109">
        <ele>588.7</ele>
        <time>2021-08-19T06:53:32Z</time>
      </trkpt>
      <trkpt lat="44.61952" lon="2.56103">
        <ele>587.3</ele>
        <time>2021-08-19T06:53:34Z</time>
      </trkpt>
      <trkpt lat="44.61965" lon="2.56102">
        <ele>586.5</ele>
        <time>2021-08-19T06:53:36Z</time>
      </trkpt>
      <trkpt lat="44.61978" lon="2.561">
        <ele>585.6</ele>
        <time>2021-08-19T06:53:38Z</time>
      </trkpt>
      <trkpt lat="44.6199" lon="2.561">
        <ele>585.1</ele>
        <time>2021-08-19T06:53:40Z</time>
      </trkpt>
      <trkpt lat="44.62003" lon="2.56099">
        <ele>584.4</ele>
        <time>2021-08-19T06:53:42Z</time>
      </trkpt>
      <trkpt lat="44.62015" lon="2.56099">
        <ele>584</ele>
        <time>2021-08-19T06:53:44Z</time>
      </trkpt>
      <trkpt lat="44.62027" lon="2.56102">
        <ele>584.1</ele>
        <time>2021-08-19T06:53:46Z</time>
      </trkpt>
      <trkpt lat="44.62038" lon="2.56104">
        <ele>584</ele>
        <time>2021-08-19T06:53:48Z</time>
      </trkpt>
      <trkpt lat="44.62049" lon="2.56111">
        <ele>584.7</ele>
        <time>2021-08-19T06:53:50Z</time>
      </trkpt>
      <trkpt lat="44.6206" lon="2.56117">
        <ele>585.3</ele>
        <time>2021-08-19T06:53:52Z</time>
      </trkpt>
      <trkpt lat="44.6207" lon="2.56123">
        <ele>586.1</ele>
        <time>2021-08-19T06:53:54Z</time>
      </trkpt>
      <trkpt lat="44.6208" lon="2.56128">
        <ele>586.5</ele>
        <time>2021-08-19T06:53:56Z</time>
      </trkpt>
      <trkpt lat="44.6209" lon="2.56133">
        <ele>587.4</ele>
        <time>2021-08-19T06:53:58Z</time>
      </trkpt>
      <trkpt lat="44.62101" lon="2.56138">
        <ele>588.1</ele>
        <time>2021-08-19T06:54:00Z</time>
      </trkpt>
      <trkpt lat="44.62112" lon="2.56142">
        <ele>588.7</ele>
        <time>2021-08-19T06:54:02Z</time>
      </trkpt>
      <trkpt lat="44.62124" lon="2.56145">
        <ele>589</ele>
        <time>2021-08-19T06:54:04Z</time>
      </trkpt>
      <trkpt lat="44.62135" lon="2.5614">
        <ele>588.3</ele>
        <time>2021-08-19T06:54:06Z</time>
      </trkpt>
      <trkpt lat="44.62145" lon="2.5613">
        <ele>587</ele>
        <time>2021-08-19T06:54:08Z</time>
      </trkpt>
      <trkpt lat="44.62153" lon="2.56119">
        <ele>585.7</ele>
        <time>2021-08-19T06:54:10Z</time>
      </trkpt>
      <trkpt lat="44.62163" lon="2.56109">
        <ele>584.7</ele>
        <time>2021-08-19T06:54:12Z</time>
      </trkpt>
      <trkpt lat="44.62174" lon="2.56101">
        <ele>584.8</ele>
        <time>2021-08-19T06:54:14Z</time>
      </trkpt>
      <trkpt lat="44.62185" lon="2.56095">
        <ele>585.6</ele>
        <time>2021-08-19T06:54:16Z</time>
      </trkpt>
      <trkpt lat="44.62196" lon="2.56088">
        <ele>586.3</ele>
        <time>2021-08-19T06:54:18Z</time>
      </trkpt>
      <trkpt lat="44.62207" lon="2.56081">
        <ele>587</ele>
        <time>2021-08-19T06:54:20Z</time>
      </trkpt>
      <trkpt lat="44.62218" lon="2.56075">
        <ele>587.6</ele>
        <time>2021-08-19T06:54:22Z</time>
      </trkpt>
      <trkpt lat="44.62228" lon="2.56068">
        <ele>588.2</ele>
        <time>2021-08-19T06:54:24Z</time>
      </trkpt>
      <trkpt lat="44.62239" lon="2.56062">
        <ele>588.8</ele>
        <time>2021-08-19T06:54:26Z</time>
      </trkpt>
      <trkpt lat="44.6225" lon="2.56058">
        <ele>589.6</ele>
        <time>2021-08-19T06:54:28Z</time>
      </trkpt>
      <trkpt lat="44.6226" lon="2.5605">
        <ele>589.7</ele>
        <time>2021-08-19T06:54:30Z</time>
      </trkpt>
      <trkpt lat="44.62268" lon="2.56041">
        <ele>589.3</ele>
        <time>2021-08-19T06:54:32Z</time>
      </trkpt>
      <trkpt lat="44.62275" lon="2.5603">
        <ele>588.7</ele>
        <time>2021-08-19T06:54:34Z</time>
      </trkpt>
      <trkpt lat="44.62282" lon="2.56019">
        <ele>588.1</ele>
        <time>2021-08-19T06:54:36Z</time>
      </trkpt>
      <trkpt lat="44.6229" lon="2.5601">
        <ele>587.6</ele>
        <time>2021-08-19T06:54:38Z</time>
      </trkpt>
      <trkpt lat="44.62299" lon="2.56">
        <ele>587.3</ele>
        <time>2021-08-19T06:54:40Z</time>
      </trkpt>
      <trkpt lat="44.62308" lon="2.55993">
        <ele>587.9</ele>
        <time>2021-08-19T06:54:42Z</time>
      </trkpt>
      <trkpt lat="44.62318" lon="2.55987">
        <ele>588.5</ele>
        <time>2021-08-19T06:54:44Z</time>
      </trkpt>
      <trkpt lat="44.62326" lon="2.55981">
        <ele>589.1</ele>
        <time>2021-08-19T06:54:46Z</time>
      </trkpt>
      <trkpt lat="44.62334" lon="2.55972">
        <ele>589.5</ele>
        <time>2021-08-19T06:54:48Z</time>
      </trkpt>
      <trkpt lat="44.6234" lon="2.5596">
        <ele>589.9</ele>
        <time>2021-08-19T06:54:50Z</time>
      </trkpt>
      <trkpt lat="44.62343" lon="2.55946">
        <ele>589.6</ele>
        <time>2021-08-19T06:54:52Z</time>
      </trkpt>
      <trkpt lat="44.62343" lon="2.55932">
        <ele>588.9</ele>
        <time>2021-08-19T06:54:54Z</time>
      </trkpt>
      <trkpt lat="44.62343" lon="2.55917">
        <ele>588</ele>
        <time>2021-08-19T06:54:56Z</time>
      </trkpt>
      <trkpt lat="44.62343" lon="2.55903">
        <ele>587.9</ele>
        <time>2021-08-19T06:54:58Z</time>
      </trkpt>
      <trkpt lat="44.62345" lon="2.55888">
        <ele>587.9</ele>
        <time>2021-08-19T06:55:00Z</time>
      </trkpt>
      <trkpt lat="44.62347" lon="2.55872">
        <ele>588.1</ele>
        <time>2021-08-19T06:55:02Z</time>
      </trkpt>
      <trkpt lat="44.6235" lon="2.55854">
        <ele>588.4</ele>
        <time>2021-08-19T06:55:04Z</time>
      </trkpt>
      <trkpt lat="44.62353" lon="2.55835">
        <ele>588.8</ele>
        <time>2021-08-19T06:55:06Z</time>
      </trkpt>
      <trkpt lat="44.62357" lon="2.55815">
        <ele>588</ele>
        <time>2021-08-19T06:55:08Z</time>
      </trkpt>
      <trkpt lat="44.62361" lon="2.55795">
        <ele>587.2</ele>
        <time>2021-08-19T06:55:10Z</time>
      </trkpt>
      <trkpt lat="44.62363" lon="2.55775">
        <ele>586.1</ele>
        <time>2021-08-19T06:55:12Z</time>
      </trkpt>
      <trkpt lat="44.62363" lon="2.55755">
        <ele>584.2</ele>
        <time>2021-08-19T06:55:14Z</time>
      </trkpt>
      <trkpt lat="44.62359" lon="2.55734">
        <ele>582.6</ele>
        <time>2021-08-19T06:55:16Z</time>
      </trkpt>
      <trkpt lat="44.62355" lon="2.55713">
        <ele>581.3</ele>
        <time>2021-08-19T06:55:18Z</time>
      </trkpt>
      <trkpt lat="44.62351" lon="2.55691">
        <ele>580</ele>
        <time>2021-08-19T06:55:20Z</time>
      </trkpt>
      <trkpt lat="44.62346" lon="2.5567">
        <ele>578.5</ele>
        <time>2021-08-19T06:55:22Z</time>
      </trkpt>
      <trkpt lat="44.6234" lon="2.55651">
        <ele>576.5</ele>
        <time>2021-08-19T06:55:24Z</time>
      </trkpt>
      <trkpt lat="44.62334" lon="2.55632">
        <ele>574.6</ele>
        <time>2021-08-19T06:55:26Z</time>
      </trkpt>
      <trkpt lat="44.6233" lon="2.55611">
        <ele>573.2</ele>
        <time>2021-08-19T06:55:28Z</time>
      </trkpt>
      <trkpt lat="44.6233" lon="2.5559">
        <ele>572.7</ele>
        <time>2021-08-19T06:55:30Z</time>
      </trkpt>
      <trkpt lat="44.62333" lon="2.55568">
        <ele>572.8</ele>
        <time>2021-08-19T06:55:32Z</time>
      </trkpt>
      <trkpt lat="44.62339" lon="2.55547">
        <ele>572.7</ele>
        <time>2021-08-19T06:55:34Z</time>
      </trkpt>
      <trkpt lat="44.62347" lon="2.55527">
        <ele>573.5</ele>
        <time>2021-08-19T06:55:36Z</time>
      </trkpt>
      <trkpt lat="44.62357" lon="2.55509">
        <ele>575.3</ele>
        <time>2021-08-19T06:55:38Z</time>
      </trkpt>
      <trkpt lat="44.62368" lon="2.55492">
        <ele>576.4</ele>
        <time>2021-08-19T06:55:40Z</time>
      </trkpt>
      <trkpt lat="44.6238" lon="2.55475">
        <ele>576.1</ele>
        <time>2021-08-19T06:55:42Z</time>
      </trkpt>
      <trkpt lat="44.62391" lon="2.55458">
        <ele>575.4</ele>
        <time>2021-08-19T06:55:44Z</time>
      </trkpt>
      <trkpt lat="44.62402" lon="2.55441">
        <ele>574.9</ele>
        <time>2021-08-19T06:55:46Z</time>
      </trkpt>
      <trkpt lat="44.62411" lon="2.55425">
        <ele>574.3</ele>
        <time>2021-08-19T06:55:48Z</time>
      </trkpt>
      <trkpt lat="44.6242" lon="2.5541">
        <ele>572.5</ele>
        <time>2021-08-19T06:55:50Z</time>
      </trkpt>
      <trkpt lat="44.62429" lon="2.55397">
        <ele>569.7</ele>
        <time>2021-08-19T06:55:52Z</time>
      </trkpt>
      <trkpt lat="44.6244" lon="2.55391">
        <ele>568</ele>
        <time>2021-08-19T06:55:54Z</time>
      </trkpt>
      <trkpt lat="44.62451" lon="2.55394">
        <ele>568.5</ele>
        <time>2021-08-19T06:55:56Z</time>
      </trkpt>
      <trkpt lat="44.62461" lon="2.55406">
        <ele>571.9</ele>
        <time>2021-08-19T06:55:58Z</time>
      </trkpt>
      <trkpt lat="44.6247" lon="2.55421">
        <ele>576.3</ele>
        <time>2021-08-19T06:56:00Z</time>
      </trkpt>
      <trkpt lat="44.6248" lon="2.55431">
        <ele>579.5</ele>
        <time>2021-08-19T06:56:02Z</time>
      </trkpt>
      <trkpt lat="44.62495" lon="2.55435">
        <ele>581</ele>
        <time>2021-08-19T06:56:04Z</time>
      </trkpt>
      <trkpt lat="44.6251" lon="2.55434">
        <ele>580.2</ele>
        <time>2021-08-19T06:56:06Z</time>
      </trkpt>
      <trkpt lat="44.62524" lon="2.55427">
        <ele>577.2</ele>
        <time>2021-08-19T06:56:08Z</time>
      </trkpt>
      <trkpt lat="44.62539" lon="2.5542">
        <ele>573.7</ele>
        <time>2021-08-19T06:56:10Z</time>
      </trkpt>
      <trkpt lat="44.62554" lon="2.55416">
        <ele>571.2</ele>
        <time>2021-08-19T06:56:12Z</time>
      </trkpt>
      <trkpt lat="44.62569" lon="2.55421">
        <ele>571.6</ele>
        <time>2021-08-19T06:56:14Z</time>
      </trkpt>
      <trkpt lat="44.62583" lon="2.55428">
        <ele>572.9</ele>
        <time>2021-08-19T06:56:16Z</time>
      </trkpt>
      <trkpt lat="44.62597" lon="2.5543">
        <ele>576.9</ele>
        <time>2021-08-19T06:56:18Z</time>
      </trkpt>
      <trkpt lat="44.62609" lon="2.55419">
        <ele>576.5</ele>
        <time>2021-08-19T06:56:20Z</time>
      </trkpt>
      <trkpt lat="44.62617" lon="2.55401">
        <ele>573.1</ele>
        <time>2021-08-19T06:56:22Z</time>
      </trkpt>
      <trkpt lat="44.62624" lon="2.55381">
        <ele>569.8</ele>
        <time>2021-08-19T06:56:24Z</time>
      </trkpt>
      <trkpt lat="44.62633" lon="2.55361">
        <ele>566.9</ele>
        <time>2021-08-19T06:56:26Z</time>
      </trkpt>
      <trkpt lat="44.62641" lon="2.5534">
        <ele>564.5</ele>
        <time>2021-08-19T06:56:28Z</time>
      </trkpt>
      <trkpt lat="44.62649" lon="2.5532">
        <ele>563.4</ele>
        <time>2021-08-19T06:56:30Z</time>
      </trkpt>
      <trkpt lat="44.62652" lon="2.55299">
        <ele>561.3</ele>
        <time>2021-08-19T06:56:32Z</time>
      </trkpt>
      <trkpt lat="44.6265" lon="2.55277">
        <ele>557.2</ele>
        <time>2021-08-19T06:56:34Z</time>
      </trkpt>
      <trkpt lat="44.62646" lon="2.55257">
        <ele>552.2</ele>
        <time>2021-08-19T06:56:36Z</time>
      </trkpt>
      <trkpt lat="44.62646" lon="2.55236">
        <ele>549.3</ele>
        <time>2021-08-19T06:56:38Z</time>
      </trkpt>
      <trkpt lat="44.62647" lon="2.55213">
        <ele>547</ele>
        <time>2021-08-19T06:56:40Z</time>
      </trkpt>
      <trkpt lat="44.6265" lon="2.55188">
        <ele>545.1</ele>
        <time>2021-08-19T06:56:42Z</time>
      </trkpt>
      <trkpt lat="44.62654" lon="2.55164">
        <ele>543.5</ele>
        <time>2021-08-19T06:56:44Z</time>
      </trkpt>
      <trkpt lat="44.62657" lon="2.55142">
        <ele>541.6</ele>
        <time>2021-08-19T06:56:46Z</time>
      </trkpt>
      <trkpt lat="44.62661" lon="2.55123">
        <ele>540.1</ele>
        <time>2021-08-19T06:56:48Z</time>
      </trkpt>
      <trkpt lat="44.62666" lon="2.55107">
        <ele>539.6</ele>
        <time>2021-08-19T06:56:50Z</time>
      </trkpt>
      <trkpt lat="44.62677" lon="2.55095">
        <ele>538.4</ele>
        <time>2021-08-19T06:56:52Z</time>
      </trkpt>
      <trkpt lat="44.62691" lon="2.55088">
        <ele>538.1</ele>
        <time>2021-08-19T06:56:54Z</time>
      </trkpt>
      <trkpt lat="44.62707" lon="2.55086">
        <ele>538.4</ele>
        <time>2021-08-19T06:56:56Z</time>
      </trkpt>
      <trkpt lat="44.62723" lon="2.55084">
        <ele>538.9</ele>
        <time>2021-08-19T06:56:58Z</time>
      </trkpt>
      <trkpt lat="44.62739" lon="2.55082">
        <ele>539.1</ele>
        <time>2021-08-19T06:57:00Z</time>
      </trkpt>
      <trkpt lat="44.62755" lon="2.55078">
        <ele>538.3</ele>
        <time>2021-08-19T06:57:02Z</time>
      </trkpt>
      <trkpt lat="44.6277" lon="2.55076">
        <ele>536.1</ele>
        <time>2021-08-19T06:57:04Z</time>
      </trkpt>
      <trkpt lat="44.62782" lon="2.55082">
        <ele>535.9</ele>
        <time>2021-08-19T06:57:06Z</time>
      </trkpt>
      <trkpt lat="44.62792" lon="2.55097">
        <ele>538.5</ele>
        <time>2021-08-19T06:57:08Z</time>
      </trkpt>
      <trkpt lat="44.62801" lon="2.55115">
        <ele>541.9</ele>
        <time>2021-08-19T06:57:10Z</time>
      </trkpt>
      <trkpt lat="44.62811" lon="2.55131">
        <ele>544.9</ele>
        <time>2021-08-19T06:57:12Z</time>
      </trkpt>
      <trkpt lat="44.62823" lon="2.55142">
        <ele>546.5</ele>
        <time>2021-08-19T06:57:14Z</time>
      </trkpt>
      <trkpt lat="44.62838" lon="2.55146">
        <ele>547</ele>
        <time>2021-08-19T06:57:16Z</time>
      </trkpt>
      <trkpt lat="44.62854" lon="2.5514">
        <ele>546.3</ele>
        <time>2021-08-19T06:57:18Z</time>
      </trkpt>
      <trkpt lat="44.62868" lon="2.55127">
        <ele>544</ele>
        <time>2021-08-19T06:57:20Z</time>
      </trkpt>
      <trkpt lat="44.62881" lon="2.5511">
        <ele>540.8</ele>
        <time>2021-08-19T06:57:22Z</time>
      </trkpt>
      <trkpt lat="44.62891" lon="2.55092">
        <ele>536.9</ele>
        <time>2021-08-19T06:57:24Z</time>
      </trkpt>
      <trkpt lat="44.62898" lon="2.55071">
        <ele>532.9</ele>
        <time>2021-08-19T06:57:26Z</time>
      </trkpt>
      <trkpt lat="44.62908" lon="2.55053">
        <ele>529.8</ele>
        <time>2021-08-19T06:57:28Z</time>
      </trkpt>
      <trkpt lat="44.62921" lon="2.55038">
        <ele>528.1</ele>
        <time>2021-08-19T06:57:30Z</time>
      </trkpt>
      <trkpt lat="44.62936" lon="2.55026">
        <ele>529</ele>
        <time>2021-08-19T06:57:32Z</time>
      </trkpt>
      <trkpt lat="44.6295" lon="2.55013">
        <ele>529.3</ele>
        <time>2021-08-19T06:57:34Z</time>
      </trkpt>
      <trkpt lat="44.6296" lon="2.54996">
        <ele>528.4</ele>
        <time>2021-08-19T06:57:36Z</time>
      </trkpt>
      <trkpt lat="44.62965" lon="2.54974">
        <ele>526.6</ele>
        <time>2021-08-19T06:57:38Z</time>
      </trkpt>
      <trkpt lat="44.62967" lon="2.54953">
        <ele>524</ele>
        <time>2021-08-19T06:57:40Z</time>
      </trkpt>
      <trkpt lat="44.62974" lon="2.54934">
        <ele>522.8</ele>
        <time>2021-08-19T06:57:42Z</time>
      </trkpt>
      <trkpt lat="44.62987" lon="2.54919">
        <ele>523</ele>
        <time>2021-08-19T06:57:44Z</time>
      </trkpt>
      <trkpt lat="44.63002" lon="2.5491">
        <ele>523.7</ele>
        <time>2021-08-19T06:57:46Z</time>
      </trkpt>
      <trkpt lat="44.63018" lon="2.54903">
        <ele>523.9</ele>
        <time>2021-08-19T06:57:48Z</time>
      </trkpt>
      <trkpt lat="44.63034" lon="2.54896">
        <ele>523.9</ele>
        <time>2021-08-19T06:57:50Z</time>
      </trkpt>
      <trkpt lat="44.6305" lon="2.54888">
        <ele>523.7</ele>
        <time>2021-08-19T06:57:52Z</time>
      </trkpt>
      <trkpt lat="44.63066" lon="2.54876">
        <ele>522.4</ele>
        <time>2021-08-19T06:57:54Z</time>
      </trkpt>
      <trkpt lat="44.63079" lon="2.54863">
        <ele>520.4</ele>
        <time>2021-08-19T06:57:56Z</time>
      </trkpt>
      <trkpt lat="44.63094" lon="2.54848">
        <ele>517.9</ele>
        <time>2021-08-19T06:57:58Z</time>
      </trkpt>
      <trkpt lat="44.63106" lon="2.54832">
        <ele>515.5</ele>
        <time>2021-08-19T06:58:00Z</time>
      </trkpt>
      <trkpt lat="44.63115" lon="2.54811">
        <ele>513.6</ele>
        <time>2021-08-19T06:58:02Z</time>
      </trkpt>
      <trkpt lat="44.63122" lon="2.54788">
        <ele>511.4</ele>
        <time>2021-08-19T06:58:04Z</time>
      </trkpt>
      <trkpt lat="44.63132" lon="2.54768">
        <ele>510.7</ele>
        <time>2021-08-19T06:58:06Z</time>
      </trkpt>
      <trkpt lat="44.63144" lon="2.54751">
        <ele>511.2</ele>
        <time>2021-08-19T06:58:08Z</time>
      </trkpt>
      <trkpt lat="44.63158" lon="2.54737">
        <ele>512</ele>
        <time>2021-08-19T06:58:10Z</time>
      </trkpt>
      <trkpt lat="44.63168" lon="2.54718">
        <ele>511.2</ele>
        <time>2021-08-19T06:58:12Z</time>
      </trkpt>
      <trkpt lat="44.63177" lon="2.54696">
        <ele>509.1</ele>
        <time>2021-08-19T06:58:14Z</time>
      </trkpt>
      <trkpt lat="44.63185" lon="2.54674">
        <ele>507</ele>
        <time>2021-08-19T06:58:16Z</time>
      </trkpt>
      <trkpt lat="44.63195" lon="2.54653">
        <ele>504.5</ele>
        <time>2021-08-19T06:58:18Z</time>
      </trkpt>
      <trkpt lat="44.63208" lon="2.54636">
        <ele>503.4</ele>
        <time>2021-08-19T06:58:20Z</time>
      </trkpt>
      <trkpt lat="44.63222" lon="2.54619">
        <ele>502.8</ele>
        <time>2021-08-19T06:58:22Z</time>
      </trkpt>
      <trkpt lat="44.63236" lon="2.54601">
        <ele>502.5</ele>
        <time>2021-08-19T06:58:24Z</time>
      </trkpt>
      <trkpt lat="44.63247" lon="2.54584">
        <ele>502.4</ele>
        <time>2021-08-19T06:58:26Z</time>
      </trkpt>
      <trkpt lat="44.63259" lon="2.54569">
        <ele>502.8</ele>
        <time>2021-08-19T06:58:28Z</time>
      </trkpt>
      <trkpt lat="44.6327" lon="2.54554">
        <ele>503</ele>
        <time>2021-08-19T06:58:30Z</time>
      </trkpt>
      <trkpt lat="44.63274" lon="2.5453">
        <ele>501.6</ele>
        <time>2021-08-19T06:58:32Z</time>
      </trkpt>
      <trkpt lat="44.63276" lon="2.54506">
        <ele>499.8</ele>
        <time>2021-08-19T06:58:34Z</time>
      </trkpt>
      <trkpt lat="44.63276" lon="2.54482">
        <ele>497.2</ele>
        <time>2021-08-19T06:58:36Z</time>
      </trkpt>
      <trkpt lat="44.6328" lon="2.54459">
        <ele>495.3</ele>
        <time>2021-08-19T06:58:38Z</time>
      </trkpt>
      <trkpt lat="44.63287" lon="2.54439">
        <ele>494.8</ele>
        <time>2021-08-19T06:58:40Z</time>
      </trkpt>
      <trkpt lat="44.63298" lon="2.54419">
        <ele>495.6</ele>
        <time>2021-08-19T06:58:42Z</time>
      </trkpt>
      <trkpt lat="44.6331" lon="2.54402">
        <ele>496.4</ele>
        <time>2021-08-19T06:58:44Z</time>
      </trkpt>
      <trkpt lat="44.63322" lon="2.54384">
        <ele>497.2</ele>
        <time>2021-08-19T06:58:46Z</time>
      </trkpt>
      <trkpt lat="44.63332" lon="2.54363">
        <ele>497.4</ele>
        <time>2021-08-19T06:58:48Z</time>
      </trkpt>
      <trkpt lat="44.63338" lon="2.54341">
        <ele>496.1</ele>
        <time>2021-08-19T06:58:50Z</time>
      </trkpt>
      <trkpt lat="44.63341" lon="2.54319">
        <ele>494.6</ele>
        <time>2021-08-19T06:58:52Z</time>
      </trkpt>
      <trkpt lat="44.63337" lon="2.54295">
        <ele>492</ele>
        <time>2021-08-19T06:58:54Z</time>
      </trkpt>
      <trkpt lat="44.6333" lon="2.54272">
        <ele>488.2</ele>
        <time>2021-08-19T06:58:56Z</time>
      </trkpt>
      <trkpt lat="44.63326" lon="2.54248">
        <ele>484.5</ele>
        <time>2021-08-19T06:58:58Z</time>
      </trkpt>
      <trkpt lat="44.63323" lon="2.54227">
        <ele>481.3</ele>
        <time>2021-08-19T06:59:00Z</time>
      </trkpt>
      <trkpt lat="44.63322" lon="2.54203">
        <ele>479.2</ele>
        <time>2021-08-19T06:59:02Z</time>
      </trkpt>
      <trkpt lat="44.63327" lon="2.54182">
        <ele>479.5</ele>
        <time>2021-08-19T06:59:04Z</time>
      </trkpt>
      <trkpt lat="44.63335" lon="2.54161">
        <ele>480.4</ele>
        <time>2021-08-19T06:59:06Z</time>
      </trkpt>
      <trkpt lat="44.63344" lon="2.54143">
        <ele>478.7</ele>
        <time>2021-08-19T06:59:08Z</time>
      </trkpt>
      <trkpt lat="44.63352" lon="2.54124">
        <ele>476.9</ele>
        <time>2021-08-19T06:59:10Z</time>
      </trkpt>
      <trkpt lat="44.63359" lon="2.54104">
        <ele>474.7</ele>
        <time>2021-08-19T06:59:12Z</time>
      </trkpt>
      <trkpt lat="44.63363" lon="2.54084">
        <ele>472.1</ele>
        <time>2021-08-19T06:59:14Z</time>
      </trkpt>
      <trkpt lat="44.63368" lon="2.54067">
        <ele>470.5</ele>
        <time>2021-08-19T06:59:16Z</time>
      </trkpt>
      <trkpt lat="44.63377" lon="2.54051">
        <ele>469.7</ele>
        <time>2021-08-19T06:59:18Z</time>
      </trkpt>
      <trkpt lat="44.6339" lon="2.54038">
        <ele>469.5</ele>
        <time>2021-08-19T06:59:20Z</time>
      </trkpt>
      <trkpt lat="44.63403" lon="2.54029">
        <ele>470</ele>
        <time>2021-08-19T06:59:22Z</time>
      </trkpt>
      <trkpt lat="44.63417" lon="2.54021">
        <ele>470.5</ele>
        <time>2021-08-19T06:59:24Z</time>
      </trkpt>
      <trkpt lat="44.6343" lon="2.54012">
        <ele>468.6</ele>
        <time>2021-08-19T06:59:26Z</time>
      </trkpt>
      <trkpt lat="44.63443" lon="2.54004">
        <ele>466.8</ele>
        <time>2021-08-19T06:59:28Z</time>
      </trkpt>
      <trkpt lat="44.63455" lon="2.53996">
        <ele>464.9</ele>
        <time>2021-08-19T06:59:30Z</time>
      </trkpt>
      <trkpt lat="44.63468" lon="2.53989">
        <ele>463.1</ele>
        <time>2021-08-19T06:59:32Z</time>
      </trkpt>
      <trkpt lat="44.63479" lon="2.53984">
        <ele>461.7</ele>
        <time>2021-08-19T06:59:34Z</time>
      </trkpt>
      <trkpt lat="44.63491" lon="2.53981">
        <ele>461</ele>
        <time>2021-08-19T06:59:36Z</time>
      </trkpt>
      <trkpt lat="44.63504" lon="2.53985">
        <ele>460.7</ele>
        <time>2021-08-19T06:59:38Z</time>
      </trkpt>
      <trkpt lat="44.63515" lon="2.53996">
        <ele>459.8</ele>
        <time>2021-08-19T06:59:40Z</time>
      </trkpt>
      <trkpt lat="44.63525" lon="2.54012">
        <ele>460.5</ele>
        <time>2021-08-19T06:59:42Z</time>
      </trkpt>
      <trkpt lat="44.63535" lon="2.54028">
        <ele>461.6</ele>
        <time>2021-08-19T06:59:44Z</time>
      </trkpt>
      <trkpt lat="44.63546" lon="2.54041">
        <ele>462.2</ele>
        <time>2021-08-19T06:59:46Z</time>
      </trkpt>
      <trkpt lat="44.63556" lon="2.54053">
        <ele>462.8</ele>
        <time>2021-08-19T06:59:48Z</time>
      </trkpt>
      <trkpt lat="44.63566" lon="2.54062">
        <ele>462.9</ele>
        <time>2021-08-19T06:59:50Z</time>
      </trkpt>
      <trkpt lat="44.6358" lon="2.54061">
        <ele>460.3</ele>
        <time>2021-08-19T06:59:52Z</time>
      </trkpt>
      <trkpt lat="44.63593" lon="2.54053">
        <ele>456.9</ele>
        <time>2021-08-19T06:59:54Z</time>
      </trkpt>
      <trkpt lat="44.63605" lon="2.54042">
        <ele>452.9</ele>
        <time>2021-08-19T06:59:56Z</time>
      </trkpt>
      <trkpt lat="44.63619" lon="2.5403">
        <ele>448.8</ele>
        <time>2021-08-19T06:59:58Z</time>
      </trkpt>
      <trkpt lat="44.63631" lon="2.5402">
        <ele>445.6</ele>
        <time>2021-08-19T07:00:00Z</time>
      </trkpt>
      <trkpt lat="44.63644" lon="2.54017">
        <ele>443.7</ele>
        <time>2021-08-19T07:00:02Z</time>
      </trkpt>
      <trkpt lat="44.63657" lon="2.54022">
        <ele>443.6</ele>
        <time>2021-08-19T07:00:04Z</time>
      </trkpt>
      <trkpt lat="44.63665" lon="2.54037">
        <ele>446.1</ele>
        <time>2021-08-19T07:00:06Z</time>
      </trkpt>
      <trkpt lat="44.63669" lon="2.54057">
        <ele>449.7</ele>
        <time>2021-08-19T07:00:08Z</time>
      </trkpt>
      <trkpt lat="44.63671" lon="2.54077">
        <ele>453.5</ele>
        <time>2021-08-19T07:00:10Z</time>
      </trkpt>
      <trkpt lat="44.63676" lon="2.54094">
        <ele>456.3</ele>
        <time>2021-08-19T07:00:12Z</time>
      </trkpt>
      <trkpt lat="44.63685" lon="2.54105">
        <ele>456.6</ele>
        <time>2021-08-19T07:00:14Z</time>
      </trkpt>
      <trkpt lat="44.63698" lon="2.54105">
        <ele>453.4</ele>
        <time>2021-08-19T07:00:16Z</time>
      </trkpt>
      <trkpt lat="44.63711" lon="2.541">
        <ele>448.6</ele>
        <time>2021-08-19T07:00:18Z</time>
      </trkpt>
      <trkpt lat="44.63728" lon="2.541">
        <ele>444.2</ele>
        <time>2021-08-19T07:00:20Z</time>
      </trkpt>
      <trkpt lat="44.63743" lon="2.5411">
        <ele>443.1</ele>
        <time>2021-08-19T07:00:22Z</time>
      </trkpt>
      <trkpt lat="44.63757" lon="2.54124">
        <ele>442.7</ele>
        <time>2021-08-19T07:00:24Z</time>
      </trkpt>
      <trkpt lat="44.63771" lon="2.54139">
        <ele>442.5</ele>
        <time>2021-08-19T07:00:26Z</time>
      </trkpt>
      <trkpt lat="44.63785" lon="2.54152">
        <ele>442</ele>
        <time>2021-08-19T07:00:28Z</time>
      </trkpt>
      <trkpt lat="44.638" lon="2.54161">
        <ele>439.6</ele>
        <time>2021-08-19T07:00:30Z</time>
      </trkpt>
      <trkpt lat="44.63818" lon="2.54166">
        <ele>435.6</ele>
        <time>2021-08-19T07:00:32Z</time>
      </trkpt>
      <trkpt lat="44.63833" lon="2.54173">
        <ele>432.6</ele>
        <time>2021-08-19T07:00:34Z</time>
      </trkpt>
      <trkpt lat="44.63847" lon="2.54183">
        <ele>430.9</ele>
        <time>2021-08-19T07:00:36Z</time>
      </trkpt>
      <trkpt lat="44.63858" lon="2.54193">
        <ele>429.6</ele>
        <time>2021-08-19T07:00:38Z</time>
      </trkpt>
      <trkpt lat="44.63867" lon="2.54209">
        <ele>430.5</ele>
        <time>2021-08-19T07:00:40Z</time>
      </trkpt>
      <trkpt lat="44.63872" lon="2.54227">
        <ele>432.9</ele>
        <time>2021-08-19T07:00:42Z</time>
      </trkpt>
      <trkpt lat="44.63879" lon="2.54245">
        <ele>434.6</ele>
        <time>2021-08-19T07:00:44Z</time>
      </trkpt>
      <trkpt lat="44.63889" lon="2.54256">
        <ele>433.4</ele>
        <time>2021-08-19T07:00:46Z</time>
      </trkpt>
      <trkpt lat="44.63903" lon="2.54258">
        <ele>429.1</ele>
        <time>2021-08-19T07:00:48Z</time>
      </trkpt>
      <trkpt lat="44.63917" lon="2.54252">
        <ele>423.3</ele>
        <time>2021-08-19T07:00:50Z</time>
      </trkpt>
      <trkpt lat="44.63933" lon="2.54247">
        <ele>418.7</ele>
        <time>2021-08-19T07:00:52Z</time>
      </trkpt>
      <trkpt lat="44.6395" lon="2.54252">
        <ele>415.6</ele>
        <time>2021-08-19T07:00:54Z</time>
      </trkpt>
      <trkpt lat="44.63966" lon="2.54259">
        <ele>413.3</ele>
        <time>2021-08-19T07:00:56Z</time>
      </trkpt>
      <trkpt lat="44.63979" lon="2.54268">
        <ele>411.8</ele>
        <time>2021-08-19T07:00:58Z</time>
      </trkpt>
      <trkpt lat="44.6399" lon="2.54282">
        <ele>411.5</ele>
        <time>2021-08-19T07:01:00Z</time>
      </trkpt>
      <trkpt lat="44.63998" lon="2.54299">
        <ele>412.2</ele>
        <time>2021-08-19T07:01:02Z</time>
      </trkpt>
      <trkpt lat="44.64002" lon="2.54319">
        <ele>414</ele>
        <time>2021-08-19T07:01:04Z</time>
      </trkpt>
      <trkpt lat="44.64005" lon="2.54337">
        <ele>414.9</ele>
        <time>2021-08-19T07:01:06Z</time>
      </trkpt>
      <trkpt lat="44.64006" lon="2.54354">
        <ele>413.6</ele>
        <time>2021-08-19T07:01:08Z</time>
      </trkpt>
      <trkpt lat="44.64004" lon="2.54369">
        <ele>413.7</ele>
        <time>2021-08-19T07:01:10Z</time>
      </trkpt>
      <trkpt lat="44.63996" lon="2.54383">
        <ele>415.8</ele>
        <time>2021-08-19T07:01:12Z</time>
      </trkpt>
      <trkpt lat="44.63984" lon="2.54394">
        <ele>419.1</ele>
        <time>2021-08-19T07:01:14Z</time>
      </trkpt>
      <trkpt lat="44.63971" lon="2.54403">
        <ele>423</ele>
        <time>2021-08-19T07:01:16Z</time>
      </trkpt>
      <trkpt lat="44.63962" lon="2.54414">
        <ele>425.9</ele>
        <time>2021-08-19T07:01:18Z</time>
      </trkpt>
      <trkpt lat="44.63961" lon="2.54431">
        <ele>426.5</ele>
        <time>2021-08-19T07:01:20Z</time>
      </trkpt>
      <trkpt lat="44.63969" lon="2.54448">
        <ele>423.8</ele>
        <time>2021-08-19T07:01:22Z</time>
      </trkpt>
      <trkpt lat="44.63978" lon="2.54464">
        <ele>419.9</ele>
        <time>2021-08-19T07:01:24Z</time>
      </trkpt>
      <trkpt lat="44.63985" lon="2.54483">
        <ele>416.4</ele>
        <time>2021-08-19T07:01:26Z</time>
      </trkpt>
      <trkpt lat="44.63993" lon="2.54502">
        <ele>412.5</ele>
        <time>2021-08-19T07:01:28Z</time>
      </trkpt>
      <trkpt lat="44.64004" lon="2.54514">
        <ele>407.9</ele>
        <time>2021-08-19T07:01:30Z</time>
      </trkpt>
      <trkpt lat="44.64015" lon="2.54523">
        <ele>402.7</ele>
        <time>2021-08-19T07:01:32Z</time>
      </trkpt>
      <trkpt lat="44.64026" lon="2.54533">
        <ele>398</ele>
        <time>2021-08-19T07:01:34Z</time>
      </trkpt>
      <trkpt lat="44.64034" lon="2.5455">
        <ele>395</ele>
        <time>2021-08-19T07:01:36Z</time>
      </trkpt>
      <trkpt lat="44.64035" lon="2.54572">
        <ele>395.4</ele>
        <time>2021-08-19T07:01:38Z</time>
      </trkpt>
      <trkpt lat="44.64033" lon="2.54594">
        <ele>396.8</ele>
        <time>2021-08-19T07:01:40Z</time>
      </trkpt>
      <trkpt lat="44.64027" lon="2.54616">
        <ele>398.6</ele>
        <time>2021-08-19T07:01:42Z</time>
      </trkpt>
      <trkpt lat="44.64021" lon="2.54637">
        <ele>401</ele>
        <time>2021-08-19T07:01:44Z</time>
      </trkpt>
      <trkpt lat="44.64016" lon="2.54658">
        <ele>402.1</ele>
        <time>2021-08-19T07:01:46Z</time>
      </trkpt>
      <trkpt lat="44.64014" lon="2.54681">
        <ele>402.7</ele>
        <time>2021-08-19T07:01:48Z</time>
      </trkpt>
      <trkpt lat="44.64012" lon="2.54701">
        <ele>403.4</ele>
        <time>2021-08-19T07:01:50Z</time>
      </trkpt>
      <trkpt lat="44.6401" lon="2.54719">
        <ele>403.8</ele>
        <time>2021-08-19T07:01:52Z</time>
      </trkpt>
      <trkpt lat="44.64011" lon="2.54736">
        <ele>403.1</ele>
        <time>2021-08-19T07:01:54Z</time>
      </trkpt>
      <trkpt lat="44.64019" lon="2.54752">
        <ele>399.5</ele>
        <time>2021-08-19T07:01:56Z</time>
      </trkpt>
      <trkpt lat="44.64032" lon="2.54764">
        <ele>394.1</ele>
        <time>2021-08-19T07:01:58Z</time>
      </trkpt>
      <trkpt lat="44.64045" lon="2.54777">
        <ele>389.3</ele>
        <time>2021-08-19T07:02:00Z</time>
      </trkpt>
      <trkpt lat="44.64055" lon="2.54797">
        <ele>385.9</ele>
        <time>2021-08-19T07:02:02Z</time>
      </trkpt>
      <trkpt lat="44.64062" lon="2.54818">
        <ele>384.1</ele>
        <time>2021-08-19T07:02:04Z</time>
      </trkpt>
      <trkpt lat="44.64069" lon="2.54836">
        <ele>382.1</ele>
        <time>2021-08-19T07:02:06Z</time>
      </trkpt>
      <trkpt lat="44.64073" lon="2.5485">
        <ele>379.5</ele>
        <time>2021-08-19T07:02:08Z</time>
      </trkpt>
      <trkpt lat="44.64072" lon="2.54866">
        <ele>378.1</ele>
        <time>2021-08-19T07:02:10Z</time>
      </trkpt>
      <trkpt lat="44.64067" lon="2.54884">
        <ele>378.2</ele>
        <time>2021-08-19T07:02:12Z</time>
      </trkpt>
      <trkpt lat="44.64058" lon="2.54902">
        <ele>378.8</ele>
        <time>2021-08-19T07:02:14Z</time>
      </trkpt>
      <trkpt lat="44.64046" lon="2.54917">
        <ele>379.7</ele>
        <time>2021-08-19T07:02:16Z</time>
      </trkpt>
      <trkpt lat="44.64031" lon="2.54928">
        <ele>380.3</ele>
        <time>2021-08-19T07:02:18Z</time>
      </trkpt>
      <trkpt lat="44.64016" lon="2.54937">
        <ele>381.2</ele>
        <time>2021-08-19T07:02:20Z</time>
      </trkpt>
      <trkpt lat="44.64001" lon="2.54951">
        <ele>380.6</ele>
        <time>2021-08-19T07:02:22Z</time>
      </trkpt>
      <trkpt lat="44.63987" lon="2.54966">
        <ele>381.2</ele>
        <time>2021-08-19T07:02:24Z</time>
      </trkpt>
      <trkpt lat="44.63974" lon="2.54982">
        <ele>382.1</ele>
        <time>2021-08-19T07:02:26Z</time>
      </trkpt>
      <trkpt lat="44.63962" lon="2.54996">
        <ele>383.1</ele>
        <time>2021-08-19T07:02:28Z</time>
      </trkpt>
      <trkpt lat="44.6395" lon="2.55011">
        <ele>383.9</ele>
        <time>2021-08-19T07:02:30Z</time>
      </trkpt>
      <trkpt lat="44.63942" lon="2.5503">
        <ele>382.7</ele>
        <time>2021-08-19T07:02:32Z</time>
      </trkpt>
      <trkpt lat="44.63939" lon="2.55052">
        <ele>378.5</ele>
        <time>2021-08-19T07:02:34Z</time>
      </trkpt>
      <trkpt lat="44.63936" lon="2.5507">
        <ele>375.2</ele>
        <time>2021-08-19T07:02:36Z</time>
      </trkpt>
      <trkpt lat="44.63928" lon="2.55086">
        <ele>374.4</ele>
        <time>2021-08-19T07:02:38Z</time>
      </trkpt>
      <trkpt lat="44.63917" lon="2.551">
        <ele>376.8</ele>
        <time>2021-08-19T07:02:40Z</time>
      </trkpt>
      <trkpt lat="44.63906" lon="2.55111">
        <ele>379.9</ele>
        <time>2021-08-19T07:02:42Z</time>
      </trkpt>
      <trkpt lat="44.639" lon="2.55128">
        <ele>379.8</ele>
        <time>2021-08-19T07:02:44Z</time>
      </trkpt>
      <trkpt lat="44.63903" lon="2.55147">
        <ele>374.9</ele>
        <time>2021-08-19T07:02:46Z</time>
      </trkpt>
      <trkpt lat="44.63909" lon="2.55166">
        <ele>368.4</ele>
        <time>2021-08-19T07:02:48Z</time>
      </trkpt>
      <trkpt lat="44.63911" lon="2.55184">
        <ele>363.2</ele>
        <time>2021-08-19T07:02:50Z</time>
      </trkpt>
      <trkpt lat="44.63906" lon="2.55203">
        <ele>361</ele>
        <time>2021-08-19T07:02:52Z</time>
      </trkpt>
      <trkpt lat="44.63897" lon="2.55221">
        <ele>361.7</ele>
        <time>2021-08-19T07:02:54Z</time>
      </trkpt>
      <trkpt lat="44.63886" lon="2.55239">
        <ele>363.5</ele>
        <time>2021-08-19T07:02:56Z</time>
      </trkpt>
      <trkpt lat="44.63875" lon="2.55255">
        <ele>365.4</ele>
        <time>2021-08-19T07:02:58Z</time>
      </trkpt>
      <trkpt lat="44.63863" lon="2.5527">
        <ele>367.4</ele>
        <time>2021-08-19T07:03:00Z</time>
      </trkpt>
      <trkpt lat="44.63849" lon="2.55283">
        <ele>370.9</ele>
        <time>2021-08-19T07:03:02Z</time>
      </trkpt>
      <trkpt lat="44.63839" lon="2.55299">
        <ele>371.7</ele>
        <time>2021-08-19T07:03:04Z</time>
      </trkpt>
      <trkpt lat="44.63834" lon="2.55319">
        <ele>368</ele>
        <time>2021-08-19T07:03:06Z</time>
      </trkpt>
      <trkpt lat="44.63838" lon="2.55338">
        <ele>359.9</ele>
        <time>2021-08-19T07:03:08Z</time>
      </trkpt>
      <trkpt lat="44.63822" lon="2.5536">
        <ele>360.1</ele>
        <time>2021-08-19T07:03:10Z</time>
      </trkpt>
      <trkpt lat="44.63811" lon="2.55379">
        <ele>358.5</ele>
        <time>2021-08-19T07:03:12Z</time>
      </trkpt>
      <trkpt lat="44.63803" lon="2.55399">
        <ele>354.2</ele>
        <time>2021-08-19T07:03:14Z</time>
      </trkpt>
      <trkpt lat="44.63793" lon="2.55416">
        <ele>352.2</ele>
        <time>2021-08-19T07:03:16Z</time>
      </trkpt>
      <trkpt lat="44.6378" lon="2.55429">
        <ele>353.1</ele>
        <time>2021-08-19T07:03:18Z</time>
      </trkpt>
      <trkpt lat="44.63764" lon="2.55439">
        <ele>356.1</ele>
        <time>2021-08-19T07:03:20Z</time>
      </trkpt>
      <trkpt lat="44.63749" lon="2.55447">
        <ele>359.1</ele>
        <time>2021-08-19T07:03:22Z</time>
      </trkpt>
      <trkpt lat="44.63734" lon="2.55456">
        <ele>361.5</ele>
        <time>2021-08-19T07:03:24Z</time>
      </trkpt>
      <trkpt lat="44.63722" lon="2.55472">
        <ele>361.4</ele>
        <time>2021-08-19T07:03:26Z</time>
      </trkpt>
      <trkpt lat="44.63715" lon="2.55493">
        <ele>357.8</ele>
        <time>2021-08-19T07:03:28Z</time>
      </trkpt>
      <trkpt lat="44.63711" lon="2.55514">
        <ele>354</ele>
        <time>2021-08-19T07:03:30Z</time>
      </trkpt>
      <trkpt lat="44.63703" lon="2.55535">
        <ele>353.5</ele>
        <time>2021-08-19T07:03:32Z</time>
      </trkpt>
      <trkpt lat="44.63695" lon="2.55557">
        <ele>353.1</ele>
        <time>2021-08-19T07:03:34Z</time>
      </trkpt>
      <trkpt lat="44.63687" lon="2.55575">
        <ele>352.9</ele>
        <time>2021-08-19T07:03:36Z</time>
      </trkpt>
      <trkpt lat="44.63684" lon="2.55595">
        <ele>352.8</ele>
        <time>2021-08-19T07:03:38Z</time>
      </trkpt>
      <trkpt lat="44.63688" lon="2.55615">
        <ele>351.3</ele>
        <time>2021-08-19T07:03:40Z</time>
      </trkpt>
      <trkpt lat="44.63698" lon="2.55632">
        <ele>346.3</ele>
        <time>2021-08-19T07:03:42Z</time>
      </trkpt>
      <trkpt lat="44.63712" lon="2.55644">
        <ele>339.4</ele>
        <time>2021-08-19T07:03:44Z</time>
      </trkpt>
      <trkpt lat="44.63724" lon="2.55651">
        <ele>333.3</ele>
        <time>2021-08-19T07:03:46Z</time>
      </trkpt>
      <trkpt lat="44.63734" lon="2.55662">
        <ele>328.3</ele>
        <time>2021-08-19T07:03:48Z</time>
      </trkpt>
      <trkpt lat="44.6374" lon="2.55677">
        <ele>324.7</ele>
        <time>2021-08-19T07:03:50Z</time>
      </trkpt>
      <trkpt lat="44.63738" lon="2.55699">
        <ele>324.8</ele>
        <time>2021-08-19T07:03:52Z</time>
      </trkpt>
      <trkpt lat="44.63728" lon="2.55718">
        <ele>329.7</ele>
        <time>2021-08-19T07:03:54Z</time>
      </trkpt>
      <trkpt lat="44.63717" lon="2.55735">
        <ele>335.2</ele>
        <time>2021-08-19T07:03:56Z</time>
      </trkpt>
      <trkpt lat="44.63708" lon="2.55755">
        <ele>339.6</ele>
        <time>2021-08-19T07:03:58Z</time>
      </trkpt>
      <trkpt lat="44.63701" lon="2.55775">
        <ele>342.3</ele>
        <time>2021-08-19T07:04:00Z</time>
      </trkpt>
      <trkpt lat="44.63699" lon="2.55797">
        <ele>342.3</ele>
        <time>2021-08-19T07:04:02Z</time>
      </trkpt>
      <trkpt lat="44.63701" lon="2.55816">
        <ele>339.3</ele>
        <time>2021-08-19T07:04:04Z</time>
      </trkpt>
      <trkpt lat="44.63711" lon="2.55834">
        <ele>332</ele>
        <time>2021-08-19T07:04:06Z</time>
      </trkpt>
      <trkpt lat="44.63721" lon="2.5585">
        <ele>326</ele>
        <time>2021-08-19T07:04:08Z</time>
      </trkpt>
      <trkpt lat="44.63728" lon="2.55869">
        <ele>322</ele>
        <time>2021-08-19T07:04:10Z</time>
      </trkpt>
      <trkpt lat="44.63731" lon="2.55888">
        <ele>320.6</ele>
        <time>2021-08-19T07:04:12Z</time>
      </trkpt>
      <trkpt lat="44.6373" lon="2.55907">
        <ele>321.8</ele>
        <time>2021-08-19T07:04:14Z</time>
      </trkpt>
      <trkpt lat="44.63726" lon="2.55926">
        <ele>323.7</ele>
        <time>2021-08-19T07:04:16Z</time>
      </trkpt>
      <trkpt lat="44.6372" lon="2.55943">
        <ele>325.7</ele>
        <time>2021-08-19T07:04:18Z</time>
      </trkpt>
      <trkpt lat="44.63714" lon="2.5596">
        <ele>328</ele>
        <time>2021-08-19T07:04:20Z</time>
      </trkpt>
      <trkpt lat="44.63709" lon="2.55977">
        <ele>329.9</ele>
        <time>2021-08-19T07:04:22Z</time>
      </trkpt>
      <trkpt lat="44.63706" lon="2.55995">
        <ele>331.1</ele>
        <time>2021-08-19T07:04:24Z</time>
      </trkpt>
      <trkpt lat="44.63704" lon="2.56014">
        <ele>331.8</ele>
        <time>2021-08-19T07:04:26Z</time>
      </trkpt>
      <trkpt lat="44.63705" lon="2.56034">
        <ele>330.3</ele>
        <time>2021-08-19T07:04:28Z</time>
      </trkpt>
      <trkpt lat="44.63709" lon="2.56052">
        <ele>327.2</ele>
        <time>2021-08-19T07:04:30Z</time>
      </trkpt>
      <trkpt lat="44.63717" lon="2.56069">
        <ele>321.1</ele>
        <time>2021-08-19T07:04:32Z</time>
      </trkpt>
      <trkpt lat="44.63724" lon="2.56086">
        <ele>315.2</ele>
        <time>2021-08-19T07:04:34Z</time>
      </trkpt>
      <trkpt lat="44.63731" lon="2.561">
        <ele>309.4</ele>
        <time>2021-08-19T07:04:36Z</time>
      </trkpt>
      <trkpt lat="44.63733" lon="2.56115">
        <ele>306.7</ele>
        <time>2021-08-19T07:04:38Z</time>
      </trkpt>
      <trkpt lat="44.6373" lon="2.5613">
        <ele>308.1</ele>
        <time>2021-08-19T07:04:40Z</time>
      </trkpt>
      <trkpt lat="44.63718" lon="2.56139">
        <ele>315.5</ele>
        <time>2021-08-19T07:04:42Z</time>
      </trkpt>
      <trkpt lat="44.63705" lon="2.56146">
        <ele>323.8</ele>
        <time>2021-08-19T07:04:44Z</time>
      </trkpt>
      <trkpt lat="44.63696" lon="2.56161">
        <ele>328.1</ele>
        <time>2021-08-19T07:04:46Z</time>
      </trkpt>
      <trkpt lat="44.63695" lon="2.56182">
        <ele>328.1</ele>
        <time>2021-08-19T07:04:48Z</time>
      </trkpt>
      <trkpt lat="44.63701" lon="2.56202">
        <ele>324.3</ele>
        <time>2021-08-19T07:04:50Z</time>
      </trkpt>
      <trkpt lat="44.6371" lon="2.56219">
        <ele>318.5</ele>
        <time>2021-08-19T07:04:52Z</time>
      </trkpt>
      <trkpt lat="44.63717" lon="2.56237">
        <ele>314.3</ele>
        <time>2021-08-19T07:04:54Z</time>
      </trkpt>
      <trkpt lat="44.63717" lon="2.56259">
        <ele>314.2</ele>
        <time>2021-08-19T07:04:56Z</time>
      </trkpt>
      <trkpt lat="44.63713" lon="2.56281">
        <ele>316.9</ele>
        <time>2021-08-19T07:04:58Z</time>
      </trkpt>
      <trkpt lat="44.63711" lon="2.56301">
        <ele>318.4</ele>
        <time>2021-08-19T07:05:00Z</time>
      </trkpt>
      <trkpt lat="44.63714" lon="2.56322">
        <ele>316.9</ele>
        <time>2021-08-19T07:05:02Z</time>
      </trkpt>
      <trkpt lat="44.63725" lon="2.5634">
        <ele>311.8</ele>
        <time>2021-08-19T07:05:04Z</time>
      </trkpt>
      <trkpt lat="44.63737" lon="2.56356">
        <ele>305.6</ele>
        <time>2021-08-19T07:05:06Z</time>
      </trkpt>
      <trkpt lat="44.63746" lon="2.56375">
        <ele>301.8</ele>
        <time>2021-08-19T07:05:08Z</time>
      </trkpt>
      <trkpt lat="44.6375" lon="2.56399">
        <ele>300.5</ele>
        <time>2021-08-19T07:05:10Z</time>
      </trkpt>
      <trkpt lat="44.63749" lon="2.56424">
        <ele>300.6</ele>
        <time>2021-08-19T07:05:12Z</time>
      </trkpt>
      <trkpt lat="44.63747" lon="2.56449">
        <ele>299.7</ele>
        <time>2021-08-19T07:05:14Z</time>
      </trkpt>
      <trkpt lat="44.63745" lon="2.56474">
        <ele>298.4</ele>
        <time>2021-08-19T07:05:16Z</time>
      </trkpt>
      <trkpt lat="44.63746" lon="2.56499">
        <ele>296</ele>
        <time>2021-08-19T07:05:18Z</time>
      </trkpt>
      <trkpt lat="44.63749" lon="2.56522">
        <ele>293.2</ele>
        <time>2021-08-19T07:05:20Z</time>
      </trkpt>
      <trkpt lat="44.63754" lon="2.56543">
        <ele>290.4</ele>
        <time>2021-08-19T07:05:22Z</time>
      </trkpt>
      <trkpt lat="44.63763" lon="2.56562">
        <ele>287.4</ele>
        <time>2021-08-19T07:05:24Z</time>
      </trkpt>
      <trkpt lat="44.6377" lon="2.56578">
        <ele>285.1</ele>
        <time>2021-08-19T07:05:26Z</time>
      </trkpt>
      <trkpt lat="44.63777" lon="2.56593">
        <ele>282.9</ele>
        <time>2021-08-19T07:05:28Z</time>
      </trkpt>
      <trkpt lat="44.63784" lon="2.5661">
        <ele>281</ele>
        <time>2021-08-19T07:05:30Z</time>
      </trkpt>
      <trkpt lat="44.63787" lon="2.56629">
        <ele>279.9</ele>
        <time>2021-08-19T07:05:32Z</time>
      </trkpt>
      <trkpt lat="44.6379" lon="2.56649">
        <ele>279.3</ele>
        <time>2021-08-19T07:05:34Z</time>
      </trkpt>
      <trkpt lat="44.63792" lon="2.56667">
        <ele>279</ele>
        <time>2021-08-19T07:05:36Z</time>
      </trkpt>
      <trkpt lat="44.63796" lon="2.56686">
        <ele>277</ele>
        <time>2021-08-19T07:05:38Z</time>
      </trkpt>
      <trkpt lat="44.63802" lon="2.56705">
        <ele>275.7</ele>
        <time>2021-08-19T07:05:40Z</time>
      </trkpt>
      <trkpt lat="44.6381" lon="2.56724">
        <ele>275.1</ele>
        <time>2021-08-19T07:05:42Z</time>
      </trkpt>
      <trkpt lat="44.63818" lon="2.56744">
        <ele>275</ele>
        <time>2021-08-19T07:05:44Z</time>
      </trkpt>
      <trkpt lat="44.63824" lon="2.56762">
        <ele>274.1</ele>
        <time>2021-08-19T07:05:46Z</time>
      </trkpt>
      <trkpt lat="44.6383" lon="2.56779">
        <ele>272.4</ele>
        <time>2021-08-19T07:05:48Z</time>
      </trkpt>
      <trkpt lat="44.63834" lon="2.56799">
        <ele>269.9</ele>
        <time>2021-08-19T07:05:50Z</time>
      </trkpt>
      <trkpt lat="44.63836" lon="2.56816">
        <ele>267.1</ele>
        <time>2021-08-19T07:05:52Z</time>
      </trkpt>
      <trkpt lat="44.6384" lon="2.56833">
        <ele>264.5</ele>
        <time>2021-08-19T07:05:54Z</time>
      </trkpt>
      <trkpt lat="44.63851" lon="2.56846">
        <ele>262.3</ele>
        <time>2021-08-19T07:05:56Z</time>
      </trkpt>
      <trkpt lat="44.63865" lon="2.56853">
        <ele>261.6</ele>
        <time>2021-08-19T07:05:58Z</time>
      </trkpt>
      <trkpt lat="44.6388" lon="2.56858">
        <ele>261.7</ele>
        <time>2021-08-19T07:06:00Z</time>
      </trkpt>
      <trkpt lat="44.63896" lon="2.5686">
        <ele>262.4</ele>
        <time>2021-08-19T07:06:02Z</time>
      </trkpt>
      <trkpt lat="44.63912" lon="2.56862">
        <ele>263.3</ele>
        <time>2021-08-19T07:06:04Z</time>
      </trkpt>
      <trkpt lat="44.63928" lon="2.56862">
        <ele>262.3</ele>
        <time>2021-08-19T07:06:06Z</time>
      </trkpt>
      <trkpt lat="44.63944" lon="2.56861">
        <ele>260.8</ele>
        <time>2021-08-19T07:06:08Z</time>
      </trkpt>
      <trkpt lat="44.63959" lon="2.56859">
        <ele>259.6</ele>
        <time>2021-08-19T07:06:10Z</time>
      </trkpt>
      <trkpt lat="44.63973" lon="2.56858">
        <ele>258.5</ele>
        <time>2021-08-19T07:06:12Z</time>
      </trkpt>
      <trkpt lat="44.63986" lon="2.56855">
        <ele>257.8</ele>
        <time>2021-08-19T07:06:14Z</time>
      </trkpt>
      <trkpt lat="44.63999" lon="2.56847">
        <ele>258.3</ele>
        <time>2021-08-19T07:06:16Z</time>
      </trkpt>
      <trkpt lat="44.64009" lon="2.56834">
        <ele>259</ele>
        <time>2021-08-19T07:06:18Z</time>
      </trkpt>
      <trkpt lat="44.6402" lon="2.56821">
        <ele>257.9</ele>
        <time>2021-08-19T07:06:20Z</time>
      </trkpt>
      <trkpt lat="44.64031" lon="2.56806">
        <ele>257</ele>
        <time>2021-08-19T07:06:22Z</time>
      </trkpt>
      <trkpt lat="44.64042" lon="2.56791">
        <ele>256.3</ele>
        <time>2021-08-19T07:06:24Z</time>
      </trkpt>
      <trkpt lat="44.64051" lon="2.56775">
        <ele>256.1</ele>
        <time>2021-08-19T07:06:26Z</time>
      </trkpt>
      <trkpt lat="44.6406" lon="2.56761">
        <ele>256.1</ele>
        <time>2021-08-19T07:06:28Z</time>
      </trkpt>
      <trkpt lat="44.64068" lon="2.56746">
        <ele>256</ele>
        <time>2021-08-19T07:06:30Z</time>
      </trkpt>
      <trkpt lat="44.64076" lon="2.56733">
        <ele>255.1</ele>
        <time>2021-08-19T07:06:32Z</time>
      </trkpt>
      <trkpt lat="44.64084" lon="2.56723">
        <ele>254.3</ele>
        <time>2021-08-19T07:06:34Z</time>
      </trkpt>
      <trkpt lat="44.64095" lon="2.56716">
        <ele>253.2</ele>
        <time>2021-08-19T07:06:36Z</time>
      </trkpt>
      <trkpt lat="44.64108" lon="2.56714">
        <ele>251.9</ele>
        <time>2021-08-19T07:06:38Z</time>
      </trkpt>
      <trkpt lat="44.64122" lon="2.56718">
        <ele>250.3</ele>
        <time>2021-08-19T07:06:40Z</time>
      </trkpt>
      <trkpt lat="44.64134" lon="2.56729">
        <ele>248.6</ele>
        <time>2021-08-19T07:06:42Z</time>
      </trkpt>
      <trkpt lat="44.64143" lon="2.56744">
        <ele>247</ele>
        <time>2021-08-19T07:06:44Z</time>
      </trkpt>
      <trkpt lat="44.64146" lon="2.56762">
        <ele>244.8</ele>
        <time>2021-08-19T07:06:46Z</time>
      </trkpt>
      <trkpt lat="44.64145" lon="2.56781">
        <ele>242.5</ele>
        <time>2021-08-19T07:06:48Z</time>
      </trkpt>
      <trkpt lat="44.6414" lon="2.56799">
        <ele>240.7</ele>
        <time>2021-08-19T07:06:50Z</time>
      </trkpt>
      <trkpt lat="44.64129" lon="2.56808">
        <ele>241</ele>
        <time>2021-08-19T07:06:52Z</time>
      </trkpt>
      <trkpt lat="44.64116" lon="2.56812">
        <ele>242.5</ele>
        <time>2021-08-19T07:06:54Z</time>
      </trkpt>
      <trkpt lat="44.64104" lon="2.56817">
        <ele>243.7</ele>
        <time>2021-08-19T07:06:56Z</time>
      </trkpt>
      <trkpt lat="44.64091" lon="2.56825">
        <ele>244.8</ele>
        <time>2021-08-19T07:06:58Z</time>
      </trkpt>
      <trkpt lat="44.64079" lon="2.56834">
        <ele>245.8</ele>
        <time>2021-08-19T07:07:00Z</time>
      </trkpt>
      <trkpt lat="44.64069" lon="2.56845">
        <ele>245.8</ele>
        <time>2021-08-19T07:07:02Z</time>
      </trkpt>
      <trkpt lat="44.64061" lon="2.56857">
        <ele>245.2</ele>
        <time>2021-08-19T07:07:04Z</time>
      </trkpt>
      <trkpt lat="44.64052" lon="2.56869">
        <ele>244.6</ele>
        <time>2021-08-19T07:07:06Z</time>
      </trkpt>
      <trkpt lat="44.64045" lon="2.56881">
        <ele>243.6</ele>
        <time>2021-08-19T07:07:08Z</time>
      </trkpt>
      <trkpt lat="44.64037" lon="2.56892">
        <ele>242.8</ele>
        <time>2021-08-19T07:07:10Z</time>
      </trkpt>
      <trkpt lat="44.6403" lon="2.56902">
        <ele>241.8</ele>
        <time>2021-08-19T07:07:12Z</time>
      </trkpt>
      <trkpt lat="44.64022" lon="2.56912">
        <ele>241</ele>
        <time>2021-08-19T07:07:14Z</time>
      </trkpt>
      <trkpt lat="44.64013" lon="2.56921">
        <ele>240.7</ele>
        <time>2021-08-19T07:07:16Z</time>
      </trkpt>
      <trkpt lat="44.64005" lon="2.56927">
        <ele>240.7</ele>
        <time>2021-08-19T07:07:18Z</time>
      </trkpt>
      <trkpt lat="44.64" lon="2.56931">
        <ele>240.6</ele>
        <time>2021-08-19T07:07:20Z</time>
      </trkpt>
      <trkpt lat="44.63998" lon="2.56935">
        <ele>240.2</ele>
        <time>2021-08-19T07:07:22Z</time>
      </trkpt>
      <trkpt lat="44.63998" lon="2.56935">
        <ele>240.2</ele>
        <time>2021-08-19T07:07:24Z</time>
      </trkpt>
      <trkpt lat="44.63998" lon="2.56935">
        <ele>240.2</ele>
        <time>2021-08-19T07:07:26Z</time>
      </trkpt>
      <trkpt lat="44.63998" lon="2.56935">
        <ele>240.2</ele>
        <time>2021-08-19T07:07:28Z</time>
      </trkpt>
      <trkpt lat="44.63998" lon="2.56935">
        <ele>240.1</ele>
        <time>2021-08-19T07:07:30Z</time>
      </trkpt>
      <trkpt lat="44.64002" lon="2.56969">
        <ele>234.1</ele>
        <time>2021-08-19T07:09:46Z</time>
      </trkpt>
      <trkpt lat="44.64004" lon="2.56976">
        <ele>233</ele>
        <time>2021-08-19T07:09:48Z</time>
      </trkpt>
      <trkpt lat="44.64006" lon="2.56982">
        <ele>232</ele>
        <time>2021-08-19T07:09:50Z</time>
      </trkpt>
      <trkpt lat="44.64009" lon="2.56988">
        <ele>231.1</ele>
        <time>2021-08-19T07:09:52Z</time>
      </trkpt>
      <trkpt lat="44.64011" lon="2.56995">
        <ele>230.2</ele>
        <time>2021-08-19T07:09:54Z</time>
      </trkpt>
      <trkpt lat="44.64012" lon="2.57001">
        <ele>229.6</ele>
        <time>2021-08-19T07:09:56Z</time>
      </trkpt>
      <trkpt lat="44.64013" lon="2.57007">
        <ele>230.5</ele>
        <time>2021-08-19T07:09:58Z</time>
      </trkpt>
      <trkpt lat="44.64015" lon="2.57013">
        <ele>231.4</ele>
        <time>2021-08-19T07:10:00Z</time>
      </trkpt>
      <trkpt lat="44.64017" lon="2.57019">
        <ele>232.4</ele>
        <time>2021-08-19T07:10:02Z</time>
      </trkpt>
      <trkpt lat="44.64019" lon="2.57025">
        <ele>233.4</ele>
        <time>2021-08-19T07:10:04Z</time>
      </trkpt>
      <trkpt lat="44.6402" lon="2.57033">
        <ele>234.6</ele>
        <time>2021-08-19T07:10:06Z</time>
      </trkpt>
      <trkpt lat="44.64022" lon="2.57041">
        <ele>236</ele>
        <time>2021-08-19T07:10:08Z</time>
      </trkpt>
      <trkpt lat="44.64025" lon="2.57051">
        <ele>237.7</ele>
        <time>2021-08-19T07:10:10Z</time>
      </trkpt>
      <trkpt lat="44.64027" lon="2.57059">
        <ele>239.1</ele>
        <time>2021-08-19T07:10:12Z</time>
      </trkpt>
      <trkpt lat="44.64028" lon="2.57065">
        <ele>240.2</ele>
        <time>2021-08-19T07:10:14Z</time>
      </trkpt>
      <trkpt lat="44.64028" lon="2.57072">
        <ele>241.2</ele>
        <time>2021-08-19T07:10:16Z</time>
      </trkpt>
      <trkpt lat="44.64032" lon="2.57079">
        <ele>242.7</ele>
        <time>2021-08-19T07:10:18Z</time>
      </trkpt>
      <trkpt lat="44.6404" lon="2.57079">
        <ele>243.5</ele>
        <time>2021-08-19T07:10:20Z</time>
      </trkpt>
      <trkpt lat="44.64048" lon="2.57075">
        <ele>243.7</ele>
        <time>2021-08-19T07:10:22Z</time>
      </trkpt>
      <trkpt lat="44.64054" lon="2.57071">
        <ele>243.7</ele>
        <time>2021-08-19T07:10:24Z</time>
      </trkpt>
      <trkpt lat="44.64061" lon="2.57067">
        <ele>243.6</ele>
        <time>2021-08-19T07:10:26Z</time>
      </trkpt>
      <trkpt lat="44.64068" lon="2.57063">
        <ele>243.5</ele>
        <time>2021-08-19T07:10:28Z</time>
      </trkpt>
      <trkpt lat="44.64075" lon="2.57057">
        <ele>243</ele>
        <time>2021-08-19T07:10:30Z</time>
      </trkpt>
      <trkpt lat="44.64082" lon="2.57049">
        <ele>241.9</ele>
        <time>2021-08-19T07:10:32Z</time>
      </trkpt>
      <trkpt lat="44.64089" lon="2.5704">
        <ele>240.2</ele>
        <time>2021-08-19T07:10:34Z</time>
      </trkpt>
      <trkpt lat="44.64096" lon="2.57032">
        <ele>238.8</ele>
        <time>2021-08-19T07:10:36Z</time>
      </trkpt>
      <trkpt lat="44.64104" lon="2.57022">
        <ele>237.3</ele>
        <time>2021-08-19T07:10:38Z</time>
      </trkpt>
      <trkpt lat="44.64112" lon="2.57012">
        <ele>235.8</ele>
        <time>2021-08-19T07:10:40Z</time>
      </trkpt>
      <trkpt lat="44.64121" lon="2.57002">
        <ele>234.7</ele>
        <time>2021-08-19T07:10:42Z</time>
      </trkpt>
      <trkpt lat="44.64129" lon="2.56993">
        <ele>234.3</ele>
        <time>2021-08-19T07:10:44Z</time>
      </trkpt>
      <trkpt lat="44.64138" lon="2.56984">
        <ele>234.2</ele>
        <time>2021-08-19T07:10:46Z</time>
      </trkpt>
      <trkpt lat="44.64148" lon="2.56977">
        <ele>233.9</ele>
        <time>2021-08-19T07:10:48Z</time>
      </trkpt>
      <trkpt lat="44.64157" lon="2.56969">
        <ele>233.4</ele>
        <time>2021-08-19T07:10:50Z</time>
      </trkpt>
      <trkpt lat="44.64166" lon="2.5696">
        <ele>232.7</ele>
        <time>2021-08-19T07:10:52Z</time>
      </trkpt>
      <trkpt lat="44.64175" lon="2.5695">
        <ele>233.4</ele>
        <time>2021-08-19T07:10:54Z</time>
      </trkpt>
      <trkpt lat="44.64184" lon="2.56939">
        <ele>233.8</ele>
        <time>2021-08-19T07:10:56Z</time>
      </trkpt>
      <trkpt lat="44.64193" lon="2.56926">
        <ele>233.7</ele>
        <time>2021-08-19T07:10:58Z</time>
      </trkpt>
      <trkpt lat="44.64202" lon="2.56913">
        <ele>233.9</ele>
        <time>2021-08-19T07:11:00Z</time>
      </trkpt>
      <trkpt lat="44.6421" lon="2.56901">
        <ele>234.9</ele>
        <time>2021-08-19T07:11:02Z</time>
      </trkpt>
      <trkpt lat="44.64218" lon="2.56888">
        <ele>235.5</ele>
        <time>2021-08-19T07:11:04Z</time>
      </trkpt>
      <trkpt lat="44.64226" lon="2.56875">
        <ele>235.7</ele>
        <time>2021-08-19T07:11:06Z</time>
      </trkpt>
      <trkpt lat="44.64234" lon="2.56863">
        <ele>235.6</ele>
        <time>2021-08-19T07:11:08Z</time>
      </trkpt>
      <trkpt lat="44.64241" lon="2.56851">
        <ele>235.2</ele>
        <time>2021-08-19T07:11:10Z</time>
      </trkpt>
      <trkpt lat="44.64249" lon="2.56839">
        <ele>234.5</ele>
        <time>2021-08-19T07:11:12Z</time>
      </trkpt>
      <trkpt lat="44.64256" lon="2.56827">
        <ele>235.1</ele>
        <time>2021-08-19T07:11:14Z</time>
      </trkpt>
      <trkpt lat="44.64264" lon="2.56815">
        <ele>236</ele>
        <time>2021-08-19T07:11:16Z</time>
      </trkpt>
      <trkpt lat="44.64271" lon="2.56803">
        <ele>236.4</ele>
        <time>2021-08-19T07:11:18Z</time>
      </trkpt>
      <trkpt lat="44.64279" lon="2.56792">
        <ele>236.4</ele>
        <time>2021-08-19T07:11:20Z</time>
      </trkpt>
      <trkpt lat="44.64286" lon="2.56781">
        <ele>236</ele>
        <time>2021-08-19T07:11:22Z</time>
      </trkpt>
      <trkpt lat="44.64294" lon="2.56769">
        <ele>235.2</ele>
        <time>2021-08-19T07:11:24Z</time>
      </trkpt>
      <trkpt lat="44.64301" lon="2.56758">
        <ele>233.8</ele>
        <time>2021-08-19T07:11:26Z</time>
      </trkpt>
      <trkpt lat="44.64309" lon="2.56747">
        <ele>232.5</ele>
        <time>2021-08-19T07:11:28Z</time>
      </trkpt>
      <trkpt lat="44.64317" lon="2.56735">
        <ele>232.2</ele>
        <time>2021-08-19T07:11:30Z</time>
      </trkpt>
      <trkpt lat="44.64324" lon="2.56724">
        <ele>231.8</ele>
        <time>2021-08-19T07:11:32Z</time>
      </trkpt>
      <trkpt lat="44.6433" lon="2.56712">
        <ele>231.6</ele>
        <time>2021-08-19T07:11:34Z</time>
      </trkpt>
      <trkpt lat="44.64337" lon="2.567">
        <ele>231.7</ele>
        <time>2021-08-19T07:11:36Z</time>
      </trkpt>
      <trkpt lat="44.64344" lon="2.56689">
        <ele>232.1</ele>
        <time>2021-08-19T07:11:38Z</time>
      </trkpt>
      <trkpt lat="44.6435" lon="2.56677">
        <ele>232.3</ele>
        <time>2021-08-19T07:11:40Z</time>
      </trkpt>
      <trkpt lat="44.64355" lon="2.56665">
        <ele>232.3</ele>
        <time>2021-08-19T07:11:42Z</time>
      </trkpt>
      <trkpt lat="44.64361" lon="2.56654">
        <ele>232</ele>
        <time>2021-08-19T07:11:44Z</time>
      </trkpt>
      <trkpt lat="44.64366" lon="2.56643">
        <ele>231.8</ele>
        <time>2021-08-19T07:11:46Z</time>
      </trkpt>
      <trkpt lat="44.64371" lon="2.56632">
        <ele>231.6</ele>
        <time>2021-08-19T07:11:48Z</time>
      </trkpt>
      <trkpt lat="44.64376" lon="2.56621">
        <ele>231.4</ele>
        <time>2021-08-19T07:11:50Z</time>
      </trkpt>
      <trkpt lat="44.64381" lon="2.56609">
        <ele>231.1</ele>
        <time>2021-08-19T07:11:52Z</time>
      </trkpt>
      <trkpt lat="44.64385" lon="2.56598">
        <ele>230.8</ele>
        <time>2021-08-19T07:11:54Z</time>
      </trkpt>
      <trkpt lat="44.64389" lon="2.56586">
        <ele>230.5</ele>
        <time>2021-08-19T07:11:56Z</time>
      </trkpt>
      <trkpt lat="44.64393" lon="2.56574">
        <ele>230.6</ele>
        <time>2021-08-19T07:11:58Z</time>
      </trkpt>
      <trkpt lat="44.64397" lon="2.56565">
        <ele>230.8</ele>
        <time>2021-08-19T07:12:00Z</time>
      </trkpt>
      <trkpt lat="44.64401" lon="2.56559">
        <ele>231.2</ele>
        <time>2021-08-19T07:12:02Z</time>
      </trkpt>
      <trkpt lat="44.64405" lon="2.56558">
        <ele>231.4</ele>
        <time>2021-08-19T07:12:04Z</time>
      </trkpt>
      <trkpt lat="44.64409" lon="2.56559">
        <ele>231.7</ele>
        <time>2021-08-19T07:12:06Z</time>
      </trkpt>
      <trkpt lat="44.64412" lon="2.56565">
        <ele>231.9</ele>
        <time>2021-08-19T07:12:08Z</time>
      </trkpt>
      <trkpt lat="44.64415" lon="2.5657">
        <ele>232.1</ele>
        <time>2021-08-19T07:12:10Z</time>
      </trkpt>
      <trkpt lat="44.64419" lon="2.56573">
        <ele>232.2</ele>
        <time>2021-08-19T07:12:12Z</time>
      </trkpt>
      <trkpt lat="44.64423" lon="2.56575">
        <ele>232.3</ele>
        <time>2021-08-19T07:12:14Z</time>
      </trkpt>
      <trkpt lat="44.64428" lon="2.56575">
        <ele>232.5</ele>
        <time>2021-08-19T07:12:16Z</time>
      </trkpt>
      <trkpt lat="44.64432" lon="2.56574">
        <ele>232.6</ele>
        <time>2021-08-19T07:12:18Z</time>
      </trkpt>
      <trkpt lat="44.64436" lon="2.56573">
        <ele>232.8</ele>
        <time>2021-08-19T07:12:20Z</time>
      </trkpt>
      <trkpt lat="44.6444" lon="2.56571">
        <ele>232.9</ele>
        <time>2021-08-19T07:12:22Z</time>
      </trkpt>
      <trkpt lat="44.64444" lon="2.5657">
        <ele>233.1</ele>
        <time>2021-08-19T07:12:24Z</time>
      </trkpt>
      <trkpt lat="44.64448" lon="2.56569">
        <ele>233.2</ele>
        <time>2021-08-19T07:12:26Z</time>
      </trkpt>
      <trkpt lat="44.64452" lon="2.56567">
        <ele>233.4</ele>
        <time>2021-08-19T07:12:28Z</time>
      </trkpt>
      <trkpt lat="44.64456" lon="2.56566">
        <ele>233.5</ele>
        <time>2021-08-19T07:12:30Z</time>
      </trkpt>
      <trkpt lat="44.6446" lon="2.56565">
        <ele>233.7</ele>
        <time>2021-08-19T07:12:32Z</time>
      </trkpt>
      <trkpt lat="44.64465" lon="2.56564">
        <ele>233.8</ele>
        <time>2021-08-19T07:12:34Z</time>
      </trkpt>
      <trkpt lat="44.6447" lon="2.56562">
        <ele>234</ele>
        <time>2021-08-19T07:12:36Z</time>
      </trkpt>
      <trkpt lat="44.64476" lon="2.5656">
        <ele>234.2</ele>
        <time>2021-08-19T07:12:38Z</time>
      </trkpt>
      <trkpt lat="44.64481" lon="2.56559">
        <ele>234.4</ele>
        <time>2021-08-19T07:12:40Z</time>
      </trkpt>
      <trkpt lat="44.64487" lon="2.56558">
        <ele>234.6</ele>
        <time>2021-08-19T07:12:42Z</time>
      </trkpt>
      <trkpt lat="44.64493" lon="2.56556">
        <ele>234.8</ele>
        <time>2021-08-19T07:12:44Z</time>
      </trkpt>
      <trkpt lat="44.64499" lon="2.56555">
        <ele>235</ele>
        <time>2021-08-19T07:12:46Z</time>
      </trkpt>
      <trkpt lat="44.64505" lon="2.56553">
        <ele>234.9</ele>
        <time>2021-08-19T07:12:48Z</time>
      </trkpt>
      <trkpt lat="44.64511" lon="2.56551">
        <ele>234.8</ele>
        <time>2021-08-19T07:12:50Z</time>
      </trkpt>
      <trkpt lat="44.64517" lon="2.5655">
        <ele>234.7</ele>
        <time>2021-08-19T07:12:52Z</time>
      </trkpt>
      <trkpt lat="44.64524" lon="2.56549">
        <ele>234.6</ele>
        <time>2021-08-19T07:12:54Z</time>
      </trkpt>
      <trkpt lat="44.64531" lon="2.56547">
        <ele>234.5</ele>
        <time>2021-08-19T07:12:56Z</time>
      </trkpt>
      <trkpt lat="44.64537" lon="2.56546">
        <ele>234.4</ele>
        <time>2021-08-19T07:12:58Z</time>
      </trkpt>
      <trkpt lat="44.64543" lon="2.56546">
        <ele>234.2</ele>
        <time>2021-08-19T07:13:00Z</time>
      </trkpt>
      <trkpt lat="44.6455" lon="2.56544">
        <ele>234.1</ele>
        <time>2021-08-19T07:13:02Z</time>
      </trkpt>
      <trkpt lat="44.64556" lon="2.56542">
        <ele>234</ele>
        <time>2021-08-19T07:13:04Z</time>
      </trkpt>
      <trkpt lat="44.64563" lon="2.56541">
        <ele>233.9</ele>
        <time>2021-08-19T07:13:06Z</time>
      </trkpt>
      <trkpt lat="44.64569" lon="2.56539">
        <ele>233.7</ele>
        <time>2021-08-19T07:13:08Z</time>
      </trkpt>
      <trkpt lat="44.64575" lon="2.56537">
        <ele>233.6</ele>
        <time>2021-08-19T07:13:10Z</time>
      </trkpt>
      <trkpt lat="44.64582" lon="2.56538">
        <ele>233.5</ele>
        <time>2021-08-19T07:13:12Z</time>
      </trkpt>
      <trkpt lat="44.64588" lon="2.56539">
        <ele>233.3</ele>
        <time>2021-08-19T07:13:14Z</time>
      </trkpt>
      <trkpt lat="44.64592" lon="2.56539">
        <ele>233.2</ele>
        <time>2021-08-19T07:13:16Z</time>
      </trkpt>
      <trkpt lat="44.64595" lon="2.56535">
        <ele>233.1</ele>
        <time>2021-08-19T07:13:18Z</time>
      </trkpt>
      <trkpt lat="44.64596" lon="2.56532">
        <ele>233</ele>
        <time>2021-08-19T07:13:20Z</time>
      </trkpt>
      <trkpt lat="44.64599" lon="2.56529">
        <ele>232.8</ele>
        <time>2021-08-19T07:13:22Z</time>
      </trkpt>
      <trkpt lat="44.64601" lon="2.56528">
        <ele>232.8</ele>
        <time>2021-08-19T07:13:24Z</time>
      </trkpt>
      <trkpt lat="44.646" lon="2.56524">
        <ele>232.7</ele>
        <time>2021-08-19T07:13:26Z</time>
      </trkpt>
      <trkpt lat="44.64599" lon="2.56523">
        <ele>232.8</ele>
        <time>2021-08-19T07:13:28Z</time>
      </trkpt>
      <trkpt lat="44.64599" lon="2.56523">
        <ele>232.8</ele>
        <time>2021-08-19T07:13:30Z</time>
      </trkpt>
      <trkpt lat="44.64599" lon="2.56523">
        <ele>232.8</ele>
        <time>2021-08-19T07:13:32Z</time>
      </trkpt>
      <trkpt lat="44.64595" lon="2.56524">
        <ele>232.9</ele>
        <time>2021-08-19T07:52:13Z</time>
      </trkpt>
      <trkpt lat="44.64596" lon="2.56518">
        <ele>232.8</ele>
        <time>2021-08-19T07:52:15Z</time>
      </trkpt>
      <trkpt lat="44.64597" lon="2.56512">
        <ele>232.7</ele>
        <time>2021-08-19T07:52:17Z</time>
      </trkpt>
      <trkpt lat="44.64599" lon="2.56505">
        <ele>232.5</ele>
        <time>2021-08-19T07:52:19Z</time>
      </trkpt>
      <trkpt lat="44.64601" lon="2.56499">
        <ele>232.3</ele>
        <time>2021-08-19T07:52:21Z</time>
      </trkpt>
      <trkpt lat="44.64605" lon="2.56496">
        <ele>232.1</ele>
        <time>2021-08-19T07:52:23Z</time>
      </trkpt>
      <trkpt lat="44.6461" lon="2.56498">
        <ele>232</ele>
        <time>2021-08-19T07:52:25Z</time>
      </trkpt>
      <trkpt lat="44.64614" lon="2.56499">
        <ele>231.9</ele>
        <time>2021-08-19T07:52:27Z</time>
      </trkpt>
      <trkpt lat="44.6462" lon="2.565">
        <ele>231.7</ele>
        <time>2021-08-19T07:52:29Z</time>
      </trkpt>
      <trkpt lat="44.64623" lon="2.56502">
        <ele>231.6</ele>
        <time>2021-08-19T07:52:31Z</time>
      </trkpt>
      <trkpt lat="44.64627" lon="2.56504">
        <ele>231.5</ele>
        <time>2021-08-19T07:52:33Z</time>
      </trkpt>
      <trkpt lat="44.64632" lon="2.56505">
        <ele>231.4</ele>
        <time>2021-08-19T07:52:35Z</time>
      </trkpt>
      <trkpt lat="44.64636" lon="2.56508">
        <ele>231.2</ele>
        <time>2021-08-19T07:52:37Z</time>
      </trkpt>
      <trkpt lat="44.64641" lon="2.5651">
        <ele>231.1</ele>
        <time>2021-08-19T07:52:39Z</time>
      </trkpt>
      <trkpt lat="44.64647" lon="2.56514">
        <ele>231</ele>
        <time>2021-08-19T07:52:41Z</time>
      </trkpt>
      <trkpt lat="44.64652" lon="2.56517">
        <ele>230.9</ele>
        <time>2021-08-19T07:52:43Z</time>
      </trkpt>
      <trkpt lat="44.64658" lon="2.56519">
        <ele>230.8</ele>
        <time>2021-08-19T07:52:45Z</time>
      </trkpt>
      <trkpt lat="44.64664" lon="2.56523">
        <ele>230.6</ele>
        <time>2021-08-19T07:52:47Z</time>
      </trkpt>
      <trkpt lat="44.64668" lon="2.56526">
        <ele>230.6</ele>
        <time>2021-08-19T07:52:49Z</time>
      </trkpt>
      <trkpt lat="44.64675" lon="2.56528">
        <ele>230.5</ele>
        <time>2021-08-19T07:52:51Z</time>
      </trkpt>
      <trkpt lat="44.64681" lon="2.56531">
        <ele>230.5</ele>
        <time>2021-08-19T07:52:53Z</time>
      </trkpt>
      <trkpt lat="44.64687" lon="2.56536">
        <ele>230.5</ele>
        <time>2021-08-19T07:52:55Z</time>
      </trkpt>
      <trkpt lat="44.64693" lon="2.56539">
        <ele>230.5</ele>
        <time>2021-08-19T07:52:57Z</time>
      </trkpt>
      <trkpt lat="44.647" lon="2.56544">
        <ele>230.5</ele>
        <time>2021-08-19T07:52:59Z</time>
      </trkpt>
      <trkpt lat="44.64707" lon="2.56548">
        <ele>230.4</ele>
        <time>2021-08-19T07:53:01Z</time>
      </trkpt>
      <trkpt lat="44.64715" lon="2.56553">
        <ele>230.5</ele>
        <time>2021-08-19T07:53:03Z</time>
      </trkpt>
      <trkpt lat="44.64722" lon="2.56557">
        <ele>230.5</ele>
        <time>2021-08-19T07:53:05Z</time>
      </trkpt>
      <trkpt lat="44.64729" lon="2.56562">
        <ele>230.5</ele>
        <time>2021-08-19T07:53:07Z</time>
      </trkpt>
      <trkpt lat="44.64736" lon="2.56566">
        <ele>230.6</ele>
        <time>2021-08-19T07:53:09Z</time>
      </trkpt>
      <trkpt lat="44.64743" lon="2.56572">
        <ele>230.7</ele>
        <time>2021-08-19T07:53:11Z</time>
      </trkpt>
      <trkpt lat="44.6475" lon="2.56577">
        <ele>230.8</ele>
        <time>2021-08-19T07:53:13Z</time>
      </trkpt>
      <trkpt lat="44.64757" lon="2.56582">
        <ele>230.8</ele>
        <time>2021-08-19T07:53:15Z</time>
      </trkpt>
      <trkpt lat="44.64764" lon="2.56587">
        <ele>230.8</ele>
        <time>2021-08-19T07:53:17Z</time>
      </trkpt>
      <trkpt lat="44.6477" lon="2.56592">
        <ele>230.9</ele>
        <time>2021-08-19T07:53:19Z</time>
      </trkpt>
      <trkpt lat="44.64777" lon="2.56596">
        <ele>230.9</ele>
        <time>2021-08-19T07:53:21Z</time>
      </trkpt>
      <trkpt lat="44.64783" lon="2.56601">
        <ele>230.9</ele>
        <time>2021-08-19T07:53:23Z</time>
      </trkpt>
      <trkpt lat="44.6479" lon="2.56607">
        <ele>230.9</ele>
        <time>2021-08-19T07:53:25Z</time>
      </trkpt>
      <trkpt lat="44.64797" lon="2.56612">
        <ele>230.8</ele>
        <time>2021-08-19T07:53:27Z</time>
      </trkpt>
      <trkpt lat="44.64804" lon="2.56617">
        <ele>230.7</ele>
        <time>2021-08-19T07:53:29Z</time>
      </trkpt>
      <trkpt lat="44.6481" lon="2.56619">
        <ele>230.5</ele>
        <time>2021-08-19T07:53:31Z</time>
      </trkpt>
      <trkpt lat="44.64817" lon="2.56626">
        <ele>230.3</ele>
        <time>2021-08-19T07:53:33Z</time>
      </trkpt>
      <trkpt lat="44.64824" lon="2.5663">
        <ele>230</ele>
        <time>2021-08-19T07:53:35Z</time>
      </trkpt>
      <trkpt lat="44.64832" lon="2.56636">
        <ele>229.7</ele>
        <time>2021-08-19T07:53:37Z</time>
      </trkpt>
      <trkpt lat="44.64839" lon="2.56642">
        <ele>230</ele>
        <time>2021-08-19T07:53:39Z</time>
      </trkpt>
      <trkpt lat="44.64847" lon="2.56647">
        <ele>230.3</ele>
        <time>2021-08-19T07:53:41Z</time>
      </trkpt>
      <trkpt lat="44.64854" lon="2.56653">
        <ele>230.4</ele>
        <time>2021-08-19T07:53:43Z</time>
      </trkpt>
      <trkpt lat="44.64861" lon="2.56659">
        <ele>230.5</ele>
        <time>2021-08-19T07:53:45Z</time>
      </trkpt>
      <trkpt lat="44.64867" lon="2.56665">
        <ele>230.5</ele>
        <time>2021-08-19T07:53:47Z</time>
      </trkpt>
      <trkpt lat="44.64875" lon="2.5667">
        <ele>230.8</ele>
        <time>2021-08-19T07:53:49Z</time>
      </trkpt>
      <trkpt lat="44.64882" lon="2.56676">
        <ele>231.2</ele>
        <time>2021-08-19T07:53:51Z</time>
      </trkpt>
      <trkpt lat="44.64889" lon="2.56682">
        <ele>231.6</ele>
        <time>2021-08-19T07:53:53Z</time>
      </trkpt>
      <trkpt lat="44.64896" lon="2.56689">
        <ele>232</ele>
        <time>2021-08-19T07:53:55Z</time>
      </trkpt>
      <trkpt lat="44.64903" lon="2.56695">
        <ele>232.2</ele>
        <time>2021-08-19T07:53:57Z</time>
      </trkpt>
      <trkpt lat="44.64908" lon="2.56702">
        <ele>232.4</ele>
        <time>2021-08-19T07:53:59Z</time>
      </trkpt>
      <trkpt lat="44.64913" lon="2.56708">
        <ele>232.6</ele>
        <time>2021-08-19T07:54:01Z</time>
      </trkpt>
      <trkpt lat="44.64916" lon="2.56713">
        <ele>232.7</ele>
        <time>2021-08-19T07:54:03Z</time>
      </trkpt>
      <trkpt lat="44.64918" lon="2.56716">
        <ele>232.7</ele>
        <time>2021-08-19T07:54:05Z</time>
      </trkpt>
      <trkpt lat="44.6492" lon="2.5672">
        <ele>232.8</ele>
        <time>2021-08-19T07:54:07Z</time>
      </trkpt>
      <trkpt lat="44.64922" lon="2.56726">
        <ele>232.9</ele>
        <time>2021-08-19T07:54:09Z</time>
      </trkpt>
      <trkpt lat="44.64919" lon="2.56731">
        <ele>233.2</ele>
        <time>2021-08-19T07:54:11Z</time>
      </trkpt>
      <trkpt lat="44.64916" lon="2.56734">
        <ele>233.4</ele>
        <time>2021-08-19T07:54:13Z</time>
      </trkpt>
      <trkpt lat="44.64914" lon="2.56735">
        <ele>233.6</ele>
        <time>2021-08-19T07:54:15Z</time>
      </trkpt>
      <trkpt lat="44.64912" lon="2.56738">
        <ele>233.8</ele>
        <time>2021-08-19T07:54:17Z</time>
      </trkpt>
      <trkpt lat="44.64911" lon="2.56741">
        <ele>234</ele>
        <time>2021-08-19T07:54:19Z</time>
      </trkpt>
      <trkpt lat="44.64909" lon="2.56745">
        <ele>234.2</ele>
        <time>2021-08-19T07:54:21Z</time>
      </trkpt>
      <trkpt lat="44.64908" lon="2.56749">
        <ele>234.5</ele>
        <time>2021-08-19T07:54:23Z</time>
      </trkpt>
      <trkpt lat="44.64983" lon="2.56683">
        <ele>231.8</ele>
        <time>2021-08-19T07:55:11Z</time>
      </trkpt>
      <trkpt lat="44.64986" lon="2.56678">
        <ele>232</ele>
        <time>2021-08-19T07:55:13Z</time>
      </trkpt>
      <trkpt lat="44.6499" lon="2.56675">
        <ele>232.3</ele>
        <time>2021-08-19T07:55:15Z</time>
      </trkpt>
      <trkpt lat="44.64994" lon="2.5667">
        <ele>232.6</ele>
        <time>2021-08-19T07:55:17Z</time>
      </trkpt>
      <trkpt lat="44.64997" lon="2.56667">
        <ele>232.9</ele>
        <time>2021-08-19T07:55:19Z</time>
      </trkpt>
      <trkpt lat="44.65" lon="2.56663">
        <ele>234.1</ele>
        <time>2021-08-19T07:55:21Z</time>
      </trkpt>
      <trkpt lat="44.65004" lon="2.56663">
        <ele>235.1</ele>
        <time>2021-08-19T07:55:23Z</time>
      </trkpt>
      <trkpt lat="44.65008" lon="2.56668">
        <ele>234.9</ele>
        <time>2021-08-19T07:55:25Z</time>
      </trkpt>
      <trkpt lat="44.65012" lon="2.56675">
        <ele>235.2</ele>
        <time>2021-08-19T07:55:27Z</time>
      </trkpt>
      <trkpt lat="44.65017" lon="2.56684">
        <ele>235.8</ele>
        <time>2021-08-19T07:55:29Z</time>
      </trkpt>
      <trkpt lat="44.65024" lon="2.56695">
        <ele>236.3</ele>
        <time>2021-08-19T07:55:31Z</time>
      </trkpt>
      <trkpt lat="44.65032" lon="2.56707">
        <ele>236.6</ele>
        <time>2021-08-19T07:55:33Z</time>
      </trkpt>
      <trkpt lat="44.6504" lon="2.56719">
        <ele>236.9</ele>
        <time>2021-08-19T07:55:35Z</time>
      </trkpt>
      <trkpt lat="44.65048" lon="2.56731">
        <ele>237</ele>
        <time>2021-08-19T07:55:37Z</time>
      </trkpt>
      <trkpt lat="44.65057" lon="2.56743">
        <ele>236.9</ele>
        <time>2021-08-19T07:55:39Z</time>
      </trkpt>
      <trkpt lat="44.65066" lon="2.56754">
        <ele>236.9</ele>
        <time>2021-08-19T07:55:41Z</time>
      </trkpt>
      <trkpt lat="44.65075" lon="2.56765">
        <ele>237</ele>
        <time>2021-08-19T07:55:43Z</time>
      </trkpt>
      <trkpt lat="44.65083" lon="2.56776">
        <ele>236.6</ele>
        <time>2021-08-19T07:55:45Z</time>
      </trkpt>
      <trkpt lat="44.65091" lon="2.56787">
        <ele>238</ele>
        <time>2021-08-19T07:55:47Z</time>
      </trkpt>
      <trkpt lat="44.65099" lon="2.56797">
        <ele>239.5</ele>
        <time>2021-08-19T07:55:49Z</time>
      </trkpt>
      <trkpt lat="44.65106" lon="2.56807">
        <ele>240.8</ele>
        <time>2021-08-19T07:55:51Z</time>
      </trkpt>
      <trkpt lat="44.65113" lon="2.56818">
        <ele>241.7</ele>
        <time>2021-08-19T07:55:53Z</time>
      </trkpt>
      <trkpt lat="44.65119" lon="2.56826">
        <ele>242.4</ele>
        <time>2021-08-19T07:55:55Z</time>
      </trkpt>
      <trkpt lat="44.65123" lon="2.56835">
        <ele>242.9</ele>
        <time>2021-08-19T07:55:57Z</time>
      </trkpt>
      <trkpt lat="44.65128" lon="2.56843">
        <ele>243.9</ele>
        <time>2021-08-19T07:55:59Z</time>
      </trkpt>
      <trkpt lat="44.65133" lon="2.5685">
        <ele>244.9</ele>
        <time>2021-08-19T07:56:01Z</time>
      </trkpt>
      <trkpt lat="44.65138" lon="2.56857">
        <ele>245.6</ele>
        <time>2021-08-19T07:56:03Z</time>
      </trkpt>
      <trkpt lat="44.65143" lon="2.56864">
        <ele>246.1</ele>
        <time>2021-08-19T07:56:05Z</time>
      </trkpt>
      <trkpt lat="44.65147" lon="2.56871">
        <ele>246.4</ele>
        <time>2021-08-19T07:56:07Z</time>
      </trkpt>
      <trkpt lat="44.65151" lon="2.56877">
        <ele>246.5</ele>
        <time>2021-08-19T07:56:09Z</time>
      </trkpt>
      <trkpt lat="44.65155" lon="2.56884">
        <ele>246.4</ele>
        <time>2021-08-19T07:56:11Z</time>
      </trkpt>
      <trkpt lat="44.65159" lon="2.56891">
        <ele>246.2</ele>
        <time>2021-08-19T07:56:13Z</time>
      </trkpt>
      <trkpt lat="44.65163" lon="2.56897">
        <ele>246</ele>
        <time>2021-08-19T07:56:15Z</time>
      </trkpt>
      <trkpt lat="44.65167" lon="2.56902">
        <ele>245.7</ele>
        <time>2021-08-19T07:56:17Z</time>
      </trkpt>
      <trkpt lat="44.65171" lon="2.56909">
        <ele>246.5</ele>
        <time>2021-08-19T07:56:19Z</time>
      </trkpt>
      <trkpt lat="44.65174" lon="2.56915">
        <ele>247</ele>
        <time>2021-08-19T07:56:21Z</time>
      </trkpt>
      <trkpt lat="44.65178" lon="2.56921">
        <ele>248</ele>
        <time>2021-08-19T07:56:23Z</time>
      </trkpt>
      <trkpt lat="44.65181" lon="2.56927">
        <ele>249</ele>
        <time>2021-08-19T07:56:25Z</time>
      </trkpt>
      <trkpt lat="44.65184" lon="2.56932">
        <ele>249.7</ele>
        <time>2021-08-19T07:56:27Z</time>
      </trkpt>
      <trkpt lat="44.65188" lon="2.56937">
        <ele>250.5</ele>
        <time>2021-08-19T07:56:29Z</time>
      </trkpt>
      <trkpt lat="44.65191" lon="2.56943">
        <ele>251.3</ele>
        <time>2021-08-19T07:56:31Z</time>
      </trkpt>
      <trkpt lat="44.65194" lon="2.56948">
        <ele>251.9</ele>
        <time>2021-08-19T07:56:33Z</time>
      </trkpt>
      <trkpt lat="44.65198" lon="2.56953">
        <ele>252.6</ele>
        <time>2021-08-19T07:56:35Z</time>
      </trkpt>
      <trkpt lat="44.65201" lon="2.56959">
        <ele>252.7</ele>
        <time>2021-08-19T07:56:37Z</time>
      </trkpt>
      <trkpt lat="44.65204" lon="2.56964">
        <ele>253.2</ele>
        <time>2021-08-19T07:56:39Z</time>
      </trkpt>
      <trkpt lat="44.65208" lon="2.56969">
        <ele>253.5</ele>
        <time>2021-08-19T07:56:41Z</time>
      </trkpt>
      <trkpt lat="44.6521" lon="2.56975">
        <ele>253.4</ele>
        <time>2021-08-19T07:56:43Z</time>
      </trkpt>
      <trkpt lat="44.65213" lon="2.5698">
        <ele>253.5</ele>
        <time>2021-08-19T07:56:45Z</time>
      </trkpt>
      <trkpt lat="44.65217" lon="2.56985">
        <ele>253.8</ele>
        <time>2021-08-19T07:56:47Z</time>
      </trkpt>
      <trkpt lat="44.6522" lon="2.56991">
        <ele>253.4</ele>
        <time>2021-08-19T07:56:49Z</time>
      </trkpt>
      <trkpt lat="44.65223" lon="2.56997">
        <ele>253.1</ele>
        <time>2021-08-19T07:56:51Z</time>
      </trkpt>
      <trkpt lat="44.65225" lon="2.57002">
        <ele>252.8</ele>
        <time>2021-08-19T07:56:53Z</time>
      </trkpt>
      <trkpt lat="44.65228" lon="2.57008">
        <ele>252.9</ele>
        <time>2021-08-19T07:56:55Z</time>
      </trkpt>
      <trkpt lat="44.65231" lon="2.57013">
        <ele>252.8</ele>
        <time>2021-08-19T07:56:57Z</time>
      </trkpt>
      <trkpt lat="44.65234" lon="2.57017">
        <ele>252.7</ele>
        <time>2021-08-19T07:56:59Z</time>
      </trkpt>
      <trkpt lat="44.65237" lon="2.57022">
        <ele>252.6</ele>
        <time>2021-08-19T07:57:01Z</time>
      </trkpt>
      <trkpt lat="44.6524" lon="2.57027">
        <ele>252.3</ele>
        <time>2021-08-19T07:57:03Z</time>
      </trkpt>
      <trkpt lat="44.65243" lon="2.57032">
        <ele>251.9</ele>
        <time>2021-08-19T07:57:05Z</time>
      </trkpt>
      <trkpt lat="44.65247" lon="2.57037">
        <ele>251.4</ele>
        <time>2021-08-19T07:57:07Z</time>
      </trkpt>
      <trkpt lat="44.6525" lon="2.57043">
        <ele>250.7</ele>
        <time>2021-08-19T07:57:09Z</time>
      </trkpt>
      <trkpt lat="44.65253" lon="2.57049">
        <ele>250.9</ele>
        <time>2021-08-19T07:57:11Z</time>
      </trkpt>
      <trkpt lat="44.65256" lon="2.57055">
        <ele>250.9</ele>
        <time>2021-08-19T07:57:13Z</time>
      </trkpt>
      <trkpt lat="44.65259" lon="2.5706">
        <ele>250.9</ele>
        <time>2021-08-19T07:57:15Z</time>
      </trkpt>
      <trkpt lat="44.65262" lon="2.57066">
        <ele>251</ele>
        <time>2021-08-19T07:57:17Z</time>
      </trkpt>
      <trkpt lat="44.65265" lon="2.57072">
        <ele>251.1</ele>
        <time>2021-08-19T07:57:19Z</time>
      </trkpt>
      <trkpt lat="44.65268" lon="2.57077">
        <ele>251</ele>
        <time>2021-08-19T07:57:21Z</time>
      </trkpt>
      <trkpt lat="44.65271" lon="2.57083">
        <ele>251.2</ele>
        <time>2021-08-19T07:57:23Z</time>
      </trkpt>
      <trkpt lat="44.65275" lon="2.57088">
        <ele>251.4</ele>
        <time>2021-08-19T07:57:25Z</time>
      </trkpt>
      <trkpt lat="44.65278" lon="2.57094">
        <ele>251.7</ele>
        <time>2021-08-19T07:57:27Z</time>
      </trkpt>
      <trkpt lat="44.65281" lon="2.57099">
        <ele>252</ele>
        <time>2021-08-19T07:57:29Z</time>
      </trkpt>
      <trkpt lat="44.65284" lon="2.57105">
        <ele>252.1</ele>
        <time>2021-08-19T07:57:31Z</time>
      </trkpt>
      <trkpt lat="44.65287" lon="2.5711">
        <ele>252.1</ele>
        <time>2021-08-19T07:57:33Z</time>
      </trkpt>
      <trkpt lat="44.6529" lon="2.57116">
        <ele>252.2</ele>
        <time>2021-08-19T07:57:35Z</time>
      </trkpt>
      <trkpt lat="44.65294" lon="2.57121">
        <ele>252.3</ele>
        <time>2021-08-19T07:57:37Z</time>
      </trkpt>
      <trkpt lat="44.65297" lon="2.57127">
        <ele>251.9</ele>
        <time>2021-08-19T07:57:39Z</time>
      </trkpt>
      <trkpt lat="44.653" lon="2.57134">
        <ele>251.5</ele>
        <time>2021-08-19T07:57:41Z</time>
      </trkpt>
      <trkpt lat="44.65303" lon="2.57141">
        <ele>251</ele>
        <time>2021-08-19T07:57:43Z</time>
      </trkpt>
      <trkpt lat="44.65305" lon="2.57148">
        <ele>249.9</ele>
        <time>2021-08-19T07:57:45Z</time>
      </trkpt>
      <trkpt lat="44.65306" lon="2.57154">
        <ele>248.7</ele>
        <time>2021-08-19T07:57:47Z</time>
      </trkpt>
      <trkpt lat="44.65309" lon="2.5716">
        <ele>248.2</ele>
        <time>2021-08-19T07:57:49Z</time>
      </trkpt>
      <trkpt lat="44.65314" lon="2.57164">
        <ele>248.6</ele>
        <time>2021-08-19T07:57:51Z</time>
      </trkpt>
      <trkpt lat="44.6532" lon="2.57167">
        <ele>249.4</ele>
        <time>2021-08-19T07:57:53Z</time>
      </trkpt>
      <trkpt lat="44.65326" lon="2.57168">
        <ele>250.7</ele>
        <time>2021-08-19T07:57:55Z</time>
      </trkpt>
      <trkpt lat="44.65331" lon="2.5717">
        <ele>251.8</ele>
        <time>2021-08-19T07:57:57Z</time>
      </trkpt>
      <trkpt lat="44.65334" lon="2.57175">
        <ele>251.7</ele>
        <time>2021-08-19T07:57:59Z</time>
      </trkpt>
      <trkpt lat="44.65336" lon="2.57182">
        <ele>251.2</ele>
        <time>2021-08-19T07:58:01Z</time>
      </trkpt>
      <trkpt lat="44.65339" lon="2.57188">
        <ele>251.2</ele>
        <time>2021-08-19T07:58:03Z</time>
      </trkpt>
      <trkpt lat="44.65342" lon="2.57194">
        <ele>251</ele>
        <time>2021-08-19T07:58:05Z</time>
      </trkpt>
      <trkpt lat="44.65345" lon="2.572">
        <ele>250.7</ele>
        <time>2021-08-19T07:58:07Z</time>
      </trkpt>
      <trkpt lat="44.65348" lon="2.57205">
        <ele>250.8</ele>
        <time>2021-08-19T07:58:09Z</time>
      </trkpt>
      <trkpt lat="44.65352" lon="2.5721">
        <ele>251</ele>
        <time>2021-08-19T07:58:11Z</time>
      </trkpt>
      <trkpt lat="44.65356" lon="2.57215">
        <ele>251.3</ele>
        <time>2021-08-19T07:58:13Z</time>
      </trkpt>
      <trkpt lat="44.6536" lon="2.57219">
        <ele>251.4</ele>
        <time>2021-08-19T07:58:15Z</time>
      </trkpt>
      <trkpt lat="44.65364" lon="2.57224">
        <ele>251.7</ele>
        <time>2021-08-19T07:58:17Z</time>
      </trkpt>
      <trkpt lat="44.65369" lon="2.57229">
        <ele>252</ele>
        <time>2021-08-19T07:58:19Z</time>
      </trkpt>
      <trkpt lat="44.65374" lon="2.57234">
        <ele>252.2</ele>
        <time>2021-08-19T07:58:21Z</time>
      </trkpt>
      <trkpt lat="44.65378" lon="2.57239">
        <ele>252.3</ele>
        <time>2021-08-19T07:58:23Z</time>
      </trkpt>
      <trkpt lat="44.65382" lon="2.57243">
        <ele>252.4</ele>
        <time>2021-08-19T07:58:25Z</time>
      </trkpt>
      <trkpt lat="44.65386" lon="2.57248">
        <ele>252.3</ele>
        <time>2021-08-19T07:58:27Z</time>
      </trkpt>
      <trkpt lat="44.6539" lon="2.57254">
        <ele>252.1</ele>
        <time>2021-08-19T07:58:29Z</time>
      </trkpt>
      <trkpt lat="44.65395" lon="2.57258">
        <ele>252.4</ele>
        <time>2021-08-19T07:58:31Z</time>
      </trkpt>
      <trkpt lat="44.65401" lon="2.57262">
        <ele>252.9</ele>
        <time>2021-08-19T07:58:33Z</time>
      </trkpt>
      <trkpt lat="44.65405" lon="2.57266">
        <ele>252.9</ele>
        <time>2021-08-19T07:58:35Z</time>
      </trkpt>
      <trkpt lat="44.6541" lon="2.5727">
        <ele>253.1</ele>
        <time>2021-08-19T07:58:37Z</time>
      </trkpt>
      <trkpt lat="44.65414" lon="2.57273">
        <ele>253.1</ele>
        <time>2021-08-19T07:58:39Z</time>
      </trkpt>
      <trkpt lat="44.65418" lon="2.57277">
        <ele>253.1</ele>
        <time>2021-08-19T07:58:41Z</time>
      </trkpt>
      <trkpt lat="44.65423" lon="2.5728">
        <ele>253.8</ele>
        <time>2021-08-19T07:58:43Z</time>
      </trkpt>
      <trkpt lat="44.65427" lon="2.57283">
        <ele>254.3</ele>
        <time>2021-08-19T07:58:45Z</time>
      </trkpt>
      <trkpt lat="44.65433" lon="2.57284">
        <ele>255.4</ele>
        <time>2021-08-19T07:58:47Z</time>
      </trkpt>
      <trkpt lat="44.65437" lon="2.57286">
        <ele>256.3</ele>
        <time>2021-08-19T07:58:49Z</time>
      </trkpt>
      <trkpt lat="44.65442" lon="2.57289">
        <ele>256.6</ele>
        <time>2021-08-19T07:58:51Z</time>
      </trkpt>
      <trkpt lat="44.65446" lon="2.57292">
        <ele>256.6</ele>
        <time>2021-08-19T07:58:53Z</time>
      </trkpt>
      <trkpt lat="44.65451" lon="2.57294">
        <ele>257.5</ele>
        <time>2021-08-19T07:58:55Z</time>
      </trkpt>
      <trkpt lat="44.65456" lon="2.57296">
        <ele>258</ele>
        <time>2021-08-19T07:58:57Z</time>
      </trkpt>
      <trkpt lat="44.65461" lon="2.57298">
        <ele>258.5</ele>
        <time>2021-08-19T07:58:59Z</time>
      </trkpt>
      <trkpt lat="44.65465" lon="2.573">
        <ele>258.3</ele>
        <time>2021-08-19T07:59:01Z</time>
      </trkpt>
      <trkpt lat="44.65469" lon="2.57302">
        <ele>258.6</ele>
        <time>2021-08-19T07:59:03Z</time>
      </trkpt>
      <trkpt lat="44.65473" lon="2.57304">
        <ele>258.8</ele>
        <time>2021-08-19T07:59:05Z</time>
      </trkpt>
      <trkpt lat="44.65477" lon="2.57305">
        <ele>258.9</ele>
        <time>2021-08-19T07:59:07Z</time>
      </trkpt>
      <trkpt lat="44.65481" lon="2.57307">
        <ele>259.1</ele>
        <time>2021-08-19T07:59:09Z</time>
      </trkpt>
      <trkpt lat="44.65484" lon="2.5731">
        <ele>258.5</ele>
        <time>2021-08-19T07:59:11Z</time>
      </trkpt>
      <trkpt lat="44.65486" lon="2.57312">
        <ele>257.9</ele>
        <time>2021-08-19T07:59:13Z</time>
      </trkpt>
      <trkpt lat="44.65486" lon="2.57312">
        <ele>257.8</ele>
        <time>2021-08-19T07:59:15Z</time>
      </trkpt>
      <trkpt lat="44.65486" lon="2.57312">
        <ele>257.9</ele>
        <time>2021-08-19T07:59:17Z</time>
      </trkpt>
      <trkpt lat="44.65486" lon="2.57311">
        <ele>258.2</ele>
        <time>2021-08-19T07:59:19Z</time>
      </trkpt>
      <trkpt lat="44.65486" lon="2.57311">
        <ele>258.3</ele>
        <time>2021-08-19T07:59:21Z</time>
      </trkpt>
      <trkpt lat="44.65508" lon="2.57311">
        <ele>264.3</ele>
        <time>2021-08-19T08:01:17Z</time>
      </trkpt>
      <trkpt lat="44.65514" lon="2.57312">
        <ele>265.4</ele>
        <time>2021-08-19T08:01:19Z</time>
      </trkpt>
      <trkpt lat="44.6552" lon="2.57313">
        <ele>266.9</ele>
        <time>2021-08-19T08:01:21Z</time>
      </trkpt>
      <trkpt lat="44.65526" lon="2.57314">
        <ele>268.3</ele>
        <time>2021-08-19T08:01:23Z</time>
      </trkpt>
      <trkpt lat="44.65532" lon="2.57317">
        <ele>269</ele>
        <time>2021-08-19T08:01:25Z</time>
      </trkpt>
      <trkpt lat="44.65538" lon="2.57319">
        <ele>269.8</ele>
        <time>2021-08-19T08:01:27Z</time>
      </trkpt>
      <trkpt lat="44.65544" lon="2.57323">
        <ele>270</ele>
        <time>2021-08-19T08:01:29Z</time>
      </trkpt>
      <trkpt lat="44.6555" lon="2.57327">
        <ele>270.1</ele>
        <time>2021-08-19T08:01:31Z</time>
      </trkpt>
      <trkpt lat="44.65557" lon="2.57332">
        <ele>269.5</ele>
        <time>2021-08-19T08:01:33Z</time>
      </trkpt>
      <trkpt lat="44.65563" lon="2.57338">
        <ele>269.5</ele>
        <time>2021-08-19T08:01:35Z</time>
      </trkpt>
      <trkpt lat="44.65569" lon="2.57345">
        <ele>269.9</ele>
        <time>2021-08-19T08:01:37Z</time>
      </trkpt>
      <trkpt lat="44.65577" lon="2.57351">
        <ele>270.6</ele>
        <time>2021-08-19T08:01:39Z</time>
      </trkpt>
      <trkpt lat="44.65584" lon="2.57358">
        <ele>270.7</ele>
        <time>2021-08-19T08:01:41Z</time>
      </trkpt>
      <trkpt lat="44.65591" lon="2.57366">
        <ele>271</ele>
        <time>2021-08-19T08:01:43Z</time>
      </trkpt>
      <trkpt lat="44.65598" lon="2.57373">
        <ele>271.1</ele>
        <time>2021-08-19T08:01:45Z</time>
      </trkpt>
      <trkpt lat="44.65606" lon="2.57381">
        <ele>270.9</ele>
        <time>2021-08-19T08:01:47Z</time>
      </trkpt>
      <trkpt lat="44.65614" lon="2.5739">
        <ele>270.1</ele>
        <time>2021-08-19T08:01:49Z</time>
      </trkpt>
      <trkpt lat="44.65622" lon="2.57398">
        <ele>269.5</ele>
        <time>2021-08-19T08:01:51Z</time>
      </trkpt>
      <trkpt lat="44.65631" lon="2.57407">
        <ele>268.6</ele>
        <time>2021-08-19T08:01:53Z</time>
      </trkpt>
      <trkpt lat="44.65641" lon="2.57416">
        <ele>267.1</ele>
        <time>2021-08-19T08:01:55Z</time>
      </trkpt>
      <trkpt lat="44.65649" lon="2.57426">
        <ele>266.9</ele>
        <time>2021-08-19T08:01:57Z</time>
      </trkpt>
      <trkpt lat="44.6566" lon="2.57437">
        <ele>267</ele>
        <time>2021-08-19T08:01:59Z</time>
      </trkpt>
      <trkpt lat="44.6567" lon="2.57447">
        <ele>267.2</ele>
        <time>2021-08-19T08:02:01Z</time>
      </trkpt>
      <trkpt lat="44.6568" lon="2.5746">
        <ele>267.4</ele>
        <time>2021-08-19T08:02:03Z</time>
      </trkpt>
      <trkpt lat="44.65689" lon="2.57475">
        <ele>266.2</ele>
        <time>2021-08-19T08:02:05Z</time>
      </trkpt>
      <trkpt lat="44.65696" lon="2.57491">
        <ele>264.3</ele>
        <time>2021-08-19T08:02:07Z</time>
      </trkpt>
      <trkpt lat="44.65702" lon="2.57507">
        <ele>262.7</ele>
        <time>2021-08-19T08:02:09Z</time>
      </trkpt>
      <trkpt lat="44.6571" lon="2.57522">
        <ele>262.1</ele>
        <time>2021-08-19T08:02:11Z</time>
      </trkpt>
      <trkpt lat="44.65717" lon="2.57535">
        <ele>261.3</ele>
        <time>2021-08-19T08:02:13Z</time>
      </trkpt>
      <trkpt lat="44.65724" lon="2.57549">
        <ele>259.8</ele>
        <time>2021-08-19T08:02:15Z</time>
      </trkpt>
      <trkpt lat="44.65732" lon="2.57561">
        <ele>258.4</ele>
        <time>2021-08-19T08:02:17Z</time>
      </trkpt>
      <trkpt lat="44.65739" lon="2.57574">
        <ele>256.4</ele>
        <time>2021-08-19T08:02:19Z</time>
      </trkpt>
      <trkpt lat="44.65746" lon="2.57585">
        <ele>254.4</ele>
        <time>2021-08-19T08:02:21Z</time>
      </trkpt>
      <trkpt lat="44.65754" lon="2.57597">
        <ele>254.1</ele>
        <time>2021-08-19T08:02:23Z</time>
      </trkpt>
      <trkpt lat="44.65761" lon="2.57608">
        <ele>254.4</ele>
        <time>2021-08-19T08:02:25Z</time>
      </trkpt>
      <trkpt lat="44.65768" lon="2.57619">
        <ele>254.7</ele>
        <time>2021-08-19T08:02:27Z</time>
      </trkpt>
      <trkpt lat="44.65775" lon="2.57629">
        <ele>254.9</ele>
        <time>2021-08-19T08:02:29Z</time>
      </trkpt>
      <trkpt lat="44.65782" lon="2.57638">
        <ele>255</ele>
        <time>2021-08-19T08:02:31Z</time>
      </trkpt>
      <trkpt lat="44.65789" lon="2.57648">
        <ele>255.1</ele>
        <time>2021-08-19T08:02:33Z</time>
      </trkpt>
      <trkpt lat="44.65797" lon="2.57657">
        <ele>255.2</ele>
        <time>2021-08-19T08:02:35Z</time>
      </trkpt>
      <trkpt lat="44.65804" lon="2.57665">
        <ele>255.4</ele>
        <time>2021-08-19T08:02:37Z</time>
      </trkpt>
      <trkpt lat="44.65812" lon="2.57674">
        <ele>255.8</ele>
        <time>2021-08-19T08:02:39Z</time>
      </trkpt>
      <trkpt lat="44.6582" lon="2.57682">
        <ele>256.3</ele>
        <time>2021-08-19T08:02:41Z</time>
      </trkpt>
      <trkpt lat="44.65827" lon="2.5769">
        <ele>256.7</ele>
        <time>2021-08-19T08:02:43Z</time>
      </trkpt>
      <trkpt lat="44.65835" lon="2.57698">
        <ele>257</ele>
        <time>2021-08-19T08:02:45Z</time>
      </trkpt>
      <trkpt lat="44.65842" lon="2.57708">
        <ele>256.7</ele>
        <time>2021-08-19T08:02:47Z</time>
      </trkpt>
      <trkpt lat="44.6585" lon="2.57716">
        <ele>256.7</ele>
        <time>2021-08-19T08:02:49Z</time>
      </trkpt>
      <trkpt lat="44.65857" lon="2.57726">
        <ele>256.3</ele>
        <time>2021-08-19T08:02:51Z</time>
      </trkpt>
      <trkpt lat="44.65863" lon="2.57736">
        <ele>255.5</ele>
        <time>2021-08-19T08:02:53Z</time>
      </trkpt>
      <trkpt lat="44.65869" lon="2.57746">
        <ele>254.6</ele>
        <time>2021-08-19T08:02:55Z</time>
      </trkpt>
      <trkpt lat="44.65874" lon="2.57757">
        <ele>254.2</ele>
        <time>2021-08-19T08:02:57Z</time>
      </trkpt>
      <trkpt lat="44.6588" lon="2.57767">
        <ele>254.4</ele>
        <time>2021-08-19T08:02:59Z</time>
      </trkpt>
      <trkpt lat="44.65885" lon="2.57778">
        <ele>254.4</ele>
        <time>2021-08-19T08:03:01Z</time>
      </trkpt>
      <trkpt lat="44.6589" lon="2.57788">
        <ele>254.4</ele>
        <time>2021-08-19T08:03:03Z</time>
      </trkpt>
      <trkpt lat="44.65894" lon="2.57799">
        <ele>254.4</ele>
        <time>2021-08-19T08:03:05Z</time>
      </trkpt>
      <trkpt lat="44.659" lon="2.5781">
        <ele>254.5</ele>
        <time>2021-08-19T08:03:07Z</time>
      </trkpt>
      <trkpt lat="44.65904" lon="2.57821">
        <ele>254.6</ele>
        <time>2021-08-19T08:03:09Z</time>
      </trkpt>
      <trkpt lat="44.6591" lon="2.57832">
        <ele>254.8</ele>
        <time>2021-08-19T08:03:11Z</time>
      </trkpt>
      <trkpt lat="44.65915" lon="2.57842">
        <ele>254.9</ele>
        <time>2021-08-19T08:03:13Z</time>
      </trkpt>
      <trkpt lat="44.65921" lon="2.57851">
        <ele>255.5</ele>
        <time>2021-08-19T08:03:15Z</time>
      </trkpt>
      <trkpt lat="44.65928" lon="2.5786">
        <ele>256.1</ele>
        <time>2021-08-19T08:03:17Z</time>
      </trkpt>
      <trkpt lat="44.65934" lon="2.57869">
        <ele>256.7</ele>
        <time>2021-08-19T08:03:19Z</time>
      </trkpt>
      <trkpt lat="44.6594" lon="2.57879">
        <ele>257.2</ele>
        <time>2021-08-19T08:03:21Z</time>
      </trkpt>
      <trkpt lat="44.65945" lon="2.57889">
        <ele>257.4</ele>
        <time>2021-08-19T08:03:23Z</time>
      </trkpt>
      <trkpt lat="44.6595" lon="2.57899">
        <ele>257.6</ele>
        <time>2021-08-19T08:03:25Z</time>
      </trkpt>
      <trkpt lat="44.65954" lon="2.57909">
        <ele>257.7</ele>
        <time>2021-08-19T08:03:27Z</time>
      </trkpt>
      <trkpt lat="44.65958" lon="2.57919">
        <ele>257.7</ele>
        <time>2021-08-19T08:03:29Z</time>
      </trkpt>
      <trkpt lat="44.65961" lon="2.57928">
        <ele>257.8</ele>
        <time>2021-08-19T08:03:31Z</time>
      </trkpt>
      <trkpt lat="44.65965" lon="2.57938">
        <ele>257.8</ele>
        <time>2021-08-19T08:03:33Z</time>
      </trkpt>
      <trkpt lat="44.65968" lon="2.57947">
        <ele>258</ele>
        <time>2021-08-19T08:03:35Z</time>
      </trkpt>
      <trkpt lat="44.65971" lon="2.57955">
        <ele>258.1</ele>
        <time>2021-08-19T08:03:37Z</time>
      </trkpt>
      <trkpt lat="44.65974" lon="2.57964">
        <ele>258.3</ele>
        <time>2021-08-19T08:03:39Z</time>
      </trkpt>
      <trkpt lat="44.65978" lon="2.57972">
        <ele>258.6</ele>
        <time>2021-08-19T08:03:41Z</time>
      </trkpt>
      <trkpt lat="44.65981" lon="2.5798">
        <ele>258.9</ele>
        <time>2021-08-19T08:03:43Z</time>
      </trkpt>
      <trkpt lat="44.65984" lon="2.57989">
        <ele>259.2</ele>
        <time>2021-08-19T08:03:45Z</time>
      </trkpt>
      <trkpt lat="44.65987" lon="2.57996">
        <ele>259.6</ele>
        <time>2021-08-19T08:03:47Z</time>
      </trkpt>
      <trkpt lat="44.6599" lon="2.58004">
        <ele>259.8</ele>
        <time>2021-08-19T08:03:49Z</time>
      </trkpt>
      <trkpt lat="44.65994" lon="2.58012">
        <ele>259.9</ele>
        <time>2021-08-19T08:03:51Z</time>
      </trkpt>
      <trkpt lat="44.65997" lon="2.58019">
        <ele>259.9</ele>
        <time>2021-08-19T08:03:53Z</time>
      </trkpt>
      <trkpt lat="44.66" lon="2.58027">
        <ele>259.9</ele>
        <time>2021-08-19T08:03:55Z</time>
      </trkpt>
      <trkpt lat="44.66004" lon="2.58034">
        <ele>259.6</ele>
        <time>2021-08-19T08:03:57Z</time>
      </trkpt>
      <trkpt lat="44.66008" lon="2.5804">
        <ele>259.6</ele>
        <time>2021-08-19T08:03:59Z</time>
      </trkpt>
      <trkpt lat="44.66013" lon="2.58046">
        <ele>259.7</ele>
        <time>2021-08-19T08:04:01Z</time>
      </trkpt>
      <trkpt lat="44.66017" lon="2.58051">
        <ele>259.9</ele>
        <time>2021-08-19T08:04:03Z</time>
      </trkpt>
      <trkpt lat="44.66022" lon="2.58057">
        <ele>260.1</ele>
        <time>2021-08-19T08:04:05Z</time>
      </trkpt>
      <trkpt lat="44.66027" lon="2.58061">
        <ele>260.5</ele>
        <time>2021-08-19T08:04:07Z</time>
      </trkpt>
      <trkpt lat="44.66033" lon="2.58065">
        <ele>261.1</ele>
        <time>2021-08-19T08:04:09Z</time>
      </trkpt>
      <trkpt lat="44.66039" lon="2.58069">
        <ele>261.6</ele>
        <time>2021-08-19T08:04:11Z</time>
      </trkpt>
      <trkpt lat="44.66044" lon="2.58072">
        <ele>262.3</ele>
        <time>2021-08-19T08:04:13Z</time>
      </trkpt>
      <trkpt lat="44.6605" lon="2.58075">
        <ele>262.9</ele>
        <time>2021-08-19T08:04:15Z</time>
      </trkpt>
      <trkpt lat="44.66055" lon="2.58077">
        <ele>263.7</ele>
        <time>2021-08-19T08:04:17Z</time>
      </trkpt>
      <trkpt lat="44.66061" lon="2.58078">
        <ele>264.6</ele>
        <time>2021-08-19T08:04:19Z</time>
      </trkpt>
      <trkpt lat="44.66067" lon="2.58079">
        <ele>265.6</ele>
        <time>2021-08-19T08:04:21Z</time>
      </trkpt>
      <trkpt lat="44.66073" lon="2.58079">
        <ele>266.6</ele>
        <time>2021-08-19T08:04:23Z</time>
      </trkpt>
      <trkpt lat="44.66079" lon="2.58078">
        <ele>267.8</ele>
        <time>2021-08-19T08:04:25Z</time>
      </trkpt>
      <trkpt lat="44.66086" lon="2.58077">
        <ele>268.3</ele>
        <time>2021-08-19T08:04:27Z</time>
      </trkpt>
      <trkpt lat="44.66092" lon="2.58073">
        <ele>267.7</ele>
        <time>2021-08-19T08:04:29Z</time>
      </trkpt>
      <trkpt lat="44.661" lon="2.58071">
        <ele>266.8</ele>
        <time>2021-08-19T08:04:31Z</time>
      </trkpt>
      <trkpt lat="44.66108" lon="2.58067">
        <ele>266.2</ele>
        <time>2021-08-19T08:04:33Z</time>
      </trkpt>
      <trkpt lat="44.66116" lon="2.58062">
        <ele>265.8</ele>
        <time>2021-08-19T08:04:35Z</time>
      </trkpt>
      <trkpt lat="44.66124" lon="2.58055">
        <ele>265.6</ele>
        <time>2021-08-19T08:04:37Z</time>
      </trkpt>
      <trkpt lat="44.66133" lon="2.58047">
        <ele>265.9</ele>
        <time>2021-08-19T08:04:39Z</time>
      </trkpt>
      <trkpt lat="44.66143" lon="2.58039">
        <ele>266.2</ele>
        <time>2021-08-19T08:04:41Z</time>
      </trkpt>
      <trkpt lat="44.66154" lon="2.5803">
        <ele>266.8</ele>
        <time>2021-08-19T08:04:43Z</time>
      </trkpt>
      <trkpt lat="44.66165" lon="2.58021">
        <ele>267.7</ele>
        <time>2021-08-19T08:04:45Z</time>
      </trkpt>
      <trkpt lat="44.66176" lon="2.58012">
        <ele>267.7</ele>
        <time>2021-08-19T08:04:47Z</time>
      </trkpt>
      <trkpt lat="44.66187" lon="2.58002">
        <ele>267.3</ele>
        <time>2021-08-19T08:04:49Z</time>
      </trkpt>
      <trkpt lat="44.66198" lon="2.57993">
        <ele>267.4</ele>
        <time>2021-08-19T08:04:51Z</time>
      </trkpt>
      <trkpt lat="44.66209" lon="2.57983">
        <ele>268</ele>
        <time>2021-08-19T08:04:53Z</time>
      </trkpt>
      <trkpt lat="44.66221" lon="2.57973">
        <ele>268.5</ele>
        <time>2021-08-19T08:04:55Z</time>
      </trkpt>
      <trkpt lat="44.66233" lon="2.57963">
        <ele>269.2</ele>
        <time>2021-08-19T08:04:57Z</time>
      </trkpt>
      <trkpt lat="44.66245" lon="2.57953">
        <ele>270.1</ele>
        <time>2021-08-19T08:04:59Z</time>
      </trkpt>
      <trkpt lat="44.66256" lon="2.57943">
        <ele>270.9</ele>
        <time>2021-08-19T08:05:01Z</time>
      </trkpt>
      <trkpt lat="44.66268" lon="2.57932">
        <ele>271.2</ele>
        <time>2021-08-19T08:05:03Z</time>
      </trkpt>
      <trkpt lat="44.6628" lon="2.57922">
        <ele>271.1</ele>
        <time>2021-08-19T08:05:05Z</time>
      </trkpt>
      <trkpt lat="44.66292" lon="2.57912">
        <ele>271</ele>
        <time>2021-08-19T08:05:07Z</time>
      </trkpt>
      <trkpt lat="44.66305" lon="2.57902">
        <ele>270.4</ele>
        <time>2021-08-19T08:05:09Z</time>
      </trkpt>
      <trkpt lat="44.66318" lon="2.57892">
        <ele>270.1</ele>
        <time>2021-08-19T08:05:11Z</time>
      </trkpt>
      <trkpt lat="44.6633" lon="2.57882">
        <ele>269.2</ele>
        <time>2021-08-19T08:05:13Z</time>
      </trkpt>
      <trkpt lat="44.66344" lon="2.57873">
        <ele>268.7</ele>
        <time>2021-08-19T08:05:15Z</time>
      </trkpt>
      <trkpt lat="44.66358" lon="2.57864">
        <ele>267.7</ele>
        <time>2021-08-19T08:05:17Z</time>
      </trkpt>
      <trkpt lat="44.66372" lon="2.57855">
        <ele>266.2</ele>
        <time>2021-08-19T08:05:19Z</time>
      </trkpt>
      <trkpt lat="44.66387" lon="2.57845">
        <ele>264.2</ele>
        <time>2021-08-19T08:05:21Z</time>
      </trkpt>
      <trkpt lat="44.66402" lon="2.57836">
        <ele>261.7</ele>
        <time>2021-08-19T08:05:23Z</time>
      </trkpt>
      <trkpt lat="44.66418" lon="2.57827">
        <ele>260</ele>
        <time>2021-08-19T08:05:25Z</time>
      </trkpt>
      <trkpt lat="44.66433" lon="2.57816">
        <ele>260.3</ele>
        <time>2021-08-19T08:05:27Z</time>
      </trkpt>
      <trkpt lat="44.66449" lon="2.57805">
        <ele>260.1</ele>
        <time>2021-08-19T08:05:29Z</time>
      </trkpt>
      <trkpt lat="44.66464" lon="2.57793">
        <ele>259.8</ele>
        <time>2021-08-19T08:05:31Z</time>
      </trkpt>
      <trkpt lat="44.6648" lon="2.57781">
        <ele>259.1</ele>
        <time>2021-08-19T08:05:33Z</time>
      </trkpt>
      <trkpt lat="44.66495" lon="2.57768">
        <ele>257.8</ele>
        <time>2021-08-19T08:05:35Z</time>
      </trkpt>
      <trkpt lat="44.6651" lon="2.57754">
        <ele>256.2</ele>
        <time>2021-08-19T08:05:37Z</time>
      </trkpt>
      <trkpt lat="44.66526" lon="2.5774">
        <ele>255.4</ele>
        <time>2021-08-19T08:05:39Z</time>
      </trkpt>
      <trkpt lat="44.66541" lon="2.57726">
        <ele>255</ele>
        <time>2021-08-19T08:05:41Z</time>
      </trkpt>
      <trkpt lat="44.66556" lon="2.57713">
        <ele>254.5</ele>
        <time>2021-08-19T08:05:43Z</time>
      </trkpt>
      <trkpt lat="44.66571" lon="2.577">
        <ele>254</ele>
        <time>2021-08-19T08:05:45Z</time>
      </trkpt>
      <trkpt lat="44.66586" lon="2.57687">
        <ele>253.7</ele>
        <time>2021-08-19T08:05:47Z</time>
      </trkpt>
      <trkpt lat="44.666" lon="2.57674">
        <ele>255</ele>
        <time>2021-08-19T08:05:49Z</time>
      </trkpt>
      <trkpt lat="44.66613" lon="2.57662">
        <ele>255.9</ele>
        <time>2021-08-19T08:05:51Z</time>
      </trkpt>
      <trkpt lat="44.66626" lon="2.5765">
        <ele>256.3</ele>
        <time>2021-08-19T08:05:53Z</time>
      </trkpt>
      <trkpt lat="44.66638" lon="2.57638">
        <ele>256.4</ele>
        <time>2021-08-19T08:05:55Z</time>
      </trkpt>
      <trkpt lat="44.6665" lon="2.57626">
        <ele>256</ele>
        <time>2021-08-19T08:05:57Z</time>
      </trkpt>
      <trkpt lat="44.6666" lon="2.57615">
        <ele>255.3</ele>
        <time>2021-08-19T08:05:59Z</time>
      </trkpt>
      <trkpt lat="44.6667" lon="2.57604">
        <ele>254.9</ele>
        <time>2021-08-19T08:06:01Z</time>
      </trkpt>
      <trkpt lat="44.66678" lon="2.57594">
        <ele>254.9</ele>
        <time>2021-08-19T08:06:03Z</time>
      </trkpt>
      <trkpt lat="44.66685" lon="2.57584">
        <ele>254.7</ele>
        <time>2021-08-19T08:06:05Z</time>
      </trkpt>
      <trkpt lat="44.66692" lon="2.57575">
        <ele>255.4</ele>
        <time>2021-08-19T08:06:07Z</time>
      </trkpt>
      <trkpt lat="44.66698" lon="2.57566">
        <ele>256.1</ele>
        <time>2021-08-19T08:06:09Z</time>
      </trkpt>
      <trkpt lat="44.66704" lon="2.57558">
        <ele>256.2</ele>
        <time>2021-08-19T08:06:11Z</time>
      </trkpt>
      <trkpt lat="44.6671" lon="2.5755">
        <ele>256.6</ele>
        <time>2021-08-19T08:06:13Z</time>
      </trkpt>
      <trkpt lat="44.66715" lon="2.57542">
        <ele>256.9</ele>
        <time>2021-08-19T08:06:15Z</time>
      </trkpt>
      <trkpt lat="44.66721" lon="2.57535">
        <ele>256.8</ele>
        <time>2021-08-19T08:06:17Z</time>
      </trkpt>
      <trkpt lat="44.66726" lon="2.57527">
        <ele>257.1</ele>
        <time>2021-08-19T08:06:19Z</time>
      </trkpt>
      <trkpt lat="44.66731" lon="2.57519">
        <ele>257.3</ele>
        <time>2021-08-19T08:06:21Z</time>
      </trkpt>
      <trkpt lat="44.66736" lon="2.5751">
        <ele>257.6</ele>
        <time>2021-08-19T08:06:23Z</time>
      </trkpt>
      <trkpt lat="44.6674" lon="2.57502">
        <ele>257.8</ele>
        <time>2021-08-19T08:06:25Z</time>
      </trkpt>
      <trkpt lat="44.66745" lon="2.57493">
        <ele>257.8</ele>
        <time>2021-08-19T08:06:27Z</time>
      </trkpt>
      <trkpt lat="44.66748" lon="2.57484">
        <ele>258.1</ele>
        <time>2021-08-19T08:06:29Z</time>
      </trkpt>
      <trkpt lat="44.66751" lon="2.57474">
        <ele>258.6</ele>
        <time>2021-08-19T08:06:31Z</time>
      </trkpt>
      <trkpt lat="44.66754" lon="2.57464">
        <ele>259.3</ele>
        <time>2021-08-19T08:06:33Z</time>
      </trkpt>
      <trkpt lat="44.66756" lon="2.57453">
        <ele>260.1</ele>
        <time>2021-08-19T08:06:35Z</time>
      </trkpt>
      <trkpt lat="44.66759" lon="2.57441">
        <ele>260.9</ele>
        <time>2021-08-19T08:06:37Z</time>
      </trkpt>
      <trkpt lat="44.66761" lon="2.5743">
        <ele>261.6</ele>
        <time>2021-08-19T08:06:39Z</time>
      </trkpt>
      <trkpt lat="44.66763" lon="2.57418">
        <ele>262.3</ele>
        <time>2021-08-19T08:06:41Z</time>
      </trkpt>
      <trkpt lat="44.66767" lon="2.57406">
        <ele>263.6</ele>
        <time>2021-08-19T08:06:43Z</time>
      </trkpt>
      <trkpt lat="44.66771" lon="2.57395">
        <ele>264.6</ele>
        <time>2021-08-19T08:06:45Z</time>
      </trkpt>
      <trkpt lat="44.66777" lon="2.57384">
        <ele>265.1</ele>
        <time>2021-08-19T08:06:47Z</time>
      </trkpt>
      <trkpt lat="44.66783" lon="2.57374">
        <ele>265.4</ele>
        <time>2021-08-19T08:06:49Z</time>
      </trkpt>
      <trkpt lat="44.66789" lon="2.57364">
        <ele>265.3</ele>
        <time>2021-08-19T08:06:51Z</time>
      </trkpt>
      <trkpt lat="44.66796" lon="2.57354">
        <ele>265</ele>
        <time>2021-08-19T08:06:53Z</time>
      </trkpt>
      <trkpt lat="44.66802" lon="2.57344">
        <ele>265</ele>
        <time>2021-08-19T08:06:55Z</time>
      </trkpt>
      <trkpt lat="44.66809" lon="2.57334">
        <ele>264.7</ele>
        <time>2021-08-19T08:06:57Z</time>
      </trkpt>
      <trkpt lat="44.66816" lon="2.57326">
        <ele>264.4</ele>
        <time>2021-08-19T08:06:59Z</time>
      </trkpt>
      <trkpt lat="44.66824" lon="2.57317">
        <ele>264.2</ele>
        <time>2021-08-19T08:07:01Z</time>
      </trkpt>
      <trkpt lat="44.66832" lon="2.57309">
        <ele>263.7</ele>
        <time>2021-08-19T08:07:03Z</time>
      </trkpt>
      <trkpt lat="44.6684" lon="2.57301">
        <ele>263.5</ele>
        <time>2021-08-19T08:07:05Z</time>
      </trkpt>
      <trkpt lat="44.66848" lon="2.57293">
        <ele>263.4</ele>
        <time>2021-08-19T08:07:07Z</time>
      </trkpt>
      <trkpt lat="44.66856" lon="2.57286">
        <ele>263</ele>
        <time>2021-08-19T08:07:09Z</time>
      </trkpt>
      <trkpt lat="44.66864" lon="2.57278">
        <ele>263.1</ele>
        <time>2021-08-19T08:07:11Z</time>
      </trkpt>
      <trkpt lat="44.66872" lon="2.5727">
        <ele>263</ele>
        <time>2021-08-19T08:07:13Z</time>
      </trkpt>
      <trkpt lat="44.66879" lon="2.57263">
        <ele>263</ele>
        <time>2021-08-19T08:07:15Z</time>
      </trkpt>
      <trkpt lat="44.66887" lon="2.57257">
        <ele>262.4</ele>
        <time>2021-08-19T08:07:17Z</time>
      </trkpt>
      <trkpt lat="44.66895" lon="2.57252">
        <ele>261.7</ele>
        <time>2021-08-19T08:07:19Z</time>
      </trkpt>
      <trkpt lat="44.66902" lon="2.57247">
        <ele>261.1</ele>
        <time>2021-08-19T08:07:21Z</time>
      </trkpt>
      <trkpt lat="44.6691" lon="2.57244">
        <ele>260.3</ele>
        <time>2021-08-19T08:07:23Z</time>
      </trkpt>
      <trkpt lat="44.66916" lon="2.57242">
        <ele>259.5</ele>
        <time>2021-08-19T08:07:25Z</time>
      </trkpt>
      <trkpt lat="44.66923" lon="2.57239">
        <ele>260</ele>
        <time>2021-08-19T08:07:27Z</time>
      </trkpt>
      <trkpt lat="44.6693" lon="2.57238">
        <ele>260.3</ele>
        <time>2021-08-19T08:07:29Z</time>
      </trkpt>
      <trkpt lat="44.66937" lon="2.57236">
        <ele>260.6</ele>
        <time>2021-08-19T08:07:31Z</time>
      </trkpt>
      <trkpt lat="44.66945" lon="2.57235">
        <ele>260.8</ele>
        <time>2021-08-19T08:07:33Z</time>
      </trkpt>
      <trkpt lat="44.66952" lon="2.57233">
        <ele>261.1</ele>
        <time>2021-08-19T08:07:35Z</time>
      </trkpt>
      <trkpt lat="44.66959" lon="2.57231">
        <ele>261.7</ele>
        <time>2021-08-19T08:07:37Z</time>
      </trkpt>
      <trkpt lat="44.66966" lon="2.57229">
        <ele>262.3</ele>
        <time>2021-08-19T08:07:39Z</time>
      </trkpt>
      <trkpt lat="44.66973" lon="2.57228">
        <ele>262.7</ele>
        <time>2021-08-19T08:07:41Z</time>
      </trkpt>
      <trkpt lat="44.66979" lon="2.57227">
        <ele>262.7</ele>
        <time>2021-08-19T08:07:43Z</time>
      </trkpt>
      <trkpt lat="44.66986" lon="2.57225">
        <ele>263.2</ele>
        <time>2021-08-19T08:07:45Z</time>
      </trkpt>
      <trkpt lat="44.66993" lon="2.57225">
        <ele>263.2</ele>
        <time>2021-08-19T08:07:47Z</time>
      </trkpt>
      <trkpt lat="44.67" lon="2.57225">
        <ele>262.9</ele>
        <time>2021-08-19T08:07:49Z</time>
      </trkpt>
      <trkpt lat="44.67008" lon="2.57225">
        <ele>263.3</ele>
        <time>2021-08-19T08:07:51Z</time>
      </trkpt>
      <trkpt lat="44.67015" lon="2.57225">
        <ele>263.4</ele>
        <time>2021-08-19T08:07:53Z</time>
      </trkpt>
      <trkpt lat="44.67023" lon="2.57226">
        <ele>263.4</ele>
        <time>2021-08-19T08:07:55Z</time>
      </trkpt>
      <trkpt lat="44.67031" lon="2.57227">
        <ele>263.6</ele>
        <time>2021-08-19T08:07:57Z</time>
      </trkpt>
      <trkpt lat="44.67039" lon="2.57227">
        <ele>263.8</ele>
        <time>2021-08-19T08:07:59Z</time>
      </trkpt>
      <trkpt lat="44.67048" lon="2.57229">
        <ele>263.6</ele>
        <time>2021-08-19T08:08:01Z</time>
      </trkpt>
      <trkpt lat="44.67057" lon="2.57229">
        <ele>263.9</ele>
        <time>2021-08-19T08:08:03Z</time>
      </trkpt>
      <trkpt lat="44.67066" lon="2.5723">
        <ele>264</ele>
        <time>2021-08-19T08:08:05Z</time>
      </trkpt>
      <trkpt lat="44.67075" lon="2.57231">
        <ele>264.3</ele>
        <time>2021-08-19T08:08:07Z</time>
      </trkpt>
      <trkpt lat="44.67085" lon="2.57231">
        <ele>264.5</ele>
        <time>2021-08-19T08:08:09Z</time>
      </trkpt>
      <trkpt lat="44.67095" lon="2.57233">
        <ele>264.5</ele>
        <time>2021-08-19T08:08:11Z</time>
      </trkpt>
      <trkpt lat="44.67105" lon="2.57234">
        <ele>264.6</ele>
        <time>2021-08-19T08:08:13Z</time>
      </trkpt>
      <trkpt lat="44.67115" lon="2.57234">
        <ele>265</ele>
        <time>2021-08-19T08:08:15Z</time>
      </trkpt>
      <trkpt lat="44.67126" lon="2.57235">
        <ele>265.1</ele>
        <time>2021-08-19T08:08:17Z</time>
      </trkpt>
      <trkpt lat="44.67137" lon="2.57237">
        <ele>264.8</ele>
        <time>2021-08-19T08:08:19Z</time>
      </trkpt>
      <trkpt lat="44.67147" lon="2.57239">
        <ele>264.6</ele>
        <time>2021-08-19T08:08:21Z</time>
      </trkpt>
      <trkpt lat="44.67158" lon="2.5724">
        <ele>264.6</ele>
        <time>2021-08-19T08:08:23Z</time>
      </trkpt>
      <trkpt lat="44.67169" lon="2.57241">
        <ele>264.7</ele>
        <time>2021-08-19T08:08:25Z</time>
      </trkpt>
      <trkpt lat="44.67181" lon="2.57244">
        <ele>265</ele>
        <time>2021-08-19T08:08:27Z</time>
      </trkpt>
      <trkpt lat="44.67192" lon="2.57246">
        <ele>265</ele>
        <time>2021-08-19T08:08:29Z</time>
      </trkpt>
      <trkpt lat="44.67202" lon="2.57248">
        <ele>265.3</ele>
        <time>2021-08-19T08:08:31Z</time>
      </trkpt>
      <trkpt lat="44.67213" lon="2.57251">
        <ele>265.2</ele>
        <time>2021-08-19T08:08:33Z</time>
      </trkpt>
      <trkpt lat="44.67223" lon="2.57255">
        <ele>265.7</ele>
        <time>2021-08-19T08:08:35Z</time>
      </trkpt>
      <trkpt lat="44.67234" lon="2.57258">
        <ele>266.2</ele>
        <time>2021-08-19T08:08:37Z</time>
      </trkpt>
      <trkpt lat="44.67246" lon="2.57261">
        <ele>266.8</ele>
        <time>2021-08-19T08:08:39Z</time>
      </trkpt>
      <trkpt lat="44.67259" lon="2.57265">
        <ele>267.8</ele>
        <time>2021-08-19T08:08:41Z</time>
      </trkpt>
      <trkpt lat="44.67271" lon="2.57272">
        <ele>268.2</ele>
        <time>2021-08-19T08:08:43Z</time>
      </trkpt>
      <trkpt lat="44.67283" lon="2.57278">
        <ele>268.1</ele>
        <time>2021-08-19T08:08:45Z</time>
      </trkpt>
      <trkpt lat="44.67298" lon="2.57283">
        <ele>268.7</ele>
        <time>2021-08-19T08:08:47Z</time>
      </trkpt>
      <trkpt lat="44.67312" lon="2.5729">
        <ele>267.7</ele>
        <time>2021-08-19T08:08:49Z</time>
      </trkpt>
      <trkpt lat="44.67327" lon="2.57298">
        <ele>266.2</ele>
        <time>2021-08-19T08:08:51Z</time>
      </trkpt>
      <trkpt lat="44.67342" lon="2.57306">
        <ele>264.9</ele>
        <time>2021-08-19T08:08:53Z</time>
      </trkpt>
      <trkpt lat="44.67357" lon="2.57314">
        <ele>264.1</ele>
        <time>2021-08-19T08:08:55Z</time>
      </trkpt>
      <trkpt lat="44.67373" lon="2.57324">
        <ele>262.5</ele>
        <time>2021-08-19T08:08:57Z</time>
      </trkpt>
      <trkpt lat="44.67389" lon="2.57332">
        <ele>261</ele>
        <time>2021-08-19T08:08:59Z</time>
      </trkpt>
      <trkpt lat="44.67406" lon="2.57341">
        <ele>261.7</ele>
        <time>2021-08-19T08:09:01Z</time>
      </trkpt>
      <trkpt lat="44.67422" lon="2.57351">
        <ele>262.3</ele>
        <time>2021-08-19T08:09:03Z</time>
      </trkpt>
      <trkpt lat="44.67439" lon="2.5736">
        <ele>262.3</ele>
        <time>2021-08-19T08:09:05Z</time>
      </trkpt>
      <trkpt lat="44.67455" lon="2.57369">
        <ele>261.5</ele>
        <time>2021-08-19T08:09:07Z</time>
      </trkpt>
      <trkpt lat="44.6747" lon="2.57376">
        <ele>260.5</ele>
        <time>2021-08-19T08:09:09Z</time>
      </trkpt>
      <trkpt lat="44.67485" lon="2.57383">
        <ele>259.3</ele>
        <time>2021-08-19T08:09:11Z</time>
      </trkpt>
      <trkpt lat="44.67499" lon="2.57388">
        <ele>258.1</ele>
        <time>2021-08-19T08:09:13Z</time>
      </trkpt>
      <trkpt lat="44.67514" lon="2.57392">
        <ele>257.2</ele>
        <time>2021-08-19T08:09:15Z</time>
      </trkpt>
      <trkpt lat="44.67528" lon="2.57395">
        <ele>256.4</ele>
        <time>2021-08-19T08:09:17Z</time>
      </trkpt>
      <trkpt lat="44.6754" lon="2.57398">
        <ele>256</ele>
        <time>2021-08-19T08:09:19Z</time>
      </trkpt>
      <trkpt lat="44.67553" lon="2.57399">
        <ele>256.3</ele>
        <time>2021-08-19T08:09:21Z</time>
      </trkpt>
      <trkpt lat="44.67566" lon="2.57399">
        <ele>257.1</ele>
        <time>2021-08-19T08:09:23Z</time>
      </trkpt>
      <trkpt lat="44.67578" lon="2.57399">
        <ele>258</ele>
        <time>2021-08-19T08:09:25Z</time>
      </trkpt>
      <trkpt lat="44.6759" lon="2.57397">
        <ele>258.4</ele>
        <time>2021-08-19T08:09:27Z</time>
      </trkpt>
      <trkpt lat="44.67602" lon="2.57394">
        <ele>258.5</ele>
        <time>2021-08-19T08:09:29Z</time>
      </trkpt>
      <trkpt lat="44.67613" lon="2.57392">
        <ele>258.2</ele>
        <time>2021-08-19T08:09:31Z</time>
      </trkpt>
      <trkpt lat="44.67624" lon="2.57385">
        <ele>258.9</ele>
        <time>2021-08-19T08:09:33Z</time>
      </trkpt>
      <trkpt lat="44.67636" lon="2.5738">
        <ele>258.9</ele>
        <time>2021-08-19T08:09:35Z</time>
      </trkpt>
      <trkpt lat="44.67648" lon="2.57376">
        <ele>258.3</ele>
        <time>2021-08-19T08:09:37Z</time>
      </trkpt>
      <trkpt lat="44.67658" lon="2.57373">
        <ele>257.4</ele>
        <time>2021-08-19T08:09:39Z</time>
      </trkpt>
      <trkpt lat="44.6767" lon="2.57368">
        <ele>256.6</ele>
        <time>2021-08-19T08:09:41Z</time>
      </trkpt>
      <trkpt lat="44.67681" lon="2.57363">
        <ele>256.3</ele>
        <time>2021-08-19T08:09:43Z</time>
      </trkpt>
      <trkpt lat="44.67692" lon="2.5736">
        <ele>255.9</ele>
        <time>2021-08-19T08:09:45Z</time>
      </trkpt>
      <trkpt lat="44.67704" lon="2.57356">
        <ele>255.5</ele>
        <time>2021-08-19T08:09:47Z</time>
      </trkpt>
      <trkpt lat="44.67715" lon="2.57352">
        <ele>255.1</ele>
        <time>2021-08-19T08:09:49Z</time>
      </trkpt>
      <trkpt lat="44.67726" lon="2.57347">
        <ele>254.9</ele>
        <time>2021-08-19T08:09:51Z</time>
      </trkpt>
      <trkpt lat="44.67737" lon="2.57343">
        <ele>254.7</ele>
        <time>2021-08-19T08:09:53Z</time>
      </trkpt>
      <trkpt lat="44.67748" lon="2.57338">
        <ele>254.5</ele>
        <time>2021-08-19T08:09:55Z</time>
      </trkpt>
      <trkpt lat="44.67759" lon="2.57334">
        <ele>254.1</ele>
        <time>2021-08-19T08:09:57Z</time>
      </trkpt>
      <trkpt lat="44.6777" lon="2.57328">
        <ele>255</ele>
        <time>2021-08-19T08:09:59Z</time>
      </trkpt>
      <trkpt lat="44.67782" lon="2.57324">
        <ele>255.6</ele>
        <time>2021-08-19T08:10:01Z</time>
      </trkpt>
      <trkpt lat="44.67793" lon="2.57319">
        <ele>256.5</ele>
        <time>2021-08-19T08:10:03Z</time>
      </trkpt>
      <trkpt lat="44.67804" lon="2.57314">
        <ele>257.3</ele>
        <time>2021-08-19T08:10:05Z</time>
      </trkpt>
      <trkpt lat="44.67815" lon="2.57309">
        <ele>258</ele>
        <time>2021-08-19T08:10:07Z</time>
      </trkpt>
      <trkpt lat="44.67826" lon="2.57304">
        <ele>259</ele>
        <time>2021-08-19T08:10:09Z</time>
      </trkpt>
      <trkpt lat="44.67837" lon="2.573">
        <ele>259.3</ele>
        <time>2021-08-19T08:10:11Z</time>
      </trkpt>
      <trkpt lat="44.67848" lon="2.57295">
        <ele>259.9</ele>
        <time>2021-08-19T08:10:13Z</time>
      </trkpt>
      <trkpt lat="44.6786" lon="2.5729">
        <ele>260.1</ele>
        <time>2021-08-19T08:10:15Z</time>
      </trkpt>
      <trkpt lat="44.6787" lon="2.57286">
        <ele>259.8</ele>
        <time>2021-08-19T08:10:17Z</time>
      </trkpt>
      <trkpt lat="44.67881" lon="2.57282">
        <ele>259.5</ele>
        <time>2021-08-19T08:10:19Z</time>
      </trkpt>
      <trkpt lat="44.67892" lon="2.57279">
        <ele>258.8</ele>
        <time>2021-08-19T08:10:21Z</time>
      </trkpt>
      <trkpt lat="44.67902" lon="2.57275">
        <ele>258.4</ele>
        <time>2021-08-19T08:10:23Z</time>
      </trkpt>
      <trkpt lat="44.67911" lon="2.5727">
        <ele>258.1</ele>
        <time>2021-08-19T08:10:25Z</time>
      </trkpt>
      <trkpt lat="44.67922" lon="2.57266">
        <ele>257.7</ele>
        <time>2021-08-19T08:10:27Z</time>
      </trkpt>
      <trkpt lat="44.67931" lon="2.57263">
        <ele>257.5</ele>
        <time>2021-08-19T08:10:29Z</time>
      </trkpt>
      <trkpt lat="44.6794" lon="2.57258">
        <ele>257.5</ele>
        <time>2021-08-19T08:10:31Z</time>
      </trkpt>
      <trkpt lat="44.6795" lon="2.57254">
        <ele>257.3</ele>
        <time>2021-08-19T08:10:33Z</time>
      </trkpt>
      <trkpt lat="44.67959" lon="2.57251">
        <ele>256.7</ele>
        <time>2021-08-19T08:10:35Z</time>
      </trkpt>
      <trkpt lat="44.67968" lon="2.57247">
        <ele>257.6</ele>
        <time>2021-08-19T08:10:37Z</time>
      </trkpt>
      <trkpt lat="44.67977" lon="2.57243">
        <ele>258.8</ele>
        <time>2021-08-19T08:10:39Z</time>
      </trkpt>
      <trkpt lat="44.67987" lon="2.57238">
        <ele>259.8</ele>
        <time>2021-08-19T08:10:41Z</time>
      </trkpt>
      <trkpt lat="44.67996" lon="2.57235">
        <ele>260.5</ele>
        <time>2021-08-19T08:10:43Z</time>
      </trkpt>
      <trkpt lat="44.68005" lon="2.5723">
        <ele>261.7</ele>
        <time>2021-08-19T08:10:45Z</time>
      </trkpt>
      <trkpt lat="44.68014" lon="2.57227">
        <ele>262.3</ele>
        <time>2021-08-19T08:10:47Z</time>
      </trkpt>
      <trkpt lat="44.68023" lon="2.57223">
        <ele>262.6</ele>
        <time>2021-08-19T08:10:49Z</time>
      </trkpt>
      <trkpt lat="44.68032" lon="2.5722">
        <ele>262.8</ele>
        <time>2021-08-19T08:10:51Z</time>
      </trkpt>
      <trkpt lat="44.68041" lon="2.57217">
        <ele>262.6</ele>
        <time>2021-08-19T08:10:53Z</time>
      </trkpt>
      <trkpt lat="44.6805" lon="2.57214">
        <ele>262.5</ele>
        <time>2021-08-19T08:10:55Z</time>
      </trkpt>
      <trkpt lat="44.68059" lon="2.5721">
        <ele>262</ele>
        <time>2021-08-19T08:10:57Z</time>
      </trkpt>
      <trkpt lat="44.68067" lon="2.57206">
        <ele>261.8</ele>
        <time>2021-08-19T08:10:59Z</time>
      </trkpt>
      <trkpt lat="44.68076" lon="2.57202">
        <ele>261</ele>
        <time>2021-08-19T08:11:01Z</time>
      </trkpt>
      <trkpt lat="44.68084" lon="2.57198">
        <ele>260.1</ele>
        <time>2021-08-19T08:11:03Z</time>
      </trkpt>
      <trkpt lat="44.68092" lon="2.57194">
        <ele>259.2</ele>
        <time>2021-08-19T08:11:05Z</time>
      </trkpt>
      <trkpt lat="44.681" lon="2.57188">
        <ele>258.3</ele>
        <time>2021-08-19T08:11:07Z</time>
      </trkpt>
      <trkpt lat="44.68108" lon="2.57184">
        <ele>257</ele>
        <time>2021-08-19T08:11:09Z</time>
      </trkpt>
      <trkpt lat="44.68116" lon="2.57177">
        <ele>256</ele>
        <time>2021-08-19T08:11:11Z</time>
      </trkpt>
      <trkpt lat="44.68124" lon="2.57171">
        <ele>254.6</ele>
        <time>2021-08-19T08:11:13Z</time>
      </trkpt>
      <trkpt lat="44.68132" lon="2.57165">
        <ele>253.3</ele>
        <time>2021-08-19T08:11:15Z</time>
      </trkpt>
      <trkpt lat="44.68139" lon="2.57159">
        <ele>252.6</ele>
        <time>2021-08-19T08:11:17Z</time>
      </trkpt>
      <trkpt lat="44.68146" lon="2.57152">
        <ele>252</ele>
        <time>2021-08-19T08:11:19Z</time>
      </trkpt>
      <trkpt lat="44.68153" lon="2.57145">
        <ele>251.1</ele>
        <time>2021-08-19T08:11:21Z</time>
      </trkpt>
      <trkpt lat="44.6816" lon="2.57138">
        <ele>250.3</ele>
        <time>2021-08-19T08:11:23Z</time>
      </trkpt>
      <trkpt lat="44.68168" lon="2.5713">
        <ele>249.5</ele>
        <time>2021-08-19T08:11:25Z</time>
      </trkpt>
      <trkpt lat="44.68176" lon="2.57124">
        <ele>250.6</ele>
        <time>2021-08-19T08:11:27Z</time>
      </trkpt>
      <trkpt lat="44.68184" lon="2.57118">
        <ele>251.6</ele>
        <time>2021-08-19T08:11:29Z</time>
      </trkpt>
      <trkpt lat="44.68193" lon="2.57113">
        <ele>252.5</ele>
        <time>2021-08-19T08:11:31Z</time>
      </trkpt>
      <trkpt lat="44.68202" lon="2.57108">
        <ele>253.2</ele>
        <time>2021-08-19T08:11:33Z</time>
      </trkpt>
      <trkpt lat="44.68212" lon="2.57105">
        <ele>253.7</ele>
        <time>2021-08-19T08:11:35Z</time>
      </trkpt>
      <trkpt lat="44.68222" lon="2.57101">
        <ele>254.3</ele>
        <time>2021-08-19T08:11:37Z</time>
      </trkpt>
      <trkpt lat="44.68232" lon="2.57099">
        <ele>254.6</ele>
        <time>2021-08-19T08:11:39Z</time>
      </trkpt>
      <trkpt lat="44.68242" lon="2.57096">
        <ele>254.9</ele>
        <time>2021-08-19T08:11:41Z</time>
      </trkpt>
      <trkpt lat="44.68252" lon="2.57093">
        <ele>255.3</ele>
        <time>2021-08-19T08:11:43Z</time>
      </trkpt>
      <trkpt lat="44.68262" lon="2.5709">
        <ele>255</ele>
        <time>2021-08-19T08:11:45Z</time>
      </trkpt>
      <trkpt lat="44.68273" lon="2.57087">
        <ele>254.7</ele>
        <time>2021-08-19T08:11:47Z</time>
      </trkpt>
      <trkpt lat="44.68283" lon="2.57084">
        <ele>254.1</ele>
        <time>2021-08-19T08:11:49Z</time>
      </trkpt>
      <trkpt lat="44.68294" lon="2.57082">
        <ele>253.9</ele>
        <time>2021-08-19T08:11:51Z</time>
      </trkpt>
      <trkpt lat="44.68304" lon="2.57078">
        <ele>254.2</ele>
        <time>2021-08-19T08:11:53Z</time>
      </trkpt>
      <trkpt lat="44.68314" lon="2.57075">
        <ele>254.7</ele>
        <time>2021-08-19T08:11:55Z</time>
      </trkpt>
      <trkpt lat="44.68325" lon="2.57072">
        <ele>254.6</ele>
        <time>2021-08-19T08:11:57Z</time>
      </trkpt>
      <trkpt lat="44.68335" lon="2.57069">
        <ele>254.7</ele>
        <time>2021-08-19T08:11:59Z</time>
      </trkpt>
      <trkpt lat="44.68346" lon="2.57067">
        <ele>254.8</ele>
        <time>2021-08-19T08:12:01Z</time>
      </trkpt>
      <trkpt lat="44.68357" lon="2.57064">
        <ele>254.9</ele>
        <time>2021-08-19T08:12:03Z</time>
      </trkpt>
      <trkpt lat="44.68367" lon="2.57061">
        <ele>255</ele>
        <time>2021-08-19T08:12:05Z</time>
      </trkpt>
      <trkpt lat="44.68377" lon="2.57058">
        <ele>255.2</ele>
        <time>2021-08-19T08:12:07Z</time>
      </trkpt>
      <trkpt lat="44.68388" lon="2.57055">
        <ele>255.3</ele>
        <time>2021-08-19T08:12:09Z</time>
      </trkpt>
      <trkpt lat="44.68398" lon="2.57051">
        <ele>255.6</ele>
        <time>2021-08-19T08:12:11Z</time>
      </trkpt>
      <trkpt lat="44.68407" lon="2.57047">
        <ele>256</ele>
        <time>2021-08-19T08:12:13Z</time>
      </trkpt>
      <trkpt lat="44.68417" lon="2.57042">
        <ele>256.5</ele>
        <time>2021-08-19T08:12:15Z</time>
      </trkpt>
      <trkpt lat="44.68427" lon="2.57037">
        <ele>257.4</ele>
        <time>2021-08-19T08:12:17Z</time>
      </trkpt>
      <trkpt lat="44.68436" lon="2.57031">
        <ele>258.2</ele>
        <time>2021-08-19T08:12:19Z</time>
      </trkpt>
      <trkpt lat="44.68445" lon="2.57026">
        <ele>258.9</ele>
        <time>2021-08-19T08:12:21Z</time>
      </trkpt>
      <trkpt lat="44.68454" lon="2.5702">
        <ele>259.4</ele>
        <time>2021-08-19T08:12:23Z</time>
      </trkpt>
      <trkpt lat="44.68463" lon="2.57016">
        <ele>259.7</ele>
        <time>2021-08-19T08:12:25Z</time>
      </trkpt>
      <trkpt lat="44.68472" lon="2.57011">
        <ele>260</ele>
        <time>2021-08-19T08:12:27Z</time>
      </trkpt>
      <trkpt lat="44.6848" lon="2.57005">
        <ele>260.1</ele>
        <time>2021-08-19T08:12:29Z</time>
      </trkpt>
      <trkpt lat="44.6849" lon="2.57">
        <ele>260.1</ele>
        <time>2021-08-19T08:12:31Z</time>
      </trkpt>
      <trkpt lat="44.68498" lon="2.56994">
        <ele>262</ele>
        <time>2021-08-19T08:12:33Z</time>
      </trkpt>
      <trkpt lat="44.68506" lon="2.56989">
        <ele>263</ele>
        <time>2021-08-19T08:12:35Z</time>
      </trkpt>
      <trkpt lat="44.68515" lon="2.56984">
        <ele>263.3</ele>
        <time>2021-08-19T08:12:37Z</time>
      </trkpt>
      <trkpt lat="44.68523" lon="2.56981">
        <ele>263.1</ele>
        <time>2021-08-19T08:12:39Z</time>
      </trkpt>
      <trkpt lat="44.68532" lon="2.56977">
        <ele>263.2</ele>
        <time>2021-08-19T08:12:41Z</time>
      </trkpt>
      <trkpt lat="44.68541" lon="2.56973">
        <ele>263.1</ele>
        <time>2021-08-19T08:12:43Z</time>
      </trkpt>
      <trkpt lat="44.6855" lon="2.56971">
        <ele>262.5</ele>
        <time>2021-08-19T08:12:45Z</time>
      </trkpt>
      <trkpt lat="44.6856" lon="2.56968">
        <ele>261.6</ele>
        <time>2021-08-19T08:12:47Z</time>
      </trkpt>
      <trkpt lat="44.68569" lon="2.56966">
        <ele>260.7</ele>
        <time>2021-08-19T08:12:49Z</time>
      </trkpt>
      <trkpt lat="44.68578" lon="2.56963">
        <ele>260.1</ele>
        <time>2021-08-19T08:12:51Z</time>
      </trkpt>
      <trkpt lat="44.68587" lon="2.56961">
        <ele>259.8</ele>
        <time>2021-08-19T08:12:53Z</time>
      </trkpt>
      <trkpt lat="44.68596" lon="2.56959">
        <ele>260.1</ele>
        <time>2021-08-19T08:12:55Z</time>
      </trkpt>
      <trkpt lat="44.68605" lon="2.56956">
        <ele>260.4</ele>
        <time>2021-08-19T08:12:57Z</time>
      </trkpt>
      <trkpt lat="44.68613" lon="2.56953">
        <ele>261</ele>
        <time>2021-08-19T08:12:59Z</time>
      </trkpt>
      <trkpt lat="44.68621" lon="2.5695">
        <ele>261.6</ele>
        <time>2021-08-19T08:13:01Z</time>
      </trkpt>
      <trkpt lat="44.68629" lon="2.56948">
        <ele>261.7</ele>
        <time>2021-08-19T08:13:03Z</time>
      </trkpt>
      <trkpt lat="44.68633" lon="2.56948">
        <ele>261.3</ele>
        <time>2021-08-19T08:13:05Z</time>
      </trkpt>
      <trkpt lat="44.68635" lon="2.56948">
        <ele>261</ele>
        <time>2021-08-19T08:13:07Z</time>
      </trkpt>
      <trkpt lat="44.68635" lon="2.56948">
        <ele>260.9</ele>
        <time>2021-08-19T08:13:09Z</time>
      </trkpt>
      <trkpt lat="44.68635" lon="2.56948">
        <ele>261</ele>
        <time>2021-08-19T08:13:11Z</time>
      </trkpt>
      <trkpt lat="44.68634" lon="2.56948">
        <ele>261.1</ele>
        <time>2021-08-19T08:13:13Z</time>
      </trkpt>
      <trkpt lat="44.68634" lon="2.56948">
        <ele>261.2</ele>
        <time>2021-08-19T08:13:15Z</time>
      </trkpt>
      <trkpt lat="44.6865" lon="2.56937">
        <ele>263.3</ele>
        <time>2021-08-19T08:15:49Z</time>
      </trkpt>
      <trkpt lat="44.68658" lon="2.56936">
        <ele>263.1</ele>
        <time>2021-08-19T08:15:51Z</time>
      </trkpt>
      <trkpt lat="44.68665" lon="2.56933">
        <ele>263.2</ele>
        <time>2021-08-19T08:15:53Z</time>
      </trkpt>
      <trkpt lat="44.68673" lon="2.56931">
        <ele>263.5</ele>
        <time>2021-08-19T08:15:55Z</time>
      </trkpt>
      <trkpt lat="44.68682" lon="2.56928">
        <ele>264.1</ele>
        <time>2021-08-19T08:15:57Z</time>
      </trkpt>
      <trkpt lat="44.6869" lon="2.56925">
        <ele>264.7</ele>
        <time>2021-08-19T08:15:59Z</time>
      </trkpt>
      <trkpt lat="44.68699" lon="2.56923">
        <ele>265.1</ele>
        <time>2021-08-19T08:16:01Z</time>
      </trkpt>
      <trkpt lat="44.68709" lon="2.5692">
        <ele>265.6</ele>
        <time>2021-08-19T08:16:03Z</time>
      </trkpt>
      <trkpt lat="44.68719" lon="2.56918">
        <ele>265.6</ele>
        <time>2021-08-19T08:16:05Z</time>
      </trkpt>
      <trkpt lat="44.6873" lon="2.56918">
        <ele>265.4</ele>
        <time>2021-08-19T08:16:07Z</time>
      </trkpt>
      <trkpt lat="44.68741" lon="2.56917">
        <ele>265.4</ele>
        <time>2021-08-19T08:16:09Z</time>
      </trkpt>
      <trkpt lat="44.68751" lon="2.56916">
        <ele>265.5</ele>
        <time>2021-08-19T08:16:11Z</time>
      </trkpt>
      <trkpt lat="44.68762" lon="2.56915">
        <ele>266</ele>
        <time>2021-08-19T08:16:13Z</time>
      </trkpt>
      <trkpt lat="44.68773" lon="2.56916">
        <ele>265.9</ele>
        <time>2021-08-19T08:16:15Z</time>
      </trkpt>
      <trkpt lat="44.68783" lon="2.56916">
        <ele>265.9</ele>
        <time>2021-08-19T08:16:17Z</time>
      </trkpt>
      <trkpt lat="44.68794" lon="2.56918">
        <ele>265.8</ele>
        <time>2021-08-19T08:16:19Z</time>
      </trkpt>
      <trkpt lat="44.68805" lon="2.56921">
        <ele>265.2</ele>
        <time>2021-08-19T08:16:21Z</time>
      </trkpt>
      <trkpt lat="44.68816" lon="2.5692">
        <ele>265.6</ele>
        <time>2021-08-19T08:16:23Z</time>
      </trkpt>
      <trkpt lat="44.68827" lon="2.56921">
        <ele>265.7</ele>
        <time>2021-08-19T08:16:25Z</time>
      </trkpt>
      <trkpt lat="44.68838" lon="2.56922">
        <ele>265.6</ele>
        <time>2021-08-19T08:16:27Z</time>
      </trkpt>
      <trkpt lat="44.68848" lon="2.56923">
        <ele>265.4</ele>
        <time>2021-08-19T08:16:29Z</time>
      </trkpt>
      <trkpt lat="44.68859" lon="2.56926">
        <ele>264.9</ele>
        <time>2021-08-19T08:16:31Z</time>
      </trkpt>
      <trkpt lat="44.68868" lon="2.56927">
        <ele>264.6</ele>
        <time>2021-08-19T08:16:33Z</time>
      </trkpt>
      <trkpt lat="44.68877" lon="2.56928">
        <ele>264.5</ele>
        <time>2021-08-19T08:16:35Z</time>
      </trkpt>
      <trkpt lat="44.68886" lon="2.56929">
        <ele>264.2</ele>
        <time>2021-08-19T08:16:37Z</time>
      </trkpt>
      <trkpt lat="44.68894" lon="2.5693">
        <ele>264.1</ele>
        <time>2021-08-19T08:16:39Z</time>
      </trkpt>
      <trkpt lat="44.68902" lon="2.56932">
        <ele>263.6</ele>
        <time>2021-08-19T08:16:41Z</time>
      </trkpt>
      <trkpt lat="44.6891" lon="2.56934">
        <ele>263.1</ele>
        <time>2021-08-19T08:16:43Z</time>
      </trkpt>
      <trkpt lat="44.68917" lon="2.56935">
        <ele>262.9</ele>
        <time>2021-08-19T08:16:45Z</time>
      </trkpt>
      <trkpt lat="44.68923" lon="2.56936">
        <ele>262.9</ele>
        <time>2021-08-19T08:16:47Z</time>
      </trkpt>
      <trkpt lat="44.6893" lon="2.56938">
        <ele>262.8</ele>
        <time>2021-08-19T08:16:49Z</time>
      </trkpt>
      <trkpt lat="44.68937" lon="2.56939">
        <ele>262.9</ele>
        <time>2021-08-19T08:16:51Z</time>
      </trkpt>
      <trkpt lat="44.68943" lon="2.56939">
        <ele>263</ele>
        <time>2021-08-19T08:16:53Z</time>
      </trkpt>
      <trkpt lat="44.6895" lon="2.5694">
        <ele>263.1</ele>
        <time>2021-08-19T08:16:55Z</time>
      </trkpt>
      <trkpt lat="44.68956" lon="2.56942">
        <ele>263.1</ele>
        <time>2021-08-19T08:16:57Z</time>
      </trkpt>
      <trkpt lat="44.68963" lon="2.56942">
        <ele>263.1</ele>
        <time>2021-08-19T08:16:59Z</time>
      </trkpt>
      <trkpt lat="44.68969" lon="2.56944">
        <ele>263.1</ele>
        <time>2021-08-19T08:17:01Z</time>
      </trkpt>
      <trkpt lat="44.68975" lon="2.56945">
        <ele>262.9</ele>
        <time>2021-08-19T08:17:03Z</time>
      </trkpt>
      <trkpt lat="44.68981" lon="2.56946">
        <ele>262.9</ele>
        <time>2021-08-19T08:17:05Z</time>
      </trkpt>
      <trkpt lat="44.68987" lon="2.56948">
        <ele>262.7</ele>
        <time>2021-08-19T08:17:07Z</time>
      </trkpt>
      <trkpt lat="44.68993" lon="2.56949">
        <ele>262.6</ele>
        <time>2021-08-19T08:17:09Z</time>
      </trkpt>
      <trkpt lat="44.69" lon="2.56951">
        <ele>262.3</ele>
        <time>2021-08-19T08:17:11Z</time>
      </trkpt>
      <trkpt lat="44.69005" lon="2.56953">
        <ele>262.2</ele>
        <time>2021-08-19T08:17:13Z</time>
      </trkpt>
      <trkpt lat="44.69011" lon="2.56955">
        <ele>262.3</ele>
        <time>2021-08-19T08:17:15Z</time>
      </trkpt>
      <trkpt lat="44.69017" lon="2.56956">
        <ele>262.4</ele>
        <time>2021-08-19T08:17:17Z</time>
      </trkpt>
      <trkpt lat="44.69023" lon="2.56957">
        <ele>262.7</ele>
        <time>2021-08-19T08:17:19Z</time>
      </trkpt>
      <trkpt lat="44.69029" lon="2.56958">
        <ele>262.9</ele>
        <time>2021-08-19T08:17:21Z</time>
      </trkpt>
      <trkpt lat="44.69035" lon="2.5696">
        <ele>262.9</ele>
        <time>2021-08-19T08:17:23Z</time>
      </trkpt>
      <trkpt lat="44.69041" lon="2.56961">
        <ele>262.8</ele>
        <time>2021-08-19T08:17:25Z</time>
      </trkpt>
      <trkpt lat="44.69047" lon="2.56964">
        <ele>262.4</ele>
        <time>2021-08-19T08:17:27Z</time>
      </trkpt>
      <trkpt lat="44.69053" lon="2.56967">
        <ele>262</ele>
        <time>2021-08-19T08:17:29Z</time>
      </trkpt>
      <trkpt lat="44.69059" lon="2.56969">
        <ele>261.6</ele>
        <time>2021-08-19T08:17:31Z</time>
      </trkpt>
      <trkpt lat="44.69065" lon="2.56972">
        <ele>261</ele>
        <time>2021-08-19T08:17:33Z</time>
      </trkpt>
      <trkpt lat="44.69072" lon="2.56974">
        <ele>260.5</ele>
        <time>2021-08-19T08:17:35Z</time>
      </trkpt>
      <trkpt lat="44.69077" lon="2.56977">
        <ele>259.9</ele>
        <time>2021-08-19T08:17:37Z</time>
      </trkpt>
      <trkpt lat="44.69083" lon="2.5698">
        <ele>259.3</ele>
        <time>2021-08-19T08:17:39Z</time>
      </trkpt>
      <trkpt lat="44.69089" lon="2.56982">
        <ele>259.6</ele>
        <time>2021-08-19T08:17:41Z</time>
      </trkpt>
      <trkpt lat="44.69096" lon="2.56984">
        <ele>259.9</ele>
        <time>2021-08-19T08:17:43Z</time>
      </trkpt>
      <trkpt lat="44.69102" lon="2.56987">
        <ele>259.9</ele>
        <time>2021-08-19T08:17:45Z</time>
      </trkpt>
      <trkpt lat="44.69108" lon="2.56989">
        <ele>259.9</ele>
        <time>2021-08-19T08:17:47Z</time>
      </trkpt>
      <trkpt lat="44.69115" lon="2.56991">
        <ele>260.2</ele>
        <time>2021-08-19T08:17:49Z</time>
      </trkpt>
      <trkpt lat="44.69121" lon="2.56993">
        <ele>260.5</ele>
        <time>2021-08-19T08:17:51Z</time>
      </trkpt>
      <trkpt lat="44.69127" lon="2.56996">
        <ele>260.7</ele>
        <time>2021-08-19T08:17:53Z</time>
      </trkpt>
      <trkpt lat="44.69133" lon="2.56998">
        <ele>260.9</ele>
        <time>2021-08-19T08:17:55Z</time>
      </trkpt>
      <trkpt lat="44.69139" lon="2.57">
        <ele>260.9</ele>
        <time>2021-08-19T08:17:57Z</time>
      </trkpt>
      <trkpt lat="44.69144" lon="2.57002">
        <ele>261.4</ele>
        <time>2021-08-19T08:17:59Z</time>
      </trkpt>
      <trkpt lat="44.69149" lon="2.57005">
        <ele>261.7</ele>
        <time>2021-08-19T08:18:01Z</time>
      </trkpt>
      <trkpt lat="44.69155" lon="2.57008">
        <ele>261.9</ele>
        <time>2021-08-19T08:18:03Z</time>
      </trkpt>
      <trkpt lat="44.6916" lon="2.57011">
        <ele>262.2</ele>
        <time>2021-08-19T08:18:05Z</time>
      </trkpt>
      <trkpt lat="44.69165" lon="2.57013">
        <ele>262.6</ele>
        <time>2021-08-19T08:18:07Z</time>
      </trkpt>
      <trkpt lat="44.69171" lon="2.57014">
        <ele>263.2</ele>
        <time>2021-08-19T08:18:09Z</time>
      </trkpt>
      <trkpt lat="44.69176" lon="2.57016">
        <ele>263.5</ele>
        <time>2021-08-19T08:18:11Z</time>
      </trkpt>
      <trkpt lat="44.69182" lon="2.57019">
        <ele>264</ele>
        <time>2021-08-19T08:18:13Z</time>
      </trkpt>
      <trkpt lat="44.69189" lon="2.5702">
        <ele>264.7</ele>
        <time>2021-08-19T08:18:15Z</time>
      </trkpt>
      <trkpt lat="44.69194" lon="2.57023">
        <ele>264.8</ele>
        <time>2021-08-19T08:18:17Z</time>
      </trkpt>
      <trkpt lat="44.69199" lon="2.57026">
        <ele>265</ele>
        <time>2021-08-19T08:18:19Z</time>
      </trkpt>
      <trkpt lat="44.69205" lon="2.57028">
        <ele>265.4</ele>
        <time>2021-08-19T08:18:21Z</time>
      </trkpt>
      <trkpt lat="44.69211" lon="2.5703">
        <ele>265.7</ele>
        <time>2021-08-19T08:18:23Z</time>
      </trkpt>
      <trkpt lat="44.69217" lon="2.57033">
        <ele>266</ele>
        <time>2021-08-19T08:18:25Z</time>
      </trkpt>
      <trkpt lat="44.69222" lon="2.57036">
        <ele>265.8</ele>
        <time>2021-08-19T08:18:27Z</time>
      </trkpt>
      <trkpt lat="44.69227" lon="2.57037">
        <ele>266.3</ele>
        <time>2021-08-19T08:18:29Z</time>
      </trkpt>
      <trkpt lat="44.69233" lon="2.57039">
        <ele>266.6</ele>
        <time>2021-08-19T08:18:31Z</time>
      </trkpt>
      <trkpt lat="44.69239" lon="2.57042">
        <ele>266.6</ele>
        <time>2021-08-19T08:18:33Z</time>
      </trkpt>
      <trkpt lat="44.69245" lon="2.57044">
        <ele>266.8</ele>
        <time>2021-08-19T08:18:35Z</time>
      </trkpt>
      <trkpt lat="44.69251" lon="2.57047">
        <ele>266.8</ele>
        <time>2021-08-19T08:18:37Z</time>
      </trkpt>
      <trkpt lat="44.69256" lon="2.57049">
        <ele>265.5</ele>
        <time>2021-08-19T08:18:39Z</time>
      </trkpt>
      <trkpt lat="44.69262" lon="2.57051">
        <ele>264.3</ele>
        <time>2021-08-19T08:18:41Z</time>
      </trkpt>
      <trkpt lat="44.69268" lon="2.57053">
        <ele>263.2</ele>
        <time>2021-08-19T08:18:43Z</time>
      </trkpt>
      <trkpt lat="44.69273" lon="2.57056">
        <ele>262</ele>
        <time>2021-08-19T08:18:45Z</time>
      </trkpt>
      <trkpt lat="44.69278" lon="2.57058">
        <ele>261.1</ele>
        <time>2021-08-19T08:18:47Z</time>
      </trkpt>
      <trkpt lat="44.69284" lon="2.57059">
        <ele>260.6</ele>
        <time>2021-08-19T08:18:49Z</time>
      </trkpt>
      <trkpt lat="44.69288" lon="2.57062">
        <ele>259.8</ele>
        <time>2021-08-19T08:18:51Z</time>
      </trkpt>
      <trkpt lat="44.69293" lon="2.57065">
        <ele>259.1</ele>
        <time>2021-08-19T08:18:53Z</time>
      </trkpt>
      <trkpt lat="44.69297" lon="2.57067">
        <ele>258.5</ele>
        <time>2021-08-19T08:18:55Z</time>
      </trkpt>
      <trkpt lat="44.69302" lon="2.57069">
        <ele>258.1</ele>
        <time>2021-08-19T08:18:57Z</time>
      </trkpt>
      <trkpt lat="44.69307" lon="2.57073">
        <ele>257.5</ele>
        <time>2021-08-19T08:18:59Z</time>
      </trkpt>
      <trkpt lat="44.69312" lon="2.57077">
        <ele>257</ele>
        <time>2021-08-19T08:19:01Z</time>
      </trkpt>
      <trkpt lat="44.69318" lon="2.57082">
        <ele>256.7</ele>
        <time>2021-08-19T08:19:03Z</time>
      </trkpt>
      <trkpt lat="44.69323" lon="2.57086">
        <ele>256.4</ele>
        <time>2021-08-19T08:19:05Z</time>
      </trkpt>
      <trkpt lat="44.69328" lon="2.5709">
        <ele>256.1</ele>
        <time>2021-08-19T08:19:07Z</time>
      </trkpt>
      <trkpt lat="44.69333" lon="2.57095">
        <ele>255.7</ele>
        <time>2021-08-19T08:19:09Z</time>
      </trkpt>
      <trkpt lat="44.69337" lon="2.571">
        <ele>255.5</ele>
        <time>2021-08-19T08:19:11Z</time>
      </trkpt>
      <trkpt lat="44.69342" lon="2.57104">
        <ele>255.5</ele>
        <time>2021-08-19T08:19:13Z</time>
      </trkpt>
      <trkpt lat="44.69346" lon="2.57109">
        <ele>255.4</ele>
        <time>2021-08-19T08:19:15Z</time>
      </trkpt>
      <trkpt lat="44.6935" lon="2.57114">
        <ele>255.5</ele>
        <time>2021-08-19T08:19:17Z</time>
      </trkpt>
      <trkpt lat="44.69355" lon="2.57119">
        <ele>255.5</ele>
        <time>2021-08-19T08:19:19Z</time>
      </trkpt>
      <trkpt lat="44.69359" lon="2.57124">
        <ele>255.6</ele>
        <time>2021-08-19T08:19:21Z</time>
      </trkpt>
      <trkpt lat="44.69364" lon="2.57129">
        <ele>255.9</ele>
        <time>2021-08-19T08:19:23Z</time>
      </trkpt>
      <trkpt lat="44.69369" lon="2.57134">
        <ele>256.3</ele>
        <time>2021-08-19T08:19:25Z</time>
      </trkpt>
      <trkpt lat="44.69374" lon="2.57138">
        <ele>256.7</ele>
        <time>2021-08-19T08:19:27Z</time>
      </trkpt>
      <trkpt lat="44.69378" lon="2.57143">
        <ele>257.1</ele>
        <time>2021-08-19T08:19:29Z</time>
      </trkpt>
      <trkpt lat="44.69383" lon="2.57148">
        <ele>257.7</ele>
        <time>2021-08-19T08:19:31Z</time>
      </trkpt>
      <trkpt lat="44.69388" lon="2.57153">
        <ele>258.2</ele>
        <time>2021-08-19T08:19:33Z</time>
      </trkpt>
      <trkpt lat="44.69393" lon="2.57158">
        <ele>258.9</ele>
        <time>2021-08-19T08:19:35Z</time>
      </trkpt>
      <trkpt lat="44.69397" lon="2.57164">
        <ele>259.6</ele>
        <time>2021-08-19T08:19:37Z</time>
      </trkpt>
      <trkpt lat="44.69403" lon="2.57169">
        <ele>260.3</ele>
        <time>2021-08-19T08:19:39Z</time>
      </trkpt>
      <trkpt lat="44.69408" lon="2.57173">
        <ele>261.1</ele>
        <time>2021-08-19T08:19:41Z</time>
      </trkpt>
      <trkpt lat="44.69414" lon="2.57174">
        <ele>262.1</ele>
        <time>2021-08-19T08:19:43Z</time>
      </trkpt>
      <trkpt lat="44.6942" lon="2.57172">
        <ele>264</ele>
        <time>2021-08-19T08:19:45Z</time>
      </trkpt>
      <trkpt lat="44.69424" lon="2.57167">
        <ele>266.2</ele>
        <time>2021-08-19T08:19:47Z</time>
      </trkpt>
      <trkpt lat="44.69428" lon="2.5716">
        <ele>267.5</ele>
        <time>2021-08-19T08:19:49Z</time>
      </trkpt>
      <trkpt lat="44.69431" lon="2.57154">
        <ele>268.5</ele>
        <time>2021-08-19T08:19:51Z</time>
      </trkpt>
      <trkpt lat="44.69433" lon="2.57147">
        <ele>269.1</ele>
        <time>2021-08-19T08:19:53Z</time>
      </trkpt>
      <trkpt lat="44.69435" lon="2.57141">
        <ele>269.7</ele>
        <time>2021-08-19T08:19:55Z</time>
      </trkpt>
      <trkpt lat="44.69437" lon="2.57134">
        <ele>270.2</ele>
        <time>2021-08-19T08:19:57Z</time>
      </trkpt>
      <trkpt lat="44.6944" lon="2.57128">
        <ele>271</ele>
        <time>2021-08-19T08:19:59Z</time>
      </trkpt>
      <trkpt lat="44.69443" lon="2.57122">
        <ele>271.6</ele>
        <time>2021-08-19T08:20:01Z</time>
      </trkpt>
      <trkpt lat="44.69444" lon="2.57116">
        <ele>271.9</ele>
        <time>2021-08-19T08:20:03Z</time>
      </trkpt>
      <trkpt lat="44.69446" lon="2.57108">
        <ele>271.9</ele>
        <time>2021-08-19T08:20:05Z</time>
      </trkpt>
      <trkpt lat="44.69447" lon="2.57101">
        <ele>271.9</ele>
        <time>2021-08-19T08:20:07Z</time>
      </trkpt>
      <trkpt lat="44.69447" lon="2.57094">
        <ele>271.8</ele>
        <time>2021-08-19T08:20:09Z</time>
      </trkpt>
      <trkpt lat="44.69448" lon="2.57087">
        <ele>271.5</ele>
        <time>2021-08-19T08:20:11Z</time>
      </trkpt>
      <trkpt lat="44.69446" lon="2.57079">
        <ele>270.7</ele>
        <time>2021-08-19T08:20:13Z</time>
      </trkpt>
      <trkpt lat="44.69445" lon="2.57071">
        <ele>270</ele>
        <time>2021-08-19T08:20:15Z</time>
      </trkpt>
      <trkpt lat="44.69444" lon="2.57064">
        <ele>269.3</ele>
        <time>2021-08-19T08:20:17Z</time>
      </trkpt>
      <trkpt lat="44.69444" lon="2.57056">
        <ele>268.8</ele>
        <time>2021-08-19T08:20:19Z</time>
      </trkpt>
      <trkpt lat="44.69444" lon="2.57049">
        <ele>268.6</ele>
        <time>2021-08-19T08:20:21Z</time>
      </trkpt>
      <trkpt lat="44.69445" lon="2.57041">
        <ele>268.5</ele>
        <time>2021-08-19T08:20:23Z</time>
      </trkpt>
      <trkpt lat="44.69448" lon="2.57034">
        <ele>268.7</ele>
        <time>2021-08-19T08:20:25Z</time>
      </trkpt>
      <trkpt lat="44.69451" lon="2.57027">
        <ele>269.2</ele>
        <time>2021-08-19T08:20:27Z</time>
      </trkpt>
      <trkpt lat="44.69456" lon="2.57023">
        <ele>269.9</ele>
        <time>2021-08-19T08:20:29Z</time>
      </trkpt>
      <trkpt lat="44.69461" lon="2.57019">
        <ele>270.8</ele>
        <time>2021-08-19T08:20:31Z</time>
      </trkpt>
      <trkpt lat="44.69466" lon="2.57018">
        <ele>271.8</ele>
        <time>2021-08-19T08:20:33Z</time>
      </trkpt>
      <trkpt lat="44.69471" lon="2.57016">
        <ele>272.7</ele>
        <time>2021-08-19T08:20:35Z</time>
      </trkpt>
      <trkpt lat="44.69476" lon="2.57015">
        <ele>273.6</ele>
        <time>2021-08-19T08:20:37Z</time>
      </trkpt>
      <trkpt lat="44.69481" lon="2.57012">
        <ele>274.4</ele>
        <time>2021-08-19T08:20:39Z</time>
      </trkpt>
      <trkpt lat="44.69485" lon="2.57011">
        <ele>275.3</ele>
        <time>2021-08-19T08:20:41Z</time>
      </trkpt>
      <trkpt lat="44.6949" lon="2.57009">
        <ele>276</ele>
        <time>2021-08-19T08:20:43Z</time>
      </trkpt>
      <trkpt lat="44.69495" lon="2.57007">
        <ele>276.7</ele>
        <time>2021-08-19T08:20:45Z</time>
      </trkpt>
      <trkpt lat="44.69499" lon="2.57004">
        <ele>277.3</ele>
        <time>2021-08-19T08:20:47Z</time>
      </trkpt>
      <trkpt lat="44.69504" lon="2.57003">
        <ele>278</ele>
        <time>2021-08-19T08:20:49Z</time>
      </trkpt>
      <trkpt lat="44.69509" lon="2.57001">
        <ele>278.6</ele>
        <time>2021-08-19T08:20:51Z</time>
      </trkpt>
      <trkpt lat="44.69513" lon="2.56999">
        <ele>278.9</ele>
        <time>2021-08-19T08:20:53Z</time>
      </trkpt>
      <trkpt lat="44.69518" lon="2.56997">
        <ele>279.3</ele>
        <time>2021-08-19T08:20:55Z</time>
      </trkpt>
      <trkpt lat="44.69523" lon="2.56995">
        <ele>279.7</ele>
        <time>2021-08-19T08:20:57Z</time>
      </trkpt>
      <trkpt lat="44.69528" lon="2.56994">
        <ele>280.2</ele>
        <time>2021-08-19T08:20:59Z</time>
      </trkpt>
      <trkpt lat="44.69533" lon="2.56992">
        <ele>280.3</ele>
        <time>2021-08-19T08:21:01Z</time>
      </trkpt>
      <trkpt lat="44.69537" lon="2.5699">
        <ele>280.3</ele>
        <time>2021-08-19T08:21:03Z</time>
      </trkpt>
      <trkpt lat="44.69542" lon="2.56988">
        <ele>280.5</ele>
        <time>2021-08-19T08:21:05Z</time>
      </trkpt>
      <trkpt lat="44.69546" lon="2.56986">
        <ele>280.5</ele>
        <time>2021-08-19T08:21:07Z</time>
      </trkpt>
      <trkpt lat="44.6955" lon="2.56984">
        <ele>280.2</ele>
        <time>2021-08-19T08:21:09Z</time>
      </trkpt>
      <trkpt lat="44.69554" lon="2.56982">
        <ele>280.3</ele>
        <time>2021-08-19T08:21:11Z</time>
      </trkpt>
      <trkpt lat="44.69559" lon="2.56981">
        <ele>280.7</ele>
        <time>2021-08-19T08:21:13Z</time>
      </trkpt>
      <trkpt lat="44.69564" lon="2.56979">
        <ele>280.8</ele>
        <time>2021-08-19T08:21:15Z</time>
      </trkpt>
      <trkpt lat="44.69569" lon="2.56978">
        <ele>281</ele>
        <time>2021-08-19T08:21:17Z</time>
      </trkpt>
      <trkpt lat="44.69574" lon="2.56976">
        <ele>281.1</ele>
        <time>2021-08-19T08:21:19Z</time>
      </trkpt>
      <trkpt lat="44.69579" lon="2.56974">
        <ele>280.9</ele>
        <time>2021-08-19T08:21:21Z</time>
      </trkpt>
      <trkpt lat="44.69583" lon="2.56972">
        <ele>280.8</ele>
        <time>2021-08-19T08:21:23Z</time>
      </trkpt>
      <trkpt lat="44.69588" lon="2.5697">
        <ele>282</ele>
        <time>2021-08-19T08:21:25Z</time>
      </trkpt>
      <trkpt lat="44.69593" lon="2.56968">
        <ele>282.8</ele>
        <time>2021-08-19T08:21:27Z</time>
      </trkpt>
      <trkpt lat="44.69598" lon="2.56966">
        <ele>283.6</ele>
        <time>2021-08-19T08:21:29Z</time>
      </trkpt>
      <trkpt lat="44.69603" lon="2.56964">
        <ele>284.5</ele>
        <time>2021-08-19T08:21:31Z</time>
      </trkpt>
      <trkpt lat="44.69608" lon="2.56963">
        <ele>285.3</ele>
        <time>2021-08-19T08:21:33Z</time>
      </trkpt>
      <trkpt lat="44.69612" lon="2.5696">
        <ele>285.9</ele>
        <time>2021-08-19T08:21:35Z</time>
      </trkpt>
      <trkpt lat="44.69617" lon="2.56958">
        <ele>286.5</ele>
        <time>2021-08-19T08:21:37Z</time>
      </trkpt>
      <trkpt lat="44.69621" lon="2.56957">
        <ele>287</ele>
        <time>2021-08-19T08:21:39Z</time>
      </trkpt>
      <trkpt lat="44.69626" lon="2.56954">
        <ele>287.4</ele>
        <time>2021-08-19T08:21:41Z</time>
      </trkpt>
      <trkpt lat="44.69629" lon="2.56952">
        <ele>287.5</ele>
        <time>2021-08-19T08:21:43Z</time>
      </trkpt>
      <trkpt lat="44.69636" lon="2.56948">
        <ele>288</ele>
        <time>2021-08-19T08:21:45Z</time>
      </trkpt>
      <trkpt lat="44.69641" lon="2.56946">
        <ele>288</ele>
        <time>2021-08-19T08:21:47Z</time>
      </trkpt>
      <trkpt lat="44.69646" lon="2.56943">
        <ele>288.4</ele>
        <time>2021-08-19T08:21:49Z</time>
      </trkpt>
      <trkpt lat="44.6965" lon="2.5694">
        <ele>288</ele>
        <time>2021-08-19T08:21:51Z</time>
      </trkpt>
      <trkpt lat="44.69655" lon="2.56936">
        <ele>287.7</ele>
        <time>2021-08-19T08:21:53Z</time>
      </trkpt>
      <trkpt lat="44.6966" lon="2.56934">
        <ele>287.8</ele>
        <time>2021-08-19T08:21:55Z</time>
      </trkpt>
      <trkpt lat="44.69664" lon="2.56931">
        <ele>287.6</ele>
        <time>2021-08-19T08:21:57Z</time>
      </trkpt>
      <trkpt lat="44.69669" lon="2.56928">
        <ele>287.8</ele>
        <time>2021-08-19T08:21:59Z</time>
      </trkpt>
      <trkpt lat="44.69674" lon="2.56925">
        <ele>288.3</ele>
        <time>2021-08-19T08:22:01Z</time>
      </trkpt>
      <trkpt lat="44.69679" lon="2.56922">
        <ele>288.6</ele>
        <time>2021-08-19T08:22:03Z</time>
      </trkpt>
      <trkpt lat="44.69683" lon="2.56919">
        <ele>288.9</ele>
        <time>2021-08-19T08:22:05Z</time>
      </trkpt>
      <trkpt lat="44.69688" lon="2.56916">
        <ele>289.5</ele>
        <time>2021-08-19T08:22:07Z</time>
      </trkpt>
      <trkpt lat="44.69693" lon="2.56912">
        <ele>290.3</ele>
        <time>2021-08-19T08:22:09Z</time>
      </trkpt>
      <trkpt lat="44.69698" lon="2.56908">
        <ele>290.7</ele>
        <time>2021-08-19T08:22:11Z</time>
      </trkpt>
      <trkpt lat="44.69703" lon="2.56904">
        <ele>291.3</ele>
        <time>2021-08-19T08:22:13Z</time>
      </trkpt>
      <trkpt lat="44.69708" lon="2.56899">
        <ele>291.4</ele>
        <time>2021-08-19T08:22:15Z</time>
      </trkpt>
      <trkpt lat="44.69712" lon="2.56895">
        <ele>291.7</ele>
        <time>2021-08-19T08:22:17Z</time>
      </trkpt>
      <trkpt lat="44.69717" lon="2.56891">
        <ele>291.7</ele>
        <time>2021-08-19T08:22:19Z</time>
      </trkpt>
      <trkpt lat="44.69722" lon="2.56886">
        <ele>291.7</ele>
        <time>2021-08-19T08:22:21Z</time>
      </trkpt>
      <trkpt lat="44.69727" lon="2.56883">
        <ele>291.9</ele>
        <time>2021-08-19T08:22:23Z</time>
      </trkpt>
      <trkpt lat="44.69732" lon="2.56879">
        <ele>292.1</ele>
        <time>2021-08-19T08:22:25Z</time>
      </trkpt>
      <trkpt lat="44.69737" lon="2.56876">
        <ele>292.3</ele>
        <time>2021-08-19T08:22:27Z</time>
      </trkpt>
      <trkpt lat="44.69742" lon="2.56873">
        <ele>292.6</ele>
        <time>2021-08-19T08:22:29Z</time>
      </trkpt>
      <trkpt lat="44.69747" lon="2.5687">
        <ele>292.8</ele>
        <time>2021-08-19T08:22:31Z</time>
      </trkpt>
      <trkpt lat="44.69752" lon="2.56867">
        <ele>293.4</ele>
        <time>2021-08-19T08:22:33Z</time>
      </trkpt>
      <trkpt lat="44.69758" lon="2.56863">
        <ele>294.2</ele>
        <time>2021-08-19T08:22:35Z</time>
      </trkpt>
      <trkpt lat="44.69763" lon="2.5686">
        <ele>295</ele>
        <time>2021-08-19T08:22:37Z</time>
      </trkpt>
      <trkpt lat="44.69768" lon="2.56856">
        <ele>295.5</ele>
        <time>2021-08-19T08:22:39Z</time>
      </trkpt>
      <trkpt lat="44.69773" lon="2.56853">
        <ele>296.8</ele>
        <time>2021-08-19T08:22:41Z</time>
      </trkpt>
      <trkpt lat="44.69778" lon="2.56849">
        <ele>297.5</ele>
        <time>2021-08-19T08:22:43Z</time>
      </trkpt>
      <trkpt lat="44.69783" lon="2.56845">
        <ele>297.9</ele>
        <time>2021-08-19T08:22:45Z</time>
      </trkpt>
      <trkpt lat="44.69788" lon="2.56841">
        <ele>298.2</ele>
        <time>2021-08-19T08:22:47Z</time>
      </trkpt>
      <trkpt lat="44.69792" lon="2.56836">
        <ele>298.6</ele>
        <time>2021-08-19T08:22:49Z</time>
      </trkpt>
      <trkpt lat="44.69797" lon="2.56832">
        <ele>299</ele>
        <time>2021-08-19T08:22:51Z</time>
      </trkpt>
      <trkpt lat="44.69801" lon="2.56827">
        <ele>299.9</ele>
        <time>2021-08-19T08:22:53Z</time>
      </trkpt>
      <trkpt lat="44.69806" lon="2.56823">
        <ele>301</ele>
        <time>2021-08-19T08:22:55Z</time>
      </trkpt>
      <trkpt lat="44.6981" lon="2.56818">
        <ele>301.4</ele>
        <time>2021-08-19T08:22:57Z</time>
      </trkpt>
      <trkpt lat="44.69814" lon="2.56813">
        <ele>301.8</ele>
        <time>2021-08-19T08:22:59Z</time>
      </trkpt>
      <trkpt lat="44.69818" lon="2.56809">
        <ele>302.3</ele>
        <time>2021-08-19T08:23:01Z</time>
      </trkpt>
      <trkpt lat="44.69821" lon="2.56804">
        <ele>302.5</ele>
        <time>2021-08-19T08:23:03Z</time>
      </trkpt>
      <trkpt lat="44.69825" lon="2.568">
        <ele>302.8</ele>
        <time>2021-08-19T08:23:05Z</time>
      </trkpt>
      <trkpt lat="44.69829" lon="2.56795">
        <ele>302.9</ele>
        <time>2021-08-19T08:23:07Z</time>
      </trkpt>
      <trkpt lat="44.69833" lon="2.56791">
        <ele>303.3</ele>
        <time>2021-08-19T08:23:09Z</time>
      </trkpt>
      <trkpt lat="44.69837" lon="2.56786">
        <ele>303.1</ele>
        <time>2021-08-19T08:23:11Z</time>
      </trkpt>
      <trkpt lat="44.69841" lon="2.56781">
        <ele>302.8</ele>
        <time>2021-08-19T08:23:13Z</time>
      </trkpt>
      <trkpt lat="44.69844" lon="2.56777">
        <ele>302.4</ele>
        <time>2021-08-19T08:23:15Z</time>
      </trkpt>
      <trkpt lat="44.69848" lon="2.56772">
        <ele>302.1</ele>
        <time>2021-08-19T08:23:17Z</time>
      </trkpt>
      <trkpt lat="44.69852" lon="2.56767">
        <ele>301.7</ele>
        <time>2021-08-19T08:23:19Z</time>
      </trkpt>
      <trkpt lat="44.69855" lon="2.56761">
        <ele>300.9</ele>
        <time>2021-08-19T08:23:21Z</time>
      </trkpt>
      <trkpt lat="44.69859" lon="2.56756">
        <ele>300.2</ele>
        <time>2021-08-19T08:23:23Z</time>
      </trkpt>
      <trkpt lat="44.69862" lon="2.5675">
        <ele>299.2</ele>
        <time>2021-08-19T08:23:25Z</time>
      </trkpt>
      <trkpt lat="44.69865" lon="2.56745">
        <ele>299</ele>
        <time>2021-08-19T08:23:27Z</time>
      </trkpt>
      <trkpt lat="44.69868" lon="2.5674">
        <ele>298.9</ele>
        <time>2021-08-19T08:23:29Z</time>
      </trkpt>
      <trkpt lat="44.69871" lon="2.56735">
        <ele>298.7</ele>
        <time>2021-08-19T08:23:31Z</time>
      </trkpt>
      <trkpt lat="44.69874" lon="2.5673">
        <ele>298.8</ele>
        <time>2021-08-19T08:23:33Z</time>
      </trkpt>
      <trkpt lat="44.69877" lon="2.56725">
        <ele>298.4</ele>
        <time>2021-08-19T08:23:35Z</time>
      </trkpt>
      <trkpt lat="44.69881" lon="2.5672">
        <ele>298.6</ele>
        <time>2021-08-19T08:23:37Z</time>
      </trkpt>
      <trkpt lat="44.69884" lon="2.56715">
        <ele>298.7</ele>
        <time>2021-08-19T08:23:39Z</time>
      </trkpt>
      <trkpt lat="44.69888" lon="2.56711">
        <ele>298.8</ele>
        <time>2021-08-19T08:23:41Z</time>
      </trkpt>
      <trkpt lat="44.69891" lon="2.56706">
        <ele>298.8</ele>
        <time>2021-08-19T08:23:43Z</time>
      </trkpt>
      <trkpt lat="44.69894" lon="2.56702">
        <ele>299</ele>
        <time>2021-08-19T08:23:45Z</time>
      </trkpt>
      <trkpt lat="44.69898" lon="2.56697">
        <ele>299.2</ele>
        <time>2021-08-19T08:23:47Z</time>
      </trkpt>
      <trkpt lat="44.69902" lon="2.56693">
        <ele>299.6</ele>
        <time>2021-08-19T08:23:49Z</time>
      </trkpt>
      <trkpt lat="44.69906" lon="2.56689">
        <ele>300</ele>
        <time>2021-08-19T08:23:51Z</time>
      </trkpt>
      <trkpt lat="44.6991" lon="2.56685">
        <ele>300.5</ele>
        <time>2021-08-19T08:23:53Z</time>
      </trkpt>
      <trkpt lat="44.69914" lon="2.56681">
        <ele>301.2</ele>
        <time>2021-08-19T08:23:55Z</time>
      </trkpt>
      <trkpt lat="44.69918" lon="2.56678">
        <ele>301.6</ele>
        <time>2021-08-19T08:23:57Z</time>
      </trkpt>
      <trkpt lat="44.69922" lon="2.56675">
        <ele>301.2</ele>
        <time>2021-08-19T08:23:59Z</time>
      </trkpt>
      <trkpt lat="44.69927" lon="2.56673">
        <ele>300.9</ele>
        <time>2021-08-19T08:24:01Z</time>
      </trkpt>
      <trkpt lat="44.6993" lon="2.56671">
        <ele>300.5</ele>
        <time>2021-08-19T08:24:03Z</time>
      </trkpt>
      <trkpt lat="44.69934" lon="2.5667">
        <ele>300.5</ele>
        <time>2021-08-19T08:24:05Z</time>
      </trkpt>
      <trkpt lat="44.69938" lon="2.56669">
        <ele>300.3</ele>
        <time>2021-08-19T08:24:07Z</time>
      </trkpt>
      <trkpt lat="44.69946" lon="2.56668">
        <ele>300.4</ele>
        <time>2021-08-19T08:24:09Z</time>
      </trkpt>
      <trkpt lat="44.6995" lon="2.56669">
        <ele>300.8</ele>
        <time>2021-08-19T08:24:11Z</time>
      </trkpt>
      <trkpt lat="44.69955" lon="2.5667">
        <ele>301.2</ele>
        <time>2021-08-19T08:24:13Z</time>
      </trkpt>
      <trkpt lat="44.6996" lon="2.56671">
        <ele>301.6</ele>
        <time>2021-08-19T08:24:15Z</time>
      </trkpt>
      <trkpt lat="44.69965" lon="2.56672">
        <ele>302.3</ele>
        <time>2021-08-19T08:24:17Z</time>
      </trkpt>
      <trkpt lat="44.69969" lon="2.56674">
        <ele>302.9</ele>
        <time>2021-08-19T08:24:19Z</time>
      </trkpt>
      <trkpt lat="44.69974" lon="2.56677">
        <ele>304</ele>
        <time>2021-08-19T08:24:21Z</time>
      </trkpt>
      <trkpt lat="44.69978" lon="2.56681">
        <ele>305.4</ele>
        <time>2021-08-19T08:24:23Z</time>
      </trkpt>
      <trkpt lat="44.69982" lon="2.56684">
        <ele>306.7</ele>
        <time>2021-08-19T08:24:25Z</time>
      </trkpt>
      <trkpt lat="44.69987" lon="2.56689">
        <ele>308.7</ele>
        <time>2021-08-19T08:24:27Z</time>
      </trkpt>
      <trkpt lat="44.69991" lon="2.56694">
        <ele>310.5</ele>
        <time>2021-08-19T08:24:29Z</time>
      </trkpt>
      <trkpt lat="44.69995" lon="2.56698">
        <ele>312.3</ele>
        <time>2021-08-19T08:24:31Z</time>
      </trkpt>
      <trkpt lat="44.69999" lon="2.56703">
        <ele>314.1</ele>
        <time>2021-08-19T08:24:33Z</time>
      </trkpt>
      <trkpt lat="44.70003" lon="2.56708">
        <ele>315.2</ele>
        <time>2021-08-19T08:24:35Z</time>
      </trkpt>
      <trkpt lat="44.70007" lon="2.56713">
        <ele>315.6</ele>
        <time>2021-08-19T08:24:37Z</time>
      </trkpt>
      <trkpt lat="44.70011" lon="2.56718">
        <ele>316.1</ele>
        <time>2021-08-19T08:24:39Z</time>
      </trkpt>
      <trkpt lat="44.70015" lon="2.56722">
        <ele>316.5</ele>
        <time>2021-08-19T08:24:41Z</time>
      </trkpt>
      <trkpt lat="44.70019" lon="2.56726">
        <ele>316.3</ele>
        <time>2021-08-19T08:24:43Z</time>
      </trkpt>
      <trkpt lat="44.70023" lon="2.5673">
        <ele>316.6</ele>
        <time>2021-08-19T08:24:45Z</time>
      </trkpt>
      <trkpt lat="44.70027" lon="2.56733">
        <ele>316.4</ele>
        <time>2021-08-19T08:24:47Z</time>
      </trkpt>
      <trkpt lat="44.7003" lon="2.56738">
        <ele>316.8</ele>
        <time>2021-08-19T08:24:49Z</time>
      </trkpt>
      <trkpt lat="44.70034" lon="2.56742">
        <ele>317</ele>
        <time>2021-08-19T08:24:51Z</time>
      </trkpt>
      <trkpt lat="44.70037" lon="2.56746">
        <ele>317.4</ele>
        <time>2021-08-19T08:24:53Z</time>
      </trkpt>
      <trkpt lat="44.7004" lon="2.5675">
        <ele>317.5</ele>
        <time>2021-08-19T08:24:55Z</time>
      </trkpt>
      <trkpt lat="44.70043" lon="2.56754">
        <ele>318.1</ele>
        <time>2021-08-19T08:24:57Z</time>
      </trkpt>
      <trkpt lat="44.70047" lon="2.56758">
        <ele>318.4</ele>
        <time>2021-08-19T08:24:59Z</time>
      </trkpt>
      <trkpt lat="44.7005" lon="2.56762">
        <ele>319.1</ele>
        <time>2021-08-19T08:25:01Z</time>
      </trkpt>
      <trkpt lat="44.70054" lon="2.56766">
        <ele>319.3</ele>
        <time>2021-08-19T08:25:03Z</time>
      </trkpt>
      <trkpt lat="44.70058" lon="2.56769">
        <ele>319.6</ele>
        <time>2021-08-19T08:25:05Z</time>
      </trkpt>
      <trkpt lat="44.70061" lon="2.56773">
        <ele>320.5</ele>
        <time>2021-08-19T08:25:07Z</time>
      </trkpt>
      <trkpt lat="44.70064" lon="2.56777">
        <ele>321</ele>
        <time>2021-08-19T08:25:09Z</time>
      </trkpt>
      <trkpt lat="44.70068" lon="2.56781">
        <ele>321.4</ele>
        <time>2021-08-19T08:25:11Z</time>
      </trkpt>
      <trkpt lat="44.70071" lon="2.56785">
        <ele>322.6</ele>
        <time>2021-08-19T08:25:13Z</time>
      </trkpt>
      <trkpt lat="44.70075" lon="2.56789">
        <ele>323.3</ele>
        <time>2021-08-19T08:25:15Z</time>
      </trkpt>
      <trkpt lat="44.70077" lon="2.56794">
        <ele>324.6</ele>
        <time>2021-08-19T08:25:17Z</time>
      </trkpt>
      <trkpt lat="44.7008" lon="2.56799">
        <ele>326</ele>
        <time>2021-08-19T08:25:19Z</time>
      </trkpt>
      <trkpt lat="44.70083" lon="2.56803">
        <ele>326.9</ele>
        <time>2021-08-19T08:25:21Z</time>
      </trkpt>
      <trkpt lat="44.70087" lon="2.56808">
        <ele>327.6</ele>
        <time>2021-08-19T08:25:23Z</time>
      </trkpt>
      <trkpt lat="44.7009" lon="2.56813">
        <ele>328.3</ele>
        <time>2021-08-19T08:25:25Z</time>
      </trkpt>
      <trkpt lat="44.70092" lon="2.56819">
        <ele>329.4</ele>
        <time>2021-08-19T08:25:27Z</time>
      </trkpt>
      <trkpt lat="44.70095" lon="2.56824">
        <ele>330.2</ele>
        <time>2021-08-19T08:25:29Z</time>
      </trkpt>
      <trkpt lat="44.70097" lon="2.5683">
        <ele>331.6</ele>
        <time>2021-08-19T08:25:31Z</time>
      </trkpt>
      <trkpt lat="44.70099" lon="2.56836">
        <ele>332.7</ele>
        <time>2021-08-19T08:25:33Z</time>
      </trkpt>
      <trkpt lat="44.70101" lon="2.56841">
        <ele>333.5</ele>
        <time>2021-08-19T08:25:35Z</time>
      </trkpt>
      <trkpt lat="44.70103" lon="2.56847">
        <ele>334.6</ele>
        <time>2021-08-19T08:25:37Z</time>
      </trkpt>
      <trkpt lat="44.70104" lon="2.56853">
        <ele>335.7</ele>
        <time>2021-08-19T08:25:39Z</time>
      </trkpt>
      <trkpt lat="44.70107" lon="2.56858">
        <ele>336.3</ele>
        <time>2021-08-19T08:25:41Z</time>
      </trkpt>
      <trkpt lat="44.7011" lon="2.56864">
        <ele>336.8</ele>
        <time>2021-08-19T08:25:43Z</time>
      </trkpt>
      <trkpt lat="44.70112" lon="2.56869">
        <ele>337.5</ele>
        <time>2021-08-19T08:25:45Z</time>
      </trkpt>
      <trkpt lat="44.70115" lon="2.56874">
        <ele>338</ele>
        <time>2021-08-19T08:25:47Z</time>
      </trkpt>
      <trkpt lat="44.70118" lon="2.56879">
        <ele>338.7</ele>
        <time>2021-08-19T08:25:49Z</time>
      </trkpt>
      <trkpt lat="44.70121" lon="2.56884">
        <ele>338.8</ele>
        <time>2021-08-19T08:25:51Z</time>
      </trkpt>
      <trkpt lat="44.70125" lon="2.56889">
        <ele>338.9</ele>
        <time>2021-08-19T08:25:53Z</time>
      </trkpt>
      <trkpt lat="44.70129" lon="2.56893">
        <ele>338.7</ele>
        <time>2021-08-19T08:25:55Z</time>
      </trkpt>
      <trkpt lat="44.70133" lon="2.56897">
        <ele>338.4</ele>
        <time>2021-08-19T08:25:57Z</time>
      </trkpt>
      <trkpt lat="44.70137" lon="2.569">
        <ele>337.8</ele>
        <time>2021-08-19T08:25:59Z</time>
      </trkpt>
      <trkpt lat="44.7014" lon="2.56904">
        <ele>337.9</ele>
        <time>2021-08-19T08:26:01Z</time>
      </trkpt>
      <trkpt lat="44.70144" lon="2.56907">
        <ele>337.5</ele>
        <time>2021-08-19T08:26:03Z</time>
      </trkpt>
      <trkpt lat="44.70148" lon="2.56911">
        <ele>337.4</ele>
        <time>2021-08-19T08:26:05Z</time>
      </trkpt>
      <trkpt lat="44.70152" lon="2.56915">
        <ele>337.1</ele>
        <time>2021-08-19T08:26:07Z</time>
      </trkpt>
      <trkpt lat="44.70156" lon="2.56918">
        <ele>336.9</ele>
        <time>2021-08-19T08:26:09Z</time>
      </trkpt>
      <trkpt lat="44.7016" lon="2.56922">
        <ele>337</ele>
        <time>2021-08-19T08:26:11Z</time>
      </trkpt>
      <trkpt lat="44.70164" lon="2.56926">
        <ele>336.6</ele>
        <time>2021-08-19T08:26:13Z</time>
      </trkpt>
      <trkpt lat="44.70168" lon="2.56929">
        <ele>336.3</ele>
        <time>2021-08-19T08:26:15Z</time>
      </trkpt>
      <trkpt lat="44.70172" lon="2.56932">
        <ele>336.6</ele>
        <time>2021-08-19T08:26:17Z</time>
      </trkpt>
      <trkpt lat="44.70176" lon="2.56935">
        <ele>336.9</ele>
        <time>2021-08-19T08:26:19Z</time>
      </trkpt>
      <trkpt lat="44.7018" lon="2.56938">
        <ele>336.9</ele>
        <time>2021-08-19T08:26:21Z</time>
      </trkpt>
      <trkpt lat="44.70184" lon="2.56941">
        <ele>337.3</ele>
        <time>2021-08-19T08:26:23Z</time>
      </trkpt>
      <trkpt lat="44.70188" lon="2.56944">
        <ele>337.7</ele>
        <time>2021-08-19T08:26:25Z</time>
      </trkpt>
      <trkpt lat="44.70192" lon="2.56947">
        <ele>337.7</ele>
        <time>2021-08-19T08:26:27Z</time>
      </trkpt>
      <trkpt lat="44.70196" lon="2.56949">
        <ele>337.8</ele>
        <time>2021-08-19T08:26:29Z</time>
      </trkpt>
      <trkpt lat="44.702" lon="2.56951">
        <ele>337.6</ele>
        <time>2021-08-19T08:26:31Z</time>
      </trkpt>
      <trkpt lat="44.70204" lon="2.56953">
        <ele>337.3</ele>
        <time>2021-08-19T08:26:33Z</time>
      </trkpt>
      <trkpt lat="44.70209" lon="2.56954">
        <ele>337</ele>
        <time>2021-08-19T08:26:35Z</time>
      </trkpt>
      <trkpt lat="44.70214" lon="2.56958">
        <ele>337.2</ele>
        <time>2021-08-19T08:26:37Z</time>
      </trkpt>
      <trkpt lat="44.70218" lon="2.56961">
        <ele>337.2</ele>
        <time>2021-08-19T08:26:39Z</time>
      </trkpt>
      <trkpt lat="44.70222" lon="2.56963">
        <ele>337.3</ele>
        <time>2021-08-19T08:26:41Z</time>
      </trkpt>
      <trkpt lat="44.70227" lon="2.56966">
        <ele>337.5</ele>
        <time>2021-08-19T08:26:43Z</time>
      </trkpt>
      <trkpt lat="44.70231" lon="2.56969">
        <ele>337.6</ele>
        <time>2021-08-19T08:26:45Z</time>
      </trkpt>
      <trkpt lat="44.70236" lon="2.56972">
        <ele>337.6</ele>
        <time>2021-08-19T08:26:47Z</time>
      </trkpt>
      <trkpt lat="44.7024" lon="2.56974">
        <ele>337.6</ele>
        <time>2021-08-19T08:26:49Z</time>
      </trkpt>
      <trkpt lat="44.70245" lon="2.56976">
        <ele>337.2</ele>
        <time>2021-08-19T08:26:51Z</time>
      </trkpt>
      <trkpt lat="44.70249" lon="2.5698">
        <ele>337.5</ele>
        <time>2021-08-19T08:26:53Z</time>
      </trkpt>
      <trkpt lat="44.70253" lon="2.56981">
        <ele>337.6</ele>
        <time>2021-08-19T08:26:55Z</time>
      </trkpt>
      <trkpt lat="44.70258" lon="2.56984">
        <ele>338.5</ele>
        <time>2021-08-19T08:26:57Z</time>
      </trkpt>
      <trkpt lat="44.70262" lon="2.56986">
        <ele>339</ele>
        <time>2021-08-19T08:26:59Z</time>
      </trkpt>
      <trkpt lat="44.70267" lon="2.56988">
        <ele>339.3</ele>
        <time>2021-08-19T08:27:01Z</time>
      </trkpt>
      <trkpt lat="44.70271" lon="2.56991">
        <ele>339.9</ele>
        <time>2021-08-19T08:27:03Z</time>
      </trkpt>
      <trkpt lat="44.70275" lon="2.56995">
        <ele>341</ele>
        <time>2021-08-19T08:27:05Z</time>
      </trkpt>
      <trkpt lat="44.7028" lon="2.56998">
        <ele>342</ele>
        <time>2021-08-19T08:27:07Z</time>
      </trkpt>
      <trkpt lat="44.70284" lon="2.57001">
        <ele>342.5</ele>
        <time>2021-08-19T08:27:09Z</time>
      </trkpt>
      <trkpt lat="44.70289" lon="2.57003">
        <ele>342.9</ele>
        <time>2021-08-19T08:27:11Z</time>
      </trkpt>
      <trkpt lat="44.70294" lon="2.57007">
        <ele>343.7</ele>
        <time>2021-08-19T08:27:13Z</time>
      </trkpt>
      <trkpt lat="44.70298" lon="2.57009">
        <ele>343.9</ele>
        <time>2021-08-19T08:27:15Z</time>
      </trkpt>
      <trkpt lat="44.70303" lon="2.57011">
        <ele>344.1</ele>
        <time>2021-08-19T08:27:17Z</time>
      </trkpt>
      <trkpt lat="44.70307" lon="2.57011">
        <ele>343.9</ele>
        <time>2021-08-19T08:27:19Z</time>
      </trkpt>
      <trkpt lat="44.70312" lon="2.57011">
        <ele>343.4</ele>
        <time>2021-08-19T08:27:21Z</time>
      </trkpt>
      <trkpt lat="44.70317" lon="2.5701">
        <ele>342.7</ele>
        <time>2021-08-19T08:27:23Z</time>
      </trkpt>
      <trkpt lat="44.70322" lon="2.5701">
        <ele>342.2</ele>
        <time>2021-08-19T08:27:25Z</time>
      </trkpt>
      <trkpt lat="44.70326" lon="2.57009">
        <ele>341.6</ele>
        <time>2021-08-19T08:27:27Z</time>
      </trkpt>
      <trkpt lat="44.70331" lon="2.57008">
        <ele>340.8</ele>
        <time>2021-08-19T08:27:29Z</time>
      </trkpt>
      <trkpt lat="44.70335" lon="2.57008">
        <ele>340.4</ele>
        <time>2021-08-19T08:27:31Z</time>
      </trkpt>
      <trkpt lat="44.70339" lon="2.57007">
        <ele>340</ele>
        <time>2021-08-19T08:27:33Z</time>
      </trkpt>
      <trkpt lat="44.70344" lon="2.57006">
        <ele>339.5</ele>
        <time>2021-08-19T08:27:35Z</time>
      </trkpt>
      <trkpt lat="44.70348" lon="2.57006">
        <ele>339.1</ele>
        <time>2021-08-19T08:27:37Z</time>
      </trkpt>
      <trkpt lat="44.70351" lon="2.57004">
        <ele>338.5</ele>
        <time>2021-08-19T08:27:39Z</time>
      </trkpt>
      <trkpt lat="44.70356" lon="2.57005">
        <ele>338.4</ele>
        <time>2021-08-19T08:27:41Z</time>
      </trkpt>
      <trkpt lat="44.7036" lon="2.57004">
        <ele>338</ele>
        <time>2021-08-19T08:27:43Z</time>
      </trkpt>
      <trkpt lat="44.70364" lon="2.57005">
        <ele>338.2</ele>
        <time>2021-08-19T08:27:45Z</time>
      </trkpt>
      <trkpt lat="44.70368" lon="2.57006">
        <ele>338</ele>
        <time>2021-08-19T08:27:47Z</time>
      </trkpt>
      <trkpt lat="44.70373" lon="2.57006">
        <ele>338</ele>
        <time>2021-08-19T08:27:49Z</time>
      </trkpt>
      <trkpt lat="44.70377" lon="2.57007">
        <ele>338</ele>
        <time>2021-08-19T08:27:51Z</time>
      </trkpt>
      <trkpt lat="44.70382" lon="2.57009">
        <ele>338.5</ele>
        <time>2021-08-19T08:27:53Z</time>
      </trkpt>
      <trkpt lat="44.70387" lon="2.5701">
        <ele>338.4</ele>
        <time>2021-08-19T08:27:55Z</time>
      </trkpt>
      <trkpt lat="44.70392" lon="2.57012">
        <ele>338.9</ele>
        <time>2021-08-19T08:27:57Z</time>
      </trkpt>
      <trkpt lat="44.70396" lon="2.57014">
        <ele>339.3</ele>
        <time>2021-08-19T08:27:59Z</time>
      </trkpt>
      <trkpt lat="44.70401" lon="2.57017">
        <ele>339.8</ele>
        <time>2021-08-19T08:28:01Z</time>
      </trkpt>
      <trkpt lat="44.70404" lon="2.57019">
        <ele>340.3</ele>
        <time>2021-08-19T08:28:03Z</time>
      </trkpt>
      <trkpt lat="44.70407" lon="2.5702">
        <ele>340.5</ele>
        <time>2021-08-19T08:28:05Z</time>
      </trkpt>
      <trkpt lat="44.7041" lon="2.57022">
        <ele>340.8</ele>
        <time>2021-08-19T08:28:07Z</time>
      </trkpt>
      <trkpt lat="44.70414" lon="2.57023">
        <ele>341.1</ele>
        <time>2021-08-19T08:28:09Z</time>
      </trkpt>
      <trkpt lat="44.70418" lon="2.57024">
        <ele>341.5</ele>
        <time>2021-08-19T08:28:11Z</time>
      </trkpt>
      <trkpt lat="44.70421" lon="2.57026">
        <ele>342.4</ele>
        <time>2021-08-19T08:28:13Z</time>
      </trkpt>
      <trkpt lat="44.70427" lon="2.57027">
        <ele>343.6</ele>
        <time>2021-08-19T08:28:15Z</time>
      </trkpt>
      <trkpt lat="44.70431" lon="2.57029">
        <ele>344.6</ele>
        <time>2021-08-19T08:28:17Z</time>
      </trkpt>
      <trkpt lat="44.70436" lon="2.5703">
        <ele>345.4</ele>
        <time>2021-08-19T08:28:19Z</time>
      </trkpt>
      <trkpt lat="44.7044" lon="2.57031">
        <ele>346.4</ele>
        <time>2021-08-19T08:28:21Z</time>
      </trkpt>
      <trkpt lat="44.70444" lon="2.57032">
        <ele>347.3</ele>
        <time>2021-08-19T08:28:23Z</time>
      </trkpt>
      <trkpt lat="44.70449" lon="2.57034">
        <ele>348.3</ele>
        <time>2021-08-19T08:28:25Z</time>
      </trkpt>
      <trkpt lat="44.70453" lon="2.57034">
        <ele>349</ele>
        <time>2021-08-19T08:28:27Z</time>
      </trkpt>
      <trkpt lat="44.70457" lon="2.57035">
        <ele>349.7</ele>
        <time>2021-08-19T08:28:29Z</time>
      </trkpt>
      <trkpt lat="44.70461" lon="2.57035">
        <ele>350.3</ele>
        <time>2021-08-19T08:28:31Z</time>
      </trkpt>
      <trkpt lat="44.70466" lon="2.57034">
        <ele>350.8</ele>
        <time>2021-08-19T08:28:33Z</time>
      </trkpt>
      <trkpt lat="44.7047" lon="2.57034">
        <ele>351.2</ele>
        <time>2021-08-19T08:28:35Z</time>
      </trkpt>
      <trkpt lat="44.70473" lon="2.57032">
        <ele>351.2</ele>
        <time>2021-08-19T08:28:37Z</time>
      </trkpt>
      <trkpt lat="44.70478" lon="2.57031">
        <ele>351.6</ele>
        <time>2021-08-19T08:28:39Z</time>
      </trkpt>
      <trkpt lat="44.70483" lon="2.57029">
        <ele>351.5</ele>
        <time>2021-08-19T08:28:41Z</time>
      </trkpt>
      <trkpt lat="44.70487" lon="2.57027">
        <ele>351.6</ele>
        <time>2021-08-19T08:28:43Z</time>
      </trkpt>
      <trkpt lat="44.70491" lon="2.57023">
        <ele>351.4</ele>
        <time>2021-08-19T08:28:45Z</time>
      </trkpt>
      <trkpt lat="44.70496" lon="2.5702">
        <ele>351.2</ele>
        <time>2021-08-19T08:28:47Z</time>
      </trkpt>
      <trkpt lat="44.70499" lon="2.57016">
        <ele>350.7</ele>
        <time>2021-08-19T08:28:49Z</time>
      </trkpt>
      <trkpt lat="44.70503" lon="2.57012">
        <ele>350.4</ele>
        <time>2021-08-19T08:28:51Z</time>
      </trkpt>
      <trkpt lat="44.70507" lon="2.57009">
        <ele>350.3</ele>
        <time>2021-08-19T08:28:53Z</time>
      </trkpt>
      <trkpt lat="44.7051" lon="2.57006">
        <ele>350</ele>
        <time>2021-08-19T08:28:55Z</time>
      </trkpt>
      <trkpt lat="44.70514" lon="2.57002">
        <ele>349.8</ele>
        <time>2021-08-19T08:28:57Z</time>
      </trkpt>
      <trkpt lat="44.70518" lon="2.56999">
        <ele>349.6</ele>
        <time>2021-08-19T08:28:59Z</time>
      </trkpt>
      <trkpt lat="44.70522" lon="2.56996">
        <ele>349.5</ele>
        <time>2021-08-19T08:29:01Z</time>
      </trkpt>
      <trkpt lat="44.70525" lon="2.56992">
        <ele>349.4</ele>
        <time>2021-08-19T08:29:03Z</time>
      </trkpt>
      <trkpt lat="44.70529" lon="2.56988">
        <ele>349.2</ele>
        <time>2021-08-19T08:29:05Z</time>
      </trkpt>
      <trkpt lat="44.70533" lon="2.56986">
        <ele>349.2</ele>
        <time>2021-08-19T08:29:07Z</time>
      </trkpt>
      <trkpt lat="44.70536" lon="2.56982">
        <ele>349</ele>
        <time>2021-08-19T08:29:09Z</time>
      </trkpt>
      <trkpt lat="44.70539" lon="2.5698">
        <ele>349.1</ele>
        <time>2021-08-19T08:29:11Z</time>
      </trkpt>
      <trkpt lat="44.70542" lon="2.56978">
        <ele>349</ele>
        <time>2021-08-19T08:29:13Z</time>
      </trkpt>
      <trkpt lat="44.70546" lon="2.56975">
        <ele>349.2</ele>
        <time>2021-08-19T08:29:15Z</time>
      </trkpt>
      <trkpt lat="44.70552" lon="2.56973">
        <ele>349.4</ele>
        <time>2021-08-19T08:29:17Z</time>
      </trkpt>
      <trkpt lat="44.70556" lon="2.56971">
        <ele>349.7</ele>
        <time>2021-08-19T08:29:19Z</time>
      </trkpt>
      <trkpt lat="44.70559" lon="2.5697">
        <ele>350.1</ele>
        <time>2021-08-19T08:29:21Z</time>
      </trkpt>
      <trkpt lat="44.70562" lon="2.56969">
        <ele>350.2</ele>
        <time>2021-08-19T08:29:23Z</time>
      </trkpt>
      <trkpt lat="44.70566" lon="2.56968">
        <ele>350.6</ele>
        <time>2021-08-19T08:29:25Z</time>
      </trkpt>
      <trkpt lat="44.70571" lon="2.56968">
        <ele>351.4</ele>
        <time>2021-08-19T08:29:27Z</time>
      </trkpt>
      <trkpt lat="44.70575" lon="2.56969">
        <ele>352.2</ele>
        <time>2021-08-19T08:29:29Z</time>
      </trkpt>
      <trkpt lat="44.70579" lon="2.56971">
        <ele>353.2</ele>
        <time>2021-08-19T08:29:31Z</time>
      </trkpt>
      <trkpt lat="44.70583" lon="2.56972">
        <ele>353.9</ele>
        <time>2021-08-19T08:29:33Z</time>
      </trkpt>
      <trkpt lat="44.70588" lon="2.56977">
        <ele>353.1</ele>
        <time>2021-08-19T08:29:35Z</time>
      </trkpt>
      <trkpt lat="44.70592" lon="2.56981">
        <ele>352.2</ele>
        <time>2021-08-19T08:29:37Z</time>
      </trkpt>
      <trkpt lat="44.70596" lon="2.56985">
        <ele>351.1</ele>
        <time>2021-08-19T08:29:39Z</time>
      </trkpt>
      <trkpt lat="44.70599" lon="2.56991">
        <ele>350.6</ele>
        <time>2021-08-19T08:29:41Z</time>
      </trkpt>
      <trkpt lat="44.70601" lon="2.56997">
        <ele>350.9</ele>
        <time>2021-08-19T08:29:43Z</time>
      </trkpt>
      <trkpt lat="44.70603" lon="2.57003">
        <ele>351.1</ele>
        <time>2021-08-19T08:29:45Z</time>
      </trkpt>
      <trkpt lat="44.70604" lon="2.57008">
        <ele>351.8</ele>
        <time>2021-08-19T08:29:47Z</time>
      </trkpt>
      <trkpt lat="44.70604" lon="2.57015">
        <ele>352.9</ele>
        <time>2021-08-19T08:29:49Z</time>
      </trkpt>
      <trkpt lat="44.70604" lon="2.57021">
        <ele>354.2</ele>
        <time>2021-08-19T08:29:51Z</time>
      </trkpt>
      <trkpt lat="44.70604" lon="2.57027">
        <ele>355.3</ele>
        <time>2021-08-19T08:29:53Z</time>
      </trkpt>
      <trkpt lat="44.70604" lon="2.57033">
        <ele>356.6</ele>
        <time>2021-08-19T08:29:55Z</time>
      </trkpt>
      <trkpt lat="44.70604" lon="2.5704">
        <ele>357.9</ele>
        <time>2021-08-19T08:29:57Z</time>
      </trkpt>
      <trkpt lat="44.70604" lon="2.57046">
        <ele>359.2</ele>
        <time>2021-08-19T08:29:59Z</time>
      </trkpt>
      <trkpt lat="44.70603" lon="2.57052">
        <ele>360.6</ele>
        <time>2021-08-19T08:30:01Z</time>
      </trkpt>
      <trkpt lat="44.70603" lon="2.57059">
        <ele>361.9</ele>
        <time>2021-08-19T08:30:03Z</time>
      </trkpt>
      <trkpt lat="44.70603" lon="2.57065">
        <ele>363</ele>
        <time>2021-08-19T08:30:05Z</time>
      </trkpt>
      <trkpt lat="44.70604" lon="2.57072">
        <ele>363.6</ele>
        <time>2021-08-19T08:30:07Z</time>
      </trkpt>
      <trkpt lat="44.70604" lon="2.57078">
        <ele>365.1</ele>
        <time>2021-08-19T08:30:09Z</time>
      </trkpt>
      <trkpt lat="44.70605" lon="2.57084">
        <ele>365.6</ele>
        <time>2021-08-19T08:30:11Z</time>
      </trkpt>
      <trkpt lat="44.70606" lon="2.57091">
        <ele>366.1</ele>
        <time>2021-08-19T08:30:13Z</time>
      </trkpt>
      <trkpt lat="44.70607" lon="2.57097">
        <ele>366.3</ele>
        <time>2021-08-19T08:30:15Z</time>
      </trkpt>
      <trkpt lat="44.70608" lon="2.57103">
        <ele>366.6</ele>
        <time>2021-08-19T08:30:17Z</time>
      </trkpt>
      <trkpt lat="44.70609" lon="2.5711">
        <ele>366.6</ele>
        <time>2021-08-19T08:30:19Z</time>
      </trkpt>
      <trkpt lat="44.7061" lon="2.57116">
        <ele>366.7</ele>
        <time>2021-08-19T08:30:21Z</time>
      </trkpt>
      <trkpt lat="44.70612" lon="2.57122">
        <ele>366.2</ele>
        <time>2021-08-19T08:30:23Z</time>
      </trkpt>
      <trkpt lat="44.70613" lon="2.57127">
        <ele>366.2</ele>
        <time>2021-08-19T08:30:25Z</time>
      </trkpt>
      <trkpt lat="44.70615" lon="2.57132">
        <ele>365.5</ele>
        <time>2021-08-19T08:30:27Z</time>
      </trkpt>
      <trkpt lat="44.70616" lon="2.57138">
        <ele>365.9</ele>
        <time>2021-08-19T08:30:29Z</time>
      </trkpt>
      <trkpt lat="44.70618" lon="2.57144">
        <ele>365.7</ele>
        <time>2021-08-19T08:30:31Z</time>
      </trkpt>
      <trkpt lat="44.70619" lon="2.5715">
        <ele>365.9</ele>
        <time>2021-08-19T08:30:33Z</time>
      </trkpt>
      <trkpt lat="44.7062" lon="2.57155">
        <ele>365.5</ele>
        <time>2021-08-19T08:30:35Z</time>
      </trkpt>
      <trkpt lat="44.70619" lon="2.57162">
        <ele>367.2</ele>
        <time>2021-08-19T08:30:37Z</time>
      </trkpt>
      <trkpt lat="44.70618" lon="2.57169">
        <ele>368.9</ele>
        <time>2021-08-19T08:30:39Z</time>
      </trkpt>
      <trkpt lat="44.70618" lon="2.57176">
        <ele>370.3</ele>
        <time>2021-08-19T08:30:41Z</time>
      </trkpt>
      <trkpt lat="44.70616" lon="2.57182">
        <ele>372</ele>
        <time>2021-08-19T08:30:43Z</time>
      </trkpt>
      <trkpt lat="44.70615" lon="2.57189">
        <ele>373.7</ele>
        <time>2021-08-19T08:30:45Z</time>
      </trkpt>
      <trkpt lat="44.70614" lon="2.57196">
        <ele>375.5</ele>
        <time>2021-08-19T08:30:47Z</time>
      </trkpt>
      <trkpt lat="44.70613" lon="2.57203">
        <ele>377.2</ele>
        <time>2021-08-19T08:30:49Z</time>
      </trkpt>
      <trkpt lat="44.70612" lon="2.57209">
        <ele>378.7</ele>
        <time>2021-08-19T08:30:51Z</time>
      </trkpt>
      <trkpt lat="44.70611" lon="2.57216">
        <ele>380.4</ele>
        <time>2021-08-19T08:30:53Z</time>
      </trkpt>
      <trkpt lat="44.70609" lon="2.57223">
        <ele>381.9</ele>
        <time>2021-08-19T08:30:55Z</time>
      </trkpt>
      <trkpt lat="44.70609" lon="2.57229">
        <ele>383.3</ele>
        <time>2021-08-19T08:30:57Z</time>
      </trkpt>
      <trkpt lat="44.70608" lon="2.57236">
        <ele>384.8</ele>
        <time>2021-08-19T08:30:59Z</time>
      </trkpt>
      <trkpt lat="44.70607" lon="2.57243">
        <ele>385.8</ele>
        <time>2021-08-19T08:31:01Z</time>
      </trkpt>
      <trkpt lat="44.70607" lon="2.5725">
        <ele>386.8</ele>
        <time>2021-08-19T08:31:03Z</time>
      </trkpt>
      <trkpt lat="44.70607" lon="2.57256">
        <ele>387</ele>
        <time>2021-08-19T08:31:05Z</time>
      </trkpt>
      <trkpt lat="44.70607" lon="2.57263">
        <ele>386.9</ele>
        <time>2021-08-19T08:31:07Z</time>
      </trkpt>
      <trkpt lat="44.70607" lon="2.57269">
        <ele>387.1</ele>
        <time>2021-08-19T08:31:09Z</time>
      </trkpt>
      <trkpt lat="44.70609" lon="2.57276">
        <ele>386.5</ele>
        <time>2021-08-19T08:31:11Z</time>
      </trkpt>
      <trkpt lat="44.7061" lon="2.57281">
        <ele>386</ele>
        <time>2021-08-19T08:31:13Z</time>
      </trkpt>
      <trkpt lat="44.70611" lon="2.57287">
        <ele>385.6</ele>
        <time>2021-08-19T08:31:15Z</time>
      </trkpt>
      <trkpt lat="44.70613" lon="2.57293">
        <ele>384.6</ele>
        <time>2021-08-19T08:31:17Z</time>
      </trkpt>
      <trkpt lat="44.70615" lon="2.57299">
        <ele>384</ele>
        <time>2021-08-19T08:31:19Z</time>
      </trkpt>
      <trkpt lat="44.70616" lon="2.57306">
        <ele>383.5</ele>
        <time>2021-08-19T08:31:21Z</time>
      </trkpt>
      <trkpt lat="44.70618" lon="2.57312">
        <ele>382.8</ele>
        <time>2021-08-19T08:31:23Z</time>
      </trkpt>
      <trkpt lat="44.7062" lon="2.57318">
        <ele>381.9</ele>
        <time>2021-08-19T08:31:25Z</time>
      </trkpt>
      <trkpt lat="44.7062" lon="2.57325">
        <ele>381.8</ele>
        <time>2021-08-19T08:31:27Z</time>
      </trkpt>
      <trkpt lat="44.70622" lon="2.57332">
        <ele>381.5</ele>
        <time>2021-08-19T08:31:29Z</time>
      </trkpt>
      <trkpt lat="44.70622" lon="2.57338">
        <ele>381.3</ele>
        <time>2021-08-19T08:31:31Z</time>
      </trkpt>
      <trkpt lat="44.70623" lon="2.57345">
        <ele>380.8</ele>
        <time>2021-08-19T08:31:33Z</time>
      </trkpt>
      <trkpt lat="44.70624" lon="2.57351">
        <ele>380.3</ele>
        <time>2021-08-19T08:31:35Z</time>
      </trkpt>
      <trkpt lat="44.70623" lon="2.57357">
        <ele>380.3</ele>
        <time>2021-08-19T08:31:37Z</time>
      </trkpt>
      <trkpt lat="44.70623" lon="2.57364">
        <ele>380.1</ele>
        <time>2021-08-19T08:31:39Z</time>
      </trkpt>
      <trkpt lat="44.70623" lon="2.5737">
        <ele>380.1</ele>
        <time>2021-08-19T08:31:41Z</time>
      </trkpt>
      <trkpt lat="44.70623" lon="2.57377">
        <ele>380.2</ele>
        <time>2021-08-19T08:31:43Z</time>
      </trkpt>
      <trkpt lat="44.70621" lon="2.57384">
        <ele>380.5</ele>
        <time>2021-08-19T08:31:45Z</time>
      </trkpt>
      <trkpt lat="44.7062" lon="2.5739">
        <ele>381</ele>
        <time>2021-08-19T08:31:47Z</time>
      </trkpt>
      <trkpt lat="44.70618" lon="2.57396">
        <ele>381.5</ele>
        <time>2021-08-19T08:31:49Z</time>
      </trkpt>
      <trkpt lat="44.70617" lon="2.57403">
        <ele>382</ele>
        <time>2021-08-19T08:31:51Z</time>
      </trkpt>
      <trkpt lat="44.70615" lon="2.57409">
        <ele>382.4</ele>
        <time>2021-08-19T08:31:53Z</time>
      </trkpt>
      <trkpt lat="44.70613" lon="2.57415">
        <ele>383</ele>
        <time>2021-08-19T08:31:55Z</time>
      </trkpt>
      <trkpt lat="44.70612" lon="2.57421">
        <ele>383.9</ele>
        <time>2021-08-19T08:31:57Z</time>
      </trkpt>
      <trkpt lat="44.7061" lon="2.57427">
        <ele>385</ele>
        <time>2021-08-19T08:31:59Z</time>
      </trkpt>
      <trkpt lat="44.70608" lon="2.57434">
        <ele>386</ele>
        <time>2021-08-19T08:32:01Z</time>
      </trkpt>
      <trkpt lat="44.70606" lon="2.57439">
        <ele>386.9</ele>
        <time>2021-08-19T08:32:03Z</time>
      </trkpt>
      <trkpt lat="44.70605" lon="2.57446">
        <ele>387.9</ele>
        <time>2021-08-19T08:32:05Z</time>
      </trkpt>
      <trkpt lat="44.70603" lon="2.57452">
        <ele>388.7</ele>
        <time>2021-08-19T08:32:07Z</time>
      </trkpt>
      <trkpt lat="44.70604" lon="2.57459">
        <ele>389.1</ele>
        <time>2021-08-19T08:32:09Z</time>
      </trkpt>
      <trkpt lat="44.70603" lon="2.57465">
        <ele>389.7</ele>
        <time>2021-08-19T08:32:11Z</time>
      </trkpt>
      <trkpt lat="44.70602" lon="2.57472">
        <ele>390.2</ele>
        <time>2021-08-19T08:32:13Z</time>
      </trkpt>
      <trkpt lat="44.70602" lon="2.57478">
        <ele>390.6</ele>
        <time>2021-08-19T08:32:15Z</time>
      </trkpt>
      <trkpt lat="44.70601" lon="2.57484">
        <ele>391.1</ele>
        <time>2021-08-19T08:32:17Z</time>
      </trkpt>
      <trkpt lat="44.70602" lon="2.5749">
        <ele>391.5</ele>
        <time>2021-08-19T08:32:19Z</time>
      </trkpt>
      <trkpt lat="44.70603" lon="2.57496">
        <ele>391.5</ele>
        <time>2021-08-19T08:32:21Z</time>
      </trkpt>
      <trkpt lat="44.70604" lon="2.57502">
        <ele>392.4</ele>
        <time>2021-08-19T08:32:23Z</time>
      </trkpt>
      <trkpt lat="44.70605" lon="2.57507">
        <ele>393.7</ele>
        <time>2021-08-19T08:32:25Z</time>
      </trkpt>
      <trkpt lat="44.70607" lon="2.57512">
        <ele>395.2</ele>
        <time>2021-08-19T08:32:27Z</time>
      </trkpt>
      <trkpt lat="44.70609" lon="2.57518">
        <ele>396.6</ele>
        <time>2021-08-19T08:32:29Z</time>
      </trkpt>
      <trkpt lat="44.7061" lon="2.57523">
        <ele>397.8</ele>
        <time>2021-08-19T08:32:31Z</time>
      </trkpt>
      <trkpt lat="44.70611" lon="2.57527">
        <ele>399.1</ele>
        <time>2021-08-19T08:32:33Z</time>
      </trkpt>
      <trkpt lat="44.70613" lon="2.5753">
        <ele>399.6</ele>
        <time>2021-08-19T08:32:35Z</time>
      </trkpt>
      <trkpt lat="44.70614" lon="2.57532">
        <ele>399.9</ele>
        <time>2021-08-19T08:32:37Z</time>
      </trkpt>
      <trkpt lat="44.70615" lon="2.57533">
        <ele>400.1</ele>
        <time>2021-08-19T08:32:39Z</time>
      </trkpt>
      <trkpt lat="44.70614" lon="2.57532">
        <ele>399.9</ele>
        <time>2021-08-19T08:32:41Z</time>
      </trkpt>
      <trkpt lat="44.70615" lon="2.57531">
        <ele>399.6</ele>
        <time>2021-08-19T08:32:43Z</time>
      </trkpt>
      <trkpt lat="44.70615" lon="2.5753">
        <ele>399.3</ele>
        <time>2021-08-19T08:32:45Z</time>
      </trkpt>
      <trkpt lat="44.70619" lon="2.5753">
        <ele>398</ele>
        <time>2021-08-19T08:40:17Z</time>
      </trkpt>
      <trkpt lat="44.70623" lon="2.57532">
        <ele>397.7</ele>
        <time>2021-08-19T08:40:19Z</time>
      </trkpt>
      <trkpt lat="44.70627" lon="2.57534">
        <ele>397.3</ele>
        <time>2021-08-19T08:40:21Z</time>
      </trkpt>
      <trkpt lat="44.7063" lon="2.57536">
        <ele>396.9</ele>
        <time>2021-08-19T08:40:23Z</time>
      </trkpt>
      <trkpt lat="44.70633" lon="2.57538">
        <ele>396.8</ele>
        <time>2021-08-19T08:40:25Z</time>
      </trkpt>
      <trkpt lat="44.70637" lon="2.5754">
        <ele>396.4</ele>
        <time>2021-08-19T08:40:27Z</time>
      </trkpt>
      <trkpt lat="44.7064" lon="2.57543">
        <ele>396.4</ele>
        <time>2021-08-19T08:40:29Z</time>
      </trkpt>
      <trkpt lat="44.70644" lon="2.57549">
        <ele>396.9</ele>
        <time>2021-08-19T08:40:31Z</time>
      </trkpt>
      <trkpt lat="44.70648" lon="2.57553">
        <ele>397</ele>
        <time>2021-08-19T08:40:33Z</time>
      </trkpt>
      <trkpt lat="44.70651" lon="2.5756">
        <ele>397.9</ele>
        <time>2021-08-19T08:40:35Z</time>
      </trkpt>
      <trkpt lat="44.70655" lon="2.57565">
        <ele>398</ele>
        <time>2021-08-19T08:40:37Z</time>
      </trkpt>
      <trkpt lat="44.70658" lon="2.5757">
        <ele>398.3</ele>
        <time>2021-08-19T08:40:39Z</time>
      </trkpt>
      <trkpt lat="44.7066" lon="2.57576">
        <ele>399.3</ele>
        <time>2021-08-19T08:40:41Z</time>
      </trkpt>
      <trkpt lat="44.70663" lon="2.57581">
        <ele>399.6</ele>
        <time>2021-08-19T08:40:43Z</time>
      </trkpt>
      <trkpt lat="44.70665" lon="2.57587">
        <ele>400.5</ele>
        <time>2021-08-19T08:40:45Z</time>
      </trkpt>
      <trkpt lat="44.70668" lon="2.57592">
        <ele>401.3</ele>
        <time>2021-08-19T08:40:47Z</time>
      </trkpt>
      <trkpt lat="44.7067" lon="2.57598">
        <ele>402.8</ele>
        <time>2021-08-19T08:40:49Z</time>
      </trkpt>
      <trkpt lat="44.70672" lon="2.57603">
        <ele>404.2</ele>
        <time>2021-08-19T08:40:51Z</time>
      </trkpt>
      <trkpt lat="44.70673" lon="2.57609">
        <ele>405.8</ele>
        <time>2021-08-19T08:40:53Z</time>
      </trkpt>
      <trkpt lat="44.70675" lon="2.57616">
        <ele>407.4</ele>
        <time>2021-08-19T08:40:55Z</time>
      </trkpt>
      <trkpt lat="44.70676" lon="2.57623">
        <ele>409.1</ele>
        <time>2021-08-19T08:40:57Z</time>
      </trkpt>
      <trkpt lat="44.70677" lon="2.5763">
        <ele>410.8</ele>
        <time>2021-08-19T08:40:59Z</time>
      </trkpt>
      <trkpt lat="44.70678" lon="2.57636">
        <ele>412.4</ele>
        <time>2021-08-19T08:41:01Z</time>
      </trkpt>
      <trkpt lat="44.70679" lon="2.57643">
        <ele>414.1</ele>
        <time>2021-08-19T08:41:03Z</time>
      </trkpt>
      <trkpt lat="44.7068" lon="2.57649">
        <ele>415.6</ele>
        <time>2021-08-19T08:41:05Z</time>
      </trkpt>
      <trkpt lat="44.70681" lon="2.57656">
        <ele>417.2</ele>
        <time>2021-08-19T08:41:07Z</time>
      </trkpt>
      <trkpt lat="44.70682" lon="2.57663">
        <ele>418.7</ele>
        <time>2021-08-19T08:41:09Z</time>
      </trkpt>
      <trkpt lat="44.70683" lon="2.57669">
        <ele>420</ele>
        <time>2021-08-19T08:41:11Z</time>
      </trkpt>
      <trkpt lat="44.70683" lon="2.57676">
        <ele>420.6</ele>
        <time>2021-08-19T08:41:13Z</time>
      </trkpt>
      <trkpt lat="44.70684" lon="2.57682">
        <ele>421.3</ele>
        <time>2021-08-19T08:41:15Z</time>
      </trkpt>
      <trkpt lat="44.70684" lon="2.57688">
        <ele>421.9</ele>
        <time>2021-08-19T08:41:17Z</time>
      </trkpt>
      <trkpt lat="44.70685" lon="2.57694">
        <ele>422.5</ele>
        <time>2021-08-19T08:41:19Z</time>
      </trkpt>
      <trkpt lat="44.70686" lon="2.577">
        <ele>423.1</ele>
        <time>2021-08-19T08:41:21Z</time>
      </trkpt>
      <trkpt lat="44.70686" lon="2.57706">
        <ele>423.6</ele>
        <time>2021-08-19T08:41:23Z</time>
      </trkpt>
      <trkpt lat="44.70687" lon="2.57712">
        <ele>424.2</ele>
        <time>2021-08-19T08:41:25Z</time>
      </trkpt>
      <trkpt lat="44.70688" lon="2.57717">
        <ele>424.7</ele>
        <time>2021-08-19T08:41:27Z</time>
      </trkpt>
      <trkpt lat="44.7069" lon="2.57723">
        <ele>425.1</ele>
        <time>2021-08-19T08:41:29Z</time>
      </trkpt>
      <trkpt lat="44.70692" lon="2.57727">
        <ele>425.4</ele>
        <time>2021-08-19T08:41:31Z</time>
      </trkpt>
      <trkpt lat="44.70693" lon="2.57732">
        <ele>425.7</ele>
        <time>2021-08-19T08:41:33Z</time>
      </trkpt>
      <trkpt lat="44.70696" lon="2.57736">
        <ele>425.8</ele>
        <time>2021-08-19T08:41:35Z</time>
      </trkpt>
      <trkpt lat="44.70699" lon="2.57739">
        <ele>425.8</ele>
        <time>2021-08-19T08:41:37Z</time>
      </trkpt>
      <trkpt lat="44.70703" lon="2.57742">
        <ele>425.7</ele>
        <time>2021-08-19T08:41:39Z</time>
      </trkpt>
      <trkpt lat="44.70707" lon="2.57744">
        <ele>425.4</ele>
        <time>2021-08-19T08:41:41Z</time>
      </trkpt>
      <trkpt lat="44.70712" lon="2.57745">
        <ele>424.9</ele>
        <time>2021-08-19T08:41:43Z</time>
      </trkpt>
      <trkpt lat="44.70716" lon="2.57746">
        <ele>424.6</ele>
        <time>2021-08-19T08:41:45Z</time>
      </trkpt>
      <trkpt lat="44.70719" lon="2.57744">
        <ele>424.1</ele>
        <time>2021-08-19T08:41:47Z</time>
      </trkpt>
      <trkpt lat="44.70723" lon="2.57742">
        <ele>423.3</ele>
        <time>2021-08-19T08:41:49Z</time>
      </trkpt>
      <trkpt lat="44.70726" lon="2.57739">
        <ele>422.4</ele>
        <time>2021-08-19T08:41:51Z</time>
      </trkpt>
      <trkpt lat="44.70729" lon="2.57735">
        <ele>421.5</ele>
        <time>2021-08-19T08:41:53Z</time>
      </trkpt>
      <trkpt lat="44.70733" lon="2.5773">
        <ele>420.6</ele>
        <time>2021-08-19T08:41:55Z</time>
      </trkpt>
      <trkpt lat="44.70735" lon="2.57725">
        <ele>419.6</ele>
        <time>2021-08-19T08:41:57Z</time>
      </trkpt>
      <trkpt lat="44.70738" lon="2.5772">
        <ele>418.7</ele>
        <time>2021-08-19T08:41:59Z</time>
      </trkpt>
      <trkpt lat="44.7074" lon="2.57715">
        <ele>417.8</ele>
        <time>2021-08-19T08:42:01Z</time>
      </trkpt>
      <trkpt lat="44.70741" lon="2.5771">
        <ele>416.8</ele>
        <time>2021-08-19T08:42:03Z</time>
      </trkpt>
      <trkpt lat="44.70743" lon="2.57704">
        <ele>415.9</ele>
        <time>2021-08-19T08:42:05Z</time>
      </trkpt>
      <trkpt lat="44.70744" lon="2.57699">
        <ele>415.1</ele>
        <time>2021-08-19T08:42:07Z</time>
      </trkpt>
      <trkpt lat="44.70746" lon="2.57693">
        <ele>414</ele>
        <time>2021-08-19T08:42:09Z</time>
      </trkpt>
      <trkpt lat="44.70747" lon="2.57687">
        <ele>413.1</ele>
        <time>2021-08-19T08:42:11Z</time>
      </trkpt>
      <trkpt lat="44.70748" lon="2.57682">
        <ele>412.2</ele>
        <time>2021-08-19T08:42:13Z</time>
      </trkpt>
      <trkpt lat="44.7075" lon="2.57676">
        <ele>411.2</ele>
        <time>2021-08-19T08:42:15Z</time>
      </trkpt>
      <trkpt lat="44.70751" lon="2.5767">
        <ele>410.8</ele>
        <time>2021-08-19T08:42:17Z</time>
      </trkpt>
      <trkpt lat="44.70752" lon="2.57663">
        <ele>410.4</ele>
        <time>2021-08-19T08:42:19Z</time>
      </trkpt>
      <trkpt lat="44.70753" lon="2.57658">
        <ele>410</ele>
        <time>2021-08-19T08:42:21Z</time>
      </trkpt>
      <trkpt lat="44.70754" lon="2.57653">
        <ele>409.5</ele>
        <time>2021-08-19T08:42:23Z</time>
      </trkpt>
      <trkpt lat="44.70755" lon="2.57647">
        <ele>409.4</ele>
        <time>2021-08-19T08:42:25Z</time>
      </trkpt>
      <trkpt lat="44.70756" lon="2.57642">
        <ele>409</ele>
        <time>2021-08-19T08:42:27Z</time>
      </trkpt>
      <trkpt lat="44.70757" lon="2.57637">
        <ele>408.5</ele>
        <time>2021-08-19T08:42:29Z</time>
      </trkpt>
      <trkpt lat="44.70758" lon="2.57631">
        <ele>408.3</ele>
        <time>2021-08-19T08:42:31Z</time>
      </trkpt>
      <trkpt lat="44.7076" lon="2.57626">
        <ele>408</ele>
        <time>2021-08-19T08:42:33Z</time>
      </trkpt>
      <trkpt lat="44.70761" lon="2.5762">
        <ele>407.3</ele>
        <time>2021-08-19T08:42:35Z</time>
      </trkpt>
      <trkpt lat="44.70761" lon="2.57614">
        <ele>406.5</ele>
        <time>2021-08-19T08:42:37Z</time>
      </trkpt>
      <trkpt lat="44.70762" lon="2.57609">
        <ele>406.2</ele>
        <time>2021-08-19T08:42:39Z</time>
      </trkpt>
      <trkpt lat="44.70764" lon="2.57603">
        <ele>405.7</ele>
        <time>2021-08-19T08:42:41Z</time>
      </trkpt>
      <trkpt lat="44.70765" lon="2.57597">
        <ele>405.3</ele>
        <time>2021-08-19T08:42:43Z</time>
      </trkpt>
      <trkpt lat="44.70766" lon="2.57592">
        <ele>404.8</ele>
        <time>2021-08-19T08:42:45Z</time>
      </trkpt>
      <trkpt lat="44.70768" lon="2.57586">
        <ele>404.6</ele>
        <time>2021-08-19T08:42:47Z</time>
      </trkpt>
      <trkpt lat="44.7077" lon="2.57581">
        <ele>404.3</ele>
        <time>2021-08-19T08:42:49Z</time>
      </trkpt>
      <trkpt lat="44.70772" lon="2.57576">
        <ele>403.9</ele>
        <time>2021-08-19T08:42:51Z</time>
      </trkpt>
      <trkpt lat="44.70775" lon="2.57571">
        <ele>403.7</ele>
        <time>2021-08-19T08:42:53Z</time>
      </trkpt>
      <trkpt lat="44.70777" lon="2.57566">
        <ele>403.5</ele>
        <time>2021-08-19T08:42:55Z</time>
      </trkpt>
      <trkpt lat="44.7078" lon="2.57561">
        <ele>403.1</ele>
        <time>2021-08-19T08:42:57Z</time>
      </trkpt>
      <trkpt lat="44.70782" lon="2.57557">
        <ele>403.2</ele>
        <time>2021-08-19T08:42:59Z</time>
      </trkpt>
      <trkpt lat="44.70785" lon="2.57552">
        <ele>403</ele>
        <time>2021-08-19T08:43:01Z</time>
      </trkpt>
      <trkpt lat="44.70788" lon="2.57549">
        <ele>403.1</ele>
        <time>2021-08-19T08:43:03Z</time>
      </trkpt>
      <trkpt lat="44.70792" lon="2.57545">
        <ele>403.3</ele>
        <time>2021-08-19T08:43:05Z</time>
      </trkpt>
      <trkpt lat="44.70795" lon="2.5754">
        <ele>403.2</ele>
        <time>2021-08-19T08:43:07Z</time>
      </trkpt>
      <trkpt lat="44.70799" lon="2.57536">
        <ele>403.6</ele>
        <time>2021-08-19T08:43:09Z</time>
      </trkpt>
      <trkpt lat="44.70803" lon="2.57533">
        <ele>403.9</ele>
        <time>2021-08-19T08:43:11Z</time>
      </trkpt>
      <trkpt lat="44.70806" lon="2.57529">
        <ele>404</ele>
        <time>2021-08-19T08:43:13Z</time>
      </trkpt>
      <trkpt lat="44.7081" lon="2.57526">
        <ele>404.5</ele>
        <time>2021-08-19T08:43:15Z</time>
      </trkpt>
      <trkpt lat="44.70814" lon="2.57523">
        <ele>404.9</ele>
        <time>2021-08-19T08:43:17Z</time>
      </trkpt>
      <trkpt lat="44.70817" lon="2.5752">
        <ele>405.1</ele>
        <time>2021-08-19T08:43:19Z</time>
      </trkpt>
      <trkpt lat="44.70822" lon="2.57519">
        <ele>406.2</ele>
        <time>2021-08-19T08:43:21Z</time>
      </trkpt>
      <trkpt lat="44.70826" lon="2.57518">
        <ele>407.5</ele>
        <time>2021-08-19T08:43:23Z</time>
      </trkpt>
      <trkpt lat="44.7083" lon="2.57517">
        <ele>408.1</ele>
        <time>2021-08-19T08:43:25Z</time>
      </trkpt>
      <trkpt lat="44.70834" lon="2.57516">
        <ele>409.1</ele>
        <time>2021-08-19T08:43:27Z</time>
      </trkpt>
      <trkpt lat="44.70839" lon="2.57516">
        <ele>409.9</ele>
        <time>2021-08-19T08:43:29Z</time>
      </trkpt>
      <trkpt lat="44.70843" lon="2.57516">
        <ele>410.7</ele>
        <time>2021-08-19T08:43:31Z</time>
      </trkpt>
      <trkpt lat="44.70847" lon="2.57516">
        <ele>411.5</ele>
        <time>2021-08-19T08:43:33Z</time>
      </trkpt>
      <trkpt lat="44.70851" lon="2.57516">
        <ele>412.4</ele>
        <time>2021-08-19T08:43:35Z</time>
      </trkpt>
      <trkpt lat="44.70856" lon="2.57515">
        <ele>413</ele>
        <time>2021-08-19T08:43:37Z</time>
      </trkpt>
      <trkpt lat="44.7086" lon="2.57515">
        <ele>414</ele>
        <time>2021-08-19T08:43:39Z</time>
      </trkpt>
      <trkpt lat="44.70864" lon="2.57516">
        <ele>415</ele>
        <time>2021-08-19T08:43:41Z</time>
      </trkpt>
      <trkpt lat="44.70869" lon="2.57517">
        <ele>416.2</ele>
        <time>2021-08-19T08:43:43Z</time>
      </trkpt>
      <trkpt lat="44.70873" lon="2.57518">
        <ele>417.3</ele>
        <time>2021-08-19T08:43:45Z</time>
      </trkpt>
      <trkpt lat="44.70877" lon="2.57518">
        <ele>418.3</ele>
        <time>2021-08-19T08:43:47Z</time>
      </trkpt>
      <trkpt lat="44.70882" lon="2.57519">
        <ele>419.2</ele>
        <time>2021-08-19T08:43:49Z</time>
      </trkpt>
      <trkpt lat="44.70886" lon="2.57519">
        <ele>420</ele>
        <time>2021-08-19T08:43:51Z</time>
      </trkpt>
      <trkpt lat="44.7089" lon="2.57519">
        <ele>420.9</ele>
        <time>2021-08-19T08:43:53Z</time>
      </trkpt>
      <trkpt lat="44.70894" lon="2.5752">
        <ele>421.9</ele>
        <time>2021-08-19T08:43:55Z</time>
      </trkpt>
      <trkpt lat="44.70899" lon="2.5752">
        <ele>423</ele>
        <time>2021-08-19T08:43:57Z</time>
      </trkpt>
      <trkpt lat="44.70903" lon="2.57518">
        <ele>423.2</ele>
        <time>2021-08-19T08:43:59Z</time>
      </trkpt>
      <trkpt lat="44.70907" lon="2.57517">
        <ele>423.6</ele>
        <time>2021-08-19T08:44:01Z</time>
      </trkpt>
      <trkpt lat="44.70911" lon="2.57515">
        <ele>423.9</ele>
        <time>2021-08-19T08:44:03Z</time>
      </trkpt>
      <trkpt lat="44.70915" lon="2.57513">
        <ele>424</ele>
        <time>2021-08-19T08:44:05Z</time>
      </trkpt>
      <trkpt lat="44.70918" lon="2.5751">
        <ele>423.7</ele>
        <time>2021-08-19T08:44:07Z</time>
      </trkpt>
      <trkpt lat="44.70921" lon="2.57506">
        <ele>423.6</ele>
        <time>2021-08-19T08:44:09Z</time>
      </trkpt>
      <trkpt lat="44.70924" lon="2.57501">
        <ele>423.2</ele>
        <time>2021-08-19T08:44:11Z</time>
      </trkpt>
      <trkpt lat="44.70926" lon="2.57496">
        <ele>423</ele>
        <time>2021-08-19T08:44:13Z</time>
      </trkpt>
      <trkpt lat="44.70927" lon="2.5749">
        <ele>422.8</ele>
        <time>2021-08-19T08:44:15Z</time>
      </trkpt>
      <trkpt lat="44.70929" lon="2.57484">
        <ele>422.2</ele>
        <time>2021-08-19T08:44:17Z</time>
      </trkpt>
      <trkpt lat="44.70931" lon="2.57478">
        <ele>422.1</ele>
        <time>2021-08-19T08:44:19Z</time>
      </trkpt>
      <trkpt lat="44.70933" lon="2.57472">
        <ele>421.9</ele>
        <time>2021-08-19T08:44:21Z</time>
      </trkpt>
      <trkpt lat="44.70934" lon="2.57466">
        <ele>421.4</ele>
        <time>2021-08-19T08:44:23Z</time>
      </trkpt>
      <trkpt lat="44.70936" lon="2.57459">
        <ele>420.8</ele>
        <time>2021-08-19T08:44:25Z</time>
      </trkpt>
      <trkpt lat="44.70938" lon="2.57454">
        <ele>420.4</ele>
        <time>2021-08-19T08:44:27Z</time>
      </trkpt>
      <trkpt lat="44.70939" lon="2.57447">
        <ele>419.9</ele>
        <time>2021-08-19T08:44:29Z</time>
      </trkpt>
      <trkpt lat="44.70941" lon="2.57441">
        <ele>419.4</ele>
        <time>2021-08-19T08:44:31Z</time>
      </trkpt>
      <trkpt lat="44.70941" lon="2.57435">
        <ele>418.6</ele>
        <time>2021-08-19T08:44:33Z</time>
      </trkpt>
      <trkpt lat="44.70942" lon="2.5743">
        <ele>417.9</ele>
        <time>2021-08-19T08:44:35Z</time>
      </trkpt>
      <trkpt lat="44.70943" lon="2.57423">
        <ele>416.9</ele>
        <time>2021-08-19T08:44:37Z</time>
      </trkpt>
      <trkpt lat="44.70944" lon="2.57417">
        <ele>416.2</ele>
        <time>2021-08-19T08:44:39Z</time>
      </trkpt>
      <trkpt lat="44.70945" lon="2.57411">
        <ele>416.4</ele>
        <time>2021-08-19T08:44:41Z</time>
      </trkpt>
      <trkpt lat="44.70945" lon="2.57405">
        <ele>416.7</ele>
        <time>2021-08-19T08:44:43Z</time>
      </trkpt>
      <trkpt lat="44.70946" lon="2.57399">
        <ele>416.8</ele>
        <time>2021-08-19T08:44:45Z</time>
      </trkpt>
      <trkpt lat="44.70946" lon="2.57393">
        <ele>416.9</ele>
        <time>2021-08-19T08:44:47Z</time>
      </trkpt>
      <trkpt lat="44.70947" lon="2.57388">
        <ele>417.2</ele>
        <time>2021-08-19T08:44:49Z</time>
      </trkpt>
      <trkpt lat="44.70948" lon="2.57382">
        <ele>417.5</ele>
        <time>2021-08-19T08:44:51Z</time>
      </trkpt>
      <trkpt lat="44.70949" lon="2.57378">
        <ele>417.9</ele>
        <time>2021-08-19T08:44:53Z</time>
      </trkpt>
      <trkpt lat="44.70951" lon="2.57373">
        <ele>418.1</ele>
        <time>2021-08-19T08:44:55Z</time>
      </trkpt>
      <trkpt lat="44.70953" lon="2.57369">
        <ele>418.8</ele>
        <time>2021-08-19T08:44:57Z</time>
      </trkpt>
      <trkpt lat="44.70956" lon="2.57365">
        <ele>419.3</ele>
        <time>2021-08-19T08:44:59Z</time>
      </trkpt>
      <trkpt lat="44.70959" lon="2.57362">
        <ele>420.1</ele>
        <time>2021-08-19T08:45:01Z</time>
      </trkpt>
      <trkpt lat="44.70963" lon="2.5736">
        <ele>420.8</ele>
        <time>2021-08-19T08:45:03Z</time>
      </trkpt>
      <trkpt lat="44.70967" lon="2.57361">
        <ele>421.9</ele>
        <time>2021-08-19T08:45:05Z</time>
      </trkpt>
      <trkpt lat="44.7097" lon="2.57362">
        <ele>422.7</ele>
        <time>2021-08-19T08:45:07Z</time>
      </trkpt>
      <trkpt lat="44.70973" lon="2.57362">
        <ele>423.5</ele>
        <time>2021-08-19T08:45:09Z</time>
      </trkpt>
      <trkpt lat="44.70976" lon="2.57365">
        <ele>424.3</ele>
        <time>2021-08-19T08:45:11Z</time>
      </trkpt>
      <trkpt lat="44.70979" lon="2.57368">
        <ele>425.2</ele>
        <time>2021-08-19T08:45:13Z</time>
      </trkpt>
      <trkpt lat="44.7098" lon="2.57373">
        <ele>426</ele>
        <time>2021-08-19T08:45:15Z</time>
      </trkpt>
      <trkpt lat="44.70981" lon="2.57379">
        <ele>426.6</ele>
        <time>2021-08-19T08:45:17Z</time>
      </trkpt>
      <trkpt lat="44.70983" lon="2.57383">
        <ele>427.7</ele>
        <time>2021-08-19T08:45:19Z</time>
      </trkpt>
      <trkpt lat="44.70987" lon="2.57385">
        <ele>428.9</ele>
        <time>2021-08-19T08:45:21Z</time>
      </trkpt>
      <trkpt lat="44.7099" lon="2.57383">
        <ele>429.6</ele>
        <time>2021-08-19T08:45:23Z</time>
      </trkpt>
      <trkpt lat="44.70993" lon="2.57381">
        <ele>430.2</ele>
        <time>2021-08-19T08:45:25Z</time>
      </trkpt>
      <trkpt lat="44.70995" lon="2.57378">
        <ele>430.7</ele>
        <time>2021-08-19T08:45:27Z</time>
      </trkpt>
      <trkpt lat="44.70998" lon="2.57376">
        <ele>431.1</ele>
        <time>2021-08-19T08:45:29Z</time>
      </trkpt>
      <trkpt lat="44.71001" lon="2.57375">
        <ele>431.6</ele>
        <time>2021-08-19T08:45:31Z</time>
      </trkpt>
      <trkpt lat="44.71003" lon="2.57374">
        <ele>431.8</ele>
        <time>2021-08-19T08:45:33Z</time>
      </trkpt>
      <trkpt lat="44.71004" lon="2.57373">
        <ele>431.8</ele>
        <time>2021-08-19T08:45:35Z</time>
      </trkpt>
      <trkpt lat="44.71004" lon="2.57373">
        <ele>431.7</ele>
        <time>2021-08-19T08:45:37Z</time>
      </trkpt>
      <trkpt lat="44.71004" lon="2.57374">
        <ele>431.8</ele>
        <time>2021-08-19T08:45:39Z</time>
      </trkpt>
      <trkpt lat="44.71004" lon="2.57374">
        <ele>431.8</ele>
        <time>2021-08-19T08:45:41Z</time>
      </trkpt>
      <trkpt lat="44.71013" lon="2.57368">
        <ele>432.1</ele>
        <time>2021-08-19T08:48:41Z</time>
      </trkpt>
      <trkpt lat="44.71017" lon="2.57367">
        <ele>432.4</ele>
        <time>2021-08-19T08:48:43Z</time>
      </trkpt>
      <trkpt lat="44.71022" lon="2.57363">
        <ele>432.3</ele>
        <time>2021-08-19T08:48:45Z</time>
      </trkpt>
      <trkpt lat="44.71027" lon="2.57359">
        <ele>432.1</ele>
        <time>2021-08-19T08:48:47Z</time>
      </trkpt>
      <trkpt lat="44.71035" lon="2.57353">
        <ele>431.7</ele>
        <time>2021-08-19T08:48:49Z</time>
      </trkpt>
      <trkpt lat="44.7104" lon="2.57348">
        <ele>431</ele>
        <time>2021-08-19T08:48:51Z</time>
      </trkpt>
      <trkpt lat="44.71044" lon="2.57344">
        <ele>430.5</ele>
        <time>2021-08-19T08:48:53Z</time>
      </trkpt>
      <trkpt lat="44.71049" lon="2.57342">
        <ele>430.4</ele>
        <time>2021-08-19T08:48:55Z</time>
      </trkpt>
      <trkpt lat="44.71054" lon="2.5734">
        <ele>430.3</ele>
        <time>2021-08-19T08:48:57Z</time>
      </trkpt>
      <trkpt lat="44.7106" lon="2.57339">
        <ele>430.3</ele>
        <time>2021-08-19T08:48:59Z</time>
      </trkpt>
      <trkpt lat="44.71064" lon="2.57337">
        <ele>430</ele>
        <time>2021-08-19T08:49:01Z</time>
      </trkpt>
      <trkpt lat="44.71069" lon="2.57335">
        <ele>429.8</ele>
        <time>2021-08-19T08:49:03Z</time>
      </trkpt>
      <trkpt lat="44.71075" lon="2.57335">
        <ele>429.9</ele>
        <time>2021-08-19T08:49:05Z</time>
      </trkpt>
      <trkpt lat="44.7108" lon="2.57334">
        <ele>430</ele>
        <time>2021-08-19T08:49:07Z</time>
      </trkpt>
      <trkpt lat="44.71084" lon="2.57332">
        <ele>429.9</ele>
        <time>2021-08-19T08:49:09Z</time>
      </trkpt>
      <trkpt lat="44.71089" lon="2.57332">
        <ele>430.1</ele>
        <time>2021-08-19T08:49:11Z</time>
      </trkpt>
      <trkpt lat="44.71094" lon="2.5733">
        <ele>430.1</ele>
        <time>2021-08-19T08:49:13Z</time>
      </trkpt>
      <trkpt lat="44.711" lon="2.57328">
        <ele>430.1</ele>
        <time>2021-08-19T08:49:15Z</time>
      </trkpt>
      <trkpt lat="44.71106" lon="2.57327">
        <ele>430.1</ele>
        <time>2021-08-19T08:49:17Z</time>
      </trkpt>
      <trkpt lat="44.71112" lon="2.57324">
        <ele>430</ele>
        <time>2021-08-19T08:49:19Z</time>
      </trkpt>
      <trkpt lat="44.71118" lon="2.57319">
        <ele>429.3</ele>
        <time>2021-08-19T08:49:21Z</time>
      </trkpt>
      <trkpt lat="44.71122" lon="2.57312">
        <ele>428.2</ele>
        <time>2021-08-19T08:49:23Z</time>
      </trkpt>
      <trkpt lat="44.71127" lon="2.57305">
        <ele>427.1</ele>
        <time>2021-08-19T08:49:25Z</time>
      </trkpt>
      <trkpt lat="44.71132" lon="2.57298">
        <ele>426.1</ele>
        <time>2021-08-19T08:49:27Z</time>
      </trkpt>
      <trkpt lat="44.71137" lon="2.57293">
        <ele>425.2</ele>
        <time>2021-08-19T08:49:29Z</time>
      </trkpt>
      <trkpt lat="44.71143" lon="2.57289">
        <ele>424.9</ele>
        <time>2021-08-19T08:49:31Z</time>
      </trkpt>
      <trkpt lat="44.71152" lon="2.5729">
        <ele>425.4</ele>
        <time>2021-08-19T08:49:33Z</time>
      </trkpt>
      <trkpt lat="44.7116" lon="2.57288">
        <ele>425.4</ele>
        <time>2021-08-19T08:49:35Z</time>
      </trkpt>
      <trkpt lat="44.71168" lon="2.57294">
        <ele>426.8</ele>
        <time>2021-08-19T08:49:37Z</time>
      </trkpt>
      <trkpt lat="44.71177" lon="2.57302">
        <ele>427</ele>
        <time>2021-08-19T08:49:39Z</time>
      </trkpt>
      <trkpt lat="44.71185" lon="2.57312">
        <ele>428.2</ele>
        <time>2021-08-19T08:49:41Z</time>
      </trkpt>
      <trkpt lat="44.71193" lon="2.57323">
        <ele>429.6</ele>
        <time>2021-08-19T08:49:43Z</time>
      </trkpt>
      <trkpt lat="44.71202" lon="2.57333">
        <ele>430.5</ele>
        <time>2021-08-19T08:49:45Z</time>
      </trkpt>
      <trkpt lat="44.71215" lon="2.57336">
        <ele>430</ele>
        <time>2021-08-19T08:49:47Z</time>
      </trkpt>
      <trkpt lat="44.71227" lon="2.57333">
        <ele>427.7</ele>
        <time>2021-08-19T08:49:49Z</time>
      </trkpt>
      <trkpt lat="44.7124" lon="2.57331">
        <ele>425.6</ele>
        <time>2021-08-19T08:49:51Z</time>
      </trkpt>
      <trkpt lat="44.71252" lon="2.57332">
        <ele>424.5</ele>
        <time>2021-08-19T08:49:53Z</time>
      </trkpt>
      <trkpt lat="44.71264" lon="2.57336">
        <ele>425.2</ele>
        <time>2021-08-19T08:49:55Z</time>
      </trkpt>
      <trkpt lat="44.71275" lon="2.57344">
        <ele>427.5</ele>
        <time>2021-08-19T08:49:57Z</time>
      </trkpt>
      <trkpt lat="44.71285" lon="2.57354">
        <ele>429.9</ele>
        <time>2021-08-19T08:49:59Z</time>
      </trkpt>
      <trkpt lat="44.71294" lon="2.57364">
        <ele>432.7</ele>
        <time>2021-08-19T08:50:01Z</time>
      </trkpt>
      <trkpt lat="44.71303" lon="2.57374">
        <ele>435.5</ele>
        <time>2021-08-19T08:50:03Z</time>
      </trkpt>
      <trkpt lat="44.71312" lon="2.57384">
        <ele>438.2</ele>
        <time>2021-08-19T08:50:05Z</time>
      </trkpt>
      <trkpt lat="44.71321" lon="2.57392">
        <ele>440.1</ele>
        <time>2021-08-19T08:50:07Z</time>
      </trkpt>
      <trkpt lat="44.71331" lon="2.57393">
        <ele>439.9</ele>
        <time>2021-08-19T08:50:09Z</time>
      </trkpt>
      <trkpt lat="44.71341" lon="2.57384">
        <ele>437.9</ele>
        <time>2021-08-19T08:50:11Z</time>
      </trkpt>
      <trkpt lat="44.71345" lon="2.57368">
        <ele>433.8</ele>
        <time>2021-08-19T08:50:13Z</time>
      </trkpt>
      <trkpt lat="44.71346" lon="2.57353">
        <ele>429.4</ele>
        <time>2021-08-19T08:50:15Z</time>
      </trkpt>
      <trkpt lat="44.71346" lon="2.57336">
        <ele>424.7</ele>
        <time>2021-08-19T08:50:17Z</time>
      </trkpt>
      <trkpt lat="44.71346" lon="2.57319">
        <ele>420.8</ele>
        <time>2021-08-19T08:50:19Z</time>
      </trkpt>
      <trkpt lat="44.71345" lon="2.57304">
        <ele>417.3</ele>
        <time>2021-08-19T08:50:21Z</time>
      </trkpt>
      <trkpt lat="44.71347" lon="2.57289">
        <ele>414.3</ele>
        <time>2021-08-19T08:50:23Z</time>
      </trkpt>
      <trkpt lat="44.71355" lon="2.57277">
        <ele>412.4</ele>
        <time>2021-08-19T08:50:25Z</time>
      </trkpt>
      <trkpt lat="44.71366" lon="2.5727">
        <ele>411.6</ele>
        <time>2021-08-19T08:50:27Z</time>
      </trkpt>
      <trkpt lat="44.71379" lon="2.5727">
        <ele>412.8</ele>
        <time>2021-08-19T08:50:29Z</time>
      </trkpt>
      <trkpt lat="44.71391" lon="2.57274">
        <ele>414.8</ele>
        <time>2021-08-19T08:50:31Z</time>
      </trkpt>
      <trkpt lat="44.71406" lon="2.57278">
        <ele>417.2</ele>
        <time>2021-08-19T08:50:33Z</time>
      </trkpt>
      <trkpt lat="44.71421" lon="2.57278">
        <ele>418.3</ele>
        <time>2021-08-19T08:50:35Z</time>
      </trkpt>
      <trkpt lat="44.71436" lon="2.57277">
        <ele>418.6</ele>
        <time>2021-08-19T08:50:37Z</time>
      </trkpt>
      <trkpt lat="44.71451" lon="2.57275">
        <ele>418.5</ele>
        <time>2021-08-19T08:50:39Z</time>
      </trkpt>
      <trkpt lat="44.71466" lon="2.57271">
        <ele>418.1</ele>
        <time>2021-08-19T08:50:41Z</time>
      </trkpt>
      <trkpt lat="44.71481" lon="2.57271">
        <ele>418.4</ele>
        <time>2021-08-19T08:50:43Z</time>
      </trkpt>
      <trkpt lat="44.71495" lon="2.57262">
        <ele>415.9</ele>
        <time>2021-08-19T08:50:45Z</time>
      </trkpt>
      <trkpt lat="44.71508" lon="2.57252">
        <ele>414.2</ele>
        <time>2021-08-19T08:50:47Z</time>
      </trkpt>
      <trkpt lat="44.71522" lon="2.57247">
        <ele>416.2</ele>
        <time>2021-08-19T08:50:49Z</time>
      </trkpt>
      <trkpt lat="44.71534" lon="2.57244">
        <ele>418.6</ele>
        <time>2021-08-19T08:50:51Z</time>
      </trkpt>
      <trkpt lat="44.71545" lon="2.57239">
        <ele>421</ele>
        <time>2021-08-19T08:50:53Z</time>
      </trkpt>
      <trkpt lat="44.71554" lon="2.57228">
        <ele>423.4</ele>
        <time>2021-08-19T08:50:55Z</time>
      </trkpt>
      <trkpt lat="44.71556" lon="2.57211">
        <ele>424.4</ele>
        <time>2021-08-19T08:50:57Z</time>
      </trkpt>
      <trkpt lat="44.71548" lon="2.57195">
        <ele>421.7</ele>
        <time>2021-08-19T08:50:59Z</time>
      </trkpt>
      <trkpt lat="44.71535" lon="2.57182">
        <ele>416.4</ele>
        <time>2021-08-19T08:51:01Z</time>
      </trkpt>
      <trkpt lat="44.71522" lon="2.57169">
        <ele>410.4</ele>
        <time>2021-08-19T08:51:03Z</time>
      </trkpt>
      <trkpt lat="44.71512" lon="2.57152">
        <ele>406.9</ele>
        <time>2021-08-19T08:51:05Z</time>
      </trkpt>
      <trkpt lat="44.71504" lon="2.57133">
        <ele>404.4</ele>
        <time>2021-08-19T08:51:07Z</time>
      </trkpt>
      <trkpt lat="44.71499" lon="2.57115">
        <ele>403.5</ele>
        <time>2021-08-19T08:51:09Z</time>
      </trkpt>
      <trkpt lat="44.71497" lon="2.571">
        <ele>404</ele>
        <time>2021-08-19T08:51:11Z</time>
      </trkpt>
      <trkpt lat="44.71495" lon="2.57085">
        <ele>404.4</ele>
        <time>2021-08-19T08:51:13Z</time>
      </trkpt>
      <trkpt lat="44.71491" lon="2.57072">
        <ele>405.9</ele>
        <time>2021-08-19T08:51:15Z</time>
      </trkpt>
      <trkpt lat="44.71487" lon="2.5706">
        <ele>407.3</ele>
        <time>2021-08-19T08:51:17Z</time>
      </trkpt>
      <trkpt lat="44.7148" lon="2.57049">
        <ele>407.9</ele>
        <time>2021-08-19T08:51:19Z</time>
      </trkpt>
      <trkpt lat="44.71472" lon="2.57039">
        <ele>408.1</ele>
        <time>2021-08-19T08:51:21Z</time>
      </trkpt>
      <trkpt lat="44.71461" lon="2.57032">
        <ele>406.7</ele>
        <time>2021-08-19T08:51:23Z</time>
      </trkpt>
      <trkpt lat="44.71449" lon="2.57027">
        <ele>404.5</ele>
        <time>2021-08-19T08:51:25Z</time>
      </trkpt>
      <trkpt lat="44.71435" lon="2.57025">
        <ele>401.2</ele>
        <time>2021-08-19T08:51:27Z</time>
      </trkpt>
      <trkpt lat="44.7142" lon="2.57025">
        <ele>397.2</ele>
        <time>2021-08-19T08:51:29Z</time>
      </trkpt>
      <trkpt lat="44.71404" lon="2.57023">
        <ele>392</ele>
        <time>2021-08-19T08:51:31Z</time>
      </trkpt>
      <trkpt lat="44.7139" lon="2.57013">
        <ele>388.5</ele>
        <time>2021-08-19T08:51:33Z</time>
      </trkpt>
      <trkpt lat="44.7138" lon="2.56999">
        <ele>386.5</ele>
        <time>2021-08-19T08:51:35Z</time>
      </trkpt>
      <trkpt lat="44.7137" lon="2.56983">
        <ele>384.1</ele>
        <time>2021-08-19T08:51:37Z</time>
      </trkpt>
      <trkpt lat="44.71362" lon="2.56965">
        <ele>382.8</ele>
        <time>2021-08-19T08:51:39Z</time>
      </trkpt>
      <trkpt lat="44.71356" lon="2.56946">
        <ele>381.9</ele>
        <time>2021-08-19T08:51:41Z</time>
      </trkpt>
      <trkpt lat="44.7135" lon="2.56925">
        <ele>381.7</ele>
        <time>2021-08-19T08:51:43Z</time>
      </trkpt>
      <trkpt lat="44.71347" lon="2.56902">
        <ele>380.8</ele>
        <time>2021-08-19T08:51:45Z</time>
      </trkpt>
      <trkpt lat="44.71344" lon="2.56878">
        <ele>379.7</ele>
        <time>2021-08-19T08:51:47Z</time>
      </trkpt>
      <trkpt lat="44.71342" lon="2.56855">
        <ele>379</ele>
        <time>2021-08-19T08:51:49Z</time>
      </trkpt>
      <trkpt lat="44.71341" lon="2.56833">
        <ele>378.7</ele>
        <time>2021-08-19T08:51:51Z</time>
      </trkpt>
      <trkpt lat="44.71338" lon="2.56813">
        <ele>376.2</ele>
        <time>2021-08-19T08:51:53Z</time>
      </trkpt>
      <trkpt lat="44.71337" lon="2.56794">
        <ele>374.5</ele>
        <time>2021-08-19T08:51:55Z</time>
      </trkpt>
      <trkpt lat="44.71341" lon="2.56776">
        <ele>374.7</ele>
        <time>2021-08-19T08:51:57Z</time>
      </trkpt>
      <trkpt lat="44.71351" lon="2.56761">
        <ele>377.7</ele>
        <time>2021-08-19T08:51:59Z</time>
      </trkpt>
      <trkpt lat="44.71365" lon="2.56755">
        <ele>382.4</ele>
        <time>2021-08-19T08:52:01Z</time>
      </trkpt>
      <trkpt lat="44.71376" lon="2.56744">
        <ele>385.1</ele>
        <time>2021-08-19T08:52:03Z</time>
      </trkpt>
      <trkpt lat="44.7138" lon="2.56727">
        <ele>385.2</ele>
        <time>2021-08-19T08:52:05Z</time>
      </trkpt>
      <trkpt lat="44.71379" lon="2.56711">
        <ele>383.3</ele>
        <time>2021-08-19T08:52:07Z</time>
      </trkpt>
      <trkpt lat="44.71378" lon="2.56694">
        <ele>381.1</ele>
        <time>2021-08-19T08:52:09Z</time>
      </trkpt>
      <trkpt lat="44.71376" lon="2.56676">
        <ele>378.9</ele>
        <time>2021-08-19T08:52:11Z</time>
      </trkpt>
      <trkpt lat="44.71377" lon="2.56659">
        <ele>377.5</ele>
        <time>2021-08-19T08:52:13Z</time>
      </trkpt>
      <trkpt lat="44.71379" lon="2.56645">
        <ele>377</ele>
        <time>2021-08-19T08:52:15Z</time>
      </trkpt>
      <trkpt lat="44.71384" lon="2.56635">
        <ele>377.8</ele>
        <time>2021-08-19T08:52:17Z</time>
      </trkpt>
      <trkpt lat="44.71387" lon="2.56626">
        <ele>378.1</ele>
        <time>2021-08-19T08:52:19Z</time>
      </trkpt>
      <trkpt lat="44.71392" lon="2.56616">
        <ele>378.7</ele>
        <time>2021-08-19T08:52:21Z</time>
      </trkpt>
      <trkpt lat="44.71397" lon="2.56604">
        <ele>379.6</ele>
        <time>2021-08-19T08:52:23Z</time>
      </trkpt>
      <trkpt lat="44.71402" lon="2.5659">
        <ele>380</ele>
        <time>2021-08-19T08:52:25Z</time>
      </trkpt>
      <trkpt lat="44.71406" lon="2.56575">
        <ele>380.5</ele>
        <time>2021-08-19T08:52:27Z</time>
      </trkpt>
      <trkpt lat="44.71409" lon="2.56558">
        <ele>380.9</ele>
        <time>2021-08-19T08:52:29Z</time>
      </trkpt>
      <trkpt lat="44.71413" lon="2.56539">
        <ele>381.3</ele>
        <time>2021-08-19T08:52:31Z</time>
      </trkpt>
      <trkpt lat="44.71413" lon="2.56518">
        <ele>380.5</ele>
        <time>2021-08-19T08:52:33Z</time>
      </trkpt>
      <trkpt lat="44.71412" lon="2.56495">
        <ele>378.7</ele>
        <time>2021-08-19T08:52:35Z</time>
      </trkpt>
      <trkpt lat="44.71411" lon="2.56471">
        <ele>377.4</ele>
        <time>2021-08-19T08:52:37Z</time>
      </trkpt>
      <trkpt lat="44.71411" lon="2.56448">
        <ele>376.9</ele>
        <time>2021-08-19T08:52:39Z</time>
      </trkpt>
      <trkpt lat="44.71412" lon="2.56426">
        <ele>376.8</ele>
        <time>2021-08-19T08:52:41Z</time>
      </trkpt>
      <trkpt lat="44.71413" lon="2.56407">
        <ele>376.8</ele>
        <time>2021-08-19T08:52:43Z</time>
      </trkpt>
      <trkpt lat="44.71414" lon="2.56389">
        <ele>376.7</ele>
        <time>2021-08-19T08:52:45Z</time>
      </trkpt>
      <trkpt lat="44.71415" lon="2.56373">
        <ele>376.7</ele>
        <time>2021-08-19T08:52:47Z</time>
      </trkpt>
      <trkpt lat="44.71417" lon="2.56358">
        <ele>377</ele>
        <time>2021-08-19T08:52:49Z</time>
      </trkpt>
      <trkpt lat="44.71419" lon="2.56344">
        <ele>377.5</ele>
        <time>2021-08-19T08:52:51Z</time>
      </trkpt>
      <trkpt lat="44.7142" lon="2.56331">
        <ele>377.6</ele>
        <time>2021-08-19T08:52:53Z</time>
      </trkpt>
      <trkpt lat="44.71421" lon="2.56319">
        <ele>378.1</ele>
        <time>2021-08-19T08:52:55Z</time>
      </trkpt>
      <trkpt lat="44.71424" lon="2.56307">
        <ele>379</ele>
        <time>2021-08-19T08:52:57Z</time>
      </trkpt>
      <trkpt lat="44.71425" lon="2.56296">
        <ele>379.7</ele>
        <time>2021-08-19T08:52:59Z</time>
      </trkpt>
      <trkpt lat="44.71428" lon="2.56286">
        <ele>380.7</ele>
        <time>2021-08-19T08:53:01Z</time>
      </trkpt>
      <trkpt lat="44.7143" lon="2.56277">
        <ele>381.6</ele>
        <time>2021-08-19T08:53:03Z</time>
      </trkpt>
      <trkpt lat="44.71431" lon="2.56269">
        <ele>382</ele>
        <time>2021-08-19T08:53:05Z</time>
      </trkpt>
      <trkpt lat="44.71432" lon="2.5626">
        <ele>382.1</ele>
        <time>2021-08-19T08:53:07Z</time>
      </trkpt>
      <trkpt lat="44.71433" lon="2.56253">
        <ele>382.5</ele>
        <time>2021-08-19T08:53:09Z</time>
      </trkpt>
      <trkpt lat="44.71433" lon="2.56246">
        <ele>382.4</ele>
        <time>2021-08-19T08:53:11Z</time>
      </trkpt>
      <trkpt lat="44.71434" lon="2.56239">
        <ele>382.7</ele>
        <time>2021-08-19T08:53:13Z</time>
      </trkpt>
      <trkpt lat="44.71435" lon="2.56233">
        <ele>382.6</ele>
        <time>2021-08-19T08:53:15Z</time>
      </trkpt>
      <trkpt lat="44.71436" lon="2.56227">
        <ele>382.7</ele>
        <time>2021-08-19T08:53:17Z</time>
      </trkpt>
      <trkpt lat="44.71436" lon="2.56221">
        <ele>382.6</ele>
        <time>2021-08-19T08:53:19Z</time>
      </trkpt>
      <trkpt lat="44.71436" lon="2.56216">
        <ele>382.5</ele>
        <time>2021-08-19T08:53:21Z</time>
      </trkpt>
      <trkpt lat="44.71437" lon="2.56211">
        <ele>382.6</ele>
        <time>2021-08-19T08:53:23Z</time>
      </trkpt>
      <trkpt lat="44.71437" lon="2.56206">
        <ele>382.4</ele>
        <time>2021-08-19T08:53:25Z</time>
      </trkpt>
      <trkpt lat="44.71438" lon="2.56201">
        <ele>382.3</ele>
        <time>2021-08-19T08:53:27Z</time>
      </trkpt>
      <trkpt lat="44.71438" lon="2.56195">
        <ele>382.3</ele>
        <time>2021-08-19T08:53:29Z</time>
      </trkpt>
      <trkpt lat="44.71439" lon="2.5619">
        <ele>382.2</ele>
        <time>2021-08-19T08:53:31Z</time>
      </trkpt>
      <trkpt lat="44.7144" lon="2.56185">
        <ele>382.6</ele>
        <time>2021-08-19T08:53:33Z</time>
      </trkpt>
      <trkpt lat="44.71441" lon="2.5618">
        <ele>383</ele>
        <time>2021-08-19T08:53:35Z</time>
      </trkpt>
      <trkpt lat="44.71442" lon="2.56174">
        <ele>383</ele>
        <time>2021-08-19T08:53:37Z</time>
      </trkpt>
      <trkpt lat="44.71443" lon="2.56169">
        <ele>383.3</ele>
        <time>2021-08-19T08:53:39Z</time>
      </trkpt>
      <trkpt lat="44.71445" lon="2.56164">
        <ele>383.5</ele>
        <time>2021-08-19T08:53:41Z</time>
      </trkpt>
      <trkpt lat="44.71447" lon="2.56159">
        <ele>383.5</ele>
        <time>2021-08-19T08:53:43Z</time>
      </trkpt>
      <trkpt lat="44.71448" lon="2.56154">
        <ele>383.6</ele>
        <time>2021-08-19T08:53:45Z</time>
      </trkpt>
      <trkpt lat="44.7145" lon="2.56151">
        <ele>383.8</ele>
        <time>2021-08-19T08:53:47Z</time>
      </trkpt>
      <trkpt lat="44.71452" lon="2.56147">
        <ele>384</ele>
        <time>2021-08-19T08:53:49Z</time>
      </trkpt>
      <trkpt lat="44.71454" lon="2.56142">
        <ele>384.3</ele>
        <time>2021-08-19T08:53:51Z</time>
      </trkpt>
      <trkpt lat="44.71457" lon="2.56136">
        <ele>384.4</ele>
        <time>2021-08-19T08:53:53Z</time>
      </trkpt>
      <trkpt lat="44.71459" lon="2.56132">
        <ele>385</ele>
        <time>2021-08-19T08:53:55Z</time>
      </trkpt>
      <trkpt lat="44.71461" lon="2.56129">
        <ele>385.5</ele>
        <time>2021-08-19T08:53:57Z</time>
      </trkpt>
      <trkpt lat="44.71464" lon="2.56125">
        <ele>385.9</ele>
        <time>2021-08-19T08:53:59Z</time>
      </trkpt>
      <trkpt lat="44.71467" lon="2.5612">
        <ele>386.4</ele>
        <time>2021-08-19T08:54:01Z</time>
      </trkpt>
      <trkpt lat="44.71469" lon="2.56116">
        <ele>386.8</ele>
        <time>2021-08-19T08:54:03Z</time>
      </trkpt>
      <trkpt lat="44.71474" lon="2.56109">
        <ele>387.6</ele>
        <time>2021-08-19T08:54:05Z</time>
      </trkpt>
      <trkpt lat="44.71477" lon="2.56105">
        <ele>388</ele>
        <time>2021-08-19T08:54:07Z</time>
      </trkpt>
      <trkpt lat="44.7148" lon="2.561">
        <ele>388.6</ele>
        <time>2021-08-19T08:54:09Z</time>
      </trkpt>
      <trkpt lat="44.71483" lon="2.56096">
        <ele>389.4</ele>
        <time>2021-08-19T08:54:11Z</time>
      </trkpt>
      <trkpt lat="44.71487" lon="2.56091">
        <ele>390</ele>
        <time>2021-08-19T08:54:13Z</time>
      </trkpt>
      <trkpt lat="44.7149" lon="2.56087">
        <ele>390.7</ele>
        <time>2021-08-19T08:54:15Z</time>
      </trkpt>
      <trkpt lat="44.71494" lon="2.56082">
        <ele>391.3</ele>
        <time>2021-08-19T08:54:17Z</time>
      </trkpt>
      <trkpt lat="44.71498" lon="2.56078">
        <ele>392</ele>
        <time>2021-08-19T08:54:19Z</time>
      </trkpt>
      <trkpt lat="44.71502" lon="2.56074">
        <ele>392.3</ele>
        <time>2021-08-19T08:54:21Z</time>
      </trkpt>
      <trkpt lat="44.71506" lon="2.56069">
        <ele>392.5</ele>
        <time>2021-08-19T08:54:23Z</time>
      </trkpt>
      <trkpt lat="44.71509" lon="2.56064">
        <ele>392.7</ele>
        <time>2021-08-19T08:54:25Z</time>
      </trkpt>
      <trkpt lat="44.71513" lon="2.5606">
        <ele>392.8</ele>
        <time>2021-08-19T08:54:27Z</time>
      </trkpt>
      <trkpt lat="44.71517" lon="2.56056">
        <ele>393.3</ele>
        <time>2021-08-19T08:54:29Z</time>
      </trkpt>
      <trkpt lat="44.71521" lon="2.56051">
        <ele>393.7</ele>
        <time>2021-08-19T08:54:31Z</time>
      </trkpt>
      <trkpt lat="44.71524" lon="2.56045">
        <ele>393.3</ele>
        <time>2021-08-19T08:54:33Z</time>
      </trkpt>
      <trkpt lat="44.71529" lon="2.56039">
        <ele>393.5</ele>
        <time>2021-08-19T08:54:35Z</time>
      </trkpt>
      <trkpt lat="44.71533" lon="2.56034">
        <ele>393.7</ele>
        <time>2021-08-19T08:54:37Z</time>
      </trkpt>
      <trkpt lat="44.71537" lon="2.56028">
        <ele>393.9</ele>
        <time>2021-08-19T08:54:39Z</time>
      </trkpt>
      <trkpt lat="44.71541" lon="2.56022">
        <ele>394</ele>
        <time>2021-08-19T08:54:41Z</time>
      </trkpt>
      <trkpt lat="44.71545" lon="2.56016">
        <ele>393.9</ele>
        <time>2021-08-19T08:54:43Z</time>
      </trkpt>
      <trkpt lat="44.7155" lon="2.5601">
        <ele>394.3</ele>
        <time>2021-08-19T08:54:45Z</time>
      </trkpt>
      <trkpt lat="44.71555" lon="2.56002">
        <ele>394.2</ele>
        <time>2021-08-19T08:54:47Z</time>
      </trkpt>
      <trkpt lat="44.7156" lon="2.55995">
        <ele>394</ele>
        <time>2021-08-19T08:54:49Z</time>
      </trkpt>
      <trkpt lat="44.71564" lon="2.55988">
        <ele>393.7</ele>
        <time>2021-08-19T08:54:51Z</time>
      </trkpt>
      <trkpt lat="44.7157" lon="2.55981">
        <ele>394.1</ele>
        <time>2021-08-19T08:54:53Z</time>
      </trkpt>
      <trkpt lat="44.71574" lon="2.55973">
        <ele>393.4</ele>
        <time>2021-08-19T08:54:55Z</time>
      </trkpt>
      <trkpt lat="44.7158" lon="2.55966">
        <ele>393.7</ele>
        <time>2021-08-19T08:54:57Z</time>
      </trkpt>
      <trkpt lat="44.71585" lon="2.55959">
        <ele>393.7</ele>
        <time>2021-08-19T08:54:59Z</time>
      </trkpt>
      <trkpt lat="44.7159" lon="2.55951">
        <ele>393.3</ele>
        <time>2021-08-19T08:55:01Z</time>
      </trkpt>
      <trkpt lat="44.71595" lon="2.55944">
        <ele>392.9</ele>
        <time>2021-08-19T08:55:03Z</time>
      </trkpt>
      <trkpt lat="44.716" lon="2.55938">
        <ele>392.7</ele>
        <time>2021-08-19T08:55:05Z</time>
      </trkpt>
      <trkpt lat="44.71604" lon="2.55932">
        <ele>392.7</ele>
        <time>2021-08-19T08:55:07Z</time>
      </trkpt>
      <trkpt lat="44.71609" lon="2.55927">
        <ele>392.9</ele>
        <time>2021-08-19T08:55:09Z</time>
      </trkpt>
      <trkpt lat="44.71614" lon="2.55921">
        <ele>392.9</ele>
        <time>2021-08-19T08:55:11Z</time>
      </trkpt>
      <trkpt lat="44.71618" lon="2.55915">
        <ele>392.9</ele>
        <time>2021-08-19T08:55:13Z</time>
      </trkpt>
      <trkpt lat="44.71623" lon="2.5591">
        <ele>393.2</ele>
        <time>2021-08-19T08:55:15Z</time>
      </trkpt>
      <trkpt lat="44.71627" lon="2.55905">
        <ele>393.5</ele>
        <time>2021-08-19T08:55:17Z</time>
      </trkpt>
      <trkpt lat="44.7163" lon="2.559">
        <ele>393.6</ele>
        <time>2021-08-19T08:55:19Z</time>
      </trkpt>
      <trkpt lat="44.71634" lon="2.55895">
        <ele>393.9</ele>
        <time>2021-08-19T08:55:21Z</time>
      </trkpt>
      <trkpt lat="44.71637" lon="2.5589">
        <ele>393.9</ele>
        <time>2021-08-19T08:55:23Z</time>
      </trkpt>
      <trkpt lat="44.71641" lon="2.55884">
        <ele>394.1</ele>
        <time>2021-08-19T08:55:25Z</time>
      </trkpt>
      <trkpt lat="44.71644" lon="2.55878">
        <ele>394</ele>
        <time>2021-08-19T08:55:27Z</time>
      </trkpt>
      <trkpt lat="44.71647" lon="2.55873">
        <ele>394.1</ele>
        <time>2021-08-19T08:55:29Z</time>
      </trkpt>
      <trkpt lat="44.7165" lon="2.55867">
        <ele>394</ele>
        <time>2021-08-19T08:55:31Z</time>
      </trkpt>
      <trkpt lat="44.71653" lon="2.55862">
        <ele>394.1</ele>
        <time>2021-08-19T08:55:33Z</time>
      </trkpt>
      <trkpt lat="44.71656" lon="2.55857">
        <ele>394.3</ele>
        <time>2021-08-19T08:55:35Z</time>
      </trkpt>
      <trkpt lat="44.7166" lon="2.55851">
        <ele>394.8</ele>
        <time>2021-08-19T08:55:37Z</time>
      </trkpt>
      <trkpt lat="44.71664" lon="2.55845">
        <ele>395.2</ele>
        <time>2021-08-19T08:55:39Z</time>
      </trkpt>
      <trkpt lat="44.71667" lon="2.5584">
        <ele>395.2</ele>
        <time>2021-08-19T08:55:41Z</time>
      </trkpt>
      <trkpt lat="44.71671" lon="2.55835">
        <ele>394.7</ele>
        <time>2021-08-19T08:55:43Z</time>
      </trkpt>
      <trkpt lat="44.71675" lon="2.5583">
        <ele>394.2</ele>
        <time>2021-08-19T08:55:45Z</time>
      </trkpt>
      <trkpt lat="44.71679" lon="2.55826">
        <ele>393.8</ele>
        <time>2021-08-19T08:55:47Z</time>
      </trkpt>
      <trkpt lat="44.71682" lon="2.55821">
        <ele>393.4</ele>
        <time>2021-08-19T08:55:49Z</time>
      </trkpt>
      <trkpt lat="44.71687" lon="2.55817">
        <ele>393.2</ele>
        <time>2021-08-19T08:55:51Z</time>
      </trkpt>
      <trkpt lat="44.71691" lon="2.55813">
        <ele>393.1</ele>
        <time>2021-08-19T08:55:53Z</time>
      </trkpt>
      <trkpt lat="44.71696" lon="2.5581">
        <ele>393.3</ele>
        <time>2021-08-19T08:55:55Z</time>
      </trkpt>
      <trkpt lat="44.71701" lon="2.55807">
        <ele>393.5</ele>
        <time>2021-08-19T08:55:57Z</time>
      </trkpt>
      <trkpt lat="44.71705" lon="2.55805">
        <ele>393.8</ele>
        <time>2021-08-19T08:55:59Z</time>
      </trkpt>
      <trkpt lat="44.71709" lon="2.55802">
        <ele>394</ele>
        <time>2021-08-19T08:56:01Z</time>
      </trkpt>
      <trkpt lat="44.71713" lon="2.55801">
        <ele>394.5</ele>
        <time>2021-08-19T08:56:03Z</time>
      </trkpt>
      <trkpt lat="44.71716" lon="2.55799">
        <ele>394.6</ele>
        <time>2021-08-19T08:56:05Z</time>
      </trkpt>
      <trkpt lat="44.71719" lon="2.55796">
        <ele>394.9</ele>
        <time>2021-08-19T08:56:07Z</time>
      </trkpt>
      <trkpt lat="44.71723" lon="2.55796">
        <ele>395.5</ele>
        <time>2021-08-19T08:56:09Z</time>
      </trkpt>
      <trkpt lat="44.71727" lon="2.55794">
        <ele>395.8</ele>
        <time>2021-08-19T08:56:11Z</time>
      </trkpt>
      <trkpt lat="44.71731" lon="2.55792">
        <ele>396.3</ele>
        <time>2021-08-19T08:56:13Z</time>
      </trkpt>
      <trkpt lat="44.71734" lon="2.55792">
        <ele>396.7</ele>
        <time>2021-08-19T08:56:15Z</time>
      </trkpt>
      <trkpt lat="44.71736" lon="2.55791">
        <ele>397.1</ele>
        <time>2021-08-19T08:56:17Z</time>
      </trkpt>
      <trkpt lat="44.71736" lon="2.55791">
        <ele>397.1</ele>
        <time>2021-08-19T08:56:19Z</time>
      </trkpt>
      <trkpt lat="44.71736" lon="2.55791">
        <ele>397.1</ele>
        <time>2021-08-19T08:56:21Z</time>
      </trkpt>
      <trkpt lat="44.71736" lon="2.55792">
        <ele>397.1</ele>
        <time>2021-08-19T08:56:23Z</time>
      </trkpt>
      <trkpt lat="44.71736" lon="2.55792">
        <ele>397.2</ele>
        <time>2021-08-19T08:56:25Z</time>
      </trkpt>
      <trkpt lat="44.71744" lon="2.55777">
        <ele>397.4</ele>
        <time>2021-08-19T08:58:31Z</time>
      </trkpt>
      <trkpt lat="44.71749" lon="2.55767">
        <ele>397.7</ele>
        <time>2021-08-19T08:58:33Z</time>
      </trkpt>
      <trkpt lat="44.71756" lon="2.5576">
        <ele>396.1</ele>
        <time>2021-08-19T08:58:35Z</time>
      </trkpt>
      <trkpt lat="44.71766" lon="2.55766">
        <ele>394.1</ele>
        <time>2021-08-19T08:58:37Z</time>
      </trkpt>
      <trkpt lat="44.71769" lon="2.55782">
        <ele>393.7</ele>
        <time>2021-08-19T08:58:39Z</time>
      </trkpt>
      <trkpt lat="44.71769" lon="2.55799">
        <ele>394.2</ele>
        <time>2021-08-19T08:58:41Z</time>
      </trkpt>
      <trkpt lat="44.71767" lon="2.55817">
        <ele>395.2</ele>
        <time>2021-08-19T08:58:43Z</time>
      </trkpt>
      <trkpt lat="44.71765" lon="2.55837">
        <ele>396.6</ele>
        <time>2021-08-19T08:58:45Z</time>
      </trkpt>
      <trkpt lat="44.71764" lon="2.55855">
        <ele>398.3</ele>
        <time>2021-08-19T08:58:47Z</time>
      </trkpt>
      <trkpt lat="44.71764" lon="2.55875">
        <ele>399.5</ele>
        <time>2021-08-19T08:58:49Z</time>
      </trkpt>
      <trkpt lat="44.71767" lon="2.55891">
        <ele>399.4</ele>
        <time>2021-08-19T08:58:51Z</time>
      </trkpt>
      <trkpt lat="44.71774" lon="2.55904">
        <ele>397.6</ele>
        <time>2021-08-19T08:58:53Z</time>
      </trkpt>
      <trkpt lat="44.71783" lon="2.55906">
        <ele>394.1</ele>
        <time>2021-08-19T08:58:55Z</time>
      </trkpt>
      <trkpt lat="44.71788" lon="2.55894">
        <ele>391.4</ele>
        <time>2021-08-19T08:58:57Z</time>
      </trkpt>
      <trkpt lat="44.71785" lon="2.55877">
        <ele>391.7</ele>
        <time>2021-08-19T08:58:59Z</time>
      </trkpt>
      <trkpt lat="44.71784" lon="2.55858">
        <ele>390.9</ele>
        <time>2021-08-19T08:59:01Z</time>
      </trkpt>
      <trkpt lat="44.71788" lon="2.5584">
        <ele>388.1</ele>
        <time>2021-08-19T08:59:03Z</time>
      </trkpt>
      <trkpt lat="44.71795" lon="2.5582">
        <ele>385.5</ele>
        <time>2021-08-19T08:59:05Z</time>
      </trkpt>
      <trkpt lat="44.71802" lon="2.55802">
        <ele>383.8</ele>
        <time>2021-08-19T08:59:07Z</time>
      </trkpt>
      <trkpt lat="44.71809" lon="2.55784">
        <ele>382.4</ele>
        <time>2021-08-19T08:59:09Z</time>
      </trkpt>
      <trkpt lat="44.71817" lon="2.55764">
        <ele>381.6</ele>
        <time>2021-08-19T08:59:11Z</time>
      </trkpt>
      <trkpt lat="44.71825" lon="2.55746">
        <ele>380.9</ele>
        <time>2021-08-19T08:59:13Z</time>
      </trkpt>
      <trkpt lat="44.71833" lon="2.55734">
        <ele>380</ele>
        <time>2021-08-19T08:59:15Z</time>
      </trkpt>
      <trkpt lat="44.71841" lon="2.55725">
        <ele>377.7</ele>
        <time>2021-08-19T08:59:17Z</time>
      </trkpt>
      <trkpt lat="44.7185" lon="2.55713">
        <ele>375</ele>
        <time>2021-08-19T08:59:19Z</time>
      </trkpt>
      <trkpt lat="44.71857" lon="2.557">
        <ele>373.7</ele>
        <time>2021-08-19T08:59:21Z</time>
      </trkpt>
      <trkpt lat="44.71866" lon="2.55687">
        <ele>371.9</ele>
        <time>2021-08-19T08:59:23Z</time>
      </trkpt>
      <trkpt lat="44.71877" lon="2.55671">
        <ele>370.4</ele>
        <time>2021-08-19T08:59:25Z</time>
      </trkpt>
      <trkpt lat="44.71887" lon="2.55658">
        <ele>368.3</ele>
        <time>2021-08-19T08:59:27Z</time>
      </trkpt>
      <trkpt lat="44.71897" lon="2.55644">
        <ele>366.6</ele>
        <time>2021-08-19T08:59:29Z</time>
      </trkpt>
      <trkpt lat="44.71906" lon="2.55629">
        <ele>365.3</ele>
        <time>2021-08-19T08:59:31Z</time>
      </trkpt>
      <trkpt lat="44.71915" lon="2.55616">
        <ele>364.3</ele>
        <time>2021-08-19T08:59:33Z</time>
      </trkpt>
      <trkpt lat="44.71924" lon="2.55604">
        <ele>361.5</ele>
        <time>2021-08-19T08:59:35Z</time>
      </trkpt>
      <trkpt lat="44.71933" lon="2.55594">
        <ele>358.6</ele>
        <time>2021-08-19T08:59:37Z</time>
      </trkpt>
      <trkpt lat="44.71941" lon="2.55581">
        <ele>355.6</ele>
        <time>2021-08-19T08:59:39Z</time>
      </trkpt>
      <trkpt lat="44.71947" lon="2.55567">
        <ele>352.5</ele>
        <time>2021-08-19T08:59:41Z</time>
      </trkpt>
      <trkpt lat="44.71951" lon="2.55551">
        <ele>350.2</ele>
        <time>2021-08-19T08:59:43Z</time>
      </trkpt>
      <trkpt lat="44.71953" lon="2.55534">
        <ele>349.1</ele>
        <time>2021-08-19T08:59:45Z</time>
      </trkpt>
      <trkpt lat="44.71953" lon="2.55517">
        <ele>349</ele>
        <time>2021-08-19T08:59:47Z</time>
      </trkpt>
      <trkpt lat="44.71952" lon="2.555">
        <ele>349.1</ele>
        <time>2021-08-19T08:59:49Z</time>
      </trkpt>
      <trkpt lat="44.71951" lon="2.55484">
        <ele>347.9</ele>
        <time>2021-08-19T08:59:51Z</time>
      </trkpt>
      <trkpt lat="44.71952" lon="2.55468">
        <ele>346.1</ele>
        <time>2021-08-19T08:59:53Z</time>
      </trkpt>
      <trkpt lat="44.71955" lon="2.55451">
        <ele>343.3</ele>
        <time>2021-08-19T08:59:55Z</time>
      </trkpt>
      <trkpt lat="44.71959" lon="2.55437">
        <ele>340.4</ele>
        <time>2021-08-19T08:59:57Z</time>
      </trkpt>
      <trkpt lat="44.7196" lon="2.55424">
        <ele>338.8</ele>
        <time>2021-08-19T08:59:59Z</time>
      </trkpt>
      <trkpt lat="44.71963" lon="2.55412">
        <ele>336.4</ele>
        <time>2021-08-19T09:00:01Z</time>
      </trkpt>
      <trkpt lat="44.71964" lon="2.55401">
        <ele>334.8</ele>
        <time>2021-08-19T09:00:03Z</time>
      </trkpt>
      <trkpt lat="44.71966" lon="2.55394">
        <ele>333.2</ele>
        <time>2021-08-19T09:00:05Z</time>
      </trkpt>
      <trkpt lat="44.71968" lon="2.55387">
        <ele>331.6</ele>
        <time>2021-08-19T09:00:07Z</time>
      </trkpt>
      <trkpt lat="44.71972" lon="2.55389">
        <ele>330.3</ele>
        <time>2021-08-19T09:00:09Z</time>
      </trkpt>
      <trkpt lat="44.71972" lon="2.55396">
        <ele>331.2</ele>
        <time>2021-08-19T09:00:11Z</time>
      </trkpt>
      <trkpt lat="44.71971" lon="2.55397">
        <ele>331.5</ele>
        <time>2021-08-19T09:00:13Z</time>
      </trkpt>
      <trkpt lat="44.71972" lon="2.55397">
        <ele>331.4</ele>
        <time>2021-08-19T09:00:15Z</time>
      </trkpt>
      <trkpt lat="44.71972" lon="2.55397">
        <ele>331.3</ele>
        <time>2021-08-19T09:00:17Z</time>
      </trkpt>
      <trkpt lat="44.71972" lon="2.55397">
        <ele>331.4</ele>
        <time>2021-08-19T09:00:19Z</time>
      </trkpt>
      <trkpt lat="44.71975" lon="2.55431">
        <ele>333.4</ele>
        <time>2021-08-19T09:01:17Z</time>
      </trkpt>
      <trkpt lat="44.71975" lon="2.55444">
        <ele>333.9</ele>
        <time>2021-08-19T09:01:19Z</time>
      </trkpt>
      <trkpt lat="44.71977" lon="2.5546">
        <ele>334.1</ele>
        <time>2021-08-19T09:01:21Z</time>
      </trkpt>
      <trkpt lat="44.7198" lon="2.55476">
        <ele>334.2</ele>
        <time>2021-08-19T09:01:23Z</time>
      </trkpt>
      <trkpt lat="44.71984" lon="2.55493">
        <ele>333.4</ele>
        <time>2021-08-19T09:01:25Z</time>
      </trkpt>
      <trkpt lat="44.71988" lon="2.55511">
        <ele>332</ele>
        <time>2021-08-19T09:01:27Z</time>
      </trkpt>
      <trkpt lat="44.71992" lon="2.5553">
        <ele>330.3</ele>
        <time>2021-08-19T09:01:29Z</time>
      </trkpt>
      <trkpt lat="44.71996" lon="2.5555">
        <ele>329</ele>
        <time>2021-08-19T09:01:31Z</time>
      </trkpt>
      <trkpt lat="44.72" lon="2.55568">
        <ele>327.6</ele>
        <time>2021-08-19T09:01:33Z</time>
      </trkpt>
      <trkpt lat="44.72003" lon="2.55586">
        <ele>326.7</ele>
        <time>2021-08-19T09:01:35Z</time>
      </trkpt>
      <trkpt lat="44.72006" lon="2.55605">
        <ele>325.1</ele>
        <time>2021-08-19T09:01:37Z</time>
      </trkpt>
      <trkpt lat="44.72007" lon="2.55621">
        <ele>323.9</ele>
        <time>2021-08-19T09:01:39Z</time>
      </trkpt>
      <trkpt lat="44.72006" lon="2.55638">
        <ele>323.6</ele>
        <time>2021-08-19T09:01:41Z</time>
      </trkpt>
      <trkpt lat="44.72" lon="2.55654">
        <ele>324.5</ele>
        <time>2021-08-19T09:01:43Z</time>
      </trkpt>
      <trkpt lat="44.7199" lon="2.55672">
        <ele>326.9</ele>
        <time>2021-08-19T09:01:45Z</time>
      </trkpt>
      <trkpt lat="44.71978" lon="2.5569">
        <ele>328.3</ele>
        <time>2021-08-19T09:01:47Z</time>
      </trkpt>
      <trkpt lat="44.71966" lon="2.55708">
        <ele>329.1</ele>
        <time>2021-08-19T09:01:49Z</time>
      </trkpt>
      <trkpt lat="44.71958" lon="2.55731">
        <ele>328.1</ele>
        <time>2021-08-19T09:01:51Z</time>
      </trkpt>
      <trkpt lat="44.71951" lon="2.55752">
        <ele>327</ele>
        <time>2021-08-19T09:01:53Z</time>
      </trkpt>
      <trkpt lat="44.71946" lon="2.55772">
        <ele>326.6</ele>
        <time>2021-08-19T09:01:55Z</time>
      </trkpt>
      <trkpt lat="44.7194" lon="2.5579">
        <ele>326.5</ele>
        <time>2021-08-19T09:01:57Z</time>
      </trkpt>
      <trkpt lat="44.71934" lon="2.55807">
        <ele>325.9</ele>
        <time>2021-08-19T09:01:59Z</time>
      </trkpt>
      <trkpt lat="44.71931" lon="2.55827">
        <ele>323.7</ele>
        <time>2021-08-19T09:02:01Z</time>
      </trkpt>
      <trkpt lat="44.7193" lon="2.55848">
        <ele>323.1</ele>
        <time>2021-08-19T09:02:03Z</time>
      </trkpt>
      <trkpt lat="44.7193" lon="2.55869">
        <ele>323.4</ele>
        <time>2021-08-19T09:02:05Z</time>
      </trkpt>
      <trkpt lat="44.71931" lon="2.55892">
        <ele>323.2</ele>
        <time>2021-08-19T09:02:07Z</time>
      </trkpt>
      <trkpt lat="44.71935" lon="2.55917">
        <ele>322</ele>
        <time>2021-08-19T09:02:09Z</time>
      </trkpt>
      <trkpt lat="44.71938" lon="2.55943">
        <ele>324.3</ele>
        <time>2021-08-19T09:02:11Z</time>
      </trkpt>
      <trkpt lat="44.71945" lon="2.55968">
        <ele>324.5</ele>
        <time>2021-08-19T09:02:13Z</time>
      </trkpt>
      <trkpt lat="44.71951" lon="2.5599">
        <ele>324.3</ele>
        <time>2021-08-19T09:02:15Z</time>
      </trkpt>
      <trkpt lat="44.71959" lon="2.56009">
        <ele>324.5</ele>
        <time>2021-08-19T09:02:17Z</time>
      </trkpt>
      <trkpt lat="44.71968" lon="2.56022">
        <ele>324.6</ele>
        <time>2021-08-19T09:02:19Z</time>
      </trkpt>
      <trkpt lat="44.71977" lon="2.56032">
        <ele>324.1</ele>
        <time>2021-08-19T09:02:21Z</time>
      </trkpt>
      <trkpt lat="44.71984" lon="2.56039">
        <ele>323.3</ele>
        <time>2021-08-19T09:02:23Z</time>
      </trkpt>
      <trkpt lat="44.71992" lon="2.56045">
        <ele>321.8</ele>
        <time>2021-08-19T09:02:25Z</time>
      </trkpt>
      <trkpt lat="44.72" lon="2.56051">
        <ele>320.5</ele>
        <time>2021-08-19T09:02:27Z</time>
      </trkpt>
      <trkpt lat="44.72008" lon="2.56056">
        <ele>321</ele>
        <time>2021-08-19T09:02:29Z</time>
      </trkpt>
      <trkpt lat="44.72015" lon="2.56062">
        <ele>321.7</ele>
        <time>2021-08-19T09:02:31Z</time>
      </trkpt>
      <trkpt lat="44.72022" lon="2.56068">
        <ele>322.6</ele>
        <time>2021-08-19T09:02:33Z</time>
      </trkpt>
      <trkpt lat="44.72028" lon="2.56073">
        <ele>322.7</ele>
        <time>2021-08-19T09:02:35Z</time>
      </trkpt>
      <trkpt lat="44.72037" lon="2.56076">
        <ele>321.7</ele>
        <time>2021-08-19T09:02:37Z</time>
      </trkpt>
      <trkpt lat="44.72046" lon="2.5608">
        <ele>320.7</ele>
        <time>2021-08-19T09:02:39Z</time>
      </trkpt>
      <trkpt lat="44.72055" lon="2.56084">
        <ele>319.7</ele>
        <time>2021-08-19T09:02:41Z</time>
      </trkpt>
      <trkpt lat="44.72066" lon="2.56089">
        <ele>319.9</ele>
        <time>2021-08-19T09:02:43Z</time>
      </trkpt>
      <trkpt lat="44.72078" lon="2.56094">
        <ele>319.8</ele>
        <time>2021-08-19T09:02:45Z</time>
      </trkpt>
      <trkpt lat="44.72091" lon="2.56098">
        <ele>320.3</ele>
        <time>2021-08-19T09:02:47Z</time>
      </trkpt>
      <trkpt lat="44.72104" lon="2.56098">
        <ele>319.5</ele>
        <time>2021-08-19T09:02:49Z</time>
      </trkpt>
      <trkpt lat="44.72118" lon="2.56096">
        <ele>317.5</ele>
        <time>2021-08-19T09:02:51Z</time>
      </trkpt>
      <trkpt lat="44.7213" lon="2.5609">
        <ele>313.4</ele>
        <time>2021-08-19T09:02:53Z</time>
      </trkpt>
      <trkpt lat="44.72142" lon="2.56081">
        <ele>309.2</ele>
        <time>2021-08-19T09:02:55Z</time>
      </trkpt>
      <trkpt lat="44.72152" lon="2.56075">
        <ele>307.7</ele>
        <time>2021-08-19T09:02:57Z</time>
      </trkpt>
      <trkpt lat="44.72163" lon="2.56066">
        <ele>305.9</ele>
        <time>2021-08-19T09:02:59Z</time>
      </trkpt>
      <trkpt lat="44.72172" lon="2.56057">
        <ele>305.1</ele>
        <time>2021-08-19T09:03:01Z</time>
      </trkpt>
      <trkpt lat="44.72182" lon="2.56048">
        <ele>304.8</ele>
        <time>2021-08-19T09:03:03Z</time>
      </trkpt>
      <trkpt lat="44.72191" lon="2.56042">
        <ele>305</ele>
        <time>2021-08-19T09:03:05Z</time>
      </trkpt>
      <trkpt lat="44.72201" lon="2.56038">
        <ele>305.7</ele>
        <time>2021-08-19T09:03:07Z</time>
      </trkpt>
      <trkpt lat="44.72211" lon="2.56037">
        <ele>306.6</ele>
        <time>2021-08-19T09:03:09Z</time>
      </trkpt>
      <trkpt lat="44.72221" lon="2.56037">
        <ele>307.7</ele>
        <time>2021-08-19T09:03:11Z</time>
      </trkpt>
      <trkpt lat="44.72231" lon="2.56037">
        <ele>308.7</ele>
        <time>2021-08-19T09:03:13Z</time>
      </trkpt>
      <trkpt lat="44.7224" lon="2.56035">
        <ele>309.6</ele>
        <time>2021-08-19T09:03:15Z</time>
      </trkpt>
      <trkpt lat="44.72248" lon="2.56028">
        <ele>310.1</ele>
        <time>2021-08-19T09:03:17Z</time>
      </trkpt>
      <trkpt lat="44.72253" lon="2.56017">
        <ele>310.7</ele>
        <time>2021-08-19T09:03:19Z</time>
      </trkpt>
      <trkpt lat="44.72254" lon="2.56005">
        <ele>310.6</ele>
        <time>2021-08-19T09:03:21Z</time>
      </trkpt>
      <trkpt lat="44.72253" lon="2.55995">
        <ele>309.7</ele>
        <time>2021-08-19T09:03:23Z</time>
      </trkpt>
      <trkpt lat="44.72251" lon="2.55987">
        <ele>308.4</ele>
        <time>2021-08-19T09:03:25Z</time>
      </trkpt>
      <trkpt lat="44.72248" lon="2.55981">
        <ele>307.4</ele>
        <time>2021-08-19T09:03:27Z</time>
      </trkpt>
      <trkpt lat="44.72246" lon="2.55975">
        <ele>306.8</ele>
        <time>2021-08-19T09:03:29Z</time>
      </trkpt>
      <trkpt lat="44.72244" lon="2.55969">
        <ele>306.2</ele>
        <time>2021-08-19T09:03:31Z</time>
      </trkpt>
      <trkpt lat="44.72244" lon="2.55962">
        <ele>305.7</ele>
        <time>2021-08-19T09:03:33Z</time>
      </trkpt>
      <trkpt lat="44.72245" lon="2.55955">
        <ele>305.3</ele>
        <time>2021-08-19T09:03:35Z</time>
      </trkpt>
      <trkpt lat="44.72246" lon="2.55949">
        <ele>305</ele>
        <time>2021-08-19T09:03:37Z</time>
      </trkpt>
      <trkpt lat="44.72248" lon="2.55944">
        <ele>304.8</ele>
        <time>2021-08-19T09:03:39Z</time>
      </trkpt>
      <trkpt lat="44.7225" lon="2.55938">
        <ele>304.5</ele>
        <time>2021-08-19T09:03:41Z</time>
      </trkpt>
      <trkpt lat="44.72252" lon="2.55933">
        <ele>304.8</ele>
        <time>2021-08-19T09:03:43Z</time>
      </trkpt>
      <trkpt lat="44.72255" lon="2.55929">
        <ele>305.1</ele>
        <time>2021-08-19T09:03:45Z</time>
      </trkpt>
      <trkpt lat="44.72257" lon="2.55924">
        <ele>305.4</ele>
        <time>2021-08-19T09:03:47Z</time>
      </trkpt>
      <trkpt lat="44.72259" lon="2.5592">
        <ele>305.6</ele>
        <time>2021-08-19T09:03:49Z</time>
      </trkpt>
      <trkpt lat="44.72262" lon="2.55915">
        <ele>305.9</ele>
        <time>2021-08-19T09:03:51Z</time>
      </trkpt>
      <trkpt lat="44.72264" lon="2.55911">
        <ele>306</ele>
        <time>2021-08-19T09:03:53Z</time>
      </trkpt>
      <trkpt lat="44.72267" lon="2.55907">
        <ele>306.2</ele>
        <time>2021-08-19T09:03:55Z</time>
      </trkpt>
      <trkpt lat="44.7227" lon="2.55902">
        <ele>306.3</ele>
        <time>2021-08-19T09:03:57Z</time>
      </trkpt>
      <trkpt lat="44.72272" lon="2.55898">
        <ele>306.2</ele>
        <time>2021-08-19T09:03:59Z</time>
      </trkpt>
      <trkpt lat="44.72274" lon="2.55893">
        <ele>306.2</ele>
        <time>2021-08-19T09:04:01Z</time>
      </trkpt>
      <trkpt lat="44.72277" lon="2.55889">
        <ele>306.2</ele>
        <time>2021-08-19T09:04:03Z</time>
      </trkpt>
      <trkpt lat="44.7228" lon="2.55886">
        <ele>306.3</ele>
        <time>2021-08-19T09:04:05Z</time>
      </trkpt>
      <trkpt lat="44.72282" lon="2.55882">
        <ele>306.3</ele>
        <time>2021-08-19T09:04:07Z</time>
      </trkpt>
      <trkpt lat="44.72286" lon="2.5588">
        <ele>306.5</ele>
        <time>2021-08-19T09:04:09Z</time>
      </trkpt>
      <trkpt lat="44.72288" lon="2.55877">
        <ele>306.5</ele>
        <time>2021-08-19T09:04:11Z</time>
      </trkpt>
      <trkpt lat="44.72292" lon="2.55874">
        <ele>306.7</ele>
        <time>2021-08-19T09:04:13Z</time>
      </trkpt>
      <trkpt lat="44.72295" lon="2.55872">
        <ele>306.8</ele>
        <time>2021-08-19T09:04:15Z</time>
      </trkpt>
      <trkpt lat="44.72298" lon="2.5587">
        <ele>307</ele>
        <time>2021-08-19T09:04:17Z</time>
      </trkpt>
      <trkpt lat="44.72302" lon="2.55869">
        <ele>307.4</ele>
        <time>2021-08-19T09:04:19Z</time>
      </trkpt>
      <trkpt lat="44.72305" lon="2.55868">
        <ele>307.6</ele>
        <time>2021-08-19T09:04:21Z</time>
      </trkpt>
      <trkpt lat="44.72309" lon="2.55867">
        <ele>308.1</ele>
        <time>2021-08-19T09:04:23Z</time>
      </trkpt>
      <trkpt lat="44.72312" lon="2.55867">
        <ele>308.3</ele>
        <time>2021-08-19T09:04:25Z</time>
      </trkpt>
      <trkpt lat="44.72315" lon="2.55865">
        <ele>308.5</ele>
        <time>2021-08-19T09:04:27Z</time>
      </trkpt>
      <trkpt lat="44.72319" lon="2.55865">
        <ele>309.1</ele>
        <time>2021-08-19T09:04:29Z</time>
      </trkpt>
      <trkpt lat="44.72323" lon="2.55865">
        <ele>309.5</ele>
        <time>2021-08-19T09:04:31Z</time>
      </trkpt>
      <trkpt lat="44.72327" lon="2.55864">
        <ele>309.9</ele>
        <time>2021-08-19T09:04:33Z</time>
      </trkpt>
      <trkpt lat="44.7233" lon="2.55863">
        <ele>310.1</ele>
        <time>2021-08-19T09:04:35Z</time>
      </trkpt>
      <trkpt lat="44.72334" lon="2.55863">
        <ele>310.6</ele>
        <time>2021-08-19T09:04:37Z</time>
      </trkpt>
      <trkpt lat="44.72338" lon="2.55862">
        <ele>310.2</ele>
        <time>2021-08-19T09:04:39Z</time>
      </trkpt>
      <trkpt lat="44.72342" lon="2.55861">
        <ele>310.1</ele>
        <time>2021-08-19T09:04:41Z</time>
      </trkpt>
      <trkpt lat="44.72345" lon="2.55862">
        <ele>310.3</ele>
        <time>2021-08-19T09:04:43Z</time>
      </trkpt>
      <trkpt lat="44.72349" lon="2.55862">
        <ele>310.4</ele>
        <time>2021-08-19T09:04:45Z</time>
      </trkpt>
      <trkpt lat="44.72352" lon="2.55863">
        <ele>310.4</ele>
        <time>2021-08-19T09:04:47Z</time>
      </trkpt>
      <trkpt lat="44.72356" lon="2.55863">
        <ele>310.6</ele>
        <time>2021-08-19T09:04:49Z</time>
      </trkpt>
      <trkpt lat="44.72359" lon="2.55863">
        <ele>310.6</ele>
        <time>2021-08-19T09:04:51Z</time>
      </trkpt>
      <trkpt lat="44.72363" lon="2.55863">
        <ele>310.7</ele>
        <time>2021-08-19T09:04:53Z</time>
      </trkpt>
      <trkpt lat="44.72367" lon="2.55862">
        <ele>310.3</ele>
        <time>2021-08-19T09:04:55Z</time>
      </trkpt>
      <trkpt lat="44.72371" lon="2.55864">
        <ele>310.8</ele>
        <time>2021-08-19T09:04:57Z</time>
      </trkpt>
      <trkpt lat="44.72374" lon="2.55866">
        <ele>311.2</ele>
        <time>2021-08-19T09:04:59Z</time>
      </trkpt>
      <trkpt lat="44.72378" lon="2.55866">
        <ele>311.2</ele>
        <time>2021-08-19T09:05:01Z</time>
      </trkpt>
      <trkpt lat="44.72382" lon="2.55867">
        <ele>311.4</ele>
        <time>2021-08-19T09:05:03Z</time>
      </trkpt>
      <trkpt lat="44.72385" lon="2.55869">
        <ele>311.9</ele>
        <time>2021-08-19T09:05:05Z</time>
      </trkpt>
      <trkpt lat="44.72388" lon="2.55871">
        <ele>312.3</ele>
        <time>2021-08-19T09:05:07Z</time>
      </trkpt>
      <trkpt lat="44.72392" lon="2.55874">
        <ele>312.9</ele>
        <time>2021-08-19T09:05:09Z</time>
      </trkpt>
      <trkpt lat="44.72396" lon="2.55878">
        <ele>313.7</ele>
        <time>2021-08-19T09:05:11Z</time>
      </trkpt>
      <trkpt lat="44.724" lon="2.55882">
        <ele>314.5</ele>
        <time>2021-08-19T09:05:13Z</time>
      </trkpt>
      <trkpt lat="44.72405" lon="2.55885">
        <ele>315</ele>
        <time>2021-08-19T09:05:15Z</time>
      </trkpt>
      <trkpt lat="44.7241" lon="2.55886">
        <ele>315.3</ele>
        <time>2021-08-19T09:05:17Z</time>
      </trkpt>
      <trkpt lat="44.72414" lon="2.55888">
        <ele>315.6</ele>
        <time>2021-08-19T09:05:19Z</time>
      </trkpt>
      <trkpt lat="44.72419" lon="2.55888">
        <ele>315.5</ele>
        <time>2021-08-19T09:05:21Z</time>
      </trkpt>
      <trkpt lat="44.72424" lon="2.55888">
        <ele>315.3</ele>
        <time>2021-08-19T09:05:23Z</time>
      </trkpt>
      <trkpt lat="44.72429" lon="2.55887">
        <ele>315.1</ele>
        <time>2021-08-19T09:05:25Z</time>
      </trkpt>
      <trkpt lat="44.72435" lon="2.55885">
        <ele>314.5</ele>
        <time>2021-08-19T09:05:27Z</time>
      </trkpt>
      <trkpt lat="44.72442" lon="2.5588">
        <ele>313.4</ele>
        <time>2021-08-19T09:05:29Z</time>
      </trkpt>
      <trkpt lat="44.72449" lon="2.55875">
        <ele>312.3</ele>
        <time>2021-08-19T09:05:31Z</time>
      </trkpt>
      <trkpt lat="44.72458" lon="2.5587">
        <ele>311.3</ele>
        <time>2021-08-19T09:05:33Z</time>
      </trkpt>
      <trkpt lat="44.72468" lon="2.55867">
        <ele>310.5</ele>
        <time>2021-08-19T09:05:35Z</time>
      </trkpt>
      <trkpt lat="44.72478" lon="2.55864">
        <ele>309.8</ele>
        <time>2021-08-19T09:05:37Z</time>
      </trkpt>
      <trkpt lat="44.72489" lon="2.55862">
        <ele>309</ele>
        <time>2021-08-19T09:05:39Z</time>
      </trkpt>
      <trkpt lat="44.72501" lon="2.55859">
        <ele>308.2</ele>
        <time>2021-08-19T09:05:41Z</time>
      </trkpt>
      <trkpt lat="44.72515" lon="2.55859">
        <ele>308.2</ele>
        <time>2021-08-19T09:05:43Z</time>
      </trkpt>
      <trkpt lat="44.72529" lon="2.55862">
        <ele>308.6</ele>
        <time>2021-08-19T09:05:45Z</time>
      </trkpt>
      <trkpt lat="44.72543" lon="2.5587">
        <ele>309.6</ele>
        <time>2021-08-19T09:05:47Z</time>
      </trkpt>
      <trkpt lat="44.72555" lon="2.55881">
        <ele>310.5</ele>
        <time>2021-08-19T09:05:49Z</time>
      </trkpt>
      <trkpt lat="44.72564" lon="2.55894">
        <ele>311.2</ele>
        <time>2021-08-19T09:05:51Z</time>
      </trkpt>
      <trkpt lat="44.7257" lon="2.5591">
        <ele>311.9</ele>
        <time>2021-08-19T09:05:53Z</time>
      </trkpt>
      <trkpt lat="44.72574" lon="2.55923">
        <ele>312.9</ele>
        <time>2021-08-19T09:05:55Z</time>
      </trkpt>
      <trkpt lat="44.72576" lon="2.5593">
        <ele>313.4</ele>
        <time>2021-08-19T09:05:57Z</time>
      </trkpt>
      <trkpt lat="44.72581" lon="2.55931">
        <ele>313</ele>
        <time>2021-08-19T09:05:59Z</time>
      </trkpt>
      <trkpt lat="44.72584" lon="2.55929">
        <ele>312.5</ele>
        <time>2021-08-19T09:06:01Z</time>
      </trkpt>
      <trkpt lat="44.72585" lon="2.55929">
        <ele>312.4</ele>
        <time>2021-08-19T09:06:03Z</time>
      </trkpt>
      <trkpt lat="44.72585" lon="2.55929">
        <ele>312.4</ele>
        <time>2021-08-19T09:06:05Z</time>
      </trkpt>
      <trkpt lat="44.72585" lon="2.55928">
        <ele>312.4</ele>
        <time>2021-08-19T09:06:07Z</time>
      </trkpt>
      <trkpt lat="44.72585" lon="2.55928">
        <ele>312.4</ele>
        <time>2021-08-19T09:06:09Z</time>
      </trkpt>
      <trkpt lat="44.72581" lon="2.55955">
        <ele>316</ele>
        <time>2021-08-19T09:16:07Z</time>
      </trkpt>
      <trkpt lat="44.72582" lon="2.55959">
        <ele>316.3</ele>
        <time>2021-08-19T09:16:09Z</time>
      </trkpt>
      <trkpt lat="44.72583" lon="2.55963">
        <ele>316.6</ele>
        <time>2021-08-19T09:16:11Z</time>
      </trkpt>
      <trkpt lat="44.72584" lon="2.55968">
        <ele>317.1</ele>
        <time>2021-08-19T09:16:13Z</time>
      </trkpt>
      <trkpt lat="44.72585" lon="2.55973">
        <ele>317.6</ele>
        <time>2021-08-19T09:16:15Z</time>
      </trkpt>
      <trkpt lat="44.72586" lon="2.55977">
        <ele>318</ele>
        <time>2021-08-19T09:16:17Z</time>
      </trkpt>
      <trkpt lat="44.72587" lon="2.55981">
        <ele>318.5</ele>
        <time>2021-08-19T09:16:19Z</time>
      </trkpt>
      <trkpt lat="44.72588" lon="2.55986">
        <ele>318.9</ele>
        <time>2021-08-19T09:16:21Z</time>
      </trkpt>
      <trkpt lat="44.7259" lon="2.5599">
        <ele>319.2</ele>
        <time>2021-08-19T09:16:23Z</time>
      </trkpt>
      <trkpt lat="44.72591" lon="2.55995">
        <ele>319.6</ele>
        <time>2021-08-19T09:16:25Z</time>
      </trkpt>
      <trkpt lat="44.72592" lon="2.55999">
        <ele>319.9</ele>
        <time>2021-08-19T09:16:27Z</time>
      </trkpt>
      <trkpt lat="44.72593" lon="2.56004">
        <ele>321.3</ele>
        <time>2021-08-19T09:16:29Z</time>
      </trkpt>
      <trkpt lat="44.72594" lon="2.56008">
        <ele>322.8</ele>
        <time>2021-08-19T09:16:31Z</time>
      </trkpt>
      <trkpt lat="44.72596" lon="2.56013">
        <ele>324.2</ele>
        <time>2021-08-19T09:16:33Z</time>
      </trkpt>
      <trkpt lat="44.72597" lon="2.56017">
        <ele>325.6</ele>
        <time>2021-08-19T09:16:35Z</time>
      </trkpt>
      <trkpt lat="44.72598" lon="2.56022">
        <ele>327</ele>
        <time>2021-08-19T09:16:37Z</time>
      </trkpt>
      <trkpt lat="44.72599" lon="2.56025">
        <ele>328</ele>
        <time>2021-08-19T09:16:39Z</time>
      </trkpt>
      <trkpt lat="44.72601" lon="2.56029">
        <ele>328.9</ele>
        <time>2021-08-19T09:16:41Z</time>
      </trkpt>
      <trkpt lat="44.72604" lon="2.56033">
        <ele>329.8</ele>
        <time>2021-08-19T09:16:43Z</time>
      </trkpt>
      <trkpt lat="44.72606" lon="2.56037">
        <ele>330.7</ele>
        <time>2021-08-19T09:16:45Z</time>
      </trkpt>
      <trkpt lat="44.72608" lon="2.5604">
        <ele>331.4</ele>
        <time>2021-08-19T09:16:47Z</time>
      </trkpt>
      <trkpt lat="44.7261" lon="2.56044">
        <ele>332.1</ele>
        <time>2021-08-19T09:16:49Z</time>
      </trkpt>
      <trkpt lat="44.72612" lon="2.56048">
        <ele>332.9</ele>
        <time>2021-08-19T09:16:51Z</time>
      </trkpt>
      <trkpt lat="44.72615" lon="2.56051">
        <ele>333.3</ele>
        <time>2021-08-19T09:16:53Z</time>
      </trkpt>
      <trkpt lat="44.72617" lon="2.56055">
        <ele>333.9</ele>
        <time>2021-08-19T09:16:55Z</time>
      </trkpt>
      <trkpt lat="44.7262" lon="2.56057">
        <ele>333.8</ele>
        <time>2021-08-19T09:16:57Z</time>
      </trkpt>
      <trkpt lat="44.72624" lon="2.5606">
        <ele>333.7</ele>
        <time>2021-08-19T09:16:59Z</time>
      </trkpt>
      <trkpt lat="44.72628" lon="2.56064">
        <ele>333.9</ele>
        <time>2021-08-19T09:17:01Z</time>
      </trkpt>
      <trkpt lat="44.72631" lon="2.56068">
        <ele>334.1</ele>
        <time>2021-08-19T09:17:03Z</time>
      </trkpt>
      <trkpt lat="44.72635" lon="2.56072">
        <ele>334</ele>
        <time>2021-08-19T09:17:05Z</time>
      </trkpt>
      <trkpt lat="44.72639" lon="2.56076">
        <ele>333.9</ele>
        <time>2021-08-19T09:17:07Z</time>
      </trkpt>
      <trkpt lat="44.72643" lon="2.56082">
        <ele>334</ele>
        <time>2021-08-19T09:17:09Z</time>
      </trkpt>
      <trkpt lat="44.72647" lon="2.56088">
        <ele>334.3</ele>
        <time>2021-08-19T09:17:11Z</time>
      </trkpt>
      <trkpt lat="44.72651" lon="2.56093">
        <ele>334.7</ele>
        <time>2021-08-19T09:17:13Z</time>
      </trkpt>
      <trkpt lat="44.72655" lon="2.56099">
        <ele>335.1</ele>
        <time>2021-08-19T09:17:15Z</time>
      </trkpt>
      <trkpt lat="44.72657" lon="2.56106">
        <ele>336.3</ele>
        <time>2021-08-19T09:17:17Z</time>
      </trkpt>
      <trkpt lat="44.72659" lon="2.56113">
        <ele>337.6</ele>
        <time>2021-08-19T09:17:19Z</time>
      </trkpt>
      <trkpt lat="44.7266" lon="2.56121">
        <ele>339</ele>
        <time>2021-08-19T09:17:21Z</time>
      </trkpt>
      <trkpt lat="44.72662" lon="2.56128">
        <ele>340.2</ele>
        <time>2021-08-19T09:17:23Z</time>
      </trkpt>
      <trkpt lat="44.72664" lon="2.56134">
        <ele>341.3</ele>
        <time>2021-08-19T09:17:25Z</time>
      </trkpt>
      <trkpt lat="44.72666" lon="2.56141">
        <ele>342.3</ele>
        <time>2021-08-19T09:17:27Z</time>
      </trkpt>
      <trkpt lat="44.7267" lon="2.56147">
        <ele>343.4</ele>
        <time>2021-08-19T09:17:29Z</time>
      </trkpt>
      <trkpt lat="44.72673" lon="2.56153">
        <ele>344.7</ele>
        <time>2021-08-19T09:17:31Z</time>
      </trkpt>
      <trkpt lat="44.72677" lon="2.56158">
        <ele>345.4</ele>
        <time>2021-08-19T09:17:33Z</time>
      </trkpt>
      <trkpt lat="44.72681" lon="2.56163">
        <ele>346.4</ele>
        <time>2021-08-19T09:17:35Z</time>
      </trkpt>
      <trkpt lat="44.72686" lon="2.56168">
        <ele>347.6</ele>
        <time>2021-08-19T09:17:37Z</time>
      </trkpt>
      <trkpt lat="44.72691" lon="2.56173">
        <ele>349.6</ele>
        <time>2021-08-19T09:17:39Z</time>
      </trkpt>
      <trkpt lat="44.72696" lon="2.56178">
        <ele>351.6</ele>
        <time>2021-08-19T09:17:41Z</time>
      </trkpt>
      <trkpt lat="44.727" lon="2.56182">
        <ele>353.5</ele>
        <time>2021-08-19T09:17:43Z</time>
      </trkpt>
      <trkpt lat="44.72706" lon="2.56187">
        <ele>355.2</ele>
        <time>2021-08-19T09:17:45Z</time>
      </trkpt>
      <trkpt lat="44.72711" lon="2.56192">
        <ele>356.8</ele>
        <time>2021-08-19T09:17:47Z</time>
      </trkpt>
      <trkpt lat="44.72716" lon="2.56195">
        <ele>357.5</ele>
        <time>2021-08-19T09:17:49Z</time>
      </trkpt>
      <trkpt lat="44.72723" lon="2.56193">
        <ele>355.7</ele>
        <time>2021-08-19T09:17:51Z</time>
      </trkpt>
      <trkpt lat="44.72729" lon="2.56192">
        <ele>354</ele>
        <time>2021-08-19T09:17:53Z</time>
      </trkpt>
      <trkpt lat="44.72738" lon="2.56188">
        <ele>350.9</ele>
        <time>2021-08-19T09:17:55Z</time>
      </trkpt>
      <trkpt lat="44.72747" lon="2.56184">
        <ele>347.3</ele>
        <time>2021-08-19T09:17:57Z</time>
      </trkpt>
      <trkpt lat="44.72759" lon="2.56178">
        <ele>344.9</ele>
        <time>2021-08-19T09:17:59Z</time>
      </trkpt>
      <trkpt lat="44.72773" lon="2.56172">
        <ele>342.7</ele>
        <time>2021-08-19T09:18:01Z</time>
      </trkpt>
      <trkpt lat="44.72789" lon="2.56167">
        <ele>341.1</ele>
        <time>2021-08-19T09:18:03Z</time>
      </trkpt>
      <trkpt lat="44.72802" lon="2.56154">
        <ele>338.7</ele>
        <time>2021-08-19T09:18:05Z</time>
      </trkpt>
      <trkpt lat="44.72815" lon="2.56136">
        <ele>335.5</ele>
        <time>2021-08-19T09:18:07Z</time>
      </trkpt>
      <trkpt lat="44.72827" lon="2.5612">
        <ele>332.6</ele>
        <time>2021-08-19T09:18:09Z</time>
      </trkpt>
      <trkpt lat="44.72837" lon="2.56103">
        <ele>330.6</ele>
        <time>2021-08-19T09:18:11Z</time>
      </trkpt>
      <trkpt lat="44.72843" lon="2.56081">
        <ele>328.6</ele>
        <time>2021-08-19T09:18:13Z</time>
      </trkpt>
      <trkpt lat="44.72845" lon="2.56061">
        <ele>328.2</ele>
        <time>2021-08-19T09:18:15Z</time>
      </trkpt>
      <trkpt lat="44.72845" lon="2.56039">
        <ele>327.1</ele>
        <time>2021-08-19T09:18:17Z</time>
      </trkpt>
      <trkpt lat="44.72845" lon="2.56021">
        <ele>326.3</ele>
        <time>2021-08-19T09:18:19Z</time>
      </trkpt>
      <trkpt lat="44.72846" lon="2.56001">
        <ele>325.5</ele>
        <time>2021-08-19T09:18:21Z</time>
      </trkpt>
      <trkpt lat="44.72846" lon="2.55983">
        <ele>325</ele>
        <time>2021-08-19T09:18:23Z</time>
      </trkpt>
      <trkpt lat="44.72846" lon="2.55968">
        <ele>324.3</ele>
        <time>2021-08-19T09:18:25Z</time>
      </trkpt>
      <trkpt lat="44.72844" lon="2.55954">
        <ele>323.1</ele>
        <time>2021-08-19T09:18:27Z</time>
      </trkpt>
      <trkpt lat="44.72843" lon="2.55949">
        <ele>322.5</ele>
        <time>2021-08-19T09:18:29Z</time>
      </trkpt>
      <trkpt lat="44.72842" lon="2.55943">
        <ele>322.1</ele>
        <time>2021-08-19T09:18:31Z</time>
      </trkpt>
      <trkpt lat="44.72841" lon="2.55936">
        <ele>321.7</ele>
        <time>2021-08-19T09:18:33Z</time>
      </trkpt>
      <trkpt lat="44.72839" lon="2.55927">
        <ele>320.9</ele>
        <time>2021-08-19T09:18:35Z</time>
      </trkpt>
      <trkpt lat="44.72838" lon="2.55919">
        <ele>320.1</ele>
        <time>2021-08-19T09:18:37Z</time>
      </trkpt>
      <trkpt lat="44.72832" lon="2.55909">
        <ele>318.8</ele>
        <time>2021-08-19T09:18:39Z</time>
      </trkpt>
      <trkpt lat="44.72828" lon="2.55898">
        <ele>318.5</ele>
        <time>2021-08-19T09:18:41Z</time>
      </trkpt>
      <trkpt lat="44.72824" lon="2.55888">
        <ele>318.2</ele>
        <time>2021-08-19T09:18:43Z</time>
      </trkpt>
      <trkpt lat="44.72821" lon="2.55877">
        <ele>318.1</ele>
        <time>2021-08-19T09:18:45Z</time>
      </trkpt>
      <trkpt lat="44.72819" lon="2.55866">
        <ele>318</ele>
        <time>2021-08-19T09:18:47Z</time>
      </trkpt>
      <trkpt lat="44.7282" lon="2.55856">
        <ele>317.9</ele>
        <time>2021-08-19T09:18:49Z</time>
      </trkpt>
      <trkpt lat="44.72819" lon="2.55847">
        <ele>317.8</ele>
        <time>2021-08-19T09:18:51Z</time>
      </trkpt>
      <trkpt lat="44.72818" lon="2.55838">
        <ele>317.8</ele>
        <time>2021-08-19T09:18:53Z</time>
      </trkpt>
      <trkpt lat="44.72817" lon="2.55829">
        <ele>317.7</ele>
        <time>2021-08-19T09:18:55Z</time>
      </trkpt>
      <trkpt lat="44.72817" lon="2.5582">
        <ele>317.7</ele>
        <time>2021-08-19T09:18:57Z</time>
      </trkpt>
      <trkpt lat="44.72819" lon="2.55812">
        <ele>317.5</ele>
        <time>2021-08-19T09:18:59Z</time>
      </trkpt>
      <trkpt lat="44.72821" lon="2.55804">
        <ele>317.2</ele>
        <time>2021-08-19T09:19:01Z</time>
      </trkpt>
      <trkpt lat="44.72824" lon="2.55797">
        <ele>316.8</ele>
        <time>2021-08-19T09:19:03Z</time>
      </trkpt>
      <trkpt lat="44.72829" lon="2.5579">
        <ele>316</ele>
        <time>2021-08-19T09:19:05Z</time>
      </trkpt>
      <trkpt lat="44.72835" lon="2.55786">
        <ele>315.4</ele>
        <time>2021-08-19T09:19:07Z</time>
      </trkpt>
      <trkpt lat="44.72841" lon="2.55783">
        <ele>315.8</ele>
        <time>2021-08-19T09:19:09Z</time>
      </trkpt>
      <trkpt lat="44.72849" lon="2.55783">
        <ele>316.3</ele>
        <time>2021-08-19T09:19:11Z</time>
      </trkpt>
      <trkpt lat="44.72857" lon="2.55785">
        <ele>317</ele>
        <time>2021-08-19T09:19:13Z</time>
      </trkpt>
      <trkpt lat="44.72865" lon="2.5579">
        <ele>317.7</ele>
        <time>2021-08-19T09:19:15Z</time>
      </trkpt>
      <trkpt lat="44.72873" lon="2.55796">
        <ele>318.5</ele>
        <time>2021-08-19T09:19:17Z</time>
      </trkpt>
      <trkpt lat="44.7288" lon="2.55803">
        <ele>319.3</ele>
        <time>2021-08-19T09:19:19Z</time>
      </trkpt>
      <trkpt lat="44.72887" lon="2.55811">
        <ele>320.1</ele>
        <time>2021-08-19T09:19:21Z</time>
      </trkpt>
      <trkpt lat="44.72894" lon="2.5582">
        <ele>320.9</ele>
        <time>2021-08-19T09:19:23Z</time>
      </trkpt>
      <trkpt lat="44.729" lon="2.55826">
        <ele>321.5</ele>
        <time>2021-08-19T09:19:25Z</time>
      </trkpt>
      <trkpt lat="44.72909" lon="2.55832">
        <ele>322.4</ele>
        <time>2021-08-19T09:19:27Z</time>
      </trkpt>
      <trkpt lat="44.72916" lon="2.55837">
        <ele>323.7</ele>
        <time>2021-08-19T09:19:29Z</time>
      </trkpt>
      <trkpt lat="44.72923" lon="2.55843">
        <ele>324.3</ele>
        <time>2021-08-19T09:19:31Z</time>
      </trkpt>
      <trkpt lat="44.72929" lon="2.55848">
        <ele>324.6</ele>
        <time>2021-08-19T09:19:33Z</time>
      </trkpt>
      <trkpt lat="44.72936" lon="2.55854">
        <ele>324.9</ele>
        <time>2021-08-19T09:19:35Z</time>
      </trkpt>
      <trkpt lat="44.72944" lon="2.55859">
        <ele>325.1</ele>
        <time>2021-08-19T09:19:37Z</time>
      </trkpt>
      <trkpt lat="44.7295" lon="2.55866">
        <ele>325.5</ele>
        <time>2021-08-19T09:19:39Z</time>
      </trkpt>
      <trkpt lat="44.72956" lon="2.55873">
        <ele>326</ele>
        <time>2021-08-19T09:19:41Z</time>
      </trkpt>
      <trkpt lat="44.72961" lon="2.55881">
        <ele>326.5</ele>
        <time>2021-08-19T09:19:43Z</time>
      </trkpt>
      <trkpt lat="44.72967" lon="2.55889">
        <ele>327.1</ele>
        <time>2021-08-19T09:19:45Z</time>
      </trkpt>
      <trkpt lat="44.72974" lon="2.55897">
        <ele>327.4</ele>
        <time>2021-08-19T09:19:47Z</time>
      </trkpt>
      <trkpt lat="44.72979" lon="2.55905">
        <ele>327.7</ele>
        <time>2021-08-19T09:19:49Z</time>
      </trkpt>
      <trkpt lat="44.72984" lon="2.55914">
        <ele>328.2</ele>
        <time>2021-08-19T09:19:51Z</time>
      </trkpt>
      <trkpt lat="44.72989" lon="2.55921">
        <ele>329.1</ele>
        <time>2021-08-19T09:19:53Z</time>
      </trkpt>
      <trkpt lat="44.72995" lon="2.55929">
        <ele>330.6</ele>
        <time>2021-08-19T09:19:55Z</time>
      </trkpt>
      <trkpt lat="44.73001" lon="2.55935">
        <ele>331.7</ele>
        <time>2021-08-19T09:19:57Z</time>
      </trkpt>
      <trkpt lat="44.73006" lon="2.55942">
        <ele>332.8</ele>
        <time>2021-08-19T09:19:59Z</time>
      </trkpt>
      <trkpt lat="44.73011" lon="2.55949">
        <ele>333.5</ele>
        <time>2021-08-19T09:20:01Z</time>
      </trkpt>
      <trkpt lat="44.73015" lon="2.55956">
        <ele>334.4</ele>
        <time>2021-08-19T09:20:03Z</time>
      </trkpt>
      <trkpt lat="44.73018" lon="2.55964">
        <ele>335.6</ele>
        <time>2021-08-19T09:20:05Z</time>
      </trkpt>
      <trkpt lat="44.7302" lon="2.55972">
        <ele>337</ele>
        <time>2021-08-19T09:20:07Z</time>
      </trkpt>
      <trkpt lat="44.73022" lon="2.55981">
        <ele>338.3</ele>
        <time>2021-08-19T09:20:09Z</time>
      </trkpt>
      <trkpt lat="44.73023" lon="2.55989">
        <ele>339.9</ele>
        <time>2021-08-19T09:20:11Z</time>
      </trkpt>
      <trkpt lat="44.73025" lon="2.55998">
        <ele>341.3</ele>
        <time>2021-08-19T09:20:13Z</time>
      </trkpt>
      <trkpt lat="44.73027" lon="2.56006">
        <ele>343.5</ele>
        <time>2021-08-19T09:20:15Z</time>
      </trkpt>
      <trkpt lat="44.73029" lon="2.56014">
        <ele>345.7</ele>
        <time>2021-08-19T09:20:17Z</time>
      </trkpt>
      <trkpt lat="44.73032" lon="2.56022">
        <ele>347.7</ele>
        <time>2021-08-19T09:20:19Z</time>
      </trkpt>
      <trkpt lat="44.73035" lon="2.5603">
        <ele>349.6</ele>
        <time>2021-08-19T09:20:21Z</time>
      </trkpt>
      <trkpt lat="44.73039" lon="2.56038">
        <ele>351.4</ele>
        <time>2021-08-19T09:20:23Z</time>
      </trkpt>
      <trkpt lat="44.73044" lon="2.56046">
        <ele>353.2</ele>
        <time>2021-08-19T09:20:25Z</time>
      </trkpt>
      <trkpt lat="44.7305" lon="2.56053">
        <ele>354</ele>
        <time>2021-08-19T09:20:27Z</time>
      </trkpt>
      <trkpt lat="44.73056" lon="2.56059">
        <ele>354.5</ele>
        <time>2021-08-19T09:20:29Z</time>
      </trkpt>
      <trkpt lat="44.73063" lon="2.56064">
        <ele>354.3</ele>
        <time>2021-08-19T09:20:31Z</time>
      </trkpt>
      <trkpt lat="44.73069" lon="2.56067">
        <ele>354.3</ele>
        <time>2021-08-19T09:20:33Z</time>
      </trkpt>
      <trkpt lat="44.73078" lon="2.56071">
        <ele>353.2</ele>
        <time>2021-08-19T09:20:35Z</time>
      </trkpt>
      <trkpt lat="44.73086" lon="2.56073">
        <ele>352.8</ele>
        <time>2021-08-19T09:20:37Z</time>
      </trkpt>
      <trkpt lat="44.73096" lon="2.56073">
        <ele>353.1</ele>
        <time>2021-08-19T09:20:39Z</time>
      </trkpt>
      <trkpt lat="44.73106" lon="2.56072">
        <ele>352.9</ele>
        <time>2021-08-19T09:20:41Z</time>
      </trkpt>
      <trkpt lat="44.73117" lon="2.56068">
        <ele>351.2</ele>
        <time>2021-08-19T09:20:43Z</time>
      </trkpt>
      <trkpt lat="44.73126" lon="2.56062">
        <ele>348.5</ele>
        <time>2021-08-19T09:20:45Z</time>
      </trkpt>
      <trkpt lat="44.73136" lon="2.56051">
        <ele>343.9</ele>
        <time>2021-08-19T09:20:47Z</time>
      </trkpt>
      <trkpt lat="44.73145" lon="2.5604">
        <ele>339.1</ele>
        <time>2021-08-19T09:20:49Z</time>
      </trkpt>
      <trkpt lat="44.73155" lon="2.56026">
        <ele>333.3</ele>
        <time>2021-08-19T09:20:51Z</time>
      </trkpt>
      <trkpt lat="44.73164" lon="2.56009">
        <ele>326.6</ele>
        <time>2021-08-19T09:20:53Z</time>
      </trkpt>
      <trkpt lat="44.73173" lon="2.55993">
        <ele>323</ele>
        <time>2021-08-19T09:20:55Z</time>
      </trkpt>
      <trkpt lat="44.73182" lon="2.55978">
        <ele>322.3</ele>
        <time>2021-08-19T09:20:57Z</time>
      </trkpt>
      <trkpt lat="44.73188" lon="2.55962">
        <ele>321</ele>
        <time>2021-08-19T09:20:59Z</time>
      </trkpt>
      <trkpt lat="44.73196" lon="2.55954">
        <ele>320.5</ele>
        <time>2021-08-19T09:21:01Z</time>
      </trkpt>
      <trkpt lat="44.73204" lon="2.55952">
        <ele>320.9</ele>
        <time>2021-08-19T09:21:03Z</time>
      </trkpt>
      <trkpt lat="44.7321" lon="2.55957">
        <ele>321.9</ele>
        <time>2021-08-19T09:21:05Z</time>
      </trkpt>
      <trkpt lat="44.73216" lon="2.55962">
        <ele>323.2</ele>
        <time>2021-08-19T09:21:07Z</time>
      </trkpt>
      <trkpt lat="44.73222" lon="2.55969">
        <ele>324.6</ele>
        <time>2021-08-19T09:21:09Z</time>
      </trkpt>
      <trkpt lat="44.73226" lon="2.55974">
        <ele>325.9</ele>
        <time>2021-08-19T09:21:11Z</time>
      </trkpt>
      <trkpt lat="44.7323" lon="2.55979">
        <ele>327</ele>
        <time>2021-08-19T09:21:13Z</time>
      </trkpt>
      <trkpt lat="44.73235" lon="2.55981">
        <ele>327.9</ele>
        <time>2021-08-19T09:21:15Z</time>
      </trkpt>
      <trkpt lat="44.7324" lon="2.55985">
        <ele>329</ele>
        <time>2021-08-19T09:21:17Z</time>
      </trkpt>
      <trkpt lat="44.73244" lon="2.55989">
        <ele>330.2</ele>
        <time>2021-08-19T09:21:19Z</time>
      </trkpt>
      <trkpt lat="44.73248" lon="2.55991">
        <ele>331</ele>
        <time>2021-08-19T09:21:21Z</time>
      </trkpt>
      <trkpt lat="44.73254" lon="2.55992">
        <ele>331.4</ele>
        <time>2021-08-19T09:21:23Z</time>
      </trkpt>
      <trkpt lat="44.73258" lon="2.55994">
        <ele>331.8</ele>
        <time>2021-08-19T09:21:25Z</time>
      </trkpt>
      <trkpt lat="44.73262" lon="2.55996">
        <ele>332.3</ele>
        <time>2021-08-19T09:21:27Z</time>
      </trkpt>
      <trkpt lat="44.73267" lon="2.55997">
        <ele>332.5</ele>
        <time>2021-08-19T09:21:29Z</time>
      </trkpt>
      <trkpt lat="44.73271" lon="2.55998">
        <ele>332.7</ele>
        <time>2021-08-19T09:21:31Z</time>
      </trkpt>
      <trkpt lat="44.73276" lon="2.56">
        <ele>333</ele>
        <time>2021-08-19T09:21:33Z</time>
      </trkpt>
      <trkpt lat="44.73282" lon="2.56">
        <ele>333.2</ele>
        <time>2021-08-19T09:21:35Z</time>
      </trkpt>
      <trkpt lat="44.73287" lon="2.56">
        <ele>333</ele>
        <time>2021-08-19T09:21:37Z</time>
      </trkpt>
      <trkpt lat="44.73292" lon="2.55999">
        <ele>332.9</ele>
        <time>2021-08-19T09:21:39Z</time>
      </trkpt>
      <trkpt lat="44.73296" lon="2.55997">
        <ele>332.6</ele>
        <time>2021-08-19T09:21:41Z</time>
      </trkpt>
      <trkpt lat="44.733" lon="2.55996">
        <ele>332.5</ele>
        <time>2021-08-19T09:21:43Z</time>
      </trkpt>
      <trkpt lat="44.73303" lon="2.55993">
        <ele>332.1</ele>
        <time>2021-08-19T09:21:45Z</time>
      </trkpt>
      <trkpt lat="44.73307" lon="2.55991">
        <ele>331.9</ele>
        <time>2021-08-19T09:21:47Z</time>
      </trkpt>
      <trkpt lat="44.73311" lon="2.55989">
        <ele>331.6</ele>
        <time>2021-08-19T09:21:49Z</time>
      </trkpt>
      <trkpt lat="44.73315" lon="2.55987">
        <ele>331.5</ele>
        <time>2021-08-19T09:21:51Z</time>
      </trkpt>
      <trkpt lat="44.73319" lon="2.55986">
        <ele>331.4</ele>
        <time>2021-08-19T09:21:53Z</time>
      </trkpt>
      <trkpt lat="44.73323" lon="2.55985">
        <ele>331.4</ele>
        <time>2021-08-19T09:21:55Z</time>
      </trkpt>
      <trkpt lat="44.73328" lon="2.55984">
        <ele>331.4</ele>
        <time>2021-08-19T09:21:57Z</time>
      </trkpt>
      <trkpt lat="44.73332" lon="2.55983">
        <ele>331.3</ele>
        <time>2021-08-19T09:21:59Z</time>
      </trkpt>
      <trkpt lat="44.73335" lon="2.5598">
        <ele>331.3</ele>
        <time>2021-08-19T09:22:01Z</time>
      </trkpt>
      <trkpt lat="44.7334" lon="2.55979">
        <ele>331.7</ele>
        <time>2021-08-19T09:22:03Z</time>
      </trkpt>
      <trkpt lat="44.73344" lon="2.55976">
        <ele>331.6</ele>
        <time>2021-08-19T09:22:05Z</time>
      </trkpt>
      <trkpt lat="44.73349" lon="2.55974">
        <ele>331.7</ele>
        <time>2021-08-19T09:22:07Z</time>
      </trkpt>
      <trkpt lat="44.73353" lon="2.55972">
        <ele>331.9</ele>
        <time>2021-08-19T09:22:09Z</time>
      </trkpt>
      <trkpt lat="44.73357" lon="2.55968">
        <ele>331.7</ele>
        <time>2021-08-19T09:22:11Z</time>
      </trkpt>
      <trkpt lat="44.7336" lon="2.55965">
        <ele>331.5</ele>
        <time>2021-08-19T09:22:13Z</time>
      </trkpt>
      <trkpt lat="44.73364" lon="2.55962">
        <ele>331.4</ele>
        <time>2021-08-19T09:22:15Z</time>
      </trkpt>
      <trkpt lat="44.73368" lon="2.5596">
        <ele>331.3</ele>
        <time>2021-08-19T09:22:17Z</time>
      </trkpt>
      <trkpt lat="44.73371" lon="2.55957">
        <ele>331.1</ele>
        <time>2021-08-19T09:22:19Z</time>
      </trkpt>
      <trkpt lat="44.73376" lon="2.55956">
        <ele>331.2</ele>
        <time>2021-08-19T09:22:21Z</time>
      </trkpt>
      <trkpt lat="44.7338" lon="2.55954">
        <ele>331.2</ele>
        <time>2021-08-19T09:22:23Z</time>
      </trkpt>
      <trkpt lat="44.73385" lon="2.55954">
        <ele>331.3</ele>
        <time>2021-08-19T09:22:25Z</time>
      </trkpt>
      <trkpt lat="44.7339" lon="2.55953">
        <ele>331.4</ele>
        <time>2021-08-19T09:22:27Z</time>
      </trkpt>
      <trkpt lat="44.73395" lon="2.55952">
        <ele>331.4</ele>
        <time>2021-08-19T09:22:29Z</time>
      </trkpt>
      <trkpt lat="44.734" lon="2.55952">
        <ele>331.8</ele>
        <time>2021-08-19T09:22:31Z</time>
      </trkpt>
      <trkpt lat="44.73405" lon="2.55953">
        <ele>332.2</ele>
        <time>2021-08-19T09:22:33Z</time>
      </trkpt>
      <trkpt lat="44.7341" lon="2.55954">
        <ele>332.7</ele>
        <time>2021-08-19T09:22:35Z</time>
      </trkpt>
      <trkpt lat="44.73414" lon="2.55956">
        <ele>333.3</ele>
        <time>2021-08-19T09:22:37Z</time>
      </trkpt>
      <trkpt lat="44.73419" lon="2.55958">
        <ele>334.1</ele>
        <time>2021-08-19T09:22:39Z</time>
      </trkpt>
      <trkpt lat="44.73424" lon="2.5596">
        <ele>334.9</ele>
        <time>2021-08-19T09:22:41Z</time>
      </trkpt>
      <trkpt lat="44.73429" lon="2.55961">
        <ele>335.7</ele>
        <time>2021-08-19T09:22:43Z</time>
      </trkpt>
      <trkpt lat="44.73435" lon="2.55963">
        <ele>336.5</ele>
        <time>2021-08-19T09:22:45Z</time>
      </trkpt>
      <trkpt lat="44.7344" lon="2.55966">
        <ele>337.3</ele>
        <time>2021-08-19T09:22:47Z</time>
      </trkpt>
      <trkpt lat="44.73446" lon="2.55969">
        <ele>338</ele>
        <time>2021-08-19T09:22:49Z</time>
      </trkpt>
      <trkpt lat="44.73451" lon="2.55969">
        <ele>338.3</ele>
        <time>2021-08-19T09:22:51Z</time>
      </trkpt>
      <trkpt lat="44.73454" lon="2.55974">
        <ele>339</ele>
        <time>2021-08-19T09:22:53Z</time>
      </trkpt>
      <trkpt lat="44.73459" lon="2.55978">
        <ele>339.5</ele>
        <time>2021-08-19T09:22:55Z</time>
      </trkpt>
      <trkpt lat="44.73464" lon="2.55982">
        <ele>340</ele>
        <time>2021-08-19T09:22:57Z</time>
      </trkpt>
      <trkpt lat="44.73469" lon="2.55986">
        <ele>340.3</ele>
        <time>2021-08-19T09:22:59Z</time>
      </trkpt>
      <trkpt lat="44.73474" lon="2.55988">
        <ele>340.4</ele>
        <time>2021-08-19T09:23:01Z</time>
      </trkpt>
      <trkpt lat="44.73479" lon="2.55992">
        <ele>340.5</ele>
        <time>2021-08-19T09:23:03Z</time>
      </trkpt>
      <trkpt lat="44.73484" lon="2.55996">
        <ele>340.5</ele>
        <time>2021-08-19T09:23:05Z</time>
      </trkpt>
      <trkpt lat="44.73489" lon="2.56">
        <ele>340.4</ele>
        <time>2021-08-19T09:23:07Z</time>
      </trkpt>
      <trkpt lat="44.73495" lon="2.56004">
        <ele>341.2</ele>
        <time>2021-08-19T09:23:09Z</time>
      </trkpt>
      <trkpt lat="44.735" lon="2.56009">
        <ele>342.3</ele>
        <time>2021-08-19T09:23:11Z</time>
      </trkpt>
      <trkpt lat="44.73504" lon="2.56015">
        <ele>344.2</ele>
        <time>2021-08-19T09:23:13Z</time>
      </trkpt>
      <trkpt lat="44.7351" lon="2.5602">
        <ele>345.9</ele>
        <time>2021-08-19T09:23:15Z</time>
      </trkpt>
      <trkpt lat="44.73515" lon="2.56026">
        <ele>347.2</ele>
        <time>2021-08-19T09:23:17Z</time>
      </trkpt>
      <trkpt lat="44.7352" lon="2.56032">
        <ele>348.4</ele>
        <time>2021-08-19T09:23:19Z</time>
      </trkpt>
      <trkpt lat="44.73524" lon="2.56037">
        <ele>349.2</ele>
        <time>2021-08-19T09:23:21Z</time>
      </trkpt>
      <trkpt lat="44.73529" lon="2.56043">
        <ele>349.8</ele>
        <time>2021-08-19T09:23:23Z</time>
      </trkpt>
      <trkpt lat="44.73532" lon="2.56051">
        <ele>350.4</ele>
        <time>2021-08-19T09:23:25Z</time>
      </trkpt>
      <trkpt lat="44.73535" lon="2.56059">
        <ele>350.7</ele>
        <time>2021-08-19T09:23:27Z</time>
      </trkpt>
      <trkpt lat="44.73538" lon="2.56068">
        <ele>350.9</ele>
        <time>2021-08-19T09:23:29Z</time>
      </trkpt>
      <trkpt lat="44.73542" lon="2.56076">
        <ele>350.6</ele>
        <time>2021-08-19T09:23:31Z</time>
      </trkpt>
      <trkpt lat="44.73547" lon="2.56084">
        <ele>350</ele>
        <time>2021-08-19T09:23:33Z</time>
      </trkpt>
      <trkpt lat="44.73552" lon="2.5609">
        <ele>350.3</ele>
        <time>2021-08-19T09:23:35Z</time>
      </trkpt>
      <trkpt lat="44.73561" lon="2.56093">
        <ele>348.5</ele>
        <time>2021-08-19T09:23:37Z</time>
      </trkpt>
      <trkpt lat="44.73566" lon="2.56096">
        <ele>348</ele>
        <time>2021-08-19T09:23:39Z</time>
      </trkpt>
      <trkpt lat="44.73574" lon="2.56099">
        <ele>346.3</ele>
        <time>2021-08-19T09:23:41Z</time>
      </trkpt>
      <trkpt lat="44.73582" lon="2.561">
        <ele>344.4</ele>
        <time>2021-08-19T09:23:43Z</time>
      </trkpt>
      <trkpt lat="44.73591" lon="2.56103">
        <ele>346.5</ele>
        <time>2021-08-19T09:23:45Z</time>
      </trkpt>
      <trkpt lat="44.73599" lon="2.5611">
        <ele>349.2</ele>
        <time>2021-08-19T09:23:47Z</time>
      </trkpt>
      <trkpt lat="44.73605" lon="2.56119">
        <ele>351.2</ele>
        <time>2021-08-19T09:23:49Z</time>
      </trkpt>
      <trkpt lat="44.73612" lon="2.56125">
        <ele>352.7</ele>
        <time>2021-08-19T09:23:51Z</time>
      </trkpt>
      <trkpt lat="44.73623" lon="2.56126">
        <ele>354.2</ele>
        <time>2021-08-19T09:23:53Z</time>
      </trkpt>
      <trkpt lat="44.73631" lon="2.56119">
        <ele>355.8</ele>
        <time>2021-08-19T09:23:55Z</time>
      </trkpt>
      <trkpt lat="44.73633" lon="2.56109">
        <ele>357</ele>
        <time>2021-08-19T09:23:57Z</time>
      </trkpt>
      <trkpt lat="44.73632" lon="2.56101">
        <ele>357.4</ele>
        <time>2021-08-19T09:23:59Z</time>
      </trkpt>
      <trkpt lat="44.7363" lon="2.56097">
        <ele>356.9</ele>
        <time>2021-08-19T09:24:01Z</time>
      </trkpt>
      <trkpt lat="44.73628" lon="2.56094">
        <ele>356.5</ele>
        <time>2021-08-19T09:24:03Z</time>
      </trkpt>
      <trkpt lat="44.73626" lon="2.56089">
        <ele>356.2</ele>
        <time>2021-08-19T09:24:05Z</time>
      </trkpt>
      <trkpt lat="44.73626" lon="2.56085">
        <ele>356.3</ele>
        <time>2021-08-19T09:24:07Z</time>
      </trkpt>
      <trkpt lat="44.73624" lon="2.56082">
        <ele>356.1</ele>
        <time>2021-08-19T09:24:09Z</time>
      </trkpt>
      <trkpt lat="44.73622" lon="2.56078">
        <ele>356.1</ele>
        <time>2021-08-19T09:24:11Z</time>
      </trkpt>
      <trkpt lat="44.7362" lon="2.56075">
        <ele>356.2</ele>
        <time>2021-08-19T09:24:13Z</time>
      </trkpt>
      <trkpt lat="44.73619" lon="2.56071">
        <ele>356.6</ele>
        <time>2021-08-19T09:24:15Z</time>
      </trkpt>
      <trkpt lat="44.73617" lon="2.56068">
        <ele>356.6</ele>
        <time>2021-08-19T09:24:17Z</time>
      </trkpt>
      <trkpt lat="44.73615" lon="2.56064">
        <ele>356.7</ele>
        <time>2021-08-19T09:24:19Z</time>
      </trkpt>
      <trkpt lat="44.73613" lon="2.56062">
        <ele>356.4</ele>
        <time>2021-08-19T09:24:21Z</time>
      </trkpt>
      <trkpt lat="44.7361" lon="2.56059">
        <ele>355.8</ele>
        <time>2021-08-19T09:24:23Z</time>
      </trkpt>
      <trkpt lat="44.73606" lon="2.56058">
        <ele>354.3</ele>
        <time>2021-08-19T09:24:25Z</time>
      </trkpt>
      <trkpt lat="44.73603" lon="2.56057">
        <ele>353.4</ele>
        <time>2021-08-19T09:24:27Z</time>
      </trkpt>
      <trkpt lat="44.736" lon="2.56054">
        <ele>352.8</ele>
        <time>2021-08-19T09:24:29Z</time>
      </trkpt>
      <trkpt lat="44.73598" lon="2.56051">
        <ele>352.7</ele>
        <time>2021-08-19T09:24:31Z</time>
      </trkpt>
      <trkpt lat="44.73596" lon="2.56048">
        <ele>352.2</ele>
        <time>2021-08-19T09:24:33Z</time>
      </trkpt>
      <trkpt lat="44.73592" lon="2.56046">
        <ele>351.2</ele>
        <time>2021-08-19T09:24:35Z</time>
      </trkpt>
      <trkpt lat="44.73589" lon="2.56044">
        <ele>350</ele>
        <time>2021-08-19T09:24:37Z</time>
      </trkpt>
      <trkpt lat="44.73586" lon="2.5604">
        <ele>349.4</ele>
        <time>2021-08-19T09:24:39Z</time>
      </trkpt>
      <trkpt lat="44.73583" lon="2.56036">
        <ele>349</ele>
        <time>2021-08-19T09:24:41Z</time>
      </trkpt>
      <trkpt lat="44.73581" lon="2.56031">
        <ele>349.7</ele>
        <time>2021-08-19T09:24:43Z</time>
      </trkpt>
      <trkpt lat="44.73579" lon="2.56026">
        <ele>350.5</ele>
        <time>2021-08-19T09:24:45Z</time>
      </trkpt>
      <trkpt lat="44.73578" lon="2.5602">
        <ele>351.2</ele>
        <time>2021-08-19T09:24:47Z</time>
      </trkpt>
      <trkpt lat="44.73575" lon="2.56015">
        <ele>351.7</ele>
        <time>2021-08-19T09:24:49Z</time>
      </trkpt>
      <trkpt lat="44.73574" lon="2.56009">
        <ele>352.2</ele>
        <time>2021-08-19T09:24:51Z</time>
      </trkpt>
      <trkpt lat="44.73572" lon="2.56004">
        <ele>352.6</ele>
        <time>2021-08-19T09:24:53Z</time>
      </trkpt>
      <trkpt lat="44.7357" lon="2.55999">
        <ele>352.8</ele>
        <time>2021-08-19T09:24:55Z</time>
      </trkpt>
      <trkpt lat="44.73568" lon="2.55995">
        <ele>354</ele>
        <time>2021-08-19T09:24:57Z</time>
      </trkpt>
      <trkpt lat="44.73566" lon="2.5599">
        <ele>354.8</ele>
        <time>2021-08-19T09:24:59Z</time>
      </trkpt>
      <trkpt lat="44.73564" lon="2.55986">
        <ele>355.6</ele>
        <time>2021-08-19T09:25:01Z</time>
      </trkpt>
      <trkpt lat="44.73561" lon="2.55983">
        <ele>355.8</ele>
        <time>2021-08-19T09:25:03Z</time>
      </trkpt>
      <trkpt lat="44.73559" lon="2.5598">
        <ele>356.2</ele>
        <time>2021-08-19T09:25:05Z</time>
      </trkpt>
      <trkpt lat="44.73557" lon="2.55976">
        <ele>356.6</ele>
        <time>2021-08-19T09:25:07Z</time>
      </trkpt>
      <trkpt lat="44.73554" lon="2.55973">
        <ele>356.7</ele>
        <time>2021-08-19T09:25:09Z</time>
      </trkpt>
      <trkpt lat="44.73551" lon="2.55969">
        <ele>356.8</ele>
        <time>2021-08-19T09:25:11Z</time>
      </trkpt>
      <trkpt lat="44.73548" lon="2.55967">
        <ele>356.2</ele>
        <time>2021-08-19T09:25:13Z</time>
      </trkpt>
      <trkpt lat="44.73546" lon="2.55963">
        <ele>356.4</ele>
        <time>2021-08-19T09:25:15Z</time>
      </trkpt>
      <trkpt lat="44.73544" lon="2.5596">
        <ele>356.3</ele>
        <time>2021-08-19T09:25:17Z</time>
      </trkpt>
      <trkpt lat="44.73541" lon="2.55957">
        <ele>356</ele>
        <time>2021-08-19T09:25:19Z</time>
      </trkpt>
      <trkpt lat="44.73538" lon="2.55953">
        <ele>355.6</ele>
        <time>2021-08-19T09:25:21Z</time>
      </trkpt>
      <trkpt lat="44.73535" lon="2.5595">
        <ele>355.3</ele>
        <time>2021-08-19T09:25:23Z</time>
      </trkpt>
      <trkpt lat="44.73532" lon="2.55947">
        <ele>354.6</ele>
        <time>2021-08-19T09:25:25Z</time>
      </trkpt>
      <trkpt lat="44.7353" lon="2.55943">
        <ele>354.2</ele>
        <time>2021-08-19T09:25:27Z</time>
      </trkpt>
      <trkpt lat="44.73528" lon="2.55939">
        <ele>353.9</ele>
        <time>2021-08-19T09:25:29Z</time>
      </trkpt>
      <trkpt lat="44.73526" lon="2.55935">
        <ele>353.9</ele>
        <time>2021-08-19T09:25:31Z</time>
      </trkpt>
      <trkpt lat="44.73524" lon="2.5593">
        <ele>353.4</ele>
        <time>2021-08-19T09:25:33Z</time>
      </trkpt>
      <trkpt lat="44.73521" lon="2.55928">
        <ele>352.5</ele>
        <time>2021-08-19T09:25:35Z</time>
      </trkpt>
      <trkpt lat="44.73519" lon="2.55925">
        <ele>351.9</ele>
        <time>2021-08-19T09:25:37Z</time>
      </trkpt>
      <trkpt lat="44.73517" lon="2.55921">
        <ele>351.3</ele>
        <time>2021-08-19T09:25:39Z</time>
      </trkpt>
      <trkpt lat="44.73515" lon="2.55916">
        <ele>351.2</ele>
        <time>2021-08-19T09:25:41Z</time>
      </trkpt>
      <trkpt lat="44.73512" lon="2.55913">
        <ele>350.9</ele>
        <time>2021-08-19T09:25:43Z</time>
      </trkpt>
      <trkpt lat="44.73509" lon="2.5591">
        <ele>350.7</ele>
        <time>2021-08-19T09:25:45Z</time>
      </trkpt>
      <trkpt lat="44.73506" lon="2.55907">
        <ele>350.5</ele>
        <time>2021-08-19T09:25:47Z</time>
      </trkpt>
      <trkpt lat="44.73504" lon="2.55904">
        <ele>350.4</ele>
        <time>2021-08-19T09:25:49Z</time>
      </trkpt>
      <trkpt lat="44.73501" lon="2.55902">
        <ele>350.1</ele>
        <time>2021-08-19T09:25:51Z</time>
      </trkpt>
      <trkpt lat="44.73499" lon="2.55898">
        <ele>351</ele>
        <time>2021-08-19T09:25:53Z</time>
      </trkpt>
      <trkpt lat="44.73497" lon="2.55894">
        <ele>352.1</ele>
        <time>2021-08-19T09:25:55Z</time>
      </trkpt>
      <trkpt lat="44.73494" lon="2.5589">
        <ele>353</ele>
        <time>2021-08-19T09:25:57Z</time>
      </trkpt>
      <trkpt lat="44.73492" lon="2.55886">
        <ele>354.2</ele>
        <time>2021-08-19T09:25:59Z</time>
      </trkpt>
      <trkpt lat="44.7349" lon="2.55882">
        <ele>355.5</ele>
        <time>2021-08-19T09:26:01Z</time>
      </trkpt>
      <trkpt lat="44.73488" lon="2.5588">
        <ele>355.6</ele>
        <time>2021-08-19T09:26:03Z</time>
      </trkpt>
      <trkpt lat="44.73485" lon="2.55877">
        <ele>356.6</ele>
        <time>2021-08-19T09:26:05Z</time>
      </trkpt>
      <trkpt lat="44.73483" lon="2.55873">
        <ele>357.3</ele>
        <time>2021-08-19T09:26:07Z</time>
      </trkpt>
      <trkpt lat="44.73481" lon="2.5587">
        <ele>357.8</ele>
        <time>2021-08-19T09:26:09Z</time>
      </trkpt>
      <trkpt lat="44.73479" lon="2.55867">
        <ele>358.5</ele>
        <time>2021-08-19T09:26:11Z</time>
      </trkpt>
      <trkpt lat="44.73476" lon="2.55865">
        <ele>358.3</ele>
        <time>2021-08-19T09:26:13Z</time>
      </trkpt>
      <trkpt lat="44.73473" lon="2.55862">
        <ele>358.6</ele>
        <time>2021-08-19T09:26:15Z</time>
      </trkpt>
      <trkpt lat="44.7347" lon="2.5586">
        <ele>358.6</ele>
        <time>2021-08-19T09:26:17Z</time>
      </trkpt>
      <trkpt lat="44.73467" lon="2.55857">
        <ele>358.6</ele>
        <time>2021-08-19T09:26:19Z</time>
      </trkpt>
      <trkpt lat="44.73464" lon="2.55854">
        <ele>358.7</ele>
        <time>2021-08-19T09:26:21Z</time>
      </trkpt>
      <trkpt lat="44.73461" lon="2.55851">
        <ele>358.7</ele>
        <time>2021-08-19T09:26:23Z</time>
      </trkpt>
      <trkpt lat="44.73458" lon="2.55849">
        <ele>358.7</ele>
        <time>2021-08-19T09:26:25Z</time>
      </trkpt>
      <trkpt lat="44.73455" lon="2.55847">
        <ele>358.6</ele>
        <time>2021-08-19T09:26:27Z</time>
      </trkpt>
      <trkpt lat="44.73453" lon="2.55845">
        <ele>358.3</ele>
        <time>2021-08-19T09:26:29Z</time>
      </trkpt>
      <trkpt lat="44.7345" lon="2.55841">
        <ele>358.8</ele>
        <time>2021-08-19T09:26:31Z</time>
      </trkpt>
      <trkpt lat="44.73447" lon="2.55839">
        <ele>358.2</ele>
        <time>2021-08-19T09:26:33Z</time>
      </trkpt>
      <trkpt lat="44.73444" lon="2.55836">
        <ele>358.2</ele>
        <time>2021-08-19T09:26:35Z</time>
      </trkpt>
      <trkpt lat="44.7344" lon="2.55833">
        <ele>357.8</ele>
        <time>2021-08-19T09:26:37Z</time>
      </trkpt>
      <trkpt lat="44.73437" lon="2.5583">
        <ele>357.4</ele>
        <time>2021-08-19T09:26:39Z</time>
      </trkpt>
      <trkpt lat="44.73434" lon="2.55829">
        <ele>356.5</ele>
        <time>2021-08-19T09:26:41Z</time>
      </trkpt>
      <trkpt lat="44.73431" lon="2.55828">
        <ele>355.6</ele>
        <time>2021-08-19T09:26:43Z</time>
      </trkpt>
      <trkpt lat="44.73427" lon="2.55826">
        <ele>354.9</ele>
        <time>2021-08-19T09:26:45Z</time>
      </trkpt>
      <trkpt lat="44.73424" lon="2.55823">
        <ele>354.3</ele>
        <time>2021-08-19T09:26:47Z</time>
      </trkpt>
      <trkpt lat="44.73421" lon="2.55821">
        <ele>353.7</ele>
        <time>2021-08-19T09:26:49Z</time>
      </trkpt>
      <trkpt lat="44.73418" lon="2.55819">
        <ele>353.1</ele>
        <time>2021-08-19T09:26:51Z</time>
      </trkpt>
      <trkpt lat="44.73414" lon="2.55817">
        <ele>352.8</ele>
        <time>2021-08-19T09:26:53Z</time>
      </trkpt>
      <trkpt lat="44.73411" lon="2.55816">
        <ele>352.9</ele>
        <time>2021-08-19T09:26:55Z</time>
      </trkpt>
      <trkpt lat="44.73408" lon="2.55815">
        <ele>352.9</ele>
        <time>2021-08-19T09:26:57Z</time>
      </trkpt>
      <trkpt lat="44.73404" lon="2.55814">
        <ele>352.7</ele>
        <time>2021-08-19T09:26:59Z</time>
      </trkpt>
      <trkpt lat="44.73401" lon="2.55811">
        <ele>353.2</ele>
        <time>2021-08-19T09:27:01Z</time>
      </trkpt>
      <trkpt lat="44.73398" lon="2.55808">
        <ele>353.4</ele>
        <time>2021-08-19T09:27:03Z</time>
      </trkpt>
      <trkpt lat="44.73394" lon="2.55806">
        <ele>353.6</ele>
        <time>2021-08-19T09:27:05Z</time>
      </trkpt>
      <trkpt lat="44.7339" lon="2.55803">
        <ele>353.9</ele>
        <time>2021-08-19T09:27:07Z</time>
      </trkpt>
      <trkpt lat="44.73388" lon="2.55798">
        <ele>354.7</ele>
        <time>2021-08-19T09:27:09Z</time>
      </trkpt>
      <trkpt lat="44.73384" lon="2.55795">
        <ele>354.9</ele>
        <time>2021-08-19T09:27:11Z</time>
      </trkpt>
      <trkpt lat="44.73381" lon="2.55791">
        <ele>355.3</ele>
        <time>2021-08-19T09:27:13Z</time>
      </trkpt>
      <trkpt lat="44.73377" lon="2.55786">
        <ele>356</ele>
        <time>2021-08-19T09:27:15Z</time>
      </trkpt>
      <trkpt lat="44.73374" lon="2.55782">
        <ele>356.3</ele>
        <time>2021-08-19T09:27:17Z</time>
      </trkpt>
      <trkpt lat="44.7337" lon="2.55778">
        <ele>356.6</ele>
        <time>2021-08-19T09:27:19Z</time>
      </trkpt>
      <trkpt lat="44.73368" lon="2.55774">
        <ele>357.3</ele>
        <time>2021-08-19T09:27:21Z</time>
      </trkpt>
      <trkpt lat="44.73366" lon="2.55769">
        <ele>357.7</ele>
        <time>2021-08-19T09:27:23Z</time>
      </trkpt>
      <trkpt lat="44.73362" lon="2.55766">
        <ele>357.9</ele>
        <time>2021-08-19T09:27:25Z</time>
      </trkpt>
      <trkpt lat="44.73359" lon="2.55761">
        <ele>358.2</ele>
        <time>2021-08-19T09:27:27Z</time>
      </trkpt>
      <trkpt lat="44.73357" lon="2.55756">
        <ele>358.8</ele>
        <time>2021-08-19T09:27:29Z</time>
      </trkpt>
      <trkpt lat="44.73353" lon="2.55752">
        <ele>359</ele>
        <time>2021-08-19T09:27:31Z</time>
      </trkpt>
      <trkpt lat="44.73351" lon="2.55748">
        <ele>358.8</ele>
        <time>2021-08-19T09:27:33Z</time>
      </trkpt>
      <trkpt lat="44.73348" lon="2.55745">
        <ele>358</ele>
        <time>2021-08-19T09:27:35Z</time>
      </trkpt>
      <trkpt lat="44.73345" lon="2.5574">
        <ele>357.2</ele>
        <time>2021-08-19T09:27:37Z</time>
      </trkpt>
      <trkpt lat="44.73342" lon="2.55735">
        <ele>356.5</ele>
        <time>2021-08-19T09:27:39Z</time>
      </trkpt>
      <trkpt lat="44.7334" lon="2.55731">
        <ele>356</ele>
        <time>2021-08-19T09:27:41Z</time>
      </trkpt>
      <trkpt lat="44.73337" lon="2.55726">
        <ele>355.3</ele>
        <time>2021-08-19T09:27:43Z</time>
      </trkpt>
      <trkpt lat="44.73334" lon="2.55722">
        <ele>354.7</ele>
        <time>2021-08-19T09:27:45Z</time>
      </trkpt>
      <trkpt lat="44.73331" lon="2.55718">
        <ele>354.3</ele>
        <time>2021-08-19T09:27:47Z</time>
      </trkpt>
      <trkpt lat="44.73329" lon="2.55715">
        <ele>353.9</ele>
        <time>2021-08-19T09:27:49Z</time>
      </trkpt>
      <trkpt lat="44.73327" lon="2.5571">
        <ele>353.7</ele>
        <time>2021-08-19T09:27:51Z</time>
      </trkpt>
      <trkpt lat="44.73324" lon="2.55707">
        <ele>353.4</ele>
        <time>2021-08-19T09:27:53Z</time>
      </trkpt>
      <trkpt lat="44.73322" lon="2.55703">
        <ele>353.2</ele>
        <time>2021-08-19T09:27:55Z</time>
      </trkpt>
      <trkpt lat="44.73321" lon="2.55699">
        <ele>353.1</ele>
        <time>2021-08-19T09:27:57Z</time>
      </trkpt>
      <trkpt lat="44.73321" lon="2.55693">
        <ele>353</ele>
        <time>2021-08-19T09:27:59Z</time>
      </trkpt>
      <trkpt lat="44.73326" lon="2.55692">
        <ele>353</ele>
        <time>2021-08-19T09:28:01Z</time>
      </trkpt>
      <trkpt lat="44.7333" lon="2.55691">
        <ele>353.1</ele>
        <time>2021-08-19T09:28:03Z</time>
      </trkpt>
      <trkpt lat="44.73333" lon="2.55693">
        <ele>353.2</ele>
        <time>2021-08-19T09:28:05Z</time>
      </trkpt>
      <trkpt lat="44.73336" lon="2.55694">
        <ele>353.4</ele>
        <time>2021-08-19T09:28:07Z</time>
      </trkpt>
      <trkpt lat="44.73339" lon="2.55696">
        <ele>353.7</ele>
        <time>2021-08-19T09:28:09Z</time>
      </trkpt>
      <trkpt lat="44.7334" lon="2.55698">
        <ele>353.9</ele>
        <time>2021-08-19T09:28:11Z</time>
      </trkpt>
      <trkpt lat="44.73343" lon="2.55699">
        <ele>354.2</ele>
        <time>2021-08-19T09:28:13Z</time>
      </trkpt>
      <trkpt lat="44.73346" lon="2.55701">
        <ele>354.5</ele>
        <time>2021-08-19T09:28:15Z</time>
      </trkpt>
      <trkpt lat="44.73349" lon="2.55703">
        <ele>354.8</ele>
        <time>2021-08-19T09:28:17Z</time>
      </trkpt>
      <trkpt lat="44.73351" lon="2.55705">
        <ele>355.2</ele>
        <time>2021-08-19T09:28:19Z</time>
      </trkpt>
      <trkpt lat="44.73354" lon="2.55708">
        <ele>355.7</ele>
        <time>2021-08-19T09:28:21Z</time>
      </trkpt>
      <trkpt lat="44.73357" lon="2.5571">
        <ele>356.2</ele>
        <time>2021-08-19T09:28:23Z</time>
      </trkpt>
      <trkpt lat="44.7336" lon="2.55713">
        <ele>356.7</ele>
        <time>2021-08-19T09:28:25Z</time>
      </trkpt>
      <trkpt lat="44.73362" lon="2.55716">
        <ele>357.2</ele>
        <time>2021-08-19T09:28:27Z</time>
      </trkpt>
      <trkpt lat="44.73365" lon="2.55718">
        <ele>357.8</ele>
        <time>2021-08-19T09:28:29Z</time>
      </trkpt>
      <trkpt lat="44.73368" lon="2.55721">
        <ele>358.4</ele>
        <time>2021-08-19T09:28:31Z</time>
      </trkpt>
      <trkpt lat="44.7337" lon="2.55724">
        <ele>359.1</ele>
        <time>2021-08-19T09:28:33Z</time>
      </trkpt>
      <trkpt lat="44.73373" lon="2.55725">
        <ele>359.5</ele>
        <time>2021-08-19T09:28:35Z</time>
      </trkpt>
      <trkpt lat="44.73376" lon="2.55727">
        <ele>360.1</ele>
        <time>2021-08-19T09:28:37Z</time>
      </trkpt>
      <trkpt lat="44.73378" lon="2.5573">
        <ele>360.7</ele>
        <time>2021-08-19T09:28:39Z</time>
      </trkpt>
      <trkpt lat="44.73381" lon="2.55732">
        <ele>361.4</ele>
        <time>2021-08-19T09:28:41Z</time>
      </trkpt>
      <trkpt lat="44.73385" lon="2.55733">
        <ele>362.1</ele>
        <time>2021-08-19T09:28:43Z</time>
      </trkpt>
      <trkpt lat="44.73387" lon="2.55735">
        <ele>362.8</ele>
        <time>2021-08-19T09:28:45Z</time>
      </trkpt>
      <trkpt lat="44.73391" lon="2.55738">
        <ele>363.6</ele>
        <time>2021-08-19T09:28:47Z</time>
      </trkpt>
      <trkpt lat="44.73393" lon="2.5574">
        <ele>364.3</ele>
        <time>2021-08-19T09:28:49Z</time>
      </trkpt>
      <trkpt lat="44.73396" lon="2.55742">
        <ele>365</ele>
        <time>2021-08-19T09:28:51Z</time>
      </trkpt>
      <trkpt lat="44.73399" lon="2.55743">
        <ele>365.7</ele>
        <time>2021-08-19T09:28:53Z</time>
      </trkpt>
      <trkpt lat="44.73402" lon="2.55743">
        <ele>366.2</ele>
        <time>2021-08-19T09:28:55Z</time>
      </trkpt>
      <trkpt lat="44.73404" lon="2.55746">
        <ele>367.1</ele>
        <time>2021-08-19T09:28:57Z</time>
      </trkpt>
      <trkpt lat="44.73407" lon="2.55748">
        <ele>368</ele>
        <time>2021-08-19T09:28:59Z</time>
      </trkpt>
      <trkpt lat="44.7341" lon="2.5575">
        <ele>368.8</ele>
        <time>2021-08-19T09:29:01Z</time>
      </trkpt>
      <trkpt lat="44.73413" lon="2.55751">
        <ele>369</ele>
        <time>2021-08-19T09:29:03Z</time>
      </trkpt>
      <trkpt lat="44.73415" lon="2.55752">
        <ele>369.3</ele>
        <time>2021-08-19T09:29:05Z</time>
      </trkpt>
      <trkpt lat="44.73418" lon="2.55753">
        <ele>369.9</ele>
        <time>2021-08-19T09:29:07Z</time>
      </trkpt>
      <trkpt lat="44.73421" lon="2.55756">
        <ele>369.9</ele>
        <time>2021-08-19T09:29:09Z</time>
      </trkpt>
      <trkpt lat="44.73423" lon="2.55757">
        <ele>370.4</ele>
        <time>2021-08-19T09:29:11Z</time>
      </trkpt>
      <trkpt lat="44.73426" lon="2.55759">
        <ele>371</ele>
        <time>2021-08-19T09:29:13Z</time>
      </trkpt>
      <trkpt lat="44.73429" lon="2.55761">
        <ele>371.6</ele>
        <time>2021-08-19T09:29:15Z</time>
      </trkpt>
      <trkpt lat="44.73432" lon="2.55762">
        <ele>372.4</ele>
        <time>2021-08-19T09:29:17Z</time>
      </trkpt>
      <trkpt lat="44.73434" lon="2.55764">
        <ele>372.7</ele>
        <time>2021-08-19T09:29:19Z</time>
      </trkpt>
      <trkpt lat="44.73437" lon="2.55765">
        <ele>373.5</ele>
        <time>2021-08-19T09:29:21Z</time>
      </trkpt>
      <trkpt lat="44.7344" lon="2.55766">
        <ele>374</ele>
        <time>2021-08-19T09:29:23Z</time>
      </trkpt>
      <trkpt lat="44.73442" lon="2.55768">
        <ele>374.5</ele>
        <time>2021-08-19T09:29:25Z</time>
      </trkpt>
      <trkpt lat="44.73445" lon="2.55769">
        <ele>375.2</ele>
        <time>2021-08-19T09:29:27Z</time>
      </trkpt>
      <trkpt lat="44.73449" lon="2.55771">
        <ele>376.1</ele>
        <time>2021-08-19T09:29:29Z</time>
      </trkpt>
      <trkpt lat="44.73451" lon="2.55772">
        <ele>376.6</ele>
        <time>2021-08-19T09:29:31Z</time>
      </trkpt>
      <trkpt lat="44.73454" lon="2.55774">
        <ele>377.3</ele>
        <time>2021-08-19T09:29:33Z</time>
      </trkpt>
      <trkpt lat="44.73457" lon="2.55775">
        <ele>378.1</ele>
        <time>2021-08-19T09:29:35Z</time>
      </trkpt>
      <trkpt lat="44.7346" lon="2.55776">
        <ele>379</ele>
        <time>2021-08-19T09:29:37Z</time>
      </trkpt>
      <trkpt lat="44.73464" lon="2.55778">
        <ele>379.7</ele>
        <time>2021-08-19T09:29:39Z</time>
      </trkpt>
      <trkpt lat="44.73466" lon="2.55779">
        <ele>380.3</ele>
        <time>2021-08-19T09:29:41Z</time>
      </trkpt>
      <trkpt lat="44.73469" lon="2.55781">
        <ele>381</ele>
        <time>2021-08-19T09:29:43Z</time>
      </trkpt>
      <trkpt lat="44.73472" lon="2.55782">
        <ele>381.9</ele>
        <time>2021-08-19T09:29:45Z</time>
      </trkpt>
      <trkpt lat="44.73475" lon="2.55784">
        <ele>382.3</ele>
        <time>2021-08-19T09:29:47Z</time>
      </trkpt>
      <trkpt lat="44.73478" lon="2.55785">
        <ele>383.1</ele>
        <time>2021-08-19T09:29:49Z</time>
      </trkpt>
      <trkpt lat="44.73481" lon="2.55787">
        <ele>383.7</ele>
        <time>2021-08-19T09:29:51Z</time>
      </trkpt>
      <trkpt lat="44.73483" lon="2.55789">
        <ele>384.2</ele>
        <time>2021-08-19T09:29:53Z</time>
      </trkpt>
      <trkpt lat="44.73486" lon="2.5579">
        <ele>384.9</ele>
        <time>2021-08-19T09:29:55Z</time>
      </trkpt>
      <trkpt lat="44.73489" lon="2.55791">
        <ele>385.7</ele>
        <time>2021-08-19T09:29:57Z</time>
      </trkpt>
      <trkpt lat="44.73492" lon="2.55793">
        <ele>386.2</ele>
        <time>2021-08-19T09:29:59Z</time>
      </trkpt>
      <trkpt lat="44.73495" lon="2.55795">
        <ele>387</ele>
        <time>2021-08-19T09:30:01Z</time>
      </trkpt>
      <trkpt lat="44.73498" lon="2.55797">
        <ele>387.5</ele>
        <time>2021-08-19T09:30:03Z</time>
      </trkpt>
      <trkpt lat="44.73501" lon="2.55799">
        <ele>388.2</ele>
        <time>2021-08-19T09:30:05Z</time>
      </trkpt>
      <trkpt lat="44.73504" lon="2.558">
        <ele>389</ele>
        <time>2021-08-19T09:30:07Z</time>
      </trkpt>
      <trkpt lat="44.73505" lon="2.55803">
        <ele>389.3</ele>
        <time>2021-08-19T09:30:09Z</time>
      </trkpt>
      <trkpt lat="44.73508" lon="2.55805">
        <ele>389.9</ele>
        <time>2021-08-19T09:30:11Z</time>
      </trkpt>
      <trkpt lat="44.73511" lon="2.55808">
        <ele>390.6</ele>
        <time>2021-08-19T09:30:13Z</time>
      </trkpt>
      <trkpt lat="44.73513" lon="2.5581">
        <ele>390.9</ele>
        <time>2021-08-19T09:30:15Z</time>
      </trkpt>
      <trkpt lat="44.73516" lon="2.55812">
        <ele>391.7</ele>
        <time>2021-08-19T09:30:17Z</time>
      </trkpt>
      <trkpt lat="44.73519" lon="2.55814">
        <ele>392.2</ele>
        <time>2021-08-19T09:30:19Z</time>
      </trkpt>
      <trkpt lat="44.73522" lon="2.55816">
        <ele>393.2</ele>
        <time>2021-08-19T09:30:21Z</time>
      </trkpt>
      <trkpt lat="44.73525" lon="2.55817">
        <ele>394</ele>
        <time>2021-08-19T09:30:23Z</time>
      </trkpt>
      <trkpt lat="44.73527" lon="2.55819">
        <ele>394.6</ele>
        <time>2021-08-19T09:30:25Z</time>
      </trkpt>
      <trkpt lat="44.7353" lon="2.55822">
        <ele>394.8</ele>
        <time>2021-08-19T09:30:27Z</time>
      </trkpt>
      <trkpt lat="44.73532" lon="2.55824">
        <ele>395.4</ele>
        <time>2021-08-19T09:30:29Z</time>
      </trkpt>
      <trkpt lat="44.73536" lon="2.55826">
        <ele>396.4</ele>
        <time>2021-08-19T09:30:31Z</time>
      </trkpt>
      <trkpt lat="44.73538" lon="2.55828">
        <ele>396.8</ele>
        <time>2021-08-19T09:30:33Z</time>
      </trkpt>
      <trkpt lat="44.7354" lon="2.55829">
        <ele>397.5</ele>
        <time>2021-08-19T09:30:35Z</time>
      </trkpt>
      <trkpt lat="44.73543" lon="2.55831">
        <ele>398.1</ele>
        <time>2021-08-19T09:30:37Z</time>
      </trkpt>
      <trkpt lat="44.73546" lon="2.55833">
        <ele>398.7</ele>
        <time>2021-08-19T09:30:39Z</time>
      </trkpt>
      <trkpt lat="44.73549" lon="2.55834">
        <ele>399.4</ele>
        <time>2021-08-19T09:30:41Z</time>
      </trkpt>
      <trkpt lat="44.73551" lon="2.55836">
        <ele>399.9</ele>
        <time>2021-08-19T09:30:43Z</time>
      </trkpt>
      <trkpt lat="44.73554" lon="2.55837">
        <ele>400.5</ele>
        <time>2021-08-19T09:30:45Z</time>
      </trkpt>
      <trkpt lat="44.73557" lon="2.5584">
        <ele>400.8</ele>
        <time>2021-08-19T09:30:47Z</time>
      </trkpt>
      <trkpt lat="44.73559" lon="2.55841">
        <ele>401.5</ele>
        <time>2021-08-19T09:30:49Z</time>
      </trkpt>
      <trkpt lat="44.73562" lon="2.55843">
        <ele>401.8</ele>
        <time>2021-08-19T09:30:51Z</time>
      </trkpt>
      <trkpt lat="44.73564" lon="2.55845">
        <ele>402.1</ele>
        <time>2021-08-19T09:30:53Z</time>
      </trkpt>
      <trkpt lat="44.73567" lon="2.55847">
        <ele>402.5</ele>
        <time>2021-08-19T09:30:55Z</time>
      </trkpt>
      <trkpt lat="44.7357" lon="2.55849">
        <ele>402.9</ele>
        <time>2021-08-19T09:30:57Z</time>
      </trkpt>
      <trkpt lat="44.73572" lon="2.55851">
        <ele>403</ele>
        <time>2021-08-19T09:30:59Z</time>
      </trkpt>
      <trkpt lat="44.73575" lon="2.55853">
        <ele>403.7</ele>
        <time>2021-08-19T09:31:01Z</time>
      </trkpt>
      <trkpt lat="44.73577" lon="2.55855">
        <ele>404</ele>
        <time>2021-08-19T09:31:03Z</time>
      </trkpt>
      <trkpt lat="44.73579" lon="2.55858">
        <ele>404.1</ele>
        <time>2021-08-19T09:31:05Z</time>
      </trkpt>
      <trkpt lat="44.73582" lon="2.5586">
        <ele>404.7</ele>
        <time>2021-08-19T09:31:07Z</time>
      </trkpt>
      <trkpt lat="44.73585" lon="2.55863">
        <ele>404.7</ele>
        <time>2021-08-19T09:31:09Z</time>
      </trkpt>
      <trkpt lat="44.73587" lon="2.55866">
        <ele>404.8</ele>
        <time>2021-08-19T09:31:11Z</time>
      </trkpt>
      <trkpt lat="44.73589" lon="2.55868">
        <ele>405.2</ele>
        <time>2021-08-19T09:31:13Z</time>
      </trkpt>
      <trkpt lat="44.73592" lon="2.55871">
        <ele>405.2</ele>
        <time>2021-08-19T09:31:15Z</time>
      </trkpt>
      <trkpt lat="44.73594" lon="2.55875">
        <ele>405.2</ele>
        <time>2021-08-19T09:31:17Z</time>
      </trkpt>
      <trkpt lat="44.73597" lon="2.55879">
        <ele>405.3</ele>
        <time>2021-08-19T09:31:19Z</time>
      </trkpt>
      <trkpt lat="44.736" lon="2.55882">
        <ele>405.3</ele>
        <time>2021-08-19T09:31:21Z</time>
      </trkpt>
      <trkpt lat="44.73601" lon="2.55885">
        <ele>405.1</ele>
        <time>2021-08-19T09:31:23Z</time>
      </trkpt>
      <trkpt lat="44.73603" lon="2.55888">
        <ele>405.1</ele>
        <time>2021-08-19T09:31:25Z</time>
      </trkpt>
      <trkpt lat="44.73606" lon="2.55891">
        <ele>405.2</ele>
        <time>2021-08-19T09:31:27Z</time>
      </trkpt>
      <trkpt lat="44.73608" lon="2.55894">
        <ele>405.2</ele>
        <time>2021-08-19T09:31:29Z</time>
      </trkpt>
      <trkpt lat="44.7361" lon="2.55896">
        <ele>405.4</ele>
        <time>2021-08-19T09:31:31Z</time>
      </trkpt>
      <trkpt lat="44.73612" lon="2.55899">
        <ele>405.6</ele>
        <time>2021-08-19T09:31:33Z</time>
      </trkpt>
      <trkpt lat="44.73615" lon="2.55902">
        <ele>405.7</ele>
        <time>2021-08-19T09:31:35Z</time>
      </trkpt>
      <trkpt lat="44.73617" lon="2.55904">
        <ele>406.2</ele>
        <time>2021-08-19T09:31:37Z</time>
      </trkpt>
      <trkpt lat="44.7362" lon="2.55906">
        <ele>406.7</ele>
        <time>2021-08-19T09:31:39Z</time>
      </trkpt>
      <trkpt lat="44.73622" lon="2.55908">
        <ele>407.1</ele>
        <time>2021-08-19T09:31:41Z</time>
      </trkpt>
      <trkpt lat="44.73625" lon="2.55911">
        <ele>407.7</ele>
        <time>2021-08-19T09:31:43Z</time>
      </trkpt>
      <trkpt lat="44.73628" lon="2.55913">
        <ele>408.5</ele>
        <time>2021-08-19T09:31:45Z</time>
      </trkpt>
      <trkpt lat="44.73631" lon="2.55915">
        <ele>408.9</ele>
        <time>2021-08-19T09:31:47Z</time>
      </trkpt>
      <trkpt lat="44.73634" lon="2.55916">
        <ele>410</ele>
        <time>2021-08-19T09:31:49Z</time>
      </trkpt>
      <trkpt lat="44.73637" lon="2.55918">
        <ele>410.4</ele>
        <time>2021-08-19T09:31:51Z</time>
      </trkpt>
      <trkpt lat="44.73639" lon="2.55921">
        <ele>410.2</ele>
        <time>2021-08-19T09:31:53Z</time>
      </trkpt>
      <trkpt lat="44.73641" lon="2.55924">
        <ele>410.4</ele>
        <time>2021-08-19T09:31:55Z</time>
      </trkpt>
      <trkpt lat="44.73643" lon="2.55927">
        <ele>410.5</ele>
        <time>2021-08-19T09:31:57Z</time>
      </trkpt>
      <trkpt lat="44.73645" lon="2.55929">
        <ele>410.6</ele>
        <time>2021-08-19T09:31:59Z</time>
      </trkpt>
      <trkpt lat="44.73648" lon="2.55931">
        <ele>411.3</ele>
        <time>2021-08-19T09:32:01Z</time>
      </trkpt>
      <trkpt lat="44.7365" lon="2.55933">
        <ele>411.8</ele>
        <time>2021-08-19T09:32:03Z</time>
      </trkpt>
      <trkpt lat="44.73653" lon="2.55935">
        <ele>412.1</ele>
        <time>2021-08-19T09:32:05Z</time>
      </trkpt>
      <trkpt lat="44.73655" lon="2.55937">
        <ele>412.5</ele>
        <time>2021-08-19T09:32:07Z</time>
      </trkpt>
      <trkpt lat="44.73658" lon="2.55939">
        <ele>413.1</ele>
        <time>2021-08-19T09:32:09Z</time>
      </trkpt>
      <trkpt lat="44.73661" lon="2.55941">
        <ele>414.1</ele>
        <time>2021-08-19T09:32:11Z</time>
      </trkpt>
      <trkpt lat="44.73663" lon="2.55943">
        <ele>414.2</ele>
        <time>2021-08-19T09:32:13Z</time>
      </trkpt>
      <trkpt lat="44.73665" lon="2.55945">
        <ele>414.7</ele>
        <time>2021-08-19T09:32:15Z</time>
      </trkpt>
      <trkpt lat="44.73667" lon="2.55948">
        <ele>414.9</ele>
        <time>2021-08-19T09:32:17Z</time>
      </trkpt>
      <trkpt lat="44.7367" lon="2.5595">
        <ele>415.5</ele>
        <time>2021-08-19T09:32:19Z</time>
      </trkpt>
      <trkpt lat="44.73672" lon="2.55952">
        <ele>415.5</ele>
        <time>2021-08-19T09:32:21Z</time>
      </trkpt>
      <trkpt lat="44.73674" lon="2.55953">
        <ele>416.5</ele>
        <time>2021-08-19T09:32:23Z</time>
      </trkpt>
      <trkpt lat="44.73677" lon="2.55953">
        <ele>418</ele>
        <time>2021-08-19T09:32:25Z</time>
      </trkpt>
      <trkpt lat="44.73679" lon="2.55954">
        <ele>418.6</ele>
        <time>2021-08-19T09:32:27Z</time>
      </trkpt>
      <trkpt lat="44.7368" lon="2.55953">
        <ele>419.3</ele>
        <time>2021-08-19T09:32:29Z</time>
      </trkpt>
      <trkpt lat="44.73679" lon="2.55952">
        <ele>419.1</ele>
        <time>2021-08-19T09:32:31Z</time>
      </trkpt>
      <trkpt lat="44.73679" lon="2.55952">
        <ele>418.9</ele>
        <time>2021-08-19T09:32:33Z</time>
      </trkpt>
      <trkpt lat="44.73679" lon="2.55952">
        <ele>419.2</ele>
        <time>2021-08-19T09:32:35Z</time>
      </trkpt>
      <trkpt lat="44.73675" lon="2.55936">
        <ele>422.5</ele>
        <time>2021-08-19T09:38:35Z</time>
      </trkpt>
      <trkpt lat="44.73672" lon="2.55934">
        <ele>421.6</ele>
        <time>2021-08-19T09:38:37Z</time>
      </trkpt>
      <trkpt lat="44.73669" lon="2.55933">
        <ele>420.7</ele>
        <time>2021-08-19T09:38:39Z</time>
      </trkpt>
      <trkpt lat="44.73666" lon="2.55932">
        <ele>419.8</ele>
        <time>2021-08-19T09:38:41Z</time>
      </trkpt>
      <trkpt lat="44.73664" lon="2.55929">
        <ele>419.3</ele>
        <time>2021-08-19T09:38:43Z</time>
      </trkpt>
      <trkpt lat="44.73661" lon="2.55926">
        <ele>419</ele>
        <time>2021-08-19T09:38:45Z</time>
      </trkpt>
      <trkpt lat="44.73658" lon="2.55925">
        <ele>418.3</ele>
        <time>2021-08-19T09:38:47Z</time>
      </trkpt>
      <trkpt lat="44.73655" lon="2.55922">
        <ele>417.7</ele>
        <time>2021-08-19T09:38:49Z</time>
      </trkpt>
      <trkpt lat="44.73652" lon="2.55919">
        <ele>417.5</ele>
        <time>2021-08-19T09:38:51Z</time>
      </trkpt>
      <trkpt lat="44.73649" lon="2.55917">
        <ele>416.8</ele>
        <time>2021-08-19T09:38:53Z</time>
      </trkpt>
      <trkpt lat="44.73646" lon="2.55915">
        <ele>416.1</ele>
        <time>2021-08-19T09:38:55Z</time>
      </trkpt>
      <trkpt lat="44.73644" lon="2.55911">
        <ele>416.6</ele>
        <time>2021-08-19T09:38:57Z</time>
      </trkpt>
      <trkpt lat="44.73641" lon="2.55908">
        <ele>416.1</ele>
        <time>2021-08-19T09:38:59Z</time>
      </trkpt>
      <trkpt lat="44.73639" lon="2.55905">
        <ele>415.9</ele>
        <time>2021-08-19T09:39:01Z</time>
      </trkpt>
      <trkpt lat="44.73637" lon="2.55901">
        <ele>416.4</ele>
        <time>2021-08-19T09:39:03Z</time>
      </trkpt>
      <trkpt lat="44.73634" lon="2.55898">
        <ele>416</ele>
        <time>2021-08-19T09:39:05Z</time>
      </trkpt>
      <trkpt lat="44.73632" lon="2.55894">
        <ele>416.4</ele>
        <time>2021-08-19T09:39:07Z</time>
      </trkpt>
      <trkpt lat="44.7363" lon="2.55891">
        <ele>416.6</ele>
        <time>2021-08-19T09:39:09Z</time>
      </trkpt>
      <trkpt lat="44.73628" lon="2.55887">
        <ele>416.7</ele>
        <time>2021-08-19T09:39:11Z</time>
      </trkpt>
      <trkpt lat="44.73625" lon="2.55884">
        <ele>416.5</ele>
        <time>2021-08-19T09:39:13Z</time>
      </trkpt>
      <trkpt lat="44.73622" lon="2.5588">
        <ele>416.6</ele>
        <time>2021-08-19T09:39:15Z</time>
      </trkpt>
      <trkpt lat="44.7362" lon="2.55876">
        <ele>416.8</ele>
        <time>2021-08-19T09:39:17Z</time>
      </trkpt>
      <trkpt lat="44.73618" lon="2.55872">
        <ele>417.5</ele>
        <time>2021-08-19T09:39:19Z</time>
      </trkpt>
      <trkpt lat="44.73616" lon="2.55869">
        <ele>417.6</ele>
        <time>2021-08-19T09:39:21Z</time>
      </trkpt>
      <trkpt lat="44.73614" lon="2.55866">
        <ele>417.5</ele>
        <time>2021-08-19T09:39:23Z</time>
      </trkpt>
      <trkpt lat="44.73612" lon="2.55864">
        <ele>417.6</ele>
        <time>2021-08-19T09:39:25Z</time>
      </trkpt>
      <trkpt lat="44.7361" lon="2.5586">
        <ele>417.5</ele>
        <time>2021-08-19T09:39:27Z</time>
      </trkpt>
      <trkpt lat="44.73608" lon="2.55858">
        <ele>417.2</ele>
        <time>2021-08-19T09:39:29Z</time>
      </trkpt>
      <trkpt lat="44.73605" lon="2.55855">
        <ele>417.2</ele>
        <time>2021-08-19T09:39:31Z</time>
      </trkpt>
      <trkpt lat="44.73603" lon="2.55851">
        <ele>417.7</ele>
        <time>2021-08-19T09:39:33Z</time>
      </trkpt>
      <trkpt lat="44.73601" lon="2.55848">
        <ele>417.7</ele>
        <time>2021-08-19T09:39:35Z</time>
      </trkpt>
      <trkpt lat="44.73599" lon="2.55844">
        <ele>418</ele>
        <time>2021-08-19T09:39:37Z</time>
      </trkpt>
      <trkpt lat="44.73597" lon="2.55841">
        <ele>417.8</ele>
        <time>2021-08-19T09:39:39Z</time>
      </trkpt>
      <trkpt lat="44.73595" lon="2.55837">
        <ele>418.3</ele>
        <time>2021-08-19T09:39:41Z</time>
      </trkpt>
      <trkpt lat="44.73592" lon="2.55833">
        <ele>418.4</ele>
        <time>2021-08-19T09:39:43Z</time>
      </trkpt>
      <trkpt lat="44.73591" lon="2.5583">
        <ele>418.3</ele>
        <time>2021-08-19T09:39:45Z</time>
      </trkpt>
      <trkpt lat="44.73588" lon="2.55827">
        <ele>418</ele>
        <time>2021-08-19T09:39:47Z</time>
      </trkpt>
      <trkpt lat="44.73586" lon="2.55824">
        <ele>417.7</ele>
        <time>2021-08-19T09:39:49Z</time>
      </trkpt>
      <trkpt lat="44.73584" lon="2.55821">
        <ele>417.6</ele>
        <time>2021-08-19T09:39:51Z</time>
      </trkpt>
      <trkpt lat="44.73581" lon="2.55817">
        <ele>417.4</ele>
        <time>2021-08-19T09:39:53Z</time>
      </trkpt>
      <trkpt lat="44.7358" lon="2.55814">
        <ele>417.6</ele>
        <time>2021-08-19T09:39:55Z</time>
      </trkpt>
      <trkpt lat="44.73577" lon="2.55812">
        <ele>416.9</ele>
        <time>2021-08-19T09:39:57Z</time>
      </trkpt>
      <trkpt lat="44.73574" lon="2.55809">
        <ele>416.4</ele>
        <time>2021-08-19T09:39:59Z</time>
      </trkpt>
      <trkpt lat="44.73572" lon="2.55806">
        <ele>416.4</ele>
        <time>2021-08-19T09:40:01Z</time>
      </trkpt>
      <trkpt lat="44.73569" lon="2.55804">
        <ele>415.7</ele>
        <time>2021-08-19T09:40:03Z</time>
      </trkpt>
      <trkpt lat="44.73566" lon="2.55801">
        <ele>415</ele>
        <time>2021-08-19T09:40:05Z</time>
      </trkpt>
      <trkpt lat="44.73564" lon="2.55797">
        <ele>415.6</ele>
        <time>2021-08-19T09:40:07Z</time>
      </trkpt>
      <trkpt lat="44.73562" lon="2.55794">
        <ele>415.3</ele>
        <time>2021-08-19T09:40:09Z</time>
      </trkpt>
      <trkpt lat="44.73559" lon="2.55791">
        <ele>414.8</ele>
        <time>2021-08-19T09:40:11Z</time>
      </trkpt>
      <trkpt lat="44.73557" lon="2.55788">
        <ele>414.8</ele>
        <time>2021-08-19T09:40:13Z</time>
      </trkpt>
      <trkpt lat="44.73556" lon="2.55784">
        <ele>415.2</ele>
        <time>2021-08-19T09:40:15Z</time>
      </trkpt>
      <trkpt lat="44.73554" lon="2.55781">
        <ele>415.4</ele>
        <time>2021-08-19T09:40:17Z</time>
      </trkpt>
      <trkpt lat="44.73553" lon="2.55777">
        <ele>415.6</ele>
        <time>2021-08-19T09:40:19Z</time>
      </trkpt>
      <trkpt lat="44.73551" lon="2.55774">
        <ele>415.5</ele>
        <time>2021-08-19T09:40:21Z</time>
      </trkpt>
      <trkpt lat="44.73549" lon="2.55771">
        <ele>415.4</ele>
        <time>2021-08-19T09:40:23Z</time>
      </trkpt>
      <trkpt lat="44.73547" lon="2.55767">
        <ele>415.6</ele>
        <time>2021-08-19T09:40:25Z</time>
      </trkpt>
      <trkpt lat="44.73545" lon="2.55762">
        <ele>416.2</ele>
        <time>2021-08-19T09:40:27Z</time>
      </trkpt>
      <trkpt lat="44.73544" lon="2.55757">
        <ele>416.8</ele>
        <time>2021-08-19T09:40:29Z</time>
      </trkpt>
      <trkpt lat="44.73544" lon="2.55753">
        <ele>417.7</ele>
        <time>2021-08-19T09:40:31Z</time>
      </trkpt>
      <trkpt lat="44.73543" lon="2.55748">
        <ele>417.8</ele>
        <time>2021-08-19T09:40:33Z</time>
      </trkpt>
      <trkpt lat="44.73544" lon="2.55744">
        <ele>416.9</ele>
        <time>2021-08-19T09:40:35Z</time>
      </trkpt>
      <trkpt lat="44.73547" lon="2.5574">
        <ele>417.4</ele>
        <time>2021-08-19T09:40:37Z</time>
      </trkpt>
      <trkpt lat="44.73549" lon="2.55738">
        <ele>418</ele>
        <time>2021-08-19T09:40:39Z</time>
      </trkpt>
      <trkpt lat="44.73552" lon="2.55735">
        <ele>418.4</ele>
        <time>2021-08-19T09:40:41Z</time>
      </trkpt>
      <trkpt lat="44.73555" lon="2.55732">
        <ele>419.1</ele>
        <time>2021-08-19T09:40:43Z</time>
      </trkpt>
      <trkpt lat="44.73558" lon="2.5573">
        <ele>419.8</ele>
        <time>2021-08-19T09:40:45Z</time>
      </trkpt>
      <trkpt lat="44.73561" lon="2.55727">
        <ele>420.6</ele>
        <time>2021-08-19T09:40:47Z</time>
      </trkpt>
      <trkpt lat="44.73564" lon="2.55724">
        <ele>421.1</ele>
        <time>2021-08-19T09:40:49Z</time>
      </trkpt>
      <trkpt lat="44.73566" lon="2.55722">
        <ele>421.8</ele>
        <time>2021-08-19T09:40:51Z</time>
      </trkpt>
      <trkpt lat="44.73569" lon="2.55719">
        <ele>422.2</ele>
        <time>2021-08-19T09:40:53Z</time>
      </trkpt>
      <trkpt lat="44.73572" lon="2.55717">
        <ele>422.9</ele>
        <time>2021-08-19T09:40:55Z</time>
      </trkpt>
      <trkpt lat="44.73575" lon="2.55715">
        <ele>423.6</ele>
        <time>2021-08-19T09:40:57Z</time>
      </trkpt>
      <trkpt lat="44.73577" lon="2.55712">
        <ele>424.2</ele>
        <time>2021-08-19T09:40:59Z</time>
      </trkpt>
      <trkpt lat="44.7358" lon="2.55711">
        <ele>425.2</ele>
        <time>2021-08-19T09:41:01Z</time>
      </trkpt>
      <trkpt lat="44.73583" lon="2.55708">
        <ele>425.8</ele>
        <time>2021-08-19T09:41:03Z</time>
      </trkpt>
      <trkpt lat="44.73586" lon="2.55706">
        <ele>426.5</ele>
        <time>2021-08-19T09:41:05Z</time>
      </trkpt>
      <trkpt lat="44.73589" lon="2.55703">
        <ele>426.8</ele>
        <time>2021-08-19T09:41:07Z</time>
      </trkpt>
      <trkpt lat="44.73591" lon="2.55701">
        <ele>427.1</ele>
        <time>2021-08-19T09:41:09Z</time>
      </trkpt>
      <trkpt lat="44.73593" lon="2.55698">
        <ele>427.5</ele>
        <time>2021-08-19T09:41:11Z</time>
      </trkpt>
      <trkpt lat="44.73596" lon="2.55697">
        <ele>428.2</ele>
        <time>2021-08-19T09:41:13Z</time>
      </trkpt>
      <trkpt lat="44.73599" lon="2.55695">
        <ele>428.8</ele>
        <time>2021-08-19T09:41:15Z</time>
      </trkpt>
      <trkpt lat="44.73602" lon="2.55693">
        <ele>429.4</ele>
        <time>2021-08-19T09:41:17Z</time>
      </trkpt>
      <trkpt lat="44.73605" lon="2.5569">
        <ele>429.8</ele>
        <time>2021-08-19T09:41:19Z</time>
      </trkpt>
      <trkpt lat="44.73608" lon="2.55687">
        <ele>430.4</ele>
        <time>2021-08-19T09:41:21Z</time>
      </trkpt>
      <trkpt lat="44.73612" lon="2.55684">
        <ele>430.9</ele>
        <time>2021-08-19T09:41:23Z</time>
      </trkpt>
      <trkpt lat="44.73614" lon="2.55682">
        <ele>431.3</ele>
        <time>2021-08-19T09:41:25Z</time>
      </trkpt>
      <trkpt lat="44.73617" lon="2.5568">
        <ele>432.1</ele>
        <time>2021-08-19T09:41:27Z</time>
      </trkpt>
      <trkpt lat="44.7362" lon="2.55678">
        <ele>432.3</ele>
        <time>2021-08-19T09:41:29Z</time>
      </trkpt>
      <trkpt lat="44.73622" lon="2.55675">
        <ele>432.6</ele>
        <time>2021-08-19T09:41:31Z</time>
      </trkpt>
      <trkpt lat="44.73625" lon="2.55672">
        <ele>432.9</ele>
        <time>2021-08-19T09:41:33Z</time>
      </trkpt>
      <trkpt lat="44.73627" lon="2.5567">
        <ele>433.1</ele>
        <time>2021-08-19T09:41:35Z</time>
      </trkpt>
      <trkpt lat="44.7363" lon="2.55668">
        <ele>433.5</ele>
        <time>2021-08-19T09:41:37Z</time>
      </trkpt>
      <trkpt lat="44.73632" lon="2.55665">
        <ele>433.5</ele>
        <time>2021-08-19T09:41:39Z</time>
      </trkpt>
      <trkpt lat="44.73635" lon="2.55662">
        <ele>433.5</ele>
        <time>2021-08-19T09:41:41Z</time>
      </trkpt>
      <trkpt lat="44.73637" lon="2.5566">
        <ele>433.8</ele>
        <time>2021-08-19T09:41:43Z</time>
      </trkpt>
      <trkpt lat="44.73639" lon="2.55657">
        <ele>433.8</ele>
        <time>2021-08-19T09:41:45Z</time>
      </trkpt>
      <trkpt lat="44.73641" lon="2.55655">
        <ele>433.7</ele>
        <time>2021-08-19T09:41:47Z</time>
      </trkpt>
      <trkpt lat="44.73644" lon="2.55652">
        <ele>433.9</ele>
        <time>2021-08-19T09:41:49Z</time>
      </trkpt>
      <trkpt lat="44.73646" lon="2.55652">
        <ele>434.7</ele>
        <time>2021-08-19T09:41:51Z</time>
      </trkpt>
      <trkpt lat="44.73649" lon="2.5565">
        <ele>435</ele>
        <time>2021-08-19T09:41:53Z</time>
      </trkpt>
      <trkpt lat="44.73651" lon="2.55649">
        <ele>435.5</ele>
        <time>2021-08-19T09:41:55Z</time>
      </trkpt>
      <trkpt lat="44.73652" lon="2.55647">
        <ele>435.6</ele>
        <time>2021-08-19T09:41:57Z</time>
      </trkpt>
      <trkpt lat="44.73654" lon="2.55645">
        <ele>435.4</ele>
        <time>2021-08-19T09:41:59Z</time>
      </trkpt>
      <trkpt lat="44.73655" lon="2.55644">
        <ele>435.8</ele>
        <time>2021-08-19T09:42:01Z</time>
      </trkpt>
      <trkpt lat="44.73656" lon="2.55644">
        <ele>435.9</ele>
        <time>2021-08-19T09:42:03Z</time>
      </trkpt>
      <trkpt lat="44.73656" lon="2.55644">
        <ele>435.8</ele>
        <time>2021-08-19T09:42:05Z</time>
      </trkpt>
      <trkpt lat="44.73648" lon="2.55658">
        <ele>437.5</ele>
        <time>2021-08-19T09:46:33Z</time>
      </trkpt>
      <trkpt lat="44.73645" lon="2.55662">
        <ele>437.5</ele>
        <time>2021-08-19T09:46:35Z</time>
      </trkpt>
      <trkpt lat="44.73642" lon="2.55666">
        <ele>437.6</ele>
        <time>2021-08-19T09:46:37Z</time>
      </trkpt>
      <trkpt lat="44.73638" lon="2.55669">
        <ele>437.1</ele>
        <time>2021-08-19T09:46:39Z</time>
      </trkpt>
      <trkpt lat="44.73635" lon="2.55673">
        <ele>436.9</ele>
        <time>2021-08-19T09:46:41Z</time>
      </trkpt>
      <trkpt lat="44.73632" lon="2.55677">
        <ele>436.8</ele>
        <time>2021-08-19T09:46:43Z</time>
      </trkpt>
      <trkpt lat="44.73628" lon="2.55682">
        <ele>436.6</ele>
        <time>2021-08-19T09:46:45Z</time>
      </trkpt>
      <trkpt lat="44.73625" lon="2.55685">
        <ele>436.4</ele>
        <time>2021-08-19T09:46:47Z</time>
      </trkpt>
      <trkpt lat="44.73622" lon="2.5569">
        <ele>436.2</ele>
        <time>2021-08-19T09:46:49Z</time>
      </trkpt>
      <trkpt lat="44.73619" lon="2.55694">
        <ele>435.8</ele>
        <time>2021-08-19T09:46:51Z</time>
      </trkpt>
      <trkpt lat="44.73615" lon="2.55698">
        <ele>435.6</ele>
        <time>2021-08-19T09:46:53Z</time>
      </trkpt>
      <trkpt lat="44.73612" lon="2.55702">
        <ele>435.2</ele>
        <time>2021-08-19T09:46:55Z</time>
      </trkpt>
      <trkpt lat="44.73609" lon="2.55705">
        <ele>435.1</ele>
        <time>2021-08-19T09:46:57Z</time>
      </trkpt>
      <trkpt lat="44.73606" lon="2.55708">
        <ele>434.9</ele>
        <time>2021-08-19T09:46:59Z</time>
      </trkpt>
      <trkpt lat="44.73603" lon="2.55711">
        <ele>434.4</ele>
        <time>2021-08-19T09:47:01Z</time>
      </trkpt>
      <trkpt lat="44.736" lon="2.55714">
        <ele>433.9</ele>
        <time>2021-08-19T09:47:03Z</time>
      </trkpt>
      <trkpt lat="44.73598" lon="2.55718">
        <ele>433.9</ele>
        <time>2021-08-19T09:47:05Z</time>
      </trkpt>
      <trkpt lat="44.73595" lon="2.55722">
        <ele>434</ele>
        <time>2021-08-19T09:47:07Z</time>
      </trkpt>
      <trkpt lat="44.73592" lon="2.55726">
        <ele>433.7</ele>
        <time>2021-08-19T09:47:09Z</time>
      </trkpt>
      <trkpt lat="44.7359" lon="2.55731">
        <ele>434.2</ele>
        <time>2021-08-19T09:47:11Z</time>
      </trkpt>
      <trkpt lat="44.73589" lon="2.55737">
        <ele>435.1</ele>
        <time>2021-08-19T09:47:13Z</time>
      </trkpt>
      <trkpt lat="44.73588" lon="2.55743">
        <ele>436.3</ele>
        <time>2021-08-19T09:47:15Z</time>
      </trkpt>
      <trkpt lat="44.73589" lon="2.55748">
        <ele>438</ele>
        <time>2021-08-19T09:47:17Z</time>
      </trkpt>
      <trkpt lat="44.73591" lon="2.55754">
        <ele>438.2</ele>
        <time>2021-08-19T09:47:19Z</time>
      </trkpt>
      <trkpt lat="44.73594" lon="2.55758">
        <ele>438.1</ele>
        <time>2021-08-19T09:47:21Z</time>
      </trkpt>
      <trkpt lat="44.73598" lon="2.55762">
        <ele>438.5</ele>
        <time>2021-08-19T09:47:23Z</time>
      </trkpt>
      <trkpt lat="44.73601" lon="2.55766">
        <ele>439.1</ele>
        <time>2021-08-19T09:47:25Z</time>
      </trkpt>
      <trkpt lat="44.73604" lon="2.55769">
        <ele>439.7</ele>
        <time>2021-08-19T09:47:27Z</time>
      </trkpt>
      <trkpt lat="44.73608" lon="2.55772">
        <ele>440.5</ele>
        <time>2021-08-19T09:47:29Z</time>
      </trkpt>
      <trkpt lat="44.73612" lon="2.55775">
        <ele>441.4</ele>
        <time>2021-08-19T09:47:31Z</time>
      </trkpt>
      <trkpt lat="44.73615" lon="2.55779">
        <ele>441.9</ele>
        <time>2021-08-19T09:47:33Z</time>
      </trkpt>
      <trkpt lat="44.73619" lon="2.55782">
        <ele>442.7</ele>
        <time>2021-08-19T09:47:35Z</time>
      </trkpt>
      <trkpt lat="44.73622" lon="2.55786">
        <ele>443.5</ele>
        <time>2021-08-19T09:47:37Z</time>
      </trkpt>
      <trkpt lat="44.73626" lon="2.55789">
        <ele>444.3</ele>
        <time>2021-08-19T09:47:39Z</time>
      </trkpt>
      <trkpt lat="44.73629" lon="2.55793">
        <ele>444.9</ele>
        <time>2021-08-19T09:47:41Z</time>
      </trkpt>
      <trkpt lat="44.73633" lon="2.55796">
        <ele>445.8</ele>
        <time>2021-08-19T09:47:43Z</time>
      </trkpt>
      <trkpt lat="44.73636" lon="2.55799">
        <ele>446.7</ele>
        <time>2021-08-19T09:47:45Z</time>
      </trkpt>
      <trkpt lat="44.7364" lon="2.55803">
        <ele>447.6</ele>
        <time>2021-08-19T09:47:47Z</time>
      </trkpt>
      <trkpt lat="44.73643" lon="2.55807">
        <ele>448.2</ele>
        <time>2021-08-19T09:47:49Z</time>
      </trkpt>
      <trkpt lat="44.73646" lon="2.5581">
        <ele>448.8</ele>
        <time>2021-08-19T09:47:51Z</time>
      </trkpt>
      <trkpt lat="44.7365" lon="2.55814">
        <ele>449.9</ele>
        <time>2021-08-19T09:47:53Z</time>
      </trkpt>
      <trkpt lat="44.73653" lon="2.55817">
        <ele>450.8</ele>
        <time>2021-08-19T09:47:55Z</time>
      </trkpt>
      <trkpt lat="44.73657" lon="2.55821">
        <ele>451.4</ele>
        <time>2021-08-19T09:47:57Z</time>
      </trkpt>
      <trkpt lat="44.7366" lon="2.55825">
        <ele>452.1</ele>
        <time>2021-08-19T09:47:59Z</time>
      </trkpt>
      <trkpt lat="44.73663" lon="2.55829">
        <ele>453.1</ele>
        <time>2021-08-19T09:48:01Z</time>
      </trkpt>
      <trkpt lat="44.73666" lon="2.55832">
        <ele>454.1</ele>
        <time>2021-08-19T09:48:03Z</time>
      </trkpt>
      <trkpt lat="44.7367" lon="2.55836">
        <ele>454.4</ele>
        <time>2021-08-19T09:48:05Z</time>
      </trkpt>
      <trkpt lat="44.73673" lon="2.55839">
        <ele>454.9</ele>
        <time>2021-08-19T09:48:07Z</time>
      </trkpt>
      <trkpt lat="44.73676" lon="2.55842">
        <ele>455</ele>
        <time>2021-08-19T09:48:09Z</time>
      </trkpt>
      <trkpt lat="44.73679" lon="2.55845">
        <ele>455.2</ele>
        <time>2021-08-19T09:48:11Z</time>
      </trkpt>
      <trkpt lat="44.73683" lon="2.55849">
        <ele>455.6</ele>
        <time>2021-08-19T09:48:13Z</time>
      </trkpt>
      <trkpt lat="44.73687" lon="2.55852">
        <ele>455.9</ele>
        <time>2021-08-19T09:48:15Z</time>
      </trkpt>
      <trkpt lat="44.7369" lon="2.55856">
        <ele>456.3</ele>
        <time>2021-08-19T09:48:17Z</time>
      </trkpt>
      <trkpt lat="44.73693" lon="2.55859">
        <ele>456.3</ele>
        <time>2021-08-19T09:48:19Z</time>
      </trkpt>
      <trkpt lat="44.73696" lon="2.55862">
        <ele>456.6</ele>
        <time>2021-08-19T09:48:21Z</time>
      </trkpt>
      <trkpt lat="44.737" lon="2.55865">
        <ele>457.3</ele>
        <time>2021-08-19T09:48:23Z</time>
      </trkpt>
      <trkpt lat="44.73703" lon="2.55869">
        <ele>457.6</ele>
        <time>2021-08-19T09:48:25Z</time>
      </trkpt>
      <trkpt lat="44.73706" lon="2.55871">
        <ele>458.2</ele>
        <time>2021-08-19T09:48:27Z</time>
      </trkpt>
      <trkpt lat="44.73709" lon="2.55874">
        <ele>458.6</ele>
        <time>2021-08-19T09:48:29Z</time>
      </trkpt>
      <trkpt lat="44.73712" lon="2.55877">
        <ele>458.9</ele>
        <time>2021-08-19T09:48:31Z</time>
      </trkpt>
      <trkpt lat="44.73715" lon="2.5588">
        <ele>459.2</ele>
        <time>2021-08-19T09:48:33Z</time>
      </trkpt>
      <trkpt lat="44.73717" lon="2.55883">
        <ele>459.7</ele>
        <time>2021-08-19T09:48:35Z</time>
      </trkpt>
      <trkpt lat="44.7372" lon="2.55885">
        <ele>460.3</ele>
        <time>2021-08-19T09:48:37Z</time>
      </trkpt>
      <trkpt lat="44.73723" lon="2.55888">
        <ele>460.6</ele>
        <time>2021-08-19T09:48:39Z</time>
      </trkpt>
      <trkpt lat="44.73726" lon="2.5589">
        <ele>461.6</ele>
        <time>2021-08-19T09:48:41Z</time>
      </trkpt>
      <trkpt lat="44.73729" lon="2.55893">
        <ele>462</ele>
        <time>2021-08-19T09:48:43Z</time>
      </trkpt>
      <trkpt lat="44.73732" lon="2.55896">
        <ele>462.3</ele>
        <time>2021-08-19T09:48:45Z</time>
      </trkpt>
      <trkpt lat="44.73735" lon="2.55898">
        <ele>463</ele>
        <time>2021-08-19T09:48:47Z</time>
      </trkpt>
      <trkpt lat="44.73738" lon="2.55901">
        <ele>463.4</ele>
        <time>2021-08-19T09:48:49Z</time>
      </trkpt>
      <trkpt lat="44.7374" lon="2.55904">
        <ele>463.9</ele>
        <time>2021-08-19T09:48:51Z</time>
      </trkpt>
      <trkpt lat="44.73743" lon="2.55907">
        <ele>464.1</ele>
        <time>2021-08-19T09:48:53Z</time>
      </trkpt>
      <trkpt lat="44.73746" lon="2.5591">
        <ele>464.9</ele>
        <time>2021-08-19T09:48:55Z</time>
      </trkpt>
      <trkpt lat="44.73748" lon="2.55912">
        <ele>465.5</ele>
        <time>2021-08-19T09:48:57Z</time>
      </trkpt>
      <trkpt lat="44.73751" lon="2.55915">
        <ele>465.9</ele>
        <time>2021-08-19T09:48:59Z</time>
      </trkpt>
      <trkpt lat="44.73754" lon="2.55918">
        <ele>466.5</ele>
        <time>2021-08-19T09:49:01Z</time>
      </trkpt>
      <trkpt lat="44.73757" lon="2.5592">
        <ele>467.1</ele>
        <time>2021-08-19T09:49:03Z</time>
      </trkpt>
      <trkpt lat="44.73759" lon="2.55923">
        <ele>467.6</ele>
        <time>2021-08-19T09:49:05Z</time>
      </trkpt>
      <trkpt lat="44.73762" lon="2.55926">
        <ele>467.9</ele>
        <time>2021-08-19T09:49:07Z</time>
      </trkpt>
      <trkpt lat="44.73765" lon="2.55928">
        <ele>468.3</ele>
        <time>2021-08-19T09:49:09Z</time>
      </trkpt>
      <trkpt lat="44.73767" lon="2.55931">
        <ele>468.8</ele>
        <time>2021-08-19T09:49:11Z</time>
      </trkpt>
      <trkpt lat="44.7377" lon="2.55935">
        <ele>468.9</ele>
        <time>2021-08-19T09:49:13Z</time>
      </trkpt>
      <trkpt lat="44.73773" lon="2.55938">
        <ele>469.2</ele>
        <time>2021-08-19T09:49:15Z</time>
      </trkpt>
      <trkpt lat="44.73775" lon="2.55941">
        <ele>469.5</ele>
        <time>2021-08-19T09:49:17Z</time>
      </trkpt>
      <trkpt lat="44.73778" lon="2.55944">
        <ele>469.9</ele>
        <time>2021-08-19T09:49:19Z</time>
      </trkpt>
      <trkpt lat="44.73781" lon="2.55947">
        <ele>470.5</ele>
        <time>2021-08-19T09:49:21Z</time>
      </trkpt>
      <trkpt lat="44.73784" lon="2.55951">
        <ele>470.8</ele>
        <time>2021-08-19T09:49:23Z</time>
      </trkpt>
      <trkpt lat="44.73787" lon="2.55955">
        <ele>470.8</ele>
        <time>2021-08-19T09:49:25Z</time>
      </trkpt>
      <trkpt lat="44.7379" lon="2.55959">
        <ele>470.9</ele>
        <time>2021-08-19T09:49:27Z</time>
      </trkpt>
      <trkpt lat="44.73792" lon="2.55964">
        <ele>470.9</ele>
        <time>2021-08-19T09:49:29Z</time>
      </trkpt>
      <trkpt lat="44.73795" lon="2.55969">
        <ele>470.7</ele>
        <time>2021-08-19T09:49:31Z</time>
      </trkpt>
      <trkpt lat="44.73798" lon="2.55975">
        <ele>470.3</ele>
        <time>2021-08-19T09:49:33Z</time>
      </trkpt>
      <trkpt lat="44.738" lon="2.5598">
        <ele>469.8</ele>
        <time>2021-08-19T09:49:35Z</time>
      </trkpt>
      <trkpt lat="44.73802" lon="2.55986">
        <ele>469.2</ele>
        <time>2021-08-19T09:49:37Z</time>
      </trkpt>
      <trkpt lat="44.73804" lon="2.55991">
        <ele>468.7</ele>
        <time>2021-08-19T09:49:39Z</time>
      </trkpt>
      <trkpt lat="44.73806" lon="2.55997">
        <ele>468.2</ele>
        <time>2021-08-19T09:49:41Z</time>
      </trkpt>
      <trkpt lat="44.73809" lon="2.56003">
        <ele>467.8</ele>
        <time>2021-08-19T09:49:43Z</time>
      </trkpt>
      <trkpt lat="44.73811" lon="2.56009">
        <ele>467.2</ele>
        <time>2021-08-19T09:49:45Z</time>
      </trkpt>
      <trkpt lat="44.73813" lon="2.56015">
        <ele>466.8</ele>
        <time>2021-08-19T09:49:47Z</time>
      </trkpt>
      <trkpt lat="44.73815" lon="2.5602">
        <ele>466.5</ele>
        <time>2021-08-19T09:49:49Z</time>
      </trkpt>
      <trkpt lat="44.73818" lon="2.56026">
        <ele>466.2</ele>
        <time>2021-08-19T09:49:51Z</time>
      </trkpt>
      <trkpt lat="44.73821" lon="2.56031">
        <ele>466.3</ele>
        <time>2021-08-19T09:49:53Z</time>
      </trkpt>
      <trkpt lat="44.73824" lon="2.56036">
        <ele>467</ele>
        <time>2021-08-19T09:49:55Z</time>
      </trkpt>
      <trkpt lat="44.73828" lon="2.5604">
        <ele>467.4</ele>
        <time>2021-08-19T09:49:57Z</time>
      </trkpt>
      <trkpt lat="44.73831" lon="2.56045">
        <ele>468</ele>
        <time>2021-08-19T09:49:59Z</time>
      </trkpt>
      <trkpt lat="44.73834" lon="2.56049">
        <ele>468.7</ele>
        <time>2021-08-19T09:50:01Z</time>
      </trkpt>
      <trkpt lat="44.73838" lon="2.56053">
        <ele>469.7</ele>
        <time>2021-08-19T09:50:03Z</time>
      </trkpt>
      <trkpt lat="44.73841" lon="2.56058">
        <ele>470.2</ele>
        <time>2021-08-19T09:50:05Z</time>
      </trkpt>
      <trkpt lat="44.73844" lon="2.56062">
        <ele>470.8</ele>
        <time>2021-08-19T09:50:07Z</time>
      </trkpt>
      <trkpt lat="44.73848" lon="2.56066">
        <ele>472.1</ele>
        <time>2021-08-19T09:50:09Z</time>
      </trkpt>
      <trkpt lat="44.7385" lon="2.56071">
        <ele>472.5</ele>
        <time>2021-08-19T09:50:11Z</time>
      </trkpt>
      <trkpt lat="44.73853" lon="2.56076">
        <ele>472.9</ele>
        <time>2021-08-19T09:50:13Z</time>
      </trkpt>
      <trkpt lat="44.73856" lon="2.5608">
        <ele>473.6</ele>
        <time>2021-08-19T09:50:15Z</time>
      </trkpt>
      <trkpt lat="44.73859" lon="2.56084">
        <ele>474.5</ele>
        <time>2021-08-19T09:50:17Z</time>
      </trkpt>
      <trkpt lat="44.73862" lon="2.56088">
        <ele>475</ele>
        <time>2021-08-19T09:50:19Z</time>
      </trkpt>
      <trkpt lat="44.73866" lon="2.56091">
        <ele>475.8</ele>
        <time>2021-08-19T09:50:21Z</time>
      </trkpt>
      <trkpt lat="44.73869" lon="2.56095">
        <ele>476.3</ele>
        <time>2021-08-19T09:50:23Z</time>
      </trkpt>
      <trkpt lat="44.73873" lon="2.56098">
        <ele>477.8</ele>
        <time>2021-08-19T09:50:25Z</time>
      </trkpt>
      <trkpt lat="44.73876" lon="2.56101">
        <ele>478.9</ele>
        <time>2021-08-19T09:50:27Z</time>
      </trkpt>
      <trkpt lat="44.7388" lon="2.56103">
        <ele>480.1</ele>
        <time>2021-08-19T09:50:29Z</time>
      </trkpt>
      <trkpt lat="44.73883" lon="2.56106">
        <ele>481.2</ele>
        <time>2021-08-19T09:50:31Z</time>
      </trkpt>
      <trkpt lat="44.73886" lon="2.56109">
        <ele>482.1</ele>
        <time>2021-08-19T09:50:33Z</time>
      </trkpt>
      <trkpt lat="44.7389" lon="2.56112">
        <ele>482.8</ele>
        <time>2021-08-19T09:50:35Z</time>
      </trkpt>
      <trkpt lat="44.73893" lon="2.56116">
        <ele>483.5</ele>
        <time>2021-08-19T09:50:37Z</time>
      </trkpt>
      <trkpt lat="44.73896" lon="2.5612">
        <ele>483.9</ele>
        <time>2021-08-19T09:50:39Z</time>
      </trkpt>
      <trkpt lat="44.73899" lon="2.56123">
        <ele>484.4</ele>
        <time>2021-08-19T09:50:41Z</time>
      </trkpt>
      <trkpt lat="44.73902" lon="2.56127">
        <ele>484.5</ele>
        <time>2021-08-19T09:50:43Z</time>
      </trkpt>
      <trkpt lat="44.73905" lon="2.56131">
        <ele>485</ele>
        <time>2021-08-19T09:50:45Z</time>
      </trkpt>
      <trkpt lat="44.73908" lon="2.56135">
        <ele>485.5</ele>
        <time>2021-08-19T09:50:47Z</time>
      </trkpt>
      <trkpt lat="44.73911" lon="2.56138">
        <ele>486</ele>
        <time>2021-08-19T09:50:49Z</time>
      </trkpt>
      <trkpt lat="44.73913" lon="2.56142">
        <ele>485.9</ele>
        <time>2021-08-19T09:50:51Z</time>
      </trkpt>
      <trkpt lat="44.73916" lon="2.56146">
        <ele>486.2</ele>
        <time>2021-08-19T09:50:53Z</time>
      </trkpt>
      <trkpt lat="44.73919" lon="2.5615">
        <ele>486.2</ele>
        <time>2021-08-19T09:50:55Z</time>
      </trkpt>
      <trkpt lat="44.73922" lon="2.56155">
        <ele>486.3</ele>
        <time>2021-08-19T09:50:57Z</time>
      </trkpt>
      <trkpt lat="44.73925" lon="2.56158">
        <ele>486.7</ele>
        <time>2021-08-19T09:50:59Z</time>
      </trkpt>
      <trkpt lat="44.73928" lon="2.56163">
        <ele>486.9</ele>
        <time>2021-08-19T09:51:01Z</time>
      </trkpt>
      <trkpt lat="44.7393" lon="2.56167">
        <ele>487.1</ele>
        <time>2021-08-19T09:51:03Z</time>
      </trkpt>
      <trkpt lat="44.73933" lon="2.56171">
        <ele>487.9</ele>
        <time>2021-08-19T09:51:05Z</time>
      </trkpt>
      <trkpt lat="44.73936" lon="2.56175">
        <ele>488.2</ele>
        <time>2021-08-19T09:51:07Z</time>
      </trkpt>
      <trkpt lat="44.73938" lon="2.5618">
        <ele>488.5</ele>
        <time>2021-08-19T09:51:09Z</time>
      </trkpt>
      <trkpt lat="44.73941" lon="2.56185">
        <ele>489</ele>
        <time>2021-08-19T09:51:11Z</time>
      </trkpt>
      <trkpt lat="44.73943" lon="2.5619">
        <ele>489.4</ele>
        <time>2021-08-19T09:51:13Z</time>
      </trkpt>
      <trkpt lat="44.73946" lon="2.56197">
        <ele>489.8</ele>
        <time>2021-08-19T09:51:15Z</time>
      </trkpt>
      <trkpt lat="44.73948" lon="2.56202">
        <ele>489.9</ele>
        <time>2021-08-19T09:51:17Z</time>
      </trkpt>
      <trkpt lat="44.7395" lon="2.56207">
        <ele>490.3</ele>
        <time>2021-08-19T09:51:19Z</time>
      </trkpt>
      <trkpt lat="44.73952" lon="2.56212">
        <ele>490.2</ele>
        <time>2021-08-19T09:51:21Z</time>
      </trkpt>
      <trkpt lat="44.73953" lon="2.56218">
        <ele>490.1</ele>
        <time>2021-08-19T09:51:23Z</time>
      </trkpt>
      <trkpt lat="44.73955" lon="2.56224">
        <ele>490.4</ele>
        <time>2021-08-19T09:51:25Z</time>
      </trkpt>
      <trkpt lat="44.73957" lon="2.56229">
        <ele>490.7</ele>
        <time>2021-08-19T09:51:27Z</time>
      </trkpt>
      <trkpt lat="44.73958" lon="2.56235">
        <ele>490.3</ele>
        <time>2021-08-19T09:51:29Z</time>
      </trkpt>
      <trkpt lat="44.73959" lon="2.56241">
        <ele>490.1</ele>
        <time>2021-08-19T09:51:31Z</time>
      </trkpt>
      <trkpt lat="44.73961" lon="2.56247">
        <ele>490.2</ele>
        <time>2021-08-19T09:51:33Z</time>
      </trkpt>
      <trkpt lat="44.73962" lon="2.56253">
        <ele>490.3</ele>
        <time>2021-08-19T09:51:35Z</time>
      </trkpt>
      <trkpt lat="44.73963" lon="2.56258">
        <ele>490.3</ele>
        <time>2021-08-19T09:51:37Z</time>
      </trkpt>
      <trkpt lat="44.73965" lon="2.56264">
        <ele>490.3</ele>
        <time>2021-08-19T09:51:39Z</time>
      </trkpt>
      <trkpt lat="44.73965" lon="2.56269">
        <ele>489.9</ele>
        <time>2021-08-19T09:51:41Z</time>
      </trkpt>
      <trkpt lat="44.73966" lon="2.56275">
        <ele>489.8</ele>
        <time>2021-08-19T09:51:43Z</time>
      </trkpt>
      <trkpt lat="44.73967" lon="2.5628">
        <ele>489.9</ele>
        <time>2021-08-19T09:51:45Z</time>
      </trkpt>
      <trkpt lat="44.73968" lon="2.56286">
        <ele>489.5</ele>
        <time>2021-08-19T09:51:47Z</time>
      </trkpt>
      <trkpt lat="44.73969" lon="2.56291">
        <ele>489.4</ele>
        <time>2021-08-19T09:51:49Z</time>
      </trkpt>
      <trkpt lat="44.7397" lon="2.56295">
        <ele>489.4</ele>
        <time>2021-08-19T09:51:51Z</time>
      </trkpt>
      <trkpt lat="44.73972" lon="2.56301">
        <ele>489.6</ele>
        <time>2021-08-19T09:51:53Z</time>
      </trkpt>
      <trkpt lat="44.73973" lon="2.56306">
        <ele>489.8</ele>
        <time>2021-08-19T09:51:55Z</time>
      </trkpt>
      <trkpt lat="44.73974" lon="2.56311">
        <ele>489.8</ele>
        <time>2021-08-19T09:51:57Z</time>
      </trkpt>
      <trkpt lat="44.73975" lon="2.56316">
        <ele>489.4</ele>
        <time>2021-08-19T09:51:59Z</time>
      </trkpt>
      <trkpt lat="44.73977" lon="2.56321">
        <ele>490.4</ele>
        <time>2021-08-19T09:52:01Z</time>
      </trkpt>
      <trkpt lat="44.73978" lon="2.56327">
        <ele>490.1</ele>
        <time>2021-08-19T09:52:03Z</time>
      </trkpt>
      <trkpt lat="44.7398" lon="2.56332">
        <ele>490.6</ele>
        <time>2021-08-19T09:52:05Z</time>
      </trkpt>
      <trkpt lat="44.73982" lon="2.56337">
        <ele>490.9</ele>
        <time>2021-08-19T09:52:07Z</time>
      </trkpt>
      <trkpt lat="44.73983" lon="2.56342">
        <ele>490.9</ele>
        <time>2021-08-19T09:52:09Z</time>
      </trkpt>
      <trkpt lat="44.73984" lon="2.56348">
        <ele>490.5</ele>
        <time>2021-08-19T09:52:11Z</time>
      </trkpt>
      <trkpt lat="44.73985" lon="2.56353">
        <ele>490.3</ele>
        <time>2021-08-19T09:52:13Z</time>
      </trkpt>
      <trkpt lat="44.73986" lon="2.56359">
        <ele>489.9</ele>
        <time>2021-08-19T09:52:15Z</time>
      </trkpt>
      <trkpt lat="44.73987" lon="2.56366">
        <ele>489.4</ele>
        <time>2021-08-19T09:52:17Z</time>
      </trkpt>
      <trkpt lat="44.73988" lon="2.56371">
        <ele>489</ele>
        <time>2021-08-19T09:52:19Z</time>
      </trkpt>
      <trkpt lat="44.73989" lon="2.56377">
        <ele>488.5</ele>
        <time>2021-08-19T09:52:21Z</time>
      </trkpt>
      <trkpt lat="44.73989" lon="2.56382">
        <ele>487.9</ele>
        <time>2021-08-19T09:52:23Z</time>
      </trkpt>
      <trkpt lat="44.7399" lon="2.56388">
        <ele>487.7</ele>
        <time>2021-08-19T09:52:25Z</time>
      </trkpt>
      <trkpt lat="44.73992" lon="2.56394">
        <ele>487.4</ele>
        <time>2021-08-19T09:52:27Z</time>
      </trkpt>
      <trkpt lat="44.73993" lon="2.56399">
        <ele>487.7</ele>
        <time>2021-08-19T09:52:29Z</time>
      </trkpt>
      <trkpt lat="44.73995" lon="2.56404">
        <ele>488.2</ele>
        <time>2021-08-19T09:52:31Z</time>
      </trkpt>
      <trkpt lat="44.73997" lon="2.56409">
        <ele>488.7</ele>
        <time>2021-08-19T09:52:33Z</time>
      </trkpt>
      <trkpt lat="44.73999" lon="2.56414">
        <ele>488.9</ele>
        <time>2021-08-19T09:52:35Z</time>
      </trkpt>
      <trkpt lat="44.74001" lon="2.56419">
        <ele>488.9</ele>
        <time>2021-08-19T09:52:37Z</time>
      </trkpt>
      <trkpt lat="44.74004" lon="2.56424">
        <ele>488.9</ele>
        <time>2021-08-19T09:52:39Z</time>
      </trkpt>
      <trkpt lat="44.74006" lon="2.56429">
        <ele>488.8</ele>
        <time>2021-08-19T09:52:41Z</time>
      </trkpt>
      <trkpt lat="44.74009" lon="2.56433">
        <ele>489.1</ele>
        <time>2021-08-19T09:52:43Z</time>
      </trkpt>
      <trkpt lat="44.74013" lon="2.56437">
        <ele>489.6</ele>
        <time>2021-08-19T09:52:45Z</time>
      </trkpt>
      <trkpt lat="44.74016" lon="2.56441">
        <ele>490</ele>
        <time>2021-08-19T09:52:47Z</time>
      </trkpt>
      <trkpt lat="44.7402" lon="2.56445">
        <ele>491</ele>
        <time>2021-08-19T09:52:49Z</time>
      </trkpt>
      <trkpt lat="44.74024" lon="2.56447">
        <ele>491.6</ele>
        <time>2021-08-19T09:52:51Z</time>
      </trkpt>
      <trkpt lat="44.74027" lon="2.5645">
        <ele>492.5</ele>
        <time>2021-08-19T09:52:53Z</time>
      </trkpt>
      <trkpt lat="44.74032" lon="2.56453">
        <ele>493.8</ele>
        <time>2021-08-19T09:52:55Z</time>
      </trkpt>
      <trkpt lat="44.74035" lon="2.56455">
        <ele>494.5</ele>
        <time>2021-08-19T09:52:57Z</time>
      </trkpt>
      <trkpt lat="44.74039" lon="2.56457">
        <ele>495.7</ele>
        <time>2021-08-19T09:52:59Z</time>
      </trkpt>
      <trkpt lat="44.74044" lon="2.56459">
        <ele>496.9</ele>
        <time>2021-08-19T09:53:01Z</time>
      </trkpt>
      <trkpt lat="44.74048" lon="2.56462">
        <ele>497.6</ele>
        <time>2021-08-19T09:53:03Z</time>
      </trkpt>
      <trkpt lat="44.74051" lon="2.56465">
        <ele>498</ele>
        <time>2021-08-19T09:53:05Z</time>
      </trkpt>
      <trkpt lat="44.74054" lon="2.56468">
        <ele>498.5</ele>
        <time>2021-08-19T09:53:07Z</time>
      </trkpt>
      <trkpt lat="44.74058" lon="2.56474">
        <ele>498.3</ele>
        <time>2021-08-19T09:53:09Z</time>
      </trkpt>
      <trkpt lat="44.74063" lon="2.56477">
        <ele>499.1</ele>
        <time>2021-08-19T09:53:11Z</time>
      </trkpt>
      <trkpt lat="44.74066" lon="2.56482">
        <ele>498.8</ele>
        <time>2021-08-19T09:53:13Z</time>
      </trkpt>
      <trkpt lat="44.74069" lon="2.56484">
        <ele>499.2</ele>
        <time>2021-08-19T09:53:15Z</time>
      </trkpt>
      <trkpt lat="44.74073" lon="2.56488">
        <ele>499.5</ele>
        <time>2021-08-19T09:53:17Z</time>
      </trkpt>
      <trkpt lat="44.74077" lon="2.56491">
        <ele>500</ele>
        <time>2021-08-19T09:53:19Z</time>
      </trkpt>
      <trkpt lat="44.74081" lon="2.56493">
        <ele>500.7</ele>
        <time>2021-08-19T09:53:21Z</time>
      </trkpt>
      <trkpt lat="44.74085" lon="2.56494">
        <ele>501.3</ele>
        <time>2021-08-19T09:53:23Z</time>
      </trkpt>
      <trkpt lat="44.74089" lon="2.56497">
        <ele>500.4</ele>
        <time>2021-08-19T09:53:25Z</time>
      </trkpt>
      <trkpt lat="44.74093" lon="2.56497">
        <ele>500.5</ele>
        <time>2021-08-19T09:53:27Z</time>
      </trkpt>
      <trkpt lat="44.74098" lon="2.56497">
        <ele>500.9</ele>
        <time>2021-08-19T09:53:29Z</time>
      </trkpt>
      <trkpt lat="44.741" lon="2.56496">
        <ele>501.3</ele>
        <time>2021-08-19T09:53:31Z</time>
      </trkpt>
      <trkpt lat="44.74105" lon="2.56495">
        <ele>502</ele>
        <time>2021-08-19T09:53:33Z</time>
      </trkpt>
      <trkpt lat="44.74109" lon="2.56495">
        <ele>502.3</ele>
        <time>2021-08-19T09:53:35Z</time>
      </trkpt>
      <trkpt lat="44.74112" lon="2.56494">
        <ele>502.9</ele>
        <time>2021-08-19T09:53:37Z</time>
      </trkpt>
      <trkpt lat="44.74116" lon="2.56492">
        <ele>503.7</ele>
        <time>2021-08-19T09:53:39Z</time>
      </trkpt>
      <trkpt lat="44.74121" lon="2.56491">
        <ele>504.5</ele>
        <time>2021-08-19T09:53:41Z</time>
      </trkpt>
      <trkpt lat="44.74125" lon="2.5649">
        <ele>505</ele>
        <time>2021-08-19T09:53:43Z</time>
      </trkpt>
      <trkpt lat="44.74129" lon="2.5649">
        <ele>505.6</ele>
        <time>2021-08-19T09:53:45Z</time>
      </trkpt>
      <trkpt lat="44.74134" lon="2.56489">
        <ele>506</ele>
        <time>2021-08-19T09:53:47Z</time>
      </trkpt>
      <trkpt lat="44.74137" lon="2.56487">
        <ele>507.1</ele>
        <time>2021-08-19T09:53:49Z</time>
      </trkpt>
      <trkpt lat="44.74142" lon="2.56486">
        <ele>507.7</ele>
        <time>2021-08-19T09:53:51Z</time>
      </trkpt>
      <trkpt lat="44.74145" lon="2.56486">
        <ele>508.2</ele>
        <time>2021-08-19T09:53:53Z</time>
      </trkpt>
      <trkpt lat="44.74149" lon="2.56484">
        <ele>509.1</ele>
        <time>2021-08-19T09:53:55Z</time>
      </trkpt>
      <trkpt lat="44.74154" lon="2.56484">
        <ele>509.7</ele>
        <time>2021-08-19T09:53:57Z</time>
      </trkpt>
      <trkpt lat="44.74159" lon="2.56484">
        <ele>510</ele>
        <time>2021-08-19T09:53:59Z</time>
      </trkpt>
      <trkpt lat="44.74164" lon="2.56484">
        <ele>510.3</ele>
        <time>2021-08-19T09:54:01Z</time>
      </trkpt>
      <trkpt lat="44.74167" lon="2.56482">
        <ele>511.5</ele>
        <time>2021-08-19T09:54:03Z</time>
      </trkpt>
      <trkpt lat="44.74173" lon="2.56481">
        <ele>513.3</ele>
        <time>2021-08-19T09:54:05Z</time>
      </trkpt>
      <trkpt lat="44.74176" lon="2.56479">
        <ele>514.7</ele>
        <time>2021-08-19T09:54:07Z</time>
      </trkpt>
      <trkpt lat="44.74181" lon="2.56479">
        <ele>516.3</ele>
        <time>2021-08-19T09:54:09Z</time>
      </trkpt>
      <trkpt lat="44.74183" lon="2.56478">
        <ele>517.2</ele>
        <time>2021-08-19T09:54:11Z</time>
      </trkpt>
      <trkpt lat="44.74188" lon="2.56477">
        <ele>518.8</ele>
        <time>2021-08-19T09:54:13Z</time>
      </trkpt>
      <trkpt lat="44.74193" lon="2.56478">
        <ele>519.6</ele>
        <time>2021-08-19T09:54:15Z</time>
      </trkpt>
      <trkpt lat="44.74199" lon="2.5648">
        <ele>520.4</ele>
        <time>2021-08-19T09:54:17Z</time>
      </trkpt>
      <trkpt lat="44.74204" lon="2.56485">
        <ele>520</ele>
        <time>2021-08-19T09:54:19Z</time>
      </trkpt>
      <trkpt lat="44.74209" lon="2.56491">
        <ele>519.1</ele>
        <time>2021-08-19T09:54:21Z</time>
      </trkpt>
      <trkpt lat="44.74213" lon="2.56496">
        <ele>518.3</ele>
        <time>2021-08-19T09:54:23Z</time>
      </trkpt>
      <trkpt lat="44.74216" lon="2.56501">
        <ele>517.6</ele>
        <time>2021-08-19T09:54:25Z</time>
      </trkpt>
      <trkpt lat="44.74219" lon="2.56507">
        <ele>516.7</ele>
        <time>2021-08-19T09:54:27Z</time>
      </trkpt>
      <trkpt lat="44.74222" lon="2.56513">
        <ele>515.2</ele>
        <time>2021-08-19T09:54:29Z</time>
      </trkpt>
      <trkpt lat="44.74224" lon="2.56519">
        <ele>514.3</ele>
        <time>2021-08-19T09:54:31Z</time>
      </trkpt>
      <trkpt lat="44.74227" lon="2.56526">
        <ele>512.9</ele>
        <time>2021-08-19T09:54:33Z</time>
      </trkpt>
      <trkpt lat="44.74229" lon="2.56533">
        <ele>511.7</ele>
        <time>2021-08-19T09:54:35Z</time>
      </trkpt>
      <trkpt lat="44.74232" lon="2.56539">
        <ele>510.6</ele>
        <time>2021-08-19T09:54:37Z</time>
      </trkpt>
      <trkpt lat="44.74234" lon="2.56545">
        <ele>509.6</ele>
        <time>2021-08-19T09:54:39Z</time>
      </trkpt>
      <trkpt lat="44.74238" lon="2.56551">
        <ele>509</ele>
        <time>2021-08-19T09:54:41Z</time>
      </trkpt>
      <trkpt lat="44.74241" lon="2.56557">
        <ele>508.3</ele>
        <time>2021-08-19T09:54:43Z</time>
      </trkpt>
      <trkpt lat="44.74243" lon="2.56564">
        <ele>507.1</ele>
        <time>2021-08-19T09:54:45Z</time>
      </trkpt>
      <trkpt lat="44.74246" lon="2.5657">
        <ele>506.2</ele>
        <time>2021-08-19T09:54:47Z</time>
      </trkpt>
      <trkpt lat="44.74249" lon="2.56576">
        <ele>505.8</ele>
        <time>2021-08-19T09:54:49Z</time>
      </trkpt>
      <trkpt lat="44.74252" lon="2.5658">
        <ele>505.7</ele>
        <time>2021-08-19T09:54:51Z</time>
      </trkpt>
      <trkpt lat="44.74256" lon="2.56585">
        <ele>505.6</ele>
        <time>2021-08-19T09:54:53Z</time>
      </trkpt>
      <trkpt lat="44.74259" lon="2.5659">
        <ele>505.4</ele>
        <time>2021-08-19T09:54:55Z</time>
      </trkpt>
      <trkpt lat="44.74261" lon="2.56594">
        <ele>505.2</ele>
        <time>2021-08-19T09:54:57Z</time>
      </trkpt>
      <trkpt lat="44.74264" lon="2.56598">
        <ele>504.9</ele>
        <time>2021-08-19T09:54:59Z</time>
      </trkpt>
      <trkpt lat="44.74267" lon="2.56602">
        <ele>505.1</ele>
        <time>2021-08-19T09:55:01Z</time>
      </trkpt>
      <trkpt lat="44.7427" lon="2.56606">
        <ele>505.2</ele>
        <time>2021-08-19T09:55:03Z</time>
      </trkpt>
      <trkpt lat="44.74273" lon="2.56611">
        <ele>504.7</ele>
        <time>2021-08-19T09:55:05Z</time>
      </trkpt>
      <trkpt lat="44.74277" lon="2.56615">
        <ele>505</ele>
        <time>2021-08-19T09:55:07Z</time>
      </trkpt>
      <trkpt lat="44.74281" lon="2.56619">
        <ele>505.1</ele>
        <time>2021-08-19T09:55:09Z</time>
      </trkpt>
      <trkpt lat="44.74283" lon="2.56623">
        <ele>505</ele>
        <time>2021-08-19T09:55:11Z</time>
      </trkpt>
      <trkpt lat="44.74287" lon="2.56627">
        <ele>505.2</ele>
        <time>2021-08-19T09:55:13Z</time>
      </trkpt>
      <trkpt lat="44.7429" lon="2.56631">
        <ele>505.1</ele>
        <time>2021-08-19T09:55:15Z</time>
      </trkpt>
      <trkpt lat="44.74293" lon="2.56635">
        <ele>505.2</ele>
        <time>2021-08-19T09:55:17Z</time>
      </trkpt>
      <trkpt lat="44.74298" lon="2.56639">
        <ele>505.6</ele>
        <time>2021-08-19T09:55:19Z</time>
      </trkpt>
      <trkpt lat="44.74301" lon="2.56643">
        <ele>505.7</ele>
        <time>2021-08-19T09:55:21Z</time>
      </trkpt>
      <trkpt lat="44.74304" lon="2.56648">
        <ele>505.5</ele>
        <time>2021-08-19T09:55:23Z</time>
      </trkpt>
      <trkpt lat="44.74308" lon="2.56651">
        <ele>505.8</ele>
        <time>2021-08-19T09:55:25Z</time>
      </trkpt>
      <trkpt lat="44.74311" lon="2.56656">
        <ele>505.5</ele>
        <time>2021-08-19T09:55:27Z</time>
      </trkpt>
      <trkpt lat="44.74314" lon="2.56661">
        <ele>505.5</ele>
        <time>2021-08-19T09:55:29Z</time>
      </trkpt>
      <trkpt lat="44.74318" lon="2.56665">
        <ele>505.7</ele>
        <time>2021-08-19T09:55:31Z</time>
      </trkpt>
      <trkpt lat="44.74322" lon="2.56669">
        <ele>505.9</ele>
        <time>2021-08-19T09:55:33Z</time>
      </trkpt>
      <trkpt lat="44.74325" lon="2.56674">
        <ele>505.9</ele>
        <time>2021-08-19T09:55:35Z</time>
      </trkpt>
      <trkpt lat="44.74329" lon="2.56678">
        <ele>506</ele>
        <time>2021-08-19T09:55:37Z</time>
      </trkpt>
      <trkpt lat="44.74333" lon="2.56681">
        <ele>506.4</ele>
        <time>2021-08-19T09:55:39Z</time>
      </trkpt>
      <trkpt lat="44.74337" lon="2.56685">
        <ele>505.2</ele>
        <time>2021-08-19T09:55:41Z</time>
      </trkpt>
      <trkpt lat="44.74342" lon="2.56687">
        <ele>504</ele>
        <time>2021-08-19T09:55:43Z</time>
      </trkpt>
      <trkpt lat="44.74346" lon="2.56688">
        <ele>503</ele>
        <time>2021-08-19T09:55:45Z</time>
      </trkpt>
      <trkpt lat="44.7435" lon="2.56687">
        <ele>502.8</ele>
        <time>2021-08-19T09:55:47Z</time>
      </trkpt>
      <trkpt lat="44.74354" lon="2.56686">
        <ele>502.9</ele>
        <time>2021-08-19T09:55:49Z</time>
      </trkpt>
      <trkpt lat="44.74358" lon="2.56682">
        <ele>503.5</ele>
        <time>2021-08-19T09:55:51Z</time>
      </trkpt>
      <trkpt lat="44.74362" lon="2.56678">
        <ele>504.3</ele>
        <time>2021-08-19T09:55:53Z</time>
      </trkpt>
      <trkpt lat="44.74365" lon="2.56673">
        <ele>505.6</ele>
        <time>2021-08-19T09:55:55Z</time>
      </trkpt>
      <trkpt lat="44.74367" lon="2.56667">
        <ele>507.2</ele>
        <time>2021-08-19T09:55:57Z</time>
      </trkpt>
      <trkpt lat="44.7437" lon="2.56663">
        <ele>508.3</ele>
        <time>2021-08-19T09:55:59Z</time>
      </trkpt>
      <trkpt lat="44.74371" lon="2.56657">
        <ele>509.8</ele>
        <time>2021-08-19T09:56:01Z</time>
      </trkpt>
      <trkpt lat="44.74373" lon="2.56653">
        <ele>510.8</ele>
        <time>2021-08-19T09:56:03Z</time>
      </trkpt>
      <trkpt lat="44.74375" lon="2.56648">
        <ele>512.2</ele>
        <time>2021-08-19T09:56:05Z</time>
      </trkpt>
      <trkpt lat="44.74378" lon="2.56644">
        <ele>513.1</ele>
        <time>2021-08-19T09:56:07Z</time>
      </trkpt>
      <trkpt lat="44.74379" lon="2.56639">
        <ele>514.3</ele>
        <time>2021-08-19T09:56:09Z</time>
      </trkpt>
      <trkpt lat="44.74383" lon="2.56636">
        <ele>514.9</ele>
        <time>2021-08-19T09:56:11Z</time>
      </trkpt>
      <trkpt lat="44.74385" lon="2.56633">
        <ele>515.5</ele>
        <time>2021-08-19T09:56:13Z</time>
      </trkpt>
      <trkpt lat="44.74389" lon="2.5663">
        <ele>516.2</ele>
        <time>2021-08-19T09:56:15Z</time>
      </trkpt>
      <trkpt lat="44.74391" lon="2.56626">
        <ele>517.1</ele>
        <time>2021-08-19T09:56:17Z</time>
      </trkpt>
      <trkpt lat="44.74394" lon="2.56623">
        <ele>517.8</ele>
        <time>2021-08-19T09:56:19Z</time>
      </trkpt>
      <trkpt lat="44.74397" lon="2.56619">
        <ele>518.7</ele>
        <time>2021-08-19T09:56:21Z</time>
      </trkpt>
      <trkpt lat="44.744" lon="2.56615">
        <ele>519.5</ele>
        <time>2021-08-19T09:56:23Z</time>
      </trkpt>
      <trkpt lat="44.74403" lon="2.56612">
        <ele>520.4</ele>
        <time>2021-08-19T09:56:25Z</time>
      </trkpt>
      <trkpt lat="44.74406" lon="2.56607">
        <ele>521.7</ele>
        <time>2021-08-19T09:56:27Z</time>
      </trkpt>
      <trkpt lat="44.74408" lon="2.56603">
        <ele>522.7</ele>
        <time>2021-08-19T09:56:29Z</time>
      </trkpt>
      <trkpt lat="44.74412" lon="2.56598">
        <ele>523.9</ele>
        <time>2021-08-19T09:56:31Z</time>
      </trkpt>
      <trkpt lat="44.74414" lon="2.56595">
        <ele>524.8</ele>
        <time>2021-08-19T09:56:33Z</time>
      </trkpt>
      <trkpt lat="44.74416" lon="2.56591">
        <ele>525.6</ele>
        <time>2021-08-19T09:56:35Z</time>
      </trkpt>
      <trkpt lat="44.74419" lon="2.56587">
        <ele>526</ele>
        <time>2021-08-19T09:56:37Z</time>
      </trkpt>
      <trkpt lat="44.74421" lon="2.56583">
        <ele>526.7</ele>
        <time>2021-08-19T09:56:39Z</time>
      </trkpt>
      <trkpt lat="44.74425" lon="2.5658">
        <ele>526.3</ele>
        <time>2021-08-19T09:56:41Z</time>
      </trkpt>
      <trkpt lat="44.74428" lon="2.56577">
        <ele>525.7</ele>
        <time>2021-08-19T09:56:43Z</time>
      </trkpt>
      <trkpt lat="44.74432" lon="2.56575">
        <ele>525</ele>
        <time>2021-08-19T09:56:45Z</time>
      </trkpt>
      <trkpt lat="44.74435" lon="2.56574">
        <ele>524.4</ele>
        <time>2021-08-19T09:56:47Z</time>
      </trkpt>
      <trkpt lat="44.74438" lon="2.56572">
        <ele>524.1</ele>
        <time>2021-08-19T09:56:49Z</time>
      </trkpt>
      <trkpt lat="44.74442" lon="2.5657">
        <ele>523.3</ele>
        <time>2021-08-19T09:56:51Z</time>
      </trkpt>
      <trkpt lat="44.74447" lon="2.56569">
        <ele>522.1</ele>
        <time>2021-08-19T09:56:53Z</time>
      </trkpt>
      <trkpt lat="44.7445" lon="2.56567">
        <ele>521.7</ele>
        <time>2021-08-19T09:56:55Z</time>
      </trkpt>
      <trkpt lat="44.74455" lon="2.56564">
        <ele>521.1</ele>
        <time>2021-08-19T09:56:57Z</time>
      </trkpt>
      <trkpt lat="44.74459" lon="2.56561">
        <ele>520.8</ele>
        <time>2021-08-19T09:56:59Z</time>
      </trkpt>
      <trkpt lat="44.74463" lon="2.56557">
        <ele>520.7</ele>
        <time>2021-08-19T09:57:01Z</time>
      </trkpt>
      <trkpt lat="44.74466" lon="2.56553">
        <ele>520.8</ele>
        <time>2021-08-19T09:57:03Z</time>
      </trkpt>
      <trkpt lat="44.7447" lon="2.56549">
        <ele>521.1</ele>
        <time>2021-08-19T09:57:05Z</time>
      </trkpt>
      <trkpt lat="44.74475" lon="2.56546">
        <ele>520.6</ele>
        <time>2021-08-19T09:57:07Z</time>
      </trkpt>
      <trkpt lat="44.74479" lon="2.56542">
        <ele>520.9</ele>
        <time>2021-08-19T09:57:09Z</time>
      </trkpt>
      <trkpt lat="44.74482" lon="2.56538">
        <ele>521.2</ele>
        <time>2021-08-19T09:57:11Z</time>
      </trkpt>
      <trkpt lat="44.74486" lon="2.56533">
        <ele>521.7</ele>
        <time>2021-08-19T09:57:13Z</time>
      </trkpt>
      <trkpt lat="44.74489" lon="2.56528">
        <ele>522.6</ele>
        <time>2021-08-19T09:57:15Z</time>
      </trkpt>
      <trkpt lat="44.74491" lon="2.56523">
        <ele>523.5</ele>
        <time>2021-08-19T09:57:17Z</time>
      </trkpt>
      <trkpt lat="44.74494" lon="2.56518">
        <ele>524.5</ele>
        <time>2021-08-19T09:57:19Z</time>
      </trkpt>
      <trkpt lat="44.74496" lon="2.56512">
        <ele>525.9</ele>
        <time>2021-08-19T09:57:21Z</time>
      </trkpt>
      <trkpt lat="44.74499" lon="2.56507">
        <ele>526.9</ele>
        <time>2021-08-19T09:57:23Z</time>
      </trkpt>
      <trkpt lat="44.74502" lon="2.56503">
        <ele>528.2</ele>
        <time>2021-08-19T09:57:25Z</time>
      </trkpt>
      <trkpt lat="44.74504" lon="2.56497">
        <ele>530.2</ele>
        <time>2021-08-19T09:57:27Z</time>
      </trkpt>
      <trkpt lat="44.74507" lon="2.56491">
        <ele>532.2</ele>
        <time>2021-08-19T09:57:29Z</time>
      </trkpt>
      <trkpt lat="44.74511" lon="2.56487">
        <ele>533.5</ele>
        <time>2021-08-19T09:57:31Z</time>
      </trkpt>
      <trkpt lat="44.74513" lon="2.56482">
        <ele>535.2</ele>
        <time>2021-08-19T09:57:33Z</time>
      </trkpt>
      <trkpt lat="44.74516" lon="2.56477">
        <ele>536.9</ele>
        <time>2021-08-19T09:57:35Z</time>
      </trkpt>
      <trkpt lat="44.74519" lon="2.56473">
        <ele>538.4</ele>
        <time>2021-08-19T09:57:37Z</time>
      </trkpt>
      <trkpt lat="44.74522" lon="2.56468">
        <ele>539.9</ele>
        <time>2021-08-19T09:57:39Z</time>
      </trkpt>
      <trkpt lat="44.74524" lon="2.56463">
        <ele>541.7</ele>
        <time>2021-08-19T09:57:41Z</time>
      </trkpt>
      <trkpt lat="44.74526" lon="2.56458">
        <ele>543.5</ele>
        <time>2021-08-19T09:57:43Z</time>
      </trkpt>
      <trkpt lat="44.74529" lon="2.56453">
        <ele>545.2</ele>
        <time>2021-08-19T09:57:45Z</time>
      </trkpt>
      <trkpt lat="44.74531" lon="2.56446">
        <ele>547.2</ele>
        <time>2021-08-19T09:57:47Z</time>
      </trkpt>
      <trkpt lat="44.74534" lon="2.56443">
        <ele>548.6</ele>
        <time>2021-08-19T09:57:49Z</time>
      </trkpt>
      <trkpt lat="44.74537" lon="2.56438">
        <ele>550</ele>
        <time>2021-08-19T09:57:51Z</time>
      </trkpt>
      <trkpt lat="44.74541" lon="2.56436">
        <ele>550.9</ele>
        <time>2021-08-19T09:57:53Z</time>
      </trkpt>
      <trkpt lat="44.74545" lon="2.56436">
        <ele>551</ele>
        <time>2021-08-19T09:57:55Z</time>
      </trkpt>
      <trkpt lat="44.74549" lon="2.56437">
        <ele>550.9</ele>
        <time>2021-08-19T09:57:57Z</time>
      </trkpt>
      <trkpt lat="44.74553" lon="2.56439">
        <ele>550.5</ele>
        <time>2021-08-19T09:57:59Z</time>
      </trkpt>
      <trkpt lat="44.74557" lon="2.56444">
        <ele>549.2</ele>
        <time>2021-08-19T09:58:01Z</time>
      </trkpt>
      <trkpt lat="44.74561" lon="2.56449">
        <ele>547.9</ele>
        <time>2021-08-19T09:58:03Z</time>
      </trkpt>
      <trkpt lat="44.74565" lon="2.56453">
        <ele>546.7</ele>
        <time>2021-08-19T09:58:05Z</time>
      </trkpt>
      <trkpt lat="44.74569" lon="2.56457">
        <ele>545.6</ele>
        <time>2021-08-19T09:58:07Z</time>
      </trkpt>
      <trkpt lat="44.74572" lon="2.56462">
        <ele>544.2</ele>
        <time>2021-08-19T09:58:09Z</time>
      </trkpt>
      <trkpt lat="44.74576" lon="2.56468">
        <ele>542.6</ele>
        <time>2021-08-19T09:58:11Z</time>
      </trkpt>
      <trkpt lat="44.74579" lon="2.56473">
        <ele>541.2</ele>
        <time>2021-08-19T09:58:13Z</time>
      </trkpt>
      <trkpt lat="44.74582" lon="2.56478">
        <ele>539.8</ele>
        <time>2021-08-19T09:58:15Z</time>
      </trkpt>
      <trkpt lat="44.74585" lon="2.56484">
        <ele>538.5</ele>
        <time>2021-08-19T09:58:17Z</time>
      </trkpt>
      <trkpt lat="44.74589" lon="2.56489">
        <ele>538.2</ele>
        <time>2021-08-19T09:58:19Z</time>
      </trkpt>
      <trkpt lat="44.74592" lon="2.56493">
        <ele>537.9</ele>
        <time>2021-08-19T09:58:21Z</time>
      </trkpt>
      <trkpt lat="44.74594" lon="2.56499">
        <ele>537</ele>
        <time>2021-08-19T09:58:23Z</time>
      </trkpt>
      <trkpt lat="44.74597" lon="2.56504">
        <ele>536.1</ele>
        <time>2021-08-19T09:58:25Z</time>
      </trkpt>
      <trkpt lat="44.746" lon="2.56509">
        <ele>535.1</ele>
        <time>2021-08-19T09:58:27Z</time>
      </trkpt>
      <trkpt lat="44.74603" lon="2.56514">
        <ele>534.1</ele>
        <time>2021-08-19T09:58:29Z</time>
      </trkpt>
      <trkpt lat="44.74606" lon="2.56519">
        <ele>533.5</ele>
        <time>2021-08-19T09:58:31Z</time>
      </trkpt>
      <trkpt lat="44.74609" lon="2.56525">
        <ele>532.2</ele>
        <time>2021-08-19T09:58:33Z</time>
      </trkpt>
      <trkpt lat="44.74613" lon="2.56529">
        <ele>532</ele>
        <time>2021-08-19T09:58:35Z</time>
      </trkpt>
      <trkpt lat="44.74616" lon="2.56532">
        <ele>531.8</ele>
        <time>2021-08-19T09:58:37Z</time>
      </trkpt>
      <trkpt lat="44.74619" lon="2.56536">
        <ele>531.4</ele>
        <time>2021-08-19T09:58:39Z</time>
      </trkpt>
      <trkpt lat="44.74623" lon="2.56538">
        <ele>531.9</ele>
        <time>2021-08-19T09:58:41Z</time>
      </trkpt>
      <trkpt lat="44.74627" lon="2.56539">
        <ele>532.3</ele>
        <time>2021-08-19T09:58:43Z</time>
      </trkpt>
      <trkpt lat="44.74631" lon="2.56542">
        <ele>532.7</ele>
        <time>2021-08-19T09:58:45Z</time>
      </trkpt>
      <trkpt lat="44.74635" lon="2.56544">
        <ele>533</ele>
        <time>2021-08-19T09:58:47Z</time>
      </trkpt>
      <trkpt lat="44.7464" lon="2.56545">
        <ele>534.2</ele>
        <time>2021-08-19T09:58:49Z</time>
      </trkpt>
      <trkpt lat="44.74643" lon="2.56546">
        <ele>534.7</ele>
        <time>2021-08-19T09:58:51Z</time>
      </trkpt>
      <trkpt lat="44.74646" lon="2.56548">
        <ele>535</ele>
        <time>2021-08-19T09:58:53Z</time>
      </trkpt>
      <trkpt lat="44.74651" lon="2.5655">
        <ele>535.7</ele>
        <time>2021-08-19T09:58:55Z</time>
      </trkpt>
      <trkpt lat="44.74655" lon="2.56551">
        <ele>536.5</ele>
        <time>2021-08-19T09:58:57Z</time>
      </trkpt>
      <trkpt lat="44.74659" lon="2.56551">
        <ele>537.7</ele>
        <time>2021-08-19T09:58:59Z</time>
      </trkpt>
      <trkpt lat="44.74663" lon="2.56552">
        <ele>538.4</ele>
        <time>2021-08-19T09:59:01Z</time>
      </trkpt>
      <trkpt lat="44.74666" lon="2.56554">
        <ele>538.7</ele>
        <time>2021-08-19T09:59:03Z</time>
      </trkpt>
      <trkpt lat="44.7467" lon="2.56555">
        <ele>538.9</ele>
        <time>2021-08-19T09:59:05Z</time>
      </trkpt>
      <trkpt lat="44.74674" lon="2.56556">
        <ele>539.5</ele>
        <time>2021-08-19T09:59:07Z</time>
      </trkpt>
      <trkpt lat="44.74677" lon="2.56557">
        <ele>540</ele>
        <time>2021-08-19T09:59:09Z</time>
      </trkpt>
      <trkpt lat="44.74681" lon="2.5656">
        <ele>539.7</ele>
        <time>2021-08-19T09:59:11Z</time>
      </trkpt>
      <trkpt lat="44.74685" lon="2.56561">
        <ele>540.5</ele>
        <time>2021-08-19T09:59:13Z</time>
      </trkpt>
      <trkpt lat="44.7469" lon="2.56563">
        <ele>540.9</ele>
        <time>2021-08-19T09:59:15Z</time>
      </trkpt>
      <trkpt lat="44.74693" lon="2.56564">
        <ele>541.4</ele>
        <time>2021-08-19T09:59:17Z</time>
      </trkpt>
      <trkpt lat="44.74697" lon="2.56566">
        <ele>542</ele>
        <time>2021-08-19T09:59:19Z</time>
      </trkpt>
      <trkpt lat="44.74702" lon="2.56568">
        <ele>542.5</ele>
        <time>2021-08-19T09:59:21Z</time>
      </trkpt>
      <trkpt lat="44.74705" lon="2.5657">
        <ele>542.6</ele>
        <time>2021-08-19T09:59:23Z</time>
      </trkpt>
      <trkpt lat="44.74708" lon="2.56571">
        <ele>543.2</ele>
        <time>2021-08-19T09:59:25Z</time>
      </trkpt>
      <trkpt lat="44.74713" lon="2.56573">
        <ele>543.9</ele>
        <time>2021-08-19T09:59:27Z</time>
      </trkpt>
      <trkpt lat="44.74717" lon="2.56576">
        <ele>544.1</ele>
        <time>2021-08-19T09:59:29Z</time>
      </trkpt>
      <trkpt lat="44.74721" lon="2.56576">
        <ele>544.9</ele>
        <time>2021-08-19T09:59:31Z</time>
      </trkpt>
      <trkpt lat="44.74725" lon="2.56578">
        <ele>545.4</ele>
        <time>2021-08-19T09:59:33Z</time>
      </trkpt>
      <trkpt lat="44.74729" lon="2.56582">
        <ele>545.3</ele>
        <time>2021-08-19T09:59:35Z</time>
      </trkpt>
      <trkpt lat="44.74732" lon="2.56585">
        <ele>545.5</ele>
        <time>2021-08-19T09:59:37Z</time>
      </trkpt>
      <trkpt lat="44.74736" lon="2.56588">
        <ele>546</ele>
        <time>2021-08-19T09:59:39Z</time>
      </trkpt>
      <trkpt lat="44.7474" lon="2.56592">
        <ele>546.7</ele>
        <time>2021-08-19T09:59:41Z</time>
      </trkpt>
      <trkpt lat="44.74744" lon="2.56596">
        <ele>547.2</ele>
        <time>2021-08-19T09:59:43Z</time>
      </trkpt>
      <trkpt lat="44.74748" lon="2.566">
        <ele>547.8</ele>
        <time>2021-08-19T09:59:45Z</time>
      </trkpt>
      <trkpt lat="44.74751" lon="2.56604">
        <ele>548.3</ele>
        <time>2021-08-19T09:59:47Z</time>
      </trkpt>
      <trkpt lat="44.74753" lon="2.56608">
        <ele>548.6</ele>
        <time>2021-08-19T09:59:49Z</time>
      </trkpt>
      <trkpt lat="44.74755" lon="2.56614">
        <ele>548.6</ele>
        <time>2021-08-19T09:59:51Z</time>
      </trkpt>
      <trkpt lat="44.74758" lon="2.5662">
        <ele>548.9</ele>
        <time>2021-08-19T09:59:53Z</time>
      </trkpt>
      <trkpt lat="44.74759" lon="2.56625">
        <ele>548.8</ele>
        <time>2021-08-19T09:59:55Z</time>
      </trkpt>
      <trkpt lat="44.74761" lon="2.56631">
        <ele>548.6</ele>
        <time>2021-08-19T09:59:57Z</time>
      </trkpt>
      <trkpt lat="44.74762" lon="2.56638">
        <ele>548.2</ele>
        <time>2021-08-19T09:59:59Z</time>
      </trkpt>
      <trkpt lat="44.74761" lon="2.56644">
        <ele>547.2</ele>
        <time>2021-08-19T10:00:01Z</time>
      </trkpt>
      <trkpt lat="44.74762" lon="2.5665">
        <ele>546.5</ele>
        <time>2021-08-19T10:00:03Z</time>
      </trkpt>
      <trkpt lat="44.7476" lon="2.56656">
        <ele>545</ele>
        <time>2021-08-19T10:00:05Z</time>
      </trkpt>
      <trkpt lat="44.74759" lon="2.56662">
        <ele>543.3</ele>
        <time>2021-08-19T10:00:07Z</time>
      </trkpt>
      <trkpt lat="44.74758" lon="2.56668">
        <ele>542.7</ele>
        <time>2021-08-19T10:00:09Z</time>
      </trkpt>
      <trkpt lat="44.74757" lon="2.56673">
        <ele>542.6</ele>
        <time>2021-08-19T10:00:11Z</time>
      </trkpt>
      <trkpt lat="44.74755" lon="2.56679">
        <ele>542.3</ele>
        <time>2021-08-19T10:00:13Z</time>
      </trkpt>
      <trkpt lat="44.74754" lon="2.56684">
        <ele>542.4</ele>
        <time>2021-08-19T10:00:15Z</time>
      </trkpt>
      <trkpt lat="44.74753" lon="2.5669">
        <ele>542.7</ele>
        <time>2021-08-19T10:00:17Z</time>
      </trkpt>
      <trkpt lat="44.74751" lon="2.56696">
        <ele>542.6</ele>
        <time>2021-08-19T10:00:19Z</time>
      </trkpt>
      <trkpt lat="44.74749" lon="2.56701">
        <ele>542.3</ele>
        <time>2021-08-19T10:00:21Z</time>
      </trkpt>
      <trkpt lat="44.74748" lon="2.56707">
        <ele>542.3</ele>
        <time>2021-08-19T10:00:23Z</time>
      </trkpt>
      <trkpt lat="44.74746" lon="2.56713">
        <ele>542</ele>
        <time>2021-08-19T10:00:25Z</time>
      </trkpt>
      <trkpt lat="44.74745" lon="2.56719">
        <ele>542.2</ele>
        <time>2021-08-19T10:00:27Z</time>
      </trkpt>
      <trkpt lat="44.74744" lon="2.56724">
        <ele>542.3</ele>
        <time>2021-08-19T10:00:29Z</time>
      </trkpt>
      <trkpt lat="44.74743" lon="2.5673">
        <ele>542.3</ele>
        <time>2021-08-19T10:00:31Z</time>
      </trkpt>
      <trkpt lat="44.74741" lon="2.56735">
        <ele>542.3</ele>
        <time>2021-08-19T10:00:33Z</time>
      </trkpt>
      <trkpt lat="44.7474" lon="2.56741">
        <ele>541.9</ele>
        <time>2021-08-19T10:00:35Z</time>
      </trkpt>
      <trkpt lat="44.74738" lon="2.56747">
        <ele>541.9</ele>
        <time>2021-08-19T10:00:37Z</time>
      </trkpt>
      <trkpt lat="44.74737" lon="2.56754">
        <ele>541.7</ele>
        <time>2021-08-19T10:00:39Z</time>
      </trkpt>
      <trkpt lat="44.74735" lon="2.5676">
        <ele>541.3</ele>
        <time>2021-08-19T10:00:41Z</time>
      </trkpt>
      <trkpt lat="44.74733" lon="2.56765">
        <ele>540.9</ele>
        <time>2021-08-19T10:00:43Z</time>
      </trkpt>
      <trkpt lat="44.74731" lon="2.56772">
        <ele>540.7</ele>
        <time>2021-08-19T10:00:45Z</time>
      </trkpt>
      <trkpt lat="44.7473" lon="2.56778">
        <ele>540.6</ele>
        <time>2021-08-19T10:00:47Z</time>
      </trkpt>
      <trkpt lat="44.74729" lon="2.56784">
        <ele>540.4</ele>
        <time>2021-08-19T10:00:49Z</time>
      </trkpt>
      <trkpt lat="44.74728" lon="2.5679">
        <ele>540.5</ele>
        <time>2021-08-19T10:00:51Z</time>
      </trkpt>
      <trkpt lat="44.74727" lon="2.56797">
        <ele>540.8</ele>
        <time>2021-08-19T10:00:53Z</time>
      </trkpt>
      <trkpt lat="44.74725" lon="2.56803">
        <ele>540.4</ele>
        <time>2021-08-19T10:00:55Z</time>
      </trkpt>
      <trkpt lat="44.74724" lon="2.5681">
        <ele>540.8</ele>
        <time>2021-08-19T10:00:57Z</time>
      </trkpt>
      <trkpt lat="44.74723" lon="2.56816">
        <ele>540.9</ele>
        <time>2021-08-19T10:00:59Z</time>
      </trkpt>
      <trkpt lat="44.74722" lon="2.56823">
        <ele>541.1</ele>
        <time>2021-08-19T10:01:01Z</time>
      </trkpt>
      <trkpt lat="44.74722" lon="2.56829">
        <ele>541.7</ele>
        <time>2021-08-19T10:01:03Z</time>
      </trkpt>
      <trkpt lat="44.74722" lon="2.56836">
        <ele>541.9</ele>
        <time>2021-08-19T10:01:05Z</time>
      </trkpt>
      <trkpt lat="44.74722" lon="2.56842">
        <ele>541.2</ele>
        <time>2021-08-19T10:01:07Z</time>
      </trkpt>
      <trkpt lat="44.74722" lon="2.56849">
        <ele>540.6</ele>
        <time>2021-08-19T10:01:09Z</time>
      </trkpt>
      <trkpt lat="44.74723" lon="2.56855">
        <ele>540.1</ele>
        <time>2021-08-19T10:01:11Z</time>
      </trkpt>
      <trkpt lat="44.74723" lon="2.56862">
        <ele>539.5</ele>
        <time>2021-08-19T10:01:13Z</time>
      </trkpt>
      <trkpt lat="44.74724" lon="2.56868">
        <ele>539.2</ele>
        <time>2021-08-19T10:01:15Z</time>
      </trkpt>
      <trkpt lat="44.74725" lon="2.56874">
        <ele>539.1</ele>
        <time>2021-08-19T10:01:17Z</time>
      </trkpt>
      <trkpt lat="44.74727" lon="2.5688">
        <ele>539.5</ele>
        <time>2021-08-19T10:01:19Z</time>
      </trkpt>
      <trkpt lat="44.74729" lon="2.56885">
        <ele>539.7</ele>
        <time>2021-08-19T10:01:21Z</time>
      </trkpt>
      <trkpt lat="44.7473" lon="2.56891">
        <ele>539.9</ele>
        <time>2021-08-19T10:01:23Z</time>
      </trkpt>
      <trkpt lat="44.74732" lon="2.56896">
        <ele>540.1</ele>
        <time>2021-08-19T10:01:25Z</time>
      </trkpt>
      <trkpt lat="44.74734" lon="2.56901">
        <ele>540.6</ele>
        <time>2021-08-19T10:01:27Z</time>
      </trkpt>
      <trkpt lat="44.74736" lon="2.56907">
        <ele>540.8</ele>
        <time>2021-08-19T10:01:29Z</time>
      </trkpt>
      <trkpt lat="44.74738" lon="2.56912">
        <ele>541.2</ele>
        <time>2021-08-19T10:01:31Z</time>
      </trkpt>
      <trkpt lat="44.74739" lon="2.56917">
        <ele>541.3</ele>
        <time>2021-08-19T10:01:33Z</time>
      </trkpt>
      <trkpt lat="44.74741" lon="2.56922">
        <ele>541.4</ele>
        <time>2021-08-19T10:01:35Z</time>
      </trkpt>
      <trkpt lat="44.74743" lon="2.56927">
        <ele>541.4</ele>
        <time>2021-08-19T10:01:37Z</time>
      </trkpt>
      <trkpt lat="44.74746" lon="2.56932">
        <ele>541.6</ele>
        <time>2021-08-19T10:01:39Z</time>
      </trkpt>
      <trkpt lat="44.74748" lon="2.56937">
        <ele>541.6</ele>
        <time>2021-08-19T10:01:41Z</time>
      </trkpt>
      <trkpt lat="44.7475" lon="2.56942">
        <ele>541.5</ele>
        <time>2021-08-19T10:01:43Z</time>
      </trkpt>
      <trkpt lat="44.74753" lon="2.56947">
        <ele>541.1</ele>
        <time>2021-08-19T10:01:45Z</time>
      </trkpt>
      <trkpt lat="44.74755" lon="2.5695">
        <ele>540.8</ele>
        <time>2021-08-19T10:01:47Z</time>
      </trkpt>
      <trkpt lat="44.74759" lon="2.56953">
        <ele>540.8</ele>
        <time>2021-08-19T10:01:49Z</time>
      </trkpt>
      <trkpt lat="44.74762" lon="2.56955">
        <ele>540.9</ele>
        <time>2021-08-19T10:01:51Z</time>
      </trkpt>
      <trkpt lat="44.74765" lon="2.56956">
        <ele>541.4</ele>
        <time>2021-08-19T10:01:53Z</time>
      </trkpt>
      <trkpt lat="44.74769" lon="2.56957">
        <ele>542</ele>
        <time>2021-08-19T10:01:55Z</time>
      </trkpt>
      <trkpt lat="44.74772" lon="2.56956">
        <ele>542.9</ele>
        <time>2021-08-19T10:01:57Z</time>
      </trkpt>
      <trkpt lat="44.74776" lon="2.56956">
        <ele>543.7</ele>
        <time>2021-08-19T10:01:59Z</time>
      </trkpt>
      <trkpt lat="44.7478" lon="2.56955">
        <ele>544.5</ele>
        <time>2021-08-19T10:02:01Z</time>
      </trkpt>
      <trkpt lat="44.74783" lon="2.56955">
        <ele>545.4</ele>
        <time>2021-08-19T10:02:03Z</time>
      </trkpt>
      <trkpt lat="44.74786" lon="2.56954">
        <ele>546.4</ele>
        <time>2021-08-19T10:02:05Z</time>
      </trkpt>
      <trkpt lat="44.7479" lon="2.56953">
        <ele>547.2</ele>
        <time>2021-08-19T10:02:07Z</time>
      </trkpt>
      <trkpt lat="44.74794" lon="2.56953">
        <ele>548.1</ele>
        <time>2021-08-19T10:02:09Z</time>
      </trkpt>
      <trkpt lat="44.74797" lon="2.56952">
        <ele>548.9</ele>
        <time>2021-08-19T10:02:11Z</time>
      </trkpt>
      <trkpt lat="44.74801" lon="2.56952">
        <ele>549.9</ele>
        <time>2021-08-19T10:02:13Z</time>
      </trkpt>
      <trkpt lat="44.74804" lon="2.56951">
        <ele>550.9</ele>
        <time>2021-08-19T10:02:15Z</time>
      </trkpt>
      <trkpt lat="44.74809" lon="2.56951">
        <ele>551.8</ele>
        <time>2021-08-19T10:02:17Z</time>
      </trkpt>
      <trkpt lat="44.74812" lon="2.5695">
        <ele>552.7</ele>
        <time>2021-08-19T10:02:19Z</time>
      </trkpt>
      <trkpt lat="44.74816" lon="2.5695">
        <ele>553.6</ele>
        <time>2021-08-19T10:02:21Z</time>
      </trkpt>
      <trkpt lat="44.74819" lon="2.56949">
        <ele>554.4</ele>
        <time>2021-08-19T10:02:23Z</time>
      </trkpt>
      <trkpt lat="44.74822" lon="2.56948">
        <ele>555.5</ele>
        <time>2021-08-19T10:02:25Z</time>
      </trkpt>
      <trkpt lat="44.74827" lon="2.56948">
        <ele>556.7</ele>
        <time>2021-08-19T10:02:27Z</time>
      </trkpt>
      <trkpt lat="44.74831" lon="2.56946">
        <ele>558.1</ele>
        <time>2021-08-19T10:02:29Z</time>
      </trkpt>
      <trkpt lat="44.74835" lon="2.56945">
        <ele>559.1</ele>
        <time>2021-08-19T10:02:31Z</time>
      </trkpt>
      <trkpt lat="44.74839" lon="2.56944">
        <ele>559.4</ele>
        <time>2021-08-19T10:02:33Z</time>
      </trkpt>
      <trkpt lat="44.74843" lon="2.56943">
        <ele>559.8</ele>
        <time>2021-08-19T10:02:35Z</time>
      </trkpt>
      <trkpt lat="44.74847" lon="2.56942">
        <ele>560</ele>
        <time>2021-08-19T10:02:37Z</time>
      </trkpt>
      <trkpt lat="44.7485" lon="2.56941">
        <ele>560.6</ele>
        <time>2021-08-19T10:02:39Z</time>
      </trkpt>
      <trkpt lat="44.74854" lon="2.56939">
        <ele>561.3</ele>
        <time>2021-08-19T10:02:41Z</time>
      </trkpt>
      <trkpt lat="44.74859" lon="2.56936">
        <ele>562.1</ele>
        <time>2021-08-19T10:02:43Z</time>
      </trkpt>
      <trkpt lat="44.74863" lon="2.56935">
        <ele>562.4</ele>
        <time>2021-08-19T10:02:45Z</time>
      </trkpt>
      <trkpt lat="44.74867" lon="2.56932">
        <ele>563.3</ele>
        <time>2021-08-19T10:02:47Z</time>
      </trkpt>
      <trkpt lat="44.74871" lon="2.56929">
        <ele>564.2</ele>
        <time>2021-08-19T10:02:49Z</time>
      </trkpt>
      <trkpt lat="44.74875" lon="2.56927">
        <ele>565.1</ele>
        <time>2021-08-19T10:02:51Z</time>
      </trkpt>
      <trkpt lat="44.7488" lon="2.56925">
        <ele>565.5</ele>
        <time>2021-08-19T10:02:53Z</time>
      </trkpt>
      <trkpt lat="44.74883" lon="2.56923">
        <ele>566.1</ele>
        <time>2021-08-19T10:02:55Z</time>
      </trkpt>
      <trkpt lat="44.74885" lon="2.5692">
        <ele>567.1</ele>
        <time>2021-08-19T10:02:57Z</time>
      </trkpt>
      <trkpt lat="44.7489" lon="2.56916">
        <ele>568.1</ele>
        <time>2021-08-19T10:02:59Z</time>
      </trkpt>
      <trkpt lat="44.74895" lon="2.56914">
        <ele>568.6</ele>
        <time>2021-08-19T10:03:01Z</time>
      </trkpt>
      <trkpt lat="44.74898" lon="2.56912">
        <ele>569.2</ele>
        <time>2021-08-19T10:03:03Z</time>
      </trkpt>
      <trkpt lat="44.74903" lon="2.56909">
        <ele>570.2</ele>
        <time>2021-08-19T10:03:05Z</time>
      </trkpt>
      <trkpt lat="44.74907" lon="2.56907">
        <ele>570.7</ele>
        <time>2021-08-19T10:03:07Z</time>
      </trkpt>
      <trkpt lat="44.74911" lon="2.56906">
        <ele>571.1</ele>
        <time>2021-08-19T10:03:09Z</time>
      </trkpt>
      <trkpt lat="44.74915" lon="2.56905">
        <ele>571.5</ele>
        <time>2021-08-19T10:03:11Z</time>
      </trkpt>
      <trkpt lat="44.74919" lon="2.56904">
        <ele>572.2</ele>
        <time>2021-08-19T10:03:13Z</time>
      </trkpt>
      <trkpt lat="44.74924" lon="2.56903">
        <ele>573.2</ele>
        <time>2021-08-19T10:03:15Z</time>
      </trkpt>
      <trkpt lat="44.74929" lon="2.56903">
        <ele>574.1</ele>
        <time>2021-08-19T10:03:17Z</time>
      </trkpt>
      <trkpt lat="44.74932" lon="2.56901">
        <ele>575.3</ele>
        <time>2021-08-19T10:03:19Z</time>
      </trkpt>
      <trkpt lat="44.74936" lon="2.56901">
        <ele>575.9</ele>
        <time>2021-08-19T10:03:21Z</time>
      </trkpt>
      <trkpt lat="44.74942" lon="2.56901">
        <ele>576.9</ele>
        <time>2021-08-19T10:03:23Z</time>
      </trkpt>
      <trkpt lat="44.74946" lon="2.56901">
        <ele>577.4</ele>
        <time>2021-08-19T10:03:25Z</time>
      </trkpt>
      <trkpt lat="44.7495" lon="2.569">
        <ele>578.5</ele>
        <time>2021-08-19T10:03:27Z</time>
      </trkpt>
      <trkpt lat="44.74953" lon="2.569">
        <ele>579</ele>
        <time>2021-08-19T10:03:29Z</time>
      </trkpt>
      <trkpt lat="44.74958" lon="2.56901">
        <ele>579.7</ele>
        <time>2021-08-19T10:03:31Z</time>
      </trkpt>
      <trkpt lat="44.74962" lon="2.56901">
        <ele>580.1</ele>
        <time>2021-08-19T10:03:33Z</time>
      </trkpt>
      <trkpt lat="44.74966" lon="2.56901">
        <ele>580.9</ele>
        <time>2021-08-19T10:03:35Z</time>
      </trkpt>
      <trkpt lat="44.74971" lon="2.56902">
        <ele>581.2</ele>
        <time>2021-08-19T10:03:37Z</time>
      </trkpt>
      <trkpt lat="44.74975" lon="2.56904">
        <ele>581.5</ele>
        <time>2021-08-19T10:03:39Z</time>
      </trkpt>
      <trkpt lat="44.74981" lon="2.56906">
        <ele>581.7</ele>
        <time>2021-08-19T10:03:41Z</time>
      </trkpt>
      <trkpt lat="44.74985" lon="2.56908">
        <ele>581.9</ele>
        <time>2021-08-19T10:03:43Z</time>
      </trkpt>
      <trkpt lat="44.7499" lon="2.56911">
        <ele>581.8</ele>
        <time>2021-08-19T10:03:45Z</time>
      </trkpt>
      <trkpt lat="44.74994" lon="2.56915">
        <ele>581.4</ele>
        <time>2021-08-19T10:03:47Z</time>
      </trkpt>
      <trkpt lat="44.74998" lon="2.56919">
        <ele>581.3</ele>
        <time>2021-08-19T10:03:49Z</time>
      </trkpt>
      <trkpt lat="44.75" lon="2.56924">
        <ele>581.3</ele>
        <time>2021-08-19T10:03:51Z</time>
      </trkpt>
      <trkpt lat="44.75003" lon="2.56927">
        <ele>581.7</ele>
        <time>2021-08-19T10:03:53Z</time>
      </trkpt>
      <trkpt lat="44.75005" lon="2.56928">
        <ele>582.3</ele>
        <time>2021-08-19T10:03:55Z</time>
      </trkpt>
      <trkpt lat="44.75006" lon="2.56928">
        <ele>582.9</ele>
        <time>2021-08-19T10:03:57Z</time>
      </trkpt>
      <trkpt lat="44.75006" lon="2.56927">
        <ele>582.8</ele>
        <time>2021-08-19T10:03:59Z</time>
      </trkpt>
      <trkpt lat="44.75005" lon="2.56928">
        <ele>582.4</ele>
        <time>2021-08-19T10:04:01Z</time>
      </trkpt>
      <trkpt lat="44.75005" lon="2.56928">
        <ele>582.3</ele>
        <time>2021-08-19T10:04:03Z</time>
      </trkpt>
      <trkpt lat="44.75008" lon="2.56975">
        <ele>577.9</ele>
        <time>2021-08-19T10:09:59Z</time>
      </trkpt>
      <trkpt lat="44.75006" lon="2.56982">
        <ele>576.5</ele>
        <time>2021-08-19T10:10:01Z</time>
      </trkpt>
      <trkpt lat="44.75006" lon="2.56988">
        <ele>575.5</ele>
        <time>2021-08-19T10:10:03Z</time>
      </trkpt>
      <trkpt lat="44.75006" lon="2.56994">
        <ele>574.7</ele>
        <time>2021-08-19T10:10:05Z</time>
      </trkpt>
      <trkpt lat="44.75004" lon="2.56999">
        <ele>573.4</ele>
        <time>2021-08-19T10:10:07Z</time>
      </trkpt>
      <trkpt lat="44.75004" lon="2.57005">
        <ele>573</ele>
        <time>2021-08-19T10:10:09Z</time>
      </trkpt>
      <trkpt lat="44.75002" lon="2.5701">
        <ele>572.5</ele>
        <time>2021-08-19T10:10:11Z</time>
      </trkpt>
      <trkpt lat="44.75001" lon="2.57016">
        <ele>572.2</ele>
        <time>2021-08-19T10:10:13Z</time>
      </trkpt>
      <trkpt lat="44.75" lon="2.57022">
        <ele>571.5</ele>
        <time>2021-08-19T10:10:15Z</time>
      </trkpt>
      <trkpt lat="44.75" lon="2.57026">
        <ele>571.7</ele>
        <time>2021-08-19T10:10:17Z</time>
      </trkpt>
      <trkpt lat="44.74999" lon="2.57032">
        <ele>571.6</ele>
        <time>2021-08-19T10:10:19Z</time>
      </trkpt>
      <trkpt lat="44.74998" lon="2.57038">
        <ele>571.2</ele>
        <time>2021-08-19T10:10:21Z</time>
      </trkpt>
      <trkpt lat="44.74998" lon="2.57043">
        <ele>571.2</ele>
        <time>2021-08-19T10:10:23Z</time>
      </trkpt>
      <trkpt lat="44.74998" lon="2.57049">
        <ele>571.3</ele>
        <time>2021-08-19T10:10:25Z</time>
      </trkpt>
      <trkpt lat="44.74998" lon="2.57054">
        <ele>571.4</ele>
        <time>2021-08-19T10:10:27Z</time>
      </trkpt>
      <trkpt lat="44.74998" lon="2.5706">
        <ele>571.7</ele>
        <time>2021-08-19T10:10:29Z</time>
      </trkpt>
      <trkpt lat="44.74999" lon="2.57066">
        <ele>572</ele>
        <time>2021-08-19T10:10:31Z</time>
      </trkpt>
      <trkpt lat="44.75" lon="2.57071">
        <ele>572.6</ele>
        <time>2021-08-19T10:10:33Z</time>
      </trkpt>
      <trkpt lat="44.75001" lon="2.57078">
        <ele>573.2</ele>
        <time>2021-08-19T10:10:35Z</time>
      </trkpt>
      <trkpt lat="44.75001" lon="2.57083">
        <ele>573.7</ele>
        <time>2021-08-19T10:10:37Z</time>
      </trkpt>
      <trkpt lat="44.75003" lon="2.57089">
        <ele>574.7</ele>
        <time>2021-08-19T10:10:39Z</time>
      </trkpt>
      <trkpt lat="44.75003" lon="2.57095">
        <ele>575.5</ele>
        <time>2021-08-19T10:10:41Z</time>
      </trkpt>
      <trkpt lat="44.75004" lon="2.57101">
        <ele>576.4</ele>
        <time>2021-08-19T10:10:43Z</time>
      </trkpt>
      <trkpt lat="44.75005" lon="2.57107">
        <ele>577.1</ele>
        <time>2021-08-19T10:10:45Z</time>
      </trkpt>
      <trkpt lat="44.75005" lon="2.57113">
        <ele>577.2</ele>
        <time>2021-08-19T10:10:47Z</time>
      </trkpt>
      <trkpt lat="44.75005" lon="2.5712">
        <ele>577.8</ele>
        <time>2021-08-19T10:10:49Z</time>
      </trkpt>
      <trkpt lat="44.75005" lon="2.57127">
        <ele>578.2</ele>
        <time>2021-08-19T10:10:51Z</time>
      </trkpt>
      <trkpt lat="44.75004" lon="2.57133">
        <ele>578.1</ele>
        <time>2021-08-19T10:10:53Z</time>
      </trkpt>
      <trkpt lat="44.75003" lon="2.57139">
        <ele>578.3</ele>
        <time>2021-08-19T10:10:55Z</time>
      </trkpt>
      <trkpt lat="44.75003" lon="2.57146">
        <ele>578.7</ele>
        <time>2021-08-19T10:10:57Z</time>
      </trkpt>
      <trkpt lat="44.75002" lon="2.57152">
        <ele>578.9</ele>
        <time>2021-08-19T10:10:59Z</time>
      </trkpt>
      <trkpt lat="44.75003" lon="2.57158">
        <ele>579.4</ele>
        <time>2021-08-19T10:11:01Z</time>
      </trkpt>
      <trkpt lat="44.75002" lon="2.57165">
        <ele>579.4</ele>
        <time>2021-08-19T10:11:03Z</time>
      </trkpt>
      <trkpt lat="44.75001" lon="2.57171">
        <ele>579.2</ele>
        <time>2021-08-19T10:11:05Z</time>
      </trkpt>
      <trkpt lat="44.75" lon="2.57178">
        <ele>578.7</ele>
        <time>2021-08-19T10:11:07Z</time>
      </trkpt>
      <trkpt lat="44.75" lon="2.57184">
        <ele>578.2</ele>
        <time>2021-08-19T10:11:09Z</time>
      </trkpt>
      <trkpt lat="44.75" lon="2.5719">
        <ele>578</ele>
        <time>2021-08-19T10:11:11Z</time>
      </trkpt>
      <trkpt lat="44.75001" lon="2.57196">
        <ele>578.3</ele>
        <time>2021-08-19T10:11:13Z</time>
      </trkpt>
      <trkpt lat="44.75002" lon="2.57202">
        <ele>578.4</ele>
        <time>2021-08-19T10:11:15Z</time>
      </trkpt>
      <trkpt lat="44.75003" lon="2.57207">
        <ele>578.5</ele>
        <time>2021-08-19T10:11:17Z</time>
      </trkpt>
      <trkpt lat="44.75004" lon="2.57212">
        <ele>578.6</ele>
        <time>2021-08-19T10:11:19Z</time>
      </trkpt>
      <trkpt lat="44.75006" lon="2.57217">
        <ele>578.7</ele>
        <time>2021-08-19T10:11:21Z</time>
      </trkpt>
      <trkpt lat="44.75007" lon="2.57222">
        <ele>579</ele>
        <time>2021-08-19T10:11:23Z</time>
      </trkpt>
      <trkpt lat="44.75009" lon="2.57226">
        <ele>579.3</ele>
        <time>2021-08-19T10:11:25Z</time>
      </trkpt>
      <trkpt lat="44.75012" lon="2.5723">
        <ele>579.8</ele>
        <time>2021-08-19T10:11:27Z</time>
      </trkpt>
      <trkpt lat="44.75014" lon="2.57234">
        <ele>580.2</ele>
        <time>2021-08-19T10:11:29Z</time>
      </trkpt>
      <trkpt lat="44.75016" lon="2.57238">
        <ele>580.4</ele>
        <time>2021-08-19T10:11:31Z</time>
      </trkpt>
      <trkpt lat="44.75018" lon="2.57241">
        <ele>580.8</ele>
        <time>2021-08-19T10:11:33Z</time>
      </trkpt>
      <trkpt lat="44.7502" lon="2.57244">
        <ele>581.2</ele>
        <time>2021-08-19T10:11:35Z</time>
      </trkpt>
      <trkpt lat="44.75022" lon="2.57247">
        <ele>581.6</ele>
        <time>2021-08-19T10:11:37Z</time>
      </trkpt>
      <trkpt lat="44.75025" lon="2.5725">
        <ele>582</ele>
        <time>2021-08-19T10:11:39Z</time>
      </trkpt>
      <trkpt lat="44.75028" lon="2.57253">
        <ele>581.9</ele>
        <time>2021-08-19T10:11:41Z</time>
      </trkpt>
      <trkpt lat="44.75029" lon="2.57256">
        <ele>581.7</ele>
        <time>2021-08-19T10:11:43Z</time>
      </trkpt>
      <trkpt lat="44.75033" lon="2.57257">
        <ele>582.3</ele>
        <time>2021-08-19T10:11:45Z</time>
      </trkpt>
      <trkpt lat="44.75036" lon="2.5726">
        <ele>582.4</ele>
        <time>2021-08-19T10:11:47Z</time>
      </trkpt>
      <trkpt lat="44.7504" lon="2.57262">
        <ele>582.9</ele>
        <time>2021-08-19T10:11:49Z</time>
      </trkpt>
      <trkpt lat="44.75043" lon="2.57263">
        <ele>583.3</ele>
        <time>2021-08-19T10:11:51Z</time>
      </trkpt>
      <trkpt lat="44.75047" lon="2.57264">
        <ele>583.9</ele>
        <time>2021-08-19T10:11:53Z</time>
      </trkpt>
      <trkpt lat="44.75051" lon="2.57265">
        <ele>584.7</ele>
        <time>2021-08-19T10:11:55Z</time>
      </trkpt>
      <trkpt lat="44.75054" lon="2.57264">
        <ele>585.6</ele>
        <time>2021-08-19T10:11:57Z</time>
      </trkpt>
      <trkpt lat="44.75058" lon="2.57263">
        <ele>586.7</ele>
        <time>2021-08-19T10:11:59Z</time>
      </trkpt>
      <trkpt lat="44.75063" lon="2.57261">
        <ele>588.2</ele>
        <time>2021-08-19T10:12:01Z</time>
      </trkpt>
      <trkpt lat="44.75067" lon="2.5726">
        <ele>589.5</ele>
        <time>2021-08-19T10:12:03Z</time>
      </trkpt>
      <trkpt lat="44.75071" lon="2.57259">
        <ele>590.8</ele>
        <time>2021-08-19T10:12:05Z</time>
      </trkpt>
      <trkpt lat="44.75075" lon="2.57257">
        <ele>592.3</ele>
        <time>2021-08-19T10:12:07Z</time>
      </trkpt>
      <trkpt lat="44.75079" lon="2.57255">
        <ele>593.6</ele>
        <time>2021-08-19T10:12:09Z</time>
      </trkpt>
      <trkpt lat="44.75082" lon="2.57253">
        <ele>594.8</ele>
        <time>2021-08-19T10:12:11Z</time>
      </trkpt>
      <trkpt lat="44.75087" lon="2.57251">
        <ele>596</ele>
        <time>2021-08-19T10:12:13Z</time>
      </trkpt>
      <trkpt lat="44.75091" lon="2.57251">
        <ele>596.4</ele>
        <time>2021-08-19T10:12:15Z</time>
      </trkpt>
      <trkpt lat="44.75095" lon="2.57251">
        <ele>596.9</ele>
        <time>2021-08-19T10:12:17Z</time>
      </trkpt>
      <trkpt lat="44.75099" lon="2.57253">
        <ele>596.9</ele>
        <time>2021-08-19T10:12:19Z</time>
      </trkpt>
      <trkpt lat="44.75102" lon="2.57256">
        <ele>596.6</ele>
        <time>2021-08-19T10:12:21Z</time>
      </trkpt>
      <trkpt lat="44.75107" lon="2.57259">
        <ele>596.1</ele>
        <time>2021-08-19T10:12:23Z</time>
      </trkpt>
      <trkpt lat="44.75111" lon="2.57265">
        <ele>595.2</ele>
        <time>2021-08-19T10:12:25Z</time>
      </trkpt>
      <trkpt lat="44.75115" lon="2.5727">
        <ele>594.3</ele>
        <time>2021-08-19T10:12:27Z</time>
      </trkpt>
      <trkpt lat="44.75118" lon="2.57275">
        <ele>593.5</ele>
        <time>2021-08-19T10:12:29Z</time>
      </trkpt>
      <trkpt lat="44.75122" lon="2.57281">
        <ele>592.6</ele>
        <time>2021-08-19T10:12:31Z</time>
      </trkpt>
      <trkpt lat="44.75124" lon="2.57287">
        <ele>591.4</ele>
        <time>2021-08-19T10:12:33Z</time>
      </trkpt>
      <trkpt lat="44.75128" lon="2.57291">
        <ele>590.7</ele>
        <time>2021-08-19T10:12:35Z</time>
      </trkpt>
      <trkpt lat="44.7513" lon="2.57297">
        <ele>589.6</ele>
        <time>2021-08-19T10:12:37Z</time>
      </trkpt>
      <trkpt lat="44.75133" lon="2.57302">
        <ele>588.8</ele>
        <time>2021-08-19T10:12:39Z</time>
      </trkpt>
      <trkpt lat="44.75137" lon="2.57308">
        <ele>588</ele>
        <time>2021-08-19T10:12:41Z</time>
      </trkpt>
      <trkpt lat="44.7514" lon="2.57313">
        <ele>587.3</ele>
        <time>2021-08-19T10:12:43Z</time>
      </trkpt>
      <trkpt lat="44.75143" lon="2.57318">
        <ele>586.7</ele>
        <time>2021-08-19T10:12:45Z</time>
      </trkpt>
      <trkpt lat="44.75148" lon="2.57322">
        <ele>586.5</ele>
        <time>2021-08-19T10:12:47Z</time>
      </trkpt>
      <trkpt lat="44.75154" lon="2.57324">
        <ele>587</ele>
        <time>2021-08-19T10:12:49Z</time>
      </trkpt>
      <trkpt lat="44.75157" lon="2.57326">
        <ele>586.9</ele>
        <time>2021-08-19T10:12:51Z</time>
      </trkpt>
      <trkpt lat="44.75161" lon="2.57327">
        <ele>587.6</ele>
        <time>2021-08-19T10:12:53Z</time>
      </trkpt>
      <trkpt lat="44.75166" lon="2.57325">
        <ele>588.6</ele>
        <time>2021-08-19T10:12:55Z</time>
      </trkpt>
      <trkpt lat="44.75172" lon="2.57325">
        <ele>589.2</ele>
        <time>2021-08-19T10:12:57Z</time>
      </trkpt>
      <trkpt lat="44.75177" lon="2.57324">
        <ele>589.9</ele>
        <time>2021-08-19T10:12:59Z</time>
      </trkpt>
      <trkpt lat="44.75181" lon="2.57322">
        <ele>590.6</ele>
        <time>2021-08-19T10:13:01Z</time>
      </trkpt>
      <trkpt lat="44.75185" lon="2.57321">
        <ele>591.3</ele>
        <time>2021-08-19T10:13:03Z</time>
      </trkpt>
      <trkpt lat="44.7519" lon="2.57319">
        <ele>591.9</ele>
        <time>2021-08-19T10:13:05Z</time>
      </trkpt>
      <trkpt lat="44.75193" lon="2.57317">
        <ele>592.6</ele>
        <time>2021-08-19T10:13:07Z</time>
      </trkpt>
      <trkpt lat="44.75197" lon="2.57314">
        <ele>593.6</ele>
        <time>2021-08-19T10:13:09Z</time>
      </trkpt>
      <trkpt lat="44.75201" lon="2.57312">
        <ele>594.3</ele>
        <time>2021-08-19T10:13:11Z</time>
      </trkpt>
      <trkpt lat="44.75206" lon="2.5731">
        <ele>595.3</ele>
        <time>2021-08-19T10:13:13Z</time>
      </trkpt>
      <trkpt lat="44.7521" lon="2.57307">
        <ele>596.2</ele>
        <time>2021-08-19T10:13:15Z</time>
      </trkpt>
      <trkpt lat="44.75214" lon="2.57302">
        <ele>597.5</ele>
        <time>2021-08-19T10:13:17Z</time>
      </trkpt>
      <trkpt lat="44.75219" lon="2.573">
        <ele>598.4</ele>
        <time>2021-08-19T10:13:19Z</time>
      </trkpt>
      <trkpt lat="44.75224" lon="2.57297">
        <ele>599.4</ele>
        <time>2021-08-19T10:13:21Z</time>
      </trkpt>
      <trkpt lat="44.75229" lon="2.57295">
        <ele>600.1</ele>
        <time>2021-08-19T10:13:23Z</time>
      </trkpt>
      <trkpt lat="44.75234" lon="2.57293">
        <ele>600.9</ele>
        <time>2021-08-19T10:13:25Z</time>
      </trkpt>
      <trkpt lat="44.75237" lon="2.57292">
        <ele>601.5</ele>
        <time>2021-08-19T10:13:27Z</time>
      </trkpt>
      <trkpt lat="44.75242" lon="2.57289">
        <ele>602.4</ele>
        <time>2021-08-19T10:13:29Z</time>
      </trkpt>
      <trkpt lat="44.75245" lon="2.57286">
        <ele>603.2</ele>
        <time>2021-08-19T10:13:31Z</time>
      </trkpt>
      <trkpt lat="44.75251" lon="2.57287">
        <ele>603.6</ele>
        <time>2021-08-19T10:13:33Z</time>
      </trkpt>
      <trkpt lat="44.75258" lon="2.5729">
        <ele>604.2</ele>
        <time>2021-08-19T10:13:35Z</time>
      </trkpt>
      <trkpt lat="44.75265" lon="2.57297">
        <ele>604.2</ele>
        <time>2021-08-19T10:13:37Z</time>
      </trkpt>
      <trkpt lat="44.7527" lon="2.57304">
        <ele>603.6</ele>
        <time>2021-08-19T10:13:39Z</time>
      </trkpt>
      <trkpt lat="44.75272" lon="2.57312">
        <ele>602.4</ele>
        <time>2021-08-19T10:13:41Z</time>
      </trkpt>
      <trkpt lat="44.75276" lon="2.57317">
        <ele>602.2</ele>
        <time>2021-08-19T10:13:43Z</time>
      </trkpt>
      <trkpt lat="44.7528" lon="2.57321">
        <ele>602.3</ele>
        <time>2021-08-19T10:13:45Z</time>
      </trkpt>
      <trkpt lat="44.75285" lon="2.57324">
        <ele>602.4</ele>
        <time>2021-08-19T10:13:47Z</time>
      </trkpt>
      <trkpt lat="44.75289" lon="2.57325">
        <ele>603.1</ele>
        <time>2021-08-19T10:13:49Z</time>
      </trkpt>
      <trkpt lat="44.75296" lon="2.57328">
        <ele>603.7</ele>
        <time>2021-08-19T10:13:51Z</time>
      </trkpt>
      <trkpt lat="44.753" lon="2.57329">
        <ele>604.5</ele>
        <time>2021-08-19T10:13:53Z</time>
      </trkpt>
      <trkpt lat="44.75305" lon="2.57332">
        <ele>604.9</ele>
        <time>2021-08-19T10:13:55Z</time>
      </trkpt>
      <trkpt lat="44.75311" lon="2.57334">
        <ele>605.5</ele>
        <time>2021-08-19T10:13:57Z</time>
      </trkpt>
      <trkpt lat="44.75314" lon="2.57338">
        <ele>605.2</ele>
        <time>2021-08-19T10:13:59Z</time>
      </trkpt>
      <trkpt lat="44.7532" lon="2.57345">
        <ele>605</ele>
        <time>2021-08-19T10:14:01Z</time>
      </trkpt>
      <trkpt lat="44.75323" lon="2.57352">
        <ele>604.3</ele>
        <time>2021-08-19T10:14:03Z</time>
      </trkpt>
      <trkpt lat="44.75325" lon="2.57359">
        <ele>603.3</ele>
        <time>2021-08-19T10:14:05Z</time>
      </trkpt>
      <trkpt lat="44.7533" lon="2.57366">
        <ele>603.3</ele>
        <time>2021-08-19T10:14:07Z</time>
      </trkpt>
      <trkpt lat="44.75334" lon="2.57372">
        <ele>603.1</ele>
        <time>2021-08-19T10:14:09Z</time>
      </trkpt>
      <trkpt lat="44.75337" lon="2.57378">
        <ele>602.5</ele>
        <time>2021-08-19T10:14:11Z</time>
      </trkpt>
      <trkpt lat="44.75337" lon="2.57383">
        <ele>601.6</ele>
        <time>2021-08-19T10:14:13Z</time>
      </trkpt>
      <trkpt lat="44.75341" lon="2.57388">
        <ele>601.2</ele>
        <time>2021-08-19T10:14:15Z</time>
      </trkpt>
      <trkpt lat="44.75346" lon="2.57393">
        <ele>601.1</ele>
        <time>2021-08-19T10:14:17Z</time>
      </trkpt>
      <trkpt lat="44.7535" lon="2.57396">
        <ele>601.2</ele>
        <time>2021-08-19T10:14:19Z</time>
      </trkpt>
      <trkpt lat="44.75355" lon="2.57398">
        <ele>601.4</ele>
        <time>2021-08-19T10:14:21Z</time>
      </trkpt>
      <trkpt lat="44.75361" lon="2.57399">
        <ele>602.2</ele>
        <time>2021-08-19T10:14:23Z</time>
      </trkpt>
      <trkpt lat="44.75366" lon="2.574">
        <ele>602.8</ele>
        <time>2021-08-19T10:14:25Z</time>
      </trkpt>
      <trkpt lat="44.75371" lon="2.57401">
        <ele>603.1</ele>
        <time>2021-08-19T10:14:27Z</time>
      </trkpt>
      <trkpt lat="44.75376" lon="2.57401">
        <ele>603.9</ele>
        <time>2021-08-19T10:14:29Z</time>
      </trkpt>
      <trkpt lat="44.75379" lon="2.57401">
        <ele>604.3</ele>
        <time>2021-08-19T10:14:31Z</time>
      </trkpt>
      <trkpt lat="44.75384" lon="2.57402">
        <ele>604.8</ele>
        <time>2021-08-19T10:14:33Z</time>
      </trkpt>
      <trkpt lat="44.75388" lon="2.57402">
        <ele>605.5</ele>
        <time>2021-08-19T10:14:35Z</time>
      </trkpt>
      <trkpt lat="44.75394" lon="2.57402">
        <ele>606.2</ele>
        <time>2021-08-19T10:14:37Z</time>
      </trkpt>
      <trkpt lat="44.75398" lon="2.57401">
        <ele>607.1</ele>
        <time>2021-08-19T10:14:39Z</time>
      </trkpt>
      <trkpt lat="44.75403" lon="2.57401">
        <ele>607.7</ele>
        <time>2021-08-19T10:14:41Z</time>
      </trkpt>
      <trkpt lat="44.75408" lon="2.57403">
        <ele>608.1</ele>
        <time>2021-08-19T10:14:43Z</time>
      </trkpt>
      <trkpt lat="44.75413" lon="2.57405">
        <ele>608.1</ele>
        <time>2021-08-19T10:14:45Z</time>
      </trkpt>
      <trkpt lat="44.75417" lon="2.57409">
        <ele>608</ele>
        <time>2021-08-19T10:14:47Z</time>
      </trkpt>
      <trkpt lat="44.75422" lon="2.57412">
        <ele>608.1</ele>
        <time>2021-08-19T10:14:49Z</time>
      </trkpt>
      <trkpt lat="44.75426" lon="2.57415">
        <ele>608.2</ele>
        <time>2021-08-19T10:14:51Z</time>
      </trkpt>
      <trkpt lat="44.7543" lon="2.57417">
        <ele>608.3</ele>
        <time>2021-08-19T10:14:53Z</time>
      </trkpt>
      <trkpt lat="44.75435" lon="2.57419">
        <ele>608.6</ele>
        <time>2021-08-19T10:14:55Z</time>
      </trkpt>
      <trkpt lat="44.75439" lon="2.57421">
        <ele>609</ele>
        <time>2021-08-19T10:14:57Z</time>
      </trkpt>
      <trkpt lat="44.75444" lon="2.57422">
        <ele>609.6</ele>
        <time>2021-08-19T10:14:59Z</time>
      </trkpt>
      <trkpt lat="44.75448" lon="2.57423">
        <ele>610</ele>
        <time>2021-08-19T10:15:01Z</time>
      </trkpt>
      <trkpt lat="44.75453" lon="2.57425">
        <ele>610.5</ele>
        <time>2021-08-19T10:15:03Z</time>
      </trkpt>
      <trkpt lat="44.75458" lon="2.57426">
        <ele>611.1</ele>
        <time>2021-08-19T10:15:05Z</time>
      </trkpt>
      <trkpt lat="44.75463" lon="2.57427">
        <ele>611.7</ele>
        <time>2021-08-19T10:15:07Z</time>
      </trkpt>
      <trkpt lat="44.75467" lon="2.57428">
        <ele>612.4</ele>
        <time>2021-08-19T10:15:09Z</time>
      </trkpt>
      <trkpt lat="44.75472" lon="2.57429">
        <ele>613</ele>
        <time>2021-08-19T10:15:11Z</time>
      </trkpt>
      <trkpt lat="44.75476" lon="2.5743">
        <ele>613.7</ele>
        <time>2021-08-19T10:15:13Z</time>
      </trkpt>
      <trkpt lat="44.7548" lon="2.57432">
        <ele>613.9</ele>
        <time>2021-08-19T10:15:15Z</time>
      </trkpt>
      <trkpt lat="44.75482" lon="2.57433">
        <ele>614.1</ele>
        <time>2021-08-19T10:15:17Z</time>
      </trkpt>
      <trkpt lat="44.75486" lon="2.57436">
        <ele>614.2</ele>
        <time>2021-08-19T10:15:19Z</time>
      </trkpt>
      <trkpt lat="44.75488" lon="2.57439">
        <ele>614</ele>
        <time>2021-08-19T10:15:21Z</time>
      </trkpt>
      <trkpt lat="44.75491" lon="2.57441">
        <ele>613.9</ele>
        <time>2021-08-19T10:15:23Z</time>
      </trkpt>
      <trkpt lat="44.75493" lon="2.57443">
        <ele>613.8</ele>
        <time>2021-08-19T10:15:25Z</time>
      </trkpt>
      <trkpt lat="44.75495" lon="2.57446">
        <ele>613.5</ele>
        <time>2021-08-19T10:15:27Z</time>
      </trkpt>
      <trkpt lat="44.75497" lon="2.57448">
        <ele>613.5</ele>
        <time>2021-08-19T10:15:29Z</time>
      </trkpt>
      <trkpt lat="44.75498" lon="2.57447">
        <ele>614.1</ele>
        <time>2021-08-19T10:15:31Z</time>
      </trkpt>
      <trkpt lat="44.75498" lon="2.57446">
        <ele>614.3</ele>
        <time>2021-08-19T10:15:33Z</time>
      </trkpt>
      <trkpt lat="44.75498" lon="2.57447">
        <ele>614.2</ele>
        <time>2021-08-19T10:15:35Z</time>
      </trkpt>
      <trkpt lat="44.75498" lon="2.57446">
        <ele>614.3</ele>
        <time>2021-08-19T10:15:37Z</time>
      </trkpt>
      <trkpt lat="44.75503" lon="2.57471">
        <ele>610.3</ele>
        <time>2021-08-19T12:32:07Z</time>
      </trkpt>
      <trkpt lat="44.75504" lon="2.57473">
        <ele>610.1</ele>
        <time>2021-08-19T12:32:09Z</time>
      </trkpt>
      <trkpt lat="44.75505" lon="2.57474">
        <ele>610.1</ele>
        <time>2021-08-19T12:32:11Z</time>
      </trkpt>
      <trkpt lat="44.75507" lon="2.57477">
        <ele>609.8</ele>
        <time>2021-08-19T12:32:13Z</time>
      </trkpt>
      <trkpt lat="44.75509" lon="2.57479">
        <ele>610.2</ele>
        <time>2021-08-19T12:32:15Z</time>
      </trkpt>
      <trkpt lat="44.75511" lon="2.57481">
        <ele>610.2</ele>
        <time>2021-08-19T12:32:17Z</time>
      </trkpt>
      <trkpt lat="44.75512" lon="2.57484">
        <ele>610</ele>
        <time>2021-08-19T12:32:19Z</time>
      </trkpt>
      <trkpt lat="44.75514" lon="2.57486">
        <ele>610.2</ele>
        <time>2021-08-19T12:32:21Z</time>
      </trkpt>
      <trkpt lat="44.75517" lon="2.57489">
        <ele>610.1</ele>
        <time>2021-08-19T12:32:23Z</time>
      </trkpt>
      <trkpt lat="44.75519" lon="2.57494">
        <ele>609.9</ele>
        <time>2021-08-19T12:32:25Z</time>
      </trkpt>
      <trkpt lat="44.75521" lon="2.57498">
        <ele>609.9</ele>
        <time>2021-08-19T12:32:27Z</time>
      </trkpt>
      <trkpt lat="44.75524" lon="2.57502">
        <ele>610.1</ele>
        <time>2021-08-19T12:32:29Z</time>
      </trkpt>
      <trkpt lat="44.75527" lon="2.57509">
        <ele>610.7</ele>
        <time>2021-08-19T12:32:31Z</time>
      </trkpt>
      <trkpt lat="44.7553" lon="2.57516">
        <ele>611.3</ele>
        <time>2021-08-19T12:32:33Z</time>
      </trkpt>
      <trkpt lat="44.75532" lon="2.57523">
        <ele>611.6</ele>
        <time>2021-08-19T12:32:35Z</time>
      </trkpt>
      <trkpt lat="44.75534" lon="2.57531">
        <ele>611.8</ele>
        <time>2021-08-19T12:32:37Z</time>
      </trkpt>
      <trkpt lat="44.75533" lon="2.57542">
        <ele>611.1</ele>
        <time>2021-08-19T12:32:39Z</time>
      </trkpt>
      <trkpt lat="44.75529" lon="2.57552">
        <ele>609.6</ele>
        <time>2021-08-19T12:32:41Z</time>
      </trkpt>
      <trkpt lat="44.75524" lon="2.57559">
        <ele>608.1</ele>
        <time>2021-08-19T12:32:43Z</time>
      </trkpt>
      <trkpt lat="44.75519" lon="2.57565">
        <ele>606.7</ele>
        <time>2021-08-19T12:32:45Z</time>
      </trkpt>
      <trkpt lat="44.75514" lon="2.57571">
        <ele>605.4</ele>
        <time>2021-08-19T12:32:47Z</time>
      </trkpt>
      <trkpt lat="44.75511" lon="2.57575">
        <ele>604.6</ele>
        <time>2021-08-19T12:32:49Z</time>
      </trkpt>
      <trkpt lat="44.75508" lon="2.57576">
        <ele>603.9</ele>
        <time>2021-08-19T12:32:51Z</time>
      </trkpt>
      <trkpt lat="44.75506" lon="2.57577">
        <ele>603.5</ele>
        <time>2021-08-19T12:32:53Z</time>
      </trkpt>
      <trkpt lat="44.75506" lon="2.57578">
        <ele>603.4</ele>
        <time>2021-08-19T12:32:55Z</time>
      </trkpt>
      <trkpt lat="44.75506" lon="2.57578">
        <ele>603.4</ele>
        <time>2021-08-19T12:32:57Z</time>
      </trkpt>
      <trkpt lat="44.75505" lon="2.57579">
        <ele>603.3</ele>
        <time>2021-08-19T12:32:59Z</time>
      </trkpt>
      <trkpt lat="44.75505" lon="2.57579">
        <ele>603.2</ele>
        <time>2021-08-19T12:33:01Z</time>
      </trkpt>
      <trkpt lat="44.75496" lon="2.57587">
        <ele>601.6</ele>
        <time>2021-08-19T12:33:11Z</time>
      </trkpt>
      <trkpt lat="44.75492" lon="2.57589">
        <ele>601.1</ele>
        <time>2021-08-19T12:33:13Z</time>
      </trkpt>
      <trkpt lat="44.75488" lon="2.57592">
        <ele>600.7</ele>
        <time>2021-08-19T12:33:15Z</time>
      </trkpt>
      <trkpt lat="44.75484" lon="2.57595">
        <ele>600.3</ele>
        <time>2021-08-19T12:33:17Z</time>
      </trkpt>
      <trkpt lat="44.7548" lon="2.57598">
        <ele>599.9</ele>
        <time>2021-08-19T12:33:19Z</time>
      </trkpt>
      <trkpt lat="44.75477" lon="2.576">
        <ele>599.6</ele>
        <time>2021-08-19T12:33:21Z</time>
      </trkpt>
      <trkpt lat="44.75474" lon="2.57604">
        <ele>599.3</ele>
        <time>2021-08-19T12:33:23Z</time>
      </trkpt>
      <trkpt lat="44.75469" lon="2.57607">
        <ele>598.9</ele>
        <time>2021-08-19T12:33:25Z</time>
      </trkpt>
      <trkpt lat="44.75465" lon="2.57611">
        <ele>598.4</ele>
        <time>2021-08-19T12:33:27Z</time>
      </trkpt>
      <trkpt lat="44.7546" lon="2.57614">
        <ele>597.9</ele>
        <time>2021-08-19T12:33:29Z</time>
      </trkpt>
      <trkpt lat="44.75454" lon="2.5762">
        <ele>597.5</ele>
        <time>2021-08-19T12:33:31Z</time>
      </trkpt>
      <trkpt lat="44.75449" lon="2.57624">
        <ele>597.1</ele>
        <time>2021-08-19T12:33:33Z</time>
      </trkpt>
      <trkpt lat="44.75445" lon="2.57627">
        <ele>596.8</ele>
        <time>2021-08-19T12:33:35Z</time>
      </trkpt>
      <trkpt lat="44.75441" lon="2.57631">
        <ele>596.5</ele>
        <time>2021-08-19T12:33:37Z</time>
      </trkpt>
      <trkpt lat="44.75438" lon="2.57635">
        <ele>596.4</ele>
        <time>2021-08-19T12:33:39Z</time>
      </trkpt>
      <trkpt lat="44.75435" lon="2.57636">
        <ele>596</ele>
        <time>2021-08-19T12:33:41Z</time>
      </trkpt>
      <trkpt lat="44.75432" lon="2.57637">
        <ele>595.8</ele>
        <time>2021-08-19T12:33:43Z</time>
      </trkpt>
      <trkpt lat="44.75429" lon="2.57637">
        <ele>595.3</ele>
        <time>2021-08-19T12:33:45Z</time>
      </trkpt>
      <trkpt lat="44.75426" lon="2.57638">
        <ele>594.8</ele>
        <time>2021-08-19T12:33:47Z</time>
      </trkpt>
      <trkpt lat="44.75422" lon="2.57639">
        <ele>594.3</ele>
        <time>2021-08-19T12:33:49Z</time>
      </trkpt>
      <trkpt lat="44.75417" lon="2.5764">
        <ele>593.8</ele>
        <time>2021-08-19T12:33:51Z</time>
      </trkpt>
      <trkpt lat="44.75412" lon="2.57641">
        <ele>593.2</ele>
        <time>2021-08-19T12:33:53Z</time>
      </trkpt>
      <trkpt lat="44.75409" lon="2.57642">
        <ele>592.7</ele>
        <time>2021-08-19T12:33:55Z</time>
      </trkpt>
      <trkpt lat="44.75408" lon="2.57642">
        <ele>592.5</ele>
        <time>2021-08-19T12:33:57Z</time>
      </trkpt>
      <trkpt lat="44.75408" lon="2.57641">
        <ele>592.4</ele>
        <time>2021-08-19T12:33:59Z</time>
      </trkpt>
      <trkpt lat="44.75407" lon="2.5764">
        <ele>592.4</ele>
        <time>2021-08-19T12:34:01Z</time>
      </trkpt>
      <trkpt lat="44.75407" lon="2.5764">
        <ele>592.3</ele>
        <time>2021-08-19T12:34:03Z</time>
      </trkpt>
      <trkpt lat="44.75407" lon="2.5764">
        <ele>592.3</ele>
        <time>2021-08-19T12:34:05Z</time>
      </trkpt>
      <trkpt lat="44.75467" lon="2.57632">
        <ele>600.3</ele>
        <time>2021-08-19T12:42:35Z</time>
      </trkpt>
      <trkpt lat="44.75469" lon="2.57632">
        <ele>600.5</ele>
        <time>2021-08-19T12:42:37Z</time>
      </trkpt>
      <trkpt lat="44.75471" lon="2.57633">
        <ele>600.8</ele>
        <time>2021-08-19T12:42:39Z</time>
      </trkpt>
      <trkpt lat="44.75473" lon="2.57633">
        <ele>601.2</ele>
        <time>2021-08-19T12:42:41Z</time>
      </trkpt>
      <trkpt lat="44.75476" lon="2.57634">
        <ele>601.6</ele>
        <time>2021-08-19T12:42:43Z</time>
      </trkpt>
      <trkpt lat="44.75478" lon="2.57633">
        <ele>601.8</ele>
        <time>2021-08-19T12:42:45Z</time>
      </trkpt>
      <trkpt lat="44.75479" lon="2.57633">
        <ele>602</ele>
        <time>2021-08-19T12:42:47Z</time>
      </trkpt>
      <trkpt lat="44.7548" lon="2.57636">
        <ele>602.4</ele>
        <time>2021-08-19T12:42:49Z</time>
      </trkpt>
      <trkpt lat="44.75481" lon="2.57641">
        <ele>602.8</ele>
        <time>2021-08-19T12:42:51Z</time>
      </trkpt>
      <trkpt lat="44.75482" lon="2.57645">
        <ele>603.2</ele>
        <time>2021-08-19T12:42:53Z</time>
      </trkpt>
      <trkpt lat="44.75483" lon="2.57649">
        <ele>603.6</ele>
        <time>2021-08-19T12:42:55Z</time>
      </trkpt>
      <trkpt lat="44.75485" lon="2.57653">
        <ele>604.1</ele>
        <time>2021-08-19T12:42:57Z</time>
      </trkpt>
      <trkpt lat="44.75486" lon="2.57657">
        <ele>604.5</ele>
        <time>2021-08-19T12:42:59Z</time>
      </trkpt>
      <trkpt lat="44.75487" lon="2.57661">
        <ele>605</ele>
        <time>2021-08-19T12:43:01Z</time>
      </trkpt>
      <trkpt lat="44.7549" lon="2.57664">
        <ele>605.5</ele>
        <time>2021-08-19T12:43:03Z</time>
      </trkpt>
      <trkpt lat="44.75492" lon="2.57668">
        <ele>605.8</ele>
        <time>2021-08-19T12:43:05Z</time>
      </trkpt>
      <trkpt lat="44.75494" lon="2.57672">
        <ele>605.8</ele>
        <time>2021-08-19T12:43:07Z</time>
      </trkpt>
      <trkpt lat="44.75496" lon="2.57676">
        <ele>605.7</ele>
        <time>2021-08-19T12:43:09Z</time>
      </trkpt>
      <trkpt lat="44.75498" lon="2.57681">
        <ele>605.6</ele>
        <time>2021-08-19T12:43:11Z</time>
      </trkpt>
      <trkpt lat="44.75501" lon="2.57683">
        <ele>605.8</ele>
        <time>2021-08-19T12:43:13Z</time>
      </trkpt>
      <trkpt lat="44.75504" lon="2.57687">
        <ele>605.7</ele>
        <time>2021-08-19T12:43:15Z</time>
      </trkpt>
      <trkpt lat="44.75506" lon="2.57691">
        <ele>605.7</ele>
        <time>2021-08-19T12:43:17Z</time>
      </trkpt>
      <trkpt lat="44.75509" lon="2.57694">
        <ele>605.8</ele>
        <time>2021-08-19T12:43:19Z</time>
      </trkpt>
      <trkpt lat="44.75512" lon="2.57697">
        <ele>605.9</ele>
        <time>2021-08-19T12:43:21Z</time>
      </trkpt>
      <trkpt lat="44.75515" lon="2.577">
        <ele>605.9</ele>
        <time>2021-08-19T12:43:23Z</time>
      </trkpt>
      <trkpt lat="44.75518" lon="2.57703">
        <ele>606</ele>
        <time>2021-08-19T12:43:25Z</time>
      </trkpt>
      <trkpt lat="44.75521" lon="2.57706">
        <ele>606.2</ele>
        <time>2021-08-19T12:43:27Z</time>
      </trkpt>
      <trkpt lat="44.75524" lon="2.57709">
        <ele>606.2</ele>
        <time>2021-08-19T12:43:29Z</time>
      </trkpt>
      <trkpt lat="44.75527" lon="2.57712">
        <ele>606.4</ele>
        <time>2021-08-19T12:43:31Z</time>
      </trkpt>
      <trkpt lat="44.7553" lon="2.57715">
        <ele>606.5</ele>
        <time>2021-08-19T12:43:33Z</time>
      </trkpt>
      <trkpt lat="44.75534" lon="2.57718">
        <ele>606.8</ele>
        <time>2021-08-19T12:43:35Z</time>
      </trkpt>
      <trkpt lat="44.75537" lon="2.57721">
        <ele>606.9</ele>
        <time>2021-08-19T12:43:37Z</time>
      </trkpt>
      <trkpt lat="44.75541" lon="2.57724">
        <ele>607.1</ele>
        <time>2021-08-19T12:43:39Z</time>
      </trkpt>
      <trkpt lat="44.75544" lon="2.57727">
        <ele>607.2</ele>
        <time>2021-08-19T12:43:41Z</time>
      </trkpt>
      <trkpt lat="44.75548" lon="2.5773">
        <ele>607.4</ele>
        <time>2021-08-19T12:43:43Z</time>
      </trkpt>
      <trkpt lat="44.75552" lon="2.57732">
        <ele>607.7</ele>
        <time>2021-08-19T12:43:45Z</time>
      </trkpt>
      <trkpt lat="44.75556" lon="2.57735">
        <ele>607.9</ele>
        <time>2021-08-19T12:43:47Z</time>
      </trkpt>
      <trkpt lat="44.75559" lon="2.57738">
        <ele>608.1</ele>
        <time>2021-08-19T12:43:49Z</time>
      </trkpt>
      <trkpt lat="44.75563" lon="2.5774">
        <ele>608.4</ele>
        <time>2021-08-19T12:43:51Z</time>
      </trkpt>
      <trkpt lat="44.75567" lon="2.57742">
        <ele>608.7</ele>
        <time>2021-08-19T12:43:53Z</time>
      </trkpt>
      <trkpt lat="44.75571" lon="2.57744">
        <ele>609.1</ele>
        <time>2021-08-19T12:43:55Z</time>
      </trkpt>
      <trkpt lat="44.75575" lon="2.57745">
        <ele>609.5</ele>
        <time>2021-08-19T12:43:57Z</time>
      </trkpt>
      <trkpt lat="44.75579" lon="2.57746">
        <ele>609.9</ele>
        <time>2021-08-19T12:43:59Z</time>
      </trkpt>
      <trkpt lat="44.75584" lon="2.57746">
        <ele>610.4</ele>
        <time>2021-08-19T12:44:01Z</time>
      </trkpt>
      <trkpt lat="44.75588" lon="2.57745">
        <ele>610.3</ele>
        <time>2021-08-19T12:44:03Z</time>
      </trkpt>
      <trkpt lat="44.75592" lon="2.57744">
        <ele>610.2</ele>
        <time>2021-08-19T12:44:05Z</time>
      </trkpt>
      <trkpt lat="44.75596" lon="2.57743">
        <ele>610.2</ele>
        <time>2021-08-19T12:44:07Z</time>
      </trkpt>
      <trkpt lat="44.756" lon="2.57743">
        <ele>610.2</ele>
        <time>2021-08-19T12:44:09Z</time>
      </trkpt>
      <trkpt lat="44.75604" lon="2.57741">
        <ele>610.3</ele>
        <time>2021-08-19T12:44:11Z</time>
      </trkpt>
      <trkpt lat="44.75608" lon="2.57739">
        <ele>610.4</ele>
        <time>2021-08-19T12:44:13Z</time>
      </trkpt>
      <trkpt lat="44.75612" lon="2.57738">
        <ele>610.4</ele>
        <time>2021-08-19T12:44:15Z</time>
      </trkpt>
      <trkpt lat="44.75616" lon="2.57737">
        <ele>610.6</ele>
        <time>2021-08-19T12:44:17Z</time>
      </trkpt>
      <trkpt lat="44.75621" lon="2.57735">
        <ele>610.7</ele>
        <time>2021-08-19T12:44:19Z</time>
      </trkpt>
      <trkpt lat="44.75625" lon="2.57734">
        <ele>610.9</ele>
        <time>2021-08-19T12:44:21Z</time>
      </trkpt>
      <trkpt lat="44.75629" lon="2.57732">
        <ele>611.1</ele>
        <time>2021-08-19T12:44:23Z</time>
      </trkpt>
      <trkpt lat="44.75633" lon="2.5773">
        <ele>611.4</ele>
        <time>2021-08-19T12:44:25Z</time>
      </trkpt>
      <trkpt lat="44.75638" lon="2.57727">
        <ele>611.8</ele>
        <time>2021-08-19T12:44:27Z</time>
      </trkpt>
      <trkpt lat="44.75642" lon="2.57725">
        <ele>612.2</ele>
        <time>2021-08-19T12:44:29Z</time>
      </trkpt>
      <trkpt lat="44.75646" lon="2.57722">
        <ele>612.7</ele>
        <time>2021-08-19T12:44:31Z</time>
      </trkpt>
      <trkpt lat="44.75651" lon="2.57719">
        <ele>613.2</ele>
        <time>2021-08-19T12:44:33Z</time>
      </trkpt>
      <trkpt lat="44.75655" lon="2.57716">
        <ele>613.8</ele>
        <time>2021-08-19T12:44:35Z</time>
      </trkpt>
      <trkpt lat="44.75659" lon="2.57712">
        <ele>614.7</ele>
        <time>2021-08-19T12:44:37Z</time>
      </trkpt>
      <trkpt lat="44.75664" lon="2.57708">
        <ele>615.5</ele>
        <time>2021-08-19T12:44:39Z</time>
      </trkpt>
      <trkpt lat="44.75667" lon="2.57703">
        <ele>616.5</ele>
        <time>2021-08-19T12:44:41Z</time>
      </trkpt>
      <trkpt lat="44.75671" lon="2.57699">
        <ele>616.8</ele>
        <time>2021-08-19T12:44:43Z</time>
      </trkpt>
      <trkpt lat="44.75674" lon="2.57695">
        <ele>617.2</ele>
        <time>2021-08-19T12:44:45Z</time>
      </trkpt>
      <trkpt lat="44.75678" lon="2.57691">
        <ele>617.7</ele>
        <time>2021-08-19T12:44:47Z</time>
      </trkpt>
      <trkpt lat="44.75682" lon="2.57686">
        <ele>618.4</ele>
        <time>2021-08-19T12:44:49Z</time>
      </trkpt>
      <trkpt lat="44.75685" lon="2.57681">
        <ele>619.1</ele>
        <time>2021-08-19T12:44:51Z</time>
      </trkpt>
      <trkpt lat="44.75688" lon="2.57676">
        <ele>619.9</ele>
        <time>2021-08-19T12:44:53Z</time>
      </trkpt>
      <trkpt lat="44.75691" lon="2.5767">
        <ele>620.8</ele>
        <time>2021-08-19T12:44:55Z</time>
      </trkpt>
      <trkpt lat="44.75695" lon="2.57666">
        <ele>621.5</ele>
        <time>2021-08-19T12:44:57Z</time>
      </trkpt>
      <trkpt lat="44.75698" lon="2.57661">
        <ele>622.3</ele>
        <time>2021-08-19T12:44:59Z</time>
      </trkpt>
      <trkpt lat="44.75701" lon="2.57656">
        <ele>623.2</ele>
        <time>2021-08-19T12:45:01Z</time>
      </trkpt>
      <trkpt lat="44.75704" lon="2.57651">
        <ele>624.3</ele>
        <time>2021-08-19T12:45:03Z</time>
      </trkpt>
      <trkpt lat="44.75707" lon="2.57647">
        <ele>625.2</ele>
        <time>2021-08-19T12:45:05Z</time>
      </trkpt>
      <trkpt lat="44.7571" lon="2.57642">
        <ele>626.2</ele>
        <time>2021-08-19T12:45:07Z</time>
      </trkpt>
      <trkpt lat="44.75714" lon="2.57638">
        <ele>626.8</ele>
        <time>2021-08-19T12:45:09Z</time>
      </trkpt>
      <trkpt lat="44.75717" lon="2.57633">
        <ele>627.8</ele>
        <time>2021-08-19T12:45:11Z</time>
      </trkpt>
      <trkpt lat="44.75721" lon="2.57629">
        <ele>628.6</ele>
        <time>2021-08-19T12:45:13Z</time>
      </trkpt>
      <trkpt lat="44.75724" lon="2.57625">
        <ele>629.5</ele>
        <time>2021-08-19T12:45:15Z</time>
      </trkpt>
      <trkpt lat="44.75727" lon="2.5762">
        <ele>630.8</ele>
        <time>2021-08-19T12:45:17Z</time>
      </trkpt>
      <trkpt lat="44.7573" lon="2.57616">
        <ele>631.6</ele>
        <time>2021-08-19T12:45:19Z</time>
      </trkpt>
      <trkpt lat="44.75733" lon="2.57613">
        <ele>632.3</ele>
        <time>2021-08-19T12:45:21Z</time>
      </trkpt>
      <trkpt lat="44.75736" lon="2.57608">
        <ele>633.4</ele>
        <time>2021-08-19T12:45:23Z</time>
      </trkpt>
      <trkpt lat="44.75739" lon="2.57604">
        <ele>634.6</ele>
        <time>2021-08-19T12:45:25Z</time>
      </trkpt>
      <trkpt lat="44.75742" lon="2.57599">
        <ele>635.6</ele>
        <time>2021-08-19T12:45:27Z</time>
      </trkpt>
      <trkpt lat="44.75746" lon="2.57596">
        <ele>636.5</ele>
        <time>2021-08-19T12:45:29Z</time>
      </trkpt>
      <trkpt lat="44.75749" lon="2.57592">
        <ele>637.5</ele>
        <time>2021-08-19T12:45:31Z</time>
      </trkpt>
      <trkpt lat="44.75752" lon="2.57588">
        <ele>638.8</ele>
        <time>2021-08-19T12:45:33Z</time>
      </trkpt>
      <trkpt lat="44.75756" lon="2.57585">
        <ele>639.9</ele>
        <time>2021-08-19T12:45:35Z</time>
      </trkpt>
      <trkpt lat="44.75759" lon="2.57583">
        <ele>640.6</ele>
        <time>2021-08-19T12:45:37Z</time>
      </trkpt>
      <trkpt lat="44.75763" lon="2.5758">
        <ele>641.4</ele>
        <time>2021-08-19T12:45:39Z</time>
      </trkpt>
      <trkpt lat="44.75767" lon="2.57578">
        <ele>641.8</ele>
        <time>2021-08-19T12:45:41Z</time>
      </trkpt>
      <trkpt lat="44.75771" lon="2.57578">
        <ele>642.1</ele>
        <time>2021-08-19T12:45:43Z</time>
      </trkpt>
      <trkpt lat="44.75775" lon="2.57578">
        <ele>642.2</ele>
        <time>2021-08-19T12:45:45Z</time>
      </trkpt>
      <trkpt lat="44.7578" lon="2.5758">
        <ele>642.1</ele>
        <time>2021-08-19T12:45:47Z</time>
      </trkpt>
      <trkpt lat="44.75785" lon="2.57583">
        <ele>641.8</ele>
        <time>2021-08-19T12:45:49Z</time>
      </trkpt>
      <trkpt lat="44.75789" lon="2.57586">
        <ele>641.1</ele>
        <time>2021-08-19T12:45:51Z</time>
      </trkpt>
      <trkpt lat="44.75793" lon="2.5759">
        <ele>640.2</ele>
        <time>2021-08-19T12:45:53Z</time>
      </trkpt>
      <trkpt lat="44.75797" lon="2.57596">
        <ele>638.8</ele>
        <time>2021-08-19T12:45:55Z</time>
      </trkpt>
      <trkpt lat="44.758" lon="2.57601">
        <ele>637.7</ele>
        <time>2021-08-19T12:45:57Z</time>
      </trkpt>
      <trkpt lat="44.75803" lon="2.57607">
        <ele>636.3</ele>
        <time>2021-08-19T12:45:59Z</time>
      </trkpt>
      <trkpt lat="44.75806" lon="2.57613">
        <ele>634.9</ele>
        <time>2021-08-19T12:46:01Z</time>
      </trkpt>
      <trkpt lat="44.75809" lon="2.57619">
        <ele>633.4</ele>
        <time>2021-08-19T12:46:03Z</time>
      </trkpt>
      <trkpt lat="44.75813" lon="2.57624">
        <ele>632.4</ele>
        <time>2021-08-19T12:46:05Z</time>
      </trkpt>
      <trkpt lat="44.75816" lon="2.57629">
        <ele>631.4</ele>
        <time>2021-08-19T12:46:07Z</time>
      </trkpt>
      <trkpt lat="44.7582" lon="2.57634">
        <ele>630.3</ele>
        <time>2021-08-19T12:46:09Z</time>
      </trkpt>
      <trkpt lat="44.75823" lon="2.57638">
        <ele>629.5</ele>
        <time>2021-08-19T12:46:11Z</time>
      </trkpt>
      <trkpt lat="44.75827" lon="2.57641">
        <ele>628.9</ele>
        <time>2021-08-19T12:46:13Z</time>
      </trkpt>
      <trkpt lat="44.7583" lon="2.57644">
        <ele>628.6</ele>
        <time>2021-08-19T12:46:15Z</time>
      </trkpt>
      <trkpt lat="44.75832" lon="2.57647">
        <ele>628</ele>
        <time>2021-08-19T12:46:17Z</time>
      </trkpt>
      <trkpt lat="44.75835" lon="2.57649">
        <ele>627.4</ele>
        <time>2021-08-19T12:46:19Z</time>
      </trkpt>
      <trkpt lat="44.75839" lon="2.57651">
        <ele>626.8</ele>
        <time>2021-08-19T12:46:21Z</time>
      </trkpt>
      <trkpt lat="44.75843" lon="2.57652">
        <ele>626.4</ele>
        <time>2021-08-19T12:46:23Z</time>
      </trkpt>
      <trkpt lat="44.75847" lon="2.57654">
        <ele>626</ele>
        <time>2021-08-19T12:46:25Z</time>
      </trkpt>
      <trkpt lat="44.75851" lon="2.57654">
        <ele>625.8</ele>
        <time>2021-08-19T12:46:27Z</time>
      </trkpt>
      <trkpt lat="44.75856" lon="2.57654">
        <ele>625.7</ele>
        <time>2021-08-19T12:46:29Z</time>
      </trkpt>
      <trkpt lat="44.7586" lon="2.57654">
        <ele>625.6</ele>
        <time>2021-08-19T12:46:31Z</time>
      </trkpt>
      <trkpt lat="44.75864" lon="2.57654">
        <ele>625.7</ele>
        <time>2021-08-19T12:46:33Z</time>
      </trkpt>
      <trkpt lat="44.75868" lon="2.57652">
        <ele>626</ele>
        <time>2021-08-19T12:46:35Z</time>
      </trkpt>
      <trkpt lat="44.75872" lon="2.5765">
        <ele>626.5</ele>
        <time>2021-08-19T12:46:37Z</time>
      </trkpt>
      <trkpt lat="44.75876" lon="2.57648">
        <ele>627</ele>
        <time>2021-08-19T12:46:39Z</time>
      </trkpt>
      <trkpt lat="44.7588" lon="2.57645">
        <ele>627.7</ele>
        <time>2021-08-19T12:46:41Z</time>
      </trkpt>
      <trkpt lat="44.75884" lon="2.57642">
        <ele>628.5</ele>
        <time>2021-08-19T12:46:43Z</time>
      </trkpt>
      <trkpt lat="44.75887" lon="2.57639">
        <ele>629.3</ele>
        <time>2021-08-19T12:46:45Z</time>
      </trkpt>
      <trkpt lat="44.75891" lon="2.57636">
        <ele>630.1</ele>
        <time>2021-08-19T12:46:47Z</time>
      </trkpt>
      <trkpt lat="44.75894" lon="2.57633">
        <ele>631</ele>
        <time>2021-08-19T12:46:49Z</time>
      </trkpt>
      <trkpt lat="44.75898" lon="2.57629">
        <ele>631.9</ele>
        <time>2021-08-19T12:46:51Z</time>
      </trkpt>
      <trkpt lat="44.75901" lon="2.57625">
        <ele>633</ele>
        <time>2021-08-19T12:46:53Z</time>
      </trkpt>
      <trkpt lat="44.75904" lon="2.57621">
        <ele>634.3</ele>
        <time>2021-08-19T12:46:55Z</time>
      </trkpt>
      <trkpt lat="44.75906" lon="2.57617">
        <ele>635.3</ele>
        <time>2021-08-19T12:46:57Z</time>
      </trkpt>
      <trkpt lat="44.75909" lon="2.57612">
        <ele>636.6</ele>
        <time>2021-08-19T12:46:59Z</time>
      </trkpt>
      <trkpt lat="44.75912" lon="2.57609">
        <ele>637.7</ele>
        <time>2021-08-19T12:47:01Z</time>
      </trkpt>
      <trkpt lat="44.75915" lon="2.57605">
        <ele>638.8</ele>
        <time>2021-08-19T12:47:03Z</time>
      </trkpt>
      <trkpt lat="44.75918" lon="2.576">
        <ele>639.9</ele>
        <time>2021-08-19T12:47:05Z</time>
      </trkpt>
      <trkpt lat="44.7592" lon="2.57596">
        <ele>640.7</ele>
        <time>2021-08-19T12:47:07Z</time>
      </trkpt>
      <trkpt lat="44.75923" lon="2.57592">
        <ele>641.3</ele>
        <time>2021-08-19T12:47:09Z</time>
      </trkpt>
      <trkpt lat="44.75926" lon="2.57588">
        <ele>642.1</ele>
        <time>2021-08-19T12:47:11Z</time>
      </trkpt>
      <trkpt lat="44.75929" lon="2.57584">
        <ele>642.9</ele>
        <time>2021-08-19T12:47:13Z</time>
      </trkpt>
      <trkpt lat="44.75932" lon="2.5758">
        <ele>643.7</ele>
        <time>2021-08-19T12:47:15Z</time>
      </trkpt>
      <trkpt lat="44.75935" lon="2.57575">
        <ele>644.5</ele>
        <time>2021-08-19T12:47:17Z</time>
      </trkpt>
      <trkpt lat="44.75938" lon="2.57571">
        <ele>645.2</ele>
        <time>2021-08-19T12:47:19Z</time>
      </trkpt>
      <trkpt lat="44.75942" lon="2.57568">
        <ele>645.5</ele>
        <time>2021-08-19T12:47:21Z</time>
      </trkpt>
      <trkpt lat="44.75946" lon="2.57565">
        <ele>645.9</ele>
        <time>2021-08-19T12:47:23Z</time>
      </trkpt>
      <trkpt lat="44.75951" lon="2.57563">
        <ele>645.8</ele>
        <time>2021-08-19T12:47:25Z</time>
      </trkpt>
      <trkpt lat="44.75955" lon="2.57561">
        <ele>645.7</ele>
        <time>2021-08-19T12:47:27Z</time>
      </trkpt>
      <trkpt lat="44.7596" lon="2.5756">
        <ele>645.4</ele>
        <time>2021-08-19T12:47:29Z</time>
      </trkpt>
      <trkpt lat="44.75964" lon="2.57558">
        <ele>645.4</ele>
        <time>2021-08-19T12:47:31Z</time>
      </trkpt>
      <trkpt lat="44.75968" lon="2.57557">
        <ele>645</ele>
        <time>2021-08-19T12:47:33Z</time>
      </trkpt>
      <trkpt lat="44.75972" lon="2.57556">
        <ele>644.9</ele>
        <time>2021-08-19T12:47:35Z</time>
      </trkpt>
      <trkpt lat="44.75976" lon="2.57554">
        <ele>644.8</ele>
        <time>2021-08-19T12:47:37Z</time>
      </trkpt>
      <trkpt lat="44.75981" lon="2.57553">
        <ele>644.5</ele>
        <time>2021-08-19T12:47:39Z</time>
      </trkpt>
      <trkpt lat="44.75985" lon="2.57552">
        <ele>644.2</ele>
        <time>2021-08-19T12:47:41Z</time>
      </trkpt>
      <trkpt lat="44.7599" lon="2.57551">
        <ele>643.9</ele>
        <time>2021-08-19T12:47:43Z</time>
      </trkpt>
      <trkpt lat="44.75994" lon="2.57549">
        <ele>643.8</ele>
        <time>2021-08-19T12:47:45Z</time>
      </trkpt>
      <trkpt lat="44.75999" lon="2.57547">
        <ele>643.8</ele>
        <time>2021-08-19T12:47:47Z</time>
      </trkpt>
      <trkpt lat="44.76003" lon="2.57546">
        <ele>643.4</ele>
        <time>2021-08-19T12:47:49Z</time>
      </trkpt>
      <trkpt lat="44.76008" lon="2.57545">
        <ele>642.6</ele>
        <time>2021-08-19T12:47:51Z</time>
      </trkpt>
      <trkpt lat="44.76013" lon="2.57544">
        <ele>642.1</ele>
        <time>2021-08-19T12:47:53Z</time>
      </trkpt>
      <trkpt lat="44.76017" lon="2.57541">
        <ele>642.1</ele>
        <time>2021-08-19T12:47:55Z</time>
      </trkpt>
      <trkpt lat="44.76021" lon="2.57539">
        <ele>641.9</ele>
        <time>2021-08-19T12:47:57Z</time>
      </trkpt>
      <trkpt lat="44.76025" lon="2.57536">
        <ele>641.8</ele>
        <time>2021-08-19T12:47:59Z</time>
      </trkpt>
      <trkpt lat="44.7603" lon="2.57533">
        <ele>642.1</ele>
        <time>2021-08-19T12:48:01Z</time>
      </trkpt>
      <trkpt lat="44.76033" lon="2.5753">
        <ele>642.5</ele>
        <time>2021-08-19T12:48:03Z</time>
      </trkpt>
      <trkpt lat="44.76038" lon="2.57527">
        <ele>642.5</ele>
        <time>2021-08-19T12:48:05Z</time>
      </trkpt>
      <trkpt lat="44.76041" lon="2.57523">
        <ele>643.1</ele>
        <time>2021-08-19T12:48:07Z</time>
      </trkpt>
      <trkpt lat="44.76045" lon="2.5752">
        <ele>643.3</ele>
        <time>2021-08-19T12:48:09Z</time>
      </trkpt>
      <trkpt lat="44.76048" lon="2.57516">
        <ele>644</ele>
        <time>2021-08-19T12:48:11Z</time>
      </trkpt>
      <trkpt lat="44.76052" lon="2.57512">
        <ele>644.9</ele>
        <time>2021-08-19T12:48:13Z</time>
      </trkpt>
      <trkpt lat="44.76055" lon="2.57508">
        <ele>645.5</ele>
        <time>2021-08-19T12:48:15Z</time>
      </trkpt>
      <trkpt lat="44.76059" lon="2.57504">
        <ele>646.2</ele>
        <time>2021-08-19T12:48:17Z</time>
      </trkpt>
      <trkpt lat="44.76064" lon="2.575">
        <ele>646.7</ele>
        <time>2021-08-19T12:48:19Z</time>
      </trkpt>
      <trkpt lat="44.76068" lon="2.57498">
        <ele>646.6</ele>
        <time>2021-08-19T12:48:21Z</time>
      </trkpt>
      <trkpt lat="44.76071" lon="2.57493">
        <ele>647.4</ele>
        <time>2021-08-19T12:48:23Z</time>
      </trkpt>
      <trkpt lat="44.76074" lon="2.57488">
        <ele>648</ele>
        <time>2021-08-19T12:48:25Z</time>
      </trkpt>
      <trkpt lat="44.76078" lon="2.57485">
        <ele>648.2</ele>
        <time>2021-08-19T12:48:27Z</time>
      </trkpt>
      <trkpt lat="44.76082" lon="2.57482">
        <ele>648.4</ele>
        <time>2021-08-19T12:48:29Z</time>
      </trkpt>
      <trkpt lat="44.76086" lon="2.57479">
        <ele>648.5</ele>
        <time>2021-08-19T12:48:31Z</time>
      </trkpt>
      <trkpt lat="44.7609" lon="2.57477">
        <ele>648.2</ele>
        <time>2021-08-19T12:48:33Z</time>
      </trkpt>
      <trkpt lat="44.76094" lon="2.57472">
        <ele>648.6</ele>
        <time>2021-08-19T12:48:35Z</time>
      </trkpt>
      <trkpt lat="44.76098" lon="2.57469">
        <ele>648.7</ele>
        <time>2021-08-19T12:48:37Z</time>
      </trkpt>
      <trkpt lat="44.76103" lon="2.57466">
        <ele>648.8</ele>
        <time>2021-08-19T12:48:39Z</time>
      </trkpt>
      <trkpt lat="44.76106" lon="2.57463">
        <ele>648.9</ele>
        <time>2021-08-19T12:48:41Z</time>
      </trkpt>
      <trkpt lat="44.76111" lon="2.57461">
        <ele>648.8</ele>
        <time>2021-08-19T12:48:43Z</time>
      </trkpt>
      <trkpt lat="44.76115" lon="2.57458">
        <ele>649.1</ele>
        <time>2021-08-19T12:48:45Z</time>
      </trkpt>
      <trkpt lat="44.76118" lon="2.57454">
        <ele>649.4</ele>
        <time>2021-08-19T12:48:47Z</time>
      </trkpt>
      <trkpt lat="44.76123" lon="2.57451">
        <ele>649.6</ele>
        <time>2021-08-19T12:48:49Z</time>
      </trkpt>
      <trkpt lat="44.76127" lon="2.57448">
        <ele>649.7</ele>
        <time>2021-08-19T12:48:51Z</time>
      </trkpt>
      <trkpt lat="44.76131" lon="2.57444">
        <ele>650.4</ele>
        <time>2021-08-19T12:48:53Z</time>
      </trkpt>
      <trkpt lat="44.76135" lon="2.57441">
        <ele>650.7</ele>
        <time>2021-08-19T12:48:55Z</time>
      </trkpt>
      <trkpt lat="44.76138" lon="2.57438">
        <ele>651.2</ele>
        <time>2021-08-19T12:48:57Z</time>
      </trkpt>
      <trkpt lat="44.76142" lon="2.57436">
        <ele>651.1</ele>
        <time>2021-08-19T12:48:59Z</time>
      </trkpt>
      <trkpt lat="44.76147" lon="2.57434">
        <ele>651</ele>
        <time>2021-08-19T12:49:01Z</time>
      </trkpt>
      <trkpt lat="44.76151" lon="2.57432">
        <ele>650.9</ele>
        <time>2021-08-19T12:49:03Z</time>
      </trkpt>
      <trkpt lat="44.76156" lon="2.5743">
        <ele>651</ele>
        <time>2021-08-19T12:49:05Z</time>
      </trkpt>
      <trkpt lat="44.76161" lon="2.57428">
        <ele>650.8</ele>
        <time>2021-08-19T12:49:07Z</time>
      </trkpt>
      <trkpt lat="44.76165" lon="2.57426">
        <ele>650.8</ele>
        <time>2021-08-19T12:49:09Z</time>
      </trkpt>
      <trkpt lat="44.7617" lon="2.57424">
        <ele>651.2</ele>
        <time>2021-08-19T12:49:11Z</time>
      </trkpt>
      <trkpt lat="44.76174" lon="2.5742">
        <ele>652</ele>
        <time>2021-08-19T12:49:13Z</time>
      </trkpt>
      <trkpt lat="44.76179" lon="2.57418">
        <ele>652.5</ele>
        <time>2021-08-19T12:49:15Z</time>
      </trkpt>
      <trkpt lat="44.76184" lon="2.57417">
        <ele>652.3</ele>
        <time>2021-08-19T12:49:17Z</time>
      </trkpt>
      <trkpt lat="44.76189" lon="2.57415">
        <ele>652.3</ele>
        <time>2021-08-19T12:49:19Z</time>
      </trkpt>
      <trkpt lat="44.76195" lon="2.57414">
        <ele>652</ele>
        <time>2021-08-19T12:49:21Z</time>
      </trkpt>
      <trkpt lat="44.762" lon="2.57414">
        <ele>651.7</ele>
        <time>2021-08-19T12:49:23Z</time>
      </trkpt>
      <trkpt lat="44.76204" lon="2.57411">
        <ele>651.7</ele>
        <time>2021-08-19T12:49:25Z</time>
      </trkpt>
      <trkpt lat="44.76209" lon="2.5741">
        <ele>651.5</ele>
        <time>2021-08-19T12:49:27Z</time>
      </trkpt>
      <trkpt lat="44.76214" lon="2.57409">
        <ele>651.3</ele>
        <time>2021-08-19T12:49:29Z</time>
      </trkpt>
      <trkpt lat="44.76219" lon="2.57408">
        <ele>651.1</ele>
        <time>2021-08-19T12:49:31Z</time>
      </trkpt>
      <trkpt lat="44.76224" lon="2.57408">
        <ele>650.7</ele>
        <time>2021-08-19T12:49:33Z</time>
      </trkpt>
      <trkpt lat="44.7623" lon="2.57407">
        <ele>650.5</ele>
        <time>2021-08-19T12:49:35Z</time>
      </trkpt>
      <trkpt lat="44.76235" lon="2.57405">
        <ele>650.4</ele>
        <time>2021-08-19T12:49:37Z</time>
      </trkpt>
      <trkpt lat="44.7624" lon="2.57406">
        <ele>649.8</ele>
        <time>2021-08-19T12:49:39Z</time>
      </trkpt>
      <trkpt lat="44.76245" lon="2.57405">
        <ele>649.7</ele>
        <time>2021-08-19T12:49:41Z</time>
      </trkpt>
      <trkpt lat="44.7625" lon="2.57404">
        <ele>649.4</ele>
        <time>2021-08-19T12:49:43Z</time>
      </trkpt>
      <trkpt lat="44.76255" lon="2.57404">
        <ele>649.2</ele>
        <time>2021-08-19T12:49:45Z</time>
      </trkpt>
      <trkpt lat="44.76259" lon="2.57401">
        <ele>649.5</ele>
        <time>2021-08-19T12:49:47Z</time>
      </trkpt>
      <trkpt lat="44.76263" lon="2.57402">
        <ele>649.2</ele>
        <time>2021-08-19T12:49:49Z</time>
      </trkpt>
      <trkpt lat="44.76269" lon="2.57401">
        <ele>649</ele>
        <time>2021-08-19T12:49:51Z</time>
      </trkpt>
      <trkpt lat="44.76274" lon="2.574">
        <ele>648.9</ele>
        <time>2021-08-19T12:49:53Z</time>
      </trkpt>
      <trkpt lat="44.76279" lon="2.574">
        <ele>648.6</ele>
        <time>2021-08-19T12:49:55Z</time>
      </trkpt>
      <trkpt lat="44.76285" lon="2.57399">
        <ele>648.5</ele>
        <time>2021-08-19T12:49:57Z</time>
      </trkpt>
      <trkpt lat="44.76289" lon="2.57398">
        <ele>648.6</ele>
        <time>2021-08-19T12:49:59Z</time>
      </trkpt>
      <trkpt lat="44.76295" lon="2.57397">
        <ele>648.3</ele>
        <time>2021-08-19T12:50:01Z</time>
      </trkpt>
      <trkpt lat="44.76299" lon="2.57396">
        <ele>648.3</ele>
        <time>2021-08-19T12:50:03Z</time>
      </trkpt>
      <trkpt lat="44.76304" lon="2.57396">
        <ele>648.1</ele>
        <time>2021-08-19T12:50:05Z</time>
      </trkpt>
      <trkpt lat="44.76309" lon="2.57394">
        <ele>648.2</ele>
        <time>2021-08-19T12:50:07Z</time>
      </trkpt>
      <trkpt lat="44.76314" lon="2.57393">
        <ele>647.9</ele>
        <time>2021-08-19T12:50:09Z</time>
      </trkpt>
      <trkpt lat="44.76319" lon="2.57391">
        <ele>648.1</ele>
        <time>2021-08-19T12:50:11Z</time>
      </trkpt>
      <trkpt lat="44.76324" lon="2.5739">
        <ele>648</ele>
        <time>2021-08-19T12:50:13Z</time>
      </trkpt>
      <trkpt lat="44.76329" lon="2.57389">
        <ele>647.8</ele>
        <time>2021-08-19T12:50:15Z</time>
      </trkpt>
      <trkpt lat="44.76334" lon="2.57386">
        <ele>648.2</ele>
        <time>2021-08-19T12:50:17Z</time>
      </trkpt>
      <trkpt lat="44.76339" lon="2.57384">
        <ele>648.7</ele>
        <time>2021-08-19T12:50:19Z</time>
      </trkpt>
      <trkpt lat="44.76344" lon="2.57383">
        <ele>649.1</ele>
        <time>2021-08-19T12:50:21Z</time>
      </trkpt>
      <trkpt lat="44.76349" lon="2.57381">
        <ele>649.6</ele>
        <time>2021-08-19T12:50:23Z</time>
      </trkpt>
      <trkpt lat="44.76353" lon="2.57379">
        <ele>650.1</ele>
        <time>2021-08-19T12:50:25Z</time>
      </trkpt>
      <trkpt lat="44.76359" lon="2.57378">
        <ele>650.4</ele>
        <time>2021-08-19T12:50:27Z</time>
      </trkpt>
      <trkpt lat="44.76363" lon="2.57375">
        <ele>651.1</ele>
        <time>2021-08-19T12:50:29Z</time>
      </trkpt>
      <trkpt lat="44.76368" lon="2.57373">
        <ele>651.7</ele>
        <time>2021-08-19T12:50:31Z</time>
      </trkpt>
      <trkpt lat="44.76373" lon="2.57372">
        <ele>651.9</ele>
        <time>2021-08-19T12:50:33Z</time>
      </trkpt>
      <trkpt lat="44.76378" lon="2.57371">
        <ele>652.4</ele>
        <time>2021-08-19T12:50:35Z</time>
      </trkpt>
      <trkpt lat="44.76383" lon="2.5737">
        <ele>652.8</ele>
        <time>2021-08-19T12:50:37Z</time>
      </trkpt>
      <trkpt lat="44.76388" lon="2.5737">
        <ele>652.8</ele>
        <time>2021-08-19T12:50:39Z</time>
      </trkpt>
      <trkpt lat="44.76394" lon="2.57369">
        <ele>653.4</ele>
        <time>2021-08-19T12:50:41Z</time>
      </trkpt>
      <trkpt lat="44.764" lon="2.57369">
        <ele>653.5</ele>
        <time>2021-08-19T12:50:43Z</time>
      </trkpt>
      <trkpt lat="44.76404" lon="2.57369">
        <ele>653.7</ele>
        <time>2021-08-19T12:50:45Z</time>
      </trkpt>
      <trkpt lat="44.7641" lon="2.57369">
        <ele>653.9</ele>
        <time>2021-08-19T12:50:47Z</time>
      </trkpt>
      <trkpt lat="44.76415" lon="2.57369">
        <ele>654.1</ele>
        <time>2021-08-19T12:50:49Z</time>
      </trkpt>
      <trkpt lat="44.7642" lon="2.57369">
        <ele>654.3</ele>
        <time>2021-08-19T12:50:51Z</time>
      </trkpt>
      <trkpt lat="44.76425" lon="2.57369">
        <ele>654.5</ele>
        <time>2021-08-19T12:50:53Z</time>
      </trkpt>
      <trkpt lat="44.76431" lon="2.5737">
        <ele>654.5</ele>
        <time>2021-08-19T12:50:55Z</time>
      </trkpt>
      <trkpt lat="44.76436" lon="2.57372">
        <ele>654.4</ele>
        <time>2021-08-19T12:50:57Z</time>
      </trkpt>
      <trkpt lat="44.76442" lon="2.57374">
        <ele>654.3</ele>
        <time>2021-08-19T12:50:59Z</time>
      </trkpt>
      <trkpt lat="44.76448" lon="2.57376">
        <ele>654.1</ele>
        <time>2021-08-19T12:51:01Z</time>
      </trkpt>
      <trkpt lat="44.76453" lon="2.57378">
        <ele>654.1</ele>
        <time>2021-08-19T12:51:03Z</time>
      </trkpt>
      <trkpt lat="44.76458" lon="2.5738">
        <ele>653.9</ele>
        <time>2021-08-19T12:51:05Z</time>
      </trkpt>
      <trkpt lat="44.76464" lon="2.57383">
        <ele>653.6</ele>
        <time>2021-08-19T12:51:07Z</time>
      </trkpt>
      <trkpt lat="44.7647" lon="2.57387">
        <ele>653.3</ele>
        <time>2021-08-19T12:51:09Z</time>
      </trkpt>
      <trkpt lat="44.76475" lon="2.57391">
        <ele>652.9</ele>
        <time>2021-08-19T12:51:11Z</time>
      </trkpt>
      <trkpt lat="44.76482" lon="2.57394">
        <ele>652.6</ele>
        <time>2021-08-19T12:51:13Z</time>
      </trkpt>
      <trkpt lat="44.76487" lon="2.57399">
        <ele>652.2</ele>
        <time>2021-08-19T12:51:15Z</time>
      </trkpt>
      <trkpt lat="44.76493" lon="2.57403">
        <ele>651.9</ele>
        <time>2021-08-19T12:51:17Z</time>
      </trkpt>
      <trkpt lat="44.76499" lon="2.57406">
        <ele>651.6</ele>
        <time>2021-08-19T12:51:19Z</time>
      </trkpt>
      <trkpt lat="44.76505" lon="2.57409">
        <ele>651.4</ele>
        <time>2021-08-19T12:51:21Z</time>
      </trkpt>
      <trkpt lat="44.76511" lon="2.5741">
        <ele>651.4</ele>
        <time>2021-08-19T12:51:23Z</time>
      </trkpt>
      <trkpt lat="44.76518" lon="2.57412">
        <ele>651.4</ele>
        <time>2021-08-19T12:51:25Z</time>
      </trkpt>
      <trkpt lat="44.76524" lon="2.57413">
        <ele>651.4</ele>
        <time>2021-08-19T12:51:27Z</time>
      </trkpt>
      <trkpt lat="44.7653" lon="2.57413">
        <ele>651.6</ele>
        <time>2021-08-19T12:51:29Z</time>
      </trkpt>
      <trkpt lat="44.76537" lon="2.57414">
        <ele>651.7</ele>
        <time>2021-08-19T12:51:31Z</time>
      </trkpt>
      <trkpt lat="44.76543" lon="2.57415">
        <ele>651.8</ele>
        <time>2021-08-19T12:51:33Z</time>
      </trkpt>
      <trkpt lat="44.7655" lon="2.57415">
        <ele>652</ele>
        <time>2021-08-19T12:51:35Z</time>
      </trkpt>
      <trkpt lat="44.76556" lon="2.57415">
        <ele>652.3</ele>
        <time>2021-08-19T12:51:37Z</time>
      </trkpt>
      <trkpt lat="44.76563" lon="2.57416">
        <ele>652.4</ele>
        <time>2021-08-19T12:51:39Z</time>
      </trkpt>
      <trkpt lat="44.7657" lon="2.57416">
        <ele>652.6</ele>
        <time>2021-08-19T12:51:41Z</time>
      </trkpt>
      <trkpt lat="44.76576" lon="2.57416">
        <ele>652.8</ele>
        <time>2021-08-19T12:51:43Z</time>
      </trkpt>
      <trkpt lat="44.76583" lon="2.57416">
        <ele>653.1</ele>
        <time>2021-08-19T12:51:45Z</time>
      </trkpt>
      <trkpt lat="44.76589" lon="2.57415">
        <ele>653.3</ele>
        <time>2021-08-19T12:51:47Z</time>
      </trkpt>
      <trkpt lat="44.76595" lon="2.57413">
        <ele>653.6</ele>
        <time>2021-08-19T12:51:49Z</time>
      </trkpt>
      <trkpt lat="44.76602" lon="2.5741">
        <ele>654</ele>
        <time>2021-08-19T12:51:51Z</time>
      </trkpt>
      <trkpt lat="44.76607" lon="2.57407">
        <ele>654.4</ele>
        <time>2021-08-19T12:51:53Z</time>
      </trkpt>
      <trkpt lat="44.76614" lon="2.57405">
        <ele>654.8</ele>
        <time>2021-08-19T12:51:55Z</time>
      </trkpt>
      <trkpt lat="44.7662" lon="2.57402">
        <ele>655.1</ele>
        <time>2021-08-19T12:51:57Z</time>
      </trkpt>
      <trkpt lat="44.76627" lon="2.574">
        <ele>655.4</ele>
        <time>2021-08-19T12:51:59Z</time>
      </trkpt>
      <trkpt lat="44.76634" lon="2.57398">
        <ele>655.6</ele>
        <time>2021-08-19T12:52:01Z</time>
      </trkpt>
      <trkpt lat="44.76641" lon="2.57397">
        <ele>655.7</ele>
        <time>2021-08-19T12:52:03Z</time>
      </trkpt>
      <trkpt lat="44.76648" lon="2.57397">
        <ele>655.7</ele>
        <time>2021-08-19T12:52:05Z</time>
      </trkpt>
      <trkpt lat="44.76655" lon="2.57398">
        <ele>655.5</ele>
        <time>2021-08-19T12:52:07Z</time>
      </trkpt>
      <trkpt lat="44.76661" lon="2.574">
        <ele>655.2</ele>
        <time>2021-08-19T12:52:09Z</time>
      </trkpt>
      <trkpt lat="44.76667" lon="2.57402">
        <ele>655</ele>
        <time>2021-08-19T12:52:11Z</time>
      </trkpt>
      <trkpt lat="44.76673" lon="2.57405">
        <ele>654.6</ele>
        <time>2021-08-19T12:52:13Z</time>
      </trkpt>
      <trkpt lat="44.76679" lon="2.57406">
        <ele>654.5</ele>
        <time>2021-08-19T12:52:15Z</time>
      </trkpt>
      <trkpt lat="44.76684" lon="2.57409">
        <ele>654.2</ele>
        <time>2021-08-19T12:52:17Z</time>
      </trkpt>
      <trkpt lat="44.7669" lon="2.57409">
        <ele>654.2</ele>
        <time>2021-08-19T12:52:19Z</time>
      </trkpt>
      <trkpt lat="44.76695" lon="2.57409">
        <ele>654.1</ele>
        <time>2021-08-19T12:52:21Z</time>
      </trkpt>
      <trkpt lat="44.767" lon="2.5741">
        <ele>654</ele>
        <time>2021-08-19T12:52:23Z</time>
      </trkpt>
      <trkpt lat="44.76705" lon="2.5741">
        <ele>654.1</ele>
        <time>2021-08-19T12:52:25Z</time>
      </trkpt>
      <trkpt lat="44.76711" lon="2.5741">
        <ele>654</ele>
        <time>2021-08-19T12:52:27Z</time>
      </trkpt>
      <trkpt lat="44.76716" lon="2.57409">
        <ele>654.2</ele>
        <time>2021-08-19T12:52:29Z</time>
      </trkpt>
      <trkpt lat="44.76721" lon="2.57408">
        <ele>654.4</ele>
        <time>2021-08-19T12:52:31Z</time>
      </trkpt>
      <trkpt lat="44.76727" lon="2.57408">
        <ele>654.5</ele>
        <time>2021-08-19T12:52:33Z</time>
      </trkpt>
      <trkpt lat="44.76733" lon="2.57408">
        <ele>654.6</ele>
        <time>2021-08-19T12:52:35Z</time>
      </trkpt>
      <trkpt lat="44.76738" lon="2.57406">
        <ele>654.8</ele>
        <time>2021-08-19T12:52:37Z</time>
      </trkpt>
      <trkpt lat="44.76744" lon="2.57406">
        <ele>654.9</ele>
        <time>2021-08-19T12:52:39Z</time>
      </trkpt>
      <trkpt lat="44.76749" lon="2.57404">
        <ele>655.2</ele>
        <time>2021-08-19T12:52:41Z</time>
      </trkpt>
      <trkpt lat="44.76755" lon="2.57404">
        <ele>655.3</ele>
        <time>2021-08-19T12:52:43Z</time>
      </trkpt>
      <trkpt lat="44.76761" lon="2.57403">
        <ele>655.5</ele>
        <time>2021-08-19T12:52:45Z</time>
      </trkpt>
      <trkpt lat="44.76767" lon="2.57403">
        <ele>655.5</ele>
        <time>2021-08-19T12:52:47Z</time>
      </trkpt>
      <trkpt lat="44.76772" lon="2.57401">
        <ele>655.8</ele>
        <time>2021-08-19T12:52:49Z</time>
      </trkpt>
      <trkpt lat="44.76778" lon="2.574">
        <ele>655.9</ele>
        <time>2021-08-19T12:52:51Z</time>
      </trkpt>
      <trkpt lat="44.76785" lon="2.574">
        <ele>655.8</ele>
        <time>2021-08-19T12:52:53Z</time>
      </trkpt>
      <trkpt lat="44.76792" lon="2.574">
        <ele>655.9</ele>
        <time>2021-08-19T12:52:55Z</time>
      </trkpt>
      <trkpt lat="44.76798" lon="2.57398">
        <ele>656.1</ele>
        <time>2021-08-19T12:52:57Z</time>
      </trkpt>
      <trkpt lat="44.76805" lon="2.57398">
        <ele>656.2</ele>
        <time>2021-08-19T12:52:59Z</time>
      </trkpt>
      <trkpt lat="44.76812" lon="2.57398">
        <ele>656.1</ele>
        <time>2021-08-19T12:53:01Z</time>
      </trkpt>
      <trkpt lat="44.76819" lon="2.57398">
        <ele>656</ele>
        <time>2021-08-19T12:53:03Z</time>
      </trkpt>
      <trkpt lat="44.76826" lon="2.57399">
        <ele>656</ele>
        <time>2021-08-19T12:53:05Z</time>
      </trkpt>
      <trkpt lat="44.76833" lon="2.57399">
        <ele>655.9</ele>
        <time>2021-08-19T12:53:07Z</time>
      </trkpt>
      <trkpt lat="44.76839" lon="2.57401">
        <ele>655.7</ele>
        <time>2021-08-19T12:53:09Z</time>
      </trkpt>
      <trkpt lat="44.76846" lon="2.57404">
        <ele>655.6</ele>
        <time>2021-08-19T12:53:11Z</time>
      </trkpt>
      <trkpt lat="44.76852" lon="2.57407">
        <ele>655.4</ele>
        <time>2021-08-19T12:53:13Z</time>
      </trkpt>
      <trkpt lat="44.76859" lon="2.5741">
        <ele>655.4</ele>
        <time>2021-08-19T12:53:15Z</time>
      </trkpt>
      <trkpt lat="44.76863" lon="2.57413">
        <ele>655.3</ele>
        <time>2021-08-19T12:53:17Z</time>
      </trkpt>
      <trkpt lat="44.76866" lon="2.57416">
        <ele>655.2</ele>
        <time>2021-08-19T12:53:19Z</time>
      </trkpt>
      <trkpt lat="44.76868" lon="2.57417">
        <ele>655.2</ele>
        <time>2021-08-19T12:53:21Z</time>
      </trkpt>
      <trkpt lat="44.76868" lon="2.57417">
        <ele>655.2</ele>
        <time>2021-08-19T12:53:23Z</time>
      </trkpt>
      <trkpt lat="44.76868" lon="2.57417">
        <ele>655.2</ele>
        <time>2021-08-19T12:53:25Z</time>
      </trkpt>
      <trkpt lat="44.76867" lon="2.57416">
        <ele>655.2</ele>
        <time>2021-08-19T12:53:27Z</time>
      </trkpt>
      <trkpt lat="44.76867" lon="2.57416">
        <ele>655.2</ele>
        <time>2021-08-19T12:53:29Z</time>
      </trkpt>
      <trkpt lat="44.76876" lon="2.57405">
        <ele>656</ele>
        <time>2021-08-19T12:54:05Z</time>
      </trkpt>
      <trkpt lat="44.76885" lon="2.57407">
        <ele>656.1</ele>
        <time>2021-08-19T12:54:07Z</time>
      </trkpt>
      <trkpt lat="44.76894" lon="2.57411">
        <ele>656.3</ele>
        <time>2021-08-19T12:54:09Z</time>
      </trkpt>
      <trkpt lat="44.76904" lon="2.57413">
        <ele>656.5</ele>
        <time>2021-08-19T12:54:11Z</time>
      </trkpt>
      <trkpt lat="44.76915" lon="2.57415">
        <ele>656.9</ele>
        <time>2021-08-19T12:54:13Z</time>
      </trkpt>
      <trkpt lat="44.76925" lon="2.57419">
        <ele>658</ele>
        <time>2021-08-19T12:54:15Z</time>
      </trkpt>
      <trkpt lat="44.76935" lon="2.57421">
        <ele>659.2</ele>
        <time>2021-08-19T12:54:17Z</time>
      </trkpt>
      <trkpt lat="44.76947" lon="2.57415">
        <ele>659.7</ele>
        <time>2021-08-19T12:54:19Z</time>
      </trkpt>
      <trkpt lat="44.76957" lon="2.57402">
        <ele>659.4</ele>
        <time>2021-08-19T12:54:21Z</time>
      </trkpt>
      <trkpt lat="44.76969" lon="2.57391">
        <ele>658.9</ele>
        <time>2021-08-19T12:54:23Z</time>
      </trkpt>
      <trkpt lat="44.7698" lon="2.57379">
        <ele>657.7</ele>
        <time>2021-08-19T12:54:25Z</time>
      </trkpt>
      <trkpt lat="44.7699" lon="2.57369">
        <ele>656.3</ele>
        <time>2021-08-19T12:54:27Z</time>
      </trkpt>
      <trkpt lat="44.77" lon="2.57358">
        <ele>654.4</ele>
        <time>2021-08-19T12:54:29Z</time>
      </trkpt>
      <trkpt lat="44.77007" lon="2.57343">
        <ele>652.9</ele>
        <time>2021-08-19T12:54:31Z</time>
      </trkpt>
      <trkpt lat="44.7701" lon="2.57325">
        <ele>649</ele>
        <time>2021-08-19T12:54:33Z</time>
      </trkpt>
      <trkpt lat="44.77014" lon="2.57309">
        <ele>645</ele>
        <time>2021-08-19T12:54:35Z</time>
      </trkpt>
      <trkpt lat="44.77023" lon="2.57296">
        <ele>641.9</ele>
        <time>2021-08-19T12:54:37Z</time>
      </trkpt>
      <trkpt lat="44.77037" lon="2.57293">
        <ele>642.3</ele>
        <time>2021-08-19T12:54:39Z</time>
      </trkpt>
      <trkpt lat="44.77051" lon="2.57296">
        <ele>644.2</ele>
        <time>2021-08-19T12:54:41Z</time>
      </trkpt>
      <trkpt lat="44.77063" lon="2.57299">
        <ele>646.1</ele>
        <time>2021-08-19T12:54:43Z</time>
      </trkpt>
      <trkpt lat="44.77077" lon="2.57293">
        <ele>645.1</ele>
        <time>2021-08-19T12:54:45Z</time>
      </trkpt>
      <trkpt lat="44.77091" lon="2.57287">
        <ele>644</ele>
        <time>2021-08-19T12:54:47Z</time>
      </trkpt>
      <trkpt lat="44.77106" lon="2.5728">
        <ele>642.5</ele>
        <time>2021-08-19T12:54:49Z</time>
      </trkpt>
      <trkpt lat="44.77121" lon="2.57273">
        <ele>641</ele>
        <time>2021-08-19T12:54:51Z</time>
      </trkpt>
      <trkpt lat="44.77136" lon="2.57266">
        <ele>639.5</ele>
        <time>2021-08-19T12:54:53Z</time>
      </trkpt>
      <trkpt lat="44.7715" lon="2.57258">
        <ele>637.4</ele>
        <time>2021-08-19T12:54:55Z</time>
      </trkpt>
      <trkpt lat="44.77164" lon="2.57249">
        <ele>635.4</ele>
        <time>2021-08-19T12:54:57Z</time>
      </trkpt>
      <trkpt lat="44.77175" lon="2.57238">
        <ele>631.5</ele>
        <time>2021-08-19T12:54:59Z</time>
      </trkpt>
      <trkpt lat="44.77186" lon="2.57228">
        <ele>627.6</ele>
        <time>2021-08-19T12:55:01Z</time>
      </trkpt>
      <trkpt lat="44.77196" lon="2.5722">
        <ele>624.8</ele>
        <time>2021-08-19T12:55:03Z</time>
      </trkpt>
      <trkpt lat="44.77208" lon="2.57215">
        <ele>623.2</ele>
        <time>2021-08-19T12:55:05Z</time>
      </trkpt>
      <trkpt lat="44.77221" lon="2.57215">
        <ele>623.7</ele>
        <time>2021-08-19T12:55:07Z</time>
      </trkpt>
      <trkpt lat="44.77235" lon="2.57224">
        <ele>627.4</ele>
        <time>2021-08-19T12:55:09Z</time>
      </trkpt>
      <trkpt lat="44.77244" lon="2.57237">
        <ele>632.3</ele>
        <time>2021-08-19T12:55:11Z</time>
      </trkpt>
      <trkpt lat="44.77256" lon="2.57246">
        <ele>635.5</ele>
        <time>2021-08-19T12:55:13Z</time>
      </trkpt>
      <trkpt lat="44.77267" lon="2.5725">
        <ele>636.7</ele>
        <time>2021-08-19T12:55:15Z</time>
      </trkpt>
      <trkpt lat="44.7728" lon="2.57248">
        <ele>635.7</ele>
        <time>2021-08-19T12:55:17Z</time>
      </trkpt>
      <trkpt lat="44.77293" lon="2.5724">
        <ele>632.9</ele>
        <time>2021-08-19T12:55:19Z</time>
      </trkpt>
      <trkpt lat="44.77305" lon="2.57229">
        <ele>629.3</ele>
        <time>2021-08-19T12:55:21Z</time>
      </trkpt>
      <trkpt lat="44.77316" lon="2.57215">
        <ele>625</ele>
        <time>2021-08-19T12:55:23Z</time>
      </trkpt>
      <trkpt lat="44.77327" lon="2.572">
        <ele>621</ele>
        <time>2021-08-19T12:55:25Z</time>
      </trkpt>
      <trkpt lat="44.77333" lon="2.57195">
        <ele>619.9</ele>
        <time>2021-08-19T12:55:27Z</time>
      </trkpt>
      <trkpt lat="44.77333" lon="2.57196">
        <ele>620.1</ele>
        <time>2021-08-19T12:55:29Z</time>
      </trkpt>
      <trkpt lat="44.77333" lon="2.57196">
        <ele>620</ele>
        <time>2021-08-19T12:55:31Z</time>
      </trkpt>
      <trkpt lat="44.77333" lon="2.57195">
        <ele>619.9</ele>
        <time>2021-08-19T12:55:33Z</time>
      </trkpt>
      <trkpt lat="44.77333" lon="2.57195">
        <ele>619.9</ele>
        <time>2021-08-19T12:55:35Z</time>
      </trkpt>
      <trkpt lat="44.77334" lon="2.57195">
        <ele>619.8</ele>
        <time>2021-08-19T12:55:37Z</time>
      </trkpt>
      <trkpt lat="44.7734" lon="2.57179">
        <ele>615.4</ele>
        <time>2021-08-19T13:02:13Z</time>
      </trkpt>
      <trkpt lat="44.77341" lon="2.57176">
        <ele>614.7</ele>
        <time>2021-08-19T13:02:15Z</time>
      </trkpt>
      <trkpt lat="44.77344" lon="2.57174">
        <ele>614.3</ele>
        <time>2021-08-19T13:02:17Z</time>
      </trkpt>
      <trkpt lat="44.77349" lon="2.57171">
        <ele>613.6</ele>
        <time>2021-08-19T13:02:19Z</time>
      </trkpt>
      <trkpt lat="44.77353" lon="2.57169">
        <ele>613.3</ele>
        <time>2021-08-19T13:02:21Z</time>
      </trkpt>
      <trkpt lat="44.77357" lon="2.57165">
        <ele>612.3</ele>
        <time>2021-08-19T13:02:23Z</time>
      </trkpt>
      <trkpt lat="44.77359" lon="2.57162">
        <ele>611.6</ele>
        <time>2021-08-19T13:02:25Z</time>
      </trkpt>
      <trkpt lat="44.77362" lon="2.5716">
        <ele>610.9</ele>
        <time>2021-08-19T13:02:27Z</time>
      </trkpt>
      <trkpt lat="44.77365" lon="2.57161">
        <ele>611.2</ele>
        <time>2021-08-19T13:02:29Z</time>
      </trkpt>
      <trkpt lat="44.77368" lon="2.5716">
        <ele>611.2</ele>
        <time>2021-08-19T13:02:31Z</time>
      </trkpt>
      <trkpt lat="44.77369" lon="2.57159">
        <ele>610.8</ele>
        <time>2021-08-19T13:02:33Z</time>
      </trkpt>
      <trkpt lat="44.77369" lon="2.57159">
        <ele>610.8</ele>
        <time>2021-08-19T13:02:35Z</time>
      </trkpt>
      <trkpt lat="44.77369" lon="2.57159">
        <ele>610.8</ele>
        <time>2021-08-19T13:02:37Z</time>
      </trkpt>
      <trkpt lat="44.7737" lon="2.57159">
        <ele>611</ele>
        <time>2021-08-19T13:02:39Z</time>
      </trkpt>
      <trkpt lat="44.7737" lon="2.57159">
        <ele>611</ele>
        <time>2021-08-19T13:02:41Z</time>
      </trkpt>
      <trkpt lat="44.77394" lon="2.57142">
        <ele>607.8</ele>
        <time>2021-08-19T13:07:01Z</time>
      </trkpt>
      <trkpt lat="44.77397" lon="2.57139">
        <ele>607.3</ele>
        <time>2021-08-19T13:07:03Z</time>
      </trkpt>
      <trkpt lat="44.77404" lon="2.57137">
        <ele>607.2</ele>
        <time>2021-08-19T13:07:05Z</time>
      </trkpt>
      <trkpt lat="44.77412" lon="2.57135">
        <ele>607.7</ele>
        <time>2021-08-19T13:07:07Z</time>
      </trkpt>
      <trkpt lat="44.77419" lon="2.57138">
        <ele>608</ele>
        <time>2021-08-19T13:07:09Z</time>
      </trkpt>
      <trkpt lat="44.77425" lon="2.57146">
        <ele>607.5</ele>
        <time>2021-08-19T13:07:11Z</time>
      </trkpt>
      <trkpt lat="44.77431" lon="2.57157">
        <ele>607.5</ele>
        <time>2021-08-19T13:07:13Z</time>
      </trkpt>
      <trkpt lat="44.77434" lon="2.57172">
        <ele>608.7</ele>
        <time>2021-08-19T13:07:15Z</time>
      </trkpt>
      <trkpt lat="44.77438" lon="2.57186">
        <ele>608.4</ele>
        <time>2021-08-19T13:07:17Z</time>
      </trkpt>
      <trkpt lat="44.77443" lon="2.57203">
        <ele>608.1</ele>
        <time>2021-08-19T13:07:19Z</time>
      </trkpt>
      <trkpt lat="44.77447" lon="2.5722">
        <ele>607.8</ele>
        <time>2021-08-19T13:07:21Z</time>
      </trkpt>
      <trkpt lat="44.77452" lon="2.57238">
        <ele>607.4</ele>
        <time>2021-08-19T13:07:23Z</time>
      </trkpt>
      <trkpt lat="44.77458" lon="2.57255">
        <ele>607</ele>
        <time>2021-08-19T13:07:25Z</time>
      </trkpt>
      <trkpt lat="44.77465" lon="2.57273">
        <ele>606.4</ele>
        <time>2021-08-19T13:07:27Z</time>
      </trkpt>
      <trkpt lat="44.77473" lon="2.57288">
        <ele>605.8</ele>
        <time>2021-08-19T13:07:29Z</time>
      </trkpt>
      <trkpt lat="44.77481" lon="2.57303">
        <ele>605.2</ele>
        <time>2021-08-19T13:07:31Z</time>
      </trkpt>
      <trkpt lat="44.7749" lon="2.57316">
        <ele>604.5</ele>
        <time>2021-08-19T13:07:33Z</time>
      </trkpt>
      <trkpt lat="44.77494" lon="2.57328">
        <ele>605.1</ele>
        <time>2021-08-19T13:07:35Z</time>
      </trkpt>
      <trkpt lat="44.77501" lon="2.57335">
        <ele>604.2</ele>
        <time>2021-08-19T13:07:37Z</time>
      </trkpt>
      <trkpt lat="44.77506" lon="2.57335">
        <ele>602</ele>
        <time>2021-08-19T13:07:39Z</time>
      </trkpt>
      <trkpt lat="44.77512" lon="2.5733">
        <ele>598.6</ele>
        <time>2021-08-19T13:07:41Z</time>
      </trkpt>
      <trkpt lat="44.77512" lon="2.57319">
        <ele>596.7</ele>
        <time>2021-08-19T13:07:43Z</time>
      </trkpt>
      <trkpt lat="44.77504" lon="2.57309">
        <ele>598.1</ele>
        <time>2021-08-19T13:07:45Z</time>
      </trkpt>
      <trkpt lat="44.77494" lon="2.57298">
        <ele>599.7</ele>
        <time>2021-08-19T13:07:47Z</time>
      </trkpt>
      <trkpt lat="44.77488" lon="2.57282">
        <ele>599.3</ele>
        <time>2021-08-19T13:07:49Z</time>
      </trkpt>
      <trkpt lat="44.77484" lon="2.57263">
        <ele>597.5</ele>
        <time>2021-08-19T13:07:51Z</time>
      </trkpt>
      <trkpt lat="44.77483" lon="2.57244">
        <ele>595.5</ele>
        <time>2021-08-19T13:07:53Z</time>
      </trkpt>
      <trkpt lat="44.77482" lon="2.57224">
        <ele>594.2</ele>
        <time>2021-08-19T13:07:55Z</time>
      </trkpt>
      <trkpt lat="44.77481" lon="2.57205">
        <ele>593</ele>
        <time>2021-08-19T13:07:57Z</time>
      </trkpt>
      <trkpt lat="44.77477" lon="2.57183">
        <ele>592.4</ele>
        <time>2021-08-19T13:07:59Z</time>
      </trkpt>
      <trkpt lat="44.77476" lon="2.57164">
        <ele>591.2</ele>
        <time>2021-08-19T13:08:01Z</time>
      </trkpt>
      <trkpt lat="44.77476" lon="2.57146">
        <ele>589.3</ele>
        <time>2021-08-19T13:08:03Z</time>
      </trkpt>
      <trkpt lat="44.77476" lon="2.57127">
        <ele>587.6</ele>
        <time>2021-08-19T13:08:05Z</time>
      </trkpt>
      <trkpt lat="44.77476" lon="2.57106">
        <ele>585.5</ele>
        <time>2021-08-19T13:08:07Z</time>
      </trkpt>
      <trkpt lat="44.77477" lon="2.57082">
        <ele>583</ele>
        <time>2021-08-19T13:08:09Z</time>
      </trkpt>
      <trkpt lat="44.7748" lon="2.57061">
        <ele>579.7</ele>
        <time>2021-08-19T13:08:11Z</time>
      </trkpt>
      <trkpt lat="44.77481" lon="2.57038">
        <ele>576.6</ele>
        <time>2021-08-19T13:08:13Z</time>
      </trkpt>
      <trkpt lat="44.77484" lon="2.57017">
        <ele>574</ele>
        <time>2021-08-19T13:08:15Z</time>
      </trkpt>
      <trkpt lat="44.77485" lon="2.56998">
        <ele>571.8</ele>
        <time>2021-08-19T13:08:17Z</time>
      </trkpt>
      <trkpt lat="44.77486" lon="2.56982">
        <ele>569.9</ele>
        <time>2021-08-19T13:08:19Z</time>
      </trkpt>
      <trkpt lat="44.77488" lon="2.56971">
        <ele>568.8</ele>
        <time>2021-08-19T13:08:21Z</time>
      </trkpt>
      <trkpt lat="44.77494" lon="2.56964">
        <ele>568.7</ele>
        <time>2021-08-19T13:08:23Z</time>
      </trkpt>
      <trkpt lat="44.77501" lon="2.56972">
        <ele>570.2</ele>
        <time>2021-08-19T13:08:25Z</time>
      </trkpt>
      <trkpt lat="44.775" lon="2.56986">
        <ele>571.6</ele>
        <time>2021-08-19T13:08:27Z</time>
      </trkpt>
      <trkpt lat="44.77498" lon="2.56995">
        <ele>572.4</ele>
        <time>2021-08-19T13:08:29Z</time>
      </trkpt>
      <trkpt lat="44.77497" lon="2.57003">
        <ele>573</ele>
        <time>2021-08-19T13:08:31Z</time>
      </trkpt>
      <trkpt lat="44.77497" lon="2.5701">
        <ele>573.5</ele>
        <time>2021-08-19T13:08:33Z</time>
      </trkpt>
      <trkpt lat="44.77497" lon="2.57016">
        <ele>573.9</ele>
        <time>2021-08-19T13:08:35Z</time>
      </trkpt>
      <trkpt lat="44.77497" lon="2.57023">
        <ele>574.4</ele>
        <time>2021-08-19T13:08:37Z</time>
      </trkpt>
      <trkpt lat="44.77497" lon="2.57034">
        <ele>575.2</ele>
        <time>2021-08-19T13:08:39Z</time>
      </trkpt>
      <trkpt lat="44.77498" lon="2.57046">
        <ele>575.9</ele>
        <time>2021-08-19T13:08:41Z</time>
      </trkpt>
      <trkpt lat="44.77498" lon="2.57059">
        <ele>576.9</ele>
        <time>2021-08-19T13:08:43Z</time>
      </trkpt>
      <trkpt lat="44.77497" lon="2.57073">
        <ele>577.9</ele>
        <time>2021-08-19T13:08:45Z</time>
      </trkpt>
      <trkpt lat="44.77499" lon="2.57089">
        <ele>578.6</ele>
        <time>2021-08-19T13:08:47Z</time>
      </trkpt>
      <trkpt lat="44.77501" lon="2.57106">
        <ele>578.8</ele>
        <time>2021-08-19T13:08:49Z</time>
      </trkpt>
      <trkpt lat="44.77506" lon="2.57125">
        <ele>577</ele>
        <time>2021-08-19T13:08:51Z</time>
      </trkpt>
      <trkpt lat="44.77508" lon="2.57142">
        <ele>576.7</ele>
        <time>2021-08-19T13:08:53Z</time>
      </trkpt>
      <trkpt lat="44.77511" lon="2.57159">
        <ele>575.9</ele>
        <time>2021-08-19T13:08:55Z</time>
      </trkpt>
      <trkpt lat="44.77516" lon="2.57173">
        <ele>574.2</ele>
        <time>2021-08-19T13:08:57Z</time>
      </trkpt>
      <trkpt lat="44.77522" lon="2.5719">
        <ele>573.2</ele>
        <time>2021-08-19T13:08:59Z</time>
      </trkpt>
      <trkpt lat="44.77525" lon="2.57209">
        <ele>574</ele>
        <time>2021-08-19T13:09:01Z</time>
      </trkpt>
      <trkpt lat="44.77529" lon="2.57226">
        <ele>574.3</ele>
        <time>2021-08-19T13:09:03Z</time>
      </trkpt>
      <trkpt lat="44.7754" lon="2.5724">
        <ele>571.2</ele>
        <time>2021-08-19T13:09:05Z</time>
      </trkpt>
      <trkpt lat="44.77555" lon="2.57246">
        <ele>565.7</ele>
        <time>2021-08-19T13:09:07Z</time>
      </trkpt>
      <trkpt lat="44.77559" lon="2.57252">
        <ele>565.4</ele>
        <time>2021-08-19T13:09:09Z</time>
      </trkpt>
      <trkpt lat="44.77571" lon="2.5726">
        <ele>562</ele>
        <time>2021-08-19T13:09:11Z</time>
      </trkpt>
      <trkpt lat="44.77583" lon="2.57269">
        <ele>559.1</ele>
        <time>2021-08-19T13:09:13Z</time>
      </trkpt>
      <trkpt lat="44.77593" lon="2.57282">
        <ele>557.1</ele>
        <time>2021-08-19T13:09:15Z</time>
      </trkpt>
      <trkpt lat="44.77604" lon="2.57297">
        <ele>555.8</ele>
        <time>2021-08-19T13:09:17Z</time>
      </trkpt>
      <trkpt lat="44.7761" lon="2.57313">
        <ele>556.5</ele>
        <time>2021-08-19T13:09:19Z</time>
      </trkpt>
      <trkpt lat="44.77615" lon="2.57327">
        <ele>557.8</ele>
        <time>2021-08-19T13:09:21Z</time>
      </trkpt>
      <trkpt lat="44.77617" lon="2.57343">
        <ele>560.7</ele>
        <time>2021-08-19T13:09:23Z</time>
      </trkpt>
      <trkpt lat="44.77614" lon="2.57359">
        <ele>565.5</ele>
        <time>2021-08-19T13:09:25Z</time>
      </trkpt>
      <trkpt lat="44.77612" lon="2.57371">
        <ele>569.1</ele>
        <time>2021-08-19T13:09:27Z</time>
      </trkpt>
      <trkpt lat="44.77611" lon="2.57383">
        <ele>572.6</ele>
        <time>2021-08-19T13:09:29Z</time>
      </trkpt>
      <trkpt lat="44.7761" lon="2.5739">
        <ele>574.4</ele>
        <time>2021-08-19T13:09:31Z</time>
      </trkpt>
      <trkpt lat="44.77619" lon="2.57397">
        <ele>572.7</ele>
        <time>2021-08-19T13:09:33Z</time>
      </trkpt>
      <trkpt lat="44.7763" lon="2.57395">
        <ele>567.8</ele>
        <time>2021-08-19T13:09:35Z</time>
      </trkpt>
      <trkpt lat="44.77641" lon="2.57392">
        <ele>562.8</ele>
        <time>2021-08-19T13:09:37Z</time>
      </trkpt>
      <trkpt lat="44.77653" lon="2.57383">
        <ele>555.8</ele>
        <time>2021-08-19T13:09:39Z</time>
      </trkpt>
      <trkpt lat="44.77665" lon="2.57378">
        <ele>550.2</ele>
        <time>2021-08-19T13:09:41Z</time>
      </trkpt>
      <trkpt lat="44.77677" lon="2.57368">
        <ele>546.8</ele>
        <time>2021-08-19T13:09:43Z</time>
      </trkpt>
      <trkpt lat="44.7769" lon="2.57357">
        <ele>544.2</ele>
        <time>2021-08-19T13:09:45Z</time>
      </trkpt>
      <trkpt lat="44.77701" lon="2.57345">
        <ele>541.5</ele>
        <time>2021-08-19T13:09:47Z</time>
      </trkpt>
      <trkpt lat="44.77715" lon="2.57334">
        <ele>539.4</ele>
        <time>2021-08-19T13:09:49Z</time>
      </trkpt>
      <trkpt lat="44.77729" lon="2.57323">
        <ele>536.5</ele>
        <time>2021-08-19T13:09:51Z</time>
      </trkpt>
      <trkpt lat="44.77741" lon="2.57308">
        <ele>532.7</ele>
        <time>2021-08-19T13:09:53Z</time>
      </trkpt>
      <trkpt lat="44.77753" lon="2.57294">
        <ele>528.6</ele>
        <time>2021-08-19T13:09:55Z</time>
      </trkpt>
      <trkpt lat="44.77766" lon="2.57283">
        <ele>525.3</ele>
        <time>2021-08-19T13:09:57Z</time>
      </trkpt>
      <trkpt lat="44.77778" lon="2.57274">
        <ele>522.9</ele>
        <time>2021-08-19T13:09:59Z</time>
      </trkpt>
      <trkpt lat="44.77789" lon="2.57269">
        <ele>521.9</ele>
        <time>2021-08-19T13:10:01Z</time>
      </trkpt>
      <trkpt lat="44.77799" lon="2.57266">
        <ele>521.5</ele>
        <time>2021-08-19T13:10:03Z</time>
      </trkpt>
      <trkpt lat="44.77812" lon="2.57268">
        <ele>522</ele>
        <time>2021-08-19T13:10:05Z</time>
      </trkpt>
      <trkpt lat="44.77825" lon="2.57278">
        <ele>523.5</ele>
        <time>2021-08-19T13:10:07Z</time>
      </trkpt>
      <trkpt lat="44.77834" lon="2.57289">
        <ele>524.4</ele>
        <time>2021-08-19T13:10:09Z</time>
      </trkpt>
      <trkpt lat="44.77841" lon="2.57302">
        <ele>524.1</ele>
        <time>2021-08-19T13:10:11Z</time>
      </trkpt>
      <trkpt lat="44.77844" lon="2.57321">
        <ele>525.4</ele>
        <time>2021-08-19T13:10:13Z</time>
      </trkpt>
      <trkpt lat="44.77845" lon="2.57341">
        <ele>526.4</ele>
        <time>2021-08-19T13:10:15Z</time>
      </trkpt>
      <trkpt lat="44.77845" lon="2.57361">
        <ele>526.8</ele>
        <time>2021-08-19T13:10:17Z</time>
      </trkpt>
      <trkpt lat="44.77845" lon="2.57381">
        <ele>527.2</ele>
        <time>2021-08-19T13:10:19Z</time>
      </trkpt>
      <trkpt lat="44.77843" lon="2.574">
        <ele>528.1</ele>
        <time>2021-08-19T13:10:21Z</time>
      </trkpt>
      <trkpt lat="44.77841" lon="2.57417">
        <ele>529.1</ele>
        <time>2021-08-19T13:10:23Z</time>
      </trkpt>
      <trkpt lat="44.77843" lon="2.57435">
        <ele>528.6</ele>
        <time>2021-08-19T13:10:25Z</time>
      </trkpt>
      <trkpt lat="44.77849" lon="2.57453">
        <ele>526.7</ele>
        <time>2021-08-19T13:10:27Z</time>
      </trkpt>
      <trkpt lat="44.77857" lon="2.57468">
        <ele>524.3</ele>
        <time>2021-08-19T13:10:29Z</time>
      </trkpt>
      <trkpt lat="44.77864" lon="2.57483">
        <ele>522.2</ele>
        <time>2021-08-19T13:10:31Z</time>
      </trkpt>
      <trkpt lat="44.7787" lon="2.57498">
        <ele>520.6</ele>
        <time>2021-08-19T13:10:33Z</time>
      </trkpt>
      <trkpt lat="44.77877" lon="2.57513">
        <ele>520.3</ele>
        <time>2021-08-19T13:10:35Z</time>
      </trkpt>
      <trkpt lat="44.77888" lon="2.57525">
        <ele>518.7</ele>
        <time>2021-08-19T13:10:37Z</time>
      </trkpt>
      <trkpt lat="44.77899" lon="2.57537">
        <ele>517.2</ele>
        <time>2021-08-19T13:10:39Z</time>
      </trkpt>
      <trkpt lat="44.77907" lon="2.5755">
        <ele>516.9</ele>
        <time>2021-08-19T13:10:41Z</time>
      </trkpt>
      <trkpt lat="44.77917" lon="2.57563">
        <ele>516.4</ele>
        <time>2021-08-19T13:10:43Z</time>
      </trkpt>
      <trkpt lat="44.7793" lon="2.57571">
        <ele>514.7</ele>
        <time>2021-08-19T13:10:45Z</time>
      </trkpt>
      <trkpt lat="44.77946" lon="2.57574">
        <ele>511.6</ele>
        <time>2021-08-19T13:10:47Z</time>
      </trkpt>
      <trkpt lat="44.7796" lon="2.57578">
        <ele>509.1</ele>
        <time>2021-08-19T13:10:49Z</time>
      </trkpt>
      <trkpt lat="44.77974" lon="2.57583">
        <ele>506.8</ele>
        <time>2021-08-19T13:10:51Z</time>
      </trkpt>
      <trkpt lat="44.77988" lon="2.57588">
        <ele>505.3</ele>
        <time>2021-08-19T13:10:53Z</time>
      </trkpt>
      <trkpt lat="44.78002" lon="2.57592">
        <ele>502.9</ele>
        <time>2021-08-19T13:10:55Z</time>
      </trkpt>
      <trkpt lat="44.78016" lon="2.57593">
        <ele>500</ele>
        <time>2021-08-19T13:10:57Z</time>
      </trkpt>
      <trkpt lat="44.78028" lon="2.57596">
        <ele>497.7</ele>
        <time>2021-08-19T13:10:59Z</time>
      </trkpt>
      <trkpt lat="44.78041" lon="2.57602">
        <ele>496</ele>
        <time>2021-08-19T13:11:01Z</time>
      </trkpt>
      <trkpt lat="44.78052" lon="2.57615">
        <ele>496.1</ele>
        <time>2021-08-19T13:11:03Z</time>
      </trkpt>
      <trkpt lat="44.78057" lon="2.57633">
        <ele>498.5</ele>
        <time>2021-08-19T13:11:05Z</time>
      </trkpt>
      <trkpt lat="44.78062" lon="2.57652">
        <ele>500.6</ele>
        <time>2021-08-19T13:11:07Z</time>
      </trkpt>
      <trkpt lat="44.7807" lon="2.5767">
        <ele>501.1</ele>
        <time>2021-08-19T13:11:09Z</time>
      </trkpt>
      <trkpt lat="44.78083" lon="2.57685">
        <ele>498.4</ele>
        <time>2021-08-19T13:11:11Z</time>
      </trkpt>
      <trkpt lat="44.78095" lon="2.57698">
        <ele>495.9</ele>
        <time>2021-08-19T13:11:13Z</time>
      </trkpt>
      <trkpt lat="44.78105" lon="2.5771">
        <ele>494.2</ele>
        <time>2021-08-19T13:11:15Z</time>
      </trkpt>
      <trkpt lat="44.78117" lon="2.57716">
        <ele>490.7</ele>
        <time>2021-08-19T13:11:17Z</time>
      </trkpt>
      <trkpt lat="44.78126" lon="2.57732">
        <ele>489.8</ele>
        <time>2021-08-19T13:11:19Z</time>
      </trkpt>
      <trkpt lat="44.78133" lon="2.57752">
        <ele>489.9</ele>
        <time>2021-08-19T13:11:21Z</time>
      </trkpt>
      <trkpt lat="44.7814" lon="2.57771">
        <ele>489</ele>
        <time>2021-08-19T13:11:23Z</time>
      </trkpt>
      <trkpt lat="44.78149" lon="2.57789">
        <ele>487.5</ele>
        <time>2021-08-19T13:11:25Z</time>
      </trkpt>
      <trkpt lat="44.78158" lon="2.57807">
        <ele>485.9</ele>
        <time>2021-08-19T13:11:27Z</time>
      </trkpt>
      <trkpt lat="44.78167" lon="2.57822">
        <ele>483.9</ele>
        <time>2021-08-19T13:11:29Z</time>
      </trkpt>
      <trkpt lat="44.78175" lon="2.57838">
        <ele>481.8</ele>
        <time>2021-08-19T13:11:31Z</time>
      </trkpt>
      <trkpt lat="44.78184" lon="2.57852">
        <ele>478.6</ele>
        <time>2021-08-19T13:11:33Z</time>
      </trkpt>
      <trkpt lat="44.78192" lon="2.57866">
        <ele>475.8</ele>
        <time>2021-08-19T13:11:35Z</time>
      </trkpt>
      <trkpt lat="44.782" lon="2.57878">
        <ele>473</ele>
        <time>2021-08-19T13:11:37Z</time>
      </trkpt>
      <trkpt lat="44.78203" lon="2.57894">
        <ele>471.9</ele>
        <time>2021-08-19T13:11:39Z</time>
      </trkpt>
      <trkpt lat="44.782" lon="2.57911">
        <ele>473.3</ele>
        <time>2021-08-19T13:11:41Z</time>
      </trkpt>
      <trkpt lat="44.7819" lon="2.57927">
        <ele>475.6</ele>
        <time>2021-08-19T13:11:43Z</time>
      </trkpt>
      <trkpt lat="44.78181" lon="2.5794">
        <ele>477.5</ele>
        <time>2021-08-19T13:11:45Z</time>
      </trkpt>
      <trkpt lat="44.78172" lon="2.57954">
        <ele>478.5</ele>
        <time>2021-08-19T13:11:47Z</time>
      </trkpt>
      <trkpt lat="44.78164" lon="2.57966">
        <ele>479.4</ele>
        <time>2021-08-19T13:11:49Z</time>
      </trkpt>
      <trkpt lat="44.78158" lon="2.57975">
        <ele>480.2</ele>
        <time>2021-08-19T13:11:51Z</time>
      </trkpt>
      <trkpt lat="44.78156" lon="2.57986">
        <ele>479.9</ele>
        <time>2021-08-19T13:11:53Z</time>
      </trkpt>
      <trkpt lat="44.78164" lon="2.58">
        <ele>475.7</ele>
        <time>2021-08-19T13:11:55Z</time>
      </trkpt>
      <trkpt lat="44.78173" lon="2.58009">
        <ele>473.4</ele>
        <time>2021-08-19T13:11:57Z</time>
      </trkpt>
      <trkpt lat="44.78186" lon="2.58019">
        <ele>470.8</ele>
        <time>2021-08-19T13:11:59Z</time>
      </trkpt>
      <trkpt lat="44.78193" lon="2.58032">
        <ele>469.2</ele>
        <time>2021-08-19T13:12:01Z</time>
      </trkpt>
      <trkpt lat="44.78199" lon="2.58045">
        <ele>468.1</ele>
        <time>2021-08-19T13:12:03Z</time>
      </trkpt>
      <trkpt lat="44.78205" lon="2.58054">
        <ele>467.2</ele>
        <time>2021-08-19T13:12:05Z</time>
      </trkpt>
      <trkpt lat="44.78214" lon="2.58058">
        <ele>465.9</ele>
        <time>2021-08-19T13:12:07Z</time>
      </trkpt>
      <trkpt lat="44.78227" lon="2.58059">
        <ele>464.1</ele>
        <time>2021-08-19T13:12:09Z</time>
      </trkpt>
      <trkpt lat="44.78239" lon="2.5806">
        <ele>462.6</ele>
        <time>2021-08-19T13:12:11Z</time>
      </trkpt>
      <trkpt lat="44.78248" lon="2.58057">
        <ele>461.3</ele>
        <time>2021-08-19T13:12:13Z</time>
      </trkpt>
      <trkpt lat="44.78255" lon="2.58057">
        <ele>460.2</ele>
        <time>2021-08-19T13:12:15Z</time>
      </trkpt>
      <trkpt lat="44.78259" lon="2.58057">
        <ele>459.4</ele>
        <time>2021-08-19T13:12:17Z</time>
      </trkpt>
      <trkpt lat="44.7826" lon="2.58057">
        <ele>459.4</ele>
        <time>2021-08-19T13:12:19Z</time>
      </trkpt>
      <trkpt lat="44.78259" lon="2.58056">
        <ele>459.4</ele>
        <time>2021-08-19T13:12:21Z</time>
      </trkpt>
      <trkpt lat="44.78259" lon="2.58056">
        <ele>459.4</ele>
        <time>2021-08-19T13:12:23Z</time>
      </trkpt>
      <trkpt lat="44.7826" lon="2.58056">
        <ele>459.4</ele>
        <time>2021-08-19T13:12:25Z</time>
      </trkpt>
      <trkpt lat="44.78274" lon="2.58048">
        <ele>456.4</ele>
        <time>2021-08-19T13:13:15Z</time>
      </trkpt>
      <trkpt lat="44.78276" lon="2.58047">
        <ele>456.2</ele>
        <time>2021-08-19T13:13:17Z</time>
      </trkpt>
      <trkpt lat="44.78278" lon="2.58046">
        <ele>455.7</ele>
        <time>2021-08-19T13:13:19Z</time>
      </trkpt>
      <trkpt lat="44.78283" lon="2.58044">
        <ele>454.8</ele>
        <time>2021-08-19T13:13:21Z</time>
      </trkpt>
      <trkpt lat="44.78286" lon="2.58043">
        <ele>454</ele>
        <time>2021-08-19T13:13:23Z</time>
      </trkpt>
      <trkpt lat="44.78291" lon="2.58041">
        <ele>453.1</ele>
        <time>2021-08-19T13:13:25Z</time>
      </trkpt>
      <trkpt lat="44.78298" lon="2.58036">
        <ele>451.6</ele>
        <time>2021-08-19T13:13:27Z</time>
      </trkpt>
      <trkpt lat="44.78306" lon="2.58031">
        <ele>449.7</ele>
        <time>2021-08-19T13:13:29Z</time>
      </trkpt>
      <trkpt lat="44.78315" lon="2.58029">
        <ele>447.9</ele>
        <time>2021-08-19T13:13:31Z</time>
      </trkpt>
      <trkpt lat="44.78323" lon="2.58034">
        <ele>446.7</ele>
        <time>2021-08-19T13:13:33Z</time>
      </trkpt>
      <trkpt lat="44.7833" lon="2.58046">
        <ele>446.5</ele>
        <time>2021-08-19T13:13:35Z</time>
      </trkpt>
      <trkpt lat="44.78333" lon="2.5806">
        <ele>447</ele>
        <time>2021-08-19T13:13:37Z</time>
      </trkpt>
      <trkpt lat="44.78335" lon="2.58075">
        <ele>447.6</ele>
        <time>2021-08-19T13:13:39Z</time>
      </trkpt>
      <trkpt lat="44.78334" lon="2.58089">
        <ele>448.1</ele>
        <time>2021-08-19T13:13:41Z</time>
      </trkpt>
      <trkpt lat="44.78332" lon="2.58102">
        <ele>447.2</ele>
        <time>2021-08-19T13:13:43Z</time>
      </trkpt>
      <trkpt lat="44.78327" lon="2.58118">
        <ele>446.3</ele>
        <time>2021-08-19T13:13:45Z</time>
      </trkpt>
      <trkpt lat="44.7832" lon="2.58136">
        <ele>445.7</ele>
        <time>2021-08-19T13:13:47Z</time>
      </trkpt>
      <trkpt lat="44.78313" lon="2.58155">
        <ele>445</ele>
        <time>2021-08-19T13:13:49Z</time>
      </trkpt>
      <trkpt lat="44.78306" lon="2.58175">
        <ele>444</ele>
        <time>2021-08-19T13:13:51Z</time>
      </trkpt>
      <trkpt lat="44.783" lon="2.58194">
        <ele>442.4</ele>
        <time>2021-08-19T13:13:53Z</time>
      </trkpt>
      <trkpt lat="44.78293" lon="2.58214">
        <ele>440.9</ele>
        <time>2021-08-19T13:13:55Z</time>
      </trkpt>
      <trkpt lat="44.78286" lon="2.58236">
        <ele>439.4</ele>
        <time>2021-08-19T13:13:57Z</time>
      </trkpt>
      <trkpt lat="44.7828" lon="2.58256">
        <ele>438</ele>
        <time>2021-08-19T13:13:59Z</time>
      </trkpt>
      <trkpt lat="44.78274" lon="2.58276">
        <ele>436.6</ele>
        <time>2021-08-19T13:14:01Z</time>
      </trkpt>
      <trkpt lat="44.78269" lon="2.58294">
        <ele>435.6</ele>
        <time>2021-08-19T13:14:03Z</time>
      </trkpt>
      <trkpt lat="44.78263" lon="2.58309">
        <ele>435.6</ele>
        <time>2021-08-19T13:14:05Z</time>
      </trkpt>
      <trkpt lat="44.78253" lon="2.58321">
        <ele>437.4</ele>
        <time>2021-08-19T13:14:07Z</time>
      </trkpt>
      <trkpt lat="44.7824" lon="2.58326">
        <ele>439.2</ele>
        <time>2021-08-19T13:14:09Z</time>
      </trkpt>
      <trkpt lat="44.78226" lon="2.58321">
        <ele>441.4</ele>
        <time>2021-08-19T13:14:11Z</time>
      </trkpt>
      <trkpt lat="44.78213" lon="2.58313">
        <ele>443.8</ele>
        <time>2021-08-19T13:14:13Z</time>
      </trkpt>
      <trkpt lat="44.78198" lon="2.58304">
        <ele>446</ele>
        <time>2021-08-19T13:14:15Z</time>
      </trkpt>
      <trkpt lat="44.78185" lon="2.58301">
        <ele>447.6</ele>
        <time>2021-08-19T13:14:17Z</time>
      </trkpt>
      <trkpt lat="44.78175" lon="2.58294">
        <ele>449.1</ele>
        <time>2021-08-19T13:14:19Z</time>
      </trkpt>
      <trkpt lat="44.78167" lon="2.58294">
        <ele>449.9</ele>
        <time>2021-08-19T13:14:21Z</time>
      </trkpt>
      <trkpt lat="44.78162" lon="2.58301">
        <ele>451.7</ele>
        <time>2021-08-19T13:14:23Z</time>
      </trkpt>
      <trkpt lat="44.78164" lon="2.58314">
        <ele>450.1</ele>
        <time>2021-08-19T13:14:25Z</time>
      </trkpt>
      <trkpt lat="44.7817" lon="2.58326">
        <ele>448</ele>
        <time>2021-08-19T13:14:27Z</time>
      </trkpt>
      <trkpt lat="44.78175" lon="2.58339">
        <ele>447</ele>
        <time>2021-08-19T13:14:29Z</time>
      </trkpt>
      <trkpt lat="44.78181" lon="2.58355">
        <ele>446.5</ele>
        <time>2021-08-19T13:14:31Z</time>
      </trkpt>
      <trkpt lat="44.78187" lon="2.58371">
        <ele>445.2</ele>
        <time>2021-08-19T13:14:33Z</time>
      </trkpt>
      <trkpt lat="44.78196" lon="2.58388">
        <ele>442.7</ele>
        <time>2021-08-19T13:14:35Z</time>
      </trkpt>
      <trkpt lat="44.78208" lon="2.584">
        <ele>439.1</ele>
        <time>2021-08-19T13:14:37Z</time>
      </trkpt>
      <trkpt lat="44.78217" lon="2.58411">
        <ele>435.4</ele>
        <time>2021-08-19T13:14:39Z</time>
      </trkpt>
      <trkpt lat="44.78229" lon="2.58423">
        <ele>430.3</ele>
        <time>2021-08-19T13:14:41Z</time>
      </trkpt>
      <trkpt lat="44.78236" lon="2.58439">
        <ele>426.4</ele>
        <time>2021-08-19T13:14:43Z</time>
      </trkpt>
      <trkpt lat="44.78238" lon="2.58458">
        <ele>423.8</ele>
        <time>2021-08-19T13:14:45Z</time>
      </trkpt>
      <trkpt lat="44.78234" lon="2.58478">
        <ele>423.1</ele>
        <time>2021-08-19T13:14:47Z</time>
      </trkpt>
      <trkpt lat="44.78228" lon="2.58501">
        <ele>423.1</ele>
        <time>2021-08-19T13:14:49Z</time>
      </trkpt>
      <trkpt lat="44.78224" lon="2.58523">
        <ele>421.6</ele>
        <time>2021-08-19T13:14:51Z</time>
      </trkpt>
      <trkpt lat="44.78221" lon="2.58546">
        <ele>419.4</ele>
        <time>2021-08-19T13:14:53Z</time>
      </trkpt>
      <trkpt lat="44.78223" lon="2.58568">
        <ele>415.7</ele>
        <time>2021-08-19T13:14:55Z</time>
      </trkpt>
      <trkpt lat="44.7822" lon="2.58587">
        <ele>413.6</ele>
        <time>2021-08-19T13:14:57Z</time>
      </trkpt>
      <trkpt lat="44.78213" lon="2.58603">
        <ele>413</ele>
        <time>2021-08-19T13:14:59Z</time>
      </trkpt>
      <trkpt lat="44.78201" lon="2.58615">
        <ele>413.8</ele>
        <time>2021-08-19T13:15:01Z</time>
      </trkpt>
      <trkpt lat="44.78187" lon="2.58626">
        <ele>415</ele>
        <time>2021-08-19T13:15:03Z</time>
      </trkpt>
      <trkpt lat="44.78172" lon="2.58634">
        <ele>416.4</ele>
        <time>2021-08-19T13:15:05Z</time>
      </trkpt>
      <trkpt lat="44.78155" lon="2.58642">
        <ele>417.2</ele>
        <time>2021-08-19T13:15:07Z</time>
      </trkpt>
      <trkpt lat="44.78139" lon="2.58649">
        <ele>417.6</ele>
        <time>2021-08-19T13:15:09Z</time>
      </trkpt>
      <trkpt lat="44.78124" lon="2.58659">
        <ele>416.6</ele>
        <time>2021-08-19T13:15:11Z</time>
      </trkpt>
      <trkpt lat="44.78112" lon="2.58671">
        <ele>415.6</ele>
        <time>2021-08-19T13:15:13Z</time>
      </trkpt>
      <trkpt lat="44.781" lon="2.58681">
        <ele>417</ele>
        <time>2021-08-19T13:15:15Z</time>
      </trkpt>
      <trkpt lat="44.78086" lon="2.58685">
        <ele>418.5</ele>
        <time>2021-08-19T13:15:17Z</time>
      </trkpt>
      <trkpt lat="44.78075" lon="2.58684">
        <ele>419</ele>
        <time>2021-08-19T13:15:19Z</time>
      </trkpt>
      <trkpt lat="44.78067" lon="2.58684">
        <ele>419.1</ele>
        <time>2021-08-19T13:15:21Z</time>
      </trkpt>
      <trkpt lat="44.78059" lon="2.58693">
        <ele>418.8</ele>
        <time>2021-08-19T13:15:23Z</time>
      </trkpt>
      <trkpt lat="44.78056" lon="2.58708">
        <ele>418</ele>
        <time>2021-08-19T13:15:25Z</time>
      </trkpt>
      <trkpt lat="44.78055" lon="2.58721">
        <ele>417.3</ele>
        <time>2021-08-19T13:15:27Z</time>
      </trkpt>
      <trkpt lat="44.78055" lon="2.58733">
        <ele>416.6</ele>
        <time>2021-08-19T13:15:29Z</time>
      </trkpt>
      <trkpt lat="44.78061" lon="2.5874">
        <ele>416.6</ele>
        <time>2021-08-19T13:15:31Z</time>
      </trkpt>
      <trkpt lat="44.78065" lon="2.58741">
        <ele>416.8</ele>
        <time>2021-08-19T13:15:33Z</time>
      </trkpt>
      <trkpt lat="44.78066" lon="2.58741">
        <ele>416.9</ele>
        <time>2021-08-19T13:15:35Z</time>
      </trkpt>
      <trkpt lat="44.78066" lon="2.58741">
        <ele>416.9</ele>
        <time>2021-08-19T13:15:37Z</time>
      </trkpt>
      <trkpt lat="44.78066" lon="2.58741">
        <ele>416.9</ele>
        <time>2021-08-19T13:15:39Z</time>
      </trkpt>
      <trkpt lat="44.78066" lon="2.58741">
        <ele>416.9</ele>
        <time>2021-08-19T13:15:41Z</time>
      </trkpt>
      <trkpt lat="44.78067" lon="2.5874">
        <ele>417</ele>
        <time>2021-08-19T13:15:43Z</time>
      </trkpt>
      <trkpt lat="44.78105" lon="2.58753">
        <ele>417.4</ele>
        <time>2021-08-19T13:16:39Z</time>
      </trkpt>
      <trkpt lat="44.78108" lon="2.58753">
        <ele>417.3</ele>
        <time>2021-08-19T13:16:41Z</time>
      </trkpt>
      <trkpt lat="44.7811" lon="2.58754">
        <ele>417.3</ele>
        <time>2021-08-19T13:16:43Z</time>
      </trkpt>
      <trkpt lat="44.78113" lon="2.58754">
        <ele>417.2</ele>
        <time>2021-08-19T13:16:45Z</time>
      </trkpt>
      <trkpt lat="44.78116" lon="2.58754">
        <ele>417.2</ele>
        <time>2021-08-19T13:16:47Z</time>
      </trkpt>
      <trkpt lat="44.78119" lon="2.58756">
        <ele>417.3</ele>
        <time>2021-08-19T13:16:49Z</time>
      </trkpt>
      <trkpt lat="44.78122" lon="2.58755">
        <ele>417</ele>
        <time>2021-08-19T13:16:51Z</time>
      </trkpt>
      <trkpt lat="44.78125" lon="2.58756">
        <ele>417.1</ele>
        <time>2021-08-19T13:16:53Z</time>
      </trkpt>
      <trkpt lat="44.78128" lon="2.58757">
        <ele>417.1</ele>
        <time>2021-08-19T13:16:55Z</time>
      </trkpt>
      <trkpt lat="44.7813" lon="2.58755">
        <ele>416.5</ele>
        <time>2021-08-19T13:16:57Z</time>
      </trkpt>
      <trkpt lat="44.78134" lon="2.58756">
        <ele>416.4</ele>
        <time>2021-08-19T13:16:59Z</time>
      </trkpt>
      <trkpt lat="44.78136" lon="2.58757">
        <ele>416.6</ele>
        <time>2021-08-19T13:17:01Z</time>
      </trkpt>
      <trkpt lat="44.7814" lon="2.58757">
        <ele>416.5</ele>
        <time>2021-08-19T13:17:03Z</time>
      </trkpt>
      <trkpt lat="44.78142" lon="2.58757">
        <ele>416.3</ele>
        <time>2021-08-19T13:17:05Z</time>
      </trkpt>
      <trkpt lat="44.78145" lon="2.58757">
        <ele>416.2</ele>
        <time>2021-08-19T13:17:07Z</time>
      </trkpt>
      <trkpt lat="44.78147" lon="2.58758">
        <ele>416.3</ele>
        <time>2021-08-19T13:17:09Z</time>
      </trkpt>
      <trkpt lat="44.7815" lon="2.58758">
        <ele>416.2</ele>
        <time>2021-08-19T13:17:11Z</time>
      </trkpt>
      <trkpt lat="44.78153" lon="2.58758">
        <ele>416.1</ele>
        <time>2021-08-19T13:17:13Z</time>
      </trkpt>
      <trkpt lat="44.78157" lon="2.58758">
        <ele>415.7</ele>
        <time>2021-08-19T13:17:15Z</time>
      </trkpt>
      <trkpt lat="44.7816" lon="2.58758">
        <ele>415.7</ele>
        <time>2021-08-19T13:17:17Z</time>
      </trkpt>
      <trkpt lat="44.78164" lon="2.5876">
        <ele>415.9</ele>
        <time>2021-08-19T13:17:19Z</time>
      </trkpt>
      <trkpt lat="44.78167" lon="2.58762">
        <ele>416.3</ele>
        <time>2021-08-19T13:17:21Z</time>
      </trkpt>
      <trkpt lat="44.7817" lon="2.58762">
        <ele>416</ele>
        <time>2021-08-19T13:17:23Z</time>
      </trkpt>
      <trkpt lat="44.78174" lon="2.58762">
        <ele>415.3</ele>
        <time>2021-08-19T13:17:25Z</time>
      </trkpt>
      <trkpt lat="44.78176" lon="2.58763">
        <ele>415.3</ele>
        <time>2021-08-19T13:17:27Z</time>
      </trkpt>
      <trkpt lat="44.7818" lon="2.58765">
        <ele>415.3</ele>
        <time>2021-08-19T13:17:29Z</time>
      </trkpt>
      <trkpt lat="44.78183" lon="2.58766">
        <ele>415.4</ele>
        <time>2021-08-19T13:17:31Z</time>
      </trkpt>
      <trkpt lat="44.78184" lon="2.58769">
        <ele>415.8</ele>
        <time>2021-08-19T13:17:33Z</time>
      </trkpt>
      <trkpt lat="44.78186" lon="2.5877">
        <ele>415.9</ele>
        <time>2021-08-19T13:17:35Z</time>
      </trkpt>
      <trkpt lat="44.78188" lon="2.5877">
        <ele>415.8</ele>
        <time>2021-08-19T13:17:37Z</time>
      </trkpt>
      <trkpt lat="44.7819" lon="2.58772">
        <ele>416.1</ele>
        <time>2021-08-19T13:17:39Z</time>
      </trkpt>
      <trkpt lat="44.78193" lon="2.58774">
        <ele>416.1</ele>
        <time>2021-08-19T13:17:41Z</time>
      </trkpt>
      <trkpt lat="44.78197" lon="2.58773">
        <ele>415.5</ele>
        <time>2021-08-19T13:17:43Z</time>
      </trkpt>
      <trkpt lat="44.782" lon="2.58774">
        <ele>415.3</ele>
        <time>2021-08-19T13:17:45Z</time>
      </trkpt>
      <trkpt lat="44.78204" lon="2.58775">
        <ele>414.9</ele>
        <time>2021-08-19T13:17:47Z</time>
      </trkpt>
      <trkpt lat="44.78208" lon="2.58777">
        <ele>415</ele>
        <time>2021-08-19T13:17:49Z</time>
      </trkpt>
      <trkpt lat="44.78211" lon="2.58779">
        <ele>415.1</ele>
        <time>2021-08-19T13:17:51Z</time>
      </trkpt>
      <trkpt lat="44.78215" lon="2.58779">
        <ele>414.7</ele>
        <time>2021-08-19T13:17:53Z</time>
      </trkpt>
      <trkpt lat="44.78217" lon="2.5878">
        <ele>414.7</ele>
        <time>2021-08-19T13:17:55Z</time>
      </trkpt>
      <trkpt lat="44.78218" lon="2.58781">
        <ele>414.6</ele>
        <time>2021-08-19T13:17:57Z</time>
      </trkpt>
      <trkpt lat="44.78218" lon="2.58781">
        <ele>414.6</ele>
        <time>2021-08-19T13:17:59Z</time>
      </trkpt>
      <trkpt lat="44.78218" lon="2.58781">
        <ele>414.8</ele>
        <time>2021-08-19T13:18:01Z</time>
      </trkpt>
      <trkpt lat="44.78218" lon="2.58782">
        <ele>415.1</ele>
        <time>2021-08-19T13:18:03Z</time>
      </trkpt>
      <trkpt lat="44.78218" lon="2.58782">
        <ele>415.1</ele>
        <time>2021-08-19T13:18:05Z</time>
      </trkpt>
      <trkpt lat="44.78231" lon="2.58783">
        <ele>413.7</ele>
        <time>2021-08-19T13:18:45Z</time>
      </trkpt>
      <trkpt lat="44.78237" lon="2.58783">
        <ele>412.9</ele>
        <time>2021-08-19T13:18:47Z</time>
      </trkpt>
      <trkpt lat="44.78245" lon="2.58783">
        <ele>411.7</ele>
        <time>2021-08-19T13:18:49Z</time>
      </trkpt>
      <trkpt lat="44.78253" lon="2.58783">
        <ele>410.9</ele>
        <time>2021-08-19T13:18:51Z</time>
      </trkpt>
      <trkpt lat="44.78261" lon="2.58781">
        <ele>409.9</ele>
        <time>2021-08-19T13:18:53Z</time>
      </trkpt>
      <trkpt lat="44.7827" lon="2.58778">
        <ele>408.6</ele>
        <time>2021-08-19T13:18:55Z</time>
      </trkpt>
      <trkpt lat="44.7828" lon="2.58773">
        <ele>406.8</ele>
        <time>2021-08-19T13:18:57Z</time>
      </trkpt>
      <trkpt lat="44.7829" lon="2.58767">
        <ele>405.1</ele>
        <time>2021-08-19T13:18:59Z</time>
      </trkpt>
      <trkpt lat="44.78299" lon="2.5876">
        <ele>403.2</ele>
        <time>2021-08-19T13:19:01Z</time>
      </trkpt>
      <trkpt lat="44.7831" lon="2.58753">
        <ele>401.2</ele>
        <time>2021-08-19T13:19:03Z</time>
      </trkpt>
      <trkpt lat="44.78321" lon="2.58745">
        <ele>399.6</ele>
        <time>2021-08-19T13:19:05Z</time>
      </trkpt>
      <trkpt lat="44.78331" lon="2.58736">
        <ele>398</ele>
        <time>2021-08-19T13:19:07Z</time>
      </trkpt>
      <trkpt lat="44.7834" lon="2.58727">
        <ele>396.3</ele>
        <time>2021-08-19T13:19:09Z</time>
      </trkpt>
      <trkpt lat="44.78348" lon="2.58718">
        <ele>395.1</ele>
        <time>2021-08-19T13:19:11Z</time>
      </trkpt>
      <trkpt lat="44.78357" lon="2.58713">
        <ele>394.5</ele>
        <time>2021-08-19T13:19:13Z</time>
      </trkpt>
      <trkpt lat="44.78367" lon="2.58711">
        <ele>394.4</ele>
        <time>2021-08-19T13:19:15Z</time>
      </trkpt>
      <trkpt lat="44.78376" lon="2.58713">
        <ele>394.7</ele>
        <time>2021-08-19T13:19:17Z</time>
      </trkpt>
      <trkpt lat="44.78385" lon="2.58718">
        <ele>395.1</ele>
        <time>2021-08-19T13:19:19Z</time>
      </trkpt>
      <trkpt lat="44.78393" lon="2.58724">
        <ele>395.5</ele>
        <time>2021-08-19T13:19:21Z</time>
      </trkpt>
      <trkpt lat="44.78402" lon="2.58732">
        <ele>395.8</ele>
        <time>2021-08-19T13:19:23Z</time>
      </trkpt>
      <trkpt lat="44.78411" lon="2.58738">
        <ele>395.9</ele>
        <time>2021-08-19T13:19:25Z</time>
      </trkpt>
      <trkpt lat="44.7842" lon="2.5874">
        <ele>395.8</ele>
        <time>2021-08-19T13:19:27Z</time>
      </trkpt>
      <trkpt lat="44.78429" lon="2.58729">
        <ele>396.3</ele>
        <time>2021-08-19T13:19:29Z</time>
      </trkpt>
      <trkpt lat="44.78435" lon="2.58715">
        <ele>397.5</ele>
        <time>2021-08-19T13:19:31Z</time>
      </trkpt>
      <trkpt lat="44.78449" lon="2.58704">
        <ele>400.5</ele>
        <time>2021-08-19T13:19:33Z</time>
      </trkpt>
      <trkpt lat="44.78449" lon="2.58694">
        <ele>401.7</ele>
        <time>2021-08-19T13:19:35Z</time>
      </trkpt>
      <trkpt lat="44.78453" lon="2.58686">
        <ele>403.5</ele>
        <time>2021-08-19T13:19:37Z</time>
      </trkpt>
      <trkpt lat="44.78458" lon="2.58677">
        <ele>406.4</ele>
        <time>2021-08-19T13:19:39Z</time>
      </trkpt>
      <trkpt lat="44.78456" lon="2.58667">
        <ele>407.2</ele>
        <time>2021-08-19T13:19:41Z</time>
      </trkpt>
      <trkpt lat="44.78452" lon="2.58661">
        <ele>406.5</ele>
        <time>2021-08-19T13:19:43Z</time>
      </trkpt>
      <trkpt lat="44.78449" lon="2.58658">
        <ele>406.1</ele>
        <time>2021-08-19T13:19:45Z</time>
      </trkpt>
      <trkpt lat="44.78447" lon="2.58653">
        <ele>405.7</ele>
        <time>2021-08-19T13:19:47Z</time>
      </trkpt>
      <trkpt lat="44.78445" lon="2.58649">
        <ele>405.6</ele>
        <time>2021-08-19T13:19:49Z</time>
      </trkpt>
      <trkpt lat="44.78443" lon="2.58645">
        <ele>405.4</ele>
        <time>2021-08-19T13:19:51Z</time>
      </trkpt>
      <trkpt lat="44.78441" lon="2.58642">
        <ele>405</ele>
        <time>2021-08-19T13:19:53Z</time>
      </trkpt>
      <trkpt lat="44.7844" lon="2.58637">
        <ele>405</ele>
        <time>2021-08-19T13:19:55Z</time>
      </trkpt>
      <trkpt lat="44.78438" lon="2.58633">
        <ele>404.7</ele>
        <time>2021-08-19T13:19:57Z</time>
      </trkpt>
      <trkpt lat="44.78437" lon="2.58629">
        <ele>404.6</ele>
        <time>2021-08-19T13:19:59Z</time>
      </trkpt>
      <trkpt lat="44.78435" lon="2.58625">
        <ele>404.6</ele>
        <time>2021-08-19T13:20:01Z</time>
      </trkpt>
      <trkpt lat="44.78434" lon="2.58621">
        <ele>404.2</ele>
        <time>2021-08-19T13:20:03Z</time>
      </trkpt>
      <trkpt lat="44.78432" lon="2.58617">
        <ele>404.1</ele>
        <time>2021-08-19T13:20:05Z</time>
      </trkpt>
      <trkpt lat="44.78431" lon="2.58612">
        <ele>404.1</ele>
        <time>2021-08-19T13:20:07Z</time>
      </trkpt>
      <trkpt lat="44.7843" lon="2.58608">
        <ele>403.9</ele>
        <time>2021-08-19T13:20:09Z</time>
      </trkpt>
      <trkpt lat="44.78429" lon="2.58603">
        <ele>403.8</ele>
        <time>2021-08-19T13:20:11Z</time>
      </trkpt>
      <trkpt lat="44.78427" lon="2.58598">
        <ele>403.5</ele>
        <time>2021-08-19T13:20:13Z</time>
      </trkpt>
      <trkpt lat="44.78425" lon="2.58593">
        <ele>403.3</ele>
        <time>2021-08-19T13:20:15Z</time>
      </trkpt>
      <trkpt lat="44.78424" lon="2.58589">
        <ele>403.1</ele>
        <time>2021-08-19T13:20:17Z</time>
      </trkpt>
      <trkpt lat="44.78423" lon="2.58584">
        <ele>403</ele>
        <time>2021-08-19T13:20:19Z</time>
      </trkpt>
      <trkpt lat="44.78422" lon="2.58579">
        <ele>402.2</ele>
        <time>2021-08-19T13:20:21Z</time>
      </trkpt>
      <trkpt lat="44.78422" lon="2.58574">
        <ele>401.7</ele>
        <time>2021-08-19T13:20:23Z</time>
      </trkpt>
      <trkpt lat="44.78421" lon="2.58569">
        <ele>401</ele>
        <time>2021-08-19T13:20:25Z</time>
      </trkpt>
      <trkpt lat="44.7842" lon="2.58564">
        <ele>400.2</ele>
        <time>2021-08-19T13:20:27Z</time>
      </trkpt>
      <trkpt lat="44.78419" lon="2.58558">
        <ele>399.3</ele>
        <time>2021-08-19T13:20:29Z</time>
      </trkpt>
      <trkpt lat="44.78418" lon="2.58552">
        <ele>398.7</ele>
        <time>2021-08-19T13:20:31Z</time>
      </trkpt>
      <trkpt lat="44.78417" lon="2.58547">
        <ele>397.8</ele>
        <time>2021-08-19T13:20:33Z</time>
      </trkpt>
      <trkpt lat="44.78415" lon="2.58542">
        <ele>397.3</ele>
        <time>2021-08-19T13:20:35Z</time>
      </trkpt>
      <trkpt lat="44.78414" lon="2.58536">
        <ele>396.9</ele>
        <time>2021-08-19T13:20:37Z</time>
      </trkpt>
      <trkpt lat="44.78413" lon="2.5853">
        <ele>396.4</ele>
        <time>2021-08-19T13:20:39Z</time>
      </trkpt>
      <trkpt lat="44.78412" lon="2.58525">
        <ele>396.1</ele>
        <time>2021-08-19T13:20:41Z</time>
      </trkpt>
      <trkpt lat="44.78412" lon="2.58518">
        <ele>395.7</ele>
        <time>2021-08-19T13:20:43Z</time>
      </trkpt>
      <trkpt lat="44.78414" lon="2.5851">
        <ele>395.4</ele>
        <time>2021-08-19T13:20:45Z</time>
      </trkpt>
      <trkpt lat="44.78417" lon="2.58503">
        <ele>395.4</ele>
        <time>2021-08-19T13:20:47Z</time>
      </trkpt>
      <trkpt lat="44.78421" lon="2.58495">
        <ele>396.3</ele>
        <time>2021-08-19T13:20:49Z</time>
      </trkpt>
      <trkpt lat="44.78425" lon="2.58489">
        <ele>397.6</ele>
        <time>2021-08-19T13:20:51Z</time>
      </trkpt>
      <trkpt lat="44.7843" lon="2.58483">
        <ele>398.6</ele>
        <time>2021-08-19T13:20:53Z</time>
      </trkpt>
      <trkpt lat="44.78434" lon="2.58478">
        <ele>399.7</ele>
        <time>2021-08-19T13:20:55Z</time>
      </trkpt>
      <trkpt lat="44.78438" lon="2.58473">
        <ele>400.5</ele>
        <time>2021-08-19T13:20:57Z</time>
      </trkpt>
      <trkpt lat="44.78441" lon="2.58467">
        <ele>401.1</ele>
        <time>2021-08-19T13:20:59Z</time>
      </trkpt>
      <trkpt lat="44.78445" lon="2.58463">
        <ele>401.8</ele>
        <time>2021-08-19T13:21:01Z</time>
      </trkpt>
      <trkpt lat="44.78449" lon="2.58458">
        <ele>402.5</ele>
        <time>2021-08-19T13:21:03Z</time>
      </trkpt>
      <trkpt lat="44.78453" lon="2.58453">
        <ele>403</ele>
        <time>2021-08-19T13:21:05Z</time>
      </trkpt>
      <trkpt lat="44.78456" lon="2.58448">
        <ele>403.3</ele>
        <time>2021-08-19T13:21:07Z</time>
      </trkpt>
      <trkpt lat="44.78461" lon="2.58444">
        <ele>404</ele>
        <time>2021-08-19T13:21:09Z</time>
      </trkpt>
      <trkpt lat="44.78465" lon="2.58442">
        <ele>404.8</ele>
        <time>2021-08-19T13:21:11Z</time>
      </trkpt>
      <trkpt lat="44.78468" lon="2.58439">
        <ele>405.2</ele>
        <time>2021-08-19T13:21:13Z</time>
      </trkpt>
      <trkpt lat="44.78472" lon="2.58437">
        <ele>405.8</ele>
        <time>2021-08-19T13:21:15Z</time>
      </trkpt>
      <trkpt lat="44.78475" lon="2.58435">
        <ele>406.5</ele>
        <time>2021-08-19T13:21:17Z</time>
      </trkpt>
      <trkpt lat="44.78479" lon="2.58432">
        <ele>407</ele>
        <time>2021-08-19T13:21:19Z</time>
      </trkpt>
      <trkpt lat="44.78482" lon="2.58429">
        <ele>407.2</ele>
        <time>2021-08-19T13:21:21Z</time>
      </trkpt>
      <trkpt lat="44.78484" lon="2.58425">
        <ele>407</ele>
        <time>2021-08-19T13:21:23Z</time>
      </trkpt>
      <trkpt lat="44.78486" lon="2.5842">
        <ele>406.4</ele>
        <time>2021-08-19T13:21:25Z</time>
      </trkpt>
      <trkpt lat="44.78488" lon="2.58415">
        <ele>406</ele>
        <time>2021-08-19T13:21:27Z</time>
      </trkpt>
      <trkpt lat="44.7849" lon="2.58409">
        <ele>405.8</ele>
        <time>2021-08-19T13:21:29Z</time>
      </trkpt>
      <trkpt lat="44.78492" lon="2.58406">
        <ele>405.9</ele>
        <time>2021-08-19T13:21:31Z</time>
      </trkpt>
      <trkpt lat="44.78494" lon="2.58402">
        <ele>405.9</ele>
        <time>2021-08-19T13:21:33Z</time>
      </trkpt>
      <trkpt lat="44.78496" lon="2.58396">
        <ele>405.6</ele>
        <time>2021-08-19T13:21:35Z</time>
      </trkpt>
      <trkpt lat="44.78497" lon="2.58392">
        <ele>405.5</ele>
        <time>2021-08-19T13:21:37Z</time>
      </trkpt>
      <trkpt lat="44.785" lon="2.58389">
        <ele>405.8</ele>
        <time>2021-08-19T13:21:39Z</time>
      </trkpt>
      <trkpt lat="44.78503" lon="2.58386">
        <ele>406.5</ele>
        <time>2021-08-19T13:21:41Z</time>
      </trkpt>
      <trkpt lat="44.78505" lon="2.58383">
        <ele>407.2</ele>
        <time>2021-08-19T13:21:43Z</time>
      </trkpt>
      <trkpt lat="44.78508" lon="2.58379">
        <ele>407.6</ele>
        <time>2021-08-19T13:21:45Z</time>
      </trkpt>
      <trkpt lat="44.7851" lon="2.58375">
        <ele>408.1</ele>
        <time>2021-08-19T13:21:47Z</time>
      </trkpt>
      <trkpt lat="44.78512" lon="2.58372">
        <ele>408.5</ele>
        <time>2021-08-19T13:21:49Z</time>
      </trkpt>
      <trkpt lat="44.78515" lon="2.58368">
        <ele>409</ele>
        <time>2021-08-19T13:21:51Z</time>
      </trkpt>
      <trkpt lat="44.78517" lon="2.58365">
        <ele>409.4</ele>
        <time>2021-08-19T13:21:53Z</time>
      </trkpt>
      <trkpt lat="44.78519" lon="2.58361">
        <ele>410</ele>
        <time>2021-08-19T13:21:55Z</time>
      </trkpt>
      <trkpt lat="44.78522" lon="2.58358">
        <ele>410.4</ele>
        <time>2021-08-19T13:21:57Z</time>
      </trkpt>
      <trkpt lat="44.78524" lon="2.58355">
        <ele>410.9</ele>
        <time>2021-08-19T13:21:59Z</time>
      </trkpt>
      <trkpt lat="44.78526" lon="2.5835">
        <ele>411.1</ele>
        <time>2021-08-19T13:22:01Z</time>
      </trkpt>
      <trkpt lat="44.78528" lon="2.58347">
        <ele>411.3</ele>
        <time>2021-08-19T13:22:03Z</time>
      </trkpt>
      <trkpt lat="44.78531" lon="2.58344">
        <ele>411.8</ele>
        <time>2021-08-19T13:22:05Z</time>
      </trkpt>
      <trkpt lat="44.78533" lon="2.5834">
        <ele>412.1</ele>
        <time>2021-08-19T13:22:07Z</time>
      </trkpt>
      <trkpt lat="44.78535" lon="2.58337">
        <ele>412.2</ele>
        <time>2021-08-19T13:22:09Z</time>
      </trkpt>
      <trkpt lat="44.78537" lon="2.58333">
        <ele>412.4</ele>
        <time>2021-08-19T13:22:11Z</time>
      </trkpt>
      <trkpt lat="44.7854" lon="2.58329">
        <ele>412.8</ele>
        <time>2021-08-19T13:22:13Z</time>
      </trkpt>
      <trkpt lat="44.78542" lon="2.58325">
        <ele>412.8</ele>
        <time>2021-08-19T13:22:15Z</time>
      </trkpt>
      <trkpt lat="44.78544" lon="2.58322">
        <ele>413.1</ele>
        <time>2021-08-19T13:22:17Z</time>
      </trkpt>
      <trkpt lat="44.78546" lon="2.58318">
        <ele>413.2</ele>
        <time>2021-08-19T13:22:19Z</time>
      </trkpt>
      <trkpt lat="44.78548" lon="2.58314">
        <ele>413.4</ele>
        <time>2021-08-19T13:22:21Z</time>
      </trkpt>
      <trkpt lat="44.7855" lon="2.58312">
        <ele>413.8</ele>
        <time>2021-08-19T13:22:23Z</time>
      </trkpt>
      <trkpt lat="44.78553" lon="2.5831">
        <ele>414.4</ele>
        <time>2021-08-19T13:22:25Z</time>
      </trkpt>
      <trkpt lat="44.78556" lon="2.58309">
        <ele>415.3</ele>
        <time>2021-08-19T13:22:27Z</time>
      </trkpt>
      <trkpt lat="44.78559" lon="2.58311">
        <ele>416.7</ele>
        <time>2021-08-19T13:22:29Z</time>
      </trkpt>
      <trkpt lat="44.7856" lon="2.58317">
        <ele>418</ele>
        <time>2021-08-19T13:22:31Z</time>
      </trkpt>
      <trkpt lat="44.78559" lon="2.58322">
        <ele>418.6</ele>
        <time>2021-08-19T13:22:33Z</time>
      </trkpt>
      <trkpt lat="44.78558" lon="2.58325">
        <ele>418.7</ele>
        <time>2021-08-19T13:22:35Z</time>
      </trkpt>
      <trkpt lat="44.78558" lon="2.58329">
        <ele>419.1</ele>
        <time>2021-08-19T13:22:37Z</time>
      </trkpt>
      <trkpt lat="44.78556" lon="2.58334">
        <ele>419.2</ele>
        <time>2021-08-19T13:22:39Z</time>
      </trkpt>
      <trkpt lat="44.78555" lon="2.58337">
        <ele>419.3</ele>
        <time>2021-08-19T13:22:41Z</time>
      </trkpt>
      <trkpt lat="44.78553" lon="2.5834">
        <ele>419.4</ele>
        <time>2021-08-19T13:22:43Z</time>
      </trkpt>
      <trkpt lat="44.78552" lon="2.58344">
        <ele>419.6</ele>
        <time>2021-08-19T13:22:45Z</time>
      </trkpt>
      <trkpt lat="44.7855" lon="2.58349">
        <ele>419.9</ele>
        <time>2021-08-19T13:22:47Z</time>
      </trkpt>
      <trkpt lat="44.78549" lon="2.58353">
        <ele>420.3</ele>
        <time>2021-08-19T13:22:49Z</time>
      </trkpt>
      <trkpt lat="44.78548" lon="2.58357">
        <ele>420.5</ele>
        <time>2021-08-19T13:22:51Z</time>
      </trkpt>
      <trkpt lat="44.78547" lon="2.5836">
        <ele>420.5</ele>
        <time>2021-08-19T13:22:53Z</time>
      </trkpt>
      <trkpt lat="44.78546" lon="2.58365">
        <ele>420.9</ele>
        <time>2021-08-19T13:22:55Z</time>
      </trkpt>
      <trkpt lat="44.78545" lon="2.58369">
        <ele>421.3</ele>
        <time>2021-08-19T13:22:57Z</time>
      </trkpt>
      <trkpt lat="44.78544" lon="2.58373">
        <ele>421.6</ele>
        <time>2021-08-19T13:22:59Z</time>
      </trkpt>
      <trkpt lat="44.78543" lon="2.58376">
        <ele>421.9</ele>
        <time>2021-08-19T13:23:01Z</time>
      </trkpt>
      <trkpt lat="44.78543" lon="2.5838">
        <ele>422.3</ele>
        <time>2021-08-19T13:23:03Z</time>
      </trkpt>
      <trkpt lat="44.78542" lon="2.58384">
        <ele>422.7</ele>
        <time>2021-08-19T13:23:05Z</time>
      </trkpt>
      <trkpt lat="44.78541" lon="2.58389">
        <ele>423.1</ele>
        <time>2021-08-19T13:23:07Z</time>
      </trkpt>
      <trkpt lat="44.7854" lon="2.58393">
        <ele>423.5</ele>
        <time>2021-08-19T13:23:09Z</time>
      </trkpt>
      <trkpt lat="44.7854" lon="2.58396">
        <ele>423.8</ele>
        <time>2021-08-19T13:23:11Z</time>
      </trkpt>
      <trkpt lat="44.78539" lon="2.584">
        <ele>424.1</ele>
        <time>2021-08-19T13:23:13Z</time>
      </trkpt>
      <trkpt lat="44.78538" lon="2.58404">
        <ele>424.4</ele>
        <time>2021-08-19T13:23:15Z</time>
      </trkpt>
      <trkpt lat="44.78538" lon="2.58408">
        <ele>424.7</ele>
        <time>2021-08-19T13:23:17Z</time>
      </trkpt>
      <trkpt lat="44.78537" lon="2.58412">
        <ele>425</ele>
        <time>2021-08-19T13:23:19Z</time>
      </trkpt>
      <trkpt lat="44.78536" lon="2.58416">
        <ele>425.4</ele>
        <time>2021-08-19T13:23:21Z</time>
      </trkpt>
      <trkpt lat="44.78535" lon="2.5842">
        <ele>425.8</ele>
        <time>2021-08-19T13:23:23Z</time>
      </trkpt>
      <trkpt lat="44.78534" lon="2.58424">
        <ele>426.2</ele>
        <time>2021-08-19T13:23:25Z</time>
      </trkpt>
      <trkpt lat="44.78533" lon="2.58429">
        <ele>427</ele>
        <time>2021-08-19T13:23:27Z</time>
      </trkpt>
      <trkpt lat="44.78532" lon="2.58432">
        <ele>427.4</ele>
        <time>2021-08-19T13:23:29Z</time>
      </trkpt>
      <trkpt lat="44.7853" lon="2.58437">
        <ele>427.5</ele>
        <time>2021-08-19T13:23:31Z</time>
      </trkpt>
      <trkpt lat="44.78528" lon="2.58442">
        <ele>428.1</ele>
        <time>2021-08-19T13:23:33Z</time>
      </trkpt>
      <trkpt lat="44.78527" lon="2.58446">
        <ele>428.5</ele>
        <time>2021-08-19T13:23:35Z</time>
      </trkpt>
      <trkpt lat="44.78525" lon="2.5845">
        <ele>428.6</ele>
        <time>2021-08-19T13:23:37Z</time>
      </trkpt>
      <trkpt lat="44.78523" lon="2.58455">
        <ele>429</ele>
        <time>2021-08-19T13:23:39Z</time>
      </trkpt>
      <trkpt lat="44.78522" lon="2.58459">
        <ele>429.1</ele>
        <time>2021-08-19T13:23:41Z</time>
      </trkpt>
      <trkpt lat="44.7852" lon="2.58463">
        <ele>429.4</ele>
        <time>2021-08-19T13:23:43Z</time>
      </trkpt>
      <trkpt lat="44.78518" lon="2.58466">
        <ele>429.3</ele>
        <time>2021-08-19T13:23:45Z</time>
      </trkpt>
      <trkpt lat="44.78516" lon="2.58469">
        <ele>429.2</ele>
        <time>2021-08-19T13:23:47Z</time>
      </trkpt>
      <trkpt lat="44.78514" lon="2.58474">
        <ele>429.4</ele>
        <time>2021-08-19T13:23:49Z</time>
      </trkpt>
      <trkpt lat="44.78512" lon="2.58478">
        <ele>429.4</ele>
        <time>2021-08-19T13:23:51Z</time>
      </trkpt>
      <trkpt lat="44.7851" lon="2.58482">
        <ele>429.5</ele>
        <time>2021-08-19T13:23:53Z</time>
      </trkpt>
      <trkpt lat="44.78509" lon="2.58485">
        <ele>429.5</ele>
        <time>2021-08-19T13:23:55Z</time>
      </trkpt>
      <trkpt lat="44.78507" lon="2.58489">
        <ele>429.4</ele>
        <time>2021-08-19T13:23:57Z</time>
      </trkpt>
      <trkpt lat="44.78505" lon="2.58493">
        <ele>429.5</ele>
        <time>2021-08-19T13:23:59Z</time>
      </trkpt>
      <trkpt lat="44.78502" lon="2.58497">
        <ele>429.3</ele>
        <time>2021-08-19T13:24:01Z</time>
      </trkpt>
      <trkpt lat="44.785" lon="2.58501">
        <ele>429.2</ele>
        <time>2021-08-19T13:24:03Z</time>
      </trkpt>
      <trkpt lat="44.78498" lon="2.58505">
        <ele>428.9</ele>
        <time>2021-08-19T13:24:05Z</time>
      </trkpt>
      <trkpt lat="44.78497" lon="2.58509">
        <ele>428.7</ele>
        <time>2021-08-19T13:24:07Z</time>
      </trkpt>
      <trkpt lat="44.78494" lon="2.58513">
        <ele>428.2</ele>
        <time>2021-08-19T13:24:09Z</time>
      </trkpt>
      <trkpt lat="44.78492" lon="2.58516">
        <ele>427.7</ele>
        <time>2021-08-19T13:24:11Z</time>
      </trkpt>
      <trkpt lat="44.7849" lon="2.5852">
        <ele>427.1</ele>
        <time>2021-08-19T13:24:13Z</time>
      </trkpt>
      <trkpt lat="44.78488" lon="2.58523">
        <ele>426.8</ele>
        <time>2021-08-19T13:24:15Z</time>
      </trkpt>
      <trkpt lat="44.78486" lon="2.58528">
        <ele>426.4</ele>
        <time>2021-08-19T13:24:17Z</time>
      </trkpt>
      <trkpt lat="44.78484" lon="2.5853">
        <ele>425.7</ele>
        <time>2021-08-19T13:24:19Z</time>
      </trkpt>
      <trkpt lat="44.78482" lon="2.58534">
        <ele>425.4</ele>
        <time>2021-08-19T13:24:21Z</time>
      </trkpt>
      <trkpt lat="44.7848" lon="2.58538">
        <ele>424.8</ele>
        <time>2021-08-19T13:24:23Z</time>
      </trkpt>
      <trkpt lat="44.78479" lon="2.58542">
        <ele>424.9</ele>
        <time>2021-08-19T13:24:25Z</time>
      </trkpt>
      <trkpt lat="44.78477" lon="2.58546">
        <ele>424.5</ele>
        <time>2021-08-19T13:24:27Z</time>
      </trkpt>
      <trkpt lat="44.78475" lon="2.5855">
        <ele>424.1</ele>
        <time>2021-08-19T13:24:29Z</time>
      </trkpt>
      <trkpt lat="44.78473" lon="2.58554">
        <ele>423.6</ele>
        <time>2021-08-19T13:24:31Z</time>
      </trkpt>
      <trkpt lat="44.78472" lon="2.58559">
        <ele>423.6</ele>
        <time>2021-08-19T13:24:33Z</time>
      </trkpt>
      <trkpt lat="44.78472" lon="2.58563">
        <ele>423.8</ele>
        <time>2021-08-19T13:24:35Z</time>
      </trkpt>
      <trkpt lat="44.78471" lon="2.58568">
        <ele>423.9</ele>
        <time>2021-08-19T13:24:37Z</time>
      </trkpt>
      <trkpt lat="44.78471" lon="2.58572">
        <ele>424.1</ele>
        <time>2021-08-19T13:24:39Z</time>
      </trkpt>
      <trkpt lat="44.78471" lon="2.58577">
        <ele>424.6</ele>
        <time>2021-08-19T13:24:41Z</time>
      </trkpt>
      <trkpt lat="44.78472" lon="2.58581">
        <ele>425.5</ele>
        <time>2021-08-19T13:24:43Z</time>
      </trkpt>
      <trkpt lat="44.78473" lon="2.58585">
        <ele>426</ele>
        <time>2021-08-19T13:24:45Z</time>
      </trkpt>
      <trkpt lat="44.78475" lon="2.58589">
        <ele>426.2</ele>
        <time>2021-08-19T13:24:47Z</time>
      </trkpt>
      <trkpt lat="44.78477" lon="2.58593">
        <ele>426.5</ele>
        <time>2021-08-19T13:24:49Z</time>
      </trkpt>
      <trkpt lat="44.78478" lon="2.58596">
        <ele>426.7</ele>
        <time>2021-08-19T13:24:51Z</time>
      </trkpt>
      <trkpt lat="44.78481" lon="2.586">
        <ele>427.1</ele>
        <time>2021-08-19T13:24:53Z</time>
      </trkpt>
      <trkpt lat="44.78483" lon="2.58603">
        <ele>427.5</ele>
        <time>2021-08-19T13:24:55Z</time>
      </trkpt>
      <trkpt lat="44.78485" lon="2.58606">
        <ele>427.9</ele>
        <time>2021-08-19T13:24:57Z</time>
      </trkpt>
      <trkpt lat="44.78487" lon="2.58609">
        <ele>428.3</ele>
        <time>2021-08-19T13:24:59Z</time>
      </trkpt>
      <trkpt lat="44.7849" lon="2.58612">
        <ele>428.8</ele>
        <time>2021-08-19T13:25:01Z</time>
      </trkpt>
      <trkpt lat="44.78492" lon="2.58615">
        <ele>429.4</ele>
        <time>2021-08-19T13:25:03Z</time>
      </trkpt>
      <trkpt lat="44.78495" lon="2.58618">
        <ele>429.8</ele>
        <time>2021-08-19T13:25:05Z</time>
      </trkpt>
      <trkpt lat="44.78497" lon="2.5862">
        <ele>430.4</ele>
        <time>2021-08-19T13:25:07Z</time>
      </trkpt>
      <trkpt lat="44.78499" lon="2.58623">
        <ele>430.7</ele>
        <time>2021-08-19T13:25:09Z</time>
      </trkpt>
      <trkpt lat="44.78502" lon="2.58625">
        <ele>431.3</ele>
        <time>2021-08-19T13:25:11Z</time>
      </trkpt>
      <trkpt lat="44.78505" lon="2.58628">
        <ele>431.8</ele>
        <time>2021-08-19T13:25:13Z</time>
      </trkpt>
      <trkpt lat="44.78507" lon="2.58631">
        <ele>432.4</ele>
        <time>2021-08-19T13:25:15Z</time>
      </trkpt>
      <trkpt lat="44.7851" lon="2.58633">
        <ele>433</ele>
        <time>2021-08-19T13:25:17Z</time>
      </trkpt>
      <trkpt lat="44.78512" lon="2.58635">
        <ele>433.5</ele>
        <time>2021-08-19T13:25:19Z</time>
      </trkpt>
      <trkpt lat="44.78515" lon="2.58638">
        <ele>434.1</ele>
        <time>2021-08-19T13:25:21Z</time>
      </trkpt>
      <trkpt lat="44.78518" lon="2.5864">
        <ele>435</ele>
        <time>2021-08-19T13:25:23Z</time>
      </trkpt>
      <trkpt lat="44.7852" lon="2.58642">
        <ele>435.4</ele>
        <time>2021-08-19T13:25:25Z</time>
      </trkpt>
      <trkpt lat="44.78523" lon="2.58643">
        <ele>436.1</ele>
        <time>2021-08-19T13:25:27Z</time>
      </trkpt>
      <trkpt lat="44.78526" lon="2.58645">
        <ele>437</ele>
        <time>2021-08-19T13:25:29Z</time>
      </trkpt>
      <trkpt lat="44.78528" lon="2.58647">
        <ele>437.5</ele>
        <time>2021-08-19T13:25:31Z</time>
      </trkpt>
      <trkpt lat="44.78531" lon="2.58649">
        <ele>438.2</ele>
        <time>2021-08-19T13:25:33Z</time>
      </trkpt>
      <trkpt lat="44.78535" lon="2.5865">
        <ele>439.6</ele>
        <time>2021-08-19T13:25:35Z</time>
      </trkpt>
      <trkpt lat="44.78537" lon="2.58653">
        <ele>439.9</ele>
        <time>2021-08-19T13:25:37Z</time>
      </trkpt>
      <trkpt lat="44.7854" lon="2.58654">
        <ele>440.5</ele>
        <time>2021-08-19T13:25:39Z</time>
      </trkpt>
      <trkpt lat="44.78543" lon="2.58656">
        <ele>441.5</ele>
        <time>2021-08-19T13:25:41Z</time>
      </trkpt>
      <trkpt lat="44.78546" lon="2.58658">
        <ele>442.2</ele>
        <time>2021-08-19T13:25:43Z</time>
      </trkpt>
      <trkpt lat="44.78548" lon="2.58661">
        <ele>442.5</ele>
        <time>2021-08-19T13:25:45Z</time>
      </trkpt>
      <trkpt lat="44.78551" lon="2.58663">
        <ele>443.2</ele>
        <time>2021-08-19T13:25:47Z</time>
      </trkpt>
      <trkpt lat="44.78554" lon="2.58664">
        <ele>443.9</ele>
        <time>2021-08-19T13:25:49Z</time>
      </trkpt>
      <trkpt lat="44.78557" lon="2.58666">
        <ele>444.7</ele>
        <time>2021-08-19T13:25:51Z</time>
      </trkpt>
      <trkpt lat="44.7856" lon="2.58668">
        <ele>445.5</ele>
        <time>2021-08-19T13:25:53Z</time>
      </trkpt>
      <trkpt lat="44.78564" lon="2.5867">
        <ele>445.9</ele>
        <time>2021-08-19T13:25:55Z</time>
      </trkpt>
      <trkpt lat="44.78566" lon="2.58673">
        <ele>445.8</ele>
        <time>2021-08-19T13:25:57Z</time>
      </trkpt>
      <trkpt lat="44.78569" lon="2.58675">
        <ele>446.3</ele>
        <time>2021-08-19T13:25:59Z</time>
      </trkpt>
      <trkpt lat="44.78572" lon="2.58678">
        <ele>446.8</ele>
        <time>2021-08-19T13:26:01Z</time>
      </trkpt>
      <trkpt lat="44.78575" lon="2.58679">
        <ele>447.3</ele>
        <time>2021-08-19T13:26:03Z</time>
      </trkpt>
      <trkpt lat="44.78578" lon="2.58681">
        <ele>447.9</ele>
        <time>2021-08-19T13:26:05Z</time>
      </trkpt>
      <trkpt lat="44.78582" lon="2.58684">
        <ele>448.5</ele>
        <time>2021-08-19T13:26:07Z</time>
      </trkpt>
      <trkpt lat="44.78585" lon="2.58686">
        <ele>448.9</ele>
        <time>2021-08-19T13:26:09Z</time>
      </trkpt>
      <trkpt lat="44.78588" lon="2.58688">
        <ele>449.3</ele>
        <time>2021-08-19T13:26:11Z</time>
      </trkpt>
      <trkpt lat="44.78591" lon="2.58689">
        <ele>449.8</ele>
        <time>2021-08-19T13:26:13Z</time>
      </trkpt>
      <trkpt lat="44.78595" lon="2.5869">
        <ele>450.6</ele>
        <time>2021-08-19T13:26:15Z</time>
      </trkpt>
      <trkpt lat="44.78598" lon="2.58693">
        <ele>450.5</ele>
        <time>2021-08-19T13:26:17Z</time>
      </trkpt>
      <trkpt lat="44.78601" lon="2.58695">
        <ele>450.8</ele>
        <time>2021-08-19T13:26:19Z</time>
      </trkpt>
      <trkpt lat="44.78603" lon="2.58697">
        <ele>450.8</ele>
        <time>2021-08-19T13:26:21Z</time>
      </trkpt>
      <trkpt lat="44.78606" lon="2.58699">
        <ele>451.2</ele>
        <time>2021-08-19T13:26:23Z</time>
      </trkpt>
      <trkpt lat="44.78609" lon="2.58701">
        <ele>451.5</ele>
        <time>2021-08-19T13:26:25Z</time>
      </trkpt>
      <trkpt lat="44.78613" lon="2.58703">
        <ele>451.8</ele>
        <time>2021-08-19T13:26:27Z</time>
      </trkpt>
      <trkpt lat="44.78616" lon="2.58705">
        <ele>452.1</ele>
        <time>2021-08-19T13:26:29Z</time>
      </trkpt>
      <trkpt lat="44.78619" lon="2.58708">
        <ele>452.1</ele>
        <time>2021-08-19T13:26:31Z</time>
      </trkpt>
      <trkpt lat="44.78622" lon="2.58712">
        <ele>451.7</ele>
        <time>2021-08-19T13:26:33Z</time>
      </trkpt>
      <trkpt lat="44.78624" lon="2.58714">
        <ele>451.6</ele>
        <time>2021-08-19T13:26:35Z</time>
      </trkpt>
      <trkpt lat="44.78627" lon="2.58717">
        <ele>451.6</ele>
        <time>2021-08-19T13:26:37Z</time>
      </trkpt>
      <trkpt lat="44.7863" lon="2.5872">
        <ele>451.6</ele>
        <time>2021-08-19T13:26:39Z</time>
      </trkpt>
      <trkpt lat="44.78633" lon="2.58722">
        <ele>451.8</ele>
        <time>2021-08-19T13:26:41Z</time>
      </trkpt>
      <trkpt lat="44.78636" lon="2.58726">
        <ele>451.3</ele>
        <time>2021-08-19T13:26:43Z</time>
      </trkpt>
      <trkpt lat="44.78639" lon="2.58728">
        <ele>451.5</ele>
        <time>2021-08-19T13:26:45Z</time>
      </trkpt>
      <trkpt lat="44.78643" lon="2.58731">
        <ele>451.7</ele>
        <time>2021-08-19T13:26:47Z</time>
      </trkpt>
      <trkpt lat="44.78646" lon="2.58734">
        <ele>451.4</ele>
        <time>2021-08-19T13:26:49Z</time>
      </trkpt>
      <trkpt lat="44.78648" lon="2.58738">
        <ele>450.7</ele>
        <time>2021-08-19T13:26:51Z</time>
      </trkpt>
      <trkpt lat="44.78651" lon="2.58741">
        <ele>450.5</ele>
        <time>2021-08-19T13:26:53Z</time>
      </trkpt>
      <trkpt lat="44.78654" lon="2.58745">
        <ele>450</ele>
        <time>2021-08-19T13:26:55Z</time>
      </trkpt>
      <trkpt lat="44.78657" lon="2.58749">
        <ele>449.2</ele>
        <time>2021-08-19T13:26:57Z</time>
      </trkpt>
      <trkpt lat="44.78659" lon="2.58752">
        <ele>448.8</ele>
        <time>2021-08-19T13:26:59Z</time>
      </trkpt>
      <trkpt lat="44.78661" lon="2.58756">
        <ele>448.6</ele>
        <time>2021-08-19T13:27:01Z</time>
      </trkpt>
      <trkpt lat="44.78664" lon="2.5876">
        <ele>448.1</ele>
        <time>2021-08-19T13:27:03Z</time>
      </trkpt>
      <trkpt lat="44.78666" lon="2.58762">
        <ele>448.3</ele>
        <time>2021-08-19T13:27:05Z</time>
      </trkpt>
      <trkpt lat="44.78668" lon="2.58767">
        <ele>447.3</ele>
        <time>2021-08-19T13:27:07Z</time>
      </trkpt>
      <trkpt lat="44.78671" lon="2.5877">
        <ele>446.8</ele>
        <time>2021-08-19T13:27:09Z</time>
      </trkpt>
      <trkpt lat="44.78674" lon="2.58772">
        <ele>446.4</ele>
        <time>2021-08-19T13:27:11Z</time>
      </trkpt>
      <trkpt lat="44.78676" lon="2.58776">
        <ele>445.7</ele>
        <time>2021-08-19T13:27:13Z</time>
      </trkpt>
      <trkpt lat="44.78679" lon="2.58779">
        <ele>445.1</ele>
        <time>2021-08-19T13:27:15Z</time>
      </trkpt>
      <trkpt lat="44.78681" lon="2.58782">
        <ele>444.5</ele>
        <time>2021-08-19T13:27:17Z</time>
      </trkpt>
      <trkpt lat="44.78684" lon="2.58784">
        <ele>444.3</ele>
        <time>2021-08-19T13:27:19Z</time>
      </trkpt>
      <trkpt lat="44.78687" lon="2.58786">
        <ele>444</ele>
        <time>2021-08-19T13:27:21Z</time>
      </trkpt>
      <trkpt lat="44.7869" lon="2.58789">
        <ele>443.5</ele>
        <time>2021-08-19T13:27:23Z</time>
      </trkpt>
      <trkpt lat="44.78692" lon="2.58791">
        <ele>443.5</ele>
        <time>2021-08-19T13:27:25Z</time>
      </trkpt>
      <trkpt lat="44.78695" lon="2.58792">
        <ele>443.4</ele>
        <time>2021-08-19T13:27:27Z</time>
      </trkpt>
      <trkpt lat="44.78698" lon="2.58793">
        <ele>443.7</ele>
        <time>2021-08-19T13:27:29Z</time>
      </trkpt>
      <trkpt lat="44.78701" lon="2.58792">
        <ele>444.2</ele>
        <time>2021-08-19T13:27:31Z</time>
      </trkpt>
      <trkpt lat="44.78704" lon="2.58791">
        <ele>444.9</ele>
        <time>2021-08-19T13:27:33Z</time>
      </trkpt>
      <trkpt lat="44.78707" lon="2.5879">
        <ele>445.5</ele>
        <time>2021-08-19T13:27:35Z</time>
      </trkpt>
      <trkpt lat="44.7871" lon="2.58787">
        <ele>446.6</ele>
        <time>2021-08-19T13:27:37Z</time>
      </trkpt>
      <trkpt lat="44.78713" lon="2.58785">
        <ele>447.6</ele>
        <time>2021-08-19T13:27:39Z</time>
      </trkpt>
      <trkpt lat="44.78715" lon="2.58782">
        <ele>448.6</ele>
        <time>2021-08-19T13:27:41Z</time>
      </trkpt>
      <trkpt lat="44.78717" lon="2.58778">
        <ele>449.9</ele>
        <time>2021-08-19T13:27:43Z</time>
      </trkpt>
      <trkpt lat="44.7872" lon="2.58775">
        <ele>450.9</ele>
        <time>2021-08-19T13:27:45Z</time>
      </trkpt>
      <trkpt lat="44.78722" lon="2.58771">
        <ele>452.1</ele>
        <time>2021-08-19T13:27:47Z</time>
      </trkpt>
      <trkpt lat="44.78725" lon="2.58768">
        <ele>453.2</ele>
        <time>2021-08-19T13:27:49Z</time>
      </trkpt>
      <trkpt lat="44.78727" lon="2.58764">
        <ele>454.3</ele>
        <time>2021-08-19T13:27:51Z</time>
      </trkpt>
      <trkpt lat="44.78729" lon="2.58761">
        <ele>455.3</ele>
        <time>2021-08-19T13:27:53Z</time>
      </trkpt>
      <trkpt lat="44.78731" lon="2.58757">
        <ele>456.4</ele>
        <time>2021-08-19T13:27:55Z</time>
      </trkpt>
      <trkpt lat="44.78733" lon="2.58754">
        <ele>457.3</ele>
        <time>2021-08-19T13:27:57Z</time>
      </trkpt>
      <trkpt lat="44.78735" lon="2.58751">
        <ele>458.4</ele>
        <time>2021-08-19T13:27:59Z</time>
      </trkpt>
      <trkpt lat="44.78736" lon="2.58746">
        <ele>460.1</ele>
        <time>2021-08-19T13:28:01Z</time>
      </trkpt>
      <trkpt lat="44.78738" lon="2.58743">
        <ele>461.3</ele>
        <time>2021-08-19T13:28:03Z</time>
      </trkpt>
      <trkpt lat="44.78742" lon="2.58741">
        <ele>462.6</ele>
        <time>2021-08-19T13:28:05Z</time>
      </trkpt>
      <trkpt lat="44.78743" lon="2.58737">
        <ele>463.9</ele>
        <time>2021-08-19T13:28:07Z</time>
      </trkpt>
      <trkpt lat="44.78745" lon="2.58733">
        <ele>465.5</ele>
        <time>2021-08-19T13:28:09Z</time>
      </trkpt>
      <trkpt lat="44.78747" lon="2.58731">
        <ele>466.7</ele>
        <time>2021-08-19T13:28:11Z</time>
      </trkpt>
      <trkpt lat="44.78749" lon="2.58727">
        <ele>468.2</ele>
        <time>2021-08-19T13:28:13Z</time>
      </trkpt>
      <trkpt lat="44.78751" lon="2.58723">
        <ele>469.6</ele>
        <time>2021-08-19T13:28:15Z</time>
      </trkpt>
      <trkpt lat="44.78753" lon="2.58721">
        <ele>470.5</ele>
        <time>2021-08-19T13:28:17Z</time>
      </trkpt>
      <trkpt lat="44.78755" lon="2.58717">
        <ele>471.7</ele>
        <time>2021-08-19T13:28:19Z</time>
      </trkpt>
      <trkpt lat="44.78756" lon="2.58714">
        <ele>472.9</ele>
        <time>2021-08-19T13:28:21Z</time>
      </trkpt>
      <trkpt lat="44.78758" lon="2.58712">
        <ele>473.6</ele>
        <time>2021-08-19T13:28:23Z</time>
      </trkpt>
      <trkpt lat="44.78761" lon="2.58708">
        <ele>474.9</ele>
        <time>2021-08-19T13:28:25Z</time>
      </trkpt>
      <trkpt lat="44.78762" lon="2.58705">
        <ele>475.9</ele>
        <time>2021-08-19T13:28:27Z</time>
      </trkpt>
      <trkpt lat="44.78765" lon="2.58701">
        <ele>477</ele>
        <time>2021-08-19T13:28:29Z</time>
      </trkpt>
      <trkpt lat="44.78767" lon="2.58699">
        <ele>477.8</ele>
        <time>2021-08-19T13:28:31Z</time>
      </trkpt>
      <trkpt lat="44.78768" lon="2.58696">
        <ele>478.6</ele>
        <time>2021-08-19T13:28:33Z</time>
      </trkpt>
      <trkpt lat="44.78772" lon="2.58693">
        <ele>479.4</ele>
        <time>2021-08-19T13:28:35Z</time>
      </trkpt>
      <trkpt lat="44.78775" lon="2.58692">
        <ele>479.5</ele>
        <time>2021-08-19T13:28:37Z</time>
      </trkpt>
      <trkpt lat="44.78777" lon="2.58691">
        <ele>479.7</ele>
        <time>2021-08-19T13:28:39Z</time>
      </trkpt>
      <trkpt lat="44.7878" lon="2.5869">
        <ele>479.8</ele>
        <time>2021-08-19T13:28:41Z</time>
      </trkpt>
      <trkpt lat="44.78782" lon="2.5869">
        <ele>479.8</ele>
        <time>2021-08-19T13:28:43Z</time>
      </trkpt>
      <trkpt lat="44.78786" lon="2.58691">
        <ele>479.5</ele>
        <time>2021-08-19T13:28:45Z</time>
      </trkpt>
      <trkpt lat="44.78788" lon="2.5869">
        <ele>479.6</ele>
        <time>2021-08-19T13:28:47Z</time>
      </trkpt>
      <trkpt lat="44.78792" lon="2.5869">
        <ele>479.5</ele>
        <time>2021-08-19T13:28:49Z</time>
      </trkpt>
      <trkpt lat="44.78794" lon="2.58689">
        <ele>479.4</ele>
        <time>2021-08-19T13:28:51Z</time>
      </trkpt>
      <trkpt lat="44.78798" lon="2.58689">
        <ele>479.3</ele>
        <time>2021-08-19T13:28:53Z</time>
      </trkpt>
      <trkpt lat="44.78801" lon="2.58689">
        <ele>479.1</ele>
        <time>2021-08-19T13:28:55Z</time>
      </trkpt>
      <trkpt lat="44.78804" lon="2.58688">
        <ele>479.3</ele>
        <time>2021-08-19T13:28:57Z</time>
      </trkpt>
      <trkpt lat="44.78807" lon="2.58687">
        <ele>479.4</ele>
        <time>2021-08-19T13:28:59Z</time>
      </trkpt>
      <trkpt lat="44.7881" lon="2.58686">
        <ele>479.5</ele>
        <time>2021-08-19T13:29:01Z</time>
      </trkpt>
      <trkpt lat="44.78814" lon="2.58685">
        <ele>479.4</ele>
        <time>2021-08-19T13:29:03Z</time>
      </trkpt>
      <trkpt lat="44.78817" lon="2.58685">
        <ele>479.3</ele>
        <time>2021-08-19T13:29:05Z</time>
      </trkpt>
      <trkpt lat="44.78819" lon="2.58685">
        <ele>479.2</ele>
        <time>2021-08-19T13:29:07Z</time>
      </trkpt>
      <trkpt lat="44.78822" lon="2.58685">
        <ele>479.1</ele>
        <time>2021-08-19T13:29:09Z</time>
      </trkpt>
      <trkpt lat="44.78824" lon="2.58684">
        <ele>479.3</ele>
        <time>2021-08-19T13:29:11Z</time>
      </trkpt>
      <trkpt lat="44.78827" lon="2.58682">
        <ele>479.5</ele>
        <time>2021-08-19T13:29:13Z</time>
      </trkpt>
      <trkpt lat="44.7883" lon="2.58681">
        <ele>479.6</ele>
        <time>2021-08-19T13:29:15Z</time>
      </trkpt>
      <trkpt lat="44.78832" lon="2.5868">
        <ele>479.6</ele>
        <time>2021-08-19T13:29:17Z</time>
      </trkpt>
      <trkpt lat="44.78835" lon="2.58679">
        <ele>480</ele>
        <time>2021-08-19T13:29:19Z</time>
      </trkpt>
      <trkpt lat="44.78837" lon="2.58677">
        <ele>480.6</ele>
        <time>2021-08-19T13:29:21Z</time>
      </trkpt>
      <trkpt lat="44.7884" lon="2.58676">
        <ele>481.1</ele>
        <time>2021-08-19T13:29:23Z</time>
      </trkpt>
      <trkpt lat="44.78842" lon="2.58675">
        <ele>481.4</ele>
        <time>2021-08-19T13:29:25Z</time>
      </trkpt>
      <trkpt lat="44.78844" lon="2.58673">
        <ele>482</ele>
        <time>2021-08-19T13:29:27Z</time>
      </trkpt>
      <trkpt lat="44.78847" lon="2.58671">
        <ele>482.6</ele>
        <time>2021-08-19T13:29:29Z</time>
      </trkpt>
      <trkpt lat="44.78849" lon="2.58668">
        <ele>483.2</ele>
        <time>2021-08-19T13:29:31Z</time>
      </trkpt>
      <trkpt lat="44.7885" lon="2.58666">
        <ele>483.7</ele>
        <time>2021-08-19T13:29:33Z</time>
      </trkpt>
      <trkpt lat="44.78852" lon="2.58664">
        <ele>484.4</ele>
        <time>2021-08-19T13:29:35Z</time>
      </trkpt>
      <trkpt lat="44.78854" lon="2.58662">
        <ele>485</ele>
        <time>2021-08-19T13:29:37Z</time>
      </trkpt>
      <trkpt lat="44.78855" lon="2.5866">
        <ele>485.8</ele>
        <time>2021-08-19T13:29:39Z</time>
      </trkpt>
      <trkpt lat="44.78857" lon="2.58656">
        <ele>486.8</ele>
        <time>2021-08-19T13:29:41Z</time>
      </trkpt>
      <trkpt lat="44.78858" lon="2.58654">
        <ele>487.6</ele>
        <time>2021-08-19T13:29:43Z</time>
      </trkpt>
      <trkpt lat="44.78859" lon="2.58651">
        <ele>488.5</ele>
        <time>2021-08-19T13:29:45Z</time>
      </trkpt>
      <trkpt lat="44.78861" lon="2.58648">
        <ele>489.2</ele>
        <time>2021-08-19T13:29:47Z</time>
      </trkpt>
      <trkpt lat="44.78862" lon="2.58645">
        <ele>490</ele>
        <time>2021-08-19T13:29:49Z</time>
      </trkpt>
      <trkpt lat="44.78862" lon="2.58642">
        <ele>490.9</ele>
        <time>2021-08-19T13:29:51Z</time>
      </trkpt>
      <trkpt lat="44.78862" lon="2.58638">
        <ele>491.9</ele>
        <time>2021-08-19T13:29:53Z</time>
      </trkpt>
      <trkpt lat="44.78863" lon="2.58633">
        <ele>493.2</ele>
        <time>2021-08-19T13:29:55Z</time>
      </trkpt>
      <trkpt lat="44.78864" lon="2.5863">
        <ele>494.1</ele>
        <time>2021-08-19T13:29:57Z</time>
      </trkpt>
      <trkpt lat="44.78864" lon="2.58626">
        <ele>495.1</ele>
        <time>2021-08-19T13:29:59Z</time>
      </trkpt>
      <trkpt lat="44.78865" lon="2.58622">
        <ele>496.1</ele>
        <time>2021-08-19T13:30:01Z</time>
      </trkpt>
      <trkpt lat="44.78866" lon="2.58618">
        <ele>497.2</ele>
        <time>2021-08-19T13:30:03Z</time>
      </trkpt>
      <trkpt lat="44.78866" lon="2.58614">
        <ele>498.2</ele>
        <time>2021-08-19T13:30:05Z</time>
      </trkpt>
      <trkpt lat="44.78867" lon="2.58611">
        <ele>499</ele>
        <time>2021-08-19T13:30:07Z</time>
      </trkpt>
      <trkpt lat="44.78867" lon="2.58607">
        <ele>500</ele>
        <time>2021-08-19T13:30:09Z</time>
      </trkpt>
      <trkpt lat="44.78868" lon="2.58603">
        <ele>501</ele>
        <time>2021-08-19T13:30:11Z</time>
      </trkpt>
      <trkpt lat="44.78868" lon="2.58599">
        <ele>501.9</ele>
        <time>2021-08-19T13:30:13Z</time>
      </trkpt>
      <trkpt lat="44.78869" lon="2.58595">
        <ele>502.9</ele>
        <time>2021-08-19T13:30:15Z</time>
      </trkpt>
      <trkpt lat="44.78869" lon="2.58591">
        <ele>503.9</ele>
        <time>2021-08-19T13:30:17Z</time>
      </trkpt>
      <trkpt lat="44.7887" lon="2.58587">
        <ele>504.9</ele>
        <time>2021-08-19T13:30:19Z</time>
      </trkpt>
      <trkpt lat="44.78871" lon="2.58583">
        <ele>505.7</ele>
        <time>2021-08-19T13:30:21Z</time>
      </trkpt>
      <trkpt lat="44.78871" lon="2.58579">
        <ele>506.5</ele>
        <time>2021-08-19T13:30:23Z</time>
      </trkpt>
      <trkpt lat="44.78872" lon="2.58575">
        <ele>507.3</ele>
        <time>2021-08-19T13:30:25Z</time>
      </trkpt>
      <trkpt lat="44.78873" lon="2.58571">
        <ele>508.1</ele>
        <time>2021-08-19T13:30:27Z</time>
      </trkpt>
      <trkpt lat="44.78873" lon="2.58566">
        <ele>508.9</ele>
        <time>2021-08-19T13:30:29Z</time>
      </trkpt>
      <trkpt lat="44.78875" lon="2.58562">
        <ele>509.5</ele>
        <time>2021-08-19T13:30:31Z</time>
      </trkpt>
      <trkpt lat="44.78876" lon="2.58558">
        <ele>510.2</ele>
        <time>2021-08-19T13:30:33Z</time>
      </trkpt>
      <trkpt lat="44.78877" lon="2.58553">
        <ele>511.1</ele>
        <time>2021-08-19T13:30:35Z</time>
      </trkpt>
      <trkpt lat="44.78877" lon="2.58549">
        <ele>511.8</ele>
        <time>2021-08-19T13:30:37Z</time>
      </trkpt>
      <trkpt lat="44.78878" lon="2.58545">
        <ele>512.6</ele>
        <time>2021-08-19T13:30:39Z</time>
      </trkpt>
      <trkpt lat="44.78878" lon="2.58541">
        <ele>513.3</ele>
        <time>2021-08-19T13:30:41Z</time>
      </trkpt>
      <trkpt lat="44.78877" lon="2.58538">
        <ele>514.2</ele>
        <time>2021-08-19T13:30:43Z</time>
      </trkpt>
      <trkpt lat="44.78879" lon="2.58534">
        <ele>514.7</ele>
        <time>2021-08-19T13:30:45Z</time>
      </trkpt>
      <trkpt lat="44.78881" lon="2.58531">
        <ele>514.7</ele>
        <time>2021-08-19T13:30:47Z</time>
      </trkpt>
      <trkpt lat="44.78883" lon="2.58526">
        <ele>515.3</ele>
        <time>2021-08-19T13:30:49Z</time>
      </trkpt>
      <trkpt lat="44.78883" lon="2.58522">
        <ele>516</ele>
        <time>2021-08-19T13:30:51Z</time>
      </trkpt>
      <trkpt lat="44.78884" lon="2.58517">
        <ele>516.7</ele>
        <time>2021-08-19T13:30:53Z</time>
      </trkpt>
      <trkpt lat="44.78886" lon="2.58513">
        <ele>517.2</ele>
        <time>2021-08-19T13:30:55Z</time>
      </trkpt>
      <trkpt lat="44.78886" lon="2.58509">
        <ele>517.8</ele>
        <time>2021-08-19T13:30:57Z</time>
      </trkpt>
      <trkpt lat="44.78887" lon="2.58504">
        <ele>518.6</ele>
        <time>2021-08-19T13:30:59Z</time>
      </trkpt>
      <trkpt lat="44.78889" lon="2.58501">
        <ele>518.8</ele>
        <time>2021-08-19T13:31:01Z</time>
      </trkpt>
      <trkpt lat="44.78891" lon="2.58496">
        <ele>519.3</ele>
        <time>2021-08-19T13:31:03Z</time>
      </trkpt>
      <trkpt lat="44.78893" lon="2.58493">
        <ele>519.6</ele>
        <time>2021-08-19T13:31:05Z</time>
      </trkpt>
      <trkpt lat="44.78895" lon="2.58491">
        <ele>519.4</ele>
        <time>2021-08-19T13:31:07Z</time>
      </trkpt>
      <trkpt lat="44.78897" lon="2.58489">
        <ele>519.3</ele>
        <time>2021-08-19T13:31:09Z</time>
      </trkpt>
      <trkpt lat="44.789" lon="2.58488">
        <ele>518.8</ele>
        <time>2021-08-19T13:31:11Z</time>
      </trkpt>
      <trkpt lat="44.78902" lon="2.58487">
        <ele>518.4</ele>
        <time>2021-08-19T13:31:13Z</time>
      </trkpt>
      <trkpt lat="44.78905" lon="2.58486">
        <ele>518.1</ele>
        <time>2021-08-19T13:31:15Z</time>
      </trkpt>
      <trkpt lat="44.78906" lon="2.58482">
        <ele>518.6</ele>
        <time>2021-08-19T13:31:17Z</time>
      </trkpt>
      <trkpt lat="44.78905" lon="2.58479">
        <ele>519.5</ele>
        <time>2021-08-19T13:31:19Z</time>
      </trkpt>
      <trkpt lat="44.78906" lon="2.58478">
        <ele>519.3</ele>
        <time>2021-08-19T13:31:21Z</time>
      </trkpt>
      <trkpt lat="44.78908" lon="2.58483">
        <ele>517.8</ele>
        <time>2021-08-19T13:31:23Z</time>
      </trkpt>
      <trkpt lat="44.78908" lon="2.58489">
        <ele>516.7</ele>
        <time>2021-08-19T13:31:25Z</time>
      </trkpt>
      <trkpt lat="44.78906" lon="2.58491">
        <ele>516.5</ele>
        <time>2021-08-19T13:31:27Z</time>
      </trkpt>
      <trkpt lat="44.78907" lon="2.58491">
        <ele>516.3</ele>
        <time>2021-08-19T13:31:29Z</time>
      </trkpt>
      <trkpt lat="44.78907" lon="2.58492">
        <ele>516.2</ele>
        <time>2021-08-19T13:31:31Z</time>
      </trkpt>
      <trkpt lat="44.78908" lon="2.58492">
        <ele>515.9</ele>
        <time>2021-08-19T13:31:33Z</time>
      </trkpt>
      <trkpt lat="44.78908" lon="2.58493">
        <ele>515.8</ele>
        <time>2021-08-19T13:31:35Z</time>
      </trkpt>
      <trkpt lat="44.78912" lon="2.58512">
        <ele>511.1</ele>
        <time>2021-08-19T13:39:05Z</time>
      </trkpt>
      <trkpt lat="44.78914" lon="2.58515">
        <ele>510.3</ele>
        <time>2021-08-19T13:39:07Z</time>
      </trkpt>
      <trkpt lat="44.78914" lon="2.58519">
        <ele>509.5</ele>
        <time>2021-08-19T13:39:09Z</time>
      </trkpt>
      <trkpt lat="44.78915" lon="2.58523">
        <ele>508.7</ele>
        <time>2021-08-19T13:39:11Z</time>
      </trkpt>
      <trkpt lat="44.78916" lon="2.58527">
        <ele>507.9</ele>
        <time>2021-08-19T13:39:13Z</time>
      </trkpt>
      <trkpt lat="44.78916" lon="2.58531">
        <ele>507.2</ele>
        <time>2021-08-19T13:39:15Z</time>
      </trkpt>
      <trkpt lat="44.78917" lon="2.58535">
        <ele>506.8</ele>
        <time>2021-08-19T13:39:17Z</time>
      </trkpt>
      <trkpt lat="44.78918" lon="2.5854">
        <ele>506.2</ele>
        <time>2021-08-19T13:39:19Z</time>
      </trkpt>
      <trkpt lat="44.78918" lon="2.58546">
        <ele>505.2</ele>
        <time>2021-08-19T13:39:21Z</time>
      </trkpt>
      <trkpt lat="44.78919" lon="2.58551">
        <ele>505.2</ele>
        <time>2021-08-19T13:39:23Z</time>
      </trkpt>
      <trkpt lat="44.78921" lon="2.58556">
        <ele>505.1</ele>
        <time>2021-08-19T13:39:25Z</time>
      </trkpt>
      <trkpt lat="44.78921" lon="2.58561">
        <ele>504.6</ele>
        <time>2021-08-19T13:39:27Z</time>
      </trkpt>
      <trkpt lat="44.78923" lon="2.58565">
        <ele>504.8</ele>
        <time>2021-08-19T13:39:29Z</time>
      </trkpt>
      <trkpt lat="44.78924" lon="2.58571">
        <ele>504.4</ele>
        <time>2021-08-19T13:39:31Z</time>
      </trkpt>
      <trkpt lat="44.78925" lon="2.58578">
        <ele>503.8</ele>
        <time>2021-08-19T13:39:33Z</time>
      </trkpt>
      <trkpt lat="44.78927" lon="2.58584">
        <ele>503.3</ele>
        <time>2021-08-19T13:39:35Z</time>
      </trkpt>
      <trkpt lat="44.78927" lon="2.5859">
        <ele>502.4</ele>
        <time>2021-08-19T13:39:37Z</time>
      </trkpt>
      <trkpt lat="44.78928" lon="2.58596">
        <ele>502</ele>
        <time>2021-08-19T13:39:39Z</time>
      </trkpt>
      <trkpt lat="44.78929" lon="2.58602">
        <ele>501.6</ele>
        <time>2021-08-19T13:39:41Z</time>
      </trkpt>
      <trkpt lat="44.7893" lon="2.58607">
        <ele>501.2</ele>
        <time>2021-08-19T13:39:43Z</time>
      </trkpt>
      <trkpt lat="44.78931" lon="2.58614">
        <ele>500.5</ele>
        <time>2021-08-19T13:39:45Z</time>
      </trkpt>
      <trkpt lat="44.78932" lon="2.5862">
        <ele>500.2</ele>
        <time>2021-08-19T13:39:47Z</time>
      </trkpt>
      <trkpt lat="44.78934" lon="2.58626">
        <ele>500.2</ele>
        <time>2021-08-19T13:39:49Z</time>
      </trkpt>
      <trkpt lat="44.78936" lon="2.58631">
        <ele>500.2</ele>
        <time>2021-08-19T13:39:51Z</time>
      </trkpt>
      <trkpt lat="44.78938" lon="2.58636">
        <ele>500.3</ele>
        <time>2021-08-19T13:39:53Z</time>
      </trkpt>
      <trkpt lat="44.78939" lon="2.58641">
        <ele>500.3</ele>
        <time>2021-08-19T13:39:55Z</time>
      </trkpt>
      <trkpt lat="44.78942" lon="2.58644">
        <ele>501</ele>
        <time>2021-08-19T13:39:57Z</time>
      </trkpt>
      <trkpt lat="44.78944" lon="2.58648">
        <ele>501.3</ele>
        <time>2021-08-19T13:39:59Z</time>
      </trkpt>
      <trkpt lat="44.78947" lon="2.58652">
        <ele>502</ele>
        <time>2021-08-19T13:40:01Z</time>
      </trkpt>
      <trkpt lat="44.78949" lon="2.58657">
        <ele>502.3</ele>
        <time>2021-08-19T13:40:03Z</time>
      </trkpt>
      <trkpt lat="44.78952" lon="2.5866">
        <ele>502.9</ele>
        <time>2021-08-19T13:40:05Z</time>
      </trkpt>
      <trkpt lat="44.78954" lon="2.58665">
        <ele>503</ele>
        <time>2021-08-19T13:40:07Z</time>
      </trkpt>
      <trkpt lat="44.78956" lon="2.58671">
        <ele>503.7</ele>
        <time>2021-08-19T13:40:09Z</time>
      </trkpt>
      <trkpt lat="44.78956" lon="2.58676">
        <ele>504</ele>
        <time>2021-08-19T13:40:11Z</time>
      </trkpt>
      <trkpt lat="44.78957" lon="2.58679">
        <ele>504.4</ele>
        <time>2021-08-19T13:40:13Z</time>
      </trkpt>
      <trkpt lat="44.78957" lon="2.58683">
        <ele>504.5</ele>
        <time>2021-08-19T13:40:15Z</time>
      </trkpt>
      <trkpt lat="44.78957" lon="2.58688">
        <ele>504.6</ele>
        <time>2021-08-19T13:40:17Z</time>
      </trkpt>
      <trkpt lat="44.78958" lon="2.58693">
        <ele>504.9</ele>
        <time>2021-08-19T13:40:19Z</time>
      </trkpt>
      <trkpt lat="44.78959" lon="2.58697">
        <ele>505.1</ele>
        <time>2021-08-19T13:40:21Z</time>
      </trkpt>
      <trkpt lat="44.78959" lon="2.58701">
        <ele>505.3</ele>
        <time>2021-08-19T13:40:23Z</time>
      </trkpt>
      <trkpt lat="44.78959" lon="2.58706">
        <ele>505.4</ele>
        <time>2021-08-19T13:40:25Z</time>
      </trkpt>
      <trkpt lat="44.78959" lon="2.58709">
        <ele>505.4</ele>
        <time>2021-08-19T13:40:27Z</time>
      </trkpt>
      <trkpt lat="44.78959" lon="2.58714">
        <ele>505.3</ele>
        <time>2021-08-19T13:40:29Z</time>
      </trkpt>
      <trkpt lat="44.78958" lon="2.58718">
        <ele>505.1</ele>
        <time>2021-08-19T13:40:31Z</time>
      </trkpt>
      <trkpt lat="44.78958" lon="2.58722">
        <ele>504.7</ele>
        <time>2021-08-19T13:40:33Z</time>
      </trkpt>
      <trkpt lat="44.78959" lon="2.58726">
        <ele>505.1</ele>
        <time>2021-08-19T13:40:35Z</time>
      </trkpt>
      <trkpt lat="44.78958" lon="2.5873">
        <ele>505</ele>
        <time>2021-08-19T13:40:37Z</time>
      </trkpt>
      <trkpt lat="44.78959" lon="2.58734">
        <ele>505.1</ele>
        <time>2021-08-19T13:40:39Z</time>
      </trkpt>
      <trkpt lat="44.78958" lon="2.58738">
        <ele>505</ele>
        <time>2021-08-19T13:40:41Z</time>
      </trkpt>
      <trkpt lat="44.78959" lon="2.58743">
        <ele>505.2</ele>
        <time>2021-08-19T13:40:43Z</time>
      </trkpt>
      <trkpt lat="44.78958" lon="2.58747">
        <ele>505.1</ele>
        <time>2021-08-19T13:40:45Z</time>
      </trkpt>
      <trkpt lat="44.78958" lon="2.58752">
        <ele>505</ele>
        <time>2021-08-19T13:40:47Z</time>
      </trkpt>
      <trkpt lat="44.78959" lon="2.58755">
        <ele>505.5</ele>
        <time>2021-08-19T13:40:49Z</time>
      </trkpt>
      <trkpt lat="44.78958" lon="2.58759">
        <ele>505.2</ele>
        <time>2021-08-19T13:40:51Z</time>
      </trkpt>
      <trkpt lat="44.78958" lon="2.58763">
        <ele>505.2</ele>
        <time>2021-08-19T13:40:53Z</time>
      </trkpt>
      <trkpt lat="44.78957" lon="2.58767">
        <ele>505.2</ele>
        <time>2021-08-19T13:40:55Z</time>
      </trkpt>
      <trkpt lat="44.78957" lon="2.58771">
        <ele>505.3</ele>
        <time>2021-08-19T13:40:57Z</time>
      </trkpt>
      <trkpt lat="44.78957" lon="2.58775">
        <ele>505.3</ele>
        <time>2021-08-19T13:40:59Z</time>
      </trkpt>
      <trkpt lat="44.78957" lon="2.58779">
        <ele>505.6</ele>
        <time>2021-08-19T13:41:01Z</time>
      </trkpt>
      <trkpt lat="44.78957" lon="2.58783">
        <ele>505.8</ele>
        <time>2021-08-19T13:41:03Z</time>
      </trkpt>
      <trkpt lat="44.78958" lon="2.58788">
        <ele>506</ele>
        <time>2021-08-19T13:41:05Z</time>
      </trkpt>
      <trkpt lat="44.78958" lon="2.58792">
        <ele>506.3</ele>
        <time>2021-08-19T13:41:07Z</time>
      </trkpt>
      <trkpt lat="44.78958" lon="2.58796">
        <ele>506.6</ele>
        <time>2021-08-19T13:41:09Z</time>
      </trkpt>
      <trkpt lat="44.78958" lon="2.588">
        <ele>506.8</ele>
        <time>2021-08-19T13:41:11Z</time>
      </trkpt>
      <trkpt lat="44.78959" lon="2.58804">
        <ele>507.2</ele>
        <time>2021-08-19T13:41:13Z</time>
      </trkpt>
      <trkpt lat="44.78959" lon="2.58808">
        <ele>507.6</ele>
        <time>2021-08-19T13:41:15Z</time>
      </trkpt>
      <trkpt lat="44.7896" lon="2.58812">
        <ele>508</ele>
        <time>2021-08-19T13:41:17Z</time>
      </trkpt>
      <trkpt lat="44.7896" lon="2.58816">
        <ele>508.3</ele>
        <time>2021-08-19T13:41:19Z</time>
      </trkpt>
      <trkpt lat="44.7896" lon="2.5882">
        <ele>508.3</ele>
        <time>2021-08-19T13:41:21Z</time>
      </trkpt>
      <trkpt lat="44.78961" lon="2.58824">
        <ele>508.9</ele>
        <time>2021-08-19T13:41:23Z</time>
      </trkpt>
      <trkpt lat="44.78961" lon="2.58828">
        <ele>509</ele>
        <time>2021-08-19T13:41:25Z</time>
      </trkpt>
      <trkpt lat="44.78962" lon="2.58832">
        <ele>509.5</ele>
        <time>2021-08-19T13:41:27Z</time>
      </trkpt>
      <trkpt lat="44.78963" lon="2.58836">
        <ele>509.9</ele>
        <time>2021-08-19T13:41:29Z</time>
      </trkpt>
      <trkpt lat="44.78963" lon="2.5884">
        <ele>510.1</ele>
        <time>2021-08-19T13:41:31Z</time>
      </trkpt>
      <trkpt lat="44.78964" lon="2.58845">
        <ele>510.5</ele>
        <time>2021-08-19T13:41:33Z</time>
      </trkpt>
      <trkpt lat="44.78964" lon="2.58849">
        <ele>510.8</ele>
        <time>2021-08-19T13:41:35Z</time>
      </trkpt>
      <trkpt lat="44.78965" lon="2.58852">
        <ele>511.1</ele>
        <time>2021-08-19T13:41:37Z</time>
      </trkpt>
      <trkpt lat="44.78966" lon="2.58856">
        <ele>511.5</ele>
        <time>2021-08-19T13:41:39Z</time>
      </trkpt>
      <trkpt lat="44.78965" lon="2.58861">
        <ele>511.5</ele>
        <time>2021-08-19T13:41:41Z</time>
      </trkpt>
      <trkpt lat="44.78965" lon="2.58866">
        <ele>511.6</ele>
        <time>2021-08-19T13:41:43Z</time>
      </trkpt>
      <trkpt lat="44.78965" lon="2.5887">
        <ele>511.7</ele>
        <time>2021-08-19T13:41:45Z</time>
      </trkpt>
      <trkpt lat="44.78966" lon="2.58874">
        <ele>512.2</ele>
        <time>2021-08-19T13:41:47Z</time>
      </trkpt>
      <trkpt lat="44.78968" lon="2.58878">
        <ele>512.8</ele>
        <time>2021-08-19T13:41:49Z</time>
      </trkpt>
      <trkpt lat="44.78969" lon="2.58882">
        <ele>513.2</ele>
        <time>2021-08-19T13:41:51Z</time>
      </trkpt>
      <trkpt lat="44.78969" lon="2.58886">
        <ele>513.4</ele>
        <time>2021-08-19T13:41:53Z</time>
      </trkpt>
      <trkpt lat="44.78969" lon="2.58889">
        <ele>513.4</ele>
        <time>2021-08-19T13:41:55Z</time>
      </trkpt>
      <trkpt lat="44.78969" lon="2.58894">
        <ele>513.7</ele>
        <time>2021-08-19T13:41:57Z</time>
      </trkpt>
      <trkpt lat="44.78969" lon="2.58898">
        <ele>513.8</ele>
        <time>2021-08-19T13:41:59Z</time>
      </trkpt>
      <trkpt lat="44.7897" lon="2.58901">
        <ele>514.3</ele>
        <time>2021-08-19T13:42:01Z</time>
      </trkpt>
      <trkpt lat="44.78972" lon="2.58905">
        <ele>514.9</ele>
        <time>2021-08-19T13:42:03Z</time>
      </trkpt>
      <trkpt lat="44.78972" lon="2.58909">
        <ele>515.2</ele>
        <time>2021-08-19T13:42:05Z</time>
      </trkpt>
      <trkpt lat="44.78973" lon="2.58913">
        <ele>515.6</ele>
        <time>2021-08-19T13:42:07Z</time>
      </trkpt>
      <trkpt lat="44.78974" lon="2.58916">
        <ele>516.2</ele>
        <time>2021-08-19T13:42:09Z</time>
      </trkpt>
      <trkpt lat="44.78975" lon="2.5892">
        <ele>516.3</ele>
        <time>2021-08-19T13:42:11Z</time>
      </trkpt>
      <trkpt lat="44.78976" lon="2.58923">
        <ele>516.3</ele>
        <time>2021-08-19T13:42:13Z</time>
      </trkpt>
      <trkpt lat="44.78977" lon="2.58927">
        <ele>516.5</ele>
        <time>2021-08-19T13:42:15Z</time>
      </trkpt>
      <trkpt lat="44.78979" lon="2.5893">
        <ele>516.7</ele>
        <time>2021-08-19T13:42:17Z</time>
      </trkpt>
      <trkpt lat="44.78979" lon="2.58933">
        <ele>516.6</ele>
        <time>2021-08-19T13:42:19Z</time>
      </trkpt>
      <trkpt lat="44.78981" lon="2.58936">
        <ele>516.9</ele>
        <time>2021-08-19T13:42:21Z</time>
      </trkpt>
      <trkpt lat="44.78982" lon="2.58939">
        <ele>517.2</ele>
        <time>2021-08-19T13:42:23Z</time>
      </trkpt>
      <trkpt lat="44.78984" lon="2.58941">
        <ele>517.7</ele>
        <time>2021-08-19T13:42:25Z</time>
      </trkpt>
      <trkpt lat="44.78985" lon="2.58944">
        <ele>517.9</ele>
        <time>2021-08-19T13:42:27Z</time>
      </trkpt>
      <trkpt lat="44.78987" lon="2.58947">
        <ele>518.3</ele>
        <time>2021-08-19T13:42:29Z</time>
      </trkpt>
      <trkpt lat="44.78988" lon="2.58949">
        <ele>518.4</ele>
        <time>2021-08-19T13:42:31Z</time>
      </trkpt>
      <trkpt lat="44.78989" lon="2.58953">
        <ele>518.6</ele>
        <time>2021-08-19T13:42:33Z</time>
      </trkpt>
      <trkpt lat="44.78991" lon="2.58955">
        <ele>518.9</ele>
        <time>2021-08-19T13:42:35Z</time>
      </trkpt>
      <trkpt lat="44.78992" lon="2.58958">
        <ele>519.2</ele>
        <time>2021-08-19T13:42:37Z</time>
      </trkpt>
      <trkpt lat="44.78994" lon="2.5896">
        <ele>519.4</ele>
        <time>2021-08-19T13:42:39Z</time>
      </trkpt>
      <trkpt lat="44.78995" lon="2.58963">
        <ele>519.7</ele>
        <time>2021-08-19T13:42:41Z</time>
      </trkpt>
      <trkpt lat="44.78997" lon="2.58966">
        <ele>519.9</ele>
        <time>2021-08-19T13:42:43Z</time>
      </trkpt>
      <trkpt lat="44.78999" lon="2.58968">
        <ele>520.3</ele>
        <time>2021-08-19T13:42:45Z</time>
      </trkpt>
      <trkpt lat="44.79" lon="2.58972">
        <ele>520.5</ele>
        <time>2021-08-19T13:42:47Z</time>
      </trkpt>
      <trkpt lat="44.79002" lon="2.58974">
        <ele>521</ele>
        <time>2021-08-19T13:42:49Z</time>
      </trkpt>
      <trkpt lat="44.79004" lon="2.58976">
        <ele>521.5</ele>
        <time>2021-08-19T13:42:51Z</time>
      </trkpt>
      <trkpt lat="44.79006" lon="2.58978">
        <ele>521.9</ele>
        <time>2021-08-19T13:42:53Z</time>
      </trkpt>
      <trkpt lat="44.79008" lon="2.58979">
        <ele>522.7</ele>
        <time>2021-08-19T13:42:55Z</time>
      </trkpt>
      <trkpt lat="44.7901" lon="2.58981">
        <ele>523.2</ele>
        <time>2021-08-19T13:42:57Z</time>
      </trkpt>
      <trkpt lat="44.79012" lon="2.58982">
        <ele>523.8</ele>
        <time>2021-08-19T13:42:59Z</time>
      </trkpt>
      <trkpt lat="44.79015" lon="2.58984">
        <ele>524.6</ele>
        <time>2021-08-19T13:43:01Z</time>
      </trkpt>
      <trkpt lat="44.79017" lon="2.58985">
        <ele>525.4</ele>
        <time>2021-08-19T13:43:03Z</time>
      </trkpt>
      <trkpt lat="44.7902" lon="2.58985">
        <ele>526.3</ele>
        <time>2021-08-19T13:43:05Z</time>
      </trkpt>
      <trkpt lat="44.79023" lon="2.58986">
        <ele>527.3</ele>
        <time>2021-08-19T13:43:07Z</time>
      </trkpt>
      <trkpt lat="44.79026" lon="2.58986">
        <ele>528.4</ele>
        <time>2021-08-19T13:43:09Z</time>
      </trkpt>
      <trkpt lat="44.79028" lon="2.58987">
        <ele>529</ele>
        <time>2021-08-19T13:43:11Z</time>
      </trkpt>
      <trkpt lat="44.7903" lon="2.58987">
        <ele>530</ele>
        <time>2021-08-19T13:43:13Z</time>
      </trkpt>
      <trkpt lat="44.79032" lon="2.58988">
        <ele>530.8</ele>
        <time>2021-08-19T13:43:15Z</time>
      </trkpt>
      <trkpt lat="44.79036" lon="2.58988">
        <ele>532.1</ele>
        <time>2021-08-19T13:43:17Z</time>
      </trkpt>
      <trkpt lat="44.79039" lon="2.5899">
        <ele>532.9</ele>
        <time>2021-08-19T13:43:19Z</time>
      </trkpt>
      <trkpt lat="44.79042" lon="2.58991">
        <ele>533.8</ele>
        <time>2021-08-19T13:43:21Z</time>
      </trkpt>
      <trkpt lat="44.79045" lon="2.58993">
        <ele>534.7</ele>
        <time>2021-08-19T13:43:23Z</time>
      </trkpt>
      <trkpt lat="44.79047" lon="2.58995">
        <ele>535.3</ele>
        <time>2021-08-19T13:43:25Z</time>
      </trkpt>
      <trkpt lat="44.7905" lon="2.58999">
        <ele>535.7</ele>
        <time>2021-08-19T13:43:27Z</time>
      </trkpt>
      <trkpt lat="44.79052" lon="2.59003">
        <ele>536.1</ele>
        <time>2021-08-19T13:43:29Z</time>
      </trkpt>
      <trkpt lat="44.79054" lon="2.59006">
        <ele>536.4</ele>
        <time>2021-08-19T13:43:31Z</time>
      </trkpt>
      <trkpt lat="44.79057" lon="2.59009">
        <ele>537.3</ele>
        <time>2021-08-19T13:43:33Z</time>
      </trkpt>
      <trkpt lat="44.79058" lon="2.59013">
        <ele>537.2</ele>
        <time>2021-08-19T13:43:35Z</time>
      </trkpt>
      <trkpt lat="44.79059" lon="2.59017">
        <ele>537.1</ele>
        <time>2021-08-19T13:43:37Z</time>
      </trkpt>
      <trkpt lat="44.79061" lon="2.59021">
        <ele>537.1</ele>
        <time>2021-08-19T13:43:39Z</time>
      </trkpt>
      <trkpt lat="44.79061" lon="2.59025">
        <ele>536.9</ele>
        <time>2021-08-19T13:43:41Z</time>
      </trkpt>
      <trkpt lat="44.79063" lon="2.59029">
        <ele>536.9</ele>
        <time>2021-08-19T13:43:43Z</time>
      </trkpt>
      <trkpt lat="44.79064" lon="2.59033">
        <ele>536.9</ele>
        <time>2021-08-19T13:43:45Z</time>
      </trkpt>
      <trkpt lat="44.79066" lon="2.59037">
        <ele>537</ele>
        <time>2021-08-19T13:43:47Z</time>
      </trkpt>
      <trkpt lat="44.79066" lon="2.59042">
        <ele>536.8</ele>
        <time>2021-08-19T13:43:49Z</time>
      </trkpt>
      <trkpt lat="44.79068" lon="2.59046">
        <ele>536.8</ele>
        <time>2021-08-19T13:43:51Z</time>
      </trkpt>
      <trkpt lat="44.79068" lon="2.5905">
        <ele>536.5</ele>
        <time>2021-08-19T13:43:53Z</time>
      </trkpt>
      <trkpt lat="44.7907" lon="2.59054">
        <ele>536.8</ele>
        <time>2021-08-19T13:43:55Z</time>
      </trkpt>
      <trkpt lat="44.79071" lon="2.59057">
        <ele>536.6</ele>
        <time>2021-08-19T13:43:57Z</time>
      </trkpt>
      <trkpt lat="44.79072" lon="2.59061">
        <ele>536.7</ele>
        <time>2021-08-19T13:43:59Z</time>
      </trkpt>
      <trkpt lat="44.79073" lon="2.59065">
        <ele>536.5</ele>
        <time>2021-08-19T13:44:01Z</time>
      </trkpt>
      <trkpt lat="44.79074" lon="2.59069">
        <ele>536.2</ele>
        <time>2021-08-19T13:44:03Z</time>
      </trkpt>
      <trkpt lat="44.79074" lon="2.59073">
        <ele>535.8</ele>
        <time>2021-08-19T13:44:05Z</time>
      </trkpt>
      <trkpt lat="44.79075" lon="2.59077">
        <ele>535.7</ele>
        <time>2021-08-19T13:44:07Z</time>
      </trkpt>
      <trkpt lat="44.79077" lon="2.59081">
        <ele>535.9</ele>
        <time>2021-08-19T13:44:09Z</time>
      </trkpt>
      <trkpt lat="44.79077" lon="2.59085">
        <ele>535.7</ele>
        <time>2021-08-19T13:44:11Z</time>
      </trkpt>
      <trkpt lat="44.79079" lon="2.59089">
        <ele>535.8</ele>
        <time>2021-08-19T13:44:13Z</time>
      </trkpt>
      <trkpt lat="44.7908" lon="2.59093">
        <ele>535.8</ele>
        <time>2021-08-19T13:44:15Z</time>
      </trkpt>
      <trkpt lat="44.79081" lon="2.59097">
        <ele>535.8</ele>
        <time>2021-08-19T13:44:17Z</time>
      </trkpt>
      <trkpt lat="44.79082" lon="2.59101">
        <ele>535.8</ele>
        <time>2021-08-19T13:44:19Z</time>
      </trkpt>
      <trkpt lat="44.79083" lon="2.59104">
        <ele>535.8</ele>
        <time>2021-08-19T13:44:21Z</time>
      </trkpt>
      <trkpt lat="44.79085" lon="2.59108">
        <ele>535.9</ele>
        <time>2021-08-19T13:44:23Z</time>
      </trkpt>
      <trkpt lat="44.79086" lon="2.59111">
        <ele>536.1</ele>
        <time>2021-08-19T13:44:25Z</time>
      </trkpt>
      <trkpt lat="44.79088" lon="2.59114">
        <ele>536.2</ele>
        <time>2021-08-19T13:44:27Z</time>
      </trkpt>
      <trkpt lat="44.79089" lon="2.59118">
        <ele>536.4</ele>
        <time>2021-08-19T13:44:29Z</time>
      </trkpt>
      <trkpt lat="44.7909" lon="2.59122">
        <ele>536.4</ele>
        <time>2021-08-19T13:44:31Z</time>
      </trkpt>
      <trkpt lat="44.79092" lon="2.59124">
        <ele>536.7</ele>
        <time>2021-08-19T13:44:33Z</time>
      </trkpt>
      <trkpt lat="44.79094" lon="2.59127">
        <ele>537.1</ele>
        <time>2021-08-19T13:44:35Z</time>
      </trkpt>
      <trkpt lat="44.79096" lon="2.5913">
        <ele>537.3</ele>
        <time>2021-08-19T13:44:37Z</time>
      </trkpt>
      <trkpt lat="44.79098" lon="2.59133">
        <ele>537.5</ele>
        <time>2021-08-19T13:44:39Z</time>
      </trkpt>
      <trkpt lat="44.791" lon="2.59136">
        <ele>537.8</ele>
        <time>2021-08-19T13:44:41Z</time>
      </trkpt>
      <trkpt lat="44.79101" lon="2.59139">
        <ele>537.9</ele>
        <time>2021-08-19T13:44:43Z</time>
      </trkpt>
      <trkpt lat="44.79103" lon="2.59142">
        <ele>538</ele>
        <time>2021-08-19T13:44:45Z</time>
      </trkpt>
      <trkpt lat="44.79104" lon="2.59145">
        <ele>538.1</ele>
        <time>2021-08-19T13:44:47Z</time>
      </trkpt>
      <trkpt lat="44.79105" lon="2.59148">
        <ele>538.2</ele>
        <time>2021-08-19T13:44:49Z</time>
      </trkpt>
      <trkpt lat="44.79107" lon="2.5915">
        <ele>538.3</ele>
        <time>2021-08-19T13:44:51Z</time>
      </trkpt>
      <trkpt lat="44.79109" lon="2.59153">
        <ele>538.6</ele>
        <time>2021-08-19T13:44:53Z</time>
      </trkpt>
      <trkpt lat="44.79111" lon="2.59156">
        <ele>538.8</ele>
        <time>2021-08-19T13:44:55Z</time>
      </trkpt>
      <trkpt lat="44.79114" lon="2.59159">
        <ele>539.2</ele>
        <time>2021-08-19T13:44:57Z</time>
      </trkpt>
      <trkpt lat="44.79115" lon="2.59162">
        <ele>539.2</ele>
        <time>2021-08-19T13:44:59Z</time>
      </trkpt>
      <trkpt lat="44.79117" lon="2.59165">
        <ele>539.4</ele>
        <time>2021-08-19T13:45:01Z</time>
      </trkpt>
      <trkpt lat="44.79119" lon="2.59168">
        <ele>539.5</ele>
        <time>2021-08-19T13:45:03Z</time>
      </trkpt>
      <trkpt lat="44.79121" lon="2.59171">
        <ele>539.3</ele>
        <time>2021-08-19T13:45:05Z</time>
      </trkpt>
      <trkpt lat="44.79123" lon="2.59173">
        <ele>539.3</ele>
        <time>2021-08-19T13:45:07Z</time>
      </trkpt>
      <trkpt lat="44.79125" lon="2.59176">
        <ele>539.2</ele>
        <time>2021-08-19T13:45:09Z</time>
      </trkpt>
      <trkpt lat="44.79127" lon="2.59178">
        <ele>539.6</ele>
        <time>2021-08-19T13:45:11Z</time>
      </trkpt>
      <trkpt lat="44.7913" lon="2.5918">
        <ele>539.7</ele>
        <time>2021-08-19T13:45:13Z</time>
      </trkpt>
      <trkpt lat="44.79132" lon="2.59182">
        <ele>540.1</ele>
        <time>2021-08-19T13:45:15Z</time>
      </trkpt>
      <trkpt lat="44.79134" lon="2.59184">
        <ele>540.1</ele>
        <time>2021-08-19T13:45:17Z</time>
      </trkpt>
      <trkpt lat="44.79136" lon="2.59186">
        <ele>540.4</ele>
        <time>2021-08-19T13:45:19Z</time>
      </trkpt>
      <trkpt lat="44.79138" lon="2.59188">
        <ele>540.6</ele>
        <time>2021-08-19T13:45:21Z</time>
      </trkpt>
      <trkpt lat="44.79141" lon="2.5919">
        <ele>540.7</ele>
        <time>2021-08-19T13:45:23Z</time>
      </trkpt>
      <trkpt lat="44.79143" lon="2.59191">
        <ele>541.2</ele>
        <time>2021-08-19T13:45:25Z</time>
      </trkpt>
      <trkpt lat="44.79145" lon="2.59193">
        <ele>541.4</ele>
        <time>2021-08-19T13:45:27Z</time>
      </trkpt>
      <trkpt lat="44.79147" lon="2.59194">
        <ele>541.6</ele>
        <time>2021-08-19T13:45:29Z</time>
      </trkpt>
      <trkpt lat="44.7915" lon="2.59196">
        <ele>542</ele>
        <time>2021-08-19T13:45:31Z</time>
      </trkpt>
      <trkpt lat="44.79152" lon="2.59197">
        <ele>542.6</ele>
        <time>2021-08-19T13:45:33Z</time>
      </trkpt>
      <trkpt lat="44.79154" lon="2.59198">
        <ele>542.7</ele>
        <time>2021-08-19T13:45:35Z</time>
      </trkpt>
      <trkpt lat="44.79156" lon="2.59199">
        <ele>543.2</ele>
        <time>2021-08-19T13:45:37Z</time>
      </trkpt>
      <trkpt lat="44.79159" lon="2.592">
        <ele>543.8</ele>
        <time>2021-08-19T13:45:39Z</time>
      </trkpt>
      <trkpt lat="44.79162" lon="2.59202">
        <ele>544.2</ele>
        <time>2021-08-19T13:45:41Z</time>
      </trkpt>
      <trkpt lat="44.79164" lon="2.59203">
        <ele>544.5</ele>
        <time>2021-08-19T13:45:43Z</time>
      </trkpt>
      <trkpt lat="44.79167" lon="2.59204">
        <ele>545.1</ele>
        <time>2021-08-19T13:45:45Z</time>
      </trkpt>
      <trkpt lat="44.7917" lon="2.59205">
        <ele>545.3</ele>
        <time>2021-08-19T13:45:47Z</time>
      </trkpt>
      <trkpt lat="44.79171" lon="2.59207">
        <ele>545.2</ele>
        <time>2021-08-19T13:45:49Z</time>
      </trkpt>
      <trkpt lat="44.79174" lon="2.59208">
        <ele>545.4</ele>
        <time>2021-08-19T13:45:51Z</time>
      </trkpt>
      <trkpt lat="44.79177" lon="2.59209">
        <ele>545.6</ele>
        <time>2021-08-19T13:45:53Z</time>
      </trkpt>
      <trkpt lat="44.79179" lon="2.5921">
        <ele>545.8</ele>
        <time>2021-08-19T13:45:55Z</time>
      </trkpt>
      <trkpt lat="44.79182" lon="2.5921">
        <ele>546.2</ele>
        <time>2021-08-19T13:45:57Z</time>
      </trkpt>
      <trkpt lat="44.79185" lon="2.59211">
        <ele>546.5</ele>
        <time>2021-08-19T13:45:59Z</time>
      </trkpt>
      <trkpt lat="44.79187" lon="2.5921">
        <ele>547.1</ele>
        <time>2021-08-19T13:46:01Z</time>
      </trkpt>
      <trkpt lat="44.7919" lon="2.59209">
        <ele>547.7</ele>
        <time>2021-08-19T13:46:03Z</time>
      </trkpt>
      <trkpt lat="44.79193" lon="2.59209">
        <ele>548.3</ele>
        <time>2021-08-19T13:46:05Z</time>
      </trkpt>
      <trkpt lat="44.79196" lon="2.59208">
        <ele>549.2</ele>
        <time>2021-08-19T13:46:07Z</time>
      </trkpt>
      <trkpt lat="44.79199" lon="2.59205">
        <ele>550.1</ele>
        <time>2021-08-19T13:46:09Z</time>
      </trkpt>
      <trkpt lat="44.79201" lon="2.59205">
        <ele>550.6</ele>
        <time>2021-08-19T13:46:11Z</time>
      </trkpt>
      <trkpt lat="44.79204" lon="2.59204">
        <ele>551.2</ele>
        <time>2021-08-19T13:46:13Z</time>
      </trkpt>
      <trkpt lat="44.79207" lon="2.59202">
        <ele>552.2</ele>
        <time>2021-08-19T13:46:15Z</time>
      </trkpt>
      <trkpt lat="44.79209" lon="2.592">
        <ele>553</ele>
        <time>2021-08-19T13:46:17Z</time>
      </trkpt>
      <trkpt lat="44.79212" lon="2.59199">
        <ele>553.7</ele>
        <time>2021-08-19T13:46:19Z</time>
      </trkpt>
      <trkpt lat="44.79214" lon="2.59197">
        <ele>554.6</ele>
        <time>2021-08-19T13:46:21Z</time>
      </trkpt>
      <trkpt lat="44.79217" lon="2.59196">
        <ele>555.3</ele>
        <time>2021-08-19T13:46:23Z</time>
      </trkpt>
      <trkpt lat="44.7922" lon="2.59195">
        <ele>556</ele>
        <time>2021-08-19T13:46:25Z</time>
      </trkpt>
      <trkpt lat="44.79222" lon="2.59194">
        <ele>556.5</ele>
        <time>2021-08-19T13:46:27Z</time>
      </trkpt>
      <trkpt lat="44.79224" lon="2.59192">
        <ele>557.2</ele>
        <time>2021-08-19T13:46:29Z</time>
      </trkpt>
      <trkpt lat="44.79226" lon="2.59191">
        <ele>557.9</ele>
        <time>2021-08-19T13:46:31Z</time>
      </trkpt>
      <trkpt lat="44.7923" lon="2.59189">
        <ele>558.9</ele>
        <time>2021-08-19T13:46:33Z</time>
      </trkpt>
      <trkpt lat="44.79232" lon="2.59187">
        <ele>559.6</ele>
        <time>2021-08-19T13:46:35Z</time>
      </trkpt>
      <trkpt lat="44.79234" lon="2.59187">
        <ele>560</ele>
        <time>2021-08-19T13:46:37Z</time>
      </trkpt>
      <trkpt lat="44.79237" lon="2.59186">
        <ele>560.8</ele>
        <time>2021-08-19T13:46:39Z</time>
      </trkpt>
      <trkpt lat="44.7924" lon="2.59185">
        <ele>561.4</ele>
        <time>2021-08-19T13:46:41Z</time>
      </trkpt>
      <trkpt lat="44.79243" lon="2.59184">
        <ele>562.1</ele>
        <time>2021-08-19T13:46:43Z</time>
      </trkpt>
      <trkpt lat="44.79246" lon="2.59183">
        <ele>562.7</ele>
        <time>2021-08-19T13:46:45Z</time>
      </trkpt>
      <trkpt lat="44.79248" lon="2.59182">
        <ele>563.4</ele>
        <time>2021-08-19T13:46:47Z</time>
      </trkpt>
      <trkpt lat="44.79251" lon="2.59181">
        <ele>564.1</ele>
        <time>2021-08-19T13:46:49Z</time>
      </trkpt>
      <trkpt lat="44.79253" lon="2.5918">
        <ele>565</ele>
        <time>2021-08-19T13:46:51Z</time>
      </trkpt>
      <trkpt lat="44.79256" lon="2.59178">
        <ele>566.3</ele>
        <time>2021-08-19T13:46:53Z</time>
      </trkpt>
      <trkpt lat="44.79259" lon="2.59177">
        <ele>567.2</ele>
        <time>2021-08-19T13:46:55Z</time>
      </trkpt>
      <trkpt lat="44.79261" lon="2.59176">
        <ele>567.8</ele>
        <time>2021-08-19T13:46:57Z</time>
      </trkpt>
      <trkpt lat="44.79263" lon="2.59174">
        <ele>568.7</ele>
        <time>2021-08-19T13:46:59Z</time>
      </trkpt>
      <trkpt lat="44.79266" lon="2.59172">
        <ele>569.9</ele>
        <time>2021-08-19T13:47:01Z</time>
      </trkpt>
      <trkpt lat="44.79269" lon="2.59171">
        <ele>570.8</ele>
        <time>2021-08-19T13:47:03Z</time>
      </trkpt>
      <trkpt lat="44.79271" lon="2.59172">
        <ele>571.2</ele>
        <time>2021-08-19T13:47:05Z</time>
      </trkpt>
      <trkpt lat="44.79276" lon="2.59173">
        <ele>572.1</ele>
        <time>2021-08-19T13:47:07Z</time>
      </trkpt>
      <trkpt lat="44.79279" lon="2.59175">
        <ele>572.6</ele>
        <time>2021-08-19T13:47:09Z</time>
      </trkpt>
      <trkpt lat="44.79283" lon="2.59179">
        <ele>573.2</ele>
        <time>2021-08-19T13:47:11Z</time>
      </trkpt>
      <trkpt lat="44.79285" lon="2.59183">
        <ele>573.2</ele>
        <time>2021-08-19T13:47:13Z</time>
      </trkpt>
      <trkpt lat="44.79287" lon="2.59186">
        <ele>573.1</ele>
        <time>2021-08-19T13:47:15Z</time>
      </trkpt>
      <trkpt lat="44.79287" lon="2.59191">
        <ele>572.6</ele>
        <time>2021-08-19T13:47:17Z</time>
      </trkpt>
      <trkpt lat="44.79288" lon="2.59195">
        <ele>572.3</ele>
        <time>2021-08-19T13:47:19Z</time>
      </trkpt>
      <trkpt lat="44.79287" lon="2.592">
        <ele>571.5</ele>
        <time>2021-08-19T13:47:21Z</time>
      </trkpt>
      <trkpt lat="44.79287" lon="2.59204">
        <ele>570.9</ele>
        <time>2021-08-19T13:47:23Z</time>
      </trkpt>
      <trkpt lat="44.79286" lon="2.59208">
        <ele>570</ele>
        <time>2021-08-19T13:47:25Z</time>
      </trkpt>
      <trkpt lat="44.79285" lon="2.59212">
        <ele>569</ele>
        <time>2021-08-19T13:47:27Z</time>
      </trkpt>
      <trkpt lat="44.79285" lon="2.59218">
        <ele>568.2</ele>
        <time>2021-08-19T13:47:29Z</time>
      </trkpt>
      <trkpt lat="44.79284" lon="2.59222">
        <ele>567.2</ele>
        <time>2021-08-19T13:47:31Z</time>
      </trkpt>
      <trkpt lat="44.79284" lon="2.59228">
        <ele>566.5</ele>
        <time>2021-08-19T13:47:33Z</time>
      </trkpt>
      <trkpt lat="44.79282" lon="2.59232">
        <ele>564.9</ele>
        <time>2021-08-19T13:47:35Z</time>
      </trkpt>
      <trkpt lat="44.79281" lon="2.59237">
        <ele>564</ele>
        <time>2021-08-19T13:47:37Z</time>
      </trkpt>
      <trkpt lat="44.79281" lon="2.59241">
        <ele>563.2</ele>
        <time>2021-08-19T13:47:39Z</time>
      </trkpt>
      <trkpt lat="44.7928" lon="2.59246">
        <ele>562.3</ele>
        <time>2021-08-19T13:47:41Z</time>
      </trkpt>
      <trkpt lat="44.7928" lon="2.5925">
        <ele>561.4</ele>
        <time>2021-08-19T13:47:43Z</time>
      </trkpt>
      <trkpt lat="44.79279" lon="2.59255">
        <ele>560.7</ele>
        <time>2021-08-19T13:47:45Z</time>
      </trkpt>
      <trkpt lat="44.79279" lon="2.59259">
        <ele>560.4</ele>
        <time>2021-08-19T13:47:47Z</time>
      </trkpt>
      <trkpt lat="44.7928" lon="2.59263">
        <ele>560.2</ele>
        <time>2021-08-19T13:47:49Z</time>
      </trkpt>
      <trkpt lat="44.7928" lon="2.59268">
        <ele>559.8</ele>
        <time>2021-08-19T13:47:51Z</time>
      </trkpt>
      <trkpt lat="44.79281" lon="2.59272">
        <ele>559.7</ele>
        <time>2021-08-19T13:47:53Z</time>
      </trkpt>
      <trkpt lat="44.79281" lon="2.59276">
        <ele>559.4</ele>
        <time>2021-08-19T13:47:55Z</time>
      </trkpt>
      <trkpt lat="44.79282" lon="2.5928">
        <ele>559.1</ele>
        <time>2021-08-19T13:47:57Z</time>
      </trkpt>
      <trkpt lat="44.79283" lon="2.59285">
        <ele>559.1</ele>
        <time>2021-08-19T13:47:59Z</time>
      </trkpt>
      <trkpt lat="44.79283" lon="2.5929">
        <ele>558.7</ele>
        <time>2021-08-19T13:48:01Z</time>
      </trkpt>
      <trkpt lat="44.79284" lon="2.59294">
        <ele>558.6</ele>
        <time>2021-08-19T13:48:03Z</time>
      </trkpt>
      <trkpt lat="44.79285" lon="2.59298">
        <ele>558.8</ele>
        <time>2021-08-19T13:48:05Z</time>
      </trkpt>
      <trkpt lat="44.79286" lon="2.59303">
        <ele>558.6</ele>
        <time>2021-08-19T13:48:07Z</time>
      </trkpt>
      <trkpt lat="44.79287" lon="2.59307">
        <ele>558.5</ele>
        <time>2021-08-19T13:48:09Z</time>
      </trkpt>
      <trkpt lat="44.79288" lon="2.59311">
        <ele>558.7</ele>
        <time>2021-08-19T13:48:11Z</time>
      </trkpt>
      <trkpt lat="44.79289" lon="2.59316">
        <ele>558.7</ele>
        <time>2021-08-19T13:48:13Z</time>
      </trkpt>
      <trkpt lat="44.7929" lon="2.5932">
        <ele>558.4</ele>
        <time>2021-08-19T13:48:15Z</time>
      </trkpt>
      <trkpt lat="44.79291" lon="2.59324">
        <ele>558.4</ele>
        <time>2021-08-19T13:48:17Z</time>
      </trkpt>
      <trkpt lat="44.79292" lon="2.59328">
        <ele>558.6</ele>
        <time>2021-08-19T13:48:19Z</time>
      </trkpt>
      <trkpt lat="44.79292" lon="2.59333">
        <ele>558.4</ele>
        <time>2021-08-19T13:48:21Z</time>
      </trkpt>
      <trkpt lat="44.79294" lon="2.59337">
        <ele>558.5</ele>
        <time>2021-08-19T13:48:23Z</time>
      </trkpt>
      <trkpt lat="44.79295" lon="2.59342">
        <ele>558.5</ele>
        <time>2021-08-19T13:48:25Z</time>
      </trkpt>
      <trkpt lat="44.79295" lon="2.59346">
        <ele>558.3</ele>
        <time>2021-08-19T13:48:27Z</time>
      </trkpt>
      <trkpt lat="44.79295" lon="2.59351">
        <ele>557.9</ele>
        <time>2021-08-19T13:48:29Z</time>
      </trkpt>
      <trkpt lat="44.79296" lon="2.59355">
        <ele>557.6</ele>
        <time>2021-08-19T13:48:31Z</time>
      </trkpt>
      <trkpt lat="44.79297" lon="2.5936">
        <ele>557.5</ele>
        <time>2021-08-19T13:48:33Z</time>
      </trkpt>
      <trkpt lat="44.79298" lon="2.59365">
        <ele>557.4</ele>
        <time>2021-08-19T13:48:35Z</time>
      </trkpt>
      <trkpt lat="44.79298" lon="2.59369">
        <ele>557.1</ele>
        <time>2021-08-19T13:48:37Z</time>
      </trkpt>
      <trkpt lat="44.793" lon="2.59374">
        <ele>557.3</ele>
        <time>2021-08-19T13:48:39Z</time>
      </trkpt>
      <trkpt lat="44.79301" lon="2.59378">
        <ele>557.4</ele>
        <time>2021-08-19T13:48:41Z</time>
      </trkpt>
      <trkpt lat="44.79302" lon="2.59382">
        <ele>557.3</ele>
        <time>2021-08-19T13:48:43Z</time>
      </trkpt>
      <trkpt lat="44.79302" lon="2.59386">
        <ele>557</ele>
        <time>2021-08-19T13:48:45Z</time>
      </trkpt>
      <trkpt lat="44.79304" lon="2.5939">
        <ele>557.6</ele>
        <time>2021-08-19T13:48:47Z</time>
      </trkpt>
      <trkpt lat="44.79306" lon="2.59394">
        <ele>557.8</ele>
        <time>2021-08-19T13:48:49Z</time>
      </trkpt>
      <trkpt lat="44.79308" lon="2.59397">
        <ele>558.6</ele>
        <time>2021-08-19T13:48:51Z</time>
      </trkpt>
      <trkpt lat="44.7931" lon="2.594">
        <ele>559</ele>
        <time>2021-08-19T13:48:53Z</time>
      </trkpt>
      <trkpt lat="44.79313" lon="2.59402">
        <ele>560</ele>
        <time>2021-08-19T13:48:55Z</time>
      </trkpt>
      <trkpt lat="44.79316" lon="2.59404">
        <ele>561</ele>
        <time>2021-08-19T13:48:57Z</time>
      </trkpt>
      <trkpt lat="44.79317" lon="2.59407">
        <ele>561.3</ele>
        <time>2021-08-19T13:48:59Z</time>
      </trkpt>
      <trkpt lat="44.79321" lon="2.59409">
        <ele>562.5</ele>
        <time>2021-08-19T13:49:01Z</time>
      </trkpt>
      <trkpt lat="44.79324" lon="2.5941">
        <ele>563.6</ele>
        <time>2021-08-19T13:49:03Z</time>
      </trkpt>
      <trkpt lat="44.79326" lon="2.59412">
        <ele>564.4</ele>
        <time>2021-08-19T13:49:05Z</time>
      </trkpt>
      <trkpt lat="44.79329" lon="2.59413">
        <ele>565.6</ele>
        <time>2021-08-19T13:49:07Z</time>
      </trkpt>
      <trkpt lat="44.79332" lon="2.59415">
        <ele>566.6</ele>
        <time>2021-08-19T13:49:09Z</time>
      </trkpt>
      <trkpt lat="44.79334" lon="2.59417">
        <ele>567.1</ele>
        <time>2021-08-19T13:49:11Z</time>
      </trkpt>
      <trkpt lat="44.79337" lon="2.59418">
        <ele>566.9</ele>
        <time>2021-08-19T13:49:13Z</time>
      </trkpt>
      <trkpt lat="44.79339" lon="2.59419">
        <ele>567</ele>
        <time>2021-08-19T13:49:15Z</time>
      </trkpt>
      <trkpt lat="44.79342" lon="2.59419">
        <ele>567.2</ele>
        <time>2021-08-19T13:49:17Z</time>
      </trkpt>
      <trkpt lat="44.79345" lon="2.59421">
        <ele>567</ele>
        <time>2021-08-19T13:49:19Z</time>
      </trkpt>
      <trkpt lat="44.79348" lon="2.59422">
        <ele>567</ele>
        <time>2021-08-19T13:49:21Z</time>
      </trkpt>
      <trkpt lat="44.79351" lon="2.59422">
        <ele>567.3</ele>
        <time>2021-08-19T13:49:23Z</time>
      </trkpt>
      <trkpt lat="44.79354" lon="2.59422">
        <ele>567.7</ele>
        <time>2021-08-19T13:49:25Z</time>
      </trkpt>
      <trkpt lat="44.79357" lon="2.59423">
        <ele>567.9</ele>
        <time>2021-08-19T13:49:27Z</time>
      </trkpt>
      <trkpt lat="44.7936" lon="2.59423">
        <ele>568</ele>
        <time>2021-08-19T13:49:29Z</time>
      </trkpt>
      <trkpt lat="44.79363" lon="2.59423">
        <ele>568.4</ele>
        <time>2021-08-19T13:49:31Z</time>
      </trkpt>
      <trkpt lat="44.79367" lon="2.59423">
        <ele>568.9</ele>
        <time>2021-08-19T13:49:33Z</time>
      </trkpt>
      <trkpt lat="44.7937" lon="2.59423">
        <ele>569.2</ele>
        <time>2021-08-19T13:49:35Z</time>
      </trkpt>
      <trkpt lat="44.79373" lon="2.59423">
        <ele>569.5</ele>
        <time>2021-08-19T13:49:37Z</time>
      </trkpt>
      <trkpt lat="44.79377" lon="2.59424">
        <ele>569.7</ele>
        <time>2021-08-19T13:49:39Z</time>
      </trkpt>
      <trkpt lat="44.7938" lon="2.59423">
        <ele>570.1</ele>
        <time>2021-08-19T13:49:41Z</time>
      </trkpt>
      <trkpt lat="44.79383" lon="2.59424">
        <ele>570.2</ele>
        <time>2021-08-19T13:49:43Z</time>
      </trkpt>
      <trkpt lat="44.79386" lon="2.59425">
        <ele>570.5</ele>
        <time>2021-08-19T13:49:45Z</time>
      </trkpt>
      <trkpt lat="44.7939" lon="2.59425">
        <ele>570.8</ele>
        <time>2021-08-19T13:49:47Z</time>
      </trkpt>
      <trkpt lat="44.79393" lon="2.59425">
        <ele>570.9</ele>
        <time>2021-08-19T13:49:49Z</time>
      </trkpt>
      <trkpt lat="44.79396" lon="2.59426">
        <ele>571.1</ele>
        <time>2021-08-19T13:49:51Z</time>
      </trkpt>
      <trkpt lat="44.79399" lon="2.59426">
        <ele>571.4</ele>
        <time>2021-08-19T13:49:53Z</time>
      </trkpt>
      <trkpt lat="44.79402" lon="2.59426">
        <ele>571.8</ele>
        <time>2021-08-19T13:49:55Z</time>
      </trkpt>
      <trkpt lat="44.79405" lon="2.59425">
        <ele>572.5</ele>
        <time>2021-08-19T13:49:57Z</time>
      </trkpt>
      <trkpt lat="44.79408" lon="2.59424">
        <ele>573</ele>
        <time>2021-08-19T13:49:59Z</time>
      </trkpt>
      <trkpt lat="44.79412" lon="2.59423">
        <ele>573.5</ele>
        <time>2021-08-19T13:50:01Z</time>
      </trkpt>
      <trkpt lat="44.79414" lon="2.59422">
        <ele>574.2</ele>
        <time>2021-08-19T13:50:03Z</time>
      </trkpt>
      <trkpt lat="44.79417" lon="2.59421">
        <ele>574.7</ele>
        <time>2021-08-19T13:50:05Z</time>
      </trkpt>
      <trkpt lat="44.7942" lon="2.59419">
        <ele>575.2</ele>
        <time>2021-08-19T13:50:07Z</time>
      </trkpt>
      <trkpt lat="44.79423" lon="2.59418">
        <ele>575.4</ele>
        <time>2021-08-19T13:50:09Z</time>
      </trkpt>
      <trkpt lat="44.79426" lon="2.59416">
        <ele>575.7</ele>
        <time>2021-08-19T13:50:11Z</time>
      </trkpt>
      <trkpt lat="44.79428" lon="2.59413">
        <ele>576.3</ele>
        <time>2021-08-19T13:50:13Z</time>
      </trkpt>
      <trkpt lat="44.79431" lon="2.59411">
        <ele>576.7</ele>
        <time>2021-08-19T13:50:15Z</time>
      </trkpt>
      <trkpt lat="44.79434" lon="2.59409">
        <ele>577.2</ele>
        <time>2021-08-19T13:50:17Z</time>
      </trkpt>
      <trkpt lat="44.79437" lon="2.59407">
        <ele>577.7</ele>
        <time>2021-08-19T13:50:19Z</time>
      </trkpt>
      <trkpt lat="44.7944" lon="2.59404">
        <ele>578.2</ele>
        <time>2021-08-19T13:50:21Z</time>
      </trkpt>
      <trkpt lat="44.79443" lon="2.59402">
        <ele>578.7</ele>
        <time>2021-08-19T13:50:23Z</time>
      </trkpt>
      <trkpt lat="44.79446" lon="2.594">
        <ele>579.1</ele>
        <time>2021-08-19T13:50:25Z</time>
      </trkpt>
      <trkpt lat="44.79449" lon="2.59398">
        <ele>579.5</ele>
        <time>2021-08-19T13:50:27Z</time>
      </trkpt>
      <trkpt lat="44.79452" lon="2.59396">
        <ele>580.1</ele>
        <time>2021-08-19T13:50:29Z</time>
      </trkpt>
      <trkpt lat="44.79455" lon="2.59394">
        <ele>580.6</ele>
        <time>2021-08-19T13:50:31Z</time>
      </trkpt>
      <trkpt lat="44.79458" lon="2.59392">
        <ele>581</ele>
        <time>2021-08-19T13:50:33Z</time>
      </trkpt>
      <trkpt lat="44.7946" lon="2.5939">
        <ele>581.6</ele>
        <time>2021-08-19T13:50:35Z</time>
      </trkpt>
      <trkpt lat="44.79462" lon="2.59388">
        <ele>582.1</ele>
        <time>2021-08-19T13:50:37Z</time>
      </trkpt>
      <trkpt lat="44.79465" lon="2.59386">
        <ele>582.6</ele>
        <time>2021-08-19T13:50:39Z</time>
      </trkpt>
      <trkpt lat="44.79468" lon="2.59384">
        <ele>583.3</ele>
        <time>2021-08-19T13:50:41Z</time>
      </trkpt>
      <trkpt lat="44.7947" lon="2.5938">
        <ele>584.2</ele>
        <time>2021-08-19T13:50:43Z</time>
      </trkpt>
      <trkpt lat="44.79473" lon="2.59378">
        <ele>584.7</ele>
        <time>2021-08-19T13:50:45Z</time>
      </trkpt>
      <trkpt lat="44.79475" lon="2.59376">
        <ele>585.4</ele>
        <time>2021-08-19T13:50:47Z</time>
      </trkpt>
      <trkpt lat="44.79478" lon="2.59374">
        <ele>586.1</ele>
        <time>2021-08-19T13:50:49Z</time>
      </trkpt>
      <trkpt lat="44.7948" lon="2.59371">
        <ele>587</ele>
        <time>2021-08-19T13:50:51Z</time>
      </trkpt>
      <trkpt lat="44.79483" lon="2.59367">
        <ele>588</ele>
        <time>2021-08-19T13:50:53Z</time>
      </trkpt>
      <trkpt lat="44.79486" lon="2.59365">
        <ele>588.7</ele>
        <time>2021-08-19T13:50:55Z</time>
      </trkpt>
      <trkpt lat="44.79489" lon="2.59364">
        <ele>589.1</ele>
        <time>2021-08-19T13:50:57Z</time>
      </trkpt>
      <trkpt lat="44.79492" lon="2.59361">
        <ele>589.8</ele>
        <time>2021-08-19T13:50:59Z</time>
      </trkpt>
      <trkpt lat="44.79494" lon="2.5936">
        <ele>590.3</ele>
        <time>2021-08-19T13:51:01Z</time>
      </trkpt>
      <trkpt lat="44.79497" lon="2.59356">
        <ele>591.4</ele>
        <time>2021-08-19T13:51:03Z</time>
      </trkpt>
      <trkpt lat="44.795" lon="2.59354">
        <ele>592.1</ele>
        <time>2021-08-19T13:51:05Z</time>
      </trkpt>
      <trkpt lat="44.79502" lon="2.59352">
        <ele>592.9</ele>
        <time>2021-08-19T13:51:07Z</time>
      </trkpt>
      <trkpt lat="44.79504" lon="2.5935">
        <ele>593.6</ele>
        <time>2021-08-19T13:51:09Z</time>
      </trkpt>
      <trkpt lat="44.79507" lon="2.59348">
        <ele>594.5</ele>
        <time>2021-08-19T13:51:11Z</time>
      </trkpt>
      <trkpt lat="44.79509" lon="2.59345">
        <ele>595.7</ele>
        <time>2021-08-19T13:51:13Z</time>
      </trkpt>
      <trkpt lat="44.79511" lon="2.59344">
        <ele>596.2</ele>
        <time>2021-08-19T13:51:15Z</time>
      </trkpt>
      <trkpt lat="44.79514" lon="2.5934">
        <ele>597.4</ele>
        <time>2021-08-19T13:51:17Z</time>
      </trkpt>
      <trkpt lat="44.79517" lon="2.59338">
        <ele>598.3</ele>
        <time>2021-08-19T13:51:19Z</time>
      </trkpt>
      <trkpt lat="44.79519" lon="2.59335">
        <ele>599.3</ele>
        <time>2021-08-19T13:51:21Z</time>
      </trkpt>
      <trkpt lat="44.79521" lon="2.59333">
        <ele>600</ele>
        <time>2021-08-19T13:51:23Z</time>
      </trkpt>
      <trkpt lat="44.79523" lon="2.5933">
        <ele>601.2</ele>
        <time>2021-08-19T13:51:25Z</time>
      </trkpt>
      <trkpt lat="44.79526" lon="2.59327">
        <ele>602.2</ele>
        <time>2021-08-19T13:51:27Z</time>
      </trkpt>
      <trkpt lat="44.79529" lon="2.59322">
        <ele>603.5</ele>
        <time>2021-08-19T13:51:29Z</time>
      </trkpt>
      <trkpt lat="44.79532" lon="2.5932">
        <ele>604.5</ele>
        <time>2021-08-19T13:51:31Z</time>
      </trkpt>
      <trkpt lat="44.79536" lon="2.59316">
        <ele>605.8</ele>
        <time>2021-08-19T13:51:33Z</time>
      </trkpt>
      <trkpt lat="44.79541" lon="2.59314">
        <ele>606.4</ele>
        <time>2021-08-19T13:51:35Z</time>
      </trkpt>
      <trkpt lat="44.79545" lon="2.59315">
        <ele>606.4</ele>
        <time>2021-08-19T13:51:37Z</time>
      </trkpt>
      <trkpt lat="44.79548" lon="2.59317">
        <ele>605.8</ele>
        <time>2021-08-19T13:51:39Z</time>
      </trkpt>
      <trkpt lat="44.79551" lon="2.59319">
        <ele>605.3</ele>
        <time>2021-08-19T13:51:41Z</time>
      </trkpt>
      <trkpt lat="44.79554" lon="2.59324">
        <ele>604.3</ele>
        <time>2021-08-19T13:51:43Z</time>
      </trkpt>
      <trkpt lat="44.79557" lon="2.59327">
        <ele>603.4</ele>
        <time>2021-08-19T13:51:45Z</time>
      </trkpt>
      <trkpt lat="44.7956" lon="2.59331">
        <ele>602.5</ele>
        <time>2021-08-19T13:51:47Z</time>
      </trkpt>
      <trkpt lat="44.79564" lon="2.59334">
        <ele>601.8</ele>
        <time>2021-08-19T13:51:49Z</time>
      </trkpt>
      <trkpt lat="44.79566" lon="2.59339">
        <ele>600.7</ele>
        <time>2021-08-19T13:51:51Z</time>
      </trkpt>
      <trkpt lat="44.79568" lon="2.59342">
        <ele>599.9</ele>
        <time>2021-08-19T13:51:53Z</time>
      </trkpt>
      <trkpt lat="44.7957" lon="2.59345">
        <ele>599.2</ele>
        <time>2021-08-19T13:51:55Z</time>
      </trkpt>
      <trkpt lat="44.79572" lon="2.59349">
        <ele>598.3</ele>
        <time>2021-08-19T13:51:57Z</time>
      </trkpt>
      <trkpt lat="44.79575" lon="2.59353">
        <ele>597.5</ele>
        <time>2021-08-19T13:51:59Z</time>
      </trkpt>
      <trkpt lat="44.79577" lon="2.59357">
        <ele>596.6</ele>
        <time>2021-08-19T13:52:01Z</time>
      </trkpt>
      <trkpt lat="44.7958" lon="2.5936">
        <ele>596</ele>
        <time>2021-08-19T13:52:03Z</time>
      </trkpt>
      <trkpt lat="44.79582" lon="2.59363">
        <ele>595.4</ele>
        <time>2021-08-19T13:52:05Z</time>
      </trkpt>
      <trkpt lat="44.79586" lon="2.59366">
        <ele>595.5</ele>
        <time>2021-08-19T13:52:07Z</time>
      </trkpt>
      <trkpt lat="44.79588" lon="2.59369">
        <ele>595.3</ele>
        <time>2021-08-19T13:52:09Z</time>
      </trkpt>
      <trkpt lat="44.79589" lon="2.59373">
        <ele>594.6</ele>
        <time>2021-08-19T13:52:11Z</time>
      </trkpt>
      <trkpt lat="44.79591" lon="2.59376">
        <ele>594.2</ele>
        <time>2021-08-19T13:52:13Z</time>
      </trkpt>
      <trkpt lat="44.79593" lon="2.59379">
        <ele>594</ele>
        <time>2021-08-19T13:52:15Z</time>
      </trkpt>
      <trkpt lat="44.79595" lon="2.59383">
        <ele>593.6</ele>
        <time>2021-08-19T13:52:17Z</time>
      </trkpt>
      <trkpt lat="44.79597" lon="2.59385">
        <ele>593.5</ele>
        <time>2021-08-19T13:52:19Z</time>
      </trkpt>
      <trkpt lat="44.79599" lon="2.59388">
        <ele>593.5</ele>
        <time>2021-08-19T13:52:21Z</time>
      </trkpt>
      <trkpt lat="44.79602" lon="2.5939">
        <ele>593.6</ele>
        <time>2021-08-19T13:52:23Z</time>
      </trkpt>
      <trkpt lat="44.79605" lon="2.59393">
        <ele>593.7</ele>
        <time>2021-08-19T13:52:25Z</time>
      </trkpt>
      <trkpt lat="44.79607" lon="2.59397">
        <ele>593.4</ele>
        <time>2021-08-19T13:52:27Z</time>
      </trkpt>
      <trkpt lat="44.7961" lon="2.59398">
        <ele>593.7</ele>
        <time>2021-08-19T13:52:29Z</time>
      </trkpt>
      <trkpt lat="44.79612" lon="2.59401">
        <ele>593.5</ele>
        <time>2021-08-19T13:52:31Z</time>
      </trkpt>
      <trkpt lat="44.79614" lon="2.59403">
        <ele>593.6</ele>
        <time>2021-08-19T13:52:33Z</time>
      </trkpt>
      <trkpt lat="44.79617" lon="2.59406">
        <ele>593.7</ele>
        <time>2021-08-19T13:52:35Z</time>
      </trkpt>
      <trkpt lat="44.79619" lon="2.59408">
        <ele>593.7</ele>
        <time>2021-08-19T13:52:37Z</time>
      </trkpt>
      <trkpt lat="44.79622" lon="2.5941">
        <ele>593.9</ele>
        <time>2021-08-19T13:52:39Z</time>
      </trkpt>
      <trkpt lat="44.79624" lon="2.59412">
        <ele>594</ele>
        <time>2021-08-19T13:52:41Z</time>
      </trkpt>
      <trkpt lat="44.79627" lon="2.59414">
        <ele>594</ele>
        <time>2021-08-19T13:52:43Z</time>
      </trkpt>
      <trkpt lat="44.79629" lon="2.59416">
        <ele>594.1</ele>
        <time>2021-08-19T13:52:45Z</time>
      </trkpt>
      <trkpt lat="44.79631" lon="2.59419">
        <ele>594.1</ele>
        <time>2021-08-19T13:52:47Z</time>
      </trkpt>
      <trkpt lat="44.79634" lon="2.5942">
        <ele>594.5</ele>
        <time>2021-08-19T13:52:49Z</time>
      </trkpt>
      <trkpt lat="44.79638" lon="2.59422">
        <ele>594.8</ele>
        <time>2021-08-19T13:52:51Z</time>
      </trkpt>
      <trkpt lat="44.79639" lon="2.59424">
        <ele>594.9</ele>
        <time>2021-08-19T13:52:53Z</time>
      </trkpt>
      <trkpt lat="44.79642" lon="2.59426">
        <ele>595</ele>
        <time>2021-08-19T13:52:55Z</time>
      </trkpt>
      <trkpt lat="44.79644" lon="2.59429">
        <ele>594.8</ele>
        <time>2021-08-19T13:52:57Z</time>
      </trkpt>
      <trkpt lat="44.79646" lon="2.5943">
        <ele>595</ele>
        <time>2021-08-19T13:52:59Z</time>
      </trkpt>
      <trkpt lat="44.79649" lon="2.59432">
        <ele>595.2</ele>
        <time>2021-08-19T13:53:01Z</time>
      </trkpt>
      <trkpt lat="44.79652" lon="2.59434">
        <ele>595.6</ele>
        <time>2021-08-19T13:53:03Z</time>
      </trkpt>
      <trkpt lat="44.79654" lon="2.59436">
        <ele>595.9</ele>
        <time>2021-08-19T13:53:05Z</time>
      </trkpt>
      <trkpt lat="44.79657" lon="2.59438">
        <ele>596</ele>
        <time>2021-08-19T13:53:07Z</time>
      </trkpt>
      <trkpt lat="44.7966" lon="2.5944">
        <ele>596.4</ele>
        <time>2021-08-19T13:53:09Z</time>
      </trkpt>
      <trkpt lat="44.79663" lon="2.5944">
        <ele>597.2</ele>
        <time>2021-08-19T13:53:11Z</time>
      </trkpt>
      <trkpt lat="44.79666" lon="2.59441">
        <ele>597.8</ele>
        <time>2021-08-19T13:53:13Z</time>
      </trkpt>
      <trkpt lat="44.79669" lon="2.5944">
        <ele>597.8</ele>
        <time>2021-08-19T13:53:15Z</time>
      </trkpt>
      <trkpt lat="44.79671" lon="2.59439">
        <ele>597.8</ele>
        <time>2021-08-19T13:53:17Z</time>
      </trkpt>
      <trkpt lat="44.79673" lon="2.59438">
        <ele>597.9</ele>
        <time>2021-08-19T13:53:19Z</time>
      </trkpt>
      <trkpt lat="44.79676" lon="2.59436">
        <ele>598.2</ele>
        <time>2021-08-19T13:53:21Z</time>
      </trkpt>
      <trkpt lat="44.79678" lon="2.59435">
        <ele>598.3</ele>
        <time>2021-08-19T13:53:23Z</time>
      </trkpt>
      <trkpt lat="44.7968" lon="2.59432">
        <ele>598.7</ele>
        <time>2021-08-19T13:53:25Z</time>
      </trkpt>
      <trkpt lat="44.79682" lon="2.59429">
        <ele>599.2</ele>
        <time>2021-08-19T13:53:27Z</time>
      </trkpt>
      <trkpt lat="44.79684" lon="2.59428">
        <ele>599.2</ele>
        <time>2021-08-19T13:53:29Z</time>
      </trkpt>
      <trkpt lat="44.79686" lon="2.59425">
        <ele>599.7</ele>
        <time>2021-08-19T13:53:31Z</time>
      </trkpt>
      <trkpt lat="44.79688" lon="2.59422">
        <ele>600.3</ele>
        <time>2021-08-19T13:53:33Z</time>
      </trkpt>
      <trkpt lat="44.7969" lon="2.59419">
        <ele>600.8</ele>
        <time>2021-08-19T13:53:35Z</time>
      </trkpt>
      <trkpt lat="44.79692" lon="2.59417">
        <ele>601.1</ele>
        <time>2021-08-19T13:53:37Z</time>
      </trkpt>
      <trkpt lat="44.79693" lon="2.59415">
        <ele>601.6</ele>
        <time>2021-08-19T13:53:39Z</time>
      </trkpt>
      <trkpt lat="44.79695" lon="2.59412">
        <ele>602.3</ele>
        <time>2021-08-19T13:53:41Z</time>
      </trkpt>
      <trkpt lat="44.79696" lon="2.59408">
        <ele>603</ele>
        <time>2021-08-19T13:53:43Z</time>
      </trkpt>
      <trkpt lat="44.79698" lon="2.59406">
        <ele>603.6</ele>
        <time>2021-08-19T13:53:45Z</time>
      </trkpt>
      <trkpt lat="44.79698" lon="2.59402">
        <ele>604.4</ele>
        <time>2021-08-19T13:53:47Z</time>
      </trkpt>
      <trkpt lat="44.797" lon="2.59399">
        <ele>605.2</ele>
        <time>2021-08-19T13:53:49Z</time>
      </trkpt>
      <trkpt lat="44.79702" lon="2.59396">
        <ele>605.7</ele>
        <time>2021-08-19T13:53:51Z</time>
      </trkpt>
      <trkpt lat="44.79702" lon="2.59393">
        <ele>606.4</ele>
        <time>2021-08-19T13:53:53Z</time>
      </trkpt>
      <trkpt lat="44.79705" lon="2.59389">
        <ele>607</ele>
        <time>2021-08-19T13:53:55Z</time>
      </trkpt>
      <trkpt lat="44.79707" lon="2.59386">
        <ele>607.7</ele>
        <time>2021-08-19T13:53:57Z</time>
      </trkpt>
      <trkpt lat="44.79708" lon="2.59383">
        <ele>608.4</ele>
        <time>2021-08-19T13:53:59Z</time>
      </trkpt>
      <trkpt lat="44.79709" lon="2.5938">
        <ele>609</ele>
        <time>2021-08-19T13:54:01Z</time>
      </trkpt>
      <trkpt lat="44.79711" lon="2.59378">
        <ele>609.5</ele>
        <time>2021-08-19T13:54:03Z</time>
      </trkpt>
      <trkpt lat="44.79712" lon="2.59374">
        <ele>610.5</ele>
        <time>2021-08-19T13:54:05Z</time>
      </trkpt>
      <trkpt lat="44.79714" lon="2.5937">
        <ele>611.2</ele>
        <time>2021-08-19T13:54:07Z</time>
      </trkpt>
      <trkpt lat="44.79716" lon="2.59367">
        <ele>611.8</ele>
        <time>2021-08-19T13:54:09Z</time>
      </trkpt>
      <trkpt lat="44.79718" lon="2.59364">
        <ele>612.5</ele>
        <time>2021-08-19T13:54:11Z</time>
      </trkpt>
      <trkpt lat="44.7972" lon="2.59361">
        <ele>612.9</ele>
        <time>2021-08-19T13:54:13Z</time>
      </trkpt>
      <trkpt lat="44.79721" lon="2.59358">
        <ele>613.6</ele>
        <time>2021-08-19T13:54:15Z</time>
      </trkpt>
      <trkpt lat="44.79723" lon="2.59354">
        <ele>614.5</ele>
        <time>2021-08-19T13:54:17Z</time>
      </trkpt>
      <trkpt lat="44.79725" lon="2.59351">
        <ele>615</ele>
        <time>2021-08-19T13:54:19Z</time>
      </trkpt>
      <trkpt lat="44.79727" lon="2.59347">
        <ele>615.8</ele>
        <time>2021-08-19T13:54:21Z</time>
      </trkpt>
      <trkpt lat="44.79728" lon="2.59343">
        <ele>616.8</ele>
        <time>2021-08-19T13:54:23Z</time>
      </trkpt>
      <trkpt lat="44.7973" lon="2.59339">
        <ele>617.5</ele>
        <time>2021-08-19T13:54:25Z</time>
      </trkpt>
      <trkpt lat="44.79732" lon="2.59336">
        <ele>618.3</ele>
        <time>2021-08-19T13:54:27Z</time>
      </trkpt>
      <trkpt lat="44.79734" lon="2.59333">
        <ele>618.7</ele>
        <time>2021-08-19T13:54:29Z</time>
      </trkpt>
      <trkpt lat="44.79736" lon="2.59329">
        <ele>619.3</ele>
        <time>2021-08-19T13:54:31Z</time>
      </trkpt>
      <trkpt lat="44.79738" lon="2.59325">
        <ele>619.9</ele>
        <time>2021-08-19T13:54:33Z</time>
      </trkpt>
      <trkpt lat="44.7974" lon="2.59322">
        <ele>620.3</ele>
        <time>2021-08-19T13:54:35Z</time>
      </trkpt>
      <trkpt lat="44.79742" lon="2.59317">
        <ele>620.9</ele>
        <time>2021-08-19T13:54:37Z</time>
      </trkpt>
      <trkpt lat="44.79744" lon="2.59314">
        <ele>621.4</ele>
        <time>2021-08-19T13:54:39Z</time>
      </trkpt>
      <trkpt lat="44.79744" lon="2.5931">
        <ele>622</ele>
        <time>2021-08-19T13:54:41Z</time>
      </trkpt>
      <trkpt lat="44.79748" lon="2.59306">
        <ele>622.5</ele>
        <time>2021-08-19T13:54:43Z</time>
      </trkpt>
      <trkpt lat="44.79749" lon="2.59302">
        <ele>623</ele>
        <time>2021-08-19T13:54:45Z</time>
      </trkpt>
      <trkpt lat="44.79751" lon="2.593">
        <ele>623.2</ele>
        <time>2021-08-19T13:54:47Z</time>
      </trkpt>
      <trkpt lat="44.79752" lon="2.59296">
        <ele>623.7</ele>
        <time>2021-08-19T13:54:49Z</time>
      </trkpt>
      <trkpt lat="44.79753" lon="2.59293">
        <ele>623.9</ele>
        <time>2021-08-19T13:54:51Z</time>
      </trkpt>
      <trkpt lat="44.79755" lon="2.5929">
        <ele>624.1</ele>
        <time>2021-08-19T13:54:53Z</time>
      </trkpt>
      <trkpt lat="44.79758" lon="2.59286">
        <ele>624.1</ele>
        <time>2021-08-19T13:54:55Z</time>
      </trkpt>
      <trkpt lat="44.79759" lon="2.59282">
        <ele>624.7</ele>
        <time>2021-08-19T13:54:57Z</time>
      </trkpt>
      <trkpt lat="44.79761" lon="2.5928">
        <ele>624.6</ele>
        <time>2021-08-19T13:54:59Z</time>
      </trkpt>
      <trkpt lat="44.79763" lon="2.59276">
        <ele>624.8</ele>
        <time>2021-08-19T13:55:01Z</time>
      </trkpt>
      <trkpt lat="44.79765" lon="2.59272">
        <ele>625.2</ele>
        <time>2021-08-19T13:55:03Z</time>
      </trkpt>
      <trkpt lat="44.79768" lon="2.59268">
        <ele>625.2</ele>
        <time>2021-08-19T13:55:05Z</time>
      </trkpt>
      <trkpt lat="44.79769" lon="2.59265">
        <ele>625.3</ele>
        <time>2021-08-19T13:55:07Z</time>
      </trkpt>
      <trkpt lat="44.79772" lon="2.59261">
        <ele>625.6</ele>
        <time>2021-08-19T13:55:09Z</time>
      </trkpt>
      <trkpt lat="44.79774" lon="2.59258">
        <ele>625.6</ele>
        <time>2021-08-19T13:55:11Z</time>
      </trkpt>
      <trkpt lat="44.79776" lon="2.59255">
        <ele>625.9</ele>
        <time>2021-08-19T13:55:13Z</time>
      </trkpt>
      <trkpt lat="44.79777" lon="2.59251">
        <ele>626.3</ele>
        <time>2021-08-19T13:55:15Z</time>
      </trkpt>
      <trkpt lat="44.7978" lon="2.59247">
        <ele>626.5</ele>
        <time>2021-08-19T13:55:17Z</time>
      </trkpt>
      <trkpt lat="44.79782" lon="2.59243">
        <ele>626.8</ele>
        <time>2021-08-19T13:55:19Z</time>
      </trkpt>
      <trkpt lat="44.79784" lon="2.5924">
        <ele>627.1</ele>
        <time>2021-08-19T13:55:21Z</time>
      </trkpt>
      <trkpt lat="44.79787" lon="2.59237">
        <ele>627.2</ele>
        <time>2021-08-19T13:55:23Z</time>
      </trkpt>
      <trkpt lat="44.79789" lon="2.59232">
        <ele>627.6</ele>
        <time>2021-08-19T13:55:25Z</time>
      </trkpt>
      <trkpt lat="44.7979" lon="2.59228">
        <ele>628.1</ele>
        <time>2021-08-19T13:55:27Z</time>
      </trkpt>
      <trkpt lat="44.79792" lon="2.59224">
        <ele>628.8</ele>
        <time>2021-08-19T13:55:29Z</time>
      </trkpt>
      <trkpt lat="44.79793" lon="2.5922">
        <ele>629.3</ele>
        <time>2021-08-19T13:55:31Z</time>
      </trkpt>
      <trkpt lat="44.79793" lon="2.59215">
        <ele>630.3</ele>
        <time>2021-08-19T13:55:33Z</time>
      </trkpt>
      <trkpt lat="44.79791" lon="2.59212">
        <ele>631.6</ele>
        <time>2021-08-19T13:55:35Z</time>
      </trkpt>
      <trkpt lat="44.79789" lon="2.59209">
        <ele>632.7</ele>
        <time>2021-08-19T13:55:37Z</time>
      </trkpt>
      <trkpt lat="44.79787" lon="2.59209">
        <ele>633.5</ele>
        <time>2021-08-19T13:55:39Z</time>
      </trkpt>
      <trkpt lat="44.79784" lon="2.5921">
        <ele>634</ele>
        <time>2021-08-19T13:55:41Z</time>
      </trkpt>
      <trkpt lat="44.79781" lon="2.59213">
        <ele>633.9</ele>
        <time>2021-08-19T13:55:43Z</time>
      </trkpt>
      <trkpt lat="44.79779" lon="2.59217">
        <ele>633.8</ele>
        <time>2021-08-19T13:55:45Z</time>
      </trkpt>
      <trkpt lat="44.79776" lon="2.5922">
        <ele>633.6</ele>
        <time>2021-08-19T13:55:47Z</time>
      </trkpt>
      <trkpt lat="44.79774" lon="2.59224">
        <ele>633.2</ele>
        <time>2021-08-19T13:55:49Z</time>
      </trkpt>
      <trkpt lat="44.79773" lon="2.59228">
        <ele>632.6</ele>
        <time>2021-08-19T13:55:51Z</time>
      </trkpt>
      <trkpt lat="44.79772" lon="2.59232">
        <ele>632</ele>
        <time>2021-08-19T13:55:53Z</time>
      </trkpt>
      <trkpt lat="44.7977" lon="2.59236">
        <ele>631.6</ele>
        <time>2021-08-19T13:55:55Z</time>
      </trkpt>
      <trkpt lat="44.79768" lon="2.59239">
        <ele>631.1</ele>
        <time>2021-08-19T13:55:57Z</time>
      </trkpt>
      <trkpt lat="44.79767" lon="2.59242">
        <ele>630.8</ele>
        <time>2021-08-19T13:55:59Z</time>
      </trkpt>
      <trkpt lat="44.79764" lon="2.59244">
        <ele>631.1</ele>
        <time>2021-08-19T13:56:01Z</time>
      </trkpt>
      <trkpt lat="44.79763" lon="2.59246">
        <ele>630.8</ele>
        <time>2021-08-19T13:56:03Z</time>
      </trkpt>
      <trkpt lat="44.79761" lon="2.59249">
        <ele>630.6</ele>
        <time>2021-08-19T13:56:05Z</time>
      </trkpt>
      <trkpt lat="44.79759" lon="2.59252">
        <ele>630.6</ele>
        <time>2021-08-19T13:56:07Z</time>
      </trkpt>
      <trkpt lat="44.79756" lon="2.59254">
        <ele>630.6</ele>
        <time>2021-08-19T13:56:09Z</time>
      </trkpt>
      <trkpt lat="44.79755" lon="2.59256">
        <ele>630.7</ele>
        <time>2021-08-19T13:56:11Z</time>
      </trkpt>
      <trkpt lat="44.79752" lon="2.59259">
        <ele>630.7</ele>
        <time>2021-08-19T13:56:13Z</time>
      </trkpt>
      <trkpt lat="44.79751" lon="2.59263">
        <ele>630.3</ele>
        <time>2021-08-19T13:56:15Z</time>
      </trkpt>
      <trkpt lat="44.79749" lon="2.59266">
        <ele>630.1</ele>
        <time>2021-08-19T13:56:17Z</time>
      </trkpt>
      <trkpt lat="44.79747" lon="2.59269">
        <ele>629.7</ele>
        <time>2021-08-19T13:56:19Z</time>
      </trkpt>
      <trkpt lat="44.79745" lon="2.59271">
        <ele>629.5</ele>
        <time>2021-08-19T13:56:21Z</time>
      </trkpt>
      <trkpt lat="44.79743" lon="2.59274">
        <ele>629.2</ele>
        <time>2021-08-19T13:56:23Z</time>
      </trkpt>
      <trkpt lat="44.79741" lon="2.59276">
        <ele>629</ele>
        <time>2021-08-19T13:56:25Z</time>
      </trkpt>
      <trkpt lat="44.79739" lon="2.59279">
        <ele>628.6</ele>
        <time>2021-08-19T13:56:27Z</time>
      </trkpt>
      <trkpt lat="44.79736" lon="2.59282">
        <ele>628.4</ele>
        <time>2021-08-19T13:56:29Z</time>
      </trkpt>
      <trkpt lat="44.79734" lon="2.59283">
        <ele>628.3</ele>
        <time>2021-08-19T13:56:31Z</time>
      </trkpt>
      <trkpt lat="44.79732" lon="2.59286">
        <ele>628</ele>
        <time>2021-08-19T13:56:33Z</time>
      </trkpt>
      <trkpt lat="44.7973" lon="2.59288">
        <ele>627.9</ele>
        <time>2021-08-19T13:56:35Z</time>
      </trkpt>
      <trkpt lat="44.79727" lon="2.5929">
        <ele>627.8</ele>
        <time>2021-08-19T13:56:37Z</time>
      </trkpt>
      <trkpt lat="44.79725" lon="2.59291">
        <ele>627.9</ele>
        <time>2021-08-19T13:56:39Z</time>
      </trkpt>
      <trkpt lat="44.79722" lon="2.59293">
        <ele>627.8</ele>
        <time>2021-08-19T13:56:41Z</time>
      </trkpt>
      <trkpt lat="44.7972" lon="2.59296">
        <ele>627.4</ele>
        <time>2021-08-19T13:56:43Z</time>
      </trkpt>
      <trkpt lat="44.79717" lon="2.59298">
        <ele>627.4</ele>
        <time>2021-08-19T13:56:45Z</time>
      </trkpt>
      <trkpt lat="44.79714" lon="2.593">
        <ele>627.3</ele>
        <time>2021-08-19T13:56:47Z</time>
      </trkpt>
      <trkpt lat="44.79711" lon="2.59301">
        <ele>627.3</ele>
        <time>2021-08-19T13:56:49Z</time>
      </trkpt>
      <trkpt lat="44.79708" lon="2.59302">
        <ele>627.4</ele>
        <time>2021-08-19T13:56:51Z</time>
      </trkpt>
      <trkpt lat="44.79706" lon="2.59305">
        <ele>627.2</ele>
        <time>2021-08-19T13:56:53Z</time>
      </trkpt>
      <trkpt lat="44.79703" lon="2.59306">
        <ele>627.3</ele>
        <time>2021-08-19T13:56:55Z</time>
      </trkpt>
      <trkpt lat="44.797" lon="2.59307">
        <ele>627.5</ele>
        <time>2021-08-19T13:56:57Z</time>
      </trkpt>
      <trkpt lat="44.79697" lon="2.5931">
        <ele>627.3</ele>
        <time>2021-08-19T13:56:59Z</time>
      </trkpt>
      <trkpt lat="44.79694" lon="2.59312">
        <ele>627.2</ele>
        <time>2021-08-19T13:57:01Z</time>
      </trkpt>
      <trkpt lat="44.79692" lon="2.59313">
        <ele>627.2</ele>
        <time>2021-08-19T13:57:03Z</time>
      </trkpt>
      <trkpt lat="44.79688" lon="2.59315">
        <ele>627.2</ele>
        <time>2021-08-19T13:57:05Z</time>
      </trkpt>
      <trkpt lat="44.79685" lon="2.59315">
        <ele>627.5</ele>
        <time>2021-08-19T13:57:07Z</time>
      </trkpt>
      <trkpt lat="44.79682" lon="2.59315">
        <ele>627.9</ele>
        <time>2021-08-19T13:57:09Z</time>
      </trkpt>
      <trkpt lat="44.79679" lon="2.59315">
        <ele>628.3</ele>
        <time>2021-08-19T13:57:11Z</time>
      </trkpt>
      <trkpt lat="44.79675" lon="2.59315">
        <ele>628.6</ele>
        <time>2021-08-19T13:57:13Z</time>
      </trkpt>
      <trkpt lat="44.79672" lon="2.59315">
        <ele>628.9</ele>
        <time>2021-08-19T13:57:15Z</time>
      </trkpt>
      <trkpt lat="44.79669" lon="2.59314">
        <ele>629.4</ele>
        <time>2021-08-19T13:57:17Z</time>
      </trkpt>
      <trkpt lat="44.79666" lon="2.59313">
        <ele>629.7</ele>
        <time>2021-08-19T13:57:19Z</time>
      </trkpt>
      <trkpt lat="44.79663" lon="2.59312">
        <ele>629.2</ele>
        <time>2021-08-19T13:57:21Z</time>
      </trkpt>
      <trkpt lat="44.7966" lon="2.5931">
        <ele>628.9</ele>
        <time>2021-08-19T13:57:23Z</time>
      </trkpt>
      <trkpt lat="44.79658" lon="2.59307">
        <ele>628.7</ele>
        <time>2021-08-19T13:57:25Z</time>
      </trkpt>
      <trkpt lat="44.79655" lon="2.59305">
        <ele>628.6</ele>
        <time>2021-08-19T13:57:27Z</time>
      </trkpt>
      <trkpt lat="44.79652" lon="2.59303">
        <ele>628.3</ele>
        <time>2021-08-19T13:57:29Z</time>
      </trkpt>
      <trkpt lat="44.7965" lon="2.59299">
        <ele>628.6</ele>
        <time>2021-08-19T13:57:31Z</time>
      </trkpt>
      <trkpt lat="44.79649" lon="2.59295">
        <ele>629.1</ele>
        <time>2021-08-19T13:57:33Z</time>
      </trkpt>
      <trkpt lat="44.79646" lon="2.59292">
        <ele>629</ele>
        <time>2021-08-19T13:57:35Z</time>
      </trkpt>
      <trkpt lat="44.79645" lon="2.59288">
        <ele>629.5</ele>
        <time>2021-08-19T13:57:37Z</time>
      </trkpt>
      <trkpt lat="44.79644" lon="2.59284">
        <ele>630.1</ele>
        <time>2021-08-19T13:57:39Z</time>
      </trkpt>
      <trkpt lat="44.79643" lon="2.59279">
        <ele>631.1</ele>
        <time>2021-08-19T13:57:41Z</time>
      </trkpt>
      <trkpt lat="44.79643" lon="2.59275">
        <ele>632</ele>
        <time>2021-08-19T13:57:43Z</time>
      </trkpt>
      <trkpt lat="44.79642" lon="2.5927">
        <ele>632.7</ele>
        <time>2021-08-19T13:57:45Z</time>
      </trkpt>
      <trkpt lat="44.79641" lon="2.59266">
        <ele>633.3</ele>
        <time>2021-08-19T13:57:47Z</time>
      </trkpt>
      <trkpt lat="44.79641" lon="2.59262">
        <ele>634.2</ele>
        <time>2021-08-19T13:57:49Z</time>
      </trkpt>
      <trkpt lat="44.79641" lon="2.59258">
        <ele>634.9</ele>
        <time>2021-08-19T13:57:51Z</time>
      </trkpt>
      <trkpt lat="44.79641" lon="2.59254">
        <ele>635.9</ele>
        <time>2021-08-19T13:57:53Z</time>
      </trkpt>
      <trkpt lat="44.79641" lon="2.59251">
        <ele>636.6</ele>
        <time>2021-08-19T13:57:55Z</time>
      </trkpt>
      <trkpt lat="44.79641" lon="2.59247">
        <ele>637.4</ele>
        <time>2021-08-19T13:57:57Z</time>
      </trkpt>
      <trkpt lat="44.79642" lon="2.59243">
        <ele>638.4</ele>
        <time>2021-08-19T13:57:59Z</time>
      </trkpt>
      <trkpt lat="44.79642" lon="2.59239">
        <ele>639.2</ele>
        <time>2021-08-19T13:58:01Z</time>
      </trkpt>
      <trkpt lat="44.79642" lon="2.59235">
        <ele>640</ele>
        <time>2021-08-19T13:58:03Z</time>
      </trkpt>
      <trkpt lat="44.79642" lon="2.59231">
        <ele>640.9</ele>
        <time>2021-08-19T13:58:05Z</time>
      </trkpt>
      <trkpt lat="44.79643" lon="2.59227">
        <ele>641.8</ele>
        <time>2021-08-19T13:58:07Z</time>
      </trkpt>
      <trkpt lat="44.79644" lon="2.59223">
        <ele>642.7</ele>
        <time>2021-08-19T13:58:09Z</time>
      </trkpt>
      <trkpt lat="44.79645" lon="2.59218">
        <ele>643.8</ele>
        <time>2021-08-19T13:58:11Z</time>
      </trkpt>
      <trkpt lat="44.79645" lon="2.59214">
        <ele>644.7</ele>
        <time>2021-08-19T13:58:13Z</time>
      </trkpt>
      <trkpt lat="44.79645" lon="2.5921">
        <ele>645.6</ele>
        <time>2021-08-19T13:58:15Z</time>
      </trkpt>
      <trkpt lat="44.79646" lon="2.59206">
        <ele>646.4</ele>
        <time>2021-08-19T13:58:17Z</time>
      </trkpt>
      <trkpt lat="44.79647" lon="2.59203">
        <ele>647.3</ele>
        <time>2021-08-19T13:58:19Z</time>
      </trkpt>
      <trkpt lat="44.79647" lon="2.59199">
        <ele>648.1</ele>
        <time>2021-08-19T13:58:21Z</time>
      </trkpt>
      <trkpt lat="44.79648" lon="2.59195">
        <ele>649</ele>
        <time>2021-08-19T13:58:23Z</time>
      </trkpt>
      <trkpt lat="44.79648" lon="2.59191">
        <ele>649.8</ele>
        <time>2021-08-19T13:58:25Z</time>
      </trkpt>
      <trkpt lat="44.79648" lon="2.59188">
        <ele>650.6</ele>
        <time>2021-08-19T13:58:27Z</time>
      </trkpt>
      <trkpt lat="44.79648" lon="2.59185">
        <ele>651.2</ele>
        <time>2021-08-19T13:58:29Z</time>
      </trkpt>
      <trkpt lat="44.79649" lon="2.59181">
        <ele>652</ele>
        <time>2021-08-19T13:58:31Z</time>
      </trkpt>
      <trkpt lat="44.79649" lon="2.59177">
        <ele>652.9</ele>
        <time>2021-08-19T13:58:33Z</time>
      </trkpt>
      <trkpt lat="44.79649" lon="2.59173">
        <ele>653.5</ele>
        <time>2021-08-19T13:58:35Z</time>
      </trkpt>
      <trkpt lat="44.79648" lon="2.5917">
        <ele>654.1</ele>
        <time>2021-08-19T13:58:37Z</time>
      </trkpt>
      <trkpt lat="44.79648" lon="2.59165">
        <ele>655</ele>
        <time>2021-08-19T13:58:39Z</time>
      </trkpt>
      <trkpt lat="44.79648" lon="2.59161">
        <ele>655.8</ele>
        <time>2021-08-19T13:58:41Z</time>
      </trkpt>
      <trkpt lat="44.79648" lon="2.59157">
        <ele>656.5</ele>
        <time>2021-08-19T13:58:43Z</time>
      </trkpt>
      <trkpt lat="44.79648" lon="2.59154">
        <ele>657.1</ele>
        <time>2021-08-19T13:58:45Z</time>
      </trkpt>
      <trkpt lat="44.79648" lon="2.5915">
        <ele>657.8</ele>
        <time>2021-08-19T13:58:47Z</time>
      </trkpt>
      <trkpt lat="44.79647" lon="2.59149">
        <ele>657.9</ele>
        <time>2021-08-19T13:58:49Z</time>
      </trkpt>
      <trkpt lat="44.79646" lon="2.59148">
        <ele>658</ele>
        <time>2021-08-19T13:58:51Z</time>
      </trkpt>
      <trkpt lat="44.79646" lon="2.59147">
        <ele>658.1</ele>
        <time>2021-08-19T13:58:53Z</time>
      </trkpt>
      <trkpt lat="44.79645" lon="2.59147">
        <ele>658.1</ele>
        <time>2021-08-19T13:58:55Z</time>
      </trkpt>
      <trkpt lat="44.79635" lon="2.59143">
        <ele>657.2</ele>
        <time>2021-08-19T14:02:31Z</time>
      </trkpt>
      <trkpt lat="44.79633" lon="2.5914">
        <ele>657.3</ele>
        <time>2021-08-19T14:02:33Z</time>
      </trkpt>
      <trkpt lat="44.7963" lon="2.59138">
        <ele>657.4</ele>
        <time>2021-08-19T14:02:35Z</time>
      </trkpt>
      <trkpt lat="44.79629" lon="2.59134">
        <ele>657.8</ele>
        <time>2021-08-19T14:02:37Z</time>
      </trkpt>
      <trkpt lat="44.79626" lon="2.59133">
        <ele>657.8</ele>
        <time>2021-08-19T14:02:39Z</time>
      </trkpt>
      <trkpt lat="44.79624" lon="2.5913">
        <ele>658.1</ele>
        <time>2021-08-19T14:02:41Z</time>
      </trkpt>
      <trkpt lat="44.79622" lon="2.59128">
        <ele>658.2</ele>
        <time>2021-08-19T14:02:43Z</time>
      </trkpt>
      <trkpt lat="44.7962" lon="2.59125">
        <ele>658.4</ele>
        <time>2021-08-19T14:02:45Z</time>
      </trkpt>
      <trkpt lat="44.79618" lon="2.59122">
        <ele>658.9</ele>
        <time>2021-08-19T14:02:47Z</time>
      </trkpt>
      <trkpt lat="44.79615" lon="2.5912">
        <ele>658.9</ele>
        <time>2021-08-19T14:02:49Z</time>
      </trkpt>
      <trkpt lat="44.79613" lon="2.59116">
        <ele>659.3</ele>
        <time>2021-08-19T14:02:51Z</time>
      </trkpt>
      <trkpt lat="44.7961" lon="2.59113">
        <ele>659.7</ele>
        <time>2021-08-19T14:02:53Z</time>
      </trkpt>
      <trkpt lat="44.79607" lon="2.59111">
        <ele>659.8</ele>
        <time>2021-08-19T14:02:55Z</time>
      </trkpt>
      <trkpt lat="44.79605" lon="2.59108">
        <ele>660</ele>
        <time>2021-08-19T14:02:57Z</time>
      </trkpt>
      <trkpt lat="44.79603" lon="2.59103">
        <ele>661</ele>
        <time>2021-08-19T14:02:59Z</time>
      </trkpt>
      <trkpt lat="44.79601" lon="2.591">
        <ele>661.3</ele>
        <time>2021-08-19T14:03:01Z</time>
      </trkpt>
      <trkpt lat="44.79597" lon="2.59098">
        <ele>661.3</ele>
        <time>2021-08-19T14:03:03Z</time>
      </trkpt>
      <trkpt lat="44.79594" lon="2.59095">
        <ele>661.5</ele>
        <time>2021-08-19T14:03:05Z</time>
      </trkpt>
      <trkpt lat="44.79591" lon="2.59092">
        <ele>661.9</ele>
        <time>2021-08-19T14:03:07Z</time>
      </trkpt>
      <trkpt lat="44.79589" lon="2.5909">
        <ele>662.2</ele>
        <time>2021-08-19T14:03:09Z</time>
      </trkpt>
      <trkpt lat="44.79587" lon="2.59087">
        <ele>662.6</ele>
        <time>2021-08-19T14:03:11Z</time>
      </trkpt>
      <trkpt lat="44.79584" lon="2.59085">
        <ele>662.8</ele>
        <time>2021-08-19T14:03:13Z</time>
      </trkpt>
      <trkpt lat="44.79582" lon="2.59081">
        <ele>663.2</ele>
        <time>2021-08-19T14:03:15Z</time>
      </trkpt>
      <trkpt lat="44.79579" lon="2.59078">
        <ele>663.4</ele>
        <time>2021-08-19T14:03:17Z</time>
      </trkpt>
      <trkpt lat="44.79577" lon="2.59075">
        <ele>663.6</ele>
        <time>2021-08-19T14:03:19Z</time>
      </trkpt>
      <trkpt lat="44.79574" lon="2.59073">
        <ele>663.5</ele>
        <time>2021-08-19T14:03:21Z</time>
      </trkpt>
      <trkpt lat="44.79572" lon="2.59071">
        <ele>663.8</ele>
        <time>2021-08-19T14:03:23Z</time>
      </trkpt>
      <trkpt lat="44.7957" lon="2.59068">
        <ele>663.8</ele>
        <time>2021-08-19T14:03:25Z</time>
      </trkpt>
      <trkpt lat="44.79568" lon="2.59065">
        <ele>664.1</ele>
        <time>2021-08-19T14:03:27Z</time>
      </trkpt>
      <trkpt lat="44.79566" lon="2.59062">
        <ele>664.4</ele>
        <time>2021-08-19T14:03:29Z</time>
      </trkpt>
      <trkpt lat="44.79563" lon="2.59059">
        <ele>664.4</ele>
        <time>2021-08-19T14:03:31Z</time>
      </trkpt>
      <trkpt lat="44.79561" lon="2.59056">
        <ele>664.8</ele>
        <time>2021-08-19T14:03:33Z</time>
      </trkpt>
      <trkpt lat="44.7956" lon="2.59053">
        <ele>665.2</ele>
        <time>2021-08-19T14:03:35Z</time>
      </trkpt>
      <trkpt lat="44.79558" lon="2.59049">
        <ele>665.4</ele>
        <time>2021-08-19T14:03:37Z</time>
      </trkpt>
      <trkpt lat="44.79556" lon="2.59046">
        <ele>665.6</ele>
        <time>2021-08-19T14:03:39Z</time>
      </trkpt>
      <trkpt lat="44.79554" lon="2.59043">
        <ele>665.8</ele>
        <time>2021-08-19T14:03:41Z</time>
      </trkpt>
      <trkpt lat="44.79552" lon="2.5904">
        <ele>666</ele>
        <time>2021-08-19T14:03:43Z</time>
      </trkpt>
      <trkpt lat="44.7955" lon="2.59036">
        <ele>666.3</ele>
        <time>2021-08-19T14:03:45Z</time>
      </trkpt>
      <trkpt lat="44.79548" lon="2.59033">
        <ele>666.4</ele>
        <time>2021-08-19T14:03:47Z</time>
      </trkpt>
      <trkpt lat="44.79546" lon="2.5903">
        <ele>666.5</ele>
        <time>2021-08-19T14:03:49Z</time>
      </trkpt>
      <trkpt lat="44.79543" lon="2.59027">
        <ele>666.6</ele>
        <time>2021-08-19T14:03:51Z</time>
      </trkpt>
      <trkpt lat="44.79541" lon="2.59025">
        <ele>666.6</ele>
        <time>2021-08-19T14:03:53Z</time>
      </trkpt>
      <trkpt lat="44.79539" lon="2.59021">
        <ele>666.8</ele>
        <time>2021-08-19T14:03:55Z</time>
      </trkpt>
      <trkpt lat="44.79538" lon="2.59017">
        <ele>667.2</ele>
        <time>2021-08-19T14:03:57Z</time>
      </trkpt>
      <trkpt lat="44.79536" lon="2.59013">
        <ele>667.6</ele>
        <time>2021-08-19T14:03:59Z</time>
      </trkpt>
      <trkpt lat="44.79533" lon="2.5901">
        <ele>667.6</ele>
        <time>2021-08-19T14:04:01Z</time>
      </trkpt>
      <trkpt lat="44.79531" lon="2.59007">
        <ele>667.5</ele>
        <time>2021-08-19T14:04:03Z</time>
      </trkpt>
      <trkpt lat="44.79529" lon="2.59004">
        <ele>667.7</ele>
        <time>2021-08-19T14:04:05Z</time>
      </trkpt>
      <trkpt lat="44.79527" lon="2.59">
        <ele>667.9</ele>
        <time>2021-08-19T14:04:07Z</time>
      </trkpt>
      <trkpt lat="44.79525" lon="2.58998">
        <ele>667.6</ele>
        <time>2021-08-19T14:04:09Z</time>
      </trkpt>
      <trkpt lat="44.79523" lon="2.58994">
        <ele>667.8</ele>
        <time>2021-08-19T14:04:11Z</time>
      </trkpt>
      <trkpt lat="44.79521" lon="2.5899">
        <ele>667.8</ele>
        <time>2021-08-19T14:04:13Z</time>
      </trkpt>
      <trkpt lat="44.79519" lon="2.58986">
        <ele>668.2</ele>
        <time>2021-08-19T14:04:15Z</time>
      </trkpt>
      <trkpt lat="44.79518" lon="2.58982">
        <ele>668.4</ele>
        <time>2021-08-19T14:04:17Z</time>
      </trkpt>
      <trkpt lat="44.79516" lon="2.58978">
        <ele>668.5</ele>
        <time>2021-08-19T14:04:19Z</time>
      </trkpt>
      <trkpt lat="44.79513" lon="2.58975">
        <ele>668.4</ele>
        <time>2021-08-19T14:04:21Z</time>
      </trkpt>
      <trkpt lat="44.79512" lon="2.58971">
        <ele>668.6</ele>
        <time>2021-08-19T14:04:23Z</time>
      </trkpt>
      <trkpt lat="44.79511" lon="2.58967">
        <ele>669.1</ele>
        <time>2021-08-19T14:04:25Z</time>
      </trkpt>
      <trkpt lat="44.79509" lon="2.58963">
        <ele>669.3</ele>
        <time>2021-08-19T14:04:27Z</time>
      </trkpt>
      <trkpt lat="44.79508" lon="2.58959">
        <ele>669.5</ele>
        <time>2021-08-19T14:04:29Z</time>
      </trkpt>
      <trkpt lat="44.79507" lon="2.58955">
        <ele>669.9</ele>
        <time>2021-08-19T14:04:31Z</time>
      </trkpt>
      <trkpt lat="44.79505" lon="2.58951">
        <ele>670.2</ele>
        <time>2021-08-19T14:04:33Z</time>
      </trkpt>
      <trkpt lat="44.79505" lon="2.58947">
        <ele>670.8</ele>
        <time>2021-08-19T14:04:35Z</time>
      </trkpt>
      <trkpt lat="44.79504" lon="2.58943">
        <ele>671.1</ele>
        <time>2021-08-19T14:04:37Z</time>
      </trkpt>
      <trkpt lat="44.79503" lon="2.58939">
        <ele>671.4</ele>
        <time>2021-08-19T14:04:39Z</time>
      </trkpt>
      <trkpt lat="44.79502" lon="2.58934">
        <ele>671.9</ele>
        <time>2021-08-19T14:04:41Z</time>
      </trkpt>
      <trkpt lat="44.79501" lon="2.5893">
        <ele>672.3</ele>
        <time>2021-08-19T14:04:43Z</time>
      </trkpt>
      <trkpt lat="44.795" lon="2.58926">
        <ele>672.7</ele>
        <time>2021-08-19T14:04:45Z</time>
      </trkpt>
      <trkpt lat="44.795" lon="2.58922">
        <ele>673.2</ele>
        <time>2021-08-19T14:04:47Z</time>
      </trkpt>
      <trkpt lat="44.79499" lon="2.58918">
        <ele>673.6</ele>
        <time>2021-08-19T14:04:49Z</time>
      </trkpt>
      <trkpt lat="44.79499" lon="2.58914">
        <ele>673.7</ele>
        <time>2021-08-19T14:04:51Z</time>
      </trkpt>
      <trkpt lat="44.79498" lon="2.5891">
        <ele>673.7</ele>
        <time>2021-08-19T14:04:53Z</time>
      </trkpt>
      <trkpt lat="44.79497" lon="2.58905">
        <ele>673.9</ele>
        <time>2021-08-19T14:04:55Z</time>
      </trkpt>
      <trkpt lat="44.79496" lon="2.58901">
        <ele>673.9</ele>
        <time>2021-08-19T14:04:57Z</time>
      </trkpt>
      <trkpt lat="44.79496" lon="2.58897">
        <ele>674</ele>
        <time>2021-08-19T14:04:59Z</time>
      </trkpt>
      <trkpt lat="44.79495" lon="2.58893">
        <ele>674.2</ele>
        <time>2021-08-19T14:05:01Z</time>
      </trkpt>
      <trkpt lat="44.79495" lon="2.58889">
        <ele>674.3</ele>
        <time>2021-08-19T14:05:03Z</time>
      </trkpt>
      <trkpt lat="44.79494" lon="2.58884">
        <ele>674.3</ele>
        <time>2021-08-19T14:05:05Z</time>
      </trkpt>
      <trkpt lat="44.79494" lon="2.5888">
        <ele>674.5</ele>
        <time>2021-08-19T14:05:07Z</time>
      </trkpt>
      <trkpt lat="44.79494" lon="2.58875">
        <ele>674.9</ele>
        <time>2021-08-19T14:05:09Z</time>
      </trkpt>
      <trkpt lat="44.79493" lon="2.58871">
        <ele>674.9</ele>
        <time>2021-08-19T14:05:11Z</time>
      </trkpt>
      <trkpt lat="44.79493" lon="2.58866">
        <ele>675.1</ele>
        <time>2021-08-19T14:05:13Z</time>
      </trkpt>
      <trkpt lat="44.79492" lon="2.58862">
        <ele>675.3</ele>
        <time>2021-08-19T14:05:15Z</time>
      </trkpt>
      <trkpt lat="44.79492" lon="2.58858">
        <ele>675.5</ele>
        <time>2021-08-19T14:05:17Z</time>
      </trkpt>
      <trkpt lat="44.79492" lon="2.58853">
        <ele>675.6</ele>
        <time>2021-08-19T14:05:19Z</time>
      </trkpt>
      <trkpt lat="44.79492" lon="2.58849">
        <ele>675.9</ele>
        <time>2021-08-19T14:05:21Z</time>
      </trkpt>
      <trkpt lat="44.79491" lon="2.58845">
        <ele>676</ele>
        <time>2021-08-19T14:05:23Z</time>
      </trkpt>
      <trkpt lat="44.7949" lon="2.5884">
        <ele>676.1</ele>
        <time>2021-08-19T14:05:25Z</time>
      </trkpt>
      <trkpt lat="44.7949" lon="2.58836">
        <ele>676.3</ele>
        <time>2021-08-19T14:05:27Z</time>
      </trkpt>
      <trkpt lat="44.7949" lon="2.58832">
        <ele>676.6</ele>
        <time>2021-08-19T14:05:29Z</time>
      </trkpt>
      <trkpt lat="44.7949" lon="2.58827">
        <ele>676.9</ele>
        <time>2021-08-19T14:05:31Z</time>
      </trkpt>
      <trkpt lat="44.7949" lon="2.58823">
        <ele>677.2</ele>
        <time>2021-08-19T14:05:33Z</time>
      </trkpt>
      <trkpt lat="44.79489" lon="2.58819">
        <ele>677.3</ele>
        <time>2021-08-19T14:05:35Z</time>
      </trkpt>
      <trkpt lat="44.7949" lon="2.58815">
        <ele>677.6</ele>
        <time>2021-08-19T14:05:37Z</time>
      </trkpt>
      <trkpt lat="44.7949" lon="2.58811">
        <ele>677.8</ele>
        <time>2021-08-19T14:05:39Z</time>
      </trkpt>
      <trkpt lat="44.7949" lon="2.58807">
        <ele>678.1</ele>
        <time>2021-08-19T14:05:41Z</time>
      </trkpt>
      <trkpt lat="44.79491" lon="2.58803">
        <ele>678.5</ele>
        <time>2021-08-19T14:05:43Z</time>
      </trkpt>
      <trkpt lat="44.79491" lon="2.58798">
        <ele>678.8</ele>
        <time>2021-08-19T14:05:45Z</time>
      </trkpt>
      <trkpt lat="44.79491" lon="2.58794">
        <ele>679</ele>
        <time>2021-08-19T14:05:47Z</time>
      </trkpt>
      <trkpt lat="44.79491" lon="2.58791">
        <ele>679.3</ele>
        <time>2021-08-19T14:05:49Z</time>
      </trkpt>
      <trkpt lat="44.79492" lon="2.58787">
        <ele>679.6</ele>
        <time>2021-08-19T14:05:51Z</time>
      </trkpt>
      <trkpt lat="44.79493" lon="2.58783">
        <ele>680.1</ele>
        <time>2021-08-19T14:05:53Z</time>
      </trkpt>
      <trkpt lat="44.79493" lon="2.58779">
        <ele>680.3</ele>
        <time>2021-08-19T14:05:55Z</time>
      </trkpt>
      <trkpt lat="44.79494" lon="2.58775">
        <ele>680.7</ele>
        <time>2021-08-19T14:05:57Z</time>
      </trkpt>
      <trkpt lat="44.79495" lon="2.58771">
        <ele>681</ele>
        <time>2021-08-19T14:05:59Z</time>
      </trkpt>
      <trkpt lat="44.79496" lon="2.58767">
        <ele>681.4</ele>
        <time>2021-08-19T14:06:01Z</time>
      </trkpt>
      <trkpt lat="44.79497" lon="2.58763">
        <ele>681.8</ele>
        <time>2021-08-19T14:06:03Z</time>
      </trkpt>
      <trkpt lat="44.79498" lon="2.58759">
        <ele>682.1</ele>
        <time>2021-08-19T14:06:05Z</time>
      </trkpt>
      <trkpt lat="44.79498" lon="2.58755">
        <ele>682.5</ele>
        <time>2021-08-19T14:06:07Z</time>
      </trkpt>
      <trkpt lat="44.79499" lon="2.58751">
        <ele>682.8</ele>
        <time>2021-08-19T14:06:09Z</time>
      </trkpt>
      <trkpt lat="44.79499" lon="2.58747">
        <ele>683</ele>
        <time>2021-08-19T14:06:11Z</time>
      </trkpt>
      <trkpt lat="44.79499" lon="2.58743">
        <ele>683.2</ele>
        <time>2021-08-19T14:06:13Z</time>
      </trkpt>
      <trkpt lat="44.79499" lon="2.58739">
        <ele>683.3</ele>
        <time>2021-08-19T14:06:15Z</time>
      </trkpt>
      <trkpt lat="44.79499" lon="2.58735">
        <ele>683.5</ele>
        <time>2021-08-19T14:06:17Z</time>
      </trkpt>
      <trkpt lat="44.795" lon="2.58731">
        <ele>683.7</ele>
        <time>2021-08-19T14:06:19Z</time>
      </trkpt>
      <trkpt lat="44.79501" lon="2.58727">
        <ele>683.9</ele>
        <time>2021-08-19T14:06:21Z</time>
      </trkpt>
      <trkpt lat="44.79501" lon="2.58723">
        <ele>684.2</ele>
        <time>2021-08-19T14:06:23Z</time>
      </trkpt>
      <trkpt lat="44.79502" lon="2.5872">
        <ele>684.4</ele>
        <time>2021-08-19T14:06:25Z</time>
      </trkpt>
      <trkpt lat="44.79502" lon="2.58716">
        <ele>684.6</ele>
        <time>2021-08-19T14:06:27Z</time>
      </trkpt>
      <trkpt lat="44.79503" lon="2.58712">
        <ele>684.8</ele>
        <time>2021-08-19T14:06:29Z</time>
      </trkpt>
      <trkpt lat="44.79502" lon="2.58708">
        <ele>684.9</ele>
        <time>2021-08-19T14:06:31Z</time>
      </trkpt>
      <trkpt lat="44.79502" lon="2.58704">
        <ele>685</ele>
        <time>2021-08-19T14:06:33Z</time>
      </trkpt>
      <trkpt lat="44.79503" lon="2.587">
        <ele>685.2</ele>
        <time>2021-08-19T14:06:35Z</time>
      </trkpt>
      <trkpt lat="44.79503" lon="2.58695">
        <ele>685.5</ele>
        <time>2021-08-19T14:06:37Z</time>
      </trkpt>
      <trkpt lat="44.79503" lon="2.5869">
        <ele>685.6</ele>
        <time>2021-08-19T14:06:39Z</time>
      </trkpt>
      <trkpt lat="44.79503" lon="2.58685">
        <ele>685.8</ele>
        <time>2021-08-19T14:06:41Z</time>
      </trkpt>
      <trkpt lat="44.79504" lon="2.5868">
        <ele>686</ele>
        <time>2021-08-19T14:06:43Z</time>
      </trkpt>
      <trkpt lat="44.79504" lon="2.58675">
        <ele>686.1</ele>
        <time>2021-08-19T14:06:45Z</time>
      </trkpt>
      <trkpt lat="44.79504" lon="2.5867">
        <ele>686.4</ele>
        <time>2021-08-19T14:06:47Z</time>
      </trkpt>
      <trkpt lat="44.79504" lon="2.58665">
        <ele>686.4</ele>
        <time>2021-08-19T14:06:49Z</time>
      </trkpt>
      <trkpt lat="44.79504" lon="2.5866">
        <ele>686.5</ele>
        <time>2021-08-19T14:06:51Z</time>
      </trkpt>
      <trkpt lat="44.79505" lon="2.58656">
        <ele>686.6</ele>
        <time>2021-08-19T14:06:53Z</time>
      </trkpt>
      <trkpt lat="44.79505" lon="2.58651">
        <ele>686.8</ele>
        <time>2021-08-19T14:06:55Z</time>
      </trkpt>
      <trkpt lat="44.79507" lon="2.58647">
        <ele>687</ele>
        <time>2021-08-19T14:06:57Z</time>
      </trkpt>
      <trkpt lat="44.79509" lon="2.58643">
        <ele>687.2</ele>
        <time>2021-08-19T14:06:59Z</time>
      </trkpt>
      <trkpt lat="44.79511" lon="2.5864">
        <ele>687.4</ele>
        <time>2021-08-19T14:07:01Z</time>
      </trkpt>
      <trkpt lat="44.79514" lon="2.58637">
        <ele>687.7</ele>
        <time>2021-08-19T14:07:03Z</time>
      </trkpt>
      <trkpt lat="44.79516" lon="2.58634">
        <ele>687.9</ele>
        <time>2021-08-19T14:07:05Z</time>
      </trkpt>
      <trkpt lat="44.79519" lon="2.58631">
        <ele>688.1</ele>
        <time>2021-08-19T14:07:07Z</time>
      </trkpt>
      <trkpt lat="44.79522" lon="2.58629">
        <ele>688.3</ele>
        <time>2021-08-19T14:07:09Z</time>
      </trkpt>
      <trkpt lat="44.79525" lon="2.58627">
        <ele>688.6</ele>
        <time>2021-08-19T14:07:11Z</time>
      </trkpt>
      <trkpt lat="44.79528" lon="2.58625">
        <ele>688.8</ele>
        <time>2021-08-19T14:07:13Z</time>
      </trkpt>
      <trkpt lat="44.79531" lon="2.58622">
        <ele>689</ele>
        <time>2021-08-19T14:07:15Z</time>
      </trkpt>
      <trkpt lat="44.79534" lon="2.5862">
        <ele>689.3</ele>
        <time>2021-08-19T14:07:17Z</time>
      </trkpt>
      <trkpt lat="44.79537" lon="2.58617">
        <ele>689.4</ele>
        <time>2021-08-19T14:07:19Z</time>
      </trkpt>
      <trkpt lat="44.7954" lon="2.58614">
        <ele>689.6</ele>
        <time>2021-08-19T14:07:21Z</time>
      </trkpt>
      <trkpt lat="44.79543" lon="2.58612">
        <ele>689.8</ele>
        <time>2021-08-19T14:07:23Z</time>
      </trkpt>
      <trkpt lat="44.79546" lon="2.5861">
        <ele>690</ele>
        <time>2021-08-19T14:07:25Z</time>
      </trkpt>
      <trkpt lat="44.79549" lon="2.58608">
        <ele>690.1</ele>
        <time>2021-08-19T14:07:27Z</time>
      </trkpt>
      <trkpt lat="44.79552" lon="2.58606">
        <ele>690.2</ele>
        <time>2021-08-19T14:07:29Z</time>
      </trkpt>
      <trkpt lat="44.79555" lon="2.58604">
        <ele>690.4</ele>
        <time>2021-08-19T14:07:31Z</time>
      </trkpt>
      <trkpt lat="44.79558" lon="2.58604">
        <ele>690.6</ele>
        <time>2021-08-19T14:07:33Z</time>
      </trkpt>
      <trkpt lat="44.79561" lon="2.58602">
        <ele>690.7</ele>
        <time>2021-08-19T14:07:35Z</time>
      </trkpt>
      <trkpt lat="44.79565" lon="2.58602">
        <ele>690.9</ele>
        <time>2021-08-19T14:07:37Z</time>
      </trkpt>
      <trkpt lat="44.79568" lon="2.58602">
        <ele>691.2</ele>
        <time>2021-08-19T14:07:39Z</time>
      </trkpt>
      <trkpt lat="44.79571" lon="2.58605">
        <ele>691.5</ele>
        <time>2021-08-19T14:07:41Z</time>
      </trkpt>
      <trkpt lat="44.79574" lon="2.58608">
        <ele>691.8</ele>
        <time>2021-08-19T14:07:43Z</time>
      </trkpt>
      <trkpt lat="44.79577" lon="2.5861">
        <ele>692.2</ele>
        <time>2021-08-19T14:07:45Z</time>
      </trkpt>
      <trkpt lat="44.7958" lon="2.58613">
        <ele>692.5</ele>
        <time>2021-08-19T14:07:47Z</time>
      </trkpt>
      <trkpt lat="44.79583" lon="2.58615">
        <ele>692.9</ele>
        <time>2021-08-19T14:07:49Z</time>
      </trkpt>
      <trkpt lat="44.79586" lon="2.58618">
        <ele>693.3</ele>
        <time>2021-08-19T14:07:51Z</time>
      </trkpt>
      <trkpt lat="44.79589" lon="2.5862">
        <ele>693.6</ele>
        <time>2021-08-19T14:07:53Z</time>
      </trkpt>
      <trkpt lat="44.79591" lon="2.58622">
        <ele>693.9</ele>
        <time>2021-08-19T14:07:55Z</time>
      </trkpt>
      <trkpt lat="44.79593" lon="2.58624">
        <ele>694.2</ele>
        <time>2021-08-19T14:07:57Z</time>
      </trkpt>
      <trkpt lat="44.79596" lon="2.58625">
        <ele>694.5</ele>
        <time>2021-08-19T14:07:59Z</time>
      </trkpt>
      <trkpt lat="44.79598" lon="2.58627">
        <ele>694.8</ele>
        <time>2021-08-19T14:08:01Z</time>
      </trkpt>
      <trkpt lat="44.79601" lon="2.58626">
        <ele>694.9</ele>
        <time>2021-08-19T14:08:03Z</time>
      </trkpt>
      <trkpt lat="44.79602" lon="2.58625">
        <ele>694.9</ele>
        <time>2021-08-19T14:08:05Z</time>
      </trkpt>
      <trkpt lat="44.79602" lon="2.58625">
        <ele>695</ele>
        <time>2021-08-19T14:08:07Z</time>
      </trkpt>
      <trkpt lat="44.79602" lon="2.58626">
        <ele>695</ele>
        <time>2021-08-19T14:08:09Z</time>
      </trkpt>
      <trkpt lat="44.79601" lon="2.58626">
        <ele>695</ele>
        <time>2021-08-19T14:08:11Z</time>
      </trkpt>
      <trkpt lat="44.79602" lon="2.58626">
        <ele>695.1</ele>
        <time>2021-08-19T14:08:13Z</time>
      </trkpt>
      <trkpt lat="44.79633" lon="2.58629">
        <ele>697.7</ele>
        <time>2021-08-19T14:15:23Z</time>
      </trkpt>
      <trkpt lat="44.79635" lon="2.5863">
        <ele>697.9</ele>
        <time>2021-08-19T14:15:25Z</time>
      </trkpt>
      <trkpt lat="44.79638" lon="2.5863">
        <ele>698.1</ele>
        <time>2021-08-19T14:15:27Z</time>
      </trkpt>
      <trkpt lat="44.79641" lon="2.58629">
        <ele>698.3</ele>
        <time>2021-08-19T14:15:29Z</time>
      </trkpt>
      <trkpt lat="44.79644" lon="2.58629">
        <ele>698.5</ele>
        <time>2021-08-19T14:15:31Z</time>
      </trkpt>
      <trkpt lat="44.79646" lon="2.58628">
        <ele>698.6</ele>
        <time>2021-08-19T14:15:33Z</time>
      </trkpt>
      <trkpt lat="44.79648" lon="2.58628">
        <ele>698.8</ele>
        <time>2021-08-19T14:15:35Z</time>
      </trkpt>
      <trkpt lat="44.79651" lon="2.58628">
        <ele>699</ele>
        <time>2021-08-19T14:15:37Z</time>
      </trkpt>
      <trkpt lat="44.79653" lon="2.58626">
        <ele>699</ele>
        <time>2021-08-19T14:15:39Z</time>
      </trkpt>
      <trkpt lat="44.79656" lon="2.58625">
        <ele>699.2</ele>
        <time>2021-08-19T14:15:41Z</time>
      </trkpt>
      <trkpt lat="44.79658" lon="2.58625">
        <ele>699.3</ele>
        <time>2021-08-19T14:15:43Z</time>
      </trkpt>
      <trkpt lat="44.7966" lon="2.58623">
        <ele>699.4</ele>
        <time>2021-08-19T14:15:45Z</time>
      </trkpt>
      <trkpt lat="44.79663" lon="2.58622">
        <ele>699.5</ele>
        <time>2021-08-19T14:15:47Z</time>
      </trkpt>
      <trkpt lat="44.79665" lon="2.58621">
        <ele>699.6</ele>
        <time>2021-08-19T14:15:49Z</time>
      </trkpt>
      <trkpt lat="44.79668" lon="2.5862">
        <ele>699.7</ele>
        <time>2021-08-19T14:15:51Z</time>
      </trkpt>
      <trkpt lat="44.7967" lon="2.58618">
        <ele>699.8</ele>
        <time>2021-08-19T14:15:53Z</time>
      </trkpt>
      <trkpt lat="44.79673" lon="2.58617">
        <ele>699.9</ele>
        <time>2021-08-19T14:15:55Z</time>
      </trkpt>
      <trkpt lat="44.79675" lon="2.58616">
        <ele>700</ele>
        <time>2021-08-19T14:15:57Z</time>
      </trkpt>
      <trkpt lat="44.79677" lon="2.58614">
        <ele>700</ele>
        <time>2021-08-19T14:15:59Z</time>
      </trkpt>
      <trkpt lat="44.7968" lon="2.58612">
        <ele>700.1</ele>
        <time>2021-08-19T14:16:01Z</time>
      </trkpt>
      <trkpt lat="44.79682" lon="2.58611">
        <ele>700.1</ele>
        <time>2021-08-19T14:16:03Z</time>
      </trkpt>
      <trkpt lat="44.79685" lon="2.58609">
        <ele>700.2</ele>
        <time>2021-08-19T14:16:05Z</time>
      </trkpt>
      <trkpt lat="44.79687" lon="2.58607">
        <ele>700.3</ele>
        <time>2021-08-19T14:16:07Z</time>
      </trkpt>
      <trkpt lat="44.7969" lon="2.58606">
        <ele>700.4</ele>
        <time>2021-08-19T14:16:09Z</time>
      </trkpt>
      <trkpt lat="44.79692" lon="2.58603">
        <ele>700.4</ele>
        <time>2021-08-19T14:16:11Z</time>
      </trkpt>
      <trkpt lat="44.79694" lon="2.58602">
        <ele>700.5</ele>
        <time>2021-08-19T14:16:13Z</time>
      </trkpt>
      <trkpt lat="44.79697" lon="2.586">
        <ele>700.6</ele>
        <time>2021-08-19T14:16:15Z</time>
      </trkpt>
      <trkpt lat="44.79699" lon="2.58598">
        <ele>700.7</ele>
        <time>2021-08-19T14:16:17Z</time>
      </trkpt>
      <trkpt lat="44.79701" lon="2.58597">
        <ele>700.7</ele>
        <time>2021-08-19T14:16:19Z</time>
      </trkpt>
      <trkpt lat="44.79703" lon="2.58595">
        <ele>700.8</ele>
        <time>2021-08-19T14:16:21Z</time>
      </trkpt>
      <trkpt lat="44.79705" lon="2.58594">
        <ele>700.9</ele>
        <time>2021-08-19T14:16:23Z</time>
      </trkpt>
      <trkpt lat="44.79705" lon="2.58594">
        <ele>700.9</ele>
        <time>2021-08-19T14:16:25Z</time>
      </trkpt>
      <trkpt lat="44.79705" lon="2.58594">
        <ele>700.9</ele>
        <time>2021-08-19T14:16:27Z</time>
      </trkpt>
      <trkpt lat="44.79705" lon="2.58594">
        <ele>700.9</ele>
        <time>2021-08-19T14:16:29Z</time>
      </trkpt>
      <trkpt lat="44.79706" lon="2.58593">
        <ele>700.9</ele>
        <time>2021-08-19T14:16:31Z</time>
      </trkpt>
      <trkpt lat="44.7971" lon="2.5859">
        <ele>701.1</ele>
        <time>2021-08-19T14:16:33Z</time>
      </trkpt>
      <trkpt lat="44.79715" lon="2.58588">
        <ele>701.3</ele>
        <time>2021-08-19T14:16:35Z</time>
      </trkpt>
      <trkpt lat="44.79718" lon="2.58585">
        <ele>701.4</ele>
        <time>2021-08-19T14:16:37Z</time>
      </trkpt>
      <trkpt lat="44.79722" lon="2.58583">
        <ele>701.6</ele>
        <time>2021-08-19T14:16:39Z</time>
      </trkpt>
      <trkpt lat="44.79725" lon="2.58581">
        <ele>701.7</ele>
        <time>2021-08-19T14:16:41Z</time>
      </trkpt>
      <trkpt lat="44.79728" lon="2.5858">
        <ele>701.9</ele>
        <time>2021-08-19T14:16:43Z</time>
      </trkpt>
      <trkpt lat="44.79732" lon="2.58578">
        <ele>702.1</ele>
        <time>2021-08-19T14:16:45Z</time>
      </trkpt>
      <trkpt lat="44.79736" lon="2.58576">
        <ele>702.3</ele>
        <time>2021-08-19T14:16:47Z</time>
      </trkpt>
      <trkpt lat="44.7974" lon="2.58574">
        <ele>702.4</ele>
        <time>2021-08-19T14:16:49Z</time>
      </trkpt>
      <trkpt lat="44.79744" lon="2.58574">
        <ele>702.7</ele>
        <time>2021-08-19T14:16:51Z</time>
      </trkpt>
      <trkpt lat="44.79748" lon="2.58573">
        <ele>703</ele>
        <time>2021-08-19T14:16:53Z</time>
      </trkpt>
      <trkpt lat="44.79752" lon="2.58572">
        <ele>703.1</ele>
        <time>2021-08-19T14:16:55Z</time>
      </trkpt>
      <trkpt lat="44.79757" lon="2.58571">
        <ele>703.2</ele>
        <time>2021-08-19T14:16:57Z</time>
      </trkpt>
      <trkpt lat="44.79762" lon="2.5857">
        <ele>703.3</ele>
        <time>2021-08-19T14:16:59Z</time>
      </trkpt>
      <trkpt lat="44.79766" lon="2.58569">
        <ele>703.3</ele>
        <time>2021-08-19T14:17:01Z</time>
      </trkpt>
      <trkpt lat="44.79772" lon="2.58568">
        <ele>703.4</ele>
        <time>2021-08-19T14:17:03Z</time>
      </trkpt>
      <trkpt lat="44.79776" lon="2.58568">
        <ele>703.6</ele>
        <time>2021-08-19T14:17:05Z</time>
      </trkpt>
      <trkpt lat="44.79781" lon="2.58567">
        <ele>703.7</ele>
        <time>2021-08-19T14:17:07Z</time>
      </trkpt>
      <trkpt lat="44.79786" lon="2.58567">
        <ele>703.8</ele>
        <time>2021-08-19T14:17:09Z</time>
      </trkpt>
      <trkpt lat="44.79792" lon="2.58566">
        <ele>704</ele>
        <time>2021-08-19T14:17:11Z</time>
      </trkpt>
      <trkpt lat="44.79797" lon="2.58565">
        <ele>704.1</ele>
        <time>2021-08-19T14:17:13Z</time>
      </trkpt>
      <trkpt lat="44.79802" lon="2.58564">
        <ele>704.2</ele>
        <time>2021-08-19T14:17:15Z</time>
      </trkpt>
      <trkpt lat="44.79807" lon="2.58564">
        <ele>704.4</ele>
        <time>2021-08-19T14:17:17Z</time>
      </trkpt>
      <trkpt lat="44.79812" lon="2.58563">
        <ele>704.5</ele>
        <time>2021-08-19T14:17:19Z</time>
      </trkpt>
      <trkpt lat="44.79817" lon="2.58562">
        <ele>704.7</ele>
        <time>2021-08-19T14:17:21Z</time>
      </trkpt>
      <trkpt lat="44.79821" lon="2.58562">
        <ele>704.8</ele>
        <time>2021-08-19T14:17:23Z</time>
      </trkpt>
      <trkpt lat="44.79824" lon="2.58562">
        <ele>704.9</ele>
        <time>2021-08-19T14:17:25Z</time>
      </trkpt>
      <trkpt lat="44.79828" lon="2.58562">
        <ele>705</ele>
        <time>2021-08-19T14:17:27Z</time>
      </trkpt>
      <trkpt lat="44.79831" lon="2.58562">
        <ele>705.1</ele>
        <time>2021-08-19T14:17:29Z</time>
      </trkpt>
      <trkpt lat="44.79834" lon="2.58561">
        <ele>705.2</ele>
        <time>2021-08-19T14:17:31Z</time>
      </trkpt>
      <trkpt lat="44.79838" lon="2.58561">
        <ele>705</ele>
        <time>2021-08-19T14:17:33Z</time>
      </trkpt>
      <trkpt lat="44.79841" lon="2.58561">
        <ele>704.8</ele>
        <time>2021-08-19T14:17:35Z</time>
      </trkpt>
      <trkpt lat="44.79844" lon="2.58562">
        <ele>704.8</ele>
        <time>2021-08-19T14:17:37Z</time>
      </trkpt>
      <trkpt lat="44.79847" lon="2.58562">
        <ele>704.6</ele>
        <time>2021-08-19T14:17:39Z</time>
      </trkpt>
      <trkpt lat="44.79851" lon="2.58562">
        <ele>704.5</ele>
        <time>2021-08-19T14:17:41Z</time>
      </trkpt>
      <trkpt lat="44.79855" lon="2.58563">
        <ele>704.3</ele>
        <time>2021-08-19T14:17:43Z</time>
      </trkpt>
      <trkpt lat="44.79861" lon="2.58564">
        <ele>704.1</ele>
        <time>2021-08-19T14:17:45Z</time>
      </trkpt>
      <trkpt lat="44.79867" lon="2.58565">
        <ele>703.8</ele>
        <time>2021-08-19T14:17:47Z</time>
      </trkpt>
      <trkpt lat="44.79875" lon="2.58566">
        <ele>703.5</ele>
        <time>2021-08-19T14:17:49Z</time>
      </trkpt>
      <trkpt lat="44.79884" lon="2.58567">
        <ele>703.1</ele>
        <time>2021-08-19T14:17:51Z</time>
      </trkpt>
      <trkpt lat="44.79896" lon="2.58567">
        <ele>702.6</ele>
        <time>2021-08-19T14:17:53Z</time>
      </trkpt>
      <trkpt lat="44.79909" lon="2.58567">
        <ele>702</ele>
        <time>2021-08-19T14:17:55Z</time>
      </trkpt>
      <trkpt lat="44.79922" lon="2.58566">
        <ele>701.1</ele>
        <time>2021-08-19T14:17:57Z</time>
      </trkpt>
      <trkpt lat="44.79937" lon="2.58564">
        <ele>699.8</ele>
        <time>2021-08-19T14:17:59Z</time>
      </trkpt>
      <trkpt lat="44.79953" lon="2.58562">
        <ele>698.5</ele>
        <time>2021-08-19T14:18:01Z</time>
      </trkpt>
      <trkpt lat="44.79968" lon="2.5856">
        <ele>697.2</ele>
        <time>2021-08-19T14:18:03Z</time>
      </trkpt>
      <trkpt lat="44.7998" lon="2.58559">
        <ele>696.2</ele>
        <time>2021-08-19T14:18:05Z</time>
      </trkpt>
      <trkpt lat="44.79991" lon="2.58556">
        <ele>695.3</ele>
        <time>2021-08-19T14:18:07Z</time>
      </trkpt>
      <trkpt lat="44.80002" lon="2.58553">
        <ele>694.8</ele>
        <time>2021-08-19T14:18:09Z</time>
      </trkpt>
      <trkpt lat="44.80015" lon="2.5855">
        <ele>695.3</ele>
        <time>2021-08-19T14:18:11Z</time>
      </trkpt>
      <trkpt lat="44.80027" lon="2.58552">
        <ele>695.7</ele>
        <time>2021-08-19T14:18:13Z</time>
      </trkpt>
      <trkpt lat="44.80039" lon="2.58555">
        <ele>695.9</ele>
        <time>2021-08-19T14:18:15Z</time>
      </trkpt>
      <trkpt lat="44.80051" lon="2.58559">
        <ele>696.2</ele>
        <time>2021-08-19T14:18:17Z</time>
      </trkpt>
      <trkpt lat="44.80061" lon="2.58563">
        <ele>696.3</ele>
        <time>2021-08-19T14:18:19Z</time>
      </trkpt>
      <trkpt lat="44.80071" lon="2.58566">
        <ele>696.5</ele>
        <time>2021-08-19T14:18:21Z</time>
      </trkpt>
      <trkpt lat="44.80081" lon="2.58567">
        <ele>696.7</ele>
        <time>2021-08-19T14:18:23Z</time>
      </trkpt>
      <trkpt lat="44.80089" lon="2.58567">
        <ele>697</ele>
        <time>2021-08-19T14:18:25Z</time>
      </trkpt>
      <trkpt lat="44.80095" lon="2.58567">
        <ele>697.3</ele>
        <time>2021-08-19T14:18:27Z</time>
      </trkpt>
      <trkpt lat="44.80102" lon="2.58565">
        <ele>697.7</ele>
        <time>2021-08-19T14:18:29Z</time>
      </trkpt>
      <trkpt lat="44.80107" lon="2.58564">
        <ele>698</ele>
        <time>2021-08-19T14:18:31Z</time>
      </trkpt>
      <trkpt lat="44.80114" lon="2.58564">
        <ele>698.3</ele>
        <time>2021-08-19T14:18:33Z</time>
      </trkpt>
      <trkpt lat="44.80119" lon="2.58564">
        <ele>698.6</ele>
        <time>2021-08-19T14:18:35Z</time>
      </trkpt>
      <trkpt lat="44.80125" lon="2.58565">
        <ele>698.8</ele>
        <time>2021-08-19T14:18:37Z</time>
      </trkpt>
      <trkpt lat="44.8013" lon="2.58567">
        <ele>698.9</ele>
        <time>2021-08-19T14:18:39Z</time>
      </trkpt>
      <trkpt lat="44.80135" lon="2.58569">
        <ele>699.1</ele>
        <time>2021-08-19T14:18:41Z</time>
      </trkpt>
      <trkpt lat="44.80139" lon="2.5857">
        <ele>699.2</ele>
        <time>2021-08-19T14:18:43Z</time>
      </trkpt>
      <trkpt lat="44.80143" lon="2.58573">
        <ele>699.3</ele>
        <time>2021-08-19T14:18:45Z</time>
      </trkpt>
      <trkpt lat="44.80147" lon="2.58574">
        <ele>699.4</ele>
        <time>2021-08-19T14:18:47Z</time>
      </trkpt>
      <trkpt lat="44.8015" lon="2.58576">
        <ele>699.5</ele>
        <time>2021-08-19T14:18:49Z</time>
      </trkpt>
      <trkpt lat="44.80154" lon="2.58578">
        <ele>699.6</ele>
        <time>2021-08-19T14:18:51Z</time>
      </trkpt>
      <trkpt lat="44.80158" lon="2.5858">
        <ele>699.7</ele>
        <time>2021-08-19T14:18:53Z</time>
      </trkpt>
      <trkpt lat="44.80162" lon="2.58581">
        <ele>699.9</ele>
        <time>2021-08-19T14:18:55Z</time>
      </trkpt>
      <trkpt lat="44.80165" lon="2.58582">
        <ele>700</ele>
        <time>2021-08-19T14:18:57Z</time>
      </trkpt>
      <trkpt lat="44.80168" lon="2.58584">
        <ele>700</ele>
        <time>2021-08-19T14:18:59Z</time>
      </trkpt>
      <trkpt lat="44.80171" lon="2.58585">
        <ele>699.9</ele>
        <time>2021-08-19T14:19:01Z</time>
      </trkpt>
      <trkpt lat="44.80175" lon="2.58586">
        <ele>699.9</ele>
        <time>2021-08-19T14:19:03Z</time>
      </trkpt>
      <trkpt lat="44.80179" lon="2.58588">
        <ele>699.8</ele>
        <time>2021-08-19T14:19:05Z</time>
      </trkpt>
      <trkpt lat="44.80181" lon="2.58591">
        <ele>699.7</ele>
        <time>2021-08-19T14:19:07Z</time>
      </trkpt>
      <trkpt lat="44.80182" lon="2.58592">
        <ele>699.7</ele>
        <time>2021-08-19T14:19:09Z</time>
      </trkpt>
      <trkpt lat="44.80181" lon="2.58591">
        <ele>699.7</ele>
        <time>2021-08-19T14:19:11Z</time>
      </trkpt>
      <trkpt lat="44.80181" lon="2.58592">
        <ele>699.7</ele>
        <time>2021-08-19T14:19:13Z</time>
      </trkpt>
      <trkpt lat="44.80181" lon="2.58592">
        <ele>699.7</ele>
        <time>2021-08-19T14:19:15Z</time>
      </trkpt>
      <trkpt lat="44.80181" lon="2.58592">
        <ele>699.7</ele>
        <time>2021-08-19T14:19:17Z</time>
      </trkpt>
      <trkpt lat="44.80197" lon="2.58583">
        <ele>699.6</ele>
        <time>2021-08-19T14:23:55Z</time>
      </trkpt>
      <trkpt lat="44.80204" lon="2.58581">
        <ele>699.6</ele>
        <time>2021-08-19T14:23:57Z</time>
      </trkpt>
      <trkpt lat="44.80211" lon="2.58577">
        <ele>699.5</ele>
        <time>2021-08-19T14:23:59Z</time>
      </trkpt>
      <trkpt lat="44.80219" lon="2.58574">
        <ele>699.3</ele>
        <time>2021-08-19T14:24:01Z</time>
      </trkpt>
      <trkpt lat="44.80228" lon="2.58569">
        <ele>699.1</ele>
        <time>2021-08-19T14:24:03Z</time>
      </trkpt>
      <trkpt lat="44.80238" lon="2.58562">
        <ele>698.8</ele>
        <time>2021-08-19T14:24:05Z</time>
      </trkpt>
      <trkpt lat="44.80248" lon="2.58556">
        <ele>698.4</ele>
        <time>2021-08-19T14:24:07Z</time>
      </trkpt>
      <trkpt lat="44.80259" lon="2.58549">
        <ele>698.1</ele>
        <time>2021-08-19T14:24:09Z</time>
      </trkpt>
      <trkpt lat="44.80268" lon="2.58542">
        <ele>697.8</ele>
        <time>2021-08-19T14:24:11Z</time>
      </trkpt>
      <trkpt lat="44.80279" lon="2.58535">
        <ele>697.5</ele>
        <time>2021-08-19T14:24:13Z</time>
      </trkpt>
      <trkpt lat="44.80289" lon="2.58528">
        <ele>697.1</ele>
        <time>2021-08-19T14:24:15Z</time>
      </trkpt>
      <trkpt lat="44.80299" lon="2.58521">
        <ele>696.6</ele>
        <time>2021-08-19T14:24:17Z</time>
      </trkpt>
      <trkpt lat="44.80309" lon="2.58514">
        <ele>696.2</ele>
        <time>2021-08-19T14:24:19Z</time>
      </trkpt>
      <trkpt lat="44.80318" lon="2.58504">
        <ele>695.5</ele>
        <time>2021-08-19T14:24:21Z</time>
      </trkpt>
      <trkpt lat="44.8033" lon="2.58498">
        <ele>695</ele>
        <time>2021-08-19T14:24:23Z</time>
      </trkpt>
      <trkpt lat="44.80339" lon="2.58489">
        <ele>694.9</ele>
        <time>2021-08-19T14:24:25Z</time>
      </trkpt>
      <trkpt lat="44.8035" lon="2.58481">
        <ele>695.2</ele>
        <time>2021-08-19T14:24:27Z</time>
      </trkpt>
      <trkpt lat="44.80361" lon="2.58473">
        <ele>695.5</ele>
        <time>2021-08-19T14:24:29Z</time>
      </trkpt>
      <trkpt lat="44.80371" lon="2.58466">
        <ele>695.7</ele>
        <time>2021-08-19T14:24:31Z</time>
      </trkpt>
      <trkpt lat="44.80381" lon="2.58459">
        <ele>696.1</ele>
        <time>2021-08-19T14:24:33Z</time>
      </trkpt>
      <trkpt lat="44.80391" lon="2.58452">
        <ele>696.4</ele>
        <time>2021-08-19T14:24:35Z</time>
      </trkpt>
      <trkpt lat="44.804" lon="2.58446">
        <ele>696.8</ele>
        <time>2021-08-19T14:24:37Z</time>
      </trkpt>
      <trkpt lat="44.8041" lon="2.58439">
        <ele>697.1</ele>
        <time>2021-08-19T14:24:39Z</time>
      </trkpt>
      <trkpt lat="44.8042" lon="2.58432">
        <ele>697.3</ele>
        <time>2021-08-19T14:24:41Z</time>
      </trkpt>
      <trkpt lat="44.80428" lon="2.58426">
        <ele>696.9</ele>
        <time>2021-08-19T14:24:43Z</time>
      </trkpt>
      <trkpt lat="44.80438" lon="2.5842">
        <ele>696.7</ele>
        <time>2021-08-19T14:24:45Z</time>
      </trkpt>
      <trkpt lat="44.80447" lon="2.58415">
        <ele>696.7</ele>
        <time>2021-08-19T14:24:47Z</time>
      </trkpt>
      <trkpt lat="44.80456" lon="2.58408">
        <ele>697.1</ele>
        <time>2021-08-19T14:24:49Z</time>
      </trkpt>
      <trkpt lat="44.80465" lon="2.58406">
        <ele>697.2</ele>
        <time>2021-08-19T14:24:51Z</time>
      </trkpt>
      <trkpt lat="44.80474" lon="2.58402">
        <ele>697.5</ele>
        <time>2021-08-19T14:24:53Z</time>
      </trkpt>
      <trkpt lat="44.80483" lon="2.584">
        <ele>697.7</ele>
        <time>2021-08-19T14:24:55Z</time>
      </trkpt>
      <trkpt lat="44.80492" lon="2.58398">
        <ele>697.8</ele>
        <time>2021-08-19T14:24:57Z</time>
      </trkpt>
      <trkpt lat="44.80499" lon="2.58396">
        <ele>698</ele>
        <time>2021-08-19T14:24:59Z</time>
      </trkpt>
      <trkpt lat="44.80506" lon="2.58396">
        <ele>698.3</ele>
        <time>2021-08-19T14:25:01Z</time>
      </trkpt>
      <trkpt lat="44.80513" lon="2.58395">
        <ele>698.8</ele>
        <time>2021-08-19T14:25:03Z</time>
      </trkpt>
      <trkpt lat="44.8052" lon="2.58394">
        <ele>699.3</ele>
        <time>2021-08-19T14:25:05Z</time>
      </trkpt>
      <trkpt lat="44.80526" lon="2.58394">
        <ele>699.7</ele>
        <time>2021-08-19T14:25:07Z</time>
      </trkpt>
      <trkpt lat="44.80532" lon="2.58394">
        <ele>700</ele>
        <time>2021-08-19T14:25:09Z</time>
      </trkpt>
      <trkpt lat="44.80539" lon="2.58393">
        <ele>700.4</ele>
        <time>2021-08-19T14:25:11Z</time>
      </trkpt>
      <trkpt lat="44.80545" lon="2.58393">
        <ele>700.8</ele>
        <time>2021-08-19T14:25:13Z</time>
      </trkpt>
      <trkpt lat="44.8055" lon="2.58392">
        <ele>701.2</ele>
        <time>2021-08-19T14:25:15Z</time>
      </trkpt>
      <trkpt lat="44.80555" lon="2.58391">
        <ele>701.6</ele>
        <time>2021-08-19T14:25:17Z</time>
      </trkpt>
      <trkpt lat="44.8056" lon="2.5839">
        <ele>701.9</ele>
        <time>2021-08-19T14:25:19Z</time>
      </trkpt>
      <trkpt lat="44.80564" lon="2.58388">
        <ele>702.3</ele>
        <time>2021-08-19T14:25:21Z</time>
      </trkpt>
      <trkpt lat="44.80569" lon="2.58387">
        <ele>702.7</ele>
        <time>2021-08-19T14:25:23Z</time>
      </trkpt>
      <trkpt lat="44.80573" lon="2.58385">
        <ele>703.1</ele>
        <time>2021-08-19T14:25:25Z</time>
      </trkpt>
      <trkpt lat="44.80577" lon="2.58383">
        <ele>703.5</ele>
        <time>2021-08-19T14:25:27Z</time>
      </trkpt>
      <trkpt lat="44.8058" lon="2.5838">
        <ele>703.9</ele>
        <time>2021-08-19T14:25:29Z</time>
      </trkpt>
      <trkpt lat="44.80584" lon="2.58379">
        <ele>704.2</ele>
        <time>2021-08-19T14:25:31Z</time>
      </trkpt>
      <trkpt lat="44.80587" lon="2.58376">
        <ele>704.6</ele>
        <time>2021-08-19T14:25:33Z</time>
      </trkpt>
      <trkpt lat="44.80591" lon="2.58374">
        <ele>704.9</ele>
        <time>2021-08-19T14:25:35Z</time>
      </trkpt>
      <trkpt lat="44.80594" lon="2.58372">
        <ele>705.2</ele>
        <time>2021-08-19T14:25:37Z</time>
      </trkpt>
      <trkpt lat="44.80597" lon="2.5837">
        <ele>705.5</ele>
        <time>2021-08-19T14:25:39Z</time>
      </trkpt>
      <trkpt lat="44.80601" lon="2.58367">
        <ele>705.9</ele>
        <time>2021-08-19T14:25:41Z</time>
      </trkpt>
      <trkpt lat="44.80604" lon="2.58366">
        <ele>706.1</ele>
        <time>2021-08-19T14:25:43Z</time>
      </trkpt>
      <trkpt lat="44.80607" lon="2.58363">
        <ele>706.4</ele>
        <time>2021-08-19T14:25:45Z</time>
      </trkpt>
      <trkpt lat="44.80611" lon="2.58362">
        <ele>706.7</ele>
        <time>2021-08-19T14:25:47Z</time>
      </trkpt>
      <trkpt lat="44.80614" lon="2.58361">
        <ele>706.9</ele>
        <time>2021-08-19T14:25:49Z</time>
      </trkpt>
      <trkpt lat="44.80617" lon="2.58359">
        <ele>707.2</ele>
        <time>2021-08-19T14:25:51Z</time>
      </trkpt>
      <trkpt lat="44.80621" lon="2.58358">
        <ele>707.4</ele>
        <time>2021-08-19T14:25:53Z</time>
      </trkpt>
      <trkpt lat="44.80624" lon="2.58356">
        <ele>707.7</ele>
        <time>2021-08-19T14:25:55Z</time>
      </trkpt>
      <trkpt lat="44.80628" lon="2.58355">
        <ele>707.9</ele>
        <time>2021-08-19T14:25:57Z</time>
      </trkpt>
      <trkpt lat="44.80631" lon="2.58354">
        <ele>708.2</ele>
        <time>2021-08-19T14:25:59Z</time>
      </trkpt>
      <trkpt lat="44.80635" lon="2.58352">
        <ele>708.4</ele>
        <time>2021-08-19T14:26:01Z</time>
      </trkpt>
      <trkpt lat="44.80638" lon="2.5835">
        <ele>708.7</ele>
        <time>2021-08-19T14:26:03Z</time>
      </trkpt>
      <trkpt lat="44.80642" lon="2.5835">
        <ele>708.9</ele>
        <time>2021-08-19T14:26:05Z</time>
      </trkpt>
      <trkpt lat="44.80645" lon="2.58349">
        <ele>709</ele>
        <time>2021-08-19T14:26:07Z</time>
      </trkpt>
      <trkpt lat="44.80648" lon="2.58349">
        <ele>709.2</ele>
        <time>2021-08-19T14:26:09Z</time>
      </trkpt>
      <trkpt lat="44.80652" lon="2.58348">
        <ele>709.4</ele>
        <time>2021-08-19T14:26:11Z</time>
      </trkpt>
      <trkpt lat="44.80655" lon="2.58348">
        <ele>709.5</ele>
        <time>2021-08-19T14:26:13Z</time>
      </trkpt>
      <trkpt lat="44.80657" lon="2.58348">
        <ele>709.6</ele>
        <time>2021-08-19T14:26:15Z</time>
      </trkpt>
      <trkpt lat="44.8066" lon="2.58347">
        <ele>709.8</ele>
        <time>2021-08-19T14:26:17Z</time>
      </trkpt>
      <trkpt lat="44.80661" lon="2.58342">
        <ele>710.1</ele>
        <time>2021-08-19T14:26:19Z</time>
      </trkpt>
      <trkpt lat="44.80659" lon="2.58339">
        <ele>710.3</ele>
        <time>2021-08-19T14:26:21Z</time>
      </trkpt>
      <trkpt lat="44.80655" lon="2.58338">
        <ele>710.3</ele>
        <time>2021-08-19T14:26:23Z</time>
      </trkpt>
      <trkpt lat="44.80652" lon="2.58337">
        <ele>710.2</ele>
        <time>2021-08-19T14:26:25Z</time>
      </trkpt>
      <trkpt lat="44.80649" lon="2.58336">
        <ele>710.2</ele>
        <time>2021-08-19T14:26:27Z</time>
      </trkpt>
      <trkpt lat="44.80646" lon="2.58335">
        <ele>710.1</ele>
        <time>2021-08-19T14:26:29Z</time>
      </trkpt>
      <trkpt lat="44.80643" lon="2.58334">
        <ele>710.1</ele>
        <time>2021-08-19T14:26:31Z</time>
      </trkpt>
      <trkpt lat="44.80641" lon="2.58333">
        <ele>710.1</ele>
        <time>2021-08-19T14:26:33Z</time>
      </trkpt>
      <trkpt lat="44.80637" lon="2.58333">
        <ele>709.9</ele>
        <time>2021-08-19T14:26:35Z</time>
      </trkpt>
      <trkpt lat="44.80633" lon="2.58334">
        <ele>709.8</ele>
        <time>2021-08-19T14:26:37Z</time>
      </trkpt>
      <trkpt lat="44.8063" lon="2.58333">
        <ele>709.7</ele>
        <time>2021-08-19T14:26:39Z</time>
      </trkpt>
      <trkpt lat="44.80627" lon="2.58334">
        <ele>709.5</ele>
        <time>2021-08-19T14:26:41Z</time>
      </trkpt>
      <trkpt lat="44.80625" lon="2.58332">
        <ele>709.5</ele>
        <time>2021-08-19T14:26:43Z</time>
      </trkpt>
      <trkpt lat="44.80625" lon="2.58327">
        <ele>709.6</ele>
        <time>2021-08-19T14:26:45Z</time>
      </trkpt>
      <trkpt lat="44.80629" lon="2.58324">
        <ele>709.8</ele>
        <time>2021-08-19T14:26:47Z</time>
      </trkpt>
      <trkpt lat="44.80632" lon="2.58325">
        <ele>709.9</ele>
        <time>2021-08-19T14:26:49Z</time>
      </trkpt>
      <trkpt lat="44.80633" lon="2.58327">
        <ele>709.9</ele>
        <time>2021-08-19T14:26:51Z</time>
      </trkpt>
      <trkpt lat="44.80633" lon="2.58326">
        <ele>709.9</ele>
        <time>2021-08-19T14:26:53Z</time>
      </trkpt>
      <trkpt lat="44.80633" lon="2.58326">
        <ele>709.9</ele>
        <time>2021-08-19T14:26:55Z</time>
      </trkpt>
      <trkpt lat="44.80633" lon="2.58326">
        <ele>709.9</ele>
        <time>2021-08-19T14:26:57Z</time>
      </trkpt>
      <trkpt lat="44.80633" lon="2.58326">
        <ele>710</ele>
        <time>2021-08-19T14:26:59Z</time>
      </trkpt>
      <trkpt lat="44.80642" lon="2.58334">
        <ele>710.1</ele>
        <time>2021-08-19T14:29:57Z</time>
      </trkpt>
      <trkpt lat="44.80645" lon="2.58335">
        <ele>710.1</ele>
        <time>2021-08-19T14:29:59Z</time>
      </trkpt>
      <trkpt lat="44.80649" lon="2.58337">
        <ele>710.1</ele>
        <time>2021-08-19T14:30:01Z</time>
      </trkpt>
      <trkpt lat="44.80653" lon="2.58338">
        <ele>710.2</ele>
        <time>2021-08-19T14:30:03Z</time>
      </trkpt>
      <trkpt lat="44.80658" lon="2.5834">
        <ele>710.2</ele>
        <time>2021-08-19T14:30:05Z</time>
      </trkpt>
      <trkpt lat="44.80664" lon="2.58342">
        <ele>710.3</ele>
        <time>2021-08-19T14:30:07Z</time>
      </trkpt>
      <trkpt lat="44.80669" lon="2.58346">
        <ele>710.3</ele>
        <time>2021-08-19T14:30:09Z</time>
      </trkpt>
      <trkpt lat="44.80674" lon="2.58349">
        <ele>710.4</ele>
        <time>2021-08-19T14:30:11Z</time>
      </trkpt>
      <trkpt lat="44.80678" lon="2.5835">
        <ele>710.6</ele>
        <time>2021-08-19T14:30:13Z</time>
      </trkpt>
      <trkpt lat="44.80682" lon="2.5835">
        <ele>710.9</ele>
        <time>2021-08-19T14:30:15Z</time>
      </trkpt>
      <trkpt lat="44.80687" lon="2.5835">
        <ele>711.2</ele>
        <time>2021-08-19T14:30:17Z</time>
      </trkpt>
      <trkpt lat="44.80691" lon="2.58349">
        <ele>711.6</ele>
        <time>2021-08-19T14:30:19Z</time>
      </trkpt>
      <trkpt lat="44.80696" lon="2.5835">
        <ele>711.8</ele>
        <time>2021-08-19T14:30:21Z</time>
      </trkpt>
      <trkpt lat="44.80701" lon="2.58352">
        <ele>712</ele>
        <time>2021-08-19T14:30:23Z</time>
      </trkpt>
      <trkpt lat="44.80707" lon="2.58353">
        <ele>712.3</ele>
        <time>2021-08-19T14:30:25Z</time>
      </trkpt>
      <trkpt lat="44.80712" lon="2.58355">
        <ele>712.6</ele>
        <time>2021-08-19T14:30:27Z</time>
      </trkpt>
      <trkpt lat="44.80718" lon="2.58354">
        <ele>713</ele>
        <time>2021-08-19T14:30:29Z</time>
      </trkpt>
      <trkpt lat="44.80724" lon="2.58355">
        <ele>713.3</ele>
        <time>2021-08-19T14:30:31Z</time>
      </trkpt>
      <trkpt lat="44.80729" lon="2.58357">
        <ele>713.6</ele>
        <time>2021-08-19T14:30:33Z</time>
      </trkpt>
      <trkpt lat="44.80736" lon="2.58359">
        <ele>713.9</ele>
        <time>2021-08-19T14:30:35Z</time>
      </trkpt>
      <trkpt lat="44.80741" lon="2.58361">
        <ele>714</ele>
        <time>2021-08-19T14:30:37Z</time>
      </trkpt>
      <trkpt lat="44.80748" lon="2.58363">
        <ele>714.3</ele>
        <time>2021-08-19T14:30:39Z</time>
      </trkpt>
      <trkpt lat="44.80754" lon="2.58368">
        <ele>714.3</ele>
        <time>2021-08-19T14:30:41Z</time>
      </trkpt>
      <trkpt lat="44.8076" lon="2.58372">
        <ele>714.2</ele>
        <time>2021-08-19T14:30:43Z</time>
      </trkpt>
      <trkpt lat="44.80766" lon="2.5838">
        <ele>714</ele>
        <time>2021-08-19T14:30:45Z</time>
      </trkpt>
      <trkpt lat="44.80771" lon="2.58388">
        <ele>713.7</ele>
        <time>2021-08-19T14:30:47Z</time>
      </trkpt>
      <trkpt lat="44.80773" lon="2.58397">
        <ele>713.1</ele>
        <time>2021-08-19T14:30:49Z</time>
      </trkpt>
      <trkpt lat="44.80773" lon="2.58407">
        <ele>712.3</ele>
        <time>2021-08-19T14:30:51Z</time>
      </trkpt>
      <trkpt lat="44.80771" lon="2.58417">
        <ele>711.5</ele>
        <time>2021-08-19T14:30:53Z</time>
      </trkpt>
      <trkpt lat="44.80772" lon="2.58427">
        <ele>711.5</ele>
        <time>2021-08-19T14:30:55Z</time>
      </trkpt>
      <trkpt lat="44.80774" lon="2.58436">
        <ele>711.6</ele>
        <time>2021-08-19T14:30:57Z</time>
      </trkpt>
      <trkpt lat="44.80776" lon="2.58443">
        <ele>711.7</ele>
        <time>2021-08-19T14:30:59Z</time>
      </trkpt>
      <trkpt lat="44.80779" lon="2.58449">
        <ele>711.9</ele>
        <time>2021-08-19T14:31:01Z</time>
      </trkpt>
      <trkpt lat="44.80782" lon="2.58454">
        <ele>712.2</ele>
        <time>2021-08-19T14:31:03Z</time>
      </trkpt>
      <trkpt lat="44.80785" lon="2.58459">
        <ele>712.4</ele>
        <time>2021-08-19T14:31:05Z</time>
      </trkpt>
      <trkpt lat="44.80787" lon="2.58463">
        <ele>712.6</ele>
        <time>2021-08-19T14:31:07Z</time>
      </trkpt>
      <trkpt lat="44.80789" lon="2.58468">
        <ele>712.8</ele>
        <time>2021-08-19T14:31:09Z</time>
      </trkpt>
      <trkpt lat="44.80791" lon="2.58473">
        <ele>713</ele>
        <time>2021-08-19T14:31:11Z</time>
      </trkpt>
      <trkpt lat="44.80793" lon="2.58478">
        <ele>713.1</ele>
        <time>2021-08-19T14:31:13Z</time>
      </trkpt>
      <trkpt lat="44.80797" lon="2.58483">
        <ele>713.5</ele>
        <time>2021-08-19T14:31:15Z</time>
      </trkpt>
      <trkpt lat="44.80801" lon="2.58486">
        <ele>713.8</ele>
        <time>2021-08-19T14:31:17Z</time>
      </trkpt>
      <trkpt lat="44.80804" lon="2.58489">
        <ele>714.2</ele>
        <time>2021-08-19T14:31:19Z</time>
      </trkpt>
      <trkpt lat="44.80808" lon="2.5849">
        <ele>714.5</ele>
        <time>2021-08-19T14:31:21Z</time>
      </trkpt>
      <trkpt lat="44.80813" lon="2.58491">
        <ele>715</ele>
        <time>2021-08-19T14:31:23Z</time>
      </trkpt>
      <trkpt lat="44.80817" lon="2.58493">
        <ele>715.4</ele>
        <time>2021-08-19T14:31:25Z</time>
      </trkpt>
      <trkpt lat="44.80822" lon="2.58494">
        <ele>715.8</ele>
        <time>2021-08-19T14:31:27Z</time>
      </trkpt>
      <trkpt lat="44.80826" lon="2.58496">
        <ele>716.3</ele>
        <time>2021-08-19T14:31:29Z</time>
      </trkpt>
      <trkpt lat="44.8083" lon="2.58498">
        <ele>716.7</ele>
        <time>2021-08-19T14:31:31Z</time>
      </trkpt>
      <trkpt lat="44.80834" lon="2.585">
        <ele>717</ele>
        <time>2021-08-19T14:31:33Z</time>
      </trkpt>
      <trkpt lat="44.80839" lon="2.58502">
        <ele>717.1</ele>
        <time>2021-08-19T14:31:35Z</time>
      </trkpt>
      <trkpt lat="44.80843" lon="2.58504">
        <ele>717.2</ele>
        <time>2021-08-19T14:31:37Z</time>
      </trkpt>
      <trkpt lat="44.80847" lon="2.58508">
        <ele>717.2</ele>
        <time>2021-08-19T14:31:39Z</time>
      </trkpt>
      <trkpt lat="44.80852" lon="2.5851">
        <ele>717.3</ele>
        <time>2021-08-19T14:31:41Z</time>
      </trkpt>
      <trkpt lat="44.80857" lon="2.58511">
        <ele>717.4</ele>
        <time>2021-08-19T14:31:43Z</time>
      </trkpt>
      <trkpt lat="44.80861" lon="2.58513">
        <ele>717.5</ele>
        <time>2021-08-19T14:31:45Z</time>
      </trkpt>
      <trkpt lat="44.80867" lon="2.58515">
        <ele>717.6</ele>
        <time>2021-08-19T14:31:47Z</time>
      </trkpt>
      <trkpt lat="44.80872" lon="2.58515">
        <ele>717.8</ele>
        <time>2021-08-19T14:31:49Z</time>
      </trkpt>
      <trkpt lat="44.80877" lon="2.58516">
        <ele>718</ele>
        <time>2021-08-19T14:31:51Z</time>
      </trkpt>
      <trkpt lat="44.80882" lon="2.58516">
        <ele>718.2</ele>
        <time>2021-08-19T14:31:53Z</time>
      </trkpt>
      <trkpt lat="44.80887" lon="2.58517">
        <ele>718.3</ele>
        <time>2021-08-19T14:31:55Z</time>
      </trkpt>
      <trkpt lat="44.80892" lon="2.58517">
        <ele>718.5</ele>
        <time>2021-08-19T14:31:57Z</time>
      </trkpt>
      <trkpt lat="44.80897" lon="2.58518">
        <ele>718.6</ele>
        <time>2021-08-19T14:31:59Z</time>
      </trkpt>
      <trkpt lat="44.80902" lon="2.5852">
        <ele>718.7</ele>
        <time>2021-08-19T14:32:01Z</time>
      </trkpt>
      <trkpt lat="44.80906" lon="2.5852">
        <ele>718.9</ele>
        <time>2021-08-19T14:32:03Z</time>
      </trkpt>
      <trkpt lat="44.80911" lon="2.58521">
        <ele>719</ele>
        <time>2021-08-19T14:32:05Z</time>
      </trkpt>
      <trkpt lat="44.80915" lon="2.58522">
        <ele>719.2</ele>
        <time>2021-08-19T14:32:07Z</time>
      </trkpt>
      <trkpt lat="44.80918" lon="2.58523">
        <ele>719.2</ele>
        <time>2021-08-19T14:32:09Z</time>
      </trkpt>
      <trkpt lat="44.80921" lon="2.58523">
        <ele>719.4</ele>
        <time>2021-08-19T14:32:11Z</time>
      </trkpt>
      <trkpt lat="44.80925" lon="2.58524">
        <ele>719.5</ele>
        <time>2021-08-19T14:32:13Z</time>
      </trkpt>
      <trkpt lat="44.80929" lon="2.58524">
        <ele>719.7</ele>
        <time>2021-08-19T14:32:15Z</time>
      </trkpt>
      <trkpt lat="44.80932" lon="2.58525">
        <ele>719.8</ele>
        <time>2021-08-19T14:32:17Z</time>
      </trkpt>
      <trkpt lat="44.80936" lon="2.58526">
        <ele>719.9</ele>
        <time>2021-08-19T14:32:19Z</time>
      </trkpt>
      <trkpt lat="44.8094" lon="2.58528">
        <ele>720</ele>
        <time>2021-08-19T14:32:21Z</time>
      </trkpt>
      <trkpt lat="44.80943" lon="2.58529">
        <ele>720.1</ele>
        <time>2021-08-19T14:32:23Z</time>
      </trkpt>
      <trkpt lat="44.80947" lon="2.5853">
        <ele>720.2</ele>
        <time>2021-08-19T14:32:25Z</time>
      </trkpt>
      <trkpt lat="44.8095" lon="2.58531">
        <ele>720.3</ele>
        <time>2021-08-19T14:32:27Z</time>
      </trkpt>
      <trkpt lat="44.80953" lon="2.58531">
        <ele>720.5</ele>
        <time>2021-08-19T14:32:29Z</time>
      </trkpt>
      <trkpt lat="44.80957" lon="2.58532">
        <ele>720.6</ele>
        <time>2021-08-19T14:32:31Z</time>
      </trkpt>
      <trkpt lat="44.8096" lon="2.58533">
        <ele>720.7</ele>
        <time>2021-08-19T14:32:33Z</time>
      </trkpt>
      <trkpt lat="44.80964" lon="2.58534">
        <ele>720.8</ele>
        <time>2021-08-19T14:32:35Z</time>
      </trkpt>
      <trkpt lat="44.80967" lon="2.58534">
        <ele>721</ele>
        <time>2021-08-19T14:32:37Z</time>
      </trkpt>
      <trkpt lat="44.80971" lon="2.58533">
        <ele>721.2</ele>
        <time>2021-08-19T14:32:39Z</time>
      </trkpt>
      <trkpt lat="44.80974" lon="2.58532">
        <ele>721.4</ele>
        <time>2021-08-19T14:32:41Z</time>
      </trkpt>
      <trkpt lat="44.80977" lon="2.5853">
        <ele>721.6</ele>
        <time>2021-08-19T14:32:43Z</time>
      </trkpt>
      <trkpt lat="44.80981" lon="2.5853">
        <ele>721.7</ele>
        <time>2021-08-19T14:32:45Z</time>
      </trkpt>
      <trkpt lat="44.80985" lon="2.58529">
        <ele>722</ele>
        <time>2021-08-19T14:32:47Z</time>
      </trkpt>
      <trkpt lat="44.8099" lon="2.58528">
        <ele>722.2</ele>
        <time>2021-08-19T14:32:49Z</time>
      </trkpt>
      <trkpt lat="44.80994" lon="2.58529">
        <ele>722.3</ele>
        <time>2021-08-19T14:32:51Z</time>
      </trkpt>
      <trkpt lat="44.80997" lon="2.5853">
        <ele>722.5</ele>
        <time>2021-08-19T14:32:53Z</time>
      </trkpt>
      <trkpt lat="44.81002" lon="2.58529">
        <ele>722.5</ele>
        <time>2021-08-19T14:32:55Z</time>
      </trkpt>
      <trkpt lat="44.81005" lon="2.58529">
        <ele>722.3</ele>
        <time>2021-08-19T14:32:57Z</time>
      </trkpt>
      <trkpt lat="44.81011" lon="2.5853">
        <ele>722</ele>
        <time>2021-08-19T14:32:59Z</time>
      </trkpt>
      <trkpt lat="44.81016" lon="2.5853">
        <ele>721.7</ele>
        <time>2021-08-19T14:33:01Z</time>
      </trkpt>
      <trkpt lat="44.81022" lon="2.5853">
        <ele>721.4</ele>
        <time>2021-08-19T14:33:03Z</time>
      </trkpt>
      <trkpt lat="44.8103" lon="2.5853">
        <ele>721</ele>
        <time>2021-08-19T14:33:05Z</time>
      </trkpt>
      <trkpt lat="44.81039" lon="2.5853">
        <ele>720.5</ele>
        <time>2021-08-19T14:33:07Z</time>
      </trkpt>
      <trkpt lat="44.81049" lon="2.58531">
        <ele>719.8</ele>
        <time>2021-08-19T14:33:09Z</time>
      </trkpt>
      <trkpt lat="44.81062" lon="2.58531">
        <ele>719.2</ele>
        <time>2021-08-19T14:33:11Z</time>
      </trkpt>
      <trkpt lat="44.81076" lon="2.58528">
        <ele>718.6</ele>
        <time>2021-08-19T14:33:13Z</time>
      </trkpt>
      <trkpt lat="44.81091" lon="2.58525">
        <ele>717.9</ele>
        <time>2021-08-19T14:33:15Z</time>
      </trkpt>
      <trkpt lat="44.81107" lon="2.5852">
        <ele>717</ele>
        <time>2021-08-19T14:33:17Z</time>
      </trkpt>
      <trkpt lat="44.81123" lon="2.58514">
        <ele>716.2</ele>
        <time>2021-08-19T14:33:19Z</time>
      </trkpt>
      <trkpt lat="44.81138" lon="2.58507">
        <ele>715.6</ele>
        <time>2021-08-19T14:33:21Z</time>
      </trkpt>
      <trkpt lat="44.81154" lon="2.58501">
        <ele>714.9</ele>
        <time>2021-08-19T14:33:23Z</time>
      </trkpt>
      <trkpt lat="44.8117" lon="2.58496">
        <ele>714.3</ele>
        <time>2021-08-19T14:33:25Z</time>
      </trkpt>
      <trkpt lat="44.81186" lon="2.58495">
        <ele>714.6</ele>
        <time>2021-08-19T14:33:27Z</time>
      </trkpt>
      <trkpt lat="44.81202" lon="2.58497">
        <ele>714.9</ele>
        <time>2021-08-19T14:33:29Z</time>
      </trkpt>
      <trkpt lat="44.81216" lon="2.58502">
        <ele>715</ele>
        <time>2021-08-19T14:33:31Z</time>
      </trkpt>
      <trkpt lat="44.8123" lon="2.58507">
        <ele>715.1</ele>
        <time>2021-08-19T14:33:33Z</time>
      </trkpt>
      <trkpt lat="44.81243" lon="2.58512">
        <ele>715.2</ele>
        <time>2021-08-19T14:33:35Z</time>
      </trkpt>
      <trkpt lat="44.81255" lon="2.58514">
        <ele>715.6</ele>
        <time>2021-08-19T14:33:37Z</time>
      </trkpt>
      <trkpt lat="44.81267" lon="2.58516">
        <ele>716.1</ele>
        <time>2021-08-19T14:33:39Z</time>
      </trkpt>
      <trkpt lat="44.81279" lon="2.58516">
        <ele>716.7</ele>
        <time>2021-08-19T14:33:41Z</time>
      </trkpt>
      <trkpt lat="44.8129" lon="2.58516">
        <ele>717.2</ele>
        <time>2021-08-19T14:33:43Z</time>
      </trkpt>
      <trkpt lat="44.813" lon="2.58514">
        <ele>717.8</ele>
        <time>2021-08-19T14:33:45Z</time>
      </trkpt>
      <trkpt lat="44.8131" lon="2.58512">
        <ele>718.4</ele>
        <time>2021-08-19T14:33:47Z</time>
      </trkpt>
      <trkpt lat="44.8132" lon="2.58508">
        <ele>719</ele>
        <time>2021-08-19T14:33:49Z</time>
      </trkpt>
      <trkpt lat="44.81329" lon="2.58506">
        <ele>719.6</ele>
        <time>2021-08-19T14:33:51Z</time>
      </trkpt>
      <trkpt lat="44.81338" lon="2.58504">
        <ele>720.1</ele>
        <time>2021-08-19T14:33:53Z</time>
      </trkpt>
      <trkpt lat="44.81345" lon="2.58501">
        <ele>720.6</ele>
        <time>2021-08-19T14:33:55Z</time>
      </trkpt>
      <trkpt lat="44.81352" lon="2.58498">
        <ele>720.8</ele>
        <time>2021-08-19T14:33:57Z</time>
      </trkpt>
      <trkpt lat="44.81359" lon="2.58495">
        <ele>720.9</ele>
        <time>2021-08-19T14:33:59Z</time>
      </trkpt>
      <trkpt lat="44.81366" lon="2.58493">
        <ele>721.1</ele>
        <time>2021-08-19T14:34:01Z</time>
      </trkpt>
      <trkpt lat="44.81372" lon="2.58491">
        <ele>721.3</ele>
        <time>2021-08-19T14:34:03Z</time>
      </trkpt>
      <trkpt lat="44.81378" lon="2.58488">
        <ele>721.4</ele>
        <time>2021-08-19T14:34:05Z</time>
      </trkpt>
      <trkpt lat="44.81383" lon="2.58486">
        <ele>721.6</ele>
        <time>2021-08-19T14:34:07Z</time>
      </trkpt>
      <trkpt lat="44.81389" lon="2.58484">
        <ele>721.8</ele>
        <time>2021-08-19T14:34:09Z</time>
      </trkpt>
      <trkpt lat="44.81394" lon="2.5848">
        <ele>721.9</ele>
        <time>2021-08-19T14:34:11Z</time>
      </trkpt>
      <trkpt lat="44.81399" lon="2.58478">
        <ele>722</ele>
        <time>2021-08-19T14:34:13Z</time>
      </trkpt>
      <trkpt lat="44.81403" lon="2.58475">
        <ele>722.1</ele>
        <time>2021-08-19T14:34:15Z</time>
      </trkpt>
      <trkpt lat="44.81408" lon="2.58472">
        <ele>722.2</ele>
        <time>2021-08-19T14:34:17Z</time>
      </trkpt>
      <trkpt lat="44.81413" lon="2.5847">
        <ele>722.4</ele>
        <time>2021-08-19T14:34:19Z</time>
      </trkpt>
      <trkpt lat="44.81418" lon="2.58468">
        <ele>722.5</ele>
        <time>2021-08-19T14:34:21Z</time>
      </trkpt>
      <trkpt lat="44.81423" lon="2.58465">
        <ele>722.4</ele>
        <time>2021-08-19T14:34:23Z</time>
      </trkpt>
      <trkpt lat="44.81427" lon="2.58463">
        <ele>722.3</ele>
        <time>2021-08-19T14:34:25Z</time>
      </trkpt>
      <trkpt lat="44.81432" lon="2.58461">
        <ele>722.2</ele>
        <time>2021-08-19T14:34:27Z</time>
      </trkpt>
      <trkpt lat="44.81436" lon="2.58459">
        <ele>722.2</ele>
        <time>2021-08-19T14:34:29Z</time>
      </trkpt>
      <trkpt lat="44.8144" lon="2.5846">
        <ele>722.2</ele>
        <time>2021-08-19T14:34:31Z</time>
      </trkpt>
      <trkpt lat="44.81442" lon="2.5846">
        <ele>722.2</ele>
        <time>2021-08-19T14:34:33Z</time>
      </trkpt>
      <trkpt lat="44.81445" lon="2.5846">
        <ele>722.3</ele>
        <time>2021-08-19T14:34:35Z</time>
      </trkpt>
      <trkpt lat="44.81447" lon="2.58458">
        <ele>722.2</ele>
        <time>2021-08-19T14:34:37Z</time>
      </trkpt>
      <trkpt lat="44.81446" lon="2.58454">
        <ele>721.9</ele>
        <time>2021-08-19T14:34:39Z</time>
      </trkpt>
      <trkpt lat="44.81443" lon="2.58454">
        <ele>721.9</ele>
        <time>2021-08-19T14:34:41Z</time>
      </trkpt>
      <trkpt lat="44.81441" lon="2.58455">
        <ele>721.9</ele>
        <time>2021-08-19T14:34:43Z</time>
      </trkpt>
      <trkpt lat="44.81439" lon="2.58455">
        <ele>721.9</ele>
        <time>2021-08-19T14:34:45Z</time>
      </trkpt>
      <trkpt lat="44.81437" lon="2.58455">
        <ele>722</ele>
        <time>2021-08-19T14:34:47Z</time>
      </trkpt>
      <trkpt lat="44.81435" lon="2.58457">
        <ele>722</ele>
        <time>2021-08-19T14:34:49Z</time>
      </trkpt>
      <trkpt lat="44.81436" lon="2.58461">
        <ele>722.3</ele>
        <time>2021-08-19T14:34:51Z</time>
      </trkpt>
      <trkpt lat="44.81438" lon="2.58462">
        <ele>722.3</ele>
        <time>2021-08-19T14:34:53Z</time>
      </trkpt>
      <trkpt lat="44.81443" lon="2.58461">
        <ele>722.3</ele>
        <time>2021-08-19T14:34:55Z</time>
      </trkpt>
      <trkpt lat="44.81447" lon="2.5846">
        <ele>722.3</ele>
        <time>2021-08-19T14:34:57Z</time>
      </trkpt>
      <trkpt lat="44.81452" lon="2.58459">
        <ele>722.3</ele>
        <time>2021-08-19T14:34:59Z</time>
      </trkpt>
      <trkpt lat="44.81457" lon="2.58459">
        <ele>722.3</ele>
        <time>2021-08-19T14:35:01Z</time>
      </trkpt>
      <trkpt lat="44.81462" lon="2.58461">
        <ele>722.4</ele>
        <time>2021-08-19T14:35:03Z</time>
      </trkpt>
      <trkpt lat="44.81468" lon="2.58463">
        <ele>722.6</ele>
        <time>2021-08-19T14:35:05Z</time>
      </trkpt>
      <trkpt lat="44.81474" lon="2.58464">
        <ele>722.7</ele>
        <time>2021-08-19T14:35:07Z</time>
      </trkpt>
      <trkpt lat="44.81481" lon="2.58465">
        <ele>722.9</ele>
        <time>2021-08-19T14:35:09Z</time>
      </trkpt>
      <trkpt lat="44.81487" lon="2.58467">
        <ele>723.1</ele>
        <time>2021-08-19T14:35:11Z</time>
      </trkpt>
      <trkpt lat="44.81494" lon="2.58471">
        <ele>723.5</ele>
        <time>2021-08-19T14:35:13Z</time>
      </trkpt>
      <trkpt lat="44.81501" lon="2.58473">
        <ele>723.7</ele>
        <time>2021-08-19T14:35:15Z</time>
      </trkpt>
      <trkpt lat="44.8151" lon="2.58477">
        <ele>724.1</ele>
        <time>2021-08-19T14:35:17Z</time>
      </trkpt>
      <trkpt lat="44.81518" lon="2.5848">
        <ele>724.3</ele>
        <time>2021-08-19T14:35:19Z</time>
      </trkpt>
      <trkpt lat="44.81527" lon="2.58484">
        <ele>724.5</ele>
        <time>2021-08-19T14:35:21Z</time>
      </trkpt>
      <trkpt lat="44.81535" lon="2.58489">
        <ele>724.8</ele>
        <time>2021-08-19T14:35:23Z</time>
      </trkpt>
      <trkpt lat="44.81544" lon="2.58494">
        <ele>725.1</ele>
        <time>2021-08-19T14:35:25Z</time>
      </trkpt>
      <trkpt lat="44.81552" lon="2.58501">
        <ele>725.3</ele>
        <time>2021-08-19T14:35:27Z</time>
      </trkpt>
      <trkpt lat="44.81559" lon="2.58509">
        <ele>724.9</ele>
        <time>2021-08-19T14:35:29Z</time>
      </trkpt>
      <trkpt lat="44.81566" lon="2.58517">
        <ele>724.5</ele>
        <time>2021-08-19T14:35:31Z</time>
      </trkpt>
      <trkpt lat="44.81572" lon="2.58525">
        <ele>724</ele>
        <time>2021-08-19T14:35:33Z</time>
      </trkpt>
      <trkpt lat="44.81577" lon="2.58533">
        <ele>723.6</ele>
        <time>2021-08-19T14:35:35Z</time>
      </trkpt>
      <trkpt lat="44.81583" lon="2.58538">
        <ele>723.2</ele>
        <time>2021-08-19T14:35:37Z</time>
      </trkpt>
      <trkpt lat="44.81591" lon="2.58542">
        <ele>723.1</ele>
        <time>2021-08-19T14:35:39Z</time>
      </trkpt>
      <trkpt lat="44.81599" lon="2.58545">
        <ele>723.1</ele>
        <time>2021-08-19T14:35:41Z</time>
      </trkpt>
      <trkpt lat="44.81608" lon="2.58547">
        <ele>723.1</ele>
        <time>2021-08-19T14:35:43Z</time>
      </trkpt>
      <trkpt lat="44.81616" lon="2.58546">
        <ele>723.3</ele>
        <time>2021-08-19T14:35:45Z</time>
      </trkpt>
      <trkpt lat="44.81625" lon="2.58547">
        <ele>723.4</ele>
        <time>2021-08-19T14:35:47Z</time>
      </trkpt>
      <trkpt lat="44.81634" lon="2.58548">
        <ele>723.5</ele>
        <time>2021-08-19T14:35:49Z</time>
      </trkpt>
      <trkpt lat="44.81644" lon="2.58548">
        <ele>723.6</ele>
        <time>2021-08-19T14:35:51Z</time>
      </trkpt>
      <trkpt lat="44.81653" lon="2.5855">
        <ele>723.6</ele>
        <time>2021-08-19T14:35:53Z</time>
      </trkpt>
      <trkpt lat="44.81663" lon="2.58552">
        <ele>723.6</ele>
        <time>2021-08-19T14:35:55Z</time>
      </trkpt>
      <trkpt lat="44.81672" lon="2.58552">
        <ele>723.7</ele>
        <time>2021-08-19T14:35:57Z</time>
      </trkpt>
      <trkpt lat="44.81681" lon="2.58555">
        <ele>723.8</ele>
        <time>2021-08-19T14:35:59Z</time>
      </trkpt>
      <trkpt lat="44.81691" lon="2.58555">
        <ele>724</ele>
        <time>2021-08-19T14:36:01Z</time>
      </trkpt>
      <trkpt lat="44.817" lon="2.58556">
        <ele>724.2</ele>
        <time>2021-08-19T14:36:03Z</time>
      </trkpt>
      <trkpt lat="44.8171" lon="2.58556">
        <ele>724.5</ele>
        <time>2021-08-19T14:36:05Z</time>
      </trkpt>
      <trkpt lat="44.8172" lon="2.58556">
        <ele>724.8</ele>
        <time>2021-08-19T14:36:07Z</time>
      </trkpt>
      <trkpt lat="44.8173" lon="2.58556">
        <ele>725.1</ele>
        <time>2021-08-19T14:36:09Z</time>
      </trkpt>
      <trkpt lat="44.81739" lon="2.58554">
        <ele>725.4</ele>
        <time>2021-08-19T14:36:11Z</time>
      </trkpt>
      <trkpt lat="44.81748" lon="2.58554">
        <ele>725.7</ele>
        <time>2021-08-19T14:36:13Z</time>
      </trkpt>
      <trkpt lat="44.81757" lon="2.58553">
        <ele>725.8</ele>
        <time>2021-08-19T14:36:15Z</time>
      </trkpt>
      <trkpt lat="44.81764" lon="2.58551">
        <ele>725.9</ele>
        <time>2021-08-19T14:36:17Z</time>
      </trkpt>
      <trkpt lat="44.81771" lon="2.58546">
        <ele>726.1</ele>
        <time>2021-08-19T14:36:19Z</time>
      </trkpt>
      <trkpt lat="44.81778" lon="2.5854">
        <ele>726.2</ele>
        <time>2021-08-19T14:36:21Z</time>
      </trkpt>
      <trkpt lat="44.81785" lon="2.58532">
        <ele>726.3</ele>
        <time>2021-08-19T14:36:23Z</time>
      </trkpt>
      <trkpt lat="44.81794" lon="2.58523">
        <ele>726.4</ele>
        <time>2021-08-19T14:36:25Z</time>
      </trkpt>
      <trkpt lat="44.81803" lon="2.58512">
        <ele>726.3</ele>
        <time>2021-08-19T14:36:27Z</time>
      </trkpt>
      <trkpt lat="44.81815" lon="2.58501">
        <ele>726.2</ele>
        <time>2021-08-19T14:36:29Z</time>
      </trkpt>
      <trkpt lat="44.81827" lon="2.58489">
        <ele>725</ele>
        <time>2021-08-19T14:36:31Z</time>
      </trkpt>
      <trkpt lat="44.81839" lon="2.58476">
        <ele>723.2</ele>
        <time>2021-08-19T14:36:33Z</time>
      </trkpt>
      <trkpt lat="44.81851" lon="2.58462">
        <ele>721.5</ele>
        <time>2021-08-19T14:36:35Z</time>
      </trkpt>
      <trkpt lat="44.81864" lon="2.58448">
        <ele>720</ele>
        <time>2021-08-19T14:36:37Z</time>
      </trkpt>
      <trkpt lat="44.81877" lon="2.58433">
        <ele>718.8</ele>
        <time>2021-08-19T14:36:39Z</time>
      </trkpt>
      <trkpt lat="44.8189" lon="2.58419">
        <ele>717.8</ele>
        <time>2021-08-19T14:36:41Z</time>
      </trkpt>
      <trkpt lat="44.81905" lon="2.58407">
        <ele>717.4</ele>
        <time>2021-08-19T14:36:43Z</time>
      </trkpt>
      <trkpt lat="44.8192" lon="2.58395">
        <ele>717</ele>
        <time>2021-08-19T14:36:45Z</time>
      </trkpt>
      <trkpt lat="44.81935" lon="2.58386">
        <ele>715.7</ele>
        <time>2021-08-19T14:36:47Z</time>
      </trkpt>
      <trkpt lat="44.81951" lon="2.58375">
        <ele>715</ele>
        <time>2021-08-19T14:36:49Z</time>
      </trkpt>
      <trkpt lat="44.81967" lon="2.58366">
        <ele>714.9</ele>
        <time>2021-08-19T14:36:51Z</time>
      </trkpt>
      <trkpt lat="44.81981" lon="2.58357">
        <ele>715.3</ele>
        <time>2021-08-19T14:36:53Z</time>
      </trkpt>
      <trkpt lat="44.81995" lon="2.58348">
        <ele>716.2</ele>
        <time>2021-08-19T14:36:55Z</time>
      </trkpt>
      <trkpt lat="44.82009" lon="2.58339">
        <ele>716</ele>
        <time>2021-08-19T14:36:57Z</time>
      </trkpt>
      <trkpt lat="44.82023" lon="2.58332">
        <ele>714.7</ele>
        <time>2021-08-19T14:36:59Z</time>
      </trkpt>
      <trkpt lat="44.82037" lon="2.58326">
        <ele>713.1</ele>
        <time>2021-08-19T14:37:01Z</time>
      </trkpt>
      <trkpt lat="44.82051" lon="2.58321">
        <ele>711.5</ele>
        <time>2021-08-19T14:37:03Z</time>
      </trkpt>
      <trkpt lat="44.82066" lon="2.58317">
        <ele>709.9</ele>
        <time>2021-08-19T14:37:05Z</time>
      </trkpt>
      <trkpt lat="44.8208" lon="2.58312">
        <ele>708.4</ele>
        <time>2021-08-19T14:37:07Z</time>
      </trkpt>
      <trkpt lat="44.82096" lon="2.58307">
        <ele>707.5</ele>
        <time>2021-08-19T14:37:09Z</time>
      </trkpt>
      <trkpt lat="44.82111" lon="2.58301">
        <ele>706.6</ele>
        <time>2021-08-19T14:37:11Z</time>
      </trkpt>
      <trkpt lat="44.82127" lon="2.58295">
        <ele>705.5</ele>
        <time>2021-08-19T14:37:13Z</time>
      </trkpt>
      <trkpt lat="44.82145" lon="2.58288">
        <ele>704.3</ele>
        <time>2021-08-19T14:37:15Z</time>
      </trkpt>
      <trkpt lat="44.82164" lon="2.58281">
        <ele>702.8</ele>
        <time>2021-08-19T14:37:17Z</time>
      </trkpt>
      <trkpt lat="44.82182" lon="2.58277">
        <ele>702</ele>
        <time>2021-08-19T14:37:19Z</time>
      </trkpt>
      <trkpt lat="44.82202" lon="2.58279">
        <ele>700.9</ele>
        <time>2021-08-19T14:37:21Z</time>
      </trkpt>
      <trkpt lat="44.82222" lon="2.58288">
        <ele>699.8</ele>
        <time>2021-08-19T14:37:23Z</time>
      </trkpt>
      <trkpt lat="44.82241" lon="2.58298">
        <ele>698.8</ele>
        <time>2021-08-19T14:37:25Z</time>
      </trkpt>
      <trkpt lat="44.82259" lon="2.58299">
        <ele>698.6</ele>
        <time>2021-08-19T14:37:27Z</time>
      </trkpt>
      <trkpt lat="44.82275" lon="2.5829">
        <ele>699.1</ele>
        <time>2021-08-19T14:37:29Z</time>
      </trkpt>
      <trkpt lat="44.82289" lon="2.58279">
        <ele>699.7</ele>
        <time>2021-08-19T14:37:31Z</time>
      </trkpt>
      <trkpt lat="44.82302" lon="2.58269">
        <ele>700.4</ele>
        <time>2021-08-19T14:37:33Z</time>
      </trkpt>
      <trkpt lat="44.82313" lon="2.58259">
        <ele>701</ele>
        <time>2021-08-19T14:37:35Z</time>
      </trkpt>
      <trkpt lat="44.82322" lon="2.5825">
        <ele>701.6</ele>
        <time>2021-08-19T14:37:37Z</time>
      </trkpt>
      <trkpt lat="44.82331" lon="2.58243">
        <ele>701.6</ele>
        <time>2021-08-19T14:37:39Z</time>
      </trkpt>
      <trkpt lat="44.82338" lon="2.58235">
        <ele>701.2</ele>
        <time>2021-08-19T14:37:41Z</time>
      </trkpt>
      <trkpt lat="44.82346" lon="2.58229">
        <ele>700.9</ele>
        <time>2021-08-19T14:37:43Z</time>
      </trkpt>
      <trkpt lat="44.82354" lon="2.58223">
        <ele>700.6</ele>
        <time>2021-08-19T14:37:45Z</time>
      </trkpt>
      <trkpt lat="44.82361" lon="2.58217">
        <ele>700.4</ele>
        <time>2021-08-19T14:37:47Z</time>
      </trkpt>
      <trkpt lat="44.82369" lon="2.58213">
        <ele>700.2</ele>
        <time>2021-08-19T14:37:49Z</time>
      </trkpt>
      <trkpt lat="44.82376" lon="2.58208">
        <ele>700</ele>
        <time>2021-08-19T14:37:51Z</time>
      </trkpt>
      <trkpt lat="44.82384" lon="2.58205">
        <ele>699.9</ele>
        <time>2021-08-19T14:37:53Z</time>
      </trkpt>
      <trkpt lat="44.82392" lon="2.58202">
        <ele>699.8</ele>
        <time>2021-08-19T14:37:55Z</time>
      </trkpt>
      <trkpt lat="44.82399" lon="2.58197">
        <ele>699.7</ele>
        <time>2021-08-19T14:37:57Z</time>
      </trkpt>
      <trkpt lat="44.82407" lon="2.58193">
        <ele>699.6</ele>
        <time>2021-08-19T14:37:59Z</time>
      </trkpt>
      <trkpt lat="44.82415" lon="2.58188">
        <ele>699.5</ele>
        <time>2021-08-19T14:38:01Z</time>
      </trkpt>
      <trkpt lat="44.82422" lon="2.58184">
        <ele>699.3</ele>
        <time>2021-08-19T14:38:03Z</time>
      </trkpt>
      <trkpt lat="44.82429" lon="2.58178">
        <ele>699.2</ele>
        <time>2021-08-19T14:38:05Z</time>
      </trkpt>
      <trkpt lat="44.82435" lon="2.58172">
        <ele>699.2</ele>
        <time>2021-08-19T14:38:07Z</time>
      </trkpt>
      <trkpt lat="44.82441" lon="2.58166">
        <ele>699.3</ele>
        <time>2021-08-19T14:38:09Z</time>
      </trkpt>
      <trkpt lat="44.82447" lon="2.58159">
        <ele>699.3</ele>
        <time>2021-08-19T14:38:11Z</time>
      </trkpt>
      <trkpt lat="44.82454" lon="2.58153">
        <ele>699.5</ele>
        <time>2021-08-19T14:38:13Z</time>
      </trkpt>
      <trkpt lat="44.82459" lon="2.58146">
        <ele>699.7</ele>
        <time>2021-08-19T14:38:15Z</time>
      </trkpt>
      <trkpt lat="44.82466" lon="2.58141">
        <ele>699.9</ele>
        <time>2021-08-19T14:38:17Z</time>
      </trkpt>
      <trkpt lat="44.82472" lon="2.58135">
        <ele>700.3</ele>
        <time>2021-08-19T14:38:19Z</time>
      </trkpt>
      <trkpt lat="44.82478" lon="2.5813">
        <ele>700.7</ele>
        <time>2021-08-19T14:38:21Z</time>
      </trkpt>
      <trkpt lat="44.82484" lon="2.58124">
        <ele>701.2</ele>
        <time>2021-08-19T14:38:23Z</time>
      </trkpt>
      <trkpt lat="44.8249" lon="2.58119">
        <ele>701.7</ele>
        <time>2021-08-19T14:38:25Z</time>
      </trkpt>
      <trkpt lat="44.82496" lon="2.58114">
        <ele>702.3</ele>
        <time>2021-08-19T14:38:27Z</time>
      </trkpt>
      <trkpt lat="44.82501" lon="2.58108">
        <ele>702.8</ele>
        <time>2021-08-19T14:38:29Z</time>
      </trkpt>
      <trkpt lat="44.82507" lon="2.58103">
        <ele>703</ele>
        <time>2021-08-19T14:38:31Z</time>
      </trkpt>
      <trkpt lat="44.82511" lon="2.58098">
        <ele>703.4</ele>
        <time>2021-08-19T14:38:33Z</time>
      </trkpt>
      <trkpt lat="44.82515" lon="2.58091">
        <ele>703.9</ele>
        <time>2021-08-19T14:38:35Z</time>
      </trkpt>
      <trkpt lat="44.82519" lon="2.58085">
        <ele>704.3</ele>
        <time>2021-08-19T14:38:37Z</time>
      </trkpt>
      <trkpt lat="44.82523" lon="2.5808">
        <ele>704.6</ele>
        <time>2021-08-19T14:38:39Z</time>
      </trkpt>
      <trkpt lat="44.82527" lon="2.58074">
        <ele>704.7</ele>
        <time>2021-08-19T14:38:41Z</time>
      </trkpt>
      <trkpt lat="44.8253" lon="2.58068">
        <ele>704.9</ele>
        <time>2021-08-19T14:38:43Z</time>
      </trkpt>
      <trkpt lat="44.82534" lon="2.58063">
        <ele>705.2</ele>
        <time>2021-08-19T14:38:45Z</time>
      </trkpt>
      <trkpt lat="44.82537" lon="2.58057">
        <ele>705.4</ele>
        <time>2021-08-19T14:38:47Z</time>
      </trkpt>
      <trkpt lat="44.8254" lon="2.58051">
        <ele>705.7</ele>
        <time>2021-08-19T14:38:49Z</time>
      </trkpt>
      <trkpt lat="44.82543" lon="2.58045">
        <ele>706</ele>
        <time>2021-08-19T14:38:51Z</time>
      </trkpt>
      <trkpt lat="44.82545" lon="2.5804">
        <ele>706.3</ele>
        <time>2021-08-19T14:38:53Z</time>
      </trkpt>
      <trkpt lat="44.82548" lon="2.58034">
        <ele>706.6</ele>
        <time>2021-08-19T14:38:55Z</time>
      </trkpt>
      <trkpt lat="44.82551" lon="2.58028">
        <ele>707</ele>
        <time>2021-08-19T14:38:57Z</time>
      </trkpt>
      <trkpt lat="44.82555" lon="2.58022">
        <ele>707.5</ele>
        <time>2021-08-19T14:38:59Z</time>
      </trkpt>
      <trkpt lat="44.82557" lon="2.58016">
        <ele>707.9</ele>
        <time>2021-08-19T14:39:01Z</time>
      </trkpt>
      <trkpt lat="44.8256" lon="2.58011">
        <ele>708.4</ele>
        <time>2021-08-19T14:39:03Z</time>
      </trkpt>
      <trkpt lat="44.82563" lon="2.58005">
        <ele>708.8</ele>
        <time>2021-08-19T14:39:05Z</time>
      </trkpt>
      <trkpt lat="44.82566" lon="2.58">
        <ele>709.3</ele>
        <time>2021-08-19T14:39:07Z</time>
      </trkpt>
      <trkpt lat="44.82569" lon="2.57995">
        <ele>709</ele>
        <time>2021-08-19T14:39:09Z</time>
      </trkpt>
      <trkpt lat="44.82571" lon="2.57989">
        <ele>708.7</ele>
        <time>2021-08-19T14:39:11Z</time>
      </trkpt>
      <trkpt lat="44.82575" lon="2.57984">
        <ele>708.6</ele>
        <time>2021-08-19T14:39:13Z</time>
      </trkpt>
      <trkpt lat="44.82578" lon="2.57979">
        <ele>708.4</ele>
        <time>2021-08-19T14:39:15Z</time>
      </trkpt>
      <trkpt lat="44.8258" lon="2.57974">
        <ele>708.1</ele>
        <time>2021-08-19T14:39:17Z</time>
      </trkpt>
      <trkpt lat="44.82583" lon="2.57969">
        <ele>708</ele>
        <time>2021-08-19T14:39:19Z</time>
      </trkpt>
      <trkpt lat="44.82587" lon="2.57966">
        <ele>708.3</ele>
        <time>2021-08-19T14:39:21Z</time>
      </trkpt>
      <trkpt lat="44.8259" lon="2.57963">
        <ele>708.6</ele>
        <time>2021-08-19T14:39:23Z</time>
      </trkpt>
      <trkpt lat="44.82593" lon="2.5796">
        <ele>708.9</ele>
        <time>2021-08-19T14:39:25Z</time>
      </trkpt>
      <trkpt lat="44.82597" lon="2.57957">
        <ele>709.2</ele>
        <time>2021-08-19T14:39:27Z</time>
      </trkpt>
      <trkpt lat="44.82601" lon="2.57954">
        <ele>709.5</ele>
        <time>2021-08-19T14:39:29Z</time>
      </trkpt>
      <trkpt lat="44.82604" lon="2.57951">
        <ele>709.9</ele>
        <time>2021-08-19T14:39:31Z</time>
      </trkpt>
      <trkpt lat="44.82608" lon="2.57948">
        <ele>710.2</ele>
        <time>2021-08-19T14:39:33Z</time>
      </trkpt>
      <trkpt lat="44.82612" lon="2.57946">
        <ele>710.6</ele>
        <time>2021-08-19T14:39:35Z</time>
      </trkpt>
      <trkpt lat="44.82616" lon="2.57943">
        <ele>711</ele>
        <time>2021-08-19T14:39:37Z</time>
      </trkpt>
      <trkpt lat="44.82619" lon="2.5794">
        <ele>711.2</ele>
        <time>2021-08-19T14:39:39Z</time>
      </trkpt>
      <trkpt lat="44.82623" lon="2.57938">
        <ele>711.7</ele>
        <time>2021-08-19T14:39:41Z</time>
      </trkpt>
      <trkpt lat="44.82627" lon="2.57937">
        <ele>712.2</ele>
        <time>2021-08-19T14:39:43Z</time>
      </trkpt>
      <trkpt lat="44.8263" lon="2.57934">
        <ele>712.5</ele>
        <time>2021-08-19T14:39:45Z</time>
      </trkpt>
      <trkpt lat="44.82634" lon="2.57931">
        <ele>712.9</ele>
        <time>2021-08-19T14:39:47Z</time>
      </trkpt>
      <trkpt lat="44.82637" lon="2.5793">
        <ele>713.3</ele>
        <time>2021-08-19T14:39:49Z</time>
      </trkpt>
      <trkpt lat="44.82641" lon="2.57927">
        <ele>713.6</ele>
        <time>2021-08-19T14:39:51Z</time>
      </trkpt>
      <trkpt lat="44.82644" lon="2.57925">
        <ele>714</ele>
        <time>2021-08-19T14:39:53Z</time>
      </trkpt>
      <trkpt lat="44.82648" lon="2.57924">
        <ele>714.6</ele>
        <time>2021-08-19T14:39:55Z</time>
      </trkpt>
      <trkpt lat="44.82652" lon="2.57922">
        <ele>715.1</ele>
        <time>2021-08-19T14:39:57Z</time>
      </trkpt>
      <trkpt lat="44.82656" lon="2.5792">
        <ele>715.6</ele>
        <time>2021-08-19T14:39:59Z</time>
      </trkpt>
      <trkpt lat="44.8266" lon="2.57919">
        <ele>716.1</ele>
        <time>2021-08-19T14:40:01Z</time>
      </trkpt>
      <trkpt lat="44.82664" lon="2.57918">
        <ele>716.7</ele>
        <time>2021-08-19T14:40:03Z</time>
      </trkpt>
      <trkpt lat="44.82668" lon="2.57917">
        <ele>717.2</ele>
        <time>2021-08-19T14:40:05Z</time>
      </trkpt>
      <trkpt lat="44.82672" lon="2.57915">
        <ele>717.2</ele>
        <time>2021-08-19T14:40:07Z</time>
      </trkpt>
      <trkpt lat="44.82676" lon="2.57912">
        <ele>717.1</ele>
        <time>2021-08-19T14:40:09Z</time>
      </trkpt>
      <trkpt lat="44.82679" lon="2.57913">
        <ele>717.5</ele>
        <time>2021-08-19T14:40:11Z</time>
      </trkpt>
      <trkpt lat="44.82683" lon="2.57915">
        <ele>718.1</ele>
        <time>2021-08-19T14:40:13Z</time>
      </trkpt>
      <trkpt lat="44.82687" lon="2.57916">
        <ele>718.6</ele>
        <time>2021-08-19T14:40:15Z</time>
      </trkpt>
      <trkpt lat="44.82692" lon="2.57916">
        <ele>719</ele>
        <time>2021-08-19T14:40:17Z</time>
      </trkpt>
      <trkpt lat="44.82696" lon="2.57917">
        <ele>719.5</ele>
        <time>2021-08-19T14:40:19Z</time>
      </trkpt>
      <trkpt lat="44.82701" lon="2.57918">
        <ele>720</ele>
        <time>2021-08-19T14:40:21Z</time>
      </trkpt>
      <trkpt lat="44.82705" lon="2.57919">
        <ele>720.4</ele>
        <time>2021-08-19T14:40:23Z</time>
      </trkpt>
      <trkpt lat="44.8271" lon="2.57919">
        <ele>720.9</ele>
        <time>2021-08-19T14:40:25Z</time>
      </trkpt>
      <trkpt lat="44.82714" lon="2.5792">
        <ele>721.4</ele>
        <time>2021-08-19T14:40:27Z</time>
      </trkpt>
      <trkpt lat="44.8272" lon="2.5792">
        <ele>721.9</ele>
        <time>2021-08-19T14:40:29Z</time>
      </trkpt>
      <trkpt lat="44.82724" lon="2.57921">
        <ele>722.2</ele>
        <time>2021-08-19T14:40:31Z</time>
      </trkpt>
      <trkpt lat="44.82729" lon="2.57921">
        <ele>722.7</ele>
        <time>2021-08-19T14:40:33Z</time>
      </trkpt>
      <trkpt lat="44.82734" lon="2.57922">
        <ele>723.2</ele>
        <time>2021-08-19T14:40:35Z</time>
      </trkpt>
      <trkpt lat="44.82739" lon="2.5792">
        <ele>723.5</ele>
        <time>2021-08-19T14:40:37Z</time>
      </trkpt>
      <trkpt lat="44.82744" lon="2.57918">
        <ele>723.6</ele>
        <time>2021-08-19T14:40:39Z</time>
      </trkpt>
      <trkpt lat="44.82749" lon="2.57916">
        <ele>723.9</ele>
        <time>2021-08-19T14:40:41Z</time>
      </trkpt>
      <trkpt lat="44.82754" lon="2.57914">
        <ele>724</ele>
        <time>2021-08-19T14:40:43Z</time>
      </trkpt>
      <trkpt lat="44.8276" lon="2.57911">
        <ele>724.4</ele>
        <time>2021-08-19T14:40:45Z</time>
      </trkpt>
      <trkpt lat="44.82766" lon="2.57907">
        <ele>724.5</ele>
        <time>2021-08-19T14:40:47Z</time>
      </trkpt>
      <trkpt lat="44.82771" lon="2.57902">
        <ele>724.4</ele>
        <time>2021-08-19T14:40:49Z</time>
      </trkpt>
      <trkpt lat="44.82776" lon="2.57895">
        <ele>724.1</ele>
        <time>2021-08-19T14:40:51Z</time>
      </trkpt>
      <trkpt lat="44.82782" lon="2.57889">
        <ele>723.9</ele>
        <time>2021-08-19T14:40:53Z</time>
      </trkpt>
      <trkpt lat="44.82786" lon="2.57881">
        <ele>723.4</ele>
        <time>2021-08-19T14:40:55Z</time>
      </trkpt>
      <trkpt lat="44.8279" lon="2.57874">
        <ele>722.9</ele>
        <time>2021-08-19T14:40:57Z</time>
      </trkpt>
      <trkpt lat="44.82795" lon="2.57868">
        <ele>722.7</ele>
        <time>2021-08-19T14:40:59Z</time>
      </trkpt>
      <trkpt lat="44.828" lon="2.57862">
        <ele>722.6</ele>
        <time>2021-08-19T14:41:01Z</time>
      </trkpt>
      <trkpt lat="44.82805" lon="2.57855">
        <ele>722.4</ele>
        <time>2021-08-19T14:41:03Z</time>
      </trkpt>
      <trkpt lat="44.82808" lon="2.5785">
        <ele>722.1</ele>
        <time>2021-08-19T14:41:05Z</time>
      </trkpt>
      <trkpt lat="44.82812" lon="2.57844">
        <ele>722</ele>
        <time>2021-08-19T14:41:07Z</time>
      </trkpt>
      <trkpt lat="44.82817" lon="2.57841">
        <ele>722.4</ele>
        <time>2021-08-19T14:41:09Z</time>
      </trkpt>
      <trkpt lat="44.82822" lon="2.57837">
        <ele>722.5</ele>
        <time>2021-08-19T14:41:11Z</time>
      </trkpt>
      <trkpt lat="44.82826" lon="2.57832">
        <ele>722.6</ele>
        <time>2021-08-19T14:41:13Z</time>
      </trkpt>
      <trkpt lat="44.82831" lon="2.57827">
        <ele>722.7</ele>
        <time>2021-08-19T14:41:15Z</time>
      </trkpt>
      <trkpt lat="44.82836" lon="2.57822">
        <ele>722.5</ele>
        <time>2021-08-19T14:41:17Z</time>
      </trkpt>
      <trkpt lat="44.82842" lon="2.57818">
        <ele>722.1</ele>
        <time>2021-08-19T14:41:19Z</time>
      </trkpt>
      <trkpt lat="44.82846" lon="2.57812">
        <ele>721.6</ele>
        <time>2021-08-19T14:41:21Z</time>
      </trkpt>
      <trkpt lat="44.82851" lon="2.5781">
        <ele>721.4</ele>
        <time>2021-08-19T14:41:23Z</time>
      </trkpt>
      <trkpt lat="44.82856" lon="2.57807">
        <ele>721.2</ele>
        <time>2021-08-19T14:41:25Z</time>
      </trkpt>
      <trkpt lat="44.82858" lon="2.57804">
        <ele>720.9</ele>
        <time>2021-08-19T14:41:27Z</time>
      </trkpt>
      <trkpt lat="44.82862" lon="2.57802">
        <ele>720.7</ele>
        <time>2021-08-19T14:41:29Z</time>
      </trkpt>
      <trkpt lat="44.82865" lon="2.578">
        <ele>720.6</ele>
        <time>2021-08-19T14:41:31Z</time>
      </trkpt>
      <trkpt lat="44.82867" lon="2.578">
        <ele>720.5</ele>
        <time>2021-08-19T14:41:33Z</time>
      </trkpt>
      <trkpt lat="44.82871" lon="2.57797">
        <ele>720.2</ele>
        <time>2021-08-19T14:41:35Z</time>
      </trkpt>
      <trkpt lat="44.82875" lon="2.57795">
        <ele>720.1</ele>
        <time>2021-08-19T14:41:37Z</time>
      </trkpt>
      <trkpt lat="44.82879" lon="2.57794">
        <ele>720</ele>
        <time>2021-08-19T14:41:39Z</time>
      </trkpt>
      <trkpt lat="44.82885" lon="2.57793">
        <ele>720.1</ele>
        <time>2021-08-19T14:41:41Z</time>
      </trkpt>
      <trkpt lat="44.8289" lon="2.57791">
        <ele>719.9</ele>
        <time>2021-08-19T14:41:43Z</time>
      </trkpt>
      <trkpt lat="44.82896" lon="2.57791">
        <ele>720.1</ele>
        <time>2021-08-19T14:41:45Z</time>
      </trkpt>
      <trkpt lat="44.82902" lon="2.57791">
        <ele>720.3</ele>
        <time>2021-08-19T14:41:47Z</time>
      </trkpt>
      <trkpt lat="44.82907" lon="2.5779">
        <ele>720.3</ele>
        <time>2021-08-19T14:41:49Z</time>
      </trkpt>
      <trkpt lat="44.82911" lon="2.57791">
        <ele>720.6</ele>
        <time>2021-08-19T14:41:51Z</time>
      </trkpt>
      <trkpt lat="44.82916" lon="2.5779">
        <ele>720.6</ele>
        <time>2021-08-19T14:41:53Z</time>
      </trkpt>
      <trkpt lat="44.82922" lon="2.57791">
        <ele>721</ele>
        <time>2021-08-19T14:41:55Z</time>
      </trkpt>
      <trkpt lat="44.82929" lon="2.57791">
        <ele>721.2</ele>
        <time>2021-08-19T14:41:57Z</time>
      </trkpt>
      <trkpt lat="44.82936" lon="2.57793">
        <ele>721.6</ele>
        <time>2021-08-19T14:41:59Z</time>
      </trkpt>
      <trkpt lat="44.82942" lon="2.57793">
        <ele>721.7</ele>
        <time>2021-08-19T14:42:01Z</time>
      </trkpt>
      <trkpt lat="44.82948" lon="2.57795">
        <ele>722</ele>
        <time>2021-08-19T14:42:03Z</time>
      </trkpt>
      <trkpt lat="44.82955" lon="2.57796">
        <ele>722.3</ele>
        <time>2021-08-19T14:42:05Z</time>
      </trkpt>
      <trkpt lat="44.82961" lon="2.57796">
        <ele>722.3</ele>
        <time>2021-08-19T14:42:07Z</time>
      </trkpt>
      <trkpt lat="44.82966" lon="2.57797">
        <ele>722.4</ele>
        <time>2021-08-19T14:42:09Z</time>
      </trkpt>
      <trkpt lat="44.82973" lon="2.57798">
        <ele>722.5</ele>
        <time>2021-08-19T14:42:11Z</time>
      </trkpt>
      <trkpt lat="44.82979" lon="2.57798">
        <ele>722.6</ele>
        <time>2021-08-19T14:42:13Z</time>
      </trkpt>
      <trkpt lat="44.82985" lon="2.57797">
        <ele>722.6</ele>
        <time>2021-08-19T14:42:15Z</time>
      </trkpt>
      <trkpt lat="44.82991" lon="2.57796">
        <ele>722.6</ele>
        <time>2021-08-19T14:42:17Z</time>
      </trkpt>
      <trkpt lat="44.82997" lon="2.57794">
        <ele>722.5</ele>
        <time>2021-08-19T14:42:19Z</time>
      </trkpt>
      <trkpt lat="44.83003" lon="2.57791">
        <ele>722.9</ele>
        <time>2021-08-19T14:42:21Z</time>
      </trkpt>
      <trkpt lat="44.83008" lon="2.57786">
        <ele>723.7</ele>
        <time>2021-08-19T14:42:23Z</time>
      </trkpt>
      <trkpt lat="44.83011" lon="2.5778">
        <ele>724.4</ele>
        <time>2021-08-19T14:42:25Z</time>
      </trkpt>
      <trkpt lat="44.83014" lon="2.57773">
        <ele>724.9</ele>
        <time>2021-08-19T14:42:27Z</time>
      </trkpt>
      <trkpt lat="44.83016" lon="2.57766">
        <ele>725.5</ele>
        <time>2021-08-19T14:42:29Z</time>
      </trkpt>
      <trkpt lat="44.83018" lon="2.57758">
        <ele>725.9</ele>
        <time>2021-08-19T14:42:31Z</time>
      </trkpt>
      <trkpt lat="44.83019" lon="2.57751">
        <ele>726.4</ele>
        <time>2021-08-19T14:42:33Z</time>
      </trkpt>
      <trkpt lat="44.8302" lon="2.57743">
        <ele>725.7</ele>
        <time>2021-08-19T14:42:35Z</time>
      </trkpt>
      <trkpt lat="44.83022" lon="2.57736">
        <ele>725.1</ele>
        <time>2021-08-19T14:42:37Z</time>
      </trkpt>
      <trkpt lat="44.83024" lon="2.57728">
        <ele>724.5</ele>
        <time>2021-08-19T14:42:39Z</time>
      </trkpt>
      <trkpt lat="44.83026" lon="2.57721">
        <ele>724.2</ele>
        <time>2021-08-19T14:42:41Z</time>
      </trkpt>
      <trkpt lat="44.83029" lon="2.57713">
        <ele>723.8</ele>
        <time>2021-08-19T14:42:43Z</time>
      </trkpt>
      <trkpt lat="44.83031" lon="2.57707">
        <ele>723.4</ele>
        <time>2021-08-19T14:42:45Z</time>
      </trkpt>
      <trkpt lat="44.83035" lon="2.57701">
        <ele>723.5</ele>
        <time>2021-08-19T14:42:47Z</time>
      </trkpt>
      <trkpt lat="44.83039" lon="2.57695">
        <ele>723.5</ele>
        <time>2021-08-19T14:42:49Z</time>
      </trkpt>
      <trkpt lat="44.83044" lon="2.57689">
        <ele>723.9</ele>
        <time>2021-08-19T14:42:51Z</time>
      </trkpt>
      <trkpt lat="44.83049" lon="2.57685">
        <ele>724.3</ele>
        <time>2021-08-19T14:42:53Z</time>
      </trkpt>
      <trkpt lat="44.83054" lon="2.5768">
        <ele>724.7</ele>
        <time>2021-08-19T14:42:55Z</time>
      </trkpt>
      <trkpt lat="44.83058" lon="2.57675">
        <ele>725</ele>
        <time>2021-08-19T14:42:57Z</time>
      </trkpt>
      <trkpt lat="44.83063" lon="2.57672">
        <ele>725.5</ele>
        <time>2021-08-19T14:42:59Z</time>
      </trkpt>
      <trkpt lat="44.83068" lon="2.57667">
        <ele>725.8</ele>
        <time>2021-08-19T14:43:01Z</time>
      </trkpt>
      <trkpt lat="44.83072" lon="2.57662">
        <ele>725.7</ele>
        <time>2021-08-19T14:43:03Z</time>
      </trkpt>
      <trkpt lat="44.83077" lon="2.57657">
        <ele>725.7</ele>
        <time>2021-08-19T14:43:05Z</time>
      </trkpt>
      <trkpt lat="44.83082" lon="2.57652">
        <ele>725.7</ele>
        <time>2021-08-19T14:43:07Z</time>
      </trkpt>
      <trkpt lat="44.83086" lon="2.57647">
        <ele>725.6</ele>
        <time>2021-08-19T14:43:09Z</time>
      </trkpt>
      <trkpt lat="44.8309" lon="2.57642">
        <ele>725.5</ele>
        <time>2021-08-19T14:43:11Z</time>
      </trkpt>
      <trkpt lat="44.83095" lon="2.57638">
        <ele>725.6</ele>
        <time>2021-08-19T14:43:13Z</time>
      </trkpt>
      <trkpt lat="44.83099" lon="2.57633">
        <ele>725.4</ele>
        <time>2021-08-19T14:43:15Z</time>
      </trkpt>
      <trkpt lat="44.83103" lon="2.57629">
        <ele>725.5</ele>
        <time>2021-08-19T14:43:17Z</time>
      </trkpt>
      <trkpt lat="44.83108" lon="2.57625">
        <ele>725.3</ele>
        <time>2021-08-19T14:43:19Z</time>
      </trkpt>
      <trkpt lat="44.83113" lon="2.57621">
        <ele>725.6</ele>
        <time>2021-08-19T14:43:21Z</time>
      </trkpt>
      <trkpt lat="44.83117" lon="2.57617">
        <ele>725.8</ele>
        <time>2021-08-19T14:43:23Z</time>
      </trkpt>
      <trkpt lat="44.83122" lon="2.57613">
        <ele>725.7</ele>
        <time>2021-08-19T14:43:25Z</time>
      </trkpt>
      <trkpt lat="44.83126" lon="2.5761">
        <ele>725.8</ele>
        <time>2021-08-19T14:43:27Z</time>
      </trkpt>
      <trkpt lat="44.83131" lon="2.57607">
        <ele>726</ele>
        <time>2021-08-19T14:43:29Z</time>
      </trkpt>
      <trkpt lat="44.83136" lon="2.57603">
        <ele>726</ele>
        <time>2021-08-19T14:43:31Z</time>
      </trkpt>
      <trkpt lat="44.8314" lon="2.576">
        <ele>726.1</ele>
        <time>2021-08-19T14:43:33Z</time>
      </trkpt>
      <trkpt lat="44.83145" lon="2.57597">
        <ele>726.3</ele>
        <time>2021-08-19T14:43:35Z</time>
      </trkpt>
      <trkpt lat="44.8315" lon="2.57593">
        <ele>726.2</ele>
        <time>2021-08-19T14:43:37Z</time>
      </trkpt>
      <trkpt lat="44.83154" lon="2.57589">
        <ele>726.1</ele>
        <time>2021-08-19T14:43:39Z</time>
      </trkpt>
      <trkpt lat="44.83159" lon="2.57585">
        <ele>726</ele>
        <time>2021-08-19T14:43:41Z</time>
      </trkpt>
      <trkpt lat="44.83163" lon="2.57582">
        <ele>726</ele>
        <time>2021-08-19T14:43:43Z</time>
      </trkpt>
      <trkpt lat="44.83168" lon="2.57578">
        <ele>725.6</ele>
        <time>2021-08-19T14:43:45Z</time>
      </trkpt>
      <trkpt lat="44.83173" lon="2.57576">
        <ele>725.2</ele>
        <time>2021-08-19T14:43:47Z</time>
      </trkpt>
      <trkpt lat="44.83178" lon="2.57574">
        <ele>724.6</ele>
        <time>2021-08-19T14:43:49Z</time>
      </trkpt>
      <trkpt lat="44.83183" lon="2.57572">
        <ele>724.2</ele>
        <time>2021-08-19T14:43:51Z</time>
      </trkpt>
      <trkpt lat="44.83188" lon="2.57569">
        <ele>723.6</ele>
        <time>2021-08-19T14:43:53Z</time>
      </trkpt>
      <trkpt lat="44.83194" lon="2.57568">
        <ele>723.5</ele>
        <time>2021-08-19T14:43:55Z</time>
      </trkpt>
      <trkpt lat="44.83201" lon="2.57566">
        <ele>723.2</ele>
        <time>2021-08-19T14:43:57Z</time>
      </trkpt>
      <trkpt lat="44.83208" lon="2.57565">
        <ele>723.1</ele>
        <time>2021-08-19T14:43:59Z</time>
      </trkpt>
      <trkpt lat="44.83213" lon="2.57563">
        <ele>722.8</ele>
        <time>2021-08-19T14:44:01Z</time>
      </trkpt>
      <trkpt lat="44.83219" lon="2.57561">
        <ele>722.5</ele>
        <time>2021-08-19T14:44:03Z</time>
      </trkpt>
      <trkpt lat="44.83225" lon="2.57561">
        <ele>722.7</ele>
        <time>2021-08-19T14:44:05Z</time>
      </trkpt>
      <trkpt lat="44.8323" lon="2.57559">
        <ele>722.3</ele>
        <time>2021-08-19T14:44:07Z</time>
      </trkpt>
      <trkpt lat="44.83236" lon="2.57558">
        <ele>722.2</ele>
        <time>2021-08-19T14:44:09Z</time>
      </trkpt>
      <trkpt lat="44.83242" lon="2.57558">
        <ele>722.5</ele>
        <time>2021-08-19T14:44:11Z</time>
      </trkpt>
      <trkpt lat="44.83248" lon="2.57556">
        <ele>722</ele>
        <time>2021-08-19T14:44:13Z</time>
      </trkpt>
      <trkpt lat="44.83255" lon="2.57556">
        <ele>722.5</ele>
        <time>2021-08-19T14:44:15Z</time>
      </trkpt>
      <trkpt lat="44.83261" lon="2.57553">
        <ele>722.1</ele>
        <time>2021-08-19T14:44:17Z</time>
      </trkpt>
      <trkpt lat="44.83269" lon="2.57555">
        <ele>722.9</ele>
        <time>2021-08-19T14:44:19Z</time>
      </trkpt>
      <trkpt lat="44.83276" lon="2.57555">
        <ele>723.5</ele>
        <time>2021-08-19T14:44:21Z</time>
      </trkpt>
      <trkpt lat="44.83283" lon="2.57556">
        <ele>724.2</ele>
        <time>2021-08-19T14:44:23Z</time>
      </trkpt>
      <trkpt lat="44.8329" lon="2.57556">
        <ele>724.8</ele>
        <time>2021-08-19T14:44:25Z</time>
      </trkpt>
      <trkpt lat="44.83297" lon="2.57556">
        <ele>725.1</ele>
        <time>2021-08-19T14:44:27Z</time>
      </trkpt>
      <trkpt lat="44.83305" lon="2.57556">
        <ele>725.5</ele>
        <time>2021-08-19T14:44:29Z</time>
      </trkpt>
      <trkpt lat="44.83313" lon="2.57556">
        <ele>726.2</ele>
        <time>2021-08-19T14:44:31Z</time>
      </trkpt>
      <trkpt lat="44.83322" lon="2.57553">
        <ele>725.9</ele>
        <time>2021-08-19T14:44:33Z</time>
      </trkpt>
      <trkpt lat="44.83332" lon="2.5755">
        <ele>725.7</ele>
        <time>2021-08-19T14:44:35Z</time>
      </trkpt>
      <trkpt lat="44.83342" lon="2.57546">
        <ele>725.7</ele>
        <time>2021-08-19T14:44:37Z</time>
      </trkpt>
      <trkpt lat="44.83352" lon="2.57543">
        <ele>725.8</ele>
        <time>2021-08-19T14:44:39Z</time>
      </trkpt>
      <trkpt lat="44.83363" lon="2.57537">
        <ele>725.4</ele>
        <time>2021-08-19T14:44:41Z</time>
      </trkpt>
      <trkpt lat="44.83375" lon="2.57533">
        <ele>725.6</ele>
        <time>2021-08-19T14:44:43Z</time>
      </trkpt>
      <trkpt lat="44.83387" lon="2.57527">
        <ele>725.1</ele>
        <time>2021-08-19T14:44:45Z</time>
      </trkpt>
      <trkpt lat="44.83398" lon="2.57519">
        <ele>724.3</ele>
        <time>2021-08-19T14:44:47Z</time>
      </trkpt>
      <trkpt lat="44.83409" lon="2.57511">
        <ele>723.1</ele>
        <time>2021-08-19T14:44:49Z</time>
      </trkpt>
      <trkpt lat="44.8342" lon="2.57501">
        <ele>721.8</ele>
        <time>2021-08-19T14:44:51Z</time>
      </trkpt>
      <trkpt lat="44.83429" lon="2.57493">
        <ele>721.5</ele>
        <time>2021-08-19T14:44:53Z</time>
      </trkpt>
      <trkpt lat="44.83439" lon="2.57489">
        <ele>722</ele>
        <time>2021-08-19T14:44:55Z</time>
      </trkpt>
      <trkpt lat="44.83447" lon="2.57483">
        <ele>722</ele>
        <time>2021-08-19T14:44:57Z</time>
      </trkpt>
      <trkpt lat="44.83454" lon="2.57479">
        <ele>722.4</ele>
        <time>2021-08-19T14:44:59Z</time>
      </trkpt>
      <trkpt lat="44.83462" lon="2.57474">
        <ele>722.4</ele>
        <time>2021-08-19T14:45:01Z</time>
      </trkpt>
      <trkpt lat="44.83468" lon="2.57471">
        <ele>722.8</ele>
        <time>2021-08-19T14:45:03Z</time>
      </trkpt>
      <trkpt lat="44.83474" lon="2.57468">
        <ele>722.9</ele>
        <time>2021-08-19T14:45:05Z</time>
      </trkpt>
      <trkpt lat="44.83479" lon="2.57463">
        <ele>722.8</ele>
        <time>2021-08-19T14:45:07Z</time>
      </trkpt>
      <trkpt lat="44.83484" lon="2.57462">
        <ele>723.5</ele>
        <time>2021-08-19T14:45:09Z</time>
      </trkpt>
      <trkpt lat="44.8349" lon="2.5746">
        <ele>723.8</ele>
        <time>2021-08-19T14:45:11Z</time>
      </trkpt>
      <trkpt lat="44.83495" lon="2.57457">
        <ele>723.8</ele>
        <time>2021-08-19T14:45:13Z</time>
      </trkpt>
      <trkpt lat="44.83501" lon="2.57455">
        <ele>724.5</ele>
        <time>2021-08-19T14:45:15Z</time>
      </trkpt>
      <trkpt lat="44.83507" lon="2.57452">
        <ele>724.5</ele>
        <time>2021-08-19T14:45:17Z</time>
      </trkpt>
      <trkpt lat="44.83512" lon="2.57451">
        <ele>724.9</ele>
        <time>2021-08-19T14:45:19Z</time>
      </trkpt>
      <trkpt lat="44.83516" lon="2.5745">
        <ele>725.2</ele>
        <time>2021-08-19T14:45:21Z</time>
      </trkpt>
      <trkpt lat="44.83522" lon="2.57447">
        <ele>725.5</ele>
        <time>2021-08-19T14:45:23Z</time>
      </trkpt>
      <trkpt lat="44.83528" lon="2.57445">
        <ele>725.7</ele>
        <time>2021-08-19T14:45:25Z</time>
      </trkpt>
      <trkpt lat="44.83534" lon="2.57441">
        <ele>725.8</ele>
        <time>2021-08-19T14:45:27Z</time>
      </trkpt>
      <trkpt lat="44.8354" lon="2.57439">
        <ele>726.2</ele>
        <time>2021-08-19T14:45:29Z</time>
      </trkpt>
      <trkpt lat="44.83547" lon="2.57437">
        <ele>726.6</ele>
        <time>2021-08-19T14:45:31Z</time>
      </trkpt>
      <trkpt lat="44.83553" lon="2.57435">
        <ele>726.9</ele>
        <time>2021-08-19T14:45:33Z</time>
      </trkpt>
      <trkpt lat="44.8356" lon="2.57433">
        <ele>727.4</ele>
        <time>2021-08-19T14:45:35Z</time>
      </trkpt>
      <trkpt lat="44.83566" lon="2.5743">
        <ele>727.7</ele>
        <time>2021-08-19T14:45:37Z</time>
      </trkpt>
      <trkpt lat="44.83572" lon="2.57427">
        <ele>727.8</ele>
        <time>2021-08-19T14:45:39Z</time>
      </trkpt>
      <trkpt lat="44.83578" lon="2.57428">
        <ele>728.6</ele>
        <time>2021-08-19T14:45:41Z</time>
      </trkpt>
      <trkpt lat="44.83584" lon="2.57425">
        <ele>728.9</ele>
        <time>2021-08-19T14:45:43Z</time>
      </trkpt>
      <trkpt lat="44.8359" lon="2.57422">
        <ele>729</ele>
        <time>2021-08-19T14:45:45Z</time>
      </trkpt>
      <trkpt lat="44.83596" lon="2.57419">
        <ele>729.1</ele>
        <time>2021-08-19T14:45:47Z</time>
      </trkpt>
      <trkpt lat="44.836" lon="2.57416">
        <ele>729.1</ele>
        <time>2021-08-19T14:45:49Z</time>
      </trkpt>
      <trkpt lat="44.83605" lon="2.57414">
        <ele>729.4</ele>
        <time>2021-08-19T14:45:51Z</time>
      </trkpt>
      <trkpt lat="44.8361" lon="2.57412">
        <ele>729.7</ele>
        <time>2021-08-19T14:45:53Z</time>
      </trkpt>
      <trkpt lat="44.83615" lon="2.57409">
        <ele>729.9</ele>
        <time>2021-08-19T14:45:55Z</time>
      </trkpt>
      <trkpt lat="44.8362" lon="2.57408">
        <ele>730.3</ele>
        <time>2021-08-19T14:45:57Z</time>
      </trkpt>
      <trkpt lat="44.83625" lon="2.57404">
        <ele>730.1</ele>
        <time>2021-08-19T14:45:59Z</time>
      </trkpt>
      <trkpt lat="44.83631" lon="2.57401">
        <ele>730.5</ele>
        <time>2021-08-19T14:46:01Z</time>
      </trkpt>
      <trkpt lat="44.83636" lon="2.57397">
        <ele>730.5</ele>
        <time>2021-08-19T14:46:03Z</time>
      </trkpt>
      <trkpt lat="44.83641" lon="2.57392">
        <ele>730.2</ele>
        <time>2021-08-19T14:46:05Z</time>
      </trkpt>
      <trkpt lat="44.83647" lon="2.57388">
        <ele>730.2</ele>
        <time>2021-08-19T14:46:07Z</time>
      </trkpt>
      <trkpt lat="44.83652" lon="2.57384">
        <ele>730.1</ele>
        <time>2021-08-19T14:46:09Z</time>
      </trkpt>
      <trkpt lat="44.83657" lon="2.5738">
        <ele>730.1</ele>
        <time>2021-08-19T14:46:11Z</time>
      </trkpt>
      <trkpt lat="44.83662" lon="2.57376">
        <ele>730</ele>
        <time>2021-08-19T14:46:13Z</time>
      </trkpt>
      <trkpt lat="44.83667" lon="2.57372">
        <ele>730.1</ele>
        <time>2021-08-19T14:46:15Z</time>
      </trkpt>
      <trkpt lat="44.83673" lon="2.57368">
        <ele>730.1</ele>
        <time>2021-08-19T14:46:17Z</time>
      </trkpt>
      <trkpt lat="44.83679" lon="2.57364">
        <ele>730.2</ele>
        <time>2021-08-19T14:46:19Z</time>
      </trkpt>
      <trkpt lat="44.83685" lon="2.57361">
        <ele>730.5</ele>
        <time>2021-08-19T14:46:21Z</time>
      </trkpt>
      <trkpt lat="44.83691" lon="2.57357">
        <ele>730.6</ele>
        <time>2021-08-19T14:46:23Z</time>
      </trkpt>
      <trkpt lat="44.83698" lon="2.57353">
        <ele>730.8</ele>
        <time>2021-08-19T14:46:25Z</time>
      </trkpt>
      <trkpt lat="44.83705" lon="2.5735">
        <ele>731.2</ele>
        <time>2021-08-19T14:46:27Z</time>
      </trkpt>
      <trkpt lat="44.83712" lon="2.57345">
        <ele>731.4</ele>
        <time>2021-08-19T14:46:29Z</time>
      </trkpt>
      <trkpt lat="44.83719" lon="2.57341">
        <ele>731.7</ele>
        <time>2021-08-19T14:46:31Z</time>
      </trkpt>
      <trkpt lat="44.83726" lon="2.57337">
        <ele>732.1</ele>
        <time>2021-08-19T14:46:33Z</time>
      </trkpt>
      <trkpt lat="44.83734" lon="2.57332">
        <ele>732.6</ele>
        <time>2021-08-19T14:46:35Z</time>
      </trkpt>
      <trkpt lat="44.83741" lon="2.5733">
        <ele>733.3</ele>
        <time>2021-08-19T14:46:37Z</time>
      </trkpt>
      <trkpt lat="44.83748" lon="2.57322">
        <ele>733.2</ele>
        <time>2021-08-19T14:46:39Z</time>
      </trkpt>
      <trkpt lat="44.83754" lon="2.57316">
        <ele>733.3</ele>
        <time>2021-08-19T14:46:41Z</time>
      </trkpt>
      <trkpt lat="44.83762" lon="2.5731">
        <ele>733.5</ele>
        <time>2021-08-19T14:46:43Z</time>
      </trkpt>
      <trkpt lat="44.83768" lon="2.57304">
        <ele>733.5</ele>
        <time>2021-08-19T14:46:45Z</time>
      </trkpt>
      <trkpt lat="44.83775" lon="2.57297">
        <ele>733.4</ele>
        <time>2021-08-19T14:46:47Z</time>
      </trkpt>
      <trkpt lat="44.83781" lon="2.5729">
        <ele>733.3</ele>
        <time>2021-08-19T14:46:49Z</time>
      </trkpt>
      <trkpt lat="44.83788" lon="2.57284">
        <ele>733.4</ele>
        <time>2021-08-19T14:46:51Z</time>
      </trkpt>
      <trkpt lat="44.83793" lon="2.57277">
        <ele>733.3</ele>
        <time>2021-08-19T14:46:53Z</time>
      </trkpt>
      <trkpt lat="44.838" lon="2.57271">
        <ele>733.4</ele>
        <time>2021-08-19T14:46:55Z</time>
      </trkpt>
      <trkpt lat="44.83806" lon="2.57265">
        <ele>733.4</ele>
        <time>2021-08-19T14:46:57Z</time>
      </trkpt>
      <trkpt lat="44.83812" lon="2.57261">
        <ele>733.6</ele>
        <time>2021-08-19T14:46:59Z</time>
      </trkpt>
      <trkpt lat="44.83817" lon="2.57256">
        <ele>733.7</ele>
        <time>2021-08-19T14:47:01Z</time>
      </trkpt>
      <trkpt lat="44.83822" lon="2.57252">
        <ele>733.8</ele>
        <time>2021-08-19T14:47:03Z</time>
      </trkpt>
      <trkpt lat="44.83827" lon="2.57248">
        <ele>734.1</ele>
        <time>2021-08-19T14:47:05Z</time>
      </trkpt>
      <trkpt lat="44.83832" lon="2.57243">
        <ele>734.6</ele>
        <time>2021-08-19T14:47:07Z</time>
      </trkpt>
      <trkpt lat="44.83837" lon="2.57239">
        <ele>735</ele>
        <time>2021-08-19T14:47:09Z</time>
      </trkpt>
      <trkpt lat="44.83841" lon="2.57236">
        <ele>735.5</ele>
        <time>2021-08-19T14:47:11Z</time>
      </trkpt>
      <trkpt lat="44.83846" lon="2.57232">
        <ele>735.9</ele>
        <time>2021-08-19T14:47:13Z</time>
      </trkpt>
      <trkpt lat="44.8385" lon="2.57228">
        <ele>736.2</ele>
        <time>2021-08-19T14:47:15Z</time>
      </trkpt>
      <trkpt lat="44.83854" lon="2.57225">
        <ele>736.5</ele>
        <time>2021-08-19T14:47:17Z</time>
      </trkpt>
      <trkpt lat="44.83859" lon="2.57222">
        <ele>736.9</ele>
        <time>2021-08-19T14:47:19Z</time>
      </trkpt>
      <trkpt lat="44.83863" lon="2.57219">
        <ele>737.2</ele>
        <time>2021-08-19T14:47:21Z</time>
      </trkpt>
      <trkpt lat="44.83868" lon="2.57216">
        <ele>737.5</ele>
        <time>2021-08-19T14:47:23Z</time>
      </trkpt>
      <trkpt lat="44.83872" lon="2.57212">
        <ele>737.7</ele>
        <time>2021-08-19T14:47:25Z</time>
      </trkpt>
      <trkpt lat="44.83877" lon="2.57209">
        <ele>738</ele>
        <time>2021-08-19T14:47:27Z</time>
      </trkpt>
      <trkpt lat="44.83881" lon="2.57205">
        <ele>738.2</ele>
        <time>2021-08-19T14:47:29Z</time>
      </trkpt>
      <trkpt lat="44.83886" lon="2.57203">
        <ele>738.5</ele>
        <time>2021-08-19T14:47:31Z</time>
      </trkpt>
      <trkpt lat="44.83891" lon="2.572">
        <ele>738.8</ele>
        <time>2021-08-19T14:47:33Z</time>
      </trkpt>
      <trkpt lat="44.83896" lon="2.57197">
        <ele>739</ele>
        <time>2021-08-19T14:47:35Z</time>
      </trkpt>
      <trkpt lat="44.83902" lon="2.57195">
        <ele>739.3</ele>
        <time>2021-08-19T14:47:37Z</time>
      </trkpt>
      <trkpt lat="44.83907" lon="2.57192">
        <ele>739.6</ele>
        <time>2021-08-19T14:47:39Z</time>
      </trkpt>
      <trkpt lat="44.83913" lon="2.5719">
        <ele>740</ele>
        <time>2021-08-19T14:47:41Z</time>
      </trkpt>
      <trkpt lat="44.83919" lon="2.5719">
        <ele>740.3</ele>
        <time>2021-08-19T14:47:43Z</time>
      </trkpt>
      <trkpt lat="44.83925" lon="2.57189">
        <ele>740.5</ele>
        <time>2021-08-19T14:47:45Z</time>
      </trkpt>
      <trkpt lat="44.8393" lon="2.57188">
        <ele>740.6</ele>
        <time>2021-08-19T14:47:47Z</time>
      </trkpt>
      <trkpt lat="44.83934" lon="2.57188">
        <ele>740.8</ele>
        <time>2021-08-19T14:47:49Z</time>
      </trkpt>
      <trkpt lat="44.83939" lon="2.57188">
        <ele>741.1</ele>
        <time>2021-08-19T14:47:51Z</time>
      </trkpt>
      <trkpt lat="44.83944" lon="2.57188">
        <ele>741.3</ele>
        <time>2021-08-19T14:47:53Z</time>
      </trkpt>
      <trkpt lat="44.83949" lon="2.57188">
        <ele>741.5</ele>
        <time>2021-08-19T14:47:55Z</time>
      </trkpt>
      <trkpt lat="44.83954" lon="2.57186">
        <ele>741.5</ele>
        <time>2021-08-19T14:47:57Z</time>
      </trkpt>
      <trkpt lat="44.83959" lon="2.57184">
        <ele>741.6</ele>
        <time>2021-08-19T14:47:59Z</time>
      </trkpt>
      <trkpt lat="44.83964" lon="2.57183">
        <ele>741.7</ele>
        <time>2021-08-19T14:48:01Z</time>
      </trkpt>
      <trkpt lat="44.83969" lon="2.57182">
        <ele>741.8</ele>
        <time>2021-08-19T14:48:03Z</time>
      </trkpt>
      <trkpt lat="44.83974" lon="2.5718">
        <ele>741.9</ele>
        <time>2021-08-19T14:48:05Z</time>
      </trkpt>
      <trkpt lat="44.83979" lon="2.57178">
        <ele>742</ele>
        <time>2021-08-19T14:48:07Z</time>
      </trkpt>
      <trkpt lat="44.83985" lon="2.57178">
        <ele>742.2</ele>
        <time>2021-08-19T14:48:09Z</time>
      </trkpt>
      <trkpt lat="44.8399" lon="2.57177">
        <ele>742.4</ele>
        <time>2021-08-19T14:48:11Z</time>
      </trkpt>
      <trkpt lat="44.83995" lon="2.57176">
        <ele>742.5</ele>
        <time>2021-08-19T14:48:13Z</time>
      </trkpt>
      <trkpt lat="44.84" lon="2.57175">
        <ele>742.7</ele>
        <time>2021-08-19T14:48:15Z</time>
      </trkpt>
      <trkpt lat="44.84005" lon="2.57175">
        <ele>743.1</ele>
        <time>2021-08-19T14:48:17Z</time>
      </trkpt>
      <trkpt lat="44.8401" lon="2.57175">
        <ele>743.4</ele>
        <time>2021-08-19T14:48:19Z</time>
      </trkpt>
      <trkpt lat="44.84015" lon="2.57175">
        <ele>743.8</ele>
        <time>2021-08-19T14:48:21Z</time>
      </trkpt>
      <trkpt lat="44.84019" lon="2.57174">
        <ele>744.1</ele>
        <time>2021-08-19T14:48:23Z</time>
      </trkpt>
      <trkpt lat="44.84024" lon="2.57173">
        <ele>744.3</ele>
        <time>2021-08-19T14:48:25Z</time>
      </trkpt>
      <trkpt lat="44.84028" lon="2.57172">
        <ele>744.5</ele>
        <time>2021-08-19T14:48:27Z</time>
      </trkpt>
      <trkpt lat="44.84032" lon="2.57172">
        <ele>744.8</ele>
        <time>2021-08-19T14:48:29Z</time>
      </trkpt>
      <trkpt lat="44.84037" lon="2.5717">
        <ele>745</ele>
        <time>2021-08-19T14:48:31Z</time>
      </trkpt>
      <trkpt lat="44.84041" lon="2.5717">
        <ele>745.3</ele>
        <time>2021-08-19T14:48:33Z</time>
      </trkpt>
      <trkpt lat="44.84046" lon="2.5717">
        <ele>745.6</ele>
        <time>2021-08-19T14:48:35Z</time>
      </trkpt>
      <trkpt lat="44.8405" lon="2.57168">
        <ele>745.8</ele>
        <time>2021-08-19T14:48:37Z</time>
      </trkpt>
      <trkpt lat="44.84054" lon="2.57167">
        <ele>745.9</ele>
        <time>2021-08-19T14:48:39Z</time>
      </trkpt>
      <trkpt lat="44.84058" lon="2.57165">
        <ele>746.2</ele>
        <time>2021-08-19T14:48:41Z</time>
      </trkpt>
      <trkpt lat="44.84062" lon="2.57166">
        <ele>746.5</ele>
        <time>2021-08-19T14:48:43Z</time>
      </trkpt>
      <trkpt lat="44.84066" lon="2.57165">
        <ele>746.8</ele>
        <time>2021-08-19T14:48:45Z</time>
      </trkpt>
      <trkpt lat="44.8407" lon="2.57165">
        <ele>747</ele>
        <time>2021-08-19T14:48:47Z</time>
      </trkpt>
      <trkpt lat="44.84074" lon="2.57164">
        <ele>747.3</ele>
        <time>2021-08-19T14:48:49Z</time>
      </trkpt>
      <trkpt lat="44.84079" lon="2.57164">
        <ele>747.6</ele>
        <time>2021-08-19T14:48:51Z</time>
      </trkpt>
      <trkpt lat="44.84083" lon="2.57164">
        <ele>747.9</ele>
        <time>2021-08-19T14:48:53Z</time>
      </trkpt>
      <trkpt lat="44.84087" lon="2.57163">
        <ele>748.1</ele>
        <time>2021-08-19T14:48:55Z</time>
      </trkpt>
      <trkpt lat="44.84092" lon="2.57162">
        <ele>748.2</ele>
        <time>2021-08-19T14:48:57Z</time>
      </trkpt>
      <trkpt lat="44.84096" lon="2.57162">
        <ele>748.4</ele>
        <time>2021-08-19T14:48:59Z</time>
      </trkpt>
      <trkpt lat="44.841" lon="2.57161">
        <ele>748.5</ele>
        <time>2021-08-19T14:49:01Z</time>
      </trkpt>
      <trkpt lat="44.84104" lon="2.5716">
        <ele>748.7</ele>
        <time>2021-08-19T14:49:03Z</time>
      </trkpt>
      <trkpt lat="44.84108" lon="2.57159">
        <ele>748.8</ele>
        <time>2021-08-19T14:49:05Z</time>
      </trkpt>
      <trkpt lat="44.84113" lon="2.57158">
        <ele>749</ele>
        <time>2021-08-19T14:49:07Z</time>
      </trkpt>
      <trkpt lat="44.84117" lon="2.57157">
        <ele>749.1</ele>
        <time>2021-08-19T14:49:09Z</time>
      </trkpt>
      <trkpt lat="44.84122" lon="2.57156">
        <ele>749.3</ele>
        <time>2021-08-19T14:49:11Z</time>
      </trkpt>
      <trkpt lat="44.84125" lon="2.57154">
        <ele>749.4</ele>
        <time>2021-08-19T14:49:13Z</time>
      </trkpt>
      <trkpt lat="44.84128" lon="2.57152">
        <ele>749.4</ele>
        <time>2021-08-19T14:49:15Z</time>
      </trkpt>
      <trkpt lat="44.8413" lon="2.57151">
        <ele>749.5</ele>
        <time>2021-08-19T14:49:17Z</time>
      </trkpt>
      <trkpt lat="44.84133" lon="2.57149">
        <ele>749.6</ele>
        <time>2021-08-19T14:49:19Z</time>
      </trkpt>
      <trkpt lat="44.84135" lon="2.57148">
        <ele>749.7</ele>
        <time>2021-08-19T14:49:21Z</time>
      </trkpt>
      <trkpt lat="44.84138" lon="2.57146">
        <ele>749.7</ele>
        <time>2021-08-19T14:49:23Z</time>
      </trkpt>
      <trkpt lat="44.84141" lon="2.57144">
        <ele>749.8</ele>
        <time>2021-08-19T14:49:25Z</time>
      </trkpt>
      <trkpt lat="44.84143" lon="2.57141">
        <ele>749.8</ele>
        <time>2021-08-19T14:49:27Z</time>
      </trkpt>
      <trkpt lat="44.84145" lon="2.57139">
        <ele>749.9</ele>
        <time>2021-08-19T14:49:29Z</time>
      </trkpt>
      <trkpt lat="44.84148" lon="2.57137">
        <ele>750</ele>
        <time>2021-08-19T14:49:31Z</time>
      </trkpt>
      <trkpt lat="44.84149" lon="2.57136">
        <ele>750</ele>
        <time>2021-08-19T14:49:33Z</time>
      </trkpt>
      <trkpt lat="44.84149" lon="2.57136">
        <ele>750</ele>
        <time>2021-08-19T14:49:35Z</time>
      </trkpt>
      <trkpt lat="44.84149" lon="2.57136">
        <ele>750</ele>
        <time>2021-08-19T14:49:37Z</time>
      </trkpt>
      <trkpt lat="44.84149" lon="2.57136">
        <ele>750</ele>
        <time>2021-08-19T14:49:39Z</time>
      </trkpt>
      <trkpt lat="44.84149" lon="2.57137">
        <ele>750</ele>
        <time>2021-08-19T14:49:41Z</time>
      </trkpt>
      <trkpt lat="44.84151" lon="2.57124">
        <ele>749.9</ele>
        <time>2021-08-19T14:50:51Z</time>
      </trkpt>
      <trkpt lat="44.84152" lon="2.57119">
        <ele>749.9</ele>
        <time>2021-08-19T14:50:53Z</time>
      </trkpt>
      <trkpt lat="44.84153" lon="2.57114">
        <ele>749.9</ele>
        <time>2021-08-19T14:50:55Z</time>
      </trkpt>
      <trkpt lat="44.84154" lon="2.57109">
        <ele>749.8</ele>
        <time>2021-08-19T14:50:57Z</time>
      </trkpt>
      <trkpt lat="44.84154" lon="2.57103">
        <ele>749.8</ele>
        <time>2021-08-19T14:50:59Z</time>
      </trkpt>
      <trkpt lat="44.84154" lon="2.57098">
        <ele>749.7</ele>
        <time>2021-08-19T14:51:01Z</time>
      </trkpt>
      <trkpt lat="44.84154" lon="2.57093">
        <ele>749.6</ele>
        <time>2021-08-19T14:51:03Z</time>
      </trkpt>
      <trkpt lat="44.84154" lon="2.57087">
        <ele>749.6</ele>
        <time>2021-08-19T14:51:05Z</time>
      </trkpt>
      <trkpt lat="44.84154" lon="2.57082">
        <ele>749.6</ele>
        <time>2021-08-19T14:51:07Z</time>
      </trkpt>
      <trkpt lat="44.84154" lon="2.57077">
        <ele>749.7</ele>
        <time>2021-08-19T14:51:09Z</time>
      </trkpt>
      <trkpt lat="44.84154" lon="2.57071">
        <ele>749.8</ele>
        <time>2021-08-19T14:51:11Z</time>
      </trkpt>
      <trkpt lat="44.84155" lon="2.57066">
        <ele>750</ele>
        <time>2021-08-19T14:51:13Z</time>
      </trkpt>
      <trkpt lat="44.84155" lon="2.57061">
        <ele>750.1</ele>
        <time>2021-08-19T14:51:15Z</time>
      </trkpt>
      <trkpt lat="44.84155" lon="2.57057">
        <ele>750.2</ele>
        <time>2021-08-19T14:51:17Z</time>
      </trkpt>
      <trkpt lat="44.84158" lon="2.57055">
        <ele>750.4</ele>
        <time>2021-08-19T14:51:19Z</time>
      </trkpt>
      <trkpt lat="44.8416" lon="2.5705">
        <ele>750.5</ele>
        <time>2021-08-19T14:51:21Z</time>
      </trkpt>
      <trkpt lat="44.84163" lon="2.57046">
        <ele>750.7</ele>
        <time>2021-08-19T14:51:23Z</time>
      </trkpt>
      <trkpt lat="44.84166" lon="2.57044">
        <ele>750.9</ele>
        <time>2021-08-19T14:51:25Z</time>
      </trkpt>
      <trkpt lat="44.84169" lon="2.57041">
        <ele>751.1</ele>
        <time>2021-08-19T14:51:27Z</time>
      </trkpt>
      <trkpt lat="44.84171" lon="2.57039">
        <ele>751.3</ele>
        <time>2021-08-19T14:51:29Z</time>
      </trkpt>
      <trkpt lat="44.84173" lon="2.57037">
        <ele>751.5</ele>
        <time>2021-08-19T14:51:31Z</time>
      </trkpt>
      <trkpt lat="44.84175" lon="2.57034">
        <ele>751.7</ele>
        <time>2021-08-19T14:51:33Z</time>
      </trkpt>
      <trkpt lat="44.84178" lon="2.57032">
        <ele>751.9</ele>
        <time>2021-08-19T14:51:35Z</time>
      </trkpt>
      <trkpt lat="44.8418" lon="2.57029">
        <ele>752.2</ele>
        <time>2021-08-19T14:51:37Z</time>
      </trkpt>
      <trkpt lat="44.84182" lon="2.57026">
        <ele>752.4</ele>
        <time>2021-08-19T14:51:39Z</time>
      </trkpt>
      <trkpt lat="44.84185" lon="2.57024">
        <ele>752.6</ele>
        <time>2021-08-19T14:51:41Z</time>
      </trkpt>
      <trkpt lat="44.84188" lon="2.57022">
        <ele>752.9</ele>
        <time>2021-08-19T14:51:43Z</time>
      </trkpt>
      <trkpt lat="44.84191" lon="2.5702">
        <ele>753.1</ele>
        <time>2021-08-19T14:51:45Z</time>
      </trkpt>
      <trkpt lat="44.84194" lon="2.57017">
        <ele>753.4</ele>
        <time>2021-08-19T14:51:47Z</time>
      </trkpt>
      <trkpt lat="44.84196" lon="2.57014">
        <ele>753.7</ele>
        <time>2021-08-19T14:51:49Z</time>
      </trkpt>
      <trkpt lat="44.84199" lon="2.57013">
        <ele>753.9</ele>
        <time>2021-08-19T14:51:51Z</time>
      </trkpt>
      <trkpt lat="44.84202" lon="2.57011">
        <ele>754.2</ele>
        <time>2021-08-19T14:51:53Z</time>
      </trkpt>
      <trkpt lat="44.84204" lon="2.57008">
        <ele>754.4</ele>
        <time>2021-08-19T14:51:55Z</time>
      </trkpt>
      <trkpt lat="44.84207" lon="2.57006">
        <ele>754.7</ele>
        <time>2021-08-19T14:51:57Z</time>
      </trkpt>
      <trkpt lat="44.8421" lon="2.57004">
        <ele>755</ele>
        <time>2021-08-19T14:51:59Z</time>
      </trkpt>
      <trkpt lat="44.84213" lon="2.57001">
        <ele>755.3</ele>
        <time>2021-08-19T14:52:01Z</time>
      </trkpt>
      <trkpt lat="44.84215" lon="2.56998">
        <ele>755.4</ele>
        <time>2021-08-19T14:52:03Z</time>
      </trkpt>
      <trkpt lat="44.84218" lon="2.56995">
        <ele>755.6</ele>
        <time>2021-08-19T14:52:05Z</time>
      </trkpt>
      <trkpt lat="44.84221" lon="2.56993">
        <ele>755.7</ele>
        <time>2021-08-19T14:52:07Z</time>
      </trkpt>
      <trkpt lat="44.84224" lon="2.5699">
        <ele>755.8</ele>
        <time>2021-08-19T14:52:09Z</time>
      </trkpt>
      <trkpt lat="44.84227" lon="2.56987">
        <ele>756</ele>
        <time>2021-08-19T14:52:11Z</time>
      </trkpt>
      <trkpt lat="44.84229" lon="2.56983">
        <ele>756</ele>
        <time>2021-08-19T14:52:13Z</time>
      </trkpt>
      <trkpt lat="44.84231" lon="2.56981">
        <ele>756.1</ele>
        <time>2021-08-19T14:52:15Z</time>
      </trkpt>
      <trkpt lat="44.84234" lon="2.56977">
        <ele>756.2</ele>
        <time>2021-08-19T14:52:17Z</time>
      </trkpt>
      <trkpt lat="44.84237" lon="2.56975">
        <ele>756.4</ele>
        <time>2021-08-19T14:52:19Z</time>
      </trkpt>
      <trkpt lat="44.8424" lon="2.56971">
        <ele>756.6</ele>
        <time>2021-08-19T14:52:21Z</time>
      </trkpt>
      <trkpt lat="44.84243" lon="2.56968">
        <ele>756.7</ele>
        <time>2021-08-19T14:52:23Z</time>
      </trkpt>
      <trkpt lat="44.84246" lon="2.56966">
        <ele>756.9</ele>
        <time>2021-08-19T14:52:25Z</time>
      </trkpt>
      <trkpt lat="44.84249" lon="2.56964">
        <ele>757.1</ele>
        <time>2021-08-19T14:52:27Z</time>
      </trkpt>
      <trkpt lat="44.84253" lon="2.56961">
        <ele>757.1</ele>
        <time>2021-08-19T14:52:29Z</time>
      </trkpt>
      <trkpt lat="44.84256" lon="2.56958">
        <ele>757</ele>
        <time>2021-08-19T14:52:31Z</time>
      </trkpt>
      <trkpt lat="44.84261" lon="2.56955">
        <ele>756.9</ele>
        <time>2021-08-19T14:52:33Z</time>
      </trkpt>
      <trkpt lat="44.84264" lon="2.56952">
        <ele>756.9</ele>
        <time>2021-08-19T14:52:35Z</time>
      </trkpt>
      <trkpt lat="44.84268" lon="2.5695">
        <ele>756.8</ele>
        <time>2021-08-19T14:52:37Z</time>
      </trkpt>
      <trkpt lat="44.84272" lon="2.56948">
        <ele>756.7</ele>
        <time>2021-08-19T14:52:39Z</time>
      </trkpt>
      <trkpt lat="44.84276" lon="2.56945">
        <ele>756.7</ele>
        <time>2021-08-19T14:52:41Z</time>
      </trkpt>
      <trkpt lat="44.84279" lon="2.56941">
        <ele>756.6</ele>
        <time>2021-08-19T14:52:43Z</time>
      </trkpt>
      <trkpt lat="44.84283" lon="2.56937">
        <ele>756.5</ele>
        <time>2021-08-19T14:52:45Z</time>
      </trkpt>
      <trkpt lat="44.84287" lon="2.56934">
        <ele>756.4</ele>
        <time>2021-08-19T14:52:47Z</time>
      </trkpt>
      <trkpt lat="44.84291" lon="2.56929">
        <ele>756.3</ele>
        <time>2021-08-19T14:52:49Z</time>
      </trkpt>
      <trkpt lat="44.84295" lon="2.56925">
        <ele>756.2</ele>
        <time>2021-08-19T14:52:51Z</time>
      </trkpt>
      <trkpt lat="44.84299" lon="2.5692">
        <ele>756.1</ele>
        <time>2021-08-19T14:52:53Z</time>
      </trkpt>
      <trkpt lat="44.84303" lon="2.56916">
        <ele>756</ele>
        <time>2021-08-19T14:52:55Z</time>
      </trkpt>
      <trkpt lat="44.84307" lon="2.56912">
        <ele>755.7</ele>
        <time>2021-08-19T14:52:57Z</time>
      </trkpt>
      <trkpt lat="44.84311" lon="2.56908">
        <ele>755.5</ele>
        <time>2021-08-19T14:52:59Z</time>
      </trkpt>
      <trkpt lat="44.84315" lon="2.56904">
        <ele>755.3</ele>
        <time>2021-08-19T14:53:01Z</time>
      </trkpt>
      <trkpt lat="44.84319" lon="2.56899">
        <ele>755.1</ele>
        <time>2021-08-19T14:53:03Z</time>
      </trkpt>
      <trkpt lat="44.84323" lon="2.56895">
        <ele>754.9</ele>
        <time>2021-08-19T14:53:05Z</time>
      </trkpt>
      <trkpt lat="44.84326" lon="2.56889">
        <ele>754.6</ele>
        <time>2021-08-19T14:53:07Z</time>
      </trkpt>
      <trkpt lat="44.8433" lon="2.56884">
        <ele>754.4</ele>
        <time>2021-08-19T14:53:09Z</time>
      </trkpt>
      <trkpt lat="44.84334" lon="2.56879">
        <ele>754.1</ele>
        <time>2021-08-19T14:53:11Z</time>
      </trkpt>
      <trkpt lat="44.84338" lon="2.56872">
        <ele>753.7</ele>
        <time>2021-08-19T14:53:13Z</time>
      </trkpt>
      <trkpt lat="44.8434" lon="2.56866">
        <ele>753.3</ele>
        <time>2021-08-19T14:53:15Z</time>
      </trkpt>
      <trkpt lat="44.84343" lon="2.5686">
        <ele>752.9</ele>
        <time>2021-08-19T14:53:17Z</time>
      </trkpt>
      <trkpt lat="44.84345" lon="2.56854">
        <ele>752.6</ele>
        <time>2021-08-19T14:53:19Z</time>
      </trkpt>
      <trkpt lat="44.84348" lon="2.56848">
        <ele>752.3</ele>
        <time>2021-08-19T14:53:21Z</time>
      </trkpt>
      <trkpt lat="44.84351" lon="2.56842">
        <ele>752</ele>
        <time>2021-08-19T14:53:23Z</time>
      </trkpt>
      <trkpt lat="44.84353" lon="2.56835">
        <ele>751.8</ele>
        <time>2021-08-19T14:53:25Z</time>
      </trkpt>
      <trkpt lat="44.84356" lon="2.56831">
        <ele>751.8</ele>
        <time>2021-08-19T14:53:27Z</time>
      </trkpt>
      <trkpt lat="44.84358" lon="2.56825">
        <ele>752</ele>
        <time>2021-08-19T14:53:29Z</time>
      </trkpt>
      <trkpt lat="44.8436" lon="2.56821">
        <ele>752.2</ele>
        <time>2021-08-19T14:53:31Z</time>
      </trkpt>
      <trkpt lat="44.84361" lon="2.56818">
        <ele>752.3</ele>
        <time>2021-08-19T14:53:33Z</time>
      </trkpt>
      <trkpt lat="44.84361" lon="2.56819">
        <ele>752.3</ele>
        <time>2021-08-19T14:53:35Z</time>
      </trkpt>
      <trkpt lat="44.84361" lon="2.56819">
        <ele>752.3</ele>
        <time>2021-08-19T14:53:37Z</time>
      </trkpt>
      <trkpt lat="44.84361" lon="2.56819">
        <ele>752.3</ele>
        <time>2021-08-19T14:53:39Z</time>
      </trkpt>
      <trkpt lat="44.84361" lon="2.56819">
        <ele>752.3</ele>
        <time>2021-08-19T14:53:41Z</time>
      </trkpt>
      <trkpt lat="44.8437" lon="2.56799">
        <ele>753.4</ele>
        <time>2021-08-19T14:55:51Z</time>
      </trkpt>
      <trkpt lat="44.84374" lon="2.56792">
        <ele>753.9</ele>
        <time>2021-08-19T14:55:53Z</time>
      </trkpt>
      <trkpt lat="44.84377" lon="2.56787">
        <ele>754.4</ele>
        <time>2021-08-19T14:55:55Z</time>
      </trkpt>
      <trkpt lat="44.8438" lon="2.56781">
        <ele>754.9</ele>
        <time>2021-08-19T14:55:57Z</time>
      </trkpt>
      <trkpt lat="44.84384" lon="2.56775">
        <ele>755.4</ele>
        <time>2021-08-19T14:55:59Z</time>
      </trkpt>
      <trkpt lat="44.84387" lon="2.56771">
        <ele>756</ele>
        <time>2021-08-19T14:56:01Z</time>
      </trkpt>
      <trkpt lat="44.8439" lon="2.56767">
        <ele>756.5</ele>
        <time>2021-08-19T14:56:03Z</time>
      </trkpt>
      <trkpt lat="44.84394" lon="2.56764">
        <ele>757</ele>
        <time>2021-08-19T14:56:05Z</time>
      </trkpt>
      <trkpt lat="44.84398" lon="2.5676">
        <ele>757.6</ele>
        <time>2021-08-19T14:56:07Z</time>
      </trkpt>
      <trkpt lat="44.84402" lon="2.56754">
        <ele>758.4</ele>
        <time>2021-08-19T14:56:09Z</time>
      </trkpt>
      <trkpt lat="44.84406" lon="2.56751">
        <ele>759.1</ele>
        <time>2021-08-19T14:56:11Z</time>
      </trkpt>
      <trkpt lat="44.8441" lon="2.56748">
        <ele>759.5</ele>
        <time>2021-08-19T14:56:13Z</time>
      </trkpt>
      <trkpt lat="44.84414" lon="2.56745">
        <ele>759.8</ele>
        <time>2021-08-19T14:56:15Z</time>
      </trkpt>
      <trkpt lat="44.84418" lon="2.56741">
        <ele>760.1</ele>
        <time>2021-08-19T14:56:17Z</time>
      </trkpt>
      <trkpt lat="44.84422" lon="2.56738">
        <ele>760.2</ele>
        <time>2021-08-19T14:56:19Z</time>
      </trkpt>
      <trkpt lat="44.84425" lon="2.56735">
        <ele>760.2</ele>
        <time>2021-08-19T14:56:21Z</time>
      </trkpt>
      <trkpt lat="44.84429" lon="2.56733">
        <ele>760.3</ele>
        <time>2021-08-19T14:56:23Z</time>
      </trkpt>
      <trkpt lat="44.84432" lon="2.56731">
        <ele>760.4</ele>
        <time>2021-08-19T14:56:25Z</time>
      </trkpt>
      <trkpt lat="44.84436" lon="2.5673">
        <ele>760.5</ele>
        <time>2021-08-19T14:56:27Z</time>
      </trkpt>
      <trkpt lat="44.8444" lon="2.56727">
        <ele>760.6</ele>
        <time>2021-08-19T14:56:29Z</time>
      </trkpt>
      <trkpt lat="44.84444" lon="2.56726">
        <ele>760.7</ele>
        <time>2021-08-19T14:56:31Z</time>
      </trkpt>
      <trkpt lat="44.84448" lon="2.56723">
        <ele>760.8</ele>
        <time>2021-08-19T14:56:33Z</time>
      </trkpt>
      <trkpt lat="44.84452" lon="2.56721">
        <ele>760.9</ele>
        <time>2021-08-19T14:56:35Z</time>
      </trkpt>
      <trkpt lat="44.84456" lon="2.56719">
        <ele>761.1</ele>
        <time>2021-08-19T14:56:37Z</time>
      </trkpt>
      <trkpt lat="44.8446" lon="2.56717">
        <ele>761.2</ele>
        <time>2021-08-19T14:56:39Z</time>
      </trkpt>
      <trkpt lat="44.84464" lon="2.56715">
        <ele>761.4</ele>
        <time>2021-08-19T14:56:41Z</time>
      </trkpt>
      <trkpt lat="44.84469" lon="2.56714">
        <ele>761.5</ele>
        <time>2021-08-19T14:56:43Z</time>
      </trkpt>
      <trkpt lat="44.84473" lon="2.56713">
        <ele>761.7</ele>
        <time>2021-08-19T14:56:45Z</time>
      </trkpt>
      <trkpt lat="44.84478" lon="2.56711">
        <ele>761.8</ele>
        <time>2021-08-19T14:56:47Z</time>
      </trkpt>
      <trkpt lat="44.84482" lon="2.56709">
        <ele>762</ele>
        <time>2021-08-19T14:56:49Z</time>
      </trkpt>
      <trkpt lat="44.84487" lon="2.56709">
        <ele>762.2</ele>
        <time>2021-08-19T14:56:51Z</time>
      </trkpt>
      <trkpt lat="44.84492" lon="2.56707">
        <ele>762.4</ele>
        <time>2021-08-19T14:56:53Z</time>
      </trkpt>
      <trkpt lat="44.84496" lon="2.56706">
        <ele>762.5</ele>
        <time>2021-08-19T14:56:55Z</time>
      </trkpt>
      <trkpt lat="44.84501" lon="2.56706">
        <ele>762.7</ele>
        <time>2021-08-19T14:56:57Z</time>
      </trkpt>
      <trkpt lat="44.84506" lon="2.56705">
        <ele>762.9</ele>
        <time>2021-08-19T14:56:59Z</time>
      </trkpt>
      <trkpt lat="44.8451" lon="2.56704">
        <ele>763</ele>
        <time>2021-08-19T14:57:01Z</time>
      </trkpt>
      <trkpt lat="44.84514" lon="2.56702">
        <ele>763.3</ele>
        <time>2021-08-19T14:57:03Z</time>
      </trkpt>
      <trkpt lat="44.84519" lon="2.56703">
        <ele>763.4</ele>
        <time>2021-08-19T14:57:05Z</time>
      </trkpt>
      <trkpt lat="44.84523" lon="2.56702">
        <ele>763.5</ele>
        <time>2021-08-19T14:57:07Z</time>
      </trkpt>
      <trkpt lat="44.84528" lon="2.56701">
        <ele>763.7</ele>
        <time>2021-08-19T14:57:09Z</time>
      </trkpt>
      <trkpt lat="44.84532" lon="2.56701">
        <ele>763.8</ele>
        <time>2021-08-19T14:57:11Z</time>
      </trkpt>
      <trkpt lat="44.84536" lon="2.56701">
        <ele>763.9</ele>
        <time>2021-08-19T14:57:13Z</time>
      </trkpt>
      <trkpt lat="44.84541" lon="2.56702">
        <ele>764</ele>
        <time>2021-08-19T14:57:15Z</time>
      </trkpt>
      <trkpt lat="44.84545" lon="2.56702">
        <ele>764.1</ele>
        <time>2021-08-19T14:57:17Z</time>
      </trkpt>
      <trkpt lat="44.8455" lon="2.56702">
        <ele>764.2</ele>
        <time>2021-08-19T14:57:19Z</time>
      </trkpt>
      <trkpt lat="44.84554" lon="2.56701">
        <ele>764.4</ele>
        <time>2021-08-19T14:57:21Z</time>
      </trkpt>
      <trkpt lat="44.84558" lon="2.56702">
        <ele>764.5</ele>
        <time>2021-08-19T14:57:23Z</time>
      </trkpt>
      <trkpt lat="44.84561" lon="2.56702">
        <ele>764.6</ele>
        <time>2021-08-19T14:57:25Z</time>
      </trkpt>
      <trkpt lat="44.84565" lon="2.567">
        <ele>764.7</ele>
        <time>2021-08-19T14:57:27Z</time>
      </trkpt>
      <trkpt lat="44.84568" lon="2.56699">
        <ele>764.8</ele>
        <time>2021-08-19T14:57:29Z</time>
      </trkpt>
      <trkpt lat="44.84572" lon="2.56698">
        <ele>765</ele>
        <time>2021-08-19T14:57:31Z</time>
      </trkpt>
      <trkpt lat="44.84577" lon="2.56696">
        <ele>765.1</ele>
        <time>2021-08-19T14:57:33Z</time>
      </trkpt>
      <trkpt lat="44.84581" lon="2.56694">
        <ele>765.3</ele>
        <time>2021-08-19T14:57:35Z</time>
      </trkpt>
      <trkpt lat="44.84587" lon="2.56693">
        <ele>765.3</ele>
        <time>2021-08-19T14:57:37Z</time>
      </trkpt>
      <trkpt lat="44.84593" lon="2.56692">
        <ele>765.2</ele>
        <time>2021-08-19T14:57:39Z</time>
      </trkpt>
      <trkpt lat="44.84599" lon="2.56688">
        <ele>765.2</ele>
        <time>2021-08-19T14:57:41Z</time>
      </trkpt>
      <trkpt lat="44.84606" lon="2.56686">
        <ele>765</ele>
        <time>2021-08-19T14:57:43Z</time>
      </trkpt>
      <trkpt lat="44.84614" lon="2.56683">
        <ele>764.9</ele>
        <time>2021-08-19T14:57:45Z</time>
      </trkpt>
      <trkpt lat="44.84622" lon="2.56683">
        <ele>764.7</ele>
        <time>2021-08-19T14:57:47Z</time>
      </trkpt>
      <trkpt lat="44.84631" lon="2.56683">
        <ele>764.4</ele>
        <time>2021-08-19T14:57:49Z</time>
      </trkpt>
      <trkpt lat="44.84642" lon="2.56684">
        <ele>764.2</ele>
        <time>2021-08-19T14:57:51Z</time>
      </trkpt>
      <trkpt lat="44.84654" lon="2.56688">
        <ele>764</ele>
        <time>2021-08-19T14:57:53Z</time>
      </trkpt>
      <trkpt lat="44.84668" lon="2.56694">
        <ele>763.9</ele>
        <time>2021-08-19T14:57:55Z</time>
      </trkpt>
      <trkpt lat="44.84682" lon="2.56701">
        <ele>763.3</ele>
        <time>2021-08-19T14:57:57Z</time>
      </trkpt>
      <trkpt lat="44.84697" lon="2.56709">
        <ele>762.5</ele>
        <time>2021-08-19T14:57:59Z</time>
      </trkpt>
      <trkpt lat="44.84713" lon="2.56715">
        <ele>761.7</ele>
        <time>2021-08-19T14:58:01Z</time>
      </trkpt>
      <trkpt lat="44.84729" lon="2.56718">
        <ele>760.7</ele>
        <time>2021-08-19T14:58:03Z</time>
      </trkpt>
      <trkpt lat="44.84745" lon="2.56716">
        <ele>759.5</ele>
        <time>2021-08-19T14:58:05Z</time>
      </trkpt>
      <trkpt lat="44.84759" lon="2.56708">
        <ele>759.2</ele>
        <time>2021-08-19T14:58:07Z</time>
      </trkpt>
      <trkpt lat="44.84771" lon="2.56696">
        <ele>759.3</ele>
        <time>2021-08-19T14:58:09Z</time>
      </trkpt>
      <trkpt lat="44.8478" lon="2.56681">
        <ele>759.5</ele>
        <time>2021-08-19T14:58:11Z</time>
      </trkpt>
      <trkpt lat="44.84787" lon="2.56664">
        <ele>759.7</ele>
        <time>2021-08-19T14:58:13Z</time>
      </trkpt>
      <trkpt lat="44.84793" lon="2.56649">
        <ele>759.9</ele>
        <time>2021-08-19T14:58:15Z</time>
      </trkpt>
      <trkpt lat="44.84799" lon="2.56636">
        <ele>760.3</ele>
        <time>2021-08-19T14:58:17Z</time>
      </trkpt>
      <trkpt lat="44.84804" lon="2.56625">
        <ele>761</ele>
        <time>2021-08-19T14:58:19Z</time>
      </trkpt>
      <trkpt lat="44.84808" lon="2.56615">
        <ele>761.7</ele>
        <time>2021-08-19T14:58:21Z</time>
      </trkpt>
      <trkpt lat="44.84812" lon="2.56606">
        <ele>762.4</ele>
        <time>2021-08-19T14:58:23Z</time>
      </trkpt>
      <trkpt lat="44.84816" lon="2.56598">
        <ele>763.3</ele>
        <time>2021-08-19T14:58:25Z</time>
      </trkpt>
      <trkpt lat="44.8482" lon="2.56592">
        <ele>764.1</ele>
        <time>2021-08-19T14:58:27Z</time>
      </trkpt>
      <trkpt lat="44.84822" lon="2.56586">
        <ele>764.7</ele>
        <time>2021-08-19T14:58:29Z</time>
      </trkpt>
      <trkpt lat="44.84825" lon="2.56581">
        <ele>765.3</ele>
        <time>2021-08-19T14:58:31Z</time>
      </trkpt>
      <trkpt lat="44.84828" lon="2.56577">
        <ele>765.7</ele>
        <time>2021-08-19T14:58:33Z</time>
      </trkpt>
      <trkpt lat="44.84829" lon="2.56571">
        <ele>765.9</ele>
        <time>2021-08-19T14:58:35Z</time>
      </trkpt>
      <trkpt lat="44.84831" lon="2.56565">
        <ele>766.1</ele>
        <time>2021-08-19T14:58:37Z</time>
      </trkpt>
      <trkpt lat="44.84833" lon="2.56559">
        <ele>766.4</ele>
        <time>2021-08-19T14:58:39Z</time>
      </trkpt>
      <trkpt lat="44.84836" lon="2.56553">
        <ele>766.5</ele>
        <time>2021-08-19T14:58:41Z</time>
      </trkpt>
      <trkpt lat="44.84837" lon="2.56546">
        <ele>766.6</ele>
        <time>2021-08-19T14:58:43Z</time>
      </trkpt>
      <trkpt lat="44.8484" lon="2.5654">
        <ele>766.8</ele>
        <time>2021-08-19T14:58:45Z</time>
      </trkpt>
      <trkpt lat="44.84844" lon="2.56535">
        <ele>767</ele>
        <time>2021-08-19T14:58:47Z</time>
      </trkpt>
      <trkpt lat="44.84847" lon="2.56529">
        <ele>767.3</ele>
        <time>2021-08-19T14:58:49Z</time>
      </trkpt>
      <trkpt lat="44.8485" lon="2.56524">
        <ele>767.6</ele>
        <time>2021-08-19T14:58:51Z</time>
      </trkpt>
      <trkpt lat="44.84853" lon="2.56518">
        <ele>767.8</ele>
        <time>2021-08-19T14:58:53Z</time>
      </trkpt>
      <trkpt lat="44.84856" lon="2.56511">
        <ele>768.1</ele>
        <time>2021-08-19T14:58:55Z</time>
      </trkpt>
      <trkpt lat="44.84859" lon="2.56504">
        <ele>768.5</ele>
        <time>2021-08-19T14:58:57Z</time>
      </trkpt>
      <trkpt lat="44.84862" lon="2.56498">
        <ele>768.7</ele>
        <time>2021-08-19T14:58:59Z</time>
      </trkpt>
      <trkpt lat="44.84866" lon="2.56491">
        <ele>768.7</ele>
        <time>2021-08-19T14:59:01Z</time>
      </trkpt>
      <trkpt lat="44.84869" lon="2.56484">
        <ele>768.6</ele>
        <time>2021-08-19T14:59:03Z</time>
      </trkpt>
      <trkpt lat="44.84873" lon="2.56478">
        <ele>768.7</ele>
        <time>2021-08-19T14:59:05Z</time>
      </trkpt>
      <trkpt lat="44.84878" lon="2.56471">
        <ele>768.8</ele>
        <time>2021-08-19T14:59:07Z</time>
      </trkpt>
      <trkpt lat="44.84883" lon="2.56465">
        <ele>768.9</ele>
        <time>2021-08-19T14:59:09Z</time>
      </trkpt>
      <trkpt lat="44.84887" lon="2.56458">
        <ele>768.8</ele>
        <time>2021-08-19T14:59:11Z</time>
      </trkpt>
      <trkpt lat="44.84891" lon="2.56451">
        <ele>768.9</ele>
        <time>2021-08-19T14:59:13Z</time>
      </trkpt>
      <trkpt lat="44.84896" lon="2.56443">
        <ele>768.8</ele>
        <time>2021-08-19T14:59:15Z</time>
      </trkpt>
      <trkpt lat="44.84901" lon="2.56437">
        <ele>768.9</ele>
        <time>2021-08-19T14:59:17Z</time>
      </trkpt>
      <trkpt lat="44.84905" lon="2.5643">
        <ele>768.8</ele>
        <time>2021-08-19T14:59:19Z</time>
      </trkpt>
      <trkpt lat="44.8491" lon="2.56423">
        <ele>768.8</ele>
        <time>2021-08-19T14:59:21Z</time>
      </trkpt>
      <trkpt lat="44.84915" lon="2.56416">
        <ele>768.7</ele>
        <time>2021-08-19T14:59:23Z</time>
      </trkpt>
      <trkpt lat="44.8492" lon="2.56409">
        <ele>768.7</ele>
        <time>2021-08-19T14:59:25Z</time>
      </trkpt>
      <trkpt lat="44.84924" lon="2.56403">
        <ele>768.7</ele>
        <time>2021-08-19T14:59:27Z</time>
      </trkpt>
      <trkpt lat="44.84929" lon="2.56397">
        <ele>769</ele>
        <time>2021-08-19T14:59:29Z</time>
      </trkpt>
      <trkpt lat="44.84934" lon="2.56391">
        <ele>769.1</ele>
        <time>2021-08-19T14:59:31Z</time>
      </trkpt>
      <trkpt lat="44.84939" lon="2.56385">
        <ele>769.2</ele>
        <time>2021-08-19T14:59:33Z</time>
      </trkpt>
      <trkpt lat="44.84943" lon="2.56378">
        <ele>769.2</ele>
        <time>2021-08-19T14:59:35Z</time>
      </trkpt>
      <trkpt lat="44.84949" lon="2.56372">
        <ele>769.6</ele>
        <time>2021-08-19T14:59:37Z</time>
      </trkpt>
      <trkpt lat="44.84954" lon="2.56365">
        <ele>769.8</ele>
        <time>2021-08-19T14:59:39Z</time>
      </trkpt>
      <trkpt lat="44.84959" lon="2.56358">
        <ele>770</ele>
        <time>2021-08-19T14:59:41Z</time>
      </trkpt>
      <trkpt lat="44.84964" lon="2.5635">
        <ele>770.2</ele>
        <time>2021-08-19T14:59:43Z</time>
      </trkpt>
      <trkpt lat="44.84969" lon="2.56342">
        <ele>770.2</ele>
        <time>2021-08-19T14:59:45Z</time>
      </trkpt>
      <trkpt lat="44.84973" lon="2.56336">
        <ele>770.4</ele>
        <time>2021-08-19T14:59:47Z</time>
      </trkpt>
      <trkpt lat="44.84978" lon="2.5633">
        <ele>770.8</ele>
        <time>2021-08-19T14:59:49Z</time>
      </trkpt>
      <trkpt lat="44.84982" lon="2.56322">
        <ele>771</ele>
        <time>2021-08-19T14:59:51Z</time>
      </trkpt>
      <trkpt lat="44.84986" lon="2.56315">
        <ele>771.4</ele>
        <time>2021-08-19T14:59:53Z</time>
      </trkpt>
      <trkpt lat="44.8499" lon="2.56307">
        <ele>771.8</ele>
        <time>2021-08-19T14:59:55Z</time>
      </trkpt>
      <trkpt lat="44.84994" lon="2.56298">
        <ele>772.1</ele>
        <time>2021-08-19T14:59:57Z</time>
      </trkpt>
      <trkpt lat="44.84999" lon="2.56289">
        <ele>772.6</ele>
        <time>2021-08-19T14:59:59Z</time>
      </trkpt>
      <trkpt lat="44.85002" lon="2.5628">
        <ele>772.9</ele>
        <time>2021-08-19T15:00:01Z</time>
      </trkpt>
      <trkpt lat="44.85005" lon="2.56271">
        <ele>773.1</ele>
        <time>2021-08-19T15:00:03Z</time>
      </trkpt>
      <trkpt lat="44.85008" lon="2.56262">
        <ele>773.3</ele>
        <time>2021-08-19T15:00:05Z</time>
      </trkpt>
      <trkpt lat="44.8501" lon="2.56254">
        <ele>773.3</ele>
        <time>2021-08-19T15:00:07Z</time>
      </trkpt>
      <trkpt lat="44.85012" lon="2.56245">
        <ele>773.2</ele>
        <time>2021-08-19T15:00:09Z</time>
      </trkpt>
      <trkpt lat="44.85014" lon="2.56237">
        <ele>772.8</ele>
        <time>2021-08-19T15:00:11Z</time>
      </trkpt>
      <trkpt lat="44.85017" lon="2.56228">
        <ele>772.6</ele>
        <time>2021-08-19T15:00:13Z</time>
      </trkpt>
      <trkpt lat="44.85019" lon="2.56218">
        <ele>772</ele>
        <time>2021-08-19T15:00:15Z</time>
      </trkpt>
      <trkpt lat="44.85021" lon="2.56209">
        <ele>771.5</ele>
        <time>2021-08-19T15:00:17Z</time>
      </trkpt>
      <trkpt lat="44.85023" lon="2.56199">
        <ele>771.1</ele>
        <time>2021-08-19T15:00:19Z</time>
      </trkpt>
      <trkpt lat="44.85025" lon="2.56189">
        <ele>770.6</ele>
        <time>2021-08-19T15:00:21Z</time>
      </trkpt>
      <trkpt lat="44.85027" lon="2.5618">
        <ele>770.2</ele>
        <time>2021-08-19T15:00:23Z</time>
      </trkpt>
      <trkpt lat="44.85029" lon="2.5617">
        <ele>769.6</ele>
        <time>2021-08-19T15:00:25Z</time>
      </trkpt>
      <trkpt lat="44.8503" lon="2.5616">
        <ele>769.1</ele>
        <time>2021-08-19T15:00:27Z</time>
      </trkpt>
      <trkpt lat="44.85031" lon="2.56151">
        <ele>768.9</ele>
        <time>2021-08-19T15:00:29Z</time>
      </trkpt>
      <trkpt lat="44.85033" lon="2.56141">
        <ele>768.8</ele>
        <time>2021-08-19T15:00:31Z</time>
      </trkpt>
      <trkpt lat="44.85034" lon="2.56132">
        <ele>768.5</ele>
        <time>2021-08-19T15:00:33Z</time>
      </trkpt>
      <trkpt lat="44.85036" lon="2.56123">
        <ele>768.3</ele>
        <time>2021-08-19T15:00:35Z</time>
      </trkpt>
      <trkpt lat="44.85039" lon="2.56114">
        <ele>768.1</ele>
        <time>2021-08-19T15:00:37Z</time>
      </trkpt>
      <trkpt lat="44.85042" lon="2.56105">
        <ele>768</ele>
        <time>2021-08-19T15:00:39Z</time>
      </trkpt>
      <trkpt lat="44.85046" lon="2.56096">
        <ele>767.8</ele>
        <time>2021-08-19T15:00:41Z</time>
      </trkpt>
      <trkpt lat="44.8505" lon="2.56088">
        <ele>767.6</ele>
        <time>2021-08-19T15:00:43Z</time>
      </trkpt>
      <trkpt lat="44.85055" lon="2.56081">
        <ele>767.3</ele>
        <time>2021-08-19T15:00:45Z</time>
      </trkpt>
      <trkpt lat="44.85061" lon="2.56076">
        <ele>767.2</ele>
        <time>2021-08-19T15:00:47Z</time>
      </trkpt>
      <trkpt lat="44.85067" lon="2.56071">
        <ele>767.2</ele>
        <time>2021-08-19T15:00:49Z</time>
      </trkpt>
      <trkpt lat="44.85074" lon="2.56068">
        <ele>767.4</ele>
        <time>2021-08-19T15:00:51Z</time>
      </trkpt>
      <trkpt lat="44.85081" lon="2.56068">
        <ele>768</ele>
        <time>2021-08-19T15:00:53Z</time>
      </trkpt>
      <trkpt lat="44.85086" lon="2.5607">
        <ele>768.6</ele>
        <time>2021-08-19T15:00:55Z</time>
      </trkpt>
      <trkpt lat="44.85093" lon="2.56072">
        <ele>769.4</ele>
        <time>2021-08-19T15:00:57Z</time>
      </trkpt>
      <trkpt lat="44.85099" lon="2.56075">
        <ele>770.3</ele>
        <time>2021-08-19T15:00:59Z</time>
      </trkpt>
      <trkpt lat="44.85106" lon="2.56078">
        <ele>771.1</ele>
        <time>2021-08-19T15:01:01Z</time>
      </trkpt>
      <trkpt lat="44.85113" lon="2.56082">
        <ele>772.1</ele>
        <time>2021-08-19T15:01:03Z</time>
      </trkpt>
      <trkpt lat="44.8512" lon="2.56084">
        <ele>772.8</ele>
        <time>2021-08-19T15:01:05Z</time>
      </trkpt>
      <trkpt lat="44.85128" lon="2.56085">
        <ele>773.4</ele>
        <time>2021-08-19T15:01:07Z</time>
      </trkpt>
      <trkpt lat="44.85135" lon="2.56087">
        <ele>774.2</ele>
        <time>2021-08-19T15:01:09Z</time>
      </trkpt>
      <trkpt lat="44.85142" lon="2.56085">
        <ele>774.5</ele>
        <time>2021-08-19T15:01:11Z</time>
      </trkpt>
      <trkpt lat="44.85148" lon="2.56082">
        <ele>774.5</ele>
        <time>2021-08-19T15:01:13Z</time>
      </trkpt>
      <trkpt lat="44.85155" lon="2.56076">
        <ele>774.6</ele>
        <time>2021-08-19T15:01:15Z</time>
      </trkpt>
      <trkpt lat="44.8516" lon="2.56069">
        <ele>774.6</ele>
        <time>2021-08-19T15:01:17Z</time>
      </trkpt>
      <trkpt lat="44.85164" lon="2.5606">
        <ele>774.4</ele>
        <time>2021-08-19T15:01:19Z</time>
      </trkpt>
      <trkpt lat="44.85167" lon="2.56051">
        <ele>774.1</ele>
        <time>2021-08-19T15:01:21Z</time>
      </trkpt>
      <trkpt lat="44.8517" lon="2.56042">
        <ele>773.7</ele>
        <time>2021-08-19T15:01:23Z</time>
      </trkpt>
      <trkpt lat="44.85171" lon="2.5603">
        <ele>773.2</ele>
        <time>2021-08-19T15:01:25Z</time>
      </trkpt>
      <trkpt lat="44.85173" lon="2.5602">
        <ele>772.8</ele>
        <time>2021-08-19T15:01:27Z</time>
      </trkpt>
      <trkpt lat="44.85176" lon="2.56009">
        <ele>772.4</ele>
        <time>2021-08-19T15:01:29Z</time>
      </trkpt>
      <trkpt lat="44.85178" lon="2.55998">
        <ele>772.2</ele>
        <time>2021-08-19T15:01:31Z</time>
      </trkpt>
      <trkpt lat="44.85179" lon="2.55987">
        <ele>772.5</ele>
        <time>2021-08-19T15:01:33Z</time>
      </trkpt>
      <trkpt lat="44.8518" lon="2.55975">
        <ele>772.7</ele>
        <time>2021-08-19T15:01:35Z</time>
      </trkpt>
      <trkpt lat="44.8518" lon="2.55963">
        <ele>772.8</ele>
        <time>2021-08-19T15:01:37Z</time>
      </trkpt>
      <trkpt lat="44.85179" lon="2.55952">
        <ele>772.8</ele>
        <time>2021-08-19T15:01:39Z</time>
      </trkpt>
      <trkpt lat="44.85178" lon="2.55941">
        <ele>772.8</ele>
        <time>2021-08-19T15:01:41Z</time>
      </trkpt>
      <trkpt lat="44.85176" lon="2.5593">
        <ele>772.7</ele>
        <time>2021-08-19T15:01:43Z</time>
      </trkpt>
      <trkpt lat="44.85175" lon="2.55919">
        <ele>772.8</ele>
        <time>2021-08-19T15:01:45Z</time>
      </trkpt>
      <trkpt lat="44.85174" lon="2.55907">
        <ele>773.3</ele>
        <time>2021-08-19T15:01:47Z</time>
      </trkpt>
      <trkpt lat="44.85174" lon="2.55896">
        <ele>773.9</ele>
        <time>2021-08-19T15:01:49Z</time>
      </trkpt>
      <trkpt lat="44.85174" lon="2.55884">
        <ele>774.5</ele>
        <time>2021-08-19T15:01:51Z</time>
      </trkpt>
      <trkpt lat="44.85172" lon="2.55873">
        <ele>774.9</ele>
        <time>2021-08-19T15:01:53Z</time>
      </trkpt>
      <trkpt lat="44.85168" lon="2.55862">
        <ele>775.4</ele>
        <time>2021-08-19T15:01:55Z</time>
      </trkpt>
      <trkpt lat="44.85163" lon="2.55852">
        <ele>775.2</ele>
        <time>2021-08-19T15:01:57Z</time>
      </trkpt>
      <trkpt lat="44.85159" lon="2.55843">
        <ele>774.9</ele>
        <time>2021-08-19T15:01:59Z</time>
      </trkpt>
      <trkpt lat="44.85154" lon="2.55833">
        <ele>774.5</ele>
        <time>2021-08-19T15:02:01Z</time>
      </trkpt>
      <trkpt lat="44.8515" lon="2.55823">
        <ele>774.2</ele>
        <time>2021-08-19T15:02:03Z</time>
      </trkpt>
      <trkpt lat="44.85147" lon="2.55811">
        <ele>774.1</ele>
        <time>2021-08-19T15:02:05Z</time>
      </trkpt>
      <trkpt lat="44.85146" lon="2.55799">
        <ele>774.3</ele>
        <time>2021-08-19T15:02:07Z</time>
      </trkpt>
      <trkpt lat="44.85145" lon="2.55786">
        <ele>774.6</ele>
        <time>2021-08-19T15:02:09Z</time>
      </trkpt>
      <trkpt lat="44.85143" lon="2.55774">
        <ele>774.7</ele>
        <time>2021-08-19T15:02:11Z</time>
      </trkpt>
      <trkpt lat="44.85141" lon="2.55763">
        <ele>774.7</ele>
        <time>2021-08-19T15:02:13Z</time>
      </trkpt>
      <trkpt lat="44.85138" lon="2.55751">
        <ele>774.5</ele>
        <time>2021-08-19T15:02:15Z</time>
      </trkpt>
      <trkpt lat="44.85135" lon="2.5574">
        <ele>774.3</ele>
        <time>2021-08-19T15:02:17Z</time>
      </trkpt>
      <trkpt lat="44.85132" lon="2.55728">
        <ele>774.1</ele>
        <time>2021-08-19T15:02:19Z</time>
      </trkpt>
      <trkpt lat="44.85129" lon="2.55716">
        <ele>774</ele>
        <time>2021-08-19T15:02:21Z</time>
      </trkpt>
      <trkpt lat="44.85126" lon="2.55705">
        <ele>773.8</ele>
        <time>2021-08-19T15:02:23Z</time>
      </trkpt>
      <trkpt lat="44.85124" lon="2.55693">
        <ele>773.9</ele>
        <time>2021-08-19T15:02:25Z</time>
      </trkpt>
      <trkpt lat="44.85122" lon="2.55682">
        <ele>774.1</ele>
        <time>2021-08-19T15:02:27Z</time>
      </trkpt>
      <trkpt lat="44.85121" lon="2.55669">
        <ele>774.5</ele>
        <time>2021-08-19T15:02:29Z</time>
      </trkpt>
      <trkpt lat="44.85121" lon="2.55658">
        <ele>774.1</ele>
        <time>2021-08-19T15:02:31Z</time>
      </trkpt>
      <trkpt lat="44.8512" lon="2.55646">
        <ele>773.7</ele>
        <time>2021-08-19T15:02:33Z</time>
      </trkpt>
      <trkpt lat="44.85121" lon="2.55634">
        <ele>773.3</ele>
        <time>2021-08-19T15:02:35Z</time>
      </trkpt>
      <trkpt lat="44.85122" lon="2.55623">
        <ele>773</ele>
        <time>2021-08-19T15:02:37Z</time>
      </trkpt>
      <trkpt lat="44.85122" lon="2.55611">
        <ele>772.6</ele>
        <time>2021-08-19T15:02:39Z</time>
      </trkpt>
      <trkpt lat="44.85124" lon="2.55598">
        <ele>772.3</ele>
        <time>2021-08-19T15:02:41Z</time>
      </trkpt>
      <trkpt lat="44.85126" lon="2.55586">
        <ele>772.3</ele>
        <time>2021-08-19T15:02:43Z</time>
      </trkpt>
      <trkpt lat="44.85129" lon="2.55574">
        <ele>772</ele>
        <time>2021-08-19T15:02:45Z</time>
      </trkpt>
      <trkpt lat="44.85132" lon="2.55563">
        <ele>771.8</ele>
        <time>2021-08-19T15:02:47Z</time>
      </trkpt>
      <trkpt lat="44.85136" lon="2.55553">
        <ele>771.8</ele>
        <time>2021-08-19T15:02:49Z</time>
      </trkpt>
      <trkpt lat="44.8514" lon="2.55543">
        <ele>771.7</ele>
        <time>2021-08-19T15:02:51Z</time>
      </trkpt>
      <trkpt lat="44.85144" lon="2.55533">
        <ele>771.7</ele>
        <time>2021-08-19T15:02:53Z</time>
      </trkpt>
      <trkpt lat="44.85149" lon="2.55525">
        <ele>771.9</ele>
        <time>2021-08-19T15:02:55Z</time>
      </trkpt>
      <trkpt lat="44.85154" lon="2.55517">
        <ele>772.2</ele>
        <time>2021-08-19T15:02:57Z</time>
      </trkpt>
      <trkpt lat="44.8516" lon="2.55508">
        <ele>772.5</ele>
        <time>2021-08-19T15:02:59Z</time>
      </trkpt>
      <trkpt lat="44.85165" lon="2.555">
        <ele>772.8</ele>
        <time>2021-08-19T15:03:01Z</time>
      </trkpt>
      <trkpt lat="44.85171" lon="2.55493">
        <ele>772.5</ele>
        <time>2021-08-19T15:03:03Z</time>
      </trkpt>
      <trkpt lat="44.85177" lon="2.55489">
        <ele>772.5</ele>
        <time>2021-08-19T15:03:05Z</time>
      </trkpt>
      <trkpt lat="44.85184" lon="2.55484">
        <ele>772.4</ele>
        <time>2021-08-19T15:03:07Z</time>
      </trkpt>
      <trkpt lat="44.8519" lon="2.55478">
        <ele>772.4</ele>
        <time>2021-08-19T15:03:09Z</time>
      </trkpt>
      <trkpt lat="44.85196" lon="2.55472">
        <ele>772.4</ele>
        <time>2021-08-19T15:03:11Z</time>
      </trkpt>
      <trkpt lat="44.85202" lon="2.55465">
        <ele>772.6</ele>
        <time>2021-08-19T15:03:13Z</time>
      </trkpt>
      <trkpt lat="44.85208" lon="2.55458">
        <ele>772.7</ele>
        <time>2021-08-19T15:03:15Z</time>
      </trkpt>
      <trkpt lat="44.85213" lon="2.55449">
        <ele>772.8</ele>
        <time>2021-08-19T15:03:17Z</time>
      </trkpt>
      <trkpt lat="44.85217" lon="2.55438">
        <ele>772.9</ele>
        <time>2021-08-19T15:03:19Z</time>
      </trkpt>
      <trkpt lat="44.8522" lon="2.55426">
        <ele>772.9</ele>
        <time>2021-08-19T15:03:21Z</time>
      </trkpt>
      <trkpt lat="44.8522" lon="2.55413">
        <ele>772.6</ele>
        <time>2021-08-19T15:03:23Z</time>
      </trkpt>
      <trkpt lat="44.8522" lon="2.554">
        <ele>772</ele>
        <time>2021-08-19T15:03:25Z</time>
      </trkpt>
      <trkpt lat="44.85218" lon="2.55387">
        <ele>771.3</ele>
        <time>2021-08-19T15:03:27Z</time>
      </trkpt>
      <trkpt lat="44.85216" lon="2.55373">
        <ele>770.6</ele>
        <time>2021-08-19T15:03:29Z</time>
      </trkpt>
      <trkpt lat="44.85214" lon="2.5536">
        <ele>769.9</ele>
        <time>2021-08-19T15:03:31Z</time>
      </trkpt>
      <trkpt lat="44.85213" lon="2.55348">
        <ele>769.3</ele>
        <time>2021-08-19T15:03:33Z</time>
      </trkpt>
      <trkpt lat="44.85211" lon="2.55334">
        <ele>768.8</ele>
        <time>2021-08-19T15:03:35Z</time>
      </trkpt>
      <trkpt lat="44.8521" lon="2.55321">
        <ele>768.9</ele>
        <time>2021-08-19T15:03:37Z</time>
      </trkpt>
      <trkpt lat="44.85209" lon="2.55309">
        <ele>769.1</ele>
        <time>2021-08-19T15:03:39Z</time>
      </trkpt>
      <trkpt lat="44.85208" lon="2.55296">
        <ele>769.4</ele>
        <time>2021-08-19T15:03:41Z</time>
      </trkpt>
      <trkpt lat="44.85207" lon="2.55285">
        <ele>769.6</ele>
        <time>2021-08-19T15:03:43Z</time>
      </trkpt>
      <trkpt lat="44.85207" lon="2.55274">
        <ele>769.9</ele>
        <time>2021-08-19T15:03:45Z</time>
      </trkpt>
      <trkpt lat="44.85207" lon="2.55264">
        <ele>770.2</ele>
        <time>2021-08-19T15:03:47Z</time>
      </trkpt>
      <trkpt lat="44.85208" lon="2.55254">
        <ele>770.4</ele>
        <time>2021-08-19T15:03:49Z</time>
      </trkpt>
      <trkpt lat="44.85209" lon="2.55245">
        <ele>770.6</ele>
        <time>2021-08-19T15:03:51Z</time>
      </trkpt>
      <trkpt lat="44.85209" lon="2.55236">
        <ele>770.8</ele>
        <time>2021-08-19T15:03:53Z</time>
      </trkpt>
      <trkpt lat="44.8521" lon="2.55227">
        <ele>771.1</ele>
        <time>2021-08-19T15:03:55Z</time>
      </trkpt>
      <trkpt lat="44.85211" lon="2.55217">
        <ele>771.3</ele>
        <time>2021-08-19T15:03:57Z</time>
      </trkpt>
      <trkpt lat="44.85212" lon="2.55208">
        <ele>771.5</ele>
        <time>2021-08-19T15:03:59Z</time>
      </trkpt>
      <trkpt lat="44.85213" lon="2.55199">
        <ele>771.8</ele>
        <time>2021-08-19T15:04:01Z</time>
      </trkpt>
      <trkpt lat="44.85214" lon="2.55189">
        <ele>772.1</ele>
        <time>2021-08-19T15:04:03Z</time>
      </trkpt>
      <trkpt lat="44.85214" lon="2.5518">
        <ele>772.3</ele>
        <time>2021-08-19T15:04:05Z</time>
      </trkpt>
      <trkpt lat="44.85215" lon="2.55171">
        <ele>772.6</ele>
        <time>2021-08-19T15:04:07Z</time>
      </trkpt>
      <trkpt lat="44.85217" lon="2.55161">
        <ele>772.7</ele>
        <time>2021-08-19T15:04:09Z</time>
      </trkpt>
      <trkpt lat="44.85218" lon="2.55153">
        <ele>772.6</ele>
        <time>2021-08-19T15:04:11Z</time>
      </trkpt>
      <trkpt lat="44.8522" lon="2.55146">
        <ele>772.6</ele>
        <time>2021-08-19T15:04:13Z</time>
      </trkpt>
      <trkpt lat="44.85222" lon="2.55138">
        <ele>772.5</ele>
        <time>2021-08-19T15:04:15Z</time>
      </trkpt>
      <trkpt lat="44.85224" lon="2.55129">
        <ele>772.5</ele>
        <time>2021-08-19T15:04:17Z</time>
      </trkpt>
      <trkpt lat="44.85226" lon="2.55121">
        <ele>772.6</ele>
        <time>2021-08-19T15:04:19Z</time>
      </trkpt>
      <trkpt lat="44.85229" lon="2.55112">
        <ele>772.7</ele>
        <time>2021-08-19T15:04:21Z</time>
      </trkpt>
      <trkpt lat="44.85231" lon="2.55102">
        <ele>772.9</ele>
        <time>2021-08-19T15:04:23Z</time>
      </trkpt>
      <trkpt lat="44.85232" lon="2.55093">
        <ele>773</ele>
        <time>2021-08-19T15:04:25Z</time>
      </trkpt>
      <trkpt lat="44.85234" lon="2.55084">
        <ele>773.1</ele>
        <time>2021-08-19T15:04:27Z</time>
      </trkpt>
      <trkpt lat="44.85235" lon="2.55074">
        <ele>773.1</ele>
        <time>2021-08-19T15:04:29Z</time>
      </trkpt>
      <trkpt lat="44.85236" lon="2.55066">
        <ele>773.2</ele>
        <time>2021-08-19T15:04:31Z</time>
      </trkpt>
      <trkpt lat="44.85238" lon="2.55057">
        <ele>773.4</ele>
        <time>2021-08-19T15:04:33Z</time>
      </trkpt>
      <trkpt lat="44.8524" lon="2.55048">
        <ele>773.5</ele>
        <time>2021-08-19T15:04:35Z</time>
      </trkpt>
      <trkpt lat="44.85241" lon="2.55038">
        <ele>773.5</ele>
        <time>2021-08-19T15:04:37Z</time>
      </trkpt>
      <trkpt lat="44.85242" lon="2.5503">
        <ele>773.5</ele>
        <time>2021-08-19T15:04:39Z</time>
      </trkpt>
      <trkpt lat="44.85242" lon="2.5502">
        <ele>773.4</ele>
        <time>2021-08-19T15:04:41Z</time>
      </trkpt>
      <trkpt lat="44.85242" lon="2.55011">
        <ele>773.3</ele>
        <time>2021-08-19T15:04:43Z</time>
      </trkpt>
      <trkpt lat="44.85242" lon="2.55002">
        <ele>773.2</ele>
        <time>2021-08-19T15:04:45Z</time>
      </trkpt>
      <trkpt lat="44.85242" lon="2.54995">
        <ele>773.6</ele>
        <time>2021-08-19T15:04:47Z</time>
      </trkpt>
      <trkpt lat="44.85242" lon="2.54987">
        <ele>774.1</ele>
        <time>2021-08-19T15:04:49Z</time>
      </trkpt>
      <trkpt lat="44.85241" lon="2.5498">
        <ele>774.6</ele>
        <time>2021-08-19T15:04:51Z</time>
      </trkpt>
      <trkpt lat="44.85241" lon="2.54972">
        <ele>775.1</ele>
        <time>2021-08-19T15:04:53Z</time>
      </trkpt>
      <trkpt lat="44.8524" lon="2.54965">
        <ele>775.5</ele>
        <time>2021-08-19T15:04:55Z</time>
      </trkpt>
      <trkpt lat="44.8524" lon="2.54958">
        <ele>776</ele>
        <time>2021-08-19T15:04:57Z</time>
      </trkpt>
      <trkpt lat="44.8524" lon="2.54951">
        <ele>776.5</ele>
        <time>2021-08-19T15:04:59Z</time>
      </trkpt>
      <trkpt lat="44.85239" lon="2.54944">
        <ele>776.9</ele>
        <time>2021-08-19T15:05:01Z</time>
      </trkpt>
      <trkpt lat="44.85239" lon="2.54938">
        <ele>777.3</ele>
        <time>2021-08-19T15:05:03Z</time>
      </trkpt>
      <trkpt lat="44.85238" lon="2.54931">
        <ele>777.7</ele>
        <time>2021-08-19T15:05:05Z</time>
      </trkpt>
      <trkpt lat="44.85238" lon="2.54924">
        <ele>778.2</ele>
        <time>2021-08-19T15:05:07Z</time>
      </trkpt>
      <trkpt lat="44.85238" lon="2.54918">
        <ele>778.6</ele>
        <time>2021-08-19T15:05:09Z</time>
      </trkpt>
      <trkpt lat="44.85237" lon="2.5491">
        <ele>779.1</ele>
        <time>2021-08-19T15:05:11Z</time>
      </trkpt>
      <trkpt lat="44.85237" lon="2.54904">
        <ele>779.5</ele>
        <time>2021-08-19T15:05:13Z</time>
      </trkpt>
      <trkpt lat="44.85237" lon="2.54898">
        <ele>780</ele>
        <time>2021-08-19T15:05:15Z</time>
      </trkpt>
      <trkpt lat="44.85237" lon="2.54892">
        <ele>780.5</ele>
        <time>2021-08-19T15:05:17Z</time>
      </trkpt>
      <trkpt lat="44.85238" lon="2.54885">
        <ele>781</ele>
        <time>2021-08-19T15:05:19Z</time>
      </trkpt>
      <trkpt lat="44.85237" lon="2.54879">
        <ele>781.4</ele>
        <time>2021-08-19T15:05:21Z</time>
      </trkpt>
      <trkpt lat="44.85237" lon="2.54873">
        <ele>781.8</ele>
        <time>2021-08-19T15:05:23Z</time>
      </trkpt>
      <trkpt lat="44.85238" lon="2.54867">
        <ele>782.4</ele>
        <time>2021-08-19T15:05:25Z</time>
      </trkpt>
      <trkpt lat="44.85239" lon="2.5486">
        <ele>783</ele>
        <time>2021-08-19T15:05:27Z</time>
      </trkpt>
      <trkpt lat="44.85239" lon="2.54854">
        <ele>783.5</ele>
        <time>2021-08-19T15:05:29Z</time>
      </trkpt>
      <trkpt lat="44.85238" lon="2.54848">
        <ele>784</ele>
        <time>2021-08-19T15:05:31Z</time>
      </trkpt>
      <trkpt lat="44.85238" lon="2.54842">
        <ele>784.4</ele>
        <time>2021-08-19T15:05:33Z</time>
      </trkpt>
      <trkpt lat="44.85239" lon="2.54836">
        <ele>784.9</ele>
        <time>2021-08-19T15:05:35Z</time>
      </trkpt>
      <trkpt lat="44.85239" lon="2.5483">
        <ele>785.2</ele>
        <time>2021-08-19T15:05:37Z</time>
      </trkpt>
      <trkpt lat="44.85239" lon="2.54824">
        <ele>785.3</ele>
        <time>2021-08-19T15:05:39Z</time>
      </trkpt>
      <trkpt lat="44.8524" lon="2.54818">
        <ele>785.6</ele>
        <time>2021-08-19T15:05:41Z</time>
      </trkpt>
      <trkpt lat="44.8524" lon="2.54811">
        <ele>785.8</ele>
        <time>2021-08-19T15:05:43Z</time>
      </trkpt>
      <trkpt lat="44.85241" lon="2.54805">
        <ele>785.9</ele>
        <time>2021-08-19T15:05:45Z</time>
      </trkpt>
      <trkpt lat="44.85241" lon="2.54799">
        <ele>786.1</ele>
        <time>2021-08-19T15:05:47Z</time>
      </trkpt>
      <trkpt lat="44.85242" lon="2.54792">
        <ele>786.3</ele>
        <time>2021-08-19T15:05:49Z</time>
      </trkpt>
      <trkpt lat="44.85242" lon="2.54786">
        <ele>786.5</ele>
        <time>2021-08-19T15:05:51Z</time>
      </trkpt>
      <trkpt lat="44.85243" lon="2.54779">
        <ele>786.7</ele>
        <time>2021-08-19T15:05:53Z</time>
      </trkpt>
      <trkpt lat="44.85243" lon="2.54773">
        <ele>786.8</ele>
        <time>2021-08-19T15:05:55Z</time>
      </trkpt>
      <trkpt lat="44.85244" lon="2.54766">
        <ele>787</ele>
        <time>2021-08-19T15:05:57Z</time>
      </trkpt>
      <trkpt lat="44.85244" lon="2.5476">
        <ele>787.1</ele>
        <time>2021-08-19T15:05:59Z</time>
      </trkpt>
      <trkpt lat="44.85244" lon="2.54753">
        <ele>787.3</ele>
        <time>2021-08-19T15:06:01Z</time>
      </trkpt>
      <trkpt lat="44.85245" lon="2.54746">
        <ele>787.5</ele>
        <time>2021-08-19T15:06:03Z</time>
      </trkpt>
      <trkpt lat="44.85246" lon="2.54739">
        <ele>787.9</ele>
        <time>2021-08-19T15:06:05Z</time>
      </trkpt>
      <trkpt lat="44.85246" lon="2.54732">
        <ele>788.2</ele>
        <time>2021-08-19T15:06:07Z</time>
      </trkpt>
      <trkpt lat="44.85247" lon="2.54725">
        <ele>788.5</ele>
        <time>2021-08-19T15:06:09Z</time>
      </trkpt>
      <trkpt lat="44.85247" lon="2.54719">
        <ele>788.8</ele>
        <time>2021-08-19T15:06:11Z</time>
      </trkpt>
      <trkpt lat="44.85248" lon="2.54712">
        <ele>789.1</ele>
        <time>2021-08-19T15:06:13Z</time>
      </trkpt>
      <trkpt lat="44.85249" lon="2.54706">
        <ele>789.4</ele>
        <time>2021-08-19T15:06:15Z</time>
      </trkpt>
      <trkpt lat="44.85249" lon="2.54699">
        <ele>789.7</ele>
        <time>2021-08-19T15:06:17Z</time>
      </trkpt>
      <trkpt lat="44.85249" lon="2.54693">
        <ele>790</ele>
        <time>2021-08-19T15:06:19Z</time>
      </trkpt>
      <trkpt lat="44.8525" lon="2.54686">
        <ele>790.3</ele>
        <time>2021-08-19T15:06:21Z</time>
      </trkpt>
      <trkpt lat="44.8525" lon="2.54679">
        <ele>790.5</ele>
        <time>2021-08-19T15:06:23Z</time>
      </trkpt>
      <trkpt lat="44.8525" lon="2.54673">
        <ele>790.8</ele>
        <time>2021-08-19T15:06:25Z</time>
      </trkpt>
      <trkpt lat="44.85251" lon="2.54666">
        <ele>791</ele>
        <time>2021-08-19T15:06:27Z</time>
      </trkpt>
      <trkpt lat="44.85251" lon="2.5466">
        <ele>791</ele>
        <time>2021-08-19T15:06:29Z</time>
      </trkpt>
      <trkpt lat="44.85252" lon="2.54654">
        <ele>791</ele>
        <time>2021-08-19T15:06:31Z</time>
      </trkpt>
      <trkpt lat="44.85252" lon="2.54648">
        <ele>791.1</ele>
        <time>2021-08-19T15:06:33Z</time>
      </trkpt>
      <trkpt lat="44.85253" lon="2.54642">
        <ele>791.1</ele>
        <time>2021-08-19T15:06:35Z</time>
      </trkpt>
      <trkpt lat="44.85254" lon="2.54636">
        <ele>791.1</ele>
        <time>2021-08-19T15:06:37Z</time>
      </trkpt>
      <trkpt lat="44.85254" lon="2.5463">
        <ele>791.2</ele>
        <time>2021-08-19T15:06:39Z</time>
      </trkpt>
      <trkpt lat="44.85255" lon="2.54625">
        <ele>791.2</ele>
        <time>2021-08-19T15:06:41Z</time>
      </trkpt>
      <trkpt lat="44.85255" lon="2.54619">
        <ele>791.3</ele>
        <time>2021-08-19T15:06:43Z</time>
      </trkpt>
      <trkpt lat="44.85256" lon="2.54613">
        <ele>791.3</ele>
        <time>2021-08-19T15:06:45Z</time>
      </trkpt>
      <trkpt lat="44.85256" lon="2.54607">
        <ele>791.3</ele>
        <time>2021-08-19T15:06:47Z</time>
      </trkpt>
      <trkpt lat="44.85256" lon="2.54602">
        <ele>791.4</ele>
        <time>2021-08-19T15:06:49Z</time>
      </trkpt>
      <trkpt lat="44.85256" lon="2.54596">
        <ele>791.4</ele>
        <time>2021-08-19T15:06:51Z</time>
      </trkpt>
      <trkpt lat="44.85257" lon="2.54591">
        <ele>791.4</ele>
        <time>2021-08-19T15:06:53Z</time>
      </trkpt>
      <trkpt lat="44.85257" lon="2.54586">
        <ele>791.4</ele>
        <time>2021-08-19T15:06:55Z</time>
      </trkpt>
      <trkpt lat="44.85258" lon="2.54581">
        <ele>791.5</ele>
        <time>2021-08-19T15:06:57Z</time>
      </trkpt>
      <trkpt lat="44.85258" lon="2.54576">
        <ele>791.5</ele>
        <time>2021-08-19T15:06:59Z</time>
      </trkpt>
      <trkpt lat="44.85257" lon="2.5457">
        <ele>791.6</ele>
        <time>2021-08-19T15:07:01Z</time>
      </trkpt>
      <trkpt lat="44.85255" lon="2.54567">
        <ele>791.8</ele>
        <time>2021-08-19T15:07:03Z</time>
      </trkpt>
      <trkpt lat="44.85255" lon="2.54564">
        <ele>791.9</ele>
        <time>2021-08-19T15:07:05Z</time>
      </trkpt>
      <trkpt lat="44.85255" lon="2.54565">
        <ele>791.9</ele>
        <time>2021-08-19T15:07:07Z</time>
      </trkpt>
      <trkpt lat="44.85255" lon="2.54565">
        <ele>791.9</ele>
        <time>2021-08-19T15:07:09Z</time>
      </trkpt>
      <trkpt lat="44.85255" lon="2.54565">
        <ele>791.9</ele>
        <time>2021-08-19T15:07:11Z</time>
      </trkpt>
      <trkpt lat="44.85255" lon="2.54565">
        <ele>791.8</ele>
        <time>2021-08-19T15:07:13Z</time>
      </trkpt>
      <trkpt lat="44.85264" lon="2.54546">
        <ele>791.4</ele>
        <time>2021-08-19T15:11:31Z</time>
      </trkpt>
      <trkpt lat="44.85265" lon="2.54541">
        <ele>791.4</ele>
        <time>2021-08-19T15:11:33Z</time>
      </trkpt>
      <trkpt lat="44.85268" lon="2.54536">
        <ele>791.3</ele>
        <time>2021-08-19T15:11:35Z</time>
      </trkpt>
      <trkpt lat="44.8527" lon="2.5453">
        <ele>791.2</ele>
        <time>2021-08-19T15:11:37Z</time>
      </trkpt>
      <trkpt lat="44.85272" lon="2.54524">
        <ele>791.1</ele>
        <time>2021-08-19T15:11:39Z</time>
      </trkpt>
      <trkpt lat="44.85274" lon="2.54519">
        <ele>791</ele>
        <time>2021-08-19T15:11:41Z</time>
      </trkpt>
      <trkpt lat="44.85277" lon="2.54513">
        <ele>790.9</ele>
        <time>2021-08-19T15:11:43Z</time>
      </trkpt>
      <trkpt lat="44.85279" lon="2.54507">
        <ele>790.8</ele>
        <time>2021-08-19T15:11:45Z</time>
      </trkpt>
      <trkpt lat="44.85281" lon="2.545">
        <ele>790.8</ele>
        <time>2021-08-19T15:11:47Z</time>
      </trkpt>
      <trkpt lat="44.85284" lon="2.54494">
        <ele>790.8</ele>
        <time>2021-08-19T15:11:49Z</time>
      </trkpt>
      <trkpt lat="44.85286" lon="2.54488">
        <ele>791</ele>
        <time>2021-08-19T15:11:51Z</time>
      </trkpt>
      <trkpt lat="44.85289" lon="2.54483">
        <ele>791.1</ele>
        <time>2021-08-19T15:11:53Z</time>
      </trkpt>
      <trkpt lat="44.85292" lon="2.54477">
        <ele>791.2</ele>
        <time>2021-08-19T15:11:55Z</time>
      </trkpt>
      <trkpt lat="44.85295" lon="2.54471">
        <ele>791.4</ele>
        <time>2021-08-19T15:11:57Z</time>
      </trkpt>
      <trkpt lat="44.85298" lon="2.54464">
        <ele>791.7</ele>
        <time>2021-08-19T15:11:59Z</time>
      </trkpt>
      <trkpt lat="44.85301" lon="2.54458">
        <ele>791.9</ele>
        <time>2021-08-19T15:12:01Z</time>
      </trkpt>
      <trkpt lat="44.85305" lon="2.54451">
        <ele>792.2</ele>
        <time>2021-08-19T15:12:03Z</time>
      </trkpt>
      <trkpt lat="44.85308" lon="2.54445">
        <ele>792.4</ele>
        <time>2021-08-19T15:12:05Z</time>
      </trkpt>
      <trkpt lat="44.85311" lon="2.54439">
        <ele>792.8</ele>
        <time>2021-08-19T15:12:07Z</time>
      </trkpt>
      <trkpt lat="44.85313" lon="2.54432">
        <ele>793.1</ele>
        <time>2021-08-19T15:12:09Z</time>
      </trkpt>
      <trkpt lat="44.85316" lon="2.54426">
        <ele>793.5</ele>
        <time>2021-08-19T15:12:11Z</time>
      </trkpt>
      <trkpt lat="44.85319" lon="2.5442">
        <ele>793.9</ele>
        <time>2021-08-19T15:12:13Z</time>
      </trkpt>
      <trkpt lat="44.85322" lon="2.54413">
        <ele>794.2</ele>
        <time>2021-08-19T15:12:15Z</time>
      </trkpt>
      <trkpt lat="44.85325" lon="2.54407">
        <ele>794.2</ele>
        <time>2021-08-19T15:12:17Z</time>
      </trkpt>
      <trkpt lat="44.85328" lon="2.544">
        <ele>794.3</ele>
        <time>2021-08-19T15:12:19Z</time>
      </trkpt>
      <trkpt lat="44.85331" lon="2.54394">
        <ele>794.3</ele>
        <time>2021-08-19T15:12:21Z</time>
      </trkpt>
      <trkpt lat="44.85333" lon="2.54389">
        <ele>794.3</ele>
        <time>2021-08-19T15:12:23Z</time>
      </trkpt>
      <trkpt lat="44.85335" lon="2.54382">
        <ele>794.2</ele>
        <time>2021-08-19T15:12:25Z</time>
      </trkpt>
      <trkpt lat="44.85337" lon="2.54375">
        <ele>794</ele>
        <time>2021-08-19T15:12:27Z</time>
      </trkpt>
      <trkpt lat="44.8534" lon="2.54368">
        <ele>793.8</ele>
        <time>2021-08-19T15:12:29Z</time>
      </trkpt>
      <trkpt lat="44.85342" lon="2.54361">
        <ele>793.7</ele>
        <time>2021-08-19T15:12:31Z</time>
      </trkpt>
      <trkpt lat="44.85345" lon="2.54354">
        <ele>793.5</ele>
        <time>2021-08-19T15:12:33Z</time>
      </trkpt>
      <trkpt lat="44.85348" lon="2.54347">
        <ele>793.5</ele>
        <time>2021-08-19T15:12:35Z</time>
      </trkpt>
      <trkpt lat="44.8535" lon="2.54341">
        <ele>793.4</ele>
        <time>2021-08-19T15:12:37Z</time>
      </trkpt>
      <trkpt lat="44.85353" lon="2.54335">
        <ele>793.3</ele>
        <time>2021-08-19T15:12:39Z</time>
      </trkpt>
      <trkpt lat="44.85355" lon="2.54328">
        <ele>793.2</ele>
        <time>2021-08-19T15:12:41Z</time>
      </trkpt>
      <trkpt lat="44.85357" lon="2.54322">
        <ele>793.2</ele>
        <time>2021-08-19T15:12:43Z</time>
      </trkpt>
      <trkpt lat="44.85359" lon="2.54316">
        <ele>793.3</ele>
        <time>2021-08-19T15:12:45Z</time>
      </trkpt>
      <trkpt lat="44.85362" lon="2.54309">
        <ele>793.3</ele>
        <time>2021-08-19T15:12:47Z</time>
      </trkpt>
      <trkpt lat="44.85364" lon="2.54303">
        <ele>793.5</ele>
        <time>2021-08-19T15:12:49Z</time>
      </trkpt>
      <trkpt lat="44.85366" lon="2.54298">
        <ele>793.6</ele>
        <time>2021-08-19T15:12:51Z</time>
      </trkpt>
      <trkpt lat="44.85369" lon="2.54292">
        <ele>793.8</ele>
        <time>2021-08-19T15:12:53Z</time>
      </trkpt>
      <trkpt lat="44.85372" lon="2.54286">
        <ele>794.1</ele>
        <time>2021-08-19T15:12:55Z</time>
      </trkpt>
      <trkpt lat="44.85374" lon="2.5428">
        <ele>794.4</ele>
        <time>2021-08-19T15:12:57Z</time>
      </trkpt>
      <trkpt lat="44.85377" lon="2.54274">
        <ele>794.7</ele>
        <time>2021-08-19T15:12:59Z</time>
      </trkpt>
      <trkpt lat="44.85379" lon="2.54269">
        <ele>795.1</ele>
        <time>2021-08-19T15:13:01Z</time>
      </trkpt>
      <trkpt lat="44.85382" lon="2.54264">
        <ele>795.6</ele>
        <time>2021-08-19T15:13:03Z</time>
      </trkpt>
      <trkpt lat="44.85385" lon="2.54259">
        <ele>796.1</ele>
        <time>2021-08-19T15:13:05Z</time>
      </trkpt>
      <trkpt lat="44.85388" lon="2.54253">
        <ele>796.7</ele>
        <time>2021-08-19T15:13:07Z</time>
      </trkpt>
      <trkpt lat="44.85391" lon="2.54248">
        <ele>797.1</ele>
        <time>2021-08-19T15:13:09Z</time>
      </trkpt>
      <trkpt lat="44.85394" lon="2.54243">
        <ele>797.3</ele>
        <time>2021-08-19T15:13:11Z</time>
      </trkpt>
      <trkpt lat="44.85398" lon="2.54238">
        <ele>797.6</ele>
        <time>2021-08-19T15:13:13Z</time>
      </trkpt>
      <trkpt lat="44.85402" lon="2.54232">
        <ele>797.9</ele>
        <time>2021-08-19T15:13:15Z</time>
      </trkpt>
      <trkpt lat="44.85405" lon="2.54227">
        <ele>798.2</ele>
        <time>2021-08-19T15:13:17Z</time>
      </trkpt>
      <trkpt lat="44.8541" lon="2.54223">
        <ele>798.7</ele>
        <time>2021-08-19T15:13:19Z</time>
      </trkpt>
      <trkpt lat="44.85415" lon="2.54218">
        <ele>799.2</ele>
        <time>2021-08-19T15:13:21Z</time>
      </trkpt>
      <trkpt lat="44.8542" lon="2.54213">
        <ele>799.3</ele>
        <time>2021-08-19T15:13:23Z</time>
      </trkpt>
      <trkpt lat="44.85424" lon="2.54206">
        <ele>799.2</ele>
        <time>2021-08-19T15:13:25Z</time>
      </trkpt>
      <trkpt lat="44.85429" lon="2.542">
        <ele>799.2</ele>
        <time>2021-08-19T15:13:27Z</time>
      </trkpt>
      <trkpt lat="44.85435" lon="2.54194">
        <ele>799.3</ele>
        <time>2021-08-19T15:13:29Z</time>
      </trkpt>
      <trkpt lat="44.8544" lon="2.54188">
        <ele>799.4</ele>
        <time>2021-08-19T15:13:31Z</time>
      </trkpt>
      <trkpt lat="44.85446" lon="2.54183">
        <ele>799.5</ele>
        <time>2021-08-19T15:13:33Z</time>
      </trkpt>
      <trkpt lat="44.85452" lon="2.54177">
        <ele>799.8</ele>
        <time>2021-08-19T15:13:35Z</time>
      </trkpt>
      <trkpt lat="44.85458" lon="2.54171">
        <ele>800.2</ele>
        <time>2021-08-19T15:13:37Z</time>
      </trkpt>
      <trkpt lat="44.85465" lon="2.54166">
        <ele>800.5</ele>
        <time>2021-08-19T15:13:39Z</time>
      </trkpt>
      <trkpt lat="44.85472" lon="2.54161">
        <ele>800.5</ele>
        <time>2021-08-19T15:13:41Z</time>
      </trkpt>
      <trkpt lat="44.8548" lon="2.54157">
        <ele>800.4</ele>
        <time>2021-08-19T15:13:43Z</time>
      </trkpt>
      <trkpt lat="44.85487" lon="2.54152">
        <ele>800.4</ele>
        <time>2021-08-19T15:13:45Z</time>
      </trkpt>
      <trkpt lat="44.85495" lon="2.54149">
        <ele>800.5</ele>
        <time>2021-08-19T15:13:47Z</time>
      </trkpt>
      <trkpt lat="44.85502" lon="2.54146">
        <ele>800.5</ele>
        <time>2021-08-19T15:13:49Z</time>
      </trkpt>
      <trkpt lat="44.8551" lon="2.54143">
        <ele>800.5</ele>
        <time>2021-08-19T15:13:51Z</time>
      </trkpt>
      <trkpt lat="44.85518" lon="2.54142">
        <ele>800.5</ele>
        <time>2021-08-19T15:13:53Z</time>
      </trkpt>
      <trkpt lat="44.85526" lon="2.54141">
        <ele>800.6</ele>
        <time>2021-08-19T15:13:55Z</time>
      </trkpt>
      <trkpt lat="44.85533" lon="2.54139">
        <ele>800.6</ele>
        <time>2021-08-19T15:13:57Z</time>
      </trkpt>
      <trkpt lat="44.85539" lon="2.54138">
        <ele>800.6</ele>
        <time>2021-08-19T15:13:59Z</time>
      </trkpt>
      <trkpt lat="44.85545" lon="2.54137">
        <ele>800.7</ele>
        <time>2021-08-19T15:14:01Z</time>
      </trkpt>
      <trkpt lat="44.8555" lon="2.54135">
        <ele>800.7</ele>
        <time>2021-08-19T15:14:03Z</time>
      </trkpt>
      <trkpt lat="44.85554" lon="2.54134">
        <ele>800.7</ele>
        <time>2021-08-19T15:14:05Z</time>
      </trkpt>
      <trkpt lat="44.8556" lon="2.54133">
        <ele>800.8</ele>
        <time>2021-08-19T15:14:07Z</time>
      </trkpt>
      <trkpt lat="44.85566" lon="2.54133">
        <ele>800.8</ele>
        <time>2021-08-19T15:14:09Z</time>
      </trkpt>
      <trkpt lat="44.85571" lon="2.54133">
        <ele>800.9</ele>
        <time>2021-08-19T15:14:11Z</time>
      </trkpt>
      <trkpt lat="44.85578" lon="2.54131">
        <ele>800.9</ele>
        <time>2021-08-19T15:14:13Z</time>
      </trkpt>
      <trkpt lat="44.85584" lon="2.5413">
        <ele>801</ele>
        <time>2021-08-19T15:14:15Z</time>
      </trkpt>
      <trkpt lat="44.85591" lon="2.54129">
        <ele>801.1</ele>
        <time>2021-08-19T15:14:17Z</time>
      </trkpt>
      <trkpt lat="44.85599" lon="2.54128">
        <ele>801.1</ele>
        <time>2021-08-19T15:14:19Z</time>
      </trkpt>
      <trkpt lat="44.85607" lon="2.54128">
        <ele>801.2</ele>
        <time>2021-08-19T15:14:21Z</time>
      </trkpt>
      <trkpt lat="44.85615" lon="2.54126">
        <ele>801.2</ele>
        <time>2021-08-19T15:14:23Z</time>
      </trkpt>
      <trkpt lat="44.85623" lon="2.54125">
        <ele>801.2</ele>
        <time>2021-08-19T15:14:25Z</time>
      </trkpt>
      <trkpt lat="44.85632" lon="2.54125">
        <ele>801.3</ele>
        <time>2021-08-19T15:14:27Z</time>
      </trkpt>
      <trkpt lat="44.8564" lon="2.54124">
        <ele>801.3</ele>
        <time>2021-08-19T15:14:29Z</time>
      </trkpt>
      <trkpt lat="44.85649" lon="2.54124">
        <ele>801.4</ele>
        <time>2021-08-19T15:14:31Z</time>
      </trkpt>
      <trkpt lat="44.85658" lon="2.54124">
        <ele>801.4</ele>
        <time>2021-08-19T15:14:33Z</time>
      </trkpt>
      <trkpt lat="44.85667" lon="2.54124">
        <ele>801.4</ele>
        <time>2021-08-19T15:14:35Z</time>
      </trkpt>
      <trkpt lat="44.85674" lon="2.54127">
        <ele>801.3</ele>
        <time>2021-08-19T15:14:37Z</time>
      </trkpt>
      <trkpt lat="44.85677" lon="2.54134">
        <ele>801.3</ele>
        <time>2021-08-19T15:14:39Z</time>
      </trkpt>
      <trkpt lat="44.85678" lon="2.54144">
        <ele>801.4</ele>
        <time>2021-08-19T15:14:41Z</time>
      </trkpt>
      <trkpt lat="44.85678" lon="2.54154">
        <ele>801.7</ele>
        <time>2021-08-19T15:14:43Z</time>
      </trkpt>
      <trkpt lat="44.85678" lon="2.54164">
        <ele>801.9</ele>
        <time>2021-08-19T15:14:45Z</time>
      </trkpt>
      <trkpt lat="44.85678" lon="2.54174">
        <ele>801.5</ele>
        <time>2021-08-19T15:14:47Z</time>
      </trkpt>
      <trkpt lat="44.85677" lon="2.54182">
        <ele>801.2</ele>
        <time>2021-08-19T15:14:49Z</time>
      </trkpt>
      <trkpt lat="44.85678" lon="2.5419">
        <ele>800.7</ele>
        <time>2021-08-19T15:14:51Z</time>
      </trkpt>
      <trkpt lat="44.85678" lon="2.54197">
        <ele>800.3</ele>
        <time>2021-08-19T15:14:53Z</time>
      </trkpt>
      <trkpt lat="44.85679" lon="2.54206">
        <ele>799.8</ele>
        <time>2021-08-19T15:14:55Z</time>
      </trkpt>
      <trkpt lat="44.85678" lon="2.54213">
        <ele>799.5</ele>
        <time>2021-08-19T15:14:57Z</time>
      </trkpt>
      <trkpt lat="44.85678" lon="2.54222">
        <ele>799.1</ele>
        <time>2021-08-19T15:14:59Z</time>
      </trkpt>
      <trkpt lat="44.85676" lon="2.54232">
        <ele>798.8</ele>
        <time>2021-08-19T15:15:01Z</time>
      </trkpt>
      <trkpt lat="44.85673" lon="2.54243">
        <ele>798.6</ele>
        <time>2021-08-19T15:15:03Z</time>
      </trkpt>
      <trkpt lat="44.85668" lon="2.54253">
        <ele>798.5</ele>
        <time>2021-08-19T15:15:05Z</time>
      </trkpt>
      <trkpt lat="44.85661" lon="2.54262">
        <ele>797.4</ele>
        <time>2021-08-19T15:15:07Z</time>
      </trkpt>
      <trkpt lat="44.85652" lon="2.54266">
        <ele>796.7</ele>
        <time>2021-08-19T15:15:09Z</time>
      </trkpt>
      <trkpt lat="44.85644" lon="2.54268">
        <ele>796.2</ele>
        <time>2021-08-19T15:15:11Z</time>
      </trkpt>
      <trkpt lat="44.85637" lon="2.54266">
        <ele>796.2</ele>
        <time>2021-08-19T15:15:13Z</time>
      </trkpt>
      <trkpt lat="44.85632" lon="2.54262">
        <ele>796.5</ele>
        <time>2021-08-19T15:15:15Z</time>
      </trkpt>
      <trkpt lat="44.85628" lon="2.54257">
        <ele>796.9</ele>
        <time>2021-08-19T15:15:17Z</time>
      </trkpt>
      <trkpt lat="44.85624" lon="2.54253">
        <ele>797.2</ele>
        <time>2021-08-19T15:15:19Z</time>
      </trkpt>
      <trkpt lat="44.85621" lon="2.54248">
        <ele>797.4</ele>
        <time>2021-08-19T15:15:21Z</time>
      </trkpt>
      <trkpt lat="44.85617" lon="2.54245">
        <ele>797.5</ele>
        <time>2021-08-19T15:15:23Z</time>
      </trkpt>
      <trkpt lat="44.85614" lon="2.54239">
        <ele>797.7</ele>
        <time>2021-08-19T15:15:25Z</time>
      </trkpt>
      <trkpt lat="44.85612" lon="2.54236">
        <ele>797.8</ele>
        <time>2021-08-19T15:15:27Z</time>
      </trkpt>
      <trkpt lat="44.85608" lon="2.54231">
        <ele>798</ele>
        <time>2021-08-19T15:15:29Z</time>
      </trkpt>
      <trkpt lat="44.85604" lon="2.54225">
        <ele>798.1</ele>
        <time>2021-08-19T15:15:31Z</time>
      </trkpt>
      <trkpt lat="44.856" lon="2.54221">
        <ele>798.3</ele>
        <time>2021-08-19T15:15:33Z</time>
      </trkpt>
      <trkpt lat="44.85596" lon="2.54216">
        <ele>798.5</ele>
        <time>2021-08-19T15:15:35Z</time>
      </trkpt>
      <trkpt lat="44.85593" lon="2.5421">
        <ele>798.7</ele>
        <time>2021-08-19T15:15:37Z</time>
      </trkpt>
      <trkpt lat="44.8559" lon="2.54204">
        <ele>799</ele>
        <time>2021-08-19T15:15:39Z</time>
      </trkpt>
      <trkpt lat="44.85587" lon="2.54198">
        <ele>799.2</ele>
        <time>2021-08-19T15:15:41Z</time>
      </trkpt>
      <trkpt lat="44.85584" lon="2.54193">
        <ele>799.4</ele>
        <time>2021-08-19T15:15:43Z</time>
      </trkpt>
      <trkpt lat="44.85582" lon="2.54188">
        <ele>799.7</ele>
        <time>2021-08-19T15:15:45Z</time>
      </trkpt>
      <trkpt lat="44.85579" lon="2.54185">
        <ele>799.9</ele>
        <time>2021-08-19T15:15:47Z</time>
      </trkpt>
      <trkpt lat="44.85576" lon="2.5418">
        <ele>800.1</ele>
        <time>2021-08-19T15:15:49Z</time>
      </trkpt>
      <trkpt lat="44.85574" lon="2.54175">
        <ele>800.5</ele>
        <time>2021-08-19T15:15:51Z</time>
      </trkpt>
      <trkpt lat="44.85577" lon="2.54169">
        <ele>800.8</ele>
        <time>2021-08-19T15:15:53Z</time>
      </trkpt>
      <trkpt lat="44.8558" lon="2.54172">
        <ele>800.6</ele>
        <time>2021-08-19T15:15:55Z</time>
      </trkpt>
      <trkpt lat="44.85583" lon="2.54176">
        <ele>800.4</ele>
        <time>2021-08-19T15:15:57Z</time>
      </trkpt>
      <trkpt lat="44.85586" lon="2.54178">
        <ele>800.4</ele>
        <time>2021-08-19T15:15:59Z</time>
      </trkpt>
      <trkpt lat="44.8559" lon="2.54179">
        <ele>800.4</ele>
        <time>2021-08-19T15:16:01Z</time>
      </trkpt>
      <trkpt lat="44.85593" lon="2.54179">
        <ele>800.5</ele>
        <time>2021-08-19T15:16:03Z</time>
      </trkpt>
      <trkpt lat="44.85597" lon="2.54178">
        <ele>800.7</ele>
        <time>2021-08-19T15:16:05Z</time>
      </trkpt>
      <trkpt lat="44.856" lon="2.54179">
        <ele>800.7</ele>
        <time>2021-08-19T15:16:07Z</time>
      </trkpt>
      <trkpt lat="44.85603" lon="2.54181">
        <ele>800.7</ele>
        <time>2021-08-19T15:16:09Z</time>
      </trkpt>
      <trkpt lat="44.85606" lon="2.5418">
        <ele>800.8</ele>
        <time>2021-08-19T15:16:11Z</time>
      </trkpt>
      <trkpt lat="44.85609" lon="2.54181">
        <ele>800.8</ele>
        <time>2021-08-19T15:16:13Z</time>
      </trkpt>
      <trkpt lat="44.85612" lon="2.54181">
        <ele>800.9</ele>
        <time>2021-08-19T15:16:15Z</time>
      </trkpt>
      <trkpt lat="44.85615" lon="2.54183">
        <ele>800.8</ele>
        <time>2021-08-19T15:16:17Z</time>
      </trkpt>
      <trkpt lat="44.85618" lon="2.54183">
        <ele>800.9</ele>
        <time>2021-08-19T15:16:19Z</time>
      </trkpt>
      <trkpt lat="44.85621" lon="2.54184">
        <ele>801</ele>
        <time>2021-08-19T15:16:21Z</time>
      </trkpt>
      <trkpt lat="44.85625" lon="2.54184">
        <ele>801</ele>
        <time>2021-08-19T15:16:23Z</time>
      </trkpt>
      <trkpt lat="44.85627" lon="2.54184">
        <ele>801.1</ele>
        <time>2021-08-19T15:16:25Z</time>
      </trkpt>
      <trkpt lat="44.85628" lon="2.54184">
        <ele>801.2</ele>
        <time>2021-08-19T15:16:27Z</time>
      </trkpt>
      <trkpt lat="44.85627" lon="2.54184">
        <ele>801.1</ele>
        <time>2021-08-19T15:16:29Z</time>
      </trkpt>
      <trkpt lat="44.85627" lon="2.54184">
        <ele>801.1</ele>
        <time>2021-08-19T15:16:31Z</time>
      </trkpt>
      <trkpt lat="44.85627" lon="2.54184">
        <ele>801.1</ele>
        <time>2021-08-19T15:16:33Z</time>
      </trkpt>
      <trkpt lat="44.85626" lon="2.54184">
        <ele>801.1</ele>
        <time>2021-08-19T15:16:35Z</time>
      </trkpt>
      <trkpt lat="44.85612" lon="2.54182">
        <ele>800.8</ele>
        <time>2021-08-19T15:36:09Z</time>
      </trkpt>
      <trkpt lat="44.85609" lon="2.54181">
        <ele>800.8</ele>
        <time>2021-08-19T15:36:11Z</time>
      </trkpt>
      <trkpt lat="44.85606" lon="2.5418">
        <ele>800.8</ele>
        <time>2021-08-19T15:36:13Z</time>
      </trkpt>
      <trkpt lat="44.85601" lon="2.5418">
        <ele>800.7</ele>
        <time>2021-08-19T15:36:15Z</time>
      </trkpt>
      <trkpt lat="44.85595" lon="2.5418">
        <ele>800.5</ele>
        <time>2021-08-19T15:36:17Z</time>
      </trkpt>
      <trkpt lat="44.85589" lon="2.54178">
        <ele>800.5</ele>
        <time>2021-08-19T15:36:19Z</time>
      </trkpt>
      <trkpt lat="44.85583" lon="2.54173">
        <ele>800.6</ele>
        <time>2021-08-19T15:36:21Z</time>
      </trkpt>
      <trkpt lat="44.85578" lon="2.54167">
        <ele>800.9</ele>
        <time>2021-08-19T15:36:23Z</time>
      </trkpt>
      <trkpt lat="44.85575" lon="2.54159">
        <ele>801</ele>
        <time>2021-08-19T15:36:25Z</time>
      </trkpt>
      <trkpt lat="44.85575" lon="2.54153">
        <ele>801</ele>
        <time>2021-08-19T15:36:27Z</time>
      </trkpt>
      <trkpt lat="44.85575" lon="2.54149">
        <ele>801</ele>
        <time>2021-08-19T15:36:29Z</time>
      </trkpt>
      <trkpt lat="44.85576" lon="2.54145">
        <ele>801</ele>
        <time>2021-08-19T15:36:31Z</time>
      </trkpt>
      <trkpt lat="44.85578" lon="2.54141">
        <ele>801</ele>
        <time>2021-08-19T15:36:33Z</time>
      </trkpt>
      <trkpt lat="44.8558" lon="2.54138">
        <ele>801</ele>
        <time>2021-08-19T15:36:35Z</time>
      </trkpt>
      <trkpt lat="44.85583" lon="2.54135">
        <ele>801</ele>
        <time>2021-08-19T15:36:37Z</time>
      </trkpt>
      <trkpt lat="44.85587" lon="2.54135">
        <ele>801</ele>
        <time>2021-08-19T15:36:39Z</time>
      </trkpt>
      <trkpt lat="44.85591" lon="2.54134">
        <ele>801.1</ele>
        <time>2021-08-19T15:36:41Z</time>
      </trkpt>
      <trkpt lat="44.85595" lon="2.54133">
        <ele>801.1</ele>
        <time>2021-08-19T15:36:43Z</time>
      </trkpt>
      <trkpt lat="44.85601" lon="2.54132">
        <ele>801.2</ele>
        <time>2021-08-19T15:36:45Z</time>
      </trkpt>
      <trkpt lat="44.85606" lon="2.54131">
        <ele>801.2</ele>
        <time>2021-08-19T15:36:47Z</time>
      </trkpt>
      <trkpt lat="44.85611" lon="2.5413">
        <ele>801.2</ele>
        <time>2021-08-19T15:36:49Z</time>
      </trkpt>
      <trkpt lat="44.85617" lon="2.54129">
        <ele>801.3</ele>
        <time>2021-08-19T15:36:51Z</time>
      </trkpt>
      <trkpt lat="44.85624" lon="2.54129">
        <ele>801.3</ele>
        <time>2021-08-19T15:36:53Z</time>
      </trkpt>
      <trkpt lat="44.85631" lon="2.54127">
        <ele>801.3</ele>
        <time>2021-08-19T15:36:55Z</time>
      </trkpt>
      <trkpt lat="44.85639" lon="2.54126">
        <ele>801.4</ele>
        <time>2021-08-19T15:36:57Z</time>
      </trkpt>
      <trkpt lat="44.85646" lon="2.54126">
        <ele>801.4</ele>
        <time>2021-08-19T15:36:59Z</time>
      </trkpt>
      <trkpt lat="44.85654" lon="2.54127">
        <ele>801.5</ele>
        <time>2021-08-19T15:37:01Z</time>
      </trkpt>
      <trkpt lat="44.85663" lon="2.54126">
        <ele>801.5</ele>
        <time>2021-08-19T15:37:03Z</time>
      </trkpt>
      <trkpt lat="44.85672" lon="2.54127">
        <ele>801.3</ele>
        <time>2021-08-19T15:37:05Z</time>
      </trkpt>
      <trkpt lat="44.8568" lon="2.54126">
        <ele>800.9</ele>
        <time>2021-08-19T15:37:07Z</time>
      </trkpt>
      <trkpt lat="44.8569" lon="2.54125">
        <ele>800.5</ele>
        <time>2021-08-19T15:37:09Z</time>
      </trkpt>
      <trkpt lat="44.85699" lon="2.54123">
        <ele>800.2</ele>
        <time>2021-08-19T15:37:11Z</time>
      </trkpt>
      <trkpt lat="44.85707" lon="2.54119">
        <ele>799.9</ele>
        <time>2021-08-19T15:37:13Z</time>
      </trkpt>
      <trkpt lat="44.85716" lon="2.54115">
        <ele>799.7</ele>
        <time>2021-08-19T15:37:15Z</time>
      </trkpt>
      <trkpt lat="44.85724" lon="2.54109">
        <ele>799.7</ele>
        <time>2021-08-19T15:37:17Z</time>
      </trkpt>
      <trkpt lat="44.85731" lon="2.541">
        <ele>800</ele>
        <time>2021-08-19T15:37:19Z</time>
      </trkpt>
      <trkpt lat="44.85737" lon="2.54091">
        <ele>800.4</ele>
        <time>2021-08-19T15:37:21Z</time>
      </trkpt>
      <trkpt lat="44.85744" lon="2.54082">
        <ele>800.9</ele>
        <time>2021-08-19T15:37:23Z</time>
      </trkpt>
      <trkpt lat="44.85752" lon="2.54072">
        <ele>800.7</ele>
        <time>2021-08-19T15:37:25Z</time>
      </trkpt>
      <trkpt lat="44.8576" lon="2.5406">
        <ele>800.1</ele>
        <time>2021-08-19T15:37:27Z</time>
      </trkpt>
      <trkpt lat="44.85767" lon="2.54048">
        <ele>799.4</ele>
        <time>2021-08-19T15:37:29Z</time>
      </trkpt>
      <trkpt lat="44.85776" lon="2.54035">
        <ele>798.7</ele>
        <time>2021-08-19T15:37:31Z</time>
      </trkpt>
      <trkpt lat="44.85786" lon="2.54022">
        <ele>797.9</ele>
        <time>2021-08-19T15:37:33Z</time>
      </trkpt>
      <trkpt lat="44.85795" lon="2.54007">
        <ele>797</ele>
        <time>2021-08-19T15:37:35Z</time>
      </trkpt>
      <trkpt lat="44.85804" lon="2.53992">
        <ele>795.9</ele>
        <time>2021-08-19T15:37:37Z</time>
      </trkpt>
      <trkpt lat="44.85814" lon="2.53977">
        <ele>794.7</ele>
        <time>2021-08-19T15:37:39Z</time>
      </trkpt>
      <trkpt lat="44.85823" lon="2.53962">
        <ele>793.5</ele>
        <time>2021-08-19T15:37:41Z</time>
      </trkpt>
      <trkpt lat="44.85832" lon="2.53946">
        <ele>792.5</ele>
        <time>2021-08-19T15:37:43Z</time>
      </trkpt>
      <trkpt lat="44.8584" lon="2.53929">
        <ele>791.4</ele>
        <time>2021-08-19T15:37:45Z</time>
      </trkpt>
      <trkpt lat="44.85846" lon="2.53911">
        <ele>790.5</ele>
        <time>2021-08-19T15:37:47Z</time>
      </trkpt>
      <trkpt lat="44.85852" lon="2.53893">
        <ele>789.3</ele>
        <time>2021-08-19T15:37:49Z</time>
      </trkpt>
      <trkpt lat="44.85857" lon="2.53875">
        <ele>788.3</ele>
        <time>2021-08-19T15:37:51Z</time>
      </trkpt>
      <trkpt lat="44.85862" lon="2.53858">
        <ele>787.4</ele>
        <time>2021-08-19T15:37:53Z</time>
      </trkpt>
      <trkpt lat="44.85867" lon="2.5384">
        <ele>786.6</ele>
        <time>2021-08-19T15:37:55Z</time>
      </trkpt>
      <trkpt lat="44.85872" lon="2.53824">
        <ele>786</ele>
        <time>2021-08-19T15:37:57Z</time>
      </trkpt>
      <trkpt lat="44.85877" lon="2.53809">
        <ele>785.5</ele>
        <time>2021-08-19T15:37:59Z</time>
      </trkpt>
      <trkpt lat="44.85881" lon="2.53792">
        <ele>785</ele>
        <time>2021-08-19T15:38:01Z</time>
      </trkpt>
      <trkpt lat="44.85885" lon="2.53777">
        <ele>784.4</ele>
        <time>2021-08-19T15:38:03Z</time>
      </trkpt>
      <trkpt lat="44.8589" lon="2.53763">
        <ele>783.9</ele>
        <time>2021-08-19T15:38:05Z</time>
      </trkpt>
      <trkpt lat="44.85895" lon="2.53748">
        <ele>783.5</ele>
        <time>2021-08-19T15:38:07Z</time>
      </trkpt>
      <trkpt lat="44.859" lon="2.53734">
        <ele>783.5</ele>
        <time>2021-08-19T15:38:09Z</time>
      </trkpt>
      <trkpt lat="44.85906" lon="2.5372">
        <ele>783.7</ele>
        <time>2021-08-19T15:38:11Z</time>
      </trkpt>
      <trkpt lat="44.85912" lon="2.53707">
        <ele>783.8</ele>
        <time>2021-08-19T15:38:13Z</time>
      </trkpt>
      <trkpt lat="44.85919" lon="2.53694">
        <ele>783.8</ele>
        <time>2021-08-19T15:38:15Z</time>
      </trkpt>
      <trkpt lat="44.85925" lon="2.53681">
        <ele>783.2</ele>
        <time>2021-08-19T15:38:17Z</time>
      </trkpt>
      <trkpt lat="44.85931" lon="2.53669">
        <ele>782.6</ele>
        <time>2021-08-19T15:38:19Z</time>
      </trkpt>
      <trkpt lat="44.85937" lon="2.53657">
        <ele>781.9</ele>
        <time>2021-08-19T15:38:21Z</time>
      </trkpt>
      <trkpt lat="44.85944" lon="2.53645">
        <ele>781.3</ele>
        <time>2021-08-19T15:38:23Z</time>
      </trkpt>
      <trkpt lat="44.8595" lon="2.53633">
        <ele>780.9</ele>
        <time>2021-08-19T15:38:25Z</time>
      </trkpt>
      <trkpt lat="44.85956" lon="2.53621">
        <ele>780.7</ele>
        <time>2021-08-19T15:38:27Z</time>
      </trkpt>
      <trkpt lat="44.85962" lon="2.5361">
        <ele>780.6</ele>
        <time>2021-08-19T15:38:29Z</time>
      </trkpt>
      <trkpt lat="44.85968" lon="2.53599">
        <ele>780.6</ele>
        <time>2021-08-19T15:38:31Z</time>
      </trkpt>
      <trkpt lat="44.85974" lon="2.53589">
        <ele>780.8</ele>
        <time>2021-08-19T15:38:33Z</time>
      </trkpt>
      <trkpt lat="44.8598" lon="2.53577">
        <ele>781</ele>
        <time>2021-08-19T15:38:35Z</time>
      </trkpt>
      <trkpt lat="44.85986" lon="2.53567">
        <ele>781.2</ele>
        <time>2021-08-19T15:38:37Z</time>
      </trkpt>
      <trkpt lat="44.85993" lon="2.53556">
        <ele>781.5</ele>
        <time>2021-08-19T15:38:39Z</time>
      </trkpt>
      <trkpt lat="44.85999" lon="2.53546">
        <ele>781.9</ele>
        <time>2021-08-19T15:38:41Z</time>
      </trkpt>
      <trkpt lat="44.86005" lon="2.53536">
        <ele>782.4</ele>
        <time>2021-08-19T15:38:43Z</time>
      </trkpt>
      <trkpt lat="44.8601" lon="2.53526">
        <ele>783</ele>
        <time>2021-08-19T15:38:45Z</time>
      </trkpt>
      <trkpt lat="44.86015" lon="2.53516">
        <ele>783.7</ele>
        <time>2021-08-19T15:38:47Z</time>
      </trkpt>
      <trkpt lat="44.8602" lon="2.53508">
        <ele>784.4</ele>
        <time>2021-08-19T15:38:49Z</time>
      </trkpt>
      <trkpt lat="44.86025" lon="2.53498">
        <ele>785.2</ele>
        <time>2021-08-19T15:38:51Z</time>
      </trkpt>
      <trkpt lat="44.8603" lon="2.53489">
        <ele>785.9</ele>
        <time>2021-08-19T15:38:53Z</time>
      </trkpt>
      <trkpt lat="44.86034" lon="2.5348">
        <ele>786.6</ele>
        <time>2021-08-19T15:38:55Z</time>
      </trkpt>
      <trkpt lat="44.86038" lon="2.53472">
        <ele>787.4</ele>
        <time>2021-08-19T15:38:57Z</time>
      </trkpt>
      <trkpt lat="44.86043" lon="2.53464">
        <ele>788.1</ele>
        <time>2021-08-19T15:38:59Z</time>
      </trkpt>
      <trkpt lat="44.86047" lon="2.53456">
        <ele>788.9</ele>
        <time>2021-08-19T15:39:01Z</time>
      </trkpt>
      <trkpt lat="44.86051" lon="2.53448">
        <ele>789.6</ele>
        <time>2021-08-19T15:39:03Z</time>
      </trkpt>
      <trkpt lat="44.86054" lon="2.53441">
        <ele>790.3</ele>
        <time>2021-08-19T15:39:05Z</time>
      </trkpt>
      <trkpt lat="44.86058" lon="2.53435">
        <ele>791</ele>
        <time>2021-08-19T15:39:07Z</time>
      </trkpt>
      <trkpt lat="44.86061" lon="2.53428">
        <ele>791.7</ele>
        <time>2021-08-19T15:39:09Z</time>
      </trkpt>
      <trkpt lat="44.86064" lon="2.53422">
        <ele>792.4</ele>
        <time>2021-08-19T15:39:11Z</time>
      </trkpt>
      <trkpt lat="44.86067" lon="2.53416">
        <ele>793</ele>
        <time>2021-08-19T15:39:13Z</time>
      </trkpt>
      <trkpt lat="44.86069" lon="2.53411">
        <ele>793.4</ele>
        <time>2021-08-19T15:39:15Z</time>
      </trkpt>
      <trkpt lat="44.86073" lon="2.53405">
        <ele>793.8</ele>
        <time>2021-08-19T15:39:17Z</time>
      </trkpt>
      <trkpt lat="44.86075" lon="2.534">
        <ele>794.1</ele>
        <time>2021-08-19T15:39:19Z</time>
      </trkpt>
      <trkpt lat="44.86078" lon="2.53395">
        <ele>794.4</ele>
        <time>2021-08-19T15:39:21Z</time>
      </trkpt>
      <trkpt lat="44.8608" lon="2.53389">
        <ele>794.7</ele>
        <time>2021-08-19T15:39:23Z</time>
      </trkpt>
      <trkpt lat="44.86083" lon="2.53385">
        <ele>795</ele>
        <time>2021-08-19T15:39:25Z</time>
      </trkpt>
      <trkpt lat="44.86086" lon="2.53379">
        <ele>795.3</ele>
        <time>2021-08-19T15:39:27Z</time>
      </trkpt>
      <trkpt lat="44.86088" lon="2.53374">
        <ele>795.6</ele>
        <time>2021-08-19T15:39:29Z</time>
      </trkpt>
      <trkpt lat="44.8609" lon="2.53369">
        <ele>795.8</ele>
        <time>2021-08-19T15:39:31Z</time>
      </trkpt>
      <trkpt lat="44.86093" lon="2.53365">
        <ele>796.1</ele>
        <time>2021-08-19T15:39:33Z</time>
      </trkpt>
      <trkpt lat="44.86095" lon="2.53359">
        <ele>796.3</ele>
        <time>2021-08-19T15:39:35Z</time>
      </trkpt>
      <trkpt lat="44.86098" lon="2.53355">
        <ele>796.6</ele>
        <time>2021-08-19T15:39:37Z</time>
      </trkpt>
      <trkpt lat="44.861" lon="2.5335">
        <ele>796.9</ele>
        <time>2021-08-19T15:39:39Z</time>
      </trkpt>
      <trkpt lat="44.86103" lon="2.53345">
        <ele>797.1</ele>
        <time>2021-08-19T15:39:41Z</time>
      </trkpt>
      <trkpt lat="44.86105" lon="2.5334">
        <ele>797.4</ele>
        <time>2021-08-19T15:39:43Z</time>
      </trkpt>
      <trkpt lat="44.86107" lon="2.53336">
        <ele>797.6</ele>
        <time>2021-08-19T15:39:45Z</time>
      </trkpt>
      <trkpt lat="44.8611" lon="2.53332">
        <ele>797.9</ele>
        <time>2021-08-19T15:39:47Z</time>
      </trkpt>
      <trkpt lat="44.86112" lon="2.53328">
        <ele>798.2</ele>
        <time>2021-08-19T15:39:49Z</time>
      </trkpt>
      <trkpt lat="44.86114" lon="2.53324">
        <ele>798.5</ele>
        <time>2021-08-19T15:39:51Z</time>
      </trkpt>
      <trkpt lat="44.86117" lon="2.5332">
        <ele>798.8</ele>
        <time>2021-08-19T15:39:53Z</time>
      </trkpt>
      <trkpt lat="44.86119" lon="2.53316">
        <ele>799.1</ele>
        <time>2021-08-19T15:39:55Z</time>
      </trkpt>
      <trkpt lat="44.86121" lon="2.53313">
        <ele>799.4</ele>
        <time>2021-08-19T15:39:57Z</time>
      </trkpt>
      <trkpt lat="44.86123" lon="2.53309">
        <ele>799.6</ele>
        <time>2021-08-19T15:39:59Z</time>
      </trkpt>
      <trkpt lat="44.86125" lon="2.53306">
        <ele>799.9</ele>
        <time>2021-08-19T15:40:01Z</time>
      </trkpt>
      <trkpt lat="44.86127" lon="2.53304">
        <ele>800.1</ele>
        <time>2021-08-19T15:40:03Z</time>
      </trkpt>
      <trkpt lat="44.86129" lon="2.53301">
        <ele>800.4</ele>
        <time>2021-08-19T15:40:05Z</time>
      </trkpt>
      <trkpt lat="44.86132" lon="2.53297">
        <ele>800.7</ele>
        <time>2021-08-19T15:40:07Z</time>
      </trkpt>
      <trkpt lat="44.86134" lon="2.53294">
        <ele>801</ele>
        <time>2021-08-19T15:40:09Z</time>
      </trkpt>
      <trkpt lat="44.86137" lon="2.53291">
        <ele>801.3</ele>
        <time>2021-08-19T15:40:11Z</time>
      </trkpt>
      <trkpt lat="44.86139" lon="2.53289">
        <ele>801.6</ele>
        <time>2021-08-19T15:40:13Z</time>
      </trkpt>
      <trkpt lat="44.86142" lon="2.53286">
        <ele>801.9</ele>
        <time>2021-08-19T15:40:15Z</time>
      </trkpt>
      <trkpt lat="44.86144" lon="2.53283">
        <ele>802.1</ele>
        <time>2021-08-19T15:40:17Z</time>
      </trkpt>
      <trkpt lat="44.86146" lon="2.53281">
        <ele>802.4</ele>
        <time>2021-08-19T15:40:19Z</time>
      </trkpt>
      <trkpt lat="44.86149" lon="2.53279">
        <ele>802.7</ele>
        <time>2021-08-19T15:40:21Z</time>
      </trkpt>
      <trkpt lat="44.86151" lon="2.53276">
        <ele>803</ele>
        <time>2021-08-19T15:40:23Z</time>
      </trkpt>
      <trkpt lat="44.86154" lon="2.53273">
        <ele>803.3</ele>
        <time>2021-08-19T15:40:25Z</time>
      </trkpt>
      <trkpt lat="44.86156" lon="2.53271">
        <ele>803.6</ele>
        <time>2021-08-19T15:40:27Z</time>
      </trkpt>
      <trkpt lat="44.86158" lon="2.53268">
        <ele>803.9</ele>
        <time>2021-08-19T15:40:29Z</time>
      </trkpt>
      <trkpt lat="44.86161" lon="2.53266">
        <ele>804.2</ele>
        <time>2021-08-19T15:40:31Z</time>
      </trkpt>
      <trkpt lat="44.86163" lon="2.53264">
        <ele>804.5</ele>
        <time>2021-08-19T15:40:33Z</time>
      </trkpt>
      <trkpt lat="44.86165" lon="2.53261">
        <ele>804.7</ele>
        <time>2021-08-19T15:40:35Z</time>
      </trkpt>
      <trkpt lat="44.86168" lon="2.53259">
        <ele>805.1</ele>
        <time>2021-08-19T15:40:37Z</time>
      </trkpt>
      <trkpt lat="44.8617" lon="2.53256">
        <ele>805.4</ele>
        <time>2021-08-19T15:40:39Z</time>
      </trkpt>
      <trkpt lat="44.86173" lon="2.53254">
        <ele>805.9</ele>
        <time>2021-08-19T15:40:41Z</time>
      </trkpt>
      <trkpt lat="44.86175" lon="2.53252">
        <ele>806.3</ele>
        <time>2021-08-19T15:40:43Z</time>
      </trkpt>
      <trkpt lat="44.86177" lon="2.5325">
        <ele>806.7</ele>
        <time>2021-08-19T15:40:45Z</time>
      </trkpt>
      <trkpt lat="44.8618" lon="2.53248">
        <ele>807.1</ele>
        <time>2021-08-19T15:40:47Z</time>
      </trkpt>
      <trkpt lat="44.86182" lon="2.53246">
        <ele>807.6</ele>
        <time>2021-08-19T15:40:49Z</time>
      </trkpt>
      <trkpt lat="44.86185" lon="2.53243">
        <ele>808</ele>
        <time>2021-08-19T15:40:51Z</time>
      </trkpt>
      <trkpt lat="44.86187" lon="2.53241">
        <ele>808.4</ele>
        <time>2021-08-19T15:40:53Z</time>
      </trkpt>
      <trkpt lat="44.86189" lon="2.53238">
        <ele>808.8</ele>
        <time>2021-08-19T15:40:55Z</time>
      </trkpt>
      <trkpt lat="44.86192" lon="2.53236">
        <ele>809.2</ele>
        <time>2021-08-19T15:40:57Z</time>
      </trkpt>
      <trkpt lat="44.86194" lon="2.53233">
        <ele>809.7</ele>
        <time>2021-08-19T15:40:59Z</time>
      </trkpt>
      <trkpt lat="44.86196" lon="2.5323">
        <ele>810.1</ele>
        <time>2021-08-19T15:41:01Z</time>
      </trkpt>
      <trkpt lat="44.86198" lon="2.53226">
        <ele>810.5</ele>
        <time>2021-08-19T15:41:03Z</time>
      </trkpt>
      <trkpt lat="44.86201" lon="2.53223">
        <ele>810.9</ele>
        <time>2021-08-19T15:41:05Z</time>
      </trkpt>
      <trkpt lat="44.86203" lon="2.5322">
        <ele>811.4</ele>
        <time>2021-08-19T15:41:07Z</time>
      </trkpt>
      <trkpt lat="44.86206" lon="2.53216">
        <ele>811.9</ele>
        <time>2021-08-19T15:41:09Z</time>
      </trkpt>
      <trkpt lat="44.86208" lon="2.53213">
        <ele>812.3</ele>
        <time>2021-08-19T15:41:11Z</time>
      </trkpt>
      <trkpt lat="44.8621" lon="2.53209">
        <ele>812.7</ele>
        <time>2021-08-19T15:41:13Z</time>
      </trkpt>
      <trkpt lat="44.86211" lon="2.53205">
        <ele>813.1</ele>
        <time>2021-08-19T15:41:15Z</time>
      </trkpt>
      <trkpt lat="44.86214" lon="2.53202">
        <ele>813.5</ele>
        <time>2021-08-19T15:41:17Z</time>
      </trkpt>
      <trkpt lat="44.86215" lon="2.53199">
        <ele>813.8</ele>
        <time>2021-08-19T15:41:19Z</time>
      </trkpt>
      <trkpt lat="44.86217" lon="2.53195">
        <ele>814.2</ele>
        <time>2021-08-19T15:41:21Z</time>
      </trkpt>
      <trkpt lat="44.86219" lon="2.53191">
        <ele>814.5</ele>
        <time>2021-08-19T15:41:23Z</time>
      </trkpt>
      <trkpt lat="44.86221" lon="2.53188">
        <ele>814.9</ele>
        <time>2021-08-19T15:41:25Z</time>
      </trkpt>
      <trkpt lat="44.86222" lon="2.53184">
        <ele>815.2</ele>
        <time>2021-08-19T15:41:27Z</time>
      </trkpt>
      <trkpt lat="44.86223" lon="2.5318">
        <ele>815.5</ele>
        <time>2021-08-19T15:41:29Z</time>
      </trkpt>
      <trkpt lat="44.86225" lon="2.53176">
        <ele>815.9</ele>
        <time>2021-08-19T15:41:31Z</time>
      </trkpt>
      <trkpt lat="44.86226" lon="2.53172">
        <ele>816.1</ele>
        <time>2021-08-19T15:41:33Z</time>
      </trkpt>
      <trkpt lat="44.86227" lon="2.53168">
        <ele>816.4</ele>
        <time>2021-08-19T15:41:35Z</time>
      </trkpt>
      <trkpt lat="44.86229" lon="2.53164">
        <ele>816.7</ele>
        <time>2021-08-19T15:41:37Z</time>
      </trkpt>
      <trkpt lat="44.8623" lon="2.53161">
        <ele>816.8</ele>
        <time>2021-08-19T15:41:39Z</time>
      </trkpt>
      <trkpt lat="44.86231" lon="2.53157">
        <ele>817</ele>
        <time>2021-08-19T15:41:41Z</time>
      </trkpt>
      <trkpt lat="44.86232" lon="2.53153">
        <ele>817</ele>
        <time>2021-08-19T15:41:43Z</time>
      </trkpt>
      <trkpt lat="44.86233" lon="2.53149">
        <ele>817.1</ele>
        <time>2021-08-19T15:41:45Z</time>
      </trkpt>
      <trkpt lat="44.86234" lon="2.53145">
        <ele>817.2</ele>
        <time>2021-08-19T15:41:47Z</time>
      </trkpt>
      <trkpt lat="44.86235" lon="2.53141">
        <ele>817.2</ele>
        <time>2021-08-19T15:41:49Z</time>
      </trkpt>
      <trkpt lat="44.86236" lon="2.53137">
        <ele>817.4</ele>
        <time>2021-08-19T15:41:51Z</time>
      </trkpt>
      <trkpt lat="44.86237" lon="2.53133">
        <ele>817.5</ele>
        <time>2021-08-19T15:41:53Z</time>
      </trkpt>
      <trkpt lat="44.86238" lon="2.53129">
        <ele>817.5</ele>
        <time>2021-08-19T15:41:55Z</time>
      </trkpt>
      <trkpt lat="44.86239" lon="2.53125">
        <ele>817.6</ele>
        <time>2021-08-19T15:41:57Z</time>
      </trkpt>
      <trkpt lat="44.8624" lon="2.53121">
        <ele>817.6</ele>
        <time>2021-08-19T15:41:59Z</time>
      </trkpt>
      <trkpt lat="44.86241" lon="2.53117">
        <ele>817.7</ele>
        <time>2021-08-19T15:42:01Z</time>
      </trkpt>
      <trkpt lat="44.86242" lon="2.53112">
        <ele>817.7</ele>
        <time>2021-08-19T15:42:03Z</time>
      </trkpt>
      <trkpt lat="44.86243" lon="2.53109">
        <ele>817.8</ele>
        <time>2021-08-19T15:42:05Z</time>
      </trkpt>
      <trkpt lat="44.86244" lon="2.53105">
        <ele>817.8</ele>
        <time>2021-08-19T15:42:07Z</time>
      </trkpt>
      <trkpt lat="44.86245" lon="2.531">
        <ele>817.8</ele>
        <time>2021-08-19T15:42:09Z</time>
      </trkpt>
      <trkpt lat="44.86246" lon="2.53096">
        <ele>817.8</ele>
        <time>2021-08-19T15:42:11Z</time>
      </trkpt>
      <trkpt lat="44.86247" lon="2.53092">
        <ele>817.9</ele>
        <time>2021-08-19T15:42:13Z</time>
      </trkpt>
      <trkpt lat="44.86248" lon="2.53089">
        <ele>817.9</ele>
        <time>2021-08-19T15:42:15Z</time>
      </trkpt>
      <trkpt lat="44.86249" lon="2.53085">
        <ele>818</ele>
        <time>2021-08-19T15:42:17Z</time>
      </trkpt>
      <trkpt lat="44.86251" lon="2.53081">
        <ele>817.9</ele>
        <time>2021-08-19T15:42:19Z</time>
      </trkpt>
      <trkpt lat="44.86252" lon="2.53078">
        <ele>817.8</ele>
        <time>2021-08-19T15:42:21Z</time>
      </trkpt>
      <trkpt lat="44.86254" lon="2.53074">
        <ele>817.7</ele>
        <time>2021-08-19T15:42:23Z</time>
      </trkpt>
      <trkpt lat="44.86255" lon="2.5307">
        <ele>817.6</ele>
        <time>2021-08-19T15:42:25Z</time>
      </trkpt>
      <trkpt lat="44.86256" lon="2.53066">
        <ele>817.5</ele>
        <time>2021-08-19T15:42:27Z</time>
      </trkpt>
      <trkpt lat="44.86258" lon="2.53062">
        <ele>817.4</ele>
        <time>2021-08-19T15:42:29Z</time>
      </trkpt>
      <trkpt lat="44.86259" lon="2.53059">
        <ele>817.3</ele>
        <time>2021-08-19T15:42:31Z</time>
      </trkpt>
      <trkpt lat="44.86262" lon="2.53055">
        <ele>817.3</ele>
        <time>2021-08-19T15:42:33Z</time>
      </trkpt>
      <trkpt lat="44.86264" lon="2.53052">
        <ele>817.3</ele>
        <time>2021-08-19T15:42:35Z</time>
      </trkpt>
      <trkpt lat="44.86265" lon="2.53048">
        <ele>817.2</ele>
        <time>2021-08-19T15:42:37Z</time>
      </trkpt>
      <trkpt lat="44.86267" lon="2.53044">
        <ele>817.2</ele>
        <time>2021-08-19T15:42:39Z</time>
      </trkpt>
      <trkpt lat="44.8627" lon="2.53041">
        <ele>817.3</ele>
        <time>2021-08-19T15:42:41Z</time>
      </trkpt>
      <trkpt lat="44.86273" lon="2.53037">
        <ele>817.3</ele>
        <time>2021-08-19T15:42:43Z</time>
      </trkpt>
      <trkpt lat="44.86275" lon="2.53033">
        <ele>817.4</ele>
        <time>2021-08-19T15:42:45Z</time>
      </trkpt>
      <trkpt lat="44.86278" lon="2.5303">
        <ele>817.5</ele>
        <time>2021-08-19T15:42:47Z</time>
      </trkpt>
      <trkpt lat="44.86281" lon="2.53026">
        <ele>817.6</ele>
        <time>2021-08-19T15:42:49Z</time>
      </trkpt>
      <trkpt lat="44.86283" lon="2.53024">
        <ele>817.7</ele>
        <time>2021-08-19T15:42:51Z</time>
      </trkpt>
      <trkpt lat="44.86286" lon="2.53021">
        <ele>817.8</ele>
        <time>2021-08-19T15:42:53Z</time>
      </trkpt>
      <trkpt lat="44.8629" lon="2.53018">
        <ele>818.1</ele>
        <time>2021-08-19T15:42:55Z</time>
      </trkpt>
      <trkpt lat="44.86293" lon="2.53014">
        <ele>818.3</ele>
        <time>2021-08-19T15:42:57Z</time>
      </trkpt>
      <trkpt lat="44.86297" lon="2.53012">
        <ele>818.5</ele>
        <time>2021-08-19T15:42:59Z</time>
      </trkpt>
      <trkpt lat="44.86301" lon="2.5301">
        <ele>818.9</ele>
        <time>2021-08-19T15:43:01Z</time>
      </trkpt>
      <trkpt lat="44.86305" lon="2.53008">
        <ele>819.3</ele>
        <time>2021-08-19T15:43:03Z</time>
      </trkpt>
      <trkpt lat="44.8631" lon="2.53006">
        <ele>819.7</ele>
        <time>2021-08-19T15:43:05Z</time>
      </trkpt>
      <trkpt lat="44.86314" lon="2.53004">
        <ele>820.1</ele>
        <time>2021-08-19T15:43:07Z</time>
      </trkpt>
      <trkpt lat="44.86319" lon="2.53002">
        <ele>820.5</ele>
        <time>2021-08-19T15:43:09Z</time>
      </trkpt>
      <trkpt lat="44.86324" lon="2.53001">
        <ele>821</ele>
        <time>2021-08-19T15:43:11Z</time>
      </trkpt>
      <trkpt lat="44.86329" lon="2.52999">
        <ele>821.5</ele>
        <time>2021-08-19T15:43:13Z</time>
      </trkpt>
      <trkpt lat="44.86334" lon="2.52998">
        <ele>822</ele>
        <time>2021-08-19T15:43:15Z</time>
      </trkpt>
      <trkpt lat="44.86339" lon="2.52997">
        <ele>821.7</ele>
        <time>2021-08-19T15:43:17Z</time>
      </trkpt>
      <trkpt lat="44.86344" lon="2.52996">
        <ele>821.4</ele>
        <time>2021-08-19T15:43:19Z</time>
      </trkpt>
      <trkpt lat="44.8635" lon="2.52995">
        <ele>821.1</ele>
        <time>2021-08-19T15:43:21Z</time>
      </trkpt>
      <trkpt lat="44.86357" lon="2.52993">
        <ele>820.7</ele>
        <time>2021-08-19T15:43:23Z</time>
      </trkpt>
      <trkpt lat="44.86362" lon="2.52991">
        <ele>820.4</ele>
        <time>2021-08-19T15:43:25Z</time>
      </trkpt>
      <trkpt lat="44.86368" lon="2.52991">
        <ele>820</ele>
        <time>2021-08-19T15:43:27Z</time>
      </trkpt>
      <trkpt lat="44.86374" lon="2.5299">
        <ele>819.7</ele>
        <time>2021-08-19T15:43:29Z</time>
      </trkpt>
      <trkpt lat="44.86379" lon="2.5299">
        <ele>819.4</ele>
        <time>2021-08-19T15:43:31Z</time>
      </trkpt>
      <trkpt lat="44.86384" lon="2.52989">
        <ele>819.1</ele>
        <time>2021-08-19T15:43:33Z</time>
      </trkpt>
      <trkpt lat="44.86388" lon="2.52989">
        <ele>818.9</ele>
        <time>2021-08-19T15:43:35Z</time>
      </trkpt>
      <trkpt lat="44.86391" lon="2.52988">
        <ele>818.7</ele>
        <time>2021-08-19T15:43:37Z</time>
      </trkpt>
      <trkpt lat="44.86394" lon="2.52988">
        <ele>818.5</ele>
        <time>2021-08-19T15:43:39Z</time>
      </trkpt>
      <trkpt lat="44.86396" lon="2.52988">
        <ele>818.4</ele>
        <time>2021-08-19T15:43:41Z</time>
      </trkpt>
      <trkpt lat="44.86396" lon="2.52988">
        <ele>818.4</ele>
        <time>2021-08-19T15:43:43Z</time>
      </trkpt>
      <trkpt lat="44.86396" lon="2.52988">
        <ele>818.4</ele>
        <time>2021-08-19T15:43:45Z</time>
      </trkpt>
      <trkpt lat="44.86396" lon="2.52988">
        <ele>818.4</ele>
        <time>2021-08-19T15:43:47Z</time>
      </trkpt>
      <trkpt lat="44.86396" lon="2.52987">
        <ele>818.4</ele>
        <time>2021-08-19T15:43:49Z</time>
      </trkpt>
      <trkpt lat="44.86409" lon="2.5298">
        <ele>817.7</ele>
        <time>2021-08-19T15:45:15Z</time>
      </trkpt>
      <trkpt lat="44.86418" lon="2.52976">
        <ele>817.2</ele>
        <time>2021-08-19T15:45:17Z</time>
      </trkpt>
      <trkpt lat="44.86429" lon="2.52971">
        <ele>816.6</ele>
        <time>2021-08-19T15:45:19Z</time>
      </trkpt>
      <trkpt lat="44.86443" lon="2.52966">
        <ele>815.8</ele>
        <time>2021-08-19T15:45:21Z</time>
      </trkpt>
      <trkpt lat="44.86458" lon="2.52957">
        <ele>814.8</ele>
        <time>2021-08-19T15:45:23Z</time>
      </trkpt>
      <trkpt lat="44.86474" lon="2.52947">
        <ele>813.6</ele>
        <time>2021-08-19T15:45:25Z</time>
      </trkpt>
      <trkpt lat="44.86493" lon="2.52937">
        <ele>812</ele>
        <time>2021-08-19T15:45:27Z</time>
      </trkpt>
      <trkpt lat="44.86513" lon="2.52926">
        <ele>811</ele>
        <time>2021-08-19T15:45:29Z</time>
      </trkpt>
      <trkpt lat="44.86534" lon="2.52915">
        <ele>810.1</ele>
        <time>2021-08-19T15:45:31Z</time>
      </trkpt>
      <trkpt lat="44.86555" lon="2.52903">
        <ele>809</ele>
        <time>2021-08-19T15:45:33Z</time>
      </trkpt>
      <trkpt lat="44.86575" lon="2.5289">
        <ele>807.2</ele>
        <time>2021-08-19T15:45:35Z</time>
      </trkpt>
      <trkpt lat="44.86593" lon="2.52874">
        <ele>806.1</ele>
        <time>2021-08-19T15:45:37Z</time>
      </trkpt>
      <trkpt lat="44.86607" lon="2.52852">
        <ele>805.2</ele>
        <time>2021-08-19T15:45:39Z</time>
      </trkpt>
      <trkpt lat="44.86619" lon="2.52829">
        <ele>804.3</ele>
        <time>2021-08-19T15:45:41Z</time>
      </trkpt>
      <trkpt lat="44.86632" lon="2.52806">
        <ele>803.5</ele>
        <time>2021-08-19T15:45:43Z</time>
      </trkpt>
      <trkpt lat="44.86646" lon="2.52784">
        <ele>802.2</ele>
        <time>2021-08-19T15:45:45Z</time>
      </trkpt>
      <trkpt lat="44.86658" lon="2.52762">
        <ele>800.3</ele>
        <time>2021-08-19T15:45:47Z</time>
      </trkpt>
      <trkpt lat="44.86668" lon="2.52739">
        <ele>798.6</ele>
        <time>2021-08-19T15:45:49Z</time>
      </trkpt>
      <trkpt lat="44.8668" lon="2.52718">
        <ele>798</ele>
        <time>2021-08-19T15:45:51Z</time>
      </trkpt>
      <trkpt lat="44.8669" lon="2.52694">
        <ele>797.1</ele>
        <time>2021-08-19T15:45:53Z</time>
      </trkpt>
      <trkpt lat="44.867" lon="2.5267">
        <ele>796</ele>
        <time>2021-08-19T15:45:55Z</time>
      </trkpt>
      <trkpt lat="44.86706" lon="2.52644">
        <ele>795.4</ele>
        <time>2021-08-19T15:45:57Z</time>
      </trkpt>
      <trkpt lat="44.86712" lon="2.52618">
        <ele>795</ele>
        <time>2021-08-19T15:45:59Z</time>
      </trkpt>
      <trkpt lat="44.86719" lon="2.52593">
        <ele>794.7</ele>
        <time>2021-08-19T15:46:01Z</time>
      </trkpt>
      <trkpt lat="44.86729" lon="2.52569">
        <ele>794.2</ele>
        <time>2021-08-19T15:46:03Z</time>
      </trkpt>
      <trkpt lat="44.8674" lon="2.52547">
        <ele>793.1</ele>
        <time>2021-08-19T15:46:05Z</time>
      </trkpt>
      <trkpt lat="44.86752" lon="2.52526">
        <ele>792</ele>
        <time>2021-08-19T15:46:07Z</time>
      </trkpt>
      <trkpt lat="44.86765" lon="2.52506">
        <ele>791.6</ele>
        <time>2021-08-19T15:46:09Z</time>
      </trkpt>
      <trkpt lat="44.86778" lon="2.52487">
        <ele>791.3</ele>
        <time>2021-08-19T15:46:11Z</time>
      </trkpt>
      <trkpt lat="44.8679" lon="2.52467">
        <ele>790.8</ele>
        <time>2021-08-19T15:46:13Z</time>
      </trkpt>
      <trkpt lat="44.86803" lon="2.52446">
        <ele>790.1</ele>
        <time>2021-08-19T15:46:15Z</time>
      </trkpt>
      <trkpt lat="44.86813" lon="2.52424">
        <ele>789.1</ele>
        <time>2021-08-19T15:46:17Z</time>
      </trkpt>
      <trkpt lat="44.86823" lon="2.52402">
        <ele>788</ele>
        <time>2021-08-19T15:46:19Z</time>
      </trkpt>
      <trkpt lat="44.86833" lon="2.5238">
        <ele>786.5</ele>
        <time>2021-08-19T15:46:21Z</time>
      </trkpt>
      <trkpt lat="44.86843" lon="2.52359">
        <ele>785.5</ele>
        <time>2021-08-19T15:46:23Z</time>
      </trkpt>
      <trkpt lat="44.86853" lon="2.52338">
        <ele>784.7</ele>
        <time>2021-08-19T15:46:25Z</time>
      </trkpt>
      <trkpt lat="44.86861" lon="2.52316">
        <ele>783.7</ele>
        <time>2021-08-19T15:46:27Z</time>
      </trkpt>
      <trkpt lat="44.86868" lon="2.52292">
        <ele>782.4</ele>
        <time>2021-08-19T15:46:29Z</time>
      </trkpt>
      <trkpt lat="44.86876" lon="2.5227">
        <ele>781.4</ele>
        <time>2021-08-19T15:46:31Z</time>
      </trkpt>
      <trkpt lat="44.86884" lon="2.52247">
        <ele>780.4</ele>
        <time>2021-08-19T15:46:33Z</time>
      </trkpt>
      <trkpt lat="44.86894" lon="2.52226">
        <ele>779.4</ele>
        <time>2021-08-19T15:46:35Z</time>
      </trkpt>
      <trkpt lat="44.86906" lon="2.52207">
        <ele>777.9</ele>
        <time>2021-08-19T15:46:37Z</time>
      </trkpt>
      <trkpt lat="44.86923" lon="2.52193">
        <ele>775.8</ele>
        <time>2021-08-19T15:46:39Z</time>
      </trkpt>
      <trkpt lat="44.86941" lon="2.52181">
        <ele>772.8</ele>
        <time>2021-08-19T15:46:41Z</time>
      </trkpt>
      <trkpt lat="44.86959" lon="2.52167">
        <ele>770</ele>
        <time>2021-08-19T15:46:43Z</time>
      </trkpt>
      <trkpt lat="44.86977" lon="2.52151">
        <ele>768.7</ele>
        <time>2021-08-19T15:46:45Z</time>
      </trkpt>
      <trkpt lat="44.86993" lon="2.52131">
        <ele>767.7</ele>
        <time>2021-08-19T15:46:47Z</time>
      </trkpt>
      <trkpt lat="44.87006" lon="2.52105">
        <ele>768.7</ele>
        <time>2021-08-19T15:46:49Z</time>
      </trkpt>
      <trkpt lat="44.87014" lon="2.52076">
        <ele>770.4</ele>
        <time>2021-08-19T15:46:51Z</time>
      </trkpt>
      <trkpt lat="44.87016" lon="2.52047">
        <ele>770.4</ele>
        <time>2021-08-19T15:46:53Z</time>
      </trkpt>
      <trkpt lat="44.87016" lon="2.52019">
        <ele>769.6</ele>
        <time>2021-08-19T15:46:55Z</time>
      </trkpt>
      <trkpt lat="44.87016" lon="2.51993">
        <ele>768.7</ele>
        <time>2021-08-19T15:46:57Z</time>
      </trkpt>
      <trkpt lat="44.87017" lon="2.51968">
        <ele>767.2</ele>
        <time>2021-08-19T15:46:59Z</time>
      </trkpt>
      <trkpt lat="44.87021" lon="2.51944">
        <ele>766.6</ele>
        <time>2021-08-19T15:47:01Z</time>
      </trkpt>
      <trkpt lat="44.87027" lon="2.51923">
        <ele>766.3</ele>
        <time>2021-08-19T15:47:03Z</time>
      </trkpt>
      <trkpt lat="44.87036" lon="2.51906">
        <ele>766.2</ele>
        <time>2021-08-19T15:47:05Z</time>
      </trkpt>
      <trkpt lat="44.87045" lon="2.51889">
        <ele>765.8</ele>
        <time>2021-08-19T15:47:07Z</time>
      </trkpt>
      <trkpt lat="44.87054" lon="2.51873">
        <ele>765.5</ele>
        <time>2021-08-19T15:47:09Z</time>
      </trkpt>
      <trkpt lat="44.87062" lon="2.51857">
        <ele>764.9</ele>
        <time>2021-08-19T15:47:11Z</time>
      </trkpt>
      <trkpt lat="44.87071" lon="2.51841">
        <ele>764.2</ele>
        <time>2021-08-19T15:47:13Z</time>
      </trkpt>
      <trkpt lat="44.87079" lon="2.51825">
        <ele>764.3</ele>
        <time>2021-08-19T15:47:15Z</time>
      </trkpt>
      <trkpt lat="44.87086" lon="2.5181">
        <ele>765</ele>
        <time>2021-08-19T15:47:17Z</time>
      </trkpt>
      <trkpt lat="44.87092" lon="2.51794">
        <ele>765.4</ele>
        <time>2021-08-19T15:47:19Z</time>
      </trkpt>
      <trkpt lat="44.87097" lon="2.5178">
        <ele>765.5</ele>
        <time>2021-08-19T15:47:21Z</time>
      </trkpt>
      <trkpt lat="44.87101" lon="2.51767">
        <ele>765.6</ele>
        <time>2021-08-19T15:47:23Z</time>
      </trkpt>
      <trkpt lat="44.87104" lon="2.51755">
        <ele>765.6</ele>
        <time>2021-08-19T15:47:25Z</time>
      </trkpt>
      <trkpt lat="44.87106" lon="2.51744">
        <ele>765.6</ele>
        <time>2021-08-19T15:47:27Z</time>
      </trkpt>
      <trkpt lat="44.87108" lon="2.51733">
        <ele>765.6</ele>
        <time>2021-08-19T15:47:29Z</time>
      </trkpt>
      <trkpt lat="44.87109" lon="2.51724">
        <ele>765.6</ele>
        <time>2021-08-19T15:47:31Z</time>
      </trkpt>
      <trkpt lat="44.8711" lon="2.51715">
        <ele>765.5</ele>
        <time>2021-08-19T15:47:33Z</time>
      </trkpt>
      <trkpt lat="44.87111" lon="2.51706">
        <ele>765.5</ele>
        <time>2021-08-19T15:47:35Z</time>
      </trkpt>
      <trkpt lat="44.87111" lon="2.51698">
        <ele>765.4</ele>
        <time>2021-08-19T15:47:37Z</time>
      </trkpt>
      <trkpt lat="44.87112" lon="2.51689">
        <ele>765.3</ele>
        <time>2021-08-19T15:47:39Z</time>
      </trkpt>
      <trkpt lat="44.87112" lon="2.51681">
        <ele>765.3</ele>
        <time>2021-08-19T15:47:41Z</time>
      </trkpt>
      <trkpt lat="44.87113" lon="2.51673">
        <ele>765.2</ele>
        <time>2021-08-19T15:47:43Z</time>
      </trkpt>
      <trkpt lat="44.87112" lon="2.51666">
        <ele>765.1</ele>
        <time>2021-08-19T15:47:45Z</time>
      </trkpt>
      <trkpt lat="44.87112" lon="2.51658">
        <ele>765.3</ele>
        <time>2021-08-19T15:47:47Z</time>
      </trkpt>
      <trkpt lat="44.87112" lon="2.5165">
        <ele>765.5</ele>
        <time>2021-08-19T15:47:49Z</time>
      </trkpt>
      <trkpt lat="44.87112" lon="2.51642">
        <ele>765.7</ele>
        <time>2021-08-19T15:47:51Z</time>
      </trkpt>
      <trkpt lat="44.87111" lon="2.51634">
        <ele>765.9</ele>
        <time>2021-08-19T15:47:53Z</time>
      </trkpt>
      <trkpt lat="44.87111" lon="2.51628">
        <ele>766.1</ele>
        <time>2021-08-19T15:47:55Z</time>
      </trkpt>
      <trkpt lat="44.87111" lon="2.5162">
        <ele>766.3</ele>
        <time>2021-08-19T15:47:57Z</time>
      </trkpt>
      <trkpt lat="44.87111" lon="2.51613">
        <ele>766.5</ele>
        <time>2021-08-19T15:47:59Z</time>
      </trkpt>
      <trkpt lat="44.8711" lon="2.51605">
        <ele>766.7</ele>
        <time>2021-08-19T15:48:01Z</time>
      </trkpt>
      <trkpt lat="44.8711" lon="2.51598">
        <ele>766.8</ele>
        <time>2021-08-19T15:48:03Z</time>
      </trkpt>
      <trkpt lat="44.87109" lon="2.51591">
        <ele>767</ele>
        <time>2021-08-19T15:48:05Z</time>
      </trkpt>
      <trkpt lat="44.87109" lon="2.51584">
        <ele>767.1</ele>
        <time>2021-08-19T15:48:07Z</time>
      </trkpt>
      <trkpt lat="44.87109" lon="2.51578">
        <ele>767.1</ele>
        <time>2021-08-19T15:48:09Z</time>
      </trkpt>
      <trkpt lat="44.87108" lon="2.51571">
        <ele>767.1</ele>
        <time>2021-08-19T15:48:11Z</time>
      </trkpt>
      <trkpt lat="44.87107" lon="2.51564">
        <ele>767.1</ele>
        <time>2021-08-19T15:48:13Z</time>
      </trkpt>
      <trkpt lat="44.87107" lon="2.51557">
        <ele>767.1</ele>
        <time>2021-08-19T15:48:15Z</time>
      </trkpt>
      <trkpt lat="44.87106" lon="2.51549">
        <ele>767.1</ele>
        <time>2021-08-19T15:48:17Z</time>
      </trkpt>
      <trkpt lat="44.87105" lon="2.51541">
        <ele>767.1</ele>
        <time>2021-08-19T15:48:19Z</time>
      </trkpt>
      <trkpt lat="44.87104" lon="2.51532">
        <ele>767.1</ele>
        <time>2021-08-19T15:48:21Z</time>
      </trkpt>
      <trkpt lat="44.87103" lon="2.51524">
        <ele>767</ele>
        <time>2021-08-19T15:48:23Z</time>
      </trkpt>
      <trkpt lat="44.87102" lon="2.51514">
        <ele>767</ele>
        <time>2021-08-19T15:48:25Z</time>
      </trkpt>
      <trkpt lat="44.87102" lon="2.51504">
        <ele>767.1</ele>
        <time>2021-08-19T15:48:27Z</time>
      </trkpt>
      <trkpt lat="44.87102" lon="2.51494">
        <ele>767</ele>
        <time>2021-08-19T15:48:29Z</time>
      </trkpt>
      <trkpt lat="44.87103" lon="2.51484">
        <ele>766.9</ele>
        <time>2021-08-19T15:48:31Z</time>
      </trkpt>
      <trkpt lat="44.87104" lon="2.51475">
        <ele>766.8</ele>
        <time>2021-08-19T15:48:33Z</time>
      </trkpt>
      <trkpt lat="44.87105" lon="2.51466">
        <ele>766.8</ele>
        <time>2021-08-19T15:48:35Z</time>
      </trkpt>
      <trkpt lat="44.87108" lon="2.51457">
        <ele>766.7</ele>
        <time>2021-08-19T15:48:37Z</time>
      </trkpt>
      <trkpt lat="44.87112" lon="2.5145">
        <ele>766.7</ele>
        <time>2021-08-19T15:48:39Z</time>
      </trkpt>
      <trkpt lat="44.87116" lon="2.51443">
        <ele>766.6</ele>
        <time>2021-08-19T15:48:41Z</time>
      </trkpt>
      <trkpt lat="44.87119" lon="2.51438">
        <ele>766.5</ele>
        <time>2021-08-19T15:48:43Z</time>
      </trkpt>
      <trkpt lat="44.87124" lon="2.51431">
        <ele>766.4</ele>
        <time>2021-08-19T15:48:45Z</time>
      </trkpt>
      <trkpt lat="44.87131" lon="2.51426">
        <ele>766.3</ele>
        <time>2021-08-19T15:48:47Z</time>
      </trkpt>
      <trkpt lat="44.87141" lon="2.51421">
        <ele>766.2</ele>
        <time>2021-08-19T15:48:49Z</time>
      </trkpt>
      <trkpt lat="44.87152" lon="2.51416">
        <ele>766</ele>
        <time>2021-08-19T15:48:51Z</time>
      </trkpt>
      <trkpt lat="44.87165" lon="2.51412">
        <ele>765.7</ele>
        <time>2021-08-19T15:48:53Z</time>
      </trkpt>
      <trkpt lat="44.87179" lon="2.51407">
        <ele>765.4</ele>
        <time>2021-08-19T15:48:55Z</time>
      </trkpt>
      <trkpt lat="44.87194" lon="2.51402">
        <ele>765.1</ele>
        <time>2021-08-19T15:48:57Z</time>
      </trkpt>
      <trkpt lat="44.87209" lon="2.51399">
        <ele>764.8</ele>
        <time>2021-08-19T15:48:59Z</time>
      </trkpt>
      <trkpt lat="44.87225" lon="2.51395">
        <ele>764.5</ele>
        <time>2021-08-19T15:49:01Z</time>
      </trkpt>
      <trkpt lat="44.87241" lon="2.51389">
        <ele>764</ele>
        <time>2021-08-19T15:49:03Z</time>
      </trkpt>
      <trkpt lat="44.87257" lon="2.51377">
        <ele>762.8</ele>
        <time>2021-08-19T15:49:05Z</time>
      </trkpt>
      <trkpt lat="44.8727" lon="2.51359">
        <ele>761.1</ele>
        <time>2021-08-19T15:49:07Z</time>
      </trkpt>
      <trkpt lat="44.87281" lon="2.51337">
        <ele>759.2</ele>
        <time>2021-08-19T15:49:09Z</time>
      </trkpt>
      <trkpt lat="44.87289" lon="2.51313">
        <ele>757.1</ele>
        <time>2021-08-19T15:49:11Z</time>
      </trkpt>
      <trkpt lat="44.87298" lon="2.51289">
        <ele>755</ele>
        <time>2021-08-19T15:49:13Z</time>
      </trkpt>
      <trkpt lat="44.87312" lon="2.51268">
        <ele>752.7</ele>
        <time>2021-08-19T15:49:15Z</time>
      </trkpt>
      <trkpt lat="44.87328" lon="2.51249">
        <ele>750.3</ele>
        <time>2021-08-19T15:49:17Z</time>
      </trkpt>
      <trkpt lat="44.87341" lon="2.51226">
        <ele>749.2</ele>
        <time>2021-08-19T15:49:19Z</time>
      </trkpt>
      <trkpt lat="44.87349" lon="2.51197">
        <ele>748.5</ele>
        <time>2021-08-19T15:49:21Z</time>
      </trkpt>
      <trkpt lat="44.87354" lon="2.51165">
        <ele>747.4</ele>
        <time>2021-08-19T15:49:23Z</time>
      </trkpt>
      <trkpt lat="44.8736" lon="2.51132">
        <ele>745.7</ele>
        <time>2021-08-19T15:49:25Z</time>
      </trkpt>
      <trkpt lat="44.87365" lon="2.51102">
        <ele>743.9</ele>
        <time>2021-08-19T15:49:27Z</time>
      </trkpt>
      <trkpt lat="44.87375" lon="2.51076">
        <ele>743.1</ele>
        <time>2021-08-19T15:49:29Z</time>
      </trkpt>
      <trkpt lat="44.8739" lon="2.51054">
        <ele>742.6</ele>
        <time>2021-08-19T15:49:31Z</time>
      </trkpt>
      <trkpt lat="44.87408" lon="2.51035">
        <ele>741.3</ele>
        <time>2021-08-19T15:49:33Z</time>
      </trkpt>
      <trkpt lat="44.87424" lon="2.51015">
        <ele>740.1</ele>
        <time>2021-08-19T15:49:35Z</time>
      </trkpt>
      <trkpt lat="44.87438" lon="2.50992">
        <ele>740.9</ele>
        <time>2021-08-19T15:49:37Z</time>
      </trkpt>
      <trkpt lat="44.87453" lon="2.5097">
        <ele>742.5</ele>
        <time>2021-08-19T15:49:39Z</time>
      </trkpt>
      <trkpt lat="44.87467" lon="2.50945">
        <ele>741.7</ele>
        <time>2021-08-19T15:49:41Z</time>
      </trkpt>
      <trkpt lat="44.87478" lon="2.50918">
        <ele>738.9</ele>
        <time>2021-08-19T15:49:43Z</time>
      </trkpt>
      <trkpt lat="44.87491" lon="2.50893">
        <ele>735.6</ele>
        <time>2021-08-19T15:49:45Z</time>
      </trkpt>
      <trkpt lat="44.87508" lon="2.50872">
        <ele>731.9</ele>
        <time>2021-08-19T15:49:47Z</time>
      </trkpt>
      <trkpt lat="44.87526" lon="2.50854">
        <ele>729.5</ele>
        <time>2021-08-19T15:49:49Z</time>
      </trkpt>
      <trkpt lat="44.8754" lon="2.50834">
        <ele>726.2</ele>
        <time>2021-08-19T15:49:51Z</time>
      </trkpt>
      <trkpt lat="44.87551" lon="2.5081">
        <ele>724.5</ele>
        <time>2021-08-19T15:49:53Z</time>
      </trkpt>
      <trkpt lat="44.87556" lon="2.5078">
        <ele>722.3</ele>
        <time>2021-08-19T15:49:55Z</time>
      </trkpt>
      <trkpt lat="44.87561" lon="2.50753">
        <ele>720.3</ele>
        <time>2021-08-19T15:49:57Z</time>
      </trkpt>
      <trkpt lat="44.87572" lon="2.5073">
        <ele>718.6</ele>
        <time>2021-08-19T15:49:59Z</time>
      </trkpt>
      <trkpt lat="44.87588" lon="2.50715">
        <ele>718</ele>
        <time>2021-08-19T15:50:01Z</time>
      </trkpt>
      <trkpt lat="44.87603" lon="2.50701">
        <ele>720.1</ele>
        <time>2021-08-19T15:50:03Z</time>
      </trkpt>
      <trkpt lat="44.87615" lon="2.50683">
        <ele>720.7</ele>
        <time>2021-08-19T15:50:05Z</time>
      </trkpt>
      <trkpt lat="44.87622" lon="2.5066">
        <ele>719.4</ele>
        <time>2021-08-19T15:50:07Z</time>
      </trkpt>
      <trkpt lat="44.87624" lon="2.50634">
        <ele>717.4</ele>
        <time>2021-08-19T15:50:09Z</time>
      </trkpt>
      <trkpt lat="44.87622" lon="2.50607">
        <ele>714.6</ele>
        <time>2021-08-19T15:50:11Z</time>
      </trkpt>
      <trkpt lat="44.87622" lon="2.50579">
        <ele>712.2</ele>
        <time>2021-08-19T15:50:13Z</time>
      </trkpt>
      <trkpt lat="44.87626" lon="2.50551">
        <ele>710.6</ele>
        <time>2021-08-19T15:50:15Z</time>
      </trkpt>
      <trkpt lat="44.8763" lon="2.50522">
        <ele>708.8</ele>
        <time>2021-08-19T15:50:17Z</time>
      </trkpt>
      <trkpt lat="44.87637" lon="2.50493">
        <ele>707.1</ele>
        <time>2021-08-19T15:50:19Z</time>
      </trkpt>
      <trkpt lat="44.87645" lon="2.50463">
        <ele>704.3</ele>
        <time>2021-08-19T15:50:21Z</time>
      </trkpt>
      <trkpt lat="44.87653" lon="2.50433">
        <ele>700.4</ele>
        <time>2021-08-19T15:50:23Z</time>
      </trkpt>
      <trkpt lat="44.87662" lon="2.50403">
        <ele>695.6</ele>
        <time>2021-08-19T15:50:25Z</time>
      </trkpt>
      <trkpt lat="44.87673" lon="2.50374">
        <ele>693</ele>
        <time>2021-08-19T15:50:27Z</time>
      </trkpt>
      <trkpt lat="44.87683" lon="2.50342">
        <ele>691.5</ele>
        <time>2021-08-19T15:50:29Z</time>
      </trkpt>
      <trkpt lat="44.87696" lon="2.50314">
        <ele>691.8</ele>
        <time>2021-08-19T15:50:31Z</time>
      </trkpt>
      <trkpt lat="44.8771" lon="2.50286">
        <ele>691.2</ele>
        <time>2021-08-19T15:50:33Z</time>
      </trkpt>
      <trkpt lat="44.87721" lon="2.50256">
        <ele>688.6</ele>
        <time>2021-08-19T15:50:35Z</time>
      </trkpt>
      <trkpt lat="44.8773" lon="2.50228">
        <ele>685.7</ele>
        <time>2021-08-19T15:50:37Z</time>
      </trkpt>
      <trkpt lat="44.8774" lon="2.50199">
        <ele>682.1</ele>
        <time>2021-08-19T15:50:39Z</time>
      </trkpt>
      <trkpt lat="44.87749" lon="2.50171">
        <ele>677.8</ele>
        <time>2021-08-19T15:50:41Z</time>
      </trkpt>
      <trkpt lat="44.87759" lon="2.50145">
        <ele>676.1</ele>
        <time>2021-08-19T15:50:43Z</time>
      </trkpt>
      <trkpt lat="44.8777" lon="2.50124">
        <ele>675</ele>
        <time>2021-08-19T15:50:45Z</time>
      </trkpt>
      <trkpt lat="44.87784" lon="2.50109">
        <ele>674.6</ele>
        <time>2021-08-19T15:50:47Z</time>
      </trkpt>
      <trkpt lat="44.87803" lon="2.501">
        <ele>674.8</ele>
        <time>2021-08-19T15:50:49Z</time>
      </trkpt>
      <trkpt lat="44.87823" lon="2.50101">
        <ele>677</ele>
        <time>2021-08-19T15:50:51Z</time>
      </trkpt>
      <trkpt lat="44.87844" lon="2.50103">
        <ele>677.1</ele>
        <time>2021-08-19T15:50:53Z</time>
      </trkpt>
      <trkpt lat="44.87864" lon="2.50104">
        <ele>675</ele>
        <time>2021-08-19T15:50:55Z</time>
      </trkpt>
      <trkpt lat="44.87886" lon="2.50103">
        <ele>672.2</ele>
        <time>2021-08-19T15:50:57Z</time>
      </trkpt>
      <trkpt lat="44.87906" lon="2.50099">
        <ele>668.4</ele>
        <time>2021-08-19T15:50:59Z</time>
      </trkpt>
      <trkpt lat="44.87926" lon="2.5009">
        <ele>662.8</ele>
        <time>2021-08-19T15:51:01Z</time>
      </trkpt>
      <trkpt lat="44.87945" lon="2.50078">
        <ele>657.9</ele>
        <time>2021-08-19T15:51:03Z</time>
      </trkpt>
      <trkpt lat="44.8796" lon="2.50062">
        <ele>654.2</ele>
        <time>2021-08-19T15:51:05Z</time>
      </trkpt>
      <trkpt lat="44.87973" lon="2.5004">
        <ele>650.8</ele>
        <time>2021-08-19T15:51:07Z</time>
      </trkpt>
      <trkpt lat="44.87982" lon="2.50018">
        <ele>648</ele>
        <time>2021-08-19T15:51:09Z</time>
      </trkpt>
      <trkpt lat="44.8799" lon="2.50002">
        <ele>646.4</ele>
        <time>2021-08-19T15:51:11Z</time>
      </trkpt>
      <trkpt lat="44.87998" lon="2.49988">
        <ele>645.4</ele>
        <time>2021-08-19T15:51:13Z</time>
      </trkpt>
      <trkpt lat="44.88013" lon="2.49978">
        <ele>644.2</ele>
        <time>2021-08-19T15:51:15Z</time>
      </trkpt>
      <trkpt lat="44.88029" lon="2.49971">
        <ele>643.1</ele>
        <time>2021-08-19T15:51:17Z</time>
      </trkpt>
      <trkpt lat="44.88047" lon="2.49964">
        <ele>642</ele>
        <time>2021-08-19T15:51:19Z</time>
      </trkpt>
      <trkpt lat="44.88065" lon="2.49957">
        <ele>640.8</ele>
        <time>2021-08-19T15:51:21Z</time>
      </trkpt>
      <trkpt lat="44.88083" lon="2.49949">
        <ele>639.8</ele>
        <time>2021-08-19T15:51:23Z</time>
      </trkpt>
      <trkpt lat="44.88101" lon="2.49941">
        <ele>640.9</ele>
        <time>2021-08-19T15:51:25Z</time>
      </trkpt>
      <trkpt lat="44.88117" lon="2.49934">
        <ele>642.2</ele>
        <time>2021-08-19T15:51:27Z</time>
      </trkpt>
      <trkpt lat="44.88132" lon="2.49923">
        <ele>643.5</ele>
        <time>2021-08-19T15:51:29Z</time>
      </trkpt>
      <trkpt lat="44.88142" lon="2.49906">
        <ele>644.2</ele>
        <time>2021-08-19T15:51:31Z</time>
      </trkpt>
      <trkpt lat="44.8815" lon="2.49889">
        <ele>644.2</ele>
        <time>2021-08-19T15:51:33Z</time>
      </trkpt>
      <trkpt lat="44.88158" lon="2.49872">
        <ele>644.1</ele>
        <time>2021-08-19T15:51:35Z</time>
      </trkpt>
      <trkpt lat="44.88165" lon="2.49858">
        <ele>644.1</ele>
        <time>2021-08-19T15:51:37Z</time>
      </trkpt>
      <trkpt lat="44.88172" lon="2.49843">
        <ele>644.5</ele>
        <time>2021-08-19T15:51:39Z</time>
      </trkpt>
      <trkpt lat="44.88178" lon="2.49828">
        <ele>645.1</ele>
        <time>2021-08-19T15:51:41Z</time>
      </trkpt>
      <trkpt lat="44.88182" lon="2.49812">
        <ele>645.5</ele>
        <time>2021-08-19T15:51:43Z</time>
      </trkpt>
      <trkpt lat="44.88186" lon="2.49796">
        <ele>645.7</ele>
        <time>2021-08-19T15:51:45Z</time>
      </trkpt>
      <trkpt lat="44.88189" lon="2.4978">
        <ele>645.8</ele>
        <time>2021-08-19T15:51:47Z</time>
      </trkpt>
      <trkpt lat="44.88191" lon="2.49763">
        <ele>645.5</ele>
        <time>2021-08-19T15:51:49Z</time>
      </trkpt>
      <trkpt lat="44.88193" lon="2.49746">
        <ele>645.1</ele>
        <time>2021-08-19T15:51:51Z</time>
      </trkpt>
      <trkpt lat="44.88194" lon="2.49729">
        <ele>644.1</ele>
        <time>2021-08-19T15:51:53Z</time>
      </trkpt>
      <trkpt lat="44.88195" lon="2.49711">
        <ele>643.1</ele>
        <time>2021-08-19T15:51:55Z</time>
      </trkpt>
      <trkpt lat="44.88196" lon="2.49694">
        <ele>642</ele>
        <time>2021-08-19T15:51:57Z</time>
      </trkpt>
      <trkpt lat="44.88198" lon="2.49677">
        <ele>641.1</ele>
        <time>2021-08-19T15:51:59Z</time>
      </trkpt>
      <trkpt lat="44.882" lon="2.49661">
        <ele>640.6</ele>
        <time>2021-08-19T15:52:01Z</time>
      </trkpt>
      <trkpt lat="44.88204" lon="2.49646">
        <ele>640.7</ele>
        <time>2021-08-19T15:52:03Z</time>
      </trkpt>
      <trkpt lat="44.88207" lon="2.49632">
        <ele>640.9</ele>
        <time>2021-08-19T15:52:05Z</time>
      </trkpt>
      <trkpt lat="44.8821" lon="2.4962">
        <ele>641.1</ele>
        <time>2021-08-19T15:52:07Z</time>
      </trkpt>
      <trkpt lat="44.88214" lon="2.49609">
        <ele>641.4</ele>
        <time>2021-08-19T15:52:09Z</time>
      </trkpt>
      <trkpt lat="44.88218" lon="2.496">
        <ele>641.8</ele>
        <time>2021-08-19T15:52:11Z</time>
      </trkpt>
      <trkpt lat="44.88223" lon="2.49592">
        <ele>642.1</ele>
        <time>2021-08-19T15:52:13Z</time>
      </trkpt>
      <trkpt lat="44.88227" lon="2.49584">
        <ele>642.5</ele>
        <time>2021-08-19T15:52:15Z</time>
      </trkpt>
      <trkpt lat="44.8823" lon="2.49576">
        <ele>642.7</ele>
        <time>2021-08-19T15:52:17Z</time>
      </trkpt>
      <trkpt lat="44.88234" lon="2.49569">
        <ele>642.9</ele>
        <time>2021-08-19T15:52:19Z</time>
      </trkpt>
      <trkpt lat="44.88237" lon="2.49562">
        <ele>643.1</ele>
        <time>2021-08-19T15:52:21Z</time>
      </trkpt>
      <trkpt lat="44.8824" lon="2.49555">
        <ele>643.3</ele>
        <time>2021-08-19T15:52:23Z</time>
      </trkpt>
      <trkpt lat="44.88243" lon="2.49548">
        <ele>643.5</ele>
        <time>2021-08-19T15:52:25Z</time>
      </trkpt>
      <trkpt lat="44.88245" lon="2.49541">
        <ele>643.5</ele>
        <time>2021-08-19T15:52:27Z</time>
      </trkpt>
      <trkpt lat="44.88248" lon="2.49535">
        <ele>643.7</ele>
        <time>2021-08-19T15:52:29Z</time>
      </trkpt>
      <trkpt lat="44.8825" lon="2.49529">
        <ele>643.7</ele>
        <time>2021-08-19T15:52:31Z</time>
      </trkpt>
      <trkpt lat="44.88253" lon="2.49524">
        <ele>643.9</ele>
        <time>2021-08-19T15:52:33Z</time>
      </trkpt>
      <trkpt lat="44.88255" lon="2.49519">
        <ele>644.1</ele>
        <time>2021-08-19T15:52:35Z</time>
      </trkpt>
      <trkpt lat="44.88258" lon="2.49513">
        <ele>644.3</ele>
        <time>2021-08-19T15:52:37Z</time>
      </trkpt>
      <trkpt lat="44.8826" lon="2.49509">
        <ele>644.5</ele>
        <time>2021-08-19T15:52:39Z</time>
      </trkpt>
      <trkpt lat="44.88262" lon="2.49505">
        <ele>644.7</ele>
        <time>2021-08-19T15:52:41Z</time>
      </trkpt>
      <trkpt lat="44.88265" lon="2.495">
        <ele>644.9</ele>
        <time>2021-08-19T15:52:43Z</time>
      </trkpt>
      <trkpt lat="44.88267" lon="2.49495">
        <ele>645.2</ele>
        <time>2021-08-19T15:52:45Z</time>
      </trkpt>
      <trkpt lat="44.8827" lon="2.49492">
        <ele>645.6</ele>
        <time>2021-08-19T15:52:47Z</time>
      </trkpt>
      <trkpt lat="44.88274" lon="2.4949">
        <ele>646</ele>
        <time>2021-08-19T15:52:49Z</time>
      </trkpt>
      <trkpt lat="44.88277" lon="2.49487">
        <ele>646.4</ele>
        <time>2021-08-19T15:52:51Z</time>
      </trkpt>
      <trkpt lat="44.88281" lon="2.49484">
        <ele>646.9</ele>
        <time>2021-08-19T15:52:53Z</time>
      </trkpt>
      <trkpt lat="44.88284" lon="2.4948">
        <ele>647.2</ele>
        <time>2021-08-19T15:52:55Z</time>
      </trkpt>
      <trkpt lat="44.88287" lon="2.49477">
        <ele>647.6</ele>
        <time>2021-08-19T15:52:57Z</time>
      </trkpt>
      <trkpt lat="44.88291" lon="2.49475">
        <ele>648.1</ele>
        <time>2021-08-19T15:52:59Z</time>
      </trkpt>
      <trkpt lat="44.88294" lon="2.49471">
        <ele>648.5</ele>
        <time>2021-08-19T15:53:01Z</time>
      </trkpt>
      <trkpt lat="44.88297" lon="2.49467">
        <ele>648.9</ele>
        <time>2021-08-19T15:53:03Z</time>
      </trkpt>
      <trkpt lat="44.88301" lon="2.49463">
        <ele>649.3</ele>
        <time>2021-08-19T15:53:05Z</time>
      </trkpt>
      <trkpt lat="44.88305" lon="2.49461">
        <ele>649.8</ele>
        <time>2021-08-19T15:53:07Z</time>
      </trkpt>
      <trkpt lat="44.88309" lon="2.49456">
        <ele>650.3</ele>
        <time>2021-08-19T15:53:09Z</time>
      </trkpt>
      <trkpt lat="44.88313" lon="2.49453">
        <ele>650.8</ele>
        <time>2021-08-19T15:53:11Z</time>
      </trkpt>
      <trkpt lat="44.88318" lon="2.4945">
        <ele>651.3</ele>
        <time>2021-08-19T15:53:13Z</time>
      </trkpt>
      <trkpt lat="44.88321" lon="2.49447">
        <ele>651.8</ele>
        <time>2021-08-19T15:53:15Z</time>
      </trkpt>
      <trkpt lat="44.88325" lon="2.49444">
        <ele>652.3</ele>
        <time>2021-08-19T15:53:17Z</time>
      </trkpt>
      <trkpt lat="44.88329" lon="2.49441">
        <ele>652.8</ele>
        <time>2021-08-19T15:53:19Z</time>
      </trkpt>
      <trkpt lat="44.88333" lon="2.49438">
        <ele>653.2</ele>
        <time>2021-08-19T15:53:21Z</time>
      </trkpt>
      <trkpt lat="44.88336" lon="2.49433">
        <ele>653.8</ele>
        <time>2021-08-19T15:53:23Z</time>
      </trkpt>
      <trkpt lat="44.88339" lon="2.49428">
        <ele>654.3</ele>
        <time>2021-08-19T15:53:25Z</time>
      </trkpt>
      <trkpt lat="44.88342" lon="2.49423">
        <ele>654.8</ele>
        <time>2021-08-19T15:53:27Z</time>
      </trkpt>
      <trkpt lat="44.88344" lon="2.49418">
        <ele>655.1</ele>
        <time>2021-08-19T15:53:29Z</time>
      </trkpt>
      <trkpt lat="44.88345" lon="2.49412">
        <ele>655.6</ele>
        <time>2021-08-19T15:53:31Z</time>
      </trkpt>
      <trkpt lat="44.88346" lon="2.49406">
        <ele>656.1</ele>
        <time>2021-08-19T15:53:33Z</time>
      </trkpt>
      <trkpt lat="44.88346" lon="2.494">
        <ele>656.7</ele>
        <time>2021-08-19T15:53:35Z</time>
      </trkpt>
      <trkpt lat="44.88345" lon="2.49393">
        <ele>657</ele>
        <time>2021-08-19T15:53:37Z</time>
      </trkpt>
      <trkpt lat="44.88342" lon="2.49387">
        <ele>656.9</ele>
        <time>2021-08-19T15:53:39Z</time>
      </trkpt>
      <trkpt lat="44.8834" lon="2.49382">
        <ele>656.7</ele>
        <time>2021-08-19T15:53:41Z</time>
      </trkpt>
      <trkpt lat="44.88336" lon="2.49376">
        <ele>656.5</ele>
        <time>2021-08-19T15:53:43Z</time>
      </trkpt>
      <trkpt lat="44.88333" lon="2.4937">
        <ele>656.2</ele>
        <time>2021-08-19T15:53:45Z</time>
      </trkpt>
      <trkpt lat="44.88329" lon="2.49363">
        <ele>656.1</ele>
        <time>2021-08-19T15:53:47Z</time>
      </trkpt>
      <trkpt lat="44.88324" lon="2.49357">
        <ele>655.6</ele>
        <time>2021-08-19T15:53:49Z</time>
      </trkpt>
      <trkpt lat="44.8832" lon="2.4935">
        <ele>655.1</ele>
        <time>2021-08-19T15:53:51Z</time>
      </trkpt>
      <trkpt lat="44.88315" lon="2.49343">
        <ele>654.5</ele>
        <time>2021-08-19T15:53:53Z</time>
      </trkpt>
      <trkpt lat="44.8831" lon="2.49335">
        <ele>653.8</ele>
        <time>2021-08-19T15:53:55Z</time>
      </trkpt>
      <trkpt lat="44.88304" lon="2.49325">
        <ele>653.1</ele>
        <time>2021-08-19T15:53:57Z</time>
      </trkpt>
      <trkpt lat="44.88299" lon="2.49316">
        <ele>652.4</ele>
        <time>2021-08-19T15:53:59Z</time>
      </trkpt>
      <trkpt lat="44.88295" lon="2.49304">
        <ele>652</ele>
        <time>2021-08-19T15:54:01Z</time>
      </trkpt>
      <trkpt lat="44.8829" lon="2.4929">
        <ele>651.6</ele>
        <time>2021-08-19T15:54:03Z</time>
      </trkpt>
      <trkpt lat="44.88286" lon="2.49275">
        <ele>651.2</ele>
        <time>2021-08-19T15:54:05Z</time>
      </trkpt>
      <trkpt lat="44.88282" lon="2.49259">
        <ele>651</ele>
        <time>2021-08-19T15:54:07Z</time>
      </trkpt>
      <trkpt lat="44.88278" lon="2.49242">
        <ele>650.4</ele>
        <time>2021-08-19T15:54:09Z</time>
      </trkpt>
      <trkpt lat="44.88273" lon="2.49224">
        <ele>649.5</ele>
        <time>2021-08-19T15:54:11Z</time>
      </trkpt>
      <trkpt lat="44.88267" lon="2.49206">
        <ele>648.5</ele>
        <time>2021-08-19T15:54:13Z</time>
      </trkpt>
      <trkpt lat="44.88261" lon="2.49187">
        <ele>647.4</ele>
        <time>2021-08-19T15:54:15Z</time>
      </trkpt>
      <trkpt lat="44.88253" lon="2.49168">
        <ele>646.4</ele>
        <time>2021-08-19T15:54:17Z</time>
      </trkpt>
      <trkpt lat="44.88246" lon="2.49149">
        <ele>645.4</ele>
        <time>2021-08-19T15:54:19Z</time>
      </trkpt>
      <trkpt lat="44.88242" lon="2.49129">
        <ele>644.7</ele>
        <time>2021-08-19T15:54:21Z</time>
      </trkpt>
      <trkpt lat="44.88238" lon="2.4911">
        <ele>644.3</ele>
        <time>2021-08-19T15:54:23Z</time>
      </trkpt>
      <trkpt lat="44.88236" lon="2.49092">
        <ele>644.2</ele>
        <time>2021-08-19T15:54:25Z</time>
      </trkpt>
      <trkpt lat="44.88234" lon="2.49074">
        <ele>644.9</ele>
        <time>2021-08-19T15:54:27Z</time>
      </trkpt>
      <trkpt lat="44.88233" lon="2.49058">
        <ele>646.3</ele>
        <time>2021-08-19T15:54:29Z</time>
      </trkpt>
      <trkpt lat="44.88233" lon="2.49044">
        <ele>647.7</ele>
        <time>2021-08-19T15:54:31Z</time>
      </trkpt>
      <trkpt lat="44.88233" lon="2.49031">
        <ele>648.9</ele>
        <time>2021-08-19T15:54:33Z</time>
      </trkpt>
      <trkpt lat="44.88234" lon="2.49021">
        <ele>649.9</ele>
        <time>2021-08-19T15:54:35Z</time>
      </trkpt>
      <trkpt lat="44.88234" lon="2.49011">
        <ele>650.7</ele>
        <time>2021-08-19T15:54:37Z</time>
      </trkpt>
      <trkpt lat="44.88234" lon="2.49003">
        <ele>651.5</ele>
        <time>2021-08-19T15:54:39Z</time>
      </trkpt>
      <trkpt lat="44.88235" lon="2.48996">
        <ele>652</ele>
        <time>2021-08-19T15:54:41Z</time>
      </trkpt>
      <trkpt lat="44.88236" lon="2.48989">
        <ele>652.4</ele>
        <time>2021-08-19T15:54:43Z</time>
      </trkpt>
      <trkpt lat="44.88236" lon="2.48982">
        <ele>652.8</ele>
        <time>2021-08-19T15:54:45Z</time>
      </trkpt>
      <trkpt lat="44.88237" lon="2.48976">
        <ele>653.2</ele>
        <time>2021-08-19T15:54:47Z</time>
      </trkpt>
      <trkpt lat="44.88237" lon="2.48969">
        <ele>653.6</ele>
        <time>2021-08-19T15:54:49Z</time>
      </trkpt>
      <trkpt lat="44.88238" lon="2.48963">
        <ele>653.9</ele>
        <time>2021-08-19T15:54:51Z</time>
      </trkpt>
      <trkpt lat="44.88239" lon="2.48957">
        <ele>654.3</ele>
        <time>2021-08-19T15:54:53Z</time>
      </trkpt>
      <trkpt lat="44.8824" lon="2.48951">
        <ele>654.7</ele>
        <time>2021-08-19T15:54:55Z</time>
      </trkpt>
      <trkpt lat="44.88241" lon="2.48945">
        <ele>655</ele>
        <time>2021-08-19T15:54:57Z</time>
      </trkpt>
      <trkpt lat="44.88242" lon="2.4894">
        <ele>655.2</ele>
        <time>2021-08-19T15:54:59Z</time>
      </trkpt>
      <trkpt lat="44.88242" lon="2.48935">
        <ele>655.5</ele>
        <time>2021-08-19T15:55:01Z</time>
      </trkpt>
      <trkpt lat="44.88243" lon="2.4893">
        <ele>655.7</ele>
        <time>2021-08-19T15:55:03Z</time>
      </trkpt>
      <trkpt lat="44.88244" lon="2.48925">
        <ele>656</ele>
        <time>2021-08-19T15:55:05Z</time>
      </trkpt>
      <trkpt lat="44.88245" lon="2.4892">
        <ele>656.2</ele>
        <time>2021-08-19T15:55:07Z</time>
      </trkpt>
      <trkpt lat="44.88246" lon="2.48915">
        <ele>656.4</ele>
        <time>2021-08-19T15:55:09Z</time>
      </trkpt>
      <trkpt lat="44.88247" lon="2.48909">
        <ele>656.5</ele>
        <time>2021-08-19T15:55:11Z</time>
      </trkpt>
      <trkpt lat="44.88248" lon="2.48904">
        <ele>656.6</ele>
        <time>2021-08-19T15:55:13Z</time>
      </trkpt>
      <trkpt lat="44.88249" lon="2.489">
        <ele>656.7</ele>
        <time>2021-08-19T15:55:15Z</time>
      </trkpt>
      <trkpt lat="44.8825" lon="2.48895">
        <ele>656.8</ele>
        <time>2021-08-19T15:55:17Z</time>
      </trkpt>
      <trkpt lat="44.8825" lon="2.4889">
        <ele>657</ele>
        <time>2021-08-19T15:55:19Z</time>
      </trkpt>
      <trkpt lat="44.88251" lon="2.48886">
        <ele>657.2</ele>
        <time>2021-08-19T15:55:21Z</time>
      </trkpt>
      <trkpt lat="44.88251" lon="2.48883">
        <ele>657.3</ele>
        <time>2021-08-19T15:55:23Z</time>
      </trkpt>
      <trkpt lat="44.88252" lon="2.48877">
        <ele>657.6</ele>
        <time>2021-08-19T15:55:25Z</time>
      </trkpt>
      <trkpt lat="44.88252" lon="2.48872">
        <ele>657.8</ele>
        <time>2021-08-19T15:55:27Z</time>
      </trkpt>
      <trkpt lat="44.88253" lon="2.48868">
        <ele>658</ele>
        <time>2021-08-19T15:55:29Z</time>
      </trkpt>
      <trkpt lat="44.88254" lon="2.48864">
        <ele>658.2</ele>
        <time>2021-08-19T15:55:31Z</time>
      </trkpt>
      <trkpt lat="44.88255" lon="2.48859">
        <ele>658.5</ele>
        <time>2021-08-19T15:55:33Z</time>
      </trkpt>
      <trkpt lat="44.88256" lon="2.48854">
        <ele>658.7</ele>
        <time>2021-08-19T15:55:35Z</time>
      </trkpt>
      <trkpt lat="44.88257" lon="2.48849">
        <ele>658.9</ele>
        <time>2021-08-19T15:55:37Z</time>
      </trkpt>
      <trkpt lat="44.88258" lon="2.48845">
        <ele>659.2</ele>
        <time>2021-08-19T15:55:39Z</time>
      </trkpt>
      <trkpt lat="44.88259" lon="2.48841">
        <ele>659.4</ele>
        <time>2021-08-19T15:55:41Z</time>
      </trkpt>
      <trkpt lat="44.88261" lon="2.48836">
        <ele>659.7</ele>
        <time>2021-08-19T15:55:43Z</time>
      </trkpt>
      <trkpt lat="44.88262" lon="2.48832">
        <ele>659.8</ele>
        <time>2021-08-19T15:55:45Z</time>
      </trkpt>
      <trkpt lat="44.88265" lon="2.48828">
        <ele>659.8</ele>
        <time>2021-08-19T15:55:47Z</time>
      </trkpt>
      <trkpt lat="44.88267" lon="2.48824">
        <ele>659.8</ele>
        <time>2021-08-19T15:55:49Z</time>
      </trkpt>
      <trkpt lat="44.8827" lon="2.48821">
        <ele>659.9</ele>
        <time>2021-08-19T15:55:51Z</time>
      </trkpt>
      <trkpt lat="44.88272" lon="2.48817">
        <ele>659.9</ele>
        <time>2021-08-19T15:55:53Z</time>
      </trkpt>
      <trkpt lat="44.88274" lon="2.48814">
        <ele>659.9</ele>
        <time>2021-08-19T15:55:55Z</time>
      </trkpt>
      <trkpt lat="44.88277" lon="2.4881">
        <ele>659.9</ele>
        <time>2021-08-19T15:55:57Z</time>
      </trkpt>
      <trkpt lat="44.88279" lon="2.48808">
        <ele>660</ele>
        <time>2021-08-19T15:55:59Z</time>
      </trkpt>
      <trkpt lat="44.88281" lon="2.48805">
        <ele>660</ele>
        <time>2021-08-19T15:56:01Z</time>
      </trkpt>
      <trkpt lat="44.88284" lon="2.48802">
        <ele>660</ele>
        <time>2021-08-19T15:56:03Z</time>
      </trkpt>
      <trkpt lat="44.88287" lon="2.48798">
        <ele>660.1</ele>
        <time>2021-08-19T15:56:05Z</time>
      </trkpt>
      <trkpt lat="44.88289" lon="2.48795">
        <ele>660.2</ele>
        <time>2021-08-19T15:56:07Z</time>
      </trkpt>
      <trkpt lat="44.88291" lon="2.48792">
        <ele>660.3</ele>
        <time>2021-08-19T15:56:09Z</time>
      </trkpt>
      <trkpt lat="44.88294" lon="2.48789">
        <ele>660.3</ele>
        <time>2021-08-19T15:56:11Z</time>
      </trkpt>
      <trkpt lat="44.88297" lon="2.48785">
        <ele>660.4</ele>
        <time>2021-08-19T15:56:13Z</time>
      </trkpt>
      <trkpt lat="44.883" lon="2.48782">
        <ele>660.5</ele>
        <time>2021-08-19T15:56:15Z</time>
      </trkpt>
      <trkpt lat="44.88302" lon="2.48779">
        <ele>660.5</ele>
        <time>2021-08-19T15:56:17Z</time>
      </trkpt>
      <trkpt lat="44.88305" lon="2.48775">
        <ele>660.6</ele>
        <time>2021-08-19T15:56:19Z</time>
      </trkpt>
      <trkpt lat="44.88308" lon="2.48772">
        <ele>660.7</ele>
        <time>2021-08-19T15:56:21Z</time>
      </trkpt>
      <trkpt lat="44.88311" lon="2.48769">
        <ele>660.8</ele>
        <time>2021-08-19T15:56:23Z</time>
      </trkpt>
      <trkpt lat="44.88313" lon="2.48766">
        <ele>660.9</ele>
        <time>2021-08-19T15:56:25Z</time>
      </trkpt>
      <trkpt lat="44.88316" lon="2.48762">
        <ele>661</ele>
        <time>2021-08-19T15:56:27Z</time>
      </trkpt>
      <trkpt lat="44.88319" lon="2.48758">
        <ele>661.1</ele>
        <time>2021-08-19T15:56:29Z</time>
      </trkpt>
      <trkpt lat="44.88322" lon="2.48754">
        <ele>661.2</ele>
        <time>2021-08-19T15:56:31Z</time>
      </trkpt>
      <trkpt lat="44.88325" lon="2.4875">
        <ele>661.3</ele>
        <time>2021-08-19T15:56:33Z</time>
      </trkpt>
      <trkpt lat="44.88328" lon="2.48747">
        <ele>661.6</ele>
        <time>2021-08-19T15:56:35Z</time>
      </trkpt>
      <trkpt lat="44.88332" lon="2.48743">
        <ele>661.9</ele>
        <time>2021-08-19T15:56:37Z</time>
      </trkpt>
      <trkpt lat="44.88335" lon="2.48739">
        <ele>662.3</ele>
        <time>2021-08-19T15:56:39Z</time>
      </trkpt>
      <trkpt lat="44.88339" lon="2.48735">
        <ele>662.8</ele>
        <time>2021-08-19T15:56:41Z</time>
      </trkpt>
      <trkpt lat="44.88342" lon="2.4873">
        <ele>663.3</ele>
        <time>2021-08-19T15:56:43Z</time>
      </trkpt>
      <trkpt lat="44.88345" lon="2.48726">
        <ele>663.8</ele>
        <time>2021-08-19T15:56:45Z</time>
      </trkpt>
      <trkpt lat="44.88349" lon="2.48722">
        <ele>664.3</ele>
        <time>2021-08-19T15:56:47Z</time>
      </trkpt>
      <trkpt lat="44.88352" lon="2.48718">
        <ele>664.8</ele>
        <time>2021-08-19T15:56:49Z</time>
      </trkpt>
      <trkpt lat="44.88355" lon="2.48714">
        <ele>665.2</ele>
        <time>2021-08-19T15:56:51Z</time>
      </trkpt>
      <trkpt lat="44.88359" lon="2.48709">
        <ele>665.6</ele>
        <time>2021-08-19T15:56:53Z</time>
      </trkpt>
      <trkpt lat="44.88362" lon="2.48705">
        <ele>666</ele>
        <time>2021-08-19T15:56:55Z</time>
      </trkpt>
      <trkpt lat="44.88364" lon="2.48701">
        <ele>666.4</ele>
        <time>2021-08-19T15:56:57Z</time>
      </trkpt>
      <trkpt lat="44.88367" lon="2.48697">
        <ele>666.8</ele>
        <time>2021-08-19T15:56:59Z</time>
      </trkpt>
      <trkpt lat="44.8837" lon="2.48692">
        <ele>667.1</ele>
        <time>2021-08-19T15:57:01Z</time>
      </trkpt>
      <trkpt lat="44.88373" lon="2.48687">
        <ele>667.4</ele>
        <time>2021-08-19T15:57:03Z</time>
      </trkpt>
      <trkpt lat="44.88375" lon="2.48682">
        <ele>667.7</ele>
        <time>2021-08-19T15:57:05Z</time>
      </trkpt>
      <trkpt lat="44.88377" lon="2.48677">
        <ele>667.9</ele>
        <time>2021-08-19T15:57:07Z</time>
      </trkpt>
      <trkpt lat="44.8838" lon="2.48672">
        <ele>668.2</ele>
        <time>2021-08-19T15:57:09Z</time>
      </trkpt>
      <trkpt lat="44.88382" lon="2.48667">
        <ele>668.4</ele>
        <time>2021-08-19T15:57:11Z</time>
      </trkpt>
      <trkpt lat="44.88384" lon="2.48662">
        <ele>668.7</ele>
        <time>2021-08-19T15:57:13Z</time>
      </trkpt>
      <trkpt lat="44.88386" lon="2.48657">
        <ele>669</ele>
        <time>2021-08-19T15:57:15Z</time>
      </trkpt>
      <trkpt lat="44.88388" lon="2.48651">
        <ele>669.2</ele>
        <time>2021-08-19T15:57:17Z</time>
      </trkpt>
      <trkpt lat="44.88389" lon="2.48646">
        <ele>669.5</ele>
        <time>2021-08-19T15:57:19Z</time>
      </trkpt>
      <trkpt lat="44.88391" lon="2.48641">
        <ele>669.7</ele>
        <time>2021-08-19T15:57:21Z</time>
      </trkpt>
      <trkpt lat="44.88393" lon="2.48636">
        <ele>670</ele>
        <time>2021-08-19T15:57:23Z</time>
      </trkpt>
      <trkpt lat="44.88394" lon="2.48631">
        <ele>670.1</ele>
        <time>2021-08-19T15:57:25Z</time>
      </trkpt>
      <trkpt lat="44.88395" lon="2.48626">
        <ele>670.2</ele>
        <time>2021-08-19T15:57:27Z</time>
      </trkpt>
      <trkpt lat="44.88395" lon="2.4862">
        <ele>670.3</ele>
        <time>2021-08-19T15:57:29Z</time>
      </trkpt>
      <trkpt lat="44.88395" lon="2.48614">
        <ele>670.4</ele>
        <time>2021-08-19T15:57:31Z</time>
      </trkpt>
      <trkpt lat="44.88396" lon="2.48608">
        <ele>670.5</ele>
        <time>2021-08-19T15:57:33Z</time>
      </trkpt>
      <trkpt lat="44.88397" lon="2.48603">
        <ele>670.6</ele>
        <time>2021-08-19T15:57:35Z</time>
      </trkpt>
      <trkpt lat="44.88397" lon="2.48597">
        <ele>670.6</ele>
        <time>2021-08-19T15:57:37Z</time>
      </trkpt>
      <trkpt lat="44.88397" lon="2.48591">
        <ele>670.6</ele>
        <time>2021-08-19T15:57:39Z</time>
      </trkpt>
      <trkpt lat="44.88398" lon="2.48585">
        <ele>670.7</ele>
        <time>2021-08-19T15:57:41Z</time>
      </trkpt>
      <trkpt lat="44.88399" lon="2.48579">
        <ele>671</ele>
        <time>2021-08-19T15:57:43Z</time>
      </trkpt>
      <trkpt lat="44.88399" lon="2.48574">
        <ele>671.2</ele>
        <time>2021-08-19T15:57:45Z</time>
      </trkpt>
      <trkpt lat="44.88398" lon="2.48568">
        <ele>671.3</ele>
        <time>2021-08-19T15:57:47Z</time>
      </trkpt>
      <trkpt lat="44.88398" lon="2.48563">
        <ele>671.6</ele>
        <time>2021-08-19T15:57:49Z</time>
      </trkpt>
      <trkpt lat="44.88398" lon="2.48557">
        <ele>671.7</ele>
        <time>2021-08-19T15:57:51Z</time>
      </trkpt>
      <trkpt lat="44.88399" lon="2.48552">
        <ele>672</ele>
        <time>2021-08-19T15:57:53Z</time>
      </trkpt>
      <trkpt lat="44.884" lon="2.48547">
        <ele>672.3</ele>
        <time>2021-08-19T15:57:55Z</time>
      </trkpt>
      <trkpt lat="44.884" lon="2.48541">
        <ele>672.5</ele>
        <time>2021-08-19T15:57:57Z</time>
      </trkpt>
      <trkpt lat="44.88401" lon="2.48536">
        <ele>672.8</ele>
        <time>2021-08-19T15:57:59Z</time>
      </trkpt>
      <trkpt lat="44.88401" lon="2.4853">
        <ele>673</ele>
        <time>2021-08-19T15:58:01Z</time>
      </trkpt>
      <trkpt lat="44.88402" lon="2.48525">
        <ele>673.3</ele>
        <time>2021-08-19T15:58:03Z</time>
      </trkpt>
      <trkpt lat="44.88403" lon="2.4852">
        <ele>673.6</ele>
        <time>2021-08-19T15:58:05Z</time>
      </trkpt>
      <trkpt lat="44.88403" lon="2.48515">
        <ele>673.9</ele>
        <time>2021-08-19T15:58:07Z</time>
      </trkpt>
      <trkpt lat="44.88404" lon="2.48509">
        <ele>674.2</ele>
        <time>2021-08-19T15:58:09Z</time>
      </trkpt>
      <trkpt lat="44.88405" lon="2.48504">
        <ele>674.5</ele>
        <time>2021-08-19T15:58:11Z</time>
      </trkpt>
      <trkpt lat="44.88406" lon="2.48499">
        <ele>674.8</ele>
        <time>2021-08-19T15:58:13Z</time>
      </trkpt>
      <trkpt lat="44.88408" lon="2.48494">
        <ele>674.8</ele>
        <time>2021-08-19T15:58:15Z</time>
      </trkpt>
      <trkpt lat="44.88409" lon="2.48489">
        <ele>674.9</ele>
        <time>2021-08-19T15:58:17Z</time>
      </trkpt>
      <trkpt lat="44.88411" lon="2.48484">
        <ele>674.9</ele>
        <time>2021-08-19T15:58:19Z</time>
      </trkpt>
      <trkpt lat="44.88412" lon="2.48479">
        <ele>675</ele>
        <time>2021-08-19T15:58:21Z</time>
      </trkpt>
      <trkpt lat="44.88414" lon="2.48474">
        <ele>675.1</ele>
        <time>2021-08-19T15:58:23Z</time>
      </trkpt>
      <trkpt lat="44.88416" lon="2.48469">
        <ele>675.1</ele>
        <time>2021-08-19T15:58:25Z</time>
      </trkpt>
      <trkpt lat="44.88418" lon="2.48464">
        <ele>675.3</ele>
        <time>2021-08-19T15:58:27Z</time>
      </trkpt>
      <trkpt lat="44.8842" lon="2.4846">
        <ele>675.5</ele>
        <time>2021-08-19T15:58:29Z</time>
      </trkpt>
      <trkpt lat="44.88423" lon="2.48456">
        <ele>675.7</ele>
        <time>2021-08-19T15:58:31Z</time>
      </trkpt>
      <trkpt lat="44.88426" lon="2.48451">
        <ele>676</ele>
        <time>2021-08-19T15:58:33Z</time>
      </trkpt>
      <trkpt lat="44.88428" lon="2.48447">
        <ele>676.2</ele>
        <time>2021-08-19T15:58:35Z</time>
      </trkpt>
      <trkpt lat="44.88431" lon="2.48443">
        <ele>676.4</ele>
        <time>2021-08-19T15:58:37Z</time>
      </trkpt>
      <trkpt lat="44.88433" lon="2.48439">
        <ele>676.7</ele>
        <time>2021-08-19T15:58:39Z</time>
      </trkpt>
      <trkpt lat="44.88436" lon="2.48435">
        <ele>676.9</ele>
        <time>2021-08-19T15:58:41Z</time>
      </trkpt>
      <trkpt lat="44.88438" lon="2.48431">
        <ele>677.2</ele>
        <time>2021-08-19T15:58:43Z</time>
      </trkpt>
      <trkpt lat="44.88441" lon="2.48428">
        <ele>677.5</ele>
        <time>2021-08-19T15:58:45Z</time>
      </trkpt>
      <trkpt lat="44.88444" lon="2.48425">
        <ele>677.8</ele>
        <time>2021-08-19T15:58:47Z</time>
      </trkpt>
      <trkpt lat="44.88447" lon="2.48422">
        <ele>678.1</ele>
        <time>2021-08-19T15:58:49Z</time>
      </trkpt>
      <trkpt lat="44.8845" lon="2.48419">
        <ele>678.5</ele>
        <time>2021-08-19T15:58:51Z</time>
      </trkpt>
      <trkpt lat="44.88453" lon="2.48417">
        <ele>678.8</ele>
        <time>2021-08-19T15:58:53Z</time>
      </trkpt>
      <trkpt lat="44.88456" lon="2.48414">
        <ele>679.1</ele>
        <time>2021-08-19T15:58:55Z</time>
      </trkpt>
      <trkpt lat="44.88458" lon="2.48411">
        <ele>679.3</ele>
        <time>2021-08-19T15:58:57Z</time>
      </trkpt>
      <trkpt lat="44.88462" lon="2.4841">
        <ele>679.7</ele>
        <time>2021-08-19T15:58:59Z</time>
      </trkpt>
      <trkpt lat="44.88465" lon="2.48407">
        <ele>680.1</ele>
        <time>2021-08-19T15:59:01Z</time>
      </trkpt>
      <trkpt lat="44.88468" lon="2.48405">
        <ele>680.4</ele>
        <time>2021-08-19T15:59:03Z</time>
      </trkpt>
      <trkpt lat="44.8847" lon="2.48403">
        <ele>680.7</ele>
        <time>2021-08-19T15:59:05Z</time>
      </trkpt>
      <trkpt lat="44.88473" lon="2.48401">
        <ele>681</ele>
        <time>2021-08-19T15:59:07Z</time>
      </trkpt>
      <trkpt lat="44.88476" lon="2.484">
        <ele>681.3</ele>
        <time>2021-08-19T15:59:09Z</time>
      </trkpt>
      <trkpt lat="44.88479" lon="2.48398">
        <ele>681.7</ele>
        <time>2021-08-19T15:59:11Z</time>
      </trkpt>
      <trkpt lat="44.88482" lon="2.48396">
        <ele>682.1</ele>
        <time>2021-08-19T15:59:13Z</time>
      </trkpt>
      <trkpt lat="44.88484" lon="2.48394">
        <ele>682.3</ele>
        <time>2021-08-19T15:59:15Z</time>
      </trkpt>
      <trkpt lat="44.88487" lon="2.48392">
        <ele>682.7</ele>
        <time>2021-08-19T15:59:17Z</time>
      </trkpt>
      <trkpt lat="44.88491" lon="2.4839">
        <ele>683.1</ele>
        <time>2021-08-19T15:59:19Z</time>
      </trkpt>
      <trkpt lat="44.88494" lon="2.48388">
        <ele>683.4</ele>
        <time>2021-08-19T15:59:21Z</time>
      </trkpt>
      <trkpt lat="44.88496" lon="2.48385">
        <ele>683.7</ele>
        <time>2021-08-19T15:59:23Z</time>
      </trkpt>
      <trkpt lat="44.88499" lon="2.48383">
        <ele>684</ele>
        <time>2021-08-19T15:59:25Z</time>
      </trkpt>
      <trkpt lat="44.88501" lon="2.48379">
        <ele>684.3</ele>
        <time>2021-08-19T15:59:27Z</time>
      </trkpt>
      <trkpt lat="44.88504" lon="2.48377">
        <ele>684.8</ele>
        <time>2021-08-19T15:59:29Z</time>
      </trkpt>
      <trkpt lat="44.88507" lon="2.48373">
        <ele>685.2</ele>
        <time>2021-08-19T15:59:31Z</time>
      </trkpt>
      <trkpt lat="44.88509" lon="2.48369">
        <ele>685.6</ele>
        <time>2021-08-19T15:59:33Z</time>
      </trkpt>
      <trkpt lat="44.88512" lon="2.48365">
        <ele>685.9</ele>
        <time>2021-08-19T15:59:35Z</time>
      </trkpt>
      <trkpt lat="44.88515" lon="2.48359">
        <ele>686.3</ele>
        <time>2021-08-19T15:59:37Z</time>
      </trkpt>
      <trkpt lat="44.88517" lon="2.48355">
        <ele>686.5</ele>
        <time>2021-08-19T15:59:39Z</time>
      </trkpt>
      <trkpt lat="44.88519" lon="2.4835">
        <ele>686.8</ele>
        <time>2021-08-19T15:59:41Z</time>
      </trkpt>
      <trkpt lat="44.88521" lon="2.48346">
        <ele>687.1</ele>
        <time>2021-08-19T15:59:43Z</time>
      </trkpt>
      <trkpt lat="44.88523" lon="2.48341">
        <ele>687.3</ele>
        <time>2021-08-19T15:59:45Z</time>
      </trkpt>
      <trkpt lat="44.88525" lon="2.48337">
        <ele>687.6</ele>
        <time>2021-08-19T15:59:47Z</time>
      </trkpt>
      <trkpt lat="44.88527" lon="2.48332">
        <ele>687.9</ele>
        <time>2021-08-19T15:59:49Z</time>
      </trkpt>
      <trkpt lat="44.88529" lon="2.48328">
        <ele>688.1</ele>
        <time>2021-08-19T15:59:51Z</time>
      </trkpt>
      <trkpt lat="44.88531" lon="2.48324">
        <ele>688.3</ele>
        <time>2021-08-19T15:59:53Z</time>
      </trkpt>
      <trkpt lat="44.88533" lon="2.48319">
        <ele>688.5</ele>
        <time>2021-08-19T15:59:55Z</time>
      </trkpt>
      <trkpt lat="44.88535" lon="2.48315">
        <ele>688.8</ele>
        <time>2021-08-19T15:59:57Z</time>
      </trkpt>
      <trkpt lat="44.88537" lon="2.4831">
        <ele>688.9</ele>
        <time>2021-08-19T15:59:59Z</time>
      </trkpt>
      <trkpt lat="44.88538" lon="2.48306">
        <ele>689.1</ele>
        <time>2021-08-19T16:00:01Z</time>
      </trkpt>
      <trkpt lat="44.8854" lon="2.48301">
        <ele>689.2</ele>
        <time>2021-08-19T16:00:03Z</time>
      </trkpt>
      <trkpt lat="44.88543" lon="2.48297">
        <ele>689.6</ele>
        <time>2021-08-19T16:00:05Z</time>
      </trkpt>
      <trkpt lat="44.88544" lon="2.48293">
        <ele>689.7</ele>
        <time>2021-08-19T16:00:07Z</time>
      </trkpt>
      <trkpt lat="44.88546" lon="2.48289">
        <ele>689.9</ele>
        <time>2021-08-19T16:00:09Z</time>
      </trkpt>
      <trkpt lat="44.88548" lon="2.48283">
        <ele>690.2</ele>
        <time>2021-08-19T16:00:11Z</time>
      </trkpt>
      <trkpt lat="44.88549" lon="2.48278">
        <ele>690.3</ele>
        <time>2021-08-19T16:00:13Z</time>
      </trkpt>
      <trkpt lat="44.88552" lon="2.48274">
        <ele>690.6</ele>
        <time>2021-08-19T16:00:15Z</time>
      </trkpt>
      <trkpt lat="44.88554" lon="2.48269">
        <ele>690.9</ele>
        <time>2021-08-19T16:00:17Z</time>
      </trkpt>
      <trkpt lat="44.88555" lon="2.48265">
        <ele>691</ele>
        <time>2021-08-19T16:00:19Z</time>
      </trkpt>
      <trkpt lat="44.88557" lon="2.4826">
        <ele>691.3</ele>
        <time>2021-08-19T16:00:21Z</time>
      </trkpt>
      <trkpt lat="44.88559" lon="2.48256">
        <ele>691.5</ele>
        <time>2021-08-19T16:00:23Z</time>
      </trkpt>
      <trkpt lat="44.88561" lon="2.48251">
        <ele>691.8</ele>
        <time>2021-08-19T16:00:25Z</time>
      </trkpt>
      <trkpt lat="44.88564" lon="2.48246">
        <ele>692.1</ele>
        <time>2021-08-19T16:00:27Z</time>
      </trkpt>
      <trkpt lat="44.88565" lon="2.48242">
        <ele>692.2</ele>
        <time>2021-08-19T16:00:29Z</time>
      </trkpt>
      <trkpt lat="44.88567" lon="2.48237">
        <ele>692.5</ele>
        <time>2021-08-19T16:00:31Z</time>
      </trkpt>
      <trkpt lat="44.88569" lon="2.48233">
        <ele>692.7</ele>
        <time>2021-08-19T16:00:33Z</time>
      </trkpt>
      <trkpt lat="44.88572" lon="2.48228">
        <ele>693</ele>
        <time>2021-08-19T16:00:35Z</time>
      </trkpt>
      <trkpt lat="44.88573" lon="2.48223">
        <ele>693.2</ele>
        <time>2021-08-19T16:00:37Z</time>
      </trkpt>
      <trkpt lat="44.88576" lon="2.48219">
        <ele>693.5</ele>
        <time>2021-08-19T16:00:39Z</time>
      </trkpt>
      <trkpt lat="44.88578" lon="2.48214">
        <ele>693.7</ele>
        <time>2021-08-19T16:00:41Z</time>
      </trkpt>
      <trkpt lat="44.8858" lon="2.4821">
        <ele>693.9</ele>
        <time>2021-08-19T16:00:43Z</time>
      </trkpt>
      <trkpt lat="44.88582" lon="2.48205">
        <ele>694.1</ele>
        <time>2021-08-19T16:00:45Z</time>
      </trkpt>
      <trkpt lat="44.88583" lon="2.48201">
        <ele>694.2</ele>
        <time>2021-08-19T16:00:47Z</time>
      </trkpt>
      <trkpt lat="44.88585" lon="2.48196">
        <ele>694.3</ele>
        <time>2021-08-19T16:00:49Z</time>
      </trkpt>
      <trkpt lat="44.88588" lon="2.48192">
        <ele>694.5</ele>
        <time>2021-08-19T16:00:51Z</time>
      </trkpt>
      <trkpt lat="44.8859" lon="2.48186">
        <ele>694.5</ele>
        <time>2021-08-19T16:00:53Z</time>
      </trkpt>
      <trkpt lat="44.88592" lon="2.48181">
        <ele>694.6</ele>
        <time>2021-08-19T16:00:55Z</time>
      </trkpt>
      <trkpt lat="44.88593" lon="2.48176">
        <ele>694.6</ele>
        <time>2021-08-19T16:00:57Z</time>
      </trkpt>
      <trkpt lat="44.88596" lon="2.48172">
        <ele>694.7</ele>
        <time>2021-08-19T16:00:59Z</time>
      </trkpt>
      <trkpt lat="44.88598" lon="2.48167">
        <ele>694.8</ele>
        <time>2021-08-19T16:01:01Z</time>
      </trkpt>
      <trkpt lat="44.886" lon="2.48162">
        <ele>694.9</ele>
        <time>2021-08-19T16:01:03Z</time>
      </trkpt>
      <trkpt lat="44.88602" lon="2.48157">
        <ele>695.1</ele>
        <time>2021-08-19T16:01:05Z</time>
      </trkpt>
      <trkpt lat="44.88604" lon="2.48153">
        <ele>695.3</ele>
        <time>2021-08-19T16:01:07Z</time>
      </trkpt>
      <trkpt lat="44.88606" lon="2.48148">
        <ele>695.5</ele>
        <time>2021-08-19T16:01:09Z</time>
      </trkpt>
      <trkpt lat="44.88609" lon="2.48143">
        <ele>695.8</ele>
        <time>2021-08-19T16:01:11Z</time>
      </trkpt>
      <trkpt lat="44.88611" lon="2.48138">
        <ele>696</ele>
        <time>2021-08-19T16:01:13Z</time>
      </trkpt>
      <trkpt lat="44.88613" lon="2.48134">
        <ele>696.2</ele>
        <time>2021-08-19T16:01:15Z</time>
      </trkpt>
      <trkpt lat="44.88615" lon="2.48129">
        <ele>696.4</ele>
        <time>2021-08-19T16:01:17Z</time>
      </trkpt>
      <trkpt lat="44.88616" lon="2.48124">
        <ele>696.5</ele>
        <time>2021-08-19T16:01:19Z</time>
      </trkpt>
      <trkpt lat="44.88618" lon="2.48119">
        <ele>696.7</ele>
        <time>2021-08-19T16:01:21Z</time>
      </trkpt>
      <trkpt lat="44.8862" lon="2.48114">
        <ele>696.9</ele>
        <time>2021-08-19T16:01:23Z</time>
      </trkpt>
      <trkpt lat="44.88622" lon="2.48109">
        <ele>697.2</ele>
        <time>2021-08-19T16:01:25Z</time>
      </trkpt>
      <trkpt lat="44.88623" lon="2.48104">
        <ele>697.4</ele>
        <time>2021-08-19T16:01:27Z</time>
      </trkpt>
      <trkpt lat="44.88624" lon="2.48099">
        <ele>697.5</ele>
        <time>2021-08-19T16:01:29Z</time>
      </trkpt>
      <trkpt lat="44.88626" lon="2.48093">
        <ele>697.7</ele>
        <time>2021-08-19T16:01:31Z</time>
      </trkpt>
      <trkpt lat="44.88627" lon="2.48088">
        <ele>697.8</ele>
        <time>2021-08-19T16:01:33Z</time>
      </trkpt>
      <trkpt lat="44.88628" lon="2.48082">
        <ele>697.9</ele>
        <time>2021-08-19T16:01:35Z</time>
      </trkpt>
      <trkpt lat="44.88628" lon="2.48077">
        <ele>698.2</ele>
        <time>2021-08-19T16:01:37Z</time>
      </trkpt>
      <trkpt lat="44.88628" lon="2.48072">
        <ele>698.3</ele>
        <time>2021-08-19T16:01:39Z</time>
      </trkpt>
      <trkpt lat="44.88629" lon="2.48067">
        <ele>698.6</ele>
        <time>2021-08-19T16:01:41Z</time>
      </trkpt>
      <trkpt lat="44.88628" lon="2.48062">
        <ele>698.8</ele>
        <time>2021-08-19T16:01:43Z</time>
      </trkpt>
      <trkpt lat="44.88629" lon="2.48056">
        <ele>699</ele>
        <time>2021-08-19T16:01:45Z</time>
      </trkpt>
      <trkpt lat="44.88628" lon="2.48051">
        <ele>699.1</ele>
        <time>2021-08-19T16:01:47Z</time>
      </trkpt>
      <trkpt lat="44.88629" lon="2.48046">
        <ele>699.3</ele>
        <time>2021-08-19T16:01:49Z</time>
      </trkpt>
      <trkpt lat="44.88629" lon="2.48041">
        <ele>699.5</ele>
        <time>2021-08-19T16:01:51Z</time>
      </trkpt>
      <trkpt lat="44.88628" lon="2.48037">
        <ele>699.6</ele>
        <time>2021-08-19T16:01:53Z</time>
      </trkpt>
      <trkpt lat="44.88628" lon="2.48032">
        <ele>699.7</ele>
        <time>2021-08-19T16:01:55Z</time>
      </trkpt>
      <trkpt lat="44.88628" lon="2.48027">
        <ele>699.9</ele>
        <time>2021-08-19T16:01:57Z</time>
      </trkpt>
      <trkpt lat="44.88628" lon="2.48022">
        <ele>700</ele>
        <time>2021-08-19T16:01:59Z</time>
      </trkpt>
      <trkpt lat="44.88628" lon="2.48017">
        <ele>700.2</ele>
        <time>2021-08-19T16:02:01Z</time>
      </trkpt>
      <trkpt lat="44.88626" lon="2.48013">
        <ele>700.2</ele>
        <time>2021-08-19T16:02:03Z</time>
      </trkpt>
      <trkpt lat="44.88627" lon="2.48008">
        <ele>700.5</ele>
        <time>2021-08-19T16:02:05Z</time>
      </trkpt>
      <trkpt lat="44.88627" lon="2.48002">
        <ele>700.6</ele>
        <time>2021-08-19T16:02:07Z</time>
      </trkpt>
      <trkpt lat="44.88626" lon="2.47997">
        <ele>700.9</ele>
        <time>2021-08-19T16:02:09Z</time>
      </trkpt>
      <trkpt lat="44.88626" lon="2.47991">
        <ele>701.2</ele>
        <time>2021-08-19T16:02:11Z</time>
      </trkpt>
      <trkpt lat="44.88626" lon="2.47986">
        <ele>701.5</ele>
        <time>2021-08-19T16:02:13Z</time>
      </trkpt>
      <trkpt lat="44.88625" lon="2.47981">
        <ele>701.8</ele>
        <time>2021-08-19T16:02:15Z</time>
      </trkpt>
      <trkpt lat="44.88625" lon="2.47975">
        <ele>702.2</ele>
        <time>2021-08-19T16:02:17Z</time>
      </trkpt>
      <trkpt lat="44.88624" lon="2.4797">
        <ele>702.4</ele>
        <time>2021-08-19T16:02:19Z</time>
      </trkpt>
      <trkpt lat="44.88624" lon="2.47964">
        <ele>702.7</ele>
        <time>2021-08-19T16:02:21Z</time>
      </trkpt>
      <trkpt lat="44.88623" lon="2.47959">
        <ele>703</ele>
        <time>2021-08-19T16:02:23Z</time>
      </trkpt>
      <trkpt lat="44.88623" lon="2.47953">
        <ele>703.4</ele>
        <time>2021-08-19T16:02:25Z</time>
      </trkpt>
      <trkpt lat="44.88623" lon="2.47948">
        <ele>703.7</ele>
        <time>2021-08-19T16:02:27Z</time>
      </trkpt>
      <trkpt lat="44.88622" lon="2.47942">
        <ele>704</ele>
        <time>2021-08-19T16:02:29Z</time>
      </trkpt>
      <trkpt lat="44.88621" lon="2.47936">
        <ele>704.4</ele>
        <time>2021-08-19T16:02:31Z</time>
      </trkpt>
      <trkpt lat="44.88622" lon="2.4793">
        <ele>704.9</ele>
        <time>2021-08-19T16:02:33Z</time>
      </trkpt>
      <trkpt lat="44.88622" lon="2.47923">
        <ele>705.3</ele>
        <time>2021-08-19T16:02:35Z</time>
      </trkpt>
      <trkpt lat="44.88621" lon="2.47917">
        <ele>705.6</ele>
        <time>2021-08-19T16:02:37Z</time>
      </trkpt>
      <trkpt lat="44.88621" lon="2.4791">
        <ele>706.1</ele>
        <time>2021-08-19T16:02:39Z</time>
      </trkpt>
      <trkpt lat="44.88621" lon="2.47903">
        <ele>706.5</ele>
        <time>2021-08-19T16:02:41Z</time>
      </trkpt>
      <trkpt lat="44.8862" lon="2.47897">
        <ele>706.9</ele>
        <time>2021-08-19T16:02:43Z</time>
      </trkpt>
      <trkpt lat="44.8862" lon="2.47891">
        <ele>707.3</ele>
        <time>2021-08-19T16:02:45Z</time>
      </trkpt>
      <trkpt lat="44.8862" lon="2.47885">
        <ele>707.7</ele>
        <time>2021-08-19T16:02:47Z</time>
      </trkpt>
      <trkpt lat="44.88619" lon="2.4788">
        <ele>708</ele>
        <time>2021-08-19T16:02:49Z</time>
      </trkpt>
      <trkpt lat="44.88619" lon="2.47873">
        <ele>708.5</ele>
        <time>2021-08-19T16:02:51Z</time>
      </trkpt>
      <trkpt lat="44.88618" lon="2.47867">
        <ele>708.9</ele>
        <time>2021-08-19T16:02:53Z</time>
      </trkpt>
      <trkpt lat="44.88618" lon="2.4786">
        <ele>709.4</ele>
        <time>2021-08-19T16:02:55Z</time>
      </trkpt>
      <trkpt lat="44.88618" lon="2.47853">
        <ele>709.8</ele>
        <time>2021-08-19T16:02:57Z</time>
      </trkpt>
      <trkpt lat="44.88619" lon="2.47847">
        <ele>710.3</ele>
        <time>2021-08-19T16:02:59Z</time>
      </trkpt>
      <trkpt lat="44.8862" lon="2.47843">
        <ele>710.6</ele>
        <time>2021-08-19T16:03:01Z</time>
      </trkpt>
      <trkpt lat="44.88619" lon="2.4784">
        <ele>710.8</ele>
        <time>2021-08-19T16:03:03Z</time>
      </trkpt>
      <trkpt lat="44.88617" lon="2.47836">
        <ele>711</ele>
        <time>2021-08-19T16:03:05Z</time>
      </trkpt>
      <trkpt lat="44.88617" lon="2.47836">
        <ele>711</ele>
        <time>2021-08-19T16:03:07Z</time>
      </trkpt>
      <trkpt lat="44.88617" lon="2.47836">
        <ele>711</ele>
        <time>2021-08-19T16:03:09Z</time>
      </trkpt>
      <trkpt lat="44.88616" lon="2.47836">
        <ele>711</ele>
        <time>2021-08-19T16:03:11Z</time>
      </trkpt>
      <trkpt lat="44.88616" lon="2.47836">
        <ele>711</ele>
        <time>2021-08-19T16:03:13Z</time>
      </trkpt>
      <trkpt lat="44.88616" lon="2.47835">
        <ele>711</ele>
        <time>2021-08-19T16:03:15Z</time>
      </trkpt>
      <trkpt lat="44.8861" lon="2.47819">
        <ele>710.9</ele>
        <time>2021-08-19T16:06:41Z</time>
      </trkpt>
      <trkpt lat="44.88609" lon="2.47812">
        <ele>710.8</ele>
        <time>2021-08-19T16:06:43Z</time>
      </trkpt>
      <trkpt lat="44.88605" lon="2.47806">
        <ele>710.7</ele>
        <time>2021-08-19T16:06:45Z</time>
      </trkpt>
      <trkpt lat="44.88602" lon="2.47798">
        <ele>710.6</ele>
        <time>2021-08-19T16:06:47Z</time>
      </trkpt>
      <trkpt lat="44.88598" lon="2.47789">
        <ele>710.4</ele>
        <time>2021-08-19T16:06:49Z</time>
      </trkpt>
      <trkpt lat="44.88594" lon="2.4778">
        <ele>710.3</ele>
        <time>2021-08-19T16:06:51Z</time>
      </trkpt>
      <trkpt lat="44.88588" lon="2.47771">
        <ele>710.1</ele>
        <time>2021-08-19T16:06:53Z</time>
      </trkpt>
      <trkpt lat="44.88582" lon="2.47761">
        <ele>709.9</ele>
        <time>2021-08-19T16:06:55Z</time>
      </trkpt>
      <trkpt lat="44.88575" lon="2.47751">
        <ele>709.4</ele>
        <time>2021-08-19T16:06:57Z</time>
      </trkpt>
      <trkpt lat="44.88568" lon="2.47739">
        <ele>708.5</ele>
        <time>2021-08-19T16:06:59Z</time>
      </trkpt>
      <trkpt lat="44.88559" lon="2.47726">
        <ele>707.4</ele>
        <time>2021-08-19T16:07:01Z</time>
      </trkpt>
      <trkpt lat="44.8855" lon="2.47711">
        <ele>706.4</ele>
        <time>2021-08-19T16:07:03Z</time>
      </trkpt>
      <trkpt lat="44.88541" lon="2.47696">
        <ele>705.3</ele>
        <time>2021-08-19T16:07:05Z</time>
      </trkpt>
      <trkpt lat="44.88531" lon="2.4768">
        <ele>704.2</ele>
        <time>2021-08-19T16:07:07Z</time>
      </trkpt>
      <trkpt lat="44.88521" lon="2.47662">
        <ele>703.2</ele>
        <time>2021-08-19T16:07:09Z</time>
      </trkpt>
      <trkpt lat="44.88513" lon="2.47642">
        <ele>702.4</ele>
        <time>2021-08-19T16:07:11Z</time>
      </trkpt>
      <trkpt lat="44.88507" lon="2.4762">
        <ele>701.8</ele>
        <time>2021-08-19T16:07:13Z</time>
      </trkpt>
      <trkpt lat="44.88503" lon="2.47597">
        <ele>701.3</ele>
        <time>2021-08-19T16:07:15Z</time>
      </trkpt>
      <trkpt lat="44.88503" lon="2.47574">
        <ele>701</ele>
        <time>2021-08-19T16:07:17Z</time>
      </trkpt>
      <trkpt lat="44.88504" lon="2.47552">
        <ele>700.8</ele>
        <time>2021-08-19T16:07:19Z</time>
      </trkpt>
      <trkpt lat="44.88508" lon="2.47532">
        <ele>700.6</ele>
        <time>2021-08-19T16:07:21Z</time>
      </trkpt>
      <trkpt lat="44.88513" lon="2.47512">
        <ele>700.4</ele>
        <time>2021-08-19T16:07:23Z</time>
      </trkpt>
      <trkpt lat="44.88521" lon="2.47493">
        <ele>699.8</ele>
        <time>2021-08-19T16:07:25Z</time>
      </trkpt>
      <trkpt lat="44.8853" lon="2.47477">
        <ele>698.8</ele>
        <time>2021-08-19T16:07:27Z</time>
      </trkpt>
      <trkpt lat="44.8854" lon="2.47462">
        <ele>697.9</ele>
        <time>2021-08-19T16:07:29Z</time>
      </trkpt>
      <trkpt lat="44.88551" lon="2.47446">
        <ele>697.1</ele>
        <time>2021-08-19T16:07:31Z</time>
      </trkpt>
      <trkpt lat="44.88561" lon="2.47429">
        <ele>696.2</ele>
        <time>2021-08-19T16:07:33Z</time>
      </trkpt>
      <trkpt lat="44.88568" lon="2.47409">
        <ele>695.2</ele>
        <time>2021-08-19T16:07:35Z</time>
      </trkpt>
      <trkpt lat="44.88574" lon="2.47389">
        <ele>694.2</ele>
        <time>2021-08-19T16:07:37Z</time>
      </trkpt>
      <trkpt lat="44.88581" lon="2.47368">
        <ele>693.1</ele>
        <time>2021-08-19T16:07:39Z</time>
      </trkpt>
      <trkpt lat="44.88589" lon="2.47348">
        <ele>692</ele>
        <time>2021-08-19T16:07:41Z</time>
      </trkpt>
      <trkpt lat="44.886" lon="2.4733">
        <ele>691.3</ele>
        <time>2021-08-19T16:07:43Z</time>
      </trkpt>
      <trkpt lat="44.88613" lon="2.47315">
        <ele>690.7</ele>
        <time>2021-08-19T16:07:45Z</time>
      </trkpt>
      <trkpt lat="44.88628" lon="2.47305">
        <ele>690.1</ele>
        <time>2021-08-19T16:07:47Z</time>
      </trkpt>
      <trkpt lat="44.88646" lon="2.47301">
        <ele>689.7</ele>
        <time>2021-08-19T16:07:49Z</time>
      </trkpt>
      <trkpt lat="44.88663" lon="2.47302">
        <ele>689.6</ele>
        <time>2021-08-19T16:07:51Z</time>
      </trkpt>
      <trkpt lat="44.88681" lon="2.47303">
        <ele>688.2</ele>
        <time>2021-08-19T16:07:53Z</time>
      </trkpt>
      <trkpt lat="44.88699" lon="2.47304">
        <ele>686.4</ele>
        <time>2021-08-19T16:07:55Z</time>
      </trkpt>
      <trkpt lat="44.88718" lon="2.47304">
        <ele>684.6</ele>
        <time>2021-08-19T16:07:57Z</time>
      </trkpt>
      <trkpt lat="44.88735" lon="2.47306">
        <ele>682.9</ele>
        <time>2021-08-19T16:07:59Z</time>
      </trkpt>
      <trkpt lat="44.88754" lon="2.47306">
        <ele>681.1</ele>
        <time>2021-08-19T16:08:01Z</time>
      </trkpt>
      <trkpt lat="44.88773" lon="2.47307">
        <ele>679.7</ele>
        <time>2021-08-19T16:08:03Z</time>
      </trkpt>
      <trkpt lat="44.88791" lon="2.47308">
        <ele>678.4</ele>
        <time>2021-08-19T16:08:05Z</time>
      </trkpt>
      <trkpt lat="44.8881" lon="2.47308">
        <ele>677</ele>
        <time>2021-08-19T16:08:07Z</time>
      </trkpt>
      <trkpt lat="44.88828" lon="2.47309">
        <ele>675.7</ele>
        <time>2021-08-19T16:08:09Z</time>
      </trkpt>
      <trkpt lat="44.88847" lon="2.4731">
        <ele>674.2</ele>
        <time>2021-08-19T16:08:11Z</time>
      </trkpt>
      <trkpt lat="44.88866" lon="2.47312">
        <ele>672.7</ele>
        <time>2021-08-19T16:08:13Z</time>
      </trkpt>
      <trkpt lat="44.88884" lon="2.47319">
        <ele>671.7</ele>
        <time>2021-08-19T16:08:15Z</time>
      </trkpt>
      <trkpt lat="44.88901" lon="2.47332">
        <ele>671.3</ele>
        <time>2021-08-19T16:08:17Z</time>
      </trkpt>
      <trkpt lat="44.88916" lon="2.47352">
        <ele>671.4</ele>
        <time>2021-08-19T16:08:19Z</time>
      </trkpt>
      <trkpt lat="44.88928" lon="2.47375">
        <ele>670.6</ele>
        <time>2021-08-19T16:08:21Z</time>
      </trkpt>
      <trkpt lat="44.8894" lon="2.474">
        <ele>669.9</ele>
        <time>2021-08-19T16:08:23Z</time>
      </trkpt>
      <trkpt lat="44.88952" lon="2.47424">
        <ele>669</ele>
        <time>2021-08-19T16:08:25Z</time>
      </trkpt>
      <trkpt lat="44.88965" lon="2.47445">
        <ele>667</ele>
        <time>2021-08-19T16:08:27Z</time>
      </trkpt>
      <trkpt lat="44.88979" lon="2.4746">
        <ele>664.7</ele>
        <time>2021-08-19T16:08:29Z</time>
      </trkpt>
      <trkpt lat="44.88995" lon="2.47467">
        <ele>661.8</ele>
        <time>2021-08-19T16:08:31Z</time>
      </trkpt>
      <trkpt lat="44.89011" lon="2.47466">
        <ele>658.7</ele>
        <time>2021-08-19T16:08:33Z</time>
      </trkpt>
      <trkpt lat="44.89026" lon="2.47456">
        <ele>655.7</ele>
        <time>2021-08-19T16:08:35Z</time>
      </trkpt>
      <trkpt lat="44.89038" lon="2.47439">
        <ele>653</ele>
        <time>2021-08-19T16:08:37Z</time>
      </trkpt>
      <trkpt lat="44.89045" lon="2.47417">
        <ele>651</ele>
        <time>2021-08-19T16:08:39Z</time>
      </trkpt>
      <trkpt lat="44.89047" lon="2.47391">
        <ele>649.2</ele>
        <time>2021-08-19T16:08:41Z</time>
      </trkpt>
      <trkpt lat="44.89046" lon="2.47364">
        <ele>648</ele>
        <time>2021-08-19T16:08:43Z</time>
      </trkpt>
      <trkpt lat="44.89046" lon="2.47335">
        <ele>646.6</ele>
        <time>2021-08-19T16:08:45Z</time>
      </trkpt>
      <trkpt lat="44.89045" lon="2.47307">
        <ele>645.7</ele>
        <time>2021-08-19T16:08:47Z</time>
      </trkpt>
      <trkpt lat="44.89045" lon="2.47277">
        <ele>644.8</ele>
        <time>2021-08-19T16:08:49Z</time>
      </trkpt>
      <trkpt lat="44.89046" lon="2.47247">
        <ele>643.7</ele>
        <time>2021-08-19T16:08:51Z</time>
      </trkpt>
      <trkpt lat="44.89047" lon="2.47216">
        <ele>642.3</ele>
        <time>2021-08-19T16:08:53Z</time>
      </trkpt>
      <trkpt lat="44.8905" lon="2.47185">
        <ele>640.8</ele>
        <time>2021-08-19T16:08:55Z</time>
      </trkpt>
      <trkpt lat="44.89053" lon="2.47156">
        <ele>639.2</ele>
        <time>2021-08-19T16:08:57Z</time>
      </trkpt>
      <trkpt lat="44.89057" lon="2.47126">
        <ele>637.7</ele>
        <time>2021-08-19T16:08:59Z</time>
      </trkpt>
      <trkpt lat="44.89062" lon="2.47098">
        <ele>636.5</ele>
        <time>2021-08-19T16:09:01Z</time>
      </trkpt>
      <trkpt lat="44.89069" lon="2.47071">
        <ele>635.3</ele>
        <time>2021-08-19T16:09:03Z</time>
      </trkpt>
      <trkpt lat="44.89077" lon="2.47046">
        <ele>634</ele>
        <time>2021-08-19T16:09:05Z</time>
      </trkpt>
      <trkpt lat="44.89087" lon="2.47023">
        <ele>632.5</ele>
        <time>2021-08-19T16:09:07Z</time>
      </trkpt>
      <trkpt lat="44.89098" lon="2.47">
        <ele>630.7</ele>
        <time>2021-08-19T16:09:09Z</time>
      </trkpt>
      <trkpt lat="44.89109" lon="2.46975">
        <ele>628.1</ele>
        <time>2021-08-19T16:09:11Z</time>
      </trkpt>
      <trkpt lat="44.8912" lon="2.46948">
        <ele>625.5</ele>
        <time>2021-08-19T16:09:13Z</time>
      </trkpt>
      <trkpt lat="44.89131" lon="2.4692">
        <ele>622.8</ele>
        <time>2021-08-19T16:09:15Z</time>
      </trkpt>
      <trkpt lat="44.89146" lon="2.46894">
        <ele>621.6</ele>
        <time>2021-08-19T16:09:17Z</time>
      </trkpt>
      <trkpt lat="44.89162" lon="2.4687">
        <ele>620.8</ele>
        <time>2021-08-19T16:09:19Z</time>
      </trkpt>
      <trkpt lat="44.89178" lon="2.46846">
        <ele>620.2</ele>
        <time>2021-08-19T16:09:21Z</time>
      </trkpt>
      <trkpt lat="44.89194" lon="2.46827">
        <ele>619.3</ele>
        <time>2021-08-19T16:09:23Z</time>
      </trkpt>
      <trkpt lat="44.89203" lon="2.46798">
        <ele>618.3</ele>
        <time>2021-08-19T16:09:25Z</time>
      </trkpt>
      <trkpt lat="44.89216" lon="2.46776">
        <ele>617.5</ele>
        <time>2021-08-19T16:09:27Z</time>
      </trkpt>
      <trkpt lat="44.89229" lon="2.46755">
        <ele>616.8</ele>
        <time>2021-08-19T16:09:29Z</time>
      </trkpt>
      <trkpt lat="44.89242" lon="2.46735">
        <ele>616.4</ele>
        <time>2021-08-19T16:09:31Z</time>
      </trkpt>
      <trkpt lat="44.89256" lon="2.46717">
        <ele>616.2</ele>
        <time>2021-08-19T16:09:33Z</time>
      </trkpt>
      <trkpt lat="44.89271" lon="2.46702">
        <ele>615.8</ele>
        <time>2021-08-19T16:09:35Z</time>
      </trkpt>
      <trkpt lat="44.89288" lon="2.46689">
        <ele>615.4</ele>
        <time>2021-08-19T16:09:37Z</time>
      </trkpt>
      <trkpt lat="44.89304" lon="2.46677">
        <ele>614.9</ele>
        <time>2021-08-19T16:09:39Z</time>
      </trkpt>
      <trkpt lat="44.8932" lon="2.46664">
        <ele>614.6</ele>
        <time>2021-08-19T16:09:41Z</time>
      </trkpt>
      <trkpt lat="44.89336" lon="2.46652">
        <ele>614.3</ele>
        <time>2021-08-19T16:09:43Z</time>
      </trkpt>
      <trkpt lat="44.89351" lon="2.4664">
        <ele>614.2</ele>
        <time>2021-08-19T16:09:45Z</time>
      </trkpt>
      <trkpt lat="44.89366" lon="2.46629">
        <ele>614.1</ele>
        <time>2021-08-19T16:09:47Z</time>
      </trkpt>
      <trkpt lat="44.8938" lon="2.46619">
        <ele>614</ele>
        <time>2021-08-19T16:09:49Z</time>
      </trkpt>
      <trkpt lat="44.89394" lon="2.4661">
        <ele>613.9</ele>
        <time>2021-08-19T16:09:51Z</time>
      </trkpt>
      <trkpt lat="44.89408" lon="2.46603">
        <ele>613.7</ele>
        <time>2021-08-19T16:09:53Z</time>
      </trkpt>
      <trkpt lat="44.89423" lon="2.46596">
        <ele>613.7</ele>
        <time>2021-08-19T16:09:55Z</time>
      </trkpt>
      <trkpt lat="44.89437" lon="2.46591">
        <ele>613.9</ele>
        <time>2021-08-19T16:09:57Z</time>
      </trkpt>
      <trkpt lat="44.89451" lon="2.46585">
        <ele>614</ele>
        <time>2021-08-19T16:09:59Z</time>
      </trkpt>
      <trkpt lat="44.89465" lon="2.46579">
        <ele>614.1</ele>
        <time>2021-08-19T16:10:01Z</time>
      </trkpt>
      <trkpt lat="44.89478" lon="2.46574">
        <ele>614.1</ele>
        <time>2021-08-19T16:10:03Z</time>
      </trkpt>
      <trkpt lat="44.8949" lon="2.4657">
        <ele>614.2</ele>
        <time>2021-08-19T16:10:05Z</time>
      </trkpt>
      <trkpt lat="44.89502" lon="2.46565">
        <ele>614.2</ele>
        <time>2021-08-19T16:10:07Z</time>
      </trkpt>
      <trkpt lat="44.89513" lon="2.46561">
        <ele>614.2</ele>
        <time>2021-08-19T16:10:09Z</time>
      </trkpt>
      <trkpt lat="44.89523" lon="2.46557">
        <ele>614.2</ele>
        <time>2021-08-19T16:10:11Z</time>
      </trkpt>
      <trkpt lat="44.89534" lon="2.46553">
        <ele>614.2</ele>
        <time>2021-08-19T16:10:13Z</time>
      </trkpt>
      <trkpt lat="44.89545" lon="2.46549">
        <ele>614.2</ele>
        <time>2021-08-19T16:10:15Z</time>
      </trkpt>
      <trkpt lat="44.89556" lon="2.46545">
        <ele>614.2</ele>
        <time>2021-08-19T16:10:17Z</time>
      </trkpt>
      <trkpt lat="44.89566" lon="2.4654">
        <ele>614.1</ele>
        <time>2021-08-19T16:10:19Z</time>
      </trkpt>
      <trkpt lat="44.89578" lon="2.46534">
        <ele>614</ele>
        <time>2021-08-19T16:10:21Z</time>
      </trkpt>
      <trkpt lat="44.8959" lon="2.46526">
        <ele>613.3</ele>
        <time>2021-08-19T16:10:23Z</time>
      </trkpt>
      <trkpt lat="44.89602" lon="2.46516">
        <ele>612.2</ele>
        <time>2021-08-19T16:10:25Z</time>
      </trkpt>
      <trkpt lat="44.89615" lon="2.46507">
        <ele>611</ele>
        <time>2021-08-19T16:10:27Z</time>
      </trkpt>
      <trkpt lat="44.89626" lon="2.46499">
        <ele>609.9</ele>
        <time>2021-08-19T16:10:29Z</time>
      </trkpt>
      <trkpt lat="44.89636" lon="2.46492">
        <ele>608.6</ele>
        <time>2021-08-19T16:10:31Z</time>
      </trkpt>
      <trkpt lat="44.89644" lon="2.46486">
        <ele>607.7</ele>
        <time>2021-08-19T16:10:33Z</time>
      </trkpt>
      <trkpt lat="44.8965" lon="2.46481">
        <ele>607</ele>
        <time>2021-08-19T16:10:35Z</time>
      </trkpt>
      <trkpt lat="44.89655" lon="2.46478">
        <ele>606.5</ele>
        <time>2021-08-19T16:10:37Z</time>
      </trkpt>
      <trkpt lat="44.89659" lon="2.46475">
        <ele>606</ele>
        <time>2021-08-19T16:10:39Z</time>
      </trkpt>
      <trkpt lat="44.89664" lon="2.46472">
        <ele>605.6</ele>
        <time>2021-08-19T16:10:41Z</time>
      </trkpt>
      <trkpt lat="44.89668" lon="2.46468">
        <ele>605.2</ele>
        <time>2021-08-19T16:10:43Z</time>
      </trkpt>
      <trkpt lat="44.89672" lon="2.46464">
        <ele>604.8</ele>
        <time>2021-08-19T16:10:45Z</time>
      </trkpt>
      <trkpt lat="44.89674" lon="2.46462">
        <ele>604.7</ele>
        <time>2021-08-19T16:10:47Z</time>
      </trkpt>
      <trkpt lat="44.89674" lon="2.46462">
        <ele>604.7</ele>
        <time>2021-08-19T16:10:49Z</time>
      </trkpt>
      <trkpt lat="44.89674" lon="2.46462">
        <ele>604.7</ele>
        <time>2021-08-19T16:10:51Z</time>
      </trkpt>
      <trkpt lat="44.89674" lon="2.46462">
        <ele>604.7</ele>
        <time>2021-08-19T16:10:53Z</time>
      </trkpt>
      <trkpt lat="44.89674" lon="2.46462">
        <ele>604.7</ele>
        <time>2021-08-19T16:10:55Z</time>
      </trkpt>
      <trkpt lat="44.89673" lon="2.46461">
        <ele>604.7</ele>
        <time>2021-08-19T16:11:07Z</time>
      </trkpt>
      <trkpt lat="44.89673" lon="2.46461">
        <ele>604.7</ele>
        <time>2021-08-19T16:11:09Z</time>
      </trkpt>
      <trkpt lat="44.89673" lon="2.46461">
        <ele>604.7</ele>
        <time>2021-08-19T16:11:11Z</time>
      </trkpt>
      <trkpt lat="44.89673" lon="2.4646">
        <ele>604.7</ele>
        <time>2021-08-19T16:11:13Z</time>
      </trkpt>
      <trkpt lat="44.89677" lon="2.46456">
        <ele>604.4</ele>
        <time>2021-08-19T16:11:15Z</time>
      </trkpt>
      <trkpt lat="44.8968" lon="2.46447">
        <ele>604.1</ele>
        <time>2021-08-19T16:11:17Z</time>
      </trkpt>
      <trkpt lat="44.8968" lon="2.46437">
        <ele>604</ele>
        <time>2021-08-19T16:11:19Z</time>
      </trkpt>
      <trkpt lat="44.89681" lon="2.46427">
        <ele>603.8</ele>
        <time>2021-08-19T16:11:21Z</time>
      </trkpt>
      <trkpt lat="44.89684" lon="2.4642">
        <ele>603.6</ele>
        <time>2021-08-19T16:11:23Z</time>
      </trkpt>
      <trkpt lat="44.89685" lon="2.46414">
        <ele>603.5</ele>
        <time>2021-08-19T16:11:25Z</time>
      </trkpt>
      <trkpt lat="44.89685" lon="2.46412">
        <ele>603.4</ele>
        <time>2021-08-19T16:11:27Z</time>
      </trkpt>
      <trkpt lat="44.89685" lon="2.46412">
        <ele>603.4</ele>
        <time>2021-08-19T16:11:29Z</time>
      </trkpt>
      <trkpt lat="44.89685" lon="2.46412">
        <ele>603.4</ele>
        <time>2021-08-19T16:11:31Z</time>
      </trkpt>
      <trkpt lat="44.89684" lon="2.46412">
        <ele>603.4</ele>
        <time>2021-08-19T16:11:33Z</time>
      </trkpt>
      <trkpt lat="44.89684" lon="2.46411">
        <ele>603.4</ele>
        <time>2021-08-19T16:11:35Z</time>
      </trkpt>
      <trkpt lat="44.89714" lon="2.4635">
        <ele>601.4</ele>
        <time>2021-08-19T16:15:33Z</time>
      </trkpt>
      <trkpt lat="44.89721" lon="2.46347">
        <ele>601.3</ele>
        <time>2021-08-19T16:15:35Z</time>
      </trkpt>
      <trkpt lat="44.89728" lon="2.46347">
        <ele>601.3</ele>
        <time>2021-08-19T16:15:37Z</time>
      </trkpt>
      <trkpt lat="44.89736" lon="2.46346">
        <ele>601.2</ele>
        <time>2021-08-19T16:15:39Z</time>
      </trkpt>
      <trkpt lat="44.89744" lon="2.46345">
        <ele>601.2</ele>
        <time>2021-08-19T16:15:41Z</time>
      </trkpt>
      <trkpt lat="44.89752" lon="2.46344">
        <ele>601.1</ele>
        <time>2021-08-19T16:15:43Z</time>
      </trkpt>
      <trkpt lat="44.8976" lon="2.46343">
        <ele>600.8</ele>
        <time>2021-08-19T16:15:45Z</time>
      </trkpt>
      <trkpt lat="44.89767" lon="2.46343">
        <ele>600.6</ele>
        <time>2021-08-19T16:15:47Z</time>
      </trkpt>
      <trkpt lat="44.89775" lon="2.46341">
        <ele>600.4</ele>
        <time>2021-08-19T16:15:49Z</time>
      </trkpt>
      <trkpt lat="44.89783" lon="2.4634">
        <ele>600.2</ele>
        <time>2021-08-19T16:15:51Z</time>
      </trkpt>
      <trkpt lat="44.89791" lon="2.46338">
        <ele>600</ele>
        <time>2021-08-19T16:15:53Z</time>
      </trkpt>
      <trkpt lat="44.89799" lon="2.46337">
        <ele>599.8</ele>
        <time>2021-08-19T16:15:55Z</time>
      </trkpt>
      <trkpt lat="44.89807" lon="2.46334">
        <ele>599.6</ele>
        <time>2021-08-19T16:15:57Z</time>
      </trkpt>
      <trkpt lat="44.89815" lon="2.4633">
        <ele>599.4</ele>
        <time>2021-08-19T16:15:59Z</time>
      </trkpt>
      <trkpt lat="44.89822" lon="2.46325">
        <ele>599.1</ele>
        <time>2021-08-19T16:16:01Z</time>
      </trkpt>
      <trkpt lat="44.89829" lon="2.46321">
        <ele>598.9</ele>
        <time>2021-08-19T16:16:03Z</time>
      </trkpt>
      <trkpt lat="44.89835" lon="2.46314">
        <ele>598.7</ele>
        <time>2021-08-19T16:16:05Z</time>
      </trkpt>
      <trkpt lat="44.89842" lon="2.46308">
        <ele>598.4</ele>
        <time>2021-08-19T16:16:07Z</time>
      </trkpt>
      <trkpt lat="44.89848" lon="2.46301">
        <ele>598.2</ele>
        <time>2021-08-19T16:16:09Z</time>
      </trkpt>
      <trkpt lat="44.89855" lon="2.46295">
        <ele>598</ele>
        <time>2021-08-19T16:16:11Z</time>
      </trkpt>
      <trkpt lat="44.89862" lon="2.46288">
        <ele>597.8</ele>
        <time>2021-08-19T16:16:13Z</time>
      </trkpt>
      <trkpt lat="44.89869" lon="2.46281">
        <ele>597.7</ele>
        <time>2021-08-19T16:16:15Z</time>
      </trkpt>
      <trkpt lat="44.89876" lon="2.46273">
        <ele>597.7</ele>
        <time>2021-08-19T16:16:17Z</time>
      </trkpt>
      <trkpt lat="44.89883" lon="2.46265">
        <ele>597.8</ele>
        <time>2021-08-19T16:16:19Z</time>
      </trkpt>
      <trkpt lat="44.8989" lon="2.46259">
        <ele>597.8</ele>
        <time>2021-08-19T16:16:21Z</time>
      </trkpt>
      <trkpt lat="44.89897" lon="2.46252">
        <ele>598</ele>
        <time>2021-08-19T16:16:23Z</time>
      </trkpt>
      <trkpt lat="44.89903" lon="2.46246">
        <ele>597.9</ele>
        <time>2021-08-19T16:16:25Z</time>
      </trkpt>
      <trkpt lat="44.8991" lon="2.4624">
        <ele>597.9</ele>
        <time>2021-08-19T16:16:27Z</time>
      </trkpt>
      <trkpt lat="44.89917" lon="2.46232">
        <ele>597.8</ele>
        <time>2021-08-19T16:16:29Z</time>
      </trkpt>
      <trkpt lat="44.89924" lon="2.46225">
        <ele>598.3</ele>
        <time>2021-08-19T16:16:31Z</time>
      </trkpt>
      <trkpt lat="44.89931" lon="2.46217">
        <ele>598.7</ele>
        <time>2021-08-19T16:16:33Z</time>
      </trkpt>
      <trkpt lat="44.89938" lon="2.46208">
        <ele>599</ele>
        <time>2021-08-19T16:16:35Z</time>
      </trkpt>
      <trkpt lat="44.89944" lon="2.46198">
        <ele>599.3</ele>
        <time>2021-08-19T16:16:37Z</time>
      </trkpt>
      <trkpt lat="44.8995" lon="2.46188">
        <ele>599.5</ele>
        <time>2021-08-19T16:16:39Z</time>
      </trkpt>
      <trkpt lat="44.89956" lon="2.46177">
        <ele>599.6</ele>
        <time>2021-08-19T16:16:41Z</time>
      </trkpt>
      <trkpt lat="44.89961" lon="2.46166">
        <ele>599.6</ele>
        <time>2021-08-19T16:16:43Z</time>
      </trkpt>
      <trkpt lat="44.89965" lon="2.46153">
        <ele>599.7</ele>
        <time>2021-08-19T16:16:45Z</time>
      </trkpt>
      <trkpt lat="44.89969" lon="2.4614">
        <ele>599.7</ele>
        <time>2021-08-19T16:16:47Z</time>
      </trkpt>
      <trkpt lat="44.89973" lon="2.46128">
        <ele>599.7</ele>
        <time>2021-08-19T16:16:49Z</time>
      </trkpt>
      <trkpt lat="44.89976" lon="2.46114">
        <ele>599.7</ele>
        <time>2021-08-19T16:16:51Z</time>
      </trkpt>
      <trkpt lat="44.89979" lon="2.461">
        <ele>599.5</ele>
        <time>2021-08-19T16:16:53Z</time>
      </trkpt>
      <trkpt lat="44.89983" lon="2.46088">
        <ele>599.5</ele>
        <time>2021-08-19T16:16:55Z</time>
      </trkpt>
      <trkpt lat="44.89986" lon="2.46076">
        <ele>599.6</ele>
        <time>2021-08-19T16:16:57Z</time>
      </trkpt>
      <trkpt lat="44.8999" lon="2.46063">
        <ele>599.9</ele>
        <time>2021-08-19T16:16:59Z</time>
      </trkpt>
      <trkpt lat="44.89993" lon="2.4605">
        <ele>600.2</ele>
        <time>2021-08-19T16:17:01Z</time>
      </trkpt>
      <trkpt lat="44.89998" lon="2.46038">
        <ele>600.5</ele>
        <time>2021-08-19T16:17:03Z</time>
      </trkpt>
      <trkpt lat="44.90002" lon="2.46026">
        <ele>600.8</ele>
        <time>2021-08-19T16:17:05Z</time>
      </trkpt>
      <trkpt lat="44.90005" lon="2.46015">
        <ele>601.2</ele>
        <time>2021-08-19T16:17:07Z</time>
      </trkpt>
      <trkpt lat="44.90009" lon="2.46004">
        <ele>601.7</ele>
        <time>2021-08-19T16:17:09Z</time>
      </trkpt>
      <trkpt lat="44.90012" lon="2.45995">
        <ele>602.1</ele>
        <time>2021-08-19T16:17:11Z</time>
      </trkpt>
      <trkpt lat="44.90015" lon="2.45988">
        <ele>602.5</ele>
        <time>2021-08-19T16:17:13Z</time>
      </trkpt>
      <trkpt lat="44.90017" lon="2.4598">
        <ele>602.8</ele>
        <time>2021-08-19T16:17:15Z</time>
      </trkpt>
      <trkpt lat="44.9002" lon="2.45973">
        <ele>603.2</ele>
        <time>2021-08-19T16:17:17Z</time>
      </trkpt>
      <trkpt lat="44.90023" lon="2.45967">
        <ele>603.5</ele>
        <time>2021-08-19T16:17:19Z</time>
      </trkpt>
      <trkpt lat="44.90026" lon="2.45961">
        <ele>603.8</ele>
        <time>2021-08-19T16:17:21Z</time>
      </trkpt>
      <trkpt lat="44.90028" lon="2.45956">
        <ele>604</ele>
        <time>2021-08-19T16:17:23Z</time>
      </trkpt>
      <trkpt lat="44.9003" lon="2.45951">
        <ele>604.3</ele>
        <time>2021-08-19T16:17:25Z</time>
      </trkpt>
      <trkpt lat="44.90032" lon="2.45946">
        <ele>604.5</ele>
        <time>2021-08-19T16:17:27Z</time>
      </trkpt>
      <trkpt lat="44.90036" lon="2.45942">
        <ele>604.8</ele>
        <time>2021-08-19T16:17:29Z</time>
      </trkpt>
      <trkpt lat="44.9004" lon="2.4594">
        <ele>605.1</ele>
        <time>2021-08-19T16:17:31Z</time>
      </trkpt>
      <trkpt lat="44.90044" lon="2.45937">
        <ele>605.4</ele>
        <time>2021-08-19T16:17:33Z</time>
      </trkpt>
      <trkpt lat="44.90048" lon="2.45934">
        <ele>605.7</ele>
        <time>2021-08-19T16:17:35Z</time>
      </trkpt>
      <trkpt lat="44.90051" lon="2.4593">
        <ele>606</ele>
        <time>2021-08-19T16:17:37Z</time>
      </trkpt>
      <trkpt lat="44.90055" lon="2.45928">
        <ele>606.2</ele>
        <time>2021-08-19T16:17:39Z</time>
      </trkpt>
      <trkpt lat="44.90059" lon="2.45927">
        <ele>606.5</ele>
        <time>2021-08-19T16:17:41Z</time>
      </trkpt>
      <trkpt lat="44.90063" lon="2.45926">
        <ele>606.7</ele>
        <time>2021-08-19T16:17:43Z</time>
      </trkpt>
      <trkpt lat="44.90067" lon="2.45926">
        <ele>607</ele>
        <time>2021-08-19T16:17:45Z</time>
      </trkpt>
      <trkpt lat="44.90072" lon="2.45926">
        <ele>607.3</ele>
        <time>2021-08-19T16:17:47Z</time>
      </trkpt>
      <trkpt lat="44.90077" lon="2.45924">
        <ele>607.6</ele>
        <time>2021-08-19T16:17:49Z</time>
      </trkpt>
      <trkpt lat="44.90081" lon="2.45921">
        <ele>607.9</ele>
        <time>2021-08-19T16:17:51Z</time>
      </trkpt>
      <trkpt lat="44.90086" lon="2.45919">
        <ele>608</ele>
        <time>2021-08-19T16:17:53Z</time>
      </trkpt>
      <trkpt lat="44.9009" lon="2.45917">
        <ele>608</ele>
        <time>2021-08-19T16:17:55Z</time>
      </trkpt>
      <trkpt lat="44.90095" lon="2.45914">
        <ele>608</ele>
        <time>2021-08-19T16:17:57Z</time>
      </trkpt>
      <trkpt lat="44.90099" lon="2.45911">
        <ele>607.9</ele>
        <time>2021-08-19T16:17:59Z</time>
      </trkpt>
      <trkpt lat="44.90104" lon="2.45908">
        <ele>607.9</ele>
        <time>2021-08-19T16:18:01Z</time>
      </trkpt>
      <trkpt lat="44.90109" lon="2.45905">
        <ele>607.9</ele>
        <time>2021-08-19T16:18:03Z</time>
      </trkpt>
      <trkpt lat="44.90114" lon="2.45902">
        <ele>607.8</ele>
        <time>2021-08-19T16:18:05Z</time>
      </trkpt>
      <trkpt lat="44.90119" lon="2.45899">
        <ele>607.8</ele>
        <time>2021-08-19T16:18:07Z</time>
      </trkpt>
      <trkpt lat="44.90125" lon="2.45897">
        <ele>607.8</ele>
        <time>2021-08-19T16:18:09Z</time>
      </trkpt>
      <trkpt lat="44.90131" lon="2.45893">
        <ele>607.7</ele>
        <time>2021-08-19T16:18:11Z</time>
      </trkpt>
      <trkpt lat="44.90137" lon="2.45889">
        <ele>607.7</ele>
        <time>2021-08-19T16:18:13Z</time>
      </trkpt>
      <trkpt lat="44.90143" lon="2.45885">
        <ele>607.6</ele>
        <time>2021-08-19T16:18:15Z</time>
      </trkpt>
      <trkpt lat="44.90149" lon="2.45879">
        <ele>607.5</ele>
        <time>2021-08-19T16:18:17Z</time>
      </trkpt>
      <trkpt lat="44.90155" lon="2.45874">
        <ele>607.5</ele>
        <time>2021-08-19T16:18:19Z</time>
      </trkpt>
      <trkpt lat="44.90161" lon="2.45868">
        <ele>607.4</ele>
        <time>2021-08-19T16:18:21Z</time>
      </trkpt>
      <trkpt lat="44.90168" lon="2.45861">
        <ele>607.3</ele>
        <time>2021-08-19T16:18:23Z</time>
      </trkpt>
      <trkpt lat="44.90173" lon="2.45853">
        <ele>607.1</ele>
        <time>2021-08-19T16:18:25Z</time>
      </trkpt>
      <trkpt lat="44.90179" lon="2.45843">
        <ele>606.8</ele>
        <time>2021-08-19T16:18:27Z</time>
      </trkpt>
      <trkpt lat="44.90186" lon="2.45834">
        <ele>606.5</ele>
        <time>2021-08-19T16:18:29Z</time>
      </trkpt>
      <trkpt lat="44.90193" lon="2.45825">
        <ele>606.1</ele>
        <time>2021-08-19T16:18:31Z</time>
      </trkpt>
      <trkpt lat="44.902" lon="2.45816">
        <ele>605.6</ele>
        <time>2021-08-19T16:18:33Z</time>
      </trkpt>
      <trkpt lat="44.90207" lon="2.45806">
        <ele>605.2</ele>
        <time>2021-08-19T16:18:35Z</time>
      </trkpt>
      <trkpt lat="44.90213" lon="2.45797">
        <ele>604.8</ele>
        <time>2021-08-19T16:18:37Z</time>
      </trkpt>
      <trkpt lat="44.9022" lon="2.45788">
        <ele>604.4</ele>
        <time>2021-08-19T16:18:39Z</time>
      </trkpt>
      <trkpt lat="44.90227" lon="2.45779">
        <ele>604.1</ele>
        <time>2021-08-19T16:18:41Z</time>
      </trkpt>
      <trkpt lat="44.90234" lon="2.4577">
        <ele>603.7</ele>
        <time>2021-08-19T16:18:43Z</time>
      </trkpt>
      <trkpt lat="44.90241" lon="2.4576">
        <ele>603.4</ele>
        <time>2021-08-19T16:18:45Z</time>
      </trkpt>
      <trkpt lat="44.90247" lon="2.45751">
        <ele>603</ele>
        <time>2021-08-19T16:18:47Z</time>
      </trkpt>
      <trkpt lat="44.90255" lon="2.45741">
        <ele>603.2</ele>
        <time>2021-08-19T16:18:49Z</time>
      </trkpt>
      <trkpt lat="44.90262" lon="2.45731">
        <ele>603.4</ele>
        <time>2021-08-19T16:18:51Z</time>
      </trkpt>
      <trkpt lat="44.90269" lon="2.45721">
        <ele>603.6</ele>
        <time>2021-08-19T16:18:53Z</time>
      </trkpt>
      <trkpt lat="44.90276" lon="2.45711">
        <ele>603.7</ele>
        <time>2021-08-19T16:18:55Z</time>
      </trkpt>
      <trkpt lat="44.90282" lon="2.45701">
        <ele>603.7</ele>
        <time>2021-08-19T16:18:57Z</time>
      </trkpt>
      <trkpt lat="44.90288" lon="2.45693">
        <ele>603.7</ele>
        <time>2021-08-19T16:18:59Z</time>
      </trkpt>
      <trkpt lat="44.90295" lon="2.45684">
        <ele>603.6</ele>
        <time>2021-08-19T16:19:01Z</time>
      </trkpt>
      <trkpt lat="44.90302" lon="2.45674">
        <ele>603.5</ele>
        <time>2021-08-19T16:19:03Z</time>
      </trkpt>
      <trkpt lat="44.90308" lon="2.45666">
        <ele>603.3</ele>
        <time>2021-08-19T16:19:05Z</time>
      </trkpt>
      <trkpt lat="44.90315" lon="2.45656">
        <ele>602.9</ele>
        <time>2021-08-19T16:19:07Z</time>
      </trkpt>
      <trkpt lat="44.90321" lon="2.45646">
        <ele>602.6</ele>
        <time>2021-08-19T16:19:09Z</time>
      </trkpt>
      <trkpt lat="44.90328" lon="2.45637">
        <ele>602.3</ele>
        <time>2021-08-19T16:19:11Z</time>
      </trkpt>
      <trkpt lat="44.90335" lon="2.45628">
        <ele>602.1</ele>
        <time>2021-08-19T16:19:13Z</time>
      </trkpt>
      <trkpt lat="44.90342" lon="2.45619">
        <ele>602</ele>
        <time>2021-08-19T16:19:15Z</time>
      </trkpt>
      <trkpt lat="44.90349" lon="2.4561">
        <ele>601.8</ele>
        <time>2021-08-19T16:19:17Z</time>
      </trkpt>
      <trkpt lat="44.90356" lon="2.456">
        <ele>601.7</ele>
        <time>2021-08-19T16:19:19Z</time>
      </trkpt>
      <trkpt lat="44.90363" lon="2.4559">
        <ele>601.5</ele>
        <time>2021-08-19T16:19:21Z</time>
      </trkpt>
      <trkpt lat="44.9037" lon="2.4558">
        <ele>601.4</ele>
        <time>2021-08-19T16:19:23Z</time>
      </trkpt>
      <trkpt lat="44.90377" lon="2.45571">
        <ele>601.5</ele>
        <time>2021-08-19T16:19:25Z</time>
      </trkpt>
      <trkpt lat="44.90384" lon="2.45561">
        <ele>601.5</ele>
        <time>2021-08-19T16:19:27Z</time>
      </trkpt>
      <trkpt lat="44.90391" lon="2.45551">
        <ele>601.6</ele>
        <time>2021-08-19T16:19:29Z</time>
      </trkpt>
      <trkpt lat="44.90398" lon="2.45541">
        <ele>601.7</ele>
        <time>2021-08-19T16:19:31Z</time>
      </trkpt>
      <trkpt lat="44.90405" lon="2.45531">
        <ele>601.8</ele>
        <time>2021-08-19T16:19:33Z</time>
      </trkpt>
      <trkpt lat="44.90411" lon="2.45521">
        <ele>601.9</ele>
        <time>2021-08-19T16:19:35Z</time>
      </trkpt>
      <trkpt lat="44.90419" lon="2.45511">
        <ele>602</ele>
        <time>2021-08-19T16:19:37Z</time>
      </trkpt>
      <trkpt lat="44.90426" lon="2.45502">
        <ele>601.9</ele>
        <time>2021-08-19T16:19:39Z</time>
      </trkpt>
      <trkpt lat="44.90433" lon="2.45491">
        <ele>601.7</ele>
        <time>2021-08-19T16:19:41Z</time>
      </trkpt>
      <trkpt lat="44.90439" lon="2.4548">
        <ele>601.4</ele>
        <time>2021-08-19T16:19:43Z</time>
      </trkpt>
      <trkpt lat="44.90444" lon="2.45468">
        <ele>601.2</ele>
        <time>2021-08-19T16:19:45Z</time>
      </trkpt>
      <trkpt lat="44.90448" lon="2.45455">
        <ele>600.9</ele>
        <time>2021-08-19T16:19:47Z</time>
      </trkpt>
      <trkpt lat="44.90453" lon="2.45441">
        <ele>600.6</ele>
        <time>2021-08-19T16:19:49Z</time>
      </trkpt>
      <trkpt lat="44.90458" lon="2.45428">
        <ele>600.2</ele>
        <time>2021-08-19T16:19:51Z</time>
      </trkpt>
      <trkpt lat="44.90462" lon="2.45415">
        <ele>599.9</ele>
        <time>2021-08-19T16:19:53Z</time>
      </trkpt>
      <trkpt lat="44.90466" lon="2.45402">
        <ele>599.7</ele>
        <time>2021-08-19T16:19:55Z</time>
      </trkpt>
      <trkpt lat="44.90471" lon="2.45389">
        <ele>599.6</ele>
        <time>2021-08-19T16:19:57Z</time>
      </trkpt>
      <trkpt lat="44.90475" lon="2.45377">
        <ele>599.4</ele>
        <time>2021-08-19T16:19:59Z</time>
      </trkpt>
      <trkpt lat="44.9048" lon="2.45364">
        <ele>599.3</ele>
        <time>2021-08-19T16:20:01Z</time>
      </trkpt>
      <trkpt lat="44.90484" lon="2.45351">
        <ele>599.2</ele>
        <time>2021-08-19T16:20:03Z</time>
      </trkpt>
      <trkpt lat="44.90488" lon="2.4534">
        <ele>599.2</ele>
        <time>2021-08-19T16:20:05Z</time>
      </trkpt>
      <trkpt lat="44.90492" lon="2.45328">
        <ele>599.1</ele>
        <time>2021-08-19T16:20:07Z</time>
      </trkpt>
      <trkpt lat="44.90497" lon="2.4532">
        <ele>599.2</ele>
        <time>2021-08-19T16:20:09Z</time>
      </trkpt>
      <trkpt lat="44.90503" lon="2.45314">
        <ele>599.3</ele>
        <time>2021-08-19T16:20:11Z</time>
      </trkpt>
      <trkpt lat="44.90511" lon="2.45311">
        <ele>599.5</ele>
        <time>2021-08-19T16:20:13Z</time>
      </trkpt>
      <trkpt lat="44.90519" lon="2.45305">
        <ele>599.6</ele>
        <time>2021-08-19T16:20:15Z</time>
      </trkpt>
      <trkpt lat="44.90528" lon="2.45299">
        <ele>599.8</ele>
        <time>2021-08-19T16:20:17Z</time>
      </trkpt>
      <trkpt lat="44.90537" lon="2.45299">
        <ele>599.9</ele>
        <time>2021-08-19T16:20:19Z</time>
      </trkpt>
      <trkpt lat="44.90547" lon="2.45303">
        <ele>600.1</ele>
        <time>2021-08-19T16:20:21Z</time>
      </trkpt>
      <trkpt lat="44.90555" lon="2.45313">
        <ele>600.2</ele>
        <time>2021-08-19T16:20:23Z</time>
      </trkpt>
      <trkpt lat="44.90564" lon="2.4532">
        <ele>600.4</ele>
        <time>2021-08-19T16:20:25Z</time>
      </trkpt>
      <trkpt lat="44.90573" lon="2.45325">
        <ele>600.7</ele>
        <time>2021-08-19T16:20:27Z</time>
      </trkpt>
      <trkpt lat="44.90581" lon="2.45331">
        <ele>600.9</ele>
        <time>2021-08-19T16:20:29Z</time>
      </trkpt>
      <trkpt lat="44.90591" lon="2.45336">
        <ele>601</ele>
        <time>2021-08-19T16:20:31Z</time>
      </trkpt>
      <trkpt lat="44.906" lon="2.45342">
        <ele>600.9</ele>
        <time>2021-08-19T16:20:33Z</time>
      </trkpt>
      <trkpt lat="44.90608" lon="2.45347">
        <ele>600.9</ele>
        <time>2021-08-19T16:20:35Z</time>
      </trkpt>
      <trkpt lat="44.90617" lon="2.45351">
        <ele>600.9</ele>
        <time>2021-08-19T16:20:37Z</time>
      </trkpt>
      <trkpt lat="44.90626" lon="2.45356">
        <ele>600.9</ele>
        <time>2021-08-19T16:20:39Z</time>
      </trkpt>
      <trkpt lat="44.90634" lon="2.4536">
        <ele>600.9</ele>
        <time>2021-08-19T16:20:41Z</time>
      </trkpt>
      <trkpt lat="44.90643" lon="2.45363">
        <ele>600.9</ele>
        <time>2021-08-19T16:20:43Z</time>
      </trkpt>
      <trkpt lat="44.90652" lon="2.45365">
        <ele>600.9</ele>
        <time>2021-08-19T16:20:45Z</time>
      </trkpt>
      <trkpt lat="44.9066" lon="2.45368">
        <ele>601</ele>
        <time>2021-08-19T16:20:47Z</time>
      </trkpt>
      <trkpt lat="44.90669" lon="2.45371">
        <ele>601</ele>
        <time>2021-08-19T16:20:49Z</time>
      </trkpt>
      <trkpt lat="44.90677" lon="2.45373">
        <ele>601.1</ele>
        <time>2021-08-19T16:20:51Z</time>
      </trkpt>
      <trkpt lat="44.90686" lon="2.45373">
        <ele>601.1</ele>
        <time>2021-08-19T16:20:53Z</time>
      </trkpt>
      <trkpt lat="44.90694" lon="2.45373">
        <ele>601.2</ele>
        <time>2021-08-19T16:20:55Z</time>
      </trkpt>
      <trkpt lat="44.90703" lon="2.45373">
        <ele>601.2</ele>
        <time>2021-08-19T16:20:57Z</time>
      </trkpt>
      <trkpt lat="44.90711" lon="2.45372">
        <ele>601.3</ele>
        <time>2021-08-19T16:20:59Z</time>
      </trkpt>
      <trkpt lat="44.90719" lon="2.45371">
        <ele>601.3</ele>
        <time>2021-08-19T16:21:01Z</time>
      </trkpt>
      <trkpt lat="44.90727" lon="2.45369">
        <ele>601.4</ele>
        <time>2021-08-19T16:21:03Z</time>
      </trkpt>
      <trkpt lat="44.90735" lon="2.45367">
        <ele>601.5</ele>
        <time>2021-08-19T16:21:05Z</time>
      </trkpt>
      <trkpt lat="44.90743" lon="2.45365">
        <ele>601.6</ele>
        <time>2021-08-19T16:21:07Z</time>
      </trkpt>
      <trkpt lat="44.90751" lon="2.45361">
        <ele>601.7</ele>
        <time>2021-08-19T16:21:09Z</time>
      </trkpt>
      <trkpt lat="44.90759" lon="2.45357">
        <ele>601.6</ele>
        <time>2021-08-19T16:21:11Z</time>
      </trkpt>
      <trkpt lat="44.90767" lon="2.45353">
        <ele>601.6</ele>
        <time>2021-08-19T16:21:13Z</time>
      </trkpt>
      <trkpt lat="44.90775" lon="2.45347">
        <ele>601.6</ele>
        <time>2021-08-19T16:21:15Z</time>
      </trkpt>
      <trkpt lat="44.90783" lon="2.45342">
        <ele>601.5</ele>
        <time>2021-08-19T16:21:17Z</time>
      </trkpt>
      <trkpt lat="44.90791" lon="2.45336">
        <ele>601.5</ele>
        <time>2021-08-19T16:21:19Z</time>
      </trkpt>
      <trkpt lat="44.90799" lon="2.4533">
        <ele>601.4</ele>
        <time>2021-08-19T16:21:21Z</time>
      </trkpt>
      <trkpt lat="44.90807" lon="2.45324">
        <ele>601.3</ele>
        <time>2021-08-19T16:21:23Z</time>
      </trkpt>
      <trkpt lat="44.90815" lon="2.45318">
        <ele>601.2</ele>
        <time>2021-08-19T16:21:25Z</time>
      </trkpt>
      <trkpt lat="44.90822" lon="2.45311">
        <ele>601.1</ele>
        <time>2021-08-19T16:21:27Z</time>
      </trkpt>
      <trkpt lat="44.9083" lon="2.45305">
        <ele>601</ele>
        <time>2021-08-19T16:21:29Z</time>
      </trkpt>
      <trkpt lat="44.90837" lon="2.45299">
        <ele>601.1</ele>
        <time>2021-08-19T16:21:31Z</time>
      </trkpt>
      <trkpt lat="44.90844" lon="2.45293">
        <ele>601.3</ele>
        <time>2021-08-19T16:21:33Z</time>
      </trkpt>
      <trkpt lat="44.90851" lon="2.45287">
        <ele>601.4</ele>
        <time>2021-08-19T16:21:35Z</time>
      </trkpt>
      <trkpt lat="44.90858" lon="2.45281">
        <ele>601.4</ele>
        <time>2021-08-19T16:21:37Z</time>
      </trkpt>
      <trkpt lat="44.90866" lon="2.45274">
        <ele>601.5</ele>
        <time>2021-08-19T16:21:39Z</time>
      </trkpt>
      <trkpt lat="44.90875" lon="2.45268">
        <ele>601.4</ele>
        <time>2021-08-19T16:21:41Z</time>
      </trkpt>
      <trkpt lat="44.90883" lon="2.45263">
        <ele>601.4</ele>
        <time>2021-08-19T16:21:43Z</time>
      </trkpt>
      <trkpt lat="44.90891" lon="2.45257">
        <ele>601.2</ele>
        <time>2021-08-19T16:21:45Z</time>
      </trkpt>
      <trkpt lat="44.90899" lon="2.45251">
        <ele>601</ele>
        <time>2021-08-19T16:21:47Z</time>
      </trkpt>
      <trkpt lat="44.90907" lon="2.45244">
        <ele>600.9</ele>
        <time>2021-08-19T16:21:49Z</time>
      </trkpt>
      <trkpt lat="44.90915" lon="2.45238">
        <ele>600.9</ele>
        <time>2021-08-19T16:21:51Z</time>
      </trkpt>
      <trkpt lat="44.90923" lon="2.45232">
        <ele>600.8</ele>
        <time>2021-08-19T16:21:53Z</time>
      </trkpt>
      <trkpt lat="44.90931" lon="2.45226">
        <ele>600.8</ele>
        <time>2021-08-19T16:21:55Z</time>
      </trkpt>
      <trkpt lat="44.90938" lon="2.45221">
        <ele>600.8</ele>
        <time>2021-08-19T16:21:57Z</time>
      </trkpt>
      <trkpt lat="44.90946" lon="2.45215">
        <ele>600.9</ele>
        <time>2021-08-19T16:21:59Z</time>
      </trkpt>
      <trkpt lat="44.90953" lon="2.4521">
        <ele>600.9</ele>
        <time>2021-08-19T16:22:01Z</time>
      </trkpt>
      <trkpt lat="44.9096" lon="2.45205">
        <ele>601</ele>
        <time>2021-08-19T16:22:03Z</time>
      </trkpt>
      <trkpt lat="44.90968" lon="2.45202">
        <ele>601.1</ele>
        <time>2021-08-19T16:22:05Z</time>
      </trkpt>
      <trkpt lat="44.90975" lon="2.45197">
        <ele>601.3</ele>
        <time>2021-08-19T16:22:07Z</time>
      </trkpt>
      <trkpt lat="44.90983" lon="2.45193">
        <ele>601.4</ele>
        <time>2021-08-19T16:22:09Z</time>
      </trkpt>
      <trkpt lat="44.9099" lon="2.45189">
        <ele>601.6</ele>
        <time>2021-08-19T16:22:11Z</time>
      </trkpt>
      <trkpt lat="44.90998" lon="2.45185">
        <ele>601.7</ele>
        <time>2021-08-19T16:22:13Z</time>
      </trkpt>
      <trkpt lat="44.91005" lon="2.45182">
        <ele>602</ele>
        <time>2021-08-19T16:22:15Z</time>
      </trkpt>
      <trkpt lat="44.91013" lon="2.45178">
        <ele>602.3</ele>
        <time>2021-08-19T16:22:17Z</time>
      </trkpt>
      <trkpt lat="44.9102" lon="2.45174">
        <ele>602.7</ele>
        <time>2021-08-19T16:22:19Z</time>
      </trkpt>
      <trkpt lat="44.91027" lon="2.4517">
        <ele>603</ele>
        <time>2021-08-19T16:22:21Z</time>
      </trkpt>
      <trkpt lat="44.91035" lon="2.45169">
        <ele>603.2</ele>
        <time>2021-08-19T16:22:23Z</time>
      </trkpt>
      <trkpt lat="44.91041" lon="2.45177">
        <ele>603.4</ele>
        <time>2021-08-19T16:22:25Z</time>
      </trkpt>
      <trkpt lat="44.91046" lon="2.45186">
        <ele>603.6</ele>
        <time>2021-08-19T16:22:27Z</time>
      </trkpt>
      <trkpt lat="44.91052" lon="2.45193">
        <ele>603.8</ele>
        <time>2021-08-19T16:22:29Z</time>
      </trkpt>
      <trkpt lat="44.91061" lon="2.45195">
        <ele>604.1</ele>
        <time>2021-08-19T16:22:31Z</time>
      </trkpt>
      <trkpt lat="44.91068" lon="2.45189">
        <ele>604.4</ele>
        <time>2021-08-19T16:22:33Z</time>
      </trkpt>
      <trkpt lat="44.91076" lon="2.45188">
        <ele>604.7</ele>
        <time>2021-08-19T16:22:35Z</time>
      </trkpt>
      <trkpt lat="44.91082" lon="2.4519">
        <ele>604.9</ele>
        <time>2021-08-19T16:22:37Z</time>
      </trkpt>
      <trkpt lat="44.91086" lon="2.45191">
        <ele>605</ele>
        <time>2021-08-19T16:22:39Z</time>
      </trkpt>
      <trkpt lat="44.91091" lon="2.4519">
        <ele>605.1</ele>
        <time>2021-08-19T16:22:41Z</time>
      </trkpt>
      <trkpt lat="44.91095" lon="2.45184">
        <ele>605.1</ele>
        <time>2021-08-19T16:22:43Z</time>
      </trkpt>
      <trkpt lat="44.91102" lon="2.4518">
        <ele>605.2</ele>
        <time>2021-08-19T16:22:45Z</time>
      </trkpt>
      <trkpt lat="44.91107" lon="2.45175">
        <ele>605.3</ele>
        <time>2021-08-19T16:22:47Z</time>
      </trkpt>
      <trkpt lat="44.9111" lon="2.45164">
        <ele>605.3</ele>
        <time>2021-08-19T16:22:49Z</time>
      </trkpt>
      <trkpt lat="44.91112" lon="2.45154">
        <ele>605.2</ele>
        <time>2021-08-19T16:22:51Z</time>
      </trkpt>
      <trkpt lat="44.91116" lon="2.45146">
        <ele>605.1</ele>
        <time>2021-08-19T16:22:53Z</time>
      </trkpt>
      <trkpt lat="44.91117" lon="2.45135">
        <ele>605</ele>
        <time>2021-08-19T16:22:55Z</time>
      </trkpt>
      <trkpt lat="44.91119" lon="2.45123">
        <ele>604.9</ele>
        <time>2021-08-19T16:22:57Z</time>
      </trkpt>
      <trkpt lat="44.91121" lon="2.45111">
        <ele>604.8</ele>
        <time>2021-08-19T16:22:59Z</time>
      </trkpt>
      <trkpt lat="44.91122" lon="2.45099">
        <ele>604.7</ele>
        <time>2021-08-19T16:23:01Z</time>
      </trkpt>
      <trkpt lat="44.91123" lon="2.45088">
        <ele>604.5</ele>
        <time>2021-08-19T16:23:03Z</time>
      </trkpt>
      <trkpt lat="44.91126" lon="2.45076">
        <ele>604.6</ele>
        <time>2021-08-19T16:23:05Z</time>
      </trkpt>
      <trkpt lat="44.91128" lon="2.45064">
        <ele>604.8</ele>
        <time>2021-08-19T16:23:07Z</time>
      </trkpt>
      <trkpt lat="44.9113" lon="2.45052">
        <ele>605</ele>
        <time>2021-08-19T16:23:09Z</time>
      </trkpt>
      <trkpt lat="44.91132" lon="2.4504">
        <ele>605.2</ele>
        <time>2021-08-19T16:23:11Z</time>
      </trkpt>
      <trkpt lat="44.91135" lon="2.45029">
        <ele>605.4</ele>
        <time>2021-08-19T16:23:13Z</time>
      </trkpt>
      <trkpt lat="44.91136" lon="2.45018">
        <ele>605.6</ele>
        <time>2021-08-19T16:23:15Z</time>
      </trkpt>
      <trkpt lat="44.91139" lon="2.45007">
        <ele>605.9</ele>
        <time>2021-08-19T16:23:17Z</time>
      </trkpt>
      <trkpt lat="44.91141" lon="2.44995">
        <ele>606</ele>
        <time>2021-08-19T16:23:19Z</time>
      </trkpt>
      <trkpt lat="44.91144" lon="2.44983">
        <ele>606</ele>
        <time>2021-08-19T16:23:21Z</time>
      </trkpt>
      <trkpt lat="44.91145" lon="2.44972">
        <ele>605.9</ele>
        <time>2021-08-19T16:23:23Z</time>
      </trkpt>
      <trkpt lat="44.91148" lon="2.44961">
        <ele>605.9</ele>
        <time>2021-08-19T16:23:25Z</time>
      </trkpt>
      <trkpt lat="44.91151" lon="2.4495">
        <ele>605.8</ele>
        <time>2021-08-19T16:23:27Z</time>
      </trkpt>
      <trkpt lat="44.91153" lon="2.44938">
        <ele>605.8</ele>
        <time>2021-08-19T16:23:29Z</time>
      </trkpt>
      <trkpt lat="44.91156" lon="2.44927">
        <ele>605.7</ele>
        <time>2021-08-19T16:23:31Z</time>
      </trkpt>
      <trkpt lat="44.91161" lon="2.44919">
        <ele>605.8</ele>
        <time>2021-08-19T16:23:33Z</time>
      </trkpt>
      <trkpt lat="44.91168" lon="2.44914">
        <ele>606</ele>
        <time>2021-08-19T16:23:35Z</time>
      </trkpt>
      <trkpt lat="44.91177" lon="2.44915">
        <ele>606.2</ele>
        <time>2021-08-19T16:23:37Z</time>
      </trkpt>
      <trkpt lat="44.91185" lon="2.44913">
        <ele>606.3</ele>
        <time>2021-08-19T16:23:39Z</time>
      </trkpt>
      <trkpt lat="44.91192" lon="2.44909">
        <ele>606.5</ele>
        <time>2021-08-19T16:23:41Z</time>
      </trkpt>
      <trkpt lat="44.91198" lon="2.44903">
        <ele>606.5</ele>
        <time>2021-08-19T16:23:43Z</time>
      </trkpt>
      <trkpt lat="44.91203" lon="2.44894">
        <ele>606.4</ele>
        <time>2021-08-19T16:23:45Z</time>
      </trkpt>
      <trkpt lat="44.91207" lon="2.44884">
        <ele>606.4</ele>
        <time>2021-08-19T16:23:47Z</time>
      </trkpt>
      <trkpt lat="44.91212" lon="2.44875">
        <ele>606.4</ele>
        <time>2021-08-19T16:23:49Z</time>
      </trkpt>
      <trkpt lat="44.91216" lon="2.44866">
        <ele>606.3</ele>
        <time>2021-08-19T16:23:51Z</time>
      </trkpt>
      <trkpt lat="44.9122" lon="2.44858">
        <ele>606.3</ele>
        <time>2021-08-19T16:23:53Z</time>
      </trkpt>
      <trkpt lat="44.91225" lon="2.44849">
        <ele>606.3</ele>
        <time>2021-08-19T16:23:55Z</time>
      </trkpt>
      <trkpt lat="44.9123" lon="2.4484">
        <ele>606.4</ele>
        <time>2021-08-19T16:23:57Z</time>
      </trkpt>
      <trkpt lat="44.91235" lon="2.4483">
        <ele>606.4</ele>
        <time>2021-08-19T16:23:59Z</time>
      </trkpt>
      <trkpt lat="44.91239" lon="2.44821">
        <ele>606.5</ele>
        <time>2021-08-19T16:24:01Z</time>
      </trkpt>
      <trkpt lat="44.91244" lon="2.44812">
        <ele>606.6</ele>
        <time>2021-08-19T16:24:03Z</time>
      </trkpt>
      <trkpt lat="44.91249" lon="2.44803">
        <ele>606.6</ele>
        <time>2021-08-19T16:24:05Z</time>
      </trkpt>
      <trkpt lat="44.91253" lon="2.44794">
        <ele>606.8</ele>
        <time>2021-08-19T16:24:07Z</time>
      </trkpt>
      <trkpt lat="44.91258" lon="2.44785">
        <ele>607.2</ele>
        <time>2021-08-19T16:24:09Z</time>
      </trkpt>
      <trkpt lat="44.91263" lon="2.44776">
        <ele>607.5</ele>
        <time>2021-08-19T16:24:11Z</time>
      </trkpt>
      <trkpt lat="44.91267" lon="2.44767">
        <ele>607.7</ele>
        <time>2021-08-19T16:24:13Z</time>
      </trkpt>
      <trkpt lat="44.91271" lon="2.44758">
        <ele>607.9</ele>
        <time>2021-08-19T16:24:15Z</time>
      </trkpt>
      <trkpt lat="44.91275" lon="2.44749">
        <ele>608.1</ele>
        <time>2021-08-19T16:24:17Z</time>
      </trkpt>
      <trkpt lat="44.9128" lon="2.44741">
        <ele>608.4</ele>
        <time>2021-08-19T16:24:19Z</time>
      </trkpt>
      <trkpt lat="44.91284" lon="2.44732">
        <ele>608.6</ele>
        <time>2021-08-19T16:24:21Z</time>
      </trkpt>
      <trkpt lat="44.91289" lon="2.44724">
        <ele>608.8</ele>
        <time>2021-08-19T16:24:23Z</time>
      </trkpt>
      <trkpt lat="44.91293" lon="2.44715">
        <ele>609</ele>
        <time>2021-08-19T16:24:25Z</time>
      </trkpt>
      <trkpt lat="44.91297" lon="2.44707">
        <ele>609.1</ele>
        <time>2021-08-19T16:24:27Z</time>
      </trkpt>
      <trkpt lat="44.91302" lon="2.44699">
        <ele>609.2</ele>
        <time>2021-08-19T16:24:29Z</time>
      </trkpt>
      <trkpt lat="44.91305" lon="2.44691">
        <ele>609.3</ele>
        <time>2021-08-19T16:24:31Z</time>
      </trkpt>
      <trkpt lat="44.9131" lon="2.44683">
        <ele>609.3</ele>
        <time>2021-08-19T16:24:33Z</time>
      </trkpt>
      <trkpt lat="44.91313" lon="2.44675">
        <ele>609.3</ele>
        <time>2021-08-19T16:24:35Z</time>
      </trkpt>
      <trkpt lat="44.91317" lon="2.44667">
        <ele>609.2</ele>
        <time>2021-08-19T16:24:37Z</time>
      </trkpt>
      <trkpt lat="44.91322" lon="2.44658">
        <ele>609.1</ele>
        <time>2021-08-19T16:24:39Z</time>
      </trkpt>
      <trkpt lat="44.91326" lon="2.4465">
        <ele>608.9</ele>
        <time>2021-08-19T16:24:41Z</time>
      </trkpt>
      <trkpt lat="44.91331" lon="2.44642">
        <ele>608.7</ele>
        <time>2021-08-19T16:24:43Z</time>
      </trkpt>
      <trkpt lat="44.91335" lon="2.44633">
        <ele>608.5</ele>
        <time>2021-08-19T16:24:45Z</time>
      </trkpt>
      <trkpt lat="44.91339" lon="2.44625">
        <ele>608.5</ele>
        <time>2021-08-19T16:24:47Z</time>
      </trkpt>
      <trkpt lat="44.91343" lon="2.44617">
        <ele>608.4</ele>
        <time>2021-08-19T16:24:49Z</time>
      </trkpt>
      <trkpt lat="44.91347" lon="2.4461">
        <ele>608.3</ele>
        <time>2021-08-19T16:24:51Z</time>
      </trkpt>
      <trkpt lat="44.91351" lon="2.44602">
        <ele>608.2</ele>
        <time>2021-08-19T16:24:53Z</time>
      </trkpt>
      <trkpt lat="44.91354" lon="2.44595">
        <ele>608.1</ele>
        <time>2021-08-19T16:24:55Z</time>
      </trkpt>
      <trkpt lat="44.91357" lon="2.44589">
        <ele>608</ele>
        <time>2021-08-19T16:24:57Z</time>
      </trkpt>
      <trkpt lat="44.9136" lon="2.44584">
        <ele>608</ele>
        <time>2021-08-19T16:24:59Z</time>
      </trkpt>
      <trkpt lat="44.91363" lon="2.44578">
        <ele>607.8</ele>
        <time>2021-08-19T16:25:01Z</time>
      </trkpt>
      <trkpt lat="44.91366" lon="2.44572">
        <ele>607.6</ele>
        <time>2021-08-19T16:25:03Z</time>
      </trkpt>
      <trkpt lat="44.91366" lon="2.44566">
        <ele>607.3</ele>
        <time>2021-08-19T16:25:05Z</time>
      </trkpt>
      <trkpt lat="44.91365" lon="2.44561">
        <ele>607</ele>
        <time>2021-08-19T16:25:07Z</time>
      </trkpt>
      <trkpt lat="44.91365" lon="2.44561">
        <ele>606.9</ele>
        <time>2021-08-19T16:25:09Z</time>
      </trkpt>
      <trkpt lat="44.91365" lon="2.4456">
        <ele>606.9</ele>
        <time>2021-08-19T16:25:11Z</time>
      </trkpt>
      <trkpt lat="44.91365" lon="2.4456">
        <ele>606.9</ele>
        <time>2021-08-19T16:25:13Z</time>
      </trkpt>
      <trkpt lat="44.91365" lon="2.4456">
        <ele>606.9</ele>
        <time>2021-08-19T16:25:15Z</time>
      </trkpt>
      <trkpt lat="44.91365" lon="2.4456">
        <ele>606.9</ele>
        <time>2021-08-19T16:25:17Z</time>
      </trkpt>
      <trkpt lat="44.91368" lon="2.44537">
        <ele>605.8</ele>
        <time>2021-08-19T16:26:35Z</time>
      </trkpt>
      <trkpt lat="44.91368" lon="2.44531">
        <ele>605.4</ele>
        <time>2021-08-19T16:26:37Z</time>
      </trkpt>
      <trkpt lat="44.91365" lon="2.44533">
        <ele>605.2</ele>
        <time>2021-08-19T16:26:39Z</time>
      </trkpt>
      <trkpt lat="44.91359" lon="2.44535">
        <ele>605</ele>
        <time>2021-08-19T16:26:41Z</time>
      </trkpt>
      <trkpt lat="44.91351" lon="2.44532">
        <ele>604.2</ele>
        <time>2021-08-19T16:26:43Z</time>
      </trkpt>
      <trkpt lat="44.91343" lon="2.44528">
        <ele>603.4</ele>
        <time>2021-08-19T16:26:45Z</time>
      </trkpt>
      <trkpt lat="44.91336" lon="2.44522">
        <ele>602.5</ele>
        <time>2021-08-19T16:26:47Z</time>
      </trkpt>
      <trkpt lat="44.91332" lon="2.44511">
        <ele>601.7</ele>
        <time>2021-08-19T16:26:49Z</time>
      </trkpt>
      <trkpt lat="44.91334" lon="2.44499">
        <ele>601</ele>
        <time>2021-08-19T16:26:51Z</time>
      </trkpt>
      <trkpt lat="44.91335" lon="2.44487">
        <ele>601</ele>
        <time>2021-08-19T16:26:53Z</time>
      </trkpt>
      <trkpt lat="44.91335" lon="2.44475">
        <ele>600.8</ele>
        <time>2021-08-19T16:26:55Z</time>
      </trkpt>
      <trkpt lat="44.91336" lon="2.44464">
        <ele>600.7</ele>
        <time>2021-08-19T16:26:57Z</time>
      </trkpt>
      <trkpt lat="44.91336" lon="2.44453">
        <ele>600.6</ele>
        <time>2021-08-19T16:26:59Z</time>
      </trkpt>
      <trkpt lat="44.91337" lon="2.44443">
        <ele>600.6</ele>
        <time>2021-08-19T16:27:01Z</time>
      </trkpt>
      <trkpt lat="44.91338" lon="2.44433">
        <ele>600.5</ele>
        <time>2021-08-19T16:27:03Z</time>
      </trkpt>
      <trkpt lat="44.91337" lon="2.44424">
        <ele>600.3</ele>
        <time>2021-08-19T16:27:05Z</time>
      </trkpt>
      <trkpt lat="44.91337" lon="2.44414">
        <ele>600.3</ele>
        <time>2021-08-19T16:27:07Z</time>
      </trkpt>
      <trkpt lat="44.91337" lon="2.44403">
        <ele>600.5</ele>
        <time>2021-08-19T16:27:09Z</time>
      </trkpt>
      <trkpt lat="44.91338" lon="2.44393">
        <ele>600.8</ele>
        <time>2021-08-19T16:27:11Z</time>
      </trkpt>
      <trkpt lat="44.91338" lon="2.44381">
        <ele>601.1</ele>
        <time>2021-08-19T16:27:13Z</time>
      </trkpt>
      <trkpt lat="44.91336" lon="2.44372">
        <ele>601.2</ele>
        <time>2021-08-19T16:27:15Z</time>
      </trkpt>
      <trkpt lat="44.91334" lon="2.44362">
        <ele>601.4</ele>
        <time>2021-08-19T16:27:17Z</time>
      </trkpt>
      <trkpt lat="44.91333" lon="2.44352">
        <ele>601.6</ele>
        <time>2021-08-19T16:27:19Z</time>
      </trkpt>
      <trkpt lat="44.91332" lon="2.44342">
        <ele>601.8</ele>
        <time>2021-08-19T16:27:21Z</time>
      </trkpt>
      <trkpt lat="44.9133" lon="2.44332">
        <ele>602</ele>
        <time>2021-08-19T16:27:23Z</time>
      </trkpt>
      <trkpt lat="44.91328" lon="2.44321">
        <ele>602.1</ele>
        <time>2021-08-19T16:27:25Z</time>
      </trkpt>
      <trkpt lat="44.91326" lon="2.4431">
        <ele>602.2</ele>
        <time>2021-08-19T16:27:27Z</time>
      </trkpt>
      <trkpt lat="44.91323" lon="2.443">
        <ele>602.2</ele>
        <time>2021-08-19T16:27:29Z</time>
      </trkpt>
      <trkpt lat="44.91321" lon="2.4429">
        <ele>602.3</ele>
        <time>2021-08-19T16:27:31Z</time>
      </trkpt>
      <trkpt lat="44.91318" lon="2.44282">
        <ele>602.3</ele>
        <time>2021-08-19T16:27:33Z</time>
      </trkpt>
      <trkpt lat="44.91315" lon="2.44272">
        <ele>602.4</ele>
        <time>2021-08-19T16:27:35Z</time>
      </trkpt>
      <trkpt lat="44.91312" lon="2.44263">
        <ele>602.4</ele>
        <time>2021-08-19T16:27:37Z</time>
      </trkpt>
      <trkpt lat="44.91308" lon="2.44254">
        <ele>602.4</ele>
        <time>2021-08-19T16:27:39Z</time>
      </trkpt>
      <trkpt lat="44.91306" lon="2.44246">
        <ele>602.3</ele>
        <time>2021-08-19T16:27:41Z</time>
      </trkpt>
      <trkpt lat="44.91303" lon="2.44238">
        <ele>602.2</ele>
        <time>2021-08-19T16:27:43Z</time>
      </trkpt>
      <trkpt lat="44.91302" lon="2.44232">
        <ele>602.1</ele>
        <time>2021-08-19T16:27:45Z</time>
      </trkpt>
      <trkpt lat="44.91301" lon="2.44226">
        <ele>602</ele>
        <time>2021-08-19T16:27:47Z</time>
      </trkpt>
      <trkpt lat="44.91301" lon="2.44224">
        <ele>602</ele>
        <time>2021-08-19T16:27:49Z</time>
      </trkpt>
      <trkpt lat="44.913" lon="2.44224">
        <ele>602</ele>
        <time>2021-08-19T16:27:51Z</time>
      </trkpt>
      <trkpt lat="44.913" lon="2.44224">
        <ele>602</ele>
        <time>2021-08-19T16:27:53Z</time>
      </trkpt>
      <trkpt lat="44.91301" lon="2.44224">
        <ele>602</ele>
        <time>2021-08-19T16:27:55Z</time>
      </trkpt>
      <trkpt lat="44.913" lon="2.44221">
        <ele>602</ele>
        <time>2021-08-19T16:27:57Z</time>
      </trkpt>
      <trkpt lat="44.913" lon="2.44215">
        <ele>601.9</ele>
        <time>2021-08-19T16:27:59Z</time>
      </trkpt>
      <trkpt lat="44.91301" lon="2.44208">
        <ele>601.9</ele>
        <time>2021-08-19T16:28:01Z</time>
      </trkpt>
      <trkpt lat="44.91302" lon="2.442">
        <ele>601.9</ele>
        <time>2021-08-19T16:28:03Z</time>
      </trkpt>
      <trkpt lat="44.91304" lon="2.44192">
        <ele>601.8</ele>
        <time>2021-08-19T16:28:05Z</time>
      </trkpt>
      <trkpt lat="44.91306" lon="2.44185">
        <ele>601.8</ele>
        <time>2021-08-19T16:28:07Z</time>
      </trkpt>
      <trkpt lat="44.91308" lon="2.44178">
        <ele>601.8</ele>
        <time>2021-08-19T16:28:09Z</time>
      </trkpt>
      <trkpt lat="44.91311" lon="2.44172">
        <ele>601.8</ele>
        <time>2021-08-19T16:28:11Z</time>
      </trkpt>
      <trkpt lat="44.91314" lon="2.44168">
        <ele>601.8</ele>
        <time>2021-08-19T16:28:13Z</time>
      </trkpt>
      <trkpt lat="44.91317" lon="2.44164">
        <ele>601.8</ele>
        <time>2021-08-19T16:28:15Z</time>
      </trkpt>
      <trkpt lat="44.91317" lon="2.44163">
        <ele>601.9</ele>
        <time>2021-08-19T16:28:17Z</time>
      </trkpt>
      <trkpt lat="44.91317" lon="2.44163">
        <ele>601.9</ele>
        <time>2021-08-19T16:28:19Z</time>
      </trkpt>
      <trkpt lat="44.91318" lon="2.44163">
        <ele>601.9</ele>
        <time>2021-08-19T16:28:21Z</time>
      </trkpt>
      <trkpt lat="44.91318" lon="2.44163">
        <ele>601.9</ele>
        <time>2021-08-19T16:28:23Z</time>
      </trkpt>
      <trkpt lat="44.91318" lon="2.44162">
        <ele>601.9</ele>
        <time>2021-08-19T16:28:25Z</time>
      </trkpt>
      <trkpt lat="44.91299" lon="2.44172">
        <ele>601.6</ele>
        <time>2021-08-19T16:28:45Z</time>
      </trkpt>
      <trkpt lat="44.91297" lon="2.44175">
        <ele>601.6</ele>
        <time>2021-08-19T16:28:47Z</time>
      </trkpt>
      <trkpt lat="44.91294" lon="2.44178">
        <ele>601.6</ele>
        <time>2021-08-19T16:28:49Z</time>
      </trkpt>
      <trkpt lat="44.91291" lon="2.44176">
        <ele>601.5</ele>
        <time>2021-08-19T16:28:51Z</time>
      </trkpt>
      <trkpt lat="44.91288" lon="2.4417">
        <ele>601.5</ele>
        <time>2021-08-19T16:28:53Z</time>
      </trkpt>
      <trkpt lat="44.91287" lon="2.44163">
        <ele>601.5</ele>
        <time>2021-08-19T16:28:55Z</time>
      </trkpt>
      <trkpt lat="44.91287" lon="2.44159">
        <ele>601.6</ele>
        <time>2021-08-19T16:28:57Z</time>
      </trkpt>
      <trkpt lat="44.91286" lon="2.44153">
        <ele>601.8</ele>
        <time>2021-08-19T16:28:59Z</time>
      </trkpt>
      <trkpt lat="44.91286" lon="2.44147">
        <ele>601.9</ele>
        <time>2021-08-19T16:29:01Z</time>
      </trkpt>
      <trkpt lat="44.91284" lon="2.44143">
        <ele>602</ele>
        <time>2021-08-19T16:29:03Z</time>
      </trkpt>
      <trkpt lat="44.91283" lon="2.44139">
        <ele>602.1</ele>
        <time>2021-08-19T16:29:05Z</time>
      </trkpt>
      <trkpt lat="44.91283" lon="2.44136">
        <ele>602.2</ele>
        <time>2021-08-19T16:29:07Z</time>
      </trkpt>
      <trkpt lat="44.91283" lon="2.44132">
        <ele>602.3</ele>
        <time>2021-08-19T16:29:09Z</time>
      </trkpt>
      <trkpt lat="44.91282" lon="2.44133">
        <ele>602.3</ele>
        <time>2021-08-19T16:29:11Z</time>
      </trkpt>
      <trkpt lat="44.91282" lon="2.44132">
        <ele>602.3</ele>
        <time>2021-08-19T16:29:13Z</time>
      </trkpt>
      <trkpt lat="44.91283" lon="2.44131">
        <ele>602.3</ele>
        <time>2021-08-19T16:29:15Z</time>
      </trkpt>
      <trkpt lat="44.91282" lon="2.44131">
        <ele>602.3</ele>
        <time>2021-08-19T16:29:17Z</time>
      </trkpt>
      <trkpt lat="44.91283" lon="2.44131">
        <ele>602.3</ele>
        <time>2021-08-19T16:29:19Z</time>
      </trkpt>
      <trkpt lat="44.91276" lon="2.44102">
        <ele>603.2</ele>
        <time>2021-08-19T16:31:27Z</time>
      </trkpt>
      <trkpt lat="44.91275" lon="2.44094">
        <ele>603.4</ele>
        <time>2021-08-19T16:31:29Z</time>
      </trkpt>
      <trkpt lat="44.91273" lon="2.44084">
        <ele>603.7</ele>
        <time>2021-08-19T16:31:31Z</time>
      </trkpt>
      <trkpt lat="44.91273" lon="2.44075">
        <ele>603.9</ele>
        <time>2021-08-19T16:31:33Z</time>
      </trkpt>
      <trkpt lat="44.91273" lon="2.44066">
        <ele>604</ele>
        <time>2021-08-19T16:31:35Z</time>
      </trkpt>
      <trkpt lat="44.91272" lon="2.44057">
        <ele>604.1</ele>
        <time>2021-08-19T16:31:37Z</time>
      </trkpt>
      <trkpt lat="44.9127" lon="2.44049">
        <ele>604.3</ele>
        <time>2021-08-19T16:31:39Z</time>
      </trkpt>
      <trkpt lat="44.91269" lon="2.4404">
        <ele>604.4</ele>
        <time>2021-08-19T16:31:41Z</time>
      </trkpt>
      <trkpt lat="44.91268" lon="2.44031">
        <ele>604.5</ele>
        <time>2021-08-19T16:31:43Z</time>
      </trkpt>
      <trkpt lat="44.91267" lon="2.44022">
        <ele>604.7</ele>
        <time>2021-08-19T16:31:45Z</time>
      </trkpt>
      <trkpt lat="44.91265" lon="2.44013">
        <ele>604.8</ele>
        <time>2021-08-19T16:31:47Z</time>
      </trkpt>
      <trkpt lat="44.91264" lon="2.44004">
        <ele>604.9</ele>
        <time>2021-08-19T16:31:49Z</time>
      </trkpt>
      <trkpt lat="44.91263" lon="2.43996">
        <ele>605.2</ele>
        <time>2021-08-19T16:31:51Z</time>
      </trkpt>
      <trkpt lat="44.91261" lon="2.43987">
        <ele>605.6</ele>
        <time>2021-08-19T16:31:53Z</time>
      </trkpt>
      <trkpt lat="44.91261" lon="2.43979">
        <ele>606</ele>
        <time>2021-08-19T16:31:55Z</time>
      </trkpt>
      <trkpt lat="44.91259" lon="2.43971">
        <ele>606.4</ele>
        <time>2021-08-19T16:31:57Z</time>
      </trkpt>
      <trkpt lat="44.91259" lon="2.43964">
        <ele>606.7</ele>
        <time>2021-08-19T16:31:59Z</time>
      </trkpt>
      <trkpt lat="44.91257" lon="2.43958">
        <ele>607</ele>
        <time>2021-08-19T16:32:01Z</time>
      </trkpt>
      <trkpt lat="44.91256" lon="2.43951">
        <ele>607.3</ele>
        <time>2021-08-19T16:32:03Z</time>
      </trkpt>
      <trkpt lat="44.91256" lon="2.43944">
        <ele>607.7</ele>
        <time>2021-08-19T16:32:05Z</time>
      </trkpt>
      <trkpt lat="44.91255" lon="2.43937">
        <ele>608</ele>
        <time>2021-08-19T16:32:07Z</time>
      </trkpt>
      <trkpt lat="44.91254" lon="2.43931">
        <ele>608.3</ele>
        <time>2021-08-19T16:32:09Z</time>
      </trkpt>
      <trkpt lat="44.91254" lon="2.43926">
        <ele>608.5</ele>
        <time>2021-08-19T16:32:11Z</time>
      </trkpt>
      <trkpt lat="44.91254" lon="2.43921">
        <ele>608.8</ele>
        <time>2021-08-19T16:32:13Z</time>
      </trkpt>
      <trkpt lat="44.91252" lon="2.43917">
        <ele>609</ele>
        <time>2021-08-19T16:32:15Z</time>
      </trkpt>
      <trkpt lat="44.91251" lon="2.43911">
        <ele>609.3</ele>
        <time>2021-08-19T16:32:17Z</time>
      </trkpt>
      <trkpt lat="44.9125" lon="2.43906">
        <ele>609.6</ele>
        <time>2021-08-19T16:32:19Z</time>
      </trkpt>
      <trkpt lat="44.91249" lon="2.43902">
        <ele>609.9</ele>
        <time>2021-08-19T16:32:21Z</time>
      </trkpt>
      <trkpt lat="44.91249" lon="2.43896">
        <ele>610.2</ele>
        <time>2021-08-19T16:32:23Z</time>
      </trkpt>
      <trkpt lat="44.91249" lon="2.43891">
        <ele>610.5</ele>
        <time>2021-08-19T16:32:25Z</time>
      </trkpt>
      <trkpt lat="44.91248" lon="2.43887">
        <ele>610.7</ele>
        <time>2021-08-19T16:32:27Z</time>
      </trkpt>
      <trkpt lat="44.91247" lon="2.43882">
        <ele>611</ele>
        <time>2021-08-19T16:32:29Z</time>
      </trkpt>
      <trkpt lat="44.91246" lon="2.43878">
        <ele>611.2</ele>
        <time>2021-08-19T16:32:31Z</time>
      </trkpt>
      <trkpt lat="44.91246" lon="2.43874">
        <ele>611.5</ele>
        <time>2021-08-19T16:32:33Z</time>
      </trkpt>
      <trkpt lat="44.91245" lon="2.4387">
        <ele>611.7</ele>
        <time>2021-08-19T16:32:35Z</time>
      </trkpt>
      <trkpt lat="44.91244" lon="2.43866">
        <ele>611.9</ele>
        <time>2021-08-19T16:32:37Z</time>
      </trkpt>
      <trkpt lat="44.91244" lon="2.43861">
        <ele>612.2</ele>
        <time>2021-08-19T16:32:39Z</time>
      </trkpt>
      <trkpt lat="44.91243" lon="2.43856">
        <ele>612.5</ele>
        <time>2021-08-19T16:32:41Z</time>
      </trkpt>
      <trkpt lat="44.91243" lon="2.43851">
        <ele>612.8</ele>
        <time>2021-08-19T16:32:43Z</time>
      </trkpt>
      <trkpt lat="44.91243" lon="2.43845">
        <ele>613.1</ele>
        <time>2021-08-19T16:32:45Z</time>
      </trkpt>
      <trkpt lat="44.91242" lon="2.4384">
        <ele>613.5</ele>
        <time>2021-08-19T16:32:47Z</time>
      </trkpt>
      <trkpt lat="44.91241" lon="2.43835">
        <ele>613.8</ele>
        <time>2021-08-19T16:32:49Z</time>
      </trkpt>
      <trkpt lat="44.91241" lon="2.43831">
        <ele>614</ele>
        <time>2021-08-19T16:32:51Z</time>
      </trkpt>
      <trkpt lat="44.9124" lon="2.43826">
        <ele>614.1</ele>
        <time>2021-08-19T16:32:53Z</time>
      </trkpt>
      <trkpt lat="44.9124" lon="2.43822">
        <ele>614.3</ele>
        <time>2021-08-19T16:32:55Z</time>
      </trkpt>
      <trkpt lat="44.9124" lon="2.43819">
        <ele>614.4</ele>
        <time>2021-08-19T16:32:57Z</time>
      </trkpt>
      <trkpt lat="44.91239" lon="2.43819">
        <ele>614.4</ele>
        <time>2021-08-19T16:32:59Z</time>
      </trkpt>
      <trkpt lat="44.91239" lon="2.43819">
        <ele>614.4</ele>
        <time>2021-08-19T16:33:01Z</time>
      </trkpt>
      <trkpt lat="44.91239" lon="2.43818">
        <ele>614.4</ele>
        <time>2021-08-19T16:33:03Z</time>
      </trkpt>
      <trkpt lat="44.91238" lon="2.43818">
        <ele>614.4</ele>
        <time>2021-08-19T16:33:05Z</time>
      </trkpt>
      <trkpt lat="44.91239" lon="2.43798">
        <ele>615.1</ele>
        <time>2021-08-19T16:33:25Z</time>
      </trkpt>
      <trkpt lat="44.91238" lon="2.43792">
        <ele>615.3</ele>
        <time>2021-08-19T16:33:27Z</time>
      </trkpt>
      <trkpt lat="44.91237" lon="2.43785">
        <ele>615.5</ele>
        <time>2021-08-19T16:33:29Z</time>
      </trkpt>
      <trkpt lat="44.91239" lon="2.43779">
        <ele>615.7</ele>
        <time>2021-08-19T16:33:31Z</time>
      </trkpt>
      <trkpt lat="44.91238" lon="2.43772">
        <ele>616</ele>
        <time>2021-08-19T16:33:33Z</time>
      </trkpt>
      <trkpt lat="44.91237" lon="2.43765">
        <ele>616.2</ele>
        <time>2021-08-19T16:33:35Z</time>
      </trkpt>
      <trkpt lat="44.91236" lon="2.43757">
        <ele>616.4</ele>
        <time>2021-08-19T16:33:37Z</time>
      </trkpt>
      <trkpt lat="44.91235" lon="2.43748">
        <ele>616.7</ele>
        <time>2021-08-19T16:33:39Z</time>
      </trkpt>
      <trkpt lat="44.91235" lon="2.43741">
        <ele>616.7</ele>
        <time>2021-08-19T16:33:41Z</time>
      </trkpt>
      <trkpt lat="44.91235" lon="2.43733">
        <ele>616.8</ele>
        <time>2021-08-19T16:33:43Z</time>
      </trkpt>
      <trkpt lat="44.91235" lon="2.43725">
        <ele>616.9</ele>
        <time>2021-08-19T16:33:45Z</time>
      </trkpt>
      <trkpt lat="44.91236" lon="2.43718">
        <ele>617</ele>
        <time>2021-08-19T16:33:47Z</time>
      </trkpt>
      <trkpt lat="44.91235" lon="2.43712">
        <ele>617.1</ele>
        <time>2021-08-19T16:33:49Z</time>
      </trkpt>
      <trkpt lat="44.91234" lon="2.43708">
        <ele>617.1</ele>
        <time>2021-08-19T16:33:51Z</time>
      </trkpt>
      <trkpt lat="44.91234" lon="2.43703">
        <ele>617.2</ele>
        <time>2021-08-19T16:33:53Z</time>
      </trkpt>
      <trkpt lat="44.91235" lon="2.43702">
        <ele>617.2</ele>
        <time>2021-08-19T16:33:55Z</time>
      </trkpt>
      <trkpt lat="44.91235" lon="2.43702">
        <ele>617.2</ele>
        <time>2021-08-19T16:33:57Z</time>
      </trkpt>
      <trkpt lat="44.91235" lon="2.43701">
        <ele>617.2</ele>
        <time>2021-08-19T16:33:59Z</time>
      </trkpt>
      <trkpt lat="44.91235" lon="2.437">
        <ele>617.2</ele>
        <time>2021-08-19T16:34:01Z</time>
      </trkpt>
      <trkpt lat="44.91235" lon="2.437">
        <ele>617.2</ele>
        <time>2021-08-19T16:34:03Z</time>
      </trkpt>
      <trkpt lat="44.91237" lon="2.43678">
        <ele>617.6</ele>
        <time>2021-08-19T16:34:31Z</time>
      </trkpt>
      <trkpt lat="44.91239" lon="2.4367">
        <ele>617.7</ele>
        <time>2021-08-19T16:34:33Z</time>
      </trkpt>
      <trkpt lat="44.91241" lon="2.43663">
        <ele>617.9</ele>
        <time>2021-08-19T16:34:35Z</time>
      </trkpt>
      <trkpt lat="44.91242" lon="2.43654">
        <ele>618.1</ele>
        <time>2021-08-19T16:34:37Z</time>
      </trkpt>
      <trkpt lat="44.91243" lon="2.43647">
        <ele>618.3</ele>
        <time>2021-08-19T16:34:39Z</time>
      </trkpt>
      <trkpt lat="44.91244" lon="2.43638">
        <ele>618.6</ele>
        <time>2021-08-19T16:34:41Z</time>
      </trkpt>
      <trkpt lat="44.91245" lon="2.43629">
        <ele>618.8</ele>
        <time>2021-08-19T16:34:43Z</time>
      </trkpt>
      <trkpt lat="44.91247" lon="2.4362">
        <ele>619.1</ele>
        <time>2021-08-19T16:34:45Z</time>
      </trkpt>
      <trkpt lat="44.91247" lon="2.43611">
        <ele>619.3</ele>
        <time>2021-08-19T16:34:47Z</time>
      </trkpt>
      <trkpt lat="44.91249" lon="2.43602">
        <ele>619.5</ele>
        <time>2021-08-19T16:34:49Z</time>
      </trkpt>
      <trkpt lat="44.91251" lon="2.43594">
        <ele>619.7</ele>
        <time>2021-08-19T16:34:51Z</time>
      </trkpt>
      <trkpt lat="44.91252" lon="2.43584">
        <ele>619.9</ele>
        <time>2021-08-19T16:34:53Z</time>
      </trkpt>
      <trkpt lat="44.91253" lon="2.43576">
        <ele>620</ele>
        <time>2021-08-19T16:34:55Z</time>
      </trkpt>
      <trkpt lat="44.91254" lon="2.43568">
        <ele>620</ele>
        <time>2021-08-19T16:34:57Z</time>
      </trkpt>
      <trkpt lat="44.91256" lon="2.43559">
        <ele>620.1</ele>
        <time>2021-08-19T16:34:59Z</time>
      </trkpt>
      <trkpt lat="44.91258" lon="2.43552">
        <ele>620.1</ele>
        <time>2021-08-19T16:35:01Z</time>
      </trkpt>
      <trkpt lat="44.91259" lon="2.43545">
        <ele>620.1</ele>
        <time>2021-08-19T16:35:03Z</time>
      </trkpt>
      <trkpt lat="44.91261" lon="2.43539">
        <ele>620.1</ele>
        <time>2021-08-19T16:35:05Z</time>
      </trkpt>
      <trkpt lat="44.91263" lon="2.43532">
        <ele>620.2</ele>
        <time>2021-08-19T16:35:07Z</time>
      </trkpt>
      <trkpt lat="44.91264" lon="2.43523">
        <ele>620.2</ele>
        <time>2021-08-19T16:35:09Z</time>
      </trkpt>
      <trkpt lat="44.91265" lon="2.43517">
        <ele>620.2</ele>
        <time>2021-08-19T16:35:11Z</time>
      </trkpt>
      <trkpt lat="44.91267" lon="2.43509">
        <ele>620.3</ele>
        <time>2021-08-19T16:35:13Z</time>
      </trkpt>
      <trkpt lat="44.91267" lon="2.43502">
        <ele>620.3</ele>
        <time>2021-08-19T16:35:15Z</time>
      </trkpt>
      <trkpt lat="44.91269" lon="2.43495">
        <ele>620.5</ele>
        <time>2021-08-19T16:35:17Z</time>
      </trkpt>
      <trkpt lat="44.91271" lon="2.43487">
        <ele>620.8</ele>
        <time>2021-08-19T16:35:19Z</time>
      </trkpt>
      <trkpt lat="44.91273" lon="2.43478">
        <ele>621.1</ele>
        <time>2021-08-19T16:35:21Z</time>
      </trkpt>
      <trkpt lat="44.91274" lon="2.4347">
        <ele>621.3</ele>
        <time>2021-08-19T16:35:23Z</time>
      </trkpt>
      <trkpt lat="44.91276" lon="2.43463">
        <ele>621.5</ele>
        <time>2021-08-19T16:35:25Z</time>
      </trkpt>
      <trkpt lat="44.91278" lon="2.43457">
        <ele>621.7</ele>
        <time>2021-08-19T16:35:27Z</time>
      </trkpt>
      <trkpt lat="44.9128" lon="2.4345">
        <ele>622</ele>
        <time>2021-08-19T16:35:29Z</time>
      </trkpt>
      <trkpt lat="44.91282" lon="2.43443">
        <ele>622.1</ele>
        <time>2021-08-19T16:35:31Z</time>
      </trkpt>
      <trkpt lat="44.91285" lon="2.43437">
        <ele>622.3</ele>
        <time>2021-08-19T16:35:33Z</time>
      </trkpt>
      <trkpt lat="44.91286" lon="2.43429">
        <ele>622.6</ele>
        <time>2021-08-19T16:35:35Z</time>
      </trkpt>
      <trkpt lat="44.91288" lon="2.43423">
        <ele>622.8</ele>
        <time>2021-08-19T16:35:37Z</time>
      </trkpt>
      <trkpt lat="44.9129" lon="2.43416">
        <ele>623</ele>
        <time>2021-08-19T16:35:39Z</time>
      </trkpt>
      <trkpt lat="44.91291" lon="2.43409">
        <ele>623.1</ele>
        <time>2021-08-19T16:35:41Z</time>
      </trkpt>
      <trkpt lat="44.9129" lon="2.43403">
        <ele>623.1</ele>
        <time>2021-08-19T16:35:43Z</time>
      </trkpt>
      <trkpt lat="44.91289" lon="2.434">
        <ele>623.1</ele>
        <time>2021-08-19T16:35:45Z</time>
      </trkpt>
      <trkpt lat="44.91288" lon="2.43394">
        <ele>623.2</ele>
        <time>2021-08-19T16:35:47Z</time>
      </trkpt>
      <trkpt lat="44.91287" lon="2.43389">
        <ele>623.2</ele>
        <time>2021-08-19T16:35:49Z</time>
      </trkpt>
      <trkpt lat="44.91286" lon="2.43385">
        <ele>623.2</ele>
        <time>2021-08-19T16:35:51Z</time>
      </trkpt>
      <trkpt lat="44.91287" lon="2.43381">
        <ele>623.3</ele>
        <time>2021-08-19T16:35:53Z</time>
      </trkpt>
      <trkpt lat="44.91287" lon="2.43376">
        <ele>623.3</ele>
        <time>2021-08-19T16:35:55Z</time>
      </trkpt>
      <trkpt lat="44.91281" lon="2.43375">
        <ele>623.3</ele>
        <time>2021-08-19T16:35:57Z</time>
      </trkpt>
      <trkpt lat="44.91276" lon="2.43372">
        <ele>623.3</ele>
        <time>2021-08-19T16:35:59Z</time>
      </trkpt>
      <trkpt lat="44.91272" lon="2.43368">
        <ele>623.4</ele>
        <time>2021-08-19T16:36:01Z</time>
      </trkpt>
      <trkpt lat="44.91267" lon="2.43364">
        <ele>623.3</ele>
        <time>2021-08-19T16:36:03Z</time>
      </trkpt>
      <trkpt lat="44.91262" lon="2.43361">
        <ele>623.3</ele>
        <time>2021-08-19T16:36:05Z</time>
      </trkpt>
      <trkpt lat="44.91257" lon="2.43357">
        <ele>623.3</ele>
        <time>2021-08-19T16:36:07Z</time>
      </trkpt>
      <trkpt lat="44.91252" lon="2.43354">
        <ele>623.3</ele>
        <time>2021-08-19T16:36:09Z</time>
      </trkpt>
      <trkpt lat="44.91247" lon="2.4335">
        <ele>623.1</ele>
        <time>2021-08-19T16:36:11Z</time>
      </trkpt>
      <trkpt lat="44.91242" lon="2.43345">
        <ele>622.9</ele>
        <time>2021-08-19T16:36:13Z</time>
      </trkpt>
      <trkpt lat="44.91237" lon="2.43341">
        <ele>622.8</ele>
        <time>2021-08-19T16:36:15Z</time>
      </trkpt>
      <trkpt lat="44.91232" lon="2.43337">
        <ele>622.6</ele>
        <time>2021-08-19T16:36:17Z</time>
      </trkpt>
      <trkpt lat="44.91227" lon="2.43333">
        <ele>622.5</ele>
        <time>2021-08-19T16:36:19Z</time>
      </trkpt>
      <trkpt lat="44.91222" lon="2.43329">
        <ele>622.4</ele>
        <time>2021-08-19T16:36:21Z</time>
      </trkpt>
      <trkpt lat="44.91217" lon="2.43325">
        <ele>622.4</ele>
        <time>2021-08-19T16:36:23Z</time>
      </trkpt>
      <trkpt lat="44.91213" lon="2.43322">
        <ele>622.3</ele>
        <time>2021-08-19T16:36:25Z</time>
      </trkpt>
      <trkpt lat="44.91207" lon="2.43319">
        <ele>622.2</ele>
        <time>2021-08-19T16:36:27Z</time>
      </trkpt>
      <trkpt lat="44.91202" lon="2.43318">
        <ele>622.1</ele>
        <time>2021-08-19T16:36:29Z</time>
      </trkpt>
      <trkpt lat="44.91197" lon="2.43321">
        <ele>622</ele>
        <time>2021-08-19T16:36:31Z</time>
      </trkpt>
      <trkpt lat="44.91192" lon="2.43322">
        <ele>621.8</ele>
        <time>2021-08-19T16:36:33Z</time>
      </trkpt>
      <trkpt lat="44.91187" lon="2.43321">
        <ele>621.8</ele>
        <time>2021-08-19T16:36:35Z</time>
      </trkpt>
      <trkpt lat="44.91182" lon="2.43318">
        <ele>621.7</ele>
        <time>2021-08-19T16:36:37Z</time>
      </trkpt>
      <trkpt lat="44.91177" lon="2.43315">
        <ele>621.7</ele>
        <time>2021-08-19T16:36:39Z</time>
      </trkpt>
      <trkpt lat="44.91173" lon="2.43312">
        <ele>621.6</ele>
        <time>2021-08-19T16:36:41Z</time>
      </trkpt>
      <trkpt lat="44.91169" lon="2.4331">
        <ele>621.6</ele>
        <time>2021-08-19T16:36:43Z</time>
      </trkpt>
      <trkpt lat="44.91165" lon="2.43309">
        <ele>621.5</ele>
        <time>2021-08-19T16:36:45Z</time>
      </trkpt>
      <trkpt lat="44.91161" lon="2.43307">
        <ele>621.5</ele>
        <time>2021-08-19T16:36:47Z</time>
      </trkpt>
      <trkpt lat="44.91157" lon="2.43306">
        <ele>621.4</ele>
        <time>2021-08-19T16:36:49Z</time>
      </trkpt>
      <trkpt lat="44.91156" lon="2.43307">
        <ele>621.3</ele>
        <time>2021-08-19T16:36:51Z</time>
      </trkpt>
      <trkpt lat="44.91154" lon="2.43308">
        <ele>621.2</ele>
        <time>2021-08-19T16:36:53Z</time>
      </trkpt>
      <trkpt lat="44.91152" lon="2.43311">
        <ele>621.1</ele>
        <time>2021-08-19T16:36:55Z</time>
      </trkpt>
      <trkpt lat="44.91151" lon="2.43311">
        <ele>621.1</ele>
        <time>2021-08-19T16:36:57Z</time>
      </trkpt>
      <trkpt lat="44.91151" lon="2.43311">
        <ele>621.1</ele>
        <time>2021-08-19T16:36:59Z</time>
      </trkpt>
      <trkpt lat="44.91151" lon="2.4331">
        <ele>621.1</ele>
        <time>2021-08-19T16:37:01Z</time>
      </trkpt>
      <trkpt lat="44.91151" lon="2.4331">
        <ele>621.1</ele>
        <time>2021-08-19T16:37:03Z</time>
      </trkpt>
      <trkpt lat="44.9115" lon="2.43309">
        <ele>621.1</ele>
        <time>2021-08-19T16:37:05Z</time>
      </trkpt>
    </trkseg>
      <trkpt lat="44.9116" lon="2.43292">
        <ele>621.8</ele>
        <time>2021-08-22T08:24:39Z</time>
      </trkpt>
      <trkpt lat="44.9116" lon="2.43287">
        <ele>621.9</ele>
        <time>2021-08-22T08:24:41Z</time>
      </trkpt>
      <trkpt lat="44.91162" lon="2.43281">
        <ele>622.1</ele>
        <time>2021-08-22T08:24:43Z</time>
      </trkpt>
      <trkpt lat="44.91165" lon="2.43275">
        <ele>622.4</ele>
        <time>2021-08-22T08:24:45Z</time>
      </trkpt>
      <trkpt lat="44.91167" lon="2.43268">
        <ele>622.6</ele>
        <time>2021-08-22T08:24:47Z</time>
      </trkpt>
      <trkpt lat="44.9117" lon="2.4326">
        <ele>622.8</ele>
        <time>2021-08-22T08:24:49Z</time>
      </trkpt>
      <trkpt lat="44.91172" lon="2.43254">
        <ele>623</ele>
        <time>2021-08-22T08:24:51Z</time>
      </trkpt>
      <trkpt lat="44.91175" lon="2.43246">
        <ele>623.1</ele>
        <time>2021-08-22T08:24:53Z</time>
      </trkpt>
      <trkpt lat="44.91178" lon="2.43239">
        <ele>623.1</ele>
        <time>2021-08-22T08:24:55Z</time>
      </trkpt>
      <trkpt lat="44.9118" lon="2.43233">
        <ele>623.1</ele>
        <time>2021-08-22T08:24:57Z</time>
      </trkpt>
      <trkpt lat="44.91182" lon="2.43228">
        <ele>623.1</ele>
        <time>2021-08-22T08:24:59Z</time>
      </trkpt>
      <trkpt lat="44.91184" lon="2.43223">
        <ele>623.1</ele>
        <time>2021-08-22T08:25:01Z</time>
      </trkpt>
      <trkpt lat="44.91185" lon="2.43222">
        <ele>623.1</ele>
        <time>2021-08-22T08:25:03Z</time>
      </trkpt>
      <trkpt lat="44.91186" lon="2.43221">
        <ele>623.1</ele>
        <time>2021-08-22T08:25:05Z</time>
      </trkpt>
      <trkpt lat="44.91186" lon="2.43222">
        <ele>623.1</ele>
        <time>2021-08-22T08:25:07Z</time>
      </trkpt>
      <trkpt lat="44.91186" lon="2.43222">
        <ele>623.1</ele>
        <time>2021-08-22T08:25:09Z</time>
      </trkpt>
      <trkpt lat="44.91186" lon="2.43222">
        <ele>623.1</ele>
        <time>2021-08-22T08:25:11Z</time>
      </trkpt>
      <trkpt lat="44.91188" lon="2.4322">
        <ele>623.2</ele>
        <time>2021-08-22T08:25:13Z</time>
      </trkpt>
      <trkpt lat="44.91192" lon="2.43222">
        <ele>623.3</ele>
        <time>2021-08-22T08:25:15Z</time>
      </trkpt>
      <trkpt lat="44.91197" lon="2.43226">
        <ele>623.4</ele>
        <time>2021-08-22T08:25:17Z</time>
      </trkpt>
      <trkpt lat="44.91202" lon="2.43231">
        <ele>623.5</ele>
        <time>2021-08-22T08:25:19Z</time>
      </trkpt>
      <trkpt lat="44.91208" lon="2.43235">
        <ele>623.6</ele>
        <time>2021-08-22T08:25:21Z</time>
      </trkpt>
      <trkpt lat="44.91214" lon="2.43239">
        <ele>623.7</ele>
        <time>2021-08-22T08:25:23Z</time>
      </trkpt>
      <trkpt lat="44.91219" lon="2.43244">
        <ele>623.7</ele>
        <time>2021-08-22T08:25:25Z</time>
      </trkpt>
      <trkpt lat="44.91225" lon="2.43248">
        <ele>623.7</ele>
        <time>2021-08-22T08:25:27Z</time>
      </trkpt>
      <trkpt lat="44.91231" lon="2.43252">
        <ele>623.7</ele>
        <time>2021-08-22T08:25:29Z</time>
      </trkpt>
      <trkpt lat="44.91237" lon="2.43256">
        <ele>623.8</ele>
        <time>2021-08-22T08:25:31Z</time>
      </trkpt>
      <trkpt lat="44.91243" lon="2.4326">
        <ele>623.8</ele>
        <time>2021-08-22T08:25:33Z</time>
      </trkpt>
      <trkpt lat="44.91248" lon="2.43263">
        <ele>623.8</ele>
        <time>2021-08-22T08:25:35Z</time>
      </trkpt>
      <trkpt lat="44.91254" lon="2.43267">
        <ele>623.8</ele>
        <time>2021-08-22T08:25:37Z</time>
      </trkpt>
      <trkpt lat="44.9126" lon="2.43271">
        <ele>623.8</ele>
        <time>2021-08-22T08:25:39Z</time>
      </trkpt>
      <trkpt lat="44.91266" lon="2.43275">
        <ele>623.8</ele>
        <time>2021-08-22T08:25:41Z</time>
      </trkpt>
      <trkpt lat="44.91272" lon="2.4328">
        <ele>623.7</ele>
        <time>2021-08-22T08:25:43Z</time>
      </trkpt>
      <trkpt lat="44.91278" lon="2.43284">
        <ele>623.7</ele>
        <time>2021-08-22T08:25:45Z</time>
      </trkpt>
      <trkpt lat="44.91284" lon="2.43288">
        <ele>623.7</ele>
        <time>2021-08-22T08:25:47Z</time>
      </trkpt>
      <trkpt lat="44.9129" lon="2.43292">
        <ele>623.7</ele>
        <time>2021-08-22T08:25:49Z</time>
      </trkpt>
      <trkpt lat="44.91297" lon="2.43297">
        <ele>623.8</ele>
        <time>2021-08-22T08:25:51Z</time>
      </trkpt>
      <trkpt lat="44.91302" lon="2.433">
        <ele>623.8</ele>
        <time>2021-08-22T08:25:53Z</time>
      </trkpt>
      <trkpt lat="44.91306" lon="2.43303">
        <ele>623.8</ele>
        <time>2021-08-22T08:25:55Z</time>
      </trkpt>
      <trkpt lat="44.9131" lon="2.43306">
        <ele>623.8</ele>
        <time>2021-08-22T08:25:57Z</time>
      </trkpt>
      <trkpt lat="44.91312" lon="2.43308">
        <ele>623.8</ele>
        <time>2021-08-22T08:25:59Z</time>
      </trkpt>
      <trkpt lat="44.91311" lon="2.43307">
        <ele>623.8</ele>
        <time>2021-08-22T08:26:01Z</time>
      </trkpt>
      <trkpt lat="44.91312" lon="2.43307">
        <ele>623.8</ele>
        <time>2021-08-22T08:26:03Z</time>
      </trkpt>
      <trkpt lat="44.91312" lon="2.43308">
        <ele>623.8</ele>
        <time>2021-08-22T08:26:05Z</time>
      </trkpt>
      <trkpt lat="44.91312" lon="2.43308">
        <ele>623.8</ele>
        <time>2021-08-22T08:26:07Z</time>
      </trkpt>
      <trkpt lat="44.91326" lon="2.43317">
        <ele>623.9</ele>
        <time>2021-08-22T08:26:43Z</time>
      </trkpt>
      <trkpt lat="44.91332" lon="2.43321">
        <ele>624</ele>
        <time>2021-08-22T08:26:45Z</time>
      </trkpt>
      <trkpt lat="44.91338" lon="2.43324">
        <ele>623.9</ele>
        <time>2021-08-22T08:26:47Z</time>
      </trkpt>
      <trkpt lat="44.91344" lon="2.43328">
        <ele>623.9</ele>
        <time>2021-08-22T08:26:49Z</time>
      </trkpt>
      <trkpt lat="44.91352" lon="2.43333">
        <ele>623.8</ele>
        <time>2021-08-22T08:26:51Z</time>
      </trkpt>
      <trkpt lat="44.91357" lon="2.43339">
        <ele>623.6</ele>
        <time>2021-08-22T08:26:53Z</time>
      </trkpt>
      <trkpt lat="44.91365" lon="2.43342">
        <ele>623.4</ele>
        <time>2021-08-22T08:26:55Z</time>
      </trkpt>
      <trkpt lat="44.91373" lon="2.43347">
        <ele>623.3</ele>
        <time>2021-08-22T08:26:57Z</time>
      </trkpt>
      <trkpt lat="44.9138" lon="2.43353">
        <ele>623.1</ele>
        <time>2021-08-22T08:26:59Z</time>
      </trkpt>
      <trkpt lat="44.91388" lon="2.43357">
        <ele>623</ele>
        <time>2021-08-22T08:27:01Z</time>
      </trkpt>
      <trkpt lat="44.91396" lon="2.43363">
        <ele>622.8</ele>
        <time>2021-08-22T08:27:03Z</time>
      </trkpt>
      <trkpt lat="44.91404" lon="2.43369">
        <ele>622.7</ele>
        <time>2021-08-22T08:27:05Z</time>
      </trkpt>
      <trkpt lat="44.91413" lon="2.43375">
        <ele>622.5</ele>
        <time>2021-08-22T08:27:07Z</time>
      </trkpt>
      <trkpt lat="44.91421" lon="2.43381">
        <ele>622.5</ele>
        <time>2021-08-22T08:27:09Z</time>
      </trkpt>
      <trkpt lat="44.9143" lon="2.43386">
        <ele>622.4</ele>
        <time>2021-08-22T08:27:11Z</time>
      </trkpt>
      <trkpt lat="44.91437" lon="2.43392">
        <ele>622.4</ele>
        <time>2021-08-22T08:27:13Z</time>
      </trkpt>
      <trkpt lat="44.91445" lon="2.43397">
        <ele>622.3</ele>
        <time>2021-08-22T08:27:15Z</time>
      </trkpt>
      <trkpt lat="44.91453" lon="2.43403">
        <ele>622.2</ele>
        <time>2021-08-22T08:27:17Z</time>
      </trkpt>
      <trkpt lat="44.9146" lon="2.43408">
        <ele>622.2</ele>
        <time>2021-08-22T08:27:19Z</time>
      </trkpt>
      <trkpt lat="44.91467" lon="2.43414">
        <ele>622</ele>
        <time>2021-08-22T08:27:21Z</time>
      </trkpt>
      <trkpt lat="44.91475" lon="2.43418">
        <ele>622</ele>
        <time>2021-08-22T08:27:23Z</time>
      </trkpt>
      <trkpt lat="44.91483" lon="2.43424">
        <ele>621.9</ele>
        <time>2021-08-22T08:27:25Z</time>
      </trkpt>
      <trkpt lat="44.9149" lon="2.43429">
        <ele>621.8</ele>
        <time>2021-08-22T08:27:27Z</time>
      </trkpt>
      <trkpt lat="44.91497" lon="2.43433">
        <ele>621.8</ele>
        <time>2021-08-22T08:27:29Z</time>
      </trkpt>
      <trkpt lat="44.91503" lon="2.43438">
        <ele>621.8</ele>
        <time>2021-08-22T08:27:31Z</time>
      </trkpt>
      <trkpt lat="44.91509" lon="2.43447">
        <ele>621.7</ele>
        <time>2021-08-22T08:27:33Z</time>
      </trkpt>
      <trkpt lat="44.91514" lon="2.43456">
        <ele>621.6</ele>
        <time>2021-08-22T08:27:35Z</time>
      </trkpt>
      <trkpt lat="44.9152" lon="2.43465">
        <ele>621.5</ele>
        <time>2021-08-22T08:27:37Z</time>
      </trkpt>
      <trkpt lat="44.91527" lon="2.43475">
        <ele>621.3</ele>
        <time>2021-08-22T08:27:39Z</time>
      </trkpt>
      <trkpt lat="44.91532" lon="2.43484">
        <ele>621</ele>
        <time>2021-08-22T08:27:41Z</time>
      </trkpt>
      <trkpt lat="44.91541" lon="2.4349">
        <ele>620.8</ele>
        <time>2021-08-22T08:27:43Z</time>
      </trkpt>
      <trkpt lat="44.91538" lon="2.43501">
        <ele>620.5</ele>
        <time>2021-08-22T08:27:45Z</time>
      </trkpt>
      <trkpt lat="44.91537" lon="2.43492">
        <ele>620.8</ele>
        <time>2021-08-22T08:27:47Z</time>
      </trkpt>
      <trkpt lat="44.91537" lon="2.43496">
        <ele>620.7</ele>
        <time>2021-08-22T08:27:49Z</time>
      </trkpt>
      <trkpt lat="44.91538" lon="2.43497">
        <ele>620.6</ele>
        <time>2021-08-22T08:27:51Z</time>
      </trkpt>
      <trkpt lat="44.91538" lon="2.43497">
        <ele>620.6</ele>
        <time>2021-08-22T08:27:53Z</time>
      </trkpt>
      <trkpt lat="44.91538" lon="2.43497">
        <ele>620.6</ele>
        <time>2021-08-22T08:27:55Z</time>
      </trkpt>
      <trkpt lat="44.91538" lon="2.43497">
        <ele>620.6</ele>
        <time>2021-08-22T08:27:57Z</time>
      </trkpt>
      <trkpt lat="44.91561" lon="2.43529">
        <ele>620.1</ele>
        <time>2021-08-22T08:33:07Z</time>
      </trkpt>
      <trkpt lat="44.91565" lon="2.43536">
        <ele>620</ele>
        <time>2021-08-22T08:33:09Z</time>
      </trkpt>
      <trkpt lat="44.91569" lon="2.43542">
        <ele>620</ele>
        <time>2021-08-22T08:33:11Z</time>
      </trkpt>
      <trkpt lat="44.91573" lon="2.4355">
        <ele>620</ele>
        <time>2021-08-22T08:33:13Z</time>
      </trkpt>
      <trkpt lat="44.91577" lon="2.43558">
        <ele>620</ele>
        <time>2021-08-22T08:33:15Z</time>
      </trkpt>
      <trkpt lat="44.91583" lon="2.43567">
        <ele>620</ele>
        <time>2021-08-22T08:33:17Z</time>
      </trkpt>
      <trkpt lat="44.91588" lon="2.43576">
        <ele>620</ele>
        <time>2021-08-22T08:33:19Z</time>
      </trkpt>
      <trkpt lat="44.91593" lon="2.43586">
        <ele>619.9</ele>
        <time>2021-08-22T08:33:21Z</time>
      </trkpt>
      <trkpt lat="44.91598" lon="2.43595">
        <ele>619.5</ele>
        <time>2021-08-22T08:33:23Z</time>
      </trkpt>
      <trkpt lat="44.91604" lon="2.43606">
        <ele>619.1</ele>
        <time>2021-08-22T08:33:25Z</time>
      </trkpt>
      <trkpt lat="44.91609" lon="2.43616">
        <ele>618.7</ele>
        <time>2021-08-22T08:33:27Z</time>
      </trkpt>
      <trkpt lat="44.91615" lon="2.43626">
        <ele>618.3</ele>
        <time>2021-08-22T08:33:29Z</time>
      </trkpt>
      <trkpt lat="44.9162" lon="2.43635">
        <ele>617.9</ele>
        <time>2021-08-22T08:33:31Z</time>
      </trkpt>
      <trkpt lat="44.91625" lon="2.43643">
        <ele>617.5</ele>
        <time>2021-08-22T08:33:33Z</time>
      </trkpt>
      <trkpt lat="44.91631" lon="2.4365">
        <ele>617.1</ele>
        <time>2021-08-22T08:33:35Z</time>
      </trkpt>
      <trkpt lat="44.91638" lon="2.43657">
        <ele>616.8</ele>
        <time>2021-08-22T08:33:37Z</time>
      </trkpt>
      <trkpt lat="44.91643" lon="2.43663">
        <ele>616.5</ele>
        <time>2021-08-22T08:33:39Z</time>
      </trkpt>
      <trkpt lat="44.91648" lon="2.43669">
        <ele>616.1</ele>
        <time>2021-08-22T08:33:41Z</time>
      </trkpt>
      <trkpt lat="44.91653" lon="2.43676">
        <ele>615.8</ele>
        <time>2021-08-22T08:33:43Z</time>
      </trkpt>
      <trkpt lat="44.9166" lon="2.43682">
        <ele>615.5</ele>
        <time>2021-08-22T08:33:45Z</time>
      </trkpt>
      <trkpt lat="44.91666" lon="2.43687">
        <ele>615.3</ele>
        <time>2021-08-22T08:33:47Z</time>
      </trkpt>
      <trkpt lat="44.91672" lon="2.43692">
        <ele>615.4</ele>
        <time>2021-08-22T08:33:49Z</time>
      </trkpt>
      <trkpt lat="44.91679" lon="2.43699">
        <ele>615.5</ele>
        <time>2021-08-22T08:33:51Z</time>
      </trkpt>
      <trkpt lat="44.91685" lon="2.43706">
        <ele>615.5</ele>
        <time>2021-08-22T08:33:53Z</time>
      </trkpt>
      <trkpt lat="44.91693" lon="2.43713">
        <ele>615.6</ele>
        <time>2021-08-22T08:33:55Z</time>
      </trkpt>
      <trkpt lat="44.91701" lon="2.4372">
        <ele>615.6</ele>
        <time>2021-08-22T08:33:57Z</time>
      </trkpt>
      <trkpt lat="44.91708" lon="2.43727">
        <ele>615.6</ele>
        <time>2021-08-22T08:33:59Z</time>
      </trkpt>
      <trkpt lat="44.91717" lon="2.43734">
        <ele>615.6</ele>
        <time>2021-08-22T08:34:01Z</time>
      </trkpt>
      <trkpt lat="44.91725" lon="2.43742">
        <ele>615.5</ele>
        <time>2021-08-22T08:34:03Z</time>
      </trkpt>
      <trkpt lat="44.91734" lon="2.4375">
        <ele>615.4</ele>
        <time>2021-08-22T08:34:05Z</time>
      </trkpt>
      <trkpt lat="44.91743" lon="2.43757">
        <ele>615.4</ele>
        <time>2021-08-22T08:34:07Z</time>
      </trkpt>
      <trkpt lat="44.91751" lon="2.43764">
        <ele>615.3</ele>
        <time>2021-08-22T08:34:09Z</time>
      </trkpt>
      <trkpt lat="44.91759" lon="2.4377">
        <ele>615.2</ele>
        <time>2021-08-22T08:34:11Z</time>
      </trkpt>
      <trkpt lat="44.91765" lon="2.43777">
        <ele>614.9</ele>
        <time>2021-08-22T08:34:13Z</time>
      </trkpt>
      <trkpt lat="44.91773" lon="2.43783">
        <ele>614.8</ele>
        <time>2021-08-22T08:34:15Z</time>
      </trkpt>
      <trkpt lat="44.9178" lon="2.43788">
        <ele>614.7</ele>
        <time>2021-08-22T08:34:17Z</time>
      </trkpt>
      <trkpt lat="44.91788" lon="2.43795">
        <ele>614.6</ele>
        <time>2021-08-22T08:34:19Z</time>
      </trkpt>
      <trkpt lat="44.91796" lon="2.43803">
        <ele>614.4</ele>
        <time>2021-08-22T08:34:21Z</time>
      </trkpt>
      <trkpt lat="44.91805" lon="2.43811">
        <ele>614.2</ele>
        <time>2021-08-22T08:34:23Z</time>
      </trkpt>
      <trkpt lat="44.91814" lon="2.4382">
        <ele>614.1</ele>
        <time>2021-08-22T08:34:25Z</time>
      </trkpt>
      <trkpt lat="44.91823" lon="2.43828">
        <ele>614</ele>
        <time>2021-08-22T08:34:27Z</time>
      </trkpt>
      <trkpt lat="44.91832" lon="2.43837">
        <ele>613.8</ele>
        <time>2021-08-22T08:34:29Z</time>
      </trkpt>
      <trkpt lat="44.9184" lon="2.43844">
        <ele>613.8</ele>
        <time>2021-08-22T08:34:31Z</time>
      </trkpt>
      <trkpt lat="44.91845" lon="2.43848">
        <ele>613.8</ele>
        <time>2021-08-22T08:34:33Z</time>
      </trkpt>
      <trkpt lat="44.91844" lon="2.43853">
        <ele>613.6</ele>
        <time>2021-08-22T08:34:35Z</time>
      </trkpt>
      <trkpt lat="44.91841" lon="2.43855">
        <ele>613.4</ele>
        <time>2021-08-22T08:34:37Z</time>
      </trkpt>
      <trkpt lat="44.9184" lon="2.43857">
        <ele>613.3</ele>
        <time>2021-08-22T08:34:39Z</time>
      </trkpt>
      <trkpt lat="44.91835" lon="2.4386">
        <ele>613.1</ele>
        <time>2021-08-22T08:34:41Z</time>
      </trkpt>
      <trkpt lat="44.91832" lon="2.43864">
        <ele>612.9</ele>
        <time>2021-08-22T08:34:43Z</time>
      </trkpt>
      <trkpt lat="44.91829" lon="2.43867">
        <ele>612.7</ele>
        <time>2021-08-22T08:34:45Z</time>
      </trkpt>
      <trkpt lat="44.91824" lon="2.43871">
        <ele>612.4</ele>
        <time>2021-08-22T08:34:47Z</time>
      </trkpt>
      <trkpt lat="44.91817" lon="2.43875">
        <ele>612.1</ele>
        <time>2021-08-22T08:34:49Z</time>
      </trkpt>
      <trkpt lat="44.91809" lon="2.4388">
        <ele>611.7</ele>
        <time>2021-08-22T08:34:51Z</time>
      </trkpt>
      <trkpt lat="44.918" lon="2.43884">
        <ele>611.4</ele>
        <time>2021-08-22T08:34:53Z</time>
      </trkpt>
      <trkpt lat="44.91792" lon="2.43889">
        <ele>611</ele>
        <time>2021-08-22T08:34:55Z</time>
      </trkpt>
      <trkpt lat="44.91784" lon="2.43894">
        <ele>610.6</ele>
        <time>2021-08-22T08:34:57Z</time>
      </trkpt>
      <trkpt lat="44.91774" lon="2.43899">
        <ele>610.2</ele>
        <time>2021-08-22T08:34:59Z</time>
      </trkpt>
      <trkpt lat="44.91765" lon="2.43904">
        <ele>609.8</ele>
        <time>2021-08-22T08:35:01Z</time>
      </trkpt>
      <trkpt lat="44.91756" lon="2.43909">
        <ele>609.4</ele>
        <time>2021-08-22T08:35:03Z</time>
      </trkpt>
      <trkpt lat="44.91747" lon="2.43913">
        <ele>609.2</ele>
        <time>2021-08-22T08:35:05Z</time>
      </trkpt>
      <trkpt lat="44.91737" lon="2.43918">
        <ele>609.4</ele>
        <time>2021-08-22T08:35:07Z</time>
      </trkpt>
      <trkpt lat="44.91728" lon="2.43924">
        <ele>609.6</ele>
        <time>2021-08-22T08:35:09Z</time>
      </trkpt>
      <trkpt lat="44.91718" lon="2.43929">
        <ele>609.7</ele>
        <time>2021-08-22T08:35:11Z</time>
      </trkpt>
      <trkpt lat="44.91709" lon="2.43933">
        <ele>609.9</ele>
        <time>2021-08-22T08:35:13Z</time>
      </trkpt>
      <trkpt lat="44.91699" lon="2.43939">
        <ele>610</ele>
        <time>2021-08-22T08:35:15Z</time>
      </trkpt>
      <trkpt lat="44.9169" lon="2.43944">
        <ele>610</ele>
        <time>2021-08-22T08:35:17Z</time>
      </trkpt>
      <trkpt lat="44.91681" lon="2.43949">
        <ele>610.1</ele>
        <time>2021-08-22T08:35:19Z</time>
      </trkpt>
      <trkpt lat="44.91671" lon="2.43955">
        <ele>610.1</ele>
        <time>2021-08-22T08:35:21Z</time>
      </trkpt>
      <trkpt lat="44.91661" lon="2.4396">
        <ele>609.9</ele>
        <time>2021-08-22T08:35:23Z</time>
      </trkpt>
      <trkpt lat="44.91652" lon="2.43965">
        <ele>609.6</ele>
        <time>2021-08-22T08:35:25Z</time>
      </trkpt>
      <trkpt lat="44.91642" lon="2.4397">
        <ele>609.3</ele>
        <time>2021-08-22T08:35:27Z</time>
      </trkpt>
      <trkpt lat="44.91632" lon="2.43975">
        <ele>609.1</ele>
        <time>2021-08-22T08:35:29Z</time>
      </trkpt>
      <trkpt lat="44.91623" lon="2.4398">
        <ele>608.9</ele>
        <time>2021-08-22T08:35:31Z</time>
      </trkpt>
      <trkpt lat="44.91613" lon="2.43985">
        <ele>608.6</ele>
        <time>2021-08-22T08:35:33Z</time>
      </trkpt>
      <trkpt lat="44.91602" lon="2.4399">
        <ele>608.4</ele>
        <time>2021-08-22T08:35:35Z</time>
      </trkpt>
      <trkpt lat="44.91591" lon="2.43994">
        <ele>608.2</ele>
        <time>2021-08-22T08:35:37Z</time>
      </trkpt>
      <trkpt lat="44.9158" lon="2.44002">
        <ele>607.9</ele>
        <time>2021-08-22T08:35:39Z</time>
      </trkpt>
      <trkpt lat="44.9157" lon="2.44008">
        <ele>607.7</ele>
        <time>2021-08-22T08:35:41Z</time>
      </trkpt>
      <trkpt lat="44.91559" lon="2.44015">
        <ele>607.5</ele>
        <time>2021-08-22T08:35:43Z</time>
      </trkpt>
      <trkpt lat="44.91549" lon="2.44021">
        <ele>607.3</ele>
        <time>2021-08-22T08:35:45Z</time>
      </trkpt>
      <trkpt lat="44.91538" lon="2.44027">
        <ele>607.1</ele>
        <time>2021-08-22T08:35:47Z</time>
      </trkpt>
      <trkpt lat="44.91528" lon="2.44033">
        <ele>606.9</ele>
        <time>2021-08-22T08:35:49Z</time>
      </trkpt>
      <trkpt lat="44.91519" lon="2.44036">
        <ele>606.8</ele>
        <time>2021-08-22T08:35:51Z</time>
      </trkpt>
      <trkpt lat="44.91509" lon="2.44037">
        <ele>606.6</ele>
        <time>2021-08-22T08:35:53Z</time>
      </trkpt>
      <trkpt lat="44.91504" lon="2.44024">
        <ele>606.4</ele>
        <time>2021-08-22T08:35:55Z</time>
      </trkpt>
      <trkpt lat="44.91504" lon="2.4401">
        <ele>606.2</ele>
        <time>2021-08-22T08:35:57Z</time>
      </trkpt>
      <trkpt lat="44.9151" lon="2.44">
        <ele>606.2</ele>
        <time>2021-08-22T08:35:59Z</time>
      </trkpt>
      <trkpt lat="44.91514" lon="2.43991">
        <ele>606.6</ele>
        <time>2021-08-22T08:36:01Z</time>
      </trkpt>
      <trkpt lat="44.91518" lon="2.43982">
        <ele>606.9</ele>
        <time>2021-08-22T08:36:03Z</time>
      </trkpt>
      <trkpt lat="44.91521" lon="2.43973">
        <ele>607.3</ele>
        <time>2021-08-22T08:36:05Z</time>
      </trkpt>
      <trkpt lat="44.91525" lon="2.43964">
        <ele>607.6</ele>
        <time>2021-08-22T08:36:07Z</time>
      </trkpt>
      <trkpt lat="44.91529" lon="2.43955">
        <ele>608</ele>
        <time>2021-08-22T08:36:09Z</time>
      </trkpt>
      <trkpt lat="44.91529" lon="2.43945">
        <ele>608.2</ele>
        <time>2021-08-22T08:36:11Z</time>
      </trkpt>
      <trkpt lat="44.91526" lon="2.43936">
        <ele>608.4</ele>
        <time>2021-08-22T08:36:13Z</time>
      </trkpt>
      <trkpt lat="44.91525" lon="2.43927">
        <ele>608.6</ele>
        <time>2021-08-22T08:36:15Z</time>
      </trkpt>
      <trkpt lat="44.91524" lon="2.43918">
        <ele>608.8</ele>
        <time>2021-08-22T08:36:17Z</time>
      </trkpt>
      <trkpt lat="44.91522" lon="2.4391">
        <ele>609</ele>
        <time>2021-08-22T08:36:19Z</time>
      </trkpt>
      <trkpt lat="44.91518" lon="2.43905">
        <ele>609</ele>
        <time>2021-08-22T08:36:21Z</time>
      </trkpt>
      <trkpt lat="44.91514" lon="2.43898">
        <ele>609.1</ele>
        <time>2021-08-22T08:36:23Z</time>
      </trkpt>
      <trkpt lat="44.9151" lon="2.43893">
        <ele>609.1</ele>
        <time>2021-08-22T08:36:25Z</time>
      </trkpt>
      <trkpt lat="44.91505" lon="2.43891">
        <ele>609.1</ele>
        <time>2021-08-22T08:36:27Z</time>
      </trkpt>
      <trkpt lat="44.91504" lon="2.43887">
        <ele>609.1</ele>
        <time>2021-08-22T08:36:29Z</time>
      </trkpt>
      <trkpt lat="44.91503" lon="2.43887">
        <ele>609.1</ele>
        <time>2021-08-22T08:36:31Z</time>
      </trkpt>
      <trkpt lat="44.91503" lon="2.43887">
        <ele>609.1</ele>
        <time>2021-08-22T08:36:33Z</time>
      </trkpt>
      <trkpt lat="44.91503" lon="2.43887">
        <ele>609.2</ele>
        <time>2021-08-22T08:36:35Z</time>
      </trkpt>
      <trkpt lat="44.91502" lon="2.43886">
        <ele>609.1</ele>
        <time>2021-08-22T08:36:37Z</time>
      </trkpt>
      <trkpt lat="44.915" lon="2.43887">
        <ele>609.1</ele>
        <time>2021-08-22T08:36:39Z</time>
      </trkpt>
      <trkpt lat="44.91498" lon="2.43887">
        <ele>609.1</ele>
        <time>2021-08-22T08:36:41Z</time>
      </trkpt>
      <trkpt lat="44.91497" lon="2.43887">
        <ele>609</ele>
        <time>2021-08-22T08:36:43Z</time>
      </trkpt>
      <trkpt lat="44.91497" lon="2.43887">
        <ele>609</ele>
        <time>2021-08-22T08:36:45Z</time>
      </trkpt>
      <trkpt lat="44.91497" lon="2.43887">
        <ele>609</ele>
        <time>2021-08-22T08:36:47Z</time>
      </trkpt>
      <trkpt lat="44.91496" lon="2.43887">
        <ele>609</ele>
        <time>2021-08-22T08:36:49Z</time>
      </trkpt>
      <trkpt lat="44.91503" lon="2.43895">
        <ele>608.9</ele>
        <time>2021-08-22T08:56:21Z</time>
      </trkpt>
      <trkpt lat="44.91508" lon="2.43892">
        <ele>609.1</ele>
        <time>2021-08-22T08:56:23Z</time>
      </trkpt>
      <trkpt lat="44.91512" lon="2.43892">
        <ele>609.2</ele>
        <time>2021-08-22T08:56:25Z</time>
      </trkpt>
      <trkpt lat="44.91516" lon="2.43891">
        <ele>609.3</ele>
        <time>2021-08-22T08:56:27Z</time>
      </trkpt>
      <trkpt lat="44.91521" lon="2.4389">
        <ele>609.5</ele>
        <time>2021-08-22T08:56:29Z</time>
      </trkpt>
      <trkpt lat="44.91526" lon="2.43888">
        <ele>609.6</ele>
        <time>2021-08-22T08:56:31Z</time>
      </trkpt>
      <trkpt lat="44.9153" lon="2.43887">
        <ele>609.8</ele>
        <time>2021-08-22T08:56:33Z</time>
      </trkpt>
      <trkpt lat="44.91532" lon="2.43887">
        <ele>609.8</ele>
        <time>2021-08-22T08:56:35Z</time>
      </trkpt>
      <trkpt lat="44.91534" lon="2.43883">
        <ele>609.9</ele>
        <time>2021-08-22T08:56:37Z</time>
      </trkpt>
      <trkpt lat="44.91535" lon="2.43878">
        <ele>610.1</ele>
        <time>2021-08-22T08:56:39Z</time>
      </trkpt>
      <trkpt lat="44.91538" lon="2.43879">
        <ele>610.1</ele>
        <time>2021-08-22T08:56:41Z</time>
      </trkpt>
      <trkpt lat="44.91537" lon="2.4388">
        <ele>610.1</ele>
        <time>2021-08-22T08:56:43Z</time>
      </trkpt>
      <trkpt lat="44.91537" lon="2.4388">
        <ele>610.1</ele>
        <time>2021-08-22T08:56:45Z</time>
      </trkpt>
      <trkpt lat="44.91537" lon="2.4388">
        <ele>610.1</ele>
        <time>2021-08-22T08:56:47Z</time>
      </trkpt>
      <trkpt lat="44.91538" lon="2.4388">
        <ele>610.1</ele>
        <time>2021-08-22T08:56:49Z</time>
      </trkpt>
      <trkpt lat="44.91541" lon="2.43882">
        <ele>610.1</ele>
        <time>2021-08-22T08:57:11Z</time>
      </trkpt>
      <trkpt lat="44.91541" lon="2.43882">
        <ele>610.1</ele>
        <time>2021-08-22T08:57:13Z</time>
      </trkpt>
      <trkpt lat="44.91541" lon="2.43883">
        <ele>610.1</ele>
        <time>2021-08-22T08:57:15Z</time>
      </trkpt>
      <trkpt lat="44.91543" lon="2.43884">
        <ele>610.1</ele>
        <time>2021-08-22T08:57:17Z</time>
      </trkpt>
      <trkpt lat="44.91545" lon="2.43883">
        <ele>610.2</ele>
        <time>2021-08-22T08:57:19Z</time>
      </trkpt>
      <trkpt lat="44.91547" lon="2.43879">
        <ele>610.3</ele>
        <time>2021-08-22T08:57:21Z</time>
      </trkpt>
      <trkpt lat="44.91549" lon="2.43875">
        <ele>610.4</ele>
        <time>2021-08-22T08:57:23Z</time>
      </trkpt>
      <trkpt lat="44.91551" lon="2.43872">
        <ele>610.5</ele>
        <time>2021-08-22T08:57:25Z</time>
      </trkpt>
      <trkpt lat="44.91553" lon="2.43868">
        <ele>610.5</ele>
        <time>2021-08-22T08:57:27Z</time>
      </trkpt>
      <trkpt lat="44.91551" lon="2.43863">
        <ele>610.6</ele>
        <time>2021-08-22T08:57:29Z</time>
      </trkpt>
      <trkpt lat="44.9155" lon="2.43861">
        <ele>610.6</ele>
        <time>2021-08-22T08:57:31Z</time>
      </trkpt>
      <trkpt lat="44.91549" lon="2.43862">
        <ele>610.6</ele>
        <time>2021-08-22T08:57:33Z</time>
      </trkpt>
      <trkpt lat="44.91549" lon="2.43861">
        <ele>610.6</ele>
        <time>2021-08-22T08:57:35Z</time>
      </trkpt>
      <trkpt lat="44.91548" lon="2.43861">
        <ele>610.6</ele>
        <time>2021-08-22T08:57:37Z</time>
      </trkpt>
      <trkpt lat="44.91548" lon="2.43861">
        <ele>610.6</ele>
        <time>2021-08-22T08:57:39Z</time>
      </trkpt>
      <trkpt lat="44.91544" lon="2.43872">
        <ele>610.4</ele>
        <time>2021-08-22T09:03:03Z</time>
      </trkpt>
      <trkpt lat="44.91546" lon="2.43875">
        <ele>610.3</ele>
        <time>2021-08-22T09:03:05Z</time>
      </trkpt>
      <trkpt lat="44.91546" lon="2.43878">
        <ele>610.3</ele>
        <time>2021-08-22T09:03:07Z</time>
      </trkpt>
      <trkpt lat="44.91545" lon="2.43882">
        <ele>610.2</ele>
        <time>2021-08-22T09:03:09Z</time>
      </trkpt>
      <trkpt lat="44.91545" lon="2.43887">
        <ele>610.1</ele>
        <time>2021-08-22T09:03:11Z</time>
      </trkpt>
      <trkpt lat="44.91547" lon="2.43892">
        <ele>610.1</ele>
        <time>2021-08-22T09:03:13Z</time>
      </trkpt>
      <trkpt lat="44.91546" lon="2.43898">
        <ele>609.9</ele>
        <time>2021-08-22T09:03:15Z</time>
      </trkpt>
      <trkpt lat="44.91544" lon="2.43904">
        <ele>609.8</ele>
        <time>2021-08-22T09:03:17Z</time>
      </trkpt>
      <trkpt lat="44.91542" lon="2.43911">
        <ele>609.6</ele>
        <time>2021-08-22T09:03:19Z</time>
      </trkpt>
      <trkpt lat="44.91539" lon="2.43918">
        <ele>609.4</ele>
        <time>2021-08-22T09:03:21Z</time>
      </trkpt>
      <trkpt lat="44.91536" lon="2.43926">
        <ele>609</ele>
        <time>2021-08-22T09:03:23Z</time>
      </trkpt>
      <trkpt lat="44.91532" lon="2.43935">
        <ele>608.6</ele>
        <time>2021-08-22T09:03:25Z</time>
      </trkpt>
      <trkpt lat="44.91528" lon="2.43944">
        <ele>608.2</ele>
        <time>2021-08-22T09:03:27Z</time>
      </trkpt>
      <trkpt lat="44.91525" lon="2.43954">
        <ele>607.9</ele>
        <time>2021-08-22T09:03:29Z</time>
      </trkpt>
      <trkpt lat="44.91521" lon="2.43964">
        <ele>607.5</ele>
        <time>2021-08-22T09:03:31Z</time>
      </trkpt>
      <trkpt lat="44.91517" lon="2.43974">
        <ele>607.1</ele>
        <time>2021-08-22T09:03:33Z</time>
      </trkpt>
      <trkpt lat="44.91512" lon="2.43984">
        <ele>606.7</ele>
        <time>2021-08-22T09:03:35Z</time>
      </trkpt>
      <trkpt lat="44.91509" lon="2.43994">
        <ele>606.4</ele>
        <time>2021-08-22T09:03:37Z</time>
      </trkpt>
      <trkpt lat="44.91505" lon="2.44003">
        <ele>606.2</ele>
        <time>2021-08-22T09:03:39Z</time>
      </trkpt>
      <trkpt lat="44.91501" lon="2.44013">
        <ele>606.2</ele>
        <time>2021-08-22T09:03:41Z</time>
      </trkpt>
      <trkpt lat="44.91497" lon="2.44021">
        <ele>606.2</ele>
        <time>2021-08-22T09:03:43Z</time>
      </trkpt>
      <trkpt lat="44.91491" lon="2.4403">
        <ele>606.2</ele>
        <time>2021-08-22T09:03:45Z</time>
      </trkpt>
      <trkpt lat="44.9149" lon="2.44041">
        <ele>606.3</ele>
        <time>2021-08-22T09:03:47Z</time>
      </trkpt>
      <trkpt lat="44.91495" lon="2.4405">
        <ele>606.5</ele>
        <time>2021-08-22T09:03:49Z</time>
      </trkpt>
      <trkpt lat="44.91503" lon="2.44051">
        <ele>606.7</ele>
        <time>2021-08-22T09:03:51Z</time>
      </trkpt>
      <trkpt lat="44.91511" lon="2.44047">
        <ele>606.7</ele>
        <time>2021-08-22T09:03:53Z</time>
      </trkpt>
      <trkpt lat="44.91518" lon="2.44043">
        <ele>606.8</ele>
        <time>2021-08-22T09:03:55Z</time>
      </trkpt>
      <trkpt lat="44.91526" lon="2.4404">
        <ele>607</ele>
        <time>2021-08-22T09:03:57Z</time>
      </trkpt>
      <trkpt lat="44.91533" lon="2.44036">
        <ele>607.1</ele>
        <time>2021-08-22T09:03:59Z</time>
      </trkpt>
      <trkpt lat="44.91541" lon="2.44032">
        <ele>607.2</ele>
        <time>2021-08-22T09:04:01Z</time>
      </trkpt>
      <trkpt lat="44.91548" lon="2.44028">
        <ele>607.3</ele>
        <time>2021-08-22T09:04:03Z</time>
      </trkpt>
      <trkpt lat="44.91556" lon="2.44023">
        <ele>607.4</ele>
        <time>2021-08-22T09:04:05Z</time>
      </trkpt>
      <trkpt lat="44.91563" lon="2.44019">
        <ele>607.6</ele>
        <time>2021-08-22T09:04:07Z</time>
      </trkpt>
      <trkpt lat="44.91571" lon="2.44015">
        <ele>607.7</ele>
        <time>2021-08-22T09:04:09Z</time>
      </trkpt>
      <trkpt lat="44.91577" lon="2.44011">
        <ele>607.9</ele>
        <time>2021-08-22T09:04:11Z</time>
      </trkpt>
      <trkpt lat="44.91585" lon="2.44006">
        <ele>608</ele>
        <time>2021-08-22T09:04:13Z</time>
      </trkpt>
      <trkpt lat="44.91592" lon="2.44002">
        <ele>608</ele>
        <time>2021-08-22T09:04:15Z</time>
      </trkpt>
      <trkpt lat="44.91599" lon="2.43999">
        <ele>608</ele>
        <time>2021-08-22T09:04:17Z</time>
      </trkpt>
      <trkpt lat="44.91605" lon="2.43995">
        <ele>608.2</ele>
        <time>2021-08-22T09:04:19Z</time>
      </trkpt>
      <trkpt lat="44.91612" lon="2.43991">
        <ele>608.4</ele>
        <time>2021-08-22T09:04:21Z</time>
      </trkpt>
      <trkpt lat="44.91619" lon="2.43987">
        <ele>608.5</ele>
        <time>2021-08-22T09:04:23Z</time>
      </trkpt>
      <trkpt lat="44.91625" lon="2.43984">
        <ele>608.7</ele>
        <time>2021-08-22T09:04:25Z</time>
      </trkpt>
      <trkpt lat="44.91631" lon="2.43981">
        <ele>608.8</ele>
        <time>2021-08-22T09:04:27Z</time>
      </trkpt>
      <trkpt lat="44.91635" lon="2.4398">
        <ele>608.9</ele>
        <time>2021-08-22T09:04:29Z</time>
      </trkpt>
      <trkpt lat="44.91638" lon="2.4398">
        <ele>608.9</ele>
        <time>2021-08-22T09:04:31Z</time>
      </trkpt>
      <trkpt lat="44.91639" lon="2.4398">
        <ele>608.9</ele>
        <time>2021-08-22T09:04:33Z</time>
      </trkpt>
      <trkpt lat="44.91639" lon="2.4398">
        <ele>608.9</ele>
        <time>2021-08-22T09:04:35Z</time>
      </trkpt>
      <trkpt lat="44.91639" lon="2.4398">
        <ele>608.9</ele>
        <time>2021-08-22T09:04:37Z</time>
      </trkpt>
      <trkpt lat="44.91639" lon="2.4398">
        <ele>608.9</ele>
        <time>2021-08-22T09:04:39Z</time>
      </trkpt>
      <trkpt lat="44.91639" lon="2.4398">
        <ele>608.9</ele>
        <time>2021-08-22T09:04:41Z</time>
      </trkpt>
      <trkpt lat="44.91653" lon="2.43967">
        <ele>609.5</ele>
        <time>2021-08-22T09:05:13Z</time>
      </trkpt>
      <trkpt lat="44.91658" lon="2.43964">
        <ele>609.7</ele>
        <time>2021-08-22T09:05:15Z</time>
      </trkpt>
      <trkpt lat="44.91665" lon="2.43961">
        <ele>609.9</ele>
        <time>2021-08-22T09:05:17Z</time>
      </trkpt>
      <trkpt lat="44.91671" lon="2.43958">
        <ele>609.9</ele>
        <time>2021-08-22T09:05:19Z</time>
      </trkpt>
      <trkpt lat="44.91677" lon="2.43955">
        <ele>609.9</ele>
        <time>2021-08-22T09:05:21Z</time>
      </trkpt>
      <trkpt lat="44.91683" lon="2.43952">
        <ele>609.9</ele>
        <time>2021-08-22T09:05:23Z</time>
      </trkpt>
      <trkpt lat="44.91689" lon="2.43948">
        <ele>609.9</ele>
        <time>2021-08-22T09:05:25Z</time>
      </trkpt>
      <trkpt lat="44.91696" lon="2.43945">
        <ele>609.8</ele>
        <time>2021-08-22T09:05:27Z</time>
      </trkpt>
      <trkpt lat="44.91702" lon="2.43941">
        <ele>609.8</ele>
        <time>2021-08-22T09:05:29Z</time>
      </trkpt>
      <trkpt lat="44.91709" lon="2.43938">
        <ele>609.7</ele>
        <time>2021-08-22T09:05:31Z</time>
      </trkpt>
      <trkpt lat="44.91717" lon="2.43934">
        <ele>609.6</ele>
        <time>2021-08-22T09:05:33Z</time>
      </trkpt>
      <trkpt lat="44.91724" lon="2.4393">
        <ele>609.5</ele>
        <time>2021-08-22T09:05:35Z</time>
      </trkpt>
      <trkpt lat="44.91732" lon="2.43926">
        <ele>609.4</ele>
        <time>2021-08-22T09:05:37Z</time>
      </trkpt>
      <trkpt lat="44.91739" lon="2.43922">
        <ele>609.2</ele>
        <time>2021-08-22T09:05:39Z</time>
      </trkpt>
      <trkpt lat="44.91747" lon="2.43918">
        <ele>609.1</ele>
        <time>2021-08-22T09:05:41Z</time>
      </trkpt>
      <trkpt lat="44.91754" lon="2.43914">
        <ele>609.2</ele>
        <time>2021-08-22T09:05:43Z</time>
      </trkpt>
      <trkpt lat="44.91762" lon="2.4391">
        <ele>609.5</ele>
        <time>2021-08-22T09:05:45Z</time>
      </trkpt>
      <trkpt lat="44.91769" lon="2.43906">
        <ele>609.8</ele>
        <time>2021-08-22T09:05:47Z</time>
      </trkpt>
      <trkpt lat="44.91776" lon="2.43902">
        <ele>610.1</ele>
        <time>2021-08-22T09:05:49Z</time>
      </trkpt>
      <trkpt lat="44.91782" lon="2.43897">
        <ele>610.5</ele>
        <time>2021-08-22T09:05:51Z</time>
      </trkpt>
      <trkpt lat="44.91789" lon="2.43894">
        <ele>610.8</ele>
        <time>2021-08-22T09:05:53Z</time>
      </trkpt>
      <trkpt lat="44.91795" lon="2.43889">
        <ele>611.1</ele>
        <time>2021-08-22T09:05:55Z</time>
      </trkpt>
      <trkpt lat="44.91802" lon="2.43884">
        <ele>611.4</ele>
        <time>2021-08-22T09:05:57Z</time>
      </trkpt>
      <trkpt lat="44.91808" lon="2.4388">
        <ele>611.7</ele>
        <time>2021-08-22T09:05:59Z</time>
      </trkpt>
      <trkpt lat="44.91812" lon="2.43878">
        <ele>611.9</ele>
        <time>2021-08-22T09:06:01Z</time>
      </trkpt>
      <trkpt lat="44.91818" lon="2.43876">
        <ele>612.1</ele>
        <time>2021-08-22T09:06:03Z</time>
      </trkpt>
      <trkpt lat="44.91821" lon="2.43872">
        <ele>612.3</ele>
        <time>2021-08-22T09:06:05Z</time>
      </trkpt>
      <trkpt lat="44.91824" lon="2.43868">
        <ele>612.5</ele>
        <time>2021-08-22T09:06:07Z</time>
      </trkpt>
      <trkpt lat="44.91826" lon="2.43866">
        <ele>612.7</ele>
        <time>2021-08-22T09:06:09Z</time>
      </trkpt>
      <trkpt lat="44.91829" lon="2.43864">
        <ele>612.8</ele>
        <time>2021-08-22T09:06:11Z</time>
      </trkpt>
      <trkpt lat="44.91832" lon="2.43862">
        <ele>612.9</ele>
        <time>2021-08-22T09:06:13Z</time>
      </trkpt>
      <trkpt lat="44.91834" lon="2.43861">
        <ele>613</ele>
        <time>2021-08-22T09:06:15Z</time>
      </trkpt>
      <trkpt lat="44.91834" lon="2.43861">
        <ele>613</ele>
        <time>2021-08-22T09:06:17Z</time>
      </trkpt>
      <trkpt lat="44.91834" lon="2.4386">
        <ele>613</ele>
        <time>2021-08-22T09:06:19Z</time>
      </trkpt>
      <trkpt lat="44.91836" lon="2.43859">
        <ele>613.1</ele>
        <time>2021-08-22T09:06:21Z</time>
      </trkpt>
      <trkpt lat="44.91841" lon="2.43857">
        <ele>613.3</ele>
        <time>2021-08-22T09:06:23Z</time>
      </trkpt>
      <trkpt lat="44.91847" lon="2.43854">
        <ele>613.6</ele>
        <time>2021-08-22T09:06:25Z</time>
      </trkpt>
      <trkpt lat="44.91854" lon="2.43856">
        <ele>613.7</ele>
        <time>2021-08-22T09:06:27Z</time>
      </trkpt>
      <trkpt lat="44.91861" lon="2.43858">
        <ele>613.8</ele>
        <time>2021-08-22T09:06:29Z</time>
      </trkpt>
      <trkpt lat="44.91869" lon="2.4386">
        <ele>613.9</ele>
        <time>2021-08-22T09:06:31Z</time>
      </trkpt>
      <trkpt lat="44.91877" lon="2.43862">
        <ele>614</ele>
        <time>2021-08-22T09:06:33Z</time>
      </trkpt>
      <trkpt lat="44.91884" lon="2.43865">
        <ele>614.1</ele>
        <time>2021-08-22T09:06:35Z</time>
      </trkpt>
      <trkpt lat="44.91892" lon="2.43868">
        <ele>614.2</ele>
        <time>2021-08-22T09:06:37Z</time>
      </trkpt>
      <trkpt lat="44.91899" lon="2.43873">
        <ele>614.2</ele>
        <time>2021-08-22T09:06:39Z</time>
      </trkpt>
      <trkpt lat="44.91908" lon="2.43876">
        <ele>614.3</ele>
        <time>2021-08-22T09:06:41Z</time>
      </trkpt>
      <trkpt lat="44.91915" lon="2.43879">
        <ele>614.3</ele>
        <time>2021-08-22T09:06:43Z</time>
      </trkpt>
      <trkpt lat="44.91923" lon="2.43881">
        <ele>614.3</ele>
        <time>2021-08-22T09:06:45Z</time>
      </trkpt>
      <trkpt lat="44.91931" lon="2.43884">
        <ele>614.3</ele>
        <time>2021-08-22T09:06:47Z</time>
      </trkpt>
      <trkpt lat="44.91939" lon="2.43886">
        <ele>614.3</ele>
        <time>2021-08-22T09:06:49Z</time>
      </trkpt>
      <trkpt lat="44.91947" lon="2.43889">
        <ele>614.2</ele>
        <time>2021-08-22T09:06:51Z</time>
      </trkpt>
      <trkpt lat="44.91956" lon="2.4389">
        <ele>614.3</ele>
        <time>2021-08-22T09:06:53Z</time>
      </trkpt>
      <trkpt lat="44.91963" lon="2.43896">
        <ele>614.2</ele>
        <time>2021-08-22T09:06:55Z</time>
      </trkpt>
      <trkpt lat="44.9197" lon="2.439">
        <ele>614.1</ele>
        <time>2021-08-22T09:06:57Z</time>
      </trkpt>
      <trkpt lat="44.91979" lon="2.43905">
        <ele>614.1</ele>
        <time>2021-08-22T09:06:59Z</time>
      </trkpt>
      <trkpt lat="44.91987" lon="2.43911">
        <ele>614</ele>
        <time>2021-08-22T09:07:01Z</time>
      </trkpt>
      <trkpt lat="44.91995" lon="2.43913">
        <ele>614</ele>
        <time>2021-08-22T09:07:03Z</time>
      </trkpt>
      <trkpt lat="44.92003" lon="2.43917">
        <ele>614</ele>
        <time>2021-08-22T09:07:05Z</time>
      </trkpt>
      <trkpt lat="44.92012" lon="2.4392">
        <ele>613.8</ele>
        <time>2021-08-22T09:07:07Z</time>
      </trkpt>
      <trkpt lat="44.9202" lon="2.43925">
        <ele>613.7</ele>
        <time>2021-08-22T09:07:09Z</time>
      </trkpt>
      <trkpt lat="44.92028" lon="2.43927">
        <ele>613.6</ele>
        <time>2021-08-22T09:07:11Z</time>
      </trkpt>
      <trkpt lat="44.92038" lon="2.43932">
        <ele>613.5</ele>
        <time>2021-08-22T09:07:13Z</time>
      </trkpt>
      <trkpt lat="44.92046" lon="2.43935">
        <ele>613.5</ele>
        <time>2021-08-22T09:07:15Z</time>
      </trkpt>
      <trkpt lat="44.92055" lon="2.4394">
        <ele>613.4</ele>
        <time>2021-08-22T09:07:17Z</time>
      </trkpt>
      <trkpt lat="44.92063" lon="2.43945">
        <ele>613.4</ele>
        <time>2021-08-22T09:07:19Z</time>
      </trkpt>
      <trkpt lat="44.92072" lon="2.43949">
        <ele>613.4</ele>
        <time>2021-08-22T09:07:21Z</time>
      </trkpt>
      <trkpt lat="44.92081" lon="2.43953">
        <ele>613.4</ele>
        <time>2021-08-22T09:07:23Z</time>
      </trkpt>
      <trkpt lat="44.9209" lon="2.43957">
        <ele>613.6</ele>
        <time>2021-08-22T09:07:25Z</time>
      </trkpt>
      <trkpt lat="44.92099" lon="2.43962">
        <ele>613.9</ele>
        <time>2021-08-22T09:07:27Z</time>
      </trkpt>
      <trkpt lat="44.92108" lon="2.43966">
        <ele>614.2</ele>
        <time>2021-08-22T09:07:29Z</time>
      </trkpt>
      <trkpt lat="44.92116" lon="2.43969">
        <ele>614.4</ele>
        <time>2021-08-22T09:07:31Z</time>
      </trkpt>
      <trkpt lat="44.92124" lon="2.43974">
        <ele>614.7</ele>
        <time>2021-08-22T09:07:33Z</time>
      </trkpt>
      <trkpt lat="44.92132" lon="2.43979">
        <ele>614.9</ele>
        <time>2021-08-22T09:07:35Z</time>
      </trkpt>
      <trkpt lat="44.9214" lon="2.43982">
        <ele>615.1</ele>
        <time>2021-08-22T09:07:37Z</time>
      </trkpt>
      <trkpt lat="44.92148" lon="2.43985">
        <ele>615.4</ele>
        <time>2021-08-22T09:07:39Z</time>
      </trkpt>
      <trkpt lat="44.92156" lon="2.43988">
        <ele>615.6</ele>
        <time>2021-08-22T09:07:41Z</time>
      </trkpt>
      <trkpt lat="44.92163" lon="2.43991">
        <ele>615.8</ele>
        <time>2021-08-22T09:07:43Z</time>
      </trkpt>
      <trkpt lat="44.92172" lon="2.43994">
        <ele>616</ele>
        <time>2021-08-22T09:07:45Z</time>
      </trkpt>
      <trkpt lat="44.9218" lon="2.43997">
        <ele>616.1</ele>
        <time>2021-08-22T09:07:47Z</time>
      </trkpt>
      <trkpt lat="44.92189" lon="2.44001">
        <ele>616.2</ele>
        <time>2021-08-22T09:07:49Z</time>
      </trkpt>
      <trkpt lat="44.92198" lon="2.44004">
        <ele>616.3</ele>
        <time>2021-08-22T09:07:51Z</time>
      </trkpt>
      <trkpt lat="44.92207" lon="2.44008">
        <ele>616.3</ele>
        <time>2021-08-22T09:07:53Z</time>
      </trkpt>
      <trkpt lat="44.92217" lon="2.44012">
        <ele>616.3</ele>
        <time>2021-08-22T09:07:55Z</time>
      </trkpt>
      <trkpt lat="44.92225" lon="2.44017">
        <ele>616.2</ele>
        <time>2021-08-22T09:07:57Z</time>
      </trkpt>
      <trkpt lat="44.92233" lon="2.4402">
        <ele>616.3</ele>
        <time>2021-08-22T09:07:59Z</time>
      </trkpt>
      <trkpt lat="44.92242" lon="2.44023">
        <ele>616.3</ele>
        <time>2021-08-22T09:08:01Z</time>
      </trkpt>
      <trkpt lat="44.9225" lon="2.44027">
        <ele>616.4</ele>
        <time>2021-08-22T09:08:03Z</time>
      </trkpt>
      <trkpt lat="44.92258" lon="2.44029">
        <ele>616.5</ele>
        <time>2021-08-22T09:08:05Z</time>
      </trkpt>
      <trkpt lat="44.92266" lon="2.44032">
        <ele>616.5</ele>
        <time>2021-08-22T09:08:07Z</time>
      </trkpt>
      <trkpt lat="44.92276" lon="2.44035">
        <ele>616.6</ele>
        <time>2021-08-22T09:08:09Z</time>
      </trkpt>
      <trkpt lat="44.92284" lon="2.44039">
        <ele>616.7</ele>
        <time>2021-08-22T09:08:11Z</time>
      </trkpt>
      <trkpt lat="44.92292" lon="2.44042">
        <ele>616.7</ele>
        <time>2021-08-22T09:08:13Z</time>
      </trkpt>
      <trkpt lat="44.923" lon="2.44047">
        <ele>616.7</ele>
        <time>2021-08-22T09:08:15Z</time>
      </trkpt>
      <trkpt lat="44.92307" lon="2.44051">
        <ele>616.7</ele>
        <time>2021-08-22T09:08:17Z</time>
      </trkpt>
      <trkpt lat="44.92312" lon="2.44052">
        <ele>616.8</ele>
        <time>2021-08-22T09:08:19Z</time>
      </trkpt>
      <trkpt lat="44.92318" lon="2.44054">
        <ele>616.8</ele>
        <time>2021-08-22T09:08:21Z</time>
      </trkpt>
      <trkpt lat="44.92323" lon="2.44057">
        <ele>616.8</ele>
        <time>2021-08-22T09:08:23Z</time>
      </trkpt>
      <trkpt lat="44.92324" lon="2.44066">
        <ele>616.5</ele>
        <time>2021-08-22T09:08:25Z</time>
      </trkpt>
      <trkpt lat="44.92322" lon="2.44075">
        <ele>616.1</ele>
        <time>2021-08-22T09:08:27Z</time>
      </trkpt>
      <trkpt lat="44.92319" lon="2.44087">
        <ele>615.8</ele>
        <time>2021-08-22T09:08:29Z</time>
      </trkpt>
      <trkpt lat="44.92317" lon="2.44099">
        <ele>615.5</ele>
        <time>2021-08-22T09:08:31Z</time>
      </trkpt>
      <trkpt lat="44.92314" lon="2.44111">
        <ele>615.3</ele>
        <time>2021-08-22T09:08:33Z</time>
      </trkpt>
      <trkpt lat="44.92312" lon="2.44124">
        <ele>615</ele>
        <time>2021-08-22T09:08:35Z</time>
      </trkpt>
      <trkpt lat="44.9231" lon="2.44137">
        <ele>614.7</ele>
        <time>2021-08-22T09:08:37Z</time>
      </trkpt>
      <trkpt lat="44.92309" lon="2.4415">
        <ele>614.4</ele>
        <time>2021-08-22T09:08:39Z</time>
      </trkpt>
      <trkpt lat="44.92308" lon="2.44165">
        <ele>614.1</ele>
        <time>2021-08-22T09:08:41Z</time>
      </trkpt>
      <trkpt lat="44.92308" lon="2.4418">
        <ele>614</ele>
        <time>2021-08-22T09:08:43Z</time>
      </trkpt>
      <trkpt lat="44.92308" lon="2.44196">
        <ele>613.8</ele>
        <time>2021-08-22T09:08:45Z</time>
      </trkpt>
      <trkpt lat="44.9231" lon="2.44212">
        <ele>613.8</ele>
        <time>2021-08-22T09:08:47Z</time>
      </trkpt>
      <trkpt lat="44.92313" lon="2.44227">
        <ele>613.7</ele>
        <time>2021-08-22T09:08:49Z</time>
      </trkpt>
      <trkpt lat="44.92315" lon="2.44241">
        <ele>613.7</ele>
        <time>2021-08-22T09:08:51Z</time>
      </trkpt>
      <trkpt lat="44.92319" lon="2.44254">
        <ele>613.6</ele>
        <time>2021-08-22T09:08:53Z</time>
      </trkpt>
      <trkpt lat="44.92317" lon="2.44266">
        <ele>613.5</ele>
        <time>2021-08-22T09:08:55Z</time>
      </trkpt>
      <trkpt lat="44.92308" lon="2.44275">
        <ele>613.3</ele>
        <time>2021-08-22T09:08:57Z</time>
      </trkpt>
      <trkpt lat="44.92301" lon="2.44283">
        <ele>613.4</ele>
        <time>2021-08-22T09:08:59Z</time>
      </trkpt>
      <trkpt lat="44.92292" lon="2.44291">
        <ele>613.5</ele>
        <time>2021-08-22T09:09:01Z</time>
      </trkpt>
      <trkpt lat="44.92284" lon="2.44298">
        <ele>613.7</ele>
        <time>2021-08-22T09:09:03Z</time>
      </trkpt>
      <trkpt lat="44.92276" lon="2.44305">
        <ele>614</ele>
        <time>2021-08-22T09:09:05Z</time>
      </trkpt>
      <trkpt lat="44.92268" lon="2.44311">
        <ele>614.4</ele>
        <time>2021-08-22T09:09:07Z</time>
      </trkpt>
      <trkpt lat="44.9226" lon="2.44318">
        <ele>614.9</ele>
        <time>2021-08-22T09:09:09Z</time>
      </trkpt>
      <trkpt lat="44.92253" lon="2.44327">
        <ele>615.6</ele>
        <time>2021-08-22T09:09:11Z</time>
      </trkpt>
      <trkpt lat="44.92247" lon="2.44336">
        <ele>616.2</ele>
        <time>2021-08-22T09:09:13Z</time>
      </trkpt>
      <trkpt lat="44.92243" lon="2.44347">
        <ele>616.9</ele>
        <time>2021-08-22T09:09:15Z</time>
      </trkpt>
      <trkpt lat="44.92241" lon="2.44357">
        <ele>617.6</ele>
        <time>2021-08-22T09:09:17Z</time>
      </trkpt>
      <trkpt lat="44.9224" lon="2.44368">
        <ele>618.4</ele>
        <time>2021-08-22T09:09:19Z</time>
      </trkpt>
      <trkpt lat="44.92239" lon="2.44377">
        <ele>619</ele>
        <time>2021-08-22T09:09:21Z</time>
      </trkpt>
      <trkpt lat="44.92241" lon="2.44385">
        <ele>619.6</ele>
        <time>2021-08-22T09:09:23Z</time>
      </trkpt>
      <trkpt lat="44.92242" lon="2.44394">
        <ele>620</ele>
        <time>2021-08-22T09:09:25Z</time>
      </trkpt>
      <trkpt lat="44.92245" lon="2.44401">
        <ele>620.4</ele>
        <time>2021-08-22T09:09:27Z</time>
      </trkpt>
      <trkpt lat="44.92247" lon="2.44408">
        <ele>620.6</ele>
        <time>2021-08-22T09:09:29Z</time>
      </trkpt>
      <trkpt lat="44.92251" lon="2.44414">
        <ele>620.8</ele>
        <time>2021-08-22T09:09:31Z</time>
      </trkpt>
      <trkpt lat="44.92254" lon="2.44421">
        <ele>621.1</ele>
        <time>2021-08-22T09:09:33Z</time>
      </trkpt>
      <trkpt lat="44.92258" lon="2.44427">
        <ele>621.4</ele>
        <time>2021-08-22T09:09:35Z</time>
      </trkpt>
      <trkpt lat="44.92261" lon="2.44433">
        <ele>621.6</ele>
        <time>2021-08-22T09:09:37Z</time>
      </trkpt>
      <trkpt lat="44.92264" lon="2.44439">
        <ele>621.9</ele>
        <time>2021-08-22T09:09:39Z</time>
      </trkpt>
      <trkpt lat="44.92269" lon="2.44445">
        <ele>622</ele>
        <time>2021-08-22T09:09:41Z</time>
      </trkpt>
      <trkpt lat="44.92271" lon="2.44451">
        <ele>622.3</ele>
        <time>2021-08-22T09:09:43Z</time>
      </trkpt>
      <trkpt lat="44.92274" lon="2.44458">
        <ele>622.6</ele>
        <time>2021-08-22T09:09:45Z</time>
      </trkpt>
      <trkpt lat="44.92277" lon="2.44464">
        <ele>622.8</ele>
        <time>2021-08-22T09:09:47Z</time>
      </trkpt>
      <trkpt lat="44.9228" lon="2.44469">
        <ele>623</ele>
        <time>2021-08-22T09:09:49Z</time>
      </trkpt>
      <trkpt lat="44.92282" lon="2.44476">
        <ele>623.2</ele>
        <time>2021-08-22T09:09:51Z</time>
      </trkpt>
      <trkpt lat="44.92283" lon="2.44481">
        <ele>623.6</ele>
        <time>2021-08-22T09:09:53Z</time>
      </trkpt>
      <trkpt lat="44.92284" lon="2.44488">
        <ele>623.9</ele>
        <time>2021-08-22T09:09:55Z</time>
      </trkpt>
      <trkpt lat="44.92285" lon="2.44494">
        <ele>624.3</ele>
        <time>2021-08-22T09:09:57Z</time>
      </trkpt>
      <trkpt lat="44.92286" lon="2.44501">
        <ele>624.6</ele>
        <time>2021-08-22T09:09:59Z</time>
      </trkpt>
      <trkpt lat="44.92287" lon="2.44507">
        <ele>624.9</ele>
        <time>2021-08-22T09:10:01Z</time>
      </trkpt>
      <trkpt lat="44.92288" lon="2.44513">
        <ele>625.2</ele>
        <time>2021-08-22T09:10:03Z</time>
      </trkpt>
      <trkpt lat="44.92289" lon="2.44518">
        <ele>625.5</ele>
        <time>2021-08-22T09:10:05Z</time>
      </trkpt>
      <trkpt lat="44.92291" lon="2.44524">
        <ele>625.7</ele>
        <time>2021-08-22T09:10:07Z</time>
      </trkpt>
      <trkpt lat="44.92292" lon="2.4453">
        <ele>625.9</ele>
        <time>2021-08-22T09:10:09Z</time>
      </trkpt>
      <trkpt lat="44.92294" lon="2.44535">
        <ele>626</ele>
        <time>2021-08-22T09:10:11Z</time>
      </trkpt>
      <trkpt lat="44.92295" lon="2.44541">
        <ele>626.3</ele>
        <time>2021-08-22T09:10:13Z</time>
      </trkpt>
      <trkpt lat="44.92297" lon="2.44546">
        <ele>626.4</ele>
        <time>2021-08-22T09:10:15Z</time>
      </trkpt>
      <trkpt lat="44.92299" lon="2.44551">
        <ele>626.5</ele>
        <time>2021-08-22T09:10:17Z</time>
      </trkpt>
      <trkpt lat="44.92301" lon="2.44556">
        <ele>626.6</ele>
        <time>2021-08-22T09:10:19Z</time>
      </trkpt>
      <trkpt lat="44.92303" lon="2.44561">
        <ele>626.7</ele>
        <time>2021-08-22T09:10:21Z</time>
      </trkpt>
      <trkpt lat="44.92305" lon="2.44566">
        <ele>626.7</ele>
        <time>2021-08-22T09:10:23Z</time>
      </trkpt>
      <trkpt lat="44.92307" lon="2.44571">
        <ele>626.8</ele>
        <time>2021-08-22T09:10:25Z</time>
      </trkpt>
      <trkpt lat="44.92309" lon="2.44576">
        <ele>626.8</ele>
        <time>2021-08-22T09:10:27Z</time>
      </trkpt>
      <trkpt lat="44.92311" lon="2.44581">
        <ele>626.8</ele>
        <time>2021-08-22T09:10:29Z</time>
      </trkpt>
      <trkpt lat="44.92313" lon="2.44586">
        <ele>626.9</ele>
        <time>2021-08-22T09:10:31Z</time>
      </trkpt>
      <trkpt lat="44.92316" lon="2.44591">
        <ele>626.8</ele>
        <time>2021-08-22T09:10:33Z</time>
      </trkpt>
      <trkpt lat="44.92318" lon="2.44596">
        <ele>626.8</ele>
        <time>2021-08-22T09:10:35Z</time>
      </trkpt>
      <trkpt lat="44.9232" lon="2.44601">
        <ele>626.9</ele>
        <time>2021-08-22T09:10:37Z</time>
      </trkpt>
      <trkpt lat="44.92322" lon="2.44606">
        <ele>627</ele>
        <time>2021-08-22T09:10:39Z</time>
      </trkpt>
      <trkpt lat="44.92323" lon="2.44611">
        <ele>627.2</ele>
        <time>2021-08-22T09:10:41Z</time>
      </trkpt>
      <trkpt lat="44.92323" lon="2.44617">
        <ele>627.5</ele>
        <time>2021-08-22T09:10:43Z</time>
      </trkpt>
      <trkpt lat="44.92323" lon="2.44622">
        <ele>627.9</ele>
        <time>2021-08-22T09:10:45Z</time>
      </trkpt>
      <trkpt lat="44.92323" lon="2.44628">
        <ele>628.4</ele>
        <time>2021-08-22T09:10:47Z</time>
      </trkpt>
      <trkpt lat="44.92321" lon="2.44633">
        <ele>628.9</ele>
        <time>2021-08-22T09:10:49Z</time>
      </trkpt>
      <trkpt lat="44.9232" lon="2.44638">
        <ele>629.3</ele>
        <time>2021-08-22T09:10:51Z</time>
      </trkpt>
      <trkpt lat="44.92317" lon="2.44642">
        <ele>629.8</ele>
        <time>2021-08-22T09:10:53Z</time>
      </trkpt>
      <trkpt lat="44.92314" lon="2.44644">
        <ele>630.3</ele>
        <time>2021-08-22T09:10:55Z</time>
      </trkpt>
      <trkpt lat="44.92311" lon="2.44646">
        <ele>630.7</ele>
        <time>2021-08-22T09:10:57Z</time>
      </trkpt>
      <trkpt lat="44.92307" lon="2.44647">
        <ele>631.1</ele>
        <time>2021-08-22T09:10:59Z</time>
      </trkpt>
      <trkpt lat="44.92302" lon="2.44646">
        <ele>631.5</ele>
        <time>2021-08-22T09:11:01Z</time>
      </trkpt>
      <trkpt lat="44.92297" lon="2.44646">
        <ele>632</ele>
        <time>2021-08-22T09:11:03Z</time>
      </trkpt>
      <trkpt lat="44.92293" lon="2.44648">
        <ele>632.5</ele>
        <time>2021-08-22T09:11:05Z</time>
      </trkpt>
      <trkpt lat="44.92289" lon="2.44653">
        <ele>633.1</ele>
        <time>2021-08-22T09:11:07Z</time>
      </trkpt>
      <trkpt lat="44.92287" lon="2.44659">
        <ele>633.5</ele>
        <time>2021-08-22T09:11:09Z</time>
      </trkpt>
      <trkpt lat="44.92287" lon="2.44665">
        <ele>633.8</ele>
        <time>2021-08-22T09:11:11Z</time>
      </trkpt>
      <trkpt lat="44.92288" lon="2.44671">
        <ele>634.2</ele>
        <time>2021-08-22T09:11:13Z</time>
      </trkpt>
      <trkpt lat="44.9229" lon="2.44677">
        <ele>634.7</ele>
        <time>2021-08-22T09:11:15Z</time>
      </trkpt>
      <trkpt lat="44.92294" lon="2.44681">
        <ele>634.8</ele>
        <time>2021-08-22T09:11:17Z</time>
      </trkpt>
      <trkpt lat="44.92299" lon="2.44684">
        <ele>634.7</ele>
        <time>2021-08-22T09:11:19Z</time>
      </trkpt>
      <trkpt lat="44.92306" lon="2.44686">
        <ele>634.4</ele>
        <time>2021-08-22T09:11:21Z</time>
      </trkpt>
      <trkpt lat="44.92314" lon="2.44689">
        <ele>634.2</ele>
        <time>2021-08-22T09:11:23Z</time>
      </trkpt>
      <trkpt lat="44.92322" lon="2.44694">
        <ele>634.1</ele>
        <time>2021-08-22T09:11:25Z</time>
      </trkpt>
      <trkpt lat="44.92331" lon="2.44696">
        <ele>633.7</ele>
        <time>2021-08-22T09:11:27Z</time>
      </trkpt>
      <trkpt lat="44.92339" lon="2.44698">
        <ele>633.2</ele>
        <time>2021-08-22T09:11:29Z</time>
      </trkpt>
      <trkpt lat="44.92349" lon="2.44701">
        <ele>632.5</ele>
        <time>2021-08-22T09:11:31Z</time>
      </trkpt>
      <trkpt lat="44.92358" lon="2.44704">
        <ele>631.9</ele>
        <time>2021-08-22T09:11:33Z</time>
      </trkpt>
      <trkpt lat="44.92369" lon="2.44708">
        <ele>631.3</ele>
        <time>2021-08-22T09:11:35Z</time>
      </trkpt>
      <trkpt lat="44.92379" lon="2.44709">
        <ele>630.5</ele>
        <time>2021-08-22T09:11:37Z</time>
      </trkpt>
      <trkpt lat="44.9239" lon="2.44714">
        <ele>630</ele>
        <time>2021-08-22T09:11:39Z</time>
      </trkpt>
      <trkpt lat="44.92401" lon="2.44718">
        <ele>629.2</ele>
        <time>2021-08-22T09:11:41Z</time>
      </trkpt>
      <trkpt lat="44.92413" lon="2.44722">
        <ele>628.3</ele>
        <time>2021-08-22T09:11:43Z</time>
      </trkpt>
      <trkpt lat="44.92426" lon="2.44727">
        <ele>628</ele>
        <time>2021-08-22T09:11:45Z</time>
      </trkpt>
      <trkpt lat="44.92439" lon="2.44731">
        <ele>627.9</ele>
        <time>2021-08-22T09:11:47Z</time>
      </trkpt>
      <trkpt lat="44.92452" lon="2.44736">
        <ele>627.8</ele>
        <time>2021-08-22T09:11:49Z</time>
      </trkpt>
      <trkpt lat="44.92466" lon="2.44741">
        <ele>627.6</ele>
        <time>2021-08-22T09:11:51Z</time>
      </trkpt>
      <trkpt lat="44.9248" lon="2.44744">
        <ele>627.4</ele>
        <time>2021-08-22T09:11:53Z</time>
      </trkpt>
      <trkpt lat="44.92494" lon="2.44749">
        <ele>627.1</ele>
        <time>2021-08-22T09:11:55Z</time>
      </trkpt>
      <trkpt lat="44.92509" lon="2.44754">
        <ele>627.2</ele>
        <time>2021-08-22T09:11:57Z</time>
      </trkpt>
      <trkpt lat="44.92523" lon="2.44758">
        <ele>627.3</ele>
        <time>2021-08-22T09:11:59Z</time>
      </trkpt>
      <trkpt lat="44.92538" lon="2.44762">
        <ele>627.2</ele>
        <time>2021-08-22T09:12:01Z</time>
      </trkpt>
      <trkpt lat="44.92552" lon="2.44767">
        <ele>627.3</ele>
        <time>2021-08-22T09:12:03Z</time>
      </trkpt>
      <trkpt lat="44.92566" lon="2.44772">
        <ele>627.2</ele>
        <time>2021-08-22T09:12:05Z</time>
      </trkpt>
      <trkpt lat="44.92577" lon="2.44776">
        <ele>627.1</ele>
        <time>2021-08-22T09:12:07Z</time>
      </trkpt>
      <trkpt lat="44.92589" lon="2.44779">
        <ele>626.9</ele>
        <time>2021-08-22T09:12:09Z</time>
      </trkpt>
      <trkpt lat="44.92599" lon="2.44782">
        <ele>626.7</ele>
        <time>2021-08-22T09:12:11Z</time>
      </trkpt>
      <trkpt lat="44.92609" lon="2.44785">
        <ele>626.4</ele>
        <time>2021-08-22T09:12:13Z</time>
      </trkpt>
      <trkpt lat="44.92618" lon="2.4479">
        <ele>626.4</ele>
        <time>2021-08-22T09:12:15Z</time>
      </trkpt>
      <trkpt lat="44.92629" lon="2.44794">
        <ele>626.2</ele>
        <time>2021-08-22T09:12:17Z</time>
      </trkpt>
      <trkpt lat="44.92638" lon="2.44796">
        <ele>626.1</ele>
        <time>2021-08-22T09:12:19Z</time>
      </trkpt>
      <trkpt lat="44.92647" lon="2.44799">
        <ele>625.9</ele>
        <time>2021-08-22T09:12:21Z</time>
      </trkpt>
      <trkpt lat="44.92656" lon="2.44802">
        <ele>625.8</ele>
        <time>2021-08-22T09:12:23Z</time>
      </trkpt>
      <trkpt lat="44.92663" lon="2.44804">
        <ele>625.7</ele>
        <time>2021-08-22T09:12:25Z</time>
      </trkpt>
      <trkpt lat="44.92671" lon="2.44806">
        <ele>625.6</ele>
        <time>2021-08-22T09:12:27Z</time>
      </trkpt>
      <trkpt lat="44.92678" lon="2.4481">
        <ele>625.7</ele>
        <time>2021-08-22T09:12:29Z</time>
      </trkpt>
      <trkpt lat="44.92685" lon="2.44813">
        <ele>625.9</ele>
        <time>2021-08-22T09:12:31Z</time>
      </trkpt>
      <trkpt lat="44.92692" lon="2.44816">
        <ele>626</ele>
        <time>2021-08-22T09:12:33Z</time>
      </trkpt>
      <trkpt lat="44.92699" lon="2.44818">
        <ele>625.9</ele>
        <time>2021-08-22T09:12:35Z</time>
      </trkpt>
      <trkpt lat="44.92706" lon="2.44818">
        <ele>625.8</ele>
        <time>2021-08-22T09:12:37Z</time>
      </trkpt>
      <trkpt lat="44.92713" lon="2.4482">
        <ele>625.7</ele>
        <time>2021-08-22T09:12:39Z</time>
      </trkpt>
      <trkpt lat="44.92721" lon="2.44822">
        <ele>625.7</ele>
        <time>2021-08-22T09:12:41Z</time>
      </trkpt>
      <trkpt lat="44.92729" lon="2.44824">
        <ele>625.7</ele>
        <time>2021-08-22T09:12:43Z</time>
      </trkpt>
      <trkpt lat="44.92736" lon="2.44826">
        <ele>625.8</ele>
        <time>2021-08-22T09:12:45Z</time>
      </trkpt>
      <trkpt lat="44.92743" lon="2.44829">
        <ele>625.8</ele>
        <time>2021-08-22T09:12:47Z</time>
      </trkpt>
      <trkpt lat="44.92752" lon="2.44831">
        <ele>625.7</ele>
        <time>2021-08-22T09:12:49Z</time>
      </trkpt>
      <trkpt lat="44.92761" lon="2.44833">
        <ele>625.3</ele>
        <time>2021-08-22T09:12:51Z</time>
      </trkpt>
      <trkpt lat="44.9277" lon="2.44836">
        <ele>625.1</ele>
        <time>2021-08-22T09:12:53Z</time>
      </trkpt>
      <trkpt lat="44.92779" lon="2.4484">
        <ele>624.8</ele>
        <time>2021-08-22T09:12:55Z</time>
      </trkpt>
      <trkpt lat="44.92788" lon="2.44845">
        <ele>624.5</ele>
        <time>2021-08-22T09:12:57Z</time>
      </trkpt>
      <trkpt lat="44.92798" lon="2.44849">
        <ele>624.2</ele>
        <time>2021-08-22T09:12:59Z</time>
      </trkpt>
      <trkpt lat="44.92808" lon="2.44852">
        <ele>623.8</ele>
        <time>2021-08-22T09:13:01Z</time>
      </trkpt>
      <trkpt lat="44.92818" lon="2.44855">
        <ele>623.3</ele>
        <time>2021-08-22T09:13:03Z</time>
      </trkpt>
      <trkpt lat="44.92829" lon="2.44858">
        <ele>622.8</ele>
        <time>2021-08-22T09:13:05Z</time>
      </trkpt>
      <trkpt lat="44.9284" lon="2.44862">
        <ele>622.4</ele>
        <time>2021-08-22T09:13:07Z</time>
      </trkpt>
      <trkpt lat="44.92851" lon="2.44866">
        <ele>622.1</ele>
        <time>2021-08-22T09:13:09Z</time>
      </trkpt>
      <trkpt lat="44.92862" lon="2.44869">
        <ele>621.7</ele>
        <time>2021-08-22T09:13:11Z</time>
      </trkpt>
      <trkpt lat="44.92873" lon="2.44873">
        <ele>621.3</ele>
        <time>2021-08-22T09:13:13Z</time>
      </trkpt>
      <trkpt lat="44.92885" lon="2.44875">
        <ele>620.7</ele>
        <time>2021-08-22T09:13:15Z</time>
      </trkpt>
      <trkpt lat="44.92897" lon="2.44879">
        <ele>620.2</ele>
        <time>2021-08-22T09:13:17Z</time>
      </trkpt>
      <trkpt lat="44.92908" lon="2.44882">
        <ele>619.7</ele>
        <time>2021-08-22T09:13:19Z</time>
      </trkpt>
      <trkpt lat="44.92919" lon="2.44886">
        <ele>619.3</ele>
        <time>2021-08-22T09:13:21Z</time>
      </trkpt>
      <trkpt lat="44.92929" lon="2.44891">
        <ele>619.3</ele>
        <time>2021-08-22T09:13:23Z</time>
      </trkpt>
      <trkpt lat="44.9294" lon="2.44896">
        <ele>619.4</ele>
        <time>2021-08-22T09:13:25Z</time>
      </trkpt>
      <trkpt lat="44.92948" lon="2.44907">
        <ele>619.5</ele>
        <time>2021-08-22T09:13:27Z</time>
      </trkpt>
      <trkpt lat="44.92955" lon="2.44921">
        <ele>619.9</ele>
        <time>2021-08-22T09:13:29Z</time>
      </trkpt>
      <trkpt lat="44.92961" lon="2.44931">
        <ele>620.5</ele>
        <time>2021-08-22T09:13:31Z</time>
      </trkpt>
      <trkpt lat="44.92969" lon="2.44939">
        <ele>620.8</ele>
        <time>2021-08-22T09:13:33Z</time>
      </trkpt>
      <trkpt lat="44.92976" lon="2.44946">
        <ele>621.1</ele>
        <time>2021-08-22T09:13:35Z</time>
      </trkpt>
      <trkpt lat="44.92984" lon="2.44955">
        <ele>621.4</ele>
        <time>2021-08-22T09:13:37Z</time>
      </trkpt>
      <trkpt lat="44.92991" lon="2.44963">
        <ele>621.6</ele>
        <time>2021-08-22T09:13:39Z</time>
      </trkpt>
      <trkpt lat="44.92999" lon="2.44972">
        <ele>621.7</ele>
        <time>2021-08-22T09:13:41Z</time>
      </trkpt>
      <trkpt lat="44.93006" lon="2.44981">
        <ele>622.1</ele>
        <time>2021-08-22T09:13:43Z</time>
      </trkpt>
      <trkpt lat="44.93013" lon="2.4499">
        <ele>622.4</ele>
        <time>2021-08-22T09:13:45Z</time>
      </trkpt>
      <trkpt lat="44.9302" lon="2.44998">
        <ele>622.7</ele>
        <time>2021-08-22T09:13:47Z</time>
      </trkpt>
      <trkpt lat="44.93027" lon="2.45006">
        <ele>623</ele>
        <time>2021-08-22T09:13:49Z</time>
      </trkpt>
      <trkpt lat="44.93034" lon="2.45014">
        <ele>623.3</ele>
        <time>2021-08-22T09:13:51Z</time>
      </trkpt>
      <trkpt lat="44.93041" lon="2.45021">
        <ele>623.7</ele>
        <time>2021-08-22T09:13:53Z</time>
      </trkpt>
      <trkpt lat="44.93047" lon="2.45029">
        <ele>624</ele>
        <time>2021-08-22T09:13:55Z</time>
      </trkpt>
      <trkpt lat="44.93053" lon="2.45036">
        <ele>624.4</ele>
        <time>2021-08-22T09:13:57Z</time>
      </trkpt>
      <trkpt lat="44.93059" lon="2.45043">
        <ele>624.7</ele>
        <time>2021-08-22T09:13:59Z</time>
      </trkpt>
      <trkpt lat="44.93065" lon="2.45049">
        <ele>625</ele>
        <time>2021-08-22T09:14:01Z</time>
      </trkpt>
      <trkpt lat="44.9307" lon="2.45056">
        <ele>625.4</ele>
        <time>2021-08-22T09:14:03Z</time>
      </trkpt>
      <trkpt lat="44.93075" lon="2.45062">
        <ele>625.8</ele>
        <time>2021-08-22T09:14:05Z</time>
      </trkpt>
      <trkpt lat="44.93081" lon="2.45066">
        <ele>626</ele>
        <time>2021-08-22T09:14:07Z</time>
      </trkpt>
      <trkpt lat="44.93088" lon="2.45068">
        <ele>625.9</ele>
        <time>2021-08-22T09:14:09Z</time>
      </trkpt>
      <trkpt lat="44.93096" lon="2.45068">
        <ele>625.5</ele>
        <time>2021-08-22T09:14:11Z</time>
      </trkpt>
      <trkpt lat="44.93104" lon="2.45067">
        <ele>625.1</ele>
        <time>2021-08-22T09:14:13Z</time>
      </trkpt>
      <trkpt lat="44.93114" lon="2.45069">
        <ele>624.7</ele>
        <time>2021-08-22T09:14:15Z</time>
      </trkpt>
      <trkpt lat="44.93123" lon="2.4507">
        <ele>624.3</ele>
        <time>2021-08-22T09:14:17Z</time>
      </trkpt>
      <trkpt lat="44.93132" lon="2.45069">
        <ele>623.8</ele>
        <time>2021-08-22T09:14:19Z</time>
      </trkpt>
      <trkpt lat="44.93142" lon="2.45065">
        <ele>623.3</ele>
        <time>2021-08-22T09:14:21Z</time>
      </trkpt>
      <trkpt lat="44.93151" lon="2.45062">
        <ele>622.9</ele>
        <time>2021-08-22T09:14:23Z</time>
      </trkpt>
      <trkpt lat="44.9316" lon="2.45059">
        <ele>622.5</ele>
        <time>2021-08-22T09:14:25Z</time>
      </trkpt>
      <trkpt lat="44.9317" lon="2.45057">
        <ele>622.4</ele>
        <time>2021-08-22T09:14:27Z</time>
      </trkpt>
      <trkpt lat="44.93181" lon="2.45059">
        <ele>622.5</ele>
        <time>2021-08-22T09:14:29Z</time>
      </trkpt>
      <trkpt lat="44.9319" lon="2.45068">
        <ele>622.5</ele>
        <time>2021-08-22T09:14:31Z</time>
      </trkpt>
      <trkpt lat="44.93198" lon="2.45078">
        <ele>622.4</ele>
        <time>2021-08-22T09:14:33Z</time>
      </trkpt>
      <trkpt lat="44.93206" lon="2.45087">
        <ele>622.5</ele>
        <time>2021-08-22T09:14:35Z</time>
      </trkpt>
      <trkpt lat="44.93213" lon="2.45096">
        <ele>622.5</ele>
        <time>2021-08-22T09:14:37Z</time>
      </trkpt>
      <trkpt lat="44.93221" lon="2.45103">
        <ele>622.6</ele>
        <time>2021-08-22T09:14:39Z</time>
      </trkpt>
      <trkpt lat="44.93227" lon="2.4511">
        <ele>622.6</ele>
        <time>2021-08-22T09:14:41Z</time>
      </trkpt>
      <trkpt lat="44.93232" lon="2.45117">
        <ele>622.6</ele>
        <time>2021-08-22T09:14:43Z</time>
      </trkpt>
      <trkpt lat="44.93238" lon="2.45124">
        <ele>622.5</ele>
        <time>2021-08-22T09:14:45Z</time>
      </trkpt>
      <trkpt lat="44.93244" lon="2.45132">
        <ele>622.4</ele>
        <time>2021-08-22T09:14:47Z</time>
      </trkpt>
      <trkpt lat="44.93251" lon="2.4514">
        <ele>622.3</ele>
        <time>2021-08-22T09:14:49Z</time>
      </trkpt>
      <trkpt lat="44.93258" lon="2.45149">
        <ele>622.4</ele>
        <time>2021-08-22T09:14:51Z</time>
      </trkpt>
      <trkpt lat="44.93265" lon="2.45157">
        <ele>622.5</ele>
        <time>2021-08-22T09:14:53Z</time>
      </trkpt>
      <trkpt lat="44.93272" lon="2.45164">
        <ele>622.6</ele>
        <time>2021-08-22T09:14:55Z</time>
      </trkpt>
      <trkpt lat="44.93279" lon="2.45171">
        <ele>622.6</ele>
        <time>2021-08-22T09:14:57Z</time>
      </trkpt>
      <trkpt lat="44.93286" lon="2.45179">
        <ele>622.8</ele>
        <time>2021-08-22T09:14:59Z</time>
      </trkpt>
      <trkpt lat="44.93292" lon="2.45187">
        <ele>622.9</ele>
        <time>2021-08-22T09:15:01Z</time>
      </trkpt>
      <trkpt lat="44.93298" lon="2.45195">
        <ele>623</ele>
        <time>2021-08-22T09:15:03Z</time>
      </trkpt>
      <trkpt lat="44.93304" lon="2.45203">
        <ele>623.1</ele>
        <time>2021-08-22T09:15:05Z</time>
      </trkpt>
      <trkpt lat="44.9331" lon="2.45211">
        <ele>623.3</ele>
        <time>2021-08-22T09:15:07Z</time>
      </trkpt>
      <trkpt lat="44.93317" lon="2.45218">
        <ele>623.5</ele>
        <time>2021-08-22T09:15:09Z</time>
      </trkpt>
      <trkpt lat="44.93323" lon="2.45226">
        <ele>623.7</ele>
        <time>2021-08-22T09:15:11Z</time>
      </trkpt>
      <trkpt lat="44.9333" lon="2.45233">
        <ele>623.9</ele>
        <time>2021-08-22T09:15:13Z</time>
      </trkpt>
      <trkpt lat="44.93336" lon="2.45241">
        <ele>624.1</ele>
        <time>2021-08-22T09:15:15Z</time>
      </trkpt>
      <trkpt lat="44.93342" lon="2.45248">
        <ele>624.2</ele>
        <time>2021-08-22T09:15:17Z</time>
      </trkpt>
      <trkpt lat="44.93348" lon="2.45256">
        <ele>624.2</ele>
        <time>2021-08-22T09:15:19Z</time>
      </trkpt>
      <trkpt lat="44.93354" lon="2.45262">
        <ele>624.3</ele>
        <time>2021-08-22T09:15:21Z</time>
      </trkpt>
      <trkpt lat="44.9336" lon="2.4527">
        <ele>624.3</ele>
        <time>2021-08-22T09:15:23Z</time>
      </trkpt>
      <trkpt lat="44.93367" lon="2.45275">
        <ele>624.4</ele>
        <time>2021-08-22T09:15:25Z</time>
      </trkpt>
      <trkpt lat="44.93372" lon="2.45284">
        <ele>624.5</ele>
        <time>2021-08-22T09:15:27Z</time>
      </trkpt>
      <trkpt lat="44.93376" lon="2.45293">
        <ele>624.5</ele>
        <time>2021-08-22T09:15:29Z</time>
      </trkpt>
      <trkpt lat="44.93382" lon="2.453">
        <ele>624.7</ele>
        <time>2021-08-22T09:15:31Z</time>
      </trkpt>
      <trkpt lat="44.93389" lon="2.45307">
        <ele>624.9</ele>
        <time>2021-08-22T09:15:33Z</time>
      </trkpt>
      <trkpt lat="44.93396" lon="2.45313">
        <ele>625.1</ele>
        <time>2021-08-22T09:15:35Z</time>
      </trkpt>
      <trkpt lat="44.93401" lon="2.45322">
        <ele>625.3</ele>
        <time>2021-08-22T09:15:37Z</time>
      </trkpt>
      <trkpt lat="44.93409" lon="2.45329">
        <ele>625.6</ele>
        <time>2021-08-22T09:15:39Z</time>
      </trkpt>
      <trkpt lat="44.93416" lon="2.45338">
        <ele>625.9</ele>
        <time>2021-08-22T09:15:41Z</time>
      </trkpt>
      <trkpt lat="44.93423" lon="2.45346">
        <ele>625.9</ele>
        <time>2021-08-22T09:15:43Z</time>
      </trkpt>
      <trkpt lat="44.9343" lon="2.45354">
        <ele>625.8</ele>
        <time>2021-08-22T09:15:45Z</time>
      </trkpt>
      <trkpt lat="44.93437" lon="2.45362">
        <ele>625.8</ele>
        <time>2021-08-22T09:15:47Z</time>
      </trkpt>
      <trkpt lat="44.93444" lon="2.45369">
        <ele>625.9</ele>
        <time>2021-08-22T09:15:49Z</time>
      </trkpt>
      <trkpt lat="44.93451" lon="2.45375">
        <ele>625.9</ele>
        <time>2021-08-22T09:15:51Z</time>
      </trkpt>
      <trkpt lat="44.93459" lon="2.45382">
        <ele>626</ele>
        <time>2021-08-22T09:15:53Z</time>
      </trkpt>
      <trkpt lat="44.93466" lon="2.45389">
        <ele>626.1</ele>
        <time>2021-08-22T09:15:55Z</time>
      </trkpt>
      <trkpt lat="44.93473" lon="2.45397">
        <ele>626.3</ele>
        <time>2021-08-22T09:15:57Z</time>
      </trkpt>
      <trkpt lat="44.9348" lon="2.45405">
        <ele>626.4</ele>
        <time>2021-08-22T09:15:59Z</time>
      </trkpt>
      <trkpt lat="44.93489" lon="2.45411">
        <ele>626.7</ele>
        <time>2021-08-22T09:16:01Z</time>
      </trkpt>
      <trkpt lat="44.93495" lon="2.45418">
        <ele>626.9</ele>
        <time>2021-08-22T09:16:03Z</time>
      </trkpt>
      <trkpt lat="44.93503" lon="2.45422">
        <ele>627.1</ele>
        <time>2021-08-22T09:16:05Z</time>
      </trkpt>
      <trkpt lat="44.93509" lon="2.45428">
        <ele>627.2</ele>
        <time>2021-08-22T09:16:07Z</time>
      </trkpt>
      <trkpt lat="44.93517" lon="2.45434">
        <ele>627.4</ele>
        <time>2021-08-22T09:16:09Z</time>
      </trkpt>
      <trkpt lat="44.93524" lon="2.45441">
        <ele>627.5</ele>
        <time>2021-08-22T09:16:11Z</time>
      </trkpt>
      <trkpt lat="44.93531" lon="2.45448">
        <ele>627.6</ele>
        <time>2021-08-22T09:16:13Z</time>
      </trkpt>
      <trkpt lat="44.93539" lon="2.45454">
        <ele>627.7</ele>
        <time>2021-08-22T09:16:15Z</time>
      </trkpt>
      <trkpt lat="44.93546" lon="2.45458">
        <ele>627.8</ele>
        <time>2021-08-22T09:16:17Z</time>
      </trkpt>
      <trkpt lat="44.93554" lon="2.45464">
        <ele>627.9</ele>
        <time>2021-08-22T09:16:19Z</time>
      </trkpt>
      <trkpt lat="44.93561" lon="2.45468">
        <ele>628</ele>
        <time>2021-08-22T09:16:21Z</time>
      </trkpt>
      <trkpt lat="44.93569" lon="2.45473">
        <ele>628.1</ele>
        <time>2021-08-22T09:16:23Z</time>
      </trkpt>
      <trkpt lat="44.93575" lon="2.45479">
        <ele>628.1</ele>
        <time>2021-08-22T09:16:25Z</time>
      </trkpt>
      <trkpt lat="44.93583" lon="2.45483">
        <ele>628.2</ele>
        <time>2021-08-22T09:16:27Z</time>
      </trkpt>
      <trkpt lat="44.93589" lon="2.45489">
        <ele>628.1</ele>
        <time>2021-08-22T09:16:29Z</time>
      </trkpt>
      <trkpt lat="44.93597" lon="2.45492">
        <ele>628.1</ele>
        <time>2021-08-22T09:16:31Z</time>
      </trkpt>
      <trkpt lat="44.93606" lon="2.45498">
        <ele>628</ele>
        <time>2021-08-22T09:16:33Z</time>
      </trkpt>
      <trkpt lat="44.93613" lon="2.45505">
        <ele>628</ele>
        <time>2021-08-22T09:16:35Z</time>
      </trkpt>
      <trkpt lat="44.9362" lon="2.4551">
        <ele>627.9</ele>
        <time>2021-08-22T09:16:37Z</time>
      </trkpt>
      <trkpt lat="44.93628" lon="2.45516">
        <ele>627.9</ele>
        <time>2021-08-22T09:16:39Z</time>
      </trkpt>
      <trkpt lat="44.93636" lon="2.45522">
        <ele>627.9</ele>
        <time>2021-08-22T09:16:41Z</time>
      </trkpt>
      <trkpt lat="44.93644" lon="2.45527">
        <ele>627.9</ele>
        <time>2021-08-22T09:16:43Z</time>
      </trkpt>
      <trkpt lat="44.93652" lon="2.45533">
        <ele>627.9</ele>
        <time>2021-08-22T09:16:45Z</time>
      </trkpt>
      <trkpt lat="44.9366" lon="2.45539">
        <ele>628</ele>
        <time>2021-08-22T09:16:47Z</time>
      </trkpt>
      <trkpt lat="44.93668" lon="2.45544">
        <ele>628</ele>
        <time>2021-08-22T09:16:49Z</time>
      </trkpt>
      <trkpt lat="44.93676" lon="2.45549">
        <ele>628.3</ele>
        <time>2021-08-22T09:16:51Z</time>
      </trkpt>
      <trkpt lat="44.93683" lon="2.45555">
        <ele>628.5</ele>
        <time>2021-08-22T09:16:53Z</time>
      </trkpt>
      <trkpt lat="44.93691" lon="2.4556">
        <ele>628.7</ele>
        <time>2021-08-22T09:16:55Z</time>
      </trkpt>
      <trkpt lat="44.93699" lon="2.45565">
        <ele>628.9</ele>
        <time>2021-08-22T09:16:57Z</time>
      </trkpt>
      <trkpt lat="44.93707" lon="2.45571">
        <ele>629</ele>
        <time>2021-08-22T09:16:59Z</time>
      </trkpt>
      <trkpt lat="44.93716" lon="2.45577">
        <ele>629.2</ele>
        <time>2021-08-22T09:17:01Z</time>
      </trkpt>
      <trkpt lat="44.93724" lon="2.45582">
        <ele>629.4</ele>
        <time>2021-08-22T09:17:03Z</time>
      </trkpt>
      <trkpt lat="44.93732" lon="2.45587">
        <ele>629.5</ele>
        <time>2021-08-22T09:17:05Z</time>
      </trkpt>
      <trkpt lat="44.9374" lon="2.45593">
        <ele>629.6</ele>
        <time>2021-08-22T09:17:07Z</time>
      </trkpt>
      <trkpt lat="44.93749" lon="2.45598">
        <ele>629.8</ele>
        <time>2021-08-22T09:17:09Z</time>
      </trkpt>
      <trkpt lat="44.93757" lon="2.45604">
        <ele>630.4</ele>
        <time>2021-08-22T09:17:11Z</time>
      </trkpt>
      <trkpt lat="44.93765" lon="2.4561">
        <ele>631</ele>
        <time>2021-08-22T09:17:13Z</time>
      </trkpt>
      <trkpt lat="44.93773" lon="2.45616">
        <ele>631.6</ele>
        <time>2021-08-22T09:17:15Z</time>
      </trkpt>
      <trkpt lat="44.93782" lon="2.45622">
        <ele>632.1</ele>
        <time>2021-08-22T09:17:17Z</time>
      </trkpt>
      <trkpt lat="44.9379" lon="2.45627">
        <ele>632.5</ele>
        <time>2021-08-22T09:17:19Z</time>
      </trkpt>
      <trkpt lat="44.93799" lon="2.45633">
        <ele>632.9</ele>
        <time>2021-08-22T09:17:21Z</time>
      </trkpt>
      <trkpt lat="44.93807" lon="2.45638">
        <ele>633.2</ele>
        <time>2021-08-22T09:17:23Z</time>
      </trkpt>
      <trkpt lat="44.93815" lon="2.45644">
        <ele>633.4</ele>
        <time>2021-08-22T09:17:25Z</time>
      </trkpt>
      <trkpt lat="44.93822" lon="2.45648">
        <ele>633.6</ele>
        <time>2021-08-22T09:17:27Z</time>
      </trkpt>
      <trkpt lat="44.9383" lon="2.45653">
        <ele>633.8</ele>
        <time>2021-08-22T09:17:29Z</time>
      </trkpt>
      <trkpt lat="44.93837" lon="2.45659">
        <ele>633.9</ele>
        <time>2021-08-22T09:17:31Z</time>
      </trkpt>
      <trkpt lat="44.93845" lon="2.45662">
        <ele>634.1</ele>
        <time>2021-08-22T09:17:33Z</time>
      </trkpt>
      <trkpt lat="44.93853" lon="2.45667">
        <ele>634.2</ele>
        <time>2021-08-22T09:17:35Z</time>
      </trkpt>
      <trkpt lat="44.93861" lon="2.45671">
        <ele>634.5</ele>
        <time>2021-08-22T09:17:37Z</time>
      </trkpt>
      <trkpt lat="44.9387" lon="2.45673">
        <ele>634.9</ele>
        <time>2021-08-22T09:17:39Z</time>
      </trkpt>
      <trkpt lat="44.93878" lon="2.45675">
        <ele>635.2</ele>
        <time>2021-08-22T09:17:41Z</time>
      </trkpt>
      <trkpt lat="44.93886" lon="2.45677">
        <ele>635.6</ele>
        <time>2021-08-22T09:17:43Z</time>
      </trkpt>
      <trkpt lat="44.93895" lon="2.45679">
        <ele>635.9</ele>
        <time>2021-08-22T09:17:45Z</time>
      </trkpt>
      <trkpt lat="44.93904" lon="2.4568">
        <ele>636.3</ele>
        <time>2021-08-22T09:17:47Z</time>
      </trkpt>
      <trkpt lat="44.93913" lon="2.45682">
        <ele>636.7</ele>
        <time>2021-08-22T09:17:49Z</time>
      </trkpt>
      <trkpt lat="44.93921" lon="2.45684">
        <ele>637</ele>
        <time>2021-08-22T09:17:51Z</time>
      </trkpt>
      <trkpt lat="44.9393" lon="2.45687">
        <ele>637.5</ele>
        <time>2021-08-22T09:17:53Z</time>
      </trkpt>
      <trkpt lat="44.93938" lon="2.45689">
        <ele>637.8</ele>
        <time>2021-08-22T09:17:55Z</time>
      </trkpt>
      <trkpt lat="44.93946" lon="2.45693">
        <ele>638</ele>
        <time>2021-08-22T09:17:57Z</time>
      </trkpt>
      <trkpt lat="44.93955" lon="2.45696">
        <ele>638.2</ele>
        <time>2021-08-22T09:17:59Z</time>
      </trkpt>
      <trkpt lat="44.93963" lon="2.457">
        <ele>638.4</ele>
        <time>2021-08-22T09:18:01Z</time>
      </trkpt>
      <trkpt lat="44.93971" lon="2.45704">
        <ele>638.4</ele>
        <time>2021-08-22T09:18:03Z</time>
      </trkpt>
      <trkpt lat="44.9398" lon="2.45709">
        <ele>638.3</ele>
        <time>2021-08-22T09:18:05Z</time>
      </trkpt>
      <trkpt lat="44.93987" lon="2.45713">
        <ele>638.2</ele>
        <time>2021-08-22T09:18:07Z</time>
      </trkpt>
      <trkpt lat="44.93994" lon="2.45719">
        <ele>637.9</ele>
        <time>2021-08-22T09:18:09Z</time>
      </trkpt>
      <trkpt lat="44.94002" lon="2.45724">
        <ele>637.5</ele>
        <time>2021-08-22T09:18:11Z</time>
      </trkpt>
      <trkpt lat="44.94009" lon="2.4573">
        <ele>637.1</ele>
        <time>2021-08-22T09:18:13Z</time>
      </trkpt>
      <trkpt lat="44.94017" lon="2.45735">
        <ele>636.7</ele>
        <time>2021-08-22T09:18:15Z</time>
      </trkpt>
      <trkpt lat="44.94024" lon="2.45741">
        <ele>636.3</ele>
        <time>2021-08-22T09:18:17Z</time>
      </trkpt>
      <trkpt lat="44.94032" lon="2.45746">
        <ele>636</ele>
        <time>2021-08-22T09:18:19Z</time>
      </trkpt>
      <trkpt lat="44.94039" lon="2.45752">
        <ele>635.8</ele>
        <time>2021-08-22T09:18:21Z</time>
      </trkpt>
      <trkpt lat="44.94047" lon="2.45758">
        <ele>635.8</ele>
        <time>2021-08-22T09:18:23Z</time>
      </trkpt>
      <trkpt lat="44.94054" lon="2.45765">
        <ele>635.9</ele>
        <time>2021-08-22T09:18:25Z</time>
      </trkpt>
      <trkpt lat="44.94063" lon="2.4577">
        <ele>635.9</ele>
        <time>2021-08-22T09:18:27Z</time>
      </trkpt>
      <trkpt lat="44.9407" lon="2.45777">
        <ele>635.9</ele>
        <time>2021-08-22T09:18:29Z</time>
      </trkpt>
      <trkpt lat="44.94079" lon="2.45784">
        <ele>635.8</ele>
        <time>2021-08-22T09:18:31Z</time>
      </trkpt>
      <trkpt lat="44.94088" lon="2.4579">
        <ele>635.7</ele>
        <time>2021-08-22T09:18:33Z</time>
      </trkpt>
      <trkpt lat="44.94096" lon="2.45797">
        <ele>635.5</ele>
        <time>2021-08-22T09:18:35Z</time>
      </trkpt>
      <trkpt lat="44.94104" lon="2.45804">
        <ele>635.3</ele>
        <time>2021-08-22T09:18:37Z</time>
      </trkpt>
      <trkpt lat="44.94112" lon="2.45809">
        <ele>635.1</ele>
        <time>2021-08-22T09:18:39Z</time>
      </trkpt>
      <trkpt lat="44.94121" lon="2.45815">
        <ele>635</ele>
        <time>2021-08-22T09:18:41Z</time>
      </trkpt>
      <trkpt lat="44.94129" lon="2.45821">
        <ele>634.8</ele>
        <time>2021-08-22T09:18:43Z</time>
      </trkpt>
      <trkpt lat="44.94137" lon="2.45828">
        <ele>634.6</ele>
        <time>2021-08-22T09:18:45Z</time>
      </trkpt>
      <trkpt lat="44.94146" lon="2.45834">
        <ele>634.5</ele>
        <time>2021-08-22T09:18:47Z</time>
      </trkpt>
      <trkpt lat="44.94154" lon="2.45841">
        <ele>634.5</ele>
        <time>2021-08-22T09:18:49Z</time>
      </trkpt>
      <trkpt lat="44.94163" lon="2.45847">
        <ele>634.6</ele>
        <time>2021-08-22T09:18:51Z</time>
      </trkpt>
      <trkpt lat="44.9417" lon="2.45853">
        <ele>634.8</ele>
        <time>2021-08-22T09:18:53Z</time>
      </trkpt>
      <trkpt lat="44.94178" lon="2.4586">
        <ele>635.1</ele>
        <time>2021-08-22T09:18:55Z</time>
      </trkpt>
      <trkpt lat="44.94186" lon="2.45866">
        <ele>635.5</ele>
        <time>2021-08-22T09:18:57Z</time>
      </trkpt>
      <trkpt lat="44.94194" lon="2.45871">
        <ele>635.8</ele>
        <time>2021-08-22T09:18:59Z</time>
      </trkpt>
      <trkpt lat="44.94202" lon="2.45877">
        <ele>636</ele>
        <time>2021-08-22T09:19:01Z</time>
      </trkpt>
      <trkpt lat="44.9421" lon="2.45883">
        <ele>636.3</ele>
        <time>2021-08-22T09:19:03Z</time>
      </trkpt>
      <trkpt lat="44.94217" lon="2.45889">
        <ele>636.5</ele>
        <time>2021-08-22T09:19:05Z</time>
      </trkpt>
      <trkpt lat="44.94225" lon="2.45895">
        <ele>636.7</ele>
        <time>2021-08-22T09:19:07Z</time>
      </trkpt>
      <trkpt lat="44.94232" lon="2.459">
        <ele>636.9</ele>
        <time>2021-08-22T09:19:09Z</time>
      </trkpt>
      <trkpt lat="44.9424" lon="2.45906">
        <ele>637</ele>
        <time>2021-08-22T09:19:11Z</time>
      </trkpt>
      <trkpt lat="44.94247" lon="2.45912">
        <ele>637.1</ele>
        <time>2021-08-22T09:19:13Z</time>
      </trkpt>
      <trkpt lat="44.94255" lon="2.45918">
        <ele>637.1</ele>
        <time>2021-08-22T09:19:15Z</time>
      </trkpt>
      <trkpt lat="44.94262" lon="2.45924">
        <ele>637</ele>
        <time>2021-08-22T09:19:17Z</time>
      </trkpt>
      <trkpt lat="44.94269" lon="2.45929">
        <ele>637</ele>
        <time>2021-08-22T09:19:19Z</time>
      </trkpt>
      <trkpt lat="44.94277" lon="2.45935">
        <ele>637.1</ele>
        <time>2021-08-22T09:19:21Z</time>
      </trkpt>
      <trkpt lat="44.94284" lon="2.4594">
        <ele>637.1</ele>
        <time>2021-08-22T09:19:23Z</time>
      </trkpt>
      <trkpt lat="44.94292" lon="2.45945">
        <ele>637.1</ele>
        <time>2021-08-22T09:19:25Z</time>
      </trkpt>
      <trkpt lat="44.94299" lon="2.45951">
        <ele>637.2</ele>
        <time>2021-08-22T09:19:27Z</time>
      </trkpt>
      <trkpt lat="44.94306" lon="2.45957">
        <ele>637.2</ele>
        <time>2021-08-22T09:19:29Z</time>
      </trkpt>
      <trkpt lat="44.94314" lon="2.45963">
        <ele>637.3</ele>
        <time>2021-08-22T09:19:31Z</time>
      </trkpt>
      <trkpt lat="44.94322" lon="2.45968">
        <ele>637.4</ele>
        <time>2021-08-22T09:19:33Z</time>
      </trkpt>
      <trkpt lat="44.9433" lon="2.45975">
        <ele>637.5</ele>
        <time>2021-08-22T09:19:35Z</time>
      </trkpt>
      <trkpt lat="44.94338" lon="2.45981">
        <ele>637.6</ele>
        <time>2021-08-22T09:19:37Z</time>
      </trkpt>
      <trkpt lat="44.94346" lon="2.45987">
        <ele>637.8</ele>
        <time>2021-08-22T09:19:39Z</time>
      </trkpt>
      <trkpt lat="44.94354" lon="2.45993">
        <ele>637.9</ele>
        <time>2021-08-22T09:19:41Z</time>
      </trkpt>
      <trkpt lat="44.94362" lon="2.45999">
        <ele>638</ele>
        <time>2021-08-22T09:19:43Z</time>
      </trkpt>
      <trkpt lat="44.9437" lon="2.46006">
        <ele>638.2</ele>
        <time>2021-08-22T09:19:45Z</time>
      </trkpt>
      <trkpt lat="44.94378" lon="2.46012">
        <ele>638.4</ele>
        <time>2021-08-22T09:19:47Z</time>
      </trkpt>
      <trkpt lat="44.94386" lon="2.46018">
        <ele>638.6</ele>
        <time>2021-08-22T09:19:49Z</time>
      </trkpt>
      <trkpt lat="44.94394" lon="2.46024">
        <ele>638.8</ele>
        <time>2021-08-22T09:19:51Z</time>
      </trkpt>
      <trkpt lat="44.94402" lon="2.4603">
        <ele>639</ele>
        <time>2021-08-22T09:19:53Z</time>
      </trkpt>
      <trkpt lat="44.94409" lon="2.46036">
        <ele>639.3</ele>
        <time>2021-08-22T09:19:55Z</time>
      </trkpt>
      <trkpt lat="44.94418" lon="2.46043">
        <ele>639.5</ele>
        <time>2021-08-22T09:19:57Z</time>
      </trkpt>
      <trkpt lat="44.94426" lon="2.46049">
        <ele>639.4</ele>
        <time>2021-08-22T09:19:59Z</time>
      </trkpt>
      <trkpt lat="44.94434" lon="2.46055">
        <ele>639.4</ele>
        <time>2021-08-22T09:20:01Z</time>
      </trkpt>
      <trkpt lat="44.94442" lon="2.46061">
        <ele>639.2</ele>
        <time>2021-08-22T09:20:03Z</time>
      </trkpt>
      <trkpt lat="44.94449" lon="2.46067">
        <ele>639</ele>
        <time>2021-08-22T09:20:05Z</time>
      </trkpt>
      <trkpt lat="44.94457" lon="2.46073">
        <ele>638.8</ele>
        <time>2021-08-22T09:20:07Z</time>
      </trkpt>
      <trkpt lat="44.94464" lon="2.46078">
        <ele>638.6</ele>
        <time>2021-08-22T09:20:09Z</time>
      </trkpt>
      <trkpt lat="44.94471" lon="2.46085">
        <ele>638.3</ele>
        <time>2021-08-22T09:20:11Z</time>
      </trkpt>
      <trkpt lat="44.94479" lon="2.4609">
        <ele>638.2</ele>
        <time>2021-08-22T09:20:13Z</time>
      </trkpt>
      <trkpt lat="44.94486" lon="2.46095">
        <ele>638.1</ele>
        <time>2021-08-22T09:20:15Z</time>
      </trkpt>
      <trkpt lat="44.94493" lon="2.46101">
        <ele>638</ele>
        <time>2021-08-22T09:20:17Z</time>
      </trkpt>
      <trkpt lat="44.945" lon="2.46107">
        <ele>638</ele>
        <time>2021-08-22T09:20:19Z</time>
      </trkpt>
      <trkpt lat="44.94507" lon="2.46114">
        <ele>638.2</ele>
        <time>2021-08-22T09:20:21Z</time>
      </trkpt>
      <trkpt lat="44.94513" lon="2.46123">
        <ele>638.3</ele>
        <time>2021-08-22T09:20:23Z</time>
      </trkpt>
      <trkpt lat="44.94517" lon="2.46133">
        <ele>638.4</ele>
        <time>2021-08-22T09:20:25Z</time>
      </trkpt>
      <trkpt lat="44.94518" lon="2.46146">
        <ele>638.3</ele>
        <time>2021-08-22T09:20:27Z</time>
      </trkpt>
      <trkpt lat="44.94525" lon="2.46155">
        <ele>638.4</ele>
        <time>2021-08-22T09:20:29Z</time>
      </trkpt>
      <trkpt lat="44.94533" lon="2.46158">
        <ele>638.5</ele>
        <time>2021-08-22T09:20:31Z</time>
      </trkpt>
      <trkpt lat="44.94541" lon="2.46157">
        <ele>638.6</ele>
        <time>2021-08-22T09:20:33Z</time>
      </trkpt>
      <trkpt lat="44.94549" lon="2.46156">
        <ele>638.7</ele>
        <time>2021-08-22T09:20:35Z</time>
      </trkpt>
      <trkpt lat="44.94557" lon="2.46162">
        <ele>638.8</ele>
        <time>2021-08-22T09:20:37Z</time>
      </trkpt>
      <trkpt lat="44.94564" lon="2.46169">
        <ele>638.7</ele>
        <time>2021-08-22T09:20:39Z</time>
      </trkpt>
      <trkpt lat="44.94571" lon="2.46175">
        <ele>638.7</ele>
        <time>2021-08-22T09:20:41Z</time>
      </trkpt>
      <trkpt lat="44.94578" lon="2.46181">
        <ele>638.6</ele>
        <time>2021-08-22T09:20:43Z</time>
      </trkpt>
      <trkpt lat="44.94585" lon="2.46187">
        <ele>638.6</ele>
        <time>2021-08-22T09:20:45Z</time>
      </trkpt>
      <trkpt lat="44.94592" lon="2.46194">
        <ele>638.8</ele>
        <time>2021-08-22T09:20:47Z</time>
      </trkpt>
      <trkpt lat="44.94599" lon="2.462">
        <ele>639</ele>
        <time>2021-08-22T09:20:49Z</time>
      </trkpt>
      <trkpt lat="44.94606" lon="2.46205">
        <ele>639.2</ele>
        <time>2021-08-22T09:20:51Z</time>
      </trkpt>
      <trkpt lat="44.94614" lon="2.4621">
        <ele>639.4</ele>
        <time>2021-08-22T09:20:53Z</time>
      </trkpt>
      <trkpt lat="44.94621" lon="2.46215">
        <ele>639.6</ele>
        <time>2021-08-22T09:20:55Z</time>
      </trkpt>
      <trkpt lat="44.94628" lon="2.4622">
        <ele>639.8</ele>
        <time>2021-08-22T09:20:57Z</time>
      </trkpt>
      <trkpt lat="44.94635" lon="2.46224">
        <ele>640.1</ele>
        <time>2021-08-22T09:20:59Z</time>
      </trkpt>
      <trkpt lat="44.94642" lon="2.4623">
        <ele>640.3</ele>
        <time>2021-08-22T09:21:01Z</time>
      </trkpt>
      <trkpt lat="44.94649" lon="2.46234">
        <ele>640.5</ele>
        <time>2021-08-22T09:21:03Z</time>
      </trkpt>
      <trkpt lat="44.94656" lon="2.46237">
        <ele>640.8</ele>
        <time>2021-08-22T09:21:05Z</time>
      </trkpt>
      <trkpt lat="44.94663" lon="2.46241">
        <ele>641</ele>
        <time>2021-08-22T09:21:07Z</time>
      </trkpt>
      <trkpt lat="44.94671" lon="2.46244">
        <ele>641.7</ele>
        <time>2021-08-22T09:21:09Z</time>
      </trkpt>
      <trkpt lat="44.94678" lon="2.46248">
        <ele>642.5</ele>
        <time>2021-08-22T09:21:11Z</time>
      </trkpt>
      <trkpt lat="44.94685" lon="2.4625">
        <ele>643.5</ele>
        <time>2021-08-22T09:21:13Z</time>
      </trkpt>
      <trkpt lat="44.94693" lon="2.46254">
        <ele>644.2</ele>
        <time>2021-08-22T09:21:15Z</time>
      </trkpt>
      <trkpt lat="44.94701" lon="2.46257">
        <ele>645.1</ele>
        <time>2021-08-22T09:21:17Z</time>
      </trkpt>
      <trkpt lat="44.94708" lon="2.4626">
        <ele>645.7</ele>
        <time>2021-08-22T09:21:19Z</time>
      </trkpt>
      <trkpt lat="44.94716" lon="2.46263">
        <ele>646.4</ele>
        <time>2021-08-22T09:21:21Z</time>
      </trkpt>
      <trkpt lat="44.94723" lon="2.46266">
        <ele>647.1</ele>
        <time>2021-08-22T09:21:23Z</time>
      </trkpt>
      <trkpt lat="44.94731" lon="2.4627">
        <ele>647.6</ele>
        <time>2021-08-22T09:21:25Z</time>
      </trkpt>
      <trkpt lat="44.94738" lon="2.46273">
        <ele>648.1</ele>
        <time>2021-08-22T09:21:27Z</time>
      </trkpt>
      <trkpt lat="44.94745" lon="2.46276">
        <ele>648.7</ele>
        <time>2021-08-22T09:21:29Z</time>
      </trkpt>
      <trkpt lat="44.94752" lon="2.46279">
        <ele>649.1</ele>
        <time>2021-08-22T09:21:31Z</time>
      </trkpt>
      <trkpt lat="44.94759" lon="2.46282">
        <ele>649.3</ele>
        <time>2021-08-22T09:21:33Z</time>
      </trkpt>
      <trkpt lat="44.94766" lon="2.46286">
        <ele>649.5</ele>
        <time>2021-08-22T09:21:35Z</time>
      </trkpt>
      <trkpt lat="44.94773" lon="2.46289">
        <ele>649.7</ele>
        <time>2021-08-22T09:21:37Z</time>
      </trkpt>
      <trkpt lat="44.94779" lon="2.46293">
        <ele>649.8</ele>
        <time>2021-08-22T09:21:39Z</time>
      </trkpt>
      <trkpt lat="44.94786" lon="2.46297">
        <ele>650</ele>
        <time>2021-08-22T09:21:41Z</time>
      </trkpt>
      <trkpt lat="44.94792" lon="2.46301">
        <ele>650.1</ele>
        <time>2021-08-22T09:21:43Z</time>
      </trkpt>
      <trkpt lat="44.94798" lon="2.46305">
        <ele>650.3</ele>
        <time>2021-08-22T09:21:45Z</time>
      </trkpt>
      <trkpt lat="44.94804" lon="2.46309">
        <ele>650.5</ele>
        <time>2021-08-22T09:21:47Z</time>
      </trkpt>
      <trkpt lat="44.9481" lon="2.46313">
        <ele>650.6</ele>
        <time>2021-08-22T09:21:49Z</time>
      </trkpt>
      <trkpt lat="44.94816" lon="2.46317">
        <ele>650.7</ele>
        <time>2021-08-22T09:21:51Z</time>
      </trkpt>
      <trkpt lat="44.94822" lon="2.46321">
        <ele>651</ele>
        <time>2021-08-22T09:21:53Z</time>
      </trkpt>
      <trkpt lat="44.94828" lon="2.46325">
        <ele>651.1</ele>
        <time>2021-08-22T09:21:55Z</time>
      </trkpt>
      <trkpt lat="44.94834" lon="2.46329">
        <ele>651.4</ele>
        <time>2021-08-22T09:21:57Z</time>
      </trkpt>
      <trkpt lat="44.9484" lon="2.46334">
        <ele>651.7</ele>
        <time>2021-08-22T09:21:59Z</time>
      </trkpt>
      <trkpt lat="44.94845" lon="2.46337">
        <ele>652.1</ele>
        <time>2021-08-22T09:22:01Z</time>
      </trkpt>
      <trkpt lat="44.9485" lon="2.46342">
        <ele>652.3</ele>
        <time>2021-08-22T09:22:03Z</time>
      </trkpt>
      <trkpt lat="44.94856" lon="2.46345">
        <ele>652.6</ele>
        <time>2021-08-22T09:22:05Z</time>
      </trkpt>
      <trkpt lat="44.94861" lon="2.46349">
        <ele>652.9</ele>
        <time>2021-08-22T09:22:07Z</time>
      </trkpt>
      <trkpt lat="44.94867" lon="2.46352">
        <ele>653.3</ele>
        <time>2021-08-22T09:22:09Z</time>
      </trkpt>
      <trkpt lat="44.94872" lon="2.46357">
        <ele>653.5</ele>
        <time>2021-08-22T09:22:11Z</time>
      </trkpt>
      <trkpt lat="44.94877" lon="2.4636">
        <ele>653.8</ele>
        <time>2021-08-22T09:22:13Z</time>
      </trkpt>
      <trkpt lat="44.94882" lon="2.46364">
        <ele>654.1</ele>
        <time>2021-08-22T09:22:15Z</time>
      </trkpt>
      <trkpt lat="44.94887" lon="2.46368">
        <ele>654.2</ele>
        <time>2021-08-22T09:22:17Z</time>
      </trkpt>
      <trkpt lat="44.94892" lon="2.46372">
        <ele>654.5</ele>
        <time>2021-08-22T09:22:19Z</time>
      </trkpt>
      <trkpt lat="44.94897" lon="2.46376">
        <ele>654.7</ele>
        <time>2021-08-22T09:22:21Z</time>
      </trkpt>
      <trkpt lat="44.94902" lon="2.46381">
        <ele>654.8</ele>
        <time>2021-08-22T09:22:23Z</time>
      </trkpt>
      <trkpt lat="44.94908" lon="2.46385">
        <ele>655</ele>
        <time>2021-08-22T09:22:25Z</time>
      </trkpt>
      <trkpt lat="44.94913" lon="2.4639">
        <ele>655.2</ele>
        <time>2021-08-22T09:22:27Z</time>
      </trkpt>
      <trkpt lat="44.94918" lon="2.46395">
        <ele>655.5</ele>
        <time>2021-08-22T09:22:29Z</time>
      </trkpt>
      <trkpt lat="44.94923" lon="2.46401">
        <ele>656</ele>
        <time>2021-08-22T09:22:31Z</time>
      </trkpt>
      <trkpt lat="44.94928" lon="2.46406">
        <ele>656.5</ele>
        <time>2021-08-22T09:22:33Z</time>
      </trkpt>
      <trkpt lat="44.94933" lon="2.46412">
        <ele>656.9</ele>
        <time>2021-08-22T09:22:35Z</time>
      </trkpt>
      <trkpt lat="44.94937" lon="2.46418">
        <ele>657.3</ele>
        <time>2021-08-22T09:22:37Z</time>
      </trkpt>
      <trkpt lat="44.94942" lon="2.46425">
        <ele>657.5</ele>
        <time>2021-08-22T09:22:39Z</time>
      </trkpt>
      <trkpt lat="44.94946" lon="2.46431">
        <ele>657.7</ele>
        <time>2021-08-22T09:22:41Z</time>
      </trkpt>
      <trkpt lat="44.9495" lon="2.46437">
        <ele>657.9</ele>
        <time>2021-08-22T09:22:43Z</time>
      </trkpt>
      <trkpt lat="44.94955" lon="2.46444">
        <ele>658</ele>
        <time>2021-08-22T09:22:45Z</time>
      </trkpt>
      <trkpt lat="44.94959" lon="2.4645">
        <ele>658.1</ele>
        <time>2021-08-22T09:22:47Z</time>
      </trkpt>
      <trkpt lat="44.94963" lon="2.46457">
        <ele>658</ele>
        <time>2021-08-22T09:22:49Z</time>
      </trkpt>
      <trkpt lat="44.94967" lon="2.46463">
        <ele>658</ele>
        <time>2021-08-22T09:22:51Z</time>
      </trkpt>
      <trkpt lat="44.94971" lon="2.4647">
        <ele>657.9</ele>
        <time>2021-08-22T09:22:53Z</time>
      </trkpt>
      <trkpt lat="44.94975" lon="2.46476">
        <ele>657.8</ele>
        <time>2021-08-22T09:22:55Z</time>
      </trkpt>
      <trkpt lat="44.94979" lon="2.46483">
        <ele>657.7</ele>
        <time>2021-08-22T09:22:57Z</time>
      </trkpt>
      <trkpt lat="44.94983" lon="2.46489">
        <ele>657.7</ele>
        <time>2021-08-22T09:22:59Z</time>
      </trkpt>
      <trkpt lat="44.94987" lon="2.46495">
        <ele>657.6</ele>
        <time>2021-08-22T09:23:01Z</time>
      </trkpt>
      <trkpt lat="44.94991" lon="2.46501">
        <ele>657.4</ele>
        <time>2021-08-22T09:23:03Z</time>
      </trkpt>
      <trkpt lat="44.94995" lon="2.46506">
        <ele>657.3</ele>
        <time>2021-08-22T09:23:05Z</time>
      </trkpt>
      <trkpt lat="44.94999" lon="2.46511">
        <ele>657.2</ele>
        <time>2021-08-22T09:23:07Z</time>
      </trkpt>
      <trkpt lat="44.95003" lon="2.46517">
        <ele>657.2</ele>
        <time>2021-08-22T09:23:09Z</time>
      </trkpt>
      <trkpt lat="44.95008" lon="2.46521">
        <ele>657.3</ele>
        <time>2021-08-22T09:23:11Z</time>
      </trkpt>
      <trkpt lat="44.95013" lon="2.46525">
        <ele>657.5</ele>
        <time>2021-08-22T09:23:13Z</time>
      </trkpt>
      <trkpt lat="44.95018" lon="2.46529">
        <ele>657.8</ele>
        <time>2021-08-22T09:23:15Z</time>
      </trkpt>
      <trkpt lat="44.95023" lon="2.46531">
        <ele>658.2</ele>
        <time>2021-08-22T09:23:17Z</time>
      </trkpt>
      <trkpt lat="44.95028" lon="2.46534">
        <ele>658.6</ele>
        <time>2021-08-22T09:23:19Z</time>
      </trkpt>
      <trkpt lat="44.95033" lon="2.46537">
        <ele>658.9</ele>
        <time>2021-08-22T09:23:21Z</time>
      </trkpt>
      <trkpt lat="44.95038" lon="2.46539">
        <ele>659.4</ele>
        <time>2021-08-22T09:23:23Z</time>
      </trkpt>
      <trkpt lat="44.95043" lon="2.4654">
        <ele>660</ele>
        <time>2021-08-22T09:23:25Z</time>
      </trkpt>
      <trkpt lat="44.95048" lon="2.46541">
        <ele>660.6</ele>
        <time>2021-08-22T09:23:27Z</time>
      </trkpt>
      <trkpt lat="44.95053" lon="2.46542">
        <ele>661.1</ele>
        <time>2021-08-22T09:23:29Z</time>
      </trkpt>
      <trkpt lat="44.95058" lon="2.46544">
        <ele>661.7</ele>
        <time>2021-08-22T09:23:31Z</time>
      </trkpt>
      <trkpt lat="44.95063" lon="2.46545">
        <ele>662.3</ele>
        <time>2021-08-22T09:23:33Z</time>
      </trkpt>
      <trkpt lat="44.95069" lon="2.46546">
        <ele>662.9</ele>
        <time>2021-08-22T09:23:35Z</time>
      </trkpt>
      <trkpt lat="44.95074" lon="2.46547">
        <ele>663.5</ele>
        <time>2021-08-22T09:23:37Z</time>
      </trkpt>
      <trkpt lat="44.9508" lon="2.46549">
        <ele>664.1</ele>
        <time>2021-08-22T09:23:39Z</time>
      </trkpt>
      <trkpt lat="44.95085" lon="2.4655">
        <ele>664.5</ele>
        <time>2021-08-22T09:23:41Z</time>
      </trkpt>
      <trkpt lat="44.9509" lon="2.46551">
        <ele>664.9</ele>
        <time>2021-08-22T09:23:43Z</time>
      </trkpt>
      <trkpt lat="44.95095" lon="2.46553">
        <ele>665.1</ele>
        <time>2021-08-22T09:23:45Z</time>
      </trkpt>
      <trkpt lat="44.95101" lon="2.46554">
        <ele>665.5</ele>
        <time>2021-08-22T09:23:47Z</time>
      </trkpt>
      <trkpt lat="44.95106" lon="2.46555">
        <ele>665.8</ele>
        <time>2021-08-22T09:23:49Z</time>
      </trkpt>
      <trkpt lat="44.95112" lon="2.46556">
        <ele>666.1</ele>
        <time>2021-08-22T09:23:51Z</time>
      </trkpt>
      <trkpt lat="44.95118" lon="2.46558">
        <ele>666.5</ele>
        <time>2021-08-22T09:23:53Z</time>
      </trkpt>
      <trkpt lat="44.95123" lon="2.4656">
        <ele>666.8</ele>
        <time>2021-08-22T09:23:55Z</time>
      </trkpt>
      <trkpt lat="44.95129" lon="2.46561">
        <ele>667.1</ele>
        <time>2021-08-22T09:23:57Z</time>
      </trkpt>
      <trkpt lat="44.95134" lon="2.46563">
        <ele>667.3</ele>
        <time>2021-08-22T09:23:59Z</time>
      </trkpt>
      <trkpt lat="44.9514" lon="2.46566">
        <ele>667.6</ele>
        <time>2021-08-22T09:24:01Z</time>
      </trkpt>
      <trkpt lat="44.95146" lon="2.46568">
        <ele>667.8</ele>
        <time>2021-08-22T09:24:03Z</time>
      </trkpt>
      <trkpt lat="44.95151" lon="2.46572">
        <ele>667.9</ele>
        <time>2021-08-22T09:24:05Z</time>
      </trkpt>
      <trkpt lat="44.95157" lon="2.46576">
        <ele>668</ele>
        <time>2021-08-22T09:24:07Z</time>
      </trkpt>
      <trkpt lat="44.95163" lon="2.46581">
        <ele>668</ele>
        <time>2021-08-22T09:24:09Z</time>
      </trkpt>
      <trkpt lat="44.95169" lon="2.46586">
        <ele>668.2</ele>
        <time>2021-08-22T09:24:11Z</time>
      </trkpt>
      <trkpt lat="44.95174" lon="2.4659">
        <ele>668.6</ele>
        <time>2021-08-22T09:24:13Z</time>
      </trkpt>
      <trkpt lat="44.95179" lon="2.46596">
        <ele>668.9</ele>
        <time>2021-08-22T09:24:15Z</time>
      </trkpt>
      <trkpt lat="44.95184" lon="2.46602">
        <ele>668.9</ele>
        <time>2021-08-22T09:24:17Z</time>
      </trkpt>
      <trkpt lat="44.95189" lon="2.46608">
        <ele>669.1</ele>
        <time>2021-08-22T09:24:19Z</time>
      </trkpt>
      <trkpt lat="44.95194" lon="2.46615">
        <ele>669.1</ele>
        <time>2021-08-22T09:24:21Z</time>
      </trkpt>
      <trkpt lat="44.95198" lon="2.46622">
        <ele>669</ele>
        <time>2021-08-22T09:24:23Z</time>
      </trkpt>
      <trkpt lat="44.95203" lon="2.46629">
        <ele>669</ele>
        <time>2021-08-22T09:24:25Z</time>
      </trkpt>
      <trkpt lat="44.95208" lon="2.46637">
        <ele>668.8</ele>
        <time>2021-08-22T09:24:27Z</time>
      </trkpt>
      <trkpt lat="44.95213" lon="2.46645">
        <ele>668.6</ele>
        <time>2021-08-22T09:24:29Z</time>
      </trkpt>
      <trkpt lat="44.95218" lon="2.46653">
        <ele>668.3</ele>
        <time>2021-08-22T09:24:31Z</time>
      </trkpt>
      <trkpt lat="44.95223" lon="2.46661">
        <ele>668.1</ele>
        <time>2021-08-22T09:24:33Z</time>
      </trkpt>
      <trkpt lat="44.95228" lon="2.46669">
        <ele>667.9</ele>
        <time>2021-08-22T09:24:35Z</time>
      </trkpt>
      <trkpt lat="44.95233" lon="2.46676">
        <ele>668.1</ele>
        <time>2021-08-22T09:24:37Z</time>
      </trkpt>
      <trkpt lat="44.95238" lon="2.46685">
        <ele>668.1</ele>
        <time>2021-08-22T09:24:39Z</time>
      </trkpt>
      <trkpt lat="44.95243" lon="2.46694">
        <ele>668.2</ele>
        <time>2021-08-22T09:24:41Z</time>
      </trkpt>
      <trkpt lat="44.95248" lon="2.46702">
        <ele>668.2</ele>
        <time>2021-08-22T09:24:43Z</time>
      </trkpt>
      <trkpt lat="44.95254" lon="2.46711">
        <ele>668.6</ele>
        <time>2021-08-22T09:24:45Z</time>
      </trkpt>
      <trkpt lat="44.95259" lon="2.4672">
        <ele>669.2</ele>
        <time>2021-08-22T09:24:47Z</time>
      </trkpt>
      <trkpt lat="44.95264" lon="2.46729">
        <ele>669.8</ele>
        <time>2021-08-22T09:24:49Z</time>
      </trkpt>
      <trkpt lat="44.9527" lon="2.46737">
        <ele>670.4</ele>
        <time>2021-08-22T09:24:51Z</time>
      </trkpt>
      <trkpt lat="44.95275" lon="2.46747">
        <ele>670.9</ele>
        <time>2021-08-22T09:24:53Z</time>
      </trkpt>
      <trkpt lat="44.95281" lon="2.46756">
        <ele>671.5</ele>
        <time>2021-08-22T09:24:55Z</time>
      </trkpt>
      <trkpt lat="44.95286" lon="2.46765">
        <ele>672</ele>
        <time>2021-08-22T09:24:57Z</time>
      </trkpt>
      <trkpt lat="44.95292" lon="2.46774">
        <ele>672.2</ele>
        <time>2021-08-22T09:24:59Z</time>
      </trkpt>
      <trkpt lat="44.95298" lon="2.46784">
        <ele>672.4</ele>
        <time>2021-08-22T09:25:01Z</time>
      </trkpt>
      <trkpt lat="44.95304" lon="2.46794">
        <ele>672.6</ele>
        <time>2021-08-22T09:25:03Z</time>
      </trkpt>
      <trkpt lat="44.95309" lon="2.46804">
        <ele>672.6</ele>
        <time>2021-08-22T09:25:05Z</time>
      </trkpt>
      <trkpt lat="44.95315" lon="2.46813">
        <ele>672.5</ele>
        <time>2021-08-22T09:25:07Z</time>
      </trkpt>
      <trkpt lat="44.95321" lon="2.46823">
        <ele>672.4</ele>
        <time>2021-08-22T09:25:09Z</time>
      </trkpt>
      <trkpt lat="44.95327" lon="2.46832">
        <ele>672.2</ele>
        <time>2021-08-22T09:25:11Z</time>
      </trkpt>
      <trkpt lat="44.95333" lon="2.46841">
        <ele>672.1</ele>
        <time>2021-08-22T09:25:13Z</time>
      </trkpt>
      <trkpt lat="44.95339" lon="2.4685">
        <ele>672.7</ele>
        <time>2021-08-22T09:25:15Z</time>
      </trkpt>
      <trkpt lat="44.95346" lon="2.46859">
        <ele>673.4</ele>
        <time>2021-08-22T09:25:17Z</time>
      </trkpt>
      <trkpt lat="44.95352" lon="2.46869">
        <ele>673.8</ele>
        <time>2021-08-22T09:25:19Z</time>
      </trkpt>
      <trkpt lat="44.95359" lon="2.46877">
        <ele>674.1</ele>
        <time>2021-08-22T09:25:21Z</time>
      </trkpt>
      <trkpt lat="44.95366" lon="2.46886">
        <ele>674.3</ele>
        <time>2021-08-22T09:25:23Z</time>
      </trkpt>
      <trkpt lat="44.95373" lon="2.46895">
        <ele>674.1</ele>
        <time>2021-08-22T09:25:25Z</time>
      </trkpt>
      <trkpt lat="44.95381" lon="2.46904">
        <ele>673.9</ele>
        <time>2021-08-22T09:25:27Z</time>
      </trkpt>
      <trkpt lat="44.95388" lon="2.46912">
        <ele>673.5</ele>
        <time>2021-08-22T09:25:29Z</time>
      </trkpt>
      <trkpt lat="44.95396" lon="2.4692">
        <ele>673.3</ele>
        <time>2021-08-22T09:25:31Z</time>
      </trkpt>
      <trkpt lat="44.95403" lon="2.46928">
        <ele>673.4</ele>
        <time>2021-08-22T09:25:33Z</time>
      </trkpt>
      <trkpt lat="44.9541" lon="2.46935">
        <ele>673.5</ele>
        <time>2021-08-22T09:25:35Z</time>
      </trkpt>
      <trkpt lat="44.95418" lon="2.46942">
        <ele>673.7</ele>
        <time>2021-08-22T09:25:37Z</time>
      </trkpt>
      <trkpt lat="44.95425" lon="2.46948">
        <ele>674.1</ele>
        <time>2021-08-22T09:25:39Z</time>
      </trkpt>
      <trkpt lat="44.95432" lon="2.46954">
        <ele>674.4</ele>
        <time>2021-08-22T09:25:41Z</time>
      </trkpt>
      <trkpt lat="44.95439" lon="2.4696">
        <ele>674.8</ele>
        <time>2021-08-22T09:25:43Z</time>
      </trkpt>
      <trkpt lat="44.95446" lon="2.46966">
        <ele>675.1</ele>
        <time>2021-08-22T09:25:45Z</time>
      </trkpt>
      <trkpt lat="44.95452" lon="2.46972">
        <ele>675.3</ele>
        <time>2021-08-22T09:25:47Z</time>
      </trkpt>
      <trkpt lat="44.95458" lon="2.46977">
        <ele>675.4</ele>
        <time>2021-08-22T09:25:49Z</time>
      </trkpt>
      <trkpt lat="44.95465" lon="2.46983">
        <ele>675.6</ele>
        <time>2021-08-22T09:25:51Z</time>
      </trkpt>
      <trkpt lat="44.9547" lon="2.46988">
        <ele>675.7</ele>
        <time>2021-08-22T09:25:53Z</time>
      </trkpt>
      <trkpt lat="44.95476" lon="2.46993">
        <ele>675.6</ele>
        <time>2021-08-22T09:25:55Z</time>
      </trkpt>
      <trkpt lat="44.95481" lon="2.46997">
        <ele>675.6</ele>
        <time>2021-08-22T09:25:57Z</time>
      </trkpt>
      <trkpt lat="44.95486" lon="2.47001">
        <ele>675.7</ele>
        <time>2021-08-22T09:25:59Z</time>
      </trkpt>
      <trkpt lat="44.95491" lon="2.47006">
        <ele>676.2</ele>
        <time>2021-08-22T09:26:01Z</time>
      </trkpt>
      <trkpt lat="44.95496" lon="2.4701">
        <ele>676.6</ele>
        <time>2021-08-22T09:26:03Z</time>
      </trkpt>
      <trkpt lat="44.95501" lon="2.47014">
        <ele>677.1</ele>
        <time>2021-08-22T09:26:05Z</time>
      </trkpt>
      <trkpt lat="44.95506" lon="2.47018">
        <ele>677.6</ele>
        <time>2021-08-22T09:26:07Z</time>
      </trkpt>
      <trkpt lat="44.9551" lon="2.47023">
        <ele>678</ele>
        <time>2021-08-22T09:26:09Z</time>
      </trkpt>
      <trkpt lat="44.95515" lon="2.47027">
        <ele>678.4</ele>
        <time>2021-08-22T09:26:11Z</time>
      </trkpt>
      <trkpt lat="44.9552" lon="2.47032">
        <ele>678.9</ele>
        <time>2021-08-22T09:26:13Z</time>
      </trkpt>
      <trkpt lat="44.95525" lon="2.47036">
        <ele>679.3</ele>
        <time>2021-08-22T09:26:15Z</time>
      </trkpt>
      <trkpt lat="44.95529" lon="2.4704">
        <ele>679.7</ele>
        <time>2021-08-22T09:26:17Z</time>
      </trkpt>
      <trkpt lat="44.95534" lon="2.47045">
        <ele>680</ele>
        <time>2021-08-22T09:26:19Z</time>
      </trkpt>
      <trkpt lat="44.95538" lon="2.4705">
        <ele>680.2</ele>
        <time>2021-08-22T09:26:21Z</time>
      </trkpt>
      <trkpt lat="44.95542" lon="2.47055">
        <ele>680.5</ele>
        <time>2021-08-22T09:26:23Z</time>
      </trkpt>
      <trkpt lat="44.95548" lon="2.47059">
        <ele>680.9</ele>
        <time>2021-08-22T09:26:25Z</time>
      </trkpt>
      <trkpt lat="44.95553" lon="2.47064">
        <ele>681.3</ele>
        <time>2021-08-22T09:26:27Z</time>
      </trkpt>
      <trkpt lat="44.95557" lon="2.47069">
        <ele>681.5</ele>
        <time>2021-08-22T09:26:29Z</time>
      </trkpt>
      <trkpt lat="44.95562" lon="2.47075">
        <ele>681.7</ele>
        <time>2021-08-22T09:26:31Z</time>
      </trkpt>
      <trkpt lat="44.95566" lon="2.4708">
        <ele>681.8</ele>
        <time>2021-08-22T09:26:33Z</time>
      </trkpt>
      <trkpt lat="44.9557" lon="2.47085">
        <ele>681.9</ele>
        <time>2021-08-22T09:26:35Z</time>
      </trkpt>
      <trkpt lat="44.95575" lon="2.47091">
        <ele>681.7</ele>
        <time>2021-08-22T09:26:37Z</time>
      </trkpt>
      <trkpt lat="44.95579" lon="2.47097">
        <ele>681.6</ele>
        <time>2021-08-22T09:26:39Z</time>
      </trkpt>
      <trkpt lat="44.95584" lon="2.47103">
        <ele>681.5</ele>
        <time>2021-08-22T09:26:41Z</time>
      </trkpt>
      <trkpt lat="44.95589" lon="2.47109">
        <ele>681.8</ele>
        <time>2021-08-22T09:26:43Z</time>
      </trkpt>
      <trkpt lat="44.95593" lon="2.47115">
        <ele>682</ele>
        <time>2021-08-22T09:26:45Z</time>
      </trkpt>
      <trkpt lat="44.95597" lon="2.47122">
        <ele>682.1</ele>
        <time>2021-08-22T09:26:47Z</time>
      </trkpt>
      <trkpt lat="44.95602" lon="2.47129">
        <ele>682.2</ele>
        <time>2021-08-22T09:26:49Z</time>
      </trkpt>
      <trkpt lat="44.95606" lon="2.47135">
        <ele>682.3</ele>
        <time>2021-08-22T09:26:51Z</time>
      </trkpt>
      <trkpt lat="44.9561" lon="2.47142">
        <ele>682.5</ele>
        <time>2021-08-22T09:26:53Z</time>
      </trkpt>
      <trkpt lat="44.95614" lon="2.47149">
        <ele>682.5</ele>
        <time>2021-08-22T09:26:55Z</time>
      </trkpt>
      <trkpt lat="44.95618" lon="2.47157">
        <ele>682.6</ele>
        <time>2021-08-22T09:26:57Z</time>
      </trkpt>
      <trkpt lat="44.95622" lon="2.47165">
        <ele>682.6</ele>
        <time>2021-08-22T09:26:59Z</time>
      </trkpt>
      <trkpt lat="44.95626" lon="2.47172">
        <ele>682.5</ele>
        <time>2021-08-22T09:27:01Z</time>
      </trkpt>
      <trkpt lat="44.9563" lon="2.47181">
        <ele>682.4</ele>
        <time>2021-08-22T09:27:03Z</time>
      </trkpt>
      <trkpt lat="44.95634" lon="2.47189">
        <ele>682.1</ele>
        <time>2021-08-22T09:27:05Z</time>
      </trkpt>
      <trkpt lat="44.95639" lon="2.47198">
        <ele>681.9</ele>
        <time>2021-08-22T09:27:07Z</time>
      </trkpt>
      <trkpt lat="44.95642" lon="2.47206">
        <ele>681.6</ele>
        <time>2021-08-22T09:27:09Z</time>
      </trkpt>
      <trkpt lat="44.95646" lon="2.47215">
        <ele>681.2</ele>
        <time>2021-08-22T09:27:11Z</time>
      </trkpt>
      <trkpt lat="44.9565" lon="2.47224">
        <ele>680.9</ele>
        <time>2021-08-22T09:27:13Z</time>
      </trkpt>
      <trkpt lat="44.95653" lon="2.47232">
        <ele>680.5</ele>
        <time>2021-08-22T09:27:15Z</time>
      </trkpt>
      <trkpt lat="44.95657" lon="2.47241">
        <ele>680.1</ele>
        <time>2021-08-22T09:27:17Z</time>
      </trkpt>
      <trkpt lat="44.95661" lon="2.4725">
        <ele>679.7</ele>
        <time>2021-08-22T09:27:19Z</time>
      </trkpt>
      <trkpt lat="44.95665" lon="2.47258">
        <ele>679.4</ele>
        <time>2021-08-22T09:27:21Z</time>
      </trkpt>
      <trkpt lat="44.95669" lon="2.47267">
        <ele>679.3</ele>
        <time>2021-08-22T09:27:23Z</time>
      </trkpt>
      <trkpt lat="44.95673" lon="2.47276">
        <ele>679.7</ele>
        <time>2021-08-22T09:27:25Z</time>
      </trkpt>
      <trkpt lat="44.95677" lon="2.47285">
        <ele>680.1</ele>
        <time>2021-08-22T09:27:27Z</time>
      </trkpt>
      <trkpt lat="44.9568" lon="2.47294">
        <ele>680.2</ele>
        <time>2021-08-22T09:27:29Z</time>
      </trkpt>
      <trkpt lat="44.95684" lon="2.47303">
        <ele>680.3</ele>
        <time>2021-08-22T09:27:31Z</time>
      </trkpt>
      <trkpt lat="44.95688" lon="2.47312">
        <ele>680.6</ele>
        <time>2021-08-22T09:27:33Z</time>
      </trkpt>
      <trkpt lat="44.95692" lon="2.47321">
        <ele>680.8</ele>
        <time>2021-08-22T09:27:35Z</time>
      </trkpt>
      <trkpt lat="44.95697" lon="2.47331">
        <ele>680.9</ele>
        <time>2021-08-22T09:27:37Z</time>
      </trkpt>
      <trkpt lat="44.95701" lon="2.47341">
        <ele>681.4</ele>
        <time>2021-08-22T09:27:39Z</time>
      </trkpt>
      <trkpt lat="44.95705" lon="2.47351">
        <ele>682</ele>
        <time>2021-08-22T09:27:41Z</time>
      </trkpt>
      <trkpt lat="44.9571" lon="2.4736">
        <ele>682.6</ele>
        <time>2021-08-22T09:27:43Z</time>
      </trkpt>
      <trkpt lat="44.95714" lon="2.47371">
        <ele>682.7</ele>
        <time>2021-08-22T09:27:45Z</time>
      </trkpt>
      <trkpt lat="44.95718" lon="2.47381">
        <ele>683.1</ele>
        <time>2021-08-22T09:27:47Z</time>
      </trkpt>
      <trkpt lat="44.95723" lon="2.47391">
        <ele>683.2</ele>
        <time>2021-08-22T09:27:49Z</time>
      </trkpt>
      <trkpt lat="44.95728" lon="2.47403">
        <ele>683.1</ele>
        <time>2021-08-22T09:27:51Z</time>
      </trkpt>
      <trkpt lat="44.95733" lon="2.47414">
        <ele>682.9</ele>
        <time>2021-08-22T09:27:53Z</time>
      </trkpt>
      <trkpt lat="44.95738" lon="2.47425">
        <ele>682.8</ele>
        <time>2021-08-22T09:27:55Z</time>
      </trkpt>
      <trkpt lat="44.95742" lon="2.47436">
        <ele>682.5</ele>
        <time>2021-08-22T09:27:57Z</time>
      </trkpt>
      <trkpt lat="44.95748" lon="2.47448">
        <ele>682.4</ele>
        <time>2021-08-22T09:27:59Z</time>
      </trkpt>
      <trkpt lat="44.95753" lon="2.47459">
        <ele>682.2</ele>
        <time>2021-08-22T09:28:01Z</time>
      </trkpt>
      <trkpt lat="44.95758" lon="2.47471">
        <ele>681.8</ele>
        <time>2021-08-22T09:28:03Z</time>
      </trkpt>
      <trkpt lat="44.95763" lon="2.47483">
        <ele>681.4</ele>
        <time>2021-08-22T09:28:05Z</time>
      </trkpt>
      <trkpt lat="44.95768" lon="2.47495">
        <ele>680.9</ele>
        <time>2021-08-22T09:28:07Z</time>
      </trkpt>
      <trkpt lat="44.95773" lon="2.47506">
        <ele>680.7</ele>
        <time>2021-08-22T09:28:09Z</time>
      </trkpt>
      <trkpt lat="44.95779" lon="2.47517">
        <ele>681</ele>
        <time>2021-08-22T09:28:11Z</time>
      </trkpt>
      <trkpt lat="44.95783" lon="2.47529">
        <ele>681.1</ele>
        <time>2021-08-22T09:28:13Z</time>
      </trkpt>
      <trkpt lat="44.95788" lon="2.47539">
        <ele>681.3</ele>
        <time>2021-08-22T09:28:15Z</time>
      </trkpt>
      <trkpt lat="44.95792" lon="2.4755">
        <ele>681.4</ele>
        <time>2021-08-22T09:28:17Z</time>
      </trkpt>
      <trkpt lat="44.95797" lon="2.47561">
        <ele>681.5</ele>
        <time>2021-08-22T09:28:19Z</time>
      </trkpt>
      <trkpt lat="44.95801" lon="2.47571">
        <ele>681.7</ele>
        <time>2021-08-22T09:28:21Z</time>
      </trkpt>
      <trkpt lat="44.95806" lon="2.47582">
        <ele>681.9</ele>
        <time>2021-08-22T09:28:23Z</time>
      </trkpt>
      <trkpt lat="44.9581" lon="2.47592">
        <ele>682</ele>
        <time>2021-08-22T09:28:25Z</time>
      </trkpt>
      <trkpt lat="44.95815" lon="2.47602">
        <ele>682.3</ele>
        <time>2021-08-22T09:28:27Z</time>
      </trkpt>
      <trkpt lat="44.95819" lon="2.47612">
        <ele>682.7</ele>
        <time>2021-08-22T09:28:29Z</time>
      </trkpt>
      <trkpt lat="44.95823" lon="2.47622">
        <ele>682.9</ele>
        <time>2021-08-22T09:28:31Z</time>
      </trkpt>
      <trkpt lat="44.95828" lon="2.47631">
        <ele>683.3</ele>
        <time>2021-08-22T09:28:33Z</time>
      </trkpt>
      <trkpt lat="44.95832" lon="2.4764">
        <ele>683.5</ele>
        <time>2021-08-22T09:28:35Z</time>
      </trkpt>
      <trkpt lat="44.95837" lon="2.47649">
        <ele>684.2</ele>
        <time>2021-08-22T09:28:37Z</time>
      </trkpt>
      <trkpt lat="44.95841" lon="2.47658">
        <ele>684.7</ele>
        <time>2021-08-22T09:28:39Z</time>
      </trkpt>
      <trkpt lat="44.95846" lon="2.47666">
        <ele>685.3</ele>
        <time>2021-08-22T09:28:41Z</time>
      </trkpt>
      <trkpt lat="44.9585" lon="2.47675">
        <ele>685.5</ele>
        <time>2021-08-22T09:28:43Z</time>
      </trkpt>
      <trkpt lat="44.95855" lon="2.47683">
        <ele>685.6</ele>
        <time>2021-08-22T09:28:45Z</time>
      </trkpt>
      <trkpt lat="44.95859" lon="2.47691">
        <ele>685.8</ele>
        <time>2021-08-22T09:28:47Z</time>
      </trkpt>
      <trkpt lat="44.95864" lon="2.47699">
        <ele>686.1</ele>
        <time>2021-08-22T09:28:49Z</time>
      </trkpt>
      <trkpt lat="44.95869" lon="2.47706">
        <ele>686.6</ele>
        <time>2021-08-22T09:28:51Z</time>
      </trkpt>
      <trkpt lat="44.95873" lon="2.47713">
        <ele>687</ele>
        <time>2021-08-22T09:28:53Z</time>
      </trkpt>
      <trkpt lat="44.95877" lon="2.4772">
        <ele>687.6</ele>
        <time>2021-08-22T09:28:55Z</time>
      </trkpt>
      <trkpt lat="44.95882" lon="2.47727">
        <ele>688.2</ele>
        <time>2021-08-22T09:28:57Z</time>
      </trkpt>
      <trkpt lat="44.95886" lon="2.47734">
        <ele>688.8</ele>
        <time>2021-08-22T09:28:59Z</time>
      </trkpt>
      <trkpt lat="44.95891" lon="2.4774">
        <ele>689.9</ele>
        <time>2021-08-22T09:29:01Z</time>
      </trkpt>
      <trkpt lat="44.95897" lon="2.47746">
        <ele>690.9</ele>
        <time>2021-08-22T09:29:03Z</time>
      </trkpt>
      <trkpt lat="44.95901" lon="2.47753">
        <ele>691.2</ele>
        <time>2021-08-22T09:29:05Z</time>
      </trkpt>
      <trkpt lat="44.95907" lon="2.47758">
        <ele>692</ele>
        <time>2021-08-22T09:29:07Z</time>
      </trkpt>
      <trkpt lat="44.95912" lon="2.47765">
        <ele>692.2</ele>
        <time>2021-08-22T09:29:09Z</time>
      </trkpt>
      <trkpt lat="44.95918" lon="2.4777">
        <ele>692.6</ele>
        <time>2021-08-22T09:29:11Z</time>
      </trkpt>
      <trkpt lat="44.95923" lon="2.47777">
        <ele>692.2</ele>
        <time>2021-08-22T09:29:13Z</time>
      </trkpt>
      <trkpt lat="44.95928" lon="2.47782">
        <ele>692.2</ele>
        <time>2021-08-22T09:29:15Z</time>
      </trkpt>
      <trkpt lat="44.95933" lon="2.47789">
        <ele>691.9</ele>
        <time>2021-08-22T09:29:17Z</time>
      </trkpt>
      <trkpt lat="44.95939" lon="2.47795">
        <ele>691.8</ele>
        <time>2021-08-22T09:29:19Z</time>
      </trkpt>
      <trkpt lat="44.95945" lon="2.47801">
        <ele>691.7</ele>
        <time>2021-08-22T09:29:21Z</time>
      </trkpt>
      <trkpt lat="44.95952" lon="2.47806">
        <ele>691.7</ele>
        <time>2021-08-22T09:29:23Z</time>
      </trkpt>
      <trkpt lat="44.95958" lon="2.47812">
        <ele>691.6</ele>
        <time>2021-08-22T09:29:25Z</time>
      </trkpt>
      <trkpt lat="44.95965" lon="2.47818">
        <ele>691.7</ele>
        <time>2021-08-22T09:29:27Z</time>
      </trkpt>
      <trkpt lat="44.95972" lon="2.47824">
        <ele>691.6</ele>
        <time>2021-08-22T09:29:29Z</time>
      </trkpt>
      <trkpt lat="44.95979" lon="2.4783">
        <ele>691.6</ele>
        <time>2021-08-22T09:29:31Z</time>
      </trkpt>
      <trkpt lat="44.95986" lon="2.47835">
        <ele>691.7</ele>
        <time>2021-08-22T09:29:33Z</time>
      </trkpt>
      <trkpt lat="44.95994" lon="2.47841">
        <ele>691.7</ele>
        <time>2021-08-22T09:29:35Z</time>
      </trkpt>
      <trkpt lat="44.96001" lon="2.47847">
        <ele>691.6</ele>
        <time>2021-08-22T09:29:37Z</time>
      </trkpt>
      <trkpt lat="44.96009" lon="2.47854">
        <ele>690.8</ele>
        <time>2021-08-22T09:29:39Z</time>
      </trkpt>
      <trkpt lat="44.96018" lon="2.4786">
        <ele>690.2</ele>
        <time>2021-08-22T09:29:41Z</time>
      </trkpt>
      <trkpt lat="44.96026" lon="2.47867">
        <ele>689.6</ele>
        <time>2021-08-22T09:29:43Z</time>
      </trkpt>
      <trkpt lat="44.96034" lon="2.47873">
        <ele>689.2</ele>
        <time>2021-08-22T09:29:45Z</time>
      </trkpt>
      <trkpt lat="44.96043" lon="2.4788">
        <ele>688.9</ele>
        <time>2021-08-22T09:29:47Z</time>
      </trkpt>
      <trkpt lat="44.96051" lon="2.47886">
        <ele>688.6</ele>
        <time>2021-08-22T09:29:49Z</time>
      </trkpt>
      <trkpt lat="44.9606" lon="2.47894">
        <ele>688.4</ele>
        <time>2021-08-22T09:29:51Z</time>
      </trkpt>
      <trkpt lat="44.96069" lon="2.47902">
        <ele>688.2</ele>
        <time>2021-08-22T09:29:53Z</time>
      </trkpt>
      <trkpt lat="44.96078" lon="2.47911">
        <ele>688.1</ele>
        <time>2021-08-22T09:29:55Z</time>
      </trkpt>
      <trkpt lat="44.96088" lon="2.4792">
        <ele>688.1</ele>
        <time>2021-08-22T09:29:57Z</time>
      </trkpt>
      <trkpt lat="44.96097" lon="2.47931">
        <ele>688.2</ele>
        <time>2021-08-22T09:29:59Z</time>
      </trkpt>
      <trkpt lat="44.96108" lon="2.47942">
        <ele>688.2</ele>
        <time>2021-08-22T09:30:01Z</time>
      </trkpt>
      <trkpt lat="44.96118" lon="2.47954">
        <ele>688.1</ele>
        <time>2021-08-22T09:30:03Z</time>
      </trkpt>
      <trkpt lat="44.96128" lon="2.47966">
        <ele>687.8</ele>
        <time>2021-08-22T09:30:05Z</time>
      </trkpt>
      <trkpt lat="44.96138" lon="2.47979">
        <ele>687.6</ele>
        <time>2021-08-22T09:30:07Z</time>
      </trkpt>
      <trkpt lat="44.96148" lon="2.47993">
        <ele>687.1</ele>
        <time>2021-08-22T09:30:09Z</time>
      </trkpt>
      <trkpt lat="44.96158" lon="2.48007">
        <ele>687.4</ele>
        <time>2021-08-22T09:30:11Z</time>
      </trkpt>
      <trkpt lat="44.96167" lon="2.48022">
        <ele>688.2</ele>
        <time>2021-08-22T09:30:13Z</time>
      </trkpt>
      <trkpt lat="44.96178" lon="2.48038">
        <ele>687.8</ele>
        <time>2021-08-22T09:30:15Z</time>
      </trkpt>
      <trkpt lat="44.96188" lon="2.48053">
        <ele>687.1</ele>
        <time>2021-08-22T09:30:17Z</time>
      </trkpt>
      <trkpt lat="44.96197" lon="2.48069">
        <ele>686.3</ele>
        <time>2021-08-22T09:30:19Z</time>
      </trkpt>
      <trkpt lat="44.96207" lon="2.48086">
        <ele>685.4</ele>
        <time>2021-08-22T09:30:21Z</time>
      </trkpt>
      <trkpt lat="44.96214" lon="2.48103">
        <ele>686.4</ele>
        <time>2021-08-22T09:30:23Z</time>
      </trkpt>
      <trkpt lat="44.96218" lon="2.48117">
        <ele>687.3</ele>
        <time>2021-08-22T09:30:25Z</time>
      </trkpt>
      <trkpt lat="44.96218" lon="2.48127">
        <ele>687.5</ele>
        <time>2021-08-22T09:30:27Z</time>
      </trkpt>
      <trkpt lat="44.96218" lon="2.48128">
        <ele>687.6</ele>
        <time>2021-08-22T09:30:29Z</time>
      </trkpt>
      <trkpt lat="44.96218" lon="2.48129">
        <ele>687.7</ele>
        <time>2021-08-22T09:30:31Z</time>
      </trkpt>
      <trkpt lat="44.96218" lon="2.48129">
        <ele>687.7</ele>
        <time>2021-08-22T09:30:33Z</time>
      </trkpt>
      <trkpt lat="44.96219" lon="2.48129">
        <ele>687.7</ele>
        <time>2021-08-22T09:30:35Z</time>
      </trkpt>
      <trkpt lat="44.96219" lon="2.48129">
        <ele>687.7</ele>
        <time>2021-08-22T09:30:37Z</time>
      </trkpt>
      <trkpt lat="44.96222" lon="2.48137">
        <ele>688.5</ele>
        <time>2021-08-22T09:33:41Z</time>
      </trkpt>
      <trkpt lat="44.96224" lon="2.48137">
        <ele>688.7</ele>
        <time>2021-08-22T09:33:43Z</time>
      </trkpt>
      <trkpt lat="44.96225" lon="2.48135">
        <ele>688.8</ele>
        <time>2021-08-22T09:33:45Z</time>
      </trkpt>
      <trkpt lat="44.96224" lon="2.48133">
        <ele>688.5</ele>
        <time>2021-08-22T09:33:47Z</time>
      </trkpt>
      <trkpt lat="44.96222" lon="2.48129">
        <ele>688.2</ele>
        <time>2021-08-22T09:33:49Z</time>
      </trkpt>
      <trkpt lat="44.96221" lon="2.48126">
        <ele>687.9</ele>
        <time>2021-08-22T09:33:51Z</time>
      </trkpt>
      <trkpt lat="44.9622" lon="2.48122">
        <ele>687.6</ele>
        <time>2021-08-22T09:33:53Z</time>
      </trkpt>
      <trkpt lat="44.96218" lon="2.48119">
        <ele>687.2</ele>
        <time>2021-08-22T09:33:55Z</time>
      </trkpt>
      <trkpt lat="44.96214" lon="2.48116">
        <ele>686.7</ele>
        <time>2021-08-22T09:33:57Z</time>
      </trkpt>
      <trkpt lat="44.96206" lon="2.48105">
        <ele>685.7</ele>
        <time>2021-08-22T09:33:59Z</time>
      </trkpt>
      <trkpt lat="44.96203" lon="2.48098">
        <ele>685.3</ele>
        <time>2021-08-22T09:34:01Z</time>
      </trkpt>
      <trkpt lat="44.96202" lon="2.48096">
        <ele>685.2</ele>
        <time>2021-08-22T09:34:03Z</time>
      </trkpt>
      <trkpt lat="44.96201" lon="2.48098">
        <ele>685.1</ele>
        <time>2021-08-22T09:34:05Z</time>
      </trkpt>
      <trkpt lat="44.96201" lon="2.48101">
        <ele>685.2</ele>
        <time>2021-08-22T09:34:07Z</time>
      </trkpt>
      <trkpt lat="44.96204" lon="2.48104">
        <ele>685.5</ele>
        <time>2021-08-22T09:34:09Z</time>
      </trkpt>
      <trkpt lat="44.96224" lon="2.48144">
        <ele>689.1</ele>
        <time>2021-08-22T09:37:19Z</time>
      </trkpt>
      <trkpt lat="44.96224" lon="2.48144">
        <ele>689.1</ele>
        <time>2021-08-22T09:37:21Z</time>
      </trkpt>
      <trkpt lat="44.96224" lon="2.48144">
        <ele>689.1</ele>
        <time>2021-08-22T09:37:23Z</time>
      </trkpt>
      <trkpt lat="44.96224" lon="2.48144">
        <ele>689</ele>
        <time>2021-08-22T09:37:25Z</time>
      </trkpt>
      <trkpt lat="44.96224" lon="2.48144">
        <ele>689</ele>
        <time>2021-08-22T09:37:27Z</time>
      </trkpt>
      <trkpt lat="44.96224" lon="2.48147">
        <ele>689.2</ele>
        <time>2021-08-22T09:37:29Z</time>
      </trkpt>
      <trkpt lat="44.96226" lon="2.48148">
        <ele>689.5</ele>
        <time>2021-08-22T09:37:31Z</time>
      </trkpt>
      <trkpt lat="44.96227" lon="2.48146">
        <ele>689.7</ele>
        <time>2021-08-22T09:37:33Z</time>
      </trkpt>
      <trkpt lat="44.96225" lon="2.48142">
        <ele>689.1</ele>
        <time>2021-08-22T09:37:35Z</time>
      </trkpt>
      <trkpt lat="44.96222" lon="2.48137">
        <ele>688.5</ele>
        <time>2021-08-22T09:37:37Z</time>
      </trkpt>
      <trkpt lat="44.9622" lon="2.48132">
        <ele>688</ele>
        <time>2021-08-22T09:37:39Z</time>
      </trkpt>
      <trkpt lat="44.9622" lon="2.4813">
        <ele>687.9</ele>
        <time>2021-08-22T09:37:41Z</time>
      </trkpt>
      <trkpt lat="44.9622" lon="2.4813">
        <ele>687.9</ele>
        <time>2021-08-22T09:37:43Z</time>
      </trkpt>
      <trkpt lat="44.9622" lon="2.4813">
        <ele>687.9</ele>
        <time>2021-08-22T09:37:45Z</time>
      </trkpt>
      <trkpt lat="44.9622" lon="2.4813">
        <ele>687.9</ele>
        <time>2021-08-22T09:37:47Z</time>
      </trkpt>
      <trkpt lat="44.96235" lon="2.48255">
        <ele>695.1</ele>
        <time>2021-08-22T09:45:27Z</time>
      </trkpt>
      <trkpt lat="44.96235" lon="2.48264">
        <ele>694.6</ele>
        <time>2021-08-22T09:45:29Z</time>
      </trkpt>
      <trkpt lat="44.96234" lon="2.48272">
        <ele>693.9</ele>
        <time>2021-08-22T09:45:31Z</time>
      </trkpt>
      <trkpt lat="44.96234" lon="2.48281">
        <ele>693.4</ele>
        <time>2021-08-22T09:45:33Z</time>
      </trkpt>
      <trkpt lat="44.96234" lon="2.48289">
        <ele>692.8</ele>
        <time>2021-08-22T09:45:35Z</time>
      </trkpt>
      <trkpt lat="44.96234" lon="2.48298">
        <ele>692.4</ele>
        <time>2021-08-22T09:45:37Z</time>
      </trkpt>
      <trkpt lat="44.96234" lon="2.48306">
        <ele>691.9</ele>
        <time>2021-08-22T09:45:39Z</time>
      </trkpt>
      <trkpt lat="44.96234" lon="2.48315">
        <ele>691.3</ele>
        <time>2021-08-22T09:45:41Z</time>
      </trkpt>
      <trkpt lat="44.96234" lon="2.48324">
        <ele>690.9</ele>
        <time>2021-08-22T09:45:43Z</time>
      </trkpt>
      <trkpt lat="44.96235" lon="2.48331">
        <ele>690.7</ele>
        <time>2021-08-22T09:45:45Z</time>
      </trkpt>
      <trkpt lat="44.96236" lon="2.48339">
        <ele>690.3</ele>
        <time>2021-08-22T09:45:47Z</time>
      </trkpt>
      <trkpt lat="44.96237" lon="2.48348">
        <ele>690</ele>
        <time>2021-08-22T09:45:49Z</time>
      </trkpt>
      <trkpt lat="44.96238" lon="2.48356">
        <ele>689.8</ele>
        <time>2021-08-22T09:45:51Z</time>
      </trkpt>
      <trkpt lat="44.9624" lon="2.48364">
        <ele>689.5</ele>
        <time>2021-08-22T09:45:53Z</time>
      </trkpt>
      <trkpt lat="44.96241" lon="2.48372">
        <ele>689.3</ele>
        <time>2021-08-22T09:45:55Z</time>
      </trkpt>
      <trkpt lat="44.96243" lon="2.48381">
        <ele>689.1</ele>
        <time>2021-08-22T09:45:57Z</time>
      </trkpt>
      <trkpt lat="44.96245" lon="2.4839">
        <ele>688.9</ele>
        <time>2021-08-22T09:45:59Z</time>
      </trkpt>
      <trkpt lat="44.96247" lon="2.48399">
        <ele>688.8</ele>
        <time>2021-08-22T09:46:01Z</time>
      </trkpt>
      <trkpt lat="44.96249" lon="2.48407">
        <ele>688.6</ele>
        <time>2021-08-22T09:46:03Z</time>
      </trkpt>
      <trkpt lat="44.96252" lon="2.48416">
        <ele>688.2</ele>
        <time>2021-08-22T09:46:05Z</time>
      </trkpt>
      <trkpt lat="44.96254" lon="2.48425">
        <ele>687.5</ele>
        <time>2021-08-22T09:46:07Z</time>
      </trkpt>
      <trkpt lat="44.96257" lon="2.48436">
        <ele>686.7</ele>
        <time>2021-08-22T09:46:09Z</time>
      </trkpt>
      <trkpt lat="44.9626" lon="2.48447">
        <ele>685.9</ele>
        <time>2021-08-22T09:46:11Z</time>
      </trkpt>
      <trkpt lat="44.96266" lon="2.48458">
        <ele>685.3</ele>
        <time>2021-08-22T09:46:13Z</time>
      </trkpt>
      <trkpt lat="44.96273" lon="2.48469">
        <ele>684.8</ele>
        <time>2021-08-22T09:46:15Z</time>
      </trkpt>
      <trkpt lat="44.96283" lon="2.48478">
        <ele>684.8</ele>
        <time>2021-08-22T09:46:17Z</time>
      </trkpt>
      <trkpt lat="44.96294" lon="2.48484">
        <ele>685.2</ele>
        <time>2021-08-22T09:46:19Z</time>
      </trkpt>
      <trkpt lat="44.96307" lon="2.48489">
        <ele>685.8</ele>
        <time>2021-08-22T09:46:21Z</time>
      </trkpt>
      <trkpt lat="44.96319" lon="2.48496">
        <ele>686.1</ele>
        <time>2021-08-22T09:46:23Z</time>
      </trkpt>
      <trkpt lat="44.96332" lon="2.48506">
        <ele>686</ele>
        <time>2021-08-22T09:46:25Z</time>
      </trkpt>
      <trkpt lat="44.96343" lon="2.48518">
        <ele>686.2</ele>
        <time>2021-08-22T09:46:27Z</time>
      </trkpt>
      <trkpt lat="44.96354" lon="2.48534">
        <ele>685.7</ele>
        <time>2021-08-22T09:46:29Z</time>
      </trkpt>
      <trkpt lat="44.96364" lon="2.4855">
        <ele>685.1</ele>
        <time>2021-08-22T09:46:31Z</time>
      </trkpt>
      <trkpt lat="44.96375" lon="2.48566">
        <ele>684.2</ele>
        <time>2021-08-22T09:46:33Z</time>
      </trkpt>
      <trkpt lat="44.96385" lon="2.48582">
        <ele>683.4</ele>
        <time>2021-08-22T09:46:35Z</time>
      </trkpt>
      <trkpt lat="44.96398" lon="2.48594">
        <ele>683.4</ele>
        <time>2021-08-22T09:46:37Z</time>
      </trkpt>
      <trkpt lat="44.9641" lon="2.48605">
        <ele>683.6</ele>
        <time>2021-08-22T09:46:39Z</time>
      </trkpt>
      <trkpt lat="44.96424" lon="2.48612">
        <ele>683.6</ele>
        <time>2021-08-22T09:46:41Z</time>
      </trkpt>
      <trkpt lat="44.96437" lon="2.48616">
        <ele>683.9</ele>
        <time>2021-08-22T09:46:43Z</time>
      </trkpt>
      <trkpt lat="44.96449" lon="2.48619">
        <ele>684.5</ele>
        <time>2021-08-22T09:46:45Z</time>
      </trkpt>
      <trkpt lat="44.96461" lon="2.48621">
        <ele>685</ele>
        <time>2021-08-22T09:46:47Z</time>
      </trkpt>
      <trkpt lat="44.96473" lon="2.48625">
        <ele>685.4</ele>
        <time>2021-08-22T09:46:49Z</time>
      </trkpt>
      <trkpt lat="44.96483" lon="2.48632">
        <ele>685.4</ele>
        <time>2021-08-22T09:46:51Z</time>
      </trkpt>
      <trkpt lat="44.96492" lon="2.48639">
        <ele>685.2</ele>
        <time>2021-08-22T09:46:53Z</time>
      </trkpt>
      <trkpt lat="44.965" lon="2.48647">
        <ele>685.1</ele>
        <time>2021-08-22T09:46:55Z</time>
      </trkpt>
      <trkpt lat="44.96507" lon="2.48657">
        <ele>684.6</ele>
        <time>2021-08-22T09:46:57Z</time>
      </trkpt>
      <trkpt lat="44.96513" lon="2.48667">
        <ele>684.1</ele>
        <time>2021-08-22T09:46:59Z</time>
      </trkpt>
      <trkpt lat="44.96518" lon="2.48676">
        <ele>683.9</ele>
        <time>2021-08-22T09:47:01Z</time>
      </trkpt>
      <trkpt lat="44.96524" lon="2.48686">
        <ele>683.9</ele>
        <time>2021-08-22T09:47:03Z</time>
      </trkpt>
      <trkpt lat="44.96531" lon="2.48696">
        <ele>683.9</ele>
        <time>2021-08-22T09:47:05Z</time>
      </trkpt>
      <trkpt lat="44.96538" lon="2.48706">
        <ele>684</ele>
        <time>2021-08-22T09:47:07Z</time>
      </trkpt>
      <trkpt lat="44.96545" lon="2.48716">
        <ele>684.1</ele>
        <time>2021-08-22T09:47:09Z</time>
      </trkpt>
      <trkpt lat="44.96551" lon="2.48728">
        <ele>684.2</ele>
        <time>2021-08-22T09:47:11Z</time>
      </trkpt>
      <trkpt lat="44.96556" lon="2.48741">
        <ele>684.1</ele>
        <time>2021-08-22T09:47:13Z</time>
      </trkpt>
      <trkpt lat="44.9656" lon="2.48756">
        <ele>684.2</ele>
        <time>2021-08-22T09:47:15Z</time>
      </trkpt>
      <trkpt lat="44.96562" lon="2.48771">
        <ele>684.6</ele>
        <time>2021-08-22T09:47:17Z</time>
      </trkpt>
      <trkpt lat="44.96564" lon="2.48787">
        <ele>684.7</ele>
        <time>2021-08-22T09:47:19Z</time>
      </trkpt>
      <trkpt lat="44.96565" lon="2.48803">
        <ele>684.9</ele>
        <time>2021-08-22T09:47:21Z</time>
      </trkpt>
      <trkpt lat="44.96567" lon="2.48819">
        <ele>685.2</ele>
        <time>2021-08-22T09:47:23Z</time>
      </trkpt>
      <trkpt lat="44.96568" lon="2.48836">
        <ele>685.3</ele>
        <time>2021-08-22T09:47:25Z</time>
      </trkpt>
      <trkpt lat="44.9657" lon="2.48852">
        <ele>685</ele>
        <time>2021-08-22T09:47:27Z</time>
      </trkpt>
      <trkpt lat="44.96572" lon="2.48868">
        <ele>684.7</ele>
        <time>2021-08-22T09:47:29Z</time>
      </trkpt>
      <trkpt lat="44.96574" lon="2.48884">
        <ele>684.3</ele>
        <time>2021-08-22T09:47:31Z</time>
      </trkpt>
      <trkpt lat="44.96576" lon="2.48901">
        <ele>684</ele>
        <time>2021-08-22T09:47:33Z</time>
      </trkpt>
      <trkpt lat="44.96578" lon="2.48917">
        <ele>683.6</ele>
        <time>2021-08-22T09:47:35Z</time>
      </trkpt>
      <trkpt lat="44.96579" lon="2.48933">
        <ele>683.5</ele>
        <time>2021-08-22T09:47:37Z</time>
      </trkpt>
      <trkpt lat="44.96581" lon="2.48949">
        <ele>683.4</ele>
        <time>2021-08-22T09:47:39Z</time>
      </trkpt>
      <trkpt lat="44.96583" lon="2.48965">
        <ele>683.4</ele>
        <time>2021-08-22T09:47:41Z</time>
      </trkpt>
      <trkpt lat="44.96586" lon="2.48981">
        <ele>683.6</ele>
        <time>2021-08-22T09:47:43Z</time>
      </trkpt>
      <trkpt lat="44.96587" lon="2.48998">
        <ele>683.5</ele>
        <time>2021-08-22T09:47:45Z</time>
      </trkpt>
      <trkpt lat="44.96589" lon="2.49015">
        <ele>683.5</ele>
        <time>2021-08-22T09:47:47Z</time>
      </trkpt>
      <trkpt lat="44.9659" lon="2.49031">
        <ele>683.5</ele>
        <time>2021-08-22T09:47:49Z</time>
      </trkpt>
      <trkpt lat="44.96592" lon="2.49047">
        <ele>683.5</ele>
        <time>2021-08-22T09:47:51Z</time>
      </trkpt>
      <trkpt lat="44.96593" lon="2.49063">
        <ele>683.6</ele>
        <time>2021-08-22T09:47:53Z</time>
      </trkpt>
      <trkpt lat="44.96595" lon="2.49079">
        <ele>683.5</ele>
        <time>2021-08-22T09:47:55Z</time>
      </trkpt>
      <trkpt lat="44.96596" lon="2.49095">
        <ele>683.3</ele>
        <time>2021-08-22T09:47:57Z</time>
      </trkpt>
      <trkpt lat="44.96598" lon="2.4911">
        <ele>683</ele>
        <time>2021-08-22T09:47:59Z</time>
      </trkpt>
      <trkpt lat="44.966" lon="2.49126">
        <ele>682.6</ele>
        <time>2021-08-22T09:48:01Z</time>
      </trkpt>
      <trkpt lat="44.96601" lon="2.49142">
        <ele>682.1</ele>
        <time>2021-08-22T09:48:03Z</time>
      </trkpt>
      <trkpt lat="44.96605" lon="2.49157">
        <ele>681.7</ele>
        <time>2021-08-22T09:48:05Z</time>
      </trkpt>
      <trkpt lat="44.96612" lon="2.4917">
        <ele>681.7</ele>
        <time>2021-08-22T09:48:07Z</time>
      </trkpt>
      <trkpt lat="44.96621" lon="2.49181">
        <ele>682.2</ele>
        <time>2021-08-22T09:48:09Z</time>
      </trkpt>
      <trkpt lat="44.9663" lon="2.49191">
        <ele>682.5</ele>
        <time>2021-08-22T09:48:11Z</time>
      </trkpt>
      <trkpt lat="44.96638" lon="2.49202">
        <ele>682.8</ele>
        <time>2021-08-22T09:48:13Z</time>
      </trkpt>
      <trkpt lat="44.96646" lon="2.49214">
        <ele>682.8</ele>
        <time>2021-08-22T09:48:15Z</time>
      </trkpt>
      <trkpt lat="44.96652" lon="2.49227">
        <ele>682.6</ele>
        <time>2021-08-22T09:48:17Z</time>
      </trkpt>
      <trkpt lat="44.96656" lon="2.49241">
        <ele>682.3</ele>
        <time>2021-08-22T09:48:19Z</time>
      </trkpt>
      <trkpt lat="44.96659" lon="2.49255">
        <ele>682.1</ele>
        <time>2021-08-22T09:48:21Z</time>
      </trkpt>
      <trkpt lat="44.9666" lon="2.4927">
        <ele>682.2</ele>
        <time>2021-08-22T09:48:23Z</time>
      </trkpt>
      <trkpt lat="44.9666" lon="2.49285">
        <ele>682.4</ele>
        <time>2021-08-22T09:48:25Z</time>
      </trkpt>
      <trkpt lat="44.96658" lon="2.493">
        <ele>682.5</ele>
        <time>2021-08-22T09:48:27Z</time>
      </trkpt>
      <trkpt lat="44.96656" lon="2.49314">
        <ele>682.7</ele>
        <time>2021-08-22T09:48:29Z</time>
      </trkpt>
      <trkpt lat="44.96655" lon="2.49329">
        <ele>682.8</ele>
        <time>2021-08-22T09:48:31Z</time>
      </trkpt>
      <trkpt lat="44.96654" lon="2.49344">
        <ele>682.6</ele>
        <time>2021-08-22T09:48:33Z</time>
      </trkpt>
      <trkpt lat="44.96652" lon="2.49358">
        <ele>682.3</ele>
        <time>2021-08-22T09:48:35Z</time>
      </trkpt>
      <trkpt lat="44.96651" lon="2.49372">
        <ele>682</ele>
        <time>2021-08-22T09:48:37Z</time>
      </trkpt>
      <trkpt lat="44.96652" lon="2.49386">
        <ele>681.7</ele>
        <time>2021-08-22T09:48:39Z</time>
      </trkpt>
      <trkpt lat="44.96653" lon="2.49399">
        <ele>681.4</ele>
        <time>2021-08-22T09:48:41Z</time>
      </trkpt>
      <trkpt lat="44.96655" lon="2.49412">
        <ele>681.1</ele>
        <time>2021-08-22T09:48:43Z</time>
      </trkpt>
      <trkpt lat="44.96658" lon="2.49425">
        <ele>680.9</ele>
        <time>2021-08-22T09:48:45Z</time>
      </trkpt>
      <trkpt lat="44.96661" lon="2.49437">
        <ele>680.7</ele>
        <time>2021-08-22T09:48:47Z</time>
      </trkpt>
      <trkpt lat="44.96665" lon="2.49449">
        <ele>680.6</ele>
        <time>2021-08-22T09:48:49Z</time>
      </trkpt>
      <trkpt lat="44.96671" lon="2.4946">
        <ele>680.7</ele>
        <time>2021-08-22T09:48:51Z</time>
      </trkpt>
      <trkpt lat="44.96676" lon="2.49472">
        <ele>680.9</ele>
        <time>2021-08-22T09:48:53Z</time>
      </trkpt>
      <trkpt lat="44.96682" lon="2.49482">
        <ele>681.1</ele>
        <time>2021-08-22T09:48:55Z</time>
      </trkpt>
      <trkpt lat="44.96689" lon="2.49491">
        <ele>681.4</ele>
        <time>2021-08-22T09:48:57Z</time>
      </trkpt>
      <trkpt lat="44.96696" lon="2.495">
        <ele>681.8</ele>
        <time>2021-08-22T09:48:59Z</time>
      </trkpt>
      <trkpt lat="44.96704" lon="2.49507">
        <ele>681.8</ele>
        <time>2021-08-22T09:49:01Z</time>
      </trkpt>
      <trkpt lat="44.96712" lon="2.49515">
        <ele>681.8</ele>
        <time>2021-08-22T09:49:03Z</time>
      </trkpt>
      <trkpt lat="44.9672" lon="2.49521">
        <ele>681.9</ele>
        <time>2021-08-22T09:49:05Z</time>
      </trkpt>
      <trkpt lat="44.96728" lon="2.49527">
        <ele>682.1</ele>
        <time>2021-08-22T09:49:07Z</time>
      </trkpt>
      <trkpt lat="44.96736" lon="2.49532">
        <ele>682.2</ele>
        <time>2021-08-22T09:49:09Z</time>
      </trkpt>
      <trkpt lat="44.96744" lon="2.49538">
        <ele>682.3</ele>
        <time>2021-08-22T09:49:11Z</time>
      </trkpt>
      <trkpt lat="44.96751" lon="2.49544">
        <ele>682.5</ele>
        <time>2021-08-22T09:49:13Z</time>
      </trkpt>
      <trkpt lat="44.96757" lon="2.49551">
        <ele>682.9</ele>
        <time>2021-08-22T09:49:15Z</time>
      </trkpt>
      <trkpt lat="44.96763" lon="2.4956">
        <ele>683.3</ele>
        <time>2021-08-22T09:49:17Z</time>
      </trkpt>
      <trkpt lat="44.96767" lon="2.4957">
        <ele>683.5</ele>
        <time>2021-08-22T09:49:19Z</time>
      </trkpt>
      <trkpt lat="44.96769" lon="2.49584">
        <ele>683.1</ele>
        <time>2021-08-22T09:49:21Z</time>
      </trkpt>
      <trkpt lat="44.96773" lon="2.49597">
        <ele>683.2</ele>
        <time>2021-08-22T09:49:23Z</time>
      </trkpt>
      <trkpt lat="44.96782" lon="2.49605">
        <ele>684.2</ele>
        <time>2021-08-22T09:49:25Z</time>
      </trkpt>
      <trkpt lat="44.9679" lon="2.49616">
        <ele>684.9</ele>
        <time>2021-08-22T09:49:27Z</time>
      </trkpt>
      <trkpt lat="44.96796" lon="2.4963">
        <ele>685.1</ele>
        <time>2021-08-22T09:49:29Z</time>
      </trkpt>
      <trkpt lat="44.96802" lon="2.49647">
        <ele>684.9</ele>
        <time>2021-08-22T09:49:31Z</time>
      </trkpt>
      <trkpt lat="44.96807" lon="2.49665">
        <ele>684.7</ele>
        <time>2021-08-22T09:49:33Z</time>
      </trkpt>
      <trkpt lat="44.96814" lon="2.49685">
        <ele>684</ele>
        <time>2021-08-22T09:49:35Z</time>
      </trkpt>
      <trkpt lat="44.9682" lon="2.49705">
        <ele>683</ele>
        <time>2021-08-22T09:49:37Z</time>
      </trkpt>
      <trkpt lat="44.96827" lon="2.49727">
        <ele>681.7</ele>
        <time>2021-08-22T09:49:39Z</time>
      </trkpt>
      <trkpt lat="44.96832" lon="2.49748">
        <ele>680.1</ele>
        <time>2021-08-22T09:49:41Z</time>
      </trkpt>
      <trkpt lat="44.96836" lon="2.49769">
        <ele>680</ele>
        <time>2021-08-22T09:49:43Z</time>
      </trkpt>
      <trkpt lat="44.96839" lon="2.4979">
        <ele>679.7</ele>
        <time>2021-08-22T09:49:45Z</time>
      </trkpt>
      <trkpt lat="44.96841" lon="2.4981">
        <ele>679</ele>
        <time>2021-08-22T09:49:47Z</time>
      </trkpt>
      <trkpt lat="44.96841" lon="2.4983">
        <ele>678.2</ele>
        <time>2021-08-22T09:49:49Z</time>
      </trkpt>
      <trkpt lat="44.96842" lon="2.4985">
        <ele>678</ele>
        <time>2021-08-22T09:49:51Z</time>
      </trkpt>
      <trkpt lat="44.96842" lon="2.49868">
        <ele>678</ele>
        <time>2021-08-22T09:49:53Z</time>
      </trkpt>
      <trkpt lat="44.96842" lon="2.49886">
        <ele>677.9</ele>
        <time>2021-08-22T09:49:55Z</time>
      </trkpt>
      <trkpt lat="44.96843" lon="2.49903">
        <ele>677.9</ele>
        <time>2021-08-22T09:49:57Z</time>
      </trkpt>
      <trkpt lat="44.96843" lon="2.4992">
        <ele>677.8</ele>
        <time>2021-08-22T09:49:59Z</time>
      </trkpt>
      <trkpt lat="44.96843" lon="2.49936">
        <ele>677.5</ele>
        <time>2021-08-22T09:50:01Z</time>
      </trkpt>
      <trkpt lat="44.96843" lon="2.49952">
        <ele>677.3</ele>
        <time>2021-08-22T09:50:03Z</time>
      </trkpt>
      <trkpt lat="44.96844" lon="2.49968">
        <ele>677</ele>
        <time>2021-08-22T09:50:05Z</time>
      </trkpt>
      <trkpt lat="44.96844" lon="2.49984">
        <ele>676.8</ele>
        <time>2021-08-22T09:50:07Z</time>
      </trkpt>
      <trkpt lat="44.96844" lon="2.49999">
        <ele>676.5</ele>
        <time>2021-08-22T09:50:09Z</time>
      </trkpt>
      <trkpt lat="44.96844" lon="2.50014">
        <ele>676.7</ele>
        <time>2021-08-22T09:50:11Z</time>
      </trkpt>
      <trkpt lat="44.96845" lon="2.50029">
        <ele>676.8</ele>
        <time>2021-08-22T09:50:13Z</time>
      </trkpt>
      <trkpt lat="44.96845" lon="2.50043">
        <ele>676.9</ele>
        <time>2021-08-22T09:50:15Z</time>
      </trkpt>
      <trkpt lat="44.96845" lon="2.50058">
        <ele>677.1</ele>
        <time>2021-08-22T09:50:17Z</time>
      </trkpt>
      <trkpt lat="44.96846" lon="2.50072">
        <ele>677.2</ele>
        <time>2021-08-22T09:50:19Z</time>
      </trkpt>
      <trkpt lat="44.96846" lon="2.50087">
        <ele>677.3</ele>
        <time>2021-08-22T09:50:21Z</time>
      </trkpt>
      <trkpt lat="44.96846" lon="2.50102">
        <ele>677.5</ele>
        <time>2021-08-22T09:50:23Z</time>
      </trkpt>
      <trkpt lat="44.96847" lon="2.50116">
        <ele>677.6</ele>
        <time>2021-08-22T09:50:25Z</time>
      </trkpt>
      <trkpt lat="44.96847" lon="2.5013">
        <ele>677.8</ele>
        <time>2021-08-22T09:50:27Z</time>
      </trkpt>
      <trkpt lat="44.96847" lon="2.50144">
        <ele>677.9</ele>
        <time>2021-08-22T09:50:29Z</time>
      </trkpt>
      <trkpt lat="44.96847" lon="2.50158">
        <ele>678.1</ele>
        <time>2021-08-22T09:50:31Z</time>
      </trkpt>
      <trkpt lat="44.96848" lon="2.50172">
        <ele>678.2</ele>
        <time>2021-08-22T09:50:33Z</time>
      </trkpt>
      <trkpt lat="44.96848" lon="2.50187">
        <ele>678.4</ele>
        <time>2021-08-22T09:50:35Z</time>
      </trkpt>
      <trkpt lat="44.96848" lon="2.50201">
        <ele>678.5</ele>
        <time>2021-08-22T09:50:37Z</time>
      </trkpt>
      <trkpt lat="44.96848" lon="2.50215">
        <ele>678.7</ele>
        <time>2021-08-22T09:50:39Z</time>
      </trkpt>
      <trkpt lat="44.96849" lon="2.50229">
        <ele>678.8</ele>
        <time>2021-08-22T09:50:41Z</time>
      </trkpt>
      <trkpt lat="44.96851" lon="2.50243">
        <ele>678.9</ele>
        <time>2021-08-22T09:50:43Z</time>
      </trkpt>
      <trkpt lat="44.96853" lon="2.50256">
        <ele>679.1</ele>
        <time>2021-08-22T09:50:45Z</time>
      </trkpt>
      <trkpt lat="44.96855" lon="2.5027">
        <ele>679.4</ele>
        <time>2021-08-22T09:50:47Z</time>
      </trkpt>
      <trkpt lat="44.96859" lon="2.50282">
        <ele>679.6</ele>
        <time>2021-08-22T09:50:49Z</time>
      </trkpt>
      <trkpt lat="44.96862" lon="2.50295">
        <ele>679.9</ele>
        <time>2021-08-22T09:50:51Z</time>
      </trkpt>
      <trkpt lat="44.96866" lon="2.50307">
        <ele>680.2</ele>
        <time>2021-08-22T09:50:53Z</time>
      </trkpt>
      <trkpt lat="44.9687" lon="2.50318">
        <ele>680.5</ele>
        <time>2021-08-22T09:50:55Z</time>
      </trkpt>
      <trkpt lat="44.96873" lon="2.5033">
        <ele>680.9</ele>
        <time>2021-08-22T09:50:57Z</time>
      </trkpt>
      <trkpt lat="44.96878" lon="2.50342">
        <ele>680.9</ele>
        <time>2021-08-22T09:50:59Z</time>
      </trkpt>
      <trkpt lat="44.96882" lon="2.50355">
        <ele>680.7</ele>
        <time>2021-08-22T09:51:01Z</time>
      </trkpt>
      <trkpt lat="44.96886" lon="2.50368">
        <ele>680.5</ele>
        <time>2021-08-22T09:51:03Z</time>
      </trkpt>
      <trkpt lat="44.9689" lon="2.50381">
        <ele>680.2</ele>
        <time>2021-08-22T09:51:05Z</time>
      </trkpt>
      <trkpt lat="44.96895" lon="2.50394">
        <ele>679.9</ele>
        <time>2021-08-22T09:51:07Z</time>
      </trkpt>
      <trkpt lat="44.96899" lon="2.50407">
        <ele>679.5</ele>
        <time>2021-08-22T09:51:09Z</time>
      </trkpt>
      <trkpt lat="44.96903" lon="2.50419">
        <ele>679.2</ele>
        <time>2021-08-22T09:51:11Z</time>
      </trkpt>
      <trkpt lat="44.96908" lon="2.50432">
        <ele>679.3</ele>
        <time>2021-08-22T09:51:13Z</time>
      </trkpt>
      <trkpt lat="44.96912" lon="2.50445">
        <ele>679.4</ele>
        <time>2021-08-22T09:51:15Z</time>
      </trkpt>
      <trkpt lat="44.96916" lon="2.50459">
        <ele>679.5</ele>
        <time>2021-08-22T09:51:17Z</time>
      </trkpt>
      <trkpt lat="44.96921" lon="2.50472">
        <ele>679.8</ele>
        <time>2021-08-22T09:51:19Z</time>
      </trkpt>
      <trkpt lat="44.96925" lon="2.50485">
        <ele>679.9</ele>
        <time>2021-08-22T09:51:21Z</time>
      </trkpt>
      <trkpt lat="44.9693" lon="2.50498">
        <ele>680</ele>
        <time>2021-08-22T09:51:23Z</time>
      </trkpt>
      <trkpt lat="44.96934" lon="2.50511">
        <ele>680.1</ele>
        <time>2021-08-22T09:51:25Z</time>
      </trkpt>
      <trkpt lat="44.96938" lon="2.50523">
        <ele>680.2</ele>
        <time>2021-08-22T09:51:27Z</time>
      </trkpt>
      <trkpt lat="44.96942" lon="2.50536">
        <ele>680.3</ele>
        <time>2021-08-22T09:51:29Z</time>
      </trkpt>
      <trkpt lat="44.96946" lon="2.50549">
        <ele>680.4</ele>
        <time>2021-08-22T09:51:31Z</time>
      </trkpt>
      <trkpt lat="44.9695" lon="2.50561">
        <ele>680.4</ele>
        <time>2021-08-22T09:51:33Z</time>
      </trkpt>
      <trkpt lat="44.96954" lon="2.50573">
        <ele>680.5</ele>
        <time>2021-08-22T09:51:35Z</time>
      </trkpt>
      <trkpt lat="44.96959" lon="2.50585">
        <ele>680.5</ele>
        <time>2021-08-22T09:51:37Z</time>
      </trkpt>
      <trkpt lat="44.96964" lon="2.50597">
        <ele>680.4</ele>
        <time>2021-08-22T09:51:39Z</time>
      </trkpt>
      <trkpt lat="44.96969" lon="2.50608">
        <ele>680.4</ele>
        <time>2021-08-22T09:51:41Z</time>
      </trkpt>
      <trkpt lat="44.96976" lon="2.50619">
        <ele>680.3</ele>
        <time>2021-08-22T09:51:43Z</time>
      </trkpt>
      <trkpt lat="44.96983" lon="2.50629">
        <ele>680.2</ele>
        <time>2021-08-22T09:51:45Z</time>
      </trkpt>
      <trkpt lat="44.9699" lon="2.50638">
        <ele>680.1</ele>
        <time>2021-08-22T09:51:47Z</time>
      </trkpt>
      <trkpt lat="44.96998" lon="2.50647">
        <ele>680</ele>
        <time>2021-08-22T09:51:49Z</time>
      </trkpt>
      <trkpt lat="44.97005" lon="2.50654">
        <ele>679.9</ele>
        <time>2021-08-22T09:51:51Z</time>
      </trkpt>
      <trkpt lat="44.97014" lon="2.5066">
        <ele>679.8</ele>
        <time>2021-08-22T09:51:53Z</time>
      </trkpt>
      <trkpt lat="44.97023" lon="2.50666">
        <ele>679.7</ele>
        <time>2021-08-22T09:51:55Z</time>
      </trkpt>
      <trkpt lat="44.97031" lon="2.50672">
        <ele>679.7</ele>
        <time>2021-08-22T09:51:57Z</time>
      </trkpt>
      <trkpt lat="44.97039" lon="2.50678">
        <ele>679.7</ele>
        <time>2021-08-22T09:51:59Z</time>
      </trkpt>
      <trkpt lat="44.97048" lon="2.50684">
        <ele>679.7</ele>
        <time>2021-08-22T09:52:01Z</time>
      </trkpt>
      <trkpt lat="44.97056" lon="2.5069">
        <ele>679.7</ele>
        <time>2021-08-22T09:52:03Z</time>
      </trkpt>
      <trkpt lat="44.97065" lon="2.50695">
        <ele>679.6</ele>
        <time>2021-08-22T09:52:05Z</time>
      </trkpt>
      <trkpt lat="44.97073" lon="2.50701">
        <ele>679.6</ele>
        <time>2021-08-22T09:52:07Z</time>
      </trkpt>
      <trkpt lat="44.97081" lon="2.50707">
        <ele>679.5</ele>
        <time>2021-08-22T09:52:09Z</time>
      </trkpt>
      <trkpt lat="44.97089" lon="2.50713">
        <ele>679.8</ele>
        <time>2021-08-22T09:52:11Z</time>
      </trkpt>
      <trkpt lat="44.97097" lon="2.50719">
        <ele>680.2</ele>
        <time>2021-08-22T09:52:13Z</time>
      </trkpt>
      <trkpt lat="44.97105" lon="2.50725">
        <ele>680.6</ele>
        <time>2021-08-22T09:52:15Z</time>
      </trkpt>
      <trkpt lat="44.97114" lon="2.5073">
        <ele>680.9</ele>
        <time>2021-08-22T09:52:17Z</time>
      </trkpt>
      <trkpt lat="44.97122" lon="2.50736">
        <ele>681.3</ele>
        <time>2021-08-22T09:52:19Z</time>
      </trkpt>
      <trkpt lat="44.9713" lon="2.50742">
        <ele>681.6</ele>
        <time>2021-08-22T09:52:21Z</time>
      </trkpt>
      <trkpt lat="44.97138" lon="2.50749">
        <ele>682</ele>
        <time>2021-08-22T09:52:23Z</time>
      </trkpt>
      <trkpt lat="44.97146" lon="2.50756">
        <ele>682.2</ele>
        <time>2021-08-22T09:52:25Z</time>
      </trkpt>
      <trkpt lat="44.97154" lon="2.50764">
        <ele>682.3</ele>
        <time>2021-08-22T09:52:27Z</time>
      </trkpt>
      <trkpt lat="44.97161" lon="2.50773">
        <ele>682.3</ele>
        <time>2021-08-22T09:52:29Z</time>
      </trkpt>
      <trkpt lat="44.97168" lon="2.50783">
        <ele>682.3</ele>
        <time>2021-08-22T09:52:31Z</time>
      </trkpt>
      <trkpt lat="44.97174" lon="2.50793">
        <ele>682.2</ele>
        <time>2021-08-22T09:52:33Z</time>
      </trkpt>
      <trkpt lat="44.97181" lon="2.50803">
        <ele>682</ele>
        <time>2021-08-22T09:52:35Z</time>
      </trkpt>
      <trkpt lat="44.97187" lon="2.50813">
        <ele>681.9</ele>
        <time>2021-08-22T09:52:37Z</time>
      </trkpt>
      <trkpt lat="44.97194" lon="2.50823">
        <ele>681.7</ele>
        <time>2021-08-22T09:52:39Z</time>
      </trkpt>
      <trkpt lat="44.972" lon="2.50833">
        <ele>681.4</ele>
        <time>2021-08-22T09:52:41Z</time>
      </trkpt>
      <trkpt lat="44.97207" lon="2.50843">
        <ele>681.5</ele>
        <time>2021-08-22T09:52:43Z</time>
      </trkpt>
      <trkpt lat="44.97213" lon="2.50853">
        <ele>681.6</ele>
        <time>2021-08-22T09:52:45Z</time>
      </trkpt>
      <trkpt lat="44.97219" lon="2.50863">
        <ele>681.6</ele>
        <time>2021-08-22T09:52:47Z</time>
      </trkpt>
      <trkpt lat="44.97225" lon="2.50873">
        <ele>681.7</ele>
        <time>2021-08-22T09:52:49Z</time>
      </trkpt>
      <trkpt lat="44.97231" lon="2.50884">
        <ele>681.8</ele>
        <time>2021-08-22T09:52:51Z</time>
      </trkpt>
      <trkpt lat="44.97237" lon="2.50894">
        <ele>681.8</ele>
        <time>2021-08-22T09:52:53Z</time>
      </trkpt>
      <trkpt lat="44.97243" lon="2.50905">
        <ele>681.9</ele>
        <time>2021-08-22T09:52:55Z</time>
      </trkpt>
      <trkpt lat="44.97249" lon="2.50917">
        <ele>682</ele>
        <time>2021-08-22T09:52:57Z</time>
      </trkpt>
      <trkpt lat="44.97255" lon="2.50928">
        <ele>682.3</ele>
        <time>2021-08-22T09:52:59Z</time>
      </trkpt>
      <trkpt lat="44.97261" lon="2.50939">
        <ele>682.6</ele>
        <time>2021-08-22T09:53:01Z</time>
      </trkpt>
      <trkpt lat="44.97267" lon="2.5095">
        <ele>682.8</ele>
        <time>2021-08-22T09:53:03Z</time>
      </trkpt>
      <trkpt lat="44.97272" lon="2.50961">
        <ele>683.1</ele>
        <time>2021-08-22T09:53:05Z</time>
      </trkpt>
      <trkpt lat="44.97278" lon="2.50972">
        <ele>683.2</ele>
        <time>2021-08-22T09:53:07Z</time>
      </trkpt>
      <trkpt lat="44.97283" lon="2.50983">
        <ele>683.4</ele>
        <time>2021-08-22T09:53:09Z</time>
      </trkpt>
      <trkpt lat="44.97289" lon="2.50993">
        <ele>683.5</ele>
        <time>2021-08-22T09:53:11Z</time>
      </trkpt>
      <trkpt lat="44.97295" lon="2.51004">
        <ele>683.5</ele>
        <time>2021-08-22T09:53:13Z</time>
      </trkpt>
      <trkpt lat="44.97301" lon="2.51015">
        <ele>683.6</ele>
        <time>2021-08-22T09:53:15Z</time>
      </trkpt>
      <trkpt lat="44.97306" lon="2.51026">
        <ele>683.6</ele>
        <time>2021-08-22T09:53:17Z</time>
      </trkpt>
      <trkpt lat="44.97312" lon="2.51037">
        <ele>683.5</ele>
        <time>2021-08-22T09:53:19Z</time>
      </trkpt>
      <trkpt lat="44.97318" lon="2.51048">
        <ele>683.5</ele>
        <time>2021-08-22T09:53:21Z</time>
      </trkpt>
      <trkpt lat="44.97323" lon="2.51059">
        <ele>683.3</ele>
        <time>2021-08-22T09:53:23Z</time>
      </trkpt>
      <trkpt lat="44.97329" lon="2.5107">
        <ele>683.2</ele>
        <time>2021-08-22T09:53:25Z</time>
      </trkpt>
      <trkpt lat="44.97335" lon="2.51082">
        <ele>683.2</ele>
        <time>2021-08-22T09:53:27Z</time>
      </trkpt>
      <trkpt lat="44.97341" lon="2.51093">
        <ele>683.7</ele>
        <time>2021-08-22T09:53:29Z</time>
      </trkpt>
      <trkpt lat="44.97346" lon="2.51104">
        <ele>684.2</ele>
        <time>2021-08-22T09:53:31Z</time>
      </trkpt>
      <trkpt lat="44.97352" lon="2.51115">
        <ele>684.6</ele>
        <time>2021-08-22T09:53:33Z</time>
      </trkpt>
      <trkpt lat="44.97357" lon="2.51126">
        <ele>685</ele>
        <time>2021-08-22T09:53:35Z</time>
      </trkpt>
      <trkpt lat="44.97363" lon="2.51137">
        <ele>685.3</ele>
        <time>2021-08-22T09:53:37Z</time>
      </trkpt>
      <trkpt lat="44.97368" lon="2.51148">
        <ele>685.4</ele>
        <time>2021-08-22T09:53:39Z</time>
      </trkpt>
      <trkpt lat="44.97373" lon="2.51159">
        <ele>685.5</ele>
        <time>2021-08-22T09:53:41Z</time>
      </trkpt>
      <trkpt lat="44.97378" lon="2.51171">
        <ele>685.7</ele>
        <time>2021-08-22T09:53:43Z</time>
      </trkpt>
      <trkpt lat="44.97382" lon="2.51182">
        <ele>686</ele>
        <time>2021-08-22T09:53:45Z</time>
      </trkpt>
      <trkpt lat="44.97387" lon="2.51193">
        <ele>686.2</ele>
        <time>2021-08-22T09:53:47Z</time>
      </trkpt>
      <trkpt lat="44.97391" lon="2.51204">
        <ele>686.4</ele>
        <time>2021-08-22T09:53:49Z</time>
      </trkpt>
      <trkpt lat="44.97396" lon="2.51215">
        <ele>686.6</ele>
        <time>2021-08-22T09:53:51Z</time>
      </trkpt>
      <trkpt lat="44.97401" lon="2.51226">
        <ele>686.7</ele>
        <time>2021-08-22T09:53:53Z</time>
      </trkpt>
      <trkpt lat="44.97405" lon="2.51237">
        <ele>686.8</ele>
        <time>2021-08-22T09:53:55Z</time>
      </trkpt>
      <trkpt lat="44.97409" lon="2.51248">
        <ele>686.8</ele>
        <time>2021-08-22T09:53:57Z</time>
      </trkpt>
      <trkpt lat="44.97414" lon="2.51258">
        <ele>686.4</ele>
        <time>2021-08-22T09:53:59Z</time>
      </trkpt>
      <trkpt lat="44.97418" lon="2.51268">
        <ele>685.9</ele>
        <time>2021-08-22T09:54:01Z</time>
      </trkpt>
      <trkpt lat="44.97422" lon="2.51279">
        <ele>685.7</ele>
        <time>2021-08-22T09:54:03Z</time>
      </trkpt>
      <trkpt lat="44.97427" lon="2.5129">
        <ele>685.5</ele>
        <time>2021-08-22T09:54:05Z</time>
      </trkpt>
      <trkpt lat="44.97432" lon="2.51301">
        <ele>685.3</ele>
        <time>2021-08-22T09:54:07Z</time>
      </trkpt>
      <trkpt lat="44.97436" lon="2.51312">
        <ele>685</ele>
        <time>2021-08-22T09:54:09Z</time>
      </trkpt>
      <trkpt lat="44.97441" lon="2.51323">
        <ele>684.6</ele>
        <time>2021-08-22T09:54:11Z</time>
      </trkpt>
      <trkpt lat="44.97447" lon="2.51333">
        <ele>684.3</ele>
        <time>2021-08-22T09:54:13Z</time>
      </trkpt>
      <trkpt lat="44.97452" lon="2.51343">
        <ele>685</ele>
        <time>2021-08-22T09:54:15Z</time>
      </trkpt>
      <trkpt lat="44.97457" lon="2.51353">
        <ele>685.6</ele>
        <time>2021-08-22T09:54:17Z</time>
      </trkpt>
      <trkpt lat="44.97462" lon="2.51363">
        <ele>686.3</ele>
        <time>2021-08-22T09:54:19Z</time>
      </trkpt>
      <trkpt lat="44.97468" lon="2.51371">
        <ele>686.9</ele>
        <time>2021-08-22T09:54:21Z</time>
      </trkpt>
      <trkpt lat="44.97473" lon="2.51381">
        <ele>687.4</ele>
        <time>2021-08-22T09:54:23Z</time>
      </trkpt>
      <trkpt lat="44.97478" lon="2.5139">
        <ele>688</ele>
        <time>2021-08-22T09:54:25Z</time>
      </trkpt>
      <trkpt lat="44.97483" lon="2.51398">
        <ele>688.5</ele>
        <time>2021-08-22T09:54:27Z</time>
      </trkpt>
      <trkpt lat="44.97488" lon="2.51407">
        <ele>688.9</ele>
        <time>2021-08-22T09:54:29Z</time>
      </trkpt>
      <trkpt lat="44.97493" lon="2.51415">
        <ele>689.4</ele>
        <time>2021-08-22T09:54:31Z</time>
      </trkpt>
      <trkpt lat="44.97497" lon="2.51424">
        <ele>689.7</ele>
        <time>2021-08-22T09:54:33Z</time>
      </trkpt>
      <trkpt lat="44.97502" lon="2.51432">
        <ele>690</ele>
        <time>2021-08-22T09:54:35Z</time>
      </trkpt>
      <trkpt lat="44.97506" lon="2.5144">
        <ele>690.3</ele>
        <time>2021-08-22T09:54:37Z</time>
      </trkpt>
      <trkpt lat="44.97511" lon="2.51448">
        <ele>690.6</ele>
        <time>2021-08-22T09:54:39Z</time>
      </trkpt>
      <trkpt lat="44.97516" lon="2.51456">
        <ele>690.9</ele>
        <time>2021-08-22T09:54:41Z</time>
      </trkpt>
      <trkpt lat="44.97521" lon="2.51465">
        <ele>691.1</ele>
        <time>2021-08-22T09:54:43Z</time>
      </trkpt>
      <trkpt lat="44.97526" lon="2.51474">
        <ele>691.4</ele>
        <time>2021-08-22T09:54:45Z</time>
      </trkpt>
      <trkpt lat="44.97531" lon="2.51483">
        <ele>691.6</ele>
        <time>2021-08-22T09:54:47Z</time>
      </trkpt>
      <trkpt lat="44.97537" lon="2.51494">
        <ele>691.8</ele>
        <time>2021-08-22T09:54:49Z</time>
      </trkpt>
      <trkpt lat="44.97543" lon="2.51506">
        <ele>691.6</ele>
        <time>2021-08-22T09:54:51Z</time>
      </trkpt>
      <trkpt lat="44.97549" lon="2.51518">
        <ele>690.8</ele>
        <time>2021-08-22T09:54:53Z</time>
      </trkpt>
      <trkpt lat="44.97555" lon="2.51531">
        <ele>689.9</ele>
        <time>2021-08-22T09:54:55Z</time>
      </trkpt>
      <trkpt lat="44.97562" lon="2.51546">
        <ele>688.6</ele>
        <time>2021-08-22T09:54:57Z</time>
      </trkpt>
      <trkpt lat="44.97568" lon="2.51561">
        <ele>687.2</ele>
        <time>2021-08-22T09:54:59Z</time>
      </trkpt>
      <trkpt lat="44.97574" lon="2.51578">
        <ele>685.5</ele>
        <time>2021-08-22T09:55:01Z</time>
      </trkpt>
      <trkpt lat="44.9758" lon="2.51595">
        <ele>685</ele>
        <time>2021-08-22T09:55:03Z</time>
      </trkpt>
      <trkpt lat="44.97586" lon="2.51612">
        <ele>685.4</ele>
        <time>2021-08-22T09:55:05Z</time>
      </trkpt>
      <trkpt lat="44.97592" lon="2.51628">
        <ele>686</ele>
        <time>2021-08-22T09:55:07Z</time>
      </trkpt>
      <trkpt lat="44.97597" lon="2.51644">
        <ele>686.4</ele>
        <time>2021-08-22T09:55:09Z</time>
      </trkpt>
      <trkpt lat="44.97603" lon="2.51659">
        <ele>686.5</ele>
        <time>2021-08-22T09:55:11Z</time>
      </trkpt>
      <trkpt lat="44.97607" lon="2.51674">
        <ele>686.8</ele>
        <time>2021-08-22T09:55:13Z</time>
      </trkpt>
      <trkpt lat="44.97612" lon="2.51688">
        <ele>687.1</ele>
        <time>2021-08-22T09:55:15Z</time>
      </trkpt>
      <trkpt lat="44.97617" lon="2.51702">
        <ele>687.2</ele>
        <time>2021-08-22T09:55:17Z</time>
      </trkpt>
      <trkpt lat="44.97622" lon="2.51716">
        <ele>687.3</ele>
        <time>2021-08-22T09:55:19Z</time>
      </trkpt>
      <trkpt lat="44.97626" lon="2.51729">
        <ele>687.3</ele>
        <time>2021-08-22T09:55:21Z</time>
      </trkpt>
      <trkpt lat="44.97631" lon="2.51743">
        <ele>687.1</ele>
        <time>2021-08-22T09:55:23Z</time>
      </trkpt>
      <trkpt lat="44.97635" lon="2.51757">
        <ele>686.9</ele>
        <time>2021-08-22T09:55:25Z</time>
      </trkpt>
      <trkpt lat="44.97638" lon="2.5177">
        <ele>686.6</ele>
        <time>2021-08-22T09:55:27Z</time>
      </trkpt>
      <trkpt lat="44.97643" lon="2.51784">
        <ele>686.3</ele>
        <time>2021-08-22T09:55:29Z</time>
      </trkpt>
      <trkpt lat="44.97646" lon="2.51799">
        <ele>686</ele>
        <time>2021-08-22T09:55:31Z</time>
      </trkpt>
      <trkpt lat="44.97649" lon="2.51813">
        <ele>685.6</ele>
        <time>2021-08-22T09:55:33Z</time>
      </trkpt>
      <trkpt lat="44.97653" lon="2.51826">
        <ele>685.3</ele>
        <time>2021-08-22T09:55:35Z</time>
      </trkpt>
      <trkpt lat="44.97657" lon="2.5184">
        <ele>685.2</ele>
        <time>2021-08-22T09:55:37Z</time>
      </trkpt>
      <trkpt lat="44.9766" lon="2.51853">
        <ele>685.3</ele>
        <time>2021-08-22T09:55:39Z</time>
      </trkpt>
      <trkpt lat="44.97663" lon="2.51866">
        <ele>685.4</ele>
        <time>2021-08-22T09:55:41Z</time>
      </trkpt>
      <trkpt lat="44.97666" lon="2.5188">
        <ele>685.6</ele>
        <time>2021-08-22T09:55:43Z</time>
      </trkpt>
      <trkpt lat="44.97669" lon="2.51893">
        <ele>685.9</ele>
        <time>2021-08-22T09:55:45Z</time>
      </trkpt>
      <trkpt lat="44.97672" lon="2.51907">
        <ele>686.2</ele>
        <time>2021-08-22T09:55:47Z</time>
      </trkpt>
      <trkpt lat="44.97675" lon="2.51921">
        <ele>686.5</ele>
        <time>2021-08-22T09:55:49Z</time>
      </trkpt>
      <trkpt lat="44.97678" lon="2.51935">
        <ele>686.8</ele>
        <time>2021-08-22T09:55:51Z</time>
      </trkpt>
      <trkpt lat="44.97682" lon="2.51948">
        <ele>687.1</ele>
        <time>2021-08-22T09:55:53Z</time>
      </trkpt>
      <trkpt lat="44.97685" lon="2.51962">
        <ele>687.4</ele>
        <time>2021-08-22T09:55:55Z</time>
      </trkpt>
      <trkpt lat="44.97688" lon="2.51976">
        <ele>687.7</ele>
        <time>2021-08-22T09:55:57Z</time>
      </trkpt>
      <trkpt lat="44.97691" lon="2.5199">
        <ele>688.1</ele>
        <time>2021-08-22T09:55:59Z</time>
      </trkpt>
      <trkpt lat="44.97694" lon="2.52004">
        <ele>688.2</ele>
        <time>2021-08-22T09:56:01Z</time>
      </trkpt>
      <trkpt lat="44.97697" lon="2.52018">
        <ele>688.1</ele>
        <time>2021-08-22T09:56:03Z</time>
      </trkpt>
      <trkpt lat="44.97701" lon="2.52032">
        <ele>687.8</ele>
        <time>2021-08-22T09:56:05Z</time>
      </trkpt>
      <trkpt lat="44.97705" lon="2.52046">
        <ele>687.6</ele>
        <time>2021-08-22T09:56:07Z</time>
      </trkpt>
      <trkpt lat="44.97709" lon="2.5206">
        <ele>687.2</ele>
        <time>2021-08-22T09:56:09Z</time>
      </trkpt>
      <trkpt lat="44.97713" lon="2.52073">
        <ele>686.8</ele>
        <time>2021-08-22T09:56:11Z</time>
      </trkpt>
      <trkpt lat="44.97718" lon="2.52086">
        <ele>686.3</ele>
        <time>2021-08-22T09:56:13Z</time>
      </trkpt>
      <trkpt lat="44.97723" lon="2.52099">
        <ele>686.1</ele>
        <time>2021-08-22T09:56:15Z</time>
      </trkpt>
      <trkpt lat="44.97728" lon="2.52112">
        <ele>685.7</ele>
        <time>2021-08-22T09:56:17Z</time>
      </trkpt>
      <trkpt lat="44.97734" lon="2.52124">
        <ele>685.4</ele>
        <time>2021-08-22T09:56:19Z</time>
      </trkpt>
      <trkpt lat="44.9774" lon="2.52136">
        <ele>685</ele>
        <time>2021-08-22T09:56:21Z</time>
      </trkpt>
      <trkpt lat="44.97746" lon="2.52148">
        <ele>684.6</ele>
        <time>2021-08-22T09:56:23Z</time>
      </trkpt>
      <trkpt lat="44.97753" lon="2.52159">
        <ele>684.5</ele>
        <time>2021-08-22T09:56:25Z</time>
      </trkpt>
      <trkpt lat="44.9776" lon="2.52169">
        <ele>684.9</ele>
        <time>2021-08-22T09:56:27Z</time>
      </trkpt>
      <trkpt lat="44.97767" lon="2.5218">
        <ele>685.7</ele>
        <time>2021-08-22T09:56:29Z</time>
      </trkpt>
      <trkpt lat="44.97773" lon="2.52191">
        <ele>686.5</ele>
        <time>2021-08-22T09:56:31Z</time>
      </trkpt>
      <trkpt lat="44.9778" lon="2.52202">
        <ele>687.2</ele>
        <time>2021-08-22T09:56:33Z</time>
      </trkpt>
      <trkpt lat="44.97786" lon="2.52213">
        <ele>687.9</ele>
        <time>2021-08-22T09:56:35Z</time>
      </trkpt>
      <trkpt lat="44.97792" lon="2.52224">
        <ele>688.6</ele>
        <time>2021-08-22T09:56:37Z</time>
      </trkpt>
      <trkpt lat="44.97798" lon="2.52235">
        <ele>689.2</ele>
        <time>2021-08-22T09:56:39Z</time>
      </trkpt>
      <trkpt lat="44.97803" lon="2.52246">
        <ele>689.8</ele>
        <time>2021-08-22T09:56:41Z</time>
      </trkpt>
      <trkpt lat="44.97807" lon="2.52258">
        <ele>690</ele>
        <time>2021-08-22T09:56:43Z</time>
      </trkpt>
      <trkpt lat="44.97812" lon="2.52269">
        <ele>690.2</ele>
        <time>2021-08-22T09:56:45Z</time>
      </trkpt>
      <trkpt lat="44.97815" lon="2.5228">
        <ele>690.2</ele>
        <time>2021-08-22T09:56:47Z</time>
      </trkpt>
      <trkpt lat="44.97819" lon="2.52292">
        <ele>690.2</ele>
        <time>2021-08-22T09:56:49Z</time>
      </trkpt>
      <trkpt lat="44.97822" lon="2.52303">
        <ele>690.2</ele>
        <time>2021-08-22T09:56:51Z</time>
      </trkpt>
      <trkpt lat="44.97826" lon="2.52314">
        <ele>690.1</ele>
        <time>2021-08-22T09:56:53Z</time>
      </trkpt>
      <trkpt lat="44.97829" lon="2.52325">
        <ele>690</ele>
        <time>2021-08-22T09:56:55Z</time>
      </trkpt>
      <trkpt lat="44.97832" lon="2.52337">
        <ele>689.9</ele>
        <time>2021-08-22T09:56:57Z</time>
      </trkpt>
      <trkpt lat="44.97836" lon="2.52348">
        <ele>690.2</ele>
        <time>2021-08-22T09:56:59Z</time>
      </trkpt>
      <trkpt lat="44.9784" lon="2.52359">
        <ele>690.7</ele>
        <time>2021-08-22T09:57:01Z</time>
      </trkpt>
      <trkpt lat="44.97844" lon="2.52371">
        <ele>691.2</ele>
        <time>2021-08-22T09:57:03Z</time>
      </trkpt>
      <trkpt lat="44.97848" lon="2.52384">
        <ele>691.4</ele>
        <time>2021-08-22T09:57:05Z</time>
      </trkpt>
      <trkpt lat="44.97851" lon="2.52396">
        <ele>691.6</ele>
        <time>2021-08-22T09:57:07Z</time>
      </trkpt>
      <trkpt lat="44.97855" lon="2.52409">
        <ele>691.8</ele>
        <time>2021-08-22T09:57:09Z</time>
      </trkpt>
      <trkpt lat="44.97859" lon="2.52422">
        <ele>691.9</ele>
        <time>2021-08-22T09:57:11Z</time>
      </trkpt>
      <trkpt lat="44.97863" lon="2.52435">
        <ele>692.2</ele>
        <time>2021-08-22T09:57:13Z</time>
      </trkpt>
      <trkpt lat="44.97867" lon="2.52447">
        <ele>692.5</ele>
        <time>2021-08-22T09:57:15Z</time>
      </trkpt>
      <trkpt lat="44.97871" lon="2.52461">
        <ele>692.7</ele>
        <time>2021-08-22T09:57:17Z</time>
      </trkpt>
      <trkpt lat="44.97875" lon="2.52474">
        <ele>692.8</ele>
        <time>2021-08-22T09:57:19Z</time>
      </trkpt>
      <trkpt lat="44.97879" lon="2.52487">
        <ele>692.9</ele>
        <time>2021-08-22T09:57:21Z</time>
      </trkpt>
      <trkpt lat="44.97883" lon="2.525">
        <ele>693</ele>
        <time>2021-08-22T09:57:23Z</time>
      </trkpt>
      <trkpt lat="44.97887" lon="2.52513">
        <ele>693.5</ele>
        <time>2021-08-22T09:57:25Z</time>
      </trkpt>
      <trkpt lat="44.97891" lon="2.52526">
        <ele>694.1</ele>
        <time>2021-08-22T09:57:27Z</time>
      </trkpt>
      <trkpt lat="44.97895" lon="2.52538">
        <ele>694.6</ele>
        <time>2021-08-22T09:57:29Z</time>
      </trkpt>
      <trkpt lat="44.97899" lon="2.5255">
        <ele>695.2</ele>
        <time>2021-08-22T09:57:31Z</time>
      </trkpt>
      <trkpt lat="44.97903" lon="2.52562">
        <ele>695.6</ele>
        <time>2021-08-22T09:57:33Z</time>
      </trkpt>
      <trkpt lat="44.97907" lon="2.52573">
        <ele>696</ele>
        <time>2021-08-22T09:57:35Z</time>
      </trkpt>
      <trkpt lat="44.9791" lon="2.52585">
        <ele>696.3</ele>
        <time>2021-08-22T09:57:37Z</time>
      </trkpt>
      <trkpt lat="44.97914" lon="2.52597">
        <ele>696.4</ele>
        <time>2021-08-22T09:57:39Z</time>
      </trkpt>
      <trkpt lat="44.97917" lon="2.52609">
        <ele>696.6</ele>
        <time>2021-08-22T09:57:41Z</time>
      </trkpt>
      <trkpt lat="44.97922" lon="2.5262">
        <ele>697.3</ele>
        <time>2021-08-22T09:57:43Z</time>
      </trkpt>
      <trkpt lat="44.97925" lon="2.52631">
        <ele>697.8</ele>
        <time>2021-08-22T09:57:45Z</time>
      </trkpt>
      <trkpt lat="44.97929" lon="2.52641">
        <ele>698.4</ele>
        <time>2021-08-22T09:57:47Z</time>
      </trkpt>
      <trkpt lat="44.97934" lon="2.52652">
        <ele>699.2</ele>
        <time>2021-08-22T09:57:49Z</time>
      </trkpt>
      <trkpt lat="44.97939" lon="2.52662">
        <ele>699.9</ele>
        <time>2021-08-22T09:57:51Z</time>
      </trkpt>
      <trkpt lat="44.97944" lon="2.52671">
        <ele>700.4</ele>
        <time>2021-08-22T09:57:53Z</time>
      </trkpt>
      <trkpt lat="44.9795" lon="2.52681">
        <ele>700.6</ele>
        <time>2021-08-22T09:57:55Z</time>
      </trkpt>
      <trkpt lat="44.97956" lon="2.52689">
        <ele>700.8</ele>
        <time>2021-08-22T09:57:57Z</time>
      </trkpt>
      <trkpt lat="44.97962" lon="2.52697">
        <ele>701.1</ele>
        <time>2021-08-22T09:57:59Z</time>
      </trkpt>
      <trkpt lat="44.97969" lon="2.52705">
        <ele>701.3</ele>
        <time>2021-08-22T09:58:01Z</time>
      </trkpt>
      <trkpt lat="44.97976" lon="2.52713">
        <ele>701.4</ele>
        <time>2021-08-22T09:58:03Z</time>
      </trkpt>
      <trkpt lat="44.97983" lon="2.5272">
        <ele>701.4</ele>
        <time>2021-08-22T09:58:05Z</time>
      </trkpt>
      <trkpt lat="44.9799" lon="2.52729">
        <ele>701.2</ele>
        <time>2021-08-22T09:58:07Z</time>
      </trkpt>
      <trkpt lat="44.97998" lon="2.52737">
        <ele>700.9</ele>
        <time>2021-08-22T09:58:09Z</time>
      </trkpt>
      <trkpt lat="44.98005" lon="2.52745">
        <ele>701.3</ele>
        <time>2021-08-22T09:58:11Z</time>
      </trkpt>
      <trkpt lat="44.98012" lon="2.52752">
        <ele>702.2</ele>
        <time>2021-08-22T09:58:13Z</time>
      </trkpt>
      <trkpt lat="44.98019" lon="2.52759">
        <ele>703.5</ele>
        <time>2021-08-22T09:58:15Z</time>
      </trkpt>
      <trkpt lat="44.98026" lon="2.52766">
        <ele>704.5</ele>
        <time>2021-08-22T09:58:17Z</time>
      </trkpt>
      <trkpt lat="44.98033" lon="2.52773">
        <ele>705.2</ele>
        <time>2021-08-22T09:58:19Z</time>
      </trkpt>
      <trkpt lat="44.98039" lon="2.52781">
        <ele>705.7</ele>
        <time>2021-08-22T09:58:21Z</time>
      </trkpt>
      <trkpt lat="44.98047" lon="2.52788">
        <ele>706</ele>
        <time>2021-08-22T09:58:23Z</time>
      </trkpt>
      <trkpt lat="44.98054" lon="2.52796">
        <ele>706.1</ele>
        <time>2021-08-22T09:58:25Z</time>
      </trkpt>
      <trkpt lat="44.9806" lon="2.52803">
        <ele>705.9</ele>
        <time>2021-08-22T09:58:27Z</time>
      </trkpt>
      <trkpt lat="44.98067" lon="2.5281">
        <ele>705.5</ele>
        <time>2021-08-22T09:58:29Z</time>
      </trkpt>
      <trkpt lat="44.98074" lon="2.52816">
        <ele>705</ele>
        <time>2021-08-22T09:58:31Z</time>
      </trkpt>
      <trkpt lat="44.98081" lon="2.52824">
        <ele>704.1</ele>
        <time>2021-08-22T09:58:33Z</time>
      </trkpt>
      <trkpt lat="44.98088" lon="2.52831">
        <ele>704</ele>
        <time>2021-08-22T09:58:35Z</time>
      </trkpt>
      <trkpt lat="44.98095" lon="2.52838">
        <ele>704.8</ele>
        <time>2021-08-22T09:58:37Z</time>
      </trkpt>
      <trkpt lat="44.98101" lon="2.52846">
        <ele>705.7</ele>
        <time>2021-08-22T09:58:39Z</time>
      </trkpt>
      <trkpt lat="44.98108" lon="2.52852">
        <ele>706.4</ele>
        <time>2021-08-22T09:58:41Z</time>
      </trkpt>
      <trkpt lat="44.98115" lon="2.52859">
        <ele>706.9</ele>
        <time>2021-08-22T09:58:43Z</time>
      </trkpt>
      <trkpt lat="44.98122" lon="2.52865">
        <ele>707.3</ele>
        <time>2021-08-22T09:58:45Z</time>
      </trkpt>
      <trkpt lat="44.98129" lon="2.5287">
        <ele>707.6</ele>
        <time>2021-08-22T09:58:47Z</time>
      </trkpt>
      <trkpt lat="44.98136" lon="2.52876">
        <ele>707.7</ele>
        <time>2021-08-22T09:58:49Z</time>
      </trkpt>
      <trkpt lat="44.98144" lon="2.52882">
        <ele>707.5</ele>
        <time>2021-08-22T09:58:51Z</time>
      </trkpt>
      <trkpt lat="44.98151" lon="2.52888">
        <ele>707.2</ele>
        <time>2021-08-22T09:58:53Z</time>
      </trkpt>
      <trkpt lat="44.98159" lon="2.52894">
        <ele>706.6</ele>
        <time>2021-08-22T09:58:55Z</time>
      </trkpt>
      <trkpt lat="44.98167" lon="2.52899">
        <ele>705.8</ele>
        <time>2021-08-22T09:58:57Z</time>
      </trkpt>
      <trkpt lat="44.98174" lon="2.52905">
        <ele>705.7</ele>
        <time>2021-08-22T09:58:59Z</time>
      </trkpt>
      <trkpt lat="44.98183" lon="2.5291">
        <ele>705.9</ele>
        <time>2021-08-22T09:59:01Z</time>
      </trkpt>
      <trkpt lat="44.98191" lon="2.52915">
        <ele>705.9</ele>
        <time>2021-08-22T09:59:03Z</time>
      </trkpt>
      <trkpt lat="44.982" lon="2.52921">
        <ele>706.6</ele>
        <time>2021-08-22T09:59:05Z</time>
      </trkpt>
      <trkpt lat="44.98208" lon="2.52926">
        <ele>707.4</ele>
        <time>2021-08-22T09:59:07Z</time>
      </trkpt>
      <trkpt lat="44.98217" lon="2.52932">
        <ele>708.1</ele>
        <time>2021-08-22T09:59:09Z</time>
      </trkpt>
      <trkpt lat="44.98225" lon="2.52938">
        <ele>708.5</ele>
        <time>2021-08-22T09:59:11Z</time>
      </trkpt>
      <trkpt lat="44.98233" lon="2.52944">
        <ele>708.6</ele>
        <time>2021-08-22T09:59:13Z</time>
      </trkpt>
      <trkpt lat="44.9824" lon="2.5295">
        <ele>708.4</ele>
        <time>2021-08-22T09:59:15Z</time>
      </trkpt>
      <trkpt lat="44.98247" lon="2.52957">
        <ele>708</ele>
        <time>2021-08-22T09:59:17Z</time>
      </trkpt>
      <trkpt lat="44.98254" lon="2.52964">
        <ele>707.6</ele>
        <time>2021-08-22T09:59:19Z</time>
      </trkpt>
      <trkpt lat="44.9826" lon="2.52972">
        <ele>707</ele>
        <time>2021-08-22T09:59:21Z</time>
      </trkpt>
      <trkpt lat="44.98267" lon="2.5298">
        <ele>706.5</ele>
        <time>2021-08-22T09:59:23Z</time>
      </trkpt>
      <trkpt lat="44.98274" lon="2.52988">
        <ele>706</ele>
        <time>2021-08-22T09:59:25Z</time>
      </trkpt>
      <trkpt lat="44.98281" lon="2.52999">
        <ele>704.6</ele>
        <time>2021-08-22T09:59:27Z</time>
      </trkpt>
      <trkpt lat="44.98287" lon="2.5301">
        <ele>704.7</ele>
        <time>2021-08-22T09:59:29Z</time>
      </trkpt>
      <trkpt lat="44.98292" lon="2.53022">
        <ele>704.7</ele>
        <time>2021-08-22T09:59:31Z</time>
      </trkpt>
      <trkpt lat="44.98297" lon="2.53032">
        <ele>704.8</ele>
        <time>2021-08-22T09:59:33Z</time>
      </trkpt>
      <trkpt lat="44.98301" lon="2.53043">
        <ele>704.5</ele>
        <time>2021-08-22T09:59:35Z</time>
      </trkpt>
      <trkpt lat="44.98305" lon="2.53054">
        <ele>704.1</ele>
        <time>2021-08-22T09:59:37Z</time>
      </trkpt>
      <trkpt lat="44.98309" lon="2.53065">
        <ele>703.6</ele>
        <time>2021-08-22T09:59:39Z</time>
      </trkpt>
      <trkpt lat="44.98314" lon="2.53075">
        <ele>703.2</ele>
        <time>2021-08-22T09:59:41Z</time>
      </trkpt>
      <trkpt lat="44.98318" lon="2.53086">
        <ele>702.8</ele>
        <time>2021-08-22T09:59:43Z</time>
      </trkpt>
      <trkpt lat="44.98322" lon="2.53097">
        <ele>702.6</ele>
        <time>2021-08-22T09:59:45Z</time>
      </trkpt>
      <trkpt lat="44.98326" lon="2.53109">
        <ele>702.4</ele>
        <time>2021-08-22T09:59:47Z</time>
      </trkpt>
      <trkpt lat="44.9833" lon="2.5312">
        <ele>702.1</ele>
        <time>2021-08-22T09:59:49Z</time>
      </trkpt>
      <trkpt lat="44.98334" lon="2.53131">
        <ele>701.8</ele>
        <time>2021-08-22T09:59:51Z</time>
      </trkpt>
      <trkpt lat="44.98338" lon="2.53142">
        <ele>701.8</ele>
        <time>2021-08-22T09:59:53Z</time>
      </trkpt>
      <trkpt lat="44.98343" lon="2.53153">
        <ele>701.9</ele>
        <time>2021-08-22T09:59:55Z</time>
      </trkpt>
      <trkpt lat="44.98348" lon="2.53164">
        <ele>702</ele>
        <time>2021-08-22T09:59:57Z</time>
      </trkpt>
      <trkpt lat="44.98354" lon="2.53175">
        <ele>702.5</ele>
        <time>2021-08-22T09:59:59Z</time>
      </trkpt>
      <trkpt lat="44.9836" lon="2.53185">
        <ele>702.8</ele>
        <time>2021-08-22T10:00:01Z</time>
      </trkpt>
      <trkpt lat="44.98366" lon="2.53195">
        <ele>703.1</ele>
        <time>2021-08-22T10:00:03Z</time>
      </trkpt>
      <trkpt lat="44.98372" lon="2.53205">
        <ele>703.4</ele>
        <time>2021-08-22T10:00:05Z</time>
      </trkpt>
      <trkpt lat="44.9838" lon="2.53215">
        <ele>703.7</ele>
        <time>2021-08-22T10:00:07Z</time>
      </trkpt>
      <trkpt lat="44.98389" lon="2.53225">
        <ele>703.8</ele>
        <time>2021-08-22T10:00:09Z</time>
      </trkpt>
      <trkpt lat="44.98397" lon="2.53234">
        <ele>703.8</ele>
        <time>2021-08-22T10:00:11Z</time>
      </trkpt>
      <trkpt lat="44.98406" lon="2.53244">
        <ele>703.7</ele>
        <time>2021-08-22T10:00:13Z</time>
      </trkpt>
      <trkpt lat="44.98414" lon="2.53252">
        <ele>703.5</ele>
        <time>2021-08-22T10:00:15Z</time>
      </trkpt>
      <trkpt lat="44.98423" lon="2.53262">
        <ele>703.7</ele>
        <time>2021-08-22T10:00:17Z</time>
      </trkpt>
      <trkpt lat="44.98432" lon="2.5327">
        <ele>704.2</ele>
        <time>2021-08-22T10:00:19Z</time>
      </trkpt>
      <trkpt lat="44.98441" lon="2.5328">
        <ele>704.5</ele>
        <time>2021-08-22T10:00:21Z</time>
      </trkpt>
      <trkpt lat="44.9845" lon="2.53289">
        <ele>704.9</ele>
        <time>2021-08-22T10:00:23Z</time>
      </trkpt>
      <trkpt lat="44.98458" lon="2.53298">
        <ele>705.3</ele>
        <time>2021-08-22T10:00:25Z</time>
      </trkpt>
      <trkpt lat="44.98466" lon="2.53307">
        <ele>705.5</ele>
        <time>2021-08-22T10:00:27Z</time>
      </trkpt>
      <trkpt lat="44.98475" lon="2.53317">
        <ele>705.7</ele>
        <time>2021-08-22T10:00:29Z</time>
      </trkpt>
      <trkpt lat="44.98483" lon="2.53326">
        <ele>705.9</ele>
        <time>2021-08-22T10:00:31Z</time>
      </trkpt>
      <trkpt lat="44.98491" lon="2.53337">
        <ele>706</ele>
        <time>2021-08-22T10:00:33Z</time>
      </trkpt>
      <trkpt lat="44.98498" lon="2.53348">
        <ele>705.8</ele>
        <time>2021-08-22T10:00:35Z</time>
      </trkpt>
      <trkpt lat="44.98505" lon="2.53359">
        <ele>705.7</ele>
        <time>2021-08-22T10:00:37Z</time>
      </trkpt>
      <trkpt lat="44.98511" lon="2.5337">
        <ele>705.6</ele>
        <time>2021-08-22T10:00:39Z</time>
      </trkpt>
      <trkpt lat="44.98517" lon="2.53381">
        <ele>705.5</ele>
        <time>2021-08-22T10:00:41Z</time>
      </trkpt>
      <trkpt lat="44.98523" lon="2.53391">
        <ele>705.4</ele>
        <time>2021-08-22T10:00:43Z</time>
      </trkpt>
      <trkpt lat="44.98528" lon="2.53402">
        <ele>705</ele>
        <time>2021-08-22T10:00:45Z</time>
      </trkpt>
      <trkpt lat="44.98533" lon="2.53414">
        <ele>704.6</ele>
        <time>2021-08-22T10:00:47Z</time>
      </trkpt>
      <trkpt lat="44.98539" lon="2.53426">
        <ele>705</ele>
        <time>2021-08-22T10:00:49Z</time>
      </trkpt>
      <trkpt lat="44.98545" lon="2.53437">
        <ele>705.4</ele>
        <time>2021-08-22T10:00:51Z</time>
      </trkpt>
      <trkpt lat="44.98551" lon="2.53448">
        <ele>705.8</ele>
        <time>2021-08-22T10:00:53Z</time>
      </trkpt>
      <trkpt lat="44.98557" lon="2.5346">
        <ele>705.9</ele>
        <time>2021-08-22T10:00:55Z</time>
      </trkpt>
      <trkpt lat="44.98562" lon="2.53473">
        <ele>705.8</ele>
        <time>2021-08-22T10:00:57Z</time>
      </trkpt>
      <trkpt lat="44.98568" lon="2.53485">
        <ele>705.6</ele>
        <time>2021-08-22T10:00:59Z</time>
      </trkpt>
      <trkpt lat="44.98574" lon="2.53497">
        <ele>705.2</ele>
        <time>2021-08-22T10:01:01Z</time>
      </trkpt>
      <trkpt lat="44.98579" lon="2.53509">
        <ele>704.7</ele>
        <time>2021-08-22T10:01:03Z</time>
      </trkpt>
      <trkpt lat="44.98584" lon="2.53522">
        <ele>704.3</ele>
        <time>2021-08-22T10:01:05Z</time>
      </trkpt>
      <trkpt lat="44.98588" lon="2.53535">
        <ele>704.2</ele>
        <time>2021-08-22T10:01:07Z</time>
      </trkpt>
      <trkpt lat="44.98592" lon="2.53548">
        <ele>704</ele>
        <time>2021-08-22T10:01:09Z</time>
      </trkpt>
      <trkpt lat="44.98596" lon="2.53562">
        <ele>703.6</ele>
        <time>2021-08-22T10:01:11Z</time>
      </trkpt>
      <trkpt lat="44.98599" lon="2.53575">
        <ele>703</ele>
        <time>2021-08-22T10:01:13Z</time>
      </trkpt>
      <trkpt lat="44.98603" lon="2.53588">
        <ele>702.7</ele>
        <time>2021-08-22T10:01:15Z</time>
      </trkpt>
      <trkpt lat="44.98606" lon="2.53602">
        <ele>702.5</ele>
        <time>2021-08-22T10:01:17Z</time>
      </trkpt>
      <trkpt lat="44.9861" lon="2.53614">
        <ele>702.4</ele>
        <time>2021-08-22T10:01:19Z</time>
      </trkpt>
      <trkpt lat="44.98615" lon="2.53628">
        <ele>702.2</ele>
        <time>2021-08-22T10:01:21Z</time>
      </trkpt>
      <trkpt lat="44.98619" lon="2.53641">
        <ele>701.9</ele>
        <time>2021-08-22T10:01:23Z</time>
      </trkpt>
      <trkpt lat="44.98624" lon="2.53654">
        <ele>701.5</ele>
        <time>2021-08-22T10:01:25Z</time>
      </trkpt>
      <trkpt lat="44.9863" lon="2.53666">
        <ele>701.1</ele>
        <time>2021-08-22T10:01:27Z</time>
      </trkpt>
      <trkpt lat="44.98636" lon="2.53678">
        <ele>701.2</ele>
        <time>2021-08-22T10:01:29Z</time>
      </trkpt>
      <trkpt lat="44.98641" lon="2.53691">
        <ele>701.3</ele>
        <time>2021-08-22T10:01:31Z</time>
      </trkpt>
      <trkpt lat="44.98647" lon="2.53703">
        <ele>701.2</ele>
        <time>2021-08-22T10:01:33Z</time>
      </trkpt>
      <trkpt lat="44.98652" lon="2.53715">
        <ele>701.1</ele>
        <time>2021-08-22T10:01:35Z</time>
      </trkpt>
      <trkpt lat="44.98658" lon="2.53726">
        <ele>700.8</ele>
        <time>2021-08-22T10:01:37Z</time>
      </trkpt>
      <trkpt lat="44.98663" lon="2.53738">
        <ele>700.5</ele>
        <time>2021-08-22T10:01:39Z</time>
      </trkpt>
      <trkpt lat="44.98668" lon="2.5375">
        <ele>700.5</ele>
        <time>2021-08-22T10:01:41Z</time>
      </trkpt>
      <trkpt lat="44.98673" lon="2.53761">
        <ele>701.6</ele>
        <time>2021-08-22T10:01:43Z</time>
      </trkpt>
      <trkpt lat="44.98678" lon="2.53773">
        <ele>702.5</ele>
        <time>2021-08-22T10:01:45Z</time>
      </trkpt>
      <trkpt lat="44.98683" lon="2.53784">
        <ele>703.4</ele>
        <time>2021-08-22T10:01:47Z</time>
      </trkpt>
      <trkpt lat="44.98689" lon="2.53796">
        <ele>704.1</ele>
        <time>2021-08-22T10:01:49Z</time>
      </trkpt>
      <trkpt lat="44.98694" lon="2.53807">
        <ele>704.4</ele>
        <time>2021-08-22T10:01:51Z</time>
      </trkpt>
      <trkpt lat="44.98699" lon="2.53819">
        <ele>704.6</ele>
        <time>2021-08-22T10:01:53Z</time>
      </trkpt>
      <trkpt lat="44.98705" lon="2.5383">
        <ele>704.7</ele>
        <time>2021-08-22T10:01:55Z</time>
      </trkpt>
      <trkpt lat="44.98709" lon="2.53841">
        <ele>704.6</ele>
        <time>2021-08-22T10:01:57Z</time>
      </trkpt>
      <trkpt lat="44.98714" lon="2.53853">
        <ele>704.6</ele>
        <time>2021-08-22T10:01:59Z</time>
      </trkpt>
      <trkpt lat="44.9872" lon="2.53863">
        <ele>704.4</ele>
        <time>2021-08-22T10:02:01Z</time>
      </trkpt>
      <trkpt lat="44.98724" lon="2.53874">
        <ele>703.7</ele>
        <time>2021-08-22T10:02:03Z</time>
      </trkpt>
      <trkpt lat="44.9873" lon="2.53885">
        <ele>703.2</ele>
        <time>2021-08-22T10:02:05Z</time>
      </trkpt>
      <trkpt lat="44.98736" lon="2.53895">
        <ele>702.4</ele>
        <time>2021-08-22T10:02:07Z</time>
      </trkpt>
      <trkpt lat="44.98742" lon="2.53906">
        <ele>701.3</ele>
        <time>2021-08-22T10:02:09Z</time>
      </trkpt>
      <trkpt lat="44.98747" lon="2.53917">
        <ele>699.9</ele>
        <time>2021-08-22T10:02:11Z</time>
      </trkpt>
      <trkpt lat="44.98753" lon="2.53928">
        <ele>700</ele>
        <time>2021-08-22T10:02:13Z</time>
      </trkpt>
      <trkpt lat="44.98759" lon="2.53939">
        <ele>700.5</ele>
        <time>2021-08-22T10:02:15Z</time>
      </trkpt>
      <trkpt lat="44.98766" lon="2.53948">
        <ele>700.9</ele>
        <time>2021-08-22T10:02:17Z</time>
      </trkpt>
      <trkpt lat="44.98773" lon="2.53957">
        <ele>701.2</ele>
        <time>2021-08-22T10:02:19Z</time>
      </trkpt>
      <trkpt lat="44.98782" lon="2.53964">
        <ele>701.4</ele>
        <time>2021-08-22T10:02:21Z</time>
      </trkpt>
      <trkpt lat="44.9879" lon="2.53972">
        <ele>701.2</ele>
        <time>2021-08-22T10:02:23Z</time>
      </trkpt>
      <trkpt lat="44.98799" lon="2.53979">
        <ele>700.9</ele>
        <time>2021-08-22T10:02:25Z</time>
      </trkpt>
      <trkpt lat="44.98808" lon="2.53985">
        <ele>700.3</ele>
        <time>2021-08-22T10:02:27Z</time>
      </trkpt>
      <trkpt lat="44.98817" lon="2.53991">
        <ele>699.5</ele>
        <time>2021-08-22T10:02:29Z</time>
      </trkpt>
      <trkpt lat="44.98826" lon="2.53998">
        <ele>698.3</ele>
        <time>2021-08-22T10:02:31Z</time>
      </trkpt>
      <trkpt lat="44.98834" lon="2.54004">
        <ele>698.1</ele>
        <time>2021-08-22T10:02:33Z</time>
      </trkpt>
      <trkpt lat="44.98843" lon="2.54011">
        <ele>699.3</ele>
        <time>2021-08-22T10:02:35Z</time>
      </trkpt>
      <trkpt lat="44.98851" lon="2.54017">
        <ele>700.3</ele>
        <time>2021-08-22T10:02:37Z</time>
      </trkpt>
      <trkpt lat="44.9886" lon="2.54023">
        <ele>701.1</ele>
        <time>2021-08-22T10:02:39Z</time>
      </trkpt>
      <trkpt lat="44.98868" lon="2.54029">
        <ele>701.8</ele>
        <time>2021-08-22T10:02:41Z</time>
      </trkpt>
      <trkpt lat="44.98876" lon="2.54034">
        <ele>702.3</ele>
        <time>2021-08-22T10:02:43Z</time>
      </trkpt>
      <trkpt lat="44.98883" lon="2.54041">
        <ele>702.6</ele>
        <time>2021-08-22T10:02:45Z</time>
      </trkpt>
      <trkpt lat="44.98891" lon="2.54047">
        <ele>702.7</ele>
        <time>2021-08-22T10:02:47Z</time>
      </trkpt>
      <trkpt lat="44.98899" lon="2.54053">
        <ele>702.8</ele>
        <time>2021-08-22T10:02:49Z</time>
      </trkpt>
      <trkpt lat="44.98907" lon="2.54059">
        <ele>702.6</ele>
        <time>2021-08-22T10:02:51Z</time>
      </trkpt>
      <trkpt lat="44.98915" lon="2.54065">
        <ele>702.4</ele>
        <time>2021-08-22T10:02:53Z</time>
      </trkpt>
      <trkpt lat="44.98924" lon="2.5407">
        <ele>703</ele>
        <time>2021-08-22T10:02:55Z</time>
      </trkpt>
      <trkpt lat="44.98932" lon="2.54076">
        <ele>703.4</ele>
        <time>2021-08-22T10:02:57Z</time>
      </trkpt>
      <trkpt lat="44.9894" lon="2.54082">
        <ele>703.6</ele>
        <time>2021-08-22T10:02:59Z</time>
      </trkpt>
      <trkpt lat="44.98948" lon="2.54088">
        <ele>704.2</ele>
        <time>2021-08-22T10:03:01Z</time>
      </trkpt>
      <trkpt lat="44.98957" lon="2.54094">
        <ele>704.8</ele>
        <time>2021-08-22T10:03:03Z</time>
      </trkpt>
      <trkpt lat="44.98965" lon="2.541">
        <ele>705.3</ele>
        <time>2021-08-22T10:03:05Z</time>
      </trkpt>
      <trkpt lat="44.98974" lon="2.54106">
        <ele>705.7</ele>
        <time>2021-08-22T10:03:07Z</time>
      </trkpt>
      <trkpt lat="44.98982" lon="2.54112">
        <ele>706</ele>
        <time>2021-08-22T10:03:09Z</time>
      </trkpt>
      <trkpt lat="44.9899" lon="2.54118">
        <ele>706.3</ele>
        <time>2021-08-22T10:03:11Z</time>
      </trkpt>
      <trkpt lat="44.98998" lon="2.54124">
        <ele>706.4</ele>
        <time>2021-08-22T10:03:13Z</time>
      </trkpt>
      <trkpt lat="44.99006" lon="2.5413">
        <ele>706.8</ele>
        <time>2021-08-22T10:03:15Z</time>
      </trkpt>
      <trkpt lat="44.99014" lon="2.54136">
        <ele>707.2</ele>
        <time>2021-08-22T10:03:17Z</time>
      </trkpt>
      <trkpt lat="44.99023" lon="2.54142">
        <ele>707.4</ele>
        <time>2021-08-22T10:03:19Z</time>
      </trkpt>
      <trkpt lat="44.99031" lon="2.54149">
        <ele>707.5</ele>
        <time>2021-08-22T10:03:21Z</time>
      </trkpt>
      <trkpt lat="44.9904" lon="2.54154">
        <ele>707.8</ele>
        <time>2021-08-22T10:03:23Z</time>
      </trkpt>
      <trkpt lat="44.99049" lon="2.54159">
        <ele>707.8</ele>
        <time>2021-08-22T10:03:25Z</time>
      </trkpt>
      <trkpt lat="44.99058" lon="2.54166">
        <ele>707.4</ele>
        <time>2021-08-22T10:03:27Z</time>
      </trkpt>
      <trkpt lat="44.99066" lon="2.54173">
        <ele>707.5</ele>
        <time>2021-08-22T10:03:29Z</time>
      </trkpt>
      <trkpt lat="44.99075" lon="2.54179">
        <ele>707.6</ele>
        <time>2021-08-22T10:03:31Z</time>
      </trkpt>
      <trkpt lat="44.99084" lon="2.54186">
        <ele>707.7</ele>
        <time>2021-08-22T10:03:33Z</time>
      </trkpt>
      <trkpt lat="44.99093" lon="2.54192">
        <ele>708.6</ele>
        <time>2021-08-22T10:03:35Z</time>
      </trkpt>
      <trkpt lat="44.99101" lon="2.54199">
        <ele>709.2</ele>
        <time>2021-08-22T10:03:37Z</time>
      </trkpt>
      <trkpt lat="44.9911" lon="2.54205">
        <ele>709.6</ele>
        <time>2021-08-22T10:03:39Z</time>
      </trkpt>
      <trkpt lat="44.99118" lon="2.54211">
        <ele>709.8</ele>
        <time>2021-08-22T10:03:41Z</time>
      </trkpt>
      <trkpt lat="44.99127" lon="2.54218">
        <ele>709.8</ele>
        <time>2021-08-22T10:03:43Z</time>
      </trkpt>
      <trkpt lat="44.99136" lon="2.54224">
        <ele>709.5</ele>
        <time>2021-08-22T10:03:45Z</time>
      </trkpt>
      <trkpt lat="44.99144" lon="2.5423">
        <ele>709.2</ele>
        <time>2021-08-22T10:03:47Z</time>
      </trkpt>
      <trkpt lat="44.99152" lon="2.54236">
        <ele>708.6</ele>
        <time>2021-08-22T10:03:49Z</time>
      </trkpt>
      <trkpt lat="44.99161" lon="2.54243">
        <ele>707.7</ele>
        <time>2021-08-22T10:03:51Z</time>
      </trkpt>
      <trkpt lat="44.9917" lon="2.54249">
        <ele>706.8</ele>
        <time>2021-08-22T10:03:53Z</time>
      </trkpt>
      <trkpt lat="44.99179" lon="2.54255">
        <ele>706.9</ele>
        <time>2021-08-22T10:03:55Z</time>
      </trkpt>
      <trkpt lat="44.99188" lon="2.54261">
        <ele>707.3</ele>
        <time>2021-08-22T10:03:57Z</time>
      </trkpt>
      <trkpt lat="44.99196" lon="2.54268">
        <ele>707.5</ele>
        <time>2021-08-22T10:03:59Z</time>
      </trkpt>
      <trkpt lat="44.99206" lon="2.54274">
        <ele>707.6</ele>
        <time>2021-08-22T10:04:01Z</time>
      </trkpt>
      <trkpt lat="44.99215" lon="2.5428">
        <ele>707.5</ele>
        <time>2021-08-22T10:04:03Z</time>
      </trkpt>
      <trkpt lat="44.99224" lon="2.54286">
        <ele>707.4</ele>
        <time>2021-08-22T10:04:05Z</time>
      </trkpt>
      <trkpt lat="44.99233" lon="2.54293">
        <ele>706.9</ele>
        <time>2021-08-22T10:04:07Z</time>
      </trkpt>
      <trkpt lat="44.99242" lon="2.54299">
        <ele>706.4</ele>
        <time>2021-08-22T10:04:09Z</time>
      </trkpt>
      <trkpt lat="44.99252" lon="2.54306">
        <ele>705.7</ele>
        <time>2021-08-22T10:04:11Z</time>
      </trkpt>
      <trkpt lat="44.99261" lon="2.54314">
        <ele>705.3</ele>
        <time>2021-08-22T10:04:13Z</time>
      </trkpt>
      <trkpt lat="44.99271" lon="2.54321">
        <ele>704.7</ele>
        <time>2021-08-22T10:04:15Z</time>
      </trkpt>
      <trkpt lat="44.9928" lon="2.5433">
        <ele>703.6</ele>
        <time>2021-08-22T10:04:17Z</time>
      </trkpt>
      <trkpt lat="44.99288" lon="2.54339">
        <ele>703.1</ele>
        <time>2021-08-22T10:04:19Z</time>
      </trkpt>
      <trkpt lat="44.99296" lon="2.54349">
        <ele>703.2</ele>
        <time>2021-08-22T10:04:21Z</time>
      </trkpt>
      <trkpt lat="44.99303" lon="2.5436">
        <ele>703.1</ele>
        <time>2021-08-22T10:04:23Z</time>
      </trkpt>
      <trkpt lat="44.9931" lon="2.54371">
        <ele>703.1</ele>
        <time>2021-08-22T10:04:25Z</time>
      </trkpt>
      <trkpt lat="44.99317" lon="2.54382">
        <ele>702.9</ele>
        <time>2021-08-22T10:04:27Z</time>
      </trkpt>
      <trkpt lat="44.99324" lon="2.54393">
        <ele>702.8</ele>
        <time>2021-08-22T10:04:29Z</time>
      </trkpt>
      <trkpt lat="44.99332" lon="2.54403">
        <ele>702.6</ele>
        <time>2021-08-22T10:04:31Z</time>
      </trkpt>
      <trkpt lat="44.99339" lon="2.54414">
        <ele>702.7</ele>
        <time>2021-08-22T10:04:33Z</time>
      </trkpt>
      <trkpt lat="44.99347" lon="2.54423">
        <ele>703</ele>
        <time>2021-08-22T10:04:35Z</time>
      </trkpt>
      <trkpt lat="44.99354" lon="2.54433">
        <ele>703.4</ele>
        <time>2021-08-22T10:04:37Z</time>
      </trkpt>
      <trkpt lat="44.99361" lon="2.54443">
        <ele>703.7</ele>
        <time>2021-08-22T10:04:39Z</time>
      </trkpt>
      <trkpt lat="44.99368" lon="2.54453">
        <ele>703.9</ele>
        <time>2021-08-22T10:04:41Z</time>
      </trkpt>
      <trkpt lat="44.99374" lon="2.54463">
        <ele>704.1</ele>
        <time>2021-08-22T10:04:43Z</time>
      </trkpt>
      <trkpt lat="44.99381" lon="2.54472">
        <ele>704.2</ele>
        <time>2021-08-22T10:04:45Z</time>
      </trkpt>
      <trkpt lat="44.99388" lon="2.54482">
        <ele>704.2</ele>
        <time>2021-08-22T10:04:47Z</time>
      </trkpt>
      <trkpt lat="44.99393" lon="2.54493">
        <ele>704.1</ele>
        <time>2021-08-22T10:04:49Z</time>
      </trkpt>
      <trkpt lat="44.99398" lon="2.54505">
        <ele>703.9</ele>
        <time>2021-08-22T10:04:51Z</time>
      </trkpt>
      <trkpt lat="44.99399" lon="2.54519">
        <ele>703.4</ele>
        <time>2021-08-22T10:04:53Z</time>
      </trkpt>
      <trkpt lat="44.99399" lon="2.54531">
        <ele>702.9</ele>
        <time>2021-08-22T10:04:55Z</time>
      </trkpt>
      <trkpt lat="44.99399" lon="2.54543">
        <ele>702.4</ele>
        <time>2021-08-22T10:04:57Z</time>
      </trkpt>
      <trkpt lat="44.99398" lon="2.54554">
        <ele>702</ele>
        <time>2021-08-22T10:04:59Z</time>
      </trkpt>
      <trkpt lat="44.99397" lon="2.54565">
        <ele>701.5</ele>
        <time>2021-08-22T10:05:01Z</time>
      </trkpt>
      <trkpt lat="44.99395" lon="2.54577">
        <ele>701</ele>
        <time>2021-08-22T10:05:03Z</time>
      </trkpt>
      <trkpt lat="44.99394" lon="2.54589">
        <ele>700.6</ele>
        <time>2021-08-22T10:05:05Z</time>
      </trkpt>
      <trkpt lat="44.99392" lon="2.54602">
        <ele>700.3</ele>
        <time>2021-08-22T10:05:07Z</time>
      </trkpt>
      <trkpt lat="44.9939" lon="2.54615">
        <ele>700</ele>
        <time>2021-08-22T10:05:09Z</time>
      </trkpt>
      <trkpt lat="44.99389" lon="2.54629">
        <ele>699.8</ele>
        <time>2021-08-22T10:05:11Z</time>
      </trkpt>
      <trkpt lat="44.99387" lon="2.54643">
        <ele>699.5</ele>
        <time>2021-08-22T10:05:13Z</time>
      </trkpt>
      <trkpt lat="44.99385" lon="2.54657">
        <ele>699.3</ele>
        <time>2021-08-22T10:05:15Z</time>
      </trkpt>
      <trkpt lat="44.99385" lon="2.54672">
        <ele>699.2</ele>
        <time>2021-08-22T10:05:17Z</time>
      </trkpt>
      <trkpt lat="44.99386" lon="2.54686">
        <ele>699.2</ele>
        <time>2021-08-22T10:05:19Z</time>
      </trkpt>
      <trkpt lat="44.99389" lon="2.547">
        <ele>699.1</ele>
        <time>2021-08-22T10:05:21Z</time>
      </trkpt>
      <trkpt lat="44.99393" lon="2.54712">
        <ele>699.1</ele>
        <time>2021-08-22T10:05:23Z</time>
      </trkpt>
      <trkpt lat="44.99399" lon="2.54724">
        <ele>699</ele>
        <time>2021-08-22T10:05:25Z</time>
      </trkpt>
      <trkpt lat="44.99407" lon="2.54735">
        <ele>699</ele>
        <time>2021-08-22T10:05:27Z</time>
      </trkpt>
      <trkpt lat="44.99414" lon="2.54745">
        <ele>699</ele>
        <time>2021-08-22T10:05:29Z</time>
      </trkpt>
      <trkpt lat="44.99421" lon="2.54755">
        <ele>699.3</ele>
        <time>2021-08-22T10:05:31Z</time>
      </trkpt>
      <trkpt lat="44.99428" lon="2.54765">
        <ele>699.7</ele>
        <time>2021-08-22T10:05:33Z</time>
      </trkpt>
      <trkpt lat="44.99434" lon="2.54774">
        <ele>700.2</ele>
        <time>2021-08-22T10:05:35Z</time>
      </trkpt>
      <trkpt lat="44.9944" lon="2.54783">
        <ele>700.5</ele>
        <time>2021-08-22T10:05:37Z</time>
      </trkpt>
      <trkpt lat="44.99446" lon="2.54791">
        <ele>700.8</ele>
        <time>2021-08-22T10:05:39Z</time>
      </trkpt>
      <trkpt lat="44.99452" lon="2.54799">
        <ele>701.1</ele>
        <time>2021-08-22T10:05:41Z</time>
      </trkpt>
      <trkpt lat="44.99458" lon="2.54808">
        <ele>701.4</ele>
        <time>2021-08-22T10:05:43Z</time>
      </trkpt>
      <trkpt lat="44.99464" lon="2.54816">
        <ele>701.6</ele>
        <time>2021-08-22T10:05:45Z</time>
      </trkpt>
      <trkpt lat="44.99469" lon="2.54824">
        <ele>701.8</ele>
        <time>2021-08-22T10:05:47Z</time>
      </trkpt>
      <trkpt lat="44.99475" lon="2.54833">
        <ele>702</ele>
        <time>2021-08-22T10:05:49Z</time>
      </trkpt>
      <trkpt lat="44.99481" lon="2.54841">
        <ele>702.3</ele>
        <time>2021-08-22T10:05:51Z</time>
      </trkpt>
      <trkpt lat="44.99488" lon="2.5485">
        <ele>702.6</ele>
        <time>2021-08-22T10:05:53Z</time>
      </trkpt>
      <trkpt lat="44.99494" lon="2.54859">
        <ele>702.9</ele>
        <time>2021-08-22T10:05:55Z</time>
      </trkpt>
      <trkpt lat="44.995" lon="2.54867">
        <ele>703.2</ele>
        <time>2021-08-22T10:05:57Z</time>
      </trkpt>
      <trkpt lat="44.99506" lon="2.54876">
        <ele>703.5</ele>
        <time>2021-08-22T10:05:59Z</time>
      </trkpt>
      <trkpt lat="44.99512" lon="2.54884">
        <ele>703.7</ele>
        <time>2021-08-22T10:06:01Z</time>
      </trkpt>
      <trkpt lat="44.99517" lon="2.54893">
        <ele>703.9</ele>
        <time>2021-08-22T10:06:03Z</time>
      </trkpt>
      <trkpt lat="44.99524" lon="2.54901">
        <ele>704.1</ele>
        <time>2021-08-22T10:06:05Z</time>
      </trkpt>
      <trkpt lat="44.9953" lon="2.54908">
        <ele>704.3</ele>
        <time>2021-08-22T10:06:07Z</time>
      </trkpt>
      <trkpt lat="44.99536" lon="2.54916">
        <ele>704.5</ele>
        <time>2021-08-22T10:06:09Z</time>
      </trkpt>
      <trkpt lat="44.99544" lon="2.54922">
        <ele>704.6</ele>
        <time>2021-08-22T10:06:11Z</time>
      </trkpt>
      <trkpt lat="44.99551" lon="2.54927">
        <ele>704.6</ele>
        <time>2021-08-22T10:06:13Z</time>
      </trkpt>
      <trkpt lat="44.99559" lon="2.54932">
        <ele>704.5</ele>
        <time>2021-08-22T10:06:15Z</time>
      </trkpt>
      <trkpt lat="44.99568" lon="2.54936">
        <ele>704.5</ele>
        <time>2021-08-22T10:06:17Z</time>
      </trkpt>
      <trkpt lat="44.99576" lon="2.5494">
        <ele>704.4</ele>
        <time>2021-08-22T10:06:19Z</time>
      </trkpt>
      <trkpt lat="44.99585" lon="2.54944">
        <ele>704.3</ele>
        <time>2021-08-22T10:06:21Z</time>
      </trkpt>
      <trkpt lat="44.99593" lon="2.54949">
        <ele>704.3</ele>
        <time>2021-08-22T10:06:23Z</time>
      </trkpt>
      <trkpt lat="44.99602" lon="2.54953">
        <ele>704.3</ele>
        <time>2021-08-22T10:06:25Z</time>
      </trkpt>
      <trkpt lat="44.9961" lon="2.54957">
        <ele>704.3</ele>
        <time>2021-08-22T10:06:27Z</time>
      </trkpt>
      <trkpt lat="44.99619" lon="2.54961">
        <ele>704.3</ele>
        <time>2021-08-22T10:06:29Z</time>
      </trkpt>
      <trkpt lat="44.99628" lon="2.54965">
        <ele>704.4</ele>
        <time>2021-08-22T10:06:31Z</time>
      </trkpt>
      <trkpt lat="44.99636" lon="2.5497">
        <ele>704.4</ele>
        <time>2021-08-22T10:06:33Z</time>
      </trkpt>
      <trkpt lat="44.99645" lon="2.54974">
        <ele>704.5</ele>
        <time>2021-08-22T10:06:35Z</time>
      </trkpt>
      <trkpt lat="44.99654" lon="2.54978">
        <ele>704.5</ele>
        <time>2021-08-22T10:06:37Z</time>
      </trkpt>
      <trkpt lat="44.99662" lon="2.54982">
        <ele>704.6</ele>
        <time>2021-08-22T10:06:39Z</time>
      </trkpt>
      <trkpt lat="44.9967" lon="2.54986">
        <ele>704.7</ele>
        <time>2021-08-22T10:06:41Z</time>
      </trkpt>
      <trkpt lat="44.99678" lon="2.5499">
        <ele>704.8</ele>
        <time>2021-08-22T10:06:43Z</time>
      </trkpt>
      <trkpt lat="44.99686" lon="2.54994">
        <ele>704.9</ele>
        <time>2021-08-22T10:06:45Z</time>
      </trkpt>
      <trkpt lat="44.99694" lon="2.54998">
        <ele>705</ele>
        <time>2021-08-22T10:06:47Z</time>
      </trkpt>
      <trkpt lat="44.99702" lon="2.55002">
        <ele>705.1</ele>
        <time>2021-08-22T10:06:49Z</time>
      </trkpt>
      <trkpt lat="44.9971" lon="2.55006">
        <ele>705.2</ele>
        <time>2021-08-22T10:06:51Z</time>
      </trkpt>
      <trkpt lat="44.99717" lon="2.5501">
        <ele>705.3</ele>
        <time>2021-08-22T10:06:53Z</time>
      </trkpt>
      <trkpt lat="44.99726" lon="2.55014">
        <ele>705.4</ele>
        <time>2021-08-22T10:06:55Z</time>
      </trkpt>
      <trkpt lat="44.99734" lon="2.55018">
        <ele>705.5</ele>
        <time>2021-08-22T10:06:57Z</time>
      </trkpt>
      <trkpt lat="44.99743" lon="2.55023">
        <ele>705.6</ele>
        <time>2021-08-22T10:06:59Z</time>
      </trkpt>
      <trkpt lat="44.99751" lon="2.55027">
        <ele>705.7</ele>
        <time>2021-08-22T10:07:01Z</time>
      </trkpt>
      <trkpt lat="44.99759" lon="2.5503">
        <ele>705.9</ele>
        <time>2021-08-22T10:07:03Z</time>
      </trkpt>
      <trkpt lat="44.99767" lon="2.55034">
        <ele>706.1</ele>
        <time>2021-08-22T10:07:05Z</time>
      </trkpt>
      <trkpt lat="44.99775" lon="2.55038">
        <ele>706.4</ele>
        <time>2021-08-22T10:07:07Z</time>
      </trkpt>
      <trkpt lat="44.99782" lon="2.55042">
        <ele>706.6</ele>
        <time>2021-08-22T10:07:09Z</time>
      </trkpt>
      <trkpt lat="44.9979" lon="2.55046">
        <ele>706.8</ele>
        <time>2021-08-22T10:07:11Z</time>
      </trkpt>
      <trkpt lat="44.99797" lon="2.5505">
        <ele>707</ele>
        <time>2021-08-22T10:07:13Z</time>
      </trkpt>
      <trkpt lat="44.99805" lon="2.55053">
        <ele>707.2</ele>
        <time>2021-08-22T10:07:15Z</time>
      </trkpt>
      <trkpt lat="44.99812" lon="2.55057">
        <ele>707.3</ele>
        <time>2021-08-22T10:07:17Z</time>
      </trkpt>
      <trkpt lat="44.99819" lon="2.5506">
        <ele>707.5</ele>
        <time>2021-08-22T10:07:19Z</time>
      </trkpt>
      <trkpt lat="44.99826" lon="2.55064">
        <ele>707.7</ele>
        <time>2021-08-22T10:07:21Z</time>
      </trkpt>
      <trkpt lat="44.99834" lon="2.55067">
        <ele>707.8</ele>
        <time>2021-08-22T10:07:23Z</time>
      </trkpt>
      <trkpt lat="44.9984" lon="2.55071">
        <ele>707.9</ele>
        <time>2021-08-22T10:07:25Z</time>
      </trkpt>
      <trkpt lat="44.99847" lon="2.55074">
        <ele>708</ele>
        <time>2021-08-22T10:07:27Z</time>
      </trkpt>
      <trkpt lat="44.99854" lon="2.55077">
        <ele>708.2</ele>
        <time>2021-08-22T10:07:29Z</time>
      </trkpt>
      <trkpt lat="44.99861" lon="2.55081">
        <ele>708.3</ele>
        <time>2021-08-22T10:07:31Z</time>
      </trkpt>
      <trkpt lat="44.99867" lon="2.55085">
        <ele>708.5</ele>
        <time>2021-08-22T10:07:33Z</time>
      </trkpt>
      <trkpt lat="44.99874" lon="2.55088">
        <ele>708.7</ele>
        <time>2021-08-22T10:07:35Z</time>
      </trkpt>
      <trkpt lat="44.99881" lon="2.5509">
        <ele>708.9</ele>
        <time>2021-08-22T10:07:37Z</time>
      </trkpt>
      <trkpt lat="44.99888" lon="2.55094">
        <ele>709.1</ele>
        <time>2021-08-22T10:07:39Z</time>
      </trkpt>
      <trkpt lat="44.99894" lon="2.55097">
        <ele>709.3</ele>
        <time>2021-08-22T10:07:41Z</time>
      </trkpt>
      <trkpt lat="44.99901" lon="2.551">
        <ele>709.5</ele>
        <time>2021-08-22T10:07:43Z</time>
      </trkpt>
      <trkpt lat="44.99908" lon="2.55103">
        <ele>709.7</ele>
        <time>2021-08-22T10:07:45Z</time>
      </trkpt>
      <trkpt lat="44.99914" lon="2.55106">
        <ele>709.8</ele>
        <time>2021-08-22T10:07:47Z</time>
      </trkpt>
      <trkpt lat="44.99921" lon="2.5511">
        <ele>709</ele>
        <time>2021-08-22T10:07:49Z</time>
      </trkpt>
      <trkpt lat="44.99927" lon="2.55114">
        <ele>709</ele>
        <time>2021-08-22T10:07:51Z</time>
      </trkpt>
      <trkpt lat="44.99933" lon="2.55117">
        <ele>709</ele>
        <time>2021-08-22T10:07:53Z</time>
      </trkpt>
      <trkpt lat="44.9994" lon="2.55121">
        <ele>709</ele>
        <time>2021-08-22T10:07:55Z</time>
      </trkpt>
      <trkpt lat="44.99946" lon="2.55125">
        <ele>709</ele>
        <time>2021-08-22T10:07:57Z</time>
      </trkpt>
      <trkpt lat="44.99953" lon="2.55128">
        <ele>712</ele>
        <time>2021-08-22T10:07:59Z</time>
      </trkpt>
      <trkpt lat="44.99959" lon="2.55133">
        <ele>712</ele>
        <time>2021-08-22T10:08:01Z</time>
      </trkpt>
      <trkpt lat="44.99965" lon="2.55136">
        <ele>712</ele>
        <time>2021-08-22T10:08:03Z</time>
      </trkpt>
      <trkpt lat="44.99971" lon="2.5514">
        <ele>712</ele>
        <time>2021-08-22T10:08:05Z</time>
      </trkpt>
      <trkpt lat="44.99977" lon="2.55145">
        <ele>712</ele>
        <time>2021-08-22T10:08:07Z</time>
      </trkpt>
      <trkpt lat="44.99984" lon="2.55149">
        <ele>712</ele>
        <time>2021-08-22T10:08:09Z</time>
      </trkpt>
      <trkpt lat="44.9999" lon="2.55154">
        <ele>712</ele>
        <time>2021-08-22T10:08:11Z</time>
      </trkpt>
      <trkpt lat="44.99996" lon="2.55159">
        <ele>712</ele>
        <time>2021-08-22T10:08:13Z</time>
      </trkpt>
      <trkpt lat="45.00002" lon="2.55164">
        <ele>712</ele>
        <time>2021-08-22T10:08:15Z</time>
      </trkpt>
      <trkpt lat="45.00008" lon="2.5517">
        <ele>712.3</ele>
        <time>2021-08-22T10:08:17Z</time>
      </trkpt>
      <trkpt lat="45.00014" lon="2.55175">
        <ele>712.5</ele>
        <time>2021-08-22T10:08:19Z</time>
      </trkpt>
      <trkpt lat="45.0002" lon="2.5518">
        <ele>712.8</ele>
        <time>2021-08-22T10:08:21Z</time>
      </trkpt>
      <trkpt lat="45.00026" lon="2.55185">
        <ele>713</ele>
        <time>2021-08-22T10:08:23Z</time>
      </trkpt>
      <trkpt lat="45.00032" lon="2.5519">
        <ele>713.2</ele>
        <time>2021-08-22T10:08:25Z</time>
      </trkpt>
      <trkpt lat="45.00038" lon="2.55193">
        <ele>713.4</ele>
        <time>2021-08-22T10:08:27Z</time>
      </trkpt>
      <trkpt lat="45.00043" lon="2.55199">
        <ele>713.6</ele>
        <time>2021-08-22T10:08:29Z</time>
      </trkpt>
      <trkpt lat="45.00048" lon="2.55204">
        <ele>713.8</ele>
        <time>2021-08-22T10:08:31Z</time>
      </trkpt>
      <trkpt lat="45.00054" lon="2.55209">
        <ele>714</ele>
        <time>2021-08-22T10:08:33Z</time>
      </trkpt>
      <trkpt lat="45.0006" lon="2.55213">
        <ele>714.2</ele>
        <time>2021-08-22T10:08:35Z</time>
      </trkpt>
      <trkpt lat="45.00066" lon="2.55218">
        <ele>714.3</ele>
        <time>2021-08-22T10:08:37Z</time>
      </trkpt>
      <trkpt lat="45.00072" lon="2.55223">
        <ele>714.5</ele>
        <time>2021-08-22T10:08:39Z</time>
      </trkpt>
      <trkpt lat="45.00077" lon="2.55227">
        <ele>714.6</ele>
        <time>2021-08-22T10:08:41Z</time>
      </trkpt>
      <trkpt lat="45.00082" lon="2.55232">
        <ele>714.8</ele>
        <time>2021-08-22T10:08:43Z</time>
      </trkpt>
      <trkpt lat="45.00088" lon="2.55236">
        <ele>714.7</ele>
        <time>2021-08-22T10:08:45Z</time>
      </trkpt>
      <trkpt lat="45.00093" lon="2.5524">
        <ele>714.7</ele>
        <time>2021-08-22T10:08:47Z</time>
      </trkpt>
      <trkpt lat="45.00099" lon="2.55245">
        <ele>714.6</ele>
        <time>2021-08-22T10:08:49Z</time>
      </trkpt>
      <trkpt lat="45.00105" lon="2.5525">
        <ele>714.5</ele>
        <time>2021-08-22T10:08:51Z</time>
      </trkpt>
      <trkpt lat="45.0011" lon="2.55253">
        <ele>714.5</ele>
        <time>2021-08-22T10:08:53Z</time>
      </trkpt>
      <trkpt lat="45.00117" lon="2.55257">
        <ele>714.5</ele>
        <time>2021-08-22T10:08:55Z</time>
      </trkpt>
      <trkpt lat="45.00123" lon="2.55262">
        <ele>714.5</ele>
        <time>2021-08-22T10:08:57Z</time>
      </trkpt>
      <trkpt lat="45.00129" lon="2.55267">
        <ele>714.5</ele>
        <time>2021-08-22T10:08:59Z</time>
      </trkpt>
      <trkpt lat="45.00136" lon="2.55273">
        <ele>714.6</ele>
        <time>2021-08-22T10:09:01Z</time>
      </trkpt>
      <trkpt lat="45.00144" lon="2.5528">
        <ele>714.6</ele>
        <time>2021-08-22T10:09:03Z</time>
      </trkpt>
      <trkpt lat="45.0015" lon="2.55288">
        <ele>714.8</ele>
        <time>2021-08-22T10:09:05Z</time>
      </trkpt>
      <trkpt lat="45.00158" lon="2.55296">
        <ele>714.9</ele>
        <time>2021-08-22T10:09:07Z</time>
      </trkpt>
      <trkpt lat="45.00164" lon="2.55307">
        <ele>715.1</ele>
        <time>2021-08-22T10:09:09Z</time>
      </trkpt>
      <trkpt lat="45.00171" lon="2.55317">
        <ele>715.2</ele>
        <time>2021-08-22T10:09:11Z</time>
      </trkpt>
      <trkpt lat="45.00178" lon="2.55327">
        <ele>715.1</ele>
        <time>2021-08-22T10:09:13Z</time>
      </trkpt>
      <trkpt lat="45.00184" lon="2.55338">
        <ele>715.2</ele>
        <time>2021-08-22T10:09:15Z</time>
      </trkpt>
      <trkpt lat="45.00191" lon="2.55348">
        <ele>715.5</ele>
        <time>2021-08-22T10:09:17Z</time>
      </trkpt>
      <trkpt lat="45.00197" lon="2.55358">
        <ele>715.9</ele>
        <time>2021-08-22T10:09:19Z</time>
      </trkpt>
      <trkpt lat="45.00204" lon="2.55368">
        <ele>716.1</ele>
        <time>2021-08-22T10:09:21Z</time>
      </trkpt>
      <trkpt lat="45.00211" lon="2.55379">
        <ele>716.3</ele>
        <time>2021-08-22T10:09:23Z</time>
      </trkpt>
      <trkpt lat="45.00217" lon="2.55389">
        <ele>716.6</ele>
        <time>2021-08-22T10:09:25Z</time>
      </trkpt>
      <trkpt lat="45.00224" lon="2.55399">
        <ele>716.8</ele>
        <time>2021-08-22T10:09:27Z</time>
      </trkpt>
      <trkpt lat="45.0023" lon="2.55409">
        <ele>716.9</ele>
        <time>2021-08-22T10:09:29Z</time>
      </trkpt>
      <trkpt lat="45.00236" lon="2.55419">
        <ele>717.2</ele>
        <time>2021-08-22T10:09:31Z</time>
      </trkpt>
      <trkpt lat="45.00243" lon="2.55429">
        <ele>717.5</ele>
        <time>2021-08-22T10:09:33Z</time>
      </trkpt>
      <trkpt lat="45.00249" lon="2.55439">
        <ele>717.9</ele>
        <time>2021-08-22T10:09:35Z</time>
      </trkpt>
      <trkpt lat="45.00256" lon="2.55449">
        <ele>718.2</ele>
        <time>2021-08-22T10:09:37Z</time>
      </trkpt>
      <trkpt lat="45.00263" lon="2.55459">
        <ele>718.5</ele>
        <time>2021-08-22T10:09:39Z</time>
      </trkpt>
      <trkpt lat="45.00271" lon="2.55469">
        <ele>718.8</ele>
        <time>2021-08-22T10:09:41Z</time>
      </trkpt>
      <trkpt lat="45.00278" lon="2.55478">
        <ele>719</ele>
        <time>2021-08-22T10:09:43Z</time>
      </trkpt>
      <trkpt lat="45.00286" lon="2.55487">
        <ele>719.2</ele>
        <time>2021-08-22T10:09:45Z</time>
      </trkpt>
      <trkpt lat="45.00295" lon="2.55496">
        <ele>719.3</ele>
        <time>2021-08-22T10:09:47Z</time>
      </trkpt>
      <trkpt lat="45.00305" lon="2.55503">
        <ele>720.2</ele>
        <time>2021-08-22T10:09:49Z</time>
      </trkpt>
      <trkpt lat="45.00316" lon="2.5551">
        <ele>721.7</ele>
        <time>2021-08-22T10:09:51Z</time>
      </trkpt>
      <trkpt lat="45.00326" lon="2.55518">
        <ele>723.2</ele>
        <time>2021-08-22T10:09:53Z</time>
      </trkpt>
      <trkpt lat="45.00337" lon="2.55526">
        <ele>724.6</ele>
        <time>2021-08-22T10:09:55Z</time>
      </trkpt>
      <trkpt lat="45.00348" lon="2.55534">
        <ele>725.7</ele>
        <time>2021-08-22T10:09:57Z</time>
      </trkpt>
      <trkpt lat="45.0036" lon="2.55544">
        <ele>726.9</ele>
        <time>2021-08-22T10:09:59Z</time>
      </trkpt>
      <trkpt lat="45.00372" lon="2.55551">
        <ele>726.6</ele>
        <time>2021-08-22T10:10:01Z</time>
      </trkpt>
      <trkpt lat="45.00383" lon="2.5556">
        <ele>726.6</ele>
        <time>2021-08-22T10:10:03Z</time>
      </trkpt>
      <trkpt lat="45.00395" lon="2.55567">
        <ele>725.9</ele>
        <time>2021-08-22T10:10:05Z</time>
      </trkpt>
      <trkpt lat="45.00406" lon="2.55575">
        <ele>725.1</ele>
        <time>2021-08-22T10:10:07Z</time>
      </trkpt>
      <trkpt lat="45.00417" lon="2.55583">
        <ele>723.9</ele>
        <time>2021-08-22T10:10:09Z</time>
      </trkpt>
      <trkpt lat="45.00428" lon="2.5559">
        <ele>724.4</ele>
        <time>2021-08-22T10:10:11Z</time>
      </trkpt>
      <trkpt lat="45.00438" lon="2.55597">
        <ele>724.8</ele>
        <time>2021-08-22T10:10:13Z</time>
      </trkpt>
      <trkpt lat="45.00448" lon="2.55603">
        <ele>724.9</ele>
        <time>2021-08-22T10:10:15Z</time>
      </trkpt>
      <trkpt lat="45.00456" lon="2.5561">
        <ele>725.1</ele>
        <time>2021-08-22T10:10:17Z</time>
      </trkpt>
      <trkpt lat="45.00465" lon="2.55616">
        <ele>724.9</ele>
        <time>2021-08-22T10:10:19Z</time>
      </trkpt>
      <trkpt lat="45.00473" lon="2.55622">
        <ele>724.7</ele>
        <time>2021-08-22T10:10:21Z</time>
      </trkpt>
      <trkpt lat="45.00481" lon="2.55627">
        <ele>724.4</ele>
        <time>2021-08-22T10:10:23Z</time>
      </trkpt>
      <trkpt lat="45.00488" lon="2.55632">
        <ele>723.8</ele>
        <time>2021-08-22T10:10:25Z</time>
      </trkpt>
      <trkpt lat="45.00496" lon="2.55637">
        <ele>723.2</ele>
        <time>2021-08-22T10:10:27Z</time>
      </trkpt>
      <trkpt lat="45.00503" lon="2.55642">
        <ele>722.8</ele>
        <time>2021-08-22T10:10:29Z</time>
      </trkpt>
      <trkpt lat="45.0051" lon="2.55647">
        <ele>722.8</ele>
        <time>2021-08-22T10:10:31Z</time>
      </trkpt>
      <trkpt lat="45.00517" lon="2.55652">
        <ele>722.6</ele>
        <time>2021-08-22T10:10:33Z</time>
      </trkpt>
      <trkpt lat="45.00524" lon="2.55656">
        <ele>722.4</ele>
        <time>2021-08-22T10:10:35Z</time>
      </trkpt>
      <trkpt lat="45.0053" lon="2.55662">
        <ele>722.4</ele>
        <time>2021-08-22T10:10:37Z</time>
      </trkpt>
      <trkpt lat="45.00537" lon="2.55667">
        <ele>722.1</ele>
        <time>2021-08-22T10:10:39Z</time>
      </trkpt>
      <trkpt lat="45.00545" lon="2.55672">
        <ele>722.1</ele>
        <time>2021-08-22T10:10:41Z</time>
      </trkpt>
      <trkpt lat="45.00553" lon="2.55677">
        <ele>722</ele>
        <time>2021-08-22T10:10:43Z</time>
      </trkpt>
      <trkpt lat="45.00562" lon="2.55682">
        <ele>721.6</ele>
        <time>2021-08-22T10:10:45Z</time>
      </trkpt>
      <trkpt lat="45.00571" lon="2.55688">
        <ele>721.2</ele>
        <time>2021-08-22T10:10:47Z</time>
      </trkpt>
      <trkpt lat="45.0058" lon="2.55693">
        <ele>720.4</ele>
        <time>2021-08-22T10:10:49Z</time>
      </trkpt>
      <trkpt lat="45.0059" lon="2.55698">
        <ele>719.9</ele>
        <time>2021-08-22T10:10:51Z</time>
      </trkpt>
      <trkpt lat="45.006" lon="2.55702">
        <ele>719.6</ele>
        <time>2021-08-22T10:10:53Z</time>
      </trkpt>
      <trkpt lat="45.00611" lon="2.55705">
        <ele>719.1</ele>
        <time>2021-08-22T10:10:55Z</time>
      </trkpt>
      <trkpt lat="45.00621" lon="2.55707">
        <ele>718.5</ele>
        <time>2021-08-22T10:10:57Z</time>
      </trkpt>
      <trkpt lat="45.00632" lon="2.5571">
        <ele>717.8</ele>
        <time>2021-08-22T10:10:59Z</time>
      </trkpt>
      <trkpt lat="45.00643" lon="2.55711">
        <ele>716.8</ele>
        <time>2021-08-22T10:11:01Z</time>
      </trkpt>
      <trkpt lat="45.00653" lon="2.55712">
        <ele>715.9</ele>
        <time>2021-08-22T10:11:03Z</time>
      </trkpt>
      <trkpt lat="45.00663" lon="2.55711">
        <ele>715</ele>
        <time>2021-08-22T10:11:05Z</time>
      </trkpt>
      <trkpt lat="45.00673" lon="2.5571">
        <ele>714.8</ele>
        <time>2021-08-22T10:11:07Z</time>
      </trkpt>
      <trkpt lat="45.00682" lon="2.5571">
        <ele>715</ele>
        <time>2021-08-22T10:11:09Z</time>
      </trkpt>
      <trkpt lat="45.00691" lon="2.5571">
        <ele>715.2</ele>
        <time>2021-08-22T10:11:11Z</time>
      </trkpt>
      <trkpt lat="45.007" lon="2.55709">
        <ele>715.3</ele>
        <time>2021-08-22T10:11:13Z</time>
      </trkpt>
      <trkpt lat="45.00709" lon="2.55708">
        <ele>715.5</ele>
        <time>2021-08-22T10:11:15Z</time>
      </trkpt>
      <trkpt lat="45.00718" lon="2.55707">
        <ele>715.7</ele>
        <time>2021-08-22T10:11:17Z</time>
      </trkpt>
      <trkpt lat="45.00727" lon="2.55707">
        <ele>715.8</ele>
        <time>2021-08-22T10:11:19Z</time>
      </trkpt>
      <trkpt lat="45.00736" lon="2.55706">
        <ele>716</ele>
        <time>2021-08-22T10:11:21Z</time>
      </trkpt>
      <trkpt lat="45.00745" lon="2.55705">
        <ele>716.1</ele>
        <time>2021-08-22T10:11:23Z</time>
      </trkpt>
      <trkpt lat="45.00754" lon="2.55704">
        <ele>716.4</ele>
        <time>2021-08-22T10:11:25Z</time>
      </trkpt>
      <trkpt lat="45.00763" lon="2.55703">
        <ele>716.9</ele>
        <time>2021-08-22T10:11:27Z</time>
      </trkpt>
      <trkpt lat="45.00773" lon="2.55703">
        <ele>717.3</ele>
        <time>2021-08-22T10:11:29Z</time>
      </trkpt>
      <trkpt lat="45.00783" lon="2.55701">
        <ele>717.7</ele>
        <time>2021-08-22T10:11:31Z</time>
      </trkpt>
      <trkpt lat="45.00792" lon="2.557">
        <ele>718.1</ele>
        <time>2021-08-22T10:11:33Z</time>
      </trkpt>
      <trkpt lat="45.00802" lon="2.55699">
        <ele>718.4</ele>
        <time>2021-08-22T10:11:35Z</time>
      </trkpt>
      <trkpt lat="45.00811" lon="2.55699">
        <ele>718.8</ele>
        <time>2021-08-22T10:11:37Z</time>
      </trkpt>
      <trkpt lat="45.00821" lon="2.55697">
        <ele>719</ele>
        <time>2021-08-22T10:11:39Z</time>
      </trkpt>
      <trkpt lat="45.00831" lon="2.55697">
        <ele>719.3</ele>
        <time>2021-08-22T10:11:41Z</time>
      </trkpt>
      <trkpt lat="45.0084" lon="2.55696">
        <ele>719.9</ele>
        <time>2021-08-22T10:11:43Z</time>
      </trkpt>
      <trkpt lat="45.0085" lon="2.55695">
        <ele>720.5</ele>
        <time>2021-08-22T10:11:45Z</time>
      </trkpt>
      <trkpt lat="45.00859" lon="2.55693">
        <ele>721.1</ele>
        <time>2021-08-22T10:11:47Z</time>
      </trkpt>
      <trkpt lat="45.00868" lon="2.55692">
        <ele>721.6</ele>
        <time>2021-08-22T10:11:49Z</time>
      </trkpt>
      <trkpt lat="45.00878" lon="2.55692">
        <ele>722.4</ele>
        <time>2021-08-22T10:11:51Z</time>
      </trkpt>
      <trkpt lat="45.00887" lon="2.55692">
        <ele>723.2</ele>
        <time>2021-08-22T10:11:53Z</time>
      </trkpt>
      <trkpt lat="45.00896" lon="2.55693">
        <ele>724.5</ele>
        <time>2021-08-22T10:11:55Z</time>
      </trkpt>
      <trkpt lat="45.00905" lon="2.55697">
        <ele>726.2</ele>
        <time>2021-08-22T10:11:57Z</time>
      </trkpt>
      <trkpt lat="45.00913" lon="2.55701">
        <ele>728.3</ele>
        <time>2021-08-22T10:11:59Z</time>
      </trkpt>
      <trkpt lat="45.00921" lon="2.55707">
        <ele>730.2</ele>
        <time>2021-08-22T10:12:01Z</time>
      </trkpt>
      <trkpt lat="45.00928" lon="2.55712">
        <ele>731.3</ele>
        <time>2021-08-22T10:12:03Z</time>
      </trkpt>
      <trkpt lat="45.00934" lon="2.55719">
        <ele>732.4</ele>
        <time>2021-08-22T10:12:05Z</time>
      </trkpt>
      <trkpt lat="45.00941" lon="2.55724">
        <ele>733.3</ele>
        <time>2021-08-22T10:12:07Z</time>
      </trkpt>
      <trkpt lat="45.00947" lon="2.55728">
        <ele>733.6</ele>
        <time>2021-08-22T10:12:09Z</time>
      </trkpt>
      <trkpt lat="45.00955" lon="2.55732">
        <ele>733.7</ele>
        <time>2021-08-22T10:12:11Z</time>
      </trkpt>
      <trkpt lat="45.00962" lon="2.55735">
        <ele>733.3</ele>
        <time>2021-08-22T10:12:13Z</time>
      </trkpt>
      <trkpt lat="45.0097" lon="2.55736">
        <ele>732.5</ele>
        <time>2021-08-22T10:12:15Z</time>
      </trkpt>
      <trkpt lat="45.00979" lon="2.55735">
        <ele>731.3</ele>
        <time>2021-08-22T10:12:17Z</time>
      </trkpt>
      <trkpt lat="45.00987" lon="2.55731">
        <ele>729.4</ele>
        <time>2021-08-22T10:12:19Z</time>
      </trkpt>
      <trkpt lat="45.00995" lon="2.55726">
        <ele>727.5</ele>
        <time>2021-08-22T10:12:21Z</time>
      </trkpt>
      <trkpt lat="45.01004" lon="2.5572">
        <ele>725.6</ele>
        <time>2021-08-22T10:12:23Z</time>
      </trkpt>
      <trkpt lat="45.01011" lon="2.55714">
        <ele>723.7</ele>
        <time>2021-08-22T10:12:25Z</time>
      </trkpt>
      <trkpt lat="45.01019" lon="2.55708">
        <ele>722.1</ele>
        <time>2021-08-22T10:12:27Z</time>
      </trkpt>
      <trkpt lat="45.01027" lon="2.55702">
        <ele>720.7</ele>
        <time>2021-08-22T10:12:29Z</time>
      </trkpt>
      <trkpt lat="45.01035" lon="2.55695">
        <ele>719.3</ele>
        <time>2021-08-22T10:12:31Z</time>
      </trkpt>
      <trkpt lat="45.01045" lon="2.55688">
        <ele>718.1</ele>
        <time>2021-08-22T10:12:33Z</time>
      </trkpt>
      <trkpt lat="45.01055" lon="2.55681">
        <ele>717.2</ele>
        <time>2021-08-22T10:12:35Z</time>
      </trkpt>
      <trkpt lat="45.01065" lon="2.55673">
        <ele>716.5</ele>
        <time>2021-08-22T10:12:37Z</time>
      </trkpt>
      <trkpt lat="45.01076" lon="2.55665">
        <ele>716.1</ele>
        <time>2021-08-22T10:12:39Z</time>
      </trkpt>
      <trkpt lat="45.01086" lon="2.55656">
        <ele>716.2</ele>
        <time>2021-08-22T10:12:41Z</time>
      </trkpt>
      <trkpt lat="45.01097" lon="2.55648">
        <ele>716.3</ele>
        <time>2021-08-22T10:12:43Z</time>
      </trkpt>
      <trkpt lat="45.01108" lon="2.5564">
        <ele>716.3</ele>
        <time>2021-08-22T10:12:45Z</time>
      </trkpt>
      <trkpt lat="45.01118" lon="2.55634">
        <ele>716.2</ele>
        <time>2021-08-22T10:12:47Z</time>
      </trkpt>
      <trkpt lat="45.01129" lon="2.55629">
        <ele>716.1</ele>
        <time>2021-08-22T10:12:49Z</time>
      </trkpt>
      <trkpt lat="45.01139" lon="2.55624">
        <ele>716</ele>
        <time>2021-08-22T10:12:51Z</time>
      </trkpt>
      <trkpt lat="45.0115" lon="2.5562">
        <ele>715.9</ele>
        <time>2021-08-22T10:12:53Z</time>
      </trkpt>
      <trkpt lat="45.01161" lon="2.55618">
        <ele>715.7</ele>
        <time>2021-08-22T10:12:55Z</time>
      </trkpt>
      <trkpt lat="45.01171" lon="2.55617">
        <ele>715.7</ele>
        <time>2021-08-22T10:12:57Z</time>
      </trkpt>
      <trkpt lat="45.01181" lon="2.55617">
        <ele>715.8</ele>
        <time>2021-08-22T10:12:59Z</time>
      </trkpt>
      <trkpt lat="45.01191" lon="2.55617">
        <ele>715.9</ele>
        <time>2021-08-22T10:13:01Z</time>
      </trkpt>
      <trkpt lat="45.01201" lon="2.55616">
        <ele>716</ele>
        <time>2021-08-22T10:13:03Z</time>
      </trkpt>
      <trkpt lat="45.0121" lon="2.55616">
        <ele>716.1</ele>
        <time>2021-08-22T10:13:05Z</time>
      </trkpt>
      <trkpt lat="45.01219" lon="2.55615">
        <ele>716.2</ele>
        <time>2021-08-22T10:13:07Z</time>
      </trkpt>
      <trkpt lat="45.01228" lon="2.55615">
        <ele>716.4</ele>
        <time>2021-08-22T10:13:09Z</time>
      </trkpt>
      <trkpt lat="45.01237" lon="2.55615">
        <ele>716.5</ele>
        <time>2021-08-22T10:13:11Z</time>
      </trkpt>
      <trkpt lat="45.01245" lon="2.55615">
        <ele>716.6</ele>
        <time>2021-08-22T10:13:13Z</time>
      </trkpt>
      <trkpt lat="45.01253" lon="2.55615">
        <ele>716.7</ele>
        <time>2021-08-22T10:13:15Z</time>
      </trkpt>
      <trkpt lat="45.01261" lon="2.55614">
        <ele>717</ele>
        <time>2021-08-22T10:13:17Z</time>
      </trkpt>
      <trkpt lat="45.01269" lon="2.55614">
        <ele>717.2</ele>
        <time>2021-08-22T10:13:19Z</time>
      </trkpt>
      <trkpt lat="45.01276" lon="2.55614">
        <ele>717.5</ele>
        <time>2021-08-22T10:13:21Z</time>
      </trkpt>
      <trkpt lat="45.01283" lon="2.55614">
        <ele>717.7</ele>
        <time>2021-08-22T10:13:23Z</time>
      </trkpt>
      <trkpt lat="45.01291" lon="2.55614">
        <ele>717.9</ele>
        <time>2021-08-22T10:13:25Z</time>
      </trkpt>
      <trkpt lat="45.01298" lon="2.55614">
        <ele>718.1</ele>
        <time>2021-08-22T10:13:27Z</time>
      </trkpt>
      <trkpt lat="45.01305" lon="2.55614">
        <ele>718.4</ele>
        <time>2021-08-22T10:13:29Z</time>
      </trkpt>
      <trkpt lat="45.01312" lon="2.55614">
        <ele>718.6</ele>
        <time>2021-08-22T10:13:31Z</time>
      </trkpt>
      <trkpt lat="45.0132" lon="2.55615">
        <ele>718.8</ele>
        <time>2021-08-22T10:13:33Z</time>
      </trkpt>
      <trkpt lat="45.01328" lon="2.55617">
        <ele>719</ele>
        <time>2021-08-22T10:13:35Z</time>
      </trkpt>
      <trkpt lat="45.01336" lon="2.55618">
        <ele>719.2</ele>
        <time>2021-08-22T10:13:37Z</time>
      </trkpt>
      <trkpt lat="45.01345" lon="2.5562">
        <ele>719.4</ele>
        <time>2021-08-22T10:13:39Z</time>
      </trkpt>
      <trkpt lat="45.01353" lon="2.55623">
        <ele>719.5</ele>
        <time>2021-08-22T10:13:41Z</time>
      </trkpt>
      <trkpt lat="45.01361" lon="2.55626">
        <ele>719.6</ele>
        <time>2021-08-22T10:13:43Z</time>
      </trkpt>
      <trkpt lat="45.01369" lon="2.5563">
        <ele>719.7</ele>
        <time>2021-08-22T10:13:45Z</time>
      </trkpt>
      <trkpt lat="45.01376" lon="2.55634">
        <ele>719.7</ele>
        <time>2021-08-22T10:13:47Z</time>
      </trkpt>
      <trkpt lat="45.01383" lon="2.55639">
        <ele>719.7</ele>
        <time>2021-08-22T10:13:49Z</time>
      </trkpt>
      <trkpt lat="45.0139" lon="2.55644">
        <ele>719.6</ele>
        <time>2021-08-22T10:13:51Z</time>
      </trkpt>
      <trkpt lat="45.01398" lon="2.55649">
        <ele>719.5</ele>
        <time>2021-08-22T10:13:53Z</time>
      </trkpt>
      <trkpt lat="45.01405" lon="2.55654">
        <ele>719.4</ele>
        <time>2021-08-22T10:13:55Z</time>
      </trkpt>
      <trkpt lat="45.01412" lon="2.55659">
        <ele>719.3</ele>
        <time>2021-08-22T10:13:57Z</time>
      </trkpt>
      <trkpt lat="45.01419" lon="2.55664">
        <ele>719.3</ele>
        <time>2021-08-22T10:13:59Z</time>
      </trkpt>
      <trkpt lat="45.01427" lon="2.55668">
        <ele>719.7</ele>
        <time>2021-08-22T10:14:01Z</time>
      </trkpt>
      <trkpt lat="45.01434" lon="2.55673">
        <ele>720.3</ele>
        <time>2021-08-22T10:14:03Z</time>
      </trkpt>
      <trkpt lat="45.01441" lon="2.55678">
        <ele>720.7</ele>
        <time>2021-08-22T10:14:05Z</time>
      </trkpt>
      <trkpt lat="45.01447" lon="2.55684">
        <ele>721</ele>
        <time>2021-08-22T10:14:07Z</time>
      </trkpt>
      <trkpt lat="45.01453" lon="2.55691">
        <ele>721.3</ele>
        <time>2021-08-22T10:14:09Z</time>
      </trkpt>
      <trkpt lat="45.0146" lon="2.55697">
        <ele>721.5</ele>
        <time>2021-08-22T10:14:11Z</time>
      </trkpt>
      <trkpt lat="45.01466" lon="2.55704">
        <ele>721.7</ele>
        <time>2021-08-22T10:14:13Z</time>
      </trkpt>
      <trkpt lat="45.01472" lon="2.5571">
        <ele>721.8</ele>
        <time>2021-08-22T10:14:15Z</time>
      </trkpt>
      <trkpt lat="45.01477" lon="2.55716">
        <ele>721.8</ele>
        <time>2021-08-22T10:14:17Z</time>
      </trkpt>
      <trkpt lat="45.01483" lon="2.55722">
        <ele>721.8</ele>
        <time>2021-08-22T10:14:19Z</time>
      </trkpt>
      <trkpt lat="45.01489" lon="2.55728">
        <ele>721.8</ele>
        <time>2021-08-22T10:14:21Z</time>
      </trkpt>
      <trkpt lat="45.01495" lon="2.55734">
        <ele>721.7</ele>
        <time>2021-08-22T10:14:23Z</time>
      </trkpt>
      <trkpt lat="45.015" lon="2.55739">
        <ele>721.6</ele>
        <time>2021-08-22T10:14:25Z</time>
      </trkpt>
      <trkpt lat="45.01506" lon="2.55745">
        <ele>721.8</ele>
        <time>2021-08-22T10:14:27Z</time>
      </trkpt>
      <trkpt lat="45.01512" lon="2.5575">
        <ele>722.1</ele>
        <time>2021-08-22T10:14:29Z</time>
      </trkpt>
      <trkpt lat="45.01517" lon="2.55756">
        <ele>722.5</ele>
        <time>2021-08-22T10:14:31Z</time>
      </trkpt>
      <trkpt lat="45.01522" lon="2.55762">
        <ele>722.8</ele>
        <time>2021-08-22T10:14:33Z</time>
      </trkpt>
      <trkpt lat="45.01528" lon="2.55767">
        <ele>723.1</ele>
        <time>2021-08-22T10:14:35Z</time>
      </trkpt>
      <trkpt lat="45.01534" lon="2.55773">
        <ele>723.5</ele>
        <time>2021-08-22T10:14:37Z</time>
      </trkpt>
      <trkpt lat="45.0154" lon="2.55778">
        <ele>723.8</ele>
        <time>2021-08-22T10:14:39Z</time>
      </trkpt>
      <trkpt lat="45.01545" lon="2.55783">
        <ele>724.1</ele>
        <time>2021-08-22T10:14:41Z</time>
      </trkpt>
      <trkpt lat="45.01551" lon="2.55789">
        <ele>724.4</ele>
        <time>2021-08-22T10:14:43Z</time>
      </trkpt>
      <trkpt lat="45.01556" lon="2.55794">
        <ele>724.6</ele>
        <time>2021-08-22T10:14:45Z</time>
      </trkpt>
      <trkpt lat="45.01561" lon="2.558">
        <ele>724.8</ele>
        <time>2021-08-22T10:14:47Z</time>
      </trkpt>
      <trkpt lat="45.01567" lon="2.55806">
        <ele>725</ele>
        <time>2021-08-22T10:14:49Z</time>
      </trkpt>
      <trkpt lat="45.01574" lon="2.55812">
        <ele>725.2</ele>
        <time>2021-08-22T10:14:51Z</time>
      </trkpt>
      <trkpt lat="45.01579" lon="2.5582">
        <ele>725.3</ele>
        <time>2021-08-22T10:14:53Z</time>
      </trkpt>
      <trkpt lat="45.01586" lon="2.55827">
        <ele>725.9</ele>
        <time>2021-08-22T10:14:55Z</time>
      </trkpt>
      <trkpt lat="45.01592" lon="2.55836">
        <ele>726.9</ele>
        <time>2021-08-22T10:14:57Z</time>
      </trkpt>
      <trkpt lat="45.01598" lon="2.55845">
        <ele>727.9</ele>
        <time>2021-08-22T10:14:59Z</time>
      </trkpt>
      <trkpt lat="45.01605" lon="2.55854">
        <ele>728.7</ele>
        <time>2021-08-22T10:15:01Z</time>
      </trkpt>
      <trkpt lat="45.01613" lon="2.55863">
        <ele>729.6</ele>
        <time>2021-08-22T10:15:03Z</time>
      </trkpt>
      <trkpt lat="45.01619" lon="2.55872">
        <ele>729.7</ele>
        <time>2021-08-22T10:15:05Z</time>
      </trkpt>
      <trkpt lat="45.01625" lon="2.55883">
        <ele>729.6</ele>
        <time>2021-08-22T10:15:07Z</time>
      </trkpt>
      <trkpt lat="45.01631" lon="2.55893">
        <ele>729.2</ele>
        <time>2021-08-22T10:15:09Z</time>
      </trkpt>
      <trkpt lat="45.01636" lon="2.55904">
        <ele>728.5</ele>
        <time>2021-08-22T10:15:11Z</time>
      </trkpt>
      <trkpt lat="45.01642" lon="2.55915">
        <ele>727.4</ele>
        <time>2021-08-22T10:15:13Z</time>
      </trkpt>
      <trkpt lat="45.01648" lon="2.55927">
        <ele>727.1</ele>
        <time>2021-08-22T10:15:15Z</time>
      </trkpt>
      <trkpt lat="45.01654" lon="2.55937">
        <ele>727</ele>
        <time>2021-08-22T10:15:17Z</time>
      </trkpt>
      <trkpt lat="45.01659" lon="2.55948">
        <ele>726.7</ele>
        <time>2021-08-22T10:15:19Z</time>
      </trkpt>
      <trkpt lat="45.01665" lon="2.55958">
        <ele>726.4</ele>
        <time>2021-08-22T10:15:21Z</time>
      </trkpt>
      <trkpt lat="45.0167" lon="2.55968">
        <ele>727</ele>
        <time>2021-08-22T10:15:23Z</time>
      </trkpt>
      <trkpt lat="45.01676" lon="2.55977">
        <ele>727.9</ele>
        <time>2021-08-22T10:15:25Z</time>
      </trkpt>
      <trkpt lat="45.01681" lon="2.55987">
        <ele>728.6</ele>
        <time>2021-08-22T10:15:27Z</time>
      </trkpt>
      <trkpt lat="45.01687" lon="2.55996">
        <ele>729.1</ele>
        <time>2021-08-22T10:15:29Z</time>
      </trkpt>
      <trkpt lat="45.01692" lon="2.56006">
        <ele>729.3</ele>
        <time>2021-08-22T10:15:31Z</time>
      </trkpt>
      <trkpt lat="45.01698" lon="2.56016">
        <ele>729.6</ele>
        <time>2021-08-22T10:15:33Z</time>
      </trkpt>
      <trkpt lat="45.01703" lon="2.56025">
        <ele>729.7</ele>
        <time>2021-08-22T10:15:35Z</time>
      </trkpt>
      <trkpt lat="45.01708" lon="2.56035">
        <ele>729.7</ele>
        <time>2021-08-22T10:15:37Z</time>
      </trkpt>
      <trkpt lat="45.01713" lon="2.56044">
        <ele>729.5</ele>
        <time>2021-08-22T10:15:39Z</time>
      </trkpt>
      <trkpt lat="45.01718" lon="2.56053">
        <ele>729.3</ele>
        <time>2021-08-22T10:15:41Z</time>
      </trkpt>
      <trkpt lat="45.01723" lon="2.56062">
        <ele>728.8</ele>
        <time>2021-08-22T10:15:43Z</time>
      </trkpt>
      <trkpt lat="45.01727" lon="2.56071">
        <ele>728.3</ele>
        <time>2021-08-22T10:15:45Z</time>
      </trkpt>
      <trkpt lat="45.01732" lon="2.56079">
        <ele>727.6</ele>
        <time>2021-08-22T10:15:47Z</time>
      </trkpt>
      <trkpt lat="45.01737" lon="2.56088">
        <ele>727.3</ele>
        <time>2021-08-22T10:15:49Z</time>
      </trkpt>
      <trkpt lat="45.01742" lon="2.56096">
        <ele>727.3</ele>
        <time>2021-08-22T10:15:51Z</time>
      </trkpt>
      <trkpt lat="45.01746" lon="2.56103">
        <ele>727.2</ele>
        <time>2021-08-22T10:15:53Z</time>
      </trkpt>
      <trkpt lat="45.0175" lon="2.56111">
        <ele>727.1</ele>
        <time>2021-08-22T10:15:55Z</time>
      </trkpt>
      <trkpt lat="45.01755" lon="2.56119">
        <ele>727.5</ele>
        <time>2021-08-22T10:15:57Z</time>
      </trkpt>
      <trkpt lat="45.01759" lon="2.56126">
        <ele>728</ele>
        <time>2021-08-22T10:15:59Z</time>
      </trkpt>
      <trkpt lat="45.01763" lon="2.56134">
        <ele>728.1</ele>
        <time>2021-08-22T10:16:01Z</time>
      </trkpt>
      <trkpt lat="45.01767" lon="2.56142">
        <ele>728.3</ele>
        <time>2021-08-22T10:16:03Z</time>
      </trkpt>
      <trkpt lat="45.01771" lon="2.56149">
        <ele>728.3</ele>
        <time>2021-08-22T10:16:05Z</time>
      </trkpt>
      <trkpt lat="45.01776" lon="2.56155">
        <ele>728.5</ele>
        <time>2021-08-22T10:16:07Z</time>
      </trkpt>
      <trkpt lat="45.01779" lon="2.56163">
        <ele>728.3</ele>
        <time>2021-08-22T10:16:09Z</time>
      </trkpt>
      <trkpt lat="45.01783" lon="2.5617">
        <ele>728.4</ele>
        <time>2021-08-22T10:16:11Z</time>
      </trkpt>
      <trkpt lat="45.01787" lon="2.56177">
        <ele>728.9</ele>
        <time>2021-08-22T10:16:13Z</time>
      </trkpt>
      <trkpt lat="45.01792" lon="2.56182">
        <ele>729.5</ele>
        <time>2021-08-22T10:16:15Z</time>
      </trkpt>
      <trkpt lat="45.01796" lon="2.5619">
        <ele>729.7</ele>
        <time>2021-08-22T10:16:17Z</time>
      </trkpt>
      <trkpt lat="45.018" lon="2.56198">
        <ele>729.9</ele>
        <time>2021-08-22T10:16:19Z</time>
      </trkpt>
      <trkpt lat="45.01804" lon="2.56205">
        <ele>730.2</ele>
        <time>2021-08-22T10:16:21Z</time>
      </trkpt>
      <trkpt lat="45.01808" lon="2.56211">
        <ele>730.5</ele>
        <time>2021-08-22T10:16:23Z</time>
      </trkpt>
      <trkpt lat="45.01812" lon="2.56218">
        <ele>730.8</ele>
        <time>2021-08-22T10:16:25Z</time>
      </trkpt>
      <trkpt lat="45.01816" lon="2.56225">
        <ele>731</ele>
        <time>2021-08-22T10:16:27Z</time>
      </trkpt>
      <trkpt lat="45.01819" lon="2.56233">
        <ele>731.1</ele>
        <time>2021-08-22T10:16:29Z</time>
      </trkpt>
      <trkpt lat="45.01824" lon="2.56239">
        <ele>731.3</ele>
        <time>2021-08-22T10:16:31Z</time>
      </trkpt>
      <trkpt lat="45.01828" lon="2.56246">
        <ele>731.5</ele>
        <time>2021-08-22T10:16:33Z</time>
      </trkpt>
      <trkpt lat="45.01831" lon="2.56253">
        <ele>731.6</ele>
        <time>2021-08-22T10:16:35Z</time>
      </trkpt>
      <trkpt lat="45.01835" lon="2.56259">
        <ele>731.9</ele>
        <time>2021-08-22T10:16:37Z</time>
      </trkpt>
      <trkpt lat="45.01839" lon="2.56267">
        <ele>732.2</ele>
        <time>2021-08-22T10:16:39Z</time>
      </trkpt>
      <trkpt lat="45.01843" lon="2.56274">
        <ele>732.4</ele>
        <time>2021-08-22T10:16:41Z</time>
      </trkpt>
      <trkpt lat="45.01847" lon="2.5628">
        <ele>732.7</ele>
        <time>2021-08-22T10:16:43Z</time>
      </trkpt>
      <trkpt lat="45.01851" lon="2.56287">
        <ele>732.9</ele>
        <time>2021-08-22T10:16:45Z</time>
      </trkpt>
      <trkpt lat="45.01854" lon="2.56294">
        <ele>733</ele>
        <time>2021-08-22T10:16:47Z</time>
      </trkpt>
      <trkpt lat="45.01858" lon="2.56301">
        <ele>733.1</ele>
        <time>2021-08-22T10:16:49Z</time>
      </trkpt>
      <trkpt lat="45.01861" lon="2.56308">
        <ele>733.1</ele>
        <time>2021-08-22T10:16:51Z</time>
      </trkpt>
      <trkpt lat="45.01865" lon="2.56315">
        <ele>733.1</ele>
        <time>2021-08-22T10:16:53Z</time>
      </trkpt>
      <trkpt lat="45.01868" lon="2.56322">
        <ele>733</ele>
        <time>2021-08-22T10:16:55Z</time>
      </trkpt>
      <trkpt lat="45.01872" lon="2.56329">
        <ele>733</ele>
        <time>2021-08-22T10:16:57Z</time>
      </trkpt>
      <trkpt lat="45.01875" lon="2.56336">
        <ele>733</ele>
        <time>2021-08-22T10:16:59Z</time>
      </trkpt>
      <trkpt lat="45.01879" lon="2.56343">
        <ele>733.1</ele>
        <time>2021-08-22T10:17:01Z</time>
      </trkpt>
      <trkpt lat="45.01882" lon="2.5635">
        <ele>733.3</ele>
        <time>2021-08-22T10:17:03Z</time>
      </trkpt>
      <trkpt lat="45.01885" lon="2.56358">
        <ele>733.5</ele>
        <time>2021-08-22T10:17:05Z</time>
      </trkpt>
      <trkpt lat="45.01889" lon="2.56365">
        <ele>733.6</ele>
        <time>2021-08-22T10:17:07Z</time>
      </trkpt>
      <trkpt lat="45.01892" lon="2.56373">
        <ele>733.7</ele>
        <time>2021-08-22T10:17:09Z</time>
      </trkpt>
      <trkpt lat="45.01895" lon="2.5638">
        <ele>733.8</ele>
        <time>2021-08-22T10:17:11Z</time>
      </trkpt>
      <trkpt lat="45.01898" lon="2.56387">
        <ele>733.9</ele>
        <time>2021-08-22T10:17:13Z</time>
      </trkpt>
      <trkpt lat="45.019" lon="2.56394">
        <ele>734</ele>
        <time>2021-08-22T10:17:15Z</time>
      </trkpt>
      <trkpt lat="45.01903" lon="2.56402">
        <ele>734.1</ele>
        <time>2021-08-22T10:17:17Z</time>
      </trkpt>
      <trkpt lat="45.01906" lon="2.56409">
        <ele>734.2</ele>
        <time>2021-08-22T10:17:19Z</time>
      </trkpt>
      <trkpt lat="45.01909" lon="2.56417">
        <ele>734.2</ele>
        <time>2021-08-22T10:17:21Z</time>
      </trkpt>
      <trkpt lat="45.01912" lon="2.56425">
        <ele>734.7</ele>
        <time>2021-08-22T10:17:23Z</time>
      </trkpt>
      <trkpt lat="45.01915" lon="2.56432">
        <ele>735.2</ele>
        <time>2021-08-22T10:17:25Z</time>
      </trkpt>
      <trkpt lat="45.01918" lon="2.5644">
        <ele>735.7</ele>
        <time>2021-08-22T10:17:27Z</time>
      </trkpt>
      <trkpt lat="45.01921" lon="2.56448">
        <ele>736.4</ele>
        <time>2021-08-22T10:17:29Z</time>
      </trkpt>
      <trkpt lat="45.01924" lon="2.56456">
        <ele>736.9</ele>
        <time>2021-08-22T10:17:31Z</time>
      </trkpt>
      <trkpt lat="45.01927" lon="2.56464">
        <ele>737.5</ele>
        <time>2021-08-22T10:17:33Z</time>
      </trkpt>
      <trkpt lat="45.01929" lon="2.56473">
        <ele>737.8</ele>
        <time>2021-08-22T10:17:35Z</time>
      </trkpt>
      <trkpt lat="45.01932" lon="2.5648">
        <ele>738.2</ele>
        <time>2021-08-22T10:17:37Z</time>
      </trkpt>
      <trkpt lat="45.01935" lon="2.56489">
        <ele>738.5</ele>
        <time>2021-08-22T10:17:39Z</time>
      </trkpt>
      <trkpt lat="45.01937" lon="2.56497">
        <ele>738.7</ele>
        <time>2021-08-22T10:17:41Z</time>
      </trkpt>
      <trkpt lat="45.01939" lon="2.56503">
        <ele>738.9</ele>
        <time>2021-08-22T10:17:43Z</time>
      </trkpt>
      <trkpt lat="45.0194" lon="2.56508">
        <ele>738.9</ele>
        <time>2021-08-22T10:17:45Z</time>
      </trkpt>
      <trkpt lat="45.0194" lon="2.5651">
        <ele>738.9</ele>
        <time>2021-08-22T10:17:47Z</time>
      </trkpt>
      <trkpt lat="45.01941" lon="2.56512">
        <ele>738.9</ele>
        <time>2021-08-22T10:17:49Z</time>
      </trkpt>
      <trkpt lat="45.01941" lon="2.56512">
        <ele>738.9</ele>
        <time>2021-08-22T10:17:51Z</time>
      </trkpt>
      <trkpt lat="45.01941" lon="2.56512">
        <ele>738.9</ele>
        <time>2021-08-22T10:17:53Z</time>
      </trkpt>
      <trkpt lat="45.01941" lon="2.56512">
        <ele>738.9</ele>
        <time>2021-08-22T10:17:55Z</time>
      </trkpt>
      <trkpt lat="45.01944" lon="2.56516">
        <ele>739.1</ele>
        <time>2021-08-22T10:31:25Z</time>
      </trkpt>
      <trkpt lat="45.01944" lon="2.56516">
        <ele>739.1</ele>
        <time>2021-08-22T10:31:27Z</time>
      </trkpt>
      <trkpt lat="45.01944" lon="2.56516">
        <ele>739.1</ele>
        <time>2021-08-22T10:31:29Z</time>
      </trkpt>
      <trkpt lat="45.01944" lon="2.56516">
        <ele>739.1</ele>
        <time>2021-08-22T10:31:31Z</time>
      </trkpt>
      <trkpt lat="45.01944" lon="2.56516">
        <ele>739.1</ele>
        <time>2021-08-22T10:31:33Z</time>
      </trkpt>
      <trkpt lat="45.01945" lon="2.56516">
        <ele>739.1</ele>
        <time>2021-08-22T10:31:35Z</time>
      </trkpt>
      <trkpt lat="45.01945" lon="2.56516">
        <ele>739.2</ele>
        <time>2021-08-22T10:31:37Z</time>
      </trkpt>
      <trkpt lat="45.01946" lon="2.56517">
        <ele>739.2</ele>
        <time>2021-08-22T10:31:39Z</time>
      </trkpt>
      <trkpt lat="45.01948" lon="2.5652">
        <ele>739.3</ele>
        <time>2021-08-22T10:31:41Z</time>
      </trkpt>
      <trkpt lat="45.01948" lon="2.56524">
        <ele>739.3</ele>
        <time>2021-08-22T10:31:43Z</time>
      </trkpt>
      <trkpt lat="45.01948" lon="2.56527">
        <ele>739.3</ele>
        <time>2021-08-22T10:31:45Z</time>
      </trkpt>
      <trkpt lat="45.01949" lon="2.56526">
        <ele>739.3</ele>
        <time>2021-08-22T10:31:47Z</time>
      </trkpt>
      <trkpt lat="45.01948" lon="2.56526">
        <ele>739.3</ele>
        <time>2021-08-22T10:31:49Z</time>
      </trkpt>
      <trkpt lat="45.01949" lon="2.56527">
        <ele>739.3</ele>
        <time>2021-08-22T10:31:51Z</time>
      </trkpt>
      <trkpt lat="45.01949" lon="2.56527">
        <ele>739.3</ele>
        <time>2021-08-22T10:31:53Z</time>
      </trkpt>
      <trkpt lat="45.01958" lon="2.56558">
        <ele>739.1</ele>
        <time>2021-08-22T10:32:35Z</time>
      </trkpt>
      <trkpt lat="45.0196" lon="2.56567">
        <ele>739</ele>
        <time>2021-08-22T10:32:37Z</time>
      </trkpt>
      <trkpt lat="45.01963" lon="2.56577">
        <ele>738.7</ele>
        <time>2021-08-22T10:32:39Z</time>
      </trkpt>
      <trkpt lat="45.01966" lon="2.56584">
        <ele>738.6</ele>
        <time>2021-08-22T10:32:41Z</time>
      </trkpt>
      <trkpt lat="45.01967" lon="2.56588">
        <ele>738.5</ele>
        <time>2021-08-22T10:32:43Z</time>
      </trkpt>
      <trkpt lat="45.0197" lon="2.56596">
        <ele>738.3</ele>
        <time>2021-08-22T10:32:45Z</time>
      </trkpt>
      <trkpt lat="45.01973" lon="2.56606">
        <ele>738</ele>
        <time>2021-08-22T10:32:47Z</time>
      </trkpt>
      <trkpt lat="45.01976" lon="2.56616">
        <ele>737.7</ele>
        <time>2021-08-22T10:32:49Z</time>
      </trkpt>
      <trkpt lat="45.0198" lon="2.56627">
        <ele>737.1</ele>
        <time>2021-08-22T10:32:51Z</time>
      </trkpt>
      <trkpt lat="45.01984" lon="2.56641">
        <ele>736.4</ele>
        <time>2021-08-22T10:32:53Z</time>
      </trkpt>
      <trkpt lat="45.01989" lon="2.56654">
        <ele>735.5</ele>
        <time>2021-08-22T10:32:55Z</time>
      </trkpt>
      <trkpt lat="45.01994" lon="2.56669">
        <ele>734.4</ele>
        <time>2021-08-22T10:32:57Z</time>
      </trkpt>
      <trkpt lat="45.01999" lon="2.56685">
        <ele>733</ele>
        <time>2021-08-22T10:32:59Z</time>
      </trkpt>
      <trkpt lat="45.02004" lon="2.56701">
        <ele>732.2</ele>
        <time>2021-08-22T10:33:01Z</time>
      </trkpt>
      <trkpt lat="45.02009" lon="2.56719">
        <ele>731.6</ele>
        <time>2021-08-22T10:33:03Z</time>
      </trkpt>
      <trkpt lat="45.02015" lon="2.56737">
        <ele>730.9</ele>
        <time>2021-08-22T10:33:05Z</time>
      </trkpt>
      <trkpt lat="45.0202" lon="2.56753">
        <ele>730.4</ele>
        <time>2021-08-22T10:33:07Z</time>
      </trkpt>
      <trkpt lat="45.02024" lon="2.56765">
        <ele>730.4</ele>
        <time>2021-08-22T10:33:09Z</time>
      </trkpt>
      <trkpt lat="45.02024" lon="2.56774">
        <ele>730.3</ele>
        <time>2021-08-22T10:33:11Z</time>
      </trkpt>
      <trkpt lat="45.02023" lon="2.56777">
        <ele>730.2</ele>
        <time>2021-08-22T10:33:13Z</time>
      </trkpt>
      <trkpt lat="45.02024" lon="2.56778">
        <ele>730.2</ele>
        <time>2021-08-22T10:33:15Z</time>
      </trkpt>
      <trkpt lat="45.02024" lon="2.56779">
        <ele>730.2</ele>
        <time>2021-08-22T10:33:17Z</time>
      </trkpt>
      <trkpt lat="45.02024" lon="2.56779">
        <ele>730.2</ele>
        <time>2021-08-22T10:33:19Z</time>
      </trkpt>
      <trkpt lat="45.02024" lon="2.5678">
        <ele>730.2</ele>
        <time>2021-08-22T10:33:21Z</time>
      </trkpt>
      <trkpt lat="45.02032" lon="2.56808">
        <ele>730.1</ele>
        <time>2021-08-22T10:33:59Z</time>
      </trkpt>
      <trkpt lat="45.02031" lon="2.56817">
        <ele>729.8</ele>
        <time>2021-08-22T10:34:01Z</time>
      </trkpt>
      <trkpt lat="45.02026" lon="2.56824">
        <ele>729.4</ele>
        <time>2021-08-22T10:34:03Z</time>
      </trkpt>
      <trkpt lat="45.02017" lon="2.56827">
        <ele>728.9</ele>
        <time>2021-08-22T10:34:05Z</time>
      </trkpt>
      <trkpt lat="45.02009" lon="2.56826">
        <ele>728.5</ele>
        <time>2021-08-22T10:34:07Z</time>
      </trkpt>
      <trkpt lat="45.02003" lon="2.56822">
        <ele>728.3</ele>
        <time>2021-08-22T10:34:09Z</time>
      </trkpt>
      <trkpt lat="45.01998" lon="2.56817">
        <ele>728.2</ele>
        <time>2021-08-22T10:34:11Z</time>
      </trkpt>
      <trkpt lat="45.01994" lon="2.5681">
        <ele>728.4</ele>
        <time>2021-08-22T10:34:13Z</time>
      </trkpt>
      <trkpt lat="45.01993" lon="2.56802">
        <ele>728.5</ele>
        <time>2021-08-22T10:34:15Z</time>
      </trkpt>
      <trkpt lat="45.01993" lon="2.56795">
        <ele>728.6</ele>
        <time>2021-08-22T10:34:17Z</time>
      </trkpt>
      <trkpt lat="45.01994" lon="2.56789">
        <ele>728.7</ele>
        <time>2021-08-22T10:34:19Z</time>
      </trkpt>
      <trkpt lat="45.01996" lon="2.56784">
        <ele>728.7</ele>
        <time>2021-08-22T10:34:21Z</time>
      </trkpt>
      <trkpt lat="45.01997" lon="2.5678">
        <ele>728.7</ele>
        <time>2021-08-22T10:34:23Z</time>
      </trkpt>
      <trkpt lat="45.01998" lon="2.56775">
        <ele>728.7</ele>
        <time>2021-08-22T10:34:25Z</time>
      </trkpt>
      <trkpt lat="45.01998" lon="2.56767">
        <ele>728.8</ele>
        <time>2021-08-22T10:34:27Z</time>
      </trkpt>
      <trkpt lat="45.01997" lon="2.56763">
        <ele>728.9</ele>
        <time>2021-08-22T10:34:29Z</time>
      </trkpt>
      <trkpt lat="45.01997" lon="2.56758">
        <ele>729</ele>
        <time>2021-08-22T10:34:31Z</time>
      </trkpt>
      <trkpt lat="45.01998" lon="2.56754">
        <ele>729</ele>
        <time>2021-08-22T10:34:33Z</time>
      </trkpt>
      <trkpt lat="45.01999" lon="2.56749">
        <ele>729.1</ele>
        <time>2021-08-22T10:34:35Z</time>
      </trkpt>
      <trkpt lat="45.02" lon="2.56745">
        <ele>729.3</ele>
        <time>2021-08-22T10:34:37Z</time>
      </trkpt>
      <trkpt lat="45.02001" lon="2.5674">
        <ele>729.7</ele>
        <time>2021-08-22T10:34:39Z</time>
      </trkpt>
      <trkpt lat="45.02001" lon="2.56733">
        <ele>730.1</ele>
        <time>2021-08-22T10:34:41Z</time>
      </trkpt>
      <trkpt lat="45.01999" lon="2.5673">
        <ele>730.2</ele>
        <time>2021-08-22T10:34:43Z</time>
      </trkpt>
      <trkpt lat="45.01998" lon="2.56725">
        <ele>730.6</ele>
        <time>2021-08-22T10:34:45Z</time>
      </trkpt>
      <trkpt lat="45.01998" lon="2.5672">
        <ele>730.9</ele>
        <time>2021-08-22T10:34:47Z</time>
      </trkpt>
      <trkpt lat="45.01997" lon="2.56719">
        <ele>731</ele>
        <time>2021-08-22T10:34:49Z</time>
      </trkpt>
      <trkpt lat="45.01997" lon="2.56719">
        <ele>730.9</ele>
        <time>2021-08-22T10:34:51Z</time>
      </trkpt>
      <trkpt lat="45.01997" lon="2.56719">
        <ele>731</ele>
        <time>2021-08-22T10:34:53Z</time>
      </trkpt>
      <trkpt lat="45.01998" lon="2.56719">
        <ele>731</ele>
        <time>2021-08-22T10:34:55Z</time>
      </trkpt>
      <trkpt lat="45.01998" lon="2.56718">
        <ele>731</ele>
        <time>2021-08-22T10:34:57Z</time>
      </trkpt>
      <trkpt lat="45.02002" lon="2.56748">
        <ele>729.3</ele>
        <time>2021-08-22T13:35:11Z</time>
      </trkpt>
      <trkpt lat="45.02002" lon="2.56753">
        <ele>729.1</ele>
        <time>2021-08-22T13:35:13Z</time>
      </trkpt>
      <trkpt lat="45.02001" lon="2.56757">
        <ele>729</ele>
        <time>2021-08-22T13:35:15Z</time>
      </trkpt>
      <trkpt lat="45.02001" lon="2.56761">
        <ele>728.9</ele>
        <time>2021-08-22T13:35:17Z</time>
      </trkpt>
      <trkpt lat="45.02001" lon="2.56765">
        <ele>728.9</ele>
        <time>2021-08-22T13:35:19Z</time>
      </trkpt>
      <trkpt lat="45.02001" lon="2.56769">
        <ele>728.8</ele>
        <time>2021-08-22T13:35:21Z</time>
      </trkpt>
      <trkpt lat="45.02001" lon="2.56774">
        <ele>728.8</ele>
        <time>2021-08-22T13:35:23Z</time>
      </trkpt>
      <trkpt lat="45.02" lon="2.56777">
        <ele>728.7</ele>
        <time>2021-08-22T13:35:25Z</time>
      </trkpt>
      <trkpt lat="45.02" lon="2.56779">
        <ele>728.7</ele>
        <time>2021-08-22T13:35:27Z</time>
      </trkpt>
      <trkpt lat="45.02" lon="2.56782">
        <ele>728.6</ele>
        <time>2021-08-22T13:35:29Z</time>
      </trkpt>
      <trkpt lat="45.02" lon="2.56785">
        <ele>728.6</ele>
        <time>2021-08-22T13:35:31Z</time>
      </trkpt>
      <trkpt lat="45.02" lon="2.56789">
        <ele>728.5</ele>
        <time>2021-08-22T13:35:33Z</time>
      </trkpt>
      <trkpt lat="45.01998" lon="2.56793">
        <ele>728.5</ele>
        <time>2021-08-22T13:35:35Z</time>
      </trkpt>
      <trkpt lat="45.01999" lon="2.56798">
        <ele>728.5</ele>
        <time>2021-08-22T13:35:37Z</time>
      </trkpt>
      <trkpt lat="45.01999" lon="2.56801">
        <ele>728.4</ele>
        <time>2021-08-22T13:35:39Z</time>
      </trkpt>
      <trkpt lat="45.01997" lon="2.56806">
        <ele>728.4</ele>
        <time>2021-08-22T13:35:41Z</time>
      </trkpt>
      <trkpt lat="45.01996" lon="2.56813">
        <ele>728.3</ele>
        <time>2021-08-22T13:35:43Z</time>
      </trkpt>
      <trkpt lat="45.02001" lon="2.56816">
        <ele>728.2</ele>
        <time>2021-08-22T13:35:45Z</time>
      </trkpt>
      <trkpt lat="45.02004" lon="2.5682">
        <ele>728.4</ele>
        <time>2021-08-22T13:35:47Z</time>
      </trkpt>
      <trkpt lat="45.02007" lon="2.56824">
        <ele>728.5</ele>
        <time>2021-08-22T13:35:49Z</time>
      </trkpt>
      <trkpt lat="45.02011" lon="2.56825">
        <ele>728.7</ele>
        <time>2021-08-22T13:35:51Z</time>
      </trkpt>
      <trkpt lat="45.02015" lon="2.56826">
        <ele>728.8</ele>
        <time>2021-08-22T13:35:53Z</time>
      </trkpt>
      <trkpt lat="45.02019" lon="2.56826">
        <ele>729.1</ele>
        <time>2021-08-22T13:35:55Z</time>
      </trkpt>
      <trkpt lat="45.02023" lon="2.56823">
        <ele>729.3</ele>
        <time>2021-08-22T13:35:57Z</time>
      </trkpt>
      <trkpt lat="45.02027" lon="2.56818">
        <ele>729.6</ele>
        <time>2021-08-22T13:35:59Z</time>
      </trkpt>
      <trkpt lat="45.02028" lon="2.56812">
        <ele>729.8</ele>
        <time>2021-08-22T13:36:01Z</time>
      </trkpt>
      <trkpt lat="45.02029" lon="2.56808">
        <ele>729.9</ele>
        <time>2021-08-22T13:36:03Z</time>
      </trkpt>
      <trkpt lat="45.02028" lon="2.56805">
        <ele>729.9</ele>
        <time>2021-08-22T13:36:05Z</time>
      </trkpt>
      <trkpt lat="45.02027" lon="2.568">
        <ele>730</ele>
        <time>2021-08-22T13:36:07Z</time>
      </trkpt>
      <trkpt lat="45.02026" lon="2.56796">
        <ele>730</ele>
        <time>2021-08-22T13:36:09Z</time>
      </trkpt>
      <trkpt lat="45.02024" lon="2.56791">
        <ele>730</ele>
        <time>2021-08-22T13:36:11Z</time>
      </trkpt>
      <trkpt lat="45.02023" lon="2.5679">
        <ele>729.9</ele>
        <time>2021-08-22T13:36:13Z</time>
      </trkpt>
      <trkpt lat="45.02023" lon="2.56789">
        <ele>729.9</ele>
        <time>2021-08-22T13:36:15Z</time>
      </trkpt>
      <trkpt lat="45.02022" lon="2.56789">
        <ele>729.9</ele>
        <time>2021-08-22T13:36:17Z</time>
      </trkpt>
      <trkpt lat="45.02022" lon="2.56789">
        <ele>729.9</ele>
        <time>2021-08-22T13:36:19Z</time>
      </trkpt>
      <trkpt lat="45.02022" lon="2.56789">
        <ele>729.8</ele>
        <time>2021-08-22T13:36:21Z</time>
      </trkpt>
      <trkpt lat="45.02022" lon="2.56789">
        <ele>729.9</ele>
        <time>2021-08-22T13:36:23Z</time>
      </trkpt>
      <trkpt lat="45.02041" lon="2.56817">
        <ele>730.3</ele>
        <time>2021-08-22T13:37:15Z</time>
      </trkpt>
      <trkpt lat="45.02043" lon="2.56824">
        <ele>730.3</ele>
        <time>2021-08-22T13:37:17Z</time>
      </trkpt>
      <trkpt lat="45.02044" lon="2.56831">
        <ele>730.2</ele>
        <time>2021-08-22T13:37:19Z</time>
      </trkpt>
      <trkpt lat="45.02046" lon="2.56838">
        <ele>730.3</ele>
        <time>2021-08-22T13:37:21Z</time>
      </trkpt>
      <trkpt lat="45.02048" lon="2.56844">
        <ele>730.6</ele>
        <time>2021-08-22T13:37:23Z</time>
      </trkpt>
      <trkpt lat="45.02049" lon="2.56851">
        <ele>730.8</ele>
        <time>2021-08-22T13:37:25Z</time>
      </trkpt>
      <trkpt lat="45.0205" lon="2.56857">
        <ele>731.1</ele>
        <time>2021-08-22T13:37:27Z</time>
      </trkpt>
      <trkpt lat="45.02052" lon="2.56863">
        <ele>731.4</ele>
        <time>2021-08-22T13:37:29Z</time>
      </trkpt>
      <trkpt lat="45.02053" lon="2.5687">
        <ele>731.6</ele>
        <time>2021-08-22T13:37:31Z</time>
      </trkpt>
      <trkpt lat="45.02055" lon="2.56876">
        <ele>732</ele>
        <time>2021-08-22T13:37:33Z</time>
      </trkpt>
      <trkpt lat="45.02056" lon="2.56884">
        <ele>732.3</ele>
        <time>2021-08-22T13:37:35Z</time>
      </trkpt>
      <trkpt lat="45.02058" lon="2.56891">
        <ele>732.7</ele>
        <time>2021-08-22T13:37:37Z</time>
      </trkpt>
      <trkpt lat="45.02059" lon="2.56899">
        <ele>733.1</ele>
        <time>2021-08-22T13:37:39Z</time>
      </trkpt>
      <trkpt lat="45.02061" lon="2.56906">
        <ele>733.5</ele>
        <time>2021-08-22T13:37:41Z</time>
      </trkpt>
      <trkpt lat="45.02063" lon="2.56914">
        <ele>734</ele>
        <time>2021-08-22T13:37:43Z</time>
      </trkpt>
      <trkpt lat="45.02065" lon="2.56921">
        <ele>734.1</ele>
        <time>2021-08-22T13:37:45Z</time>
      </trkpt>
      <trkpt lat="45.02066" lon="2.56928">
        <ele>734</ele>
        <time>2021-08-22T13:37:47Z</time>
      </trkpt>
      <trkpt lat="45.02068" lon="2.56935">
        <ele>734</ele>
        <time>2021-08-22T13:37:49Z</time>
      </trkpt>
      <trkpt lat="45.0207" lon="2.56942">
        <ele>733.9</ele>
        <time>2021-08-22T13:37:51Z</time>
      </trkpt>
      <trkpt lat="45.02072" lon="2.56948">
        <ele>733.8</ele>
        <time>2021-08-22T13:37:53Z</time>
      </trkpt>
      <trkpt lat="45.02073" lon="2.56955">
        <ele>733.6</ele>
        <time>2021-08-22T13:37:55Z</time>
      </trkpt>
      <trkpt lat="45.02075" lon="2.56962">
        <ele>733.5</ele>
        <time>2021-08-22T13:37:57Z</time>
      </trkpt>
      <trkpt lat="45.02076" lon="2.56969">
        <ele>733.3</ele>
        <time>2021-08-22T13:37:59Z</time>
      </trkpt>
      <trkpt lat="45.02078" lon="2.56975">
        <ele>733.1</ele>
        <time>2021-08-22T13:38:01Z</time>
      </trkpt>
      <trkpt lat="45.0208" lon="2.56981">
        <ele>732.8</ele>
        <time>2021-08-22T13:38:03Z</time>
      </trkpt>
      <trkpt lat="45.02082" lon="2.56988">
        <ele>732.5</ele>
        <time>2021-08-22T13:38:05Z</time>
      </trkpt>
      <trkpt lat="45.02084" lon="2.56995">
        <ele>732.2</ele>
        <time>2021-08-22T13:38:07Z</time>
      </trkpt>
      <trkpt lat="45.02086" lon="2.57003">
        <ele>731.9</ele>
        <time>2021-08-22T13:38:09Z</time>
      </trkpt>
      <trkpt lat="45.02088" lon="2.5701">
        <ele>731.7</ele>
        <time>2021-08-22T13:38:11Z</time>
      </trkpt>
      <trkpt lat="45.0209" lon="2.57018">
        <ele>731.5</ele>
        <time>2021-08-22T13:38:13Z</time>
      </trkpt>
      <trkpt lat="45.02092" lon="2.57027">
        <ele>731.3</ele>
        <time>2021-08-22T13:38:15Z</time>
      </trkpt>
      <trkpt lat="45.02094" lon="2.57035">
        <ele>731.1</ele>
        <time>2021-08-22T13:38:17Z</time>
      </trkpt>
      <trkpt lat="45.02096" lon="2.57042">
        <ele>730.9</ele>
        <time>2021-08-22T13:38:19Z</time>
      </trkpt>
      <trkpt lat="45.02098" lon="2.5705">
        <ele>730.8</ele>
        <time>2021-08-22T13:38:21Z</time>
      </trkpt>
      <trkpt lat="45.021" lon="2.57058">
        <ele>730.6</ele>
        <time>2021-08-22T13:38:23Z</time>
      </trkpt>
      <trkpt lat="45.02103" lon="2.57065">
        <ele>730.5</ele>
        <time>2021-08-22T13:38:25Z</time>
      </trkpt>
      <trkpt lat="45.02105" lon="2.57072">
        <ele>730.4</ele>
        <time>2021-08-22T13:38:27Z</time>
      </trkpt>
      <trkpt lat="45.02108" lon="2.57079">
        <ele>730.4</ele>
        <time>2021-08-22T13:38:29Z</time>
      </trkpt>
      <trkpt lat="45.0211" lon="2.57085">
        <ele>730.6</ele>
        <time>2021-08-22T13:38:31Z</time>
      </trkpt>
      <trkpt lat="45.02113" lon="2.57092">
        <ele>731.5</ele>
        <time>2021-08-22T13:38:33Z</time>
      </trkpt>
      <trkpt lat="45.02115" lon="2.57098">
        <ele>732.4</ele>
        <time>2021-08-22T13:38:35Z</time>
      </trkpt>
      <trkpt lat="45.02118" lon="2.57104">
        <ele>733.2</ele>
        <time>2021-08-22T13:38:37Z</time>
      </trkpt>
      <trkpt lat="45.02121" lon="2.5711">
        <ele>733.9</ele>
        <time>2021-08-22T13:38:39Z</time>
      </trkpt>
      <trkpt lat="45.02123" lon="2.57117">
        <ele>734.8</ele>
        <time>2021-08-22T13:38:41Z</time>
      </trkpt>
      <trkpt lat="45.02126" lon="2.57123">
        <ele>735.4</ele>
        <time>2021-08-22T13:38:43Z</time>
      </trkpt>
      <trkpt lat="45.02128" lon="2.57128">
        <ele>736.1</ele>
        <time>2021-08-22T13:38:45Z</time>
      </trkpt>
      <trkpt lat="45.02131" lon="2.57134">
        <ele>736.7</ele>
        <time>2021-08-22T13:38:47Z</time>
      </trkpt>
      <trkpt lat="45.02133" lon="2.57139">
        <ele>737.1</ele>
        <time>2021-08-22T13:38:49Z</time>
      </trkpt>
      <trkpt lat="45.02136" lon="2.57144">
        <ele>737.6</ele>
        <time>2021-08-22T13:38:51Z</time>
      </trkpt>
      <trkpt lat="45.02138" lon="2.57149">
        <ele>738.1</ele>
        <time>2021-08-22T13:38:53Z</time>
      </trkpt>
      <trkpt lat="45.02141" lon="2.57154">
        <ele>738.5</ele>
        <time>2021-08-22T13:38:55Z</time>
      </trkpt>
      <trkpt lat="45.02144" lon="2.5716">
        <ele>738.9</ele>
        <time>2021-08-22T13:38:57Z</time>
      </trkpt>
      <trkpt lat="45.02146" lon="2.57165">
        <ele>739.3</ele>
        <time>2021-08-22T13:38:59Z</time>
      </trkpt>
      <trkpt lat="45.02148" lon="2.5717">
        <ele>739.5</ele>
        <time>2021-08-22T13:39:01Z</time>
      </trkpt>
      <trkpt lat="45.02151" lon="2.57174">
        <ele>739.6</ele>
        <time>2021-08-22T13:39:03Z</time>
      </trkpt>
      <trkpt lat="45.02154" lon="2.57179">
        <ele>739.7</ele>
        <time>2021-08-22T13:39:05Z</time>
      </trkpt>
      <trkpt lat="45.02157" lon="2.57183">
        <ele>739.8</ele>
        <time>2021-08-22T13:39:07Z</time>
      </trkpt>
      <trkpt lat="45.0216" lon="2.57188">
        <ele>739.8</ele>
        <time>2021-08-22T13:39:09Z</time>
      </trkpt>
      <trkpt lat="45.02163" lon="2.57192">
        <ele>739.8</ele>
        <time>2021-08-22T13:39:11Z</time>
      </trkpt>
      <trkpt lat="45.02166" lon="2.57197">
        <ele>739.9</ele>
        <time>2021-08-22T13:39:13Z</time>
      </trkpt>
      <trkpt lat="45.02169" lon="2.57202">
        <ele>740</ele>
        <time>2021-08-22T13:39:15Z</time>
      </trkpt>
      <trkpt lat="45.02171" lon="2.57206">
        <ele>740</ele>
        <time>2021-08-22T13:39:17Z</time>
      </trkpt>
      <trkpt lat="45.02174" lon="2.57211">
        <ele>740.1</ele>
        <time>2021-08-22T13:39:19Z</time>
      </trkpt>
      <trkpt lat="45.02176" lon="2.57217">
        <ele>740.2</ele>
        <time>2021-08-22T13:39:21Z</time>
      </trkpt>
      <trkpt lat="45.02178" lon="2.57222">
        <ele>740.3</ele>
        <time>2021-08-22T13:39:23Z</time>
      </trkpt>
      <trkpt lat="45.02179" lon="2.57228">
        <ele>740.5</ele>
        <time>2021-08-22T13:39:25Z</time>
      </trkpt>
      <trkpt lat="45.0218" lon="2.57234">
        <ele>740.6</ele>
        <time>2021-08-22T13:39:27Z</time>
      </trkpt>
      <trkpt lat="45.02181" lon="2.57241">
        <ele>740.9</ele>
        <time>2021-08-22T13:39:29Z</time>
      </trkpt>
      <trkpt lat="45.02182" lon="2.57247">
        <ele>741</ele>
        <time>2021-08-22T13:39:31Z</time>
      </trkpt>
      <trkpt lat="45.02183" lon="2.57254">
        <ele>741.1</ele>
        <time>2021-08-22T13:39:33Z</time>
      </trkpt>
      <trkpt lat="45.02182" lon="2.57261">
        <ele>741.2</ele>
        <time>2021-08-22T13:39:35Z</time>
      </trkpt>
      <trkpt lat="45.02181" lon="2.57268">
        <ele>741.3</ele>
        <time>2021-08-22T13:39:37Z</time>
      </trkpt>
      <trkpt lat="45.0218" lon="2.57274">
        <ele>741.5</ele>
        <time>2021-08-22T13:39:39Z</time>
      </trkpt>
      <trkpt lat="45.02179" lon="2.57281">
        <ele>741.6</ele>
        <time>2021-08-22T13:39:41Z</time>
      </trkpt>
      <trkpt lat="45.02176" lon="2.57288">
        <ele>741.9</ele>
        <time>2021-08-22T13:39:43Z</time>
      </trkpt>
      <trkpt lat="45.02174" lon="2.57294">
        <ele>742.2</ele>
        <time>2021-08-22T13:39:45Z</time>
      </trkpt>
      <trkpt lat="45.02171" lon="2.57301">
        <ele>742.5</ele>
        <time>2021-08-22T13:39:47Z</time>
      </trkpt>
      <trkpt lat="45.02168" lon="2.57308">
        <ele>742.9</ele>
        <time>2021-08-22T13:39:49Z</time>
      </trkpt>
      <trkpt lat="45.02165" lon="2.57314">
        <ele>743.2</ele>
        <time>2021-08-22T13:39:51Z</time>
      </trkpt>
      <trkpt lat="45.02161" lon="2.57319">
        <ele>743.5</ele>
        <time>2021-08-22T13:39:53Z</time>
      </trkpt>
      <trkpt lat="45.02158" lon="2.57324">
        <ele>743.9</ele>
        <time>2021-08-22T13:39:55Z</time>
      </trkpt>
      <trkpt lat="45.02154" lon="2.57329">
        <ele>744.2</ele>
        <time>2021-08-22T13:39:57Z</time>
      </trkpt>
      <trkpt lat="45.02151" lon="2.57335">
        <ele>744.6</ele>
        <time>2021-08-22T13:39:59Z</time>
      </trkpt>
      <trkpt lat="45.02147" lon="2.57341">
        <ele>745</ele>
        <time>2021-08-22T13:40:01Z</time>
      </trkpt>
      <trkpt lat="45.02144" lon="2.57346">
        <ele>745.4</ele>
        <time>2021-08-22T13:40:03Z</time>
      </trkpt>
      <trkpt lat="45.02141" lon="2.57353">
        <ele>745.8</ele>
        <time>2021-08-22T13:40:05Z</time>
      </trkpt>
      <trkpt lat="45.02139" lon="2.57359">
        <ele>746</ele>
        <time>2021-08-22T13:40:07Z</time>
      </trkpt>
      <trkpt lat="45.02138" lon="2.57364">
        <ele>746.2</ele>
        <time>2021-08-22T13:40:09Z</time>
      </trkpt>
      <trkpt lat="45.02137" lon="2.5737">
        <ele>746.4</ele>
        <time>2021-08-22T13:40:11Z</time>
      </trkpt>
      <trkpt lat="45.02136" lon="2.57376">
        <ele>746.6</ele>
        <time>2021-08-22T13:40:13Z</time>
      </trkpt>
      <trkpt lat="45.02136" lon="2.57383">
        <ele>746.8</ele>
        <time>2021-08-22T13:40:15Z</time>
      </trkpt>
      <trkpt lat="45.02136" lon="2.5739">
        <ele>746.9</ele>
        <time>2021-08-22T13:40:17Z</time>
      </trkpt>
      <trkpt lat="45.02137" lon="2.57397">
        <ele>746.9</ele>
        <time>2021-08-22T13:40:19Z</time>
      </trkpt>
      <trkpt lat="45.02138" lon="2.57403">
        <ele>746.8</ele>
        <time>2021-08-22T13:40:21Z</time>
      </trkpt>
      <trkpt lat="45.02139" lon="2.5741">
        <ele>746.9</ele>
        <time>2021-08-22T13:40:23Z</time>
      </trkpt>
      <trkpt lat="45.0214" lon="2.57416">
        <ele>746.8</ele>
        <time>2021-08-22T13:40:25Z</time>
      </trkpt>
      <trkpt lat="45.02142" lon="2.57423">
        <ele>747.1</ele>
        <time>2021-08-22T13:40:27Z</time>
      </trkpt>
      <trkpt lat="45.02143" lon="2.57429">
        <ele>747.2</ele>
        <time>2021-08-22T13:40:29Z</time>
      </trkpt>
      <trkpt lat="45.02145" lon="2.57435">
        <ele>747.5</ele>
        <time>2021-08-22T13:40:31Z</time>
      </trkpt>
      <trkpt lat="45.02147" lon="2.57442">
        <ele>747.6</ele>
        <time>2021-08-22T13:40:33Z</time>
      </trkpt>
      <trkpt lat="45.02149" lon="2.57449">
        <ele>747.8</ele>
        <time>2021-08-22T13:40:35Z</time>
      </trkpt>
      <trkpt lat="45.0215" lon="2.57456">
        <ele>748.1</ele>
        <time>2021-08-22T13:40:37Z</time>
      </trkpt>
      <trkpt lat="45.02153" lon="2.57463">
        <ele>748.1</ele>
        <time>2021-08-22T13:40:39Z</time>
      </trkpt>
      <trkpt lat="45.02156" lon="2.57468">
        <ele>747.9</ele>
        <time>2021-08-22T13:40:41Z</time>
      </trkpt>
      <trkpt lat="45.02159" lon="2.57474">
        <ele>747.8</ele>
        <time>2021-08-22T13:40:43Z</time>
      </trkpt>
      <trkpt lat="45.02162" lon="2.57479">
        <ele>747.6</ele>
        <time>2021-08-22T13:40:45Z</time>
      </trkpt>
      <trkpt lat="45.02165" lon="2.57483">
        <ele>747.4</ele>
        <time>2021-08-22T13:40:47Z</time>
      </trkpt>
      <trkpt lat="45.02169" lon="2.57487">
        <ele>747.4</ele>
        <time>2021-08-22T13:40:49Z</time>
      </trkpt>
      <trkpt lat="45.02172" lon="2.57491">
        <ele>747.7</ele>
        <time>2021-08-22T13:40:51Z</time>
      </trkpt>
      <trkpt lat="45.02176" lon="2.57495">
        <ele>747.9</ele>
        <time>2021-08-22T13:40:53Z</time>
      </trkpt>
      <trkpt lat="45.02179" lon="2.57499">
        <ele>748.2</ele>
        <time>2021-08-22T13:40:55Z</time>
      </trkpt>
      <trkpt lat="45.02183" lon="2.57502">
        <ele>748.7</ele>
        <time>2021-08-22T13:40:57Z</time>
      </trkpt>
      <trkpt lat="45.02187" lon="2.57506">
        <ele>749.2</ele>
        <time>2021-08-22T13:40:59Z</time>
      </trkpt>
      <trkpt lat="45.0219" lon="2.5751">
        <ele>749.6</ele>
        <time>2021-08-22T13:41:01Z</time>
      </trkpt>
      <trkpt lat="45.02194" lon="2.57514">
        <ele>750.1</ele>
        <time>2021-08-22T13:41:03Z</time>
      </trkpt>
      <trkpt lat="45.02198" lon="2.57518">
        <ele>750.6</ele>
        <time>2021-08-22T13:41:05Z</time>
      </trkpt>
      <trkpt lat="45.02203" lon="2.57523">
        <ele>751</ele>
        <time>2021-08-22T13:41:07Z</time>
      </trkpt>
      <trkpt lat="45.02207" lon="2.57527">
        <ele>751.3</ele>
        <time>2021-08-22T13:41:09Z</time>
      </trkpt>
      <trkpt lat="45.0221" lon="2.57531">
        <ele>751.5</ele>
        <time>2021-08-22T13:41:11Z</time>
      </trkpt>
      <trkpt lat="45.02214" lon="2.57535">
        <ele>751.8</ele>
        <time>2021-08-22T13:41:13Z</time>
      </trkpt>
      <trkpt lat="45.02218" lon="2.57539">
        <ele>752</ele>
        <time>2021-08-22T13:41:15Z</time>
      </trkpt>
      <trkpt lat="45.02222" lon="2.57543">
        <ele>752.1</ele>
        <time>2021-08-22T13:41:17Z</time>
      </trkpt>
      <trkpt lat="45.02225" lon="2.57548">
        <ele>752.2</ele>
        <time>2021-08-22T13:41:19Z</time>
      </trkpt>
      <trkpt lat="45.02229" lon="2.57552">
        <ele>752.3</ele>
        <time>2021-08-22T13:41:21Z</time>
      </trkpt>
      <trkpt lat="45.02232" lon="2.57558">
        <ele>752.5</ele>
        <time>2021-08-22T13:41:23Z</time>
      </trkpt>
      <trkpt lat="45.02235" lon="2.57563">
        <ele>752.5</ele>
        <time>2021-08-22T13:41:25Z</time>
      </trkpt>
      <trkpt lat="45.02238" lon="2.57569">
        <ele>752.5</ele>
        <time>2021-08-22T13:41:27Z</time>
      </trkpt>
      <trkpt lat="45.02242" lon="2.57574">
        <ele>752.5</ele>
        <time>2021-08-22T13:41:29Z</time>
      </trkpt>
      <trkpt lat="45.02245" lon="2.57579">
        <ele>752.4</ele>
        <time>2021-08-22T13:41:31Z</time>
      </trkpt>
      <trkpt lat="45.02248" lon="2.57584">
        <ele>752.4</ele>
        <time>2021-08-22T13:41:33Z</time>
      </trkpt>
      <trkpt lat="45.02251" lon="2.5759">
        <ele>752.8</ele>
        <time>2021-08-22T13:41:35Z</time>
      </trkpt>
      <trkpt lat="45.02254" lon="2.57595">
        <ele>753.4</ele>
        <time>2021-08-22T13:41:37Z</time>
      </trkpt>
      <trkpt lat="45.02257" lon="2.57601">
        <ele>754</ele>
        <time>2021-08-22T13:41:39Z</time>
      </trkpt>
      <trkpt lat="45.02259" lon="2.57606">
        <ele>754.7</ele>
        <time>2021-08-22T13:41:41Z</time>
      </trkpt>
      <trkpt lat="45.02262" lon="2.57612">
        <ele>755.3</ele>
        <time>2021-08-22T13:41:43Z</time>
      </trkpt>
      <trkpt lat="45.02266" lon="2.57618">
        <ele>755.9</ele>
        <time>2021-08-22T13:41:45Z</time>
      </trkpt>
      <trkpt lat="45.02269" lon="2.57623">
        <ele>756.5</ele>
        <time>2021-08-22T13:41:47Z</time>
      </trkpt>
      <trkpt lat="45.02272" lon="2.57629">
        <ele>757.1</ele>
        <time>2021-08-22T13:41:49Z</time>
      </trkpt>
      <trkpt lat="45.02275" lon="2.57635">
        <ele>757.7</ele>
        <time>2021-08-22T13:41:51Z</time>
      </trkpt>
      <trkpt lat="45.02278" lon="2.5764">
        <ele>758.2</ele>
        <time>2021-08-22T13:41:53Z</time>
      </trkpt>
      <trkpt lat="45.02281" lon="2.57645">
        <ele>758.8</ele>
        <time>2021-08-22T13:41:55Z</time>
      </trkpt>
      <trkpt lat="45.02285" lon="2.5765">
        <ele>759.2</ele>
        <time>2021-08-22T13:41:57Z</time>
      </trkpt>
      <trkpt lat="45.02289" lon="2.57654">
        <ele>759.5</ele>
        <time>2021-08-22T13:41:59Z</time>
      </trkpt>
      <trkpt lat="45.02293" lon="2.57657">
        <ele>759.7</ele>
        <time>2021-08-22T13:42:01Z</time>
      </trkpt>
      <trkpt lat="45.02298" lon="2.57659">
        <ele>759.8</ele>
        <time>2021-08-22T13:42:03Z</time>
      </trkpt>
      <trkpt lat="45.02303" lon="2.57661">
        <ele>759.7</ele>
        <time>2021-08-22T13:42:05Z</time>
      </trkpt>
      <trkpt lat="45.02308" lon="2.57661">
        <ele>759.5</ele>
        <time>2021-08-22T13:42:07Z</time>
      </trkpt>
      <trkpt lat="45.02313" lon="2.5766">
        <ele>759.1</ele>
        <time>2021-08-22T13:42:09Z</time>
      </trkpt>
      <trkpt lat="45.02318" lon="2.57659">
        <ele>758.8</ele>
        <time>2021-08-22T13:42:11Z</time>
      </trkpt>
      <trkpt lat="45.02323" lon="2.57658">
        <ele>758.4</ele>
        <time>2021-08-22T13:42:13Z</time>
      </trkpt>
      <trkpt lat="45.02328" lon="2.57656">
        <ele>758</ele>
        <time>2021-08-22T13:42:15Z</time>
      </trkpt>
      <trkpt lat="45.02333" lon="2.57653">
        <ele>757.4</ele>
        <time>2021-08-22T13:42:17Z</time>
      </trkpt>
      <trkpt lat="45.02338" lon="2.57651">
        <ele>756.8</ele>
        <time>2021-08-22T13:42:19Z</time>
      </trkpt>
      <trkpt lat="45.02344" lon="2.5765">
        <ele>756.3</ele>
        <time>2021-08-22T13:42:21Z</time>
      </trkpt>
      <trkpt lat="45.02349" lon="2.57649">
        <ele>755.9</ele>
        <time>2021-08-22T13:42:23Z</time>
      </trkpt>
      <trkpt lat="45.02355" lon="2.5765">
        <ele>755.6</ele>
        <time>2021-08-22T13:42:25Z</time>
      </trkpt>
      <trkpt lat="45.0236" lon="2.57653">
        <ele>755.7</ele>
        <time>2021-08-22T13:42:27Z</time>
      </trkpt>
      <trkpt lat="45.02365" lon="2.57657">
        <ele>755.9</ele>
        <time>2021-08-22T13:42:29Z</time>
      </trkpt>
      <trkpt lat="45.0237" lon="2.57661">
        <ele>756</ele>
        <time>2021-08-22T13:42:31Z</time>
      </trkpt>
      <trkpt lat="45.02375" lon="2.57665">
        <ele>756.3</ele>
        <time>2021-08-22T13:42:33Z</time>
      </trkpt>
      <trkpt lat="45.0238" lon="2.57669">
        <ele>757</ele>
        <time>2021-08-22T13:42:35Z</time>
      </trkpt>
      <trkpt lat="45.02385" lon="2.57672">
        <ele>757.7</ele>
        <time>2021-08-22T13:42:37Z</time>
      </trkpt>
      <trkpt lat="45.0239" lon="2.57678">
        <ele>759.1</ele>
        <time>2021-08-22T13:42:39Z</time>
      </trkpt>
      <trkpt lat="45.02395" lon="2.57681">
        <ele>760</ele>
        <time>2021-08-22T13:42:41Z</time>
      </trkpt>
      <trkpt lat="45.02399" lon="2.57685">
        <ele>761</ele>
        <time>2021-08-22T13:42:43Z</time>
      </trkpt>
      <trkpt lat="45.02403" lon="2.57689">
        <ele>762</ele>
        <time>2021-08-22T13:42:45Z</time>
      </trkpt>
      <trkpt lat="45.02408" lon="2.57692">
        <ele>762.6</ele>
        <time>2021-08-22T13:42:47Z</time>
      </trkpt>
      <trkpt lat="45.02413" lon="2.57695">
        <ele>763.6</ele>
        <time>2021-08-22T13:42:49Z</time>
      </trkpt>
      <trkpt lat="45.02417" lon="2.577">
        <ele>764.5</ele>
        <time>2021-08-22T13:42:51Z</time>
      </trkpt>
      <trkpt lat="45.02422" lon="2.57704">
        <ele>765</ele>
        <time>2021-08-22T13:42:53Z</time>
      </trkpt>
      <trkpt lat="45.02427" lon="2.57707">
        <ele>765.1</ele>
        <time>2021-08-22T13:42:55Z</time>
      </trkpt>
      <trkpt lat="45.02431" lon="2.57709">
        <ele>765</ele>
        <time>2021-08-22T13:42:57Z</time>
      </trkpt>
      <trkpt lat="45.02436" lon="2.57712">
        <ele>764.8</ele>
        <time>2021-08-22T13:42:59Z</time>
      </trkpt>
      <trkpt lat="45.02441" lon="2.57715">
        <ele>764.5</ele>
        <time>2021-08-22T13:43:01Z</time>
      </trkpt>
      <trkpt lat="45.02445" lon="2.57718">
        <ele>764.5</ele>
        <time>2021-08-22T13:43:03Z</time>
      </trkpt>
      <trkpt lat="45.0245" lon="2.5772">
        <ele>764.1</ele>
        <time>2021-08-22T13:43:05Z</time>
      </trkpt>
      <trkpt lat="45.02455" lon="2.57723">
        <ele>763.9</ele>
        <time>2021-08-22T13:43:07Z</time>
      </trkpt>
      <trkpt lat="45.0246" lon="2.57725">
        <ele>763.2</ele>
        <time>2021-08-22T13:43:09Z</time>
      </trkpt>
      <trkpt lat="45.02465" lon="2.57728">
        <ele>762.7</ele>
        <time>2021-08-22T13:43:11Z</time>
      </trkpt>
      <trkpt lat="45.02469" lon="2.57733">
        <ele>763.1</ele>
        <time>2021-08-22T13:43:13Z</time>
      </trkpt>
      <trkpt lat="45.02473" lon="2.57739">
        <ele>763.5</ele>
        <time>2021-08-22T13:43:15Z</time>
      </trkpt>
      <trkpt lat="45.02477" lon="2.57745">
        <ele>764</ele>
        <time>2021-08-22T13:43:17Z</time>
      </trkpt>
      <trkpt lat="45.02479" lon="2.57753">
        <ele>765.4</ele>
        <time>2021-08-22T13:43:19Z</time>
      </trkpt>
      <trkpt lat="45.02483" lon="2.5776">
        <ele>767.2</ele>
        <time>2021-08-22T13:43:21Z</time>
      </trkpt>
      <trkpt lat="45.02485" lon="2.57767">
        <ele>769.5</ele>
        <time>2021-08-22T13:43:23Z</time>
      </trkpt>
      <trkpt lat="45.02486" lon="2.57775">
        <ele>771.8</ele>
        <time>2021-08-22T13:43:25Z</time>
      </trkpt>
      <trkpt lat="45.02489" lon="2.57781">
        <ele>773.7</ele>
        <time>2021-08-22T13:43:27Z</time>
      </trkpt>
      <trkpt lat="45.02491" lon="2.57788">
        <ele>775.5</ele>
        <time>2021-08-22T13:43:29Z</time>
      </trkpt>
      <trkpt lat="45.02493" lon="2.57795">
        <ele>777.4</ele>
        <time>2021-08-22T13:43:31Z</time>
      </trkpt>
      <trkpt lat="45.02496" lon="2.57801">
        <ele>779.1</ele>
        <time>2021-08-22T13:43:33Z</time>
      </trkpt>
      <trkpt lat="45.02498" lon="2.57807">
        <ele>780.8</ele>
        <time>2021-08-22T13:43:35Z</time>
      </trkpt>
      <trkpt lat="45.02501" lon="2.57813">
        <ele>782.2</ele>
        <time>2021-08-22T13:43:37Z</time>
      </trkpt>
      <trkpt lat="45.02504" lon="2.57819">
        <ele>783</ele>
        <time>2021-08-22T13:43:39Z</time>
      </trkpt>
      <trkpt lat="45.02507" lon="2.57824">
        <ele>783.6</ele>
        <time>2021-08-22T13:43:41Z</time>
      </trkpt>
      <trkpt lat="45.02511" lon="2.57827">
        <ele>783.3</ele>
        <time>2021-08-22T13:43:43Z</time>
      </trkpt>
      <trkpt lat="45.02515" lon="2.57832">
        <ele>783.1</ele>
        <time>2021-08-22T13:43:45Z</time>
      </trkpt>
      <trkpt lat="45.02519" lon="2.57834">
        <ele>782.1</ele>
        <time>2021-08-22T13:43:47Z</time>
      </trkpt>
      <trkpt lat="45.02523" lon="2.57838">
        <ele>781.8</ele>
        <time>2021-08-22T13:43:49Z</time>
      </trkpt>
      <trkpt lat="45.02527" lon="2.57843">
        <ele>782.2</ele>
        <time>2021-08-22T13:43:51Z</time>
      </trkpt>
      <trkpt lat="45.02531" lon="2.57848">
        <ele>782.2</ele>
        <time>2021-08-22T13:43:53Z</time>
      </trkpt>
      <trkpt lat="45.02536" lon="2.57853">
        <ele>781.7</ele>
        <time>2021-08-22T13:43:55Z</time>
      </trkpt>
      <trkpt lat="45.0254" lon="2.57858">
        <ele>781.7</ele>
        <time>2021-08-22T13:43:57Z</time>
      </trkpt>
      <trkpt lat="45.02543" lon="2.57861">
        <ele>781.5</ele>
        <time>2021-08-22T13:43:59Z</time>
      </trkpt>
      <trkpt lat="45.02548" lon="2.57865">
        <ele>781</ele>
        <time>2021-08-22T13:44:01Z</time>
      </trkpt>
      <trkpt lat="45.02552" lon="2.57869">
        <ele>780.6</ele>
        <time>2021-08-22T13:44:03Z</time>
      </trkpt>
      <trkpt lat="45.02556" lon="2.57872">
        <ele>780.1</ele>
        <time>2021-08-22T13:44:05Z</time>
      </trkpt>
      <trkpt lat="45.02562" lon="2.57875">
        <ele>779</ele>
        <time>2021-08-22T13:44:07Z</time>
      </trkpt>
      <trkpt lat="45.02567" lon="2.57878">
        <ele>777.9</ele>
        <time>2021-08-22T13:44:09Z</time>
      </trkpt>
      <trkpt lat="45.02572" lon="2.57881">
        <ele>776.6</ele>
        <time>2021-08-22T13:44:11Z</time>
      </trkpt>
      <trkpt lat="45.02577" lon="2.57884">
        <ele>775.5</ele>
        <time>2021-08-22T13:44:13Z</time>
      </trkpt>
      <trkpt lat="45.02583" lon="2.57887">
        <ele>774.7</ele>
        <time>2021-08-22T13:44:15Z</time>
      </trkpt>
      <trkpt lat="45.02588" lon="2.57889">
        <ele>774.3</ele>
        <time>2021-08-22T13:44:17Z</time>
      </trkpt>
      <trkpt lat="45.02593" lon="2.57892">
        <ele>774.4</ele>
        <time>2021-08-22T13:44:19Z</time>
      </trkpt>
      <trkpt lat="45.02598" lon="2.57895">
        <ele>774.5</ele>
        <time>2021-08-22T13:44:21Z</time>
      </trkpt>
      <trkpt lat="45.02603" lon="2.57898">
        <ele>774.3</ele>
        <time>2021-08-22T13:44:23Z</time>
      </trkpt>
      <trkpt lat="45.02607" lon="2.579">
        <ele>774.1</ele>
        <time>2021-08-22T13:44:25Z</time>
      </trkpt>
      <trkpt lat="45.02612" lon="2.57903">
        <ele>773.9</ele>
        <time>2021-08-22T13:44:27Z</time>
      </trkpt>
      <trkpt lat="45.02617" lon="2.57906">
        <ele>773.9</ele>
        <time>2021-08-22T13:44:29Z</time>
      </trkpt>
      <trkpt lat="45.02621" lon="2.57909">
        <ele>773.6</ele>
        <time>2021-08-22T13:44:31Z</time>
      </trkpt>
      <trkpt lat="45.02626" lon="2.57912">
        <ele>773.6</ele>
        <time>2021-08-22T13:44:33Z</time>
      </trkpt>
      <trkpt lat="45.02631" lon="2.57914">
        <ele>772.9</ele>
        <time>2021-08-22T13:44:35Z</time>
      </trkpt>
      <trkpt lat="45.02635" lon="2.57918">
        <ele>772.8</ele>
        <time>2021-08-22T13:44:37Z</time>
      </trkpt>
      <trkpt lat="45.0264" lon="2.57921">
        <ele>772.3</ele>
        <time>2021-08-22T13:44:39Z</time>
      </trkpt>
      <trkpt lat="45.02644" lon="2.57923">
        <ele>771.6</ele>
        <time>2021-08-22T13:44:41Z</time>
      </trkpt>
      <trkpt lat="45.02648" lon="2.57927">
        <ele>771.4</ele>
        <time>2021-08-22T13:44:43Z</time>
      </trkpt>
      <trkpt lat="45.02653" lon="2.57931">
        <ele>770.9</ele>
        <time>2021-08-22T13:44:45Z</time>
      </trkpt>
      <trkpt lat="45.02656" lon="2.57936">
        <ele>770.9</ele>
        <time>2021-08-22T13:44:47Z</time>
      </trkpt>
      <trkpt lat="45.0266" lon="2.57941">
        <ele>770.7</ele>
        <time>2021-08-22T13:44:49Z</time>
      </trkpt>
      <trkpt lat="45.02663" lon="2.57948">
        <ele>770.8</ele>
        <time>2021-08-22T13:44:51Z</time>
      </trkpt>
      <trkpt lat="45.02666" lon="2.57954">
        <ele>770.9</ele>
        <time>2021-08-22T13:44:53Z</time>
      </trkpt>
      <trkpt lat="45.02669" lon="2.5796">
        <ele>771.4</ele>
        <time>2021-08-22T13:44:55Z</time>
      </trkpt>
      <trkpt lat="45.02671" lon="2.57967">
        <ele>772</ele>
        <time>2021-08-22T13:44:57Z</time>
      </trkpt>
      <trkpt lat="45.02674" lon="2.57974">
        <ele>772.5</ele>
        <time>2021-08-22T13:44:59Z</time>
      </trkpt>
      <trkpt lat="45.02676" lon="2.5798">
        <ele>773</ele>
        <time>2021-08-22T13:45:01Z</time>
      </trkpt>
      <trkpt lat="45.02678" lon="2.57987">
        <ele>773.7</ele>
        <time>2021-08-22T13:45:03Z</time>
      </trkpt>
      <trkpt lat="45.02681" lon="2.57994">
        <ele>774.2</ele>
        <time>2021-08-22T13:45:05Z</time>
      </trkpt>
      <trkpt lat="45.02683" lon="2.58001">
        <ele>774.9</ele>
        <time>2021-08-22T13:45:07Z</time>
      </trkpt>
      <trkpt lat="45.02685" lon="2.58009">
        <ele>775.1</ele>
        <time>2021-08-22T13:45:09Z</time>
      </trkpt>
      <trkpt lat="45.02687" lon="2.58018">
        <ele>775.5</ele>
        <time>2021-08-22T13:45:11Z</time>
      </trkpt>
      <trkpt lat="45.0269" lon="2.58026">
        <ele>775.7</ele>
        <time>2021-08-22T13:45:13Z</time>
      </trkpt>
      <trkpt lat="45.02692" lon="2.58034">
        <ele>776.1</ele>
        <time>2021-08-22T13:45:15Z</time>
      </trkpt>
      <trkpt lat="45.02694" lon="2.58041">
        <ele>776.3</ele>
        <time>2021-08-22T13:45:17Z</time>
      </trkpt>
      <trkpt lat="45.02696" lon="2.58048">
        <ele>776.6</ele>
        <time>2021-08-22T13:45:19Z</time>
      </trkpt>
      <trkpt lat="45.02698" lon="2.58056">
        <ele>777.1</ele>
        <time>2021-08-22T13:45:21Z</time>
      </trkpt>
      <trkpt lat="45.027" lon="2.58063">
        <ele>777.6</ele>
        <time>2021-08-22T13:45:23Z</time>
      </trkpt>
      <trkpt lat="45.02703" lon="2.58069">
        <ele>777.7</ele>
        <time>2021-08-22T13:45:25Z</time>
      </trkpt>
      <trkpt lat="45.02708" lon="2.58074">
        <ele>777.5</ele>
        <time>2021-08-22T13:45:27Z</time>
      </trkpt>
      <trkpt lat="45.02713" lon="2.58077">
        <ele>777.2</ele>
        <time>2021-08-22T13:45:29Z</time>
      </trkpt>
      <trkpt lat="45.02718" lon="2.5808">
        <ele>776.8</ele>
        <time>2021-08-22T13:45:31Z</time>
      </trkpt>
      <trkpt lat="45.02722" lon="2.58083">
        <ele>776.6</ele>
        <time>2021-08-22T13:45:33Z</time>
      </trkpt>
      <trkpt lat="45.02726" lon="2.58084">
        <ele>776.3</ele>
        <time>2021-08-22T13:45:35Z</time>
      </trkpt>
      <trkpt lat="45.02731" lon="2.58085">
        <ele>775.8</ele>
        <time>2021-08-22T13:45:37Z</time>
      </trkpt>
      <trkpt lat="45.02735" lon="2.58087">
        <ele>775.4</ele>
        <time>2021-08-22T13:45:39Z</time>
      </trkpt>
      <trkpt lat="45.0274" lon="2.58089">
        <ele>775</ele>
        <time>2021-08-22T13:45:41Z</time>
      </trkpt>
      <trkpt lat="45.02744" lon="2.5809">
        <ele>774.6</ele>
        <time>2021-08-22T13:45:43Z</time>
      </trkpt>
      <trkpt lat="45.02749" lon="2.58091">
        <ele>774.2</ele>
        <time>2021-08-22T13:45:45Z</time>
      </trkpt>
      <trkpt lat="45.02753" lon="2.58093">
        <ele>774.6</ele>
        <time>2021-08-22T13:45:47Z</time>
      </trkpt>
      <trkpt lat="45.02758" lon="2.58094">
        <ele>775.1</ele>
        <time>2021-08-22T13:45:49Z</time>
      </trkpt>
      <trkpt lat="45.02762" lon="2.58096">
        <ele>775.7</ele>
        <time>2021-08-22T13:45:51Z</time>
      </trkpt>
      <trkpt lat="45.02767" lon="2.58098">
        <ele>776.3</ele>
        <time>2021-08-22T13:45:53Z</time>
      </trkpt>
      <trkpt lat="45.02771" lon="2.581">
        <ele>776.9</ele>
        <time>2021-08-22T13:45:55Z</time>
      </trkpt>
      <trkpt lat="45.02776" lon="2.58101">
        <ele>777.4</ele>
        <time>2021-08-22T13:45:57Z</time>
      </trkpt>
      <trkpt lat="45.0278" lon="2.58103">
        <ele>778</ele>
        <time>2021-08-22T13:45:59Z</time>
      </trkpt>
      <trkpt lat="45.02785" lon="2.58103">
        <ele>778.3</ele>
        <time>2021-08-22T13:46:01Z</time>
      </trkpt>
      <trkpt lat="45.02789" lon="2.58101">
        <ele>778.4</ele>
        <time>2021-08-22T13:46:03Z</time>
      </trkpt>
      <trkpt lat="45.02794" lon="2.581">
        <ele>778.6</ele>
        <time>2021-08-22T13:46:05Z</time>
      </trkpt>
      <trkpt lat="45.02798" lon="2.58097">
        <ele>778.5</ele>
        <time>2021-08-22T13:46:07Z</time>
      </trkpt>
      <trkpt lat="45.02802" lon="2.58093">
        <ele>778.1</ele>
        <time>2021-08-22T13:46:09Z</time>
      </trkpt>
      <trkpt lat="45.02805" lon="2.58089">
        <ele>777.8</ele>
        <time>2021-08-22T13:46:11Z</time>
      </trkpt>
      <trkpt lat="45.02808" lon="2.58085">
        <ele>777.4</ele>
        <time>2021-08-22T13:46:13Z</time>
      </trkpt>
      <trkpt lat="45.02811" lon="2.58081">
        <ele>776.9</ele>
        <time>2021-08-22T13:46:15Z</time>
      </trkpt>
      <trkpt lat="45.02814" lon="2.58076">
        <ele>776.1</ele>
        <time>2021-08-22T13:46:17Z</time>
      </trkpt>
      <trkpt lat="45.02817" lon="2.58071">
        <ele>775.3</ele>
        <time>2021-08-22T13:46:19Z</time>
      </trkpt>
      <trkpt lat="45.0282" lon="2.58068">
        <ele>774.7</ele>
        <time>2021-08-22T13:46:21Z</time>
      </trkpt>
      <trkpt lat="45.02824" lon="2.58064">
        <ele>774.1</ele>
        <time>2021-08-22T13:46:23Z</time>
      </trkpt>
      <trkpt lat="45.02826" lon="2.5806">
        <ele>773.2</ele>
        <time>2021-08-22T13:46:25Z</time>
      </trkpt>
      <trkpt lat="45.02827" lon="2.58054">
        <ele>772.1</ele>
        <time>2021-08-22T13:46:27Z</time>
      </trkpt>
      <trkpt lat="45.02829" lon="2.58052">
        <ele>771.6</ele>
        <time>2021-08-22T13:46:29Z</time>
      </trkpt>
      <trkpt lat="45.02832" lon="2.5805">
        <ele>771.4</ele>
        <time>2021-08-22T13:46:31Z</time>
      </trkpt>
      <trkpt lat="45.02834" lon="2.5805">
        <ele>771.4</ele>
        <time>2021-08-22T13:46:33Z</time>
      </trkpt>
      <trkpt lat="45.02834" lon="2.58051">
        <ele>771.5</ele>
        <time>2021-08-22T13:46:35Z</time>
      </trkpt>
      <trkpt lat="45.02834" lon="2.58051">
        <ele>771.6</ele>
        <time>2021-08-22T13:46:37Z</time>
      </trkpt>
      <trkpt lat="45.02834" lon="2.58051">
        <ele>771.7</ele>
        <time>2021-08-22T13:46:39Z</time>
      </trkpt>
      <trkpt lat="45.02834" lon="2.58051">
        <ele>771.6</ele>
        <time>2021-08-22T13:46:41Z</time>
      </trkpt>
      <trkpt lat="45.02843" lon="2.58068">
        <ele>774.4</ele>
        <time>2021-08-22T13:48:09Z</time>
      </trkpt>
      <trkpt lat="45.02848" lon="2.58072">
        <ele>774.6</ele>
        <time>2021-08-22T13:48:11Z</time>
      </trkpt>
      <trkpt lat="45.0285" lon="2.58077">
        <ele>775</ele>
        <time>2021-08-22T13:48:13Z</time>
      </trkpt>
      <trkpt lat="45.02853" lon="2.58083">
        <ele>775.6</ele>
        <time>2021-08-22T13:48:15Z</time>
      </trkpt>
      <trkpt lat="45.02854" lon="2.58088">
        <ele>776.1</ele>
        <time>2021-08-22T13:48:17Z</time>
      </trkpt>
      <trkpt lat="45.02855" lon="2.58094">
        <ele>776.8</ele>
        <time>2021-08-22T13:48:19Z</time>
      </trkpt>
      <trkpt lat="45.02855" lon="2.581">
        <ele>777.4</ele>
        <time>2021-08-22T13:48:21Z</time>
      </trkpt>
      <trkpt lat="45.02856" lon="2.58105">
        <ele>778</ele>
        <time>2021-08-22T13:48:23Z</time>
      </trkpt>
      <trkpt lat="45.02858" lon="2.58111">
        <ele>778.5</ele>
        <time>2021-08-22T13:48:25Z</time>
      </trkpt>
      <trkpt lat="45.02858" lon="2.58116">
        <ele>779.1</ele>
        <time>2021-08-22T13:48:27Z</time>
      </trkpt>
      <trkpt lat="45.02859" lon="2.58121">
        <ele>779.6</ele>
        <time>2021-08-22T13:48:29Z</time>
      </trkpt>
      <trkpt lat="45.0286" lon="2.58127">
        <ele>780.2</ele>
        <time>2021-08-22T13:48:31Z</time>
      </trkpt>
      <trkpt lat="45.02861" lon="2.58133">
        <ele>780.8</ele>
        <time>2021-08-22T13:48:33Z</time>
      </trkpt>
      <trkpt lat="45.02861" lon="2.58139">
        <ele>781.5</ele>
        <time>2021-08-22T13:48:35Z</time>
      </trkpt>
      <trkpt lat="45.02861" lon="2.58144">
        <ele>782.1</ele>
        <time>2021-08-22T13:48:37Z</time>
      </trkpt>
      <trkpt lat="45.02863" lon="2.5815">
        <ele>782.6</ele>
        <time>2021-08-22T13:48:39Z</time>
      </trkpt>
      <trkpt lat="45.02864" lon="2.58156">
        <ele>783.1</ele>
        <time>2021-08-22T13:48:41Z</time>
      </trkpt>
      <trkpt lat="45.02864" lon="2.58161">
        <ele>783.6</ele>
        <time>2021-08-22T13:48:43Z</time>
      </trkpt>
      <trkpt lat="45.02865" lon="2.58167">
        <ele>784.2</ele>
        <time>2021-08-22T13:48:45Z</time>
      </trkpt>
      <trkpt lat="45.02867" lon="2.58173">
        <ele>784.5</ele>
        <time>2021-08-22T13:48:47Z</time>
      </trkpt>
      <trkpt lat="45.02867" lon="2.58178">
        <ele>785</ele>
        <time>2021-08-22T13:48:49Z</time>
      </trkpt>
      <trkpt lat="45.02869" lon="2.58184">
        <ele>785.3</ele>
        <time>2021-08-22T13:48:51Z</time>
      </trkpt>
      <trkpt lat="45.02871" lon="2.58188">
        <ele>785.6</ele>
        <time>2021-08-22T13:48:53Z</time>
      </trkpt>
      <trkpt lat="45.02871" lon="2.58194">
        <ele>786.3</ele>
        <time>2021-08-22T13:48:55Z</time>
      </trkpt>
      <trkpt lat="45.02872" lon="2.582">
        <ele>786.8</ele>
        <time>2021-08-22T13:48:57Z</time>
      </trkpt>
      <trkpt lat="45.02873" lon="2.58206">
        <ele>787.4</ele>
        <time>2021-08-22T13:48:59Z</time>
      </trkpt>
      <trkpt lat="45.02874" lon="2.58212">
        <ele>787.8</ele>
        <time>2021-08-22T13:49:01Z</time>
      </trkpt>
      <trkpt lat="45.02876" lon="2.58218">
        <ele>788.3</ele>
        <time>2021-08-22T13:49:03Z</time>
      </trkpt>
      <trkpt lat="45.02877" lon="2.58224">
        <ele>788.7</ele>
        <time>2021-08-22T13:49:05Z</time>
      </trkpt>
      <trkpt lat="45.02879" lon="2.5823">
        <ele>789.3</ele>
        <time>2021-08-22T13:49:07Z</time>
      </trkpt>
      <trkpt lat="45.02881" lon="2.58236">
        <ele>789.5</ele>
        <time>2021-08-22T13:49:09Z</time>
      </trkpt>
      <trkpt lat="45.02884" lon="2.58242">
        <ele>789.8</ele>
        <time>2021-08-22T13:49:11Z</time>
      </trkpt>
      <trkpt lat="45.02888" lon="2.58246">
        <ele>789.6</ele>
        <time>2021-08-22T13:49:13Z</time>
      </trkpt>
      <trkpt lat="45.02892" lon="2.5825">
        <ele>789.5</ele>
        <time>2021-08-22T13:49:15Z</time>
      </trkpt>
      <trkpt lat="45.02896" lon="2.58253">
        <ele>789.3</ele>
        <time>2021-08-22T13:49:17Z</time>
      </trkpt>
      <trkpt lat="45.02901" lon="2.58256">
        <ele>789</ele>
        <time>2021-08-22T13:49:19Z</time>
      </trkpt>
      <trkpt lat="45.02906" lon="2.5826">
        <ele>788.7</ele>
        <time>2021-08-22T13:49:21Z</time>
      </trkpt>
      <trkpt lat="45.02911" lon="2.58263">
        <ele>788.5</ele>
        <time>2021-08-22T13:49:23Z</time>
      </trkpt>
      <trkpt lat="45.02916" lon="2.58268">
        <ele>788.4</ele>
        <time>2021-08-22T13:49:25Z</time>
      </trkpt>
      <trkpt lat="45.0292" lon="2.58273">
        <ele>788.3</ele>
        <time>2021-08-22T13:49:27Z</time>
      </trkpt>
      <trkpt lat="45.02924" lon="2.58279">
        <ele>788.3</ele>
        <time>2021-08-22T13:49:29Z</time>
      </trkpt>
      <trkpt lat="45.02927" lon="2.58286">
        <ele>788.5</ele>
        <time>2021-08-22T13:49:31Z</time>
      </trkpt>
      <trkpt lat="45.02931" lon="2.58292">
        <ele>788.6</ele>
        <time>2021-08-22T13:49:33Z</time>
      </trkpt>
      <trkpt lat="45.02934" lon="2.58299">
        <ele>789.1</ele>
        <time>2021-08-22T13:49:35Z</time>
      </trkpt>
      <trkpt lat="45.02937" lon="2.58306">
        <ele>789.5</ele>
        <time>2021-08-22T13:49:37Z</time>
      </trkpt>
      <trkpt lat="45.0294" lon="2.58313">
        <ele>790</ele>
        <time>2021-08-22T13:49:39Z</time>
      </trkpt>
      <trkpt lat="45.02943" lon="2.58321">
        <ele>790.4</ele>
        <time>2021-08-22T13:49:41Z</time>
      </trkpt>
      <trkpt lat="45.02946" lon="2.58328">
        <ele>790.7</ele>
        <time>2021-08-22T13:49:43Z</time>
      </trkpt>
      <trkpt lat="45.02949" lon="2.58334">
        <ele>790.9</ele>
        <time>2021-08-22T13:49:45Z</time>
      </trkpt>
      <trkpt lat="45.02952" lon="2.58341">
        <ele>791.4</ele>
        <time>2021-08-22T13:49:47Z</time>
      </trkpt>
      <trkpt lat="45.02955" lon="2.58349">
        <ele>792.2</ele>
        <time>2021-08-22T13:49:49Z</time>
      </trkpt>
      <trkpt lat="45.0296" lon="2.58355">
        <ele>792.3</ele>
        <time>2021-08-22T13:49:51Z</time>
      </trkpt>
      <trkpt lat="45.02963" lon="2.58362">
        <ele>792.6</ele>
        <time>2021-08-22T13:49:53Z</time>
      </trkpt>
      <trkpt lat="45.02967" lon="2.58368">
        <ele>792.8</ele>
        <time>2021-08-22T13:49:55Z</time>
      </trkpt>
      <trkpt lat="45.02971" lon="2.58375">
        <ele>792.8</ele>
        <time>2021-08-22T13:49:57Z</time>
      </trkpt>
      <trkpt lat="45.02975" lon="2.58381">
        <ele>792.7</ele>
        <time>2021-08-22T13:49:59Z</time>
      </trkpt>
      <trkpt lat="45.0298" lon="2.58387">
        <ele>792.6</ele>
        <time>2021-08-22T13:50:01Z</time>
      </trkpt>
      <trkpt lat="45.02984" lon="2.58394">
        <ele>792.6</ele>
        <time>2021-08-22T13:50:03Z</time>
      </trkpt>
      <trkpt lat="45.02987" lon="2.58402">
        <ele>792.9</ele>
        <time>2021-08-22T13:50:05Z</time>
      </trkpt>
      <trkpt lat="45.0299" lon="2.58411">
        <ele>793.6</ele>
        <time>2021-08-22T13:50:07Z</time>
      </trkpt>
      <trkpt lat="45.02992" lon="2.58419">
        <ele>794.1</ele>
        <time>2021-08-22T13:50:09Z</time>
      </trkpt>
      <trkpt lat="45.02994" lon="2.58428">
        <ele>793.9</ele>
        <time>2021-08-22T13:50:11Z</time>
      </trkpt>
      <trkpt lat="45.02995" lon="2.58437">
        <ele>794.1</ele>
        <time>2021-08-22T13:50:13Z</time>
      </trkpt>
      <trkpt lat="45.02996" lon="2.58445">
        <ele>794.2</ele>
        <time>2021-08-22T13:50:15Z</time>
      </trkpt>
      <trkpt lat="45.02997" lon="2.58454">
        <ele>794.3</ele>
        <time>2021-08-22T13:50:17Z</time>
      </trkpt>
      <trkpt lat="45.02998" lon="2.58463">
        <ele>794.7</ele>
        <time>2021-08-22T13:50:19Z</time>
      </trkpt>
      <trkpt lat="45.02998" lon="2.58472">
        <ele>795</ele>
        <time>2021-08-22T13:50:21Z</time>
      </trkpt>
      <trkpt lat="45.02999" lon="2.58481">
        <ele>795.4</ele>
        <time>2021-08-22T13:50:23Z</time>
      </trkpt>
      <trkpt lat="45.02999" lon="2.5849">
        <ele>795.7</ele>
        <time>2021-08-22T13:50:25Z</time>
      </trkpt>
      <trkpt lat="45.03" lon="2.585">
        <ele>796.1</ele>
        <time>2021-08-22T13:50:27Z</time>
      </trkpt>
      <trkpt lat="45.03" lon="2.58509">
        <ele>796.9</ele>
        <time>2021-08-22T13:50:29Z</time>
      </trkpt>
      <trkpt lat="45.03001" lon="2.58519">
        <ele>797.6</ele>
        <time>2021-08-22T13:50:31Z</time>
      </trkpt>
      <trkpt lat="45.03001" lon="2.58528">
        <ele>798.3</ele>
        <time>2021-08-22T13:50:33Z</time>
      </trkpt>
      <trkpt lat="45.03002" lon="2.58536">
        <ele>798.9</ele>
        <time>2021-08-22T13:50:35Z</time>
      </trkpt>
      <trkpt lat="45.03003" lon="2.58545">
        <ele>799.6</ele>
        <time>2021-08-22T13:50:37Z</time>
      </trkpt>
      <trkpt lat="45.03003" lon="2.58553">
        <ele>800.3</ele>
        <time>2021-08-22T13:50:39Z</time>
      </trkpt>
      <trkpt lat="45.03003" lon="2.58562">
        <ele>801</ele>
        <time>2021-08-22T13:50:41Z</time>
      </trkpt>
      <trkpt lat="45.03004" lon="2.5857">
        <ele>801.7</ele>
        <time>2021-08-22T13:50:43Z</time>
      </trkpt>
      <trkpt lat="45.03004" lon="2.58579">
        <ele>802.3</ele>
        <time>2021-08-22T13:50:45Z</time>
      </trkpt>
      <trkpt lat="45.03005" lon="2.58587">
        <ele>803.3</ele>
        <time>2021-08-22T13:50:47Z</time>
      </trkpt>
      <trkpt lat="45.03005" lon="2.58596">
        <ele>804.8</ele>
        <time>2021-08-22T13:50:49Z</time>
      </trkpt>
      <trkpt lat="45.03006" lon="2.58604">
        <ele>806</ele>
        <time>2021-08-22T13:50:51Z</time>
      </trkpt>
      <trkpt lat="45.03007" lon="2.58612">
        <ele>807.2</ele>
        <time>2021-08-22T13:50:53Z</time>
      </trkpt>
      <trkpt lat="45.03007" lon="2.5862">
        <ele>808.6</ele>
        <time>2021-08-22T13:50:55Z</time>
      </trkpt>
      <trkpt lat="45.03008" lon="2.58629">
        <ele>809.9</ele>
        <time>2021-08-22T13:50:57Z</time>
      </trkpt>
      <trkpt lat="45.0301" lon="2.58637">
        <ele>811</ele>
        <time>2021-08-22T13:50:59Z</time>
      </trkpt>
      <trkpt lat="45.03012" lon="2.58645">
        <ele>811.9</ele>
        <time>2021-08-22T13:51:01Z</time>
      </trkpt>
      <trkpt lat="45.03015" lon="2.58653">
        <ele>812.5</ele>
        <time>2021-08-22T13:51:03Z</time>
      </trkpt>
      <trkpt lat="45.03018" lon="2.5866">
        <ele>812.7</ele>
        <time>2021-08-22T13:51:05Z</time>
      </trkpt>
      <trkpt lat="45.03023" lon="2.58667">
        <ele>812.7</ele>
        <time>2021-08-22T13:51:07Z</time>
      </trkpt>
      <trkpt lat="45.03028" lon="2.58673">
        <ele>812.5</ele>
        <time>2021-08-22T13:51:09Z</time>
      </trkpt>
      <trkpt lat="45.03033" lon="2.58677">
        <ele>812</ele>
        <time>2021-08-22T13:51:11Z</time>
      </trkpt>
      <trkpt lat="45.03039" lon="2.58682">
        <ele>811.3</ele>
        <time>2021-08-22T13:51:13Z</time>
      </trkpt>
      <trkpt lat="45.03046" lon="2.58685">
        <ele>810.3</ele>
        <time>2021-08-22T13:51:15Z</time>
      </trkpt>
      <trkpt lat="45.03052" lon="2.58687">
        <ele>809.1</ele>
        <time>2021-08-22T13:51:17Z</time>
      </trkpt>
      <trkpt lat="45.03058" lon="2.5869">
        <ele>808</ele>
        <time>2021-08-22T13:51:19Z</time>
      </trkpt>
      <trkpt lat="45.03065" lon="2.58692">
        <ele>806.9</ele>
        <time>2021-08-22T13:51:21Z</time>
      </trkpt>
      <trkpt lat="45.03071" lon="2.58694">
        <ele>805.6</ele>
        <time>2021-08-22T13:51:23Z</time>
      </trkpt>
      <trkpt lat="45.03078" lon="2.58696">
        <ele>804.5</ele>
        <time>2021-08-22T13:51:25Z</time>
      </trkpt>
      <trkpt lat="45.03084" lon="2.58699">
        <ele>803.6</ele>
        <time>2021-08-22T13:51:27Z</time>
      </trkpt>
      <trkpt lat="45.0309" lon="2.58702">
        <ele>803</ele>
        <time>2021-08-22T13:51:29Z</time>
      </trkpt>
      <trkpt lat="45.03095" lon="2.58706">
        <ele>802.5</ele>
        <time>2021-08-22T13:51:31Z</time>
      </trkpt>
      <trkpt lat="45.03101" lon="2.58711">
        <ele>802.1</ele>
        <time>2021-08-22T13:51:33Z</time>
      </trkpt>
      <trkpt lat="45.03106" lon="2.58716">
        <ele>801.9</ele>
        <time>2021-08-22T13:51:35Z</time>
      </trkpt>
      <trkpt lat="45.0311" lon="2.58722">
        <ele>802</ele>
        <time>2021-08-22T13:51:37Z</time>
      </trkpt>
      <trkpt lat="45.03114" lon="2.58729">
        <ele>802.2</ele>
        <time>2021-08-22T13:51:39Z</time>
      </trkpt>
      <trkpt lat="45.03118" lon="2.58737">
        <ele>802.6</ele>
        <time>2021-08-22T13:51:41Z</time>
      </trkpt>
      <trkpt lat="45.03122" lon="2.58745">
        <ele>803.1</ele>
        <time>2021-08-22T13:51:43Z</time>
      </trkpt>
      <trkpt lat="45.03125" lon="2.58753">
        <ele>803.6</ele>
        <time>2021-08-22T13:51:45Z</time>
      </trkpt>
      <trkpt lat="45.03127" lon="2.58761">
        <ele>803.8</ele>
        <time>2021-08-22T13:51:47Z</time>
      </trkpt>
      <trkpt lat="45.03129" lon="2.58769">
        <ele>804.3</ele>
        <time>2021-08-22T13:51:49Z</time>
      </trkpt>
      <trkpt lat="45.03131" lon="2.58777">
        <ele>804.9</ele>
        <time>2021-08-22T13:51:51Z</time>
      </trkpt>
      <trkpt lat="45.03133" lon="2.58785">
        <ele>805.5</ele>
        <time>2021-08-22T13:51:53Z</time>
      </trkpt>
      <trkpt lat="45.03134" lon="2.58793">
        <ele>806</ele>
        <time>2021-08-22T13:51:55Z</time>
      </trkpt>
      <trkpt lat="45.03136" lon="2.58801">
        <ele>806.6</ele>
        <time>2021-08-22T13:51:57Z</time>
      </trkpt>
      <trkpt lat="45.03137" lon="2.58808">
        <ele>807.2</ele>
        <time>2021-08-22T13:51:59Z</time>
      </trkpt>
      <trkpt lat="45.03139" lon="2.58816">
        <ele>807.5</ele>
        <time>2021-08-22T13:52:01Z</time>
      </trkpt>
      <trkpt lat="45.03142" lon="2.58824">
        <ele>807.6</ele>
        <time>2021-08-22T13:52:03Z</time>
      </trkpt>
      <trkpt lat="45.03145" lon="2.58831">
        <ele>807.7</ele>
        <time>2021-08-22T13:52:05Z</time>
      </trkpt>
      <trkpt lat="45.03148" lon="2.58839">
        <ele>808</ele>
        <time>2021-08-22T13:52:07Z</time>
      </trkpt>
      <trkpt lat="45.03152" lon="2.58845">
        <ele>807.9</ele>
        <time>2021-08-22T13:52:09Z</time>
      </trkpt>
      <trkpt lat="45.03154" lon="2.58852">
        <ele>808.3</ele>
        <time>2021-08-22T13:52:11Z</time>
      </trkpt>
      <trkpt lat="45.03157" lon="2.58859">
        <ele>808.6</ele>
        <time>2021-08-22T13:52:13Z</time>
      </trkpt>
      <trkpt lat="45.03161" lon="2.58865">
        <ele>808.8</ele>
        <time>2021-08-22T13:52:15Z</time>
      </trkpt>
      <trkpt lat="45.03164" lon="2.58872">
        <ele>809.2</ele>
        <time>2021-08-22T13:52:17Z</time>
      </trkpt>
      <trkpt lat="45.03168" lon="2.58879">
        <ele>809.6</ele>
        <time>2021-08-22T13:52:19Z</time>
      </trkpt>
      <trkpt lat="45.03171" lon="2.58886">
        <ele>810.1</ele>
        <time>2021-08-22T13:52:21Z</time>
      </trkpt>
      <trkpt lat="45.03174" lon="2.58893">
        <ele>810.4</ele>
        <time>2021-08-22T13:52:23Z</time>
      </trkpt>
      <trkpt lat="45.03177" lon="2.589">
        <ele>810.7</ele>
        <time>2021-08-22T13:52:25Z</time>
      </trkpt>
      <trkpt lat="45.0318" lon="2.58907">
        <ele>810.9</ele>
        <time>2021-08-22T13:52:27Z</time>
      </trkpt>
      <trkpt lat="45.03184" lon="2.58913">
        <ele>811.1</ele>
        <time>2021-08-22T13:52:29Z</time>
      </trkpt>
      <trkpt lat="45.03187" lon="2.5892">
        <ele>811.4</ele>
        <time>2021-08-22T13:52:31Z</time>
      </trkpt>
      <trkpt lat="45.03191" lon="2.58927">
        <ele>811.2</ele>
        <time>2021-08-22T13:52:33Z</time>
      </trkpt>
      <trkpt lat="45.03194" lon="2.58934">
        <ele>811.6</ele>
        <time>2021-08-22T13:52:35Z</time>
      </trkpt>
      <trkpt lat="45.03197" lon="2.58941">
        <ele>812.1</ele>
        <time>2021-08-22T13:52:37Z</time>
      </trkpt>
      <trkpt lat="45.03201" lon="2.58948">
        <ele>812.3</ele>
        <time>2021-08-22T13:52:39Z</time>
      </trkpt>
      <trkpt lat="45.03203" lon="2.58955">
        <ele>812.7</ele>
        <time>2021-08-22T13:52:41Z</time>
      </trkpt>
      <trkpt lat="45.03206" lon="2.58961">
        <ele>813.1</ele>
        <time>2021-08-22T13:52:43Z</time>
      </trkpt>
      <trkpt lat="45.0321" lon="2.58967">
        <ele>813</ele>
        <time>2021-08-22T13:52:45Z</time>
      </trkpt>
      <trkpt lat="45.03213" lon="2.58974">
        <ele>813.5</ele>
        <time>2021-08-22T13:52:47Z</time>
      </trkpt>
      <trkpt lat="45.03216" lon="2.58981">
        <ele>813.7</ele>
        <time>2021-08-22T13:52:49Z</time>
      </trkpt>
      <trkpt lat="45.03219" lon="2.58988">
        <ele>814.1</ele>
        <time>2021-08-22T13:52:51Z</time>
      </trkpt>
      <trkpt lat="45.03223" lon="2.58995">
        <ele>814.3</ele>
        <time>2021-08-22T13:52:53Z</time>
      </trkpt>
      <trkpt lat="45.03227" lon="2.59001">
        <ele>814.3</ele>
        <time>2021-08-22T13:52:55Z</time>
      </trkpt>
      <trkpt lat="45.0323" lon="2.59008">
        <ele>814.6</ele>
        <time>2021-08-22T13:52:57Z</time>
      </trkpt>
      <trkpt lat="45.03233" lon="2.59015">
        <ele>814.7</ele>
        <time>2021-08-22T13:52:59Z</time>
      </trkpt>
      <trkpt lat="45.03237" lon="2.59022">
        <ele>814.8</ele>
        <time>2021-08-22T13:53:01Z</time>
      </trkpt>
      <trkpt lat="45.0324" lon="2.59029">
        <ele>814.7</ele>
        <time>2021-08-22T13:53:03Z</time>
      </trkpt>
      <trkpt lat="45.03244" lon="2.59035">
        <ele>814.3</ele>
        <time>2021-08-22T13:53:05Z</time>
      </trkpt>
      <trkpt lat="45.03249" lon="2.59041">
        <ele>813.9</ele>
        <time>2021-08-22T13:53:07Z</time>
      </trkpt>
      <trkpt lat="45.03252" lon="2.59047">
        <ele>813.8</ele>
        <time>2021-08-22T13:53:09Z</time>
      </trkpt>
      <trkpt lat="45.03256" lon="2.59052">
        <ele>813.6</ele>
        <time>2021-08-22T13:53:11Z</time>
      </trkpt>
      <trkpt lat="45.03261" lon="2.59058">
        <ele>813.4</ele>
        <time>2021-08-22T13:53:13Z</time>
      </trkpt>
      <trkpt lat="45.03265" lon="2.59063">
        <ele>812.9</ele>
        <time>2021-08-22T13:53:15Z</time>
      </trkpt>
      <trkpt lat="45.03269" lon="2.59068">
        <ele>812.6</ele>
        <time>2021-08-22T13:53:17Z</time>
      </trkpt>
      <trkpt lat="45.03274" lon="2.59074">
        <ele>811.9</ele>
        <time>2021-08-22T13:53:19Z</time>
      </trkpt>
      <trkpt lat="45.03279" lon="2.59078">
        <ele>811.2</ele>
        <time>2021-08-22T13:53:21Z</time>
      </trkpt>
      <trkpt lat="45.03284" lon="2.59084">
        <ele>810.8</ele>
        <time>2021-08-22T13:53:23Z</time>
      </trkpt>
      <trkpt lat="45.03288" lon="2.59089">
        <ele>810</ele>
        <time>2021-08-22T13:53:25Z</time>
      </trkpt>
      <trkpt lat="45.03292" lon="2.59095">
        <ele>809.6</ele>
        <time>2021-08-22T13:53:27Z</time>
      </trkpt>
      <trkpt lat="45.03296" lon="2.591">
        <ele>809.1</ele>
        <time>2021-08-22T13:53:29Z</time>
      </trkpt>
      <trkpt lat="45.03301" lon="2.59105">
        <ele>808.4</ele>
        <time>2021-08-22T13:53:31Z</time>
      </trkpt>
      <trkpt lat="45.03305" lon="2.59111">
        <ele>807.9</ele>
        <time>2021-08-22T13:53:33Z</time>
      </trkpt>
      <trkpt lat="45.0331" lon="2.59117">
        <ele>807.6</ele>
        <time>2021-08-22T13:53:35Z</time>
      </trkpt>
      <trkpt lat="45.03314" lon="2.59123">
        <ele>807.3</ele>
        <time>2021-08-22T13:53:37Z</time>
      </trkpt>
      <trkpt lat="45.03317" lon="2.5913">
        <ele>807.4</ele>
        <time>2021-08-22T13:53:39Z</time>
      </trkpt>
      <trkpt lat="45.03321" lon="2.59137">
        <ele>807.5</ele>
        <time>2021-08-22T13:53:41Z</time>
      </trkpt>
      <trkpt lat="45.03325" lon="2.59145">
        <ele>807.6</ele>
        <time>2021-08-22T13:53:43Z</time>
      </trkpt>
      <trkpt lat="45.03328" lon="2.59152">
        <ele>808</ele>
        <time>2021-08-22T13:53:45Z</time>
      </trkpt>
      <trkpt lat="45.03331" lon="2.5916">
        <ele>808.6</ele>
        <time>2021-08-22T13:53:47Z</time>
      </trkpt>
      <trkpt lat="45.03333" lon="2.59167">
        <ele>809</ele>
        <time>2021-08-22T13:53:49Z</time>
      </trkpt>
      <trkpt lat="45.03335" lon="2.59174">
        <ele>808.9</ele>
        <time>2021-08-22T13:53:51Z</time>
      </trkpt>
      <trkpt lat="45.03337" lon="2.59182">
        <ele>808.8</ele>
        <time>2021-08-22T13:53:53Z</time>
      </trkpt>
      <trkpt lat="45.03338" lon="2.59189">
        <ele>808.9</ele>
        <time>2021-08-22T13:53:55Z</time>
      </trkpt>
      <trkpt lat="45.03341" lon="2.59197">
        <ele>808.8</ele>
        <time>2021-08-22T13:53:57Z</time>
      </trkpt>
      <trkpt lat="45.03343" lon="2.59204">
        <ele>808.8</ele>
        <time>2021-08-22T13:53:59Z</time>
      </trkpt>
      <trkpt lat="45.03346" lon="2.59211">
        <ele>808.8</ele>
        <time>2021-08-22T13:54:01Z</time>
      </trkpt>
      <trkpt lat="45.03348" lon="2.59217">
        <ele>808.8</ele>
        <time>2021-08-22T13:54:03Z</time>
      </trkpt>
      <trkpt lat="45.03351" lon="2.59224">
        <ele>808.9</ele>
        <time>2021-08-22T13:54:05Z</time>
      </trkpt>
      <trkpt lat="45.03354" lon="2.59231">
        <ele>809</ele>
        <time>2021-08-22T13:54:07Z</time>
      </trkpt>
      <trkpt lat="45.03358" lon="2.59237">
        <ele>809.2</ele>
        <time>2021-08-22T13:54:09Z</time>
      </trkpt>
      <trkpt lat="45.03361" lon="2.59243">
        <ele>809.4</ele>
        <time>2021-08-22T13:54:11Z</time>
      </trkpt>
      <trkpt lat="45.03365" lon="2.59248">
        <ele>809.6</ele>
        <time>2021-08-22T13:54:13Z</time>
      </trkpt>
      <trkpt lat="45.03369" lon="2.59254">
        <ele>809.9</ele>
        <time>2021-08-22T13:54:15Z</time>
      </trkpt>
      <trkpt lat="45.03373" lon="2.59259">
        <ele>810.2</ele>
        <time>2021-08-22T13:54:17Z</time>
      </trkpt>
      <trkpt lat="45.03377" lon="2.59264">
        <ele>810.5</ele>
        <time>2021-08-22T13:54:19Z</time>
      </trkpt>
      <trkpt lat="45.03381" lon="2.59268">
        <ele>810.9</ele>
        <time>2021-08-22T13:54:21Z</time>
      </trkpt>
      <trkpt lat="45.03385" lon="2.59273">
        <ele>811.4</ele>
        <time>2021-08-22T13:54:23Z</time>
      </trkpt>
      <trkpt lat="45.03389" lon="2.59278">
        <ele>811.9</ele>
        <time>2021-08-22T13:54:25Z</time>
      </trkpt>
      <trkpt lat="45.03393" lon="2.59283">
        <ele>812.5</ele>
        <time>2021-08-22T13:54:27Z</time>
      </trkpt>
      <trkpt lat="45.03397" lon="2.59288">
        <ele>813.1</ele>
        <time>2021-08-22T13:54:29Z</time>
      </trkpt>
      <trkpt lat="45.03402" lon="2.59292">
        <ele>813.8</ele>
        <time>2021-08-22T13:54:31Z</time>
      </trkpt>
      <trkpt lat="45.03406" lon="2.59297">
        <ele>814.6</ele>
        <time>2021-08-22T13:54:33Z</time>
      </trkpt>
      <trkpt lat="45.0341" lon="2.59303">
        <ele>815.5</ele>
        <time>2021-08-22T13:54:35Z</time>
      </trkpt>
      <trkpt lat="45.03415" lon="2.59308">
        <ele>816.4</ele>
        <time>2021-08-22T13:54:37Z</time>
      </trkpt>
      <trkpt lat="45.03419" lon="2.59313">
        <ele>817.2</ele>
        <time>2021-08-22T13:54:39Z</time>
      </trkpt>
      <trkpt lat="45.03424" lon="2.59319">
        <ele>817.9</ele>
        <time>2021-08-22T13:54:41Z</time>
      </trkpt>
      <trkpt lat="45.03429" lon="2.59325">
        <ele>818.6</ele>
        <time>2021-08-22T13:54:43Z</time>
      </trkpt>
      <trkpt lat="45.03434" lon="2.5933">
        <ele>819.3</ele>
        <time>2021-08-22T13:54:45Z</time>
      </trkpt>
      <trkpt lat="45.03439" lon="2.59336">
        <ele>819.7</ele>
        <time>2021-08-22T13:54:47Z</time>
      </trkpt>
      <trkpt lat="45.03444" lon="2.59342">
        <ele>820.1</ele>
        <time>2021-08-22T13:54:49Z</time>
      </trkpt>
      <trkpt lat="45.03449" lon="2.59348">
        <ele>820.4</ele>
        <time>2021-08-22T13:54:51Z</time>
      </trkpt>
      <trkpt lat="45.03455" lon="2.59354">
        <ele>820.7</ele>
        <time>2021-08-22T13:54:53Z</time>
      </trkpt>
      <trkpt lat="45.0346" lon="2.5936">
        <ele>821.1</ele>
        <time>2021-08-22T13:54:55Z</time>
      </trkpt>
      <trkpt lat="45.03465" lon="2.59366">
        <ele>821.4</ele>
        <time>2021-08-22T13:54:57Z</time>
      </trkpt>
      <trkpt lat="45.03471" lon="2.59372">
        <ele>821.7</ele>
        <time>2021-08-22T13:54:59Z</time>
      </trkpt>
      <trkpt lat="45.03476" lon="2.59378">
        <ele>822.1</ele>
        <time>2021-08-22T13:55:01Z</time>
      </trkpt>
      <trkpt lat="45.03482" lon="2.59385">
        <ele>822.5</ele>
        <time>2021-08-22T13:55:03Z</time>
      </trkpt>
      <trkpt lat="45.03487" lon="2.59391">
        <ele>822.8</ele>
        <time>2021-08-22T13:55:05Z</time>
      </trkpt>
      <trkpt lat="45.03493" lon="2.59397">
        <ele>823.2</ele>
        <time>2021-08-22T13:55:07Z</time>
      </trkpt>
      <trkpt lat="45.03498" lon="2.59404">
        <ele>823.6</ele>
        <time>2021-08-22T13:55:09Z</time>
      </trkpt>
      <trkpt lat="45.03504" lon="2.59411">
        <ele>823.3</ele>
        <time>2021-08-22T13:55:11Z</time>
      </trkpt>
      <trkpt lat="45.03509" lon="2.59417">
        <ele>822.7</ele>
        <time>2021-08-22T13:55:13Z</time>
      </trkpt>
      <trkpt lat="45.03515" lon="2.59423">
        <ele>822.3</ele>
        <time>2021-08-22T13:55:15Z</time>
      </trkpt>
      <trkpt lat="45.0352" lon="2.5943">
        <ele>822.3</ele>
        <time>2021-08-22T13:55:17Z</time>
      </trkpt>
      <trkpt lat="45.03526" lon="2.59436">
        <ele>821.9</ele>
        <time>2021-08-22T13:55:19Z</time>
      </trkpt>
      <trkpt lat="45.03532" lon="2.59443">
        <ele>821.8</ele>
        <time>2021-08-22T13:55:21Z</time>
      </trkpt>
      <trkpt lat="45.03538" lon="2.5945">
        <ele>821.5</ele>
        <time>2021-08-22T13:55:23Z</time>
      </trkpt>
      <trkpt lat="45.03544" lon="2.59457">
        <ele>821.2</ele>
        <time>2021-08-22T13:55:25Z</time>
      </trkpt>
      <trkpt lat="45.03549" lon="2.59464">
        <ele>821.1</ele>
        <time>2021-08-22T13:55:27Z</time>
      </trkpt>
      <trkpt lat="45.03555" lon="2.5947">
        <ele>820.8</ele>
        <time>2021-08-22T13:55:29Z</time>
      </trkpt>
      <trkpt lat="45.0356" lon="2.59477">
        <ele>820.7</ele>
        <time>2021-08-22T13:55:31Z</time>
      </trkpt>
      <trkpt lat="45.03567" lon="2.59483">
        <ele>820.2</ele>
        <time>2021-08-22T13:55:33Z</time>
      </trkpt>
      <trkpt lat="45.03572" lon="2.59491">
        <ele>820.3</ele>
        <time>2021-08-22T13:55:35Z</time>
      </trkpt>
      <trkpt lat="45.03578" lon="2.59498">
        <ele>820</ele>
        <time>2021-08-22T13:55:37Z</time>
      </trkpt>
      <trkpt lat="45.03584" lon="2.59505">
        <ele>819.9</ele>
        <time>2021-08-22T13:55:39Z</time>
      </trkpt>
      <trkpt lat="45.0359" lon="2.59512">
        <ele>820.4</ele>
        <time>2021-08-22T13:55:41Z</time>
      </trkpt>
      <trkpt lat="45.03596" lon="2.59518">
        <ele>820.7</ele>
        <time>2021-08-22T13:55:43Z</time>
      </trkpt>
      <trkpt lat="45.03602" lon="2.59526">
        <ele>821.3</ele>
        <time>2021-08-22T13:55:45Z</time>
      </trkpt>
      <trkpt lat="45.03608" lon="2.59533">
        <ele>821.8</ele>
        <time>2021-08-22T13:55:47Z</time>
      </trkpt>
      <trkpt lat="45.03614" lon="2.5954">
        <ele>822.3</ele>
        <time>2021-08-22T13:55:49Z</time>
      </trkpt>
      <trkpt lat="45.0362" lon="2.59547">
        <ele>822.8</ele>
        <time>2021-08-22T13:55:51Z</time>
      </trkpt>
      <trkpt lat="45.03626" lon="2.59554">
        <ele>823.4</ele>
        <time>2021-08-22T13:55:53Z</time>
      </trkpt>
      <trkpt lat="45.03631" lon="2.59562">
        <ele>824.1</ele>
        <time>2021-08-22T13:55:55Z</time>
      </trkpt>
      <trkpt lat="45.03636" lon="2.5957">
        <ele>824.9</ele>
        <time>2021-08-22T13:55:57Z</time>
      </trkpt>
      <trkpt lat="45.03642" lon="2.59576">
        <ele>825.2</ele>
        <time>2021-08-22T13:55:59Z</time>
      </trkpt>
      <trkpt lat="45.03649" lon="2.59582">
        <ele>825.3</ele>
        <time>2021-08-22T13:56:01Z</time>
      </trkpt>
      <trkpt lat="45.03655" lon="2.59589">
        <ele>825.9</ele>
        <time>2021-08-22T13:56:03Z</time>
      </trkpt>
      <trkpt lat="45.03661" lon="2.59595">
        <ele>826.2</ele>
        <time>2021-08-22T13:56:05Z</time>
      </trkpt>
      <trkpt lat="45.03667" lon="2.59602">
        <ele>826.6</ele>
        <time>2021-08-22T13:56:07Z</time>
      </trkpt>
      <trkpt lat="45.03674" lon="2.59608">
        <ele>826.7</ele>
        <time>2021-08-22T13:56:09Z</time>
      </trkpt>
      <trkpt lat="45.0368" lon="2.59613">
        <ele>826.8</ele>
        <time>2021-08-22T13:56:11Z</time>
      </trkpt>
      <trkpt lat="45.03687" lon="2.59619">
        <ele>826.8</ele>
        <time>2021-08-22T13:56:13Z</time>
      </trkpt>
      <trkpt lat="45.03694" lon="2.59625">
        <ele>826.8</ele>
        <time>2021-08-22T13:56:15Z</time>
      </trkpt>
      <trkpt lat="45.03701" lon="2.59632">
        <ele>826.9</ele>
        <time>2021-08-22T13:56:17Z</time>
      </trkpt>
      <trkpt lat="45.03708" lon="2.59638">
        <ele>827</ele>
        <time>2021-08-22T13:56:19Z</time>
      </trkpt>
      <trkpt lat="45.03715" lon="2.59644">
        <ele>826.7</ele>
        <time>2021-08-22T13:56:21Z</time>
      </trkpt>
      <trkpt lat="45.03722" lon="2.5965">
        <ele>826.6</ele>
        <time>2021-08-22T13:56:23Z</time>
      </trkpt>
      <trkpt lat="45.0373" lon="2.59657">
        <ele>826.5</ele>
        <time>2021-08-22T13:56:25Z</time>
      </trkpt>
      <trkpt lat="45.03737" lon="2.59663">
        <ele>826</ele>
        <time>2021-08-22T13:56:27Z</time>
      </trkpt>
      <trkpt lat="45.03745" lon="2.59669">
        <ele>825.8</ele>
        <time>2021-08-22T13:56:29Z</time>
      </trkpt>
      <trkpt lat="45.03752" lon="2.59675">
        <ele>825.7</ele>
        <time>2021-08-22T13:56:31Z</time>
      </trkpt>
      <trkpt lat="45.03759" lon="2.59682">
        <ele>826</ele>
        <time>2021-08-22T13:56:33Z</time>
      </trkpt>
      <trkpt lat="45.03767" lon="2.59689">
        <ele>826.4</ele>
        <time>2021-08-22T13:56:35Z</time>
      </trkpt>
      <trkpt lat="45.03773" lon="2.59698">
        <ele>826.9</ele>
        <time>2021-08-22T13:56:37Z</time>
      </trkpt>
      <trkpt lat="45.03779" lon="2.59707">
        <ele>827.5</ele>
        <time>2021-08-22T13:56:39Z</time>
      </trkpt>
      <trkpt lat="45.03784" lon="2.59718">
        <ele>828.3</ele>
        <time>2021-08-22T13:56:41Z</time>
      </trkpt>
      <trkpt lat="45.03789" lon="2.59729">
        <ele>829.1</ele>
        <time>2021-08-22T13:56:43Z</time>
      </trkpt>
      <trkpt lat="45.03793" lon="2.59741">
        <ele>830</ele>
        <time>2021-08-22T13:56:45Z</time>
      </trkpt>
      <trkpt lat="45.03797" lon="2.59752">
        <ele>830.4</ele>
        <time>2021-08-22T13:56:47Z</time>
      </trkpt>
      <trkpt lat="45.03801" lon="2.59763">
        <ele>830.1</ele>
        <time>2021-08-22T13:56:49Z</time>
      </trkpt>
      <trkpt lat="45.03805" lon="2.59775">
        <ele>830</ele>
        <time>2021-08-22T13:56:51Z</time>
      </trkpt>
      <trkpt lat="45.03809" lon="2.59785">
        <ele>829.5</ele>
        <time>2021-08-22T13:56:53Z</time>
      </trkpt>
      <trkpt lat="45.03812" lon="2.59795">
        <ele>829.3</ele>
        <time>2021-08-22T13:56:55Z</time>
      </trkpt>
      <trkpt lat="45.03817" lon="2.59805">
        <ele>828.7</ele>
        <time>2021-08-22T13:56:57Z</time>
      </trkpt>
      <trkpt lat="45.03821" lon="2.59814">
        <ele>828.3</ele>
        <time>2021-08-22T13:56:59Z</time>
      </trkpt>
      <trkpt lat="45.03825" lon="2.59823">
        <ele>827.6</ele>
        <time>2021-08-22T13:57:01Z</time>
      </trkpt>
      <trkpt lat="45.03831" lon="2.5983">
        <ele>826.5</ele>
        <time>2021-08-22T13:57:03Z</time>
      </trkpt>
      <trkpt lat="45.03837" lon="2.59836">
        <ele>826.3</ele>
        <time>2021-08-22T13:57:05Z</time>
      </trkpt>
      <trkpt lat="45.03844" lon="2.59843">
        <ele>827</ele>
        <time>2021-08-22T13:57:07Z</time>
      </trkpt>
      <trkpt lat="45.0385" lon="2.59848">
        <ele>827.6</ele>
        <time>2021-08-22T13:57:09Z</time>
      </trkpt>
      <trkpt lat="45.03857" lon="2.59853">
        <ele>828.2</ele>
        <time>2021-08-22T13:57:11Z</time>
      </trkpt>
      <trkpt lat="45.03863" lon="2.59856">
        <ele>828.6</ele>
        <time>2021-08-22T13:57:13Z</time>
      </trkpt>
      <trkpt lat="45.03869" lon="2.59859">
        <ele>829</ele>
        <time>2021-08-22T13:57:15Z</time>
      </trkpt>
      <trkpt lat="45.03875" lon="2.59861">
        <ele>829.3</ele>
        <time>2021-08-22T13:57:17Z</time>
      </trkpt>
      <trkpt lat="45.03882" lon="2.59862">
        <ele>829.5</ele>
        <time>2021-08-22T13:57:19Z</time>
      </trkpt>
      <trkpt lat="45.03888" lon="2.59863">
        <ele>829.6</ele>
        <time>2021-08-22T13:57:21Z</time>
      </trkpt>
      <trkpt lat="45.03895" lon="2.59865">
        <ele>829.9</ele>
        <time>2021-08-22T13:57:23Z</time>
      </trkpt>
      <trkpt lat="45.03902" lon="2.59866">
        <ele>830.1</ele>
        <time>2021-08-22T13:57:25Z</time>
      </trkpt>
      <trkpt lat="45.03908" lon="2.59867">
        <ele>830.2</ele>
        <time>2021-08-22T13:57:27Z</time>
      </trkpt>
      <trkpt lat="45.03915" lon="2.59868">
        <ele>830.4</ele>
        <time>2021-08-22T13:57:29Z</time>
      </trkpt>
      <trkpt lat="45.03922" lon="2.59868">
        <ele>829.8</ele>
        <time>2021-08-22T13:57:31Z</time>
      </trkpt>
      <trkpt lat="45.03929" lon="2.59869">
        <ele>828.8</ele>
        <time>2021-08-22T13:57:33Z</time>
      </trkpt>
      <trkpt lat="45.03935" lon="2.59869">
        <ele>828</ele>
        <time>2021-08-22T13:57:35Z</time>
      </trkpt>
      <trkpt lat="45.03941" lon="2.59872">
        <ele>827.7</ele>
        <time>2021-08-22T13:57:37Z</time>
      </trkpt>
      <trkpt lat="45.03947" lon="2.59874">
        <ele>827.1</ele>
        <time>2021-08-22T13:57:39Z</time>
      </trkpt>
      <trkpt lat="45.03954" lon="2.59877">
        <ele>826.9</ele>
        <time>2021-08-22T13:57:41Z</time>
      </trkpt>
      <trkpt lat="45.0396" lon="2.5988">
        <ele>826.6</ele>
        <time>2021-08-22T13:57:43Z</time>
      </trkpt>
      <trkpt lat="45.03966" lon="2.59883">
        <ele>826.4</ele>
        <time>2021-08-22T13:57:45Z</time>
      </trkpt>
      <trkpt lat="45.03971" lon="2.59887">
        <ele>826.3</ele>
        <time>2021-08-22T13:57:47Z</time>
      </trkpt>
      <trkpt lat="45.03977" lon="2.59891">
        <ele>826.3</ele>
        <time>2021-08-22T13:57:49Z</time>
      </trkpt>
      <trkpt lat="45.03983" lon="2.59895">
        <ele>826.3</ele>
        <time>2021-08-22T13:57:51Z</time>
      </trkpt>
      <trkpt lat="45.03989" lon="2.59901">
        <ele>826.5</ele>
        <time>2021-08-22T13:57:53Z</time>
      </trkpt>
      <trkpt lat="45.03994" lon="2.59906">
        <ele>826.6</ele>
        <time>2021-08-22T13:57:55Z</time>
      </trkpt>
      <trkpt lat="45.04" lon="2.59911">
        <ele>826.9</ele>
        <time>2021-08-22T13:57:57Z</time>
      </trkpt>
      <trkpt lat="45.04004" lon="2.59918">
        <ele>827.7</ele>
        <time>2021-08-22T13:57:59Z</time>
      </trkpt>
      <trkpt lat="45.04009" lon="2.59925">
        <ele>828.8</ele>
        <time>2021-08-22T13:58:01Z</time>
      </trkpt>
      <trkpt lat="45.04014" lon="2.59932">
        <ele>829.9</ele>
        <time>2021-08-22T13:58:03Z</time>
      </trkpt>
      <trkpt lat="45.04018" lon="2.59939">
        <ele>830.9</ele>
        <time>2021-08-22T13:58:05Z</time>
      </trkpt>
      <trkpt lat="45.04022" lon="2.59947">
        <ele>832.2</ele>
        <time>2021-08-22T13:58:07Z</time>
      </trkpt>
      <trkpt lat="45.04026" lon="2.59955">
        <ele>833.4</ele>
        <time>2021-08-22T13:58:09Z</time>
      </trkpt>
      <trkpt lat="45.0403" lon="2.59962">
        <ele>834</ele>
        <time>2021-08-22T13:58:11Z</time>
      </trkpt>
      <trkpt lat="45.04035" lon="2.5997">
        <ele>834.9</ele>
        <time>2021-08-22T13:58:13Z</time>
      </trkpt>
      <trkpt lat="45.0404" lon="2.59977">
        <ele>835.3</ele>
        <time>2021-08-22T13:58:15Z</time>
      </trkpt>
      <trkpt lat="45.04044" lon="2.59984">
        <ele>835.7</ele>
        <time>2021-08-22T13:58:17Z</time>
      </trkpt>
      <trkpt lat="45.04049" lon="2.59991">
        <ele>836</ele>
        <time>2021-08-22T13:58:19Z</time>
      </trkpt>
      <trkpt lat="45.04054" lon="2.59999">
        <ele>836.1</ele>
        <time>2021-08-22T13:58:21Z</time>
      </trkpt>
      <trkpt lat="45.04059" lon="2.60006">
        <ele>836.5</ele>
        <time>2021-08-22T13:58:23Z</time>
      </trkpt>
      <trkpt lat="45.04064" lon="2.60014">
        <ele>836.7</ele>
        <time>2021-08-22T13:58:25Z</time>
      </trkpt>
      <trkpt lat="45.04069" lon="2.60021">
        <ele>836.9</ele>
        <time>2021-08-22T13:58:27Z</time>
      </trkpt>
      <trkpt lat="45.04074" lon="2.60027">
        <ele>836.9</ele>
        <time>2021-08-22T13:58:29Z</time>
      </trkpt>
      <trkpt lat="45.04078" lon="2.60034">
        <ele>837.1</ele>
        <time>2021-08-22T13:58:31Z</time>
      </trkpt>
      <trkpt lat="45.04082" lon="2.60042">
        <ele>837.3</ele>
        <time>2021-08-22T13:58:33Z</time>
      </trkpt>
      <trkpt lat="45.04087" lon="2.60049">
        <ele>837.4</ele>
        <time>2021-08-22T13:58:35Z</time>
      </trkpt>
      <trkpt lat="45.04091" lon="2.60055">
        <ele>837.1</ele>
        <time>2021-08-22T13:58:37Z</time>
      </trkpt>
      <trkpt lat="45.04096" lon="2.60063">
        <ele>837.3</ele>
        <time>2021-08-22T13:58:39Z</time>
      </trkpt>
      <trkpt lat="45.04099" lon="2.60071">
        <ele>837.7</ele>
        <time>2021-08-22T13:58:41Z</time>
      </trkpt>
      <trkpt lat="45.04103" lon="2.60079">
        <ele>837.8</ele>
        <time>2021-08-22T13:58:43Z</time>
      </trkpt>
      <trkpt lat="45.04107" lon="2.60088">
        <ele>838.3</ele>
        <time>2021-08-22T13:58:45Z</time>
      </trkpt>
      <trkpt lat="45.0411" lon="2.60096">
        <ele>839.3</ele>
        <time>2021-08-22T13:58:47Z</time>
      </trkpt>
      <trkpt lat="45.04114" lon="2.60105">
        <ele>840.2</ele>
        <time>2021-08-22T13:58:49Z</time>
      </trkpt>
      <trkpt lat="45.04117" lon="2.60113">
        <ele>841.1</ele>
        <time>2021-08-22T13:58:51Z</time>
      </trkpt>
      <trkpt lat="45.04121" lon="2.60122">
        <ele>841.8</ele>
        <time>2021-08-22T13:58:53Z</time>
      </trkpt>
      <trkpt lat="45.04124" lon="2.6013">
        <ele>842.4</ele>
        <time>2021-08-22T13:58:55Z</time>
      </trkpt>
      <trkpt lat="45.04128" lon="2.60139">
        <ele>843.1</ele>
        <time>2021-08-22T13:58:57Z</time>
      </trkpt>
      <trkpt lat="45.04132" lon="2.60147">
        <ele>843.8</ele>
        <time>2021-08-22T13:58:59Z</time>
      </trkpt>
      <trkpt lat="45.04135" lon="2.60156">
        <ele>844.4</ele>
        <time>2021-08-22T13:59:01Z</time>
      </trkpt>
      <trkpt lat="45.04139" lon="2.60164">
        <ele>844.7</ele>
        <time>2021-08-22T13:59:03Z</time>
      </trkpt>
      <trkpt lat="45.04142" lon="2.60172">
        <ele>844.7</ele>
        <time>2021-08-22T13:59:05Z</time>
      </trkpt>
      <trkpt lat="45.04146" lon="2.60181">
        <ele>844.4</ele>
        <time>2021-08-22T13:59:07Z</time>
      </trkpt>
      <trkpt lat="45.04149" lon="2.60189">
        <ele>844</ele>
        <time>2021-08-22T13:59:09Z</time>
      </trkpt>
      <trkpt lat="45.04153" lon="2.60197">
        <ele>843.6</ele>
        <time>2021-08-22T13:59:11Z</time>
      </trkpt>
      <trkpt lat="45.04156" lon="2.60205">
        <ele>843.3</ele>
        <time>2021-08-22T13:59:13Z</time>
      </trkpt>
      <trkpt lat="45.0416" lon="2.60214">
        <ele>843.1</ele>
        <time>2021-08-22T13:59:15Z</time>
      </trkpt>
      <trkpt lat="45.04163" lon="2.60222">
        <ele>842.8</ele>
        <time>2021-08-22T13:59:17Z</time>
      </trkpt>
      <trkpt lat="45.04167" lon="2.6023">
        <ele>842.3</ele>
        <time>2021-08-22T13:59:19Z</time>
      </trkpt>
      <trkpt lat="45.0417" lon="2.60239">
        <ele>842.3</ele>
        <time>2021-08-22T13:59:21Z</time>
      </trkpt>
      <trkpt lat="45.04174" lon="2.60247">
        <ele>842.2</ele>
        <time>2021-08-22T13:59:23Z</time>
      </trkpt>
      <trkpt lat="45.04177" lon="2.60256">
        <ele>842</ele>
        <time>2021-08-22T13:59:25Z</time>
      </trkpt>
      <trkpt lat="45.04181" lon="2.60265">
        <ele>841.4</ele>
        <time>2021-08-22T13:59:27Z</time>
      </trkpt>
      <trkpt lat="45.04185" lon="2.60273">
        <ele>841.1</ele>
        <time>2021-08-22T13:59:29Z</time>
      </trkpt>
      <trkpt lat="45.04189" lon="2.60281">
        <ele>840.6</ele>
        <time>2021-08-22T13:59:31Z</time>
      </trkpt>
      <trkpt lat="45.04192" lon="2.6029">
        <ele>840.6</ele>
        <time>2021-08-22T13:59:33Z</time>
      </trkpt>
      <trkpt lat="45.04195" lon="2.60298">
        <ele>840.4</ele>
        <time>2021-08-22T13:59:35Z</time>
      </trkpt>
      <trkpt lat="45.04199" lon="2.60307">
        <ele>840.3</ele>
        <time>2021-08-22T13:59:37Z</time>
      </trkpt>
      <trkpt lat="45.04203" lon="2.60315">
        <ele>840.2</ele>
        <time>2021-08-22T13:59:39Z</time>
      </trkpt>
      <trkpt lat="45.04207" lon="2.60323">
        <ele>840.3</ele>
        <time>2021-08-22T13:59:41Z</time>
      </trkpt>
      <trkpt lat="45.0421" lon="2.60332">
        <ele>840.4</ele>
        <time>2021-08-22T13:59:43Z</time>
      </trkpt>
      <trkpt lat="45.04213" lon="2.60339">
        <ele>840.8</ele>
        <time>2021-08-22T13:59:45Z</time>
      </trkpt>
      <trkpt lat="45.04217" lon="2.60347">
        <ele>841.2</ele>
        <time>2021-08-22T13:59:47Z</time>
      </trkpt>
      <trkpt lat="45.0422" lon="2.60354">
        <ele>841.3</ele>
        <time>2021-08-22T13:59:49Z</time>
      </trkpt>
      <trkpt lat="45.04225" lon="2.60361">
        <ele>841.3</ele>
        <time>2021-08-22T13:59:51Z</time>
      </trkpt>
      <trkpt lat="45.0423" lon="2.60367">
        <ele>841.2</ele>
        <time>2021-08-22T13:59:53Z</time>
      </trkpt>
      <trkpt lat="45.04234" lon="2.60373">
        <ele>841.2</ele>
        <time>2021-08-22T13:59:55Z</time>
      </trkpt>
      <trkpt lat="45.04239" lon="2.60378">
        <ele>841</ele>
        <time>2021-08-22T13:59:57Z</time>
      </trkpt>
      <trkpt lat="45.04245" lon="2.60383">
        <ele>840.8</ele>
        <time>2021-08-22T13:59:59Z</time>
      </trkpt>
      <trkpt lat="45.0425" lon="2.60389">
        <ele>840.6</ele>
        <time>2021-08-22T14:00:01Z</time>
      </trkpt>
      <trkpt lat="45.04256" lon="2.60396">
        <ele>840.5</ele>
        <time>2021-08-22T14:00:03Z</time>
      </trkpt>
      <trkpt lat="45.04261" lon="2.60404">
        <ele>840.4</ele>
        <time>2021-08-22T14:00:05Z</time>
      </trkpt>
      <trkpt lat="45.04266" lon="2.60411">
        <ele>840.4</ele>
        <time>2021-08-22T14:00:07Z</time>
      </trkpt>
      <trkpt lat="45.0427" lon="2.60419">
        <ele>840.5</ele>
        <time>2021-08-22T14:00:09Z</time>
      </trkpt>
      <trkpt lat="45.04274" lon="2.60427">
        <ele>840.7</ele>
        <time>2021-08-22T14:00:11Z</time>
      </trkpt>
      <trkpt lat="45.04277" lon="2.60435">
        <ele>841</ele>
        <time>2021-08-22T14:00:13Z</time>
      </trkpt>
      <trkpt lat="45.04281" lon="2.60444">
        <ele>841.3</ele>
        <time>2021-08-22T14:00:15Z</time>
      </trkpt>
      <trkpt lat="45.04284" lon="2.60453">
        <ele>841.7</ele>
        <time>2021-08-22T14:00:17Z</time>
      </trkpt>
      <trkpt lat="45.04287" lon="2.60461">
        <ele>842.1</ele>
        <time>2021-08-22T14:00:19Z</time>
      </trkpt>
      <trkpt lat="45.0429" lon="2.6047">
        <ele>842.5</ele>
        <time>2021-08-22T14:00:21Z</time>
      </trkpt>
      <trkpt lat="45.04293" lon="2.60478">
        <ele>842.8</ele>
        <time>2021-08-22T14:00:23Z</time>
      </trkpt>
      <trkpt lat="45.04296" lon="2.60487">
        <ele>843</ele>
        <time>2021-08-22T14:00:25Z</time>
      </trkpt>
      <trkpt lat="45.04299" lon="2.60496">
        <ele>843.6</ele>
        <time>2021-08-22T14:00:27Z</time>
      </trkpt>
      <trkpt lat="45.04302" lon="2.60505">
        <ele>843.9</ele>
        <time>2021-08-22T14:00:29Z</time>
      </trkpt>
      <trkpt lat="45.04306" lon="2.60514">
        <ele>844</ele>
        <time>2021-08-22T14:00:31Z</time>
      </trkpt>
      <trkpt lat="45.04309" lon="2.60523">
        <ele>844.1</ele>
        <time>2021-08-22T14:00:33Z</time>
      </trkpt>
      <trkpt lat="45.04311" lon="2.60531">
        <ele>844.3</ele>
        <time>2021-08-22T14:00:35Z</time>
      </trkpt>
      <trkpt lat="45.04314" lon="2.6054">
        <ele>844.4</ele>
        <time>2021-08-22T14:00:37Z</time>
      </trkpt>
      <trkpt lat="45.04317" lon="2.60548">
        <ele>844.6</ele>
        <time>2021-08-22T14:00:39Z</time>
      </trkpt>
      <trkpt lat="45.04319" lon="2.60557">
        <ele>844.8</ele>
        <time>2021-08-22T14:00:41Z</time>
      </trkpt>
      <trkpt lat="45.04323" lon="2.60565">
        <ele>844.6</ele>
        <time>2021-08-22T14:00:43Z</time>
      </trkpt>
      <trkpt lat="45.04325" lon="2.60573">
        <ele>844.6</ele>
        <time>2021-08-22T14:00:45Z</time>
      </trkpt>
      <trkpt lat="45.04329" lon="2.60581">
        <ele>844.3</ele>
        <time>2021-08-22T14:00:47Z</time>
      </trkpt>
      <trkpt lat="45.04332" lon="2.60589">
        <ele>844</ele>
        <time>2021-08-22T14:00:49Z</time>
      </trkpt>
      <trkpt lat="45.04335" lon="2.60597">
        <ele>844.3</ele>
        <time>2021-08-22T14:00:51Z</time>
      </trkpt>
      <trkpt lat="45.04339" lon="2.60604">
        <ele>845.1</ele>
        <time>2021-08-22T14:00:53Z</time>
      </trkpt>
      <trkpt lat="45.04344" lon="2.60611">
        <ele>845.9</ele>
        <time>2021-08-22T14:00:55Z</time>
      </trkpt>
      <trkpt lat="45.04348" lon="2.60618">
        <ele>846.7</ele>
        <time>2021-08-22T14:00:57Z</time>
      </trkpt>
      <trkpt lat="45.04354" lon="2.60621">
        <ele>847.2</ele>
        <time>2021-08-22T14:00:59Z</time>
      </trkpt>
      <trkpt lat="45.04358" lon="2.60625">
        <ele>847.8</ele>
        <time>2021-08-22T14:01:01Z</time>
      </trkpt>
      <trkpt lat="45.04364" lon="2.60628">
        <ele>848.3</ele>
        <time>2021-08-22T14:01:03Z</time>
      </trkpt>
      <trkpt lat="45.04369" lon="2.6063">
        <ele>848.6</ele>
        <time>2021-08-22T14:01:05Z</time>
      </trkpt>
      <trkpt lat="45.04375" lon="2.60631">
        <ele>849</ele>
        <time>2021-08-22T14:01:07Z</time>
      </trkpt>
      <trkpt lat="45.04381" lon="2.60631">
        <ele>849.2</ele>
        <time>2021-08-22T14:01:09Z</time>
      </trkpt>
      <trkpt lat="45.04387" lon="2.60631">
        <ele>849.4</ele>
        <time>2021-08-22T14:01:11Z</time>
      </trkpt>
      <trkpt lat="45.04392" lon="2.6063">
        <ele>849.5</ele>
        <time>2021-08-22T14:01:13Z</time>
      </trkpt>
      <trkpt lat="45.04397" lon="2.60629">
        <ele>849.5</ele>
        <time>2021-08-22T14:01:15Z</time>
      </trkpt>
      <trkpt lat="45.04403" lon="2.60628">
        <ele>849.5</ele>
        <time>2021-08-22T14:01:17Z</time>
      </trkpt>
      <trkpt lat="45.04408" lon="2.60625">
        <ele>849.3</ele>
        <time>2021-08-22T14:01:19Z</time>
      </trkpt>
      <trkpt lat="45.04414" lon="2.60622">
        <ele>849</ele>
        <time>2021-08-22T14:01:21Z</time>
      </trkpt>
      <trkpt lat="45.04419" lon="2.60619">
        <ele>848.5</ele>
        <time>2021-08-22T14:01:23Z</time>
      </trkpt>
      <trkpt lat="45.04425" lon="2.60616">
        <ele>847.9</ele>
        <time>2021-08-22T14:01:25Z</time>
      </trkpt>
      <trkpt lat="45.04431" lon="2.60615">
        <ele>847.5</ele>
        <time>2021-08-22T14:01:27Z</time>
      </trkpt>
      <trkpt lat="45.04436" lon="2.60614">
        <ele>847.3</ele>
        <time>2021-08-22T14:01:29Z</time>
      </trkpt>
      <trkpt lat="45.04442" lon="2.60614">
        <ele>847.1</ele>
        <time>2021-08-22T14:01:31Z</time>
      </trkpt>
      <trkpt lat="45.04447" lon="2.60615">
        <ele>847.1</ele>
        <time>2021-08-22T14:01:33Z</time>
      </trkpt>
      <trkpt lat="45.04453" lon="2.60616">
        <ele>847.2</ele>
        <time>2021-08-22T14:01:35Z</time>
      </trkpt>
      <trkpt lat="45.04458" lon="2.60618">
        <ele>847.4</ele>
        <time>2021-08-22T14:01:37Z</time>
      </trkpt>
      <trkpt lat="45.04463" lon="2.60622">
        <ele>848</ele>
        <time>2021-08-22T14:01:39Z</time>
      </trkpt>
      <trkpt lat="45.04468" lon="2.60627">
        <ele>848.6</ele>
        <time>2021-08-22T14:01:41Z</time>
      </trkpt>
      <trkpt lat="45.04472" lon="2.60633">
        <ele>849.5</ele>
        <time>2021-08-22T14:01:43Z</time>
      </trkpt>
      <trkpt lat="45.04477" lon="2.60639">
        <ele>850.5</ele>
        <time>2021-08-22T14:01:45Z</time>
      </trkpt>
      <trkpt lat="45.04481" lon="2.60646">
        <ele>851.7</ele>
        <time>2021-08-22T14:01:47Z</time>
      </trkpt>
      <trkpt lat="45.04485" lon="2.60654">
        <ele>852.9</ele>
        <time>2021-08-22T14:01:49Z</time>
      </trkpt>
      <trkpt lat="45.04489" lon="2.60661">
        <ele>854.1</ele>
        <time>2021-08-22T14:01:51Z</time>
      </trkpt>
      <trkpt lat="45.04493" lon="2.60668">
        <ele>855.2</ele>
        <time>2021-08-22T14:01:53Z</time>
      </trkpt>
      <trkpt lat="45.04497" lon="2.60675">
        <ele>855.9</ele>
        <time>2021-08-22T14:01:55Z</time>
      </trkpt>
      <trkpt lat="45.04502" lon="2.60682">
        <ele>856.4</ele>
        <time>2021-08-22T14:01:57Z</time>
      </trkpt>
      <trkpt lat="45.04505" lon="2.6069">
        <ele>856.9</ele>
        <time>2021-08-22T14:01:59Z</time>
      </trkpt>
      <trkpt lat="45.04509" lon="2.60697">
        <ele>857.2</ele>
        <time>2021-08-22T14:02:01Z</time>
      </trkpt>
      <trkpt lat="45.04513" lon="2.60705">
        <ele>857.5</ele>
        <time>2021-08-22T14:02:03Z</time>
      </trkpt>
      <trkpt lat="45.04517" lon="2.60712">
        <ele>857.8</ele>
        <time>2021-08-22T14:02:05Z</time>
      </trkpt>
      <trkpt lat="45.0452" lon="2.60719">
        <ele>858</ele>
        <time>2021-08-22T14:02:07Z</time>
      </trkpt>
      <trkpt lat="45.04525" lon="2.60725">
        <ele>858.1</ele>
        <time>2021-08-22T14:02:09Z</time>
      </trkpt>
      <trkpt lat="45.04527" lon="2.60733">
        <ele>858.6</ele>
        <time>2021-08-22T14:02:11Z</time>
      </trkpt>
      <trkpt lat="45.04531" lon="2.60739">
        <ele>858.8</ele>
        <time>2021-08-22T14:02:13Z</time>
      </trkpt>
      <trkpt lat="45.04535" lon="2.60746">
        <ele>859</ele>
        <time>2021-08-22T14:02:15Z</time>
      </trkpt>
      <trkpt lat="45.04538" lon="2.60753">
        <ele>859.4</ele>
        <time>2021-08-22T14:02:17Z</time>
      </trkpt>
      <trkpt lat="45.04541" lon="2.60759">
        <ele>859.9</ele>
        <time>2021-08-22T14:02:19Z</time>
      </trkpt>
      <trkpt lat="45.04545" lon="2.60765">
        <ele>860.3</ele>
        <time>2021-08-22T14:02:21Z</time>
      </trkpt>
      <trkpt lat="45.0455" lon="2.60771">
        <ele>860.8</ele>
        <time>2021-08-22T14:02:23Z</time>
      </trkpt>
      <trkpt lat="45.04554" lon="2.60777">
        <ele>861.3</ele>
        <time>2021-08-22T14:02:25Z</time>
      </trkpt>
      <trkpt lat="45.0456" lon="2.60782">
        <ele>861.7</ele>
        <time>2021-08-22T14:02:27Z</time>
      </trkpt>
      <trkpt lat="45.04565" lon="2.60787">
        <ele>862.2</ele>
        <time>2021-08-22T14:02:29Z</time>
      </trkpt>
      <trkpt lat="45.04571" lon="2.6079">
        <ele>862.5</ele>
        <time>2021-08-22T14:02:31Z</time>
      </trkpt>
      <trkpt lat="45.04577" lon="2.60793">
        <ele>862.7</ele>
        <time>2021-08-22T14:02:33Z</time>
      </trkpt>
      <trkpt lat="45.04583" lon="2.60795">
        <ele>862.8</ele>
        <time>2021-08-22T14:02:35Z</time>
      </trkpt>
      <trkpt lat="45.0459" lon="2.60796">
        <ele>862.7</ele>
        <time>2021-08-22T14:02:37Z</time>
      </trkpt>
      <trkpt lat="45.04596" lon="2.60797">
        <ele>862.4</ele>
        <time>2021-08-22T14:02:39Z</time>
      </trkpt>
      <trkpt lat="45.04602" lon="2.60797">
        <ele>862.1</ele>
        <time>2021-08-22T14:02:41Z</time>
      </trkpt>
      <trkpt lat="45.04608" lon="2.60797">
        <ele>861.7</ele>
        <time>2021-08-22T14:02:43Z</time>
      </trkpt>
      <trkpt lat="45.04614" lon="2.60798">
        <ele>861.5</ele>
        <time>2021-08-22T14:02:45Z</time>
      </trkpt>
      <trkpt lat="45.04621" lon="2.60797">
        <ele>861</ele>
        <time>2021-08-22T14:02:47Z</time>
      </trkpt>
      <trkpt lat="45.04627" lon="2.60798">
        <ele>860.8</ele>
        <time>2021-08-22T14:02:49Z</time>
      </trkpt>
      <trkpt lat="45.04633" lon="2.60799">
        <ele>860.5</ele>
        <time>2021-08-22T14:02:51Z</time>
      </trkpt>
      <trkpt lat="45.0464" lon="2.60799">
        <ele>860.2</ele>
        <time>2021-08-22T14:02:53Z</time>
      </trkpt>
      <trkpt lat="45.04646" lon="2.608">
        <ele>859.9</ele>
        <time>2021-08-22T14:02:55Z</time>
      </trkpt>
      <trkpt lat="45.04652" lon="2.60801">
        <ele>859.7</ele>
        <time>2021-08-22T14:02:57Z</time>
      </trkpt>
      <trkpt lat="45.04659" lon="2.60802">
        <ele>859.4</ele>
        <time>2021-08-22T14:02:59Z</time>
      </trkpt>
      <trkpt lat="45.04665" lon="2.60803">
        <ele>859.1</ele>
        <time>2021-08-22T14:03:01Z</time>
      </trkpt>
      <trkpt lat="45.04671" lon="2.60804">
        <ele>859</ele>
        <time>2021-08-22T14:03:03Z</time>
      </trkpt>
      <trkpt lat="45.04678" lon="2.60804">
        <ele>858.9</ele>
        <time>2021-08-22T14:03:05Z</time>
      </trkpt>
      <trkpt lat="45.04684" lon="2.60805">
        <ele>858.8</ele>
        <time>2021-08-22T14:03:07Z</time>
      </trkpt>
      <trkpt lat="45.04691" lon="2.60805">
        <ele>858.7</ele>
        <time>2021-08-22T14:03:09Z</time>
      </trkpt>
      <trkpt lat="45.04698" lon="2.60805">
        <ele>858.6</ele>
        <time>2021-08-22T14:03:11Z</time>
      </trkpt>
      <trkpt lat="45.04705" lon="2.60806">
        <ele>858.6</ele>
        <time>2021-08-22T14:03:13Z</time>
      </trkpt>
      <trkpt lat="45.04712" lon="2.60807">
        <ele>858.6</ele>
        <time>2021-08-22T14:03:15Z</time>
      </trkpt>
      <trkpt lat="45.0472" lon="2.60808">
        <ele>858.6</ele>
        <time>2021-08-22T14:03:17Z</time>
      </trkpt>
      <trkpt lat="45.04727" lon="2.60807">
        <ele>858.5</ele>
        <time>2021-08-22T14:03:19Z</time>
      </trkpt>
      <trkpt lat="45.04735" lon="2.60808">
        <ele>858.5</ele>
        <time>2021-08-22T14:03:21Z</time>
      </trkpt>
      <trkpt lat="45.04742" lon="2.60809">
        <ele>858.5</ele>
        <time>2021-08-22T14:03:23Z</time>
      </trkpt>
      <trkpt lat="45.0475" lon="2.60811">
        <ele>858.6</ele>
        <time>2021-08-22T14:03:25Z</time>
      </trkpt>
      <trkpt lat="45.04758" lon="2.60812">
        <ele>857.5</ele>
        <time>2021-08-22T14:03:27Z</time>
      </trkpt>
      <trkpt lat="45.04766" lon="2.60814">
        <ele>856.5</ele>
        <time>2021-08-22T14:03:29Z</time>
      </trkpt>
      <trkpt lat="45.04774" lon="2.60818">
        <ele>855.7</ele>
        <time>2021-08-22T14:03:31Z</time>
      </trkpt>
      <trkpt lat="45.04781" lon="2.60822">
        <ele>855</ele>
        <time>2021-08-22T14:03:33Z</time>
      </trkpt>
      <trkpt lat="45.04788" lon="2.60827">
        <ele>854.6</ele>
        <time>2021-08-22T14:03:35Z</time>
      </trkpt>
      <trkpt lat="45.04795" lon="2.60833">
        <ele>854.3</ele>
        <time>2021-08-22T14:03:37Z</time>
      </trkpt>
      <trkpt lat="45.04801" lon="2.60839">
        <ele>854</ele>
        <time>2021-08-22T14:03:39Z</time>
      </trkpt>
      <trkpt lat="45.04806" lon="2.60847">
        <ele>854</ele>
        <time>2021-08-22T14:03:41Z</time>
      </trkpt>
      <trkpt lat="45.04811" lon="2.60856">
        <ele>854.1</ele>
        <time>2021-08-22T14:03:43Z</time>
      </trkpt>
      <trkpt lat="45.04815" lon="2.60865">
        <ele>854.3</ele>
        <time>2021-08-22T14:03:45Z</time>
      </trkpt>
      <trkpt lat="45.04818" lon="2.60875">
        <ele>854.7</ele>
        <time>2021-08-22T14:03:47Z</time>
      </trkpt>
      <trkpt lat="45.04822" lon="2.60885">
        <ele>855.1</ele>
        <time>2021-08-22T14:03:49Z</time>
      </trkpt>
      <trkpt lat="45.04824" lon="2.60896">
        <ele>855.6</ele>
        <time>2021-08-22T14:03:51Z</time>
      </trkpt>
      <trkpt lat="45.04826" lon="2.60906">
        <ele>856.1</ele>
        <time>2021-08-22T14:03:53Z</time>
      </trkpt>
      <trkpt lat="45.04828" lon="2.60917">
        <ele>856.7</ele>
        <time>2021-08-22T14:03:55Z</time>
      </trkpt>
      <trkpt lat="45.0483" lon="2.60927">
        <ele>857.5</ele>
        <time>2021-08-22T14:03:57Z</time>
      </trkpt>
      <trkpt lat="45.04831" lon="2.60938">
        <ele>858.5</ele>
        <time>2021-08-22T14:03:59Z</time>
      </trkpt>
      <trkpt lat="45.04833" lon="2.60949">
        <ele>859.3</ele>
        <time>2021-08-22T14:04:01Z</time>
      </trkpt>
      <trkpt lat="45.04836" lon="2.60959">
        <ele>859.9</ele>
        <time>2021-08-22T14:04:03Z</time>
      </trkpt>
      <trkpt lat="45.04838" lon="2.60969">
        <ele>860.6</ele>
        <time>2021-08-22T14:04:05Z</time>
      </trkpt>
      <trkpt lat="45.04841" lon="2.6098">
        <ele>861.2</ele>
        <time>2021-08-22T14:04:07Z</time>
      </trkpt>
      <trkpt lat="45.04845" lon="2.6099">
        <ele>861.3</ele>
        <time>2021-08-22T14:04:09Z</time>
      </trkpt>
      <trkpt lat="45.04848" lon="2.61">
        <ele>861.6</ele>
        <time>2021-08-22T14:04:11Z</time>
      </trkpt>
      <trkpt lat="45.04852" lon="2.6101">
        <ele>861.4</ele>
        <time>2021-08-22T14:04:13Z</time>
      </trkpt>
      <trkpt lat="45.04856" lon="2.61021">
        <ele>861.4</ele>
        <time>2021-08-22T14:04:15Z</time>
      </trkpt>
      <trkpt lat="45.0486" lon="2.6103">
        <ele>861.4</ele>
        <time>2021-08-22T14:04:17Z</time>
      </trkpt>
      <trkpt lat="45.04865" lon="2.6104">
        <ele>861.2</ele>
        <time>2021-08-22T14:04:19Z</time>
      </trkpt>
      <trkpt lat="45.04869" lon="2.61049">
        <ele>861.1</ele>
        <time>2021-08-22T14:04:21Z</time>
      </trkpt>
      <trkpt lat="45.04874" lon="2.61058">
        <ele>861</ele>
        <time>2021-08-22T14:04:23Z</time>
      </trkpt>
      <trkpt lat="45.0488" lon="2.61067">
        <ele>860.7</ele>
        <time>2021-08-22T14:04:25Z</time>
      </trkpt>
      <trkpt lat="45.04886" lon="2.61075">
        <ele>860.5</ele>
        <time>2021-08-22T14:04:27Z</time>
      </trkpt>
      <trkpt lat="45.04892" lon="2.61082">
        <ele>860.1</ele>
        <time>2021-08-22T14:04:29Z</time>
      </trkpt>
      <trkpt lat="45.04898" lon="2.61089">
        <ele>860</ele>
        <time>2021-08-22T14:04:31Z</time>
      </trkpt>
      <trkpt lat="45.04904" lon="2.61097">
        <ele>860.1</ele>
        <time>2021-08-22T14:04:33Z</time>
      </trkpt>
      <trkpt lat="45.04908" lon="2.61105">
        <ele>860.6</ele>
        <time>2021-08-22T14:04:35Z</time>
      </trkpt>
      <trkpt lat="45.04913" lon="2.61114">
        <ele>861.1</ele>
        <time>2021-08-22T14:04:37Z</time>
      </trkpt>
      <trkpt lat="45.04918" lon="2.61122">
        <ele>861.8</ele>
        <time>2021-08-22T14:04:39Z</time>
      </trkpt>
      <trkpt lat="45.04922" lon="2.61131">
        <ele>862.6</ele>
        <time>2021-08-22T14:04:41Z</time>
      </trkpt>
      <trkpt lat="45.04927" lon="2.6114">
        <ele>863.3</ele>
        <time>2021-08-22T14:04:43Z</time>
      </trkpt>
      <trkpt lat="45.04932" lon="2.61148">
        <ele>863.9</ele>
        <time>2021-08-22T14:04:45Z</time>
      </trkpt>
      <trkpt lat="45.04938" lon="2.61156">
        <ele>864.4</ele>
        <time>2021-08-22T14:04:47Z</time>
      </trkpt>
      <trkpt lat="45.04944" lon="2.61163">
        <ele>864.6</ele>
        <time>2021-08-22T14:04:49Z</time>
      </trkpt>
      <trkpt lat="45.04951" lon="2.61168">
        <ele>864.5</ele>
        <time>2021-08-22T14:04:51Z</time>
      </trkpt>
      <trkpt lat="45.04958" lon="2.61173">
        <ele>864.2</ele>
        <time>2021-08-22T14:04:53Z</time>
      </trkpt>
      <trkpt lat="45.04966" lon="2.61178">
        <ele>863.8</ele>
        <time>2021-08-22T14:04:55Z</time>
      </trkpt>
      <trkpt lat="45.04973" lon="2.6118">
        <ele>863.1</ele>
        <time>2021-08-22T14:04:57Z</time>
      </trkpt>
      <trkpt lat="45.0498" lon="2.61182">
        <ele>862.1</ele>
        <time>2021-08-22T14:04:59Z</time>
      </trkpt>
      <trkpt lat="45.04988" lon="2.61183">
        <ele>861</ele>
        <time>2021-08-22T14:05:01Z</time>
      </trkpt>
      <trkpt lat="45.04996" lon="2.61184">
        <ele>859.8</ele>
        <time>2021-08-22T14:05:03Z</time>
      </trkpt>
      <trkpt lat="45.05004" lon="2.61186">
        <ele>859</ele>
        <time>2021-08-22T14:05:05Z</time>
      </trkpt>
      <trkpt lat="45.05012" lon="2.6119">
        <ele>858.6</ele>
        <time>2021-08-22T14:05:07Z</time>
      </trkpt>
      <trkpt lat="45.05019" lon="2.61194">
        <ele>858.4</ele>
        <time>2021-08-22T14:05:09Z</time>
      </trkpt>
      <trkpt lat="45.05026" lon="2.61201">
        <ele>858.8</ele>
        <time>2021-08-22T14:05:11Z</time>
      </trkpt>
      <trkpt lat="45.05032" lon="2.61209">
        <ele>859.4</ele>
        <time>2021-08-22T14:05:13Z</time>
      </trkpt>
      <trkpt lat="45.05036" lon="2.61218">
        <ele>860.5</ele>
        <time>2021-08-22T14:05:15Z</time>
      </trkpt>
      <trkpt lat="45.0504" lon="2.61228">
        <ele>861.7</ele>
        <time>2021-08-22T14:05:17Z</time>
      </trkpt>
      <trkpt lat="45.05044" lon="2.61238">
        <ele>863</ele>
        <time>2021-08-22T14:05:19Z</time>
      </trkpt>
      <trkpt lat="45.05047" lon="2.61247">
        <ele>864.2</ele>
        <time>2021-08-22T14:05:21Z</time>
      </trkpt>
      <trkpt lat="45.05051" lon="2.61257">
        <ele>865.1</ele>
        <time>2021-08-22T14:05:23Z</time>
      </trkpt>
      <trkpt lat="45.05055" lon="2.61266">
        <ele>865.6</ele>
        <time>2021-08-22T14:05:25Z</time>
      </trkpt>
      <trkpt lat="45.0506" lon="2.61275">
        <ele>866</ele>
        <time>2021-08-22T14:05:27Z</time>
      </trkpt>
      <trkpt lat="45.05066" lon="2.61283">
        <ele>866.2</ele>
        <time>2021-08-22T14:05:29Z</time>
      </trkpt>
      <trkpt lat="45.05072" lon="2.6129">
        <ele>866.3</ele>
        <time>2021-08-22T14:05:31Z</time>
      </trkpt>
      <trkpt lat="45.05078" lon="2.61297">
        <ele>866.4</ele>
        <time>2021-08-22T14:05:33Z</time>
      </trkpt>
      <trkpt lat="45.05084" lon="2.61303">
        <ele>866.3</ele>
        <time>2021-08-22T14:05:35Z</time>
      </trkpt>
      <trkpt lat="45.05091" lon="2.61309">
        <ele>866.7</ele>
        <time>2021-08-22T14:05:37Z</time>
      </trkpt>
      <trkpt lat="45.05099" lon="2.61313">
        <ele>867</ele>
        <time>2021-08-22T14:05:39Z</time>
      </trkpt>
      <trkpt lat="45.05106" lon="2.61316">
        <ele>867.1</ele>
        <time>2021-08-22T14:05:41Z</time>
      </trkpt>
      <trkpt lat="45.05114" lon="2.61318">
        <ele>867.1</ele>
        <time>2021-08-22T14:05:43Z</time>
      </trkpt>
      <trkpt lat="45.05122" lon="2.61319">
        <ele>867</ele>
        <time>2021-08-22T14:05:45Z</time>
      </trkpt>
      <trkpt lat="45.0513" lon="2.61321">
        <ele>867</ele>
        <time>2021-08-22T14:05:47Z</time>
      </trkpt>
      <trkpt lat="45.05138" lon="2.61321">
        <ele>866.8</ele>
        <time>2021-08-22T14:05:49Z</time>
      </trkpt>
      <trkpt lat="45.05146" lon="2.61322">
        <ele>866.6</ele>
        <time>2021-08-22T14:05:51Z</time>
      </trkpt>
      <trkpt lat="45.05153" lon="2.61323">
        <ele>866.6</ele>
        <time>2021-08-22T14:05:53Z</time>
      </trkpt>
      <trkpt lat="45.0516" lon="2.61324">
        <ele>866.6</ele>
        <time>2021-08-22T14:05:55Z</time>
      </trkpt>
      <trkpt lat="45.05167" lon="2.61326">
        <ele>866.6</ele>
        <time>2021-08-22T14:05:57Z</time>
      </trkpt>
      <trkpt lat="45.05174" lon="2.61329">
        <ele>866.4</ele>
        <time>2021-08-22T14:05:59Z</time>
      </trkpt>
      <trkpt lat="45.05181" lon="2.61332">
        <ele>866.2</ele>
        <time>2021-08-22T14:06:01Z</time>
      </trkpt>
      <trkpt lat="45.05188" lon="2.61336">
        <ele>866.1</ele>
        <time>2021-08-22T14:06:03Z</time>
      </trkpt>
      <trkpt lat="45.05194" lon="2.61341">
        <ele>866.1</ele>
        <time>2021-08-22T14:06:05Z</time>
      </trkpt>
      <trkpt lat="45.052" lon="2.61346">
        <ele>866.2</ele>
        <time>2021-08-22T14:06:07Z</time>
      </trkpt>
      <trkpt lat="45.05207" lon="2.61351">
        <ele>866.4</ele>
        <time>2021-08-22T14:06:09Z</time>
      </trkpt>
      <trkpt lat="45.05212" lon="2.61357">
        <ele>866.8</ele>
        <time>2021-08-22T14:06:11Z</time>
      </trkpt>
      <trkpt lat="45.05217" lon="2.61363">
        <ele>867.5</ele>
        <time>2021-08-22T14:06:13Z</time>
      </trkpt>
      <trkpt lat="45.05224" lon="2.61368">
        <ele>868</ele>
        <time>2021-08-22T14:06:15Z</time>
      </trkpt>
      <trkpt lat="45.0523" lon="2.61374">
        <ele>868.8</ele>
        <time>2021-08-22T14:06:17Z</time>
      </trkpt>
      <trkpt lat="45.05236" lon="2.6138">
        <ele>869.6</ele>
        <time>2021-08-22T14:06:19Z</time>
      </trkpt>
      <trkpt lat="45.05242" lon="2.61386">
        <ele>870.6</ele>
        <time>2021-08-22T14:06:21Z</time>
      </trkpt>
      <trkpt lat="45.05249" lon="2.61392">
        <ele>871.7</ele>
        <time>2021-08-22T14:06:23Z</time>
      </trkpt>
      <trkpt lat="45.05255" lon="2.61398">
        <ele>872.2</ele>
        <time>2021-08-22T14:06:25Z</time>
      </trkpt>
      <trkpt lat="45.05262" lon="2.61404">
        <ele>872.5</ele>
        <time>2021-08-22T14:06:27Z</time>
      </trkpt>
      <trkpt lat="45.0527" lon="2.6141">
        <ele>872.7</ele>
        <time>2021-08-22T14:06:29Z</time>
      </trkpt>
      <trkpt lat="45.05277" lon="2.61416">
        <ele>873</ele>
        <time>2021-08-22T14:06:31Z</time>
      </trkpt>
      <trkpt lat="45.05284" lon="2.61421">
        <ele>873.2</ele>
        <time>2021-08-22T14:06:33Z</time>
      </trkpt>
      <trkpt lat="45.05292" lon="2.61427">
        <ele>873.8</ele>
        <time>2021-08-22T14:06:35Z</time>
      </trkpt>
      <trkpt lat="45.05299" lon="2.61433">
        <ele>874.2</ele>
        <time>2021-08-22T14:06:37Z</time>
      </trkpt>
      <trkpt lat="45.05307" lon="2.61436">
        <ele>874.2</ele>
        <time>2021-08-22T14:06:39Z</time>
      </trkpt>
      <trkpt lat="45.05315" lon="2.61439">
        <ele>874.1</ele>
        <time>2021-08-22T14:06:41Z</time>
      </trkpt>
      <trkpt lat="45.05322" lon="2.61439">
        <ele>873.4</ele>
        <time>2021-08-22T14:06:43Z</time>
      </trkpt>
      <trkpt lat="45.0533" lon="2.61439">
        <ele>872.4</ele>
        <time>2021-08-22T14:06:45Z</time>
      </trkpt>
      <trkpt lat="45.05338" lon="2.61438">
        <ele>871.5</ele>
        <time>2021-08-22T14:06:47Z</time>
      </trkpt>
      <trkpt lat="45.05345" lon="2.61436">
        <ele>870.5</ele>
        <time>2021-08-22T14:06:49Z</time>
      </trkpt>
      <trkpt lat="45.05352" lon="2.61433">
        <ele>869.3</ele>
        <time>2021-08-22T14:06:51Z</time>
      </trkpt>
      <trkpt lat="45.05359" lon="2.61429">
        <ele>867.9</ele>
        <time>2021-08-22T14:06:53Z</time>
      </trkpt>
      <trkpt lat="45.05366" lon="2.61426">
        <ele>866.8</ele>
        <time>2021-08-22T14:06:55Z</time>
      </trkpt>
      <trkpt lat="45.05373" lon="2.61423">
        <ele>866.1</ele>
        <time>2021-08-22T14:06:57Z</time>
      </trkpt>
      <trkpt lat="45.0538" lon="2.61423">
        <ele>865.7</ele>
        <time>2021-08-22T14:06:59Z</time>
      </trkpt>
      <trkpt lat="45.05388" lon="2.61423">
        <ele>865.6</ele>
        <time>2021-08-22T14:07:01Z</time>
      </trkpt>
      <trkpt lat="45.05394" lon="2.61424">
        <ele>865.6</ele>
        <time>2021-08-22T14:07:03Z</time>
      </trkpt>
      <trkpt lat="45.05401" lon="2.61427">
        <ele>866</ele>
        <time>2021-08-22T14:07:05Z</time>
      </trkpt>
      <trkpt lat="45.05408" lon="2.61431">
        <ele>866.4</ele>
        <time>2021-08-22T14:07:07Z</time>
      </trkpt>
      <trkpt lat="45.05414" lon="2.61437">
        <ele>867</ele>
        <time>2021-08-22T14:07:09Z</time>
      </trkpt>
      <trkpt lat="45.0542" lon="2.61444">
        <ele>867.4</ele>
        <time>2021-08-22T14:07:11Z</time>
      </trkpt>
      <trkpt lat="45.05425" lon="2.61451">
        <ele>867.7</ele>
        <time>2021-08-22T14:07:13Z</time>
      </trkpt>
      <trkpt lat="45.0543" lon="2.61459">
        <ele>868.1</ele>
        <time>2021-08-22T14:07:15Z</time>
      </trkpt>
      <trkpt lat="45.05435" lon="2.61468">
        <ele>868.4</ele>
        <time>2021-08-22T14:07:17Z</time>
      </trkpt>
      <trkpt lat="45.0544" lon="2.61476">
        <ele>868.6</ele>
        <time>2021-08-22T14:07:19Z</time>
      </trkpt>
      <trkpt lat="45.05445" lon="2.61485">
        <ele>868.8</ele>
        <time>2021-08-22T14:07:21Z</time>
      </trkpt>
      <trkpt lat="45.05451" lon="2.61493">
        <ele>868.6</ele>
        <time>2021-08-22T14:07:23Z</time>
      </trkpt>
      <trkpt lat="45.05457" lon="2.61502">
        <ele>868.6</ele>
        <time>2021-08-22T14:07:25Z</time>
      </trkpt>
      <trkpt lat="45.05463" lon="2.61512">
        <ele>868.4</ele>
        <time>2021-08-22T14:07:27Z</time>
      </trkpt>
      <trkpt lat="45.0547" lon="2.61521">
        <ele>868.2</ele>
        <time>2021-08-22T14:07:29Z</time>
      </trkpt>
      <trkpt lat="45.05476" lon="2.6153">
        <ele>868.2</ele>
        <time>2021-08-22T14:07:31Z</time>
      </trkpt>
      <trkpt lat="45.05482" lon="2.6154">
        <ele>868.1</ele>
        <time>2021-08-22T14:07:33Z</time>
      </trkpt>
      <trkpt lat="45.05489" lon="2.61549">
        <ele>867.8</ele>
        <time>2021-08-22T14:07:35Z</time>
      </trkpt>
      <trkpt lat="45.05496" lon="2.61558">
        <ele>867.7</ele>
        <time>2021-08-22T14:07:37Z</time>
      </trkpt>
      <trkpt lat="45.05503" lon="2.61567">
        <ele>867.7</ele>
        <time>2021-08-22T14:07:39Z</time>
      </trkpt>
      <trkpt lat="45.0551" lon="2.61575">
        <ele>867.9</ele>
        <time>2021-08-22T14:07:41Z</time>
      </trkpt>
      <trkpt lat="45.05517" lon="2.61582">
        <ele>867.9</ele>
        <time>2021-08-22T14:07:43Z</time>
      </trkpt>
      <trkpt lat="45.05523" lon="2.6159">
        <ele>868.3</ele>
        <time>2021-08-22T14:07:45Z</time>
      </trkpt>
      <trkpt lat="45.0553" lon="2.61597">
        <ele>868.5</ele>
        <time>2021-08-22T14:07:47Z</time>
      </trkpt>
      <trkpt lat="45.05536" lon="2.61604">
        <ele>868.8</ele>
        <time>2021-08-22T14:07:49Z</time>
      </trkpt>
      <trkpt lat="45.05541" lon="2.61612">
        <ele>869</ele>
        <time>2021-08-22T14:07:51Z</time>
      </trkpt>
      <trkpt lat="45.05547" lon="2.61619">
        <ele>869.2</ele>
        <time>2021-08-22T14:07:53Z</time>
      </trkpt>
      <trkpt lat="45.05552" lon="2.61627">
        <ele>869.3</ele>
        <time>2021-08-22T14:07:55Z</time>
      </trkpt>
      <trkpt lat="45.05556" lon="2.61636">
        <ele>869.6</ele>
        <time>2021-08-22T14:07:57Z</time>
      </trkpt>
      <trkpt lat="45.0556" lon="2.61644">
        <ele>869.9</ele>
        <time>2021-08-22T14:07:59Z</time>
      </trkpt>
      <trkpt lat="45.05563" lon="2.61653">
        <ele>870.1</ele>
        <time>2021-08-22T14:08:01Z</time>
      </trkpt>
      <trkpt lat="45.05567" lon="2.61662">
        <ele>870.3</ele>
        <time>2021-08-22T14:08:03Z</time>
      </trkpt>
      <trkpt lat="45.0557" lon="2.61671">
        <ele>870.4</ele>
        <time>2021-08-22T14:08:05Z</time>
      </trkpt>
      <trkpt lat="45.05573" lon="2.6168">
        <ele>870.5</ele>
        <time>2021-08-22T14:08:07Z</time>
      </trkpt>
      <trkpt lat="45.05575" lon="2.61689">
        <ele>870.6</ele>
        <time>2021-08-22T14:08:09Z</time>
      </trkpt>
      <trkpt lat="45.05577" lon="2.61699">
        <ele>870.9</ele>
        <time>2021-08-22T14:08:11Z</time>
      </trkpt>
      <trkpt lat="45.05579" lon="2.61708">
        <ele>871</ele>
        <time>2021-08-22T14:08:13Z</time>
      </trkpt>
      <trkpt lat="45.05581" lon="2.61717">
        <ele>871.2</ele>
        <time>2021-08-22T14:08:15Z</time>
      </trkpt>
      <trkpt lat="45.05584" lon="2.61726">
        <ele>871.2</ele>
        <time>2021-08-22T14:08:17Z</time>
      </trkpt>
      <trkpt lat="45.05586" lon="2.61735">
        <ele>871.5</ele>
        <time>2021-08-22T14:08:19Z</time>
      </trkpt>
      <trkpt lat="45.05588" lon="2.61744">
        <ele>871.8</ele>
        <time>2021-08-22T14:08:21Z</time>
      </trkpt>
      <trkpt lat="45.0559" lon="2.61753">
        <ele>872.1</ele>
        <time>2021-08-22T14:08:23Z</time>
      </trkpt>
      <trkpt lat="45.05592" lon="2.61761">
        <ele>872.5</ele>
        <time>2021-08-22T14:08:25Z</time>
      </trkpt>
      <trkpt lat="45.05594" lon="2.6177">
        <ele>873</ele>
        <time>2021-08-22T14:08:27Z</time>
      </trkpt>
      <trkpt lat="45.05596" lon="2.61779">
        <ele>873.3</ele>
        <time>2021-08-22T14:08:29Z</time>
      </trkpt>
      <trkpt lat="45.05598" lon="2.61787">
        <ele>873.6</ele>
        <time>2021-08-22T14:08:31Z</time>
      </trkpt>
      <trkpt lat="45.056" lon="2.61796">
        <ele>874</ele>
        <time>2021-08-22T14:08:33Z</time>
      </trkpt>
      <trkpt lat="45.05602" lon="2.61805">
        <ele>874.3</ele>
        <time>2021-08-22T14:08:35Z</time>
      </trkpt>
      <trkpt lat="45.05604" lon="2.61813">
        <ele>874.6</ele>
        <time>2021-08-22T14:08:37Z</time>
      </trkpt>
      <trkpt lat="45.05606" lon="2.61822">
        <ele>874.9</ele>
        <time>2021-08-22T14:08:39Z</time>
      </trkpt>
      <trkpt lat="45.05608" lon="2.6183">
        <ele>875.1</ele>
        <time>2021-08-22T14:08:41Z</time>
      </trkpt>
      <trkpt lat="45.0561" lon="2.61838">
        <ele>875.4</ele>
        <time>2021-08-22T14:08:43Z</time>
      </trkpt>
      <trkpt lat="45.05612" lon="2.61846">
        <ele>875.7</ele>
        <time>2021-08-22T14:08:45Z</time>
      </trkpt>
      <trkpt lat="45.05615" lon="2.61855">
        <ele>875.7</ele>
        <time>2021-08-22T14:08:47Z</time>
      </trkpt>
      <trkpt lat="45.05617" lon="2.61863">
        <ele>875.9</ele>
        <time>2021-08-22T14:08:49Z</time>
      </trkpt>
      <trkpt lat="45.0562" lon="2.61871">
        <ele>876</ele>
        <time>2021-08-22T14:08:51Z</time>
      </trkpt>
      <trkpt lat="45.05623" lon="2.6188">
        <ele>876</ele>
        <time>2021-08-22T14:08:53Z</time>
      </trkpt>
      <trkpt lat="45.05626" lon="2.61888">
        <ele>876</ele>
        <time>2021-08-22T14:08:55Z</time>
      </trkpt>
      <trkpt lat="45.05628" lon="2.61897">
        <ele>876.1</ele>
        <time>2021-08-22T14:08:57Z</time>
      </trkpt>
      <trkpt lat="45.05631" lon="2.61905">
        <ele>875.9</ele>
        <time>2021-08-22T14:08:59Z</time>
      </trkpt>
      <trkpt lat="45.05633" lon="2.61914">
        <ele>875.9</ele>
        <time>2021-08-22T14:09:01Z</time>
      </trkpt>
      <trkpt lat="45.05636" lon="2.61923">
        <ele>876</ele>
        <time>2021-08-22T14:09:03Z</time>
      </trkpt>
      <trkpt lat="45.05639" lon="2.61931">
        <ele>875.9</ele>
        <time>2021-08-22T14:09:05Z</time>
      </trkpt>
      <trkpt lat="45.05641" lon="2.6194">
        <ele>876</ele>
        <time>2021-08-22T14:09:07Z</time>
      </trkpt>
      <trkpt lat="45.05644" lon="2.61949">
        <ele>876</ele>
        <time>2021-08-22T14:09:09Z</time>
      </trkpt>
      <trkpt lat="45.05647" lon="2.61958">
        <ele>875.9</ele>
        <time>2021-08-22T14:09:11Z</time>
      </trkpt>
      <trkpt lat="45.05651" lon="2.61965">
        <ele>875.4</ele>
        <time>2021-08-22T14:09:13Z</time>
      </trkpt>
      <trkpt lat="45.05654" lon="2.61973">
        <ele>874.8</ele>
        <time>2021-08-22T14:09:15Z</time>
      </trkpt>
      <trkpt lat="45.05659" lon="2.61979">
        <ele>873.9</ele>
        <time>2021-08-22T14:09:17Z</time>
      </trkpt>
      <trkpt lat="45.05661" lon="2.61985">
        <ele>873.5</ele>
        <time>2021-08-22T14:09:19Z</time>
      </trkpt>
      <trkpt lat="45.05664" lon="2.61989">
        <ele>873.1</ele>
        <time>2021-08-22T14:09:21Z</time>
      </trkpt>
      <trkpt lat="45.05664" lon="2.61992">
        <ele>873.2</ele>
        <time>2021-08-22T14:09:23Z</time>
      </trkpt>
      <trkpt lat="45.05665" lon="2.61995">
        <ele>873.1</ele>
        <time>2021-08-22T14:09:25Z</time>
      </trkpt>
      <trkpt lat="45.05666" lon="2.62">
        <ele>873.1</ele>
        <time>2021-08-22T14:09:27Z</time>
      </trkpt>
      <trkpt lat="45.05667" lon="2.62002">
        <ele>873.2</ele>
        <time>2021-08-22T14:09:29Z</time>
      </trkpt>
      <trkpt lat="45.05666" lon="2.62001">
        <ele>873.2</ele>
        <time>2021-08-22T14:09:31Z</time>
      </trkpt>
      <trkpt lat="45.05666" lon="2.62001">
        <ele>873.2</ele>
        <time>2021-08-22T14:09:33Z</time>
      </trkpt>
      <trkpt lat="45.05666" lon="2.62001">
        <ele>873.3</ele>
        <time>2021-08-22T14:09:35Z</time>
      </trkpt>
      <trkpt lat="45.05666" lon="2.62002">
        <ele>873.3</ele>
        <time>2021-08-22T14:09:37Z</time>
      </trkpt>
      <trkpt lat="45.05664" lon="2.62019">
        <ele>875.9</ele>
        <time>2021-08-22T14:13:31Z</time>
      </trkpt>
      <trkpt lat="45.05666" lon="2.62026">
        <ele>875.9</ele>
        <time>2021-08-22T14:13:33Z</time>
      </trkpt>
      <trkpt lat="45.05669" lon="2.62033">
        <ele>876.2</ele>
        <time>2021-08-22T14:13:35Z</time>
      </trkpt>
      <trkpt lat="45.05671" lon="2.62041">
        <ele>876.6</ele>
        <time>2021-08-22T14:13:37Z</time>
      </trkpt>
      <trkpt lat="45.05673" lon="2.62048">
        <ele>876.9</ele>
        <time>2021-08-22T14:13:39Z</time>
      </trkpt>
      <trkpt lat="45.05675" lon="2.62055">
        <ele>877.3</ele>
        <time>2021-08-22T14:13:41Z</time>
      </trkpt>
      <trkpt lat="45.05678" lon="2.62063">
        <ele>877.7</ele>
        <time>2021-08-22T14:13:43Z</time>
      </trkpt>
      <trkpt lat="45.0568" lon="2.62071">
        <ele>878.2</ele>
        <time>2021-08-22T14:13:45Z</time>
      </trkpt>
      <trkpt lat="45.05682" lon="2.62079">
        <ele>878.5</ele>
        <time>2021-08-22T14:13:47Z</time>
      </trkpt>
      <trkpt lat="45.05685" lon="2.62087">
        <ele>878.9</ele>
        <time>2021-08-22T14:13:49Z</time>
      </trkpt>
      <trkpt lat="45.05687" lon="2.62094">
        <ele>879.3</ele>
        <time>2021-08-22T14:13:51Z</time>
      </trkpt>
      <trkpt lat="45.05689" lon="2.62102">
        <ele>879.6</ele>
        <time>2021-08-22T14:13:53Z</time>
      </trkpt>
      <trkpt lat="45.05691" lon="2.62109">
        <ele>880</ele>
        <time>2021-08-22T14:13:55Z</time>
      </trkpt>
      <trkpt lat="45.05694" lon="2.62116">
        <ele>880.4</ele>
        <time>2021-08-22T14:13:57Z</time>
      </trkpt>
      <trkpt lat="45.05696" lon="2.62123">
        <ele>880.6</ele>
        <time>2021-08-22T14:13:59Z</time>
      </trkpt>
      <trkpt lat="45.05698" lon="2.62128">
        <ele>880.8</ele>
        <time>2021-08-22T14:14:01Z</time>
      </trkpt>
      <trkpt lat="45.057" lon="2.62135">
        <ele>881.1</ele>
        <time>2021-08-22T14:14:03Z</time>
      </trkpt>
      <trkpt lat="45.05703" lon="2.62142">
        <ele>881.3</ele>
        <time>2021-08-22T14:14:05Z</time>
      </trkpt>
      <trkpt lat="45.05707" lon="2.62149">
        <ele>881.3</ele>
        <time>2021-08-22T14:14:07Z</time>
      </trkpt>
      <trkpt lat="45.05709" lon="2.62156">
        <ele>881.7</ele>
        <time>2021-08-22T14:14:09Z</time>
      </trkpt>
      <trkpt lat="45.05713" lon="2.62163">
        <ele>881.7</ele>
        <time>2021-08-22T14:14:11Z</time>
      </trkpt>
      <trkpt lat="45.05717" lon="2.62169">
        <ele>881.8</ele>
        <time>2021-08-22T14:14:13Z</time>
      </trkpt>
      <trkpt lat="45.05721" lon="2.62176">
        <ele>881.9</ele>
        <time>2021-08-22T14:14:15Z</time>
      </trkpt>
      <trkpt lat="45.05725" lon="2.62182">
        <ele>882.1</ele>
        <time>2021-08-22T14:14:17Z</time>
      </trkpt>
      <trkpt lat="45.05729" lon="2.62189">
        <ele>882.2</ele>
        <time>2021-08-22T14:14:19Z</time>
      </trkpt>
      <trkpt lat="45.05733" lon="2.62194">
        <ele>882.1</ele>
        <time>2021-08-22T14:14:21Z</time>
      </trkpt>
      <trkpt lat="45.05738" lon="2.62201">
        <ele>882.2</ele>
        <time>2021-08-22T14:14:23Z</time>
      </trkpt>
      <trkpt lat="45.05742" lon="2.62206">
        <ele>882.1</ele>
        <time>2021-08-22T14:14:25Z</time>
      </trkpt>
      <trkpt lat="45.05748" lon="2.62211">
        <ele>881.8</ele>
        <time>2021-08-22T14:14:27Z</time>
      </trkpt>
      <trkpt lat="45.05753" lon="2.62216">
        <ele>881.7</ele>
        <time>2021-08-22T14:14:29Z</time>
      </trkpt>
      <trkpt lat="45.05758" lon="2.6222">
        <ele>881.6</ele>
        <time>2021-08-22T14:14:31Z</time>
      </trkpt>
      <trkpt lat="45.05764" lon="2.62224">
        <ele>881.6</ele>
        <time>2021-08-22T14:14:33Z</time>
      </trkpt>
      <trkpt lat="45.05769" lon="2.62229">
        <ele>881.6</ele>
        <time>2021-08-22T14:14:35Z</time>
      </trkpt>
      <trkpt lat="45.05774" lon="2.62233">
        <ele>881.5</ele>
        <time>2021-08-22T14:14:37Z</time>
      </trkpt>
      <trkpt lat="45.0578" lon="2.62239">
        <ele>881.5</ele>
        <time>2021-08-22T14:14:39Z</time>
      </trkpt>
      <trkpt lat="45.05786" lon="2.62243">
        <ele>881.4</ele>
        <time>2021-08-22T14:14:41Z</time>
      </trkpt>
      <trkpt lat="45.05792" lon="2.62249">
        <ele>881.3</ele>
        <time>2021-08-22T14:14:43Z</time>
      </trkpt>
      <trkpt lat="45.05797" lon="2.62254">
        <ele>881.3</ele>
        <time>2021-08-22T14:14:45Z</time>
      </trkpt>
      <trkpt lat="45.05803" lon="2.62259">
        <ele>881.3</ele>
        <time>2021-08-22T14:14:47Z</time>
      </trkpt>
      <trkpt lat="45.05808" lon="2.62265">
        <ele>881.4</ele>
        <time>2021-08-22T14:14:49Z</time>
      </trkpt>
      <trkpt lat="45.05813" lon="2.62271">
        <ele>881.4</ele>
        <time>2021-08-22T14:14:51Z</time>
      </trkpt>
      <trkpt lat="45.05818" lon="2.62277">
        <ele>881.4</ele>
        <time>2021-08-22T14:14:53Z</time>
      </trkpt>
      <trkpt lat="45.05823" lon="2.62283">
        <ele>881.4</ele>
        <time>2021-08-22T14:14:55Z</time>
      </trkpt>
      <trkpt lat="45.05826" lon="2.6229">
        <ele>881.6</ele>
        <time>2021-08-22T14:14:57Z</time>
      </trkpt>
      <trkpt lat="45.05831" lon="2.62297">
        <ele>881.6</ele>
        <time>2021-08-22T14:14:59Z</time>
      </trkpt>
      <trkpt lat="45.05835" lon="2.62305">
        <ele>881.7</ele>
        <time>2021-08-22T14:15:01Z</time>
      </trkpt>
      <trkpt lat="45.05838" lon="2.62312">
        <ele>882.1</ele>
        <time>2021-08-22T14:15:03Z</time>
      </trkpt>
      <trkpt lat="45.05842" lon="2.6232">
        <ele>882.5</ele>
        <time>2021-08-22T14:15:05Z</time>
      </trkpt>
      <trkpt lat="45.05845" lon="2.62329">
        <ele>883</ele>
        <time>2021-08-22T14:15:07Z</time>
      </trkpt>
      <trkpt lat="45.05848" lon="2.62337">
        <ele>883.5</ele>
        <time>2021-08-22T14:15:09Z</time>
      </trkpt>
      <trkpt lat="45.0585" lon="2.62345">
        <ele>884</ele>
        <time>2021-08-22T14:15:11Z</time>
      </trkpt>
      <trkpt lat="45.05853" lon="2.62354">
        <ele>884.4</ele>
        <time>2021-08-22T14:15:13Z</time>
      </trkpt>
      <trkpt lat="45.05855" lon="2.62362">
        <ele>884.9</ele>
        <time>2021-08-22T14:15:15Z</time>
      </trkpt>
      <trkpt lat="45.05857" lon="2.62371">
        <ele>885.4</ele>
        <time>2021-08-22T14:15:17Z</time>
      </trkpt>
      <trkpt lat="45.05858" lon="2.62379">
        <ele>885.9</ele>
        <time>2021-08-22T14:15:19Z</time>
      </trkpt>
      <trkpt lat="45.05861" lon="2.62388">
        <ele>886.2</ele>
        <time>2021-08-22T14:15:21Z</time>
      </trkpt>
      <trkpt lat="45.05863" lon="2.62397">
        <ele>886.7</ele>
        <time>2021-08-22T14:15:23Z</time>
      </trkpt>
      <trkpt lat="45.05864" lon="2.62406">
        <ele>887.1</ele>
        <time>2021-08-22T14:15:25Z</time>
      </trkpt>
      <trkpt lat="45.05866" lon="2.62414">
        <ele>887.4</ele>
        <time>2021-08-22T14:15:27Z</time>
      </trkpt>
      <trkpt lat="45.05869" lon="2.62422">
        <ele>887.5</ele>
        <time>2021-08-22T14:15:29Z</time>
      </trkpt>
      <trkpt lat="45.05871" lon="2.62429">
        <ele>887.7</ele>
        <time>2021-08-22T14:15:31Z</time>
      </trkpt>
      <trkpt lat="45.05873" lon="2.62438">
        <ele>887.8</ele>
        <time>2021-08-22T14:15:33Z</time>
      </trkpt>
      <trkpt lat="45.05876" lon="2.62446">
        <ele>887.8</ele>
        <time>2021-08-22T14:15:35Z</time>
      </trkpt>
      <trkpt lat="45.05878" lon="2.62455">
        <ele>887.7</ele>
        <time>2021-08-22T14:15:37Z</time>
      </trkpt>
      <trkpt lat="45.05882" lon="2.62463">
        <ele>887.5</ele>
        <time>2021-08-22T14:15:39Z</time>
      </trkpt>
      <trkpt lat="45.05885" lon="2.6247">
        <ele>887.1</ele>
        <time>2021-08-22T14:15:41Z</time>
      </trkpt>
      <trkpt lat="45.05888" lon="2.62478">
        <ele>886.7</ele>
        <time>2021-08-22T14:15:43Z</time>
      </trkpt>
      <trkpt lat="45.05892" lon="2.62486">
        <ele>886.2</ele>
        <time>2021-08-22T14:15:45Z</time>
      </trkpt>
      <trkpt lat="45.05895" lon="2.62494">
        <ele>885.6</ele>
        <time>2021-08-22T14:15:47Z</time>
      </trkpt>
      <trkpt lat="45.059" lon="2.62501">
        <ele>884.8</ele>
        <time>2021-08-22T14:15:49Z</time>
      </trkpt>
      <trkpt lat="45.05904" lon="2.62508">
        <ele>884.8</ele>
        <time>2021-08-22T14:15:51Z</time>
      </trkpt>
      <trkpt lat="45.05908" lon="2.62516">
        <ele>884.6</ele>
        <time>2021-08-22T14:15:53Z</time>
      </trkpt>
      <trkpt lat="45.05913" lon="2.62523">
        <ele>884.4</ele>
        <time>2021-08-22T14:15:55Z</time>
      </trkpt>
      <trkpt lat="45.05917" lon="2.6253">
        <ele>884.3</ele>
        <time>2021-08-22T14:15:57Z</time>
      </trkpt>
      <trkpt lat="45.05922" lon="2.62537">
        <ele>884.6</ele>
        <time>2021-08-22T14:15:59Z</time>
      </trkpt>
      <trkpt lat="45.05926" lon="2.62545">
        <ele>884.9</ele>
        <time>2021-08-22T14:16:01Z</time>
      </trkpt>
      <trkpt lat="45.05931" lon="2.62552">
        <ele>885</ele>
        <time>2021-08-22T14:16:03Z</time>
      </trkpt>
      <trkpt lat="45.05936" lon="2.6256">
        <ele>885.2</ele>
        <time>2021-08-22T14:16:05Z</time>
      </trkpt>
      <trkpt lat="45.05941" lon="2.62567">
        <ele>885.2</ele>
        <time>2021-08-22T14:16:07Z</time>
      </trkpt>
      <trkpt lat="45.05945" lon="2.62575">
        <ele>885.4</ele>
        <time>2021-08-22T14:16:09Z</time>
      </trkpt>
      <trkpt lat="45.05949" lon="2.62583">
        <ele>885.4</ele>
        <time>2021-08-22T14:16:11Z</time>
      </trkpt>
      <trkpt lat="45.05953" lon="2.62591">
        <ele>885.3</ele>
        <time>2021-08-22T14:16:13Z</time>
      </trkpt>
      <trkpt lat="45.05957" lon="2.626">
        <ele>885.3</ele>
        <time>2021-08-22T14:16:15Z</time>
      </trkpt>
      <trkpt lat="45.0596" lon="2.62608">
        <ele>885.3</ele>
        <time>2021-08-22T14:16:17Z</time>
      </trkpt>
      <trkpt lat="45.05964" lon="2.62617">
        <ele>885.4</ele>
        <time>2021-08-22T14:16:19Z</time>
      </trkpt>
      <trkpt lat="45.05967" lon="2.62626">
        <ele>885.5</ele>
        <time>2021-08-22T14:16:21Z</time>
      </trkpt>
      <trkpt lat="45.0597" lon="2.62635">
        <ele>885.7</ele>
        <time>2021-08-22T14:16:23Z</time>
      </trkpt>
      <trkpt lat="45.05972" lon="2.62644">
        <ele>886.1</ele>
        <time>2021-08-22T14:16:25Z</time>
      </trkpt>
      <trkpt lat="45.05974" lon="2.62653">
        <ele>886.4</ele>
        <time>2021-08-22T14:16:27Z</time>
      </trkpt>
      <trkpt lat="45.05976" lon="2.62662">
        <ele>886.8</ele>
        <time>2021-08-22T14:16:29Z</time>
      </trkpt>
      <trkpt lat="45.05978" lon="2.62671">
        <ele>887.1</ele>
        <time>2021-08-22T14:16:31Z</time>
      </trkpt>
      <trkpt lat="45.05979" lon="2.62681">
        <ele>887.2</ele>
        <time>2021-08-22T14:16:33Z</time>
      </trkpt>
      <trkpt lat="45.05981" lon="2.6269">
        <ele>887.3</ele>
        <time>2021-08-22T14:16:35Z</time>
      </trkpt>
      <trkpt lat="45.05982" lon="2.627">
        <ele>887.4</ele>
        <time>2021-08-22T14:16:37Z</time>
      </trkpt>
      <trkpt lat="45.05984" lon="2.62709">
        <ele>887.5</ele>
        <time>2021-08-22T14:16:39Z</time>
      </trkpt>
      <trkpt lat="45.05985" lon="2.62718">
        <ele>887.5</ele>
        <time>2021-08-22T14:16:41Z</time>
      </trkpt>
      <trkpt lat="45.05986" lon="2.62728">
        <ele>887.5</ele>
        <time>2021-08-22T14:16:43Z</time>
      </trkpt>
      <trkpt lat="45.05988" lon="2.62738">
        <ele>887.5</ele>
        <time>2021-08-22T14:16:45Z</time>
      </trkpt>
      <trkpt lat="45.05989" lon="2.62748">
        <ele>887.4</ele>
        <time>2021-08-22T14:16:47Z</time>
      </trkpt>
      <trkpt lat="45.05991" lon="2.62757">
        <ele>887.8</ele>
        <time>2021-08-22T14:16:49Z</time>
      </trkpt>
      <trkpt lat="45.05992" lon="2.62767">
        <ele>888.3</ele>
        <time>2021-08-22T14:16:51Z</time>
      </trkpt>
      <trkpt lat="45.05994" lon="2.62777">
        <ele>888.9</ele>
        <time>2021-08-22T14:16:53Z</time>
      </trkpt>
      <trkpt lat="45.05995" lon="2.62786">
        <ele>889.4</ele>
        <time>2021-08-22T14:16:55Z</time>
      </trkpt>
      <trkpt lat="45.05996" lon="2.62796">
        <ele>889.8</ele>
        <time>2021-08-22T14:16:57Z</time>
      </trkpt>
      <trkpt lat="45.05998" lon="2.62805">
        <ele>890.2</ele>
        <time>2021-08-22T14:16:59Z</time>
      </trkpt>
      <trkpt lat="45.05999" lon="2.62814">
        <ele>890.4</ele>
        <time>2021-08-22T14:17:01Z</time>
      </trkpt>
      <trkpt lat="45.06001" lon="2.62824">
        <ele>890.9</ele>
        <time>2021-08-22T14:17:03Z</time>
      </trkpt>
      <trkpt lat="45.06002" lon="2.62833">
        <ele>891.4</ele>
        <time>2021-08-22T14:17:05Z</time>
      </trkpt>
      <trkpt lat="45.06004" lon="2.62842">
        <ele>892.4</ele>
        <time>2021-08-22T14:17:07Z</time>
      </trkpt>
      <trkpt lat="45.06006" lon="2.62852">
        <ele>893.2</ele>
        <time>2021-08-22T14:17:09Z</time>
      </trkpt>
      <trkpt lat="45.06008" lon="2.62861">
        <ele>894.3</ele>
        <time>2021-08-22T14:17:11Z</time>
      </trkpt>
      <trkpt lat="45.0601" lon="2.62871">
        <ele>895.1</ele>
        <time>2021-08-22T14:17:13Z</time>
      </trkpt>
      <trkpt lat="45.06011" lon="2.62881">
        <ele>896.2</ele>
        <time>2021-08-22T14:17:15Z</time>
      </trkpt>
      <trkpt lat="45.06013" lon="2.6289">
        <ele>896.9</ele>
        <time>2021-08-22T14:17:17Z</time>
      </trkpt>
      <trkpt lat="45.06015" lon="2.629">
        <ele>897.6</ele>
        <time>2021-08-22T14:17:19Z</time>
      </trkpt>
      <trkpt lat="45.06017" lon="2.6291">
        <ele>898.5</ele>
        <time>2021-08-22T14:17:21Z</time>
      </trkpt>
      <trkpt lat="45.0602" lon="2.6292">
        <ele>898.8</ele>
        <time>2021-08-22T14:17:23Z</time>
      </trkpt>
      <trkpt lat="45.06022" lon="2.6293">
        <ele>898.9</ele>
        <time>2021-08-22T14:17:25Z</time>
      </trkpt>
      <trkpt lat="45.06024" lon="2.6294">
        <ele>899.2</ele>
        <time>2021-08-22T14:17:27Z</time>
      </trkpt>
      <trkpt lat="45.06026" lon="2.6295">
        <ele>899.4</ele>
        <time>2021-08-22T14:17:29Z</time>
      </trkpt>
      <trkpt lat="45.06028" lon="2.6296">
        <ele>899.4</ele>
        <time>2021-08-22T14:17:31Z</time>
      </trkpt>
      <trkpt lat="45.0603" lon="2.62969">
        <ele>899.8</ele>
        <time>2021-08-22T14:17:33Z</time>
      </trkpt>
      <trkpt lat="45.06032" lon="2.62979">
        <ele>900.2</ele>
        <time>2021-08-22T14:17:35Z</time>
      </trkpt>
      <trkpt lat="45.06034" lon="2.62989">
        <ele>900.3</ele>
        <time>2021-08-22T14:17:37Z</time>
      </trkpt>
      <trkpt lat="45.06035" lon="2.62998">
        <ele>900.7</ele>
        <time>2021-08-22T14:17:39Z</time>
      </trkpt>
      <trkpt lat="45.06036" lon="2.63008">
        <ele>901</ele>
        <time>2021-08-22T14:17:41Z</time>
      </trkpt>
      <trkpt lat="45.06037" lon="2.63017">
        <ele>901.2</ele>
        <time>2021-08-22T14:17:43Z</time>
      </trkpt>
      <trkpt lat="45.06038" lon="2.63027">
        <ele>901.6</ele>
        <time>2021-08-22T14:17:45Z</time>
      </trkpt>
      <trkpt lat="45.06039" lon="2.63037">
        <ele>901.7</ele>
        <time>2021-08-22T14:17:47Z</time>
      </trkpt>
      <trkpt lat="45.06039" lon="2.63046">
        <ele>902.3</ele>
        <time>2021-08-22T14:17:49Z</time>
      </trkpt>
      <trkpt lat="45.0604" lon="2.63056">
        <ele>902.8</ele>
        <time>2021-08-22T14:17:51Z</time>
      </trkpt>
      <trkpt lat="45.0604" lon="2.63066">
        <ele>903.4</ele>
        <time>2021-08-22T14:17:53Z</time>
      </trkpt>
      <trkpt lat="45.0604" lon="2.63076">
        <ele>903.9</ele>
        <time>2021-08-22T14:17:55Z</time>
      </trkpt>
      <trkpt lat="45.06041" lon="2.63086">
        <ele>904.2</ele>
        <time>2021-08-22T14:17:57Z</time>
      </trkpt>
      <trkpt lat="45.06041" lon="2.63096">
        <ele>905</ele>
        <time>2021-08-22T14:17:59Z</time>
      </trkpt>
      <trkpt lat="45.06042" lon="2.63105">
        <ele>905.6</ele>
        <time>2021-08-22T14:18:01Z</time>
      </trkpt>
      <trkpt lat="45.06042" lon="2.63115">
        <ele>906.4</ele>
        <time>2021-08-22T14:18:03Z</time>
      </trkpt>
      <trkpt lat="45.06044" lon="2.63125">
        <ele>906.7</ele>
        <time>2021-08-22T14:18:05Z</time>
      </trkpt>
      <trkpt lat="45.06045" lon="2.63135">
        <ele>907.2</ele>
        <time>2021-08-22T14:18:07Z</time>
      </trkpt>
      <trkpt lat="45.06046" lon="2.63145">
        <ele>907.3</ele>
        <time>2021-08-22T14:18:09Z</time>
      </trkpt>
      <trkpt lat="45.06049" lon="2.63155">
        <ele>907.2</ele>
        <time>2021-08-22T14:18:11Z</time>
      </trkpt>
      <trkpt lat="45.06051" lon="2.63165">
        <ele>907</ele>
        <time>2021-08-22T14:18:13Z</time>
      </trkpt>
      <trkpt lat="45.06053" lon="2.63175">
        <ele>906.7</ele>
        <time>2021-08-22T14:18:15Z</time>
      </trkpt>
      <trkpt lat="45.06056" lon="2.63183">
        <ele>906.4</ele>
        <time>2021-08-22T14:18:17Z</time>
      </trkpt>
      <trkpt lat="45.06059" lon="2.63193">
        <ele>905.8</ele>
        <time>2021-08-22T14:18:19Z</time>
      </trkpt>
      <trkpt lat="45.06063" lon="2.63201">
        <ele>905.2</ele>
        <time>2021-08-22T14:18:21Z</time>
      </trkpt>
      <trkpt lat="45.06067" lon="2.6321">
        <ele>904.5</ele>
        <time>2021-08-22T14:18:23Z</time>
      </trkpt>
      <trkpt lat="45.06071" lon="2.63218">
        <ele>903.7</ele>
        <time>2021-08-22T14:18:25Z</time>
      </trkpt>
      <trkpt lat="45.06075" lon="2.63225">
        <ele>902.9</ele>
        <time>2021-08-22T14:18:27Z</time>
      </trkpt>
      <trkpt lat="45.06079" lon="2.63233">
        <ele>902.2</ele>
        <time>2021-08-22T14:18:29Z</time>
      </trkpt>
      <trkpt lat="45.06083" lon="2.63241">
        <ele>901.6</ele>
        <time>2021-08-22T14:18:31Z</time>
      </trkpt>
      <trkpt lat="45.06088" lon="2.63249">
        <ele>901.6</ele>
        <time>2021-08-22T14:18:33Z</time>
      </trkpt>
      <trkpt lat="45.06092" lon="2.63257">
        <ele>901.4</ele>
        <time>2021-08-22T14:18:35Z</time>
      </trkpt>
      <trkpt lat="45.06097" lon="2.63264">
        <ele>901</ele>
        <time>2021-08-22T14:18:37Z</time>
      </trkpt>
      <trkpt lat="45.06101" lon="2.63272">
        <ele>900.8</ele>
        <time>2021-08-22T14:18:39Z</time>
      </trkpt>
      <trkpt lat="45.06105" lon="2.6328">
        <ele>900.6</ele>
        <time>2021-08-22T14:18:41Z</time>
      </trkpt>
      <trkpt lat="45.0611" lon="2.63287">
        <ele>900.3</ele>
        <time>2021-08-22T14:18:43Z</time>
      </trkpt>
      <trkpt lat="45.06114" lon="2.63295">
        <ele>900.1</ele>
        <time>2021-08-22T14:18:45Z</time>
      </trkpt>
      <trkpt lat="45.06119" lon="2.63303">
        <ele>900</ele>
        <time>2021-08-22T14:18:47Z</time>
      </trkpt>
      <trkpt lat="45.06123" lon="2.6331">
        <ele>899.8</ele>
        <time>2021-08-22T14:18:49Z</time>
      </trkpt>
      <trkpt lat="45.06128" lon="2.63318">
        <ele>899.8</ele>
        <time>2021-08-22T14:18:51Z</time>
      </trkpt>
      <trkpt lat="45.06133" lon="2.63326">
        <ele>899.7</ele>
        <time>2021-08-22T14:18:53Z</time>
      </trkpt>
      <trkpt lat="45.06137" lon="2.63334">
        <ele>899.7</ele>
        <time>2021-08-22T14:18:55Z</time>
      </trkpt>
      <trkpt lat="45.06142" lon="2.63342">
        <ele>899.1</ele>
        <time>2021-08-22T14:18:57Z</time>
      </trkpt>
      <trkpt lat="45.06146" lon="2.63349">
        <ele>898.5</ele>
        <time>2021-08-22T14:18:59Z</time>
      </trkpt>
      <trkpt lat="45.06151" lon="2.63357">
        <ele>897.8</ele>
        <time>2021-08-22T14:19:01Z</time>
      </trkpt>
      <trkpt lat="45.06156" lon="2.63365">
        <ele>897.1</ele>
        <time>2021-08-22T14:19:03Z</time>
      </trkpt>
      <trkpt lat="45.06161" lon="2.63373">
        <ele>896.2</ele>
        <time>2021-08-22T14:19:05Z</time>
      </trkpt>
      <trkpt lat="45.06165" lon="2.63382">
        <ele>895.7</ele>
        <time>2021-08-22T14:19:07Z</time>
      </trkpt>
      <trkpt lat="45.0617" lon="2.6339">
        <ele>895.1</ele>
        <time>2021-08-22T14:19:09Z</time>
      </trkpt>
      <trkpt lat="45.06174" lon="2.634">
        <ele>894.9</ele>
        <time>2021-08-22T14:19:11Z</time>
      </trkpt>
      <trkpt lat="45.06177" lon="2.6341">
        <ele>894.8</ele>
        <time>2021-08-22T14:19:13Z</time>
      </trkpt>
      <trkpt lat="45.06179" lon="2.63419">
        <ele>894.7</ele>
        <time>2021-08-22T14:19:15Z</time>
      </trkpt>
      <trkpt lat="45.06182" lon="2.63429">
        <ele>895</ele>
        <time>2021-08-22T14:19:17Z</time>
      </trkpt>
      <trkpt lat="45.06183" lon="2.63439">
        <ele>895.5</ele>
        <time>2021-08-22T14:19:19Z</time>
      </trkpt>
      <trkpt lat="45.06184" lon="2.63449">
        <ele>895.9</ele>
        <time>2021-08-22T14:19:21Z</time>
      </trkpt>
      <trkpt lat="45.06185" lon="2.6346">
        <ele>896.5</ele>
        <time>2021-08-22T14:19:23Z</time>
      </trkpt>
      <trkpt lat="45.06185" lon="2.6347">
        <ele>897.1</ele>
        <time>2021-08-22T14:19:25Z</time>
      </trkpt>
      <trkpt lat="45.06187" lon="2.63481">
        <ele>897.6</ele>
        <time>2021-08-22T14:19:27Z</time>
      </trkpt>
      <trkpt lat="45.06188" lon="2.63491">
        <ele>898.1</ele>
        <time>2021-08-22T14:19:29Z</time>
      </trkpt>
      <trkpt lat="45.0619" lon="2.63501">
        <ele>898.4</ele>
        <time>2021-08-22T14:19:31Z</time>
      </trkpt>
      <trkpt lat="45.06192" lon="2.63511">
        <ele>899</ele>
        <time>2021-08-22T14:19:33Z</time>
      </trkpt>
      <trkpt lat="45.06195" lon="2.63521">
        <ele>899.6</ele>
        <time>2021-08-22T14:19:35Z</time>
      </trkpt>
      <trkpt lat="45.06198" lon="2.6353">
        <ele>900.1</ele>
        <time>2021-08-22T14:19:37Z</time>
      </trkpt>
      <trkpt lat="45.06201" lon="2.6354">
        <ele>900.6</ele>
        <time>2021-08-22T14:19:39Z</time>
      </trkpt>
      <trkpt lat="45.06204" lon="2.6355">
        <ele>901.1</ele>
        <time>2021-08-22T14:19:41Z</time>
      </trkpt>
      <trkpt lat="45.06208" lon="2.6356">
        <ele>901.5</ele>
        <time>2021-08-22T14:19:43Z</time>
      </trkpt>
      <trkpt lat="45.06211" lon="2.63571">
        <ele>902</ele>
        <time>2021-08-22T14:19:45Z</time>
      </trkpt>
      <trkpt lat="45.06215" lon="2.63581">
        <ele>902.3</ele>
        <time>2021-08-22T14:19:47Z</time>
      </trkpt>
      <trkpt lat="45.06218" lon="2.63591">
        <ele>902.4</ele>
        <time>2021-08-22T14:19:49Z</time>
      </trkpt>
      <trkpt lat="45.06222" lon="2.63601">
        <ele>902.4</ele>
        <time>2021-08-22T14:19:51Z</time>
      </trkpt>
      <trkpt lat="45.06225" lon="2.6361">
        <ele>902.4</ele>
        <time>2021-08-22T14:19:53Z</time>
      </trkpt>
      <trkpt lat="45.06228" lon="2.6362">
        <ele>902.4</ele>
        <time>2021-08-22T14:19:55Z</time>
      </trkpt>
      <trkpt lat="45.0623" lon="2.63631">
        <ele>902.6</ele>
        <time>2021-08-22T14:19:57Z</time>
      </trkpt>
      <trkpt lat="45.06232" lon="2.63642">
        <ele>902.9</ele>
        <time>2021-08-22T14:19:59Z</time>
      </trkpt>
      <trkpt lat="45.06233" lon="2.63652">
        <ele>903.2</ele>
        <time>2021-08-22T14:20:01Z</time>
      </trkpt>
      <trkpt lat="45.06235" lon="2.63663">
        <ele>903.6</ele>
        <time>2021-08-22T14:20:03Z</time>
      </trkpt>
      <trkpt lat="45.06235" lon="2.63674">
        <ele>904</ele>
        <time>2021-08-22T14:20:05Z</time>
      </trkpt>
      <trkpt lat="45.06236" lon="2.63684">
        <ele>903.9</ele>
        <time>2021-08-22T14:20:07Z</time>
      </trkpt>
      <trkpt lat="45.06236" lon="2.63695">
        <ele>904.4</ele>
        <time>2021-08-22T14:20:09Z</time>
      </trkpt>
      <trkpt lat="45.06236" lon="2.63705">
        <ele>904.7</ele>
        <time>2021-08-22T14:20:11Z</time>
      </trkpt>
      <trkpt lat="45.06236" lon="2.63715">
        <ele>905</ele>
        <time>2021-08-22T14:20:13Z</time>
      </trkpt>
      <trkpt lat="45.06235" lon="2.63725">
        <ele>905.4</ele>
        <time>2021-08-22T14:20:15Z</time>
      </trkpt>
      <trkpt lat="45.06235" lon="2.63735">
        <ele>905.7</ele>
        <time>2021-08-22T14:20:17Z</time>
      </trkpt>
      <trkpt lat="45.06235" lon="2.63745">
        <ele>906</ele>
        <time>2021-08-22T14:20:19Z</time>
      </trkpt>
      <trkpt lat="45.06234" lon="2.63755">
        <ele>906.5</ele>
        <time>2021-08-22T14:20:21Z</time>
      </trkpt>
      <trkpt lat="45.06234" lon="2.63766">
        <ele>907.3</ele>
        <time>2021-08-22T14:20:23Z</time>
      </trkpt>
      <trkpt lat="45.06234" lon="2.63776">
        <ele>907.9</ele>
        <time>2021-08-22T14:20:25Z</time>
      </trkpt>
      <trkpt lat="45.06234" lon="2.63786">
        <ele>908.5</ele>
        <time>2021-08-22T14:20:27Z</time>
      </trkpt>
      <trkpt lat="45.06235" lon="2.63796">
        <ele>908.7</ele>
        <time>2021-08-22T14:20:29Z</time>
      </trkpt>
      <trkpt lat="45.06238" lon="2.63805">
        <ele>908.7</ele>
        <time>2021-08-22T14:20:31Z</time>
      </trkpt>
      <trkpt lat="45.06241" lon="2.63814">
        <ele>908.3</ele>
        <time>2021-08-22T14:20:33Z</time>
      </trkpt>
      <trkpt lat="45.06245" lon="2.63823">
        <ele>907.8</ele>
        <time>2021-08-22T14:20:35Z</time>
      </trkpt>
      <trkpt lat="45.0625" lon="2.6383">
        <ele>906.8</ele>
        <time>2021-08-22T14:20:37Z</time>
      </trkpt>
      <trkpt lat="45.06256" lon="2.63836">
        <ele>906.7</ele>
        <time>2021-08-22T14:20:39Z</time>
      </trkpt>
      <trkpt lat="45.06263" lon="2.63842">
        <ele>906.6</ele>
        <time>2021-08-22T14:20:41Z</time>
      </trkpt>
      <trkpt lat="45.0627" lon="2.63846">
        <ele>906.3</ele>
        <time>2021-08-22T14:20:43Z</time>
      </trkpt>
      <trkpt lat="45.06277" lon="2.63851">
        <ele>905.9</ele>
        <time>2021-08-22T14:20:45Z</time>
      </trkpt>
      <trkpt lat="45.06285" lon="2.63855">
        <ele>905.4</ele>
        <time>2021-08-22T14:20:47Z</time>
      </trkpt>
      <trkpt lat="45.06292" lon="2.63859">
        <ele>905.1</ele>
        <time>2021-08-22T14:20:49Z</time>
      </trkpt>
      <trkpt lat="45.06299" lon="2.63863">
        <ele>904.6</ele>
        <time>2021-08-22T14:20:51Z</time>
      </trkpt>
      <trkpt lat="45.06306" lon="2.63868">
        <ele>904.1</ele>
        <time>2021-08-22T14:20:53Z</time>
      </trkpt>
      <trkpt lat="45.06313" lon="2.63873">
        <ele>903.6</ele>
        <time>2021-08-22T14:20:55Z</time>
      </trkpt>
      <trkpt lat="45.0632" lon="2.63879">
        <ele>903.2</ele>
        <time>2021-08-22T14:20:57Z</time>
      </trkpt>
      <trkpt lat="45.06326" lon="2.63885">
        <ele>902.7</ele>
        <time>2021-08-22T14:20:59Z</time>
      </trkpt>
      <trkpt lat="45.06332" lon="2.63892">
        <ele>902.2</ele>
        <time>2021-08-22T14:21:01Z</time>
      </trkpt>
      <trkpt lat="45.06339" lon="2.639">
        <ele>902</ele>
        <time>2021-08-22T14:21:03Z</time>
      </trkpt>
      <trkpt lat="45.06344" lon="2.63909">
        <ele>901.8</ele>
        <time>2021-08-22T14:21:05Z</time>
      </trkpt>
      <trkpt lat="45.06349" lon="2.63918">
        <ele>901.7</ele>
        <time>2021-08-22T14:21:07Z</time>
      </trkpt>
      <trkpt lat="45.06351" lon="2.63929">
        <ele>901.9</ele>
        <time>2021-08-22T14:21:09Z</time>
      </trkpt>
      <trkpt lat="45.06353" lon="2.6394">
        <ele>902.2</ele>
        <time>2021-08-22T14:21:11Z</time>
      </trkpt>
      <trkpt lat="45.06354" lon="2.6395">
        <ele>902.4</ele>
        <time>2021-08-22T14:21:13Z</time>
      </trkpt>
      <trkpt lat="45.06356" lon="2.63961">
        <ele>902.5</ele>
        <time>2021-08-22T14:21:15Z</time>
      </trkpt>
      <trkpt lat="45.06358" lon="2.63972">
        <ele>902.7</ele>
        <time>2021-08-22T14:21:17Z</time>
      </trkpt>
      <trkpt lat="45.0636" lon="2.63984">
        <ele>902.9</ele>
        <time>2021-08-22T14:21:19Z</time>
      </trkpt>
      <trkpt lat="45.0636" lon="2.63995">
        <ele>903.3</ele>
        <time>2021-08-22T14:21:21Z</time>
      </trkpt>
      <trkpt lat="45.06357" lon="2.64007">
        <ele>903.6</ele>
        <time>2021-08-22T14:21:23Z</time>
      </trkpt>
      <trkpt lat="45.06355" lon="2.6402">
        <ele>903.6</ele>
        <time>2021-08-22T14:21:25Z</time>
      </trkpt>
      <trkpt lat="45.06353" lon="2.64034">
        <ele>903.6</ele>
        <time>2021-08-22T14:21:27Z</time>
      </trkpt>
      <trkpt lat="45.06352" lon="2.64048">
        <ele>903.5</ele>
        <time>2021-08-22T14:21:29Z</time>
      </trkpt>
      <trkpt lat="45.06352" lon="2.64064">
        <ele>903.2</ele>
        <time>2021-08-22T14:21:31Z</time>
      </trkpt>
      <trkpt lat="45.06354" lon="2.64079">
        <ele>902.8</ele>
        <time>2021-08-22T14:21:33Z</time>
      </trkpt>
      <trkpt lat="45.06359" lon="2.64095">
        <ele>902.5</ele>
        <time>2021-08-22T14:21:35Z</time>
      </trkpt>
      <trkpt lat="45.06365" lon="2.64111">
        <ele>902.1</ele>
        <time>2021-08-22T14:21:37Z</time>
      </trkpt>
      <trkpt lat="45.06372" lon="2.64124">
        <ele>901.5</ele>
        <time>2021-08-22T14:21:39Z</time>
      </trkpt>
      <trkpt lat="45.06379" lon="2.64137">
        <ele>900.9</ele>
        <time>2021-08-22T14:21:41Z</time>
      </trkpt>
      <trkpt lat="45.06384" lon="2.64151">
        <ele>900.3</ele>
        <time>2021-08-22T14:21:43Z</time>
      </trkpt>
      <trkpt lat="45.06389" lon="2.64164">
        <ele>899.7</ele>
        <time>2021-08-22T14:21:45Z</time>
      </trkpt>
      <trkpt lat="45.06392" lon="2.64178">
        <ele>899.7</ele>
        <time>2021-08-22T14:21:47Z</time>
      </trkpt>
      <trkpt lat="45.06395" lon="2.6419">
        <ele>899.8</ele>
        <time>2021-08-22T14:21:49Z</time>
      </trkpt>
      <trkpt lat="45.06397" lon="2.642">
        <ele>899.9</ele>
        <time>2021-08-22T14:21:51Z</time>
      </trkpt>
      <trkpt lat="45.06397" lon="2.64207">
        <ele>900.1</ele>
        <time>2021-08-22T14:21:53Z</time>
      </trkpt>
      <trkpt lat="45.06398" lon="2.64212">
        <ele>900.1</ele>
        <time>2021-08-22T14:21:55Z</time>
      </trkpt>
      <trkpt lat="45.06399" lon="2.64214">
        <ele>900.1</ele>
        <time>2021-08-22T14:21:57Z</time>
      </trkpt>
      <trkpt lat="45.06399" lon="2.64214">
        <ele>900</ele>
        <time>2021-08-22T14:21:59Z</time>
      </trkpt>
      <trkpt lat="45.06399" lon="2.64214">
        <ele>900</ele>
        <time>2021-08-22T14:22:01Z</time>
      </trkpt>
      <trkpt lat="45.06399" lon="2.64215">
        <ele>900.1</ele>
        <time>2021-08-22T14:22:03Z</time>
      </trkpt>
      <trkpt lat="45.06399" lon="2.64214">
        <ele>900.1</ele>
        <time>2021-08-22T14:22:05Z</time>
      </trkpt>
      <trkpt lat="45.06404" lon="2.64229">
        <ele>900</ele>
        <time>2021-08-22T14:26:45Z</time>
      </trkpt>
      <trkpt lat="45.06406" lon="2.64235">
        <ele>899.9</ele>
        <time>2021-08-22T14:26:47Z</time>
      </trkpt>
      <trkpt lat="45.06409" lon="2.64241">
        <ele>899.7</ele>
        <time>2021-08-22T14:26:49Z</time>
      </trkpt>
      <trkpt lat="45.06411" lon="2.64248">
        <ele>899.7</ele>
        <time>2021-08-22T14:26:51Z</time>
      </trkpt>
      <trkpt lat="45.06413" lon="2.64255">
        <ele>899.8</ele>
        <time>2021-08-22T14:26:53Z</time>
      </trkpt>
      <trkpt lat="45.06415" lon="2.64263">
        <ele>900</ele>
        <time>2021-08-22T14:26:55Z</time>
      </trkpt>
      <trkpt lat="45.06417" lon="2.6427">
        <ele>900.2</ele>
        <time>2021-08-22T14:26:57Z</time>
      </trkpt>
      <trkpt lat="45.06419" lon="2.64277">
        <ele>900.8</ele>
        <time>2021-08-22T14:26:59Z</time>
      </trkpt>
      <trkpt lat="45.06421" lon="2.64284">
        <ele>901.4</ele>
        <time>2021-08-22T14:27:01Z</time>
      </trkpt>
      <trkpt lat="45.06423" lon="2.64292">
        <ele>902</ele>
        <time>2021-08-22T14:27:03Z</time>
      </trkpt>
      <trkpt lat="45.06425" lon="2.643">
        <ele>902.5</ele>
        <time>2021-08-22T14:27:05Z</time>
      </trkpt>
      <trkpt lat="45.06427" lon="2.64308">
        <ele>903.1</ele>
        <time>2021-08-22T14:27:07Z</time>
      </trkpt>
      <trkpt lat="45.06429" lon="2.64317">
        <ele>903.7</ele>
        <time>2021-08-22T14:27:09Z</time>
      </trkpt>
      <trkpt lat="45.06432" lon="2.64326">
        <ele>904.2</ele>
        <time>2021-08-22T14:27:11Z</time>
      </trkpt>
      <trkpt lat="45.06434" lon="2.64334">
        <ele>904.7</ele>
        <time>2021-08-22T14:27:13Z</time>
      </trkpt>
      <trkpt lat="45.06434" lon="2.64343">
        <ele>905.2</ele>
        <time>2021-08-22T14:27:15Z</time>
      </trkpt>
      <trkpt lat="45.06436" lon="2.64351">
        <ele>905.8</ele>
        <time>2021-08-22T14:27:17Z</time>
      </trkpt>
      <trkpt lat="45.06437" lon="2.6436">
        <ele>906.4</ele>
        <time>2021-08-22T14:27:19Z</time>
      </trkpt>
      <trkpt lat="45.06439" lon="2.64369">
        <ele>906.9</ele>
        <time>2021-08-22T14:27:21Z</time>
      </trkpt>
      <trkpt lat="45.06441" lon="2.64377">
        <ele>907.3</ele>
        <time>2021-08-22T14:27:23Z</time>
      </trkpt>
      <trkpt lat="45.06443" lon="2.64386">
        <ele>907.8</ele>
        <time>2021-08-22T14:27:25Z</time>
      </trkpt>
      <trkpt lat="45.06445" lon="2.64395">
        <ele>908.2</ele>
        <time>2021-08-22T14:27:27Z</time>
      </trkpt>
      <trkpt lat="45.06447" lon="2.64403">
        <ele>908.5</ele>
        <time>2021-08-22T14:27:29Z</time>
      </trkpt>
      <trkpt lat="45.06449" lon="2.64412">
        <ele>908.9</ele>
        <time>2021-08-22T14:27:31Z</time>
      </trkpt>
      <trkpt lat="45.06451" lon="2.64421">
        <ele>909.1</ele>
        <time>2021-08-22T14:27:33Z</time>
      </trkpt>
      <trkpt lat="45.06454" lon="2.64429">
        <ele>909.4</ele>
        <time>2021-08-22T14:27:35Z</time>
      </trkpt>
      <trkpt lat="45.06456" lon="2.64439">
        <ele>909.6</ele>
        <time>2021-08-22T14:27:37Z</time>
      </trkpt>
      <trkpt lat="45.06458" lon="2.64447">
        <ele>909.8</ele>
        <time>2021-08-22T14:27:39Z</time>
      </trkpt>
      <trkpt lat="45.0646" lon="2.64455">
        <ele>909.9</ele>
        <time>2021-08-22T14:27:41Z</time>
      </trkpt>
      <trkpt lat="45.06462" lon="2.64463">
        <ele>910.1</ele>
        <time>2021-08-22T14:27:43Z</time>
      </trkpt>
      <trkpt lat="45.06464" lon="2.6447">
        <ele>910.2</ele>
        <time>2021-08-22T14:27:45Z</time>
      </trkpt>
      <trkpt lat="45.06465" lon="2.64477">
        <ele>910.3</ele>
        <time>2021-08-22T14:27:47Z</time>
      </trkpt>
      <trkpt lat="45.06468" lon="2.64484">
        <ele>910.3</ele>
        <time>2021-08-22T14:27:49Z</time>
      </trkpt>
      <trkpt lat="45.0647" lon="2.64491">
        <ele>910.3</ele>
        <time>2021-08-22T14:27:51Z</time>
      </trkpt>
      <trkpt lat="45.06472" lon="2.64498">
        <ele>910.3</ele>
        <time>2021-08-22T14:27:53Z</time>
      </trkpt>
      <trkpt lat="45.06474" lon="2.64506">
        <ele>910.5</ele>
        <time>2021-08-22T14:27:55Z</time>
      </trkpt>
      <trkpt lat="45.06476" lon="2.64512">
        <ele>910.7</ele>
        <time>2021-08-22T14:27:57Z</time>
      </trkpt>
      <trkpt lat="45.06479" lon="2.64518">
        <ele>910.8</ele>
        <time>2021-08-22T14:27:59Z</time>
      </trkpt>
      <trkpt lat="45.06481" lon="2.64524">
        <ele>911</ele>
        <time>2021-08-22T14:28:01Z</time>
      </trkpt>
      <trkpt lat="45.06484" lon="2.6453">
        <ele>911</ele>
        <time>2021-08-22T14:28:03Z</time>
      </trkpt>
      <trkpt lat="45.06487" lon="2.64536">
        <ele>911.1</ele>
        <time>2021-08-22T14:28:05Z</time>
      </trkpt>
      <trkpt lat="45.0649" lon="2.64541">
        <ele>911.1</ele>
        <time>2021-08-22T14:28:07Z</time>
      </trkpt>
      <trkpt lat="45.06494" lon="2.64546">
        <ele>911</ele>
        <time>2021-08-22T14:28:09Z</time>
      </trkpt>
      <trkpt lat="45.06497" lon="2.6455">
        <ele>911</ele>
        <time>2021-08-22T14:28:11Z</time>
      </trkpt>
      <trkpt lat="45.065" lon="2.64555">
        <ele>911</ele>
        <time>2021-08-22T14:28:13Z</time>
      </trkpt>
      <trkpt lat="45.06503" lon="2.64559">
        <ele>911.3</ele>
        <time>2021-08-22T14:28:15Z</time>
      </trkpt>
      <trkpt lat="45.06506" lon="2.64564">
        <ele>911.7</ele>
        <time>2021-08-22T14:28:17Z</time>
      </trkpt>
      <trkpt lat="45.0651" lon="2.64569">
        <ele>912</ele>
        <time>2021-08-22T14:28:19Z</time>
      </trkpt>
      <trkpt lat="45.06513" lon="2.64573">
        <ele>912.3</ele>
        <time>2021-08-22T14:28:21Z</time>
      </trkpt>
      <trkpt lat="45.06516" lon="2.64578">
        <ele>912.5</ele>
        <time>2021-08-22T14:28:23Z</time>
      </trkpt>
      <trkpt lat="45.06519" lon="2.64583">
        <ele>912.7</ele>
        <time>2021-08-22T14:28:25Z</time>
      </trkpt>
      <trkpt lat="45.06522" lon="2.64588">
        <ele>913.1</ele>
        <time>2021-08-22T14:28:27Z</time>
      </trkpt>
      <trkpt lat="45.06525" lon="2.64592">
        <ele>913.5</ele>
        <time>2021-08-22T14:28:29Z</time>
      </trkpt>
      <trkpt lat="45.06529" lon="2.64597">
        <ele>913.7</ele>
        <time>2021-08-22T14:28:31Z</time>
      </trkpt>
      <trkpt lat="45.06532" lon="2.64602">
        <ele>914</ele>
        <time>2021-08-22T14:28:33Z</time>
      </trkpt>
      <trkpt lat="45.06535" lon="2.64607">
        <ele>914.3</ele>
        <time>2021-08-22T14:28:35Z</time>
      </trkpt>
      <trkpt lat="45.06538" lon="2.64612">
        <ele>914.6</ele>
        <time>2021-08-22T14:28:37Z</time>
      </trkpt>
      <trkpt lat="45.06541" lon="2.64616">
        <ele>914.7</ele>
        <time>2021-08-22T14:28:39Z</time>
      </trkpt>
      <trkpt lat="45.06544" lon="2.64621">
        <ele>914.9</ele>
        <time>2021-08-22T14:28:41Z</time>
      </trkpt>
      <trkpt lat="45.06546" lon="2.64627">
        <ele>915.1</ele>
        <time>2021-08-22T14:28:43Z</time>
      </trkpt>
      <trkpt lat="45.06549" lon="2.64631">
        <ele>915.2</ele>
        <time>2021-08-22T14:28:45Z</time>
      </trkpt>
      <trkpt lat="45.06551" lon="2.64637">
        <ele>915.4</ele>
        <time>2021-08-22T14:28:47Z</time>
      </trkpt>
      <trkpt lat="45.06554" lon="2.64642">
        <ele>915.5</ele>
        <time>2021-08-22T14:28:49Z</time>
      </trkpt>
      <trkpt lat="45.06556" lon="2.64648">
        <ele>915.7</ele>
        <time>2021-08-22T14:28:51Z</time>
      </trkpt>
      <trkpt lat="45.06558" lon="2.64654">
        <ele>915.8</ele>
        <time>2021-08-22T14:28:53Z</time>
      </trkpt>
      <trkpt lat="45.06559" lon="2.64659">
        <ele>915.9</ele>
        <time>2021-08-22T14:28:55Z</time>
      </trkpt>
      <trkpt lat="45.06561" lon="2.64665">
        <ele>916.1</ele>
        <time>2021-08-22T14:28:57Z</time>
      </trkpt>
      <trkpt lat="45.06563" lon="2.64671">
        <ele>916.2</ele>
        <time>2021-08-22T14:28:59Z</time>
      </trkpt>
      <trkpt lat="45.06563" lon="2.64678">
        <ele>916.4</ele>
        <time>2021-08-22T14:29:01Z</time>
      </trkpt>
      <trkpt lat="45.06564" lon="2.64684">
        <ele>916.6</ele>
        <time>2021-08-22T14:29:03Z</time>
      </trkpt>
      <trkpt lat="45.06565" lon="2.6469">
        <ele>916.8</ele>
        <time>2021-08-22T14:29:05Z</time>
      </trkpt>
      <trkpt lat="45.06566" lon="2.64697">
        <ele>917.1</ele>
        <time>2021-08-22T14:29:07Z</time>
      </trkpt>
      <trkpt lat="45.06567" lon="2.64704">
        <ele>917.3</ele>
        <time>2021-08-22T14:29:09Z</time>
      </trkpt>
      <trkpt lat="45.06567" lon="2.6471">
        <ele>917.6</ele>
        <time>2021-08-22T14:29:11Z</time>
      </trkpt>
      <trkpt lat="45.06567" lon="2.64717">
        <ele>917.9</ele>
        <time>2021-08-22T14:29:13Z</time>
      </trkpt>
      <trkpt lat="45.06567" lon="2.64723">
        <ele>918.1</ele>
        <time>2021-08-22T14:29:15Z</time>
      </trkpt>
      <trkpt lat="45.06567" lon="2.6473">
        <ele>918.5</ele>
        <time>2021-08-22T14:29:17Z</time>
      </trkpt>
      <trkpt lat="45.06566" lon="2.64737">
        <ele>918.9</ele>
        <time>2021-08-22T14:29:19Z</time>
      </trkpt>
      <trkpt lat="45.06566" lon="2.64744">
        <ele>919.2</ele>
        <time>2021-08-22T14:29:21Z</time>
      </trkpt>
      <trkpt lat="45.06566" lon="2.64751">
        <ele>919.6</ele>
        <time>2021-08-22T14:29:23Z</time>
      </trkpt>
      <trkpt lat="45.06565" lon="2.64759">
        <ele>920</ele>
        <time>2021-08-22T14:29:25Z</time>
      </trkpt>
      <trkpt lat="45.06564" lon="2.64766">
        <ele>920.5</ele>
        <time>2021-08-22T14:29:27Z</time>
      </trkpt>
      <trkpt lat="45.06564" lon="2.64775">
        <ele>921</ele>
        <time>2021-08-22T14:29:29Z</time>
      </trkpt>
      <trkpt lat="45.06564" lon="2.64783">
        <ele>921.4</ele>
        <time>2021-08-22T14:29:31Z</time>
      </trkpt>
      <trkpt lat="45.06564" lon="2.64791">
        <ele>921.8</ele>
        <time>2021-08-22T14:29:33Z</time>
      </trkpt>
      <trkpt lat="45.06564" lon="2.64799">
        <ele>922.2</ele>
        <time>2021-08-22T14:29:35Z</time>
      </trkpt>
      <trkpt lat="45.06565" lon="2.64806">
        <ele>922.4</ele>
        <time>2021-08-22T14:29:37Z</time>
      </trkpt>
      <trkpt lat="45.06566" lon="2.64814">
        <ele>922.6</ele>
        <time>2021-08-22T14:29:39Z</time>
      </trkpt>
      <trkpt lat="45.06566" lon="2.64821">
        <ele>922.9</ele>
        <time>2021-08-22T14:29:41Z</time>
      </trkpt>
      <trkpt lat="45.06567" lon="2.64828">
        <ele>923</ele>
        <time>2021-08-22T14:29:43Z</time>
      </trkpt>
      <trkpt lat="45.06569" lon="2.64835">
        <ele>923.1</ele>
        <time>2021-08-22T14:29:45Z</time>
      </trkpt>
      <trkpt lat="45.0657" lon="2.64843">
        <ele>923.5</ele>
        <time>2021-08-22T14:29:47Z</time>
      </trkpt>
      <trkpt lat="45.06572" lon="2.64849">
        <ele>923.7</ele>
        <time>2021-08-22T14:29:49Z</time>
      </trkpt>
      <trkpt lat="45.06574" lon="2.64856">
        <ele>923.8</ele>
        <time>2021-08-22T14:29:51Z</time>
      </trkpt>
      <trkpt lat="45.06576" lon="2.64862">
        <ele>924</ele>
        <time>2021-08-22T14:29:53Z</time>
      </trkpt>
      <trkpt lat="45.06578" lon="2.64869">
        <ele>924.2</ele>
        <time>2021-08-22T14:29:55Z</time>
      </trkpt>
      <trkpt lat="45.0658" lon="2.64876">
        <ele>924.2</ele>
        <time>2021-08-22T14:29:57Z</time>
      </trkpt>
      <trkpt lat="45.06582" lon="2.64882">
        <ele>924.3</ele>
        <time>2021-08-22T14:29:59Z</time>
      </trkpt>
      <trkpt lat="45.06584" lon="2.64888">
        <ele>924.6</ele>
        <time>2021-08-22T14:30:01Z</time>
      </trkpt>
      <trkpt lat="45.06586" lon="2.64895">
        <ele>924.8</ele>
        <time>2021-08-22T14:30:03Z</time>
      </trkpt>
      <trkpt lat="45.06588" lon="2.64901">
        <ele>924.9</ele>
        <time>2021-08-22T14:30:05Z</time>
      </trkpt>
      <trkpt lat="45.0659" lon="2.64907">
        <ele>925.1</ele>
        <time>2021-08-22T14:30:07Z</time>
      </trkpt>
      <trkpt lat="45.06593" lon="2.64913">
        <ele>925.2</ele>
        <time>2021-08-22T14:30:09Z</time>
      </trkpt>
      <trkpt lat="45.06595" lon="2.64919">
        <ele>925.2</ele>
        <time>2021-08-22T14:30:11Z</time>
      </trkpt>
      <trkpt lat="45.06597" lon="2.64925">
        <ele>925.2</ele>
        <time>2021-08-22T14:30:13Z</time>
      </trkpt>
      <trkpt lat="45.06599" lon="2.64931">
        <ele>925.2</ele>
        <time>2021-08-22T14:30:15Z</time>
      </trkpt>
      <trkpt lat="45.066" lon="2.64937">
        <ele>925.2</ele>
        <time>2021-08-22T14:30:17Z</time>
      </trkpt>
      <trkpt lat="45.06602" lon="2.64944">
        <ele>925.2</ele>
        <time>2021-08-22T14:30:19Z</time>
      </trkpt>
      <trkpt lat="45.06603" lon="2.64949">
        <ele>925.3</ele>
        <time>2021-08-22T14:30:21Z</time>
      </trkpt>
      <trkpt lat="45.06604" lon="2.64955">
        <ele>925.5</ele>
        <time>2021-08-22T14:30:23Z</time>
      </trkpt>
      <trkpt lat="45.06606" lon="2.64961">
        <ele>925.5</ele>
        <time>2021-08-22T14:30:25Z</time>
      </trkpt>
      <trkpt lat="45.06607" lon="2.64967">
        <ele>925.6</ele>
        <time>2021-08-22T14:30:27Z</time>
      </trkpt>
      <trkpt lat="45.06608" lon="2.64973">
        <ele>925.7</ele>
        <time>2021-08-22T14:30:29Z</time>
      </trkpt>
      <trkpt lat="45.06609" lon="2.64979">
        <ele>925.9</ele>
        <time>2021-08-22T14:30:31Z</time>
      </trkpt>
      <trkpt lat="45.0661" lon="2.64986">
        <ele>926</ele>
        <time>2021-08-22T14:30:33Z</time>
      </trkpt>
      <trkpt lat="45.06612" lon="2.64991">
        <ele>926.1</ele>
        <time>2021-08-22T14:30:35Z</time>
      </trkpt>
      <trkpt lat="45.06613" lon="2.64997">
        <ele>926.3</ele>
        <time>2021-08-22T14:30:37Z</time>
      </trkpt>
      <trkpt lat="45.06613" lon="2.65004">
        <ele>926.6</ele>
        <time>2021-08-22T14:30:39Z</time>
      </trkpt>
      <trkpt lat="45.06614" lon="2.6501">
        <ele>926.8</ele>
        <time>2021-08-22T14:30:41Z</time>
      </trkpt>
      <trkpt lat="45.06614" lon="2.65016">
        <ele>927.1</ele>
        <time>2021-08-22T14:30:43Z</time>
      </trkpt>
      <trkpt lat="45.06615" lon="2.65022">
        <ele>927.3</ele>
        <time>2021-08-22T14:30:45Z</time>
      </trkpt>
      <trkpt lat="45.06616" lon="2.65029">
        <ele>927.5</ele>
        <time>2021-08-22T14:30:47Z</time>
      </trkpt>
      <trkpt lat="45.06616" lon="2.65036">
        <ele>927.9</ele>
        <time>2021-08-22T14:30:49Z</time>
      </trkpt>
      <trkpt lat="45.06616" lon="2.65042">
        <ele>928.2</ele>
        <time>2021-08-22T14:30:51Z</time>
      </trkpt>
      <trkpt lat="45.06616" lon="2.65048">
        <ele>928.6</ele>
        <time>2021-08-22T14:30:53Z</time>
      </trkpt>
      <trkpt lat="45.06616" lon="2.65055">
        <ele>928.9</ele>
        <time>2021-08-22T14:30:55Z</time>
      </trkpt>
      <trkpt lat="45.06616" lon="2.65062">
        <ele>929.3</ele>
        <time>2021-08-22T14:30:57Z</time>
      </trkpt>
      <trkpt lat="45.06616" lon="2.65069">
        <ele>929.6</ele>
        <time>2021-08-22T14:30:59Z</time>
      </trkpt>
      <trkpt lat="45.06616" lon="2.65076">
        <ele>930.1</ele>
        <time>2021-08-22T14:31:01Z</time>
      </trkpt>
      <trkpt lat="45.06616" lon="2.65083">
        <ele>930.5</ele>
        <time>2021-08-22T14:31:03Z</time>
      </trkpt>
      <trkpt lat="45.06616" lon="2.65091">
        <ele>931</ele>
        <time>2021-08-22T14:31:05Z</time>
      </trkpt>
      <trkpt lat="45.06616" lon="2.65099">
        <ele>931.5</ele>
        <time>2021-08-22T14:31:07Z</time>
      </trkpt>
      <trkpt lat="45.06616" lon="2.65106">
        <ele>931.9</ele>
        <time>2021-08-22T14:31:09Z</time>
      </trkpt>
      <trkpt lat="45.06616" lon="2.65113">
        <ele>932.4</ele>
        <time>2021-08-22T14:31:11Z</time>
      </trkpt>
      <trkpt lat="45.06616" lon="2.65121">
        <ele>932.9</ele>
        <time>2021-08-22T14:31:13Z</time>
      </trkpt>
      <trkpt lat="45.06616" lon="2.65129">
        <ele>933.4</ele>
        <time>2021-08-22T14:31:15Z</time>
      </trkpt>
      <trkpt lat="45.06616" lon="2.65137">
        <ele>933.8</ele>
        <time>2021-08-22T14:31:17Z</time>
      </trkpt>
      <trkpt lat="45.06617" lon="2.65145">
        <ele>934.2</ele>
        <time>2021-08-22T14:31:19Z</time>
      </trkpt>
      <trkpt lat="45.06617" lon="2.65154">
        <ele>934.6</ele>
        <time>2021-08-22T14:31:21Z</time>
      </trkpt>
      <trkpt lat="45.06619" lon="2.65162">
        <ele>934.8</ele>
        <time>2021-08-22T14:31:23Z</time>
      </trkpt>
      <trkpt lat="45.0662" lon="2.6517">
        <ele>935</ele>
        <time>2021-08-22T14:31:25Z</time>
      </trkpt>
      <trkpt lat="45.06622" lon="2.65178">
        <ele>935.1</ele>
        <time>2021-08-22T14:31:27Z</time>
      </trkpt>
      <trkpt lat="45.06625" lon="2.65185">
        <ele>935</ele>
        <time>2021-08-22T14:31:29Z</time>
      </trkpt>
      <trkpt lat="45.06628" lon="2.65194">
        <ele>934.9</ele>
        <time>2021-08-22T14:31:31Z</time>
      </trkpt>
      <trkpt lat="45.06631" lon="2.65201">
        <ele>934.8</ele>
        <time>2021-08-22T14:31:33Z</time>
      </trkpt>
      <trkpt lat="45.06635" lon="2.65208">
        <ele>934.3</ele>
        <time>2021-08-22T14:31:35Z</time>
      </trkpt>
      <trkpt lat="45.06639" lon="2.65216">
        <ele>933.8</ele>
        <time>2021-08-22T14:31:37Z</time>
      </trkpt>
      <trkpt lat="45.06642" lon="2.65223">
        <ele>933.4</ele>
        <time>2021-08-22T14:31:39Z</time>
      </trkpt>
      <trkpt lat="45.06646" lon="2.65231">
        <ele>932.8</ele>
        <time>2021-08-22T14:31:41Z</time>
      </trkpt>
      <trkpt lat="45.06651" lon="2.65238">
        <ele>931.8</ele>
        <time>2021-08-22T14:31:43Z</time>
      </trkpt>
      <trkpt lat="45.06656" lon="2.65246">
        <ele>930.9</ele>
        <time>2021-08-22T14:31:45Z</time>
      </trkpt>
      <trkpt lat="45.06661" lon="2.65256">
        <ele>930.3</ele>
        <time>2021-08-22T14:31:47Z</time>
      </trkpt>
      <trkpt lat="45.06667" lon="2.65266">
        <ele>929.8</ele>
        <time>2021-08-22T14:31:49Z</time>
      </trkpt>
      <trkpt lat="45.06672" lon="2.65279">
        <ele>930.1</ele>
        <time>2021-08-22T14:31:51Z</time>
      </trkpt>
      <trkpt lat="45.06677" lon="2.65293">
        <ele>930.6</ele>
        <time>2021-08-22T14:31:53Z</time>
      </trkpt>
      <trkpt lat="45.06682" lon="2.65307">
        <ele>931.2</ele>
        <time>2021-08-22T14:31:55Z</time>
      </trkpt>
      <trkpt lat="45.06687" lon="2.65323">
        <ele>931.7</ele>
        <time>2021-08-22T14:31:57Z</time>
      </trkpt>
      <trkpt lat="45.06692" lon="2.6534">
        <ele>932.2</ele>
        <time>2021-08-22T14:31:59Z</time>
      </trkpt>
      <trkpt lat="45.06698" lon="2.65358">
        <ele>932.9</ele>
        <time>2021-08-22T14:32:01Z</time>
      </trkpt>
      <trkpt lat="45.06704" lon="2.65376">
        <ele>933.5</ele>
        <time>2021-08-22T14:32:03Z</time>
      </trkpt>
      <trkpt lat="45.06711" lon="2.65393">
        <ele>933.8</ele>
        <time>2021-08-22T14:32:05Z</time>
      </trkpt>
      <trkpt lat="45.06717" lon="2.6541">
        <ele>934.1</ele>
        <time>2021-08-22T14:32:07Z</time>
      </trkpt>
      <trkpt lat="45.06723" lon="2.65426">
        <ele>934.2</ele>
        <time>2021-08-22T14:32:09Z</time>
      </trkpt>
      <trkpt lat="45.06729" lon="2.65441">
        <ele>934</ele>
        <time>2021-08-22T14:32:11Z</time>
      </trkpt>
      <trkpt lat="45.06734" lon="2.65456">
        <ele>933.9</ele>
        <time>2021-08-22T14:32:13Z</time>
      </trkpt>
      <trkpt lat="45.06738" lon="2.65471">
        <ele>933.9</ele>
        <time>2021-08-22T14:32:15Z</time>
      </trkpt>
      <trkpt lat="45.06742" lon="2.65485">
        <ele>933.5</ele>
        <time>2021-08-22T14:32:17Z</time>
      </trkpt>
      <trkpt lat="45.06746" lon="2.65497">
        <ele>933.2</ele>
        <time>2021-08-22T14:32:19Z</time>
      </trkpt>
      <trkpt lat="45.06748" lon="2.65508">
        <ele>932.6</ele>
        <time>2021-08-22T14:32:21Z</time>
      </trkpt>
      <trkpt lat="45.06752" lon="2.65521">
        <ele>932.1</ele>
        <time>2021-08-22T14:32:23Z</time>
      </trkpt>
      <trkpt lat="45.06756" lon="2.65535">
        <ele>931.8</ele>
        <time>2021-08-22T14:32:25Z</time>
      </trkpt>
      <trkpt lat="45.06759" lon="2.65551">
        <ele>931.5</ele>
        <time>2021-08-22T14:32:27Z</time>
      </trkpt>
      <trkpt lat="45.06766" lon="2.65568">
        <ele>930.9</ele>
        <time>2021-08-22T14:32:29Z</time>
      </trkpt>
      <trkpt lat="45.06777" lon="2.65582">
        <ele>929.7</ele>
        <time>2021-08-22T14:32:31Z</time>
      </trkpt>
      <trkpt lat="45.06791" lon="2.65591">
        <ele>928.5</ele>
        <time>2021-08-22T14:32:33Z</time>
      </trkpt>
      <trkpt lat="45.06805" lon="2.65602">
        <ele>927.3</ele>
        <time>2021-08-22T14:32:35Z</time>
      </trkpt>
      <trkpt lat="45.06817" lon="2.65617">
        <ele>926.4</ele>
        <time>2021-08-22T14:32:37Z</time>
      </trkpt>
      <trkpt lat="45.06826" lon="2.65633">
        <ele>925.8</ele>
        <time>2021-08-22T14:32:39Z</time>
      </trkpt>
      <trkpt lat="45.06834" lon="2.6565">
        <ele>925.4</ele>
        <time>2021-08-22T14:32:41Z</time>
      </trkpt>
      <trkpt lat="45.0684" lon="2.65666">
        <ele>925.7</ele>
        <time>2021-08-22T14:32:43Z</time>
      </trkpt>
      <trkpt lat="45.06845" lon="2.65682">
        <ele>926.2</ele>
        <time>2021-08-22T14:32:45Z</time>
      </trkpt>
      <trkpt lat="45.06852" lon="2.65695">
        <ele>926.4</ele>
        <time>2021-08-22T14:32:47Z</time>
      </trkpt>
      <trkpt lat="45.06859" lon="2.65704">
        <ele>926.6</ele>
        <time>2021-08-22T14:32:49Z</time>
      </trkpt>
      <trkpt lat="45.06867" lon="2.65713">
        <ele>926.7</ele>
        <time>2021-08-22T14:32:51Z</time>
      </trkpt>
      <trkpt lat="45.06876" lon="2.6572">
        <ele>926.7</ele>
        <time>2021-08-22T14:32:53Z</time>
      </trkpt>
      <trkpt lat="45.06885" lon="2.65727">
        <ele>926.8</ele>
        <time>2021-08-22T14:32:55Z</time>
      </trkpt>
      <trkpt lat="45.06892" lon="2.65735">
        <ele>926.9</ele>
        <time>2021-08-22T14:32:57Z</time>
      </trkpt>
      <trkpt lat="45.069" lon="2.6574">
        <ele>926.9</ele>
        <time>2021-08-22T14:32:59Z</time>
      </trkpt>
      <trkpt lat="45.06908" lon="2.65746">
        <ele>927</ele>
        <time>2021-08-22T14:33:01Z</time>
      </trkpt>
      <trkpt lat="45.06915" lon="2.65753">
        <ele>927.2</ele>
        <time>2021-08-22T14:33:03Z</time>
      </trkpt>
      <trkpt lat="45.06921" lon="2.6576">
        <ele>927.3</ele>
        <time>2021-08-22T14:33:05Z</time>
      </trkpt>
      <trkpt lat="45.06927" lon="2.65766">
        <ele>927.3</ele>
        <time>2021-08-22T14:33:07Z</time>
      </trkpt>
      <trkpt lat="45.06933" lon="2.6577">
        <ele>927.3</ele>
        <time>2021-08-22T14:33:09Z</time>
      </trkpt>
      <trkpt lat="45.06939" lon="2.65773">
        <ele>927.2</ele>
        <time>2021-08-22T14:33:11Z</time>
      </trkpt>
      <trkpt lat="45.06942" lon="2.65774">
        <ele>927.1</ele>
        <time>2021-08-22T14:33:13Z</time>
      </trkpt>
      <trkpt lat="45.06952" lon="2.65773">
        <ele>926.6</ele>
        <time>2021-08-22T14:33:15Z</time>
      </trkpt>
      <trkpt lat="45.06957" lon="2.65771">
        <ele>926.3</ele>
        <time>2021-08-22T14:33:17Z</time>
      </trkpt>
      <trkpt lat="45.06961" lon="2.65768">
        <ele>926</ele>
        <time>2021-08-22T14:33:19Z</time>
      </trkpt>
      <trkpt lat="45.06963" lon="2.65763">
        <ele>925.8</ele>
        <time>2021-08-22T14:33:21Z</time>
      </trkpt>
      <trkpt lat="45.06961" lon="2.65756">
        <ele>925.6</ele>
        <time>2021-08-22T14:33:23Z</time>
      </trkpt>
      <trkpt lat="45.06958" lon="2.65752">
        <ele>925.6</ele>
        <time>2021-08-22T14:33:25Z</time>
      </trkpt>
      <trkpt lat="45.06957" lon="2.65751">
        <ele>925.6</ele>
        <time>2021-08-22T14:33:27Z</time>
      </trkpt>
      <trkpt lat="45.06956" lon="2.65749">
        <ele>925.6</ele>
        <time>2021-08-22T14:33:29Z</time>
      </trkpt>
      <trkpt lat="45.06955" lon="2.65748">
        <ele>925.6</ele>
        <time>2021-08-22T14:33:31Z</time>
      </trkpt>
      <trkpt lat="45.06955" lon="2.65751">
        <ele>925.7</ele>
        <time>2021-08-22T14:33:33Z</time>
      </trkpt>
      <trkpt lat="45.06978" lon="2.65751">
        <ele>924.8</ele>
        <time>2021-08-22T14:51:49Z</time>
      </trkpt>
      <trkpt lat="45.06981" lon="2.65749">
        <ele>924.7</ele>
        <time>2021-08-22T14:51:51Z</time>
      </trkpt>
      <trkpt lat="45.06984" lon="2.65748">
        <ele>924.7</ele>
        <time>2021-08-22T14:51:53Z</time>
      </trkpt>
      <trkpt lat="45.06986" lon="2.65745">
        <ele>924.7</ele>
        <time>2021-08-22T14:51:55Z</time>
      </trkpt>
      <trkpt lat="45.06989" lon="2.65742">
        <ele>924.8</ele>
        <time>2021-08-22T14:51:57Z</time>
      </trkpt>
      <trkpt lat="45.06992" lon="2.65739">
        <ele>924.9</ele>
        <time>2021-08-22T14:51:59Z</time>
      </trkpt>
      <trkpt lat="45.06995" lon="2.65736">
        <ele>925</ele>
        <time>2021-08-22T14:52:01Z</time>
      </trkpt>
      <trkpt lat="45.06999" lon="2.65734">
        <ele>925</ele>
        <time>2021-08-22T14:52:03Z</time>
      </trkpt>
      <trkpt lat="45.07003" lon="2.65735">
        <ele>925.4</ele>
        <time>2021-08-22T14:52:05Z</time>
      </trkpt>
      <trkpt lat="45.07007" lon="2.65737">
        <ele>925.9</ele>
        <time>2021-08-22T14:52:07Z</time>
      </trkpt>
      <trkpt lat="45.07011" lon="2.6574">
        <ele>926.4</ele>
        <time>2021-08-22T14:52:09Z</time>
      </trkpt>
      <trkpt lat="45.07014" lon="2.65744">
        <ele>926.5</ele>
        <time>2021-08-22T14:52:11Z</time>
      </trkpt>
      <trkpt lat="45.07015" lon="2.65745">
        <ele>926.7</ele>
        <time>2021-08-22T14:52:13Z</time>
      </trkpt>
      <trkpt lat="45.07017" lon="2.65747">
        <ele>926.8</ele>
        <time>2021-08-22T14:52:15Z</time>
      </trkpt>
      <trkpt lat="45.07018" lon="2.65748">
        <ele>926.9</ele>
        <time>2021-08-22T14:52:17Z</time>
      </trkpt>
      <trkpt lat="45.0702" lon="2.65746">
        <ele>927.4</ele>
        <time>2021-08-22T14:52:19Z</time>
      </trkpt>
      <trkpt lat="45.07022" lon="2.65742">
        <ele>928</ele>
        <time>2021-08-22T14:52:21Z</time>
      </trkpt>
      <trkpt lat="45.07024" lon="2.65738">
        <ele>928.6</ele>
        <time>2021-08-22T14:52:23Z</time>
      </trkpt>
      <trkpt lat="45.07027" lon="2.65735">
        <ele>929.2</ele>
        <time>2021-08-22T14:52:25Z</time>
      </trkpt>
      <trkpt lat="45.07029" lon="2.65732">
        <ele>929.8</ele>
        <time>2021-08-22T14:52:27Z</time>
      </trkpt>
      <trkpt lat="45.07032" lon="2.6573">
        <ele>930.5</ele>
        <time>2021-08-22T14:52:29Z</time>
      </trkpt>
      <trkpt lat="45.07034" lon="2.65728">
        <ele>931.1</ele>
        <time>2021-08-22T14:52:31Z</time>
      </trkpt>
      <trkpt lat="45.07037" lon="2.65725">
        <ele>931.8</ele>
        <time>2021-08-22T14:52:33Z</time>
      </trkpt>
      <trkpt lat="45.0704" lon="2.65724">
        <ele>932.5</ele>
        <time>2021-08-22T14:52:35Z</time>
      </trkpt>
      <trkpt lat="45.07042" lon="2.65723">
        <ele>932.8</ele>
        <time>2021-08-22T14:52:37Z</time>
      </trkpt>
      <trkpt lat="45.07044" lon="2.65722">
        <ele>933.3</ele>
        <time>2021-08-22T14:52:39Z</time>
      </trkpt>
      <trkpt lat="45.07046" lon="2.65721">
        <ele>933.7</ele>
        <time>2021-08-22T14:52:41Z</time>
      </trkpt>
      <trkpt lat="45.07047" lon="2.6572">
        <ele>933.9</ele>
        <time>2021-08-22T14:52:43Z</time>
      </trkpt>
      <trkpt lat="45.07046" lon="2.6572">
        <ele>933.8</ele>
        <time>2021-08-22T14:52:45Z</time>
      </trkpt>
      <trkpt lat="45.07047" lon="2.6572">
        <ele>933.8</ele>
        <time>2021-08-22T14:52:47Z</time>
      </trkpt>
      <trkpt lat="45.07047" lon="2.6572">
        <ele>933.9</ele>
        <time>2021-08-22T14:52:49Z</time>
      </trkpt>
      <trkpt lat="45.07047" lon="2.6572">
        <ele>934</ele>
        <time>2021-08-22T14:52:51Z</time>
      </trkpt>
      <trkpt lat="45.07028" lon="2.65735">
        <ele>929.6</ele>
        <time>2021-08-22T15:46:20Z</time>
      </trkpt>
      <trkpt lat="45.07024" lon="2.65741">
        <ele>928.5</ele>
        <time>2021-08-22T15:46:22Z</time>
      </trkpt>
      <trkpt lat="45.0702" lon="2.65745">
        <ele>927.5</ele>
        <time>2021-08-22T15:46:24Z</time>
      </trkpt>
      <trkpt lat="45.07019" lon="2.65747">
        <ele>927.2</ele>
        <time>2021-08-22T15:46:26Z</time>
      </trkpt>
      <trkpt lat="45.0702" lon="2.65752">
        <ele>927.1</ele>
        <time>2021-08-22T15:46:28Z</time>
      </trkpt>
      <trkpt lat="45.07023" lon="2.65757">
        <ele>927.5</ele>
        <time>2021-08-22T15:46:30Z</time>
      </trkpt>
      <trkpt lat="45.07026" lon="2.65762">
        <ele>927.9</ele>
        <time>2021-08-22T15:46:32Z</time>
      </trkpt>
      <trkpt lat="45.07028" lon="2.6577">
        <ele>928.1</ele>
        <time>2021-08-22T15:46:34Z</time>
      </trkpt>
      <trkpt lat="45.07031" lon="2.65776">
        <ele>928.3</ele>
        <time>2021-08-22T15:46:36Z</time>
      </trkpt>
      <trkpt lat="45.07034" lon="2.65781">
        <ele>928.5</ele>
        <time>2021-08-22T15:46:38Z</time>
      </trkpt>
      <trkpt lat="45.07038" lon="2.65787">
        <ele>928.8</ele>
        <time>2021-08-22T15:46:40Z</time>
      </trkpt>
      <trkpt lat="45.07041" lon="2.65793">
        <ele>928.9</ele>
        <time>2021-08-22T15:46:42Z</time>
      </trkpt>
      <trkpt lat="45.07045" lon="2.65799">
        <ele>929</ele>
        <time>2021-08-22T15:46:44Z</time>
      </trkpt>
      <trkpt lat="45.07047" lon="2.65806">
        <ele>928.9</ele>
        <time>2021-08-22T15:46:46Z</time>
      </trkpt>
      <trkpt lat="45.07051" lon="2.65813">
        <ele>928.9</ele>
        <time>2021-08-22T15:46:48Z</time>
      </trkpt>
      <trkpt lat="45.07055" lon="2.6582">
        <ele>928.7</ele>
        <time>2021-08-22T15:46:50Z</time>
      </trkpt>
      <trkpt lat="45.07058" lon="2.65828">
        <ele>928.4</ele>
        <time>2021-08-22T15:46:52Z</time>
      </trkpt>
      <trkpt lat="45.07061" lon="2.65835">
        <ele>928.2</ele>
        <time>2021-08-22T15:46:54Z</time>
      </trkpt>
      <trkpt lat="45.07065" lon="2.65842">
        <ele>928.1</ele>
        <time>2021-08-22T15:46:56Z</time>
      </trkpt>
      <trkpt lat="45.07069" lon="2.65848">
        <ele>928.1</ele>
        <time>2021-08-22T15:46:58Z</time>
      </trkpt>
      <trkpt lat="45.07073" lon="2.65855">
        <ele>928</ele>
        <time>2021-08-22T15:47:00Z</time>
      </trkpt>
      <trkpt lat="45.07078" lon="2.65862">
        <ele>927.9</ele>
        <time>2021-08-22T15:47:02Z</time>
      </trkpt>
      <trkpt lat="45.07082" lon="2.65868">
        <ele>927.7</ele>
        <time>2021-08-22T15:47:04Z</time>
      </trkpt>
      <trkpt lat="45.07086" lon="2.65875">
        <ele>928</ele>
        <time>2021-08-22T15:47:06Z</time>
      </trkpt>
      <trkpt lat="45.07091" lon="2.65881">
        <ele>928.6</ele>
        <time>2021-08-22T15:47:08Z</time>
      </trkpt>
      <trkpt lat="45.07096" lon="2.65887">
        <ele>929.1</ele>
        <time>2021-08-22T15:47:10Z</time>
      </trkpt>
      <trkpt lat="45.071" lon="2.65894">
        <ele>929.5</ele>
        <time>2021-08-22T15:47:12Z</time>
      </trkpt>
      <trkpt lat="45.07105" lon="2.659">
        <ele>929.8</ele>
        <time>2021-08-22T15:47:14Z</time>
      </trkpt>
      <trkpt lat="45.07109" lon="2.65906">
        <ele>930.2</ele>
        <time>2021-08-22T15:47:16Z</time>
      </trkpt>
      <trkpt lat="45.07114" lon="2.65911">
        <ele>930.5</ele>
        <time>2021-08-22T15:47:18Z</time>
      </trkpt>
      <trkpt lat="45.07119" lon="2.65917">
        <ele>930.7</ele>
        <time>2021-08-22T15:47:20Z</time>
      </trkpt>
      <trkpt lat="45.07124" lon="2.65922">
        <ele>931.2</ele>
        <time>2021-08-22T15:47:22Z</time>
      </trkpt>
      <trkpt lat="45.07129" lon="2.65928">
        <ele>931.5</ele>
        <time>2021-08-22T15:47:24Z</time>
      </trkpt>
      <trkpt lat="45.07134" lon="2.65932">
        <ele>931.8</ele>
        <time>2021-08-22T15:47:26Z</time>
      </trkpt>
      <trkpt lat="45.07139" lon="2.65939">
        <ele>931.9</ele>
        <time>2021-08-22T15:47:28Z</time>
      </trkpt>
      <trkpt lat="45.07143" lon="2.65944">
        <ele>931.9</ele>
        <time>2021-08-22T15:47:30Z</time>
      </trkpt>
      <trkpt lat="45.07148" lon="2.65949">
        <ele>932</ele>
        <time>2021-08-22T15:47:32Z</time>
      </trkpt>
      <trkpt lat="45.07153" lon="2.65955">
        <ele>932</ele>
        <time>2021-08-22T15:47:34Z</time>
      </trkpt>
      <trkpt lat="45.07158" lon="2.6596">
        <ele>931.8</ele>
        <time>2021-08-22T15:47:36Z</time>
      </trkpt>
      <trkpt lat="45.07163" lon="2.65964">
        <ele>931.6</ele>
        <time>2021-08-22T15:47:38Z</time>
      </trkpt>
      <trkpt lat="45.07167" lon="2.65969">
        <ele>931.4</ele>
        <time>2021-08-22T15:47:40Z</time>
      </trkpt>
      <trkpt lat="45.07172" lon="2.65975">
        <ele>931.5</ele>
        <time>2021-08-22T15:47:42Z</time>
      </trkpt>
      <trkpt lat="45.07177" lon="2.65979">
        <ele>931.5</ele>
        <time>2021-08-22T15:47:44Z</time>
      </trkpt>
      <trkpt lat="45.07181" lon="2.65984">
        <ele>931.5</ele>
        <time>2021-08-22T15:47:46Z</time>
      </trkpt>
      <trkpt lat="45.07186" lon="2.65989">
        <ele>931.5</ele>
        <time>2021-08-22T15:47:48Z</time>
      </trkpt>
      <trkpt lat="45.0719" lon="2.65993">
        <ele>931.4</ele>
        <time>2021-08-22T15:47:50Z</time>
      </trkpt>
      <trkpt lat="45.07194" lon="2.65998">
        <ele>931.3</ele>
        <time>2021-08-22T15:47:52Z</time>
      </trkpt>
      <trkpt lat="45.07199" lon="2.66001">
        <ele>931.4</ele>
        <time>2021-08-22T15:47:54Z</time>
      </trkpt>
      <trkpt lat="45.07203" lon="2.66006">
        <ele>931.7</ele>
        <time>2021-08-22T15:47:56Z</time>
      </trkpt>
      <trkpt lat="45.07208" lon="2.6601">
        <ele>931.9</ele>
        <time>2021-08-22T15:47:58Z</time>
      </trkpt>
      <trkpt lat="45.07212" lon="2.66014">
        <ele>932.1</ele>
        <time>2021-08-22T15:48:00Z</time>
      </trkpt>
      <trkpt lat="45.07216" lon="2.66019">
        <ele>932.2</ele>
        <time>2021-08-22T15:48:02Z</time>
      </trkpt>
      <trkpt lat="45.07221" lon="2.66024">
        <ele>932.3</ele>
        <time>2021-08-22T15:48:04Z</time>
      </trkpt>
      <trkpt lat="45.07225" lon="2.66028">
        <ele>932.3</ele>
        <time>2021-08-22T15:48:06Z</time>
      </trkpt>
      <trkpt lat="45.07229" lon="2.66034">
        <ele>932.1</ele>
        <time>2021-08-22T15:48:08Z</time>
      </trkpt>
      <trkpt lat="45.07233" lon="2.66039">
        <ele>931.9</ele>
        <time>2021-08-22T15:48:10Z</time>
      </trkpt>
      <trkpt lat="45.07237" lon="2.66045">
        <ele>931.6</ele>
        <time>2021-08-22T15:48:12Z</time>
      </trkpt>
      <trkpt lat="45.07241" lon="2.6605">
        <ele>931.2</ele>
        <time>2021-08-22T15:48:14Z</time>
      </trkpt>
      <trkpt lat="45.07245" lon="2.66057">
        <ele>930.7</ele>
        <time>2021-08-22T15:48:16Z</time>
      </trkpt>
      <trkpt lat="45.07248" lon="2.66063">
        <ele>930.1</ele>
        <time>2021-08-22T15:48:18Z</time>
      </trkpt>
      <trkpt lat="45.07251" lon="2.6607">
        <ele>929.6</ele>
        <time>2021-08-22T15:48:20Z</time>
      </trkpt>
      <trkpt lat="45.07255" lon="2.66076">
        <ele>929.2</ele>
        <time>2021-08-22T15:48:22Z</time>
      </trkpt>
      <trkpt lat="45.07257" lon="2.66083">
        <ele>928.6</ele>
        <time>2021-08-22T15:48:24Z</time>
      </trkpt>
      <trkpt lat="45.0726" lon="2.6609">
        <ele>928.8</ele>
        <time>2021-08-22T15:48:26Z</time>
      </trkpt>
      <trkpt lat="45.07263" lon="2.66096">
        <ele>929.2</ele>
        <time>2021-08-22T15:48:28Z</time>
      </trkpt>
      <trkpt lat="45.07266" lon="2.66103">
        <ele>929.5</ele>
        <time>2021-08-22T15:48:30Z</time>
      </trkpt>
      <trkpt lat="45.07268" lon="2.6611">
        <ele>929.7</ele>
        <time>2021-08-22T15:48:32Z</time>
      </trkpt>
      <trkpt lat="45.07271" lon="2.66116">
        <ele>930</ele>
        <time>2021-08-22T15:48:34Z</time>
      </trkpt>
      <trkpt lat="45.07273" lon="2.66123">
        <ele>930.2</ele>
        <time>2021-08-22T15:48:36Z</time>
      </trkpt>
      <trkpt lat="45.07276" lon="2.6613">
        <ele>930.5</ele>
        <time>2021-08-22T15:48:38Z</time>
      </trkpt>
      <trkpt lat="45.07278" lon="2.66137">
        <ele>930.7</ele>
        <time>2021-08-22T15:48:40Z</time>
      </trkpt>
      <trkpt lat="45.07281" lon="2.66143">
        <ele>930.9</ele>
        <time>2021-08-22T15:48:42Z</time>
      </trkpt>
      <trkpt lat="45.07283" lon="2.6615">
        <ele>931</ele>
        <time>2021-08-22T15:48:44Z</time>
      </trkpt>
      <trkpt lat="45.07285" lon="2.66156">
        <ele>931.2</ele>
        <time>2021-08-22T15:48:46Z</time>
      </trkpt>
      <trkpt lat="45.07287" lon="2.66162">
        <ele>931.3</ele>
        <time>2021-08-22T15:48:48Z</time>
      </trkpt>
      <trkpt lat="45.0729" lon="2.66168">
        <ele>931.5</ele>
        <time>2021-08-22T15:48:50Z</time>
      </trkpt>
      <trkpt lat="45.07292" lon="2.66174">
        <ele>931.7</ele>
        <time>2021-08-22T15:48:52Z</time>
      </trkpt>
      <trkpt lat="45.07294" lon="2.66179">
        <ele>931.9</ele>
        <time>2021-08-22T15:48:54Z</time>
      </trkpt>
      <trkpt lat="45.07296" lon="2.66186">
        <ele>932.1</ele>
        <time>2021-08-22T15:48:56Z</time>
      </trkpt>
      <trkpt lat="45.07299" lon="2.66192">
        <ele>932.3</ele>
        <time>2021-08-22T15:48:58Z</time>
      </trkpt>
      <trkpt lat="45.07302" lon="2.66198">
        <ele>932.5</ele>
        <time>2021-08-22T15:49:00Z</time>
      </trkpt>
      <trkpt lat="45.07305" lon="2.66204">
        <ele>932.7</ele>
        <time>2021-08-22T15:49:02Z</time>
      </trkpt>
      <trkpt lat="45.07308" lon="2.66209">
        <ele>932.9</ele>
        <time>2021-08-22T15:49:04Z</time>
      </trkpt>
      <trkpt lat="45.07311" lon="2.66214">
        <ele>933.1</ele>
        <time>2021-08-22T15:49:06Z</time>
      </trkpt>
      <trkpt lat="45.07315" lon="2.66219">
        <ele>933.2</ele>
        <time>2021-08-22T15:49:08Z</time>
      </trkpt>
      <trkpt lat="45.07318" lon="2.66225">
        <ele>933.4</ele>
        <time>2021-08-22T15:49:10Z</time>
      </trkpt>
      <trkpt lat="45.07323" lon="2.6623">
        <ele>933.6</ele>
        <time>2021-08-22T15:49:12Z</time>
      </trkpt>
      <trkpt lat="45.07327" lon="2.66235">
        <ele>933.7</ele>
        <time>2021-08-22T15:49:14Z</time>
      </trkpt>
      <trkpt lat="45.07331" lon="2.6624">
        <ele>933.8</ele>
        <time>2021-08-22T15:49:16Z</time>
      </trkpt>
      <trkpt lat="45.07336" lon="2.66245">
        <ele>934</ele>
        <time>2021-08-22T15:49:18Z</time>
      </trkpt>
      <trkpt lat="45.0734" lon="2.6625">
        <ele>934.1</ele>
        <time>2021-08-22T15:49:20Z</time>
      </trkpt>
      <trkpt lat="45.07345" lon="2.66254">
        <ele>934.2</ele>
        <time>2021-08-22T15:49:22Z</time>
      </trkpt>
      <trkpt lat="45.07349" lon="2.66258">
        <ele>934.3</ele>
        <time>2021-08-22T15:49:24Z</time>
      </trkpt>
      <trkpt lat="45.07354" lon="2.66262">
        <ele>934.4</ele>
        <time>2021-08-22T15:49:26Z</time>
      </trkpt>
      <trkpt lat="45.07359" lon="2.66266">
        <ele>934.4</ele>
        <time>2021-08-22T15:49:28Z</time>
      </trkpt>
      <trkpt lat="45.07364" lon="2.6627">
        <ele>934.5</ele>
        <time>2021-08-22T15:49:30Z</time>
      </trkpt>
      <trkpt lat="45.07368" lon="2.66274">
        <ele>934.6</ele>
        <time>2021-08-22T15:49:32Z</time>
      </trkpt>
      <trkpt lat="45.07373" lon="2.66278">
        <ele>934.7</ele>
        <time>2021-08-22T15:49:34Z</time>
      </trkpt>
      <trkpt lat="45.07379" lon="2.6628">
        <ele>934.7</ele>
        <time>2021-08-22T15:49:36Z</time>
      </trkpt>
      <trkpt lat="45.07384" lon="2.66284">
        <ele>934.8</ele>
        <time>2021-08-22T15:49:38Z</time>
      </trkpt>
      <trkpt lat="45.0739" lon="2.66288">
        <ele>934.8</ele>
        <time>2021-08-22T15:49:40Z</time>
      </trkpt>
      <trkpt lat="45.07395" lon="2.66291">
        <ele>934.9</ele>
        <time>2021-08-22T15:49:42Z</time>
      </trkpt>
      <trkpt lat="45.07401" lon="2.66294">
        <ele>934.9</ele>
        <time>2021-08-22T15:49:44Z</time>
      </trkpt>
      <trkpt lat="45.07406" lon="2.66298">
        <ele>934.9</ele>
        <time>2021-08-22T15:49:46Z</time>
      </trkpt>
      <trkpt lat="45.07412" lon="2.66301">
        <ele>935</ele>
        <time>2021-08-22T15:49:48Z</time>
      </trkpt>
      <trkpt lat="45.07418" lon="2.66304">
        <ele>935.2</ele>
        <time>2021-08-22T15:49:50Z</time>
      </trkpt>
      <trkpt lat="45.07424" lon="2.66309">
        <ele>935.7</ele>
        <time>2021-08-22T15:49:52Z</time>
      </trkpt>
      <trkpt lat="45.07429" lon="2.66313">
        <ele>936.2</ele>
        <time>2021-08-22T15:49:54Z</time>
      </trkpt>
      <trkpt lat="45.07434" lon="2.66318">
        <ele>936.7</ele>
        <time>2021-08-22T15:49:56Z</time>
      </trkpt>
      <trkpt lat="45.07439" lon="2.66323">
        <ele>937.1</ele>
        <time>2021-08-22T15:49:58Z</time>
      </trkpt>
      <trkpt lat="45.07443" lon="2.66327">
        <ele>937.5</ele>
        <time>2021-08-22T15:50:00Z</time>
      </trkpt>
      <trkpt lat="45.07446" lon="2.66332">
        <ele>937.8</ele>
        <time>2021-08-22T15:50:02Z</time>
      </trkpt>
      <trkpt lat="45.07449" lon="2.66336">
        <ele>938.2</ele>
        <time>2021-08-22T15:50:04Z</time>
      </trkpt>
      <trkpt lat="45.07452" lon="2.66341">
        <ele>938.5</ele>
        <time>2021-08-22T15:50:06Z</time>
      </trkpt>
      <trkpt lat="45.07455" lon="2.66345">
        <ele>938.8</ele>
        <time>2021-08-22T15:50:08Z</time>
      </trkpt>
      <trkpt lat="45.07458" lon="2.66348">
        <ele>939.1</ele>
        <time>2021-08-22T15:50:10Z</time>
      </trkpt>
      <trkpt lat="45.07461" lon="2.66352">
        <ele>939.3</ele>
        <time>2021-08-22T15:50:12Z</time>
      </trkpt>
      <trkpt lat="45.07464" lon="2.66356">
        <ele>939.6</ele>
        <time>2021-08-22T15:50:14Z</time>
      </trkpt>
      <trkpt lat="45.07467" lon="2.6636">
        <ele>939.8</ele>
        <time>2021-08-22T15:50:16Z</time>
      </trkpt>
      <trkpt lat="45.0747" lon="2.66363">
        <ele>940.1</ele>
        <time>2021-08-22T15:50:18Z</time>
      </trkpt>
      <trkpt lat="45.07473" lon="2.66366">
        <ele>940.3</ele>
        <time>2021-08-22T15:50:20Z</time>
      </trkpt>
      <trkpt lat="45.07475" lon="2.66371">
        <ele>940.4</ele>
        <time>2021-08-22T15:50:22Z</time>
      </trkpt>
      <trkpt lat="45.07477" lon="2.66374">
        <ele>940.5</ele>
        <time>2021-08-22T15:50:24Z</time>
      </trkpt>
      <trkpt lat="45.07479" lon="2.66377">
        <ele>940.6</ele>
        <time>2021-08-22T15:50:26Z</time>
      </trkpt>
      <trkpt lat="45.07479" lon="2.66382">
        <ele>940.6</ele>
        <time>2021-08-22T15:50:28Z</time>
      </trkpt>
      <trkpt lat="45.0748" lon="2.66385">
        <ele>940.6</ele>
        <time>2021-08-22T15:50:30Z</time>
      </trkpt>
      <trkpt lat="45.0748" lon="2.66388">
        <ele>940.5</ele>
        <time>2021-08-22T15:50:32Z</time>
      </trkpt>
      <trkpt lat="45.0748" lon="2.66391">
        <ele>940.5</ele>
        <time>2021-08-22T15:50:34Z</time>
      </trkpt>
      <trkpt lat="45.07479" lon="2.66393">
        <ele>940.5</ele>
        <time>2021-08-22T15:50:36Z</time>
      </trkpt>
      <trkpt lat="45.07479" lon="2.66397">
        <ele>940.4</ele>
        <time>2021-08-22T15:50:38Z</time>
      </trkpt>
      <trkpt lat="45.07479" lon="2.664">
        <ele>940.4</ele>
        <time>2021-08-22T15:50:40Z</time>
      </trkpt>
      <trkpt lat="45.0748" lon="2.66405">
        <ele>940.4</ele>
        <time>2021-08-22T15:50:42Z</time>
      </trkpt>
      <trkpt lat="45.07482" lon="2.66409">
        <ele>940.4</ele>
        <time>2021-08-22T15:50:44Z</time>
      </trkpt>
      <trkpt lat="45.07484" lon="2.66412">
        <ele>940.5</ele>
        <time>2021-08-22T15:50:46Z</time>
      </trkpt>
      <trkpt lat="45.07487" lon="2.66415">
        <ele>940.5</ele>
        <time>2021-08-22T15:50:48Z</time>
      </trkpt>
      <trkpt lat="45.07487" lon="2.66418">
        <ele>940.6</ele>
        <time>2021-08-22T15:50:50Z</time>
      </trkpt>
      <trkpt lat="45.07486" lon="2.66423">
        <ele>940.6</ele>
        <time>2021-08-22T15:50:52Z</time>
      </trkpt>
      <trkpt lat="45.07485" lon="2.66425">
        <ele>940.6</ele>
        <time>2021-08-22T15:50:54Z</time>
      </trkpt>
      <trkpt lat="45.07485" lon="2.6643">
        <ele>940.7</ele>
        <time>2021-08-22T15:50:56Z</time>
      </trkpt>
      <trkpt lat="45.07486" lon="2.66433">
        <ele>940.8</ele>
        <time>2021-08-22T15:50:58Z</time>
      </trkpt>
      <trkpt lat="45.07487" lon="2.66436">
        <ele>940.9</ele>
        <time>2021-08-22T15:51:00Z</time>
      </trkpt>
      <trkpt lat="45.07487" lon="2.66437">
        <ele>940.9</ele>
        <time>2021-08-22T15:51:02Z</time>
      </trkpt>
      <trkpt lat="45.07487" lon="2.66437">
        <ele>940.9</ele>
        <time>2021-08-22T15:51:04Z</time>
      </trkpt>
      <trkpt lat="45.07487" lon="2.66437">
        <ele>940.9</ele>
        <time>2021-08-22T15:51:06Z</time>
      </trkpt>
      <trkpt lat="45.07488" lon="2.66437">
        <ele>940.9</ele>
        <time>2021-08-22T15:51:08Z</time>
      </trkpt>
      <trkpt lat="45.07496" lon="2.66463">
        <ele>941.5</ele>
        <time>2021-08-22T15:54:54Z</time>
      </trkpt>
      <trkpt lat="45.07498" lon="2.66466">
        <ele>941.6</ele>
        <time>2021-08-22T15:54:56Z</time>
      </trkpt>
      <trkpt lat="45.07499" lon="2.6647">
        <ele>941.6</ele>
        <time>2021-08-22T15:54:58Z</time>
      </trkpt>
      <trkpt lat="45.07501" lon="2.66473">
        <ele>941.8</ele>
        <time>2021-08-22T15:55:00Z</time>
      </trkpt>
      <trkpt lat="45.07505" lon="2.66473">
        <ele>942</ele>
        <time>2021-08-22T15:55:02Z</time>
      </trkpt>
      <trkpt lat="45.07507" lon="2.66476">
        <ele>942.2</ele>
        <time>2021-08-22T15:55:04Z</time>
      </trkpt>
      <trkpt lat="45.07509" lon="2.66481">
        <ele>942.3</ele>
        <time>2021-08-22T15:55:06Z</time>
      </trkpt>
      <trkpt lat="45.07511" lon="2.66486">
        <ele>942.4</ele>
        <time>2021-08-22T15:55:08Z</time>
      </trkpt>
      <trkpt lat="45.07511" lon="2.66492">
        <ele>942.5</ele>
        <time>2021-08-22T15:55:10Z</time>
      </trkpt>
      <trkpt lat="45.07513" lon="2.66496">
        <ele>942.6</ele>
        <time>2021-08-22T15:55:12Z</time>
      </trkpt>
      <trkpt lat="45.07516" lon="2.665">
        <ele>942.8</ele>
        <time>2021-08-22T15:55:14Z</time>
      </trkpt>
      <trkpt lat="45.07519" lon="2.66504">
        <ele>943.2</ele>
        <time>2021-08-22T15:55:16Z</time>
      </trkpt>
      <trkpt lat="45.07522" lon="2.66507">
        <ele>943.6</ele>
        <time>2021-08-22T15:55:18Z</time>
      </trkpt>
      <trkpt lat="45.07524" lon="2.6651">
        <ele>943.9</ele>
        <time>2021-08-22T15:55:20Z</time>
      </trkpt>
      <trkpt lat="45.07527" lon="2.66513">
        <ele>944.2</ele>
        <time>2021-08-22T15:55:22Z</time>
      </trkpt>
      <trkpt lat="45.07531" lon="2.66517">
        <ele>944.6</ele>
        <time>2021-08-22T15:55:24Z</time>
      </trkpt>
      <trkpt lat="45.07533" lon="2.66521">
        <ele>944.9</ele>
        <time>2021-08-22T15:55:26Z</time>
      </trkpt>
      <trkpt lat="45.07535" lon="2.66523">
        <ele>945.1</ele>
        <time>2021-08-22T15:55:28Z</time>
      </trkpt>
      <trkpt lat="45.07538" lon="2.66528">
        <ele>945.5</ele>
        <time>2021-08-22T15:55:30Z</time>
      </trkpt>
      <trkpt lat="45.07542" lon="2.66533">
        <ele>945.8</ele>
        <time>2021-08-22T15:55:32Z</time>
      </trkpt>
      <trkpt lat="45.07545" lon="2.66535">
        <ele>945.9</ele>
        <time>2021-08-22T15:55:34Z</time>
      </trkpt>
      <trkpt lat="45.07548" lon="2.6654">
        <ele>946.2</ele>
        <time>2021-08-22T15:55:36Z</time>
      </trkpt>
      <trkpt lat="45.07551" lon="2.66544">
        <ele>946.4</ele>
        <time>2021-08-22T15:55:38Z</time>
      </trkpt>
      <trkpt lat="45.07555" lon="2.66549">
        <ele>946.6</ele>
        <time>2021-08-22T15:55:40Z</time>
      </trkpt>
      <trkpt lat="45.07557" lon="2.66553">
        <ele>946.8</ele>
        <time>2021-08-22T15:55:42Z</time>
      </trkpt>
      <trkpt lat="45.07559" lon="2.66559">
        <ele>947</ele>
        <time>2021-08-22T15:55:44Z</time>
      </trkpt>
      <trkpt lat="45.07562" lon="2.66563">
        <ele>947.1</ele>
        <time>2021-08-22T15:55:46Z</time>
      </trkpt>
      <trkpt lat="45.07564" lon="2.66568">
        <ele>947.2</ele>
        <time>2021-08-22T15:55:48Z</time>
      </trkpt>
      <trkpt lat="45.07567" lon="2.66573">
        <ele>947.3</ele>
        <time>2021-08-22T15:55:50Z</time>
      </trkpt>
      <trkpt lat="45.07569" lon="2.66578">
        <ele>947.4</ele>
        <time>2021-08-22T15:55:52Z</time>
      </trkpt>
      <trkpt lat="45.0757" lon="2.66583">
        <ele>947.5</ele>
        <time>2021-08-22T15:55:54Z</time>
      </trkpt>
      <trkpt lat="45.07572" lon="2.66588">
        <ele>947.6</ele>
        <time>2021-08-22T15:55:56Z</time>
      </trkpt>
      <trkpt lat="45.07574" lon="2.66594">
        <ele>947.7</ele>
        <time>2021-08-22T15:55:58Z</time>
      </trkpt>
      <trkpt lat="45.07576" lon="2.66599">
        <ele>947.8</ele>
        <time>2021-08-22T15:56:00Z</time>
      </trkpt>
      <trkpt lat="45.07578" lon="2.66605">
        <ele>947.9</ele>
        <time>2021-08-22T15:56:02Z</time>
      </trkpt>
      <trkpt lat="45.0758" lon="2.66611">
        <ele>947.9</ele>
        <time>2021-08-22T15:56:04Z</time>
      </trkpt>
      <trkpt lat="45.07583" lon="2.66616">
        <ele>947.8</ele>
        <time>2021-08-22T15:56:06Z</time>
      </trkpt>
      <trkpt lat="45.07585" lon="2.6662">
        <ele>948.1</ele>
        <time>2021-08-22T15:56:08Z</time>
      </trkpt>
      <trkpt lat="45.07587" lon="2.66625">
        <ele>948.3</ele>
        <time>2021-08-22T15:56:10Z</time>
      </trkpt>
      <trkpt lat="45.07588" lon="2.66628">
        <ele>948.6</ele>
        <time>2021-08-22T15:56:12Z</time>
      </trkpt>
      <trkpt lat="45.07591" lon="2.66634">
        <ele>948.9</ele>
        <time>2021-08-22T15:56:14Z</time>
      </trkpt>
      <trkpt lat="45.07593" lon="2.66639">
        <ele>949.3</ele>
        <time>2021-08-22T15:56:16Z</time>
      </trkpt>
      <trkpt lat="45.07596" lon="2.66643">
        <ele>949.5</ele>
        <time>2021-08-22T15:56:18Z</time>
      </trkpt>
      <trkpt lat="45.07598" lon="2.66648">
        <ele>949.8</ele>
        <time>2021-08-22T15:56:20Z</time>
      </trkpt>
      <trkpt lat="45.076" lon="2.66653">
        <ele>950</ele>
        <time>2021-08-22T15:56:22Z</time>
      </trkpt>
      <trkpt lat="45.07602" lon="2.66659">
        <ele>950.3</ele>
        <time>2021-08-22T15:56:24Z</time>
      </trkpt>
      <trkpt lat="45.07604" lon="2.66664">
        <ele>950.5</ele>
        <time>2021-08-22T15:56:26Z</time>
      </trkpt>
      <trkpt lat="45.07606" lon="2.6667">
        <ele>950.8</ele>
        <time>2021-08-22T15:56:28Z</time>
      </trkpt>
      <trkpt lat="45.07608" lon="2.66676">
        <ele>951.2</ele>
        <time>2021-08-22T15:56:30Z</time>
      </trkpt>
      <trkpt lat="45.0761" lon="2.66681">
        <ele>951.5</ele>
        <time>2021-08-22T15:56:32Z</time>
      </trkpt>
      <trkpt lat="45.07612" lon="2.66687">
        <ele>951.9</ele>
        <time>2021-08-22T15:56:34Z</time>
      </trkpt>
      <trkpt lat="45.07614" lon="2.66692">
        <ele>952.2</ele>
        <time>2021-08-22T15:56:36Z</time>
      </trkpt>
      <trkpt lat="45.07617" lon="2.66698">
        <ele>952.4</ele>
        <time>2021-08-22T15:56:38Z</time>
      </trkpt>
      <trkpt lat="45.07619" lon="2.66703">
        <ele>952.7</ele>
        <time>2021-08-22T15:56:40Z</time>
      </trkpt>
      <trkpt lat="45.07621" lon="2.66707">
        <ele>952.9</ele>
        <time>2021-08-22T15:56:42Z</time>
      </trkpt>
      <trkpt lat="45.07624" lon="2.6671">
        <ele>953</ele>
        <time>2021-08-22T15:56:44Z</time>
      </trkpt>
      <trkpt lat="45.07628" lon="2.66714">
        <ele>953.2</ele>
        <time>2021-08-22T15:56:46Z</time>
      </trkpt>
      <trkpt lat="45.07631" lon="2.66717">
        <ele>953.3</ele>
        <time>2021-08-22T15:56:48Z</time>
      </trkpt>
      <trkpt lat="45.07634" lon="2.66721">
        <ele>953.4</ele>
        <time>2021-08-22T15:56:50Z</time>
      </trkpt>
      <trkpt lat="45.07638" lon="2.66723">
        <ele>953.4</ele>
        <time>2021-08-22T15:56:52Z</time>
      </trkpt>
      <trkpt lat="45.0764" lon="2.66725">
        <ele>953.5</ele>
        <time>2021-08-22T15:56:54Z</time>
      </trkpt>
      <trkpt lat="45.07643" lon="2.66728">
        <ele>953.5</ele>
        <time>2021-08-22T15:56:56Z</time>
      </trkpt>
      <trkpt lat="45.07646" lon="2.66729">
        <ele>953.5</ele>
        <time>2021-08-22T15:56:58Z</time>
      </trkpt>
      <trkpt lat="45.07648" lon="2.66731">
        <ele>953.5</ele>
        <time>2021-08-22T15:57:00Z</time>
      </trkpt>
      <trkpt lat="45.07651" lon="2.66733">
        <ele>953.5</ele>
        <time>2021-08-22T15:57:02Z</time>
      </trkpt>
      <trkpt lat="45.07654" lon="2.66732">
        <ele>953.5</ele>
        <time>2021-08-22T15:57:04Z</time>
      </trkpt>
      <trkpt lat="45.07656" lon="2.66733">
        <ele>953.5</ele>
        <time>2021-08-22T15:57:06Z</time>
      </trkpt>
      <trkpt lat="45.07659" lon="2.66733">
        <ele>953.4</ele>
        <time>2021-08-22T15:57:08Z</time>
      </trkpt>
      <trkpt lat="45.07662" lon="2.66731">
        <ele>953.5</ele>
        <time>2021-08-22T15:57:10Z</time>
      </trkpt>
      <trkpt lat="45.07666" lon="2.66731">
        <ele>953.4</ele>
        <time>2021-08-22T15:57:12Z</time>
      </trkpt>
      <trkpt lat="45.07669" lon="2.66731">
        <ele>953.7</ele>
        <time>2021-08-22T15:57:14Z</time>
      </trkpt>
      <trkpt lat="45.07671" lon="2.66732">
        <ele>954.1</ele>
        <time>2021-08-22T15:57:16Z</time>
      </trkpt>
      <trkpt lat="45.07674" lon="2.66732">
        <ele>954.5</ele>
        <time>2021-08-22T15:57:18Z</time>
      </trkpt>
      <trkpt lat="45.07676" lon="2.66732">
        <ele>954.7</ele>
        <time>2021-08-22T15:57:20Z</time>
      </trkpt>
      <trkpt lat="45.07679" lon="2.66735">
        <ele>955.1</ele>
        <time>2021-08-22T15:57:22Z</time>
      </trkpt>
      <trkpt lat="45.07682" lon="2.66736">
        <ele>955.5</ele>
        <time>2021-08-22T15:57:24Z</time>
      </trkpt>
      <trkpt lat="45.07685" lon="2.66735">
        <ele>955.8</ele>
        <time>2021-08-22T15:57:26Z</time>
      </trkpt>
      <trkpt lat="45.07687" lon="2.66736">
        <ele>956.2</ele>
        <time>2021-08-22T15:57:28Z</time>
      </trkpt>
      <trkpt lat="45.07691" lon="2.66738">
        <ele>956.6</ele>
        <time>2021-08-22T15:57:30Z</time>
      </trkpt>
      <trkpt lat="45.07694" lon="2.66737">
        <ele>957</ele>
        <time>2021-08-22T15:57:32Z</time>
      </trkpt>
      <trkpt lat="45.07697" lon="2.66738">
        <ele>957.4</ele>
        <time>2021-08-22T15:57:34Z</time>
      </trkpt>
      <trkpt lat="45.077" lon="2.6674">
        <ele>957.7</ele>
        <time>2021-08-22T15:57:36Z</time>
      </trkpt>
      <trkpt lat="45.07703" lon="2.66741">
        <ele>958.1</ele>
        <time>2021-08-22T15:57:38Z</time>
      </trkpt>
      <trkpt lat="45.07706" lon="2.66742">
        <ele>958.5</ele>
        <time>2021-08-22T15:57:40Z</time>
      </trkpt>
      <trkpt lat="45.07708" lon="2.66742">
        <ele>958.8</ele>
        <time>2021-08-22T15:57:42Z</time>
      </trkpt>
      <trkpt lat="45.0771" lon="2.66744">
        <ele>959</ele>
        <time>2021-08-22T15:57:44Z</time>
      </trkpt>
      <trkpt lat="45.07713" lon="2.66746">
        <ele>959.3</ele>
        <time>2021-08-22T15:57:46Z</time>
      </trkpt>
      <trkpt lat="45.07715" lon="2.66747">
        <ele>959.5</ele>
        <time>2021-08-22T15:57:48Z</time>
      </trkpt>
      <trkpt lat="45.07718" lon="2.66748">
        <ele>959.8</ele>
        <time>2021-08-22T15:57:50Z</time>
      </trkpt>
      <trkpt lat="45.07718" lon="2.6675">
        <ele>959.9</ele>
        <time>2021-08-22T15:57:52Z</time>
      </trkpt>
      <trkpt lat="45.07721" lon="2.66753">
        <ele>960.5</ele>
        <time>2021-08-22T15:57:54Z</time>
      </trkpt>
      <trkpt lat="45.07724" lon="2.66752">
        <ele>960.8</ele>
        <time>2021-08-22T15:57:56Z</time>
      </trkpt>
      <trkpt lat="45.07726" lon="2.66752">
        <ele>961.2</ele>
        <time>2021-08-22T15:57:58Z</time>
      </trkpt>
      <trkpt lat="45.07729" lon="2.66755">
        <ele>961.8</ele>
        <time>2021-08-22T15:58:00Z</time>
      </trkpt>
      <trkpt lat="45.07732" lon="2.66756">
        <ele>962.3</ele>
        <time>2021-08-22T15:58:02Z</time>
      </trkpt>
      <trkpt lat="45.07735" lon="2.66757">
        <ele>962.8</ele>
        <time>2021-08-22T15:58:04Z</time>
      </trkpt>
      <trkpt lat="45.07737" lon="2.66758">
        <ele>963.2</ele>
        <time>2021-08-22T15:58:06Z</time>
      </trkpt>
      <trkpt lat="45.0774" lon="2.66759">
        <ele>963.7</ele>
        <time>2021-08-22T15:58:08Z</time>
      </trkpt>
      <trkpt lat="45.07742" lon="2.66761">
        <ele>964.2</ele>
        <time>2021-08-22T15:58:10Z</time>
      </trkpt>
      <trkpt lat="45.07744" lon="2.66762">
        <ele>964.6</ele>
        <time>2021-08-22T15:58:12Z</time>
      </trkpt>
      <trkpt lat="45.07746" lon="2.66763">
        <ele>964.9</ele>
        <time>2021-08-22T15:58:14Z</time>
      </trkpt>
      <trkpt lat="45.07748" lon="2.66762">
        <ele>965.1</ele>
        <time>2021-08-22T15:58:16Z</time>
      </trkpt>
      <trkpt lat="45.07751" lon="2.66761">
        <ele>965.2</ele>
        <time>2021-08-22T15:58:18Z</time>
      </trkpt>
      <trkpt lat="45.07752" lon="2.66759">
        <ele>965.2</ele>
        <time>2021-08-22T15:58:20Z</time>
      </trkpt>
      <trkpt lat="45.0775" lon="2.66756">
        <ele>964.6</ele>
        <time>2021-08-22T15:58:22Z</time>
      </trkpt>
      <trkpt lat="45.07747" lon="2.66754">
        <ele>964</ele>
        <time>2021-08-22T15:58:24Z</time>
      </trkpt>
      <trkpt lat="45.07745" lon="2.6675">
        <ele>963.4</ele>
        <time>2021-08-22T15:58:26Z</time>
      </trkpt>
      <trkpt lat="45.07744" lon="2.66749">
        <ele>963.3</ele>
        <time>2021-08-22T15:58:28Z</time>
      </trkpt>
      <trkpt lat="45.07743" lon="2.66748">
        <ele>963.2</ele>
        <time>2021-08-22T15:58:30Z</time>
      </trkpt>
      <trkpt lat="45.07741" lon="2.66746">
        <ele>963</ele>
        <time>2021-08-22T15:58:32Z</time>
      </trkpt>
      <trkpt lat="45.07739" lon="2.66745">
        <ele>962.8</ele>
        <time>2021-08-22T15:58:34Z</time>
      </trkpt>
      <trkpt lat="45.07737" lon="2.66745">
        <ele>962.5</ele>
        <time>2021-08-22T15:58:36Z</time>
      </trkpt>
      <trkpt lat="45.07734" lon="2.66744">
        <ele>962.2</ele>
        <time>2021-08-22T15:58:38Z</time>
      </trkpt>
      <trkpt lat="45.07731" lon="2.66742">
        <ele>961.9</ele>
        <time>2021-08-22T15:58:40Z</time>
      </trkpt>
      <trkpt lat="45.07729" lon="2.6674">
        <ele>961.7</ele>
        <time>2021-08-22T15:58:42Z</time>
      </trkpt>
      <trkpt lat="45.07727" lon="2.66737">
        <ele>961.6</ele>
        <time>2021-08-22T15:58:44Z</time>
      </trkpt>
      <trkpt lat="45.07726" lon="2.66735">
        <ele>961.6</ele>
        <time>2021-08-22T15:58:46Z</time>
      </trkpt>
      <trkpt lat="45.07726" lon="2.66734">
        <ele>961.6</ele>
        <time>2021-08-22T15:58:48Z</time>
      </trkpt>
      <trkpt lat="45.07726" lon="2.66734">
        <ele>961.7</ele>
        <time>2021-08-22T15:58:50Z</time>
      </trkpt>
      <trkpt lat="45.07727" lon="2.66734">
        <ele>961.7</ele>
        <time>2021-08-22T15:58:52Z</time>
      </trkpt>
      <trkpt lat="45.07726" lon="2.66734">
        <ele>961.7</ele>
        <time>2021-08-22T15:58:54Z</time>
      </trkpt>
      <trkpt lat="45.07744" lon="2.66734">
        <ele>964.1</ele>
        <time>2021-08-22T17:26:26Z</time>
      </trkpt>
      <trkpt lat="45.07745" lon="2.66738">
        <ele>964.1</ele>
        <time>2021-08-22T17:26:28Z</time>
      </trkpt>
      <trkpt lat="45.07746" lon="2.66742">
        <ele>963.9</ele>
        <time>2021-08-22T17:26:30Z</time>
      </trkpt>
      <trkpt lat="45.07748" lon="2.66746">
        <ele>963.9</ele>
        <time>2021-08-22T17:26:32Z</time>
      </trkpt>
      <trkpt lat="45.07751" lon="2.66748">
        <ele>964.2</ele>
        <time>2021-08-22T17:26:34Z</time>
      </trkpt>
      <trkpt lat="45.07755" lon="2.66751">
        <ele>964.7</ele>
        <time>2021-08-22T17:26:36Z</time>
      </trkpt>
      <trkpt lat="45.07758" lon="2.66753">
        <ele>965.4</ele>
        <time>2021-08-22T17:26:38Z</time>
      </trkpt>
      <trkpt lat="45.0776" lon="2.66758">
        <ele>966</ele>
        <time>2021-08-22T17:26:40Z</time>
      </trkpt>
      <trkpt lat="45.07753" lon="2.66762">
        <ele>965.6</ele>
        <time>2021-08-22T17:26:42Z</time>
      </trkpt>
      <trkpt lat="45.07738" lon="2.66758">
        <ele>963.3</ele>
        <time>2021-08-22T17:26:44Z</time>
      </trkpt>
      <trkpt lat="45.07736" lon="2.66754">
        <ele>962.5</ele>
        <time>2021-08-22T17:26:46Z</time>
      </trkpt>
      <trkpt lat="45.07725" lon="2.66746">
        <ele>960.9</ele>
        <time>2021-08-22T17:26:48Z</time>
      </trkpt>
      <trkpt lat="45.07717" lon="2.6674">
        <ele>960.1</ele>
        <time>2021-08-22T17:26:50Z</time>
      </trkpt>
      <trkpt lat="45.07708" lon="2.66736">
        <ele>959</ele>
        <time>2021-08-22T17:26:52Z</time>
      </trkpt>
      <trkpt lat="45.07699" lon="2.66734">
        <ele>957.8</ele>
        <time>2021-08-22T17:26:54Z</time>
      </trkpt>
      <trkpt lat="45.07689" lon="2.66732">
        <ele>956.6</ele>
        <time>2021-08-22T17:26:56Z</time>
      </trkpt>
      <trkpt lat="45.0768" lon="2.66728">
        <ele>955.4</ele>
        <time>2021-08-22T17:26:58Z</time>
      </trkpt>
      <trkpt lat="45.07668" lon="2.66732">
        <ele>953.6</ele>
        <time>2021-08-22T17:27:00Z</time>
      </trkpt>
      <trkpt lat="45.0766" lon="2.66729">
        <ele>953.5</ele>
        <time>2021-08-22T17:27:02Z</time>
      </trkpt>
      <trkpt lat="45.07655" lon="2.66731">
        <ele>953.5</ele>
        <time>2021-08-22T17:27:04Z</time>
      </trkpt>
      <trkpt lat="45.07647" lon="2.66727">
        <ele>953.5</ele>
        <time>2021-08-22T17:27:06Z</time>
      </trkpt>
      <trkpt lat="45.07639" lon="2.66721">
        <ele>953.4</ele>
        <time>2021-08-22T17:27:08Z</time>
      </trkpt>
      <trkpt lat="45.07632" lon="2.66714">
        <ele>953.2</ele>
        <time>2021-08-22T17:27:10Z</time>
      </trkpt>
      <trkpt lat="45.07628" lon="2.66704">
        <ele>953</ele>
        <time>2021-08-22T17:27:12Z</time>
      </trkpt>
      <trkpt lat="45.07625" lon="2.667">
        <ele>952.8</ele>
        <time>2021-08-22T17:27:14Z</time>
      </trkpt>
      <trkpt lat="45.07623" lon="2.66698">
        <ele>952.7</ele>
        <time>2021-08-22T17:27:16Z</time>
      </trkpt>
      <trkpt lat="45.07622" lon="2.66696">
        <ele>952.6</ele>
        <time>2021-08-22T17:27:18Z</time>
      </trkpt>
      <trkpt lat="45.07623" lon="2.66696">
        <ele>952.6</ele>
        <time>2021-08-22T17:27:20Z</time>
      </trkpt>
      <trkpt lat="45.07623" lon="2.66695">
        <ele>952.6</ele>
        <time>2021-08-22T17:27:22Z</time>
      </trkpt>
      <trkpt lat="45.07623" lon="2.66695">
        <ele>952.6</ele>
        <time>2021-08-22T17:27:24Z</time>
      </trkpt>
      <trkpt lat="45.07624" lon="2.66696">
        <ele>952.7</ele>
        <time>2021-08-22T17:27:26Z</time>
      </trkpt>
      <trkpt lat="45.07624" lon="2.66702">
        <ele>952.8</ele>
        <time>2021-08-22T17:28:54Z</time>
      </trkpt>
      <trkpt lat="45.07621" lon="2.66697">
        <ele>952.6</ele>
        <time>2021-08-22T17:28:56Z</time>
      </trkpt>
      <trkpt lat="45.0762" lon="2.66695">
        <ele>952.5</ele>
        <time>2021-08-22T17:28:58Z</time>
      </trkpt>
      <trkpt lat="45.07618" lon="2.66691">
        <ele>952.3</ele>
        <time>2021-08-22T17:29:00Z</time>
      </trkpt>
      <trkpt lat="45.07617" lon="2.66688">
        <ele>952.1</ele>
        <time>2021-08-22T17:29:02Z</time>
      </trkpt>
      <trkpt lat="45.07618" lon="2.66683">
        <ele>952</ele>
        <time>2021-08-22T17:29:04Z</time>
      </trkpt>
      <trkpt lat="45.07622" lon="2.6668">
        <ele>952.2</ele>
        <time>2021-08-22T17:29:06Z</time>
      </trkpt>
      <trkpt lat="45.07626" lon="2.66683">
        <ele>952.4</ele>
        <time>2021-08-22T17:29:08Z</time>
      </trkpt>
      <trkpt lat="45.07627" lon="2.66686">
        <ele>952.6</ele>
        <time>2021-08-22T17:29:10Z</time>
      </trkpt>
      <trkpt lat="45.07628" lon="2.66688">
        <ele>952.7</ele>
        <time>2021-08-22T17:29:12Z</time>
      </trkpt>
      <trkpt lat="45.07629" lon="2.66691">
        <ele>952.8</ele>
        <time>2021-08-22T17:29:14Z</time>
      </trkpt>
      <trkpt lat="45.07629" lon="2.66691">
        <ele>952.8</ele>
        <time>2021-08-22T17:29:16Z</time>
      </trkpt>
      <trkpt lat="45.0763" lon="2.66691">
        <ele>952.8</ele>
        <time>2021-08-22T17:29:18Z</time>
      </trkpt>
      <trkpt lat="45.07629" lon="2.66692">
        <ele>952.8</ele>
        <time>2021-08-22T17:29:20Z</time>
      </trkpt>
      <trkpt lat="45.07631" lon="2.66693">
        <ele>952.9</ele>
        <time>2021-08-22T17:29:22Z</time>
      </trkpt>
      <trkpt lat="45.07607" lon="2.66672">
        <ele>950.9</ele>
        <time>2021-08-22T17:31:08Z</time>
      </trkpt>
      <trkpt lat="45.07603" lon="2.66662">
        <ele>950.4</ele>
        <time>2021-08-22T17:31:10Z</time>
      </trkpt>
      <trkpt lat="45.07599" lon="2.66653">
        <ele>950</ele>
        <time>2021-08-22T17:31:12Z</time>
      </trkpt>
      <trkpt lat="45.07594" lon="2.66643">
        <ele>949.4</ele>
        <time>2021-08-22T17:31:14Z</time>
      </trkpt>
      <trkpt lat="45.0759" lon="2.66634">
        <ele>948.8</ele>
        <time>2021-08-22T17:31:16Z</time>
      </trkpt>
      <trkpt lat="45.07585" lon="2.66624">
        <ele>948.1</ele>
        <time>2021-08-22T17:31:18Z</time>
      </trkpt>
      <trkpt lat="45.0758" lon="2.66613">
        <ele>948</ele>
        <time>2021-08-22T17:31:20Z</time>
      </trkpt>
      <trkpt lat="45.07577" lon="2.66599">
        <ele>947.8</ele>
        <time>2021-08-22T17:31:22Z</time>
      </trkpt>
      <trkpt lat="45.07573" lon="2.66589">
        <ele>947.6</ele>
        <time>2021-08-22T17:31:24Z</time>
      </trkpt>
      <trkpt lat="45.07569" lon="2.66577">
        <ele>947.4</ele>
        <time>2021-08-22T17:31:26Z</time>
      </trkpt>
      <trkpt lat="45.07563" lon="2.66566">
        <ele>947.2</ele>
        <time>2021-08-22T17:31:28Z</time>
      </trkpt>
      <trkpt lat="45.07558" lon="2.66555">
        <ele>946.8</ele>
        <time>2021-08-22T17:31:30Z</time>
      </trkpt>
      <trkpt lat="45.07553" lon="2.66545">
        <ele>946.5</ele>
        <time>2021-08-22T17:31:32Z</time>
      </trkpt>
      <trkpt lat="45.07547" lon="2.66535">
        <ele>946</ele>
        <time>2021-08-22T17:31:34Z</time>
      </trkpt>
      <trkpt lat="45.07541" lon="2.66526">
        <ele>945.4</ele>
        <time>2021-08-22T17:31:36Z</time>
      </trkpt>
      <trkpt lat="45.07533" lon="2.6652">
        <ele>944.8</ele>
        <time>2021-08-22T17:31:38Z</time>
      </trkpt>
      <trkpt lat="45.07526" lon="2.66513">
        <ele>944.1</ele>
        <time>2021-08-22T17:31:40Z</time>
      </trkpt>
      <trkpt lat="45.07521" lon="2.66504">
        <ele>943.3</ele>
        <time>2021-08-22T17:31:42Z</time>
      </trkpt>
      <trkpt lat="45.07515" lon="2.66495">
        <ele>942.7</ele>
        <time>2021-08-22T17:31:44Z</time>
      </trkpt>
      <trkpt lat="45.0751" lon="2.66485">
        <ele>942.4</ele>
        <time>2021-08-22T17:31:46Z</time>
      </trkpt>
      <trkpt lat="45.07508" lon="2.66476">
        <ele>942.2</ele>
        <time>2021-08-22T17:31:48Z</time>
      </trkpt>
      <trkpt lat="45.07508" lon="2.66465">
        <ele>942.1</ele>
        <time>2021-08-22T17:31:50Z</time>
      </trkpt>
      <trkpt lat="45.07508" lon="2.66458">
        <ele>942.1</ele>
        <time>2021-08-22T17:31:52Z</time>
      </trkpt>
      <trkpt lat="45.07507" lon="2.66454">
        <ele>942</ele>
        <time>2021-08-22T17:31:54Z</time>
      </trkpt>
      <trkpt lat="45.07505" lon="2.66453">
        <ele>941.8</ele>
        <time>2021-08-22T17:31:56Z</time>
      </trkpt>
      <trkpt lat="45.07503" lon="2.66455">
        <ele>941.7</ele>
        <time>2021-08-22T17:31:58Z</time>
      </trkpt>
      <trkpt lat="45.07502" lon="2.6646">
        <ele>941.7</ele>
        <time>2021-08-22T17:32:00Z</time>
      </trkpt>
      <trkpt lat="45.07505" lon="2.66464">
        <ele>941.9</ele>
        <time>2021-08-22T17:32:02Z</time>
      </trkpt>
      <trkpt lat="45.07506" lon="2.66466">
        <ele>942</ele>
        <time>2021-08-22T17:32:04Z</time>
      </trkpt>
      <trkpt lat="45.07507" lon="2.66466">
        <ele>942.1</ele>
        <time>2021-08-22T17:32:06Z</time>
      </trkpt>
      <trkpt lat="45.07509" lon="2.66463">
        <ele>942.2</ele>
        <time>2021-08-22T17:32:08Z</time>
      </trkpt>
      <trkpt lat="45.07508" lon="2.66458">
        <ele>942.1</ele>
        <time>2021-08-22T17:32:10Z</time>
      </trkpt>
      <trkpt lat="45.07507" lon="2.66457">
        <ele>942</ele>
        <time>2021-08-22T17:32:12Z</time>
      </trkpt>
      <trkpt lat="45.07507" lon="2.66457">
        <ele>942</ele>
        <time>2021-08-22T17:32:14Z</time>
      </trkpt>
      <trkpt lat="45.07506" lon="2.66457">
        <ele>941.9</ele>
        <time>2021-08-22T17:32:16Z</time>
      </trkpt>
      <trkpt lat="45.07506" lon="2.66457">
        <ele>941.9</ele>
        <time>2021-08-22T17:32:18Z</time>
      </trkpt>
      <trkpt lat="45.07506" lon="2.66456">
        <ele>941.9</ele>
        <time>2021-08-22T17:32:20Z</time>
      </trkpt>
      <trkpt lat="45.07496" lon="2.66437">
        <ele>941.2</ele>
        <time>2021-08-22T17:32:48Z</time>
      </trkpt>
      <trkpt lat="45.07493" lon="2.66428">
        <ele>940.9</ele>
        <time>2021-08-22T17:32:50Z</time>
      </trkpt>
      <trkpt lat="45.07488" lon="2.6642">
        <ele>940.7</ele>
        <time>2021-08-22T17:32:52Z</time>
      </trkpt>
      <trkpt lat="45.07483" lon="2.66414">
        <ele>940.4</ele>
        <time>2021-08-22T17:32:54Z</time>
      </trkpt>
      <trkpt lat="45.07478" lon="2.66405">
        <ele>940.3</ele>
        <time>2021-08-22T17:32:56Z</time>
      </trkpt>
      <trkpt lat="45.07476" lon="2.66395">
        <ele>940.3</ele>
        <time>2021-08-22T17:32:58Z</time>
      </trkpt>
      <trkpt lat="45.07477" lon="2.66386">
        <ele>940.4</ele>
        <time>2021-08-22T17:33:00Z</time>
      </trkpt>
      <trkpt lat="45.07478" lon="2.66379">
        <ele>940.5</ele>
        <time>2021-08-22T17:33:02Z</time>
      </trkpt>
      <trkpt lat="45.07478" lon="2.66372">
        <ele>940.5</ele>
        <time>2021-08-22T17:33:04Z</time>
      </trkpt>
      <trkpt lat="45.07473" lon="2.66364">
        <ele>940.3</ele>
        <time>2021-08-22T17:33:06Z</time>
      </trkpt>
      <trkpt lat="45.07466" lon="2.66356">
        <ele>939.7</ele>
        <time>2021-08-22T17:33:08Z</time>
      </trkpt>
      <trkpt lat="45.07459" lon="2.66344">
        <ele>939.1</ele>
        <time>2021-08-22T17:33:10Z</time>
      </trkpt>
      <trkpt lat="45.0745" lon="2.66332">
        <ele>938.2</ele>
        <time>2021-08-22T17:33:12Z</time>
      </trkpt>
      <trkpt lat="45.0744" lon="2.66319">
        <ele>937.3</ele>
        <time>2021-08-22T17:33:14Z</time>
      </trkpt>
      <trkpt lat="45.0743" lon="2.66308">
        <ele>936.2</ele>
        <time>2021-08-22T17:33:16Z</time>
      </trkpt>
      <trkpt lat="45.07418" lon="2.66299">
        <ele>935.1</ele>
        <time>2021-08-22T17:33:18Z</time>
      </trkpt>
      <trkpt lat="45.07406" lon="2.66292">
        <ele>934.9</ele>
        <time>2021-08-22T17:33:20Z</time>
      </trkpt>
      <trkpt lat="45.07394" lon="2.66285">
        <ele>934.8</ele>
        <time>2021-08-22T17:33:22Z</time>
      </trkpt>
      <trkpt lat="45.07381" lon="2.66278">
        <ele>934.7</ele>
        <time>2021-08-22T17:33:24Z</time>
      </trkpt>
      <trkpt lat="45.07369" lon="2.66269">
        <ele>934.6</ele>
        <time>2021-08-22T17:33:26Z</time>
      </trkpt>
      <trkpt lat="45.07357" lon="2.66259">
        <ele>934.4</ele>
        <time>2021-08-22T17:33:28Z</time>
      </trkpt>
      <trkpt lat="45.07346" lon="2.66249">
        <ele>934.1</ele>
        <time>2021-08-22T17:33:30Z</time>
      </trkpt>
      <trkpt lat="45.07334" lon="2.66237">
        <ele>933.9</ele>
        <time>2021-08-22T17:33:32Z</time>
      </trkpt>
      <trkpt lat="45.07323" lon="2.66224">
        <ele>933.5</ele>
        <time>2021-08-22T17:33:34Z</time>
      </trkpt>
      <trkpt lat="45.07313" lon="2.66211">
        <ele>933.1</ele>
        <time>2021-08-22T17:33:36Z</time>
      </trkpt>
      <trkpt lat="45.07304" lon="2.66196">
        <ele>932.5</ele>
        <time>2021-08-22T17:33:38Z</time>
      </trkpt>
      <trkpt lat="45.07297" lon="2.66179">
        <ele>932</ele>
        <time>2021-08-22T17:33:40Z</time>
      </trkpt>
      <trkpt lat="45.0729" lon="2.6616">
        <ele>931.4</ele>
        <time>2021-08-22T17:33:42Z</time>
      </trkpt>
      <trkpt lat="45.07283" lon="2.66141">
        <ele>930.9</ele>
        <time>2021-08-22T17:33:44Z</time>
      </trkpt>
      <trkpt lat="45.07276" lon="2.66122">
        <ele>930.4</ele>
        <time>2021-08-22T17:33:46Z</time>
      </trkpt>
      <trkpt lat="45.07269" lon="2.66103">
        <ele>929.7</ele>
        <time>2021-08-22T17:33:48Z</time>
      </trkpt>
      <trkpt lat="45.07261" lon="2.66084">
        <ele>928.8</ele>
        <time>2021-08-22T17:33:50Z</time>
      </trkpt>
      <trkpt lat="45.07254" lon="2.66067">
        <ele>930.2</ele>
        <time>2021-08-22T17:33:52Z</time>
      </trkpt>
      <trkpt lat="45.07246" lon="2.6605">
        <ele>931.5</ele>
        <time>2021-08-22T17:33:54Z</time>
      </trkpt>
      <trkpt lat="45.07236" lon="2.66035">
        <ele>932.5</ele>
        <time>2021-08-22T17:33:56Z</time>
      </trkpt>
      <trkpt lat="45.07226" lon="2.66021">
        <ele>932.8</ele>
        <time>2021-08-22T17:33:58Z</time>
      </trkpt>
      <trkpt lat="45.07214" lon="2.6601">
        <ele>932.6</ele>
        <time>2021-08-22T17:34:00Z</time>
      </trkpt>
      <trkpt lat="45.07202" lon="2.65998">
        <ele>932.2</ele>
        <time>2021-08-22T17:34:02Z</time>
      </trkpt>
      <trkpt lat="45.07189" lon="2.65986">
        <ele>932.4</ele>
        <time>2021-08-22T17:34:04Z</time>
      </trkpt>
      <trkpt lat="45.07177" lon="2.65972">
        <ele>932.5</ele>
        <time>2021-08-22T17:34:06Z</time>
      </trkpt>
      <trkpt lat="45.07165" lon="2.6596">
        <ele>932.2</ele>
        <time>2021-08-22T17:34:08Z</time>
      </trkpt>
      <trkpt lat="45.07152" lon="2.65947">
        <ele>932.5</ele>
        <time>2021-08-22T17:34:10Z</time>
      </trkpt>
      <trkpt lat="45.0714" lon="2.65935">
        <ele>932.2</ele>
        <time>2021-08-22T17:34:12Z</time>
      </trkpt>
      <trkpt lat="45.07128" lon="2.65923">
        <ele>931.6</ele>
        <time>2021-08-22T17:34:14Z</time>
      </trkpt>
      <trkpt lat="45.07116" lon="2.65911">
        <ele>930.7</ele>
        <time>2021-08-22T17:34:16Z</time>
      </trkpt>
      <trkpt lat="45.07105" lon="2.65898">
        <ele>930</ele>
        <time>2021-08-22T17:34:18Z</time>
      </trkpt>
      <trkpt lat="45.07094" lon="2.65885">
        <ele>929</ele>
        <time>2021-08-22T17:34:20Z</time>
      </trkpt>
      <trkpt lat="45.07085" lon="2.65871">
        <ele>928</ele>
        <time>2021-08-22T17:34:22Z</time>
      </trkpt>
      <trkpt lat="45.07076" lon="2.65857">
        <ele>928</ele>
        <time>2021-08-22T17:34:24Z</time>
      </trkpt>
      <trkpt lat="45.07068" lon="2.65844">
        <ele>928.1</ele>
        <time>2021-08-22T17:34:26Z</time>
      </trkpt>
      <trkpt lat="45.0706" lon="2.65832">
        <ele>928.2</ele>
        <time>2021-08-22T17:34:28Z</time>
      </trkpt>
      <trkpt lat="45.07053" lon="2.65819">
        <ele>928.6</ele>
        <time>2021-08-22T17:34:30Z</time>
      </trkpt>
      <trkpt lat="45.07047" lon="2.65807">
        <ele>928.9</ele>
        <time>2021-08-22T17:34:32Z</time>
      </trkpt>
      <trkpt lat="45.07042" lon="2.65795">
        <ele>928.9</ele>
        <time>2021-08-22T17:34:34Z</time>
      </trkpt>
      <trkpt lat="45.07038" lon="2.65784">
        <ele>928.9</ele>
        <time>2021-08-22T17:34:36Z</time>
      </trkpt>
      <trkpt lat="45.07032" lon="2.65774">
        <ele>928.5</ele>
        <time>2021-08-22T17:34:38Z</time>
      </trkpt>
      <trkpt lat="45.07028" lon="2.65764">
        <ele>928.1</ele>
        <time>2021-08-22T17:34:40Z</time>
      </trkpt>
      <trkpt lat="45.07025" lon="2.65755">
        <ele>927.8</ele>
        <time>2021-08-22T17:34:42Z</time>
      </trkpt>
      <trkpt lat="45.07022" lon="2.65749">
        <ele>927.4</ele>
        <time>2021-08-22T17:34:44Z</time>
      </trkpt>
      <trkpt lat="45.0702" lon="2.65743">
        <ele>927.6</ele>
        <time>2021-08-22T17:34:46Z</time>
      </trkpt>
      <trkpt lat="45.07025" lon="2.65738">
        <ele>928.7</ele>
        <time>2021-08-22T17:34:48Z</time>
      </trkpt>
      <trkpt lat="45.07029" lon="2.65736">
        <ele>929.6</ele>
        <time>2021-08-22T17:34:50Z</time>
      </trkpt>
      <trkpt lat="45.07032" lon="2.65732">
        <ele>930.4</ele>
        <time>2021-08-22T17:34:52Z</time>
      </trkpt>
      <trkpt lat="45.07036" lon="2.65729">
        <ele>931.3</ele>
        <time>2021-08-22T17:34:54Z</time>
      </trkpt>
      <trkpt lat="45.07039" lon="2.65725">
        <ele>932.1</ele>
        <time>2021-08-22T17:34:56Z</time>
      </trkpt>
      <trkpt lat="45.0704" lon="2.65723">
        <ele>932.6</ele>
        <time>2021-08-22T17:34:58Z</time>
      </trkpt>
      <trkpt lat="45.07044" lon="2.6572">
        <ele>933.5</ele>
        <time>2021-08-22T17:35:00Z</time>
      </trkpt>
      <trkpt lat="45.07046" lon="2.65719">
        <ele>933.9</ele>
        <time>2021-08-22T17:35:02Z</time>
      </trkpt>
      <trkpt lat="45.07048" lon="2.65718">
        <ele>934.2</ele>
        <time>2021-08-22T17:35:04Z</time>
      </trkpt>
      <trkpt lat="45.07048" lon="2.65717">
        <ele>934.4</ele>
        <time>2021-08-22T17:35:06Z</time>
      </trkpt>
      <trkpt lat="45.07028" lon="2.65738">
        <ele>929.4</ele>
        <time>2021-08-22T19:28:04Z</time>
      </trkpt>
      <trkpt lat="45.07023" lon="2.65741">
        <ele>928.2</ele>
        <time>2021-08-22T19:28:06Z</time>
      </trkpt>
      <trkpt lat="45.07019" lon="2.65744">
        <ele>927.5</ele>
        <time>2021-08-22T19:28:08Z</time>
      </trkpt>
      <trkpt lat="45.07017" lon="2.65748">
        <ele>926.8</ele>
        <time>2021-08-22T19:28:10Z</time>
      </trkpt>
      <trkpt lat="45.07018" lon="2.65754">
        <ele>926.9</ele>
        <time>2021-08-22T19:28:12Z</time>
      </trkpt>
      <trkpt lat="45.07022" lon="2.65759">
        <ele>927.4</ele>
        <time>2021-08-22T19:28:14Z</time>
      </trkpt>
      <trkpt lat="45.07026" lon="2.65765">
        <ele>927.8</ele>
        <time>2021-08-22T19:28:16Z</time>
      </trkpt>
      <trkpt lat="45.07029" lon="2.65772">
        <ele>928.2</ele>
        <time>2021-08-22T19:28:18Z</time>
      </trkpt>
      <trkpt lat="45.07033" lon="2.65778">
        <ele>928.5</ele>
        <time>2021-08-22T19:28:20Z</time>
      </trkpt>
      <trkpt lat="45.07037" lon="2.65785">
        <ele>928.8</ele>
        <time>2021-08-22T19:28:22Z</time>
      </trkpt>
      <trkpt lat="45.07042" lon="2.65792">
        <ele>929.1</ele>
        <time>2021-08-22T19:28:24Z</time>
      </trkpt>
      <trkpt lat="45.07045" lon="2.65799">
        <ele>929.1</ele>
        <time>2021-08-22T19:28:26Z</time>
      </trkpt>
      <trkpt lat="45.07049" lon="2.65811">
        <ele>928.8</ele>
        <time>2021-08-22T19:28:29Z</time>
      </trkpt>
      <trkpt lat="45.07051" lon="2.65815">
        <ele>928.7</ele>
        <time>2021-08-22T19:28:30Z</time>
      </trkpt>
      <trkpt lat="45.07055" lon="2.65823">
        <ele>928.6</ele>
        <time>2021-08-22T19:28:32Z</time>
      </trkpt>
      <trkpt lat="45.07057" lon="2.65831">
        <ele>928.2</ele>
        <time>2021-08-22T19:28:34Z</time>
      </trkpt>
      <trkpt lat="45.07061" lon="2.65838">
        <ele>928.1</ele>
        <time>2021-08-22T19:28:36Z</time>
      </trkpt>
      <trkpt lat="45.07068" lon="2.65848">
        <ele>928</ele>
        <time>2021-08-22T19:28:39Z</time>
      </trkpt>
      <trkpt lat="45.07072" lon="2.65856">
        <ele>927.9</ele>
        <time>2021-08-22T19:28:41Z</time>
      </trkpt>
      <trkpt lat="45.07074" lon="2.6586">
        <ele>927.9</ele>
        <time>2021-08-22T19:28:42Z</time>
      </trkpt>
      <trkpt lat="45.07079" lon="2.65868">
        <ele>927.7</ele>
        <time>2021-08-22T19:28:44Z</time>
      </trkpt>
      <trkpt lat="45.07084" lon="2.65875">
        <ele>927.6</ele>
        <time>2021-08-22T19:28:46Z</time>
      </trkpt>
      <trkpt lat="45.07089" lon="2.65882">
        <ele>928.2</ele>
        <time>2021-08-22T19:28:48Z</time>
      </trkpt>
      <trkpt lat="45.07095" lon="2.65888">
        <ele>929</ele>
        <time>2021-08-22T19:28:50Z</time>
      </trkpt>
      <trkpt lat="45.07099" lon="2.65894">
        <ele>929.3</ele>
        <time>2021-08-22T19:28:52Z</time>
      </trkpt>
      <trkpt lat="45.07105" lon="2.65901">
        <ele>929.7</ele>
        <time>2021-08-22T19:28:54Z</time>
      </trkpt>
      <trkpt lat="45.0711" lon="2.65911">
        <ele>930</ele>
        <time>2021-08-22T19:28:56Z</time>
      </trkpt>
      <trkpt lat="45.07117" lon="2.65919">
        <ele>930.4</ele>
        <time>2021-08-22T19:28:58Z</time>
      </trkpt>
      <trkpt lat="45.07127" lon="2.65929">
        <ele>931.2</ele>
        <time>2021-08-22T19:29:01Z</time>
      </trkpt>
      <trkpt lat="45.0713" lon="2.65931">
        <ele>931.5</ele>
        <time>2021-08-22T19:29:02Z</time>
      </trkpt>
      <trkpt lat="45.07136" lon="2.65938">
        <ele>931.7</ele>
        <time>2021-08-22T19:29:04Z</time>
      </trkpt>
      <trkpt lat="45.07141" lon="2.65943">
        <ele>931.9</ele>
        <time>2021-08-22T19:29:06Z</time>
      </trkpt>
      <trkpt lat="45.07146" lon="2.65947">
        <ele>932.1</ele>
        <time>2021-08-22T19:29:08Z</time>
      </trkpt>
      <trkpt lat="45.07153" lon="2.65952">
        <ele>932.1</ele>
        <time>2021-08-22T19:29:10Z</time>
      </trkpt>
      <trkpt lat="45.07158" lon="2.65958">
        <ele>931.9</ele>
        <time>2021-08-22T19:29:12Z</time>
      </trkpt>
      <trkpt lat="45.07163" lon="2.65962">
        <ele>931.8</ele>
        <time>2021-08-22T19:29:14Z</time>
      </trkpt>
      <trkpt lat="45.07167" lon="2.65968">
        <ele>931.6</ele>
        <time>2021-08-22T19:29:16Z</time>
      </trkpt>
      <trkpt lat="45.07171" lon="2.65973">
        <ele>931.6</ele>
        <time>2021-08-22T19:29:18Z</time>
      </trkpt>
      <trkpt lat="45.07176" lon="2.65979">
        <ele>931.6</ele>
        <time>2021-08-22T19:29:20Z</time>
      </trkpt>
      <trkpt lat="45.07182" lon="2.65983">
        <ele>931.7</ele>
        <time>2021-08-22T19:29:22Z</time>
      </trkpt>
      <trkpt lat="45.07186" lon="2.65989">
        <ele>931.6</ele>
        <time>2021-08-22T19:29:24Z</time>
      </trkpt>
      <trkpt lat="45.0719" lon="2.65993">
        <ele>931.5</ele>
        <time>2021-08-22T19:29:26Z</time>
      </trkpt>
      <trkpt lat="45.07196" lon="2.65998">
        <ele>931.4</ele>
        <time>2021-08-22T19:29:28Z</time>
      </trkpt>
      <trkpt lat="45.07201" lon="2.66005">
        <ele>931.5</ele>
        <time>2021-08-22T19:29:30Z</time>
      </trkpt>
      <trkpt lat="45.07206" lon="2.6601">
        <ele>931.8</ele>
        <time>2021-08-22T19:29:32Z</time>
      </trkpt>
      <trkpt lat="45.07212" lon="2.66016">
        <ele>932</ele>
        <time>2021-08-22T19:29:34Z</time>
      </trkpt>
      <trkpt lat="45.07218" lon="2.66024">
        <ele>932.1</ele>
        <time>2021-08-22T19:29:37Z</time>
      </trkpt>
      <trkpt lat="45.07222" lon="2.66028">
        <ele>932.1</ele>
        <time>2021-08-22T19:29:38Z</time>
      </trkpt>
      <trkpt lat="45.07227" lon="2.66032">
        <ele>932.1</ele>
        <time>2021-08-22T19:29:40Z</time>
      </trkpt>
      <trkpt lat="45.07232" lon="2.6604">
        <ele>931.8</ele>
        <time>2021-08-22T19:29:42Z</time>
      </trkpt>
      <trkpt lat="45.07238" lon="2.66047">
        <ele>931.4</ele>
        <time>2021-08-22T19:29:44Z</time>
      </trkpt>
      <trkpt lat="45.07243" lon="2.66054">
        <ele>930.9</ele>
        <time>2021-08-22T19:29:46Z</time>
      </trkpt>
      <trkpt lat="45.07247" lon="2.66062">
        <ele>930.2</ele>
        <time>2021-08-22T19:29:48Z</time>
      </trkpt>
      <trkpt lat="45.07251" lon="2.6607">
        <ele>929.6</ele>
        <time>2021-08-22T19:29:50Z</time>
      </trkpt>
      <trkpt lat="45.07254" lon="2.6608">
        <ele>928.7</ele>
        <time>2021-08-22T19:29:52Z</time>
      </trkpt>
      <trkpt lat="45.07259" lon="2.66087">
        <ele>928.7</ele>
        <time>2021-08-22T19:29:54Z</time>
      </trkpt>
      <trkpt lat="45.07263" lon="2.66096">
        <ele>929.1</ele>
        <time>2021-08-22T19:29:56Z</time>
      </trkpt>
      <trkpt lat="45.07266" lon="2.66105">
        <ele>929.5</ele>
        <time>2021-08-22T19:29:58Z</time>
      </trkpt>
      <trkpt lat="45.0727" lon="2.66114">
        <ele>929.9</ele>
        <time>2021-08-22T19:30:00Z</time>
      </trkpt>
      <trkpt lat="45.07273" lon="2.66125">
        <ele>930.3</ele>
        <time>2021-08-22T19:30:02Z</time>
      </trkpt>
      <trkpt lat="45.07277" lon="2.66133">
        <ele>930.6</ele>
        <time>2021-08-22T19:30:04Z</time>
      </trkpt>
      <trkpt lat="45.0728" lon="2.66142">
        <ele>930.8</ele>
        <time>2021-08-22T19:30:06Z</time>
      </trkpt>
      <trkpt lat="45.07283" lon="2.66151">
        <ele>931.1</ele>
        <time>2021-08-22T19:30:08Z</time>
      </trkpt>
      <trkpt lat="45.07288" lon="2.66165">
        <ele>931.4</ele>
        <time>2021-08-22T19:30:11Z</time>
      </trkpt>
      <trkpt lat="45.0729" lon="2.66169">
        <ele>931.5</ele>
        <time>2021-08-22T19:30:12Z</time>
      </trkpt>
      <trkpt lat="45.07293" lon="2.66177">
        <ele>931.8</ele>
        <time>2021-08-22T19:30:14Z</time>
      </trkpt>
      <trkpt lat="45.07297" lon="2.66184">
        <ele>932.1</ele>
        <time>2021-08-22T19:30:16Z</time>
      </trkpt>
      <trkpt lat="45.07303" lon="2.66196">
        <ele>932.5</ele>
        <time>2021-08-22T19:30:19Z</time>
      </trkpt>
      <trkpt lat="45.07305" lon="2.66203">
        <ele>932.7</ele>
        <time>2021-08-22T19:30:21Z</time>
      </trkpt>
      <trkpt lat="45.07307" lon="2.66207">
        <ele>932.8</ele>
        <time>2021-08-22T19:30:22Z</time>
      </trkpt>
      <trkpt lat="45.07311" lon="2.66215">
        <ele>933.1</ele>
        <time>2021-08-22T19:30:24Z</time>
      </trkpt>
      <trkpt lat="45.0732" lon="2.66225">
        <ele>933.4</ele>
        <time>2021-08-22T19:30:27Z</time>
      </trkpt>
      <trkpt lat="45.07321" lon="2.66228">
        <ele>933.5</ele>
        <time>2021-08-22T19:30:28Z</time>
      </trkpt>
      <trkpt lat="45.0733" lon="2.6624">
        <ele>933.8</ele>
        <time>2021-08-22T19:30:31Z</time>
      </trkpt>
      <trkpt lat="45.07333" lon="2.66243">
        <ele>933.9</ele>
        <time>2021-08-22T19:30:32Z</time>
      </trkpt>
      <trkpt lat="45.07338" lon="2.6625">
        <ele>934.1</ele>
        <time>2021-08-22T19:30:34Z</time>
      </trkpt>
      <trkpt lat="45.07345" lon="2.66255">
        <ele>934.2</ele>
        <time>2021-08-22T19:30:36Z</time>
      </trkpt>
      <trkpt lat="45.07354" lon="2.66262">
        <ele>934.4</ele>
        <time>2021-08-22T19:30:39Z</time>
      </trkpt>
      <trkpt lat="45.07357" lon="2.66265">
        <ele>934.4</ele>
        <time>2021-08-22T19:30:40Z</time>
      </trkpt>
      <trkpt lat="45.07364" lon="2.6627">
        <ele>934.5</ele>
        <time>2021-08-22T19:30:42Z</time>
      </trkpt>
      <trkpt lat="45.07369" lon="2.66274">
        <ele>934.6</ele>
        <time>2021-08-22T19:30:44Z</time>
      </trkpt>
      <trkpt lat="45.07376" lon="2.66278">
        <ele>934.7</ele>
        <time>2021-08-22T19:30:46Z</time>
      </trkpt>
      <trkpt lat="45.07382" lon="2.66281">
        <ele>934.7</ele>
        <time>2021-08-22T19:30:48Z</time>
      </trkpt>
      <trkpt lat="45.07388" lon="2.66285">
        <ele>934.8</ele>
        <time>2021-08-22T19:30:50Z</time>
      </trkpt>
      <trkpt lat="45.07394" lon="2.6629">
        <ele>934.9</ele>
        <time>2021-08-22T19:30:52Z</time>
      </trkpt>
      <trkpt lat="45.07401" lon="2.66294">
        <ele>934.9</ele>
        <time>2021-08-22T19:30:54Z</time>
      </trkpt>
      <trkpt lat="45.07407" lon="2.66297">
        <ele>934.9</ele>
        <time>2021-08-22T19:30:56Z</time>
      </trkpt>
      <trkpt lat="45.07415" lon="2.66303">
        <ele>935</ele>
        <time>2021-08-22T19:30:59Z</time>
      </trkpt>
      <trkpt lat="45.07418" lon="2.66305">
        <ele>935.1</ele>
        <time>2021-08-22T19:31:00Z</time>
      </trkpt>
      <trkpt lat="45.07424" lon="2.66309">
        <ele>935.7</ele>
        <time>2021-08-22T19:31:02Z</time>
      </trkpt>
      <trkpt lat="45.0743" lon="2.66311">
        <ele>936.3</ele>
        <time>2021-08-22T19:31:04Z</time>
      </trkpt>
      <trkpt lat="45.07435" lon="2.66316">
        <ele>936.7</ele>
        <time>2021-08-22T19:31:06Z</time>
      </trkpt>
      <trkpt lat="45.0744" lon="2.66323">
        <ele>937.2</ele>
        <time>2021-08-22T19:31:08Z</time>
      </trkpt>
      <trkpt lat="45.07445" lon="2.66329">
        <ele>937.7</ele>
        <time>2021-08-22T19:31:10Z</time>
      </trkpt>
      <trkpt lat="45.07449" lon="2.66335">
        <ele>938.1</ele>
        <time>2021-08-22T19:31:12Z</time>
      </trkpt>
      <trkpt lat="45.07453" lon="2.66341">
        <ele>938.5</ele>
        <time>2021-08-22T19:31:14Z</time>
      </trkpt>
      <trkpt lat="45.07457" lon="2.66346">
        <ele>938.9</ele>
        <time>2021-08-22T19:31:16Z</time>
      </trkpt>
      <trkpt lat="45.07462" lon="2.66353">
        <ele>939.4</ele>
        <time>2021-08-22T19:31:19Z</time>
      </trkpt>
      <trkpt lat="45.07465" lon="2.66358">
        <ele>939.7</ele>
        <time>2021-08-22T19:31:21Z</time>
      </trkpt>
      <trkpt lat="45.07467" lon="2.6636">
        <ele>939.8</ele>
        <time>2021-08-22T19:31:22Z</time>
      </trkpt>
      <trkpt lat="45.07471" lon="2.66364">
        <ele>940.1</ele>
        <time>2021-08-22T19:31:24Z</time>
      </trkpt>
      <trkpt lat="45.07474" lon="2.66369">
        <ele>940.3</ele>
        <time>2021-08-22T19:31:26Z</time>
      </trkpt>
      <trkpt lat="45.07477" lon="2.66375">
        <ele>940.5</ele>
        <time>2021-08-22T19:31:28Z</time>
      </trkpt>
      <trkpt lat="45.0748" lon="2.66379">
        <ele>940.7</ele>
        <time>2021-08-22T19:31:30Z</time>
      </trkpt>
      <trkpt lat="45.0748" lon="2.66385">
        <ele>940.6</ele>
        <time>2021-08-22T19:31:32Z</time>
      </trkpt>
      <trkpt lat="45.07478" lon="2.66391">
        <ele>940.4</ele>
        <time>2021-08-22T19:31:34Z</time>
      </trkpt>
      <trkpt lat="45.0748" lon="2.66397">
        <ele>940.5</ele>
        <time>2021-08-22T19:31:36Z</time>
      </trkpt>
      <trkpt lat="45.07481" lon="2.6641">
        <ele>940.4</ele>
        <time>2021-08-22T19:31:39Z</time>
      </trkpt>
      <trkpt lat="45.07484" lon="2.66412">
        <ele>940.5</ele>
        <time>2021-08-22T19:31:40Z</time>
      </trkpt>
      <trkpt lat="45.07487" lon="2.66418">
        <ele>940.6</ele>
        <time>2021-08-22T19:31:42Z</time>
      </trkpt>
      <trkpt lat="45.07492" lon="2.66423">
        <ele>940.8</ele>
        <time>2021-08-22T19:31:44Z</time>
      </trkpt>
      <trkpt lat="45.07496" lon="2.66428">
        <ele>941</ele>
        <time>2021-08-22T19:31:46Z</time>
      </trkpt>
      <trkpt lat="45.075" lon="2.66439">
        <ele>941.3</ele>
        <time>2021-08-22T19:31:49Z</time>
      </trkpt>
      <trkpt lat="45.07503" lon="2.66446">
        <ele>941.6</ele>
        <time>2021-08-22T19:31:51Z</time>
      </trkpt>
      <trkpt lat="45.07503" lon="2.6645">
        <ele>941.6</ele>
        <time>2021-08-22T19:31:52Z</time>
      </trkpt>
      <trkpt lat="45.07506" lon="2.6646">
        <ele>941.9</ele>
        <time>2021-08-22T19:31:55Z</time>
      </trkpt>
      <trkpt lat="45.07507" lon="2.66466">
        <ele>942</ele>
        <time>2021-08-22T19:31:56Z</time>
      </trkpt>
      <trkpt lat="45.07508" lon="2.66475">
        <ele>942.2</ele>
        <time>2021-08-22T19:31:58Z</time>
      </trkpt>
      <trkpt lat="45.07509" lon="2.66484">
        <ele>942.3</ele>
        <time>2021-08-22T19:32:00Z</time>
      </trkpt>
      <trkpt lat="45.07512" lon="2.66492">
        <ele>942.5</ele>
        <time>2021-08-22T19:32:02Z</time>
      </trkpt>
      <trkpt lat="45.07515" lon="2.66498">
        <ele>942.7</ele>
        <time>2021-08-22T19:32:04Z</time>
      </trkpt>
      <trkpt lat="45.07519" lon="2.66504">
        <ele>943.2</ele>
        <time>2021-08-22T19:32:06Z</time>
      </trkpt>
      <trkpt lat="45.07522" lon="2.66509">
        <ele>943.7</ele>
        <time>2021-08-22T19:32:08Z</time>
      </trkpt>
      <trkpt lat="45.07526" lon="2.66512">
        <ele>944.1</ele>
        <time>2021-08-22T19:32:10Z</time>
      </trkpt>
      <trkpt lat="45.0753" lon="2.66519">
        <ele>944.7</ele>
        <time>2021-08-22T19:32:12Z</time>
      </trkpt>
      <trkpt lat="45.07535" lon="2.66523">
        <ele>945.1</ele>
        <time>2021-08-22T19:32:14Z</time>
      </trkpt>
      <trkpt lat="45.07538" lon="2.66526">
        <ele>945.3</ele>
        <time>2021-08-22T19:32:16Z</time>
      </trkpt>
      <trkpt lat="45.07542" lon="2.6653">
        <ele>945.6</ele>
        <time>2021-08-22T19:32:18Z</time>
      </trkpt>
      <trkpt lat="45.07546" lon="2.66534">
        <ele>945.9</ele>
        <time>2021-08-22T19:32:20Z</time>
      </trkpt>
      <trkpt lat="45.0755" lon="2.6654">
        <ele>946.2</ele>
        <time>2021-08-22T19:32:22Z</time>
      </trkpt>
      <trkpt lat="45.07555" lon="2.66546">
        <ele>946.5</ele>
        <time>2021-08-22T19:32:24Z</time>
      </trkpt>
      <trkpt lat="45.07559" lon="2.66552">
        <ele>946.7</ele>
        <time>2021-08-22T19:32:26Z</time>
      </trkpt>
      <trkpt lat="45.07561" lon="2.66557">
        <ele>946.9</ele>
        <time>2021-08-22T19:32:28Z</time>
      </trkpt>
      <trkpt lat="45.07564" lon="2.66563">
        <ele>947</ele>
        <time>2021-08-22T19:32:30Z</time>
      </trkpt>
      <trkpt lat="45.07568" lon="2.66569">
        <ele>947.1</ele>
        <time>2021-08-22T19:32:32Z</time>
      </trkpt>
      <trkpt lat="45.07572" lon="2.66575">
        <ele>947.2</ele>
        <time>2021-08-22T19:32:34Z</time>
      </trkpt>
      <trkpt lat="45.07574" lon="2.66582">
        <ele>947.3</ele>
        <time>2021-08-22T19:32:36Z</time>
      </trkpt>
      <trkpt lat="45.07576" lon="2.66589">
        <ele>947.5</ele>
        <time>2021-08-22T19:32:38Z</time>
      </trkpt>
      <trkpt lat="45.07579" lon="2.66598">
        <ele>947.6</ele>
        <time>2021-08-22T19:32:40Z</time>
      </trkpt>
      <trkpt lat="45.07582" lon="2.66604">
        <ele>947.6</ele>
        <time>2021-08-22T19:32:42Z</time>
      </trkpt>
      <trkpt lat="45.07584" lon="2.66613">
        <ele>947.7</ele>
        <time>2021-08-22T19:32:44Z</time>
      </trkpt>
      <trkpt lat="45.07586" lon="2.66618">
        <ele>948.1</ele>
        <time>2021-08-22T19:32:46Z</time>
      </trkpt>
      <trkpt lat="45.07588" lon="2.66626">
        <ele>948.5</ele>
        <time>2021-08-22T19:32:48Z</time>
      </trkpt>
      <trkpt lat="45.07588" lon="2.66633">
        <ele>948.7</ele>
        <time>2021-08-22T19:32:50Z</time>
      </trkpt>
      <trkpt lat="45.07591" lon="2.66639">
        <ele>949.1</ele>
        <time>2021-08-22T19:32:52Z</time>
      </trkpt>
      <trkpt lat="45.07594" lon="2.66644">
        <ele>949.4</ele>
        <time>2021-08-22T19:32:54Z</time>
      </trkpt>
      <trkpt lat="45.07597" lon="2.66649">
        <ele>949.7</ele>
        <time>2021-08-22T19:32:56Z</time>
      </trkpt>
      <trkpt lat="45.076" lon="2.66654">
        <ele>950.1</ele>
        <time>2021-08-22T19:32:58Z</time>
      </trkpt>
      <trkpt lat="45.07603" lon="2.6666">
        <ele>950.4</ele>
        <time>2021-08-22T19:33:00Z</time>
      </trkpt>
      <trkpt lat="45.07606" lon="2.66664">
        <ele>950.6</ele>
        <time>2021-08-22T19:33:02Z</time>
      </trkpt>
      <trkpt lat="45.07608" lon="2.6667">
        <ele>950.9</ele>
        <time>2021-08-22T19:33:04Z</time>
      </trkpt>
      <trkpt lat="45.07611" lon="2.66675">
        <ele>951.3</ele>
        <time>2021-08-22T19:33:06Z</time>
      </trkpt>
      <trkpt lat="45.07615" lon="2.66682">
        <ele>951.8</ele>
        <time>2021-08-22T19:33:08Z</time>
      </trkpt>
      <trkpt lat="45.07617" lon="2.66687">
        <ele>952.1</ele>
        <time>2021-08-22T19:33:10Z</time>
      </trkpt>
      <trkpt lat="45.07619" lon="2.66691">
        <ele>952.3</ele>
        <time>2021-08-22T19:33:12Z</time>
      </trkpt>
      <trkpt lat="45.07621" lon="2.66695">
        <ele>952.5</ele>
        <time>2021-08-22T19:33:14Z</time>
      </trkpt>
      <trkpt lat="45.0762" lon="2.66695">
        <ele>952.5</ele>
        <time>2021-08-22T19:33:16Z</time>
      </trkpt>
      <trkpt lat="45.0762" lon="2.66696">
        <ele>952.5</ele>
        <time>2021-08-22T19:33:18Z</time>
      </trkpt>
      <trkpt lat="45.07619" lon="2.66695">
        <ele>952.5</ele>
        <time>2021-08-22T19:33:20Z</time>
      </trkpt>
      <trkpt lat="45.07618" lon="2.66692">
        <ele>952.3</ele>
        <time>2021-08-22T19:33:22Z</time>
      </trkpt>
      <trkpt lat="45.07616" lon="2.66688">
        <ele>952.1</ele>
        <time>2021-08-22T19:33:24Z</time>
      </trkpt>
      <trkpt lat="45.07618" lon="2.66684">
        <ele>952</ele>
        <time>2021-08-22T19:33:26Z</time>
      </trkpt>
      <trkpt lat="45.07622" lon="2.66679">
        <ele>952.1</ele>
        <time>2021-08-22T19:33:29Z</time>
      </trkpt>
      <trkpt lat="45.07622" lon="2.66682">
        <ele>952.2</ele>
        <time>2021-08-22T19:33:30Z</time>
      </trkpt>
      <trkpt lat="45.07625" lon="2.66685">
        <ele>952.4</ele>
        <time>2021-08-22T19:33:32Z</time>
      </trkpt>
      <trkpt lat="45.07626" lon="2.66687">
        <ele>952.5</ele>
        <time>2021-08-22T19:33:34Z</time>
      </trkpt>
      <trkpt lat="45.07627" lon="2.66688">
        <ele>952.6</ele>
        <time>2021-08-22T19:33:36Z</time>
      </trkpt>
      <trkpt lat="45.07628" lon="2.66689">
        <ele>952.7</ele>
        <time>2021-08-22T19:33:38Z</time>
      </trkpt>
      <trkpt lat="45.07631" lon="2.6669">
        <ele>952.8</ele>
        <time>2021-08-22T19:33:40Z</time>
      </trkpt>
      <trkpt lat="45.07631" lon="2.6669">
        <ele>952.8</ele>
        <time>2021-08-22T19:33:42Z</time>
      </trkpt>
      <trkpt lat="45.07598" lon="2.66694">
        <ele>951.6</ele>
        <time>2021-08-22T19:34:06Z</time>
      </trkpt>
      <trkpt lat="45.07595" lon="2.66694">
        <ele>951.5</ele>
        <time>2021-08-22T19:34:08Z</time>
      </trkpt>
      <trkpt lat="45.07595" lon="2.66692">
        <ele>951.4</ele>
        <time>2021-08-22T19:34:11Z</time>
      </trkpt>
      <trkpt lat="45.07611" lon="2.6669">
        <ele>951.9</ele>
        <time>2021-08-22T19:34:12Z</time>
      </trkpt>
      <trkpt lat="45.07635" lon="2.66688">
        <ele>953</ele>
        <time>2021-08-22T19:34:14Z</time>
      </trkpt>
      <trkpt lat="45.07635" lon="2.66686">
        <ele>953</ele>
        <time>2021-08-22T19:34:16Z</time>
      </trkpt>
      <trkpt lat="45.07629" lon="2.66685">
        <ele>952.7</ele>
        <time>2021-08-22T19:34:18Z</time>
      </trkpt>
      <trkpt lat="45.07628" lon="2.66679">
        <ele>952.4</ele>
        <time>2021-08-22T19:34:20Z</time>
      </trkpt>
      <trkpt lat="45.07624" lon="2.66674">
        <ele>952.1</ele>
        <time>2021-08-22T19:34:22Z</time>
      </trkpt>
      <trkpt lat="45.0762" lon="2.66678">
        <ele>952</ele>
        <time>2021-08-22T19:34:24Z</time>
      </trkpt>
      <trkpt lat="45.07615" lon="2.66682">
        <ele>951.8</ele>
        <time>2021-08-22T19:34:26Z</time>
      </trkpt>
      <trkpt lat="45.07613" lon="2.66687">
        <ele>951.9</ele>
        <time>2021-08-22T19:34:28Z</time>
      </trkpt>
      <trkpt lat="45.07616" lon="2.66691">
        <ele>952.2</ele>
        <time>2021-08-22T19:34:30Z</time>
      </trkpt>
      <trkpt lat="45.07617" lon="2.66693">
        <ele>952.3</ele>
        <time>2021-08-22T19:34:32Z</time>
      </trkpt>
      <trkpt lat="45.0762" lon="2.66697">
        <ele>952.5</ele>
        <time>2021-08-22T19:34:34Z</time>
      </trkpt>
      <trkpt lat="45.07619" lon="2.66699">
        <ele>952.6</ele>
        <time>2021-08-22T19:34:36Z</time>
      </trkpt>
      <trkpt lat="45.07619" lon="2.667">
        <ele>952.6</ele>
        <time>2021-08-22T19:34:38Z</time>
      </trkpt>
      <trkpt lat="45.07622" lon="2.66703">
        <ele>952.8</ele>
        <time>2021-08-22T19:34:40Z</time>
      </trkpt>
      <trkpt lat="45.07624" lon="2.66706">
        <ele>952.9</ele>
        <time>2021-08-22T19:34:42Z</time>
      </trkpt>
      <trkpt lat="45.07626" lon="2.6671">
        <ele>953.1</ele>
        <time>2021-08-22T19:34:44Z</time>
      </trkpt>
      <trkpt lat="45.0763" lon="2.66715">
        <ele>953.2</ele>
        <time>2021-08-22T19:34:46Z</time>
      </trkpt>
      <trkpt lat="45.07635" lon="2.66721">
        <ele>953.4</ele>
        <time>2021-08-22T19:34:48Z</time>
      </trkpt>
      <trkpt lat="45.07638" lon="2.66727">
        <ele>953.5</ele>
        <time>2021-08-22T19:34:50Z</time>
      </trkpt>
      <trkpt lat="45.07645" lon="2.66728">
        <ele>953.5</ele>
        <time>2021-08-22T19:34:52Z</time>
      </trkpt>
      <trkpt lat="45.07648" lon="2.66733">
        <ele>953.5</ele>
        <time>2021-08-22T19:34:54Z</time>
      </trkpt>
      <trkpt lat="45.07651" lon="2.66734">
        <ele>953.5</ele>
        <time>2021-08-22T19:34:56Z</time>
      </trkpt>
      <trkpt lat="45.07658" lon="2.66736">
        <ele>953.4</ele>
        <time>2021-08-22T19:34:59Z</time>
      </trkpt>
      <trkpt lat="45.07661" lon="2.66736">
        <ele>953.4</ele>
        <time>2021-08-22T19:35:00Z</time>
      </trkpt>
      <trkpt lat="45.07667" lon="2.66736">
        <ele>953.4</ele>
        <time>2021-08-22T19:35:02Z</time>
      </trkpt>
      <trkpt lat="45.07669" lon="2.66737">
        <ele>953.7</ele>
        <time>2021-08-22T19:35:04Z</time>
      </trkpt>
      <trkpt lat="45.07674" lon="2.66737">
        <ele>954.3</ele>
        <time>2021-08-22T19:35:06Z</time>
      </trkpt>
      <trkpt lat="45.07679" lon="2.66738">
        <ele>954.9</ele>
        <time>2021-08-22T19:35:08Z</time>
      </trkpt>
      <trkpt lat="45.07682" lon="2.6674">
        <ele>955.4</ele>
        <time>2021-08-22T19:35:10Z</time>
      </trkpt>
      <trkpt lat="45.07687" lon="2.66742">
        <ele>956</ele>
        <time>2021-08-22T19:35:12Z</time>
      </trkpt>
      <trkpt lat="45.07692" lon="2.66742">
        <ele>956.6</ele>
        <time>2021-08-22T19:35:14Z</time>
      </trkpt>
      <trkpt lat="45.07701" lon="2.66744">
        <ele>957.8</ele>
        <time>2021-08-22T19:35:17Z</time>
      </trkpt>
      <trkpt lat="45.07703" lon="2.66745">
        <ele>958</ele>
        <time>2021-08-22T19:35:18Z</time>
      </trkpt>
      <trkpt lat="45.07708" lon="2.66747">
        <ele>958.6</ele>
        <time>2021-08-22T19:35:20Z</time>
      </trkpt>
      <trkpt lat="45.07712" lon="2.66749">
        <ele>959</ele>
        <time>2021-08-22T19:35:22Z</time>
      </trkpt>
      <trkpt lat="45.07716" lon="2.6675">
        <ele>959.5</ele>
        <time>2021-08-22T19:35:24Z</time>
      </trkpt>
      <trkpt lat="45.0772" lon="2.6675">
        <ele>960</ele>
        <time>2021-08-22T19:35:26Z</time>
      </trkpt>
      <trkpt lat="45.07722" lon="2.66748">
        <ele>960.3</ele>
        <time>2021-08-22T19:35:28Z</time>
      </trkpt>
      <trkpt lat="45.07724" lon="2.66746">
        <ele>960.8</ele>
        <time>2021-08-22T19:35:30Z</time>
      </trkpt>
      <trkpt lat="45.07727" lon="2.6675">
        <ele>961</ele>
        <time>2021-08-22T19:35:32Z</time>
      </trkpt>
      <trkpt lat="45.0773" lon="2.66752">
        <ele>961.6</ele>
        <time>2021-08-22T19:35:34Z</time>
      </trkpt>
      <trkpt lat="45.07733" lon="2.66756">
        <ele>962.4</ele>
        <time>2021-08-22T19:35:36Z</time>
      </trkpt>
      <trkpt lat="45.07736" lon="2.66759">
        <ele>963.1</ele>
        <time>2021-08-22T19:35:38Z</time>
      </trkpt>
      <trkpt lat="45.07739" lon="2.6676">
        <ele>963.7</ele>
        <time>2021-08-22T19:35:40Z</time>
      </trkpt>
      <trkpt lat="45.07744" lon="2.66762">
        <ele>964.5</ele>
        <time>2021-08-22T19:35:42Z</time>
      </trkpt>
      <trkpt lat="45.07747" lon="2.66761">
        <ele>964.9</ele>
        <time>2021-08-22T19:35:44Z</time>
      </trkpt>
      <trkpt lat="45.07748" lon="2.6676">
        <ele>964.8</ele>
        <time>2021-08-22T19:35:46Z</time>
      </trkpt>
      <trkpt lat="45.07751" lon="2.66757">
        <ele>964.8</ele>
        <time>2021-08-22T19:35:48Z</time>
      </trkpt>
      <trkpt lat="45.0775" lon="2.66751">
        <ele>964.2</ele>
        <time>2021-08-22T19:35:50Z</time>
      </trkpt>
      <trkpt lat="45.07746" lon="2.66749">
        <ele>963.5</ele>
        <time>2021-08-22T19:35:52Z</time>
      </trkpt>
      <trkpt lat="45.07743" lon="2.66748">
        <ele>963.2</ele>
        <time>2021-08-22T19:35:54Z</time>
      </trkpt>
      <trkpt lat="45.07738" lon="2.66745">
        <ele>962.7</ele>
        <time>2021-08-22T19:35:56Z</time>
      </trkpt>
      <trkpt lat="45.07732" lon="2.66742">
        <ele>962</ele>
        <time>2021-08-22T19:35:59Z</time>
      </trkpt>
      <trkpt lat="45.0773" lon="2.66741">
        <ele>961.9</ele>
        <time>2021-08-22T19:36:00Z</time>
      </trkpt>
      <trkpt lat="45.07728" lon="2.66738">
        <ele>961.7</ele>
        <time>2021-08-22T19:36:02Z</time>
      </trkpt>
      <trkpt lat="45.07725" lon="2.66733">
        <ele>961.5</ele>
        <time>2021-08-22T19:36:04Z</time>
      </trkpt>
      <trkpt lat="45.07723" lon="2.66729">
        <ele>961.4</ele>
        <time>2021-08-22T19:36:06Z</time>
      </trkpt>
      <trkpt lat="45.07722" lon="2.6673">
        <ele>961.3</ele>
        <time>2021-08-22T19:36:08Z</time>
      </trkpt>
      <trkpt lat="45.07721" lon="2.6673">
        <ele>961.1</ele>
        <time>2021-08-22T19:36:10Z</time>
      </trkpt>
      <trkpt lat="45.07721" lon="2.6673">
        <ele>961.2</ele>
        <time>2021-08-22T19:36:12Z</time>
      </trkpt>
      <trkpt lat="45.07721" lon="2.66732">
        <ele>961.1</ele>
        <time>2021-08-22T19:36:14Z</time>
      </trkpt>
      <trkpt lat="45.07721" lon="2.66731">
        <ele>961</ele>
        <time>2021-08-22T19:36:16Z</time>
      </trkpt>
      <trkpt lat="45.07722" lon="2.66724">
        <ele>961.5</ele>
        <time>2021-08-22T19:37:14Z</time>
      </trkpt>
      <trkpt lat="45.07723" lon="2.66722">
        <ele>961.8</ele>
        <time>2021-08-22T19:37:16Z</time>
      </trkpt>
      <trkpt lat="45.07723" lon="2.66722">
        <ele>961.7</ele>
        <time>2021-08-22T19:37:18Z</time>
      </trkpt>
      <trkpt lat="45.07727" lon="2.66718">
        <ele>962.6</ele>
        <time>2021-08-22T19:37:20Z</time>
      </trkpt>
      <trkpt lat="45.07726" lon="2.66719">
        <ele>962.3</ele>
        <time>2021-08-22T19:37:22Z</time>
      </trkpt>
      <trkpt lat="45.07726" lon="2.66721">
        <ele>962.3</ele>
        <time>2021-08-22T19:37:24Z</time>
      </trkpt>
      <trkpt lat="45.07728" lon="2.6672">
        <ele>962.6</ele>
        <time>2021-08-22T19:37:26Z</time>
      </trkpt>
      <trkpt lat="45.07725" lon="2.66717">
        <ele>962.4</ele>
        <time>2021-08-22T19:37:28Z</time>
      </trkpt>
      <trkpt lat="45.07723" lon="2.66717">
        <ele>962.1</ele>
        <time>2021-08-22T19:37:30Z</time>
      </trkpt>
      <trkpt lat="45.07722" lon="2.66717">
        <ele>961.9</ele>
        <time>2021-08-22T19:37:32Z</time>
      </trkpt>
      <trkpt lat="45.07723" lon="2.66718">
        <ele>962</ele>
        <time>2021-08-22T19:37:34Z</time>
      </trkpt>
      <trkpt lat="45.07721" lon="2.66718">
        <ele>961.7</ele>
        <time>2021-08-22T19:37:36Z</time>
      </trkpt>
      <trkpt lat="45.07721" lon="2.66721">
        <ele>961.6</ele>
        <time>2021-08-22T19:37:39Z</time>
      </trkpt>
      <trkpt lat="45.07721" lon="2.66722">
        <ele>961.4</ele>
        <time>2021-08-22T19:37:44Z</time>
      </trkpt>
      <trkpt lat="45.0772" lon="2.66722">
        <ele>961.4</ele>
        <time>2021-08-22T19:37:46Z</time>
      </trkpt>
      <trkpt lat="45.0772" lon="2.66722">
        <ele>961.4</ele>
        <time>2021-08-22T19:37:48Z</time>
      </trkpt>
      <trkpt lat="45.0772" lon="2.66722">
        <ele>961.4</ele>
        <time>2021-08-22T19:37:50Z</time>
      </trkpt>
    </trkseg>
      <trkpt lat="45.07733" lon="2.66728">
        <ele>962.9</ele>
        <time>2021-08-23T06:59:03Z</time>
      </trkpt>
      <trkpt lat="45.07735" lon="2.66731">
        <ele>963</ele>
        <time>2021-08-23T06:59:05Z</time>
      </trkpt>
      <trkpt lat="45.07736" lon="2.66736">
        <ele>962.9</ele>
        <time>2021-08-23T06:59:07Z</time>
      </trkpt>
      <trkpt lat="45.07738" lon="2.6674">
        <ele>963</ele>
        <time>2021-08-23T06:59:09Z</time>
      </trkpt>
      <trkpt lat="45.07741" lon="2.66742">
        <ele>963.2</ele>
        <time>2021-08-23T06:59:11Z</time>
      </trkpt>
      <trkpt lat="45.07743" lon="2.66744">
        <ele>963.4</ele>
        <time>2021-08-23T06:59:13Z</time>
      </trkpt>
      <trkpt lat="45.07746" lon="2.66746">
        <ele>963.7</ele>
        <time>2021-08-23T06:59:15Z</time>
      </trkpt>
      <trkpt lat="45.07748" lon="2.66748">
        <ele>963.9</ele>
        <time>2021-08-23T06:59:17Z</time>
      </trkpt>
      <trkpt lat="45.0775" lon="2.6675">
        <ele>964.1</ele>
        <time>2021-08-23T06:59:19Z</time>
      </trkpt>
      <trkpt lat="45.07754" lon="2.66753">
        <ele>964.7</ele>
        <time>2021-08-23T06:59:21Z</time>
      </trkpt>
      <trkpt lat="45.07753" lon="2.66757">
        <ele>965.1</ele>
        <time>2021-08-23T06:59:23Z</time>
      </trkpt>
      <trkpt lat="45.0775" lon="2.6676">
        <ele>965</ele>
        <time>2021-08-23T06:59:25Z</time>
      </trkpt>
      <trkpt lat="45.07745" lon="2.66762">
        <ele>964.7</ele>
        <time>2021-08-23T06:59:27Z</time>
      </trkpt>
      <trkpt lat="45.07739" lon="2.66759">
        <ele>963.5</ele>
        <time>2021-08-23T06:59:29Z</time>
      </trkpt>
      <trkpt lat="45.07733" lon="2.66754">
        <ele>962.2</ele>
        <time>2021-08-23T06:59:31Z</time>
      </trkpt>
      <trkpt lat="45.07727" lon="2.66749">
        <ele>961</ele>
        <time>2021-08-23T06:59:33Z</time>
      </trkpt>
      <trkpt lat="45.07722" lon="2.66748">
        <ele>960.4</ele>
        <time>2021-08-23T06:59:35Z</time>
      </trkpt>
      <trkpt lat="45.07717" lon="2.66746">
        <ele>959.8</ele>
        <time>2021-08-23T06:59:37Z</time>
      </trkpt>
      <trkpt lat="45.0771" lon="2.66744">
        <ele>959</ele>
        <time>2021-08-23T06:59:39Z</time>
      </trkpt>
      <trkpt lat="45.07705" lon="2.66743">
        <ele>958.3</ele>
        <time>2021-08-23T06:59:41Z</time>
      </trkpt>
      <trkpt lat="45.07699" lon="2.66741">
        <ele>957.6</ele>
        <time>2021-08-23T06:59:43Z</time>
      </trkpt>
      <trkpt lat="45.07693" lon="2.6674">
        <ele>956.9</ele>
        <time>2021-08-23T06:59:45Z</time>
      </trkpt>
      <trkpt lat="45.07687" lon="2.66738">
        <ele>956</ele>
        <time>2021-08-23T06:59:47Z</time>
      </trkpt>
      <trkpt lat="45.07681" lon="2.66736">
        <ele>955.3</ele>
        <time>2021-08-23T06:59:49Z</time>
      </trkpt>
      <trkpt lat="45.07675" lon="2.66736">
        <ele>954.5</ele>
        <time>2021-08-23T06:59:51Z</time>
      </trkpt>
      <trkpt lat="45.0767" lon="2.66734">
        <ele>953.8</ele>
        <time>2021-08-23T06:59:53Z</time>
      </trkpt>
      <trkpt lat="45.07665" lon="2.66732">
        <ele>953.4</ele>
        <time>2021-08-23T06:59:55Z</time>
      </trkpt>
      <trkpt lat="45.0766" lon="2.6673">
        <ele>953.5</ele>
        <time>2021-08-23T06:59:57Z</time>
      </trkpt>
      <trkpt lat="45.07654" lon="2.66729">
        <ele>953.5</ele>
        <time>2021-08-23T06:59:59Z</time>
      </trkpt>
      <trkpt lat="45.0765" lon="2.66727">
        <ele>953.5</ele>
        <time>2021-08-23T07:00:01Z</time>
      </trkpt>
      <trkpt lat="45.07645" lon="2.66724">
        <ele>953.5</ele>
        <time>2021-08-23T07:00:03Z</time>
      </trkpt>
      <trkpt lat="45.07639" lon="2.6672">
        <ele>953.4</ele>
        <time>2021-08-23T07:00:05Z</time>
      </trkpt>
      <trkpt lat="45.07633" lon="2.66716">
        <ele>953.3</ele>
        <time>2021-08-23T07:00:07Z</time>
      </trkpt>
      <trkpt lat="45.07627" lon="2.66713">
        <ele>953.1</ele>
        <time>2021-08-23T07:00:09Z</time>
      </trkpt>
      <trkpt lat="45.07622" lon="2.66707">
        <ele>952.9</ele>
        <time>2021-08-23T07:00:11Z</time>
      </trkpt>
      <trkpt lat="45.07617" lon="2.66698">
        <ele>952.4</ele>
        <time>2021-08-23T07:00:13Z</time>
      </trkpt>
      <trkpt lat="45.07612" lon="2.66688">
        <ele>951.9</ele>
        <time>2021-08-23T07:00:15Z</time>
      </trkpt>
      <trkpt lat="45.07609" lon="2.66677">
        <ele>951.3</ele>
        <time>2021-08-23T07:00:17Z</time>
      </trkpt>
      <trkpt lat="45.07605" lon="2.66666">
        <ele>950.6</ele>
        <time>2021-08-23T07:00:19Z</time>
      </trkpt>
      <trkpt lat="45.076" lon="2.66656">
        <ele>950.1</ele>
        <time>2021-08-23T07:00:21Z</time>
      </trkpt>
      <trkpt lat="45.07596" lon="2.66646">
        <ele>949.6</ele>
        <time>2021-08-23T07:00:23Z</time>
      </trkpt>
      <trkpt lat="45.07592" lon="2.66636">
        <ele>949.1</ele>
        <time>2021-08-23T07:00:25Z</time>
      </trkpt>
      <trkpt lat="45.07587" lon="2.66627">
        <ele>948.4</ele>
        <time>2021-08-23T07:00:27Z</time>
      </trkpt>
      <trkpt lat="45.07583" lon="2.6662">
        <ele>947.9</ele>
        <time>2021-08-23T07:00:29Z</time>
      </trkpt>
      <trkpt lat="45.0758" lon="2.66607">
        <ele>947.8</ele>
        <time>2021-08-23T07:00:31Z</time>
      </trkpt>
      <trkpt lat="45.07575" lon="2.66597">
        <ele>947.8</ele>
        <time>2021-08-23T07:00:33Z</time>
      </trkpt>
      <trkpt lat="45.07571" lon="2.66587">
        <ele>947.6</ele>
        <time>2021-08-23T07:00:35Z</time>
      </trkpt>
      <trkpt lat="45.07567" lon="2.66574">
        <ele>947.3</ele>
        <time>2021-08-23T07:00:37Z</time>
      </trkpt>
      <trkpt lat="45.07563" lon="2.66564">
        <ele>947.1</ele>
        <time>2021-08-23T07:00:39Z</time>
      </trkpt>
      <trkpt lat="45.07557" lon="2.66554">
        <ele>946.8</ele>
        <time>2021-08-23T07:00:41Z</time>
      </trkpt>
      <trkpt lat="45.07552" lon="2.66542">
        <ele>946.3</ele>
        <time>2021-08-23T07:00:43Z</time>
      </trkpt>
      <trkpt lat="45.07545" lon="2.66535">
        <ele>945.9</ele>
        <time>2021-08-23T07:00:45Z</time>
      </trkpt>
      <trkpt lat="45.07538" lon="2.66526">
        <ele>945.3</ele>
        <time>2021-08-23T07:00:47Z</time>
      </trkpt>
      <trkpt lat="45.07532" lon="2.66517">
        <ele>944.6</ele>
        <time>2021-08-23T07:00:49Z</time>
      </trkpt>
      <trkpt lat="45.07527" lon="2.66511">
        <ele>944</ele>
        <time>2021-08-23T07:00:51Z</time>
      </trkpt>
      <trkpt lat="45.0752" lon="2.66503">
        <ele>943.2</ele>
        <time>2021-08-23T07:00:53Z</time>
      </trkpt>
      <trkpt lat="45.07515" lon="2.66495">
        <ele>942.7</ele>
        <time>2021-08-23T07:00:55Z</time>
      </trkpt>
      <trkpt lat="45.07511" lon="2.66486">
        <ele>942.4</ele>
        <time>2021-08-23T07:00:57Z</time>
      </trkpt>
      <trkpt lat="45.07509" lon="2.66472">
        <ele>942.2</ele>
        <time>2021-08-23T07:00:59Z</time>
      </trkpt>
      <trkpt lat="45.07507" lon="2.66462">
        <ele>942</ele>
        <time>2021-08-23T07:01:01Z</time>
      </trkpt>
      <trkpt lat="45.07505" lon="2.66451">
        <ele>941.8</ele>
        <time>2021-08-23T07:01:03Z</time>
      </trkpt>
      <trkpt lat="45.07502" lon="2.66441">
        <ele>941.5</ele>
        <time>2021-08-23T07:01:05Z</time>
      </trkpt>
      <trkpt lat="45.075" lon="2.66432">
        <ele>941.2</ele>
        <time>2021-08-23T07:01:07Z</time>
      </trkpt>
      <trkpt lat="45.07495" lon="2.66423">
        <ele>940.9</ele>
        <time>2021-08-23T07:01:09Z</time>
      </trkpt>
      <trkpt lat="45.07491" lon="2.66418">
        <ele>940.7</ele>
        <time>2021-08-23T07:01:11Z</time>
      </trkpt>
      <trkpt lat="45.07488" lon="2.66417">
        <ele>940.6</ele>
        <time>2021-08-23T07:01:13Z</time>
      </trkpt>
      <trkpt lat="45.07486" lon="2.66415">
        <ele>940.5</ele>
        <time>2021-08-23T07:01:15Z</time>
      </trkpt>
      <trkpt lat="45.07483" lon="2.66411">
        <ele>940.4</ele>
        <time>2021-08-23T07:01:17Z</time>
      </trkpt>
      <trkpt lat="45.07483" lon="2.66408">
        <ele>940.5</ele>
        <time>2021-08-23T07:01:19Z</time>
      </trkpt>
      <trkpt lat="45.07483" lon="2.66404">
        <ele>940.5</ele>
        <time>2021-08-23T07:01:21Z</time>
      </trkpt>
      <trkpt lat="45.07481" lon="2.66401">
        <ele>940.5</ele>
        <time>2021-08-23T07:01:23Z</time>
      </trkpt>
      <trkpt lat="45.07481" lon="2.66401">
        <ele>940.5</ele>
        <time>2021-08-23T07:01:25Z</time>
      </trkpt>
      <trkpt lat="45.07481" lon="2.66401">
        <ele>940.5</ele>
        <time>2021-08-23T07:01:27Z</time>
      </trkpt>
      <trkpt lat="45.07479" lon="2.66399">
        <ele>940.4</ele>
        <time>2021-08-23T07:01:29Z</time>
      </trkpt>
      <trkpt lat="45.07478" lon="2.66398">
        <ele>940.3</ele>
        <time>2021-08-23T07:01:31Z</time>
      </trkpt>
      <trkpt lat="45.07495" lon="2.6642">
        <ele>940.9</ele>
        <time>2021-08-23T07:08:21Z</time>
      </trkpt>
      <trkpt lat="45.07498" lon="2.66428">
        <ele>941.1</ele>
        <time>2021-08-23T07:08:23Z</time>
      </trkpt>
      <trkpt lat="45.07501" lon="2.66436">
        <ele>941.3</ele>
        <time>2021-08-23T07:08:25Z</time>
      </trkpt>
      <trkpt lat="45.07504" lon="2.66444">
        <ele>941.6</ele>
        <time>2021-08-23T07:08:27Z</time>
      </trkpt>
      <trkpt lat="45.07505" lon="2.66454">
        <ele>941.8</ele>
        <time>2021-08-23T07:08:29Z</time>
      </trkpt>
      <trkpt lat="45.07508" lon="2.66462">
        <ele>942.1</ele>
        <time>2021-08-23T07:08:31Z</time>
      </trkpt>
      <trkpt lat="45.07508" lon="2.66472">
        <ele>942.2</ele>
        <time>2021-08-23T07:08:33Z</time>
      </trkpt>
      <trkpt lat="45.0751" lon="2.6648">
        <ele>942.4</ele>
        <time>2021-08-23T07:08:35Z</time>
      </trkpt>
      <trkpt lat="45.07513" lon="2.66487">
        <ele>942.6</ele>
        <time>2021-08-23T07:08:37Z</time>
      </trkpt>
      <trkpt lat="45.07516" lon="2.66494">
        <ele>942.7</ele>
        <time>2021-08-23T07:08:39Z</time>
      </trkpt>
      <trkpt lat="45.07519" lon="2.665">
        <ele>942.9</ele>
        <time>2021-08-23T07:08:41Z</time>
      </trkpt>
      <trkpt lat="45.07524" lon="2.66503">
        <ele>943.4</ele>
        <time>2021-08-23T07:08:43Z</time>
      </trkpt>
      <trkpt lat="45.07528" lon="2.66505">
        <ele>943.7</ele>
        <time>2021-08-23T07:08:45Z</time>
      </trkpt>
      <trkpt lat="45.07529" lon="2.66507">
        <ele>943.9</ele>
        <time>2021-08-23T07:08:47Z</time>
      </trkpt>
      <trkpt lat="45.07528" lon="2.66507">
        <ele>943.8</ele>
        <time>2021-08-23T07:08:49Z</time>
      </trkpt>
      <trkpt lat="45.07528" lon="2.66507">
        <ele>943.8</ele>
        <time>2021-08-23T07:08:51Z</time>
      </trkpt>
      <trkpt lat="45.07528" lon="2.66507">
        <ele>943.8</ele>
        <time>2021-08-23T07:08:53Z</time>
      </trkpt>
      <trkpt lat="45.07528" lon="2.66507">
        <ele>943.8</ele>
        <time>2021-08-23T07:08:55Z</time>
      </trkpt>
      <trkpt lat="45.07511" lon="2.66488">
        <ele>942.4</ele>
        <time>2021-08-23T07:10:09Z</time>
      </trkpt>
      <trkpt lat="45.07508" lon="2.66477">
        <ele>942.2</ele>
        <time>2021-08-23T07:10:11Z</time>
      </trkpt>
      <trkpt lat="45.07505" lon="2.66466">
        <ele>942</ele>
        <time>2021-08-23T07:10:13Z</time>
      </trkpt>
      <trkpt lat="45.07503" lon="2.66454">
        <ele>941.7</ele>
        <time>2021-08-23T07:10:15Z</time>
      </trkpt>
      <trkpt lat="45.075" lon="2.66443">
        <ele>941.4</ele>
        <time>2021-08-23T07:10:17Z</time>
      </trkpt>
      <trkpt lat="45.07497" lon="2.66432">
        <ele>941.1</ele>
        <time>2021-08-23T07:10:19Z</time>
      </trkpt>
      <trkpt lat="45.07492" lon="2.66422">
        <ele>940.8</ele>
        <time>2021-08-23T07:10:21Z</time>
      </trkpt>
      <trkpt lat="45.07484" lon="2.66415">
        <ele>940.5</ele>
        <time>2021-08-23T07:10:23Z</time>
      </trkpt>
      <trkpt lat="45.0748" lon="2.6641">
        <ele>940.4</ele>
        <time>2021-08-23T07:10:25Z</time>
      </trkpt>
      <trkpt lat="45.07478" lon="2.66406">
        <ele>940.3</ele>
        <time>2021-08-23T07:10:27Z</time>
      </trkpt>
      <trkpt lat="45.07478" lon="2.66402">
        <ele>940.3</ele>
        <time>2021-08-23T07:10:29Z</time>
      </trkpt>
      <trkpt lat="45.07478" lon="2.66399">
        <ele>940.3</ele>
        <time>2021-08-23T07:10:31Z</time>
      </trkpt>
      <trkpt lat="45.07478" lon="2.66395">
        <ele>940.4</ele>
        <time>2021-08-23T07:10:33Z</time>
      </trkpt>
      <trkpt lat="45.07479" lon="2.66391">
        <ele>940.5</ele>
        <time>2021-08-23T07:10:35Z</time>
      </trkpt>
      <trkpt lat="45.07481" lon="2.66388">
        <ele>940.6</ele>
        <time>2021-08-23T07:10:37Z</time>
      </trkpt>
      <trkpt lat="45.07482" lon="2.66385">
        <ele>940.7</ele>
        <time>2021-08-23T07:10:39Z</time>
      </trkpt>
      <trkpt lat="45.07481" lon="2.66385">
        <ele>940.7</ele>
        <time>2021-08-23T07:10:41Z</time>
      </trkpt>
      <trkpt lat="45.07482" lon="2.66385">
        <ele>940.7</ele>
        <time>2021-08-23T07:10:43Z</time>
      </trkpt>
      <trkpt lat="45.07481" lon="2.66385">
        <ele>940.7</ele>
        <time>2021-08-23T07:10:45Z</time>
      </trkpt>
      <trkpt lat="45.07482" lon="2.66385">
        <ele>940.7</ele>
        <time>2021-08-23T07:10:47Z</time>
      </trkpt>
      <trkpt lat="45.07489" lon="2.66386">
        <ele>941.1</ele>
        <time>2021-08-23T07:11:17Z</time>
      </trkpt>
      <trkpt lat="45.07492" lon="2.66389">
        <ele>941.2</ele>
        <time>2021-08-23T07:11:19Z</time>
      </trkpt>
      <trkpt lat="45.07495" lon="2.66392">
        <ele>941.3</ele>
        <time>2021-08-23T07:11:21Z</time>
      </trkpt>
      <trkpt lat="45.07498" lon="2.66396">
        <ele>941.4</ele>
        <time>2021-08-23T07:11:23Z</time>
      </trkpt>
      <trkpt lat="45.07502" lon="2.66399">
        <ele>941.7</ele>
        <time>2021-08-23T07:11:25Z</time>
      </trkpt>
      <trkpt lat="45.07505" lon="2.66403">
        <ele>941.9</ele>
        <time>2021-08-23T07:11:27Z</time>
      </trkpt>
      <trkpt lat="45.07508" lon="2.66407">
        <ele>942.1</ele>
        <time>2021-08-23T07:11:29Z</time>
      </trkpt>
      <trkpt lat="45.07512" lon="2.6641">
        <ele>942.4</ele>
        <time>2021-08-23T07:11:31Z</time>
      </trkpt>
      <trkpt lat="45.07516" lon="2.66414">
        <ele>942.6</ele>
        <time>2021-08-23T07:11:33Z</time>
      </trkpt>
      <trkpt lat="45.07519" lon="2.66418">
        <ele>942.8</ele>
        <time>2021-08-23T07:11:35Z</time>
      </trkpt>
      <trkpt lat="45.07523" lon="2.66422">
        <ele>943.2</ele>
        <time>2021-08-23T07:11:37Z</time>
      </trkpt>
      <trkpt lat="45.07526" lon="2.66425">
        <ele>943.5</ele>
        <time>2021-08-23T07:11:39Z</time>
      </trkpt>
      <trkpt lat="45.0753" lon="2.66429">
        <ele>943.8</ele>
        <time>2021-08-23T07:11:41Z</time>
      </trkpt>
      <trkpt lat="45.07533" lon="2.66433">
        <ele>944.1</ele>
        <time>2021-08-23T07:11:43Z</time>
      </trkpt>
      <trkpt lat="45.07536" lon="2.66436">
        <ele>944.3</ele>
        <time>2021-08-23T07:11:45Z</time>
      </trkpt>
      <trkpt lat="45.07539" lon="2.6644">
        <ele>944.5</ele>
        <time>2021-08-23T07:11:47Z</time>
      </trkpt>
      <trkpt lat="45.07542" lon="2.66443">
        <ele>944.7</ele>
        <time>2021-08-23T07:11:49Z</time>
      </trkpt>
      <trkpt lat="45.07546" lon="2.66446">
        <ele>945</ele>
        <time>2021-08-23T07:11:51Z</time>
      </trkpt>
      <trkpt lat="45.07548" lon="2.6645">
        <ele>945.1</ele>
        <time>2021-08-23T07:11:53Z</time>
      </trkpt>
      <trkpt lat="45.07551" lon="2.66455">
        <ele>945.2</ele>
        <time>2021-08-23T07:11:55Z</time>
      </trkpt>
      <trkpt lat="45.07554" lon="2.66459">
        <ele>945.4</ele>
        <time>2021-08-23T07:11:57Z</time>
      </trkpt>
      <trkpt lat="45.07557" lon="2.66463">
        <ele>945.5</ele>
        <time>2021-08-23T07:11:59Z</time>
      </trkpt>
      <trkpt lat="45.0756" lon="2.66468">
        <ele>945.6</ele>
        <time>2021-08-23T07:12:01Z</time>
      </trkpt>
      <trkpt lat="45.07562" lon="2.66473">
        <ele>945.6</ele>
        <time>2021-08-23T07:12:03Z</time>
      </trkpt>
      <trkpt lat="45.07564" lon="2.66478">
        <ele>945.6</ele>
        <time>2021-08-23T07:12:05Z</time>
      </trkpt>
      <trkpt lat="45.07565" lon="2.66483">
        <ele>945.6</ele>
        <time>2021-08-23T07:12:07Z</time>
      </trkpt>
      <trkpt lat="45.07567" lon="2.66488">
        <ele>945.5</ele>
        <time>2021-08-23T07:12:09Z</time>
      </trkpt>
      <trkpt lat="45.07569" lon="2.66493">
        <ele>945.5</ele>
        <time>2021-08-23T07:12:11Z</time>
      </trkpt>
      <trkpt lat="45.0757" lon="2.66498">
        <ele>945.4</ele>
        <time>2021-08-23T07:12:13Z</time>
      </trkpt>
      <trkpt lat="45.07572" lon="2.66503">
        <ele>945.6</ele>
        <time>2021-08-23T07:12:15Z</time>
      </trkpt>
      <trkpt lat="45.07574" lon="2.66509">
        <ele>945.8</ele>
        <time>2021-08-23T07:12:17Z</time>
      </trkpt>
      <trkpt lat="45.07576" lon="2.66514">
        <ele>945.9</ele>
        <time>2021-08-23T07:12:19Z</time>
      </trkpt>
      <trkpt lat="45.07578" lon="2.66519">
        <ele>946.1</ele>
        <time>2021-08-23T07:12:21Z</time>
      </trkpt>
      <trkpt lat="45.07581" lon="2.66524">
        <ele>946.2</ele>
        <time>2021-08-23T07:12:23Z</time>
      </trkpt>
      <trkpt lat="45.07583" lon="2.66528">
        <ele>946.3</ele>
        <time>2021-08-23T07:12:25Z</time>
      </trkpt>
      <trkpt lat="45.07586" lon="2.66533">
        <ele>946.8</ele>
        <time>2021-08-23T07:12:27Z</time>
      </trkpt>
      <trkpt lat="45.07588" lon="2.66537">
        <ele>947.3</ele>
        <time>2021-08-23T07:12:29Z</time>
      </trkpt>
      <trkpt lat="45.07591" lon="2.66541">
        <ele>947.9</ele>
        <time>2021-08-23T07:12:31Z</time>
      </trkpt>
      <trkpt lat="45.07594" lon="2.66545">
        <ele>948.4</ele>
        <time>2021-08-23T07:12:33Z</time>
      </trkpt>
      <trkpt lat="45.07597" lon="2.66548">
        <ele>949</ele>
        <time>2021-08-23T07:12:35Z</time>
      </trkpt>
      <trkpt lat="45.076" lon="2.66551">
        <ele>949.5</ele>
        <time>2021-08-23T07:12:37Z</time>
      </trkpt>
      <trkpt lat="45.07603" lon="2.66554">
        <ele>949.9</ele>
        <time>2021-08-23T07:12:39Z</time>
      </trkpt>
      <trkpt lat="45.07606" lon="2.66557">
        <ele>950.4</ele>
        <time>2021-08-23T07:12:41Z</time>
      </trkpt>
      <trkpt lat="45.0761" lon="2.66559">
        <ele>950.9</ele>
        <time>2021-08-23T07:12:43Z</time>
      </trkpt>
      <trkpt lat="45.07613" lon="2.6656">
        <ele>951.5</ele>
        <time>2021-08-23T07:12:45Z</time>
      </trkpt>
      <trkpt lat="45.07617" lon="2.66561">
        <ele>952</ele>
        <time>2021-08-23T07:12:47Z</time>
      </trkpt>
      <trkpt lat="45.0762" lon="2.66565">
        <ele>952.3</ele>
        <time>2021-08-23T07:12:49Z</time>
      </trkpt>
      <trkpt lat="45.07623" lon="2.66566">
        <ele>952.8</ele>
        <time>2021-08-23T07:12:51Z</time>
      </trkpt>
      <trkpt lat="45.07626" lon="2.66569">
        <ele>953.2</ele>
        <time>2021-08-23T07:12:53Z</time>
      </trkpt>
      <trkpt lat="45.0763" lon="2.66571">
        <ele>953.7</ele>
        <time>2021-08-23T07:12:55Z</time>
      </trkpt>
      <trkpt lat="45.07633" lon="2.66575">
        <ele>954</ele>
        <time>2021-08-23T07:12:57Z</time>
      </trkpt>
      <trkpt lat="45.07636" lon="2.66578">
        <ele>954.3</ele>
        <time>2021-08-23T07:12:59Z</time>
      </trkpt>
      <trkpt lat="45.07639" lon="2.66582">
        <ele>954.5</ele>
        <time>2021-08-23T07:13:01Z</time>
      </trkpt>
      <trkpt lat="45.07642" lon="2.66586">
        <ele>954.7</ele>
        <time>2021-08-23T07:13:03Z</time>
      </trkpt>
      <trkpt lat="45.07645" lon="2.66591">
        <ele>955</ele>
        <time>2021-08-23T07:13:05Z</time>
      </trkpt>
      <trkpt lat="45.07647" lon="2.66596">
        <ele>955.1</ele>
        <time>2021-08-23T07:13:07Z</time>
      </trkpt>
      <trkpt lat="45.0765" lon="2.666">
        <ele>955.4</ele>
        <time>2021-08-23T07:13:09Z</time>
      </trkpt>
      <trkpt lat="45.07652" lon="2.66604">
        <ele>955.5</ele>
        <time>2021-08-23T07:13:11Z</time>
      </trkpt>
      <trkpt lat="45.07654" lon="2.66607">
        <ele>955.7</ele>
        <time>2021-08-23T07:13:13Z</time>
      </trkpt>
      <trkpt lat="45.07656" lon="2.66612">
        <ele>955.8</ele>
        <time>2021-08-23T07:13:15Z</time>
      </trkpt>
      <trkpt lat="45.07658" lon="2.66617">
        <ele>955.9</ele>
        <time>2021-08-23T07:13:17Z</time>
      </trkpt>
      <trkpt lat="45.07661" lon="2.66621">
        <ele>956</ele>
        <time>2021-08-23T07:13:19Z</time>
      </trkpt>
      <trkpt lat="45.07663" lon="2.66626">
        <ele>956.1</ele>
        <time>2021-08-23T07:13:21Z</time>
      </trkpt>
      <trkpt lat="45.07665" lon="2.6663">
        <ele>956.2</ele>
        <time>2021-08-23T07:13:23Z</time>
      </trkpt>
      <trkpt lat="45.07667" lon="2.66635">
        <ele>956.3</ele>
        <time>2021-08-23T07:13:25Z</time>
      </trkpt>
      <trkpt lat="45.07669" lon="2.6664">
        <ele>956.4</ele>
        <time>2021-08-23T07:13:27Z</time>
      </trkpt>
      <trkpt lat="45.07671" lon="2.66645">
        <ele>956.5</ele>
        <time>2021-08-23T07:13:29Z</time>
      </trkpt>
      <trkpt lat="45.07673" lon="2.6665">
        <ele>956.6</ele>
        <time>2021-08-23T07:13:31Z</time>
      </trkpt>
      <trkpt lat="45.07674" lon="2.66655">
        <ele>956.7</ele>
        <time>2021-08-23T07:13:33Z</time>
      </trkpt>
      <trkpt lat="45.07676" lon="2.66659">
        <ele>956.8</ele>
        <time>2021-08-23T07:13:35Z</time>
      </trkpt>
      <trkpt lat="45.07677" lon="2.66663">
        <ele>956.9</ele>
        <time>2021-08-23T07:13:37Z</time>
      </trkpt>
      <trkpt lat="45.07679" lon="2.66668">
        <ele>957.1</ele>
        <time>2021-08-23T07:13:39Z</time>
      </trkpt>
      <trkpt lat="45.07681" lon="2.66672">
        <ele>957.3</ele>
        <time>2021-08-23T07:13:41Z</time>
      </trkpt>
      <trkpt lat="45.07684" lon="2.66675">
        <ele>957.6</ele>
        <time>2021-08-23T07:13:43Z</time>
      </trkpt>
      <trkpt lat="45.07686" lon="2.66679">
        <ele>957.9</ele>
        <time>2021-08-23T07:13:45Z</time>
      </trkpt>
      <trkpt lat="45.07689" lon="2.6668">
        <ele>958.3</ele>
        <time>2021-08-23T07:13:47Z</time>
      </trkpt>
      <trkpt lat="45.07692" lon="2.66682">
        <ele>958.6</ele>
        <time>2021-08-23T07:13:49Z</time>
      </trkpt>
      <trkpt lat="45.07694" lon="2.66684">
        <ele>959</ele>
        <time>2021-08-23T07:13:51Z</time>
      </trkpt>
      <trkpt lat="45.07697" lon="2.66684">
        <ele>959.5</ele>
        <time>2021-08-23T07:13:53Z</time>
      </trkpt>
      <trkpt lat="45.07701" lon="2.66684">
        <ele>960</ele>
        <time>2021-08-23T07:13:55Z</time>
      </trkpt>
      <trkpt lat="45.07705" lon="2.66685">
        <ele>960.6</ele>
        <time>2021-08-23T07:13:57Z</time>
      </trkpt>
      <trkpt lat="45.07708" lon="2.66686">
        <ele>961.1</ele>
        <time>2021-08-23T07:13:59Z</time>
      </trkpt>
      <trkpt lat="45.07711" lon="2.66687">
        <ele>961.6</ele>
        <time>2021-08-23T07:14:01Z</time>
      </trkpt>
      <trkpt lat="45.07714" lon="2.66688">
        <ele>962.1</ele>
        <time>2021-08-23T07:14:03Z</time>
      </trkpt>
      <trkpt lat="45.07718" lon="2.6669">
        <ele>962.6</ele>
        <time>2021-08-23T07:14:05Z</time>
      </trkpt>
      <trkpt lat="45.07721" lon="2.66691">
        <ele>963</ele>
        <time>2021-08-23T07:14:07Z</time>
      </trkpt>
      <trkpt lat="45.07724" lon="2.66694">
        <ele>963.4</ele>
        <time>2021-08-23T07:14:09Z</time>
      </trkpt>
      <trkpt lat="45.07727" lon="2.66695">
        <ele>963.7</ele>
        <time>2021-08-23T07:14:11Z</time>
      </trkpt>
      <trkpt lat="45.07731" lon="2.66698">
        <ele>964.2</ele>
        <time>2021-08-23T07:14:13Z</time>
      </trkpt>
      <trkpt lat="45.07734" lon="2.66701">
        <ele>964.5</ele>
        <time>2021-08-23T07:14:15Z</time>
      </trkpt>
      <trkpt lat="45.07738" lon="2.66703">
        <ele>964.9</ele>
        <time>2021-08-23T07:14:17Z</time>
      </trkpt>
      <trkpt lat="45.07741" lon="2.66706">
        <ele>965.2</ele>
        <time>2021-08-23T07:14:19Z</time>
      </trkpt>
      <trkpt lat="45.07744" lon="2.66709">
        <ele>965.5</ele>
        <time>2021-08-23T07:14:21Z</time>
      </trkpt>
      <trkpt lat="45.07747" lon="2.66711">
        <ele>965.8</ele>
        <time>2021-08-23T07:14:23Z</time>
      </trkpt>
      <trkpt lat="45.0775" lon="2.66713">
        <ele>966.2</ele>
        <time>2021-08-23T07:14:25Z</time>
      </trkpt>
      <trkpt lat="45.07753" lon="2.66714">
        <ele>966.6</ele>
        <time>2021-08-23T07:14:27Z</time>
      </trkpt>
      <trkpt lat="45.07757" lon="2.66715">
        <ele>967.1</ele>
        <time>2021-08-23T07:14:29Z</time>
      </trkpt>
      <trkpt lat="45.0776" lon="2.66715">
        <ele>967.5</ele>
        <time>2021-08-23T07:14:31Z</time>
      </trkpt>
      <trkpt lat="45.07764" lon="2.66715">
        <ele>968.1</ele>
        <time>2021-08-23T07:14:33Z</time>
      </trkpt>
      <trkpt lat="45.07767" lon="2.66716">
        <ele>968.5</ele>
        <time>2021-08-23T07:14:35Z</time>
      </trkpt>
      <trkpt lat="45.07771" lon="2.66716">
        <ele>969</ele>
        <time>2021-08-23T07:14:37Z</time>
      </trkpt>
      <trkpt lat="45.07775" lon="2.66716">
        <ele>969.5</ele>
        <time>2021-08-23T07:14:39Z</time>
      </trkpt>
      <trkpt lat="45.07778" lon="2.66716">
        <ele>970</ele>
        <time>2021-08-23T07:14:41Z</time>
      </trkpt>
      <trkpt lat="45.07782" lon="2.66716">
        <ele>970.6</ele>
        <time>2021-08-23T07:14:43Z</time>
      </trkpt>
      <trkpt lat="45.07786" lon="2.66716">
        <ele>971.1</ele>
        <time>2021-08-23T07:14:45Z</time>
      </trkpt>
      <trkpt lat="45.07789" lon="2.66717">
        <ele>971.6</ele>
        <time>2021-08-23T07:14:47Z</time>
      </trkpt>
      <trkpt lat="45.07793" lon="2.66719">
        <ele>971.8</ele>
        <time>2021-08-23T07:14:49Z</time>
      </trkpt>
      <trkpt lat="45.07796" lon="2.6672">
        <ele>972.2</ele>
        <time>2021-08-23T07:14:51Z</time>
      </trkpt>
      <trkpt lat="45.078" lon="2.66723">
        <ele>972.5</ele>
        <time>2021-08-23T07:14:53Z</time>
      </trkpt>
      <trkpt lat="45.07802" lon="2.66726">
        <ele>972.7</ele>
        <time>2021-08-23T07:14:55Z</time>
      </trkpt>
      <trkpt lat="45.07806" lon="2.6673">
        <ele>972.9</ele>
        <time>2021-08-23T07:14:57Z</time>
      </trkpt>
      <trkpt lat="45.07809" lon="2.66734">
        <ele>973</ele>
        <time>2021-08-23T07:14:59Z</time>
      </trkpt>
      <trkpt lat="45.07812" lon="2.66738">
        <ele>973.1</ele>
        <time>2021-08-23T07:15:01Z</time>
      </trkpt>
      <trkpt lat="45.07815" lon="2.66741">
        <ele>973.3</ele>
        <time>2021-08-23T07:15:03Z</time>
      </trkpt>
      <trkpt lat="45.07818" lon="2.66745">
        <ele>973.3</ele>
        <time>2021-08-23T07:15:05Z</time>
      </trkpt>
      <trkpt lat="45.0782" lon="2.66749">
        <ele>973.3</ele>
        <time>2021-08-23T07:15:07Z</time>
      </trkpt>
      <trkpt lat="45.07823" lon="2.66753">
        <ele>973.5</ele>
        <time>2021-08-23T07:15:09Z</time>
      </trkpt>
      <trkpt lat="45.07826" lon="2.66756">
        <ele>973.7</ele>
        <time>2021-08-23T07:15:11Z</time>
      </trkpt>
      <trkpt lat="45.07828" lon="2.66761">
        <ele>973.7</ele>
        <time>2021-08-23T07:15:13Z</time>
      </trkpt>
      <trkpt lat="45.0783" lon="2.66766">
        <ele>973.7</ele>
        <time>2021-08-23T07:15:15Z</time>
      </trkpt>
      <trkpt lat="45.07833" lon="2.6677">
        <ele>973.8</ele>
        <time>2021-08-23T07:15:17Z</time>
      </trkpt>
      <trkpt lat="45.07834" lon="2.66774">
        <ele>973.8</ele>
        <time>2021-08-23T07:15:19Z</time>
      </trkpt>
      <trkpt lat="45.07836" lon="2.66779">
        <ele>973.7</ele>
        <time>2021-08-23T07:15:21Z</time>
      </trkpt>
      <trkpt lat="45.07837" lon="2.66784">
        <ele>973.7</ele>
        <time>2021-08-23T07:15:23Z</time>
      </trkpt>
      <trkpt lat="45.07838" lon="2.66789">
        <ele>973.6</ele>
        <time>2021-08-23T07:15:25Z</time>
      </trkpt>
      <trkpt lat="45.07838" lon="2.66794">
        <ele>973.5</ele>
        <time>2021-08-23T07:15:27Z</time>
      </trkpt>
      <trkpt lat="45.07839" lon="2.66799">
        <ele>973.3</ele>
        <time>2021-08-23T07:15:29Z</time>
      </trkpt>
      <trkpt lat="45.07839" lon="2.66804">
        <ele>973.1</ele>
        <time>2021-08-23T07:15:31Z</time>
      </trkpt>
      <trkpt lat="45.07839" lon="2.66808">
        <ele>972.8</ele>
        <time>2021-08-23T07:15:33Z</time>
      </trkpt>
      <trkpt lat="45.0784" lon="2.66814">
        <ele>972.7</ele>
        <time>2021-08-23T07:15:35Z</time>
      </trkpt>
      <trkpt lat="45.07841" lon="2.66819">
        <ele>972.6</ele>
        <time>2021-08-23T07:15:37Z</time>
      </trkpt>
      <trkpt lat="45.07842" lon="2.66824">
        <ele>972.6</ele>
        <time>2021-08-23T07:15:39Z</time>
      </trkpt>
      <trkpt lat="45.07844" lon="2.66828">
        <ele>972.5</ele>
        <time>2021-08-23T07:15:41Z</time>
      </trkpt>
      <trkpt lat="45.07845" lon="2.66833">
        <ele>972.6</ele>
        <time>2021-08-23T07:15:43Z</time>
      </trkpt>
      <trkpt lat="45.07847" lon="2.66837">
        <ele>973.1</ele>
        <time>2021-08-23T07:15:45Z</time>
      </trkpt>
      <trkpt lat="45.07849" lon="2.66841">
        <ele>973.6</ele>
        <time>2021-08-23T07:15:47Z</time>
      </trkpt>
      <trkpt lat="45.07851" lon="2.66845">
        <ele>974.1</ele>
        <time>2021-08-23T07:15:49Z</time>
      </trkpt>
      <trkpt lat="45.07854" lon="2.66848">
        <ele>974.6</ele>
        <time>2021-08-23T07:15:51Z</time>
      </trkpt>
      <trkpt lat="45.07856" lon="2.66851">
        <ele>975.1</ele>
        <time>2021-08-23T07:15:53Z</time>
      </trkpt>
      <trkpt lat="45.0786" lon="2.66856">
        <ele>975.7</ele>
        <time>2021-08-23T07:15:55Z</time>
      </trkpt>
      <trkpt lat="45.07862" lon="2.66859">
        <ele>976.1</ele>
        <time>2021-08-23T07:15:57Z</time>
      </trkpt>
      <trkpt lat="45.07865" lon="2.66862">
        <ele>976.5</ele>
        <time>2021-08-23T07:15:59Z</time>
      </trkpt>
      <trkpt lat="45.07867" lon="2.66865">
        <ele>976.9</ele>
        <time>2021-08-23T07:16:01Z</time>
      </trkpt>
      <trkpt lat="45.0787" lon="2.66868">
        <ele>977.3</ele>
        <time>2021-08-23T07:16:03Z</time>
      </trkpt>
      <trkpt lat="45.07873" lon="2.66871">
        <ele>977.7</ele>
        <time>2021-08-23T07:16:05Z</time>
      </trkpt>
      <trkpt lat="45.07876" lon="2.66873">
        <ele>978</ele>
        <time>2021-08-23T07:16:07Z</time>
      </trkpt>
      <trkpt lat="45.0788" lon="2.66876">
        <ele>978.3</ele>
        <time>2021-08-23T07:16:09Z</time>
      </trkpt>
      <trkpt lat="45.07883" lon="2.66878">
        <ele>978.7</ele>
        <time>2021-08-23T07:16:11Z</time>
      </trkpt>
      <trkpt lat="45.07887" lon="2.66879">
        <ele>979</ele>
        <time>2021-08-23T07:16:13Z</time>
      </trkpt>
      <trkpt lat="45.0789" lon="2.6688">
        <ele>979.4</ele>
        <time>2021-08-23T07:16:15Z</time>
      </trkpt>
      <trkpt lat="45.07894" lon="2.66882">
        <ele>979.7</ele>
        <time>2021-08-23T07:16:17Z</time>
      </trkpt>
      <trkpt lat="45.07898" lon="2.66883">
        <ele>980</ele>
        <time>2021-08-23T07:16:19Z</time>
      </trkpt>
      <trkpt lat="45.07902" lon="2.66884">
        <ele>980.3</ele>
        <time>2021-08-23T07:16:21Z</time>
      </trkpt>
      <trkpt lat="45.07905" lon="2.66886">
        <ele>980.4</ele>
        <time>2021-08-23T07:16:23Z</time>
      </trkpt>
      <trkpt lat="45.07909" lon="2.66888">
        <ele>980.7</ele>
        <time>2021-08-23T07:16:25Z</time>
      </trkpt>
      <trkpt lat="45.07912" lon="2.66891">
        <ele>980.7</ele>
        <time>2021-08-23T07:16:27Z</time>
      </trkpt>
      <trkpt lat="45.07915" lon="2.66894">
        <ele>980.6</ele>
        <time>2021-08-23T07:16:29Z</time>
      </trkpt>
      <trkpt lat="45.07917" lon="2.66897">
        <ele>980.5</ele>
        <time>2021-08-23T07:16:31Z</time>
      </trkpt>
      <trkpt lat="45.07921" lon="2.669">
        <ele>981</ele>
        <time>2021-08-23T07:16:33Z</time>
      </trkpt>
      <trkpt lat="45.07924" lon="2.66904">
        <ele>981.3</ele>
        <time>2021-08-23T07:16:35Z</time>
      </trkpt>
      <trkpt lat="45.07926" lon="2.66907">
        <ele>981.6</ele>
        <time>2021-08-23T07:16:37Z</time>
      </trkpt>
      <trkpt lat="45.07929" lon="2.66911">
        <ele>981.8</ele>
        <time>2021-08-23T07:16:39Z</time>
      </trkpt>
      <trkpt lat="45.07932" lon="2.66914">
        <ele>982.1</ele>
        <time>2021-08-23T07:16:41Z</time>
      </trkpt>
      <trkpt lat="45.07934" lon="2.66917">
        <ele>982.2</ele>
        <time>2021-08-23T07:16:43Z</time>
      </trkpt>
      <trkpt lat="45.07937" lon="2.6692">
        <ele>982.6</ele>
        <time>2021-08-23T07:16:45Z</time>
      </trkpt>
      <trkpt lat="45.0794" lon="2.66923">
        <ele>982.9</ele>
        <time>2021-08-23T07:16:47Z</time>
      </trkpt>
      <trkpt lat="45.07942" lon="2.66926">
        <ele>983.2</ele>
        <time>2021-08-23T07:16:49Z</time>
      </trkpt>
      <trkpt lat="45.07945" lon="2.6693">
        <ele>983.5</ele>
        <time>2021-08-23T07:16:51Z</time>
      </trkpt>
      <trkpt lat="45.07948" lon="2.66932">
        <ele>983.8</ele>
        <time>2021-08-23T07:16:53Z</time>
      </trkpt>
      <trkpt lat="45.07952" lon="2.66935">
        <ele>984.3</ele>
        <time>2021-08-23T07:16:55Z</time>
      </trkpt>
      <trkpt lat="45.07955" lon="2.66937">
        <ele>984.6</ele>
        <time>2021-08-23T07:16:57Z</time>
      </trkpt>
      <trkpt lat="45.07958" lon="2.66939">
        <ele>984.9</ele>
        <time>2021-08-23T07:16:59Z</time>
      </trkpt>
      <trkpt lat="45.07962" lon="2.66941">
        <ele>985.3</ele>
        <time>2021-08-23T07:17:01Z</time>
      </trkpt>
      <trkpt lat="45.07966" lon="2.66943">
        <ele>985.7</ele>
        <time>2021-08-23T07:17:03Z</time>
      </trkpt>
      <trkpt lat="45.07969" lon="2.66945">
        <ele>986.1</ele>
        <time>2021-08-23T07:17:05Z</time>
      </trkpt>
      <trkpt lat="45.07973" lon="2.66946">
        <ele>986.4</ele>
        <time>2021-08-23T07:17:07Z</time>
      </trkpt>
      <trkpt lat="45.07976" lon="2.66947">
        <ele>986.8</ele>
        <time>2021-08-23T07:17:09Z</time>
      </trkpt>
      <trkpt lat="45.07979" lon="2.66948">
        <ele>987.3</ele>
        <time>2021-08-23T07:17:11Z</time>
      </trkpt>
      <trkpt lat="45.07983" lon="2.66948">
        <ele>987.9</ele>
        <time>2021-08-23T07:17:13Z</time>
      </trkpt>
      <trkpt lat="45.07987" lon="2.66949">
        <ele>988.5</ele>
        <time>2021-08-23T07:17:15Z</time>
      </trkpt>
      <trkpt lat="45.07991" lon="2.66949">
        <ele>988.9</ele>
        <time>2021-08-23T07:17:17Z</time>
      </trkpt>
      <trkpt lat="45.07994" lon="2.6695">
        <ele>989.5</ele>
        <time>2021-08-23T07:17:19Z</time>
      </trkpt>
      <trkpt lat="45.07998" lon="2.66949">
        <ele>990.1</ele>
        <time>2021-08-23T07:17:21Z</time>
      </trkpt>
      <trkpt lat="45.08001" lon="2.66951">
        <ele>990.3</ele>
        <time>2021-08-23T07:17:23Z</time>
      </trkpt>
      <trkpt lat="45.08005" lon="2.66951">
        <ele>990.9</ele>
        <time>2021-08-23T07:17:25Z</time>
      </trkpt>
      <trkpt lat="45.08008" lon="2.66951">
        <ele>991.4</ele>
        <time>2021-08-23T07:17:27Z</time>
      </trkpt>
      <trkpt lat="45.08012" lon="2.66952">
        <ele>991.6</ele>
        <time>2021-08-23T07:17:29Z</time>
      </trkpt>
      <trkpt lat="45.08015" lon="2.66953">
        <ele>991.9</ele>
        <time>2021-08-23T07:17:31Z</time>
      </trkpt>
      <trkpt lat="45.08019" lon="2.66954">
        <ele>992.4</ele>
        <time>2021-08-23T07:17:33Z</time>
      </trkpt>
      <trkpt lat="45.08023" lon="2.66955">
        <ele>992.6</ele>
        <time>2021-08-23T07:17:35Z</time>
      </trkpt>
      <trkpt lat="45.08026" lon="2.66955">
        <ele>993</ele>
        <time>2021-08-23T07:17:37Z</time>
      </trkpt>
      <trkpt lat="45.0803" lon="2.66957">
        <ele>993.2</ele>
        <time>2021-08-23T07:17:39Z</time>
      </trkpt>
      <trkpt lat="45.08034" lon="2.66956">
        <ele>993.9</ele>
        <time>2021-08-23T07:17:41Z</time>
      </trkpt>
      <trkpt lat="45.08037" lon="2.66957">
        <ele>994.2</ele>
        <time>2021-08-23T07:17:43Z</time>
      </trkpt>
      <trkpt lat="45.08042" lon="2.66957">
        <ele>994.9</ele>
        <time>2021-08-23T07:17:45Z</time>
      </trkpt>
      <trkpt lat="45.08045" lon="2.66958">
        <ele>995.1</ele>
        <time>2021-08-23T07:17:47Z</time>
      </trkpt>
      <trkpt lat="45.08049" lon="2.66957">
        <ele>995.7</ele>
        <time>2021-08-23T07:17:49Z</time>
      </trkpt>
      <trkpt lat="45.08052" lon="2.66957">
        <ele>996.4</ele>
        <time>2021-08-23T07:17:51Z</time>
      </trkpt>
      <trkpt lat="45.08056" lon="2.66956">
        <ele>997.1</ele>
        <time>2021-08-23T07:17:53Z</time>
      </trkpt>
      <trkpt lat="45.08059" lon="2.66955">
        <ele>997.9</ele>
        <time>2021-08-23T07:17:55Z</time>
      </trkpt>
      <trkpt lat="45.08063" lon="2.66954">
        <ele>998.8</ele>
        <time>2021-08-23T07:17:57Z</time>
      </trkpt>
      <trkpt lat="45.08067" lon="2.66953">
        <ele>999.6</ele>
        <time>2021-08-23T07:17:59Z</time>
      </trkpt>
      <trkpt lat="45.08071" lon="2.66952">
        <ele>1000.5</ele>
        <time>2021-08-23T07:18:01Z</time>
      </trkpt>
      <trkpt lat="45.08074" lon="2.6695">
        <ele>1001.5</ele>
        <time>2021-08-23T07:18:03Z</time>
      </trkpt>
      <trkpt lat="45.08078" lon="2.66949">
        <ele>1002.3</ele>
        <time>2021-08-23T07:18:05Z</time>
      </trkpt>
      <trkpt lat="45.08081" lon="2.66948">
        <ele>1003.1</ele>
        <time>2021-08-23T07:18:07Z</time>
      </trkpt>
      <trkpt lat="45.08085" lon="2.66947">
        <ele>1003.7</ele>
        <time>2021-08-23T07:18:09Z</time>
      </trkpt>
      <trkpt lat="45.08089" lon="2.66946">
        <ele>1004</ele>
        <time>2021-08-23T07:18:11Z</time>
      </trkpt>
      <trkpt lat="45.08092" lon="2.66946">
        <ele>1004.1</ele>
        <time>2021-08-23T07:18:13Z</time>
      </trkpt>
      <trkpt lat="45.08096" lon="2.66946">
        <ele>1004.1</ele>
        <time>2021-08-23T07:18:15Z</time>
      </trkpt>
      <trkpt lat="45.081" lon="2.66946">
        <ele>1004</ele>
        <time>2021-08-23T07:18:17Z</time>
      </trkpt>
      <trkpt lat="45.08104" lon="2.66946">
        <ele>1004.2</ele>
        <time>2021-08-23T07:18:19Z</time>
      </trkpt>
      <trkpt lat="45.08108" lon="2.66946">
        <ele>1004.2</ele>
        <time>2021-08-23T07:18:21Z</time>
      </trkpt>
      <trkpt lat="45.08111" lon="2.66945">
        <ele>1004.4</ele>
        <time>2021-08-23T07:18:23Z</time>
      </trkpt>
      <trkpt lat="45.08115" lon="2.66945">
        <ele>1004.4</ele>
        <time>2021-08-23T07:18:25Z</time>
      </trkpt>
      <trkpt lat="45.08119" lon="2.66945">
        <ele>1004.4</ele>
        <time>2021-08-23T07:18:27Z</time>
      </trkpt>
      <trkpt lat="45.08123" lon="2.66945">
        <ele>1004.5</ele>
        <time>2021-08-23T07:18:29Z</time>
      </trkpt>
      <trkpt lat="45.08126" lon="2.66944">
        <ele>1004.7</ele>
        <time>2021-08-23T07:18:31Z</time>
      </trkpt>
      <trkpt lat="45.0813" lon="2.66943">
        <ele>1005</ele>
        <time>2021-08-23T07:18:33Z</time>
      </trkpt>
      <trkpt lat="45.08133" lon="2.66944">
        <ele>1004.9</ele>
        <time>2021-08-23T07:18:35Z</time>
      </trkpt>
      <trkpt lat="45.08137" lon="2.66943">
        <ele>1005</ele>
        <time>2021-08-23T07:18:37Z</time>
      </trkpt>
      <trkpt lat="45.08141" lon="2.66944">
        <ele>1004.9</ele>
        <time>2021-08-23T07:18:39Z</time>
      </trkpt>
      <trkpt lat="45.08145" lon="2.66944">
        <ele>1005</ele>
        <time>2021-08-23T07:18:41Z</time>
      </trkpt>
      <trkpt lat="45.08149" lon="2.66943">
        <ele>1005.1</ele>
        <time>2021-08-23T07:18:43Z</time>
      </trkpt>
      <trkpt lat="45.08154" lon="2.66943">
        <ele>1005.1</ele>
        <time>2021-08-23T07:18:45Z</time>
      </trkpt>
      <trkpt lat="45.08157" lon="2.66943">
        <ele>1005.1</ele>
        <time>2021-08-23T07:18:47Z</time>
      </trkpt>
      <trkpt lat="45.08161" lon="2.66944">
        <ele>1005.1</ele>
        <time>2021-08-23T07:18:49Z</time>
      </trkpt>
      <trkpt lat="45.08164" lon="2.66944">
        <ele>1005.1</ele>
        <time>2021-08-23T07:18:51Z</time>
      </trkpt>
      <trkpt lat="45.08168" lon="2.66944">
        <ele>1005.2</ele>
        <time>2021-08-23T07:18:53Z</time>
      </trkpt>
      <trkpt lat="45.08171" lon="2.66944">
        <ele>1005.5</ele>
        <time>2021-08-23T07:18:55Z</time>
      </trkpt>
      <trkpt lat="45.08176" lon="2.66943">
        <ele>1005.9</ele>
        <time>2021-08-23T07:18:57Z</time>
      </trkpt>
      <trkpt lat="45.08179" lon="2.66942">
        <ele>1006.4</ele>
        <time>2021-08-23T07:18:59Z</time>
      </trkpt>
      <trkpt lat="45.08183" lon="2.6694">
        <ele>1007</ele>
        <time>2021-08-23T07:19:01Z</time>
      </trkpt>
      <trkpt lat="45.08187" lon="2.66938">
        <ele>1007.6</ele>
        <time>2021-08-23T07:19:03Z</time>
      </trkpt>
      <trkpt lat="45.08191" lon="2.66936">
        <ele>1008.1</ele>
        <time>2021-08-23T07:19:05Z</time>
      </trkpt>
      <trkpt lat="45.08194" lon="2.66933">
        <ele>1008.7</ele>
        <time>2021-08-23T07:19:07Z</time>
      </trkpt>
      <trkpt lat="45.08197" lon="2.6693">
        <ele>1009.3</ele>
        <time>2021-08-23T07:19:09Z</time>
      </trkpt>
      <trkpt lat="45.082" lon="2.66926">
        <ele>1010</ele>
        <time>2021-08-23T07:19:11Z</time>
      </trkpt>
      <trkpt lat="45.08203" lon="2.66922">
        <ele>1010.6</ele>
        <time>2021-08-23T07:19:13Z</time>
      </trkpt>
      <trkpt lat="45.08205" lon="2.66918">
        <ele>1011.2</ele>
        <time>2021-08-23T07:19:15Z</time>
      </trkpt>
      <trkpt lat="45.08208" lon="2.66914">
        <ele>1011.9</ele>
        <time>2021-08-23T07:19:17Z</time>
      </trkpt>
      <trkpt lat="45.0821" lon="2.6691">
        <ele>1012.6</ele>
        <time>2021-08-23T07:19:19Z</time>
      </trkpt>
      <trkpt lat="45.08213" lon="2.66907">
        <ele>1013.3</ele>
        <time>2021-08-23T07:19:21Z</time>
      </trkpt>
      <trkpt lat="45.08217" lon="2.66904">
        <ele>1013.8</ele>
        <time>2021-08-23T07:19:23Z</time>
      </trkpt>
      <trkpt lat="45.08221" lon="2.66902">
        <ele>1014.3</ele>
        <time>2021-08-23T07:19:25Z</time>
      </trkpt>
      <trkpt lat="45.08227" lon="2.66902">
        <ele>1014.3</ele>
        <time>2021-08-23T07:19:27Z</time>
      </trkpt>
      <trkpt lat="45.08233" lon="2.66906">
        <ele>1013.9</ele>
        <time>2021-08-23T07:19:29Z</time>
      </trkpt>
      <trkpt lat="45.08236" lon="2.66914">
        <ele>1012.9</ele>
        <time>2021-08-23T07:19:31Z</time>
      </trkpt>
      <trkpt lat="45.08237" lon="2.6692">
        <ele>1012.3</ele>
        <time>2021-08-23T07:19:33Z</time>
      </trkpt>
      <trkpt lat="45.08238" lon="2.66926">
        <ele>1012</ele>
        <time>2021-08-23T07:19:35Z</time>
      </trkpt>
      <trkpt lat="45.08239" lon="2.66931">
        <ele>1011.7</ele>
        <time>2021-08-23T07:19:37Z</time>
      </trkpt>
      <trkpt lat="45.08239" lon="2.66936">
        <ele>1011.3</ele>
        <time>2021-08-23T07:19:39Z</time>
      </trkpt>
      <trkpt lat="45.0824" lon="2.66942">
        <ele>1011</ele>
        <time>2021-08-23T07:19:41Z</time>
      </trkpt>
      <trkpt lat="45.0824" lon="2.66948">
        <ele>1010.7</ele>
        <time>2021-08-23T07:19:43Z</time>
      </trkpt>
      <trkpt lat="45.08241" lon="2.66954">
        <ele>1010.4</ele>
        <time>2021-08-23T07:19:45Z</time>
      </trkpt>
      <trkpt lat="45.08241" lon="2.6696">
        <ele>1010</ele>
        <time>2021-08-23T07:19:47Z</time>
      </trkpt>
      <trkpt lat="45.08242" lon="2.66965">
        <ele>1009.8</ele>
        <time>2021-08-23T07:19:49Z</time>
      </trkpt>
      <trkpt lat="45.08242" lon="2.66971">
        <ele>1009.5</ele>
        <time>2021-08-23T07:19:51Z</time>
      </trkpt>
      <trkpt lat="45.08242" lon="2.66977">
        <ele>1009.1</ele>
        <time>2021-08-23T07:19:53Z</time>
      </trkpt>
      <trkpt lat="45.08243" lon="2.66983">
        <ele>1008.8</ele>
        <time>2021-08-23T07:19:55Z</time>
      </trkpt>
      <trkpt lat="45.08244" lon="2.66989">
        <ele>1008.6</ele>
        <time>2021-08-23T07:19:57Z</time>
      </trkpt>
      <trkpt lat="45.08244" lon="2.66995">
        <ele>1008.3</ele>
        <time>2021-08-23T07:19:59Z</time>
      </trkpt>
      <trkpt lat="45.08245" lon="2.67001">
        <ele>1008.1</ele>
        <time>2021-08-23T07:20:01Z</time>
      </trkpt>
      <trkpt lat="45.08245" lon="2.67007">
        <ele>1007.9</ele>
        <time>2021-08-23T07:20:03Z</time>
      </trkpt>
      <trkpt lat="45.08246" lon="2.67013">
        <ele>1007.8</ele>
        <time>2021-08-23T07:20:05Z</time>
      </trkpt>
      <trkpt lat="45.08247" lon="2.67018">
        <ele>1007.8</ele>
        <time>2021-08-23T07:20:07Z</time>
      </trkpt>
      <trkpt lat="45.08248" lon="2.67023">
        <ele>1007.9</ele>
        <time>2021-08-23T07:20:09Z</time>
      </trkpt>
      <trkpt lat="45.0825" lon="2.67028">
        <ele>1007.9</ele>
        <time>2021-08-23T07:20:11Z</time>
      </trkpt>
      <trkpt lat="45.0825" lon="2.6703">
        <ele>1008</ele>
        <time>2021-08-23T07:20:13Z</time>
      </trkpt>
      <trkpt lat="45.0825" lon="2.67029">
        <ele>1008</ele>
        <time>2021-08-23T07:20:15Z</time>
      </trkpt>
      <trkpt lat="45.0825" lon="2.67029">
        <ele>1008</ele>
        <time>2021-08-23T07:20:17Z</time>
      </trkpt>
      <trkpt lat="45.0825" lon="2.67029">
        <ele>1008</ele>
        <time>2021-08-23T07:20:19Z</time>
      </trkpt>
      <trkpt lat="45.0825" lon="2.67029">
        <ele>1008</ele>
        <time>2021-08-23T07:20:21Z</time>
      </trkpt>
      <trkpt lat="45.0826" lon="2.67035">
        <ele>1009.5</ele>
        <time>2021-08-23T07:26:03Z</time>
      </trkpt>
      <trkpt lat="45.08265" lon="2.67037">
        <ele>1010.2</ele>
        <time>2021-08-23T07:26:05Z</time>
      </trkpt>
      <trkpt lat="45.0827" lon="2.67037">
        <ele>1011</ele>
        <time>2021-08-23T07:26:07Z</time>
      </trkpt>
      <trkpt lat="45.08274" lon="2.67037">
        <ele>1011.8</ele>
        <time>2021-08-23T07:26:09Z</time>
      </trkpt>
      <trkpt lat="45.0828" lon="2.67038">
        <ele>1012.7</ele>
        <time>2021-08-23T07:26:11Z</time>
      </trkpt>
      <trkpt lat="45.08285" lon="2.67039">
        <ele>1013.5</ele>
        <time>2021-08-23T07:26:13Z</time>
      </trkpt>
      <trkpt lat="45.0829" lon="2.6704">
        <ele>1014.3</ele>
        <time>2021-08-23T07:26:15Z</time>
      </trkpt>
      <trkpt lat="45.08295" lon="2.67043">
        <ele>1015</ele>
        <time>2021-08-23T07:26:17Z</time>
      </trkpt>
      <trkpt lat="45.08299" lon="2.67047">
        <ele>1015.6</ele>
        <time>2021-08-23T07:26:19Z</time>
      </trkpt>
      <trkpt lat="45.08304" lon="2.67051">
        <ele>1016.1</ele>
        <time>2021-08-23T07:26:21Z</time>
      </trkpt>
      <trkpt lat="45.08308" lon="2.67056">
        <ele>1016.5</ele>
        <time>2021-08-23T07:26:23Z</time>
      </trkpt>
      <trkpt lat="45.08311" lon="2.67062">
        <ele>1016.7</ele>
        <time>2021-08-23T07:26:25Z</time>
      </trkpt>
      <trkpt lat="45.08314" lon="2.67067">
        <ele>1017</ele>
        <time>2021-08-23T07:26:27Z</time>
      </trkpt>
      <trkpt lat="45.08317" lon="2.67073">
        <ele>1017.1</ele>
        <time>2021-08-23T07:26:29Z</time>
      </trkpt>
      <trkpt lat="45.08321" lon="2.67078">
        <ele>1017.3</ele>
        <time>2021-08-23T07:26:31Z</time>
      </trkpt>
      <trkpt lat="45.08324" lon="2.67084">
        <ele>1017.5</ele>
        <time>2021-08-23T07:26:33Z</time>
      </trkpt>
      <trkpt lat="45.08327" lon="2.67089">
        <ele>1017.8</ele>
        <time>2021-08-23T07:26:35Z</time>
      </trkpt>
      <trkpt lat="45.0833" lon="2.67094">
        <ele>1018</ele>
        <time>2021-08-23T07:26:37Z</time>
      </trkpt>
      <trkpt lat="45.08332" lon="2.67099">
        <ele>1018.2</ele>
        <time>2021-08-23T07:26:39Z</time>
      </trkpt>
      <trkpt lat="45.08335" lon="2.67104">
        <ele>1018.5</ele>
        <time>2021-08-23T07:26:41Z</time>
      </trkpt>
      <trkpt lat="45.08338" lon="2.67108">
        <ele>1018.8</ele>
        <time>2021-08-23T07:26:43Z</time>
      </trkpt>
      <trkpt lat="45.08342" lon="2.67111">
        <ele>1019.1</ele>
        <time>2021-08-23T07:26:45Z</time>
      </trkpt>
      <trkpt lat="45.08346" lon="2.67113">
        <ele>1019.5</ele>
        <time>2021-08-23T07:26:47Z</time>
      </trkpt>
      <trkpt lat="45.0835" lon="2.67114">
        <ele>1020</ele>
        <time>2021-08-23T07:26:49Z</time>
      </trkpt>
      <trkpt lat="45.08353" lon="2.67115">
        <ele>1020.4</ele>
        <time>2021-08-23T07:26:51Z</time>
      </trkpt>
      <trkpt lat="45.08357" lon="2.67116">
        <ele>1020.7</ele>
        <time>2021-08-23T07:26:53Z</time>
      </trkpt>
      <trkpt lat="45.0836" lon="2.67118">
        <ele>1021</ele>
        <time>2021-08-23T07:26:55Z</time>
      </trkpt>
      <trkpt lat="45.08364" lon="2.67119">
        <ele>1021.4</ele>
        <time>2021-08-23T07:26:57Z</time>
      </trkpt>
      <trkpt lat="45.08367" lon="2.6712">
        <ele>1021.8</ele>
        <time>2021-08-23T07:26:59Z</time>
      </trkpt>
      <trkpt lat="45.08371" lon="2.6712">
        <ele>1022.2</ele>
        <time>2021-08-23T07:27:01Z</time>
      </trkpt>
      <trkpt lat="45.08374" lon="2.67122">
        <ele>1022.5</ele>
        <time>2021-08-23T07:27:03Z</time>
      </trkpt>
      <trkpt lat="45.08378" lon="2.67123">
        <ele>1022.8</ele>
        <time>2021-08-23T07:27:05Z</time>
      </trkpt>
      <trkpt lat="45.08382" lon="2.67123">
        <ele>1023.2</ele>
        <time>2021-08-23T07:27:07Z</time>
      </trkpt>
      <trkpt lat="45.08385" lon="2.67124">
        <ele>1023.5</ele>
        <time>2021-08-23T07:27:09Z</time>
      </trkpt>
      <trkpt lat="45.08389" lon="2.67126">
        <ele>1023.7</ele>
        <time>2021-08-23T07:27:11Z</time>
      </trkpt>
      <trkpt lat="45.08392" lon="2.67127">
        <ele>1024</ele>
        <time>2021-08-23T07:27:13Z</time>
      </trkpt>
      <trkpt lat="45.08396" lon="2.67128">
        <ele>1024.3</ele>
        <time>2021-08-23T07:27:15Z</time>
      </trkpt>
      <trkpt lat="45.08399" lon="2.67129">
        <ele>1024.5</ele>
        <time>2021-08-23T07:27:17Z</time>
      </trkpt>
      <trkpt lat="45.08403" lon="2.67131">
        <ele>1024.7</ele>
        <time>2021-08-23T07:27:19Z</time>
      </trkpt>
      <trkpt lat="45.08406" lon="2.67132">
        <ele>1024.9</ele>
        <time>2021-08-23T07:27:21Z</time>
      </trkpt>
      <trkpt lat="45.0841" lon="2.67132">
        <ele>1025.3</ele>
        <time>2021-08-23T07:27:23Z</time>
      </trkpt>
      <trkpt lat="45.08414" lon="2.67132">
        <ele>1025.7</ele>
        <time>2021-08-23T07:27:25Z</time>
      </trkpt>
      <trkpt lat="45.08418" lon="2.67132">
        <ele>1026</ele>
        <time>2021-08-23T07:27:27Z</time>
      </trkpt>
      <trkpt lat="45.08421" lon="2.67133">
        <ele>1026.2</ele>
        <time>2021-08-23T07:27:29Z</time>
      </trkpt>
      <trkpt lat="45.08424" lon="2.67133">
        <ele>1026.4</ele>
        <time>2021-08-23T07:27:31Z</time>
      </trkpt>
      <trkpt lat="45.08428" lon="2.67133">
        <ele>1026.6</ele>
        <time>2021-08-23T07:27:33Z</time>
      </trkpt>
      <trkpt lat="45.08431" lon="2.67133">
        <ele>1026.9</ele>
        <time>2021-08-23T07:27:35Z</time>
      </trkpt>
      <trkpt lat="45.08435" lon="2.67131">
        <ele>1027.3</ele>
        <time>2021-08-23T07:27:37Z</time>
      </trkpt>
      <trkpt lat="45.08438" lon="2.6713">
        <ele>1027.8</ele>
        <time>2021-08-23T07:27:39Z</time>
      </trkpt>
      <trkpt lat="45.08442" lon="2.67128">
        <ele>1028.3</ele>
        <time>2021-08-23T07:27:41Z</time>
      </trkpt>
      <trkpt lat="45.08445" lon="2.67126">
        <ele>1028.8</ele>
        <time>2021-08-23T07:27:43Z</time>
      </trkpt>
      <trkpt lat="45.08448" lon="2.67124">
        <ele>1029.4</ele>
        <time>2021-08-23T07:27:45Z</time>
      </trkpt>
      <trkpt lat="45.08452" lon="2.67123">
        <ele>1029.8</ele>
        <time>2021-08-23T07:27:47Z</time>
      </trkpt>
      <trkpt lat="45.08455" lon="2.67122">
        <ele>1030.2</ele>
        <time>2021-08-23T07:27:49Z</time>
      </trkpt>
      <trkpt lat="45.08459" lon="2.6712">
        <ele>1030.8</ele>
        <time>2021-08-23T07:27:51Z</time>
      </trkpt>
      <trkpt lat="45.08462" lon="2.67118">
        <ele>1031.5</ele>
        <time>2021-08-23T07:27:53Z</time>
      </trkpt>
      <trkpt lat="45.08466" lon="2.67118">
        <ele>1031.9</ele>
        <time>2021-08-23T07:27:55Z</time>
      </trkpt>
      <trkpt lat="45.08468" lon="2.67116">
        <ele>1032.4</ele>
        <time>2021-08-23T07:27:57Z</time>
      </trkpt>
      <trkpt lat="45.08472" lon="2.67116">
        <ele>1032.8</ele>
        <time>2021-08-23T07:27:59Z</time>
      </trkpt>
      <trkpt lat="45.08475" lon="2.67116">
        <ele>1033.1</ele>
        <time>2021-08-23T07:28:01Z</time>
      </trkpt>
      <trkpt lat="45.08479" lon="2.67116">
        <ele>1033.3</ele>
        <time>2021-08-23T07:28:03Z</time>
      </trkpt>
      <trkpt lat="45.08482" lon="2.67117">
        <ele>1033.4</ele>
        <time>2021-08-23T07:28:05Z</time>
      </trkpt>
      <trkpt lat="45.08486" lon="2.67117">
        <ele>1033.6</ele>
        <time>2021-08-23T07:28:07Z</time>
      </trkpt>
      <trkpt lat="45.08489" lon="2.67117">
        <ele>1033.8</ele>
        <time>2021-08-23T07:28:09Z</time>
      </trkpt>
      <trkpt lat="45.08493" lon="2.67118">
        <ele>1034</ele>
        <time>2021-08-23T07:28:11Z</time>
      </trkpt>
      <trkpt lat="45.08496" lon="2.67118">
        <ele>1034.3</ele>
        <time>2021-08-23T07:28:13Z</time>
      </trkpt>
      <trkpt lat="45.085" lon="2.67119">
        <ele>1034.2</ele>
        <time>2021-08-23T07:28:15Z</time>
      </trkpt>
      <trkpt lat="45.08503" lon="2.67119">
        <ele>1034.3</ele>
        <time>2021-08-23T07:28:17Z</time>
      </trkpt>
      <trkpt lat="45.08507" lon="2.6712">
        <ele>1034.3</ele>
        <time>2021-08-23T07:28:19Z</time>
      </trkpt>
      <trkpt lat="45.0851" lon="2.67119">
        <ele>1034.5</ele>
        <time>2021-08-23T07:28:21Z</time>
      </trkpt>
      <trkpt lat="45.08514" lon="2.67119">
        <ele>1034.6</ele>
        <time>2021-08-23T07:28:23Z</time>
      </trkpt>
      <trkpt lat="45.08517" lon="2.67118">
        <ele>1034.8</ele>
        <time>2021-08-23T07:28:25Z</time>
      </trkpt>
      <trkpt lat="45.08521" lon="2.67117">
        <ele>1035.1</ele>
        <time>2021-08-23T07:28:27Z</time>
      </trkpt>
      <trkpt lat="45.08525" lon="2.67116">
        <ele>1035.3</ele>
        <time>2021-08-23T07:28:29Z</time>
      </trkpt>
      <trkpt lat="45.08529" lon="2.67114">
        <ele>1035.6</ele>
        <time>2021-08-23T07:28:31Z</time>
      </trkpt>
      <trkpt lat="45.08533" lon="2.67114">
        <ele>1035.8</ele>
        <time>2021-08-23T07:28:33Z</time>
      </trkpt>
      <trkpt lat="45.08536" lon="2.67113">
        <ele>1036</ele>
        <time>2021-08-23T07:28:35Z</time>
      </trkpt>
      <trkpt lat="45.0854" lon="2.67111">
        <ele>1036.4</ele>
        <time>2021-08-23T07:28:37Z</time>
      </trkpt>
      <trkpt lat="45.08543" lon="2.6711">
        <ele>1036.6</ele>
        <time>2021-08-23T07:28:39Z</time>
      </trkpt>
      <trkpt lat="45.08546" lon="2.67108">
        <ele>1036.9</ele>
        <time>2021-08-23T07:28:41Z</time>
      </trkpt>
      <trkpt lat="45.0855" lon="2.67105">
        <ele>1037.3</ele>
        <time>2021-08-23T07:28:43Z</time>
      </trkpt>
      <trkpt lat="45.08554" lon="2.67102">
        <ele>1037.8</ele>
        <time>2021-08-23T07:28:45Z</time>
      </trkpt>
      <trkpt lat="45.08559" lon="2.67098">
        <ele>1038.4</ele>
        <time>2021-08-23T07:28:47Z</time>
      </trkpt>
      <trkpt lat="45.08563" lon="2.67093">
        <ele>1039.1</ele>
        <time>2021-08-23T07:28:49Z</time>
      </trkpt>
      <trkpt lat="45.08568" lon="2.67089">
        <ele>1039.6</ele>
        <time>2021-08-23T07:28:51Z</time>
      </trkpt>
      <trkpt lat="45.08574" lon="2.67083">
        <ele>1040.3</ele>
        <time>2021-08-23T07:28:53Z</time>
      </trkpt>
      <trkpt lat="45.08582" lon="2.67078">
        <ele>1041.7</ele>
        <time>2021-08-23T07:28:55Z</time>
      </trkpt>
      <trkpt lat="45.08591" lon="2.67073">
        <ele>1043.4</ele>
        <time>2021-08-23T07:28:57Z</time>
      </trkpt>
      <trkpt lat="45.08602" lon="2.67068">
        <ele>1045</ele>
        <time>2021-08-23T07:28:59Z</time>
      </trkpt>
      <trkpt lat="45.08613" lon="2.67062">
        <ele>1047</ele>
        <time>2021-08-23T07:29:01Z</time>
      </trkpt>
      <trkpt lat="45.08625" lon="2.67056">
        <ele>1048.7</ele>
        <time>2021-08-23T07:29:03Z</time>
      </trkpt>
      <trkpt lat="45.0864" lon="2.67053">
        <ele>1049.5</ele>
        <time>2021-08-23T07:29:05Z</time>
      </trkpt>
      <trkpt lat="45.08652" lon="2.67057">
        <ele>1048.6</ele>
        <time>2021-08-23T07:29:07Z</time>
      </trkpt>
      <trkpt lat="45.08663" lon="2.67066">
        <ele>1046.2</ele>
        <time>2021-08-23T07:29:09Z</time>
      </trkpt>
      <trkpt lat="45.08664" lon="2.67086">
        <ele>1042.1</ele>
        <time>2021-08-23T07:29:11Z</time>
      </trkpt>
      <trkpt lat="45.08656" lon="2.67101">
        <ele>1042.4</ele>
        <time>2021-08-23T07:29:13Z</time>
      </trkpt>
      <trkpt lat="45.08649" lon="2.67111">
        <ele>1042.2</ele>
        <time>2021-08-23T07:29:15Z</time>
      </trkpt>
      <trkpt lat="45.08643" lon="2.67122">
        <ele>1041.8</ele>
        <time>2021-08-23T07:29:17Z</time>
      </trkpt>
      <trkpt lat="45.08639" lon="2.67131">
        <ele>1041.4</ele>
        <time>2021-08-23T07:29:19Z</time>
      </trkpt>
      <trkpt lat="45.08635" lon="2.67138">
        <ele>1040.7</ele>
        <time>2021-08-23T07:29:21Z</time>
      </trkpt>
      <trkpt lat="45.08631" lon="2.67144">
        <ele>1040.1</ele>
        <time>2021-08-23T07:29:23Z</time>
      </trkpt>
      <trkpt lat="45.08628" lon="2.67148">
        <ele>1039.5</ele>
        <time>2021-08-23T07:29:25Z</time>
      </trkpt>
      <trkpt lat="45.08624" lon="2.67153">
        <ele>1038.8</ele>
        <time>2021-08-23T07:29:27Z</time>
      </trkpt>
      <trkpt lat="45.08621" lon="2.67158">
        <ele>1038.1</ele>
        <time>2021-08-23T07:29:29Z</time>
      </trkpt>
      <trkpt lat="45.08618" lon="2.67162">
        <ele>1037.2</ele>
        <time>2021-08-23T07:29:31Z</time>
      </trkpt>
      <trkpt lat="45.08614" lon="2.67167">
        <ele>1036.3</ele>
        <time>2021-08-23T07:29:33Z</time>
      </trkpt>
      <trkpt lat="45.0861" lon="2.67171">
        <ele>1036.2</ele>
        <time>2021-08-23T07:29:35Z</time>
      </trkpt>
      <trkpt lat="45.08607" lon="2.67176">
        <ele>1036.3</ele>
        <time>2021-08-23T07:29:37Z</time>
      </trkpt>
      <trkpt lat="45.08604" lon="2.67181">
        <ele>1036.4</ele>
        <time>2021-08-23T07:29:39Z</time>
      </trkpt>
      <trkpt lat="45.08602" lon="2.67186">
        <ele>1036.8</ele>
        <time>2021-08-23T07:29:41Z</time>
      </trkpt>
      <trkpt lat="45.08599" lon="2.67191">
        <ele>1036.9</ele>
        <time>2021-08-23T07:29:43Z</time>
      </trkpt>
      <trkpt lat="45.08596" lon="2.67196">
        <ele>1037</ele>
        <time>2021-08-23T07:29:45Z</time>
      </trkpt>
      <trkpt lat="45.08593" lon="2.67201">
        <ele>1037</ele>
        <time>2021-08-23T07:29:47Z</time>
      </trkpt>
      <trkpt lat="45.0859" lon="2.67206">
        <ele>1037.2</ele>
        <time>2021-08-23T07:29:49Z</time>
      </trkpt>
      <trkpt lat="45.08586" lon="2.67211">
        <ele>1037.1</ele>
        <time>2021-08-23T07:29:51Z</time>
      </trkpt>
      <trkpt lat="45.08583" lon="2.67215">
        <ele>1037</ele>
        <time>2021-08-23T07:29:53Z</time>
      </trkpt>
      <trkpt lat="45.0858" lon="2.67219">
        <ele>1037</ele>
        <time>2021-08-23T07:29:55Z</time>
      </trkpt>
      <trkpt lat="45.08576" lon="2.67223">
        <ele>1036.9</ele>
        <time>2021-08-23T07:29:57Z</time>
      </trkpt>
      <trkpt lat="45.08572" lon="2.67226">
        <ele>1036.7</ele>
        <time>2021-08-23T07:29:59Z</time>
      </trkpt>
      <trkpt lat="45.08568" lon="2.67229">
        <ele>1036.3</ele>
        <time>2021-08-23T07:30:01Z</time>
      </trkpt>
      <trkpt lat="45.08564" lon="2.67232">
        <ele>1036</ele>
        <time>2021-08-23T07:30:03Z</time>
      </trkpt>
      <trkpt lat="45.08559" lon="2.67236">
        <ele>1035.6</ele>
        <time>2021-08-23T07:30:05Z</time>
      </trkpt>
      <trkpt lat="45.08556" lon="2.6724">
        <ele>1035.4</ele>
        <time>2021-08-23T07:30:07Z</time>
      </trkpt>
      <trkpt lat="45.08552" lon="2.67245">
        <ele>1035.2</ele>
        <time>2021-08-23T07:30:09Z</time>
      </trkpt>
      <trkpt lat="45.0855" lon="2.6725">
        <ele>1035.3</ele>
        <time>2021-08-23T07:30:11Z</time>
      </trkpt>
      <trkpt lat="45.08549" lon="2.67257">
        <ele>1035.6</ele>
        <time>2021-08-23T07:30:13Z</time>
      </trkpt>
      <trkpt lat="45.08548" lon="2.67264">
        <ele>1036</ele>
        <time>2021-08-23T07:30:15Z</time>
      </trkpt>
      <trkpt lat="45.08547" lon="2.6727">
        <ele>1036.4</ele>
        <time>2021-08-23T07:30:17Z</time>
      </trkpt>
      <trkpt lat="45.08546" lon="2.67277">
        <ele>1037</ele>
        <time>2021-08-23T07:30:19Z</time>
      </trkpt>
      <trkpt lat="45.08545" lon="2.67284">
        <ele>1037.4</ele>
        <time>2021-08-23T07:30:21Z</time>
      </trkpt>
      <trkpt lat="45.08545" lon="2.6729">
        <ele>1037.9</ele>
        <time>2021-08-23T07:30:23Z</time>
      </trkpt>
      <trkpt lat="45.08544" lon="2.67297">
        <ele>1038.5</ele>
        <time>2021-08-23T07:30:25Z</time>
      </trkpt>
      <trkpt lat="45.08544" lon="2.67303">
        <ele>1039</ele>
        <time>2021-08-23T07:30:27Z</time>
      </trkpt>
      <trkpt lat="45.08544" lon="2.6731">
        <ele>1039.6</ele>
        <time>2021-08-23T07:30:29Z</time>
      </trkpt>
      <trkpt lat="45.08544" lon="2.67317">
        <ele>1040.1</ele>
        <time>2021-08-23T07:30:31Z</time>
      </trkpt>
      <trkpt lat="45.08544" lon="2.67324">
        <ele>1040.7</ele>
        <time>2021-08-23T07:30:33Z</time>
      </trkpt>
      <trkpt lat="45.08544" lon="2.67331">
        <ele>1041.3</ele>
        <time>2021-08-23T07:30:35Z</time>
      </trkpt>
      <trkpt lat="45.08544" lon="2.67337">
        <ele>1041.8</ele>
        <time>2021-08-23T07:30:37Z</time>
      </trkpt>
      <trkpt lat="45.08545" lon="2.67343">
        <ele>1042.5</ele>
        <time>2021-08-23T07:30:39Z</time>
      </trkpt>
      <trkpt lat="45.08547" lon="2.6735">
        <ele>1043.3</ele>
        <time>2021-08-23T07:30:41Z</time>
      </trkpt>
      <trkpt lat="45.08549" lon="2.67356">
        <ele>1044.1</ele>
        <time>2021-08-23T07:30:43Z</time>
      </trkpt>
      <trkpt lat="45.0855" lon="2.67362">
        <ele>1045</ele>
        <time>2021-08-23T07:30:45Z</time>
      </trkpt>
      <trkpt lat="45.08552" lon="2.67367">
        <ele>1045.8</ele>
        <time>2021-08-23T07:30:47Z</time>
      </trkpt>
      <trkpt lat="45.08554" lon="2.67373">
        <ele>1046.9</ele>
        <time>2021-08-23T07:30:49Z</time>
      </trkpt>
      <trkpt lat="45.08555" lon="2.67379">
        <ele>1047.4</ele>
        <time>2021-08-23T07:30:51Z</time>
      </trkpt>
      <trkpt lat="45.08555" lon="2.67385">
        <ele>1047.8</ele>
        <time>2021-08-23T07:30:53Z</time>
      </trkpt>
      <trkpt lat="45.08555" lon="2.67391">
        <ele>1048.1</ele>
        <time>2021-08-23T07:30:55Z</time>
      </trkpt>
      <trkpt lat="45.08555" lon="2.67398">
        <ele>1048.5</ele>
        <time>2021-08-23T07:30:57Z</time>
      </trkpt>
      <trkpt lat="45.08555" lon="2.67405">
        <ele>1048.7</ele>
        <time>2021-08-23T07:30:59Z</time>
      </trkpt>
      <trkpt lat="45.08554" lon="2.67411">
        <ele>1049</ele>
        <time>2021-08-23T07:31:01Z</time>
      </trkpt>
      <trkpt lat="45.08554" lon="2.67418">
        <ele>1049.1</ele>
        <time>2021-08-23T07:31:03Z</time>
      </trkpt>
      <trkpt lat="45.08554" lon="2.67425">
        <ele>1048.8</ele>
        <time>2021-08-23T07:31:05Z</time>
      </trkpt>
      <trkpt lat="45.08554" lon="2.67432">
        <ele>1048.5</ele>
        <time>2021-08-23T07:31:07Z</time>
      </trkpt>
      <trkpt lat="45.08553" lon="2.67438">
        <ele>1048</ele>
        <time>2021-08-23T07:31:09Z</time>
      </trkpt>
      <trkpt lat="45.08553" lon="2.67445">
        <ele>1047.7</ele>
        <time>2021-08-23T07:31:11Z</time>
      </trkpt>
      <trkpt lat="45.08552" lon="2.67452">
        <ele>1047.3</ele>
        <time>2021-08-23T07:31:13Z</time>
      </trkpt>
      <trkpt lat="45.08552" lon="2.67458">
        <ele>1047.1</ele>
        <time>2021-08-23T07:31:15Z</time>
      </trkpt>
      <trkpt lat="45.08552" lon="2.67465">
        <ele>1046.7</ele>
        <time>2021-08-23T07:31:17Z</time>
      </trkpt>
      <trkpt lat="45.08552" lon="2.67471">
        <ele>1046.4</ele>
        <time>2021-08-23T07:31:19Z</time>
      </trkpt>
      <trkpt lat="45.08552" lon="2.67476">
        <ele>1046.3</ele>
        <time>2021-08-23T07:31:21Z</time>
      </trkpt>
      <trkpt lat="45.08552" lon="2.67482">
        <ele>1046.2</ele>
        <time>2021-08-23T07:31:23Z</time>
      </trkpt>
      <trkpt lat="45.08553" lon="2.67488">
        <ele>1046.2</ele>
        <time>2021-08-23T07:31:25Z</time>
      </trkpt>
      <trkpt lat="45.08555" lon="2.67493">
        <ele>1046.6</ele>
        <time>2021-08-23T07:31:27Z</time>
      </trkpt>
      <trkpt lat="45.08557" lon="2.67497">
        <ele>1047.1</ele>
        <time>2021-08-23T07:31:29Z</time>
      </trkpt>
      <trkpt lat="45.08559" lon="2.67502">
        <ele>1047.5</ele>
        <time>2021-08-23T07:31:31Z</time>
      </trkpt>
      <trkpt lat="45.08561" lon="2.67506">
        <ele>1047.9</ele>
        <time>2021-08-23T07:31:33Z</time>
      </trkpt>
      <trkpt lat="45.08563" lon="2.67511">
        <ele>1048.4</ele>
        <time>2021-08-23T07:31:35Z</time>
      </trkpt>
      <trkpt lat="45.08565" lon="2.67515">
        <ele>1048.7</ele>
        <time>2021-08-23T07:31:37Z</time>
      </trkpt>
      <trkpt lat="45.08568" lon="2.67519">
        <ele>1049.1</ele>
        <time>2021-08-23T07:31:39Z</time>
      </trkpt>
      <trkpt lat="45.0857" lon="2.67524">
        <ele>1049.6</ele>
        <time>2021-08-23T07:31:41Z</time>
      </trkpt>
      <trkpt lat="45.08572" lon="2.67528">
        <ele>1050</ele>
        <time>2021-08-23T07:31:43Z</time>
      </trkpt>
      <trkpt lat="45.08575" lon="2.67532">
        <ele>1050.4</ele>
        <time>2021-08-23T07:31:45Z</time>
      </trkpt>
      <trkpt lat="45.08577" lon="2.67536">
        <ele>1050.9</ele>
        <time>2021-08-23T07:31:47Z</time>
      </trkpt>
      <trkpt lat="45.0858" lon="2.6754">
        <ele>1051.4</ele>
        <time>2021-08-23T07:31:49Z</time>
      </trkpt>
      <trkpt lat="45.08582" lon="2.67544">
        <ele>1052</ele>
        <time>2021-08-23T07:31:51Z</time>
      </trkpt>
      <trkpt lat="45.08585" lon="2.67547">
        <ele>1052.8</ele>
        <time>2021-08-23T07:31:53Z</time>
      </trkpt>
      <trkpt lat="45.08588" lon="2.67551">
        <ele>1053.6</ele>
        <time>2021-08-23T07:31:55Z</time>
      </trkpt>
      <trkpt lat="45.08591" lon="2.67554">
        <ele>1054.5</ele>
        <time>2021-08-23T07:31:57Z</time>
      </trkpt>
      <trkpt lat="45.08594" lon="2.67556">
        <ele>1055.3</ele>
        <time>2021-08-23T07:31:59Z</time>
      </trkpt>
      <trkpt lat="45.08597" lon="2.67559">
        <ele>1056.3</ele>
        <time>2021-08-23T07:32:01Z</time>
      </trkpt>
      <trkpt lat="45.08599" lon="2.67562">
        <ele>1057.1</ele>
        <time>2021-08-23T07:32:03Z</time>
      </trkpt>
      <trkpt lat="45.08602" lon="2.67565">
        <ele>1058</ele>
        <time>2021-08-23T07:32:05Z</time>
      </trkpt>
      <trkpt lat="45.08605" lon="2.67568">
        <ele>1058.8</ele>
        <time>2021-08-23T07:32:07Z</time>
      </trkpt>
      <trkpt lat="45.08608" lon="2.67571">
        <ele>1059.8</ele>
        <time>2021-08-23T07:32:09Z</time>
      </trkpt>
      <trkpt lat="45.08611" lon="2.67574">
        <ele>1060.4</ele>
        <time>2021-08-23T07:32:11Z</time>
      </trkpt>
      <trkpt lat="45.08613" lon="2.67577">
        <ele>1061.1</ele>
        <time>2021-08-23T07:32:13Z</time>
      </trkpt>
      <trkpt lat="45.08616" lon="2.67581">
        <ele>1061.6</ele>
        <time>2021-08-23T07:32:15Z</time>
      </trkpt>
      <trkpt lat="45.08618" lon="2.67585">
        <ele>1062</ele>
        <time>2021-08-23T07:32:17Z</time>
      </trkpt>
      <trkpt lat="45.0862" lon="2.67588">
        <ele>1062.4</ele>
        <time>2021-08-23T07:32:19Z</time>
      </trkpt>
      <trkpt lat="45.08622" lon="2.67592">
        <ele>1062.8</ele>
        <time>2021-08-23T07:32:21Z</time>
      </trkpt>
      <trkpt lat="45.08624" lon="2.67596">
        <ele>1063</ele>
        <time>2021-08-23T07:32:23Z</time>
      </trkpt>
      <trkpt lat="45.08627" lon="2.676">
        <ele>1063.3</ele>
        <time>2021-08-23T07:32:25Z</time>
      </trkpt>
      <trkpt lat="45.08628" lon="2.67604">
        <ele>1063.3</ele>
        <time>2021-08-23T07:32:27Z</time>
      </trkpt>
      <trkpt lat="45.0863" lon="2.67608">
        <ele>1063.6</ele>
        <time>2021-08-23T07:32:29Z</time>
      </trkpt>
      <trkpt lat="45.08632" lon="2.67612">
        <ele>1063.7</ele>
        <time>2021-08-23T07:32:31Z</time>
      </trkpt>
      <trkpt lat="45.08635" lon="2.67616">
        <ele>1064</ele>
        <time>2021-08-23T07:32:33Z</time>
      </trkpt>
      <trkpt lat="45.08637" lon="2.6762">
        <ele>1064.2</ele>
        <time>2021-08-23T07:32:35Z</time>
      </trkpt>
      <trkpt lat="45.08639" lon="2.67623">
        <ele>1064.6</ele>
        <time>2021-08-23T07:32:37Z</time>
      </trkpt>
      <trkpt lat="45.08642" lon="2.67627">
        <ele>1064.8</ele>
        <time>2021-08-23T07:32:39Z</time>
      </trkpt>
      <trkpt lat="45.08644" lon="2.6763">
        <ele>1065.2</ele>
        <time>2021-08-23T07:32:41Z</time>
      </trkpt>
      <trkpt lat="45.08646" lon="2.67634">
        <ele>1065.5</ele>
        <time>2021-08-23T07:32:43Z</time>
      </trkpt>
      <trkpt lat="45.08649" lon="2.67638">
        <ele>1065.7</ele>
        <time>2021-08-23T07:32:45Z</time>
      </trkpt>
      <trkpt lat="45.08651" lon="2.67641">
        <ele>1066.1</ele>
        <time>2021-08-23T07:32:47Z</time>
      </trkpt>
      <trkpt lat="45.08654" lon="2.67645">
        <ele>1066.4</ele>
        <time>2021-08-23T07:32:49Z</time>
      </trkpt>
      <trkpt lat="45.08657" lon="2.67648">
        <ele>1066.6</ele>
        <time>2021-08-23T07:32:51Z</time>
      </trkpt>
      <trkpt lat="45.08659" lon="2.67652">
        <ele>1067</ele>
        <time>2021-08-23T07:32:53Z</time>
      </trkpt>
      <trkpt lat="45.08662" lon="2.67655">
        <ele>1067.3</ele>
        <time>2021-08-23T07:32:55Z</time>
      </trkpt>
      <trkpt lat="45.08664" lon="2.67658">
        <ele>1067.5</ele>
        <time>2021-08-23T07:32:57Z</time>
      </trkpt>
      <trkpt lat="45.08666" lon="2.67662">
        <ele>1067.8</ele>
        <time>2021-08-23T07:32:59Z</time>
      </trkpt>
      <trkpt lat="45.08669" lon="2.67665">
        <ele>1067.6</ele>
        <time>2021-08-23T07:33:01Z</time>
      </trkpt>
      <trkpt lat="45.08672" lon="2.67668">
        <ele>1067.4</ele>
        <time>2021-08-23T07:33:03Z</time>
      </trkpt>
      <trkpt lat="45.08675" lon="2.67671">
        <ele>1067.1</ele>
        <time>2021-08-23T07:33:05Z</time>
      </trkpt>
      <trkpt lat="45.08678" lon="2.67673">
        <ele>1067.1</ele>
        <time>2021-08-23T07:33:07Z</time>
      </trkpt>
      <trkpt lat="45.08681" lon="2.67675">
        <ele>1067.1</ele>
        <time>2021-08-23T07:33:09Z</time>
      </trkpt>
      <trkpt lat="45.08685" lon="2.67676">
        <ele>1067.3</ele>
        <time>2021-08-23T07:33:11Z</time>
      </trkpt>
      <trkpt lat="45.08688" lon="2.67677">
        <ele>1067.5</ele>
        <time>2021-08-23T07:33:13Z</time>
      </trkpt>
      <trkpt lat="45.08691" lon="2.67677">
        <ele>1067.9</ele>
        <time>2021-08-23T07:33:15Z</time>
      </trkpt>
      <trkpt lat="45.08694" lon="2.67677">
        <ele>1068.2</ele>
        <time>2021-08-23T07:33:17Z</time>
      </trkpt>
      <trkpt lat="45.08698" lon="2.67678">
        <ele>1068.4</ele>
        <time>2021-08-23T07:33:19Z</time>
      </trkpt>
      <trkpt lat="45.08701" lon="2.67678">
        <ele>1068.8</ele>
        <time>2021-08-23T07:33:21Z</time>
      </trkpt>
      <trkpt lat="45.08704" lon="2.67678">
        <ele>1069.2</ele>
        <time>2021-08-23T07:33:23Z</time>
      </trkpt>
      <trkpt lat="45.08708" lon="2.67677">
        <ele>1069.8</ele>
        <time>2021-08-23T07:33:25Z</time>
      </trkpt>
      <trkpt lat="45.08711" lon="2.67677">
        <ele>1070.3</ele>
        <time>2021-08-23T07:33:27Z</time>
      </trkpt>
      <trkpt lat="45.08714" lon="2.67675">
        <ele>1071.1</ele>
        <time>2021-08-23T07:33:29Z</time>
      </trkpt>
      <trkpt lat="45.08718" lon="2.67674">
        <ele>1071.7</ele>
        <time>2021-08-23T07:33:31Z</time>
      </trkpt>
      <trkpt lat="45.08721" lon="2.67672">
        <ele>1072.5</ele>
        <time>2021-08-23T07:33:33Z</time>
      </trkpt>
      <trkpt lat="45.08724" lon="2.6767">
        <ele>1073.2</ele>
        <time>2021-08-23T07:33:35Z</time>
      </trkpt>
      <trkpt lat="45.08727" lon="2.67669">
        <ele>1073.8</ele>
        <time>2021-08-23T07:33:37Z</time>
      </trkpt>
      <trkpt lat="45.08731" lon="2.67667">
        <ele>1074.7</ele>
        <time>2021-08-23T07:33:39Z</time>
      </trkpt>
      <trkpt lat="45.08734" lon="2.67665">
        <ele>1075.4</ele>
        <time>2021-08-23T07:33:41Z</time>
      </trkpt>
      <trkpt lat="45.08737" lon="2.67664">
        <ele>1076.3</ele>
        <time>2021-08-23T07:33:43Z</time>
      </trkpt>
      <trkpt lat="45.0874" lon="2.67661">
        <ele>1077.3</ele>
        <time>2021-08-23T07:33:45Z</time>
      </trkpt>
      <trkpt lat="45.08744" lon="2.67659">
        <ele>1078.2</ele>
        <time>2021-08-23T07:33:47Z</time>
      </trkpt>
      <trkpt lat="45.08746" lon="2.67657">
        <ele>1079</ele>
        <time>2021-08-23T07:33:49Z</time>
      </trkpt>
      <trkpt lat="45.0875" lon="2.67657">
        <ele>1079.6</ele>
        <time>2021-08-23T07:33:51Z</time>
      </trkpt>
      <trkpt lat="45.08754" lon="2.67655">
        <ele>1080.8</ele>
        <time>2021-08-23T07:33:53Z</time>
      </trkpt>
      <trkpt lat="45.08758" lon="2.67655">
        <ele>1081.6</ele>
        <time>2021-08-23T07:33:55Z</time>
      </trkpt>
      <trkpt lat="45.08761" lon="2.67655">
        <ele>1082.4</ele>
        <time>2021-08-23T07:33:57Z</time>
      </trkpt>
      <trkpt lat="45.08765" lon="2.67656">
        <ele>1082.8</ele>
        <time>2021-08-23T07:33:59Z</time>
      </trkpt>
      <trkpt lat="45.08768" lon="2.67657">
        <ele>1083.3</ele>
        <time>2021-08-23T07:34:01Z</time>
      </trkpt>
      <trkpt lat="45.08772" lon="2.67659">
        <ele>1083.4</ele>
        <time>2021-08-23T07:34:03Z</time>
      </trkpt>
      <trkpt lat="45.08775" lon="2.6766">
        <ele>1083.8</ele>
        <time>2021-08-23T07:34:05Z</time>
      </trkpt>
      <trkpt lat="45.08778" lon="2.67662">
        <ele>1084</ele>
        <time>2021-08-23T07:34:07Z</time>
      </trkpt>
      <trkpt lat="45.08782" lon="2.67664">
        <ele>1084.1</ele>
        <time>2021-08-23T07:34:09Z</time>
      </trkpt>
      <trkpt lat="45.08785" lon="2.67666">
        <ele>1084.4</ele>
        <time>2021-08-23T07:34:11Z</time>
      </trkpt>
      <trkpt lat="45.08787" lon="2.67669">
        <ele>1084.2</ele>
        <time>2021-08-23T07:34:13Z</time>
      </trkpt>
      <trkpt lat="45.08791" lon="2.6767">
        <ele>1084.6</ele>
        <time>2021-08-23T07:34:15Z</time>
      </trkpt>
      <trkpt lat="45.08794" lon="2.67671">
        <ele>1084.9</ele>
        <time>2021-08-23T07:34:17Z</time>
      </trkpt>
      <trkpt lat="45.08798" lon="2.67673">
        <ele>1085.1</ele>
        <time>2021-08-23T07:34:19Z</time>
      </trkpt>
      <trkpt lat="45.08801" lon="2.67676">
        <ele>1085.3</ele>
        <time>2021-08-23T07:34:21Z</time>
      </trkpt>
      <trkpt lat="45.08804" lon="2.67677">
        <ele>1085.5</ele>
        <time>2021-08-23T07:34:23Z</time>
      </trkpt>
      <trkpt lat="45.08808" lon="2.6768">
        <ele>1085.6</ele>
        <time>2021-08-23T07:34:25Z</time>
      </trkpt>
      <trkpt lat="45.08811" lon="2.67682">
        <ele>1085.9</ele>
        <time>2021-08-23T07:34:27Z</time>
      </trkpt>
      <trkpt lat="45.08814" lon="2.67683">
        <ele>1086.1</ele>
        <time>2021-08-23T07:34:29Z</time>
      </trkpt>
      <trkpt lat="45.08818" lon="2.67685">
        <ele>1086.3</ele>
        <time>2021-08-23T07:34:31Z</time>
      </trkpt>
      <trkpt lat="45.08821" lon="2.67686">
        <ele>1086.6</ele>
        <time>2021-08-23T07:34:33Z</time>
      </trkpt>
      <trkpt lat="45.08824" lon="2.67686">
        <ele>1087.2</ele>
        <time>2021-08-23T07:34:35Z</time>
      </trkpt>
      <trkpt lat="45.08827" lon="2.67686">
        <ele>1087.9</ele>
        <time>2021-08-23T07:34:37Z</time>
      </trkpt>
      <trkpt lat="45.08831" lon="2.67686">
        <ele>1088.6</ele>
        <time>2021-08-23T07:34:39Z</time>
      </trkpt>
      <trkpt lat="45.08834" lon="2.67687">
        <ele>1089</ele>
        <time>2021-08-23T07:34:41Z</time>
      </trkpt>
      <trkpt lat="45.08837" lon="2.67686">
        <ele>1089.6</ele>
        <time>2021-08-23T07:34:43Z</time>
      </trkpt>
      <trkpt lat="45.0884" lon="2.67687">
        <ele>1090.1</ele>
        <time>2021-08-23T07:34:45Z</time>
      </trkpt>
      <trkpt lat="45.08844" lon="2.67686">
        <ele>1090.7</ele>
        <time>2021-08-23T07:34:47Z</time>
      </trkpt>
      <trkpt lat="45.08848" lon="2.67687">
        <ele>1091.1</ele>
        <time>2021-08-23T07:34:49Z</time>
      </trkpt>
      <trkpt lat="45.08852" lon="2.67688">
        <ele>1091.5</ele>
        <time>2021-08-23T07:34:51Z</time>
      </trkpt>
      <trkpt lat="45.08856" lon="2.67688">
        <ele>1092</ele>
        <time>2021-08-23T07:34:53Z</time>
      </trkpt>
      <trkpt lat="45.08859" lon="2.67688">
        <ele>1092.5</ele>
        <time>2021-08-23T07:34:55Z</time>
      </trkpt>
      <trkpt lat="45.08863" lon="2.6769">
        <ele>1092.6</ele>
        <time>2021-08-23T07:34:57Z</time>
      </trkpt>
      <trkpt lat="45.08866" lon="2.67692">
        <ele>1092.5</ele>
        <time>2021-08-23T07:34:59Z</time>
      </trkpt>
      <trkpt lat="45.08869" lon="2.67694">
        <ele>1092.6</ele>
        <time>2021-08-23T07:35:01Z</time>
      </trkpt>
      <trkpt lat="45.08873" lon="2.67695">
        <ele>1092.9</ele>
        <time>2021-08-23T07:35:03Z</time>
      </trkpt>
      <trkpt lat="45.08877" lon="2.67695">
        <ele>1093.4</ele>
        <time>2021-08-23T07:35:05Z</time>
      </trkpt>
      <trkpt lat="45.0888" lon="2.67696">
        <ele>1093.6</ele>
        <time>2021-08-23T07:35:07Z</time>
      </trkpt>
      <trkpt lat="45.08883" lon="2.67697">
        <ele>1093.8</ele>
        <time>2021-08-23T07:35:09Z</time>
      </trkpt>
      <trkpt lat="45.08886" lon="2.67697">
        <ele>1094.3</ele>
        <time>2021-08-23T07:35:11Z</time>
      </trkpt>
      <trkpt lat="45.0889" lon="2.67699">
        <ele>1094.5</ele>
        <time>2021-08-23T07:35:13Z</time>
      </trkpt>
      <trkpt lat="45.08894" lon="2.67698">
        <ele>1095.3</ele>
        <time>2021-08-23T07:35:15Z</time>
      </trkpt>
      <trkpt lat="45.08898" lon="2.67698">
        <ele>1096</ele>
        <time>2021-08-23T07:35:17Z</time>
      </trkpt>
      <trkpt lat="45.08902" lon="2.67698">
        <ele>1096.6</ele>
        <time>2021-08-23T07:35:19Z</time>
      </trkpt>
      <trkpt lat="45.08905" lon="2.67696">
        <ele>1097.5</ele>
        <time>2021-08-23T07:35:21Z</time>
      </trkpt>
      <trkpt lat="45.08908" lon="2.67693">
        <ele>1098.7</ele>
        <time>2021-08-23T07:35:23Z</time>
      </trkpt>
      <trkpt lat="45.08912" lon="2.67692">
        <ele>1099.5</ele>
        <time>2021-08-23T07:35:25Z</time>
      </trkpt>
      <trkpt lat="45.08916" lon="2.6769">
        <ele>1100.8</ele>
        <time>2021-08-23T07:35:27Z</time>
      </trkpt>
      <trkpt lat="45.08919" lon="2.67687">
        <ele>1101.6</ele>
        <time>2021-08-23T07:35:29Z</time>
      </trkpt>
      <trkpt lat="45.08923" lon="2.67685">
        <ele>1101.9</ele>
        <time>2021-08-23T07:35:31Z</time>
      </trkpt>
      <trkpt lat="45.08926" lon="2.67683">
        <ele>1102.2</ele>
        <time>2021-08-23T07:35:33Z</time>
      </trkpt>
      <trkpt lat="45.0893" lon="2.67682">
        <ele>1102.2</ele>
        <time>2021-08-23T07:35:35Z</time>
      </trkpt>
      <trkpt lat="45.08933" lon="2.67681">
        <ele>1102.3</ele>
        <time>2021-08-23T07:35:37Z</time>
      </trkpt>
      <trkpt lat="45.08937" lon="2.6768">
        <ele>1102.1</ele>
        <time>2021-08-23T07:35:39Z</time>
      </trkpt>
      <trkpt lat="45.0894" lon="2.6768">
        <ele>1102.1</ele>
        <time>2021-08-23T07:35:41Z</time>
      </trkpt>
      <trkpt lat="45.08944" lon="2.6768">
        <ele>1101.9</ele>
        <time>2021-08-23T07:35:43Z</time>
      </trkpt>
      <trkpt lat="45.08947" lon="2.6768">
        <ele>1101.7</ele>
        <time>2021-08-23T07:35:45Z</time>
      </trkpt>
      <trkpt lat="45.08951" lon="2.67679">
        <ele>1101.5</ele>
        <time>2021-08-23T07:35:47Z</time>
      </trkpt>
      <trkpt lat="45.08956" lon="2.67678">
        <ele>1101.4</ele>
        <time>2021-08-23T07:35:49Z</time>
      </trkpt>
      <trkpt lat="45.08959" lon="2.67677">
        <ele>1101.3</ele>
        <time>2021-08-23T07:35:51Z</time>
      </trkpt>
      <trkpt lat="45.08964" lon="2.67677">
        <ele>1101.1</ele>
        <time>2021-08-23T07:35:53Z</time>
      </trkpt>
      <trkpt lat="45.08968" lon="2.67675">
        <ele>1101</ele>
        <time>2021-08-23T07:35:55Z</time>
      </trkpt>
      <trkpt lat="45.08973" lon="2.67674">
        <ele>1100.8</ele>
        <time>2021-08-23T07:35:57Z</time>
      </trkpt>
      <trkpt lat="45.08977" lon="2.67669">
        <ele>1100.9</ele>
        <time>2021-08-23T07:35:59Z</time>
      </trkpt>
      <trkpt lat="45.08982" lon="2.67669">
        <ele>1100.5</ele>
        <time>2021-08-23T07:36:01Z</time>
      </trkpt>
      <trkpt lat="45.08986" lon="2.67666">
        <ele>1100.6</ele>
        <time>2021-08-23T07:36:03Z</time>
      </trkpt>
      <trkpt lat="45.08991" lon="2.67664">
        <ele>1100.8</ele>
        <time>2021-08-23T07:36:05Z</time>
      </trkpt>
      <trkpt lat="45.08997" lon="2.67661">
        <ele>1101.4</ele>
        <time>2021-08-23T07:36:07Z</time>
      </trkpt>
      <trkpt lat="45.09002" lon="2.6766">
        <ele>1101.5</ele>
        <time>2021-08-23T07:36:09Z</time>
      </trkpt>
      <trkpt lat="45.09008" lon="2.67657">
        <ele>1102.4</ele>
        <time>2021-08-23T07:36:11Z</time>
      </trkpt>
      <trkpt lat="45.09014" lon="2.67655">
        <ele>1103.2</ele>
        <time>2021-08-23T07:36:13Z</time>
      </trkpt>
      <trkpt lat="45.0902" lon="2.67653">
        <ele>1103.8</ele>
        <time>2021-08-23T07:36:15Z</time>
      </trkpt>
      <trkpt lat="45.09026" lon="2.67651">
        <ele>1104.3</ele>
        <time>2021-08-23T07:36:17Z</time>
      </trkpt>
      <trkpt lat="45.09033" lon="2.67652">
        <ele>1104.3</ele>
        <time>2021-08-23T07:36:19Z</time>
      </trkpt>
      <trkpt lat="45.09038" lon="2.67655">
        <ele>1103</ele>
        <time>2021-08-23T07:36:21Z</time>
      </trkpt>
      <trkpt lat="45.09041" lon="2.67664">
        <ele>1100.3</ele>
        <time>2021-08-23T07:36:23Z</time>
      </trkpt>
      <trkpt lat="45.09041" lon="2.67674">
        <ele>1099.4</ele>
        <time>2021-08-23T07:36:25Z</time>
      </trkpt>
      <trkpt lat="45.09039" lon="2.67685">
        <ele>1099.3</ele>
        <time>2021-08-23T07:36:27Z</time>
      </trkpt>
      <trkpt lat="45.09037" lon="2.67695">
        <ele>1099.1</ele>
        <time>2021-08-23T07:36:29Z</time>
      </trkpt>
      <trkpt lat="45.09034" lon="2.67704">
        <ele>1098.9</ele>
        <time>2021-08-23T07:36:31Z</time>
      </trkpt>
      <trkpt lat="45.09031" lon="2.67714">
        <ele>1098.6</ele>
        <time>2021-08-23T07:36:33Z</time>
      </trkpt>
      <trkpt lat="45.09028" lon="2.67723">
        <ele>1098.2</ele>
        <time>2021-08-23T07:36:35Z</time>
      </trkpt>
      <trkpt lat="45.09024" lon="2.67731">
        <ele>1097.8</ele>
        <time>2021-08-23T07:36:37Z</time>
      </trkpt>
      <trkpt lat="45.09021" lon="2.67738">
        <ele>1097.3</ele>
        <time>2021-08-23T07:36:39Z</time>
      </trkpt>
      <trkpt lat="45.09017" lon="2.67745">
        <ele>1096.8</ele>
        <time>2021-08-23T07:36:41Z</time>
      </trkpt>
      <trkpt lat="45.09014" lon="2.67751">
        <ele>1096.7</ele>
        <time>2021-08-23T07:36:43Z</time>
      </trkpt>
      <trkpt lat="45.0901" lon="2.67757">
        <ele>1097.9</ele>
        <time>2021-08-23T07:36:45Z</time>
      </trkpt>
      <trkpt lat="45.09006" lon="2.67761">
        <ele>1098.8</ele>
        <time>2021-08-23T07:36:47Z</time>
      </trkpt>
      <trkpt lat="45.09003" lon="2.67766">
        <ele>1099.9</ele>
        <time>2021-08-23T07:36:49Z</time>
      </trkpt>
      <trkpt lat="45.09" lon="2.6777">
        <ele>1100.6</ele>
        <time>2021-08-23T07:36:51Z</time>
      </trkpt>
      <trkpt lat="45.08997" lon="2.67774">
        <ele>1101.4</ele>
        <time>2021-08-23T07:36:53Z</time>
      </trkpt>
      <trkpt lat="45.08995" lon="2.67778">
        <ele>1102.1</ele>
        <time>2021-08-23T07:36:55Z</time>
      </trkpt>
      <trkpt lat="45.08992" lon="2.67782">
        <ele>1102.7</ele>
        <time>2021-08-23T07:36:57Z</time>
      </trkpt>
      <trkpt lat="45.08989" lon="2.67785">
        <ele>1103.3</ele>
        <time>2021-08-23T07:36:59Z</time>
      </trkpt>
      <trkpt lat="45.08987" lon="2.67789">
        <ele>1103.9</ele>
        <time>2021-08-23T07:37:01Z</time>
      </trkpt>
      <trkpt lat="45.08984" lon="2.67793">
        <ele>1104.5</ele>
        <time>2021-08-23T07:37:03Z</time>
      </trkpt>
      <trkpt lat="45.08982" lon="2.67796">
        <ele>1104.9</ele>
        <time>2021-08-23T07:37:05Z</time>
      </trkpt>
      <trkpt lat="45.08979" lon="2.678">
        <ele>1105.2</ele>
        <time>2021-08-23T07:37:07Z</time>
      </trkpt>
      <trkpt lat="45.08976" lon="2.67803">
        <ele>1105.7</ele>
        <time>2021-08-23T07:37:09Z</time>
      </trkpt>
      <trkpt lat="45.08973" lon="2.67807">
        <ele>1105.9</ele>
        <time>2021-08-23T07:37:11Z</time>
      </trkpt>
      <trkpt lat="45.0897" lon="2.67809">
        <ele>1106</ele>
        <time>2021-08-23T07:37:13Z</time>
      </trkpt>
      <trkpt lat="45.08967" lon="2.67812">
        <ele>1105.9</ele>
        <time>2021-08-23T07:37:15Z</time>
      </trkpt>
      <trkpt lat="45.08963" lon="2.67814">
        <ele>1105.8</ele>
        <time>2021-08-23T07:37:17Z</time>
      </trkpt>
      <trkpt lat="45.08961" lon="2.67816">
        <ele>1105.7</ele>
        <time>2021-08-23T07:37:19Z</time>
      </trkpt>
      <trkpt lat="45.08958" lon="2.67819">
        <ele>1105.5</ele>
        <time>2021-08-23T07:37:21Z</time>
      </trkpt>
      <trkpt lat="45.08955" lon="2.67819">
        <ele>1105.2</ele>
        <time>2021-08-23T07:37:23Z</time>
      </trkpt>
      <trkpt lat="45.08952" lon="2.67822">
        <ele>1105</ele>
        <time>2021-08-23T07:37:25Z</time>
      </trkpt>
      <trkpt lat="45.08948" lon="2.67825">
        <ele>1104.8</ele>
        <time>2021-08-23T07:37:27Z</time>
      </trkpt>
      <trkpt lat="45.08946" lon="2.67827">
        <ele>1104.6</ele>
        <time>2021-08-23T07:37:29Z</time>
      </trkpt>
      <trkpt lat="45.08942" lon="2.6783">
        <ele>1104.4</ele>
        <time>2021-08-23T07:37:31Z</time>
      </trkpt>
      <trkpt lat="45.08939" lon="2.67832">
        <ele>1104.2</ele>
        <time>2021-08-23T07:37:33Z</time>
      </trkpt>
      <trkpt lat="45.08936" lon="2.67836">
        <ele>1104.7</ele>
        <time>2021-08-23T07:37:35Z</time>
      </trkpt>
      <trkpt lat="45.08933" lon="2.67839">
        <ele>1104.8</ele>
        <time>2021-08-23T07:37:37Z</time>
      </trkpt>
      <trkpt lat="45.0893" lon="2.67841">
        <ele>1105</ele>
        <time>2021-08-23T07:37:39Z</time>
      </trkpt>
      <trkpt lat="45.08927" lon="2.67845">
        <ele>1105.6</ele>
        <time>2021-08-23T07:37:41Z</time>
      </trkpt>
      <trkpt lat="45.08924" lon="2.67848">
        <ele>1105.8</ele>
        <time>2021-08-23T07:37:43Z</time>
      </trkpt>
      <trkpt lat="45.08922" lon="2.6785">
        <ele>1105.9</ele>
        <time>2021-08-23T07:37:45Z</time>
      </trkpt>
      <trkpt lat="45.08918" lon="2.67853">
        <ele>1106</ele>
        <time>2021-08-23T07:37:47Z</time>
      </trkpt>
      <trkpt lat="45.08914" lon="2.67855">
        <ele>1106.1</ele>
        <time>2021-08-23T07:37:49Z</time>
      </trkpt>
      <trkpt lat="45.08911" lon="2.67857">
        <ele>1106.3</ele>
        <time>2021-08-23T07:37:51Z</time>
      </trkpt>
      <trkpt lat="45.08907" lon="2.67859">
        <ele>1106.4</ele>
        <time>2021-08-23T07:37:53Z</time>
      </trkpt>
      <trkpt lat="45.08904" lon="2.67861">
        <ele>1106.4</ele>
        <time>2021-08-23T07:37:55Z</time>
      </trkpt>
      <trkpt lat="45.089" lon="2.67863">
        <ele>1106.3</ele>
        <time>2021-08-23T07:37:57Z</time>
      </trkpt>
      <trkpt lat="45.08897" lon="2.67864">
        <ele>1106.3</ele>
        <time>2021-08-23T07:37:59Z</time>
      </trkpt>
      <trkpt lat="45.08893" lon="2.67866">
        <ele>1106.2</ele>
        <time>2021-08-23T07:38:01Z</time>
      </trkpt>
      <trkpt lat="45.08889" lon="2.67868">
        <ele>1106.1</ele>
        <time>2021-08-23T07:38:03Z</time>
      </trkpt>
      <trkpt lat="45.08886" lon="2.67869">
        <ele>1105.8</ele>
        <time>2021-08-23T07:38:05Z</time>
      </trkpt>
      <trkpt lat="45.08882" lon="2.67871">
        <ele>1105.8</ele>
        <time>2021-08-23T07:38:07Z</time>
      </trkpt>
      <trkpt lat="45.08879" lon="2.67873">
        <ele>1105.7</ele>
        <time>2021-08-23T07:38:09Z</time>
      </trkpt>
      <trkpt lat="45.08875" lon="2.67876">
        <ele>1105.8</ele>
        <time>2021-08-23T07:38:11Z</time>
      </trkpt>
      <trkpt lat="45.08872" lon="2.67878">
        <ele>1105.8</ele>
        <time>2021-08-23T07:38:13Z</time>
      </trkpt>
      <trkpt lat="45.08869" lon="2.6788">
        <ele>1105.8</ele>
        <time>2021-08-23T07:38:15Z</time>
      </trkpt>
      <trkpt lat="45.08866" lon="2.67883">
        <ele>1105.9</ele>
        <time>2021-08-23T07:38:17Z</time>
      </trkpt>
      <trkpt lat="45.08863" lon="2.67886">
        <ele>1106</ele>
        <time>2021-08-23T07:38:19Z</time>
      </trkpt>
      <trkpt lat="45.08859" lon="2.67889">
        <ele>1106.1</ele>
        <time>2021-08-23T07:38:21Z</time>
      </trkpt>
      <trkpt lat="45.08856" lon="2.67892">
        <ele>1106.2</ele>
        <time>2021-08-23T07:38:23Z</time>
      </trkpt>
      <trkpt lat="45.08853" lon="2.67895">
        <ele>1106.3</ele>
        <time>2021-08-23T07:38:25Z</time>
      </trkpt>
      <trkpt lat="45.0885" lon="2.67899">
        <ele>1106.7</ele>
        <time>2021-08-23T07:38:27Z</time>
      </trkpt>
      <trkpt lat="45.08847" lon="2.67903">
        <ele>1107.1</ele>
        <time>2021-08-23T07:38:29Z</time>
      </trkpt>
      <trkpt lat="45.08845" lon="2.67907">
        <ele>1107.4</ele>
        <time>2021-08-23T07:38:31Z</time>
      </trkpt>
      <trkpt lat="45.08843" lon="2.67911">
        <ele>1108.1</ele>
        <time>2021-08-23T07:38:33Z</time>
      </trkpt>
      <trkpt lat="45.08841" lon="2.67916">
        <ele>1108.7</ele>
        <time>2021-08-23T07:38:35Z</time>
      </trkpt>
      <trkpt lat="45.08839" lon="2.67921">
        <ele>1109.1</ele>
        <time>2021-08-23T07:38:37Z</time>
      </trkpt>
      <trkpt lat="45.08838" lon="2.67926">
        <ele>1109.6</ele>
        <time>2021-08-23T07:38:39Z</time>
      </trkpt>
      <trkpt lat="45.08838" lon="2.6793">
        <ele>1110.2</ele>
        <time>2021-08-23T07:38:41Z</time>
      </trkpt>
      <trkpt lat="45.08837" lon="2.67935">
        <ele>1110.7</ele>
        <time>2021-08-23T07:38:43Z</time>
      </trkpt>
      <trkpt lat="45.08837" lon="2.6794">
        <ele>1111.3</ele>
        <time>2021-08-23T07:38:45Z</time>
      </trkpt>
      <trkpt lat="45.08836" lon="2.67945">
        <ele>1112</ele>
        <time>2021-08-23T07:38:47Z</time>
      </trkpt>
      <trkpt lat="45.08835" lon="2.6795">
        <ele>1112.4</ele>
        <time>2021-08-23T07:38:49Z</time>
      </trkpt>
      <trkpt lat="45.08835" lon="2.67955">
        <ele>1113.2</ele>
        <time>2021-08-23T07:38:51Z</time>
      </trkpt>
      <trkpt lat="45.08834" lon="2.67961">
        <ele>1113.7</ele>
        <time>2021-08-23T07:38:53Z</time>
      </trkpt>
      <trkpt lat="45.08834" lon="2.67965">
        <ele>1114.2</ele>
        <time>2021-08-23T07:38:55Z</time>
      </trkpt>
      <trkpt lat="45.08834" lon="2.67971">
        <ele>1114.9</ele>
        <time>2021-08-23T07:38:57Z</time>
      </trkpt>
      <trkpt lat="45.08833" lon="2.67976">
        <ele>1115.4</ele>
        <time>2021-08-23T07:38:59Z</time>
      </trkpt>
      <trkpt lat="45.08833" lon="2.67981">
        <ele>1116.1</ele>
        <time>2021-08-23T07:39:01Z</time>
      </trkpt>
      <trkpt lat="45.08833" lon="2.67986">
        <ele>1116.6</ele>
        <time>2021-08-23T07:39:03Z</time>
      </trkpt>
      <trkpt lat="45.08832" lon="2.67991">
        <ele>1117.4</ele>
        <time>2021-08-23T07:39:05Z</time>
      </trkpt>
      <trkpt lat="45.08832" lon="2.67996">
        <ele>1118.1</ele>
        <time>2021-08-23T07:39:07Z</time>
      </trkpt>
      <trkpt lat="45.08833" lon="2.68001">
        <ele>1118.8</ele>
        <time>2021-08-23T07:39:09Z</time>
      </trkpt>
      <trkpt lat="45.08833" lon="2.68006">
        <ele>1119</ele>
        <time>2021-08-23T07:39:11Z</time>
      </trkpt>
      <trkpt lat="45.08833" lon="2.68012">
        <ele>1119.2</ele>
        <time>2021-08-23T07:39:13Z</time>
      </trkpt>
      <trkpt lat="45.08834" lon="2.68016">
        <ele>1119.4</ele>
        <time>2021-08-23T07:39:15Z</time>
      </trkpt>
      <trkpt lat="45.08834" lon="2.68022">
        <ele>1119.7</ele>
        <time>2021-08-23T07:39:17Z</time>
      </trkpt>
      <trkpt lat="45.08835" lon="2.68027">
        <ele>1119.9</ele>
        <time>2021-08-23T07:39:19Z</time>
      </trkpt>
      <trkpt lat="45.08836" lon="2.68032">
        <ele>1120.5</ele>
        <time>2021-08-23T07:39:21Z</time>
      </trkpt>
      <trkpt lat="45.08837" lon="2.68037">
        <ele>1120.8</ele>
        <time>2021-08-23T07:39:23Z</time>
      </trkpt>
      <trkpt lat="45.08838" lon="2.68042">
        <ele>1121.5</ele>
        <time>2021-08-23T07:39:25Z</time>
      </trkpt>
      <trkpt lat="45.0884" lon="2.68047">
        <ele>1122.1</ele>
        <time>2021-08-23T07:39:27Z</time>
      </trkpt>
      <trkpt lat="45.08841" lon="2.68052">
        <ele>1122.7</ele>
        <time>2021-08-23T07:39:29Z</time>
      </trkpt>
      <trkpt lat="45.08843" lon="2.68057">
        <ele>1123.6</ele>
        <time>2021-08-23T07:39:31Z</time>
      </trkpt>
      <trkpt lat="45.08844" lon="2.68061">
        <ele>1124.2</ele>
        <time>2021-08-23T07:39:33Z</time>
      </trkpt>
      <trkpt lat="45.08846" lon="2.68066">
        <ele>1124.8</ele>
        <time>2021-08-23T07:39:35Z</time>
      </trkpt>
      <trkpt lat="45.08847" lon="2.6807">
        <ele>1125.5</ele>
        <time>2021-08-23T07:39:37Z</time>
      </trkpt>
      <trkpt lat="45.08849" lon="2.68075">
        <ele>1126.2</ele>
        <time>2021-08-23T07:39:39Z</time>
      </trkpt>
      <trkpt lat="45.08851" lon="2.6808">
        <ele>1127.1</ele>
        <time>2021-08-23T07:39:41Z</time>
      </trkpt>
      <trkpt lat="45.08852" lon="2.68084">
        <ele>1127.5</ele>
        <time>2021-08-23T07:39:43Z</time>
      </trkpt>
      <trkpt lat="45.08854" lon="2.68088">
        <ele>1128</ele>
        <time>2021-08-23T07:39:45Z</time>
      </trkpt>
      <trkpt lat="45.08856" lon="2.68093">
        <ele>1128</ele>
        <time>2021-08-23T07:39:47Z</time>
      </trkpt>
      <trkpt lat="45.08857" lon="2.68097">
        <ele>1128.2</ele>
        <time>2021-08-23T07:39:49Z</time>
      </trkpt>
      <trkpt lat="45.08859" lon="2.68102">
        <ele>1128.4</ele>
        <time>2021-08-23T07:39:51Z</time>
      </trkpt>
      <trkpt lat="45.08861" lon="2.68106">
        <ele>1128.6</ele>
        <time>2021-08-23T07:39:53Z</time>
      </trkpt>
      <trkpt lat="45.08862" lon="2.6811">
        <ele>1128.8</ele>
        <time>2021-08-23T07:39:55Z</time>
      </trkpt>
      <trkpt lat="45.08863" lon="2.68115">
        <ele>1128.8</ele>
        <time>2021-08-23T07:39:57Z</time>
      </trkpt>
      <trkpt lat="45.08865" lon="2.68119">
        <ele>1129.3</ele>
        <time>2021-08-23T07:39:59Z</time>
      </trkpt>
      <trkpt lat="45.08867" lon="2.68123">
        <ele>1129.5</ele>
        <time>2021-08-23T07:40:01Z</time>
      </trkpt>
      <trkpt lat="45.08869" lon="2.68127">
        <ele>1129.9</ele>
        <time>2021-08-23T07:40:03Z</time>
      </trkpt>
      <trkpt lat="45.08871" lon="2.68131">
        <ele>1130.5</ele>
        <time>2021-08-23T07:40:05Z</time>
      </trkpt>
      <trkpt lat="45.08873" lon="2.68136">
        <ele>1130.8</ele>
        <time>2021-08-23T07:40:07Z</time>
      </trkpt>
      <trkpt lat="45.08875" lon="2.6814">
        <ele>1131.4</ele>
        <time>2021-08-23T07:40:09Z</time>
      </trkpt>
      <trkpt lat="45.08877" lon="2.68144">
        <ele>1131.9</ele>
        <time>2021-08-23T07:40:11Z</time>
      </trkpt>
      <trkpt lat="45.0888" lon="2.68149">
        <ele>1132.4</ele>
        <time>2021-08-23T07:40:13Z</time>
      </trkpt>
      <trkpt lat="45.08881" lon="2.68154">
        <ele>1132.7</ele>
        <time>2021-08-23T07:40:15Z</time>
      </trkpt>
      <trkpt lat="45.08883" lon="2.68159">
        <ele>1132.8</ele>
        <time>2021-08-23T07:40:17Z</time>
      </trkpt>
      <trkpt lat="45.08884" lon="2.68164">
        <ele>1133</ele>
        <time>2021-08-23T07:40:19Z</time>
      </trkpt>
      <trkpt lat="45.08885" lon="2.68169">
        <ele>1133</ele>
        <time>2021-08-23T07:40:21Z</time>
      </trkpt>
      <trkpt lat="45.08886" lon="2.68174">
        <ele>1133</ele>
        <time>2021-08-23T07:40:23Z</time>
      </trkpt>
      <trkpt lat="45.08887" lon="2.68179">
        <ele>1133</ele>
        <time>2021-08-23T07:40:25Z</time>
      </trkpt>
      <trkpt lat="45.08889" lon="2.68184">
        <ele>1133.2</ele>
        <time>2021-08-23T07:40:27Z</time>
      </trkpt>
      <trkpt lat="45.0889" lon="2.68188">
        <ele>1133.6</ele>
        <time>2021-08-23T07:40:29Z</time>
      </trkpt>
      <trkpt lat="45.08892" lon="2.68193">
        <ele>1133.9</ele>
        <time>2021-08-23T07:40:31Z</time>
      </trkpt>
      <trkpt lat="45.08893" lon="2.68198">
        <ele>1134</ele>
        <time>2021-08-23T07:40:33Z</time>
      </trkpt>
      <trkpt lat="45.08895" lon="2.68203">
        <ele>1134.2</ele>
        <time>2021-08-23T07:40:35Z</time>
      </trkpt>
      <trkpt lat="45.08897" lon="2.68208">
        <ele>1134.5</ele>
        <time>2021-08-23T07:40:37Z</time>
      </trkpt>
      <trkpt lat="45.08898" lon="2.68212">
        <ele>1134.7</ele>
        <time>2021-08-23T07:40:39Z</time>
      </trkpt>
      <trkpt lat="45.089" lon="2.68217">
        <ele>1135</ele>
        <time>2021-08-23T07:40:41Z</time>
      </trkpt>
      <trkpt lat="45.08901" lon="2.68221">
        <ele>1135.2</ele>
        <time>2021-08-23T07:40:43Z</time>
      </trkpt>
      <trkpt lat="45.08902" lon="2.68226">
        <ele>1135.1</ele>
        <time>2021-08-23T07:40:45Z</time>
      </trkpt>
      <trkpt lat="45.08904" lon="2.68231">
        <ele>1135.1</ele>
        <time>2021-08-23T07:40:47Z</time>
      </trkpt>
      <trkpt lat="45.08905" lon="2.68236">
        <ele>1135.4</ele>
        <time>2021-08-23T07:40:49Z</time>
      </trkpt>
      <trkpt lat="45.08906" lon="2.6824">
        <ele>1135.4</ele>
        <time>2021-08-23T07:40:51Z</time>
      </trkpt>
      <trkpt lat="45.08908" lon="2.68244">
        <ele>1135.8</ele>
        <time>2021-08-23T07:40:53Z</time>
      </trkpt>
      <trkpt lat="45.08909" lon="2.68248">
        <ele>1135.8</ele>
        <time>2021-08-23T07:40:55Z</time>
      </trkpt>
      <trkpt lat="45.08911" lon="2.68253">
        <ele>1136.4</ele>
        <time>2021-08-23T07:40:57Z</time>
      </trkpt>
      <trkpt lat="45.08914" lon="2.68257">
        <ele>1136.8</ele>
        <time>2021-08-23T07:40:59Z</time>
      </trkpt>
      <trkpt lat="45.08916" lon="2.6826">
        <ele>1137.3</ele>
        <time>2021-08-23T07:41:01Z</time>
      </trkpt>
      <trkpt lat="45.08918" lon="2.68264">
        <ele>1137.7</ele>
        <time>2021-08-23T07:41:03Z</time>
      </trkpt>
      <trkpt lat="45.0892" lon="2.68269">
        <ele>1138.1</ele>
        <time>2021-08-23T07:41:05Z</time>
      </trkpt>
      <trkpt lat="45.08922" lon="2.68273">
        <ele>1138.7</ele>
        <time>2021-08-23T07:41:07Z</time>
      </trkpt>
      <trkpt lat="45.08924" lon="2.68277">
        <ele>1139</ele>
        <time>2021-08-23T07:41:09Z</time>
      </trkpt>
      <trkpt lat="45.08926" lon="2.68281">
        <ele>1139.5</ele>
        <time>2021-08-23T07:41:11Z</time>
      </trkpt>
      <trkpt lat="45.08928" lon="2.68286">
        <ele>1139.7</ele>
        <time>2021-08-23T07:41:13Z</time>
      </trkpt>
      <trkpt lat="45.0893" lon="2.68291">
        <ele>1140.2</ele>
        <time>2021-08-23T07:41:15Z</time>
      </trkpt>
      <trkpt lat="45.08931" lon="2.68295">
        <ele>1140.1</ele>
        <time>2021-08-23T07:41:17Z</time>
      </trkpt>
      <trkpt lat="45.08934" lon="2.683">
        <ele>1140.5</ele>
        <time>2021-08-23T07:41:19Z</time>
      </trkpt>
      <trkpt lat="45.08935" lon="2.68305">
        <ele>1140.5</ele>
        <time>2021-08-23T07:41:21Z</time>
      </trkpt>
      <trkpt lat="45.08936" lon="2.6831">
        <ele>1140.6</ele>
        <time>2021-08-23T07:41:23Z</time>
      </trkpt>
      <trkpt lat="45.08938" lon="2.68314">
        <ele>1140.6</ele>
        <time>2021-08-23T07:41:25Z</time>
      </trkpt>
      <trkpt lat="45.0894" lon="2.68319">
        <ele>1140.9</ele>
        <time>2021-08-23T07:41:27Z</time>
      </trkpt>
      <trkpt lat="45.08942" lon="2.68322">
        <ele>1141.4</ele>
        <time>2021-08-23T07:41:29Z</time>
      </trkpt>
      <trkpt lat="45.08943" lon="2.68327">
        <ele>1141.4</ele>
        <time>2021-08-23T07:41:31Z</time>
      </trkpt>
      <trkpt lat="45.08945" lon="2.68331">
        <ele>1141.7</ele>
        <time>2021-08-23T07:41:33Z</time>
      </trkpt>
      <trkpt lat="45.08947" lon="2.68335">
        <ele>1142</ele>
        <time>2021-08-23T07:41:35Z</time>
      </trkpt>
      <trkpt lat="45.0895" lon="2.68338">
        <ele>1142.8</ele>
        <time>2021-08-23T07:41:37Z</time>
      </trkpt>
      <trkpt lat="45.08953" lon="2.68342">
        <ele>1143.7</ele>
        <time>2021-08-23T07:41:39Z</time>
      </trkpt>
      <trkpt lat="45.08955" lon="2.68346">
        <ele>1144.3</ele>
        <time>2021-08-23T07:41:41Z</time>
      </trkpt>
      <trkpt lat="45.08957" lon="2.6835">
        <ele>1144.9</ele>
        <time>2021-08-23T07:41:43Z</time>
      </trkpt>
      <trkpt lat="45.0896" lon="2.68353">
        <ele>1145.9</ele>
        <time>2021-08-23T07:41:45Z</time>
      </trkpt>
      <trkpt lat="45.08962" lon="2.68357">
        <ele>1146.8</ele>
        <time>2021-08-23T07:41:47Z</time>
      </trkpt>
      <trkpt lat="45.08965" lon="2.6836">
        <ele>1147.6</ele>
        <time>2021-08-23T07:41:49Z</time>
      </trkpt>
      <trkpt lat="45.08967" lon="2.68364">
        <ele>1148.1</ele>
        <time>2021-08-23T07:41:51Z</time>
      </trkpt>
      <trkpt lat="45.08968" lon="2.68369">
        <ele>1148.4</ele>
        <time>2021-08-23T07:41:53Z</time>
      </trkpt>
      <trkpt lat="45.0897" lon="2.68374">
        <ele>1149.1</ele>
        <time>2021-08-23T07:41:55Z</time>
      </trkpt>
      <trkpt lat="45.08972" lon="2.68379">
        <ele>1149.3</ele>
        <time>2021-08-23T07:41:57Z</time>
      </trkpt>
      <trkpt lat="45.08973" lon="2.68384">
        <ele>1149.8</ele>
        <time>2021-08-23T07:41:59Z</time>
      </trkpt>
      <trkpt lat="45.08975" lon="2.68389">
        <ele>1150.1</ele>
        <time>2021-08-23T07:42:01Z</time>
      </trkpt>
      <trkpt lat="45.08976" lon="2.68393">
        <ele>1150.3</ele>
        <time>2021-08-23T07:42:03Z</time>
      </trkpt>
      <trkpt lat="45.08977" lon="2.68399">
        <ele>1150.4</ele>
        <time>2021-08-23T07:42:05Z</time>
      </trkpt>
      <trkpt lat="45.08978" lon="2.68404">
        <ele>1150.5</ele>
        <time>2021-08-23T07:42:07Z</time>
      </trkpt>
      <trkpt lat="45.08979" lon="2.68409">
        <ele>1150.8</ele>
        <time>2021-08-23T07:42:09Z</time>
      </trkpt>
      <trkpt lat="45.0898" lon="2.68414">
        <ele>1151.1</ele>
        <time>2021-08-23T07:42:11Z</time>
      </trkpt>
      <trkpt lat="45.08982" lon="2.68418">
        <ele>1151.4</ele>
        <time>2021-08-23T07:42:13Z</time>
      </trkpt>
      <trkpt lat="45.08983" lon="2.68423">
        <ele>1152.1</ele>
        <time>2021-08-23T07:42:15Z</time>
      </trkpt>
      <trkpt lat="45.08984" lon="2.68428">
        <ele>1152.6</ele>
        <time>2021-08-23T07:42:17Z</time>
      </trkpt>
      <trkpt lat="45.08986" lon="2.68432">
        <ele>1153.1</ele>
        <time>2021-08-23T07:42:19Z</time>
      </trkpt>
      <trkpt lat="45.08987" lon="2.68436">
        <ele>1153.7</ele>
        <time>2021-08-23T07:42:21Z</time>
      </trkpt>
      <trkpt lat="45.08989" lon="2.6844">
        <ele>1154.7</ele>
        <time>2021-08-23T07:42:23Z</time>
      </trkpt>
      <trkpt lat="45.0899" lon="2.68445">
        <ele>1154.9</ele>
        <time>2021-08-23T07:42:25Z</time>
      </trkpt>
      <trkpt lat="45.08991" lon="2.6845">
        <ele>1155.3</ele>
        <time>2021-08-23T07:42:27Z</time>
      </trkpt>
      <trkpt lat="45.08991" lon="2.68454">
        <ele>1155.3</ele>
        <time>2021-08-23T07:42:29Z</time>
      </trkpt>
      <trkpt lat="45.08992" lon="2.68459">
        <ele>1156</ele>
        <time>2021-08-23T07:42:31Z</time>
      </trkpt>
      <trkpt lat="45.08993" lon="2.68464">
        <ele>1156.2</ele>
        <time>2021-08-23T07:42:33Z</time>
      </trkpt>
      <trkpt lat="45.08995" lon="2.68469">
        <ele>1156.9</ele>
        <time>2021-08-23T07:42:35Z</time>
      </trkpt>
      <trkpt lat="45.08996" lon="2.68474">
        <ele>1157.4</ele>
        <time>2021-08-23T07:42:37Z</time>
      </trkpt>
      <trkpt lat="45.08996" lon="2.68479">
        <ele>1157.3</ele>
        <time>2021-08-23T07:42:39Z</time>
      </trkpt>
      <trkpt lat="45.08997" lon="2.68483">
        <ele>1157.5</ele>
        <time>2021-08-23T07:42:41Z</time>
      </trkpt>
      <trkpt lat="45.08997" lon="2.68488">
        <ele>1157.8</ele>
        <time>2021-08-23T07:42:43Z</time>
      </trkpt>
      <trkpt lat="45.08997" lon="2.68493">
        <ele>1157.5</ele>
        <time>2021-08-23T07:42:45Z</time>
      </trkpt>
      <trkpt lat="45.08997" lon="2.68499">
        <ele>1157.2</ele>
        <time>2021-08-23T07:42:47Z</time>
      </trkpt>
      <trkpt lat="45.08996" lon="2.68504">
        <ele>1156.9</ele>
        <time>2021-08-23T07:42:49Z</time>
      </trkpt>
      <trkpt lat="45.08996" lon="2.68509">
        <ele>1156.9</ele>
        <time>2021-08-23T07:42:51Z</time>
      </trkpt>
      <trkpt lat="45.08996" lon="2.68514">
        <ele>1156.8</ele>
        <time>2021-08-23T07:42:53Z</time>
      </trkpt>
      <trkpt lat="45.08996" lon="2.68519">
        <ele>1156.8</ele>
        <time>2021-08-23T07:42:55Z</time>
      </trkpt>
      <trkpt lat="45.08996" lon="2.68525">
        <ele>1156.9</ele>
        <time>2021-08-23T07:42:57Z</time>
      </trkpt>
      <trkpt lat="45.08996" lon="2.6853">
        <ele>1157</ele>
        <time>2021-08-23T07:42:59Z</time>
      </trkpt>
      <trkpt lat="45.08997" lon="2.68535">
        <ele>1157.3</ele>
        <time>2021-08-23T07:43:01Z</time>
      </trkpt>
      <trkpt lat="45.08998" lon="2.6854">
        <ele>1157.7</ele>
        <time>2021-08-23T07:43:03Z</time>
      </trkpt>
      <trkpt lat="45.08998" lon="2.68545">
        <ele>1158</ele>
        <time>2021-08-23T07:43:05Z</time>
      </trkpt>
      <trkpt lat="45.08999" lon="2.6855">
        <ele>1158.4</ele>
        <time>2021-08-23T07:43:07Z</time>
      </trkpt>
      <trkpt lat="45.08999" lon="2.68555">
        <ele>1158.6</ele>
        <time>2021-08-23T07:43:09Z</time>
      </trkpt>
      <trkpt lat="45.09" lon="2.6856">
        <ele>1158.8</ele>
        <time>2021-08-23T07:43:11Z</time>
      </trkpt>
      <trkpt lat="45.09" lon="2.68565">
        <ele>1159</ele>
        <time>2021-08-23T07:43:13Z</time>
      </trkpt>
      <trkpt lat="45.09" lon="2.6857">
        <ele>1159.2</ele>
        <time>2021-08-23T07:43:15Z</time>
      </trkpt>
      <trkpt lat="45.09" lon="2.68575">
        <ele>1159.1</ele>
        <time>2021-08-23T07:43:17Z</time>
      </trkpt>
      <trkpt lat="45.09" lon="2.6858">
        <ele>1159.2</ele>
        <time>2021-08-23T07:43:19Z</time>
      </trkpt>
      <trkpt lat="45.09" lon="2.68586">
        <ele>1159.1</ele>
        <time>2021-08-23T07:43:21Z</time>
      </trkpt>
      <trkpt lat="45.09001" lon="2.68591">
        <ele>1159.1</ele>
        <time>2021-08-23T07:43:23Z</time>
      </trkpt>
      <trkpt lat="45.09001" lon="2.68596">
        <ele>1159.1</ele>
        <time>2021-08-23T07:43:25Z</time>
      </trkpt>
      <trkpt lat="45.09002" lon="2.68601">
        <ele>1159.2</ele>
        <time>2021-08-23T07:43:27Z</time>
      </trkpt>
      <trkpt lat="45.09002" lon="2.68606">
        <ele>1159.2</ele>
        <time>2021-08-23T07:43:29Z</time>
      </trkpt>
      <trkpt lat="45.09003" lon="2.68611">
        <ele>1159.3</ele>
        <time>2021-08-23T07:43:31Z</time>
      </trkpt>
      <trkpt lat="45.09003" lon="2.68616">
        <ele>1159.1</ele>
        <time>2021-08-23T07:43:33Z</time>
      </trkpt>
      <trkpt lat="45.09004" lon="2.68621">
        <ele>1159.1</ele>
        <time>2021-08-23T07:43:35Z</time>
      </trkpt>
      <trkpt lat="45.09004" lon="2.68626">
        <ele>1159.1</ele>
        <time>2021-08-23T07:43:37Z</time>
      </trkpt>
      <trkpt lat="45.09004" lon="2.68632">
        <ele>1158.7</ele>
        <time>2021-08-23T07:43:39Z</time>
      </trkpt>
      <trkpt lat="45.09004" lon="2.68637">
        <ele>1158.6</ele>
        <time>2021-08-23T07:43:41Z</time>
      </trkpt>
      <trkpt lat="45.09004" lon="2.68642">
        <ele>1158.5</ele>
        <time>2021-08-23T07:43:43Z</time>
      </trkpt>
      <trkpt lat="45.09004" lon="2.68647">
        <ele>1158.1</ele>
        <time>2021-08-23T07:43:45Z</time>
      </trkpt>
      <trkpt lat="45.09005" lon="2.68652">
        <ele>1158</ele>
        <time>2021-08-23T07:43:47Z</time>
      </trkpt>
      <trkpt lat="45.09005" lon="2.68658">
        <ele>1157.9</ele>
        <time>2021-08-23T07:43:49Z</time>
      </trkpt>
      <trkpt lat="45.09006" lon="2.68662">
        <ele>1158.4</ele>
        <time>2021-08-23T07:43:51Z</time>
      </trkpt>
      <trkpt lat="45.09007" lon="2.68668">
        <ele>1158.4</ele>
        <time>2021-08-23T07:43:53Z</time>
      </trkpt>
      <trkpt lat="45.09008" lon="2.68672">
        <ele>1158.2</ele>
        <time>2021-08-23T07:43:55Z</time>
      </trkpt>
      <trkpt lat="45.0901" lon="2.68677">
        <ele>1158.5</ele>
        <time>2021-08-23T07:43:57Z</time>
      </trkpt>
      <trkpt lat="45.09012" lon="2.68681">
        <ele>1159</ele>
        <time>2021-08-23T07:43:59Z</time>
      </trkpt>
      <trkpt lat="45.09014" lon="2.68686">
        <ele>1159.1</ele>
        <time>2021-08-23T07:44:01Z</time>
      </trkpt>
      <trkpt lat="45.09016" lon="2.6869">
        <ele>1159.3</ele>
        <time>2021-08-23T07:44:03Z</time>
      </trkpt>
      <trkpt lat="45.09018" lon="2.68695">
        <ele>1159.6</ele>
        <time>2021-08-23T07:44:05Z</time>
      </trkpt>
      <trkpt lat="45.09019" lon="2.68699">
        <ele>1159.8</ele>
        <time>2021-08-23T07:44:07Z</time>
      </trkpt>
      <trkpt lat="45.09022" lon="2.68703">
        <ele>1160.4</ele>
        <time>2021-08-23T07:44:09Z</time>
      </trkpt>
      <trkpt lat="45.09024" lon="2.68706">
        <ele>1160.7</ele>
        <time>2021-08-23T07:44:11Z</time>
      </trkpt>
      <trkpt lat="45.09026" lon="2.6871">
        <ele>1161.1</ele>
        <time>2021-08-23T07:44:13Z</time>
      </trkpt>
      <trkpt lat="45.09028" lon="2.68713">
        <ele>1161.6</ele>
        <time>2021-08-23T07:44:15Z</time>
      </trkpt>
      <trkpt lat="45.09031" lon="2.68716">
        <ele>1162.7</ele>
        <time>2021-08-23T07:44:17Z</time>
      </trkpt>
      <trkpt lat="45.09034" lon="2.68717">
        <ele>1163.9</ele>
        <time>2021-08-23T07:44:19Z</time>
      </trkpt>
      <trkpt lat="45.09037" lon="2.68719">
        <ele>1165.1</ele>
        <time>2021-08-23T07:44:21Z</time>
      </trkpt>
      <trkpt lat="45.0904" lon="2.68721">
        <ele>1166.4</ele>
        <time>2021-08-23T07:44:23Z</time>
      </trkpt>
      <trkpt lat="45.09043" lon="2.68723">
        <ele>1167.8</ele>
        <time>2021-08-23T07:44:25Z</time>
      </trkpt>
      <trkpt lat="45.09047" lon="2.68724">
        <ele>1169</ele>
        <time>2021-08-23T07:44:27Z</time>
      </trkpt>
      <trkpt lat="45.0905" lon="2.68726">
        <ele>1170.2</ele>
        <time>2021-08-23T07:44:29Z</time>
      </trkpt>
      <trkpt lat="45.09053" lon="2.68727">
        <ele>1171.7</ele>
        <time>2021-08-23T07:44:31Z</time>
      </trkpt>
      <trkpt lat="45.09056" lon="2.68728">
        <ele>1173</ele>
        <time>2021-08-23T07:44:33Z</time>
      </trkpt>
      <trkpt lat="45.0906" lon="2.68731">
        <ele>1174.4</ele>
        <time>2021-08-23T07:44:35Z</time>
      </trkpt>
      <trkpt lat="45.09063" lon="2.68733">
        <ele>1175.5</ele>
        <time>2021-08-23T07:44:37Z</time>
      </trkpt>
      <trkpt lat="45.09066" lon="2.68736">
        <ele>1176.3</ele>
        <time>2021-08-23T07:44:39Z</time>
      </trkpt>
      <trkpt lat="45.09068" lon="2.6874">
        <ele>1176.7</ele>
        <time>2021-08-23T07:44:41Z</time>
      </trkpt>
      <trkpt lat="45.0907" lon="2.68745">
        <ele>1176.4</ele>
        <time>2021-08-23T07:44:43Z</time>
      </trkpt>
      <trkpt lat="45.09071" lon="2.68751">
        <ele>1176.1</ele>
        <time>2021-08-23T07:44:45Z</time>
      </trkpt>
      <trkpt lat="45.09072" lon="2.68756">
        <ele>1176</ele>
        <time>2021-08-23T07:44:47Z</time>
      </trkpt>
      <trkpt lat="45.09072" lon="2.68761">
        <ele>1175.5</ele>
        <time>2021-08-23T07:44:49Z</time>
      </trkpt>
      <trkpt lat="45.09072" lon="2.68767">
        <ele>1174.8</ele>
        <time>2021-08-23T07:44:51Z</time>
      </trkpt>
      <trkpt lat="45.09072" lon="2.68772">
        <ele>1174.3</ele>
        <time>2021-08-23T07:44:53Z</time>
      </trkpt>
      <trkpt lat="45.09072" lon="2.68778">
        <ele>1173.7</ele>
        <time>2021-08-23T07:44:55Z</time>
      </trkpt>
      <trkpt lat="45.09072" lon="2.68783">
        <ele>1173.3</ele>
        <time>2021-08-23T07:44:57Z</time>
      </trkpt>
      <trkpt lat="45.09073" lon="2.68789">
        <ele>1173</ele>
        <time>2021-08-23T07:44:59Z</time>
      </trkpt>
      <trkpt lat="45.09074" lon="2.68794">
        <ele>1172.9</ele>
        <time>2021-08-23T07:45:01Z</time>
      </trkpt>
      <trkpt lat="45.09075" lon="2.68799">
        <ele>1172.9</ele>
        <time>2021-08-23T07:45:03Z</time>
      </trkpt>
      <trkpt lat="45.09076" lon="2.68804">
        <ele>1172.8</ele>
        <time>2021-08-23T07:45:05Z</time>
      </trkpt>
      <trkpt lat="45.09077" lon="2.68808">
        <ele>1173</ele>
        <time>2021-08-23T07:45:07Z</time>
      </trkpt>
      <trkpt lat="45.09078" lon="2.68813">
        <ele>1172.9</ele>
        <time>2021-08-23T07:45:09Z</time>
      </trkpt>
      <trkpt lat="45.09079" lon="2.68819">
        <ele>1173</ele>
        <time>2021-08-23T07:45:11Z</time>
      </trkpt>
      <trkpt lat="45.0908" lon="2.68823">
        <ele>1173.4</ele>
        <time>2021-08-23T07:45:13Z</time>
      </trkpt>
      <trkpt lat="45.09082" lon="2.68828">
        <ele>1173.7</ele>
        <time>2021-08-23T07:45:15Z</time>
      </trkpt>
      <trkpt lat="45.09083" lon="2.68833">
        <ele>1173.9</ele>
        <time>2021-08-23T07:45:17Z</time>
      </trkpt>
      <trkpt lat="45.09085" lon="2.68837">
        <ele>1174.1</ele>
        <time>2021-08-23T07:45:19Z</time>
      </trkpt>
      <trkpt lat="45.09086" lon="2.68842">
        <ele>1174</ele>
        <time>2021-08-23T07:45:21Z</time>
      </trkpt>
      <trkpt lat="45.09088" lon="2.68847">
        <ele>1174.1</ele>
        <time>2021-08-23T07:45:23Z</time>
      </trkpt>
      <trkpt lat="45.0909" lon="2.68851">
        <ele>1174.2</ele>
        <time>2021-08-23T07:45:25Z</time>
      </trkpt>
      <trkpt lat="45.09091" lon="2.68855">
        <ele>1174</ele>
        <time>2021-08-23T07:45:27Z</time>
      </trkpt>
      <trkpt lat="45.09093" lon="2.6886">
        <ele>1174</ele>
        <time>2021-08-23T07:45:29Z</time>
      </trkpt>
      <trkpt lat="45.09095" lon="2.68864">
        <ele>1173.9</ele>
        <time>2021-08-23T07:45:31Z</time>
      </trkpt>
      <trkpt lat="45.09097" lon="2.68869">
        <ele>1174.1</ele>
        <time>2021-08-23T07:45:33Z</time>
      </trkpt>
      <trkpt lat="45.09099" lon="2.68872">
        <ele>1174.2</ele>
        <time>2021-08-23T07:45:35Z</time>
      </trkpt>
      <trkpt lat="45.09101" lon="2.68877">
        <ele>1174.4</ele>
        <time>2021-08-23T07:45:37Z</time>
      </trkpt>
      <trkpt lat="45.09103" lon="2.6888">
        <ele>1174.7</ele>
        <time>2021-08-23T07:45:39Z</time>
      </trkpt>
      <trkpt lat="45.09106" lon="2.68884">
        <ele>1175.2</ele>
        <time>2021-08-23T07:45:41Z</time>
      </trkpt>
      <trkpt lat="45.09109" lon="2.68886">
        <ele>1176</ele>
        <time>2021-08-23T07:45:43Z</time>
      </trkpt>
      <trkpt lat="45.09112" lon="2.68889">
        <ele>1176.8</ele>
        <time>2021-08-23T07:45:45Z</time>
      </trkpt>
      <trkpt lat="45.09115" lon="2.68892">
        <ele>1177.1</ele>
        <time>2021-08-23T07:45:47Z</time>
      </trkpt>
      <trkpt lat="45.09118" lon="2.68893">
        <ele>1178.3</ele>
        <time>2021-08-23T07:45:49Z</time>
      </trkpt>
      <trkpt lat="45.09121" lon="2.68896">
        <ele>1179.2</ele>
        <time>2021-08-23T07:45:51Z</time>
      </trkpt>
      <trkpt lat="45.09125" lon="2.68897">
        <ele>1180.5</ele>
        <time>2021-08-23T07:45:53Z</time>
      </trkpt>
      <trkpt lat="45.09128" lon="2.68898">
        <ele>1181.9</ele>
        <time>2021-08-23T07:45:55Z</time>
      </trkpt>
      <trkpt lat="45.09132" lon="2.68899">
        <ele>1183.2</ele>
        <time>2021-08-23T07:45:57Z</time>
      </trkpt>
      <trkpt lat="45.09136" lon="2.68899">
        <ele>1184.8</ele>
        <time>2021-08-23T07:45:59Z</time>
      </trkpt>
      <trkpt lat="45.09139" lon="2.689">
        <ele>1186.1</ele>
        <time>2021-08-23T07:46:01Z</time>
      </trkpt>
      <trkpt lat="45.09143" lon="2.68901">
        <ele>1187.2</ele>
        <time>2021-08-23T07:46:03Z</time>
      </trkpt>
      <trkpt lat="45.09146" lon="2.68902">
        <ele>1188.4</ele>
        <time>2021-08-23T07:46:05Z</time>
      </trkpt>
      <trkpt lat="45.0915" lon="2.68903">
        <ele>1189.9</ele>
        <time>2021-08-23T07:46:07Z</time>
      </trkpt>
      <trkpt lat="45.09154" lon="2.68905">
        <ele>1190.9</ele>
        <time>2021-08-23T07:46:09Z</time>
      </trkpt>
      <trkpt lat="45.09157" lon="2.68906">
        <ele>1192</ele>
        <time>2021-08-23T07:46:11Z</time>
      </trkpt>
      <trkpt lat="45.09161" lon="2.68908">
        <ele>1192.9</ele>
        <time>2021-08-23T07:46:13Z</time>
      </trkpt>
      <trkpt lat="45.09164" lon="2.6891">
        <ele>1193.8</ele>
        <time>2021-08-23T07:46:15Z</time>
      </trkpt>
      <trkpt lat="45.09167" lon="2.68912">
        <ele>1194.4</ele>
        <time>2021-08-23T07:46:17Z</time>
      </trkpt>
      <trkpt lat="45.0917" lon="2.68914">
        <ele>1195</ele>
        <time>2021-08-23T07:46:19Z</time>
      </trkpt>
      <trkpt lat="45.09173" lon="2.68917">
        <ele>1195.7</ele>
        <time>2021-08-23T07:46:21Z</time>
      </trkpt>
      <trkpt lat="45.09175" lon="2.68921">
        <ele>1196.7</ele>
        <time>2021-08-23T07:46:23Z</time>
      </trkpt>
      <trkpt lat="45.09177" lon="2.68925">
        <ele>1197.1</ele>
        <time>2021-08-23T07:46:25Z</time>
      </trkpt>
      <trkpt lat="45.0918" lon="2.6893">
        <ele>1198.2</ele>
        <time>2021-08-23T07:46:27Z</time>
      </trkpt>
      <trkpt lat="45.09182" lon="2.68935">
        <ele>1198.7</ele>
        <time>2021-08-23T07:46:29Z</time>
      </trkpt>
      <trkpt lat="45.09182" lon="2.68941">
        <ele>1198.2</ele>
        <time>2021-08-23T07:46:31Z</time>
      </trkpt>
      <trkpt lat="45.09182" lon="2.68947">
        <ele>1197.9</ele>
        <time>2021-08-23T07:46:33Z</time>
      </trkpt>
      <trkpt lat="45.09182" lon="2.68952">
        <ele>1197.2</ele>
        <time>2021-08-23T07:46:35Z</time>
      </trkpt>
      <trkpt lat="45.09182" lon="2.68958">
        <ele>1196.7</ele>
        <time>2021-08-23T07:46:37Z</time>
      </trkpt>
      <trkpt lat="45.09182" lon="2.68963">
        <ele>1196.4</ele>
        <time>2021-08-23T07:46:39Z</time>
      </trkpt>
      <trkpt lat="45.09182" lon="2.68969">
        <ele>1196.2</ele>
        <time>2021-08-23T07:46:41Z</time>
      </trkpt>
      <trkpt lat="45.09183" lon="2.68974">
        <ele>1196.2</ele>
        <time>2021-08-23T07:46:43Z</time>
      </trkpt>
      <trkpt lat="45.09183" lon="2.6898">
        <ele>1195.8</ele>
        <time>2021-08-23T07:46:45Z</time>
      </trkpt>
      <trkpt lat="45.09183" lon="2.68985">
        <ele>1195.7</ele>
        <time>2021-08-23T07:46:47Z</time>
      </trkpt>
      <trkpt lat="45.09184" lon="2.6899">
        <ele>1195.4</ele>
        <time>2021-08-23T07:46:49Z</time>
      </trkpt>
      <trkpt lat="45.09184" lon="2.68995">
        <ele>1195.4</ele>
        <time>2021-08-23T07:46:51Z</time>
      </trkpt>
      <trkpt lat="45.09185" lon="2.69">
        <ele>1195.4</ele>
        <time>2021-08-23T07:46:53Z</time>
      </trkpt>
      <trkpt lat="45.09185" lon="2.69006">
        <ele>1194.8</ele>
        <time>2021-08-23T07:46:55Z</time>
      </trkpt>
      <trkpt lat="45.09186" lon="2.69011">
        <ele>1194.7</ele>
        <time>2021-08-23T07:46:57Z</time>
      </trkpt>
      <trkpt lat="45.09188" lon="2.69015">
        <ele>1194.7</ele>
        <time>2021-08-23T07:46:59Z</time>
      </trkpt>
      <trkpt lat="45.09189" lon="2.6902">
        <ele>1194.7</ele>
        <time>2021-08-23T07:47:01Z</time>
      </trkpt>
      <trkpt lat="45.09191" lon="2.69025">
        <ele>1194.9</ele>
        <time>2021-08-23T07:47:03Z</time>
      </trkpt>
      <trkpt lat="45.09193" lon="2.69028">
        <ele>1195.8</ele>
        <time>2021-08-23T07:47:05Z</time>
      </trkpt>
      <trkpt lat="45.09196" lon="2.69031">
        <ele>1196.7</ele>
        <time>2021-08-23T07:47:07Z</time>
      </trkpt>
      <trkpt lat="45.09199" lon="2.69034">
        <ele>1197.6</ele>
        <time>2021-08-23T07:47:09Z</time>
      </trkpt>
      <trkpt lat="45.09201" lon="2.69036">
        <ele>1198.8</ele>
        <time>2021-08-23T07:47:11Z</time>
      </trkpt>
      <trkpt lat="45.09204" lon="2.69039">
        <ele>1199.6</ele>
        <time>2021-08-23T07:47:13Z</time>
      </trkpt>
      <trkpt lat="45.09207" lon="2.6904">
        <ele>1201.2</ele>
        <time>2021-08-23T07:47:15Z</time>
      </trkpt>
      <trkpt lat="45.0921" lon="2.69042">
        <ele>1202.1</ele>
        <time>2021-08-23T07:47:17Z</time>
      </trkpt>
      <trkpt lat="45.09213" lon="2.69044">
        <ele>1203.5</ele>
        <time>2021-08-23T07:47:19Z</time>
      </trkpt>
      <trkpt lat="45.09216" lon="2.69046">
        <ele>1204.9</ele>
        <time>2021-08-23T07:47:21Z</time>
      </trkpt>
      <trkpt lat="45.09219" lon="2.69048">
        <ele>1205.8</ele>
        <time>2021-08-23T07:47:23Z</time>
      </trkpt>
      <trkpt lat="45.09221" lon="2.69051">
        <ele>1206.6</ele>
        <time>2021-08-23T07:47:25Z</time>
      </trkpt>
      <trkpt lat="45.09224" lon="2.69053">
        <ele>1207.7</ele>
        <time>2021-08-23T07:47:27Z</time>
      </trkpt>
      <trkpt lat="45.09227" lon="2.69055">
        <ele>1208.7</ele>
        <time>2021-08-23T07:47:29Z</time>
      </trkpt>
      <trkpt lat="45.09229" lon="2.69059">
        <ele>1209.4</ele>
        <time>2021-08-23T07:47:31Z</time>
      </trkpt>
      <trkpt lat="45.09232" lon="2.69062">
        <ele>1210.3</ele>
        <time>2021-08-23T07:47:33Z</time>
      </trkpt>
      <trkpt lat="45.09234" lon="2.69065">
        <ele>1210.9</ele>
        <time>2021-08-23T07:47:35Z</time>
      </trkpt>
      <trkpt lat="45.09237" lon="2.69069">
        <ele>1211.9</ele>
        <time>2021-08-23T07:47:37Z</time>
      </trkpt>
      <trkpt lat="45.0924" lon="2.69073">
        <ele>1212.4</ele>
        <time>2021-08-23T07:47:39Z</time>
      </trkpt>
      <trkpt lat="45.09242" lon="2.69076">
        <ele>1213.1</ele>
        <time>2021-08-23T07:47:41Z</time>
      </trkpt>
      <trkpt lat="45.09244" lon="2.6908">
        <ele>1213.7</ele>
        <time>2021-08-23T07:47:43Z</time>
      </trkpt>
      <trkpt lat="45.09247" lon="2.69083">
        <ele>1214.4</ele>
        <time>2021-08-23T07:47:45Z</time>
      </trkpt>
      <trkpt lat="45.0925" lon="2.69087">
        <ele>1215.4</ele>
        <time>2021-08-23T07:47:47Z</time>
      </trkpt>
      <trkpt lat="45.09253" lon="2.69091">
        <ele>1215.9</ele>
        <time>2021-08-23T07:47:49Z</time>
      </trkpt>
      <trkpt lat="45.09255" lon="2.69096">
        <ele>1216.1</ele>
        <time>2021-08-23T07:47:51Z</time>
      </trkpt>
      <trkpt lat="45.09257" lon="2.69099">
        <ele>1216.4</ele>
        <time>2021-08-23T07:47:53Z</time>
      </trkpt>
      <trkpt lat="45.0926" lon="2.69103">
        <ele>1216.7</ele>
        <time>2021-08-23T07:47:55Z</time>
      </trkpt>
      <trkpt lat="45.09263" lon="2.69107">
        <ele>1217.2</ele>
        <time>2021-08-23T07:47:57Z</time>
      </trkpt>
      <trkpt lat="45.09265" lon="2.69112">
        <ele>1217.2</ele>
        <time>2021-08-23T07:47:59Z</time>
      </trkpt>
      <trkpt lat="45.09267" lon="2.69116">
        <ele>1217.4</ele>
        <time>2021-08-23T07:48:01Z</time>
      </trkpt>
      <trkpt lat="45.09269" lon="2.69119">
        <ele>1217.5</ele>
        <time>2021-08-23T07:48:03Z</time>
      </trkpt>
      <trkpt lat="45.09271" lon="2.69124">
        <ele>1217.1</ele>
        <time>2021-08-23T07:48:05Z</time>
      </trkpt>
      <trkpt lat="45.09274" lon="2.69128">
        <ele>1217.4</ele>
        <time>2021-08-23T07:48:07Z</time>
      </trkpt>
      <trkpt lat="45.09274" lon="2.69133">
        <ele>1216.5</ele>
        <time>2021-08-23T07:48:09Z</time>
      </trkpt>
      <trkpt lat="45.09276" lon="2.69139">
        <ele>1215.8</ele>
        <time>2021-08-23T07:48:11Z</time>
      </trkpt>
      <trkpt lat="45.09278" lon="2.69144">
        <ele>1215.1</ele>
        <time>2021-08-23T07:48:13Z</time>
      </trkpt>
      <trkpt lat="45.09278" lon="2.6915">
        <ele>1214</ele>
        <time>2021-08-23T07:48:15Z</time>
      </trkpt>
      <trkpt lat="45.09279" lon="2.69155">
        <ele>1213.1</ele>
        <time>2021-08-23T07:48:17Z</time>
      </trkpt>
      <trkpt lat="45.09281" lon="2.6916">
        <ele>1212.5</ele>
        <time>2021-08-23T07:48:19Z</time>
      </trkpt>
      <trkpt lat="45.09283" lon="2.69164">
        <ele>1212.1</ele>
        <time>2021-08-23T07:48:21Z</time>
      </trkpt>
      <trkpt lat="45.09285" lon="2.69168">
        <ele>1212.4</ele>
        <time>2021-08-23T07:48:23Z</time>
      </trkpt>
      <trkpt lat="45.09287" lon="2.69172">
        <ele>1213.3</ele>
        <time>2021-08-23T07:48:25Z</time>
      </trkpt>
      <trkpt lat="45.09289" lon="2.69177">
        <ele>1214.1</ele>
        <time>2021-08-23T07:48:27Z</time>
      </trkpt>
      <trkpt lat="45.09291" lon="2.69181">
        <ele>1214.9</ele>
        <time>2021-08-23T07:48:29Z</time>
      </trkpt>
      <trkpt lat="45.09294" lon="2.69183">
        <ele>1215.7</ele>
        <time>2021-08-23T07:48:31Z</time>
      </trkpt>
      <trkpt lat="45.09297" lon="2.69186">
        <ele>1216.7</ele>
        <time>2021-08-23T07:48:33Z</time>
      </trkpt>
      <trkpt lat="45.09299" lon="2.69188">
        <ele>1217.6</ele>
        <time>2021-08-23T07:48:35Z</time>
      </trkpt>
      <trkpt lat="45.09303" lon="2.69189">
        <ele>1218.7</ele>
        <time>2021-08-23T07:48:37Z</time>
      </trkpt>
      <trkpt lat="45.09306" lon="2.69189">
        <ele>1219.7</ele>
        <time>2021-08-23T07:48:39Z</time>
      </trkpt>
      <trkpt lat="45.09309" lon="2.69191">
        <ele>1220.6</ele>
        <time>2021-08-23T07:48:41Z</time>
      </trkpt>
      <trkpt lat="45.09313" lon="2.69192">
        <ele>1221.7</ele>
        <time>2021-08-23T07:48:43Z</time>
      </trkpt>
      <trkpt lat="45.09316" lon="2.69193">
        <ele>1222.8</ele>
        <time>2021-08-23T07:48:45Z</time>
      </trkpt>
      <trkpt lat="45.0932" lon="2.69195">
        <ele>1223.7</ele>
        <time>2021-08-23T07:48:47Z</time>
      </trkpt>
      <trkpt lat="45.09322" lon="2.69196">
        <ele>1224.4</ele>
        <time>2021-08-23T07:48:49Z</time>
      </trkpt>
      <trkpt lat="45.09326" lon="2.69197">
        <ele>1225.5</ele>
        <time>2021-08-23T07:48:51Z</time>
      </trkpt>
      <trkpt lat="45.09329" lon="2.69198">
        <ele>1226.4</ele>
        <time>2021-08-23T07:48:53Z</time>
      </trkpt>
      <trkpt lat="45.09333" lon="2.69201">
        <ele>1227.2</ele>
        <time>2021-08-23T07:48:55Z</time>
      </trkpt>
      <trkpt lat="45.09336" lon="2.69203">
        <ele>1227.9</ele>
        <time>2021-08-23T07:48:57Z</time>
      </trkpt>
      <trkpt lat="45.0934" lon="2.69205">
        <ele>1228.9</ele>
        <time>2021-08-23T07:48:59Z</time>
      </trkpt>
      <trkpt lat="45.09343" lon="2.69207">
        <ele>1229.5</ele>
        <time>2021-08-23T07:49:01Z</time>
      </trkpt>
      <trkpt lat="45.09346" lon="2.69208">
        <ele>1230.3</ele>
        <time>2021-08-23T07:49:03Z</time>
      </trkpt>
      <trkpt lat="45.09349" lon="2.69209">
        <ele>1231.1</ele>
        <time>2021-08-23T07:49:05Z</time>
      </trkpt>
      <trkpt lat="45.09352" lon="2.69211">
        <ele>1231.7</ele>
        <time>2021-08-23T07:49:07Z</time>
      </trkpt>
      <trkpt lat="45.09354" lon="2.69211">
        <ele>1232.2</ele>
        <time>2021-08-23T07:49:09Z</time>
      </trkpt>
      <trkpt lat="45.09355" lon="2.69211">
        <ele>1232.5</ele>
        <time>2021-08-23T07:49:11Z</time>
      </trkpt>
      <trkpt lat="45.09354" lon="2.69211">
        <ele>1232.4</ele>
        <time>2021-08-23T07:49:13Z</time>
      </trkpt>
      <trkpt lat="45.09355" lon="2.69212">
        <ele>1232.4</ele>
        <time>2021-08-23T07:49:15Z</time>
      </trkpt>
      <trkpt lat="45.09353" lon="2.69226">
        <ele>1231</ele>
        <time>2021-08-23T08:10:25Z</time>
      </trkpt>
      <trkpt lat="45.09353" lon="2.69231">
        <ele>1230.8</ele>
        <time>2021-08-23T08:10:27Z</time>
      </trkpt>
      <trkpt lat="45.09353" lon="2.69235">
        <ele>1230.5</ele>
        <time>2021-08-23T08:10:29Z</time>
      </trkpt>
      <trkpt lat="45.09351" lon="2.6924">
        <ele>1229.8</ele>
        <time>2021-08-23T08:10:31Z</time>
      </trkpt>
      <trkpt lat="45.09349" lon="2.69243">
        <ele>1228.9</ele>
        <time>2021-08-23T08:10:33Z</time>
      </trkpt>
      <trkpt lat="45.09345" lon="2.69245">
        <ele>1228</ele>
        <time>2021-08-23T08:10:35Z</time>
      </trkpt>
      <trkpt lat="45.09341" lon="2.69246">
        <ele>1227</ele>
        <time>2021-08-23T08:10:37Z</time>
      </trkpt>
      <trkpt lat="45.09336" lon="2.69246">
        <ele>1225.9</ele>
        <time>2021-08-23T08:10:39Z</time>
      </trkpt>
      <trkpt lat="45.09332" lon="2.69246">
        <ele>1224.9</ele>
        <time>2021-08-23T08:10:41Z</time>
      </trkpt>
      <trkpt lat="45.09327" lon="2.69247">
        <ele>1224</ele>
        <time>2021-08-23T08:10:43Z</time>
      </trkpt>
      <trkpt lat="45.09323" lon="2.69248">
        <ele>1223.1</ele>
        <time>2021-08-23T08:10:45Z</time>
      </trkpt>
      <trkpt lat="45.09318" lon="2.6925">
        <ele>1222.3</ele>
        <time>2021-08-23T08:10:47Z</time>
      </trkpt>
      <trkpt lat="45.09315" lon="2.69251">
        <ele>1221.9</ele>
        <time>2021-08-23T08:10:49Z</time>
      </trkpt>
      <trkpt lat="45.09311" lon="2.69253">
        <ele>1221.7</ele>
        <time>2021-08-23T08:10:51Z</time>
      </trkpt>
      <trkpt lat="45.09308" lon="2.69255">
        <ele>1221.8</ele>
        <time>2021-08-23T08:10:53Z</time>
      </trkpt>
      <trkpt lat="45.09306" lon="2.69257">
        <ele>1222</ele>
        <time>2021-08-23T08:10:55Z</time>
      </trkpt>
      <trkpt lat="45.09304" lon="2.69259">
        <ele>1222</ele>
        <time>2021-08-23T08:10:57Z</time>
      </trkpt>
      <trkpt lat="45.093" lon="2.69261">
        <ele>1221.8</ele>
        <time>2021-08-23T08:10:59Z</time>
      </trkpt>
      <trkpt lat="45.09296" lon="2.69262">
        <ele>1221.3</ele>
        <time>2021-08-23T08:11:01Z</time>
      </trkpt>
      <trkpt lat="45.09293" lon="2.69262">
        <ele>1220.8</ele>
        <time>2021-08-23T08:11:03Z</time>
      </trkpt>
      <trkpt lat="45.09289" lon="2.69263">
        <ele>1220.2</ele>
        <time>2021-08-23T08:11:05Z</time>
      </trkpt>
      <trkpt lat="45.09285" lon="2.69265">
        <ele>1219.8</ele>
        <time>2021-08-23T08:11:07Z</time>
      </trkpt>
      <trkpt lat="45.09281" lon="2.69266">
        <ele>1219.2</ele>
        <time>2021-08-23T08:11:09Z</time>
      </trkpt>
      <trkpt lat="45.09278" lon="2.69266">
        <ele>1218.6</ele>
        <time>2021-08-23T08:11:11Z</time>
      </trkpt>
      <trkpt lat="45.09274" lon="2.69266">
        <ele>1217.9</ele>
        <time>2021-08-23T08:11:13Z</time>
      </trkpt>
      <trkpt lat="45.09271" lon="2.69267">
        <ele>1217.5</ele>
        <time>2021-08-23T08:11:15Z</time>
      </trkpt>
      <trkpt lat="45.09268" lon="2.69268">
        <ele>1217</ele>
        <time>2021-08-23T08:11:17Z</time>
      </trkpt>
      <trkpt lat="45.09264" lon="2.69268">
        <ele>1216.3</ele>
        <time>2021-08-23T08:11:19Z</time>
      </trkpt>
      <trkpt lat="45.09261" lon="2.6927">
        <ele>1215.9</ele>
        <time>2021-08-23T08:11:21Z</time>
      </trkpt>
      <trkpt lat="45.09258" lon="2.69272">
        <ele>1215.8</ele>
        <time>2021-08-23T08:11:23Z</time>
      </trkpt>
      <trkpt lat="45.09254" lon="2.69274">
        <ele>1215.2</ele>
        <time>2021-08-23T08:11:25Z</time>
      </trkpt>
      <trkpt lat="45.09251" lon="2.69276">
        <ele>1214.8</ele>
        <time>2021-08-23T08:11:27Z</time>
      </trkpt>
      <trkpt lat="45.09248" lon="2.69279">
        <ele>1214.6</ele>
        <time>2021-08-23T08:11:29Z</time>
      </trkpt>
      <trkpt lat="45.09245" lon="2.69282">
        <ele>1214.3</ele>
        <time>2021-08-23T08:11:31Z</time>
      </trkpt>
      <trkpt lat="45.09242" lon="2.69285">
        <ele>1213.6</ele>
        <time>2021-08-23T08:11:33Z</time>
      </trkpt>
      <trkpt lat="45.09239" lon="2.69289">
        <ele>1213.4</ele>
        <time>2021-08-23T08:11:35Z</time>
      </trkpt>
      <trkpt lat="45.09237" lon="2.69294">
        <ele>1213.5</ele>
        <time>2021-08-23T08:11:37Z</time>
      </trkpt>
      <trkpt lat="45.09236" lon="2.693">
        <ele>1213.9</ele>
        <time>2021-08-23T08:11:39Z</time>
      </trkpt>
      <trkpt lat="45.09235" lon="2.69305">
        <ele>1214.3</ele>
        <time>2021-08-23T08:11:41Z</time>
      </trkpt>
      <trkpt lat="45.09234" lon="2.69311">
        <ele>1214.9</ele>
        <time>2021-08-23T08:11:43Z</time>
      </trkpt>
      <trkpt lat="45.09235" lon="2.69317">
        <ele>1216</ele>
        <time>2021-08-23T08:11:45Z</time>
      </trkpt>
      <trkpt lat="45.09236" lon="2.69322">
        <ele>1217.3</ele>
        <time>2021-08-23T08:11:47Z</time>
      </trkpt>
      <trkpt lat="45.09239" lon="2.69326">
        <ele>1218.9</ele>
        <time>2021-08-23T08:11:49Z</time>
      </trkpt>
      <trkpt lat="45.09242" lon="2.69329">
        <ele>1220.7</ele>
        <time>2021-08-23T08:11:51Z</time>
      </trkpt>
      <trkpt lat="45.09245" lon="2.6933">
        <ele>1222.5</ele>
        <time>2021-08-23T08:11:53Z</time>
      </trkpt>
      <trkpt lat="45.0925" lon="2.6933">
        <ele>1224.2</ele>
        <time>2021-08-23T08:11:55Z</time>
      </trkpt>
      <trkpt lat="45.09254" lon="2.69328">
        <ele>1225.1</ele>
        <time>2021-08-23T08:11:57Z</time>
      </trkpt>
      <trkpt lat="45.09257" lon="2.69325">
        <ele>1225.6</ele>
        <time>2021-08-23T08:11:59Z</time>
      </trkpt>
      <trkpt lat="45.0926" lon="2.69321">
        <ele>1225.8</ele>
        <time>2021-08-23T08:12:01Z</time>
      </trkpt>
      <trkpt lat="45.09264" lon="2.69316">
        <ele>1225.8</ele>
        <time>2021-08-23T08:12:03Z</time>
      </trkpt>
      <trkpt lat="45.09268" lon="2.69312">
        <ele>1226.1</ele>
        <time>2021-08-23T08:12:05Z</time>
      </trkpt>
      <trkpt lat="45.09271" lon="2.69307">
        <ele>1225.9</ele>
        <time>2021-08-23T08:12:07Z</time>
      </trkpt>
      <trkpt lat="45.09274" lon="2.69303">
        <ele>1225.8</ele>
        <time>2021-08-23T08:12:09Z</time>
      </trkpt>
      <trkpt lat="45.09277" lon="2.69299">
        <ele>1225.8</ele>
        <time>2021-08-23T08:12:11Z</time>
      </trkpt>
      <trkpt lat="45.0928" lon="2.69295">
        <ele>1225.6</ele>
        <time>2021-08-23T08:12:13Z</time>
      </trkpt>
      <trkpt lat="45.09283" lon="2.69293">
        <ele>1225.9</ele>
        <time>2021-08-23T08:12:15Z</time>
      </trkpt>
      <trkpt lat="45.09286" lon="2.69291">
        <ele>1226.3</ele>
        <time>2021-08-23T08:12:17Z</time>
      </trkpt>
      <trkpt lat="45.0929" lon="2.69289">
        <ele>1226.7</ele>
        <time>2021-08-23T08:12:19Z</time>
      </trkpt>
      <trkpt lat="45.09292" lon="2.69288">
        <ele>1226.9</ele>
        <time>2021-08-23T08:12:21Z</time>
      </trkpt>
      <trkpt lat="45.09295" lon="2.69288">
        <ele>1227.6</ele>
        <time>2021-08-23T08:12:23Z</time>
      </trkpt>
      <trkpt lat="45.09297" lon="2.69286">
        <ele>1227.7</ele>
        <time>2021-08-23T08:12:25Z</time>
      </trkpt>
      <trkpt lat="45.093" lon="2.69285">
        <ele>1228.1</ele>
        <time>2021-08-23T08:12:27Z</time>
      </trkpt>
      <trkpt lat="45.09303" lon="2.69282">
        <ele>1228.2</ele>
        <time>2021-08-23T08:12:29Z</time>
      </trkpt>
      <trkpt lat="45.09307" lon="2.69282">
        <ele>1229</ele>
        <time>2021-08-23T08:12:31Z</time>
      </trkpt>
      <trkpt lat="45.0931" lon="2.69282">
        <ele>1229.5</ele>
        <time>2021-08-23T08:12:33Z</time>
      </trkpt>
      <trkpt lat="45.09313" lon="2.6928">
        <ele>1229.8</ele>
        <time>2021-08-23T08:12:35Z</time>
      </trkpt>
      <trkpt lat="45.09317" lon="2.6928">
        <ele>1230.7</ele>
        <time>2021-08-23T08:12:37Z</time>
      </trkpt>
      <trkpt lat="45.09321" lon="2.69278">
        <ele>1231</ele>
        <time>2021-08-23T08:12:39Z</time>
      </trkpt>
      <trkpt lat="45.09325" lon="2.69276">
        <ele>1231.2</ele>
        <time>2021-08-23T08:12:41Z</time>
      </trkpt>
      <trkpt lat="45.09329" lon="2.69275">
        <ele>1231.9</ele>
        <time>2021-08-23T08:12:43Z</time>
      </trkpt>
      <trkpt lat="45.09333" lon="2.69275">
        <ele>1232.6</ele>
        <time>2021-08-23T08:12:45Z</time>
      </trkpt>
      <trkpt lat="45.09337" lon="2.69274">
        <ele>1233.4</ele>
        <time>2021-08-23T08:12:47Z</time>
      </trkpt>
      <trkpt lat="45.09341" lon="2.69273">
        <ele>1233.7</ele>
        <time>2021-08-23T08:12:49Z</time>
      </trkpt>
      <trkpt lat="45.09344" lon="2.69272">
        <ele>1234.3</ele>
        <time>2021-08-23T08:12:51Z</time>
      </trkpt>
      <trkpt lat="45.09348" lon="2.69269">
        <ele>1234.4</ele>
        <time>2021-08-23T08:12:53Z</time>
      </trkpt>
      <trkpt lat="45.09351" lon="2.69269">
        <ele>1235</ele>
        <time>2021-08-23T08:12:55Z</time>
      </trkpt>
      <trkpt lat="45.09355" lon="2.69267">
        <ele>1235.2</ele>
        <time>2021-08-23T08:12:57Z</time>
      </trkpt>
      <trkpt lat="45.09358" lon="2.69267">
        <ele>1236.2</ele>
        <time>2021-08-23T08:12:59Z</time>
      </trkpt>
      <trkpt lat="45.09362" lon="2.69265">
        <ele>1236.2</ele>
        <time>2021-08-23T08:13:01Z</time>
      </trkpt>
      <trkpt lat="45.09365" lon="2.69264">
        <ele>1236.8</ele>
        <time>2021-08-23T08:13:03Z</time>
      </trkpt>
      <trkpt lat="45.09368" lon="2.69262">
        <ele>1236.8</ele>
        <time>2021-08-23T08:13:05Z</time>
      </trkpt>
      <trkpt lat="45.09372" lon="2.69261">
        <ele>1237.2</ele>
        <time>2021-08-23T08:13:07Z</time>
      </trkpt>
      <trkpt lat="45.09375" lon="2.6926">
        <ele>1237.7</ele>
        <time>2021-08-23T08:13:09Z</time>
      </trkpt>
      <trkpt lat="45.09379" lon="2.69259">
        <ele>1238.4</ele>
        <time>2021-08-23T08:13:11Z</time>
      </trkpt>
      <trkpt lat="45.09382" lon="2.69257">
        <ele>1238.4</ele>
        <time>2021-08-23T08:13:13Z</time>
      </trkpt>
      <trkpt lat="45.09386" lon="2.69256">
        <ele>1238.9</ele>
        <time>2021-08-23T08:13:15Z</time>
      </trkpt>
      <trkpt lat="45.09389" lon="2.69255">
        <ele>1239.1</ele>
        <time>2021-08-23T08:13:17Z</time>
      </trkpt>
      <trkpt lat="45.09392" lon="2.69254">
        <ele>1239.7</ele>
        <time>2021-08-23T08:13:19Z</time>
      </trkpt>
      <trkpt lat="45.09396" lon="2.69254">
        <ele>1240.5</ele>
        <time>2021-08-23T08:13:21Z</time>
      </trkpt>
      <trkpt lat="45.094" lon="2.69253">
        <ele>1241.1</ele>
        <time>2021-08-23T08:13:23Z</time>
      </trkpt>
      <trkpt lat="45.09404" lon="2.69253">
        <ele>1241.8</ele>
        <time>2021-08-23T08:13:25Z</time>
      </trkpt>
      <trkpt lat="45.09406" lon="2.69253">
        <ele>1242.5</ele>
        <time>2021-08-23T08:13:27Z</time>
      </trkpt>
      <trkpt lat="45.0941" lon="2.69252">
        <ele>1243.3</ele>
        <time>2021-08-23T08:13:29Z</time>
      </trkpt>
      <trkpt lat="45.09414" lon="2.69252">
        <ele>1244</ele>
        <time>2021-08-23T08:13:31Z</time>
      </trkpt>
      <trkpt lat="45.09418" lon="2.69251">
        <ele>1244.7</ele>
        <time>2021-08-23T08:13:33Z</time>
      </trkpt>
      <trkpt lat="45.09421" lon="2.69251">
        <ele>1245.4</ele>
        <time>2021-08-23T08:13:35Z</time>
      </trkpt>
      <trkpt lat="45.09423" lon="2.69248">
        <ele>1246.3</ele>
        <time>2021-08-23T08:13:37Z</time>
      </trkpt>
      <trkpt lat="45.09427" lon="2.69246">
        <ele>1247.6</ele>
        <time>2021-08-23T08:13:39Z</time>
      </trkpt>
      <trkpt lat="45.0943" lon="2.69243">
        <ele>1249.1</ele>
        <time>2021-08-23T08:13:41Z</time>
      </trkpt>
      <trkpt lat="45.09433" lon="2.69239">
        <ele>1250.6</ele>
        <time>2021-08-23T08:13:43Z</time>
      </trkpt>
      <trkpt lat="45.09435" lon="2.69236">
        <ele>1251.5</ele>
        <time>2021-08-23T08:13:45Z</time>
      </trkpt>
      <trkpt lat="45.09437" lon="2.6923">
        <ele>1253</ele>
        <time>2021-08-23T08:13:47Z</time>
      </trkpt>
      <trkpt lat="45.09439" lon="2.69226">
        <ele>1254.1</ele>
        <time>2021-08-23T08:13:49Z</time>
      </trkpt>
      <trkpt lat="45.0944" lon="2.69222">
        <ele>1255</ele>
        <time>2021-08-23T08:13:51Z</time>
      </trkpt>
      <trkpt lat="45.0944" lon="2.69217">
        <ele>1255.8</ele>
        <time>2021-08-23T08:13:53Z</time>
      </trkpt>
      <trkpt lat="45.0944" lon="2.69212">
        <ele>1256.4</ele>
        <time>2021-08-23T08:13:55Z</time>
      </trkpt>
      <trkpt lat="45.09439" lon="2.69208">
        <ele>1256.5</ele>
        <time>2021-08-23T08:13:57Z</time>
      </trkpt>
      <trkpt lat="45.09437" lon="2.69204">
        <ele>1256.7</ele>
        <time>2021-08-23T08:13:59Z</time>
      </trkpt>
      <trkpt lat="45.09435" lon="2.692">
        <ele>1256.6</ele>
        <time>2021-08-23T08:14:01Z</time>
      </trkpt>
      <trkpt lat="45.09433" lon="2.69196">
        <ele>1256.4</ele>
        <time>2021-08-23T08:14:03Z</time>
      </trkpt>
      <trkpt lat="45.0943" lon="2.69192">
        <ele>1255.8</ele>
        <time>2021-08-23T08:14:05Z</time>
      </trkpt>
      <trkpt lat="45.09426" lon="2.6919">
        <ele>1254.7</ele>
        <time>2021-08-23T08:14:07Z</time>
      </trkpt>
      <trkpt lat="45.09423" lon="2.69187">
        <ele>1253.8</ele>
        <time>2021-08-23T08:14:09Z</time>
      </trkpt>
      <trkpt lat="45.09419" lon="2.69183">
        <ele>1252.9</ele>
        <time>2021-08-23T08:14:11Z</time>
      </trkpt>
      <trkpt lat="45.09415" lon="2.69181">
        <ele>1252</ele>
        <time>2021-08-23T08:14:13Z</time>
      </trkpt>
      <trkpt lat="45.09411" lon="2.69178">
        <ele>1251.1</ele>
        <time>2021-08-23T08:14:15Z</time>
      </trkpt>
      <trkpt lat="45.09408" lon="2.69175">
        <ele>1250.3</ele>
        <time>2021-08-23T08:14:17Z</time>
      </trkpt>
      <trkpt lat="45.09404" lon="2.69172">
        <ele>1249.6</ele>
        <time>2021-08-23T08:14:19Z</time>
      </trkpt>
      <trkpt lat="45.094" lon="2.69169">
        <ele>1248.7</ele>
        <time>2021-08-23T08:14:21Z</time>
      </trkpt>
      <trkpt lat="45.09397" lon="2.69166">
        <ele>1248.1</ele>
        <time>2021-08-23T08:14:23Z</time>
      </trkpt>
      <trkpt lat="45.09393" lon="2.69164">
        <ele>1248</ele>
        <time>2021-08-23T08:14:25Z</time>
      </trkpt>
      <trkpt lat="45.09389" lon="2.6916">
        <ele>1248.1</ele>
        <time>2021-08-23T08:14:27Z</time>
      </trkpt>
      <trkpt lat="45.09385" lon="2.69158">
        <ele>1248.1</ele>
        <time>2021-08-23T08:14:29Z</time>
      </trkpt>
      <trkpt lat="45.09381" lon="2.69155">
        <ele>1248</ele>
        <time>2021-08-23T08:14:31Z</time>
      </trkpt>
      <trkpt lat="45.09377" lon="2.69152">
        <ele>1247.8</ele>
        <time>2021-08-23T08:14:33Z</time>
      </trkpt>
      <trkpt lat="45.09373" lon="2.6915">
        <ele>1247.6</ele>
        <time>2021-08-23T08:14:35Z</time>
      </trkpt>
      <trkpt lat="45.0937" lon="2.69146">
        <ele>1247.7</ele>
        <time>2021-08-23T08:14:37Z</time>
      </trkpt>
      <trkpt lat="45.09366" lon="2.69143">
        <ele>1247.7</ele>
        <time>2021-08-23T08:14:39Z</time>
      </trkpt>
      <trkpt lat="45.09363" lon="2.6914">
        <ele>1247.7</ele>
        <time>2021-08-23T08:14:41Z</time>
      </trkpt>
      <trkpt lat="45.09359" lon="2.69137">
        <ele>1247.8</ele>
        <time>2021-08-23T08:14:43Z</time>
      </trkpt>
      <trkpt lat="45.09356" lon="2.69134">
        <ele>1248.1</ele>
        <time>2021-08-23T08:14:45Z</time>
      </trkpt>
      <trkpt lat="45.09353" lon="2.69131">
        <ele>1248.2</ele>
        <time>2021-08-23T08:14:47Z</time>
      </trkpt>
      <trkpt lat="45.0935" lon="2.69128">
        <ele>1248.4</ele>
        <time>2021-08-23T08:14:49Z</time>
      </trkpt>
      <trkpt lat="45.09348" lon="2.69124">
        <ele>1248.7</ele>
        <time>2021-08-23T08:14:51Z</time>
      </trkpt>
      <trkpt lat="45.09345" lon="2.69121">
        <ele>1249.1</ele>
        <time>2021-08-23T08:14:53Z</time>
      </trkpt>
      <trkpt lat="45.09342" lon="2.69117">
        <ele>1249.4</ele>
        <time>2021-08-23T08:14:55Z</time>
      </trkpt>
      <trkpt lat="45.0934" lon="2.69113">
        <ele>1250.1</ele>
        <time>2021-08-23T08:14:57Z</time>
      </trkpt>
      <trkpt lat="45.09338" lon="2.69108">
        <ele>1251.2</ele>
        <time>2021-08-23T08:14:59Z</time>
      </trkpt>
      <trkpt lat="45.09336" lon="2.69104">
        <ele>1251.7</ele>
        <time>2021-08-23T08:15:01Z</time>
      </trkpt>
      <trkpt lat="45.09333" lon="2.691">
        <ele>1252.2</ele>
        <time>2021-08-23T08:15:03Z</time>
      </trkpt>
      <trkpt lat="45.09332" lon="2.69095">
        <ele>1253</ele>
        <time>2021-08-23T08:15:05Z</time>
      </trkpt>
      <trkpt lat="45.09329" lon="2.69091">
        <ele>1253.4</ele>
        <time>2021-08-23T08:15:07Z</time>
      </trkpt>
      <trkpt lat="45.09327" lon="2.69088">
        <ele>1253.5</ele>
        <time>2021-08-23T08:15:09Z</time>
      </trkpt>
      <trkpt lat="45.09325" lon="2.69083">
        <ele>1253.9</ele>
        <time>2021-08-23T08:15:11Z</time>
      </trkpt>
      <trkpt lat="45.09324" lon="2.69078">
        <ele>1254</ele>
        <time>2021-08-23T08:15:13Z</time>
      </trkpt>
      <trkpt lat="45.09322" lon="2.69074">
        <ele>1253.6</ele>
        <time>2021-08-23T08:15:15Z</time>
      </trkpt>
      <trkpt lat="45.09321" lon="2.69069">
        <ele>1253.7</ele>
        <time>2021-08-23T08:15:17Z</time>
      </trkpt>
      <trkpt lat="45.0932" lon="2.69064">
        <ele>1253.9</ele>
        <time>2021-08-23T08:15:19Z</time>
      </trkpt>
      <trkpt lat="45.09319" lon="2.69058">
        <ele>1254.5</ele>
        <time>2021-08-23T08:15:21Z</time>
      </trkpt>
      <trkpt lat="45.09318" lon="2.69053">
        <ele>1254.5</ele>
        <time>2021-08-23T08:15:23Z</time>
      </trkpt>
      <trkpt lat="45.09317" lon="2.69048">
        <ele>1255</ele>
        <time>2021-08-23T08:15:25Z</time>
      </trkpt>
      <trkpt lat="45.09316" lon="2.69042">
        <ele>1255.6</ele>
        <time>2021-08-23T08:15:27Z</time>
      </trkpt>
      <trkpt lat="45.09316" lon="2.69036">
        <ele>1256.2</ele>
        <time>2021-08-23T08:15:29Z</time>
      </trkpt>
      <trkpt lat="45.09316" lon="2.69031">
        <ele>1256.9</ele>
        <time>2021-08-23T08:15:31Z</time>
      </trkpt>
      <trkpt lat="45.09315" lon="2.69026">
        <ele>1257.3</ele>
        <time>2021-08-23T08:15:33Z</time>
      </trkpt>
      <trkpt lat="45.09316" lon="2.6902">
        <ele>1258.5</ele>
        <time>2021-08-23T08:15:35Z</time>
      </trkpt>
      <trkpt lat="45.09315" lon="2.69015">
        <ele>1258.9</ele>
        <time>2021-08-23T08:15:37Z</time>
      </trkpt>
      <trkpt lat="45.09317" lon="2.6901">
        <ele>1260.3</ele>
        <time>2021-08-23T08:15:39Z</time>
      </trkpt>
      <trkpt lat="45.09316" lon="2.69004">
        <ele>1260.9</ele>
        <time>2021-08-23T08:15:41Z</time>
      </trkpt>
      <trkpt lat="45.09316" lon="2.68999">
        <ele>1261.7</ele>
        <time>2021-08-23T08:15:43Z</time>
      </trkpt>
      <trkpt lat="45.09316" lon="2.68994">
        <ele>1261.4</ele>
        <time>2021-08-23T08:15:45Z</time>
      </trkpt>
      <trkpt lat="45.09315" lon="2.68989">
        <ele>1261.1</ele>
        <time>2021-08-23T08:15:47Z</time>
      </trkpt>
      <trkpt lat="45.09314" lon="2.68983">
        <ele>1260.9</ele>
        <time>2021-08-23T08:15:49Z</time>
      </trkpt>
      <trkpt lat="45.09315" lon="2.68977">
        <ele>1261.1</ele>
        <time>2021-08-23T08:15:51Z</time>
      </trkpt>
      <trkpt lat="45.09314" lon="2.68973">
        <ele>1261</ele>
        <time>2021-08-23T08:15:53Z</time>
      </trkpt>
      <trkpt lat="45.09314" lon="2.68968">
        <ele>1261</ele>
        <time>2021-08-23T08:15:55Z</time>
      </trkpt>
      <trkpt lat="45.09314" lon="2.68964">
        <ele>1260.9</ele>
        <time>2021-08-23T08:15:57Z</time>
      </trkpt>
      <trkpt lat="45.09314" lon="2.68958">
        <ele>1261.2</ele>
        <time>2021-08-23T08:15:59Z</time>
      </trkpt>
      <trkpt lat="45.09314" lon="2.68954">
        <ele>1261.3</ele>
        <time>2021-08-23T08:16:01Z</time>
      </trkpt>
      <trkpt lat="45.09315" lon="2.68948">
        <ele>1262</ele>
        <time>2021-08-23T08:16:03Z</time>
      </trkpt>
      <trkpt lat="45.09317" lon="2.68943">
        <ele>1262.8</ele>
        <time>2021-08-23T08:16:05Z</time>
      </trkpt>
      <trkpt lat="45.09319" lon="2.68937">
        <ele>1263.7</ele>
        <time>2021-08-23T08:16:07Z</time>
      </trkpt>
      <trkpt lat="45.09321" lon="2.68933">
        <ele>1264.8</ele>
        <time>2021-08-23T08:16:09Z</time>
      </trkpt>
      <trkpt lat="45.09323" lon="2.68929">
        <ele>1266.1</ele>
        <time>2021-08-23T08:16:11Z</time>
      </trkpt>
      <trkpt lat="45.09326" lon="2.68925">
        <ele>1267.5</ele>
        <time>2021-08-23T08:16:13Z</time>
      </trkpt>
      <trkpt lat="45.09328" lon="2.68921">
        <ele>1268.6</ele>
        <time>2021-08-23T08:16:15Z</time>
      </trkpt>
      <trkpt lat="45.09331" lon="2.68917">
        <ele>1269.8</ele>
        <time>2021-08-23T08:16:17Z</time>
      </trkpt>
      <trkpt lat="45.09333" lon="2.68912">
        <ele>1271.2</ele>
        <time>2021-08-23T08:16:19Z</time>
      </trkpt>
      <trkpt lat="45.09334" lon="2.68907">
        <ele>1272.5</ele>
        <time>2021-08-23T08:16:21Z</time>
      </trkpt>
      <trkpt lat="45.09335" lon="2.68902">
        <ele>1273.3</ele>
        <time>2021-08-23T08:16:23Z</time>
      </trkpt>
      <trkpt lat="45.09336" lon="2.68896">
        <ele>1274.1</ele>
        <time>2021-08-23T08:16:25Z</time>
      </trkpt>
      <trkpt lat="45.09336" lon="2.68891">
        <ele>1274.7</ele>
        <time>2021-08-23T08:16:27Z</time>
      </trkpt>
      <trkpt lat="45.09336" lon="2.68887">
        <ele>1275.3</ele>
        <time>2021-08-23T08:16:29Z</time>
      </trkpt>
      <trkpt lat="45.09336" lon="2.68882">
        <ele>1275.5</ele>
        <time>2021-08-23T08:16:31Z</time>
      </trkpt>
      <trkpt lat="45.09335" lon="2.68877">
        <ele>1275.6</ele>
        <time>2021-08-23T08:16:33Z</time>
      </trkpt>
      <trkpt lat="45.09335" lon="2.68872">
        <ele>1275.9</ele>
        <time>2021-08-23T08:16:35Z</time>
      </trkpt>
      <trkpt lat="45.09334" lon="2.68867">
        <ele>1276</ele>
        <time>2021-08-23T08:16:37Z</time>
      </trkpt>
      <trkpt lat="45.09334" lon="2.68863">
        <ele>1276.3</ele>
        <time>2021-08-23T08:16:39Z</time>
      </trkpt>
      <trkpt lat="45.09333" lon="2.68858">
        <ele>1276.4</ele>
        <time>2021-08-23T08:16:41Z</time>
      </trkpt>
      <trkpt lat="45.09332" lon="2.68854">
        <ele>1276.5</ele>
        <time>2021-08-23T08:16:43Z</time>
      </trkpt>
      <trkpt lat="45.09331" lon="2.6885">
        <ele>1276.7</ele>
        <time>2021-08-23T08:16:45Z</time>
      </trkpt>
      <trkpt lat="45.09331" lon="2.68844">
        <ele>1277</ele>
        <time>2021-08-23T08:16:47Z</time>
      </trkpt>
      <trkpt lat="45.0933" lon="2.68839">
        <ele>1277.1</ele>
        <time>2021-08-23T08:16:49Z</time>
      </trkpt>
      <trkpt lat="45.09329" lon="2.68834">
        <ele>1277.4</ele>
        <time>2021-08-23T08:16:51Z</time>
      </trkpt>
      <trkpt lat="45.09327" lon="2.6883">
        <ele>1277.6</ele>
        <time>2021-08-23T08:16:53Z</time>
      </trkpt>
      <trkpt lat="45.09325" lon="2.68826">
        <ele>1277.9</ele>
        <time>2021-08-23T08:16:55Z</time>
      </trkpt>
      <trkpt lat="45.09324" lon="2.68822">
        <ele>1278.4</ele>
        <time>2021-08-23T08:16:57Z</time>
      </trkpt>
      <trkpt lat="45.09322" lon="2.68817">
        <ele>1278.8</ele>
        <time>2021-08-23T08:16:59Z</time>
      </trkpt>
      <trkpt lat="45.0932" lon="2.68813">
        <ele>1279</ele>
        <time>2021-08-23T08:17:01Z</time>
      </trkpt>
      <trkpt lat="45.09318" lon="2.68809">
        <ele>1279.6</ele>
        <time>2021-08-23T08:17:03Z</time>
      </trkpt>
      <trkpt lat="45.09316" lon="2.68806">
        <ele>1279.6</ele>
        <time>2021-08-23T08:17:05Z</time>
      </trkpt>
      <trkpt lat="45.09313" lon="2.68802">
        <ele>1279.6</ele>
        <time>2021-08-23T08:17:07Z</time>
      </trkpt>
      <trkpt lat="45.09311" lon="2.68799">
        <ele>1279.4</ele>
        <time>2021-08-23T08:17:09Z</time>
      </trkpt>
      <trkpt lat="45.09308" lon="2.68796">
        <ele>1279.2</ele>
        <time>2021-08-23T08:17:11Z</time>
      </trkpt>
      <trkpt lat="45.09305" lon="2.68794">
        <ele>1278.8</ele>
        <time>2021-08-23T08:17:13Z</time>
      </trkpt>
      <trkpt lat="45.09302" lon="2.68792">
        <ele>1278.2</ele>
        <time>2021-08-23T08:17:15Z</time>
      </trkpt>
      <trkpt lat="45.09299" lon="2.6879">
        <ele>1277.6</ele>
        <time>2021-08-23T08:17:17Z</time>
      </trkpt>
      <trkpt lat="45.09295" lon="2.68789">
        <ele>1276.6</ele>
        <time>2021-08-23T08:17:19Z</time>
      </trkpt>
      <trkpt lat="45.09292" lon="2.68787">
        <ele>1275.8</ele>
        <time>2021-08-23T08:17:21Z</time>
      </trkpt>
      <trkpt lat="45.09289" lon="2.68785">
        <ele>1275.1</ele>
        <time>2021-08-23T08:17:23Z</time>
      </trkpt>
      <trkpt lat="45.09285" lon="2.68784">
        <ele>1274.2</ele>
        <time>2021-08-23T08:17:25Z</time>
      </trkpt>
      <trkpt lat="45.09282" lon="2.68782">
        <ele>1273.5</ele>
        <time>2021-08-23T08:17:27Z</time>
      </trkpt>
      <trkpt lat="45.09278" lon="2.68781">
        <ele>1272.5</ele>
        <time>2021-08-23T08:17:29Z</time>
      </trkpt>
      <trkpt lat="45.09275" lon="2.6878">
        <ele>1271.5</ele>
        <time>2021-08-23T08:17:31Z</time>
      </trkpt>
      <trkpt lat="45.09271" lon="2.68779">
        <ele>1270.6</ele>
        <time>2021-08-23T08:17:33Z</time>
      </trkpt>
      <trkpt lat="45.09268" lon="2.68776">
        <ele>1270.1</ele>
        <time>2021-08-23T08:17:35Z</time>
      </trkpt>
      <trkpt lat="45.09265" lon="2.68775">
        <ele>1269.4</ele>
        <time>2021-08-23T08:17:37Z</time>
      </trkpt>
      <trkpt lat="45.09261" lon="2.68772">
        <ele>1269</ele>
        <time>2021-08-23T08:17:39Z</time>
      </trkpt>
      <trkpt lat="45.0926" lon="2.68769">
        <ele>1269.3</ele>
        <time>2021-08-23T08:17:41Z</time>
      </trkpt>
      <trkpt lat="45.09257" lon="2.68765">
        <ele>1269.6</ele>
        <time>2021-08-23T08:17:43Z</time>
      </trkpt>
      <trkpt lat="45.09255" lon="2.68759">
        <ele>1270.3</ele>
        <time>2021-08-23T08:17:45Z</time>
      </trkpt>
      <trkpt lat="45.09254" lon="2.68754">
        <ele>1271.3</ele>
        <time>2021-08-23T08:17:47Z</time>
      </trkpt>
      <trkpt lat="45.09252" lon="2.68749">
        <ele>1271.9</ele>
        <time>2021-08-23T08:17:49Z</time>
      </trkpt>
      <trkpt lat="45.09251" lon="2.68744">
        <ele>1272.3</ele>
        <time>2021-08-23T08:17:51Z</time>
      </trkpt>
      <trkpt lat="45.09251" lon="2.68739">
        <ele>1272.8</ele>
        <time>2021-08-23T08:17:53Z</time>
      </trkpt>
      <trkpt lat="45.0925" lon="2.68734">
        <ele>1273.4</ele>
        <time>2021-08-23T08:17:55Z</time>
      </trkpt>
      <trkpt lat="45.0925" lon="2.68729">
        <ele>1273.9</ele>
        <time>2021-08-23T08:17:57Z</time>
      </trkpt>
      <trkpt lat="45.0925" lon="2.68723">
        <ele>1274.6</ele>
        <time>2021-08-23T08:17:59Z</time>
      </trkpt>
      <trkpt lat="45.0925" lon="2.68718">
        <ele>1275.4</ele>
        <time>2021-08-23T08:18:01Z</time>
      </trkpt>
      <trkpt lat="45.09248" lon="2.68712">
        <ele>1275.5</ele>
        <time>2021-08-23T08:18:03Z</time>
      </trkpt>
      <trkpt lat="45.09248" lon="2.68707">
        <ele>1276.3</ele>
        <time>2021-08-23T08:18:05Z</time>
      </trkpt>
      <trkpt lat="45.09248" lon="2.68701">
        <ele>1277</ele>
        <time>2021-08-23T08:18:07Z</time>
      </trkpt>
      <trkpt lat="45.09249" lon="2.68696">
        <ele>1278.2</ele>
        <time>2021-08-23T08:18:09Z</time>
      </trkpt>
      <trkpt lat="45.09248" lon="2.68691">
        <ele>1278.7</ele>
        <time>2021-08-23T08:18:11Z</time>
      </trkpt>
      <trkpt lat="45.09248" lon="2.68685">
        <ele>1279.5</ele>
        <time>2021-08-23T08:18:13Z</time>
      </trkpt>
      <trkpt lat="45.09249" lon="2.6868">
        <ele>1280.6</ele>
        <time>2021-08-23T08:18:15Z</time>
      </trkpt>
      <trkpt lat="45.0925" lon="2.68676">
        <ele>1281.8</ele>
        <time>2021-08-23T08:18:17Z</time>
      </trkpt>
      <trkpt lat="45.09251" lon="2.6867">
        <ele>1282.9</ele>
        <time>2021-08-23T08:18:19Z</time>
      </trkpt>
      <trkpt lat="45.09252" lon="2.68665">
        <ele>1284.1</ele>
        <time>2021-08-23T08:18:21Z</time>
      </trkpt>
      <trkpt lat="45.09253" lon="2.6866">
        <ele>1285.3</ele>
        <time>2021-08-23T08:18:23Z</time>
      </trkpt>
      <trkpt lat="45.09254" lon="2.68655">
        <ele>1286.2</ele>
        <time>2021-08-23T08:18:25Z</time>
      </trkpt>
      <trkpt lat="45.09254" lon="2.68649">
        <ele>1287.1</ele>
        <time>2021-08-23T08:18:27Z</time>
      </trkpt>
      <trkpt lat="45.09254" lon="2.68644">
        <ele>1287.7</ele>
        <time>2021-08-23T08:18:29Z</time>
      </trkpt>
      <trkpt lat="45.09253" lon="2.68639">
        <ele>1288.2</ele>
        <time>2021-08-23T08:18:31Z</time>
      </trkpt>
      <trkpt lat="45.09252" lon="2.68635">
        <ele>1288.2</ele>
        <time>2021-08-23T08:18:33Z</time>
      </trkpt>
      <trkpt lat="45.0925" lon="2.68631">
        <ele>1288.2</ele>
        <time>2021-08-23T08:18:35Z</time>
      </trkpt>
      <trkpt lat="45.09248" lon="2.68628">
        <ele>1287.5</ele>
        <time>2021-08-23T08:18:37Z</time>
      </trkpt>
      <trkpt lat="45.09246" lon="2.68623">
        <ele>1287.1</ele>
        <time>2021-08-23T08:18:39Z</time>
      </trkpt>
      <trkpt lat="45.09244" lon="2.6862">
        <ele>1286.4</ele>
        <time>2021-08-23T08:18:41Z</time>
      </trkpt>
      <trkpt lat="45.09242" lon="2.68616">
        <ele>1285.7</ele>
        <time>2021-08-23T08:18:43Z</time>
      </trkpt>
      <trkpt lat="45.0924" lon="2.68612">
        <ele>1285.1</ele>
        <time>2021-08-23T08:18:45Z</time>
      </trkpt>
      <trkpt lat="45.09238" lon="2.68606">
        <ele>1285.3</ele>
        <time>2021-08-23T08:18:47Z</time>
      </trkpt>
      <trkpt lat="45.09238" lon="2.68601">
        <ele>1285.6</ele>
        <time>2021-08-23T08:18:49Z</time>
      </trkpt>
      <trkpt lat="45.09237" lon="2.68596">
        <ele>1285.9</ele>
        <time>2021-08-23T08:18:51Z</time>
      </trkpt>
      <trkpt lat="45.09237" lon="2.68591">
        <ele>1286.4</ele>
        <time>2021-08-23T08:18:53Z</time>
      </trkpt>
      <trkpt lat="45.09236" lon="2.68585">
        <ele>1287</ele>
        <time>2021-08-23T08:18:55Z</time>
      </trkpt>
      <trkpt lat="45.09235" lon="2.6858">
        <ele>1287.1</ele>
        <time>2021-08-23T08:18:57Z</time>
      </trkpt>
      <trkpt lat="45.09235" lon="2.68575">
        <ele>1287.3</ele>
        <time>2021-08-23T08:18:59Z</time>
      </trkpt>
      <trkpt lat="45.09235" lon="2.6857">
        <ele>1287.7</ele>
        <time>2021-08-23T08:19:01Z</time>
      </trkpt>
      <trkpt lat="45.09234" lon="2.68566">
        <ele>1287.8</ele>
        <time>2021-08-23T08:19:03Z</time>
      </trkpt>
      <trkpt lat="45.09233" lon="2.68561">
        <ele>1288.1</ele>
        <time>2021-08-23T08:19:05Z</time>
      </trkpt>
      <trkpt lat="45.09233" lon="2.68556">
        <ele>1288.2</ele>
        <time>2021-08-23T08:19:07Z</time>
      </trkpt>
      <trkpt lat="45.09231" lon="2.68552">
        <ele>1287.7</ele>
        <time>2021-08-23T08:19:09Z</time>
      </trkpt>
      <trkpt lat="45.0923" lon="2.68546">
        <ele>1288</ele>
        <time>2021-08-23T08:19:11Z</time>
      </trkpt>
      <trkpt lat="45.0923" lon="2.68542">
        <ele>1288.1</ele>
        <time>2021-08-23T08:19:13Z</time>
      </trkpt>
      <trkpt lat="45.09229" lon="2.68536">
        <ele>1288.4</ele>
        <time>2021-08-23T08:19:15Z</time>
      </trkpt>
      <trkpt lat="45.09228" lon="2.68531">
        <ele>1288.5</ele>
        <time>2021-08-23T08:19:17Z</time>
      </trkpt>
      <trkpt lat="45.09227" lon="2.68526">
        <ele>1288.4</ele>
        <time>2021-08-23T08:19:19Z</time>
      </trkpt>
      <trkpt lat="45.09226" lon="2.68521">
        <ele>1288.2</ele>
        <time>2021-08-23T08:19:21Z</time>
      </trkpt>
      <trkpt lat="45.09225" lon="2.68516">
        <ele>1287.9</ele>
        <time>2021-08-23T08:19:23Z</time>
      </trkpt>
      <trkpt lat="45.09225" lon="2.68511">
        <ele>1288.7</ele>
        <time>2021-08-23T08:19:25Z</time>
      </trkpt>
      <trkpt lat="45.09225" lon="2.68506">
        <ele>1289.2</ele>
        <time>2021-08-23T08:19:27Z</time>
      </trkpt>
      <trkpt lat="45.09224" lon="2.68502">
        <ele>1289.3</ele>
        <time>2021-08-23T08:19:29Z</time>
      </trkpt>
      <trkpt lat="45.09224" lon="2.68496">
        <ele>1289.3</ele>
        <time>2021-08-23T08:19:31Z</time>
      </trkpt>
      <trkpt lat="45.09224" lon="2.68491">
        <ele>1289</ele>
        <time>2021-08-23T08:19:33Z</time>
      </trkpt>
      <trkpt lat="45.09223" lon="2.68486">
        <ele>1288.6</ele>
        <time>2021-08-23T08:19:35Z</time>
      </trkpt>
      <trkpt lat="45.09223" lon="2.68481">
        <ele>1288.3</ele>
        <time>2021-08-23T08:19:37Z</time>
      </trkpt>
      <trkpt lat="45.09223" lon="2.68476">
        <ele>1288</ele>
        <time>2021-08-23T08:19:39Z</time>
      </trkpt>
      <trkpt lat="45.09224" lon="2.68471">
        <ele>1288.2</ele>
        <time>2021-08-23T08:19:41Z</time>
      </trkpt>
      <trkpt lat="45.09225" lon="2.68467">
        <ele>1289</ele>
        <time>2021-08-23T08:19:43Z</time>
      </trkpt>
      <trkpt lat="45.09224" lon="2.68461">
        <ele>1288.2</ele>
        <time>2021-08-23T08:19:45Z</time>
      </trkpt>
      <trkpt lat="45.09224" lon="2.68456">
        <ele>1288</ele>
        <time>2021-08-23T08:19:47Z</time>
      </trkpt>
      <trkpt lat="45.09224" lon="2.68451">
        <ele>1287.9</ele>
        <time>2021-08-23T08:19:49Z</time>
      </trkpt>
      <trkpt lat="45.09225" lon="2.68446">
        <ele>1288</ele>
        <time>2021-08-23T08:19:51Z</time>
      </trkpt>
      <trkpt lat="45.09225" lon="2.68441">
        <ele>1288.1</ele>
        <time>2021-08-23T08:19:53Z</time>
      </trkpt>
      <trkpt lat="45.09226" lon="2.68437">
        <ele>1288.2</ele>
        <time>2021-08-23T08:19:55Z</time>
      </trkpt>
      <trkpt lat="45.09227" lon="2.68432">
        <ele>1288.5</ele>
        <time>2021-08-23T08:19:57Z</time>
      </trkpt>
      <trkpt lat="45.09228" lon="2.68427">
        <ele>1288.8</ele>
        <time>2021-08-23T08:19:59Z</time>
      </trkpt>
      <trkpt lat="45.09229" lon="2.68423">
        <ele>1289</ele>
        <time>2021-08-23T08:20:01Z</time>
      </trkpt>
      <trkpt lat="45.0923" lon="2.68418">
        <ele>1289.3</ele>
        <time>2021-08-23T08:20:03Z</time>
      </trkpt>
      <trkpt lat="45.09231" lon="2.68414">
        <ele>1289.4</ele>
        <time>2021-08-23T08:20:05Z</time>
      </trkpt>
      <trkpt lat="45.09233" lon="2.6841">
        <ele>1289.9</ele>
        <time>2021-08-23T08:20:07Z</time>
      </trkpt>
      <trkpt lat="45.09234" lon="2.68405">
        <ele>1290</ele>
        <time>2021-08-23T08:20:09Z</time>
      </trkpt>
      <trkpt lat="45.09236" lon="2.68401">
        <ele>1290.5</ele>
        <time>2021-08-23T08:20:11Z</time>
      </trkpt>
      <trkpt lat="45.09237" lon="2.68397">
        <ele>1290.7</ele>
        <time>2021-08-23T08:20:13Z</time>
      </trkpt>
      <trkpt lat="45.09239" lon="2.68392">
        <ele>1291.2</ele>
        <time>2021-08-23T08:20:15Z</time>
      </trkpt>
      <trkpt lat="45.09241" lon="2.68387">
        <ele>1291.3</ele>
        <time>2021-08-23T08:20:17Z</time>
      </trkpt>
      <trkpt lat="45.09242" lon="2.68382">
        <ele>1291.4</ele>
        <time>2021-08-23T08:20:19Z</time>
      </trkpt>
      <trkpt lat="45.09244" lon="2.68379">
        <ele>1291.8</ele>
        <time>2021-08-23T08:20:21Z</time>
      </trkpt>
      <trkpt lat="45.09246" lon="2.68374">
        <ele>1292.3</ele>
        <time>2021-08-23T08:20:23Z</time>
      </trkpt>
      <trkpt lat="45.09249" lon="2.68371">
        <ele>1292.9</ele>
        <time>2021-08-23T08:20:25Z</time>
      </trkpt>
      <trkpt lat="45.09251" lon="2.68367">
        <ele>1293.1</ele>
        <time>2021-08-23T08:20:27Z</time>
      </trkpt>
      <trkpt lat="45.09253" lon="2.68364">
        <ele>1292.7</ele>
        <time>2021-08-23T08:20:29Z</time>
      </trkpt>
      <trkpt lat="45.09255" lon="2.68359">
        <ele>1292.2</ele>
        <time>2021-08-23T08:20:31Z</time>
      </trkpt>
      <trkpt lat="45.09258" lon="2.68356">
        <ele>1291.8</ele>
        <time>2021-08-23T08:20:33Z</time>
      </trkpt>
      <trkpt lat="45.09261" lon="2.68353">
        <ele>1291.4</ele>
        <time>2021-08-23T08:20:35Z</time>
      </trkpt>
      <trkpt lat="45.09263" lon="2.68349">
        <ele>1290.9</ele>
        <time>2021-08-23T08:20:37Z</time>
      </trkpt>
      <trkpt lat="45.09266" lon="2.68346">
        <ele>1290.5</ele>
        <time>2021-08-23T08:20:39Z</time>
      </trkpt>
      <trkpt lat="45.09269" lon="2.68342">
        <ele>1290</ele>
        <time>2021-08-23T08:20:41Z</time>
      </trkpt>
      <trkpt lat="45.09271" lon="2.68339">
        <ele>1289.6</ele>
        <time>2021-08-23T08:20:43Z</time>
      </trkpt>
      <trkpt lat="45.09274" lon="2.68336">
        <ele>1289.1</ele>
        <time>2021-08-23T08:20:45Z</time>
      </trkpt>
      <trkpt lat="45.09277" lon="2.68333">
        <ele>1288.6</ele>
        <time>2021-08-23T08:20:47Z</time>
      </trkpt>
      <trkpt lat="45.09281" lon="2.68332">
        <ele>1288.1</ele>
        <time>2021-08-23T08:20:49Z</time>
      </trkpt>
      <trkpt lat="45.09284" lon="2.6833">
        <ele>1287.5</ele>
        <time>2021-08-23T08:20:51Z</time>
      </trkpt>
      <trkpt lat="45.09287" lon="2.68329">
        <ele>1287.2</ele>
        <time>2021-08-23T08:20:53Z</time>
      </trkpt>
      <trkpt lat="45.09291" lon="2.68328">
        <ele>1287</ele>
        <time>2021-08-23T08:20:55Z</time>
      </trkpt>
      <trkpt lat="45.09295" lon="2.68328">
        <ele>1286.8</ele>
        <time>2021-08-23T08:20:57Z</time>
      </trkpt>
      <trkpt lat="45.09298" lon="2.68329">
        <ele>1287</ele>
        <time>2021-08-23T08:20:59Z</time>
      </trkpt>
      <trkpt lat="45.09302" lon="2.68331">
        <ele>1287.5</ele>
        <time>2021-08-23T08:21:01Z</time>
      </trkpt>
      <trkpt lat="45.09305" lon="2.68332">
        <ele>1288</ele>
        <time>2021-08-23T08:21:03Z</time>
      </trkpt>
      <trkpt lat="45.09308" lon="2.68335">
        <ele>1288.6</ele>
        <time>2021-08-23T08:21:05Z</time>
      </trkpt>
      <trkpt lat="45.09311" lon="2.68338">
        <ele>1289</ele>
        <time>2021-08-23T08:21:07Z</time>
      </trkpt>
      <trkpt lat="45.09314" lon="2.68342">
        <ele>1289.7</ele>
        <time>2021-08-23T08:21:09Z</time>
      </trkpt>
      <trkpt lat="45.09316" lon="2.68345">
        <ele>1290.3</ele>
        <time>2021-08-23T08:21:11Z</time>
      </trkpt>
      <trkpt lat="45.09318" lon="2.6835">
        <ele>1291.1</ele>
        <time>2021-08-23T08:21:13Z</time>
      </trkpt>
      <trkpt lat="45.0932" lon="2.68354">
        <ele>1291.8</ele>
        <time>2021-08-23T08:21:15Z</time>
      </trkpt>
      <trkpt lat="45.09323" lon="2.68358">
        <ele>1292.6</ele>
        <time>2021-08-23T08:21:17Z</time>
      </trkpt>
      <trkpt lat="45.09325" lon="2.68362">
        <ele>1293.4</ele>
        <time>2021-08-23T08:21:19Z</time>
      </trkpt>
      <trkpt lat="45.09327" lon="2.68366">
        <ele>1294.3</ele>
        <time>2021-08-23T08:21:21Z</time>
      </trkpt>
      <trkpt lat="45.09329" lon="2.6837">
        <ele>1295</ele>
        <time>2021-08-23T08:21:23Z</time>
      </trkpt>
      <trkpt lat="45.09331" lon="2.68374">
        <ele>1295.8</ele>
        <time>2021-08-23T08:21:25Z</time>
      </trkpt>
      <trkpt lat="45.09334" lon="2.68378">
        <ele>1296.4</ele>
        <time>2021-08-23T08:21:27Z</time>
      </trkpt>
      <trkpt lat="45.09336" lon="2.68382">
        <ele>1296.6</ele>
        <time>2021-08-23T08:21:29Z</time>
      </trkpt>
      <trkpt lat="45.09339" lon="2.68385">
        <ele>1296.7</ele>
        <time>2021-08-23T08:21:31Z</time>
      </trkpt>
      <trkpt lat="45.09342" lon="2.68388">
        <ele>1296.7</ele>
        <time>2021-08-23T08:21:33Z</time>
      </trkpt>
      <trkpt lat="45.09344" lon="2.68392">
        <ele>1296.9</ele>
        <time>2021-08-23T08:21:35Z</time>
      </trkpt>
      <trkpt lat="45.09347" lon="2.68395">
        <ele>1297</ele>
        <time>2021-08-23T08:21:37Z</time>
      </trkpt>
      <trkpt lat="45.09349" lon="2.68398">
        <ele>1297.2</ele>
        <time>2021-08-23T08:21:39Z</time>
      </trkpt>
      <trkpt lat="45.09352" lon="2.68402">
        <ele>1297.4</ele>
        <time>2021-08-23T08:21:41Z</time>
      </trkpt>
      <trkpt lat="45.09354" lon="2.68405">
        <ele>1297.7</ele>
        <time>2021-08-23T08:21:43Z</time>
      </trkpt>
      <trkpt lat="45.09357" lon="2.68409">
        <ele>1298.1</ele>
        <time>2021-08-23T08:21:45Z</time>
      </trkpt>
      <trkpt lat="45.09359" lon="2.68412">
        <ele>1298.4</ele>
        <time>2021-08-23T08:21:47Z</time>
      </trkpt>
      <trkpt lat="45.09361" lon="2.68417">
        <ele>1299</ele>
        <time>2021-08-23T08:21:49Z</time>
      </trkpt>
      <trkpt lat="45.09362" lon="2.68421">
        <ele>1299.6</ele>
        <time>2021-08-23T08:21:51Z</time>
      </trkpt>
      <trkpt lat="45.09364" lon="2.68426">
        <ele>1300.1</ele>
        <time>2021-08-23T08:21:53Z</time>
      </trkpt>
      <trkpt lat="45.09365" lon="2.68431">
        <ele>1300.6</ele>
        <time>2021-08-23T08:21:55Z</time>
      </trkpt>
      <trkpt lat="45.09366" lon="2.68435">
        <ele>1301.2</ele>
        <time>2021-08-23T08:21:57Z</time>
      </trkpt>
      <trkpt lat="45.09367" lon="2.6844">
        <ele>1301.9</ele>
        <time>2021-08-23T08:21:59Z</time>
      </trkpt>
      <trkpt lat="45.09368" lon="2.68445">
        <ele>1302.6</ele>
        <time>2021-08-23T08:22:01Z</time>
      </trkpt>
      <trkpt lat="45.09368" lon="2.6845">
        <ele>1303.3</ele>
        <time>2021-08-23T08:22:03Z</time>
      </trkpt>
      <trkpt lat="45.09369" lon="2.68455">
        <ele>1304</ele>
        <time>2021-08-23T08:22:05Z</time>
      </trkpt>
      <trkpt lat="45.0937" lon="2.68459">
        <ele>1304.7</ele>
        <time>2021-08-23T08:22:07Z</time>
      </trkpt>
      <trkpt lat="45.09371" lon="2.68464">
        <ele>1305.3</ele>
        <time>2021-08-23T08:22:09Z</time>
      </trkpt>
      <trkpt lat="45.09372" lon="2.68468">
        <ele>1306</ele>
        <time>2021-08-23T08:22:11Z</time>
      </trkpt>
      <trkpt lat="45.09373" lon="2.68473">
        <ele>1306.7</ele>
        <time>2021-08-23T08:22:13Z</time>
      </trkpt>
      <trkpt lat="45.09374" lon="2.68478">
        <ele>1307.2</ele>
        <time>2021-08-23T08:22:15Z</time>
      </trkpt>
      <trkpt lat="45.09375" lon="2.68482">
        <ele>1307.8</ele>
        <time>2021-08-23T08:22:17Z</time>
      </trkpt>
      <trkpt lat="45.09377" lon="2.68486">
        <ele>1308.3</ele>
        <time>2021-08-23T08:22:19Z</time>
      </trkpt>
      <trkpt lat="45.09379" lon="2.6849">
        <ele>1308.8</ele>
        <time>2021-08-23T08:22:21Z</time>
      </trkpt>
      <trkpt lat="45.09381" lon="2.68495">
        <ele>1309.3</ele>
        <time>2021-08-23T08:22:23Z</time>
      </trkpt>
      <trkpt lat="45.09383" lon="2.68498">
        <ele>1309.7</ele>
        <time>2021-08-23T08:22:25Z</time>
      </trkpt>
      <trkpt lat="45.09385" lon="2.68502">
        <ele>1310.1</ele>
        <time>2021-08-23T08:22:27Z</time>
      </trkpt>
      <trkpt lat="45.09387" lon="2.68504">
        <ele>1310.2</ele>
        <time>2021-08-23T08:22:29Z</time>
      </trkpt>
      <trkpt lat="45.0939" lon="2.68508">
        <ele>1310.4</ele>
        <time>2021-08-23T08:22:31Z</time>
      </trkpt>
      <trkpt lat="45.09392" lon="2.68512">
        <ele>1310.7</ele>
        <time>2021-08-23T08:22:33Z</time>
      </trkpt>
      <trkpt lat="45.09395" lon="2.68515">
        <ele>1310.9</ele>
        <time>2021-08-23T08:22:35Z</time>
      </trkpt>
      <trkpt lat="45.09397" lon="2.68518">
        <ele>1311.1</ele>
        <time>2021-08-23T08:22:37Z</time>
      </trkpt>
      <trkpt lat="45.094" lon="2.6852">
        <ele>1311.2</ele>
        <time>2021-08-23T08:22:39Z</time>
      </trkpt>
      <trkpt lat="45.09403" lon="2.68523">
        <ele>1311.4</ele>
        <time>2021-08-23T08:22:41Z</time>
      </trkpt>
      <trkpt lat="45.09405" lon="2.68525">
        <ele>1311.6</ele>
        <time>2021-08-23T08:22:43Z</time>
      </trkpt>
      <trkpt lat="45.09408" lon="2.68528">
        <ele>1311.9</ele>
        <time>2021-08-23T08:22:45Z</time>
      </trkpt>
      <trkpt lat="45.09411" lon="2.68532">
        <ele>1312.3</ele>
        <time>2021-08-23T08:22:47Z</time>
      </trkpt>
      <trkpt lat="45.09414" lon="2.68535">
        <ele>1312.6</ele>
        <time>2021-08-23T08:22:49Z</time>
      </trkpt>
      <trkpt lat="45.09416" lon="2.68538">
        <ele>1312.9</ele>
        <time>2021-08-23T08:22:51Z</time>
      </trkpt>
      <trkpt lat="45.09418" lon="2.68542">
        <ele>1313.4</ele>
        <time>2021-08-23T08:22:53Z</time>
      </trkpt>
      <trkpt lat="45.0942" lon="2.68545">
        <ele>1313.7</ele>
        <time>2021-08-23T08:22:55Z</time>
      </trkpt>
      <trkpt lat="45.09422" lon="2.68549">
        <ele>1314.1</ele>
        <time>2021-08-23T08:22:57Z</time>
      </trkpt>
      <trkpt lat="45.09425" lon="2.68553">
        <ele>1314.5</ele>
        <time>2021-08-23T08:22:59Z</time>
      </trkpt>
      <trkpt lat="45.09427" lon="2.68557">
        <ele>1315</ele>
        <time>2021-08-23T08:23:01Z</time>
      </trkpt>
      <trkpt lat="45.09429" lon="2.68561">
        <ele>1315.4</ele>
        <time>2021-08-23T08:23:03Z</time>
      </trkpt>
      <trkpt lat="45.09431" lon="2.68565">
        <ele>1315.9</ele>
        <time>2021-08-23T08:23:05Z</time>
      </trkpt>
      <trkpt lat="45.09432" lon="2.68569">
        <ele>1316.4</ele>
        <time>2021-08-23T08:23:07Z</time>
      </trkpt>
      <trkpt lat="45.09435" lon="2.68573">
        <ele>1316.9</ele>
        <time>2021-08-23T08:23:09Z</time>
      </trkpt>
      <trkpt lat="45.09437" lon="2.68577">
        <ele>1317.3</ele>
        <time>2021-08-23T08:23:11Z</time>
      </trkpt>
      <trkpt lat="45.09439" lon="2.6858">
        <ele>1317.8</ele>
        <time>2021-08-23T08:23:13Z</time>
      </trkpt>
      <trkpt lat="45.09441" lon="2.68584">
        <ele>1318.2</ele>
        <time>2021-08-23T08:23:15Z</time>
      </trkpt>
      <trkpt lat="45.09443" lon="2.68588">
        <ele>1318.3</ele>
        <time>2021-08-23T08:23:17Z</time>
      </trkpt>
      <trkpt lat="45.09446" lon="2.68591">
        <ele>1318.4</ele>
        <time>2021-08-23T08:23:19Z</time>
      </trkpt>
      <trkpt lat="45.09448" lon="2.68595">
        <ele>1318.7</ele>
        <time>2021-08-23T08:23:21Z</time>
      </trkpt>
      <trkpt lat="45.0945" lon="2.68598">
        <ele>1318.9</ele>
        <time>2021-08-23T08:23:23Z</time>
      </trkpt>
      <trkpt lat="45.09452" lon="2.68602">
        <ele>1319.1</ele>
        <time>2021-08-23T08:23:25Z</time>
      </trkpt>
      <trkpt lat="45.09455" lon="2.68605">
        <ele>1319.3</ele>
        <time>2021-08-23T08:23:27Z</time>
      </trkpt>
      <trkpt lat="45.09457" lon="2.68608">
        <ele>1319.5</ele>
        <time>2021-08-23T08:23:29Z</time>
      </trkpt>
      <trkpt lat="45.09459" lon="2.68611">
        <ele>1319.7</ele>
        <time>2021-08-23T08:23:31Z</time>
      </trkpt>
      <trkpt lat="45.09462" lon="2.68614">
        <ele>1320</ele>
        <time>2021-08-23T08:23:33Z</time>
      </trkpt>
      <trkpt lat="45.09463" lon="2.68617">
        <ele>1320.3</ele>
        <time>2021-08-23T08:23:35Z</time>
      </trkpt>
      <trkpt lat="45.09466" lon="2.6862">
        <ele>1320.6</ele>
        <time>2021-08-23T08:23:37Z</time>
      </trkpt>
      <trkpt lat="45.09469" lon="2.68623">
        <ele>1320.8</ele>
        <time>2021-08-23T08:23:39Z</time>
      </trkpt>
      <trkpt lat="45.09472" lon="2.68625">
        <ele>1321</ele>
        <time>2021-08-23T08:23:41Z</time>
      </trkpt>
      <trkpt lat="45.09475" lon="2.68627">
        <ele>1321.2</ele>
        <time>2021-08-23T08:23:43Z</time>
      </trkpt>
      <trkpt lat="45.09479" lon="2.68629">
        <ele>1321.4</ele>
        <time>2021-08-23T08:23:45Z</time>
      </trkpt>
      <trkpt lat="45.09482" lon="2.68631">
        <ele>1321.6</ele>
        <time>2021-08-23T08:23:47Z</time>
      </trkpt>
      <trkpt lat="45.09485" lon="2.68633">
        <ele>1321.8</ele>
        <time>2021-08-23T08:23:49Z</time>
      </trkpt>
      <trkpt lat="45.09488" lon="2.68636">
        <ele>1322.1</ele>
        <time>2021-08-23T08:23:51Z</time>
      </trkpt>
      <trkpt lat="45.09491" lon="2.68638">
        <ele>1322.5</ele>
        <time>2021-08-23T08:23:53Z</time>
      </trkpt>
      <trkpt lat="45.09494" lon="2.68641">
        <ele>1322.9</ele>
        <time>2021-08-23T08:23:55Z</time>
      </trkpt>
      <trkpt lat="45.09496" lon="2.68643">
        <ele>1323.2</ele>
        <time>2021-08-23T08:23:57Z</time>
      </trkpt>
      <trkpt lat="45.09499" lon="2.68645">
        <ele>1323.7</ele>
        <time>2021-08-23T08:23:59Z</time>
      </trkpt>
      <trkpt lat="45.09502" lon="2.68649">
        <ele>1324.4</ele>
        <time>2021-08-23T08:24:01Z</time>
      </trkpt>
      <trkpt lat="45.09505" lon="2.68651">
        <ele>1324.9</ele>
        <time>2021-08-23T08:24:03Z</time>
      </trkpt>
      <trkpt lat="45.09508" lon="2.68653">
        <ele>1325.5</ele>
        <time>2021-08-23T08:24:05Z</time>
      </trkpt>
      <trkpt lat="45.0951" lon="2.68654">
        <ele>1326</ele>
        <time>2021-08-23T08:24:07Z</time>
      </trkpt>
      <trkpt lat="45.09513" lon="2.68658">
        <ele>1326.8</ele>
        <time>2021-08-23T08:24:09Z</time>
      </trkpt>
      <trkpt lat="45.09516" lon="2.68661">
        <ele>1327.6</ele>
        <time>2021-08-23T08:24:11Z</time>
      </trkpt>
      <trkpt lat="45.09518" lon="2.68663">
        <ele>1328.3</ele>
        <time>2021-08-23T08:24:13Z</time>
      </trkpt>
      <trkpt lat="45.09521" lon="2.68666">
        <ele>1329</ele>
        <time>2021-08-23T08:24:15Z</time>
      </trkpt>
      <trkpt lat="45.09524" lon="2.68669">
        <ele>1330</ele>
        <time>2021-08-23T08:24:17Z</time>
      </trkpt>
      <trkpt lat="45.09527" lon="2.68672">
        <ele>1331</ele>
        <time>2021-08-23T08:24:19Z</time>
      </trkpt>
      <trkpt lat="45.0953" lon="2.68674">
        <ele>1331.9</ele>
        <time>2021-08-23T08:24:21Z</time>
      </trkpt>
      <trkpt lat="45.09533" lon="2.68677">
        <ele>1332.9</ele>
        <time>2021-08-23T08:24:23Z</time>
      </trkpt>
      <trkpt lat="45.09537" lon="2.6868">
        <ele>1333.8</ele>
        <time>2021-08-23T08:24:25Z</time>
      </trkpt>
      <trkpt lat="45.0954" lon="2.68682">
        <ele>1334.6</ele>
        <time>2021-08-23T08:24:27Z</time>
      </trkpt>
      <trkpt lat="45.09542" lon="2.68684">
        <ele>1335.6</ele>
        <time>2021-08-23T08:24:29Z</time>
      </trkpt>
      <trkpt lat="45.09546" lon="2.68688">
        <ele>1336.8</ele>
        <time>2021-08-23T08:24:31Z</time>
      </trkpt>
      <trkpt lat="45.09549" lon="2.6869">
        <ele>1337.6</ele>
        <time>2021-08-23T08:24:33Z</time>
      </trkpt>
      <trkpt lat="45.09552" lon="2.68691">
        <ele>1338.2</ele>
        <time>2021-08-23T08:24:35Z</time>
      </trkpt>
      <trkpt lat="45.09555" lon="2.68693">
        <ele>1339.2</ele>
        <time>2021-08-23T08:24:37Z</time>
      </trkpt>
      <trkpt lat="45.09558" lon="2.68695">
        <ele>1340</ele>
        <time>2021-08-23T08:24:39Z</time>
      </trkpt>
      <trkpt lat="45.09561" lon="2.68697">
        <ele>1340.9</ele>
        <time>2021-08-23T08:24:41Z</time>
      </trkpt>
      <trkpt lat="45.09565" lon="2.68699">
        <ele>1341.7</ele>
        <time>2021-08-23T08:24:43Z</time>
      </trkpt>
      <trkpt lat="45.09568" lon="2.687">
        <ele>1342.3</ele>
        <time>2021-08-23T08:24:45Z</time>
      </trkpt>
      <trkpt lat="45.09571" lon="2.68701">
        <ele>1342.9</ele>
        <time>2021-08-23T08:24:47Z</time>
      </trkpt>
      <trkpt lat="45.09574" lon="2.68701">
        <ele>1343.2</ele>
        <time>2021-08-23T08:24:49Z</time>
      </trkpt>
      <trkpt lat="45.09578" lon="2.68702">
        <ele>1343.9</ele>
        <time>2021-08-23T08:24:51Z</time>
      </trkpt>
      <trkpt lat="45.09581" lon="2.68702">
        <ele>1344.3</ele>
        <time>2021-08-23T08:24:53Z</time>
      </trkpt>
      <trkpt lat="45.09585" lon="2.68703">
        <ele>1344.9</ele>
        <time>2021-08-23T08:24:55Z</time>
      </trkpt>
      <trkpt lat="45.09588" lon="2.68702">
        <ele>1345</ele>
        <time>2021-08-23T08:24:57Z</time>
      </trkpt>
      <trkpt lat="45.09592" lon="2.68701">
        <ele>1345</ele>
        <time>2021-08-23T08:24:59Z</time>
      </trkpt>
      <trkpt lat="45.09595" lon="2.68701">
        <ele>1345.4</ele>
        <time>2021-08-23T08:25:01Z</time>
      </trkpt>
      <trkpt lat="45.09598" lon="2.687">
        <ele>1345.3</ele>
        <time>2021-08-23T08:25:03Z</time>
      </trkpt>
      <trkpt lat="45.09602" lon="2.68699">
        <ele>1345.4</ele>
        <time>2021-08-23T08:25:05Z</time>
      </trkpt>
      <trkpt lat="45.09606" lon="2.68698">
        <ele>1345.4</ele>
        <time>2021-08-23T08:25:07Z</time>
      </trkpt>
      <trkpt lat="45.0961" lon="2.68698">
        <ele>1345.9</ele>
        <time>2021-08-23T08:25:09Z</time>
      </trkpt>
      <trkpt lat="45.09613" lon="2.68697">
        <ele>1345.7</ele>
        <time>2021-08-23T08:25:11Z</time>
      </trkpt>
      <trkpt lat="45.09617" lon="2.68696">
        <ele>1345.7</ele>
        <time>2021-08-23T08:25:13Z</time>
      </trkpt>
      <trkpt lat="45.0962" lon="2.68695">
        <ele>1345.9</ele>
        <time>2021-08-23T08:25:15Z</time>
      </trkpt>
      <trkpt lat="45.09623" lon="2.68693">
        <ele>1345.3</ele>
        <time>2021-08-23T08:25:17Z</time>
      </trkpt>
      <trkpt lat="45.09626" lon="2.68692">
        <ele>1345.2</ele>
        <time>2021-08-23T08:25:19Z</time>
      </trkpt>
      <trkpt lat="45.0963" lon="2.68691">
        <ele>1345.2</ele>
        <time>2021-08-23T08:25:21Z</time>
      </trkpt>
      <trkpt lat="45.09633" lon="2.68691">
        <ele>1345.5</ele>
        <time>2021-08-23T08:25:23Z</time>
      </trkpt>
      <trkpt lat="45.09637" lon="2.6869">
        <ele>1345.3</ele>
        <time>2021-08-23T08:25:25Z</time>
      </trkpt>
      <trkpt lat="45.0964" lon="2.68689">
        <ele>1345.4</ele>
        <time>2021-08-23T08:25:27Z</time>
      </trkpt>
      <trkpt lat="45.09644" lon="2.68688">
        <ele>1345.3</ele>
        <time>2021-08-23T08:25:29Z</time>
      </trkpt>
      <trkpt lat="45.09647" lon="2.68687">
        <ele>1345.1</ele>
        <time>2021-08-23T08:25:31Z</time>
      </trkpt>
      <trkpt lat="45.0965" lon="2.68686">
        <ele>1345.1</ele>
        <time>2021-08-23T08:25:33Z</time>
      </trkpt>
      <trkpt lat="45.09654" lon="2.68685">
        <ele>1345</ele>
        <time>2021-08-23T08:25:35Z</time>
      </trkpt>
      <trkpt lat="45.09658" lon="2.68684">
        <ele>1345.2</ele>
        <time>2021-08-23T08:25:37Z</time>
      </trkpt>
      <trkpt lat="45.09661" lon="2.68684">
        <ele>1345.2</ele>
        <time>2021-08-23T08:25:39Z</time>
      </trkpt>
      <trkpt lat="45.09665" lon="2.68683">
        <ele>1345.4</ele>
        <time>2021-08-23T08:25:41Z</time>
      </trkpt>
      <trkpt lat="45.09668" lon="2.68682">
        <ele>1345.4</ele>
        <time>2021-08-23T08:25:43Z</time>
      </trkpt>
      <trkpt lat="45.09672" lon="2.68683">
        <ele>1346.1</ele>
        <time>2021-08-23T08:25:45Z</time>
      </trkpt>
      <trkpt lat="45.09676" lon="2.68683">
        <ele>1346.5</ele>
        <time>2021-08-23T08:25:47Z</time>
      </trkpt>
      <trkpt lat="45.09679" lon="2.68683">
        <ele>1346.5</ele>
        <time>2021-08-23T08:25:49Z</time>
      </trkpt>
      <trkpt lat="45.09683" lon="2.68683">
        <ele>1347</ele>
        <time>2021-08-23T08:25:51Z</time>
      </trkpt>
      <trkpt lat="45.09686" lon="2.68683">
        <ele>1347.1</ele>
        <time>2021-08-23T08:25:53Z</time>
      </trkpt>
      <trkpt lat="45.0969" lon="2.68682">
        <ele>1347.2</ele>
        <time>2021-08-23T08:25:55Z</time>
      </trkpt>
      <trkpt lat="45.09694" lon="2.68681">
        <ele>1347.4</ele>
        <time>2021-08-23T08:25:57Z</time>
      </trkpt>
      <trkpt lat="45.09698" lon="2.68681">
        <ele>1347.6</ele>
        <time>2021-08-23T08:25:59Z</time>
      </trkpt>
      <trkpt lat="45.09701" lon="2.6868">
        <ele>1347.4</ele>
        <time>2021-08-23T08:26:01Z</time>
      </trkpt>
      <trkpt lat="45.09705" lon="2.68679">
        <ele>1347.2</ele>
        <time>2021-08-23T08:26:03Z</time>
      </trkpt>
      <trkpt lat="45.09708" lon="2.68677">
        <ele>1347</ele>
        <time>2021-08-23T08:26:05Z</time>
      </trkpt>
      <trkpt lat="45.09712" lon="2.68677">
        <ele>1347.4</ele>
        <time>2021-08-23T08:26:07Z</time>
      </trkpt>
      <trkpt lat="45.09715" lon="2.68677">
        <ele>1347.4</ele>
        <time>2021-08-23T08:26:09Z</time>
      </trkpt>
      <trkpt lat="45.0972" lon="2.68677">
        <ele>1347.9</ele>
        <time>2021-08-23T08:26:11Z</time>
      </trkpt>
      <trkpt lat="45.09723" lon="2.68678">
        <ele>1348.6</ele>
        <time>2021-08-23T08:26:13Z</time>
      </trkpt>
      <trkpt lat="45.09727" lon="2.68679">
        <ele>1349.4</ele>
        <time>2021-08-23T08:26:15Z</time>
      </trkpt>
      <trkpt lat="45.09731" lon="2.6868">
        <ele>1350.1</ele>
        <time>2021-08-23T08:26:17Z</time>
      </trkpt>
      <trkpt lat="45.09735" lon="2.6868">
        <ele>1350.7</ele>
        <time>2021-08-23T08:26:19Z</time>
      </trkpt>
      <trkpt lat="45.09738" lon="2.68681">
        <ele>1351.2</ele>
        <time>2021-08-23T08:26:21Z</time>
      </trkpt>
      <trkpt lat="45.09742" lon="2.68682">
        <ele>1352</ele>
        <time>2021-08-23T08:26:23Z</time>
      </trkpt>
      <trkpt lat="45.09746" lon="2.68683">
        <ele>1352.8</ele>
        <time>2021-08-23T08:26:25Z</time>
      </trkpt>
      <trkpt lat="45.09749" lon="2.68684">
        <ele>1353.3</ele>
        <time>2021-08-23T08:26:27Z</time>
      </trkpt>
      <trkpt lat="45.09753" lon="2.68685">
        <ele>1354.1</ele>
        <time>2021-08-23T08:26:29Z</time>
      </trkpt>
      <trkpt lat="45.09756" lon="2.68686">
        <ele>1354.8</ele>
        <time>2021-08-23T08:26:31Z</time>
      </trkpt>
      <trkpt lat="45.0976" lon="2.68687">
        <ele>1355.6</ele>
        <time>2021-08-23T08:26:33Z</time>
      </trkpt>
      <trkpt lat="45.09763" lon="2.68688">
        <ele>1356.2</ele>
        <time>2021-08-23T08:26:35Z</time>
      </trkpt>
      <trkpt lat="45.09767" lon="2.68688">
        <ele>1356.6</ele>
        <time>2021-08-23T08:26:37Z</time>
      </trkpt>
      <trkpt lat="45.0977" lon="2.68689">
        <ele>1357.1</ele>
        <time>2021-08-23T08:26:39Z</time>
      </trkpt>
      <trkpt lat="45.09774" lon="2.6869">
        <ele>1357.6</ele>
        <time>2021-08-23T08:26:41Z</time>
      </trkpt>
      <trkpt lat="45.09777" lon="2.6869">
        <ele>1357.9</ele>
        <time>2021-08-23T08:26:43Z</time>
      </trkpt>
      <trkpt lat="45.09781" lon="2.6869">
        <ele>1358.4</ele>
        <time>2021-08-23T08:26:45Z</time>
      </trkpt>
      <trkpt lat="45.09785" lon="2.68691">
        <ele>1358.8</ele>
        <time>2021-08-23T08:26:47Z</time>
      </trkpt>
      <trkpt lat="45.09788" lon="2.68691">
        <ele>1359.2</ele>
        <time>2021-08-23T08:26:49Z</time>
      </trkpt>
      <trkpt lat="45.09791" lon="2.68691">
        <ele>1359.6</ele>
        <time>2021-08-23T08:26:51Z</time>
      </trkpt>
      <trkpt lat="45.09795" lon="2.68691">
        <ele>1359.8</ele>
        <time>2021-08-23T08:26:53Z</time>
      </trkpt>
      <trkpt lat="45.09798" lon="2.68692">
        <ele>1360.4</ele>
        <time>2021-08-23T08:26:55Z</time>
      </trkpt>
      <trkpt lat="45.09802" lon="2.68692">
        <ele>1360.9</ele>
        <time>2021-08-23T08:26:57Z</time>
      </trkpt>
      <trkpt lat="45.09805" lon="2.68692">
        <ele>1361.1</ele>
        <time>2021-08-23T08:26:59Z</time>
      </trkpt>
      <trkpt lat="45.09809" lon="2.68691">
        <ele>1361.2</ele>
        <time>2021-08-23T08:27:01Z</time>
      </trkpt>
      <trkpt lat="45.09812" lon="2.68691">
        <ele>1361.4</ele>
        <time>2021-08-23T08:27:03Z</time>
      </trkpt>
      <trkpt lat="45.09816" lon="2.6869">
        <ele>1361.5</ele>
        <time>2021-08-23T08:27:05Z</time>
      </trkpt>
      <trkpt lat="45.0982" lon="2.68689">
        <ele>1361.4</ele>
        <time>2021-08-23T08:27:07Z</time>
      </trkpt>
      <trkpt lat="45.09823" lon="2.68688">
        <ele>1361.3</ele>
        <time>2021-08-23T08:27:09Z</time>
      </trkpt>
      <trkpt lat="45.09827" lon="2.68686">
        <ele>1361</ele>
        <time>2021-08-23T08:27:11Z</time>
      </trkpt>
      <trkpt lat="45.0983" lon="2.68684">
        <ele>1360.4</ele>
        <time>2021-08-23T08:27:13Z</time>
      </trkpt>
      <trkpt lat="45.09834" lon="2.68681">
        <ele>1360</ele>
        <time>2021-08-23T08:27:15Z</time>
      </trkpt>
      <trkpt lat="45.09837" lon="2.68679">
        <ele>1360</ele>
        <time>2021-08-23T08:27:17Z</time>
      </trkpt>
      <trkpt lat="45.0984" lon="2.68677">
        <ele>1360</ele>
        <time>2021-08-23T08:27:19Z</time>
      </trkpt>
      <trkpt lat="45.09843" lon="2.68674">
        <ele>1359.8</ele>
        <time>2021-08-23T08:27:21Z</time>
      </trkpt>
      <trkpt lat="45.09846" lon="2.68672">
        <ele>1359.9</ele>
        <time>2021-08-23T08:27:23Z</time>
      </trkpt>
      <trkpt lat="45.0985" lon="2.6867">
        <ele>1360</ele>
        <time>2021-08-23T08:27:25Z</time>
      </trkpt>
      <trkpt lat="45.09853" lon="2.68668">
        <ele>1359.9</ele>
        <time>2021-08-23T08:27:27Z</time>
      </trkpt>
      <trkpt lat="45.09857" lon="2.68666">
        <ele>1360.2</ele>
        <time>2021-08-23T08:27:29Z</time>
      </trkpt>
      <trkpt lat="45.0986" lon="2.68665">
        <ele>1360.5</ele>
        <time>2021-08-23T08:27:31Z</time>
      </trkpt>
      <trkpt lat="45.09863" lon="2.68663">
        <ele>1360.9</ele>
        <time>2021-08-23T08:27:33Z</time>
      </trkpt>
      <trkpt lat="45.09867" lon="2.68662">
        <ele>1361.4</ele>
        <time>2021-08-23T08:27:35Z</time>
      </trkpt>
      <trkpt lat="45.0987" lon="2.68662">
        <ele>1362.1</ele>
        <time>2021-08-23T08:27:37Z</time>
      </trkpt>
      <trkpt lat="45.09874" lon="2.68661">
        <ele>1362.7</ele>
        <time>2021-08-23T08:27:39Z</time>
      </trkpt>
      <trkpt lat="45.09877" lon="2.6866">
        <ele>1363.2</ele>
        <time>2021-08-23T08:27:41Z</time>
      </trkpt>
      <trkpt lat="45.09881" lon="2.6866">
        <ele>1364</ele>
        <time>2021-08-23T08:27:43Z</time>
      </trkpt>
      <trkpt lat="45.09884" lon="2.68659">
        <ele>1364.5</ele>
        <time>2021-08-23T08:27:45Z</time>
      </trkpt>
      <trkpt lat="45.09887" lon="2.68658">
        <ele>1365.1</ele>
        <time>2021-08-23T08:27:47Z</time>
      </trkpt>
      <trkpt lat="45.09891" lon="2.68657">
        <ele>1365.7</ele>
        <time>2021-08-23T08:27:49Z</time>
      </trkpt>
      <trkpt lat="45.09894" lon="2.68656">
        <ele>1366.4</ele>
        <time>2021-08-23T08:27:51Z</time>
      </trkpt>
      <trkpt lat="45.09898" lon="2.68656">
        <ele>1367.3</ele>
        <time>2021-08-23T08:27:53Z</time>
      </trkpt>
      <trkpt lat="45.09902" lon="2.68655">
        <ele>1367.9</ele>
        <time>2021-08-23T08:27:55Z</time>
      </trkpt>
      <trkpt lat="45.09905" lon="2.68654">
        <ele>1368.4</ele>
        <time>2021-08-23T08:27:57Z</time>
      </trkpt>
      <trkpt lat="45.09909" lon="2.68654">
        <ele>1369.2</ele>
        <time>2021-08-23T08:27:59Z</time>
      </trkpt>
      <trkpt lat="45.09912" lon="2.68653">
        <ele>1369.8</ele>
        <time>2021-08-23T08:28:01Z</time>
      </trkpt>
      <trkpt lat="45.09915" lon="2.68652">
        <ele>1370.4</ele>
        <time>2021-08-23T08:28:03Z</time>
      </trkpt>
      <trkpt lat="45.09918" lon="2.68651">
        <ele>1371.1</ele>
        <time>2021-08-23T08:28:05Z</time>
      </trkpt>
      <trkpt lat="45.09922" lon="2.6865">
        <ele>1372.1</ele>
        <time>2021-08-23T08:28:07Z</time>
      </trkpt>
      <trkpt lat="45.09925" lon="2.68648">
        <ele>1372.9</ele>
        <time>2021-08-23T08:28:09Z</time>
      </trkpt>
      <trkpt lat="45.09929" lon="2.68645">
        <ele>1373.5</ele>
        <time>2021-08-23T08:28:11Z</time>
      </trkpt>
      <trkpt lat="45.09931" lon="2.68642">
        <ele>1373.7</ele>
        <time>2021-08-23T08:28:13Z</time>
      </trkpt>
      <trkpt lat="45.09934" lon="2.68638">
        <ele>1373.7</ele>
        <time>2021-08-23T08:28:15Z</time>
      </trkpt>
      <trkpt lat="45.09936" lon="2.68634">
        <ele>1373.7</ele>
        <time>2021-08-23T08:28:17Z</time>
      </trkpt>
      <trkpt lat="45.09938" lon="2.68631">
        <ele>1373.9</ele>
        <time>2021-08-23T08:28:19Z</time>
      </trkpt>
      <trkpt lat="45.09941" lon="2.68628">
        <ele>1374.2</ele>
        <time>2021-08-23T08:28:21Z</time>
      </trkpt>
      <trkpt lat="45.09943" lon="2.68624">
        <ele>1374.4</ele>
        <time>2021-08-23T08:28:23Z</time>
      </trkpt>
      <trkpt lat="45.09946" lon="2.6862">
        <ele>1374.7</ele>
        <time>2021-08-23T08:28:25Z</time>
      </trkpt>
      <trkpt lat="45.09949" lon="2.68617">
        <ele>1375.2</ele>
        <time>2021-08-23T08:28:27Z</time>
      </trkpt>
      <trkpt lat="45.09952" lon="2.68614">
        <ele>1375.6</ele>
        <time>2021-08-23T08:28:29Z</time>
      </trkpt>
      <trkpt lat="45.09954" lon="2.6861">
        <ele>1375.6</ele>
        <time>2021-08-23T08:28:31Z</time>
      </trkpt>
      <trkpt lat="45.09956" lon="2.68606">
        <ele>1375.7</ele>
        <time>2021-08-23T08:28:33Z</time>
      </trkpt>
      <trkpt lat="45.09958" lon="2.68602">
        <ele>1375.8</ele>
        <time>2021-08-23T08:28:35Z</time>
      </trkpt>
      <trkpt lat="45.09959" lon="2.68597">
        <ele>1375.3</ele>
        <time>2021-08-23T08:28:37Z</time>
      </trkpt>
      <trkpt lat="45.09961" lon="2.68592">
        <ele>1375.2</ele>
        <time>2021-08-23T08:28:39Z</time>
      </trkpt>
      <trkpt lat="45.09963" lon="2.68588">
        <ele>1375.2</ele>
        <time>2021-08-23T08:28:41Z</time>
      </trkpt>
      <trkpt lat="45.09965" lon="2.68584">
        <ele>1375.3</ele>
        <time>2021-08-23T08:28:43Z</time>
      </trkpt>
      <trkpt lat="45.09967" lon="2.6858">
        <ele>1376.2</ele>
        <time>2021-08-23T08:28:45Z</time>
      </trkpt>
      <trkpt lat="45.09969" lon="2.68575">
        <ele>1377.2</ele>
        <time>2021-08-23T08:28:47Z</time>
      </trkpt>
      <trkpt lat="45.09971" lon="2.68571">
        <ele>1378.2</ele>
        <time>2021-08-23T08:28:49Z</time>
      </trkpt>
      <trkpt lat="45.09972" lon="2.68566">
        <ele>1378.9</ele>
        <time>2021-08-23T08:28:51Z</time>
      </trkpt>
      <trkpt lat="45.09973" lon="2.68562">
        <ele>1379.6</ele>
        <time>2021-08-23T08:28:53Z</time>
      </trkpt>
      <trkpt lat="45.09974" lon="2.68557">
        <ele>1379.9</ele>
        <time>2021-08-23T08:28:55Z</time>
      </trkpt>
      <trkpt lat="45.09974" lon="2.68551">
        <ele>1380.1</ele>
        <time>2021-08-23T08:28:57Z</time>
      </trkpt>
      <trkpt lat="45.09973" lon="2.68547">
        <ele>1379.9</ele>
        <time>2021-08-23T08:28:59Z</time>
      </trkpt>
      <trkpt lat="45.09971" lon="2.68542">
        <ele>1379.3</ele>
        <time>2021-08-23T08:29:01Z</time>
      </trkpt>
      <trkpt lat="45.0997" lon="2.68537">
        <ele>1378.8</ele>
        <time>2021-08-23T08:29:03Z</time>
      </trkpt>
      <trkpt lat="45.09968" lon="2.68532">
        <ele>1378.1</ele>
        <time>2021-08-23T08:29:05Z</time>
      </trkpt>
      <trkpt lat="45.09967" lon="2.68526">
        <ele>1377.7</ele>
        <time>2021-08-23T08:29:07Z</time>
      </trkpt>
      <trkpt lat="45.09966" lon="2.68521">
        <ele>1377.5</ele>
        <time>2021-08-23T08:29:09Z</time>
      </trkpt>
      <trkpt lat="45.09965" lon="2.68516">
        <ele>1377.2</ele>
        <time>2021-08-23T08:29:11Z</time>
      </trkpt>
      <trkpt lat="45.09964" lon="2.68511">
        <ele>1377.1</ele>
        <time>2021-08-23T08:29:13Z</time>
      </trkpt>
      <trkpt lat="45.09964" lon="2.68506">
        <ele>1377.2</ele>
        <time>2021-08-23T08:29:15Z</time>
      </trkpt>
      <trkpt lat="45.09965" lon="2.68501">
        <ele>1377.6</ele>
        <time>2021-08-23T08:29:17Z</time>
      </trkpt>
      <trkpt lat="45.09965" lon="2.68496">
        <ele>1378</ele>
        <time>2021-08-23T08:29:19Z</time>
      </trkpt>
      <trkpt lat="45.09965" lon="2.6849">
        <ele>1378.7</ele>
        <time>2021-08-23T08:29:21Z</time>
      </trkpt>
      <trkpt lat="45.09966" lon="2.68485">
        <ele>1379.2</ele>
        <time>2021-08-23T08:29:23Z</time>
      </trkpt>
      <trkpt lat="45.09966" lon="2.6848">
        <ele>1379.9</ele>
        <time>2021-08-23T08:29:25Z</time>
      </trkpt>
      <trkpt lat="45.09966" lon="2.68475">
        <ele>1380.4</ele>
        <time>2021-08-23T08:29:27Z</time>
      </trkpt>
      <trkpt lat="45.09966" lon="2.6847">
        <ele>1380.8</ele>
        <time>2021-08-23T08:29:29Z</time>
      </trkpt>
      <trkpt lat="45.09966" lon="2.68465">
        <ele>1380.9</ele>
        <time>2021-08-23T08:29:31Z</time>
      </trkpt>
      <trkpt lat="45.09965" lon="2.6846">
        <ele>1381.2</ele>
        <time>2021-08-23T08:29:33Z</time>
      </trkpt>
      <trkpt lat="45.09965" lon="2.68455">
        <ele>1381.4</ele>
        <time>2021-08-23T08:29:35Z</time>
      </trkpt>
      <trkpt lat="45.09964" lon="2.6845">
        <ele>1381.1</ele>
        <time>2021-08-23T08:29:37Z</time>
      </trkpt>
      <trkpt lat="45.09963" lon="2.68445">
        <ele>1381.4</ele>
        <time>2021-08-23T08:29:39Z</time>
      </trkpt>
      <trkpt lat="45.09962" lon="2.6844">
        <ele>1381.3</ele>
        <time>2021-08-23T08:29:41Z</time>
      </trkpt>
      <trkpt lat="45.09962" lon="2.68435">
        <ele>1381.5</ele>
        <time>2021-08-23T08:29:43Z</time>
      </trkpt>
      <trkpt lat="45.09961" lon="2.6843">
        <ele>1381.6</ele>
        <time>2021-08-23T08:29:45Z</time>
      </trkpt>
      <trkpt lat="45.0996" lon="2.68425">
        <ele>1381.5</ele>
        <time>2021-08-23T08:29:47Z</time>
      </trkpt>
      <trkpt lat="45.0996" lon="2.6842">
        <ele>1381.8</ele>
        <time>2021-08-23T08:29:49Z</time>
      </trkpt>
      <trkpt lat="45.0996" lon="2.68415">
        <ele>1382.2</ele>
        <time>2021-08-23T08:29:51Z</time>
      </trkpt>
      <trkpt lat="45.0996" lon="2.6841">
        <ele>1382.6</ele>
        <time>2021-08-23T08:29:53Z</time>
      </trkpt>
      <trkpt lat="45.0996" lon="2.68405">
        <ele>1383.1</ele>
        <time>2021-08-23T08:29:55Z</time>
      </trkpt>
      <trkpt lat="45.0996" lon="2.684">
        <ele>1383.6</ele>
        <time>2021-08-23T08:29:57Z</time>
      </trkpt>
      <trkpt lat="45.09961" lon="2.68395">
        <ele>1384.1</ele>
        <time>2021-08-23T08:29:59Z</time>
      </trkpt>
      <trkpt lat="45.09961" lon="2.6839">
        <ele>1384.5</ele>
        <time>2021-08-23T08:30:01Z</time>
      </trkpt>
      <trkpt lat="45.09961" lon="2.68385">
        <ele>1384.9</ele>
        <time>2021-08-23T08:30:03Z</time>
      </trkpt>
      <trkpt lat="45.0996" lon="2.6838">
        <ele>1385.2</ele>
        <time>2021-08-23T08:30:05Z</time>
      </trkpt>
      <trkpt lat="45.0996" lon="2.68375">
        <ele>1385.3</ele>
        <time>2021-08-23T08:30:07Z</time>
      </trkpt>
      <trkpt lat="45.09958" lon="2.6837">
        <ele>1385.2</ele>
        <time>2021-08-23T08:30:09Z</time>
      </trkpt>
      <trkpt lat="45.09957" lon="2.68365">
        <ele>1384.9</ele>
        <time>2021-08-23T08:30:11Z</time>
      </trkpt>
      <trkpt lat="45.09955" lon="2.68361">
        <ele>1384.6</ele>
        <time>2021-08-23T08:30:13Z</time>
      </trkpt>
      <trkpt lat="45.09953" lon="2.68357">
        <ele>1383.9</ele>
        <time>2021-08-23T08:30:15Z</time>
      </trkpt>
      <trkpt lat="45.09951" lon="2.68353">
        <ele>1383.7</ele>
        <time>2021-08-23T08:30:17Z</time>
      </trkpt>
      <trkpt lat="45.09949" lon="2.68348">
        <ele>1383.5</ele>
        <time>2021-08-23T08:30:19Z</time>
      </trkpt>
      <trkpt lat="45.09948" lon="2.68342">
        <ele>1383.4</ele>
        <time>2021-08-23T08:30:21Z</time>
      </trkpt>
      <trkpt lat="45.09946" lon="2.68338">
        <ele>1383.1</ele>
        <time>2021-08-23T08:30:23Z</time>
      </trkpt>
      <trkpt lat="45.09944" lon="2.68333">
        <ele>1382.8</ele>
        <time>2021-08-23T08:30:25Z</time>
      </trkpt>
      <trkpt lat="45.09942" lon="2.68329">
        <ele>1381.8</ele>
        <time>2021-08-23T08:30:27Z</time>
      </trkpt>
      <trkpt lat="45.0994" lon="2.68324">
        <ele>1381.1</ele>
        <time>2021-08-23T08:30:29Z</time>
      </trkpt>
      <trkpt lat="45.09938" lon="2.68319">
        <ele>1380.4</ele>
        <time>2021-08-23T08:30:31Z</time>
      </trkpt>
      <trkpt lat="45.09937" lon="2.68314">
        <ele>1379.8</ele>
        <time>2021-08-23T08:30:33Z</time>
      </trkpt>
      <trkpt lat="45.09936" lon="2.68309">
        <ele>1379.4</ele>
        <time>2021-08-23T08:30:35Z</time>
      </trkpt>
      <trkpt lat="45.09935" lon="2.68305">
        <ele>1379</ele>
        <time>2021-08-23T08:30:37Z</time>
      </trkpt>
      <trkpt lat="45.09934" lon="2.683">
        <ele>1378.7</ele>
        <time>2021-08-23T08:30:39Z</time>
      </trkpt>
      <trkpt lat="45.09933" lon="2.68295">
        <ele>1378.3</ele>
        <time>2021-08-23T08:30:41Z</time>
      </trkpt>
      <trkpt lat="45.09933" lon="2.68289">
        <ele>1378.3</ele>
        <time>2021-08-23T08:30:43Z</time>
      </trkpt>
      <trkpt lat="45.09934" lon="2.68284">
        <ele>1378.5</ele>
        <time>2021-08-23T08:30:45Z</time>
      </trkpt>
      <trkpt lat="45.09936" lon="2.68279">
        <ele>1379</ele>
        <time>2021-08-23T08:30:47Z</time>
      </trkpt>
      <trkpt lat="45.09938" lon="2.68275">
        <ele>1379.5</ele>
        <time>2021-08-23T08:30:49Z</time>
      </trkpt>
      <trkpt lat="45.09941" lon="2.68272">
        <ele>1380.3</ele>
        <time>2021-08-23T08:30:51Z</time>
      </trkpt>
      <trkpt lat="45.09945" lon="2.6827">
        <ele>1381.1</ele>
        <time>2021-08-23T08:30:53Z</time>
      </trkpt>
      <trkpt lat="45.09948" lon="2.68268">
        <ele>1381.9</ele>
        <time>2021-08-23T08:30:55Z</time>
      </trkpt>
      <trkpt lat="45.09952" lon="2.68266">
        <ele>1382.7</ele>
        <time>2021-08-23T08:30:57Z</time>
      </trkpt>
      <trkpt lat="45.09955" lon="2.68264">
        <ele>1383.5</ele>
        <time>2021-08-23T08:30:59Z</time>
      </trkpt>
      <trkpt lat="45.09959" lon="2.68262">
        <ele>1384.2</ele>
        <time>2021-08-23T08:31:01Z</time>
      </trkpt>
      <trkpt lat="45.09962" lon="2.6826">
        <ele>1385</ele>
        <time>2021-08-23T08:31:03Z</time>
      </trkpt>
      <trkpt lat="45.09965" lon="2.68258">
        <ele>1385.6</ele>
        <time>2021-08-23T08:31:05Z</time>
      </trkpt>
      <trkpt lat="45.0997" lon="2.68256">
        <ele>1386.5</ele>
        <time>2021-08-23T08:31:07Z</time>
      </trkpt>
      <trkpt lat="45.09973" lon="2.68253">
        <ele>1387.2</ele>
        <time>2021-08-23T08:31:09Z</time>
      </trkpt>
      <trkpt lat="45.09977" lon="2.68251">
        <ele>1387.8</ele>
        <time>2021-08-23T08:31:11Z</time>
      </trkpt>
      <trkpt lat="45.09981" lon="2.68248">
        <ele>1388.1</ele>
        <time>2021-08-23T08:31:13Z</time>
      </trkpt>
      <trkpt lat="45.09985" lon="2.68246">
        <ele>1388.2</ele>
        <time>2021-08-23T08:31:15Z</time>
      </trkpt>
      <trkpt lat="45.09989" lon="2.68245">
        <ele>1388.5</ele>
        <time>2021-08-23T08:31:17Z</time>
      </trkpt>
      <trkpt lat="45.09992" lon="2.68241">
        <ele>1388</ele>
        <time>2021-08-23T08:31:19Z</time>
      </trkpt>
      <trkpt lat="45.09996" lon="2.68239">
        <ele>1388.1</ele>
        <time>2021-08-23T08:31:21Z</time>
      </trkpt>
      <trkpt lat="45.1" lon="2.68237">
        <ele>1388.1</ele>
        <time>2021-08-23T08:31:23Z</time>
      </trkpt>
      <trkpt lat="45.10004" lon="2.68235">
        <ele>1388.3</ele>
        <time>2021-08-23T08:31:25Z</time>
      </trkpt>
      <trkpt lat="45.10008" lon="2.68233">
        <ele>1388.6</ele>
        <time>2021-08-23T08:31:27Z</time>
      </trkpt>
      <trkpt lat="45.10012" lon="2.68231">
        <ele>1388.7</ele>
        <time>2021-08-23T08:31:29Z</time>
      </trkpt>
      <trkpt lat="45.10016" lon="2.68229">
        <ele>1389.2</ele>
        <time>2021-08-23T08:31:31Z</time>
      </trkpt>
      <trkpt lat="45.1002" lon="2.68228">
        <ele>1389.7</ele>
        <time>2021-08-23T08:31:33Z</time>
      </trkpt>
      <trkpt lat="45.10024" lon="2.68227">
        <ele>1390.5</ele>
        <time>2021-08-23T08:31:35Z</time>
      </trkpt>
      <trkpt lat="45.10028" lon="2.68225">
        <ele>1390.7</ele>
        <time>2021-08-23T08:31:37Z</time>
      </trkpt>
      <trkpt lat="45.10032" lon="2.68224">
        <ele>1391.2</ele>
        <time>2021-08-23T08:31:39Z</time>
      </trkpt>
      <trkpt lat="45.10037" lon="2.68222">
        <ele>1391.7</ele>
        <time>2021-08-23T08:31:41Z</time>
      </trkpt>
      <trkpt lat="45.10041" lon="2.68221">
        <ele>1392.2</ele>
        <time>2021-08-23T08:31:43Z</time>
      </trkpt>
      <trkpt lat="45.10045" lon="2.6822">
        <ele>1392.7</ele>
        <time>2021-08-23T08:31:45Z</time>
      </trkpt>
      <trkpt lat="45.10049" lon="2.68218">
        <ele>1393</ele>
        <time>2021-08-23T08:31:47Z</time>
      </trkpt>
      <trkpt lat="45.10053" lon="2.68216">
        <ele>1393.1</ele>
        <time>2021-08-23T08:31:49Z</time>
      </trkpt>
      <trkpt lat="45.10057" lon="2.68214">
        <ele>1393.3</ele>
        <time>2021-08-23T08:31:51Z</time>
      </trkpt>
      <trkpt lat="45.1006" lon="2.68212">
        <ele>1393.4</ele>
        <time>2021-08-23T08:31:53Z</time>
      </trkpt>
      <trkpt lat="45.10064" lon="2.6821">
        <ele>1393.6</ele>
        <time>2021-08-23T08:31:55Z</time>
      </trkpt>
      <trkpt lat="45.10068" lon="2.68208">
        <ele>1393.7</ele>
        <time>2021-08-23T08:31:57Z</time>
      </trkpt>
      <trkpt lat="45.10072" lon="2.68206">
        <ele>1393.7</ele>
        <time>2021-08-23T08:31:59Z</time>
      </trkpt>
      <trkpt lat="45.10076" lon="2.68204">
        <ele>1393.8</ele>
        <time>2021-08-23T08:32:01Z</time>
      </trkpt>
      <trkpt lat="45.1008" lon="2.68201">
        <ele>1393.9</ele>
        <time>2021-08-23T08:32:03Z</time>
      </trkpt>
      <trkpt lat="45.10084" lon="2.68199">
        <ele>1393.9</ele>
        <time>2021-08-23T08:32:05Z</time>
      </trkpt>
      <trkpt lat="45.10088" lon="2.68197">
        <ele>1394.2</ele>
        <time>2021-08-23T08:32:07Z</time>
      </trkpt>
      <trkpt lat="45.10092" lon="2.68195">
        <ele>1394.6</ele>
        <time>2021-08-23T08:32:09Z</time>
      </trkpt>
      <trkpt lat="45.10096" lon="2.68193">
        <ele>1395</ele>
        <time>2021-08-23T08:32:11Z</time>
      </trkpt>
      <trkpt lat="45.101" lon="2.68191">
        <ele>1395.6</ele>
        <time>2021-08-23T08:32:13Z</time>
      </trkpt>
      <trkpt lat="45.10104" lon="2.6819">
        <ele>1396.5</ele>
        <time>2021-08-23T08:32:15Z</time>
      </trkpt>
      <trkpt lat="45.10108" lon="2.6819">
        <ele>1397.5</ele>
        <time>2021-08-23T08:32:17Z</time>
      </trkpt>
      <trkpt lat="45.10112" lon="2.68189">
        <ele>1398.6</ele>
        <time>2021-08-23T08:32:19Z</time>
      </trkpt>
      <trkpt lat="45.10116" lon="2.68189">
        <ele>1399.7</ele>
        <time>2021-08-23T08:32:21Z</time>
      </trkpt>
      <trkpt lat="45.1012" lon="2.68189">
        <ele>1400.8</ele>
        <time>2021-08-23T08:32:23Z</time>
      </trkpt>
      <trkpt lat="45.10124" lon="2.68189">
        <ele>1401.8</ele>
        <time>2021-08-23T08:32:25Z</time>
      </trkpt>
      <trkpt lat="45.10128" lon="2.68189">
        <ele>1402.8</ele>
        <time>2021-08-23T08:32:27Z</time>
      </trkpt>
      <trkpt lat="45.10131" lon="2.68188">
        <ele>1403.5</ele>
        <time>2021-08-23T08:32:29Z</time>
      </trkpt>
      <trkpt lat="45.10135" lon="2.68186">
        <ele>1404.1</ele>
        <time>2021-08-23T08:32:31Z</time>
      </trkpt>
      <trkpt lat="45.10138" lon="2.68185">
        <ele>1404.6</ele>
        <time>2021-08-23T08:32:33Z</time>
      </trkpt>
      <trkpt lat="45.10141" lon="2.68183">
        <ele>1404.8</ele>
        <time>2021-08-23T08:32:35Z</time>
      </trkpt>
      <trkpt lat="45.10145" lon="2.68181">
        <ele>1405</ele>
        <time>2021-08-23T08:32:37Z</time>
      </trkpt>
      <trkpt lat="45.10148" lon="2.68178">
        <ele>1404.7</ele>
        <time>2021-08-23T08:32:39Z</time>
      </trkpt>
      <trkpt lat="45.10151" lon="2.68176">
        <ele>1404.8</ele>
        <time>2021-08-23T08:32:41Z</time>
      </trkpt>
      <trkpt lat="45.10154" lon="2.68173">
        <ele>1404.8</ele>
        <time>2021-08-23T08:32:43Z</time>
      </trkpt>
      <trkpt lat="45.10157" lon="2.68171">
        <ele>1404.8</ele>
        <time>2021-08-23T08:32:45Z</time>
      </trkpt>
      <trkpt lat="45.10161" lon="2.68168">
        <ele>1404.8</ele>
        <time>2021-08-23T08:32:47Z</time>
      </trkpt>
      <trkpt lat="45.10164" lon="2.68166">
        <ele>1405.1</ele>
        <time>2021-08-23T08:32:49Z</time>
      </trkpt>
      <trkpt lat="45.10167" lon="2.68164">
        <ele>1405.2</ele>
        <time>2021-08-23T08:32:51Z</time>
      </trkpt>
      <trkpt lat="45.1017" lon="2.68161">
        <ele>1405.4</ele>
        <time>2021-08-23T08:32:53Z</time>
      </trkpt>
      <trkpt lat="45.10174" lon="2.68159">
        <ele>1405.9</ele>
        <time>2021-08-23T08:32:55Z</time>
      </trkpt>
      <trkpt lat="45.10177" lon="2.68158">
        <ele>1406.8</ele>
        <time>2021-08-23T08:32:57Z</time>
      </trkpt>
      <trkpt lat="45.1018" lon="2.68155">
        <ele>1406.7</ele>
        <time>2021-08-23T08:32:59Z</time>
      </trkpt>
      <trkpt lat="45.10184" lon="2.68153">
        <ele>1407.2</ele>
        <time>2021-08-23T08:33:01Z</time>
      </trkpt>
      <trkpt lat="45.10187" lon="2.6815">
        <ele>1407.3</ele>
        <time>2021-08-23T08:33:03Z</time>
      </trkpt>
      <trkpt lat="45.1019" lon="2.68148">
        <ele>1407.5</ele>
        <time>2021-08-23T08:33:05Z</time>
      </trkpt>
      <trkpt lat="45.10194" lon="2.68145">
        <ele>1407.6</ele>
        <time>2021-08-23T08:33:07Z</time>
      </trkpt>
      <trkpt lat="45.10197" lon="2.68142">
        <ele>1407.8</ele>
        <time>2021-08-23T08:33:09Z</time>
      </trkpt>
      <trkpt lat="45.102" lon="2.68139">
        <ele>1407.7</ele>
        <time>2021-08-23T08:33:11Z</time>
      </trkpt>
      <trkpt lat="45.10203" lon="2.68137">
        <ele>1408</ele>
        <time>2021-08-23T08:33:13Z</time>
      </trkpt>
      <trkpt lat="45.10207" lon="2.68134">
        <ele>1408.3</ele>
        <time>2021-08-23T08:33:15Z</time>
      </trkpt>
      <trkpt lat="45.10209" lon="2.6813">
        <ele>1407.8</ele>
        <time>2021-08-23T08:33:17Z</time>
      </trkpt>
      <trkpt lat="45.10211" lon="2.68125">
        <ele>1406.6</ele>
        <time>2021-08-23T08:33:19Z</time>
      </trkpt>
      <trkpt lat="45.10213" lon="2.6812">
        <ele>1405.6</ele>
        <time>2021-08-23T08:33:21Z</time>
      </trkpt>
      <trkpt lat="45.10215" lon="2.68115">
        <ele>1404.6</ele>
        <time>2021-08-23T08:33:23Z</time>
      </trkpt>
      <trkpt lat="45.10216" lon="2.6811">
        <ele>1403.5</ele>
        <time>2021-08-23T08:33:25Z</time>
      </trkpt>
      <trkpt lat="45.10219" lon="2.68106">
        <ele>1402.6</ele>
        <time>2021-08-23T08:33:27Z</time>
      </trkpt>
      <trkpt lat="45.10221" lon="2.68101">
        <ele>1402</ele>
        <time>2021-08-23T08:33:29Z</time>
      </trkpt>
      <trkpt lat="45.10223" lon="2.68097">
        <ele>1401.3</ele>
        <time>2021-08-23T08:33:31Z</time>
      </trkpt>
      <trkpt lat="45.10226" lon="2.68094">
        <ele>1400.9</ele>
        <time>2021-08-23T08:33:33Z</time>
      </trkpt>
      <trkpt lat="45.10229" lon="2.68091">
        <ele>1401</ele>
        <time>2021-08-23T08:33:35Z</time>
      </trkpt>
      <trkpt lat="45.10232" lon="2.68089">
        <ele>1401.4</ele>
        <time>2021-08-23T08:33:37Z</time>
      </trkpt>
      <trkpt lat="45.10236" lon="2.68086">
        <ele>1401.6</ele>
        <time>2021-08-23T08:33:39Z</time>
      </trkpt>
      <trkpt lat="45.1024" lon="2.68085">
        <ele>1402.4</ele>
        <time>2021-08-23T08:33:41Z</time>
      </trkpt>
      <trkpt lat="45.10243" lon="2.68084">
        <ele>1402.9</ele>
        <time>2021-08-23T08:33:43Z</time>
      </trkpt>
      <trkpt lat="45.10247" lon="2.68082">
        <ele>1403.5</ele>
        <time>2021-08-23T08:33:45Z</time>
      </trkpt>
      <trkpt lat="45.1025" lon="2.6808">
        <ele>1404.1</ele>
        <time>2021-08-23T08:33:47Z</time>
      </trkpt>
      <trkpt lat="45.10253" lon="2.68078">
        <ele>1404.7</ele>
        <time>2021-08-23T08:33:49Z</time>
      </trkpt>
      <trkpt lat="45.10257" lon="2.68077">
        <ele>1405.5</ele>
        <time>2021-08-23T08:33:51Z</time>
      </trkpt>
      <trkpt lat="45.1026" lon="2.68075">
        <ele>1406.1</ele>
        <time>2021-08-23T08:33:53Z</time>
      </trkpt>
      <trkpt lat="45.10264" lon="2.68074">
        <ele>1406.8</ele>
        <time>2021-08-23T08:33:55Z</time>
      </trkpt>
      <trkpt lat="45.10267" lon="2.68072">
        <ele>1407.5</ele>
        <time>2021-08-23T08:33:57Z</time>
      </trkpt>
      <trkpt lat="45.10271" lon="2.68071">
        <ele>1408.5</ele>
        <time>2021-08-23T08:33:59Z</time>
      </trkpt>
      <trkpt lat="45.10274" lon="2.6807">
        <ele>1409.4</ele>
        <time>2021-08-23T08:34:01Z</time>
      </trkpt>
      <trkpt lat="45.10278" lon="2.6807">
        <ele>1410.8</ele>
        <time>2021-08-23T08:34:03Z</time>
      </trkpt>
      <trkpt lat="45.10282" lon="2.6807">
        <ele>1411.9</ele>
        <time>2021-08-23T08:34:05Z</time>
      </trkpt>
      <trkpt lat="45.10285" lon="2.68071">
        <ele>1413.3</ele>
        <time>2021-08-23T08:34:07Z</time>
      </trkpt>
      <trkpt lat="45.10289" lon="2.68072">
        <ele>1414.7</ele>
        <time>2021-08-23T08:34:09Z</time>
      </trkpt>
      <trkpt lat="45.10292" lon="2.68072">
        <ele>1416</ele>
        <time>2021-08-23T08:34:11Z</time>
      </trkpt>
      <trkpt lat="45.10296" lon="2.68073">
        <ele>1417.6</ele>
        <time>2021-08-23T08:34:13Z</time>
      </trkpt>
      <trkpt lat="45.10299" lon="2.68073">
        <ele>1418.7</ele>
        <time>2021-08-23T08:34:15Z</time>
      </trkpt>
      <trkpt lat="45.10303" lon="2.68073">
        <ele>1419.9</ele>
        <time>2021-08-23T08:34:17Z</time>
      </trkpt>
      <trkpt lat="45.10306" lon="2.68073">
        <ele>1421.1</ele>
        <time>2021-08-23T08:34:19Z</time>
      </trkpt>
      <trkpt lat="45.1031" lon="2.68072">
        <ele>1422.2</ele>
        <time>2021-08-23T08:34:21Z</time>
      </trkpt>
      <trkpt lat="45.10313" lon="2.68071">
        <ele>1422.8</ele>
        <time>2021-08-23T08:34:23Z</time>
      </trkpt>
      <trkpt lat="45.10316" lon="2.68069">
        <ele>1423.2</ele>
        <time>2021-08-23T08:34:25Z</time>
      </trkpt>
      <trkpt lat="45.1032" lon="2.68067">
        <ele>1423.8</ele>
        <time>2021-08-23T08:34:27Z</time>
      </trkpt>
      <trkpt lat="45.10323" lon="2.68066">
        <ele>1424.5</ele>
        <time>2021-08-23T08:34:29Z</time>
      </trkpt>
      <trkpt lat="45.10326" lon="2.68064">
        <ele>1424.6</ele>
        <time>2021-08-23T08:34:31Z</time>
      </trkpt>
      <trkpt lat="45.10329" lon="2.68061">
        <ele>1424.9</ele>
        <time>2021-08-23T08:34:33Z</time>
      </trkpt>
      <trkpt lat="45.10332" lon="2.68059">
        <ele>1424.9</ele>
        <time>2021-08-23T08:34:35Z</time>
      </trkpt>
      <trkpt lat="45.10335" lon="2.68057">
        <ele>1425.6</ele>
        <time>2021-08-23T08:34:37Z</time>
      </trkpt>
      <trkpt lat="45.10338" lon="2.68054">
        <ele>1425.7</ele>
        <time>2021-08-23T08:34:39Z</time>
      </trkpt>
      <trkpt lat="45.10341" lon="2.68051">
        <ele>1426.3</ele>
        <time>2021-08-23T08:34:41Z</time>
      </trkpt>
      <trkpt lat="45.10344" lon="2.68048">
        <ele>1426.7</ele>
        <time>2021-08-23T08:34:43Z</time>
      </trkpt>
      <trkpt lat="45.10347" lon="2.68046">
        <ele>1427.5</ele>
        <time>2021-08-23T08:34:45Z</time>
      </trkpt>
      <trkpt lat="45.1035" lon="2.68044">
        <ele>1427.9</ele>
        <time>2021-08-23T08:34:47Z</time>
      </trkpt>
      <trkpt lat="45.10353" lon="2.68041">
        <ele>1428.2</ele>
        <time>2021-08-23T08:34:49Z</time>
      </trkpt>
      <trkpt lat="45.10356" lon="2.68038">
        <ele>1428.9</ele>
        <time>2021-08-23T08:34:51Z</time>
      </trkpt>
      <trkpt lat="45.10358" lon="2.68036">
        <ele>1429.3</ele>
        <time>2021-08-23T08:34:53Z</time>
      </trkpt>
      <trkpt lat="45.10361" lon="2.68033">
        <ele>1429.9</ele>
        <time>2021-08-23T08:34:55Z</time>
      </trkpt>
      <trkpt lat="45.10364" lon="2.6803">
        <ele>1430.6</ele>
        <time>2021-08-23T08:34:57Z</time>
      </trkpt>
      <trkpt lat="45.10367" lon="2.68028">
        <ele>1431</ele>
        <time>2021-08-23T08:34:59Z</time>
      </trkpt>
      <trkpt lat="45.1037" lon="2.68025">
        <ele>1431.7</ele>
        <time>2021-08-23T08:35:01Z</time>
      </trkpt>
      <trkpt lat="45.10373" lon="2.68022">
        <ele>1432.3</ele>
        <time>2021-08-23T08:35:03Z</time>
      </trkpt>
      <trkpt lat="45.10377" lon="2.68021">
        <ele>1433.6</ele>
        <time>2021-08-23T08:35:05Z</time>
      </trkpt>
      <trkpt lat="45.10379" lon="2.68019">
        <ele>1434.1</ele>
        <time>2021-08-23T08:35:07Z</time>
      </trkpt>
      <trkpt lat="45.10382" lon="2.68016">
        <ele>1434.9</ele>
        <time>2021-08-23T08:35:09Z</time>
      </trkpt>
      <trkpt lat="45.10386" lon="2.68014">
        <ele>1436</ele>
        <time>2021-08-23T08:35:11Z</time>
      </trkpt>
      <trkpt lat="45.10389" lon="2.68011">
        <ele>1436.7</ele>
        <time>2021-08-23T08:35:13Z</time>
      </trkpt>
      <trkpt lat="45.10392" lon="2.68008">
        <ele>1437.4</ele>
        <time>2021-08-23T08:35:15Z</time>
      </trkpt>
      <trkpt lat="45.10395" lon="2.68006">
        <ele>1438.3</ele>
        <time>2021-08-23T08:35:17Z</time>
      </trkpt>
      <trkpt lat="45.10397" lon="2.68003">
        <ele>1438.9</ele>
        <time>2021-08-23T08:35:19Z</time>
      </trkpt>
      <trkpt lat="45.10399" lon="2.67999">
        <ele>1439</ele>
        <time>2021-08-23T08:35:21Z</time>
      </trkpt>
      <trkpt lat="45.10402" lon="2.67996">
        <ele>1439.8</ele>
        <time>2021-08-23T08:35:23Z</time>
      </trkpt>
      <trkpt lat="45.10403" lon="2.67993">
        <ele>1440.3</ele>
        <time>2021-08-23T08:35:25Z</time>
      </trkpt>
      <trkpt lat="45.10405" lon="2.67989">
        <ele>1440.9</ele>
        <time>2021-08-23T08:35:27Z</time>
      </trkpt>
      <trkpt lat="45.10407" lon="2.67985">
        <ele>1441.3</ele>
        <time>2021-08-23T08:35:29Z</time>
      </trkpt>
      <trkpt lat="45.10409" lon="2.67981">
        <ele>1441.7</ele>
        <time>2021-08-23T08:35:31Z</time>
      </trkpt>
      <trkpt lat="45.10411" lon="2.67976">
        <ele>1442.1</ele>
        <time>2021-08-23T08:35:33Z</time>
      </trkpt>
      <trkpt lat="45.10412" lon="2.67971">
        <ele>1442.3</ele>
        <time>2021-08-23T08:35:35Z</time>
      </trkpt>
      <trkpt lat="45.10413" lon="2.67967">
        <ele>1442.3</ele>
        <time>2021-08-23T08:35:37Z</time>
      </trkpt>
      <trkpt lat="45.10414" lon="2.67962">
        <ele>1442.4</ele>
        <time>2021-08-23T08:35:39Z</time>
      </trkpt>
      <trkpt lat="45.10415" lon="2.67958">
        <ele>1442.5</ele>
        <time>2021-08-23T08:35:41Z</time>
      </trkpt>
      <trkpt lat="45.10415" lon="2.67954">
        <ele>1442.2</ele>
        <time>2021-08-23T08:35:43Z</time>
      </trkpt>
      <trkpt lat="45.10416" lon="2.67947">
        <ele>1441.7</ele>
        <time>2021-08-23T08:35:45Z</time>
      </trkpt>
      <trkpt lat="45.10416" lon="2.67943">
        <ele>1441.6</ele>
        <time>2021-08-23T08:35:47Z</time>
      </trkpt>
      <trkpt lat="45.10417" lon="2.67939">
        <ele>1441.4</ele>
        <time>2021-08-23T08:35:49Z</time>
      </trkpt>
      <trkpt lat="45.10417" lon="2.67934">
        <ele>1440.9</ele>
        <time>2021-08-23T08:35:51Z</time>
      </trkpt>
      <trkpt lat="45.10417" lon="2.67929">
        <ele>1440.4</ele>
        <time>2021-08-23T08:35:53Z</time>
      </trkpt>
      <trkpt lat="45.10417" lon="2.67924">
        <ele>1440.3</ele>
        <time>2021-08-23T08:35:55Z</time>
      </trkpt>
      <trkpt lat="45.10418" lon="2.67918">
        <ele>1440</ele>
        <time>2021-08-23T08:35:57Z</time>
      </trkpt>
      <trkpt lat="45.10418" lon="2.67913">
        <ele>1439.5</ele>
        <time>2021-08-23T08:35:59Z</time>
      </trkpt>
      <trkpt lat="45.10417" lon="2.67908">
        <ele>1438.7</ele>
        <time>2021-08-23T08:36:01Z</time>
      </trkpt>
      <trkpt lat="45.10417" lon="2.67902">
        <ele>1438.8</ele>
        <time>2021-08-23T08:36:03Z</time>
      </trkpt>
      <trkpt lat="45.10417" lon="2.67897">
        <ele>1438.4</ele>
        <time>2021-08-23T08:36:05Z</time>
      </trkpt>
      <trkpt lat="45.10418" lon="2.67892">
        <ele>1439.1</ele>
        <time>2021-08-23T08:36:07Z</time>
      </trkpt>
      <trkpt lat="45.1042" lon="2.67887">
        <ele>1439.7</ele>
        <time>2021-08-23T08:36:09Z</time>
      </trkpt>
      <trkpt lat="45.1042" lon="2.67882">
        <ele>1439.5</ele>
        <time>2021-08-23T08:36:11Z</time>
      </trkpt>
      <trkpt lat="45.1042" lon="2.67877">
        <ele>1439.6</ele>
        <time>2021-08-23T08:36:13Z</time>
      </trkpt>
      <trkpt lat="45.10421" lon="2.67872">
        <ele>1439.9</ele>
        <time>2021-08-23T08:36:15Z</time>
      </trkpt>
      <trkpt lat="45.10422" lon="2.67867">
        <ele>1440.1</ele>
        <time>2021-08-23T08:36:17Z</time>
      </trkpt>
      <trkpt lat="45.10422" lon="2.67862">
        <ele>1440.2</ele>
        <time>2021-08-23T08:36:19Z</time>
      </trkpt>
      <trkpt lat="45.10423" lon="2.67857">
        <ele>1440.5</ele>
        <time>2021-08-23T08:36:21Z</time>
      </trkpt>
      <trkpt lat="45.10424" lon="2.67851">
        <ele>1440.6</ele>
        <time>2021-08-23T08:36:23Z</time>
      </trkpt>
      <trkpt lat="45.10425" lon="2.67846">
        <ele>1440.8</ele>
        <time>2021-08-23T08:36:25Z</time>
      </trkpt>
      <trkpt lat="45.10426" lon="2.67841">
        <ele>1441.1</ele>
        <time>2021-08-23T08:36:27Z</time>
      </trkpt>
      <trkpt lat="45.10427" lon="2.67836">
        <ele>1441.5</ele>
        <time>2021-08-23T08:36:29Z</time>
      </trkpt>
      <trkpt lat="45.10428" lon="2.67831">
        <ele>1441.9</ele>
        <time>2021-08-23T08:36:31Z</time>
      </trkpt>
      <trkpt lat="45.1043" lon="2.67826">
        <ele>1442</ele>
        <time>2021-08-23T08:36:33Z</time>
      </trkpt>
      <trkpt lat="45.10432" lon="2.67822">
        <ele>1442.4</ele>
        <time>2021-08-23T08:36:35Z</time>
      </trkpt>
      <trkpt lat="45.10434" lon="2.67818">
        <ele>1443</ele>
        <time>2021-08-23T08:36:37Z</time>
      </trkpt>
      <trkpt lat="45.10436" lon="2.67814">
        <ele>1443.8</ele>
        <time>2021-08-23T08:36:39Z</time>
      </trkpt>
      <trkpt lat="45.10438" lon="2.67809">
        <ele>1444.4</ele>
        <time>2021-08-23T08:36:41Z</time>
      </trkpt>
      <trkpt lat="45.10441" lon="2.67806">
        <ele>1445.2</ele>
        <time>2021-08-23T08:36:43Z</time>
      </trkpt>
      <trkpt lat="45.10443" lon="2.67802">
        <ele>1446</ele>
        <time>2021-08-23T08:36:45Z</time>
      </trkpt>
      <trkpt lat="45.10445" lon="2.67798">
        <ele>1446.5</ele>
        <time>2021-08-23T08:36:47Z</time>
      </trkpt>
      <trkpt lat="45.10447" lon="2.67793">
        <ele>1446.7</ele>
        <time>2021-08-23T08:36:49Z</time>
      </trkpt>
      <trkpt lat="45.10449" lon="2.67789">
        <ele>1447.1</ele>
        <time>2021-08-23T08:36:51Z</time>
      </trkpt>
      <trkpt lat="45.1045" lon="2.67784">
        <ele>1446.9</ele>
        <time>2021-08-23T08:36:53Z</time>
      </trkpt>
      <trkpt lat="45.10452" lon="2.67779">
        <ele>1446.8</ele>
        <time>2021-08-23T08:36:55Z</time>
      </trkpt>
      <trkpt lat="45.10453" lon="2.67774">
        <ele>1446.6</ele>
        <time>2021-08-23T08:36:57Z</time>
      </trkpt>
      <trkpt lat="45.10454" lon="2.6777">
        <ele>1446.3</ele>
        <time>2021-08-23T08:36:59Z</time>
      </trkpt>
      <trkpt lat="45.10455" lon="2.67765">
        <ele>1445.8</ele>
        <time>2021-08-23T08:37:01Z</time>
      </trkpt>
      <trkpt lat="45.10456" lon="2.6776">
        <ele>1445.4</ele>
        <time>2021-08-23T08:37:03Z</time>
      </trkpt>
      <trkpt lat="45.10457" lon="2.67755">
        <ele>1445.1</ele>
        <time>2021-08-23T08:37:05Z</time>
      </trkpt>
      <trkpt lat="45.10458" lon="2.67751">
        <ele>1445</ele>
        <time>2021-08-23T08:37:07Z</time>
      </trkpt>
      <trkpt lat="45.10459" lon="2.67746">
        <ele>1444.4</ele>
        <time>2021-08-23T08:37:09Z</time>
      </trkpt>
      <trkpt lat="45.1046" lon="2.67741">
        <ele>1443.9</ele>
        <time>2021-08-23T08:37:11Z</time>
      </trkpt>
      <trkpt lat="45.10462" lon="2.67736">
        <ele>1443.9</ele>
        <time>2021-08-23T08:37:13Z</time>
      </trkpt>
      <trkpt lat="45.10463" lon="2.67731">
        <ele>1443.4</ele>
        <time>2021-08-23T08:37:15Z</time>
      </trkpt>
      <trkpt lat="45.10464" lon="2.67727">
        <ele>1443.1</ele>
        <time>2021-08-23T08:37:17Z</time>
      </trkpt>
      <trkpt lat="45.10465" lon="2.67722">
        <ele>1443.1</ele>
        <time>2021-08-23T08:37:19Z</time>
      </trkpt>
      <trkpt lat="45.10467" lon="2.67717">
        <ele>1442.7</ele>
        <time>2021-08-23T08:37:21Z</time>
      </trkpt>
      <trkpt lat="45.10468" lon="2.67712">
        <ele>1442.6</ele>
        <time>2021-08-23T08:37:23Z</time>
      </trkpt>
      <trkpt lat="45.1047" lon="2.67708">
        <ele>1442.8</ele>
        <time>2021-08-23T08:37:25Z</time>
      </trkpt>
      <trkpt lat="45.10472" lon="2.67703">
        <ele>1442.5</ele>
        <time>2021-08-23T08:37:27Z</time>
      </trkpt>
      <trkpt lat="45.10474" lon="2.67698">
        <ele>1442.9</ele>
        <time>2021-08-23T08:37:29Z</time>
      </trkpt>
      <trkpt lat="45.10476" lon="2.67694">
        <ele>1443.1</ele>
        <time>2021-08-23T08:37:31Z</time>
      </trkpt>
      <trkpt lat="45.10478" lon="2.6769">
        <ele>1443.3</ele>
        <time>2021-08-23T08:37:33Z</time>
      </trkpt>
      <trkpt lat="45.1048" lon="2.67686">
        <ele>1443.9</ele>
        <time>2021-08-23T08:37:35Z</time>
      </trkpt>
      <trkpt lat="45.10482" lon="2.67683">
        <ele>1444.3</ele>
        <time>2021-08-23T08:37:37Z</time>
      </trkpt>
      <trkpt lat="45.10485" lon="2.67679">
        <ele>1445.2</ele>
        <time>2021-08-23T08:37:39Z</time>
      </trkpt>
      <trkpt lat="45.10487" lon="2.67676">
        <ele>1445.7</ele>
        <time>2021-08-23T08:37:41Z</time>
      </trkpt>
      <trkpt lat="45.1049" lon="2.67672">
        <ele>1446.3</ele>
        <time>2021-08-23T08:37:43Z</time>
      </trkpt>
      <trkpt lat="45.10492" lon="2.67668">
        <ele>1446.9</ele>
        <time>2021-08-23T08:37:45Z</time>
      </trkpt>
      <trkpt lat="45.10495" lon="2.67665">
        <ele>1447.6</ele>
        <time>2021-08-23T08:37:47Z</time>
      </trkpt>
      <trkpt lat="45.10497" lon="2.67661">
        <ele>1448.4</ele>
        <time>2021-08-23T08:37:49Z</time>
      </trkpt>
      <trkpt lat="45.10499" lon="2.67656">
        <ele>1448.9</ele>
        <time>2021-08-23T08:37:51Z</time>
      </trkpt>
      <trkpt lat="45.10501" lon="2.67652">
        <ele>1449.3</ele>
        <time>2021-08-23T08:37:53Z</time>
      </trkpt>
      <trkpt lat="45.10503" lon="2.67648">
        <ele>1450.2</ele>
        <time>2021-08-23T08:37:55Z</time>
      </trkpt>
      <trkpt lat="45.10505" lon="2.67643">
        <ele>1450.8</ele>
        <time>2021-08-23T08:37:57Z</time>
      </trkpt>
      <trkpt lat="45.10507" lon="2.67638">
        <ele>1451.4</ele>
        <time>2021-08-23T08:37:59Z</time>
      </trkpt>
      <trkpt lat="45.10509" lon="2.67634">
        <ele>1452.2</ele>
        <time>2021-08-23T08:38:01Z</time>
      </trkpt>
      <trkpt lat="45.10511" lon="2.67629">
        <ele>1453</ele>
        <time>2021-08-23T08:38:03Z</time>
      </trkpt>
      <trkpt lat="45.10513" lon="2.67625">
        <ele>1453.6</ele>
        <time>2021-08-23T08:38:05Z</time>
      </trkpt>
      <trkpt lat="45.10515" lon="2.6762">
        <ele>1454.5</ele>
        <time>2021-08-23T08:38:07Z</time>
      </trkpt>
      <trkpt lat="45.10517" lon="2.67615">
        <ele>1455.2</ele>
        <time>2021-08-23T08:38:09Z</time>
      </trkpt>
      <trkpt lat="45.10519" lon="2.67611">
        <ele>1456.1</ele>
        <time>2021-08-23T08:38:11Z</time>
      </trkpt>
      <trkpt lat="45.10521" lon="2.67606">
        <ele>1456.7</ele>
        <time>2021-08-23T08:38:13Z</time>
      </trkpt>
      <trkpt lat="45.10523" lon="2.67602">
        <ele>1457.6</ele>
        <time>2021-08-23T08:38:15Z</time>
      </trkpt>
      <trkpt lat="45.10525" lon="2.67598">
        <ele>1458.4</ele>
        <time>2021-08-23T08:38:17Z</time>
      </trkpt>
      <trkpt lat="45.10527" lon="2.67593">
        <ele>1459.6</ele>
        <time>2021-08-23T08:38:19Z</time>
      </trkpt>
      <trkpt lat="45.10529" lon="2.67589">
        <ele>1460.4</ele>
        <time>2021-08-23T08:38:21Z</time>
      </trkpt>
      <trkpt lat="45.10531" lon="2.67584">
        <ele>1461.5</ele>
        <time>2021-08-23T08:38:23Z</time>
      </trkpt>
      <trkpt lat="45.10533" lon="2.67579">
        <ele>1462.2</ele>
        <time>2021-08-23T08:38:25Z</time>
      </trkpt>
      <trkpt lat="45.10534" lon="2.67574">
        <ele>1462.7</ele>
        <time>2021-08-23T08:38:27Z</time>
      </trkpt>
      <trkpt lat="45.10536" lon="2.6757">
        <ele>1463.8</ele>
        <time>2021-08-23T08:38:29Z</time>
      </trkpt>
      <trkpt lat="45.10537" lon="2.67565">
        <ele>1464.4</ele>
        <time>2021-08-23T08:38:31Z</time>
      </trkpt>
      <trkpt lat="45.10539" lon="2.6756">
        <ele>1464.9</ele>
        <time>2021-08-23T08:38:33Z</time>
      </trkpt>
      <trkpt lat="45.1054" lon="2.67555">
        <ele>1465.5</ele>
        <time>2021-08-23T08:38:35Z</time>
      </trkpt>
      <trkpt lat="45.10542" lon="2.6755">
        <ele>1466.5</ele>
        <time>2021-08-23T08:38:37Z</time>
      </trkpt>
      <trkpt lat="45.10543" lon="2.67545">
        <ele>1467.2</ele>
        <time>2021-08-23T08:38:39Z</time>
      </trkpt>
      <trkpt lat="45.10545" lon="2.6754">
        <ele>1467.9</ele>
        <time>2021-08-23T08:38:41Z</time>
      </trkpt>
      <trkpt lat="45.10547" lon="2.67536">
        <ele>1468.7</ele>
        <time>2021-08-23T08:38:43Z</time>
      </trkpt>
      <trkpt lat="45.10549" lon="2.67531">
        <ele>1469.9</ele>
        <time>2021-08-23T08:38:45Z</time>
      </trkpt>
      <trkpt lat="45.10551" lon="2.67526">
        <ele>1470.9</ele>
        <time>2021-08-23T08:38:47Z</time>
      </trkpt>
      <trkpt lat="45.10553" lon="2.67522">
        <ele>1471.9</ele>
        <time>2021-08-23T08:38:49Z</time>
      </trkpt>
      <trkpt lat="45.10554" lon="2.67517">
        <ele>1472.6</ele>
        <time>2021-08-23T08:38:51Z</time>
      </trkpt>
      <trkpt lat="45.10556" lon="2.67512">
        <ele>1473.4</ele>
        <time>2021-08-23T08:38:53Z</time>
      </trkpt>
      <trkpt lat="45.10558" lon="2.67507">
        <ele>1474.1</ele>
        <time>2021-08-23T08:38:55Z</time>
      </trkpt>
      <trkpt lat="45.10559" lon="2.67502">
        <ele>1474.4</ele>
        <time>2021-08-23T08:38:57Z</time>
      </trkpt>
      <trkpt lat="45.10559" lon="2.67496">
        <ele>1475</ele>
        <time>2021-08-23T08:38:59Z</time>
      </trkpt>
      <trkpt lat="45.10559" lon="2.67491">
        <ele>1475.3</ele>
        <time>2021-08-23T08:39:01Z</time>
      </trkpt>
      <trkpt lat="45.10558" lon="2.67485">
        <ele>1475.2</ele>
        <time>2021-08-23T08:39:03Z</time>
      </trkpt>
      <trkpt lat="45.10556" lon="2.6748">
        <ele>1474.5</ele>
        <time>2021-08-23T08:39:05Z</time>
      </trkpt>
      <trkpt lat="45.10554" lon="2.67475">
        <ele>1473.7</ele>
        <time>2021-08-23T08:39:07Z</time>
      </trkpt>
      <trkpt lat="45.10553" lon="2.6747">
        <ele>1473.1</ele>
        <time>2021-08-23T08:39:09Z</time>
      </trkpt>
      <trkpt lat="45.1055" lon="2.67464">
        <ele>1472.1</ele>
        <time>2021-08-23T08:39:11Z</time>
      </trkpt>
      <trkpt lat="45.10548" lon="2.67459">
        <ele>1471.1</ele>
        <time>2021-08-23T08:39:13Z</time>
      </trkpt>
      <trkpt lat="45.10545" lon="2.67454">
        <ele>1469.8</ele>
        <time>2021-08-23T08:39:15Z</time>
      </trkpt>
      <trkpt lat="45.10542" lon="2.67449">
        <ele>1468.9</ele>
        <time>2021-08-23T08:39:17Z</time>
      </trkpt>
      <trkpt lat="45.1054" lon="2.67443">
        <ele>1468.1</ele>
        <time>2021-08-23T08:39:19Z</time>
      </trkpt>
      <trkpt lat="45.1054" lon="2.67439">
        <ele>1468.1</ele>
        <time>2021-08-23T08:39:21Z</time>
      </trkpt>
      <trkpt lat="45.10538" lon="2.67433">
        <ele>1468.1</ele>
        <time>2021-08-23T08:39:23Z</time>
      </trkpt>
      <trkpt lat="45.10538" lon="2.67427">
        <ele>1468.5</ele>
        <time>2021-08-23T08:39:25Z</time>
      </trkpt>
      <trkpt lat="45.10538" lon="2.67421">
        <ele>1469.2</ele>
        <time>2021-08-23T08:39:27Z</time>
      </trkpt>
      <trkpt lat="45.10538" lon="2.67415">
        <ele>1470.1</ele>
        <time>2021-08-23T08:39:29Z</time>
      </trkpt>
      <trkpt lat="45.10539" lon="2.67406">
        <ele>1472.1</ele>
        <time>2021-08-23T08:39:31Z</time>
      </trkpt>
      <trkpt lat="45.10539" lon="2.67401">
        <ele>1473.7</ele>
        <time>2021-08-23T08:39:33Z</time>
      </trkpt>
      <trkpt lat="45.1054" lon="2.67394">
        <ele>1475.2</ele>
        <time>2021-08-23T08:39:35Z</time>
      </trkpt>
      <trkpt lat="45.1054" lon="2.67388">
        <ele>1476.5</ele>
        <time>2021-08-23T08:39:37Z</time>
      </trkpt>
      <trkpt lat="45.1054" lon="2.67382">
        <ele>1477.7</ele>
        <time>2021-08-23T08:39:39Z</time>
      </trkpt>
      <trkpt lat="45.10541" lon="2.67376">
        <ele>1479.1</ele>
        <time>2021-08-23T08:39:41Z</time>
      </trkpt>
      <trkpt lat="45.1054" lon="2.6737">
        <ele>1479.9</ele>
        <time>2021-08-23T08:39:43Z</time>
      </trkpt>
      <trkpt lat="45.10539" lon="2.67363">
        <ele>1480.7</ele>
        <time>2021-08-23T08:39:45Z</time>
      </trkpt>
      <trkpt lat="45.10539" lon="2.67357">
        <ele>1481.6</ele>
        <time>2021-08-23T08:39:47Z</time>
      </trkpt>
      <trkpt lat="45.10537" lon="2.67351">
        <ele>1481.8</ele>
        <time>2021-08-23T08:39:49Z</time>
      </trkpt>
      <trkpt lat="45.10535" lon="2.67345">
        <ele>1481.8</ele>
        <time>2021-08-23T08:39:51Z</time>
      </trkpt>
      <trkpt lat="45.10532" lon="2.6734">
        <ele>1481.4</ele>
        <time>2021-08-23T08:39:53Z</time>
      </trkpt>
      <trkpt lat="45.10528" lon="2.67336">
        <ele>1480.1</ele>
        <time>2021-08-23T08:39:55Z</time>
      </trkpt>
      <trkpt lat="45.10524" lon="2.67331">
        <ele>1479.4</ele>
        <time>2021-08-23T08:39:57Z</time>
      </trkpt>
      <trkpt lat="45.10519" lon="2.67328">
        <ele>1478.3</ele>
        <time>2021-08-23T08:39:59Z</time>
      </trkpt>
      <trkpt lat="45.10514" lon="2.67325">
        <ele>1477.3</ele>
        <time>2021-08-23T08:40:01Z</time>
      </trkpt>
      <trkpt lat="45.1051" lon="2.67322">
        <ele>1476.5</ele>
        <time>2021-08-23T08:40:03Z</time>
      </trkpt>
      <trkpt lat="45.10504" lon="2.6732">
        <ele>1475.1</ele>
        <time>2021-08-23T08:40:05Z</time>
      </trkpt>
      <trkpt lat="45.10501" lon="2.67318">
        <ele>1474.4</ele>
        <time>2021-08-23T08:40:07Z</time>
      </trkpt>
      <trkpt lat="45.10496" lon="2.67316">
        <ele>1474.2</ele>
        <time>2021-08-23T08:40:09Z</time>
      </trkpt>
      <trkpt lat="45.10489" lon="2.67314">
        <ele>1474.2</ele>
        <time>2021-08-23T08:40:11Z</time>
      </trkpt>
      <trkpt lat="45.10484" lon="2.67313">
        <ele>1473.7</ele>
        <time>2021-08-23T08:40:13Z</time>
      </trkpt>
      <trkpt lat="45.10479" lon="2.67313">
        <ele>1473.1</ele>
        <time>2021-08-23T08:40:15Z</time>
      </trkpt>
      <trkpt lat="45.10474" lon="2.67313">
        <ele>1472.2</ele>
        <time>2021-08-23T08:40:17Z</time>
      </trkpt>
      <trkpt lat="45.10469" lon="2.67313">
        <ele>1471.5</ele>
        <time>2021-08-23T08:40:19Z</time>
      </trkpt>
      <trkpt lat="45.10465" lon="2.67313">
        <ele>1470.7</ele>
        <time>2021-08-23T08:40:21Z</time>
      </trkpt>
      <trkpt lat="45.1046" lon="2.67313">
        <ele>1470</ele>
        <time>2021-08-23T08:40:23Z</time>
      </trkpt>
      <trkpt lat="45.10455" lon="2.67313">
        <ele>1469</ele>
        <time>2021-08-23T08:40:25Z</time>
      </trkpt>
      <trkpt lat="45.10451" lon="2.67314">
        <ele>1468.1</ele>
        <time>2021-08-23T08:40:27Z</time>
      </trkpt>
      <trkpt lat="45.10446" lon="2.67314">
        <ele>1467.3</ele>
        <time>2021-08-23T08:40:29Z</time>
      </trkpt>
      <trkpt lat="45.10442" lon="2.67314">
        <ele>1466.5</ele>
        <time>2021-08-23T08:40:31Z</time>
      </trkpt>
      <trkpt lat="45.10438" lon="2.67315">
        <ele>1465.5</ele>
        <time>2021-08-23T08:40:33Z</time>
      </trkpt>
      <trkpt lat="45.10433" lon="2.67315">
        <ele>1465</ele>
        <time>2021-08-23T08:40:35Z</time>
      </trkpt>
      <trkpt lat="45.10429" lon="2.67314">
        <ele>1464.7</ele>
        <time>2021-08-23T08:40:37Z</time>
      </trkpt>
      <trkpt lat="45.10425" lon="2.67313">
        <ele>1464.2</ele>
        <time>2021-08-23T08:40:39Z</time>
      </trkpt>
      <trkpt lat="45.10421" lon="2.67312">
        <ele>1463.8</ele>
        <time>2021-08-23T08:40:41Z</time>
      </trkpt>
      <trkpt lat="45.10417" lon="2.67313">
        <ele>1462.9</ele>
        <time>2021-08-23T08:40:43Z</time>
      </trkpt>
      <trkpt lat="45.10412" lon="2.67313">
        <ele>1461.2</ele>
        <time>2021-08-23T08:40:45Z</time>
      </trkpt>
      <trkpt lat="45.10409" lon="2.67313">
        <ele>1459.7</ele>
        <time>2021-08-23T08:40:47Z</time>
      </trkpt>
      <trkpt lat="45.10406" lon="2.67314">
        <ele>1458.2</ele>
        <time>2021-08-23T08:40:49Z</time>
      </trkpt>
      <trkpt lat="45.10403" lon="2.67314">
        <ele>1457.3</ele>
        <time>2021-08-23T08:40:51Z</time>
      </trkpt>
      <trkpt lat="45.10404" lon="2.67313">
        <ele>1457.8</ele>
        <time>2021-08-23T08:40:53Z</time>
      </trkpt>
      <trkpt lat="45.10405" lon="2.67313">
        <ele>1458.1</ele>
        <time>2021-08-23T08:40:55Z</time>
      </trkpt>
      <trkpt lat="45.10405" lon="2.67313">
        <ele>1458.1</ele>
        <time>2021-08-23T08:40:57Z</time>
      </trkpt>
      <trkpt lat="45.10405" lon="2.67313">
        <ele>1458.1</ele>
        <time>2021-08-23T08:41:01Z</time>
      </trkpt>
      <trkpt lat="45.10401" lon="2.67284">
        <ele>1466</ele>
        <time>2021-08-23T09:12:33Z</time>
      </trkpt>
      <trkpt lat="45.10399" lon="2.67279">
        <ele>1466.8</ele>
        <time>2021-08-23T09:12:35Z</time>
      </trkpt>
      <trkpt lat="45.10396" lon="2.67274">
        <ele>1467</ele>
        <time>2021-08-23T09:12:37Z</time>
      </trkpt>
      <trkpt lat="45.10393" lon="2.67269">
        <ele>1467.4</ele>
        <time>2021-08-23T09:12:39Z</time>
      </trkpt>
      <trkpt lat="45.1039" lon="2.67264">
        <ele>1467.8</ele>
        <time>2021-08-23T09:12:41Z</time>
      </trkpt>
      <trkpt lat="45.10387" lon="2.67259">
        <ele>1468.2</ele>
        <time>2021-08-23T09:12:43Z</time>
      </trkpt>
      <trkpt lat="45.10384" lon="2.67254">
        <ele>1468.6</ele>
        <time>2021-08-23T09:12:45Z</time>
      </trkpt>
      <trkpt lat="45.10382" lon="2.67248">
        <ele>1469</ele>
        <time>2021-08-23T09:12:47Z</time>
      </trkpt>
      <trkpt lat="45.10379" lon="2.67243">
        <ele>1469.7</ele>
        <time>2021-08-23T09:12:49Z</time>
      </trkpt>
      <trkpt lat="45.10376" lon="2.67238">
        <ele>1470.4</ele>
        <time>2021-08-23T09:12:51Z</time>
      </trkpt>
      <trkpt lat="45.10373" lon="2.67233">
        <ele>1470.7</ele>
        <time>2021-08-23T09:12:53Z</time>
      </trkpt>
      <trkpt lat="45.10371" lon="2.67228">
        <ele>1471.4</ele>
        <time>2021-08-23T09:12:55Z</time>
      </trkpt>
      <trkpt lat="45.10369" lon="2.67222">
        <ele>1472.4</ele>
        <time>2021-08-23T09:12:57Z</time>
      </trkpt>
      <trkpt lat="45.10367" lon="2.67216">
        <ele>1473.5</ele>
        <time>2021-08-23T09:12:59Z</time>
      </trkpt>
      <trkpt lat="45.10365" lon="2.6721">
        <ele>1474.5</ele>
        <time>2021-08-23T09:13:01Z</time>
      </trkpt>
      <trkpt lat="45.10364" lon="2.67203">
        <ele>1476.2</ele>
        <time>2021-08-23T09:13:03Z</time>
      </trkpt>
      <trkpt lat="45.10363" lon="2.67197">
        <ele>1477.4</ele>
        <time>2021-08-23T09:13:05Z</time>
      </trkpt>
      <trkpt lat="45.10361" lon="2.6719">
        <ele>1478.7</ele>
        <time>2021-08-23T09:13:07Z</time>
      </trkpt>
      <trkpt lat="45.1036" lon="2.67184">
        <ele>1480.2</ele>
        <time>2021-08-23T09:13:09Z</time>
      </trkpt>
      <trkpt lat="45.10359" lon="2.67177">
        <ele>1481.9</ele>
        <time>2021-08-23T09:13:11Z</time>
      </trkpt>
      <trkpt lat="45.10359" lon="2.67171">
        <ele>1483.6</ele>
        <time>2021-08-23T09:13:13Z</time>
      </trkpt>
      <trkpt lat="45.10358" lon="2.67164">
        <ele>1485.6</ele>
        <time>2021-08-23T09:13:15Z</time>
      </trkpt>
      <trkpt lat="45.10358" lon="2.67157">
        <ele>1488.5</ele>
        <time>2021-08-23T09:13:17Z</time>
      </trkpt>
      <trkpt lat="45.10358" lon="2.6715">
        <ele>1491.8</ele>
        <time>2021-08-23T09:13:19Z</time>
      </trkpt>
      <trkpt lat="45.10358" lon="2.67144">
        <ele>1495</ele>
        <time>2021-08-23T09:13:21Z</time>
      </trkpt>
      <trkpt lat="45.10357" lon="2.67137">
        <ele>1497.9</ele>
        <time>2021-08-23T09:13:23Z</time>
      </trkpt>
      <trkpt lat="45.10357" lon="2.6713">
        <ele>1500.6</ele>
        <time>2021-08-23T09:13:25Z</time>
      </trkpt>
      <trkpt lat="45.10356" lon="2.67124">
        <ele>1503</ele>
        <time>2021-08-23T09:13:27Z</time>
      </trkpt>
      <trkpt lat="45.10354" lon="2.67117">
        <ele>1504.7</ele>
        <time>2021-08-23T09:13:29Z</time>
      </trkpt>
      <trkpt lat="45.10351" lon="2.67112">
        <ele>1505.2</ele>
        <time>2021-08-23T09:13:31Z</time>
      </trkpt>
      <trkpt lat="45.10347" lon="2.67107">
        <ele>1504.5</ele>
        <time>2021-08-23T09:13:33Z</time>
      </trkpt>
      <trkpt lat="45.10343" lon="2.67103">
        <ele>1503.5</ele>
        <time>2021-08-23T09:13:35Z</time>
      </trkpt>
      <trkpt lat="45.10339" lon="2.671">
        <ele>1502.3</ele>
        <time>2021-08-23T09:13:37Z</time>
      </trkpt>
      <trkpt lat="45.10334" lon="2.67098">
        <ele>1499.6</ele>
        <time>2021-08-23T09:13:39Z</time>
      </trkpt>
      <trkpt lat="45.1033" lon="2.67095">
        <ele>1498.8</ele>
        <time>2021-08-23T09:13:41Z</time>
      </trkpt>
      <trkpt lat="45.10326" lon="2.67092">
        <ele>1497.9</ele>
        <time>2021-08-23T09:13:43Z</time>
      </trkpt>
      <trkpt lat="45.10322" lon="2.67088">
        <ele>1497.5</ele>
        <time>2021-08-23T09:13:45Z</time>
      </trkpt>
      <trkpt lat="45.10318" lon="2.67085">
        <ele>1496.9</ele>
        <time>2021-08-23T09:13:47Z</time>
      </trkpt>
      <trkpt lat="45.10313" lon="2.67082">
        <ele>1496.1</ele>
        <time>2021-08-23T09:13:49Z</time>
      </trkpt>
      <trkpt lat="45.10309" lon="2.67079">
        <ele>1494.7</ele>
        <time>2021-08-23T09:13:51Z</time>
      </trkpt>
      <trkpt lat="45.10305" lon="2.67076">
        <ele>1493.2</ele>
        <time>2021-08-23T09:13:53Z</time>
      </trkpt>
      <trkpt lat="45.10301" lon="2.67073">
        <ele>1491.8</ele>
        <time>2021-08-23T09:13:55Z</time>
      </trkpt>
      <trkpt lat="45.10297" lon="2.67071">
        <ele>1490.4</ele>
        <time>2021-08-23T09:13:57Z</time>
      </trkpt>
      <trkpt lat="45.10293" lon="2.67067">
        <ele>1489.1</ele>
        <time>2021-08-23T09:13:59Z</time>
      </trkpt>
      <trkpt lat="45.10288" lon="2.67065">
        <ele>1487.6</ele>
        <time>2021-08-23T09:14:01Z</time>
      </trkpt>
      <trkpt lat="45.10284" lon="2.67062">
        <ele>1486.2</ele>
        <time>2021-08-23T09:14:03Z</time>
      </trkpt>
      <trkpt lat="45.1028" lon="2.6706">
        <ele>1484.6</ele>
        <time>2021-08-23T09:14:05Z</time>
      </trkpt>
      <trkpt lat="45.10276" lon="2.67057">
        <ele>1483.1</ele>
        <time>2021-08-23T09:14:07Z</time>
      </trkpt>
      <trkpt lat="45.10271" lon="2.67055">
        <ele>1481.4</ele>
        <time>2021-08-23T09:14:09Z</time>
      </trkpt>
      <trkpt lat="45.10267" lon="2.67053">
        <ele>1479.8</ele>
        <time>2021-08-23T09:14:11Z</time>
      </trkpt>
      <trkpt lat="45.10262" lon="2.67051">
        <ele>1478.2</ele>
        <time>2021-08-23T09:14:13Z</time>
      </trkpt>
      <trkpt lat="45.10257" lon="2.67049">
        <ele>1476.5</ele>
        <time>2021-08-23T09:14:15Z</time>
      </trkpt>
      <trkpt lat="45.10253" lon="2.67047">
        <ele>1475.1</ele>
        <time>2021-08-23T09:14:17Z</time>
      </trkpt>
      <trkpt lat="45.1025" lon="2.67043">
        <ele>1474.2</ele>
        <time>2021-08-23T09:14:19Z</time>
      </trkpt>
      <trkpt lat="45.10246" lon="2.6704">
        <ele>1473.4</ele>
        <time>2021-08-23T09:14:21Z</time>
      </trkpt>
      <trkpt lat="45.10242" lon="2.67036">
        <ele>1472.7</ele>
        <time>2021-08-23T09:14:23Z</time>
      </trkpt>
      <trkpt lat="45.10238" lon="2.67033">
        <ele>1471.9</ele>
        <time>2021-08-23T09:14:25Z</time>
      </trkpt>
      <trkpt lat="45.10235" lon="2.67028">
        <ele>1471.5</ele>
        <time>2021-08-23T09:14:27Z</time>
      </trkpt>
      <trkpt lat="45.10232" lon="2.67022">
        <ele>1471.6</ele>
        <time>2021-08-23T09:14:29Z</time>
      </trkpt>
      <trkpt lat="45.10231" lon="2.67016">
        <ele>1471.8</ele>
        <time>2021-08-23T09:14:31Z</time>
      </trkpt>
      <trkpt lat="45.1023" lon="2.6701">
        <ele>1472.6</ele>
        <time>2021-08-23T09:14:33Z</time>
      </trkpt>
      <trkpt lat="45.10231" lon="2.67004">
        <ele>1473.8</ele>
        <time>2021-08-23T09:14:35Z</time>
      </trkpt>
      <trkpt lat="45.10234" lon="2.66999">
        <ele>1475.2</ele>
        <time>2021-08-23T09:14:37Z</time>
      </trkpt>
      <trkpt lat="45.10238" lon="2.66994">
        <ele>1475.3</ele>
        <time>2021-08-23T09:14:39Z</time>
      </trkpt>
      <trkpt lat="45.10241" lon="2.6699">
        <ele>1475.6</ele>
        <time>2021-08-23T09:14:41Z</time>
      </trkpt>
      <trkpt lat="45.10246" lon="2.66987">
        <ele>1476.2</ele>
        <time>2021-08-23T09:14:43Z</time>
      </trkpt>
      <trkpt lat="45.10249" lon="2.66982">
        <ele>1476.4</ele>
        <time>2021-08-23T09:14:45Z</time>
      </trkpt>
      <trkpt lat="45.10253" lon="2.66979">
        <ele>1476.8</ele>
        <time>2021-08-23T09:14:47Z</time>
      </trkpt>
      <trkpt lat="45.10257" lon="2.66975">
        <ele>1477.6</ele>
        <time>2021-08-23T09:14:49Z</time>
      </trkpt>
      <trkpt lat="45.10261" lon="2.66972">
        <ele>1478.5</ele>
        <time>2021-08-23T09:14:51Z</time>
      </trkpt>
      <trkpt lat="45.10266" lon="2.66969">
        <ele>1479.6</ele>
        <time>2021-08-23T09:14:53Z</time>
      </trkpt>
      <trkpt lat="45.10271" lon="2.66967">
        <ele>1481.1</ele>
        <time>2021-08-23T09:14:55Z</time>
      </trkpt>
      <trkpt lat="45.10276" lon="2.66966">
        <ele>1483.1</ele>
        <time>2021-08-23T09:14:57Z</time>
      </trkpt>
      <trkpt lat="45.10282" lon="2.66965">
        <ele>1485.4</ele>
        <time>2021-08-23T09:14:59Z</time>
      </trkpt>
      <trkpt lat="45.10287" lon="2.66965">
        <ele>1487.5</ele>
        <time>2021-08-23T09:15:01Z</time>
      </trkpt>
      <trkpt lat="45.10293" lon="2.66964">
        <ele>1489.6</ele>
        <time>2021-08-23T09:15:03Z</time>
      </trkpt>
      <trkpt lat="45.10297" lon="2.66963">
        <ele>1491.5</ele>
        <time>2021-08-23T09:15:05Z</time>
      </trkpt>
      <trkpt lat="45.10303" lon="2.66962">
        <ele>1493.5</ele>
        <time>2021-08-23T09:15:07Z</time>
      </trkpt>
      <trkpt lat="45.10308" lon="2.66961">
        <ele>1495.3</ele>
        <time>2021-08-23T09:15:09Z</time>
      </trkpt>
      <trkpt lat="45.10313" lon="2.66959">
        <ele>1496.9</ele>
        <time>2021-08-23T09:15:11Z</time>
      </trkpt>
      <trkpt lat="45.10318" lon="2.66956">
        <ele>1498.1</ele>
        <time>2021-08-23T09:15:13Z</time>
      </trkpt>
      <trkpt lat="45.10323" lon="2.66953">
        <ele>1499.5</ele>
        <time>2021-08-23T09:15:15Z</time>
      </trkpt>
      <trkpt lat="45.10328" lon="2.66949">
        <ele>1500.4</ele>
        <time>2021-08-23T09:15:17Z</time>
      </trkpt>
      <trkpt lat="45.10332" lon="2.66945">
        <ele>1501.2</ele>
        <time>2021-08-23T09:15:19Z</time>
      </trkpt>
      <trkpt lat="45.10337" lon="2.66941">
        <ele>1501.9</ele>
        <time>2021-08-23T09:15:21Z</time>
      </trkpt>
      <trkpt lat="45.10341" lon="2.66936">
        <ele>1502.5</ele>
        <time>2021-08-23T09:15:23Z</time>
      </trkpt>
      <trkpt lat="45.10345" lon="2.66932">
        <ele>1503.1</ele>
        <time>2021-08-23T09:15:25Z</time>
      </trkpt>
      <trkpt lat="45.10349" lon="2.66927">
        <ele>1503.7</ele>
        <time>2021-08-23T09:15:27Z</time>
      </trkpt>
      <trkpt lat="45.10353" lon="2.66921">
        <ele>1503.8</ele>
        <time>2021-08-23T09:15:29Z</time>
      </trkpt>
      <trkpt lat="45.10357" lon="2.66916">
        <ele>1504.1</ele>
        <time>2021-08-23T09:15:31Z</time>
      </trkpt>
      <trkpt lat="45.10361" lon="2.66911">
        <ele>1504.6</ele>
        <time>2021-08-23T09:15:33Z</time>
      </trkpt>
      <trkpt lat="45.10366" lon="2.66906">
        <ele>1505.3</ele>
        <time>2021-08-23T09:15:35Z</time>
      </trkpt>
      <trkpt lat="45.10369" lon="2.66901">
        <ele>1505.8</ele>
        <time>2021-08-23T09:15:37Z</time>
      </trkpt>
      <trkpt lat="45.10373" lon="2.66895">
        <ele>1506.1</ele>
        <time>2021-08-23T09:15:39Z</time>
      </trkpt>
      <trkpt lat="45.10376" lon="2.66889">
        <ele>1506.1</ele>
        <time>2021-08-23T09:15:41Z</time>
      </trkpt>
      <trkpt lat="45.10379" lon="2.66883">
        <ele>1505.8</ele>
        <time>2021-08-23T09:15:43Z</time>
      </trkpt>
      <trkpt lat="45.1038" lon="2.66875">
        <ele>1504.8</ele>
        <time>2021-08-23T09:15:45Z</time>
      </trkpt>
      <trkpt lat="45.10383" lon="2.66868">
        <ele>1504.1</ele>
        <time>2021-08-23T09:15:47Z</time>
      </trkpt>
      <trkpt lat="45.10385" lon="2.6686">
        <ele>1503.6</ele>
        <time>2021-08-23T09:15:49Z</time>
      </trkpt>
      <trkpt lat="45.10388" lon="2.66854">
        <ele>1503.7</ele>
        <time>2021-08-23T09:15:51Z</time>
      </trkpt>
      <trkpt lat="45.10392" lon="2.66849">
        <ele>1504.4</ele>
        <time>2021-08-23T09:15:53Z</time>
      </trkpt>
      <trkpt lat="45.10396" lon="2.66843">
        <ele>1504.9</ele>
        <time>2021-08-23T09:15:55Z</time>
      </trkpt>
      <trkpt lat="45.10399" lon="2.66837">
        <ele>1505.4</ele>
        <time>2021-08-23T09:15:57Z</time>
      </trkpt>
      <trkpt lat="45.10402" lon="2.6683">
        <ele>1506.4</ele>
        <time>2021-08-23T09:15:59Z</time>
      </trkpt>
      <trkpt lat="45.10405" lon="2.66824">
        <ele>1508.3</ele>
        <time>2021-08-23T09:16:01Z</time>
      </trkpt>
      <trkpt lat="45.10408" lon="2.66818">
        <ele>1509.9</ele>
        <time>2021-08-23T09:16:03Z</time>
      </trkpt>
      <trkpt lat="45.10409" lon="2.66811">
        <ele>1510.8</ele>
        <time>2021-08-23T09:16:05Z</time>
      </trkpt>
      <trkpt lat="45.10409" lon="2.66803">
        <ele>1510.9</ele>
        <time>2021-08-23T09:16:07Z</time>
      </trkpt>
      <trkpt lat="45.10408" lon="2.66796">
        <ele>1510.7</ele>
        <time>2021-08-23T09:16:09Z</time>
      </trkpt>
      <trkpt lat="45.10407" lon="2.66788">
        <ele>1510.5</ele>
        <time>2021-08-23T09:16:11Z</time>
      </trkpt>
      <trkpt lat="45.10406" lon="2.66781">
        <ele>1510.2</ele>
        <time>2021-08-23T09:16:13Z</time>
      </trkpt>
      <trkpt lat="45.10405" lon="2.66773">
        <ele>1510</ele>
        <time>2021-08-23T09:16:15Z</time>
      </trkpt>
      <trkpt lat="45.10404" lon="2.66766">
        <ele>1509.8</ele>
        <time>2021-08-23T09:16:17Z</time>
      </trkpt>
      <trkpt lat="45.10403" lon="2.66758">
        <ele>1509.4</ele>
        <time>2021-08-23T09:16:19Z</time>
      </trkpt>
      <trkpt lat="45.10403" lon="2.66751">
        <ele>1509.3</ele>
        <time>2021-08-23T09:16:21Z</time>
      </trkpt>
      <trkpt lat="45.10402" lon="2.66744">
        <ele>1509.6</ele>
        <time>2021-08-23T09:16:23Z</time>
      </trkpt>
      <trkpt lat="45.10401" lon="2.66738">
        <ele>1510.1</ele>
        <time>2021-08-23T09:16:25Z</time>
      </trkpt>
      <trkpt lat="45.10399" lon="2.66731">
        <ele>1510</ele>
        <time>2021-08-23T09:16:27Z</time>
      </trkpt>
      <trkpt lat="45.10398" lon="2.66724">
        <ele>1510.5</ele>
        <time>2021-08-23T09:16:29Z</time>
      </trkpt>
      <trkpt lat="45.10397" lon="2.66718">
        <ele>1510.8</ele>
        <time>2021-08-23T09:16:31Z</time>
      </trkpt>
      <trkpt lat="45.10396" lon="2.66711">
        <ele>1510.9</ele>
        <time>2021-08-23T09:16:33Z</time>
      </trkpt>
      <trkpt lat="45.10394" lon="2.66705">
        <ele>1510.9</ele>
        <time>2021-08-23T09:16:35Z</time>
      </trkpt>
      <trkpt lat="45.10393" lon="2.66698">
        <ele>1511.1</ele>
        <time>2021-08-23T09:16:37Z</time>
      </trkpt>
      <trkpt lat="45.10391" lon="2.66692">
        <ele>1511.4</ele>
        <time>2021-08-23T09:16:39Z</time>
      </trkpt>
      <trkpt lat="45.1039" lon="2.66686">
        <ele>1511.4</ele>
        <time>2021-08-23T09:16:41Z</time>
      </trkpt>
      <trkpt lat="45.10389" lon="2.66679">
        <ele>1511.6</ele>
        <time>2021-08-23T09:16:43Z</time>
      </trkpt>
      <trkpt lat="45.10388" lon="2.66674">
        <ele>1512.3</ele>
        <time>2021-08-23T09:16:45Z</time>
      </trkpt>
      <trkpt lat="45.10388" lon="2.66668">
        <ele>1512.9</ele>
        <time>2021-08-23T09:16:47Z</time>
      </trkpt>
      <trkpt lat="45.10388" lon="2.66663">
        <ele>1513.8</ele>
        <time>2021-08-23T09:16:49Z</time>
      </trkpt>
      <trkpt lat="45.10387" lon="2.66657">
        <ele>1514.5</ele>
        <time>2021-08-23T09:16:51Z</time>
      </trkpt>
      <trkpt lat="45.10387" lon="2.66651">
        <ele>1515.2</ele>
        <time>2021-08-23T09:16:53Z</time>
      </trkpt>
      <trkpt lat="45.10386" lon="2.66646">
        <ele>1515.9</ele>
        <time>2021-08-23T09:16:55Z</time>
      </trkpt>
      <trkpt lat="45.10385" lon="2.6664">
        <ele>1516.4</ele>
        <time>2021-08-23T09:16:57Z</time>
      </trkpt>
      <trkpt lat="45.10385" lon="2.66634">
        <ele>1517</ele>
        <time>2021-08-23T09:16:59Z</time>
      </trkpt>
      <trkpt lat="45.10383" lon="2.66628">
        <ele>1517</ele>
        <time>2021-08-23T09:17:01Z</time>
      </trkpt>
      <trkpt lat="45.10382" lon="2.66623">
        <ele>1517.2</ele>
        <time>2021-08-23T09:17:03Z</time>
      </trkpt>
      <trkpt lat="45.1038" lon="2.66617">
        <ele>1517.2</ele>
        <time>2021-08-23T09:17:05Z</time>
      </trkpt>
      <trkpt lat="45.10378" lon="2.66612">
        <ele>1517.1</ele>
        <time>2021-08-23T09:17:07Z</time>
      </trkpt>
      <trkpt lat="45.10375" lon="2.66608">
        <ele>1516.2</ele>
        <time>2021-08-23T09:17:09Z</time>
      </trkpt>
      <trkpt lat="45.10372" lon="2.66603">
        <ele>1515.9</ele>
        <time>2021-08-23T09:17:11Z</time>
      </trkpt>
      <trkpt lat="45.1037" lon="2.66598">
        <ele>1515.1</ele>
        <time>2021-08-23T09:17:13Z</time>
      </trkpt>
      <trkpt lat="45.10367" lon="2.66594">
        <ele>1514.4</ele>
        <time>2021-08-23T09:17:15Z</time>
      </trkpt>
      <trkpt lat="45.10365" lon="2.66589">
        <ele>1514.2</ele>
        <time>2021-08-23T09:17:17Z</time>
      </trkpt>
      <trkpt lat="45.10363" lon="2.66583">
        <ele>1514.1</ele>
        <time>2021-08-23T09:17:19Z</time>
      </trkpt>
      <trkpt lat="45.10361" lon="2.66578">
        <ele>1512.9</ele>
        <time>2021-08-23T09:17:21Z</time>
      </trkpt>
      <trkpt lat="45.1036" lon="2.66572">
        <ele>1512</ele>
        <time>2021-08-23T09:17:23Z</time>
      </trkpt>
      <trkpt lat="45.10359" lon="2.66566">
        <ele>1511.5</ele>
        <time>2021-08-23T09:17:25Z</time>
      </trkpt>
      <trkpt lat="45.10359" lon="2.6656">
        <ele>1511.1</ele>
        <time>2021-08-23T09:17:27Z</time>
      </trkpt>
      <trkpt lat="45.10359" lon="2.66554">
        <ele>1510.8</ele>
        <time>2021-08-23T09:17:29Z</time>
      </trkpt>
      <trkpt lat="45.1036" lon="2.66549">
        <ele>1511</ele>
        <time>2021-08-23T09:17:31Z</time>
      </trkpt>
      <trkpt lat="45.10361" lon="2.66543">
        <ele>1511.4</ele>
        <time>2021-08-23T09:17:33Z</time>
      </trkpt>
      <trkpt lat="45.10361" lon="2.66537">
        <ele>1511.5</ele>
        <time>2021-08-23T09:17:35Z</time>
      </trkpt>
      <trkpt lat="45.10362" lon="2.66531">
        <ele>1511.8</ele>
        <time>2021-08-23T09:17:37Z</time>
      </trkpt>
      <trkpt lat="45.10363" lon="2.66526">
        <ele>1512.2</ele>
        <time>2021-08-23T09:17:39Z</time>
      </trkpt>
      <trkpt lat="45.10364" lon="2.6652">
        <ele>1512.6</ele>
        <time>2021-08-23T09:17:41Z</time>
      </trkpt>
      <trkpt lat="45.10366" lon="2.66515">
        <ele>1513.1</ele>
        <time>2021-08-23T09:17:43Z</time>
      </trkpt>
      <trkpt lat="45.10367" lon="2.66509">
        <ele>1513.5</ele>
        <time>2021-08-23T09:17:45Z</time>
      </trkpt>
      <trkpt lat="45.10368" lon="2.66503">
        <ele>1514</ele>
        <time>2021-08-23T09:17:47Z</time>
      </trkpt>
      <trkpt lat="45.10369" lon="2.66498">
        <ele>1514.3</ele>
        <time>2021-08-23T09:17:49Z</time>
      </trkpt>
      <trkpt lat="45.1037" lon="2.66494">
        <ele>1514</ele>
        <time>2021-08-23T09:17:51Z</time>
      </trkpt>
      <trkpt lat="45.10371" lon="2.66488">
        <ele>1513.2</ele>
        <time>2021-08-23T09:17:53Z</time>
      </trkpt>
      <trkpt lat="45.10372" lon="2.66483">
        <ele>1512.7</ele>
        <time>2021-08-23T09:17:55Z</time>
      </trkpt>
      <trkpt lat="45.10374" lon="2.66479">
        <ele>1512.4</ele>
        <time>2021-08-23T09:17:57Z</time>
      </trkpt>
      <trkpt lat="45.10375" lon="2.66473">
        <ele>1511.9</ele>
        <time>2021-08-23T09:17:59Z</time>
      </trkpt>
      <trkpt lat="45.10376" lon="2.66469">
        <ele>1511.4</ele>
        <time>2021-08-23T09:18:01Z</time>
      </trkpt>
      <trkpt lat="45.10377" lon="2.66464">
        <ele>1511.1</ele>
        <time>2021-08-23T09:18:03Z</time>
      </trkpt>
      <trkpt lat="45.10378" lon="2.66459">
        <ele>1510.6</ele>
        <time>2021-08-23T09:18:05Z</time>
      </trkpt>
      <trkpt lat="45.10378" lon="2.66454">
        <ele>1509.4</ele>
        <time>2021-08-23T09:18:07Z</time>
      </trkpt>
      <trkpt lat="45.10377" lon="2.66449">
        <ele>1508.2</ele>
        <time>2021-08-23T09:18:09Z</time>
      </trkpt>
      <trkpt lat="45.10376" lon="2.66444">
        <ele>1506.3</ele>
        <time>2021-08-23T09:18:11Z</time>
      </trkpt>
      <trkpt lat="45.10375" lon="2.66439">
        <ele>1504.4</ele>
        <time>2021-08-23T09:18:13Z</time>
      </trkpt>
      <trkpt lat="45.10373" lon="2.66434">
        <ele>1502.4</ele>
        <time>2021-08-23T09:18:15Z</time>
      </trkpt>
      <trkpt lat="45.10372" lon="2.66429">
        <ele>1500.6</ele>
        <time>2021-08-23T09:18:17Z</time>
      </trkpt>
      <trkpt lat="45.10371" lon="2.66424">
        <ele>1498.9</ele>
        <time>2021-08-23T09:18:19Z</time>
      </trkpt>
      <trkpt lat="45.10371" lon="2.66419">
        <ele>1497.9</ele>
        <time>2021-08-23T09:18:21Z</time>
      </trkpt>
      <trkpt lat="45.10371" lon="2.66414">
        <ele>1497</ele>
        <time>2021-08-23T09:18:23Z</time>
      </trkpt>
      <trkpt lat="45.10372" lon="2.66409">
        <ele>1496.9</ele>
        <time>2021-08-23T09:18:25Z</time>
      </trkpt>
      <trkpt lat="45.10373" lon="2.66404">
        <ele>1497.2</ele>
        <time>2021-08-23T09:18:27Z</time>
      </trkpt>
      <trkpt lat="45.10374" lon="2.66399">
        <ele>1497.4</ele>
        <time>2021-08-23T09:18:29Z</time>
      </trkpt>
      <trkpt lat="45.10375" lon="2.66395">
        <ele>1497.7</ele>
        <time>2021-08-23T09:18:31Z</time>
      </trkpt>
      <trkpt lat="45.10377" lon="2.66391">
        <ele>1498.4</ele>
        <time>2021-08-23T09:18:33Z</time>
      </trkpt>
      <trkpt lat="45.10379" lon="2.66387">
        <ele>1498.9</ele>
        <time>2021-08-23T09:18:35Z</time>
      </trkpt>
      <trkpt lat="45.1038" lon="2.66383">
        <ele>1499.5</ele>
        <time>2021-08-23T09:18:37Z</time>
      </trkpt>
      <trkpt lat="45.10382" lon="2.66378">
        <ele>1500.2</ele>
        <time>2021-08-23T09:18:39Z</time>
      </trkpt>
      <trkpt lat="45.10384" lon="2.66373">
        <ele>1500.9</ele>
        <time>2021-08-23T09:18:41Z</time>
      </trkpt>
      <trkpt lat="45.10386" lon="2.66368">
        <ele>1501.3</ele>
        <time>2021-08-23T09:18:43Z</time>
      </trkpt>
      <trkpt lat="45.10387" lon="2.66363">
        <ele>1501.7</ele>
        <time>2021-08-23T09:18:45Z</time>
      </trkpt>
      <trkpt lat="45.10389" lon="2.66359">
        <ele>1502.2</ele>
        <time>2021-08-23T09:18:47Z</time>
      </trkpt>
      <trkpt lat="45.10391" lon="2.66354">
        <ele>1502.7</ele>
        <time>2021-08-23T09:18:49Z</time>
      </trkpt>
      <trkpt lat="45.10392" lon="2.6635">
        <ele>1503.1</ele>
        <time>2021-08-23T09:18:51Z</time>
      </trkpt>
      <trkpt lat="45.10394" lon="2.66345">
        <ele>1503.5</ele>
        <time>2021-08-23T09:18:53Z</time>
      </trkpt>
      <trkpt lat="45.10395" lon="2.6634">
        <ele>1503.7</ele>
        <time>2021-08-23T09:18:55Z</time>
      </trkpt>
      <trkpt lat="45.10396" lon="2.66336">
        <ele>1504.1</ele>
        <time>2021-08-23T09:18:57Z</time>
      </trkpt>
      <trkpt lat="45.10398" lon="2.66331">
        <ele>1504.7</ele>
        <time>2021-08-23T09:18:59Z</time>
      </trkpt>
      <trkpt lat="45.10399" lon="2.66326">
        <ele>1505.2</ele>
        <time>2021-08-23T09:19:01Z</time>
      </trkpt>
      <trkpt lat="45.10399" lon="2.66321">
        <ele>1505.4</ele>
        <time>2021-08-23T09:19:03Z</time>
      </trkpt>
      <trkpt lat="45.104" lon="2.66316">
        <ele>1506</ele>
        <time>2021-08-23T09:19:05Z</time>
      </trkpt>
      <trkpt lat="45.10401" lon="2.66311">
        <ele>1506.2</ele>
        <time>2021-08-23T09:19:07Z</time>
      </trkpt>
      <trkpt lat="45.10402" lon="2.66306">
        <ele>1506.6</ele>
        <time>2021-08-23T09:19:09Z</time>
      </trkpt>
      <trkpt lat="45.10402" lon="2.66301">
        <ele>1506.8</ele>
        <time>2021-08-23T09:19:11Z</time>
      </trkpt>
      <trkpt lat="45.10403" lon="2.66296">
        <ele>1507.3</ele>
        <time>2021-08-23T09:19:13Z</time>
      </trkpt>
      <trkpt lat="45.10404" lon="2.66291">
        <ele>1507.7</ele>
        <time>2021-08-23T09:19:15Z</time>
      </trkpt>
      <trkpt lat="45.10404" lon="2.66285">
        <ele>1507.7</ele>
        <time>2021-08-23T09:19:17Z</time>
      </trkpt>
      <trkpt lat="45.10404" lon="2.6628">
        <ele>1508</ele>
        <time>2021-08-23T09:19:19Z</time>
      </trkpt>
      <trkpt lat="45.10405" lon="2.66275">
        <ele>1508.5</ele>
        <time>2021-08-23T09:19:21Z</time>
      </trkpt>
      <trkpt lat="45.10406" lon="2.6627">
        <ele>1508.9</ele>
        <time>2021-08-23T09:19:23Z</time>
      </trkpt>
      <trkpt lat="45.10407" lon="2.66265">
        <ele>1509.2</ele>
        <time>2021-08-23T09:19:25Z</time>
      </trkpt>
      <trkpt lat="45.10408" lon="2.6626">
        <ele>1509.8</ele>
        <time>2021-08-23T09:19:27Z</time>
      </trkpt>
      <trkpt lat="45.10409" lon="2.66254">
        <ele>1510.3</ele>
        <time>2021-08-23T09:19:29Z</time>
      </trkpt>
      <trkpt lat="45.10411" lon="2.6625">
        <ele>1511.1</ele>
        <time>2021-08-23T09:19:31Z</time>
      </trkpt>
      <trkpt lat="45.10412" lon="2.66244">
        <ele>1512.3</ele>
        <time>2021-08-23T09:19:33Z</time>
      </trkpt>
      <trkpt lat="45.10414" lon="2.66239">
        <ele>1513.9</ele>
        <time>2021-08-23T09:19:35Z</time>
      </trkpt>
      <trkpt lat="45.10416" lon="2.66233">
        <ele>1515.6</ele>
        <time>2021-08-23T09:19:37Z</time>
      </trkpt>
      <trkpt lat="45.10418" lon="2.66227">
        <ele>1516.6</ele>
        <time>2021-08-23T09:19:39Z</time>
      </trkpt>
      <trkpt lat="45.1042" lon="2.66223">
        <ele>1516.8</ele>
        <time>2021-08-23T09:19:41Z</time>
      </trkpt>
      <trkpt lat="45.10423" lon="2.66219">
        <ele>1516.9</ele>
        <time>2021-08-23T09:19:43Z</time>
      </trkpt>
      <trkpt lat="45.10426" lon="2.66215">
        <ele>1516.8</ele>
        <time>2021-08-23T09:19:45Z</time>
      </trkpt>
      <trkpt lat="45.1043" lon="2.66214">
        <ele>1516.3</ele>
        <time>2021-08-23T09:19:47Z</time>
      </trkpt>
      <trkpt lat="45.10435" lon="2.66215">
        <ele>1515.5</ele>
        <time>2021-08-23T09:19:49Z</time>
      </trkpt>
      <trkpt lat="45.10438" lon="2.66219">
        <ele>1514.4</ele>
        <time>2021-08-23T09:19:51Z</time>
      </trkpt>
      <trkpt lat="45.1044" lon="2.66225">
        <ele>1513.3</ele>
        <time>2021-08-23T09:19:53Z</time>
      </trkpt>
      <trkpt lat="45.10441" lon="2.66231">
        <ele>1512.3</ele>
        <time>2021-08-23T09:19:55Z</time>
      </trkpt>
      <trkpt lat="45.10441" lon="2.66237">
        <ele>1511.4</ele>
        <time>2021-08-23T09:19:57Z</time>
      </trkpt>
      <trkpt lat="45.10441" lon="2.66243">
        <ele>1510.6</ele>
        <time>2021-08-23T09:19:59Z</time>
      </trkpt>
      <trkpt lat="45.1044" lon="2.66248">
        <ele>1510</ele>
        <time>2021-08-23T09:20:01Z</time>
      </trkpt>
      <trkpt lat="45.1044" lon="2.66253">
        <ele>1509.8</ele>
        <time>2021-08-23T09:20:03Z</time>
      </trkpt>
      <trkpt lat="45.10439" lon="2.66258">
        <ele>1509.8</ele>
        <time>2021-08-23T09:20:05Z</time>
      </trkpt>
      <trkpt lat="45.10439" lon="2.66263">
        <ele>1509.6</ele>
        <time>2021-08-23T09:20:07Z</time>
      </trkpt>
      <trkpt lat="45.10438" lon="2.66268">
        <ele>1509.7</ele>
        <time>2021-08-23T09:20:09Z</time>
      </trkpt>
      <trkpt lat="45.10437" lon="2.66273">
        <ele>1509.8</ele>
        <time>2021-08-23T09:20:11Z</time>
      </trkpt>
      <trkpt lat="45.10437" lon="2.66278">
        <ele>1509.8</ele>
        <time>2021-08-23T09:20:13Z</time>
      </trkpt>
      <trkpt lat="45.10436" lon="2.66283">
        <ele>1509.7</ele>
        <time>2021-08-23T09:20:15Z</time>
      </trkpt>
      <trkpt lat="45.10436" lon="2.66288">
        <ele>1509.7</ele>
        <time>2021-08-23T09:20:17Z</time>
      </trkpt>
      <trkpt lat="45.10435" lon="2.66292">
        <ele>1509.8</ele>
        <time>2021-08-23T09:20:19Z</time>
      </trkpt>
      <trkpt lat="45.10435" lon="2.66297">
        <ele>1509.9</ele>
        <time>2021-08-23T09:20:21Z</time>
      </trkpt>
      <trkpt lat="45.10435" lon="2.66302">
        <ele>1509.8</ele>
        <time>2021-08-23T09:20:23Z</time>
      </trkpt>
      <trkpt lat="45.10434" lon="2.66308">
        <ele>1509.9</ele>
        <time>2021-08-23T09:20:25Z</time>
      </trkpt>
      <trkpt lat="45.10434" lon="2.66312">
        <ele>1509.9</ele>
        <time>2021-08-23T09:20:27Z</time>
      </trkpt>
      <trkpt lat="45.10433" lon="2.66317">
        <ele>1509.9</ele>
        <time>2021-08-23T09:20:29Z</time>
      </trkpt>
      <trkpt lat="45.10433" lon="2.66323">
        <ele>1510</ele>
        <time>2021-08-23T09:20:31Z</time>
      </trkpt>
      <trkpt lat="45.10432" lon="2.66328">
        <ele>1510.2</ele>
        <time>2021-08-23T09:20:33Z</time>
      </trkpt>
      <trkpt lat="45.10432" lon="2.66333">
        <ele>1510.2</ele>
        <time>2021-08-23T09:20:35Z</time>
      </trkpt>
      <trkpt lat="45.10431" lon="2.66338">
        <ele>1510.7</ele>
        <time>2021-08-23T09:20:37Z</time>
      </trkpt>
      <trkpt lat="45.1043" lon="2.66343">
        <ele>1511.4</ele>
        <time>2021-08-23T09:20:39Z</time>
      </trkpt>
      <trkpt lat="45.1043" lon="2.66348">
        <ele>1512.1</ele>
        <time>2021-08-23T09:20:41Z</time>
      </trkpt>
      <trkpt lat="45.10429" lon="2.66353">
        <ele>1512.7</ele>
        <time>2021-08-23T09:20:43Z</time>
      </trkpt>
      <trkpt lat="45.10429" lon="2.66358">
        <ele>1513.3</ele>
        <time>2021-08-23T09:20:45Z</time>
      </trkpt>
      <trkpt lat="45.10429" lon="2.66363">
        <ele>1513.7</ele>
        <time>2021-08-23T09:20:47Z</time>
      </trkpt>
      <trkpt lat="45.10429" lon="2.66368">
        <ele>1514.2</ele>
        <time>2021-08-23T09:20:49Z</time>
      </trkpt>
      <trkpt lat="45.10428" lon="2.66373">
        <ele>1515</ele>
        <time>2021-08-23T09:20:51Z</time>
      </trkpt>
      <trkpt lat="45.10428" lon="2.66378">
        <ele>1515.4</ele>
        <time>2021-08-23T09:20:53Z</time>
      </trkpt>
      <trkpt lat="45.10429" lon="2.66382">
        <ele>1515.6</ele>
        <time>2021-08-23T09:20:55Z</time>
      </trkpt>
      <trkpt lat="45.10429" lon="2.66387">
        <ele>1515.8</ele>
        <time>2021-08-23T09:20:57Z</time>
      </trkpt>
      <trkpt lat="45.10429" lon="2.66392">
        <ele>1516.2</ele>
        <time>2021-08-23T09:20:59Z</time>
      </trkpt>
      <trkpt lat="45.1043" lon="2.66397">
        <ele>1516.4</ele>
        <time>2021-08-23T09:21:01Z</time>
      </trkpt>
      <trkpt lat="45.1043" lon="2.66402">
        <ele>1516.7</ele>
        <time>2021-08-23T09:21:03Z</time>
      </trkpt>
      <trkpt lat="45.10431" lon="2.66407">
        <ele>1516.7</ele>
        <time>2021-08-23T09:21:05Z</time>
      </trkpt>
      <trkpt lat="45.10432" lon="2.66412">
        <ele>1516.6</ele>
        <time>2021-08-23T09:21:07Z</time>
      </trkpt>
      <trkpt lat="45.10433" lon="2.66417">
        <ele>1516.8</ele>
        <time>2021-08-23T09:21:09Z</time>
      </trkpt>
      <trkpt lat="45.10434" lon="2.66421">
        <ele>1517.4</ele>
        <time>2021-08-23T09:21:11Z</time>
      </trkpt>
      <trkpt lat="45.10435" lon="2.66427">
        <ele>1518.3</ele>
        <time>2021-08-23T09:21:13Z</time>
      </trkpt>
      <trkpt lat="45.10435" lon="2.66431">
        <ele>1519.1</ele>
        <time>2021-08-23T09:21:15Z</time>
      </trkpt>
      <trkpt lat="45.10436" lon="2.66436">
        <ele>1519.9</ele>
        <time>2021-08-23T09:21:17Z</time>
      </trkpt>
      <trkpt lat="45.10437" lon="2.66441">
        <ele>1520.8</ele>
        <time>2021-08-23T09:21:19Z</time>
      </trkpt>
      <trkpt lat="45.10438" lon="2.66446">
        <ele>1521.5</ele>
        <time>2021-08-23T09:21:21Z</time>
      </trkpt>
      <trkpt lat="45.10439" lon="2.66451">
        <ele>1522.1</ele>
        <time>2021-08-23T09:21:23Z</time>
      </trkpt>
      <trkpt lat="45.1044" lon="2.66456">
        <ele>1523.2</ele>
        <time>2021-08-23T09:21:25Z</time>
      </trkpt>
      <trkpt lat="45.10441" lon="2.6646">
        <ele>1523.7</ele>
        <time>2021-08-23T09:21:27Z</time>
      </trkpt>
      <trkpt lat="45.10442" lon="2.66465">
        <ele>1524.6</ele>
        <time>2021-08-23T09:21:29Z</time>
      </trkpt>
      <trkpt lat="45.10442" lon="2.6647">
        <ele>1525.6</ele>
        <time>2021-08-23T09:21:31Z</time>
      </trkpt>
      <trkpt lat="45.10443" lon="2.66475">
        <ele>1526.5</ele>
        <time>2021-08-23T09:21:33Z</time>
      </trkpt>
      <trkpt lat="45.10444" lon="2.6648">
        <ele>1527.3</ele>
        <time>2021-08-23T09:21:35Z</time>
      </trkpt>
      <trkpt lat="45.10445" lon="2.66485">
        <ele>1528.1</ele>
        <time>2021-08-23T09:21:37Z</time>
      </trkpt>
      <trkpt lat="45.10447" lon="2.66489">
        <ele>1528.4</ele>
        <time>2021-08-23T09:21:39Z</time>
      </trkpt>
      <trkpt lat="45.10449" lon="2.66493">
        <ele>1528.8</ele>
        <time>2021-08-23T09:21:41Z</time>
      </trkpt>
      <trkpt lat="45.1045" lon="2.66497">
        <ele>1529.1</ele>
        <time>2021-08-23T09:21:43Z</time>
      </trkpt>
      <trkpt lat="45.10453" lon="2.66501">
        <ele>1529</ele>
        <time>2021-08-23T09:21:45Z</time>
      </trkpt>
      <trkpt lat="45.10456" lon="2.66503">
        <ele>1528.4</ele>
        <time>2021-08-23T09:21:47Z</time>
      </trkpt>
      <trkpt lat="45.10459" lon="2.66504">
        <ele>1527.3</ele>
        <time>2021-08-23T09:21:49Z</time>
      </trkpt>
      <trkpt lat="45.10463" lon="2.66505">
        <ele>1526.3</ele>
        <time>2021-08-23T09:21:51Z</time>
      </trkpt>
      <trkpt lat="45.10467" lon="2.66507">
        <ele>1525.5</ele>
        <time>2021-08-23T09:21:53Z</time>
      </trkpt>
      <trkpt lat="45.1047" lon="2.66509">
        <ele>1524.8</ele>
        <time>2021-08-23T09:21:55Z</time>
      </trkpt>
      <trkpt lat="45.10473" lon="2.66511">
        <ele>1524.3</ele>
        <time>2021-08-23T09:21:57Z</time>
      </trkpt>
      <trkpt lat="45.10476" lon="2.66513">
        <ele>1523.9</ele>
        <time>2021-08-23T09:21:59Z</time>
      </trkpt>
      <trkpt lat="45.10479" lon="2.66515">
        <ele>1523.6</ele>
        <time>2021-08-23T09:22:01Z</time>
      </trkpt>
      <trkpt lat="45.10482" lon="2.66517">
        <ele>1523.2</ele>
        <time>2021-08-23T09:22:03Z</time>
      </trkpt>
      <trkpt lat="45.10484" lon="2.66518">
        <ele>1522.6</ele>
        <time>2021-08-23T09:22:05Z</time>
      </trkpt>
      <trkpt lat="45.10486" lon="2.66518">
        <ele>1521.9</ele>
        <time>2021-08-23T09:22:07Z</time>
      </trkpt>
      <trkpt lat="45.10487" lon="2.66518">
        <ele>1521.8</ele>
        <time>2021-08-23T09:22:09Z</time>
      </trkpt>
      <trkpt lat="45.10487" lon="2.66518">
        <ele>1521.9</ele>
        <time>2021-08-23T09:22:11Z</time>
      </trkpt>
      <trkpt lat="45.10487" lon="2.66519">
        <ele>1521.9</ele>
        <time>2021-08-23T09:22:13Z</time>
      </trkpt>
      <trkpt lat="45.10488" lon="2.66519">
        <ele>1522</ele>
        <time>2021-08-23T09:22:15Z</time>
      </trkpt>
      <trkpt lat="45.10488" lon="2.66519">
        <ele>1521.8</ele>
        <time>2021-08-23T09:22:17Z</time>
      </trkpt>
      <trkpt lat="45.10483" lon="2.66542">
        <ele>1529.4</ele>
        <time>2021-08-23T09:26:09Z</time>
      </trkpt>
      <trkpt lat="45.10482" lon="2.66547">
        <ele>1531.1</ele>
        <time>2021-08-23T09:26:11Z</time>
      </trkpt>
      <trkpt lat="45.10482" lon="2.66553">
        <ele>1532.8</ele>
        <time>2021-08-23T09:26:13Z</time>
      </trkpt>
      <trkpt lat="45.10482" lon="2.66559">
        <ele>1534.4</ele>
        <time>2021-08-23T09:26:15Z</time>
      </trkpt>
      <trkpt lat="45.10482" lon="2.66565">
        <ele>1535.8</ele>
        <time>2021-08-23T09:26:17Z</time>
      </trkpt>
      <trkpt lat="45.10482" lon="2.6657">
        <ele>1537.3</ele>
        <time>2021-08-23T09:26:19Z</time>
      </trkpt>
      <trkpt lat="45.10483" lon="2.66575">
        <ele>1538.7</ele>
        <time>2021-08-23T09:26:21Z</time>
      </trkpt>
      <trkpt lat="45.10484" lon="2.6658">
        <ele>1540</ele>
        <time>2021-08-23T09:26:23Z</time>
      </trkpt>
      <trkpt lat="45.10486" lon="2.66585">
        <ele>1540.7</ele>
        <time>2021-08-23T09:26:25Z</time>
      </trkpt>
      <trkpt lat="45.10487" lon="2.6659">
        <ele>1540.8</ele>
        <time>2021-08-23T09:26:27Z</time>
      </trkpt>
      <trkpt lat="45.10489" lon="2.66594">
        <ele>1540.9</ele>
        <time>2021-08-23T09:26:29Z</time>
      </trkpt>
      <trkpt lat="45.10491" lon="2.66599">
        <ele>1541</ele>
        <time>2021-08-23T09:26:31Z</time>
      </trkpt>
      <trkpt lat="45.10492" lon="2.66603">
        <ele>1541.2</ele>
        <time>2021-08-23T09:26:33Z</time>
      </trkpt>
      <trkpt lat="45.10493" lon="2.66609">
        <ele>1541.4</ele>
        <time>2021-08-23T09:26:35Z</time>
      </trkpt>
      <trkpt lat="45.10495" lon="2.66613">
        <ele>1541.6</ele>
        <time>2021-08-23T09:26:37Z</time>
      </trkpt>
      <trkpt lat="45.10495" lon="2.66617">
        <ele>1541.8</ele>
        <time>2021-08-23T09:26:39Z</time>
      </trkpt>
      <trkpt lat="45.10496" lon="2.66622">
        <ele>1542.1</ele>
        <time>2021-08-23T09:26:41Z</time>
      </trkpt>
      <trkpt lat="45.10494" lon="2.66627">
        <ele>1542.2</ele>
        <time>2021-08-23T09:26:43Z</time>
      </trkpt>
      <trkpt lat="45.10493" lon="2.66631">
        <ele>1542.3</ele>
        <time>2021-08-23T09:26:45Z</time>
      </trkpt>
      <trkpt lat="45.10491" lon="2.66636">
        <ele>1542.4</ele>
        <time>2021-08-23T09:26:47Z</time>
      </trkpt>
      <trkpt lat="45.10489" lon="2.66639">
        <ele>1542.3</ele>
        <time>2021-08-23T09:26:49Z</time>
      </trkpt>
      <trkpt lat="45.10487" lon="2.66643">
        <ele>1542.2</ele>
        <time>2021-08-23T09:26:51Z</time>
      </trkpt>
      <trkpt lat="45.10486" lon="2.66644">
        <ele>1542.1</ele>
        <time>2021-08-23T09:26:53Z</time>
      </trkpt>
      <trkpt lat="45.10484" lon="2.66645">
        <ele>1541.9</ele>
        <time>2021-08-23T09:26:55Z</time>
      </trkpt>
      <trkpt lat="45.10482" lon="2.66646">
        <ele>1541.7</ele>
        <time>2021-08-23T09:26:57Z</time>
      </trkpt>
      <trkpt lat="45.1048" lon="2.66647">
        <ele>1541.5</ele>
        <time>2021-08-23T09:26:59Z</time>
      </trkpt>
      <trkpt lat="45.10478" lon="2.66648">
        <ele>1541.3</ele>
        <time>2021-08-23T09:27:01Z</time>
      </trkpt>
      <trkpt lat="45.10476" lon="2.6665">
        <ele>1541.1</ele>
        <time>2021-08-23T09:27:03Z</time>
      </trkpt>
      <trkpt lat="45.10477" lon="2.66649">
        <ele>1541.1</ele>
        <time>2021-08-23T09:27:05Z</time>
      </trkpt>
      <trkpt lat="45.10474" lon="2.66652">
        <ele>1540.8</ele>
        <time>2021-08-23T09:27:07Z</time>
      </trkpt>
      <trkpt lat="45.10472" lon="2.66654">
        <ele>1540.4</ele>
        <time>2021-08-23T09:27:09Z</time>
      </trkpt>
      <trkpt lat="45.1047" lon="2.66656">
        <ele>1540.1</ele>
        <time>2021-08-23T09:27:11Z</time>
      </trkpt>
      <trkpt lat="45.10468" lon="2.66658">
        <ele>1539.9</ele>
        <time>2021-08-23T09:27:13Z</time>
      </trkpt>
      <trkpt lat="45.10467" lon="2.6666">
        <ele>1539.7</ele>
        <time>2021-08-23T09:27:15Z</time>
      </trkpt>
      <trkpt lat="45.10467" lon="2.66662">
        <ele>1539.5</ele>
        <time>2021-08-23T09:27:17Z</time>
      </trkpt>
      <trkpt lat="45.10466" lon="2.66665">
        <ele>1539.4</ele>
        <time>2021-08-23T09:27:19Z</time>
      </trkpt>
      <trkpt lat="45.10466" lon="2.66667">
        <ele>1539.3</ele>
        <time>2021-08-23T09:27:21Z</time>
      </trkpt>
      <trkpt lat="45.10466" lon="2.6667">
        <ele>1538.9</ele>
        <time>2021-08-23T09:27:23Z</time>
      </trkpt>
      <trkpt lat="45.10466" lon="2.66673">
        <ele>1538.4</ele>
        <time>2021-08-23T09:27:25Z</time>
      </trkpt>
      <trkpt lat="45.10466" lon="2.66679">
        <ele>1537.8</ele>
        <time>2021-08-23T09:27:27Z</time>
      </trkpt>
      <trkpt lat="45.10467" lon="2.66687">
        <ele>1537.1</ele>
        <time>2021-08-23T09:27:29Z</time>
      </trkpt>
      <trkpt lat="45.10468" lon="2.66694">
        <ele>1536.5</ele>
        <time>2021-08-23T09:27:31Z</time>
      </trkpt>
      <trkpt lat="45.10469" lon="2.66701">
        <ele>1535.8</ele>
        <time>2021-08-23T09:27:33Z</time>
      </trkpt>
      <trkpt lat="45.1047" lon="2.66708">
        <ele>1535</ele>
        <time>2021-08-23T09:27:35Z</time>
      </trkpt>
      <trkpt lat="45.1047" lon="2.66716">
        <ele>1534.2</ele>
        <time>2021-08-23T09:27:37Z</time>
      </trkpt>
      <trkpt lat="45.10471" lon="2.66726">
        <ele>1533.2</ele>
        <time>2021-08-23T09:27:39Z</time>
      </trkpt>
      <trkpt lat="45.10473" lon="2.66739">
        <ele>1532.1</ele>
        <time>2021-08-23T09:27:41Z</time>
      </trkpt>
      <trkpt lat="45.10475" lon="2.66753">
        <ele>1531.4</ele>
        <time>2021-08-23T09:27:43Z</time>
      </trkpt>
      <trkpt lat="45.10479" lon="2.6677">
        <ele>1533</ele>
        <time>2021-08-23T09:27:45Z</time>
      </trkpt>
      <trkpt lat="45.10483" lon="2.66788">
        <ele>1534.8</ele>
        <time>2021-08-23T09:27:47Z</time>
      </trkpt>
      <trkpt lat="45.10486" lon="2.66803">
        <ele>1536.6</ele>
        <time>2021-08-23T09:27:49Z</time>
      </trkpt>
      <trkpt lat="45.1049" lon="2.66815">
        <ele>1538.4</ele>
        <time>2021-08-23T09:27:51Z</time>
      </trkpt>
      <trkpt lat="45.10493" lon="2.66826">
        <ele>1540.1</ele>
        <time>2021-08-23T09:27:53Z</time>
      </trkpt>
      <trkpt lat="45.10497" lon="2.66834">
        <ele>1542.2</ele>
        <time>2021-08-23T09:27:55Z</time>
      </trkpt>
      <trkpt lat="45.10502" lon="2.6684">
        <ele>1544.9</ele>
        <time>2021-08-23T09:27:57Z</time>
      </trkpt>
      <trkpt lat="45.10507" lon="2.66847">
        <ele>1545.7</ele>
        <time>2021-08-23T09:27:59Z</time>
      </trkpt>
      <trkpt lat="45.10512" lon="2.66854">
        <ele>1546.5</ele>
        <time>2021-08-23T09:28:01Z</time>
      </trkpt>
      <trkpt lat="45.10518" lon="2.6686">
        <ele>1547</ele>
        <time>2021-08-23T09:28:03Z</time>
      </trkpt>
      <trkpt lat="45.10523" lon="2.66867">
        <ele>1547.5</ele>
        <time>2021-08-23T09:28:05Z</time>
      </trkpt>
      <trkpt lat="45.10528" lon="2.66873">
        <ele>1548.5</ele>
        <time>2021-08-23T09:28:07Z</time>
      </trkpt>
      <trkpt lat="45.10533" lon="2.6688">
        <ele>1549.4</ele>
        <time>2021-08-23T09:28:09Z</time>
      </trkpt>
      <trkpt lat="45.10538" lon="2.66888">
        <ele>1551.2</ele>
        <time>2021-08-23T09:28:11Z</time>
      </trkpt>
      <trkpt lat="45.10542" lon="2.66896">
        <ele>1553.2</ele>
        <time>2021-08-23T09:28:13Z</time>
      </trkpt>
      <trkpt lat="45.10547" lon="2.66904">
        <ele>1555.1</ele>
        <time>2021-08-23T09:28:15Z</time>
      </trkpt>
      <trkpt lat="45.10551" lon="2.66912">
        <ele>1557</ele>
        <time>2021-08-23T09:28:17Z</time>
      </trkpt>
      <trkpt lat="45.10557" lon="2.66919">
        <ele>1558.1</ele>
        <time>2021-08-23T09:28:19Z</time>
      </trkpt>
      <trkpt lat="45.10563" lon="2.66925">
        <ele>1558.6</ele>
        <time>2021-08-23T09:28:21Z</time>
      </trkpt>
      <trkpt lat="45.1057" lon="2.66931">
        <ele>1558.7</ele>
        <time>2021-08-23T09:28:23Z</time>
      </trkpt>
      <trkpt lat="45.10577" lon="2.66936">
        <ele>1558.9</ele>
        <time>2021-08-23T09:28:25Z</time>
      </trkpt>
      <trkpt lat="45.10584" lon="2.66942">
        <ele>1559.1</ele>
        <time>2021-08-23T09:28:27Z</time>
      </trkpt>
      <trkpt lat="45.1059" lon="2.66947">
        <ele>1557.4</ele>
        <time>2021-08-23T09:28:29Z</time>
      </trkpt>
      <trkpt lat="45.10597" lon="2.66952">
        <ele>1555.8</ele>
        <time>2021-08-23T09:28:31Z</time>
      </trkpt>
      <trkpt lat="45.10604" lon="2.66956">
        <ele>1554</ele>
        <time>2021-08-23T09:28:33Z</time>
      </trkpt>
      <trkpt lat="45.1061" lon="2.66962">
        <ele>1552.8</ele>
        <time>2021-08-23T09:28:35Z</time>
      </trkpt>
      <trkpt lat="45.10616" lon="2.6697">
        <ele>1552.8</ele>
        <time>2021-08-23T09:28:37Z</time>
      </trkpt>
      <trkpt lat="45.10621" lon="2.66979">
        <ele>1553.9</ele>
        <time>2021-08-23T09:28:39Z</time>
      </trkpt>
      <trkpt lat="45.10625" lon="2.6699">
        <ele>1555.7</ele>
        <time>2021-08-23T09:28:41Z</time>
      </trkpt>
      <trkpt lat="45.10629" lon="2.67">
        <ele>1557.6</ele>
        <time>2021-08-23T09:28:43Z</time>
      </trkpt>
      <trkpt lat="45.10634" lon="2.6701">
        <ele>1558.4</ele>
        <time>2021-08-23T09:28:45Z</time>
      </trkpt>
      <trkpt lat="45.10638" lon="2.67018">
        <ele>1559.2</ele>
        <time>2021-08-23T09:28:47Z</time>
      </trkpt>
      <trkpt lat="45.10644" lon="2.67025">
        <ele>1559.1</ele>
        <time>2021-08-23T09:28:49Z</time>
      </trkpt>
      <trkpt lat="45.10649" lon="2.67031">
        <ele>1558.8</ele>
        <time>2021-08-23T09:28:51Z</time>
      </trkpt>
      <trkpt lat="45.10654" lon="2.67036">
        <ele>1558.5</ele>
        <time>2021-08-23T09:28:53Z</time>
      </trkpt>
      <trkpt lat="45.10658" lon="2.67042">
        <ele>1558.9</ele>
        <time>2021-08-23T09:28:55Z</time>
      </trkpt>
      <trkpt lat="45.10663" lon="2.67048">
        <ele>1559.1</ele>
        <time>2021-08-23T09:28:57Z</time>
      </trkpt>
      <trkpt lat="45.10667" lon="2.67054">
        <ele>1560.4</ele>
        <time>2021-08-23T09:28:59Z</time>
      </trkpt>
      <trkpt lat="45.1067" lon="2.6706">
        <ele>1561.5</ele>
        <time>2021-08-23T09:29:01Z</time>
      </trkpt>
      <trkpt lat="45.10673" lon="2.67065">
        <ele>1562.5</ele>
        <time>2021-08-23T09:29:03Z</time>
      </trkpt>
      <trkpt lat="45.10677" lon="2.67069">
        <ele>1562.5</ele>
        <time>2021-08-23T09:29:05Z</time>
      </trkpt>
      <trkpt lat="45.10681" lon="2.67072">
        <ele>1562.4</ele>
        <time>2021-08-23T09:29:07Z</time>
      </trkpt>
      <trkpt lat="45.10686" lon="2.67076">
        <ele>1561.9</ele>
        <time>2021-08-23T09:29:09Z</time>
      </trkpt>
      <trkpt lat="45.10691" lon="2.6708">
        <ele>1561.7</ele>
        <time>2021-08-23T09:29:11Z</time>
      </trkpt>
      <trkpt lat="45.10697" lon="2.67086">
        <ele>1561.8</ele>
        <time>2021-08-23T09:29:13Z</time>
      </trkpt>
      <trkpt lat="45.10704" lon="2.67093">
        <ele>1561.3</ele>
        <time>2021-08-23T09:29:15Z</time>
      </trkpt>
      <trkpt lat="45.10711" lon="2.67102">
        <ele>1561.5</ele>
        <time>2021-08-23T09:29:17Z</time>
      </trkpt>
      <trkpt lat="45.10718" lon="2.67111">
        <ele>1562.3</ele>
        <time>2021-08-23T09:29:19Z</time>
      </trkpt>
      <trkpt lat="45.10725" lon="2.6712">
        <ele>1564.2</ele>
        <time>2021-08-23T09:29:21Z</time>
      </trkpt>
      <trkpt lat="45.10732" lon="2.67129">
        <ele>1566.4</ele>
        <time>2021-08-23T09:29:23Z</time>
      </trkpt>
      <trkpt lat="45.1074" lon="2.67134">
        <ele>1567.8</ele>
        <time>2021-08-23T09:29:25Z</time>
      </trkpt>
      <trkpt lat="45.10749" lon="2.67138">
        <ele>1568.7</ele>
        <time>2021-08-23T09:29:27Z</time>
      </trkpt>
      <trkpt lat="45.10758" lon="2.67139">
        <ele>1567.7</ele>
        <time>2021-08-23T09:29:29Z</time>
      </trkpt>
      <trkpt lat="45.10767" lon="2.67137">
        <ele>1565.7</ele>
        <time>2021-08-23T09:29:31Z</time>
      </trkpt>
      <trkpt lat="45.10776" lon="2.67136">
        <ele>1563.7</ele>
        <time>2021-08-23T09:29:33Z</time>
      </trkpt>
      <trkpt lat="45.10785" lon="2.67135">
        <ele>1561.7</ele>
        <time>2021-08-23T09:29:35Z</time>
      </trkpt>
      <trkpt lat="45.10793" lon="2.67135">
        <ele>1560.3</ele>
        <time>2021-08-23T09:29:37Z</time>
      </trkpt>
      <trkpt lat="45.10802" lon="2.67136">
        <ele>1559.8</ele>
        <time>2021-08-23T09:29:39Z</time>
      </trkpt>
      <trkpt lat="45.1081" lon="2.67139">
        <ele>1560.1</ele>
        <time>2021-08-23T09:29:41Z</time>
      </trkpt>
      <trkpt lat="45.10818" lon="2.67143">
        <ele>1561.3</ele>
        <time>2021-08-23T09:29:43Z</time>
      </trkpt>
      <trkpt lat="45.10826" lon="2.67147">
        <ele>1562.1</ele>
        <time>2021-08-23T09:29:45Z</time>
      </trkpt>
      <trkpt lat="45.10835" lon="2.6715">
        <ele>1563.1</ele>
        <time>2021-08-23T09:29:47Z</time>
      </trkpt>
      <trkpt lat="45.10843" lon="2.67154">
        <ele>1563.9</ele>
        <time>2021-08-23T09:29:49Z</time>
      </trkpt>
      <trkpt lat="45.1085" lon="2.67157">
        <ele>1564.7</ele>
        <time>2021-08-23T09:29:51Z</time>
      </trkpt>
      <trkpt lat="45.10858" lon="2.67159">
        <ele>1564.5</ele>
        <time>2021-08-23T09:29:53Z</time>
      </trkpt>
      <trkpt lat="45.10866" lon="2.67161">
        <ele>1564.3</ele>
        <time>2021-08-23T09:29:55Z</time>
      </trkpt>
      <trkpt lat="45.10873" lon="2.67163">
        <ele>1564.3</ele>
        <time>2021-08-23T09:29:57Z</time>
      </trkpt>
      <trkpt lat="45.10881" lon="2.67166">
        <ele>1564.4</ele>
        <time>2021-08-23T09:29:59Z</time>
      </trkpt>
      <trkpt lat="45.10888" lon="2.67169">
        <ele>1564.9</ele>
        <time>2021-08-23T09:30:01Z</time>
      </trkpt>
      <trkpt lat="45.10896" lon="2.6717">
        <ele>1564.4</ele>
        <time>2021-08-23T09:30:03Z</time>
      </trkpt>
      <trkpt lat="45.10903" lon="2.67171">
        <ele>1563.9</ele>
        <time>2021-08-23T09:30:05Z</time>
      </trkpt>
      <trkpt lat="45.1091" lon="2.67175">
        <ele>1564.5</ele>
        <time>2021-08-23T09:30:07Z</time>
      </trkpt>
      <trkpt lat="45.10917" lon="2.6718">
        <ele>1566.2</ele>
        <time>2021-08-23T09:30:09Z</time>
      </trkpt>
      <trkpt lat="45.10924" lon="2.67184">
        <ele>1568.3</ele>
        <time>2021-08-23T09:30:11Z</time>
      </trkpt>
      <trkpt lat="45.10931" lon="2.67186">
        <ele>1569.5</ele>
        <time>2021-08-23T09:30:13Z</time>
      </trkpt>
      <trkpt lat="45.10939" lon="2.67186">
        <ele>1569.9</ele>
        <time>2021-08-23T09:30:15Z</time>
      </trkpt>
      <trkpt lat="45.10946" lon="2.67186">
        <ele>1569.7</ele>
        <time>2021-08-23T09:30:17Z</time>
      </trkpt>
      <trkpt lat="45.10954" lon="2.67187">
        <ele>1570</ele>
        <time>2021-08-23T09:30:19Z</time>
      </trkpt>
      <trkpt lat="45.10962" lon="2.67187">
        <ele>1569.9</ele>
        <time>2021-08-23T09:30:21Z</time>
      </trkpt>
      <trkpt lat="45.10969" lon="2.67185">
        <ele>1569.2</ele>
        <time>2021-08-23T09:30:23Z</time>
      </trkpt>
      <trkpt lat="45.10976" lon="2.67186">
        <ele>1569.4</ele>
        <time>2021-08-23T09:30:25Z</time>
      </trkpt>
      <trkpt lat="45.10983" lon="2.67186">
        <ele>1569.2</ele>
        <time>2021-08-23T09:30:27Z</time>
      </trkpt>
      <trkpt lat="45.10991" lon="2.67185">
        <ele>1569</ele>
        <time>2021-08-23T09:30:29Z</time>
      </trkpt>
      <trkpt lat="45.10998" lon="2.67185">
        <ele>1569</ele>
        <time>2021-08-23T09:30:31Z</time>
      </trkpt>
      <trkpt lat="45.11005" lon="2.67187">
        <ele>1570</ele>
        <time>2021-08-23T09:30:33Z</time>
      </trkpt>
      <trkpt lat="45.11012" lon="2.6719">
        <ele>1572</ele>
        <time>2021-08-23T09:30:35Z</time>
      </trkpt>
      <trkpt lat="45.11019" lon="2.67193">
        <ele>1574.1</ele>
        <time>2021-08-23T09:30:37Z</time>
      </trkpt>
      <trkpt lat="45.11025" lon="2.67197">
        <ele>1576.5</ele>
        <time>2021-08-23T09:30:39Z</time>
      </trkpt>
      <trkpt lat="45.11032" lon="2.672">
        <ele>1578</ele>
        <time>2021-08-23T09:30:41Z</time>
      </trkpt>
      <trkpt lat="45.11038" lon="2.67201">
        <ele>1578.8</ele>
        <time>2021-08-23T09:30:43Z</time>
      </trkpt>
      <trkpt lat="45.11045" lon="2.672">
        <ele>1578.4</ele>
        <time>2021-08-23T09:30:45Z</time>
      </trkpt>
      <trkpt lat="45.11052" lon="2.67198">
        <ele>1577.5</ele>
        <time>2021-08-23T09:30:47Z</time>
      </trkpt>
      <trkpt lat="45.11058" lon="2.67195">
        <ele>1576.4</ele>
        <time>2021-08-23T09:30:49Z</time>
      </trkpt>
      <trkpt lat="45.11065" lon="2.67192">
        <ele>1575.2</ele>
        <time>2021-08-23T09:30:51Z</time>
      </trkpt>
      <trkpt lat="45.11071" lon="2.67189">
        <ele>1573.8</ele>
        <time>2021-08-23T09:30:53Z</time>
      </trkpt>
      <trkpt lat="45.11077" lon="2.67186">
        <ele>1572.5</ele>
        <time>2021-08-23T09:30:55Z</time>
      </trkpt>
      <trkpt lat="45.11083" lon="2.67184">
        <ele>1571.6</ele>
        <time>2021-08-23T09:30:57Z</time>
      </trkpt>
      <trkpt lat="45.1109" lon="2.67181">
        <ele>1571.1</ele>
        <time>2021-08-23T09:30:59Z</time>
      </trkpt>
      <trkpt lat="45.11096" lon="2.67179">
        <ele>1571</ele>
        <time>2021-08-23T09:31:01Z</time>
      </trkpt>
      <trkpt lat="45.11102" lon="2.67178">
        <ele>1571</ele>
        <time>2021-08-23T09:31:03Z</time>
      </trkpt>
      <trkpt lat="45.11109" lon="2.67177">
        <ele>1571.4</ele>
        <time>2021-08-23T09:31:05Z</time>
      </trkpt>
      <trkpt lat="45.11115" lon="2.67177">
        <ele>1571.9</ele>
        <time>2021-08-23T09:31:07Z</time>
      </trkpt>
      <trkpt lat="45.11122" lon="2.67176">
        <ele>1572.3</ele>
        <time>2021-08-23T09:31:09Z</time>
      </trkpt>
      <trkpt lat="45.11128" lon="2.67176">
        <ele>1573.1</ele>
        <time>2021-08-23T09:31:11Z</time>
      </trkpt>
      <trkpt lat="45.11134" lon="2.67176">
        <ele>1573.6</ele>
        <time>2021-08-23T09:31:13Z</time>
      </trkpt>
      <trkpt lat="45.1114" lon="2.67176">
        <ele>1574.3</ele>
        <time>2021-08-23T09:31:15Z</time>
      </trkpt>
      <trkpt lat="45.11146" lon="2.67175">
        <ele>1574.9</ele>
        <time>2021-08-23T09:31:17Z</time>
      </trkpt>
      <trkpt lat="45.11153" lon="2.67175">
        <ele>1575.2</ele>
        <time>2021-08-23T09:31:19Z</time>
      </trkpt>
      <trkpt lat="45.11158" lon="2.67174">
        <ele>1575.8</ele>
        <time>2021-08-23T09:31:21Z</time>
      </trkpt>
      <trkpt lat="45.11165" lon="2.67175">
        <ele>1576.8</ele>
        <time>2021-08-23T09:31:23Z</time>
      </trkpt>
      <trkpt lat="45.11171" lon="2.67174">
        <ele>1576.7</ele>
        <time>2021-08-23T09:31:25Z</time>
      </trkpt>
      <trkpt lat="45.11177" lon="2.67174">
        <ele>1576.9</ele>
        <time>2021-08-23T09:31:27Z</time>
      </trkpt>
      <trkpt lat="45.11183" lon="2.67174">
        <ele>1576.8</ele>
        <time>2021-08-23T09:31:29Z</time>
      </trkpt>
      <trkpt lat="45.11189" lon="2.67173">
        <ele>1576.9</ele>
        <time>2021-08-23T09:31:31Z</time>
      </trkpt>
      <trkpt lat="45.11195" lon="2.67174">
        <ele>1577.2</ele>
        <time>2021-08-23T09:31:33Z</time>
      </trkpt>
      <trkpt lat="45.112" lon="2.67174">
        <ele>1577.5</ele>
        <time>2021-08-23T09:31:35Z</time>
      </trkpt>
      <trkpt lat="45.11207" lon="2.67175">
        <ele>1578</ele>
        <time>2021-08-23T09:31:37Z</time>
      </trkpt>
      <trkpt lat="45.11213" lon="2.67177">
        <ele>1578.7</ele>
        <time>2021-08-23T09:31:39Z</time>
      </trkpt>
      <trkpt lat="45.11218" lon="2.67178">
        <ele>1579.5</ele>
        <time>2021-08-23T09:31:41Z</time>
      </trkpt>
      <trkpt lat="45.11223" lon="2.6718">
        <ele>1580.5</ele>
        <time>2021-08-23T09:31:43Z</time>
      </trkpt>
      <trkpt lat="45.11228" lon="2.67182">
        <ele>1581</ele>
        <time>2021-08-23T09:31:45Z</time>
      </trkpt>
      <trkpt lat="45.11233" lon="2.67182">
        <ele>1581.3</ele>
        <time>2021-08-23T09:31:47Z</time>
      </trkpt>
      <trkpt lat="45.11239" lon="2.67183">
        <ele>1581.6</ele>
        <time>2021-08-23T09:31:49Z</time>
      </trkpt>
      <trkpt lat="45.11244" lon="2.67184">
        <ele>1581.9</ele>
        <time>2021-08-23T09:31:51Z</time>
      </trkpt>
      <trkpt lat="45.1125" lon="2.67184">
        <ele>1582</ele>
        <time>2021-08-23T09:31:53Z</time>
      </trkpt>
      <trkpt lat="45.11255" lon="2.67184">
        <ele>1581.6</ele>
        <time>2021-08-23T09:31:55Z</time>
      </trkpt>
      <trkpt lat="45.11261" lon="2.67183">
        <ele>1581</ele>
        <time>2021-08-23T09:31:57Z</time>
      </trkpt>
      <trkpt lat="45.11266" lon="2.67182">
        <ele>1580.4</ele>
        <time>2021-08-23T09:31:59Z</time>
      </trkpt>
      <trkpt lat="45.11271" lon="2.67181">
        <ele>1580</ele>
        <time>2021-08-23T09:32:01Z</time>
      </trkpt>
      <trkpt lat="45.11276" lon="2.67182">
        <ele>1579.8</ele>
        <time>2021-08-23T09:32:03Z</time>
      </trkpt>
      <trkpt lat="45.11281" lon="2.67181">
        <ele>1579.4</ele>
        <time>2021-08-23T09:32:05Z</time>
      </trkpt>
      <trkpt lat="45.11285" lon="2.67181">
        <ele>1579</ele>
        <time>2021-08-23T09:32:07Z</time>
      </trkpt>
      <trkpt lat="45.1129" lon="2.6718">
        <ele>1578.6</ele>
        <time>2021-08-23T09:32:09Z</time>
      </trkpt>
      <trkpt lat="45.11296" lon="2.67179">
        <ele>1578.1</ele>
        <time>2021-08-23T09:32:11Z</time>
      </trkpt>
      <trkpt lat="45.11301" lon="2.67179">
        <ele>1577.8</ele>
        <time>2021-08-23T09:32:13Z</time>
      </trkpt>
      <trkpt lat="45.11306" lon="2.67179">
        <ele>1577.4</ele>
        <time>2021-08-23T09:32:15Z</time>
      </trkpt>
      <trkpt lat="45.1131" lon="2.67178">
        <ele>1577.1</ele>
        <time>2021-08-23T09:32:17Z</time>
      </trkpt>
      <trkpt lat="45.11315" lon="2.67178">
        <ele>1576.8</ele>
        <time>2021-08-23T09:32:19Z</time>
      </trkpt>
      <trkpt lat="45.1132" lon="2.67178">
        <ele>1576.6</ele>
        <time>2021-08-23T09:32:21Z</time>
      </trkpt>
      <trkpt lat="45.11325" lon="2.67177">
        <ele>1576.2</ele>
        <time>2021-08-23T09:32:23Z</time>
      </trkpt>
      <trkpt lat="45.1133" lon="2.67176">
        <ele>1575.7</ele>
        <time>2021-08-23T09:32:25Z</time>
      </trkpt>
      <trkpt lat="45.11334" lon="2.67175">
        <ele>1575.5</ele>
        <time>2021-08-23T09:32:27Z</time>
      </trkpt>
      <trkpt lat="45.11339" lon="2.67175">
        <ele>1575.6</ele>
        <time>2021-08-23T09:32:29Z</time>
      </trkpt>
      <trkpt lat="45.11344" lon="2.67175">
        <ele>1575.7</ele>
        <time>2021-08-23T09:32:31Z</time>
      </trkpt>
      <trkpt lat="45.11349" lon="2.67174">
        <ele>1575.7</ele>
        <time>2021-08-23T09:32:33Z</time>
      </trkpt>
      <trkpt lat="45.11354" lon="2.67173">
        <ele>1575.8</ele>
        <time>2021-08-23T09:32:35Z</time>
      </trkpt>
      <trkpt lat="45.11359" lon="2.67172">
        <ele>1576</ele>
        <time>2021-08-23T09:32:37Z</time>
      </trkpt>
      <trkpt lat="45.11364" lon="2.67172">
        <ele>1576.1</ele>
        <time>2021-08-23T09:32:39Z</time>
      </trkpt>
      <trkpt lat="45.11368" lon="2.67172">
        <ele>1576.3</ele>
        <time>2021-08-23T09:32:41Z</time>
      </trkpt>
      <trkpt lat="45.11373" lon="2.67172">
        <ele>1576.5</ele>
        <time>2021-08-23T09:32:43Z</time>
      </trkpt>
      <trkpt lat="45.11378" lon="2.67171">
        <ele>1576.7</ele>
        <time>2021-08-23T09:32:45Z</time>
      </trkpt>
      <trkpt lat="45.11382" lon="2.67171">
        <ele>1576.9</ele>
        <time>2021-08-23T09:32:47Z</time>
      </trkpt>
      <trkpt lat="45.11387" lon="2.67171">
        <ele>1577.1</ele>
        <time>2021-08-23T09:32:49Z</time>
      </trkpt>
      <trkpt lat="45.11391" lon="2.67171">
        <ele>1577.3</ele>
        <time>2021-08-23T09:32:51Z</time>
      </trkpt>
      <trkpt lat="45.11395" lon="2.67171">
        <ele>1577.5</ele>
        <time>2021-08-23T09:32:53Z</time>
      </trkpt>
      <trkpt lat="45.11399" lon="2.67172">
        <ele>1577.6</ele>
        <time>2021-08-23T09:32:55Z</time>
      </trkpt>
      <trkpt lat="45.11402" lon="2.67173">
        <ele>1577.7</ele>
        <time>2021-08-23T09:32:57Z</time>
      </trkpt>
      <trkpt lat="45.11403" lon="2.67175">
        <ele>1577.5</ele>
        <time>2021-08-23T09:32:59Z</time>
      </trkpt>
      <trkpt lat="45.11402" lon="2.67179">
        <ele>1577.3</ele>
        <time>2021-08-23T09:33:01Z</time>
      </trkpt>
      <trkpt lat="45.11401" lon="2.67184">
        <ele>1576.9</ele>
        <time>2021-08-23T09:33:03Z</time>
      </trkpt>
      <trkpt lat="45.11399" lon="2.67187">
        <ele>1576.7</ele>
        <time>2021-08-23T09:33:05Z</time>
      </trkpt>
      <trkpt lat="45.114" lon="2.67191">
        <ele>1576.5</ele>
        <time>2021-08-23T09:33:07Z</time>
      </trkpt>
      <trkpt lat="45.11401" lon="2.67192">
        <ele>1576.4</ele>
        <time>2021-08-23T09:33:09Z</time>
      </trkpt>
      <trkpt lat="45.11402" lon="2.67192">
        <ele>1576.3</ele>
        <time>2021-08-23T09:33:11Z</time>
      </trkpt>
      <trkpt lat="45.11404" lon="2.6719">
        <ele>1576.4</ele>
        <time>2021-08-23T09:33:13Z</time>
      </trkpt>
      <trkpt lat="45.11404" lon="2.67188">
        <ele>1576.6</ele>
        <time>2021-08-23T09:33:15Z</time>
      </trkpt>
      <trkpt lat="45.11405" lon="2.67187">
        <ele>1576.7</ele>
        <time>2021-08-23T09:33:17Z</time>
      </trkpt>
      <trkpt lat="45.11391" lon="2.67211">
        <ele>1576</ele>
        <time>2021-08-23T12:57:37Z</time>
      </trkpt>
      <trkpt lat="45.11385" lon="2.67217">
        <ele>1576.5</ele>
        <time>2021-08-23T12:57:39Z</time>
      </trkpt>
      <trkpt lat="45.1138" lon="2.67223">
        <ele>1577.1</ele>
        <time>2021-08-23T12:57:41Z</time>
      </trkpt>
      <trkpt lat="45.11374" lon="2.67229">
        <ele>1578.1</ele>
        <time>2021-08-23T12:57:43Z</time>
      </trkpt>
      <trkpt lat="45.11369" lon="2.67236">
        <ele>1579.3</ele>
        <time>2021-08-23T12:57:45Z</time>
      </trkpt>
      <trkpt lat="45.11361" lon="2.67244">
        <ele>1581.2</ele>
        <time>2021-08-23T12:57:47Z</time>
      </trkpt>
      <trkpt lat="45.11353" lon="2.67253">
        <ele>1582.8</ele>
        <time>2021-08-23T12:57:49Z</time>
      </trkpt>
      <trkpt lat="45.11346" lon="2.67264">
        <ele>1581.9</ele>
        <time>2021-08-23T12:57:51Z</time>
      </trkpt>
      <trkpt lat="45.11339" lon="2.67276">
        <ele>1581</ele>
        <time>2021-08-23T12:57:53Z</time>
      </trkpt>
      <trkpt lat="45.11333" lon="2.67288">
        <ele>1580.2</ele>
        <time>2021-08-23T12:57:55Z</time>
      </trkpt>
      <trkpt lat="45.11327" lon="2.67302">
        <ele>1579.4</ele>
        <time>2021-08-23T12:57:57Z</time>
      </trkpt>
      <trkpt lat="45.11322" lon="2.67317">
        <ele>1578.6</ele>
        <time>2021-08-23T12:57:59Z</time>
      </trkpt>
      <trkpt lat="45.11317" lon="2.67333">
        <ele>1578</ele>
        <time>2021-08-23T12:58:01Z</time>
      </trkpt>
      <trkpt lat="45.11311" lon="2.67351">
        <ele>1576</ele>
        <time>2021-08-23T12:58:03Z</time>
      </trkpt>
      <trkpt lat="45.11304" lon="2.6737">
        <ele>1574.3</ele>
        <time>2021-08-23T12:58:05Z</time>
      </trkpt>
      <trkpt lat="45.11295" lon="2.67387">
        <ele>1574.1</ele>
        <time>2021-08-23T12:58:07Z</time>
      </trkpt>
      <trkpt lat="45.11287" lon="2.67405">
        <ele>1573.8</ele>
        <time>2021-08-23T12:58:09Z</time>
      </trkpt>
      <trkpt lat="45.1128" lon="2.67424">
        <ele>1572.5</ele>
        <time>2021-08-23T12:58:11Z</time>
      </trkpt>
      <trkpt lat="45.11273" lon="2.67444">
        <ele>1570.6</ele>
        <time>2021-08-23T12:58:13Z</time>
      </trkpt>
      <trkpt lat="45.11266" lon="2.67466">
        <ele>1568.1</ele>
        <time>2021-08-23T12:58:15Z</time>
      </trkpt>
      <trkpt lat="45.1126" lon="2.67488">
        <ele>1564.8</ele>
        <time>2021-08-23T12:58:17Z</time>
      </trkpt>
      <trkpt lat="45.11254" lon="2.6751">
        <ele>1561.4</ele>
        <time>2021-08-23T12:58:19Z</time>
      </trkpt>
      <trkpt lat="45.11249" lon="2.67531">
        <ele>1559</ele>
        <time>2021-08-23T12:58:21Z</time>
      </trkpt>
      <trkpt lat="45.11244" lon="2.6755">
        <ele>1557.7</ele>
        <time>2021-08-23T12:58:23Z</time>
      </trkpt>
      <trkpt lat="45.11237" lon="2.67567">
        <ele>1557.5</ele>
        <time>2021-08-23T12:58:25Z</time>
      </trkpt>
      <trkpt lat="45.11227" lon="2.67585">
        <ele>1558.4</ele>
        <time>2021-08-23T12:58:27Z</time>
      </trkpt>
      <trkpt lat="45.11218" lon="2.67602">
        <ele>1558.6</ele>
        <time>2021-08-23T12:58:29Z</time>
      </trkpt>
      <trkpt lat="45.11211" lon="2.67622">
        <ele>1557.5</ele>
        <time>2021-08-23T12:58:31Z</time>
      </trkpt>
      <trkpt lat="45.11203" lon="2.6764">
        <ele>1556.3</ele>
        <time>2021-08-23T12:58:33Z</time>
      </trkpt>
      <trkpt lat="45.11195" lon="2.67659">
        <ele>1554.5</ele>
        <time>2021-08-23T12:58:35Z</time>
      </trkpt>
      <trkpt lat="45.11189" lon="2.6768">
        <ele>1552.9</ele>
        <time>2021-08-23T12:58:37Z</time>
      </trkpt>
      <trkpt lat="45.11185" lon="2.67702">
        <ele>1551.1</ele>
        <time>2021-08-23T12:58:39Z</time>
      </trkpt>
      <trkpt lat="45.11183" lon="2.67726">
        <ele>1548.2</ele>
        <time>2021-08-23T12:58:41Z</time>
      </trkpt>
      <trkpt lat="45.11182" lon="2.67751">
        <ele>1545.1</ele>
        <time>2021-08-23T12:58:43Z</time>
      </trkpt>
      <trkpt lat="45.11181" lon="2.67775">
        <ele>1543.1</ele>
        <time>2021-08-23T12:58:45Z</time>
      </trkpt>
      <trkpt lat="45.11179" lon="2.67799">
        <ele>1541.4</ele>
        <time>2021-08-23T12:58:47Z</time>
      </trkpt>
      <trkpt lat="45.11177" lon="2.67821">
        <ele>1539.6</ele>
        <time>2021-08-23T12:58:49Z</time>
      </trkpt>
      <trkpt lat="45.11176" lon="2.67843">
        <ele>1538.5</ele>
        <time>2021-08-23T12:58:51Z</time>
      </trkpt>
      <trkpt lat="45.11177" lon="2.67863">
        <ele>1537.7</ele>
        <time>2021-08-23T12:58:53Z</time>
      </trkpt>
      <trkpt lat="45.11178" lon="2.67883">
        <ele>1536.3</ele>
        <time>2021-08-23T12:58:55Z</time>
      </trkpt>
      <trkpt lat="45.11182" lon="2.67902">
        <ele>1533.5</ele>
        <time>2021-08-23T12:58:57Z</time>
      </trkpt>
      <trkpt lat="45.11188" lon="2.67919">
        <ele>1529.3</ele>
        <time>2021-08-23T12:58:59Z</time>
      </trkpt>
      <trkpt lat="45.11196" lon="2.67934">
        <ele>1524</ele>
        <time>2021-08-23T12:59:01Z</time>
      </trkpt>
      <trkpt lat="45.11204" lon="2.67947">
        <ele>1518.1</ele>
        <time>2021-08-23T12:59:03Z</time>
      </trkpt>
      <trkpt lat="45.11212" lon="2.6796">
        <ele>1512.5</ele>
        <time>2021-08-23T12:59:05Z</time>
      </trkpt>
      <trkpt lat="45.11213" lon="2.6798">
        <ele>1510.4</ele>
        <time>2021-08-23T12:59:07Z</time>
      </trkpt>
      <trkpt lat="45.11215" lon="2.67999">
        <ele>1508.1</ele>
        <time>2021-08-23T12:59:09Z</time>
      </trkpt>
      <trkpt lat="45.11217" lon="2.68017">
        <ele>1504.7</ele>
        <time>2021-08-23T12:59:11Z</time>
      </trkpt>
      <trkpt lat="45.11216" lon="2.68034">
        <ele>1504</ele>
        <time>2021-08-23T12:59:13Z</time>
      </trkpt>
      <trkpt lat="45.1121" lon="2.68051">
        <ele>1507.2</ele>
        <time>2021-08-23T12:59:15Z</time>
      </trkpt>
      <trkpt lat="45.11201" lon="2.68067">
        <ele>1511.4</ele>
        <time>2021-08-23T12:59:17Z</time>
      </trkpt>
      <trkpt lat="45.11194" lon="2.68083">
        <ele>1514.6</ele>
        <time>2021-08-23T12:59:19Z</time>
      </trkpt>
      <trkpt lat="45.11189" lon="2.68099">
        <ele>1515.4</ele>
        <time>2021-08-23T12:59:21Z</time>
      </trkpt>
      <trkpt lat="45.1119" lon="2.68117">
        <ele>1512.4</ele>
        <time>2021-08-23T12:59:23Z</time>
      </trkpt>
      <trkpt lat="45.11194" lon="2.68132">
        <ele>1507.6</ele>
        <time>2021-08-23T12:59:25Z</time>
      </trkpt>
      <trkpt lat="45.11196" lon="2.68151">
        <ele>1504</ele>
        <time>2021-08-23T12:59:27Z</time>
      </trkpt>
      <trkpt lat="45.11194" lon="2.6817">
        <ele>1501.6</ele>
        <time>2021-08-23T12:59:29Z</time>
      </trkpt>
      <trkpt lat="45.11191" lon="2.68184">
        <ele>1499.5</ele>
        <time>2021-08-23T12:59:31Z</time>
      </trkpt>
      <trkpt lat="45.11182" lon="2.68194">
        <ele>1501.7</ele>
        <time>2021-08-23T12:59:33Z</time>
      </trkpt>
      <trkpt lat="45.1117" lon="2.68197">
        <ele>1507.8</ele>
        <time>2021-08-23T12:59:35Z</time>
      </trkpt>
      <trkpt lat="45.11158" lon="2.68203">
        <ele>1511.8</ele>
        <time>2021-08-23T12:59:37Z</time>
      </trkpt>
      <trkpt lat="45.11148" lon="2.68212">
        <ele>1513.3</ele>
        <time>2021-08-23T12:59:39Z</time>
      </trkpt>
      <trkpt lat="45.11144" lon="2.68224">
        <ele>1511.9</ele>
        <time>2021-08-23T12:59:41Z</time>
      </trkpt>
      <trkpt lat="45.11145" lon="2.68235">
        <ele>1508.5</ele>
        <time>2021-08-23T12:59:43Z</time>
      </trkpt>
      <trkpt lat="45.11148" lon="2.68245">
        <ele>1504.4</ele>
        <time>2021-08-23T12:59:45Z</time>
      </trkpt>
      <trkpt lat="45.11152" lon="2.68259">
        <ele>1499.4</ele>
        <time>2021-08-23T12:59:47Z</time>
      </trkpt>
      <trkpt lat="45.11153" lon="2.68277">
        <ele>1495.2</ele>
        <time>2021-08-23T12:59:49Z</time>
      </trkpt>
      <trkpt lat="45.11151" lon="2.68296">
        <ele>1492</ele>
        <time>2021-08-23T12:59:51Z</time>
      </trkpt>
      <trkpt lat="45.11145" lon="2.68315">
        <ele>1489.7</ele>
        <time>2021-08-23T12:59:53Z</time>
      </trkpt>
      <trkpt lat="45.1114" lon="2.68332">
        <ele>1487.7</ele>
        <time>2021-08-23T12:59:55Z</time>
      </trkpt>
      <trkpt lat="45.11135" lon="2.68349">
        <ele>1483.3</ele>
        <time>2021-08-23T12:59:57Z</time>
      </trkpt>
      <trkpt lat="45.11128" lon="2.68363">
        <ele>1480.5</ele>
        <time>2021-08-23T12:59:59Z</time>
      </trkpt>
      <trkpt lat="45.11114" lon="2.68374">
        <ele>1481.2</ele>
        <time>2021-08-23T13:00:01Z</time>
      </trkpt>
      <trkpt lat="45.111" lon="2.68381">
        <ele>1483.3</ele>
        <time>2021-08-23T13:00:03Z</time>
      </trkpt>
      <trkpt lat="45.11088" lon="2.68385">
        <ele>1486.1</ele>
        <time>2021-08-23T13:00:05Z</time>
      </trkpt>
      <trkpt lat="45.11076" lon="2.68384">
        <ele>1486.6</ele>
        <time>2021-08-23T13:00:07Z</time>
      </trkpt>
      <trkpt lat="45.11063" lon="2.68377">
        <ele>1486.3</ele>
        <time>2021-08-23T13:00:09Z</time>
      </trkpt>
      <trkpt lat="45.11051" lon="2.68373">
        <ele>1485.5</ele>
        <time>2021-08-23T13:00:11Z</time>
      </trkpt>
      <trkpt lat="45.11041" lon="2.68368">
        <ele>1485</ele>
        <time>2021-08-23T13:00:13Z</time>
      </trkpt>
      <trkpt lat="45.1103" lon="2.68361">
        <ele>1486.2</ele>
        <time>2021-08-23T13:00:15Z</time>
      </trkpt>
      <trkpt lat="45.11019" lon="2.6835">
        <ele>1488.5</ele>
        <time>2021-08-23T13:00:17Z</time>
      </trkpt>
      <trkpt lat="45.11008" lon="2.68339">
        <ele>1491.1</ele>
        <time>2021-08-23T13:00:19Z</time>
      </trkpt>
      <trkpt lat="45.10996" lon="2.68332">
        <ele>1491.8</ele>
        <time>2021-08-23T13:00:21Z</time>
      </trkpt>
      <trkpt lat="45.10982" lon="2.68326">
        <ele>1491</ele>
        <time>2021-08-23T13:00:23Z</time>
      </trkpt>
      <trkpt lat="45.10967" lon="2.68319">
        <ele>1490</ele>
        <time>2021-08-23T13:00:25Z</time>
      </trkpt>
      <trkpt lat="45.10951" lon="2.68312">
        <ele>1489</ele>
        <time>2021-08-23T13:00:27Z</time>
      </trkpt>
      <trkpt lat="45.10938" lon="2.68306">
        <ele>1489</ele>
        <time>2021-08-23T13:00:29Z</time>
      </trkpt>
      <trkpt lat="45.10928" lon="2.68298">
        <ele>1490.1</ele>
        <time>2021-08-23T13:00:31Z</time>
      </trkpt>
      <trkpt lat="45.10921" lon="2.68292">
        <ele>1491.1</ele>
        <time>2021-08-23T13:00:33Z</time>
      </trkpt>
      <trkpt lat="45.10913" lon="2.68289">
        <ele>1490.8</ele>
        <time>2021-08-23T13:00:35Z</time>
      </trkpt>
      <trkpt lat="45.10907" lon="2.68293">
        <ele>1488.4</ele>
        <time>2021-08-23T13:00:37Z</time>
      </trkpt>
      <trkpt lat="45.10905" lon="2.68302">
        <ele>1483.5</ele>
        <time>2021-08-23T13:00:39Z</time>
      </trkpt>
      <trkpt lat="45.10911" lon="2.68314">
        <ele>1478.4</ele>
        <time>2021-08-23T13:00:41Z</time>
      </trkpt>
      <trkpt lat="45.10922" lon="2.68318">
        <ele>1478.1</ele>
        <time>2021-08-23T13:00:43Z</time>
      </trkpt>
      <trkpt lat="45.10934" lon="2.68326">
        <ele>1477.6</ele>
        <time>2021-08-23T13:00:45Z</time>
      </trkpt>
      <trkpt lat="45.10947" lon="2.68335">
        <ele>1476.9</ele>
        <time>2021-08-23T13:00:47Z</time>
      </trkpt>
      <trkpt lat="45.10961" lon="2.68345">
        <ele>1476.1</ele>
        <time>2021-08-23T13:00:49Z</time>
      </trkpt>
      <trkpt lat="45.10974" lon="2.6836">
        <ele>1473.6</ele>
        <time>2021-08-23T13:00:51Z</time>
      </trkpt>
      <trkpt lat="45.10989" lon="2.68377">
        <ele>1470.5</ele>
        <time>2021-08-23T13:00:53Z</time>
      </trkpt>
      <trkpt lat="45.11002" lon="2.68392">
        <ele>1468</ele>
        <time>2021-08-23T13:00:55Z</time>
      </trkpt>
      <trkpt lat="45.11016" lon="2.68405">
        <ele>1465.4</ele>
        <time>2021-08-23T13:00:57Z</time>
      </trkpt>
      <trkpt lat="45.11027" lon="2.68417">
        <ele>1463.3</ele>
        <time>2021-08-23T13:00:59Z</time>
      </trkpt>
      <trkpt lat="45.11039" lon="2.68429">
        <ele>1461.3</ele>
        <time>2021-08-23T13:01:01Z</time>
      </trkpt>
      <trkpt lat="45.1105" lon="2.68439">
        <ele>1459.6</ele>
        <time>2021-08-23T13:01:03Z</time>
      </trkpt>
      <trkpt lat="45.11061" lon="2.68448">
        <ele>1458.4</ele>
        <time>2021-08-23T13:01:05Z</time>
      </trkpt>
      <trkpt lat="45.11072" lon="2.68455">
        <ele>1457.4</ele>
        <time>2021-08-23T13:01:07Z</time>
      </trkpt>
      <trkpt lat="45.1108" lon="2.68466">
        <ele>1454.5</ele>
        <time>2021-08-23T13:01:09Z</time>
      </trkpt>
      <trkpt lat="45.11085" lon="2.68485">
        <ele>1446.6</ele>
        <time>2021-08-23T13:01:11Z</time>
      </trkpt>
      <trkpt lat="45.11084" lon="2.68503">
        <ele>1439.2</ele>
        <time>2021-08-23T13:01:13Z</time>
      </trkpt>
      <trkpt lat="45.11087" lon="2.68518">
        <ele>1435.5</ele>
        <time>2021-08-23T13:01:15Z</time>
      </trkpt>
      <trkpt lat="45.11094" lon="2.68532">
        <ele>1431.9</ele>
        <time>2021-08-23T13:01:17Z</time>
      </trkpt>
      <trkpt lat="45.11104" lon="2.68545">
        <ele>1429.1</ele>
        <time>2021-08-23T13:01:19Z</time>
      </trkpt>
      <trkpt lat="45.11116" lon="2.68557">
        <ele>1427.1</ele>
        <time>2021-08-23T13:01:21Z</time>
      </trkpt>
      <trkpt lat="45.11131" lon="2.68567">
        <ele>1426</ele>
        <time>2021-08-23T13:01:23Z</time>
      </trkpt>
      <trkpt lat="45.11146" lon="2.68578">
        <ele>1425.8</ele>
        <time>2021-08-23T13:01:25Z</time>
      </trkpt>
      <trkpt lat="45.11162" lon="2.68588">
        <ele>1426.3</ele>
        <time>2021-08-23T13:01:27Z</time>
      </trkpt>
      <trkpt lat="45.11177" lon="2.68596">
        <ele>1425</ele>
        <time>2021-08-23T13:01:29Z</time>
      </trkpt>
      <trkpt lat="45.11189" lon="2.68604">
        <ele>1423.5</ele>
        <time>2021-08-23T13:01:31Z</time>
      </trkpt>
      <trkpt lat="45.11201" lon="2.6861">
        <ele>1422.2</ele>
        <time>2021-08-23T13:01:33Z</time>
      </trkpt>
      <trkpt lat="45.1121" lon="2.68617">
        <ele>1421.2</ele>
        <time>2021-08-23T13:01:35Z</time>
      </trkpt>
      <trkpt lat="45.11218" lon="2.68623">
        <ele>1420.5</ele>
        <time>2021-08-23T13:01:37Z</time>
      </trkpt>
      <trkpt lat="45.11223" lon="2.68626">
        <ele>1420.1</ele>
        <time>2021-08-23T13:01:39Z</time>
      </trkpt>
      <trkpt lat="45.11224" lon="2.68628">
        <ele>1419.9</ele>
        <time>2021-08-23T13:01:41Z</time>
      </trkpt>
      <trkpt lat="45.11224" lon="2.68628">
        <ele>1419.9</ele>
        <time>2021-08-23T13:01:43Z</time>
      </trkpt>
      <trkpt lat="45.11225" lon="2.68628">
        <ele>1419.9</ele>
        <time>2021-08-23T13:01:45Z</time>
      </trkpt>
      <trkpt lat="45.11225" lon="2.68628">
        <ele>1419.9</ele>
        <time>2021-08-23T13:01:47Z</time>
      </trkpt>
      <trkpt lat="45.11225" lon="2.6863">
        <ele>1419.8</ele>
        <time>2021-08-23T13:01:49Z</time>
      </trkpt>
      <trkpt lat="45.11237" lon="2.68635">
        <ele>1419</ele>
        <time>2021-08-23T13:16:31Z</time>
      </trkpt>
      <trkpt lat="45.11243" lon="2.68637">
        <ele>1418.7</ele>
        <time>2021-08-23T13:16:33Z</time>
      </trkpt>
      <trkpt lat="45.1125" lon="2.68639">
        <ele>1418.3</ele>
        <time>2021-08-23T13:16:35Z</time>
      </trkpt>
      <trkpt lat="45.11259" lon="2.68641">
        <ele>1417.3</ele>
        <time>2021-08-23T13:16:37Z</time>
      </trkpt>
      <trkpt lat="45.11268" lon="2.68642">
        <ele>1416.1</ele>
        <time>2021-08-23T13:16:39Z</time>
      </trkpt>
      <trkpt lat="45.11278" lon="2.68643">
        <ele>1414.9</ele>
        <time>2021-08-23T13:16:41Z</time>
      </trkpt>
      <trkpt lat="45.1129" lon="2.68644">
        <ele>1413.5</ele>
        <time>2021-08-23T13:16:43Z</time>
      </trkpt>
      <trkpt lat="45.11303" lon="2.68645">
        <ele>1411.9</ele>
        <time>2021-08-23T13:16:45Z</time>
      </trkpt>
      <trkpt lat="45.11316" lon="2.68647">
        <ele>1410.3</ele>
        <time>2021-08-23T13:16:47Z</time>
      </trkpt>
      <trkpt lat="45.1133" lon="2.68651">
        <ele>1408.6</ele>
        <time>2021-08-23T13:16:49Z</time>
      </trkpt>
      <trkpt lat="45.11342" lon="2.68659">
        <ele>1406.1</ele>
        <time>2021-08-23T13:16:51Z</time>
      </trkpt>
      <trkpt lat="45.11354" lon="2.68672">
        <ele>1403.1</ele>
        <time>2021-08-23T13:16:53Z</time>
      </trkpt>
      <trkpt lat="45.11365" lon="2.68689">
        <ele>1400.6</ele>
        <time>2021-08-23T13:16:55Z</time>
      </trkpt>
      <trkpt lat="45.11372" lon="2.68709">
        <ele>1398.8</ele>
        <time>2021-08-23T13:16:57Z</time>
      </trkpt>
      <trkpt lat="45.11376" lon="2.68733">
        <ele>1397.7</ele>
        <time>2021-08-23T13:16:59Z</time>
      </trkpt>
      <trkpt lat="45.11377" lon="2.68759">
        <ele>1397.3</ele>
        <time>2021-08-23T13:17:01Z</time>
      </trkpt>
      <trkpt lat="45.11378" lon="2.68786">
        <ele>1397.1</ele>
        <time>2021-08-23T13:17:03Z</time>
      </trkpt>
      <trkpt lat="45.1138" lon="2.68813">
        <ele>1396.7</ele>
        <time>2021-08-23T13:17:05Z</time>
      </trkpt>
      <trkpt lat="45.11381" lon="2.6884">
        <ele>1396</ele>
        <time>2021-08-23T13:17:07Z</time>
      </trkpt>
      <trkpt lat="45.11382" lon="2.68868">
        <ele>1394.5</ele>
        <time>2021-08-23T13:17:09Z</time>
      </trkpt>
      <trkpt lat="45.11384" lon="2.68895">
        <ele>1393.1</ele>
        <time>2021-08-23T13:17:11Z</time>
      </trkpt>
      <trkpt lat="45.11387" lon="2.6892">
        <ele>1391.5</ele>
        <time>2021-08-23T13:17:13Z</time>
      </trkpt>
      <trkpt lat="45.11392" lon="2.68943">
        <ele>1389.4</ele>
        <time>2021-08-23T13:17:15Z</time>
      </trkpt>
      <trkpt lat="45.11401" lon="2.68966">
        <ele>1387.6</ele>
        <time>2021-08-23T13:17:17Z</time>
      </trkpt>
      <trkpt lat="45.11413" lon="2.68986">
        <ele>1386.3</ele>
        <time>2021-08-23T13:17:19Z</time>
      </trkpt>
      <trkpt lat="45.11429" lon="2.69001">
        <ele>1384.9</ele>
        <time>2021-08-23T13:17:21Z</time>
      </trkpt>
      <trkpt lat="45.11447" lon="2.69013">
        <ele>1381.6</ele>
        <time>2021-08-23T13:17:23Z</time>
      </trkpt>
      <trkpt lat="45.11464" lon="2.69025">
        <ele>1379.4</ele>
        <time>2021-08-23T13:17:25Z</time>
      </trkpt>
      <trkpt lat="45.1148" lon="2.69036">
        <ele>1378.1</ele>
        <time>2021-08-23T13:17:27Z</time>
      </trkpt>
      <trkpt lat="45.11497" lon="2.69047">
        <ele>1377.6</ele>
        <time>2021-08-23T13:17:29Z</time>
      </trkpt>
      <trkpt lat="45.11513" lon="2.69057">
        <ele>1377.2</ele>
        <time>2021-08-23T13:17:31Z</time>
      </trkpt>
      <trkpt lat="45.11529" lon="2.69068">
        <ele>1377.3</ele>
        <time>2021-08-23T13:17:33Z</time>
      </trkpt>
      <trkpt lat="45.11544" lon="2.6908">
        <ele>1378</ele>
        <time>2021-08-23T13:17:35Z</time>
      </trkpt>
      <trkpt lat="45.11559" lon="2.69093">
        <ele>1377.3</ele>
        <time>2021-08-23T13:17:37Z</time>
      </trkpt>
      <trkpt lat="45.11573" lon="2.69107">
        <ele>1376</ele>
        <time>2021-08-23T13:17:39Z</time>
      </trkpt>
      <trkpt lat="45.11585" lon="2.69123">
        <ele>1374.7</ele>
        <time>2021-08-23T13:17:41Z</time>
      </trkpt>
      <trkpt lat="45.11597" lon="2.6914">
        <ele>1373.2</ele>
        <time>2021-08-23T13:17:43Z</time>
      </trkpt>
      <trkpt lat="45.11609" lon="2.69157">
        <ele>1372.7</ele>
        <time>2021-08-23T13:17:45Z</time>
      </trkpt>
      <trkpt lat="45.1162" lon="2.69174">
        <ele>1372</ele>
        <time>2021-08-23T13:17:47Z</time>
      </trkpt>
      <trkpt lat="45.11631" lon="2.6919">
        <ele>1370.5</ele>
        <time>2021-08-23T13:17:49Z</time>
      </trkpt>
      <trkpt lat="45.11643" lon="2.69203">
        <ele>1370.1</ele>
        <time>2021-08-23T13:17:51Z</time>
      </trkpt>
      <trkpt lat="45.11657" lon="2.69215">
        <ele>1370.8</ele>
        <time>2021-08-23T13:17:53Z</time>
      </trkpt>
      <trkpt lat="45.11671" lon="2.69225">
        <ele>1371.5</ele>
        <time>2021-08-23T13:17:55Z</time>
      </trkpt>
      <trkpt lat="45.11685" lon="2.69234">
        <ele>1371.2</ele>
        <time>2021-08-23T13:17:57Z</time>
      </trkpt>
      <trkpt lat="45.117" lon="2.69243">
        <ele>1371.3</ele>
        <time>2021-08-23T13:17:59Z</time>
      </trkpt>
      <trkpt lat="45.11714" lon="2.69251">
        <ele>1371.6</ele>
        <time>2021-08-23T13:18:01Z</time>
      </trkpt>
      <trkpt lat="45.11728" lon="2.69259">
        <ele>1370.4</ele>
        <time>2021-08-23T13:18:03Z</time>
      </trkpt>
      <trkpt lat="45.11742" lon="2.69267">
        <ele>1369.4</ele>
        <time>2021-08-23T13:18:05Z</time>
      </trkpt>
      <trkpt lat="45.11756" lon="2.69276">
        <ele>1368.1</ele>
        <time>2021-08-23T13:18:07Z</time>
      </trkpt>
      <trkpt lat="45.11769" lon="2.69287">
        <ele>1366.3</ele>
        <time>2021-08-23T13:18:09Z</time>
      </trkpt>
      <trkpt lat="45.11782" lon="2.69298">
        <ele>1365.1</ele>
        <time>2021-08-23T13:18:11Z</time>
      </trkpt>
      <trkpt lat="45.11794" lon="2.6931">
        <ele>1364.4</ele>
        <time>2021-08-23T13:18:13Z</time>
      </trkpt>
      <trkpt lat="45.11806" lon="2.69322">
        <ele>1364.4</ele>
        <time>2021-08-23T13:18:15Z</time>
      </trkpt>
      <trkpt lat="45.11818" lon="2.69334">
        <ele>1365</ele>
        <time>2021-08-23T13:18:17Z</time>
      </trkpt>
      <trkpt lat="45.1183" lon="2.69345">
        <ele>1364.6</ele>
        <time>2021-08-23T13:18:19Z</time>
      </trkpt>
      <trkpt lat="45.11842" lon="2.69356">
        <ele>1363.4</ele>
        <time>2021-08-23T13:18:21Z</time>
      </trkpt>
      <trkpt lat="45.11854" lon="2.69367">
        <ele>1362</ele>
        <time>2021-08-23T13:18:23Z</time>
      </trkpt>
      <trkpt lat="45.11866" lon="2.69379">
        <ele>1361.2</ele>
        <time>2021-08-23T13:18:25Z</time>
      </trkpt>
      <trkpt lat="45.11878" lon="2.69389">
        <ele>1361</ele>
        <time>2021-08-23T13:18:27Z</time>
      </trkpt>
      <trkpt lat="45.11889" lon="2.69399">
        <ele>1361.3</ele>
        <time>2021-08-23T13:18:29Z</time>
      </trkpt>
      <trkpt lat="45.11902" lon="2.69407">
        <ele>1362.3</ele>
        <time>2021-08-23T13:18:31Z</time>
      </trkpt>
      <trkpt lat="45.11914" lon="2.69415">
        <ele>1363.7</ele>
        <time>2021-08-23T13:18:33Z</time>
      </trkpt>
      <trkpt lat="45.11927" lon="2.69423">
        <ele>1363.7</ele>
        <time>2021-08-23T13:18:35Z</time>
      </trkpt>
      <trkpt lat="45.11939" lon="2.69432">
        <ele>1363.3</ele>
        <time>2021-08-23T13:18:37Z</time>
      </trkpt>
      <trkpt lat="45.11952" lon="2.6944">
        <ele>1363.1</ele>
        <time>2021-08-23T13:18:39Z</time>
      </trkpt>
      <trkpt lat="45.11964" lon="2.69449">
        <ele>1363.2</ele>
        <time>2021-08-23T13:18:41Z</time>
      </trkpt>
      <trkpt lat="45.11977" lon="2.69458">
        <ele>1363</ele>
        <time>2021-08-23T13:18:43Z</time>
      </trkpt>
      <trkpt lat="45.11988" lon="2.6947">
        <ele>1362.5</ele>
        <time>2021-08-23T13:18:45Z</time>
      </trkpt>
      <trkpt lat="45.11999" lon="2.69482">
        <ele>1362.2</ele>
        <time>2021-08-23T13:18:47Z</time>
      </trkpt>
      <trkpt lat="45.12011" lon="2.69494">
        <ele>1362.3</ele>
        <time>2021-08-23T13:18:49Z</time>
      </trkpt>
      <trkpt lat="45.12023" lon="2.69505">
        <ele>1362.2</ele>
        <time>2021-08-23T13:18:51Z</time>
      </trkpt>
      <trkpt lat="45.12036" lon="2.69513">
        <ele>1362.2</ele>
        <time>2021-08-23T13:18:53Z</time>
      </trkpt>
      <trkpt lat="45.1205" lon="2.69521">
        <ele>1362.5</ele>
        <time>2021-08-23T13:18:55Z</time>
      </trkpt>
      <trkpt lat="45.12064" lon="2.69528">
        <ele>1363.2</ele>
        <time>2021-08-23T13:18:57Z</time>
      </trkpt>
      <trkpt lat="45.12077" lon="2.69539">
        <ele>1362.6</ele>
        <time>2021-08-23T13:18:59Z</time>
      </trkpt>
      <trkpt lat="45.12089" lon="2.69552">
        <ele>1360.9</ele>
        <time>2021-08-23T13:19:01Z</time>
      </trkpt>
      <trkpt lat="45.121" lon="2.69567">
        <ele>1358.9</ele>
        <time>2021-08-23T13:19:03Z</time>
      </trkpt>
      <trkpt lat="45.12111" lon="2.69582">
        <ele>1357.3</ele>
        <time>2021-08-23T13:19:05Z</time>
      </trkpt>
      <trkpt lat="45.12123" lon="2.69595">
        <ele>1355.9</ele>
        <time>2021-08-23T13:19:07Z</time>
      </trkpt>
      <trkpt lat="45.12136" lon="2.69606">
        <ele>1354.9</ele>
        <time>2021-08-23T13:19:09Z</time>
      </trkpt>
      <trkpt lat="45.1215" lon="2.69616">
        <ele>1354.6</ele>
        <time>2021-08-23T13:19:11Z</time>
      </trkpt>
      <trkpt lat="45.12163" lon="2.69626">
        <ele>1354.4</ele>
        <time>2021-08-23T13:19:13Z</time>
      </trkpt>
      <trkpt lat="45.12177" lon="2.69635">
        <ele>1353.7</ele>
        <time>2021-08-23T13:19:15Z</time>
      </trkpt>
      <trkpt lat="45.1219" lon="2.69644">
        <ele>1352.8</ele>
        <time>2021-08-23T13:19:17Z</time>
      </trkpt>
      <trkpt lat="45.12204" lon="2.69652">
        <ele>1352.6</ele>
        <time>2021-08-23T13:19:19Z</time>
      </trkpt>
      <trkpt lat="45.12219" lon="2.69658">
        <ele>1353</ele>
        <time>2021-08-23T13:19:21Z</time>
      </trkpt>
      <trkpt lat="45.12233" lon="2.69665">
        <ele>1353.3</ele>
        <time>2021-08-23T13:19:23Z</time>
      </trkpt>
      <trkpt lat="45.12247" lon="2.69674">
        <ele>1352.1</ele>
        <time>2021-08-23T13:19:25Z</time>
      </trkpt>
      <trkpt lat="45.1226" lon="2.69684">
        <ele>1350.7</ele>
        <time>2021-08-23T13:19:27Z</time>
      </trkpt>
      <trkpt lat="45.12274" lon="2.69692">
        <ele>1349.9</ele>
        <time>2021-08-23T13:19:29Z</time>
      </trkpt>
      <trkpt lat="45.12288" lon="2.697">
        <ele>1349.5</ele>
        <time>2021-08-23T13:19:31Z</time>
      </trkpt>
      <trkpt lat="45.12304" lon="2.69707">
        <ele>1350</ele>
        <time>2021-08-23T13:19:33Z</time>
      </trkpt>
      <trkpt lat="45.12319" lon="2.69714">
        <ele>1350.3</ele>
        <time>2021-08-23T13:19:35Z</time>
      </trkpt>
      <trkpt lat="45.12333" lon="2.69722">
        <ele>1350.2</ele>
        <time>2021-08-23T13:19:37Z</time>
      </trkpt>
      <trkpt lat="45.12349" lon="2.69729">
        <ele>1348.4</ele>
        <time>2021-08-23T13:19:39Z</time>
      </trkpt>
      <trkpt lat="45.12364" lon="2.69734">
        <ele>1347.5</ele>
        <time>2021-08-23T13:19:41Z</time>
      </trkpt>
      <trkpt lat="45.1238" lon="2.69739">
        <ele>1346.8</ele>
        <time>2021-08-23T13:19:43Z</time>
      </trkpt>
      <trkpt lat="45.12395" lon="2.69744">
        <ele>1346.2</ele>
        <time>2021-08-23T13:19:45Z</time>
      </trkpt>
      <trkpt lat="45.1241" lon="2.69748">
        <ele>1346.1</ele>
        <time>2021-08-23T13:19:47Z</time>
      </trkpt>
      <trkpt lat="45.12426" lon="2.69752">
        <ele>1346</ele>
        <time>2021-08-23T13:19:49Z</time>
      </trkpt>
      <trkpt lat="45.12442" lon="2.69755">
        <ele>1346.1</ele>
        <time>2021-08-23T13:19:51Z</time>
      </trkpt>
      <trkpt lat="45.12457" lon="2.69759">
        <ele>1346.2</ele>
        <time>2021-08-23T13:19:53Z</time>
      </trkpt>
      <trkpt lat="45.12473" lon="2.69764">
        <ele>1345.9</ele>
        <time>2021-08-23T13:19:55Z</time>
      </trkpt>
      <trkpt lat="45.12487" lon="2.69772">
        <ele>1344.7</ele>
        <time>2021-08-23T13:19:57Z</time>
      </trkpt>
      <trkpt lat="45.12501" lon="2.69782">
        <ele>1342.8</ele>
        <time>2021-08-23T13:19:59Z</time>
      </trkpt>
      <trkpt lat="45.12514" lon="2.69794">
        <ele>1340.3</ele>
        <time>2021-08-23T13:20:01Z</time>
      </trkpt>
      <trkpt lat="45.12527" lon="2.69806">
        <ele>1338.8</ele>
        <time>2021-08-23T13:20:03Z</time>
      </trkpt>
      <trkpt lat="45.12541" lon="2.69817">
        <ele>1338.2</ele>
        <time>2021-08-23T13:20:05Z</time>
      </trkpt>
      <trkpt lat="45.12555" lon="2.69829">
        <ele>1338.6</ele>
        <time>2021-08-23T13:20:07Z</time>
      </trkpt>
      <trkpt lat="45.12568" lon="2.69842">
        <ele>1338.5</ele>
        <time>2021-08-23T13:20:09Z</time>
      </trkpt>
      <trkpt lat="45.1258" lon="2.69858">
        <ele>1337.5</ele>
        <time>2021-08-23T13:20:11Z</time>
      </trkpt>
      <trkpt lat="45.12591" lon="2.69875">
        <ele>1336.2</ele>
        <time>2021-08-23T13:20:13Z</time>
      </trkpt>
      <trkpt lat="45.12601" lon="2.69893">
        <ele>1335.5</ele>
        <time>2021-08-23T13:20:15Z</time>
      </trkpt>
      <trkpt lat="45.12612" lon="2.69909">
        <ele>1336.3</ele>
        <time>2021-08-23T13:20:17Z</time>
      </trkpt>
      <trkpt lat="45.12623" lon="2.69926">
        <ele>1336.8</ele>
        <time>2021-08-23T13:20:19Z</time>
      </trkpt>
      <trkpt lat="45.12634" lon="2.69944">
        <ele>1336.7</ele>
        <time>2021-08-23T13:20:21Z</time>
      </trkpt>
      <trkpt lat="45.12645" lon="2.69961">
        <ele>1337</ele>
        <time>2021-08-23T13:20:23Z</time>
      </trkpt>
      <trkpt lat="45.12655" lon="2.69979">
        <ele>1337.7</ele>
        <time>2021-08-23T13:20:25Z</time>
      </trkpt>
      <trkpt lat="45.12665" lon="2.69997">
        <ele>1337.9</ele>
        <time>2021-08-23T13:20:27Z</time>
      </trkpt>
      <trkpt lat="45.12674" lon="2.70017">
        <ele>1335.6</ele>
        <time>2021-08-23T13:20:29Z</time>
      </trkpt>
      <trkpt lat="45.12683" lon="2.70037">
        <ele>1333.3</ele>
        <time>2021-08-23T13:20:31Z</time>
      </trkpt>
      <trkpt lat="45.12694" lon="2.70054">
        <ele>1332.3</ele>
        <time>2021-08-23T13:20:33Z</time>
      </trkpt>
      <trkpt lat="45.12705" lon="2.70071">
        <ele>1331.8</ele>
        <time>2021-08-23T13:20:35Z</time>
      </trkpt>
      <trkpt lat="45.12717" lon="2.70087">
        <ele>1331.6</ele>
        <time>2021-08-23T13:20:37Z</time>
      </trkpt>
      <trkpt lat="45.12728" lon="2.70102">
        <ele>1330.6</ele>
        <time>2021-08-23T13:20:39Z</time>
      </trkpt>
      <trkpt lat="45.1274" lon="2.70117">
        <ele>1330.2</ele>
        <time>2021-08-23T13:20:41Z</time>
      </trkpt>
      <trkpt lat="45.12752" lon="2.70132">
        <ele>1329.2</ele>
        <time>2021-08-23T13:20:43Z</time>
      </trkpt>
      <trkpt lat="45.12764" lon="2.70146">
        <ele>1327.1</ele>
        <time>2021-08-23T13:20:45Z</time>
      </trkpt>
      <trkpt lat="45.12778" lon="2.70159">
        <ele>1325.8</ele>
        <time>2021-08-23T13:20:47Z</time>
      </trkpt>
      <trkpt lat="45.12792" lon="2.70169">
        <ele>1325.3</ele>
        <time>2021-08-23T13:20:49Z</time>
      </trkpt>
      <trkpt lat="45.12807" lon="2.70176">
        <ele>1325.3</ele>
        <time>2021-08-23T13:20:51Z</time>
      </trkpt>
      <trkpt lat="45.12822" lon="2.70179">
        <ele>1326.9</ele>
        <time>2021-08-23T13:20:53Z</time>
      </trkpt>
      <trkpt lat="45.12836" lon="2.7018">
        <ele>1328.6</ele>
        <time>2021-08-23T13:20:55Z</time>
      </trkpt>
      <trkpt lat="45.12848" lon="2.70183">
        <ele>1329.5</ele>
        <time>2021-08-23T13:20:57Z</time>
      </trkpt>
      <trkpt lat="45.1286" lon="2.70185">
        <ele>1330.4</ele>
        <time>2021-08-23T13:20:59Z</time>
      </trkpt>
      <trkpt lat="45.12872" lon="2.70189">
        <ele>1330.9</ele>
        <time>2021-08-23T13:21:01Z</time>
      </trkpt>
      <trkpt lat="45.12882" lon="2.70195">
        <ele>1330.6</ele>
        <time>2021-08-23T13:21:03Z</time>
      </trkpt>
      <trkpt lat="45.12891" lon="2.70203">
        <ele>1329.7</ele>
        <time>2021-08-23T13:21:05Z</time>
      </trkpt>
      <trkpt lat="45.129" lon="2.70209">
        <ele>1329.5</ele>
        <time>2021-08-23T13:21:07Z</time>
      </trkpt>
      <trkpt lat="45.12908" lon="2.70216">
        <ele>1329.2</ele>
        <time>2021-08-23T13:21:09Z</time>
      </trkpt>
      <trkpt lat="45.12916" lon="2.70221">
        <ele>1329.1</ele>
        <time>2021-08-23T13:21:11Z</time>
      </trkpt>
      <trkpt lat="45.12923" lon="2.70226">
        <ele>1328.3</ele>
        <time>2021-08-23T13:21:13Z</time>
      </trkpt>
      <trkpt lat="45.12931" lon="2.70229">
        <ele>1327.8</ele>
        <time>2021-08-23T13:21:15Z</time>
      </trkpt>
      <trkpt lat="45.12937" lon="2.70233">
        <ele>1327.3</ele>
        <time>2021-08-23T13:21:17Z</time>
      </trkpt>
      <trkpt lat="45.12944" lon="2.70236">
        <ele>1327.1</ele>
        <time>2021-08-23T13:21:19Z</time>
      </trkpt>
      <trkpt lat="45.12951" lon="2.70237">
        <ele>1327.2</ele>
        <time>2021-08-23T13:21:21Z</time>
      </trkpt>
      <trkpt lat="45.12958" lon="2.70239">
        <ele>1327.4</ele>
        <time>2021-08-23T13:21:23Z</time>
      </trkpt>
      <trkpt lat="45.12965" lon="2.70241">
        <ele>1327.6</ele>
        <time>2021-08-23T13:21:25Z</time>
      </trkpt>
      <trkpt lat="45.12972" lon="2.70242">
        <ele>1327.9</ele>
        <time>2021-08-23T13:21:27Z</time>
      </trkpt>
      <trkpt lat="45.12979" lon="2.70244">
        <ele>1328</ele>
        <time>2021-08-23T13:21:29Z</time>
      </trkpt>
      <trkpt lat="45.12986" lon="2.70247">
        <ele>1328.2</ele>
        <time>2021-08-23T13:21:31Z</time>
      </trkpt>
      <trkpt lat="45.12992" lon="2.7025">
        <ele>1328.4</ele>
        <time>2021-08-23T13:21:33Z</time>
      </trkpt>
      <trkpt lat="45.12998" lon="2.70253">
        <ele>1328.4</ele>
        <time>2021-08-23T13:21:35Z</time>
      </trkpt>
      <trkpt lat="45.13004" lon="2.70256">
        <ele>1327.9</ele>
        <time>2021-08-23T13:21:37Z</time>
      </trkpt>
      <trkpt lat="45.13011" lon="2.7026">
        <ele>1327.1</ele>
        <time>2021-08-23T13:21:39Z</time>
      </trkpt>
      <trkpt lat="45.13017" lon="2.70264">
        <ele>1326.5</ele>
        <time>2021-08-23T13:21:41Z</time>
      </trkpt>
      <trkpt lat="45.13022" lon="2.70269">
        <ele>1325.8</ele>
        <time>2021-08-23T13:21:43Z</time>
      </trkpt>
      <trkpt lat="45.13027" lon="2.70273">
        <ele>1325.4</ele>
        <time>2021-08-23T13:21:45Z</time>
      </trkpt>
      <trkpt lat="45.13031" lon="2.70278">
        <ele>1325</ele>
        <time>2021-08-23T13:21:47Z</time>
      </trkpt>
      <trkpt lat="45.13035" lon="2.70279">
        <ele>1324.9</ele>
        <time>2021-08-23T13:21:49Z</time>
      </trkpt>
      <trkpt lat="45.1304" lon="2.70276">
        <ele>1325.1</ele>
        <time>2021-08-23T13:21:51Z</time>
      </trkpt>
      <trkpt lat="45.13043" lon="2.70271">
        <ele>1325.3</ele>
        <time>2021-08-23T13:21:53Z</time>
      </trkpt>
      <trkpt lat="45.13045" lon="2.70266">
        <ele>1325.6</ele>
        <time>2021-08-23T13:21:55Z</time>
      </trkpt>
      <trkpt lat="45.13046" lon="2.70259">
        <ele>1325.8</ele>
        <time>2021-08-23T13:21:57Z</time>
      </trkpt>
      <trkpt lat="45.13048" lon="2.70252">
        <ele>1326</ele>
        <time>2021-08-23T13:21:59Z</time>
      </trkpt>
      <trkpt lat="45.1305" lon="2.70245">
        <ele>1326.2</ele>
        <time>2021-08-23T13:22:01Z</time>
      </trkpt>
      <trkpt lat="45.13051" lon="2.70237">
        <ele>1326.4</ele>
        <time>2021-08-23T13:22:03Z</time>
      </trkpt>
      <trkpt lat="45.13052" lon="2.7023">
        <ele>1326.6</ele>
        <time>2021-08-23T13:22:05Z</time>
      </trkpt>
      <trkpt lat="45.13054" lon="2.70227">
        <ele>1326.6</ele>
        <time>2021-08-23T13:22:07Z</time>
      </trkpt>
      <trkpt lat="45.13059" lon="2.70228">
        <ele>1326.1</ele>
        <time>2021-08-23T13:22:09Z</time>
      </trkpt>
      <trkpt lat="45.13062" lon="2.70228">
        <ele>1325.9</ele>
        <time>2021-08-23T13:22:11Z</time>
      </trkpt>
      <trkpt lat="45.13068" lon="2.70223">
        <ele>1325.4</ele>
        <time>2021-08-23T13:22:13Z</time>
      </trkpt>
      <trkpt lat="45.13072" lon="2.70221">
        <ele>1325</ele>
        <time>2021-08-23T13:22:15Z</time>
      </trkpt>
      <trkpt lat="45.13076" lon="2.7022">
        <ele>1324.6</ele>
        <time>2021-08-23T13:22:17Z</time>
      </trkpt>
      <trkpt lat="45.13079" lon="2.70221">
        <ele>1324.4</ele>
        <time>2021-08-23T13:22:19Z</time>
      </trkpt>
      <trkpt lat="45.13082" lon="2.70223">
        <ele>1324.1</ele>
        <time>2021-08-23T13:22:21Z</time>
      </trkpt>
      <trkpt lat="45.13087" lon="2.70224">
        <ele>1322.1</ele>
        <time>2021-08-23T13:22:23Z</time>
      </trkpt>
      <trkpt lat="45.1309" lon="2.70223">
        <ele>1320.5</ele>
        <time>2021-08-23T13:22:25Z</time>
      </trkpt>
      <trkpt lat="45.13093" lon="2.70223">
        <ele>1319</ele>
        <time>2021-08-23T13:22:27Z</time>
      </trkpt>
      <trkpt lat="45.13096" lon="2.70222">
        <ele>1317.3</ele>
        <time>2021-08-23T13:22:29Z</time>
      </trkpt>
      <trkpt lat="45.13098" lon="2.70218">
        <ele>1315.8</ele>
        <time>2021-08-23T13:22:31Z</time>
      </trkpt>
      <trkpt lat="45.131" lon="2.70218">
        <ele>1315.1</ele>
        <time>2021-08-23T13:22:33Z</time>
      </trkpt>
      <trkpt lat="45.131" lon="2.70218">
        <ele>1314.8</ele>
        <time>2021-08-23T13:22:35Z</time>
      </trkpt>
      <trkpt lat="45.131" lon="2.70218">
        <ele>1314.9</ele>
        <time>2021-08-23T13:22:37Z</time>
      </trkpt>
      <trkpt lat="45.131" lon="2.70218">
        <ele>1314.6</ele>
        <time>2021-08-23T13:22:39Z</time>
      </trkpt>
      <trkpt lat="45.13101" lon="2.70218">
        <ele>1314.4</ele>
        <time>2021-08-23T13:22:41Z</time>
      </trkpt>
      <trkpt lat="45.13099" lon="2.70219">
        <ele>1315.2</ele>
        <time>2021-08-23T13:22:53Z</time>
      </trkpt>
      <trkpt lat="45.131" lon="2.70219">
        <ele>1314.9</ele>
        <time>2021-08-23T13:22:55Z</time>
      </trkpt>
      <trkpt lat="45.13101" lon="2.7022">
        <ele>1314.4</ele>
        <time>2021-08-23T13:22:57Z</time>
      </trkpt>
      <trkpt lat="45.13101" lon="2.70221">
        <ele>1314.6</ele>
        <time>2021-08-23T13:22:59Z</time>
      </trkpt>
      <trkpt lat="45.131" lon="2.7022">
        <ele>1314.7</ele>
        <time>2021-08-23T13:23:01Z</time>
      </trkpt>
      <trkpt lat="45.131" lon="2.70219">
        <ele>1315.1</ele>
        <time>2021-08-23T13:23:03Z</time>
      </trkpt>
      <trkpt lat="45.13099" lon="2.70219">
        <ele>1315.3</ele>
        <time>2021-08-23T13:23:05Z</time>
      </trkpt>
      <trkpt lat="45.13098" lon="2.70216">
        <ele>1316</ele>
        <time>2021-08-23T13:23:07Z</time>
      </trkpt>
      <trkpt lat="45.13096" lon="2.70217">
        <ele>1317.3</ele>
        <time>2021-08-23T13:23:09Z</time>
      </trkpt>
      <trkpt lat="45.13093" lon="2.70218">
        <ele>1318.6</ele>
        <time>2021-08-23T13:23:11Z</time>
      </trkpt>
      <trkpt lat="45.13091" lon="2.70217">
        <ele>1319.6</ele>
        <time>2021-08-23T13:23:13Z</time>
      </trkpt>
      <trkpt lat="45.13092" lon="2.70217">
        <ele>1319.2</ele>
        <time>2021-08-23T13:23:15Z</time>
      </trkpt>
      <trkpt lat="45.13092" lon="2.70216">
        <ele>1319</ele>
        <time>2021-08-23T13:23:17Z</time>
      </trkpt>
      <trkpt lat="45.13093" lon="2.70215">
        <ele>1318.9</ele>
        <time>2021-08-23T13:23:19Z</time>
      </trkpt>
      <trkpt lat="45.13092" lon="2.70216">
        <ele>1319.3</ele>
        <time>2021-08-23T13:23:21Z</time>
      </trkpt>
      <trkpt lat="45.1308" lon="2.70226">
        <ele>1324.3</ele>
        <time>2021-08-23T13:25:11Z</time>
      </trkpt>
      <trkpt lat="45.13076" lon="2.70229">
        <ele>1324.6</ele>
        <time>2021-08-23T13:25:13Z</time>
      </trkpt>
      <trkpt lat="45.13074" lon="2.70232">
        <ele>1324.8</ele>
        <time>2021-08-23T13:25:15Z</time>
      </trkpt>
      <trkpt lat="45.13071" lon="2.70232">
        <ele>1325</ele>
        <time>2021-08-23T13:25:17Z</time>
      </trkpt>
      <trkpt lat="45.13068" lon="2.70231">
        <ele>1325.3</ele>
        <time>2021-08-23T13:25:19Z</time>
      </trkpt>
      <trkpt lat="45.13066" lon="2.70231">
        <ele>1325.4</ele>
        <time>2021-08-23T13:25:21Z</time>
      </trkpt>
      <trkpt lat="45.13063" lon="2.70232">
        <ele>1325.6</ele>
        <time>2021-08-23T13:25:23Z</time>
      </trkpt>
      <trkpt lat="45.13058" lon="2.70231">
        <ele>1326</ele>
        <time>2021-08-23T13:25:25Z</time>
      </trkpt>
      <trkpt lat="45.13054" lon="2.70231">
        <ele>1326.4</ele>
        <time>2021-08-23T13:25:27Z</time>
      </trkpt>
      <trkpt lat="45.13052" lon="2.70232">
        <ele>1326.5</ele>
        <time>2021-08-23T13:25:29Z</time>
      </trkpt>
      <trkpt lat="45.1305" lon="2.70235">
        <ele>1326.6</ele>
        <time>2021-08-23T13:25:31Z</time>
      </trkpt>
      <trkpt lat="45.13047" lon="2.70241">
        <ele>1326.5</ele>
        <time>2021-08-23T13:25:33Z</time>
      </trkpt>
      <trkpt lat="45.13046" lon="2.70247">
        <ele>1326.4</ele>
        <time>2021-08-23T13:25:35Z</time>
      </trkpt>
      <trkpt lat="45.13047" lon="2.70253">
        <ele>1326.1</ele>
        <time>2021-08-23T13:25:37Z</time>
      </trkpt>
      <trkpt lat="45.13045" lon="2.7026">
        <ele>1325.9</ele>
        <time>2021-08-23T13:25:39Z</time>
      </trkpt>
      <trkpt lat="45.13042" lon="2.70265">
        <ele>1325.7</ele>
        <time>2021-08-23T13:25:41Z</time>
      </trkpt>
      <trkpt lat="45.1304" lon="2.70269">
        <ele>1325.5</ele>
        <time>2021-08-23T13:25:43Z</time>
      </trkpt>
      <trkpt lat="45.13038" lon="2.70272">
        <ele>1325.3</ele>
        <time>2021-08-23T13:25:45Z</time>
      </trkpt>
      <trkpt lat="45.13036" lon="2.70275">
        <ele>1325.2</ele>
        <time>2021-08-23T13:25:47Z</time>
      </trkpt>
      <trkpt lat="45.13034" lon="2.70283">
        <ele>1324.6</ele>
        <time>2021-08-23T13:25:49Z</time>
      </trkpt>
      <trkpt lat="45.13036" lon="2.70294">
        <ele>1323.9</ele>
        <time>2021-08-23T13:25:51Z</time>
      </trkpt>
      <trkpt lat="45.13038" lon="2.70307">
        <ele>1323.2</ele>
        <time>2021-08-23T13:25:53Z</time>
      </trkpt>
      <trkpt lat="45.1304" lon="2.70323">
        <ele>1322.4</ele>
        <time>2021-08-23T13:25:55Z</time>
      </trkpt>
      <trkpt lat="45.13043" lon="2.70339">
        <ele>1321.1</ele>
        <time>2021-08-23T13:25:57Z</time>
      </trkpt>
      <trkpt lat="45.13049" lon="2.70356">
        <ele>1319.2</ele>
        <time>2021-08-23T13:25:59Z</time>
      </trkpt>
      <trkpt lat="45.13058" lon="2.70371">
        <ele>1318.5</ele>
        <time>2021-08-23T13:26:01Z</time>
      </trkpt>
      <trkpt lat="45.1307" lon="2.70386">
        <ele>1319</ele>
        <time>2021-08-23T13:26:03Z</time>
      </trkpt>
      <trkpt lat="45.13083" lon="2.704">
        <ele>1320.6</ele>
        <time>2021-08-23T13:26:05Z</time>
      </trkpt>
      <trkpt lat="45.13097" lon="2.70418">
        <ele>1320.3</ele>
        <time>2021-08-23T13:26:07Z</time>
      </trkpt>
      <trkpt lat="45.13106" lon="2.70441">
        <ele>1317.9</ele>
        <time>2021-08-23T13:26:09Z</time>
      </trkpt>
      <trkpt lat="45.13114" lon="2.70468">
        <ele>1315.6</ele>
        <time>2021-08-23T13:26:11Z</time>
      </trkpt>
      <trkpt lat="45.13121" lon="2.70497">
        <ele>1314.2</ele>
        <time>2021-08-23T13:26:13Z</time>
      </trkpt>
      <trkpt lat="45.1313" lon="2.70528">
        <ele>1312.9</ele>
        <time>2021-08-23T13:26:15Z</time>
      </trkpt>
      <trkpt lat="45.13139" lon="2.70562">
        <ele>1312.2</ele>
        <time>2021-08-23T13:26:17Z</time>
      </trkpt>
      <trkpt lat="45.13148" lon="2.70597">
        <ele>1311.5</ele>
        <time>2021-08-23T13:26:19Z</time>
      </trkpt>
      <trkpt lat="45.13158" lon="2.70633">
        <ele>1309.9</ele>
        <time>2021-08-23T13:26:21Z</time>
      </trkpt>
      <trkpt lat="45.13168" lon="2.70668">
        <ele>1308.4</ele>
        <time>2021-08-23T13:26:23Z</time>
      </trkpt>
      <trkpt lat="45.13178" lon="2.70702">
        <ele>1308.1</ele>
        <time>2021-08-23T13:26:25Z</time>
      </trkpt>
      <trkpt lat="45.13186" lon="2.70735">
        <ele>1307.4</ele>
        <time>2021-08-23T13:26:27Z</time>
      </trkpt>
      <trkpt lat="45.13193" lon="2.70767">
        <ele>1306.7</ele>
        <time>2021-08-23T13:26:29Z</time>
      </trkpt>
      <trkpt lat="45.13201" lon="2.70797">
        <ele>1305.9</ele>
        <time>2021-08-23T13:26:31Z</time>
      </trkpt>
      <trkpt lat="45.13208" lon="2.70825">
        <ele>1305.3</ele>
        <time>2021-08-23T13:26:33Z</time>
      </trkpt>
      <trkpt lat="45.13215" lon="2.70853">
        <ele>1305</ele>
        <time>2021-08-23T13:26:35Z</time>
      </trkpt>
      <trkpt lat="45.1322" lon="2.7088">
        <ele>1303.9</ele>
        <time>2021-08-23T13:26:37Z</time>
      </trkpt>
      <trkpt lat="45.13223" lon="2.70908">
        <ele>1301.7</ele>
        <time>2021-08-23T13:26:39Z</time>
      </trkpt>
      <trkpt lat="45.13226" lon="2.70936">
        <ele>1299.9</ele>
        <time>2021-08-23T13:26:41Z</time>
      </trkpt>
      <trkpt lat="45.13229" lon="2.70963">
        <ele>1298.3</ele>
        <time>2021-08-23T13:26:43Z</time>
      </trkpt>
      <trkpt lat="45.13234" lon="2.7099">
        <ele>1297.2</ele>
        <time>2021-08-23T13:26:45Z</time>
      </trkpt>
      <trkpt lat="45.13239" lon="2.71015">
        <ele>1296.3</ele>
        <time>2021-08-23T13:26:47Z</time>
      </trkpt>
      <trkpt lat="45.13242" lon="2.71041">
        <ele>1295</ele>
        <time>2021-08-23T13:26:49Z</time>
      </trkpt>
      <trkpt lat="45.13243" lon="2.71068">
        <ele>1293</ele>
        <time>2021-08-23T13:26:51Z</time>
      </trkpt>
      <trkpt lat="45.13242" lon="2.71097">
        <ele>1290.8</ele>
        <time>2021-08-23T13:26:53Z</time>
      </trkpt>
      <trkpt lat="45.1324" lon="2.71126">
        <ele>1289.8</ele>
        <time>2021-08-23T13:26:55Z</time>
      </trkpt>
      <trkpt lat="45.13241" lon="2.71156">
        <ele>1289.6</ele>
        <time>2021-08-23T13:26:57Z</time>
      </trkpt>
      <trkpt lat="45.13242" lon="2.71185">
        <ele>1288.3</ele>
        <time>2021-08-23T13:26:59Z</time>
      </trkpt>
      <trkpt lat="45.13243" lon="2.71213">
        <ele>1286.3</ele>
        <time>2021-08-23T13:27:01Z</time>
      </trkpt>
      <trkpt lat="45.13244" lon="2.71241">
        <ele>1284.7</ele>
        <time>2021-08-23T13:27:03Z</time>
      </trkpt>
      <trkpt lat="45.13248" lon="2.71269">
        <ele>1283.3</ele>
        <time>2021-08-23T13:27:05Z</time>
      </trkpt>
      <trkpt lat="45.13253" lon="2.71296">
        <ele>1282.9</ele>
        <time>2021-08-23T13:27:07Z</time>
      </trkpt>
      <trkpt lat="45.1326" lon="2.71322">
        <ele>1282.8</ele>
        <time>2021-08-23T13:27:09Z</time>
      </trkpt>
      <trkpt lat="45.13266" lon="2.71348">
        <ele>1282.2</ele>
        <time>2021-08-23T13:27:11Z</time>
      </trkpt>
      <trkpt lat="45.13272" lon="2.71374">
        <ele>1281.3</ele>
        <time>2021-08-23T13:27:13Z</time>
      </trkpt>
      <trkpt lat="45.13278" lon="2.714">
        <ele>1280.3</ele>
        <time>2021-08-23T13:27:15Z</time>
      </trkpt>
      <trkpt lat="45.13281" lon="2.71427">
        <ele>1278.7</ele>
        <time>2021-08-23T13:27:17Z</time>
      </trkpt>
      <trkpt lat="45.13285" lon="2.71454">
        <ele>1277</ele>
        <time>2021-08-23T13:27:19Z</time>
      </trkpt>
      <trkpt lat="45.13289" lon="2.71482">
        <ele>1275.5</ele>
        <time>2021-08-23T13:27:21Z</time>
      </trkpt>
      <trkpt lat="45.13292" lon="2.71509">
        <ele>1273.8</ele>
        <time>2021-08-23T13:27:23Z</time>
      </trkpt>
      <trkpt lat="45.13296" lon="2.71536">
        <ele>1272.6</ele>
        <time>2021-08-23T13:27:25Z</time>
      </trkpt>
      <trkpt lat="45.133" lon="2.71563">
        <ele>1271.8</ele>
        <time>2021-08-23T13:27:27Z</time>
      </trkpt>
      <trkpt lat="45.13305" lon="2.7159">
        <ele>1271</ele>
        <time>2021-08-23T13:27:29Z</time>
      </trkpt>
      <trkpt lat="45.1331" lon="2.71617">
        <ele>1269.3</ele>
        <time>2021-08-23T13:27:31Z</time>
      </trkpt>
      <trkpt lat="45.13314" lon="2.71644">
        <ele>1267.4</ele>
        <time>2021-08-23T13:27:33Z</time>
      </trkpt>
      <trkpt lat="45.13319" lon="2.71672">
        <ele>1265.5</ele>
        <time>2021-08-23T13:27:35Z</time>
      </trkpt>
      <trkpt lat="45.13324" lon="2.71702">
        <ele>1263.8</ele>
        <time>2021-08-23T13:27:37Z</time>
      </trkpt>
      <trkpt lat="45.13329" lon="2.71732">
        <ele>1262.3</ele>
        <time>2021-08-23T13:27:39Z</time>
      </trkpt>
      <trkpt lat="45.13334" lon="2.71762">
        <ele>1261.5</ele>
        <time>2021-08-23T13:27:41Z</time>
      </trkpt>
      <trkpt lat="45.1334" lon="2.71794">
        <ele>1261.5</ele>
        <time>2021-08-23T13:27:43Z</time>
      </trkpt>
      <trkpt lat="45.13345" lon="2.71826">
        <ele>1261.1</ele>
        <time>2021-08-23T13:27:45Z</time>
      </trkpt>
      <trkpt lat="45.1335" lon="2.71858">
        <ele>1258.9</ele>
        <time>2021-08-23T13:27:47Z</time>
      </trkpt>
      <trkpt lat="45.13354" lon="2.71891">
        <ele>1255.9</ele>
        <time>2021-08-23T13:27:49Z</time>
      </trkpt>
      <trkpt lat="45.13358" lon="2.71924">
        <ele>1252.9</ele>
        <time>2021-08-23T13:27:51Z</time>
      </trkpt>
      <trkpt lat="45.13362" lon="2.71957">
        <ele>1250.8</ele>
        <time>2021-08-23T13:27:53Z</time>
      </trkpt>
      <trkpt lat="45.13364" lon="2.71987">
        <ele>1248.6</ele>
        <time>2021-08-23T13:27:55Z</time>
      </trkpt>
      <trkpt lat="45.13367" lon="2.72015">
        <ele>1246.5</ele>
        <time>2021-08-23T13:27:57Z</time>
      </trkpt>
      <trkpt lat="45.13369" lon="2.72042">
        <ele>1244.3</ele>
        <time>2021-08-23T13:27:59Z</time>
      </trkpt>
      <trkpt lat="45.13371" lon="2.72066">
        <ele>1242.6</ele>
        <time>2021-08-23T13:28:01Z</time>
      </trkpt>
      <trkpt lat="45.13377" lon="2.72089">
        <ele>1241.7</ele>
        <time>2021-08-23T13:28:03Z</time>
      </trkpt>
      <trkpt lat="45.13385" lon="2.72111">
        <ele>1241.1</ele>
        <time>2021-08-23T13:28:05Z</time>
      </trkpt>
      <trkpt lat="45.13395" lon="2.72132">
        <ele>1241.4</ele>
        <time>2021-08-23T13:28:07Z</time>
      </trkpt>
      <trkpt lat="45.13405" lon="2.72151">
        <ele>1241.6</ele>
        <time>2021-08-23T13:28:09Z</time>
      </trkpt>
      <trkpt lat="45.13416" lon="2.72172">
        <ele>1241.9</ele>
        <time>2021-08-23T13:28:11Z</time>
      </trkpt>
      <trkpt lat="45.13427" lon="2.72192">
        <ele>1241.8</ele>
        <time>2021-08-23T13:28:13Z</time>
      </trkpt>
      <trkpt lat="45.13435" lon="2.72212">
        <ele>1241</ele>
        <time>2021-08-23T13:28:15Z</time>
      </trkpt>
      <trkpt lat="45.13438" lon="2.72234">
        <ele>1238.5</ele>
        <time>2021-08-23T13:28:17Z</time>
      </trkpt>
      <trkpt lat="45.13437" lon="2.72256">
        <ele>1235</ele>
        <time>2021-08-23T13:28:19Z</time>
      </trkpt>
      <trkpt lat="45.13439" lon="2.72277">
        <ele>1233</ele>
        <time>2021-08-23T13:28:21Z</time>
      </trkpt>
      <trkpt lat="45.13445" lon="2.72296">
        <ele>1232.6</ele>
        <time>2021-08-23T13:28:23Z</time>
      </trkpt>
      <trkpt lat="45.13455" lon="2.72311">
        <ele>1234</ele>
        <time>2021-08-23T13:28:25Z</time>
      </trkpt>
      <trkpt lat="45.13464" lon="2.7232">
        <ele>1236</ele>
        <time>2021-08-23T13:28:27Z</time>
      </trkpt>
      <trkpt lat="45.13466" lon="2.72336">
        <ele>1235.2</ele>
        <time>2021-08-23T13:28:29Z</time>
      </trkpt>
      <trkpt lat="45.1346" lon="2.72351">
        <ele>1233.4</ele>
        <time>2021-08-23T13:28:31Z</time>
      </trkpt>
      <trkpt lat="45.13453" lon="2.72362">
        <ele>1231.2</ele>
        <time>2021-08-23T13:28:33Z</time>
      </trkpt>
      <trkpt lat="45.13448" lon="2.72374">
        <ele>1229.5</ele>
        <time>2021-08-23T13:28:35Z</time>
      </trkpt>
      <trkpt lat="45.13445" lon="2.7239">
        <ele>1228.4</ele>
        <time>2021-08-23T13:28:37Z</time>
      </trkpt>
      <trkpt lat="45.13444" lon="2.72408">
        <ele>1228.2</ele>
        <time>2021-08-23T13:28:39Z</time>
      </trkpt>
      <trkpt lat="45.13445" lon="2.72429">
        <ele>1228</ele>
        <time>2021-08-23T13:28:41Z</time>
      </trkpt>
      <trkpt lat="45.13447" lon="2.72452">
        <ele>1227.5</ele>
        <time>2021-08-23T13:28:43Z</time>
      </trkpt>
      <trkpt lat="45.13449" lon="2.72477">
        <ele>1227.1</ele>
        <time>2021-08-23T13:28:45Z</time>
      </trkpt>
      <trkpt lat="45.13451" lon="2.72503">
        <ele>1226.5</ele>
        <time>2021-08-23T13:28:47Z</time>
      </trkpt>
      <trkpt lat="45.13452" lon="2.7253">
        <ele>1225.8</ele>
        <time>2021-08-23T13:28:49Z</time>
      </trkpt>
      <trkpt lat="45.13455" lon="2.72558">
        <ele>1225.3</ele>
        <time>2021-08-23T13:28:51Z</time>
      </trkpt>
      <trkpt lat="45.13457" lon="2.72586">
        <ele>1225.2</ele>
        <time>2021-08-23T13:28:53Z</time>
      </trkpt>
      <trkpt lat="45.13461" lon="2.72614">
        <ele>1224.3</ele>
        <time>2021-08-23T13:28:55Z</time>
      </trkpt>
      <trkpt lat="45.13464" lon="2.72644">
        <ele>1223.6</ele>
        <time>2021-08-23T13:28:57Z</time>
      </trkpt>
      <trkpt lat="45.13469" lon="2.72674">
        <ele>1223.2</ele>
        <time>2021-08-23T13:28:59Z</time>
      </trkpt>
      <trkpt lat="45.13474" lon="2.72705">
        <ele>1222.7</ele>
        <time>2021-08-23T13:29:01Z</time>
      </trkpt>
      <trkpt lat="45.13479" lon="2.72733">
        <ele>1222.3</ele>
        <time>2021-08-23T13:29:03Z</time>
      </trkpt>
      <trkpt lat="45.13483" lon="2.7276">
        <ele>1220.8</ele>
        <time>2021-08-23T13:29:05Z</time>
      </trkpt>
      <trkpt lat="45.13488" lon="2.72786">
        <ele>1219.5</ele>
        <time>2021-08-23T13:29:07Z</time>
      </trkpt>
      <trkpt lat="45.13494" lon="2.72809">
        <ele>1218.7</ele>
        <time>2021-08-23T13:29:09Z</time>
      </trkpt>
      <trkpt lat="45.135" lon="2.72833">
        <ele>1218.1</ele>
        <time>2021-08-23T13:29:11Z</time>
      </trkpt>
      <trkpt lat="45.13507" lon="2.72858">
        <ele>1217.1</ele>
        <time>2021-08-23T13:29:13Z</time>
      </trkpt>
      <trkpt lat="45.13512" lon="2.72882">
        <ele>1215.6</ele>
        <time>2021-08-23T13:29:15Z</time>
      </trkpt>
      <trkpt lat="45.13519" lon="2.72904">
        <ele>1215.2</ele>
        <time>2021-08-23T13:29:17Z</time>
      </trkpt>
      <trkpt lat="45.13526" lon="2.7293">
        <ele>1214</ele>
        <time>2021-08-23T13:29:19Z</time>
      </trkpt>
      <trkpt lat="45.13533" lon="2.72955">
        <ele>1211.9</ele>
        <time>2021-08-23T13:29:21Z</time>
      </trkpt>
      <trkpt lat="45.13541" lon="2.72978">
        <ele>1210.3</ele>
        <time>2021-08-23T13:29:23Z</time>
      </trkpt>
      <trkpt lat="45.13551" lon="2.73">
        <ele>1210.1</ele>
        <time>2021-08-23T13:29:25Z</time>
      </trkpt>
      <trkpt lat="45.13562" lon="2.73023">
        <ele>1208.3</ele>
        <time>2021-08-23T13:29:27Z</time>
      </trkpt>
      <trkpt lat="45.13573" lon="2.73047">
        <ele>1206</ele>
        <time>2021-08-23T13:29:29Z</time>
      </trkpt>
      <trkpt lat="45.13583" lon="2.73067">
        <ele>1204</ele>
        <time>2021-08-23T13:29:31Z</time>
      </trkpt>
      <trkpt lat="45.13593" lon="2.73088">
        <ele>1201.9</ele>
        <time>2021-08-23T13:29:33Z</time>
      </trkpt>
      <trkpt lat="45.13599" lon="2.73106">
        <ele>1200.6</ele>
        <time>2021-08-23T13:29:35Z</time>
      </trkpt>
      <trkpt lat="45.13604" lon="2.73122">
        <ele>1199.1</ele>
        <time>2021-08-23T13:29:37Z</time>
      </trkpt>
      <trkpt lat="45.13609" lon="2.73137">
        <ele>1197.7</ele>
        <time>2021-08-23T13:29:39Z</time>
      </trkpt>
      <trkpt lat="45.13617" lon="2.73151">
        <ele>1197.3</ele>
        <time>2021-08-23T13:29:41Z</time>
      </trkpt>
      <trkpt lat="45.13626" lon="2.73165">
        <ele>1196.6</ele>
        <time>2021-08-23T13:29:43Z</time>
      </trkpt>
      <trkpt lat="45.13633" lon="2.73177">
        <ele>1197.4</ele>
        <time>2021-08-23T13:29:45Z</time>
      </trkpt>
      <trkpt lat="45.13635" lon="2.73193">
        <ele>1196.5</ele>
        <time>2021-08-23T13:29:47Z</time>
      </trkpt>
      <trkpt lat="45.1363" lon="2.73209">
        <ele>1193.7</ele>
        <time>2021-08-23T13:29:49Z</time>
      </trkpt>
      <trkpt lat="45.13626" lon="2.73228">
        <ele>1190.7</ele>
        <time>2021-08-23T13:29:51Z</time>
      </trkpt>
      <trkpt lat="45.13622" lon="2.73247">
        <ele>1188</ele>
        <time>2021-08-23T13:29:53Z</time>
      </trkpt>
      <trkpt lat="45.13621" lon="2.73266">
        <ele>1186.6</ele>
        <time>2021-08-23T13:29:55Z</time>
      </trkpt>
      <trkpt lat="45.13623" lon="2.73285">
        <ele>1186.4</ele>
        <time>2021-08-23T13:29:57Z</time>
      </trkpt>
      <trkpt lat="45.13625" lon="2.73304">
        <ele>1185.8</ele>
        <time>2021-08-23T13:29:59Z</time>
      </trkpt>
      <trkpt lat="45.13622" lon="2.73325">
        <ele>1184.1</ele>
        <time>2021-08-23T13:30:01Z</time>
      </trkpt>
      <trkpt lat="45.13618" lon="2.73345">
        <ele>1181.8</ele>
        <time>2021-08-23T13:30:03Z</time>
      </trkpt>
      <trkpt lat="45.13614" lon="2.73367">
        <ele>1179.7</ele>
        <time>2021-08-23T13:30:05Z</time>
      </trkpt>
      <trkpt lat="45.13613" lon="2.73392">
        <ele>1177.8</ele>
        <time>2021-08-23T13:30:07Z</time>
      </trkpt>
      <trkpt lat="45.13612" lon="2.73418">
        <ele>1176.2</ele>
        <time>2021-08-23T13:30:09Z</time>
      </trkpt>
      <trkpt lat="45.13611" lon="2.73445">
        <ele>1174.9</ele>
        <time>2021-08-23T13:30:11Z</time>
      </trkpt>
      <trkpt lat="45.13611" lon="2.73471">
        <ele>1173.9</ele>
        <time>2021-08-23T13:30:13Z</time>
      </trkpt>
      <trkpt lat="45.13613" lon="2.73495">
        <ele>1173.3</ele>
        <time>2021-08-23T13:30:15Z</time>
      </trkpt>
      <trkpt lat="45.13615" lon="2.7352">
        <ele>1172.2</ele>
        <time>2021-08-23T13:30:17Z</time>
      </trkpt>
      <trkpt lat="45.13618" lon="2.73546">
        <ele>1171.1</ele>
        <time>2021-08-23T13:30:19Z</time>
      </trkpt>
      <trkpt lat="45.13619" lon="2.73569">
        <ele>1169.8</ele>
        <time>2021-08-23T13:30:21Z</time>
      </trkpt>
      <trkpt lat="45.13618" lon="2.73591">
        <ele>1167.7</ele>
        <time>2021-08-23T13:30:23Z</time>
      </trkpt>
      <trkpt lat="45.13616" lon="2.73613">
        <ele>1165.7</ele>
        <time>2021-08-23T13:30:25Z</time>
      </trkpt>
      <trkpt lat="45.13616" lon="2.73636">
        <ele>1164.1</ele>
        <time>2021-08-23T13:30:27Z</time>
      </trkpt>
      <trkpt lat="45.1362" lon="2.7366">
        <ele>1163.3</ele>
        <time>2021-08-23T13:30:29Z</time>
      </trkpt>
      <trkpt lat="45.13622" lon="2.73681">
        <ele>1161.7</ele>
        <time>2021-08-23T13:30:31Z</time>
      </trkpt>
      <trkpt lat="45.13623" lon="2.73703">
        <ele>1159.6</ele>
        <time>2021-08-23T13:30:33Z</time>
      </trkpt>
      <trkpt lat="45.13632" lon="2.73723">
        <ele>1159.7</ele>
        <time>2021-08-23T13:30:35Z</time>
      </trkpt>
      <trkpt lat="45.13642" lon="2.73743">
        <ele>1160.2</ele>
        <time>2021-08-23T13:30:37Z</time>
      </trkpt>
      <trkpt lat="45.13651" lon="2.73766">
        <ele>1160.2</ele>
        <time>2021-08-23T13:30:39Z</time>
      </trkpt>
      <trkpt lat="45.1366" lon="2.73788">
        <ele>1160.2</ele>
        <time>2021-08-23T13:30:41Z</time>
      </trkpt>
      <trkpt lat="45.13668" lon="2.73811">
        <ele>1159.8</ele>
        <time>2021-08-23T13:30:43Z</time>
      </trkpt>
      <trkpt lat="45.13678" lon="2.73835">
        <ele>1159.5</ele>
        <time>2021-08-23T13:30:45Z</time>
      </trkpt>
      <trkpt lat="45.13685" lon="2.7386">
        <ele>1157.9</ele>
        <time>2021-08-23T13:30:47Z</time>
      </trkpt>
      <trkpt lat="45.1369" lon="2.73883">
        <ele>1156.3</ele>
        <time>2021-08-23T13:30:49Z</time>
      </trkpt>
      <trkpt lat="45.13693" lon="2.73903">
        <ele>1154.3</ele>
        <time>2021-08-23T13:30:51Z</time>
      </trkpt>
      <trkpt lat="45.13696" lon="2.73922">
        <ele>1152.7</ele>
        <time>2021-08-23T13:30:53Z</time>
      </trkpt>
      <trkpt lat="45.13704" lon="2.7394">
        <ele>1152.3</ele>
        <time>2021-08-23T13:30:55Z</time>
      </trkpt>
      <trkpt lat="45.13715" lon="2.73957">
        <ele>1152.4</ele>
        <time>2021-08-23T13:30:57Z</time>
      </trkpt>
      <trkpt lat="45.13725" lon="2.73975">
        <ele>1152</ele>
        <time>2021-08-23T13:30:59Z</time>
      </trkpt>
      <trkpt lat="45.13732" lon="2.73994">
        <ele>1150.5</ele>
        <time>2021-08-23T13:31:01Z</time>
      </trkpt>
      <trkpt lat="45.13732" lon="2.74013">
        <ele>1148.3</ele>
        <time>2021-08-23T13:31:03Z</time>
      </trkpt>
      <trkpt lat="45.13727" lon="2.7403">
        <ele>1145.6</ele>
        <time>2021-08-23T13:31:05Z</time>
      </trkpt>
      <trkpt lat="45.13724" lon="2.74046">
        <ele>1143.6</ele>
        <time>2021-08-23T13:31:07Z</time>
      </trkpt>
      <trkpt lat="45.13727" lon="2.74061">
        <ele>1142.7</ele>
        <time>2021-08-23T13:31:09Z</time>
      </trkpt>
      <trkpt lat="45.13734" lon="2.74073">
        <ele>1142.9</ele>
        <time>2021-08-23T13:31:11Z</time>
      </trkpt>
      <trkpt lat="45.13739" lon="2.74087">
        <ele>1142.5</ele>
        <time>2021-08-23T13:31:13Z</time>
      </trkpt>
      <trkpt lat="45.13744" lon="2.74103">
        <ele>1142.2</ele>
        <time>2021-08-23T13:31:15Z</time>
      </trkpt>
      <trkpt lat="45.13746" lon="2.74117">
        <ele>1141.4</ele>
        <time>2021-08-23T13:31:17Z</time>
      </trkpt>
      <trkpt lat="45.13746" lon="2.74125">
        <ele>1140.9</ele>
        <time>2021-08-23T13:31:19Z</time>
      </trkpt>
      <trkpt lat="45.13745" lon="2.7413">
        <ele>1140.2</ele>
        <time>2021-08-23T13:31:21Z</time>
      </trkpt>
      <trkpt lat="45.13745" lon="2.74129">
        <ele>1140.3</ele>
        <time>2021-08-23T13:31:23Z</time>
      </trkpt>
      <trkpt lat="45.13745" lon="2.74129">
        <ele>1140.3</ele>
        <time>2021-08-23T13:31:25Z</time>
      </trkpt>
      <trkpt lat="45.13746" lon="2.7413">
        <ele>1140.3</ele>
        <time>2021-08-23T13:31:27Z</time>
      </trkpt>
      <trkpt lat="45.13745" lon="2.74131">
        <ele>1140.1</ele>
        <time>2021-08-23T13:31:29Z</time>
      </trkpt>
      <trkpt lat="45.13744" lon="2.74134">
        <ele>1139.8</ele>
        <time>2021-08-23T13:31:31Z</time>
      </trkpt>
      <trkpt lat="45.13745" lon="2.74135">
        <ele>1139.8</ele>
        <time>2021-08-23T13:31:33Z</time>
      </trkpt>
      <trkpt lat="45.13745" lon="2.74135">
        <ele>1139.8</ele>
        <time>2021-08-23T13:31:35Z</time>
      </trkpt>
      <trkpt lat="45.13745" lon="2.74135">
        <ele>1139.8</ele>
        <time>2021-08-23T13:31:37Z</time>
      </trkpt>
      <trkpt lat="45.13745" lon="2.74136">
        <ele>1139.8</ele>
        <time>2021-08-23T13:31:39Z</time>
      </trkpt>
      <trkpt lat="45.13753" lon="2.74158">
        <ele>1139.6</ele>
        <time>2021-08-23T13:33:09Z</time>
      </trkpt>
      <trkpt lat="45.13754" lon="2.74171">
        <ele>1138.4</ele>
        <time>2021-08-23T13:33:11Z</time>
      </trkpt>
      <trkpt lat="45.13755" lon="2.74186">
        <ele>1136.9</ele>
        <time>2021-08-23T13:33:13Z</time>
      </trkpt>
      <trkpt lat="45.13756" lon="2.74204">
        <ele>1135.1</ele>
        <time>2021-08-23T13:33:15Z</time>
      </trkpt>
      <trkpt lat="45.13759" lon="2.74223">
        <ele>1133.4</ele>
        <time>2021-08-23T13:33:17Z</time>
      </trkpt>
      <trkpt lat="45.13761" lon="2.74244">
        <ele>1131.5</ele>
        <time>2021-08-23T13:33:19Z</time>
      </trkpt>
      <trkpt lat="45.13765" lon="2.74266">
        <ele>1130</ele>
        <time>2021-08-23T13:33:21Z</time>
      </trkpt>
      <trkpt lat="45.13767" lon="2.74289">
        <ele>1128.4</ele>
        <time>2021-08-23T13:33:23Z</time>
      </trkpt>
      <trkpt lat="45.13769" lon="2.74312">
        <ele>1126.7</ele>
        <time>2021-08-23T13:33:25Z</time>
      </trkpt>
      <trkpt lat="45.13773" lon="2.74333">
        <ele>1125.4</ele>
        <time>2021-08-23T13:33:27Z</time>
      </trkpt>
      <trkpt lat="45.13777" lon="2.74352">
        <ele>1124.9</ele>
        <time>2021-08-23T13:33:29Z</time>
      </trkpt>
      <trkpt lat="45.13783" lon="2.7437">
        <ele>1124.7</ele>
        <time>2021-08-23T13:33:31Z</time>
      </trkpt>
      <trkpt lat="45.13792" lon="2.74387">
        <ele>1124.9</ele>
        <time>2021-08-23T13:33:33Z</time>
      </trkpt>
      <trkpt lat="45.13803" lon="2.74404">
        <ele>1125.3</ele>
        <time>2021-08-23T13:33:35Z</time>
      </trkpt>
      <trkpt lat="45.13812" lon="2.74425">
        <ele>1124.9</ele>
        <time>2021-08-23T13:33:37Z</time>
      </trkpt>
      <trkpt lat="45.13817" lon="2.74449">
        <ele>1123.5</ele>
        <time>2021-08-23T13:33:39Z</time>
      </trkpt>
      <trkpt lat="45.13818" lon="2.74473">
        <ele>1121.6</ele>
        <time>2021-08-23T13:33:41Z</time>
      </trkpt>
      <trkpt lat="45.1382" lon="2.74495">
        <ele>1120.1</ele>
        <time>2021-08-23T13:33:43Z</time>
      </trkpt>
      <trkpt lat="45.13824" lon="2.74516">
        <ele>1119</ele>
        <time>2021-08-23T13:33:45Z</time>
      </trkpt>
      <trkpt lat="45.13827" lon="2.74535">
        <ele>1118</ele>
        <time>2021-08-23T13:33:47Z</time>
      </trkpt>
      <trkpt lat="45.13833" lon="2.74553">
        <ele>1117.5</ele>
        <time>2021-08-23T13:33:49Z</time>
      </trkpt>
      <trkpt lat="45.13841" lon="2.74568">
        <ele>1117.9</ele>
        <time>2021-08-23T13:33:51Z</time>
      </trkpt>
      <trkpt lat="45.13851" lon="2.74583">
        <ele>1118.5</ele>
        <time>2021-08-23T13:33:53Z</time>
      </trkpt>
      <trkpt lat="45.13859" lon="2.74599">
        <ele>1118.6</ele>
        <time>2021-08-23T13:33:55Z</time>
      </trkpt>
      <trkpt lat="45.13864" lon="2.74617">
        <ele>1117.9</ele>
        <time>2021-08-23T13:33:57Z</time>
      </trkpt>
      <trkpt lat="45.13868" lon="2.74634">
        <ele>1117.1</ele>
        <time>2021-08-23T13:33:59Z</time>
      </trkpt>
      <trkpt lat="45.13875" lon="2.7465">
        <ele>1117</ele>
        <time>2021-08-23T13:34:01Z</time>
      </trkpt>
      <trkpt lat="45.13883" lon="2.74663">
        <ele>1117.4</ele>
        <time>2021-08-23T13:34:03Z</time>
      </trkpt>
      <trkpt lat="45.13892" lon="2.74674">
        <ele>1118.2</ele>
        <time>2021-08-23T13:34:05Z</time>
      </trkpt>
      <trkpt lat="45.13901" lon="2.74684">
        <ele>1118.9</ele>
        <time>2021-08-23T13:34:07Z</time>
      </trkpt>
      <trkpt lat="45.1391" lon="2.74694">
        <ele>1119.4</ele>
        <time>2021-08-23T13:34:09Z</time>
      </trkpt>
      <trkpt lat="45.13917" lon="2.74705">
        <ele>1119.4</ele>
        <time>2021-08-23T13:34:11Z</time>
      </trkpt>
      <trkpt lat="45.13923" lon="2.74718">
        <ele>1119.3</ele>
        <time>2021-08-23T13:34:13Z</time>
      </trkpt>
      <trkpt lat="45.13928" lon="2.74731">
        <ele>1118.8</ele>
        <time>2021-08-23T13:34:15Z</time>
      </trkpt>
      <trkpt lat="45.13931" lon="2.74747">
        <ele>1117.6</ele>
        <time>2021-08-23T13:34:17Z</time>
      </trkpt>
      <trkpt lat="45.13936" lon="2.7476">
        <ele>1117.2</ele>
        <time>2021-08-23T13:34:19Z</time>
      </trkpt>
      <trkpt lat="45.13941" lon="2.74773">
        <ele>1117</ele>
        <time>2021-08-23T13:34:21Z</time>
      </trkpt>
      <trkpt lat="45.13949" lon="2.74785">
        <ele>1117.3</ele>
        <time>2021-08-23T13:34:23Z</time>
      </trkpt>
      <trkpt lat="45.13958" lon="2.74795">
        <ele>1118.1</ele>
        <time>2021-08-23T13:34:25Z</time>
      </trkpt>
      <trkpt lat="45.13967" lon="2.74804">
        <ele>1118.8</ele>
        <time>2021-08-23T13:34:27Z</time>
      </trkpt>
      <trkpt lat="45.13977" lon="2.74814">
        <ele>1119.4</ele>
        <time>2021-08-23T13:34:29Z</time>
      </trkpt>
      <trkpt lat="45.13985" lon="2.74825">
        <ele>1119.4</ele>
        <time>2021-08-23T13:34:31Z</time>
      </trkpt>
      <trkpt lat="45.13991" lon="2.74839">
        <ele>1118.9</ele>
        <time>2021-08-23T13:34:33Z</time>
      </trkpt>
      <trkpt lat="45.13995" lon="2.74853">
        <ele>1117.8</ele>
        <time>2021-08-23T13:34:35Z</time>
      </trkpt>
      <trkpt lat="45.14" lon="2.74867">
        <ele>1116.9</ele>
        <time>2021-08-23T13:34:37Z</time>
      </trkpt>
      <trkpt lat="45.14006" lon="2.7488">
        <ele>1116.6</ele>
        <time>2021-08-23T13:34:39Z</time>
      </trkpt>
      <trkpt lat="45.14014" lon="2.7489">
        <ele>1116.8</ele>
        <time>2021-08-23T13:34:41Z</time>
      </trkpt>
      <trkpt lat="45.14023" lon="2.749">
        <ele>1117.2</ele>
        <time>2021-08-23T13:34:43Z</time>
      </trkpt>
      <trkpt lat="45.1403" lon="2.74912">
        <ele>1116.7</ele>
        <time>2021-08-23T13:34:45Z</time>
      </trkpt>
      <trkpt lat="45.14035" lon="2.74928">
        <ele>1115.7</ele>
        <time>2021-08-23T13:34:47Z</time>
      </trkpt>
      <trkpt lat="45.14038" lon="2.74944">
        <ele>1114.5</ele>
        <time>2021-08-23T13:34:49Z</time>
      </trkpt>
      <trkpt lat="45.1404" lon="2.74961">
        <ele>1113</ele>
        <time>2021-08-23T13:34:51Z</time>
      </trkpt>
      <trkpt lat="45.14044" lon="2.74977">
        <ele>1111.8</ele>
        <time>2021-08-23T13:34:53Z</time>
      </trkpt>
      <trkpt lat="45.14048" lon="2.74992">
        <ele>1110.8</ele>
        <time>2021-08-23T13:34:55Z</time>
      </trkpt>
      <trkpt lat="45.14055" lon="2.75004">
        <ele>1110.6</ele>
        <time>2021-08-23T13:34:57Z</time>
      </trkpt>
      <trkpt lat="45.14064" lon="2.75016">
        <ele>1110.7</ele>
        <time>2021-08-23T13:34:59Z</time>
      </trkpt>
      <trkpt lat="45.14072" lon="2.75027">
        <ele>1110.8</ele>
        <time>2021-08-23T13:35:01Z</time>
      </trkpt>
      <trkpt lat="45.1408" lon="2.75039">
        <ele>1110.9</ele>
        <time>2021-08-23T13:35:03Z</time>
      </trkpt>
      <trkpt lat="45.14089" lon="2.7505">
        <ele>1111.4</ele>
        <time>2021-08-23T13:35:05Z</time>
      </trkpt>
      <trkpt lat="45.14096" lon="2.75063">
        <ele>1112</ele>
        <time>2021-08-23T13:35:07Z</time>
      </trkpt>
      <trkpt lat="45.14101" lon="2.7508">
        <ele>1111.3</ele>
        <time>2021-08-23T13:35:09Z</time>
      </trkpt>
      <trkpt lat="45.14104" lon="2.75096">
        <ele>1111.2</ele>
        <time>2021-08-23T13:35:11Z</time>
      </trkpt>
      <trkpt lat="45.14107" lon="2.75111">
        <ele>1111.3</ele>
        <time>2021-08-23T13:35:13Z</time>
      </trkpt>
      <trkpt lat="45.14109" lon="2.75127">
        <ele>1111.2</ele>
        <time>2021-08-23T13:35:15Z</time>
      </trkpt>
      <trkpt lat="45.14112" lon="2.75143">
        <ele>1111.1</ele>
        <time>2021-08-23T13:35:17Z</time>
      </trkpt>
      <trkpt lat="45.14115" lon="2.7516">
        <ele>1111</ele>
        <time>2021-08-23T13:35:19Z</time>
      </trkpt>
      <trkpt lat="45.14118" lon="2.75177">
        <ele>1110.5</ele>
        <time>2021-08-23T13:35:21Z</time>
      </trkpt>
      <trkpt lat="45.14121" lon="2.75194">
        <ele>1109.7</ele>
        <time>2021-08-23T13:35:23Z</time>
      </trkpt>
      <trkpt lat="45.14125" lon="2.75212">
        <ele>1109.2</ele>
        <time>2021-08-23T13:35:25Z</time>
      </trkpt>
      <trkpt lat="45.14129" lon="2.75229">
        <ele>1108.8</ele>
        <time>2021-08-23T13:35:27Z</time>
      </trkpt>
      <trkpt lat="45.14134" lon="2.75248">
        <ele>1108.2</ele>
        <time>2021-08-23T13:35:29Z</time>
      </trkpt>
      <trkpt lat="45.14139" lon="2.75265">
        <ele>1108.3</ele>
        <time>2021-08-23T13:35:31Z</time>
      </trkpt>
      <trkpt lat="45.14145" lon="2.75282">
        <ele>1108.3</ele>
        <time>2021-08-23T13:35:33Z</time>
      </trkpt>
      <trkpt lat="45.1415" lon="2.753">
        <ele>1108.3</ele>
        <time>2021-08-23T13:35:35Z</time>
      </trkpt>
      <trkpt lat="45.14157" lon="2.75317">
        <ele>1108.3</ele>
        <time>2021-08-23T13:35:37Z</time>
      </trkpt>
      <trkpt lat="45.14162" lon="2.75335">
        <ele>1108.1</ele>
        <time>2021-08-23T13:35:39Z</time>
      </trkpt>
      <trkpt lat="45.14169" lon="2.75353">
        <ele>1108.3</ele>
        <time>2021-08-23T13:35:41Z</time>
      </trkpt>
      <trkpt lat="45.14174" lon="2.7537">
        <ele>1108.5</ele>
        <time>2021-08-23T13:35:43Z</time>
      </trkpt>
      <trkpt lat="45.1418" lon="2.75386">
        <ele>1108.8</ele>
        <time>2021-08-23T13:35:45Z</time>
      </trkpt>
      <trkpt lat="45.14186" lon="2.75403">
        <ele>1108.9</ele>
        <time>2021-08-23T13:35:47Z</time>
      </trkpt>
      <trkpt lat="45.14192" lon="2.75419">
        <ele>1108.9</ele>
        <time>2021-08-23T13:35:49Z</time>
      </trkpt>
      <trkpt lat="45.14197" lon="2.75436">
        <ele>1108.8</ele>
        <time>2021-08-23T13:35:51Z</time>
      </trkpt>
      <trkpt lat="45.14201" lon="2.75453">
        <ele>1108.3</ele>
        <time>2021-08-23T13:35:53Z</time>
      </trkpt>
      <trkpt lat="45.14203" lon="2.75471">
        <ele>1107.4</ele>
        <time>2021-08-23T13:35:55Z</time>
      </trkpt>
      <trkpt lat="45.14206" lon="2.75488">
        <ele>1106.8</ele>
        <time>2021-08-23T13:35:57Z</time>
      </trkpt>
      <trkpt lat="45.14207" lon="2.75504">
        <ele>1106.1</ele>
        <time>2021-08-23T13:35:59Z</time>
      </trkpt>
      <trkpt lat="45.14208" lon="2.75519">
        <ele>1105.3</ele>
        <time>2021-08-23T13:36:01Z</time>
      </trkpt>
      <trkpt lat="45.1421" lon="2.75535">
        <ele>1104.8</ele>
        <time>2021-08-23T13:36:03Z</time>
      </trkpt>
      <trkpt lat="45.14213" lon="2.75551">
        <ele>1104.4</ele>
        <time>2021-08-23T13:36:05Z</time>
      </trkpt>
      <trkpt lat="45.14215" lon="2.75566">
        <ele>1104</ele>
        <time>2021-08-23T13:36:07Z</time>
      </trkpt>
      <trkpt lat="45.14219" lon="2.75579">
        <ele>1104</ele>
        <time>2021-08-23T13:36:09Z</time>
      </trkpt>
      <trkpt lat="45.14223" lon="2.75591">
        <ele>1104.2</ele>
        <time>2021-08-23T13:36:11Z</time>
      </trkpt>
      <trkpt lat="45.14226" lon="2.75603">
        <ele>1104.3</ele>
        <time>2021-08-23T13:36:13Z</time>
      </trkpt>
      <trkpt lat="45.1423" lon="2.75616">
        <ele>1104.7</ele>
        <time>2021-08-23T13:36:15Z</time>
      </trkpt>
      <trkpt lat="45.14235" lon="2.75629">
        <ele>1105.1</ele>
        <time>2021-08-23T13:36:17Z</time>
      </trkpt>
      <trkpt lat="45.14239" lon="2.75642">
        <ele>1105.5</ele>
        <time>2021-08-23T13:36:19Z</time>
      </trkpt>
      <trkpt lat="45.14243" lon="2.75654">
        <ele>1105.9</ele>
        <time>2021-08-23T13:36:21Z</time>
      </trkpt>
      <trkpt lat="45.14246" lon="2.75666">
        <ele>1106.1</ele>
        <time>2021-08-23T13:36:23Z</time>
      </trkpt>
      <trkpt lat="45.14249" lon="2.75677">
        <ele>1106.6</ele>
        <time>2021-08-23T13:36:25Z</time>
      </trkpt>
      <trkpt lat="45.14253" lon="2.75688">
        <ele>1107.2</ele>
        <time>2021-08-23T13:36:27Z</time>
      </trkpt>
      <trkpt lat="45.14255" lon="2.75701">
        <ele>1107.5</ele>
        <time>2021-08-23T13:36:29Z</time>
      </trkpt>
      <trkpt lat="45.14258" lon="2.75712">
        <ele>1107.8</ele>
        <time>2021-08-23T13:36:31Z</time>
      </trkpt>
      <trkpt lat="45.1426" lon="2.75724">
        <ele>1107.9</ele>
        <time>2021-08-23T13:36:33Z</time>
      </trkpt>
      <trkpt lat="45.1426" lon="2.75736">
        <ele>1107.6</ele>
        <time>2021-08-23T13:36:35Z</time>
      </trkpt>
      <trkpt lat="45.14262" lon="2.75749">
        <ele>1107.6</ele>
        <time>2021-08-23T13:36:37Z</time>
      </trkpt>
      <trkpt lat="45.14262" lon="2.75763">
        <ele>1107.2</ele>
        <time>2021-08-23T13:36:39Z</time>
      </trkpt>
      <trkpt lat="45.14263" lon="2.75777">
        <ele>1106.8</ele>
        <time>2021-08-23T13:36:41Z</time>
      </trkpt>
      <trkpt lat="45.14264" lon="2.75791">
        <ele>1106.5</ele>
        <time>2021-08-23T13:36:43Z</time>
      </trkpt>
      <trkpt lat="45.14265" lon="2.75804">
        <ele>1106.2</ele>
        <time>2021-08-23T13:36:45Z</time>
      </trkpt>
      <trkpt lat="45.14266" lon="2.75817">
        <ele>1105.9</ele>
        <time>2021-08-23T13:36:47Z</time>
      </trkpt>
      <trkpt lat="45.14268" lon="2.75831">
        <ele>1105.7</ele>
        <time>2021-08-23T13:36:49Z</time>
      </trkpt>
      <trkpt lat="45.1427" lon="2.75844">
        <ele>1105.9</ele>
        <time>2021-08-23T13:36:51Z</time>
      </trkpt>
      <trkpt lat="45.14273" lon="2.75857">
        <ele>1106.1</ele>
        <time>2021-08-23T13:36:53Z</time>
      </trkpt>
      <trkpt lat="45.14276" lon="2.75871">
        <ele>1106.5</ele>
        <time>2021-08-23T13:36:55Z</time>
      </trkpt>
      <trkpt lat="45.14279" lon="2.75886">
        <ele>1106.7</ele>
        <time>2021-08-23T13:36:57Z</time>
      </trkpt>
      <trkpt lat="45.14281" lon="2.75901">
        <ele>1106.8</ele>
        <time>2021-08-23T13:36:59Z</time>
      </trkpt>
      <trkpt lat="45.14283" lon="2.75917">
        <ele>1106.8</ele>
        <time>2021-08-23T13:37:01Z</time>
      </trkpt>
      <trkpt lat="45.14283" lon="2.75933">
        <ele>1106.4</ele>
        <time>2021-08-23T13:37:03Z</time>
      </trkpt>
      <trkpt lat="45.14283" lon="2.75951">
        <ele>1105.9</ele>
        <time>2021-08-23T13:37:05Z</time>
      </trkpt>
      <trkpt lat="45.14283" lon="2.75969">
        <ele>1105.3</ele>
        <time>2021-08-23T13:37:07Z</time>
      </trkpt>
      <trkpt lat="45.14283" lon="2.75986">
        <ele>1104.6</ele>
        <time>2021-08-23T13:37:09Z</time>
      </trkpt>
      <trkpt lat="45.14283" lon="2.76005">
        <ele>1104.1</ele>
        <time>2021-08-23T13:37:11Z</time>
      </trkpt>
      <trkpt lat="45.14283" lon="2.76024">
        <ele>1103.9</ele>
        <time>2021-08-23T13:37:13Z</time>
      </trkpt>
      <trkpt lat="45.14284" lon="2.76042">
        <ele>1103.8</ele>
        <time>2021-08-23T13:37:15Z</time>
      </trkpt>
      <trkpt lat="45.14283" lon="2.76062">
        <ele>1103.4</ele>
        <time>2021-08-23T13:37:17Z</time>
      </trkpt>
      <trkpt lat="45.14284" lon="2.76082">
        <ele>1103.4</ele>
        <time>2021-08-23T13:37:19Z</time>
      </trkpt>
      <trkpt lat="45.14283" lon="2.76101">
        <ele>1103.4</ele>
        <time>2021-08-23T13:37:21Z</time>
      </trkpt>
      <trkpt lat="45.14283" lon="2.76123">
        <ele>1103.5</ele>
        <time>2021-08-23T13:37:23Z</time>
      </trkpt>
      <trkpt lat="45.1428" lon="2.76144">
        <ele>1103</ele>
        <time>2021-08-23T13:37:25Z</time>
      </trkpt>
      <trkpt lat="45.14278" lon="2.76164">
        <ele>1102.7</ele>
        <time>2021-08-23T13:37:27Z</time>
      </trkpt>
      <trkpt lat="45.14275" lon="2.76184">
        <ele>1101.7</ele>
        <time>2021-08-23T13:37:29Z</time>
      </trkpt>
      <trkpt lat="45.14271" lon="2.76204">
        <ele>1100.7</ele>
        <time>2021-08-23T13:37:31Z</time>
      </trkpt>
      <trkpt lat="45.14267" lon="2.76223">
        <ele>1099.6</ele>
        <time>2021-08-23T13:37:33Z</time>
      </trkpt>
      <trkpt lat="45.14264" lon="2.76242">
        <ele>1098.7</ele>
        <time>2021-08-23T13:37:35Z</time>
      </trkpt>
      <trkpt lat="45.1426" lon="2.76262">
        <ele>1098</ele>
        <time>2021-08-23T13:37:37Z</time>
      </trkpt>
      <trkpt lat="45.14257" lon="2.76281">
        <ele>1097.4</ele>
        <time>2021-08-23T13:37:39Z</time>
      </trkpt>
      <trkpt lat="45.14252" lon="2.76301">
        <ele>1096.7</ele>
        <time>2021-08-23T13:37:41Z</time>
      </trkpt>
      <trkpt lat="45.14249" lon="2.76321">
        <ele>1096.4</ele>
        <time>2021-08-23T13:37:43Z</time>
      </trkpt>
      <trkpt lat="45.14244" lon="2.76341">
        <ele>1095.8</ele>
        <time>2021-08-23T13:37:45Z</time>
      </trkpt>
      <trkpt lat="45.14241" lon="2.76361">
        <ele>1095.3</ele>
        <time>2021-08-23T13:37:47Z</time>
      </trkpt>
      <trkpt lat="45.14238" lon="2.76382">
        <ele>1094.9</ele>
        <time>2021-08-23T13:37:49Z</time>
      </trkpt>
      <trkpt lat="45.14236" lon="2.76403">
        <ele>1094.7</ele>
        <time>2021-08-23T13:37:51Z</time>
      </trkpt>
      <trkpt lat="45.14235" lon="2.76424">
        <ele>1094.5</ele>
        <time>2021-08-23T13:37:53Z</time>
      </trkpt>
      <trkpt lat="45.14234" lon="2.76444">
        <ele>1094.2</ele>
        <time>2021-08-23T13:37:55Z</time>
      </trkpt>
      <trkpt lat="45.14234" lon="2.76466">
        <ele>1094.1</ele>
        <time>2021-08-23T13:37:57Z</time>
      </trkpt>
      <trkpt lat="45.14234" lon="2.76487">
        <ele>1093.9</ele>
        <time>2021-08-23T13:37:59Z</time>
      </trkpt>
      <trkpt lat="45.14234" lon="2.76509">
        <ele>1093</ele>
        <time>2021-08-23T13:38:01Z</time>
      </trkpt>
      <trkpt lat="45.14235" lon="2.76531">
        <ele>1091.4</ele>
        <time>2021-08-23T13:38:03Z</time>
      </trkpt>
      <trkpt lat="45.14238" lon="2.76552">
        <ele>1090.4</ele>
        <time>2021-08-23T13:38:05Z</time>
      </trkpt>
      <trkpt lat="45.14243" lon="2.76572">
        <ele>1090</ele>
        <time>2021-08-23T13:38:07Z</time>
      </trkpt>
      <trkpt lat="45.1425" lon="2.76591">
        <ele>1090.1</ele>
        <time>2021-08-23T13:38:09Z</time>
      </trkpt>
      <trkpt lat="45.14256" lon="2.7661">
        <ele>1089.3</ele>
        <time>2021-08-23T13:38:11Z</time>
      </trkpt>
      <trkpt lat="45.14261" lon="2.76629">
        <ele>1088.7</ele>
        <time>2021-08-23T13:38:13Z</time>
      </trkpt>
      <trkpt lat="45.14268" lon="2.76648">
        <ele>1088.5</ele>
        <time>2021-08-23T13:38:15Z</time>
      </trkpt>
      <trkpt lat="45.14273" lon="2.76668">
        <ele>1088.2</ele>
        <time>2021-08-23T13:38:17Z</time>
      </trkpt>
      <trkpt lat="45.14279" lon="2.76687">
        <ele>1088.1</ele>
        <time>2021-08-23T13:38:19Z</time>
      </trkpt>
      <trkpt lat="45.14286" lon="2.76705">
        <ele>1088.1</ele>
        <time>2021-08-23T13:38:21Z</time>
      </trkpt>
      <trkpt lat="45.14292" lon="2.76724">
        <ele>1088.1</ele>
        <time>2021-08-23T13:38:23Z</time>
      </trkpt>
      <trkpt lat="45.14299" lon="2.76742">
        <ele>1088.6</ele>
        <time>2021-08-23T13:38:25Z</time>
      </trkpt>
      <trkpt lat="45.14307" lon="2.7676">
        <ele>1088.7</ele>
        <time>2021-08-23T13:38:27Z</time>
      </trkpt>
      <trkpt lat="45.14315" lon="2.76778">
        <ele>1088</ele>
        <time>2021-08-23T13:38:29Z</time>
      </trkpt>
      <trkpt lat="45.14323" lon="2.76795">
        <ele>1087</ele>
        <time>2021-08-23T13:38:31Z</time>
      </trkpt>
      <trkpt lat="45.14331" lon="2.76814">
        <ele>1085.6</ele>
        <time>2021-08-23T13:38:33Z</time>
      </trkpt>
      <trkpt lat="45.1434" lon="2.76832">
        <ele>1084.2</ele>
        <time>2021-08-23T13:38:35Z</time>
      </trkpt>
      <trkpt lat="45.14348" lon="2.7685">
        <ele>1083.5</ele>
        <time>2021-08-23T13:38:37Z</time>
      </trkpt>
      <trkpt lat="45.14355" lon="2.76869">
        <ele>1082.6</ele>
        <time>2021-08-23T13:38:39Z</time>
      </trkpt>
      <trkpt lat="45.14363" lon="2.76888">
        <ele>1081.6</ele>
        <time>2021-08-23T13:38:41Z</time>
      </trkpt>
      <trkpt lat="45.1437" lon="2.76906">
        <ele>1080.6</ele>
        <time>2021-08-23T13:38:43Z</time>
      </trkpt>
      <trkpt lat="45.1438" lon="2.76923">
        <ele>1080.2</ele>
        <time>2021-08-23T13:38:45Z</time>
      </trkpt>
      <trkpt lat="45.1439" lon="2.76939">
        <ele>1080</ele>
        <time>2021-08-23T13:38:47Z</time>
      </trkpt>
      <trkpt lat="45.144" lon="2.76955">
        <ele>1079.9</ele>
        <time>2021-08-23T13:38:49Z</time>
      </trkpt>
      <trkpt lat="45.14412" lon="2.7697">
        <ele>1079.7</ele>
        <time>2021-08-23T13:38:51Z</time>
      </trkpt>
      <trkpt lat="45.14423" lon="2.76984">
        <ele>1079.3</ele>
        <time>2021-08-23T13:38:53Z</time>
      </trkpt>
      <trkpt lat="45.14434" lon="2.76998">
        <ele>1079</ele>
        <time>2021-08-23T13:38:55Z</time>
      </trkpt>
      <trkpt lat="45.14445" lon="2.77011">
        <ele>1079.1</ele>
        <time>2021-08-23T13:38:57Z</time>
      </trkpt>
      <trkpt lat="45.14456" lon="2.77024">
        <ele>1078.8</ele>
        <time>2021-08-23T13:38:59Z</time>
      </trkpt>
      <trkpt lat="45.14466" lon="2.77037">
        <ele>1078.4</ele>
        <time>2021-08-23T13:39:01Z</time>
      </trkpt>
      <trkpt lat="45.14478" lon="2.7705">
        <ele>1078.2</ele>
        <time>2021-08-23T13:39:03Z</time>
      </trkpt>
      <trkpt lat="45.14488" lon="2.77064">
        <ele>1077.5</ele>
        <time>2021-08-23T13:39:05Z</time>
      </trkpt>
      <trkpt lat="45.14498" lon="2.77081">
        <ele>1076.2</ele>
        <time>2021-08-23T13:39:07Z</time>
      </trkpt>
      <trkpt lat="45.14506" lon="2.77098">
        <ele>1074.7</ele>
        <time>2021-08-23T13:39:09Z</time>
      </trkpt>
      <trkpt lat="45.14513" lon="2.77116">
        <ele>1073.2</ele>
        <time>2021-08-23T13:39:11Z</time>
      </trkpt>
      <trkpt lat="45.1452" lon="2.77134">
        <ele>1071.8</ele>
        <time>2021-08-23T13:39:13Z</time>
      </trkpt>
      <trkpt lat="45.14527" lon="2.77152">
        <ele>1070.6</ele>
        <time>2021-08-23T13:39:15Z</time>
      </trkpt>
      <trkpt lat="45.14535" lon="2.7717">
        <ele>1069.9</ele>
        <time>2021-08-23T13:39:17Z</time>
      </trkpt>
      <trkpt lat="45.14545" lon="2.77184">
        <ele>1069.9</ele>
        <time>2021-08-23T13:39:19Z</time>
      </trkpt>
      <trkpt lat="45.14556" lon="2.77196">
        <ele>1070.2</ele>
        <time>2021-08-23T13:39:21Z</time>
      </trkpt>
      <trkpt lat="45.14567" lon="2.77207">
        <ele>1070.5</ele>
        <time>2021-08-23T13:39:23Z</time>
      </trkpt>
      <trkpt lat="45.14578" lon="2.77217">
        <ele>1070.7</ele>
        <time>2021-08-23T13:39:25Z</time>
      </trkpt>
      <trkpt lat="45.14591" lon="2.77226">
        <ele>1070.9</ele>
        <time>2021-08-23T13:39:27Z</time>
      </trkpt>
      <trkpt lat="45.14604" lon="2.77234">
        <ele>1070.9</ele>
        <time>2021-08-23T13:39:29Z</time>
      </trkpt>
      <trkpt lat="45.14617" lon="2.77242">
        <ele>1071.3</ele>
        <time>2021-08-23T13:39:31Z</time>
      </trkpt>
      <trkpt lat="45.14631" lon="2.77249">
        <ele>1071.9</ele>
        <time>2021-08-23T13:39:33Z</time>
      </trkpt>
      <trkpt lat="45.14644" lon="2.77257">
        <ele>1072.2</ele>
        <time>2021-08-23T13:39:35Z</time>
      </trkpt>
      <trkpt lat="45.14657" lon="2.77266">
        <ele>1072</ele>
        <time>2021-08-23T13:39:37Z</time>
      </trkpt>
      <trkpt lat="45.14669" lon="2.77275">
        <ele>1071.7</ele>
        <time>2021-08-23T13:39:39Z</time>
      </trkpt>
      <trkpt lat="45.14682" lon="2.77281">
        <ele>1071</ele>
        <time>2021-08-23T13:39:41Z</time>
      </trkpt>
      <trkpt lat="45.14696" lon="2.7729">
        <ele>1070.2</ele>
        <time>2021-08-23T13:39:43Z</time>
      </trkpt>
      <trkpt lat="45.1471" lon="2.77298">
        <ele>1069.5</ele>
        <time>2021-08-23T13:39:45Z</time>
      </trkpt>
      <trkpt lat="45.14724" lon="2.77307">
        <ele>1069</ele>
        <time>2021-08-23T13:39:47Z</time>
      </trkpt>
      <trkpt lat="45.14738" lon="2.77316">
        <ele>1068.5</ele>
        <time>2021-08-23T13:39:49Z</time>
      </trkpt>
      <trkpt lat="45.14751" lon="2.77327">
        <ele>1068</ele>
        <time>2021-08-23T13:39:51Z</time>
      </trkpt>
      <trkpt lat="45.14765" lon="2.77338">
        <ele>1067.6</ele>
        <time>2021-08-23T13:39:53Z</time>
      </trkpt>
      <trkpt lat="45.14779" lon="2.7735">
        <ele>1067.6</ele>
        <time>2021-08-23T13:39:55Z</time>
      </trkpt>
      <trkpt lat="45.14792" lon="2.77362">
        <ele>1067.4</ele>
        <time>2021-08-23T13:39:57Z</time>
      </trkpt>
      <trkpt lat="45.14805" lon="2.77374">
        <ele>1067.4</ele>
        <time>2021-08-23T13:39:59Z</time>
      </trkpt>
      <trkpt lat="45.14818" lon="2.77386">
        <ele>1067.4</ele>
        <time>2021-08-23T13:40:01Z</time>
      </trkpt>
      <trkpt lat="45.14832" lon="2.77397">
        <ele>1067.5</ele>
        <time>2021-08-23T13:40:03Z</time>
      </trkpt>
      <trkpt lat="45.14845" lon="2.77408">
        <ele>1067.2</ele>
        <time>2021-08-23T13:40:05Z</time>
      </trkpt>
      <trkpt lat="45.14857" lon="2.77419">
        <ele>1066.7</ele>
        <time>2021-08-23T13:40:07Z</time>
      </trkpt>
      <trkpt lat="45.14869" lon="2.77431">
        <ele>1066.2</ele>
        <time>2021-08-23T13:40:09Z</time>
      </trkpt>
      <trkpt lat="45.14882" lon="2.77443">
        <ele>1065.7</ele>
        <time>2021-08-23T13:40:11Z</time>
      </trkpt>
      <trkpt lat="45.14895" lon="2.77454">
        <ele>1065.2</ele>
        <time>2021-08-23T13:40:13Z</time>
      </trkpt>
      <trkpt lat="45.14908" lon="2.77464">
        <ele>1064.8</ele>
        <time>2021-08-23T13:40:15Z</time>
      </trkpt>
      <trkpt lat="45.14923" lon="2.77471">
        <ele>1064.6</ele>
        <time>2021-08-23T13:40:17Z</time>
      </trkpt>
      <trkpt lat="45.14938" lon="2.77476">
        <ele>1064.5</ele>
        <time>2021-08-23T13:40:19Z</time>
      </trkpt>
      <trkpt lat="45.14953" lon="2.77482">
        <ele>1064.1</ele>
        <time>2021-08-23T13:40:21Z</time>
      </trkpt>
      <trkpt lat="45.14968" lon="2.7749">
        <ele>1063.4</ele>
        <time>2021-08-23T13:40:23Z</time>
      </trkpt>
      <trkpt lat="45.14984" lon="2.77499">
        <ele>1062.1</ele>
        <time>2021-08-23T13:40:25Z</time>
      </trkpt>
      <trkpt lat="45.14997" lon="2.77509">
        <ele>1061.4</ele>
        <time>2021-08-23T13:40:27Z</time>
      </trkpt>
      <trkpt lat="45.15011" lon="2.7752">
        <ele>1061.7</ele>
        <time>2021-08-23T13:40:29Z</time>
      </trkpt>
      <trkpt lat="45.15024" lon="2.77532">
        <ele>1061.8</ele>
        <time>2021-08-23T13:40:31Z</time>
      </trkpt>
      <trkpt lat="45.15038" lon="2.77543">
        <ele>1061.8</ele>
        <time>2021-08-23T13:40:33Z</time>
      </trkpt>
      <trkpt lat="45.15051" lon="2.77555">
        <ele>1061.4</ele>
        <time>2021-08-23T13:40:35Z</time>
      </trkpt>
      <trkpt lat="45.15064" lon="2.77567">
        <ele>1060.5</ele>
        <time>2021-08-23T13:40:37Z</time>
      </trkpt>
      <trkpt lat="45.15076" lon="2.77579">
        <ele>1059.4</ele>
        <time>2021-08-23T13:40:39Z</time>
      </trkpt>
      <trkpt lat="45.15089" lon="2.7759">
        <ele>1059</ele>
        <time>2021-08-23T13:40:41Z</time>
      </trkpt>
      <trkpt lat="45.15101" lon="2.776">
        <ele>1059.1</ele>
        <time>2021-08-23T13:40:43Z</time>
      </trkpt>
      <trkpt lat="45.15113" lon="2.77611">
        <ele>1059</ele>
        <time>2021-08-23T13:40:45Z</time>
      </trkpt>
      <trkpt lat="45.15124" lon="2.77621">
        <ele>1058.8</ele>
        <time>2021-08-23T13:40:47Z</time>
      </trkpt>
      <trkpt lat="45.15135" lon="2.77634">
        <ele>1058.2</ele>
        <time>2021-08-23T13:40:49Z</time>
      </trkpt>
      <trkpt lat="45.15145" lon="2.77646">
        <ele>1057.5</ele>
        <time>2021-08-23T13:40:51Z</time>
      </trkpt>
      <trkpt lat="45.15156" lon="2.77658">
        <ele>1056.7</ele>
        <time>2021-08-23T13:40:53Z</time>
      </trkpt>
      <trkpt lat="45.15166" lon="2.77669">
        <ele>1055.9</ele>
        <time>2021-08-23T13:40:55Z</time>
      </trkpt>
      <trkpt lat="45.15174" lon="2.77682">
        <ele>1056.1</ele>
        <time>2021-08-23T13:40:57Z</time>
      </trkpt>
      <trkpt lat="45.15185" lon="2.77691">
        <ele>1056.8</ele>
        <time>2021-08-23T13:40:59Z</time>
      </trkpt>
      <trkpt lat="45.15196" lon="2.77699">
        <ele>1057.2</ele>
        <time>2021-08-23T13:41:01Z</time>
      </trkpt>
      <trkpt lat="45.15206" lon="2.77708">
        <ele>1057.4</ele>
        <time>2021-08-23T13:41:03Z</time>
      </trkpt>
      <trkpt lat="45.15216" lon="2.77717">
        <ele>1057.3</ele>
        <time>2021-08-23T13:41:05Z</time>
      </trkpt>
      <trkpt lat="45.15227" lon="2.77726">
        <ele>1057</ele>
        <time>2021-08-23T13:41:07Z</time>
      </trkpt>
      <trkpt lat="45.15237" lon="2.77733">
        <ele>1056.7</ele>
        <time>2021-08-23T13:41:09Z</time>
      </trkpt>
      <trkpt lat="45.15248" lon="2.77742">
        <ele>1056.1</ele>
        <time>2021-08-23T13:41:11Z</time>
      </trkpt>
      <trkpt lat="45.15257" lon="2.77749">
        <ele>1057.2</ele>
        <time>2021-08-23T13:41:13Z</time>
      </trkpt>
      <trkpt lat="45.15266" lon="2.77757">
        <ele>1059.2</ele>
        <time>2021-08-23T13:41:15Z</time>
      </trkpt>
      <trkpt lat="45.15275" lon="2.77764">
        <ele>1060.9</ele>
        <time>2021-08-23T13:41:17Z</time>
      </trkpt>
      <trkpt lat="45.15283" lon="2.77771">
        <ele>1062.1</ele>
        <time>2021-08-23T13:41:19Z</time>
      </trkpt>
      <trkpt lat="45.15291" lon="2.77777">
        <ele>1063.1</ele>
        <time>2021-08-23T13:41:21Z</time>
      </trkpt>
      <trkpt lat="45.15298" lon="2.77783">
        <ele>1063.8</ele>
        <time>2021-08-23T13:41:23Z</time>
      </trkpt>
      <trkpt lat="45.15305" lon="2.77789">
        <ele>1064.2</ele>
        <time>2021-08-23T13:41:25Z</time>
      </trkpt>
      <trkpt lat="45.15312" lon="2.77796">
        <ele>1064.4</ele>
        <time>2021-08-23T13:41:27Z</time>
      </trkpt>
      <trkpt lat="45.15319" lon="2.77804">
        <ele>1063.9</ele>
        <time>2021-08-23T13:41:29Z</time>
      </trkpt>
      <trkpt lat="45.15326" lon="2.77813">
        <ele>1062.9</ele>
        <time>2021-08-23T13:41:31Z</time>
      </trkpt>
      <trkpt lat="45.15332" lon="2.77824">
        <ele>1061.1</ele>
        <time>2021-08-23T13:41:33Z</time>
      </trkpt>
      <trkpt lat="45.15337" lon="2.77836">
        <ele>1060.1</ele>
        <time>2021-08-23T13:41:35Z</time>
      </trkpt>
      <trkpt lat="45.15341" lon="2.7785">
        <ele>1060.6</ele>
        <time>2021-08-23T13:41:37Z</time>
      </trkpt>
      <trkpt lat="45.15346" lon="2.77865">
        <ele>1060.8</ele>
        <time>2021-08-23T13:41:39Z</time>
      </trkpt>
      <trkpt lat="45.1535" lon="2.77879">
        <ele>1060.8</ele>
        <time>2021-08-23T13:41:41Z</time>
      </trkpt>
      <trkpt lat="45.15353" lon="2.77893">
        <ele>1059.9</ele>
        <time>2021-08-23T13:41:43Z</time>
      </trkpt>
      <trkpt lat="45.15356" lon="2.77908">
        <ele>1058.7</ele>
        <time>2021-08-23T13:41:45Z</time>
      </trkpt>
      <trkpt lat="45.15358" lon="2.77923">
        <ele>1057.6</ele>
        <time>2021-08-23T13:41:47Z</time>
      </trkpt>
      <trkpt lat="45.1536" lon="2.77938">
        <ele>1056.9</ele>
        <time>2021-08-23T13:41:49Z</time>
      </trkpt>
      <trkpt lat="45.15361" lon="2.77953">
        <ele>1056.2</ele>
        <time>2021-08-23T13:41:51Z</time>
      </trkpt>
      <trkpt lat="45.15363" lon="2.77968">
        <ele>1055.4</ele>
        <time>2021-08-23T13:41:53Z</time>
      </trkpt>
      <trkpt lat="45.15364" lon="2.77983">
        <ele>1054.6</ele>
        <time>2021-08-23T13:41:55Z</time>
      </trkpt>
      <trkpt lat="45.15366" lon="2.77997">
        <ele>1053.9</ele>
        <time>2021-08-23T13:41:57Z</time>
      </trkpt>
      <trkpt lat="45.15367" lon="2.78012">
        <ele>1053.5</ele>
        <time>2021-08-23T13:41:59Z</time>
      </trkpt>
      <trkpt lat="45.15369" lon="2.78026">
        <ele>1053.2</ele>
        <time>2021-08-23T13:42:01Z</time>
      </trkpt>
      <trkpt lat="45.15372" lon="2.78041">
        <ele>1052.9</ele>
        <time>2021-08-23T13:42:03Z</time>
      </trkpt>
      <trkpt lat="45.15374" lon="2.78054">
        <ele>1052.6</ele>
        <time>2021-08-23T13:42:05Z</time>
      </trkpt>
      <trkpt lat="45.15377" lon="2.78069">
        <ele>1052.4</ele>
        <time>2021-08-23T13:42:07Z</time>
      </trkpt>
      <trkpt lat="45.15381" lon="2.78084">
        <ele>1052.2</ele>
        <time>2021-08-23T13:42:09Z</time>
      </trkpt>
      <trkpt lat="45.15386" lon="2.78099">
        <ele>1052.9</ele>
        <time>2021-08-23T13:42:11Z</time>
      </trkpt>
      <trkpt lat="45.15391" lon="2.78113">
        <ele>1053.6</ele>
        <time>2021-08-23T13:42:13Z</time>
      </trkpt>
      <trkpt lat="45.15397" lon="2.78127">
        <ele>1054.2</ele>
        <time>2021-08-23T13:42:15Z</time>
      </trkpt>
      <trkpt lat="45.15402" lon="2.78141">
        <ele>1054.8</ele>
        <time>2021-08-23T13:42:17Z</time>
      </trkpt>
      <trkpt lat="45.15409" lon="2.78153">
        <ele>1055.4</ele>
        <time>2021-08-23T13:42:19Z</time>
      </trkpt>
      <trkpt lat="45.15415" lon="2.78165">
        <ele>1055.9</ele>
        <time>2021-08-23T13:42:21Z</time>
      </trkpt>
      <trkpt lat="45.15422" lon="2.78176">
        <ele>1055.9</ele>
        <time>2021-08-23T13:42:23Z</time>
      </trkpt>
      <trkpt lat="45.15429" lon="2.78186">
        <ele>1055.7</ele>
        <time>2021-08-23T13:42:25Z</time>
      </trkpt>
      <trkpt lat="45.15436" lon="2.78196">
        <ele>1055.4</ele>
        <time>2021-08-23T13:42:27Z</time>
      </trkpt>
      <trkpt lat="45.15442" lon="2.78205">
        <ele>1055.1</ele>
        <time>2021-08-23T13:42:29Z</time>
      </trkpt>
      <trkpt lat="45.15449" lon="2.78214">
        <ele>1054.8</ele>
        <time>2021-08-23T13:42:31Z</time>
      </trkpt>
      <trkpt lat="45.15456" lon="2.78222">
        <ele>1054.4</ele>
        <time>2021-08-23T13:42:33Z</time>
      </trkpt>
      <trkpt lat="45.15462" lon="2.78231">
        <ele>1054</ele>
        <time>2021-08-23T13:42:35Z</time>
      </trkpt>
      <trkpt lat="45.15469" lon="2.78239">
        <ele>1053.5</ele>
        <time>2021-08-23T13:42:37Z</time>
      </trkpt>
      <trkpt lat="45.15476" lon="2.78246">
        <ele>1053</ele>
        <time>2021-08-23T13:42:39Z</time>
      </trkpt>
      <trkpt lat="45.15483" lon="2.78254">
        <ele>1052.9</ele>
        <time>2021-08-23T13:42:41Z</time>
      </trkpt>
      <trkpt lat="45.1549" lon="2.78262">
        <ele>1053</ele>
        <time>2021-08-23T13:42:43Z</time>
      </trkpt>
      <trkpt lat="45.15497" lon="2.7827">
        <ele>1053.1</ele>
        <time>2021-08-23T13:42:45Z</time>
      </trkpt>
      <trkpt lat="45.15502" lon="2.78279">
        <ele>1053.2</ele>
        <time>2021-08-23T13:42:47Z</time>
      </trkpt>
      <trkpt lat="45.15509" lon="2.78288">
        <ele>1053.6</ele>
        <time>2021-08-23T13:42:49Z</time>
      </trkpt>
      <trkpt lat="45.15514" lon="2.78297">
        <ele>1053.8</ele>
        <time>2021-08-23T13:42:51Z</time>
      </trkpt>
      <trkpt lat="45.15519" lon="2.78305">
        <ele>1054</ele>
        <time>2021-08-23T13:42:53Z</time>
      </trkpt>
      <trkpt lat="45.15524" lon="2.78313">
        <ele>1054.2</ele>
        <time>2021-08-23T13:42:55Z</time>
      </trkpt>
      <trkpt lat="45.15529" lon="2.78321">
        <ele>1054.4</ele>
        <time>2021-08-23T13:42:57Z</time>
      </trkpt>
      <trkpt lat="45.15535" lon="2.78328">
        <ele>1054.6</ele>
        <time>2021-08-23T13:42:59Z</time>
      </trkpt>
      <trkpt lat="45.1554" lon="2.78335">
        <ele>1054.8</ele>
        <time>2021-08-23T13:43:01Z</time>
      </trkpt>
      <trkpt lat="45.15546" lon="2.78342">
        <ele>1055</ele>
        <time>2021-08-23T13:43:03Z</time>
      </trkpt>
      <trkpt lat="45.15551" lon="2.7835">
        <ele>1055.1</ele>
        <time>2021-08-23T13:43:05Z</time>
      </trkpt>
      <trkpt lat="45.15556" lon="2.78358">
        <ele>1055.2</ele>
        <time>2021-08-23T13:43:07Z</time>
      </trkpt>
      <trkpt lat="45.15562" lon="2.78364">
        <ele>1055.4</ele>
        <time>2021-08-23T13:43:09Z</time>
      </trkpt>
      <trkpt lat="45.15568" lon="2.78371">
        <ele>1055.5</ele>
        <time>2021-08-23T13:43:11Z</time>
      </trkpt>
      <trkpt lat="45.15573" lon="2.78378">
        <ele>1055.5</ele>
        <time>2021-08-23T13:43:13Z</time>
      </trkpt>
      <trkpt lat="45.15579" lon="2.78385">
        <ele>1055.5</ele>
        <time>2021-08-23T13:43:15Z</time>
      </trkpt>
      <trkpt lat="45.15584" lon="2.78392">
        <ele>1055.5</ele>
        <time>2021-08-23T13:43:17Z</time>
      </trkpt>
      <trkpt lat="45.1559" lon="2.78399">
        <ele>1055.7</ele>
        <time>2021-08-23T13:43:19Z</time>
      </trkpt>
      <trkpt lat="45.15596" lon="2.78407">
        <ele>1055.8</ele>
        <time>2021-08-23T13:43:21Z</time>
      </trkpt>
      <trkpt lat="45.15602" lon="2.78414">
        <ele>1056</ele>
        <time>2021-08-23T13:43:23Z</time>
      </trkpt>
      <trkpt lat="45.15608" lon="2.78422">
        <ele>1056.1</ele>
        <time>2021-08-23T13:43:25Z</time>
      </trkpt>
      <trkpt lat="45.15614" lon="2.78429">
        <ele>1056.3</ele>
        <time>2021-08-23T13:43:27Z</time>
      </trkpt>
      <trkpt lat="45.1562" lon="2.78436">
        <ele>1056.4</ele>
        <time>2021-08-23T13:43:29Z</time>
      </trkpt>
      <trkpt lat="45.15627" lon="2.78444">
        <ele>1056.5</ele>
        <time>2021-08-23T13:43:31Z</time>
      </trkpt>
      <trkpt lat="45.15632" lon="2.78451">
        <ele>1056.5</ele>
        <time>2021-08-23T13:43:33Z</time>
      </trkpt>
      <trkpt lat="45.15638" lon="2.78459">
        <ele>1056.6</ele>
        <time>2021-08-23T13:43:35Z</time>
      </trkpt>
      <trkpt lat="45.15644" lon="2.78467">
        <ele>1056.5</ele>
        <time>2021-08-23T13:43:37Z</time>
      </trkpt>
      <trkpt lat="45.1565" lon="2.78474">
        <ele>1056.5</ele>
        <time>2021-08-23T13:43:39Z</time>
      </trkpt>
      <trkpt lat="45.15655" lon="2.78482">
        <ele>1056.4</ele>
        <time>2021-08-23T13:43:41Z</time>
      </trkpt>
      <trkpt lat="45.1566" lon="2.78488">
        <ele>1056.4</ele>
        <time>2021-08-23T13:43:43Z</time>
      </trkpt>
      <trkpt lat="45.15665" lon="2.78495">
        <ele>1056.2</ele>
        <time>2021-08-23T13:43:45Z</time>
      </trkpt>
      <trkpt lat="45.15669" lon="2.78501">
        <ele>1056.5</ele>
        <time>2021-08-23T13:43:47Z</time>
      </trkpt>
      <trkpt lat="45.15674" lon="2.78507">
        <ele>1057.2</ele>
        <time>2021-08-23T13:43:49Z</time>
      </trkpt>
      <trkpt lat="45.15678" lon="2.78513">
        <ele>1057.8</ele>
        <time>2021-08-23T13:43:51Z</time>
      </trkpt>
      <trkpt lat="45.15682" lon="2.78519">
        <ele>1058.3</ele>
        <time>2021-08-23T13:43:53Z</time>
      </trkpt>
      <trkpt lat="45.15686" lon="2.78525">
        <ele>1058.9</ele>
        <time>2021-08-23T13:43:55Z</time>
      </trkpt>
      <trkpt lat="45.15689" lon="2.78531">
        <ele>1059.3</ele>
        <time>2021-08-23T13:43:57Z</time>
      </trkpt>
      <trkpt lat="45.15693" lon="2.78537">
        <ele>1059.8</ele>
        <time>2021-08-23T13:43:59Z</time>
      </trkpt>
      <trkpt lat="45.15697" lon="2.78543">
        <ele>1060.2</ele>
        <time>2021-08-23T13:44:01Z</time>
      </trkpt>
      <trkpt lat="45.15701" lon="2.78548">
        <ele>1060.6</ele>
        <time>2021-08-23T13:44:03Z</time>
      </trkpt>
      <trkpt lat="45.15705" lon="2.78554">
        <ele>1060.9</ele>
        <time>2021-08-23T13:44:05Z</time>
      </trkpt>
      <trkpt lat="45.15707" lon="2.78559">
        <ele>1061.1</ele>
        <time>2021-08-23T13:44:07Z</time>
      </trkpt>
      <trkpt lat="45.1571" lon="2.78564">
        <ele>1061.3</ele>
        <time>2021-08-23T13:44:09Z</time>
      </trkpt>
      <trkpt lat="45.15714" lon="2.78569">
        <ele>1061.6</ele>
        <time>2021-08-23T13:44:11Z</time>
      </trkpt>
      <trkpt lat="45.15717" lon="2.78573">
        <ele>1061.8</ele>
        <time>2021-08-23T13:44:13Z</time>
      </trkpt>
      <trkpt lat="45.1572" lon="2.78579">
        <ele>1061.9</ele>
        <time>2021-08-23T13:44:15Z</time>
      </trkpt>
      <trkpt lat="45.15723" lon="2.78584">
        <ele>1062.1</ele>
        <time>2021-08-23T13:44:17Z</time>
      </trkpt>
      <trkpt lat="45.15726" lon="2.78589">
        <ele>1062.3</ele>
        <time>2021-08-23T13:44:19Z</time>
      </trkpt>
      <trkpt lat="45.1573" lon="2.78595">
        <ele>1062.6</ele>
        <time>2021-08-23T13:44:21Z</time>
      </trkpt>
      <trkpt lat="45.15732" lon="2.786">
        <ele>1062.8</ele>
        <time>2021-08-23T13:44:23Z</time>
      </trkpt>
      <trkpt lat="45.15735" lon="2.78605">
        <ele>1063</ele>
        <time>2021-08-23T13:44:25Z</time>
      </trkpt>
      <trkpt lat="45.15739" lon="2.7861">
        <ele>1063.2</ele>
        <time>2021-08-23T13:44:27Z</time>
      </trkpt>
      <trkpt lat="45.15742" lon="2.78616">
        <ele>1063.4</ele>
        <time>2021-08-23T13:44:29Z</time>
      </trkpt>
      <trkpt lat="45.15745" lon="2.7862">
        <ele>1063.7</ele>
        <time>2021-08-23T13:44:31Z</time>
      </trkpt>
      <trkpt lat="45.15748" lon="2.78625">
        <ele>1063.8</ele>
        <time>2021-08-23T13:44:33Z</time>
      </trkpt>
      <trkpt lat="45.15752" lon="2.7863">
        <ele>1064</ele>
        <time>2021-08-23T13:44:35Z</time>
      </trkpt>
      <trkpt lat="45.15755" lon="2.78634">
        <ele>1064.3</ele>
        <time>2021-08-23T13:44:37Z</time>
      </trkpt>
      <trkpt lat="45.15758" lon="2.78639">
        <ele>1064.5</ele>
        <time>2021-08-23T13:44:39Z</time>
      </trkpt>
      <trkpt lat="45.15761" lon="2.78644">
        <ele>1064.6</ele>
        <time>2021-08-23T13:44:41Z</time>
      </trkpt>
      <trkpt lat="45.15765" lon="2.7865">
        <ele>1064.8</ele>
        <time>2021-08-23T13:44:43Z</time>
      </trkpt>
      <trkpt lat="45.15767" lon="2.78655">
        <ele>1064.9</ele>
        <time>2021-08-23T13:44:45Z</time>
      </trkpt>
      <trkpt lat="45.1577" lon="2.78659">
        <ele>1065</ele>
        <time>2021-08-23T13:44:47Z</time>
      </trkpt>
      <trkpt lat="45.15774" lon="2.78663">
        <ele>1065.2</ele>
        <time>2021-08-23T13:44:49Z</time>
      </trkpt>
      <trkpt lat="45.15778" lon="2.78664">
        <ele>1065.4</ele>
        <time>2021-08-23T13:44:51Z</time>
      </trkpt>
      <trkpt lat="45.15782" lon="2.78666">
        <ele>1065.7</ele>
        <time>2021-08-23T13:44:53Z</time>
      </trkpt>
      <trkpt lat="45.15786" lon="2.78669">
        <ele>1065.9</ele>
        <time>2021-08-23T13:44:55Z</time>
      </trkpt>
      <trkpt lat="45.1579" lon="2.78672">
        <ele>1066.1</ele>
        <time>2021-08-23T13:44:57Z</time>
      </trkpt>
      <trkpt lat="45.15795" lon="2.78675">
        <ele>1066.3</ele>
        <time>2021-08-23T13:44:59Z</time>
      </trkpt>
      <trkpt lat="45.158" lon="2.78678">
        <ele>1066.5</ele>
        <time>2021-08-23T13:45:01Z</time>
      </trkpt>
      <trkpt lat="45.15805" lon="2.78682">
        <ele>1066.7</ele>
        <time>2021-08-23T13:45:03Z</time>
      </trkpt>
      <trkpt lat="45.15809" lon="2.78685">
        <ele>1067</ele>
        <time>2021-08-23T13:45:05Z</time>
      </trkpt>
      <trkpt lat="45.15814" lon="2.78688">
        <ele>1067.1</ele>
        <time>2021-08-23T13:45:07Z</time>
      </trkpt>
      <trkpt lat="45.15818" lon="2.78692">
        <ele>1067.3</ele>
        <time>2021-08-23T13:45:09Z</time>
      </trkpt>
      <trkpt lat="45.15822" lon="2.78698">
        <ele>1067.3</ele>
        <time>2021-08-23T13:45:11Z</time>
      </trkpt>
      <trkpt lat="45.15826" lon="2.78704">
        <ele>1067.2</ele>
        <time>2021-08-23T13:45:13Z</time>
      </trkpt>
      <trkpt lat="45.1583" lon="2.78711">
        <ele>1067.1</ele>
        <time>2021-08-23T13:45:15Z</time>
      </trkpt>
      <trkpt lat="45.15833" lon="2.78719">
        <ele>1066.8</ele>
        <time>2021-08-23T13:45:17Z</time>
      </trkpt>
      <trkpt lat="45.15836" lon="2.78727">
        <ele>1066.8</ele>
        <time>2021-08-23T13:45:19Z</time>
      </trkpt>
      <trkpt lat="45.15838" lon="2.78737">
        <ele>1066.5</ele>
        <time>2021-08-23T13:45:21Z</time>
      </trkpt>
      <trkpt lat="45.1584" lon="2.78748">
        <ele>1066.1</ele>
        <time>2021-08-23T13:45:23Z</time>
      </trkpt>
      <trkpt lat="45.15842" lon="2.7876">
        <ele>1066.2</ele>
        <time>2021-08-23T13:45:25Z</time>
      </trkpt>
      <trkpt lat="45.15843" lon="2.78773">
        <ele>1066.3</ele>
        <time>2021-08-23T13:45:27Z</time>
      </trkpt>
      <trkpt lat="45.15846" lon="2.78787">
        <ele>1066.4</ele>
        <time>2021-08-23T13:45:29Z</time>
      </trkpt>
      <trkpt lat="45.15848" lon="2.78802">
        <ele>1066.6</ele>
        <time>2021-08-23T13:45:31Z</time>
      </trkpt>
      <trkpt lat="45.1585" lon="2.78819">
        <ele>1066.6</ele>
        <time>2021-08-23T13:45:33Z</time>
      </trkpt>
      <trkpt lat="45.15851" lon="2.78835">
        <ele>1066.5</ele>
        <time>2021-08-23T13:45:35Z</time>
      </trkpt>
      <trkpt lat="45.15849" lon="2.78852">
        <ele>1065.7</ele>
        <time>2021-08-23T13:45:37Z</time>
      </trkpt>
      <trkpt lat="45.15844" lon="2.78869">
        <ele>1064.6</ele>
        <time>2021-08-23T13:45:39Z</time>
      </trkpt>
      <trkpt lat="45.15839" lon="2.78886">
        <ele>1063.5</ele>
        <time>2021-08-23T13:45:41Z</time>
      </trkpt>
      <trkpt lat="45.15835" lon="2.78903">
        <ele>1062.5</ele>
        <time>2021-08-23T13:45:43Z</time>
      </trkpt>
      <trkpt lat="45.1583" lon="2.78918">
        <ele>1061.7</ele>
        <time>2021-08-23T13:45:45Z</time>
      </trkpt>
      <trkpt lat="45.15826" lon="2.78934">
        <ele>1060.7</ele>
        <time>2021-08-23T13:45:47Z</time>
      </trkpt>
      <trkpt lat="45.15822" lon="2.78947">
        <ele>1059.9</ele>
        <time>2021-08-23T13:45:49Z</time>
      </trkpt>
      <trkpt lat="45.15819" lon="2.78961">
        <ele>1059.1</ele>
        <time>2021-08-23T13:45:51Z</time>
      </trkpt>
      <trkpt lat="45.15815" lon="2.78972">
        <ele>1058.5</ele>
        <time>2021-08-23T13:45:53Z</time>
      </trkpt>
      <trkpt lat="45.15809" lon="2.78974">
        <ele>1058.1</ele>
        <time>2021-08-23T13:45:55Z</time>
      </trkpt>
      <trkpt lat="45.15803" lon="2.78968">
        <ele>1058</ele>
        <time>2021-08-23T13:45:57Z</time>
      </trkpt>
      <trkpt lat="45.15799" lon="2.78961">
        <ele>1058.1</ele>
        <time>2021-08-23T13:45:59Z</time>
      </trkpt>
      <trkpt lat="45.15796" lon="2.78956">
        <ele>1058</ele>
        <time>2021-08-23T13:46:01Z</time>
      </trkpt>
      <trkpt lat="45.15793" lon="2.78949">
        <ele>1058.1</ele>
        <time>2021-08-23T13:46:03Z</time>
      </trkpt>
      <trkpt lat="45.1579" lon="2.78943">
        <ele>1058.1</ele>
        <time>2021-08-23T13:46:05Z</time>
      </trkpt>
      <trkpt lat="45.15787" lon="2.78938">
        <ele>1058.1</ele>
        <time>2021-08-23T13:46:07Z</time>
      </trkpt>
      <trkpt lat="45.15783" lon="2.78934">
        <ele>1058</ele>
        <time>2021-08-23T13:46:09Z</time>
      </trkpt>
      <trkpt lat="45.15783" lon="2.78934">
        <ele>1057.9</ele>
        <time>2021-08-23T13:46:11Z</time>
      </trkpt>
      <trkpt lat="45.15783" lon="2.78934">
        <ele>1057.9</ele>
        <time>2021-08-23T13:46:13Z</time>
      </trkpt>
      <trkpt lat="45.15783" lon="2.78934">
        <ele>1057.9</ele>
        <time>2021-08-23T13:46:15Z</time>
      </trkpt>
      <trkpt lat="45.15783" lon="2.78935">
        <ele>1057.9</ele>
        <time>2021-08-23T13:46:17Z</time>
      </trkpt>
      <trkpt lat="45.15783" lon="2.78934">
        <ele>1057.9</ele>
        <time>2021-08-23T13:46:19Z</time>
      </trkpt>
      <trkpt lat="45.15792" lon="2.78951">
        <ele>1058</ele>
        <time>2021-08-23T13:54:47Z</time>
      </trkpt>
      <trkpt lat="45.15794" lon="2.78958">
        <ele>1057.9</ele>
        <time>2021-08-23T13:54:49Z</time>
      </trkpt>
      <trkpt lat="45.15797" lon="2.78963">
        <ele>1057.9</ele>
        <time>2021-08-23T13:54:51Z</time>
      </trkpt>
      <trkpt lat="45.15801" lon="2.78968">
        <ele>1057.9</ele>
        <time>2021-08-23T13:54:53Z</time>
      </trkpt>
      <trkpt lat="45.15805" lon="2.78976">
        <ele>1057.8</ele>
        <time>2021-08-23T13:54:55Z</time>
      </trkpt>
      <trkpt lat="45.15809" lon="2.78981">
        <ele>1057.8</ele>
        <time>2021-08-23T13:54:57Z</time>
      </trkpt>
      <trkpt lat="45.15812" lon="2.78983">
        <ele>1057.9</ele>
        <time>2021-08-23T13:54:59Z</time>
      </trkpt>
      <trkpt lat="45.15816" lon="2.78984">
        <ele>1058</ele>
        <time>2021-08-23T13:55:01Z</time>
      </trkpt>
      <trkpt lat="45.15818" lon="2.78988">
        <ele>1057.9</ele>
        <time>2021-08-23T13:55:03Z</time>
      </trkpt>
      <trkpt lat="45.15816" lon="2.78994">
        <ele>1057.6</ele>
        <time>2021-08-23T13:55:05Z</time>
      </trkpt>
      <trkpt lat="45.15815" lon="2.78995">
        <ele>1057.5</ele>
        <time>2021-08-23T13:55:07Z</time>
      </trkpt>
      <trkpt lat="45.15815" lon="2.78994">
        <ele>1057.6</ele>
        <time>2021-08-23T13:55:09Z</time>
      </trkpt>
      <trkpt lat="45.15815" lon="2.78994">
        <ele>1057.6</ele>
        <time>2021-08-23T13:55:11Z</time>
      </trkpt>
      <trkpt lat="45.15814" lon="2.78996">
        <ele>1057.5</ele>
        <time>2021-08-23T13:55:13Z</time>
      </trkpt>
      <trkpt lat="45.15814" lon="2.78996">
        <ele>1057.5</ele>
        <time>2021-08-23T13:55:15Z</time>
      </trkpt>
      <trkpt lat="45.15814" lon="2.78982">
        <ele>1058</ele>
        <time>2021-08-23T14:30:35Z</time>
      </trkpt>
      <trkpt lat="45.15811" lon="2.78983">
        <ele>1057.8</ele>
        <time>2021-08-23T14:30:37Z</time>
      </trkpt>
      <trkpt lat="45.15809" lon="2.78988">
        <ele>1057.6</ele>
        <time>2021-08-23T14:30:39Z</time>
      </trkpt>
      <trkpt lat="45.15808" lon="2.78995">
        <ele>1057.3</ele>
        <time>2021-08-23T14:30:41Z</time>
      </trkpt>
      <trkpt lat="45.15808" lon="2.79004">
        <ele>1057</ele>
        <time>2021-08-23T14:30:43Z</time>
      </trkpt>
      <trkpt lat="45.15807" lon="2.79013">
        <ele>1056.7</ele>
        <time>2021-08-23T14:30:45Z</time>
      </trkpt>
      <trkpt lat="45.15806" lon="2.79024">
        <ele>1056.4</ele>
        <time>2021-08-23T14:30:47Z</time>
      </trkpt>
      <trkpt lat="45.15806" lon="2.79035">
        <ele>1056.1</ele>
        <time>2021-08-23T14:30:49Z</time>
      </trkpt>
      <trkpt lat="45.15806" lon="2.79046">
        <ele>1055.7</ele>
        <time>2021-08-23T14:30:51Z</time>
      </trkpt>
      <trkpt lat="45.15806" lon="2.79059">
        <ele>1055.4</ele>
        <time>2021-08-23T14:30:53Z</time>
      </trkpt>
      <trkpt lat="45.15806" lon="2.79072">
        <ele>1055</ele>
        <time>2021-08-23T14:30:55Z</time>
      </trkpt>
      <trkpt lat="45.15806" lon="2.79085">
        <ele>1054.7</ele>
        <time>2021-08-23T14:30:57Z</time>
      </trkpt>
      <trkpt lat="45.15807" lon="2.79098">
        <ele>1054.7</ele>
        <time>2021-08-23T14:30:59Z</time>
      </trkpt>
      <trkpt lat="45.15807" lon="2.79111">
        <ele>1054.7</ele>
        <time>2021-08-23T14:31:01Z</time>
      </trkpt>
      <trkpt lat="45.15808" lon="2.79125">
        <ele>1054.8</ele>
        <time>2021-08-23T14:31:03Z</time>
      </trkpt>
      <trkpt lat="45.15809" lon="2.79139">
        <ele>1054.9</ele>
        <time>2021-08-23T14:31:05Z</time>
      </trkpt>
      <trkpt lat="45.15813" lon="2.79152">
        <ele>1055</ele>
        <time>2021-08-23T14:31:07Z</time>
      </trkpt>
      <trkpt lat="45.15816" lon="2.79165">
        <ele>1055.2</ele>
        <time>2021-08-23T14:31:09Z</time>
      </trkpt>
      <trkpt lat="45.15819" lon="2.79176">
        <ele>1055</ele>
        <time>2021-08-23T14:31:11Z</time>
      </trkpt>
      <trkpt lat="45.15821" lon="2.79187">
        <ele>1054.7</ele>
        <time>2021-08-23T14:31:13Z</time>
      </trkpt>
      <trkpt lat="45.15823" lon="2.79197">
        <ele>1054.4</ele>
        <time>2021-08-23T14:31:15Z</time>
      </trkpt>
      <trkpt lat="45.15825" lon="2.79205">
        <ele>1054.2</ele>
        <time>2021-08-23T14:31:17Z</time>
      </trkpt>
      <trkpt lat="45.15827" lon="2.79215">
        <ele>1054</ele>
        <time>2021-08-23T14:31:19Z</time>
      </trkpt>
      <trkpt lat="45.15829" lon="2.79223">
        <ele>1053.8</ele>
        <time>2021-08-23T14:31:21Z</time>
      </trkpt>
      <trkpt lat="45.15831" lon="2.79233">
        <ele>1053.5</ele>
        <time>2021-08-23T14:31:23Z</time>
      </trkpt>
      <trkpt lat="45.15833" lon="2.79243">
        <ele>1053.3</ele>
        <time>2021-08-23T14:31:25Z</time>
      </trkpt>
      <trkpt lat="45.15835" lon="2.79252">
        <ele>1053.1</ele>
        <time>2021-08-23T14:31:27Z</time>
      </trkpt>
      <trkpt lat="45.15838" lon="2.79262">
        <ele>1053.1</ele>
        <time>2021-08-23T14:31:29Z</time>
      </trkpt>
      <trkpt lat="45.1584" lon="2.79273">
        <ele>1053</ele>
        <time>2021-08-23T14:31:31Z</time>
      </trkpt>
      <trkpt lat="45.15842" lon="2.79285">
        <ele>1053</ele>
        <time>2021-08-23T14:31:33Z</time>
      </trkpt>
      <trkpt lat="45.15844" lon="2.79297">
        <ele>1052.9</ele>
        <time>2021-08-23T14:31:35Z</time>
      </trkpt>
      <trkpt lat="45.15847" lon="2.79311">
        <ele>1052.9</ele>
        <time>2021-08-23T14:31:37Z</time>
      </trkpt>
      <trkpt lat="45.1585" lon="2.79324">
        <ele>1052.8</ele>
        <time>2021-08-23T14:31:39Z</time>
      </trkpt>
      <trkpt lat="45.15853" lon="2.79337">
        <ele>1052.9</ele>
        <time>2021-08-23T14:31:41Z</time>
      </trkpt>
      <trkpt lat="45.15856" lon="2.79351">
        <ele>1053.1</ele>
        <time>2021-08-23T14:31:43Z</time>
      </trkpt>
      <trkpt lat="45.15858" lon="2.79364">
        <ele>1053.3</ele>
        <time>2021-08-23T14:31:45Z</time>
      </trkpt>
      <trkpt lat="45.15862" lon="2.79377">
        <ele>1053.5</ele>
        <time>2021-08-23T14:31:47Z</time>
      </trkpt>
      <trkpt lat="45.15864" lon="2.79389">
        <ele>1053.7</ele>
        <time>2021-08-23T14:31:49Z</time>
      </trkpt>
      <trkpt lat="45.15867" lon="2.79401">
        <ele>1053.9</ele>
        <time>2021-08-23T14:31:51Z</time>
      </trkpt>
      <trkpt lat="45.1587" lon="2.79414">
        <ele>1054.1</ele>
        <time>2021-08-23T14:31:53Z</time>
      </trkpt>
      <trkpt lat="45.15872" lon="2.79427">
        <ele>1053.9</ele>
        <time>2021-08-23T14:31:55Z</time>
      </trkpt>
      <trkpt lat="45.15874" lon="2.79439">
        <ele>1053.5</ele>
        <time>2021-08-23T14:31:57Z</time>
      </trkpt>
      <trkpt lat="45.15876" lon="2.79451">
        <ele>1053.1</ele>
        <time>2021-08-23T14:31:59Z</time>
      </trkpt>
      <trkpt lat="45.15878" lon="2.79465">
        <ele>1052.7</ele>
        <time>2021-08-23T14:32:01Z</time>
      </trkpt>
      <trkpt lat="45.1588" lon="2.79479">
        <ele>1052.3</ele>
        <time>2021-08-23T14:32:03Z</time>
      </trkpt>
      <trkpt lat="45.15883" lon="2.79494">
        <ele>1051.8</ele>
        <time>2021-08-23T14:32:05Z</time>
      </trkpt>
      <trkpt lat="45.15886" lon="2.79509">
        <ele>1051.5</ele>
        <time>2021-08-23T14:32:07Z</time>
      </trkpt>
      <trkpt lat="45.15891" lon="2.79524">
        <ele>1051.1</ele>
        <time>2021-08-23T14:32:09Z</time>
      </trkpt>
      <trkpt lat="45.15896" lon="2.7954">
        <ele>1050.7</ele>
        <time>2021-08-23T14:32:11Z</time>
      </trkpt>
      <trkpt lat="45.15902" lon="2.79556">
        <ele>1050.2</ele>
        <time>2021-08-23T14:32:13Z</time>
      </trkpt>
      <trkpt lat="45.15908" lon="2.79573">
        <ele>1049.5</ele>
        <time>2021-08-23T14:32:15Z</time>
      </trkpt>
      <trkpt lat="45.15914" lon="2.7959">
        <ele>1048.9</ele>
        <time>2021-08-23T14:32:17Z</time>
      </trkpt>
      <trkpt lat="45.15919" lon="2.79607">
        <ele>1048.9</ele>
        <time>2021-08-23T14:32:19Z</time>
      </trkpt>
      <trkpt lat="45.15921" lon="2.79625">
        <ele>1049</ele>
        <time>2021-08-23T14:32:21Z</time>
      </trkpt>
      <trkpt lat="45.15923" lon="2.79642">
        <ele>1048.9</ele>
        <time>2021-08-23T14:32:23Z</time>
      </trkpt>
      <trkpt lat="45.15924" lon="2.79659">
        <ele>1048.8</ele>
        <time>2021-08-23T14:32:25Z</time>
      </trkpt>
      <trkpt lat="45.15926" lon="2.79674">
        <ele>1048.9</ele>
        <time>2021-08-23T14:32:27Z</time>
      </trkpt>
      <trkpt lat="45.15928" lon="2.79689">
        <ele>1049.1</ele>
        <time>2021-08-23T14:32:29Z</time>
      </trkpt>
      <trkpt lat="45.15931" lon="2.79703">
        <ele>1049.3</ele>
        <time>2021-08-23T14:32:31Z</time>
      </trkpt>
      <trkpt lat="45.15934" lon="2.79717">
        <ele>1049.5</ele>
        <time>2021-08-23T14:32:33Z</time>
      </trkpt>
      <trkpt lat="45.15936" lon="2.7973">
        <ele>1049.7</ele>
        <time>2021-08-23T14:32:35Z</time>
      </trkpt>
      <trkpt lat="45.15938" lon="2.79743">
        <ele>1049.8</ele>
        <time>2021-08-23T14:32:37Z</time>
      </trkpt>
      <trkpt lat="45.15939" lon="2.79756">
        <ele>1049.7</ele>
        <time>2021-08-23T14:32:39Z</time>
      </trkpt>
      <trkpt lat="45.1594" lon="2.79768">
        <ele>1049.6</ele>
        <time>2021-08-23T14:32:41Z</time>
      </trkpt>
      <trkpt lat="45.15941" lon="2.79781">
        <ele>1049.4</ele>
        <time>2021-08-23T14:32:43Z</time>
      </trkpt>
      <trkpt lat="45.15941" lon="2.79792">
        <ele>1049.2</ele>
        <time>2021-08-23T14:32:45Z</time>
      </trkpt>
      <trkpt lat="45.15943" lon="2.79804">
        <ele>1049.1</ele>
        <time>2021-08-23T14:32:47Z</time>
      </trkpt>
      <trkpt lat="45.15943" lon="2.79815">
        <ele>1048.9</ele>
        <time>2021-08-23T14:32:49Z</time>
      </trkpt>
      <trkpt lat="45.15944" lon="2.79825">
        <ele>1048.8</ele>
        <time>2021-08-23T14:32:51Z</time>
      </trkpt>
      <trkpt lat="45.15946" lon="2.79836">
        <ele>1048.8</ele>
        <time>2021-08-23T14:32:53Z</time>
      </trkpt>
      <trkpt lat="45.15948" lon="2.79847">
        <ele>1048.7</ele>
        <time>2021-08-23T14:32:55Z</time>
      </trkpt>
      <trkpt lat="45.1595" lon="2.79858">
        <ele>1048.7</ele>
        <time>2021-08-23T14:32:57Z</time>
      </trkpt>
      <trkpt lat="45.15952" lon="2.79868">
        <ele>1048.6</ele>
        <time>2021-08-23T14:32:59Z</time>
      </trkpt>
      <trkpt lat="45.15954" lon="2.79879">
        <ele>1048.6</ele>
        <time>2021-08-23T14:33:01Z</time>
      </trkpt>
      <trkpt lat="45.15957" lon="2.7989">
        <ele>1048.5</ele>
        <time>2021-08-23T14:33:03Z</time>
      </trkpt>
      <trkpt lat="45.1596" lon="2.79901">
        <ele>1048.5</ele>
        <time>2021-08-23T14:33:05Z</time>
      </trkpt>
      <trkpt lat="45.15964" lon="2.79911">
        <ele>1048.5</ele>
        <time>2021-08-23T14:33:07Z</time>
      </trkpt>
      <trkpt lat="45.15968" lon="2.79922">
        <ele>1048.5</ele>
        <time>2021-08-23T14:33:09Z</time>
      </trkpt>
      <trkpt lat="45.15972" lon="2.79933">
        <ele>1048.6</ele>
        <time>2021-08-23T14:33:11Z</time>
      </trkpt>
      <trkpt lat="45.15975" lon="2.79945">
        <ele>1048.5</ele>
        <time>2021-08-23T14:33:13Z</time>
      </trkpt>
      <trkpt lat="45.15978" lon="2.79957">
        <ele>1048.4</ele>
        <time>2021-08-23T14:33:15Z</time>
      </trkpt>
      <trkpt lat="45.15981" lon="2.79969">
        <ele>1048.2</ele>
        <time>2021-08-23T14:33:17Z</time>
      </trkpt>
      <trkpt lat="45.15983" lon="2.79981">
        <ele>1047.9</ele>
        <time>2021-08-23T14:33:19Z</time>
      </trkpt>
      <trkpt lat="45.15985" lon="2.79992">
        <ele>1047.7</ele>
        <time>2021-08-23T14:33:21Z</time>
      </trkpt>
      <trkpt lat="45.15987" lon="2.80003">
        <ele>1047.6</ele>
        <time>2021-08-23T14:33:23Z</time>
      </trkpt>
      <trkpt lat="45.15989" lon="2.80015">
        <ele>1047.8</ele>
        <time>2021-08-23T14:33:25Z</time>
      </trkpt>
      <trkpt lat="45.15991" lon="2.80026">
        <ele>1047.9</ele>
        <time>2021-08-23T14:33:27Z</time>
      </trkpt>
      <trkpt lat="45.15993" lon="2.80037">
        <ele>1048.2</ele>
        <time>2021-08-23T14:33:29Z</time>
      </trkpt>
      <trkpt lat="45.15995" lon="2.80049">
        <ele>1048.4</ele>
        <time>2021-08-23T14:33:31Z</time>
      </trkpt>
      <trkpt lat="45.15996" lon="2.8006">
        <ele>1048.6</ele>
        <time>2021-08-23T14:33:33Z</time>
      </trkpt>
      <trkpt lat="45.15998" lon="2.80072">
        <ele>1048.7</ele>
        <time>2021-08-23T14:33:35Z</time>
      </trkpt>
      <trkpt lat="45.15999" lon="2.80083">
        <ele>1048.9</ele>
        <time>2021-08-23T14:33:37Z</time>
      </trkpt>
      <trkpt lat="45.16" lon="2.80094">
        <ele>1048.9</ele>
        <time>2021-08-23T14:33:39Z</time>
      </trkpt>
      <trkpt lat="45.16001" lon="2.80106">
        <ele>1048.8</ele>
        <time>2021-08-23T14:33:41Z</time>
      </trkpt>
      <trkpt lat="45.16002" lon="2.80117">
        <ele>1048.7</ele>
        <time>2021-08-23T14:33:43Z</time>
      </trkpt>
      <trkpt lat="45.16004" lon="2.80129">
        <ele>1048.7</ele>
        <time>2021-08-23T14:33:45Z</time>
      </trkpt>
      <trkpt lat="45.16006" lon="2.8014">
        <ele>1048.7</ele>
        <time>2021-08-23T14:33:47Z</time>
      </trkpt>
      <trkpt lat="45.16009" lon="2.80151">
        <ele>1048.7</ele>
        <time>2021-08-23T14:33:49Z</time>
      </trkpt>
      <trkpt lat="45.16012" lon="2.80162">
        <ele>1048.8</ele>
        <time>2021-08-23T14:33:51Z</time>
      </trkpt>
      <trkpt lat="45.16015" lon="2.80173">
        <ele>1048.7</ele>
        <time>2021-08-23T14:33:53Z</time>
      </trkpt>
      <trkpt lat="45.16019" lon="2.80183">
        <ele>1048.6</ele>
        <time>2021-08-23T14:33:55Z</time>
      </trkpt>
      <trkpt lat="45.16023" lon="2.80193">
        <ele>1048.5</ele>
        <time>2021-08-23T14:33:57Z</time>
      </trkpt>
      <trkpt lat="45.16029" lon="2.80204">
        <ele>1048.5</ele>
        <time>2021-08-23T14:33:59Z</time>
      </trkpt>
      <trkpt lat="45.16034" lon="2.80214">
        <ele>1048.5</ele>
        <time>2021-08-23T14:34:01Z</time>
      </trkpt>
      <trkpt lat="45.16039" lon="2.80226">
        <ele>1048.5</ele>
        <time>2021-08-23T14:34:03Z</time>
      </trkpt>
      <trkpt lat="45.16044" lon="2.80237">
        <ele>1048.6</ele>
        <time>2021-08-23T14:34:05Z</time>
      </trkpt>
      <trkpt lat="45.16049" lon="2.80248">
        <ele>1048.6</ele>
        <time>2021-08-23T14:34:07Z</time>
      </trkpt>
      <trkpt lat="45.16054" lon="2.8026">
        <ele>1048.8</ele>
        <time>2021-08-23T14:34:09Z</time>
      </trkpt>
      <trkpt lat="45.16059" lon="2.80272">
        <ele>1049</ele>
        <time>2021-08-23T14:34:11Z</time>
      </trkpt>
      <trkpt lat="45.16063" lon="2.80284">
        <ele>1049.2</ele>
        <time>2021-08-23T14:34:13Z</time>
      </trkpt>
      <trkpt lat="45.16067" lon="2.80297">
        <ele>1049.3</ele>
        <time>2021-08-23T14:34:15Z</time>
      </trkpt>
      <trkpt lat="45.16071" lon="2.80309">
        <ele>1049.4</ele>
        <time>2021-08-23T14:34:17Z</time>
      </trkpt>
      <trkpt lat="45.16075" lon="2.80321">
        <ele>1049.5</ele>
        <time>2021-08-23T14:34:19Z</time>
      </trkpt>
      <trkpt lat="45.16079" lon="2.80333">
        <ele>1049.7</ele>
        <time>2021-08-23T14:34:21Z</time>
      </trkpt>
      <trkpt lat="45.16082" lon="2.80344">
        <ele>1049.9</ele>
        <time>2021-08-23T14:34:23Z</time>
      </trkpt>
      <trkpt lat="45.16086" lon="2.80356">
        <ele>1050.3</ele>
        <time>2021-08-23T14:34:25Z</time>
      </trkpt>
      <trkpt lat="45.1609" lon="2.80368">
        <ele>1050.7</ele>
        <time>2021-08-23T14:34:27Z</time>
      </trkpt>
      <trkpt lat="45.16093" lon="2.80379">
        <ele>1051</ele>
        <time>2021-08-23T14:34:29Z</time>
      </trkpt>
      <trkpt lat="45.16096" lon="2.8039">
        <ele>1051.4</ele>
        <time>2021-08-23T14:34:31Z</time>
      </trkpt>
      <trkpt lat="45.16099" lon="2.80401">
        <ele>1051.7</ele>
        <time>2021-08-23T14:34:33Z</time>
      </trkpt>
      <trkpt lat="45.16101" lon="2.80411">
        <ele>1051.9</ele>
        <time>2021-08-23T14:34:35Z</time>
      </trkpt>
      <trkpt lat="45.16103" lon="2.8042">
        <ele>1052</ele>
        <time>2021-08-23T14:34:37Z</time>
      </trkpt>
      <trkpt lat="45.16104" lon="2.80428">
        <ele>1051.9</ele>
        <time>2021-08-23T14:34:39Z</time>
      </trkpt>
      <trkpt lat="45.16106" lon="2.80435">
        <ele>1051.8</ele>
        <time>2021-08-23T14:34:41Z</time>
      </trkpt>
      <trkpt lat="45.16107" lon="2.80443">
        <ele>1051.7</ele>
        <time>2021-08-23T14:34:43Z</time>
      </trkpt>
      <trkpt lat="45.16108" lon="2.80449">
        <ele>1051.6</ele>
        <time>2021-08-23T14:34:45Z</time>
      </trkpt>
      <trkpt lat="45.16109" lon="2.80456">
        <ele>1051.5</ele>
        <time>2021-08-23T14:34:47Z</time>
      </trkpt>
      <trkpt lat="45.1611" lon="2.80463">
        <ele>1051.4</ele>
        <time>2021-08-23T14:34:49Z</time>
      </trkpt>
      <trkpt lat="45.16113" lon="2.80468">
        <ele>1051.5</ele>
        <time>2021-08-23T14:34:51Z</time>
      </trkpt>
      <trkpt lat="45.16115" lon="2.80473">
        <ele>1051.5</ele>
        <time>2021-08-23T14:34:53Z</time>
      </trkpt>
      <trkpt lat="45.16114" lon="2.80478">
        <ele>1051.3</ele>
        <time>2021-08-23T14:34:55Z</time>
      </trkpt>
      <trkpt lat="45.16115" lon="2.80482">
        <ele>1051.2</ele>
        <time>2021-08-23T14:34:57Z</time>
      </trkpt>
      <trkpt lat="45.16115" lon="2.80487">
        <ele>1051.1</ele>
        <time>2021-08-23T14:34:59Z</time>
      </trkpt>
      <trkpt lat="45.16117" lon="2.80492">
        <ele>1051.1</ele>
        <time>2021-08-23T14:35:01Z</time>
      </trkpt>
      <trkpt lat="45.16118" lon="2.80497">
        <ele>1051</ele>
        <time>2021-08-23T14:35:03Z</time>
      </trkpt>
      <trkpt lat="45.16117" lon="2.80502">
        <ele>1050.8</ele>
        <time>2021-08-23T14:35:05Z</time>
      </trkpt>
      <trkpt lat="45.16118" lon="2.80506">
        <ele>1050.7</ele>
        <time>2021-08-23T14:35:07Z</time>
      </trkpt>
      <trkpt lat="45.1612" lon="2.80511">
        <ele>1050.7</ele>
        <time>2021-08-23T14:35:09Z</time>
      </trkpt>
      <trkpt lat="45.1612" lon="2.80517">
        <ele>1050.5</ele>
        <time>2021-08-23T14:35:11Z</time>
      </trkpt>
      <trkpt lat="45.16121" lon="2.80522">
        <ele>1050.4</ele>
        <time>2021-08-23T14:35:13Z</time>
      </trkpt>
      <trkpt lat="45.16122" lon="2.80527">
        <ele>1050.3</ele>
        <time>2021-08-23T14:35:15Z</time>
      </trkpt>
      <trkpt lat="45.16123" lon="2.80532">
        <ele>1050.2</ele>
        <time>2021-08-23T14:35:17Z</time>
      </trkpt>
      <trkpt lat="45.16124" lon="2.80537">
        <ele>1050.1</ele>
        <time>2021-08-23T14:35:19Z</time>
      </trkpt>
      <trkpt lat="45.16125" lon="2.80542">
        <ele>1050</ele>
        <time>2021-08-23T14:35:21Z</time>
      </trkpt>
      <trkpt lat="45.16126" lon="2.80547">
        <ele>1049.9</ele>
        <time>2021-08-23T14:35:23Z</time>
      </trkpt>
      <trkpt lat="45.16126" lon="2.80553">
        <ele>1049.7</ele>
        <time>2021-08-23T14:35:25Z</time>
      </trkpt>
      <trkpt lat="45.16128" lon="2.80559">
        <ele>1049.6</ele>
        <time>2021-08-23T14:35:27Z</time>
      </trkpt>
      <trkpt lat="45.16129" lon="2.80564">
        <ele>1049.5</ele>
        <time>2021-08-23T14:35:29Z</time>
      </trkpt>
      <trkpt lat="45.16131" lon="2.80568">
        <ele>1049.4</ele>
        <time>2021-08-23T14:35:31Z</time>
      </trkpt>
      <trkpt lat="45.16132" lon="2.80574">
        <ele>1049.3</ele>
        <time>2021-08-23T14:35:33Z</time>
      </trkpt>
      <trkpt lat="45.16133" lon="2.80579">
        <ele>1049.1</ele>
        <time>2021-08-23T14:35:35Z</time>
      </trkpt>
      <trkpt lat="45.16134" lon="2.80583">
        <ele>1049</ele>
        <time>2021-08-23T14:35:37Z</time>
      </trkpt>
      <trkpt lat="45.16135" lon="2.80588">
        <ele>1049</ele>
        <time>2021-08-23T14:35:39Z</time>
      </trkpt>
      <trkpt lat="45.16135" lon="2.80592">
        <ele>1049</ele>
        <time>2021-08-23T14:35:41Z</time>
      </trkpt>
      <trkpt lat="45.16135" lon="2.80597">
        <ele>1048.9</ele>
        <time>2021-08-23T14:35:43Z</time>
      </trkpt>
      <trkpt lat="45.16136" lon="2.80602">
        <ele>1048.9</ele>
        <time>2021-08-23T14:35:45Z</time>
      </trkpt>
      <trkpt lat="45.16138" lon="2.80607">
        <ele>1048.9</ele>
        <time>2021-08-23T14:35:47Z</time>
      </trkpt>
      <trkpt lat="45.16138" lon="2.80612">
        <ele>1048.8</ele>
        <time>2021-08-23T14:35:49Z</time>
      </trkpt>
      <trkpt lat="45.16139" lon="2.80618">
        <ele>1048.8</ele>
        <time>2021-08-23T14:35:51Z</time>
      </trkpt>
      <trkpt lat="45.16141" lon="2.80623">
        <ele>1048.8</ele>
        <time>2021-08-23T14:35:53Z</time>
      </trkpt>
      <trkpt lat="45.16141" lon="2.80628">
        <ele>1048.7</ele>
        <time>2021-08-23T14:35:55Z</time>
      </trkpt>
      <trkpt lat="45.16142" lon="2.80633">
        <ele>1048.7</ele>
        <time>2021-08-23T14:35:57Z</time>
      </trkpt>
      <trkpt lat="45.16142" lon="2.80639">
        <ele>1048.6</ele>
        <time>2021-08-23T14:35:59Z</time>
      </trkpt>
      <trkpt lat="45.16142" lon="2.80645">
        <ele>1048.5</ele>
        <time>2021-08-23T14:36:01Z</time>
      </trkpt>
      <trkpt lat="45.16144" lon="2.80652">
        <ele>1048.4</ele>
        <time>2021-08-23T14:36:03Z</time>
      </trkpt>
      <trkpt lat="45.16144" lon="2.80661">
        <ele>1048.3</ele>
        <time>2021-08-23T14:36:05Z</time>
      </trkpt>
      <trkpt lat="45.16146" lon="2.80669">
        <ele>1048.2</ele>
        <time>2021-08-23T14:36:07Z</time>
      </trkpt>
      <trkpt lat="45.16146" lon="2.80679">
        <ele>1047.8</ele>
        <time>2021-08-23T14:36:09Z</time>
      </trkpt>
      <trkpt lat="45.16147" lon="2.80688">
        <ele>1047.6</ele>
        <time>2021-08-23T14:36:11Z</time>
      </trkpt>
      <trkpt lat="45.16147" lon="2.80694">
        <ele>1047.4</ele>
        <time>2021-08-23T14:36:13Z</time>
      </trkpt>
      <trkpt lat="45.16147" lon="2.80701">
        <ele>1047.1</ele>
        <time>2021-08-23T14:36:15Z</time>
      </trkpt>
      <trkpt lat="45.16148" lon="2.80709">
        <ele>1046.9</ele>
        <time>2021-08-23T14:36:17Z</time>
      </trkpt>
      <trkpt lat="45.16148" lon="2.80717">
        <ele>1046.6</ele>
        <time>2021-08-23T14:36:19Z</time>
      </trkpt>
      <trkpt lat="45.16148" lon="2.80723">
        <ele>1046.5</ele>
        <time>2021-08-23T14:36:21Z</time>
      </trkpt>
      <trkpt lat="45.16149" lon="2.8073">
        <ele>1046.2</ele>
        <time>2021-08-23T14:36:23Z</time>
      </trkpt>
      <trkpt lat="45.1615" lon="2.80738">
        <ele>1046</ele>
        <time>2021-08-23T14:36:25Z</time>
      </trkpt>
      <trkpt lat="45.16151" lon="2.80745">
        <ele>1045.8</ele>
        <time>2021-08-23T14:36:27Z</time>
      </trkpt>
      <trkpt lat="45.16152" lon="2.80754">
        <ele>1045.5</ele>
        <time>2021-08-23T14:36:29Z</time>
      </trkpt>
      <trkpt lat="45.16153" lon="2.80763">
        <ele>1045.2</ele>
        <time>2021-08-23T14:36:31Z</time>
      </trkpt>
      <trkpt lat="45.16156" lon="2.80772">
        <ele>1044.9</ele>
        <time>2021-08-23T14:36:33Z</time>
      </trkpt>
      <trkpt lat="45.16159" lon="2.80782">
        <ele>1044.7</ele>
        <time>2021-08-23T14:36:35Z</time>
      </trkpt>
      <trkpt lat="45.16161" lon="2.80793">
        <ele>1044.3</ele>
        <time>2021-08-23T14:36:37Z</time>
      </trkpt>
      <trkpt lat="45.16164" lon="2.80804">
        <ele>1044</ele>
        <time>2021-08-23T14:36:39Z</time>
      </trkpt>
      <trkpt lat="45.16167" lon="2.80815">
        <ele>1043.7</ele>
        <time>2021-08-23T14:36:41Z</time>
      </trkpt>
      <trkpt lat="45.1617" lon="2.80826">
        <ele>1043.5</ele>
        <time>2021-08-23T14:36:43Z</time>
      </trkpt>
      <trkpt lat="45.16173" lon="2.80837">
        <ele>1043.2</ele>
        <time>2021-08-23T14:36:45Z</time>
      </trkpt>
      <trkpt lat="45.16176" lon="2.80849">
        <ele>1042.9</ele>
        <time>2021-08-23T14:36:47Z</time>
      </trkpt>
      <trkpt lat="45.16179" lon="2.80862">
        <ele>1042.7</ele>
        <time>2021-08-23T14:36:49Z</time>
      </trkpt>
      <trkpt lat="45.16181" lon="2.80876">
        <ele>1042.4</ele>
        <time>2021-08-23T14:36:51Z</time>
      </trkpt>
      <trkpt lat="45.16184" lon="2.80891">
        <ele>1042.2</ele>
        <time>2021-08-23T14:36:53Z</time>
      </trkpt>
      <trkpt lat="45.16186" lon="2.80906">
        <ele>1041.9</ele>
        <time>2021-08-23T14:36:55Z</time>
      </trkpt>
      <trkpt lat="45.16187" lon="2.80921">
        <ele>1041.8</ele>
        <time>2021-08-23T14:36:57Z</time>
      </trkpt>
      <trkpt lat="45.16189" lon="2.80935">
        <ele>1042</ele>
        <time>2021-08-23T14:36:59Z</time>
      </trkpt>
      <trkpt lat="45.16192" lon="2.80949">
        <ele>1042.3</ele>
        <time>2021-08-23T14:37:01Z</time>
      </trkpt>
      <trkpt lat="45.16194" lon="2.80964">
        <ele>1042.5</ele>
        <time>2021-08-23T14:37:03Z</time>
      </trkpt>
      <trkpt lat="45.16195" lon="2.80978">
        <ele>1042.6</ele>
        <time>2021-08-23T14:37:05Z</time>
      </trkpt>
      <trkpt lat="45.16197" lon="2.80992">
        <ele>1042.8</ele>
        <time>2021-08-23T14:37:07Z</time>
      </trkpt>
      <trkpt lat="45.16198" lon="2.81004">
        <ele>1042.9</ele>
        <time>2021-08-23T14:37:09Z</time>
      </trkpt>
      <trkpt lat="45.162" lon="2.81015">
        <ele>1043</ele>
        <time>2021-08-23T14:37:11Z</time>
      </trkpt>
      <trkpt lat="45.16201" lon="2.81027">
        <ele>1043.1</ele>
        <time>2021-08-23T14:37:13Z</time>
      </trkpt>
      <trkpt lat="45.16202" lon="2.81038">
        <ele>1043.2</ele>
        <time>2021-08-23T14:37:15Z</time>
      </trkpt>
      <trkpt lat="45.16203" lon="2.8105">
        <ele>1043.3</ele>
        <time>2021-08-23T14:37:17Z</time>
      </trkpt>
      <trkpt lat="45.16204" lon="2.81061">
        <ele>1043.3</ele>
        <time>2021-08-23T14:37:19Z</time>
      </trkpt>
      <trkpt lat="45.16206" lon="2.81073">
        <ele>1043.4</ele>
        <time>2021-08-23T14:37:21Z</time>
      </trkpt>
      <trkpt lat="45.16206" lon="2.81085">
        <ele>1043.4</ele>
        <time>2021-08-23T14:37:23Z</time>
      </trkpt>
      <trkpt lat="45.16206" lon="2.81097">
        <ele>1043.3</ele>
        <time>2021-08-23T14:37:25Z</time>
      </trkpt>
      <trkpt lat="45.16206" lon="2.81109">
        <ele>1043.3</ele>
        <time>2021-08-23T14:37:27Z</time>
      </trkpt>
      <trkpt lat="45.16206" lon="2.81121">
        <ele>1043.2</ele>
        <time>2021-08-23T14:37:29Z</time>
      </trkpt>
      <trkpt lat="45.16206" lon="2.81132">
        <ele>1043.2</ele>
        <time>2021-08-23T14:37:31Z</time>
      </trkpt>
      <trkpt lat="45.16206" lon="2.81144">
        <ele>1043.1</ele>
        <time>2021-08-23T14:37:33Z</time>
      </trkpt>
      <trkpt lat="45.16206" lon="2.81156">
        <ele>1043</ele>
        <time>2021-08-23T14:37:35Z</time>
      </trkpt>
      <trkpt lat="45.16206" lon="2.81168">
        <ele>1043</ele>
        <time>2021-08-23T14:37:37Z</time>
      </trkpt>
      <trkpt lat="45.16206" lon="2.8118">
        <ele>1043</ele>
        <time>2021-08-23T14:37:39Z</time>
      </trkpt>
      <trkpt lat="45.16206" lon="2.81192">
        <ele>1043.1</ele>
        <time>2021-08-23T14:37:41Z</time>
      </trkpt>
      <trkpt lat="45.16206" lon="2.81203">
        <ele>1043.1</ele>
        <time>2021-08-23T14:37:43Z</time>
      </trkpt>
      <trkpt lat="45.16206" lon="2.81215">
        <ele>1043.2</ele>
        <time>2021-08-23T14:37:45Z</time>
      </trkpt>
      <trkpt lat="45.16206" lon="2.81227">
        <ele>1043.3</ele>
        <time>2021-08-23T14:37:47Z</time>
      </trkpt>
      <trkpt lat="45.16206" lon="2.81239">
        <ele>1043.4</ele>
        <time>2021-08-23T14:37:49Z</time>
      </trkpt>
      <trkpt lat="45.16208" lon="2.81251">
        <ele>1043.4</ele>
        <time>2021-08-23T14:37:51Z</time>
      </trkpt>
      <trkpt lat="45.16209" lon="2.81264">
        <ele>1043.3</ele>
        <time>2021-08-23T14:37:53Z</time>
      </trkpt>
      <trkpt lat="45.16212" lon="2.81276">
        <ele>1043.2</ele>
        <time>2021-08-23T14:37:55Z</time>
      </trkpt>
      <trkpt lat="45.16215" lon="2.81287">
        <ele>1043.1</ele>
        <time>2021-08-23T14:37:57Z</time>
      </trkpt>
      <trkpt lat="45.16219" lon="2.81298">
        <ele>1043.1</ele>
        <time>2021-08-23T14:37:59Z</time>
      </trkpt>
      <trkpt lat="45.16223" lon="2.81309">
        <ele>1043.1</ele>
        <time>2021-08-23T14:38:01Z</time>
      </trkpt>
      <trkpt lat="45.16227" lon="2.8132">
        <ele>1043.1</ele>
        <time>2021-08-23T14:38:03Z</time>
      </trkpt>
      <trkpt lat="45.16231" lon="2.8133">
        <ele>1043.1</ele>
        <time>2021-08-23T14:38:05Z</time>
      </trkpt>
      <trkpt lat="45.16236" lon="2.81341">
        <ele>1043.1</ele>
        <time>2021-08-23T14:38:07Z</time>
      </trkpt>
      <trkpt lat="45.1624" lon="2.81351">
        <ele>1043.1</ele>
        <time>2021-08-23T14:38:09Z</time>
      </trkpt>
      <trkpt lat="45.16245" lon="2.8136">
        <ele>1043.2</ele>
        <time>2021-08-23T14:38:11Z</time>
      </trkpt>
      <trkpt lat="45.1625" lon="2.81369">
        <ele>1043.1</ele>
        <time>2021-08-23T14:38:13Z</time>
      </trkpt>
      <trkpt lat="45.16255" lon="2.81379">
        <ele>1043.1</ele>
        <time>2021-08-23T14:38:15Z</time>
      </trkpt>
      <trkpt lat="45.16261" lon="2.81389">
        <ele>1043</ele>
        <time>2021-08-23T14:38:17Z</time>
      </trkpt>
      <trkpt lat="45.16266" lon="2.81399">
        <ele>1043</ele>
        <time>2021-08-23T14:38:19Z</time>
      </trkpt>
      <trkpt lat="45.1627" lon="2.8141">
        <ele>1042.9</ele>
        <time>2021-08-23T14:38:21Z</time>
      </trkpt>
      <trkpt lat="45.16276" lon="2.81419">
        <ele>1042.9</ele>
        <time>2021-08-23T14:38:23Z</time>
      </trkpt>
      <trkpt lat="45.16281" lon="2.81429">
        <ele>1042.9</ele>
        <time>2021-08-23T14:38:25Z</time>
      </trkpt>
      <trkpt lat="45.16286" lon="2.81439">
        <ele>1042.9</ele>
        <time>2021-08-23T14:38:27Z</time>
      </trkpt>
      <trkpt lat="45.16292" lon="2.81449">
        <ele>1042.9</ele>
        <time>2021-08-23T14:38:29Z</time>
      </trkpt>
      <trkpt lat="45.16296" lon="2.8146">
        <ele>1042.9</ele>
        <time>2021-08-23T14:38:31Z</time>
      </trkpt>
      <trkpt lat="45.16301" lon="2.81471">
        <ele>1042.9</ele>
        <time>2021-08-23T14:38:33Z</time>
      </trkpt>
      <trkpt lat="45.16304" lon="2.81482">
        <ele>1042.9</ele>
        <time>2021-08-23T14:38:35Z</time>
      </trkpt>
      <trkpt lat="45.16308" lon="2.81494">
        <ele>1042.9</ele>
        <time>2021-08-23T14:38:37Z</time>
      </trkpt>
      <trkpt lat="45.16311" lon="2.81506">
        <ele>1043</ele>
        <time>2021-08-23T14:38:39Z</time>
      </trkpt>
      <trkpt lat="45.16313" lon="2.81518">
        <ele>1043.2</ele>
        <time>2021-08-23T14:38:41Z</time>
      </trkpt>
      <trkpt lat="45.16315" lon="2.81531">
        <ele>1043.4</ele>
        <time>2021-08-23T14:38:43Z</time>
      </trkpt>
      <trkpt lat="45.16317" lon="2.81543">
        <ele>1043.6</ele>
        <time>2021-08-23T14:38:45Z</time>
      </trkpt>
      <trkpt lat="45.16318" lon="2.81556">
        <ele>1043.8</ele>
        <time>2021-08-23T14:38:47Z</time>
      </trkpt>
      <trkpt lat="45.16318" lon="2.81569">
        <ele>1043.9</ele>
        <time>2021-08-23T14:38:49Z</time>
      </trkpt>
      <trkpt lat="45.16317" lon="2.81583">
        <ele>1044</ele>
        <time>2021-08-23T14:38:51Z</time>
      </trkpt>
      <trkpt lat="45.16316" lon="2.81597">
        <ele>1043.7</ele>
        <time>2021-08-23T14:38:53Z</time>
      </trkpt>
      <trkpt lat="45.16313" lon="2.81611">
        <ele>1043.2</ele>
        <time>2021-08-23T14:38:55Z</time>
      </trkpt>
      <trkpt lat="45.16308" lon="2.81624">
        <ele>1042.7</ele>
        <time>2021-08-23T14:38:57Z</time>
      </trkpt>
      <trkpt lat="45.16304" lon="2.81637">
        <ele>1042.2</ele>
        <time>2021-08-23T14:38:59Z</time>
      </trkpt>
      <trkpt lat="45.16298" lon="2.81652">
        <ele>1041.6</ele>
        <time>2021-08-23T14:39:01Z</time>
      </trkpt>
      <trkpt lat="45.16293" lon="2.81666">
        <ele>1041.1</ele>
        <time>2021-08-23T14:39:03Z</time>
      </trkpt>
      <trkpt lat="45.16287" lon="2.81681">
        <ele>1040.4</ele>
        <time>2021-08-23T14:39:05Z</time>
      </trkpt>
      <trkpt lat="45.16281" lon="2.81697">
        <ele>1039.9</ele>
        <time>2021-08-23T14:39:07Z</time>
      </trkpt>
      <trkpt lat="45.16275" lon="2.81712">
        <ele>1039.3</ele>
        <time>2021-08-23T14:39:09Z</time>
      </trkpt>
      <trkpt lat="45.16269" lon="2.81727">
        <ele>1038.9</ele>
        <time>2021-08-23T14:39:11Z</time>
      </trkpt>
      <trkpt lat="45.16264" lon="2.81741">
        <ele>1038.5</ele>
        <time>2021-08-23T14:39:13Z</time>
      </trkpt>
      <trkpt lat="45.16259" lon="2.81755">
        <ele>1038.2</ele>
        <time>2021-08-23T14:39:15Z</time>
      </trkpt>
      <trkpt lat="45.16255" lon="2.81768">
        <ele>1038.1</ele>
        <time>2021-08-23T14:39:17Z</time>
      </trkpt>
      <trkpt lat="45.1625" lon="2.81779">
        <ele>1038</ele>
        <time>2021-08-23T14:39:19Z</time>
      </trkpt>
      <trkpt lat="45.16246" lon="2.8179">
        <ele>1038.2</ele>
        <time>2021-08-23T14:39:21Z</time>
      </trkpt>
      <trkpt lat="45.16243" lon="2.81799">
        <ele>1038.3</ele>
        <time>2021-08-23T14:39:23Z</time>
      </trkpt>
      <trkpt lat="45.16239" lon="2.81808">
        <ele>1038.5</ele>
        <time>2021-08-23T14:39:25Z</time>
      </trkpt>
      <trkpt lat="45.16236" lon="2.81817">
        <ele>1038.7</ele>
        <time>2021-08-23T14:39:27Z</time>
      </trkpt>
      <trkpt lat="45.16232" lon="2.81827">
        <ele>1038.9</ele>
        <time>2021-08-23T14:39:29Z</time>
      </trkpt>
      <trkpt lat="45.16228" lon="2.81838">
        <ele>1039.2</ele>
        <time>2021-08-23T14:39:31Z</time>
      </trkpt>
      <trkpt lat="45.16224" lon="2.81849">
        <ele>1039.7</ele>
        <time>2021-08-23T14:39:33Z</time>
      </trkpt>
      <trkpt lat="45.16219" lon="2.81861">
        <ele>1040.2</ele>
        <time>2021-08-23T14:39:35Z</time>
      </trkpt>
      <trkpt lat="45.16215" lon="2.81873">
        <ele>1040.7</ele>
        <time>2021-08-23T14:39:37Z</time>
      </trkpt>
      <trkpt lat="45.16211" lon="2.81885">
        <ele>1041.1</ele>
        <time>2021-08-23T14:39:39Z</time>
      </trkpt>
      <trkpt lat="45.16209" lon="2.81898">
        <ele>1041.5</ele>
        <time>2021-08-23T14:39:41Z</time>
      </trkpt>
      <trkpt lat="45.16208" lon="2.81911">
        <ele>1041.9</ele>
        <time>2021-08-23T14:39:43Z</time>
      </trkpt>
      <trkpt lat="45.16208" lon="2.81924">
        <ele>1042.2</ele>
        <time>2021-08-23T14:39:45Z</time>
      </trkpt>
      <trkpt lat="45.16209" lon="2.81936">
        <ele>1042.5</ele>
        <time>2021-08-23T14:39:47Z</time>
      </trkpt>
      <trkpt lat="45.1621" lon="2.81947">
        <ele>1042.7</ele>
        <time>2021-08-23T14:39:49Z</time>
      </trkpt>
      <trkpt lat="45.16212" lon="2.81958">
        <ele>1042.8</ele>
        <time>2021-08-23T14:39:51Z</time>
      </trkpt>
      <trkpt lat="45.16213" lon="2.81967">
        <ele>1043</ele>
        <time>2021-08-23T14:39:53Z</time>
      </trkpt>
      <trkpt lat="45.16214" lon="2.81977">
        <ele>1043.2</ele>
        <time>2021-08-23T14:39:55Z</time>
      </trkpt>
      <trkpt lat="45.16216" lon="2.81987">
        <ele>1043.4</ele>
        <time>2021-08-23T14:39:57Z</time>
      </trkpt>
      <trkpt lat="45.16216" lon="2.81996">
        <ele>1043.6</ele>
        <time>2021-08-23T14:39:59Z</time>
      </trkpt>
      <trkpt lat="45.16215" lon="2.82006">
        <ele>1043.8</ele>
        <time>2021-08-23T14:40:01Z</time>
      </trkpt>
      <trkpt lat="45.16214" lon="2.82015">
        <ele>1044.2</ele>
        <time>2021-08-23T14:40:03Z</time>
      </trkpt>
      <trkpt lat="45.16212" lon="2.82025">
        <ele>1044.6</ele>
        <time>2021-08-23T14:40:05Z</time>
      </trkpt>
      <trkpt lat="45.1621" lon="2.82034">
        <ele>1045</ele>
        <time>2021-08-23T14:40:07Z</time>
      </trkpt>
      <trkpt lat="45.16208" lon="2.82044">
        <ele>1045.3</ele>
        <time>2021-08-23T14:40:09Z</time>
      </trkpt>
      <trkpt lat="45.16207" lon="2.82053">
        <ele>1045.6</ele>
        <time>2021-08-23T14:40:11Z</time>
      </trkpt>
      <trkpt lat="45.16206" lon="2.82063">
        <ele>1046</ele>
        <time>2021-08-23T14:40:13Z</time>
      </trkpt>
      <trkpt lat="45.16206" lon="2.82071">
        <ele>1046.2</ele>
        <time>2021-08-23T14:40:15Z</time>
      </trkpt>
      <trkpt lat="45.16206" lon="2.82081">
        <ele>1046.5</ele>
        <time>2021-08-23T14:40:17Z</time>
      </trkpt>
      <trkpt lat="45.16208" lon="2.82089">
        <ele>1046.8</ele>
        <time>2021-08-23T14:40:19Z</time>
      </trkpt>
      <trkpt lat="45.1621" lon="2.82098">
        <ele>1047.1</ele>
        <time>2021-08-23T14:40:21Z</time>
      </trkpt>
      <trkpt lat="45.16213" lon="2.82107">
        <ele>1047.4</ele>
        <time>2021-08-23T14:40:23Z</time>
      </trkpt>
      <trkpt lat="45.16216" lon="2.82116">
        <ele>1047.7</ele>
        <time>2021-08-23T14:40:25Z</time>
      </trkpt>
      <trkpt lat="45.16219" lon="2.82123">
        <ele>1048</ele>
        <time>2021-08-23T14:40:27Z</time>
      </trkpt>
      <trkpt lat="45.16222" lon="2.8213">
        <ele>1048.3</ele>
        <time>2021-08-23T14:40:29Z</time>
      </trkpt>
      <trkpt lat="45.16224" lon="2.82136">
        <ele>1048.5</ele>
        <time>2021-08-23T14:40:31Z</time>
      </trkpt>
      <trkpt lat="45.16227" lon="2.82142">
        <ele>1048.8</ele>
        <time>2021-08-23T14:40:33Z</time>
      </trkpt>
      <trkpt lat="45.1623" lon="2.82149">
        <ele>1049.1</ele>
        <time>2021-08-23T14:40:35Z</time>
      </trkpt>
      <trkpt lat="45.16233" lon="2.82155">
        <ele>1049.4</ele>
        <time>2021-08-23T14:40:37Z</time>
      </trkpt>
      <trkpt lat="45.16235" lon="2.82162">
        <ele>1049.7</ele>
        <time>2021-08-23T14:40:39Z</time>
      </trkpt>
      <trkpt lat="45.16237" lon="2.82168">
        <ele>1050.1</ele>
        <time>2021-08-23T14:40:41Z</time>
      </trkpt>
      <trkpt lat="45.16239" lon="2.82176">
        <ele>1050.3</ele>
        <time>2021-08-23T14:40:43Z</time>
      </trkpt>
      <trkpt lat="45.1624" lon="2.82183">
        <ele>1050.6</ele>
        <time>2021-08-23T14:40:45Z</time>
      </trkpt>
      <trkpt lat="45.16241" lon="2.8219">
        <ele>1050.8</ele>
        <time>2021-08-23T14:40:47Z</time>
      </trkpt>
      <trkpt lat="45.16241" lon="2.82197">
        <ele>1051.1</ele>
        <time>2021-08-23T14:40:49Z</time>
      </trkpt>
      <trkpt lat="45.16241" lon="2.82205">
        <ele>1051.3</ele>
        <time>2021-08-23T14:40:51Z</time>
      </trkpt>
      <trkpt lat="45.16241" lon="2.82212">
        <ele>1051.6</ele>
        <time>2021-08-23T14:40:53Z</time>
      </trkpt>
      <trkpt lat="45.16241" lon="2.8222">
        <ele>1051.8</ele>
        <time>2021-08-23T14:40:55Z</time>
      </trkpt>
      <trkpt lat="45.16241" lon="2.82227">
        <ele>1052.1</ele>
        <time>2021-08-23T14:40:57Z</time>
      </trkpt>
      <trkpt lat="45.16241" lon="2.82235">
        <ele>1052.4</ele>
        <time>2021-08-23T14:40:59Z</time>
      </trkpt>
      <trkpt lat="45.16241" lon="2.82243">
        <ele>1052.7</ele>
        <time>2021-08-23T14:41:01Z</time>
      </trkpt>
      <trkpt lat="45.16241" lon="2.82252">
        <ele>1052.9</ele>
        <time>2021-08-23T14:41:03Z</time>
      </trkpt>
      <trkpt lat="45.1624" lon="2.82262">
        <ele>1052.8</ele>
        <time>2021-08-23T14:41:05Z</time>
      </trkpt>
      <trkpt lat="45.1624" lon="2.82273">
        <ele>1052.7</ele>
        <time>2021-08-23T14:41:07Z</time>
      </trkpt>
      <trkpt lat="45.16241" lon="2.82285">
        <ele>1052.6</ele>
        <time>2021-08-23T14:41:09Z</time>
      </trkpt>
      <trkpt lat="45.16243" lon="2.82297">
        <ele>1052.5</ele>
        <time>2021-08-23T14:41:11Z</time>
      </trkpt>
      <trkpt lat="45.16245" lon="2.82309">
        <ele>1052.3</ele>
        <time>2021-08-23T14:41:13Z</time>
      </trkpt>
      <trkpt lat="45.16249" lon="2.82321">
        <ele>1052.2</ele>
        <time>2021-08-23T14:41:15Z</time>
      </trkpt>
      <trkpt lat="45.16254" lon="2.82332">
        <ele>1051.9</ele>
        <time>2021-08-23T14:41:17Z</time>
      </trkpt>
      <trkpt lat="45.16259" lon="2.82343">
        <ele>1051.7</ele>
        <time>2021-08-23T14:41:19Z</time>
      </trkpt>
      <trkpt lat="45.16265" lon="2.82353">
        <ele>1051.5</ele>
        <time>2021-08-23T14:41:21Z</time>
      </trkpt>
      <trkpt lat="45.16271" lon="2.82363">
        <ele>1051.3</ele>
        <time>2021-08-23T14:41:23Z</time>
      </trkpt>
      <trkpt lat="45.16276" lon="2.82374">
        <ele>1051.1</ele>
        <time>2021-08-23T14:41:25Z</time>
      </trkpt>
      <trkpt lat="45.16282" lon="2.82384">
        <ele>1050.8</ele>
        <time>2021-08-23T14:41:27Z</time>
      </trkpt>
      <trkpt lat="45.16288" lon="2.82394">
        <ele>1050.6</ele>
        <time>2021-08-23T14:41:29Z</time>
      </trkpt>
      <trkpt lat="45.16295" lon="2.82404">
        <ele>1050.4</ele>
        <time>2021-08-23T14:41:31Z</time>
      </trkpt>
      <trkpt lat="45.16302" lon="2.82414">
        <ele>1050.1</ele>
        <time>2021-08-23T14:41:33Z</time>
      </trkpt>
      <trkpt lat="45.16309" lon="2.82424">
        <ele>1049.9</ele>
        <time>2021-08-23T14:41:35Z</time>
      </trkpt>
      <trkpt lat="45.16316" lon="2.82433">
        <ele>1049.6</ele>
        <time>2021-08-23T14:41:37Z</time>
      </trkpt>
      <trkpt lat="45.16321" lon="2.82443">
        <ele>1049.4</ele>
        <time>2021-08-23T14:41:39Z</time>
      </trkpt>
      <trkpt lat="45.16325" lon="2.82456">
        <ele>1049.3</ele>
        <time>2021-08-23T14:41:41Z</time>
      </trkpt>
      <trkpt lat="45.16328" lon="2.8247">
        <ele>1049.2</ele>
        <time>2021-08-23T14:41:43Z</time>
      </trkpt>
      <trkpt lat="45.16328" lon="2.82483">
        <ele>1049.2</ele>
        <time>2021-08-23T14:41:45Z</time>
      </trkpt>
      <trkpt lat="45.16328" lon="2.82497">
        <ele>1049.2</ele>
        <time>2021-08-23T14:41:47Z</time>
      </trkpt>
      <trkpt lat="45.16328" lon="2.8251">
        <ele>1049.2</ele>
        <time>2021-08-23T14:41:49Z</time>
      </trkpt>
      <trkpt lat="45.16327" lon="2.82524">
        <ele>1049.3</ele>
        <time>2021-08-23T14:41:51Z</time>
      </trkpt>
      <trkpt lat="45.16328" lon="2.82537">
        <ele>1049.2</ele>
        <time>2021-08-23T14:41:53Z</time>
      </trkpt>
      <trkpt lat="45.16328" lon="2.82551">
        <ele>1049.3</ele>
        <time>2021-08-23T14:41:55Z</time>
      </trkpt>
      <trkpt lat="45.16327" lon="2.82564">
        <ele>1049.3</ele>
        <time>2021-08-23T14:41:57Z</time>
      </trkpt>
      <trkpt lat="45.16328" lon="2.82578">
        <ele>1049.3</ele>
        <time>2021-08-23T14:41:59Z</time>
      </trkpt>
      <trkpt lat="45.16328" lon="2.82591">
        <ele>1049.5</ele>
        <time>2021-08-23T14:42:01Z</time>
      </trkpt>
      <trkpt lat="45.16328" lon="2.82605">
        <ele>1049.6</ele>
        <time>2021-08-23T14:42:03Z</time>
      </trkpt>
      <trkpt lat="45.1633" lon="2.82619">
        <ele>1049.7</ele>
        <time>2021-08-23T14:42:05Z</time>
      </trkpt>
      <trkpt lat="45.16334" lon="2.82631">
        <ele>1049.5</ele>
        <time>2021-08-23T14:42:07Z</time>
      </trkpt>
      <trkpt lat="45.16339" lon="2.82642">
        <ele>1049.1</ele>
        <time>2021-08-23T14:42:09Z</time>
      </trkpt>
      <trkpt lat="45.16347" lon="2.82652">
        <ele>1048.5</ele>
        <time>2021-08-23T14:42:11Z</time>
      </trkpt>
      <trkpt lat="45.16354" lon="2.82664">
        <ele>1047.9</ele>
        <time>2021-08-23T14:42:13Z</time>
      </trkpt>
      <trkpt lat="45.16362" lon="2.82676">
        <ele>1047.6</ele>
        <time>2021-08-23T14:42:15Z</time>
      </trkpt>
      <trkpt lat="45.16369" lon="2.82689">
        <ele>1047.6</ele>
        <time>2021-08-23T14:42:17Z</time>
      </trkpt>
      <trkpt lat="45.16375" lon="2.82703">
        <ele>1047.7</ele>
        <time>2021-08-23T14:42:19Z</time>
      </trkpt>
      <trkpt lat="45.16381" lon="2.82715">
        <ele>1047.8</ele>
        <time>2021-08-23T14:42:21Z</time>
      </trkpt>
      <trkpt lat="45.16387" lon="2.82727">
        <ele>1048</ele>
        <time>2021-08-23T14:42:23Z</time>
      </trkpt>
      <trkpt lat="45.16391" lon="2.82737">
        <ele>1048.1</ele>
        <time>2021-08-23T14:42:25Z</time>
      </trkpt>
      <trkpt lat="45.16396" lon="2.82746">
        <ele>1048.3</ele>
        <time>2021-08-23T14:42:27Z</time>
      </trkpt>
      <trkpt lat="45.16399" lon="2.82754">
        <ele>1048.6</ele>
        <time>2021-08-23T14:42:29Z</time>
      </trkpt>
      <trkpt lat="45.16403" lon="2.82762">
        <ele>1049</ele>
        <time>2021-08-23T14:42:31Z</time>
      </trkpt>
      <trkpt lat="45.16406" lon="2.82769">
        <ele>1049.2</ele>
        <time>2021-08-23T14:42:33Z</time>
      </trkpt>
      <trkpt lat="45.16409" lon="2.82775">
        <ele>1049.5</ele>
        <time>2021-08-23T14:42:35Z</time>
      </trkpt>
      <trkpt lat="45.16412" lon="2.82781">
        <ele>1049.7</ele>
        <time>2021-08-23T14:42:37Z</time>
      </trkpt>
      <trkpt lat="45.16415" lon="2.82787">
        <ele>1049.9</ele>
        <time>2021-08-23T14:42:39Z</time>
      </trkpt>
      <trkpt lat="45.16417" lon="2.82793">
        <ele>1050.1</ele>
        <time>2021-08-23T14:42:41Z</time>
      </trkpt>
      <trkpt lat="45.1642" lon="2.82799">
        <ele>1050.4</ele>
        <time>2021-08-23T14:42:43Z</time>
      </trkpt>
      <trkpt lat="45.16422" lon="2.82805">
        <ele>1050.7</ele>
        <time>2021-08-23T14:42:45Z</time>
      </trkpt>
      <trkpt lat="45.16425" lon="2.82811">
        <ele>1051.1</ele>
        <time>2021-08-23T14:42:47Z</time>
      </trkpt>
      <trkpt lat="45.16427" lon="2.82816">
        <ele>1051.4</ele>
        <time>2021-08-23T14:42:49Z</time>
      </trkpt>
      <trkpt lat="45.1643" lon="2.82821">
        <ele>1051.6</ele>
        <time>2021-08-23T14:42:51Z</time>
      </trkpt>
      <trkpt lat="45.16432" lon="2.82827">
        <ele>1052</ele>
        <time>2021-08-23T14:42:53Z</time>
      </trkpt>
      <trkpt lat="45.16434" lon="2.82831">
        <ele>1052.2</ele>
        <time>2021-08-23T14:42:55Z</time>
      </trkpt>
      <trkpt lat="45.16437" lon="2.82837">
        <ele>1052.6</ele>
        <time>2021-08-23T14:42:57Z</time>
      </trkpt>
      <trkpt lat="45.16439" lon="2.82842">
        <ele>1053.1</ele>
        <time>2021-08-23T14:42:59Z</time>
      </trkpt>
      <trkpt lat="45.1644" lon="2.82847">
        <ele>1053.5</ele>
        <time>2021-08-23T14:43:01Z</time>
      </trkpt>
      <trkpt lat="45.16443" lon="2.82852">
        <ele>1054</ele>
        <time>2021-08-23T14:43:03Z</time>
      </trkpt>
      <trkpt lat="45.16445" lon="2.82857">
        <ele>1054.3</ele>
        <time>2021-08-23T14:43:05Z</time>
      </trkpt>
      <trkpt lat="45.16447" lon="2.82862">
        <ele>1054.7</ele>
        <time>2021-08-23T14:43:07Z</time>
      </trkpt>
      <trkpt lat="45.1645" lon="2.82867">
        <ele>1055.1</ele>
        <time>2021-08-23T14:43:09Z</time>
      </trkpt>
      <trkpt lat="45.16451" lon="2.82872">
        <ele>1055.6</ele>
        <time>2021-08-23T14:43:11Z</time>
      </trkpt>
      <trkpt lat="45.16454" lon="2.82878">
        <ele>1056</ele>
        <time>2021-08-23T14:43:13Z</time>
      </trkpt>
      <trkpt lat="45.16456" lon="2.82882">
        <ele>1056.3</ele>
        <time>2021-08-23T14:43:15Z</time>
      </trkpt>
      <trkpt lat="45.16458" lon="2.82887">
        <ele>1056.7</ele>
        <time>2021-08-23T14:43:17Z</time>
      </trkpt>
      <trkpt lat="45.16461" lon="2.82892">
        <ele>1057</ele>
        <time>2021-08-23T14:43:19Z</time>
      </trkpt>
      <trkpt lat="45.16464" lon="2.82897">
        <ele>1057.3</ele>
        <time>2021-08-23T14:43:21Z</time>
      </trkpt>
      <trkpt lat="45.16467" lon="2.82902">
        <ele>1057.6</ele>
        <time>2021-08-23T14:43:23Z</time>
      </trkpt>
      <trkpt lat="45.1647" lon="2.82905">
        <ele>1057.8</ele>
        <time>2021-08-23T14:43:25Z</time>
      </trkpt>
      <trkpt lat="45.16473" lon="2.82909">
        <ele>1058</ele>
        <time>2021-08-23T14:43:27Z</time>
      </trkpt>
      <trkpt lat="45.16476" lon="2.82914">
        <ele>1058.2</ele>
        <time>2021-08-23T14:43:29Z</time>
      </trkpt>
      <trkpt lat="45.16479" lon="2.82917">
        <ele>1058.3</ele>
        <time>2021-08-23T14:43:31Z</time>
      </trkpt>
      <trkpt lat="45.16482" lon="2.8292">
        <ele>1058.5</ele>
        <time>2021-08-23T14:43:33Z</time>
      </trkpt>
      <trkpt lat="45.16485" lon="2.82923">
        <ele>1058.6</ele>
        <time>2021-08-23T14:43:35Z</time>
      </trkpt>
      <trkpt lat="45.16488" lon="2.82926">
        <ele>1058.7</ele>
        <time>2021-08-23T14:43:37Z</time>
      </trkpt>
      <trkpt lat="45.16491" lon="2.82929">
        <ele>1058.8</ele>
        <time>2021-08-23T14:43:39Z</time>
      </trkpt>
      <trkpt lat="45.16494" lon="2.82932">
        <ele>1058.9</ele>
        <time>2021-08-23T14:43:41Z</time>
      </trkpt>
      <trkpt lat="45.16498" lon="2.82935">
        <ele>1058.9</ele>
        <time>2021-08-23T14:43:43Z</time>
      </trkpt>
      <trkpt lat="45.16501" lon="2.82938">
        <ele>1058.9</ele>
        <time>2021-08-23T14:43:45Z</time>
      </trkpt>
      <trkpt lat="45.16505" lon="2.8294">
        <ele>1058.9</ele>
        <time>2021-08-23T14:43:47Z</time>
      </trkpt>
      <trkpt lat="45.16509" lon="2.82943">
        <ele>1058.9</ele>
        <time>2021-08-23T14:43:49Z</time>
      </trkpt>
      <trkpt lat="45.16512" lon="2.82945">
        <ele>1058.9</ele>
        <time>2021-08-23T14:43:51Z</time>
      </trkpt>
      <trkpt lat="45.16516" lon="2.82948">
        <ele>1058.9</ele>
        <time>2021-08-23T14:43:53Z</time>
      </trkpt>
      <trkpt lat="45.16519" lon="2.82951">
        <ele>1058.9</ele>
        <time>2021-08-23T14:43:55Z</time>
      </trkpt>
      <trkpt lat="45.16522" lon="2.82955">
        <ele>1059.1</ele>
        <time>2021-08-23T14:43:57Z</time>
      </trkpt>
      <trkpt lat="45.16526" lon="2.82958">
        <ele>1059.2</ele>
        <time>2021-08-23T14:43:59Z</time>
      </trkpt>
      <trkpt lat="45.16528" lon="2.82963">
        <ele>1059.4</ele>
        <time>2021-08-23T14:44:01Z</time>
      </trkpt>
      <trkpt lat="45.16531" lon="2.82968">
        <ele>1059.7</ele>
        <time>2021-08-23T14:44:03Z</time>
      </trkpt>
      <trkpt lat="45.16534" lon="2.82972">
        <ele>1059.9</ele>
        <time>2021-08-23T14:44:05Z</time>
      </trkpt>
      <trkpt lat="45.16537" lon="2.82976">
        <ele>1060.1</ele>
        <time>2021-08-23T14:44:07Z</time>
      </trkpt>
      <trkpt lat="45.1654" lon="2.82981">
        <ele>1060.3</ele>
        <time>2021-08-23T14:44:09Z</time>
      </trkpt>
      <trkpt lat="45.16543" lon="2.82987">
        <ele>1060.6</ele>
        <time>2021-08-23T14:44:11Z</time>
      </trkpt>
      <trkpt lat="45.16546" lon="2.82992">
        <ele>1060.9</ele>
        <time>2021-08-23T14:44:13Z</time>
      </trkpt>
      <trkpt lat="45.16548" lon="2.82997">
        <ele>1061.3</ele>
        <time>2021-08-23T14:44:15Z</time>
      </trkpt>
      <trkpt lat="45.1655" lon="2.83003">
        <ele>1061.7</ele>
        <time>2021-08-23T14:44:17Z</time>
      </trkpt>
      <trkpt lat="45.16552" lon="2.83009">
        <ele>1062.1</ele>
        <time>2021-08-23T14:44:19Z</time>
      </trkpt>
      <trkpt lat="45.16555" lon="2.83014">
        <ele>1062.3</ele>
        <time>2021-08-23T14:44:21Z</time>
      </trkpt>
      <trkpt lat="45.16557" lon="2.83019">
        <ele>1062.7</ele>
        <time>2021-08-23T14:44:23Z</time>
      </trkpt>
      <trkpt lat="45.16559" lon="2.83025">
        <ele>1063.1</ele>
        <time>2021-08-23T14:44:25Z</time>
      </trkpt>
      <trkpt lat="45.16561" lon="2.83031">
        <ele>1063.5</ele>
        <time>2021-08-23T14:44:27Z</time>
      </trkpt>
      <trkpt lat="45.16563" lon="2.83036">
        <ele>1063.8</ele>
        <time>2021-08-23T14:44:29Z</time>
      </trkpt>
      <trkpt lat="45.16565" lon="2.83042">
        <ele>1064.2</ele>
        <time>2021-08-23T14:44:31Z</time>
      </trkpt>
      <trkpt lat="45.16566" lon="2.83047">
        <ele>1064.5</ele>
        <time>2021-08-23T14:44:33Z</time>
      </trkpt>
      <trkpt lat="45.16568" lon="2.83052">
        <ele>1064.9</ele>
        <time>2021-08-23T14:44:35Z</time>
      </trkpt>
      <trkpt lat="45.16569" lon="2.83057">
        <ele>1065.2</ele>
        <time>2021-08-23T14:44:37Z</time>
      </trkpt>
      <trkpt lat="45.1657" lon="2.83063">
        <ele>1065.6</ele>
        <time>2021-08-23T14:44:39Z</time>
      </trkpt>
      <trkpt lat="45.16571" lon="2.83068">
        <ele>1066</ele>
        <time>2021-08-23T14:44:41Z</time>
      </trkpt>
      <trkpt lat="45.16572" lon="2.83073">
        <ele>1066.3</ele>
        <time>2021-08-23T14:44:43Z</time>
      </trkpt>
      <trkpt lat="45.16573" lon="2.83078">
        <ele>1066.7</ele>
        <time>2021-08-23T14:44:45Z</time>
      </trkpt>
      <trkpt lat="45.16574" lon="2.83083">
        <ele>1067</ele>
        <time>2021-08-23T14:44:47Z</time>
      </trkpt>
      <trkpt lat="45.16575" lon="2.83088">
        <ele>1067.2</ele>
        <time>2021-08-23T14:44:49Z</time>
      </trkpt>
      <trkpt lat="45.16576" lon="2.83093">
        <ele>1067.5</ele>
        <time>2021-08-23T14:44:51Z</time>
      </trkpt>
      <trkpt lat="45.16577" lon="2.83098">
        <ele>1067.8</ele>
        <time>2021-08-23T14:44:53Z</time>
      </trkpt>
      <trkpt lat="45.16578" lon="2.83103">
        <ele>1068</ele>
        <time>2021-08-23T14:44:55Z</time>
      </trkpt>
      <trkpt lat="45.16579" lon="2.83108">
        <ele>1068.2</ele>
        <time>2021-08-23T14:44:57Z</time>
      </trkpt>
      <trkpt lat="45.1658" lon="2.83112">
        <ele>1068.5</ele>
        <time>2021-08-23T14:44:59Z</time>
      </trkpt>
      <trkpt lat="45.16582" lon="2.83117">
        <ele>1068.6</ele>
        <time>2021-08-23T14:45:01Z</time>
      </trkpt>
      <trkpt lat="45.16582" lon="2.83121">
        <ele>1068.9</ele>
        <time>2021-08-23T14:45:03Z</time>
      </trkpt>
      <trkpt lat="45.16583" lon="2.83126">
        <ele>1069.1</ele>
        <time>2021-08-23T14:45:05Z</time>
      </trkpt>
      <trkpt lat="45.16584" lon="2.83131">
        <ele>1069.3</ele>
        <time>2021-08-23T14:45:07Z</time>
      </trkpt>
      <trkpt lat="45.16586" lon="2.83136">
        <ele>1069.4</ele>
        <time>2021-08-23T14:45:09Z</time>
      </trkpt>
      <trkpt lat="45.16587" lon="2.8314">
        <ele>1069.6</ele>
        <time>2021-08-23T14:45:11Z</time>
      </trkpt>
      <trkpt lat="45.16589" lon="2.83144">
        <ele>1069.7</ele>
        <time>2021-08-23T14:45:13Z</time>
      </trkpt>
      <trkpt lat="45.16589" lon="2.83149">
        <ele>1070</ele>
        <time>2021-08-23T14:45:15Z</time>
      </trkpt>
      <trkpt lat="45.16589" lon="2.83154">
        <ele>1070.3</ele>
        <time>2021-08-23T14:45:17Z</time>
      </trkpt>
      <trkpt lat="45.16591" lon="2.83159">
        <ele>1070.5</ele>
        <time>2021-08-23T14:45:19Z</time>
      </trkpt>
      <trkpt lat="45.16592" lon="2.83164">
        <ele>1070.7</ele>
        <time>2021-08-23T14:45:21Z</time>
      </trkpt>
      <trkpt lat="45.16593" lon="2.83169">
        <ele>1071</ele>
        <time>2021-08-23T14:45:23Z</time>
      </trkpt>
      <trkpt lat="45.16594" lon="2.83174">
        <ele>1071.5</ele>
        <time>2021-08-23T14:45:25Z</time>
      </trkpt>
      <trkpt lat="45.16595" lon="2.83179">
        <ele>1072</ele>
        <time>2021-08-23T14:45:27Z</time>
      </trkpt>
      <trkpt lat="45.16596" lon="2.83183">
        <ele>1072.4</ele>
        <time>2021-08-23T14:45:29Z</time>
      </trkpt>
      <trkpt lat="45.16598" lon="2.83188">
        <ele>1072.6</ele>
        <time>2021-08-23T14:45:31Z</time>
      </trkpt>
      <trkpt lat="45.16599" lon="2.83193">
        <ele>1073.2</ele>
        <time>2021-08-23T14:45:33Z</time>
      </trkpt>
      <trkpt lat="45.16599" lon="2.83197">
        <ele>1073.7</ele>
        <time>2021-08-23T14:45:35Z</time>
      </trkpt>
      <trkpt lat="45.16601" lon="2.83202">
        <ele>1074.1</ele>
        <time>2021-08-23T14:45:37Z</time>
      </trkpt>
      <trkpt lat="45.16602" lon="2.83207">
        <ele>1074.5</ele>
        <time>2021-08-23T14:45:39Z</time>
      </trkpt>
      <trkpt lat="45.16603" lon="2.83212">
        <ele>1074.9</ele>
        <time>2021-08-23T14:45:41Z</time>
      </trkpt>
      <trkpt lat="45.16605" lon="2.83216">
        <ele>1075.2</ele>
        <time>2021-08-23T14:45:43Z</time>
      </trkpt>
      <trkpt lat="45.16606" lon="2.83221">
        <ele>1075.6</ele>
        <time>2021-08-23T14:45:45Z</time>
      </trkpt>
      <trkpt lat="45.16608" lon="2.83225">
        <ele>1075.8</ele>
        <time>2021-08-23T14:45:47Z</time>
      </trkpt>
      <trkpt lat="45.16609" lon="2.83229">
        <ele>1076.1</ele>
        <time>2021-08-23T14:45:49Z</time>
      </trkpt>
      <trkpt lat="45.16611" lon="2.83234">
        <ele>1076.4</ele>
        <time>2021-08-23T14:45:51Z</time>
      </trkpt>
      <trkpt lat="45.16613" lon="2.83238">
        <ele>1076.6</ele>
        <time>2021-08-23T14:45:53Z</time>
      </trkpt>
      <trkpt lat="45.16615" lon="2.83242">
        <ele>1076.8</ele>
        <time>2021-08-23T14:45:55Z</time>
      </trkpt>
      <trkpt lat="45.16616" lon="2.83247">
        <ele>1077.1</ele>
        <time>2021-08-23T14:45:57Z</time>
      </trkpt>
      <trkpt lat="45.16618" lon="2.83251">
        <ele>1077.3</ele>
        <time>2021-08-23T14:45:59Z</time>
      </trkpt>
      <trkpt lat="45.1662" lon="2.83255">
        <ele>1077.6</ele>
        <time>2021-08-23T14:46:01Z</time>
      </trkpt>
      <trkpt lat="45.16622" lon="2.8326">
        <ele>1077.8</ele>
        <time>2021-08-23T14:46:03Z</time>
      </trkpt>
      <trkpt lat="45.16624" lon="2.83264">
        <ele>1078.1</ele>
        <time>2021-08-23T14:46:05Z</time>
      </trkpt>
      <trkpt lat="45.16626" lon="2.83268">
        <ele>1078.4</ele>
        <time>2021-08-23T14:46:07Z</time>
      </trkpt>
      <trkpt lat="45.16628" lon="2.83273">
        <ele>1078.7</ele>
        <time>2021-08-23T14:46:09Z</time>
      </trkpt>
      <trkpt lat="45.1663" lon="2.83277">
        <ele>1079</ele>
        <time>2021-08-23T14:46:11Z</time>
      </trkpt>
      <trkpt lat="45.16632" lon="2.83282">
        <ele>1079.3</ele>
        <time>2021-08-23T14:46:13Z</time>
      </trkpt>
      <trkpt lat="45.16634" lon="2.83286">
        <ele>1079.5</ele>
        <time>2021-08-23T14:46:15Z</time>
      </trkpt>
      <trkpt lat="45.16637" lon="2.83291">
        <ele>1079.7</ele>
        <time>2021-08-23T14:46:17Z</time>
      </trkpt>
      <trkpt lat="45.16639" lon="2.83296">
        <ele>1080</ele>
        <time>2021-08-23T14:46:19Z</time>
      </trkpt>
      <trkpt lat="45.16641" lon="2.83301">
        <ele>1080.2</ele>
        <time>2021-08-23T14:46:21Z</time>
      </trkpt>
      <trkpt lat="45.16643" lon="2.83305">
        <ele>1080.4</ele>
        <time>2021-08-23T14:46:23Z</time>
      </trkpt>
      <trkpt lat="45.16645" lon="2.8331">
        <ele>1080.5</ele>
        <time>2021-08-23T14:46:25Z</time>
      </trkpt>
      <trkpt lat="45.16647" lon="2.83315">
        <ele>1080.8</ele>
        <time>2021-08-23T14:46:27Z</time>
      </trkpt>
      <trkpt lat="45.16649" lon="2.8332">
        <ele>1081.1</ele>
        <time>2021-08-23T14:46:29Z</time>
      </trkpt>
      <trkpt lat="45.16651" lon="2.83325">
        <ele>1081.2</ele>
        <time>2021-08-23T14:46:31Z</time>
      </trkpt>
      <trkpt lat="45.16654" lon="2.83329">
        <ele>1081.3</ele>
        <time>2021-08-23T14:46:33Z</time>
      </trkpt>
      <trkpt lat="45.16656" lon="2.83334">
        <ele>1081.3</ele>
        <time>2021-08-23T14:46:35Z</time>
      </trkpt>
      <trkpt lat="45.16658" lon="2.83339">
        <ele>1081.5</ele>
        <time>2021-08-23T14:46:37Z</time>
      </trkpt>
      <trkpt lat="45.1666" lon="2.83344">
        <ele>1081.7</ele>
        <time>2021-08-23T14:46:39Z</time>
      </trkpt>
      <trkpt lat="45.16662" lon="2.83348">
        <ele>1081.8</ele>
        <time>2021-08-23T14:46:41Z</time>
      </trkpt>
      <trkpt lat="45.16665" lon="2.83353">
        <ele>1081.8</ele>
        <time>2021-08-23T14:46:43Z</time>
      </trkpt>
      <trkpt lat="45.16667" lon="2.83357">
        <ele>1081.8</ele>
        <time>2021-08-23T14:46:45Z</time>
      </trkpt>
      <trkpt lat="45.1667" lon="2.83362">
        <ele>1082</ele>
        <time>2021-08-23T14:46:47Z</time>
      </trkpt>
      <trkpt lat="45.16672" lon="2.83366">
        <ele>1082.2</ele>
        <time>2021-08-23T14:46:49Z</time>
      </trkpt>
      <trkpt lat="45.16674" lon="2.83371">
        <ele>1082.5</ele>
        <time>2021-08-23T14:46:51Z</time>
      </trkpt>
      <trkpt lat="45.16676" lon="2.83375">
        <ele>1082.8</ele>
        <time>2021-08-23T14:46:53Z</time>
      </trkpt>
      <trkpt lat="45.16678" lon="2.8338">
        <ele>1083</ele>
        <time>2021-08-23T14:46:55Z</time>
      </trkpt>
      <trkpt lat="45.1668" lon="2.83385">
        <ele>1083.3</ele>
        <time>2021-08-23T14:46:57Z</time>
      </trkpt>
      <trkpt lat="45.16682" lon="2.8339">
        <ele>1083.5</ele>
        <time>2021-08-23T14:46:59Z</time>
      </trkpt>
      <trkpt lat="45.16685" lon="2.83395">
        <ele>1083.8</ele>
        <time>2021-08-23T14:47:01Z</time>
      </trkpt>
      <trkpt lat="45.16687" lon="2.83399">
        <ele>1084</ele>
        <time>2021-08-23T14:47:03Z</time>
      </trkpt>
      <trkpt lat="45.16689" lon="2.83404">
        <ele>1084.2</ele>
        <time>2021-08-23T14:47:05Z</time>
      </trkpt>
      <trkpt lat="45.16692" lon="2.83409">
        <ele>1084.4</ele>
        <time>2021-08-23T14:47:07Z</time>
      </trkpt>
      <trkpt lat="45.16694" lon="2.83413">
        <ele>1084.6</ele>
        <time>2021-08-23T14:47:09Z</time>
      </trkpt>
      <trkpt lat="45.16697" lon="2.83417">
        <ele>1084.8</ele>
        <time>2021-08-23T14:47:11Z</time>
      </trkpt>
      <trkpt lat="45.16699" lon="2.83421">
        <ele>1084.8</ele>
        <time>2021-08-23T14:47:13Z</time>
      </trkpt>
      <trkpt lat="45.16702" lon="2.83425">
        <ele>1084.9</ele>
        <time>2021-08-23T14:47:15Z</time>
      </trkpt>
      <trkpt lat="45.16705" lon="2.83428">
        <ele>1084.8</ele>
        <time>2021-08-23T14:47:17Z</time>
      </trkpt>
      <trkpt lat="45.16708" lon="2.83432">
        <ele>1084.9</ele>
        <time>2021-08-23T14:47:19Z</time>
      </trkpt>
      <trkpt lat="45.1671" lon="2.83436">
        <ele>1085</ele>
        <time>2021-08-23T14:47:21Z</time>
      </trkpt>
      <trkpt lat="45.16714" lon="2.83439">
        <ele>1084.8</ele>
        <time>2021-08-23T14:47:23Z</time>
      </trkpt>
      <trkpt lat="45.16717" lon="2.83443">
        <ele>1084.8</ele>
        <time>2021-08-23T14:47:25Z</time>
      </trkpt>
      <trkpt lat="45.16719" lon="2.83445">
        <ele>1084.7</ele>
        <time>2021-08-23T14:47:27Z</time>
      </trkpt>
      <trkpt lat="45.16722" lon="2.83447">
        <ele>1084.6</ele>
        <time>2021-08-23T14:47:29Z</time>
      </trkpt>
      <trkpt lat="45.16725" lon="2.83451">
        <ele>1084.7</ele>
        <time>2021-08-23T14:47:31Z</time>
      </trkpt>
      <trkpt lat="45.16727" lon="2.83455">
        <ele>1084.7</ele>
        <time>2021-08-23T14:47:33Z</time>
      </trkpt>
      <trkpt lat="45.1673" lon="2.83459">
        <ele>1085</ele>
        <time>2021-08-23T14:47:35Z</time>
      </trkpt>
      <trkpt lat="45.16731" lon="2.83464">
        <ele>1085.2</ele>
        <time>2021-08-23T14:47:37Z</time>
      </trkpt>
      <trkpt lat="45.16732" lon="2.83468">
        <ele>1085.7</ele>
        <time>2021-08-23T14:47:39Z</time>
      </trkpt>
      <trkpt lat="45.16732" lon="2.83473">
        <ele>1086.2</ele>
        <time>2021-08-23T14:47:41Z</time>
      </trkpt>
      <trkpt lat="45.16731" lon="2.83478">
        <ele>1087</ele>
        <time>2021-08-23T14:47:43Z</time>
      </trkpt>
      <trkpt lat="45.16729" lon="2.83483">
        <ele>1087.8</ele>
        <time>2021-08-23T14:47:45Z</time>
      </trkpt>
      <trkpt lat="45.16726" lon="2.83486">
        <ele>1088.5</ele>
        <time>2021-08-23T14:47:47Z</time>
      </trkpt>
      <trkpt lat="45.16723" lon="2.83487">
        <ele>1089.1</ele>
        <time>2021-08-23T14:47:49Z</time>
      </trkpt>
      <trkpt lat="45.1672" lon="2.83487">
        <ele>1089.5</ele>
        <time>2021-08-23T14:47:51Z</time>
      </trkpt>
      <trkpt lat="45.16717" lon="2.83487">
        <ele>1089.8</ele>
        <time>2021-08-23T14:47:53Z</time>
      </trkpt>
      <trkpt lat="45.16717" lon="2.83486">
        <ele>1089.8</ele>
        <time>2021-08-23T14:47:55Z</time>
      </trkpt>
      <trkpt lat="45.16717" lon="2.83486">
        <ele>1089.7</ele>
        <time>2021-08-23T14:47:57Z</time>
      </trkpt>
      <trkpt lat="45.16717" lon="2.83486">
        <ele>1089.8</ele>
        <time>2021-08-23T14:47:59Z</time>
      </trkpt>
      <trkpt lat="45.16717" lon="2.83486">
        <ele>1089.8</ele>
        <time>2021-08-23T14:48:01Z</time>
      </trkpt>
      <trkpt lat="45.16717" lon="2.83486">
        <ele>1089.8</ele>
        <time>2021-08-23T14:48:03Z</time>
      </trkpt>
      <trkpt lat="45.16738" lon="2.83517">
        <ele>1090.5</ele>
        <time>2021-08-23T14:53:41Z</time>
      </trkpt>
      <trkpt lat="45.16745" lon="2.83523">
        <ele>1090.2</ele>
        <time>2021-08-23T14:53:43Z</time>
      </trkpt>
      <trkpt lat="45.16752" lon="2.83528">
        <ele>1089.8</ele>
        <time>2021-08-23T14:53:45Z</time>
      </trkpt>
      <trkpt lat="45.1676" lon="2.83534">
        <ele>1089.4</ele>
        <time>2021-08-23T14:53:47Z</time>
      </trkpt>
      <trkpt lat="45.16768" lon="2.8354">
        <ele>1089.1</ele>
        <time>2021-08-23T14:53:49Z</time>
      </trkpt>
      <trkpt lat="45.16776" lon="2.83547">
        <ele>1088.8</ele>
        <time>2021-08-23T14:53:51Z</time>
      </trkpt>
      <trkpt lat="45.16784" lon="2.83553">
        <ele>1088.4</ele>
        <time>2021-08-23T14:53:53Z</time>
      </trkpt>
      <trkpt lat="45.16793" lon="2.83558">
        <ele>1088</ele>
        <time>2021-08-23T14:53:55Z</time>
      </trkpt>
      <trkpt lat="45.16803" lon="2.83565">
        <ele>1087.5</ele>
        <time>2021-08-23T14:53:57Z</time>
      </trkpt>
      <trkpt lat="45.16812" lon="2.83571">
        <ele>1087.1</ele>
        <time>2021-08-23T14:53:59Z</time>
      </trkpt>
      <trkpt lat="45.16823" lon="2.83577">
        <ele>1086.5</ele>
        <time>2021-08-23T14:54:01Z</time>
      </trkpt>
      <trkpt lat="45.16834" lon="2.83583">
        <ele>1085.9</ele>
        <time>2021-08-23T14:54:03Z</time>
      </trkpt>
      <trkpt lat="45.16844" lon="2.83591">
        <ele>1085.7</ele>
        <time>2021-08-23T14:54:05Z</time>
      </trkpt>
      <trkpt lat="45.1685" lon="2.83607">
        <ele>1087</ele>
        <time>2021-08-23T14:54:07Z</time>
      </trkpt>
      <trkpt lat="45.16856" lon="2.83618">
        <ele>1087.8</ele>
        <time>2021-08-23T14:54:09Z</time>
      </trkpt>
      <trkpt lat="45.16863" lon="2.83622">
        <ele>1087.5</ele>
        <time>2021-08-23T14:54:11Z</time>
      </trkpt>
      <trkpt lat="45.16869" lon="2.83624">
        <ele>1087.2</ele>
        <time>2021-08-23T14:54:13Z</time>
      </trkpt>
      <trkpt lat="45.16874" lon="2.83628">
        <ele>1087.3</ele>
        <time>2021-08-23T14:54:15Z</time>
      </trkpt>
      <trkpt lat="45.16878" lon="2.83631">
        <ele>1087.3</ele>
        <time>2021-08-23T14:54:17Z</time>
      </trkpt>
      <trkpt lat="45.16881" lon="2.83634">
        <ele>1087.4</ele>
        <time>2021-08-23T14:54:19Z</time>
      </trkpt>
      <trkpt lat="45.16884" lon="2.83639">
        <ele>1087.8</ele>
        <time>2021-08-23T14:54:21Z</time>
      </trkpt>
      <trkpt lat="45.16887" lon="2.83642">
        <ele>1088</ele>
        <time>2021-08-23T14:54:23Z</time>
      </trkpt>
      <trkpt lat="45.16889" lon="2.83647">
        <ele>1088.4</ele>
        <time>2021-08-23T14:54:25Z</time>
      </trkpt>
      <trkpt lat="45.16891" lon="2.83651">
        <ele>1088.8</ele>
        <time>2021-08-23T14:54:27Z</time>
      </trkpt>
      <trkpt lat="45.16892" lon="2.83653">
        <ele>1089</ele>
        <time>2021-08-23T14:54:29Z</time>
      </trkpt>
      <trkpt lat="45.16893" lon="2.83655">
        <ele>1089.2</ele>
        <time>2021-08-23T14:54:31Z</time>
      </trkpt>
      <trkpt lat="45.16895" lon="2.83658">
        <ele>1089.5</ele>
        <time>2021-08-23T14:54:33Z</time>
      </trkpt>
      <trkpt lat="45.16897" lon="2.83662">
        <ele>1090</ele>
        <time>2021-08-23T14:54:35Z</time>
      </trkpt>
      <trkpt lat="45.16898" lon="2.83666">
        <ele>1090.4</ele>
        <time>2021-08-23T14:54:37Z</time>
      </trkpt>
      <trkpt lat="45.169" lon="2.8367">
        <ele>1090.7</ele>
        <time>2021-08-23T14:54:39Z</time>
      </trkpt>
      <trkpt lat="45.16901" lon="2.83674">
        <ele>1091</ele>
        <time>2021-08-23T14:54:41Z</time>
      </trkpt>
      <trkpt lat="45.16903" lon="2.83678">
        <ele>1091.3</ele>
        <time>2021-08-23T14:54:43Z</time>
      </trkpt>
      <trkpt lat="45.16904" lon="2.83683">
        <ele>1091.6</ele>
        <time>2021-08-23T14:54:45Z</time>
      </trkpt>
      <trkpt lat="45.16905" lon="2.83687">
        <ele>1091.9</ele>
        <time>2021-08-23T14:54:47Z</time>
      </trkpt>
      <trkpt lat="45.16907" lon="2.8369">
        <ele>1092.1</ele>
        <time>2021-08-23T14:54:49Z</time>
      </trkpt>
      <trkpt lat="45.16908" lon="2.83694">
        <ele>1092.4</ele>
        <time>2021-08-23T14:54:51Z</time>
      </trkpt>
      <trkpt lat="45.16909" lon="2.83699">
        <ele>1092.7</ele>
        <time>2021-08-23T14:54:53Z</time>
      </trkpt>
      <trkpt lat="45.1691" lon="2.83703">
        <ele>1093</ele>
        <time>2021-08-23T14:54:55Z</time>
      </trkpt>
      <trkpt lat="45.16911" lon="2.83707">
        <ele>1093.3</ele>
        <time>2021-08-23T14:54:57Z</time>
      </trkpt>
      <trkpt lat="45.16912" lon="2.83711">
        <ele>1093.7</ele>
        <time>2021-08-23T14:54:59Z</time>
      </trkpt>
      <trkpt lat="45.16912" lon="2.83715">
        <ele>1094</ele>
        <time>2021-08-23T14:55:01Z</time>
      </trkpt>
      <trkpt lat="45.16913" lon="2.8372">
        <ele>1094.4</ele>
        <time>2021-08-23T14:55:03Z</time>
      </trkpt>
      <trkpt lat="45.16914" lon="2.83724">
        <ele>1094.8</ele>
        <time>2021-08-23T14:55:05Z</time>
      </trkpt>
      <trkpt lat="45.16914" lon="2.83729">
        <ele>1095.2</ele>
        <time>2021-08-23T14:55:07Z</time>
      </trkpt>
      <trkpt lat="45.16914" lon="2.83733">
        <ele>1095.6</ele>
        <time>2021-08-23T14:55:09Z</time>
      </trkpt>
      <trkpt lat="45.16914" lon="2.83738">
        <ele>1096</ele>
        <time>2021-08-23T14:55:11Z</time>
      </trkpt>
      <trkpt lat="45.16913" lon="2.83742">
        <ele>1096.5</ele>
        <time>2021-08-23T14:55:13Z</time>
      </trkpt>
      <trkpt lat="45.16912" lon="2.83747">
        <ele>1097.1</ele>
        <time>2021-08-23T14:55:15Z</time>
      </trkpt>
      <trkpt lat="45.16911" lon="2.8375">
        <ele>1097.5</ele>
        <time>2021-08-23T14:55:17Z</time>
      </trkpt>
      <trkpt lat="45.16911" lon="2.83755">
        <ele>1098.2</ele>
        <time>2021-08-23T14:55:19Z</time>
      </trkpt>
      <trkpt lat="45.16909" lon="2.83759">
        <ele>1098.9</ele>
        <time>2021-08-23T14:55:21Z</time>
      </trkpt>
      <trkpt lat="45.16909" lon="2.83764">
        <ele>1099.6</ele>
        <time>2021-08-23T14:55:23Z</time>
      </trkpt>
      <trkpt lat="45.16908" lon="2.83768">
        <ele>1100.3</ele>
        <time>2021-08-23T14:55:25Z</time>
      </trkpt>
      <trkpt lat="45.16908" lon="2.83773">
        <ele>1100.9</ele>
        <time>2021-08-23T14:55:27Z</time>
      </trkpt>
      <trkpt lat="45.16909" lon="2.83777">
        <ele>1101.5</ele>
        <time>2021-08-23T14:55:29Z</time>
      </trkpt>
      <trkpt lat="45.1691" lon="2.83781">
        <ele>1102</ele>
        <time>2021-08-23T14:55:31Z</time>
      </trkpt>
      <trkpt lat="45.16912" lon="2.83785">
        <ele>1102.4</ele>
        <time>2021-08-23T14:55:33Z</time>
      </trkpt>
      <trkpt lat="45.16913" lon="2.83789">
        <ele>1102.8</ele>
        <time>2021-08-23T14:55:35Z</time>
      </trkpt>
      <trkpt lat="45.16916" lon="2.83792">
        <ele>1103.2</ele>
        <time>2021-08-23T14:55:37Z</time>
      </trkpt>
      <trkpt lat="45.16918" lon="2.83796">
        <ele>1103.5</ele>
        <time>2021-08-23T14:55:39Z</time>
      </trkpt>
      <trkpt lat="45.1692" lon="2.83798">
        <ele>1103.8</ele>
        <time>2021-08-23T14:55:41Z</time>
      </trkpt>
      <trkpt lat="45.16923" lon="2.83801">
        <ele>1104.1</ele>
        <time>2021-08-23T14:55:43Z</time>
      </trkpt>
      <trkpt lat="45.16925" lon="2.83804">
        <ele>1104.5</ele>
        <time>2021-08-23T14:55:45Z</time>
      </trkpt>
      <trkpt lat="45.16928" lon="2.83807">
        <ele>1104.8</ele>
        <time>2021-08-23T14:55:47Z</time>
      </trkpt>
      <trkpt lat="45.16931" lon="2.83809">
        <ele>1105</ele>
        <time>2021-08-23T14:55:49Z</time>
      </trkpt>
      <trkpt lat="45.16934" lon="2.83811">
        <ele>1105.2</ele>
        <time>2021-08-23T14:55:51Z</time>
      </trkpt>
      <trkpt lat="45.16936" lon="2.83813">
        <ele>1105.3</ele>
        <time>2021-08-23T14:55:53Z</time>
      </trkpt>
      <trkpt lat="45.16939" lon="2.83814">
        <ele>1105.5</ele>
        <time>2021-08-23T14:55:55Z</time>
      </trkpt>
      <trkpt lat="45.16943" lon="2.83816">
        <ele>1105.6</ele>
        <time>2021-08-23T14:55:57Z</time>
      </trkpt>
      <trkpt lat="45.16946" lon="2.83817">
        <ele>1105.8</ele>
        <time>2021-08-23T14:55:59Z</time>
      </trkpt>
      <trkpt lat="45.16949" lon="2.83818">
        <ele>1105.8</ele>
        <time>2021-08-23T14:56:01Z</time>
      </trkpt>
      <trkpt lat="45.16952" lon="2.8382">
        <ele>1105.9</ele>
        <time>2021-08-23T14:56:03Z</time>
      </trkpt>
      <trkpt lat="45.16955" lon="2.83821">
        <ele>1106.1</ele>
        <time>2021-08-23T14:56:05Z</time>
      </trkpt>
      <trkpt lat="45.16958" lon="2.83823">
        <ele>1106.2</ele>
        <time>2021-08-23T14:56:07Z</time>
      </trkpt>
      <trkpt lat="45.16962" lon="2.83824">
        <ele>1106.4</ele>
        <time>2021-08-23T14:56:09Z</time>
      </trkpt>
      <trkpt lat="45.16965" lon="2.83826">
        <ele>1106.6</ele>
        <time>2021-08-23T14:56:11Z</time>
      </trkpt>
      <trkpt lat="45.16967" lon="2.83827">
        <ele>1106.7</ele>
        <time>2021-08-23T14:56:13Z</time>
      </trkpt>
      <trkpt lat="45.16971" lon="2.83828">
        <ele>1106.8</ele>
        <time>2021-08-23T14:56:15Z</time>
      </trkpt>
      <trkpt lat="45.16974" lon="2.83829">
        <ele>1106.9</ele>
        <time>2021-08-23T14:56:17Z</time>
      </trkpt>
      <trkpt lat="45.16977" lon="2.8383">
        <ele>1107</ele>
        <time>2021-08-23T14:56:19Z</time>
      </trkpt>
      <trkpt lat="45.1698" lon="2.83831">
        <ele>1107.1</ele>
        <time>2021-08-23T14:56:21Z</time>
      </trkpt>
      <trkpt lat="45.16983" lon="2.83833">
        <ele>1107.3</ele>
        <time>2021-08-23T14:56:23Z</time>
      </trkpt>
      <trkpt lat="45.16986" lon="2.83835">
        <ele>1107.6</ele>
        <time>2021-08-23T14:56:25Z</time>
      </trkpt>
      <trkpt lat="45.16989" lon="2.83835">
        <ele>1107.7</ele>
        <time>2021-08-23T14:56:27Z</time>
      </trkpt>
      <trkpt lat="45.16992" lon="2.83837">
        <ele>1107.8</ele>
        <time>2021-08-23T14:56:29Z</time>
      </trkpt>
      <trkpt lat="45.16995" lon="2.83839">
        <ele>1108.1</ele>
        <time>2021-08-23T14:56:31Z</time>
      </trkpt>
      <trkpt lat="45.16998" lon="2.83841">
        <ele>1108.5</ele>
        <time>2021-08-23T14:56:33Z</time>
      </trkpt>
      <trkpt lat="45.17" lon="2.83844">
        <ele>1108.8</ele>
        <time>2021-08-23T14:56:35Z</time>
      </trkpt>
      <trkpt lat="45.17003" lon="2.83846">
        <ele>1109</ele>
        <time>2021-08-23T14:56:37Z</time>
      </trkpt>
      <trkpt lat="45.17006" lon="2.83849">
        <ele>1109.2</ele>
        <time>2021-08-23T14:56:39Z</time>
      </trkpt>
      <trkpt lat="45.17009" lon="2.83851">
        <ele>1109.4</ele>
        <time>2021-08-23T14:56:41Z</time>
      </trkpt>
      <trkpt lat="45.17011" lon="2.83855">
        <ele>1109.9</ele>
        <time>2021-08-23T14:56:43Z</time>
      </trkpt>
      <trkpt lat="45.17013" lon="2.83858">
        <ele>1110.2</ele>
        <time>2021-08-23T14:56:45Z</time>
      </trkpt>
      <trkpt lat="45.17014" lon="2.83862">
        <ele>1110.8</ele>
        <time>2021-08-23T14:56:47Z</time>
      </trkpt>
      <trkpt lat="45.17015" lon="2.83866">
        <ele>1111.4</ele>
        <time>2021-08-23T14:56:49Z</time>
      </trkpt>
      <trkpt lat="45.17017" lon="2.8387">
        <ele>1112</ele>
        <time>2021-08-23T14:56:51Z</time>
      </trkpt>
      <trkpt lat="45.17019" lon="2.83874">
        <ele>1112.5</ele>
        <time>2021-08-23T14:56:53Z</time>
      </trkpt>
      <trkpt lat="45.1702" lon="2.83878">
        <ele>1113</ele>
        <time>2021-08-23T14:56:55Z</time>
      </trkpt>
      <trkpt lat="45.17022" lon="2.83882">
        <ele>1113.4</ele>
        <time>2021-08-23T14:56:57Z</time>
      </trkpt>
      <trkpt lat="45.17024" lon="2.83885">
        <ele>1113.9</ele>
        <time>2021-08-23T14:56:59Z</time>
      </trkpt>
      <trkpt lat="45.17025" lon="2.8389">
        <ele>1114.4</ele>
        <time>2021-08-23T14:57:01Z</time>
      </trkpt>
      <trkpt lat="45.17027" lon="2.83894">
        <ele>1114.9</ele>
        <time>2021-08-23T14:57:03Z</time>
      </trkpt>
      <trkpt lat="45.17029" lon="2.83897">
        <ele>1115.2</ele>
        <time>2021-08-23T14:57:05Z</time>
      </trkpt>
      <trkpt lat="45.17031" lon="2.83901">
        <ele>1115.7</ele>
        <time>2021-08-23T14:57:07Z</time>
      </trkpt>
      <trkpt lat="45.17033" lon="2.83905">
        <ele>1116.1</ele>
        <time>2021-08-23T14:57:09Z</time>
      </trkpt>
      <trkpt lat="45.17035" lon="2.83908">
        <ele>1116.4</ele>
        <time>2021-08-23T14:57:11Z</time>
      </trkpt>
      <trkpt lat="45.17037" lon="2.83912">
        <ele>1116.9</ele>
        <time>2021-08-23T14:57:13Z</time>
      </trkpt>
      <trkpt lat="45.17039" lon="2.83916">
        <ele>1117.3</ele>
        <time>2021-08-23T14:57:15Z</time>
      </trkpt>
      <trkpt lat="45.17041" lon="2.8392">
        <ele>1117.5</ele>
        <time>2021-08-23T14:57:17Z</time>
      </trkpt>
      <trkpt lat="45.17044" lon="2.83924">
        <ele>1117.9</ele>
        <time>2021-08-23T14:57:19Z</time>
      </trkpt>
      <trkpt lat="45.17046" lon="2.83927">
        <ele>1118.2</ele>
        <time>2021-08-23T14:57:21Z</time>
      </trkpt>
      <trkpt lat="45.17048" lon="2.8393">
        <ele>1118.4</ele>
        <time>2021-08-23T14:57:23Z</time>
      </trkpt>
      <trkpt lat="45.17051" lon="2.83933">
        <ele>1118.6</ele>
        <time>2021-08-23T14:57:25Z</time>
      </trkpt>
      <trkpt lat="45.17054" lon="2.83936">
        <ele>1118.7</ele>
        <time>2021-08-23T14:57:27Z</time>
      </trkpt>
      <trkpt lat="45.17056" lon="2.8394">
        <ele>1119</ele>
        <time>2021-08-23T14:57:29Z</time>
      </trkpt>
      <trkpt lat="45.17058" lon="2.83944">
        <ele>1119.4</ele>
        <time>2021-08-23T14:57:31Z</time>
      </trkpt>
      <trkpt lat="45.1706" lon="2.83947">
        <ele>1119.7</ele>
        <time>2021-08-23T14:57:33Z</time>
      </trkpt>
      <trkpt lat="45.17062" lon="2.8395">
        <ele>1119.8</ele>
        <time>2021-08-23T14:57:35Z</time>
      </trkpt>
      <trkpt lat="45.17065" lon="2.83953">
        <ele>1119.9</ele>
        <time>2021-08-23T14:57:37Z</time>
      </trkpt>
      <trkpt lat="45.17067" lon="2.83956">
        <ele>1120.2</ele>
        <time>2021-08-23T14:57:39Z</time>
      </trkpt>
      <trkpt lat="45.17069" lon="2.8396">
        <ele>1120.6</ele>
        <time>2021-08-23T14:57:41Z</time>
      </trkpt>
      <trkpt lat="45.17071" lon="2.83963">
        <ele>1120.7</ele>
        <time>2021-08-23T14:57:43Z</time>
      </trkpt>
      <trkpt lat="45.17073" lon="2.83967">
        <ele>1121.1</ele>
        <time>2021-08-23T14:57:45Z</time>
      </trkpt>
      <trkpt lat="45.17076" lon="2.83969">
        <ele>1121.2</ele>
        <time>2021-08-23T14:57:47Z</time>
      </trkpt>
      <trkpt lat="45.17078" lon="2.83972">
        <ele>1121.3</ele>
        <time>2021-08-23T14:57:49Z</time>
      </trkpt>
      <trkpt lat="45.17081" lon="2.83976">
        <ele>1121.5</ele>
        <time>2021-08-23T14:57:51Z</time>
      </trkpt>
      <trkpt lat="45.17083" lon="2.83979">
        <ele>1121.9</ele>
        <time>2021-08-23T14:57:53Z</time>
      </trkpt>
      <trkpt lat="45.17085" lon="2.83982">
        <ele>1122.2</ele>
        <time>2021-08-23T14:57:55Z</time>
      </trkpt>
      <trkpt lat="45.17088" lon="2.83985">
        <ele>1122.4</ele>
        <time>2021-08-23T14:57:57Z</time>
      </trkpt>
      <trkpt lat="45.1709" lon="2.83988">
        <ele>1122.8</ele>
        <time>2021-08-23T14:57:59Z</time>
      </trkpt>
      <trkpt lat="45.17093" lon="2.83991">
        <ele>1123.2</ele>
        <time>2021-08-23T14:58:01Z</time>
      </trkpt>
      <trkpt lat="45.17096" lon="2.83994">
        <ele>1123.5</ele>
        <time>2021-08-23T14:58:03Z</time>
      </trkpt>
      <trkpt lat="45.17098" lon="2.83998">
        <ele>1124</ele>
        <time>2021-08-23T14:58:05Z</time>
      </trkpt>
      <trkpt lat="45.171" lon="2.84001">
        <ele>1124.4</ele>
        <time>2021-08-23T14:58:07Z</time>
      </trkpt>
      <trkpt lat="45.17103" lon="2.84004">
        <ele>1124.7</ele>
        <time>2021-08-23T14:58:09Z</time>
      </trkpt>
      <trkpt lat="45.17105" lon="2.84007">
        <ele>1125.1</ele>
        <time>2021-08-23T14:58:11Z</time>
      </trkpt>
      <trkpt lat="45.17107" lon="2.84011">
        <ele>1125.6</ele>
        <time>2021-08-23T14:58:13Z</time>
      </trkpt>
      <trkpt lat="45.1711" lon="2.84014">
        <ele>1126</ele>
        <time>2021-08-23T14:58:15Z</time>
      </trkpt>
      <trkpt lat="45.17112" lon="2.84017">
        <ele>1126.6</ele>
        <time>2021-08-23T14:58:17Z</time>
      </trkpt>
      <trkpt lat="45.17115" lon="2.84021">
        <ele>1126.9</ele>
        <time>2021-08-23T14:58:19Z</time>
      </trkpt>
      <trkpt lat="45.17117" lon="2.84024">
        <ele>1127.4</ele>
        <time>2021-08-23T14:58:21Z</time>
      </trkpt>
      <trkpt lat="45.1712" lon="2.84027">
        <ele>1127.8</ele>
        <time>2021-08-23T14:58:23Z</time>
      </trkpt>
      <trkpt lat="45.17122" lon="2.8403">
        <ele>1128.3</ele>
        <time>2021-08-23T14:58:25Z</time>
      </trkpt>
      <trkpt lat="45.17124" lon="2.84034">
        <ele>1128.7</ele>
        <time>2021-08-23T14:58:27Z</time>
      </trkpt>
      <trkpt lat="45.17127" lon="2.84036">
        <ele>1129</ele>
        <time>2021-08-23T14:58:29Z</time>
      </trkpt>
      <trkpt lat="45.1713" lon="2.84039">
        <ele>1129.3</ele>
        <time>2021-08-23T14:58:31Z</time>
      </trkpt>
      <trkpt lat="45.17133" lon="2.84042">
        <ele>1129.6</ele>
        <time>2021-08-23T14:58:33Z</time>
      </trkpt>
      <trkpt lat="45.17137" lon="2.84044">
        <ele>1129.8</ele>
        <time>2021-08-23T14:58:35Z</time>
      </trkpt>
      <trkpt lat="45.17139" lon="2.84046">
        <ele>1130.1</ele>
        <time>2021-08-23T14:58:37Z</time>
      </trkpt>
      <trkpt lat="45.17143" lon="2.84048">
        <ele>1130.3</ele>
        <time>2021-08-23T14:58:39Z</time>
      </trkpt>
      <trkpt lat="45.17146" lon="2.8405">
        <ele>1130.4</ele>
        <time>2021-08-23T14:58:41Z</time>
      </trkpt>
      <trkpt lat="45.1715" lon="2.84051">
        <ele>1130.4</ele>
        <time>2021-08-23T14:58:43Z</time>
      </trkpt>
      <trkpt lat="45.17153" lon="2.84052">
        <ele>1130.4</ele>
        <time>2021-08-23T14:58:45Z</time>
      </trkpt>
      <trkpt lat="45.17156" lon="2.84054">
        <ele>1130.6</ele>
        <time>2021-08-23T14:58:47Z</time>
      </trkpt>
      <trkpt lat="45.17159" lon="2.84056">
        <ele>1130.7</ele>
        <time>2021-08-23T14:58:49Z</time>
      </trkpt>
      <trkpt lat="45.17163" lon="2.84058">
        <ele>1130.9</ele>
        <time>2021-08-23T14:58:51Z</time>
      </trkpt>
      <trkpt lat="45.17165" lon="2.8406">
        <ele>1131.2</ele>
        <time>2021-08-23T14:58:53Z</time>
      </trkpt>
      <trkpt lat="45.17167" lon="2.84064">
        <ele>1131.8</ele>
        <time>2021-08-23T14:58:55Z</time>
      </trkpt>
      <trkpt lat="45.17167" lon="2.84069">
        <ele>1132.6</ele>
        <time>2021-08-23T14:58:57Z</time>
      </trkpt>
      <trkpt lat="45.17166" lon="2.84073">
        <ele>1133.3</ele>
        <time>2021-08-23T14:58:59Z</time>
      </trkpt>
      <trkpt lat="45.17164" lon="2.84077">
        <ele>1134</ele>
        <time>2021-08-23T14:59:01Z</time>
      </trkpt>
      <trkpt lat="45.17162" lon="2.8408">
        <ele>1134.7</ele>
        <time>2021-08-23T14:59:03Z</time>
      </trkpt>
      <trkpt lat="45.17159" lon="2.84081">
        <ele>1135</ele>
        <time>2021-08-23T14:59:05Z</time>
      </trkpt>
      <trkpt lat="45.17156" lon="2.84083">
        <ele>1135.4</ele>
        <time>2021-08-23T14:59:07Z</time>
      </trkpt>
      <trkpt lat="45.17153" lon="2.84084">
        <ele>1135.8</ele>
        <time>2021-08-23T14:59:09Z</time>
      </trkpt>
      <trkpt lat="45.17149" lon="2.84086">
        <ele>1136.2</ele>
        <time>2021-08-23T14:59:11Z</time>
      </trkpt>
      <trkpt lat="45.17146" lon="2.84087">
        <ele>1136.5</ele>
        <time>2021-08-23T14:59:13Z</time>
      </trkpt>
      <trkpt lat="45.17143" lon="2.84087">
        <ele>1136.7</ele>
        <time>2021-08-23T14:59:15Z</time>
      </trkpt>
      <trkpt lat="45.17139" lon="2.84088">
        <ele>1137</ele>
        <time>2021-08-23T14:59:17Z</time>
      </trkpt>
      <trkpt lat="45.17136" lon="2.84088">
        <ele>1137.2</ele>
        <time>2021-08-23T14:59:19Z</time>
      </trkpt>
      <trkpt lat="45.17133" lon="2.84089">
        <ele>1137.5</ele>
        <time>2021-08-23T14:59:21Z</time>
      </trkpt>
      <trkpt lat="45.17129" lon="2.84089">
        <ele>1137.7</ele>
        <time>2021-08-23T14:59:23Z</time>
      </trkpt>
      <trkpt lat="45.17126" lon="2.84089">
        <ele>1137.9</ele>
        <time>2021-08-23T14:59:25Z</time>
      </trkpt>
      <trkpt lat="45.17123" lon="2.8409">
        <ele>1138.2</ele>
        <time>2021-08-23T14:59:27Z</time>
      </trkpt>
      <trkpt lat="45.1712" lon="2.8409">
        <ele>1138.3</ele>
        <time>2021-08-23T14:59:29Z</time>
      </trkpt>
      <trkpt lat="45.17117" lon="2.84091">
        <ele>1138.6</ele>
        <time>2021-08-23T14:59:31Z</time>
      </trkpt>
      <trkpt lat="45.17113" lon="2.84091">
        <ele>1138.9</ele>
        <time>2021-08-23T14:59:33Z</time>
      </trkpt>
      <trkpt lat="45.1711" lon="2.84092">
        <ele>1139.1</ele>
        <time>2021-08-23T14:59:35Z</time>
      </trkpt>
      <trkpt lat="45.17107" lon="2.84094">
        <ele>1139.6</ele>
        <time>2021-08-23T14:59:37Z</time>
      </trkpt>
      <trkpt lat="45.17104" lon="2.84097">
        <ele>1140.2</ele>
        <time>2021-08-23T14:59:39Z</time>
      </trkpt>
      <trkpt lat="45.17101" lon="2.841">
        <ele>1140.9</ele>
        <time>2021-08-23T14:59:41Z</time>
      </trkpt>
      <trkpt lat="45.17099" lon="2.84104">
        <ele>1141.6</ele>
        <time>2021-08-23T14:59:43Z</time>
      </trkpt>
      <trkpt lat="45.17098" lon="2.84108">
        <ele>1142.4</ele>
        <time>2021-08-23T14:59:45Z</time>
      </trkpt>
      <trkpt lat="45.17098" lon="2.84113">
        <ele>1143.2</ele>
        <time>2021-08-23T14:59:47Z</time>
      </trkpt>
      <trkpt lat="45.171" lon="2.84117">
        <ele>1143.9</ele>
        <time>2021-08-23T14:59:49Z</time>
      </trkpt>
      <trkpt lat="45.17101" lon="2.84121">
        <ele>1144.4</ele>
        <time>2021-08-23T14:59:51Z</time>
      </trkpt>
      <trkpt lat="45.17103" lon="2.84124">
        <ele>1144.8</ele>
        <time>2021-08-23T14:59:53Z</time>
      </trkpt>
      <trkpt lat="45.17105" lon="2.84128">
        <ele>1145.3</ele>
        <time>2021-08-23T14:59:55Z</time>
      </trkpt>
      <trkpt lat="45.17108" lon="2.84131">
        <ele>1145.6</ele>
        <time>2021-08-23T14:59:57Z</time>
      </trkpt>
      <trkpt lat="45.1711" lon="2.84134">
        <ele>1146</ele>
        <time>2021-08-23T14:59:59Z</time>
      </trkpt>
      <trkpt lat="45.17111" lon="2.84138">
        <ele>1146.6</ele>
        <time>2021-08-23T15:00:01Z</time>
      </trkpt>
      <trkpt lat="45.17113" lon="2.84142">
        <ele>1147.2</ele>
        <time>2021-08-23T15:00:03Z</time>
      </trkpt>
      <trkpt lat="45.17115" lon="2.84145">
        <ele>1147.6</ele>
        <time>2021-08-23T15:00:05Z</time>
      </trkpt>
      <trkpt lat="45.17117" lon="2.84149">
        <ele>1148.2</ele>
        <time>2021-08-23T15:00:07Z</time>
      </trkpt>
      <trkpt lat="45.17119" lon="2.84153">
        <ele>1148.7</ele>
        <time>2021-08-23T15:00:09Z</time>
      </trkpt>
      <trkpt lat="45.1712" lon="2.84157">
        <ele>1149.2</ele>
        <time>2021-08-23T15:00:11Z</time>
      </trkpt>
      <trkpt lat="45.17122" lon="2.84161">
        <ele>1149.8</ele>
        <time>2021-08-23T15:00:13Z</time>
      </trkpt>
      <trkpt lat="45.17124" lon="2.84165">
        <ele>1150.3</ele>
        <time>2021-08-23T15:00:15Z</time>
      </trkpt>
      <trkpt lat="45.17125" lon="2.84169">
        <ele>1150.8</ele>
        <time>2021-08-23T15:00:17Z</time>
      </trkpt>
      <trkpt lat="45.17127" lon="2.84173">
        <ele>1151.3</ele>
        <time>2021-08-23T15:00:19Z</time>
      </trkpt>
      <trkpt lat="45.17128" lon="2.84176">
        <ele>1151.8</ele>
        <time>2021-08-23T15:00:21Z</time>
      </trkpt>
      <trkpt lat="45.17131" lon="2.8418">
        <ele>1152.2</ele>
        <time>2021-08-23T15:00:23Z</time>
      </trkpt>
      <trkpt lat="45.17133" lon="2.84183">
        <ele>1152.6</ele>
        <time>2021-08-23T15:00:25Z</time>
      </trkpt>
      <trkpt lat="45.17135" lon="2.84186">
        <ele>1152.9</ele>
        <time>2021-08-23T15:00:27Z</time>
      </trkpt>
      <trkpt lat="45.17138" lon="2.84188">
        <ele>1153.1</ele>
        <time>2021-08-23T15:00:29Z</time>
      </trkpt>
      <trkpt lat="45.17142" lon="2.8419">
        <ele>1153.1</ele>
        <time>2021-08-23T15:00:31Z</time>
      </trkpt>
      <trkpt lat="45.17145" lon="2.84191">
        <ele>1153.2</ele>
        <time>2021-08-23T15:00:33Z</time>
      </trkpt>
      <trkpt lat="45.17148" lon="2.84193">
        <ele>1153.2</ele>
        <time>2021-08-23T15:00:35Z</time>
      </trkpt>
      <trkpt lat="45.17152" lon="2.84194">
        <ele>1153.2</ele>
        <time>2021-08-23T15:00:37Z</time>
      </trkpt>
      <trkpt lat="45.17155" lon="2.84195">
        <ele>1153.1</ele>
        <time>2021-08-23T15:00:39Z</time>
      </trkpt>
      <trkpt lat="45.17158" lon="2.84196">
        <ele>1153.1</ele>
        <time>2021-08-23T15:00:41Z</time>
      </trkpt>
      <trkpt lat="45.17161" lon="2.84197">
        <ele>1153.1</ele>
        <time>2021-08-23T15:00:43Z</time>
      </trkpt>
      <trkpt lat="45.17164" lon="2.84198">
        <ele>1153</ele>
        <time>2021-08-23T15:00:45Z</time>
      </trkpt>
      <trkpt lat="45.17167" lon="2.84199">
        <ele>1153.1</ele>
        <time>2021-08-23T15:00:47Z</time>
      </trkpt>
      <trkpt lat="45.17171" lon="2.842">
        <ele>1153.3</ele>
        <time>2021-08-23T15:00:49Z</time>
      </trkpt>
      <trkpt lat="45.17173" lon="2.842">
        <ele>1153.5</ele>
        <time>2021-08-23T15:00:51Z</time>
      </trkpt>
      <trkpt lat="45.17176" lon="2.84202">
        <ele>1153.8</ele>
        <time>2021-08-23T15:00:53Z</time>
      </trkpt>
      <trkpt lat="45.17179" lon="2.84202">
        <ele>1154</ele>
        <time>2021-08-23T15:00:55Z</time>
      </trkpt>
      <trkpt lat="45.17183" lon="2.84204">
        <ele>1154.3</ele>
        <time>2021-08-23T15:00:57Z</time>
      </trkpt>
      <trkpt lat="45.17186" lon="2.84205">
        <ele>1154.6</ele>
        <time>2021-08-23T15:00:59Z</time>
      </trkpt>
      <trkpt lat="45.17189" lon="2.84206">
        <ele>1154.8</ele>
        <time>2021-08-23T15:01:01Z</time>
      </trkpt>
      <trkpt lat="45.17192" lon="2.84207">
        <ele>1155.1</ele>
        <time>2021-08-23T15:01:03Z</time>
      </trkpt>
      <trkpt lat="45.17196" lon="2.84209">
        <ele>1155.4</ele>
        <time>2021-08-23T15:01:05Z</time>
      </trkpt>
      <trkpt lat="45.17199" lon="2.84209">
        <ele>1155.5</ele>
        <time>2021-08-23T15:01:07Z</time>
      </trkpt>
      <trkpt lat="45.17202" lon="2.8421">
        <ele>1155.8</ele>
        <time>2021-08-23T15:01:09Z</time>
      </trkpt>
      <trkpt lat="45.17205" lon="2.84211">
        <ele>1156</ele>
        <time>2021-08-23T15:01:11Z</time>
      </trkpt>
      <trkpt lat="45.17208" lon="2.84213">
        <ele>1156.3</ele>
        <time>2021-08-23T15:01:13Z</time>
      </trkpt>
      <trkpt lat="45.17211" lon="2.84213">
        <ele>1156.5</ele>
        <time>2021-08-23T15:01:15Z</time>
      </trkpt>
      <trkpt lat="45.17214" lon="2.84214">
        <ele>1156.7</ele>
        <time>2021-08-23T15:01:17Z</time>
      </trkpt>
      <trkpt lat="45.17217" lon="2.84215">
        <ele>1156.9</ele>
        <time>2021-08-23T15:01:19Z</time>
      </trkpt>
      <trkpt lat="45.1722" lon="2.84215">
        <ele>1156.9</ele>
        <time>2021-08-23T15:01:21Z</time>
      </trkpt>
      <trkpt lat="45.17223" lon="2.84215">
        <ele>1157.1</ele>
        <time>2021-08-23T15:01:23Z</time>
      </trkpt>
      <trkpt lat="45.17226" lon="2.84216">
        <ele>1157.3</ele>
        <time>2021-08-23T15:01:25Z</time>
      </trkpt>
      <trkpt lat="45.17229" lon="2.84217">
        <ele>1157.5</ele>
        <time>2021-08-23T15:01:27Z</time>
      </trkpt>
      <trkpt lat="45.17232" lon="2.84219">
        <ele>1157.8</ele>
        <time>2021-08-23T15:01:29Z</time>
      </trkpt>
      <trkpt lat="45.17235" lon="2.8422">
        <ele>1158.1</ele>
        <time>2021-08-23T15:01:31Z</time>
      </trkpt>
      <trkpt lat="45.17237" lon="2.84223">
        <ele>1158.5</ele>
        <time>2021-08-23T15:01:33Z</time>
      </trkpt>
      <trkpt lat="45.17238" lon="2.84227">
        <ele>1159</ele>
        <time>2021-08-23T15:01:35Z</time>
      </trkpt>
      <trkpt lat="45.17239" lon="2.84231">
        <ele>1159.5</ele>
        <time>2021-08-23T15:01:37Z</time>
      </trkpt>
      <trkpt lat="45.17237" lon="2.84235">
        <ele>1160</ele>
        <time>2021-08-23T15:01:39Z</time>
      </trkpt>
      <trkpt lat="45.17236" lon="2.84239">
        <ele>1160.5</ele>
        <time>2021-08-23T15:01:41Z</time>
      </trkpt>
      <trkpt lat="45.17233" lon="2.84242">
        <ele>1160.7</ele>
        <time>2021-08-23T15:01:43Z</time>
      </trkpt>
      <trkpt lat="45.17231" lon="2.84243">
        <ele>1160.9</ele>
        <time>2021-08-23T15:01:45Z</time>
      </trkpt>
      <trkpt lat="45.17228" lon="2.84245">
        <ele>1161.1</ele>
        <time>2021-08-23T15:01:47Z</time>
      </trkpt>
      <trkpt lat="45.17226" lon="2.84246">
        <ele>1161.2</ele>
        <time>2021-08-23T15:01:49Z</time>
      </trkpt>
      <trkpt lat="45.17223" lon="2.84248">
        <ele>1161.4</ele>
        <time>2021-08-23T15:01:51Z</time>
      </trkpt>
      <trkpt lat="45.1722" lon="2.8425">
        <ele>1161.6</ele>
        <time>2021-08-23T15:01:53Z</time>
      </trkpt>
      <trkpt lat="45.17218" lon="2.84252">
        <ele>1161.9</ele>
        <time>2021-08-23T15:01:55Z</time>
      </trkpt>
      <trkpt lat="45.17215" lon="2.84254">
        <ele>1162.2</ele>
        <time>2021-08-23T15:01:57Z</time>
      </trkpt>
      <trkpt lat="45.17213" lon="2.84257">
        <ele>1162.5</ele>
        <time>2021-08-23T15:01:59Z</time>
      </trkpt>
      <trkpt lat="45.1721" lon="2.84259">
        <ele>1162.7</ele>
        <time>2021-08-23T15:02:01Z</time>
      </trkpt>
      <trkpt lat="45.17208" lon="2.84261">
        <ele>1163</ele>
        <time>2021-08-23T15:02:03Z</time>
      </trkpt>
      <trkpt lat="45.17206" lon="2.84264">
        <ele>1163.3</ele>
        <time>2021-08-23T15:02:05Z</time>
      </trkpt>
      <trkpt lat="45.17204" lon="2.84267">
        <ele>1163.7</ele>
        <time>2021-08-23T15:02:07Z</time>
      </trkpt>
      <trkpt lat="45.17202" lon="2.8427">
        <ele>1164</ele>
        <time>2021-08-23T15:02:09Z</time>
      </trkpt>
      <trkpt lat="45.172" lon="2.84273">
        <ele>1164.4</ele>
        <time>2021-08-23T15:02:11Z</time>
      </trkpt>
      <trkpt lat="45.17198" lon="2.84275">
        <ele>1164.7</ele>
        <time>2021-08-23T15:02:13Z</time>
      </trkpt>
      <trkpt lat="45.17196" lon="2.84278">
        <ele>1165</ele>
        <time>2021-08-23T15:02:15Z</time>
      </trkpt>
      <trkpt lat="45.17194" lon="2.8428">
        <ele>1165.3</ele>
        <time>2021-08-23T15:02:17Z</time>
      </trkpt>
      <trkpt lat="45.17191" lon="2.84284">
        <ele>1165.8</ele>
        <time>2021-08-23T15:02:19Z</time>
      </trkpt>
      <trkpt lat="45.17189" lon="2.84286">
        <ele>1166.1</ele>
        <time>2021-08-23T15:02:21Z</time>
      </trkpt>
      <trkpt lat="45.17187" lon="2.8429">
        <ele>1166.5</ele>
        <time>2021-08-23T15:02:23Z</time>
      </trkpt>
      <trkpt lat="45.17185" lon="2.84292">
        <ele>1166.8</ele>
        <time>2021-08-23T15:02:25Z</time>
      </trkpt>
      <trkpt lat="45.17184" lon="2.84295">
        <ele>1167.2</ele>
        <time>2021-08-23T15:02:27Z</time>
      </trkpt>
      <trkpt lat="45.17181" lon="2.84298">
        <ele>1167.5</ele>
        <time>2021-08-23T15:02:29Z</time>
      </trkpt>
      <trkpt lat="45.17179" lon="2.843">
        <ele>1167.7</ele>
        <time>2021-08-23T15:02:31Z</time>
      </trkpt>
      <trkpt lat="45.17178" lon="2.84302">
        <ele>1168</ele>
        <time>2021-08-23T15:02:33Z</time>
      </trkpt>
      <trkpt lat="45.17175" lon="2.84304">
        <ele>1168.2</ele>
        <time>2021-08-23T15:02:35Z</time>
      </trkpt>
      <trkpt lat="45.17172" lon="2.84305">
        <ele>1168.3</ele>
        <time>2021-08-23T15:02:37Z</time>
      </trkpt>
      <trkpt lat="45.1717" lon="2.84307">
        <ele>1168.6</ele>
        <time>2021-08-23T15:02:39Z</time>
      </trkpt>
      <trkpt lat="45.17167" lon="2.84309">
        <ele>1168.8</ele>
        <time>2021-08-23T15:02:41Z</time>
      </trkpt>
      <trkpt lat="45.17164" lon="2.8431">
        <ele>1169</ele>
        <time>2021-08-23T15:02:43Z</time>
      </trkpt>
      <trkpt lat="45.17161" lon="2.84311">
        <ele>1169.2</ele>
        <time>2021-08-23T15:02:45Z</time>
      </trkpt>
      <trkpt lat="45.17158" lon="2.84311">
        <ele>1169.5</ele>
        <time>2021-08-23T15:02:47Z</time>
      </trkpt>
      <trkpt lat="45.17154" lon="2.84311">
        <ele>1169.6</ele>
        <time>2021-08-23T15:02:49Z</time>
      </trkpt>
      <trkpt lat="45.17151" lon="2.84311">
        <ele>1169.7</ele>
        <time>2021-08-23T15:02:51Z</time>
      </trkpt>
      <trkpt lat="45.17148" lon="2.84311">
        <ele>1169.8</ele>
        <time>2021-08-23T15:02:53Z</time>
      </trkpt>
      <trkpt lat="45.17144" lon="2.8431">
        <ele>1169.9</ele>
        <time>2021-08-23T15:02:55Z</time>
      </trkpt>
      <trkpt lat="45.1714" lon="2.84309">
        <ele>1169.9</ele>
        <time>2021-08-23T15:02:57Z</time>
      </trkpt>
      <trkpt lat="45.17137" lon="2.84309">
        <ele>1170.1</ele>
        <time>2021-08-23T15:02:59Z</time>
      </trkpt>
      <trkpt lat="45.17133" lon="2.84309">
        <ele>1170.2</ele>
        <time>2021-08-23T15:03:01Z</time>
      </trkpt>
      <trkpt lat="45.1713" lon="2.84308">
        <ele>1170.3</ele>
        <time>2021-08-23T15:03:03Z</time>
      </trkpt>
      <trkpt lat="45.17126" lon="2.84308">
        <ele>1170.4</ele>
        <time>2021-08-23T15:03:05Z</time>
      </trkpt>
      <trkpt lat="45.17123" lon="2.84308">
        <ele>1170.5</ele>
        <time>2021-08-23T15:03:07Z</time>
      </trkpt>
      <trkpt lat="45.1712" lon="2.84308">
        <ele>1170.7</ele>
        <time>2021-08-23T15:03:09Z</time>
      </trkpt>
      <trkpt lat="45.17117" lon="2.84308">
        <ele>1170.8</ele>
        <time>2021-08-23T15:03:11Z</time>
      </trkpt>
      <trkpt lat="45.17113" lon="2.84308">
        <ele>1171</ele>
        <time>2021-08-23T15:03:13Z</time>
      </trkpt>
      <trkpt lat="45.17109" lon="2.84308">
        <ele>1171.2</ele>
        <time>2021-08-23T15:03:15Z</time>
      </trkpt>
      <trkpt lat="45.17106" lon="2.84308">
        <ele>1171.3</ele>
        <time>2021-08-23T15:03:17Z</time>
      </trkpt>
      <trkpt lat="45.17102" lon="2.84308">
        <ele>1171.5</ele>
        <time>2021-08-23T15:03:19Z</time>
      </trkpt>
      <trkpt lat="45.17099" lon="2.84307">
        <ele>1171.5</ele>
        <time>2021-08-23T15:03:21Z</time>
      </trkpt>
      <trkpt lat="45.17096" lon="2.84308">
        <ele>1171.8</ele>
        <time>2021-08-23T15:03:23Z</time>
      </trkpt>
      <trkpt lat="45.1709" lon="2.84309">
        <ele>1172.1</ele>
        <time>2021-08-23T15:03:25Z</time>
      </trkpt>
      <trkpt lat="45.17087" lon="2.8431">
        <ele>1172.3</ele>
        <time>2021-08-23T15:03:27Z</time>
      </trkpt>
      <trkpt lat="45.17084" lon="2.8431">
        <ele>1172.5</ele>
        <time>2021-08-23T15:03:29Z</time>
      </trkpt>
      <trkpt lat="45.1708" lon="2.84312">
        <ele>1172.7</ele>
        <time>2021-08-23T15:03:31Z</time>
      </trkpt>
      <trkpt lat="45.17077" lon="2.84313">
        <ele>1172.9</ele>
        <time>2021-08-23T15:03:33Z</time>
      </trkpt>
      <trkpt lat="45.17074" lon="2.84314">
        <ele>1173</ele>
        <time>2021-08-23T15:03:35Z</time>
      </trkpt>
      <trkpt lat="45.1707" lon="2.84315">
        <ele>1173.1</ele>
        <time>2021-08-23T15:03:37Z</time>
      </trkpt>
      <trkpt lat="45.17067" lon="2.84317">
        <ele>1173.3</ele>
        <time>2021-08-23T15:03:39Z</time>
      </trkpt>
      <trkpt lat="45.17063" lon="2.84319">
        <ele>1173.5</ele>
        <time>2021-08-23T15:03:41Z</time>
      </trkpt>
      <trkpt lat="45.1706" lon="2.84321">
        <ele>1173.6</ele>
        <time>2021-08-23T15:03:43Z</time>
      </trkpt>
      <trkpt lat="45.17057" lon="2.84323">
        <ele>1173.8</ele>
        <time>2021-08-23T15:03:45Z</time>
      </trkpt>
      <trkpt lat="45.17055" lon="2.84327">
        <ele>1174.1</ele>
        <time>2021-08-23T15:03:47Z</time>
      </trkpt>
      <trkpt lat="45.17052" lon="2.84331">
        <ele>1174.5</ele>
        <time>2021-08-23T15:03:49Z</time>
      </trkpt>
      <trkpt lat="45.17051" lon="2.84337">
        <ele>1175</ele>
        <time>2021-08-23T15:03:51Z</time>
      </trkpt>
      <trkpt lat="45.17051" lon="2.84342">
        <ele>1175.7</ele>
        <time>2021-08-23T15:03:53Z</time>
      </trkpt>
      <trkpt lat="45.17051" lon="2.84348">
        <ele>1176.3</ele>
        <time>2021-08-23T15:03:55Z</time>
      </trkpt>
      <trkpt lat="45.17053" lon="2.84353">
        <ele>1177</ele>
        <time>2021-08-23T15:03:57Z</time>
      </trkpt>
      <trkpt lat="45.17056" lon="2.84357">
        <ele>1177.5</ele>
        <time>2021-08-23T15:03:59Z</time>
      </trkpt>
      <trkpt lat="45.1706" lon="2.8436">
        <ele>1177.9</ele>
        <time>2021-08-23T15:04:01Z</time>
      </trkpt>
      <trkpt lat="45.17063" lon="2.84362">
        <ele>1178.3</ele>
        <time>2021-08-23T15:04:03Z</time>
      </trkpt>
      <trkpt lat="45.17067" lon="2.84364">
        <ele>1178.7</ele>
        <time>2021-08-23T15:04:05Z</time>
      </trkpt>
      <trkpt lat="45.17071" lon="2.84366">
        <ele>1179</ele>
        <time>2021-08-23T15:04:07Z</time>
      </trkpt>
      <trkpt lat="45.17074" lon="2.84368">
        <ele>1179.4</ele>
        <time>2021-08-23T15:04:09Z</time>
      </trkpt>
      <trkpt lat="45.17078" lon="2.8437">
        <ele>1179.7</ele>
        <time>2021-08-23T15:04:11Z</time>
      </trkpt>
      <trkpt lat="45.17082" lon="2.84371">
        <ele>1179.9</ele>
        <time>2021-08-23T15:04:13Z</time>
      </trkpt>
      <trkpt lat="45.17085" lon="2.84374">
        <ele>1180.3</ele>
        <time>2021-08-23T15:04:15Z</time>
      </trkpt>
      <trkpt lat="45.17088" lon="2.84375">
        <ele>1180.4</ele>
        <time>2021-08-23T15:04:17Z</time>
      </trkpt>
      <trkpt lat="45.17091" lon="2.84377">
        <ele>1180.5</ele>
        <time>2021-08-23T15:04:19Z</time>
      </trkpt>
      <trkpt lat="45.17095" lon="2.84378">
        <ele>1180.6</ele>
        <time>2021-08-23T15:04:21Z</time>
      </trkpt>
      <trkpt lat="45.17098" lon="2.8438">
        <ele>1180.8</ele>
        <time>2021-08-23T15:04:23Z</time>
      </trkpt>
      <trkpt lat="45.17101" lon="2.84382">
        <ele>1181</ele>
        <time>2021-08-23T15:04:25Z</time>
      </trkpt>
      <trkpt lat="45.17104" lon="2.84383">
        <ele>1181</ele>
        <time>2021-08-23T15:04:27Z</time>
      </trkpt>
      <trkpt lat="45.17108" lon="2.84385">
        <ele>1181.2</ele>
        <time>2021-08-23T15:04:29Z</time>
      </trkpt>
      <trkpt lat="45.17111" lon="2.84387">
        <ele>1181.3</ele>
        <time>2021-08-23T15:04:31Z</time>
      </trkpt>
      <trkpt lat="45.17114" lon="2.84388">
        <ele>1181.3</ele>
        <time>2021-08-23T15:04:33Z</time>
      </trkpt>
      <trkpt lat="45.17117" lon="2.8439">
        <ele>1181.5</ele>
        <time>2021-08-23T15:04:35Z</time>
      </trkpt>
      <trkpt lat="45.1712" lon="2.84392">
        <ele>1181.7</ele>
        <time>2021-08-23T15:04:37Z</time>
      </trkpt>
      <trkpt lat="45.17123" lon="2.84394">
        <ele>1181.9</ele>
        <time>2021-08-23T15:04:39Z</time>
      </trkpt>
      <trkpt lat="45.17126" lon="2.84395">
        <ele>1182</ele>
        <time>2021-08-23T15:04:41Z</time>
      </trkpt>
      <trkpt lat="45.17129" lon="2.84397">
        <ele>1182.1</ele>
        <time>2021-08-23T15:04:43Z</time>
      </trkpt>
      <trkpt lat="45.17132" lon="2.84399">
        <ele>1182.3</ele>
        <time>2021-08-23T15:04:45Z</time>
      </trkpt>
      <trkpt lat="45.17135" lon="2.84401">
        <ele>1182.5</ele>
        <time>2021-08-23T15:04:47Z</time>
      </trkpt>
      <trkpt lat="45.17138" lon="2.84403">
        <ele>1182.7</ele>
        <time>2021-08-23T15:04:49Z</time>
      </trkpt>
      <trkpt lat="45.1714" lon="2.84406">
        <ele>1183.1</ele>
        <time>2021-08-23T15:04:51Z</time>
      </trkpt>
      <trkpt lat="45.17143" lon="2.84409">
        <ele>1183.4</ele>
        <time>2021-08-23T15:04:53Z</time>
      </trkpt>
      <trkpt lat="45.17146" lon="2.84411">
        <ele>1183.7</ele>
        <time>2021-08-23T15:04:55Z</time>
      </trkpt>
      <trkpt lat="45.17149" lon="2.84414">
        <ele>1184</ele>
        <time>2021-08-23T15:04:57Z</time>
      </trkpt>
      <trkpt lat="45.17151" lon="2.84417">
        <ele>1184.4</ele>
        <time>2021-08-23T15:04:59Z</time>
      </trkpt>
      <trkpt lat="45.17155" lon="2.8442">
        <ele>1184.7</ele>
        <time>2021-08-23T15:05:01Z</time>
      </trkpt>
      <trkpt lat="45.17158" lon="2.84423">
        <ele>1185.1</ele>
        <time>2021-08-23T15:05:03Z</time>
      </trkpt>
      <trkpt lat="45.17161" lon="2.84425">
        <ele>1185.5</ele>
        <time>2021-08-23T15:05:05Z</time>
      </trkpt>
      <trkpt lat="45.17164" lon="2.84428">
        <ele>1185.9</ele>
        <time>2021-08-23T15:05:07Z</time>
      </trkpt>
      <trkpt lat="45.17166" lon="2.84431">
        <ele>1186.3</ele>
        <time>2021-08-23T15:05:09Z</time>
      </trkpt>
      <trkpt lat="45.17169" lon="2.84434">
        <ele>1186.7</ele>
        <time>2021-08-23T15:05:11Z</time>
      </trkpt>
      <trkpt lat="45.17172" lon="2.84437">
        <ele>1187.2</ele>
        <time>2021-08-23T15:05:13Z</time>
      </trkpt>
      <trkpt lat="45.17175" lon="2.8444">
        <ele>1187.6</ele>
        <time>2021-08-23T15:05:15Z</time>
      </trkpt>
      <trkpt lat="45.17178" lon="2.84443">
        <ele>1188.1</ele>
        <time>2021-08-23T15:05:17Z</time>
      </trkpt>
      <trkpt lat="45.17181" lon="2.84445">
        <ele>1188.5</ele>
        <time>2021-08-23T15:05:19Z</time>
      </trkpt>
      <trkpt lat="45.17184" lon="2.84448">
        <ele>1188.8</ele>
        <time>2021-08-23T15:05:21Z</time>
      </trkpt>
      <trkpt lat="45.17187" lon="2.84451">
        <ele>1189.3</ele>
        <time>2021-08-23T15:05:23Z</time>
      </trkpt>
      <trkpt lat="45.1719" lon="2.84454">
        <ele>1189.8</ele>
        <time>2021-08-23T15:05:25Z</time>
      </trkpt>
      <trkpt lat="45.17193" lon="2.84456">
        <ele>1190.2</ele>
        <time>2021-08-23T15:05:27Z</time>
      </trkpt>
      <trkpt lat="45.17197" lon="2.84458">
        <ele>1190.5</ele>
        <time>2021-08-23T15:05:29Z</time>
      </trkpt>
      <trkpt lat="45.172" lon="2.8446">
        <ele>1190.8</ele>
        <time>2021-08-23T15:05:31Z</time>
      </trkpt>
      <trkpt lat="45.17204" lon="2.84462">
        <ele>1191</ele>
        <time>2021-08-23T15:05:33Z</time>
      </trkpt>
      <trkpt lat="45.17208" lon="2.84463">
        <ele>1191.3</ele>
        <time>2021-08-23T15:05:35Z</time>
      </trkpt>
      <trkpt lat="45.17213" lon="2.84464">
        <ele>1191.4</ele>
        <time>2021-08-23T15:05:37Z</time>
      </trkpt>
      <trkpt lat="45.17217" lon="2.84464">
        <ele>1191.4</ele>
        <time>2021-08-23T15:05:39Z</time>
      </trkpt>
      <trkpt lat="45.17223" lon="2.84463">
        <ele>1191.3</ele>
        <time>2021-08-23T15:05:41Z</time>
      </trkpt>
      <trkpt lat="45.17228" lon="2.84463">
        <ele>1191.2</ele>
        <time>2021-08-23T15:05:43Z</time>
      </trkpt>
      <trkpt lat="45.17233" lon="2.84461">
        <ele>1191</ele>
        <time>2021-08-23T15:05:45Z</time>
      </trkpt>
      <trkpt lat="45.17238" lon="2.8446">
        <ele>1190.8</ele>
        <time>2021-08-23T15:05:47Z</time>
      </trkpt>
      <trkpt lat="45.17243" lon="2.84459">
        <ele>1190.6</ele>
        <time>2021-08-23T15:05:49Z</time>
      </trkpt>
      <trkpt lat="45.17248" lon="2.84458">
        <ele>1190.4</ele>
        <time>2021-08-23T15:05:51Z</time>
      </trkpt>
      <trkpt lat="45.17253" lon="2.84457">
        <ele>1190.6</ele>
        <time>2021-08-23T15:05:53Z</time>
      </trkpt>
      <trkpt lat="45.17257" lon="2.84457">
        <ele>1190.8</ele>
        <time>2021-08-23T15:05:55Z</time>
      </trkpt>
      <trkpt lat="45.17261" lon="2.84455">
        <ele>1190.9</ele>
        <time>2021-08-23T15:05:57Z</time>
      </trkpt>
      <trkpt lat="45.17265" lon="2.84455">
        <ele>1191.1</ele>
        <time>2021-08-23T15:05:59Z</time>
      </trkpt>
      <trkpt lat="45.17269" lon="2.84454">
        <ele>1191.4</ele>
        <time>2021-08-23T15:06:01Z</time>
      </trkpt>
      <trkpt lat="45.17273" lon="2.84453">
        <ele>1191.6</ele>
        <time>2021-08-23T15:06:03Z</time>
      </trkpt>
      <trkpt lat="45.17277" lon="2.84452">
        <ele>1191.8</ele>
        <time>2021-08-23T15:06:05Z</time>
      </trkpt>
      <trkpt lat="45.1728" lon="2.84451">
        <ele>1192.1</ele>
        <time>2021-08-23T15:06:07Z</time>
      </trkpt>
      <trkpt lat="45.17284" lon="2.8445">
        <ele>1192.2</ele>
        <time>2021-08-23T15:06:09Z</time>
      </trkpt>
      <trkpt lat="45.17287" lon="2.84449">
        <ele>1192.5</ele>
        <time>2021-08-23T15:06:11Z</time>
      </trkpt>
      <trkpt lat="45.17291" lon="2.84449">
        <ele>1192.7</ele>
        <time>2021-08-23T15:06:13Z</time>
      </trkpt>
      <trkpt lat="45.17294" lon="2.84448">
        <ele>1192.9</ele>
        <time>2021-08-23T15:06:15Z</time>
      </trkpt>
      <trkpt lat="45.17298" lon="2.84446">
        <ele>1193.1</ele>
        <time>2021-08-23T15:06:17Z</time>
      </trkpt>
      <trkpt lat="45.17301" lon="2.84445">
        <ele>1193.3</ele>
        <time>2021-08-23T15:06:19Z</time>
      </trkpt>
      <trkpt lat="45.17305" lon="2.84444">
        <ele>1193.6</ele>
        <time>2021-08-23T15:06:21Z</time>
      </trkpt>
      <trkpt lat="45.17308" lon="2.84442">
        <ele>1193.8</ele>
        <time>2021-08-23T15:06:23Z</time>
      </trkpt>
      <trkpt lat="45.17312" lon="2.8444">
        <ele>1194</ele>
        <time>2021-08-23T15:06:25Z</time>
      </trkpt>
      <trkpt lat="45.17315" lon="2.84439">
        <ele>1194.2</ele>
        <time>2021-08-23T15:06:27Z</time>
      </trkpt>
      <trkpt lat="45.17318" lon="2.84436">
        <ele>1194.3</ele>
        <time>2021-08-23T15:06:29Z</time>
      </trkpt>
      <trkpt lat="45.17321" lon="2.84433">
        <ele>1194.4</ele>
        <time>2021-08-23T15:06:31Z</time>
      </trkpt>
      <trkpt lat="45.17324" lon="2.8443">
        <ele>1194.6</ele>
        <time>2021-08-23T15:06:33Z</time>
      </trkpt>
      <trkpt lat="45.17327" lon="2.84428">
        <ele>1194.8</ele>
        <time>2021-08-23T15:06:35Z</time>
      </trkpt>
      <trkpt lat="45.1733" lon="2.84425">
        <ele>1195</ele>
        <time>2021-08-23T15:06:37Z</time>
      </trkpt>
      <trkpt lat="45.17332" lon="2.84423">
        <ele>1195.1</ele>
        <time>2021-08-23T15:06:39Z</time>
      </trkpt>
      <trkpt lat="45.17335" lon="2.8442">
        <ele>1195.2</ele>
        <time>2021-08-23T15:06:41Z</time>
      </trkpt>
      <trkpt lat="45.17337" lon="2.84417">
        <ele>1195.3</ele>
        <time>2021-08-23T15:06:43Z</time>
      </trkpt>
      <trkpt lat="45.1734" lon="2.84414">
        <ele>1195.1</ele>
        <time>2021-08-23T15:06:45Z</time>
      </trkpt>
      <trkpt lat="45.17343" lon="2.84411">
        <ele>1195</ele>
        <time>2021-08-23T15:06:47Z</time>
      </trkpt>
      <trkpt lat="45.17347" lon="2.8441">
        <ele>1195</ele>
        <time>2021-08-23T15:06:49Z</time>
      </trkpt>
      <trkpt lat="45.1735" lon="2.84411">
        <ele>1195.4</ele>
        <time>2021-08-23T15:06:51Z</time>
      </trkpt>
      <trkpt lat="45.17353" lon="2.84413">
        <ele>1195.9</ele>
        <time>2021-08-23T15:06:53Z</time>
      </trkpt>
      <trkpt lat="45.17356" lon="2.84411">
        <ele>1195.9</ele>
        <time>2021-08-23T15:06:55Z</time>
      </trkpt>
      <trkpt lat="45.17354" lon="2.84407">
        <ele>1195.2</ele>
        <time>2021-08-23T15:06:57Z</time>
      </trkpt>
      <trkpt lat="45.17351" lon="2.84405">
        <ele>1194.7</ele>
        <time>2021-08-23T15:06:59Z</time>
      </trkpt>
      <trkpt lat="45.17349" lon="2.84404">
        <ele>1194.4</ele>
        <time>2021-08-23T15:07:01Z</time>
      </trkpt>
      <trkpt lat="45.17347" lon="2.84402">
        <ele>1194</ele>
        <time>2021-08-23T15:07:03Z</time>
      </trkpt>
      <trkpt lat="45.17344" lon="2.84402">
        <ele>1193.8</ele>
        <time>2021-08-23T15:07:05Z</time>
      </trkpt>
      <trkpt lat="45.17343" lon="2.84403">
        <ele>1193.8</ele>
        <time>2021-08-23T15:07:07Z</time>
      </trkpt>
      <trkpt lat="45.17344" lon="2.84402">
        <ele>1193.8</ele>
        <time>2021-08-23T15:07:09Z</time>
      </trkpt>
      <trkpt lat="45.17344" lon="2.84402">
        <ele>1193.8</ele>
        <time>2021-08-23T15:07:11Z</time>
      </trkpt>
      <trkpt lat="45.17344" lon="2.84403">
        <ele>1193.8</ele>
        <time>2021-08-23T15:07:13Z</time>
      </trkpt>
      <trkpt lat="45.17344" lon="2.84403">
        <ele>1193.8</ele>
        <time>2021-08-23T15:07:15Z</time>
      </trkpt>
      <trkpt lat="45.1735" lon="2.84411">
        <ele>1195.4</ele>
        <time>2021-08-23T15:09:45Z</time>
      </trkpt>
      <trkpt lat="45.17353" lon="2.84412">
        <ele>1195.9</ele>
        <time>2021-08-23T15:09:47Z</time>
      </trkpt>
      <trkpt lat="45.17355" lon="2.84416">
        <ele>1196.5</ele>
        <time>2021-08-23T15:09:49Z</time>
      </trkpt>
      <trkpt lat="45.17356" lon="2.84418">
        <ele>1196.7</ele>
        <time>2021-08-23T15:09:51Z</time>
      </trkpt>
      <trkpt lat="45.17357" lon="2.8442">
        <ele>1196.8</ele>
        <time>2021-08-23T15:09:53Z</time>
      </trkpt>
      <trkpt lat="45.17357" lon="2.84423">
        <ele>1196.9</ele>
        <time>2021-08-23T15:09:55Z</time>
      </trkpt>
      <trkpt lat="45.17358" lon="2.84428">
        <ele>1197.1</ele>
        <time>2021-08-23T15:09:57Z</time>
      </trkpt>
      <trkpt lat="45.1736" lon="2.84435">
        <ele>1197.5</ele>
        <time>2021-08-23T15:09:59Z</time>
      </trkpt>
      <trkpt lat="45.17362" lon="2.84444">
        <ele>1197.9</ele>
        <time>2021-08-23T15:10:01Z</time>
      </trkpt>
      <trkpt lat="45.17366" lon="2.84454">
        <ele>1198.4</ele>
        <time>2021-08-23T15:10:03Z</time>
      </trkpt>
      <trkpt lat="45.17372" lon="2.84463">
        <ele>1199</ele>
        <time>2021-08-23T15:10:05Z</time>
      </trkpt>
      <trkpt lat="45.1738" lon="2.84471">
        <ele>1199.5</ele>
        <time>2021-08-23T15:10:07Z</time>
      </trkpt>
      <trkpt lat="45.17389" lon="2.84474">
        <ele>1199.9</ele>
        <time>2021-08-23T15:10:09Z</time>
      </trkpt>
      <trkpt lat="45.17397" lon="2.84477">
        <ele>1200.3</ele>
        <time>2021-08-23T15:10:11Z</time>
      </trkpt>
      <trkpt lat="45.17405" lon="2.84481">
        <ele>1200.6</ele>
        <time>2021-08-23T15:10:13Z</time>
      </trkpt>
      <trkpt lat="45.17411" lon="2.84482">
        <ele>1200.8</ele>
        <time>2021-08-23T15:10:15Z</time>
      </trkpt>
      <trkpt lat="45.17416" lon="2.84482">
        <ele>1201</ele>
        <time>2021-08-23T15:10:17Z</time>
      </trkpt>
      <trkpt lat="45.17421" lon="2.84483">
        <ele>1201.2</ele>
        <time>2021-08-23T15:10:19Z</time>
      </trkpt>
      <trkpt lat="45.17425" lon="2.84484">
        <ele>1201.3</ele>
        <time>2021-08-23T15:10:21Z</time>
      </trkpt>
      <trkpt lat="45.17428" lon="2.84484">
        <ele>1201.4</ele>
        <time>2021-08-23T15:10:23Z</time>
      </trkpt>
      <trkpt lat="45.17429" lon="2.84485">
        <ele>1201.5</ele>
        <time>2021-08-23T15:10:25Z</time>
      </trkpt>
      <trkpt lat="45.17429" lon="2.84485">
        <ele>1201.5</ele>
        <time>2021-08-23T15:10:27Z</time>
      </trkpt>
      <trkpt lat="45.17429" lon="2.84485">
        <ele>1201.5</ele>
        <time>2021-08-23T15:10:29Z</time>
      </trkpt>
      <trkpt lat="45.17429" lon="2.84485">
        <ele>1201.5</ele>
        <time>2021-08-23T15:10:31Z</time>
      </trkpt>
      <trkpt lat="45.17441" lon="2.84494">
        <ele>1201.9</ele>
        <time>2021-08-23T15:11:29Z</time>
      </trkpt>
      <trkpt lat="45.17444" lon="2.84495">
        <ele>1202</ele>
        <time>2021-08-23T15:11:31Z</time>
      </trkpt>
      <trkpt lat="45.17447" lon="2.84496">
        <ele>1202.1</ele>
        <time>2021-08-23T15:11:33Z</time>
      </trkpt>
      <trkpt lat="45.1745" lon="2.84496">
        <ele>1202.2</ele>
        <time>2021-08-23T15:11:35Z</time>
      </trkpt>
      <trkpt lat="45.17453" lon="2.84495">
        <ele>1202.3</ele>
        <time>2021-08-23T15:11:37Z</time>
      </trkpt>
      <trkpt lat="45.17456" lon="2.84494">
        <ele>1202.4</ele>
        <time>2021-08-23T15:11:39Z</time>
      </trkpt>
      <trkpt lat="45.17459" lon="2.84495">
        <ele>1202.5</ele>
        <time>2021-08-23T15:11:41Z</time>
      </trkpt>
      <trkpt lat="45.17463" lon="2.84496">
        <ele>1202.7</ele>
        <time>2021-08-23T15:11:43Z</time>
      </trkpt>
      <trkpt lat="45.17466" lon="2.84496">
        <ele>1202.8</ele>
        <time>2021-08-23T15:11:45Z</time>
      </trkpt>
      <trkpt lat="45.1747" lon="2.84495">
        <ele>1202.9</ele>
        <time>2021-08-23T15:11:47Z</time>
      </trkpt>
      <trkpt lat="45.17473" lon="2.84494">
        <ele>1203</ele>
        <time>2021-08-23T15:11:49Z</time>
      </trkpt>
      <trkpt lat="45.17477" lon="2.84493">
        <ele>1203.2</ele>
        <time>2021-08-23T15:11:51Z</time>
      </trkpt>
      <trkpt lat="45.17482" lon="2.84491">
        <ele>1203.3</ele>
        <time>2021-08-23T15:11:53Z</time>
      </trkpt>
      <trkpt lat="45.17486" lon="2.84489">
        <ele>1203.5</ele>
        <time>2021-08-23T15:11:55Z</time>
      </trkpt>
      <trkpt lat="45.17492" lon="2.84486">
        <ele>1203.7</ele>
        <time>2021-08-23T15:11:57Z</time>
      </trkpt>
      <trkpt lat="45.17499" lon="2.84482">
        <ele>1204</ele>
        <time>2021-08-23T15:11:59Z</time>
      </trkpt>
      <trkpt lat="45.17506" lon="2.84478">
        <ele>1203.7</ele>
        <time>2021-08-23T15:12:01Z</time>
      </trkpt>
      <trkpt lat="45.17513" lon="2.84476">
        <ele>1203.3</ele>
        <time>2021-08-23T15:12:03Z</time>
      </trkpt>
      <trkpt lat="45.17519" lon="2.84476">
        <ele>1203</ele>
        <time>2021-08-23T15:12:05Z</time>
      </trkpt>
      <trkpt lat="45.17524" lon="2.84477">
        <ele>1202.7</ele>
        <time>2021-08-23T15:12:07Z</time>
      </trkpt>
      <trkpt lat="45.17529" lon="2.84479">
        <ele>1202.5</ele>
        <time>2021-08-23T15:12:09Z</time>
      </trkpt>
      <trkpt lat="45.17533" lon="2.84481">
        <ele>1202.2</ele>
        <time>2021-08-23T15:12:11Z</time>
      </trkpt>
      <trkpt lat="45.17536" lon="2.84486">
        <ele>1202</ele>
        <time>2021-08-23T15:12:13Z</time>
      </trkpt>
      <trkpt lat="45.17539" lon="2.84489">
        <ele>1201.8</ele>
        <time>2021-08-23T15:12:15Z</time>
      </trkpt>
      <trkpt lat="45.17541" lon="2.84491">
        <ele>1201.7</ele>
        <time>2021-08-23T15:12:17Z</time>
      </trkpt>
      <trkpt lat="45.17543" lon="2.84491">
        <ele>1201.5</ele>
        <time>2021-08-23T15:12:19Z</time>
      </trkpt>
      <trkpt lat="45.17546" lon="2.84494">
        <ele>1201.3</ele>
        <time>2021-08-23T15:12:21Z</time>
      </trkpt>
      <trkpt lat="45.17552" lon="2.84498">
        <ele>1200.9</ele>
        <time>2021-08-23T15:12:23Z</time>
      </trkpt>
      <trkpt lat="45.17562" lon="2.84502">
        <ele>1200.1</ele>
        <time>2021-08-23T15:12:25Z</time>
      </trkpt>
      <trkpt lat="45.17571" lon="2.84505">
        <ele>1199.3</ele>
        <time>2021-08-23T15:12:27Z</time>
      </trkpt>
      <trkpt lat="45.17581" lon="2.84509">
        <ele>1198.2</ele>
        <time>2021-08-23T15:12:29Z</time>
      </trkpt>
      <trkpt lat="45.17592" lon="2.84514">
        <ele>1196.2</ele>
        <time>2021-08-23T15:12:31Z</time>
      </trkpt>
      <trkpt lat="45.17602" lon="2.84516">
        <ele>1194.4</ele>
        <time>2021-08-23T15:12:33Z</time>
      </trkpt>
      <trkpt lat="45.17611" lon="2.84518">
        <ele>1192.7</ele>
        <time>2021-08-23T15:12:35Z</time>
      </trkpt>
      <trkpt lat="45.1762" lon="2.84524">
        <ele>1190.9</ele>
        <time>2021-08-23T15:12:37Z</time>
      </trkpt>
      <trkpt lat="45.17628" lon="2.84545">
        <ele>1189</ele>
        <time>2021-08-23T15:12:39Z</time>
      </trkpt>
      <trkpt lat="45.17635" lon="2.84567">
        <ele>1187.6</ele>
        <time>2021-08-23T15:12:41Z</time>
      </trkpt>
      <trkpt lat="45.17646" lon="2.84586">
        <ele>1186.6</ele>
        <time>2021-08-23T15:12:43Z</time>
      </trkpt>
      <trkpt lat="45.17652" lon="2.84608">
        <ele>1187</ele>
        <time>2021-08-23T15:12:45Z</time>
      </trkpt>
      <trkpt lat="45.17652" lon="2.84626">
        <ele>1187.6</ele>
        <time>2021-08-23T15:12:47Z</time>
      </trkpt>
      <trkpt lat="45.17651" lon="2.84635">
        <ele>1188</ele>
        <time>2021-08-23T15:12:49Z</time>
      </trkpt>
      <trkpt lat="45.17652" lon="2.84642">
        <ele>1188.2</ele>
        <time>2021-08-23T15:12:51Z</time>
      </trkpt>
      <trkpt lat="45.17653" lon="2.84646">
        <ele>1188.4</ele>
        <time>2021-08-23T15:12:53Z</time>
      </trkpt>
      <trkpt lat="45.17653" lon="2.84651">
        <ele>1188.6</ele>
        <time>2021-08-23T15:12:55Z</time>
      </trkpt>
      <trkpt lat="45.17652" lon="2.84656">
        <ele>1188.8</ele>
        <time>2021-08-23T15:12:57Z</time>
      </trkpt>
      <trkpt lat="45.17652" lon="2.84662">
        <ele>1189</ele>
        <time>2021-08-23T15:12:59Z</time>
      </trkpt>
      <trkpt lat="45.17653" lon="2.84667">
        <ele>1189.2</ele>
        <time>2021-08-23T15:13:01Z</time>
      </trkpt>
      <trkpt lat="45.17654" lon="2.84672">
        <ele>1188.9</ele>
        <time>2021-08-23T15:13:03Z</time>
      </trkpt>
      <trkpt lat="45.17657" lon="2.84677">
        <ele>1188.7</ele>
        <time>2021-08-23T15:13:05Z</time>
      </trkpt>
      <trkpt lat="45.1766" lon="2.84684">
        <ele>1188.3</ele>
        <time>2021-08-23T15:13:07Z</time>
      </trkpt>
      <trkpt lat="45.17665" lon="2.84693">
        <ele>1187.8</ele>
        <time>2021-08-23T15:13:09Z</time>
      </trkpt>
      <trkpt lat="45.17671" lon="2.84703">
        <ele>1186.4</ele>
        <time>2021-08-23T15:13:11Z</time>
      </trkpt>
      <trkpt lat="45.17677" lon="2.84715">
        <ele>1184.9</ele>
        <time>2021-08-23T15:13:13Z</time>
      </trkpt>
      <trkpt lat="45.17683" lon="2.84728">
        <ele>1183.4</ele>
        <time>2021-08-23T15:13:15Z</time>
      </trkpt>
      <trkpt lat="45.17688" lon="2.8474">
        <ele>1182.2</ele>
        <time>2021-08-23T15:13:17Z</time>
      </trkpt>
      <trkpt lat="45.17691" lon="2.84749">
        <ele>1181.5</ele>
        <time>2021-08-23T15:13:19Z</time>
      </trkpt>
      <trkpt lat="45.17695" lon="2.84755">
        <ele>1180.7</ele>
        <time>2021-08-23T15:13:21Z</time>
      </trkpt>
      <trkpt lat="45.17699" lon="2.84762">
        <ele>1180.1</ele>
        <time>2021-08-23T15:13:23Z</time>
      </trkpt>
      <trkpt lat="45.17705" lon="2.84769">
        <ele>1179.2</ele>
        <time>2021-08-23T15:13:25Z</time>
      </trkpt>
      <trkpt lat="45.17711" lon="2.84778">
        <ele>1178.6</ele>
        <time>2021-08-23T15:13:27Z</time>
      </trkpt>
      <trkpt lat="45.17717" lon="2.84786">
        <ele>1178.1</ele>
        <time>2021-08-23T15:13:29Z</time>
      </trkpt>
      <trkpt lat="45.17724" lon="2.84793">
        <ele>1177.7</ele>
        <time>2021-08-23T15:13:31Z</time>
      </trkpt>
      <trkpt lat="45.17729" lon="2.84797">
        <ele>1177.6</ele>
        <time>2021-08-23T15:13:33Z</time>
      </trkpt>
      <trkpt lat="45.17732" lon="2.84801">
        <ele>1177.5</ele>
        <time>2021-08-23T15:13:35Z</time>
      </trkpt>
      <trkpt lat="45.17733" lon="2.84804">
        <ele>1177.6</ele>
        <time>2021-08-23T15:13:37Z</time>
      </trkpt>
      <trkpt lat="45.17733" lon="2.84805">
        <ele>1177.7</ele>
        <time>2021-08-23T15:13:39Z</time>
      </trkpt>
      <trkpt lat="45.17733" lon="2.84805">
        <ele>1177.7</ele>
        <time>2021-08-23T15:13:41Z</time>
      </trkpt>
      <trkpt lat="45.17733" lon="2.84805">
        <ele>1177.6</ele>
        <time>2021-08-23T15:13:43Z</time>
      </trkpt>
      <trkpt lat="45.17733" lon="2.84805">
        <ele>1177.7</ele>
        <time>2021-08-23T15:13:45Z</time>
      </trkpt>
      <trkpt lat="45.17754" lon="2.84821">
        <ele>1177.7</ele>
        <time>2021-08-23T15:26:15Z</time>
      </trkpt>
      <trkpt lat="45.17758" lon="2.84825">
        <ele>1177.5</ele>
        <time>2021-08-23T15:26:17Z</time>
      </trkpt>
      <trkpt lat="45.17762" lon="2.84828">
        <ele>1177.4</ele>
        <time>2021-08-23T15:26:19Z</time>
      </trkpt>
      <trkpt lat="45.17766" lon="2.8483">
        <ele>1177.2</ele>
        <time>2021-08-23T15:26:21Z</time>
      </trkpt>
      <trkpt lat="45.1777" lon="2.84834">
        <ele>1177.1</ele>
        <time>2021-08-23T15:26:23Z</time>
      </trkpt>
      <trkpt lat="45.17775" lon="2.84839">
        <ele>1176.8</ele>
        <time>2021-08-23T15:26:25Z</time>
      </trkpt>
      <trkpt lat="45.1778" lon="2.84842">
        <ele>1176.5</ele>
        <time>2021-08-23T15:26:27Z</time>
      </trkpt>
      <trkpt lat="45.17785" lon="2.84847">
        <ele>1176.4</ele>
        <time>2021-08-23T15:26:29Z</time>
      </trkpt>
      <trkpt lat="45.1779" lon="2.84851">
        <ele>1176.2</ele>
        <time>2021-08-23T15:26:31Z</time>
      </trkpt>
      <trkpt lat="45.17795" lon="2.84855">
        <ele>1176</ele>
        <time>2021-08-23T15:26:33Z</time>
      </trkpt>
      <trkpt lat="45.17798" lon="2.84858">
        <ele>1176</ele>
        <time>2021-08-23T15:26:35Z</time>
      </trkpt>
      <trkpt lat="45.17799" lon="2.84859">
        <ele>1176.1</ele>
        <time>2021-08-23T15:26:37Z</time>
      </trkpt>
      <trkpt lat="45.17798" lon="2.84859">
        <ele>1176.1</ele>
        <time>2021-08-23T15:26:39Z</time>
      </trkpt>
      <trkpt lat="45.17799" lon="2.84858">
        <ele>1176</ele>
        <time>2021-08-23T15:26:41Z</time>
      </trkpt>
      <trkpt lat="45.17799" lon="2.84858">
        <ele>1176</ele>
        <time>2021-08-23T15:26:43Z</time>
      </trkpt>
      <trkpt lat="45.17799" lon="2.84858">
        <ele>1176</ele>
        <time>2021-08-23T15:26:45Z</time>
      </trkpt>
      <trkpt lat="45.17811" lon="2.84865">
        <ele>1175.8</ele>
        <time>2021-08-23T15:27:29Z</time>
      </trkpt>
      <trkpt lat="45.17815" lon="2.84865">
        <ele>1175.5</ele>
        <time>2021-08-23T15:27:31Z</time>
      </trkpt>
      <trkpt lat="45.17818" lon="2.84863">
        <ele>1175.1</ele>
        <time>2021-08-23T15:27:33Z</time>
      </trkpt>
      <trkpt lat="45.17821" lon="2.84856">
        <ele>1174.3</ele>
        <time>2021-08-23T15:27:35Z</time>
      </trkpt>
      <trkpt lat="45.17824" lon="2.84845">
        <ele>1173</ele>
        <time>2021-08-23T15:27:37Z</time>
      </trkpt>
      <trkpt lat="45.17827" lon="2.84834">
        <ele>1171.7</ele>
        <time>2021-08-23T15:27:39Z</time>
      </trkpt>
      <trkpt lat="45.17828" lon="2.84821">
        <ele>1169.4</ele>
        <time>2021-08-23T15:27:41Z</time>
      </trkpt>
      <trkpt lat="45.17831" lon="2.84808">
        <ele>1166.9</ele>
        <time>2021-08-23T15:27:43Z</time>
      </trkpt>
      <trkpt lat="45.17837" lon="2.84798">
        <ele>1164.7</ele>
        <time>2021-08-23T15:27:45Z</time>
      </trkpt>
      <trkpt lat="45.17845" lon="2.84793">
        <ele>1163.8</ele>
        <time>2021-08-23T15:27:47Z</time>
      </trkpt>
      <trkpt lat="45.17851" lon="2.84791">
        <ele>1163.3</ele>
        <time>2021-08-23T15:27:49Z</time>
      </trkpt>
      <trkpt lat="45.17855" lon="2.84789">
        <ele>1163.1</ele>
        <time>2021-08-23T15:27:51Z</time>
      </trkpt>
      <trkpt lat="45.1786" lon="2.84789">
        <ele>1162.9</ele>
        <time>2021-08-23T15:27:53Z</time>
      </trkpt>
      <trkpt lat="45.17865" lon="2.84788">
        <ele>1162.8</ele>
        <time>2021-08-23T15:27:55Z</time>
      </trkpt>
      <trkpt lat="45.1787" lon="2.84789">
        <ele>1163</ele>
        <time>2021-08-23T15:27:57Z</time>
      </trkpt>
      <trkpt lat="45.17876" lon="2.8479">
        <ele>1163.2</ele>
        <time>2021-08-23T15:27:59Z</time>
      </trkpt>
      <trkpt lat="45.17881" lon="2.84791">
        <ele>1163.3</ele>
        <time>2021-08-23T15:28:01Z</time>
      </trkpt>
      <trkpt lat="45.17887" lon="2.84791">
        <ele>1163.5</ele>
        <time>2021-08-23T15:28:03Z</time>
      </trkpt>
      <trkpt lat="45.17895" lon="2.84792">
        <ele>1163.6</ele>
        <time>2021-08-23T15:28:05Z</time>
      </trkpt>
      <trkpt lat="45.17903" lon="2.84791">
        <ele>1163.3</ele>
        <time>2021-08-23T15:28:07Z</time>
      </trkpt>
      <trkpt lat="45.17909" lon="2.84787">
        <ele>1162.5</ele>
        <time>2021-08-23T15:28:09Z</time>
      </trkpt>
      <trkpt lat="45.17915" lon="2.84781">
        <ele>1161.1</ele>
        <time>2021-08-23T15:28:11Z</time>
      </trkpt>
      <trkpt lat="45.17919" lon="2.84773">
        <ele>1159.7</ele>
        <time>2021-08-23T15:28:13Z</time>
      </trkpt>
      <trkpt lat="45.17923" lon="2.84767">
        <ele>1158.8</ele>
        <time>2021-08-23T15:28:15Z</time>
      </trkpt>
      <trkpt lat="45.17925" lon="2.84759">
        <ele>1157.4</ele>
        <time>2021-08-23T15:28:17Z</time>
      </trkpt>
      <trkpt lat="45.17928" lon="2.84752">
        <ele>1156.1</ele>
        <time>2021-08-23T15:28:19Z</time>
      </trkpt>
      <trkpt lat="45.1793" lon="2.84745">
        <ele>1154.7</ele>
        <time>2021-08-23T15:28:21Z</time>
      </trkpt>
      <trkpt lat="45.17934" lon="2.84741">
        <ele>1154.2</ele>
        <time>2021-08-23T15:28:23Z</time>
      </trkpt>
      <trkpt lat="45.17937" lon="2.84738">
        <ele>1153.9</ele>
        <time>2021-08-23T15:28:25Z</time>
      </trkpt>
      <trkpt lat="45.17938" lon="2.84734">
        <ele>1153.2</ele>
        <time>2021-08-23T15:28:27Z</time>
      </trkpt>
      <trkpt lat="45.17937" lon="2.8473">
        <ele>1152</ele>
        <time>2021-08-23T15:28:29Z</time>
      </trkpt>
      <trkpt lat="45.17933" lon="2.84729">
        <ele>1151.1</ele>
        <time>2021-08-23T15:28:31Z</time>
      </trkpt>
      <trkpt lat="45.17926" lon="2.84734">
        <ele>1151.3</ele>
        <time>2021-08-23T15:28:33Z</time>
      </trkpt>
      <trkpt lat="45.17921" lon="2.84737">
        <ele>1151.5</ele>
        <time>2021-08-23T15:28:35Z</time>
      </trkpt>
      <trkpt lat="45.17914" lon="2.84738">
        <ele>1151.1</ele>
        <time>2021-08-23T15:28:37Z</time>
      </trkpt>
      <trkpt lat="45.17907" lon="2.84737">
        <ele>1150.9</ele>
        <time>2021-08-23T15:28:39Z</time>
      </trkpt>
      <trkpt lat="45.17903" lon="2.84735">
        <ele>1150.5</ele>
        <time>2021-08-23T15:28:41Z</time>
      </trkpt>
      <trkpt lat="45.17899" lon="2.8473">
        <ele>1149.6</ele>
        <time>2021-08-23T15:28:43Z</time>
      </trkpt>
      <trkpt lat="45.17893" lon="2.84725">
        <ele>1148.5</ele>
        <time>2021-08-23T15:28:45Z</time>
      </trkpt>
      <trkpt lat="45.17887" lon="2.84717">
        <ele>1146.9</ele>
        <time>2021-08-23T15:28:47Z</time>
      </trkpt>
      <trkpt lat="45.17881" lon="2.84711">
        <ele>1145.7</ele>
        <time>2021-08-23T15:28:49Z</time>
      </trkpt>
      <trkpt lat="45.17875" lon="2.84706">
        <ele>1144.6</ele>
        <time>2021-08-23T15:28:51Z</time>
      </trkpt>
      <trkpt lat="45.17871" lon="2.84701">
        <ele>1143.8</ele>
        <time>2021-08-23T15:28:53Z</time>
      </trkpt>
      <trkpt lat="45.17868" lon="2.84695">
        <ele>1142.4</ele>
        <time>2021-08-23T15:28:55Z</time>
      </trkpt>
      <trkpt lat="45.17869" lon="2.84686">
        <ele>1140.4</ele>
        <time>2021-08-23T15:28:57Z</time>
      </trkpt>
      <trkpt lat="45.17876" lon="2.84681">
        <ele>1138.8</ele>
        <time>2021-08-23T15:28:59Z</time>
      </trkpt>
      <trkpt lat="45.17885" lon="2.84679">
        <ele>1137.8</ele>
        <time>2021-08-23T15:29:01Z</time>
      </trkpt>
      <trkpt lat="45.17893" lon="2.84672">
        <ele>1135.8</ele>
        <time>2021-08-23T15:29:03Z</time>
      </trkpt>
      <trkpt lat="45.17901" lon="2.84663">
        <ele>1133.2</ele>
        <time>2021-08-23T15:29:05Z</time>
      </trkpt>
      <trkpt lat="45.17907" lon="2.8465">
        <ele>1130.2</ele>
        <time>2021-08-23T15:29:07Z</time>
      </trkpt>
      <trkpt lat="45.17914" lon="2.84632">
        <ele>1126.2</ele>
        <time>2021-08-23T15:29:09Z</time>
      </trkpt>
      <trkpt lat="45.1792" lon="2.84617">
        <ele>1123.4</ele>
        <time>2021-08-23T15:29:11Z</time>
      </trkpt>
      <trkpt lat="45.17927" lon="2.846">
        <ele>1120.9</ele>
        <time>2021-08-23T15:29:13Z</time>
      </trkpt>
      <trkpt lat="45.17935" lon="2.84584">
        <ele>1118.8</ele>
        <time>2021-08-23T15:29:15Z</time>
      </trkpt>
      <trkpt lat="45.1795" lon="2.84569">
        <ele>1117.7</ele>
        <time>2021-08-23T15:29:17Z</time>
      </trkpt>
      <trkpt lat="45.17964" lon="2.84553">
        <ele>1115.9</ele>
        <time>2021-08-23T15:29:19Z</time>
      </trkpt>
      <trkpt lat="45.17979" lon="2.84536">
        <ele>1113.8</ele>
        <time>2021-08-23T15:29:21Z</time>
      </trkpt>
      <trkpt lat="45.17995" lon="2.84522">
        <ele>1112.1</ele>
        <time>2021-08-23T15:29:23Z</time>
      </trkpt>
      <trkpt lat="45.18009" lon="2.84504">
        <ele>1109.1</ele>
        <time>2021-08-23T15:29:25Z</time>
      </trkpt>
      <trkpt lat="45.18025" lon="2.84485">
        <ele>1106.1</ele>
        <time>2021-08-23T15:29:27Z</time>
      </trkpt>
      <trkpt lat="45.1804" lon="2.84464">
        <ele>1102.4</ele>
        <time>2021-08-23T15:29:29Z</time>
      </trkpt>
      <trkpt lat="45.18055" lon="2.84446">
        <ele>1098.9</ele>
        <time>2021-08-23T15:29:31Z</time>
      </trkpt>
      <trkpt lat="45.1807" lon="2.84431">
        <ele>1095.9</ele>
        <time>2021-08-23T15:29:33Z</time>
      </trkpt>
      <trkpt lat="45.18083" lon="2.84418">
        <ele>1093.5</ele>
        <time>2021-08-23T15:29:35Z</time>
      </trkpt>
      <trkpt lat="45.18094" lon="2.84407">
        <ele>1089.8</ele>
        <time>2021-08-23T15:29:37Z</time>
      </trkpt>
      <trkpt lat="45.18105" lon="2.84401">
        <ele>1087</ele>
        <time>2021-08-23T15:29:39Z</time>
      </trkpt>
      <trkpt lat="45.18118" lon="2.844">
        <ele>1085.1</ele>
        <time>2021-08-23T15:29:41Z</time>
      </trkpt>
      <trkpt lat="45.18133" lon="2.84404">
        <ele>1084.1</ele>
        <time>2021-08-23T15:29:43Z</time>
      </trkpt>
      <trkpt lat="45.18148" lon="2.84413">
        <ele>1083.8</ele>
        <time>2021-08-23T15:29:45Z</time>
      </trkpt>
      <trkpt lat="45.18164" lon="2.84426">
        <ele>1084.5</ele>
        <time>2021-08-23T15:29:47Z</time>
      </trkpt>
      <trkpt lat="45.1818" lon="2.84439">
        <ele>1084.2</ele>
        <time>2021-08-23T15:29:49Z</time>
      </trkpt>
      <trkpt lat="45.18194" lon="2.84449">
        <ele>1083.2</ele>
        <time>2021-08-23T15:29:51Z</time>
      </trkpt>
      <trkpt lat="45.18208" lon="2.84459">
        <ele>1082</ele>
        <time>2021-08-23T15:29:53Z</time>
      </trkpt>
      <trkpt lat="45.1822" lon="2.84468">
        <ele>1080.8</ele>
        <time>2021-08-23T15:29:55Z</time>
      </trkpt>
      <trkpt lat="45.18231" lon="2.84476">
        <ele>1079.7</ele>
        <time>2021-08-23T15:29:57Z</time>
      </trkpt>
      <trkpt lat="45.18239" lon="2.84484">
        <ele>1079</ele>
        <time>2021-08-23T15:29:59Z</time>
      </trkpt>
      <trkpt lat="45.18245" lon="2.84493">
        <ele>1079</ele>
        <time>2021-08-23T15:30:01Z</time>
      </trkpt>
      <trkpt lat="45.1825" lon="2.845">
        <ele>1079</ele>
        <time>2021-08-23T15:30:03Z</time>
      </trkpt>
      <trkpt lat="45.18253" lon="2.84504">
        <ele>1079.1</ele>
        <time>2021-08-23T15:30:05Z</time>
      </trkpt>
      <trkpt lat="45.18256" lon="2.84506">
        <ele>1078.8</ele>
        <time>2021-08-23T15:30:07Z</time>
      </trkpt>
      <trkpt lat="45.18257" lon="2.84506">
        <ele>1078.5</ele>
        <time>2021-08-23T15:30:09Z</time>
      </trkpt>
      <trkpt lat="45.18257" lon="2.84505">
        <ele>1078.5</ele>
        <time>2021-08-23T15:30:11Z</time>
      </trkpt>
      <trkpt lat="45.18257" lon="2.84505">
        <ele>1078.5</ele>
        <time>2021-08-23T15:30:13Z</time>
      </trkpt>
      <trkpt lat="45.18257" lon="2.84505">
        <ele>1078.5</ele>
        <time>2021-08-23T15:30:15Z</time>
      </trkpt>
      <trkpt lat="45.18261" lon="2.84507">
        <ele>1078</ele>
        <time>2021-08-23T15:30:17Z</time>
      </trkpt>
      <trkpt lat="45.18264" lon="2.84512">
        <ele>1078.1</ele>
        <time>2021-08-23T15:30:19Z</time>
      </trkpt>
      <trkpt lat="45.18267" lon="2.84518">
        <ele>1078.5</ele>
        <time>2021-08-23T15:30:21Z</time>
      </trkpt>
      <trkpt lat="45.18269" lon="2.84525">
        <ele>1079.2</ele>
        <time>2021-08-23T15:30:23Z</time>
      </trkpt>
      <trkpt lat="45.18272" lon="2.84532">
        <ele>1079.8</ele>
        <time>2021-08-23T15:30:25Z</time>
      </trkpt>
      <trkpt lat="45.18275" lon="2.84539">
        <ele>1080.3</ele>
        <time>2021-08-23T15:30:27Z</time>
      </trkpt>
      <trkpt lat="45.18277" lon="2.84547">
        <ele>1080.9</ele>
        <time>2021-08-23T15:30:29Z</time>
      </trkpt>
      <trkpt lat="45.1828" lon="2.84554">
        <ele>1081.3</ele>
        <time>2021-08-23T15:30:31Z</time>
      </trkpt>
      <trkpt lat="45.18282" lon="2.84561">
        <ele>1081.9</ele>
        <time>2021-08-23T15:30:33Z</time>
      </trkpt>
      <trkpt lat="45.18284" lon="2.84564">
        <ele>1082</ele>
        <time>2021-08-23T15:30:35Z</time>
      </trkpt>
      <trkpt lat="45.18286" lon="2.84571">
        <ele>1082.5</ele>
        <time>2021-08-23T15:30:37Z</time>
      </trkpt>
      <trkpt lat="45.18287" lon="2.84577">
        <ele>1083</ele>
        <time>2021-08-23T15:30:39Z</time>
      </trkpt>
      <trkpt lat="45.18289" lon="2.84583">
        <ele>1083.3</ele>
        <time>2021-08-23T15:30:41Z</time>
      </trkpt>
      <trkpt lat="45.18291" lon="2.84588">
        <ele>1083.8</ele>
        <time>2021-08-23T15:30:43Z</time>
      </trkpt>
      <trkpt lat="45.18292" lon="2.84593">
        <ele>1084.2</ele>
        <time>2021-08-23T15:30:45Z</time>
      </trkpt>
      <trkpt lat="45.18295" lon="2.84598">
        <ele>1084.3</ele>
        <time>2021-08-23T15:30:47Z</time>
      </trkpt>
      <trkpt lat="45.18296" lon="2.84604">
        <ele>1084.9</ele>
        <time>2021-08-23T15:30:49Z</time>
      </trkpt>
      <trkpt lat="45.18297" lon="2.84609">
        <ele>1085.2</ele>
        <time>2021-08-23T15:30:51Z</time>
      </trkpt>
      <trkpt lat="45.18299" lon="2.84614">
        <ele>1085.5</ele>
        <time>2021-08-23T15:30:53Z</time>
      </trkpt>
      <trkpt lat="45.183" lon="2.84619">
        <ele>1086</ele>
        <time>2021-08-23T15:30:55Z</time>
      </trkpt>
      <trkpt lat="45.18302" lon="2.84624">
        <ele>1086.1</ele>
        <time>2021-08-23T15:30:57Z</time>
      </trkpt>
      <trkpt lat="45.18304" lon="2.84629">
        <ele>1086.3</ele>
        <time>2021-08-23T15:30:59Z</time>
      </trkpt>
      <trkpt lat="45.18305" lon="2.84634">
        <ele>1086.4</ele>
        <time>2021-08-23T15:31:01Z</time>
      </trkpt>
      <trkpt lat="45.18307" lon="2.84639">
        <ele>1086.4</ele>
        <time>2021-08-23T15:31:03Z</time>
      </trkpt>
      <trkpt lat="45.18309" lon="2.84645">
        <ele>1086.6</ele>
        <time>2021-08-23T15:31:05Z</time>
      </trkpt>
      <trkpt lat="45.1831" lon="2.8465">
        <ele>1086.8</ele>
        <time>2021-08-23T15:31:07Z</time>
      </trkpt>
      <trkpt lat="45.18312" lon="2.84655">
        <ele>1086.5</ele>
        <time>2021-08-23T15:31:09Z</time>
      </trkpt>
      <trkpt lat="45.18314" lon="2.8466">
        <ele>1086.3</ele>
        <time>2021-08-23T15:31:11Z</time>
      </trkpt>
      <trkpt lat="45.18317" lon="2.84665">
        <ele>1085.8</ele>
        <time>2021-08-23T15:31:13Z</time>
      </trkpt>
      <trkpt lat="45.18319" lon="2.8467">
        <ele>1085.9</ele>
        <time>2021-08-23T15:31:15Z</time>
      </trkpt>
      <trkpt lat="45.18321" lon="2.84675">
        <ele>1085.8</ele>
        <time>2021-08-23T15:31:17Z</time>
      </trkpt>
      <trkpt lat="45.18322" lon="2.8468">
        <ele>1085.8</ele>
        <time>2021-08-23T15:31:19Z</time>
      </trkpt>
      <trkpt lat="45.18324" lon="2.84685">
        <ele>1085.7</ele>
        <time>2021-08-23T15:31:21Z</time>
      </trkpt>
      <trkpt lat="45.18326" lon="2.8469">
        <ele>1085.6</ele>
        <time>2021-08-23T15:31:23Z</time>
      </trkpt>
      <trkpt lat="45.18328" lon="2.84695">
        <ele>1085.7</ele>
        <time>2021-08-23T15:31:25Z</time>
      </trkpt>
      <trkpt lat="45.18329" lon="2.847">
        <ele>1085.5</ele>
        <time>2021-08-23T15:31:27Z</time>
      </trkpt>
      <trkpt lat="45.18332" lon="2.84705">
        <ele>1085</ele>
        <time>2021-08-23T15:31:29Z</time>
      </trkpt>
      <trkpt lat="45.18333" lon="2.84709">
        <ele>1084.9</ele>
        <time>2021-08-23T15:31:31Z</time>
      </trkpt>
      <trkpt lat="45.18334" lon="2.84715">
        <ele>1085.3</ele>
        <time>2021-08-23T15:31:33Z</time>
      </trkpt>
      <trkpt lat="45.18336" lon="2.84719">
        <ele>1085.6</ele>
        <time>2021-08-23T15:31:35Z</time>
      </trkpt>
      <trkpt lat="45.18337" lon="2.84724">
        <ele>1085.9</ele>
        <time>2021-08-23T15:31:37Z</time>
      </trkpt>
      <trkpt lat="45.18339" lon="2.84729">
        <ele>1086</ele>
        <time>2021-08-23T15:31:39Z</time>
      </trkpt>
      <trkpt lat="45.1834" lon="2.84734">
        <ele>1086.4</ele>
        <time>2021-08-23T15:31:41Z</time>
      </trkpt>
      <trkpt lat="45.18341" lon="2.84738">
        <ele>1086.9</ele>
        <time>2021-08-23T15:31:43Z</time>
      </trkpt>
      <trkpt lat="45.18342" lon="2.84743">
        <ele>1087.3</ele>
        <time>2021-08-23T15:31:45Z</time>
      </trkpt>
      <trkpt lat="45.18343" lon="2.84748">
        <ele>1087.7</ele>
        <time>2021-08-23T15:31:47Z</time>
      </trkpt>
      <trkpt lat="45.18344" lon="2.84753">
        <ele>1088.4</ele>
        <time>2021-08-23T15:31:49Z</time>
      </trkpt>
      <trkpt lat="45.18344" lon="2.84758">
        <ele>1089.4</ele>
        <time>2021-08-23T15:31:51Z</time>
      </trkpt>
      <trkpt lat="45.18345" lon="2.84763">
        <ele>1090.1</ele>
        <time>2021-08-23T15:31:53Z</time>
      </trkpt>
      <trkpt lat="45.18346" lon="2.84768">
        <ele>1091</ele>
        <time>2021-08-23T15:31:55Z</time>
      </trkpt>
      <trkpt lat="45.18347" lon="2.84774">
        <ele>1091.9</ele>
        <time>2021-08-23T15:31:57Z</time>
      </trkpt>
      <trkpt lat="45.18348" lon="2.84778">
        <ele>1092.7</ele>
        <time>2021-08-23T15:31:59Z</time>
      </trkpt>
      <trkpt lat="45.18349" lon="2.84783">
        <ele>1093.3</ele>
        <time>2021-08-23T15:32:01Z</time>
      </trkpt>
      <trkpt lat="45.1835" lon="2.84788">
        <ele>1093.8</ele>
        <time>2021-08-23T15:32:03Z</time>
      </trkpt>
      <trkpt lat="45.18351" lon="2.84793">
        <ele>1094.7</ele>
        <time>2021-08-23T15:32:05Z</time>
      </trkpt>
      <trkpt lat="45.18352" lon="2.84797">
        <ele>1095.3</ele>
        <time>2021-08-23T15:32:07Z</time>
      </trkpt>
      <trkpt lat="45.18354" lon="2.84802">
        <ele>1095.6</ele>
        <time>2021-08-23T15:32:09Z</time>
      </trkpt>
      <trkpt lat="45.18354" lon="2.84807">
        <ele>1096.2</ele>
        <time>2021-08-23T15:32:11Z</time>
      </trkpt>
      <trkpt lat="45.18355" lon="2.84812">
        <ele>1097</ele>
        <time>2021-08-23T15:32:13Z</time>
      </trkpt>
      <trkpt lat="45.18356" lon="2.84817">
        <ele>1097.6</ele>
        <time>2021-08-23T15:32:15Z</time>
      </trkpt>
      <trkpt lat="45.18357" lon="2.84821">
        <ele>1098.4</ele>
        <time>2021-08-23T15:32:17Z</time>
      </trkpt>
      <trkpt lat="45.18358" lon="2.84826">
        <ele>1098.7</ele>
        <time>2021-08-23T15:32:19Z</time>
      </trkpt>
      <trkpt lat="45.18359" lon="2.84831">
        <ele>1099.4</ele>
        <time>2021-08-23T15:32:21Z</time>
      </trkpt>
      <trkpt lat="45.1836" lon="2.84835">
        <ele>1099.8</ele>
        <time>2021-08-23T15:32:23Z</time>
      </trkpt>
      <trkpt lat="45.1836" lon="2.8484">
        <ele>1100.3</ele>
        <time>2021-08-23T15:32:25Z</time>
      </trkpt>
      <trkpt lat="45.18361" lon="2.84845">
        <ele>1101.1</ele>
        <time>2021-08-23T15:32:27Z</time>
      </trkpt>
      <trkpt lat="45.18362" lon="2.8485">
        <ele>1101.5</ele>
        <time>2021-08-23T15:32:29Z</time>
      </trkpt>
      <trkpt lat="45.18364" lon="2.84855">
        <ele>1101.5</ele>
        <time>2021-08-23T15:32:31Z</time>
      </trkpt>
      <trkpt lat="45.18364" lon="2.8486">
        <ele>1102.2</ele>
        <time>2021-08-23T15:32:33Z</time>
      </trkpt>
      <trkpt lat="45.18365" lon="2.84865">
        <ele>1102.5</ele>
        <time>2021-08-23T15:32:35Z</time>
      </trkpt>
      <trkpt lat="45.18366" lon="2.8487">
        <ele>1103.1</ele>
        <time>2021-08-23T15:32:37Z</time>
      </trkpt>
      <trkpt lat="45.18367" lon="2.84875">
        <ele>1103.5</ele>
        <time>2021-08-23T15:32:39Z</time>
      </trkpt>
      <trkpt lat="45.18367" lon="2.8488">
        <ele>1104.1</ele>
        <time>2021-08-23T15:32:41Z</time>
      </trkpt>
      <trkpt lat="45.18368" lon="2.84885">
        <ele>1104.5</ele>
        <time>2021-08-23T15:32:43Z</time>
      </trkpt>
      <trkpt lat="45.18369" lon="2.84889">
        <ele>1104.6</ele>
        <time>2021-08-23T15:32:45Z</time>
      </trkpt>
      <trkpt lat="45.1837" lon="2.84894">
        <ele>1104.8</ele>
        <time>2021-08-23T15:32:47Z</time>
      </trkpt>
      <trkpt lat="45.18371" lon="2.84899">
        <ele>1105.3</ele>
        <time>2021-08-23T15:32:49Z</time>
      </trkpt>
      <trkpt lat="45.18372" lon="2.84904">
        <ele>1105.4</ele>
        <time>2021-08-23T15:32:51Z</time>
      </trkpt>
      <trkpt lat="45.18373" lon="2.84909">
        <ele>1106.2</ele>
        <time>2021-08-23T15:32:53Z</time>
      </trkpt>
      <trkpt lat="45.18373" lon="2.84914">
        <ele>1106.7</ele>
        <time>2021-08-23T15:32:55Z</time>
      </trkpt>
      <trkpt lat="45.18374" lon="2.8492">
        <ele>1107.3</ele>
        <time>2021-08-23T15:32:57Z</time>
      </trkpt>
      <trkpt lat="45.18376" lon="2.84925">
        <ele>1107.2</ele>
        <time>2021-08-23T15:32:59Z</time>
      </trkpt>
      <trkpt lat="45.18377" lon="2.8493">
        <ele>1107.4</ele>
        <time>2021-08-23T15:33:01Z</time>
      </trkpt>
      <trkpt lat="45.18377" lon="2.84936">
        <ele>1108</ele>
        <time>2021-08-23T15:33:03Z</time>
      </trkpt>
      <trkpt lat="45.18379" lon="2.84941">
        <ele>1107.7</ele>
        <time>2021-08-23T15:33:05Z</time>
      </trkpt>
      <trkpt lat="45.18381" lon="2.84946">
        <ele>1107.8</ele>
        <time>2021-08-23T15:33:07Z</time>
      </trkpt>
      <trkpt lat="45.18382" lon="2.84952">
        <ele>1108.1</ele>
        <time>2021-08-23T15:33:09Z</time>
      </trkpt>
      <trkpt lat="45.18383" lon="2.84957">
        <ele>1108</ele>
        <time>2021-08-23T15:33:11Z</time>
      </trkpt>
      <trkpt lat="45.18385" lon="2.84962">
        <ele>1107.6</ele>
        <time>2021-08-23T15:33:13Z</time>
      </trkpt>
      <trkpt lat="45.18386" lon="2.84968">
        <ele>1107.6</ele>
        <time>2021-08-23T15:33:15Z</time>
      </trkpt>
      <trkpt lat="45.18388" lon="2.84972">
        <ele>1107.2</ele>
        <time>2021-08-23T15:33:17Z</time>
      </trkpt>
      <trkpt lat="45.18389" lon="2.84978">
        <ele>1107.3</ele>
        <time>2021-08-23T15:33:19Z</time>
      </trkpt>
      <trkpt lat="45.18389" lon="2.84983">
        <ele>1107.9</ele>
        <time>2021-08-23T15:33:21Z</time>
      </trkpt>
      <trkpt lat="45.18391" lon="2.84988">
        <ele>1107.6</ele>
        <time>2021-08-23T15:33:23Z</time>
      </trkpt>
      <trkpt lat="45.18393" lon="2.84994">
        <ele>1107.1</ele>
        <time>2021-08-23T15:33:25Z</time>
      </trkpt>
      <trkpt lat="45.18394" lon="2.84999">
        <ele>1106.9</ele>
        <time>2021-08-23T15:33:27Z</time>
      </trkpt>
      <trkpt lat="45.18395" lon="2.85005">
        <ele>1107.2</ele>
        <time>2021-08-23T15:33:29Z</time>
      </trkpt>
      <trkpt lat="45.18397" lon="2.8501">
        <ele>1107.1</ele>
        <time>2021-08-23T15:33:31Z</time>
      </trkpt>
      <trkpt lat="45.18398" lon="2.85015">
        <ele>1106.9</ele>
        <time>2021-08-23T15:33:33Z</time>
      </trkpt>
      <trkpt lat="45.18399" lon="2.8502">
        <ele>1107.3</ele>
        <time>2021-08-23T15:33:35Z</time>
      </trkpt>
      <trkpt lat="45.18401" lon="2.85025">
        <ele>1106.7</ele>
        <time>2021-08-23T15:33:37Z</time>
      </trkpt>
      <trkpt lat="45.18402" lon="2.8503">
        <ele>1106.8</ele>
        <time>2021-08-23T15:33:39Z</time>
      </trkpt>
      <trkpt lat="45.18403" lon="2.85035">
        <ele>1106.8</ele>
        <time>2021-08-23T15:33:41Z</time>
      </trkpt>
      <trkpt lat="45.18404" lon="2.8504">
        <ele>1106.7</ele>
        <time>2021-08-23T15:33:43Z</time>
      </trkpt>
      <trkpt lat="45.18406" lon="2.85046">
        <ele>1106.9</ele>
        <time>2021-08-23T15:33:45Z</time>
      </trkpt>
      <trkpt lat="45.18407" lon="2.85051">
        <ele>1107</ele>
        <time>2021-08-23T15:33:47Z</time>
      </trkpt>
      <trkpt lat="45.18407" lon="2.85056">
        <ele>1107.4</ele>
        <time>2021-08-23T15:33:49Z</time>
      </trkpt>
      <trkpt lat="45.18408" lon="2.85062">
        <ele>1108.1</ele>
        <time>2021-08-23T15:33:51Z</time>
      </trkpt>
      <trkpt lat="45.18409" lon="2.85067">
        <ele>1108.1</ele>
        <time>2021-08-23T15:33:53Z</time>
      </trkpt>
      <trkpt lat="45.18409" lon="2.85072">
        <ele>1108.7</ele>
        <time>2021-08-23T15:33:55Z</time>
      </trkpt>
      <trkpt lat="45.18411" lon="2.85078">
        <ele>1108.7</ele>
        <time>2021-08-23T15:33:57Z</time>
      </trkpt>
      <trkpt lat="45.18411" lon="2.85083">
        <ele>1109.7</ele>
        <time>2021-08-23T15:33:59Z</time>
      </trkpt>
      <trkpt lat="45.18412" lon="2.85089">
        <ele>1110.2</ele>
        <time>2021-08-23T15:34:01Z</time>
      </trkpt>
      <trkpt lat="45.18413" lon="2.85095">
        <ele>1110</ele>
        <time>2021-08-23T15:34:03Z</time>
      </trkpt>
      <trkpt lat="45.18414" lon="2.85102">
        <ele>1110.9</ele>
        <time>2021-08-23T15:34:05Z</time>
      </trkpt>
      <trkpt lat="45.18415" lon="2.85108">
        <ele>1111.1</ele>
        <time>2021-08-23T15:34:07Z</time>
      </trkpt>
      <trkpt lat="45.18415" lon="2.85114">
        <ele>1112.4</ele>
        <time>2021-08-23T15:34:09Z</time>
      </trkpt>
      <trkpt lat="45.18417" lon="2.8512">
        <ele>1112</ele>
        <time>2021-08-23T15:34:11Z</time>
      </trkpt>
      <trkpt lat="45.18418" lon="2.85126">
        <ele>1112.4</ele>
        <time>2021-08-23T15:34:13Z</time>
      </trkpt>
      <trkpt lat="45.18419" lon="2.85132">
        <ele>1113</ele>
        <time>2021-08-23T15:34:15Z</time>
      </trkpt>
      <trkpt lat="45.18421" lon="2.85138">
        <ele>1113.1</ele>
        <time>2021-08-23T15:34:17Z</time>
      </trkpt>
      <trkpt lat="45.18422" lon="2.85144">
        <ele>1114</ele>
        <time>2021-08-23T15:34:19Z</time>
      </trkpt>
      <trkpt lat="45.18423" lon="2.8515">
        <ele>1114.3</ele>
        <time>2021-08-23T15:34:21Z</time>
      </trkpt>
      <trkpt lat="45.18424" lon="2.85155">
        <ele>1114.9</ele>
        <time>2021-08-23T15:34:23Z</time>
      </trkpt>
      <trkpt lat="45.18426" lon="2.85162">
        <ele>1115.1</ele>
        <time>2021-08-23T15:34:25Z</time>
      </trkpt>
      <trkpt lat="45.18425" lon="2.85168">
        <ele>1116.7</ele>
        <time>2021-08-23T15:34:27Z</time>
      </trkpt>
      <trkpt lat="45.18427" lon="2.85175">
        <ele>1116.6</ele>
        <time>2021-08-23T15:34:29Z</time>
      </trkpt>
      <trkpt lat="45.18429" lon="2.85181">
        <ele>1116.7</ele>
        <time>2021-08-23T15:34:31Z</time>
      </trkpt>
      <trkpt lat="45.1843" lon="2.85186">
        <ele>1117</ele>
        <time>2021-08-23T15:34:33Z</time>
      </trkpt>
      <trkpt lat="45.18431" lon="2.85192">
        <ele>1117.3</ele>
        <time>2021-08-23T15:34:35Z</time>
      </trkpt>
      <trkpt lat="45.18433" lon="2.85197">
        <ele>1117.3</ele>
        <time>2021-08-23T15:34:37Z</time>
      </trkpt>
      <trkpt lat="45.18435" lon="2.85203">
        <ele>1117.4</ele>
        <time>2021-08-23T15:34:39Z</time>
      </trkpt>
      <trkpt lat="45.18435" lon="2.85209">
        <ele>1118</ele>
        <time>2021-08-23T15:34:41Z</time>
      </trkpt>
      <trkpt lat="45.18437" lon="2.85214">
        <ele>1117.8</ele>
        <time>2021-08-23T15:34:43Z</time>
      </trkpt>
      <trkpt lat="45.18439" lon="2.8522">
        <ele>1117.8</ele>
        <time>2021-08-23T15:34:45Z</time>
      </trkpt>
      <trkpt lat="45.18441" lon="2.85226">
        <ele>1117.5</ele>
        <time>2021-08-23T15:34:47Z</time>
      </trkpt>
      <trkpt lat="45.18443" lon="2.85231">
        <ele>1117.5</ele>
        <time>2021-08-23T15:34:49Z</time>
      </trkpt>
      <trkpt lat="45.18445" lon="2.85237">
        <ele>1117.7</ele>
        <time>2021-08-23T15:34:51Z</time>
      </trkpt>
      <trkpt lat="45.18446" lon="2.85243">
        <ele>1117.9</ele>
        <time>2021-08-23T15:34:53Z</time>
      </trkpt>
      <trkpt lat="45.18448" lon="2.85249">
        <ele>1117.6</ele>
        <time>2021-08-23T15:34:55Z</time>
      </trkpt>
      <trkpt lat="45.1845" lon="2.85254">
        <ele>1117.7</ele>
        <time>2021-08-23T15:34:57Z</time>
      </trkpt>
      <trkpt lat="45.18452" lon="2.8526">
        <ele>1117.8</ele>
        <time>2021-08-23T15:34:59Z</time>
      </trkpt>
      <trkpt lat="45.18453" lon="2.85266">
        <ele>1117.8</ele>
        <time>2021-08-23T15:35:01Z</time>
      </trkpt>
      <trkpt lat="45.18455" lon="2.85271">
        <ele>1117.5</ele>
        <time>2021-08-23T15:35:03Z</time>
      </trkpt>
      <trkpt lat="45.18457" lon="2.85276">
        <ele>1117.6</ele>
        <time>2021-08-23T15:35:05Z</time>
      </trkpt>
      <trkpt lat="45.18459" lon="2.85281">
        <ele>1117.3</ele>
        <time>2021-08-23T15:35:07Z</time>
      </trkpt>
      <trkpt lat="45.1846" lon="2.85287">
        <ele>1117.7</ele>
        <time>2021-08-23T15:35:09Z</time>
      </trkpt>
      <trkpt lat="45.1846" lon="2.85293">
        <ele>1118.9</ele>
        <time>2021-08-23T15:35:11Z</time>
      </trkpt>
      <trkpt lat="45.18461" lon="2.85299">
        <ele>1119.3</ele>
        <time>2021-08-23T15:35:13Z</time>
      </trkpt>
      <trkpt lat="45.18463" lon="2.85304">
        <ele>1119.5</ele>
        <time>2021-08-23T15:35:15Z</time>
      </trkpt>
      <trkpt lat="45.18463" lon="2.8531">
        <ele>1120.1</ele>
        <time>2021-08-23T15:35:17Z</time>
      </trkpt>
      <trkpt lat="45.18463" lon="2.85315">
        <ele>1121.1</ele>
        <time>2021-08-23T15:35:19Z</time>
      </trkpt>
      <trkpt lat="45.18464" lon="2.85321">
        <ele>1121.8</ele>
        <time>2021-08-23T15:35:21Z</time>
      </trkpt>
      <trkpt lat="45.18465" lon="2.85326">
        <ele>1122.1</ele>
        <time>2021-08-23T15:35:23Z</time>
      </trkpt>
      <trkpt lat="45.18465" lon="2.85332">
        <ele>1122.8</ele>
        <time>2021-08-23T15:35:25Z</time>
      </trkpt>
      <trkpt lat="45.18466" lon="2.85337">
        <ele>1123.4</ele>
        <time>2021-08-23T15:35:27Z</time>
      </trkpt>
      <trkpt lat="45.18467" lon="2.85342">
        <ele>1123.6</ele>
        <time>2021-08-23T15:35:29Z</time>
      </trkpt>
      <trkpt lat="45.18468" lon="2.85346">
        <ele>1123.6</ele>
        <time>2021-08-23T15:35:31Z</time>
      </trkpt>
      <trkpt lat="45.18469" lon="2.85351">
        <ele>1123.8</ele>
        <time>2021-08-23T15:35:33Z</time>
      </trkpt>
      <trkpt lat="45.18471" lon="2.85356">
        <ele>1123.8</ele>
        <time>2021-08-23T15:35:35Z</time>
      </trkpt>
      <trkpt lat="45.18473" lon="2.85361">
        <ele>1123.6</ele>
        <time>2021-08-23T15:35:37Z</time>
      </trkpt>
      <trkpt lat="45.18474" lon="2.85365">
        <ele>1123.5</ele>
        <time>2021-08-23T15:35:39Z</time>
      </trkpt>
      <trkpt lat="45.18476" lon="2.85369">
        <ele>1123.1</ele>
        <time>2021-08-23T15:35:41Z</time>
      </trkpt>
      <trkpt lat="45.18478" lon="2.85374">
        <ele>1122.9</ele>
        <time>2021-08-23T15:35:43Z</time>
      </trkpt>
      <trkpt lat="45.18481" lon="2.85377">
        <ele>1122.3</ele>
        <time>2021-08-23T15:35:45Z</time>
      </trkpt>
      <trkpt lat="45.18483" lon="2.85382">
        <ele>1122.3</ele>
        <time>2021-08-23T15:35:47Z</time>
      </trkpt>
      <trkpt lat="45.18484" lon="2.85387">
        <ele>1122.6</ele>
        <time>2021-08-23T15:35:49Z</time>
      </trkpt>
      <trkpt lat="45.18485" lon="2.85392">
        <ele>1122.6</ele>
        <time>2021-08-23T15:35:51Z</time>
      </trkpt>
      <trkpt lat="45.18488" lon="2.85396">
        <ele>1122.2</ele>
        <time>2021-08-23T15:35:53Z</time>
      </trkpt>
      <trkpt lat="45.1849" lon="2.854">
        <ele>1122.2</ele>
        <time>2021-08-23T15:35:55Z</time>
      </trkpt>
      <trkpt lat="45.18492" lon="2.85405">
        <ele>1122.1</ele>
        <time>2021-08-23T15:35:57Z</time>
      </trkpt>
      <trkpt lat="45.18495" lon="2.85409">
        <ele>1121.6</ele>
        <time>2021-08-23T15:35:59Z</time>
      </trkpt>
      <trkpt lat="45.18498" lon="2.85413">
        <ele>1121.2</ele>
        <time>2021-08-23T15:36:01Z</time>
      </trkpt>
      <trkpt lat="45.185" lon="2.85418">
        <ele>1121.4</ele>
        <time>2021-08-23T15:36:03Z</time>
      </trkpt>
      <trkpt lat="45.18502" lon="2.85422">
        <ele>1121.2</ele>
        <time>2021-08-23T15:36:05Z</time>
      </trkpt>
      <trkpt lat="45.18505" lon="2.85427">
        <ele>1121.1</ele>
        <time>2021-08-23T15:36:07Z</time>
      </trkpt>
      <trkpt lat="45.18507" lon="2.85431">
        <ele>1120.9</ele>
        <time>2021-08-23T15:36:09Z</time>
      </trkpt>
      <trkpt lat="45.1851" lon="2.85436">
        <ele>1120.9</ele>
        <time>2021-08-23T15:36:11Z</time>
      </trkpt>
      <trkpt lat="45.18512" lon="2.85441">
        <ele>1120.7</ele>
        <time>2021-08-23T15:36:13Z</time>
      </trkpt>
      <trkpt lat="45.18516" lon="2.85445">
        <ele>1120.3</ele>
        <time>2021-08-23T15:36:15Z</time>
      </trkpt>
      <trkpt lat="45.18518" lon="2.8545">
        <ele>1120</ele>
        <time>2021-08-23T15:36:17Z</time>
      </trkpt>
      <trkpt lat="45.1852" lon="2.85455">
        <ele>1120</ele>
        <time>2021-08-23T15:36:19Z</time>
      </trkpt>
      <trkpt lat="45.18523" lon="2.8546">
        <ele>1119.9</ele>
        <time>2021-08-23T15:36:21Z</time>
      </trkpt>
      <trkpt lat="45.18525" lon="2.85465">
        <ele>1120</ele>
        <time>2021-08-23T15:36:23Z</time>
      </trkpt>
      <trkpt lat="45.18527" lon="2.85469">
        <ele>1120</ele>
        <time>2021-08-23T15:36:25Z</time>
      </trkpt>
      <trkpt lat="45.18529" lon="2.85475">
        <ele>1120.1</ele>
        <time>2021-08-23T15:36:27Z</time>
      </trkpt>
      <trkpt lat="45.18531" lon="2.8548">
        <ele>1120.2</ele>
        <time>2021-08-23T15:36:29Z</time>
      </trkpt>
      <trkpt lat="45.18533" lon="2.85485">
        <ele>1120.1</ele>
        <time>2021-08-23T15:36:31Z</time>
      </trkpt>
      <trkpt lat="45.18536" lon="2.8549">
        <ele>1119.9</ele>
        <time>2021-08-23T15:36:33Z</time>
      </trkpt>
      <trkpt lat="45.18538" lon="2.85496">
        <ele>1119.8</ele>
        <time>2021-08-23T15:36:35Z</time>
      </trkpt>
      <trkpt lat="45.1854" lon="2.85502">
        <ele>1119.8</ele>
        <time>2021-08-23T15:36:37Z</time>
      </trkpt>
      <trkpt lat="45.18543" lon="2.85508">
        <ele>1119.8</ele>
        <time>2021-08-23T15:36:39Z</time>
      </trkpt>
      <trkpt lat="45.18545" lon="2.85514">
        <ele>1119.7</ele>
        <time>2021-08-23T15:36:41Z</time>
      </trkpt>
      <trkpt lat="45.18547" lon="2.8552">
        <ele>1119.7</ele>
        <time>2021-08-23T15:36:43Z</time>
      </trkpt>
      <trkpt lat="45.1855" lon="2.85526">
        <ele>1119.6</ele>
        <time>2021-08-23T15:36:45Z</time>
      </trkpt>
      <trkpt lat="45.18552" lon="2.85531">
        <ele>1119.4</ele>
        <time>2021-08-23T15:36:47Z</time>
      </trkpt>
      <trkpt lat="45.18554" lon="2.85537">
        <ele>1119.4</ele>
        <time>2021-08-23T15:36:49Z</time>
      </trkpt>
      <trkpt lat="45.18557" lon="2.85542">
        <ele>1119.3</ele>
        <time>2021-08-23T15:36:51Z</time>
      </trkpt>
      <trkpt lat="45.18559" lon="2.85547">
        <ele>1119.2</ele>
        <time>2021-08-23T15:36:53Z</time>
      </trkpt>
      <trkpt lat="45.18561" lon="2.85552">
        <ele>1119.2</ele>
        <time>2021-08-23T15:36:55Z</time>
      </trkpt>
      <trkpt lat="45.18563" lon="2.85557">
        <ele>1119.4</ele>
        <time>2021-08-23T15:36:57Z</time>
      </trkpt>
      <trkpt lat="45.18565" lon="2.85562">
        <ele>1119.4</ele>
        <time>2021-08-23T15:36:59Z</time>
      </trkpt>
      <trkpt lat="45.18567" lon="2.85567">
        <ele>1119.7</ele>
        <time>2021-08-23T15:37:01Z</time>
      </trkpt>
      <trkpt lat="45.18569" lon="2.85572">
        <ele>1119.8</ele>
        <time>2021-08-23T15:37:03Z</time>
      </trkpt>
      <trkpt lat="45.18571" lon="2.85576">
        <ele>1119.8</ele>
        <time>2021-08-23T15:37:05Z</time>
      </trkpt>
      <trkpt lat="45.18573" lon="2.85581">
        <ele>1120.1</ele>
        <time>2021-08-23T15:37:07Z</time>
      </trkpt>
      <trkpt lat="45.18575" lon="2.85586">
        <ele>1120.2</ele>
        <time>2021-08-23T15:37:09Z</time>
      </trkpt>
      <trkpt lat="45.18576" lon="2.8559">
        <ele>1120.3</ele>
        <time>2021-08-23T15:37:11Z</time>
      </trkpt>
      <trkpt lat="45.18578" lon="2.85595">
        <ele>1120.5</ele>
        <time>2021-08-23T15:37:13Z</time>
      </trkpt>
      <trkpt lat="45.1858" lon="2.856">
        <ele>1120.4</ele>
        <time>2021-08-23T15:37:15Z</time>
      </trkpt>
      <trkpt lat="45.18582" lon="2.85604">
        <ele>1120.5</ele>
        <time>2021-08-23T15:37:17Z</time>
      </trkpt>
      <trkpt lat="45.18584" lon="2.85609">
        <ele>1120.6</ele>
        <time>2021-08-23T15:37:19Z</time>
      </trkpt>
      <trkpt lat="45.18585" lon="2.85614">
        <ele>1120.9</ele>
        <time>2021-08-23T15:37:21Z</time>
      </trkpt>
      <trkpt lat="45.18587" lon="2.85618">
        <ele>1121.2</ele>
        <time>2021-08-23T15:37:23Z</time>
      </trkpt>
      <trkpt lat="45.18589" lon="2.85622">
        <ele>1121.4</ele>
        <time>2021-08-23T15:37:25Z</time>
      </trkpt>
      <trkpt lat="45.1859" lon="2.85626">
        <ele>1121.6</ele>
        <time>2021-08-23T15:37:27Z</time>
      </trkpt>
      <trkpt lat="45.18592" lon="2.8563">
        <ele>1121.7</ele>
        <time>2021-08-23T15:37:29Z</time>
      </trkpt>
      <trkpt lat="45.18594" lon="2.85635">
        <ele>1121.9</ele>
        <time>2021-08-23T15:37:31Z</time>
      </trkpt>
      <trkpt lat="45.18596" lon="2.85639">
        <ele>1122</ele>
        <time>2021-08-23T15:37:33Z</time>
      </trkpt>
      <trkpt lat="45.18597" lon="2.85643">
        <ele>1122.1</ele>
        <time>2021-08-23T15:37:35Z</time>
      </trkpt>
      <trkpt lat="45.18599" lon="2.85647">
        <ele>1122.1</ele>
        <time>2021-08-23T15:37:37Z</time>
      </trkpt>
      <trkpt lat="45.186" lon="2.85652">
        <ele>1122.4</ele>
        <time>2021-08-23T15:37:39Z</time>
      </trkpt>
      <trkpt lat="45.18602" lon="2.85656">
        <ele>1122.4</ele>
        <time>2021-08-23T15:37:41Z</time>
      </trkpt>
      <trkpt lat="45.18604" lon="2.85661">
        <ele>1122.5</ele>
        <time>2021-08-23T15:37:43Z</time>
      </trkpt>
      <trkpt lat="45.18605" lon="2.85666">
        <ele>1122.6</ele>
        <time>2021-08-23T15:37:45Z</time>
      </trkpt>
      <trkpt lat="45.18606" lon="2.85671">
        <ele>1122.8</ele>
        <time>2021-08-23T15:37:47Z</time>
      </trkpt>
      <trkpt lat="45.18608" lon="2.85676">
        <ele>1122.9</ele>
        <time>2021-08-23T15:37:49Z</time>
      </trkpt>
      <trkpt lat="45.18609" lon="2.85681">
        <ele>1123.3</ele>
        <time>2021-08-23T15:37:51Z</time>
      </trkpt>
      <trkpt lat="45.18611" lon="2.85687">
        <ele>1123.3</ele>
        <time>2021-08-23T15:37:53Z</time>
      </trkpt>
      <trkpt lat="45.18612" lon="2.85692">
        <ele>1123.5</ele>
        <time>2021-08-23T15:37:55Z</time>
      </trkpt>
      <trkpt lat="45.18613" lon="2.85697">
        <ele>1123.7</ele>
        <time>2021-08-23T15:37:57Z</time>
      </trkpt>
      <trkpt lat="45.18614" lon="2.85702">
        <ele>1124</ele>
        <time>2021-08-23T15:37:59Z</time>
      </trkpt>
      <trkpt lat="45.18615" lon="2.85707">
        <ele>1124.2</ele>
        <time>2021-08-23T15:38:01Z</time>
      </trkpt>
      <trkpt lat="45.18616" lon="2.85712">
        <ele>1124.4</ele>
        <time>2021-08-23T15:38:03Z</time>
      </trkpt>
      <trkpt lat="45.18617" lon="2.85717">
        <ele>1124.6</ele>
        <time>2021-08-23T15:38:05Z</time>
      </trkpt>
      <trkpt lat="45.18619" lon="2.85721">
        <ele>1124.6</ele>
        <time>2021-08-23T15:38:07Z</time>
      </trkpt>
      <trkpt lat="45.18621" lon="2.85725">
        <ele>1124.5</ele>
        <time>2021-08-23T15:38:09Z</time>
      </trkpt>
      <trkpt lat="45.18622" lon="2.85729">
        <ele>1124.5</ele>
        <time>2021-08-23T15:38:11Z</time>
      </trkpt>
      <trkpt lat="45.18623" lon="2.85734">
        <ele>1124.9</ele>
        <time>2021-08-23T15:38:13Z</time>
      </trkpt>
      <trkpt lat="45.18624" lon="2.85738">
        <ele>1125</ele>
        <time>2021-08-23T15:38:15Z</time>
      </trkpt>
      <trkpt lat="45.18624" lon="2.85743">
        <ele>1125.4</ele>
        <time>2021-08-23T15:38:17Z</time>
      </trkpt>
      <trkpt lat="45.18626" lon="2.85747">
        <ele>1125.5</ele>
        <time>2021-08-23T15:38:19Z</time>
      </trkpt>
      <trkpt lat="45.18626" lon="2.85751">
        <ele>1125.7</ele>
        <time>2021-08-23T15:38:21Z</time>
      </trkpt>
      <trkpt lat="45.18628" lon="2.85755">
        <ele>1125.8</ele>
        <time>2021-08-23T15:38:23Z</time>
      </trkpt>
      <trkpt lat="45.18629" lon="2.8576">
        <ele>1126</ele>
        <time>2021-08-23T15:38:25Z</time>
      </trkpt>
      <trkpt lat="45.1863" lon="2.85764">
        <ele>1126.1</ele>
        <time>2021-08-23T15:38:27Z</time>
      </trkpt>
      <trkpt lat="45.1863" lon="2.85768">
        <ele>1126.6</ele>
        <time>2021-08-23T15:38:29Z</time>
      </trkpt>
      <trkpt lat="45.18631" lon="2.85773">
        <ele>1126.8</ele>
        <time>2021-08-23T15:38:31Z</time>
      </trkpt>
      <trkpt lat="45.18632" lon="2.85777">
        <ele>1126.9</ele>
        <time>2021-08-23T15:38:33Z</time>
      </trkpt>
      <trkpt lat="45.18633" lon="2.85781">
        <ele>1127.1</ele>
        <time>2021-08-23T15:38:35Z</time>
      </trkpt>
      <trkpt lat="45.18635" lon="2.85785">
        <ele>1127.2</ele>
        <time>2021-08-23T15:38:37Z</time>
      </trkpt>
      <trkpt lat="45.18636" lon="2.85789">
        <ele>1127.4</ele>
        <time>2021-08-23T15:38:39Z</time>
      </trkpt>
      <trkpt lat="45.18637" lon="2.85794">
        <ele>1127.7</ele>
        <time>2021-08-23T15:38:41Z</time>
      </trkpt>
      <trkpt lat="45.18638" lon="2.85798">
        <ele>1128</ele>
        <time>2021-08-23T15:38:43Z</time>
      </trkpt>
      <trkpt lat="45.18639" lon="2.85802">
        <ele>1128.2</ele>
        <time>2021-08-23T15:38:45Z</time>
      </trkpt>
      <trkpt lat="45.18641" lon="2.85806">
        <ele>1128.4</ele>
        <time>2021-08-23T15:38:47Z</time>
      </trkpt>
      <trkpt lat="45.18642" lon="2.8581">
        <ele>1128.4</ele>
        <time>2021-08-23T15:38:49Z</time>
      </trkpt>
      <trkpt lat="45.18644" lon="2.85814">
        <ele>1128.7</ele>
        <time>2021-08-23T15:38:51Z</time>
      </trkpt>
      <trkpt lat="45.18645" lon="2.85818">
        <ele>1129</ele>
        <time>2021-08-23T15:38:53Z</time>
      </trkpt>
      <trkpt lat="45.18646" lon="2.85822">
        <ele>1129.2</ele>
        <time>2021-08-23T15:38:55Z</time>
      </trkpt>
      <trkpt lat="45.18648" lon="2.85826">
        <ele>1129.4</ele>
        <time>2021-08-23T15:38:57Z</time>
      </trkpt>
      <trkpt lat="45.18649" lon="2.8583">
        <ele>1129.7</ele>
        <time>2021-08-23T15:38:59Z</time>
      </trkpt>
      <trkpt lat="45.18651" lon="2.85834">
        <ele>1129.9</ele>
        <time>2021-08-23T15:39:01Z</time>
      </trkpt>
      <trkpt lat="45.18652" lon="2.85838">
        <ele>1130.3</ele>
        <time>2021-08-23T15:39:03Z</time>
      </trkpt>
      <trkpt lat="45.18653" lon="2.85842">
        <ele>1130.7</ele>
        <time>2021-08-23T15:39:05Z</time>
      </trkpt>
      <trkpt lat="45.18655" lon="2.85846">
        <ele>1131</ele>
        <time>2021-08-23T15:39:07Z</time>
      </trkpt>
      <trkpt lat="45.18657" lon="2.8585">
        <ele>1131.4</ele>
        <time>2021-08-23T15:39:09Z</time>
      </trkpt>
      <trkpt lat="45.18658" lon="2.85854">
        <ele>1131.7</ele>
        <time>2021-08-23T15:39:11Z</time>
      </trkpt>
      <trkpt lat="45.1866" lon="2.85858">
        <ele>1132.2</ele>
        <time>2021-08-23T15:39:13Z</time>
      </trkpt>
      <trkpt lat="45.18662" lon="2.85862">
        <ele>1132.5</ele>
        <time>2021-08-23T15:39:15Z</time>
      </trkpt>
      <trkpt lat="45.18663" lon="2.85866">
        <ele>1133</ele>
        <time>2021-08-23T15:39:17Z</time>
      </trkpt>
      <trkpt lat="45.18664" lon="2.85871">
        <ele>1133.5</ele>
        <time>2021-08-23T15:39:19Z</time>
      </trkpt>
      <trkpt lat="45.18666" lon="2.85875">
        <ele>1134.1</ele>
        <time>2021-08-23T15:39:21Z</time>
      </trkpt>
      <trkpt lat="45.18668" lon="2.8588">
        <ele>1134.8</ele>
        <time>2021-08-23T15:39:23Z</time>
      </trkpt>
      <trkpt lat="45.1867" lon="2.85884">
        <ele>1135.6</ele>
        <time>2021-08-23T15:39:25Z</time>
      </trkpt>
      <trkpt lat="45.18671" lon="2.85888">
        <ele>1136.3</ele>
        <time>2021-08-23T15:39:27Z</time>
      </trkpt>
      <trkpt lat="45.18673" lon="2.85892">
        <ele>1137</ele>
        <time>2021-08-23T15:39:29Z</time>
      </trkpt>
      <trkpt lat="45.18675" lon="2.85896">
        <ele>1137.6</ele>
        <time>2021-08-23T15:39:31Z</time>
      </trkpt>
      <trkpt lat="45.18677" lon="2.859">
        <ele>1138.2</ele>
        <time>2021-08-23T15:39:33Z</time>
      </trkpt>
      <trkpt lat="45.18679" lon="2.85904">
        <ele>1138.8</ele>
        <time>2021-08-23T15:39:35Z</time>
      </trkpt>
      <trkpt lat="45.18681" lon="2.85908">
        <ele>1139.5</ele>
        <time>2021-08-23T15:39:37Z</time>
      </trkpt>
      <trkpt lat="45.18683" lon="2.85911">
        <ele>1140</ele>
        <time>2021-08-23T15:39:39Z</time>
      </trkpt>
      <trkpt lat="45.18685" lon="2.85915">
        <ele>1140.5</ele>
        <time>2021-08-23T15:39:41Z</time>
      </trkpt>
      <trkpt lat="45.18687" lon="2.85919">
        <ele>1140.9</ele>
        <time>2021-08-23T15:39:43Z</time>
      </trkpt>
      <trkpt lat="45.18689" lon="2.85922">
        <ele>1141.2</ele>
        <time>2021-08-23T15:39:45Z</time>
      </trkpt>
      <trkpt lat="45.18691" lon="2.85927">
        <ele>1141.5</ele>
        <time>2021-08-23T15:39:47Z</time>
      </trkpt>
      <trkpt lat="45.18693" lon="2.8593">
        <ele>1141.7</ele>
        <time>2021-08-23T15:39:49Z</time>
      </trkpt>
      <trkpt lat="45.18695" lon="2.85934">
        <ele>1142</ele>
        <time>2021-08-23T15:39:51Z</time>
      </trkpt>
      <trkpt lat="45.18697" lon="2.85937">
        <ele>1142.2</ele>
        <time>2021-08-23T15:39:53Z</time>
      </trkpt>
      <trkpt lat="45.18699" lon="2.85941">
        <ele>1142.5</ele>
        <time>2021-08-23T15:39:55Z</time>
      </trkpt>
      <trkpt lat="45.18701" lon="2.85945">
        <ele>1142.7</ele>
        <time>2021-08-23T15:39:57Z</time>
      </trkpt>
      <trkpt lat="45.18703" lon="2.85949">
        <ele>1142.9</ele>
        <time>2021-08-23T15:39:59Z</time>
      </trkpt>
      <trkpt lat="45.18705" lon="2.85953">
        <ele>1143.2</ele>
        <time>2021-08-23T15:40:01Z</time>
      </trkpt>
      <trkpt lat="45.18707" lon="2.85957">
        <ele>1143.5</ele>
        <time>2021-08-23T15:40:03Z</time>
      </trkpt>
      <trkpt lat="45.18709" lon="2.85961">
        <ele>1143.7</ele>
        <time>2021-08-23T15:40:05Z</time>
      </trkpt>
      <trkpt lat="45.18711" lon="2.85965">
        <ele>1143.9</ele>
        <time>2021-08-23T15:40:07Z</time>
      </trkpt>
      <trkpt lat="45.18713" lon="2.85968">
        <ele>1144.1</ele>
        <time>2021-08-23T15:40:09Z</time>
      </trkpt>
      <trkpt lat="45.18715" lon="2.85972">
        <ele>1144.3</ele>
        <time>2021-08-23T15:40:11Z</time>
      </trkpt>
      <trkpt lat="45.18717" lon="2.85975">
        <ele>1144.5</ele>
        <time>2021-08-23T15:40:13Z</time>
      </trkpt>
      <trkpt lat="45.18718" lon="2.85979">
        <ele>1144.7</ele>
        <time>2021-08-23T15:40:15Z</time>
      </trkpt>
      <trkpt lat="45.1872" lon="2.85982">
        <ele>1144.8</ele>
        <time>2021-08-23T15:40:17Z</time>
      </trkpt>
      <trkpt lat="45.18722" lon="2.85981">
        <ele>1144.7</ele>
        <time>2021-08-23T15:40:19Z</time>
      </trkpt>
      <trkpt lat="45.18721" lon="2.85979">
        <ele>1144.6</ele>
        <time>2021-08-23T15:40:21Z</time>
      </trkpt>
      <trkpt lat="45.1872" lon="2.85976">
        <ele>1144.4</ele>
        <time>2021-08-23T15:40:23Z</time>
      </trkpt>
      <trkpt lat="45.1872" lon="2.85977">
        <ele>1144.5</ele>
        <time>2021-08-23T15:40:25Z</time>
      </trkpt>
      <trkpt lat="45.1872" lon="2.85977">
        <ele>1144.5</ele>
        <time>2021-08-23T15:40:27Z</time>
      </trkpt>
      <trkpt lat="45.1872" lon="2.85977">
        <ele>1144.5</ele>
        <time>2021-08-23T15:40:29Z</time>
      </trkpt>
      <trkpt lat="45.18719" lon="2.85976">
        <ele>1144.5</ele>
        <time>2021-08-23T15:40:31Z</time>
      </trkpt>
      <trkpt lat="45.18719" lon="2.85978">
        <ele>1144.6</ele>
        <time>2021-08-23T15:40:33Z</time>
      </trkpt>
      <trkpt lat="45.18738" lon="2.85984">
        <ele>1144.4</ele>
        <time>2021-08-23T15:41:51Z</time>
      </trkpt>
      <trkpt lat="45.1874" lon="2.85981">
        <ele>1144.2</ele>
        <time>2021-08-23T15:41:53Z</time>
      </trkpt>
      <trkpt lat="45.18743" lon="2.85978">
        <ele>1143.9</ele>
        <time>2021-08-23T15:41:55Z</time>
      </trkpt>
      <trkpt lat="45.18746" lon="2.85976">
        <ele>1143.6</ele>
        <time>2021-08-23T15:41:57Z</time>
      </trkpt>
      <trkpt lat="45.18748" lon="2.85973">
        <ele>1143.4</ele>
        <time>2021-08-23T15:41:59Z</time>
      </trkpt>
      <trkpt lat="45.1875" lon="2.85969">
        <ele>1143.2</ele>
        <time>2021-08-23T15:42:01Z</time>
      </trkpt>
      <trkpt lat="45.18751" lon="2.85967">
        <ele>1143.1</ele>
        <time>2021-08-23T15:42:03Z</time>
      </trkpt>
      <trkpt lat="45.18753" lon="2.85964">
        <ele>1143.1</ele>
        <time>2021-08-23T15:42:05Z</time>
      </trkpt>
      <trkpt lat="45.18755" lon="2.85961">
        <ele>1142.9</ele>
        <time>2021-08-23T15:42:07Z</time>
      </trkpt>
      <trkpt lat="45.18756" lon="2.8596">
        <ele>1142.9</ele>
        <time>2021-08-23T15:42:09Z</time>
      </trkpt>
      <trkpt lat="45.18757" lon="2.85958">
        <ele>1142.9</ele>
        <time>2021-08-23T15:42:11Z</time>
      </trkpt>
      <trkpt lat="45.18758" lon="2.85956">
        <ele>1142.8</ele>
        <time>2021-08-23T15:42:13Z</time>
      </trkpt>
      <trkpt lat="45.1876" lon="2.85953">
        <ele>1142.8</ele>
        <time>2021-08-23T15:42:15Z</time>
      </trkpt>
      <trkpt lat="45.18762" lon="2.8595">
        <ele>1142.8</ele>
        <time>2021-08-23T15:42:17Z</time>
      </trkpt>
      <trkpt lat="45.18763" lon="2.85949">
        <ele>1142.8</ele>
        <time>2021-08-23T15:42:19Z</time>
      </trkpt>
      <trkpt lat="45.18765" lon="2.85948">
        <ele>1142.9</ele>
        <time>2021-08-23T15:42:21Z</time>
      </trkpt>
      <trkpt lat="45.18765" lon="2.85945">
        <ele>1142.7</ele>
        <time>2021-08-23T15:42:23Z</time>
      </trkpt>
      <trkpt lat="45.18763" lon="2.85944">
        <ele>1142.5</ele>
        <time>2021-08-23T15:42:25Z</time>
      </trkpt>
      <trkpt lat="45.18761" lon="2.85947">
        <ele>1142.6</ele>
        <time>2021-08-23T15:42:27Z</time>
      </trkpt>
      <trkpt lat="45.1876" lon="2.85951">
        <ele>1142.7</ele>
        <time>2021-08-23T15:42:29Z</time>
      </trkpt>
      <trkpt lat="45.18759" lon="2.85954">
        <ele>1142.8</ele>
        <time>2021-08-23T15:42:31Z</time>
      </trkpt>
      <trkpt lat="45.18759" lon="2.85954">
        <ele>1142.8</ele>
        <time>2021-08-23T15:42:33Z</time>
      </trkpt>
      <trkpt lat="45.18759" lon="2.85954">
        <ele>1142.8</ele>
        <time>2021-08-23T15:42:35Z</time>
      </trkpt>
      <trkpt lat="45.18759" lon="2.85954">
        <ele>1142.8</ele>
        <time>2021-08-23T15:42:37Z</time>
      </trkpt>
      <trkpt lat="45.18759" lon="2.85954">
        <ele>1142.8</ele>
        <time>2021-08-23T15:42:39Z</time>
      </trkpt>
      <trkpt lat="45.18759" lon="2.85954">
        <ele>1142.8</ele>
        <time>2021-08-23T15:42:41Z</time>
      </trkpt>
      <trkpt lat="45.18758" lon="2.85956">
        <ele>1142.8</ele>
        <time>2021-08-23T15:43:25Z</time>
      </trkpt>
      <trkpt lat="45.18757" lon="2.85958">
        <ele>1142.9</ele>
        <time>2021-08-23T15:43:27Z</time>
      </trkpt>
      <trkpt lat="45.18756" lon="2.85957">
        <ele>1142.8</ele>
        <time>2021-08-23T15:43:29Z</time>
      </trkpt>
      <trkpt lat="45.18756" lon="2.85952">
        <ele>1142.5</ele>
        <time>2021-08-23T15:43:31Z</time>
      </trkpt>
      <trkpt lat="45.18759" lon="2.85947">
        <ele>1142.4</ele>
        <time>2021-08-23T15:43:33Z</time>
      </trkpt>
      <trkpt lat="45.18761" lon="2.85944">
        <ele>1142.4</ele>
        <time>2021-08-23T15:43:35Z</time>
      </trkpt>
      <trkpt lat="45.18764" lon="2.85943">
        <ele>1142.5</ele>
        <time>2021-08-23T15:43:37Z</time>
      </trkpt>
      <trkpt lat="45.18767" lon="2.85936">
        <ele>1142.4</ele>
        <time>2021-08-23T15:43:39Z</time>
      </trkpt>
      <trkpt lat="45.18769" lon="2.85925">
        <ele>1142</ele>
        <time>2021-08-23T15:43:41Z</time>
      </trkpt>
      <trkpt lat="45.18771" lon="2.85916">
        <ele>1141.8</ele>
        <time>2021-08-23T15:43:43Z</time>
      </trkpt>
      <trkpt lat="45.18772" lon="2.85914">
        <ele>1141.7</ele>
        <time>2021-08-23T15:43:45Z</time>
      </trkpt>
      <trkpt lat="45.18773" lon="2.85912">
        <ele>1141.6</ele>
        <time>2021-08-23T15:43:47Z</time>
      </trkpt>
      <trkpt lat="45.18773" lon="2.85912">
        <ele>1141.6</ele>
        <time>2021-08-23T15:43:49Z</time>
      </trkpt>
      <trkpt lat="45.18773" lon="2.85912">
        <ele>1141.6</ele>
        <time>2021-08-23T15:43:51Z</time>
      </trkpt>
      <trkpt lat="45.18772" lon="2.85911">
        <ele>1141.6</ele>
        <time>2021-08-23T15:43:53Z</time>
      </trkpt>
      <trkpt lat="45.18777" lon="2.859">
        <ele>1141.3</ele>
        <time>2021-08-23T15:43:59Z</time>
      </trkpt>
      <trkpt lat="45.18778" lon="2.85892">
        <ele>1141</ele>
        <time>2021-08-23T15:44:01Z</time>
      </trkpt>
      <trkpt lat="45.18779" lon="2.85882">
        <ele>1140.5</ele>
        <time>2021-08-23T15:44:03Z</time>
      </trkpt>
      <trkpt lat="45.1878" lon="2.85871">
        <ele>1140</ele>
        <time>2021-08-23T15:44:05Z</time>
      </trkpt>
      <trkpt lat="45.1878" lon="2.85858">
        <ele>1139.3</ele>
        <time>2021-08-23T15:44:07Z</time>
      </trkpt>
      <trkpt lat="45.18782" lon="2.85843">
        <ele>1138.7</ele>
        <time>2021-08-23T15:44:09Z</time>
      </trkpt>
      <trkpt lat="45.18783" lon="2.85828">
        <ele>1138</ele>
        <time>2021-08-23T15:44:11Z</time>
      </trkpt>
      <trkpt lat="45.18785" lon="2.85812">
        <ele>1137.3</ele>
        <time>2021-08-23T15:44:13Z</time>
      </trkpt>
      <trkpt lat="45.1879" lon="2.85797">
        <ele>1137.1</ele>
        <time>2021-08-23T15:44:15Z</time>
      </trkpt>
      <trkpt lat="45.18794" lon="2.85786">
        <ele>1136.9</ele>
        <time>2021-08-23T15:44:17Z</time>
      </trkpt>
      <trkpt lat="45.18789" lon="2.85774">
        <ele>1135.6</ele>
        <time>2021-08-23T15:44:19Z</time>
      </trkpt>
      <trkpt lat="45.18784" lon="2.85762">
        <ele>1134.2</ele>
        <time>2021-08-23T15:44:21Z</time>
      </trkpt>
      <trkpt lat="45.18782" lon="2.85746">
        <ele>1133.1</ele>
        <time>2021-08-23T15:44:23Z</time>
      </trkpt>
      <trkpt lat="45.18781" lon="2.85728">
        <ele>1132.2</ele>
        <time>2021-08-23T15:44:25Z</time>
      </trkpt>
      <trkpt lat="45.18785" lon="2.85714">
        <ele>1132.1</ele>
        <time>2021-08-23T15:44:27Z</time>
      </trkpt>
      <trkpt lat="45.18787" lon="2.85706">
        <ele>1131.9</ele>
        <time>2021-08-23T15:44:29Z</time>
      </trkpt>
      <trkpt lat="45.18786" lon="2.85697">
        <ele>1131.4</ele>
        <time>2021-08-23T15:44:31Z</time>
      </trkpt>
      <trkpt lat="45.18784" lon="2.85689">
        <ele>1131</ele>
        <time>2021-08-23T15:44:33Z</time>
      </trkpt>
      <trkpt lat="45.18781" lon="2.85683">
        <ele>1130.5</ele>
        <time>2021-08-23T15:44:35Z</time>
      </trkpt>
      <trkpt lat="45.1878" lon="2.85678">
        <ele>1130.2</ele>
        <time>2021-08-23T15:44:37Z</time>
      </trkpt>
      <trkpt lat="45.18777" lon="2.85676">
        <ele>1130</ele>
        <time>2021-08-23T15:44:39Z</time>
      </trkpt>
      <trkpt lat="45.18776" lon="2.85671">
        <ele>1129.7</ele>
        <time>2021-08-23T15:44:41Z</time>
      </trkpt>
      <trkpt lat="45.18774" lon="2.85667">
        <ele>1129.5</ele>
        <time>2021-08-23T15:44:43Z</time>
      </trkpt>
      <trkpt lat="45.18773" lon="2.85663">
        <ele>1129.3</ele>
        <time>2021-08-23T15:44:45Z</time>
      </trkpt>
      <trkpt lat="45.18771" lon="2.85659">
        <ele>1129.1</ele>
        <time>2021-08-23T15:44:47Z</time>
      </trkpt>
      <trkpt lat="45.18769" lon="2.85656">
        <ele>1129</ele>
        <time>2021-08-23T15:44:49Z</time>
      </trkpt>
      <trkpt lat="45.18767" lon="2.85652">
        <ele>1128.9</ele>
        <time>2021-08-23T15:44:51Z</time>
      </trkpt>
      <trkpt lat="45.18765" lon="2.85648">
        <ele>1128.8</ele>
        <time>2021-08-23T15:44:53Z</time>
      </trkpt>
      <trkpt lat="45.18764" lon="2.85644">
        <ele>1128.7</ele>
        <time>2021-08-23T15:44:55Z</time>
      </trkpt>
      <trkpt lat="45.18763" lon="2.85641">
        <ele>1128.7</ele>
        <time>2021-08-23T15:44:57Z</time>
      </trkpt>
      <trkpt lat="45.18762" lon="2.85639">
        <ele>1128.6</ele>
        <time>2021-08-23T15:44:59Z</time>
      </trkpt>
      <trkpt lat="45.1876" lon="2.85636">
        <ele>1128.6</ele>
        <time>2021-08-23T15:45:01Z</time>
      </trkpt>
      <trkpt lat="45.1876" lon="2.85632">
        <ele>1128.6</ele>
        <time>2021-08-23T15:45:03Z</time>
      </trkpt>
      <trkpt lat="45.18761" lon="2.85627">
        <ele>1128.6</ele>
        <time>2021-08-23T15:45:05Z</time>
      </trkpt>
      <trkpt lat="45.18762" lon="2.85623">
        <ele>1128.6</ele>
        <time>2021-08-23T15:45:07Z</time>
      </trkpt>
      <trkpt lat="45.18762" lon="2.85623">
        <ele>1128.6</ele>
        <time>2021-08-23T15:45:09Z</time>
      </trkpt>
      <trkpt lat="45.18762" lon="2.85623">
        <ele>1128.6</ele>
        <time>2021-08-23T15:45:11Z</time>
      </trkpt>
      <trkpt lat="45.18762" lon="2.85623">
        <ele>1128.6</ele>
        <time>2021-08-23T15:45:13Z</time>
      </trkpt>
      <trkpt lat="45.18762" lon="2.85623">
        <ele>1128.6</ele>
        <time>2021-08-23T15:45:15Z</time>
      </trkpt>
      <trkpt lat="45.18775" lon="2.85668">
        <ele>1129.6</ele>
        <time>2021-08-23T15:58:55Z</time>
      </trkpt>
      <trkpt lat="45.18775" lon="2.85671">
        <ele>1129.7</ele>
        <time>2021-08-23T15:58:57Z</time>
      </trkpt>
      <trkpt lat="45.18777" lon="2.85674">
        <ele>1129.9</ele>
        <time>2021-08-23T15:58:59Z</time>
      </trkpt>
      <trkpt lat="45.18778" lon="2.85678">
        <ele>1130.1</ele>
        <time>2021-08-23T15:59:01Z</time>
      </trkpt>
      <trkpt lat="45.18781" lon="2.85686">
        <ele>1130.6</ele>
        <time>2021-08-23T15:59:03Z</time>
      </trkpt>
      <trkpt lat="45.18782" lon="2.8569">
        <ele>1130.9</ele>
        <time>2021-08-23T15:59:05Z</time>
      </trkpt>
      <trkpt lat="45.18784" lon="2.85697">
        <ele>1131.3</ele>
        <time>2021-08-23T15:59:07Z</time>
      </trkpt>
      <trkpt lat="45.18786" lon="2.857">
        <ele>1131.6</ele>
        <time>2021-08-23T15:59:09Z</time>
      </trkpt>
      <trkpt lat="45.18788" lon="2.85706">
        <ele>1132</ele>
        <time>2021-08-23T15:59:11Z</time>
      </trkpt>
      <trkpt lat="45.18787" lon="2.85712">
        <ele>1132.2</ele>
        <time>2021-08-23T15:59:13Z</time>
      </trkpt>
      <trkpt lat="45.18785" lon="2.85718">
        <ele>1132.2</ele>
        <time>2021-08-23T15:59:15Z</time>
      </trkpt>
      <trkpt lat="45.18782" lon="2.85726">
        <ele>1132.2</ele>
        <time>2021-08-23T15:59:17Z</time>
      </trkpt>
      <trkpt lat="45.18781" lon="2.85738">
        <ele>1132.6</ele>
        <time>2021-08-23T15:59:19Z</time>
      </trkpt>
      <trkpt lat="45.18782" lon="2.85753">
        <ele>1133.4</ele>
        <time>2021-08-23T15:59:21Z</time>
      </trkpt>
      <trkpt lat="45.18785" lon="2.85762">
        <ele>1134.3</ele>
        <time>2021-08-23T15:59:23Z</time>
      </trkpt>
      <trkpt lat="45.18787" lon="2.85769">
        <ele>1135.1</ele>
        <time>2021-08-23T15:59:25Z</time>
      </trkpt>
      <trkpt lat="45.18789" lon="2.85776">
        <ele>1135.8</ele>
        <time>2021-08-23T15:59:27Z</time>
      </trkpt>
      <trkpt lat="45.18791" lon="2.85782">
        <ele>1136.4</ele>
        <time>2021-08-23T15:59:29Z</time>
      </trkpt>
      <trkpt lat="45.18792" lon="2.85788">
        <ele>1136.8</ele>
        <time>2021-08-23T15:59:31Z</time>
      </trkpt>
      <trkpt lat="45.18791" lon="2.85795">
        <ele>1137.1</ele>
        <time>2021-08-23T15:59:33Z</time>
      </trkpt>
      <trkpt lat="45.18788" lon="2.85803">
        <ele>1137.2</ele>
        <time>2021-08-23T15:59:35Z</time>
      </trkpt>
      <trkpt lat="45.18784" lon="2.85815">
        <ele>1137.4</ele>
        <time>2021-08-23T15:59:37Z</time>
      </trkpt>
      <trkpt lat="45.18784" lon="2.85826">
        <ele>1138</ele>
        <time>2021-08-23T15:59:39Z</time>
      </trkpt>
      <trkpt lat="45.18783" lon="2.85836">
        <ele>1138.5</ele>
        <time>2021-08-23T15:59:41Z</time>
      </trkpt>
      <trkpt lat="45.18782" lon="2.85845">
        <ele>1138.9</ele>
        <time>2021-08-23T15:59:43Z</time>
      </trkpt>
      <trkpt lat="45.18781" lon="2.85854">
        <ele>1139.3</ele>
        <time>2021-08-23T15:59:45Z</time>
      </trkpt>
      <trkpt lat="45.18781" lon="2.85861">
        <ele>1139.6</ele>
        <time>2021-08-23T15:59:47Z</time>
      </trkpt>
      <trkpt lat="45.1878" lon="2.85869">
        <ele>1140</ele>
        <time>2021-08-23T15:59:49Z</time>
      </trkpt>
      <trkpt lat="45.1878" lon="2.85875">
        <ele>1140.2</ele>
        <time>2021-08-23T15:59:51Z</time>
      </trkpt>
      <trkpt lat="45.1878" lon="2.85882">
        <ele>1140.6</ele>
        <time>2021-08-23T15:59:53Z</time>
      </trkpt>
      <trkpt lat="45.18779" lon="2.85888">
        <ele>1140.8</ele>
        <time>2021-08-23T15:59:55Z</time>
      </trkpt>
      <trkpt lat="45.18778" lon="2.85894">
        <ele>1141.1</ele>
        <time>2021-08-23T15:59:57Z</time>
      </trkpt>
      <trkpt lat="45.18777" lon="2.859">
        <ele>1141.3</ele>
        <time>2021-08-23T15:59:59Z</time>
      </trkpt>
      <trkpt lat="45.18776" lon="2.85906">
        <ele>1141.6</ele>
        <time>2021-08-23T16:00:01Z</time>
      </trkpt>
      <trkpt lat="45.18775" lon="2.85912">
        <ele>1141.8</ele>
        <time>2021-08-23T16:00:03Z</time>
      </trkpt>
      <trkpt lat="45.18773" lon="2.85917">
        <ele>1142</ele>
        <time>2021-08-23T16:00:05Z</time>
      </trkpt>
      <trkpt lat="45.18774" lon="2.85922">
        <ele>1142.2</ele>
        <time>2021-08-23T16:00:07Z</time>
      </trkpt>
      <trkpt lat="45.18773" lon="2.85925">
        <ele>1142.4</ele>
        <time>2021-08-23T16:00:09Z</time>
      </trkpt>
      <trkpt lat="45.18773" lon="2.85926">
        <ele>1142.4</ele>
        <time>2021-08-23T16:00:11Z</time>
      </trkpt>
      <trkpt lat="45.18773" lon="2.85926">
        <ele>1142.4</ele>
        <time>2021-08-23T16:00:13Z</time>
      </trkpt>
      <trkpt lat="45.18773" lon="2.85926">
        <ele>1142.3</ele>
        <time>2021-08-23T16:00:15Z</time>
      </trkpt>
      <trkpt lat="45.18773" lon="2.85926">
        <ele>1142.3</ele>
        <time>2021-08-23T16:00:17Z</time>
      </trkpt>
      <trkpt lat="45.18773" lon="2.85926">
        <ele>1142.4</ele>
        <time>2021-08-23T16:00:19Z</time>
      </trkpt>
      <trkpt lat="45.18765" lon="2.85936">
        <ele>1142.3</ele>
        <time>2021-08-23T16:19:13Z</time>
      </trkpt>
      <trkpt lat="45.18765" lon="2.8594">
        <ele>1142.4</ele>
        <time>2021-08-23T16:19:15Z</time>
      </trkpt>
      <trkpt lat="45.18764" lon="2.85944">
        <ele>1142.6</ele>
        <time>2021-08-23T16:19:17Z</time>
      </trkpt>
      <trkpt lat="45.18762" lon="2.85947">
        <ele>1142.6</ele>
        <time>2021-08-23T16:19:19Z</time>
      </trkpt>
      <trkpt lat="45.1876" lon="2.8595">
        <ele>1142.6</ele>
        <time>2021-08-23T16:19:21Z</time>
      </trkpt>
      <trkpt lat="45.18759" lon="2.85953">
        <ele>1142.7</ele>
        <time>2021-08-23T16:19:23Z</time>
      </trkpt>
      <trkpt lat="45.18757" lon="2.85956">
        <ele>1142.8</ele>
        <time>2021-08-23T16:19:25Z</time>
      </trkpt>
      <trkpt lat="45.18756" lon="2.8596">
        <ele>1142.9</ele>
        <time>2021-08-23T16:19:27Z</time>
      </trkpt>
      <trkpt lat="45.18754" lon="2.85963">
        <ele>1143</ele>
        <time>2021-08-23T16:19:29Z</time>
      </trkpt>
      <trkpt lat="45.18752" lon="2.85968">
        <ele>1143.2</ele>
        <time>2021-08-23T16:19:31Z</time>
      </trkpt>
      <trkpt lat="45.18749" lon="2.85973">
        <ele>1143.4</ele>
        <time>2021-08-23T16:19:33Z</time>
      </trkpt>
      <trkpt lat="45.18743" lon="2.85979">
        <ele>1144</ele>
        <time>2021-08-23T16:19:35Z</time>
      </trkpt>
      <trkpt lat="45.18738" lon="2.85986">
        <ele>1144.6</ele>
        <time>2021-08-23T16:19:37Z</time>
      </trkpt>
      <trkpt lat="45.18735" lon="2.85995">
        <ele>1145.2</ele>
        <time>2021-08-23T16:19:39Z</time>
      </trkpt>
      <trkpt lat="45.18736" lon="2.86002">
        <ele>1145.6</ele>
        <time>2021-08-23T16:19:41Z</time>
      </trkpt>
      <trkpt lat="45.18738" lon="2.86007">
        <ele>1145.6</ele>
        <time>2021-08-23T16:19:43Z</time>
      </trkpt>
      <trkpt lat="45.18741" lon="2.86012">
        <ele>1145.6</ele>
        <time>2021-08-23T16:19:45Z</time>
      </trkpt>
      <trkpt lat="45.18745" lon="2.86015">
        <ele>1145.6</ele>
        <time>2021-08-23T16:19:47Z</time>
      </trkpt>
      <trkpt lat="45.18749" lon="2.86018">
        <ele>1145.5</ele>
        <time>2021-08-23T16:19:49Z</time>
      </trkpt>
      <trkpt lat="45.18754" lon="2.86019">
        <ele>1145.6</ele>
        <time>2021-08-23T16:19:51Z</time>
      </trkpt>
      <trkpt lat="45.18759" lon="2.8602">
        <ele>1145.7</ele>
        <time>2021-08-23T16:19:53Z</time>
      </trkpt>
      <trkpt lat="45.18764" lon="2.8602">
        <ele>1145.8</ele>
        <time>2021-08-23T16:19:55Z</time>
      </trkpt>
      <trkpt lat="45.18768" lon="2.86021">
        <ele>1145.9</ele>
        <time>2021-08-23T16:19:57Z</time>
      </trkpt>
      <trkpt lat="45.18773" lon="2.86021">
        <ele>1146.1</ele>
        <time>2021-08-23T16:19:59Z</time>
      </trkpt>
      <trkpt lat="45.18778" lon="2.86022">
        <ele>1146.2</ele>
        <time>2021-08-23T16:20:01Z</time>
      </trkpt>
      <trkpt lat="45.18783" lon="2.86022">
        <ele>1146.3</ele>
        <time>2021-08-23T16:20:03Z</time>
      </trkpt>
      <trkpt lat="45.18787" lon="2.86022">
        <ele>1146.4</ele>
        <time>2021-08-23T16:20:05Z</time>
      </trkpt>
      <trkpt lat="45.18791" lon="2.86024">
        <ele>1146.5</ele>
        <time>2021-08-23T16:20:07Z</time>
      </trkpt>
      <trkpt lat="45.18795" lon="2.86023">
        <ele>1146.6</ele>
        <time>2021-08-23T16:20:09Z</time>
      </trkpt>
      <trkpt lat="45.18799" lon="2.86024">
        <ele>1146.7</ele>
        <time>2021-08-23T16:20:11Z</time>
      </trkpt>
      <trkpt lat="45.18803" lon="2.86024">
        <ele>1146.8</ele>
        <time>2021-08-23T16:20:13Z</time>
      </trkpt>
      <trkpt lat="45.18808" lon="2.86025">
        <ele>1146.8</ele>
        <time>2021-08-23T16:20:15Z</time>
      </trkpt>
      <trkpt lat="45.18812" lon="2.86024">
        <ele>1146.9</ele>
        <time>2021-08-23T16:20:17Z</time>
      </trkpt>
      <trkpt lat="45.18816" lon="2.86024">
        <ele>1147</ele>
        <time>2021-08-23T16:20:19Z</time>
      </trkpt>
      <trkpt lat="45.1882" lon="2.86025">
        <ele>1147.1</ele>
        <time>2021-08-23T16:20:21Z</time>
      </trkpt>
      <trkpt lat="45.18824" lon="2.86024">
        <ele>1147.2</ele>
        <time>2021-08-23T16:20:23Z</time>
      </trkpt>
      <trkpt lat="45.18828" lon="2.86024">
        <ele>1147.3</ele>
        <time>2021-08-23T16:20:25Z</time>
      </trkpt>
      <trkpt lat="45.18832" lon="2.86024">
        <ele>1147.4</ele>
        <time>2021-08-23T16:20:27Z</time>
      </trkpt>
      <trkpt lat="45.18837" lon="2.86023">
        <ele>1147.4</ele>
        <time>2021-08-23T16:20:29Z</time>
      </trkpt>
      <trkpt lat="45.18842" lon="2.86022">
        <ele>1147.4</ele>
        <time>2021-08-23T16:20:31Z</time>
      </trkpt>
      <trkpt lat="45.18847" lon="2.86021">
        <ele>1147.4</ele>
        <time>2021-08-23T16:20:33Z</time>
      </trkpt>
      <trkpt lat="45.18852" lon="2.8602">
        <ele>1147.3</ele>
        <time>2021-08-23T16:20:35Z</time>
      </trkpt>
      <trkpt lat="45.18856" lon="2.86019">
        <ele>1147.3</ele>
        <time>2021-08-23T16:20:37Z</time>
      </trkpt>
      <trkpt lat="45.18861" lon="2.86019">
        <ele>1147.3</ele>
        <time>2021-08-23T16:20:39Z</time>
      </trkpt>
      <trkpt lat="45.18865" lon="2.86019">
        <ele>1147.3</ele>
        <time>2021-08-23T16:20:41Z</time>
      </trkpt>
      <trkpt lat="45.18869" lon="2.8602">
        <ele>1147.2</ele>
        <time>2021-08-23T16:20:43Z</time>
      </trkpt>
      <trkpt lat="45.18871" lon="2.8602">
        <ele>1147.2</ele>
        <time>2021-08-23T16:20:45Z</time>
      </trkpt>
      <trkpt lat="45.18872" lon="2.86018">
        <ele>1147.2</ele>
        <time>2021-08-23T16:20:47Z</time>
      </trkpt>
      <trkpt lat="45.18872" lon="2.86018">
        <ele>1147.2</ele>
        <time>2021-08-23T16:20:49Z</time>
      </trkpt>
      <trkpt lat="45.18872" lon="2.86018">
        <ele>1147.2</ele>
        <time>2021-08-23T16:20:51Z</time>
      </trkpt>
      <trkpt lat="45.18872" lon="2.86018">
        <ele>1147.2</ele>
        <time>2021-08-23T16:20:53Z</time>
      </trkpt>
      <trkpt lat="45.18873" lon="2.86018">
        <ele>1147.2</ele>
        <time>2021-08-23T16:20:55Z</time>
      </trkpt>
      <trkpt lat="45.18893" lon="2.86">
        <ele>1147.3</ele>
        <time>2021-08-23T16:22:27Z</time>
      </trkpt>
      <trkpt lat="45.18897" lon="2.85994">
        <ele>1147.2</ele>
        <time>2021-08-23T16:22:29Z</time>
      </trkpt>
      <trkpt lat="45.18901" lon="2.85986">
        <ele>1147</ele>
        <time>2021-08-23T16:22:31Z</time>
      </trkpt>
      <trkpt lat="45.18905" lon="2.85977">
        <ele>1146.9</ele>
        <time>2021-08-23T16:22:33Z</time>
      </trkpt>
      <trkpt lat="45.18909" lon="2.85969">
        <ele>1146.7</ele>
        <time>2021-08-23T16:22:35Z</time>
      </trkpt>
      <trkpt lat="45.18912" lon="2.8596">
        <ele>1146.6</ele>
        <time>2021-08-23T16:22:37Z</time>
      </trkpt>
      <trkpt lat="45.18916" lon="2.85951">
        <ele>1146.4</ele>
        <time>2021-08-23T16:22:39Z</time>
      </trkpt>
      <trkpt lat="45.18918" lon="2.85942">
        <ele>1146.3</ele>
        <time>2021-08-23T16:22:41Z</time>
      </trkpt>
      <trkpt lat="45.18919" lon="2.85933">
        <ele>1146.2</ele>
        <time>2021-08-23T16:22:43Z</time>
      </trkpt>
      <trkpt lat="45.1892" lon="2.85922">
        <ele>1146.1</ele>
        <time>2021-08-23T16:22:45Z</time>
      </trkpt>
      <trkpt lat="45.1892" lon="2.85912">
        <ele>1145.7</ele>
        <time>2021-08-23T16:22:47Z</time>
      </trkpt>
      <trkpt lat="45.1892" lon="2.85902">
        <ele>1145.2</ele>
        <time>2021-08-23T16:22:49Z</time>
      </trkpt>
      <trkpt lat="45.18923" lon="2.85893">
        <ele>1144.7</ele>
        <time>2021-08-23T16:22:51Z</time>
      </trkpt>
      <trkpt lat="45.18928" lon="2.85884">
        <ele>1144.3</ele>
        <time>2021-08-23T16:22:53Z</time>
      </trkpt>
      <trkpt lat="45.18936" lon="2.85877">
        <ele>1144.3</ele>
        <time>2021-08-23T16:22:55Z</time>
      </trkpt>
      <trkpt lat="45.18944" lon="2.85872">
        <ele>1144.4</ele>
        <time>2021-08-23T16:22:57Z</time>
      </trkpt>
      <trkpt lat="45.18953" lon="2.85867">
        <ele>1144.6</ele>
        <time>2021-08-23T16:22:59Z</time>
      </trkpt>
      <trkpt lat="45.18961" lon="2.85861">
        <ele>1144.8</ele>
        <time>2021-08-23T16:23:01Z</time>
      </trkpt>
      <trkpt lat="45.18968" lon="2.85853">
        <ele>1145</ele>
        <time>2021-08-23T16:23:03Z</time>
      </trkpt>
      <trkpt lat="45.18974" lon="2.85844">
        <ele>1145.3</ele>
        <time>2021-08-23T16:23:05Z</time>
      </trkpt>
      <trkpt lat="45.1898" lon="2.85834">
        <ele>1145.6</ele>
        <time>2021-08-23T16:23:07Z</time>
      </trkpt>
      <trkpt lat="45.18985" lon="2.85823">
        <ele>1145.7</ele>
        <time>2021-08-23T16:23:09Z</time>
      </trkpt>
      <trkpt lat="45.18987" lon="2.85811">
        <ele>1145.6</ele>
        <time>2021-08-23T16:23:11Z</time>
      </trkpt>
      <trkpt lat="45.18988" lon="2.85798">
        <ele>1145.4</ele>
        <time>2021-08-23T16:23:13Z</time>
      </trkpt>
      <trkpt lat="45.18988" lon="2.85785">
        <ele>1145.2</ele>
        <time>2021-08-23T16:23:15Z</time>
      </trkpt>
      <trkpt lat="45.18988" lon="2.85772">
        <ele>1144.9</ele>
        <time>2021-08-23T16:23:17Z</time>
      </trkpt>
      <trkpt lat="45.18987" lon="2.85758">
        <ele>1144.6</ele>
        <time>2021-08-23T16:23:19Z</time>
      </trkpt>
      <trkpt lat="45.18984" lon="2.85743">
        <ele>1144</ele>
        <time>2021-08-23T16:23:21Z</time>
      </trkpt>
      <trkpt lat="45.1898" lon="2.85727">
        <ele>1143.3</ele>
        <time>2021-08-23T16:23:23Z</time>
      </trkpt>
      <trkpt lat="45.18975" lon="2.85711">
        <ele>1142.2</ele>
        <time>2021-08-23T16:23:25Z</time>
      </trkpt>
      <trkpt lat="45.18969" lon="2.85693">
        <ele>1141.1</ele>
        <time>2021-08-23T16:23:27Z</time>
      </trkpt>
      <trkpt lat="45.18964" lon="2.85676">
        <ele>1139.8</ele>
        <time>2021-08-23T16:23:29Z</time>
      </trkpt>
      <trkpt lat="45.18961" lon="2.85657">
        <ele>1138.8</ele>
        <time>2021-08-23T16:23:31Z</time>
      </trkpt>
      <trkpt lat="45.18962" lon="2.85639">
        <ele>1138.6</ele>
        <time>2021-08-23T16:23:33Z</time>
      </trkpt>
      <trkpt lat="45.18966" lon="2.85622">
        <ele>1138.9</ele>
        <time>2021-08-23T16:23:35Z</time>
      </trkpt>
      <trkpt lat="45.18971" lon="2.85607">
        <ele>1139.4</ele>
        <time>2021-08-23T16:23:37Z</time>
      </trkpt>
      <trkpt lat="45.18976" lon="2.85593">
        <ele>1139.9</ele>
        <time>2021-08-23T16:23:39Z</time>
      </trkpt>
      <trkpt lat="45.1898" lon="2.8558">
        <ele>1140.3</ele>
        <time>2021-08-23T16:23:41Z</time>
      </trkpt>
      <trkpt lat="45.18985" lon="2.85568">
        <ele>1140.6</ele>
        <time>2021-08-23T16:23:43Z</time>
      </trkpt>
      <trkpt lat="45.18989" lon="2.85556">
        <ele>1140.9</ele>
        <time>2021-08-23T16:23:45Z</time>
      </trkpt>
      <trkpt lat="45.18994" lon="2.85546">
        <ele>1141.1</ele>
        <time>2021-08-23T16:23:47Z</time>
      </trkpt>
      <trkpt lat="45.18998" lon="2.85535">
        <ele>1141.3</ele>
        <time>2021-08-23T16:23:49Z</time>
      </trkpt>
      <trkpt lat="45.19001" lon="2.85525">
        <ele>1141.3</ele>
        <time>2021-08-23T16:23:51Z</time>
      </trkpt>
      <trkpt lat="45.19005" lon="2.85515">
        <ele>1141.1</ele>
        <time>2021-08-23T16:23:53Z</time>
      </trkpt>
      <trkpt lat="45.19008" lon="2.85505">
        <ele>1141</ele>
        <time>2021-08-23T16:23:55Z</time>
      </trkpt>
      <trkpt lat="45.19012" lon="2.85496">
        <ele>1141</ele>
        <time>2021-08-23T16:23:57Z</time>
      </trkpt>
      <trkpt lat="45.19017" lon="2.85487">
        <ele>1141.2</ele>
        <time>2021-08-23T16:23:59Z</time>
      </trkpt>
      <trkpt lat="45.19022" lon="2.8548">
        <ele>1141.4</ele>
        <time>2021-08-23T16:24:01Z</time>
      </trkpt>
      <trkpt lat="45.19027" lon="2.85473">
        <ele>1141.6</ele>
        <time>2021-08-23T16:24:03Z</time>
      </trkpt>
      <trkpt lat="45.19032" lon="2.85468">
        <ele>1141.9</ele>
        <time>2021-08-23T16:24:05Z</time>
      </trkpt>
      <trkpt lat="45.19038" lon="2.85463">
        <ele>1142.1</ele>
        <time>2021-08-23T16:24:07Z</time>
      </trkpt>
      <trkpt lat="45.19043" lon="2.85457">
        <ele>1142.3</ele>
        <time>2021-08-23T16:24:09Z</time>
      </trkpt>
      <trkpt lat="45.19049" lon="2.85452">
        <ele>1142.5</ele>
        <time>2021-08-23T16:24:11Z</time>
      </trkpt>
      <trkpt lat="45.19055" lon="2.85446">
        <ele>1142.7</ele>
        <time>2021-08-23T16:24:13Z</time>
      </trkpt>
      <trkpt lat="45.1906" lon="2.85441">
        <ele>1142.8</ele>
        <time>2021-08-23T16:24:15Z</time>
      </trkpt>
      <trkpt lat="45.19066" lon="2.85437">
        <ele>1143</ele>
        <time>2021-08-23T16:24:17Z</time>
      </trkpt>
      <trkpt lat="45.19072" lon="2.85432">
        <ele>1143.1</ele>
        <time>2021-08-23T16:24:19Z</time>
      </trkpt>
      <trkpt lat="45.19078" lon="2.85428">
        <ele>1143.2</ele>
        <time>2021-08-23T16:24:21Z</time>
      </trkpt>
      <trkpt lat="45.19084" lon="2.85424">
        <ele>1143.4</ele>
        <time>2021-08-23T16:24:23Z</time>
      </trkpt>
      <trkpt lat="45.19089" lon="2.85419">
        <ele>1143.5</ele>
        <time>2021-08-23T16:24:25Z</time>
      </trkpt>
      <trkpt lat="45.19095" lon="2.85415">
        <ele>1143.6</ele>
        <time>2021-08-23T16:24:27Z</time>
      </trkpt>
      <trkpt lat="45.191" lon="2.85411">
        <ele>1143.7</ele>
        <time>2021-08-23T16:24:29Z</time>
      </trkpt>
      <trkpt lat="45.19106" lon="2.85406">
        <ele>1143.8</ele>
        <time>2021-08-23T16:24:31Z</time>
      </trkpt>
      <trkpt lat="45.19112" lon="2.85402">
        <ele>1143.9</ele>
        <time>2021-08-23T16:24:33Z</time>
      </trkpt>
      <trkpt lat="45.19117" lon="2.85398">
        <ele>1144</ele>
        <time>2021-08-23T16:24:35Z</time>
      </trkpt>
      <trkpt lat="45.19123" lon="2.85393">
        <ele>1144</ele>
        <time>2021-08-23T16:24:37Z</time>
      </trkpt>
      <trkpt lat="45.19128" lon="2.85389">
        <ele>1144</ele>
        <time>2021-08-23T16:24:39Z</time>
      </trkpt>
      <trkpt lat="45.19133" lon="2.85385">
        <ele>1144</ele>
        <time>2021-08-23T16:24:41Z</time>
      </trkpt>
      <trkpt lat="45.19138" lon="2.8538">
        <ele>1144</ele>
        <time>2021-08-23T16:24:43Z</time>
      </trkpt>
      <trkpt lat="45.19143" lon="2.85374">
        <ele>1143.8</ele>
        <time>2021-08-23T16:24:45Z</time>
      </trkpt>
      <trkpt lat="45.19147" lon="2.85367">
        <ele>1143.6</ele>
        <time>2021-08-23T16:24:47Z</time>
      </trkpt>
      <trkpt lat="45.1915" lon="2.85359">
        <ele>1143.1</ele>
        <time>2021-08-23T16:24:49Z</time>
      </trkpt>
      <trkpt lat="45.19152" lon="2.85349">
        <ele>1142.5</ele>
        <time>2021-08-23T16:24:51Z</time>
      </trkpt>
      <trkpt lat="45.19154" lon="2.85337">
        <ele>1141.8</ele>
        <time>2021-08-23T16:24:53Z</time>
      </trkpt>
      <trkpt lat="45.19156" lon="2.85325">
        <ele>1141.3</ele>
        <time>2021-08-23T16:24:55Z</time>
      </trkpt>
      <trkpt lat="45.19158" lon="2.8531">
        <ele>1140.9</ele>
        <time>2021-08-23T16:24:57Z</time>
      </trkpt>
      <trkpt lat="45.19162" lon="2.85297">
        <ele>1140.6</ele>
        <time>2021-08-23T16:24:59Z</time>
      </trkpt>
      <trkpt lat="45.1917" lon="2.85283">
        <ele>1140.3</ele>
        <time>2021-08-23T16:25:01Z</time>
      </trkpt>
      <trkpt lat="45.1918" lon="2.85274">
        <ele>1140.1</ele>
        <time>2021-08-23T16:25:03Z</time>
      </trkpt>
      <trkpt lat="45.19192" lon="2.85265">
        <ele>1140.1</ele>
        <time>2021-08-23T16:25:05Z</time>
      </trkpt>
      <trkpt lat="45.19204" lon="2.85256">
        <ele>1140.1</ele>
        <time>2021-08-23T16:25:07Z</time>
      </trkpt>
      <trkpt lat="45.19215" lon="2.85246">
        <ele>1140.2</ele>
        <time>2021-08-23T16:25:09Z</time>
      </trkpt>
      <trkpt lat="45.19227" lon="2.85237">
        <ele>1140.6</ele>
        <time>2021-08-23T16:25:11Z</time>
      </trkpt>
      <trkpt lat="45.19237" lon="2.85228">
        <ele>1140.9</ele>
        <time>2021-08-23T16:25:13Z</time>
      </trkpt>
      <trkpt lat="45.19247" lon="2.85218">
        <ele>1141.3</ele>
        <time>2021-08-23T16:25:15Z</time>
      </trkpt>
      <trkpt lat="45.19255" lon="2.85207">
        <ele>1141.6</ele>
        <time>2021-08-23T16:25:17Z</time>
      </trkpt>
      <trkpt lat="45.19261" lon="2.85194">
        <ele>1141.8</ele>
        <time>2021-08-23T16:25:19Z</time>
      </trkpt>
      <trkpt lat="45.19265" lon="2.8518">
        <ele>1142</ele>
        <time>2021-08-23T16:25:21Z</time>
      </trkpt>
      <trkpt lat="45.19267" lon="2.85167">
        <ele>1142.2</ele>
        <time>2021-08-23T16:25:23Z</time>
      </trkpt>
      <trkpt lat="45.19269" lon="2.85154">
        <ele>1142.4</ele>
        <time>2021-08-23T16:25:25Z</time>
      </trkpt>
      <trkpt lat="45.1927" lon="2.85142">
        <ele>1142.6</ele>
        <time>2021-08-23T16:25:27Z</time>
      </trkpt>
      <trkpt lat="45.19273" lon="2.8513">
        <ele>1142.8</ele>
        <time>2021-08-23T16:25:29Z</time>
      </trkpt>
      <trkpt lat="45.19275" lon="2.85121">
        <ele>1143</ele>
        <time>2021-08-23T16:25:31Z</time>
      </trkpt>
      <trkpt lat="45.19278" lon="2.85112">
        <ele>1143.2</ele>
        <time>2021-08-23T16:25:33Z</time>
      </trkpt>
      <trkpt lat="45.19279" lon="2.85103">
        <ele>1143.4</ele>
        <time>2021-08-23T16:25:35Z</time>
      </trkpt>
      <trkpt lat="45.19281" lon="2.85095">
        <ele>1143.5</ele>
        <time>2021-08-23T16:25:37Z</time>
      </trkpt>
      <trkpt lat="45.19283" lon="2.85087">
        <ele>1143.7</ele>
        <time>2021-08-23T16:25:39Z</time>
      </trkpt>
      <trkpt lat="45.19284" lon="2.85079">
        <ele>1143.9</ele>
        <time>2021-08-23T16:25:41Z</time>
      </trkpt>
      <trkpt lat="45.19286" lon="2.85072">
        <ele>1144.1</ele>
        <time>2021-08-23T16:25:43Z</time>
      </trkpt>
      <trkpt lat="45.19288" lon="2.85063">
        <ele>1144.3</ele>
        <time>2021-08-23T16:25:45Z</time>
      </trkpt>
      <trkpt lat="45.1929" lon="2.85055">
        <ele>1144.4</ele>
        <time>2021-08-23T16:25:47Z</time>
      </trkpt>
      <trkpt lat="45.19292" lon="2.85047">
        <ele>1144.7</ele>
        <time>2021-08-23T16:25:49Z</time>
      </trkpt>
      <trkpt lat="45.19294" lon="2.85039">
        <ele>1144.9</ele>
        <time>2021-08-23T16:25:51Z</time>
      </trkpt>
      <trkpt lat="45.19296" lon="2.8503">
        <ele>1145.1</ele>
        <time>2021-08-23T16:25:53Z</time>
      </trkpt>
      <trkpt lat="45.19299" lon="2.85022">
        <ele>1145.3</ele>
        <time>2021-08-23T16:25:55Z</time>
      </trkpt>
      <trkpt lat="45.19301" lon="2.85013">
        <ele>1145.6</ele>
        <time>2021-08-23T16:25:57Z</time>
      </trkpt>
      <trkpt lat="45.19304" lon="2.85005">
        <ele>1145.9</ele>
        <time>2021-08-23T16:25:59Z</time>
      </trkpt>
      <trkpt lat="45.19307" lon="2.84996">
        <ele>1146.1</ele>
        <time>2021-08-23T16:26:01Z</time>
      </trkpt>
      <trkpt lat="45.19311" lon="2.84987">
        <ele>1146.2</ele>
        <time>2021-08-23T16:26:03Z</time>
      </trkpt>
      <trkpt lat="45.19314" lon="2.84979">
        <ele>1146.3</ele>
        <time>2021-08-23T16:26:05Z</time>
      </trkpt>
      <trkpt lat="45.19317" lon="2.8497">
        <ele>1146.4</ele>
        <time>2021-08-23T16:26:07Z</time>
      </trkpt>
      <trkpt lat="45.1932" lon="2.84962">
        <ele>1146.5</ele>
        <time>2021-08-23T16:26:09Z</time>
      </trkpt>
      <trkpt lat="45.19323" lon="2.84954">
        <ele>1146.6</ele>
        <time>2021-08-23T16:26:11Z</time>
      </trkpt>
      <trkpt lat="45.19326" lon="2.84945">
        <ele>1146.8</ele>
        <time>2021-08-23T16:26:13Z</time>
      </trkpt>
      <trkpt lat="45.1933" lon="2.84937">
        <ele>1146.9</ele>
        <time>2021-08-23T16:26:15Z</time>
      </trkpt>
      <trkpt lat="45.19333" lon="2.84929">
        <ele>1147</ele>
        <time>2021-08-23T16:26:17Z</time>
      </trkpt>
      <trkpt lat="45.19336" lon="2.84921">
        <ele>1147</ele>
        <time>2021-08-23T16:26:19Z</time>
      </trkpt>
      <trkpt lat="45.19339" lon="2.84913">
        <ele>1147.1</ele>
        <time>2021-08-23T16:26:21Z</time>
      </trkpt>
      <trkpt lat="45.19342" lon="2.84905">
        <ele>1147.2</ele>
        <time>2021-08-23T16:26:23Z</time>
      </trkpt>
      <trkpt lat="45.19345" lon="2.84897">
        <ele>1147.3</ele>
        <time>2021-08-23T16:26:25Z</time>
      </trkpt>
      <trkpt lat="45.19348" lon="2.8489">
        <ele>1147.4</ele>
        <time>2021-08-23T16:26:27Z</time>
      </trkpt>
      <trkpt lat="45.19351" lon="2.84882">
        <ele>1147.5</ele>
        <time>2021-08-23T16:26:29Z</time>
      </trkpt>
      <trkpt lat="45.19353" lon="2.84875">
        <ele>1147.6</ele>
        <time>2021-08-23T16:26:31Z</time>
      </trkpt>
      <trkpt lat="45.19356" lon="2.84868">
        <ele>1147.7</ele>
        <time>2021-08-23T16:26:33Z</time>
      </trkpt>
      <trkpt lat="45.19359" lon="2.8486">
        <ele>1147.8</ele>
        <time>2021-08-23T16:26:35Z</time>
      </trkpt>
      <trkpt lat="45.19362" lon="2.84852">
        <ele>1147.9</ele>
        <time>2021-08-23T16:26:37Z</time>
      </trkpt>
      <trkpt lat="45.19365" lon="2.84844">
        <ele>1147.9</ele>
        <time>2021-08-23T16:26:39Z</time>
      </trkpt>
      <trkpt lat="45.19368" lon="2.84835">
        <ele>1148</ele>
        <time>2021-08-23T16:26:41Z</time>
      </trkpt>
      <trkpt lat="45.19371" lon="2.84826">
        <ele>1148</ele>
        <time>2021-08-23T16:26:43Z</time>
      </trkpt>
      <trkpt lat="45.19375" lon="2.84817">
        <ele>1148</ele>
        <time>2021-08-23T16:26:45Z</time>
      </trkpt>
      <trkpt lat="45.19378" lon="2.84807">
        <ele>1148</ele>
        <time>2021-08-23T16:26:47Z</time>
      </trkpt>
      <trkpt lat="45.19382" lon="2.84799">
        <ele>1148</ele>
        <time>2021-08-23T16:26:49Z</time>
      </trkpt>
      <trkpt lat="45.19385" lon="2.84789">
        <ele>1148</ele>
        <time>2021-08-23T16:26:51Z</time>
      </trkpt>
      <trkpt lat="45.19388" lon="2.8478">
        <ele>1148</ele>
        <time>2021-08-23T16:26:53Z</time>
      </trkpt>
      <trkpt lat="45.19391" lon="2.84771">
        <ele>1148</ele>
        <time>2021-08-23T16:26:55Z</time>
      </trkpt>
      <trkpt lat="45.19393" lon="2.84762">
        <ele>1148</ele>
        <time>2021-08-23T16:26:57Z</time>
      </trkpt>
      <trkpt lat="45.19395" lon="2.84752">
        <ele>1148</ele>
        <time>2021-08-23T16:26:59Z</time>
      </trkpt>
      <trkpt lat="45.19396" lon="2.84741">
        <ele>1147.9</ele>
        <time>2021-08-23T16:27:01Z</time>
      </trkpt>
      <trkpt lat="45.19396" lon="2.8473">
        <ele>1147.8</ele>
        <time>2021-08-23T16:27:03Z</time>
      </trkpt>
      <trkpt lat="45.19397" lon="2.84717">
        <ele>1147.7</ele>
        <time>2021-08-23T16:27:05Z</time>
      </trkpt>
      <trkpt lat="45.19397" lon="2.84704">
        <ele>1147.6</ele>
        <time>2021-08-23T16:27:07Z</time>
      </trkpt>
      <trkpt lat="45.19397" lon="2.84691">
        <ele>1147.5</ele>
        <time>2021-08-23T16:27:09Z</time>
      </trkpt>
      <trkpt lat="45.19397" lon="2.84678">
        <ele>1147.3</ele>
        <time>2021-08-23T16:27:11Z</time>
      </trkpt>
      <trkpt lat="45.19398" lon="2.84664">
        <ele>1147.3</ele>
        <time>2021-08-23T16:27:13Z</time>
      </trkpt>
      <trkpt lat="45.19401" lon="2.84649">
        <ele>1147.6</ele>
        <time>2021-08-23T16:27:15Z</time>
      </trkpt>
      <trkpt lat="45.19403" lon="2.84633">
        <ele>1147.9</ele>
        <time>2021-08-23T16:27:17Z</time>
      </trkpt>
      <trkpt lat="45.19406" lon="2.84618">
        <ele>1148.2</ele>
        <time>2021-08-23T16:27:19Z</time>
      </trkpt>
      <trkpt lat="45.19409" lon="2.84603">
        <ele>1148.6</ele>
        <time>2021-08-23T16:27:21Z</time>
      </trkpt>
      <trkpt lat="45.19412" lon="2.84588">
        <ele>1148.9</ele>
        <time>2021-08-23T16:27:23Z</time>
      </trkpt>
      <trkpt lat="45.19415" lon="2.84573">
        <ele>1149.4</ele>
        <time>2021-08-23T16:27:25Z</time>
      </trkpt>
      <trkpt lat="45.19418" lon="2.84559">
        <ele>1149.9</ele>
        <time>2021-08-23T16:27:27Z</time>
      </trkpt>
      <trkpt lat="45.19421" lon="2.84546">
        <ele>1150.5</ele>
        <time>2021-08-23T16:27:29Z</time>
      </trkpt>
      <trkpt lat="45.19424" lon="2.84533">
        <ele>1151.1</ele>
        <time>2021-08-23T16:27:31Z</time>
      </trkpt>
      <trkpt lat="45.19427" lon="2.84521">
        <ele>1151.6</ele>
        <time>2021-08-23T16:27:33Z</time>
      </trkpt>
      <trkpt lat="45.19429" lon="2.84512">
        <ele>1152</ele>
        <time>2021-08-23T16:27:35Z</time>
      </trkpt>
      <trkpt lat="45.1943" lon="2.84503">
        <ele>1152.4</ele>
        <time>2021-08-23T16:27:37Z</time>
      </trkpt>
      <trkpt lat="45.19432" lon="2.84495">
        <ele>1152.7</ele>
        <time>2021-08-23T16:27:39Z</time>
      </trkpt>
      <trkpt lat="45.19433" lon="2.84488">
        <ele>1153</ele>
        <time>2021-08-23T16:27:41Z</time>
      </trkpt>
      <trkpt lat="45.19435" lon="2.84481">
        <ele>1153.2</ele>
        <time>2021-08-23T16:27:43Z</time>
      </trkpt>
      <trkpt lat="45.19436" lon="2.84474">
        <ele>1153.5</ele>
        <time>2021-08-23T16:27:45Z</time>
      </trkpt>
      <trkpt lat="45.19438" lon="2.84467">
        <ele>1153.8</ele>
        <time>2021-08-23T16:27:47Z</time>
      </trkpt>
      <trkpt lat="45.19439" lon="2.84461">
        <ele>1154</ele>
        <time>2021-08-23T16:27:49Z</time>
      </trkpt>
      <trkpt lat="45.19442" lon="2.84455">
        <ele>1154.3</ele>
        <time>2021-08-23T16:27:51Z</time>
      </trkpt>
      <trkpt lat="45.19445" lon="2.84451">
        <ele>1154.6</ele>
        <time>2021-08-23T16:27:53Z</time>
      </trkpt>
      <trkpt lat="45.19449" lon="2.84449">
        <ele>1154.8</ele>
        <time>2021-08-23T16:27:55Z</time>
      </trkpt>
      <trkpt lat="45.19452" lon="2.84446">
        <ele>1155.1</ele>
        <time>2021-08-23T16:27:57Z</time>
      </trkpt>
      <trkpt lat="45.19456" lon="2.84444">
        <ele>1155.4</ele>
        <time>2021-08-23T16:27:59Z</time>
      </trkpt>
      <trkpt lat="45.1946" lon="2.84441">
        <ele>1155.7</ele>
        <time>2021-08-23T16:28:01Z</time>
      </trkpt>
      <trkpt lat="45.19463" lon="2.84439">
        <ele>1156</ele>
        <time>2021-08-23T16:28:03Z</time>
      </trkpt>
      <trkpt lat="45.19467" lon="2.84436">
        <ele>1156.2</ele>
        <time>2021-08-23T16:28:05Z</time>
      </trkpt>
      <trkpt lat="45.1947" lon="2.84434">
        <ele>1156.5</ele>
        <time>2021-08-23T16:28:07Z</time>
      </trkpt>
      <trkpt lat="45.19473" lon="2.84431">
        <ele>1156.8</ele>
        <time>2021-08-23T16:28:09Z</time>
      </trkpt>
      <trkpt lat="45.19476" lon="2.8443">
        <ele>1157</ele>
        <time>2021-08-23T16:28:11Z</time>
      </trkpt>
      <trkpt lat="45.19479" lon="2.84428">
        <ele>1157.3</ele>
        <time>2021-08-23T16:28:13Z</time>
      </trkpt>
      <trkpt lat="45.19482" lon="2.84426">
        <ele>1157.6</ele>
        <time>2021-08-23T16:28:15Z</time>
      </trkpt>
      <trkpt lat="45.19486" lon="2.84424">
        <ele>1157.8</ele>
        <time>2021-08-23T16:28:17Z</time>
      </trkpt>
      <trkpt lat="45.19488" lon="2.84422">
        <ele>1158.1</ele>
        <time>2021-08-23T16:28:19Z</time>
      </trkpt>
      <trkpt lat="45.19491" lon="2.8442">
        <ele>1158.3</ele>
        <time>2021-08-23T16:28:21Z</time>
      </trkpt>
      <trkpt lat="45.19494" lon="2.84418">
        <ele>1158.6</ele>
        <time>2021-08-23T16:28:23Z</time>
      </trkpt>
      <trkpt lat="45.19497" lon="2.84416">
        <ele>1158.9</ele>
        <time>2021-08-23T16:28:25Z</time>
      </trkpt>
      <trkpt lat="45.19501" lon="2.84415">
        <ele>1159.2</ele>
        <time>2021-08-23T16:28:27Z</time>
      </trkpt>
      <trkpt lat="45.19504" lon="2.84415">
        <ele>1159.5</ele>
        <time>2021-08-23T16:28:29Z</time>
      </trkpt>
      <trkpt lat="45.19507" lon="2.84416">
        <ele>1159.9</ele>
        <time>2021-08-23T16:28:31Z</time>
      </trkpt>
      <trkpt lat="45.1951" lon="2.84416">
        <ele>1160.2</ele>
        <time>2021-08-23T16:28:33Z</time>
      </trkpt>
      <trkpt lat="45.19514" lon="2.84417">
        <ele>1160.4</ele>
        <time>2021-08-23T16:28:35Z</time>
      </trkpt>
      <trkpt lat="45.19517" lon="2.84418">
        <ele>1160.8</ele>
        <time>2021-08-23T16:28:37Z</time>
      </trkpt>
      <trkpt lat="45.1952" lon="2.84419">
        <ele>1161.1</ele>
        <time>2021-08-23T16:28:39Z</time>
      </trkpt>
      <trkpt lat="45.19523" lon="2.84422">
        <ele>1161.3</ele>
        <time>2021-08-23T16:28:41Z</time>
      </trkpt>
      <trkpt lat="45.19527" lon="2.84424">
        <ele>1161.5</ele>
        <time>2021-08-23T16:28:43Z</time>
      </trkpt>
      <trkpt lat="45.1953" lon="2.84427">
        <ele>1161.7</ele>
        <time>2021-08-23T16:28:45Z</time>
      </trkpt>
      <trkpt lat="45.19533" lon="2.84429">
        <ele>1161.9</ele>
        <time>2021-08-23T16:28:47Z</time>
      </trkpt>
      <trkpt lat="45.19536" lon="2.84431">
        <ele>1162.2</ele>
        <time>2021-08-23T16:28:49Z</time>
      </trkpt>
      <trkpt lat="45.19539" lon="2.84432">
        <ele>1162.4</ele>
        <time>2021-08-23T16:28:51Z</time>
      </trkpt>
      <trkpt lat="45.19543" lon="2.84433">
        <ele>1162.7</ele>
        <time>2021-08-23T16:28:53Z</time>
      </trkpt>
      <trkpt lat="45.19546" lon="2.84435">
        <ele>1162.9</ele>
        <time>2021-08-23T16:28:55Z</time>
      </trkpt>
      <trkpt lat="45.19549" lon="2.84436">
        <ele>1163.2</ele>
        <time>2021-08-23T16:28:57Z</time>
      </trkpt>
      <trkpt lat="45.19552" lon="2.84438">
        <ele>1163.4</ele>
        <time>2021-08-23T16:28:59Z</time>
      </trkpt>
      <trkpt lat="45.19555" lon="2.84441">
        <ele>1163.6</ele>
        <time>2021-08-23T16:29:01Z</time>
      </trkpt>
      <trkpt lat="45.19558" lon="2.84443">
        <ele>1163.7</ele>
        <time>2021-08-23T16:29:03Z</time>
      </trkpt>
      <trkpt lat="45.1956" lon="2.84446">
        <ele>1163.8</ele>
        <time>2021-08-23T16:29:05Z</time>
      </trkpt>
      <trkpt lat="45.19563" lon="2.8445">
        <ele>1163.9</ele>
        <time>2021-08-23T16:29:07Z</time>
      </trkpt>
      <trkpt lat="45.19566" lon="2.84454">
        <ele>1164</ele>
        <time>2021-08-23T16:29:09Z</time>
      </trkpt>
      <trkpt lat="45.19568" lon="2.84458">
        <ele>1164</ele>
        <time>2021-08-23T16:29:11Z</time>
      </trkpt>
      <trkpt lat="45.1957" lon="2.84463">
        <ele>1163.9</ele>
        <time>2021-08-23T16:29:13Z</time>
      </trkpt>
      <trkpt lat="45.19572" lon="2.84468">
        <ele>1163.8</ele>
        <time>2021-08-23T16:29:15Z</time>
      </trkpt>
      <trkpt lat="45.19574" lon="2.84473">
        <ele>1163.7</ele>
        <time>2021-08-23T16:29:17Z</time>
      </trkpt>
      <trkpt lat="45.19575" lon="2.84479">
        <ele>1163.4</ele>
        <time>2021-08-23T16:29:19Z</time>
      </trkpt>
      <trkpt lat="45.19577" lon="2.84485">
        <ele>1163.2</ele>
        <time>2021-08-23T16:29:21Z</time>
      </trkpt>
      <trkpt lat="45.19578" lon="2.84491">
        <ele>1163</ele>
        <time>2021-08-23T16:29:23Z</time>
      </trkpt>
      <trkpt lat="45.1958" lon="2.84498">
        <ele>1162.8</ele>
        <time>2021-08-23T16:29:25Z</time>
      </trkpt>
      <trkpt lat="45.19581" lon="2.84504">
        <ele>1162.7</ele>
        <time>2021-08-23T16:29:27Z</time>
      </trkpt>
      <trkpt lat="45.19583" lon="2.84511">
        <ele>1162.7</ele>
        <time>2021-08-23T16:29:29Z</time>
      </trkpt>
      <trkpt lat="45.19585" lon="2.84517">
        <ele>1162.8</ele>
        <time>2021-08-23T16:29:31Z</time>
      </trkpt>
      <trkpt lat="45.19587" lon="2.84523">
        <ele>1162.9</ele>
        <time>2021-08-23T16:29:33Z</time>
      </trkpt>
      <trkpt lat="45.19591" lon="2.84526">
        <ele>1163.3</ele>
        <time>2021-08-23T16:29:35Z</time>
      </trkpt>
      <trkpt lat="45.19595" lon="2.84529">
        <ele>1163.7</ele>
        <time>2021-08-23T16:29:37Z</time>
      </trkpt>
      <trkpt lat="45.19599" lon="2.84531">
        <ele>1164.2</ele>
        <time>2021-08-23T16:29:39Z</time>
      </trkpt>
      <trkpt lat="45.19603" lon="2.84532">
        <ele>1164.6</ele>
        <time>2021-08-23T16:29:41Z</time>
      </trkpt>
      <trkpt lat="45.19607" lon="2.8453">
        <ele>1165.1</ele>
        <time>2021-08-23T16:29:43Z</time>
      </trkpt>
      <trkpt lat="45.1961" lon="2.84526">
        <ele>1165.6</ele>
        <time>2021-08-23T16:29:45Z</time>
      </trkpt>
      <trkpt lat="45.19613" lon="2.84522">
        <ele>1166</ele>
        <time>2021-08-23T16:29:47Z</time>
      </trkpt>
      <trkpt lat="45.19614" lon="2.84517">
        <ele>1166.2</ele>
        <time>2021-08-23T16:29:49Z</time>
      </trkpt>
      <trkpt lat="45.19616" lon="2.84512">
        <ele>1166.6</ele>
        <time>2021-08-23T16:29:51Z</time>
      </trkpt>
      <trkpt lat="45.19618" lon="2.84508">
        <ele>1166.9</ele>
        <time>2021-08-23T16:29:53Z</time>
      </trkpt>
      <trkpt lat="45.19619" lon="2.84503">
        <ele>1167.1</ele>
        <time>2021-08-23T16:29:55Z</time>
      </trkpt>
      <trkpt lat="45.19619" lon="2.84498">
        <ele>1167.4</ele>
        <time>2021-08-23T16:29:57Z</time>
      </trkpt>
      <trkpt lat="45.1962" lon="2.84493">
        <ele>1167.6</ele>
        <time>2021-08-23T16:29:59Z</time>
      </trkpt>
      <trkpt lat="45.19621" lon="2.84488">
        <ele>1167.9</ele>
        <time>2021-08-23T16:30:01Z</time>
      </trkpt>
      <trkpt lat="45.19622" lon="2.84483">
        <ele>1168.1</ele>
        <time>2021-08-23T16:30:03Z</time>
      </trkpt>
      <trkpt lat="45.19623" lon="2.84478">
        <ele>1168.3</ele>
        <time>2021-08-23T16:30:05Z</time>
      </trkpt>
      <trkpt lat="45.19625" lon="2.84474">
        <ele>1168.6</ele>
        <time>2021-08-23T16:30:07Z</time>
      </trkpt>
      <trkpt lat="45.19626" lon="2.84469">
        <ele>1168.8</ele>
        <time>2021-08-23T16:30:09Z</time>
      </trkpt>
      <trkpt lat="45.19627" lon="2.84464">
        <ele>1169</ele>
        <time>2021-08-23T16:30:11Z</time>
      </trkpt>
      <trkpt lat="45.19628" lon="2.84459">
        <ele>1169.3</ele>
        <time>2021-08-23T16:30:13Z</time>
      </trkpt>
      <trkpt lat="45.1963" lon="2.84454">
        <ele>1169.5</ele>
        <time>2021-08-23T16:30:15Z</time>
      </trkpt>
      <trkpt lat="45.19634" lon="2.84451">
        <ele>1169.9</ele>
        <time>2021-08-23T16:30:17Z</time>
      </trkpt>
      <trkpt lat="45.19637" lon="2.84448">
        <ele>1170.1</ele>
        <time>2021-08-23T16:30:19Z</time>
      </trkpt>
      <trkpt lat="45.19641" lon="2.84446">
        <ele>1170.4</ele>
        <time>2021-08-23T16:30:21Z</time>
      </trkpt>
      <trkpt lat="45.19646" lon="2.84444">
        <ele>1170.8</ele>
        <time>2021-08-23T16:30:23Z</time>
      </trkpt>
      <trkpt lat="45.1965" lon="2.84444">
        <ele>1171.2</ele>
        <time>2021-08-23T16:30:25Z</time>
      </trkpt>
      <trkpt lat="45.19655" lon="2.84443">
        <ele>1171.5</ele>
        <time>2021-08-23T16:30:27Z</time>
      </trkpt>
      <trkpt lat="45.19661" lon="2.84444">
        <ele>1171.9</ele>
        <time>2021-08-23T16:30:29Z</time>
      </trkpt>
      <trkpt lat="45.19666" lon="2.84443">
        <ele>1172.3</ele>
        <time>2021-08-23T16:30:31Z</time>
      </trkpt>
      <trkpt lat="45.1967" lon="2.84441">
        <ele>1171.6</ele>
        <time>2021-08-23T16:30:33Z</time>
      </trkpt>
      <trkpt lat="45.19676" lon="2.84441">
        <ele>1170.7</ele>
        <time>2021-08-23T16:30:35Z</time>
      </trkpt>
      <trkpt lat="45.19681" lon="2.8444">
        <ele>1169.7</ele>
        <time>2021-08-23T16:30:37Z</time>
      </trkpt>
      <trkpt lat="45.19687" lon="2.84438">
        <ele>1168.8</ele>
        <time>2021-08-23T16:30:39Z</time>
      </trkpt>
      <trkpt lat="45.19692" lon="2.84436">
        <ele>1167.9</ele>
        <time>2021-08-23T16:30:41Z</time>
      </trkpt>
      <trkpt lat="45.19697" lon="2.84433">
        <ele>1167</ele>
        <time>2021-08-23T16:30:43Z</time>
      </trkpt>
      <trkpt lat="45.19702" lon="2.8443">
        <ele>1166.4</ele>
        <time>2021-08-23T16:30:45Z</time>
      </trkpt>
      <trkpt lat="45.19705" lon="2.84427">
        <ele>1165.8</ele>
        <time>2021-08-23T16:30:47Z</time>
      </trkpt>
      <trkpt lat="45.19708" lon="2.84424">
        <ele>1165.4</ele>
        <time>2021-08-23T16:30:49Z</time>
      </trkpt>
      <trkpt lat="45.19711" lon="2.84421">
        <ele>1165</ele>
        <time>2021-08-23T16:30:51Z</time>
      </trkpt>
      <trkpt lat="45.19714" lon="2.84417">
        <ele>1164.6</ele>
        <time>2021-08-23T16:30:53Z</time>
      </trkpt>
      <trkpt lat="45.19717" lon="2.84414">
        <ele>1164.2</ele>
        <time>2021-08-23T16:30:55Z</time>
      </trkpt>
      <trkpt lat="45.19719" lon="2.84412">
        <ele>1164.1</ele>
        <time>2021-08-23T16:30:57Z</time>
      </trkpt>
      <trkpt lat="45.19719" lon="2.84412">
        <ele>1164.2</ele>
        <time>2021-08-23T16:30:59Z</time>
      </trkpt>
      <trkpt lat="45.19718" lon="2.84412">
        <ele>1164.2</ele>
        <time>2021-08-23T16:31:01Z</time>
      </trkpt>
      <trkpt lat="45.19718" lon="2.84412">
        <ele>1164.2</ele>
        <time>2021-08-23T16:31:03Z</time>
      </trkpt>
      <trkpt lat="45.19718" lon="2.84413">
        <ele>1164.2</ele>
        <time>2021-08-23T16:31:05Z</time>
      </trkpt>
      <trkpt lat="45.19722" lon="2.84396">
        <ele>1164.6</ele>
        <time>2021-08-23T16:33:49Z</time>
      </trkpt>
      <trkpt lat="45.19722" lon="2.84389">
        <ele>1164.8</ele>
        <time>2021-08-23T16:33:51Z</time>
      </trkpt>
      <trkpt lat="45.19724" lon="2.84381">
        <ele>1165.1</ele>
        <time>2021-08-23T16:33:53Z</time>
      </trkpt>
      <trkpt lat="45.19726" lon="2.84371">
        <ele>1165.3</ele>
        <time>2021-08-23T16:33:55Z</time>
      </trkpt>
      <trkpt lat="45.19728" lon="2.8436">
        <ele>1165.6</ele>
        <time>2021-08-23T16:33:57Z</time>
      </trkpt>
      <trkpt lat="45.19731" lon="2.8435">
        <ele>1165.9</ele>
        <time>2021-08-23T16:33:59Z</time>
      </trkpt>
      <trkpt lat="45.19732" lon="2.84341">
        <ele>1166.1</ele>
        <time>2021-08-23T16:34:01Z</time>
      </trkpt>
      <trkpt lat="45.19735" lon="2.84332">
        <ele>1166.3</ele>
        <time>2021-08-23T16:34:03Z</time>
      </trkpt>
      <trkpt lat="45.19741" lon="2.84325">
        <ele>1166.1</ele>
        <time>2021-08-23T16:34:05Z</time>
      </trkpt>
      <trkpt lat="45.19747" lon="2.84319">
        <ele>1165.8</ele>
        <time>2021-08-23T16:34:07Z</time>
      </trkpt>
      <trkpt lat="45.19753" lon="2.84315">
        <ele>1165.4</ele>
        <time>2021-08-23T16:34:09Z</time>
      </trkpt>
      <trkpt lat="45.19757" lon="2.84314">
        <ele>1165</ele>
        <time>2021-08-23T16:34:11Z</time>
      </trkpt>
      <trkpt lat="45.19762" lon="2.84314">
        <ele>1164.4</ele>
        <time>2021-08-23T16:34:13Z</time>
      </trkpt>
      <trkpt lat="45.19766" lon="2.84314">
        <ele>1164</ele>
        <time>2021-08-23T16:34:15Z</time>
      </trkpt>
      <trkpt lat="45.1977" lon="2.84313">
        <ele>1163.6</ele>
        <time>2021-08-23T16:34:17Z</time>
      </trkpt>
      <trkpt lat="45.19775" lon="2.84313">
        <ele>1163</ele>
        <time>2021-08-23T16:34:19Z</time>
      </trkpt>
      <trkpt lat="45.1978" lon="2.84313">
        <ele>1162.3</ele>
        <time>2021-08-23T16:34:21Z</time>
      </trkpt>
      <trkpt lat="45.19785" lon="2.84313">
        <ele>1161.8</ele>
        <time>2021-08-23T16:34:23Z</time>
      </trkpt>
      <trkpt lat="45.19789" lon="2.84313">
        <ele>1161.3</ele>
        <time>2021-08-23T16:34:25Z</time>
      </trkpt>
      <trkpt lat="45.19795" lon="2.84312">
        <ele>1160.7</ele>
        <time>2021-08-23T16:34:27Z</time>
      </trkpt>
      <trkpt lat="45.19801" lon="2.84312">
        <ele>1159.9</ele>
        <time>2021-08-23T16:34:29Z</time>
      </trkpt>
      <trkpt lat="45.19807" lon="2.84311">
        <ele>1159.3</ele>
        <time>2021-08-23T16:34:31Z</time>
      </trkpt>
      <trkpt lat="45.19812" lon="2.84312">
        <ele>1158.6</ele>
        <time>2021-08-23T16:34:33Z</time>
      </trkpt>
      <trkpt lat="45.1982" lon="2.84311">
        <ele>1157.8</ele>
        <time>2021-08-23T16:34:35Z</time>
      </trkpt>
      <trkpt lat="45.19826" lon="2.8431">
        <ele>1157.2</ele>
        <time>2021-08-23T16:34:37Z</time>
      </trkpt>
      <trkpt lat="45.19831" lon="2.8431">
        <ele>1156.5</ele>
        <time>2021-08-23T16:34:39Z</time>
      </trkpt>
      <trkpt lat="45.19835" lon="2.84308">
        <ele>1156.2</ele>
        <time>2021-08-23T16:34:41Z</time>
      </trkpt>
      <trkpt lat="45.19839" lon="2.84308">
        <ele>1155.8</ele>
        <time>2021-08-23T16:34:43Z</time>
      </trkpt>
      <trkpt lat="45.19842" lon="2.84308">
        <ele>1155.5</ele>
        <time>2021-08-23T16:34:45Z</time>
      </trkpt>
      <trkpt lat="45.19845" lon="2.84309">
        <ele>1155.1</ele>
        <time>2021-08-23T16:34:47Z</time>
      </trkpt>
      <trkpt lat="45.1985" lon="2.8431">
        <ele>1154.6</ele>
        <time>2021-08-23T16:34:49Z</time>
      </trkpt>
      <trkpt lat="45.19854" lon="2.84311">
        <ele>1154.1</ele>
        <time>2021-08-23T16:34:51Z</time>
      </trkpt>
      <trkpt lat="45.19859" lon="2.84312">
        <ele>1153.5</ele>
        <time>2021-08-23T16:34:53Z</time>
      </trkpt>
      <trkpt lat="45.19864" lon="2.84314">
        <ele>1152.9</ele>
        <time>2021-08-23T16:34:55Z</time>
      </trkpt>
      <trkpt lat="45.19869" lon="2.84315">
        <ele>1152.4</ele>
        <time>2021-08-23T16:34:57Z</time>
      </trkpt>
      <trkpt lat="45.19874" lon="2.84315">
        <ele>1151.8</ele>
        <time>2021-08-23T16:34:59Z</time>
      </trkpt>
      <trkpt lat="45.19878" lon="2.84316">
        <ele>1151.3</ele>
        <time>2021-08-23T16:35:01Z</time>
      </trkpt>
      <trkpt lat="45.19882" lon="2.84317">
        <ele>1150.9</ele>
        <time>2021-08-23T16:35:03Z</time>
      </trkpt>
      <trkpt lat="45.19885" lon="2.84319">
        <ele>1150.5</ele>
        <time>2021-08-23T16:35:05Z</time>
      </trkpt>
      <trkpt lat="45.19889" lon="2.84322">
        <ele>1149.9</ele>
        <time>2021-08-23T16:35:07Z</time>
      </trkpt>
      <trkpt lat="45.19895" lon="2.84323">
        <ele>1149.4</ele>
        <time>2021-08-23T16:35:09Z</time>
      </trkpt>
      <trkpt lat="45.19899" lon="2.84325">
        <ele>1148.9</ele>
        <time>2021-08-23T16:35:11Z</time>
      </trkpt>
      <trkpt lat="45.19905" lon="2.84326">
        <ele>1148.4</ele>
        <time>2021-08-23T16:35:13Z</time>
      </trkpt>
      <trkpt lat="45.19909" lon="2.84328">
        <ele>1147.9</ele>
        <time>2021-08-23T16:35:15Z</time>
      </trkpt>
      <trkpt lat="45.19913" lon="2.8433">
        <ele>1147.4</ele>
        <time>2021-08-23T16:35:17Z</time>
      </trkpt>
      <trkpt lat="45.19918" lon="2.84332">
        <ele>1146.9</ele>
        <time>2021-08-23T16:35:19Z</time>
      </trkpt>
      <trkpt lat="45.19923" lon="2.84333">
        <ele>1146.3</ele>
        <time>2021-08-23T16:35:21Z</time>
      </trkpt>
      <trkpt lat="45.19927" lon="2.84334">
        <ele>1145.7</ele>
        <time>2021-08-23T16:35:23Z</time>
      </trkpt>
      <trkpt lat="45.19931" lon="2.84338">
        <ele>1145.3</ele>
        <time>2021-08-23T16:35:25Z</time>
      </trkpt>
      <trkpt lat="45.19935" lon="2.84343">
        <ele>1144.8</ele>
        <time>2021-08-23T16:35:27Z</time>
      </trkpt>
      <trkpt lat="45.19939" lon="2.8435">
        <ele>1144.4</ele>
        <time>2021-08-23T16:35:29Z</time>
      </trkpt>
      <trkpt lat="45.19944" lon="2.84356">
        <ele>1143.8</ele>
        <time>2021-08-23T16:35:31Z</time>
      </trkpt>
      <trkpt lat="45.19949" lon="2.84363">
        <ele>1143.5</ele>
        <time>2021-08-23T16:35:33Z</time>
      </trkpt>
      <trkpt lat="45.19953" lon="2.8437">
        <ele>1143.2</ele>
        <time>2021-08-23T16:35:35Z</time>
      </trkpt>
      <trkpt lat="45.19958" lon="2.84376">
        <ele>1142.8</ele>
        <time>2021-08-23T16:35:37Z</time>
      </trkpt>
      <trkpt lat="45.19963" lon="2.84383">
        <ele>1142.5</ele>
        <time>2021-08-23T16:35:39Z</time>
      </trkpt>
      <trkpt lat="45.19968" lon="2.84389">
        <ele>1142.2</ele>
        <time>2021-08-23T16:35:41Z</time>
      </trkpt>
      <trkpt lat="45.19973" lon="2.84397">
        <ele>1142.1</ele>
        <time>2021-08-23T16:35:43Z</time>
      </trkpt>
      <trkpt lat="45.19978" lon="2.84405">
        <ele>1142</ele>
        <time>2021-08-23T16:35:45Z</time>
      </trkpt>
      <trkpt lat="45.19982" lon="2.84412">
        <ele>1141.9</ele>
        <time>2021-08-23T16:35:47Z</time>
      </trkpt>
      <trkpt lat="45.19988" lon="2.8442">
        <ele>1141.8</ele>
        <time>2021-08-23T16:35:49Z</time>
      </trkpt>
      <trkpt lat="45.19993" lon="2.84426">
        <ele>1141.5</ele>
        <time>2021-08-23T16:35:51Z</time>
      </trkpt>
      <trkpt lat="45.19997" lon="2.84432">
        <ele>1141.4</ele>
        <time>2021-08-23T16:35:53Z</time>
      </trkpt>
      <trkpt lat="45.2" lon="2.84437">
        <ele>1141.2</ele>
        <time>2021-08-23T16:35:55Z</time>
      </trkpt>
      <trkpt lat="45.20004" lon="2.84441">
        <ele>1141.1</ele>
        <time>2021-08-23T16:35:57Z</time>
      </trkpt>
      <trkpt lat="45.20007" lon="2.84444">
        <ele>1140.9</ele>
        <time>2021-08-23T16:35:59Z</time>
      </trkpt>
      <trkpt lat="45.20011" lon="2.84447">
        <ele>1140.7</ele>
        <time>2021-08-23T16:36:01Z</time>
      </trkpt>
      <trkpt lat="45.20012" lon="2.84449">
        <ele>1140.6</ele>
        <time>2021-08-23T16:36:03Z</time>
      </trkpt>
      <trkpt lat="45.20011" lon="2.84449">
        <ele>1140.6</ele>
        <time>2021-08-23T16:36:05Z</time>
      </trkpt>
      <trkpt lat="45.20011" lon="2.84449">
        <ele>1140.6</ele>
        <time>2021-08-23T16:36:07Z</time>
      </trkpt>
      <trkpt lat="45.20012" lon="2.84449">
        <ele>1140.6</ele>
        <time>2021-08-23T16:36:09Z</time>
      </trkpt>
      <trkpt lat="45.20014" lon="2.84451">
        <ele>1140.5</ele>
        <time>2021-08-23T16:36:11Z</time>
      </trkpt>
      <trkpt lat="45.20015" lon="2.84454">
        <ele>1140.4</ele>
        <time>2021-08-23T16:36:13Z</time>
      </trkpt>
      <trkpt lat="45.20017" lon="2.84455">
        <ele>1140.4</ele>
        <time>2021-08-23T16:36:15Z</time>
      </trkpt>
      <trkpt lat="45.20019" lon="2.84455">
        <ele>1140.2</ele>
        <time>2021-08-23T16:36:17Z</time>
      </trkpt>
      <trkpt lat="45.20022" lon="2.84456">
        <ele>1140</ele>
        <time>2021-08-23T16:36:19Z</time>
      </trkpt>
      <trkpt lat="45.20024" lon="2.84456">
        <ele>1139.9</ele>
        <time>2021-08-23T16:36:21Z</time>
      </trkpt>
      <trkpt lat="45.20026" lon="2.84459">
        <ele>1139.8</ele>
        <time>2021-08-23T16:36:23Z</time>
      </trkpt>
      <trkpt lat="45.20029" lon="2.84461">
        <ele>1139.6</ele>
        <time>2021-08-23T16:36:25Z</time>
      </trkpt>
      <trkpt lat="45.20031" lon="2.84462">
        <ele>1139.5</ele>
        <time>2021-08-23T16:36:27Z</time>
      </trkpt>
      <trkpt lat="45.20035" lon="2.84464">
        <ele>1139.2</ele>
        <time>2021-08-23T16:36:29Z</time>
      </trkpt>
      <trkpt lat="45.20039" lon="2.84466">
        <ele>1139</ele>
        <time>2021-08-23T16:36:31Z</time>
      </trkpt>
      <trkpt lat="45.20043" lon="2.84468">
        <ele>1138.7</ele>
        <time>2021-08-23T16:36:33Z</time>
      </trkpt>
      <trkpt lat="45.20048" lon="2.8447">
        <ele>1138.4</ele>
        <time>2021-08-23T16:36:35Z</time>
      </trkpt>
      <trkpt lat="45.20053" lon="2.84472">
        <ele>1138.1</ele>
        <time>2021-08-23T16:36:37Z</time>
      </trkpt>
      <trkpt lat="45.20059" lon="2.84474">
        <ele>1137.7</ele>
        <time>2021-08-23T16:36:39Z</time>
      </trkpt>
      <trkpt lat="45.20064" lon="2.84474">
        <ele>1137.4</ele>
        <time>2021-08-23T16:36:41Z</time>
      </trkpt>
      <trkpt lat="45.20069" lon="2.84475">
        <ele>1137</ele>
        <time>2021-08-23T16:36:43Z</time>
      </trkpt>
      <trkpt lat="45.20074" lon="2.84477">
        <ele>1136.6</ele>
        <time>2021-08-23T16:36:45Z</time>
      </trkpt>
      <trkpt lat="45.20079" lon="2.84476">
        <ele>1136.3</ele>
        <time>2021-08-23T16:36:47Z</time>
      </trkpt>
      <trkpt lat="45.20084" lon="2.84476">
        <ele>1135.9</ele>
        <time>2021-08-23T16:36:49Z</time>
      </trkpt>
      <trkpt lat="45.20089" lon="2.84476">
        <ele>1135.7</ele>
        <time>2021-08-23T16:36:51Z</time>
      </trkpt>
      <trkpt lat="45.20094" lon="2.84475">
        <ele>1135.4</ele>
        <time>2021-08-23T16:36:53Z</time>
      </trkpt>
      <trkpt lat="45.20098" lon="2.84473">
        <ele>1135.2</ele>
        <time>2021-08-23T16:36:55Z</time>
      </trkpt>
      <trkpt lat="45.20103" lon="2.84471">
        <ele>1134.9</ele>
        <time>2021-08-23T16:36:57Z</time>
      </trkpt>
      <trkpt lat="45.20109" lon="2.84468">
        <ele>1134.6</ele>
        <time>2021-08-23T16:36:59Z</time>
      </trkpt>
      <trkpt lat="45.20116" lon="2.84468">
        <ele>1134.2</ele>
        <time>2021-08-23T16:37:01Z</time>
      </trkpt>
      <trkpt lat="45.20123" lon="2.8447">
        <ele>1133.8</ele>
        <time>2021-08-23T16:37:03Z</time>
      </trkpt>
      <trkpt lat="45.2013" lon="2.84471">
        <ele>1133.4</ele>
        <time>2021-08-23T16:37:05Z</time>
      </trkpt>
      <trkpt lat="45.20138" lon="2.84467">
        <ele>1133</ele>
        <time>2021-08-23T16:37:07Z</time>
      </trkpt>
      <trkpt lat="45.20144" lon="2.8446">
        <ele>1132.7</ele>
        <time>2021-08-23T16:37:09Z</time>
      </trkpt>
      <trkpt lat="45.2015" lon="2.84458">
        <ele>1132.4</ele>
        <time>2021-08-23T16:37:11Z</time>
      </trkpt>
      <trkpt lat="45.20156" lon="2.84454">
        <ele>1132.2</ele>
        <time>2021-08-23T16:37:13Z</time>
      </trkpt>
      <trkpt lat="45.20161" lon="2.8445">
        <ele>1131.9</ele>
        <time>2021-08-23T16:37:15Z</time>
      </trkpt>
      <trkpt lat="45.20166" lon="2.84447">
        <ele>1131.7</ele>
        <time>2021-08-23T16:37:17Z</time>
      </trkpt>
      <trkpt lat="45.2017" lon="2.84444">
        <ele>1131.8</ele>
        <time>2021-08-23T16:37:19Z</time>
      </trkpt>
      <trkpt lat="45.20175" lon="2.8444">
        <ele>1132.1</ele>
        <time>2021-08-23T16:37:21Z</time>
      </trkpt>
      <trkpt lat="45.20181" lon="2.84437">
        <ele>1132.4</ele>
        <time>2021-08-23T16:37:23Z</time>
      </trkpt>
      <trkpt lat="45.20185" lon="2.84434">
        <ele>1132.6</ele>
        <time>2021-08-23T16:37:25Z</time>
      </trkpt>
      <trkpt lat="45.20191" lon="2.84431">
        <ele>1132.9</ele>
        <time>2021-08-23T16:37:27Z</time>
      </trkpt>
      <trkpt lat="45.20196" lon="2.84427">
        <ele>1133</ele>
        <time>2021-08-23T16:37:29Z</time>
      </trkpt>
      <trkpt lat="45.202" lon="2.84423">
        <ele>1133.2</ele>
        <time>2021-08-23T16:37:31Z</time>
      </trkpt>
      <trkpt lat="45.20205" lon="2.84421">
        <ele>1133.4</ele>
        <time>2021-08-23T16:37:33Z</time>
      </trkpt>
      <trkpt lat="45.20209" lon="2.84419">
        <ele>1133.5</ele>
        <time>2021-08-23T16:37:35Z</time>
      </trkpt>
      <trkpt lat="45.20214" lon="2.84417">
        <ele>1133.7</ele>
        <time>2021-08-23T16:37:37Z</time>
      </trkpt>
      <trkpt lat="45.20219" lon="2.84414">
        <ele>1133.8</ele>
        <time>2021-08-23T16:37:39Z</time>
      </trkpt>
      <trkpt lat="45.20224" lon="2.84412">
        <ele>1133.9</ele>
        <time>2021-08-23T16:37:41Z</time>
      </trkpt>
      <trkpt lat="45.20229" lon="2.84412">
        <ele>1134.1</ele>
        <time>2021-08-23T16:37:43Z</time>
      </trkpt>
      <trkpt lat="45.20234" lon="2.84415">
        <ele>1134.4</ele>
        <time>2021-08-23T16:37:45Z</time>
      </trkpt>
      <trkpt lat="45.20237" lon="2.84422">
        <ele>1134.6</ele>
        <time>2021-08-23T16:37:47Z</time>
      </trkpt>
      <trkpt lat="45.20239" lon="2.84429">
        <ele>1134.8</ele>
        <time>2021-08-23T16:37:49Z</time>
      </trkpt>
      <trkpt lat="45.2024" lon="2.84436">
        <ele>1135</ele>
        <time>2021-08-23T16:37:51Z</time>
      </trkpt>
      <trkpt lat="45.20241" lon="2.84443">
        <ele>1135.2</ele>
        <time>2021-08-23T16:37:53Z</time>
      </trkpt>
      <trkpt lat="45.20242" lon="2.84449">
        <ele>1135.4</ele>
        <time>2021-08-23T16:37:55Z</time>
      </trkpt>
      <trkpt lat="45.20243" lon="2.84455">
        <ele>1135.6</ele>
        <time>2021-08-23T16:37:57Z</time>
      </trkpt>
      <trkpt lat="45.20243" lon="2.84461">
        <ele>1135.7</ele>
        <time>2021-08-23T16:37:59Z</time>
      </trkpt>
      <trkpt lat="45.20245" lon="2.84468">
        <ele>1136</ele>
        <time>2021-08-23T16:38:01Z</time>
      </trkpt>
      <trkpt lat="45.20246" lon="2.84476">
        <ele>1136.2</ele>
        <time>2021-08-23T16:38:03Z</time>
      </trkpt>
      <trkpt lat="45.20247" lon="2.84483">
        <ele>1136.4</ele>
        <time>2021-08-23T16:38:05Z</time>
      </trkpt>
      <trkpt lat="45.20248" lon="2.84489">
        <ele>1136.6</ele>
        <time>2021-08-23T16:38:07Z</time>
      </trkpt>
      <trkpt lat="45.20249" lon="2.84495">
        <ele>1136.9</ele>
        <time>2021-08-23T16:38:09Z</time>
      </trkpt>
      <trkpt lat="45.20251" lon="2.84503">
        <ele>1137</ele>
        <time>2021-08-23T16:38:11Z</time>
      </trkpt>
      <trkpt lat="45.20252" lon="2.84511">
        <ele>1137</ele>
        <time>2021-08-23T16:38:13Z</time>
      </trkpt>
      <trkpt lat="45.20253" lon="2.84518">
        <ele>1136.9</ele>
        <time>2021-08-23T16:38:15Z</time>
      </trkpt>
      <trkpt lat="45.20254" lon="2.84526">
        <ele>1136.9</ele>
        <time>2021-08-23T16:38:17Z</time>
      </trkpt>
      <trkpt lat="45.20255" lon="2.84532">
        <ele>1136.9</ele>
        <time>2021-08-23T16:38:19Z</time>
      </trkpt>
      <trkpt lat="45.20257" lon="2.8454">
        <ele>1136.9</ele>
        <time>2021-08-23T16:38:21Z</time>
      </trkpt>
      <trkpt lat="45.20258" lon="2.84545">
        <ele>1136.9</ele>
        <time>2021-08-23T16:38:23Z</time>
      </trkpt>
      <trkpt lat="45.20259" lon="2.84551">
        <ele>1136.9</ele>
        <time>2021-08-23T16:38:25Z</time>
      </trkpt>
      <trkpt lat="45.2026" lon="2.84557">
        <ele>1136.9</ele>
        <time>2021-08-23T16:38:27Z</time>
      </trkpt>
      <trkpt lat="45.20261" lon="2.84564">
        <ele>1136.9</ele>
        <time>2021-08-23T16:38:29Z</time>
      </trkpt>
      <trkpt lat="45.20262" lon="2.8457">
        <ele>1136.9</ele>
        <time>2021-08-23T16:38:31Z</time>
      </trkpt>
      <trkpt lat="45.20263" lon="2.84577">
        <ele>1136.9</ele>
        <time>2021-08-23T16:38:33Z</time>
      </trkpt>
      <trkpt lat="45.20265" lon="2.84583">
        <ele>1136.9</ele>
        <time>2021-08-23T16:38:35Z</time>
      </trkpt>
      <trkpt lat="45.20266" lon="2.8459">
        <ele>1137.1</ele>
        <time>2021-08-23T16:38:37Z</time>
      </trkpt>
      <trkpt lat="45.20267" lon="2.84597">
        <ele>1137.4</ele>
        <time>2021-08-23T16:38:39Z</time>
      </trkpt>
      <trkpt lat="45.20269" lon="2.84603">
        <ele>1137.7</ele>
        <time>2021-08-23T16:38:41Z</time>
      </trkpt>
      <trkpt lat="45.2027" lon="2.84609">
        <ele>1137.9</ele>
        <time>2021-08-23T16:38:43Z</time>
      </trkpt>
      <trkpt lat="45.20272" lon="2.84616">
        <ele>1138.2</ele>
        <time>2021-08-23T16:38:45Z</time>
      </trkpt>
      <trkpt lat="45.20273" lon="2.84623">
        <ele>1138.4</ele>
        <time>2021-08-23T16:38:47Z</time>
      </trkpt>
      <trkpt lat="45.20275" lon="2.84629">
        <ele>1138.7</ele>
        <time>2021-08-23T16:38:49Z</time>
      </trkpt>
      <trkpt lat="45.20278" lon="2.84636">
        <ele>1138.9</ele>
        <time>2021-08-23T16:38:51Z</time>
      </trkpt>
      <trkpt lat="45.2028" lon="2.84643">
        <ele>1139.2</ele>
        <time>2021-08-23T16:38:53Z</time>
      </trkpt>
      <trkpt lat="45.20282" lon="2.84649">
        <ele>1139.4</ele>
        <time>2021-08-23T16:38:55Z</time>
      </trkpt>
      <trkpt lat="45.20285" lon="2.84654">
        <ele>1139.6</ele>
        <time>2021-08-23T16:38:57Z</time>
      </trkpt>
      <trkpt lat="45.20287" lon="2.84658">
        <ele>1139.7</ele>
        <time>2021-08-23T16:38:59Z</time>
      </trkpt>
      <trkpt lat="45.20289" lon="2.84663">
        <ele>1139.9</ele>
        <time>2021-08-23T16:39:01Z</time>
      </trkpt>
      <trkpt lat="45.20292" lon="2.84669">
        <ele>1139.9</ele>
        <time>2021-08-23T16:39:03Z</time>
      </trkpt>
      <trkpt lat="45.20295" lon="2.84674">
        <ele>1139.7</ele>
        <time>2021-08-23T16:39:05Z</time>
      </trkpt>
      <trkpt lat="45.20298" lon="2.8468">
        <ele>1139.5</ele>
        <time>2021-08-23T16:39:07Z</time>
      </trkpt>
      <trkpt lat="45.20302" lon="2.84685">
        <ele>1139.2</ele>
        <time>2021-08-23T16:39:09Z</time>
      </trkpt>
      <trkpt lat="45.20305" lon="2.8469">
        <ele>1139</ele>
        <time>2021-08-23T16:39:11Z</time>
      </trkpt>
      <trkpt lat="45.20307" lon="2.84696">
        <ele>1138.7</ele>
        <time>2021-08-23T16:39:13Z</time>
      </trkpt>
      <trkpt lat="45.2031" lon="2.84701">
        <ele>1138.5</ele>
        <time>2021-08-23T16:39:15Z</time>
      </trkpt>
      <trkpt lat="45.20314" lon="2.84707">
        <ele>1138.2</ele>
        <time>2021-08-23T16:39:17Z</time>
      </trkpt>
      <trkpt lat="45.20316" lon="2.84712">
        <ele>1138</ele>
        <time>2021-08-23T16:39:19Z</time>
      </trkpt>
      <trkpt lat="45.20319" lon="2.84717">
        <ele>1137.7</ele>
        <time>2021-08-23T16:39:21Z</time>
      </trkpt>
      <trkpt lat="45.20322" lon="2.84723">
        <ele>1137.5</ele>
        <time>2021-08-23T16:39:23Z</time>
      </trkpt>
      <trkpt lat="45.20325" lon="2.84727">
        <ele>1137.2</ele>
        <time>2021-08-23T16:39:25Z</time>
      </trkpt>
      <trkpt lat="45.20328" lon="2.84732">
        <ele>1137</ele>
        <time>2021-08-23T16:39:27Z</time>
      </trkpt>
      <trkpt lat="45.20331" lon="2.84736">
        <ele>1136.8</ele>
        <time>2021-08-23T16:39:29Z</time>
      </trkpt>
      <trkpt lat="45.20334" lon="2.84741">
        <ele>1136.5</ele>
        <time>2021-08-23T16:39:31Z</time>
      </trkpt>
      <trkpt lat="45.20338" lon="2.84746">
        <ele>1136.2</ele>
        <time>2021-08-23T16:39:33Z</time>
      </trkpt>
      <trkpt lat="45.20341" lon="2.8475">
        <ele>1136</ele>
        <time>2021-08-23T16:39:35Z</time>
      </trkpt>
      <trkpt lat="45.20344" lon="2.84754">
        <ele>1136</ele>
        <time>2021-08-23T16:39:37Z</time>
      </trkpt>
      <trkpt lat="45.20348" lon="2.84756">
        <ele>1136</ele>
        <time>2021-08-23T16:39:39Z</time>
      </trkpt>
      <trkpt lat="45.20351" lon="2.8476">
        <ele>1135.9</ele>
        <time>2021-08-23T16:39:41Z</time>
      </trkpt>
      <trkpt lat="45.20353" lon="2.84763">
        <ele>1135.9</ele>
        <time>2021-08-23T16:39:43Z</time>
      </trkpt>
      <trkpt lat="45.20354" lon="2.84767">
        <ele>1135.9</ele>
        <time>2021-08-23T16:39:45Z</time>
      </trkpt>
      <trkpt lat="45.20355" lon="2.84769">
        <ele>1135.8</ele>
        <time>2021-08-23T16:39:47Z</time>
      </trkpt>
      <trkpt lat="45.20358" lon="2.84769">
        <ele>1135.8</ele>
        <time>2021-08-23T16:39:49Z</time>
      </trkpt>
      <trkpt lat="45.20361" lon="2.84768">
        <ele>1135.8</ele>
        <time>2021-08-23T16:39:51Z</time>
      </trkpt>
      <trkpt lat="45.20363" lon="2.84767">
        <ele>1135.8</ele>
        <time>2021-08-23T16:39:53Z</time>
      </trkpt>
      <trkpt lat="45.20365" lon="2.84765">
        <ele>1135.8</ele>
        <time>2021-08-23T16:39:55Z</time>
      </trkpt>
      <trkpt lat="45.20366" lon="2.84762">
        <ele>1135.8</ele>
        <time>2021-08-23T16:39:57Z</time>
      </trkpt>
      <trkpt lat="45.20366" lon="2.84762">
        <ele>1135.8</ele>
        <time>2021-08-23T16:39:59Z</time>
      </trkpt>
      <trkpt lat="45.20366" lon="2.84762">
        <ele>1135.8</ele>
        <time>2021-08-23T16:40:01Z</time>
      </trkpt>
      <trkpt lat="45.20366" lon="2.84762">
        <ele>1135.8</ele>
        <time>2021-08-23T16:40:03Z</time>
      </trkpt>
      <trkpt lat="45.20366" lon="2.84762">
        <ele>1135.8</ele>
        <time>2021-08-23T16:40:05Z</time>
      </trkpt>
      <trkpt lat="45.20364" lon="2.84762">
        <ele>1135.8</ele>
        <time>2021-08-23T16:50:59Z</time>
      </trkpt>
      <trkpt lat="45.20366" lon="2.84765">
        <ele>1135.8</ele>
        <time>2021-08-23T16:51:01Z</time>
      </trkpt>
      <trkpt lat="45.20365" lon="2.84768">
        <ele>1135.8</ele>
        <time>2021-08-23T16:51:03Z</time>
      </trkpt>
      <trkpt lat="45.20363" lon="2.8477">
        <ele>1135.7</ele>
        <time>2021-08-23T16:51:05Z</time>
      </trkpt>
      <trkpt lat="45.2036" lon="2.84768">
        <ele>1135.8</ele>
        <time>2021-08-23T16:51:07Z</time>
      </trkpt>
      <trkpt lat="45.20357" lon="2.84765">
        <ele>1135.8</ele>
        <time>2021-08-23T16:51:09Z</time>
      </trkpt>
      <trkpt lat="45.20354" lon="2.84763">
        <ele>1135.9</ele>
        <time>2021-08-23T16:51:11Z</time>
      </trkpt>
      <trkpt lat="45.2035" lon="2.84759">
        <ele>1135.9</ele>
        <time>2021-08-23T16:51:13Z</time>
      </trkpt>
      <trkpt lat="45.20349" lon="2.84755">
        <ele>1136</ele>
        <time>2021-08-23T16:51:15Z</time>
      </trkpt>
      <trkpt lat="45.20347" lon="2.84752">
        <ele>1136</ele>
        <time>2021-08-23T16:51:17Z</time>
      </trkpt>
      <trkpt lat="45.20344" lon="2.84749">
        <ele>1136.1</ele>
        <time>2021-08-23T16:51:19Z</time>
      </trkpt>
      <trkpt lat="45.20343" lon="2.84751">
        <ele>1136</ele>
        <time>2021-08-23T16:51:21Z</time>
      </trkpt>
      <trkpt lat="45.20343" lon="2.84752">
        <ele>1136</ele>
        <time>2021-08-23T16:51:23Z</time>
      </trkpt>
      <trkpt lat="45.20343" lon="2.84752">
        <ele>1136</ele>
        <time>2021-08-23T16:51:25Z</time>
      </trkpt>
      <trkpt lat="45.20343" lon="2.84752">
        <ele>1136</ele>
        <time>2021-08-23T16:51:27Z</time>
      </trkpt>
      <trkpt lat="45.20343" lon="2.84752">
        <ele>1136</ele>
        <time>2021-08-23T16:51:39Z</time>
      </trkpt>
      <trkpt lat="45.20343" lon="2.84752">
        <ele>1136</ele>
        <time>2021-08-23T16:51:41Z</time>
      </trkpt>
      <trkpt lat="45.20343" lon="2.84752">
        <ele>1136</ele>
        <time>2021-08-23T16:51:43Z</time>
      </trkpt>
      <trkpt lat="45.20345" lon="2.84755">
        <ele>1136</ele>
        <time>2021-08-23T16:51:45Z</time>
      </trkpt>
      <trkpt lat="45.20349" lon="2.84758">
        <ele>1135.9</ele>
        <time>2021-08-23T16:51:47Z</time>
      </trkpt>
      <trkpt lat="45.20353" lon="2.8476">
        <ele>1135.9</ele>
        <time>2021-08-23T16:51:49Z</time>
      </trkpt>
      <trkpt lat="45.20356" lon="2.84763">
        <ele>1135.9</ele>
        <time>2021-08-23T16:51:51Z</time>
      </trkpt>
      <trkpt lat="45.20359" lon="2.84766">
        <ele>1135.8</ele>
        <time>2021-08-23T16:51:53Z</time>
      </trkpt>
      <trkpt lat="45.20362" lon="2.84769">
        <ele>1135.8</ele>
        <time>2021-08-23T16:51:55Z</time>
      </trkpt>
      <trkpt lat="45.20364" lon="2.8477">
        <ele>1135.7</ele>
        <time>2021-08-23T16:51:57Z</time>
      </trkpt>
      <trkpt lat="45.20365" lon="2.8477">
        <ele>1135.7</ele>
        <time>2021-08-23T16:51:59Z</time>
      </trkpt>
      <trkpt lat="45.20365" lon="2.8477">
        <ele>1135.7</ele>
        <time>2021-08-23T16:52:01Z</time>
      </trkpt>
      <trkpt lat="45.20365" lon="2.84769">
        <ele>1135.7</ele>
        <time>2021-08-23T16:52:03Z</time>
      </trkpt>
      <trkpt lat="45.20365" lon="2.84769">
        <ele>1135.7</ele>
        <time>2021-08-23T16:52:05Z</time>
      </trkpt>
      <trkpt lat="45.20365" lon="2.84769">
        <ele>1135.7</ele>
        <time>2021-08-23T16:52:07Z</time>
      </trkpt>
    </trkseg>
      <trkpt lat="45.20373" lon="2.84785">
        <ele>1135.4</ele>
        <time>2021-08-24T06:59:55Z</time>
      </trkpt>
      <trkpt lat="45.20375" lon="2.8479">
        <ele>1135.3</ele>
        <time>2021-08-24T06:59:57Z</time>
      </trkpt>
      <trkpt lat="45.20377" lon="2.84794">
        <ele>1135.2</ele>
        <time>2021-08-24T06:59:59Z</time>
      </trkpt>
      <trkpt lat="45.20381" lon="2.848">
        <ele>1135</ele>
        <time>2021-08-24T07:00:01Z</time>
      </trkpt>
      <trkpt lat="45.20385" lon="2.84802">
        <ele>1134.8</ele>
        <time>2021-08-24T07:00:03Z</time>
      </trkpt>
      <trkpt lat="45.2039" lon="2.84803">
        <ele>1134.7</ele>
        <time>2021-08-24T07:00:05Z</time>
      </trkpt>
      <trkpt lat="45.20395" lon="2.84802">
        <ele>1134.6</ele>
        <time>2021-08-24T07:00:07Z</time>
      </trkpt>
      <trkpt lat="45.20399" lon="2.84799">
        <ele>1134.6</ele>
        <time>2021-08-24T07:00:09Z</time>
      </trkpt>
      <trkpt lat="45.20405" lon="2.84796">
        <ele>1134.6</ele>
        <time>2021-08-24T07:00:11Z</time>
      </trkpt>
      <trkpt lat="45.20409" lon="2.84791">
        <ele>1134.7</ele>
        <time>2021-08-24T07:00:13Z</time>
      </trkpt>
      <trkpt lat="45.20414" lon="2.84785">
        <ele>1134.8</ele>
        <time>2021-08-24T07:00:15Z</time>
      </trkpt>
      <trkpt lat="45.20419" lon="2.84779">
        <ele>1135</ele>
        <time>2021-08-24T07:00:17Z</time>
      </trkpt>
      <trkpt lat="45.20423" lon="2.84771">
        <ele>1135.2</ele>
        <time>2021-08-24T07:00:19Z</time>
      </trkpt>
      <trkpt lat="45.20428" lon="2.84766">
        <ele>1135.3</ele>
        <time>2021-08-24T07:00:21Z</time>
      </trkpt>
      <trkpt lat="45.20433" lon="2.84761">
        <ele>1135.4</ele>
        <time>2021-08-24T07:00:23Z</time>
      </trkpt>
      <trkpt lat="45.20438" lon="2.84756">
        <ele>1135.5</ele>
        <time>2021-08-24T07:00:25Z</time>
      </trkpt>
      <trkpt lat="45.20442" lon="2.84752">
        <ele>1135.6</ele>
        <time>2021-08-24T07:00:27Z</time>
      </trkpt>
      <trkpt lat="45.20447" lon="2.84748">
        <ele>1135.7</ele>
        <time>2021-08-24T07:00:29Z</time>
      </trkpt>
      <trkpt lat="45.20451" lon="2.84745">
        <ele>1135.7</ele>
        <time>2021-08-24T07:00:31Z</time>
      </trkpt>
      <trkpt lat="45.20456" lon="2.84744">
        <ele>1135.7</ele>
        <time>2021-08-24T07:00:33Z</time>
      </trkpt>
      <trkpt lat="45.20461" lon="2.84745">
        <ele>1135.6</ele>
        <time>2021-08-24T07:00:35Z</time>
      </trkpt>
      <trkpt lat="45.20465" lon="2.84747">
        <ele>1135.5</ele>
        <time>2021-08-24T07:00:37Z</time>
      </trkpt>
      <trkpt lat="45.2047" lon="2.84749">
        <ele>1135.4</ele>
        <time>2021-08-24T07:00:39Z</time>
      </trkpt>
      <trkpt lat="45.20475" lon="2.84751">
        <ele>1135.3</ele>
        <time>2021-08-24T07:00:41Z</time>
      </trkpt>
      <trkpt lat="45.2048" lon="2.84753">
        <ele>1135.1</ele>
        <time>2021-08-24T07:00:43Z</time>
      </trkpt>
      <trkpt lat="45.20484" lon="2.84754">
        <ele>1135.1</ele>
        <time>2021-08-24T07:00:45Z</time>
      </trkpt>
      <trkpt lat="45.2049" lon="2.84754">
        <ele>1135</ele>
        <time>2021-08-24T07:00:47Z</time>
      </trkpt>
      <trkpt lat="45.20495" lon="2.84754">
        <ele>1135</ele>
        <time>2021-08-24T07:00:49Z</time>
      </trkpt>
      <trkpt lat="45.205" lon="2.84753">
        <ele>1134.9</ele>
        <time>2021-08-24T07:00:51Z</time>
      </trkpt>
      <trkpt lat="45.20505" lon="2.84752">
        <ele>1134.9</ele>
        <time>2021-08-24T07:00:53Z</time>
      </trkpt>
      <trkpt lat="45.2051" lon="2.84751">
        <ele>1134.9</ele>
        <time>2021-08-24T07:00:55Z</time>
      </trkpt>
      <trkpt lat="45.20515" lon="2.84749">
        <ele>1134.8</ele>
        <time>2021-08-24T07:00:57Z</time>
      </trkpt>
      <trkpt lat="45.20521" lon="2.84747">
        <ele>1134.8</ele>
        <time>2021-08-24T07:00:59Z</time>
      </trkpt>
      <trkpt lat="45.20527" lon="2.84747">
        <ele>1134.7</ele>
        <time>2021-08-24T07:01:01Z</time>
      </trkpt>
      <trkpt lat="45.20532" lon="2.84747">
        <ele>1134.6</ele>
        <time>2021-08-24T07:01:03Z</time>
      </trkpt>
      <trkpt lat="45.20538" lon="2.84747">
        <ele>1134.6</ele>
        <time>2021-08-24T07:01:05Z</time>
      </trkpt>
      <trkpt lat="45.20542" lon="2.84745">
        <ele>1134.5</ele>
        <time>2021-08-24T07:01:07Z</time>
      </trkpt>
      <trkpt lat="45.20548" lon="2.84745">
        <ele>1134.4</ele>
        <time>2021-08-24T07:01:09Z</time>
      </trkpt>
      <trkpt lat="45.20554" lon="2.84747">
        <ele>1134.4</ele>
        <time>2021-08-24T07:01:11Z</time>
      </trkpt>
      <trkpt lat="45.2056" lon="2.8475">
        <ele>1134.3</ele>
        <time>2021-08-24T07:01:13Z</time>
      </trkpt>
      <trkpt lat="45.20564" lon="2.84756">
        <ele>1134.2</ele>
        <time>2021-08-24T07:01:15Z</time>
      </trkpt>
      <trkpt lat="45.20567" lon="2.84764">
        <ele>1134.1</ele>
        <time>2021-08-24T07:01:17Z</time>
      </trkpt>
      <trkpt lat="45.20572" lon="2.8477">
        <ele>1134.1</ele>
        <time>2021-08-24T07:01:19Z</time>
      </trkpt>
      <trkpt lat="45.20576" lon="2.84777">
        <ele>1134</ele>
        <time>2021-08-24T07:01:21Z</time>
      </trkpt>
      <trkpt lat="45.20579" lon="2.84785">
        <ele>1134</ele>
        <time>2021-08-24T07:01:23Z</time>
      </trkpt>
      <trkpt lat="45.20581" lon="2.84791">
        <ele>1134</ele>
        <time>2021-08-24T07:01:25Z</time>
      </trkpt>
      <trkpt lat="45.20583" lon="2.84797">
        <ele>1134</ele>
        <time>2021-08-24T07:01:27Z</time>
      </trkpt>
      <trkpt lat="45.20584" lon="2.84802">
        <ele>1134</ele>
        <time>2021-08-24T07:01:29Z</time>
      </trkpt>
      <trkpt lat="45.20584" lon="2.84807">
        <ele>1134</ele>
        <time>2021-08-24T07:01:31Z</time>
      </trkpt>
      <trkpt lat="45.20584" lon="2.8481">
        <ele>1134</ele>
        <time>2021-08-24T07:01:33Z</time>
      </trkpt>
      <trkpt lat="45.20583" lon="2.84812">
        <ele>1134</ele>
        <time>2021-08-24T07:01:35Z</time>
      </trkpt>
      <trkpt lat="45.20582" lon="2.84813">
        <ele>1134</ele>
        <time>2021-08-24T07:01:37Z</time>
      </trkpt>
      <trkpt lat="45.20582" lon="2.84813">
        <ele>1134</ele>
        <time>2021-08-24T07:01:39Z</time>
      </trkpt>
      <trkpt lat="45.20582" lon="2.84813">
        <ele>1134</ele>
        <time>2021-08-24T07:01:41Z</time>
      </trkpt>
      <trkpt lat="45.20582" lon="2.84813">
        <ele>1134</ele>
        <time>2021-08-24T07:01:43Z</time>
      </trkpt>
      <trkpt lat="45.20581" lon="2.84827">
        <ele>1134</ele>
        <time>2021-08-24T07:02:13Z</time>
      </trkpt>
      <trkpt lat="45.2058" lon="2.84833">
        <ele>1134</ele>
        <time>2021-08-24T07:02:15Z</time>
      </trkpt>
      <trkpt lat="45.20578" lon="2.84839">
        <ele>1133.9</ele>
        <time>2021-08-24T07:02:17Z</time>
      </trkpt>
      <trkpt lat="45.20578" lon="2.84845">
        <ele>1133.8</ele>
        <time>2021-08-24T07:02:19Z</time>
      </trkpt>
      <trkpt lat="45.20578" lon="2.84852">
        <ele>1133.7</ele>
        <time>2021-08-24T07:02:21Z</time>
      </trkpt>
      <trkpt lat="45.20577" lon="2.84859">
        <ele>1133.6</ele>
        <time>2021-08-24T07:02:23Z</time>
      </trkpt>
      <trkpt lat="45.20577" lon="2.84867">
        <ele>1133.5</ele>
        <time>2021-08-24T07:02:25Z</time>
      </trkpt>
      <trkpt lat="45.20578" lon="2.84876">
        <ele>1133.4</ele>
        <time>2021-08-24T07:02:27Z</time>
      </trkpt>
      <trkpt lat="45.20578" lon="2.84884">
        <ele>1133.3</ele>
        <time>2021-08-24T07:02:29Z</time>
      </trkpt>
      <trkpt lat="45.2058" lon="2.84893">
        <ele>1133.2</ele>
        <time>2021-08-24T07:02:31Z</time>
      </trkpt>
      <trkpt lat="45.20581" lon="2.84903">
        <ele>1133.1</ele>
        <time>2021-08-24T07:02:33Z</time>
      </trkpt>
      <trkpt lat="45.20582" lon="2.84912">
        <ele>1133</ele>
        <time>2021-08-24T07:02:35Z</time>
      </trkpt>
      <trkpt lat="45.20584" lon="2.84922">
        <ele>1133.2</ele>
        <time>2021-08-24T07:02:37Z</time>
      </trkpt>
      <trkpt lat="45.20585" lon="2.84932">
        <ele>1133.5</ele>
        <time>2021-08-24T07:02:39Z</time>
      </trkpt>
      <trkpt lat="45.20586" lon="2.84941">
        <ele>1133.8</ele>
        <time>2021-08-24T07:02:41Z</time>
      </trkpt>
      <trkpt lat="45.20588" lon="2.8495">
        <ele>1134.1</ele>
        <time>2021-08-24T07:02:43Z</time>
      </trkpt>
      <trkpt lat="45.20589" lon="2.84959">
        <ele>1134.4</ele>
        <time>2021-08-24T07:02:45Z</time>
      </trkpt>
      <trkpt lat="45.20591" lon="2.84969">
        <ele>1134.7</ele>
        <time>2021-08-24T07:02:47Z</time>
      </trkpt>
      <trkpt lat="45.20592" lon="2.84979">
        <ele>1135</ele>
        <time>2021-08-24T07:02:49Z</time>
      </trkpt>
      <trkpt lat="45.20594" lon="2.84988">
        <ele>1135.4</ele>
        <time>2021-08-24T07:02:51Z</time>
      </trkpt>
      <trkpt lat="45.20595" lon="2.84998">
        <ele>1135.7</ele>
        <time>2021-08-24T07:02:53Z</time>
      </trkpt>
      <trkpt lat="45.20597" lon="2.85009">
        <ele>1135.7</ele>
        <time>2021-08-24T07:02:55Z</time>
      </trkpt>
      <trkpt lat="45.20599" lon="2.85019">
        <ele>1135.6</ele>
        <time>2021-08-24T07:02:57Z</time>
      </trkpt>
      <trkpt lat="45.20601" lon="2.85029">
        <ele>1135.6</ele>
        <time>2021-08-24T07:02:59Z</time>
      </trkpt>
      <trkpt lat="45.20603" lon="2.85039">
        <ele>1135.6</ele>
        <time>2021-08-24T07:03:01Z</time>
      </trkpt>
      <trkpt lat="45.20606" lon="2.85049">
        <ele>1135.6</ele>
        <time>2021-08-24T07:03:03Z</time>
      </trkpt>
      <trkpt lat="45.20609" lon="2.85059">
        <ele>1135.6</ele>
        <time>2021-08-24T07:03:05Z</time>
      </trkpt>
      <trkpt lat="45.20613" lon="2.85069">
        <ele>1135.7</ele>
        <time>2021-08-24T07:03:07Z</time>
      </trkpt>
      <trkpt lat="45.20618" lon="2.85077">
        <ele>1135.8</ele>
        <time>2021-08-24T07:03:09Z</time>
      </trkpt>
      <trkpt lat="45.20623" lon="2.85086">
        <ele>1135.9</ele>
        <time>2021-08-24T07:03:11Z</time>
      </trkpt>
      <trkpt lat="45.20629" lon="2.85093">
        <ele>1136</ele>
        <time>2021-08-24T07:03:13Z</time>
      </trkpt>
      <trkpt lat="45.20635" lon="2.85101">
        <ele>1136.1</ele>
        <time>2021-08-24T07:03:15Z</time>
      </trkpt>
      <trkpt lat="45.20641" lon="2.85108">
        <ele>1136.2</ele>
        <time>2021-08-24T07:03:17Z</time>
      </trkpt>
      <trkpt lat="45.20648" lon="2.85115">
        <ele>1136.2</ele>
        <time>2021-08-24T07:03:19Z</time>
      </trkpt>
      <trkpt lat="45.20655" lon="2.85122">
        <ele>1136.2</ele>
        <time>2021-08-24T07:03:21Z</time>
      </trkpt>
      <trkpt lat="45.20662" lon="2.85129">
        <ele>1136.2</ele>
        <time>2021-08-24T07:03:23Z</time>
      </trkpt>
      <trkpt lat="45.20669" lon="2.85136">
        <ele>1136.2</ele>
        <time>2021-08-24T07:03:25Z</time>
      </trkpt>
      <trkpt lat="45.20676" lon="2.85143">
        <ele>1136.3</ele>
        <time>2021-08-24T07:03:27Z</time>
      </trkpt>
      <trkpt lat="45.20683" lon="2.8515">
        <ele>1136.4</ele>
        <time>2021-08-24T07:03:29Z</time>
      </trkpt>
      <trkpt lat="45.20689" lon="2.85157">
        <ele>1136.5</ele>
        <time>2021-08-24T07:03:31Z</time>
      </trkpt>
      <trkpt lat="45.20696" lon="2.85163">
        <ele>1136.5</ele>
        <time>2021-08-24T07:03:33Z</time>
      </trkpt>
      <trkpt lat="45.20703" lon="2.8517">
        <ele>1136.6</ele>
        <time>2021-08-24T07:03:35Z</time>
      </trkpt>
      <trkpt lat="45.2071" lon="2.85176">
        <ele>1136.8</ele>
        <time>2021-08-24T07:03:37Z</time>
      </trkpt>
      <trkpt lat="45.20717" lon="2.85182">
        <ele>1136.9</ele>
        <time>2021-08-24T07:03:39Z</time>
      </trkpt>
      <trkpt lat="45.20724" lon="2.85187">
        <ele>1137.1</ele>
        <time>2021-08-24T07:03:41Z</time>
      </trkpt>
      <trkpt lat="45.20731" lon="2.85192">
        <ele>1137.3</ele>
        <time>2021-08-24T07:03:43Z</time>
      </trkpt>
      <trkpt lat="45.20738" lon="2.85196">
        <ele>1137.4</ele>
        <time>2021-08-24T07:03:45Z</time>
      </trkpt>
      <trkpt lat="45.20745" lon="2.852">
        <ele>1137.6</ele>
        <time>2021-08-24T07:03:47Z</time>
      </trkpt>
      <trkpt lat="45.20752" lon="2.85204">
        <ele>1137.7</ele>
        <time>2021-08-24T07:03:49Z</time>
      </trkpt>
      <trkpt lat="45.2076" lon="2.85208">
        <ele>1137.8</ele>
        <time>2021-08-24T07:03:51Z</time>
      </trkpt>
      <trkpt lat="45.20767" lon="2.85212">
        <ele>1137.8</ele>
        <time>2021-08-24T07:03:53Z</time>
      </trkpt>
      <trkpt lat="45.20775" lon="2.85216">
        <ele>1137.8</ele>
        <time>2021-08-24T07:03:55Z</time>
      </trkpt>
      <trkpt lat="45.20782" lon="2.8522">
        <ele>1137.7</ele>
        <time>2021-08-24T07:03:57Z</time>
      </trkpt>
      <trkpt lat="45.2079" lon="2.85224">
        <ele>1137.7</ele>
        <time>2021-08-24T07:03:59Z</time>
      </trkpt>
      <trkpt lat="45.20797" lon="2.85227">
        <ele>1137.7</ele>
        <time>2021-08-24T07:04:01Z</time>
      </trkpt>
      <trkpt lat="45.20804" lon="2.85231">
        <ele>1137.6</ele>
        <time>2021-08-24T07:04:03Z</time>
      </trkpt>
      <trkpt lat="45.20812" lon="2.85235">
        <ele>1137.5</ele>
        <time>2021-08-24T07:04:05Z</time>
      </trkpt>
      <trkpt lat="45.20819" lon="2.85239">
        <ele>1137.4</ele>
        <time>2021-08-24T07:04:07Z</time>
      </trkpt>
      <trkpt lat="45.20827" lon="2.85243">
        <ele>1137.3</ele>
        <time>2021-08-24T07:04:09Z</time>
      </trkpt>
      <trkpt lat="45.20834" lon="2.85247">
        <ele>1137.2</ele>
        <time>2021-08-24T07:04:11Z</time>
      </trkpt>
      <trkpt lat="45.20842" lon="2.8525">
        <ele>1137.4</ele>
        <time>2021-08-24T07:04:13Z</time>
      </trkpt>
      <trkpt lat="45.2085" lon="2.85254">
        <ele>1137.7</ele>
        <time>2021-08-24T07:04:15Z</time>
      </trkpt>
      <trkpt lat="45.20857" lon="2.85258">
        <ele>1138</ele>
        <time>2021-08-24T07:04:17Z</time>
      </trkpt>
      <trkpt lat="45.20865" lon="2.85262">
        <ele>1138.3</ele>
        <time>2021-08-24T07:04:19Z</time>
      </trkpt>
      <trkpt lat="45.20872" lon="2.85266">
        <ele>1138.5</ele>
        <time>2021-08-24T07:04:21Z</time>
      </trkpt>
      <trkpt lat="45.2088" lon="2.8527">
        <ele>1138.7</ele>
        <time>2021-08-24T07:04:23Z</time>
      </trkpt>
      <trkpt lat="45.20887" lon="2.85274">
        <ele>1138.9</ele>
        <time>2021-08-24T07:04:25Z</time>
      </trkpt>
      <trkpt lat="45.20895" lon="2.85278">
        <ele>1139.1</ele>
        <time>2021-08-24T07:04:27Z</time>
      </trkpt>
      <trkpt lat="45.20902" lon="2.85282">
        <ele>1139.3</ele>
        <time>2021-08-24T07:04:29Z</time>
      </trkpt>
      <trkpt lat="45.20909" lon="2.85286">
        <ele>1139.4</ele>
        <time>2021-08-24T07:04:31Z</time>
      </trkpt>
      <trkpt lat="45.20917" lon="2.85291">
        <ele>1139.5</ele>
        <time>2021-08-24T07:04:33Z</time>
      </trkpt>
      <trkpt lat="45.20924" lon="2.85295">
        <ele>1139.6</ele>
        <time>2021-08-24T07:04:35Z</time>
      </trkpt>
      <trkpt lat="45.20931" lon="2.853">
        <ele>1139.6</ele>
        <time>2021-08-24T07:04:37Z</time>
      </trkpt>
      <trkpt lat="45.20938" lon="2.85305">
        <ele>1139.6</ele>
        <time>2021-08-24T07:04:39Z</time>
      </trkpt>
      <trkpt lat="45.20945" lon="2.8531">
        <ele>1139.6</ele>
        <time>2021-08-24T07:04:41Z</time>
      </trkpt>
      <trkpt lat="45.20952" lon="2.85315">
        <ele>1139.6</ele>
        <time>2021-08-24T07:04:43Z</time>
      </trkpt>
      <trkpt lat="45.20958" lon="2.85321">
        <ele>1139.5</ele>
        <time>2021-08-24T07:04:45Z</time>
      </trkpt>
      <trkpt lat="45.20965" lon="2.85328">
        <ele>1139.4</ele>
        <time>2021-08-24T07:04:47Z</time>
      </trkpt>
      <trkpt lat="45.20971" lon="2.85334">
        <ele>1139.3</ele>
        <time>2021-08-24T07:04:49Z</time>
      </trkpt>
      <trkpt lat="45.20977" lon="2.85342">
        <ele>1139.6</ele>
        <time>2021-08-24T07:04:51Z</time>
      </trkpt>
      <trkpt lat="45.20983" lon="2.8535">
        <ele>1139.8</ele>
        <time>2021-08-24T07:04:53Z</time>
      </trkpt>
      <trkpt lat="45.2099" lon="2.85359">
        <ele>1140.1</ele>
        <time>2021-08-24T07:04:55Z</time>
      </trkpt>
      <trkpt lat="45.20996" lon="2.85368">
        <ele>1140.3</ele>
        <time>2021-08-24T07:04:57Z</time>
      </trkpt>
      <trkpt lat="45.21002" lon="2.85377">
        <ele>1140.5</ele>
        <time>2021-08-24T07:04:59Z</time>
      </trkpt>
      <trkpt lat="45.21008" lon="2.85386">
        <ele>1140.7</ele>
        <time>2021-08-24T07:05:01Z</time>
      </trkpt>
      <trkpt lat="45.21014" lon="2.85395">
        <ele>1140.8</ele>
        <time>2021-08-24T07:05:03Z</time>
      </trkpt>
      <trkpt lat="45.2102" lon="2.85405">
        <ele>1140.9</ele>
        <time>2021-08-24T07:05:05Z</time>
      </trkpt>
      <trkpt lat="45.21027" lon="2.85414">
        <ele>1141</ele>
        <time>2021-08-24T07:05:07Z</time>
      </trkpt>
      <trkpt lat="45.21033" lon="2.85423">
        <ele>1141</ele>
        <time>2021-08-24T07:05:09Z</time>
      </trkpt>
      <trkpt lat="45.21039" lon="2.85433">
        <ele>1140.9</ele>
        <time>2021-08-24T07:05:11Z</time>
      </trkpt>
      <trkpt lat="45.21046" lon="2.85443">
        <ele>1140.8</ele>
        <time>2021-08-24T07:05:13Z</time>
      </trkpt>
      <trkpt lat="45.21052" lon="2.85452">
        <ele>1140.7</ele>
        <time>2021-08-24T07:05:15Z</time>
      </trkpt>
      <trkpt lat="45.21059" lon="2.85462">
        <ele>1140.6</ele>
        <time>2021-08-24T07:05:17Z</time>
      </trkpt>
      <trkpt lat="45.21065" lon="2.85472">
        <ele>1140.5</ele>
        <time>2021-08-24T07:05:19Z</time>
      </trkpt>
      <trkpt lat="45.21072" lon="2.85481">
        <ele>1140.3</ele>
        <time>2021-08-24T07:05:21Z</time>
      </trkpt>
      <trkpt lat="45.21078" lon="2.8549">
        <ele>1140.2</ele>
        <time>2021-08-24T07:05:23Z</time>
      </trkpt>
      <trkpt lat="45.21085" lon="2.855">
        <ele>1140</ele>
        <time>2021-08-24T07:05:25Z</time>
      </trkpt>
      <trkpt lat="45.21091" lon="2.85509">
        <ele>1139.6</ele>
        <time>2021-08-24T07:05:27Z</time>
      </trkpt>
      <trkpt lat="45.21098" lon="2.85518">
        <ele>1139.2</ele>
        <time>2021-08-24T07:05:29Z</time>
      </trkpt>
      <trkpt lat="45.21104" lon="2.85528">
        <ele>1138.9</ele>
        <time>2021-08-24T07:05:31Z</time>
      </trkpt>
      <trkpt lat="45.21111" lon="2.85537">
        <ele>1138.7</ele>
        <time>2021-08-24T07:05:33Z</time>
      </trkpt>
      <trkpt lat="45.21117" lon="2.85546">
        <ele>1138.5</ele>
        <time>2021-08-24T07:05:35Z</time>
      </trkpt>
      <trkpt lat="45.21124" lon="2.85556">
        <ele>1138.3</ele>
        <time>2021-08-24T07:05:37Z</time>
      </trkpt>
      <trkpt lat="45.21131" lon="2.85566">
        <ele>1138.2</ele>
        <time>2021-08-24T07:05:39Z</time>
      </trkpt>
      <trkpt lat="45.21137" lon="2.85576">
        <ele>1138.1</ele>
        <time>2021-08-24T07:05:41Z</time>
      </trkpt>
      <trkpt lat="45.21143" lon="2.85586">
        <ele>1138.2</ele>
        <time>2021-08-24T07:05:43Z</time>
      </trkpt>
      <trkpt lat="45.21149" lon="2.85596">
        <ele>1138.4</ele>
        <time>2021-08-24T07:05:45Z</time>
      </trkpt>
      <trkpt lat="45.21154" lon="2.85607">
        <ele>1138.7</ele>
        <time>2021-08-24T07:05:47Z</time>
      </trkpt>
      <trkpt lat="45.21159" lon="2.85618">
        <ele>1139</ele>
        <time>2021-08-24T07:05:49Z</time>
      </trkpt>
      <trkpt lat="45.21163" lon="2.8563">
        <ele>1139.4</ele>
        <time>2021-08-24T07:05:51Z</time>
      </trkpt>
      <trkpt lat="45.21168" lon="2.85641">
        <ele>1139.8</ele>
        <time>2021-08-24T07:05:53Z</time>
      </trkpt>
      <trkpt lat="45.21172" lon="2.85653">
        <ele>1140.5</ele>
        <time>2021-08-24T07:05:55Z</time>
      </trkpt>
      <trkpt lat="45.21176" lon="2.85665">
        <ele>1141.2</ele>
        <time>2021-08-24T07:05:57Z</time>
      </trkpt>
      <trkpt lat="45.2118" lon="2.85677">
        <ele>1141.2</ele>
        <time>2021-08-24T07:05:59Z</time>
      </trkpt>
      <trkpt lat="45.21184" lon="2.85689">
        <ele>1141</ele>
        <time>2021-08-24T07:06:01Z</time>
      </trkpt>
      <trkpt lat="45.21189" lon="2.85701">
        <ele>1140.9</ele>
        <time>2021-08-24T07:06:03Z</time>
      </trkpt>
      <trkpt lat="45.21192" lon="2.85713">
        <ele>1140.8</ele>
        <time>2021-08-24T07:06:05Z</time>
      </trkpt>
      <trkpt lat="45.21197" lon="2.85725">
        <ele>1140.7</ele>
        <time>2021-08-24T07:06:07Z</time>
      </trkpt>
      <trkpt lat="45.21201" lon="2.85737">
        <ele>1140.6</ele>
        <time>2021-08-24T07:06:09Z</time>
      </trkpt>
      <trkpt lat="45.21205" lon="2.8575">
        <ele>1140.5</ele>
        <time>2021-08-24T07:06:11Z</time>
      </trkpt>
      <trkpt lat="45.21209" lon="2.85762">
        <ele>1140.3</ele>
        <time>2021-08-24T07:06:13Z</time>
      </trkpt>
      <trkpt lat="45.21213" lon="2.85775">
        <ele>1140.1</ele>
        <time>2021-08-24T07:06:15Z</time>
      </trkpt>
      <trkpt lat="45.21217" lon="2.85787">
        <ele>1139.9</ele>
        <time>2021-08-24T07:06:17Z</time>
      </trkpt>
      <trkpt lat="45.21222" lon="2.858">
        <ele>1139.7</ele>
        <time>2021-08-24T07:06:19Z</time>
      </trkpt>
      <trkpt lat="45.21226" lon="2.85811">
        <ele>1139.6</ele>
        <time>2021-08-24T07:06:21Z</time>
      </trkpt>
      <trkpt lat="45.21229" lon="2.85824">
        <ele>1139.4</ele>
        <time>2021-08-24T07:06:23Z</time>
      </trkpt>
      <trkpt lat="45.21233" lon="2.85836">
        <ele>1139.2</ele>
        <time>2021-08-24T07:06:25Z</time>
      </trkpt>
      <trkpt lat="45.21237" lon="2.85848">
        <ele>1139.1</ele>
        <time>2021-08-24T07:06:27Z</time>
      </trkpt>
      <trkpt lat="45.21241" lon="2.8586">
        <ele>1139</ele>
        <time>2021-08-24T07:06:29Z</time>
      </trkpt>
      <trkpt lat="45.21245" lon="2.85873">
        <ele>1138.9</ele>
        <time>2021-08-24T07:06:31Z</time>
      </trkpt>
      <trkpt lat="45.21249" lon="2.85886">
        <ele>1138.7</ele>
        <time>2021-08-24T07:06:33Z</time>
      </trkpt>
      <trkpt lat="45.21253" lon="2.85899">
        <ele>1138.5</ele>
        <time>2021-08-24T07:06:35Z</time>
      </trkpt>
      <trkpt lat="45.21257" lon="2.85912">
        <ele>1138.4</ele>
        <time>2021-08-24T07:06:37Z</time>
      </trkpt>
      <trkpt lat="45.21262" lon="2.85926">
        <ele>1138.4</ele>
        <time>2021-08-24T07:06:39Z</time>
      </trkpt>
      <trkpt lat="45.21266" lon="2.8594">
        <ele>1138.5</ele>
        <time>2021-08-24T07:06:41Z</time>
      </trkpt>
      <trkpt lat="45.21269" lon="2.85954">
        <ele>1138.5</ele>
        <time>2021-08-24T07:06:43Z</time>
      </trkpt>
      <trkpt lat="45.21272" lon="2.85969">
        <ele>1138.5</ele>
        <time>2021-08-24T07:06:45Z</time>
      </trkpt>
      <trkpt lat="45.21275" lon="2.85984">
        <ele>1138.4</ele>
        <time>2021-08-24T07:06:47Z</time>
      </trkpt>
      <trkpt lat="45.21278" lon="2.85999">
        <ele>1138.4</ele>
        <time>2021-08-24T07:06:49Z</time>
      </trkpt>
      <trkpt lat="45.21281" lon="2.86014">
        <ele>1138.7</ele>
        <time>2021-08-24T07:06:51Z</time>
      </trkpt>
      <trkpt lat="45.21285" lon="2.86029">
        <ele>1139</ele>
        <time>2021-08-24T07:06:53Z</time>
      </trkpt>
      <trkpt lat="45.21287" lon="2.86044">
        <ele>1139</ele>
        <time>2021-08-24T07:06:55Z</time>
      </trkpt>
      <trkpt lat="45.21289" lon="2.86059">
        <ele>1139.1</ele>
        <time>2021-08-24T07:06:57Z</time>
      </trkpt>
      <trkpt lat="45.21292" lon="2.86074">
        <ele>1139.3</ele>
        <time>2021-08-24T07:06:59Z</time>
      </trkpt>
      <trkpt lat="45.21295" lon="2.86089">
        <ele>1139.3</ele>
        <time>2021-08-24T07:07:01Z</time>
      </trkpt>
      <trkpt lat="45.21298" lon="2.86104">
        <ele>1139.2</ele>
        <time>2021-08-24T07:07:03Z</time>
      </trkpt>
      <trkpt lat="45.213" lon="2.86119">
        <ele>1139</ele>
        <time>2021-08-24T07:07:05Z</time>
      </trkpt>
      <trkpt lat="45.21303" lon="2.86134">
        <ele>1138.9</ele>
        <time>2021-08-24T07:07:07Z</time>
      </trkpt>
      <trkpt lat="45.21306" lon="2.86149">
        <ele>1138.5</ele>
        <time>2021-08-24T07:07:09Z</time>
      </trkpt>
      <trkpt lat="45.21309" lon="2.86164">
        <ele>1138.2</ele>
        <time>2021-08-24T07:07:11Z</time>
      </trkpt>
      <trkpt lat="45.21311" lon="2.86178">
        <ele>1138.3</ele>
        <time>2021-08-24T07:07:13Z</time>
      </trkpt>
      <trkpt lat="45.21312" lon="2.86193">
        <ele>1138.4</ele>
        <time>2021-08-24T07:07:15Z</time>
      </trkpt>
      <trkpt lat="45.21313" lon="2.86207">
        <ele>1138.3</ele>
        <time>2021-08-24T07:07:17Z</time>
      </trkpt>
      <trkpt lat="45.21313" lon="2.8622">
        <ele>1138.2</ele>
        <time>2021-08-24T07:07:19Z</time>
      </trkpt>
      <trkpt lat="45.21313" lon="2.86233">
        <ele>1138</ele>
        <time>2021-08-24T07:07:21Z</time>
      </trkpt>
      <trkpt lat="45.21313" lon="2.86246">
        <ele>1137.8</ele>
        <time>2021-08-24T07:07:23Z</time>
      </trkpt>
      <trkpt lat="45.21312" lon="2.86258">
        <ele>1137.8</ele>
        <time>2021-08-24T07:07:25Z</time>
      </trkpt>
      <trkpt lat="45.21311" lon="2.8627">
        <ele>1137.9</ele>
        <time>2021-08-24T07:07:27Z</time>
      </trkpt>
      <trkpt lat="45.21311" lon="2.86282">
        <ele>1138.1</ele>
        <time>2021-08-24T07:07:29Z</time>
      </trkpt>
      <trkpt lat="45.2131" lon="2.86294">
        <ele>1138.2</ele>
        <time>2021-08-24T07:07:31Z</time>
      </trkpt>
      <trkpt lat="45.2131" lon="2.86306">
        <ele>1138.3</ele>
        <time>2021-08-24T07:07:33Z</time>
      </trkpt>
      <trkpt lat="45.21309" lon="2.86318">
        <ele>1138.4</ele>
        <time>2021-08-24T07:07:35Z</time>
      </trkpt>
      <trkpt lat="45.21309" lon="2.8633">
        <ele>1138.5</ele>
        <time>2021-08-24T07:07:37Z</time>
      </trkpt>
      <trkpt lat="45.21308" lon="2.86342">
        <ele>1138.6</ele>
        <time>2021-08-24T07:07:39Z</time>
      </trkpt>
      <trkpt lat="45.21308" lon="2.86354">
        <ele>1138.7</ele>
        <time>2021-08-24T07:07:41Z</time>
      </trkpt>
      <trkpt lat="45.21308" lon="2.86366">
        <ele>1138.8</ele>
        <time>2021-08-24T07:07:43Z</time>
      </trkpt>
      <trkpt lat="45.21308" lon="2.86378">
        <ele>1138.9</ele>
        <time>2021-08-24T07:07:45Z</time>
      </trkpt>
      <trkpt lat="45.21308" lon="2.8639">
        <ele>1139</ele>
        <time>2021-08-24T07:07:47Z</time>
      </trkpt>
      <trkpt lat="45.21309" lon="2.86402">
        <ele>1139.2</ele>
        <time>2021-08-24T07:07:49Z</time>
      </trkpt>
      <trkpt lat="45.21309" lon="2.86414">
        <ele>1139.4</ele>
        <time>2021-08-24T07:07:51Z</time>
      </trkpt>
      <trkpt lat="45.2131" lon="2.86426">
        <ele>1139.5</ele>
        <time>2021-08-24T07:07:53Z</time>
      </trkpt>
      <trkpt lat="45.21311" lon="2.86438">
        <ele>1139.4</ele>
        <time>2021-08-24T07:07:55Z</time>
      </trkpt>
      <trkpt lat="45.21311" lon="2.86449">
        <ele>1139.5</ele>
        <time>2021-08-24T07:07:57Z</time>
      </trkpt>
      <trkpt lat="45.21312" lon="2.8646">
        <ele>1139.5</ele>
        <time>2021-08-24T07:07:59Z</time>
      </trkpt>
      <trkpt lat="45.21312" lon="2.86472">
        <ele>1139.5</ele>
        <time>2021-08-24T07:08:01Z</time>
      </trkpt>
      <trkpt lat="45.21313" lon="2.86483">
        <ele>1139.5</ele>
        <time>2021-08-24T07:08:03Z</time>
      </trkpt>
      <trkpt lat="45.21314" lon="2.86495">
        <ele>1139.5</ele>
        <time>2021-08-24T07:08:05Z</time>
      </trkpt>
      <trkpt lat="45.21314" lon="2.86507">
        <ele>1139.4</ele>
        <time>2021-08-24T07:08:07Z</time>
      </trkpt>
      <trkpt lat="45.21315" lon="2.86518">
        <ele>1139.2</ele>
        <time>2021-08-24T07:08:09Z</time>
      </trkpt>
      <trkpt lat="45.21316" lon="2.8653">
        <ele>1139</ele>
        <time>2021-08-24T07:08:11Z</time>
      </trkpt>
      <trkpt lat="45.21317" lon="2.86541">
        <ele>1138.7</ele>
        <time>2021-08-24T07:08:13Z</time>
      </trkpt>
      <trkpt lat="45.21317" lon="2.86553">
        <ele>1138.5</ele>
        <time>2021-08-24T07:08:15Z</time>
      </trkpt>
      <trkpt lat="45.21318" lon="2.86564">
        <ele>1138.2</ele>
        <time>2021-08-24T07:08:17Z</time>
      </trkpt>
      <trkpt lat="45.21319" lon="2.86576">
        <ele>1138</ele>
        <time>2021-08-24T07:08:19Z</time>
      </trkpt>
      <trkpt lat="45.2132" lon="2.86588">
        <ele>1137.8</ele>
        <time>2021-08-24T07:08:21Z</time>
      </trkpt>
      <trkpt lat="45.21321" lon="2.86599">
        <ele>1137.9</ele>
        <time>2021-08-24T07:08:23Z</time>
      </trkpt>
      <trkpt lat="45.21322" lon="2.86611">
        <ele>1138.1</ele>
        <time>2021-08-24T07:08:25Z</time>
      </trkpt>
      <trkpt lat="45.21323" lon="2.86622">
        <ele>1138.1</ele>
        <time>2021-08-24T07:08:27Z</time>
      </trkpt>
      <trkpt lat="45.21324" lon="2.86633">
        <ele>1138.2</ele>
        <time>2021-08-24T07:08:29Z</time>
      </trkpt>
      <trkpt lat="45.21326" lon="2.86643">
        <ele>1138.3</ele>
        <time>2021-08-24T07:08:31Z</time>
      </trkpt>
      <trkpt lat="45.21327" lon="2.86654">
        <ele>1138.4</ele>
        <time>2021-08-24T07:08:33Z</time>
      </trkpt>
      <trkpt lat="45.21329" lon="2.86665">
        <ele>1138.4</ele>
        <time>2021-08-24T07:08:35Z</time>
      </trkpt>
      <trkpt lat="45.2133" lon="2.86676">
        <ele>1138.1</ele>
        <time>2021-08-24T07:08:37Z</time>
      </trkpt>
      <trkpt lat="45.21332" lon="2.86686">
        <ele>1137.6</ele>
        <time>2021-08-24T07:08:39Z</time>
      </trkpt>
      <trkpt lat="45.21333" lon="2.86696">
        <ele>1137.2</ele>
        <time>2021-08-24T07:08:41Z</time>
      </trkpt>
      <trkpt lat="45.21335" lon="2.86707">
        <ele>1136.8</ele>
        <time>2021-08-24T07:08:43Z</time>
      </trkpt>
      <trkpt lat="45.21336" lon="2.86717">
        <ele>1136.3</ele>
        <time>2021-08-24T07:08:45Z</time>
      </trkpt>
      <trkpt lat="45.21338" lon="2.86728">
        <ele>1135.9</ele>
        <time>2021-08-24T07:08:47Z</time>
      </trkpt>
      <trkpt lat="45.2134" lon="2.86739">
        <ele>1135.5</ele>
        <time>2021-08-24T07:08:49Z</time>
      </trkpt>
      <trkpt lat="45.21341" lon="2.8675">
        <ele>1135</ele>
        <time>2021-08-24T07:08:51Z</time>
      </trkpt>
      <trkpt lat="45.21343" lon="2.86761">
        <ele>1135</ele>
        <time>2021-08-24T07:08:53Z</time>
      </trkpt>
      <trkpt lat="45.21345" lon="2.86772">
        <ele>1135</ele>
        <time>2021-08-24T07:08:55Z</time>
      </trkpt>
      <trkpt lat="45.21346" lon="2.86783">
        <ele>1134.9</ele>
        <time>2021-08-24T07:08:57Z</time>
      </trkpt>
      <trkpt lat="45.21348" lon="2.86794">
        <ele>1134.9</ele>
        <time>2021-08-24T07:08:59Z</time>
      </trkpt>
      <trkpt lat="45.2135" lon="2.86806">
        <ele>1134.9</ele>
        <time>2021-08-24T07:09:01Z</time>
      </trkpt>
      <trkpt lat="45.21352" lon="2.86818">
        <ele>1134.8</ele>
        <time>2021-08-24T07:09:03Z</time>
      </trkpt>
      <trkpt lat="45.21354" lon="2.8683">
        <ele>1134.8</ele>
        <time>2021-08-24T07:09:05Z</time>
      </trkpt>
      <trkpt lat="45.21356" lon="2.86843">
        <ele>1134.8</ele>
        <time>2021-08-24T07:09:07Z</time>
      </trkpt>
      <trkpt lat="45.21358" lon="2.86855">
        <ele>1134.9</ele>
        <time>2021-08-24T07:09:09Z</time>
      </trkpt>
      <trkpt lat="45.2136" lon="2.86867">
        <ele>1134.9</ele>
        <time>2021-08-24T07:09:11Z</time>
      </trkpt>
      <trkpt lat="45.21362" lon="2.86878">
        <ele>1134.9</ele>
        <time>2021-08-24T07:09:13Z</time>
      </trkpt>
      <trkpt lat="45.21365" lon="2.8689">
        <ele>1134.9</ele>
        <time>2021-08-24T07:09:15Z</time>
      </trkpt>
      <trkpt lat="45.21367" lon="2.86901">
        <ele>1134.9</ele>
        <time>2021-08-24T07:09:17Z</time>
      </trkpt>
      <trkpt lat="45.21369" lon="2.86913">
        <ele>1134.9</ele>
        <time>2021-08-24T07:09:19Z</time>
      </trkpt>
      <trkpt lat="45.21372" lon="2.86925">
        <ele>1135.1</ele>
        <time>2021-08-24T07:09:21Z</time>
      </trkpt>
      <trkpt lat="45.21374" lon="2.86938">
        <ele>1135.2</ele>
        <time>2021-08-24T07:09:23Z</time>
      </trkpt>
      <trkpt lat="45.21378" lon="2.86951">
        <ele>1135.3</ele>
        <time>2021-08-24T07:09:25Z</time>
      </trkpt>
      <trkpt lat="45.2138" lon="2.86964">
        <ele>1135.4</ele>
        <time>2021-08-24T07:09:27Z</time>
      </trkpt>
      <trkpt lat="45.21383" lon="2.86977">
        <ele>1135.5</ele>
        <time>2021-08-24T07:09:29Z</time>
      </trkpt>
      <trkpt lat="45.21386" lon="2.8699">
        <ele>1135.6</ele>
        <time>2021-08-24T07:09:31Z</time>
      </trkpt>
      <trkpt lat="45.21389" lon="2.87003">
        <ele>1135.6</ele>
        <time>2021-08-24T07:09:33Z</time>
      </trkpt>
      <trkpt lat="45.21392" lon="2.87016">
        <ele>1135.7</ele>
        <time>2021-08-24T07:09:35Z</time>
      </trkpt>
      <trkpt lat="45.21395" lon="2.8703">
        <ele>1135.7</ele>
        <time>2021-08-24T07:09:37Z</time>
      </trkpt>
      <trkpt lat="45.21398" lon="2.87043">
        <ele>1135.7</ele>
        <time>2021-08-24T07:09:39Z</time>
      </trkpt>
      <trkpt lat="45.21401" lon="2.87056">
        <ele>1135.6</ele>
        <time>2021-08-24T07:09:41Z</time>
      </trkpt>
      <trkpt lat="45.21405" lon="2.8707">
        <ele>1135.6</ele>
        <time>2021-08-24T07:09:43Z</time>
      </trkpt>
      <trkpt lat="45.21408" lon="2.87083">
        <ele>1135.5</ele>
        <time>2021-08-24T07:09:45Z</time>
      </trkpt>
      <trkpt lat="45.21411" lon="2.87097">
        <ele>1135.3</ele>
        <time>2021-08-24T07:09:47Z</time>
      </trkpt>
      <trkpt lat="45.21414" lon="2.87111">
        <ele>1135.2</ele>
        <time>2021-08-24T07:09:49Z</time>
      </trkpt>
      <trkpt lat="45.21418" lon="2.87125">
        <ele>1135.1</ele>
        <time>2021-08-24T07:09:51Z</time>
      </trkpt>
      <trkpt lat="45.21421" lon="2.87139">
        <ele>1135</ele>
        <time>2021-08-24T07:09:53Z</time>
      </trkpt>
      <trkpt lat="45.21424" lon="2.87154">
        <ele>1134.9</ele>
        <time>2021-08-24T07:09:55Z</time>
      </trkpt>
      <trkpt lat="45.21428" lon="2.87168">
        <ele>1134.8</ele>
        <time>2021-08-24T07:09:57Z</time>
      </trkpt>
      <trkpt lat="45.21431" lon="2.87182">
        <ele>1134.7</ele>
        <time>2021-08-24T07:09:59Z</time>
      </trkpt>
      <trkpt lat="45.21434" lon="2.87196">
        <ele>1134.7</ele>
        <time>2021-08-24T07:10:01Z</time>
      </trkpt>
      <trkpt lat="45.21437" lon="2.87209">
        <ele>1134.7</ele>
        <time>2021-08-24T07:10:03Z</time>
      </trkpt>
      <trkpt lat="45.21441" lon="2.87223">
        <ele>1134.8</ele>
        <time>2021-08-24T07:10:05Z</time>
      </trkpt>
      <trkpt lat="45.21444" lon="2.87237">
        <ele>1134.8</ele>
        <time>2021-08-24T07:10:07Z</time>
      </trkpt>
      <trkpt lat="45.21447" lon="2.8725">
        <ele>1134.9</ele>
        <time>2021-08-24T07:10:09Z</time>
      </trkpt>
      <trkpt lat="45.2145" lon="2.87264">
        <ele>1134.9</ele>
        <time>2021-08-24T07:10:11Z</time>
      </trkpt>
      <trkpt lat="45.21453" lon="2.87278">
        <ele>1134.8</ele>
        <time>2021-08-24T07:10:13Z</time>
      </trkpt>
      <trkpt lat="45.21456" lon="2.87291">
        <ele>1134.8</ele>
        <time>2021-08-24T07:10:15Z</time>
      </trkpt>
      <trkpt lat="45.21459" lon="2.87305">
        <ele>1134.8</ele>
        <time>2021-08-24T07:10:17Z</time>
      </trkpt>
      <trkpt lat="45.21463" lon="2.87319">
        <ele>1134.8</ele>
        <time>2021-08-24T07:10:19Z</time>
      </trkpt>
      <trkpt lat="45.21466" lon="2.87332">
        <ele>1134.8</ele>
        <time>2021-08-24T07:10:21Z</time>
      </trkpt>
      <trkpt lat="45.21469" lon="2.87345">
        <ele>1134.6</ele>
        <time>2021-08-24T07:10:23Z</time>
      </trkpt>
      <trkpt lat="45.21472" lon="2.87359">
        <ele>1134.4</ele>
        <time>2021-08-24T07:10:25Z</time>
      </trkpt>
      <trkpt lat="45.21475" lon="2.87373">
        <ele>1134.2</ele>
        <time>2021-08-24T07:10:27Z</time>
      </trkpt>
      <trkpt lat="45.21478" lon="2.87386">
        <ele>1133.8</ele>
        <time>2021-08-24T07:10:29Z</time>
      </trkpt>
      <trkpt lat="45.2148" lon="2.874">
        <ele>1133.4</ele>
        <time>2021-08-24T07:10:31Z</time>
      </trkpt>
      <trkpt lat="45.21481" lon="2.87415">
        <ele>1132.9</ele>
        <time>2021-08-24T07:10:33Z</time>
      </trkpt>
      <trkpt lat="45.21482" lon="2.87429">
        <ele>1132.9</ele>
        <time>2021-08-24T07:10:35Z</time>
      </trkpt>
      <trkpt lat="45.21482" lon="2.87444">
        <ele>1132.9</ele>
        <time>2021-08-24T07:10:37Z</time>
      </trkpt>
      <trkpt lat="45.21481" lon="2.87459">
        <ele>1132.9</ele>
        <time>2021-08-24T07:10:39Z</time>
      </trkpt>
      <trkpt lat="45.2148" lon="2.87474">
        <ele>1132.8</ele>
        <time>2021-08-24T07:10:41Z</time>
      </trkpt>
      <trkpt lat="45.21478" lon="2.87489">
        <ele>1132.7</ele>
        <time>2021-08-24T07:10:43Z</time>
      </trkpt>
      <trkpt lat="45.21475" lon="2.87503">
        <ele>1132.5</ele>
        <time>2021-08-24T07:10:45Z</time>
      </trkpt>
      <trkpt lat="45.21472" lon="2.87518">
        <ele>1132.5</ele>
        <time>2021-08-24T07:10:47Z</time>
      </trkpt>
      <trkpt lat="45.21467" lon="2.87532">
        <ele>1132.4</ele>
        <time>2021-08-24T07:10:49Z</time>
      </trkpt>
      <trkpt lat="45.21462" lon="2.87545">
        <ele>1132.2</ele>
        <time>2021-08-24T07:10:51Z</time>
      </trkpt>
      <trkpt lat="45.21456" lon="2.87559">
        <ele>1132.1</ele>
        <time>2021-08-24T07:10:53Z</time>
      </trkpt>
      <trkpt lat="45.2145" lon="2.87572">
        <ele>1131.9</ele>
        <time>2021-08-24T07:10:55Z</time>
      </trkpt>
      <trkpt lat="45.21445" lon="2.87586">
        <ele>1131.8</ele>
        <time>2021-08-24T07:10:57Z</time>
      </trkpt>
      <trkpt lat="45.21438" lon="2.87599">
        <ele>1131.9</ele>
        <time>2021-08-24T07:10:59Z</time>
      </trkpt>
      <trkpt lat="45.21433" lon="2.87613">
        <ele>1132</ele>
        <time>2021-08-24T07:11:01Z</time>
      </trkpt>
      <trkpt lat="45.21427" lon="2.87626">
        <ele>1132.2</ele>
        <time>2021-08-24T07:11:03Z</time>
      </trkpt>
      <trkpt lat="45.21421" lon="2.87639">
        <ele>1132.3</ele>
        <time>2021-08-24T07:11:05Z</time>
      </trkpt>
      <trkpt lat="45.21415" lon="2.87652">
        <ele>1132.4</ele>
        <time>2021-08-24T07:11:07Z</time>
      </trkpt>
      <trkpt lat="45.2141" lon="2.87665">
        <ele>1132.8</ele>
        <time>2021-08-24T07:11:09Z</time>
      </trkpt>
      <trkpt lat="45.21404" lon="2.87677">
        <ele>1133</ele>
        <time>2021-08-24T07:11:11Z</time>
      </trkpt>
      <trkpt lat="45.21399" lon="2.8769">
        <ele>1133.1</ele>
        <time>2021-08-24T07:11:13Z</time>
      </trkpt>
      <trkpt lat="45.21394" lon="2.87702">
        <ele>1133.1</ele>
        <time>2021-08-24T07:11:15Z</time>
      </trkpt>
      <trkpt lat="45.21388" lon="2.87714">
        <ele>1133.2</ele>
        <time>2021-08-24T07:11:17Z</time>
      </trkpt>
      <trkpt lat="45.21383" lon="2.87726">
        <ele>1133.3</ele>
        <time>2021-08-24T07:11:19Z</time>
      </trkpt>
      <trkpt lat="45.21378" lon="2.87738">
        <ele>1133.4</ele>
        <time>2021-08-24T07:11:21Z</time>
      </trkpt>
      <trkpt lat="45.21373" lon="2.8775">
        <ele>1133.5</ele>
        <time>2021-08-24T07:11:23Z</time>
      </trkpt>
      <trkpt lat="45.21367" lon="2.87762">
        <ele>1133.6</ele>
        <time>2021-08-24T07:11:25Z</time>
      </trkpt>
      <trkpt lat="45.21362" lon="2.87773">
        <ele>1133.7</ele>
        <time>2021-08-24T07:11:27Z</time>
      </trkpt>
      <trkpt lat="45.21357" lon="2.87785">
        <ele>1133.8</ele>
        <time>2021-08-24T07:11:29Z</time>
      </trkpt>
      <trkpt lat="45.21352" lon="2.87797">
        <ele>1133.9</ele>
        <time>2021-08-24T07:11:31Z</time>
      </trkpt>
      <trkpt lat="45.21347" lon="2.87809">
        <ele>1134</ele>
        <time>2021-08-24T07:11:33Z</time>
      </trkpt>
      <trkpt lat="45.21341" lon="2.8782">
        <ele>1134</ele>
        <time>2021-08-24T07:11:35Z</time>
      </trkpt>
      <trkpt lat="45.21336" lon="2.87832">
        <ele>1134</ele>
        <time>2021-08-24T07:11:37Z</time>
      </trkpt>
      <trkpt lat="45.21331" lon="2.87844">
        <ele>1134</ele>
        <time>2021-08-24T07:11:39Z</time>
      </trkpt>
      <trkpt lat="45.21326" lon="2.87856">
        <ele>1133.9</ele>
        <time>2021-08-24T07:11:41Z</time>
      </trkpt>
      <trkpt lat="45.21322" lon="2.87868">
        <ele>1133.7</ele>
        <time>2021-08-24T07:11:43Z</time>
      </trkpt>
      <trkpt lat="45.21318" lon="2.87881">
        <ele>1133.6</ele>
        <time>2021-08-24T07:11:45Z</time>
      </trkpt>
      <trkpt lat="45.21314" lon="2.87894">
        <ele>1133.5</ele>
        <time>2021-08-24T07:11:47Z</time>
      </trkpt>
      <trkpt lat="45.21311" lon="2.87907">
        <ele>1133.4</ele>
        <time>2021-08-24T07:11:49Z</time>
      </trkpt>
      <trkpt lat="45.21309" lon="2.87921">
        <ele>1133.2</ele>
        <time>2021-08-24T07:11:51Z</time>
      </trkpt>
      <trkpt lat="45.21308" lon="2.87934">
        <ele>1133.1</ele>
        <time>2021-08-24T07:11:53Z</time>
      </trkpt>
      <trkpt lat="45.21308" lon="2.87947">
        <ele>1132.9</ele>
        <time>2021-08-24T07:11:55Z</time>
      </trkpt>
      <trkpt lat="45.21308" lon="2.8796">
        <ele>1132.8</ele>
        <time>2021-08-24T07:11:57Z</time>
      </trkpt>
      <trkpt lat="45.21309" lon="2.87974">
        <ele>1132.8</ele>
        <time>2021-08-24T07:11:59Z</time>
      </trkpt>
      <trkpt lat="45.2131" lon="2.87987">
        <ele>1132.7</ele>
        <time>2021-08-24T07:12:01Z</time>
      </trkpt>
      <trkpt lat="45.21313" lon="2.88001">
        <ele>1132.8</ele>
        <time>2021-08-24T07:12:03Z</time>
      </trkpt>
      <trkpt lat="45.21315" lon="2.88014">
        <ele>1133</ele>
        <time>2021-08-24T07:12:05Z</time>
      </trkpt>
      <trkpt lat="45.21318" lon="2.88028">
        <ele>1133.1</ele>
        <time>2021-08-24T07:12:07Z</time>
      </trkpt>
      <trkpt lat="45.21321" lon="2.88042">
        <ele>1133.3</ele>
        <time>2021-08-24T07:12:09Z</time>
      </trkpt>
      <trkpt lat="45.21324" lon="2.88056">
        <ele>1133.5</ele>
        <time>2021-08-24T07:12:11Z</time>
      </trkpt>
      <trkpt lat="45.21328" lon="2.88071">
        <ele>1133.7</ele>
        <time>2021-08-24T07:12:13Z</time>
      </trkpt>
      <trkpt lat="45.21331" lon="2.88085">
        <ele>1133.9</ele>
        <time>2021-08-24T07:12:15Z</time>
      </trkpt>
      <trkpt lat="45.21335" lon="2.88101">
        <ele>1133.8</ele>
        <time>2021-08-24T07:12:17Z</time>
      </trkpt>
      <trkpt lat="45.21338" lon="2.88116">
        <ele>1133.8</ele>
        <time>2021-08-24T07:12:19Z</time>
      </trkpt>
      <trkpt lat="45.21341" lon="2.88132">
        <ele>1133.8</ele>
        <time>2021-08-24T07:12:21Z</time>
      </trkpt>
      <trkpt lat="45.21345" lon="2.88147">
        <ele>1133.8</ele>
        <time>2021-08-24T07:12:23Z</time>
      </trkpt>
      <trkpt lat="45.21349" lon="2.88163">
        <ele>1133.8</ele>
        <time>2021-08-24T07:12:25Z</time>
      </trkpt>
      <trkpt lat="45.21352" lon="2.88179">
        <ele>1134</ele>
        <time>2021-08-24T07:12:27Z</time>
      </trkpt>
      <trkpt lat="45.21355" lon="2.88195">
        <ele>1134.2</ele>
        <time>2021-08-24T07:12:29Z</time>
      </trkpt>
      <trkpt lat="45.2136" lon="2.88211">
        <ele>1134.5</ele>
        <time>2021-08-24T07:12:31Z</time>
      </trkpt>
      <trkpt lat="45.21363" lon="2.88226">
        <ele>1134.6</ele>
        <time>2021-08-24T07:12:33Z</time>
      </trkpt>
      <trkpt lat="45.21367" lon="2.88242">
        <ele>1134.8</ele>
        <time>2021-08-24T07:12:35Z</time>
      </trkpt>
      <trkpt lat="45.21371" lon="2.88258">
        <ele>1134.8</ele>
        <time>2021-08-24T07:12:37Z</time>
      </trkpt>
      <trkpt lat="45.21374" lon="2.88275">
        <ele>1134.7</ele>
        <time>2021-08-24T07:12:39Z</time>
      </trkpt>
      <trkpt lat="45.21377" lon="2.88291">
        <ele>1134.5</ele>
        <time>2021-08-24T07:12:41Z</time>
      </trkpt>
      <trkpt lat="45.21381" lon="2.88307">
        <ele>1134.4</ele>
        <time>2021-08-24T07:12:43Z</time>
      </trkpt>
      <trkpt lat="45.21385" lon="2.88323">
        <ele>1134.1</ele>
        <time>2021-08-24T07:12:45Z</time>
      </trkpt>
      <trkpt lat="45.21389" lon="2.8834">
        <ele>1133.9</ele>
        <time>2021-08-24T07:12:47Z</time>
      </trkpt>
      <trkpt lat="45.21392" lon="2.88356">
        <ele>1133.6</ele>
        <time>2021-08-24T07:12:49Z</time>
      </trkpt>
      <trkpt lat="45.21395" lon="2.88372">
        <ele>1133.3</ele>
        <time>2021-08-24T07:12:51Z</time>
      </trkpt>
      <trkpt lat="45.21399" lon="2.88388">
        <ele>1133</ele>
        <time>2021-08-24T07:12:53Z</time>
      </trkpt>
      <trkpt lat="45.21402" lon="2.88403">
        <ele>1132.6</ele>
        <time>2021-08-24T07:12:55Z</time>
      </trkpt>
      <trkpt lat="45.21407" lon="2.88417">
        <ele>1132.2</ele>
        <time>2021-08-24T07:12:57Z</time>
      </trkpt>
      <trkpt lat="45.21411" lon="2.88432">
        <ele>1131.8</ele>
        <time>2021-08-24T07:12:59Z</time>
      </trkpt>
      <trkpt lat="45.21417" lon="2.88446">
        <ele>1131.3</ele>
        <time>2021-08-24T07:13:01Z</time>
      </trkpt>
      <trkpt lat="45.21423" lon="2.88459">
        <ele>1131.2</ele>
        <time>2021-08-24T07:13:03Z</time>
      </trkpt>
      <trkpt lat="45.2143" lon="2.88472">
        <ele>1131.2</ele>
        <time>2021-08-24T07:13:05Z</time>
      </trkpt>
      <trkpt lat="45.21437" lon="2.88484">
        <ele>1131.2</ele>
        <time>2021-08-24T07:13:07Z</time>
      </trkpt>
      <trkpt lat="45.21445" lon="2.88496">
        <ele>1131.1</ele>
        <time>2021-08-24T07:13:09Z</time>
      </trkpt>
      <trkpt lat="45.21453" lon="2.88508">
        <ele>1131.2</ele>
        <time>2021-08-24T07:13:11Z</time>
      </trkpt>
      <trkpt lat="45.21461" lon="2.8852">
        <ele>1131.2</ele>
        <time>2021-08-24T07:13:13Z</time>
      </trkpt>
      <trkpt lat="45.21468" lon="2.88533">
        <ele>1131.1</ele>
        <time>2021-08-24T07:13:15Z</time>
      </trkpt>
      <trkpt lat="45.21474" lon="2.88546">
        <ele>1130.9</ele>
        <time>2021-08-24T07:13:17Z</time>
      </trkpt>
      <trkpt lat="45.2148" lon="2.8856">
        <ele>1130.6</ele>
        <time>2021-08-24T07:13:19Z</time>
      </trkpt>
      <trkpt lat="45.21485" lon="2.88575">
        <ele>1130.3</ele>
        <time>2021-08-24T07:13:21Z</time>
      </trkpt>
      <trkpt lat="45.21489" lon="2.8859">
        <ele>1130</ele>
        <time>2021-08-24T07:13:23Z</time>
      </trkpt>
      <trkpt lat="45.21493" lon="2.88606">
        <ele>1130</ele>
        <time>2021-08-24T07:13:25Z</time>
      </trkpt>
      <trkpt lat="45.21495" lon="2.88622">
        <ele>1130</ele>
        <time>2021-08-24T07:13:27Z</time>
      </trkpt>
      <trkpt lat="45.21496" lon="2.88639">
        <ele>1130</ele>
        <time>2021-08-24T07:13:29Z</time>
      </trkpt>
      <trkpt lat="45.21496" lon="2.88656">
        <ele>1130</ele>
        <time>2021-08-24T07:13:31Z</time>
      </trkpt>
      <trkpt lat="45.21496" lon="2.88673">
        <ele>1130.1</ele>
        <time>2021-08-24T07:13:33Z</time>
      </trkpt>
      <trkpt lat="45.21494" lon="2.88688">
        <ele>1130.2</ele>
        <time>2021-08-24T07:13:35Z</time>
      </trkpt>
      <trkpt lat="45.21492" lon="2.88704">
        <ele>1130.3</ele>
        <time>2021-08-24T07:13:37Z</time>
      </trkpt>
      <trkpt lat="45.2149" lon="2.8872">
        <ele>1130.4</ele>
        <time>2021-08-24T07:13:39Z</time>
      </trkpt>
      <trkpt lat="45.21488" lon="2.88735">
        <ele>1130.5</ele>
        <time>2021-08-24T07:13:41Z</time>
      </trkpt>
      <trkpt lat="45.21487" lon="2.88751">
        <ele>1130.5</ele>
        <time>2021-08-24T07:13:43Z</time>
      </trkpt>
      <trkpt lat="45.21485" lon="2.88766">
        <ele>1130</ele>
        <time>2021-08-24T07:13:45Z</time>
      </trkpt>
      <trkpt lat="45.21485" lon="2.88782">
        <ele>1129.6</ele>
        <time>2021-08-24T07:13:47Z</time>
      </trkpt>
      <trkpt lat="45.21485" lon="2.88797">
        <ele>1129.1</ele>
        <time>2021-08-24T07:13:49Z</time>
      </trkpt>
      <trkpt lat="45.21486" lon="2.88812">
        <ele>1128.7</ele>
        <time>2021-08-24T07:13:51Z</time>
      </trkpt>
      <trkpt lat="45.21487" lon="2.88828">
        <ele>1128.4</ele>
        <time>2021-08-24T07:13:53Z</time>
      </trkpt>
      <trkpt lat="45.2149" lon="2.88843">
        <ele>1127.9</ele>
        <time>2021-08-24T07:13:55Z</time>
      </trkpt>
      <trkpt lat="45.21492" lon="2.88858">
        <ele>1127.2</ele>
        <time>2021-08-24T07:13:57Z</time>
      </trkpt>
      <trkpt lat="45.21496" lon="2.88873">
        <ele>1126.8</ele>
        <time>2021-08-24T07:13:59Z</time>
      </trkpt>
      <trkpt lat="45.215" lon="2.88887">
        <ele>1126.4</ele>
        <time>2021-08-24T07:14:01Z</time>
      </trkpt>
      <trkpt lat="45.21504" lon="2.88902">
        <ele>1126.1</ele>
        <time>2021-08-24T07:14:03Z</time>
      </trkpt>
      <trkpt lat="45.21508" lon="2.88916">
        <ele>1125.8</ele>
        <time>2021-08-24T07:14:05Z</time>
      </trkpt>
      <trkpt lat="45.21513" lon="2.88931">
        <ele>1125.8</ele>
        <time>2021-08-24T07:14:07Z</time>
      </trkpt>
      <trkpt lat="45.21517" lon="2.88945">
        <ele>1125.8</ele>
        <time>2021-08-24T07:14:09Z</time>
      </trkpt>
      <trkpt lat="45.21522" lon="2.88959">
        <ele>1125.8</ele>
        <time>2021-08-24T07:14:11Z</time>
      </trkpt>
      <trkpt lat="45.21526" lon="2.88973">
        <ele>1125.8</ele>
        <time>2021-08-24T07:14:13Z</time>
      </trkpt>
      <trkpt lat="45.21531" lon="2.88987">
        <ele>1125.7</ele>
        <time>2021-08-24T07:14:15Z</time>
      </trkpt>
      <trkpt lat="45.21535" lon="2.89001">
        <ele>1125.5</ele>
        <time>2021-08-24T07:14:17Z</time>
      </trkpt>
      <trkpt lat="45.2154" lon="2.89015">
        <ele>1125.2</ele>
        <time>2021-08-24T07:14:19Z</time>
      </trkpt>
      <trkpt lat="45.21545" lon="2.89029">
        <ele>1124.9</ele>
        <time>2021-08-24T07:14:21Z</time>
      </trkpt>
      <trkpt lat="45.2155" lon="2.89042">
        <ele>1124.6</ele>
        <time>2021-08-24T07:14:23Z</time>
      </trkpt>
      <trkpt lat="45.21555" lon="2.89055">
        <ele>1124.3</ele>
        <time>2021-08-24T07:14:25Z</time>
      </trkpt>
      <trkpt lat="45.2156" lon="2.89068">
        <ele>1124.1</ele>
        <time>2021-08-24T07:14:27Z</time>
      </trkpt>
      <trkpt lat="45.21567" lon="2.8908">
        <ele>1124</ele>
        <time>2021-08-24T07:14:29Z</time>
      </trkpt>
      <trkpt lat="45.21574" lon="2.89092">
        <ele>1123.8</ele>
        <time>2021-08-24T07:14:31Z</time>
      </trkpt>
      <trkpt lat="45.21581" lon="2.89103">
        <ele>1123.6</ele>
        <time>2021-08-24T07:14:33Z</time>
      </trkpt>
      <trkpt lat="45.21589" lon="2.89114">
        <ele>1123.3</ele>
        <time>2021-08-24T07:14:35Z</time>
      </trkpt>
      <trkpt lat="45.21597" lon="2.89125">
        <ele>1122.9</ele>
        <time>2021-08-24T07:14:37Z</time>
      </trkpt>
      <trkpt lat="45.21606" lon="2.89135">
        <ele>1122.5</ele>
        <time>2021-08-24T07:14:39Z</time>
      </trkpt>
      <trkpt lat="45.21614" lon="2.89145">
        <ele>1122.2</ele>
        <time>2021-08-24T07:14:41Z</time>
      </trkpt>
      <trkpt lat="45.21624" lon="2.89153">
        <ele>1121.8</ele>
        <time>2021-08-24T07:14:43Z</time>
      </trkpt>
      <trkpt lat="45.21633" lon="2.89161">
        <ele>1121.5</ele>
        <time>2021-08-24T07:14:45Z</time>
      </trkpt>
      <trkpt lat="45.21642" lon="2.89169">
        <ele>1121.3</ele>
        <time>2021-08-24T07:14:47Z</time>
      </trkpt>
      <trkpt lat="45.21652" lon="2.89176">
        <ele>1121.3</ele>
        <time>2021-08-24T07:14:49Z</time>
      </trkpt>
      <trkpt lat="45.21663" lon="2.89183">
        <ele>1121.2</ele>
        <time>2021-08-24T07:14:51Z</time>
      </trkpt>
      <trkpt lat="45.21673" lon="2.89188">
        <ele>1121.1</ele>
        <time>2021-08-24T07:14:53Z</time>
      </trkpt>
      <trkpt lat="45.21684" lon="2.89194">
        <ele>1121</ele>
        <time>2021-08-24T07:14:55Z</time>
      </trkpt>
      <trkpt lat="45.21694" lon="2.892">
        <ele>1121</ele>
        <time>2021-08-24T07:14:57Z</time>
      </trkpt>
      <trkpt lat="45.21703" lon="2.89206">
        <ele>1121</ele>
        <time>2021-08-24T07:14:59Z</time>
      </trkpt>
      <trkpt lat="45.21712" lon="2.89212">
        <ele>1121</ele>
        <time>2021-08-24T07:15:01Z</time>
      </trkpt>
      <trkpt lat="45.21721" lon="2.89218">
        <ele>1121</ele>
        <time>2021-08-24T07:15:03Z</time>
      </trkpt>
      <trkpt lat="45.2173" lon="2.89225">
        <ele>1121</ele>
        <time>2021-08-24T07:15:05Z</time>
      </trkpt>
      <trkpt lat="45.21738" lon="2.89232">
        <ele>1121.1</ele>
        <time>2021-08-24T07:15:07Z</time>
      </trkpt>
      <trkpt lat="45.21746" lon="2.89241">
        <ele>1121.1</ele>
        <time>2021-08-24T07:15:09Z</time>
      </trkpt>
      <trkpt lat="45.21753" lon="2.89251">
        <ele>1121.2</ele>
        <time>2021-08-24T07:15:11Z</time>
      </trkpt>
      <trkpt lat="45.21761" lon="2.8926">
        <ele>1121.4</ele>
        <time>2021-08-24T07:15:13Z</time>
      </trkpt>
      <trkpt lat="45.21767" lon="2.89272">
        <ele>1121.4</ele>
        <time>2021-08-24T07:15:15Z</time>
      </trkpt>
      <trkpt lat="45.21773" lon="2.89283">
        <ele>1121.5</ele>
        <time>2021-08-24T07:15:17Z</time>
      </trkpt>
      <trkpt lat="45.21779" lon="2.89296">
        <ele>1121.4</ele>
        <time>2021-08-24T07:15:19Z</time>
      </trkpt>
      <trkpt lat="45.21783" lon="2.89309">
        <ele>1121.3</ele>
        <time>2021-08-24T07:15:21Z</time>
      </trkpt>
      <trkpt lat="45.21788" lon="2.89323">
        <ele>1121.1</ele>
        <time>2021-08-24T07:15:23Z</time>
      </trkpt>
      <trkpt lat="45.21792" lon="2.89337">
        <ele>1120.9</ele>
        <time>2021-08-24T07:15:25Z</time>
      </trkpt>
      <trkpt lat="45.21795" lon="2.89353">
        <ele>1120.8</ele>
        <time>2021-08-24T07:15:27Z</time>
      </trkpt>
      <trkpt lat="45.21797" lon="2.89368">
        <ele>1120.6</ele>
        <time>2021-08-24T07:15:29Z</time>
      </trkpt>
      <trkpt lat="45.21799" lon="2.89385">
        <ele>1120.4</ele>
        <time>2021-08-24T07:15:31Z</time>
      </trkpt>
      <trkpt lat="45.21801" lon="2.89401">
        <ele>1120.1</ele>
        <time>2021-08-24T07:15:33Z</time>
      </trkpt>
      <trkpt lat="45.21803" lon="2.89418">
        <ele>1119.9</ele>
        <time>2021-08-24T07:15:35Z</time>
      </trkpt>
      <trkpt lat="45.21805" lon="2.89434">
        <ele>1119.4</ele>
        <time>2021-08-24T07:15:37Z</time>
      </trkpt>
      <trkpt lat="45.21806" lon="2.89451">
        <ele>1118.9</ele>
        <time>2021-08-24T07:15:39Z</time>
      </trkpt>
      <trkpt lat="45.21807" lon="2.89469">
        <ele>1118.3</ele>
        <time>2021-08-24T07:15:41Z</time>
      </trkpt>
      <trkpt lat="45.21809" lon="2.89486">
        <ele>1117.8</ele>
        <time>2021-08-24T07:15:43Z</time>
      </trkpt>
      <trkpt lat="45.21809" lon="2.89504">
        <ele>1117.3</ele>
        <time>2021-08-24T07:15:45Z</time>
      </trkpt>
      <trkpt lat="45.21808" lon="2.89523">
        <ele>1117.1</ele>
        <time>2021-08-24T07:15:47Z</time>
      </trkpt>
      <trkpt lat="45.21808" lon="2.89541">
        <ele>1117</ele>
        <time>2021-08-24T07:15:49Z</time>
      </trkpt>
      <trkpt lat="45.21806" lon="2.89559">
        <ele>1116.9</ele>
        <time>2021-08-24T07:15:51Z</time>
      </trkpt>
      <trkpt lat="45.21804" lon="2.89577">
        <ele>1116.7</ele>
        <time>2021-08-24T07:15:53Z</time>
      </trkpt>
      <trkpt lat="45.21803" lon="2.89594">
        <ele>1116.3</ele>
        <time>2021-08-24T07:15:55Z</time>
      </trkpt>
      <trkpt lat="45.21801" lon="2.89612">
        <ele>1115.7</ele>
        <time>2021-08-24T07:15:57Z</time>
      </trkpt>
      <trkpt lat="45.21799" lon="2.8963">
        <ele>1115.1</ele>
        <time>2021-08-24T07:15:59Z</time>
      </trkpt>
      <trkpt lat="45.21798" lon="2.89647">
        <ele>1114.6</ele>
        <time>2021-08-24T07:16:01Z</time>
      </trkpt>
      <trkpt lat="45.21796" lon="2.89665">
        <ele>1114</ele>
        <time>2021-08-24T07:16:03Z</time>
      </trkpt>
      <trkpt lat="45.21794" lon="2.89682">
        <ele>1113.8</ele>
        <time>2021-08-24T07:16:05Z</time>
      </trkpt>
      <trkpt lat="45.21792" lon="2.897">
        <ele>1113.8</ele>
        <time>2021-08-24T07:16:07Z</time>
      </trkpt>
      <trkpt lat="45.21791" lon="2.89718">
        <ele>1113.7</ele>
        <time>2021-08-24T07:16:09Z</time>
      </trkpt>
      <trkpt lat="45.2179" lon="2.89735">
        <ele>1113.7</ele>
        <time>2021-08-24T07:16:11Z</time>
      </trkpt>
      <trkpt lat="45.21788" lon="2.89752">
        <ele>1113.6</ele>
        <time>2021-08-24T07:16:13Z</time>
      </trkpt>
      <trkpt lat="45.21786" lon="2.8977">
        <ele>1113.7</ele>
        <time>2021-08-24T07:16:15Z</time>
      </trkpt>
      <trkpt lat="45.21785" lon="2.89787">
        <ele>1113.7</ele>
        <time>2021-08-24T07:16:17Z</time>
      </trkpt>
      <trkpt lat="45.21783" lon="2.89804">
        <ele>1113.7</ele>
        <time>2021-08-24T07:16:19Z</time>
      </trkpt>
      <trkpt lat="45.21782" lon="2.89822">
        <ele>1113.7</ele>
        <time>2021-08-24T07:16:21Z</time>
      </trkpt>
      <trkpt lat="45.2178" lon="2.89839">
        <ele>1113.6</ele>
        <time>2021-08-24T07:16:23Z</time>
      </trkpt>
      <trkpt lat="45.21779" lon="2.89856">
        <ele>1113.4</ele>
        <time>2021-08-24T07:16:25Z</time>
      </trkpt>
      <trkpt lat="45.21777" lon="2.89873">
        <ele>1113.2</ele>
        <time>2021-08-24T07:16:27Z</time>
      </trkpt>
      <trkpt lat="45.21776" lon="2.8989">
        <ele>1113</ele>
        <time>2021-08-24T07:16:29Z</time>
      </trkpt>
      <trkpt lat="45.21774" lon="2.89907">
        <ele>1112.8</ele>
        <time>2021-08-24T07:16:31Z</time>
      </trkpt>
      <trkpt lat="45.21773" lon="2.89924">
        <ele>1112.5</ele>
        <time>2021-08-24T07:16:33Z</time>
      </trkpt>
      <trkpt lat="45.21772" lon="2.89941">
        <ele>1112.2</ele>
        <time>2021-08-24T07:16:35Z</time>
      </trkpt>
      <trkpt lat="45.2177" lon="2.89958">
        <ele>1111.8</ele>
        <time>2021-08-24T07:16:37Z</time>
      </trkpt>
      <trkpt lat="45.21768" lon="2.89975">
        <ele>1111.4</ele>
        <time>2021-08-24T07:16:39Z</time>
      </trkpt>
      <trkpt lat="45.21766" lon="2.89992">
        <ele>1111</ele>
        <time>2021-08-24T07:16:41Z</time>
      </trkpt>
      <trkpt lat="45.21764" lon="2.90009">
        <ele>1110.7</ele>
        <time>2021-08-24T07:16:43Z</time>
      </trkpt>
      <trkpt lat="45.21761" lon="2.90026">
        <ele>1110.3</ele>
        <time>2021-08-24T07:16:45Z</time>
      </trkpt>
      <trkpt lat="45.21758" lon="2.90044">
        <ele>1110</ele>
        <time>2021-08-24T07:16:47Z</time>
      </trkpt>
      <trkpt lat="45.21755" lon="2.90061">
        <ele>1109.6</ele>
        <time>2021-08-24T07:16:49Z</time>
      </trkpt>
      <trkpt lat="45.21752" lon="2.90079">
        <ele>1109.1</ele>
        <time>2021-08-24T07:16:51Z</time>
      </trkpt>
      <trkpt lat="45.21749" lon="2.90097">
        <ele>1109.2</ele>
        <time>2021-08-24T07:16:53Z</time>
      </trkpt>
      <trkpt lat="45.21746" lon="2.90115">
        <ele>1109.4</ele>
        <time>2021-08-24T07:16:55Z</time>
      </trkpt>
      <trkpt lat="45.21743" lon="2.90133">
        <ele>1109.7</ele>
        <time>2021-08-24T07:16:57Z</time>
      </trkpt>
      <trkpt lat="45.21741" lon="2.90151">
        <ele>1109.9</ele>
        <time>2021-08-24T07:16:59Z</time>
      </trkpt>
      <trkpt lat="45.2174" lon="2.90169">
        <ele>1110.1</ele>
        <time>2021-08-24T07:17:01Z</time>
      </trkpt>
      <trkpt lat="45.2174" lon="2.90188">
        <ele>1109.6</ele>
        <time>2021-08-24T07:17:03Z</time>
      </trkpt>
      <trkpt lat="45.21742" lon="2.90207">
        <ele>1109.2</ele>
        <time>2021-08-24T07:17:05Z</time>
      </trkpt>
      <trkpt lat="45.21745" lon="2.90226">
        <ele>1108.7</ele>
        <time>2021-08-24T07:17:07Z</time>
      </trkpt>
      <trkpt lat="45.21749" lon="2.90246">
        <ele>1108.1</ele>
        <time>2021-08-24T07:17:09Z</time>
      </trkpt>
      <trkpt lat="45.21754" lon="2.90265">
        <ele>1107.8</ele>
        <time>2021-08-24T07:17:11Z</time>
      </trkpt>
      <trkpt lat="45.2176" lon="2.90284">
        <ele>1107.6</ele>
        <time>2021-08-24T07:17:13Z</time>
      </trkpt>
      <trkpt lat="45.21767" lon="2.90304">
        <ele>1107.2</ele>
        <time>2021-08-24T07:17:15Z</time>
      </trkpt>
      <trkpt lat="45.21773" lon="2.90323">
        <ele>1106.7</ele>
        <time>2021-08-24T07:17:17Z</time>
      </trkpt>
      <trkpt lat="45.2178" lon="2.90343">
        <ele>1105.9</ele>
        <time>2021-08-24T07:17:19Z</time>
      </trkpt>
      <trkpt lat="45.21787" lon="2.90364">
        <ele>1105</ele>
        <time>2021-08-24T07:17:21Z</time>
      </trkpt>
      <trkpt lat="45.21793" lon="2.90384">
        <ele>1104.1</ele>
        <time>2021-08-24T07:17:23Z</time>
      </trkpt>
      <trkpt lat="45.218" lon="2.90405">
        <ele>1103.2</ele>
        <time>2021-08-24T07:17:25Z</time>
      </trkpt>
      <trkpt lat="45.21807" lon="2.90426">
        <ele>1102.3</ele>
        <time>2021-08-24T07:17:27Z</time>
      </trkpt>
      <trkpt lat="45.21814" lon="2.90447">
        <ele>1101.5</ele>
        <time>2021-08-24T07:17:29Z</time>
      </trkpt>
      <trkpt lat="45.21821" lon="2.90469">
        <ele>1100.5</ele>
        <time>2021-08-24T07:17:31Z</time>
      </trkpt>
      <trkpt lat="45.21829" lon="2.9049">
        <ele>1099.5</ele>
        <time>2021-08-24T07:17:33Z</time>
      </trkpt>
      <trkpt lat="45.21836" lon="2.90513">
        <ele>1098.7</ele>
        <time>2021-08-24T07:17:35Z</time>
      </trkpt>
      <trkpt lat="45.21843" lon="2.90536">
        <ele>1098.2</ele>
        <time>2021-08-24T07:17:37Z</time>
      </trkpt>
      <trkpt lat="45.21851" lon="2.90559">
        <ele>1097.6</ele>
        <time>2021-08-24T07:17:39Z</time>
      </trkpt>
      <trkpt lat="45.21859" lon="2.90583">
        <ele>1097</ele>
        <time>2021-08-24T07:17:41Z</time>
      </trkpt>
      <trkpt lat="45.21866" lon="2.90606">
        <ele>1095.9</ele>
        <time>2021-08-24T07:17:43Z</time>
      </trkpt>
      <trkpt lat="45.21875" lon="2.90629">
        <ele>1094.5</ele>
        <time>2021-08-24T07:17:45Z</time>
      </trkpt>
      <trkpt lat="45.21882" lon="2.90653">
        <ele>1093</ele>
        <time>2021-08-24T07:17:47Z</time>
      </trkpt>
      <trkpt lat="45.2189" lon="2.90678">
        <ele>1091.5</ele>
        <time>2021-08-24T07:17:49Z</time>
      </trkpt>
      <trkpt lat="45.21898" lon="2.90702">
        <ele>1090.1</ele>
        <time>2021-08-24T07:17:51Z</time>
      </trkpt>
      <trkpt lat="45.21906" lon="2.90726">
        <ele>1088.6</ele>
        <time>2021-08-24T07:17:53Z</time>
      </trkpt>
      <trkpt lat="45.21914" lon="2.9075">
        <ele>1087.1</ele>
        <time>2021-08-24T07:17:55Z</time>
      </trkpt>
      <trkpt lat="45.21922" lon="2.90774">
        <ele>1085.9</ele>
        <time>2021-08-24T07:17:57Z</time>
      </trkpt>
      <trkpt lat="45.21931" lon="2.90799">
        <ele>1084.6</ele>
        <time>2021-08-24T07:17:59Z</time>
      </trkpt>
      <trkpt lat="45.21939" lon="2.90823">
        <ele>1083.3</ele>
        <time>2021-08-24T07:18:01Z</time>
      </trkpt>
      <trkpt lat="45.21947" lon="2.90848">
        <ele>1082.5</ele>
        <time>2021-08-24T07:18:03Z</time>
      </trkpt>
      <trkpt lat="45.21955" lon="2.90872">
        <ele>1082</ele>
        <time>2021-08-24T07:18:05Z</time>
      </trkpt>
      <trkpt lat="45.21962" lon="2.90896">
        <ele>1081.4</ele>
        <time>2021-08-24T07:18:07Z</time>
      </trkpt>
      <trkpt lat="45.2197" lon="2.9092">
        <ele>1080.8</ele>
        <time>2021-08-24T07:18:09Z</time>
      </trkpt>
      <trkpt lat="45.21978" lon="2.90944">
        <ele>1080.1</ele>
        <time>2021-08-24T07:18:11Z</time>
      </trkpt>
      <trkpt lat="45.21986" lon="2.90967">
        <ele>1079.6</ele>
        <time>2021-08-24T07:18:13Z</time>
      </trkpt>
      <trkpt lat="45.21994" lon="2.90991">
        <ele>1079.2</ele>
        <time>2021-08-24T07:18:15Z</time>
      </trkpt>
      <trkpt lat="45.22002" lon="2.91016">
        <ele>1078.3</ele>
        <time>2021-08-24T07:18:17Z</time>
      </trkpt>
      <trkpt lat="45.2201" lon="2.9104">
        <ele>1076.8</ele>
        <time>2021-08-24T07:18:19Z</time>
      </trkpt>
      <trkpt lat="45.22018" lon="2.91065">
        <ele>1075.2</ele>
        <time>2021-08-24T07:18:21Z</time>
      </trkpt>
      <trkpt lat="45.22025" lon="2.91091">
        <ele>1073.6</ele>
        <time>2021-08-24T07:18:23Z</time>
      </trkpt>
      <trkpt lat="45.22031" lon="2.91117">
        <ele>1072</ele>
        <time>2021-08-24T07:18:25Z</time>
      </trkpt>
      <trkpt lat="45.22035" lon="2.91144">
        <ele>1070.4</ele>
        <time>2021-08-24T07:18:27Z</time>
      </trkpt>
      <trkpt lat="45.2204" lon="2.91171">
        <ele>1068.9</ele>
        <time>2021-08-24T07:18:29Z</time>
      </trkpt>
      <trkpt lat="45.22045" lon="2.91198">
        <ele>1067.4</ele>
        <time>2021-08-24T07:18:31Z</time>
      </trkpt>
      <trkpt lat="45.22051" lon="2.91227">
        <ele>1065.9</ele>
        <time>2021-08-24T07:18:33Z</time>
      </trkpt>
      <trkpt lat="45.22057" lon="2.91255">
        <ele>1064.5</ele>
        <time>2021-08-24T07:18:35Z</time>
      </trkpt>
      <trkpt lat="45.22062" lon="2.91282">
        <ele>1063.8</ele>
        <time>2021-08-24T07:18:37Z</time>
      </trkpt>
      <trkpt lat="45.22068" lon="2.91309">
        <ele>1062.9</ele>
        <time>2021-08-24T07:18:39Z</time>
      </trkpt>
      <trkpt lat="45.22073" lon="2.91336">
        <ele>1062</ele>
        <time>2021-08-24T07:18:41Z</time>
      </trkpt>
      <trkpt lat="45.22078" lon="2.91364">
        <ele>1060.5</ele>
        <time>2021-08-24T07:18:43Z</time>
      </trkpt>
      <trkpt lat="45.22083" lon="2.91391">
        <ele>1058.9</ele>
        <time>2021-08-24T07:18:45Z</time>
      </trkpt>
      <trkpt lat="45.22089" lon="2.9142">
        <ele>1057.4</ele>
        <time>2021-08-24T07:18:47Z</time>
      </trkpt>
      <trkpt lat="45.22094" lon="2.91448">
        <ele>1056.3</ele>
        <time>2021-08-24T07:18:49Z</time>
      </trkpt>
      <trkpt lat="45.221" lon="2.91476">
        <ele>1055.1</ele>
        <time>2021-08-24T07:18:51Z</time>
      </trkpt>
      <trkpt lat="45.22106" lon="2.91505">
        <ele>1053.8</ele>
        <time>2021-08-24T07:18:53Z</time>
      </trkpt>
      <trkpt lat="45.22111" lon="2.91532">
        <ele>1052.6</ele>
        <time>2021-08-24T07:18:55Z</time>
      </trkpt>
      <trkpt lat="45.22116" lon="2.91557">
        <ele>1051.5</ele>
        <time>2021-08-24T07:18:57Z</time>
      </trkpt>
      <trkpt lat="45.22121" lon="2.91583">
        <ele>1050.2</ele>
        <time>2021-08-24T07:18:59Z</time>
      </trkpt>
      <trkpt lat="45.22127" lon="2.9161">
        <ele>1048.4</ele>
        <time>2021-08-24T07:19:01Z</time>
      </trkpt>
      <trkpt lat="45.22131" lon="2.91635">
        <ele>1046.8</ele>
        <time>2021-08-24T07:19:03Z</time>
      </trkpt>
      <trkpt lat="45.22133" lon="2.91662">
        <ele>1045.6</ele>
        <time>2021-08-24T07:19:05Z</time>
      </trkpt>
      <trkpt lat="45.22134" lon="2.91688">
        <ele>1043.6</ele>
        <time>2021-08-24T07:19:07Z</time>
      </trkpt>
      <trkpt lat="45.22133" lon="2.91715">
        <ele>1042</ele>
        <time>2021-08-24T07:19:09Z</time>
      </trkpt>
      <trkpt lat="45.22131" lon="2.91742">
        <ele>1040.6</ele>
        <time>2021-08-24T07:19:11Z</time>
      </trkpt>
      <trkpt lat="45.22128" lon="2.91769">
        <ele>1039.6</ele>
        <time>2021-08-24T07:19:13Z</time>
      </trkpt>
      <trkpt lat="45.22125" lon="2.91797">
        <ele>1038.7</ele>
        <time>2021-08-24T07:19:15Z</time>
      </trkpt>
      <trkpt lat="45.22122" lon="2.91825">
        <ele>1037.9</ele>
        <time>2021-08-24T07:19:17Z</time>
      </trkpt>
      <trkpt lat="45.22119" lon="2.91853">
        <ele>1037</ele>
        <time>2021-08-24T07:19:19Z</time>
      </trkpt>
      <trkpt lat="45.22117" lon="2.9188">
        <ele>1036.1</ele>
        <time>2021-08-24T07:19:21Z</time>
      </trkpt>
      <trkpt lat="45.22114" lon="2.91906">
        <ele>1035.3</ele>
        <time>2021-08-24T07:19:23Z</time>
      </trkpt>
      <trkpt lat="45.22112" lon="2.91931">
        <ele>1034.7</ele>
        <time>2021-08-24T07:19:25Z</time>
      </trkpt>
      <trkpt lat="45.22109" lon="2.91956">
        <ele>1034.5</ele>
        <time>2021-08-24T07:19:27Z</time>
      </trkpt>
      <trkpt lat="45.22108" lon="2.91981">
        <ele>1034.1</ele>
        <time>2021-08-24T07:19:29Z</time>
      </trkpt>
      <trkpt lat="45.22108" lon="2.92006">
        <ele>1033.4</ele>
        <time>2021-08-24T07:19:31Z</time>
      </trkpt>
      <trkpt lat="45.22109" lon="2.92031">
        <ele>1032.9</ele>
        <time>2021-08-24T07:19:33Z</time>
      </trkpt>
      <trkpt lat="45.22112" lon="2.92056">
        <ele>1031.9</ele>
        <time>2021-08-24T07:19:35Z</time>
      </trkpt>
      <trkpt lat="45.22117" lon="2.92081">
        <ele>1029.9</ele>
        <time>2021-08-24T07:19:37Z</time>
      </trkpt>
      <trkpt lat="45.22123" lon="2.92106">
        <ele>1026.8</ele>
        <time>2021-08-24T07:19:39Z</time>
      </trkpt>
      <trkpt lat="45.2213" lon="2.9213">
        <ele>1023.5</ele>
        <time>2021-08-24T07:19:41Z</time>
      </trkpt>
      <trkpt lat="45.22137" lon="2.92155">
        <ele>1020.3</ele>
        <time>2021-08-24T07:19:43Z</time>
      </trkpt>
      <trkpt lat="45.22144" lon="2.9218">
        <ele>1017.9</ele>
        <time>2021-08-24T07:19:45Z</time>
      </trkpt>
      <trkpt lat="45.22151" lon="2.92205">
        <ele>1016.5</ele>
        <time>2021-08-24T07:19:47Z</time>
      </trkpt>
      <trkpt lat="45.22158" lon="2.92228">
        <ele>1015.5</ele>
        <time>2021-08-24T07:19:49Z</time>
      </trkpt>
      <trkpt lat="45.22163" lon="2.92253">
        <ele>1015</ele>
        <time>2021-08-24T07:19:51Z</time>
      </trkpt>
      <trkpt lat="45.22168" lon="2.92278">
        <ele>1014.9</ele>
        <time>2021-08-24T07:19:53Z</time>
      </trkpt>
      <trkpt lat="45.2217" lon="2.92302">
        <ele>1015.3</ele>
        <time>2021-08-24T07:19:55Z</time>
      </trkpt>
      <trkpt lat="45.22172" lon="2.92326">
        <ele>1015.7</ele>
        <time>2021-08-24T07:19:57Z</time>
      </trkpt>
      <trkpt lat="45.22174" lon="2.92351">
        <ele>1015.5</ele>
        <time>2021-08-24T07:19:59Z</time>
      </trkpt>
      <trkpt lat="45.22177" lon="2.92376">
        <ele>1014.8</ele>
        <time>2021-08-24T07:20:01Z</time>
      </trkpt>
      <trkpt lat="45.22182" lon="2.92401">
        <ele>1013.6</ele>
        <time>2021-08-24T07:20:03Z</time>
      </trkpt>
      <trkpt lat="45.22189" lon="2.92424">
        <ele>1011.9</ele>
        <time>2021-08-24T07:20:05Z</time>
      </trkpt>
      <trkpt lat="45.22196" lon="2.92449">
        <ele>1010</ele>
        <time>2021-08-24T07:20:07Z</time>
      </trkpt>
      <trkpt lat="45.22204" lon="2.92474">
        <ele>1008.1</ele>
        <time>2021-08-24T07:20:09Z</time>
      </trkpt>
      <trkpt lat="45.22212" lon="2.92499">
        <ele>1006.3</ele>
        <time>2021-08-24T07:20:11Z</time>
      </trkpt>
      <trkpt lat="45.22219" lon="2.92525">
        <ele>1005.1</ele>
        <time>2021-08-24T07:20:13Z</time>
      </trkpt>
      <trkpt lat="45.22227" lon="2.92551">
        <ele>1003.9</ele>
        <time>2021-08-24T07:20:15Z</time>
      </trkpt>
      <trkpt lat="45.22235" lon="2.92578">
        <ele>1002.9</ele>
        <time>2021-08-24T07:20:17Z</time>
      </trkpt>
      <trkpt lat="45.22243" lon="2.92602">
        <ele>1002.1</ele>
        <time>2021-08-24T07:20:19Z</time>
      </trkpt>
      <trkpt lat="45.2225" lon="2.92627">
        <ele>1001.5</ele>
        <time>2021-08-24T07:20:21Z</time>
      </trkpt>
      <trkpt lat="45.22257" lon="2.92651">
        <ele>1001.5</ele>
        <time>2021-08-24T07:20:23Z</time>
      </trkpt>
      <trkpt lat="45.22264" lon="2.92674">
        <ele>1000.8</ele>
        <time>2021-08-24T07:20:25Z</time>
      </trkpt>
      <trkpt lat="45.22269" lon="2.92697">
        <ele>999.6</ele>
        <time>2021-08-24T07:20:27Z</time>
      </trkpt>
      <trkpt lat="45.22272" lon="2.92723">
        <ele>998.5</ele>
        <time>2021-08-24T07:20:29Z</time>
      </trkpt>
      <trkpt lat="45.22273" lon="2.92749">
        <ele>997.8</ele>
        <time>2021-08-24T07:20:31Z</time>
      </trkpt>
      <trkpt lat="45.22272" lon="2.92776">
        <ele>996.6</ele>
        <time>2021-08-24T07:20:33Z</time>
      </trkpt>
      <trkpt lat="45.2227" lon="2.92803">
        <ele>995.4</ele>
        <time>2021-08-24T07:20:35Z</time>
      </trkpt>
      <trkpt lat="45.22268" lon="2.9283">
        <ele>994.4</ele>
        <time>2021-08-24T07:20:37Z</time>
      </trkpt>
      <trkpt lat="45.22265" lon="2.92857">
        <ele>993.3</ele>
        <time>2021-08-24T07:20:39Z</time>
      </trkpt>
      <trkpt lat="45.22263" lon="2.92885">
        <ele>992</ele>
        <time>2021-08-24T07:20:41Z</time>
      </trkpt>
      <trkpt lat="45.22261" lon="2.92914">
        <ele>990.5</ele>
        <time>2021-08-24T07:20:43Z</time>
      </trkpt>
      <trkpt lat="45.22258" lon="2.92941">
        <ele>989.7</ele>
        <time>2021-08-24T07:20:45Z</time>
      </trkpt>
      <trkpt lat="45.22255" lon="2.92967">
        <ele>988.9</ele>
        <time>2021-08-24T07:20:47Z</time>
      </trkpt>
      <trkpt lat="45.22253" lon="2.92991">
        <ele>988.2</ele>
        <time>2021-08-24T07:20:49Z</time>
      </trkpt>
      <trkpt lat="45.22251" lon="2.93014">
        <ele>986.9</ele>
        <time>2021-08-24T07:20:51Z</time>
      </trkpt>
      <trkpt lat="45.22249" lon="2.93036">
        <ele>985.5</ele>
        <time>2021-08-24T07:20:53Z</time>
      </trkpt>
      <trkpt lat="45.22248" lon="2.93057">
        <ele>984.1</ele>
        <time>2021-08-24T07:20:55Z</time>
      </trkpt>
      <trkpt lat="45.22249" lon="2.93078">
        <ele>982.6</ele>
        <time>2021-08-24T07:20:57Z</time>
      </trkpt>
      <trkpt lat="45.22251" lon="2.93095">
        <ele>981.4</ele>
        <time>2021-08-24T07:20:59Z</time>
      </trkpt>
      <trkpt lat="45.22256" lon="2.93111">
        <ele>980.6</ele>
        <time>2021-08-24T07:21:01Z</time>
      </trkpt>
      <trkpt lat="45.2226" lon="2.93126">
        <ele>979.9</ele>
        <time>2021-08-24T07:21:03Z</time>
      </trkpt>
      <trkpt lat="45.22267" lon="2.93138">
        <ele>979.4</ele>
        <time>2021-08-24T07:21:05Z</time>
      </trkpt>
      <trkpt lat="45.22274" lon="2.93151">
        <ele>978.9</ele>
        <time>2021-08-24T07:21:07Z</time>
      </trkpt>
      <trkpt lat="45.22282" lon="2.93164">
        <ele>978.5</ele>
        <time>2021-08-24T07:21:09Z</time>
      </trkpt>
      <trkpt lat="45.22294" lon="2.93177">
        <ele>978.4</ele>
        <time>2021-08-24T07:21:11Z</time>
      </trkpt>
      <trkpt lat="45.22306" lon="2.93187">
        <ele>978.5</ele>
        <time>2021-08-24T07:21:13Z</time>
      </trkpt>
      <trkpt lat="45.22317" lon="2.93198">
        <ele>978.7</ele>
        <time>2021-08-24T07:21:15Z</time>
      </trkpt>
      <trkpt lat="45.22328" lon="2.93206">
        <ele>978.9</ele>
        <time>2021-08-24T07:21:17Z</time>
      </trkpt>
      <trkpt lat="45.22339" lon="2.93215">
        <ele>979.1</ele>
        <time>2021-08-24T07:21:19Z</time>
      </trkpt>
      <trkpt lat="45.22348" lon="2.93222">
        <ele>979.2</ele>
        <time>2021-08-24T07:21:21Z</time>
      </trkpt>
      <trkpt lat="45.22357" lon="2.93229">
        <ele>979.3</ele>
        <time>2021-08-24T07:21:23Z</time>
      </trkpt>
      <trkpt lat="45.22363" lon="2.93235">
        <ele>979.3</ele>
        <time>2021-08-24T07:21:25Z</time>
      </trkpt>
      <trkpt lat="45.22368" lon="2.93242">
        <ele>979.2</ele>
        <time>2021-08-24T07:21:27Z</time>
      </trkpt>
      <trkpt lat="45.22373" lon="2.93247">
        <ele>979.1</ele>
        <time>2021-08-24T07:21:29Z</time>
      </trkpt>
      <trkpt lat="45.22377" lon="2.93253">
        <ele>978.8</ele>
        <time>2021-08-24T07:21:31Z</time>
      </trkpt>
      <trkpt lat="45.22382" lon="2.9326">
        <ele>978.4</ele>
        <time>2021-08-24T07:21:33Z</time>
      </trkpt>
      <trkpt lat="45.22389" lon="2.93264">
        <ele>978</ele>
        <time>2021-08-24T07:21:35Z</time>
      </trkpt>
      <trkpt lat="45.22398" lon="2.93266">
        <ele>977.8</ele>
        <time>2021-08-24T07:21:37Z</time>
      </trkpt>
      <trkpt lat="45.22407" lon="2.93271">
        <ele>977.4</ele>
        <time>2021-08-24T07:21:39Z</time>
      </trkpt>
      <trkpt lat="45.22417" lon="2.93275">
        <ele>976.9</ele>
        <time>2021-08-24T07:21:41Z</time>
      </trkpt>
      <trkpt lat="45.22427" lon="2.9328">
        <ele>977</ele>
        <time>2021-08-24T07:21:43Z</time>
      </trkpt>
      <trkpt lat="45.22437" lon="2.93288">
        <ele>976.8</ele>
        <time>2021-08-24T07:21:45Z</time>
      </trkpt>
      <trkpt lat="45.22448" lon="2.93296">
        <ele>976.7</ele>
        <time>2021-08-24T07:21:47Z</time>
      </trkpt>
      <trkpt lat="45.22458" lon="2.93303">
        <ele>976.6</ele>
        <time>2021-08-24T07:21:49Z</time>
      </trkpt>
      <trkpt lat="45.22468" lon="2.93311">
        <ele>976.4</ele>
        <time>2021-08-24T07:21:51Z</time>
      </trkpt>
      <trkpt lat="45.22477" lon="2.93318">
        <ele>976.2</ele>
        <time>2021-08-24T07:21:53Z</time>
      </trkpt>
      <trkpt lat="45.22486" lon="2.93324">
        <ele>976.1</ele>
        <time>2021-08-24T07:21:55Z</time>
      </trkpt>
      <trkpt lat="45.22495" lon="2.93331">
        <ele>975.9</ele>
        <time>2021-08-24T07:21:57Z</time>
      </trkpt>
      <trkpt lat="45.22503" lon="2.93338">
        <ele>975.7</ele>
        <time>2021-08-24T07:21:59Z</time>
      </trkpt>
      <trkpt lat="45.22511" lon="2.93344">
        <ele>975.4</ele>
        <time>2021-08-24T07:22:01Z</time>
      </trkpt>
      <trkpt lat="45.22517" lon="2.93349">
        <ele>975.1</ele>
        <time>2021-08-24T07:22:03Z</time>
      </trkpt>
      <trkpt lat="45.22525" lon="2.93353">
        <ele>975</ele>
        <time>2021-08-24T07:22:05Z</time>
      </trkpt>
      <trkpt lat="45.22534" lon="2.93356">
        <ele>974.8</ele>
        <time>2021-08-24T07:22:07Z</time>
      </trkpt>
      <trkpt lat="45.22542" lon="2.93359">
        <ele>974.8</ele>
        <time>2021-08-24T07:22:09Z</time>
      </trkpt>
      <trkpt lat="45.22551" lon="2.9336">
        <ele>974.8</ele>
        <time>2021-08-24T07:22:11Z</time>
      </trkpt>
      <trkpt lat="45.2256" lon="2.93361">
        <ele>974.8</ele>
        <time>2021-08-24T07:22:13Z</time>
      </trkpt>
      <trkpt lat="45.22568" lon="2.93362">
        <ele>974.8</ele>
        <time>2021-08-24T07:22:15Z</time>
      </trkpt>
      <trkpt lat="45.22576" lon="2.93362">
        <ele>974.9</ele>
        <time>2021-08-24T07:22:17Z</time>
      </trkpt>
      <trkpt lat="45.22584" lon="2.9336">
        <ele>975</ele>
        <time>2021-08-24T07:22:19Z</time>
      </trkpt>
      <trkpt lat="45.22592" lon="2.9336">
        <ele>975</ele>
        <time>2021-08-24T07:22:21Z</time>
      </trkpt>
      <trkpt lat="45.22599" lon="2.93359">
        <ele>975</ele>
        <time>2021-08-24T07:22:23Z</time>
      </trkpt>
      <trkpt lat="45.22606" lon="2.93357">
        <ele>975</ele>
        <time>2021-08-24T07:22:25Z</time>
      </trkpt>
      <trkpt lat="45.22613" lon="2.93355">
        <ele>975</ele>
        <time>2021-08-24T07:22:27Z</time>
      </trkpt>
      <trkpt lat="45.22619" lon="2.93354">
        <ele>975</ele>
        <time>2021-08-24T07:22:29Z</time>
      </trkpt>
      <trkpt lat="45.22625" lon="2.93353">
        <ele>975.1</ele>
        <time>2021-08-24T07:22:31Z</time>
      </trkpt>
      <trkpt lat="45.2263" lon="2.93353">
        <ele>975</ele>
        <time>2021-08-24T07:22:33Z</time>
      </trkpt>
      <trkpt lat="45.22635" lon="2.93352">
        <ele>975.1</ele>
        <time>2021-08-24T07:22:35Z</time>
      </trkpt>
      <trkpt lat="45.22641" lon="2.93351">
        <ele>975.1</ele>
        <time>2021-08-24T07:22:37Z</time>
      </trkpt>
      <trkpt lat="45.22646" lon="2.93351">
        <ele>975</ele>
        <time>2021-08-24T07:22:39Z</time>
      </trkpt>
      <trkpt lat="45.22651" lon="2.9335">
        <ele>975.1</ele>
        <time>2021-08-24T07:22:41Z</time>
      </trkpt>
      <trkpt lat="45.22653" lon="2.9335">
        <ele>975</ele>
        <time>2021-08-24T07:22:43Z</time>
      </trkpt>
      <trkpt lat="45.22652" lon="2.93356">
        <ele>974.7</ele>
        <time>2021-08-24T07:22:45Z</time>
      </trkpt>
      <trkpt lat="45.2265" lon="2.93359">
        <ele>974.6</ele>
        <time>2021-08-24T07:22:47Z</time>
      </trkpt>
      <trkpt lat="45.22649" lon="2.93358">
        <ele>974.6</ele>
        <time>2021-08-24T07:22:49Z</time>
      </trkpt>
      <trkpt lat="45.22648" lon="2.93358">
        <ele>974.7</ele>
        <time>2021-08-24T07:22:51Z</time>
      </trkpt>
      <trkpt lat="45.22647" lon="2.93358">
        <ele>974.7</ele>
        <time>2021-08-24T07:22:53Z</time>
      </trkpt>
      <trkpt lat="45.22647" lon="2.93358">
        <ele>974.7</ele>
        <time>2021-08-24T07:22:55Z</time>
      </trkpt>
      <trkpt lat="45.22652" lon="2.9335">
        <ele>975.1</ele>
        <time>2021-08-24T07:39:33Z</time>
      </trkpt>
      <trkpt lat="45.22656" lon="2.93348">
        <ele>975.2</ele>
        <time>2021-08-24T07:39:35Z</time>
      </trkpt>
      <trkpt lat="45.22661" lon="2.93347">
        <ele>975.2</ele>
        <time>2021-08-24T07:39:37Z</time>
      </trkpt>
      <trkpt lat="45.22667" lon="2.93346">
        <ele>975.2</ele>
        <time>2021-08-24T07:39:39Z</time>
      </trkpt>
      <trkpt lat="45.22673" lon="2.93345">
        <ele>975.3</ele>
        <time>2021-08-24T07:39:41Z</time>
      </trkpt>
      <trkpt lat="45.22681" lon="2.93342">
        <ele>975.5</ele>
        <time>2021-08-24T07:39:43Z</time>
      </trkpt>
      <trkpt lat="45.22688" lon="2.9334">
        <ele>975.7</ele>
        <time>2021-08-24T07:39:45Z</time>
      </trkpt>
      <trkpt lat="45.22696" lon="2.93339">
        <ele>975.8</ele>
        <time>2021-08-24T07:39:47Z</time>
      </trkpt>
      <trkpt lat="45.22703" lon="2.93338">
        <ele>975.8</ele>
        <time>2021-08-24T07:39:49Z</time>
      </trkpt>
      <trkpt lat="45.22711" lon="2.93337">
        <ele>975.9</ele>
        <time>2021-08-24T07:39:51Z</time>
      </trkpt>
      <trkpt lat="45.22719" lon="2.93338">
        <ele>975.9</ele>
        <time>2021-08-24T07:39:53Z</time>
      </trkpt>
      <trkpt lat="45.22727" lon="2.9334">
        <ele>975.8</ele>
        <time>2021-08-24T07:39:55Z</time>
      </trkpt>
      <trkpt lat="45.22735" lon="2.93342">
        <ele>975.8</ele>
        <time>2021-08-24T07:39:57Z</time>
      </trkpt>
      <trkpt lat="45.2274" lon="2.93344">
        <ele>975.8</ele>
        <time>2021-08-24T07:39:59Z</time>
      </trkpt>
      <trkpt lat="45.22744" lon="2.93344">
        <ele>975.8</ele>
        <time>2021-08-24T07:40:01Z</time>
      </trkpt>
      <trkpt lat="45.22746" lon="2.93342">
        <ele>975.9</ele>
        <time>2021-08-24T07:40:03Z</time>
      </trkpt>
      <trkpt lat="45.22749" lon="2.9334">
        <ele>975.9</ele>
        <time>2021-08-24T07:40:05Z</time>
      </trkpt>
      <trkpt lat="45.22752" lon="2.9334">
        <ele>976</ele>
        <time>2021-08-24T07:40:07Z</time>
      </trkpt>
      <trkpt lat="45.22752" lon="2.9334">
        <ele>976</ele>
        <time>2021-08-24T07:40:09Z</time>
      </trkpt>
      <trkpt lat="45.22753" lon="2.93339">
        <ele>976</ele>
        <time>2021-08-24T07:40:11Z</time>
      </trkpt>
      <trkpt lat="45.22754" lon="2.93339">
        <ele>976</ele>
        <time>2021-08-24T07:40:13Z</time>
      </trkpt>
      <trkpt lat="45.22754" lon="2.93339">
        <ele>976</ele>
        <time>2021-08-24T07:40:15Z</time>
      </trkpt>
      <trkpt lat="45.22745" lon="2.93352">
        <ele>975.7</ele>
        <time>2021-08-24T07:41:37Z</time>
      </trkpt>
      <trkpt lat="45.22747" lon="2.9336">
        <ele>975.6</ele>
        <time>2021-08-24T07:41:39Z</time>
      </trkpt>
      <trkpt lat="45.22748" lon="2.93368">
        <ele>975.5</ele>
        <time>2021-08-24T07:41:41Z</time>
      </trkpt>
      <trkpt lat="45.22751" lon="2.93376">
        <ele>975.5</ele>
        <time>2021-08-24T07:41:43Z</time>
      </trkpt>
      <trkpt lat="45.22753" lon="2.93387">
        <ele>975.5</ele>
        <time>2021-08-24T07:41:45Z</time>
      </trkpt>
      <trkpt lat="45.22753" lon="2.934">
        <ele>975.5</ele>
        <time>2021-08-24T07:41:47Z</time>
      </trkpt>
      <trkpt lat="45.22753" lon="2.93413">
        <ele>975.4</ele>
        <time>2021-08-24T07:41:49Z</time>
      </trkpt>
      <trkpt lat="45.22754" lon="2.93422">
        <ele>975.4</ele>
        <time>2021-08-24T07:41:51Z</time>
      </trkpt>
      <trkpt lat="45.22756" lon="2.9343">
        <ele>975.5</ele>
        <time>2021-08-24T07:41:53Z</time>
      </trkpt>
      <trkpt lat="45.22757" lon="2.93435">
        <ele>975.6</ele>
        <time>2021-08-24T07:41:55Z</time>
      </trkpt>
      <trkpt lat="45.22759" lon="2.93441">
        <ele>975.7</ele>
        <time>2021-08-24T07:41:57Z</time>
      </trkpt>
      <trkpt lat="45.22758" lon="2.93446">
        <ele>975.7</ele>
        <time>2021-08-24T07:41:59Z</time>
      </trkpt>
      <trkpt lat="45.22762" lon="2.93449">
        <ele>975.9</ele>
        <time>2021-08-24T07:42:01Z</time>
      </trkpt>
      <trkpt lat="45.22766" lon="2.93451">
        <ele>976.2</ele>
        <time>2021-08-24T07:42:03Z</time>
      </trkpt>
      <trkpt lat="45.22769" lon="2.93451">
        <ele>976.5</ele>
        <time>2021-08-24T07:42:05Z</time>
      </trkpt>
      <trkpt lat="45.22774" lon="2.93451">
        <ele>976.8</ele>
        <time>2021-08-24T07:42:07Z</time>
      </trkpt>
      <trkpt lat="45.22777" lon="2.93447">
        <ele>977.1</ele>
        <time>2021-08-24T07:42:09Z</time>
      </trkpt>
      <trkpt lat="45.22779" lon="2.93447">
        <ele>977.3</ele>
        <time>2021-08-24T07:42:11Z</time>
      </trkpt>
      <trkpt lat="45.22782" lon="2.93449">
        <ele>977.5</ele>
        <time>2021-08-24T07:42:13Z</time>
      </trkpt>
      <trkpt lat="45.22785" lon="2.93449">
        <ele>977.7</ele>
        <time>2021-08-24T07:42:15Z</time>
      </trkpt>
      <trkpt lat="45.22788" lon="2.93449">
        <ele>978</ele>
        <time>2021-08-24T07:42:17Z</time>
      </trkpt>
      <trkpt lat="45.22793" lon="2.93451">
        <ele>978.3</ele>
        <time>2021-08-24T07:42:19Z</time>
      </trkpt>
      <trkpt lat="45.22797" lon="2.93452">
        <ele>978.5</ele>
        <time>2021-08-24T07:42:21Z</time>
      </trkpt>
      <trkpt lat="45.228" lon="2.93456">
        <ele>978.7</ele>
        <time>2021-08-24T07:42:23Z</time>
      </trkpt>
      <trkpt lat="45.22803" lon="2.93458">
        <ele>978.8</ele>
        <time>2021-08-24T07:42:25Z</time>
      </trkpt>
      <trkpt lat="45.22807" lon="2.93461">
        <ele>979</ele>
        <time>2021-08-24T07:42:27Z</time>
      </trkpt>
      <trkpt lat="45.2281" lon="2.93463">
        <ele>979.1</ele>
        <time>2021-08-24T07:42:29Z</time>
      </trkpt>
      <trkpt lat="45.22813" lon="2.93463">
        <ele>979.3</ele>
        <time>2021-08-24T07:42:31Z</time>
      </trkpt>
      <trkpt lat="45.22814" lon="2.93464">
        <ele>979.4</ele>
        <time>2021-08-24T07:42:33Z</time>
      </trkpt>
      <trkpt lat="45.22815" lon="2.93461">
        <ele>979.5</ele>
        <time>2021-08-24T07:42:35Z</time>
      </trkpt>
      <trkpt lat="45.22817" lon="2.93458">
        <ele>979.8</ele>
        <time>2021-08-24T07:42:37Z</time>
      </trkpt>
      <trkpt lat="45.22815" lon="2.93453">
        <ele>979.9</ele>
        <time>2021-08-24T07:42:39Z</time>
      </trkpt>
      <trkpt lat="45.22815" lon="2.93449">
        <ele>980</ele>
        <time>2021-08-24T07:42:41Z</time>
      </trkpt>
      <trkpt lat="45.22816" lon="2.93446">
        <ele>980.3</ele>
        <time>2021-08-24T07:42:43Z</time>
      </trkpt>
      <trkpt lat="45.22817" lon="2.93445">
        <ele>980.4</ele>
        <time>2021-08-24T07:42:45Z</time>
      </trkpt>
      <trkpt lat="45.2282" lon="2.93446">
        <ele>980.6</ele>
        <time>2021-08-24T07:42:47Z</time>
      </trkpt>
      <trkpt lat="45.22823" lon="2.93445">
        <ele>980.8</ele>
        <time>2021-08-24T07:42:49Z</time>
      </trkpt>
      <trkpt lat="45.22825" lon="2.93445">
        <ele>981</ele>
        <time>2021-08-24T07:42:51Z</time>
      </trkpt>
      <trkpt lat="45.22825" lon="2.93444">
        <ele>981.1</ele>
        <time>2021-08-24T07:42:53Z</time>
      </trkpt>
      <trkpt lat="45.22826" lon="2.93444">
        <ele>981.1</ele>
        <time>2021-08-24T07:42:55Z</time>
      </trkpt>
      <trkpt lat="45.22826" lon="2.93444">
        <ele>981.1</ele>
        <time>2021-08-24T07:42:57Z</time>
      </trkpt>
      <trkpt lat="45.22827" lon="2.93444">
        <ele>981.2</ele>
        <time>2021-08-24T07:42:59Z</time>
      </trkpt>
      <trkpt lat="45.22828" lon="2.93443">
        <ele>981.3</ele>
        <time>2021-08-24T07:43:01Z</time>
      </trkpt>
      <trkpt lat="45.22847" lon="2.93443">
        <ele>981.9</ele>
        <time>2021-08-24T07:59:43Z</time>
      </trkpt>
      <trkpt lat="45.22847" lon="2.93443">
        <ele>981.9</ele>
        <time>2021-08-24T07:59:45Z</time>
      </trkpt>
      <trkpt lat="45.22847" lon="2.93444">
        <ele>981.9</ele>
        <time>2021-08-24T07:59:47Z</time>
      </trkpt>
      <trkpt lat="45.22847" lon="2.93444">
        <ele>981.9</ele>
        <time>2021-08-24T07:59:49Z</time>
      </trkpt>
      <trkpt lat="45.22848" lon="2.93443">
        <ele>981.9</ele>
        <time>2021-08-24T07:59:51Z</time>
      </trkpt>
      <trkpt lat="45.2285" lon="2.93445">
        <ele>981.8</ele>
        <time>2021-08-24T07:59:53Z</time>
      </trkpt>
      <trkpt lat="45.22853" lon="2.93445">
        <ele>981.9</ele>
        <time>2021-08-24T07:59:55Z</time>
      </trkpt>
      <trkpt lat="45.22855" lon="2.93444">
        <ele>981.9</ele>
        <time>2021-08-24T07:59:57Z</time>
      </trkpt>
      <trkpt lat="45.22859" lon="2.93442">
        <ele>982</ele>
        <time>2021-08-24T07:59:59Z</time>
      </trkpt>
      <trkpt lat="45.2286" lon="2.93439">
        <ele>982.2</ele>
        <time>2021-08-24T08:00:01Z</time>
      </trkpt>
      <trkpt lat="45.22862" lon="2.93438">
        <ele>982.2</ele>
        <time>2021-08-24T08:00:03Z</time>
      </trkpt>
      <trkpt lat="45.22863" lon="2.93437">
        <ele>982.3</ele>
        <time>2021-08-24T08:00:05Z</time>
      </trkpt>
      <trkpt lat="45.22865" lon="2.93437">
        <ele>982.3</ele>
        <time>2021-08-24T08:00:07Z</time>
      </trkpt>
      <trkpt lat="45.22866" lon="2.93437">
        <ele>982.3</ele>
        <time>2021-08-24T08:00:09Z</time>
      </trkpt>
      <trkpt lat="45.22867" lon="2.93436">
        <ele>982.3</ele>
        <time>2021-08-24T08:00:11Z</time>
      </trkpt>
      <trkpt lat="45.22879" lon="2.93425">
        <ele>982.8</ele>
        <time>2021-08-24T08:28:01Z</time>
      </trkpt>
      <trkpt lat="45.22879" lon="2.93425">
        <ele>982.8</ele>
        <time>2021-08-24T08:28:03Z</time>
      </trkpt>
      <trkpt lat="45.22879" lon="2.93425">
        <ele>982.8</ele>
        <time>2021-08-24T08:28:05Z</time>
      </trkpt>
      <trkpt lat="45.22878" lon="2.93425">
        <ele>982.8</ele>
        <time>2021-08-24T08:28:07Z</time>
      </trkpt>
      <trkpt lat="45.22876" lon="2.93423">
        <ele>982.8</ele>
        <time>2021-08-24T08:28:09Z</time>
      </trkpt>
      <trkpt lat="45.22873" lon="2.93425">
        <ele>982.8</ele>
        <time>2021-08-24T08:28:11Z</time>
      </trkpt>
      <trkpt lat="45.2287" lon="2.93425">
        <ele>982.7</ele>
        <time>2021-08-24T08:28:13Z</time>
      </trkpt>
      <trkpt lat="45.22866" lon="2.93426">
        <ele>982.7</ele>
        <time>2021-08-24T08:28:15Z</time>
      </trkpt>
      <trkpt lat="45.22863" lon="2.93428">
        <ele>982.6</ele>
        <time>2021-08-24T08:28:17Z</time>
      </trkpt>
      <trkpt lat="45.22863" lon="2.93435">
        <ele>982.4</ele>
        <time>2021-08-24T08:28:19Z</time>
      </trkpt>
      <trkpt lat="45.22864" lon="2.93438">
        <ele>982.3</ele>
        <time>2021-08-24T08:28:21Z</time>
      </trkpt>
      <trkpt lat="45.22865" lon="2.9344">
        <ele>982.2</ele>
        <time>2021-08-24T08:28:23Z</time>
      </trkpt>
      <trkpt lat="45.22865" lon="2.93441">
        <ele>982.2</ele>
        <time>2021-08-24T08:28:25Z</time>
      </trkpt>
      <trkpt lat="45.22864" lon="2.93441">
        <ele>982.1</ele>
        <time>2021-08-24T08:28:27Z</time>
      </trkpt>
      <trkpt lat="45.22864" lon="2.93442">
        <ele>982.1</ele>
        <time>2021-08-24T08:28:29Z</time>
      </trkpt>
      <trkpt lat="45.2285" lon="2.93449">
        <ele>981.7</ele>
        <time>2021-08-24T08:29:01Z</time>
      </trkpt>
      <trkpt lat="45.22847" lon="2.9345">
        <ele>981.6</ele>
        <time>2021-08-24T08:29:03Z</time>
      </trkpt>
      <trkpt lat="45.22846" lon="2.93448">
        <ele>981.7</ele>
        <time>2021-08-24T08:29:05Z</time>
      </trkpt>
      <trkpt lat="45.22843" lon="2.93447">
        <ele>981.7</ele>
        <time>2021-08-24T08:29:07Z</time>
      </trkpt>
      <trkpt lat="45.22838" lon="2.93448">
        <ele>981.6</ele>
        <time>2021-08-24T08:29:09Z</time>
      </trkpt>
      <trkpt lat="45.22833" lon="2.93447">
        <ele>981.5</ele>
        <time>2021-08-24T08:29:11Z</time>
      </trkpt>
      <trkpt lat="45.22827" lon="2.93444">
        <ele>981.1</ele>
        <time>2021-08-24T08:29:13Z</time>
      </trkpt>
      <trkpt lat="45.22821" lon="2.93444">
        <ele>980.7</ele>
        <time>2021-08-24T08:29:15Z</time>
      </trkpt>
      <trkpt lat="45.22818" lon="2.93444">
        <ele>980.4</ele>
        <time>2021-08-24T08:29:17Z</time>
      </trkpt>
      <trkpt lat="45.22816" lon="2.93444">
        <ele>980.3</ele>
        <time>2021-08-24T08:29:19Z</time>
      </trkpt>
      <trkpt lat="45.22815" lon="2.93449">
        <ele>980</ele>
        <time>2021-08-24T08:29:21Z</time>
      </trkpt>
      <trkpt lat="45.22813" lon="2.93454">
        <ele>979.7</ele>
        <time>2021-08-24T08:29:23Z</time>
      </trkpt>
      <trkpt lat="45.22814" lon="2.9346">
        <ele>979.5</ele>
        <time>2021-08-24T08:29:25Z</time>
      </trkpt>
      <trkpt lat="45.22815" lon="2.93465">
        <ele>979.4</ele>
        <time>2021-08-24T08:29:27Z</time>
      </trkpt>
      <trkpt lat="45.22815" lon="2.93467">
        <ele>979.4</ele>
        <time>2021-08-24T08:29:29Z</time>
      </trkpt>
      <trkpt lat="45.22815" lon="2.93473">
        <ele>979.2</ele>
        <time>2021-08-24T08:29:31Z</time>
      </trkpt>
      <trkpt lat="45.22818" lon="2.93478">
        <ele>979.2</ele>
        <time>2021-08-24T08:29:33Z</time>
      </trkpt>
      <trkpt lat="45.22823" lon="2.93482">
        <ele>979.2</ele>
        <time>2021-08-24T08:29:35Z</time>
      </trkpt>
      <trkpt lat="45.22827" lon="2.93487">
        <ele>979.3</ele>
        <time>2021-08-24T08:29:37Z</time>
      </trkpt>
      <trkpt lat="45.22832" lon="2.93491">
        <ele>979.3</ele>
        <time>2021-08-24T08:29:39Z</time>
      </trkpt>
      <trkpt lat="45.22835" lon="2.93493">
        <ele>979.4</ele>
        <time>2021-08-24T08:29:41Z</time>
      </trkpt>
      <trkpt lat="45.2284" lon="2.93494">
        <ele>979.5</ele>
        <time>2021-08-24T08:29:43Z</time>
      </trkpt>
      <trkpt lat="45.22845" lon="2.93492">
        <ele>979.7</ele>
        <time>2021-08-24T08:29:45Z</time>
      </trkpt>
      <trkpt lat="45.2285" lon="2.93493">
        <ele>979.9</ele>
        <time>2021-08-24T08:29:47Z</time>
      </trkpt>
      <trkpt lat="45.22854" lon="2.93492">
        <ele>980</ele>
        <time>2021-08-24T08:29:49Z</time>
      </trkpt>
      <trkpt lat="45.22859" lon="2.93491">
        <ele>980.2</ele>
        <time>2021-08-24T08:29:51Z</time>
      </trkpt>
      <trkpt lat="45.22864" lon="2.9349">
        <ele>980.5</ele>
        <time>2021-08-24T08:29:53Z</time>
      </trkpt>
      <trkpt lat="45.22868" lon="2.93489">
        <ele>980.6</ele>
        <time>2021-08-24T08:29:55Z</time>
      </trkpt>
      <trkpt lat="45.22874" lon="2.93488">
        <ele>980.8</ele>
        <time>2021-08-24T08:29:57Z</time>
      </trkpt>
      <trkpt lat="45.22879" lon="2.93486">
        <ele>981</ele>
        <time>2021-08-24T08:29:59Z</time>
      </trkpt>
      <trkpt lat="45.22883" lon="2.93484">
        <ele>981.2</ele>
        <time>2021-08-24T08:30:01Z</time>
      </trkpt>
      <trkpt lat="45.22888" lon="2.93484">
        <ele>981.3</ele>
        <time>2021-08-24T08:30:03Z</time>
      </trkpt>
      <trkpt lat="45.22892" lon="2.93483">
        <ele>981.5</ele>
        <time>2021-08-24T08:30:05Z</time>
      </trkpt>
      <trkpt lat="45.22895" lon="2.93483">
        <ele>981.6</ele>
        <time>2021-08-24T08:30:07Z</time>
      </trkpt>
      <trkpt lat="45.22897" lon="2.93481">
        <ele>981.7</ele>
        <time>2021-08-24T08:30:09Z</time>
      </trkpt>
      <trkpt lat="45.229" lon="2.9348">
        <ele>981.8</ele>
        <time>2021-08-24T08:30:11Z</time>
      </trkpt>
      <trkpt lat="45.22902" lon="2.93479">
        <ele>981.9</ele>
        <time>2021-08-24T08:30:13Z</time>
      </trkpt>
      <trkpt lat="45.22905" lon="2.9348">
        <ele>981.9</ele>
        <time>2021-08-24T08:30:15Z</time>
      </trkpt>
      <trkpt lat="45.22907" lon="2.93478">
        <ele>982</ele>
        <time>2021-08-24T08:30:17Z</time>
      </trkpt>
      <trkpt lat="45.22913" lon="2.93477">
        <ele>982.2</ele>
        <time>2021-08-24T08:30:19Z</time>
      </trkpt>
      <trkpt lat="45.22919" lon="2.93476">
        <ele>982.3</ele>
        <time>2021-08-24T08:30:21Z</time>
      </trkpt>
      <trkpt lat="45.22924" lon="2.93476">
        <ele>982.5</ele>
        <time>2021-08-24T08:30:23Z</time>
      </trkpt>
      <trkpt lat="45.2293" lon="2.93476">
        <ele>982.7</ele>
        <time>2021-08-24T08:30:25Z</time>
      </trkpt>
      <trkpt lat="45.22935" lon="2.93476">
        <ele>982.8</ele>
        <time>2021-08-24T08:30:27Z</time>
      </trkpt>
      <trkpt lat="45.22941" lon="2.93476">
        <ele>983</ele>
        <time>2021-08-24T08:30:29Z</time>
      </trkpt>
      <trkpt lat="45.22946" lon="2.93475">
        <ele>983.1</ele>
        <time>2021-08-24T08:30:31Z</time>
      </trkpt>
      <trkpt lat="45.22952" lon="2.93474">
        <ele>983.3</ele>
        <time>2021-08-24T08:30:33Z</time>
      </trkpt>
      <trkpt lat="45.22957" lon="2.93474">
        <ele>983.5</ele>
        <time>2021-08-24T08:30:35Z</time>
      </trkpt>
      <trkpt lat="45.22962" lon="2.93475">
        <ele>983.6</ele>
        <time>2021-08-24T08:30:37Z</time>
      </trkpt>
      <trkpt lat="45.22968" lon="2.93475">
        <ele>983.8</ele>
        <time>2021-08-24T08:30:39Z</time>
      </trkpt>
      <trkpt lat="45.22972" lon="2.93473">
        <ele>983.9</ele>
        <time>2021-08-24T08:30:41Z</time>
      </trkpt>
      <trkpt lat="45.22978" lon="2.93474">
        <ele>984.1</ele>
        <time>2021-08-24T08:30:43Z</time>
      </trkpt>
      <trkpt lat="45.22983" lon="2.93472">
        <ele>984.2</ele>
        <time>2021-08-24T08:30:45Z</time>
      </trkpt>
      <trkpt lat="45.22988" lon="2.93471">
        <ele>984.3</ele>
        <time>2021-08-24T08:30:47Z</time>
      </trkpt>
      <trkpt lat="45.22995" lon="2.93471">
        <ele>984.5</ele>
        <time>2021-08-24T08:30:49Z</time>
      </trkpt>
      <trkpt lat="45.23" lon="2.93472">
        <ele>984.7</ele>
        <time>2021-08-24T08:30:51Z</time>
      </trkpt>
      <trkpt lat="45.23004" lon="2.9347">
        <ele>984.7</ele>
        <time>2021-08-24T08:30:53Z</time>
      </trkpt>
      <trkpt lat="45.23008" lon="2.93468">
        <ele>984.8</ele>
        <time>2021-08-24T08:30:55Z</time>
      </trkpt>
      <trkpt lat="45.23013" lon="2.93466">
        <ele>984.9</ele>
        <time>2021-08-24T08:30:57Z</time>
      </trkpt>
      <trkpt lat="45.23019" lon="2.93466">
        <ele>985.1</ele>
        <time>2021-08-24T08:30:59Z</time>
      </trkpt>
      <trkpt lat="45.23024" lon="2.93466">
        <ele>985.2</ele>
        <time>2021-08-24T08:31:01Z</time>
      </trkpt>
      <trkpt lat="45.2303" lon="2.93465">
        <ele>985.3</ele>
        <time>2021-08-24T08:31:03Z</time>
      </trkpt>
      <trkpt lat="45.23035" lon="2.93464">
        <ele>985.5</ele>
        <time>2021-08-24T08:31:05Z</time>
      </trkpt>
      <trkpt lat="45.2304" lon="2.93463">
        <ele>985.6</ele>
        <time>2021-08-24T08:31:07Z</time>
      </trkpt>
      <trkpt lat="45.23046" lon="2.93463">
        <ele>985.7</ele>
        <time>2021-08-24T08:31:09Z</time>
      </trkpt>
      <trkpt lat="45.23052" lon="2.93462">
        <ele>985.8</ele>
        <time>2021-08-24T08:31:11Z</time>
      </trkpt>
      <trkpt lat="45.23057" lon="2.93461">
        <ele>985.9</ele>
        <time>2021-08-24T08:31:13Z</time>
      </trkpt>
      <trkpt lat="45.23063" lon="2.93459">
        <ele>986</ele>
        <time>2021-08-24T08:31:15Z</time>
      </trkpt>
      <trkpt lat="45.23068" lon="2.9346">
        <ele>986.2</ele>
        <time>2021-08-24T08:31:17Z</time>
      </trkpt>
      <trkpt lat="45.23073" lon="2.93459">
        <ele>986.3</ele>
        <time>2021-08-24T08:31:19Z</time>
      </trkpt>
      <trkpt lat="45.23079" lon="2.93459">
        <ele>986.4</ele>
        <time>2021-08-24T08:31:21Z</time>
      </trkpt>
      <trkpt lat="45.23085" lon="2.93457">
        <ele>986.5</ele>
        <time>2021-08-24T08:31:23Z</time>
      </trkpt>
      <trkpt lat="45.2309" lon="2.93457">
        <ele>986.6</ele>
        <time>2021-08-24T08:31:25Z</time>
      </trkpt>
      <trkpt lat="45.23095" lon="2.93457">
        <ele>986.7</ele>
        <time>2021-08-24T08:31:27Z</time>
      </trkpt>
      <trkpt lat="45.231" lon="2.93456">
        <ele>986.8</ele>
        <time>2021-08-24T08:31:29Z</time>
      </trkpt>
      <trkpt lat="45.23105" lon="2.93453">
        <ele>986.8</ele>
        <time>2021-08-24T08:31:31Z</time>
      </trkpt>
      <trkpt lat="45.2311" lon="2.93453">
        <ele>986.9</ele>
        <time>2021-08-24T08:31:33Z</time>
      </trkpt>
      <trkpt lat="45.23115" lon="2.93454">
        <ele>987.1</ele>
        <time>2021-08-24T08:31:35Z</time>
      </trkpt>
      <trkpt lat="45.23119" lon="2.93457">
        <ele>987.3</ele>
        <time>2021-08-24T08:31:37Z</time>
      </trkpt>
      <trkpt lat="45.23122" lon="2.93462">
        <ele>987.6</ele>
        <time>2021-08-24T08:31:39Z</time>
      </trkpt>
      <trkpt lat="45.23123" lon="2.93466">
        <ele>987.8</ele>
        <time>2021-08-24T08:31:41Z</time>
      </trkpt>
      <trkpt lat="45.23123" lon="2.93468">
        <ele>987.9</ele>
        <time>2021-08-24T08:31:43Z</time>
      </trkpt>
      <trkpt lat="45.23123" lon="2.93468">
        <ele>987.9</ele>
        <time>2021-08-24T08:31:45Z</time>
      </trkpt>
      <trkpt lat="45.23123" lon="2.93468">
        <ele>987.9</ele>
        <time>2021-08-24T08:31:47Z</time>
      </trkpt>
      <trkpt lat="45.23124" lon="2.93468">
        <ele>988</ele>
        <time>2021-08-24T08:31:49Z</time>
      </trkpt>
      <trkpt lat="45.23124" lon="2.93469">
        <ele>988</ele>
        <time>2021-08-24T08:31:51Z</time>
      </trkpt>
      <trkpt lat="45.23136" lon="2.93459">
        <ele>987.8</ele>
        <time>2021-08-24T08:32:59Z</time>
      </trkpt>
      <trkpt lat="45.23142" lon="2.93456">
        <ele>987.8</ele>
        <time>2021-08-24T08:33:01Z</time>
      </trkpt>
      <trkpt lat="45.23147" lon="2.93454">
        <ele>987.8</ele>
        <time>2021-08-24T08:33:03Z</time>
      </trkpt>
      <trkpt lat="45.23153" lon="2.93453">
        <ele>987.9</ele>
        <time>2021-08-24T08:33:05Z</time>
      </trkpt>
      <trkpt lat="45.23159" lon="2.93454">
        <ele>988.1</ele>
        <time>2021-08-24T08:33:07Z</time>
      </trkpt>
      <trkpt lat="45.23164" lon="2.93455">
        <ele>988.2</ele>
        <time>2021-08-24T08:33:09Z</time>
      </trkpt>
      <trkpt lat="45.2317" lon="2.93455">
        <ele>988.2</ele>
        <time>2021-08-24T08:33:11Z</time>
      </trkpt>
      <trkpt lat="45.23176" lon="2.93455">
        <ele>988.2</ele>
        <time>2021-08-24T08:33:13Z</time>
      </trkpt>
      <trkpt lat="45.23181" lon="2.93457">
        <ele>988.1</ele>
        <time>2021-08-24T08:33:15Z</time>
      </trkpt>
      <trkpt lat="45.23186" lon="2.93457">
        <ele>988</ele>
        <time>2021-08-24T08:33:17Z</time>
      </trkpt>
      <trkpt lat="45.23191" lon="2.93458">
        <ele>988</ele>
        <time>2021-08-24T08:33:19Z</time>
      </trkpt>
      <trkpt lat="45.23197" lon="2.93459">
        <ele>988</ele>
        <time>2021-08-24T08:33:21Z</time>
      </trkpt>
      <trkpt lat="45.23202" lon="2.93459">
        <ele>988</ele>
        <time>2021-08-24T08:33:23Z</time>
      </trkpt>
      <trkpt lat="45.23207" lon="2.9346">
        <ele>987.9</ele>
        <time>2021-08-24T08:33:25Z</time>
      </trkpt>
      <trkpt lat="45.23212" lon="2.93461">
        <ele>987.9</ele>
        <time>2021-08-24T08:33:27Z</time>
      </trkpt>
      <trkpt lat="45.23218" lon="2.93463">
        <ele>988</ele>
        <time>2021-08-24T08:33:29Z</time>
      </trkpt>
      <trkpt lat="45.23223" lon="2.93464">
        <ele>988</ele>
        <time>2021-08-24T08:33:31Z</time>
      </trkpt>
      <trkpt lat="45.23229" lon="2.93465">
        <ele>987.9</ele>
        <time>2021-08-24T08:33:33Z</time>
      </trkpt>
      <trkpt lat="45.23235" lon="2.93465">
        <ele>987.9</ele>
        <time>2021-08-24T08:33:35Z</time>
      </trkpt>
      <trkpt lat="45.2324" lon="2.93466">
        <ele>987.9</ele>
        <time>2021-08-24T08:33:37Z</time>
      </trkpt>
      <trkpt lat="45.23245" lon="2.93467">
        <ele>987.9</ele>
        <time>2021-08-24T08:33:39Z</time>
      </trkpt>
      <trkpt lat="45.2325" lon="2.93468">
        <ele>987.9</ele>
        <time>2021-08-24T08:33:41Z</time>
      </trkpt>
      <trkpt lat="45.23256" lon="2.9347">
        <ele>988</ele>
        <time>2021-08-24T08:33:43Z</time>
      </trkpt>
      <trkpt lat="45.23261" lon="2.9347">
        <ele>988</ele>
        <time>2021-08-24T08:33:45Z</time>
      </trkpt>
      <trkpt lat="45.23267" lon="2.93472">
        <ele>988.1</ele>
        <time>2021-08-24T08:33:47Z</time>
      </trkpt>
      <trkpt lat="45.23273" lon="2.93473">
        <ele>988.2</ele>
        <time>2021-08-24T08:33:49Z</time>
      </trkpt>
      <trkpt lat="45.23279" lon="2.93474">
        <ele>988.2</ele>
        <time>2021-08-24T08:33:51Z</time>
      </trkpt>
      <trkpt lat="45.23285" lon="2.93475">
        <ele>988.3</ele>
        <time>2021-08-24T08:33:53Z</time>
      </trkpt>
      <trkpt lat="45.23293" lon="2.93477">
        <ele>988.3</ele>
        <time>2021-08-24T08:33:55Z</time>
      </trkpt>
      <trkpt lat="45.23301" lon="2.93478">
        <ele>988.4</ele>
        <time>2021-08-24T08:33:57Z</time>
      </trkpt>
      <trkpt lat="45.23311" lon="2.93479">
        <ele>988.5</ele>
        <time>2021-08-24T08:33:59Z</time>
      </trkpt>
      <trkpt lat="45.23318" lon="2.93481">
        <ele>988.6</ele>
        <time>2021-08-24T08:34:01Z</time>
      </trkpt>
      <trkpt lat="45.23325" lon="2.93482">
        <ele>988.7</ele>
        <time>2021-08-24T08:34:03Z</time>
      </trkpt>
      <trkpt lat="45.23333" lon="2.93484">
        <ele>988.8</ele>
        <time>2021-08-24T08:34:05Z</time>
      </trkpt>
      <trkpt lat="45.23341" lon="2.93486">
        <ele>988.7</ele>
        <time>2021-08-24T08:34:07Z</time>
      </trkpt>
      <trkpt lat="45.2335" lon="2.93487">
        <ele>988.4</ele>
        <time>2021-08-24T08:34:09Z</time>
      </trkpt>
      <trkpt lat="45.23358" lon="2.93489">
        <ele>988.3</ele>
        <time>2021-08-24T08:34:11Z</time>
      </trkpt>
      <trkpt lat="45.23366" lon="2.93491">
        <ele>988.1</ele>
        <time>2021-08-24T08:34:13Z</time>
      </trkpt>
      <trkpt lat="45.23374" lon="2.93494">
        <ele>987.9</ele>
        <time>2021-08-24T08:34:15Z</time>
      </trkpt>
      <trkpt lat="45.23382" lon="2.93497">
        <ele>987.8</ele>
        <time>2021-08-24T08:34:17Z</time>
      </trkpt>
      <trkpt lat="45.2339" lon="2.93503">
        <ele>987.8</ele>
        <time>2021-08-24T08:34:19Z</time>
      </trkpt>
      <trkpt lat="45.23398" lon="2.93507">
        <ele>987.6</ele>
        <time>2021-08-24T08:34:21Z</time>
      </trkpt>
      <trkpt lat="45.23406" lon="2.93512">
        <ele>987.5</ele>
        <time>2021-08-24T08:34:23Z</time>
      </trkpt>
      <trkpt lat="45.23413" lon="2.93517">
        <ele>987.5</ele>
        <time>2021-08-24T08:34:25Z</time>
      </trkpt>
      <trkpt lat="45.2342" lon="2.93523">
        <ele>987.5</ele>
        <time>2021-08-24T08:34:27Z</time>
      </trkpt>
      <trkpt lat="45.23427" lon="2.93529">
        <ele>987.6</ele>
        <time>2021-08-24T08:34:29Z</time>
      </trkpt>
      <trkpt lat="45.23434" lon="2.93535">
        <ele>987.7</ele>
        <time>2021-08-24T08:34:31Z</time>
      </trkpt>
      <trkpt lat="45.23441" lon="2.93541">
        <ele>987.8</ele>
        <time>2021-08-24T08:34:33Z</time>
      </trkpt>
      <trkpt lat="45.23448" lon="2.93547">
        <ele>987.8</ele>
        <time>2021-08-24T08:34:35Z</time>
      </trkpt>
      <trkpt lat="45.23455" lon="2.93552">
        <ele>987.8</ele>
        <time>2021-08-24T08:34:37Z</time>
      </trkpt>
      <trkpt lat="45.23463" lon="2.93557">
        <ele>987.7</ele>
        <time>2021-08-24T08:34:39Z</time>
      </trkpt>
      <trkpt lat="45.23471" lon="2.93561">
        <ele>987.5</ele>
        <time>2021-08-24T08:34:41Z</time>
      </trkpt>
      <trkpt lat="45.23479" lon="2.93565">
        <ele>987.2</ele>
        <time>2021-08-24T08:34:43Z</time>
      </trkpt>
      <trkpt lat="45.23488" lon="2.93568">
        <ele>986.9</ele>
        <time>2021-08-24T08:34:45Z</time>
      </trkpt>
      <trkpt lat="45.23495" lon="2.9357">
        <ele>986.6</ele>
        <time>2021-08-24T08:34:47Z</time>
      </trkpt>
      <trkpt lat="45.23503" lon="2.93571">
        <ele>986.5</ele>
        <time>2021-08-24T08:34:49Z</time>
      </trkpt>
      <trkpt lat="45.23511" lon="2.93571">
        <ele>986.6</ele>
        <time>2021-08-24T08:34:51Z</time>
      </trkpt>
      <trkpt lat="45.23519" lon="2.93571">
        <ele>986.7</ele>
        <time>2021-08-24T08:34:53Z</time>
      </trkpt>
      <trkpt lat="45.23527" lon="2.9357">
        <ele>986.8</ele>
        <time>2021-08-24T08:34:55Z</time>
      </trkpt>
      <trkpt lat="45.23535" lon="2.93568">
        <ele>986.8</ele>
        <time>2021-08-24T08:34:57Z</time>
      </trkpt>
      <trkpt lat="45.23542" lon="2.93566">
        <ele>986.9</ele>
        <time>2021-08-24T08:34:59Z</time>
      </trkpt>
      <trkpt lat="45.2355" lon="2.93562">
        <ele>986.9</ele>
        <time>2021-08-24T08:35:01Z</time>
      </trkpt>
      <trkpt lat="45.23558" lon="2.93559">
        <ele>986.9</ele>
        <time>2021-08-24T08:35:03Z</time>
      </trkpt>
      <trkpt lat="45.23565" lon="2.93553">
        <ele>986.9</ele>
        <time>2021-08-24T08:35:05Z</time>
      </trkpt>
      <trkpt lat="45.23572" lon="2.93548">
        <ele>986.9</ele>
        <time>2021-08-24T08:35:07Z</time>
      </trkpt>
      <trkpt lat="45.2358" lon="2.93542">
        <ele>986.9</ele>
        <time>2021-08-24T08:35:09Z</time>
      </trkpt>
      <trkpt lat="45.23588" lon="2.93537">
        <ele>986.9</ele>
        <time>2021-08-24T08:35:11Z</time>
      </trkpt>
      <trkpt lat="45.23597" lon="2.93537">
        <ele>987</ele>
        <time>2021-08-24T08:35:13Z</time>
      </trkpt>
      <trkpt lat="45.23606" lon="2.93539">
        <ele>987.1</ele>
        <time>2021-08-24T08:35:15Z</time>
      </trkpt>
      <trkpt lat="45.23614" lon="2.93542">
        <ele>987.2</ele>
        <time>2021-08-24T08:35:17Z</time>
      </trkpt>
      <trkpt lat="45.23622" lon="2.93545">
        <ele>987.3</ele>
        <time>2021-08-24T08:35:19Z</time>
      </trkpt>
      <trkpt lat="45.2363" lon="2.93548">
        <ele>987.4</ele>
        <time>2021-08-24T08:35:21Z</time>
      </trkpt>
      <trkpt lat="45.23638" lon="2.9355">
        <ele>987.5</ele>
        <time>2021-08-24T08:35:23Z</time>
      </trkpt>
      <trkpt lat="45.23646" lon="2.93552">
        <ele>987.5</ele>
        <time>2021-08-24T08:35:25Z</time>
      </trkpt>
      <trkpt lat="45.23653" lon="2.93555">
        <ele>987.6</ele>
        <time>2021-08-24T08:35:27Z</time>
      </trkpt>
      <trkpt lat="45.23661" lon="2.93557">
        <ele>987.7</ele>
        <time>2021-08-24T08:35:29Z</time>
      </trkpt>
      <trkpt lat="45.23669" lon="2.9356">
        <ele>987.9</ele>
        <time>2021-08-24T08:35:31Z</time>
      </trkpt>
      <trkpt lat="45.23677" lon="2.93562">
        <ele>988.5</ele>
        <time>2021-08-24T08:35:33Z</time>
      </trkpt>
      <trkpt lat="45.23684" lon="2.93564">
        <ele>989.1</ele>
        <time>2021-08-24T08:35:35Z</time>
      </trkpt>
      <trkpt lat="45.23691" lon="2.93565">
        <ele>989.7</ele>
        <time>2021-08-24T08:35:37Z</time>
      </trkpt>
      <trkpt lat="45.23698" lon="2.93566">
        <ele>990.2</ele>
        <time>2021-08-24T08:35:39Z</time>
      </trkpt>
      <trkpt lat="45.23705" lon="2.93566">
        <ele>990.8</ele>
        <time>2021-08-24T08:35:41Z</time>
      </trkpt>
      <trkpt lat="45.23711" lon="2.93565">
        <ele>991.3</ele>
        <time>2021-08-24T08:35:43Z</time>
      </trkpt>
      <trkpt lat="45.23718" lon="2.93565">
        <ele>991.7</ele>
        <time>2021-08-24T08:35:45Z</time>
      </trkpt>
      <trkpt lat="45.23723" lon="2.93564">
        <ele>992.1</ele>
        <time>2021-08-24T08:35:47Z</time>
      </trkpt>
      <trkpt lat="45.23729" lon="2.93562">
        <ele>992.4</ele>
        <time>2021-08-24T08:35:49Z</time>
      </trkpt>
      <trkpt lat="45.23735" lon="2.93561">
        <ele>992.7</ele>
        <time>2021-08-24T08:35:51Z</time>
      </trkpt>
      <trkpt lat="45.2374" lon="2.93559">
        <ele>993</ele>
        <time>2021-08-24T08:35:53Z</time>
      </trkpt>
      <trkpt lat="45.23745" lon="2.93557">
        <ele>993.1</ele>
        <time>2021-08-24T08:35:55Z</time>
      </trkpt>
      <trkpt lat="45.2375" lon="2.93556">
        <ele>993.4</ele>
        <time>2021-08-24T08:35:57Z</time>
      </trkpt>
      <trkpt lat="45.23755" lon="2.93555">
        <ele>993.6</ele>
        <time>2021-08-24T08:35:59Z</time>
      </trkpt>
      <trkpt lat="45.2376" lon="2.93552">
        <ele>993.8</ele>
        <time>2021-08-24T08:36:01Z</time>
      </trkpt>
      <trkpt lat="45.23764" lon="2.93551">
        <ele>994</ele>
        <time>2021-08-24T08:36:03Z</time>
      </trkpt>
      <trkpt lat="45.23769" lon="2.9355">
        <ele>994.2</ele>
        <time>2021-08-24T08:36:05Z</time>
      </trkpt>
      <trkpt lat="45.23773" lon="2.93549">
        <ele>994.4</ele>
        <time>2021-08-24T08:36:07Z</time>
      </trkpt>
      <trkpt lat="45.23777" lon="2.93547">
        <ele>994.5</ele>
        <time>2021-08-24T08:36:09Z</time>
      </trkpt>
      <trkpt lat="45.23782" lon="2.93546">
        <ele>994.7</ele>
        <time>2021-08-24T08:36:11Z</time>
      </trkpt>
      <trkpt lat="45.23786" lon="2.93545">
        <ele>994.9</ele>
        <time>2021-08-24T08:36:13Z</time>
      </trkpt>
      <trkpt lat="45.23789" lon="2.93543">
        <ele>995</ele>
        <time>2021-08-24T08:36:15Z</time>
      </trkpt>
      <trkpt lat="45.23793" lon="2.93542">
        <ele>995.1</ele>
        <time>2021-08-24T08:36:17Z</time>
      </trkpt>
      <trkpt lat="45.23796" lon="2.9354">
        <ele>995.2</ele>
        <time>2021-08-24T08:36:19Z</time>
      </trkpt>
      <trkpt lat="45.238" lon="2.93539">
        <ele>995.3</ele>
        <time>2021-08-24T08:36:21Z</time>
      </trkpt>
      <trkpt lat="45.23804" lon="2.93538">
        <ele>995.5</ele>
        <time>2021-08-24T08:36:23Z</time>
      </trkpt>
      <trkpt lat="45.23807" lon="2.93537">
        <ele>995.6</ele>
        <time>2021-08-24T08:36:25Z</time>
      </trkpt>
      <trkpt lat="45.23811" lon="2.93536">
        <ele>995.8</ele>
        <time>2021-08-24T08:36:27Z</time>
      </trkpt>
      <trkpt lat="45.23815" lon="2.93535">
        <ele>995.9</ele>
        <time>2021-08-24T08:36:29Z</time>
      </trkpt>
      <trkpt lat="45.23819" lon="2.93534">
        <ele>996</ele>
        <time>2021-08-24T08:36:31Z</time>
      </trkpt>
      <trkpt lat="45.23822" lon="2.93534">
        <ele>996.3</ele>
        <time>2021-08-24T08:36:33Z</time>
      </trkpt>
      <trkpt lat="45.23826" lon="2.93534">
        <ele>996.6</ele>
        <time>2021-08-24T08:36:35Z</time>
      </trkpt>
      <trkpt lat="45.2383" lon="2.93534">
        <ele>996.8</ele>
        <time>2021-08-24T08:36:37Z</time>
      </trkpt>
      <trkpt lat="45.23833" lon="2.93534">
        <ele>997</ele>
        <time>2021-08-24T08:36:39Z</time>
      </trkpt>
      <trkpt lat="45.23837" lon="2.93534">
        <ele>997.2</ele>
        <time>2021-08-24T08:36:41Z</time>
      </trkpt>
      <trkpt lat="45.23841" lon="2.93536">
        <ele>997.6</ele>
        <time>2021-08-24T08:36:43Z</time>
      </trkpt>
      <trkpt lat="45.23845" lon="2.93537">
        <ele>997.8</ele>
        <time>2021-08-24T08:36:45Z</time>
      </trkpt>
      <trkpt lat="45.23848" lon="2.93538">
        <ele>998.1</ele>
        <time>2021-08-24T08:36:47Z</time>
      </trkpt>
      <trkpt lat="45.23852" lon="2.9354">
        <ele>998.5</ele>
        <time>2021-08-24T08:36:49Z</time>
      </trkpt>
      <trkpt lat="45.23855" lon="2.93542">
        <ele>998.8</ele>
        <time>2021-08-24T08:36:51Z</time>
      </trkpt>
      <trkpt lat="45.23858" lon="2.93544">
        <ele>999.1</ele>
        <time>2021-08-24T08:36:53Z</time>
      </trkpt>
      <trkpt lat="45.23861" lon="2.93546">
        <ele>999.5</ele>
        <time>2021-08-24T08:36:55Z</time>
      </trkpt>
      <trkpt lat="45.23865" lon="2.93547">
        <ele>999.7</ele>
        <time>2021-08-24T08:36:57Z</time>
      </trkpt>
      <trkpt lat="45.23869" lon="2.93549">
        <ele>1000</ele>
        <time>2021-08-24T08:36:59Z</time>
      </trkpt>
      <trkpt lat="45.23872" lon="2.93551">
        <ele>1000.4</ele>
        <time>2021-08-24T08:37:01Z</time>
      </trkpt>
      <trkpt lat="45.23875" lon="2.93553">
        <ele>1000.7</ele>
        <time>2021-08-24T08:37:03Z</time>
      </trkpt>
      <trkpt lat="45.23879" lon="2.93554">
        <ele>1000.9</ele>
        <time>2021-08-24T08:37:05Z</time>
      </trkpt>
      <trkpt lat="45.23882" lon="2.93556">
        <ele>1001.2</ele>
        <time>2021-08-24T08:37:07Z</time>
      </trkpt>
      <trkpt lat="45.23885" lon="2.93558">
        <ele>1001.6</ele>
        <time>2021-08-24T08:37:09Z</time>
      </trkpt>
      <trkpt lat="45.23889" lon="2.93559">
        <ele>1001.8</ele>
        <time>2021-08-24T08:37:11Z</time>
      </trkpt>
      <trkpt lat="45.23893" lon="2.9356">
        <ele>1002</ele>
        <time>2021-08-24T08:37:13Z</time>
      </trkpt>
      <trkpt lat="45.23896" lon="2.93563">
        <ele>1002.4</ele>
        <time>2021-08-24T08:37:15Z</time>
      </trkpt>
      <trkpt lat="45.23899" lon="2.93564">
        <ele>1002.7</ele>
        <time>2021-08-24T08:37:17Z</time>
      </trkpt>
      <trkpt lat="45.23903" lon="2.93566">
        <ele>1002.9</ele>
        <time>2021-08-24T08:37:19Z</time>
      </trkpt>
      <trkpt lat="45.23906" lon="2.93568">
        <ele>1003.2</ele>
        <time>2021-08-24T08:37:21Z</time>
      </trkpt>
      <trkpt lat="45.2391" lon="2.9357">
        <ele>1003.5</ele>
        <time>2021-08-24T08:37:23Z</time>
      </trkpt>
      <trkpt lat="45.23913" lon="2.93572">
        <ele>1003.8</ele>
        <time>2021-08-24T08:37:25Z</time>
      </trkpt>
      <trkpt lat="45.23916" lon="2.93573">
        <ele>1004</ele>
        <time>2021-08-24T08:37:27Z</time>
      </trkpt>
      <trkpt lat="45.2392" lon="2.93575">
        <ele>1004.4</ele>
        <time>2021-08-24T08:37:29Z</time>
      </trkpt>
      <trkpt lat="45.23923" lon="2.93577">
        <ele>1004.7</ele>
        <time>2021-08-24T08:37:31Z</time>
      </trkpt>
      <trkpt lat="45.23926" lon="2.93579">
        <ele>1005</ele>
        <time>2021-08-24T08:37:33Z</time>
      </trkpt>
      <trkpt lat="45.2393" lon="2.9358">
        <ele>1005.3</ele>
        <time>2021-08-24T08:37:35Z</time>
      </trkpt>
      <trkpt lat="45.23933" lon="2.93582">
        <ele>1005.7</ele>
        <time>2021-08-24T08:37:37Z</time>
      </trkpt>
      <trkpt lat="45.23937" lon="2.93584">
        <ele>1006</ele>
        <time>2021-08-24T08:37:39Z</time>
      </trkpt>
      <trkpt lat="45.2394" lon="2.93585">
        <ele>1006.2</ele>
        <time>2021-08-24T08:37:41Z</time>
      </trkpt>
      <trkpt lat="45.23942" lon="2.93585">
        <ele>1006.4</ele>
        <time>2021-08-24T08:37:43Z</time>
      </trkpt>
      <trkpt lat="45.23946" lon="2.93588">
        <ele>1006.8</ele>
        <time>2021-08-24T08:37:45Z</time>
      </trkpt>
      <trkpt lat="45.23949" lon="2.93589">
        <ele>1007.1</ele>
        <time>2021-08-24T08:37:47Z</time>
      </trkpt>
      <trkpt lat="45.23952" lon="2.9359">
        <ele>1007.4</ele>
        <time>2021-08-24T08:37:49Z</time>
      </trkpt>
      <trkpt lat="45.23955" lon="2.93591">
        <ele>1007.6</ele>
        <time>2021-08-24T08:37:51Z</time>
      </trkpt>
      <trkpt lat="45.23958" lon="2.93592">
        <ele>1007.8</ele>
        <time>2021-08-24T08:37:53Z</time>
      </trkpt>
      <trkpt lat="45.23962" lon="2.93593">
        <ele>1008.1</ele>
        <time>2021-08-24T08:37:55Z</time>
      </trkpt>
      <trkpt lat="45.23965" lon="2.93594">
        <ele>1008.4</ele>
        <time>2021-08-24T08:37:57Z</time>
      </trkpt>
      <trkpt lat="45.23969" lon="2.93595">
        <ele>1008.6</ele>
        <time>2021-08-24T08:37:59Z</time>
      </trkpt>
      <trkpt lat="45.23972" lon="2.93596">
        <ele>1008.9</ele>
        <time>2021-08-24T08:38:01Z</time>
      </trkpt>
      <trkpt lat="45.23976" lon="2.93596">
        <ele>1009.1</ele>
        <time>2021-08-24T08:38:03Z</time>
      </trkpt>
      <trkpt lat="45.23979" lon="2.93597">
        <ele>1009.3</ele>
        <time>2021-08-24T08:38:05Z</time>
      </trkpt>
      <trkpt lat="45.23982" lon="2.93597">
        <ele>1009.5</ele>
        <time>2021-08-24T08:38:07Z</time>
      </trkpt>
      <trkpt lat="45.23986" lon="2.93597">
        <ele>1009.7</ele>
        <time>2021-08-24T08:38:09Z</time>
      </trkpt>
      <trkpt lat="45.23989" lon="2.93596">
        <ele>1009.8</ele>
        <time>2021-08-24T08:38:11Z</time>
      </trkpt>
      <trkpt lat="45.23993" lon="2.93596">
        <ele>1010</ele>
        <time>2021-08-24T08:38:13Z</time>
      </trkpt>
      <trkpt lat="45.23996" lon="2.93596">
        <ele>1010.1</ele>
        <time>2021-08-24T08:38:15Z</time>
      </trkpt>
      <trkpt lat="45.23999" lon="2.93596">
        <ele>1010.3</ele>
        <time>2021-08-24T08:38:17Z</time>
      </trkpt>
      <trkpt lat="45.24003" lon="2.93596">
        <ele>1010.7</ele>
        <time>2021-08-24T08:38:19Z</time>
      </trkpt>
      <trkpt lat="45.24006" lon="2.93594">
        <ele>1011</ele>
        <time>2021-08-24T08:38:21Z</time>
      </trkpt>
      <trkpt lat="45.2401" lon="2.93594">
        <ele>1011.4</ele>
        <time>2021-08-24T08:38:23Z</time>
      </trkpt>
      <trkpt lat="45.24013" lon="2.93593">
        <ele>1011.8</ele>
        <time>2021-08-24T08:38:25Z</time>
      </trkpt>
      <trkpt lat="45.24016" lon="2.93591">
        <ele>1012</ele>
        <time>2021-08-24T08:38:27Z</time>
      </trkpt>
      <trkpt lat="45.24019" lon="2.9359">
        <ele>1012.3</ele>
        <time>2021-08-24T08:38:29Z</time>
      </trkpt>
      <trkpt lat="45.24022" lon="2.93591">
        <ele>1012.7</ele>
        <time>2021-08-24T08:38:31Z</time>
      </trkpt>
      <trkpt lat="45.24025" lon="2.93589">
        <ele>1012.9</ele>
        <time>2021-08-24T08:38:33Z</time>
      </trkpt>
      <trkpt lat="45.24029" lon="2.93588">
        <ele>1013.3</ele>
        <time>2021-08-24T08:38:35Z</time>
      </trkpt>
      <trkpt lat="45.24032" lon="2.93587">
        <ele>1013.6</ele>
        <time>2021-08-24T08:38:37Z</time>
      </trkpt>
      <trkpt lat="45.24035" lon="2.93584">
        <ele>1013.8</ele>
        <time>2021-08-24T08:38:39Z</time>
      </trkpt>
      <trkpt lat="45.24039" lon="2.93584">
        <ele>1014.2</ele>
        <time>2021-08-24T08:38:41Z</time>
      </trkpt>
      <trkpt lat="45.24042" lon="2.93583">
        <ele>1014.4</ele>
        <time>2021-08-24T08:38:43Z</time>
      </trkpt>
      <trkpt lat="45.24045" lon="2.93582">
        <ele>1014.8</ele>
        <time>2021-08-24T08:38:45Z</time>
      </trkpt>
      <trkpt lat="45.24048" lon="2.9358">
        <ele>1015</ele>
        <time>2021-08-24T08:38:47Z</time>
      </trkpt>
      <trkpt lat="45.24051" lon="2.9358">
        <ele>1015.3</ele>
        <time>2021-08-24T08:38:49Z</time>
      </trkpt>
      <trkpt lat="45.24055" lon="2.93578">
        <ele>1015.6</ele>
        <time>2021-08-24T08:38:51Z</time>
      </trkpt>
      <trkpt lat="45.24058" lon="2.93576">
        <ele>1015.8</ele>
        <time>2021-08-24T08:38:53Z</time>
      </trkpt>
      <trkpt lat="45.24061" lon="2.93576">
        <ele>1016.2</ele>
        <time>2021-08-24T08:38:55Z</time>
      </trkpt>
      <trkpt lat="45.24065" lon="2.93574">
        <ele>1016.4</ele>
        <time>2021-08-24T08:38:57Z</time>
      </trkpt>
      <trkpt lat="45.24068" lon="2.93573">
        <ele>1016.6</ele>
        <time>2021-08-24T08:38:59Z</time>
      </trkpt>
      <trkpt lat="45.24071" lon="2.93572">
        <ele>1016.9</ele>
        <time>2021-08-24T08:39:01Z</time>
      </trkpt>
      <trkpt lat="45.24074" lon="2.93571">
        <ele>1017.1</ele>
        <time>2021-08-24T08:39:03Z</time>
      </trkpt>
      <trkpt lat="45.24077" lon="2.9357">
        <ele>1017.4</ele>
        <time>2021-08-24T08:39:05Z</time>
      </trkpt>
      <trkpt lat="45.24082" lon="2.93568">
        <ele>1017.7</ele>
        <time>2021-08-24T08:39:07Z</time>
      </trkpt>
      <trkpt lat="45.24085" lon="2.93567">
        <ele>1018</ele>
        <time>2021-08-24T08:39:09Z</time>
      </trkpt>
      <trkpt lat="45.24088" lon="2.93565">
        <ele>1018.4</ele>
        <time>2021-08-24T08:39:11Z</time>
      </trkpt>
      <trkpt lat="45.24092" lon="2.93564">
        <ele>1018.7</ele>
        <time>2021-08-24T08:39:13Z</time>
      </trkpt>
      <trkpt lat="45.24096" lon="2.93563">
        <ele>1019.1</ele>
        <time>2021-08-24T08:39:15Z</time>
      </trkpt>
      <trkpt lat="45.24099" lon="2.93561">
        <ele>1019.4</ele>
        <time>2021-08-24T08:39:17Z</time>
      </trkpt>
      <trkpt lat="45.24102" lon="2.9356">
        <ele>1019.7</ele>
        <time>2021-08-24T08:39:19Z</time>
      </trkpt>
      <trkpt lat="45.24106" lon="2.93558">
        <ele>1020</ele>
        <time>2021-08-24T08:39:21Z</time>
      </trkpt>
      <trkpt lat="45.24109" lon="2.93557">
        <ele>1020.3</ele>
        <time>2021-08-24T08:39:23Z</time>
      </trkpt>
      <trkpt lat="45.24113" lon="2.93555">
        <ele>1020.6</ele>
        <time>2021-08-24T08:39:25Z</time>
      </trkpt>
      <trkpt lat="45.24116" lon="2.93553">
        <ele>1020.9</ele>
        <time>2021-08-24T08:39:27Z</time>
      </trkpt>
      <trkpt lat="45.2412" lon="2.93552">
        <ele>1021.2</ele>
        <time>2021-08-24T08:39:29Z</time>
      </trkpt>
      <trkpt lat="45.24123" lon="2.93551">
        <ele>1021.6</ele>
        <time>2021-08-24T08:39:31Z</time>
      </trkpt>
      <trkpt lat="45.24127" lon="2.9355">
        <ele>1022</ele>
        <time>2021-08-24T08:39:33Z</time>
      </trkpt>
      <trkpt lat="45.24131" lon="2.93548">
        <ele>1022.3</ele>
        <time>2021-08-24T08:39:35Z</time>
      </trkpt>
      <trkpt lat="45.24134" lon="2.93548">
        <ele>1022.7</ele>
        <time>2021-08-24T08:39:37Z</time>
      </trkpt>
      <trkpt lat="45.24138" lon="2.93546">
        <ele>1023</ele>
        <time>2021-08-24T08:39:39Z</time>
      </trkpt>
      <trkpt lat="45.24141" lon="2.93545">
        <ele>1023.3</ele>
        <time>2021-08-24T08:39:41Z</time>
      </trkpt>
      <trkpt lat="45.24145" lon="2.93543">
        <ele>1023.5</ele>
        <time>2021-08-24T08:39:43Z</time>
      </trkpt>
      <trkpt lat="45.24148" lon="2.93542">
        <ele>1023.9</ele>
        <time>2021-08-24T08:39:45Z</time>
      </trkpt>
      <trkpt lat="45.24152" lon="2.93541">
        <ele>1024.2</ele>
        <time>2021-08-24T08:39:47Z</time>
      </trkpt>
      <trkpt lat="45.24155" lon="2.93539">
        <ele>1024.5</ele>
        <time>2021-08-24T08:39:49Z</time>
      </trkpt>
      <trkpt lat="45.24159" lon="2.93538">
        <ele>1024.9</ele>
        <time>2021-08-24T08:39:51Z</time>
      </trkpt>
      <trkpt lat="45.24163" lon="2.93537">
        <ele>1025.2</ele>
        <time>2021-08-24T08:39:53Z</time>
      </trkpt>
      <trkpt lat="45.24166" lon="2.93536">
        <ele>1025.6</ele>
        <time>2021-08-24T08:39:55Z</time>
      </trkpt>
      <trkpt lat="45.2417" lon="2.93535">
        <ele>1025.7</ele>
        <time>2021-08-24T08:39:57Z</time>
      </trkpt>
      <trkpt lat="45.24173" lon="2.93533">
        <ele>1025.8</ele>
        <time>2021-08-24T08:39:59Z</time>
      </trkpt>
      <trkpt lat="45.24176" lon="2.93532">
        <ele>1025.9</ele>
        <time>2021-08-24T08:40:01Z</time>
      </trkpt>
      <trkpt lat="45.2418" lon="2.93531">
        <ele>1026</ele>
        <time>2021-08-24T08:40:03Z</time>
      </trkpt>
      <trkpt lat="45.24183" lon="2.93529">
        <ele>1026</ele>
        <time>2021-08-24T08:40:05Z</time>
      </trkpt>
      <trkpt lat="45.24186" lon="2.93529">
        <ele>1026.2</ele>
        <time>2021-08-24T08:40:07Z</time>
      </trkpt>
      <trkpt lat="45.2419" lon="2.93528">
        <ele>1026.4</ele>
        <time>2021-08-24T08:40:09Z</time>
      </trkpt>
      <trkpt lat="45.24193" lon="2.93527">
        <ele>1026.6</ele>
        <time>2021-08-24T08:40:11Z</time>
      </trkpt>
      <trkpt lat="45.24197" lon="2.93527">
        <ele>1026.9</ele>
        <time>2021-08-24T08:40:13Z</time>
      </trkpt>
      <trkpt lat="45.24201" lon="2.93526">
        <ele>1026.9</ele>
        <time>2021-08-24T08:40:15Z</time>
      </trkpt>
      <trkpt lat="45.24204" lon="2.93524">
        <ele>1027</ele>
        <time>2021-08-24T08:40:17Z</time>
      </trkpt>
      <trkpt lat="45.24208" lon="2.93524">
        <ele>1027.3</ele>
        <time>2021-08-24T08:40:19Z</time>
      </trkpt>
      <trkpt lat="45.24212" lon="2.93523">
        <ele>1027.4</ele>
        <time>2021-08-24T08:40:21Z</time>
      </trkpt>
      <trkpt lat="45.24215" lon="2.93523">
        <ele>1027.7</ele>
        <time>2021-08-24T08:40:23Z</time>
      </trkpt>
      <trkpt lat="45.24219" lon="2.93523">
        <ele>1028</ele>
        <time>2021-08-24T08:40:25Z</time>
      </trkpt>
      <trkpt lat="45.24222" lon="2.93523">
        <ele>1028.4</ele>
        <time>2021-08-24T08:40:27Z</time>
      </trkpt>
      <trkpt lat="45.24226" lon="2.93523">
        <ele>1028.7</ele>
        <time>2021-08-24T08:40:29Z</time>
      </trkpt>
      <trkpt lat="45.2423" lon="2.93524">
        <ele>1029.1</ele>
        <time>2021-08-24T08:40:31Z</time>
      </trkpt>
      <trkpt lat="45.24233" lon="2.93524">
        <ele>1029.4</ele>
        <time>2021-08-24T08:40:33Z</time>
      </trkpt>
      <trkpt lat="45.24236" lon="2.93525">
        <ele>1029.9</ele>
        <time>2021-08-24T08:40:35Z</time>
      </trkpt>
      <trkpt lat="45.2424" lon="2.93526">
        <ele>1030.3</ele>
        <time>2021-08-24T08:40:37Z</time>
      </trkpt>
      <trkpt lat="45.24243" lon="2.93527">
        <ele>1030.9</ele>
        <time>2021-08-24T08:40:39Z</time>
      </trkpt>
      <trkpt lat="45.24246" lon="2.93528">
        <ele>1031.5</ele>
        <time>2021-08-24T08:40:41Z</time>
      </trkpt>
      <trkpt lat="45.2425" lon="2.93529">
        <ele>1031.9</ele>
        <time>2021-08-24T08:40:43Z</time>
      </trkpt>
      <trkpt lat="45.24253" lon="2.93531">
        <ele>1032.4</ele>
        <time>2021-08-24T08:40:45Z</time>
      </trkpt>
      <trkpt lat="45.24256" lon="2.93532">
        <ele>1032.8</ele>
        <time>2021-08-24T08:40:47Z</time>
      </trkpt>
      <trkpt lat="45.24259" lon="2.93533">
        <ele>1033.1</ele>
        <time>2021-08-24T08:40:49Z</time>
      </trkpt>
      <trkpt lat="45.24263" lon="2.93534">
        <ele>1033.7</ele>
        <time>2021-08-24T08:40:51Z</time>
      </trkpt>
      <trkpt lat="45.24266" lon="2.93536">
        <ele>1034.1</ele>
        <time>2021-08-24T08:40:53Z</time>
      </trkpt>
      <trkpt lat="45.24269" lon="2.93537">
        <ele>1034.5</ele>
        <time>2021-08-24T08:40:55Z</time>
      </trkpt>
      <trkpt lat="45.24273" lon="2.93538">
        <ele>1034.9</ele>
        <time>2021-08-24T08:40:57Z</time>
      </trkpt>
      <trkpt lat="45.24276" lon="2.9354">
        <ele>1035.4</ele>
        <time>2021-08-24T08:40:59Z</time>
      </trkpt>
      <trkpt lat="45.24279" lon="2.93542">
        <ele>1035.9</ele>
        <time>2021-08-24T08:41:01Z</time>
      </trkpt>
      <trkpt lat="45.24282" lon="2.93542">
        <ele>1036.2</ele>
        <time>2021-08-24T08:41:03Z</time>
      </trkpt>
      <trkpt lat="45.24285" lon="2.93544">
        <ele>1036.6</ele>
        <time>2021-08-24T08:41:05Z</time>
      </trkpt>
      <trkpt lat="45.24289" lon="2.93546">
        <ele>1037.2</ele>
        <time>2021-08-24T08:41:07Z</time>
      </trkpt>
      <trkpt lat="45.24292" lon="2.93547">
        <ele>1037.5</ele>
        <time>2021-08-24T08:41:09Z</time>
      </trkpt>
      <trkpt lat="45.24296" lon="2.93548">
        <ele>1038</ele>
        <time>2021-08-24T08:41:11Z</time>
      </trkpt>
      <trkpt lat="45.24299" lon="2.9355">
        <ele>1038.4</ele>
        <time>2021-08-24T08:41:13Z</time>
      </trkpt>
      <trkpt lat="45.24303" lon="2.93551">
        <ele>1038.8</ele>
        <time>2021-08-24T08:41:15Z</time>
      </trkpt>
      <trkpt lat="45.24306" lon="2.93552">
        <ele>1039.1</ele>
        <time>2021-08-24T08:41:17Z</time>
      </trkpt>
      <trkpt lat="45.24309" lon="2.93553">
        <ele>1039.5</ele>
        <time>2021-08-24T08:41:19Z</time>
      </trkpt>
      <trkpt lat="45.24313" lon="2.93554">
        <ele>1039.8</ele>
        <time>2021-08-24T08:41:21Z</time>
      </trkpt>
      <trkpt lat="45.24316" lon="2.93554">
        <ele>1039.9</ele>
        <time>2021-08-24T08:41:23Z</time>
      </trkpt>
      <trkpt lat="45.2432" lon="2.93554">
        <ele>1040.1</ele>
        <time>2021-08-24T08:41:25Z</time>
      </trkpt>
      <trkpt lat="45.24323" lon="2.93554">
        <ele>1040.3</ele>
        <time>2021-08-24T08:41:27Z</time>
      </trkpt>
      <trkpt lat="45.24326" lon="2.93554">
        <ele>1040.3</ele>
        <time>2021-08-24T08:41:29Z</time>
      </trkpt>
      <trkpt lat="45.24329" lon="2.93554">
        <ele>1040.5</ele>
        <time>2021-08-24T08:41:31Z</time>
      </trkpt>
      <trkpt lat="45.24332" lon="2.93554">
        <ele>1040.7</ele>
        <time>2021-08-24T08:41:33Z</time>
      </trkpt>
      <trkpt lat="45.24336" lon="2.93554">
        <ele>1040.8</ele>
        <time>2021-08-24T08:41:35Z</time>
      </trkpt>
      <trkpt lat="45.24339" lon="2.93552">
        <ele>1040.8</ele>
        <time>2021-08-24T08:41:37Z</time>
      </trkpt>
      <trkpt lat="45.24342" lon="2.9355">
        <ele>1040.8</ele>
        <time>2021-08-24T08:41:39Z</time>
      </trkpt>
      <trkpt lat="45.24346" lon="2.93549">
        <ele>1040.9</ele>
        <time>2021-08-24T08:41:41Z</time>
      </trkpt>
      <trkpt lat="45.24349" lon="2.93547">
        <ele>1040.9</ele>
        <time>2021-08-24T08:41:43Z</time>
      </trkpt>
      <trkpt lat="45.24353" lon="2.93546">
        <ele>1041</ele>
        <time>2021-08-24T08:41:45Z</time>
      </trkpt>
      <trkpt lat="45.24356" lon="2.93545">
        <ele>1041.2</ele>
        <time>2021-08-24T08:41:47Z</time>
      </trkpt>
      <trkpt lat="45.2436" lon="2.93543">
        <ele>1041.2</ele>
        <time>2021-08-24T08:41:49Z</time>
      </trkpt>
      <trkpt lat="45.24363" lon="2.93542">
        <ele>1041.3</ele>
        <time>2021-08-24T08:41:51Z</time>
      </trkpt>
      <trkpt lat="45.24366" lon="2.93541">
        <ele>1041.5</ele>
        <time>2021-08-24T08:41:53Z</time>
      </trkpt>
      <trkpt lat="45.2437" lon="2.93538">
        <ele>1041.5</ele>
        <time>2021-08-24T08:41:55Z</time>
      </trkpt>
      <trkpt lat="45.24373" lon="2.93537">
        <ele>1041.6</ele>
        <time>2021-08-24T08:41:57Z</time>
      </trkpt>
      <trkpt lat="45.24376" lon="2.93534">
        <ele>1041.6</ele>
        <time>2021-08-24T08:41:59Z</time>
      </trkpt>
      <trkpt lat="45.24379" lon="2.93533">
        <ele>1041.8</ele>
        <time>2021-08-24T08:42:01Z</time>
      </trkpt>
      <trkpt lat="45.24383" lon="2.93531">
        <ele>1042</ele>
        <time>2021-08-24T08:42:03Z</time>
      </trkpt>
      <trkpt lat="45.24386" lon="2.9353">
        <ele>1042.2</ele>
        <time>2021-08-24T08:42:05Z</time>
      </trkpt>
      <trkpt lat="45.2439" lon="2.93528">
        <ele>1042.3</ele>
        <time>2021-08-24T08:42:07Z</time>
      </trkpt>
      <trkpt lat="45.24393" lon="2.93525">
        <ele>1042.4</ele>
        <time>2021-08-24T08:42:09Z</time>
      </trkpt>
      <trkpt lat="45.24396" lon="2.93524">
        <ele>1042.6</ele>
        <time>2021-08-24T08:42:11Z</time>
      </trkpt>
      <trkpt lat="45.24399" lon="2.93522">
        <ele>1042.7</ele>
        <time>2021-08-24T08:42:13Z</time>
      </trkpt>
      <trkpt lat="45.24402" lon="2.9352">
        <ele>1043</ele>
        <time>2021-08-24T08:42:15Z</time>
      </trkpt>
      <trkpt lat="45.24405" lon="2.93518">
        <ele>1043.1</ele>
        <time>2021-08-24T08:42:17Z</time>
      </trkpt>
      <trkpt lat="45.24409" lon="2.93517">
        <ele>1043.5</ele>
        <time>2021-08-24T08:42:19Z</time>
      </trkpt>
      <trkpt lat="45.24412" lon="2.93515">
        <ele>1043.8</ele>
        <time>2021-08-24T08:42:21Z</time>
      </trkpt>
      <trkpt lat="45.24416" lon="2.93513">
        <ele>1044</ele>
        <time>2021-08-24T08:42:23Z</time>
      </trkpt>
      <trkpt lat="45.24419" lon="2.93512">
        <ele>1044.2</ele>
        <time>2021-08-24T08:42:25Z</time>
      </trkpt>
      <trkpt lat="45.24423" lon="2.93509">
        <ele>1044.4</ele>
        <time>2021-08-24T08:42:27Z</time>
      </trkpt>
      <trkpt lat="45.24426" lon="2.93508">
        <ele>1044.7</ele>
        <time>2021-08-24T08:42:29Z</time>
      </trkpt>
      <trkpt lat="45.24429" lon="2.93506">
        <ele>1044.9</ele>
        <time>2021-08-24T08:42:31Z</time>
      </trkpt>
      <trkpt lat="45.24432" lon="2.93504">
        <ele>1045</ele>
        <time>2021-08-24T08:42:33Z</time>
      </trkpt>
      <trkpt lat="45.24436" lon="2.93502">
        <ele>1045.2</ele>
        <time>2021-08-24T08:42:35Z</time>
      </trkpt>
      <trkpt lat="45.24439" lon="2.935">
        <ele>1045.4</ele>
        <time>2021-08-24T08:42:37Z</time>
      </trkpt>
      <trkpt lat="45.24443" lon="2.93498">
        <ele>1045.7</ele>
        <time>2021-08-24T08:42:39Z</time>
      </trkpt>
      <trkpt lat="45.24446" lon="2.93497">
        <ele>1045.9</ele>
        <time>2021-08-24T08:42:41Z</time>
      </trkpt>
      <trkpt lat="45.24449" lon="2.93495">
        <ele>1046.1</ele>
        <time>2021-08-24T08:42:43Z</time>
      </trkpt>
      <trkpt lat="45.24453" lon="2.93495">
        <ele>1046.5</ele>
        <time>2021-08-24T08:42:45Z</time>
      </trkpt>
      <trkpt lat="45.24456" lon="2.93493">
        <ele>1046.7</ele>
        <time>2021-08-24T08:42:47Z</time>
      </trkpt>
      <trkpt lat="45.2446" lon="2.93492">
        <ele>1047</ele>
        <time>2021-08-24T08:42:49Z</time>
      </trkpt>
      <trkpt lat="45.24464" lon="2.93491">
        <ele>1047.3</ele>
        <time>2021-08-24T08:42:51Z</time>
      </trkpt>
      <trkpt lat="45.24467" lon="2.9349">
        <ele>1047.6</ele>
        <time>2021-08-24T08:42:53Z</time>
      </trkpt>
      <trkpt lat="45.24471" lon="2.93489">
        <ele>1047.9</ele>
        <time>2021-08-24T08:42:55Z</time>
      </trkpt>
      <trkpt lat="45.24475" lon="2.93488">
        <ele>1048.2</ele>
        <time>2021-08-24T08:42:57Z</time>
      </trkpt>
      <trkpt lat="45.24478" lon="2.93487">
        <ele>1048.5</ele>
        <time>2021-08-24T08:42:59Z</time>
      </trkpt>
      <trkpt lat="45.24482" lon="2.93486">
        <ele>1048.9</ele>
        <time>2021-08-24T08:43:01Z</time>
      </trkpt>
      <trkpt lat="45.24485" lon="2.93486">
        <ele>1049.2</ele>
        <time>2021-08-24T08:43:03Z</time>
      </trkpt>
      <trkpt lat="45.24489" lon="2.93486">
        <ele>1049.6</ele>
        <time>2021-08-24T08:43:05Z</time>
      </trkpt>
      <trkpt lat="45.24492" lon="2.93485">
        <ele>1049.9</ele>
        <time>2021-08-24T08:43:07Z</time>
      </trkpt>
      <trkpt lat="45.24496" lon="2.93485">
        <ele>1050.3</ele>
        <time>2021-08-24T08:43:09Z</time>
      </trkpt>
      <trkpt lat="45.24499" lon="2.93485">
        <ele>1050.6</ele>
        <time>2021-08-24T08:43:11Z</time>
      </trkpt>
      <trkpt lat="45.24503" lon="2.93484">
        <ele>1050.9</ele>
        <time>2021-08-24T08:43:13Z</time>
      </trkpt>
      <trkpt lat="45.24506" lon="2.93485">
        <ele>1051.1</ele>
        <time>2021-08-24T08:43:15Z</time>
      </trkpt>
      <trkpt lat="45.2451" lon="2.93485">
        <ele>1051.5</ele>
        <time>2021-08-24T08:43:17Z</time>
      </trkpt>
      <trkpt lat="45.24514" lon="2.93485">
        <ele>1051.7</ele>
        <time>2021-08-24T08:43:19Z</time>
      </trkpt>
      <trkpt lat="45.24517" lon="2.93485">
        <ele>1052</ele>
        <time>2021-08-24T08:43:21Z</time>
      </trkpt>
      <trkpt lat="45.24521" lon="2.93486">
        <ele>1052.3</ele>
        <time>2021-08-24T08:43:23Z</time>
      </trkpt>
      <trkpt lat="45.24524" lon="2.93486">
        <ele>1052.5</ele>
        <time>2021-08-24T08:43:25Z</time>
      </trkpt>
      <trkpt lat="45.24527" lon="2.93487">
        <ele>1052.8</ele>
        <time>2021-08-24T08:43:27Z</time>
      </trkpt>
      <trkpt lat="45.24531" lon="2.93487">
        <ele>1053.1</ele>
        <time>2021-08-24T08:43:29Z</time>
      </trkpt>
      <trkpt lat="45.24534" lon="2.93488">
        <ele>1053.4</ele>
        <time>2021-08-24T08:43:31Z</time>
      </trkpt>
      <trkpt lat="45.24538" lon="2.93488">
        <ele>1053.6</ele>
        <time>2021-08-24T08:43:33Z</time>
      </trkpt>
      <trkpt lat="45.24541" lon="2.93489">
        <ele>1053.9</ele>
        <time>2021-08-24T08:43:35Z</time>
      </trkpt>
      <trkpt lat="45.24544" lon="2.93489">
        <ele>1054.2</ele>
        <time>2021-08-24T08:43:37Z</time>
      </trkpt>
      <trkpt lat="45.24547" lon="2.93489">
        <ele>1054.4</ele>
        <time>2021-08-24T08:43:39Z</time>
      </trkpt>
      <trkpt lat="45.24551" lon="2.93489">
        <ele>1054.7</ele>
        <time>2021-08-24T08:43:41Z</time>
      </trkpt>
      <trkpt lat="45.24554" lon="2.9349">
        <ele>1055</ele>
        <time>2021-08-24T08:43:43Z</time>
      </trkpt>
      <trkpt lat="45.24557" lon="2.9349">
        <ele>1055.2</ele>
        <time>2021-08-24T08:43:45Z</time>
      </trkpt>
      <trkpt lat="45.24561" lon="2.93491">
        <ele>1055.5</ele>
        <time>2021-08-24T08:43:47Z</time>
      </trkpt>
      <trkpt lat="45.24564" lon="2.93491">
        <ele>1055.8</ele>
        <time>2021-08-24T08:43:49Z</time>
      </trkpt>
      <trkpt lat="45.24567" lon="2.93492">
        <ele>1056.1</ele>
        <time>2021-08-24T08:43:51Z</time>
      </trkpt>
      <trkpt lat="45.24571" lon="2.93492">
        <ele>1056.4</ele>
        <time>2021-08-24T08:43:53Z</time>
      </trkpt>
      <trkpt lat="45.24574" lon="2.93492">
        <ele>1056.6</ele>
        <time>2021-08-24T08:43:55Z</time>
      </trkpt>
      <trkpt lat="45.24577" lon="2.93493">
        <ele>1056.9</ele>
        <time>2021-08-24T08:43:57Z</time>
      </trkpt>
      <trkpt lat="45.24581" lon="2.93494">
        <ele>1057.2</ele>
        <time>2021-08-24T08:43:59Z</time>
      </trkpt>
      <trkpt lat="45.24585" lon="2.93494">
        <ele>1057.6</ele>
        <time>2021-08-24T08:44:01Z</time>
      </trkpt>
      <trkpt lat="45.24588" lon="2.93495">
        <ele>1057.9</ele>
        <time>2021-08-24T08:44:03Z</time>
      </trkpt>
      <trkpt lat="45.24592" lon="2.93496">
        <ele>1058.3</ele>
        <time>2021-08-24T08:44:05Z</time>
      </trkpt>
      <trkpt lat="45.24595" lon="2.93496">
        <ele>1058.6</ele>
        <time>2021-08-24T08:44:07Z</time>
      </trkpt>
      <trkpt lat="45.24599" lon="2.93496">
        <ele>1058.9</ele>
        <time>2021-08-24T08:44:09Z</time>
      </trkpt>
      <trkpt lat="45.24602" lon="2.93497">
        <ele>1059.3</ele>
        <time>2021-08-24T08:44:11Z</time>
      </trkpt>
      <trkpt lat="45.24606" lon="2.93498">
        <ele>1059.7</ele>
        <time>2021-08-24T08:44:13Z</time>
      </trkpt>
      <trkpt lat="45.2461" lon="2.93498">
        <ele>1060</ele>
        <time>2021-08-24T08:44:15Z</time>
      </trkpt>
      <trkpt lat="45.24613" lon="2.93498">
        <ele>1060.2</ele>
        <time>2021-08-24T08:44:17Z</time>
      </trkpt>
      <trkpt lat="45.24616" lon="2.93499">
        <ele>1060.6</ele>
        <time>2021-08-24T08:44:19Z</time>
      </trkpt>
      <trkpt lat="45.2462" lon="2.93499">
        <ele>1060.9</ele>
        <time>2021-08-24T08:44:21Z</time>
      </trkpt>
      <trkpt lat="45.24623" lon="2.93499">
        <ele>1061.3</ele>
        <time>2021-08-24T08:44:23Z</time>
      </trkpt>
      <trkpt lat="45.24627" lon="2.935">
        <ele>1061.6</ele>
        <time>2021-08-24T08:44:25Z</time>
      </trkpt>
      <trkpt lat="45.2463" lon="2.935">
        <ele>1062</ele>
        <time>2021-08-24T08:44:27Z</time>
      </trkpt>
      <trkpt lat="45.24634" lon="2.93501">
        <ele>1062.3</ele>
        <time>2021-08-24T08:44:29Z</time>
      </trkpt>
      <trkpt lat="45.24637" lon="2.93501">
        <ele>1062.6</ele>
        <time>2021-08-24T08:44:31Z</time>
      </trkpt>
      <trkpt lat="45.24641" lon="2.93502">
        <ele>1063</ele>
        <time>2021-08-24T08:44:33Z</time>
      </trkpt>
      <trkpt lat="45.24645" lon="2.93502">
        <ele>1063.3</ele>
        <time>2021-08-24T08:44:35Z</time>
      </trkpt>
      <trkpt lat="45.24648" lon="2.93503">
        <ele>1063.6</ele>
        <time>2021-08-24T08:44:37Z</time>
      </trkpt>
      <trkpt lat="45.24651" lon="2.93503">
        <ele>1063.9</ele>
        <time>2021-08-24T08:44:39Z</time>
      </trkpt>
      <trkpt lat="45.24655" lon="2.93504">
        <ele>1064.3</ele>
        <time>2021-08-24T08:44:41Z</time>
      </trkpt>
      <trkpt lat="45.24659" lon="2.93504">
        <ele>1064.7</ele>
        <time>2021-08-24T08:44:43Z</time>
      </trkpt>
      <trkpt lat="45.24662" lon="2.93504">
        <ele>1065</ele>
        <time>2021-08-24T08:44:45Z</time>
      </trkpt>
      <trkpt lat="45.24666" lon="2.93504">
        <ele>1065.3</ele>
        <time>2021-08-24T08:44:47Z</time>
      </trkpt>
      <trkpt lat="45.24669" lon="2.93505">
        <ele>1065.6</ele>
        <time>2021-08-24T08:44:49Z</time>
      </trkpt>
      <trkpt lat="45.24673" lon="2.93506">
        <ele>1065.9</ele>
        <time>2021-08-24T08:44:51Z</time>
      </trkpt>
      <trkpt lat="45.24676" lon="2.93506">
        <ele>1066</ele>
        <time>2021-08-24T08:44:53Z</time>
      </trkpt>
      <trkpt lat="45.24679" lon="2.93506">
        <ele>1066.3</ele>
        <time>2021-08-24T08:44:55Z</time>
      </trkpt>
      <trkpt lat="45.24683" lon="2.93506">
        <ele>1066.5</ele>
        <time>2021-08-24T08:44:57Z</time>
      </trkpt>
      <trkpt lat="45.24686" lon="2.93507">
        <ele>1066.7</ele>
        <time>2021-08-24T08:44:59Z</time>
      </trkpt>
      <trkpt lat="45.2469" lon="2.93506">
        <ele>1066.9</ele>
        <time>2021-08-24T08:45:01Z</time>
      </trkpt>
      <trkpt lat="45.24693" lon="2.93507">
        <ele>1067.2</ele>
        <time>2021-08-24T08:45:03Z</time>
      </trkpt>
      <trkpt lat="45.24696" lon="2.93507">
        <ele>1067.4</ele>
        <time>2021-08-24T08:45:05Z</time>
      </trkpt>
      <trkpt lat="45.247" lon="2.93508">
        <ele>1067.6</ele>
        <time>2021-08-24T08:45:07Z</time>
      </trkpt>
      <trkpt lat="45.24703" lon="2.93508">
        <ele>1067.9</ele>
        <time>2021-08-24T08:45:09Z</time>
      </trkpt>
      <trkpt lat="45.24707" lon="2.93509">
        <ele>1068.1</ele>
        <time>2021-08-24T08:45:11Z</time>
      </trkpt>
      <trkpt lat="45.2471" lon="2.93509">
        <ele>1068.4</ele>
        <time>2021-08-24T08:45:13Z</time>
      </trkpt>
      <trkpt lat="45.24714" lon="2.9351">
        <ele>1068.6</ele>
        <time>2021-08-24T08:45:15Z</time>
      </trkpt>
      <trkpt lat="45.24717" lon="2.9351">
        <ele>1068.9</ele>
        <time>2021-08-24T08:45:17Z</time>
      </trkpt>
      <trkpt lat="45.24721" lon="2.93511">
        <ele>1069.2</ele>
        <time>2021-08-24T08:45:19Z</time>
      </trkpt>
      <trkpt lat="45.24725" lon="2.93511">
        <ele>1069.4</ele>
        <time>2021-08-24T08:45:21Z</time>
      </trkpt>
      <trkpt lat="45.24728" lon="2.93512">
        <ele>1069.6</ele>
        <time>2021-08-24T08:45:23Z</time>
      </trkpt>
      <trkpt lat="45.24731" lon="2.93512">
        <ele>1069.9</ele>
        <time>2021-08-24T08:45:25Z</time>
      </trkpt>
      <trkpt lat="45.24735" lon="2.93514">
        <ele>1070.2</ele>
        <time>2021-08-24T08:45:27Z</time>
      </trkpt>
      <trkpt lat="45.24738" lon="2.93514">
        <ele>1070.4</ele>
        <time>2021-08-24T08:45:29Z</time>
      </trkpt>
      <trkpt lat="45.24741" lon="2.93514">
        <ele>1070.7</ele>
        <time>2021-08-24T08:45:31Z</time>
      </trkpt>
      <trkpt lat="45.24745" lon="2.93515">
        <ele>1070.9</ele>
        <time>2021-08-24T08:45:33Z</time>
      </trkpt>
      <trkpt lat="45.24748" lon="2.93515">
        <ele>1071.1</ele>
        <time>2021-08-24T08:45:35Z</time>
      </trkpt>
      <trkpt lat="45.24751" lon="2.93515">
        <ele>1071.4</ele>
        <time>2021-08-24T08:45:37Z</time>
      </trkpt>
      <trkpt lat="45.24755" lon="2.93514">
        <ele>1071.8</ele>
        <time>2021-08-24T08:45:39Z</time>
      </trkpt>
      <trkpt lat="45.24758" lon="2.93515">
        <ele>1072.3</ele>
        <time>2021-08-24T08:45:41Z</time>
      </trkpt>
      <trkpt lat="45.24762" lon="2.93515">
        <ele>1072.7</ele>
        <time>2021-08-24T08:45:43Z</time>
      </trkpt>
      <trkpt lat="45.24765" lon="2.93514">
        <ele>1073.2</ele>
        <time>2021-08-24T08:45:45Z</time>
      </trkpt>
      <trkpt lat="45.24769" lon="2.93513">
        <ele>1073.5</ele>
        <time>2021-08-24T08:45:47Z</time>
      </trkpt>
      <trkpt lat="45.24772" lon="2.93512">
        <ele>1073.9</ele>
        <time>2021-08-24T08:45:49Z</time>
      </trkpt>
      <trkpt lat="45.24776" lon="2.93511">
        <ele>1074.2</ele>
        <time>2021-08-24T08:45:51Z</time>
      </trkpt>
      <trkpt lat="45.2478" lon="2.9351">
        <ele>1074.6</ele>
        <time>2021-08-24T08:45:53Z</time>
      </trkpt>
      <trkpt lat="45.24783" lon="2.93508">
        <ele>1074.8</ele>
        <time>2021-08-24T08:45:55Z</time>
      </trkpt>
      <trkpt lat="45.24786" lon="2.93507">
        <ele>1075.1</ele>
        <time>2021-08-24T08:45:57Z</time>
      </trkpt>
      <trkpt lat="45.2479" lon="2.93506">
        <ele>1075.4</ele>
        <time>2021-08-24T08:45:59Z</time>
      </trkpt>
      <trkpt lat="45.24794" lon="2.93504">
        <ele>1075.7</ele>
        <time>2021-08-24T08:46:01Z</time>
      </trkpt>
      <trkpt lat="45.24797" lon="2.93502">
        <ele>1076</ele>
        <time>2021-08-24T08:46:03Z</time>
      </trkpt>
      <trkpt lat="45.24801" lon="2.93501">
        <ele>1076.2</ele>
        <time>2021-08-24T08:46:05Z</time>
      </trkpt>
      <trkpt lat="45.24804" lon="2.935">
        <ele>1076.5</ele>
        <time>2021-08-24T08:46:07Z</time>
      </trkpt>
      <trkpt lat="45.24807" lon="2.93498">
        <ele>1076.7</ele>
        <time>2021-08-24T08:46:09Z</time>
      </trkpt>
      <trkpt lat="45.24811" lon="2.93497">
        <ele>1077</ele>
        <time>2021-08-24T08:46:11Z</time>
      </trkpt>
      <trkpt lat="45.24814" lon="2.93495">
        <ele>1077.1</ele>
        <time>2021-08-24T08:46:13Z</time>
      </trkpt>
      <trkpt lat="45.24818" lon="2.93493">
        <ele>1077.4</ele>
        <time>2021-08-24T08:46:15Z</time>
      </trkpt>
      <trkpt lat="45.24821" lon="2.93491">
        <ele>1077.5</ele>
        <time>2021-08-24T08:46:17Z</time>
      </trkpt>
      <trkpt lat="45.24824" lon="2.9349">
        <ele>1077.8</ele>
        <time>2021-08-24T08:46:19Z</time>
      </trkpt>
      <trkpt lat="45.24828" lon="2.93489">
        <ele>1078</ele>
        <time>2021-08-24T08:46:21Z</time>
      </trkpt>
      <trkpt lat="45.24831" lon="2.93488">
        <ele>1078.2</ele>
        <time>2021-08-24T08:46:23Z</time>
      </trkpt>
      <trkpt lat="45.24834" lon="2.93486">
        <ele>1078.6</ele>
        <time>2021-08-24T08:46:25Z</time>
      </trkpt>
      <trkpt lat="45.24838" lon="2.93484">
        <ele>1079</ele>
        <time>2021-08-24T08:46:27Z</time>
      </trkpt>
      <trkpt lat="45.24842" lon="2.93483">
        <ele>1079.6</ele>
        <time>2021-08-24T08:46:29Z</time>
      </trkpt>
      <trkpt lat="45.24845" lon="2.93481">
        <ele>1080</ele>
        <time>2021-08-24T08:46:31Z</time>
      </trkpt>
      <trkpt lat="45.24848" lon="2.9348">
        <ele>1080.4</ele>
        <time>2021-08-24T08:46:33Z</time>
      </trkpt>
      <trkpt lat="45.24852" lon="2.93479">
        <ele>1080.9</ele>
        <time>2021-08-24T08:46:35Z</time>
      </trkpt>
      <trkpt lat="45.24855" lon="2.93477">
        <ele>1081.4</ele>
        <time>2021-08-24T08:46:37Z</time>
      </trkpt>
      <trkpt lat="45.24859" lon="2.93475">
        <ele>1081.7</ele>
        <time>2021-08-24T08:46:39Z</time>
      </trkpt>
      <trkpt lat="45.24862" lon="2.93474">
        <ele>1082.2</ele>
        <time>2021-08-24T08:46:41Z</time>
      </trkpt>
      <trkpt lat="45.24866" lon="2.93472">
        <ele>1082.5</ele>
        <time>2021-08-24T08:46:43Z</time>
      </trkpt>
      <trkpt lat="45.24869" lon="2.9347">
        <ele>1083</ele>
        <time>2021-08-24T08:46:45Z</time>
      </trkpt>
      <trkpt lat="45.24873" lon="2.93468">
        <ele>1083.3</ele>
        <time>2021-08-24T08:46:47Z</time>
      </trkpt>
      <trkpt lat="45.24876" lon="2.93467">
        <ele>1083.8</ele>
        <time>2021-08-24T08:46:49Z</time>
      </trkpt>
      <trkpt lat="45.24879" lon="2.93465">
        <ele>1084.1</ele>
        <time>2021-08-24T08:46:51Z</time>
      </trkpt>
      <trkpt lat="45.24883" lon="2.93463">
        <ele>1084.4</ele>
        <time>2021-08-24T08:46:53Z</time>
      </trkpt>
      <trkpt lat="45.24887" lon="2.93461">
        <ele>1084.7</ele>
        <time>2021-08-24T08:46:55Z</time>
      </trkpt>
      <trkpt lat="45.2489" lon="2.93459">
        <ele>1084.9</ele>
        <time>2021-08-24T08:46:57Z</time>
      </trkpt>
      <trkpt lat="45.24893" lon="2.93457">
        <ele>1085.2</ele>
        <time>2021-08-24T08:46:59Z</time>
      </trkpt>
      <trkpt lat="45.24896" lon="2.93455">
        <ele>1085.5</ele>
        <time>2021-08-24T08:47:01Z</time>
      </trkpt>
      <trkpt lat="45.249" lon="2.93453">
        <ele>1085.7</ele>
        <time>2021-08-24T08:47:03Z</time>
      </trkpt>
      <trkpt lat="45.24903" lon="2.93453">
        <ele>1086.2</ele>
        <time>2021-08-24T08:47:05Z</time>
      </trkpt>
      <trkpt lat="45.24907" lon="2.93451">
        <ele>1086.5</ele>
        <time>2021-08-24T08:47:07Z</time>
      </trkpt>
      <trkpt lat="45.2491" lon="2.9345">
        <ele>1086.8</ele>
        <time>2021-08-24T08:47:09Z</time>
      </trkpt>
      <trkpt lat="45.24914" lon="2.93448">
        <ele>1087.1</ele>
        <time>2021-08-24T08:47:11Z</time>
      </trkpt>
      <trkpt lat="45.24917" lon="2.93447">
        <ele>1087.5</ele>
        <time>2021-08-24T08:47:13Z</time>
      </trkpt>
      <trkpt lat="45.24921" lon="2.93445">
        <ele>1087.9</ele>
        <time>2021-08-24T08:47:15Z</time>
      </trkpt>
      <trkpt lat="45.24924" lon="2.93443">
        <ele>1088.3</ele>
        <time>2021-08-24T08:47:17Z</time>
      </trkpt>
      <trkpt lat="45.24927" lon="2.93442">
        <ele>1088.7</ele>
        <time>2021-08-24T08:47:19Z</time>
      </trkpt>
      <trkpt lat="45.2493" lon="2.9344">
        <ele>1089.1</ele>
        <time>2021-08-24T08:47:21Z</time>
      </trkpt>
      <trkpt lat="45.24932" lon="2.93437">
        <ele>1088.9</ele>
        <time>2021-08-24T08:47:23Z</time>
      </trkpt>
      <trkpt lat="45.24936" lon="2.93436">
        <ele>1089.5</ele>
        <time>2021-08-24T08:47:25Z</time>
      </trkpt>
      <trkpt lat="45.24939" lon="2.93436">
        <ele>1090.2</ele>
        <time>2021-08-24T08:47:27Z</time>
      </trkpt>
      <trkpt lat="45.24942" lon="2.93435">
        <ele>1090.6</ele>
        <time>2021-08-24T08:47:29Z</time>
      </trkpt>
      <trkpt lat="45.24946" lon="2.93434">
        <ele>1091.1</ele>
        <time>2021-08-24T08:47:31Z</time>
      </trkpt>
      <trkpt lat="45.24949" lon="2.93432">
        <ele>1091.3</ele>
        <time>2021-08-24T08:47:33Z</time>
      </trkpt>
      <trkpt lat="45.24952" lon="2.93431">
        <ele>1091.7</ele>
        <time>2021-08-24T08:47:35Z</time>
      </trkpt>
      <trkpt lat="45.24955" lon="2.93429">
        <ele>1092</ele>
        <time>2021-08-24T08:47:37Z</time>
      </trkpt>
      <trkpt lat="45.24958" lon="2.93428">
        <ele>1092.4</ele>
        <time>2021-08-24T08:47:39Z</time>
      </trkpt>
      <trkpt lat="45.24961" lon="2.93426">
        <ele>1092.7</ele>
        <time>2021-08-24T08:47:41Z</time>
      </trkpt>
      <trkpt lat="45.24965" lon="2.93425">
        <ele>1093</ele>
        <time>2021-08-24T08:47:43Z</time>
      </trkpt>
      <trkpt lat="45.24968" lon="2.93423">
        <ele>1093.4</ele>
        <time>2021-08-24T08:47:45Z</time>
      </trkpt>
      <trkpt lat="45.24971" lon="2.93422">
        <ele>1093.6</ele>
        <time>2021-08-24T08:47:47Z</time>
      </trkpt>
      <trkpt lat="45.24974" lon="2.9342">
        <ele>1093.9</ele>
        <time>2021-08-24T08:47:49Z</time>
      </trkpt>
      <trkpt lat="45.24978" lon="2.93419">
        <ele>1094.3</ele>
        <time>2021-08-24T08:47:51Z</time>
      </trkpt>
      <trkpt lat="45.24981" lon="2.93417">
        <ele>1094.6</ele>
        <time>2021-08-24T08:47:53Z</time>
      </trkpt>
      <trkpt lat="45.24985" lon="2.93416">
        <ele>1095</ele>
        <time>2021-08-24T08:47:55Z</time>
      </trkpt>
      <trkpt lat="45.24988" lon="2.93414">
        <ele>1095.4</ele>
        <time>2021-08-24T08:47:57Z</time>
      </trkpt>
      <trkpt lat="45.24991" lon="2.93412">
        <ele>1095.7</ele>
        <time>2021-08-24T08:47:59Z</time>
      </trkpt>
      <trkpt lat="45.24995" lon="2.9341">
        <ele>1096</ele>
        <time>2021-08-24T08:48:01Z</time>
      </trkpt>
      <trkpt lat="45.24998" lon="2.93408">
        <ele>1096.2</ele>
        <time>2021-08-24T08:48:03Z</time>
      </trkpt>
      <trkpt lat="45.25002" lon="2.93406">
        <ele>1096.7</ele>
        <time>2021-08-24T08:48:05Z</time>
      </trkpt>
      <trkpt lat="45.25005" lon="2.93405">
        <ele>1097.3</ele>
        <time>2021-08-24T08:48:07Z</time>
      </trkpt>
      <trkpt lat="45.25009" lon="2.93403">
        <ele>1097.8</ele>
        <time>2021-08-24T08:48:09Z</time>
      </trkpt>
      <trkpt lat="45.25011" lon="2.934">
        <ele>1098</ele>
        <time>2021-08-24T08:48:11Z</time>
      </trkpt>
      <trkpt lat="45.25014" lon="2.93397">
        <ele>1098</ele>
        <time>2021-08-24T08:48:13Z</time>
      </trkpt>
      <trkpt lat="45.25018" lon="2.93396">
        <ele>1098.5</ele>
        <time>2021-08-24T08:48:15Z</time>
      </trkpt>
      <trkpt lat="45.25021" lon="2.93395">
        <ele>1099</ele>
        <time>2021-08-24T08:48:17Z</time>
      </trkpt>
      <trkpt lat="45.25024" lon="2.93392">
        <ele>1099.1</ele>
        <time>2021-08-24T08:48:19Z</time>
      </trkpt>
      <trkpt lat="45.25027" lon="2.93389">
        <ele>1099</ele>
        <time>2021-08-24T08:48:21Z</time>
      </trkpt>
      <trkpt lat="45.2503" lon="2.93386">
        <ele>1099.2</ele>
        <time>2021-08-24T08:48:23Z</time>
      </trkpt>
      <trkpt lat="45.25033" lon="2.93383">
        <ele>1099.3</ele>
        <time>2021-08-24T08:48:25Z</time>
      </trkpt>
      <trkpt lat="45.25035" lon="2.93381">
        <ele>1099.3</ele>
        <time>2021-08-24T08:48:27Z</time>
      </trkpt>
      <trkpt lat="45.25038" lon="2.93379">
        <ele>1099.4</ele>
        <time>2021-08-24T08:48:29Z</time>
      </trkpt>
      <trkpt lat="45.2504" lon="2.93376">
        <ele>1099.1</ele>
        <time>2021-08-24T08:48:31Z</time>
      </trkpt>
      <trkpt lat="45.25043" lon="2.93373">
        <ele>1099.1</ele>
        <time>2021-08-24T08:48:33Z</time>
      </trkpt>
      <trkpt lat="45.25046" lon="2.93372">
        <ele>1099.3</ele>
        <time>2021-08-24T08:48:35Z</time>
      </trkpt>
      <trkpt lat="45.25049" lon="2.9337">
        <ele>1099.5</ele>
        <time>2021-08-24T08:48:37Z</time>
      </trkpt>
      <trkpt lat="45.25052" lon="2.93369">
        <ele>1099.7</ele>
        <time>2021-08-24T08:48:39Z</time>
      </trkpt>
      <trkpt lat="45.25055" lon="2.93367">
        <ele>1099.9</ele>
        <time>2021-08-24T08:48:41Z</time>
      </trkpt>
      <trkpt lat="45.25059" lon="2.93365">
        <ele>1100.2</ele>
        <time>2021-08-24T08:48:43Z</time>
      </trkpt>
      <trkpt lat="45.25063" lon="2.93363">
        <ele>1100.2</ele>
        <time>2021-08-24T08:48:45Z</time>
      </trkpt>
      <trkpt lat="45.25066" lon="2.93362">
        <ele>1100.6</ele>
        <time>2021-08-24T08:48:47Z</time>
      </trkpt>
      <trkpt lat="45.2507" lon="2.9336">
        <ele>1100.8</ele>
        <time>2021-08-24T08:48:49Z</time>
      </trkpt>
      <trkpt lat="45.25073" lon="2.93358">
        <ele>1100.9</ele>
        <time>2021-08-24T08:48:51Z</time>
      </trkpt>
      <trkpt lat="45.25076" lon="2.93357">
        <ele>1101.2</ele>
        <time>2021-08-24T08:48:53Z</time>
      </trkpt>
      <trkpt lat="45.2508" lon="2.93356">
        <ele>1101.5</ele>
        <time>2021-08-24T08:48:55Z</time>
      </trkpt>
      <trkpt lat="45.25083" lon="2.93356">
        <ele>1101.8</ele>
        <time>2021-08-24T08:48:57Z</time>
      </trkpt>
      <trkpt lat="45.25086" lon="2.93354">
        <ele>1102.1</ele>
        <time>2021-08-24T08:48:59Z</time>
      </trkpt>
      <trkpt lat="45.2509" lon="2.93353">
        <ele>1102.4</ele>
        <time>2021-08-24T08:49:01Z</time>
      </trkpt>
      <trkpt lat="45.25093" lon="2.93352">
        <ele>1102.8</ele>
        <time>2021-08-24T08:49:03Z</time>
      </trkpt>
      <trkpt lat="45.25096" lon="2.93352">
        <ele>1103.4</ele>
        <time>2021-08-24T08:49:05Z</time>
      </trkpt>
      <trkpt lat="45.251" lon="2.93351">
        <ele>1103.7</ele>
        <time>2021-08-24T08:49:07Z</time>
      </trkpt>
      <trkpt lat="45.25104" lon="2.9335">
        <ele>1104.1</ele>
        <time>2021-08-24T08:49:09Z</time>
      </trkpt>
      <trkpt lat="45.25107" lon="2.93348">
        <ele>1104.5</ele>
        <time>2021-08-24T08:49:11Z</time>
      </trkpt>
      <trkpt lat="45.25111" lon="2.93347">
        <ele>1104.9</ele>
        <time>2021-08-24T08:49:13Z</time>
      </trkpt>
      <trkpt lat="45.25115" lon="2.93346">
        <ele>1105.4</ele>
        <time>2021-08-24T08:49:15Z</time>
      </trkpt>
      <trkpt lat="45.25118" lon="2.93345">
        <ele>1105.7</ele>
        <time>2021-08-24T08:49:17Z</time>
      </trkpt>
      <trkpt lat="45.25122" lon="2.93344">
        <ele>1106</ele>
        <time>2021-08-24T08:49:19Z</time>
      </trkpt>
      <trkpt lat="45.25125" lon="2.93343">
        <ele>1106.4</ele>
        <time>2021-08-24T08:49:21Z</time>
      </trkpt>
      <trkpt lat="45.25129" lon="2.93341">
        <ele>1106.7</ele>
        <time>2021-08-24T08:49:23Z</time>
      </trkpt>
      <trkpt lat="45.25132" lon="2.9334">
        <ele>1107.1</ele>
        <time>2021-08-24T08:49:25Z</time>
      </trkpt>
      <trkpt lat="45.25136" lon="2.93339">
        <ele>1107.6</ele>
        <time>2021-08-24T08:49:27Z</time>
      </trkpt>
      <trkpt lat="45.2514" lon="2.93338">
        <ele>1107.9</ele>
        <time>2021-08-24T08:49:29Z</time>
      </trkpt>
      <trkpt lat="45.25143" lon="2.93337">
        <ele>1108.4</ele>
        <time>2021-08-24T08:49:31Z</time>
      </trkpt>
      <trkpt lat="45.25147" lon="2.93336">
        <ele>1108.8</ele>
        <time>2021-08-24T08:49:33Z</time>
      </trkpt>
      <trkpt lat="45.25151" lon="2.93334">
        <ele>1109.2</ele>
        <time>2021-08-24T08:49:35Z</time>
      </trkpt>
      <trkpt lat="45.25154" lon="2.93333">
        <ele>1109.6</ele>
        <time>2021-08-24T08:49:37Z</time>
      </trkpt>
      <trkpt lat="45.25158" lon="2.93333">
        <ele>1110.2</ele>
        <time>2021-08-24T08:49:39Z</time>
      </trkpt>
      <trkpt lat="45.25161" lon="2.93331">
        <ele>1110.8</ele>
        <time>2021-08-24T08:49:41Z</time>
      </trkpt>
      <trkpt lat="45.25165" lon="2.9333">
        <ele>1111.3</ele>
        <time>2021-08-24T08:49:43Z</time>
      </trkpt>
      <trkpt lat="45.25168" lon="2.93329">
        <ele>1111.8</ele>
        <time>2021-08-24T08:49:45Z</time>
      </trkpt>
      <trkpt lat="45.25171" lon="2.93328">
        <ele>1112.2</ele>
        <time>2021-08-24T08:49:47Z</time>
      </trkpt>
      <trkpt lat="45.25175" lon="2.93327">
        <ele>1112.7</ele>
        <time>2021-08-24T08:49:49Z</time>
      </trkpt>
      <trkpt lat="45.25178" lon="2.93326">
        <ele>1113</ele>
        <time>2021-08-24T08:49:51Z</time>
      </trkpt>
      <trkpt lat="45.25181" lon="2.93325">
        <ele>1113.4</ele>
        <time>2021-08-24T08:49:53Z</time>
      </trkpt>
      <trkpt lat="45.25184" lon="2.93323">
        <ele>1113.7</ele>
        <time>2021-08-24T08:49:55Z</time>
      </trkpt>
      <trkpt lat="45.25188" lon="2.93321">
        <ele>1113.9</ele>
        <time>2021-08-24T08:49:57Z</time>
      </trkpt>
      <trkpt lat="45.25192" lon="2.93321">
        <ele>1114.5</ele>
        <time>2021-08-24T08:49:59Z</time>
      </trkpt>
      <trkpt lat="45.25195" lon="2.9332">
        <ele>1114.9</ele>
        <time>2021-08-24T08:50:01Z</time>
      </trkpt>
      <trkpt lat="45.25199" lon="2.93319">
        <ele>1115.3</ele>
        <time>2021-08-24T08:50:03Z</time>
      </trkpt>
      <trkpt lat="45.25202" lon="2.93317">
        <ele>1115.5</ele>
        <time>2021-08-24T08:50:05Z</time>
      </trkpt>
      <trkpt lat="45.25205" lon="2.93316">
        <ele>1115.9</ele>
        <time>2021-08-24T08:50:07Z</time>
      </trkpt>
      <trkpt lat="45.25209" lon="2.93314">
        <ele>1116.1</ele>
        <time>2021-08-24T08:50:09Z</time>
      </trkpt>
      <trkpt lat="45.25212" lon="2.93313">
        <ele>1116.5</ele>
        <time>2021-08-24T08:50:11Z</time>
      </trkpt>
      <trkpt lat="45.25216" lon="2.93312">
        <ele>1116.9</ele>
        <time>2021-08-24T08:50:13Z</time>
      </trkpt>
      <trkpt lat="45.2522" lon="2.93311">
        <ele>1117.2</ele>
        <time>2021-08-24T08:50:15Z</time>
      </trkpt>
      <trkpt lat="45.25223" lon="2.9331">
        <ele>1117.7</ele>
        <time>2021-08-24T08:50:17Z</time>
      </trkpt>
      <trkpt lat="45.25227" lon="2.93309">
        <ele>1118</ele>
        <time>2021-08-24T08:50:19Z</time>
      </trkpt>
      <trkpt lat="45.25231" lon="2.93308">
        <ele>1118.3</ele>
        <time>2021-08-24T08:50:21Z</time>
      </trkpt>
      <trkpt lat="45.25235" lon="2.93306">
        <ele>1118.7</ele>
        <time>2021-08-24T08:50:23Z</time>
      </trkpt>
      <trkpt lat="45.25238" lon="2.93305">
        <ele>1119</ele>
        <time>2021-08-24T08:50:25Z</time>
      </trkpt>
      <trkpt lat="45.25242" lon="2.93304">
        <ele>1119.4</ele>
        <time>2021-08-24T08:50:27Z</time>
      </trkpt>
      <trkpt lat="45.25246" lon="2.93303">
        <ele>1119.7</ele>
        <time>2021-08-24T08:50:29Z</time>
      </trkpt>
      <trkpt lat="45.2525" lon="2.93301">
        <ele>1119.9</ele>
        <time>2021-08-24T08:50:31Z</time>
      </trkpt>
      <trkpt lat="45.25254" lon="2.933">
        <ele>1120.5</ele>
        <time>2021-08-24T08:50:33Z</time>
      </trkpt>
      <trkpt lat="45.25258" lon="2.93299">
        <ele>1121</ele>
        <time>2021-08-24T08:50:35Z</time>
      </trkpt>
      <trkpt lat="45.25262" lon="2.93297">
        <ele>1121.6</ele>
        <time>2021-08-24T08:50:37Z</time>
      </trkpt>
      <trkpt lat="45.25265" lon="2.93296">
        <ele>1122</ele>
        <time>2021-08-24T08:50:39Z</time>
      </trkpt>
      <trkpt lat="45.25269" lon="2.93295">
        <ele>1122.5</ele>
        <time>2021-08-24T08:50:41Z</time>
      </trkpt>
      <trkpt lat="45.25273" lon="2.93294">
        <ele>1123.1</ele>
        <time>2021-08-24T08:50:43Z</time>
      </trkpt>
      <trkpt lat="45.25277" lon="2.93293">
        <ele>1123.6</ele>
        <time>2021-08-24T08:50:45Z</time>
      </trkpt>
      <trkpt lat="45.25281" lon="2.93291">
        <ele>1123.9</ele>
        <time>2021-08-24T08:50:47Z</time>
      </trkpt>
      <trkpt lat="45.25285" lon="2.9329">
        <ele>1124.4</ele>
        <time>2021-08-24T08:50:49Z</time>
      </trkpt>
      <trkpt lat="45.25288" lon="2.93288">
        <ele>1124.7</ele>
        <time>2021-08-24T08:50:51Z</time>
      </trkpt>
      <trkpt lat="45.25292" lon="2.93286">
        <ele>1125</ele>
        <time>2021-08-24T08:50:53Z</time>
      </trkpt>
      <trkpt lat="45.25296" lon="2.93284">
        <ele>1125.4</ele>
        <time>2021-08-24T08:50:55Z</time>
      </trkpt>
      <trkpt lat="45.253" lon="2.93282">
        <ele>1125.7</ele>
        <time>2021-08-24T08:50:57Z</time>
      </trkpt>
      <trkpt lat="45.25304" lon="2.9328">
        <ele>1126</ele>
        <time>2021-08-24T08:50:59Z</time>
      </trkpt>
      <trkpt lat="45.25308" lon="2.93278">
        <ele>1126.1</ele>
        <time>2021-08-24T08:51:01Z</time>
      </trkpt>
      <trkpt lat="45.25312" lon="2.93276">
        <ele>1126.4</ele>
        <time>2021-08-24T08:51:03Z</time>
      </trkpt>
      <trkpt lat="45.25316" lon="2.93274">
        <ele>1126.6</ele>
        <time>2021-08-24T08:51:05Z</time>
      </trkpt>
      <trkpt lat="45.25319" lon="2.93272">
        <ele>1126.6</ele>
        <time>2021-08-24T08:51:07Z</time>
      </trkpt>
      <trkpt lat="45.25323" lon="2.93268">
        <ele>1126.4</ele>
        <time>2021-08-24T08:51:09Z</time>
      </trkpt>
      <trkpt lat="45.25327" lon="2.93266">
        <ele>1126.5</ele>
        <time>2021-08-24T08:51:11Z</time>
      </trkpt>
      <trkpt lat="45.2533" lon="2.93262">
        <ele>1126.2</ele>
        <time>2021-08-24T08:51:13Z</time>
      </trkpt>
      <trkpt lat="45.25333" lon="2.93258">
        <ele>1125.9</ele>
        <time>2021-08-24T08:51:15Z</time>
      </trkpt>
      <trkpt lat="45.25337" lon="2.93254">
        <ele>1125.9</ele>
        <time>2021-08-24T08:51:17Z</time>
      </trkpt>
      <trkpt lat="45.2534" lon="2.9325">
        <ele>1125.8</ele>
        <time>2021-08-24T08:51:19Z</time>
      </trkpt>
      <trkpt lat="45.25344" lon="2.93245">
        <ele>1126.7</ele>
        <time>2021-08-24T08:51:21Z</time>
      </trkpt>
      <trkpt lat="45.25348" lon="2.9324">
        <ele>1127.5</ele>
        <time>2021-08-24T08:51:23Z</time>
      </trkpt>
      <trkpt lat="45.25352" lon="2.93235">
        <ele>1128.2</ele>
        <time>2021-08-24T08:51:25Z</time>
      </trkpt>
      <trkpt lat="45.25355" lon="2.93231">
        <ele>1128.9</ele>
        <time>2021-08-24T08:51:27Z</time>
      </trkpt>
      <trkpt lat="45.25359" lon="2.93227">
        <ele>1129.4</ele>
        <time>2021-08-24T08:51:29Z</time>
      </trkpt>
      <trkpt lat="45.25362" lon="2.93222">
        <ele>1129.8</ele>
        <time>2021-08-24T08:51:31Z</time>
      </trkpt>
      <trkpt lat="45.25366" lon="2.93217">
        <ele>1130.2</ele>
        <time>2021-08-24T08:51:33Z</time>
      </trkpt>
      <trkpt lat="45.25369" lon="2.93213">
        <ele>1130.5</ele>
        <time>2021-08-24T08:51:35Z</time>
      </trkpt>
      <trkpt lat="45.25372" lon="2.93208">
        <ele>1130.8</ele>
        <time>2021-08-24T08:51:37Z</time>
      </trkpt>
      <trkpt lat="45.25376" lon="2.93204">
        <ele>1131</ele>
        <time>2021-08-24T08:51:39Z</time>
      </trkpt>
      <trkpt lat="45.25379" lon="2.93199">
        <ele>1131.1</ele>
        <time>2021-08-24T08:51:41Z</time>
      </trkpt>
      <trkpt lat="45.25383" lon="2.93195">
        <ele>1131.2</ele>
        <time>2021-08-24T08:51:43Z</time>
      </trkpt>
      <trkpt lat="45.25386" lon="2.93191">
        <ele>1131.3</ele>
        <time>2021-08-24T08:51:45Z</time>
      </trkpt>
      <trkpt lat="45.2539" lon="2.93186">
        <ele>1131.3</ele>
        <time>2021-08-24T08:51:47Z</time>
      </trkpt>
      <trkpt lat="45.25394" lon="2.93182">
        <ele>1131.3</ele>
        <time>2021-08-24T08:51:49Z</time>
      </trkpt>
      <trkpt lat="45.25398" lon="2.93179">
        <ele>1131.2</ele>
        <time>2021-08-24T08:51:51Z</time>
      </trkpt>
      <trkpt lat="45.25402" lon="2.93175">
        <ele>1131</ele>
        <time>2021-08-24T08:51:53Z</time>
      </trkpt>
      <trkpt lat="45.25406" lon="2.93171">
        <ele>1130.9</ele>
        <time>2021-08-24T08:51:55Z</time>
      </trkpt>
      <trkpt lat="45.2541" lon="2.93168">
        <ele>1130.7</ele>
        <time>2021-08-24T08:51:57Z</time>
      </trkpt>
      <trkpt lat="45.25415" lon="2.93164">
        <ele>1130.9</ele>
        <time>2021-08-24T08:51:59Z</time>
      </trkpt>
      <trkpt lat="45.25419" lon="2.9316">
        <ele>1131.4</ele>
        <time>2021-08-24T08:52:01Z</time>
      </trkpt>
      <trkpt lat="45.25423" lon="2.93157">
        <ele>1132.2</ele>
        <time>2021-08-24T08:52:03Z</time>
      </trkpt>
      <trkpt lat="45.25428" lon="2.93154">
        <ele>1132.9</ele>
        <time>2021-08-24T08:52:05Z</time>
      </trkpt>
      <trkpt lat="45.25432" lon="2.93151">
        <ele>1133.6</ele>
        <time>2021-08-24T08:52:07Z</time>
      </trkpt>
      <trkpt lat="45.25436" lon="2.93148">
        <ele>1134.2</ele>
        <time>2021-08-24T08:52:09Z</time>
      </trkpt>
      <trkpt lat="45.25441" lon="2.93144">
        <ele>1134.6</ele>
        <time>2021-08-24T08:52:11Z</time>
      </trkpt>
      <trkpt lat="45.25445" lon="2.93141">
        <ele>1135.1</ele>
        <time>2021-08-24T08:52:13Z</time>
      </trkpt>
      <trkpt lat="45.2545" lon="2.93138">
        <ele>1135.6</ele>
        <time>2021-08-24T08:52:15Z</time>
      </trkpt>
      <trkpt lat="45.25455" lon="2.93134">
        <ele>1136</ele>
        <time>2021-08-24T08:52:17Z</time>
      </trkpt>
      <trkpt lat="45.2546" lon="2.93131">
        <ele>1136.3</ele>
        <time>2021-08-24T08:52:19Z</time>
      </trkpt>
      <trkpt lat="45.25465" lon="2.93127">
        <ele>1136.4</ele>
        <time>2021-08-24T08:52:21Z</time>
      </trkpt>
      <trkpt lat="45.25469" lon="2.93124">
        <ele>1136.6</ele>
        <time>2021-08-24T08:52:23Z</time>
      </trkpt>
      <trkpt lat="45.25474" lon="2.9312">
        <ele>1136.6</ele>
        <time>2021-08-24T08:52:25Z</time>
      </trkpt>
      <trkpt lat="45.25479" lon="2.93117">
        <ele>1136.6</ele>
        <time>2021-08-24T08:52:27Z</time>
      </trkpt>
      <trkpt lat="45.25483" lon="2.93114">
        <ele>1136.5</ele>
        <time>2021-08-24T08:52:29Z</time>
      </trkpt>
      <trkpt lat="45.25488" lon="2.93111">
        <ele>1136.4</ele>
        <time>2021-08-24T08:52:31Z</time>
      </trkpt>
      <trkpt lat="45.25492" lon="2.93108">
        <ele>1136.2</ele>
        <time>2021-08-24T08:52:33Z</time>
      </trkpt>
      <trkpt lat="45.25497" lon="2.93104">
        <ele>1135.8</ele>
        <time>2021-08-24T08:52:35Z</time>
      </trkpt>
      <trkpt lat="45.25501" lon="2.93101">
        <ele>1135.5</ele>
        <time>2021-08-24T08:52:37Z</time>
      </trkpt>
      <trkpt lat="45.25506" lon="2.93098">
        <ele>1135.6</ele>
        <time>2021-08-24T08:52:39Z</time>
      </trkpt>
      <trkpt lat="45.2551" lon="2.93095">
        <ele>1135.6</ele>
        <time>2021-08-24T08:52:41Z</time>
      </trkpt>
      <trkpt lat="45.25514" lon="2.93091">
        <ele>1135.5</ele>
        <time>2021-08-24T08:52:43Z</time>
      </trkpt>
      <trkpt lat="45.25519" lon="2.93089">
        <ele>1135.6</ele>
        <time>2021-08-24T08:52:45Z</time>
      </trkpt>
      <trkpt lat="45.25523" lon="2.93086">
        <ele>1135.6</ele>
        <time>2021-08-24T08:52:47Z</time>
      </trkpt>
      <trkpt lat="45.25529" lon="2.93083">
        <ele>1135.8</ele>
        <time>2021-08-24T08:52:49Z</time>
      </trkpt>
      <trkpt lat="45.25533" lon="2.9308">
        <ele>1136.2</ele>
        <time>2021-08-24T08:52:51Z</time>
      </trkpt>
      <trkpt lat="45.25538" lon="2.93077">
        <ele>1136.7</ele>
        <time>2021-08-24T08:52:53Z</time>
      </trkpt>
      <trkpt lat="45.25543" lon="2.93074">
        <ele>1137.1</ele>
        <time>2021-08-24T08:52:55Z</time>
      </trkpt>
      <trkpt lat="45.25547" lon="2.93072">
        <ele>1137.5</ele>
        <time>2021-08-24T08:52:57Z</time>
      </trkpt>
      <trkpt lat="45.25552" lon="2.93069">
        <ele>1137.9</ele>
        <time>2021-08-24T08:52:59Z</time>
      </trkpt>
      <trkpt lat="45.25557" lon="2.93067">
        <ele>1138.3</ele>
        <time>2021-08-24T08:53:01Z</time>
      </trkpt>
      <trkpt lat="45.25561" lon="2.93064">
        <ele>1138.6</ele>
        <time>2021-08-24T08:53:03Z</time>
      </trkpt>
      <trkpt lat="45.25566" lon="2.93062">
        <ele>1138.9</ele>
        <time>2021-08-24T08:53:05Z</time>
      </trkpt>
      <trkpt lat="45.25571" lon="2.93059">
        <ele>1139.1</ele>
        <time>2021-08-24T08:53:07Z</time>
      </trkpt>
      <trkpt lat="45.25576" lon="2.93056">
        <ele>1139.3</ele>
        <time>2021-08-24T08:53:09Z</time>
      </trkpt>
      <trkpt lat="45.2558" lon="2.93054">
        <ele>1139.6</ele>
        <time>2021-08-24T08:53:11Z</time>
      </trkpt>
      <trkpt lat="45.25585" lon="2.93051">
        <ele>1139.8</ele>
        <time>2021-08-24T08:53:13Z</time>
      </trkpt>
      <trkpt lat="45.2559" lon="2.93049">
        <ele>1140.1</ele>
        <time>2021-08-24T08:53:15Z</time>
      </trkpt>
      <trkpt lat="45.25594" lon="2.93046">
        <ele>1140.5</ele>
        <time>2021-08-24T08:53:17Z</time>
      </trkpt>
      <trkpt lat="45.25599" lon="2.93043">
        <ele>1140.8</ele>
        <time>2021-08-24T08:53:19Z</time>
      </trkpt>
      <trkpt lat="45.25604" lon="2.9304">
        <ele>1141</ele>
        <time>2021-08-24T08:53:21Z</time>
      </trkpt>
      <trkpt lat="45.25608" lon="2.93037">
        <ele>1141.2</ele>
        <time>2021-08-24T08:53:23Z</time>
      </trkpt>
      <trkpt lat="45.25613" lon="2.93034">
        <ele>1141.4</ele>
        <time>2021-08-24T08:53:25Z</time>
      </trkpt>
      <trkpt lat="45.25617" lon="2.9303">
        <ele>1141.5</ele>
        <time>2021-08-24T08:53:27Z</time>
      </trkpt>
      <trkpt lat="45.25621" lon="2.93026">
        <ele>1141.5</ele>
        <time>2021-08-24T08:53:29Z</time>
      </trkpt>
      <trkpt lat="45.25625" lon="2.93022">
        <ele>1141.4</ele>
        <time>2021-08-24T08:53:31Z</time>
      </trkpt>
      <trkpt lat="45.25629" lon="2.93019">
        <ele>1141.5</ele>
        <time>2021-08-24T08:53:33Z</time>
      </trkpt>
      <trkpt lat="45.25632" lon="2.93015">
        <ele>1141.4</ele>
        <time>2021-08-24T08:53:35Z</time>
      </trkpt>
      <trkpt lat="45.25636" lon="2.93011">
        <ele>1141.2</ele>
        <time>2021-08-24T08:53:37Z</time>
      </trkpt>
      <trkpt lat="45.2564" lon="2.93008">
        <ele>1141.1</ele>
        <time>2021-08-24T08:53:39Z</time>
      </trkpt>
      <trkpt lat="45.25643" lon="2.93003">
        <ele>1140.9</ele>
        <time>2021-08-24T08:53:41Z</time>
      </trkpt>
      <trkpt lat="45.25646" lon="2.92999">
        <ele>1140.7</ele>
        <time>2021-08-24T08:53:43Z</time>
      </trkpt>
      <trkpt lat="45.2565" lon="2.92995">
        <ele>1140.9</ele>
        <time>2021-08-24T08:53:45Z</time>
      </trkpt>
      <trkpt lat="45.25653" lon="2.92991">
        <ele>1141</ele>
        <time>2021-08-24T08:53:47Z</time>
      </trkpt>
      <trkpt lat="45.25656" lon="2.92986">
        <ele>1141</ele>
        <time>2021-08-24T08:53:49Z</time>
      </trkpt>
      <trkpt lat="45.25659" lon="2.92983">
        <ele>1141.1</ele>
        <time>2021-08-24T08:53:51Z</time>
      </trkpt>
      <trkpt lat="45.25662" lon="2.92979">
        <ele>1141.1</ele>
        <time>2021-08-24T08:53:53Z</time>
      </trkpt>
      <trkpt lat="45.25666" lon="2.92975">
        <ele>1141.1</ele>
        <time>2021-08-24T08:53:55Z</time>
      </trkpt>
      <trkpt lat="45.25669" lon="2.92971">
        <ele>1141</ele>
        <time>2021-08-24T08:53:57Z</time>
      </trkpt>
      <trkpt lat="45.25672" lon="2.92968">
        <ele>1140.9</ele>
        <time>2021-08-24T08:53:59Z</time>
      </trkpt>
      <trkpt lat="45.25675" lon="2.92965">
        <ele>1140.8</ele>
        <time>2021-08-24T08:54:01Z</time>
      </trkpt>
      <trkpt lat="45.25679" lon="2.92961">
        <ele>1140.6</ele>
        <time>2021-08-24T08:54:03Z</time>
      </trkpt>
      <trkpt lat="45.25681" lon="2.92958">
        <ele>1140.4</ele>
        <time>2021-08-24T08:54:05Z</time>
      </trkpt>
      <trkpt lat="45.25683" lon="2.92954">
        <ele>1140.2</ele>
        <time>2021-08-24T08:54:07Z</time>
      </trkpt>
      <trkpt lat="45.25681" lon="2.92949">
        <ele>1139.8</ele>
        <time>2021-08-24T08:54:09Z</time>
      </trkpt>
      <trkpt lat="45.2568" lon="2.92944">
        <ele>1139.4</ele>
        <time>2021-08-24T08:54:11Z</time>
      </trkpt>
      <trkpt lat="45.25678" lon="2.92941">
        <ele>1139</ele>
        <time>2021-08-24T08:54:13Z</time>
      </trkpt>
      <trkpt lat="45.25673" lon="2.92939">
        <ele>1138.7</ele>
        <time>2021-08-24T08:54:15Z</time>
      </trkpt>
      <trkpt lat="45.25667" lon="2.92939">
        <ele>1138.6</ele>
        <time>2021-08-24T08:54:17Z</time>
      </trkpt>
      <trkpt lat="45.2566" lon="2.92939">
        <ele>1138.4</ele>
        <time>2021-08-24T08:54:19Z</time>
      </trkpt>
      <trkpt lat="45.25652" lon="2.92939">
        <ele>1138.1</ele>
        <time>2021-08-24T08:54:21Z</time>
      </trkpt>
      <trkpt lat="45.25648" lon="2.92939">
        <ele>1137.9</ele>
        <time>2021-08-24T08:54:23Z</time>
      </trkpt>
      <trkpt lat="45.25649" lon="2.92939">
        <ele>1138</ele>
        <time>2021-08-24T08:54:25Z</time>
      </trkpt>
      <trkpt lat="45.2565" lon="2.92939">
        <ele>1138</ele>
        <time>2021-08-24T08:54:27Z</time>
      </trkpt>
      <trkpt lat="45.2565" lon="2.92939">
        <ele>1138</ele>
        <time>2021-08-24T08:54:29Z</time>
      </trkpt>
      <trkpt lat="45.2565" lon="2.92939">
        <ele>1138</ele>
        <time>2021-08-24T08:54:31Z</time>
      </trkpt>
      <trkpt lat="45.25649" lon="2.92939">
        <ele>1137.9</ele>
        <time>2021-08-24T08:54:33Z</time>
      </trkpt>
      <trkpt lat="45.25649" lon="2.92938">
        <ele>1137.9</ele>
        <time>2021-08-24T08:54:35Z</time>
      </trkpt>
      <trkpt lat="45.2565" lon="2.92937">
        <ele>1137.9</ele>
        <time>2021-08-24T08:54:37Z</time>
      </trkpt>
      <trkpt lat="45.25652" lon="2.92937">
        <ele>1138</ele>
        <time>2021-08-24T08:54:39Z</time>
      </trkpt>
      <trkpt lat="45.25653" lon="2.92937">
        <ele>1138</ele>
        <time>2021-08-24T08:54:41Z</time>
      </trkpt>
      <trkpt lat="45.25654" lon="2.92937">
        <ele>1138</ele>
        <time>2021-08-24T08:54:43Z</time>
      </trkpt>
      <trkpt lat="45.25656" lon="2.92937">
        <ele>1138.1</ele>
        <time>2021-08-24T08:54:45Z</time>
      </trkpt>
      <trkpt lat="45.25657" lon="2.92937">
        <ele>1138.1</ele>
        <time>2021-08-24T08:54:47Z</time>
      </trkpt>
      <trkpt lat="45.25658" lon="2.92937">
        <ele>1138.2</ele>
        <time>2021-08-24T08:54:49Z</time>
      </trkpt>
      <trkpt lat="45.25658" lon="2.92937">
        <ele>1138.2</ele>
        <time>2021-08-24T08:54:51Z</time>
      </trkpt>
      <trkpt lat="45.25658" lon="2.92937">
        <ele>1138.2</ele>
        <time>2021-08-24T08:54:53Z</time>
      </trkpt>
      <trkpt lat="45.25658" lon="2.92937">
        <ele>1138.2</ele>
        <time>2021-08-24T08:54:55Z</time>
      </trkpt>
      <trkpt lat="45.25658" lon="2.92937">
        <ele>1138.2</ele>
        <time>2021-08-24T08:54:57Z</time>
      </trkpt>
      <trkpt lat="45.25658" lon="2.92937">
        <ele>1138.2</ele>
        <time>2021-08-24T08:54:59Z</time>
      </trkpt>
      <trkpt lat="45.25658" lon="2.92937">
        <ele>1138.2</ele>
        <time>2021-08-24T08:55:01Z</time>
      </trkpt>
      <trkpt lat="45.25658" lon="2.92937">
        <ele>1138.2</ele>
        <time>2021-08-24T08:55:03Z</time>
      </trkpt>
      <trkpt lat="45.25658" lon="2.92937">
        <ele>1138.2</ele>
        <time>2021-08-24T08:55:05Z</time>
      </trkpt>
      <trkpt lat="45.25658" lon="2.92937">
        <ele>1138.2</ele>
        <time>2021-08-24T08:55:07Z</time>
      </trkpt>
      <trkpt lat="45.25658" lon="2.92937">
        <ele>1138.2</ele>
        <time>2021-08-24T08:55:09Z</time>
      </trkpt>
      <trkpt lat="45.25658" lon="2.92937">
        <ele>1138.2</ele>
        <time>2021-08-24T08:55:11Z</time>
      </trkpt>
      <trkpt lat="45.25658" lon="2.92937">
        <ele>1138.2</ele>
        <time>2021-08-24T08:55:13Z</time>
      </trkpt>
      <trkpt lat="45.25658" lon="2.92937">
        <ele>1138.2</ele>
        <time>2021-08-24T08:55:15Z</time>
      </trkpt>
      <trkpt lat="45.25658" lon="2.92938">
        <ele>1138.2</ele>
        <time>2021-08-24T08:55:17Z</time>
      </trkpt>
      <trkpt lat="45.25659" lon="2.92939">
        <ele>1138.3</ele>
        <time>2021-08-24T08:55:19Z</time>
      </trkpt>
      <trkpt lat="45.25661" lon="2.92939">
        <ele>1138.4</ele>
        <time>2021-08-24T08:55:21Z</time>
      </trkpt>
      <trkpt lat="45.25662" lon="2.92938">
        <ele>1138.4</ele>
        <time>2021-08-24T08:55:23Z</time>
      </trkpt>
      <trkpt lat="45.25663" lon="2.92938">
        <ele>1138.4</ele>
        <time>2021-08-24T08:55:25Z</time>
      </trkpt>
      <trkpt lat="45.25665" lon="2.92937">
        <ele>1138.4</ele>
        <time>2021-08-24T08:55:27Z</time>
      </trkpt>
      <trkpt lat="45.25667" lon="2.92937">
        <ele>1138.5</ele>
        <time>2021-08-24T08:55:29Z</time>
      </trkpt>
      <trkpt lat="45.25668" lon="2.92938">
        <ele>1138.6</ele>
        <time>2021-08-24T08:55:31Z</time>
      </trkpt>
      <trkpt lat="45.2567" lon="2.92939">
        <ele>1138.7</ele>
        <time>2021-08-24T08:55:33Z</time>
      </trkpt>
      <trkpt lat="45.25672" lon="2.92939">
        <ele>1138.8</ele>
        <time>2021-08-24T08:55:35Z</time>
      </trkpt>
      <trkpt lat="45.25673" lon="2.9294">
        <ele>1138.8</ele>
        <time>2021-08-24T08:55:37Z</time>
      </trkpt>
      <trkpt lat="45.25675" lon="2.9294">
        <ele>1138.9</ele>
        <time>2021-08-24T08:55:39Z</time>
      </trkpt>
      <trkpt lat="45.25677" lon="2.92941">
        <ele>1139</ele>
        <time>2021-08-24T08:55:41Z</time>
      </trkpt>
      <trkpt lat="45.25678" lon="2.92943">
        <ele>1139.2</ele>
        <time>2021-08-24T08:55:43Z</time>
      </trkpt>
      <trkpt lat="45.25679" lon="2.92945">
        <ele>1139.4</ele>
        <time>2021-08-24T08:55:45Z</time>
      </trkpt>
      <trkpt lat="45.25679" lon="2.92947">
        <ele>1139.6</ele>
        <time>2021-08-24T08:55:47Z</time>
      </trkpt>
      <trkpt lat="45.25679" lon="2.92951">
        <ele>1139.8</ele>
        <time>2021-08-24T08:55:49Z</time>
      </trkpt>
      <trkpt lat="45.25678" lon="2.92953">
        <ele>1140</ele>
        <time>2021-08-24T08:55:51Z</time>
      </trkpt>
      <trkpt lat="45.25678" lon="2.92954">
        <ele>1140</ele>
        <time>2021-08-24T08:55:53Z</time>
      </trkpt>
      <trkpt lat="45.25678" lon="2.92953">
        <ele>1140</ele>
        <time>2021-08-24T08:55:55Z</time>
      </trkpt>
      <trkpt lat="45.25678" lon="2.92953">
        <ele>1140</ele>
        <time>2021-08-24T08:55:57Z</time>
      </trkpt>
      <trkpt lat="45.25678" lon="2.92953">
        <ele>1140</ele>
        <time>2021-08-24T08:55:59Z</time>
      </trkpt>
      <trkpt lat="45.25678" lon="2.92953">
        <ele>1140</ele>
        <time>2021-08-24T08:56:03Z</time>
      </trkpt>
      <trkpt lat="45.25678" lon="2.92953">
        <ele>1140</ele>
        <time>2021-08-24T08:56:07Z</time>
      </trkpt>
      <trkpt lat="45.25678" lon="2.92953">
        <ele>1140</ele>
        <time>2021-08-24T08:56:11Z</time>
      </trkpt>
      <trkpt lat="45.25678" lon="2.92953">
        <ele>1140</ele>
        <time>2021-08-24T08:56:15Z</time>
      </trkpt>
      <trkpt lat="45.25678" lon="2.92953">
        <ele>1140</ele>
        <time>2021-08-24T08:56:19Z</time>
      </trkpt>
      <trkpt lat="45.25678" lon="2.92953">
        <ele>1140</ele>
        <time>2021-08-24T08:56:23Z</time>
      </trkpt>
      <trkpt lat="45.25678" lon="2.92953">
        <ele>1140</ele>
        <time>2021-08-24T08:56:27Z</time>
      </trkpt>
      <trkpt lat="45.25678" lon="2.92953">
        <ele>1140</ele>
        <time>2021-08-24T08:56:31Z</time>
      </trkpt>
      <trkpt lat="45.25678" lon="2.92953">
        <ele>1140</ele>
        <time>2021-08-24T08:56:35Z</time>
      </trkpt>
      <trkpt lat="45.25678" lon="2.92953">
        <ele>1140</ele>
        <time>2021-08-24T08:56:39Z</time>
      </trkpt>
      <trkpt lat="45.25678" lon="2.92953">
        <ele>1140</ele>
        <time>2021-08-24T08:56:43Z</time>
      </trkpt>
      <trkpt lat="45.25678" lon="2.92953">
        <ele>1140</ele>
        <time>2021-08-24T08:56:47Z</time>
      </trkpt>
      <trkpt lat="45.25678" lon="2.92953">
        <ele>1140</ele>
        <time>2021-08-24T08:56:51Z</time>
      </trkpt>
      <trkpt lat="45.25678" lon="2.92953">
        <ele>1140</ele>
        <time>2021-08-24T08:56:55Z</time>
      </trkpt>
      <trkpt lat="45.25678" lon="2.92953">
        <ele>1140</ele>
        <time>2021-08-24T08:56:59Z</time>
      </trkpt>
      <trkpt lat="45.25678" lon="2.92953">
        <ele>1140</ele>
        <time>2021-08-24T08:57:03Z</time>
      </trkpt>
      <trkpt lat="45.25678" lon="2.92953">
        <ele>1140</ele>
        <time>2021-08-24T08:57:07Z</time>
      </trkpt>
      <trkpt lat="45.25678" lon="2.92953">
        <ele>1140</ele>
        <time>2021-08-24T08:57:11Z</time>
      </trkpt>
      <trkpt lat="45.25678" lon="2.92953">
        <ele>1140</ele>
        <time>2021-08-24T08:57:15Z</time>
      </trkpt>
      <trkpt lat="45.25678" lon="2.92953">
        <ele>1140</ele>
        <time>2021-08-24T08:57:19Z</time>
      </trkpt>
      <trkpt lat="45.25678" lon="2.92953">
        <ele>1140</ele>
        <time>2021-08-24T08:57:23Z</time>
      </trkpt>
      <trkpt lat="45.25678" lon="2.92953">
        <ele>1140</ele>
        <time>2021-08-24T08:57:27Z</time>
      </trkpt>
      <trkpt lat="45.25678" lon="2.92953">
        <ele>1140</ele>
        <time>2021-08-24T08:57:31Z</time>
      </trkpt>
      <trkpt lat="45.25678" lon="2.92953">
        <ele>1140</ele>
        <time>2021-08-24T08:57:35Z</time>
      </trkpt>
      <trkpt lat="45.25678" lon="2.92953">
        <ele>1140</ele>
        <time>2021-08-24T08:57:39Z</time>
      </trkpt>
      <trkpt lat="45.25678" lon="2.92953">
        <ele>1140</ele>
        <time>2021-08-24T08:57:43Z</time>
      </trkpt>
      <trkpt lat="45.25678" lon="2.92953">
        <ele>1140</ele>
        <time>2021-08-24T08:57:47Z</time>
      </trkpt>
      <trkpt lat="45.25678" lon="2.92953">
        <ele>1140</ele>
        <time>2021-08-24T08:57:51Z</time>
      </trkpt>
      <trkpt lat="45.25678" lon="2.92953">
        <ele>1140</ele>
        <time>2021-08-24T08:57:55Z</time>
      </trkpt>
      <trkpt lat="45.25678" lon="2.92953">
        <ele>1140</ele>
        <time>2021-08-24T08:57:59Z</time>
      </trkpt>
      <trkpt lat="45.25678" lon="2.92953">
        <ele>1140</ele>
        <time>2021-08-24T08:58:03Z</time>
      </trkpt>
      <trkpt lat="45.25678" lon="2.92953">
        <ele>1140</ele>
        <time>2021-08-24T08:58:07Z</time>
      </trkpt>
      <trkpt lat="45.25678" lon="2.92953">
        <ele>1140</ele>
        <time>2021-08-24T08:58:11Z</time>
      </trkpt>
      <trkpt lat="45.25678" lon="2.92953">
        <ele>1140</ele>
        <time>2021-08-24T08:58:15Z</time>
      </trkpt>
      <trkpt lat="45.25678" lon="2.92953">
        <ele>1140</ele>
        <time>2021-08-24T08:58:19Z</time>
      </trkpt>
      <trkpt lat="45.25678" lon="2.92953">
        <ele>1140</ele>
        <time>2021-08-24T08:58:23Z</time>
      </trkpt>
      <trkpt lat="45.25678" lon="2.92953">
        <ele>1140</ele>
        <time>2021-08-24T08:58:27Z</time>
      </trkpt>
      <trkpt lat="45.25678" lon="2.92953">
        <ele>1140</ele>
        <time>2021-08-24T08:58:31Z</time>
      </trkpt>
      <trkpt lat="45.25678" lon="2.92953">
        <ele>1140</ele>
        <time>2021-08-24T08:58:35Z</time>
      </trkpt>
      <trkpt lat="45.25678" lon="2.92953">
        <ele>1140</ele>
        <time>2021-08-24T08:58:39Z</time>
      </trkpt>
      <trkpt lat="45.25678" lon="2.92953">
        <ele>1140</ele>
        <time>2021-08-24T08:58:43Z</time>
      </trkpt>
      <trkpt lat="45.25678" lon="2.92953">
        <ele>1140</ele>
        <time>2021-08-24T08:58:47Z</time>
      </trkpt>
      <trkpt lat="45.25678" lon="2.92953">
        <ele>1140</ele>
        <time>2021-08-24T08:58:51Z</time>
      </trkpt>
      <trkpt lat="45.25678" lon="2.92953">
        <ele>1140</ele>
        <time>2021-08-24T08:58:55Z</time>
      </trkpt>
      <trkpt lat="45.25678" lon="2.92953">
        <ele>1140</ele>
        <time>2021-08-24T08:58:59Z</time>
      </trkpt>
      <trkpt lat="45.25678" lon="2.92953">
        <ele>1140</ele>
        <time>2021-08-24T08:59:03Z</time>
      </trkpt>
      <trkpt lat="45.25678" lon="2.92953">
        <ele>1140</ele>
        <time>2021-08-24T08:59:07Z</time>
      </trkpt>
      <trkpt lat="45.25678" lon="2.92953">
        <ele>1140</ele>
        <time>2021-08-24T08:59:11Z</time>
      </trkpt>
      <trkpt lat="45.25678" lon="2.92953">
        <ele>1140</ele>
        <time>2021-08-24T08:59:15Z</time>
      </trkpt>
      <trkpt lat="45.25678" lon="2.92953">
        <ele>1140</ele>
        <time>2021-08-24T08:59:19Z</time>
      </trkpt>
      <trkpt lat="45.25678" lon="2.92953">
        <ele>1140</ele>
        <time>2021-08-24T08:59:23Z</time>
      </trkpt>
      <trkpt lat="45.25678" lon="2.92953">
        <ele>1140</ele>
        <time>2021-08-24T08:59:27Z</time>
      </trkpt>
      <trkpt lat="45.25678" lon="2.92953">
        <ele>1140</ele>
        <time>2021-08-24T08:59:31Z</time>
      </trkpt>
      <trkpt lat="45.25678" lon="2.92953">
        <ele>1140</ele>
        <time>2021-08-24T08:59:35Z</time>
      </trkpt>
      <trkpt lat="45.25678" lon="2.92953">
        <ele>1140</ele>
        <time>2021-08-24T08:59:39Z</time>
      </trkpt>
      <trkpt lat="45.25678" lon="2.92953">
        <ele>1140</ele>
        <time>2021-08-24T08:59:43Z</time>
      </trkpt>
      <trkpt lat="45.25678" lon="2.92953">
        <ele>1140</ele>
        <time>2021-08-24T08:59:47Z</time>
      </trkpt>
      <trkpt lat="45.25678" lon="2.92953">
        <ele>1140</ele>
        <time>2021-08-24T08:59:51Z</time>
      </trkpt>
      <trkpt lat="45.25678" lon="2.92953">
        <ele>1140</ele>
        <time>2021-08-24T08:59:55Z</time>
      </trkpt>
      <trkpt lat="45.25678" lon="2.92953">
        <ele>1140</ele>
        <time>2021-08-24T08:59:59Z</time>
      </trkpt>
      <trkpt lat="45.25678" lon="2.92953">
        <ele>1140</ele>
        <time>2021-08-24T09:00:03Z</time>
      </trkpt>
      <trkpt lat="45.25678" lon="2.92953">
        <ele>1140</ele>
        <time>2021-08-24T09:00:07Z</time>
      </trkpt>
      <trkpt lat="45.25678" lon="2.92953">
        <ele>1140</ele>
        <time>2021-08-24T09:00:11Z</time>
      </trkpt>
      <trkpt lat="45.25678" lon="2.92953">
        <ele>1140</ele>
        <time>2021-08-24T09:00:15Z</time>
      </trkpt>
      <trkpt lat="45.25678" lon="2.92953">
        <ele>1140</ele>
        <time>2021-08-24T09:00:19Z</time>
      </trkpt>
      <trkpt lat="45.25678" lon="2.92953">
        <ele>1140</ele>
        <time>2021-08-24T09:00:23Z</time>
      </trkpt>
      <trkpt lat="45.25678" lon="2.92953">
        <ele>1140</ele>
        <time>2021-08-24T09:00:27Z</time>
      </trkpt>
      <trkpt lat="45.25678" lon="2.92953">
        <ele>1140</ele>
        <time>2021-08-24T09:00:31Z</time>
      </trkpt>
      <trkpt lat="45.25678" lon="2.92953">
        <ele>1140</ele>
        <time>2021-08-24T09:00:35Z</time>
      </trkpt>
      <trkpt lat="45.25678" lon="2.92953">
        <ele>1140</ele>
        <time>2021-08-24T09:00:39Z</time>
      </trkpt>
      <trkpt lat="45.25678" lon="2.92953">
        <ele>1140</ele>
        <time>2021-08-24T09:00:43Z</time>
      </trkpt>
      <trkpt lat="45.25678" lon="2.92953">
        <ele>1140</ele>
        <time>2021-08-24T09:00:47Z</time>
      </trkpt>
      <trkpt lat="45.25678" lon="2.92953">
        <ele>1140</ele>
        <time>2021-08-24T09:00:51Z</time>
      </trkpt>
      <trkpt lat="45.25678" lon="2.92953">
        <ele>1140</ele>
        <time>2021-08-24T09:00:55Z</time>
      </trkpt>
      <trkpt lat="45.25678" lon="2.92953">
        <ele>1140</ele>
        <time>2021-08-24T09:00:59Z</time>
      </trkpt>
      <trkpt lat="45.25678" lon="2.92953">
        <ele>1140</ele>
        <time>2021-08-24T09:01:03Z</time>
      </trkpt>
      <trkpt lat="45.25678" lon="2.92953">
        <ele>1140</ele>
        <time>2021-08-24T09:01:07Z</time>
      </trkpt>
      <trkpt lat="45.25678" lon="2.92953">
        <ele>1140</ele>
        <time>2021-08-24T09:01:11Z</time>
      </trkpt>
      <trkpt lat="45.25678" lon="2.92953">
        <ele>1140</ele>
        <time>2021-08-24T09:01:15Z</time>
      </trkpt>
      <trkpt lat="45.25678" lon="2.92953">
        <ele>1140</ele>
        <time>2021-08-24T09:01:19Z</time>
      </trkpt>
      <trkpt lat="45.25678" lon="2.92953">
        <ele>1140</ele>
        <time>2021-08-24T09:01:23Z</time>
      </trkpt>
      <trkpt lat="45.25678" lon="2.92953">
        <ele>1140</ele>
        <time>2021-08-24T09:01:27Z</time>
      </trkpt>
      <trkpt lat="45.25678" lon="2.92953">
        <ele>1140</ele>
        <time>2021-08-24T09:01:31Z</time>
      </trkpt>
      <trkpt lat="45.25678" lon="2.92953">
        <ele>1140</ele>
        <time>2021-08-24T09:01:35Z</time>
      </trkpt>
      <trkpt lat="45.25678" lon="2.92953">
        <ele>1140</ele>
        <time>2021-08-24T09:01:39Z</time>
      </trkpt>
      <trkpt lat="45.25678" lon="2.92953">
        <ele>1140</ele>
        <time>2021-08-24T09:01:43Z</time>
      </trkpt>
      <trkpt lat="45.25678" lon="2.92953">
        <ele>1140</ele>
        <time>2021-08-24T09:01:47Z</time>
      </trkpt>
      <trkpt lat="45.25679" lon="2.92954">
        <ele>1140.1</ele>
        <time>2021-08-24T09:01:51Z</time>
      </trkpt>
      <trkpt lat="45.25679" lon="2.92954">
        <ele>1140.1</ele>
        <time>2021-08-24T09:01:53Z</time>
      </trkpt>
      <trkpt lat="45.2568" lon="2.92955">
        <ele>1140.2</ele>
        <time>2021-08-24T09:01:55Z</time>
      </trkpt>
      <trkpt lat="45.25681" lon="2.92955">
        <ele>1140.2</ele>
        <time>2021-08-24T09:01:57Z</time>
      </trkpt>
      <trkpt lat="45.25682" lon="2.92954">
        <ele>1140.2</ele>
        <time>2021-08-24T09:01:59Z</time>
      </trkpt>
      <trkpt lat="45.25682" lon="2.92955">
        <ele>1140.3</ele>
        <time>2021-08-24T09:02:01Z</time>
      </trkpt>
      <trkpt lat="45.25682" lon="2.92955">
        <ele>1140.3</ele>
        <time>2021-08-24T09:02:03Z</time>
      </trkpt>
      <trkpt lat="45.25683" lon="2.92953">
        <ele>1140.1</ele>
        <time>2021-08-24T09:02:05Z</time>
      </trkpt>
      <trkpt lat="45.25685" lon="2.92951">
        <ele>1140</ele>
        <time>2021-08-24T09:02:07Z</time>
      </trkpt>
      <trkpt lat="45.25688" lon="2.92949">
        <ele>1140</ele>
        <time>2021-08-24T09:02:09Z</time>
      </trkpt>
      <trkpt lat="45.25692" lon="2.92949">
        <ele>1140.1</ele>
        <time>2021-08-24T09:02:11Z</time>
      </trkpt>
      <trkpt lat="45.25696" lon="2.92949">
        <ele>1140.2</ele>
        <time>2021-08-24T09:02:13Z</time>
      </trkpt>
      <trkpt lat="45.257" lon="2.92948">
        <ele>1140.2</ele>
        <time>2021-08-24T09:02:15Z</time>
      </trkpt>
      <trkpt lat="45.25704" lon="2.92946">
        <ele>1140.2</ele>
        <time>2021-08-24T09:02:17Z</time>
      </trkpt>
      <trkpt lat="45.25708" lon="2.92946">
        <ele>1140.3</ele>
        <time>2021-08-24T09:02:19Z</time>
      </trkpt>
      <trkpt lat="45.25711" lon="2.92946">
        <ele>1140.4</ele>
        <time>2021-08-24T09:02:21Z</time>
      </trkpt>
      <trkpt lat="45.25715" lon="2.92946">
        <ele>1140.5</ele>
        <time>2021-08-24T09:02:23Z</time>
      </trkpt>
      <trkpt lat="45.25719" lon="2.92947">
        <ele>1140.7</ele>
        <time>2021-08-24T09:02:25Z</time>
      </trkpt>
      <trkpt lat="45.25722" lon="2.92948">
        <ele>1140.9</ele>
        <time>2021-08-24T09:02:27Z</time>
      </trkpt>
      <trkpt lat="45.25726" lon="2.9295">
        <ele>1141.2</ele>
        <time>2021-08-24T09:02:29Z</time>
      </trkpt>
      <trkpt lat="45.2573" lon="2.92951">
        <ele>1141.5</ele>
        <time>2021-08-24T09:02:31Z</time>
      </trkpt>
      <trkpt lat="45.25733" lon="2.92952">
        <ele>1141.7</ele>
        <time>2021-08-24T09:02:33Z</time>
      </trkpt>
      <trkpt lat="45.25737" lon="2.92954">
        <ele>1142</ele>
        <time>2021-08-24T09:02:35Z</time>
      </trkpt>
      <trkpt lat="45.25741" lon="2.92955">
        <ele>1142.3</ele>
        <time>2021-08-24T09:02:37Z</time>
      </trkpt>
      <trkpt lat="45.25745" lon="2.92957">
        <ele>1142.6</ele>
        <time>2021-08-24T09:02:39Z</time>
      </trkpt>
      <trkpt lat="45.25748" lon="2.92958">
        <ele>1142.9</ele>
        <time>2021-08-24T09:02:41Z</time>
      </trkpt>
      <trkpt lat="45.25751" lon="2.92959">
        <ele>1143.1</ele>
        <time>2021-08-24T09:02:43Z</time>
      </trkpt>
      <trkpt lat="45.25823" lon="2.92977">
        <ele>1148.1</ele>
        <time>2021-08-24T09:03:27Z</time>
      </trkpt>
      <trkpt lat="45.25826" lon="2.92976">
        <ele>1148.2</ele>
        <time>2021-08-24T09:03:29Z</time>
      </trkpt>
      <trkpt lat="45.2583" lon="2.92976">
        <ele>1148.3</ele>
        <time>2021-08-24T09:03:31Z</time>
      </trkpt>
      <trkpt lat="45.25833" lon="2.92976">
        <ele>1148.4</ele>
        <time>2021-08-24T09:03:33Z</time>
      </trkpt>
      <trkpt lat="45.25837" lon="2.92975">
        <ele>1148.5</ele>
        <time>2021-08-24T09:03:35Z</time>
      </trkpt>
      <trkpt lat="45.25841" lon="2.92975">
        <ele>1148.6</ele>
        <time>2021-08-24T09:03:37Z</time>
      </trkpt>
      <trkpt lat="45.25845" lon="2.92975">
        <ele>1148.7</ele>
        <time>2021-08-24T09:03:39Z</time>
      </trkpt>
      <trkpt lat="45.25849" lon="2.92974">
        <ele>1148.8</ele>
        <time>2021-08-24T09:03:41Z</time>
      </trkpt>
      <trkpt lat="45.25853" lon="2.92974">
        <ele>1148.9</ele>
        <time>2021-08-24T09:03:43Z</time>
      </trkpt>
      <trkpt lat="45.25857" lon="2.92974">
        <ele>1149.1</ele>
        <time>2021-08-24T09:03:45Z</time>
      </trkpt>
      <trkpt lat="45.25861" lon="2.92974">
        <ele>1149.2</ele>
        <time>2021-08-24T09:03:47Z</time>
      </trkpt>
      <trkpt lat="45.25865" lon="2.92975">
        <ele>1149.4</ele>
        <time>2021-08-24T09:03:49Z</time>
      </trkpt>
      <trkpt lat="45.25869" lon="2.92975">
        <ele>1149.5</ele>
        <time>2021-08-24T09:03:51Z</time>
      </trkpt>
      <trkpt lat="45.25873" lon="2.92975">
        <ele>1149.7</ele>
        <time>2021-08-24T09:03:53Z</time>
      </trkpt>
      <trkpt lat="45.25878" lon="2.92975">
        <ele>1149.9</ele>
        <time>2021-08-24T09:03:55Z</time>
      </trkpt>
      <trkpt lat="45.25882" lon="2.92976">
        <ele>1150.1</ele>
        <time>2021-08-24T09:03:57Z</time>
      </trkpt>
      <trkpt lat="45.25886" lon="2.92976">
        <ele>1150.3</ele>
        <time>2021-08-24T09:03:59Z</time>
      </trkpt>
      <trkpt lat="45.25891" lon="2.92977">
        <ele>1150.6</ele>
        <time>2021-08-24T09:04:01Z</time>
      </trkpt>
      <trkpt lat="45.25896" lon="2.92979">
        <ele>1150.9</ele>
        <time>2021-08-24T09:04:03Z</time>
      </trkpt>
      <trkpt lat="45.259" lon="2.9298">
        <ele>1151.2</ele>
        <time>2021-08-24T09:04:05Z</time>
      </trkpt>
      <trkpt lat="45.25904" lon="2.92981">
        <ele>1151.5</ele>
        <time>2021-08-24T09:04:07Z</time>
      </trkpt>
      <trkpt lat="45.25909" lon="2.92982">
        <ele>1151.8</ele>
        <time>2021-08-24T09:04:09Z</time>
      </trkpt>
      <trkpt lat="45.25914" lon="2.92983">
        <ele>1152.1</ele>
        <time>2021-08-24T09:04:11Z</time>
      </trkpt>
      <trkpt lat="45.25918" lon="2.92984">
        <ele>1152.4</ele>
        <time>2021-08-24T09:04:13Z</time>
      </trkpt>
      <trkpt lat="45.25922" lon="2.92986">
        <ele>1152.9</ele>
        <time>2021-08-24T09:04:15Z</time>
      </trkpt>
      <trkpt lat="45.25927" lon="2.92987">
        <ele>1153.3</ele>
        <time>2021-08-24T09:04:17Z</time>
      </trkpt>
      <trkpt lat="45.25932" lon="2.92988">
        <ele>1153.7</ele>
        <time>2021-08-24T09:04:19Z</time>
      </trkpt>
      <trkpt lat="45.25936" lon="2.92989">
        <ele>1154.1</ele>
        <time>2021-08-24T09:04:21Z</time>
      </trkpt>
      <trkpt lat="45.25941" lon="2.92989">
        <ele>1154.5</ele>
        <time>2021-08-24T09:04:23Z</time>
      </trkpt>
      <trkpt lat="45.25945" lon="2.92989">
        <ele>1154.8</ele>
        <time>2021-08-24T09:04:25Z</time>
      </trkpt>
      <trkpt lat="45.2595" lon="2.92988">
        <ele>1155</ele>
        <time>2021-08-24T09:04:27Z</time>
      </trkpt>
      <trkpt lat="45.25955" lon="2.92986">
        <ele>1155.1</ele>
        <time>2021-08-24T09:04:29Z</time>
      </trkpt>
      <trkpt lat="45.25959" lon="2.92983">
        <ele>1155.2</ele>
        <time>2021-08-24T09:04:31Z</time>
      </trkpt>
      <trkpt lat="45.25963" lon="2.9298">
        <ele>1155.3</ele>
        <time>2021-08-24T09:04:33Z</time>
      </trkpt>
      <trkpt lat="45.25967" lon="2.92976">
        <ele>1155.3</ele>
        <time>2021-08-24T09:04:35Z</time>
      </trkpt>
      <trkpt lat="45.25971" lon="2.92973">
        <ele>1155.4</ele>
        <time>2021-08-24T09:04:37Z</time>
      </trkpt>
      <trkpt lat="45.25975" lon="2.92969">
        <ele>1155.4</ele>
        <time>2021-08-24T09:04:39Z</time>
      </trkpt>
      <trkpt lat="45.25978" lon="2.92964">
        <ele>1155.3</ele>
        <time>2021-08-24T09:04:41Z</time>
      </trkpt>
      <trkpt lat="45.25981" lon="2.92959">
        <ele>1155.3</ele>
        <time>2021-08-24T09:04:43Z</time>
      </trkpt>
      <trkpt lat="45.25984" lon="2.92954">
        <ele>1155.3</ele>
        <time>2021-08-24T09:04:45Z</time>
      </trkpt>
      <trkpt lat="45.25988" lon="2.92951">
        <ele>1155.5</ele>
        <time>2021-08-24T09:04:47Z</time>
      </trkpt>
      <trkpt lat="45.25991" lon="2.92946">
        <ele>1155.5</ele>
        <time>2021-08-24T09:04:49Z</time>
      </trkpt>
      <trkpt lat="45.25994" lon="2.9294">
        <ele>1155.5</ele>
        <time>2021-08-24T09:04:51Z</time>
      </trkpt>
      <trkpt lat="45.25997" lon="2.92935">
        <ele>1155.6</ele>
        <time>2021-08-24T09:04:53Z</time>
      </trkpt>
      <trkpt lat="45.25999" lon="2.9293">
        <ele>1155.6</ele>
        <time>2021-08-24T09:04:55Z</time>
      </trkpt>
      <trkpt lat="45.26003" lon="2.92925">
        <ele>1155.9</ele>
        <time>2021-08-24T09:04:57Z</time>
      </trkpt>
      <trkpt lat="45.26006" lon="2.92921">
        <ele>1156.3</ele>
        <time>2021-08-24T09:04:59Z</time>
      </trkpt>
      <trkpt lat="45.26009" lon="2.92916">
        <ele>1156.6</ele>
        <time>2021-08-24T09:05:01Z</time>
      </trkpt>
      <trkpt lat="45.26013" lon="2.92912">
        <ele>1156.8</ele>
        <time>2021-08-24T09:05:03Z</time>
      </trkpt>
      <trkpt lat="45.26016" lon="2.92907">
        <ele>1157</ele>
        <time>2021-08-24T09:05:05Z</time>
      </trkpt>
      <trkpt lat="45.26019" lon="2.92903">
        <ele>1157.2</ele>
        <time>2021-08-24T09:05:07Z</time>
      </trkpt>
      <trkpt lat="45.26023" lon="2.929">
        <ele>1157.6</ele>
        <time>2021-08-24T09:05:09Z</time>
      </trkpt>
      <trkpt lat="45.26027" lon="2.92896">
        <ele>1157.9</ele>
        <time>2021-08-24T09:05:11Z</time>
      </trkpt>
      <trkpt lat="45.26031" lon="2.92892">
        <ele>1158.1</ele>
        <time>2021-08-24T09:05:13Z</time>
      </trkpt>
      <trkpt lat="45.26033" lon="2.92889">
        <ele>1158.2</ele>
        <time>2021-08-24T09:05:15Z</time>
      </trkpt>
      <trkpt lat="45.26038" lon="2.92886">
        <ele>1158.8</ele>
        <time>2021-08-24T09:05:17Z</time>
      </trkpt>
      <trkpt lat="45.26042" lon="2.92882">
        <ele>1159.1</ele>
        <time>2021-08-24T09:05:19Z</time>
      </trkpt>
      <trkpt lat="45.26046" lon="2.92879">
        <ele>1159.5</ele>
        <time>2021-08-24T09:05:21Z</time>
      </trkpt>
      <trkpt lat="45.26051" lon="2.92876">
        <ele>1159.8</ele>
        <time>2021-08-24T09:05:23Z</time>
      </trkpt>
      <trkpt lat="45.26055" lon="2.92872">
        <ele>1160</ele>
        <time>2021-08-24T09:05:25Z</time>
      </trkpt>
      <trkpt lat="45.26058" lon="2.92869">
        <ele>1160.3</ele>
        <time>2021-08-24T09:05:27Z</time>
      </trkpt>
      <trkpt lat="45.26063" lon="2.92866">
        <ele>1160.7</ele>
        <time>2021-08-24T09:05:29Z</time>
      </trkpt>
      <trkpt lat="45.26067" lon="2.92863">
        <ele>1161</ele>
        <time>2021-08-24T09:05:31Z</time>
      </trkpt>
      <trkpt lat="45.26071" lon="2.9286">
        <ele>1161.3</ele>
        <time>2021-08-24T09:05:33Z</time>
      </trkpt>
      <trkpt lat="45.26074" lon="2.92857">
        <ele>1161.4</ele>
        <time>2021-08-24T09:05:35Z</time>
      </trkpt>
      <trkpt lat="45.26078" lon="2.92854">
        <ele>1161.7</ele>
        <time>2021-08-24T09:05:37Z</time>
      </trkpt>
      <trkpt lat="45.26082" lon="2.92851">
        <ele>1161.9</ele>
        <time>2021-08-24T09:05:39Z</time>
      </trkpt>
      <trkpt lat="45.26087" lon="2.92847">
        <ele>1162</ele>
        <time>2021-08-24T09:05:41Z</time>
      </trkpt>
      <trkpt lat="45.26091" lon="2.92845">
        <ele>1162.2</ele>
        <time>2021-08-24T09:05:43Z</time>
      </trkpt>
      <trkpt lat="45.26095" lon="2.92842">
        <ele>1162.2</ele>
        <time>2021-08-24T09:05:45Z</time>
      </trkpt>
      <trkpt lat="45.26099" lon="2.92839">
        <ele>1162.3</ele>
        <time>2021-08-24T09:05:47Z</time>
      </trkpt>
      <trkpt lat="45.26103" lon="2.92836">
        <ele>1162.4</ele>
        <time>2021-08-24T09:05:49Z</time>
      </trkpt>
      <trkpt lat="45.26107" lon="2.92833">
        <ele>1162.6</ele>
        <time>2021-08-24T09:05:51Z</time>
      </trkpt>
      <trkpt lat="45.26111" lon="2.92831">
        <ele>1162.7</ele>
        <time>2021-08-24T09:05:53Z</time>
      </trkpt>
      <trkpt lat="45.26115" lon="2.92828">
        <ele>1162.8</ele>
        <time>2021-08-24T09:05:55Z</time>
      </trkpt>
      <trkpt lat="45.2612" lon="2.92826">
        <ele>1163</ele>
        <time>2021-08-24T09:05:57Z</time>
      </trkpt>
      <trkpt lat="45.26124" lon="2.92824">
        <ele>1163.2</ele>
        <time>2021-08-24T09:05:59Z</time>
      </trkpt>
      <trkpt lat="45.26128" lon="2.92823">
        <ele>1163.6</ele>
        <time>2021-08-24T09:06:01Z</time>
      </trkpt>
      <trkpt lat="45.26132" lon="2.92821">
        <ele>1163.8</ele>
        <time>2021-08-24T09:06:03Z</time>
      </trkpt>
      <trkpt lat="45.26136" lon="2.9282">
        <ele>1164.1</ele>
        <time>2021-08-24T09:06:05Z</time>
      </trkpt>
      <trkpt lat="45.26141" lon="2.9282">
        <ele>1164.5</ele>
        <time>2021-08-24T09:06:07Z</time>
      </trkpt>
      <trkpt lat="45.26145" lon="2.92819">
        <ele>1164.9</ele>
        <time>2021-08-24T09:06:09Z</time>
      </trkpt>
      <trkpt lat="45.2615" lon="2.92818">
        <ele>1165.3</ele>
        <time>2021-08-24T09:06:11Z</time>
      </trkpt>
      <trkpt lat="45.26154" lon="2.92817">
        <ele>1165.7</ele>
        <time>2021-08-24T09:06:13Z</time>
      </trkpt>
      <trkpt lat="45.26159" lon="2.92817">
        <ele>1166.2</ele>
        <time>2021-08-24T09:06:15Z</time>
      </trkpt>
      <trkpt lat="45.26164" lon="2.92815">
        <ele>1166.5</ele>
        <time>2021-08-24T09:06:17Z</time>
      </trkpt>
      <trkpt lat="45.26169" lon="2.92814">
        <ele>1166.8</ele>
        <time>2021-08-24T09:06:19Z</time>
      </trkpt>
      <trkpt lat="45.26173" lon="2.92814">
        <ele>1167</ele>
        <time>2021-08-24T09:06:21Z</time>
      </trkpt>
      <trkpt lat="45.26178" lon="2.92814">
        <ele>1167.2</ele>
        <time>2021-08-24T09:06:23Z</time>
      </trkpt>
      <trkpt lat="45.26182" lon="2.92813">
        <ele>1167.4</ele>
        <time>2021-08-24T09:06:25Z</time>
      </trkpt>
      <trkpt lat="45.26187" lon="2.92812">
        <ele>1167.5</ele>
        <time>2021-08-24T09:06:27Z</time>
      </trkpt>
      <trkpt lat="45.26192" lon="2.92811">
        <ele>1167.7</ele>
        <time>2021-08-24T09:06:29Z</time>
      </trkpt>
      <trkpt lat="45.26197" lon="2.9281">
        <ele>1167.8</ele>
        <time>2021-08-24T09:06:31Z</time>
      </trkpt>
      <trkpt lat="45.26201" lon="2.92809">
        <ele>1168</ele>
        <time>2021-08-24T09:06:33Z</time>
      </trkpt>
      <trkpt lat="45.26206" lon="2.92808">
        <ele>1168.1</ele>
        <time>2021-08-24T09:06:35Z</time>
      </trkpt>
      <trkpt lat="45.26211" lon="2.92806">
        <ele>1168.2</ele>
        <time>2021-08-24T09:06:37Z</time>
      </trkpt>
      <trkpt lat="45.26215" lon="2.92804">
        <ele>1168.2</ele>
        <time>2021-08-24T09:06:39Z</time>
      </trkpt>
      <trkpt lat="45.2622" lon="2.92801">
        <ele>1168.2</ele>
        <time>2021-08-24T09:06:41Z</time>
      </trkpt>
      <trkpt lat="45.26224" lon="2.92797">
        <ele>1168.2</ele>
        <time>2021-08-24T09:06:43Z</time>
      </trkpt>
      <trkpt lat="45.26228" lon="2.92793">
        <ele>1168.2</ele>
        <time>2021-08-24T09:06:45Z</time>
      </trkpt>
      <trkpt lat="45.26233" lon="2.92789">
        <ele>1168.2</ele>
        <time>2021-08-24T09:06:47Z</time>
      </trkpt>
      <trkpt lat="45.26238" lon="2.92784">
        <ele>1168.1</ele>
        <time>2021-08-24T09:06:49Z</time>
      </trkpt>
      <trkpt lat="45.26242" lon="2.92778">
        <ele>1168.1</ele>
        <time>2021-08-24T09:06:51Z</time>
      </trkpt>
      <trkpt lat="45.26246" lon="2.92772">
        <ele>1168</ele>
        <time>2021-08-24T09:06:53Z</time>
      </trkpt>
      <trkpt lat="45.2625" lon="2.92765">
        <ele>1167.9</ele>
        <time>2021-08-24T09:06:55Z</time>
      </trkpt>
      <trkpt lat="45.26254" lon="2.92758">
        <ele>1167.9</ele>
        <time>2021-08-24T09:06:57Z</time>
      </trkpt>
      <trkpt lat="45.26257" lon="2.92749">
        <ele>1167.7</ele>
        <time>2021-08-24T09:06:59Z</time>
      </trkpt>
      <trkpt lat="45.2626" lon="2.92741">
        <ele>1167.8</ele>
        <time>2021-08-24T09:07:01Z</time>
      </trkpt>
      <trkpt lat="45.26262" lon="2.9273">
        <ele>1167.7</ele>
        <time>2021-08-24T09:07:03Z</time>
      </trkpt>
      <trkpt lat="45.26265" lon="2.9272">
        <ele>1167.7</ele>
        <time>2021-08-24T09:07:05Z</time>
      </trkpt>
      <trkpt lat="45.26266" lon="2.9271">
        <ele>1167.6</ele>
        <time>2021-08-24T09:07:07Z</time>
      </trkpt>
      <trkpt lat="45.26267" lon="2.92699">
        <ele>1167.4</ele>
        <time>2021-08-24T09:07:09Z</time>
      </trkpt>
      <trkpt lat="45.26269" lon="2.92689">
        <ele>1167.4</ele>
        <time>2021-08-24T09:07:11Z</time>
      </trkpt>
      <trkpt lat="45.2627" lon="2.92679">
        <ele>1167.3</ele>
        <time>2021-08-24T09:07:13Z</time>
      </trkpt>
      <trkpt lat="45.26272" lon="2.9267">
        <ele>1167.2</ele>
        <time>2021-08-24T09:07:15Z</time>
      </trkpt>
      <trkpt lat="45.26273" lon="2.9266">
        <ele>1167.2</ele>
        <time>2021-08-24T09:07:17Z</time>
      </trkpt>
      <trkpt lat="45.26275" lon="2.9265">
        <ele>1167.3</ele>
        <time>2021-08-24T09:07:19Z</time>
      </trkpt>
      <trkpt lat="45.26276" lon="2.92639">
        <ele>1167.4</ele>
        <time>2021-08-24T09:07:21Z</time>
      </trkpt>
      <trkpt lat="45.26278" lon="2.92628">
        <ele>1167.5</ele>
        <time>2021-08-24T09:07:23Z</time>
      </trkpt>
      <trkpt lat="45.26279" lon="2.92618">
        <ele>1167.7</ele>
        <time>2021-08-24T09:07:25Z</time>
      </trkpt>
      <trkpt lat="45.26281" lon="2.92608">
        <ele>1167.9</ele>
        <time>2021-08-24T09:07:27Z</time>
      </trkpt>
      <trkpt lat="45.26283" lon="2.92598">
        <ele>1168.2</ele>
        <time>2021-08-24T09:07:29Z</time>
      </trkpt>
      <trkpt lat="45.26286" lon="2.92588">
        <ele>1168.5</ele>
        <time>2021-08-24T09:07:31Z</time>
      </trkpt>
      <trkpt lat="45.26288" lon="2.92579">
        <ele>1168.9</ele>
        <time>2021-08-24T09:07:33Z</time>
      </trkpt>
      <trkpt lat="45.26292" lon="2.9257">
        <ele>1169.4</ele>
        <time>2021-08-24T09:07:35Z</time>
      </trkpt>
      <trkpt lat="45.26294" lon="2.9256">
        <ele>1169.8</ele>
        <time>2021-08-24T09:07:37Z</time>
      </trkpt>
      <trkpt lat="45.26298" lon="2.92551">
        <ele>1170.3</ele>
        <time>2021-08-24T09:07:39Z</time>
      </trkpt>
      <trkpt lat="45.26301" lon="2.92542">
        <ele>1170.8</ele>
        <time>2021-08-24T09:07:41Z</time>
      </trkpt>
      <trkpt lat="45.26304" lon="2.92533">
        <ele>1171.3</ele>
        <time>2021-08-24T09:07:43Z</time>
      </trkpt>
      <trkpt lat="45.26307" lon="2.92525">
        <ele>1171.9</ele>
        <time>2021-08-24T09:07:45Z</time>
      </trkpt>
      <trkpt lat="45.26311" lon="2.92517">
        <ele>1172.4</ele>
        <time>2021-08-24T09:07:47Z</time>
      </trkpt>
      <trkpt lat="45.26315" lon="2.92509">
        <ele>1173</ele>
        <time>2021-08-24T09:07:49Z</time>
      </trkpt>
      <trkpt lat="45.26319" lon="2.92502">
        <ele>1173.7</ele>
        <time>2021-08-24T09:07:51Z</time>
      </trkpt>
      <trkpt lat="45.26324" lon="2.92495">
        <ele>1174.1</ele>
        <time>2021-08-24T09:07:53Z</time>
      </trkpt>
      <trkpt lat="45.26329" lon="2.92488">
        <ele>1174.5</ele>
        <time>2021-08-24T09:07:55Z</time>
      </trkpt>
      <trkpt lat="45.26334" lon="2.92481">
        <ele>1174.8</ele>
        <time>2021-08-24T09:07:57Z</time>
      </trkpt>
      <trkpt lat="45.26339" lon="2.92475">
        <ele>1174.7</ele>
        <time>2021-08-24T09:07:59Z</time>
      </trkpt>
      <trkpt lat="45.26345" lon="2.92469">
        <ele>1174.8</ele>
        <time>2021-08-24T09:08:01Z</time>
      </trkpt>
      <trkpt lat="45.2635" lon="2.92463">
        <ele>1174.8</ele>
        <time>2021-08-24T09:08:03Z</time>
      </trkpt>
      <trkpt lat="45.26356" lon="2.92457">
        <ele>1174.8</ele>
        <time>2021-08-24T09:08:05Z</time>
      </trkpt>
      <trkpt lat="45.26361" lon="2.92452">
        <ele>1174.8</ele>
        <time>2021-08-24T09:08:07Z</time>
      </trkpt>
      <trkpt lat="45.26366" lon="2.92446">
        <ele>1174.7</ele>
        <time>2021-08-24T09:08:09Z</time>
      </trkpt>
      <trkpt lat="45.26371" lon="2.9244">
        <ele>1174.7</ele>
        <time>2021-08-24T09:08:11Z</time>
      </trkpt>
      <trkpt lat="45.26377" lon="2.92435">
        <ele>1174.7</ele>
        <time>2021-08-24T09:08:13Z</time>
      </trkpt>
      <trkpt lat="45.26382" lon="2.9243">
        <ele>1174.6</ele>
        <time>2021-08-24T09:08:15Z</time>
      </trkpt>
      <trkpt lat="45.26388" lon="2.92426">
        <ele>1174.8</ele>
        <time>2021-08-24T09:08:17Z</time>
      </trkpt>
      <trkpt lat="45.26394" lon="2.92423">
        <ele>1174.9</ele>
        <time>2021-08-24T09:08:19Z</time>
      </trkpt>
      <trkpt lat="45.264" lon="2.92421">
        <ele>1175.1</ele>
        <time>2021-08-24T09:08:21Z</time>
      </trkpt>
      <trkpt lat="45.26406" lon="2.92419">
        <ele>1175.5</ele>
        <time>2021-08-24T09:08:23Z</time>
      </trkpt>
      <trkpt lat="45.26413" lon="2.92419">
        <ele>1175.9</ele>
        <time>2021-08-24T09:08:25Z</time>
      </trkpt>
      <trkpt lat="45.26419" lon="2.92419">
        <ele>1176.2</ele>
        <time>2021-08-24T09:08:27Z</time>
      </trkpt>
      <trkpt lat="45.26426" lon="2.9242">
        <ele>1176.2</ele>
        <time>2021-08-24T09:08:29Z</time>
      </trkpt>
      <trkpt lat="45.26432" lon="2.92421">
        <ele>1176.2</ele>
        <time>2021-08-24T09:08:31Z</time>
      </trkpt>
      <trkpt lat="45.26438" lon="2.92422">
        <ele>1176.2</ele>
        <time>2021-08-24T09:08:33Z</time>
      </trkpt>
      <trkpt lat="45.26444" lon="2.92423">
        <ele>1176.3</ele>
        <time>2021-08-24T09:08:35Z</time>
      </trkpt>
      <trkpt lat="45.2645" lon="2.92425">
        <ele>1176.3</ele>
        <time>2021-08-24T09:08:37Z</time>
      </trkpt>
      <trkpt lat="45.26456" lon="2.92426">
        <ele>1176.3</ele>
        <time>2021-08-24T09:08:39Z</time>
      </trkpt>
      <trkpt lat="45.26462" lon="2.92427">
        <ele>1176.4</ele>
        <time>2021-08-24T09:08:41Z</time>
      </trkpt>
      <trkpt lat="45.26468" lon="2.92427">
        <ele>1176.3</ele>
        <time>2021-08-24T09:08:43Z</time>
      </trkpt>
      <trkpt lat="45.26474" lon="2.92428">
        <ele>1176.3</ele>
        <time>2021-08-24T09:08:45Z</time>
      </trkpt>
      <trkpt lat="45.2648" lon="2.92429">
        <ele>1176.3</ele>
        <time>2021-08-24T09:08:47Z</time>
      </trkpt>
      <trkpt lat="45.26485" lon="2.92431">
        <ele>1176.4</ele>
        <time>2021-08-24T09:08:49Z</time>
      </trkpt>
      <trkpt lat="45.26491" lon="2.92431">
        <ele>1176.4</ele>
        <time>2021-08-24T09:08:51Z</time>
      </trkpt>
      <trkpt lat="45.26497" lon="2.92432">
        <ele>1176.4</ele>
        <time>2021-08-24T09:08:53Z</time>
      </trkpt>
      <trkpt lat="45.26503" lon="2.92433">
        <ele>1176.3</ele>
        <time>2021-08-24T09:08:55Z</time>
      </trkpt>
      <trkpt lat="45.26508" lon="2.92434">
        <ele>1176.3</ele>
        <time>2021-08-24T09:08:57Z</time>
      </trkpt>
      <trkpt lat="45.26513" lon="2.92436">
        <ele>1176.5</ele>
        <time>2021-08-24T09:08:59Z</time>
      </trkpt>
      <trkpt lat="45.26519" lon="2.92436">
        <ele>1176.4</ele>
        <time>2021-08-24T09:09:01Z</time>
      </trkpt>
      <trkpt lat="45.26524" lon="2.92437">
        <ele>1176.5</ele>
        <time>2021-08-24T09:09:03Z</time>
      </trkpt>
      <trkpt lat="45.26529" lon="2.92437">
        <ele>1176.5</ele>
        <time>2021-08-24T09:09:05Z</time>
      </trkpt>
      <trkpt lat="45.26535" lon="2.92438">
        <ele>1176.5</ele>
        <time>2021-08-24T09:09:07Z</time>
      </trkpt>
      <trkpt lat="45.26539" lon="2.92439">
        <ele>1176.6</ele>
        <time>2021-08-24T09:09:09Z</time>
      </trkpt>
      <trkpt lat="45.26543" lon="2.92441">
        <ele>1176.7</ele>
        <time>2021-08-24T09:09:11Z</time>
      </trkpt>
      <trkpt lat="45.26547" lon="2.9244">
        <ele>1176.6</ele>
        <time>2021-08-24T09:09:13Z</time>
      </trkpt>
      <trkpt lat="45.26551" lon="2.92441">
        <ele>1176.6</ele>
        <time>2021-08-24T09:09:15Z</time>
      </trkpt>
      <trkpt lat="45.26557" lon="2.92443">
        <ele>1176.7</ele>
        <time>2021-08-24T09:09:17Z</time>
      </trkpt>
      <trkpt lat="45.26562" lon="2.92444">
        <ele>1176.8</ele>
        <time>2021-08-24T09:09:19Z</time>
      </trkpt>
      <trkpt lat="45.26568" lon="2.92445">
        <ele>1176.8</ele>
        <time>2021-08-24T09:09:21Z</time>
      </trkpt>
      <trkpt lat="45.26574" lon="2.92446">
        <ele>1176.9</ele>
        <time>2021-08-24T09:09:23Z</time>
      </trkpt>
      <trkpt lat="45.26581" lon="2.92448">
        <ele>1177.1</ele>
        <time>2021-08-24T09:09:25Z</time>
      </trkpt>
      <trkpt lat="45.26588" lon="2.9245">
        <ele>1177.1</ele>
        <time>2021-08-24T09:09:27Z</time>
      </trkpt>
      <trkpt lat="45.26595" lon="2.92452">
        <ele>1177.1</ele>
        <time>2021-08-24T09:09:29Z</time>
      </trkpt>
      <trkpt lat="45.26603" lon="2.92453">
        <ele>1177.1</ele>
        <time>2021-08-24T09:09:31Z</time>
      </trkpt>
      <trkpt lat="45.26611" lon="2.92455">
        <ele>1177</ele>
        <time>2021-08-24T09:09:33Z</time>
      </trkpt>
      <trkpt lat="45.26619" lon="2.92457">
        <ele>1177</ele>
        <time>2021-08-24T09:09:35Z</time>
      </trkpt>
      <trkpt lat="45.26628" lon="2.92459">
        <ele>1176.9</ele>
        <time>2021-08-24T09:09:37Z</time>
      </trkpt>
      <trkpt lat="45.26637" lon="2.92461">
        <ele>1177</ele>
        <time>2021-08-24T09:09:39Z</time>
      </trkpt>
      <trkpt lat="45.26647" lon="2.92464">
        <ele>1177</ele>
        <time>2021-08-24T09:09:41Z</time>
      </trkpt>
      <trkpt lat="45.26656" lon="2.92466">
        <ele>1177</ele>
        <time>2021-08-24T09:09:43Z</time>
      </trkpt>
      <trkpt lat="45.26666" lon="2.92468">
        <ele>1177</ele>
        <time>2021-08-24T09:09:45Z</time>
      </trkpt>
      <trkpt lat="45.26676" lon="2.92468">
        <ele>1177.3</ele>
        <time>2021-08-24T09:09:47Z</time>
      </trkpt>
      <trkpt lat="45.26685" lon="2.92466">
        <ele>1177.4</ele>
        <time>2021-08-24T09:09:49Z</time>
      </trkpt>
      <trkpt lat="45.26694" lon="2.92463">
        <ele>1177.4</ele>
        <time>2021-08-24T09:09:51Z</time>
      </trkpt>
      <trkpt lat="45.26702" lon="2.9246">
        <ele>1177.5</ele>
        <time>2021-08-24T09:09:53Z</time>
      </trkpt>
      <trkpt lat="45.2671" lon="2.92458">
        <ele>1177.6</ele>
        <time>2021-08-24T09:09:55Z</time>
      </trkpt>
      <trkpt lat="45.26717" lon="2.92458">
        <ele>1177.8</ele>
        <time>2021-08-24T09:09:57Z</time>
      </trkpt>
      <trkpt lat="45.26725" lon="2.92458">
        <ele>1178.1</ele>
        <time>2021-08-24T09:09:59Z</time>
      </trkpt>
      <trkpt lat="45.26732" lon="2.92458">
        <ele>1178.3</ele>
        <time>2021-08-24T09:10:01Z</time>
      </trkpt>
      <trkpt lat="45.26739" lon="2.92459">
        <ele>1178.6</ele>
        <time>2021-08-24T09:10:03Z</time>
      </trkpt>
      <trkpt lat="45.26746" lon="2.92459">
        <ele>1179</ele>
        <time>2021-08-24T09:10:05Z</time>
      </trkpt>
      <trkpt lat="45.26753" lon="2.9246">
        <ele>1179.1</ele>
        <time>2021-08-24T09:10:07Z</time>
      </trkpt>
      <trkpt lat="45.26759" lon="2.9246">
        <ele>1179.1</ele>
        <time>2021-08-24T09:10:09Z</time>
      </trkpt>
      <trkpt lat="45.26766" lon="2.92461">
        <ele>1179.2</ele>
        <time>2021-08-24T09:10:11Z</time>
      </trkpt>
      <trkpt lat="45.26772" lon="2.92461">
        <ele>1179.1</ele>
        <time>2021-08-24T09:10:13Z</time>
      </trkpt>
      <trkpt lat="45.26778" lon="2.92462">
        <ele>1179.2</ele>
        <time>2021-08-24T09:10:15Z</time>
      </trkpt>
      <trkpt lat="45.26784" lon="2.92463">
        <ele>1179.3</ele>
        <time>2021-08-24T09:10:17Z</time>
      </trkpt>
      <trkpt lat="45.2679" lon="2.92464">
        <ele>1179.4</ele>
        <time>2021-08-24T09:10:19Z</time>
      </trkpt>
      <trkpt lat="45.26797" lon="2.92466">
        <ele>1179.5</ele>
        <time>2021-08-24T09:10:21Z</time>
      </trkpt>
      <trkpt lat="45.26803" lon="2.92467">
        <ele>1179.5</ele>
        <time>2021-08-24T09:10:23Z</time>
      </trkpt>
      <trkpt lat="45.26809" lon="2.92468">
        <ele>1179.7</ele>
        <time>2021-08-24T09:10:25Z</time>
      </trkpt>
      <trkpt lat="45.26814" lon="2.92468">
        <ele>1179.7</ele>
        <time>2021-08-24T09:10:27Z</time>
      </trkpt>
      <trkpt lat="45.26817" lon="2.92468">
        <ele>1179.6</ele>
        <time>2021-08-24T09:10:29Z</time>
      </trkpt>
      <trkpt lat="45.26822" lon="2.92468">
        <ele>1179.6</ele>
        <time>2021-08-24T09:10:31Z</time>
      </trkpt>
      <trkpt lat="45.26827" lon="2.9247">
        <ele>1179.8</ele>
        <time>2021-08-24T09:10:33Z</time>
      </trkpt>
      <trkpt lat="45.26831" lon="2.92471">
        <ele>1179.9</ele>
        <time>2021-08-24T09:10:35Z</time>
      </trkpt>
      <trkpt lat="45.26836" lon="2.92472">
        <ele>1179.9</ele>
        <time>2021-08-24T09:10:37Z</time>
      </trkpt>
      <trkpt lat="45.2684" lon="2.92471">
        <ele>1179.8</ele>
        <time>2021-08-24T09:10:39Z</time>
      </trkpt>
      <trkpt lat="45.26844" lon="2.92471">
        <ele>1179.7</ele>
        <time>2021-08-24T09:10:41Z</time>
      </trkpt>
      <trkpt lat="45.26849" lon="2.9247">
        <ele>1179.5</ele>
        <time>2021-08-24T09:10:43Z</time>
      </trkpt>
      <trkpt lat="45.26855" lon="2.92468">
        <ele>1179.2</ele>
        <time>2021-08-24T09:10:45Z</time>
      </trkpt>
      <trkpt lat="45.26863" lon="2.92465">
        <ele>1178.7</ele>
        <time>2021-08-24T09:10:47Z</time>
      </trkpt>
      <trkpt lat="45.26871" lon="2.92463">
        <ele>1178.3</ele>
        <time>2021-08-24T09:10:49Z</time>
      </trkpt>
      <trkpt lat="45.2688" lon="2.92458">
        <ele>1177.7</ele>
        <time>2021-08-24T09:10:51Z</time>
      </trkpt>
      <trkpt lat="45.26891" lon="2.92453">
        <ele>1176.9</ele>
        <time>2021-08-24T09:10:53Z</time>
      </trkpt>
      <trkpt lat="45.26899" lon="2.92449">
        <ele>1176.2</ele>
        <time>2021-08-24T09:10:55Z</time>
      </trkpt>
      <trkpt lat="45.26909" lon="2.92446">
        <ele>1175.7</ele>
        <time>2021-08-24T09:10:57Z</time>
      </trkpt>
      <trkpt lat="45.26918" lon="2.92448">
        <ele>1175.7</ele>
        <time>2021-08-24T09:10:59Z</time>
      </trkpt>
      <trkpt lat="45.26926" lon="2.9245">
        <ele>1176</ele>
        <time>2021-08-24T09:11:01Z</time>
      </trkpt>
      <trkpt lat="45.26934" lon="2.92452">
        <ele>1176.1</ele>
        <time>2021-08-24T09:11:03Z</time>
      </trkpt>
      <trkpt lat="45.26942" lon="2.92453">
        <ele>1176.2</ele>
        <time>2021-08-24T09:11:05Z</time>
      </trkpt>
      <trkpt lat="45.2695" lon="2.92454">
        <ele>1176.4</ele>
        <time>2021-08-24T09:11:07Z</time>
      </trkpt>
      <trkpt lat="45.26957" lon="2.92455">
        <ele>1176.4</ele>
        <time>2021-08-24T09:11:09Z</time>
      </trkpt>
      <trkpt lat="45.26964" lon="2.92456">
        <ele>1176.5</ele>
        <time>2021-08-24T09:11:11Z</time>
      </trkpt>
      <trkpt lat="45.26971" lon="2.92458">
        <ele>1176.6</ele>
        <time>2021-08-24T09:11:13Z</time>
      </trkpt>
      <trkpt lat="45.26976" lon="2.92457">
        <ele>1176.5</ele>
        <time>2021-08-24T09:11:15Z</time>
      </trkpt>
      <trkpt lat="45.2698" lon="2.92456">
        <ele>1176.4</ele>
        <time>2021-08-24T09:11:17Z</time>
      </trkpt>
      <trkpt lat="45.26983" lon="2.92455">
        <ele>1176.3</ele>
        <time>2021-08-24T09:11:19Z</time>
      </trkpt>
      <trkpt lat="45.26985" lon="2.92455">
        <ele>1176.3</ele>
        <time>2021-08-24T09:11:21Z</time>
      </trkpt>
      <trkpt lat="45.26987" lon="2.92456">
        <ele>1176.4</ele>
        <time>2021-08-24T09:11:23Z</time>
      </trkpt>
      <trkpt lat="45.26987" lon="2.92456">
        <ele>1176.4</ele>
        <time>2021-08-24T09:11:25Z</time>
      </trkpt>
      <trkpt lat="45.26987" lon="2.92456">
        <ele>1176.4</ele>
        <time>2021-08-24T09:11:27Z</time>
      </trkpt>
      <trkpt lat="45.26987" lon="2.92456">
        <ele>1176.4</ele>
        <time>2021-08-24T09:11:29Z</time>
      </trkpt>
      <trkpt lat="45.26988" lon="2.92456">
        <ele>1176.4</ele>
        <time>2021-08-24T09:11:31Z</time>
      </trkpt>
      <trkpt lat="45.27005" lon="2.9247">
        <ele>1177.4</ele>
        <time>2021-08-24T09:21:45Z</time>
      </trkpt>
      <trkpt lat="45.27009" lon="2.92473">
        <ele>1177.5</ele>
        <time>2021-08-24T09:21:47Z</time>
      </trkpt>
      <trkpt lat="45.27012" lon="2.92476">
        <ele>1177.8</ele>
        <time>2021-08-24T09:21:49Z</time>
      </trkpt>
      <trkpt lat="45.27016" lon="2.92478">
        <ele>1177.8</ele>
        <time>2021-08-24T09:21:51Z</time>
      </trkpt>
      <trkpt lat="45.2702" lon="2.9248">
        <ele>1177.9</ele>
        <time>2021-08-24T09:21:53Z</time>
      </trkpt>
      <trkpt lat="45.27024" lon="2.92482">
        <ele>1178</ele>
        <time>2021-08-24T09:21:55Z</time>
      </trkpt>
      <trkpt lat="45.27026" lon="2.92484">
        <ele>1178.1</ele>
        <time>2021-08-24T09:21:57Z</time>
      </trkpt>
      <trkpt lat="45.2703" lon="2.92486">
        <ele>1178.2</ele>
        <time>2021-08-24T09:21:59Z</time>
      </trkpt>
      <trkpt lat="45.27033" lon="2.92489">
        <ele>1178.4</ele>
        <time>2021-08-24T09:22:01Z</time>
      </trkpt>
      <trkpt lat="45.27037" lon="2.92492">
        <ele>1178.5</ele>
        <time>2021-08-24T09:22:03Z</time>
      </trkpt>
      <trkpt lat="45.2704" lon="2.92496">
        <ele>1178.7</ele>
        <time>2021-08-24T09:22:05Z</time>
      </trkpt>
      <trkpt lat="45.27043" lon="2.92499">
        <ele>1178.9</ele>
        <time>2021-08-24T09:22:07Z</time>
      </trkpt>
      <trkpt lat="45.27045" lon="2.92503">
        <ele>1179.3</ele>
        <time>2021-08-24T09:22:09Z</time>
      </trkpt>
      <trkpt lat="45.27049" lon="2.92506">
        <ele>1179.5</ele>
        <time>2021-08-24T09:22:11Z</time>
      </trkpt>
      <trkpt lat="45.27052" lon="2.92508">
        <ele>1179.8</ele>
        <time>2021-08-24T09:22:13Z</time>
      </trkpt>
      <trkpt lat="45.27054" lon="2.92512">
        <ele>1180.1</ele>
        <time>2021-08-24T09:22:15Z</time>
      </trkpt>
      <trkpt lat="45.27057" lon="2.92514">
        <ele>1180.3</ele>
        <time>2021-08-24T09:22:17Z</time>
      </trkpt>
      <trkpt lat="45.27059" lon="2.92517">
        <ele>1180.6</ele>
        <time>2021-08-24T09:22:19Z</time>
      </trkpt>
      <trkpt lat="45.27062" lon="2.9252">
        <ele>1181</ele>
        <time>2021-08-24T09:22:21Z</time>
      </trkpt>
      <trkpt lat="45.27064" lon="2.92523">
        <ele>1181.2</ele>
        <time>2021-08-24T09:22:23Z</time>
      </trkpt>
      <trkpt lat="45.27067" lon="2.92526">
        <ele>1181.6</ele>
        <time>2021-08-24T09:22:25Z</time>
      </trkpt>
      <trkpt lat="45.27069" lon="2.92529">
        <ele>1181.8</ele>
        <time>2021-08-24T09:22:27Z</time>
      </trkpt>
      <trkpt lat="45.27072" lon="2.92532">
        <ele>1182.2</ele>
        <time>2021-08-24T09:22:29Z</time>
      </trkpt>
      <trkpt lat="45.27074" lon="2.92535">
        <ele>1182.4</ele>
        <time>2021-08-24T09:22:31Z</time>
      </trkpt>
      <trkpt lat="45.27076" lon="2.92538">
        <ele>1182.7</ele>
        <time>2021-08-24T09:22:33Z</time>
      </trkpt>
      <trkpt lat="45.27079" lon="2.92541">
        <ele>1183</ele>
        <time>2021-08-24T09:22:35Z</time>
      </trkpt>
      <trkpt lat="45.27082" lon="2.92542">
        <ele>1183.1</ele>
        <time>2021-08-24T09:22:37Z</time>
      </trkpt>
      <trkpt lat="45.27084" lon="2.92545">
        <ele>1183.3</ele>
        <time>2021-08-24T09:22:39Z</time>
      </trkpt>
      <trkpt lat="45.27087" lon="2.92547">
        <ele>1183.4</ele>
        <time>2021-08-24T09:22:41Z</time>
      </trkpt>
      <trkpt lat="45.27089" lon="2.92551">
        <ele>1183.7</ele>
        <time>2021-08-24T09:22:43Z</time>
      </trkpt>
      <trkpt lat="45.27091" lon="2.92554">
        <ele>1184</ele>
        <time>2021-08-24T09:22:45Z</time>
      </trkpt>
      <trkpt lat="45.27094" lon="2.92556">
        <ele>1184</ele>
        <time>2021-08-24T09:22:47Z</time>
      </trkpt>
      <trkpt lat="45.27096" lon="2.92558">
        <ele>1184.2</ele>
        <time>2021-08-24T09:22:49Z</time>
      </trkpt>
      <trkpt lat="45.27098" lon="2.92561">
        <ele>1184.3</ele>
        <time>2021-08-24T09:22:51Z</time>
      </trkpt>
      <trkpt lat="45.271" lon="2.92564">
        <ele>1184.6</ele>
        <time>2021-08-24T09:22:53Z</time>
      </trkpt>
      <trkpt lat="45.27102" lon="2.92567">
        <ele>1184.8</ele>
        <time>2021-08-24T09:22:55Z</time>
      </trkpt>
      <trkpt lat="45.27105" lon="2.92569">
        <ele>1185</ele>
        <time>2021-08-24T09:22:57Z</time>
      </trkpt>
      <trkpt lat="45.27107" lon="2.92572">
        <ele>1185.2</ele>
        <time>2021-08-24T09:22:59Z</time>
      </trkpt>
      <trkpt lat="45.27109" lon="2.92575">
        <ele>1185.4</ele>
        <time>2021-08-24T09:23:01Z</time>
      </trkpt>
      <trkpt lat="45.27112" lon="2.92578">
        <ele>1185.6</ele>
        <time>2021-08-24T09:23:03Z</time>
      </trkpt>
      <trkpt lat="45.27114" lon="2.92581">
        <ele>1185.8</ele>
        <time>2021-08-24T09:23:05Z</time>
      </trkpt>
      <trkpt lat="45.27116" lon="2.92584">
        <ele>1186.1</ele>
        <time>2021-08-24T09:23:07Z</time>
      </trkpt>
      <trkpt lat="45.27119" lon="2.92586">
        <ele>1186.4</ele>
        <time>2021-08-24T09:23:09Z</time>
      </trkpt>
      <trkpt lat="45.27122" lon="2.92588">
        <ele>1186.7</ele>
        <time>2021-08-24T09:23:11Z</time>
      </trkpt>
      <trkpt lat="45.27124" lon="2.92592">
        <ele>1187.2</ele>
        <time>2021-08-24T09:23:13Z</time>
      </trkpt>
      <trkpt lat="45.27127" lon="2.92595">
        <ele>1187.7</ele>
        <time>2021-08-24T09:23:15Z</time>
      </trkpt>
      <trkpt lat="45.2713" lon="2.92598">
        <ele>1188</ele>
        <time>2021-08-24T09:23:17Z</time>
      </trkpt>
      <trkpt lat="45.27132" lon="2.926">
        <ele>1188.4</ele>
        <time>2021-08-24T09:23:19Z</time>
      </trkpt>
      <trkpt lat="45.27135" lon="2.92603">
        <ele>1188.7</ele>
        <time>2021-08-24T09:23:21Z</time>
      </trkpt>
      <trkpt lat="45.27137" lon="2.92606">
        <ele>1189.1</ele>
        <time>2021-08-24T09:23:23Z</time>
      </trkpt>
      <trkpt lat="45.27139" lon="2.92609">
        <ele>1189.5</ele>
        <time>2021-08-24T09:23:25Z</time>
      </trkpt>
      <trkpt lat="45.27141" lon="2.92611">
        <ele>1189.8</ele>
        <time>2021-08-24T09:23:27Z</time>
      </trkpt>
      <trkpt lat="45.27143" lon="2.92614">
        <ele>1190.1</ele>
        <time>2021-08-24T09:23:29Z</time>
      </trkpt>
      <trkpt lat="45.27146" lon="2.92617">
        <ele>1190.5</ele>
        <time>2021-08-24T09:23:31Z</time>
      </trkpt>
      <trkpt lat="45.27148" lon="2.9262">
        <ele>1191</ele>
        <time>2021-08-24T09:23:33Z</time>
      </trkpt>
      <trkpt lat="45.2715" lon="2.92623">
        <ele>1191.5</ele>
        <time>2021-08-24T09:23:35Z</time>
      </trkpt>
      <trkpt lat="45.27153" lon="2.92626">
        <ele>1191.7</ele>
        <time>2021-08-24T09:23:37Z</time>
      </trkpt>
      <trkpt lat="45.27156" lon="2.92628">
        <ele>1192</ele>
        <time>2021-08-24T09:23:39Z</time>
      </trkpt>
      <trkpt lat="45.27158" lon="2.92631">
        <ele>1192.2</ele>
        <time>2021-08-24T09:23:41Z</time>
      </trkpt>
      <trkpt lat="45.27161" lon="2.92634">
        <ele>1192.5</ele>
        <time>2021-08-24T09:23:43Z</time>
      </trkpt>
      <trkpt lat="45.27162" lon="2.92637">
        <ele>1192.9</ele>
        <time>2021-08-24T09:23:45Z</time>
      </trkpt>
      <trkpt lat="45.27165" lon="2.92639">
        <ele>1193.2</ele>
        <time>2021-08-24T09:23:47Z</time>
      </trkpt>
      <trkpt lat="45.27167" lon="2.92642">
        <ele>1193.5</ele>
        <time>2021-08-24T09:23:49Z</time>
      </trkpt>
      <trkpt lat="45.27169" lon="2.92645">
        <ele>1193.7</ele>
        <time>2021-08-24T09:23:51Z</time>
      </trkpt>
      <trkpt lat="45.27172" lon="2.92647">
        <ele>1193.9</ele>
        <time>2021-08-24T09:23:53Z</time>
      </trkpt>
      <trkpt lat="45.27174" lon="2.92651">
        <ele>1194.2</ele>
        <time>2021-08-24T09:23:55Z</time>
      </trkpt>
      <trkpt lat="45.27177" lon="2.92654">
        <ele>1194.4</ele>
        <time>2021-08-24T09:23:57Z</time>
      </trkpt>
      <trkpt lat="45.27179" lon="2.92657">
        <ele>1194.6</ele>
        <time>2021-08-24T09:23:59Z</time>
      </trkpt>
      <trkpt lat="45.27182" lon="2.92659">
        <ele>1194.6</ele>
        <time>2021-08-24T09:24:01Z</time>
      </trkpt>
      <trkpt lat="45.27184" lon="2.92662">
        <ele>1194.7</ele>
        <time>2021-08-24T09:24:03Z</time>
      </trkpt>
      <trkpt lat="45.27187" lon="2.92665">
        <ele>1194.8</ele>
        <time>2021-08-24T09:24:05Z</time>
      </trkpt>
      <trkpt lat="45.27189" lon="2.92666">
        <ele>1194.7</ele>
        <time>2021-08-24T09:24:07Z</time>
      </trkpt>
      <trkpt lat="45.27191" lon="2.92669">
        <ele>1194.9</ele>
        <time>2021-08-24T09:24:09Z</time>
      </trkpt>
      <trkpt lat="45.27193" lon="2.92673">
        <ele>1195.2</ele>
        <time>2021-08-24T09:24:11Z</time>
      </trkpt>
      <trkpt lat="45.27195" lon="2.92675">
        <ele>1195.3</ele>
        <time>2021-08-24T09:24:13Z</time>
      </trkpt>
      <trkpt lat="45.27197" lon="2.92677">
        <ele>1195.4</ele>
        <time>2021-08-24T09:24:15Z</time>
      </trkpt>
      <trkpt lat="45.27199" lon="2.9268">
        <ele>1195.6</ele>
        <time>2021-08-24T09:24:17Z</time>
      </trkpt>
      <trkpt lat="45.27202" lon="2.92683">
        <ele>1195.6</ele>
        <time>2021-08-24T09:24:19Z</time>
      </trkpt>
      <trkpt lat="45.27205" lon="2.92686">
        <ele>1195.7</ele>
        <time>2021-08-24T09:24:21Z</time>
      </trkpt>
      <trkpt lat="45.27206" lon="2.92688">
        <ele>1195.8</ele>
        <time>2021-08-24T09:24:23Z</time>
      </trkpt>
      <trkpt lat="45.27208" lon="2.92692">
        <ele>1196</ele>
        <time>2021-08-24T09:24:25Z</time>
      </trkpt>
      <trkpt lat="45.27211" lon="2.92695">
        <ele>1196.2</ele>
        <time>2021-08-24T09:24:27Z</time>
      </trkpt>
      <trkpt lat="45.27212" lon="2.92698">
        <ele>1196.4</ele>
        <time>2021-08-24T09:24:29Z</time>
      </trkpt>
      <trkpt lat="45.27215" lon="2.92701">
        <ele>1196.6</ele>
        <time>2021-08-24T09:24:31Z</time>
      </trkpt>
      <trkpt lat="45.27217" lon="2.92705">
        <ele>1196.8</ele>
        <time>2021-08-24T09:24:33Z</time>
      </trkpt>
      <trkpt lat="45.27219" lon="2.92709">
        <ele>1197.1</ele>
        <time>2021-08-24T09:24:35Z</time>
      </trkpt>
      <trkpt lat="45.27221" lon="2.92713">
        <ele>1197.4</ele>
        <time>2021-08-24T09:24:37Z</time>
      </trkpt>
      <trkpt lat="45.27222" lon="2.92717">
        <ele>1197.8</ele>
        <time>2021-08-24T09:24:39Z</time>
      </trkpt>
      <trkpt lat="45.27224" lon="2.9272">
        <ele>1198.1</ele>
        <time>2021-08-24T09:24:41Z</time>
      </trkpt>
      <trkpt lat="45.27225" lon="2.92724">
        <ele>1198.4</ele>
        <time>2021-08-24T09:24:43Z</time>
      </trkpt>
      <trkpt lat="45.27227" lon="2.92729">
        <ele>1198.9</ele>
        <time>2021-08-24T09:24:45Z</time>
      </trkpt>
      <trkpt lat="45.27228" lon="2.92733">
        <ele>1199.2</ele>
        <time>2021-08-24T09:24:47Z</time>
      </trkpt>
      <trkpt lat="45.2723" lon="2.92736">
        <ele>1199.5</ele>
        <time>2021-08-24T09:24:49Z</time>
      </trkpt>
      <trkpt lat="45.27231" lon="2.9274">
        <ele>1200</ele>
        <time>2021-08-24T09:24:51Z</time>
      </trkpt>
      <trkpt lat="45.27232" lon="2.92745">
        <ele>1200.5</ele>
        <time>2021-08-24T09:24:53Z</time>
      </trkpt>
      <trkpt lat="45.27234" lon="2.92749">
        <ele>1200.8</ele>
        <time>2021-08-24T09:24:55Z</time>
      </trkpt>
      <trkpt lat="45.27235" lon="2.92752">
        <ele>1201</ele>
        <time>2021-08-24T09:24:57Z</time>
      </trkpt>
      <trkpt lat="45.27237" lon="2.92758">
        <ele>1201.3</ele>
        <time>2021-08-24T09:24:59Z</time>
      </trkpt>
      <trkpt lat="45.27238" lon="2.92761">
        <ele>1201.5</ele>
        <time>2021-08-24T09:25:01Z</time>
      </trkpt>
      <trkpt lat="45.27239" lon="2.92765">
        <ele>1201.8</ele>
        <time>2021-08-24T09:25:03Z</time>
      </trkpt>
      <trkpt lat="45.27239" lon="2.92769">
        <ele>1202.2</ele>
        <time>2021-08-24T09:25:05Z</time>
      </trkpt>
      <trkpt lat="45.2724" lon="2.92773">
        <ele>1202.5</ele>
        <time>2021-08-24T09:25:07Z</time>
      </trkpt>
      <trkpt lat="45.27241" lon="2.92778">
        <ele>1202.9</ele>
        <time>2021-08-24T09:25:09Z</time>
      </trkpt>
      <trkpt lat="45.27242" lon="2.92782">
        <ele>1203.2</ele>
        <time>2021-08-24T09:25:11Z</time>
      </trkpt>
      <trkpt lat="45.27242" lon="2.92787">
        <ele>1203.8</ele>
        <time>2021-08-24T09:25:13Z</time>
      </trkpt>
      <trkpt lat="45.27243" lon="2.92791">
        <ele>1204.2</ele>
        <time>2021-08-24T09:25:15Z</time>
      </trkpt>
      <trkpt lat="45.27243" lon="2.92796">
        <ele>1204.6</ele>
        <time>2021-08-24T09:25:17Z</time>
      </trkpt>
      <trkpt lat="45.27243" lon="2.928">
        <ele>1205.2</ele>
        <time>2021-08-24T09:25:19Z</time>
      </trkpt>
      <trkpt lat="45.27244" lon="2.92805">
        <ele>1205.6</ele>
        <time>2021-08-24T09:25:21Z</time>
      </trkpt>
      <trkpt lat="45.27244" lon="2.92809">
        <ele>1206.2</ele>
        <time>2021-08-24T09:25:23Z</time>
      </trkpt>
      <trkpt lat="45.27244" lon="2.92813">
        <ele>1206.7</ele>
        <time>2021-08-24T09:25:25Z</time>
      </trkpt>
      <trkpt lat="45.27244" lon="2.92817">
        <ele>1207.2</ele>
        <time>2021-08-24T09:25:27Z</time>
      </trkpt>
      <trkpt lat="45.27244" lon="2.92822">
        <ele>1207.8</ele>
        <time>2021-08-24T09:25:29Z</time>
      </trkpt>
      <trkpt lat="45.27243" lon="2.92826">
        <ele>1208.3</ele>
        <time>2021-08-24T09:25:31Z</time>
      </trkpt>
      <trkpt lat="45.27243" lon="2.9283">
        <ele>1208.8</ele>
        <time>2021-08-24T09:25:33Z</time>
      </trkpt>
      <trkpt lat="45.27243" lon="2.92834">
        <ele>1209.3</ele>
        <time>2021-08-24T09:25:35Z</time>
      </trkpt>
      <trkpt lat="45.27242" lon="2.92839">
        <ele>1209.7</ele>
        <time>2021-08-24T09:25:37Z</time>
      </trkpt>
      <trkpt lat="45.27242" lon="2.92843">
        <ele>1210.1</ele>
        <time>2021-08-24T09:25:39Z</time>
      </trkpt>
      <trkpt lat="45.27242" lon="2.92847">
        <ele>1210.6</ele>
        <time>2021-08-24T09:25:41Z</time>
      </trkpt>
      <trkpt lat="45.27241" lon="2.92852">
        <ele>1211</ele>
        <time>2021-08-24T09:25:43Z</time>
      </trkpt>
      <trkpt lat="45.27241" lon="2.92856">
        <ele>1211.3</ele>
        <time>2021-08-24T09:25:45Z</time>
      </trkpt>
      <trkpt lat="45.27241" lon="2.92859">
        <ele>1211.6</ele>
        <time>2021-08-24T09:25:47Z</time>
      </trkpt>
      <trkpt lat="45.27241" lon="2.92865">
        <ele>1212.1</ele>
        <time>2021-08-24T09:25:49Z</time>
      </trkpt>
      <trkpt lat="45.2724" lon="2.9287">
        <ele>1212.6</ele>
        <time>2021-08-24T09:25:51Z</time>
      </trkpt>
      <trkpt lat="45.2724" lon="2.92873">
        <ele>1213</ele>
        <time>2021-08-24T09:25:53Z</time>
      </trkpt>
      <trkpt lat="45.27239" lon="2.92878">
        <ele>1213.5</ele>
        <time>2021-08-24T09:25:55Z</time>
      </trkpt>
      <trkpt lat="45.27239" lon="2.92883">
        <ele>1213.8</ele>
        <time>2021-08-24T09:25:57Z</time>
      </trkpt>
      <trkpt lat="45.27239" lon="2.92889">
        <ele>1214.4</ele>
        <time>2021-08-24T09:25:59Z</time>
      </trkpt>
      <trkpt lat="45.27238" lon="2.92893">
        <ele>1214.9</ele>
        <time>2021-08-24T09:26:01Z</time>
      </trkpt>
      <trkpt lat="45.27237" lon="2.92898">
        <ele>1215.4</ele>
        <time>2021-08-24T09:26:03Z</time>
      </trkpt>
      <trkpt lat="45.27237" lon="2.92903">
        <ele>1215.8</ele>
        <time>2021-08-24T09:26:05Z</time>
      </trkpt>
      <trkpt lat="45.27236" lon="2.92908">
        <ele>1216.3</ele>
        <time>2021-08-24T09:26:07Z</time>
      </trkpt>
      <trkpt lat="45.27236" lon="2.92913">
        <ele>1216.7</ele>
        <time>2021-08-24T09:26:09Z</time>
      </trkpt>
      <trkpt lat="45.27236" lon="2.92917">
        <ele>1217.1</ele>
        <time>2021-08-24T09:26:11Z</time>
      </trkpt>
      <trkpt lat="45.27235" lon="2.92922">
        <ele>1217.2</ele>
        <time>2021-08-24T09:26:13Z</time>
      </trkpt>
      <trkpt lat="45.27235" lon="2.92926">
        <ele>1217.4</ele>
        <time>2021-08-24T09:26:15Z</time>
      </trkpt>
      <trkpt lat="45.27234" lon="2.92931">
        <ele>1217.6</ele>
        <time>2021-08-24T09:26:17Z</time>
      </trkpt>
      <trkpt lat="45.27234" lon="2.92935">
        <ele>1217.7</ele>
        <time>2021-08-24T09:26:19Z</time>
      </trkpt>
      <trkpt lat="45.27234" lon="2.9294">
        <ele>1217.9</ele>
        <time>2021-08-24T09:26:21Z</time>
      </trkpt>
      <trkpt lat="45.27234" lon="2.92945">
        <ele>1218</ele>
        <time>2021-08-24T09:26:23Z</time>
      </trkpt>
      <trkpt lat="45.27234" lon="2.9295">
        <ele>1218.1</ele>
        <time>2021-08-24T09:26:25Z</time>
      </trkpt>
      <trkpt lat="45.27234" lon="2.92954">
        <ele>1218.2</ele>
        <time>2021-08-24T09:26:27Z</time>
      </trkpt>
      <trkpt lat="45.27234" lon="2.92959">
        <ele>1218.3</ele>
        <time>2021-08-24T09:26:29Z</time>
      </trkpt>
      <trkpt lat="45.27234" lon="2.92964">
        <ele>1218.4</ele>
        <time>2021-08-24T09:26:31Z</time>
      </trkpt>
      <trkpt lat="45.27235" lon="2.92969">
        <ele>1218.4</ele>
        <time>2021-08-24T09:26:33Z</time>
      </trkpt>
      <trkpt lat="45.27236" lon="2.92973">
        <ele>1218.4</ele>
        <time>2021-08-24T09:26:35Z</time>
      </trkpt>
      <trkpt lat="45.27237" lon="2.92977">
        <ele>1218.3</ele>
        <time>2021-08-24T09:26:37Z</time>
      </trkpt>
      <trkpt lat="45.27239" lon="2.92982">
        <ele>1218.2</ele>
        <time>2021-08-24T09:26:39Z</time>
      </trkpt>
      <trkpt lat="45.27239" lon="2.92986">
        <ele>1218.2</ele>
        <time>2021-08-24T09:26:41Z</time>
      </trkpt>
      <trkpt lat="45.2724" lon="2.92991">
        <ele>1218.2</ele>
        <time>2021-08-24T09:26:43Z</time>
      </trkpt>
      <trkpt lat="45.27242" lon="2.92995">
        <ele>1218</ele>
        <time>2021-08-24T09:26:45Z</time>
      </trkpt>
      <trkpt lat="45.27243" lon="2.92999">
        <ele>1218</ele>
        <time>2021-08-24T09:26:47Z</time>
      </trkpt>
      <trkpt lat="45.27244" lon="2.93003">
        <ele>1218.1</ele>
        <time>2021-08-24T09:26:49Z</time>
      </trkpt>
      <trkpt lat="45.27245" lon="2.93007">
        <ele>1218.1</ele>
        <time>2021-08-24T09:26:51Z</time>
      </trkpt>
      <trkpt lat="45.27246" lon="2.93011">
        <ele>1218.3</ele>
        <time>2021-08-24T09:26:53Z</time>
      </trkpt>
      <trkpt lat="45.27247" lon="2.93016">
        <ele>1218.5</ele>
        <time>2021-08-24T09:26:55Z</time>
      </trkpt>
      <trkpt lat="45.27248" lon="2.9302">
        <ele>1218.6</ele>
        <time>2021-08-24T09:26:57Z</time>
      </trkpt>
      <trkpt lat="45.27249" lon="2.93024">
        <ele>1218.8</ele>
        <time>2021-08-24T09:26:59Z</time>
      </trkpt>
      <trkpt lat="45.2725" lon="2.93029">
        <ele>1219.1</ele>
        <time>2021-08-24T09:27:01Z</time>
      </trkpt>
      <trkpt lat="45.27251" lon="2.93033">
        <ele>1219.4</ele>
        <time>2021-08-24T09:27:03Z</time>
      </trkpt>
      <trkpt lat="45.27252" lon="2.93038">
        <ele>1219.7</ele>
        <time>2021-08-24T09:27:05Z</time>
      </trkpt>
      <trkpt lat="45.27253" lon="2.93041">
        <ele>1220</ele>
        <time>2021-08-24T09:27:07Z</time>
      </trkpt>
      <trkpt lat="45.27254" lon="2.93046">
        <ele>1220.3</ele>
        <time>2021-08-24T09:27:09Z</time>
      </trkpt>
      <trkpt lat="45.27255" lon="2.93051">
        <ele>1220.6</ele>
        <time>2021-08-24T09:27:11Z</time>
      </trkpt>
      <trkpt lat="45.27255" lon="2.93055">
        <ele>1220.9</ele>
        <time>2021-08-24T09:27:13Z</time>
      </trkpt>
      <trkpt lat="45.27256" lon="2.9306">
        <ele>1221.2</ele>
        <time>2021-08-24T09:27:15Z</time>
      </trkpt>
      <trkpt lat="45.27257" lon="2.93064">
        <ele>1221.5</ele>
        <time>2021-08-24T09:27:17Z</time>
      </trkpt>
      <trkpt lat="45.27258" lon="2.93069">
        <ele>1221.8</ele>
        <time>2021-08-24T09:27:19Z</time>
      </trkpt>
      <trkpt lat="45.27258" lon="2.93074">
        <ele>1222.1</ele>
        <time>2021-08-24T09:27:21Z</time>
      </trkpt>
      <trkpt lat="45.27259" lon="2.93078">
        <ele>1222.5</ele>
        <time>2021-08-24T09:27:23Z</time>
      </trkpt>
      <trkpt lat="45.2726" lon="2.93083">
        <ele>1222.7</ele>
        <time>2021-08-24T09:27:25Z</time>
      </trkpt>
      <trkpt lat="45.27261" lon="2.93088">
        <ele>1222.9</ele>
        <time>2021-08-24T09:27:27Z</time>
      </trkpt>
      <trkpt lat="45.27261" lon="2.93093">
        <ele>1223</ele>
        <time>2021-08-24T09:27:29Z</time>
      </trkpt>
      <trkpt lat="45.27261" lon="2.93097">
        <ele>1223.2</ele>
        <time>2021-08-24T09:27:31Z</time>
      </trkpt>
      <trkpt lat="45.27262" lon="2.93102">
        <ele>1223.3</ele>
        <time>2021-08-24T09:27:33Z</time>
      </trkpt>
      <trkpt lat="45.27261" lon="2.93108">
        <ele>1223.5</ele>
        <time>2021-08-24T09:27:35Z</time>
      </trkpt>
      <trkpt lat="45.27261" lon="2.93114">
        <ele>1223.7</ele>
        <time>2021-08-24T09:27:37Z</time>
      </trkpt>
      <trkpt lat="45.27261" lon="2.93119">
        <ele>1223.9</ele>
        <time>2021-08-24T09:27:39Z</time>
      </trkpt>
      <trkpt lat="45.27261" lon="2.93124">
        <ele>1224.1</ele>
        <time>2021-08-24T09:27:41Z</time>
      </trkpt>
      <trkpt lat="45.27261" lon="2.93129">
        <ele>1224.3</ele>
        <time>2021-08-24T09:27:43Z</time>
      </trkpt>
      <trkpt lat="45.2726" lon="2.93135">
        <ele>1224.5</ele>
        <time>2021-08-24T09:27:45Z</time>
      </trkpt>
      <trkpt lat="45.2726" lon="2.93141">
        <ele>1224.7</ele>
        <time>2021-08-24T09:27:47Z</time>
      </trkpt>
      <trkpt lat="45.27259" lon="2.93146">
        <ele>1224.9</ele>
        <time>2021-08-24T09:27:49Z</time>
      </trkpt>
      <trkpt lat="45.27259" lon="2.93151">
        <ele>1225</ele>
        <time>2021-08-24T09:27:51Z</time>
      </trkpt>
      <trkpt lat="45.27259" lon="2.93156">
        <ele>1225.2</ele>
        <time>2021-08-24T09:27:53Z</time>
      </trkpt>
      <trkpt lat="45.27259" lon="2.93161">
        <ele>1225.4</ele>
        <time>2021-08-24T09:27:55Z</time>
      </trkpt>
      <trkpt lat="45.27259" lon="2.93167">
        <ele>1225.5</ele>
        <time>2021-08-24T09:27:57Z</time>
      </trkpt>
      <trkpt lat="45.2726" lon="2.93172">
        <ele>1225.9</ele>
        <time>2021-08-24T09:27:59Z</time>
      </trkpt>
      <trkpt lat="45.2726" lon="2.93177">
        <ele>1226.2</ele>
        <time>2021-08-24T09:28:01Z</time>
      </trkpt>
      <trkpt lat="45.27261" lon="2.93182">
        <ele>1226.5</ele>
        <time>2021-08-24T09:28:03Z</time>
      </trkpt>
      <trkpt lat="45.27262" lon="2.93188">
        <ele>1226.9</ele>
        <time>2021-08-24T09:28:05Z</time>
      </trkpt>
      <trkpt lat="45.27263" lon="2.93193">
        <ele>1227.1</ele>
        <time>2021-08-24T09:28:07Z</time>
      </trkpt>
      <trkpt lat="45.27264" lon="2.93198">
        <ele>1227.4</ele>
        <time>2021-08-24T09:28:09Z</time>
      </trkpt>
      <trkpt lat="45.27266" lon="2.93203">
        <ele>1227.7</ele>
        <time>2021-08-24T09:28:11Z</time>
      </trkpt>
      <trkpt lat="45.27267" lon="2.93208">
        <ele>1227.9</ele>
        <time>2021-08-24T09:28:13Z</time>
      </trkpt>
      <trkpt lat="45.27269" lon="2.93213">
        <ele>1228.1</ele>
        <time>2021-08-24T09:28:15Z</time>
      </trkpt>
      <trkpt lat="45.2727" lon="2.93217">
        <ele>1228.4</ele>
        <time>2021-08-24T09:28:17Z</time>
      </trkpt>
      <trkpt lat="45.27272" lon="2.93222">
        <ele>1228.6</ele>
        <time>2021-08-24T09:28:19Z</time>
      </trkpt>
      <trkpt lat="45.27273" lon="2.93227">
        <ele>1228.8</ele>
        <time>2021-08-24T09:28:21Z</time>
      </trkpt>
      <trkpt lat="45.27275" lon="2.93232">
        <ele>1229</ele>
        <time>2021-08-24T09:28:23Z</time>
      </trkpt>
      <trkpt lat="45.27276" lon="2.93236">
        <ele>1229.2</ele>
        <time>2021-08-24T09:28:25Z</time>
      </trkpt>
      <trkpt lat="45.27278" lon="2.93241">
        <ele>1229.4</ele>
        <time>2021-08-24T09:28:27Z</time>
      </trkpt>
      <trkpt lat="45.2728" lon="2.93246">
        <ele>1229.6</ele>
        <time>2021-08-24T09:28:29Z</time>
      </trkpt>
      <trkpt lat="45.27281" lon="2.93251">
        <ele>1229.8</ele>
        <time>2021-08-24T09:28:31Z</time>
      </trkpt>
      <trkpt lat="45.27283" lon="2.93256">
        <ele>1230.1</ele>
        <time>2021-08-24T09:28:33Z</time>
      </trkpt>
      <trkpt lat="45.27284" lon="2.9326">
        <ele>1230.3</ele>
        <time>2021-08-24T09:28:35Z</time>
      </trkpt>
      <trkpt lat="45.27286" lon="2.93265">
        <ele>1230.6</ele>
        <time>2021-08-24T09:28:37Z</time>
      </trkpt>
      <trkpt lat="45.27287" lon="2.9327">
        <ele>1230.9</ele>
        <time>2021-08-24T09:28:39Z</time>
      </trkpt>
      <trkpt lat="45.27289" lon="2.93274">
        <ele>1231.1</ele>
        <time>2021-08-24T09:28:41Z</time>
      </trkpt>
      <trkpt lat="45.2729" lon="2.93279">
        <ele>1231.4</ele>
        <time>2021-08-24T09:28:43Z</time>
      </trkpt>
      <trkpt lat="45.27292" lon="2.93284">
        <ele>1231.6</ele>
        <time>2021-08-24T09:28:45Z</time>
      </trkpt>
      <trkpt lat="45.27293" lon="2.93288">
        <ele>1231.9</ele>
        <time>2021-08-24T09:28:47Z</time>
      </trkpt>
      <trkpt lat="45.27295" lon="2.93292">
        <ele>1232.1</ele>
        <time>2021-08-24T09:28:49Z</time>
      </trkpt>
      <trkpt lat="45.27295" lon="2.93297">
        <ele>1232.5</ele>
        <time>2021-08-24T09:28:51Z</time>
      </trkpt>
      <trkpt lat="45.27297" lon="2.93302">
        <ele>1232.7</ele>
        <time>2021-08-24T09:28:53Z</time>
      </trkpt>
      <trkpt lat="45.27299" lon="2.93306">
        <ele>1233</ele>
        <time>2021-08-24T09:28:55Z</time>
      </trkpt>
      <trkpt lat="45.273" lon="2.93311">
        <ele>1233.4</ele>
        <time>2021-08-24T09:28:57Z</time>
      </trkpt>
      <trkpt lat="45.27302" lon="2.93316">
        <ele>1233.7</ele>
        <time>2021-08-24T09:28:59Z</time>
      </trkpt>
      <trkpt lat="45.27304" lon="2.9332">
        <ele>1233.9</ele>
        <time>2021-08-24T09:29:01Z</time>
      </trkpt>
      <trkpt lat="45.27306" lon="2.93325">
        <ele>1234.3</ele>
        <time>2021-08-24T09:29:03Z</time>
      </trkpt>
      <trkpt lat="45.27308" lon="2.93329">
        <ele>1234.6</ele>
        <time>2021-08-24T09:29:05Z</time>
      </trkpt>
      <trkpt lat="45.2731" lon="2.93334">
        <ele>1234.9</ele>
        <time>2021-08-24T09:29:07Z</time>
      </trkpt>
      <trkpt lat="45.27312" lon="2.93338">
        <ele>1235</ele>
        <time>2021-08-24T09:29:09Z</time>
      </trkpt>
      <trkpt lat="45.27314" lon="2.93342">
        <ele>1235.2</ele>
        <time>2021-08-24T09:29:11Z</time>
      </trkpt>
      <trkpt lat="45.27316" lon="2.93346">
        <ele>1235.4</ele>
        <time>2021-08-24T09:29:13Z</time>
      </trkpt>
      <trkpt lat="45.27318" lon="2.9335">
        <ele>1235.6</ele>
        <time>2021-08-24T09:29:15Z</time>
      </trkpt>
      <trkpt lat="45.2732" lon="2.93354">
        <ele>1235.8</ele>
        <time>2021-08-24T09:29:17Z</time>
      </trkpt>
      <trkpt lat="45.27322" lon="2.93358">
        <ele>1235.9</ele>
        <time>2021-08-24T09:29:19Z</time>
      </trkpt>
      <trkpt lat="45.27324" lon="2.93362">
        <ele>1236.1</ele>
        <time>2021-08-24T09:29:21Z</time>
      </trkpt>
      <trkpt lat="45.27327" lon="2.93367">
        <ele>1236.3</ele>
        <time>2021-08-24T09:29:23Z</time>
      </trkpt>
      <trkpt lat="45.27329" lon="2.93371">
        <ele>1236.4</ele>
        <time>2021-08-24T09:29:25Z</time>
      </trkpt>
      <trkpt lat="45.27332" lon="2.93375">
        <ele>1236.6</ele>
        <time>2021-08-24T09:29:27Z</time>
      </trkpt>
      <trkpt lat="45.27334" lon="2.93379">
        <ele>1236.7</ele>
        <time>2021-08-24T09:29:29Z</time>
      </trkpt>
      <trkpt lat="45.27336" lon="2.93384">
        <ele>1236.9</ele>
        <time>2021-08-24T09:29:31Z</time>
      </trkpt>
      <trkpt lat="45.27338" lon="2.93388">
        <ele>1237</ele>
        <time>2021-08-24T09:29:33Z</time>
      </trkpt>
      <trkpt lat="45.27341" lon="2.93392">
        <ele>1237.2</ele>
        <time>2021-08-24T09:29:35Z</time>
      </trkpt>
      <trkpt lat="45.27342" lon="2.93397">
        <ele>1237.4</ele>
        <time>2021-08-24T09:29:37Z</time>
      </trkpt>
      <trkpt lat="45.27344" lon="2.93401">
        <ele>1237.6</ele>
        <time>2021-08-24T09:29:39Z</time>
      </trkpt>
      <trkpt lat="45.27346" lon="2.93406">
        <ele>1237.7</ele>
        <time>2021-08-24T09:29:41Z</time>
      </trkpt>
      <trkpt lat="45.27348" lon="2.93411">
        <ele>1238</ele>
        <time>2021-08-24T09:29:43Z</time>
      </trkpt>
      <trkpt lat="45.27349" lon="2.93416">
        <ele>1238.2</ele>
        <time>2021-08-24T09:29:45Z</time>
      </trkpt>
      <trkpt lat="45.27351" lon="2.9342">
        <ele>1238.4</ele>
        <time>2021-08-24T09:29:47Z</time>
      </trkpt>
      <trkpt lat="45.27352" lon="2.93425">
        <ele>1238.7</ele>
        <time>2021-08-24T09:29:49Z</time>
      </trkpt>
      <trkpt lat="45.27353" lon="2.93431">
        <ele>1239.1</ele>
        <time>2021-08-24T09:29:51Z</time>
      </trkpt>
      <trkpt lat="45.27354" lon="2.93436">
        <ele>1239.4</ele>
        <time>2021-08-24T09:29:53Z</time>
      </trkpt>
      <trkpt lat="45.27355" lon="2.93441">
        <ele>1239.7</ele>
        <time>2021-08-24T09:29:55Z</time>
      </trkpt>
      <trkpt lat="45.27356" lon="2.93445">
        <ele>1240</ele>
        <time>2021-08-24T09:29:57Z</time>
      </trkpt>
      <trkpt lat="45.27357" lon="2.93451">
        <ele>1240.3</ele>
        <time>2021-08-24T09:29:59Z</time>
      </trkpt>
      <trkpt lat="45.27358" lon="2.93456">
        <ele>1240.7</ele>
        <time>2021-08-24T09:30:01Z</time>
      </trkpt>
      <trkpt lat="45.27359" lon="2.93461">
        <ele>1240.9</ele>
        <time>2021-08-24T09:30:03Z</time>
      </trkpt>
      <trkpt lat="45.2736" lon="2.93465">
        <ele>1241.2</ele>
        <time>2021-08-24T09:30:05Z</time>
      </trkpt>
      <trkpt lat="45.27362" lon="2.9347">
        <ele>1241.5</ele>
        <time>2021-08-24T09:30:07Z</time>
      </trkpt>
      <trkpt lat="45.27363" lon="2.93475">
        <ele>1241.8</ele>
        <time>2021-08-24T09:30:09Z</time>
      </trkpt>
      <trkpt lat="45.27364" lon="2.9348">
        <ele>1242</ele>
        <time>2021-08-24T09:30:11Z</time>
      </trkpt>
      <trkpt lat="45.27366" lon="2.93484">
        <ele>1242.3</ele>
        <time>2021-08-24T09:30:13Z</time>
      </trkpt>
      <trkpt lat="45.27368" lon="2.93487">
        <ele>1242.4</ele>
        <time>2021-08-24T09:30:15Z</time>
      </trkpt>
      <trkpt lat="45.2737" lon="2.93491">
        <ele>1242.6</ele>
        <time>2021-08-24T09:30:17Z</time>
      </trkpt>
      <trkpt lat="45.27372" lon="2.93495">
        <ele>1242.8</ele>
        <time>2021-08-24T09:30:19Z</time>
      </trkpt>
      <trkpt lat="45.27374" lon="2.93499">
        <ele>1243</ele>
        <time>2021-08-24T09:30:21Z</time>
      </trkpt>
      <trkpt lat="45.27377" lon="2.93501">
        <ele>1243</ele>
        <time>2021-08-24T09:30:23Z</time>
      </trkpt>
      <trkpt lat="45.27379" lon="2.93505">
        <ele>1243.3</ele>
        <time>2021-08-24T09:30:25Z</time>
      </trkpt>
      <trkpt lat="45.27381" lon="2.93508">
        <ele>1243.4</ele>
        <time>2021-08-24T09:30:27Z</time>
      </trkpt>
      <trkpt lat="45.27384" lon="2.93511">
        <ele>1243.5</ele>
        <time>2021-08-24T09:30:29Z</time>
      </trkpt>
      <trkpt lat="45.27387" lon="2.93514">
        <ele>1243.6</ele>
        <time>2021-08-24T09:30:31Z</time>
      </trkpt>
      <trkpt lat="45.2739" lon="2.93517">
        <ele>1243.7</ele>
        <time>2021-08-24T09:30:33Z</time>
      </trkpt>
      <trkpt lat="45.27393" lon="2.93521">
        <ele>1243.9</ele>
        <time>2021-08-24T09:30:35Z</time>
      </trkpt>
      <trkpt lat="45.27396" lon="2.93524">
        <ele>1244</ele>
        <time>2021-08-24T09:30:37Z</time>
      </trkpt>
      <trkpt lat="45.27399" lon="2.93527">
        <ele>1244.1</ele>
        <time>2021-08-24T09:30:39Z</time>
      </trkpt>
      <trkpt lat="45.27402" lon="2.9353">
        <ele>1244.2</ele>
        <time>2021-08-24T09:30:41Z</time>
      </trkpt>
      <trkpt lat="45.27405" lon="2.93533">
        <ele>1244.3</ele>
        <time>2021-08-24T09:30:43Z</time>
      </trkpt>
      <trkpt lat="45.27408" lon="2.93535">
        <ele>1244.4</ele>
        <time>2021-08-24T09:30:45Z</time>
      </trkpt>
      <trkpt lat="45.2741" lon="2.93538">
        <ele>1244.5</ele>
        <time>2021-08-24T09:30:47Z</time>
      </trkpt>
      <trkpt lat="45.27413" lon="2.93541">
        <ele>1244.6</ele>
        <time>2021-08-24T09:30:49Z</time>
      </trkpt>
      <trkpt lat="45.27416" lon="2.93543">
        <ele>1244.7</ele>
        <time>2021-08-24T09:30:51Z</time>
      </trkpt>
      <trkpt lat="45.27419" lon="2.93545">
        <ele>1244.8</ele>
        <time>2021-08-24T09:30:53Z</time>
      </trkpt>
      <trkpt lat="45.27421" lon="2.93548">
        <ele>1244.9</ele>
        <time>2021-08-24T09:30:55Z</time>
      </trkpt>
      <trkpt lat="45.27422" lon="2.93551">
        <ele>1245.1</ele>
        <time>2021-08-24T09:30:57Z</time>
      </trkpt>
      <trkpt lat="45.27421" lon="2.93551">
        <ele>1245.1</ele>
        <time>2021-08-24T09:30:59Z</time>
      </trkpt>
      <trkpt lat="45.27421" lon="2.93551">
        <ele>1245.1</ele>
        <time>2021-08-24T09:31:01Z</time>
      </trkpt>
      <trkpt lat="45.27421" lon="2.93551">
        <ele>1245.1</ele>
        <time>2021-08-24T09:31:03Z</time>
      </trkpt>
      <trkpt lat="45.27421" lon="2.93551">
        <ele>1245.1</ele>
        <time>2021-08-24T09:31:05Z</time>
      </trkpt>
      <trkpt lat="45.27422" lon="2.93553">
        <ele>1245.2</ele>
        <time>2021-08-24T09:33:11Z</time>
      </trkpt>
      <trkpt lat="45.27422" lon="2.93553">
        <ele>1245.2</ele>
        <time>2021-08-24T09:33:13Z</time>
      </trkpt>
      <trkpt lat="45.27422" lon="2.93553">
        <ele>1245.2</ele>
        <time>2021-08-24T09:33:15Z</time>
      </trkpt>
      <trkpt lat="45.27424" lon="2.93554">
        <ele>1245.3</ele>
        <time>2021-08-24T09:33:17Z</time>
      </trkpt>
      <trkpt lat="45.27427" lon="2.93557">
        <ele>1245.3</ele>
        <time>2021-08-24T09:33:19Z</time>
      </trkpt>
      <trkpt lat="45.2743" lon="2.9356">
        <ele>1245.5</ele>
        <time>2021-08-24T09:33:21Z</time>
      </trkpt>
      <trkpt lat="45.27432" lon="2.93563">
        <ele>1245.6</ele>
        <time>2021-08-24T09:33:23Z</time>
      </trkpt>
      <trkpt lat="45.27434" lon="2.93566">
        <ele>1245.8</ele>
        <time>2021-08-24T09:33:25Z</time>
      </trkpt>
      <trkpt lat="45.27436" lon="2.93569">
        <ele>1246</ele>
        <time>2021-08-24T09:33:27Z</time>
      </trkpt>
      <trkpt lat="45.27437" lon="2.93573">
        <ele>1246.2</ele>
        <time>2021-08-24T09:33:29Z</time>
      </trkpt>
      <trkpt lat="45.27439" lon="2.93575">
        <ele>1246.3</ele>
        <time>2021-08-24T09:33:31Z</time>
      </trkpt>
      <trkpt lat="45.27439" lon="2.93575">
        <ele>1246.3</ele>
        <time>2021-08-24T09:33:33Z</time>
      </trkpt>
      <trkpt lat="45.27439" lon="2.93575">
        <ele>1246.3</ele>
        <time>2021-08-24T09:33:35Z</time>
      </trkpt>
      <trkpt lat="45.27439" lon="2.93575">
        <ele>1246.3</ele>
        <time>2021-08-24T09:33:37Z</time>
      </trkpt>
      <trkpt lat="45.27439" lon="2.93575">
        <ele>1246.3</ele>
        <time>2021-08-24T09:33:39Z</time>
      </trkpt>
      <trkpt lat="45.27439" lon="2.93576">
        <ele>1246.4</ele>
        <time>2021-08-24T09:38:57Z</time>
      </trkpt>
      <trkpt lat="45.27439" lon="2.93576">
        <ele>1246.4</ele>
        <time>2021-08-24T09:38:59Z</time>
      </trkpt>
      <trkpt lat="45.27439" lon="2.93576">
        <ele>1246.4</ele>
        <time>2021-08-24T09:39:01Z</time>
      </trkpt>
      <trkpt lat="45.27439" lon="2.93576">
        <ele>1246.4</ele>
        <time>2021-08-24T09:39:03Z</time>
      </trkpt>
      <trkpt lat="45.27439" lon="2.93576">
        <ele>1246.4</ele>
        <time>2021-08-24T09:39:05Z</time>
      </trkpt>
      <trkpt lat="45.27439" lon="2.93576">
        <ele>1246.4</ele>
        <time>2021-08-24T09:39:07Z</time>
      </trkpt>
      <trkpt lat="45.2744" lon="2.93577">
        <ele>1246.4</ele>
        <time>2021-08-24T09:39:09Z</time>
      </trkpt>
      <trkpt lat="45.2744" lon="2.93576">
        <ele>1246.3</ele>
        <time>2021-08-24T09:39:11Z</time>
      </trkpt>
      <trkpt lat="45.27443" lon="2.93577">
        <ele>1246.3</ele>
        <time>2021-08-24T09:39:13Z</time>
      </trkpt>
      <trkpt lat="45.27446" lon="2.9358">
        <ele>1246.3</ele>
        <time>2021-08-24T09:39:15Z</time>
      </trkpt>
      <trkpt lat="45.27448" lon="2.93584">
        <ele>1246.5</ele>
        <time>2021-08-24T09:39:17Z</time>
      </trkpt>
      <trkpt lat="45.27449" lon="2.93586">
        <ele>1246.6</ele>
        <time>2021-08-24T09:39:19Z</time>
      </trkpt>
      <trkpt lat="45.27449" lon="2.93585">
        <ele>1246.6</ele>
        <time>2021-08-24T09:39:21Z</time>
      </trkpt>
      <trkpt lat="45.27448" lon="2.93585">
        <ele>1246.6</ele>
        <time>2021-08-24T09:39:23Z</time>
      </trkpt>
      <trkpt lat="45.27448" lon="2.93585">
        <ele>1246.6</ele>
        <time>2021-08-24T09:39:25Z</time>
      </trkpt>
      <trkpt lat="45.27458" lon="2.93607">
        <ele>1247.6</ele>
        <time>2021-08-24T09:40:07Z</time>
      </trkpt>
      <trkpt lat="45.27459" lon="2.93611">
        <ele>1247.8</ele>
        <time>2021-08-24T09:40:09Z</time>
      </trkpt>
      <trkpt lat="45.27461" lon="2.93615">
        <ele>1247.9</ele>
        <time>2021-08-24T09:40:11Z</time>
      </trkpt>
      <trkpt lat="45.27462" lon="2.93619">
        <ele>1248.1</ele>
        <time>2021-08-24T09:40:13Z</time>
      </trkpt>
      <trkpt lat="45.27463" lon="2.93623">
        <ele>1248.3</ele>
        <time>2021-08-24T09:40:15Z</time>
      </trkpt>
      <trkpt lat="45.27464" lon="2.93626">
        <ele>1248.5</ele>
        <time>2021-08-24T09:40:17Z</time>
      </trkpt>
      <trkpt lat="45.27466" lon="2.93631">
        <ele>1248.7</ele>
        <time>2021-08-24T09:40:19Z</time>
      </trkpt>
      <trkpt lat="45.27466" lon="2.93634">
        <ele>1248.9</ele>
        <time>2021-08-24T09:40:21Z</time>
      </trkpt>
      <trkpt lat="45.27468" lon="2.93638">
        <ele>1249</ele>
        <time>2021-08-24T09:40:23Z</time>
      </trkpt>
      <trkpt lat="45.27469" lon="2.93641">
        <ele>1249.2</ele>
        <time>2021-08-24T09:40:25Z</time>
      </trkpt>
      <trkpt lat="45.2747" lon="2.93644">
        <ele>1249.4</ele>
        <time>2021-08-24T09:40:27Z</time>
      </trkpt>
      <trkpt lat="45.27471" lon="2.93649">
        <ele>1249.6</ele>
        <time>2021-08-24T09:40:29Z</time>
      </trkpt>
      <trkpt lat="45.27471" lon="2.93653">
        <ele>1249.9</ele>
        <time>2021-08-24T09:40:31Z</time>
      </trkpt>
      <trkpt lat="45.27473" lon="2.93657">
        <ele>1250</ele>
        <time>2021-08-24T09:40:33Z</time>
      </trkpt>
      <trkpt lat="45.27473" lon="2.9366">
        <ele>1250.2</ele>
        <time>2021-08-24T09:40:35Z</time>
      </trkpt>
      <trkpt lat="45.27474" lon="2.93664">
        <ele>1250.4</ele>
        <time>2021-08-24T09:40:37Z</time>
      </trkpt>
      <trkpt lat="45.27475" lon="2.93668">
        <ele>1250.5</ele>
        <time>2021-08-24T09:40:39Z</time>
      </trkpt>
      <trkpt lat="45.27477" lon="2.93671">
        <ele>1250.7</ele>
        <time>2021-08-24T09:40:41Z</time>
      </trkpt>
      <trkpt lat="45.27478" lon="2.93676">
        <ele>1250.8</ele>
        <time>2021-08-24T09:40:43Z</time>
      </trkpt>
      <trkpt lat="45.27479" lon="2.93679">
        <ele>1250.9</ele>
        <time>2021-08-24T09:40:45Z</time>
      </trkpt>
      <trkpt lat="45.27479" lon="2.93683">
        <ele>1251.1</ele>
        <time>2021-08-24T09:40:47Z</time>
      </trkpt>
      <trkpt lat="45.27481" lon="2.93687">
        <ele>1251.2</ele>
        <time>2021-08-24T09:40:49Z</time>
      </trkpt>
      <trkpt lat="45.27482" lon="2.9369">
        <ele>1251.3</ele>
        <time>2021-08-24T09:40:51Z</time>
      </trkpt>
      <trkpt lat="45.27483" lon="2.93695">
        <ele>1251.5</ele>
        <time>2021-08-24T09:40:53Z</time>
      </trkpt>
      <trkpt lat="45.27484" lon="2.937">
        <ele>1251.7</ele>
        <time>2021-08-24T09:40:55Z</time>
      </trkpt>
      <trkpt lat="45.27486" lon="2.93703">
        <ele>1251.8</ele>
        <time>2021-08-24T09:40:57Z</time>
      </trkpt>
      <trkpt lat="45.27487" lon="2.93708">
        <ele>1251.9</ele>
        <time>2021-08-24T09:40:59Z</time>
      </trkpt>
      <trkpt lat="45.27488" lon="2.93712">
        <ele>1252.1</ele>
        <time>2021-08-24T09:41:01Z</time>
      </trkpt>
      <trkpt lat="45.27489" lon="2.93717">
        <ele>1252.2</ele>
        <time>2021-08-24T09:41:03Z</time>
      </trkpt>
      <trkpt lat="45.27491" lon="2.93721">
        <ele>1252.3</ele>
        <time>2021-08-24T09:41:05Z</time>
      </trkpt>
      <trkpt lat="45.27492" lon="2.93724">
        <ele>1252.3</ele>
        <time>2021-08-24T09:41:07Z</time>
      </trkpt>
      <trkpt lat="45.27494" lon="2.93728">
        <ele>1252.4</ele>
        <time>2021-08-24T09:41:09Z</time>
      </trkpt>
      <trkpt lat="45.27496" lon="2.93732">
        <ele>1252.5</ele>
        <time>2021-08-24T09:41:11Z</time>
      </trkpt>
      <trkpt lat="45.27497" lon="2.93736">
        <ele>1252.5</ele>
        <time>2021-08-24T09:41:13Z</time>
      </trkpt>
      <trkpt lat="45.27499" lon="2.93739">
        <ele>1252.6</ele>
        <time>2021-08-24T09:41:15Z</time>
      </trkpt>
      <trkpt lat="45.27501" lon="2.93742">
        <ele>1252.6</ele>
        <time>2021-08-24T09:41:17Z</time>
      </trkpt>
      <trkpt lat="45.27503" lon="2.93745">
        <ele>1252.7</ele>
        <time>2021-08-24T09:41:19Z</time>
      </trkpt>
      <trkpt lat="45.27505" lon="2.93748">
        <ele>1252.7</ele>
        <time>2021-08-24T09:41:21Z</time>
      </trkpt>
      <trkpt lat="45.27507" lon="2.93751">
        <ele>1252.8</ele>
        <time>2021-08-24T09:41:23Z</time>
      </trkpt>
      <trkpt lat="45.27509" lon="2.93754">
        <ele>1253</ele>
        <time>2021-08-24T09:41:25Z</time>
      </trkpt>
      <trkpt lat="45.27511" lon="2.93757">
        <ele>1253.1</ele>
        <time>2021-08-24T09:41:27Z</time>
      </trkpt>
      <trkpt lat="45.27514" lon="2.9376">
        <ele>1253.3</ele>
        <time>2021-08-24T09:41:29Z</time>
      </trkpt>
      <trkpt lat="45.27516" lon="2.93763">
        <ele>1253.5</ele>
        <time>2021-08-24T09:41:31Z</time>
      </trkpt>
      <trkpt lat="45.27518" lon="2.93766">
        <ele>1253.6</ele>
        <time>2021-08-24T09:41:33Z</time>
      </trkpt>
      <trkpt lat="45.2752" lon="2.93769">
        <ele>1253.7</ele>
        <time>2021-08-24T09:41:35Z</time>
      </trkpt>
      <trkpt lat="45.27522" lon="2.93771">
        <ele>1253.8</ele>
        <time>2021-08-24T09:41:37Z</time>
      </trkpt>
      <trkpt lat="45.27521" lon="2.9377">
        <ele>1253.8</ele>
        <time>2021-08-24T09:41:39Z</time>
      </trkpt>
      <trkpt lat="45.27521" lon="2.9377">
        <ele>1253.8</ele>
        <time>2021-08-24T09:41:41Z</time>
      </trkpt>
      <trkpt lat="45.27521" lon="2.9377">
        <ele>1253.8</ele>
        <time>2021-08-24T09:41:43Z</time>
      </trkpt>
      <trkpt lat="45.27521" lon="2.9377">
        <ele>1253.8</ele>
        <time>2021-08-24T09:41:45Z</time>
      </trkpt>
      <trkpt lat="45.27533" lon="2.93785">
        <ele>1254.4</ele>
        <time>2021-08-24T09:48:37Z</time>
      </trkpt>
      <trkpt lat="45.27535" lon="2.93788">
        <ele>1254.5</ele>
        <time>2021-08-24T09:48:39Z</time>
      </trkpt>
      <trkpt lat="45.27537" lon="2.9379">
        <ele>1254.6</ele>
        <time>2021-08-24T09:48:41Z</time>
      </trkpt>
      <trkpt lat="45.2754" lon="2.93793">
        <ele>1254.7</ele>
        <time>2021-08-24T09:48:43Z</time>
      </trkpt>
      <trkpt lat="45.27541" lon="2.93796">
        <ele>1254.8</ele>
        <time>2021-08-24T09:48:45Z</time>
      </trkpt>
      <trkpt lat="45.27544" lon="2.938">
        <ele>1255</ele>
        <time>2021-08-24T09:48:47Z</time>
      </trkpt>
      <trkpt lat="45.27546" lon="2.93803">
        <ele>1255.1</ele>
        <time>2021-08-24T09:48:49Z</time>
      </trkpt>
      <trkpt lat="45.27548" lon="2.93805">
        <ele>1255.1</ele>
        <time>2021-08-24T09:48:51Z</time>
      </trkpt>
      <trkpt lat="45.2755" lon="2.93808">
        <ele>1255.2</ele>
        <time>2021-08-24T09:48:53Z</time>
      </trkpt>
      <trkpt lat="45.27553" lon="2.93811">
        <ele>1255.3</ele>
        <time>2021-08-24T09:48:55Z</time>
      </trkpt>
      <trkpt lat="45.27555" lon="2.93815">
        <ele>1255.4</ele>
        <time>2021-08-24T09:48:57Z</time>
      </trkpt>
      <trkpt lat="45.27557" lon="2.93817">
        <ele>1255.5</ele>
        <time>2021-08-24T09:48:59Z</time>
      </trkpt>
      <trkpt lat="45.27559" lon="2.9382">
        <ele>1255.6</ele>
        <time>2021-08-24T09:49:01Z</time>
      </trkpt>
      <trkpt lat="45.27561" lon="2.93823">
        <ele>1255.6</ele>
        <time>2021-08-24T09:49:03Z</time>
      </trkpt>
      <trkpt lat="45.27563" lon="2.93826">
        <ele>1255.7</ele>
        <time>2021-08-24T09:49:05Z</time>
      </trkpt>
      <trkpt lat="45.27565" lon="2.93829">
        <ele>1255.8</ele>
        <time>2021-08-24T09:49:07Z</time>
      </trkpt>
      <trkpt lat="45.27567" lon="2.93833">
        <ele>1255.9</ele>
        <time>2021-08-24T09:49:09Z</time>
      </trkpt>
      <trkpt lat="45.2757" lon="2.93836">
        <ele>1256</ele>
        <time>2021-08-24T09:49:11Z</time>
      </trkpt>
      <trkpt lat="45.27572" lon="2.93839">
        <ele>1256.2</ele>
        <time>2021-08-24T09:49:13Z</time>
      </trkpt>
      <trkpt lat="45.27574" lon="2.93843">
        <ele>1256.5</ele>
        <time>2021-08-24T09:49:15Z</time>
      </trkpt>
      <trkpt lat="45.27575" lon="2.93846">
        <ele>1256.7</ele>
        <time>2021-08-24T09:49:17Z</time>
      </trkpt>
      <trkpt lat="45.27578" lon="2.9385">
        <ele>1256.9</ele>
        <time>2021-08-24T09:49:19Z</time>
      </trkpt>
      <trkpt lat="45.2758" lon="2.93853">
        <ele>1257.1</ele>
        <time>2021-08-24T09:49:21Z</time>
      </trkpt>
      <trkpt lat="45.27583" lon="2.93857">
        <ele>1257.4</ele>
        <time>2021-08-24T09:49:23Z</time>
      </trkpt>
      <trkpt lat="45.27585" lon="2.93862">
        <ele>1257.7</ele>
        <time>2021-08-24T09:49:25Z</time>
      </trkpt>
      <trkpt lat="45.27587" lon="2.93866">
        <ele>1258.1</ele>
        <time>2021-08-24T09:49:27Z</time>
      </trkpt>
      <trkpt lat="45.2759" lon="2.93869">
        <ele>1258.4</ele>
        <time>2021-08-24T09:49:29Z</time>
      </trkpt>
      <trkpt lat="45.27593" lon="2.93874">
        <ele>1258.8</ele>
        <time>2021-08-24T09:49:31Z</time>
      </trkpt>
      <trkpt lat="45.27595" lon="2.93878">
        <ele>1259.2</ele>
        <time>2021-08-24T09:49:33Z</time>
      </trkpt>
      <trkpt lat="45.27597" lon="2.93883">
        <ele>1259.6</ele>
        <time>2021-08-24T09:49:35Z</time>
      </trkpt>
      <trkpt lat="45.276" lon="2.93888">
        <ele>1260</ele>
        <time>2021-08-24T09:49:37Z</time>
      </trkpt>
      <trkpt lat="45.27603" lon="2.93893">
        <ele>1260.4</ele>
        <time>2021-08-24T09:49:39Z</time>
      </trkpt>
      <trkpt lat="45.27606" lon="2.93897">
        <ele>1260.7</ele>
        <time>2021-08-24T09:49:41Z</time>
      </trkpt>
      <trkpt lat="45.27608" lon="2.93901">
        <ele>1261</ele>
        <time>2021-08-24T09:49:43Z</time>
      </trkpt>
      <trkpt lat="45.2761" lon="2.93905">
        <ele>1261.3</ele>
        <time>2021-08-24T09:49:45Z</time>
      </trkpt>
      <trkpt lat="45.27613" lon="2.93909">
        <ele>1261.6</ele>
        <time>2021-08-24T09:49:47Z</time>
      </trkpt>
      <trkpt lat="45.27616" lon="2.93913">
        <ele>1261.9</ele>
        <time>2021-08-24T09:49:49Z</time>
      </trkpt>
      <trkpt lat="45.27618" lon="2.93917">
        <ele>1262.2</ele>
        <time>2021-08-24T09:49:51Z</time>
      </trkpt>
      <trkpt lat="45.27621" lon="2.93922">
        <ele>1262.5</ele>
        <time>2021-08-24T09:49:53Z</time>
      </trkpt>
      <trkpt lat="45.27624" lon="2.93926">
        <ele>1262.7</ele>
        <time>2021-08-24T09:49:55Z</time>
      </trkpt>
      <trkpt lat="45.27626" lon="2.9393">
        <ele>1263</ele>
        <time>2021-08-24T09:49:57Z</time>
      </trkpt>
      <trkpt lat="45.27629" lon="2.93935">
        <ele>1263.2</ele>
        <time>2021-08-24T09:49:59Z</time>
      </trkpt>
      <trkpt lat="45.27631" lon="2.93939">
        <ele>1263.4</ele>
        <time>2021-08-24T09:50:01Z</time>
      </trkpt>
      <trkpt lat="45.27634" lon="2.93943">
        <ele>1263.6</ele>
        <time>2021-08-24T09:50:03Z</time>
      </trkpt>
      <trkpt lat="45.27636" lon="2.93947">
        <ele>1263.8</ele>
        <time>2021-08-24T09:50:05Z</time>
      </trkpt>
      <trkpt lat="45.27639" lon="2.93951">
        <ele>1264</ele>
        <time>2021-08-24T09:50:07Z</time>
      </trkpt>
      <trkpt lat="45.27641" lon="2.93956">
        <ele>1264.2</ele>
        <time>2021-08-24T09:50:09Z</time>
      </trkpt>
      <trkpt lat="45.27643" lon="2.9396">
        <ele>1264.5</ele>
        <time>2021-08-24T09:50:11Z</time>
      </trkpt>
      <trkpt lat="45.27646" lon="2.93964">
        <ele>1264.6</ele>
        <time>2021-08-24T09:50:13Z</time>
      </trkpt>
      <trkpt lat="45.27648" lon="2.93968">
        <ele>1264.8</ele>
        <time>2021-08-24T09:50:15Z</time>
      </trkpt>
      <trkpt lat="45.2765" lon="2.93972">
        <ele>1265</ele>
        <time>2021-08-24T09:50:17Z</time>
      </trkpt>
      <trkpt lat="45.27653" lon="2.93977">
        <ele>1265.2</ele>
        <time>2021-08-24T09:50:19Z</time>
      </trkpt>
      <trkpt lat="45.27656" lon="2.93981">
        <ele>1265.3</ele>
        <time>2021-08-24T09:50:21Z</time>
      </trkpt>
      <trkpt lat="45.27658" lon="2.93985">
        <ele>1265.5</ele>
        <time>2021-08-24T09:50:23Z</time>
      </trkpt>
      <trkpt lat="45.27661" lon="2.93989">
        <ele>1265.6</ele>
        <time>2021-08-24T09:50:25Z</time>
      </trkpt>
      <trkpt lat="45.27664" lon="2.93993">
        <ele>1265.7</ele>
        <time>2021-08-24T09:50:27Z</time>
      </trkpt>
      <trkpt lat="45.27667" lon="2.93997">
        <ele>1265.8</ele>
        <time>2021-08-24T09:50:29Z</time>
      </trkpt>
      <trkpt lat="45.2767" lon="2.94">
        <ele>1266.1</ele>
        <time>2021-08-24T09:50:31Z</time>
      </trkpt>
      <trkpt lat="45.27673" lon="2.94004">
        <ele>1266.4</ele>
        <time>2021-08-24T09:50:33Z</time>
      </trkpt>
      <trkpt lat="45.27676" lon="2.94007">
        <ele>1266.6</ele>
        <time>2021-08-24T09:50:35Z</time>
      </trkpt>
      <trkpt lat="45.27679" lon="2.94009">
        <ele>1266.8</ele>
        <time>2021-08-24T09:50:37Z</time>
      </trkpt>
      <trkpt lat="45.27682" lon="2.94011">
        <ele>1267</ele>
        <time>2021-08-24T09:50:39Z</time>
      </trkpt>
      <trkpt lat="45.27686" lon="2.94014">
        <ele>1267.3</ele>
        <time>2021-08-24T09:50:41Z</time>
      </trkpt>
      <trkpt lat="45.27689" lon="2.94017">
        <ele>1267.5</ele>
        <time>2021-08-24T09:50:43Z</time>
      </trkpt>
      <trkpt lat="45.27693" lon="2.94019">
        <ele>1267.7</ele>
        <time>2021-08-24T09:50:45Z</time>
      </trkpt>
      <trkpt lat="45.27696" lon="2.9402">
        <ele>1267.9</ele>
        <time>2021-08-24T09:50:47Z</time>
      </trkpt>
      <trkpt lat="45.277" lon="2.94022">
        <ele>1268</ele>
        <time>2021-08-24T09:50:49Z</time>
      </trkpt>
      <trkpt lat="45.27704" lon="2.94024">
        <ele>1268.2</ele>
        <time>2021-08-24T09:50:51Z</time>
      </trkpt>
      <trkpt lat="45.27707" lon="2.94025">
        <ele>1268.3</ele>
        <time>2021-08-24T09:50:53Z</time>
      </trkpt>
      <trkpt lat="45.27711" lon="2.94027">
        <ele>1268.5</ele>
        <time>2021-08-24T09:50:55Z</time>
      </trkpt>
      <trkpt lat="45.27714" lon="2.94028">
        <ele>1268.7</ele>
        <time>2021-08-24T09:50:57Z</time>
      </trkpt>
      <trkpt lat="45.27718" lon="2.9403">
        <ele>1268.8</ele>
        <time>2021-08-24T09:50:59Z</time>
      </trkpt>
      <trkpt lat="45.27722" lon="2.94031">
        <ele>1269</ele>
        <time>2021-08-24T09:51:01Z</time>
      </trkpt>
      <trkpt lat="45.27725" lon="2.94033">
        <ele>1269.1</ele>
        <time>2021-08-24T09:51:03Z</time>
      </trkpt>
      <trkpt lat="45.27729" lon="2.94034">
        <ele>1269.2</ele>
        <time>2021-08-24T09:51:05Z</time>
      </trkpt>
      <trkpt lat="45.27733" lon="2.94036">
        <ele>1269.4</ele>
        <time>2021-08-24T09:51:07Z</time>
      </trkpt>
      <trkpt lat="45.27737" lon="2.94037">
        <ele>1269.5</ele>
        <time>2021-08-24T09:51:09Z</time>
      </trkpt>
      <trkpt lat="45.2774" lon="2.94039">
        <ele>1269.7</ele>
        <time>2021-08-24T09:51:11Z</time>
      </trkpt>
      <trkpt lat="45.27744" lon="2.9404">
        <ele>1269.8</ele>
        <time>2021-08-24T09:51:13Z</time>
      </trkpt>
      <trkpt lat="45.27748" lon="2.94042">
        <ele>1270</ele>
        <time>2021-08-24T09:51:15Z</time>
      </trkpt>
      <trkpt lat="45.27751" lon="2.94044">
        <ele>1270.2</ele>
        <time>2021-08-24T09:51:17Z</time>
      </trkpt>
      <trkpt lat="45.27755" lon="2.94046">
        <ele>1270.3</ele>
        <time>2021-08-24T09:51:19Z</time>
      </trkpt>
      <trkpt lat="45.27759" lon="2.94047">
        <ele>1270.5</ele>
        <time>2021-08-24T09:51:21Z</time>
      </trkpt>
      <trkpt lat="45.27762" lon="2.94049">
        <ele>1270.7</ele>
        <time>2021-08-24T09:51:23Z</time>
      </trkpt>
      <trkpt lat="45.27765" lon="2.94052">
        <ele>1270.9</ele>
        <time>2021-08-24T09:51:25Z</time>
      </trkpt>
      <trkpt lat="45.27768" lon="2.94054">
        <ele>1271.1</ele>
        <time>2021-08-24T09:51:27Z</time>
      </trkpt>
      <trkpt lat="45.27772" lon="2.94057">
        <ele>1271.3</ele>
        <time>2021-08-24T09:51:29Z</time>
      </trkpt>
      <trkpt lat="45.27775" lon="2.9406">
        <ele>1271.6</ele>
        <time>2021-08-24T09:51:31Z</time>
      </trkpt>
      <trkpt lat="45.27778" lon="2.94063">
        <ele>1271.8</ele>
        <time>2021-08-24T09:51:33Z</time>
      </trkpt>
      <trkpt lat="45.27781" lon="2.94066">
        <ele>1272</ele>
        <time>2021-08-24T09:51:35Z</time>
      </trkpt>
      <trkpt lat="45.27784" lon="2.94069">
        <ele>1272.2</ele>
        <time>2021-08-24T09:51:37Z</time>
      </trkpt>
      <trkpt lat="45.27787" lon="2.94073">
        <ele>1272.4</ele>
        <time>2021-08-24T09:51:39Z</time>
      </trkpt>
      <trkpt lat="45.2779" lon="2.94076">
        <ele>1272.6</ele>
        <time>2021-08-24T09:51:41Z</time>
      </trkpt>
      <trkpt lat="45.27792" lon="2.94079">
        <ele>1272.8</ele>
        <time>2021-08-24T09:51:43Z</time>
      </trkpt>
      <trkpt lat="45.27795" lon="2.94082">
        <ele>1273</ele>
        <time>2021-08-24T09:51:45Z</time>
      </trkpt>
      <trkpt lat="45.27798" lon="2.94086">
        <ele>1273.3</ele>
        <time>2021-08-24T09:51:47Z</time>
      </trkpt>
      <trkpt lat="45.27801" lon="2.94089">
        <ele>1273.5</ele>
        <time>2021-08-24T09:51:49Z</time>
      </trkpt>
      <trkpt lat="45.27803" lon="2.94093">
        <ele>1273.7</ele>
        <time>2021-08-24T09:51:51Z</time>
      </trkpt>
      <trkpt lat="45.27806" lon="2.94097">
        <ele>1273.9</ele>
        <time>2021-08-24T09:51:53Z</time>
      </trkpt>
      <trkpt lat="45.27809" lon="2.941">
        <ele>1274.1</ele>
        <time>2021-08-24T09:51:55Z</time>
      </trkpt>
      <trkpt lat="45.27812" lon="2.94104">
        <ele>1274.3</ele>
        <time>2021-08-24T09:51:57Z</time>
      </trkpt>
      <trkpt lat="45.27815" lon="2.94107">
        <ele>1274.5</ele>
        <time>2021-08-24T09:51:59Z</time>
      </trkpt>
      <trkpt lat="45.27818" lon="2.9411">
        <ele>1274.7</ele>
        <time>2021-08-24T09:52:01Z</time>
      </trkpt>
      <trkpt lat="45.27821" lon="2.94115">
        <ele>1274.9</ele>
        <time>2021-08-24T09:52:03Z</time>
      </trkpt>
      <trkpt lat="45.27824" lon="2.94118">
        <ele>1275.1</ele>
        <time>2021-08-24T09:52:05Z</time>
      </trkpt>
      <trkpt lat="45.27827" lon="2.94122">
        <ele>1275.3</ele>
        <time>2021-08-24T09:52:07Z</time>
      </trkpt>
      <trkpt lat="45.2783" lon="2.94126">
        <ele>1275.5</ele>
        <time>2021-08-24T09:52:09Z</time>
      </trkpt>
      <trkpt lat="45.27833" lon="2.94129">
        <ele>1275.7</ele>
        <time>2021-08-24T09:52:11Z</time>
      </trkpt>
      <trkpt lat="45.27836" lon="2.94133">
        <ele>1275.8</ele>
        <time>2021-08-24T09:52:13Z</time>
      </trkpt>
      <trkpt lat="45.27839" lon="2.94136">
        <ele>1275.9</ele>
        <time>2021-08-24T09:52:15Z</time>
      </trkpt>
      <trkpt lat="45.27842" lon="2.9414">
        <ele>1276</ele>
        <time>2021-08-24T09:52:17Z</time>
      </trkpt>
      <trkpt lat="45.27845" lon="2.94144">
        <ele>1276.1</ele>
        <time>2021-08-24T09:52:19Z</time>
      </trkpt>
      <trkpt lat="45.27848" lon="2.94148">
        <ele>1276.2</ele>
        <time>2021-08-24T09:52:21Z</time>
      </trkpt>
      <trkpt lat="45.27852" lon="2.94152">
        <ele>1276.3</ele>
        <time>2021-08-24T09:52:23Z</time>
      </trkpt>
      <trkpt lat="45.27855" lon="2.94156">
        <ele>1276.4</ele>
        <time>2021-08-24T09:52:25Z</time>
      </trkpt>
      <trkpt lat="45.27858" lon="2.9416">
        <ele>1276.5</ele>
        <time>2021-08-24T09:52:27Z</time>
      </trkpt>
      <trkpt lat="45.27861" lon="2.94164">
        <ele>1276.6</ele>
        <time>2021-08-24T09:52:29Z</time>
      </trkpt>
      <trkpt lat="45.27864" lon="2.94168">
        <ele>1276.7</ele>
        <time>2021-08-24T09:52:31Z</time>
      </trkpt>
      <trkpt lat="45.27867" lon="2.94172">
        <ele>1276.7</ele>
        <time>2021-08-24T09:52:33Z</time>
      </trkpt>
      <trkpt lat="45.27871" lon="2.94175">
        <ele>1276.8</ele>
        <time>2021-08-24T09:52:35Z</time>
      </trkpt>
      <trkpt lat="45.27874" lon="2.94179">
        <ele>1276.8</ele>
        <time>2021-08-24T09:52:37Z</time>
      </trkpt>
      <trkpt lat="45.27876" lon="2.94183">
        <ele>1276.9</ele>
        <time>2021-08-24T09:52:39Z</time>
      </trkpt>
      <trkpt lat="45.2788" lon="2.94187">
        <ele>1276.9</ele>
        <time>2021-08-24T09:52:41Z</time>
      </trkpt>
      <trkpt lat="45.27883" lon="2.9419">
        <ele>1277</ele>
        <time>2021-08-24T09:52:43Z</time>
      </trkpt>
      <trkpt lat="45.27885" lon="2.94194">
        <ele>1277</ele>
        <time>2021-08-24T09:52:45Z</time>
      </trkpt>
      <trkpt lat="45.27889" lon="2.94197">
        <ele>1277.1</ele>
        <time>2021-08-24T09:52:47Z</time>
      </trkpt>
      <trkpt lat="45.27892" lon="2.94201">
        <ele>1277.1</ele>
        <time>2021-08-24T09:52:49Z</time>
      </trkpt>
      <trkpt lat="45.27895" lon="2.94205">
        <ele>1277.2</ele>
        <time>2021-08-24T09:52:51Z</time>
      </trkpt>
      <trkpt lat="45.27899" lon="2.94209">
        <ele>1277.2</ele>
        <time>2021-08-24T09:52:53Z</time>
      </trkpt>
      <trkpt lat="45.27901" lon="2.94213">
        <ele>1277.3</ele>
        <time>2021-08-24T09:52:55Z</time>
      </trkpt>
      <trkpt lat="45.27905" lon="2.94217">
        <ele>1277.3</ele>
        <time>2021-08-24T09:52:57Z</time>
      </trkpt>
      <trkpt lat="45.27908" lon="2.9422">
        <ele>1277.4</ele>
        <time>2021-08-24T09:52:59Z</time>
      </trkpt>
      <trkpt lat="45.2791" lon="2.94225">
        <ele>1277.5</ele>
        <time>2021-08-24T09:53:01Z</time>
      </trkpt>
      <trkpt lat="45.27913" lon="2.94229">
        <ele>1277.6</ele>
        <time>2021-08-24T09:53:03Z</time>
      </trkpt>
      <trkpt lat="45.27916" lon="2.94233">
        <ele>1277.6</ele>
        <time>2021-08-24T09:53:05Z</time>
      </trkpt>
      <trkpt lat="45.27918" lon="2.94238">
        <ele>1277.7</ele>
        <time>2021-08-24T09:53:07Z</time>
      </trkpt>
      <trkpt lat="45.27922" lon="2.94243">
        <ele>1277.8</ele>
        <time>2021-08-24T09:53:09Z</time>
      </trkpt>
      <trkpt lat="45.27924" lon="2.94247">
        <ele>1277.9</ele>
        <time>2021-08-24T09:53:11Z</time>
      </trkpt>
      <trkpt lat="45.27926" lon="2.94251">
        <ele>1277.9</ele>
        <time>2021-08-24T09:53:13Z</time>
      </trkpt>
      <trkpt lat="45.27929" lon="2.94255">
        <ele>1278</ele>
        <time>2021-08-24T09:53:15Z</time>
      </trkpt>
      <trkpt lat="45.2793" lon="2.94258">
        <ele>1278</ele>
        <time>2021-08-24T09:53:17Z</time>
      </trkpt>
      <trkpt lat="45.27932" lon="2.94261">
        <ele>1278.1</ele>
        <time>2021-08-24T09:53:19Z</time>
      </trkpt>
      <trkpt lat="45.27934" lon="2.94264">
        <ele>1278.1</ele>
        <time>2021-08-24T09:53:21Z</time>
      </trkpt>
      <trkpt lat="45.27935" lon="2.94267">
        <ele>1278.1</ele>
        <time>2021-08-24T09:53:23Z</time>
      </trkpt>
      <trkpt lat="45.27934" lon="2.94268">
        <ele>1278.2</ele>
        <time>2021-08-24T09:53:25Z</time>
      </trkpt>
      <trkpt lat="45.27934" lon="2.94267">
        <ele>1278.2</ele>
        <time>2021-08-24T09:53:27Z</time>
      </trkpt>
      <trkpt lat="45.27934" lon="2.94268">
        <ele>1278.2</ele>
        <time>2021-08-24T09:53:29Z</time>
      </trkpt>
      <trkpt lat="45.27934" lon="2.94268">
        <ele>1278.2</ele>
        <time>2021-08-24T09:53:31Z</time>
      </trkpt>
      <trkpt lat="45.27934" lon="2.94268">
        <ele>1278.2</ele>
        <time>2021-08-24T09:53:33Z</time>
      </trkpt>
      <trkpt lat="45.27944" lon="2.94285">
        <ele>1278.4</ele>
        <time>2021-08-24T10:01:35Z</time>
      </trkpt>
      <trkpt lat="45.27945" lon="2.94288">
        <ele>1278.4</ele>
        <time>2021-08-24T10:01:37Z</time>
      </trkpt>
      <trkpt lat="45.27946" lon="2.94292">
        <ele>1278.5</ele>
        <time>2021-08-24T10:01:39Z</time>
      </trkpt>
      <trkpt lat="45.27948" lon="2.94296">
        <ele>1278.5</ele>
        <time>2021-08-24T10:01:41Z</time>
      </trkpt>
      <trkpt lat="45.27949" lon="2.94299">
        <ele>1278.6</ele>
        <time>2021-08-24T10:01:43Z</time>
      </trkpt>
      <trkpt lat="45.2795" lon="2.94303">
        <ele>1278.6</ele>
        <time>2021-08-24T10:01:45Z</time>
      </trkpt>
      <trkpt lat="45.27952" lon="2.94307">
        <ele>1278.7</ele>
        <time>2021-08-24T10:01:47Z</time>
      </trkpt>
      <trkpt lat="45.27953" lon="2.94312">
        <ele>1278.7</ele>
        <time>2021-08-24T10:01:49Z</time>
      </trkpt>
      <trkpt lat="45.27955" lon="2.94314">
        <ele>1278.7</ele>
        <time>2021-08-24T10:01:51Z</time>
      </trkpt>
      <trkpt lat="45.27956" lon="2.94318">
        <ele>1278.8</ele>
        <time>2021-08-24T10:01:53Z</time>
      </trkpt>
      <trkpt lat="45.27957" lon="2.94324">
        <ele>1278.9</ele>
        <time>2021-08-24T10:01:55Z</time>
      </trkpt>
      <trkpt lat="45.27959" lon="2.94328">
        <ele>1278.9</ele>
        <time>2021-08-24T10:01:57Z</time>
      </trkpt>
      <trkpt lat="45.27959" lon="2.94332">
        <ele>1279</ele>
        <time>2021-08-24T10:01:59Z</time>
      </trkpt>
      <trkpt lat="45.2796" lon="2.94338">
        <ele>1279</ele>
        <time>2021-08-24T10:02:01Z</time>
      </trkpt>
      <trkpt lat="45.27962" lon="2.94345">
        <ele>1279</ele>
        <time>2021-08-24T10:02:03Z</time>
      </trkpt>
      <trkpt lat="45.27964" lon="2.94353">
        <ele>1278.9</ele>
        <time>2021-08-24T10:02:05Z</time>
      </trkpt>
      <trkpt lat="45.27965" lon="2.94361">
        <ele>1278.9</ele>
        <time>2021-08-24T10:02:07Z</time>
      </trkpt>
      <trkpt lat="45.27967" lon="2.94369">
        <ele>1278.9</ele>
        <time>2021-08-24T10:02:09Z</time>
      </trkpt>
      <trkpt lat="45.27968" lon="2.94378">
        <ele>1278.9</ele>
        <time>2021-08-24T10:02:11Z</time>
      </trkpt>
      <trkpt lat="45.27969" lon="2.94387">
        <ele>1278.8</ele>
        <time>2021-08-24T10:02:13Z</time>
      </trkpt>
      <trkpt lat="45.2797" lon="2.94398">
        <ele>1278.8</ele>
        <time>2021-08-24T10:02:15Z</time>
      </trkpt>
      <trkpt lat="45.27971" lon="2.94409">
        <ele>1278.7</ele>
        <time>2021-08-24T10:02:17Z</time>
      </trkpt>
      <trkpt lat="45.27972" lon="2.94421">
        <ele>1278.6</ele>
        <time>2021-08-24T10:02:19Z</time>
      </trkpt>
      <trkpt lat="45.27974" lon="2.94434">
        <ele>1278.5</ele>
        <time>2021-08-24T10:02:21Z</time>
      </trkpt>
      <trkpt lat="45.27975" lon="2.94447">
        <ele>1278.3</ele>
        <time>2021-08-24T10:02:23Z</time>
      </trkpt>
      <trkpt lat="45.27977" lon="2.9446">
        <ele>1278.2</ele>
        <time>2021-08-24T10:02:25Z</time>
      </trkpt>
      <trkpt lat="45.27978" lon="2.94474">
        <ele>1278</ele>
        <time>2021-08-24T10:02:27Z</time>
      </trkpt>
      <trkpt lat="45.2798" lon="2.94488">
        <ele>1277.7</ele>
        <time>2021-08-24T10:02:29Z</time>
      </trkpt>
      <trkpt lat="45.27984" lon="2.94503">
        <ele>1277.3</ele>
        <time>2021-08-24T10:02:31Z</time>
      </trkpt>
      <trkpt lat="45.27988" lon="2.94516">
        <ele>1276.6</ele>
        <time>2021-08-24T10:02:33Z</time>
      </trkpt>
      <trkpt lat="45.27994" lon="2.94529">
        <ele>1275.9</ele>
        <time>2021-08-24T10:02:35Z</time>
      </trkpt>
      <trkpt lat="45.28001" lon="2.94541">
        <ele>1275</ele>
        <time>2021-08-24T10:02:37Z</time>
      </trkpt>
      <trkpt lat="45.28007" lon="2.94553">
        <ele>1274.3</ele>
        <time>2021-08-24T10:02:39Z</time>
      </trkpt>
      <trkpt lat="45.28013" lon="2.94564">
        <ele>1273.5</ele>
        <time>2021-08-24T10:02:41Z</time>
      </trkpt>
      <trkpt lat="45.2802" lon="2.94576">
        <ele>1272.8</ele>
        <time>2021-08-24T10:02:43Z</time>
      </trkpt>
      <trkpt lat="45.28026" lon="2.94588">
        <ele>1272.1</ele>
        <time>2021-08-24T10:02:45Z</time>
      </trkpt>
      <trkpt lat="45.28032" lon="2.946">
        <ele>1271.7</ele>
        <time>2021-08-24T10:02:47Z</time>
      </trkpt>
      <trkpt lat="45.28039" lon="2.94611">
        <ele>1271.3</ele>
        <time>2021-08-24T10:02:49Z</time>
      </trkpt>
      <trkpt lat="45.28046" lon="2.94622">
        <ele>1271</ele>
        <time>2021-08-24T10:02:51Z</time>
      </trkpt>
      <trkpt lat="45.28053" lon="2.94633">
        <ele>1270.7</ele>
        <time>2021-08-24T10:02:53Z</time>
      </trkpt>
      <trkpt lat="45.28061" lon="2.94643">
        <ele>1270.5</ele>
        <time>2021-08-24T10:02:55Z</time>
      </trkpt>
      <trkpt lat="45.2807" lon="2.94652">
        <ele>1270.2</ele>
        <time>2021-08-24T10:02:57Z</time>
      </trkpt>
      <trkpt lat="45.28079" lon="2.94659">
        <ele>1270</ele>
        <time>2021-08-24T10:02:59Z</time>
      </trkpt>
      <trkpt lat="45.28089" lon="2.94665">
        <ele>1269.8</ele>
        <time>2021-08-24T10:03:01Z</time>
      </trkpt>
      <trkpt lat="45.28099" lon="2.94671">
        <ele>1269.5</ele>
        <time>2021-08-24T10:03:03Z</time>
      </trkpt>
      <trkpt lat="45.28108" lon="2.94677">
        <ele>1269.2</ele>
        <time>2021-08-24T10:03:05Z</time>
      </trkpt>
      <trkpt lat="45.28117" lon="2.94682">
        <ele>1268.8</ele>
        <time>2021-08-24T10:03:07Z</time>
      </trkpt>
      <trkpt lat="45.28126" lon="2.94687">
        <ele>1268.5</ele>
        <time>2021-08-24T10:03:09Z</time>
      </trkpt>
      <trkpt lat="45.28135" lon="2.94692">
        <ele>1268.2</ele>
        <time>2021-08-24T10:03:11Z</time>
      </trkpt>
      <trkpt lat="45.28143" lon="2.94697">
        <ele>1267.8</ele>
        <time>2021-08-24T10:03:13Z</time>
      </trkpt>
      <trkpt lat="45.28152" lon="2.94702">
        <ele>1267.5</ele>
        <time>2021-08-24T10:03:15Z</time>
      </trkpt>
      <trkpt lat="45.28161" lon="2.94707">
        <ele>1267.2</ele>
        <time>2021-08-24T10:03:17Z</time>
      </trkpt>
      <trkpt lat="45.28169" lon="2.94711">
        <ele>1266.9</ele>
        <time>2021-08-24T10:03:19Z</time>
      </trkpt>
      <trkpt lat="45.28177" lon="2.94716">
        <ele>1266.8</ele>
        <time>2021-08-24T10:03:21Z</time>
      </trkpt>
      <trkpt lat="45.28185" lon="2.9472">
        <ele>1266.6</ele>
        <time>2021-08-24T10:03:23Z</time>
      </trkpt>
      <trkpt lat="45.28193" lon="2.94725">
        <ele>1266.5</ele>
        <time>2021-08-24T10:03:25Z</time>
      </trkpt>
      <trkpt lat="45.28201" lon="2.9473">
        <ele>1266.3</ele>
        <time>2021-08-24T10:03:27Z</time>
      </trkpt>
      <trkpt lat="45.28209" lon="2.94736">
        <ele>1266</ele>
        <time>2021-08-24T10:03:29Z</time>
      </trkpt>
      <trkpt lat="45.28216" lon="2.94741">
        <ele>1265.7</ele>
        <time>2021-08-24T10:03:31Z</time>
      </trkpt>
      <trkpt lat="45.28224" lon="2.94747">
        <ele>1265.4</ele>
        <time>2021-08-24T10:03:33Z</time>
      </trkpt>
      <trkpt lat="45.28232" lon="2.94755">
        <ele>1264.9</ele>
        <time>2021-08-24T10:03:35Z</time>
      </trkpt>
      <trkpt lat="45.2824" lon="2.94763">
        <ele>1264.4</ele>
        <time>2021-08-24T10:03:37Z</time>
      </trkpt>
      <trkpt lat="45.28248" lon="2.94771">
        <ele>1263.8</ele>
        <time>2021-08-24T10:03:39Z</time>
      </trkpt>
      <trkpt lat="45.28258" lon="2.9478">
        <ele>1263.2</ele>
        <time>2021-08-24T10:03:41Z</time>
      </trkpt>
      <trkpt lat="45.28268" lon="2.9479">
        <ele>1262.6</ele>
        <time>2021-08-24T10:03:43Z</time>
      </trkpt>
      <trkpt lat="45.28278" lon="2.948">
        <ele>1262</ele>
        <time>2021-08-24T10:03:45Z</time>
      </trkpt>
      <trkpt lat="45.28288" lon="2.94811">
        <ele>1261.4</ele>
        <time>2021-08-24T10:03:47Z</time>
      </trkpt>
      <trkpt lat="45.28299" lon="2.94821">
        <ele>1260.7</ele>
        <time>2021-08-24T10:03:49Z</time>
      </trkpt>
      <trkpt lat="45.28309" lon="2.94831">
        <ele>1260.1</ele>
        <time>2021-08-24T10:03:51Z</time>
      </trkpt>
      <trkpt lat="45.28321" lon="2.9484">
        <ele>1259.3</ele>
        <time>2021-08-24T10:03:53Z</time>
      </trkpt>
      <trkpt lat="45.28333" lon="2.94847">
        <ele>1258.5</ele>
        <time>2021-08-24T10:03:55Z</time>
      </trkpt>
      <trkpt lat="45.28347" lon="2.9485">
        <ele>1257.8</ele>
        <time>2021-08-24T10:03:57Z</time>
      </trkpt>
      <trkpt lat="45.28361" lon="2.94849">
        <ele>1257.4</ele>
        <time>2021-08-24T10:03:59Z</time>
      </trkpt>
      <trkpt lat="45.28376" lon="2.94851">
        <ele>1256.9</ele>
        <time>2021-08-24T10:04:01Z</time>
      </trkpt>
      <trkpt lat="45.28391" lon="2.94858">
        <ele>1255.9</ele>
        <time>2021-08-24T10:04:03Z</time>
      </trkpt>
      <trkpt lat="45.28404" lon="2.9487">
        <ele>1254.6</ele>
        <time>2021-08-24T10:04:05Z</time>
      </trkpt>
      <trkpt lat="45.28415" lon="2.94887">
        <ele>1253.2</ele>
        <time>2021-08-24T10:04:07Z</time>
      </trkpt>
      <trkpt lat="45.28425" lon="2.94903">
        <ele>1252.5</ele>
        <time>2021-08-24T10:04:09Z</time>
      </trkpt>
      <trkpt lat="45.28436" lon="2.94921">
        <ele>1251.8</ele>
        <time>2021-08-24T10:04:11Z</time>
      </trkpt>
      <trkpt lat="45.28447" lon="2.94938">
        <ele>1250.7</ele>
        <time>2021-08-24T10:04:13Z</time>
      </trkpt>
      <trkpt lat="45.28458" lon="2.94954">
        <ele>1249.7</ele>
        <time>2021-08-24T10:04:15Z</time>
      </trkpt>
      <trkpt lat="45.28471" lon="2.94967">
        <ele>1249.1</ele>
        <time>2021-08-24T10:04:17Z</time>
      </trkpt>
      <trkpt lat="45.28486" lon="2.94975">
        <ele>1249</ele>
        <time>2021-08-24T10:04:19Z</time>
      </trkpt>
      <trkpt lat="45.28502" lon="2.9498">
        <ele>1249</ele>
        <time>2021-08-24T10:04:21Z</time>
      </trkpt>
      <trkpt lat="45.28518" lon="2.94984">
        <ele>1248</ele>
        <time>2021-08-24T10:04:23Z</time>
      </trkpt>
      <trkpt lat="45.28535" lon="2.94986">
        <ele>1247</ele>
        <time>2021-08-24T10:04:25Z</time>
      </trkpt>
      <trkpt lat="45.28552" lon="2.94989">
        <ele>1246</ele>
        <time>2021-08-24T10:04:27Z</time>
      </trkpt>
      <trkpt lat="45.28569" lon="2.94992">
        <ele>1244.8</ele>
        <time>2021-08-24T10:04:29Z</time>
      </trkpt>
      <trkpt lat="45.28585" lon="2.94995">
        <ele>1243.8</ele>
        <time>2021-08-24T10:04:31Z</time>
      </trkpt>
      <trkpt lat="45.28602" lon="2.94999">
        <ele>1243.8</ele>
        <time>2021-08-24T10:04:33Z</time>
      </trkpt>
      <trkpt lat="45.28618" lon="2.95007">
        <ele>1243.4</ele>
        <time>2021-08-24T10:04:35Z</time>
      </trkpt>
      <trkpt lat="45.28634" lon="2.95015">
        <ele>1243</ele>
        <time>2021-08-24T10:04:37Z</time>
      </trkpt>
      <trkpt lat="45.2865" lon="2.95023">
        <ele>1242.4</ele>
        <time>2021-08-24T10:04:39Z</time>
      </trkpt>
      <trkpt lat="45.28665" lon="2.95033">
        <ele>1241.6</ele>
        <time>2021-08-24T10:04:41Z</time>
      </trkpt>
      <trkpt lat="45.28678" lon="2.95043">
        <ele>1240.6</ele>
        <time>2021-08-24T10:04:43Z</time>
      </trkpt>
      <trkpt lat="45.28693" lon="2.95053">
        <ele>1239.6</ele>
        <time>2021-08-24T10:04:45Z</time>
      </trkpt>
      <trkpt lat="45.28707" lon="2.95063">
        <ele>1238.7</ele>
        <time>2021-08-24T10:04:47Z</time>
      </trkpt>
      <trkpt lat="45.28722" lon="2.95073">
        <ele>1237.7</ele>
        <time>2021-08-24T10:04:49Z</time>
      </trkpt>
      <trkpt lat="45.28737" lon="2.95083">
        <ele>1236.7</ele>
        <time>2021-08-24T10:04:51Z</time>
      </trkpt>
      <trkpt lat="45.28749" lon="2.95098">
        <ele>1236.5</ele>
        <time>2021-08-24T10:04:53Z</time>
      </trkpt>
      <trkpt lat="45.28757" lon="2.95118">
        <ele>1235.9</ele>
        <time>2021-08-24T10:04:55Z</time>
      </trkpt>
      <trkpt lat="45.28762" lon="2.9514">
        <ele>1235.4</ele>
        <time>2021-08-24T10:04:57Z</time>
      </trkpt>
      <trkpt lat="45.28762" lon="2.95161">
        <ele>1234.9</ele>
        <time>2021-08-24T10:04:59Z</time>
      </trkpt>
      <trkpt lat="45.28756" lon="2.95179">
        <ele>1235.7</ele>
        <time>2021-08-24T10:05:01Z</time>
      </trkpt>
      <trkpt lat="45.28746" lon="2.95189">
        <ele>1236.1</ele>
        <time>2021-08-24T10:05:03Z</time>
      </trkpt>
      <trkpt lat="45.28736" lon="2.95195">
        <ele>1236.1</ele>
        <time>2021-08-24T10:05:05Z</time>
      </trkpt>
      <trkpt lat="45.28727" lon="2.95202">
        <ele>1236.2</ele>
        <time>2021-08-24T10:05:07Z</time>
      </trkpt>
      <trkpt lat="45.28718" lon="2.95209">
        <ele>1236.3</ele>
        <time>2021-08-24T10:05:09Z</time>
      </trkpt>
      <trkpt lat="45.28711" lon="2.95215">
        <ele>1236.3</ele>
        <time>2021-08-24T10:05:11Z</time>
      </trkpt>
      <trkpt lat="45.28704" lon="2.95221">
        <ele>1236.4</ele>
        <time>2021-08-24T10:05:13Z</time>
      </trkpt>
      <trkpt lat="45.28697" lon="2.95227">
        <ele>1236.4</ele>
        <time>2021-08-24T10:05:15Z</time>
      </trkpt>
      <trkpt lat="45.28692" lon="2.95234">
        <ele>1236.6</ele>
        <time>2021-08-24T10:05:17Z</time>
      </trkpt>
      <trkpt lat="45.28686" lon="2.95239">
        <ele>1236.6</ele>
        <time>2021-08-24T10:05:19Z</time>
      </trkpt>
      <trkpt lat="45.2868" lon="2.95244">
        <ele>1236.6</ele>
        <time>2021-08-24T10:05:21Z</time>
      </trkpt>
      <trkpt lat="45.28675" lon="2.9525">
        <ele>1236.7</ele>
        <time>2021-08-24T10:05:23Z</time>
      </trkpt>
      <trkpt lat="45.2867" lon="2.95256">
        <ele>1237.1</ele>
        <time>2021-08-24T10:05:25Z</time>
      </trkpt>
      <trkpt lat="45.28664" lon="2.95261">
        <ele>1237.2</ele>
        <time>2021-08-24T10:05:27Z</time>
      </trkpt>
      <trkpt lat="45.28659" lon="2.95266">
        <ele>1237.1</ele>
        <time>2021-08-24T10:05:29Z</time>
      </trkpt>
      <trkpt lat="45.28654" lon="2.95271">
        <ele>1237</ele>
        <time>2021-08-24T10:05:31Z</time>
      </trkpt>
      <trkpt lat="45.28648" lon="2.95275">
        <ele>1236.8</ele>
        <time>2021-08-24T10:05:33Z</time>
      </trkpt>
      <trkpt lat="45.28643" lon="2.9528">
        <ele>1236.7</ele>
        <time>2021-08-24T10:05:35Z</time>
      </trkpt>
      <trkpt lat="45.28637" lon="2.95284">
        <ele>1236.6</ele>
        <time>2021-08-24T10:05:37Z</time>
      </trkpt>
      <trkpt lat="45.28632" lon="2.95288">
        <ele>1236.5</ele>
        <time>2021-08-24T10:05:39Z</time>
      </trkpt>
      <trkpt lat="45.28627" lon="2.95292">
        <ele>1236.4</ele>
        <time>2021-08-24T10:05:41Z</time>
      </trkpt>
      <trkpt lat="45.28621" lon="2.95297">
        <ele>1236.3</ele>
        <time>2021-08-24T10:05:43Z</time>
      </trkpt>
      <trkpt lat="45.28616" lon="2.95301">
        <ele>1236.3</ele>
        <time>2021-08-24T10:05:45Z</time>
      </trkpt>
      <trkpt lat="45.28611" lon="2.95305">
        <ele>1236.3</ele>
        <time>2021-08-24T10:05:47Z</time>
      </trkpt>
      <trkpt lat="45.28605" lon="2.9531">
        <ele>1236.4</ele>
        <time>2021-08-24T10:05:49Z</time>
      </trkpt>
      <trkpt lat="45.286" lon="2.95314">
        <ele>1236.5</ele>
        <time>2021-08-24T10:05:51Z</time>
      </trkpt>
      <trkpt lat="45.28595" lon="2.95318">
        <ele>1236.6</ele>
        <time>2021-08-24T10:05:53Z</time>
      </trkpt>
      <trkpt lat="45.28589" lon="2.95322">
        <ele>1236.7</ele>
        <time>2021-08-24T10:05:55Z</time>
      </trkpt>
      <trkpt lat="45.28584" lon="2.95327">
        <ele>1236.8</ele>
        <time>2021-08-24T10:05:57Z</time>
      </trkpt>
      <trkpt lat="45.28579" lon="2.95331">
        <ele>1236.6</ele>
        <time>2021-08-24T10:05:59Z</time>
      </trkpt>
      <trkpt lat="45.28574" lon="2.95335">
        <ele>1236.4</ele>
        <time>2021-08-24T10:06:01Z</time>
      </trkpt>
      <trkpt lat="45.2857" lon="2.95339">
        <ele>1235.9</ele>
        <time>2021-08-24T10:06:03Z</time>
      </trkpt>
      <trkpt lat="45.28565" lon="2.95343">
        <ele>1235.4</ele>
        <time>2021-08-24T10:06:05Z</time>
      </trkpt>
      <trkpt lat="45.28561" lon="2.95348">
        <ele>1235.1</ele>
        <time>2021-08-24T10:06:07Z</time>
      </trkpt>
      <trkpt lat="45.28557" lon="2.95354">
        <ele>1235</ele>
        <time>2021-08-24T10:06:09Z</time>
      </trkpt>
      <trkpt lat="45.28555" lon="2.95361">
        <ele>1235.1</ele>
        <time>2021-08-24T10:06:11Z</time>
      </trkpt>
      <trkpt lat="45.28553" lon="2.95369">
        <ele>1235.4</ele>
        <time>2021-08-24T10:06:13Z</time>
      </trkpt>
      <trkpt lat="45.28552" lon="2.95377">
        <ele>1236</ele>
        <time>2021-08-24T10:06:15Z</time>
      </trkpt>
      <trkpt lat="45.28551" lon="2.95384">
        <ele>1236.6</ele>
        <time>2021-08-24T10:06:17Z</time>
      </trkpt>
      <trkpt lat="45.28552" lon="2.95392">
        <ele>1237.3</ele>
        <time>2021-08-24T10:06:19Z</time>
      </trkpt>
      <trkpt lat="45.28552" lon="2.95399">
        <ele>1238</ele>
        <time>2021-08-24T10:06:21Z</time>
      </trkpt>
      <trkpt lat="45.28553" lon="2.95406">
        <ele>1238.8</ele>
        <time>2021-08-24T10:06:23Z</time>
      </trkpt>
      <trkpt lat="45.28553" lon="2.95413">
        <ele>1239.5</ele>
        <time>2021-08-24T10:06:25Z</time>
      </trkpt>
      <trkpt lat="45.28554" lon="2.9542">
        <ele>1240</ele>
        <time>2021-08-24T10:06:27Z</time>
      </trkpt>
      <trkpt lat="45.28555" lon="2.95428">
        <ele>1240.2</ele>
        <time>2021-08-24T10:06:29Z</time>
      </trkpt>
      <trkpt lat="45.28556" lon="2.95435">
        <ele>1240.3</ele>
        <time>2021-08-24T10:06:31Z</time>
      </trkpt>
      <trkpt lat="45.28557" lon="2.95442">
        <ele>1240.4</ele>
        <time>2021-08-24T10:06:33Z</time>
      </trkpt>
      <trkpt lat="45.28558" lon="2.95449">
        <ele>1240.6</ele>
        <time>2021-08-24T10:06:35Z</time>
      </trkpt>
      <trkpt lat="45.28559" lon="2.95456">
        <ele>1240.8</ele>
        <time>2021-08-24T10:06:37Z</time>
      </trkpt>
      <trkpt lat="45.2856" lon="2.95463">
        <ele>1240.9</ele>
        <time>2021-08-24T10:06:39Z</time>
      </trkpt>
      <trkpt lat="45.28561" lon="2.9547">
        <ele>1241.1</ele>
        <time>2021-08-24T10:06:41Z</time>
      </trkpt>
      <trkpt lat="45.28563" lon="2.95476">
        <ele>1241.3</ele>
        <time>2021-08-24T10:06:43Z</time>
      </trkpt>
      <trkpt lat="45.28564" lon="2.95483">
        <ele>1241.5</ele>
        <time>2021-08-24T10:06:45Z</time>
      </trkpt>
      <trkpt lat="45.28565" lon="2.9549">
        <ele>1241.7</ele>
        <time>2021-08-24T10:06:47Z</time>
      </trkpt>
      <trkpt lat="45.28566" lon="2.95497">
        <ele>1242</ele>
        <time>2021-08-24T10:06:49Z</time>
      </trkpt>
      <trkpt lat="45.28568" lon="2.95503">
        <ele>1242.2</ele>
        <time>2021-08-24T10:06:51Z</time>
      </trkpt>
      <trkpt lat="45.2857" lon="2.9551">
        <ele>1242.4</ele>
        <time>2021-08-24T10:06:53Z</time>
      </trkpt>
      <trkpt lat="45.28573" lon="2.95516">
        <ele>1242.6</ele>
        <time>2021-08-24T10:06:55Z</time>
      </trkpt>
      <trkpt lat="45.28575" lon="2.95522">
        <ele>1242.9</ele>
        <time>2021-08-24T10:06:57Z</time>
      </trkpt>
      <trkpt lat="45.28577" lon="2.95528">
        <ele>1243.2</ele>
        <time>2021-08-24T10:06:59Z</time>
      </trkpt>
      <trkpt lat="45.2858" lon="2.95535">
        <ele>1243.5</ele>
        <time>2021-08-24T10:07:01Z</time>
      </trkpt>
      <trkpt lat="45.28582" lon="2.95541">
        <ele>1243.9</ele>
        <time>2021-08-24T10:07:03Z</time>
      </trkpt>
      <trkpt lat="45.28585" lon="2.95547">
        <ele>1244.2</ele>
        <time>2021-08-24T10:07:05Z</time>
      </trkpt>
      <trkpt lat="45.28588" lon="2.95554">
        <ele>1244.4</ele>
        <time>2021-08-24T10:07:07Z</time>
      </trkpt>
      <trkpt lat="45.2859" lon="2.95562">
        <ele>1244.7</ele>
        <time>2021-08-24T10:07:09Z</time>
      </trkpt>
      <trkpt lat="45.28592" lon="2.9557">
        <ele>1244.9</ele>
        <time>2021-08-24T10:07:11Z</time>
      </trkpt>
      <trkpt lat="45.28595" lon="2.95579">
        <ele>1245.1</ele>
        <time>2021-08-24T10:07:13Z</time>
      </trkpt>
      <trkpt lat="45.28597" lon="2.95587">
        <ele>1245.3</ele>
        <time>2021-08-24T10:07:15Z</time>
      </trkpt>
      <trkpt lat="45.28598" lon="2.95595">
        <ele>1245.5</ele>
        <time>2021-08-24T10:07:17Z</time>
      </trkpt>
      <trkpt lat="45.28599" lon="2.95604">
        <ele>1245.5</ele>
        <time>2021-08-24T10:07:19Z</time>
      </trkpt>
      <trkpt lat="45.28601" lon="2.95612">
        <ele>1245.7</ele>
        <time>2021-08-24T10:07:21Z</time>
      </trkpt>
      <trkpt lat="45.28602" lon="2.9562">
        <ele>1245.9</ele>
        <time>2021-08-24T10:07:23Z</time>
      </trkpt>
      <trkpt lat="45.28603" lon="2.95628">
        <ele>1246.1</ele>
        <time>2021-08-24T10:07:25Z</time>
      </trkpt>
      <trkpt lat="45.28604" lon="2.95636">
        <ele>1246.2</ele>
        <time>2021-08-24T10:07:27Z</time>
      </trkpt>
      <trkpt lat="45.28605" lon="2.95644">
        <ele>1246.3</ele>
        <time>2021-08-24T10:07:29Z</time>
      </trkpt>
      <trkpt lat="45.28606" lon="2.95652">
        <ele>1246.4</ele>
        <time>2021-08-24T10:07:31Z</time>
      </trkpt>
      <trkpt lat="45.28607" lon="2.95661">
        <ele>1246.5</ele>
        <time>2021-08-24T10:07:33Z</time>
      </trkpt>
      <trkpt lat="45.28608" lon="2.95669">
        <ele>1246.7</ele>
        <time>2021-08-24T10:07:35Z</time>
      </trkpt>
      <trkpt lat="45.28608" lon="2.95678">
        <ele>1246.9</ele>
        <time>2021-08-24T10:07:37Z</time>
      </trkpt>
      <trkpt lat="45.28608" lon="2.95687">
        <ele>1247.1</ele>
        <time>2021-08-24T10:07:39Z</time>
      </trkpt>
      <trkpt lat="45.28607" lon="2.95695">
        <ele>1247.2</ele>
        <time>2021-08-24T10:07:41Z</time>
      </trkpt>
      <trkpt lat="45.28607" lon="2.95704">
        <ele>1247.4</ele>
        <time>2021-08-24T10:07:43Z</time>
      </trkpt>
      <trkpt lat="45.28607" lon="2.95713">
        <ele>1247.6</ele>
        <time>2021-08-24T10:07:45Z</time>
      </trkpt>
      <trkpt lat="45.28605" lon="2.95721">
        <ele>1247.5</ele>
        <time>2021-08-24T10:07:47Z</time>
      </trkpt>
      <trkpt lat="45.28603" lon="2.95729">
        <ele>1247.3</ele>
        <time>2021-08-24T10:07:49Z</time>
      </trkpt>
      <trkpt lat="45.28603" lon="2.95738">
        <ele>1247.4</ele>
        <time>2021-08-24T10:07:51Z</time>
      </trkpt>
      <trkpt lat="45.28601" lon="2.95747">
        <ele>1247.4</ele>
        <time>2021-08-24T10:07:53Z</time>
      </trkpt>
      <trkpt lat="45.28599" lon="2.95756">
        <ele>1247.2</ele>
        <time>2021-08-24T10:07:55Z</time>
      </trkpt>
      <trkpt lat="45.28597" lon="2.95764">
        <ele>1247</ele>
        <time>2021-08-24T10:07:57Z</time>
      </trkpt>
      <trkpt lat="45.28595" lon="2.95774">
        <ele>1247</ele>
        <time>2021-08-24T10:07:59Z</time>
      </trkpt>
      <trkpt lat="45.28593" lon="2.95783">
        <ele>1246.9</ele>
        <time>2021-08-24T10:08:01Z</time>
      </trkpt>
      <trkpt lat="45.28591" lon="2.95792">
        <ele>1246.8</ele>
        <time>2021-08-24T10:08:03Z</time>
      </trkpt>
      <trkpt lat="45.28589" lon="2.95802">
        <ele>1246.8</ele>
        <time>2021-08-24T10:08:05Z</time>
      </trkpt>
      <trkpt lat="45.28587" lon="2.95812">
        <ele>1246.9</ele>
        <time>2021-08-24T10:08:07Z</time>
      </trkpt>
      <trkpt lat="45.28585" lon="2.95821">
        <ele>1246.9</ele>
        <time>2021-08-24T10:08:09Z</time>
      </trkpt>
      <trkpt lat="45.28583" lon="2.95831">
        <ele>1246.9</ele>
        <time>2021-08-24T10:08:11Z</time>
      </trkpt>
      <trkpt lat="45.28582" lon="2.95842">
        <ele>1246.8</ele>
        <time>2021-08-24T10:08:13Z</time>
      </trkpt>
      <trkpt lat="45.28579" lon="2.95852">
        <ele>1246.6</ele>
        <time>2021-08-24T10:08:15Z</time>
      </trkpt>
      <trkpt lat="45.28577" lon="2.95863">
        <ele>1246.4</ele>
        <time>2021-08-24T10:08:17Z</time>
      </trkpt>
      <trkpt lat="45.28574" lon="2.95873">
        <ele>1246.2</ele>
        <time>2021-08-24T10:08:19Z</time>
      </trkpt>
      <trkpt lat="45.28572" lon="2.95884">
        <ele>1246</ele>
        <time>2021-08-24T10:08:21Z</time>
      </trkpt>
      <trkpt lat="45.2857" lon="2.95895">
        <ele>1246</ele>
        <time>2021-08-24T10:08:23Z</time>
      </trkpt>
      <trkpt lat="45.28568" lon="2.95905">
        <ele>1245.8</ele>
        <time>2021-08-24T10:08:25Z</time>
      </trkpt>
      <trkpt lat="45.28566" lon="2.95916">
        <ele>1245.8</ele>
        <time>2021-08-24T10:08:27Z</time>
      </trkpt>
      <trkpt lat="45.28563" lon="2.95926">
        <ele>1245.6</ele>
        <time>2021-08-24T10:08:29Z</time>
      </trkpt>
      <trkpt lat="45.28562" lon="2.95936">
        <ele>1245.4</ele>
        <time>2021-08-24T10:08:31Z</time>
      </trkpt>
      <trkpt lat="45.2856" lon="2.95947">
        <ele>1245.3</ele>
        <time>2021-08-24T10:08:33Z</time>
      </trkpt>
      <trkpt lat="45.28558" lon="2.95958">
        <ele>1245.2</ele>
        <time>2021-08-24T10:08:35Z</time>
      </trkpt>
      <trkpt lat="45.28557" lon="2.95969">
        <ele>1245.2</ele>
        <time>2021-08-24T10:08:37Z</time>
      </trkpt>
      <trkpt lat="45.28556" lon="2.9598">
        <ele>1245.4</ele>
        <time>2021-08-24T10:08:39Z</time>
      </trkpt>
      <trkpt lat="45.28556" lon="2.95991">
        <ele>1245.5</ele>
        <time>2021-08-24T10:08:41Z</time>
      </trkpt>
      <trkpt lat="45.28555" lon="2.96002">
        <ele>1245.6</ele>
        <time>2021-08-24T10:08:43Z</time>
      </trkpt>
      <trkpt lat="45.28555" lon="2.96013">
        <ele>1245.4</ele>
        <time>2021-08-24T10:08:45Z</time>
      </trkpt>
      <trkpt lat="45.28555" lon="2.96025">
        <ele>1245.1</ele>
        <time>2021-08-24T10:08:47Z</time>
      </trkpt>
      <trkpt lat="45.28555" lon="2.96035">
        <ele>1244.9</ele>
        <time>2021-08-24T10:08:49Z</time>
      </trkpt>
      <trkpt lat="45.28556" lon="2.96044">
        <ele>1244.8</ele>
        <time>2021-08-24T10:08:51Z</time>
      </trkpt>
      <trkpt lat="45.28556" lon="2.96051">
        <ele>1244.7</ele>
        <time>2021-08-24T10:08:53Z</time>
      </trkpt>
      <trkpt lat="45.28556" lon="2.96057">
        <ele>1244.6</ele>
        <time>2021-08-24T10:08:55Z</time>
      </trkpt>
      <trkpt lat="45.28558" lon="2.96063">
        <ele>1244.7</ele>
        <time>2021-08-24T10:08:57Z</time>
      </trkpt>
      <trkpt lat="45.28559" lon="2.96069">
        <ele>1244.6</ele>
        <time>2021-08-24T10:08:59Z</time>
      </trkpt>
      <trkpt lat="45.2856" lon="2.96074">
        <ele>1244.6</ele>
        <time>2021-08-24T10:09:01Z</time>
      </trkpt>
      <trkpt lat="45.2856" lon="2.96074">
        <ele>1244.6</ele>
        <time>2021-08-24T10:09:03Z</time>
      </trkpt>
      <trkpt lat="45.2856" lon="2.96074">
        <ele>1244.6</ele>
        <time>2021-08-24T10:09:05Z</time>
      </trkpt>
      <trkpt lat="45.2856" lon="2.96074">
        <ele>1244.6</ele>
        <time>2021-08-24T10:09:07Z</time>
      </trkpt>
      <trkpt lat="45.2856" lon="2.96074">
        <ele>1244.6</ele>
        <time>2021-08-24T10:09:09Z</time>
      </trkpt>
      <trkpt lat="45.28559" lon="2.96079">
        <ele>1244.4</ele>
        <time>2021-08-24T10:15:13Z</time>
      </trkpt>
      <trkpt lat="45.28559" lon="2.96079">
        <ele>1244.5</ele>
        <time>2021-08-24T10:15:15Z</time>
      </trkpt>
      <trkpt lat="45.28559" lon="2.9608">
        <ele>1244.4</ele>
        <time>2021-08-24T10:15:17Z</time>
      </trkpt>
      <trkpt lat="45.28558" lon="2.96082">
        <ele>1244.3</ele>
        <time>2021-08-24T10:15:19Z</time>
      </trkpt>
      <trkpt lat="45.28557" lon="2.96084">
        <ele>1244.2</ele>
        <time>2021-08-24T10:15:21Z</time>
      </trkpt>
      <trkpt lat="45.28557" lon="2.96087">
        <ele>1244.1</ele>
        <time>2021-08-24T10:15:23Z</time>
      </trkpt>
      <trkpt lat="45.28556" lon="2.9609">
        <ele>1244.1</ele>
        <time>2021-08-24T10:15:25Z</time>
      </trkpt>
      <trkpt lat="45.28556" lon="2.96093">
        <ele>1244.1</ele>
        <time>2021-08-24T10:15:27Z</time>
      </trkpt>
      <trkpt lat="45.28556" lon="2.96096">
        <ele>1244.1</ele>
        <time>2021-08-24T10:15:29Z</time>
      </trkpt>
      <trkpt lat="45.28557" lon="2.96099">
        <ele>1244.1</ele>
        <time>2021-08-24T10:15:31Z</time>
      </trkpt>
      <trkpt lat="45.28556" lon="2.96102">
        <ele>1244.1</ele>
        <time>2021-08-24T10:15:33Z</time>
      </trkpt>
      <trkpt lat="45.28557" lon="2.96105">
        <ele>1244.1</ele>
        <time>2021-08-24T10:15:35Z</time>
      </trkpt>
      <trkpt lat="45.28557" lon="2.96108">
        <ele>1244.1</ele>
        <time>2021-08-24T10:15:37Z</time>
      </trkpt>
      <trkpt lat="45.28557" lon="2.96108">
        <ele>1244.1</ele>
        <time>2021-08-24T10:15:39Z</time>
      </trkpt>
      <trkpt lat="45.28557" lon="2.96107">
        <ele>1244.1</ele>
        <time>2021-08-24T10:15:41Z</time>
      </trkpt>
      <trkpt lat="45.28557" lon="2.96132">
        <ele>1244.2</ele>
        <time>2021-08-24T10:16:21Z</time>
      </trkpt>
      <trkpt lat="45.28558" lon="2.96139">
        <ele>1244.3</ele>
        <time>2021-08-24T10:16:23Z</time>
      </trkpt>
      <trkpt lat="45.28558" lon="2.96146">
        <ele>1244.3</ele>
        <time>2021-08-24T10:16:25Z</time>
      </trkpt>
      <trkpt lat="45.28558" lon="2.96153">
        <ele>1244.2</ele>
        <time>2021-08-24T10:16:27Z</time>
      </trkpt>
      <trkpt lat="45.28558" lon="2.96161">
        <ele>1244.3</ele>
        <time>2021-08-24T10:16:29Z</time>
      </trkpt>
      <trkpt lat="45.28558" lon="2.96168">
        <ele>1244.3</ele>
        <time>2021-08-24T10:16:31Z</time>
      </trkpt>
      <trkpt lat="45.28558" lon="2.96177">
        <ele>1244.2</ele>
        <time>2021-08-24T10:16:33Z</time>
      </trkpt>
      <trkpt lat="45.28559" lon="2.96186">
        <ele>1244.2</ele>
        <time>2021-08-24T10:16:35Z</time>
      </trkpt>
      <trkpt lat="45.28559" lon="2.96194">
        <ele>1244.2</ele>
        <time>2021-08-24T10:16:37Z</time>
      </trkpt>
      <trkpt lat="45.28559" lon="2.96202">
        <ele>1244.2</ele>
        <time>2021-08-24T10:16:39Z</time>
      </trkpt>
      <trkpt lat="45.2856" lon="2.96211">
        <ele>1244.1</ele>
        <time>2021-08-24T10:16:41Z</time>
      </trkpt>
      <trkpt lat="45.2856" lon="2.96219">
        <ele>1244.1</ele>
        <time>2021-08-24T10:16:43Z</time>
      </trkpt>
      <trkpt lat="45.28561" lon="2.96228">
        <ele>1244.2</ele>
        <time>2021-08-24T10:16:45Z</time>
      </trkpt>
      <trkpt lat="45.28562" lon="2.96236">
        <ele>1244.3</ele>
        <time>2021-08-24T10:16:47Z</time>
      </trkpt>
      <trkpt lat="45.28564" lon="2.96245">
        <ele>1244.4</ele>
        <time>2021-08-24T10:16:49Z</time>
      </trkpt>
      <trkpt lat="45.28565" lon="2.96253">
        <ele>1244.6</ele>
        <time>2021-08-24T10:16:51Z</time>
      </trkpt>
      <trkpt lat="45.28567" lon="2.96262">
        <ele>1244.9</ele>
        <time>2021-08-24T10:16:53Z</time>
      </trkpt>
      <trkpt lat="45.2857" lon="2.96271">
        <ele>1245.2</ele>
        <time>2021-08-24T10:16:55Z</time>
      </trkpt>
      <trkpt lat="45.28572" lon="2.9628">
        <ele>1245.4</ele>
        <time>2021-08-24T10:16:57Z</time>
      </trkpt>
      <trkpt lat="45.28574" lon="2.9629">
        <ele>1245.8</ele>
        <time>2021-08-24T10:16:59Z</time>
      </trkpt>
      <trkpt lat="45.28577" lon="2.96301">
        <ele>1246.1</ele>
        <time>2021-08-24T10:17:01Z</time>
      </trkpt>
      <trkpt lat="45.28578" lon="2.96313">
        <ele>1246.3</ele>
        <time>2021-08-24T10:17:03Z</time>
      </trkpt>
      <trkpt lat="45.28578" lon="2.96326">
        <ele>1246.2</ele>
        <time>2021-08-24T10:17:05Z</time>
      </trkpt>
      <trkpt lat="45.28576" lon="2.96338">
        <ele>1246.1</ele>
        <time>2021-08-24T10:17:07Z</time>
      </trkpt>
      <trkpt lat="45.28572" lon="2.9635">
        <ele>1246</ele>
        <time>2021-08-24T10:17:09Z</time>
      </trkpt>
      <trkpt lat="45.28568" lon="2.9636">
        <ele>1245.7</ele>
        <time>2021-08-24T10:17:11Z</time>
      </trkpt>
      <trkpt lat="45.28564" lon="2.9637">
        <ele>1245.4</ele>
        <time>2021-08-24T10:17:13Z</time>
      </trkpt>
      <trkpt lat="45.28558" lon="2.9638">
        <ele>1244.9</ele>
        <time>2021-08-24T10:17:15Z</time>
      </trkpt>
      <trkpt lat="45.28554" lon="2.96391">
        <ele>1244.6</ele>
        <time>2021-08-24T10:17:17Z</time>
      </trkpt>
      <trkpt lat="45.2855" lon="2.96401">
        <ele>1244.3</ele>
        <time>2021-08-24T10:17:19Z</time>
      </trkpt>
      <trkpt lat="45.28546" lon="2.96411">
        <ele>1244</ele>
        <time>2021-08-24T10:17:21Z</time>
      </trkpt>
      <trkpt lat="45.28542" lon="2.96421">
        <ele>1243.5</ele>
        <time>2021-08-24T10:17:23Z</time>
      </trkpt>
      <trkpt lat="45.28538" lon="2.96433">
        <ele>1243.1</ele>
        <time>2021-08-24T10:17:25Z</time>
      </trkpt>
      <trkpt lat="45.28535" lon="2.96444">
        <ele>1242.7</ele>
        <time>2021-08-24T10:17:27Z</time>
      </trkpt>
      <trkpt lat="45.28533" lon="2.96456">
        <ele>1242.5</ele>
        <time>2021-08-24T10:17:29Z</time>
      </trkpt>
      <trkpt lat="45.28532" lon="2.96467">
        <ele>1242.3</ele>
        <time>2021-08-24T10:17:31Z</time>
      </trkpt>
      <trkpt lat="45.28531" lon="2.96479">
        <ele>1242.3</ele>
        <time>2021-08-24T10:17:33Z</time>
      </trkpt>
      <trkpt lat="45.28532" lon="2.9649">
        <ele>1242.5</ele>
        <time>2021-08-24T10:17:35Z</time>
      </trkpt>
      <trkpt lat="45.28533" lon="2.965">
        <ele>1242.8</ele>
        <time>2021-08-24T10:17:37Z</time>
      </trkpt>
      <trkpt lat="45.28536" lon="2.9651">
        <ele>1243</ele>
        <time>2021-08-24T10:17:39Z</time>
      </trkpt>
      <trkpt lat="45.28539" lon="2.96519">
        <ele>1243.3</ele>
        <time>2021-08-24T10:17:41Z</time>
      </trkpt>
      <trkpt lat="45.28542" lon="2.96528">
        <ele>1243.5</ele>
        <time>2021-08-24T10:17:43Z</time>
      </trkpt>
      <trkpt lat="45.28545" lon="2.96537">
        <ele>1243.7</ele>
        <time>2021-08-24T10:17:45Z</time>
      </trkpt>
      <trkpt lat="45.28548" lon="2.96545">
        <ele>1243.9</ele>
        <time>2021-08-24T10:17:47Z</time>
      </trkpt>
      <trkpt lat="45.28552" lon="2.96553">
        <ele>1243.9</ele>
        <time>2021-08-24T10:17:49Z</time>
      </trkpt>
      <trkpt lat="45.28556" lon="2.9656">
        <ele>1244.1</ele>
        <time>2021-08-24T10:17:51Z</time>
      </trkpt>
      <trkpt lat="45.2856" lon="2.96568">
        <ele>1244.2</ele>
        <time>2021-08-24T10:17:53Z</time>
      </trkpt>
      <trkpt lat="45.28565" lon="2.96575">
        <ele>1244.2</ele>
        <time>2021-08-24T10:17:55Z</time>
      </trkpt>
      <trkpt lat="45.2857" lon="2.96582">
        <ele>1244.3</ele>
        <time>2021-08-24T10:17:57Z</time>
      </trkpt>
      <trkpt lat="45.28575" lon="2.96588">
        <ele>1244.2</ele>
        <time>2021-08-24T10:17:59Z</time>
      </trkpt>
      <trkpt lat="45.28579" lon="2.96593">
        <ele>1244.2</ele>
        <time>2021-08-24T10:18:01Z</time>
      </trkpt>
      <trkpt lat="45.28585" lon="2.96597">
        <ele>1244.3</ele>
        <time>2021-08-24T10:18:03Z</time>
      </trkpt>
      <trkpt lat="45.2859" lon="2.96601">
        <ele>1244.7</ele>
        <time>2021-08-24T10:18:05Z</time>
      </trkpt>
      <trkpt lat="45.28596" lon="2.96604">
        <ele>1245.1</ele>
        <time>2021-08-24T10:18:07Z</time>
      </trkpt>
      <trkpt lat="45.28602" lon="2.96607">
        <ele>1245.6</ele>
        <time>2021-08-24T10:18:09Z</time>
      </trkpt>
      <trkpt lat="45.28608" lon="2.96609">
        <ele>1246</ele>
        <time>2021-08-24T10:18:11Z</time>
      </trkpt>
      <trkpt lat="45.28614" lon="2.96611">
        <ele>1246.5</ele>
        <time>2021-08-24T10:18:13Z</time>
      </trkpt>
      <trkpt lat="45.2862" lon="2.96613">
        <ele>1247</ele>
        <time>2021-08-24T10:18:15Z</time>
      </trkpt>
      <trkpt lat="45.28625" lon="2.96616">
        <ele>1247.4</ele>
        <time>2021-08-24T10:18:17Z</time>
      </trkpt>
      <trkpt lat="45.2863" lon="2.96619">
        <ele>1247.7</ele>
        <time>2021-08-24T10:18:19Z</time>
      </trkpt>
      <trkpt lat="45.28636" lon="2.96623">
        <ele>1248</ele>
        <time>2021-08-24T10:18:21Z</time>
      </trkpt>
      <trkpt lat="45.28641" lon="2.96627">
        <ele>1248.2</ele>
        <time>2021-08-24T10:18:23Z</time>
      </trkpt>
      <trkpt lat="45.28646" lon="2.96632">
        <ele>1248.4</ele>
        <time>2021-08-24T10:18:25Z</time>
      </trkpt>
      <trkpt lat="45.28651" lon="2.96638">
        <ele>1248.4</ele>
        <time>2021-08-24T10:18:27Z</time>
      </trkpt>
      <trkpt lat="45.28654" lon="2.96644">
        <ele>1248.4</ele>
        <time>2021-08-24T10:18:29Z</time>
      </trkpt>
      <trkpt lat="45.28658" lon="2.9665">
        <ele>1248.3</ele>
        <time>2021-08-24T10:18:31Z</time>
      </trkpt>
      <trkpt lat="45.28661" lon="2.96657">
        <ele>1248.2</ele>
        <time>2021-08-24T10:18:33Z</time>
      </trkpt>
      <trkpt lat="45.28664" lon="2.96664">
        <ele>1248</ele>
        <time>2021-08-24T10:18:35Z</time>
      </trkpt>
      <trkpt lat="45.28667" lon="2.96671">
        <ele>1248.1</ele>
        <time>2021-08-24T10:18:37Z</time>
      </trkpt>
      <trkpt lat="45.2867" lon="2.96678">
        <ele>1248.4</ele>
        <time>2021-08-24T10:18:39Z</time>
      </trkpt>
      <trkpt lat="45.28673" lon="2.96685">
        <ele>1248.8</ele>
        <time>2021-08-24T10:18:41Z</time>
      </trkpt>
      <trkpt lat="45.28675" lon="2.96692">
        <ele>1249.1</ele>
        <time>2021-08-24T10:18:43Z</time>
      </trkpt>
      <trkpt lat="45.28677" lon="2.96699">
        <ele>1249.3</ele>
        <time>2021-08-24T10:18:45Z</time>
      </trkpt>
      <trkpt lat="45.28679" lon="2.96707">
        <ele>1249.5</ele>
        <time>2021-08-24T10:18:47Z</time>
      </trkpt>
      <trkpt lat="45.2868" lon="2.96715">
        <ele>1249.6</ele>
        <time>2021-08-24T10:18:49Z</time>
      </trkpt>
      <trkpt lat="45.28681" lon="2.96723">
        <ele>1249.6</ele>
        <time>2021-08-24T10:18:51Z</time>
      </trkpt>
      <trkpt lat="45.28681" lon="2.96731">
        <ele>1249.6</ele>
        <time>2021-08-24T10:18:53Z</time>
      </trkpt>
      <trkpt lat="45.2868" lon="2.96739">
        <ele>1249.5</ele>
        <time>2021-08-24T10:18:55Z</time>
      </trkpt>
      <trkpt lat="45.2868" lon="2.96746">
        <ele>1249.4</ele>
        <time>2021-08-24T10:18:57Z</time>
      </trkpt>
      <trkpt lat="45.28679" lon="2.96753">
        <ele>1249.7</ele>
        <time>2021-08-24T10:18:59Z</time>
      </trkpt>
      <trkpt lat="45.28678" lon="2.96761">
        <ele>1250.4</ele>
        <time>2021-08-24T10:19:01Z</time>
      </trkpt>
      <trkpt lat="45.28676" lon="2.96767">
        <ele>1251</ele>
        <time>2021-08-24T10:19:03Z</time>
      </trkpt>
      <trkpt lat="45.28674" lon="2.96774">
        <ele>1251.6</ele>
        <time>2021-08-24T10:19:05Z</time>
      </trkpt>
      <trkpt lat="45.28671" lon="2.9678">
        <ele>1252</ele>
        <time>2021-08-24T10:19:07Z</time>
      </trkpt>
      <trkpt lat="45.28667" lon="2.96786">
        <ele>1252.4</ele>
        <time>2021-08-24T10:19:09Z</time>
      </trkpt>
      <trkpt lat="45.28663" lon="2.9679">
        <ele>1252.6</ele>
        <time>2021-08-24T10:19:11Z</time>
      </trkpt>
      <trkpt lat="45.28659" lon="2.96795">
        <ele>1252.7</ele>
        <time>2021-08-24T10:19:13Z</time>
      </trkpt>
      <trkpt lat="45.28655" lon="2.96799">
        <ele>1252.8</ele>
        <time>2021-08-24T10:19:15Z</time>
      </trkpt>
      <trkpt lat="45.2865" lon="2.96803">
        <ele>1252.7</ele>
        <time>2021-08-24T10:19:17Z</time>
      </trkpt>
      <trkpt lat="45.28646" lon="2.96808">
        <ele>1252.9</ele>
        <time>2021-08-24T10:19:19Z</time>
      </trkpt>
      <trkpt lat="45.28642" lon="2.96812">
        <ele>1252.9</ele>
        <time>2021-08-24T10:19:21Z</time>
      </trkpt>
      <trkpt lat="45.28638" lon="2.96818">
        <ele>1253.1</ele>
        <time>2021-08-24T10:19:23Z</time>
      </trkpt>
      <trkpt lat="45.28634" lon="2.96822">
        <ele>1253.2</ele>
        <time>2021-08-24T10:19:25Z</time>
      </trkpt>
      <trkpt lat="45.2863" lon="2.96828">
        <ele>1253.5</ele>
        <time>2021-08-24T10:19:27Z</time>
      </trkpt>
      <trkpt lat="45.28626" lon="2.96834">
        <ele>1253.7</ele>
        <time>2021-08-24T10:19:29Z</time>
      </trkpt>
      <trkpt lat="45.28623" lon="2.9684">
        <ele>1254</ele>
        <time>2021-08-24T10:19:31Z</time>
      </trkpt>
      <trkpt lat="45.2862" lon="2.96846">
        <ele>1254.3</ele>
        <time>2021-08-24T10:19:33Z</time>
      </trkpt>
      <trkpt lat="45.28617" lon="2.96851">
        <ele>1254.6</ele>
        <time>2021-08-24T10:19:35Z</time>
      </trkpt>
      <trkpt lat="45.28614" lon="2.96857">
        <ele>1254.8</ele>
        <time>2021-08-24T10:19:37Z</time>
      </trkpt>
      <trkpt lat="45.28612" lon="2.96863">
        <ele>1255.2</ele>
        <time>2021-08-24T10:19:39Z</time>
      </trkpt>
      <trkpt lat="45.28609" lon="2.96869">
        <ele>1255.5</ele>
        <time>2021-08-24T10:19:41Z</time>
      </trkpt>
      <trkpt lat="45.28606" lon="2.96876">
        <ele>1255.8</ele>
        <time>2021-08-24T10:19:43Z</time>
      </trkpt>
      <trkpt lat="45.28604" lon="2.96882">
        <ele>1256.1</ele>
        <time>2021-08-24T10:19:45Z</time>
      </trkpt>
      <trkpt lat="45.28601" lon="2.96888">
        <ele>1256.5</ele>
        <time>2021-08-24T10:19:47Z</time>
      </trkpt>
      <trkpt lat="45.28599" lon="2.96894">
        <ele>1256.8</ele>
        <time>2021-08-24T10:19:49Z</time>
      </trkpt>
      <trkpt lat="45.28597" lon="2.969">
        <ele>1257.2</ele>
        <time>2021-08-24T10:19:51Z</time>
      </trkpt>
      <trkpt lat="45.28595" lon="2.96906">
        <ele>1257.5</ele>
        <time>2021-08-24T10:19:53Z</time>
      </trkpt>
      <trkpt lat="45.28593" lon="2.96912">
        <ele>1257.9</ele>
        <time>2021-08-24T10:19:55Z</time>
      </trkpt>
      <trkpt lat="45.28592" lon="2.96918">
        <ele>1258.2</ele>
        <time>2021-08-24T10:19:57Z</time>
      </trkpt>
      <trkpt lat="45.2859" lon="2.96924">
        <ele>1258.4</ele>
        <time>2021-08-24T10:19:59Z</time>
      </trkpt>
      <trkpt lat="45.28588" lon="2.9693">
        <ele>1258.6</ele>
        <time>2021-08-24T10:20:01Z</time>
      </trkpt>
      <trkpt lat="45.28587" lon="2.96936">
        <ele>1258.9</ele>
        <time>2021-08-24T10:20:03Z</time>
      </trkpt>
      <trkpt lat="45.28586" lon="2.96942">
        <ele>1259.2</ele>
        <time>2021-08-24T10:20:05Z</time>
      </trkpt>
      <trkpt lat="45.28585" lon="2.96948">
        <ele>1259.5</ele>
        <time>2021-08-24T10:20:07Z</time>
      </trkpt>
      <trkpt lat="45.28583" lon="2.96954">
        <ele>1259.7</ele>
        <time>2021-08-24T10:20:09Z</time>
      </trkpt>
      <trkpt lat="45.28582" lon="2.9696">
        <ele>1260</ele>
        <time>2021-08-24T10:20:11Z</time>
      </trkpt>
      <trkpt lat="45.28581" lon="2.96965">
        <ele>1260.3</ele>
        <time>2021-08-24T10:20:13Z</time>
      </trkpt>
      <trkpt lat="45.2858" lon="2.96971">
        <ele>1260.6</ele>
        <time>2021-08-24T10:20:15Z</time>
      </trkpt>
      <trkpt lat="45.28579" lon="2.96976">
        <ele>1260.9</ele>
        <time>2021-08-24T10:20:17Z</time>
      </trkpt>
      <trkpt lat="45.28577" lon="2.96982">
        <ele>1261.2</ele>
        <time>2021-08-24T10:20:19Z</time>
      </trkpt>
      <trkpt lat="45.28577" lon="2.96987">
        <ele>1261.5</ele>
        <time>2021-08-24T10:20:21Z</time>
      </trkpt>
      <trkpt lat="45.28576" lon="2.96993">
        <ele>1261.9</ele>
        <time>2021-08-24T10:20:23Z</time>
      </trkpt>
      <trkpt lat="45.28574" lon="2.96999">
        <ele>1262.1</ele>
        <time>2021-08-24T10:20:25Z</time>
      </trkpt>
      <trkpt lat="45.28573" lon="2.97004">
        <ele>1262.3</ele>
        <time>2021-08-24T10:20:27Z</time>
      </trkpt>
      <trkpt lat="45.28572" lon="2.9701">
        <ele>1262.3</ele>
        <time>2021-08-24T10:20:29Z</time>
      </trkpt>
      <trkpt lat="45.2857" lon="2.97015">
        <ele>1262.4</ele>
        <time>2021-08-24T10:20:31Z</time>
      </trkpt>
      <trkpt lat="45.28569" lon="2.9702">
        <ele>1262.5</ele>
        <time>2021-08-24T10:20:33Z</time>
      </trkpt>
      <trkpt lat="45.28568" lon="2.97025">
        <ele>1262.5</ele>
        <time>2021-08-24T10:20:35Z</time>
      </trkpt>
      <trkpt lat="45.28567" lon="2.9703">
        <ele>1262.6</ele>
        <time>2021-08-24T10:20:37Z</time>
      </trkpt>
      <trkpt lat="45.28567" lon="2.97034">
        <ele>1262.7</ele>
        <time>2021-08-24T10:20:39Z</time>
      </trkpt>
      <trkpt lat="45.28565" lon="2.9704">
        <ele>1262.7</ele>
        <time>2021-08-24T10:20:41Z</time>
      </trkpt>
      <trkpt lat="45.28565" lon="2.97045">
        <ele>1262.8</ele>
        <time>2021-08-24T10:20:43Z</time>
      </trkpt>
      <trkpt lat="45.28563" lon="2.9705">
        <ele>1262.8</ele>
        <time>2021-08-24T10:20:45Z</time>
      </trkpt>
      <trkpt lat="45.28562" lon="2.97056">
        <ele>1262.9</ele>
        <time>2021-08-24T10:20:47Z</time>
      </trkpt>
      <trkpt lat="45.28561" lon="2.97061">
        <ele>1262.9</ele>
        <time>2021-08-24T10:20:49Z</time>
      </trkpt>
      <trkpt lat="45.2856" lon="2.97067">
        <ele>1263</ele>
        <time>2021-08-24T10:20:51Z</time>
      </trkpt>
      <trkpt lat="45.28559" lon="2.97073">
        <ele>1263.1</ele>
        <time>2021-08-24T10:20:53Z</time>
      </trkpt>
      <trkpt lat="45.28558" lon="2.97078">
        <ele>1263.2</ele>
        <time>2021-08-24T10:20:55Z</time>
      </trkpt>
      <trkpt lat="45.28558" lon="2.97084">
        <ele>1263.3</ele>
        <time>2021-08-24T10:20:57Z</time>
      </trkpt>
      <trkpt lat="45.28557" lon="2.9709">
        <ele>1263.4</ele>
        <time>2021-08-24T10:20:59Z</time>
      </trkpt>
      <trkpt lat="45.28557" lon="2.97095">
        <ele>1263.5</ele>
        <time>2021-08-24T10:21:01Z</time>
      </trkpt>
      <trkpt lat="45.28558" lon="2.971">
        <ele>1263.7</ele>
        <time>2021-08-24T10:21:03Z</time>
      </trkpt>
      <trkpt lat="45.28559" lon="2.97105">
        <ele>1264</ele>
        <time>2021-08-24T10:21:05Z</time>
      </trkpt>
      <trkpt lat="45.28559" lon="2.97111">
        <ele>1264.1</ele>
        <time>2021-08-24T10:21:07Z</time>
      </trkpt>
      <trkpt lat="45.28558" lon="2.97115">
        <ele>1264.2</ele>
        <time>2021-08-24T10:21:09Z</time>
      </trkpt>
      <trkpt lat="45.28558" lon="2.97118">
        <ele>1264.2</ele>
        <time>2021-08-24T10:21:11Z</time>
      </trkpt>
      <trkpt lat="45.28558" lon="2.97119">
        <ele>1264.3</ele>
        <time>2021-08-24T10:21:13Z</time>
      </trkpt>
      <trkpt lat="45.28558" lon="2.97122">
        <ele>1264.3</ele>
        <time>2021-08-24T10:21:15Z</time>
      </trkpt>
      <trkpt lat="45.28558" lon="2.97122">
        <ele>1264.3</ele>
        <time>2021-08-24T10:21:17Z</time>
      </trkpt>
      <trkpt lat="45.28558" lon="2.97122">
        <ele>1264.3</ele>
        <time>2021-08-24T10:21:19Z</time>
      </trkpt>
      <trkpt lat="45.28565" lon="2.97133">
        <ele>1265.6</ele>
        <time>2021-08-24T10:26:33Z</time>
      </trkpt>
      <trkpt lat="45.28567" lon="2.97138">
        <ele>1265.9</ele>
        <time>2021-08-24T10:26:35Z</time>
      </trkpt>
      <trkpt lat="45.28568" lon="2.97143">
        <ele>1266.3</ele>
        <time>2021-08-24T10:26:37Z</time>
      </trkpt>
      <trkpt lat="45.2857" lon="2.97148">
        <ele>1266.7</ele>
        <time>2021-08-24T10:26:39Z</time>
      </trkpt>
      <trkpt lat="45.28571" lon="2.97152">
        <ele>1267</ele>
        <time>2021-08-24T10:26:41Z</time>
      </trkpt>
      <trkpt lat="45.28573" lon="2.97157">
        <ele>1267.4</ele>
        <time>2021-08-24T10:26:43Z</time>
      </trkpt>
      <trkpt lat="45.28575" lon="2.97162">
        <ele>1267.7</ele>
        <time>2021-08-24T10:26:45Z</time>
      </trkpt>
      <trkpt lat="45.28577" lon="2.97167">
        <ele>1268.1</ele>
        <time>2021-08-24T10:26:47Z</time>
      </trkpt>
      <trkpt lat="45.28578" lon="2.97172">
        <ele>1268.2</ele>
        <time>2021-08-24T10:26:49Z</time>
      </trkpt>
      <trkpt lat="45.28581" lon="2.97176">
        <ele>1268.4</ele>
        <time>2021-08-24T10:26:51Z</time>
      </trkpt>
      <trkpt lat="45.28582" lon="2.97182">
        <ele>1268.5</ele>
        <time>2021-08-24T10:26:53Z</time>
      </trkpt>
      <trkpt lat="45.28584" lon="2.97187">
        <ele>1268.7</ele>
        <time>2021-08-24T10:26:55Z</time>
      </trkpt>
      <trkpt lat="45.28586" lon="2.97191">
        <ele>1268.9</ele>
        <time>2021-08-24T10:26:57Z</time>
      </trkpt>
      <trkpt lat="45.28588" lon="2.97196">
        <ele>1269</ele>
        <time>2021-08-24T10:26:59Z</time>
      </trkpt>
      <trkpt lat="45.2859" lon="2.97201">
        <ele>1269.3</ele>
        <time>2021-08-24T10:27:01Z</time>
      </trkpt>
      <trkpt lat="45.28592" lon="2.97206">
        <ele>1269.5</ele>
        <time>2021-08-24T10:27:03Z</time>
      </trkpt>
      <trkpt lat="45.28594" lon="2.97211">
        <ele>1269.7</ele>
        <time>2021-08-24T10:27:05Z</time>
      </trkpt>
      <trkpt lat="45.28596" lon="2.97216">
        <ele>1269.8</ele>
        <time>2021-08-24T10:27:07Z</time>
      </trkpt>
      <trkpt lat="45.28598" lon="2.97221">
        <ele>1270</ele>
        <time>2021-08-24T10:27:09Z</time>
      </trkpt>
      <trkpt lat="45.286" lon="2.97226">
        <ele>1270.2</ele>
        <time>2021-08-24T10:27:11Z</time>
      </trkpt>
      <trkpt lat="45.28602" lon="2.97232">
        <ele>1270.4</ele>
        <time>2021-08-24T10:27:13Z</time>
      </trkpt>
      <trkpt lat="45.28605" lon="2.97237">
        <ele>1270.6</ele>
        <time>2021-08-24T10:27:15Z</time>
      </trkpt>
      <trkpt lat="45.28607" lon="2.97243">
        <ele>1270.8</ele>
        <time>2021-08-24T10:27:17Z</time>
      </trkpt>
      <trkpt lat="45.28608" lon="2.97248">
        <ele>1271</ele>
        <time>2021-08-24T10:27:19Z</time>
      </trkpt>
      <trkpt lat="45.28611" lon="2.97253">
        <ele>1271.2</ele>
        <time>2021-08-24T10:27:21Z</time>
      </trkpt>
      <trkpt lat="45.28612" lon="2.97258">
        <ele>1271.4</ele>
        <time>2021-08-24T10:27:23Z</time>
      </trkpt>
      <trkpt lat="45.28614" lon="2.97263">
        <ele>1271.5</ele>
        <time>2021-08-24T10:27:25Z</time>
      </trkpt>
      <trkpt lat="45.28616" lon="2.97268">
        <ele>1271.6</ele>
        <time>2021-08-24T10:27:27Z</time>
      </trkpt>
      <trkpt lat="45.28618" lon="2.97273">
        <ele>1271.7</ele>
        <time>2021-08-24T10:27:29Z</time>
      </trkpt>
      <trkpt lat="45.2862" lon="2.97278">
        <ele>1271.9</ele>
        <time>2021-08-24T10:27:31Z</time>
      </trkpt>
      <trkpt lat="45.28621" lon="2.97283">
        <ele>1272</ele>
        <time>2021-08-24T10:27:33Z</time>
      </trkpt>
      <trkpt lat="45.28623" lon="2.97288">
        <ele>1272.1</ele>
        <time>2021-08-24T10:27:35Z</time>
      </trkpt>
      <trkpt lat="45.28625" lon="2.97294">
        <ele>1272.2</ele>
        <time>2021-08-24T10:27:37Z</time>
      </trkpt>
      <trkpt lat="45.28626" lon="2.97299">
        <ele>1272.2</ele>
        <time>2021-08-24T10:27:39Z</time>
      </trkpt>
      <trkpt lat="45.28628" lon="2.97304">
        <ele>1272.3</ele>
        <time>2021-08-24T10:27:41Z</time>
      </trkpt>
      <trkpt lat="45.2863" lon="2.97309">
        <ele>1272.4</ele>
        <time>2021-08-24T10:27:43Z</time>
      </trkpt>
      <trkpt lat="45.28631" lon="2.97315">
        <ele>1272.4</ele>
        <time>2021-08-24T10:27:45Z</time>
      </trkpt>
      <trkpt lat="45.28633" lon="2.9732">
        <ele>1272.4</ele>
        <time>2021-08-24T10:27:47Z</time>
      </trkpt>
      <trkpt lat="45.28635" lon="2.97326">
        <ele>1272.4</ele>
        <time>2021-08-24T10:27:49Z</time>
      </trkpt>
      <trkpt lat="45.28637" lon="2.97331">
        <ele>1272.5</ele>
        <time>2021-08-24T10:27:51Z</time>
      </trkpt>
      <trkpt lat="45.28639" lon="2.97337">
        <ele>1272.5</ele>
        <time>2021-08-24T10:27:53Z</time>
      </trkpt>
      <trkpt lat="45.28641" lon="2.97342">
        <ele>1272.6</ele>
        <time>2021-08-24T10:27:55Z</time>
      </trkpt>
      <trkpt lat="45.28642" lon="2.97348">
        <ele>1272.6</ele>
        <time>2021-08-24T10:27:57Z</time>
      </trkpt>
      <trkpt lat="45.28644" lon="2.97353">
        <ele>1272.6</ele>
        <time>2021-08-24T10:27:59Z</time>
      </trkpt>
      <trkpt lat="45.28646" lon="2.97359">
        <ele>1272.7</ele>
        <time>2021-08-24T10:28:01Z</time>
      </trkpt>
      <trkpt lat="45.28648" lon="2.97365">
        <ele>1272.7</ele>
        <time>2021-08-24T10:28:03Z</time>
      </trkpt>
      <trkpt lat="45.2865" lon="2.97371">
        <ele>1272.7</ele>
        <time>2021-08-24T10:28:05Z</time>
      </trkpt>
      <trkpt lat="45.28652" lon="2.97377">
        <ele>1272.7</ele>
        <time>2021-08-24T10:28:07Z</time>
      </trkpt>
      <trkpt lat="45.28654" lon="2.97383">
        <ele>1272.8</ele>
        <time>2021-08-24T10:28:09Z</time>
      </trkpt>
      <trkpt lat="45.28655" lon="2.97389">
        <ele>1272.7</ele>
        <time>2021-08-24T10:28:11Z</time>
      </trkpt>
      <trkpt lat="45.28658" lon="2.97395">
        <ele>1272.8</ele>
        <time>2021-08-24T10:28:13Z</time>
      </trkpt>
      <trkpt lat="45.2866" lon="2.97402">
        <ele>1272.8</ele>
        <time>2021-08-24T10:28:15Z</time>
      </trkpt>
      <trkpt lat="45.28662" lon="2.97409">
        <ele>1272.8</ele>
        <time>2021-08-24T10:28:17Z</time>
      </trkpt>
      <trkpt lat="45.28664" lon="2.97415">
        <ele>1272.8</ele>
        <time>2021-08-24T10:28:19Z</time>
      </trkpt>
      <trkpt lat="45.28667" lon="2.97422">
        <ele>1272.8</ele>
        <time>2021-08-24T10:28:21Z</time>
      </trkpt>
      <trkpt lat="45.28669" lon="2.97429">
        <ele>1272.8</ele>
        <time>2021-08-24T10:28:23Z</time>
      </trkpt>
      <trkpt lat="45.28671" lon="2.97436">
        <ele>1272.8</ele>
        <time>2021-08-24T10:28:25Z</time>
      </trkpt>
      <trkpt lat="45.28673" lon="2.97443">
        <ele>1272.8</ele>
        <time>2021-08-24T10:28:27Z</time>
      </trkpt>
      <trkpt lat="45.28676" lon="2.9745">
        <ele>1272.8</ele>
        <time>2021-08-24T10:28:29Z</time>
      </trkpt>
      <trkpt lat="45.28678" lon="2.97457">
        <ele>1272.8</ele>
        <time>2021-08-24T10:28:31Z</time>
      </trkpt>
      <trkpt lat="45.2868" lon="2.97465">
        <ele>1272.8</ele>
        <time>2021-08-24T10:28:33Z</time>
      </trkpt>
      <trkpt lat="45.28682" lon="2.97472">
        <ele>1272.8</ele>
        <time>2021-08-24T10:28:35Z</time>
      </trkpt>
      <trkpt lat="45.28685" lon="2.97479">
        <ele>1272.8</ele>
        <time>2021-08-24T10:28:37Z</time>
      </trkpt>
      <trkpt lat="45.28687" lon="2.97487">
        <ele>1272.8</ele>
        <time>2021-08-24T10:28:39Z</time>
      </trkpt>
      <trkpt lat="45.2869" lon="2.97494">
        <ele>1272.9</ele>
        <time>2021-08-24T10:28:41Z</time>
      </trkpt>
      <trkpt lat="45.28692" lon="2.97502">
        <ele>1272.9</ele>
        <time>2021-08-24T10:28:43Z</time>
      </trkpt>
      <trkpt lat="45.28696" lon="2.97509">
        <ele>1272.8</ele>
        <time>2021-08-24T10:28:45Z</time>
      </trkpt>
      <trkpt lat="45.28698" lon="2.97517">
        <ele>1272.6</ele>
        <time>2021-08-24T10:28:47Z</time>
      </trkpt>
      <trkpt lat="45.287" lon="2.97525">
        <ele>1272.5</ele>
        <time>2021-08-24T10:28:49Z</time>
      </trkpt>
      <trkpt lat="45.28702" lon="2.97532">
        <ele>1272.3</ele>
        <time>2021-08-24T10:28:51Z</time>
      </trkpt>
      <trkpt lat="45.28705" lon="2.9754">
        <ele>1272.1</ele>
        <time>2021-08-24T10:28:53Z</time>
      </trkpt>
      <trkpt lat="45.28707" lon="2.97548">
        <ele>1271.9</ele>
        <time>2021-08-24T10:28:55Z</time>
      </trkpt>
      <trkpt lat="45.2871" lon="2.97555">
        <ele>1271.7</ele>
        <time>2021-08-24T10:28:57Z</time>
      </trkpt>
      <trkpt lat="45.28712" lon="2.97563">
        <ele>1271.5</ele>
        <time>2021-08-24T10:28:59Z</time>
      </trkpt>
      <trkpt lat="45.28714" lon="2.9757">
        <ele>1271.4</ele>
        <time>2021-08-24T10:29:01Z</time>
      </trkpt>
      <trkpt lat="45.28716" lon="2.97578">
        <ele>1271.2</ele>
        <time>2021-08-24T10:29:03Z</time>
      </trkpt>
      <trkpt lat="45.28719" lon="2.97585">
        <ele>1271</ele>
        <time>2021-08-24T10:29:05Z</time>
      </trkpt>
      <trkpt lat="45.28722" lon="2.97593">
        <ele>1270.4</ele>
        <time>2021-08-24T10:29:07Z</time>
      </trkpt>
      <trkpt lat="45.28724" lon="2.976">
        <ele>1269.9</ele>
        <time>2021-08-24T10:29:09Z</time>
      </trkpt>
      <trkpt lat="45.28726" lon="2.97607">
        <ele>1269.4</ele>
        <time>2021-08-24T10:29:11Z</time>
      </trkpt>
      <trkpt lat="45.28729" lon="2.97614">
        <ele>1269</ele>
        <time>2021-08-24T10:29:13Z</time>
      </trkpt>
      <trkpt lat="45.2873" lon="2.97621">
        <ele>1268.4</ele>
        <time>2021-08-24T10:29:15Z</time>
      </trkpt>
      <trkpt lat="45.28733" lon="2.97628">
        <ele>1268</ele>
        <time>2021-08-24T10:29:17Z</time>
      </trkpt>
      <trkpt lat="45.28736" lon="2.97635">
        <ele>1267.6</ele>
        <time>2021-08-24T10:29:19Z</time>
      </trkpt>
      <trkpt lat="45.28739" lon="2.97641">
        <ele>1267.4</ele>
        <time>2021-08-24T10:29:21Z</time>
      </trkpt>
      <trkpt lat="45.28742" lon="2.97647">
        <ele>1267.2</ele>
        <time>2021-08-24T10:29:23Z</time>
      </trkpt>
      <trkpt lat="45.28746" lon="2.97653">
        <ele>1266.9</ele>
        <time>2021-08-24T10:29:25Z</time>
      </trkpt>
      <trkpt lat="45.28749" lon="2.97659">
        <ele>1266.8</ele>
        <time>2021-08-24T10:29:27Z</time>
      </trkpt>
      <trkpt lat="45.28754" lon="2.97664">
        <ele>1266.5</ele>
        <time>2021-08-24T10:29:29Z</time>
      </trkpt>
      <trkpt lat="45.28758" lon="2.97668">
        <ele>1266.3</ele>
        <time>2021-08-24T10:29:31Z</time>
      </trkpt>
      <trkpt lat="45.28763" lon="2.97672">
        <ele>1266.2</ele>
        <time>2021-08-24T10:29:33Z</time>
      </trkpt>
      <trkpt lat="45.28769" lon="2.97675">
        <ele>1266.3</ele>
        <time>2021-08-24T10:29:35Z</time>
      </trkpt>
      <trkpt lat="45.28774" lon="2.97676">
        <ele>1266.5</ele>
        <time>2021-08-24T10:29:37Z</time>
      </trkpt>
      <trkpt lat="45.2878" lon="2.97677">
        <ele>1266.8</ele>
        <time>2021-08-24T10:29:39Z</time>
      </trkpt>
      <trkpt lat="45.28786" lon="2.97678">
        <ele>1267.1</ele>
        <time>2021-08-24T10:29:41Z</time>
      </trkpt>
      <trkpt lat="45.28792" lon="2.97677">
        <ele>1267.6</ele>
        <time>2021-08-24T10:29:43Z</time>
      </trkpt>
      <trkpt lat="45.28799" lon="2.97676">
        <ele>1268.1</ele>
        <time>2021-08-24T10:29:45Z</time>
      </trkpt>
      <trkpt lat="45.28805" lon="2.97675">
        <ele>1268.6</ele>
        <time>2021-08-24T10:29:47Z</time>
      </trkpt>
      <trkpt lat="45.28812" lon="2.97674">
        <ele>1269.1</ele>
        <time>2021-08-24T10:29:49Z</time>
      </trkpt>
      <trkpt lat="45.28819" lon="2.97673">
        <ele>1269.7</ele>
        <time>2021-08-24T10:29:51Z</time>
      </trkpt>
      <trkpt lat="45.28826" lon="2.97672">
        <ele>1270.2</ele>
        <time>2021-08-24T10:29:53Z</time>
      </trkpt>
      <trkpt lat="45.28833" lon="2.9767">
        <ele>1270.7</ele>
        <time>2021-08-24T10:29:55Z</time>
      </trkpt>
      <trkpt lat="45.2884" lon="2.97669">
        <ele>1270.9</ele>
        <time>2021-08-24T10:29:57Z</time>
      </trkpt>
      <trkpt lat="45.28847" lon="2.97667">
        <ele>1271.1</ele>
        <time>2021-08-24T10:29:59Z</time>
      </trkpt>
      <trkpt lat="45.28854" lon="2.97667">
        <ele>1271.2</ele>
        <time>2021-08-24T10:30:01Z</time>
      </trkpt>
      <trkpt lat="45.2886" lon="2.97665">
        <ele>1271.5</ele>
        <time>2021-08-24T10:30:03Z</time>
      </trkpt>
      <trkpt lat="45.28867" lon="2.97664">
        <ele>1271.8</ele>
        <time>2021-08-24T10:30:05Z</time>
      </trkpt>
      <trkpt lat="45.28874" lon="2.97663">
        <ele>1272</ele>
        <time>2021-08-24T10:30:07Z</time>
      </trkpt>
      <trkpt lat="45.28881" lon="2.97662">
        <ele>1272.2</ele>
        <time>2021-08-24T10:30:09Z</time>
      </trkpt>
      <trkpt lat="45.28888" lon="2.97661">
        <ele>1272.4</ele>
        <time>2021-08-24T10:30:11Z</time>
      </trkpt>
      <trkpt lat="45.28895" lon="2.9766">
        <ele>1272.6</ele>
        <time>2021-08-24T10:30:13Z</time>
      </trkpt>
      <trkpt lat="45.28902" lon="2.97658">
        <ele>1272.8</ele>
        <time>2021-08-24T10:30:15Z</time>
      </trkpt>
      <trkpt lat="45.28909" lon="2.97657">
        <ele>1273.1</ele>
        <time>2021-08-24T10:30:17Z</time>
      </trkpt>
      <trkpt lat="45.28916" lon="2.97656">
        <ele>1273.3</ele>
        <time>2021-08-24T10:30:19Z</time>
      </trkpt>
      <trkpt lat="45.28923" lon="2.97655">
        <ele>1273.5</ele>
        <time>2021-08-24T10:30:21Z</time>
      </trkpt>
      <trkpt lat="45.2893" lon="2.97654">
        <ele>1273.7</ele>
        <time>2021-08-24T10:30:23Z</time>
      </trkpt>
      <trkpt lat="45.28938" lon="2.97652">
        <ele>1273.9</ele>
        <time>2021-08-24T10:30:25Z</time>
      </trkpt>
      <trkpt lat="45.28945" lon="2.97651">
        <ele>1274</ele>
        <time>2021-08-24T10:30:27Z</time>
      </trkpt>
      <trkpt lat="45.28952" lon="2.97651">
        <ele>1274.1</ele>
        <time>2021-08-24T10:30:29Z</time>
      </trkpt>
      <trkpt lat="45.2896" lon="2.97651">
        <ele>1274.2</ele>
        <time>2021-08-24T10:30:31Z</time>
      </trkpt>
      <trkpt lat="45.28967" lon="2.97652">
        <ele>1274.2</ele>
        <time>2021-08-24T10:30:33Z</time>
      </trkpt>
      <trkpt lat="45.28973" lon="2.97653">
        <ele>1274.1</ele>
        <time>2021-08-24T10:30:35Z</time>
      </trkpt>
      <trkpt lat="45.28979" lon="2.97655">
        <ele>1273.9</ele>
        <time>2021-08-24T10:30:37Z</time>
      </trkpt>
      <trkpt lat="45.28986" lon="2.97658">
        <ele>1273.7</ele>
        <time>2021-08-24T10:30:39Z</time>
      </trkpt>
      <trkpt lat="45.28993" lon="2.9766">
        <ele>1273.6</ele>
        <time>2021-08-24T10:30:41Z</time>
      </trkpt>
      <trkpt lat="45.29" lon="2.97661">
        <ele>1273.5</ele>
        <time>2021-08-24T10:30:43Z</time>
      </trkpt>
      <trkpt lat="45.29007" lon="2.97664">
        <ele>1273.5</ele>
        <time>2021-08-24T10:30:45Z</time>
      </trkpt>
      <trkpt lat="45.29014" lon="2.97666">
        <ele>1273.6</ele>
        <time>2021-08-24T10:30:47Z</time>
      </trkpt>
      <trkpt lat="45.29021" lon="2.97669">
        <ele>1273.6</ele>
        <time>2021-08-24T10:30:49Z</time>
      </trkpt>
      <trkpt lat="45.29028" lon="2.97671">
        <ele>1273.7</ele>
        <time>2021-08-24T10:30:51Z</time>
      </trkpt>
      <trkpt lat="45.29035" lon="2.97673">
        <ele>1273.7</ele>
        <time>2021-08-24T10:30:53Z</time>
      </trkpt>
      <trkpt lat="45.29041" lon="2.97675">
        <ele>1273.8</ele>
        <time>2021-08-24T10:30:55Z</time>
      </trkpt>
      <trkpt lat="45.29047" lon="2.97678">
        <ele>1273.8</ele>
        <time>2021-08-24T10:30:57Z</time>
      </trkpt>
      <trkpt lat="45.29054" lon="2.9768">
        <ele>1273.8</ele>
        <time>2021-08-24T10:30:59Z</time>
      </trkpt>
      <trkpt lat="45.29061" lon="2.97682">
        <ele>1273.9</ele>
        <time>2021-08-24T10:31:01Z</time>
      </trkpt>
      <trkpt lat="45.29067" lon="2.97685">
        <ele>1273.8</ele>
        <time>2021-08-24T10:31:03Z</time>
      </trkpt>
      <trkpt lat="45.29074" lon="2.97689">
        <ele>1273.8</ele>
        <time>2021-08-24T10:31:05Z</time>
      </trkpt>
      <trkpt lat="45.2908" lon="2.97694">
        <ele>1273.6</ele>
        <time>2021-08-24T10:31:07Z</time>
      </trkpt>
      <trkpt lat="45.29086" lon="2.977">
        <ele>1273.4</ele>
        <time>2021-08-24T10:31:09Z</time>
      </trkpt>
      <trkpt lat="45.29091" lon="2.97706">
        <ele>1273.4</ele>
        <time>2021-08-24T10:31:11Z</time>
      </trkpt>
      <trkpt lat="45.29096" lon="2.97713">
        <ele>1273.3</ele>
        <time>2021-08-24T10:31:13Z</time>
      </trkpt>
      <trkpt lat="45.291" lon="2.97722">
        <ele>1273</ele>
        <time>2021-08-24T10:31:15Z</time>
      </trkpt>
      <trkpt lat="45.29104" lon="2.9773">
        <ele>1272.7</ele>
        <time>2021-08-24T10:31:17Z</time>
      </trkpt>
      <trkpt lat="45.29107" lon="2.97738">
        <ele>1272.5</ele>
        <time>2021-08-24T10:31:19Z</time>
      </trkpt>
      <trkpt lat="45.29111" lon="2.97745">
        <ele>1272.3</ele>
        <time>2021-08-24T10:31:21Z</time>
      </trkpt>
      <trkpt lat="45.29114" lon="2.97752">
        <ele>1272.2</ele>
        <time>2021-08-24T10:31:23Z</time>
      </trkpt>
      <trkpt lat="45.29117" lon="2.9776">
        <ele>1272.2</ele>
        <time>2021-08-24T10:31:25Z</time>
      </trkpt>
      <trkpt lat="45.2912" lon="2.97767">
        <ele>1272.2</ele>
        <time>2021-08-24T10:31:27Z</time>
      </trkpt>
      <trkpt lat="45.29124" lon="2.97775">
        <ele>1272.2</ele>
        <time>2021-08-24T10:31:29Z</time>
      </trkpt>
      <trkpt lat="45.29127" lon="2.97782">
        <ele>1272.2</ele>
        <time>2021-08-24T10:31:31Z</time>
      </trkpt>
      <trkpt lat="45.29131" lon="2.9779">
        <ele>1272.3</ele>
        <time>2021-08-24T10:31:33Z</time>
      </trkpt>
      <trkpt lat="45.29135" lon="2.97798">
        <ele>1272.3</ele>
        <time>2021-08-24T10:31:35Z</time>
      </trkpt>
      <trkpt lat="45.29138" lon="2.97805">
        <ele>1272.3</ele>
        <time>2021-08-24T10:31:37Z</time>
      </trkpt>
      <trkpt lat="45.29142" lon="2.97813">
        <ele>1272.3</ele>
        <time>2021-08-24T10:31:39Z</time>
      </trkpt>
      <trkpt lat="45.29146" lon="2.9782">
        <ele>1272.4</ele>
        <time>2021-08-24T10:31:41Z</time>
      </trkpt>
      <trkpt lat="45.29149" lon="2.97829">
        <ele>1272.3</ele>
        <time>2021-08-24T10:31:43Z</time>
      </trkpt>
      <trkpt lat="45.29153" lon="2.97836">
        <ele>1272.4</ele>
        <time>2021-08-24T10:31:45Z</time>
      </trkpt>
      <trkpt lat="45.29156" lon="2.97844">
        <ele>1272.5</ele>
        <time>2021-08-24T10:31:47Z</time>
      </trkpt>
      <trkpt lat="45.2916" lon="2.97852">
        <ele>1272.6</ele>
        <time>2021-08-24T10:31:49Z</time>
      </trkpt>
      <trkpt lat="45.29163" lon="2.9786">
        <ele>1272.7</ele>
        <time>2021-08-24T10:31:51Z</time>
      </trkpt>
      <trkpt lat="45.29167" lon="2.97868">
        <ele>1272.8</ele>
        <time>2021-08-24T10:31:53Z</time>
      </trkpt>
      <trkpt lat="45.29171" lon="2.97876">
        <ele>1272.9</ele>
        <time>2021-08-24T10:31:55Z</time>
      </trkpt>
      <trkpt lat="45.29174" lon="2.97884">
        <ele>1272.9</ele>
        <time>2021-08-24T10:31:57Z</time>
      </trkpt>
      <trkpt lat="45.29178" lon="2.97892">
        <ele>1272.9</ele>
        <time>2021-08-24T10:31:59Z</time>
      </trkpt>
      <trkpt lat="45.29182" lon="2.979">
        <ele>1273</ele>
        <time>2021-08-24T10:32:01Z</time>
      </trkpt>
      <trkpt lat="45.29185" lon="2.97909">
        <ele>1272.8</ele>
        <time>2021-08-24T10:32:03Z</time>
      </trkpt>
      <trkpt lat="45.29187" lon="2.97918">
        <ele>1272.7</ele>
        <time>2021-08-24T10:32:05Z</time>
      </trkpt>
      <trkpt lat="45.29191" lon="2.97926">
        <ele>1272.7</ele>
        <time>2021-08-24T10:32:07Z</time>
      </trkpt>
      <trkpt lat="45.29192" lon="2.97935">
        <ele>1272.5</ele>
        <time>2021-08-24T10:32:09Z</time>
      </trkpt>
      <trkpt lat="45.29194" lon="2.97945">
        <ele>1272.3</ele>
        <time>2021-08-24T10:32:11Z</time>
      </trkpt>
      <trkpt lat="45.29195" lon="2.97955">
        <ele>1272.1</ele>
        <time>2021-08-24T10:32:13Z</time>
      </trkpt>
      <trkpt lat="45.29197" lon="2.97964">
        <ele>1271.9</ele>
        <time>2021-08-24T10:32:15Z</time>
      </trkpt>
      <trkpt lat="45.29198" lon="2.97973">
        <ele>1271.6</ele>
        <time>2021-08-24T10:32:17Z</time>
      </trkpt>
      <trkpt lat="45.292" lon="2.97983">
        <ele>1271.4</ele>
        <time>2021-08-24T10:32:19Z</time>
      </trkpt>
      <trkpt lat="45.29201" lon="2.97992">
        <ele>1271.1</ele>
        <time>2021-08-24T10:32:21Z</time>
      </trkpt>
      <trkpt lat="45.29202" lon="2.98002">
        <ele>1270.9</ele>
        <time>2021-08-24T10:32:23Z</time>
      </trkpt>
      <trkpt lat="45.29204" lon="2.98012">
        <ele>1271</ele>
        <time>2021-08-24T10:32:25Z</time>
      </trkpt>
      <trkpt lat="45.29205" lon="2.98022">
        <ele>1271.1</ele>
        <time>2021-08-24T10:32:27Z</time>
      </trkpt>
      <trkpt lat="45.29207" lon="2.98031">
        <ele>1271.2</ele>
        <time>2021-08-24T10:32:29Z</time>
      </trkpt>
      <trkpt lat="45.29209" lon="2.98041">
        <ele>1271.3</ele>
        <time>2021-08-24T10:32:31Z</time>
      </trkpt>
      <trkpt lat="45.29211" lon="2.98049">
        <ele>1271.4</ele>
        <time>2021-08-24T10:32:33Z</time>
      </trkpt>
      <trkpt lat="45.29213" lon="2.98057">
        <ele>1271.5</ele>
        <time>2021-08-24T10:32:35Z</time>
      </trkpt>
      <trkpt lat="45.29217" lon="2.98065">
        <ele>1271.7</ele>
        <time>2021-08-24T10:32:37Z</time>
      </trkpt>
      <trkpt lat="45.29221" lon="2.98073">
        <ele>1272</ele>
        <time>2021-08-24T10:32:39Z</time>
      </trkpt>
      <trkpt lat="45.29224" lon="2.98081">
        <ele>1272.2</ele>
        <time>2021-08-24T10:32:41Z</time>
      </trkpt>
      <trkpt lat="45.29228" lon="2.98087">
        <ele>1272.3</ele>
        <time>2021-08-24T10:32:43Z</time>
      </trkpt>
      <trkpt lat="45.29231" lon="2.98093">
        <ele>1272.3</ele>
        <time>2021-08-24T10:32:45Z</time>
      </trkpt>
      <trkpt lat="45.29234" lon="2.981">
        <ele>1272.3</ele>
        <time>2021-08-24T10:32:47Z</time>
      </trkpt>
      <trkpt lat="45.29238" lon="2.98106">
        <ele>1272.3</ele>
        <time>2021-08-24T10:32:49Z</time>
      </trkpt>
      <trkpt lat="45.29242" lon="2.98113">
        <ele>1272.4</ele>
        <time>2021-08-24T10:32:51Z</time>
      </trkpt>
      <trkpt lat="45.29245" lon="2.9812">
        <ele>1272.4</ele>
        <time>2021-08-24T10:32:53Z</time>
      </trkpt>
      <trkpt lat="45.29249" lon="2.98127">
        <ele>1272.3</ele>
        <time>2021-08-24T10:32:55Z</time>
      </trkpt>
      <trkpt lat="45.29252" lon="2.98134">
        <ele>1272.3</ele>
        <time>2021-08-24T10:32:57Z</time>
      </trkpt>
      <trkpt lat="45.29256" lon="2.98141">
        <ele>1272.3</ele>
        <time>2021-08-24T10:32:59Z</time>
      </trkpt>
      <trkpt lat="45.2926" lon="2.98149">
        <ele>1272.3</ele>
        <time>2021-08-24T10:33:01Z</time>
      </trkpt>
      <trkpt lat="45.29264" lon="2.98156">
        <ele>1272.3</ele>
        <time>2021-08-24T10:33:03Z</time>
      </trkpt>
      <trkpt lat="45.29268" lon="2.98163">
        <ele>1272.2</ele>
        <time>2021-08-24T10:33:05Z</time>
      </trkpt>
      <trkpt lat="45.29272" lon="2.98171">
        <ele>1272.3</ele>
        <time>2021-08-24T10:33:07Z</time>
      </trkpt>
      <trkpt lat="45.29276" lon="2.98179">
        <ele>1272.4</ele>
        <time>2021-08-24T10:33:09Z</time>
      </trkpt>
      <trkpt lat="45.2928" lon="2.98186">
        <ele>1272.6</ele>
        <time>2021-08-24T10:33:11Z</time>
      </trkpt>
      <trkpt lat="45.29284" lon="2.98193">
        <ele>1272.7</ele>
        <time>2021-08-24T10:33:13Z</time>
      </trkpt>
      <trkpt lat="45.29288" lon="2.98201">
        <ele>1272.9</ele>
        <time>2021-08-24T10:33:15Z</time>
      </trkpt>
      <trkpt lat="45.29291" lon="2.98208">
        <ele>1273</ele>
        <time>2021-08-24T10:33:17Z</time>
      </trkpt>
      <trkpt lat="45.29296" lon="2.98216">
        <ele>1273.2</ele>
        <time>2021-08-24T10:33:19Z</time>
      </trkpt>
      <trkpt lat="45.29299" lon="2.98223">
        <ele>1273.3</ele>
        <time>2021-08-24T10:33:21Z</time>
      </trkpt>
      <trkpt lat="45.29303" lon="2.9823">
        <ele>1273.4</ele>
        <time>2021-08-24T10:33:23Z</time>
      </trkpt>
      <trkpt lat="45.29307" lon="2.98237">
        <ele>1273.6</ele>
        <time>2021-08-24T10:33:25Z</time>
      </trkpt>
      <trkpt lat="45.29311" lon="2.98243">
        <ele>1273.7</ele>
        <time>2021-08-24T10:33:27Z</time>
      </trkpt>
      <trkpt lat="45.29314" lon="2.98251">
        <ele>1273.8</ele>
        <time>2021-08-24T10:33:29Z</time>
      </trkpt>
      <trkpt lat="45.29318" lon="2.98257">
        <ele>1273.9</ele>
        <time>2021-08-24T10:33:31Z</time>
      </trkpt>
      <trkpt lat="45.29322" lon="2.98265">
        <ele>1273.9</ele>
        <time>2021-08-24T10:33:33Z</time>
      </trkpt>
      <trkpt lat="45.29326" lon="2.98272">
        <ele>1273.8</ele>
        <time>2021-08-24T10:33:35Z</time>
      </trkpt>
      <trkpt lat="45.29329" lon="2.98279">
        <ele>1273.8</ele>
        <time>2021-08-24T10:33:37Z</time>
      </trkpt>
      <trkpt lat="45.29333" lon="2.98286">
        <ele>1273.7</ele>
        <time>2021-08-24T10:33:39Z</time>
      </trkpt>
      <trkpt lat="45.29337" lon="2.98293">
        <ele>1273.7</ele>
        <time>2021-08-24T10:33:41Z</time>
      </trkpt>
      <trkpt lat="45.29341" lon="2.98301">
        <ele>1273.6</ele>
        <time>2021-08-24T10:33:43Z</time>
      </trkpt>
      <trkpt lat="45.29345" lon="2.98308">
        <ele>1273.6</ele>
        <time>2021-08-24T10:33:45Z</time>
      </trkpt>
      <trkpt lat="45.29349" lon="2.98315">
        <ele>1273.5</ele>
        <time>2021-08-24T10:33:47Z</time>
      </trkpt>
      <trkpt lat="45.29353" lon="2.98322">
        <ele>1273.4</ele>
        <time>2021-08-24T10:33:49Z</time>
      </trkpt>
      <trkpt lat="45.29357" lon="2.98328">
        <ele>1273.4</ele>
        <time>2021-08-24T10:33:51Z</time>
      </trkpt>
      <trkpt lat="45.29361" lon="2.98336">
        <ele>1273.2</ele>
        <time>2021-08-24T10:33:53Z</time>
      </trkpt>
      <trkpt lat="45.29364" lon="2.98343">
        <ele>1273.1</ele>
        <time>2021-08-24T10:33:55Z</time>
      </trkpt>
      <trkpt lat="45.29367" lon="2.9835">
        <ele>1272.9</ele>
        <time>2021-08-24T10:33:57Z</time>
      </trkpt>
      <trkpt lat="45.29372" lon="2.98356">
        <ele>1272.8</ele>
        <time>2021-08-24T10:33:59Z</time>
      </trkpt>
      <trkpt lat="45.29375" lon="2.98362">
        <ele>1272.6</ele>
        <time>2021-08-24T10:34:01Z</time>
      </trkpt>
      <trkpt lat="45.29379" lon="2.98368">
        <ele>1272.4</ele>
        <time>2021-08-24T10:34:03Z</time>
      </trkpt>
      <trkpt lat="45.29383" lon="2.98374">
        <ele>1272.3</ele>
        <time>2021-08-24T10:34:05Z</time>
      </trkpt>
      <trkpt lat="45.29388" lon="2.98378">
        <ele>1272.1</ele>
        <time>2021-08-24T10:34:07Z</time>
      </trkpt>
      <trkpt lat="45.29393" lon="2.98381">
        <ele>1272.1</ele>
        <time>2021-08-24T10:34:09Z</time>
      </trkpt>
      <trkpt lat="45.29399" lon="2.98383">
        <ele>1272.1</ele>
        <time>2021-08-24T10:34:11Z</time>
      </trkpt>
      <trkpt lat="45.29406" lon="2.98384">
        <ele>1272.2</ele>
        <time>2021-08-24T10:34:13Z</time>
      </trkpt>
      <trkpt lat="45.29412" lon="2.98385">
        <ele>1272.2</ele>
        <time>2021-08-24T10:34:15Z</time>
      </trkpt>
      <trkpt lat="45.29419" lon="2.98386">
        <ele>1272.2</ele>
        <time>2021-08-24T10:34:17Z</time>
      </trkpt>
      <trkpt lat="45.29426" lon="2.98386">
        <ele>1272.2</ele>
        <time>2021-08-24T10:34:19Z</time>
      </trkpt>
      <trkpt lat="45.29432" lon="2.98386">
        <ele>1272.1</ele>
        <time>2021-08-24T10:34:21Z</time>
      </trkpt>
      <trkpt lat="45.29439" lon="2.98386">
        <ele>1272.1</ele>
        <time>2021-08-24T10:34:23Z</time>
      </trkpt>
      <trkpt lat="45.29446" lon="2.98387">
        <ele>1272</ele>
        <time>2021-08-24T10:34:25Z</time>
      </trkpt>
      <trkpt lat="45.29454" lon="2.98387">
        <ele>1272</ele>
        <time>2021-08-24T10:34:27Z</time>
      </trkpt>
      <trkpt lat="45.29461" lon="2.98387">
        <ele>1272</ele>
        <time>2021-08-24T10:34:29Z</time>
      </trkpt>
      <trkpt lat="45.29468" lon="2.98386">
        <ele>1272</ele>
        <time>2021-08-24T10:34:31Z</time>
      </trkpt>
      <trkpt lat="45.29475" lon="2.98386">
        <ele>1271.9</ele>
        <time>2021-08-24T10:34:33Z</time>
      </trkpt>
      <trkpt lat="45.29482" lon="2.98387">
        <ele>1271.9</ele>
        <time>2021-08-24T10:34:35Z</time>
      </trkpt>
      <trkpt lat="45.29489" lon="2.98387">
        <ele>1271.8</ele>
        <time>2021-08-24T10:34:37Z</time>
      </trkpt>
      <trkpt lat="45.29496" lon="2.98387">
        <ele>1271.8</ele>
        <time>2021-08-24T10:34:39Z</time>
      </trkpt>
      <trkpt lat="45.29504" lon="2.98387">
        <ele>1271.7</ele>
        <time>2021-08-24T10:34:41Z</time>
      </trkpt>
      <trkpt lat="45.29511" lon="2.98387">
        <ele>1271.7</ele>
        <time>2021-08-24T10:34:43Z</time>
      </trkpt>
      <trkpt lat="45.29519" lon="2.98387">
        <ele>1271.6</ele>
        <time>2021-08-24T10:34:45Z</time>
      </trkpt>
      <trkpt lat="45.29526" lon="2.98387">
        <ele>1271.6</ele>
        <time>2021-08-24T10:34:47Z</time>
      </trkpt>
      <trkpt lat="45.29533" lon="2.98387">
        <ele>1271.5</ele>
        <time>2021-08-24T10:34:49Z</time>
      </trkpt>
      <trkpt lat="45.29541" lon="2.98387">
        <ele>1271.5</ele>
        <time>2021-08-24T10:34:51Z</time>
      </trkpt>
      <trkpt lat="45.29548" lon="2.98386">
        <ele>1271.4</ele>
        <time>2021-08-24T10:34:53Z</time>
      </trkpt>
      <trkpt lat="45.29555" lon="2.98386">
        <ele>1271.4</ele>
        <time>2021-08-24T10:34:55Z</time>
      </trkpt>
      <trkpt lat="45.29562" lon="2.98385">
        <ele>1271.4</ele>
        <time>2021-08-24T10:34:57Z</time>
      </trkpt>
      <trkpt lat="45.2957" lon="2.98384">
        <ele>1271.5</ele>
        <time>2021-08-24T10:34:59Z</time>
      </trkpt>
      <trkpt lat="45.29578" lon="2.98382">
        <ele>1271.5</ele>
        <time>2021-08-24T10:35:01Z</time>
      </trkpt>
      <trkpt lat="45.29586" lon="2.9838">
        <ele>1271.5</ele>
        <time>2021-08-24T10:35:03Z</time>
      </trkpt>
      <trkpt lat="45.29594" lon="2.98379">
        <ele>1271.4</ele>
        <time>2021-08-24T10:35:05Z</time>
      </trkpt>
      <trkpt lat="45.29602" lon="2.98377">
        <ele>1271.2</ele>
        <time>2021-08-24T10:35:07Z</time>
      </trkpt>
      <trkpt lat="45.2961" lon="2.98375">
        <ele>1271</ele>
        <time>2021-08-24T10:35:09Z</time>
      </trkpt>
      <trkpt lat="45.29618" lon="2.98372">
        <ele>1271</ele>
        <time>2021-08-24T10:35:11Z</time>
      </trkpt>
      <trkpt lat="45.29627" lon="2.98371">
        <ele>1270.9</ele>
        <time>2021-08-24T10:35:13Z</time>
      </trkpt>
      <trkpt lat="45.29636" lon="2.98369">
        <ele>1270.7</ele>
        <time>2021-08-24T10:35:15Z</time>
      </trkpt>
      <trkpt lat="45.29645" lon="2.98367">
        <ele>1270.7</ele>
        <time>2021-08-24T10:35:17Z</time>
      </trkpt>
      <trkpt lat="45.29654" lon="2.98365">
        <ele>1270.6</ele>
        <time>2021-08-24T10:35:19Z</time>
      </trkpt>
      <trkpt lat="45.29663" lon="2.98363">
        <ele>1270.6</ele>
        <time>2021-08-24T10:35:21Z</time>
      </trkpt>
      <trkpt lat="45.29672" lon="2.98361">
        <ele>1270.3</ele>
        <time>2021-08-24T10:35:23Z</time>
      </trkpt>
      <trkpt lat="45.29682" lon="2.98359">
        <ele>1269.7</ele>
        <time>2021-08-24T10:35:25Z</time>
      </trkpt>
      <trkpt lat="45.29692" lon="2.98357">
        <ele>1269</ele>
        <time>2021-08-24T10:35:27Z</time>
      </trkpt>
      <trkpt lat="45.29703" lon="2.98355">
        <ele>1268.4</ele>
        <time>2021-08-24T10:35:29Z</time>
      </trkpt>
      <trkpt lat="45.29714" lon="2.98353">
        <ele>1267.7</ele>
        <time>2021-08-24T10:35:31Z</time>
      </trkpt>
      <trkpt lat="45.29726" lon="2.98351">
        <ele>1266.9</ele>
        <time>2021-08-24T10:35:33Z</time>
      </trkpt>
      <trkpt lat="45.29738" lon="2.9835">
        <ele>1266</ele>
        <time>2021-08-24T10:35:35Z</time>
      </trkpt>
      <trkpt lat="45.2975" lon="2.98349">
        <ele>1265.1</ele>
        <time>2021-08-24T10:35:37Z</time>
      </trkpt>
      <trkpt lat="45.29763" lon="2.98348">
        <ele>1264.5</ele>
        <time>2021-08-24T10:35:39Z</time>
      </trkpt>
      <trkpt lat="45.29776" lon="2.98347">
        <ele>1263.9</ele>
        <time>2021-08-24T10:35:41Z</time>
      </trkpt>
      <trkpt lat="45.29789" lon="2.98345">
        <ele>1263.2</ele>
        <time>2021-08-24T10:35:43Z</time>
      </trkpt>
      <trkpt lat="45.29802" lon="2.98344">
        <ele>1262.5</ele>
        <time>2021-08-24T10:35:45Z</time>
      </trkpt>
      <trkpt lat="45.29816" lon="2.98345">
        <ele>1261.7</ele>
        <time>2021-08-24T10:35:47Z</time>
      </trkpt>
      <trkpt lat="45.29829" lon="2.98348">
        <ele>1260.8</ele>
        <time>2021-08-24T10:35:49Z</time>
      </trkpt>
      <trkpt lat="45.2984" lon="2.98353">
        <ele>1260.9</ele>
        <time>2021-08-24T10:35:51Z</time>
      </trkpt>
      <trkpt lat="45.29852" lon="2.98359">
        <ele>1261.8</ele>
        <time>2021-08-24T10:35:53Z</time>
      </trkpt>
      <trkpt lat="45.29863" lon="2.98367">
        <ele>1262.8</ele>
        <time>2021-08-24T10:35:55Z</time>
      </trkpt>
      <trkpt lat="45.2987" lon="2.9838">
        <ele>1263.5</ele>
        <time>2021-08-24T10:35:57Z</time>
      </trkpt>
      <trkpt lat="45.29874" lon="2.98395">
        <ele>1263.9</ele>
        <time>2021-08-24T10:35:59Z</time>
      </trkpt>
      <trkpt lat="45.29875" lon="2.98408">
        <ele>1263.9</ele>
        <time>2021-08-24T10:36:01Z</time>
      </trkpt>
      <trkpt lat="45.29874" lon="2.9842">
        <ele>1263.8</ele>
        <time>2021-08-24T10:36:03Z</time>
      </trkpt>
      <trkpt lat="45.29872" lon="2.98431">
        <ele>1263.9</ele>
        <time>2021-08-24T10:36:05Z</time>
      </trkpt>
      <trkpt lat="45.29871" lon="2.98441">
        <ele>1263.9</ele>
        <time>2021-08-24T10:36:07Z</time>
      </trkpt>
      <trkpt lat="45.2987" lon="2.98449">
        <ele>1263.8</ele>
        <time>2021-08-24T10:36:09Z</time>
      </trkpt>
      <trkpt lat="45.2987" lon="2.98458">
        <ele>1263.9</ele>
        <time>2021-08-24T10:36:11Z</time>
      </trkpt>
      <trkpt lat="45.29869" lon="2.98467">
        <ele>1263.9</ele>
        <time>2021-08-24T10:36:13Z</time>
      </trkpt>
      <trkpt lat="45.29868" lon="2.98476">
        <ele>1263.8</ele>
        <time>2021-08-24T10:36:15Z</time>
      </trkpt>
      <trkpt lat="45.29867" lon="2.98484">
        <ele>1263.8</ele>
        <time>2021-08-24T10:36:17Z</time>
      </trkpt>
      <trkpt lat="45.29866" lon="2.98492">
        <ele>1263.8</ele>
        <time>2021-08-24T10:36:19Z</time>
      </trkpt>
      <trkpt lat="45.29865" lon="2.98501">
        <ele>1263.8</ele>
        <time>2021-08-24T10:36:21Z</time>
      </trkpt>
      <trkpt lat="45.29865" lon="2.98509">
        <ele>1264.1</ele>
        <time>2021-08-24T10:36:23Z</time>
      </trkpt>
      <trkpt lat="45.29864" lon="2.98517">
        <ele>1264.4</ele>
        <time>2021-08-24T10:36:25Z</time>
      </trkpt>
      <trkpt lat="45.29863" lon="2.98524">
        <ele>1264.7</ele>
        <time>2021-08-24T10:36:27Z</time>
      </trkpt>
      <trkpt lat="45.29863" lon="2.98532">
        <ele>1265</ele>
        <time>2021-08-24T10:36:29Z</time>
      </trkpt>
      <trkpt lat="45.29863" lon="2.98538">
        <ele>1265.3</ele>
        <time>2021-08-24T10:36:31Z</time>
      </trkpt>
      <trkpt lat="45.29862" lon="2.98546">
        <ele>1265.5</ele>
        <time>2021-08-24T10:36:33Z</time>
      </trkpt>
      <trkpt lat="45.29861" lon="2.98552">
        <ele>1265.7</ele>
        <time>2021-08-24T10:36:35Z</time>
      </trkpt>
      <trkpt lat="45.29861" lon="2.98559">
        <ele>1266</ele>
        <time>2021-08-24T10:36:37Z</time>
      </trkpt>
      <trkpt lat="45.29861" lon="2.98566">
        <ele>1266.3</ele>
        <time>2021-08-24T10:36:39Z</time>
      </trkpt>
      <trkpt lat="45.2986" lon="2.98573">
        <ele>1266.6</ele>
        <time>2021-08-24T10:36:41Z</time>
      </trkpt>
      <trkpt lat="45.2986" lon="2.98579">
        <ele>1266.8</ele>
        <time>2021-08-24T10:36:43Z</time>
      </trkpt>
      <trkpt lat="45.29859" lon="2.98586">
        <ele>1267.1</ele>
        <time>2021-08-24T10:36:45Z</time>
      </trkpt>
      <trkpt lat="45.29858" lon="2.98593">
        <ele>1267.3</ele>
        <time>2021-08-24T10:36:47Z</time>
      </trkpt>
      <trkpt lat="45.29857" lon="2.98599">
        <ele>1267.6</ele>
        <time>2021-08-24T10:36:49Z</time>
      </trkpt>
      <trkpt lat="45.29856" lon="2.98606">
        <ele>1267.8</ele>
        <time>2021-08-24T10:36:51Z</time>
      </trkpt>
      <trkpt lat="45.29854" lon="2.98613">
        <ele>1268.1</ele>
        <time>2021-08-24T10:36:53Z</time>
      </trkpt>
      <trkpt lat="45.29853" lon="2.9862">
        <ele>1268.3</ele>
        <time>2021-08-24T10:36:55Z</time>
      </trkpt>
      <trkpt lat="45.29851" lon="2.98626">
        <ele>1268.5</ele>
        <time>2021-08-24T10:36:57Z</time>
      </trkpt>
      <trkpt lat="45.29849" lon="2.98632">
        <ele>1268.6</ele>
        <time>2021-08-24T10:36:59Z</time>
      </trkpt>
      <trkpt lat="45.29847" lon="2.98638">
        <ele>1268.6</ele>
        <time>2021-08-24T10:37:01Z</time>
      </trkpt>
      <trkpt lat="45.29844" lon="2.98645">
        <ele>1268.7</ele>
        <time>2021-08-24T10:37:03Z</time>
      </trkpt>
      <trkpt lat="45.2984" lon="2.98651">
        <ele>1268.7</ele>
        <time>2021-08-24T10:37:05Z</time>
      </trkpt>
      <trkpt lat="45.29836" lon="2.98657">
        <ele>1268.6</ele>
        <time>2021-08-24T10:37:07Z</time>
      </trkpt>
      <trkpt lat="45.29832" lon="2.98663">
        <ele>1268.5</ele>
        <time>2021-08-24T10:37:09Z</time>
      </trkpt>
      <trkpt lat="45.29828" lon="2.98668">
        <ele>1268.5</ele>
        <time>2021-08-24T10:37:11Z</time>
      </trkpt>
      <trkpt lat="45.29824" lon="2.98673">
        <ele>1268.5</ele>
        <time>2021-08-24T10:37:13Z</time>
      </trkpt>
      <trkpt lat="45.2982" lon="2.98677">
        <ele>1268.4</ele>
        <time>2021-08-24T10:37:15Z</time>
      </trkpt>
      <trkpt lat="45.29816" lon="2.98683">
        <ele>1268.5</ele>
        <time>2021-08-24T10:37:17Z</time>
      </trkpt>
      <trkpt lat="45.29811" lon="2.98688">
        <ele>1268.4</ele>
        <time>2021-08-24T10:37:19Z</time>
      </trkpt>
      <trkpt lat="45.29807" lon="2.98693">
        <ele>1268.4</ele>
        <time>2021-08-24T10:37:21Z</time>
      </trkpt>
      <trkpt lat="45.29803" lon="2.98698">
        <ele>1268.4</ele>
        <time>2021-08-24T10:37:23Z</time>
      </trkpt>
      <trkpt lat="45.29799" lon="2.98704">
        <ele>1268.4</ele>
        <time>2021-08-24T10:37:25Z</time>
      </trkpt>
      <trkpt lat="45.29795" lon="2.98709">
        <ele>1268.3</ele>
        <time>2021-08-24T10:37:27Z</time>
      </trkpt>
      <trkpt lat="45.29791" lon="2.98716">
        <ele>1268.4</ele>
        <time>2021-08-24T10:37:29Z</time>
      </trkpt>
      <trkpt lat="45.29787" lon="2.98723">
        <ele>1268.5</ele>
        <time>2021-08-24T10:37:31Z</time>
      </trkpt>
      <trkpt lat="45.29782" lon="2.98729">
        <ele>1268.4</ele>
        <time>2021-08-24T10:37:33Z</time>
      </trkpt>
      <trkpt lat="45.29778" lon="2.98736">
        <ele>1268.4</ele>
        <time>2021-08-24T10:37:35Z</time>
      </trkpt>
      <trkpt lat="45.29775" lon="2.98743">
        <ele>1268.5</ele>
        <time>2021-08-24T10:37:37Z</time>
      </trkpt>
      <trkpt lat="45.29771" lon="2.98751">
        <ele>1268.6</ele>
        <time>2021-08-24T10:37:39Z</time>
      </trkpt>
      <trkpt lat="45.29767" lon="2.98758">
        <ele>1268.6</ele>
        <time>2021-08-24T10:37:41Z</time>
      </trkpt>
      <trkpt lat="45.29763" lon="2.98765">
        <ele>1268.7</ele>
        <time>2021-08-24T10:37:43Z</time>
      </trkpt>
      <trkpt lat="45.29759" lon="2.98773">
        <ele>1268.9</ele>
        <time>2021-08-24T10:37:45Z</time>
      </trkpt>
      <trkpt lat="45.29756" lon="2.98781">
        <ele>1269.2</ele>
        <time>2021-08-24T10:37:47Z</time>
      </trkpt>
      <trkpt lat="45.29753" lon="2.98789">
        <ele>1269.6</ele>
        <time>2021-08-24T10:37:49Z</time>
      </trkpt>
      <trkpt lat="45.29749" lon="2.98796">
        <ele>1269.9</ele>
        <time>2021-08-24T10:37:51Z</time>
      </trkpt>
      <trkpt lat="45.29746" lon="2.98804">
        <ele>1270.2</ele>
        <time>2021-08-24T10:37:53Z</time>
      </trkpt>
      <trkpt lat="45.29743" lon="2.98812">
        <ele>1270.6</ele>
        <time>2021-08-24T10:37:55Z</time>
      </trkpt>
      <trkpt lat="45.29741" lon="2.9882">
        <ele>1271</ele>
        <time>2021-08-24T10:37:57Z</time>
      </trkpt>
      <trkpt lat="45.29738" lon="2.98828">
        <ele>1271.4</ele>
        <time>2021-08-24T10:37:59Z</time>
      </trkpt>
      <trkpt lat="45.29736" lon="2.98836">
        <ele>1271.7</ele>
        <time>2021-08-24T10:38:01Z</time>
      </trkpt>
      <trkpt lat="45.29735" lon="2.98844">
        <ele>1271.9</ele>
        <time>2021-08-24T10:38:03Z</time>
      </trkpt>
      <trkpt lat="45.29733" lon="2.98853">
        <ele>1272</ele>
        <time>2021-08-24T10:38:05Z</time>
      </trkpt>
      <trkpt lat="45.29733" lon="2.98861">
        <ele>1272.6</ele>
        <time>2021-08-24T10:38:07Z</time>
      </trkpt>
      <trkpt lat="45.29731" lon="2.98869">
        <ele>1272.6</ele>
        <time>2021-08-24T10:38:09Z</time>
      </trkpt>
      <trkpt lat="45.29729" lon="2.98877">
        <ele>1272.7</ele>
        <time>2021-08-24T10:38:11Z</time>
      </trkpt>
      <trkpt lat="45.29728" lon="2.98885">
        <ele>1273</ele>
        <time>2021-08-24T10:38:13Z</time>
      </trkpt>
      <trkpt lat="45.29727" lon="2.98893">
        <ele>1273.2</ele>
        <time>2021-08-24T10:38:15Z</time>
      </trkpt>
      <trkpt lat="45.29725" lon="2.98901">
        <ele>1273.4</ele>
        <time>2021-08-24T10:38:17Z</time>
      </trkpt>
      <trkpt lat="45.29724" lon="2.9891">
        <ele>1273.6</ele>
        <time>2021-08-24T10:38:19Z</time>
      </trkpt>
      <trkpt lat="45.29723" lon="2.98918">
        <ele>1273.9</ele>
        <time>2021-08-24T10:38:21Z</time>
      </trkpt>
      <trkpt lat="45.29721" lon="2.98925">
        <ele>1274</ele>
        <time>2021-08-24T10:38:23Z</time>
      </trkpt>
      <trkpt lat="45.29721" lon="2.98933">
        <ele>1274.3</ele>
        <time>2021-08-24T10:38:25Z</time>
      </trkpt>
      <trkpt lat="45.29719" lon="2.9894">
        <ele>1274.6</ele>
        <time>2021-08-24T10:38:27Z</time>
      </trkpt>
      <trkpt lat="45.29718" lon="2.98947">
        <ele>1274.8</ele>
        <time>2021-08-24T10:38:29Z</time>
      </trkpt>
      <trkpt lat="45.29717" lon="2.98954">
        <ele>1274.9</ele>
        <time>2021-08-24T10:38:31Z</time>
      </trkpt>
      <trkpt lat="45.29716" lon="2.98961">
        <ele>1275.2</ele>
        <time>2021-08-24T10:38:33Z</time>
      </trkpt>
      <trkpt lat="45.29714" lon="2.98968">
        <ele>1275.4</ele>
        <time>2021-08-24T10:38:35Z</time>
      </trkpt>
      <trkpt lat="45.29713" lon="2.98976">
        <ele>1275.6</ele>
        <time>2021-08-24T10:38:37Z</time>
      </trkpt>
      <trkpt lat="45.29712" lon="2.98983">
        <ele>1275.9</ele>
        <time>2021-08-24T10:38:39Z</time>
      </trkpt>
      <trkpt lat="45.29711" lon="2.9899">
        <ele>1276.2</ele>
        <time>2021-08-24T10:38:41Z</time>
      </trkpt>
      <trkpt lat="45.29709" lon="2.98997">
        <ele>1276.4</ele>
        <time>2021-08-24T10:38:43Z</time>
      </trkpt>
      <trkpt lat="45.29708" lon="2.99004">
        <ele>1276.7</ele>
        <time>2021-08-24T10:38:45Z</time>
      </trkpt>
      <trkpt lat="45.29707" lon="2.99011">
        <ele>1277</ele>
        <time>2021-08-24T10:38:47Z</time>
      </trkpt>
      <trkpt lat="45.29705" lon="2.99018">
        <ele>1277.2</ele>
        <time>2021-08-24T10:38:49Z</time>
      </trkpt>
      <trkpt lat="45.29704" lon="2.99024">
        <ele>1277.5</ele>
        <time>2021-08-24T10:38:51Z</time>
      </trkpt>
      <trkpt lat="45.29703" lon="2.99031">
        <ele>1277.7</ele>
        <time>2021-08-24T10:38:53Z</time>
      </trkpt>
      <trkpt lat="45.29702" lon="2.99038">
        <ele>1278</ele>
        <time>2021-08-24T10:38:55Z</time>
      </trkpt>
      <trkpt lat="45.29701" lon="2.99045">
        <ele>1278.3</ele>
        <time>2021-08-24T10:38:57Z</time>
      </trkpt>
      <trkpt lat="45.297" lon="2.99052">
        <ele>1278.5</ele>
        <time>2021-08-24T10:38:59Z</time>
      </trkpt>
      <trkpt lat="45.29699" lon="2.99059">
        <ele>1278.9</ele>
        <time>2021-08-24T10:39:01Z</time>
      </trkpt>
      <trkpt lat="45.29699" lon="2.99066">
        <ele>1279.3</ele>
        <time>2021-08-24T10:39:03Z</time>
      </trkpt>
      <trkpt lat="45.29697" lon="2.99072">
        <ele>1279.5</ele>
        <time>2021-08-24T10:39:05Z</time>
      </trkpt>
      <trkpt lat="45.29697" lon="2.99079">
        <ele>1279.8</ele>
        <time>2021-08-24T10:39:07Z</time>
      </trkpt>
      <trkpt lat="45.29696" lon="2.99086">
        <ele>1280</ele>
        <time>2021-08-24T10:39:09Z</time>
      </trkpt>
      <trkpt lat="45.29694" lon="2.99093">
        <ele>1280</ele>
        <time>2021-08-24T10:39:11Z</time>
      </trkpt>
      <trkpt lat="45.29694" lon="2.99099">
        <ele>1280.2</ele>
        <time>2021-08-24T10:39:13Z</time>
      </trkpt>
      <trkpt lat="45.29693" lon="2.99106">
        <ele>1280.4</ele>
        <time>2021-08-24T10:39:15Z</time>
      </trkpt>
      <trkpt lat="45.29693" lon="2.99113">
        <ele>1280.5</ele>
        <time>2021-08-24T10:39:17Z</time>
      </trkpt>
      <trkpt lat="45.29692" lon="2.9912">
        <ele>1280.6</ele>
        <time>2021-08-24T10:39:19Z</time>
      </trkpt>
      <trkpt lat="45.29691" lon="2.99127">
        <ele>1280.8</ele>
        <time>2021-08-24T10:39:21Z</time>
      </trkpt>
      <trkpt lat="45.2969" lon="2.99134">
        <ele>1280.9</ele>
        <time>2021-08-24T10:39:23Z</time>
      </trkpt>
      <trkpt lat="45.29689" lon="2.9914">
        <ele>1280.9</ele>
        <time>2021-08-24T10:39:25Z</time>
      </trkpt>
      <trkpt lat="45.29689" lon="2.99147">
        <ele>1281.2</ele>
        <time>2021-08-24T10:39:27Z</time>
      </trkpt>
      <trkpt lat="45.29688" lon="2.99154">
        <ele>1281.1</ele>
        <time>2021-08-24T10:39:29Z</time>
      </trkpt>
      <trkpt lat="45.29687" lon="2.99161">
        <ele>1281.2</ele>
        <time>2021-08-24T10:39:31Z</time>
      </trkpt>
      <trkpt lat="45.29685" lon="2.99169">
        <ele>1281.1</ele>
        <time>2021-08-24T10:39:33Z</time>
      </trkpt>
      <trkpt lat="45.29683" lon="2.99177">
        <ele>1281.3</ele>
        <time>2021-08-24T10:39:35Z</time>
      </trkpt>
      <trkpt lat="45.29681" lon="2.99184">
        <ele>1281.3</ele>
        <time>2021-08-24T10:39:37Z</time>
      </trkpt>
      <trkpt lat="45.29679" lon="2.99191">
        <ele>1281.3</ele>
        <time>2021-08-24T10:39:39Z</time>
      </trkpt>
      <trkpt lat="45.29676" lon="2.99197">
        <ele>1281.1</ele>
        <time>2021-08-24T10:39:41Z</time>
      </trkpt>
      <trkpt lat="45.29673" lon="2.99203">
        <ele>1280.9</ele>
        <time>2021-08-24T10:39:43Z</time>
      </trkpt>
      <trkpt lat="45.29669" lon="2.99209">
        <ele>1280.7</ele>
        <time>2021-08-24T10:39:45Z</time>
      </trkpt>
      <trkpt lat="45.29666" lon="2.99215">
        <ele>1280.5</ele>
        <time>2021-08-24T10:39:47Z</time>
      </trkpt>
      <trkpt lat="45.29664" lon="2.99222">
        <ele>1280.8</ele>
        <time>2021-08-24T10:39:49Z</time>
      </trkpt>
      <trkpt lat="45.2966" lon="2.99227">
        <ele>1281</ele>
        <time>2021-08-24T10:39:51Z</time>
      </trkpt>
      <trkpt lat="45.29657" lon="2.99233">
        <ele>1281.2</ele>
        <time>2021-08-24T10:39:53Z</time>
      </trkpt>
      <trkpt lat="45.29654" lon="2.99239">
        <ele>1281.4</ele>
        <time>2021-08-24T10:39:55Z</time>
      </trkpt>
      <trkpt lat="45.29651" lon="2.99245">
        <ele>1281.7</ele>
        <time>2021-08-24T10:39:57Z</time>
      </trkpt>
      <trkpt lat="45.29648" lon="2.9925">
        <ele>1281.9</ele>
        <time>2021-08-24T10:39:59Z</time>
      </trkpt>
      <trkpt lat="45.29645" lon="2.99256">
        <ele>1282.3</ele>
        <time>2021-08-24T10:40:01Z</time>
      </trkpt>
      <trkpt lat="45.29642" lon="2.99261">
        <ele>1282.6</ele>
        <time>2021-08-24T10:40:03Z</time>
      </trkpt>
      <trkpt lat="45.29639" lon="2.99267">
        <ele>1283</ele>
        <time>2021-08-24T10:40:05Z</time>
      </trkpt>
      <trkpt lat="45.29636" lon="2.99273">
        <ele>1283.3</ele>
        <time>2021-08-24T10:40:07Z</time>
      </trkpt>
      <trkpt lat="45.29633" lon="2.99278">
        <ele>1283.6</ele>
        <time>2021-08-24T10:40:09Z</time>
      </trkpt>
      <trkpt lat="45.2963" lon="2.99283">
        <ele>1283.9</ele>
        <time>2021-08-24T10:40:11Z</time>
      </trkpt>
      <trkpt lat="45.29627" lon="2.99289">
        <ele>1284.2</ele>
        <time>2021-08-24T10:40:13Z</time>
      </trkpt>
      <trkpt lat="45.29625" lon="2.99294">
        <ele>1284.5</ele>
        <time>2021-08-24T10:40:15Z</time>
      </trkpt>
      <trkpt lat="45.29623" lon="2.993">
        <ele>1284.8</ele>
        <time>2021-08-24T10:40:17Z</time>
      </trkpt>
      <trkpt lat="45.29619" lon="2.99305">
        <ele>1285</ele>
        <time>2021-08-24T10:40:19Z</time>
      </trkpt>
      <trkpt lat="45.29616" lon="2.9931">
        <ele>1285.1</ele>
        <time>2021-08-24T10:40:21Z</time>
      </trkpt>
      <trkpt lat="45.29615" lon="2.99316">
        <ele>1285.5</ele>
        <time>2021-08-24T10:40:23Z</time>
      </trkpt>
      <trkpt lat="45.29613" lon="2.99321">
        <ele>1285.8</ele>
        <time>2021-08-24T10:40:25Z</time>
      </trkpt>
      <trkpt lat="45.29609" lon="2.99324">
        <ele>1285.7</ele>
        <time>2021-08-24T10:40:27Z</time>
      </trkpt>
      <trkpt lat="45.29606" lon="2.99329">
        <ele>1285.8</ele>
        <time>2021-08-24T10:40:29Z</time>
      </trkpt>
      <trkpt lat="45.29604" lon="2.99334">
        <ele>1286</ele>
        <time>2021-08-24T10:40:31Z</time>
      </trkpt>
      <trkpt lat="45.29602" lon="2.99339">
        <ele>1286</ele>
        <time>2021-08-24T10:40:33Z</time>
      </trkpt>
      <trkpt lat="45.29599" lon="2.99344">
        <ele>1286</ele>
        <time>2021-08-24T10:40:35Z</time>
      </trkpt>
      <trkpt lat="45.29597" lon="2.99349">
        <ele>1286</ele>
        <time>2021-08-24T10:40:37Z</time>
      </trkpt>
      <trkpt lat="45.29595" lon="2.99354">
        <ele>1286.1</ele>
        <time>2021-08-24T10:40:39Z</time>
      </trkpt>
      <trkpt lat="45.29593" lon="2.99359">
        <ele>1286.2</ele>
        <time>2021-08-24T10:40:41Z</time>
      </trkpt>
      <trkpt lat="45.29591" lon="2.99365">
        <ele>1286.2</ele>
        <time>2021-08-24T10:40:43Z</time>
      </trkpt>
      <trkpt lat="45.29589" lon="2.9937">
        <ele>1286.3</ele>
        <time>2021-08-24T10:40:45Z</time>
      </trkpt>
      <trkpt lat="45.29588" lon="2.99376">
        <ele>1286.5</ele>
        <time>2021-08-24T10:40:47Z</time>
      </trkpt>
      <trkpt lat="45.29587" lon="2.99381">
        <ele>1286.7</ele>
        <time>2021-08-24T10:40:49Z</time>
      </trkpt>
      <trkpt lat="45.29586" lon="2.99387">
        <ele>1286.9</ele>
        <time>2021-08-24T10:40:51Z</time>
      </trkpt>
      <trkpt lat="45.29586" lon="2.99393">
        <ele>1287.1</ele>
        <time>2021-08-24T10:40:53Z</time>
      </trkpt>
      <trkpt lat="45.29586" lon="2.99398">
        <ele>1287.4</ele>
        <time>2021-08-24T10:40:55Z</time>
      </trkpt>
      <trkpt lat="45.29586" lon="2.99403">
        <ele>1287.6</ele>
        <time>2021-08-24T10:40:57Z</time>
      </trkpt>
      <trkpt lat="45.29586" lon="2.99409">
        <ele>1287.9</ele>
        <time>2021-08-24T10:40:59Z</time>
      </trkpt>
      <trkpt lat="45.29586" lon="2.99415">
        <ele>1288.2</ele>
        <time>2021-08-24T10:41:01Z</time>
      </trkpt>
      <trkpt lat="45.29586" lon="2.9942">
        <ele>1288.4</ele>
        <time>2021-08-24T10:41:03Z</time>
      </trkpt>
      <trkpt lat="45.29587" lon="2.99426">
        <ele>1288.6</ele>
        <time>2021-08-24T10:41:05Z</time>
      </trkpt>
      <trkpt lat="45.29588" lon="2.99432">
        <ele>1288.8</ele>
        <time>2021-08-24T10:41:07Z</time>
      </trkpt>
      <trkpt lat="45.29589" lon="2.99438">
        <ele>1289</ele>
        <time>2021-08-24T10:41:09Z</time>
      </trkpt>
      <trkpt lat="45.29589" lon="2.99443">
        <ele>1289.2</ele>
        <time>2021-08-24T10:41:11Z</time>
      </trkpt>
      <trkpt lat="45.2959" lon="2.99449">
        <ele>1289.4</ele>
        <time>2021-08-24T10:41:13Z</time>
      </trkpt>
      <trkpt lat="45.29591" lon="2.99455">
        <ele>1289.6</ele>
        <time>2021-08-24T10:41:15Z</time>
      </trkpt>
      <trkpt lat="45.29592" lon="2.9946">
        <ele>1289.8</ele>
        <time>2021-08-24T10:41:17Z</time>
      </trkpt>
      <trkpt lat="45.29592" lon="2.99466">
        <ele>1290</ele>
        <time>2021-08-24T10:41:19Z</time>
      </trkpt>
      <trkpt lat="45.29594" lon="2.99471">
        <ele>1290.2</ele>
        <time>2021-08-24T10:41:21Z</time>
      </trkpt>
      <trkpt lat="45.29594" lon="2.99477">
        <ele>1290.4</ele>
        <time>2021-08-24T10:41:23Z</time>
      </trkpt>
      <trkpt lat="45.29595" lon="2.99482">
        <ele>1290.6</ele>
        <time>2021-08-24T10:41:25Z</time>
      </trkpt>
      <trkpt lat="45.29596" lon="2.99488">
        <ele>1290.8</ele>
        <time>2021-08-24T10:41:27Z</time>
      </trkpt>
      <trkpt lat="45.29597" lon="2.99493">
        <ele>1291</ele>
        <time>2021-08-24T10:41:29Z</time>
      </trkpt>
      <trkpt lat="45.29598" lon="2.99499">
        <ele>1291.2</ele>
        <time>2021-08-24T10:41:31Z</time>
      </trkpt>
      <trkpt lat="45.29598" lon="2.99505">
        <ele>1291.4</ele>
        <time>2021-08-24T10:41:33Z</time>
      </trkpt>
      <trkpt lat="45.29599" lon="2.9951">
        <ele>1291.5</ele>
        <time>2021-08-24T10:41:35Z</time>
      </trkpt>
      <trkpt lat="45.296" lon="2.99516">
        <ele>1291.7</ele>
        <time>2021-08-24T10:41:37Z</time>
      </trkpt>
      <trkpt lat="45.29601" lon="2.99522">
        <ele>1291.9</ele>
        <time>2021-08-24T10:41:39Z</time>
      </trkpt>
      <trkpt lat="45.29602" lon="2.99528">
        <ele>1292.1</ele>
        <time>2021-08-24T10:41:41Z</time>
      </trkpt>
      <trkpt lat="45.29603" lon="2.99533">
        <ele>1292.3</ele>
        <time>2021-08-24T10:41:43Z</time>
      </trkpt>
      <trkpt lat="45.29604" lon="2.99539">
        <ele>1292.4</ele>
        <time>2021-08-24T10:41:45Z</time>
      </trkpt>
      <trkpt lat="45.29605" lon="2.99545">
        <ele>1292.6</ele>
        <time>2021-08-24T10:41:47Z</time>
      </trkpt>
      <trkpt lat="45.29606" lon="2.9955">
        <ele>1292.8</ele>
        <time>2021-08-24T10:41:49Z</time>
      </trkpt>
      <trkpt lat="45.29607" lon="2.99556">
        <ele>1293</ele>
        <time>2021-08-24T10:41:51Z</time>
      </trkpt>
      <trkpt lat="45.29608" lon="2.99562">
        <ele>1293.1</ele>
        <time>2021-08-24T10:41:53Z</time>
      </trkpt>
      <trkpt lat="45.29609" lon="2.99568">
        <ele>1293.3</ele>
        <time>2021-08-24T10:41:55Z</time>
      </trkpt>
      <trkpt lat="45.2961" lon="2.99574">
        <ele>1293.5</ele>
        <time>2021-08-24T10:41:57Z</time>
      </trkpt>
      <trkpt lat="45.29611" lon="2.99579">
        <ele>1293.6</ele>
        <time>2021-08-24T10:41:59Z</time>
      </trkpt>
      <trkpt lat="45.29612" lon="2.99586">
        <ele>1293.7</ele>
        <time>2021-08-24T10:42:01Z</time>
      </trkpt>
      <trkpt lat="45.29613" lon="2.99591">
        <ele>1293.9</ele>
        <time>2021-08-24T10:42:03Z</time>
      </trkpt>
      <trkpt lat="45.29614" lon="2.99597">
        <ele>1294</ele>
        <time>2021-08-24T10:42:05Z</time>
      </trkpt>
      <trkpt lat="45.29615" lon="2.99603">
        <ele>1294.1</ele>
        <time>2021-08-24T10:42:07Z</time>
      </trkpt>
      <trkpt lat="45.29616" lon="2.99609">
        <ele>1294.2</ele>
        <time>2021-08-24T10:42:09Z</time>
      </trkpt>
      <trkpt lat="45.29617" lon="2.99614">
        <ele>1294.3</ele>
        <time>2021-08-24T10:42:11Z</time>
      </trkpt>
      <trkpt lat="45.29618" lon="2.9962">
        <ele>1294.4</ele>
        <time>2021-08-24T10:42:13Z</time>
      </trkpt>
      <trkpt lat="45.29619" lon="2.99626">
        <ele>1294.5</ele>
        <time>2021-08-24T10:42:15Z</time>
      </trkpt>
      <trkpt lat="45.2962" lon="2.99632">
        <ele>1294.6</ele>
        <time>2021-08-24T10:42:17Z</time>
      </trkpt>
      <trkpt lat="45.29621" lon="2.99637">
        <ele>1294.7</ele>
        <time>2021-08-24T10:42:19Z</time>
      </trkpt>
      <trkpt lat="45.29622" lon="2.99643">
        <ele>1294.7</ele>
        <time>2021-08-24T10:42:21Z</time>
      </trkpt>
      <trkpt lat="45.29623" lon="2.99649">
        <ele>1294.8</ele>
        <time>2021-08-24T10:42:23Z</time>
      </trkpt>
      <trkpt lat="45.29624" lon="2.99654">
        <ele>1294.9</ele>
        <time>2021-08-24T10:42:25Z</time>
      </trkpt>
      <trkpt lat="45.29625" lon="2.9966">
        <ele>1295</ele>
        <time>2021-08-24T10:42:27Z</time>
      </trkpt>
      <trkpt lat="45.29625" lon="2.99665">
        <ele>1295</ele>
        <time>2021-08-24T10:42:29Z</time>
      </trkpt>
      <trkpt lat="45.29626" lon="2.9967">
        <ele>1295</ele>
        <time>2021-08-24T10:42:31Z</time>
      </trkpt>
      <trkpt lat="45.29627" lon="2.99676">
        <ele>1294.9</ele>
        <time>2021-08-24T10:42:33Z</time>
      </trkpt>
      <trkpt lat="45.29628" lon="2.99682">
        <ele>1294.9</ele>
        <time>2021-08-24T10:42:35Z</time>
      </trkpt>
      <trkpt lat="45.29628" lon="2.99687">
        <ele>1294.8</ele>
        <time>2021-08-24T10:42:37Z</time>
      </trkpt>
      <trkpt lat="45.29629" lon="2.99693">
        <ele>1294.7</ele>
        <time>2021-08-24T10:42:39Z</time>
      </trkpt>
      <trkpt lat="45.2963" lon="2.99699">
        <ele>1294.6</ele>
        <time>2021-08-24T10:42:41Z</time>
      </trkpt>
      <trkpt lat="45.29631" lon="2.99705">
        <ele>1294.6</ele>
        <time>2021-08-24T10:42:43Z</time>
      </trkpt>
      <trkpt lat="45.29632" lon="2.99712">
        <ele>1294.4</ele>
        <time>2021-08-24T10:42:45Z</time>
      </trkpt>
      <trkpt lat="45.29633" lon="2.99718">
        <ele>1294.3</ele>
        <time>2021-08-24T10:42:47Z</time>
      </trkpt>
      <trkpt lat="45.29635" lon="2.99724">
        <ele>1294.2</ele>
        <time>2021-08-24T10:42:49Z</time>
      </trkpt>
      <trkpt lat="45.29636" lon="2.99731">
        <ele>1294.1</ele>
        <time>2021-08-24T10:42:51Z</time>
      </trkpt>
      <trkpt lat="45.29637" lon="2.99738">
        <ele>1293.9</ele>
        <time>2021-08-24T10:42:53Z</time>
      </trkpt>
      <trkpt lat="45.29638" lon="2.99745">
        <ele>1293.8</ele>
        <time>2021-08-24T10:42:55Z</time>
      </trkpt>
      <trkpt lat="45.29639" lon="2.99752">
        <ele>1293.6</ele>
        <time>2021-08-24T10:42:57Z</time>
      </trkpt>
      <trkpt lat="45.2964" lon="2.99758">
        <ele>1293.4</ele>
        <time>2021-08-24T10:42:59Z</time>
      </trkpt>
      <trkpt lat="45.29642" lon="2.99765">
        <ele>1293.2</ele>
        <time>2021-08-24T10:43:01Z</time>
      </trkpt>
      <trkpt lat="45.29643" lon="2.99773">
        <ele>1293</ele>
        <time>2021-08-24T10:43:03Z</time>
      </trkpt>
      <trkpt lat="45.29644" lon="2.9978">
        <ele>1292.7</ele>
        <time>2021-08-24T10:43:05Z</time>
      </trkpt>
      <trkpt lat="45.29645" lon="2.99787">
        <ele>1292.5</ele>
        <time>2021-08-24T10:43:07Z</time>
      </trkpt>
      <trkpt lat="45.29646" lon="2.99795">
        <ele>1292.2</ele>
        <time>2021-08-24T10:43:09Z</time>
      </trkpt>
      <trkpt lat="45.29649" lon="2.99804">
        <ele>1291.9</ele>
        <time>2021-08-24T10:43:11Z</time>
      </trkpt>
      <trkpt lat="45.2965" lon="2.99813">
        <ele>1291.6</ele>
        <time>2021-08-24T10:43:13Z</time>
      </trkpt>
      <trkpt lat="45.29652" lon="2.99823">
        <ele>1291.2</ele>
        <time>2021-08-24T10:43:15Z</time>
      </trkpt>
      <trkpt lat="45.29655" lon="2.99834">
        <ele>1290.7</ele>
        <time>2021-08-24T10:43:17Z</time>
      </trkpt>
      <trkpt lat="45.29658" lon="2.99845">
        <ele>1290.5</ele>
        <time>2021-08-24T10:43:19Z</time>
      </trkpt>
      <trkpt lat="45.29664" lon="2.99855">
        <ele>1290.2</ele>
        <time>2021-08-24T10:43:21Z</time>
      </trkpt>
      <trkpt lat="45.2967" lon="2.99866">
        <ele>1289.8</ele>
        <time>2021-08-24T10:43:23Z</time>
      </trkpt>
      <trkpt lat="45.29677" lon="2.99877">
        <ele>1289.5</ele>
        <time>2021-08-24T10:43:25Z</time>
      </trkpt>
      <trkpt lat="45.29685" lon="2.99887">
        <ele>1289.1</ele>
        <time>2021-08-24T10:43:27Z</time>
      </trkpt>
      <trkpt lat="45.29694" lon="2.99898">
        <ele>1288.7</ele>
        <time>2021-08-24T10:43:29Z</time>
      </trkpt>
      <trkpt lat="45.29704" lon="2.99909">
        <ele>1288.2</ele>
        <time>2021-08-24T10:43:31Z</time>
      </trkpt>
      <trkpt lat="45.29713" lon="2.99922">
        <ele>1287.8</ele>
        <time>2021-08-24T10:43:33Z</time>
      </trkpt>
      <trkpt lat="45.29721" lon="2.99934">
        <ele>1287.3</ele>
        <time>2021-08-24T10:43:35Z</time>
      </trkpt>
      <trkpt lat="45.29729" lon="2.99949">
        <ele>1286.9</ele>
        <time>2021-08-24T10:43:37Z</time>
      </trkpt>
      <trkpt lat="45.29734" lon="2.99964">
        <ele>1286.7</ele>
        <time>2021-08-24T10:43:39Z</time>
      </trkpt>
      <trkpt lat="45.29739" lon="2.99981">
        <ele>1286.4</ele>
        <time>2021-08-24T10:43:41Z</time>
      </trkpt>
      <trkpt lat="45.29745" lon="2.99998">
        <ele>1286.2</ele>
        <time>2021-08-24T10:43:43Z</time>
      </trkpt>
      <trkpt lat="45.29751" lon="3.00013">
        <ele>1285.6</ele>
        <time>2021-08-24T10:43:45Z</time>
      </trkpt>
      <trkpt lat="45.2976" lon="3.00026">
        <ele>1284.7</ele>
        <time>2021-08-24T10:43:47Z</time>
      </trkpt>
      <trkpt lat="45.2977" lon="3.00037">
        <ele>1283.7</ele>
        <time>2021-08-24T10:43:49Z</time>
      </trkpt>
      <trkpt lat="45.29781" lon="3.00047">
        <ele>1282.6</ele>
        <time>2021-08-24T10:43:51Z</time>
      </trkpt>
      <trkpt lat="45.29793" lon="3.00057">
        <ele>1281.4</ele>
        <time>2021-08-24T10:43:53Z</time>
      </trkpt>
      <trkpt lat="45.29805" lon="3.00067">
        <ele>1280</ele>
        <time>2021-08-24T10:43:55Z</time>
      </trkpt>
      <trkpt lat="45.29817" lon="3.00078">
        <ele>1278.6</ele>
        <time>2021-08-24T10:43:57Z</time>
      </trkpt>
      <trkpt lat="45.29831" lon="3.00088">
        <ele>1277</ele>
        <time>2021-08-24T10:43:59Z</time>
      </trkpt>
      <trkpt lat="45.29845" lon="3.00093">
        <ele>1275.8</ele>
        <time>2021-08-24T10:44:01Z</time>
      </trkpt>
      <trkpt lat="45.29861" lon="3.00094">
        <ele>1274.9</ele>
        <time>2021-08-24T10:44:03Z</time>
      </trkpt>
      <trkpt lat="45.29877" lon="3.00094">
        <ele>1274.1</ele>
        <time>2021-08-24T10:44:05Z</time>
      </trkpt>
      <trkpt lat="45.29894" lon="3.00096">
        <ele>1273.1</ele>
        <time>2021-08-24T10:44:07Z</time>
      </trkpt>
      <trkpt lat="45.29912" lon="3.00103">
        <ele>1271.7</ele>
        <time>2021-08-24T10:44:09Z</time>
      </trkpt>
      <trkpt lat="45.29928" lon="3.00114">
        <ele>1269.6</ele>
        <time>2021-08-24T10:44:11Z</time>
      </trkpt>
      <trkpt lat="45.29942" lon="3.00128">
        <ele>1267.5</ele>
        <time>2021-08-24T10:44:13Z</time>
      </trkpt>
      <trkpt lat="45.29957" lon="3.00142">
        <ele>1265.6</ele>
        <time>2021-08-24T10:44:15Z</time>
      </trkpt>
      <trkpt lat="45.29972" lon="3.00156">
        <ele>1263.9</ele>
        <time>2021-08-24T10:44:17Z</time>
      </trkpt>
      <trkpt lat="45.29987" lon="3.0017">
        <ele>1262.4</ele>
        <time>2021-08-24T10:44:19Z</time>
      </trkpt>
      <trkpt lat="45.30001" lon="3.00182">
        <ele>1261</ele>
        <time>2021-08-24T10:44:21Z</time>
      </trkpt>
      <trkpt lat="45.30014" lon="3.00187">
        <ele>1259.3</ele>
        <time>2021-08-24T10:44:23Z</time>
      </trkpt>
      <trkpt lat="45.30027" lon="3.00177">
        <ele>1258.3</ele>
        <time>2021-08-24T10:44:25Z</time>
      </trkpt>
      <trkpt lat="45.30037" lon="3.00159">
        <ele>1257.8</ele>
        <time>2021-08-24T10:44:27Z</time>
      </trkpt>
      <trkpt lat="45.30044" lon="3.00138">
        <ele>1257.5</ele>
        <time>2021-08-24T10:44:29Z</time>
      </trkpt>
      <trkpt lat="45.30052" lon="3.00117">
        <ele>1257.2</ele>
        <time>2021-08-24T10:44:31Z</time>
      </trkpt>
      <trkpt lat="45.30059" lon="3.00093">
        <ele>1257</ele>
        <time>2021-08-24T10:44:33Z</time>
      </trkpt>
      <trkpt lat="45.30066" lon="3.0007">
        <ele>1257.2</ele>
        <time>2021-08-24T10:44:35Z</time>
      </trkpt>
      <trkpt lat="45.30073" lon="3.00048">
        <ele>1257.6</ele>
        <time>2021-08-24T10:44:37Z</time>
      </trkpt>
      <trkpt lat="45.30086" lon="3.0003">
        <ele>1257.1</ele>
        <time>2021-08-24T10:44:39Z</time>
      </trkpt>
      <trkpt lat="45.30104" lon="3.00021">
        <ele>1256.7</ele>
        <time>2021-08-24T10:44:41Z</time>
      </trkpt>
      <trkpt lat="45.30123" lon="3.00018">
        <ele>1256</ele>
        <time>2021-08-24T10:44:43Z</time>
      </trkpt>
      <trkpt lat="45.30142" lon="3.00024">
        <ele>1254.7</ele>
        <time>2021-08-24T10:44:45Z</time>
      </trkpt>
      <trkpt lat="45.30157" lon="3.00039">
        <ele>1253.1</ele>
        <time>2021-08-24T10:44:47Z</time>
      </trkpt>
      <trkpt lat="45.30169" lon="3.00059">
        <ele>1251.4</ele>
        <time>2021-08-24T10:44:49Z</time>
      </trkpt>
      <trkpt lat="45.30179" lon="3.00082">
        <ele>1249.9</ele>
        <time>2021-08-24T10:44:51Z</time>
      </trkpt>
      <trkpt lat="45.30189" lon="3.00104">
        <ele>1248.7</ele>
        <time>2021-08-24T10:44:53Z</time>
      </trkpt>
      <trkpt lat="45.30199" lon="3.00126">
        <ele>1247.6</ele>
        <time>2021-08-24T10:44:55Z</time>
      </trkpt>
      <trkpt lat="45.30209" lon="3.00148">
        <ele>1246.4</ele>
        <time>2021-08-24T10:44:57Z</time>
      </trkpt>
      <trkpt lat="45.30219" lon="3.0017">
        <ele>1245.2</ele>
        <time>2021-08-24T10:44:59Z</time>
      </trkpt>
      <trkpt lat="45.30229" lon="3.00192">
        <ele>1243.7</ele>
        <time>2021-08-24T10:45:01Z</time>
      </trkpt>
      <trkpt lat="45.30238" lon="3.00215">
        <ele>1242.2</ele>
        <time>2021-08-24T10:45:03Z</time>
      </trkpt>
      <trkpt lat="45.30249" lon="3.00237">
        <ele>1240.8</ele>
        <time>2021-08-24T10:45:05Z</time>
      </trkpt>
      <trkpt lat="45.30261" lon="3.00258">
        <ele>1240</ele>
        <time>2021-08-24T10:45:07Z</time>
      </trkpt>
      <trkpt lat="45.30274" lon="3.00279">
        <ele>1239.4</ele>
        <time>2021-08-24T10:45:09Z</time>
      </trkpt>
      <trkpt lat="45.30282" lon="3.00305">
        <ele>1238.3</ele>
        <time>2021-08-24T10:45:11Z</time>
      </trkpt>
      <trkpt lat="45.30285" lon="3.00334">
        <ele>1236.8</ele>
        <time>2021-08-24T10:45:13Z</time>
      </trkpt>
      <trkpt lat="45.30286" lon="3.00363">
        <ele>1235.8</ele>
        <time>2021-08-24T10:45:15Z</time>
      </trkpt>
      <trkpt lat="45.30287" lon="3.00392">
        <ele>1234.9</ele>
        <time>2021-08-24T10:45:17Z</time>
      </trkpt>
      <trkpt lat="45.30287" lon="3.0042">
        <ele>1233.8</ele>
        <time>2021-08-24T10:45:19Z</time>
      </trkpt>
      <trkpt lat="45.30288" lon="3.00449">
        <ele>1232.2</ele>
        <time>2021-08-24T10:45:21Z</time>
      </trkpt>
      <trkpt lat="45.30288" lon="3.00479">
        <ele>1230.6</ele>
        <time>2021-08-24T10:45:23Z</time>
      </trkpt>
      <trkpt lat="45.30289" lon="3.00508">
        <ele>1228.8</ele>
        <time>2021-08-24T10:45:25Z</time>
      </trkpt>
      <trkpt lat="45.3029" lon="3.00538">
        <ele>1226.3</ele>
        <time>2021-08-24T10:45:27Z</time>
      </trkpt>
      <trkpt lat="45.30292" lon="3.00567">
        <ele>1224.1</ele>
        <time>2021-08-24T10:45:29Z</time>
      </trkpt>
      <trkpt lat="45.30295" lon="3.00597">
        <ele>1222</ele>
        <time>2021-08-24T10:45:31Z</time>
      </trkpt>
      <trkpt lat="45.30297" lon="3.00627">
        <ele>1219.6</ele>
        <time>2021-08-24T10:45:33Z</time>
      </trkpt>
      <trkpt lat="45.30301" lon="3.00657">
        <ele>1217.7</ele>
        <time>2021-08-24T10:45:35Z</time>
      </trkpt>
      <trkpt lat="45.30305" lon="3.00687">
        <ele>1215.8</ele>
        <time>2021-08-24T10:45:37Z</time>
      </trkpt>
      <trkpt lat="45.30312" lon="3.00715">
        <ele>1214.6</ele>
        <time>2021-08-24T10:45:39Z</time>
      </trkpt>
      <trkpt lat="45.30321" lon="3.00743">
        <ele>1214.6</ele>
        <time>2021-08-24T10:45:41Z</time>
      </trkpt>
      <trkpt lat="45.30331" lon="3.00771">
        <ele>1215.4</ele>
        <time>2021-08-24T10:45:43Z</time>
      </trkpt>
      <trkpt lat="45.3034" lon="3.00795">
        <ele>1215.9</ele>
        <time>2021-08-24T10:45:45Z</time>
      </trkpt>
      <trkpt lat="45.30347" lon="3.00821">
        <ele>1215.7</ele>
        <time>2021-08-24T10:45:47Z</time>
      </trkpt>
      <trkpt lat="45.30349" lon="3.0085">
        <ele>1215</ele>
        <time>2021-08-24T10:45:49Z</time>
      </trkpt>
      <trkpt lat="45.30345" lon="3.00879">
        <ele>1212.9</ele>
        <time>2021-08-24T10:45:51Z</time>
      </trkpt>
      <trkpt lat="45.30338" lon="3.00908">
        <ele>1210.5</ele>
        <time>2021-08-24T10:45:53Z</time>
      </trkpt>
      <trkpt lat="45.3033" lon="3.00934">
        <ele>1208.6</ele>
        <time>2021-08-24T10:45:55Z</time>
      </trkpt>
      <trkpt lat="45.30318" lon="3.00956">
        <ele>1206.4</ele>
        <time>2021-08-24T10:45:57Z</time>
      </trkpt>
      <trkpt lat="45.30303" lon="3.00974">
        <ele>1203.8</ele>
        <time>2021-08-24T10:45:59Z</time>
      </trkpt>
      <trkpt lat="45.30287" lon="3.00988">
        <ele>1201.3</ele>
        <time>2021-08-24T10:46:01Z</time>
      </trkpt>
      <trkpt lat="45.30272" lon="3.01003">
        <ele>1199.4</ele>
        <time>2021-08-24T10:46:03Z</time>
      </trkpt>
      <trkpt lat="45.30259" lon="3.01021">
        <ele>1197.4</ele>
        <time>2021-08-24T10:46:05Z</time>
      </trkpt>
      <trkpt lat="45.30248" lon="3.01043">
        <ele>1196</ele>
        <time>2021-08-24T10:46:07Z</time>
      </trkpt>
      <trkpt lat="45.30241" lon="3.01069">
        <ele>1194.6</ele>
        <time>2021-08-24T10:46:09Z</time>
      </trkpt>
      <trkpt lat="45.30235" lon="3.01095">
        <ele>1192.4</ele>
        <time>2021-08-24T10:46:11Z</time>
      </trkpt>
      <trkpt lat="45.30234" lon="3.01122">
        <ele>1190.1</ele>
        <time>2021-08-24T10:46:13Z</time>
      </trkpt>
      <trkpt lat="45.30236" lon="3.0115">
        <ele>1188.9</ele>
        <time>2021-08-24T10:46:15Z</time>
      </trkpt>
      <trkpt lat="45.3024" lon="3.01177">
        <ele>1188.1</ele>
        <time>2021-08-24T10:46:17Z</time>
      </trkpt>
      <trkpt lat="45.30246" lon="3.01203">
        <ele>1187.9</ele>
        <time>2021-08-24T10:46:19Z</time>
      </trkpt>
      <trkpt lat="45.30255" lon="3.01229">
        <ele>1187.9</ele>
        <time>2021-08-24T10:46:21Z</time>
      </trkpt>
      <trkpt lat="45.30265" lon="3.01254">
        <ele>1187.9</ele>
        <time>2021-08-24T10:46:23Z</time>
      </trkpt>
      <trkpt lat="45.30273" lon="3.01277">
        <ele>1187.2</ele>
        <time>2021-08-24T10:46:25Z</time>
      </trkpt>
      <trkpt lat="45.30282" lon="3.01299">
        <ele>1187.1</ele>
        <time>2021-08-24T10:46:27Z</time>
      </trkpt>
      <trkpt lat="45.30291" lon="3.01322">
        <ele>1186.9</ele>
        <time>2021-08-24T10:46:29Z</time>
      </trkpt>
      <trkpt lat="45.30297" lon="3.01347">
        <ele>1185.9</ele>
        <time>2021-08-24T10:46:31Z</time>
      </trkpt>
      <trkpt lat="45.30303" lon="3.01374">
        <ele>1184.2</ele>
        <time>2021-08-24T10:46:33Z</time>
      </trkpt>
      <trkpt lat="45.30307" lon="3.01399">
        <ele>1182.5</ele>
        <time>2021-08-24T10:46:35Z</time>
      </trkpt>
      <trkpt lat="45.30311" lon="3.0142">
        <ele>1181.4</ele>
        <time>2021-08-24T10:46:37Z</time>
      </trkpt>
      <trkpt lat="45.30315" lon="3.01438">
        <ele>1181.8</ele>
        <time>2021-08-24T10:46:39Z</time>
      </trkpt>
      <trkpt lat="45.30318" lon="3.01455">
        <ele>1182.1</ele>
        <time>2021-08-24T10:46:41Z</time>
      </trkpt>
      <trkpt lat="45.30319" lon="3.01472">
        <ele>1181.7</ele>
        <time>2021-08-24T10:46:43Z</time>
      </trkpt>
      <trkpt lat="45.30318" lon="3.01488">
        <ele>1180.9</ele>
        <time>2021-08-24T10:46:45Z</time>
      </trkpt>
      <trkpt lat="45.30317" lon="3.01501">
        <ele>1180.1</ele>
        <time>2021-08-24T10:46:47Z</time>
      </trkpt>
      <trkpt lat="45.30314" lon="3.01515">
        <ele>1179.2</ele>
        <time>2021-08-24T10:46:49Z</time>
      </trkpt>
      <trkpt lat="45.30311" lon="3.01529">
        <ele>1178.2</ele>
        <time>2021-08-24T10:46:51Z</time>
      </trkpt>
      <trkpt lat="45.30309" lon="3.01543">
        <ele>1177.4</ele>
        <time>2021-08-24T10:46:53Z</time>
      </trkpt>
      <trkpt lat="45.30307" lon="3.01555">
        <ele>1176.9</ele>
        <time>2021-08-24T10:46:55Z</time>
      </trkpt>
      <trkpt lat="45.30306" lon="3.01566">
        <ele>1176.4</ele>
        <time>2021-08-24T10:46:57Z</time>
      </trkpt>
      <trkpt lat="45.30304" lon="3.01576">
        <ele>1176</ele>
        <time>2021-08-24T10:46:59Z</time>
      </trkpt>
      <trkpt lat="45.30302" lon="3.01585">
        <ele>1175.4</ele>
        <time>2021-08-24T10:47:01Z</time>
      </trkpt>
      <trkpt lat="45.30301" lon="3.01595">
        <ele>1174.7</ele>
        <time>2021-08-24T10:47:03Z</time>
      </trkpt>
      <trkpt lat="45.30299" lon="3.01606">
        <ele>1173.8</ele>
        <time>2021-08-24T10:47:05Z</time>
      </trkpt>
      <trkpt lat="45.30297" lon="3.0162">
        <ele>1172.7</ele>
        <time>2021-08-24T10:47:07Z</time>
      </trkpt>
      <trkpt lat="45.30295" lon="3.01634">
        <ele>1171.8</ele>
        <time>2021-08-24T10:47:09Z</time>
      </trkpt>
      <trkpt lat="45.30295" lon="3.01644">
        <ele>1171.4</ele>
        <time>2021-08-24T10:47:11Z</time>
      </trkpt>
      <trkpt lat="45.30294" lon="3.01655">
        <ele>1170.9</ele>
        <time>2021-08-24T10:47:13Z</time>
      </trkpt>
      <trkpt lat="45.30295" lon="3.01665">
        <ele>1170.9</ele>
        <time>2021-08-24T10:47:15Z</time>
      </trkpt>
      <trkpt lat="45.30298" lon="3.01674">
        <ele>1171</ele>
        <time>2021-08-24T10:47:17Z</time>
      </trkpt>
      <trkpt lat="45.303" lon="3.01682">
        <ele>1171.2</ele>
        <time>2021-08-24T10:47:19Z</time>
      </trkpt>
      <trkpt lat="45.30303" lon="3.01687">
        <ele>1171.6</ele>
        <time>2021-08-24T10:47:21Z</time>
      </trkpt>
      <trkpt lat="45.30304" lon="3.01691">
        <ele>1171.8</ele>
        <time>2021-08-24T10:47:23Z</time>
      </trkpt>
      <trkpt lat="45.30307" lon="3.01694">
        <ele>1172.2</ele>
        <time>2021-08-24T10:47:25Z</time>
      </trkpt>
      <trkpt lat="45.30309" lon="3.01698">
        <ele>1172.5</ele>
        <time>2021-08-24T10:47:27Z</time>
      </trkpt>
      <trkpt lat="45.3031" lon="3.01702">
        <ele>1172.6</ele>
        <time>2021-08-24T10:47:29Z</time>
      </trkpt>
      <trkpt lat="45.30311" lon="3.01701">
        <ele>1172.9</ele>
        <time>2021-08-24T10:47:31Z</time>
      </trkpt>
      <trkpt lat="45.30311" lon="3.01701">
        <ele>1172.8</ele>
        <time>2021-08-24T10:47:33Z</time>
      </trkpt>
      <trkpt lat="45.30311" lon="3.01701">
        <ele>1172.9</ele>
        <time>2021-08-24T10:47:35Z</time>
      </trkpt>
      <trkpt lat="45.30311" lon="3.01698">
        <ele>1173</ele>
        <time>2021-08-24T10:47:37Z</time>
      </trkpt>
      <trkpt lat="45.30306" lon="3.01693">
        <ele>1172</ele>
        <time>2021-08-24T10:51:03Z</time>
      </trkpt>
      <trkpt lat="45.30307" lon="3.01698">
        <ele>1172.2</ele>
        <time>2021-08-24T10:51:05Z</time>
      </trkpt>
      <trkpt lat="45.30309" lon="3.01702">
        <ele>1172.4</ele>
        <time>2021-08-24T10:51:07Z</time>
      </trkpt>
      <trkpt lat="45.30312" lon="3.01705">
        <ele>1172.8</ele>
        <time>2021-08-24T10:51:09Z</time>
      </trkpt>
      <trkpt lat="45.30314" lon="3.01709">
        <ele>1173.3</ele>
        <time>2021-08-24T10:51:11Z</time>
      </trkpt>
      <trkpt lat="45.30317" lon="3.01713">
        <ele>1173.6</ele>
        <time>2021-08-24T10:51:13Z</time>
      </trkpt>
      <trkpt lat="45.30319" lon="3.01717">
        <ele>1174</ele>
        <time>2021-08-24T10:51:15Z</time>
      </trkpt>
      <trkpt lat="45.30322" lon="3.01721">
        <ele>1174.5</ele>
        <time>2021-08-24T10:51:17Z</time>
      </trkpt>
      <trkpt lat="45.30324" lon="3.01724">
        <ele>1174.9</ele>
        <time>2021-08-24T10:51:19Z</time>
      </trkpt>
      <trkpt lat="45.30326" lon="3.01728">
        <ele>1175.3</ele>
        <time>2021-08-24T10:51:21Z</time>
      </trkpt>
      <trkpt lat="45.30328" lon="3.01733">
        <ele>1175.6</ele>
        <time>2021-08-24T10:51:23Z</time>
      </trkpt>
      <trkpt lat="45.3033" lon="3.01737">
        <ele>1175.9</ele>
        <time>2021-08-24T10:51:25Z</time>
      </trkpt>
      <trkpt lat="45.30333" lon="3.01741">
        <ele>1176.2</ele>
        <time>2021-08-24T10:51:27Z</time>
      </trkpt>
      <trkpt lat="45.30334" lon="3.01745">
        <ele>1176.2</ele>
        <time>2021-08-24T10:51:29Z</time>
      </trkpt>
      <trkpt lat="45.30336" lon="3.01749">
        <ele>1176</ele>
        <time>2021-08-24T10:51:31Z</time>
      </trkpt>
      <trkpt lat="45.30337" lon="3.01754">
        <ele>1175.7</ele>
        <time>2021-08-24T10:51:33Z</time>
      </trkpt>
      <trkpt lat="45.30339" lon="3.01758">
        <ele>1175.3</ele>
        <time>2021-08-24T10:51:35Z</time>
      </trkpt>
      <trkpt lat="45.3034" lon="3.01763">
        <ele>1175</ele>
        <time>2021-08-24T10:51:37Z</time>
      </trkpt>
      <trkpt lat="45.30341" lon="3.01767">
        <ele>1174.6</ele>
        <time>2021-08-24T10:51:39Z</time>
      </trkpt>
      <trkpt lat="45.30342" lon="3.01772">
        <ele>1174.3</ele>
        <time>2021-08-24T10:51:41Z</time>
      </trkpt>
      <trkpt lat="45.30343" lon="3.01777">
        <ele>1173.9</ele>
        <time>2021-08-24T10:51:43Z</time>
      </trkpt>
      <trkpt lat="45.30344" lon="3.01781">
        <ele>1173.6</ele>
        <time>2021-08-24T10:51:45Z</time>
      </trkpt>
      <trkpt lat="45.30346" lon="3.01786">
        <ele>1173.2</ele>
        <time>2021-08-24T10:51:47Z</time>
      </trkpt>
      <trkpt lat="45.30347" lon="3.01792">
        <ele>1172.8</ele>
        <time>2021-08-24T10:51:49Z</time>
      </trkpt>
      <trkpt lat="45.30349" lon="3.01797">
        <ele>1172.3</ele>
        <time>2021-08-24T10:51:51Z</time>
      </trkpt>
      <trkpt lat="45.30352" lon="3.01801">
        <ele>1171.9</ele>
        <time>2021-08-24T10:51:53Z</time>
      </trkpt>
      <trkpt lat="45.30354" lon="3.01806">
        <ele>1171.5</ele>
        <time>2021-08-24T10:51:55Z</time>
      </trkpt>
      <trkpt lat="45.30358" lon="3.01811">
        <ele>1171.1</ele>
        <time>2021-08-24T10:51:57Z</time>
      </trkpt>
      <trkpt lat="45.30362" lon="3.01814">
        <ele>1170.8</ele>
        <time>2021-08-24T10:51:59Z</time>
      </trkpt>
      <trkpt lat="45.30367" lon="3.01816">
        <ele>1170.5</ele>
        <time>2021-08-24T10:52:01Z</time>
      </trkpt>
      <trkpt lat="45.30371" lon="3.01818">
        <ele>1170.3</ele>
        <time>2021-08-24T10:52:03Z</time>
      </trkpt>
      <trkpt lat="45.30377" lon="3.01818">
        <ele>1170.1</ele>
        <time>2021-08-24T10:52:05Z</time>
      </trkpt>
      <trkpt lat="45.30382" lon="3.01818">
        <ele>1170</ele>
        <time>2021-08-24T10:52:07Z</time>
      </trkpt>
      <trkpt lat="45.30386" lon="3.01816">
        <ele>1170.1</ele>
        <time>2021-08-24T10:52:09Z</time>
      </trkpt>
      <trkpt lat="45.3039" lon="3.01816">
        <ele>1170</ele>
        <time>2021-08-24T10:52:11Z</time>
      </trkpt>
      <trkpt lat="45.30394" lon="3.01815">
        <ele>1170</ele>
        <time>2021-08-24T10:52:13Z</time>
      </trkpt>
      <trkpt lat="45.30397" lon="3.01812">
        <ele>1170.2</ele>
        <time>2021-08-24T10:52:15Z</time>
      </trkpt>
      <trkpt lat="45.304" lon="3.01809">
        <ele>1170.4</ele>
        <time>2021-08-24T10:52:17Z</time>
      </trkpt>
      <trkpt lat="45.30404" lon="3.01805">
        <ele>1170.6</ele>
        <time>2021-08-24T10:52:19Z</time>
      </trkpt>
      <trkpt lat="45.30407" lon="3.01801">
        <ele>1170.9</ele>
        <time>2021-08-24T10:52:21Z</time>
      </trkpt>
      <trkpt lat="45.30411" lon="3.01796">
        <ele>1171.2</ele>
        <time>2021-08-24T10:52:23Z</time>
      </trkpt>
      <trkpt lat="45.30416" lon="3.01792">
        <ele>1171.5</ele>
        <time>2021-08-24T10:52:25Z</time>
      </trkpt>
      <trkpt lat="45.30421" lon="3.01787">
        <ele>1171</ele>
        <time>2021-08-24T10:52:27Z</time>
      </trkpt>
      <trkpt lat="45.30427" lon="3.01779">
        <ele>1170.5</ele>
        <time>2021-08-24T10:52:29Z</time>
      </trkpt>
      <trkpt lat="45.30434" lon="3.0177">
        <ele>1170</ele>
        <time>2021-08-24T10:52:31Z</time>
      </trkpt>
      <trkpt lat="45.30441" lon="3.01759">
        <ele>1169.3</ele>
        <time>2021-08-24T10:52:33Z</time>
      </trkpt>
      <trkpt lat="45.30449" lon="3.01746">
        <ele>1168.7</ele>
        <time>2021-08-24T10:52:35Z</time>
      </trkpt>
      <trkpt lat="45.30457" lon="3.0173">
        <ele>1169.2</ele>
        <time>2021-08-24T10:52:37Z</time>
      </trkpt>
      <trkpt lat="45.30466" lon="3.01713">
        <ele>1169.4</ele>
        <time>2021-08-24T10:52:39Z</time>
      </trkpt>
      <trkpt lat="45.30475" lon="3.01694">
        <ele>1169.3</ele>
        <time>2021-08-24T10:52:41Z</time>
      </trkpt>
      <trkpt lat="45.30484" lon="3.01673">
        <ele>1169.1</ele>
        <time>2021-08-24T10:52:43Z</time>
      </trkpt>
      <trkpt lat="45.30492" lon="3.01651">
        <ele>1168.4</ele>
        <time>2021-08-24T10:52:45Z</time>
      </trkpt>
      <trkpt lat="45.305" lon="3.01626">
        <ele>1167.4</ele>
        <time>2021-08-24T10:52:47Z</time>
      </trkpt>
      <trkpt lat="45.30509" lon="3.016">
        <ele>1166.5</ele>
        <time>2021-08-24T10:52:49Z</time>
      </trkpt>
      <trkpt lat="45.3052" lon="3.01576">
        <ele>1165.5</ele>
        <time>2021-08-24T10:52:51Z</time>
      </trkpt>
      <trkpt lat="45.30531" lon="3.01552">
        <ele>1164.9</ele>
        <time>2021-08-24T10:52:53Z</time>
      </trkpt>
      <trkpt lat="45.30543" lon="3.01528">
        <ele>1163.7</ele>
        <time>2021-08-24T10:52:55Z</time>
      </trkpt>
      <trkpt lat="45.30555" lon="3.01505">
        <ele>1161.8</ele>
        <time>2021-08-24T10:52:57Z</time>
      </trkpt>
      <trkpt lat="45.30566" lon="3.01483">
        <ele>1159.8</ele>
        <time>2021-08-24T10:52:59Z</time>
      </trkpt>
      <trkpt lat="45.30578" lon="3.01461">
        <ele>1157.3</ele>
        <time>2021-08-24T10:53:01Z</time>
      </trkpt>
      <trkpt lat="45.3059" lon="3.01439">
        <ele>1155.5</ele>
        <time>2021-08-24T10:53:03Z</time>
      </trkpt>
      <trkpt lat="45.306" lon="3.01418">
        <ele>1154.8</ele>
        <time>2021-08-24T10:53:05Z</time>
      </trkpt>
      <trkpt lat="45.30612" lon="3.01397">
        <ele>1155.1</ele>
        <time>2021-08-24T10:53:07Z</time>
      </trkpt>
      <trkpt lat="45.30625" lon="3.01375">
        <ele>1155</ele>
        <time>2021-08-24T10:53:09Z</time>
      </trkpt>
      <trkpt lat="45.30638" lon="3.01354">
        <ele>1154.4</ele>
        <time>2021-08-24T10:53:11Z</time>
      </trkpt>
      <trkpt lat="45.30653" lon="3.01335">
        <ele>1152.5</ele>
        <time>2021-08-24T10:53:13Z</time>
      </trkpt>
      <trkpt lat="45.30671" lon="3.01319">
        <ele>1151.7</ele>
        <time>2021-08-24T10:53:15Z</time>
      </trkpt>
      <trkpt lat="45.30689" lon="3.01302">
        <ele>1151.7</ele>
        <time>2021-08-24T10:53:17Z</time>
      </trkpt>
      <trkpt lat="45.30707" lon="3.01284">
        <ele>1151.7</ele>
        <time>2021-08-24T10:53:19Z</time>
      </trkpt>
      <trkpt lat="45.30723" lon="3.01264">
        <ele>1151.5</ele>
        <time>2021-08-24T10:53:21Z</time>
      </trkpt>
      <trkpt lat="45.30739" lon="3.01245">
        <ele>1151.2</ele>
        <time>2021-08-24T10:53:23Z</time>
      </trkpt>
      <trkpt lat="45.30753" lon="3.01227">
        <ele>1153.4</ele>
        <time>2021-08-24T10:53:25Z</time>
      </trkpt>
      <trkpt lat="45.30768" lon="3.01212">
        <ele>1156.8</ele>
        <time>2021-08-24T10:53:27Z</time>
      </trkpt>
      <trkpt lat="45.30783" lon="3.01207">
        <ele>1157.1</ele>
        <time>2021-08-24T10:53:29Z</time>
      </trkpt>
      <trkpt lat="45.30798" lon="3.01216">
        <ele>1155.3</ele>
        <time>2021-08-24T10:53:31Z</time>
      </trkpt>
      <trkpt lat="45.30806" lon="3.01235">
        <ele>1153.2</ele>
        <time>2021-08-24T10:53:33Z</time>
      </trkpt>
      <trkpt lat="45.30809" lon="3.01254">
        <ele>1151.8</ele>
        <time>2021-08-24T10:53:35Z</time>
      </trkpt>
      <trkpt lat="45.30807" lon="3.01271">
        <ele>1151.1</ele>
        <time>2021-08-24T10:53:37Z</time>
      </trkpt>
      <trkpt lat="45.30807" lon="3.01287">
        <ele>1150.5</ele>
        <time>2021-08-24T10:53:39Z</time>
      </trkpt>
      <trkpt lat="45.30806" lon="3.01301">
        <ele>1149.9</ele>
        <time>2021-08-24T10:53:41Z</time>
      </trkpt>
      <trkpt lat="45.30807" lon="3.01315">
        <ele>1149.5</ele>
        <time>2021-08-24T10:53:43Z</time>
      </trkpt>
      <trkpt lat="45.30808" lon="3.01327">
        <ele>1149.4</ele>
        <time>2021-08-24T10:53:45Z</time>
      </trkpt>
      <trkpt lat="45.3081" lon="3.01338">
        <ele>1149.6</ele>
        <time>2021-08-24T10:53:47Z</time>
      </trkpt>
      <trkpt lat="45.30812" lon="3.01349">
        <ele>1149.8</ele>
        <time>2021-08-24T10:53:49Z</time>
      </trkpt>
      <trkpt lat="45.30813" lon="3.0136">
        <ele>1149.9</ele>
        <time>2021-08-24T10:53:51Z</time>
      </trkpt>
      <trkpt lat="45.30813" lon="3.0137">
        <ele>1149.7</ele>
        <time>2021-08-24T10:53:53Z</time>
      </trkpt>
      <trkpt lat="45.30813" lon="3.01378">
        <ele>1149.5</ele>
        <time>2021-08-24T10:53:55Z</time>
      </trkpt>
      <trkpt lat="45.30812" lon="3.01385">
        <ele>1149.1</ele>
        <time>2021-08-24T10:53:57Z</time>
      </trkpt>
      <trkpt lat="45.30811" lon="3.01393">
        <ele>1148.7</ele>
        <time>2021-08-24T10:53:59Z</time>
      </trkpt>
      <trkpt lat="45.30811" lon="3.014">
        <ele>1148.5</ele>
        <time>2021-08-24T10:54:01Z</time>
      </trkpt>
      <trkpt lat="45.30811" lon="3.01407">
        <ele>1148.5</ele>
        <time>2021-08-24T10:54:03Z</time>
      </trkpt>
      <trkpt lat="45.30811" lon="3.01414">
        <ele>1148.4</ele>
        <time>2021-08-24T10:54:05Z</time>
      </trkpt>
      <trkpt lat="45.30812" lon="3.01421">
        <ele>1148.5</ele>
        <time>2021-08-24T10:54:07Z</time>
      </trkpt>
      <trkpt lat="45.30812" lon="3.01428">
        <ele>1148.7</ele>
        <time>2021-08-24T10:54:09Z</time>
      </trkpt>
      <trkpt lat="45.30813" lon="3.01434">
        <ele>1149</ele>
        <time>2021-08-24T10:54:11Z</time>
      </trkpt>
      <trkpt lat="45.30813" lon="3.01441">
        <ele>1149.2</ele>
        <time>2021-08-24T10:54:13Z</time>
      </trkpt>
      <trkpt lat="45.30814" lon="3.01447">
        <ele>1149.4</ele>
        <time>2021-08-24T10:54:15Z</time>
      </trkpt>
      <trkpt lat="45.30814" lon="3.01454">
        <ele>1149.3</ele>
        <time>2021-08-24T10:54:17Z</time>
      </trkpt>
      <trkpt lat="45.30814" lon="3.0146">
        <ele>1149.4</ele>
        <time>2021-08-24T10:54:19Z</time>
      </trkpt>
      <trkpt lat="45.30815" lon="3.01466">
        <ele>1149.7</ele>
        <time>2021-08-24T10:54:21Z</time>
      </trkpt>
      <trkpt lat="45.30815" lon="3.01472">
        <ele>1149.8</ele>
        <time>2021-08-24T10:54:23Z</time>
      </trkpt>
      <trkpt lat="45.30815" lon="3.01478">
        <ele>1149.9</ele>
        <time>2021-08-24T10:54:25Z</time>
      </trkpt>
      <trkpt lat="45.30816" lon="3.01484">
        <ele>1150.2</ele>
        <time>2021-08-24T10:54:27Z</time>
      </trkpt>
      <trkpt lat="45.30816" lon="3.0149">
        <ele>1150.5</ele>
        <time>2021-08-24T10:54:29Z</time>
      </trkpt>
      <trkpt lat="45.30816" lon="3.01496">
        <ele>1150.5</ele>
        <time>2021-08-24T10:54:31Z</time>
      </trkpt>
      <trkpt lat="45.30817" lon="3.01501">
        <ele>1150.8</ele>
        <time>2021-08-24T10:54:33Z</time>
      </trkpt>
      <trkpt lat="45.30817" lon="3.01507">
        <ele>1150.8</ele>
        <time>2021-08-24T10:54:35Z</time>
      </trkpt>
      <trkpt lat="45.30817" lon="3.01513">
        <ele>1150.8</ele>
        <time>2021-08-24T10:54:37Z</time>
      </trkpt>
      <trkpt lat="45.30818" lon="3.01518">
        <ele>1151</ele>
        <time>2021-08-24T10:54:39Z</time>
      </trkpt>
      <trkpt lat="45.30818" lon="3.01524">
        <ele>1150.9</ele>
        <time>2021-08-24T10:54:41Z</time>
      </trkpt>
      <trkpt lat="45.30819" lon="3.0153">
        <ele>1150.9</ele>
        <time>2021-08-24T10:54:43Z</time>
      </trkpt>
      <trkpt lat="45.30819" lon="3.01536">
        <ele>1151</ele>
        <time>2021-08-24T10:54:45Z</time>
      </trkpt>
      <trkpt lat="45.3082" lon="3.01541">
        <ele>1151</ele>
        <time>2021-08-24T10:54:47Z</time>
      </trkpt>
      <trkpt lat="45.3082" lon="3.01547">
        <ele>1151.2</ele>
        <time>2021-08-24T10:54:49Z</time>
      </trkpt>
      <trkpt lat="45.30821" lon="3.01552">
        <ele>1151.3</ele>
        <time>2021-08-24T10:54:51Z</time>
      </trkpt>
      <trkpt lat="45.30822" lon="3.01558">
        <ele>1151.5</ele>
        <time>2021-08-24T10:54:53Z</time>
      </trkpt>
      <trkpt lat="45.30822" lon="3.01564">
        <ele>1151.7</ele>
        <time>2021-08-24T10:54:55Z</time>
      </trkpt>
      <trkpt lat="45.30823" lon="3.01569">
        <ele>1151.9</ele>
        <time>2021-08-24T10:54:57Z</time>
      </trkpt>
      <trkpt lat="45.30824" lon="3.01575">
        <ele>1152.1</ele>
        <time>2021-08-24T10:54:59Z</time>
      </trkpt>
      <trkpt lat="45.30825" lon="3.01581">
        <ele>1152.3</ele>
        <time>2021-08-24T10:55:01Z</time>
      </trkpt>
      <trkpt lat="45.30826" lon="3.01586">
        <ele>1152.2</ele>
        <time>2021-08-24T10:55:03Z</time>
      </trkpt>
      <trkpt lat="45.30826" lon="3.01591">
        <ele>1152.1</ele>
        <time>2021-08-24T10:55:05Z</time>
      </trkpt>
      <trkpt lat="45.30827" lon="3.01597">
        <ele>1151.7</ele>
        <time>2021-08-24T10:55:07Z</time>
      </trkpt>
      <trkpt lat="45.30827" lon="3.01602">
        <ele>1151.4</ele>
        <time>2021-08-24T10:55:09Z</time>
      </trkpt>
      <trkpt lat="45.30829" lon="3.01607">
        <ele>1151.5</ele>
        <time>2021-08-24T10:55:11Z</time>
      </trkpt>
      <trkpt lat="45.3083" lon="3.01612">
        <ele>1151.5</ele>
        <time>2021-08-24T10:55:13Z</time>
      </trkpt>
      <trkpt lat="45.30832" lon="3.01617">
        <ele>1151.8</ele>
        <time>2021-08-24T10:55:15Z</time>
      </trkpt>
      <trkpt lat="45.30834" lon="3.01621">
        <ele>1152.2</ele>
        <time>2021-08-24T10:55:17Z</time>
      </trkpt>
      <trkpt lat="45.30836" lon="3.01626">
        <ele>1152.4</ele>
        <time>2021-08-24T10:55:19Z</time>
      </trkpt>
      <trkpt lat="45.30838" lon="3.01631">
        <ele>1152.5</ele>
        <time>2021-08-24T10:55:21Z</time>
      </trkpt>
      <trkpt lat="45.30841" lon="3.01636">
        <ele>1152.8</ele>
        <time>2021-08-24T10:55:23Z</time>
      </trkpt>
      <trkpt lat="45.30844" lon="3.0164">
        <ele>1153.3</ele>
        <time>2021-08-24T10:55:25Z</time>
      </trkpt>
      <trkpt lat="45.30847" lon="3.01643">
        <ele>1153.9</ele>
        <time>2021-08-24T10:55:27Z</time>
      </trkpt>
      <trkpt lat="45.3085" lon="3.01646">
        <ele>1154.6</ele>
        <time>2021-08-24T10:55:29Z</time>
      </trkpt>
      <trkpt lat="45.30853" lon="3.0165">
        <ele>1155</ele>
        <time>2021-08-24T10:55:31Z</time>
      </trkpt>
      <trkpt lat="45.30856" lon="3.01654">
        <ele>1155.4</ele>
        <time>2021-08-24T10:55:33Z</time>
      </trkpt>
      <trkpt lat="45.30859" lon="3.01657">
        <ele>1156</ele>
        <time>2021-08-24T10:55:35Z</time>
      </trkpt>
      <trkpt lat="45.30862" lon="3.0166">
        <ele>1156.5</ele>
        <time>2021-08-24T10:55:37Z</time>
      </trkpt>
      <trkpt lat="45.30865" lon="3.01665">
        <ele>1156.7</ele>
        <time>2021-08-24T10:55:39Z</time>
      </trkpt>
      <trkpt lat="45.30868" lon="3.01668">
        <ele>1157.1</ele>
        <time>2021-08-24T10:55:41Z</time>
      </trkpt>
      <trkpt lat="45.30871" lon="3.01671">
        <ele>1157.6</ele>
        <time>2021-08-24T10:55:43Z</time>
      </trkpt>
      <trkpt lat="45.30874" lon="3.01675">
        <ele>1158.1</ele>
        <time>2021-08-24T10:55:45Z</time>
      </trkpt>
      <trkpt lat="45.30877" lon="3.01679">
        <ele>1158.4</ele>
        <time>2021-08-24T10:55:47Z</time>
      </trkpt>
      <trkpt lat="45.3088" lon="3.01683">
        <ele>1158.7</ele>
        <time>2021-08-24T10:55:49Z</time>
      </trkpt>
      <trkpt lat="45.30883" lon="3.01687">
        <ele>1158.9</ele>
        <time>2021-08-24T10:55:51Z</time>
      </trkpt>
      <trkpt lat="45.30886" lon="3.01692">
        <ele>1159.1</ele>
        <time>2021-08-24T10:55:53Z</time>
      </trkpt>
      <trkpt lat="45.30888" lon="3.01696">
        <ele>1159.3</ele>
        <time>2021-08-24T10:55:55Z</time>
      </trkpt>
      <trkpt lat="45.30891" lon="3.01701">
        <ele>1159.4</ele>
        <time>2021-08-24T10:55:57Z</time>
      </trkpt>
      <trkpt lat="45.30893" lon="3.01706">
        <ele>1159.4</ele>
        <time>2021-08-24T10:55:59Z</time>
      </trkpt>
      <trkpt lat="45.30896" lon="3.01711">
        <ele>1159.3</ele>
        <time>2021-08-24T10:56:01Z</time>
      </trkpt>
      <trkpt lat="45.30898" lon="3.01717">
        <ele>1159.1</ele>
        <time>2021-08-24T10:56:03Z</time>
      </trkpt>
      <trkpt lat="45.309" lon="3.01723">
        <ele>1158.8</ele>
        <time>2021-08-24T10:56:05Z</time>
      </trkpt>
      <trkpt lat="45.30901" lon="3.01729">
        <ele>1158.5</ele>
        <time>2021-08-24T10:56:07Z</time>
      </trkpt>
      <trkpt lat="45.30903" lon="3.01734">
        <ele>1158</ele>
        <time>2021-08-24T10:56:09Z</time>
      </trkpt>
      <trkpt lat="45.30904" lon="3.0174">
        <ele>1157.7</ele>
        <time>2021-08-24T10:56:11Z</time>
      </trkpt>
      <trkpt lat="45.30906" lon="3.01746">
        <ele>1157.5</ele>
        <time>2021-08-24T10:56:13Z</time>
      </trkpt>
      <trkpt lat="45.30908" lon="3.01751">
        <ele>1157.4</ele>
        <time>2021-08-24T10:56:15Z</time>
      </trkpt>
      <trkpt lat="45.3091" lon="3.01756">
        <ele>1157.6</ele>
        <time>2021-08-24T10:56:17Z</time>
      </trkpt>
      <trkpt lat="45.30912" lon="3.01761">
        <ele>1158</ele>
        <time>2021-08-24T10:56:19Z</time>
      </trkpt>
      <trkpt lat="45.30915" lon="3.01766">
        <ele>1158.3</ele>
        <time>2021-08-24T10:56:21Z</time>
      </trkpt>
      <trkpt lat="45.30918" lon="3.01771">
        <ele>1158.6</ele>
        <time>2021-08-24T10:56:23Z</time>
      </trkpt>
      <trkpt lat="45.3092" lon="3.01775">
        <ele>1158.5</ele>
        <time>2021-08-24T10:56:25Z</time>
      </trkpt>
      <trkpt lat="45.30924" lon="3.01778">
        <ele>1158.4</ele>
        <time>2021-08-24T10:56:27Z</time>
      </trkpt>
      <trkpt lat="45.30927" lon="3.01781">
        <ele>1158.3</ele>
        <time>2021-08-24T10:56:29Z</time>
      </trkpt>
      <trkpt lat="45.30931" lon="3.01784">
        <ele>1158.2</ele>
        <time>2021-08-24T10:56:31Z</time>
      </trkpt>
      <trkpt lat="45.30935" lon="3.01786">
        <ele>1158.2</ele>
        <time>2021-08-24T10:56:33Z</time>
      </trkpt>
      <trkpt lat="45.30939" lon="3.01787">
        <ele>1158.3</ele>
        <time>2021-08-24T10:56:35Z</time>
      </trkpt>
      <trkpt lat="45.30943" lon="3.01788">
        <ele>1158.4</ele>
        <time>2021-08-24T10:56:37Z</time>
      </trkpt>
      <trkpt lat="45.30947" lon="3.01788">
        <ele>1158.5</ele>
        <time>2021-08-24T10:56:39Z</time>
      </trkpt>
      <trkpt lat="45.30951" lon="3.01788">
        <ele>1158.7</ele>
        <time>2021-08-24T10:56:41Z</time>
      </trkpt>
      <trkpt lat="45.30955" lon="3.01787">
        <ele>1159</ele>
        <time>2021-08-24T10:56:43Z</time>
      </trkpt>
      <trkpt lat="45.3096" lon="3.01786">
        <ele>1159.4</ele>
        <time>2021-08-24T10:56:45Z</time>
      </trkpt>
      <trkpt lat="45.30965" lon="3.01785">
        <ele>1159.7</ele>
        <time>2021-08-24T10:56:47Z</time>
      </trkpt>
      <trkpt lat="45.30971" lon="3.01784">
        <ele>1160.2</ele>
        <time>2021-08-24T10:56:49Z</time>
      </trkpt>
      <trkpt lat="45.30977" lon="3.01783">
        <ele>1160.6</ele>
        <time>2021-08-24T10:56:51Z</time>
      </trkpt>
      <trkpt lat="45.30982" lon="3.01781">
        <ele>1161.3</ele>
        <time>2021-08-24T10:56:53Z</time>
      </trkpt>
      <trkpt lat="45.30988" lon="3.0178">
        <ele>1161.9</ele>
        <time>2021-08-24T10:56:55Z</time>
      </trkpt>
      <trkpt lat="45.30994" lon="3.01778">
        <ele>1162.6</ele>
        <time>2021-08-24T10:56:57Z</time>
      </trkpt>
      <trkpt lat="45.31001" lon="3.01778">
        <ele>1163</ele>
        <time>2021-08-24T10:56:59Z</time>
      </trkpt>
      <trkpt lat="45.31008" lon="3.01777">
        <ele>1162.7</ele>
        <time>2021-08-24T10:57:01Z</time>
      </trkpt>
      <trkpt lat="45.31014" lon="3.01776">
        <ele>1162.5</ele>
        <time>2021-08-24T10:57:03Z</time>
      </trkpt>
      <trkpt lat="45.31021" lon="3.01774">
        <ele>1162.3</ele>
        <time>2021-08-24T10:57:05Z</time>
      </trkpt>
      <trkpt lat="45.31029" lon="3.01773">
        <ele>1162.1</ele>
        <time>2021-08-24T10:57:07Z</time>
      </trkpt>
      <trkpt lat="45.31036" lon="3.01772">
        <ele>1161.9</ele>
        <time>2021-08-24T10:57:09Z</time>
      </trkpt>
      <trkpt lat="45.31043" lon="3.01772">
        <ele>1161.5</ele>
        <time>2021-08-24T10:57:11Z</time>
      </trkpt>
      <trkpt lat="45.31051" lon="3.0177">
        <ele>1161.3</ele>
        <time>2021-08-24T10:57:13Z</time>
      </trkpt>
      <trkpt lat="45.31059" lon="3.01769">
        <ele>1161</ele>
        <time>2021-08-24T10:57:15Z</time>
      </trkpt>
      <trkpt lat="45.31066" lon="3.01768">
        <ele>1160.8</ele>
        <time>2021-08-24T10:57:17Z</time>
      </trkpt>
      <trkpt lat="45.31074" lon="3.01766">
        <ele>1160.5</ele>
        <time>2021-08-24T10:57:19Z</time>
      </trkpt>
      <trkpt lat="45.31081" lon="3.01765">
        <ele>1160.2</ele>
        <time>2021-08-24T10:57:21Z</time>
      </trkpt>
      <trkpt lat="45.31088" lon="3.01763">
        <ele>1160.1</ele>
        <time>2021-08-24T10:57:23Z</time>
      </trkpt>
      <trkpt lat="45.31095" lon="3.01759">
        <ele>1160.1</ele>
        <time>2021-08-24T10:57:25Z</time>
      </trkpt>
      <trkpt lat="45.31102" lon="3.01755">
        <ele>1160.1</ele>
        <time>2021-08-24T10:57:27Z</time>
      </trkpt>
      <trkpt lat="45.3111" lon="3.01751">
        <ele>1160.1</ele>
        <time>2021-08-24T10:57:29Z</time>
      </trkpt>
      <trkpt lat="45.31117" lon="3.01746">
        <ele>1160.4</ele>
        <time>2021-08-24T10:57:31Z</time>
      </trkpt>
      <trkpt lat="45.31125" lon="3.01743">
        <ele>1160.3</ele>
        <time>2021-08-24T10:57:33Z</time>
      </trkpt>
      <trkpt lat="45.31133" lon="3.01738">
        <ele>1160.4</ele>
        <time>2021-08-24T10:57:35Z</time>
      </trkpt>
      <trkpt lat="45.31141" lon="3.01733">
        <ele>1160.8</ele>
        <time>2021-08-24T10:57:37Z</time>
      </trkpt>
      <trkpt lat="45.31149" lon="3.01729">
        <ele>1160.8</ele>
        <time>2021-08-24T10:57:39Z</time>
      </trkpt>
      <trkpt lat="45.31158" lon="3.01723">
        <ele>1161.1</ele>
        <time>2021-08-24T10:57:41Z</time>
      </trkpt>
      <trkpt lat="45.31166" lon="3.01719">
        <ele>1161.2</ele>
        <time>2021-08-24T10:57:43Z</time>
      </trkpt>
      <trkpt lat="45.31175" lon="3.01714">
        <ele>1162.9</ele>
        <time>2021-08-24T10:57:45Z</time>
      </trkpt>
      <trkpt lat="45.31185" lon="3.01711">
        <ele>1164.3</ele>
        <time>2021-08-24T10:57:47Z</time>
      </trkpt>
      <trkpt lat="45.31195" lon="3.01711">
        <ele>1164.9</ele>
        <time>2021-08-24T10:57:49Z</time>
      </trkpt>
      <trkpt lat="45.31204" lon="3.0172">
        <ele>1163.8</ele>
        <time>2021-08-24T10:57:51Z</time>
      </trkpt>
      <trkpt lat="45.31208" lon="3.01733">
        <ele>1161.4</ele>
        <time>2021-08-24T10:57:53Z</time>
      </trkpt>
      <trkpt lat="45.31213" lon="3.01747">
        <ele>1159.1</ele>
        <time>2021-08-24T10:57:55Z</time>
      </trkpt>
      <trkpt lat="45.31218" lon="3.01759">
        <ele>1157.8</ele>
        <time>2021-08-24T10:57:57Z</time>
      </trkpt>
      <trkpt lat="45.31225" lon="3.01769">
        <ele>1157.1</ele>
        <time>2021-08-24T10:57:59Z</time>
      </trkpt>
      <trkpt lat="45.31233" lon="3.01777">
        <ele>1156.7</ele>
        <time>2021-08-24T10:58:01Z</time>
      </trkpt>
      <trkpt lat="45.31242" lon="3.01782">
        <ele>1156.7</ele>
        <time>2021-08-24T10:58:03Z</time>
      </trkpt>
      <trkpt lat="45.31251" lon="3.01784">
        <ele>1157.1</ele>
        <time>2021-08-24T10:58:05Z</time>
      </trkpt>
      <trkpt lat="45.31261" lon="3.01783">
        <ele>1157.9</ele>
        <time>2021-08-24T10:58:07Z</time>
      </trkpt>
      <trkpt lat="45.3127" lon="3.01781">
        <ele>1158.8</ele>
        <time>2021-08-24T10:58:09Z</time>
      </trkpt>
      <trkpt lat="45.3128" lon="3.01778">
        <ele>1159.8</ele>
        <time>2021-08-24T10:58:11Z</time>
      </trkpt>
      <trkpt lat="45.3129" lon="3.01776">
        <ele>1160.9</ele>
        <time>2021-08-24T10:58:13Z</time>
      </trkpt>
      <trkpt lat="45.313" lon="3.01774">
        <ele>1162</ele>
        <time>2021-08-24T10:58:15Z</time>
      </trkpt>
      <trkpt lat="45.3131" lon="3.01772">
        <ele>1163</ele>
        <time>2021-08-24T10:58:17Z</time>
      </trkpt>
      <trkpt lat="45.3132" lon="3.01772">
        <ele>1163.9</ele>
        <time>2021-08-24T10:58:19Z</time>
      </trkpt>
      <trkpt lat="45.3133" lon="3.01772">
        <ele>1164.4</ele>
        <time>2021-08-24T10:58:21Z</time>
      </trkpt>
      <trkpt lat="45.3134" lon="3.01774">
        <ele>1165.4</ele>
        <time>2021-08-24T10:58:23Z</time>
      </trkpt>
      <trkpt lat="45.3135" lon="3.01775">
        <ele>1166.6</ele>
        <time>2021-08-24T10:58:25Z</time>
      </trkpt>
      <trkpt lat="45.31361" lon="3.01777">
        <ele>1167.7</ele>
        <time>2021-08-24T10:58:27Z</time>
      </trkpt>
      <trkpt lat="45.31371" lon="3.01779">
        <ele>1168.9</ele>
        <time>2021-08-24T10:58:29Z</time>
      </trkpt>
      <trkpt lat="45.31382" lon="3.01782">
        <ele>1169.7</ele>
        <time>2021-08-24T10:58:31Z</time>
      </trkpt>
      <trkpt lat="45.31392" lon="3.01786">
        <ele>1170</ele>
        <time>2021-08-24T10:58:33Z</time>
      </trkpt>
      <trkpt lat="45.31402" lon="3.01792">
        <ele>1169.7</ele>
        <time>2021-08-24T10:58:35Z</time>
      </trkpt>
      <trkpt lat="45.31411" lon="3.01799">
        <ele>1169</ele>
        <time>2021-08-24T10:58:37Z</time>
      </trkpt>
      <trkpt lat="45.3142" lon="3.01807">
        <ele>1168.5</ele>
        <time>2021-08-24T10:58:39Z</time>
      </trkpt>
      <trkpt lat="45.31429" lon="3.01818">
        <ele>1168.6</ele>
        <time>2021-08-24T10:58:41Z</time>
      </trkpt>
      <trkpt lat="45.31436" lon="3.01828">
        <ele>1167.9</ele>
        <time>2021-08-24T10:58:43Z</time>
      </trkpt>
      <trkpt lat="45.31443" lon="3.0184">
        <ele>1166.9</ele>
        <time>2021-08-24T10:58:45Z</time>
      </trkpt>
      <trkpt lat="45.3145" lon="3.01852">
        <ele>1166.4</ele>
        <time>2021-08-24T10:58:47Z</time>
      </trkpt>
      <trkpt lat="45.31456" lon="3.01862">
        <ele>1165.5</ele>
        <time>2021-08-24T10:58:49Z</time>
      </trkpt>
      <trkpt lat="45.31462" lon="3.01873">
        <ele>1164.5</ele>
        <time>2021-08-24T10:58:51Z</time>
      </trkpt>
      <trkpt lat="45.31468" lon="3.01884">
        <ele>1163.5</ele>
        <time>2021-08-24T10:58:53Z</time>
      </trkpt>
      <trkpt lat="45.31474" lon="3.01895">
        <ele>1162.5</ele>
        <time>2021-08-24T10:58:55Z</time>
      </trkpt>
      <trkpt lat="45.31482" lon="3.01903">
        <ele>1162.5</ele>
        <time>2021-08-24T10:58:57Z</time>
      </trkpt>
      <trkpt lat="45.3149" lon="3.01911">
        <ele>1162.4</ele>
        <time>2021-08-24T10:58:59Z</time>
      </trkpt>
      <trkpt lat="45.31498" lon="3.01918">
        <ele>1163.2</ele>
        <time>2021-08-24T10:59:01Z</time>
      </trkpt>
      <trkpt lat="45.31506" lon="3.01924">
        <ele>1164.3</ele>
        <time>2021-08-24T10:59:03Z</time>
      </trkpt>
      <trkpt lat="45.31514" lon="3.0193">
        <ele>1165.4</ele>
        <time>2021-08-24T10:59:05Z</time>
      </trkpt>
      <trkpt lat="45.31522" lon="3.01937">
        <ele>1166.6</ele>
        <time>2021-08-24T10:59:07Z</time>
      </trkpt>
      <trkpt lat="45.31529" lon="3.01944">
        <ele>1167.5</ele>
        <time>2021-08-24T10:59:09Z</time>
      </trkpt>
      <trkpt lat="45.31534" lon="3.01951">
        <ele>1167.5</ele>
        <time>2021-08-24T10:59:11Z</time>
      </trkpt>
      <trkpt lat="45.31536" lon="3.01955">
        <ele>1167.2</ele>
        <time>2021-08-24T10:59:13Z</time>
      </trkpt>
      <trkpt lat="45.31538" lon="3.01958">
        <ele>1167.4</ele>
        <time>2021-08-24T10:59:15Z</time>
      </trkpt>
      <trkpt lat="45.3154" lon="3.01956">
        <ele>1168.5</ele>
        <time>2021-08-24T10:59:17Z</time>
      </trkpt>
      <trkpt lat="45.31544" lon="3.01953">
        <ele>1170.3</ele>
        <time>2021-08-24T10:59:19Z</time>
      </trkpt>
      <trkpt lat="45.31546" lon="3.01954">
        <ele>1170.8</ele>
        <time>2021-08-24T10:59:21Z</time>
      </trkpt>
      <trkpt lat="45.31546" lon="3.01954">
        <ele>1170.6</ele>
        <time>2021-08-24T10:59:23Z</time>
      </trkpt>
      <trkpt lat="45.31545" lon="3.01953">
        <ele>1170.6</ele>
        <time>2021-08-24T10:59:25Z</time>
      </trkpt>
      <trkpt lat="45.31546" lon="3.01953">
        <ele>1170.8</ele>
        <time>2021-08-24T10:59:27Z</time>
      </trkpt>
      <trkpt lat="45.31546" lon="3.01954">
        <ele>1170.8</ele>
        <time>2021-08-24T10:59:29Z</time>
      </trkpt>
      <trkpt lat="45.31537" lon="3.01971">
        <ele>1164.4</ele>
        <time>2021-08-24T13:10:05Z</time>
      </trkpt>
      <trkpt lat="45.31539" lon="3.01978">
        <ele>1163.7</ele>
        <time>2021-08-24T13:10:07Z</time>
      </trkpt>
      <trkpt lat="45.31539" lon="3.01986">
        <ele>1162.4</ele>
        <time>2021-08-24T13:10:09Z</time>
      </trkpt>
      <trkpt lat="45.31539" lon="3.01996">
        <ele>1160.2</ele>
        <time>2021-08-24T13:10:11Z</time>
      </trkpt>
      <trkpt lat="45.31536" lon="3.02004">
        <ele>1159</ele>
        <time>2021-08-24T13:10:13Z</time>
      </trkpt>
      <trkpt lat="45.31535" lon="3.02011">
        <ele>1159.1</ele>
        <time>2021-08-24T13:10:15Z</time>
      </trkpt>
      <trkpt lat="45.31539" lon="3.02007">
        <ele>1160.2</ele>
        <time>2021-08-24T13:10:17Z</time>
      </trkpt>
      <trkpt lat="45.3154" lon="3.02">
        <ele>1160</ele>
        <time>2021-08-24T13:10:19Z</time>
      </trkpt>
      <trkpt lat="45.31541" lon="3.01993">
        <ele>1161.7</ele>
        <time>2021-08-24T13:10:21Z</time>
      </trkpt>
      <trkpt lat="45.31542" lon="3.01987">
        <ele>1163</ele>
        <time>2021-08-24T13:10:23Z</time>
      </trkpt>
      <trkpt lat="45.31542" lon="3.01982">
        <ele>1164</ele>
        <time>2021-08-24T13:10:25Z</time>
      </trkpt>
      <trkpt lat="45.31541" lon="3.01977">
        <ele>1164.8</ele>
        <time>2021-08-24T13:10:27Z</time>
      </trkpt>
      <trkpt lat="45.31541" lon="3.01972">
        <ele>1165.7</ele>
        <time>2021-08-24T13:10:29Z</time>
      </trkpt>
      <trkpt lat="45.3154" lon="3.01968">
        <ele>1166.2</ele>
        <time>2021-08-24T13:10:31Z</time>
      </trkpt>
      <trkpt lat="45.31539" lon="3.01963">
        <ele>1166.7</ele>
        <time>2021-08-24T13:10:33Z</time>
      </trkpt>
      <trkpt lat="45.31537" lon="3.01958">
        <ele>1167.2</ele>
        <time>2021-08-24T13:10:35Z</time>
      </trkpt>
      <trkpt lat="45.31538" lon="3.01955">
        <ele>1167.9</ele>
        <time>2021-08-24T13:10:37Z</time>
      </trkpt>
      <trkpt lat="45.3154" lon="3.01953">
        <ele>1169.1</ele>
        <time>2021-08-24T13:10:39Z</time>
      </trkpt>
      <trkpt lat="45.31543" lon="3.01953">
        <ele>1170</ele>
        <time>2021-08-24T13:10:41Z</time>
      </trkpt>
      <trkpt lat="45.31544" lon="3.01953">
        <ele>1170.3</ele>
        <time>2021-08-24T13:10:43Z</time>
      </trkpt>
      <trkpt lat="45.31544" lon="3.01953">
        <ele>1170.2</ele>
        <time>2021-08-24T13:10:45Z</time>
      </trkpt>
      <trkpt lat="45.31544" lon="3.01953">
        <ele>1170.2</ele>
        <time>2021-08-24T13:10:47Z</time>
      </trkpt>
      <trkpt lat="45.31544" lon="3.01953">
        <ele>1170.2</ele>
        <time>2021-08-24T13:10:49Z</time>
      </trkpt>
      <trkpt lat="45.3154" lon="3.01981">
        <ele>1163.5</ele>
        <time>2021-08-24T13:46:35Z</time>
      </trkpt>
      <trkpt lat="45.3154" lon="3.01987">
        <ele>1162.5</ele>
        <time>2021-08-24T13:46:37Z</time>
      </trkpt>
      <trkpt lat="45.31539" lon="3.01995">
        <ele>1160.6</ele>
        <time>2021-08-24T13:46:39Z</time>
      </trkpt>
      <trkpt lat="45.31537" lon="3.02002">
        <ele>1159.2</ele>
        <time>2021-08-24T13:46:41Z</time>
      </trkpt>
      <trkpt lat="45.31534" lon="3.02009">
        <ele>1158.9</ele>
        <time>2021-08-24T13:46:43Z</time>
      </trkpt>
      <trkpt lat="45.3153" lon="3.02014">
        <ele>1158.1</ele>
        <time>2021-08-24T13:46:45Z</time>
      </trkpt>
      <trkpt lat="45.31527" lon="3.02019">
        <ele>1157.5</ele>
        <time>2021-08-24T13:46:47Z</time>
      </trkpt>
      <trkpt lat="45.31524" lon="3.02025">
        <ele>1156.9</ele>
        <time>2021-08-24T13:46:49Z</time>
      </trkpt>
      <trkpt lat="45.3152" lon="3.02032">
        <ele>1156.2</ele>
        <time>2021-08-24T13:46:51Z</time>
      </trkpt>
      <trkpt lat="45.31517" lon="3.02039">
        <ele>1155.8</ele>
        <time>2021-08-24T13:46:53Z</time>
      </trkpt>
      <trkpt lat="45.31515" lon="3.02047">
        <ele>1155.8</ele>
        <time>2021-08-24T13:46:55Z</time>
      </trkpt>
      <trkpt lat="45.31512" lon="3.02055">
        <ele>1155.7</ele>
        <time>2021-08-24T13:46:57Z</time>
      </trkpt>
      <trkpt lat="45.3151" lon="3.02062">
        <ele>1155.6</ele>
        <time>2021-08-24T13:46:59Z</time>
      </trkpt>
      <trkpt lat="45.31508" lon="3.0207">
        <ele>1155.4</ele>
        <time>2021-08-24T13:47:01Z</time>
      </trkpt>
      <trkpt lat="45.31505" lon="3.02077">
        <ele>1155.1</ele>
        <time>2021-08-24T13:47:03Z</time>
      </trkpt>
      <trkpt lat="45.31502" lon="3.02084">
        <ele>1154.6</ele>
        <time>2021-08-24T13:47:05Z</time>
      </trkpt>
      <trkpt lat="45.31498" lon="3.0209">
        <ele>1154.5</ele>
        <time>2021-08-24T13:47:07Z</time>
      </trkpt>
      <trkpt lat="45.31495" lon="3.02095">
        <ele>1154.7</ele>
        <time>2021-08-24T13:47:09Z</time>
      </trkpt>
      <trkpt lat="45.31493" lon="3.02101">
        <ele>1155.1</ele>
        <time>2021-08-24T13:47:11Z</time>
      </trkpt>
      <trkpt lat="45.3149" lon="3.02108">
        <ele>1155.4</ele>
        <time>2021-08-24T13:47:13Z</time>
      </trkpt>
      <trkpt lat="45.31486" lon="3.02114">
        <ele>1155.6</ele>
        <time>2021-08-24T13:47:15Z</time>
      </trkpt>
      <trkpt lat="45.31484" lon="3.02121">
        <ele>1155.9</ele>
        <time>2021-08-24T13:47:17Z</time>
      </trkpt>
      <trkpt lat="45.31481" lon="3.02127">
        <ele>1156.3</ele>
        <time>2021-08-24T13:47:19Z</time>
      </trkpt>
      <trkpt lat="45.31478" lon="3.02133">
        <ele>1156.8</ele>
        <time>2021-08-24T13:47:21Z</time>
      </trkpt>
      <trkpt lat="45.31476" lon="3.0214">
        <ele>1157.3</ele>
        <time>2021-08-24T13:47:23Z</time>
      </trkpt>
      <trkpt lat="45.31473" lon="3.02146">
        <ele>1157.6</ele>
        <time>2021-08-24T13:47:25Z</time>
      </trkpt>
      <trkpt lat="45.3147" lon="3.02152">
        <ele>1157.8</ele>
        <time>2021-08-24T13:47:27Z</time>
      </trkpt>
      <trkpt lat="45.31467" lon="3.02157">
        <ele>1158</ele>
        <time>2021-08-24T13:47:29Z</time>
      </trkpt>
      <trkpt lat="45.31464" lon="3.02163">
        <ele>1158.1</ele>
        <time>2021-08-24T13:47:31Z</time>
      </trkpt>
      <trkpt lat="45.3146" lon="3.02168">
        <ele>1157.9</ele>
        <time>2021-08-24T13:47:33Z</time>
      </trkpt>
      <trkpt lat="45.31456" lon="3.02173">
        <ele>1157.4</ele>
        <time>2021-08-24T13:47:35Z</time>
      </trkpt>
      <trkpt lat="45.31452" lon="3.02178">
        <ele>1157.1</ele>
        <time>2021-08-24T13:47:37Z</time>
      </trkpt>
      <trkpt lat="45.31448" lon="3.02183">
        <ele>1156.7</ele>
        <time>2021-08-24T13:47:39Z</time>
      </trkpt>
      <trkpt lat="45.31445" lon="3.02187">
        <ele>1156.3</ele>
        <time>2021-08-24T13:47:41Z</time>
      </trkpt>
      <trkpt lat="45.31441" lon="3.02192">
        <ele>1156</ele>
        <time>2021-08-24T13:47:43Z</time>
      </trkpt>
      <trkpt lat="45.31437" lon="3.02196">
        <ele>1155.7</ele>
        <time>2021-08-24T13:47:45Z</time>
      </trkpt>
      <trkpt lat="45.31433" lon="3.02202">
        <ele>1155.6</ele>
        <time>2021-08-24T13:47:47Z</time>
      </trkpt>
      <trkpt lat="45.3143" lon="3.02207">
        <ele>1155.5</ele>
        <time>2021-08-24T13:47:49Z</time>
      </trkpt>
      <trkpt lat="45.31426" lon="3.02212">
        <ele>1155.4</ele>
        <time>2021-08-24T13:47:51Z</time>
      </trkpt>
      <trkpt lat="45.31423" lon="3.02217">
        <ele>1155.3</ele>
        <time>2021-08-24T13:47:53Z</time>
      </trkpt>
      <trkpt lat="45.31419" lon="3.02221">
        <ele>1155.2</ele>
        <time>2021-08-24T13:47:55Z</time>
      </trkpt>
      <trkpt lat="45.31416" lon="3.02227">
        <ele>1155.3</ele>
        <time>2021-08-24T13:47:57Z</time>
      </trkpt>
      <trkpt lat="45.31412" lon="3.02232">
        <ele>1155.3</ele>
        <time>2021-08-24T13:47:59Z</time>
      </trkpt>
      <trkpt lat="45.31409" lon="3.02238">
        <ele>1155.5</ele>
        <time>2021-08-24T13:48:01Z</time>
      </trkpt>
      <trkpt lat="45.31406" lon="3.02243">
        <ele>1155.7</ele>
        <time>2021-08-24T13:48:03Z</time>
      </trkpt>
      <trkpt lat="45.31403" lon="3.0225">
        <ele>1156.1</ele>
        <time>2021-08-24T13:48:05Z</time>
      </trkpt>
      <trkpt lat="45.31401" lon="3.02256">
        <ele>1155.3</ele>
        <time>2021-08-24T13:48:07Z</time>
      </trkpt>
      <trkpt lat="45.314" lon="3.02263">
        <ele>1154.9</ele>
        <time>2021-08-24T13:48:09Z</time>
      </trkpt>
      <trkpt lat="45.314" lon="3.0227">
        <ele>1154.7</ele>
        <time>2021-08-24T13:48:11Z</time>
      </trkpt>
      <trkpt lat="45.31402" lon="3.02277">
        <ele>1154.9</ele>
        <time>2021-08-24T13:48:13Z</time>
      </trkpt>
      <trkpt lat="45.31405" lon="3.02284">
        <ele>1155.4</ele>
        <time>2021-08-24T13:48:15Z</time>
      </trkpt>
      <trkpt lat="45.31408" lon="3.0229">
        <ele>1156</ele>
        <time>2021-08-24T13:48:17Z</time>
      </trkpt>
      <trkpt lat="45.31412" lon="3.02295">
        <ele>1156.6</ele>
        <time>2021-08-24T13:48:19Z</time>
      </trkpt>
      <trkpt lat="45.31415" lon="3.02301">
        <ele>1157.2</ele>
        <time>2021-08-24T13:48:21Z</time>
      </trkpt>
      <trkpt lat="45.3142" lon="3.02306">
        <ele>1158.1</ele>
        <time>2021-08-24T13:48:23Z</time>
      </trkpt>
      <trkpt lat="45.31424" lon="3.0231">
        <ele>1159</ele>
        <time>2021-08-24T13:48:25Z</time>
      </trkpt>
      <trkpt lat="45.31429" lon="3.02314">
        <ele>1159.8</ele>
        <time>2021-08-24T13:48:27Z</time>
      </trkpt>
      <trkpt lat="45.31433" lon="3.02318">
        <ele>1160.5</ele>
        <time>2021-08-24T13:48:29Z</time>
      </trkpt>
      <trkpt lat="45.31437" lon="3.02322">
        <ele>1161.4</ele>
        <time>2021-08-24T13:48:31Z</time>
      </trkpt>
      <trkpt lat="45.31442" lon="3.02325">
        <ele>1162.2</ele>
        <time>2021-08-24T13:48:33Z</time>
      </trkpt>
      <trkpt lat="45.31446" lon="3.02328">
        <ele>1163.1</ele>
        <time>2021-08-24T13:48:35Z</time>
      </trkpt>
      <trkpt lat="45.31451" lon="3.02331">
        <ele>1164</ele>
        <time>2021-08-24T13:48:37Z</time>
      </trkpt>
      <trkpt lat="45.31456" lon="3.02333">
        <ele>1164.9</ele>
        <time>2021-08-24T13:48:39Z</time>
      </trkpt>
      <trkpt lat="45.3146" lon="3.02335">
        <ele>1165.6</ele>
        <time>2021-08-24T13:48:41Z</time>
      </trkpt>
      <trkpt lat="45.31465" lon="3.02338">
        <ele>1166.2</ele>
        <time>2021-08-24T13:48:43Z</time>
      </trkpt>
      <trkpt lat="45.31471" lon="3.0234">
        <ele>1167</ele>
        <time>2021-08-24T13:48:45Z</time>
      </trkpt>
      <trkpt lat="45.31476" lon="3.02342">
        <ele>1167.8</ele>
        <time>2021-08-24T13:48:47Z</time>
      </trkpt>
      <trkpt lat="45.31481" lon="3.02346">
        <ele>1168.2</ele>
        <time>2021-08-24T13:48:49Z</time>
      </trkpt>
      <trkpt lat="45.31485" lon="3.02349">
        <ele>1168.6</ele>
        <time>2021-08-24T13:48:51Z</time>
      </trkpt>
      <trkpt lat="45.3149" lon="3.02353">
        <ele>1169</ele>
        <time>2021-08-24T13:48:53Z</time>
      </trkpt>
      <trkpt lat="45.31495" lon="3.02357">
        <ele>1169.5</ele>
        <time>2021-08-24T13:48:55Z</time>
      </trkpt>
      <trkpt lat="45.31499" lon="3.0236">
        <ele>1170</ele>
        <time>2021-08-24T13:48:57Z</time>
      </trkpt>
      <trkpt lat="45.31504" lon="3.02364">
        <ele>1170.8</ele>
        <time>2021-08-24T13:48:59Z</time>
      </trkpt>
      <trkpt lat="45.31508" lon="3.02368">
        <ele>1171.4</ele>
        <time>2021-08-24T13:49:01Z</time>
      </trkpt>
      <trkpt lat="45.31513" lon="3.02372">
        <ele>1172.1</ele>
        <time>2021-08-24T13:49:03Z</time>
      </trkpt>
      <trkpt lat="45.31518" lon="3.02376">
        <ele>1173.1</ele>
        <time>2021-08-24T13:49:05Z</time>
      </trkpt>
      <trkpt lat="45.31523" lon="3.0238">
        <ele>1174</ele>
        <time>2021-08-24T13:49:07Z</time>
      </trkpt>
      <trkpt lat="45.31528" lon="3.02383">
        <ele>1174.9</ele>
        <time>2021-08-24T13:49:09Z</time>
      </trkpt>
      <trkpt lat="45.31532" lon="3.02388">
        <ele>1175.5</ele>
        <time>2021-08-24T13:49:11Z</time>
      </trkpt>
      <trkpt lat="45.31537" lon="3.02392">
        <ele>1176.3</ele>
        <time>2021-08-24T13:49:13Z</time>
      </trkpt>
      <trkpt lat="45.31541" lon="3.02396">
        <ele>1176.9</ele>
        <time>2021-08-24T13:49:15Z</time>
      </trkpt>
      <trkpt lat="45.31545" lon="3.024">
        <ele>1177.6</ele>
        <time>2021-08-24T13:49:17Z</time>
      </trkpt>
      <trkpt lat="45.3155" lon="3.02405">
        <ele>1178.1</ele>
        <time>2021-08-24T13:49:19Z</time>
      </trkpt>
      <trkpt lat="45.31554" lon="3.02409">
        <ele>1178.8</ele>
        <time>2021-08-24T13:49:21Z</time>
      </trkpt>
      <trkpt lat="45.31557" lon="3.02414">
        <ele>1178.9</ele>
        <time>2021-08-24T13:49:23Z</time>
      </trkpt>
      <trkpt lat="45.31561" lon="3.02419">
        <ele>1179.3</ele>
        <time>2021-08-24T13:49:25Z</time>
      </trkpt>
      <trkpt lat="45.31564" lon="3.02425">
        <ele>1179.7</ele>
        <time>2021-08-24T13:49:27Z</time>
      </trkpt>
      <trkpt lat="45.31566" lon="3.02431">
        <ele>1179.7</ele>
        <time>2021-08-24T13:49:29Z</time>
      </trkpt>
      <trkpt lat="45.31568" lon="3.02437">
        <ele>1179.7</ele>
        <time>2021-08-24T13:49:31Z</time>
      </trkpt>
      <trkpt lat="45.3157" lon="3.02443">
        <ele>1179.5</ele>
        <time>2021-08-24T13:49:33Z</time>
      </trkpt>
      <trkpt lat="45.31572" lon="3.0245">
        <ele>1179.5</ele>
        <time>2021-08-24T13:49:35Z</time>
      </trkpt>
      <trkpt lat="45.31574" lon="3.02456">
        <ele>1179.2</ele>
        <time>2021-08-24T13:49:37Z</time>
      </trkpt>
      <trkpt lat="45.31576" lon="3.02463">
        <ele>1178.8</ele>
        <time>2021-08-24T13:49:39Z</time>
      </trkpt>
      <trkpt lat="45.31577" lon="3.0247">
        <ele>1178.4</ele>
        <time>2021-08-24T13:49:41Z</time>
      </trkpt>
      <trkpt lat="45.31578" lon="3.02477">
        <ele>1178</ele>
        <time>2021-08-24T13:49:43Z</time>
      </trkpt>
      <trkpt lat="45.31579" lon="3.02484">
        <ele>1177.6</ele>
        <time>2021-08-24T13:49:45Z</time>
      </trkpt>
      <trkpt lat="45.3158" lon="3.02491">
        <ele>1176.8</ele>
        <time>2021-08-24T13:49:47Z</time>
      </trkpt>
      <trkpt lat="45.3158" lon="3.02498">
        <ele>1176.1</ele>
        <time>2021-08-24T13:49:49Z</time>
      </trkpt>
      <trkpt lat="45.31581" lon="3.02504">
        <ele>1176.1</ele>
        <time>2021-08-24T13:49:51Z</time>
      </trkpt>
      <trkpt lat="45.31581" lon="3.02512">
        <ele>1176.1</ele>
        <time>2021-08-24T13:49:53Z</time>
      </trkpt>
      <trkpt lat="45.31581" lon="3.02518">
        <ele>1176.3</ele>
        <time>2021-08-24T13:49:55Z</time>
      </trkpt>
      <trkpt lat="45.31582" lon="3.02525">
        <ele>1176.4</ele>
        <time>2021-08-24T13:49:57Z</time>
      </trkpt>
      <trkpt lat="45.31581" lon="3.02532">
        <ele>1176.4</ele>
        <time>2021-08-24T13:49:59Z</time>
      </trkpt>
      <trkpt lat="45.31581" lon="3.02539">
        <ele>1176.3</ele>
        <time>2021-08-24T13:50:01Z</time>
      </trkpt>
      <trkpt lat="45.31582" lon="3.02546">
        <ele>1176.5</ele>
        <time>2021-08-24T13:50:03Z</time>
      </trkpt>
      <trkpt lat="45.31582" lon="3.02553">
        <ele>1176.7</ele>
        <time>2021-08-24T13:50:05Z</time>
      </trkpt>
      <trkpt lat="45.31583" lon="3.0256">
        <ele>1176.9</ele>
        <time>2021-08-24T13:50:07Z</time>
      </trkpt>
      <trkpt lat="45.31583" lon="3.02567">
        <ele>1176.9</ele>
        <time>2021-08-24T13:50:09Z</time>
      </trkpt>
      <trkpt lat="45.31583" lon="3.02574">
        <ele>1177</ele>
        <time>2021-08-24T13:50:11Z</time>
      </trkpt>
      <trkpt lat="45.31584" lon="3.02581">
        <ele>1177.1</ele>
        <time>2021-08-24T13:50:13Z</time>
      </trkpt>
      <trkpt lat="45.31584" lon="3.02588">
        <ele>1177.3</ele>
        <time>2021-08-24T13:50:15Z</time>
      </trkpt>
      <trkpt lat="45.31584" lon="3.02594">
        <ele>1177.5</ele>
        <time>2021-08-24T13:50:17Z</time>
      </trkpt>
      <trkpt lat="45.31585" lon="3.02601">
        <ele>1177.6</ele>
        <time>2021-08-24T13:50:19Z</time>
      </trkpt>
      <trkpt lat="45.31584" lon="3.02608">
        <ele>1177.6</ele>
        <time>2021-08-24T13:50:21Z</time>
      </trkpt>
      <trkpt lat="45.31584" lon="3.02615">
        <ele>1177.8</ele>
        <time>2021-08-24T13:50:23Z</time>
      </trkpt>
      <trkpt lat="45.31585" lon="3.02623">
        <ele>1177.9</ele>
        <time>2021-08-24T13:50:25Z</time>
      </trkpt>
      <trkpt lat="45.31585" lon="3.02629">
        <ele>1178.1</ele>
        <time>2021-08-24T13:50:27Z</time>
      </trkpt>
      <trkpt lat="45.31586" lon="3.02636">
        <ele>1178.4</ele>
        <time>2021-08-24T13:50:29Z</time>
      </trkpt>
      <trkpt lat="45.31586" lon="3.02644">
        <ele>1178.4</ele>
        <time>2021-08-24T13:50:31Z</time>
      </trkpt>
      <trkpt lat="45.31586" lon="3.02651">
        <ele>1178.6</ele>
        <time>2021-08-24T13:50:33Z</time>
      </trkpt>
      <trkpt lat="45.31587" lon="3.02658">
        <ele>1178.9</ele>
        <time>2021-08-24T13:50:35Z</time>
      </trkpt>
      <trkpt lat="45.31587" lon="3.02664">
        <ele>1178.9</ele>
        <time>2021-08-24T13:50:37Z</time>
      </trkpt>
      <trkpt lat="45.31587" lon="3.0267">
        <ele>1178.9</ele>
        <time>2021-08-24T13:50:39Z</time>
      </trkpt>
      <trkpt lat="45.31588" lon="3.02677">
        <ele>1179.1</ele>
        <time>2021-08-24T13:50:41Z</time>
      </trkpt>
      <trkpt lat="45.31589" lon="3.02683">
        <ele>1179.4</ele>
        <time>2021-08-24T13:50:43Z</time>
      </trkpt>
      <trkpt lat="45.31589" lon="3.02689">
        <ele>1179.5</ele>
        <time>2021-08-24T13:50:45Z</time>
      </trkpt>
      <trkpt lat="45.3159" lon="3.02695">
        <ele>1179.8</ele>
        <time>2021-08-24T13:50:47Z</time>
      </trkpt>
      <trkpt lat="45.31592" lon="3.02701">
        <ele>1180.1</ele>
        <time>2021-08-24T13:50:49Z</time>
      </trkpt>
      <trkpt lat="45.31593" lon="3.02707">
        <ele>1180.3</ele>
        <time>2021-08-24T13:50:51Z</time>
      </trkpt>
      <trkpt lat="45.31595" lon="3.02713">
        <ele>1180.6</ele>
        <time>2021-08-24T13:50:53Z</time>
      </trkpt>
      <trkpt lat="45.31597" lon="3.02719">
        <ele>1180.9</ele>
        <time>2021-08-24T13:50:55Z</time>
      </trkpt>
      <trkpt lat="45.31598" lon="3.02725">
        <ele>1181</ele>
        <time>2021-08-24T13:50:57Z</time>
      </trkpt>
      <trkpt lat="45.316" lon="3.0273">
        <ele>1181.3</ele>
        <time>2021-08-24T13:50:59Z</time>
      </trkpt>
      <trkpt lat="45.31601" lon="3.02736">
        <ele>1181.4</ele>
        <time>2021-08-24T13:51:01Z</time>
      </trkpt>
      <trkpt lat="45.31603" lon="3.02742">
        <ele>1181.5</ele>
        <time>2021-08-24T13:51:03Z</time>
      </trkpt>
      <trkpt lat="45.31604" lon="3.02748">
        <ele>1181.6</ele>
        <time>2021-08-24T13:51:05Z</time>
      </trkpt>
      <trkpt lat="45.31606" lon="3.02753">
        <ele>1181.9</ele>
        <time>2021-08-24T13:51:07Z</time>
      </trkpt>
      <trkpt lat="45.31608" lon="3.02758">
        <ele>1182</ele>
        <time>2021-08-24T13:51:09Z</time>
      </trkpt>
      <trkpt lat="45.31609" lon="3.02764">
        <ele>1182.1</ele>
        <time>2021-08-24T13:51:11Z</time>
      </trkpt>
      <trkpt lat="45.3161" lon="3.0277">
        <ele>1182.3</ele>
        <time>2021-08-24T13:51:13Z</time>
      </trkpt>
      <trkpt lat="45.31612" lon="3.02775">
        <ele>1182.5</ele>
        <time>2021-08-24T13:51:15Z</time>
      </trkpt>
      <trkpt lat="45.31613" lon="3.02781">
        <ele>1182.5</ele>
        <time>2021-08-24T13:51:17Z</time>
      </trkpt>
      <trkpt lat="45.31615" lon="3.02787">
        <ele>1182.8</ele>
        <time>2021-08-24T13:51:19Z</time>
      </trkpt>
      <trkpt lat="45.31616" lon="3.02792">
        <ele>1183</ele>
        <time>2021-08-24T13:51:21Z</time>
      </trkpt>
      <trkpt lat="45.31617" lon="3.02797">
        <ele>1183.1</ele>
        <time>2021-08-24T13:51:23Z</time>
      </trkpt>
      <trkpt lat="45.31619" lon="3.02803">
        <ele>1183.3</ele>
        <time>2021-08-24T13:51:25Z</time>
      </trkpt>
      <trkpt lat="45.3162" lon="3.02809">
        <ele>1183.4</ele>
        <time>2021-08-24T13:51:27Z</time>
      </trkpt>
      <trkpt lat="45.31622" lon="3.02814">
        <ele>1183.7</ele>
        <time>2021-08-24T13:51:29Z</time>
      </trkpt>
      <trkpt lat="45.31623" lon="3.0282">
        <ele>1183.8</ele>
        <time>2021-08-24T13:51:31Z</time>
      </trkpt>
      <trkpt lat="45.31624" lon="3.02826">
        <ele>1184</ele>
        <time>2021-08-24T13:51:33Z</time>
      </trkpt>
      <trkpt lat="45.31626" lon="3.02831">
        <ele>1184.2</ele>
        <time>2021-08-24T13:51:35Z</time>
      </trkpt>
      <trkpt lat="45.31627" lon="3.02837">
        <ele>1184.3</ele>
        <time>2021-08-24T13:51:37Z</time>
      </trkpt>
      <trkpt lat="45.31629" lon="3.02843">
        <ele>1184.5</ele>
        <time>2021-08-24T13:51:39Z</time>
      </trkpt>
      <trkpt lat="45.3163" lon="3.02849">
        <ele>1184.7</ele>
        <time>2021-08-24T13:51:41Z</time>
      </trkpt>
      <trkpt lat="45.31632" lon="3.02854">
        <ele>1184.9</ele>
        <time>2021-08-24T13:51:43Z</time>
      </trkpt>
      <trkpt lat="45.31634" lon="3.02859">
        <ele>1185.2</ele>
        <time>2021-08-24T13:51:45Z</time>
      </trkpt>
      <trkpt lat="45.31635" lon="3.02864">
        <ele>1185.4</ele>
        <time>2021-08-24T13:51:47Z</time>
      </trkpt>
      <trkpt lat="45.31637" lon="3.02869">
        <ele>1185.7</ele>
        <time>2021-08-24T13:51:49Z</time>
      </trkpt>
      <trkpt lat="45.31638" lon="3.02874">
        <ele>1185.9</ele>
        <time>2021-08-24T13:51:51Z</time>
      </trkpt>
      <trkpt lat="45.31639" lon="3.02879">
        <ele>1186.1</ele>
        <time>2021-08-24T13:51:53Z</time>
      </trkpt>
      <trkpt lat="45.31641" lon="3.02883">
        <ele>1186.4</ele>
        <time>2021-08-24T13:51:55Z</time>
      </trkpt>
      <trkpt lat="45.31643" lon="3.02887">
        <ele>1186.8</ele>
        <time>2021-08-24T13:51:57Z</time>
      </trkpt>
      <trkpt lat="45.31645" lon="3.02891">
        <ele>1187.1</ele>
        <time>2021-08-24T13:51:59Z</time>
      </trkpt>
      <trkpt lat="45.31646" lon="3.02893">
        <ele>1187.3</ele>
        <time>2021-08-24T13:52:01Z</time>
      </trkpt>
      <trkpt lat="45.31647" lon="3.02896">
        <ele>1187.6</ele>
        <time>2021-08-24T13:52:03Z</time>
      </trkpt>
      <trkpt lat="45.31648" lon="3.02899">
        <ele>1187.8</ele>
        <time>2021-08-24T13:52:05Z</time>
      </trkpt>
      <trkpt lat="45.31649" lon="3.02902">
        <ele>1188</ele>
        <time>2021-08-24T13:52:07Z</time>
      </trkpt>
      <trkpt lat="45.3165" lon="3.02904">
        <ele>1188.1</ele>
        <time>2021-08-24T13:52:09Z</time>
      </trkpt>
      <trkpt lat="45.31649" lon="3.02904">
        <ele>1188</ele>
        <time>2021-08-24T13:52:11Z</time>
      </trkpt>
      <trkpt lat="45.31649" lon="3.02904">
        <ele>1188</ele>
        <time>2021-08-24T13:52:13Z</time>
      </trkpt>
      <trkpt lat="45.31649" lon="3.02904">
        <ele>1188</ele>
        <time>2021-08-24T13:52:15Z</time>
      </trkpt>
      <trkpt lat="45.31657" lon="3.02921">
        <ele>1189.5</ele>
        <time>2021-08-24T13:52:37Z</time>
      </trkpt>
      <trkpt lat="45.31659" lon="3.02926">
        <ele>1189.7</ele>
        <time>2021-08-24T13:52:39Z</time>
      </trkpt>
      <trkpt lat="45.31661" lon="3.02931">
        <ele>1190</ele>
        <time>2021-08-24T13:52:41Z</time>
      </trkpt>
      <trkpt lat="45.31662" lon="3.02935">
        <ele>1190.1</ele>
        <time>2021-08-24T13:52:43Z</time>
      </trkpt>
      <trkpt lat="45.31664" lon="3.0294">
        <ele>1190.3</ele>
        <time>2021-08-24T13:52:45Z</time>
      </trkpt>
      <trkpt lat="45.31666" lon="3.02944">
        <ele>1190.5</ele>
        <time>2021-08-24T13:52:47Z</time>
      </trkpt>
      <trkpt lat="45.31668" lon="3.02948">
        <ele>1190.6</ele>
        <time>2021-08-24T13:52:49Z</time>
      </trkpt>
      <trkpt lat="45.3167" lon="3.02952">
        <ele>1190.7</ele>
        <time>2021-08-24T13:52:51Z</time>
      </trkpt>
      <trkpt lat="45.31672" lon="3.02957">
        <ele>1190.7</ele>
        <time>2021-08-24T13:52:53Z</time>
      </trkpt>
      <trkpt lat="45.31674" lon="3.02961">
        <ele>1190.7</ele>
        <time>2021-08-24T13:52:55Z</time>
      </trkpt>
      <trkpt lat="45.31676" lon="3.02966">
        <ele>1190.8</ele>
        <time>2021-08-24T13:52:57Z</time>
      </trkpt>
      <trkpt lat="45.31678" lon="3.0297">
        <ele>1190.8</ele>
        <time>2021-08-24T13:52:59Z</time>
      </trkpt>
      <trkpt lat="45.3168" lon="3.02975">
        <ele>1190.8</ele>
        <time>2021-08-24T13:53:01Z</time>
      </trkpt>
      <trkpt lat="45.31682" lon="3.0298">
        <ele>1190.8</ele>
        <time>2021-08-24T13:53:03Z</time>
      </trkpt>
      <trkpt lat="45.31684" lon="3.02985">
        <ele>1190.8</ele>
        <time>2021-08-24T13:53:05Z</time>
      </trkpt>
      <trkpt lat="45.31686" lon="3.0299">
        <ele>1190.9</ele>
        <time>2021-08-24T13:53:07Z</time>
      </trkpt>
      <trkpt lat="45.31688" lon="3.02995">
        <ele>1190.8</ele>
        <time>2021-08-24T13:53:09Z</time>
      </trkpt>
      <trkpt lat="45.3169" lon="3.03">
        <ele>1190.8</ele>
        <time>2021-08-24T13:53:11Z</time>
      </trkpt>
      <trkpt lat="45.31692" lon="3.03006">
        <ele>1190.9</ele>
        <time>2021-08-24T13:53:13Z</time>
      </trkpt>
      <trkpt lat="45.31694" lon="3.0301">
        <ele>1191</ele>
        <time>2021-08-24T13:53:15Z</time>
      </trkpt>
      <trkpt lat="45.31696" lon="3.03015">
        <ele>1191.1</ele>
        <time>2021-08-24T13:53:17Z</time>
      </trkpt>
      <trkpt lat="45.31699" lon="3.0302">
        <ele>1191.2</ele>
        <time>2021-08-24T13:53:19Z</time>
      </trkpt>
      <trkpt lat="45.31701" lon="3.03025">
        <ele>1191.3</ele>
        <time>2021-08-24T13:53:21Z</time>
      </trkpt>
      <trkpt lat="45.31703" lon="3.0303">
        <ele>1191.4</ele>
        <time>2021-08-24T13:53:23Z</time>
      </trkpt>
      <trkpt lat="45.31706" lon="3.03033">
        <ele>1191.6</ele>
        <time>2021-08-24T13:53:25Z</time>
      </trkpt>
      <trkpt lat="45.31709" lon="3.03037">
        <ele>1191.8</ele>
        <time>2021-08-24T13:53:27Z</time>
      </trkpt>
      <trkpt lat="45.31712" lon="3.03039">
        <ele>1192</ele>
        <time>2021-08-24T13:53:29Z</time>
      </trkpt>
      <trkpt lat="45.31715" lon="3.03042">
        <ele>1192.2</ele>
        <time>2021-08-24T13:53:31Z</time>
      </trkpt>
      <trkpt lat="45.31719" lon="3.03045">
        <ele>1192.5</ele>
        <time>2021-08-24T13:53:33Z</time>
      </trkpt>
      <trkpt lat="45.31723" lon="3.03048">
        <ele>1192.9</ele>
        <time>2021-08-24T13:53:35Z</time>
      </trkpt>
      <trkpt lat="45.31727" lon="3.03049">
        <ele>1193.2</ele>
        <time>2021-08-24T13:53:37Z</time>
      </trkpt>
      <trkpt lat="45.31731" lon="3.03051">
        <ele>1193.5</ele>
        <time>2021-08-24T13:53:39Z</time>
      </trkpt>
      <trkpt lat="45.31735" lon="3.03052">
        <ele>1193.9</ele>
        <time>2021-08-24T13:53:41Z</time>
      </trkpt>
      <trkpt lat="45.31738" lon="3.03054">
        <ele>1194.2</ele>
        <time>2021-08-24T13:53:43Z</time>
      </trkpt>
      <trkpt lat="45.31742" lon="3.03055">
        <ele>1194.5</ele>
        <time>2021-08-24T13:53:45Z</time>
      </trkpt>
      <trkpt lat="45.31746" lon="3.03057">
        <ele>1194.8</ele>
        <time>2021-08-24T13:53:47Z</time>
      </trkpt>
      <trkpt lat="45.3175" lon="3.03058">
        <ele>1195.2</ele>
        <time>2021-08-24T13:53:49Z</time>
      </trkpt>
      <trkpt lat="45.31754" lon="3.0306">
        <ele>1195.3</ele>
        <time>2021-08-24T13:53:51Z</time>
      </trkpt>
      <trkpt lat="45.31758" lon="3.03061">
        <ele>1195.5</ele>
        <time>2021-08-24T13:53:53Z</time>
      </trkpt>
      <trkpt lat="45.31761" lon="3.03063">
        <ele>1195.7</ele>
        <time>2021-08-24T13:53:55Z</time>
      </trkpt>
      <trkpt lat="45.31765" lon="3.03064">
        <ele>1195.8</ele>
        <time>2021-08-24T13:53:57Z</time>
      </trkpt>
      <trkpt lat="45.31769" lon="3.03066">
        <ele>1196</ele>
        <time>2021-08-24T13:53:59Z</time>
      </trkpt>
      <trkpt lat="45.31773" lon="3.03068">
        <ele>1196.2</ele>
        <time>2021-08-24T13:54:01Z</time>
      </trkpt>
      <trkpt lat="45.31777" lon="3.0307">
        <ele>1196.3</ele>
        <time>2021-08-24T13:54:03Z</time>
      </trkpt>
      <trkpt lat="45.31782" lon="3.03071">
        <ele>1196.5</ele>
        <time>2021-08-24T13:54:05Z</time>
      </trkpt>
      <trkpt lat="45.31786" lon="3.03073">
        <ele>1196.7</ele>
        <time>2021-08-24T13:54:07Z</time>
      </trkpt>
      <trkpt lat="45.3179" lon="3.03075">
        <ele>1196.8</ele>
        <time>2021-08-24T13:54:09Z</time>
      </trkpt>
      <trkpt lat="45.31794" lon="3.03077">
        <ele>1197</ele>
        <time>2021-08-24T13:54:11Z</time>
      </trkpt>
      <trkpt lat="45.31798" lon="3.03078">
        <ele>1197.2</ele>
        <time>2021-08-24T13:54:13Z</time>
      </trkpt>
      <trkpt lat="45.31802" lon="3.03079">
        <ele>1197.3</ele>
        <time>2021-08-24T13:54:15Z</time>
      </trkpt>
      <trkpt lat="45.31806" lon="3.03081">
        <ele>1197.5</ele>
        <time>2021-08-24T13:54:17Z</time>
      </trkpt>
      <trkpt lat="45.3181" lon="3.03082">
        <ele>1197.6</ele>
        <time>2021-08-24T13:54:19Z</time>
      </trkpt>
      <trkpt lat="45.31814" lon="3.03084">
        <ele>1197.8</ele>
        <time>2021-08-24T13:54:21Z</time>
      </trkpt>
      <trkpt lat="45.31818" lon="3.03085">
        <ele>1198</ele>
        <time>2021-08-24T13:54:23Z</time>
      </trkpt>
      <trkpt lat="45.31822" lon="3.03086">
        <ele>1198.2</ele>
        <time>2021-08-24T13:54:25Z</time>
      </trkpt>
      <trkpt lat="45.31825" lon="3.03089">
        <ele>1198.3</ele>
        <time>2021-08-24T13:54:27Z</time>
      </trkpt>
      <trkpt lat="45.31829" lon="3.0309">
        <ele>1198.4</ele>
        <time>2021-08-24T13:54:29Z</time>
      </trkpt>
      <trkpt lat="45.31833" lon="3.03092">
        <ele>1198.6</ele>
        <time>2021-08-24T13:54:31Z</time>
      </trkpt>
      <trkpt lat="45.31836" lon="3.03093">
        <ele>1198.6</ele>
        <time>2021-08-24T13:54:33Z</time>
      </trkpt>
      <trkpt lat="45.3184" lon="3.03095">
        <ele>1198.5</ele>
        <time>2021-08-24T13:54:35Z</time>
      </trkpt>
      <trkpt lat="45.31844" lon="3.03098">
        <ele>1198.4</ele>
        <time>2021-08-24T13:54:37Z</time>
      </trkpt>
      <trkpt lat="45.31848" lon="3.031">
        <ele>1198.4</ele>
        <time>2021-08-24T13:54:39Z</time>
      </trkpt>
      <trkpt lat="45.31852" lon="3.03103">
        <ele>1198.4</ele>
        <time>2021-08-24T13:54:41Z</time>
      </trkpt>
      <trkpt lat="45.31857" lon="3.03105">
        <ele>1198.3</ele>
        <time>2021-08-24T13:54:43Z</time>
      </trkpt>
      <trkpt lat="45.31861" lon="3.0311">
        <ele>1198.2</ele>
        <time>2021-08-24T13:54:45Z</time>
      </trkpt>
      <trkpt lat="45.31865" lon="3.03113">
        <ele>1198.1</ele>
        <time>2021-08-24T13:54:47Z</time>
      </trkpt>
      <trkpt lat="45.31868" lon="3.03118">
        <ele>1197.9</ele>
        <time>2021-08-24T13:54:49Z</time>
      </trkpt>
      <trkpt lat="45.31872" lon="3.03122">
        <ele>1197.8</ele>
        <time>2021-08-24T13:54:51Z</time>
      </trkpt>
      <trkpt lat="45.31875" lon="3.03126">
        <ele>1197.7</ele>
        <time>2021-08-24T13:54:53Z</time>
      </trkpt>
      <trkpt lat="45.31879" lon="3.0313">
        <ele>1197.6</ele>
        <time>2021-08-24T13:54:55Z</time>
      </trkpt>
      <trkpt lat="45.31882" lon="3.03136">
        <ele>1197.4</ele>
        <time>2021-08-24T13:54:57Z</time>
      </trkpt>
      <trkpt lat="45.31886" lon="3.0314">
        <ele>1197.3</ele>
        <time>2021-08-24T13:54:59Z</time>
      </trkpt>
      <trkpt lat="45.31889" lon="3.03145">
        <ele>1197.2</ele>
        <time>2021-08-24T13:55:01Z</time>
      </trkpt>
      <trkpt lat="45.31892" lon="3.03151">
        <ele>1197</ele>
        <time>2021-08-24T13:55:03Z</time>
      </trkpt>
      <trkpt lat="45.31896" lon="3.03156">
        <ele>1196.9</ele>
        <time>2021-08-24T13:55:05Z</time>
      </trkpt>
      <trkpt lat="45.319" lon="3.03161">
        <ele>1196.8</ele>
        <time>2021-08-24T13:55:07Z</time>
      </trkpt>
      <trkpt lat="45.31903" lon="3.03167">
        <ele>1196.7</ele>
        <time>2021-08-24T13:55:09Z</time>
      </trkpt>
      <trkpt lat="45.31907" lon="3.03172">
        <ele>1196.8</ele>
        <time>2021-08-24T13:55:11Z</time>
      </trkpt>
      <trkpt lat="45.3191" lon="3.03177">
        <ele>1196.8</ele>
        <time>2021-08-24T13:55:13Z</time>
      </trkpt>
      <trkpt lat="45.31914" lon="3.03182">
        <ele>1196.9</ele>
        <time>2021-08-24T13:55:15Z</time>
      </trkpt>
      <trkpt lat="45.31917" lon="3.03186">
        <ele>1197</ele>
        <time>2021-08-24T13:55:17Z</time>
      </trkpt>
      <trkpt lat="45.31921" lon="3.03191">
        <ele>1196.9</ele>
        <time>2021-08-24T13:55:19Z</time>
      </trkpt>
      <trkpt lat="45.31924" lon="3.03196">
        <ele>1196.8</ele>
        <time>2021-08-24T13:55:21Z</time>
      </trkpt>
      <trkpt lat="45.31928" lon="3.03201">
        <ele>1196.7</ele>
        <time>2021-08-24T13:55:23Z</time>
      </trkpt>
      <trkpt lat="45.31931" lon="3.03208">
        <ele>1196.7</ele>
        <time>2021-08-24T13:55:25Z</time>
      </trkpt>
      <trkpt lat="45.31934" lon="3.03212">
        <ele>1196.6</ele>
        <time>2021-08-24T13:55:27Z</time>
      </trkpt>
      <trkpt lat="45.31934" lon="3.03212">
        <ele>1196.6</ele>
        <time>2021-08-24T13:55:29Z</time>
      </trkpt>
      <trkpt lat="45.31933" lon="3.03211">
        <ele>1196.6</ele>
        <time>2021-08-24T13:55:31Z</time>
      </trkpt>
      <trkpt lat="45.31934" lon="3.03211">
        <ele>1196.6</ele>
        <time>2021-08-24T13:55:33Z</time>
      </trkpt>
      <trkpt lat="45.31934" lon="3.03211">
        <ele>1196.6</ele>
        <time>2021-08-24T13:55:35Z</time>
      </trkpt>
      <trkpt lat="45.31934" lon="3.03211">
        <ele>1196.6</ele>
        <time>2021-08-24T13:55:37Z</time>
      </trkpt>
      <trkpt lat="45.31946" lon="3.03223">
        <ele>1196.3</ele>
        <time>2021-08-24T13:59:27Z</time>
      </trkpt>
      <trkpt lat="45.31951" lon="3.03228">
        <ele>1196.2</ele>
        <time>2021-08-24T13:59:29Z</time>
      </trkpt>
      <trkpt lat="45.31957" lon="3.03233">
        <ele>1196</ele>
        <time>2021-08-24T13:59:31Z</time>
      </trkpt>
      <trkpt lat="45.31964" lon="3.03239">
        <ele>1195.9</ele>
        <time>2021-08-24T13:59:33Z</time>
      </trkpt>
      <trkpt lat="45.31973" lon="3.03245">
        <ele>1195.6</ele>
        <time>2021-08-24T13:59:35Z</time>
      </trkpt>
      <trkpt lat="45.31983" lon="3.03251">
        <ele>1195.4</ele>
        <time>2021-08-24T13:59:37Z</time>
      </trkpt>
      <trkpt lat="45.31993" lon="3.03258">
        <ele>1195.1</ele>
        <time>2021-08-24T13:59:39Z</time>
      </trkpt>
      <trkpt lat="45.32005" lon="3.03263">
        <ele>1194.2</ele>
        <time>2021-08-24T13:59:41Z</time>
      </trkpt>
      <trkpt lat="45.32018" lon="3.0326">
        <ele>1192.8</ele>
        <time>2021-08-24T13:59:43Z</time>
      </trkpt>
      <trkpt lat="45.32029" lon="3.03251">
        <ele>1191.5</ele>
        <time>2021-08-24T13:59:45Z</time>
      </trkpt>
      <trkpt lat="45.32038" lon="3.03235">
        <ele>1190.5</ele>
        <time>2021-08-24T13:59:47Z</time>
      </trkpt>
      <trkpt lat="45.32047" lon="3.03217">
        <ele>1189.6</ele>
        <time>2021-08-24T13:59:49Z</time>
      </trkpt>
      <trkpt lat="45.32056" lon="3.03199">
        <ele>1188.7</ele>
        <time>2021-08-24T13:59:51Z</time>
      </trkpt>
      <trkpt lat="45.32065" lon="3.03179">
        <ele>1187.8</ele>
        <time>2021-08-24T13:59:53Z</time>
      </trkpt>
      <trkpt lat="45.32075" lon="3.03158">
        <ele>1187.2</ele>
        <time>2021-08-24T13:59:55Z</time>
      </trkpt>
      <trkpt lat="45.32085" lon="3.03137">
        <ele>1186.9</ele>
        <time>2021-08-24T13:59:57Z</time>
      </trkpt>
      <trkpt lat="45.32095" lon="3.03116">
        <ele>1186.7</ele>
        <time>2021-08-24T13:59:59Z</time>
      </trkpt>
      <trkpt lat="45.32105" lon="3.03094">
        <ele>1186.5</ele>
        <time>2021-08-24T14:00:01Z</time>
      </trkpt>
      <trkpt lat="45.32115" lon="3.03073">
        <ele>1186.2</ele>
        <time>2021-08-24T14:00:03Z</time>
      </trkpt>
      <trkpt lat="45.32126" lon="3.03053">
        <ele>1185.8</ele>
        <time>2021-08-24T14:00:05Z</time>
      </trkpt>
      <trkpt lat="45.32142" lon="3.03037">
        <ele>1185.1</ele>
        <time>2021-08-24T14:00:07Z</time>
      </trkpt>
      <trkpt lat="45.32159" lon="3.03025">
        <ele>1184.3</ele>
        <time>2021-08-24T14:00:09Z</time>
      </trkpt>
      <trkpt lat="45.32178" lon="3.03018">
        <ele>1183.2</ele>
        <time>2021-08-24T14:00:11Z</time>
      </trkpt>
      <trkpt lat="45.32198" lon="3.0301">
        <ele>1182</ele>
        <time>2021-08-24T14:00:13Z</time>
      </trkpt>
      <trkpt lat="45.32218" lon="3.03003">
        <ele>1181</ele>
        <time>2021-08-24T14:00:15Z</time>
      </trkpt>
      <trkpt lat="45.32237" lon="3.02997">
        <ele>1180.2</ele>
        <time>2021-08-24T14:00:17Z</time>
      </trkpt>
      <trkpt lat="45.32257" lon="3.02987">
        <ele>1179.8</ele>
        <time>2021-08-24T14:00:19Z</time>
      </trkpt>
      <trkpt lat="45.32277" lon="3.02977">
        <ele>1179.2</ele>
        <time>2021-08-24T14:00:21Z</time>
      </trkpt>
      <trkpt lat="45.32296" lon="3.02966">
        <ele>1178.8</ele>
        <time>2021-08-24T14:00:23Z</time>
      </trkpt>
      <trkpt lat="45.32314" lon="3.02955">
        <ele>1178.4</ele>
        <time>2021-08-24T14:00:25Z</time>
      </trkpt>
      <trkpt lat="45.32331" lon="3.02944">
        <ele>1178.2</ele>
        <time>2021-08-24T14:00:27Z</time>
      </trkpt>
      <trkpt lat="45.32347" lon="3.02934">
        <ele>1176.5</ele>
        <time>2021-08-24T14:00:29Z</time>
      </trkpt>
      <trkpt lat="45.32362" lon="3.02921">
        <ele>1174.8</ele>
        <time>2021-08-24T14:00:31Z</time>
      </trkpt>
      <trkpt lat="45.32374" lon="3.02903">
        <ele>1172.8</ele>
        <time>2021-08-24T14:00:33Z</time>
      </trkpt>
      <trkpt lat="45.32385" lon="3.02883">
        <ele>1171</ele>
        <time>2021-08-24T14:00:35Z</time>
      </trkpt>
      <trkpt lat="45.32395" lon="3.02862">
        <ele>1169.1</ele>
        <time>2021-08-24T14:00:37Z</time>
      </trkpt>
      <trkpt lat="45.32405" lon="3.0284">
        <ele>1167.2</ele>
        <time>2021-08-24T14:00:39Z</time>
      </trkpt>
      <trkpt lat="45.32414" lon="3.02818">
        <ele>1165.9</ele>
        <time>2021-08-24T14:00:41Z</time>
      </trkpt>
      <trkpt lat="45.32422" lon="3.02793">
        <ele>1164.2</ele>
        <time>2021-08-24T14:00:43Z</time>
      </trkpt>
      <trkpt lat="45.32431" lon="3.02769">
        <ele>1162.3</ele>
        <time>2021-08-24T14:00:45Z</time>
      </trkpt>
      <trkpt lat="45.32439" lon="3.02744">
        <ele>1160.8</ele>
        <time>2021-08-24T14:00:47Z</time>
      </trkpt>
      <trkpt lat="45.32448" lon="3.02719">
        <ele>1160.1</ele>
        <time>2021-08-24T14:00:49Z</time>
      </trkpt>
      <trkpt lat="45.32457" lon="3.02695">
        <ele>1159.5</ele>
        <time>2021-08-24T14:00:51Z</time>
      </trkpt>
      <trkpt lat="45.32465" lon="3.02669">
        <ele>1159.1</ele>
        <time>2021-08-24T14:00:53Z</time>
      </trkpt>
      <trkpt lat="45.32475" lon="3.02644">
        <ele>1158.5</ele>
        <time>2021-08-24T14:00:55Z</time>
      </trkpt>
      <trkpt lat="45.32483" lon="3.02618">
        <ele>1158.5</ele>
        <time>2021-08-24T14:00:57Z</time>
      </trkpt>
      <trkpt lat="45.32488" lon="3.02595">
        <ele>1159.2</ele>
        <time>2021-08-24T14:00:59Z</time>
      </trkpt>
      <trkpt lat="45.32489" lon="3.02571">
        <ele>1161.2</ele>
        <time>2021-08-24T14:01:01Z</time>
      </trkpt>
      <trkpt lat="45.32492" lon="3.02552">
        <ele>1163</ele>
        <time>2021-08-24T14:01:03Z</time>
      </trkpt>
      <trkpt lat="45.325" lon="3.02538">
        <ele>1164</ele>
        <time>2021-08-24T14:01:05Z</time>
      </trkpt>
      <trkpt lat="45.32514" lon="3.02531">
        <ele>1166.4</ele>
        <time>2021-08-24T14:01:07Z</time>
      </trkpt>
      <trkpt lat="45.32528" lon="3.02535">
        <ele>1167.4</ele>
        <time>2021-08-24T14:01:09Z</time>
      </trkpt>
      <trkpt lat="45.3254" lon="3.02547">
        <ele>1166.6</ele>
        <time>2021-08-24T14:01:11Z</time>
      </trkpt>
      <trkpt lat="45.32549" lon="3.0256">
        <ele>1165.4</ele>
        <time>2021-08-24T14:01:13Z</time>
      </trkpt>
      <trkpt lat="45.32556" lon="3.02575">
        <ele>1163.5</ele>
        <time>2021-08-24T14:01:15Z</time>
      </trkpt>
      <trkpt lat="45.32561" lon="3.02591">
        <ele>1161.4</ele>
        <time>2021-08-24T14:01:17Z</time>
      </trkpt>
      <trkpt lat="45.32566" lon="3.02608">
        <ele>1159.5</ele>
        <time>2021-08-24T14:01:19Z</time>
      </trkpt>
      <trkpt lat="45.3257" lon="3.02627">
        <ele>1157.2</ele>
        <time>2021-08-24T14:01:21Z</time>
      </trkpt>
      <trkpt lat="45.32576" lon="3.02646">
        <ele>1154.8</ele>
        <time>2021-08-24T14:01:23Z</time>
      </trkpt>
      <trkpt lat="45.32585" lon="3.02665">
        <ele>1152.5</ele>
        <time>2021-08-24T14:01:25Z</time>
      </trkpt>
      <trkpt lat="45.32594" lon="3.02684">
        <ele>1152.6</ele>
        <time>2021-08-24T14:01:27Z</time>
      </trkpt>
      <trkpt lat="45.326" lon="3.02707">
        <ele>1151.9</ele>
        <time>2021-08-24T14:01:29Z</time>
      </trkpt>
      <trkpt lat="45.32602" lon="3.02732">
        <ele>1149.9</ele>
        <time>2021-08-24T14:01:31Z</time>
      </trkpt>
      <trkpt lat="45.32602" lon="3.02757">
        <ele>1147.6</ele>
        <time>2021-08-24T14:01:33Z</time>
      </trkpt>
      <trkpt lat="45.32603" lon="3.02784">
        <ele>1146.3</ele>
        <time>2021-08-24T14:01:35Z</time>
      </trkpt>
      <trkpt lat="45.32605" lon="3.02811">
        <ele>1145.1</ele>
        <time>2021-08-24T14:01:37Z</time>
      </trkpt>
      <trkpt lat="45.32605" lon="3.02839">
        <ele>1143.8</ele>
        <time>2021-08-24T14:01:39Z</time>
      </trkpt>
      <trkpt lat="45.32607" lon="3.02868">
        <ele>1142.7</ele>
        <time>2021-08-24T14:01:41Z</time>
      </trkpt>
      <trkpt lat="45.32607" lon="3.02896">
        <ele>1141.3</ele>
        <time>2021-08-24T14:01:43Z</time>
      </trkpt>
      <trkpt lat="45.32608" lon="3.02924">
        <ele>1140.1</ele>
        <time>2021-08-24T14:01:45Z</time>
      </trkpt>
      <trkpt lat="45.32609" lon="3.02952">
        <ele>1139</ele>
        <time>2021-08-24T14:01:47Z</time>
      </trkpt>
      <trkpt lat="45.32609" lon="3.02982">
        <ele>1137.8</ele>
        <time>2021-08-24T14:01:49Z</time>
      </trkpt>
      <trkpt lat="45.32613" lon="3.03008">
        <ele>1136.6</ele>
        <time>2021-08-24T14:01:51Z</time>
      </trkpt>
      <trkpt lat="45.3262" lon="3.03034">
        <ele>1134.3</ele>
        <time>2021-08-24T14:01:53Z</time>
      </trkpt>
      <trkpt lat="45.32628" lon="3.03058">
        <ele>1132.4</ele>
        <time>2021-08-24T14:01:55Z</time>
      </trkpt>
      <trkpt lat="45.32638" lon="3.03078">
        <ele>1131</ele>
        <time>2021-08-24T14:01:57Z</time>
      </trkpt>
      <trkpt lat="45.32652" lon="3.03093">
        <ele>1130.4</ele>
        <time>2021-08-24T14:01:59Z</time>
      </trkpt>
      <trkpt lat="45.3267" lon="3.031">
        <ele>1131.2</ele>
        <time>2021-08-24T14:02:01Z</time>
      </trkpt>
      <trkpt lat="45.32688" lon="3.031">
        <ele>1134.1</ele>
        <time>2021-08-24T14:02:03Z</time>
      </trkpt>
      <trkpt lat="45.32707" lon="3.031">
        <ele>1136.8</ele>
        <time>2021-08-24T14:02:05Z</time>
      </trkpt>
      <trkpt lat="45.32725" lon="3.03106">
        <ele>1137.8</ele>
        <time>2021-08-24T14:02:07Z</time>
      </trkpt>
      <trkpt lat="45.32741" lon="3.03125">
        <ele>1134.6</ele>
        <time>2021-08-24T14:02:09Z</time>
      </trkpt>
      <trkpt lat="45.32754" lon="3.03147">
        <ele>1130.7</ele>
        <time>2021-08-24T14:02:11Z</time>
      </trkpt>
      <trkpt lat="45.32769" lon="3.03167">
        <ele>1129.5</ele>
        <time>2021-08-24T14:02:13Z</time>
      </trkpt>
      <trkpt lat="45.32784" lon="3.03186">
        <ele>1129.3</ele>
        <time>2021-08-24T14:02:15Z</time>
      </trkpt>
      <trkpt lat="45.32799" lon="3.03204">
        <ele>1129.3</ele>
        <time>2021-08-24T14:02:17Z</time>
      </trkpt>
      <trkpt lat="45.32815" lon="3.03222">
        <ele>1129.3</ele>
        <time>2021-08-24T14:02:19Z</time>
      </trkpt>
      <trkpt lat="45.32831" lon="3.03239">
        <ele>1129.1</ele>
        <time>2021-08-24T14:02:21Z</time>
      </trkpt>
      <trkpt lat="45.32846" lon="3.03259">
        <ele>1125.4</ele>
        <time>2021-08-24T14:02:23Z</time>
      </trkpt>
      <trkpt lat="45.3286" lon="3.03277">
        <ele>1121.8</ele>
        <time>2021-08-24T14:02:25Z</time>
      </trkpt>
      <trkpt lat="45.32874" lon="3.03293">
        <ele>1119.1</ele>
        <time>2021-08-24T14:02:27Z</time>
      </trkpt>
      <trkpt lat="45.32888" lon="3.03302">
        <ele>1118.9</ele>
        <time>2021-08-24T14:02:29Z</time>
      </trkpt>
      <trkpt lat="45.32904" lon="3.03308">
        <ele>1119.5</ele>
        <time>2021-08-24T14:02:31Z</time>
      </trkpt>
      <trkpt lat="45.3292" lon="3.03314">
        <ele>1120</ele>
        <time>2021-08-24T14:02:33Z</time>
      </trkpt>
      <trkpt lat="45.32937" lon="3.0332">
        <ele>1119.3</ele>
        <time>2021-08-24T14:02:35Z</time>
      </trkpt>
      <trkpt lat="45.32953" lon="3.03325">
        <ele>1119</ele>
        <time>2021-08-24T14:02:37Z</time>
      </trkpt>
      <trkpt lat="45.3297" lon="3.03331">
        <ele>1118.9</ele>
        <time>2021-08-24T14:02:39Z</time>
      </trkpt>
      <trkpt lat="45.32986" lon="3.03337">
        <ele>1118.9</ele>
        <time>2021-08-24T14:02:41Z</time>
      </trkpt>
      <trkpt lat="45.33002" lon="3.03344">
        <ele>1118.7</ele>
        <time>2021-08-24T14:02:43Z</time>
      </trkpt>
      <trkpt lat="45.33018" lon="3.03349">
        <ele>1118</ele>
        <time>2021-08-24T14:02:45Z</time>
      </trkpt>
      <trkpt lat="45.33033" lon="3.03351">
        <ele>1117.7</ele>
        <time>2021-08-24T14:02:47Z</time>
      </trkpt>
      <trkpt lat="45.33049" lon="3.03349">
        <ele>1117.7</ele>
        <time>2021-08-24T14:02:49Z</time>
      </trkpt>
      <trkpt lat="45.33065" lon="3.03343">
        <ele>1117.9</ele>
        <time>2021-08-24T14:02:51Z</time>
      </trkpt>
      <trkpt lat="45.3308" lon="3.03351">
        <ele>1117.4</ele>
        <time>2021-08-24T14:02:53Z</time>
      </trkpt>
      <trkpt lat="45.3309" lon="3.03371">
        <ele>1117.7</ele>
        <time>2021-08-24T14:02:55Z</time>
      </trkpt>
      <trkpt lat="45.3309" lon="3.03393">
        <ele>1117.2</ele>
        <time>2021-08-24T14:02:57Z</time>
      </trkpt>
      <trkpt lat="45.33088" lon="3.03413">
        <ele>1116.1</ele>
        <time>2021-08-24T14:02:59Z</time>
      </trkpt>
      <trkpt lat="45.33086" lon="3.03433">
        <ele>1115.8</ele>
        <time>2021-08-24T14:03:01Z</time>
      </trkpt>
      <trkpt lat="45.33084" lon="3.03452">
        <ele>1115.6</ele>
        <time>2021-08-24T14:03:03Z</time>
      </trkpt>
      <trkpt lat="45.33082" lon="3.03472">
        <ele>1115.5</ele>
        <time>2021-08-24T14:03:05Z</time>
      </trkpt>
      <trkpt lat="45.3308" lon="3.0349">
        <ele>1115.3</ele>
        <time>2021-08-24T14:03:07Z</time>
      </trkpt>
      <trkpt lat="45.33076" lon="3.03508">
        <ele>1114.8</ele>
        <time>2021-08-24T14:03:09Z</time>
      </trkpt>
      <trkpt lat="45.33073" lon="3.03526">
        <ele>1114.4</ele>
        <time>2021-08-24T14:03:11Z</time>
      </trkpt>
      <trkpt lat="45.3307" lon="3.03543">
        <ele>1114.2</ele>
        <time>2021-08-24T14:03:13Z</time>
      </trkpt>
      <trkpt lat="45.33068" lon="3.03562">
        <ele>1114.1</ele>
        <time>2021-08-24T14:03:15Z</time>
      </trkpt>
      <trkpt lat="45.33068" lon="3.03577">
        <ele>1114.3</ele>
        <time>2021-08-24T14:03:17Z</time>
      </trkpt>
      <trkpt lat="45.33066" lon="3.03594">
        <ele>1114.3</ele>
        <time>2021-08-24T14:03:19Z</time>
      </trkpt>
      <trkpt lat="45.33065" lon="3.03609">
        <ele>1114.6</ele>
        <time>2021-08-24T14:03:21Z</time>
      </trkpt>
      <trkpt lat="45.33064" lon="3.03625">
        <ele>1114.8</ele>
        <time>2021-08-24T14:03:23Z</time>
      </trkpt>
      <trkpt lat="45.33062" lon="3.03639">
        <ele>1114.9</ele>
        <time>2021-08-24T14:03:25Z</time>
      </trkpt>
      <trkpt lat="45.33061" lon="3.03652">
        <ele>1115.2</ele>
        <time>2021-08-24T14:03:27Z</time>
      </trkpt>
      <trkpt lat="45.33061" lon="3.03665">
        <ele>1115.4</ele>
        <time>2021-08-24T14:03:29Z</time>
      </trkpt>
      <trkpt lat="45.3306" lon="3.03678">
        <ele>1115.7</ele>
        <time>2021-08-24T14:03:31Z</time>
      </trkpt>
      <trkpt lat="45.3306" lon="3.03687">
        <ele>1116</ele>
        <time>2021-08-24T14:03:33Z</time>
      </trkpt>
      <trkpt lat="45.3306" lon="3.03694">
        <ele>1116.2</ele>
        <time>2021-08-24T14:03:35Z</time>
      </trkpt>
      <trkpt lat="45.3306" lon="3.03702">
        <ele>1116.6</ele>
        <time>2021-08-24T14:03:37Z</time>
      </trkpt>
      <trkpt lat="45.33062" lon="3.03709">
        <ele>1117</ele>
        <time>2021-08-24T14:03:39Z</time>
      </trkpt>
      <trkpt lat="45.33062" lon="3.03716">
        <ele>1117.3</ele>
        <time>2021-08-24T14:03:41Z</time>
      </trkpt>
      <trkpt lat="45.33062" lon="3.03723">
        <ele>1117.6</ele>
        <time>2021-08-24T14:03:43Z</time>
      </trkpt>
      <trkpt lat="45.33063" lon="3.03729">
        <ele>1117.9</ele>
        <time>2021-08-24T14:03:45Z</time>
      </trkpt>
      <trkpt lat="45.33063" lon="3.03734">
        <ele>1118.1</ele>
        <time>2021-08-24T14:03:47Z</time>
      </trkpt>
      <trkpt lat="45.33064" lon="3.03741">
        <ele>1118.4</ele>
        <time>2021-08-24T14:03:49Z</time>
      </trkpt>
      <trkpt lat="45.33064" lon="3.03746">
        <ele>1118.7</ele>
        <time>2021-08-24T14:03:51Z</time>
      </trkpt>
      <trkpt lat="45.33065" lon="3.03752">
        <ele>1119</ele>
        <time>2021-08-24T14:03:53Z</time>
      </trkpt>
      <trkpt lat="45.33066" lon="3.03758">
        <ele>1119.1</ele>
        <time>2021-08-24T14:03:55Z</time>
      </trkpt>
      <trkpt lat="45.33066" lon="3.03764">
        <ele>1119.3</ele>
        <time>2021-08-24T14:03:57Z</time>
      </trkpt>
      <trkpt lat="45.33067" lon="3.0377">
        <ele>1119.5</ele>
        <time>2021-08-24T14:03:59Z</time>
      </trkpt>
      <trkpt lat="45.33068" lon="3.03775">
        <ele>1119.7</ele>
        <time>2021-08-24T14:04:01Z</time>
      </trkpt>
      <trkpt lat="45.33069" lon="3.03781">
        <ele>1119.9</ele>
        <time>2021-08-24T14:04:03Z</time>
      </trkpt>
      <trkpt lat="45.33069" lon="3.03787">
        <ele>1120.1</ele>
        <time>2021-08-24T14:04:05Z</time>
      </trkpt>
      <trkpt lat="45.3307" lon="3.03793">
        <ele>1120.3</ele>
        <time>2021-08-24T14:04:07Z</time>
      </trkpt>
      <trkpt lat="45.33071" lon="3.03799">
        <ele>1120.6</ele>
        <time>2021-08-24T14:04:09Z</time>
      </trkpt>
      <trkpt lat="45.33073" lon="3.03804">
        <ele>1120.9</ele>
        <time>2021-08-24T14:04:11Z</time>
      </trkpt>
      <trkpt lat="45.33075" lon="3.03809">
        <ele>1121.3</ele>
        <time>2021-08-24T14:04:13Z</time>
      </trkpt>
      <trkpt lat="45.33076" lon="3.03815">
        <ele>1121.6</ele>
        <time>2021-08-24T14:04:15Z</time>
      </trkpt>
      <trkpt lat="45.33078" lon="3.0382">
        <ele>1121.9</ele>
        <time>2021-08-24T14:04:17Z</time>
      </trkpt>
      <trkpt lat="45.3308" lon="3.03826">
        <ele>1122.4</ele>
        <time>2021-08-24T14:04:19Z</time>
      </trkpt>
      <trkpt lat="45.33082" lon="3.03831">
        <ele>1122.8</ele>
        <time>2021-08-24T14:04:21Z</time>
      </trkpt>
      <trkpt lat="45.33085" lon="3.03835">
        <ele>1123.2</ele>
        <time>2021-08-24T14:04:23Z</time>
      </trkpt>
      <trkpt lat="45.33087" lon="3.0384">
        <ele>1123.6</ele>
        <time>2021-08-24T14:04:25Z</time>
      </trkpt>
      <trkpt lat="45.33089" lon="3.03845">
        <ele>1124</ele>
        <time>2021-08-24T14:04:27Z</time>
      </trkpt>
      <trkpt lat="45.33092" lon="3.03849">
        <ele>1124.5</ele>
        <time>2021-08-24T14:04:29Z</time>
      </trkpt>
      <trkpt lat="45.33094" lon="3.03855">
        <ele>1124.9</ele>
        <time>2021-08-24T14:04:31Z</time>
      </trkpt>
      <trkpt lat="45.33096" lon="3.0386">
        <ele>1125.3</ele>
        <time>2021-08-24T14:04:33Z</time>
      </trkpt>
      <trkpt lat="45.33099" lon="3.03865">
        <ele>1125.7</ele>
        <time>2021-08-24T14:04:35Z</time>
      </trkpt>
      <trkpt lat="45.33101" lon="3.0387">
        <ele>1126.1</ele>
        <time>2021-08-24T14:04:37Z</time>
      </trkpt>
      <trkpt lat="45.33102" lon="3.03875">
        <ele>1126.3</ele>
        <time>2021-08-24T14:04:39Z</time>
      </trkpt>
      <trkpt lat="45.33104" lon="3.0388">
        <ele>1126.7</ele>
        <time>2021-08-24T14:04:41Z</time>
      </trkpt>
      <trkpt lat="45.33107" lon="3.03885">
        <ele>1127.1</ele>
        <time>2021-08-24T14:04:43Z</time>
      </trkpt>
      <trkpt lat="45.33109" lon="3.03888">
        <ele>1127.5</ele>
        <time>2021-08-24T14:04:45Z</time>
      </trkpt>
      <trkpt lat="45.3311" lon="3.03893">
        <ele>1127.7</ele>
        <time>2021-08-24T14:04:47Z</time>
      </trkpt>
      <trkpt lat="45.33112" lon="3.03899">
        <ele>1127.9</ele>
        <time>2021-08-24T14:04:49Z</time>
      </trkpt>
      <trkpt lat="45.33113" lon="3.03904">
        <ele>1128.2</ele>
        <time>2021-08-24T14:04:51Z</time>
      </trkpt>
      <trkpt lat="45.33115" lon="3.03909">
        <ele>1128.4</ele>
        <time>2021-08-24T14:04:53Z</time>
      </trkpt>
      <trkpt lat="45.33116" lon="3.03914">
        <ele>1128.7</ele>
        <time>2021-08-24T14:04:55Z</time>
      </trkpt>
      <trkpt lat="45.33119" lon="3.03919">
        <ele>1129.1</ele>
        <time>2021-08-24T14:04:57Z</time>
      </trkpt>
      <trkpt lat="45.33121" lon="3.03924">
        <ele>1129.3</ele>
        <time>2021-08-24T14:04:59Z</time>
      </trkpt>
      <trkpt lat="45.33122" lon="3.03929">
        <ele>1129.5</ele>
        <time>2021-08-24T14:05:01Z</time>
      </trkpt>
      <trkpt lat="45.33123" lon="3.03935">
        <ele>1129.6</ele>
        <time>2021-08-24T14:05:03Z</time>
      </trkpt>
      <trkpt lat="45.33124" lon="3.0394">
        <ele>1129.7</ele>
        <time>2021-08-24T14:05:05Z</time>
      </trkpt>
      <trkpt lat="45.33126" lon="3.03945">
        <ele>1129.9</ele>
        <time>2021-08-24T14:05:07Z</time>
      </trkpt>
      <trkpt lat="45.33127" lon="3.03951">
        <ele>1130</ele>
        <time>2021-08-24T14:05:09Z</time>
      </trkpt>
      <trkpt lat="45.33128" lon="3.03955">
        <ele>1130.2</ele>
        <time>2021-08-24T14:05:11Z</time>
      </trkpt>
      <trkpt lat="45.33131" lon="3.03959">
        <ele>1130.5</ele>
        <time>2021-08-24T14:05:13Z</time>
      </trkpt>
      <trkpt lat="45.33132" lon="3.03964">
        <ele>1130.7</ele>
        <time>2021-08-24T14:05:15Z</time>
      </trkpt>
      <trkpt lat="45.33132" lon="3.03971">
        <ele>1130.7</ele>
        <time>2021-08-24T14:05:17Z</time>
      </trkpt>
      <trkpt lat="45.33134" lon="3.03976">
        <ele>1130.9</ele>
        <time>2021-08-24T14:05:19Z</time>
      </trkpt>
      <trkpt lat="45.33136" lon="3.03982">
        <ele>1131.1</ele>
        <time>2021-08-24T14:05:21Z</time>
      </trkpt>
      <trkpt lat="45.33138" lon="3.03987">
        <ele>1131.3</ele>
        <time>2021-08-24T14:05:23Z</time>
      </trkpt>
      <trkpt lat="45.33139" lon="3.03993">
        <ele>1131.4</ele>
        <time>2021-08-24T14:05:25Z</time>
      </trkpt>
      <trkpt lat="45.33141" lon="3.03998">
        <ele>1131.6</ele>
        <time>2021-08-24T14:05:27Z</time>
      </trkpt>
      <trkpt lat="45.33142" lon="3.04004">
        <ele>1131.6</ele>
        <time>2021-08-24T14:05:29Z</time>
      </trkpt>
      <trkpt lat="45.33144" lon="3.04009">
        <ele>1131.5</ele>
        <time>2021-08-24T14:05:31Z</time>
      </trkpt>
      <trkpt lat="45.33145" lon="3.04015">
        <ele>1131.5</ele>
        <time>2021-08-24T14:05:33Z</time>
      </trkpt>
      <trkpt lat="45.33147" lon="3.04021">
        <ele>1131.5</ele>
        <time>2021-08-24T14:05:35Z</time>
      </trkpt>
      <trkpt lat="45.33149" lon="3.04026">
        <ele>1131.6</ele>
        <time>2021-08-24T14:05:37Z</time>
      </trkpt>
      <trkpt lat="45.33149" lon="3.04031">
        <ele>1131.4</ele>
        <time>2021-08-24T14:05:39Z</time>
      </trkpt>
      <trkpt lat="45.3315" lon="3.04034">
        <ele>1131.4</ele>
        <time>2021-08-24T14:05:41Z</time>
      </trkpt>
      <trkpt lat="45.33151" lon="3.04033">
        <ele>1131.6</ele>
        <time>2021-08-24T14:05:43Z</time>
      </trkpt>
      <trkpt lat="45.33152" lon="3.0403">
        <ele>1131.8</ele>
        <time>2021-08-24T14:05:45Z</time>
      </trkpt>
      <trkpt lat="45.33148" lon="3.04028">
        <ele>1131.5</ele>
        <time>2021-08-24T14:05:47Z</time>
      </trkpt>
      <trkpt lat="45.33148" lon="3.04033">
        <ele>1131.2</ele>
        <time>2021-08-24T14:05:49Z</time>
      </trkpt>
      <trkpt lat="45.3315" lon="3.0404">
        <ele>1131.2</ele>
        <time>2021-08-24T14:05:51Z</time>
      </trkpt>
      <trkpt lat="45.33151" lon="3.04046">
        <ele>1131</ele>
        <time>2021-08-24T14:05:53Z</time>
      </trkpt>
      <trkpt lat="45.33152" lon="3.04053">
        <ele>1130.9</ele>
        <time>2021-08-24T14:05:55Z</time>
      </trkpt>
      <trkpt lat="45.33153" lon="3.0406">
        <ele>1130.7</ele>
        <time>2021-08-24T14:05:57Z</time>
      </trkpt>
      <trkpt lat="45.33154" lon="3.04068">
        <ele>1130.6</ele>
        <time>2021-08-24T14:05:59Z</time>
      </trkpt>
      <trkpt lat="45.33155" lon="3.04074">
        <ele>1130.5</ele>
        <time>2021-08-24T14:06:01Z</time>
      </trkpt>
      <trkpt lat="45.33154" lon="3.04076">
        <ele>1130.4</ele>
        <time>2021-08-24T14:06:03Z</time>
      </trkpt>
      <trkpt lat="45.33155" lon="3.04081">
        <ele>1130.3</ele>
        <time>2021-08-24T14:06:05Z</time>
      </trkpt>
      <trkpt lat="45.33156" lon="3.04089">
        <ele>1130.2</ele>
        <time>2021-08-24T14:06:07Z</time>
      </trkpt>
      <trkpt lat="45.33156" lon="3.04097">
        <ele>1130.2</ele>
        <time>2021-08-24T14:06:09Z</time>
      </trkpt>
      <trkpt lat="45.33157" lon="3.04107">
        <ele>1130.1</ele>
        <time>2021-08-24T14:06:11Z</time>
      </trkpt>
      <trkpt lat="45.33159" lon="3.04117">
        <ele>1130.3</ele>
        <time>2021-08-24T14:06:13Z</time>
      </trkpt>
      <trkpt lat="45.33161" lon="3.04126">
        <ele>1130.5</ele>
        <time>2021-08-24T14:06:15Z</time>
      </trkpt>
      <trkpt lat="45.33162" lon="3.04135">
        <ele>1130.6</ele>
        <time>2021-08-24T14:06:17Z</time>
      </trkpt>
      <trkpt lat="45.33165" lon="3.04142">
        <ele>1130.9</ele>
        <time>2021-08-24T14:06:19Z</time>
      </trkpt>
      <trkpt lat="45.33166" lon="3.0415">
        <ele>1131</ele>
        <time>2021-08-24T14:06:21Z</time>
      </trkpt>
      <trkpt lat="45.3317" lon="3.04157">
        <ele>1131.3</ele>
        <time>2021-08-24T14:06:23Z</time>
      </trkpt>
      <trkpt lat="45.33173" lon="3.04163">
        <ele>1131.3</ele>
        <time>2021-08-24T14:06:25Z</time>
      </trkpt>
      <trkpt lat="45.33177" lon="3.04168">
        <ele>1131.2</ele>
        <time>2021-08-24T14:06:27Z</time>
      </trkpt>
      <trkpt lat="45.33182" lon="3.04174">
        <ele>1130.9</ele>
        <time>2021-08-24T14:06:29Z</time>
      </trkpt>
      <trkpt lat="45.33185" lon="3.04179">
        <ele>1130.6</ele>
        <time>2021-08-24T14:06:31Z</time>
      </trkpt>
      <trkpt lat="45.33188" lon="3.04185">
        <ele>1130.2</ele>
        <time>2021-08-24T14:06:33Z</time>
      </trkpt>
      <trkpt lat="45.33193" lon="3.04189">
        <ele>1130</ele>
        <time>2021-08-24T14:06:35Z</time>
      </trkpt>
      <trkpt lat="45.33197" lon="3.04194">
        <ele>1129.7</ele>
        <time>2021-08-24T14:06:37Z</time>
      </trkpt>
      <trkpt lat="45.33201" lon="3.04199">
        <ele>1129.4</ele>
        <time>2021-08-24T14:06:39Z</time>
      </trkpt>
      <trkpt lat="45.33205" lon="3.04204">
        <ele>1129.1</ele>
        <time>2021-08-24T14:06:41Z</time>
      </trkpt>
      <trkpt lat="45.33209" lon="3.04207">
        <ele>1128.9</ele>
        <time>2021-08-24T14:06:43Z</time>
      </trkpt>
      <trkpt lat="45.33214" lon="3.04209">
        <ele>1128.8</ele>
        <time>2021-08-24T14:06:45Z</time>
      </trkpt>
      <trkpt lat="45.33219" lon="3.04211">
        <ele>1128.8</ele>
        <time>2021-08-24T14:06:47Z</time>
      </trkpt>
      <trkpt lat="45.33222" lon="3.04213">
        <ele>1128.8</ele>
        <time>2021-08-24T14:06:49Z</time>
      </trkpt>
      <trkpt lat="45.33227" lon="3.04214">
        <ele>1128.7</ele>
        <time>2021-08-24T14:06:51Z</time>
      </trkpt>
      <trkpt lat="45.33231" lon="3.04215">
        <ele>1128.8</ele>
        <time>2021-08-24T14:06:53Z</time>
      </trkpt>
      <trkpt lat="45.33236" lon="3.04215">
        <ele>1128.9</ele>
        <time>2021-08-24T14:06:55Z</time>
      </trkpt>
      <trkpt lat="45.3324" lon="3.04214">
        <ele>1129.2</ele>
        <time>2021-08-24T14:06:57Z</time>
      </trkpt>
      <trkpt lat="45.33243" lon="3.04213">
        <ele>1129.3</ele>
        <time>2021-08-24T14:06:59Z</time>
      </trkpt>
      <trkpt lat="45.33247" lon="3.04214">
        <ele>1129.4</ele>
        <time>2021-08-24T14:07:01Z</time>
      </trkpt>
      <trkpt lat="45.33249" lon="3.04216">
        <ele>1129.2</ele>
        <time>2021-08-24T14:07:03Z</time>
      </trkpt>
      <trkpt lat="45.33251" lon="3.04218">
        <ele>1129</ele>
        <time>2021-08-24T14:07:05Z</time>
      </trkpt>
      <trkpt lat="45.33251" lon="3.04217">
        <ele>1129.1</ele>
        <time>2021-08-24T14:07:07Z</time>
      </trkpt>
      <trkpt lat="45.33251" lon="3.04217">
        <ele>1129.1</ele>
        <time>2021-08-24T14:07:09Z</time>
      </trkpt>
      <trkpt lat="45.33251" lon="3.04217">
        <ele>1129</ele>
        <time>2021-08-24T14:07:11Z</time>
      </trkpt>
      <trkpt lat="45.33251" lon="3.04218">
        <ele>1129</ele>
        <time>2021-08-24T14:07:13Z</time>
      </trkpt>
      <trkpt lat="45.3326" lon="3.04209">
        <ele>1129.1</ele>
        <time>2021-08-24T14:09:21Z</time>
      </trkpt>
      <trkpt lat="45.33263" lon="3.04208">
        <ele>1129</ele>
        <time>2021-08-24T14:09:23Z</time>
      </trkpt>
      <trkpt lat="45.33265" lon="3.04206">
        <ele>1129</ele>
        <time>2021-08-24T14:09:25Z</time>
      </trkpt>
      <trkpt lat="45.33267" lon="3.04205">
        <ele>1128.9</ele>
        <time>2021-08-24T14:09:27Z</time>
      </trkpt>
      <trkpt lat="45.3327" lon="3.04204">
        <ele>1128.8</ele>
        <time>2021-08-24T14:09:29Z</time>
      </trkpt>
      <trkpt lat="45.33272" lon="3.04202">
        <ele>1128.7</ele>
        <time>2021-08-24T14:09:31Z</time>
      </trkpt>
      <trkpt lat="45.33275" lon="3.042">
        <ele>1128.6</ele>
        <time>2021-08-24T14:09:33Z</time>
      </trkpt>
      <trkpt lat="45.33277" lon="3.04198">
        <ele>1128.6</ele>
        <time>2021-08-24T14:09:35Z</time>
      </trkpt>
      <trkpt lat="45.33279" lon="3.04196">
        <ele>1128.7</ele>
        <time>2021-08-24T14:09:37Z</time>
      </trkpt>
      <trkpt lat="45.33282" lon="3.04195">
        <ele>1128.5</ele>
        <time>2021-08-24T14:09:39Z</time>
      </trkpt>
      <trkpt lat="45.33285" lon="3.04194">
        <ele>1128.3</ele>
        <time>2021-08-24T14:09:41Z</time>
      </trkpt>
      <trkpt lat="45.33287" lon="3.04192">
        <ele>1128.3</ele>
        <time>2021-08-24T14:09:43Z</time>
      </trkpt>
      <trkpt lat="45.3329" lon="3.0419">
        <ele>1128.2</ele>
        <time>2021-08-24T14:09:45Z</time>
      </trkpt>
      <trkpt lat="45.33292" lon="3.04189">
        <ele>1128</ele>
        <time>2021-08-24T14:09:47Z</time>
      </trkpt>
      <trkpt lat="45.33295" lon="3.04188">
        <ele>1127.9</ele>
        <time>2021-08-24T14:09:49Z</time>
      </trkpt>
      <trkpt lat="45.33299" lon="3.04188">
        <ele>1127.5</ele>
        <time>2021-08-24T14:09:51Z</time>
      </trkpt>
      <trkpt lat="45.33303" lon="3.04184">
        <ele>1127.5</ele>
        <time>2021-08-24T14:09:53Z</time>
      </trkpt>
      <trkpt lat="45.333" lon="3.04181">
        <ele>1128.1</ele>
        <time>2021-08-24T14:09:55Z</time>
      </trkpt>
      <trkpt lat="45.33297" lon="3.04184">
        <ele>1128</ele>
        <time>2021-08-24T14:09:57Z</time>
      </trkpt>
      <trkpt lat="45.33295" lon="3.04187">
        <ele>1127.9</ele>
        <time>2021-08-24T14:09:59Z</time>
      </trkpt>
      <trkpt lat="45.33293" lon="3.04188">
        <ele>1128.1</ele>
        <time>2021-08-24T14:10:01Z</time>
      </trkpt>
      <trkpt lat="45.33292" lon="3.04192">
        <ele>1127.8</ele>
        <time>2021-08-24T14:10:03Z</time>
      </trkpt>
      <trkpt lat="45.33295" lon="3.04195">
        <ele>1127.4</ele>
        <time>2021-08-24T14:10:05Z</time>
      </trkpt>
      <trkpt lat="45.33297" lon="3.04195">
        <ele>1127.1</ele>
        <time>2021-08-24T14:10:07Z</time>
      </trkpt>
      <trkpt lat="45.333" lon="3.04192">
        <ele>1127.1</ele>
        <time>2021-08-24T14:10:09Z</time>
      </trkpt>
      <trkpt lat="45.33301" lon="3.0419">
        <ele>1127.2</ele>
        <time>2021-08-24T14:10:11Z</time>
      </trkpt>
      <trkpt lat="45.33305" lon="3.04187">
        <ele>1127.1</ele>
        <time>2021-08-24T14:10:13Z</time>
      </trkpt>
      <trkpt lat="45.33309" lon="3.04185">
        <ele>1126.9</ele>
        <time>2021-08-24T14:10:15Z</time>
      </trkpt>
      <trkpt lat="45.33313" lon="3.04182">
        <ele>1126.7</ele>
        <time>2021-08-24T14:10:17Z</time>
      </trkpt>
      <trkpt lat="45.33317" lon="3.04179">
        <ele>1126.6</ele>
        <time>2021-08-24T14:10:19Z</time>
      </trkpt>
      <trkpt lat="45.33322" lon="3.04176">
        <ele>1126.4</ele>
        <time>2021-08-24T14:10:21Z</time>
      </trkpt>
      <trkpt lat="45.33326" lon="3.04173">
        <ele>1126.2</ele>
        <time>2021-08-24T14:10:23Z</time>
      </trkpt>
      <trkpt lat="45.3333" lon="3.0417">
        <ele>1126.1</ele>
        <time>2021-08-24T14:10:25Z</time>
      </trkpt>
      <trkpt lat="45.33334" lon="3.04167">
        <ele>1125.9</ele>
        <time>2021-08-24T14:10:27Z</time>
      </trkpt>
      <trkpt lat="45.33338" lon="3.04164">
        <ele>1125.9</ele>
        <time>2021-08-24T14:10:29Z</time>
      </trkpt>
      <trkpt lat="45.33342" lon="3.04161">
        <ele>1126</ele>
        <time>2021-08-24T14:10:31Z</time>
      </trkpt>
      <trkpt lat="45.33346" lon="3.04157">
        <ele>1126.2</ele>
        <time>2021-08-24T14:10:33Z</time>
      </trkpt>
      <trkpt lat="45.3335" lon="3.04153">
        <ele>1126.3</ele>
        <time>2021-08-24T14:10:35Z</time>
      </trkpt>
      <trkpt lat="45.33354" lon="3.0415">
        <ele>1126.3</ele>
        <time>2021-08-24T14:10:37Z</time>
      </trkpt>
      <trkpt lat="45.33358" lon="3.04145">
        <ele>1126.5</ele>
        <time>2021-08-24T14:10:39Z</time>
      </trkpt>
      <trkpt lat="45.3336" lon="3.04141">
        <ele>1126.8</ele>
        <time>2021-08-24T14:10:41Z</time>
      </trkpt>
      <trkpt lat="45.33363" lon="3.04137">
        <ele>1126.9</ele>
        <time>2021-08-24T14:10:43Z</time>
      </trkpt>
      <trkpt lat="45.33366" lon="3.04134">
        <ele>1127</ele>
        <time>2021-08-24T14:10:45Z</time>
      </trkpt>
      <trkpt lat="45.33369" lon="3.0413">
        <ele>1127.2</ele>
        <time>2021-08-24T14:10:47Z</time>
      </trkpt>
      <trkpt lat="45.33371" lon="3.04127">
        <ele>1127.3</ele>
        <time>2021-08-24T14:10:49Z</time>
      </trkpt>
      <trkpt lat="45.33375" lon="3.04124">
        <ele>1127.4</ele>
        <time>2021-08-24T14:10:51Z</time>
      </trkpt>
      <trkpt lat="45.33378" lon="3.04122">
        <ele>1127.3</ele>
        <time>2021-08-24T14:10:53Z</time>
      </trkpt>
      <trkpt lat="45.33382" lon="3.04121">
        <ele>1127.1</ele>
        <time>2021-08-24T14:10:55Z</time>
      </trkpt>
      <trkpt lat="45.33385" lon="3.04119">
        <ele>1127.1</ele>
        <time>2021-08-24T14:10:57Z</time>
      </trkpt>
      <trkpt lat="45.33387" lon="3.04116">
        <ele>1127.3</ele>
        <time>2021-08-24T14:10:59Z</time>
      </trkpt>
      <trkpt lat="45.3339" lon="3.0411">
        <ele>1127.5</ele>
        <time>2021-08-24T14:11:01Z</time>
      </trkpt>
      <trkpt lat="45.33392" lon="3.04105">
        <ele>1127.9</ele>
        <time>2021-08-24T14:11:03Z</time>
      </trkpt>
      <trkpt lat="45.33394" lon="3.04099">
        <ele>1128.3</ele>
        <time>2021-08-24T14:11:05Z</time>
      </trkpt>
      <trkpt lat="45.33396" lon="3.04092">
        <ele>1128.7</ele>
        <time>2021-08-24T14:11:07Z</time>
      </trkpt>
      <trkpt lat="45.33397" lon="3.04087">
        <ele>1129.1</ele>
        <time>2021-08-24T14:11:09Z</time>
      </trkpt>
      <trkpt lat="45.334" lon="3.04084">
        <ele>1129.2</ele>
        <time>2021-08-24T14:11:11Z</time>
      </trkpt>
      <trkpt lat="45.33404" lon="3.04082">
        <ele>1129.1</ele>
        <time>2021-08-24T14:11:13Z</time>
      </trkpt>
      <trkpt lat="45.33406" lon="3.0408">
        <ele>1129.1</ele>
        <time>2021-08-24T14:11:15Z</time>
      </trkpt>
      <trkpt lat="45.33409" lon="3.04078">
        <ele>1129.1</ele>
        <time>2021-08-24T14:11:17Z</time>
      </trkpt>
      <trkpt lat="45.3341" lon="3.04077">
        <ele>1129.1</ele>
        <time>2021-08-24T14:11:19Z</time>
      </trkpt>
      <trkpt lat="45.33412" lon="3.04077">
        <ele>1129</ele>
        <time>2021-08-24T14:11:21Z</time>
      </trkpt>
      <trkpt lat="45.33414" lon="3.04076">
        <ele>1129</ele>
        <time>2021-08-24T14:11:23Z</time>
      </trkpt>
      <trkpt lat="45.33415" lon="3.04075">
        <ele>1129</ele>
        <time>2021-08-24T14:11:25Z</time>
      </trkpt>
      <trkpt lat="45.33434" lon="3.04064">
        <ele>1130</ele>
        <time>2021-08-24T14:13:17Z</time>
      </trkpt>
      <trkpt lat="45.33438" lon="3.04062">
        <ele>1130.3</ele>
        <time>2021-08-24T14:13:19Z</time>
      </trkpt>
      <trkpt lat="45.33442" lon="3.04061">
        <ele>1130.4</ele>
        <time>2021-08-24T14:13:21Z</time>
      </trkpt>
      <trkpt lat="45.33446" lon="3.04059">
        <ele>1130.6</ele>
        <time>2021-08-24T14:13:23Z</time>
      </trkpt>
      <trkpt lat="45.3345" lon="3.04057">
        <ele>1130.9</ele>
        <time>2021-08-24T14:13:25Z</time>
      </trkpt>
      <trkpt lat="45.33454" lon="3.04055">
        <ele>1131</ele>
        <time>2021-08-24T14:13:27Z</time>
      </trkpt>
      <trkpt lat="45.33458" lon="3.04053">
        <ele>1131.3</ele>
        <time>2021-08-24T14:13:29Z</time>
      </trkpt>
      <trkpt lat="45.33463" lon="3.04052">
        <ele>1131.4</ele>
        <time>2021-08-24T14:13:31Z</time>
      </trkpt>
      <trkpt lat="45.33467" lon="3.04049">
        <ele>1131.7</ele>
        <time>2021-08-24T14:13:33Z</time>
      </trkpt>
      <trkpt lat="45.33471" lon="3.04047">
        <ele>1131.9</ele>
        <time>2021-08-24T14:13:35Z</time>
      </trkpt>
      <trkpt lat="45.33475" lon="3.04045">
        <ele>1132.1</ele>
        <time>2021-08-24T14:13:37Z</time>
      </trkpt>
      <trkpt lat="45.33479" lon="3.04043">
        <ele>1132.3</ele>
        <time>2021-08-24T14:13:39Z</time>
      </trkpt>
      <trkpt lat="45.33483" lon="3.04041">
        <ele>1132.6</ele>
        <time>2021-08-24T14:13:41Z</time>
      </trkpt>
      <trkpt lat="45.33487" lon="3.04039">
        <ele>1132.8</ele>
        <time>2021-08-24T14:13:43Z</time>
      </trkpt>
      <trkpt lat="45.33492" lon="3.04037">
        <ele>1133</ele>
        <time>2021-08-24T14:13:45Z</time>
      </trkpt>
      <trkpt lat="45.33496" lon="3.04035">
        <ele>1133.2</ele>
        <time>2021-08-24T14:13:47Z</time>
      </trkpt>
      <trkpt lat="45.335" lon="3.04033">
        <ele>1133.4</ele>
        <time>2021-08-24T14:13:49Z</time>
      </trkpt>
      <trkpt lat="45.33504" lon="3.04031">
        <ele>1133.5</ele>
        <time>2021-08-24T14:13:51Z</time>
      </trkpt>
      <trkpt lat="45.33507" lon="3.04029">
        <ele>1133.5</ele>
        <time>2021-08-24T14:13:53Z</time>
      </trkpt>
      <trkpt lat="45.33511" lon="3.04027">
        <ele>1133.6</ele>
        <time>2021-08-24T14:13:55Z</time>
      </trkpt>
      <trkpt lat="45.33515" lon="3.04025">
        <ele>1133.6</ele>
        <time>2021-08-24T14:13:57Z</time>
      </trkpt>
      <trkpt lat="45.33519" lon="3.04023">
        <ele>1133.6</ele>
        <time>2021-08-24T14:13:59Z</time>
      </trkpt>
      <trkpt lat="45.33522" lon="3.04021">
        <ele>1133.7</ele>
        <time>2021-08-24T14:14:01Z</time>
      </trkpt>
      <trkpt lat="45.33526" lon="3.04019">
        <ele>1133.7</ele>
        <time>2021-08-24T14:14:03Z</time>
      </trkpt>
      <trkpt lat="45.3353" lon="3.04017">
        <ele>1133.7</ele>
        <time>2021-08-24T14:14:05Z</time>
      </trkpt>
      <trkpt lat="45.33534" lon="3.04014">
        <ele>1133.8</ele>
        <time>2021-08-24T14:14:07Z</time>
      </trkpt>
      <trkpt lat="45.33538" lon="3.04012">
        <ele>1133.9</ele>
        <time>2021-08-24T14:14:09Z</time>
      </trkpt>
      <trkpt lat="45.33542" lon="3.04009">
        <ele>1134</ele>
        <time>2021-08-24T14:14:11Z</time>
      </trkpt>
      <trkpt lat="45.33546" lon="3.04007">
        <ele>1134</ele>
        <time>2021-08-24T14:14:13Z</time>
      </trkpt>
      <trkpt lat="45.3355" lon="3.04005">
        <ele>1134</ele>
        <time>2021-08-24T14:14:15Z</time>
      </trkpt>
      <trkpt lat="45.33554" lon="3.04003">
        <ele>1134.1</ele>
        <time>2021-08-24T14:14:17Z</time>
      </trkpt>
      <trkpt lat="45.33557" lon="3.04001">
        <ele>1134.1</ele>
        <time>2021-08-24T14:14:19Z</time>
      </trkpt>
      <trkpt lat="45.33561" lon="3.03999">
        <ele>1134.1</ele>
        <time>2021-08-24T14:14:21Z</time>
      </trkpt>
      <trkpt lat="45.33565" lon="3.03997">
        <ele>1134.1</ele>
        <time>2021-08-24T14:14:23Z</time>
      </trkpt>
      <trkpt lat="45.33568" lon="3.03995">
        <ele>1134.1</ele>
        <time>2021-08-24T14:14:25Z</time>
      </trkpt>
      <trkpt lat="45.33572" lon="3.03992">
        <ele>1134.1</ele>
        <time>2021-08-24T14:14:27Z</time>
      </trkpt>
      <trkpt lat="45.33575" lon="3.03988">
        <ele>1134.2</ele>
        <time>2021-08-24T14:14:29Z</time>
      </trkpt>
      <trkpt lat="45.33577" lon="3.03984">
        <ele>1134.4</ele>
        <time>2021-08-24T14:14:31Z</time>
      </trkpt>
      <trkpt lat="45.33579" lon="3.0398">
        <ele>1134.6</ele>
        <time>2021-08-24T14:14:33Z</time>
      </trkpt>
      <trkpt lat="45.33581" lon="3.03975">
        <ele>1134.9</ele>
        <time>2021-08-24T14:14:35Z</time>
      </trkpt>
      <trkpt lat="45.33584" lon="3.03971">
        <ele>1135.1</ele>
        <time>2021-08-24T14:14:37Z</time>
      </trkpt>
      <trkpt lat="45.33584" lon="3.03965">
        <ele>1135.4</ele>
        <time>2021-08-24T14:14:39Z</time>
      </trkpt>
      <trkpt lat="45.33586" lon="3.03961">
        <ele>1135.5</ele>
        <time>2021-08-24T14:14:41Z</time>
      </trkpt>
      <trkpt lat="45.33588" lon="3.03956">
        <ele>1135.6</ele>
        <time>2021-08-24T14:14:43Z</time>
      </trkpt>
      <trkpt lat="45.33589" lon="3.03951">
        <ele>1135.9</ele>
        <time>2021-08-24T14:14:45Z</time>
      </trkpt>
      <trkpt lat="45.33589" lon="3.03946">
        <ele>1136.2</ele>
        <time>2021-08-24T14:14:47Z</time>
      </trkpt>
      <trkpt lat="45.3359" lon="3.03941">
        <ele>1136.6</ele>
        <time>2021-08-24T14:14:49Z</time>
      </trkpt>
      <trkpt lat="45.3359" lon="3.03936">
        <ele>1137</ele>
        <time>2021-08-24T14:14:51Z</time>
      </trkpt>
      <trkpt lat="45.3359" lon="3.03931">
        <ele>1137.4</ele>
        <time>2021-08-24T14:14:53Z</time>
      </trkpt>
      <trkpt lat="45.33589" lon="3.03925">
        <ele>1137.9</ele>
        <time>2021-08-24T14:14:55Z</time>
      </trkpt>
      <trkpt lat="45.33588" lon="3.03919">
        <ele>1138.4</ele>
        <time>2021-08-24T14:14:57Z</time>
      </trkpt>
      <trkpt lat="45.33587" lon="3.03914">
        <ele>1138.8</ele>
        <time>2021-08-24T14:14:59Z</time>
      </trkpt>
      <trkpt lat="45.33586" lon="3.03909">
        <ele>1139.2</ele>
        <time>2021-08-24T14:15:01Z</time>
      </trkpt>
      <trkpt lat="45.33585" lon="3.03904">
        <ele>1139.6</ele>
        <time>2021-08-24T14:15:03Z</time>
      </trkpt>
      <trkpt lat="45.33584" lon="3.03899">
        <ele>1140</ele>
        <time>2021-08-24T14:15:05Z</time>
      </trkpt>
      <trkpt lat="45.33583" lon="3.03894">
        <ele>1140.4</ele>
        <time>2021-08-24T14:15:07Z</time>
      </trkpt>
      <trkpt lat="45.33582" lon="3.03889">
        <ele>1140.7</ele>
        <time>2021-08-24T14:15:09Z</time>
      </trkpt>
      <trkpt lat="45.33581" lon="3.03884">
        <ele>1141</ele>
        <time>2021-08-24T14:15:11Z</time>
      </trkpt>
      <trkpt lat="45.33579" lon="3.03878">
        <ele>1141.4</ele>
        <time>2021-08-24T14:15:13Z</time>
      </trkpt>
      <trkpt lat="45.33578" lon="3.03873">
        <ele>1141.8</ele>
        <time>2021-08-24T14:15:15Z</time>
      </trkpt>
      <trkpt lat="45.33578" lon="3.03867">
        <ele>1142.2</ele>
        <time>2021-08-24T14:15:17Z</time>
      </trkpt>
      <trkpt lat="45.33578" lon="3.03861">
        <ele>1142.6</ele>
        <time>2021-08-24T14:15:19Z</time>
      </trkpt>
      <trkpt lat="45.33578" lon="3.03854">
        <ele>1142.9</ele>
        <time>2021-08-24T14:15:21Z</time>
      </trkpt>
      <trkpt lat="45.33579" lon="3.03848">
        <ele>1143.3</ele>
        <time>2021-08-24T14:15:23Z</time>
      </trkpt>
      <trkpt lat="45.3358" lon="3.03842">
        <ele>1143.6</ele>
        <time>2021-08-24T14:15:25Z</time>
      </trkpt>
      <trkpt lat="45.33582" lon="3.03837">
        <ele>1143.8</ele>
        <time>2021-08-24T14:15:27Z</time>
      </trkpt>
      <trkpt lat="45.33585" lon="3.03832">
        <ele>1144</ele>
        <time>2021-08-24T14:15:29Z</time>
      </trkpt>
      <trkpt lat="45.33588" lon="3.03827">
        <ele>1144.1</ele>
        <time>2021-08-24T14:15:31Z</time>
      </trkpt>
      <trkpt lat="45.3359" lon="3.03821">
        <ele>1144.4</ele>
        <time>2021-08-24T14:15:33Z</time>
      </trkpt>
      <trkpt lat="45.33592" lon="3.03816">
        <ele>1144.5</ele>
        <time>2021-08-24T14:15:35Z</time>
      </trkpt>
      <trkpt lat="45.33594" lon="3.03811">
        <ele>1144.7</ele>
        <time>2021-08-24T14:15:37Z</time>
      </trkpt>
      <trkpt lat="45.33597" lon="3.03806">
        <ele>1144.9</ele>
        <time>2021-08-24T14:15:39Z</time>
      </trkpt>
      <trkpt lat="45.33598" lon="3.03801">
        <ele>1145.1</ele>
        <time>2021-08-24T14:15:41Z</time>
      </trkpt>
      <trkpt lat="45.33599" lon="3.03796">
        <ele>1145.3</ele>
        <time>2021-08-24T14:15:43Z</time>
      </trkpt>
      <trkpt lat="45.33601" lon="3.03791">
        <ele>1145.6</ele>
        <time>2021-08-24T14:15:45Z</time>
      </trkpt>
      <trkpt lat="45.33603" lon="3.03786">
        <ele>1145.8</ele>
        <time>2021-08-24T14:15:47Z</time>
      </trkpt>
      <trkpt lat="45.33604" lon="3.03781">
        <ele>1146</ele>
        <time>2021-08-24T14:15:49Z</time>
      </trkpt>
      <trkpt lat="45.33605" lon="3.03775">
        <ele>1146.4</ele>
        <time>2021-08-24T14:15:51Z</time>
      </trkpt>
      <trkpt lat="45.33607" lon="3.0377">
        <ele>1146.6</ele>
        <time>2021-08-24T14:15:53Z</time>
      </trkpt>
      <trkpt lat="45.33607" lon="3.03765">
        <ele>1146.9</ele>
        <time>2021-08-24T14:15:55Z</time>
      </trkpt>
      <trkpt lat="45.33608" lon="3.03759">
        <ele>1147.2</ele>
        <time>2021-08-24T14:15:57Z</time>
      </trkpt>
      <trkpt lat="45.33609" lon="3.03754">
        <ele>1147.5</ele>
        <time>2021-08-24T14:15:59Z</time>
      </trkpt>
      <trkpt lat="45.33609" lon="3.03748">
        <ele>1147.8</ele>
        <time>2021-08-24T14:16:01Z</time>
      </trkpt>
      <trkpt lat="45.3361" lon="3.03742">
        <ele>1148.1</ele>
        <time>2021-08-24T14:16:03Z</time>
      </trkpt>
      <trkpt lat="45.33609" lon="3.03737">
        <ele>1148.4</ele>
        <time>2021-08-24T14:16:05Z</time>
      </trkpt>
      <trkpt lat="45.33609" lon="3.03731">
        <ele>1148.7</ele>
        <time>2021-08-24T14:16:07Z</time>
      </trkpt>
      <trkpt lat="45.33609" lon="3.03725">
        <ele>1148.9</ele>
        <time>2021-08-24T14:16:09Z</time>
      </trkpt>
      <trkpt lat="45.33608" lon="3.0372">
        <ele>1149.2</ele>
        <time>2021-08-24T14:16:11Z</time>
      </trkpt>
      <trkpt lat="45.33609" lon="3.03715">
        <ele>1149.4</ele>
        <time>2021-08-24T14:16:13Z</time>
      </trkpt>
      <trkpt lat="45.33608" lon="3.0371">
        <ele>1149.7</ele>
        <time>2021-08-24T14:16:15Z</time>
      </trkpt>
      <trkpt lat="45.33607" lon="3.03705">
        <ele>1149.9</ele>
        <time>2021-08-24T14:16:17Z</time>
      </trkpt>
      <trkpt lat="45.33607" lon="3.03699">
        <ele>1150.2</ele>
        <time>2021-08-24T14:16:19Z</time>
      </trkpt>
      <trkpt lat="45.33607" lon="3.03693">
        <ele>1150.5</ele>
        <time>2021-08-24T14:16:21Z</time>
      </trkpt>
      <trkpt lat="45.33606" lon="3.03688">
        <ele>1150.7</ele>
        <time>2021-08-24T14:16:23Z</time>
      </trkpt>
      <trkpt lat="45.33606" lon="3.03683">
        <ele>1151</ele>
        <time>2021-08-24T14:16:25Z</time>
      </trkpt>
      <trkpt lat="45.33606" lon="3.03678">
        <ele>1151.2</ele>
        <time>2021-08-24T14:16:27Z</time>
      </trkpt>
      <trkpt lat="45.33605" lon="3.03672">
        <ele>1151.5</ele>
        <time>2021-08-24T14:16:29Z</time>
      </trkpt>
      <trkpt lat="45.33605" lon="3.03667">
        <ele>1151.7</ele>
        <time>2021-08-24T14:16:31Z</time>
      </trkpt>
      <trkpt lat="45.33605" lon="3.03661">
        <ele>1152.2</ele>
        <time>2021-08-24T14:16:33Z</time>
      </trkpt>
      <trkpt lat="45.33605" lon="3.03656">
        <ele>1152.7</ele>
        <time>2021-08-24T14:16:35Z</time>
      </trkpt>
      <trkpt lat="45.33606" lon="3.0365">
        <ele>1153.1</ele>
        <time>2021-08-24T14:16:37Z</time>
      </trkpt>
      <trkpt lat="45.33606" lon="3.03645">
        <ele>1153.6</ele>
        <time>2021-08-24T14:16:39Z</time>
      </trkpt>
      <trkpt lat="45.33606" lon="3.03639">
        <ele>1154.1</ele>
        <time>2021-08-24T14:16:41Z</time>
      </trkpt>
      <trkpt lat="45.33607" lon="3.03634">
        <ele>1154.5</ele>
        <time>2021-08-24T14:16:43Z</time>
      </trkpt>
      <trkpt lat="45.33609" lon="3.03629">
        <ele>1154.9</ele>
        <time>2021-08-24T14:16:45Z</time>
      </trkpt>
      <trkpt lat="45.3361" lon="3.03624">
        <ele>1155.3</ele>
        <time>2021-08-24T14:16:47Z</time>
      </trkpt>
      <trkpt lat="45.33611" lon="3.03618">
        <ele>1155.7</ele>
        <time>2021-08-24T14:16:49Z</time>
      </trkpt>
      <trkpt lat="45.33613" lon="3.03613">
        <ele>1156.1</ele>
        <time>2021-08-24T14:16:51Z</time>
      </trkpt>
      <trkpt lat="45.33616" lon="3.03609">
        <ele>1156.3</ele>
        <time>2021-08-24T14:16:53Z</time>
      </trkpt>
      <trkpt lat="45.33619" lon="3.03605">
        <ele>1156.6</ele>
        <time>2021-08-24T14:16:55Z</time>
      </trkpt>
      <trkpt lat="45.33622" lon="3.03601">
        <ele>1156.7</ele>
        <time>2021-08-24T14:16:57Z</time>
      </trkpt>
      <trkpt lat="45.33624" lon="3.03598">
        <ele>1156.9</ele>
        <time>2021-08-24T14:16:59Z</time>
      </trkpt>
      <trkpt lat="45.33627" lon="3.03595">
        <ele>1157</ele>
        <time>2021-08-24T14:17:01Z</time>
      </trkpt>
      <trkpt lat="45.33631" lon="3.03593">
        <ele>1157</ele>
        <time>2021-08-24T14:17:03Z</time>
      </trkpt>
      <trkpt lat="45.33634" lon="3.03591">
        <ele>1157</ele>
        <time>2021-08-24T14:17:05Z</time>
      </trkpt>
      <trkpt lat="45.33637" lon="3.03588">
        <ele>1157</ele>
        <time>2021-08-24T14:17:07Z</time>
      </trkpt>
      <trkpt lat="45.33641" lon="3.03586">
        <ele>1157.1</ele>
        <time>2021-08-24T14:17:09Z</time>
      </trkpt>
      <trkpt lat="45.33644" lon="3.03584">
        <ele>1157.1</ele>
        <time>2021-08-24T14:17:11Z</time>
      </trkpt>
      <trkpt lat="45.33647" lon="3.03581">
        <ele>1157.2</ele>
        <time>2021-08-24T14:17:13Z</time>
      </trkpt>
      <trkpt lat="45.3365" lon="3.03579">
        <ele>1157.3</ele>
        <time>2021-08-24T14:17:15Z</time>
      </trkpt>
      <trkpt lat="45.33653" lon="3.03576">
        <ele>1157.5</ele>
        <time>2021-08-24T14:17:17Z</time>
      </trkpt>
      <trkpt lat="45.33656" lon="3.03574">
        <ele>1157.7</ele>
        <time>2021-08-24T14:17:19Z</time>
      </trkpt>
      <trkpt lat="45.33659" lon="3.0357">
        <ele>1158</ele>
        <time>2021-08-24T14:17:21Z</time>
      </trkpt>
      <trkpt lat="45.33661" lon="3.03567">
        <ele>1158.3</ele>
        <time>2021-08-24T14:17:23Z</time>
      </trkpt>
      <trkpt lat="45.33663" lon="3.03563">
        <ele>1158.7</ele>
        <time>2021-08-24T14:17:25Z</time>
      </trkpt>
      <trkpt lat="45.33665" lon="3.03559">
        <ele>1159</ele>
        <time>2021-08-24T14:17:27Z</time>
      </trkpt>
      <trkpt lat="45.33667" lon="3.03555">
        <ele>1159.4</ele>
        <time>2021-08-24T14:17:29Z</time>
      </trkpt>
      <trkpt lat="45.33669" lon="3.03551">
        <ele>1159.8</ele>
        <time>2021-08-24T14:17:31Z</time>
      </trkpt>
      <trkpt lat="45.33671" lon="3.03547">
        <ele>1160.3</ele>
        <time>2021-08-24T14:17:33Z</time>
      </trkpt>
      <trkpt lat="45.33672" lon="3.03542">
        <ele>1160.8</ele>
        <time>2021-08-24T14:17:35Z</time>
      </trkpt>
      <trkpt lat="45.33675" lon="3.03537">
        <ele>1161.2</ele>
        <time>2021-08-24T14:17:37Z</time>
      </trkpt>
      <trkpt lat="45.33677" lon="3.03533">
        <ele>1161.6</ele>
        <time>2021-08-24T14:17:39Z</time>
      </trkpt>
      <trkpt lat="45.3368" lon="3.03529">
        <ele>1162</ele>
        <time>2021-08-24T14:17:41Z</time>
      </trkpt>
      <trkpt lat="45.33683" lon="3.03526">
        <ele>1162.3</ele>
        <time>2021-08-24T14:17:43Z</time>
      </trkpt>
      <trkpt lat="45.33686" lon="3.03523">
        <ele>1162.6</ele>
        <time>2021-08-24T14:17:45Z</time>
      </trkpt>
      <trkpt lat="45.33689" lon="3.03519">
        <ele>1162.8</ele>
        <time>2021-08-24T14:17:47Z</time>
      </trkpt>
      <trkpt lat="45.33692" lon="3.03516">
        <ele>1163</ele>
        <time>2021-08-24T14:17:49Z</time>
      </trkpt>
      <trkpt lat="45.33695" lon="3.03514">
        <ele>1163.2</ele>
        <time>2021-08-24T14:17:51Z</time>
      </trkpt>
      <trkpt lat="45.33698" lon="3.03511">
        <ele>1163.3</ele>
        <time>2021-08-24T14:17:53Z</time>
      </trkpt>
      <trkpt lat="45.33701" lon="3.03508">
        <ele>1163.5</ele>
        <time>2021-08-24T14:17:55Z</time>
      </trkpt>
      <trkpt lat="45.33704" lon="3.03505">
        <ele>1163.6</ele>
        <time>2021-08-24T14:17:57Z</time>
      </trkpt>
      <trkpt lat="45.33708" lon="3.03503">
        <ele>1163.7</ele>
        <time>2021-08-24T14:17:59Z</time>
      </trkpt>
      <trkpt lat="45.33711" lon="3.03501">
        <ele>1163.8</ele>
        <time>2021-08-24T14:18:01Z</time>
      </trkpt>
      <trkpt lat="45.33715" lon="3.03498">
        <ele>1164</ele>
        <time>2021-08-24T14:18:03Z</time>
      </trkpt>
      <trkpt lat="45.33718" lon="3.03496">
        <ele>1164.1</ele>
        <time>2021-08-24T14:18:05Z</time>
      </trkpt>
      <trkpt lat="45.33722" lon="3.03493">
        <ele>1164.4</ele>
        <time>2021-08-24T14:18:07Z</time>
      </trkpt>
      <trkpt lat="45.33725" lon="3.03491">
        <ele>1164.5</ele>
        <time>2021-08-24T14:18:09Z</time>
      </trkpt>
      <trkpt lat="45.33728" lon="3.03489">
        <ele>1164.7</ele>
        <time>2021-08-24T14:18:11Z</time>
      </trkpt>
      <trkpt lat="45.33731" lon="3.03487">
        <ele>1164.9</ele>
        <time>2021-08-24T14:18:13Z</time>
      </trkpt>
      <trkpt lat="45.33735" lon="3.03487">
        <ele>1164.8</ele>
        <time>2021-08-24T14:18:15Z</time>
      </trkpt>
      <trkpt lat="45.33739" lon="3.03485">
        <ele>1164.9</ele>
        <time>2021-08-24T14:18:17Z</time>
      </trkpt>
      <trkpt lat="45.33742" lon="3.03483">
        <ele>1165.1</ele>
        <time>2021-08-24T14:18:19Z</time>
      </trkpt>
      <trkpt lat="45.33746" lon="3.03482">
        <ele>1165.3</ele>
        <time>2021-08-24T14:18:21Z</time>
      </trkpt>
      <trkpt lat="45.33749" lon="3.03479">
        <ele>1165.5</ele>
        <time>2021-08-24T14:18:23Z</time>
      </trkpt>
      <trkpt lat="45.33753" lon="3.03478">
        <ele>1165.8</ele>
        <time>2021-08-24T14:18:25Z</time>
      </trkpt>
      <trkpt lat="45.33757" lon="3.03475">
        <ele>1166.3</ele>
        <time>2021-08-24T14:18:27Z</time>
      </trkpt>
      <trkpt lat="45.3376" lon="3.03472">
        <ele>1166.9</ele>
        <time>2021-08-24T14:18:29Z</time>
      </trkpt>
      <trkpt lat="45.33764" lon="3.0347">
        <ele>1167.3</ele>
        <time>2021-08-24T14:18:31Z</time>
      </trkpt>
      <trkpt lat="45.33767" lon="3.03467">
        <ele>1167.9</ele>
        <time>2021-08-24T14:18:33Z</time>
      </trkpt>
      <trkpt lat="45.3377" lon="3.03464">
        <ele>1168.5</ele>
        <time>2021-08-24T14:18:35Z</time>
      </trkpt>
      <trkpt lat="45.33774" lon="3.03461">
        <ele>1168.9</ele>
        <time>2021-08-24T14:18:37Z</time>
      </trkpt>
      <trkpt lat="45.33777" lon="3.03459">
        <ele>1169.4</ele>
        <time>2021-08-24T14:18:39Z</time>
      </trkpt>
      <trkpt lat="45.3378" lon="3.03455">
        <ele>1170</ele>
        <time>2021-08-24T14:18:41Z</time>
      </trkpt>
      <trkpt lat="45.33783" lon="3.03452">
        <ele>1170.6</ele>
        <time>2021-08-24T14:18:43Z</time>
      </trkpt>
      <trkpt lat="45.33786" lon="3.03449">
        <ele>1171.2</ele>
        <time>2021-08-24T14:18:45Z</time>
      </trkpt>
      <trkpt lat="45.33789" lon="3.03446">
        <ele>1171.8</ele>
        <time>2021-08-24T14:18:47Z</time>
      </trkpt>
      <trkpt lat="45.33792" lon="3.03442">
        <ele>1172.4</ele>
        <time>2021-08-24T14:18:49Z</time>
      </trkpt>
      <trkpt lat="45.33795" lon="3.03439">
        <ele>1172.9</ele>
        <time>2021-08-24T14:18:51Z</time>
      </trkpt>
      <trkpt lat="45.33797" lon="3.03435">
        <ele>1173.6</ele>
        <time>2021-08-24T14:18:53Z</time>
      </trkpt>
      <trkpt lat="45.338" lon="3.03431">
        <ele>1174.3</ele>
        <time>2021-08-24T14:18:55Z</time>
      </trkpt>
      <trkpt lat="45.33802" lon="3.03428">
        <ele>1174.8</ele>
        <time>2021-08-24T14:18:57Z</time>
      </trkpt>
      <trkpt lat="45.33805" lon="3.03424">
        <ele>1175.4</ele>
        <time>2021-08-24T14:18:59Z</time>
      </trkpt>
      <trkpt lat="45.33808" lon="3.03421">
        <ele>1176</ele>
        <time>2021-08-24T14:19:01Z</time>
      </trkpt>
      <trkpt lat="45.33812" lon="3.03418">
        <ele>1176.5</ele>
        <time>2021-08-24T14:19:03Z</time>
      </trkpt>
      <trkpt lat="45.33815" lon="3.03416">
        <ele>1176.8</ele>
        <time>2021-08-24T14:19:05Z</time>
      </trkpt>
      <trkpt lat="45.33819" lon="3.03414">
        <ele>1177.2</ele>
        <time>2021-08-24T14:19:07Z</time>
      </trkpt>
      <trkpt lat="45.33822" lon="3.03413">
        <ele>1177.5</ele>
        <time>2021-08-24T14:19:09Z</time>
      </trkpt>
      <trkpt lat="45.33826" lon="3.03412">
        <ele>1177.6</ele>
        <time>2021-08-24T14:19:11Z</time>
      </trkpt>
      <trkpt lat="45.3383" lon="3.03411">
        <ele>1177.8</ele>
        <time>2021-08-24T14:19:13Z</time>
      </trkpt>
      <trkpt lat="45.33834" lon="3.03411">
        <ele>1177.9</ele>
        <time>2021-08-24T14:19:15Z</time>
      </trkpt>
      <trkpt lat="45.33837" lon="3.03411">
        <ele>1178</ele>
        <time>2021-08-24T14:19:17Z</time>
      </trkpt>
      <trkpt lat="45.33841" lon="3.03412">
        <ele>1177.9</ele>
        <time>2021-08-24T14:19:19Z</time>
      </trkpt>
      <trkpt lat="45.33845" lon="3.03413">
        <ele>1177.9</ele>
        <time>2021-08-24T14:19:21Z</time>
      </trkpt>
      <trkpt lat="45.33849" lon="3.03414">
        <ele>1177.8</ele>
        <time>2021-08-24T14:19:23Z</time>
      </trkpt>
      <trkpt lat="45.33853" lon="3.03415">
        <ele>1177.8</ele>
        <time>2021-08-24T14:19:25Z</time>
      </trkpt>
      <trkpt lat="45.33857" lon="3.03416">
        <ele>1177.7</ele>
        <time>2021-08-24T14:19:27Z</time>
      </trkpt>
      <trkpt lat="45.33861" lon="3.03416">
        <ele>1177.8</ele>
        <time>2021-08-24T14:19:29Z</time>
      </trkpt>
      <trkpt lat="45.33865" lon="3.03416">
        <ele>1177.8</ele>
        <time>2021-08-24T14:19:31Z</time>
      </trkpt>
      <trkpt lat="45.33868" lon="3.03417">
        <ele>1177.8</ele>
        <time>2021-08-24T14:19:33Z</time>
      </trkpt>
      <trkpt lat="45.33872" lon="3.03418">
        <ele>1177.8</ele>
        <time>2021-08-24T14:19:35Z</time>
      </trkpt>
      <trkpt lat="45.33876" lon="3.03418">
        <ele>1177.9</ele>
        <time>2021-08-24T14:19:37Z</time>
      </trkpt>
      <trkpt lat="45.3388" lon="3.03418">
        <ele>1177.9</ele>
        <time>2021-08-24T14:19:39Z</time>
      </trkpt>
      <trkpt lat="45.33883" lon="3.03418">
        <ele>1178</ele>
        <time>2021-08-24T14:19:41Z</time>
      </trkpt>
      <trkpt lat="45.33887" lon="3.03417">
        <ele>1178.2</ele>
        <time>2021-08-24T14:19:43Z</time>
      </trkpt>
      <trkpt lat="45.33891" lon="3.03416">
        <ele>1178.4</ele>
        <time>2021-08-24T14:19:45Z</time>
      </trkpt>
      <trkpt lat="45.33894" lon="3.03415">
        <ele>1178.7</ele>
        <time>2021-08-24T14:19:47Z</time>
      </trkpt>
      <trkpt lat="45.33898" lon="3.03415">
        <ele>1178.8</ele>
        <time>2021-08-24T14:19:49Z</time>
      </trkpt>
      <trkpt lat="45.33901" lon="3.03413">
        <ele>1179.2</ele>
        <time>2021-08-24T14:19:51Z</time>
      </trkpt>
      <trkpt lat="45.33905" lon="3.03411">
        <ele>1179.6</ele>
        <time>2021-08-24T14:19:53Z</time>
      </trkpt>
      <trkpt lat="45.33909" lon="3.03409">
        <ele>1179.9</ele>
        <time>2021-08-24T14:19:55Z</time>
      </trkpt>
      <trkpt lat="45.33913" lon="3.03408">
        <ele>1180.2</ele>
        <time>2021-08-24T14:19:57Z</time>
      </trkpt>
      <trkpt lat="45.33917" lon="3.03406">
        <ele>1180.5</ele>
        <time>2021-08-24T14:19:59Z</time>
      </trkpt>
      <trkpt lat="45.3392" lon="3.03405">
        <ele>1180.8</ele>
        <time>2021-08-24T14:20:01Z</time>
      </trkpt>
      <trkpt lat="45.33924" lon="3.03404">
        <ele>1181.1</ele>
        <time>2021-08-24T14:20:03Z</time>
      </trkpt>
      <trkpt lat="45.33927" lon="3.03401">
        <ele>1181.5</ele>
        <time>2021-08-24T14:20:05Z</time>
      </trkpt>
      <trkpt lat="45.33931" lon="3.03399">
        <ele>1181.8</ele>
        <time>2021-08-24T14:20:07Z</time>
      </trkpt>
      <trkpt lat="45.33934" lon="3.03398">
        <ele>1182</ele>
        <time>2021-08-24T14:20:09Z</time>
      </trkpt>
      <trkpt lat="45.33938" lon="3.03397">
        <ele>1182.3</ele>
        <time>2021-08-24T14:20:11Z</time>
      </trkpt>
      <trkpt lat="45.33941" lon="3.03395">
        <ele>1182.6</ele>
        <time>2021-08-24T14:20:13Z</time>
      </trkpt>
      <trkpt lat="45.33944" lon="3.03394">
        <ele>1182.9</ele>
        <time>2021-08-24T14:20:15Z</time>
      </trkpt>
      <trkpt lat="45.33948" lon="3.03392">
        <ele>1183.1</ele>
        <time>2021-08-24T14:20:17Z</time>
      </trkpt>
      <trkpt lat="45.33951" lon="3.03391">
        <ele>1183.5</ele>
        <time>2021-08-24T14:20:19Z</time>
      </trkpt>
      <trkpt lat="45.33954" lon="3.03389">
        <ele>1183.8</ele>
        <time>2021-08-24T14:20:21Z</time>
      </trkpt>
      <trkpt lat="45.33957" lon="3.03388">
        <ele>1184</ele>
        <time>2021-08-24T14:20:23Z</time>
      </trkpt>
      <trkpt lat="45.3396" lon="3.03386">
        <ele>1184.3</ele>
        <time>2021-08-24T14:20:25Z</time>
      </trkpt>
      <trkpt lat="45.33963" lon="3.03384">
        <ele>1184.6</ele>
        <time>2021-08-24T14:20:27Z</time>
      </trkpt>
      <trkpt lat="45.33967" lon="3.03383">
        <ele>1184.8</ele>
        <time>2021-08-24T14:20:29Z</time>
      </trkpt>
      <trkpt lat="45.3397" lon="3.03381">
        <ele>1185.1</ele>
        <time>2021-08-24T14:20:31Z</time>
      </trkpt>
      <trkpt lat="45.33973" lon="3.0338">
        <ele>1185.4</ele>
        <time>2021-08-24T14:20:33Z</time>
      </trkpt>
      <trkpt lat="45.33977" lon="3.03378">
        <ele>1185.7</ele>
        <time>2021-08-24T14:20:35Z</time>
      </trkpt>
      <trkpt lat="45.3398" lon="3.03377">
        <ele>1185.9</ele>
        <time>2021-08-24T14:20:37Z</time>
      </trkpt>
      <trkpt lat="45.33983" lon="3.03376">
        <ele>1186.1</ele>
        <time>2021-08-24T14:20:39Z</time>
      </trkpt>
      <trkpt lat="45.33987" lon="3.03374">
        <ele>1186.4</ele>
        <time>2021-08-24T14:20:41Z</time>
      </trkpt>
      <trkpt lat="45.3399" lon="3.03373">
        <ele>1186.6</ele>
        <time>2021-08-24T14:20:43Z</time>
      </trkpt>
      <trkpt lat="45.33993" lon="3.03372">
        <ele>1186.8</ele>
        <time>2021-08-24T14:20:45Z</time>
      </trkpt>
      <trkpt lat="45.33997" lon="3.03371">
        <ele>1186.9</ele>
        <time>2021-08-24T14:20:47Z</time>
      </trkpt>
      <trkpt lat="45.34001" lon="3.0337">
        <ele>1187.2</ele>
        <time>2021-08-24T14:20:49Z</time>
      </trkpt>
      <trkpt lat="45.34004" lon="3.0337">
        <ele>1187.4</ele>
        <time>2021-08-24T14:20:51Z</time>
      </trkpt>
      <trkpt lat="45.34008" lon="3.0337">
        <ele>1187.6</ele>
        <time>2021-08-24T14:20:53Z</time>
      </trkpt>
      <trkpt lat="45.34013" lon="3.03369">
        <ele>1188</ele>
        <time>2021-08-24T14:20:55Z</time>
      </trkpt>
      <trkpt lat="45.34017" lon="3.03369">
        <ele>1188.3</ele>
        <time>2021-08-24T14:20:57Z</time>
      </trkpt>
      <trkpt lat="45.34022" lon="3.03371">
        <ele>1188.4</ele>
        <time>2021-08-24T14:20:59Z</time>
      </trkpt>
      <trkpt lat="45.34028" lon="3.03372">
        <ele>1188.5</ele>
        <time>2021-08-24T14:21:01Z</time>
      </trkpt>
      <trkpt lat="45.34034" lon="3.03373">
        <ele>1188.8</ele>
        <time>2021-08-24T14:21:03Z</time>
      </trkpt>
      <trkpt lat="45.34039" lon="3.03375">
        <ele>1188.9</ele>
        <time>2021-08-24T14:21:05Z</time>
      </trkpt>
      <trkpt lat="45.34045" lon="3.03376">
        <ele>1189.1</ele>
        <time>2021-08-24T14:21:07Z</time>
      </trkpt>
      <trkpt lat="45.34052" lon="3.03378">
        <ele>1189.3</ele>
        <time>2021-08-24T14:21:09Z</time>
      </trkpt>
      <trkpt lat="45.34059" lon="3.03379">
        <ele>1189.6</ele>
        <time>2021-08-24T14:21:11Z</time>
      </trkpt>
      <trkpt lat="45.34065" lon="3.03381">
        <ele>1189.7</ele>
        <time>2021-08-24T14:21:13Z</time>
      </trkpt>
      <trkpt lat="45.34072" lon="3.03383">
        <ele>1190</ele>
        <time>2021-08-24T14:21:15Z</time>
      </trkpt>
      <trkpt lat="45.3408" lon="3.03384">
        <ele>1190.3</ele>
        <time>2021-08-24T14:21:17Z</time>
      </trkpt>
      <trkpt lat="45.34086" lon="3.03386">
        <ele>1190.5</ele>
        <time>2021-08-24T14:21:19Z</time>
      </trkpt>
      <trkpt lat="45.34093" lon="3.03387">
        <ele>1190.8</ele>
        <time>2021-08-24T14:21:21Z</time>
      </trkpt>
      <trkpt lat="45.341" lon="3.03388">
        <ele>1191.1</ele>
        <time>2021-08-24T14:21:23Z</time>
      </trkpt>
      <trkpt lat="45.34107" lon="3.0339">
        <ele>1191.3</ele>
        <time>2021-08-24T14:21:25Z</time>
      </trkpt>
      <trkpt lat="45.34113" lon="3.03391">
        <ele>1191.6</ele>
        <time>2021-08-24T14:21:27Z</time>
      </trkpt>
      <trkpt lat="45.34119" lon="3.03393">
        <ele>1191.9</ele>
        <time>2021-08-24T14:21:29Z</time>
      </trkpt>
      <trkpt lat="45.34124" lon="3.03394">
        <ele>1192</ele>
        <time>2021-08-24T14:21:31Z</time>
      </trkpt>
      <trkpt lat="45.3413" lon="3.03395">
        <ele>1192.3</ele>
        <time>2021-08-24T14:21:33Z</time>
      </trkpt>
      <trkpt lat="45.34136" lon="3.03396">
        <ele>1192.5</ele>
        <time>2021-08-24T14:21:35Z</time>
      </trkpt>
      <trkpt lat="45.34141" lon="3.03398">
        <ele>1192.7</ele>
        <time>2021-08-24T14:21:37Z</time>
      </trkpt>
      <trkpt lat="45.34147" lon="3.03398">
        <ele>1193</ele>
        <time>2021-08-24T14:21:39Z</time>
      </trkpt>
      <trkpt lat="45.34153" lon="3.034">
        <ele>1193.2</ele>
        <time>2021-08-24T14:21:41Z</time>
      </trkpt>
      <trkpt lat="45.34159" lon="3.034">
        <ele>1193.4</ele>
        <time>2021-08-24T14:21:43Z</time>
      </trkpt>
      <trkpt lat="45.34164" lon="3.03401">
        <ele>1193.7</ele>
        <time>2021-08-24T14:21:45Z</time>
      </trkpt>
      <trkpt lat="45.3417" lon="3.03401">
        <ele>1193.8</ele>
        <time>2021-08-24T14:21:47Z</time>
      </trkpt>
      <trkpt lat="45.34176" lon="3.03402">
        <ele>1193.8</ele>
        <time>2021-08-24T14:21:49Z</time>
      </trkpt>
      <trkpt lat="45.34182" lon="3.03403">
        <ele>1193.7</ele>
        <time>2021-08-24T14:21:51Z</time>
      </trkpt>
      <trkpt lat="45.34188" lon="3.03403">
        <ele>1193.7</ele>
        <time>2021-08-24T14:21:53Z</time>
      </trkpt>
      <trkpt lat="45.34193" lon="3.03404">
        <ele>1193.7</ele>
        <time>2021-08-24T14:21:55Z</time>
      </trkpt>
      <trkpt lat="45.34199" lon="3.03405">
        <ele>1193.6</ele>
        <time>2021-08-24T14:21:57Z</time>
      </trkpt>
      <trkpt lat="45.34205" lon="3.03407">
        <ele>1193.4</ele>
        <time>2021-08-24T14:21:59Z</time>
      </trkpt>
      <trkpt lat="45.3421" lon="3.03407">
        <ele>1193.4</ele>
        <time>2021-08-24T14:22:01Z</time>
      </trkpt>
      <trkpt lat="45.34216" lon="3.03407">
        <ele>1193.4</ele>
        <time>2021-08-24T14:22:03Z</time>
      </trkpt>
      <trkpt lat="45.34222" lon="3.03408">
        <ele>1193.3</ele>
        <time>2021-08-24T14:22:05Z</time>
      </trkpt>
      <trkpt lat="45.34228" lon="3.03408">
        <ele>1193.3</ele>
        <time>2021-08-24T14:22:07Z</time>
      </trkpt>
      <trkpt lat="45.34233" lon="3.03409">
        <ele>1193.2</ele>
        <time>2021-08-24T14:22:09Z</time>
      </trkpt>
      <trkpt lat="45.34238" lon="3.0341">
        <ele>1193.1</ele>
        <time>2021-08-24T14:22:11Z</time>
      </trkpt>
      <trkpt lat="45.34243" lon="3.0341">
        <ele>1193.1</ele>
        <time>2021-08-24T14:22:13Z</time>
      </trkpt>
      <trkpt lat="45.34248" lon="3.0341">
        <ele>1193</ele>
        <time>2021-08-24T14:22:15Z</time>
      </trkpt>
      <trkpt lat="45.34253" lon="3.03412">
        <ele>1192.9</ele>
        <time>2021-08-24T14:22:17Z</time>
      </trkpt>
      <trkpt lat="45.34258" lon="3.03412">
        <ele>1193.2</ele>
        <time>2021-08-24T14:22:19Z</time>
      </trkpt>
      <trkpt lat="45.34264" lon="3.03413">
        <ele>1193.6</ele>
        <time>2021-08-24T14:22:21Z</time>
      </trkpt>
      <trkpt lat="45.34269" lon="3.03413">
        <ele>1193.8</ele>
        <time>2021-08-24T14:22:23Z</time>
      </trkpt>
      <trkpt lat="45.34274" lon="3.03413">
        <ele>1194.2</ele>
        <time>2021-08-24T14:22:25Z</time>
      </trkpt>
      <trkpt lat="45.3428" lon="3.03413">
        <ele>1194.6</ele>
        <time>2021-08-24T14:22:27Z</time>
      </trkpt>
      <trkpt lat="45.34285" lon="3.03414">
        <ele>1194.9</ele>
        <time>2021-08-24T14:22:29Z</time>
      </trkpt>
      <trkpt lat="45.34291" lon="3.03414">
        <ele>1195.3</ele>
        <time>2021-08-24T14:22:31Z</time>
      </trkpt>
      <trkpt lat="45.34297" lon="3.03414">
        <ele>1195.8</ele>
        <time>2021-08-24T14:22:33Z</time>
      </trkpt>
      <trkpt lat="45.34303" lon="3.03414">
        <ele>1196.2</ele>
        <time>2021-08-24T14:22:35Z</time>
      </trkpt>
      <trkpt lat="45.34309" lon="3.03413">
        <ele>1196.7</ele>
        <time>2021-08-24T14:22:37Z</time>
      </trkpt>
      <trkpt lat="45.34316" lon="3.03413">
        <ele>1197.2</ele>
        <time>2021-08-24T14:22:39Z</time>
      </trkpt>
      <trkpt lat="45.34322" lon="3.03412">
        <ele>1197.8</ele>
        <time>2021-08-24T14:22:41Z</time>
      </trkpt>
      <trkpt lat="45.34329" lon="3.03411">
        <ele>1198.3</ele>
        <time>2021-08-24T14:22:43Z</time>
      </trkpt>
      <trkpt lat="45.34335" lon="3.0341">
        <ele>1198.6</ele>
        <time>2021-08-24T14:22:45Z</time>
      </trkpt>
      <trkpt lat="45.34342" lon="3.03409">
        <ele>1198.3</ele>
        <time>2021-08-24T14:22:47Z</time>
      </trkpt>
      <trkpt lat="45.34348" lon="3.03408">
        <ele>1198.1</ele>
        <time>2021-08-24T14:22:49Z</time>
      </trkpt>
      <trkpt lat="45.34354" lon="3.03408">
        <ele>1197.8</ele>
        <time>2021-08-24T14:22:51Z</time>
      </trkpt>
      <trkpt lat="45.3436" lon="3.03406">
        <ele>1197.6</ele>
        <time>2021-08-24T14:22:53Z</time>
      </trkpt>
      <trkpt lat="45.34366" lon="3.03404">
        <ele>1197.4</ele>
        <time>2021-08-24T14:22:55Z</time>
      </trkpt>
      <trkpt lat="45.34372" lon="3.03403">
        <ele>1197.2</ele>
        <time>2021-08-24T14:22:57Z</time>
      </trkpt>
      <trkpt lat="45.34378" lon="3.03401">
        <ele>1197.1</ele>
        <time>2021-08-24T14:22:59Z</time>
      </trkpt>
      <trkpt lat="45.34383" lon="3.034">
        <ele>1196.9</ele>
        <time>2021-08-24T14:23:01Z</time>
      </trkpt>
      <trkpt lat="45.34389" lon="3.03398">
        <ele>1196.8</ele>
        <time>2021-08-24T14:23:03Z</time>
      </trkpt>
      <trkpt lat="45.34394" lon="3.03396">
        <ele>1196.7</ele>
        <time>2021-08-24T14:23:05Z</time>
      </trkpt>
      <trkpt lat="45.344" lon="3.03394">
        <ele>1196.7</ele>
        <time>2021-08-24T14:23:07Z</time>
      </trkpt>
      <trkpt lat="45.34404" lon="3.03392">
        <ele>1196.7</ele>
        <time>2021-08-24T14:23:09Z</time>
      </trkpt>
      <trkpt lat="45.34409" lon="3.03388">
        <ele>1196.8</ele>
        <time>2021-08-24T14:23:11Z</time>
      </trkpt>
      <trkpt lat="45.34414" lon="3.03385">
        <ele>1196.9</ele>
        <time>2021-08-24T14:23:13Z</time>
      </trkpt>
      <trkpt lat="45.34419" lon="3.03382">
        <ele>1197</ele>
        <time>2021-08-24T14:23:15Z</time>
      </trkpt>
      <trkpt lat="45.34424" lon="3.03378">
        <ele>1197.3</ele>
        <time>2021-08-24T14:23:17Z</time>
      </trkpt>
      <trkpt lat="45.34428" lon="3.03374">
        <ele>1197.5</ele>
        <time>2021-08-24T14:23:19Z</time>
      </trkpt>
      <trkpt lat="45.34432" lon="3.0337">
        <ele>1197.7</ele>
        <time>2021-08-24T14:23:21Z</time>
      </trkpt>
      <trkpt lat="45.34436" lon="3.03366">
        <ele>1198</ele>
        <time>2021-08-24T14:23:23Z</time>
      </trkpt>
      <trkpt lat="45.3444" lon="3.03362">
        <ele>1198.3</ele>
        <time>2021-08-24T14:23:25Z</time>
      </trkpt>
      <trkpt lat="45.34443" lon="3.03357">
        <ele>1198.7</ele>
        <time>2021-08-24T14:23:27Z</time>
      </trkpt>
      <trkpt lat="45.34446" lon="3.03352">
        <ele>1199.1</ele>
        <time>2021-08-24T14:23:29Z</time>
      </trkpt>
      <trkpt lat="45.34449" lon="3.03347">
        <ele>1199.5</ele>
        <time>2021-08-24T14:23:31Z</time>
      </trkpt>
      <trkpt lat="45.34451" lon="3.03342">
        <ele>1200</ele>
        <time>2021-08-24T14:23:33Z</time>
      </trkpt>
      <trkpt lat="45.34453" lon="3.03337">
        <ele>1200.4</ele>
        <time>2021-08-24T14:23:35Z</time>
      </trkpt>
      <trkpt lat="45.34456" lon="3.03332">
        <ele>1200.8</ele>
        <time>2021-08-24T14:23:37Z</time>
      </trkpt>
      <trkpt lat="45.34458" lon="3.03326">
        <ele>1201</ele>
        <time>2021-08-24T14:23:39Z</time>
      </trkpt>
      <trkpt lat="45.3446" lon="3.0332">
        <ele>1201.3</ele>
        <time>2021-08-24T14:23:41Z</time>
      </trkpt>
      <trkpt lat="45.34462" lon="3.03315">
        <ele>1201.5</ele>
        <time>2021-08-24T14:23:43Z</time>
      </trkpt>
      <trkpt lat="45.34464" lon="3.0331">
        <ele>1201.7</ele>
        <time>2021-08-24T14:23:45Z</time>
      </trkpt>
      <trkpt lat="45.34466" lon="3.03304">
        <ele>1201.9</ele>
        <time>2021-08-24T14:23:47Z</time>
      </trkpt>
      <trkpt lat="45.34468" lon="3.03298">
        <ele>1202.2</ele>
        <time>2021-08-24T14:23:49Z</time>
      </trkpt>
      <trkpt lat="45.3447" lon="3.03292">
        <ele>1202.4</ele>
        <time>2021-08-24T14:23:51Z</time>
      </trkpt>
      <trkpt lat="45.34472" lon="3.03287">
        <ele>1202.7</ele>
        <time>2021-08-24T14:23:53Z</time>
      </trkpt>
      <trkpt lat="45.34473" lon="3.03282">
        <ele>1203</ele>
        <time>2021-08-24T14:23:55Z</time>
      </trkpt>
      <trkpt lat="45.34474" lon="3.03276">
        <ele>1203.3</ele>
        <time>2021-08-24T14:23:57Z</time>
      </trkpt>
      <trkpt lat="45.34475" lon="3.0327">
        <ele>1203.6</ele>
        <time>2021-08-24T14:23:59Z</time>
      </trkpt>
      <trkpt lat="45.34475" lon="3.03264">
        <ele>1203.9</ele>
        <time>2021-08-24T14:24:01Z</time>
      </trkpt>
      <trkpt lat="45.34476" lon="3.03258">
        <ele>1204.2</ele>
        <time>2021-08-24T14:24:03Z</time>
      </trkpt>
      <trkpt lat="45.34476" lon="3.03252">
        <ele>1204.6</ele>
        <time>2021-08-24T14:24:05Z</time>
      </trkpt>
      <trkpt lat="45.34476" lon="3.03246">
        <ele>1204.9</ele>
        <time>2021-08-24T14:24:07Z</time>
      </trkpt>
      <trkpt lat="45.34476" lon="3.0324">
        <ele>1205.2</ele>
        <time>2021-08-24T14:24:09Z</time>
      </trkpt>
      <trkpt lat="45.34476" lon="3.03234">
        <ele>1205.4</ele>
        <time>2021-08-24T14:24:11Z</time>
      </trkpt>
      <trkpt lat="45.34476" lon="3.03228">
        <ele>1205.7</ele>
        <time>2021-08-24T14:24:13Z</time>
      </trkpt>
      <trkpt lat="45.34477" lon="3.03222">
        <ele>1205.9</ele>
        <time>2021-08-24T14:24:15Z</time>
      </trkpt>
      <trkpt lat="45.34476" lon="3.03216">
        <ele>1206.2</ele>
        <time>2021-08-24T14:24:17Z</time>
      </trkpt>
      <trkpt lat="45.34476" lon="3.0321">
        <ele>1206.5</ele>
        <time>2021-08-24T14:24:19Z</time>
      </trkpt>
      <trkpt lat="45.34477" lon="3.03204">
        <ele>1206.7</ele>
        <time>2021-08-24T14:24:21Z</time>
      </trkpt>
      <trkpt lat="45.34477" lon="3.03199">
        <ele>1207</ele>
        <time>2021-08-24T14:24:23Z</time>
      </trkpt>
      <trkpt lat="45.34478" lon="3.03193">
        <ele>1207.2</ele>
        <time>2021-08-24T14:24:25Z</time>
      </trkpt>
      <trkpt lat="45.34478" lon="3.03188">
        <ele>1207.4</ele>
        <time>2021-08-24T14:24:27Z</time>
      </trkpt>
      <trkpt lat="45.34477" lon="3.03182">
        <ele>1207.7</ele>
        <time>2021-08-24T14:24:29Z</time>
      </trkpt>
      <trkpt lat="45.34478" lon="3.03175">
        <ele>1207.9</ele>
        <time>2021-08-24T14:24:31Z</time>
      </trkpt>
      <trkpt lat="45.34478" lon="3.03169">
        <ele>1208.2</ele>
        <time>2021-08-24T14:24:33Z</time>
      </trkpt>
      <trkpt lat="45.34478" lon="3.03161">
        <ele>1207.9</ele>
        <time>2021-08-24T14:24:35Z</time>
      </trkpt>
      <trkpt lat="45.34478" lon="3.03153">
        <ele>1207.3</ele>
        <time>2021-08-24T14:24:37Z</time>
      </trkpt>
      <trkpt lat="45.34476" lon="3.03143">
        <ele>1206.6</ele>
        <time>2021-08-24T14:24:39Z</time>
      </trkpt>
      <trkpt lat="45.34473" lon="3.03133">
        <ele>1206</ele>
        <time>2021-08-24T14:24:41Z</time>
      </trkpt>
      <trkpt lat="45.34467" lon="3.03122">
        <ele>1205.6</ele>
        <time>2021-08-24T14:24:43Z</time>
      </trkpt>
      <trkpt lat="45.34458" lon="3.0311">
        <ele>1205.5</ele>
        <time>2021-08-24T14:24:45Z</time>
      </trkpt>
      <trkpt lat="45.34448" lon="3.03101">
        <ele>1205.6</ele>
        <time>2021-08-24T14:24:47Z</time>
      </trkpt>
      <trkpt lat="45.34437" lon="3.0309">
        <ele>1205.8</ele>
        <time>2021-08-24T14:24:49Z</time>
      </trkpt>
      <trkpt lat="45.34425" lon="3.0308">
        <ele>1205.8</ele>
        <time>2021-08-24T14:24:51Z</time>
      </trkpt>
      <trkpt lat="45.34413" lon="3.03068">
        <ele>1205.4</ele>
        <time>2021-08-24T14:24:53Z</time>
      </trkpt>
      <trkpt lat="45.34401" lon="3.03055">
        <ele>1205</ele>
        <time>2021-08-24T14:24:55Z</time>
      </trkpt>
      <trkpt lat="45.3439" lon="3.03039">
        <ele>1204.1</ele>
        <time>2021-08-24T14:24:57Z</time>
      </trkpt>
      <trkpt lat="45.3438" lon="3.03021">
        <ele>1203.2</ele>
        <time>2021-08-24T14:24:59Z</time>
      </trkpt>
      <trkpt lat="45.3437" lon="3.03002">
        <ele>1202.4</ele>
        <time>2021-08-24T14:25:01Z</time>
      </trkpt>
      <trkpt lat="45.34359" lon="3.02983">
        <ele>1201.5</ele>
        <time>2021-08-24T14:25:03Z</time>
      </trkpt>
      <trkpt lat="45.34347" lon="3.02965">
        <ele>1200.6</ele>
        <time>2021-08-24T14:25:05Z</time>
      </trkpt>
      <trkpt lat="45.34335" lon="3.02947">
        <ele>1199.8</ele>
        <time>2021-08-24T14:25:07Z</time>
      </trkpt>
      <trkpt lat="45.34322" lon="3.02928">
        <ele>1198.9</ele>
        <time>2021-08-24T14:25:09Z</time>
      </trkpt>
      <trkpt lat="45.34311" lon="3.02908">
        <ele>1198.4</ele>
        <time>2021-08-24T14:25:11Z</time>
      </trkpt>
      <trkpt lat="45.34301" lon="3.02886">
        <ele>1198.1</ele>
        <time>2021-08-24T14:25:13Z</time>
      </trkpt>
      <trkpt lat="45.34293" lon="3.02863">
        <ele>1197.4</ele>
        <time>2021-08-24T14:25:15Z</time>
      </trkpt>
      <trkpt lat="45.34285" lon="3.0284">
        <ele>1197</ele>
        <time>2021-08-24T14:25:17Z</time>
      </trkpt>
      <trkpt lat="45.34277" lon="3.02817">
        <ele>1196.5</ele>
        <time>2021-08-24T14:25:19Z</time>
      </trkpt>
      <trkpt lat="45.3427" lon="3.02794">
        <ele>1196</ele>
        <time>2021-08-24T14:25:21Z</time>
      </trkpt>
      <trkpt lat="45.34262" lon="3.0277">
        <ele>1195.4</ele>
        <time>2021-08-24T14:25:23Z</time>
      </trkpt>
      <trkpt lat="45.34258" lon="3.02744">
        <ele>1194.4</ele>
        <time>2021-08-24T14:25:25Z</time>
      </trkpt>
      <trkpt lat="45.34255" lon="3.02718">
        <ele>1193.5</ele>
        <time>2021-08-24T14:25:27Z</time>
      </trkpt>
      <trkpt lat="45.34252" lon="3.02691">
        <ele>1192.7</ele>
        <time>2021-08-24T14:25:29Z</time>
      </trkpt>
      <trkpt lat="45.34248" lon="3.02665">
        <ele>1192.4</ele>
        <time>2021-08-24T14:25:31Z</time>
      </trkpt>
      <trkpt lat="45.34243" lon="3.02639">
        <ele>1191.6</ele>
        <time>2021-08-24T14:25:33Z</time>
      </trkpt>
      <trkpt lat="45.34238" lon="3.02612">
        <ele>1190.9</ele>
        <time>2021-08-24T14:25:35Z</time>
      </trkpt>
      <trkpt lat="45.34235" lon="3.02586">
        <ele>1190</ele>
        <time>2021-08-24T14:25:37Z</time>
      </trkpt>
      <trkpt lat="45.34233" lon="3.02559">
        <ele>1189.3</ele>
        <time>2021-08-24T14:25:39Z</time>
      </trkpt>
      <trkpt lat="45.34232" lon="3.02532">
        <ele>1188.5</ele>
        <time>2021-08-24T14:25:41Z</time>
      </trkpt>
      <trkpt lat="45.34231" lon="3.02505">
        <ele>1187.8</ele>
        <time>2021-08-24T14:25:43Z</time>
      </trkpt>
      <trkpt lat="45.34228" lon="3.02478">
        <ele>1187.2</ele>
        <time>2021-08-24T14:25:45Z</time>
      </trkpt>
      <trkpt lat="45.34225" lon="3.02451">
        <ele>1186.8</ele>
        <time>2021-08-24T14:25:47Z</time>
      </trkpt>
      <trkpt lat="45.3422" lon="3.02425">
        <ele>1186.5</ele>
        <time>2021-08-24T14:25:49Z</time>
      </trkpt>
      <trkpt lat="45.34217" lon="3.02397">
        <ele>1185.8</ele>
        <time>2021-08-24T14:25:51Z</time>
      </trkpt>
      <trkpt lat="45.34212" lon="3.0237">
        <ele>1185.2</ele>
        <time>2021-08-24T14:25:53Z</time>
      </trkpt>
      <trkpt lat="45.34206" lon="3.02344">
        <ele>1184.7</ele>
        <time>2021-08-24T14:25:55Z</time>
      </trkpt>
      <trkpt lat="45.34202" lon="3.02317">
        <ele>1184</ele>
        <time>2021-08-24T14:25:57Z</time>
      </trkpt>
      <trkpt lat="45.34199" lon="3.02289">
        <ele>1183</ele>
        <time>2021-08-24T14:25:59Z</time>
      </trkpt>
      <trkpt lat="45.34196" lon="3.02262">
        <ele>1182.1</ele>
        <time>2021-08-24T14:26:01Z</time>
      </trkpt>
      <trkpt lat="45.34193" lon="3.02234">
        <ele>1181</ele>
        <time>2021-08-24T14:26:03Z</time>
      </trkpt>
      <trkpt lat="45.3419" lon="3.02206">
        <ele>1180</ele>
        <time>2021-08-24T14:26:05Z</time>
      </trkpt>
      <trkpt lat="45.34187" lon="3.02178">
        <ele>1179.2</ele>
        <time>2021-08-24T14:26:07Z</time>
      </trkpt>
      <trkpt lat="45.34182" lon="3.02152">
        <ele>1178.8</ele>
        <time>2021-08-24T14:26:09Z</time>
      </trkpt>
      <trkpt lat="45.34176" lon="3.02126">
        <ele>1178.8</ele>
        <time>2021-08-24T14:26:11Z</time>
      </trkpt>
      <trkpt lat="45.3417" lon="3.02099">
        <ele>1178.4</ele>
        <time>2021-08-24T14:26:13Z</time>
      </trkpt>
      <trkpt lat="45.34166" lon="3.02073">
        <ele>1177.7</ele>
        <time>2021-08-24T14:26:15Z</time>
      </trkpt>
      <trkpt lat="45.34162" lon="3.02046">
        <ele>1177.1</ele>
        <time>2021-08-24T14:26:17Z</time>
      </trkpt>
      <trkpt lat="45.34159" lon="3.0202">
        <ele>1176.1</ele>
        <time>2021-08-24T14:26:19Z</time>
      </trkpt>
      <trkpt lat="45.34159" lon="3.01994">
        <ele>1174.7</ele>
        <time>2021-08-24T14:26:21Z</time>
      </trkpt>
      <trkpt lat="45.34164" lon="3.01968">
        <ele>1173</ele>
        <time>2021-08-24T14:26:23Z</time>
      </trkpt>
      <trkpt lat="45.34159" lon="3.01943">
        <ele>1173.6</ele>
        <time>2021-08-24T14:26:25Z</time>
      </trkpt>
      <trkpt lat="45.34161" lon="3.01919">
        <ele>1172.5</ele>
        <time>2021-08-24T14:26:27Z</time>
      </trkpt>
      <trkpt lat="45.34165" lon="3.01894">
        <ele>1172</ele>
        <time>2021-08-24T14:26:29Z</time>
      </trkpt>
      <trkpt lat="45.34168" lon="3.0187">
        <ele>1171.8</ele>
        <time>2021-08-24T14:26:31Z</time>
      </trkpt>
      <trkpt lat="45.34169" lon="3.01846">
        <ele>1172</ele>
        <time>2021-08-24T14:26:33Z</time>
      </trkpt>
      <trkpt lat="45.34169" lon="3.01822">
        <ele>1171.6</ele>
        <time>2021-08-24T14:26:35Z</time>
      </trkpt>
      <trkpt lat="45.34167" lon="3.01798">
        <ele>1170.3</ele>
        <time>2021-08-24T14:26:37Z</time>
      </trkpt>
      <trkpt lat="45.34166" lon="3.01775">
        <ele>1168.9</ele>
        <time>2021-08-24T14:26:39Z</time>
      </trkpt>
      <trkpt lat="45.34163" lon="3.01751">
        <ele>1168</ele>
        <time>2021-08-24T14:26:41Z</time>
      </trkpt>
      <trkpt lat="45.34157" lon="3.01729">
        <ele>1166</ele>
        <time>2021-08-24T14:26:43Z</time>
      </trkpt>
      <trkpt lat="45.34148" lon="3.0171">
        <ele>1165.2</ele>
        <time>2021-08-24T14:26:45Z</time>
      </trkpt>
      <trkpt lat="45.34137" lon="3.01693">
        <ele>1165.6</ele>
        <time>2021-08-24T14:26:47Z</time>
      </trkpt>
      <trkpt lat="45.34125" lon="3.01677">
        <ele>1166.4</ele>
        <time>2021-08-24T14:26:49Z</time>
      </trkpt>
      <trkpt lat="45.34112" lon="3.01661">
        <ele>1167.2</ele>
        <time>2021-08-24T14:26:51Z</time>
      </trkpt>
      <trkpt lat="45.341" lon="3.01644">
        <ele>1167.3</ele>
        <time>2021-08-24T14:26:53Z</time>
      </trkpt>
      <trkpt lat="45.34087" lon="3.01627">
        <ele>1167.2</ele>
        <time>2021-08-24T14:26:55Z</time>
      </trkpt>
      <trkpt lat="45.34075" lon="3.01609">
        <ele>1166.8</ele>
        <time>2021-08-24T14:26:57Z</time>
      </trkpt>
      <trkpt lat="45.34062" lon="3.01591">
        <ele>1166.3</ele>
        <time>2021-08-24T14:26:59Z</time>
      </trkpt>
      <trkpt lat="45.3405" lon="3.01572">
        <ele>1166</ele>
        <time>2021-08-24T14:27:01Z</time>
      </trkpt>
      <trkpt lat="45.34037" lon="3.01553">
        <ele>1165.5</ele>
        <time>2021-08-24T14:27:03Z</time>
      </trkpt>
      <trkpt lat="45.34024" lon="3.01534">
        <ele>1165</ele>
        <time>2021-08-24T14:27:05Z</time>
      </trkpt>
      <trkpt lat="45.34011" lon="3.01515">
        <ele>1164.5</ele>
        <time>2021-08-24T14:27:07Z</time>
      </trkpt>
      <trkpt lat="45.33999" lon="3.01494">
        <ele>1163</ele>
        <time>2021-08-24T14:27:09Z</time>
      </trkpt>
      <trkpt lat="45.33988" lon="3.01474">
        <ele>1162.5</ele>
        <time>2021-08-24T14:27:11Z</time>
      </trkpt>
      <trkpt lat="45.33973" lon="3.01458">
        <ele>1164.2</ele>
        <time>2021-08-24T14:27:13Z</time>
      </trkpt>
      <trkpt lat="45.33958" lon="3.01444">
        <ele>1166.5</ele>
        <time>2021-08-24T14:27:15Z</time>
      </trkpt>
      <trkpt lat="45.33952" lon="3.01419">
        <ele>1164.2</ele>
        <time>2021-08-24T14:27:17Z</time>
      </trkpt>
      <trkpt lat="45.33951" lon="3.01393">
        <ele>1161.6</ele>
        <time>2021-08-24T14:27:19Z</time>
      </trkpt>
      <trkpt lat="45.33947" lon="3.01369">
        <ele>1160.4</ele>
        <time>2021-08-24T14:27:21Z</time>
      </trkpt>
      <trkpt lat="45.33939" lon="3.01346">
        <ele>1160.1</ele>
        <time>2021-08-24T14:27:23Z</time>
      </trkpt>
      <trkpt lat="45.3393" lon="3.01322">
        <ele>1160.5</ele>
        <time>2021-08-24T14:27:25Z</time>
      </trkpt>
      <trkpt lat="45.33927" lon="3.01298">
        <ele>1160.8</ele>
        <time>2021-08-24T14:27:27Z</time>
      </trkpt>
      <trkpt lat="45.33928" lon="3.01276">
        <ele>1160.4</ele>
        <time>2021-08-24T14:27:29Z</time>
      </trkpt>
      <trkpt lat="45.33927" lon="3.01258">
        <ele>1160.2</ele>
        <time>2021-08-24T14:27:31Z</time>
      </trkpt>
      <trkpt lat="45.33927" lon="3.01242">
        <ele>1160.4</ele>
        <time>2021-08-24T14:27:33Z</time>
      </trkpt>
      <trkpt lat="45.33925" lon="3.01228">
        <ele>1161</ele>
        <time>2021-08-24T14:27:35Z</time>
      </trkpt>
      <trkpt lat="45.33922" lon="3.01218">
        <ele>1161.7</ele>
        <time>2021-08-24T14:27:37Z</time>
      </trkpt>
      <trkpt lat="45.33918" lon="3.0121">
        <ele>1162.4</ele>
        <time>2021-08-24T14:27:39Z</time>
      </trkpt>
      <trkpt lat="45.33913" lon="3.01204">
        <ele>1163.2</ele>
        <time>2021-08-24T14:27:41Z</time>
      </trkpt>
      <trkpt lat="45.33908" lon="3.012">
        <ele>1164.1</ele>
        <time>2021-08-24T14:27:43Z</time>
      </trkpt>
      <trkpt lat="45.33904" lon="3.01197">
        <ele>1164.8</ele>
        <time>2021-08-24T14:27:45Z</time>
      </trkpt>
      <trkpt lat="45.33901" lon="3.01192">
        <ele>1165.5</ele>
        <time>2021-08-24T14:27:47Z</time>
      </trkpt>
      <trkpt lat="45.33898" lon="3.01187">
        <ele>1166.1</ele>
        <time>2021-08-24T14:27:49Z</time>
      </trkpt>
      <trkpt lat="45.33894" lon="3.01181">
        <ele>1166.7</ele>
        <time>2021-08-24T14:27:51Z</time>
      </trkpt>
      <trkpt lat="45.33892" lon="3.01175">
        <ele>1167.1</ele>
        <time>2021-08-24T14:27:53Z</time>
      </trkpt>
      <trkpt lat="45.33891" lon="3.01169">
        <ele>1167.3</ele>
        <time>2021-08-24T14:27:55Z</time>
      </trkpt>
      <trkpt lat="45.3389" lon="3.01162">
        <ele>1167.6</ele>
        <time>2021-08-24T14:27:57Z</time>
      </trkpt>
      <trkpt lat="45.33891" lon="3.01156">
        <ele>1167.8</ele>
        <time>2021-08-24T14:27:59Z</time>
      </trkpt>
      <trkpt lat="45.33891" lon="3.0115">
        <ele>1167.9</ele>
        <time>2021-08-24T14:28:01Z</time>
      </trkpt>
      <trkpt lat="45.33892" lon="3.01143">
        <ele>1168</ele>
        <time>2021-08-24T14:28:03Z</time>
      </trkpt>
      <trkpt lat="45.33892" lon="3.01137">
        <ele>1168.2</ele>
        <time>2021-08-24T14:28:05Z</time>
      </trkpt>
      <trkpt lat="45.33892" lon="3.01131">
        <ele>1168.4</ele>
        <time>2021-08-24T14:28:07Z</time>
      </trkpt>
      <trkpt lat="45.33891" lon="3.01125">
        <ele>1168.8</ele>
        <time>2021-08-24T14:28:09Z</time>
      </trkpt>
      <trkpt lat="45.33891" lon="3.01119">
        <ele>1169</ele>
        <time>2021-08-24T14:28:11Z</time>
      </trkpt>
      <trkpt lat="45.33891" lon="3.01113">
        <ele>1169.3</ele>
        <time>2021-08-24T14:28:13Z</time>
      </trkpt>
      <trkpt lat="45.33889" lon="3.01107">
        <ele>1169.7</ele>
        <time>2021-08-24T14:28:15Z</time>
      </trkpt>
      <trkpt lat="45.33888" lon="3.01101">
        <ele>1170.1</ele>
        <time>2021-08-24T14:28:17Z</time>
      </trkpt>
      <trkpt lat="45.33887" lon="3.01096">
        <ele>1170.5</ele>
        <time>2021-08-24T14:28:19Z</time>
      </trkpt>
      <trkpt lat="45.33885" lon="3.01091">
        <ele>1171</ele>
        <time>2021-08-24T14:28:21Z</time>
      </trkpt>
      <trkpt lat="45.33884" lon="3.01085">
        <ele>1171.4</ele>
        <time>2021-08-24T14:28:23Z</time>
      </trkpt>
      <trkpt lat="45.33882" lon="3.01081">
        <ele>1171.9</ele>
        <time>2021-08-24T14:28:25Z</time>
      </trkpt>
      <trkpt lat="45.3388" lon="3.01076">
        <ele>1172.6</ele>
        <time>2021-08-24T14:28:27Z</time>
      </trkpt>
      <trkpt lat="45.33878" lon="3.01071">
        <ele>1173.1</ele>
        <time>2021-08-24T14:28:29Z</time>
      </trkpt>
      <trkpt lat="45.33876" lon="3.01066">
        <ele>1173.7</ele>
        <time>2021-08-24T14:28:31Z</time>
      </trkpt>
      <trkpt lat="45.33874" lon="3.01061">
        <ele>1174.4</ele>
        <time>2021-08-24T14:28:33Z</time>
      </trkpt>
      <trkpt lat="45.33872" lon="3.01057">
        <ele>1174.9</ele>
        <time>2021-08-24T14:28:35Z</time>
      </trkpt>
      <trkpt lat="45.33869" lon="3.01052">
        <ele>1175.5</ele>
        <time>2021-08-24T14:28:37Z</time>
      </trkpt>
      <trkpt lat="45.33867" lon="3.01048">
        <ele>1176.1</ele>
        <time>2021-08-24T14:28:39Z</time>
      </trkpt>
      <trkpt lat="45.33864" lon="3.01043">
        <ele>1176.7</ele>
        <time>2021-08-24T14:28:41Z</time>
      </trkpt>
      <trkpt lat="45.33862" lon="3.01039">
        <ele>1177.2</ele>
        <time>2021-08-24T14:28:43Z</time>
      </trkpt>
      <trkpt lat="45.3386" lon="3.01034">
        <ele>1177.7</ele>
        <time>2021-08-24T14:28:45Z</time>
      </trkpt>
      <trkpt lat="45.33858" lon="3.01029">
        <ele>1178.1</ele>
        <time>2021-08-24T14:28:47Z</time>
      </trkpt>
      <trkpt lat="45.33856" lon="3.01024">
        <ele>1178.5</ele>
        <time>2021-08-24T14:28:49Z</time>
      </trkpt>
      <trkpt lat="45.33855" lon="3.01018">
        <ele>1178.9</ele>
        <time>2021-08-24T14:28:51Z</time>
      </trkpt>
      <trkpt lat="45.33855" lon="3.01013">
        <ele>1179.2</ele>
        <time>2021-08-24T14:28:53Z</time>
      </trkpt>
      <trkpt lat="45.33855" lon="3.01007">
        <ele>1179.4</ele>
        <time>2021-08-24T14:28:55Z</time>
      </trkpt>
      <trkpt lat="45.33855" lon="3.01002">
        <ele>1179.6</ele>
        <time>2021-08-24T14:28:57Z</time>
      </trkpt>
      <trkpt lat="45.33856" lon="3.00996">
        <ele>1180.1</ele>
        <time>2021-08-24T14:28:59Z</time>
      </trkpt>
      <trkpt lat="45.33858" lon="3.0099">
        <ele>1180.6</ele>
        <time>2021-08-24T14:29:01Z</time>
      </trkpt>
      <trkpt lat="45.33859" lon="3.00985">
        <ele>1181.1</ele>
        <time>2021-08-24T14:29:03Z</time>
      </trkpt>
      <trkpt lat="45.33861" lon="3.0098">
        <ele>1181.6</ele>
        <time>2021-08-24T14:29:05Z</time>
      </trkpt>
      <trkpt lat="45.33863" lon="3.00975">
        <ele>1182.1</ele>
        <time>2021-08-24T14:29:07Z</time>
      </trkpt>
      <trkpt lat="45.33865" lon="3.0097">
        <ele>1182.6</ele>
        <time>2021-08-24T14:29:09Z</time>
      </trkpt>
      <trkpt lat="45.33867" lon="3.00965">
        <ele>1183.1</ele>
        <time>2021-08-24T14:29:11Z</time>
      </trkpt>
      <trkpt lat="45.33868" lon="3.0096">
        <ele>1183.7</ele>
        <time>2021-08-24T14:29:13Z</time>
      </trkpt>
      <trkpt lat="45.3387" lon="3.00955">
        <ele>1184.2</ele>
        <time>2021-08-24T14:29:15Z</time>
      </trkpt>
      <trkpt lat="45.33871" lon="3.00949">
        <ele>1184.8</ele>
        <time>2021-08-24T14:29:17Z</time>
      </trkpt>
      <trkpt lat="45.33873" lon="3.00944">
        <ele>1185.4</ele>
        <time>2021-08-24T14:29:19Z</time>
      </trkpt>
      <trkpt lat="45.33874" lon="3.00939">
        <ele>1186</ele>
        <time>2021-08-24T14:29:21Z</time>
      </trkpt>
      <trkpt lat="45.33876" lon="3.00933">
        <ele>1186.6</ele>
        <time>2021-08-24T14:29:23Z</time>
      </trkpt>
      <trkpt lat="45.33877" lon="3.00928">
        <ele>1187.3</ele>
        <time>2021-08-24T14:29:25Z</time>
      </trkpt>
      <trkpt lat="45.33879" lon="3.00923">
        <ele>1187.9</ele>
        <time>2021-08-24T14:29:27Z</time>
      </trkpt>
      <trkpt lat="45.33881" lon="3.00917">
        <ele>1188.5</ele>
        <time>2021-08-24T14:29:29Z</time>
      </trkpt>
      <trkpt lat="45.33883" lon="3.00912">
        <ele>1189.6</ele>
        <time>2021-08-24T14:29:31Z</time>
      </trkpt>
      <trkpt lat="45.33886" lon="3.00908">
        <ele>1190.7</ele>
        <time>2021-08-24T14:29:33Z</time>
      </trkpt>
      <trkpt lat="45.33889" lon="3.00903">
        <ele>1191.7</ele>
        <time>2021-08-24T14:29:35Z</time>
      </trkpt>
      <trkpt lat="45.33894" lon="3.00899">
        <ele>1192.6</ele>
        <time>2021-08-24T14:29:37Z</time>
      </trkpt>
      <trkpt lat="45.33899" lon="3.00897">
        <ele>1193.1</ele>
        <time>2021-08-24T14:29:39Z</time>
      </trkpt>
      <trkpt lat="45.33903" lon="3.00897">
        <ele>1193</ele>
        <time>2021-08-24T14:29:41Z</time>
      </trkpt>
      <trkpt lat="45.33907" lon="3.00896">
        <ele>1192.9</ele>
        <time>2021-08-24T14:29:43Z</time>
      </trkpt>
      <trkpt lat="45.33911" lon="3.00897">
        <ele>1192.6</ele>
        <time>2021-08-24T14:29:45Z</time>
      </trkpt>
      <trkpt lat="45.33916" lon="3.009">
        <ele>1191.5</ele>
        <time>2021-08-24T14:29:47Z</time>
      </trkpt>
      <trkpt lat="45.3392" lon="3.00902">
        <ele>1191</ele>
        <time>2021-08-24T14:29:49Z</time>
      </trkpt>
      <trkpt lat="45.33925" lon="3.00904">
        <ele>1190.2</ele>
        <time>2021-08-24T14:29:51Z</time>
      </trkpt>
      <trkpt lat="45.33929" lon="3.00907">
        <ele>1189.5</ele>
        <time>2021-08-24T14:29:53Z</time>
      </trkpt>
      <trkpt lat="45.33933" lon="3.00909">
        <ele>1188.7</ele>
        <time>2021-08-24T14:29:55Z</time>
      </trkpt>
      <trkpt lat="45.33938" lon="3.00912">
        <ele>1188</ele>
        <time>2021-08-24T14:29:57Z</time>
      </trkpt>
      <trkpt lat="45.33942" lon="3.00915">
        <ele>1187.2</ele>
        <time>2021-08-24T14:29:59Z</time>
      </trkpt>
      <trkpt lat="45.33947" lon="3.00917">
        <ele>1186.7</ele>
        <time>2021-08-24T14:30:01Z</time>
      </trkpt>
      <trkpt lat="45.3395" lon="3.0092">
        <ele>1186.3</ele>
        <time>2021-08-24T14:30:03Z</time>
      </trkpt>
      <trkpt lat="45.33954" lon="3.00924">
        <ele>1185.9</ele>
        <time>2021-08-24T14:30:05Z</time>
      </trkpt>
      <trkpt lat="45.3396" lon="3.00927">
        <ele>1185.7</ele>
        <time>2021-08-24T14:30:07Z</time>
      </trkpt>
      <trkpt lat="45.33965" lon="3.00929">
        <ele>1185.7</ele>
        <time>2021-08-24T14:30:09Z</time>
      </trkpt>
      <trkpt lat="45.3397" lon="3.00928">
        <ele>1185.9</ele>
        <time>2021-08-24T14:30:11Z</time>
      </trkpt>
      <trkpt lat="45.33975" lon="3.00928">
        <ele>1186.2</ele>
        <time>2021-08-24T14:30:13Z</time>
      </trkpt>
      <trkpt lat="45.33981" lon="3.00925">
        <ele>1186.6</ele>
        <time>2021-08-24T14:30:15Z</time>
      </trkpt>
      <trkpt lat="45.33986" lon="3.00922">
        <ele>1187.1</ele>
        <time>2021-08-24T14:30:17Z</time>
      </trkpt>
      <trkpt lat="45.33991" lon="3.00918">
        <ele>1187.6</ele>
        <time>2021-08-24T14:30:19Z</time>
      </trkpt>
      <trkpt lat="45.33996" lon="3.00914">
        <ele>1188.8</ele>
        <time>2021-08-24T14:30:21Z</time>
      </trkpt>
      <trkpt lat="45.34002" lon="3.00909">
        <ele>1190.4</ele>
        <time>2021-08-24T14:30:23Z</time>
      </trkpt>
      <trkpt lat="45.34009" lon="3.00906">
        <ele>1191.2</ele>
        <time>2021-08-24T14:30:25Z</time>
      </trkpt>
      <trkpt lat="45.34015" lon="3.00904">
        <ele>1191.6</ele>
        <time>2021-08-24T14:30:27Z</time>
      </trkpt>
      <trkpt lat="45.34022" lon="3.00903">
        <ele>1191.4</ele>
        <time>2021-08-24T14:30:29Z</time>
      </trkpt>
      <trkpt lat="45.34028" lon="3.00904">
        <ele>1190.9</ele>
        <time>2021-08-24T14:30:31Z</time>
      </trkpt>
      <trkpt lat="45.34034" lon="3.00905">
        <ele>1190.3</ele>
        <time>2021-08-24T14:30:33Z</time>
      </trkpt>
      <trkpt lat="45.3404" lon="3.00906">
        <ele>1189.8</ele>
        <time>2021-08-24T14:30:35Z</time>
      </trkpt>
      <trkpt lat="45.34046" lon="3.00906">
        <ele>1189.3</ele>
        <time>2021-08-24T14:30:37Z</time>
      </trkpt>
      <trkpt lat="45.34052" lon="3.00907">
        <ele>1188.8</ele>
        <time>2021-08-24T14:30:39Z</time>
      </trkpt>
      <trkpt lat="45.34059" lon="3.00908">
        <ele>1188.3</ele>
        <time>2021-08-24T14:30:41Z</time>
      </trkpt>
      <trkpt lat="45.34065" lon="3.0091">
        <ele>1187.5</ele>
        <time>2021-08-24T14:30:43Z</time>
      </trkpt>
      <trkpt lat="45.34072" lon="3.00911">
        <ele>1186.8</ele>
        <time>2021-08-24T14:30:45Z</time>
      </trkpt>
      <trkpt lat="45.34079" lon="3.00912">
        <ele>1186.3</ele>
        <time>2021-08-24T14:30:47Z</time>
      </trkpt>
      <trkpt lat="45.34087" lon="3.00913">
        <ele>1185.6</ele>
        <time>2021-08-24T14:30:49Z</time>
      </trkpt>
      <trkpt lat="45.34093" lon="3.0091">
        <ele>1185.1</ele>
        <time>2021-08-24T14:30:51Z</time>
      </trkpt>
      <trkpt lat="45.34099" lon="3.00907">
        <ele>1185.1</ele>
        <time>2021-08-24T14:30:53Z</time>
      </trkpt>
      <trkpt lat="45.34104" lon="3.00901">
        <ele>1185.6</ele>
        <time>2021-08-24T14:30:55Z</time>
      </trkpt>
      <trkpt lat="45.34109" lon="3.00894">
        <ele>1186.4</ele>
        <time>2021-08-24T14:30:57Z</time>
      </trkpt>
      <trkpt lat="45.34111" lon="3.00886">
        <ele>1187.7</ele>
        <time>2021-08-24T14:30:59Z</time>
      </trkpt>
      <trkpt lat="45.34114" lon="3.00877">
        <ele>1189.1</ele>
        <time>2021-08-24T14:31:01Z</time>
      </trkpt>
      <trkpt lat="45.34117" lon="3.00869">
        <ele>1190.4</ele>
        <time>2021-08-24T14:31:03Z</time>
      </trkpt>
      <trkpt lat="45.34121" lon="3.0086">
        <ele>1191.5</ele>
        <time>2021-08-24T14:31:05Z</time>
      </trkpt>
      <trkpt lat="45.34124" lon="3.00851">
        <ele>1192.6</ele>
        <time>2021-08-24T14:31:07Z</time>
      </trkpt>
      <trkpt lat="45.34128" lon="3.00844">
        <ele>1193.2</ele>
        <time>2021-08-24T14:31:09Z</time>
      </trkpt>
      <trkpt lat="45.34133" lon="3.00837">
        <ele>1193.5</ele>
        <time>2021-08-24T14:31:11Z</time>
      </trkpt>
      <trkpt lat="45.34137" lon="3.0083">
        <ele>1194.5</ele>
        <time>2021-08-24T14:31:13Z</time>
      </trkpt>
      <trkpt lat="45.34142" lon="3.00824">
        <ele>1195.5</ele>
        <time>2021-08-24T14:31:15Z</time>
      </trkpt>
      <trkpt lat="45.34148" lon="3.00818">
        <ele>1196.2</ele>
        <time>2021-08-24T14:31:17Z</time>
      </trkpt>
      <trkpt lat="45.34154" lon="3.00814">
        <ele>1195.9</ele>
        <time>2021-08-24T14:31:19Z</time>
      </trkpt>
      <trkpt lat="45.34161" lon="3.0081">
        <ele>1195.9</ele>
        <time>2021-08-24T14:31:21Z</time>
      </trkpt>
      <trkpt lat="45.34168" lon="3.00807">
        <ele>1195.3</ele>
        <time>2021-08-24T14:31:23Z</time>
      </trkpt>
      <trkpt lat="45.34174" lon="3.00804">
        <ele>1195.8</ele>
        <time>2021-08-24T14:31:25Z</time>
      </trkpt>
      <trkpt lat="45.34181" lon="3.00801">
        <ele>1196.5</ele>
        <time>2021-08-24T14:31:27Z</time>
      </trkpt>
      <trkpt lat="45.34188" lon="3.00798">
        <ele>1197.2</ele>
        <time>2021-08-24T14:31:29Z</time>
      </trkpt>
      <trkpt lat="45.34195" lon="3.00793">
        <ele>1198.2</ele>
        <time>2021-08-24T14:31:31Z</time>
      </trkpt>
      <trkpt lat="45.34202" lon="3.0079">
        <ele>1198.6</ele>
        <time>2021-08-24T14:31:33Z</time>
      </trkpt>
      <trkpt lat="45.34209" lon="3.00786">
        <ele>1199.4</ele>
        <time>2021-08-24T14:31:35Z</time>
      </trkpt>
      <trkpt lat="45.34216" lon="3.00781">
        <ele>1200.1</ele>
        <time>2021-08-24T14:31:37Z</time>
      </trkpt>
      <trkpt lat="45.34222" lon="3.00777">
        <ele>1200.9</ele>
        <time>2021-08-24T14:31:39Z</time>
      </trkpt>
      <trkpt lat="45.34228" lon="3.00772">
        <ele>1201.7</ele>
        <time>2021-08-24T14:31:41Z</time>
      </trkpt>
      <trkpt lat="45.34235" lon="3.00768">
        <ele>1202.5</ele>
        <time>2021-08-24T14:31:43Z</time>
      </trkpt>
      <trkpt lat="45.34242" lon="3.00761">
        <ele>1203.6</ele>
        <time>2021-08-24T14:31:45Z</time>
      </trkpt>
      <trkpt lat="45.3425" lon="3.00758">
        <ele>1203.8</ele>
        <time>2021-08-24T14:31:47Z</time>
      </trkpt>
      <trkpt lat="45.34258" lon="3.00753">
        <ele>1205.1</ele>
        <time>2021-08-24T14:31:49Z</time>
      </trkpt>
      <trkpt lat="45.34264" lon="3.00748">
        <ele>1206.9</ele>
        <time>2021-08-24T14:31:51Z</time>
      </trkpt>
      <trkpt lat="45.34272" lon="3.00745">
        <ele>1207.9</ele>
        <time>2021-08-24T14:31:53Z</time>
      </trkpt>
      <trkpt lat="45.34278" lon="3.00737">
        <ele>1210.2</ele>
        <time>2021-08-24T14:31:55Z</time>
      </trkpt>
      <trkpt lat="45.34284" lon="3.00733">
        <ele>1211.4</ele>
        <time>2021-08-24T14:31:57Z</time>
      </trkpt>
      <trkpt lat="45.34292" lon="3.00731">
        <ele>1212.2</ele>
        <time>2021-08-24T14:31:59Z</time>
      </trkpt>
      <trkpt lat="45.343" lon="3.00727">
        <ele>1213.2</ele>
        <time>2021-08-24T14:32:01Z</time>
      </trkpt>
      <trkpt lat="45.34309" lon="3.00726">
        <ele>1213.3</ele>
        <time>2021-08-24T14:32:03Z</time>
      </trkpt>
      <trkpt lat="45.34317" lon="3.00726">
        <ele>1213.4</ele>
        <time>2021-08-24T14:32:05Z</time>
      </trkpt>
      <trkpt lat="45.34323" lon="3.00724">
        <ele>1213.9</ele>
        <time>2021-08-24T14:32:07Z</time>
      </trkpt>
      <trkpt lat="45.34331" lon="3.00724">
        <ele>1213.8</ele>
        <time>2021-08-24T14:32:09Z</time>
      </trkpt>
      <trkpt lat="45.34338" lon="3.00725">
        <ele>1215.1</ele>
        <time>2021-08-24T14:32:11Z</time>
      </trkpt>
      <trkpt lat="45.34345" lon="3.00727">
        <ele>1217.1</ele>
        <time>2021-08-24T14:32:13Z</time>
      </trkpt>
      <trkpt lat="45.34352" lon="3.0073">
        <ele>1218.7</ele>
        <time>2021-08-24T14:32:15Z</time>
      </trkpt>
      <trkpt lat="45.34358" lon="3.00734">
        <ele>1219.4</ele>
        <time>2021-08-24T14:32:17Z</time>
      </trkpt>
      <trkpt lat="45.34362" lon="3.00738">
        <ele>1219.9</ele>
        <time>2021-08-24T14:32:19Z</time>
      </trkpt>
      <trkpt lat="45.34367" lon="3.00743">
        <ele>1220.1</ele>
        <time>2021-08-24T14:32:21Z</time>
      </trkpt>
      <trkpt lat="45.34372" lon="3.00747">
        <ele>1220.8</ele>
        <time>2021-08-24T14:32:23Z</time>
      </trkpt>
      <trkpt lat="45.34375" lon="3.00753">
        <ele>1220.1</ele>
        <time>2021-08-24T14:32:25Z</time>
      </trkpt>
      <trkpt lat="45.34379" lon="3.00757">
        <ele>1220.1</ele>
        <time>2021-08-24T14:32:27Z</time>
      </trkpt>
      <trkpt lat="45.34383" lon="3.00763">
        <ele>1219.7</ele>
        <time>2021-08-24T14:32:29Z</time>
      </trkpt>
      <trkpt lat="45.34386" lon="3.00767">
        <ele>1219.3</ele>
        <time>2021-08-24T14:32:31Z</time>
      </trkpt>
      <trkpt lat="45.34389" lon="3.00773">
        <ele>1218.6</ele>
        <time>2021-08-24T14:32:33Z</time>
      </trkpt>
      <trkpt lat="45.34392" lon="3.00779">
        <ele>1218</ele>
        <time>2021-08-24T14:32:35Z</time>
      </trkpt>
      <trkpt lat="45.34395" lon="3.00784">
        <ele>1217.2</ele>
        <time>2021-08-24T14:32:37Z</time>
      </trkpt>
      <trkpt lat="45.34398" lon="3.00788">
        <ele>1216.7</ele>
        <time>2021-08-24T14:32:39Z</time>
      </trkpt>
      <trkpt lat="45.34401" lon="3.00797">
        <ele>1215</ele>
        <time>2021-08-24T14:32:41Z</time>
      </trkpt>
      <trkpt lat="45.34403" lon="3.00804">
        <ele>1213.7</ele>
        <time>2021-08-24T14:32:43Z</time>
      </trkpt>
      <trkpt lat="45.34405" lon="3.0081">
        <ele>1212.4</ele>
        <time>2021-08-24T14:32:45Z</time>
      </trkpt>
      <trkpt lat="45.34408" lon="3.00815">
        <ele>1212</ele>
        <time>2021-08-24T14:32:47Z</time>
      </trkpt>
      <trkpt lat="45.34411" lon="3.0082">
        <ele>1211.4</ele>
        <time>2021-08-24T14:32:49Z</time>
      </trkpt>
      <trkpt lat="45.34415" lon="3.00823">
        <ele>1211.7</ele>
        <time>2021-08-24T14:32:51Z</time>
      </trkpt>
      <trkpt lat="45.34418" lon="3.00826">
        <ele>1211.5</ele>
        <time>2021-08-24T14:32:53Z</time>
      </trkpt>
      <trkpt lat="45.34423" lon="3.00829">
        <ele>1211.3</ele>
        <time>2021-08-24T14:32:55Z</time>
      </trkpt>
      <trkpt lat="45.34427" lon="3.00831">
        <ele>1211.2</ele>
        <time>2021-08-24T14:32:57Z</time>
      </trkpt>
      <trkpt lat="45.3443" lon="3.00834">
        <ele>1210.7</ele>
        <time>2021-08-24T14:32:59Z</time>
      </trkpt>
      <trkpt lat="45.34434" lon="3.00836">
        <ele>1210.4</ele>
        <time>2021-08-24T14:33:01Z</time>
      </trkpt>
      <trkpt lat="45.34438" lon="3.00839">
        <ele>1209.6</ele>
        <time>2021-08-24T14:33:03Z</time>
      </trkpt>
      <trkpt lat="45.34443" lon="3.00839">
        <ele>1210.1</ele>
        <time>2021-08-24T14:33:05Z</time>
      </trkpt>
      <trkpt lat="45.34447" lon="3.00841">
        <ele>1209.9</ele>
        <time>2021-08-24T14:33:07Z</time>
      </trkpt>
      <trkpt lat="45.34451" lon="3.00843">
        <ele>1209.6</ele>
        <time>2021-08-24T14:33:09Z</time>
      </trkpt>
      <trkpt lat="45.34455" lon="3.00845">
        <ele>1209.3</ele>
        <time>2021-08-24T14:33:11Z</time>
      </trkpt>
      <trkpt lat="45.34459" lon="3.00846">
        <ele>1209.4</ele>
        <time>2021-08-24T14:33:13Z</time>
      </trkpt>
      <trkpt lat="45.34463" lon="3.00848">
        <ele>1209.4</ele>
        <time>2021-08-24T14:33:15Z</time>
      </trkpt>
      <trkpt lat="45.34467" lon="3.00849">
        <ele>1209.5</ele>
        <time>2021-08-24T14:33:17Z</time>
      </trkpt>
      <trkpt lat="45.34471" lon="3.00849">
        <ele>1209.8</ele>
        <time>2021-08-24T14:33:19Z</time>
      </trkpt>
      <trkpt lat="45.34475" lon="3.00849">
        <ele>1210.4</ele>
        <time>2021-08-24T14:33:21Z</time>
      </trkpt>
      <trkpt lat="45.34479" lon="3.00849">
        <ele>1211</ele>
        <time>2021-08-24T14:33:23Z</time>
      </trkpt>
      <trkpt lat="45.34484" lon="3.00848">
        <ele>1212</ele>
        <time>2021-08-24T14:33:25Z</time>
      </trkpt>
      <trkpt lat="45.34487" lon="3.00847">
        <ele>1212.7</ele>
        <time>2021-08-24T14:33:27Z</time>
      </trkpt>
      <trkpt lat="45.34491" lon="3.00847">
        <ele>1213.5</ele>
        <time>2021-08-24T14:33:29Z</time>
      </trkpt>
      <trkpt lat="45.34494" lon="3.00844">
        <ele>1214.9</ele>
        <time>2021-08-24T14:33:31Z</time>
      </trkpt>
      <trkpt lat="45.34499" lon="3.00842">
        <ele>1216.2</ele>
        <time>2021-08-24T14:33:33Z</time>
      </trkpt>
      <trkpt lat="45.34502" lon="3.0084">
        <ele>1217.3</ele>
        <time>2021-08-24T14:33:35Z</time>
      </trkpt>
      <trkpt lat="45.34506" lon="3.00838">
        <ele>1218.1</ele>
        <time>2021-08-24T14:33:37Z</time>
      </trkpt>
      <trkpt lat="45.3451" lon="3.00836">
        <ele>1218.9</ele>
        <time>2021-08-24T14:33:39Z</time>
      </trkpt>
      <trkpt lat="45.34512" lon="3.00834">
        <ele>1219.5</ele>
        <time>2021-08-24T14:33:41Z</time>
      </trkpt>
      <trkpt lat="45.34516" lon="3.00832">
        <ele>1219.9</ele>
        <time>2021-08-24T14:33:43Z</time>
      </trkpt>
      <trkpt lat="45.34519" lon="3.0083">
        <ele>1220.6</ele>
        <time>2021-08-24T14:33:45Z</time>
      </trkpt>
      <trkpt lat="45.34523" lon="3.00828">
        <ele>1221.2</ele>
        <time>2021-08-24T14:33:47Z</time>
      </trkpt>
      <trkpt lat="45.34527" lon="3.00826">
        <ele>1221.5</ele>
        <time>2021-08-24T14:33:49Z</time>
      </trkpt>
      <trkpt lat="45.34531" lon="3.00825">
        <ele>1221.8</ele>
        <time>2021-08-24T14:33:51Z</time>
      </trkpt>
      <trkpt lat="45.34536" lon="3.00823">
        <ele>1222.2</ele>
        <time>2021-08-24T14:33:53Z</time>
      </trkpt>
      <trkpt lat="45.3454" lon="3.00822">
        <ele>1222.3</ele>
        <time>2021-08-24T14:33:55Z</time>
      </trkpt>
      <trkpt lat="45.34544" lon="3.00822">
        <ele>1222.1</ele>
        <time>2021-08-24T14:33:57Z</time>
      </trkpt>
      <trkpt lat="45.34549" lon="3.00823">
        <ele>1221.6</ele>
        <time>2021-08-24T14:33:59Z</time>
      </trkpt>
      <trkpt lat="45.34552" lon="3.00823">
        <ele>1221.4</ele>
        <time>2021-08-24T14:34:01Z</time>
      </trkpt>
      <trkpt lat="45.34557" lon="3.00825">
        <ele>1220.7</ele>
        <time>2021-08-24T14:34:03Z</time>
      </trkpt>
      <trkpt lat="45.3456" lon="3.00827">
        <ele>1220.1</ele>
        <time>2021-08-24T14:34:05Z</time>
      </trkpt>
      <trkpt lat="45.34565" lon="3.00829">
        <ele>1219.4</ele>
        <time>2021-08-24T14:34:07Z</time>
      </trkpt>
      <trkpt lat="45.34568" lon="3.00832">
        <ele>1218.7</ele>
        <time>2021-08-24T14:34:09Z</time>
      </trkpt>
      <trkpt lat="45.34572" lon="3.00834">
        <ele>1218.2</ele>
        <time>2021-08-24T14:34:11Z</time>
      </trkpt>
      <trkpt lat="45.34576" lon="3.00836">
        <ele>1217.5</ele>
        <time>2021-08-24T14:34:13Z</time>
      </trkpt>
      <trkpt lat="45.3458" lon="3.00839">
        <ele>1216.9</ele>
        <time>2021-08-24T14:34:15Z</time>
      </trkpt>
      <trkpt lat="45.34584" lon="3.00841">
        <ele>1216.5</ele>
        <time>2021-08-24T14:34:17Z</time>
      </trkpt>
      <trkpt lat="45.34588" lon="3.00844">
        <ele>1216.8</ele>
        <time>2021-08-24T14:34:19Z</time>
      </trkpt>
      <trkpt lat="45.34591" lon="3.00848">
        <ele>1216.7</ele>
        <time>2021-08-24T14:34:21Z</time>
      </trkpt>
      <trkpt lat="45.34595" lon="3.00852">
        <ele>1216.4</ele>
        <time>2021-08-24T14:34:23Z</time>
      </trkpt>
      <trkpt lat="45.34598" lon="3.00856">
        <ele>1216.2</ele>
        <time>2021-08-24T14:34:25Z</time>
      </trkpt>
      <trkpt lat="45.34601" lon="3.0086">
        <ele>1216</ele>
        <time>2021-08-24T14:34:27Z</time>
      </trkpt>
      <trkpt lat="45.34604" lon="3.00865">
        <ele>1215.6</ele>
        <time>2021-08-24T14:34:29Z</time>
      </trkpt>
      <trkpt lat="45.34607" lon="3.00869">
        <ele>1215.3</ele>
        <time>2021-08-24T14:34:31Z</time>
      </trkpt>
      <trkpt lat="45.3461" lon="3.00873">
        <ele>1215</ele>
        <time>2021-08-24T14:34:33Z</time>
      </trkpt>
      <trkpt lat="45.34613" lon="3.00878">
        <ele>1214.6</ele>
        <time>2021-08-24T14:34:35Z</time>
      </trkpt>
      <trkpt lat="45.34616" lon="3.00882">
        <ele>1214.3</ele>
        <time>2021-08-24T14:34:37Z</time>
      </trkpt>
      <trkpt lat="45.34619" lon="3.00886">
        <ele>1214</ele>
        <time>2021-08-24T14:34:39Z</time>
      </trkpt>
      <trkpt lat="45.34621" lon="3.00891">
        <ele>1213.5</ele>
        <time>2021-08-24T14:34:41Z</time>
      </trkpt>
      <trkpt lat="45.34624" lon="3.00895">
        <ele>1213.2</ele>
        <time>2021-08-24T14:34:43Z</time>
      </trkpt>
      <trkpt lat="45.34626" lon="3.00899">
        <ele>1212.9</ele>
        <time>2021-08-24T14:34:45Z</time>
      </trkpt>
      <trkpt lat="45.34629" lon="3.00904">
        <ele>1212.5</ele>
        <time>2021-08-24T14:34:47Z</time>
      </trkpt>
      <trkpt lat="45.34633" lon="3.00909">
        <ele>1212.1</ele>
        <time>2021-08-24T14:34:49Z</time>
      </trkpt>
      <trkpt lat="45.34636" lon="3.00912">
        <ele>1211.9</ele>
        <time>2021-08-24T14:34:51Z</time>
      </trkpt>
      <trkpt lat="45.34638" lon="3.00917">
        <ele>1211.5</ele>
        <time>2021-08-24T14:34:53Z</time>
      </trkpt>
      <trkpt lat="45.34641" lon="3.00921">
        <ele>1211.2</ele>
        <time>2021-08-24T14:34:55Z</time>
      </trkpt>
      <trkpt lat="45.34644" lon="3.00924">
        <ele>1211</ele>
        <time>2021-08-24T14:34:57Z</time>
      </trkpt>
      <trkpt lat="45.34647" lon="3.00928">
        <ele>1210.8</ele>
        <time>2021-08-24T14:34:59Z</time>
      </trkpt>
      <trkpt lat="45.34651" lon="3.00931">
        <ele>1210.7</ele>
        <time>2021-08-24T14:35:01Z</time>
      </trkpt>
      <trkpt lat="45.34654" lon="3.00935">
        <ele>1210.6</ele>
        <time>2021-08-24T14:35:03Z</time>
      </trkpt>
      <trkpt lat="45.34658" lon="3.00937">
        <ele>1210.8</ele>
        <time>2021-08-24T14:35:05Z</time>
      </trkpt>
      <trkpt lat="45.34662" lon="3.00939">
        <ele>1211.1</ele>
        <time>2021-08-24T14:35:07Z</time>
      </trkpt>
      <trkpt lat="45.34666" lon="3.00941">
        <ele>1211.6</ele>
        <time>2021-08-24T14:35:09Z</time>
      </trkpt>
      <trkpt lat="45.34669" lon="3.00942">
        <ele>1211.3</ele>
        <time>2021-08-24T14:35:11Z</time>
      </trkpt>
      <trkpt lat="45.34673" lon="3.00943">
        <ele>1211.1</ele>
        <time>2021-08-24T14:35:13Z</time>
      </trkpt>
      <trkpt lat="45.34677" lon="3.00943">
        <ele>1210.7</ele>
        <time>2021-08-24T14:35:15Z</time>
      </trkpt>
      <trkpt lat="45.34681" lon="3.00944">
        <ele>1210.4</ele>
        <time>2021-08-24T14:35:17Z</time>
      </trkpt>
      <trkpt lat="45.34685" lon="3.00943">
        <ele>1210.4</ele>
        <time>2021-08-24T14:35:19Z</time>
      </trkpt>
      <trkpt lat="45.34689" lon="3.00941">
        <ele>1210.6</ele>
        <time>2021-08-24T14:35:21Z</time>
      </trkpt>
      <trkpt lat="45.34693" lon="3.00939">
        <ele>1210.8</ele>
        <time>2021-08-24T14:35:23Z</time>
      </trkpt>
      <trkpt lat="45.34696" lon="3.00936">
        <ele>1211.1</ele>
        <time>2021-08-24T14:35:25Z</time>
      </trkpt>
      <trkpt lat="45.347" lon="3.00933">
        <ele>1211.6</ele>
        <time>2021-08-24T14:35:27Z</time>
      </trkpt>
      <trkpt lat="45.34703" lon="3.00929">
        <ele>1212.2</ele>
        <time>2021-08-24T14:35:29Z</time>
      </trkpt>
      <trkpt lat="45.34706" lon="3.00926">
        <ele>1212.9</ele>
        <time>2021-08-24T14:35:31Z</time>
      </trkpt>
      <trkpt lat="45.34708" lon="3.00921">
        <ele>1213.6</ele>
        <time>2021-08-24T14:35:33Z</time>
      </trkpt>
      <trkpt lat="45.3471" lon="3.00917">
        <ele>1214.4</ele>
        <time>2021-08-24T14:35:35Z</time>
      </trkpt>
      <trkpt lat="45.34712" lon="3.00912">
        <ele>1215.3</ele>
        <time>2021-08-24T14:35:37Z</time>
      </trkpt>
      <trkpt lat="45.34714" lon="3.00907">
        <ele>1216</ele>
        <time>2021-08-24T14:35:39Z</time>
      </trkpt>
      <trkpt lat="45.34716" lon="3.00902">
        <ele>1216.9</ele>
        <time>2021-08-24T14:35:41Z</time>
      </trkpt>
      <trkpt lat="45.34718" lon="3.00898">
        <ele>1217.6</ele>
        <time>2021-08-24T14:35:43Z</time>
      </trkpt>
      <trkpt lat="45.3472" lon="3.00893">
        <ele>1218.4</ele>
        <time>2021-08-24T14:35:45Z</time>
      </trkpt>
      <trkpt lat="45.34722" lon="3.00888">
        <ele>1219.3</ele>
        <time>2021-08-24T14:35:47Z</time>
      </trkpt>
      <trkpt lat="45.34724" lon="3.00883">
        <ele>1220.1</ele>
        <time>2021-08-24T14:35:49Z</time>
      </trkpt>
      <trkpt lat="45.34726" lon="3.00878">
        <ele>1220.9</ele>
        <time>2021-08-24T14:35:51Z</time>
      </trkpt>
      <trkpt lat="45.34728" lon="3.00874">
        <ele>1221.7</ele>
        <time>2021-08-24T14:35:53Z</time>
      </trkpt>
      <trkpt lat="45.3473" lon="3.00869">
        <ele>1222.5</ele>
        <time>2021-08-24T14:35:55Z</time>
      </trkpt>
      <trkpt lat="45.34732" lon="3.00864">
        <ele>1223.3</ele>
        <time>2021-08-24T14:35:57Z</time>
      </trkpt>
      <trkpt lat="45.34734" lon="3.00859">
        <ele>1224.1</ele>
        <time>2021-08-24T14:35:59Z</time>
      </trkpt>
      <trkpt lat="45.34737" lon="3.00854">
        <ele>1224.9</ele>
        <time>2021-08-24T14:36:01Z</time>
      </trkpt>
      <trkpt lat="45.34739" lon="3.00849">
        <ele>1225.7</ele>
        <time>2021-08-24T14:36:03Z</time>
      </trkpt>
      <trkpt lat="45.34741" lon="3.00845">
        <ele>1226.4</ele>
        <time>2021-08-24T14:36:05Z</time>
      </trkpt>
      <trkpt lat="45.34743" lon="3.0084">
        <ele>1227.2</ele>
        <time>2021-08-24T14:36:07Z</time>
      </trkpt>
      <trkpt lat="45.34745" lon="3.00836">
        <ele>1227.8</ele>
        <time>2021-08-24T14:36:09Z</time>
      </trkpt>
      <trkpt lat="45.34748" lon="3.00832">
        <ele>1228.6</ele>
        <time>2021-08-24T14:36:11Z</time>
      </trkpt>
      <trkpt lat="45.3475" lon="3.00827">
        <ele>1230.1</ele>
        <time>2021-08-24T14:36:13Z</time>
      </trkpt>
      <trkpt lat="45.34752" lon="3.00823">
        <ele>1231.3</ele>
        <time>2021-08-24T14:36:15Z</time>
      </trkpt>
      <trkpt lat="45.34755" lon="3.0082">
        <ele>1232.3</ele>
        <time>2021-08-24T14:36:17Z</time>
      </trkpt>
      <trkpt lat="45.34757" lon="3.00815">
        <ele>1233.6</ele>
        <time>2021-08-24T14:36:19Z</time>
      </trkpt>
      <trkpt lat="45.3476" lon="3.00811">
        <ele>1234.8</ele>
        <time>2021-08-24T14:36:21Z</time>
      </trkpt>
      <trkpt lat="45.34763" lon="3.00806">
        <ele>1235.9</ele>
        <time>2021-08-24T14:36:23Z</time>
      </trkpt>
      <trkpt lat="45.34765" lon="3.00802">
        <ele>1237.1</ele>
        <time>2021-08-24T14:36:25Z</time>
      </trkpt>
      <trkpt lat="45.34767" lon="3.00798">
        <ele>1238.3</ele>
        <time>2021-08-24T14:36:27Z</time>
      </trkpt>
      <trkpt lat="45.3477" lon="3.00793">
        <ele>1239.6</ele>
        <time>2021-08-24T14:36:29Z</time>
      </trkpt>
      <trkpt lat="45.34772" lon="3.00788">
        <ele>1240.8</ele>
        <time>2021-08-24T14:36:31Z</time>
      </trkpt>
      <trkpt lat="45.34774" lon="3.00783">
        <ele>1242.1</ele>
        <time>2021-08-24T14:36:33Z</time>
      </trkpt>
      <trkpt lat="45.34776" lon="3.00779">
        <ele>1243.3</ele>
        <time>2021-08-24T14:36:35Z</time>
      </trkpt>
      <trkpt lat="45.34779" lon="3.00774">
        <ele>1244.4</ele>
        <time>2021-08-24T14:36:37Z</time>
      </trkpt>
      <trkpt lat="45.34781" lon="3.00769">
        <ele>1245.6</ele>
        <time>2021-08-24T14:36:39Z</time>
      </trkpt>
      <trkpt lat="45.34784" lon="3.00766">
        <ele>1246.4</ele>
        <time>2021-08-24T14:36:41Z</time>
      </trkpt>
      <trkpt lat="45.34786" lon="3.00762">
        <ele>1247.3</ele>
        <time>2021-08-24T14:36:43Z</time>
      </trkpt>
      <trkpt lat="45.34789" lon="3.00758">
        <ele>1248</ele>
        <time>2021-08-24T14:36:45Z</time>
      </trkpt>
      <trkpt lat="45.34793" lon="3.00754">
        <ele>1248.6</ele>
        <time>2021-08-24T14:36:47Z</time>
      </trkpt>
      <trkpt lat="45.34797" lon="3.00751">
        <ele>1248.9</ele>
        <time>2021-08-24T14:36:49Z</time>
      </trkpt>
      <trkpt lat="45.34799" lon="3.00749">
        <ele>1249</ele>
        <time>2021-08-24T14:36:51Z</time>
      </trkpt>
      <trkpt lat="45.34803" lon="3.00748">
        <ele>1248.8</ele>
        <time>2021-08-24T14:36:53Z</time>
      </trkpt>
      <trkpt lat="45.34808" lon="3.00747">
        <ele>1248.5</ele>
        <time>2021-08-24T14:36:55Z</time>
      </trkpt>
      <trkpt lat="45.34811" lon="3.00747">
        <ele>1247.9</ele>
        <time>2021-08-24T14:36:57Z</time>
      </trkpt>
      <trkpt lat="45.34816" lon="3.00747">
        <ele>1247.2</ele>
        <time>2021-08-24T14:36:59Z</time>
      </trkpt>
      <trkpt lat="45.3482" lon="3.00748">
        <ele>1246.4</ele>
        <time>2021-08-24T14:37:01Z</time>
      </trkpt>
      <trkpt lat="45.34823" lon="3.00751">
        <ele>1245.3</ele>
        <time>2021-08-24T14:37:03Z</time>
      </trkpt>
      <trkpt lat="45.34828" lon="3.00753">
        <ele>1244.1</ele>
        <time>2021-08-24T14:37:05Z</time>
      </trkpt>
      <trkpt lat="45.34832" lon="3.00755">
        <ele>1243.1</ele>
        <time>2021-08-24T14:37:07Z</time>
      </trkpt>
      <trkpt lat="45.34836" lon="3.00757">
        <ele>1242.2</ele>
        <time>2021-08-24T14:37:09Z</time>
      </trkpt>
      <trkpt lat="45.3484" lon="3.00759">
        <ele>1241.5</ele>
        <time>2021-08-24T14:37:11Z</time>
      </trkpt>
      <trkpt lat="45.34845" lon="3.00762">
        <ele>1240.9</ele>
        <time>2021-08-24T14:37:13Z</time>
      </trkpt>
      <trkpt lat="45.34848" lon="3.00765">
        <ele>1240</ele>
        <time>2021-08-24T14:37:15Z</time>
      </trkpt>
      <trkpt lat="45.34852" lon="3.00767">
        <ele>1239.6</ele>
        <time>2021-08-24T14:37:17Z</time>
      </trkpt>
      <trkpt lat="45.34856" lon="3.0077">
        <ele>1238.9</ele>
        <time>2021-08-24T14:37:19Z</time>
      </trkpt>
      <trkpt lat="45.3486" lon="3.00773">
        <ele>1238.2</ele>
        <time>2021-08-24T14:37:21Z</time>
      </trkpt>
      <trkpt lat="45.34864" lon="3.00776">
        <ele>1237.7</ele>
        <time>2021-08-24T14:37:23Z</time>
      </trkpt>
      <trkpt lat="45.34868" lon="3.00778">
        <ele>1237.3</ele>
        <time>2021-08-24T14:37:25Z</time>
      </trkpt>
      <trkpt lat="45.34872" lon="3.00781">
        <ele>1236.9</ele>
        <time>2021-08-24T14:37:27Z</time>
      </trkpt>
      <trkpt lat="45.34876" lon="3.00782">
        <ele>1236.8</ele>
        <time>2021-08-24T14:37:29Z</time>
      </trkpt>
      <trkpt lat="45.34881" lon="3.00783">
        <ele>1236.7</ele>
        <time>2021-08-24T14:37:31Z</time>
      </trkpt>
      <trkpt lat="45.34885" lon="3.00783">
        <ele>1236.7</ele>
        <time>2021-08-24T14:37:33Z</time>
      </trkpt>
      <trkpt lat="45.34889" lon="3.00783">
        <ele>1236.8</ele>
        <time>2021-08-24T14:37:35Z</time>
      </trkpt>
      <trkpt lat="45.34893" lon="3.00783">
        <ele>1236.9</ele>
        <time>2021-08-24T14:37:37Z</time>
      </trkpt>
      <trkpt lat="45.34897" lon="3.00782">
        <ele>1237.1</ele>
        <time>2021-08-24T14:37:39Z</time>
      </trkpt>
      <trkpt lat="45.34901" lon="3.00781">
        <ele>1237.3</ele>
        <time>2021-08-24T14:37:41Z</time>
      </trkpt>
      <trkpt lat="45.34905" lon="3.0078">
        <ele>1237.5</ele>
        <time>2021-08-24T14:37:43Z</time>
      </trkpt>
      <trkpt lat="45.3491" lon="3.00779">
        <ele>1237.8</ele>
        <time>2021-08-24T14:37:45Z</time>
      </trkpt>
      <trkpt lat="45.34914" lon="3.00778">
        <ele>1238</ele>
        <time>2021-08-24T14:37:47Z</time>
      </trkpt>
      <trkpt lat="45.34918" lon="3.00775">
        <ele>1238.2</ele>
        <time>2021-08-24T14:37:49Z</time>
      </trkpt>
      <trkpt lat="45.34923" lon="3.00772">
        <ele>1238.2</ele>
        <time>2021-08-24T14:37:51Z</time>
      </trkpt>
      <trkpt lat="45.34928" lon="3.00769">
        <ele>1238.1</ele>
        <time>2021-08-24T14:37:53Z</time>
      </trkpt>
      <trkpt lat="45.34932" lon="3.00766">
        <ele>1238.1</ele>
        <time>2021-08-24T14:37:55Z</time>
      </trkpt>
      <trkpt lat="45.34936" lon="3.00763">
        <ele>1238.1</ele>
        <time>2021-08-24T14:37:57Z</time>
      </trkpt>
      <trkpt lat="45.3494" lon="3.00759">
        <ele>1238.2</ele>
        <time>2021-08-24T14:37:59Z</time>
      </trkpt>
      <trkpt lat="45.34944" lon="3.00755">
        <ele>1238.2</ele>
        <time>2021-08-24T14:38:01Z</time>
      </trkpt>
      <trkpt lat="45.34947" lon="3.00751">
        <ele>1238.3</ele>
        <time>2021-08-24T14:38:03Z</time>
      </trkpt>
      <trkpt lat="45.34952" lon="3.00746">
        <ele>1238.6</ele>
        <time>2021-08-24T14:38:05Z</time>
      </trkpt>
      <trkpt lat="45.34956" lon="3.00741">
        <ele>1238.9</ele>
        <time>2021-08-24T14:38:07Z</time>
      </trkpt>
      <trkpt lat="45.34961" lon="3.00737">
        <ele>1239.1</ele>
        <time>2021-08-24T14:38:09Z</time>
      </trkpt>
      <trkpt lat="45.34965" lon="3.00732">
        <ele>1239.6</ele>
        <time>2021-08-24T14:38:11Z</time>
      </trkpt>
      <trkpt lat="45.34969" lon="3.00727">
        <ele>1239.9</ele>
        <time>2021-08-24T14:38:13Z</time>
      </trkpt>
      <trkpt lat="45.34973" lon="3.00723">
        <ele>1240.3</ele>
        <time>2021-08-24T14:38:15Z</time>
      </trkpt>
      <trkpt lat="45.34978" lon="3.00719">
        <ele>1240.6</ele>
        <time>2021-08-24T14:38:17Z</time>
      </trkpt>
      <trkpt lat="45.34982" lon="3.00714">
        <ele>1241</ele>
        <time>2021-08-24T14:38:19Z</time>
      </trkpt>
      <trkpt lat="45.34986" lon="3.00709">
        <ele>1241.5</ele>
        <time>2021-08-24T14:38:21Z</time>
      </trkpt>
      <trkpt lat="45.3499" lon="3.00704">
        <ele>1241.9</ele>
        <time>2021-08-24T14:38:23Z</time>
      </trkpt>
      <trkpt lat="45.34995" lon="3.007">
        <ele>1242.2</ele>
        <time>2021-08-24T14:38:25Z</time>
      </trkpt>
      <trkpt lat="45.34999" lon="3.00695">
        <ele>1242.7</ele>
        <time>2021-08-24T14:38:27Z</time>
      </trkpt>
      <trkpt lat="45.35003" lon="3.0069">
        <ele>1242.9</ele>
        <time>2021-08-24T14:38:29Z</time>
      </trkpt>
      <trkpt lat="45.35006" lon="3.00685">
        <ele>1242.7</ele>
        <time>2021-08-24T14:38:31Z</time>
      </trkpt>
      <trkpt lat="45.3501" lon="3.00681">
        <ele>1242.6</ele>
        <time>2021-08-24T14:38:33Z</time>
      </trkpt>
      <trkpt lat="45.35014" lon="3.00675">
        <ele>1242.7</ele>
        <time>2021-08-24T14:38:35Z</time>
      </trkpt>
      <trkpt lat="45.35017" lon="3.00669">
        <ele>1242.8</ele>
        <time>2021-08-24T14:38:37Z</time>
      </trkpt>
      <trkpt lat="45.3502" lon="3.00662">
        <ele>1243.2</ele>
        <time>2021-08-24T14:38:39Z</time>
      </trkpt>
      <trkpt lat="45.35022" lon="3.00656">
        <ele>1243.7</ele>
        <time>2021-08-24T14:38:41Z</time>
      </trkpt>
      <trkpt lat="45.35025" lon="3.00649">
        <ele>1244.3</ele>
        <time>2021-08-24T14:38:43Z</time>
      </trkpt>
      <trkpt lat="45.35027" lon="3.00642">
        <ele>1244.9</ele>
        <time>2021-08-24T14:38:45Z</time>
      </trkpt>
      <trkpt lat="45.3503" lon="3.00635">
        <ele>1245.4</ele>
        <time>2021-08-24T14:38:47Z</time>
      </trkpt>
      <trkpt lat="45.35032" lon="3.00628">
        <ele>1246</ele>
        <time>2021-08-24T14:38:49Z</time>
      </trkpt>
      <trkpt lat="45.35034" lon="3.00621">
        <ele>1246.3</ele>
        <time>2021-08-24T14:38:51Z</time>
      </trkpt>
      <trkpt lat="45.35036" lon="3.00615">
        <ele>1246.7</ele>
        <time>2021-08-24T14:38:53Z</time>
      </trkpt>
      <trkpt lat="45.35039" lon="3.00608">
        <ele>1247.1</ele>
        <time>2021-08-24T14:38:55Z</time>
      </trkpt>
      <trkpt lat="45.35042" lon="3.00602">
        <ele>1247.2</ele>
        <time>2021-08-24T14:38:57Z</time>
      </trkpt>
      <trkpt lat="45.35044" lon="3.00595">
        <ele>1247.4</ele>
        <time>2021-08-24T14:38:59Z</time>
      </trkpt>
      <trkpt lat="45.35047" lon="3.00589">
        <ele>1247.5</ele>
        <time>2021-08-24T14:39:01Z</time>
      </trkpt>
      <trkpt lat="45.3505" lon="3.00583">
        <ele>1247.5</ele>
        <time>2021-08-24T14:39:03Z</time>
      </trkpt>
      <trkpt lat="45.35053" lon="3.00577">
        <ele>1247.5</ele>
        <time>2021-08-24T14:39:05Z</time>
      </trkpt>
      <trkpt lat="45.35055" lon="3.00571">
        <ele>1247.6</ele>
        <time>2021-08-24T14:39:07Z</time>
      </trkpt>
      <trkpt lat="45.35057" lon="3.00565">
        <ele>1247.8</ele>
        <time>2021-08-24T14:39:09Z</time>
      </trkpt>
      <trkpt lat="45.35059" lon="3.00558">
        <ele>1247.9</ele>
        <time>2021-08-24T14:39:11Z</time>
      </trkpt>
      <trkpt lat="45.3506" lon="3.00551">
        <ele>1248.5</ele>
        <time>2021-08-24T14:39:13Z</time>
      </trkpt>
      <trkpt lat="45.35061" lon="3.00545">
        <ele>1248.9</ele>
        <time>2021-08-24T14:39:15Z</time>
      </trkpt>
      <trkpt lat="45.35062" lon="3.00538">
        <ele>1249.5</ele>
        <time>2021-08-24T14:39:17Z</time>
      </trkpt>
      <trkpt lat="45.35064" lon="3.00532">
        <ele>1249.8</ele>
        <time>2021-08-24T14:39:19Z</time>
      </trkpt>
      <trkpt lat="45.35064" lon="3.00525">
        <ele>1250.4</ele>
        <time>2021-08-24T14:39:21Z</time>
      </trkpt>
      <trkpt lat="45.35065" lon="3.00518">
        <ele>1251</ele>
        <time>2021-08-24T14:39:23Z</time>
      </trkpt>
      <trkpt lat="45.35067" lon="3.00511">
        <ele>1251.3</ele>
        <time>2021-08-24T14:39:25Z</time>
      </trkpt>
      <trkpt lat="45.35068" lon="3.00505">
        <ele>1251.8</ele>
        <time>2021-08-24T14:39:27Z</time>
      </trkpt>
      <trkpt lat="45.35069" lon="3.00498">
        <ele>1252.3</ele>
        <time>2021-08-24T14:39:29Z</time>
      </trkpt>
      <trkpt lat="45.3507" lon="3.00493">
        <ele>1252.1</ele>
        <time>2021-08-24T14:39:31Z</time>
      </trkpt>
      <trkpt lat="45.35071" lon="3.00486">
        <ele>1252.3</ele>
        <time>2021-08-24T14:39:33Z</time>
      </trkpt>
      <trkpt lat="45.35072" lon="3.0048">
        <ele>1252.4</ele>
        <time>2021-08-24T14:39:35Z</time>
      </trkpt>
      <trkpt lat="45.35073" lon="3.00475">
        <ele>1252.7</ele>
        <time>2021-08-24T14:39:37Z</time>
      </trkpt>
      <trkpt lat="45.35073" lon="3.00468">
        <ele>1253.1</ele>
        <time>2021-08-24T14:39:39Z</time>
      </trkpt>
      <trkpt lat="45.35074" lon="3.00462">
        <ele>1253.3</ele>
        <time>2021-08-24T14:39:41Z</time>
      </trkpt>
      <trkpt lat="45.35075" lon="3.00454">
        <ele>1253.5</ele>
        <time>2021-08-24T14:39:43Z</time>
      </trkpt>
      <trkpt lat="45.35077" lon="3.00447">
        <ele>1253.4</ele>
        <time>2021-08-24T14:39:45Z</time>
      </trkpt>
      <trkpt lat="45.35077" lon="3.0044">
        <ele>1253.8</ele>
        <time>2021-08-24T14:39:47Z</time>
      </trkpt>
      <trkpt lat="45.35078" lon="3.00433">
        <ele>1253.8</ele>
        <time>2021-08-24T14:39:49Z</time>
      </trkpt>
      <trkpt lat="45.35079" lon="3.00425">
        <ele>1254.1</ele>
        <time>2021-08-24T14:39:51Z</time>
      </trkpt>
      <trkpt lat="45.3508" lon="3.00419">
        <ele>1254.3</ele>
        <time>2021-08-24T14:39:53Z</time>
      </trkpt>
      <trkpt lat="45.3508" lon="3.00412">
        <ele>1254.4</ele>
        <time>2021-08-24T14:39:55Z</time>
      </trkpt>
      <trkpt lat="45.35081" lon="3.00405">
        <ele>1254.1</ele>
        <time>2021-08-24T14:39:57Z</time>
      </trkpt>
      <trkpt lat="45.35079" lon="3.00399">
        <ele>1254.8</ele>
        <time>2021-08-24T14:39:59Z</time>
      </trkpt>
      <trkpt lat="45.35078" lon="3.00392">
        <ele>1255.1</ele>
        <time>2021-08-24T14:40:01Z</time>
      </trkpt>
      <trkpt lat="45.35077" lon="3.00386">
        <ele>1255.7</ele>
        <time>2021-08-24T14:40:03Z</time>
      </trkpt>
      <trkpt lat="45.35075" lon="3.00379">
        <ele>1256.5</ele>
        <time>2021-08-24T14:40:05Z</time>
      </trkpt>
      <trkpt lat="45.35073" lon="3.00373">
        <ele>1257.3</ele>
        <time>2021-08-24T14:40:07Z</time>
      </trkpt>
      <trkpt lat="45.35072" lon="3.00367">
        <ele>1257.8</ele>
        <time>2021-08-24T14:40:09Z</time>
      </trkpt>
      <trkpt lat="45.35071" lon="3.0036">
        <ele>1258.3</ele>
        <time>2021-08-24T14:40:11Z</time>
      </trkpt>
      <trkpt lat="45.35069" lon="3.00354">
        <ele>1259</ele>
        <time>2021-08-24T14:40:13Z</time>
      </trkpt>
      <trkpt lat="45.35068" lon="3.00348">
        <ele>1259.5</ele>
        <time>2021-08-24T14:40:15Z</time>
      </trkpt>
      <trkpt lat="45.35066" lon="3.00342">
        <ele>1260.2</ele>
        <time>2021-08-24T14:40:17Z</time>
      </trkpt>
      <trkpt lat="45.35065" lon="3.00336">
        <ele>1260.6</ele>
        <time>2021-08-24T14:40:19Z</time>
      </trkpt>
      <trkpt lat="45.35064" lon="3.00329">
        <ele>1261.2</ele>
        <time>2021-08-24T14:40:21Z</time>
      </trkpt>
      <trkpt lat="45.35063" lon="3.00323">
        <ele>1261.7</ele>
        <time>2021-08-24T14:40:23Z</time>
      </trkpt>
      <trkpt lat="45.35061" lon="3.00316">
        <ele>1262.4</ele>
        <time>2021-08-24T14:40:25Z</time>
      </trkpt>
      <trkpt lat="45.35059" lon="3.00309">
        <ele>1263</ele>
        <time>2021-08-24T14:40:27Z</time>
      </trkpt>
      <trkpt lat="45.35057" lon="3.00303">
        <ele>1263.7</ele>
        <time>2021-08-24T14:40:29Z</time>
      </trkpt>
      <trkpt lat="45.35055" lon="3.00296">
        <ele>1264.4</ele>
        <time>2021-08-24T14:40:31Z</time>
      </trkpt>
      <trkpt lat="45.35055" lon="3.00289">
        <ele>1264.7</ele>
        <time>2021-08-24T14:40:33Z</time>
      </trkpt>
      <trkpt lat="45.35054" lon="3.00282">
        <ele>1264.9</ele>
        <time>2021-08-24T14:40:35Z</time>
      </trkpt>
      <trkpt lat="45.35053" lon="3.00275">
        <ele>1265.1</ele>
        <time>2021-08-24T14:40:37Z</time>
      </trkpt>
      <trkpt lat="45.35052" lon="3.00268">
        <ele>1265.4</ele>
        <time>2021-08-24T14:40:39Z</time>
      </trkpt>
      <trkpt lat="45.35051" lon="3.00261">
        <ele>1265.6</ele>
        <time>2021-08-24T14:40:41Z</time>
      </trkpt>
      <trkpt lat="45.3505" lon="3.00254">
        <ele>1266.1</ele>
        <time>2021-08-24T14:40:43Z</time>
      </trkpt>
      <trkpt lat="45.35049" lon="3.00247">
        <ele>1266.5</ele>
        <time>2021-08-24T14:40:45Z</time>
      </trkpt>
      <trkpt lat="45.35047" lon="3.00241">
        <ele>1267.2</ele>
        <time>2021-08-24T14:40:47Z</time>
      </trkpt>
      <trkpt lat="45.35045" lon="3.00234">
        <ele>1267.6</ele>
        <time>2021-08-24T14:40:49Z</time>
      </trkpt>
      <trkpt lat="45.35043" lon="3.00227">
        <ele>1268</ele>
        <time>2021-08-24T14:40:51Z</time>
      </trkpt>
      <trkpt lat="45.35042" lon="3.0022">
        <ele>1268.4</ele>
        <time>2021-08-24T14:40:53Z</time>
      </trkpt>
      <trkpt lat="45.35041" lon="3.00213">
        <ele>1268.6</ele>
        <time>2021-08-24T14:40:55Z</time>
      </trkpt>
      <trkpt lat="45.35039" lon="3.00207">
        <ele>1268.9</ele>
        <time>2021-08-24T14:40:57Z</time>
      </trkpt>
      <trkpt lat="45.35038" lon="3.00201">
        <ele>1269.3</ele>
        <time>2021-08-24T14:40:59Z</time>
      </trkpt>
      <trkpt lat="45.35036" lon="3.00194">
        <ele>1269.5</ele>
        <time>2021-08-24T14:41:01Z</time>
      </trkpt>
      <trkpt lat="45.35035" lon="3.00188">
        <ele>1269.6</ele>
        <time>2021-08-24T14:41:03Z</time>
      </trkpt>
      <trkpt lat="45.35034" lon="3.00181">
        <ele>1269.7</ele>
        <time>2021-08-24T14:41:05Z</time>
      </trkpt>
      <trkpt lat="45.35033" lon="3.00174">
        <ele>1269.6</ele>
        <time>2021-08-24T14:41:07Z</time>
      </trkpt>
      <trkpt lat="45.35034" lon="3.00167">
        <ele>1269.4</ele>
        <time>2021-08-24T14:41:09Z</time>
      </trkpt>
      <trkpt lat="45.35034" lon="3.00159">
        <ele>1269.5</ele>
        <time>2021-08-24T14:41:11Z</time>
      </trkpt>
      <trkpt lat="45.35036" lon="3.00152">
        <ele>1269.5</ele>
        <time>2021-08-24T14:41:13Z</time>
      </trkpt>
      <trkpt lat="45.3504" lon="3.00146">
        <ele>1269.1</ele>
        <time>2021-08-24T14:41:15Z</time>
      </trkpt>
      <trkpt lat="45.35044" lon="3.0014">
        <ele>1268.7</ele>
        <time>2021-08-24T14:41:17Z</time>
      </trkpt>
      <trkpt lat="45.35049" lon="3.00136">
        <ele>1268.1</ele>
        <time>2021-08-24T14:41:19Z</time>
      </trkpt>
      <trkpt lat="45.35054" lon="3.00135">
        <ele>1267.3</ele>
        <time>2021-08-24T14:41:21Z</time>
      </trkpt>
      <trkpt lat="45.35059" lon="3.00134">
        <ele>1266.4</ele>
        <time>2021-08-24T14:41:23Z</time>
      </trkpt>
      <trkpt lat="45.35065" lon="3.00135">
        <ele>1265.4</ele>
        <time>2021-08-24T14:41:25Z</time>
      </trkpt>
      <trkpt lat="45.3507" lon="3.00137">
        <ele>1264.3</ele>
        <time>2021-08-24T14:41:27Z</time>
      </trkpt>
      <trkpt lat="45.35076" lon="3.00138">
        <ele>1263.2</ele>
        <time>2021-08-24T14:41:29Z</time>
      </trkpt>
      <trkpt lat="45.35081" lon="3.00138">
        <ele>1262.1</ele>
        <time>2021-08-24T14:41:31Z</time>
      </trkpt>
      <trkpt lat="45.35087" lon="3.00139">
        <ele>1261.7</ele>
        <time>2021-08-24T14:41:33Z</time>
      </trkpt>
      <trkpt lat="45.35092" lon="3.00138">
        <ele>1261.7</ele>
        <time>2021-08-24T14:41:35Z</time>
      </trkpt>
      <trkpt lat="45.35098" lon="3.00136">
        <ele>1262</ele>
        <time>2021-08-24T14:41:37Z</time>
      </trkpt>
      <trkpt lat="45.35103" lon="3.00134">
        <ele>1262.2</ele>
        <time>2021-08-24T14:41:39Z</time>
      </trkpt>
      <trkpt lat="45.35107" lon="3.0013">
        <ele>1262.7</ele>
        <time>2021-08-24T14:41:41Z</time>
      </trkpt>
      <trkpt lat="45.35112" lon="3.00127">
        <ele>1263.1</ele>
        <time>2021-08-24T14:41:43Z</time>
      </trkpt>
      <trkpt lat="45.35117" lon="3.00125">
        <ele>1263.3</ele>
        <time>2021-08-24T14:41:45Z</time>
      </trkpt>
      <trkpt lat="45.35123" lon="3.00122">
        <ele>1263.7</ele>
        <time>2021-08-24T14:41:47Z</time>
      </trkpt>
      <trkpt lat="45.35128" lon="3.00118">
        <ele>1264</ele>
        <time>2021-08-24T14:41:49Z</time>
      </trkpt>
      <trkpt lat="45.35133" lon="3.00116">
        <ele>1264.3</ele>
        <time>2021-08-24T14:41:51Z</time>
      </trkpt>
      <trkpt lat="45.35138" lon="3.00113">
        <ele>1264.6</ele>
        <time>2021-08-24T14:41:53Z</time>
      </trkpt>
      <trkpt lat="45.35143" lon="3.00111">
        <ele>1264.8</ele>
        <time>2021-08-24T14:41:55Z</time>
      </trkpt>
      <trkpt lat="45.35149" lon="3.00108">
        <ele>1265.1</ele>
        <time>2021-08-24T14:41:57Z</time>
      </trkpt>
      <trkpt lat="45.35153" lon="3.00105">
        <ele>1265.5</ele>
        <time>2021-08-24T14:41:59Z</time>
      </trkpt>
      <trkpt lat="45.35159" lon="3.00103">
        <ele>1265.7</ele>
        <time>2021-08-24T14:42:01Z</time>
      </trkpt>
      <trkpt lat="45.35164" lon="3.00101">
        <ele>1265.9</ele>
        <time>2021-08-24T14:42:03Z</time>
      </trkpt>
      <trkpt lat="45.3517" lon="3.00099">
        <ele>1266</ele>
        <time>2021-08-24T14:42:05Z</time>
      </trkpt>
      <trkpt lat="45.35175" lon="3.00096">
        <ele>1266.2</ele>
        <time>2021-08-24T14:42:07Z</time>
      </trkpt>
      <trkpt lat="45.35181" lon="3.00092">
        <ele>1266.5</ele>
        <time>2021-08-24T14:42:09Z</time>
      </trkpt>
      <trkpt lat="45.35186" lon="3.00088">
        <ele>1266.9</ele>
        <time>2021-08-24T14:42:11Z</time>
      </trkpt>
      <trkpt lat="45.35192" lon="3.00085">
        <ele>1267.2</ele>
        <time>2021-08-24T14:42:13Z</time>
      </trkpt>
      <trkpt lat="45.35196" lon="3.0008">
        <ele>1267.8</ele>
        <time>2021-08-24T14:42:15Z</time>
      </trkpt>
      <trkpt lat="45.35201" lon="3.00077">
        <ele>1268.3</ele>
        <time>2021-08-24T14:42:17Z</time>
      </trkpt>
      <trkpt lat="45.35205" lon="3.00073">
        <ele>1268.9</ele>
        <time>2021-08-24T14:42:19Z</time>
      </trkpt>
      <trkpt lat="45.3521" lon="3.00068">
        <ele>1269.6</ele>
        <time>2021-08-24T14:42:21Z</time>
      </trkpt>
      <trkpt lat="45.35214" lon="3.00063">
        <ele>1270.4</ele>
        <time>2021-08-24T14:42:23Z</time>
      </trkpt>
      <trkpt lat="45.35218" lon="3.00059">
        <ele>1271.1</ele>
        <time>2021-08-24T14:42:25Z</time>
      </trkpt>
      <trkpt lat="45.35223" lon="3.00056">
        <ele>1271.6</ele>
        <time>2021-08-24T14:42:27Z</time>
      </trkpt>
      <trkpt lat="45.35228" lon="3.00052">
        <ele>1272.2</ele>
        <time>2021-08-24T14:42:29Z</time>
      </trkpt>
      <trkpt lat="45.35232" lon="3.00048">
        <ele>1272.9</ele>
        <time>2021-08-24T14:42:31Z</time>
      </trkpt>
      <trkpt lat="45.35237" lon="3.00045">
        <ele>1273.5</ele>
        <time>2021-08-24T14:42:33Z</time>
      </trkpt>
      <trkpt lat="45.35242" lon="3.00043">
        <ele>1273.8</ele>
        <time>2021-08-24T14:42:35Z</time>
      </trkpt>
      <trkpt lat="45.35247" lon="3.00041">
        <ele>1274.1</ele>
        <time>2021-08-24T14:42:37Z</time>
      </trkpt>
      <trkpt lat="45.35252" lon="3.00041">
        <ele>1274.1</ele>
        <time>2021-08-24T14:42:39Z</time>
      </trkpt>
      <trkpt lat="45.35258" lon="3.00041">
        <ele>1274.2</ele>
        <time>2021-08-24T14:42:41Z</time>
      </trkpt>
      <trkpt lat="45.35263" lon="3.00041">
        <ele>1274.4</ele>
        <time>2021-08-24T14:42:43Z</time>
      </trkpt>
      <trkpt lat="45.35268" lon="3.00041">
        <ele>1274.4</ele>
        <time>2021-08-24T14:42:45Z</time>
      </trkpt>
      <trkpt lat="45.35274" lon="3.0004">
        <ele>1274.6</ele>
        <time>2021-08-24T14:42:47Z</time>
      </trkpt>
      <trkpt lat="45.35279" lon="3.00041">
        <ele>1274.5</ele>
        <time>2021-08-24T14:42:49Z</time>
      </trkpt>
      <trkpt lat="45.35285" lon="3.0004">
        <ele>1274.6</ele>
        <time>2021-08-24T14:42:51Z</time>
      </trkpt>
      <trkpt lat="45.3529" lon="3.00041">
        <ele>1274.7</ele>
        <time>2021-08-24T14:42:53Z</time>
      </trkpt>
      <trkpt lat="45.35296" lon="3.00041">
        <ele>1274.7</ele>
        <time>2021-08-24T14:42:55Z</time>
      </trkpt>
      <trkpt lat="45.35301" lon="3.0004">
        <ele>1274.9</ele>
        <time>2021-08-24T14:42:57Z</time>
      </trkpt>
      <trkpt lat="45.35307" lon="3.0004">
        <ele>1275</ele>
        <time>2021-08-24T14:42:59Z</time>
      </trkpt>
      <trkpt lat="45.35312" lon="3.00039">
        <ele>1275.1</ele>
        <time>2021-08-24T14:43:01Z</time>
      </trkpt>
      <trkpt lat="45.35318" lon="3.0004">
        <ele>1275.2</ele>
        <time>2021-08-24T14:43:03Z</time>
      </trkpt>
      <trkpt lat="45.35323" lon="3.00039">
        <ele>1275.3</ele>
        <time>2021-08-24T14:43:05Z</time>
      </trkpt>
      <trkpt lat="45.35328" lon="3.00039">
        <ele>1275.4</ele>
        <time>2021-08-24T14:43:07Z</time>
      </trkpt>
      <trkpt lat="45.35333" lon="3.00039">
        <ele>1275.5</ele>
        <time>2021-08-24T14:43:09Z</time>
      </trkpt>
      <trkpt lat="45.35339" lon="3.00039">
        <ele>1275.3</ele>
        <time>2021-08-24T14:43:11Z</time>
      </trkpt>
      <trkpt lat="45.35345" lon="3.00039">
        <ele>1275.1</ele>
        <time>2021-08-24T14:43:13Z</time>
      </trkpt>
      <trkpt lat="45.3535" lon="3.00039">
        <ele>1275</ele>
        <time>2021-08-24T14:43:15Z</time>
      </trkpt>
      <trkpt lat="45.35355" lon="3.0004">
        <ele>1274.7</ele>
        <time>2021-08-24T14:43:17Z</time>
      </trkpt>
      <trkpt lat="45.35361" lon="3.00041">
        <ele>1274.5</ele>
        <time>2021-08-24T14:43:19Z</time>
      </trkpt>
      <trkpt lat="45.35366" lon="3.00041">
        <ele>1274.3</ele>
        <time>2021-08-24T14:43:21Z</time>
      </trkpt>
      <trkpt lat="45.35372" lon="3.00042">
        <ele>1274.1</ele>
        <time>2021-08-24T14:43:23Z</time>
      </trkpt>
      <trkpt lat="45.35377" lon="3.00043">
        <ele>1273.8</ele>
        <time>2021-08-24T14:43:25Z</time>
      </trkpt>
      <trkpt lat="45.35382" lon="3.00043">
        <ele>1273.6</ele>
        <time>2021-08-24T14:43:27Z</time>
      </trkpt>
      <trkpt lat="45.35387" lon="3.00042">
        <ele>1273.7</ele>
        <time>2021-08-24T14:43:29Z</time>
      </trkpt>
      <trkpt lat="45.35392" lon="3.0004">
        <ele>1273.8</ele>
        <time>2021-08-24T14:43:31Z</time>
      </trkpt>
      <trkpt lat="45.35396" lon="3.00036">
        <ele>1274.2</ele>
        <time>2021-08-24T14:43:33Z</time>
      </trkpt>
      <trkpt lat="45.354" lon="3.00032">
        <ele>1274.7</ele>
        <time>2021-08-24T14:43:35Z</time>
      </trkpt>
      <trkpt lat="45.35403" lon="3.00027">
        <ele>1275.3</ele>
        <time>2021-08-24T14:43:37Z</time>
      </trkpt>
      <trkpt lat="45.35406" lon="3.00022">
        <ele>1275.8</ele>
        <time>2021-08-24T14:43:39Z</time>
      </trkpt>
      <trkpt lat="45.35408" lon="3.00016">
        <ele>1276.5</ele>
        <time>2021-08-24T14:43:41Z</time>
      </trkpt>
      <trkpt lat="45.3541" lon="3.0001">
        <ele>1277.1</ele>
        <time>2021-08-24T14:43:43Z</time>
      </trkpt>
      <trkpt lat="45.35413" lon="3.00004">
        <ele>1277.7</ele>
        <time>2021-08-24T14:43:45Z</time>
      </trkpt>
      <trkpt lat="45.35415" lon="2.99999">
        <ele>1278.2</ele>
        <time>2021-08-24T14:43:47Z</time>
      </trkpt>
      <trkpt lat="45.35418" lon="2.99993">
        <ele>1278.6</ele>
        <time>2021-08-24T14:43:49Z</time>
      </trkpt>
      <trkpt lat="45.35421" lon="2.99988">
        <ele>1279.1</ele>
        <time>2021-08-24T14:43:51Z</time>
      </trkpt>
      <trkpt lat="45.35424" lon="2.99982">
        <ele>1279.6</ele>
        <time>2021-08-24T14:43:53Z</time>
      </trkpt>
      <trkpt lat="45.35427" lon="2.99978">
        <ele>1280.1</ele>
        <time>2021-08-24T14:43:55Z</time>
      </trkpt>
      <trkpt lat="45.35431" lon="2.99972">
        <ele>1280.5</ele>
        <time>2021-08-24T14:43:57Z</time>
      </trkpt>
      <trkpt lat="45.35435" lon="2.99967">
        <ele>1280.9</ele>
        <time>2021-08-24T14:43:59Z</time>
      </trkpt>
      <trkpt lat="45.35438" lon="2.99961">
        <ele>1281.3</ele>
        <time>2021-08-24T14:44:01Z</time>
      </trkpt>
      <trkpt lat="45.35443" lon="2.99955">
        <ele>1281.7</ele>
        <time>2021-08-24T14:44:03Z</time>
      </trkpt>
      <trkpt lat="45.35446" lon="2.9995">
        <ele>1282</ele>
        <time>2021-08-24T14:44:05Z</time>
      </trkpt>
      <trkpt lat="45.3545" lon="2.99944">
        <ele>1282.3</ele>
        <time>2021-08-24T14:44:07Z</time>
      </trkpt>
      <trkpt lat="45.35454" lon="2.99939">
        <ele>1282.5</ele>
        <time>2021-08-24T14:44:09Z</time>
      </trkpt>
      <trkpt lat="45.35458" lon="2.99932">
        <ele>1282.7</ele>
        <time>2021-08-24T14:44:11Z</time>
      </trkpt>
      <trkpt lat="45.35463" lon="2.99927">
        <ele>1282.9</ele>
        <time>2021-08-24T14:44:13Z</time>
      </trkpt>
      <trkpt lat="45.35467" lon="2.99923">
        <ele>1282.9</ele>
        <time>2021-08-24T14:44:15Z</time>
      </trkpt>
      <trkpt lat="45.35472" lon="2.99921">
        <ele>1282.8</ele>
        <time>2021-08-24T14:44:17Z</time>
      </trkpt>
      <trkpt lat="45.35477" lon="2.99918">
        <ele>1282.8</ele>
        <time>2021-08-24T14:44:19Z</time>
      </trkpt>
      <trkpt lat="45.35481" lon="2.99915">
        <ele>1282.8</ele>
        <time>2021-08-24T14:44:21Z</time>
      </trkpt>
      <trkpt lat="45.35486" lon="2.99913">
        <ele>1282.8</ele>
        <time>2021-08-24T14:44:23Z</time>
      </trkpt>
      <trkpt lat="45.35491" lon="2.9991">
        <ele>1282.7</ele>
        <time>2021-08-24T14:44:25Z</time>
      </trkpt>
      <trkpt lat="45.35497" lon="2.99907">
        <ele>1282.6</ele>
        <time>2021-08-24T14:44:27Z</time>
      </trkpt>
      <trkpt lat="45.35501" lon="2.99904">
        <ele>1282.6</ele>
        <time>2021-08-24T14:44:29Z</time>
      </trkpt>
      <trkpt lat="45.35505" lon="2.99901">
        <ele>1282.5</ele>
        <time>2021-08-24T14:44:31Z</time>
      </trkpt>
      <trkpt lat="45.35509" lon="2.99897">
        <ele>1282.5</ele>
        <time>2021-08-24T14:44:33Z</time>
      </trkpt>
      <trkpt lat="45.35513" lon="2.99894">
        <ele>1282.5</ele>
        <time>2021-08-24T14:44:35Z</time>
      </trkpt>
      <trkpt lat="45.35517" lon="2.9989">
        <ele>1282.4</ele>
        <time>2021-08-24T14:44:37Z</time>
      </trkpt>
      <trkpt lat="45.35521" lon="2.99886">
        <ele>1282.5</ele>
        <time>2021-08-24T14:44:39Z</time>
      </trkpt>
      <trkpt lat="45.35523" lon="2.9988">
        <ele>1282.6</ele>
        <time>2021-08-24T14:44:41Z</time>
      </trkpt>
      <trkpt lat="45.35525" lon="2.99874">
        <ele>1282.9</ele>
        <time>2021-08-24T14:44:43Z</time>
      </trkpt>
      <trkpt lat="45.35527" lon="2.99867">
        <ele>1283.1</ele>
        <time>2021-08-24T14:44:45Z</time>
      </trkpt>
      <trkpt lat="45.3553" lon="2.99859">
        <ele>1283.3</ele>
        <time>2021-08-24T14:44:47Z</time>
      </trkpt>
      <trkpt lat="45.35533" lon="2.99849">
        <ele>1283.7</ele>
        <time>2021-08-24T14:44:49Z</time>
      </trkpt>
      <trkpt lat="45.35536" lon="2.9984">
        <ele>1283.9</ele>
        <time>2021-08-24T14:44:51Z</time>
      </trkpt>
      <trkpt lat="45.35541" lon="2.9983">
        <ele>1284.3</ele>
        <time>2021-08-24T14:44:53Z</time>
      </trkpt>
      <trkpt lat="45.35545" lon="2.9982">
        <ele>1285</ele>
        <time>2021-08-24T14:44:55Z</time>
      </trkpt>
      <trkpt lat="45.35549" lon="2.99809">
        <ele>1285.5</ele>
        <time>2021-08-24T14:44:57Z</time>
      </trkpt>
      <trkpt lat="45.35553" lon="2.99799">
        <ele>1285.9</ele>
        <time>2021-08-24T14:44:59Z</time>
      </trkpt>
      <trkpt lat="45.35557" lon="2.99788">
        <ele>1286.3</ele>
        <time>2021-08-24T14:45:01Z</time>
      </trkpt>
      <trkpt lat="45.35561" lon="2.99778">
        <ele>1286.5</ele>
        <time>2021-08-24T14:45:03Z</time>
      </trkpt>
      <trkpt lat="45.35566" lon="2.99768">
        <ele>1286.5</ele>
        <time>2021-08-24T14:45:05Z</time>
      </trkpt>
      <trkpt lat="45.3557" lon="2.99758">
        <ele>1286.5</ele>
        <time>2021-08-24T14:45:07Z</time>
      </trkpt>
      <trkpt lat="45.35573" lon="2.99748">
        <ele>1286.5</ele>
        <time>2021-08-24T14:45:09Z</time>
      </trkpt>
      <trkpt lat="45.35577" lon="2.99739">
        <ele>1286.1</ele>
        <time>2021-08-24T14:45:11Z</time>
      </trkpt>
      <trkpt lat="45.35581" lon="2.9973">
        <ele>1285.8</ele>
        <time>2021-08-24T14:45:13Z</time>
      </trkpt>
      <trkpt lat="45.35585" lon="2.99721">
        <ele>1285.8</ele>
        <time>2021-08-24T14:45:15Z</time>
      </trkpt>
      <trkpt lat="45.35591" lon="2.99713">
        <ele>1286.2</ele>
        <time>2021-08-24T14:45:17Z</time>
      </trkpt>
      <trkpt lat="45.35597" lon="2.99705">
        <ele>1286.6</ele>
        <time>2021-08-24T14:45:19Z</time>
      </trkpt>
      <trkpt lat="45.35603" lon="2.99699">
        <ele>1287</ele>
        <time>2021-08-24T14:45:21Z</time>
      </trkpt>
      <trkpt lat="45.3561" lon="2.99692">
        <ele>1287.3</ele>
        <time>2021-08-24T14:45:23Z</time>
      </trkpt>
      <trkpt lat="45.35616" lon="2.99685">
        <ele>1287.6</ele>
        <time>2021-08-24T14:45:25Z</time>
      </trkpt>
      <trkpt lat="45.35622" lon="2.9968">
        <ele>1287.8</ele>
        <time>2021-08-24T14:45:27Z</time>
      </trkpt>
      <trkpt lat="45.35628" lon="2.99673">
        <ele>1288</ele>
        <time>2021-08-24T14:45:29Z</time>
      </trkpt>
      <trkpt lat="45.35633" lon="2.99667">
        <ele>1288.2</ele>
        <time>2021-08-24T14:45:31Z</time>
      </trkpt>
      <trkpt lat="45.35638" lon="2.99661">
        <ele>1288.4</ele>
        <time>2021-08-24T14:45:33Z</time>
      </trkpt>
      <trkpt lat="45.35644" lon="2.99655">
        <ele>1288.5</ele>
        <time>2021-08-24T14:45:35Z</time>
      </trkpt>
      <trkpt lat="45.35648" lon="2.99649">
        <ele>1288.6</ele>
        <time>2021-08-24T14:45:37Z</time>
      </trkpt>
      <trkpt lat="45.35653" lon="2.99644">
        <ele>1288.8</ele>
        <time>2021-08-24T14:45:39Z</time>
      </trkpt>
      <trkpt lat="45.35657" lon="2.99639">
        <ele>1288.8</ele>
        <time>2021-08-24T14:45:41Z</time>
      </trkpt>
      <trkpt lat="45.35661" lon="2.99633">
        <ele>1288.9</ele>
        <time>2021-08-24T14:45:43Z</time>
      </trkpt>
      <trkpt lat="45.35664" lon="2.99627">
        <ele>1289</ele>
        <time>2021-08-24T14:45:45Z</time>
      </trkpt>
      <trkpt lat="45.35668" lon="2.99621">
        <ele>1289</ele>
        <time>2021-08-24T14:45:47Z</time>
      </trkpt>
      <trkpt lat="45.35672" lon="2.99615">
        <ele>1289</ele>
        <time>2021-08-24T14:45:49Z</time>
      </trkpt>
      <trkpt lat="45.35676" lon="2.99608">
        <ele>1288.9</ele>
        <time>2021-08-24T14:45:51Z</time>
      </trkpt>
      <trkpt lat="45.3568" lon="2.99601">
        <ele>1288.9</ele>
        <time>2021-08-24T14:45:53Z</time>
      </trkpt>
      <trkpt lat="45.35684" lon="2.99594">
        <ele>1288.9</ele>
        <time>2021-08-24T14:45:55Z</time>
      </trkpt>
      <trkpt lat="45.35688" lon="2.99587">
        <ele>1289</ele>
        <time>2021-08-24T14:45:57Z</time>
      </trkpt>
      <trkpt lat="45.35692" lon="2.99579">
        <ele>1289.2</ele>
        <time>2021-08-24T14:45:59Z</time>
      </trkpt>
      <trkpt lat="45.35696" lon="2.99571">
        <ele>1289.7</ele>
        <time>2021-08-24T14:46:01Z</time>
      </trkpt>
      <trkpt lat="45.35701" lon="2.99564">
        <ele>1290.2</ele>
        <time>2021-08-24T14:46:03Z</time>
      </trkpt>
      <trkpt lat="45.35706" lon="2.99557">
        <ele>1290.7</ele>
        <time>2021-08-24T14:46:05Z</time>
      </trkpt>
      <trkpt lat="45.35712" lon="2.99552">
        <ele>1291.2</ele>
        <time>2021-08-24T14:46:07Z</time>
      </trkpt>
      <trkpt lat="45.35718" lon="2.99548">
        <ele>1291.5</ele>
        <time>2021-08-24T14:46:09Z</time>
      </trkpt>
      <trkpt lat="45.35723" lon="2.99547">
        <ele>1291.8</ele>
        <time>2021-08-24T14:46:11Z</time>
      </trkpt>
      <trkpt lat="45.35729" lon="2.99548">
        <ele>1291.9</ele>
        <time>2021-08-24T14:46:13Z</time>
      </trkpt>
      <trkpt lat="45.35734" lon="2.99549">
        <ele>1291.9</ele>
        <time>2021-08-24T14:46:15Z</time>
      </trkpt>
      <trkpt lat="45.35739" lon="2.9955">
        <ele>1291.9</ele>
        <time>2021-08-24T14:46:17Z</time>
      </trkpt>
      <trkpt lat="45.35744" lon="2.99552">
        <ele>1291.9</ele>
        <time>2021-08-24T14:46:19Z</time>
      </trkpt>
      <trkpt lat="45.35748" lon="2.99553">
        <ele>1291.9</ele>
        <time>2021-08-24T14:46:21Z</time>
      </trkpt>
      <trkpt lat="45.35753" lon="2.99553">
        <ele>1292.1</ele>
        <time>2021-08-24T14:46:23Z</time>
      </trkpt>
      <trkpt lat="45.35757" lon="2.99554">
        <ele>1292.4</ele>
        <time>2021-08-24T14:46:25Z</time>
      </trkpt>
      <trkpt lat="45.35762" lon="2.99555">
        <ele>1292.7</ele>
        <time>2021-08-24T14:46:27Z</time>
      </trkpt>
      <trkpt lat="45.35767" lon="2.99555">
        <ele>1292.9</ele>
        <time>2021-08-24T14:46:29Z</time>
      </trkpt>
      <trkpt lat="45.35772" lon="2.99555">
        <ele>1293.3</ele>
        <time>2021-08-24T14:46:31Z</time>
      </trkpt>
      <trkpt lat="45.35777" lon="2.99556">
        <ele>1293.6</ele>
        <time>2021-08-24T14:46:33Z</time>
      </trkpt>
      <trkpt lat="45.35781" lon="2.99556">
        <ele>1293.9</ele>
        <time>2021-08-24T14:46:35Z</time>
      </trkpt>
      <trkpt lat="45.35786" lon="2.99557">
        <ele>1294.1</ele>
        <time>2021-08-24T14:46:37Z</time>
      </trkpt>
      <trkpt lat="45.35791" lon="2.99559">
        <ele>1294.2</ele>
        <time>2021-08-24T14:46:39Z</time>
      </trkpt>
      <trkpt lat="45.35795" lon="2.99561">
        <ele>1294.4</ele>
        <time>2021-08-24T14:46:41Z</time>
      </trkpt>
      <trkpt lat="45.358" lon="2.99564">
        <ele>1294.4</ele>
        <time>2021-08-24T14:46:43Z</time>
      </trkpt>
      <trkpt lat="45.35804" lon="2.99568">
        <ele>1294.3</ele>
        <time>2021-08-24T14:46:45Z</time>
      </trkpt>
      <trkpt lat="45.35808" lon="2.99572">
        <ele>1294.3</ele>
        <time>2021-08-24T14:46:47Z</time>
      </trkpt>
      <trkpt lat="45.35813" lon="2.99574">
        <ele>1294.4</ele>
        <time>2021-08-24T14:46:49Z</time>
      </trkpt>
      <trkpt lat="45.35817" lon="2.99579">
        <ele>1294.2</ele>
        <time>2021-08-24T14:46:51Z</time>
      </trkpt>
      <trkpt lat="45.35821" lon="2.99583">
        <ele>1294.2</ele>
        <time>2021-08-24T14:46:53Z</time>
      </trkpt>
      <trkpt lat="45.35825" lon="2.99586">
        <ele>1294.2</ele>
        <time>2021-08-24T14:46:55Z</time>
      </trkpt>
      <trkpt lat="45.3583" lon="2.9959">
        <ele>1294.2</ele>
        <time>2021-08-24T14:46:57Z</time>
      </trkpt>
      <trkpt lat="45.35835" lon="2.99594">
        <ele>1294.2</ele>
        <time>2021-08-24T14:46:59Z</time>
      </trkpt>
      <trkpt lat="45.3584" lon="2.99599">
        <ele>1294</ele>
        <time>2021-08-24T14:47:01Z</time>
      </trkpt>
      <trkpt lat="45.35845" lon="2.99604">
        <ele>1293.9</ele>
        <time>2021-08-24T14:47:03Z</time>
      </trkpt>
      <trkpt lat="45.35851" lon="2.99608">
        <ele>1293.7</ele>
        <time>2021-08-24T14:47:05Z</time>
      </trkpt>
      <trkpt lat="45.35856" lon="2.99613">
        <ele>1293.5</ele>
        <time>2021-08-24T14:47:07Z</time>
      </trkpt>
      <trkpt lat="45.35862" lon="2.99617">
        <ele>1293.4</ele>
        <time>2021-08-24T14:47:09Z</time>
      </trkpt>
      <trkpt lat="45.35867" lon="2.99623">
        <ele>1293.2</ele>
        <time>2021-08-24T14:47:11Z</time>
      </trkpt>
      <trkpt lat="45.35873" lon="2.99627">
        <ele>1293</ele>
        <time>2021-08-24T14:47:13Z</time>
      </trkpt>
      <trkpt lat="45.3588" lon="2.99633">
        <ele>1292.9</ele>
        <time>2021-08-24T14:47:15Z</time>
      </trkpt>
      <trkpt lat="45.35886" lon="2.99638">
        <ele>1292.7</ele>
        <time>2021-08-24T14:47:17Z</time>
      </trkpt>
      <trkpt lat="45.35893" lon="2.99644">
        <ele>1292.6</ele>
        <time>2021-08-24T14:47:19Z</time>
      </trkpt>
      <trkpt lat="45.359" lon="2.99651">
        <ele>1292.4</ele>
        <time>2021-08-24T14:47:21Z</time>
      </trkpt>
      <trkpt lat="45.35908" lon="2.99657">
        <ele>1292.3</ele>
        <time>2021-08-24T14:47:23Z</time>
      </trkpt>
      <trkpt lat="45.35916" lon="2.99664">
        <ele>1292.1</ele>
        <time>2021-08-24T14:47:25Z</time>
      </trkpt>
      <trkpt lat="45.35923" lon="2.99671">
        <ele>1291.3</ele>
        <time>2021-08-24T14:47:27Z</time>
      </trkpt>
      <trkpt lat="45.35931" lon="2.99677">
        <ele>1290.3</ele>
        <time>2021-08-24T14:47:29Z</time>
      </trkpt>
      <trkpt lat="45.3594" lon="2.99683">
        <ele>1289.3</ele>
        <time>2021-08-24T14:47:31Z</time>
      </trkpt>
      <trkpt lat="45.35949" lon="2.99687">
        <ele>1288.4</ele>
        <time>2021-08-24T14:47:33Z</time>
      </trkpt>
      <trkpt lat="45.3596" lon="2.99688">
        <ele>1287.6</ele>
        <time>2021-08-24T14:47:35Z</time>
      </trkpt>
      <trkpt lat="45.35971" lon="2.99685">
        <ele>1287.1</ele>
        <time>2021-08-24T14:47:37Z</time>
      </trkpt>
      <trkpt lat="45.35981" lon="2.99679">
        <ele>1287</ele>
        <time>2021-08-24T14:47:39Z</time>
      </trkpt>
      <trkpt lat="45.35991" lon="2.9967">
        <ele>1287.2</ele>
        <time>2021-08-24T14:47:41Z</time>
      </trkpt>
      <trkpt lat="45.36002" lon="2.99659">
        <ele>1287.9</ele>
        <time>2021-08-24T14:47:43Z</time>
      </trkpt>
      <trkpt lat="45.36015" lon="2.99652">
        <ele>1289.7</ele>
        <time>2021-08-24T14:47:45Z</time>
      </trkpt>
      <trkpt lat="45.36031" lon="2.99651">
        <ele>1290.9</ele>
        <time>2021-08-24T14:47:47Z</time>
      </trkpt>
      <trkpt lat="45.36045" lon="2.9966">
        <ele>1290.6</ele>
        <time>2021-08-24T14:47:49Z</time>
      </trkpt>
      <trkpt lat="45.36056" lon="2.99675">
        <ele>1289.2</ele>
        <time>2021-08-24T14:47:51Z</time>
      </trkpt>
      <trkpt lat="45.36068" lon="2.99689">
        <ele>1287.8</ele>
        <time>2021-08-24T14:47:53Z</time>
      </trkpt>
      <trkpt lat="45.36082" lon="2.99701">
        <ele>1286.6</ele>
        <time>2021-08-24T14:47:55Z</time>
      </trkpt>
      <trkpt lat="45.36096" lon="2.99713">
        <ele>1286.2</ele>
        <time>2021-08-24T14:47:57Z</time>
      </trkpt>
      <trkpt lat="45.36108" lon="2.99729">
        <ele>1284.8</ele>
        <time>2021-08-24T14:47:59Z</time>
      </trkpt>
      <trkpt lat="45.36119" lon="2.99748">
        <ele>1282.3</ele>
        <time>2021-08-24T14:48:01Z</time>
      </trkpt>
      <trkpt lat="45.36133" lon="2.99759">
        <ele>1282</ele>
        <time>2021-08-24T14:48:03Z</time>
      </trkpt>
      <trkpt lat="45.36148" lon="2.99762">
        <ele>1282.9</ele>
        <time>2021-08-24T14:48:05Z</time>
      </trkpt>
      <trkpt lat="45.36162" lon="2.99765">
        <ele>1283.6</ele>
        <time>2021-08-24T14:48:07Z</time>
      </trkpt>
      <trkpt lat="45.36174" lon="2.99774">
        <ele>1284</ele>
        <time>2021-08-24T14:48:09Z</time>
      </trkpt>
      <trkpt lat="45.36184" lon="2.99787">
        <ele>1283.8</ele>
        <time>2021-08-24T14:48:11Z</time>
      </trkpt>
      <trkpt lat="45.36191" lon="2.99799">
        <ele>1283.3</ele>
        <time>2021-08-24T14:48:13Z</time>
      </trkpt>
      <trkpt lat="45.36197" lon="2.99809">
        <ele>1283</ele>
        <time>2021-08-24T14:48:15Z</time>
      </trkpt>
      <trkpt lat="45.36204" lon="2.99817">
        <ele>1283</ele>
        <time>2021-08-24T14:48:17Z</time>
      </trkpt>
      <trkpt lat="45.36212" lon="2.99824">
        <ele>1283.3</ele>
        <time>2021-08-24T14:48:19Z</time>
      </trkpt>
      <trkpt lat="45.36219" lon="2.99829">
        <ele>1283.8</ele>
        <time>2021-08-24T14:48:21Z</time>
      </trkpt>
      <trkpt lat="45.36226" lon="2.99833">
        <ele>1284.4</ele>
        <time>2021-08-24T14:48:23Z</time>
      </trkpt>
      <trkpt lat="45.36233" lon="2.99836">
        <ele>1285.2</ele>
        <time>2021-08-24T14:48:25Z</time>
      </trkpt>
      <trkpt lat="45.36239" lon="2.9984">
        <ele>1286</ele>
        <time>2021-08-24T14:48:27Z</time>
      </trkpt>
      <trkpt lat="45.36244" lon="2.99846">
        <ele>1286.6</ele>
        <time>2021-08-24T14:48:29Z</time>
      </trkpt>
      <trkpt lat="45.36248" lon="2.99853">
        <ele>1287</ele>
        <time>2021-08-24T14:48:31Z</time>
      </trkpt>
      <trkpt lat="45.36252" lon="2.99861">
        <ele>1287.2</ele>
        <time>2021-08-24T14:48:33Z</time>
      </trkpt>
      <trkpt lat="45.36253" lon="2.9987">
        <ele>1287.1</ele>
        <time>2021-08-24T14:48:35Z</time>
      </trkpt>
      <trkpt lat="45.36255" lon="2.99879">
        <ele>1286.9</ele>
        <time>2021-08-24T14:48:37Z</time>
      </trkpt>
      <trkpt lat="45.36254" lon="2.99888">
        <ele>1286.5</ele>
        <time>2021-08-24T14:48:39Z</time>
      </trkpt>
      <trkpt lat="45.36254" lon="2.99897">
        <ele>1286.2</ele>
        <time>2021-08-24T14:48:41Z</time>
      </trkpt>
      <trkpt lat="45.36256" lon="2.99905">
        <ele>1286.1</ele>
        <time>2021-08-24T14:48:43Z</time>
      </trkpt>
      <trkpt lat="45.36257" lon="2.99913">
        <ele>1285.9</ele>
        <time>2021-08-24T14:48:45Z</time>
      </trkpt>
      <trkpt lat="45.3626" lon="2.99921">
        <ele>1286</ele>
        <time>2021-08-24T14:48:47Z</time>
      </trkpt>
      <trkpt lat="45.36264" lon="2.99927">
        <ele>1286.3</ele>
        <time>2021-08-24T14:48:49Z</time>
      </trkpt>
      <trkpt lat="45.36269" lon="2.99932">
        <ele>1286.7</ele>
        <time>2021-08-24T14:48:51Z</time>
      </trkpt>
      <trkpt lat="45.36274" lon="2.99935">
        <ele>1287.2</ele>
        <time>2021-08-24T14:48:53Z</time>
      </trkpt>
      <trkpt lat="45.36279" lon="2.99937">
        <ele>1287.8</ele>
        <time>2021-08-24T14:48:55Z</time>
      </trkpt>
      <trkpt lat="45.36285" lon="2.99938">
        <ele>1288.3</ele>
        <time>2021-08-24T14:48:57Z</time>
      </trkpt>
      <trkpt lat="45.36291" lon="2.9994">
        <ele>1288.9</ele>
        <time>2021-08-24T14:48:59Z</time>
      </trkpt>
      <trkpt lat="45.36296" lon="2.99942">
        <ele>1289.4</ele>
        <time>2021-08-24T14:49:01Z</time>
      </trkpt>
      <trkpt lat="45.36301" lon="2.99944">
        <ele>1289.8</ele>
        <time>2021-08-24T14:49:03Z</time>
      </trkpt>
      <trkpt lat="45.36307" lon="2.99946">
        <ele>1290.3</ele>
        <time>2021-08-24T14:49:05Z</time>
      </trkpt>
      <trkpt lat="45.36311" lon="2.9995">
        <ele>1290.6</ele>
        <time>2021-08-24T14:49:07Z</time>
      </trkpt>
      <trkpt lat="45.36316" lon="2.99954">
        <ele>1290.9</ele>
        <time>2021-08-24T14:49:09Z</time>
      </trkpt>
      <trkpt lat="45.36319" lon="2.99958">
        <ele>1291.2</ele>
        <time>2021-08-24T14:49:11Z</time>
      </trkpt>
      <trkpt lat="45.36323" lon="2.99963">
        <ele>1291.3</ele>
        <time>2021-08-24T14:49:13Z</time>
      </trkpt>
      <trkpt lat="45.36327" lon="2.99967">
        <ele>1291.6</ele>
        <time>2021-08-24T14:49:15Z</time>
      </trkpt>
      <trkpt lat="45.36331" lon="2.9997">
        <ele>1291.8</ele>
        <time>2021-08-24T14:49:17Z</time>
      </trkpt>
      <trkpt lat="45.36335" lon="2.99971">
        <ele>1292.1</ele>
        <time>2021-08-24T14:49:19Z</time>
      </trkpt>
      <trkpt lat="45.36341" lon="2.99972">
        <ele>1292.2</ele>
        <time>2021-08-24T14:49:21Z</time>
      </trkpt>
      <trkpt lat="45.36347" lon="2.99973">
        <ele>1292.3</ele>
        <time>2021-08-24T14:49:23Z</time>
      </trkpt>
      <trkpt lat="45.36352" lon="2.99972">
        <ele>1292.5</ele>
        <time>2021-08-24T14:49:25Z</time>
      </trkpt>
      <trkpt lat="45.36357" lon="2.99972">
        <ele>1292.6</ele>
        <time>2021-08-24T14:49:27Z</time>
      </trkpt>
      <trkpt lat="45.36363" lon="2.99971">
        <ele>1292.8</ele>
        <time>2021-08-24T14:49:29Z</time>
      </trkpt>
      <trkpt lat="45.36368" lon="2.99971">
        <ele>1292.9</ele>
        <time>2021-08-24T14:49:31Z</time>
      </trkpt>
      <trkpt lat="45.36374" lon="2.99971">
        <ele>1293.1</ele>
        <time>2021-08-24T14:49:33Z</time>
      </trkpt>
      <trkpt lat="45.36379" lon="2.9997">
        <ele>1293.2</ele>
        <time>2021-08-24T14:49:35Z</time>
      </trkpt>
      <trkpt lat="45.36384" lon="2.99969">
        <ele>1293.4</ele>
        <time>2021-08-24T14:49:37Z</time>
      </trkpt>
      <trkpt lat="45.36388" lon="2.9997">
        <ele>1293.5</ele>
        <time>2021-08-24T14:49:39Z</time>
      </trkpt>
      <trkpt lat="45.36393" lon="2.9997">
        <ele>1293.6</ele>
        <time>2021-08-24T14:49:41Z</time>
      </trkpt>
      <trkpt lat="45.36399" lon="2.99969">
        <ele>1293.7</ele>
        <time>2021-08-24T14:49:43Z</time>
      </trkpt>
      <trkpt lat="45.36403" lon="2.99969">
        <ele>1293.9</ele>
        <time>2021-08-24T14:49:45Z</time>
      </trkpt>
      <trkpt lat="45.36408" lon="2.99969">
        <ele>1294</ele>
        <time>2021-08-24T14:49:47Z</time>
      </trkpt>
      <trkpt lat="45.36413" lon="2.99968">
        <ele>1294.2</ele>
        <time>2021-08-24T14:49:49Z</time>
      </trkpt>
      <trkpt lat="45.36417" lon="2.99968">
        <ele>1294.3</ele>
        <time>2021-08-24T14:49:51Z</time>
      </trkpt>
      <trkpt lat="45.36422" lon="2.99968">
        <ele>1294.5</ele>
        <time>2021-08-24T14:49:53Z</time>
      </trkpt>
      <trkpt lat="45.36426" lon="2.99967">
        <ele>1294.8</ele>
        <time>2021-08-24T14:49:55Z</time>
      </trkpt>
      <trkpt lat="45.36431" lon="2.99967">
        <ele>1295</ele>
        <time>2021-08-24T14:49:57Z</time>
      </trkpt>
      <trkpt lat="45.36435" lon="2.99966">
        <ele>1295.2</ele>
        <time>2021-08-24T14:49:59Z</time>
      </trkpt>
      <trkpt lat="45.36439" lon="2.99965">
        <ele>1295.5</ele>
        <time>2021-08-24T14:50:01Z</time>
      </trkpt>
      <trkpt lat="45.36444" lon="2.99964">
        <ele>1295.7</ele>
        <time>2021-08-24T14:50:03Z</time>
      </trkpt>
      <trkpt lat="45.36448" lon="2.99963">
        <ele>1295.9</ele>
        <time>2021-08-24T14:50:05Z</time>
      </trkpt>
      <trkpt lat="45.36452" lon="2.99963">
        <ele>1296.2</ele>
        <time>2021-08-24T14:50:07Z</time>
      </trkpt>
      <trkpt lat="45.36457" lon="2.99961">
        <ele>1296.5</ele>
        <time>2021-08-24T14:50:09Z</time>
      </trkpt>
      <trkpt lat="45.36461" lon="2.9996">
        <ele>1296.7</ele>
        <time>2021-08-24T14:50:11Z</time>
      </trkpt>
      <trkpt lat="45.36465" lon="2.99959">
        <ele>1297</ele>
        <time>2021-08-24T14:50:13Z</time>
      </trkpt>
      <trkpt lat="45.36469" lon="2.99958">
        <ele>1297.2</ele>
        <time>2021-08-24T14:50:15Z</time>
      </trkpt>
      <trkpt lat="45.36473" lon="2.99956">
        <ele>1297.5</ele>
        <time>2021-08-24T14:50:17Z</time>
      </trkpt>
      <trkpt lat="45.36477" lon="2.99955">
        <ele>1297.8</ele>
        <time>2021-08-24T14:50:19Z</time>
      </trkpt>
      <trkpt lat="45.36481" lon="2.99954">
        <ele>1298</ele>
        <time>2021-08-24T14:50:21Z</time>
      </trkpt>
      <trkpt lat="45.36485" lon="2.99953">
        <ele>1298.3</ele>
        <time>2021-08-24T14:50:23Z</time>
      </trkpt>
      <trkpt lat="45.36489" lon="2.99951">
        <ele>1298.6</ele>
        <time>2021-08-24T14:50:25Z</time>
      </trkpt>
      <trkpt lat="45.36492" lon="2.9995">
        <ele>1298.9</ele>
        <time>2021-08-24T14:50:27Z</time>
      </trkpt>
      <trkpt lat="45.36496" lon="2.99949">
        <ele>1299.1</ele>
        <time>2021-08-24T14:50:29Z</time>
      </trkpt>
      <trkpt lat="45.365" lon="2.99947">
        <ele>1299.4</ele>
        <time>2021-08-24T14:50:31Z</time>
      </trkpt>
      <trkpt lat="45.36504" lon="2.99946">
        <ele>1299.7</ele>
        <time>2021-08-24T14:50:33Z</time>
      </trkpt>
      <trkpt lat="45.36508" lon="2.99945">
        <ele>1300</ele>
        <time>2021-08-24T14:50:35Z</time>
      </trkpt>
      <trkpt lat="45.36512" lon="2.99944">
        <ele>1300.3</ele>
        <time>2021-08-24T14:50:37Z</time>
      </trkpt>
      <trkpt lat="45.36516" lon="2.99943">
        <ele>1300.6</ele>
        <time>2021-08-24T14:50:39Z</time>
      </trkpt>
      <trkpt lat="45.3652" lon="2.99942">
        <ele>1300.8</ele>
        <time>2021-08-24T14:50:41Z</time>
      </trkpt>
      <trkpt lat="45.36524" lon="2.9994">
        <ele>1301.1</ele>
        <time>2021-08-24T14:50:43Z</time>
      </trkpt>
      <trkpt lat="45.36528" lon="2.99939">
        <ele>1301.4</ele>
        <time>2021-08-24T14:50:45Z</time>
      </trkpt>
      <trkpt lat="45.36531" lon="2.99938">
        <ele>1301.6</ele>
        <time>2021-08-24T14:50:47Z</time>
      </trkpt>
      <trkpt lat="45.36535" lon="2.99937">
        <ele>1301.9</ele>
        <time>2021-08-24T14:50:49Z</time>
      </trkpt>
      <trkpt lat="45.36538" lon="2.99935">
        <ele>1302.1</ele>
        <time>2021-08-24T14:50:51Z</time>
      </trkpt>
      <trkpt lat="45.36542" lon="2.99933">
        <ele>1302.4</ele>
        <time>2021-08-24T14:50:53Z</time>
      </trkpt>
      <trkpt lat="45.36545" lon="2.99932">
        <ele>1302.6</ele>
        <time>2021-08-24T14:50:55Z</time>
      </trkpt>
      <trkpt lat="45.36548" lon="2.9993">
        <ele>1302.9</ele>
        <time>2021-08-24T14:50:57Z</time>
      </trkpt>
      <trkpt lat="45.36552" lon="2.99927">
        <ele>1303.2</ele>
        <time>2021-08-24T14:50:59Z</time>
      </trkpt>
      <trkpt lat="45.36556" lon="2.99924">
        <ele>1303.6</ele>
        <time>2021-08-24T14:51:01Z</time>
      </trkpt>
      <trkpt lat="45.3656" lon="2.99921">
        <ele>1303.9</ele>
        <time>2021-08-24T14:51:03Z</time>
      </trkpt>
      <trkpt lat="45.36562" lon="2.99919">
        <ele>1304.1</ele>
        <time>2021-08-24T14:51:05Z</time>
      </trkpt>
      <trkpt lat="45.36565" lon="2.99916">
        <ele>1304.4</ele>
        <time>2021-08-24T14:51:07Z</time>
      </trkpt>
      <trkpt lat="45.36568" lon="2.99913">
        <ele>1304.7</ele>
        <time>2021-08-24T14:51:09Z</time>
      </trkpt>
      <trkpt lat="45.36572" lon="2.9991">
        <ele>1305</ele>
        <time>2021-08-24T14:51:11Z</time>
      </trkpt>
      <trkpt lat="45.36577" lon="2.99907">
        <ele>1305.5</ele>
        <time>2021-08-24T14:51:13Z</time>
      </trkpt>
      <trkpt lat="45.36579" lon="2.99903">
        <ele>1305.9</ele>
        <time>2021-08-24T14:51:15Z</time>
      </trkpt>
      <trkpt lat="45.36581" lon="2.99898">
        <ele>1306.3</ele>
        <time>2021-08-24T14:51:17Z</time>
      </trkpt>
      <trkpt lat="45.36584" lon="2.99894">
        <ele>1306.7</ele>
        <time>2021-08-24T14:51:19Z</time>
      </trkpt>
      <trkpt lat="45.36587" lon="2.99889">
        <ele>1307.1</ele>
        <time>2021-08-24T14:51:21Z</time>
      </trkpt>
      <trkpt lat="45.36589" lon="2.99885">
        <ele>1307.5</ele>
        <time>2021-08-24T14:51:23Z</time>
      </trkpt>
      <trkpt lat="45.3659" lon="2.9988">
        <ele>1307.9</ele>
        <time>2021-08-24T14:51:25Z</time>
      </trkpt>
      <trkpt lat="45.36592" lon="2.99875">
        <ele>1308.3</ele>
        <time>2021-08-24T14:51:27Z</time>
      </trkpt>
      <trkpt lat="45.36594" lon="2.9987">
        <ele>1308.7</ele>
        <time>2021-08-24T14:51:29Z</time>
      </trkpt>
      <trkpt lat="45.36596" lon="2.99865">
        <ele>1309</ele>
        <time>2021-08-24T14:51:31Z</time>
      </trkpt>
      <trkpt lat="45.36598" lon="2.9986">
        <ele>1309.4</ele>
        <time>2021-08-24T14:51:33Z</time>
      </trkpt>
      <trkpt lat="45.366" lon="2.99855">
        <ele>1309.8</ele>
        <time>2021-08-24T14:51:35Z</time>
      </trkpt>
      <trkpt lat="45.36603" lon="2.99849">
        <ele>1310.2</ele>
        <time>2021-08-24T14:51:37Z</time>
      </trkpt>
      <trkpt lat="45.36605" lon="2.99843">
        <ele>1310.6</ele>
        <time>2021-08-24T14:51:39Z</time>
      </trkpt>
      <trkpt lat="45.36607" lon="2.99837">
        <ele>1311</ele>
        <time>2021-08-24T14:51:41Z</time>
      </trkpt>
      <trkpt lat="45.36609" lon="2.99831">
        <ele>1311.4</ele>
        <time>2021-08-24T14:51:43Z</time>
      </trkpt>
      <trkpt lat="45.36611" lon="2.99825">
        <ele>1311.5</ele>
        <time>2021-08-24T14:51:45Z</time>
      </trkpt>
      <trkpt lat="45.36614" lon="2.99819">
        <ele>1311.7</ele>
        <time>2021-08-24T14:51:47Z</time>
      </trkpt>
      <trkpt lat="45.36617" lon="2.99812">
        <ele>1311.9</ele>
        <time>2021-08-24T14:51:49Z</time>
      </trkpt>
      <trkpt lat="45.3662" lon="2.99806">
        <ele>1312</ele>
        <time>2021-08-24T14:51:51Z</time>
      </trkpt>
      <trkpt lat="45.36622" lon="2.99799">
        <ele>1312.1</ele>
        <time>2021-08-24T14:51:53Z</time>
      </trkpt>
      <trkpt lat="45.36625" lon="2.99793">
        <ele>1312.2</ele>
        <time>2021-08-24T14:51:55Z</time>
      </trkpt>
      <trkpt lat="45.36628" lon="2.99786">
        <ele>1312.3</ele>
        <time>2021-08-24T14:51:57Z</time>
      </trkpt>
      <trkpt lat="45.3663" lon="2.99779">
        <ele>1312.4</ele>
        <time>2021-08-24T14:51:59Z</time>
      </trkpt>
      <trkpt lat="45.36633" lon="2.99772">
        <ele>1312.5</ele>
        <time>2021-08-24T14:52:01Z</time>
      </trkpt>
      <trkpt lat="45.36636" lon="2.99766">
        <ele>1312.5</ele>
        <time>2021-08-24T14:52:03Z</time>
      </trkpt>
      <trkpt lat="45.36638" lon="2.99759">
        <ele>1312.6</ele>
        <time>2021-08-24T14:52:05Z</time>
      </trkpt>
      <trkpt lat="45.36641" lon="2.99752">
        <ele>1312.6</ele>
        <time>2021-08-24T14:52:07Z</time>
      </trkpt>
      <trkpt lat="45.36644" lon="2.99745">
        <ele>1312.7</ele>
        <time>2021-08-24T14:52:09Z</time>
      </trkpt>
      <trkpt lat="45.36646" lon="2.99738">
        <ele>1312.9</ele>
        <time>2021-08-24T14:52:11Z</time>
      </trkpt>
      <trkpt lat="45.36649" lon="2.99731">
        <ele>1313</ele>
        <time>2021-08-24T14:52:13Z</time>
      </trkpt>
      <trkpt lat="45.36652" lon="2.99725">
        <ele>1313.1</ele>
        <time>2021-08-24T14:52:15Z</time>
      </trkpt>
      <trkpt lat="45.36655" lon="2.99718">
        <ele>1313.2</ele>
        <time>2021-08-24T14:52:17Z</time>
      </trkpt>
      <trkpt lat="45.36657" lon="2.99711">
        <ele>1313.3</ele>
        <time>2021-08-24T14:52:19Z</time>
      </trkpt>
      <trkpt lat="45.36659" lon="2.99705">
        <ele>1313.4</ele>
        <time>2021-08-24T14:52:21Z</time>
      </trkpt>
      <trkpt lat="45.36661" lon="2.99697">
        <ele>1313.5</ele>
        <time>2021-08-24T14:52:23Z</time>
      </trkpt>
      <trkpt lat="45.36661" lon="2.99689">
        <ele>1313.7</ele>
        <time>2021-08-24T14:52:25Z</time>
      </trkpt>
      <trkpt lat="45.36662" lon="2.99682">
        <ele>1313.9</ele>
        <time>2021-08-24T14:52:27Z</time>
      </trkpt>
      <trkpt lat="45.36663" lon="2.99674">
        <ele>1314.1</ele>
        <time>2021-08-24T14:52:29Z</time>
      </trkpt>
      <trkpt lat="45.36663" lon="2.99666">
        <ele>1314.2</ele>
        <time>2021-08-24T14:52:31Z</time>
      </trkpt>
      <trkpt lat="45.36663" lon="2.99659">
        <ele>1314.3</ele>
        <time>2021-08-24T14:52:33Z</time>
      </trkpt>
      <trkpt lat="45.36662" lon="2.99652">
        <ele>1314.5</ele>
        <time>2021-08-24T14:52:35Z</time>
      </trkpt>
      <trkpt lat="45.36661" lon="2.99644">
        <ele>1314.6</ele>
        <time>2021-08-24T14:52:37Z</time>
      </trkpt>
      <trkpt lat="45.3666" lon="2.99636">
        <ele>1314.8</ele>
        <time>2021-08-24T14:52:39Z</time>
      </trkpt>
      <trkpt lat="45.36659" lon="2.99629">
        <ele>1314.9</ele>
        <time>2021-08-24T14:52:41Z</time>
      </trkpt>
      <trkpt lat="45.36658" lon="2.99622">
        <ele>1315.1</ele>
        <time>2021-08-24T14:52:43Z</time>
      </trkpt>
      <trkpt lat="45.36657" lon="2.99616">
        <ele>1315.3</ele>
        <time>2021-08-24T14:52:45Z</time>
      </trkpt>
      <trkpt lat="45.36656" lon="2.99612">
        <ele>1315.3</ele>
        <time>2021-08-24T14:52:47Z</time>
      </trkpt>
      <trkpt lat="45.36658" lon="2.99609">
        <ele>1315.3</ele>
        <time>2021-08-24T14:52:49Z</time>
      </trkpt>
      <trkpt lat="45.36658" lon="2.99609">
        <ele>1315.3</ele>
        <time>2021-08-24T14:52:51Z</time>
      </trkpt>
      <trkpt lat="45.36658" lon="2.99609">
        <ele>1315.3</ele>
        <time>2021-08-24T14:52:53Z</time>
      </trkpt>
      <trkpt lat="45.36658" lon="2.99609">
        <ele>1315.3</ele>
        <time>2021-08-24T14:52:55Z</time>
      </trkpt>
      <trkpt lat="45.36658" lon="2.99609">
        <ele>1315.3</ele>
        <time>2021-08-24T14:52:57Z</time>
      </trkpt>
      <trkpt lat="45.3665" lon="2.99589">
        <ele>1316.1</ele>
        <time>2021-08-24T15:09:23Z</time>
      </trkpt>
      <trkpt lat="45.36648" lon="2.99584">
        <ele>1316.4</ele>
        <time>2021-08-24T15:09:25Z</time>
      </trkpt>
      <trkpt lat="45.36646" lon="2.99581">
        <ele>1316.5</ele>
        <time>2021-08-24T15:09:27Z</time>
      </trkpt>
      <trkpt lat="45.36644" lon="2.99577">
        <ele>1316.5</ele>
        <time>2021-08-24T15:09:29Z</time>
      </trkpt>
      <trkpt lat="45.36641" lon="2.99573">
        <ele>1316.6</ele>
        <time>2021-08-24T15:09:31Z</time>
      </trkpt>
      <trkpt lat="45.36639" lon="2.99568">
        <ele>1316.6</ele>
        <time>2021-08-24T15:09:33Z</time>
      </trkpt>
      <trkpt lat="45.36637" lon="2.99563">
        <ele>1316.6</ele>
        <time>2021-08-24T15:09:35Z</time>
      </trkpt>
      <trkpt lat="45.36634" lon="2.99559">
        <ele>1316.7</ele>
        <time>2021-08-24T15:09:37Z</time>
      </trkpt>
      <trkpt lat="45.36632" lon="2.99554">
        <ele>1316.7</ele>
        <time>2021-08-24T15:09:39Z</time>
      </trkpt>
      <trkpt lat="45.36629" lon="2.99549">
        <ele>1316.8</ele>
        <time>2021-08-24T15:09:41Z</time>
      </trkpt>
      <trkpt lat="45.36627" lon="2.99545">
        <ele>1316.7</ele>
        <time>2021-08-24T15:09:43Z</time>
      </trkpt>
      <trkpt lat="45.36624" lon="2.9954">
        <ele>1316.7</ele>
        <time>2021-08-24T15:09:45Z</time>
      </trkpt>
      <trkpt lat="45.36621" lon="2.99535">
        <ele>1316.7</ele>
        <time>2021-08-24T15:09:47Z</time>
      </trkpt>
      <trkpt lat="45.36618" lon="2.99529">
        <ele>1316.7</ele>
        <time>2021-08-24T15:09:49Z</time>
      </trkpt>
      <trkpt lat="45.36616" lon="2.99524">
        <ele>1316.7</ele>
        <time>2021-08-24T15:09:51Z</time>
      </trkpt>
      <trkpt lat="45.36612" lon="2.9952">
        <ele>1316.6</ele>
        <time>2021-08-24T15:09:53Z</time>
      </trkpt>
      <trkpt lat="45.3661" lon="2.99514">
        <ele>1316.5</ele>
        <time>2021-08-24T15:09:55Z</time>
      </trkpt>
      <trkpt lat="45.36608" lon="2.99508">
        <ele>1316.4</ele>
        <time>2021-08-24T15:09:57Z</time>
      </trkpt>
      <trkpt lat="45.36604" lon="2.99503">
        <ele>1316.4</ele>
        <time>2021-08-24T15:09:59Z</time>
      </trkpt>
      <trkpt lat="45.36601" lon="2.99497">
        <ele>1316</ele>
        <time>2021-08-24T15:10:01Z</time>
      </trkpt>
      <trkpt lat="45.36599" lon="2.99491">
        <ele>1315.3</ele>
        <time>2021-08-24T15:10:03Z</time>
      </trkpt>
      <trkpt lat="45.36596" lon="2.99484">
        <ele>1314.6</ele>
        <time>2021-08-24T15:10:05Z</time>
      </trkpt>
      <trkpt lat="45.36592" lon="2.99478">
        <ele>1314</ele>
        <time>2021-08-24T15:10:07Z</time>
      </trkpt>
      <trkpt lat="45.36589" lon="2.99472">
        <ele>1313.4</ele>
        <time>2021-08-24T15:10:09Z</time>
      </trkpt>
      <trkpt lat="45.36587" lon="2.99467">
        <ele>1313</ele>
        <time>2021-08-24T15:10:11Z</time>
      </trkpt>
      <trkpt lat="45.36584" lon="2.99463">
        <ele>1312.5</ele>
        <time>2021-08-24T15:10:13Z</time>
      </trkpt>
      <trkpt lat="45.36582" lon="2.99459">
        <ele>1312.2</ele>
        <time>2021-08-24T15:10:15Z</time>
      </trkpt>
      <trkpt lat="45.36579" lon="2.99455">
        <ele>1312.1</ele>
        <time>2021-08-24T15:10:17Z</time>
      </trkpt>
      <trkpt lat="45.36576" lon="2.99453">
        <ele>1312</ele>
        <time>2021-08-24T15:10:19Z</time>
      </trkpt>
      <trkpt lat="45.36576" lon="2.99452">
        <ele>1312</ele>
        <time>2021-08-24T15:10:21Z</time>
      </trkpt>
      <trkpt lat="45.36576" lon="2.99452">
        <ele>1312</ele>
        <time>2021-08-24T15:10:23Z</time>
      </trkpt>
      <trkpt lat="45.36576" lon="2.99452">
        <ele>1312</ele>
        <time>2021-08-24T15:10:25Z</time>
      </trkpt>
      <trkpt lat="45.36576" lon="2.99452">
        <ele>1312</ele>
        <time>2021-08-24T15:10:27Z</time>
      </trkpt>
      <trkpt lat="45.36576" lon="2.99452">
        <ele>1312</ele>
        <time>2021-08-24T15:10:29Z</time>
      </trkpt>
      <trkpt lat="45.36555" lon="2.99441">
        <ele>1313</ele>
        <time>2021-08-24T15:27:21Z</time>
      </trkpt>
      <trkpt lat="45.36547" lon="2.99437">
        <ele>1313.4</ele>
        <time>2021-08-24T15:27:23Z</time>
      </trkpt>
      <trkpt lat="45.36539" lon="2.9943">
        <ele>1313.6</ele>
        <time>2021-08-24T15:27:25Z</time>
      </trkpt>
      <trkpt lat="45.3653" lon="2.99419">
        <ele>1313.6</ele>
        <time>2021-08-24T15:27:27Z</time>
      </trkpt>
      <trkpt lat="45.36524" lon="2.99405">
        <ele>1312.5</ele>
        <time>2021-08-24T15:27:29Z</time>
      </trkpt>
      <trkpt lat="45.36519" lon="2.99388">
        <ele>1310.6</ele>
        <time>2021-08-24T15:27:31Z</time>
      </trkpt>
      <trkpt lat="45.36513" lon="2.9937">
        <ele>1308.6</ele>
        <time>2021-08-24T15:27:33Z</time>
      </trkpt>
      <trkpt lat="45.36507" lon="2.99351">
        <ele>1306.7</ele>
        <time>2021-08-24T15:27:35Z</time>
      </trkpt>
      <trkpt lat="45.365" lon="2.99332">
        <ele>1304.9</ele>
        <time>2021-08-24T15:27:37Z</time>
      </trkpt>
      <trkpt lat="45.3649" lon="2.99314">
        <ele>1304</ele>
        <time>2021-08-24T15:27:39Z</time>
      </trkpt>
      <trkpt lat="45.36479" lon="2.99297">
        <ele>1303.5</ele>
        <time>2021-08-24T15:27:41Z</time>
      </trkpt>
      <trkpt lat="45.36465" lon="2.99281">
        <ele>1303.5</ele>
        <time>2021-08-24T15:27:43Z</time>
      </trkpt>
      <trkpt lat="45.3645" lon="2.99268">
        <ele>1304.1</ele>
        <time>2021-08-24T15:27:45Z</time>
      </trkpt>
      <trkpt lat="45.36435" lon="2.99255">
        <ele>1304.8</ele>
        <time>2021-08-24T15:27:47Z</time>
      </trkpt>
      <trkpt lat="45.3642" lon="2.99238">
        <ele>1305.3</ele>
        <time>2021-08-24T15:27:49Z</time>
      </trkpt>
      <trkpt lat="45.3641" lon="2.99214">
        <ele>1304.3</ele>
        <time>2021-08-24T15:27:51Z</time>
      </trkpt>
      <trkpt lat="45.364" lon="2.9919">
        <ele>1303.3</ele>
        <time>2021-08-24T15:27:53Z</time>
      </trkpt>
      <trkpt lat="45.3639" lon="2.99165">
        <ele>1302.1</ele>
        <time>2021-08-24T15:27:55Z</time>
      </trkpt>
      <trkpt lat="45.36385" lon="2.99137">
        <ele>1301.2</ele>
        <time>2021-08-24T15:27:57Z</time>
      </trkpt>
      <trkpt lat="45.3638" lon="2.9911">
        <ele>1300.3</ele>
        <time>2021-08-24T15:27:59Z</time>
      </trkpt>
      <trkpt lat="45.36374" lon="2.99084">
        <ele>1299.6</ele>
        <time>2021-08-24T15:28:01Z</time>
      </trkpt>
      <trkpt lat="45.36375" lon="2.99057">
        <ele>1298.8</ele>
        <time>2021-08-24T15:28:03Z</time>
      </trkpt>
      <trkpt lat="45.36382" lon="2.99032">
        <ele>1297.2</ele>
        <time>2021-08-24T15:28:05Z</time>
      </trkpt>
      <trkpt lat="45.36387" lon="2.99007">
        <ele>1295.8</ele>
        <time>2021-08-24T15:28:07Z</time>
      </trkpt>
      <trkpt lat="45.36389" lon="2.9898">
        <ele>1294.5</ele>
        <time>2021-08-24T15:28:09Z</time>
      </trkpt>
      <trkpt lat="45.3639" lon="2.98952">
        <ele>1293.4</ele>
        <time>2021-08-24T15:28:11Z</time>
      </trkpt>
      <trkpt lat="45.3639" lon="2.98925">
        <ele>1292.5</ele>
        <time>2021-08-24T15:28:13Z</time>
      </trkpt>
      <trkpt lat="45.36384" lon="2.98899">
        <ele>1292.2</ele>
        <time>2021-08-24T15:28:15Z</time>
      </trkpt>
      <trkpt lat="45.36377" lon="2.98872">
        <ele>1292.1</ele>
        <time>2021-08-24T15:28:17Z</time>
      </trkpt>
      <trkpt lat="45.3637" lon="2.98846">
        <ele>1291.9</ele>
        <time>2021-08-24T15:28:19Z</time>
      </trkpt>
      <trkpt lat="45.36365" lon="2.9882">
        <ele>1291.1</ele>
        <time>2021-08-24T15:28:21Z</time>
      </trkpt>
      <trkpt lat="45.36365" lon="2.98792">
        <ele>1289</ele>
        <time>2021-08-24T15:28:23Z</time>
      </trkpt>
      <trkpt lat="45.36365" lon="2.9877">
        <ele>1287.3</ele>
        <time>2021-08-24T15:28:25Z</time>
      </trkpt>
      <trkpt lat="45.36359" lon="2.9875">
        <ele>1286.6</ele>
        <time>2021-08-24T15:28:27Z</time>
      </trkpt>
      <trkpt lat="45.36349" lon="2.98732">
        <ele>1286.7</ele>
        <time>2021-08-24T15:28:29Z</time>
      </trkpt>
      <trkpt lat="45.36338" lon="2.98714">
        <ele>1286.8</ele>
        <time>2021-08-24T15:28:31Z</time>
      </trkpt>
      <trkpt lat="45.36328" lon="2.98697">
        <ele>1286.9</ele>
        <time>2021-08-24T15:28:33Z</time>
      </trkpt>
      <trkpt lat="45.36323" lon="2.98676">
        <ele>1286.1</ele>
        <time>2021-08-24T15:28:35Z</time>
      </trkpt>
      <trkpt lat="45.36322" lon="2.98652">
        <ele>1284.9</ele>
        <time>2021-08-24T15:28:37Z</time>
      </trkpt>
      <trkpt lat="45.36321" lon="2.98628">
        <ele>1284</ele>
        <time>2021-08-24T15:28:39Z</time>
      </trkpt>
      <trkpt lat="45.36321" lon="2.98603">
        <ele>1283</ele>
        <time>2021-08-24T15:28:41Z</time>
      </trkpt>
      <trkpt lat="45.3632" lon="2.98577">
        <ele>1281.9</ele>
        <time>2021-08-24T15:28:43Z</time>
      </trkpt>
      <trkpt lat="45.36319" lon="2.98553">
        <ele>1280.4</ele>
        <time>2021-08-24T15:28:45Z</time>
      </trkpt>
      <trkpt lat="45.36316" lon="2.98529">
        <ele>1279.2</ele>
        <time>2021-08-24T15:28:47Z</time>
      </trkpt>
      <trkpt lat="45.36305" lon="2.98509">
        <ele>1278.7</ele>
        <time>2021-08-24T15:28:49Z</time>
      </trkpt>
      <trkpt lat="45.36293" lon="2.98493">
        <ele>1278.6</ele>
        <time>2021-08-24T15:28:51Z</time>
      </trkpt>
      <trkpt lat="45.36284" lon="2.98475">
        <ele>1278.3</ele>
        <time>2021-08-24T15:28:53Z</time>
      </trkpt>
      <trkpt lat="45.36283" lon="2.98451">
        <ele>1277.3</ele>
        <time>2021-08-24T15:28:55Z</time>
      </trkpt>
      <trkpt lat="45.3629" lon="2.98429">
        <ele>1275.7</ele>
        <time>2021-08-24T15:28:57Z</time>
      </trkpt>
      <trkpt lat="45.36298" lon="2.98409">
        <ele>1274.6</ele>
        <time>2021-08-24T15:28:59Z</time>
      </trkpt>
      <trkpt lat="45.36304" lon="2.98389">
        <ele>1274.4</ele>
        <time>2021-08-24T15:29:01Z</time>
      </trkpt>
      <trkpt lat="45.36301" lon="2.98368">
        <ele>1274.8</ele>
        <time>2021-08-24T15:29:03Z</time>
      </trkpt>
      <trkpt lat="45.36298" lon="2.98347">
        <ele>1275.5</ele>
        <time>2021-08-24T15:29:05Z</time>
      </trkpt>
      <trkpt lat="45.36294" lon="2.98325">
        <ele>1276.4</ele>
        <time>2021-08-24T15:29:07Z</time>
      </trkpt>
      <trkpt lat="45.36291" lon="2.98303">
        <ele>1277.6</ele>
        <time>2021-08-24T15:29:09Z</time>
      </trkpt>
      <trkpt lat="45.3629" lon="2.9828">
        <ele>1278.4</ele>
        <time>2021-08-24T15:29:11Z</time>
      </trkpt>
      <trkpt lat="45.36291" lon="2.98258">
        <ele>1278.9</ele>
        <time>2021-08-24T15:29:13Z</time>
      </trkpt>
      <trkpt lat="45.36292" lon="2.98236">
        <ele>1279.1</ele>
        <time>2021-08-24T15:29:15Z</time>
      </trkpt>
      <trkpt lat="45.36293" lon="2.98213">
        <ele>1279.3</ele>
        <time>2021-08-24T15:29:17Z</time>
      </trkpt>
      <trkpt lat="45.36293" lon="2.98191">
        <ele>1279.5</ele>
        <time>2021-08-24T15:29:19Z</time>
      </trkpt>
      <trkpt lat="45.36292" lon="2.98169">
        <ele>1279.9</ele>
        <time>2021-08-24T15:29:21Z</time>
      </trkpt>
      <trkpt lat="45.36291" lon="2.98147">
        <ele>1280.2</ele>
        <time>2021-08-24T15:29:23Z</time>
      </trkpt>
      <trkpt lat="45.36292" lon="2.98125">
        <ele>1280.2</ele>
        <time>2021-08-24T15:29:25Z</time>
      </trkpt>
      <trkpt lat="45.36296" lon="2.98103">
        <ele>1279.7</ele>
        <time>2021-08-24T15:29:27Z</time>
      </trkpt>
      <trkpt lat="45.363" lon="2.98083">
        <ele>1279.1</ele>
        <time>2021-08-24T15:29:29Z</time>
      </trkpt>
      <trkpt lat="45.36304" lon="2.98062">
        <ele>1278.3</ele>
        <time>2021-08-24T15:29:31Z</time>
      </trkpt>
      <trkpt lat="45.36306" lon="2.98042">
        <ele>1277.8</ele>
        <time>2021-08-24T15:29:33Z</time>
      </trkpt>
      <trkpt lat="45.36307" lon="2.98022">
        <ele>1277.5</ele>
        <time>2021-08-24T15:29:35Z</time>
      </trkpt>
      <trkpt lat="45.36307" lon="2.98003">
        <ele>1277.2</ele>
        <time>2021-08-24T15:29:37Z</time>
      </trkpt>
      <trkpt lat="45.36308" lon="2.97984">
        <ele>1277</ele>
        <time>2021-08-24T15:29:39Z</time>
      </trkpt>
      <trkpt lat="45.36309" lon="2.97966">
        <ele>1276.9</ele>
        <time>2021-08-24T15:29:41Z</time>
      </trkpt>
      <trkpt lat="45.3631" lon="2.97948">
        <ele>1276.7</ele>
        <time>2021-08-24T15:29:43Z</time>
      </trkpt>
      <trkpt lat="45.36311" lon="2.97931">
        <ele>1276.6</ele>
        <time>2021-08-24T15:29:45Z</time>
      </trkpt>
      <trkpt lat="45.36311" lon="2.97913">
        <ele>1276.4</ele>
        <time>2021-08-24T15:29:47Z</time>
      </trkpt>
      <trkpt lat="45.36309" lon="2.97895">
        <ele>1275.5</ele>
        <time>2021-08-24T15:29:49Z</time>
      </trkpt>
      <trkpt lat="45.36303" lon="2.97877">
        <ele>1274.9</ele>
        <time>2021-08-24T15:29:51Z</time>
      </trkpt>
      <trkpt lat="45.36296" lon="2.97859">
        <ele>1274.3</ele>
        <time>2021-08-24T15:29:53Z</time>
      </trkpt>
      <trkpt lat="45.3629" lon="2.97839">
        <ele>1273.9</ele>
        <time>2021-08-24T15:29:55Z</time>
      </trkpt>
      <trkpt lat="45.36283" lon="2.97818">
        <ele>1273</ele>
        <time>2021-08-24T15:29:57Z</time>
      </trkpt>
      <trkpt lat="45.36278" lon="2.97797">
        <ele>1272</ele>
        <time>2021-08-24T15:29:59Z</time>
      </trkpt>
      <trkpt lat="45.36272" lon="2.97775">
        <ele>1271</ele>
        <time>2021-08-24T15:30:01Z</time>
      </trkpt>
      <trkpt lat="45.36265" lon="2.97757">
        <ele>1270.4</ele>
        <time>2021-08-24T15:30:03Z</time>
      </trkpt>
      <trkpt lat="45.36253" lon="2.9774">
        <ele>1270.2</ele>
        <time>2021-08-24T15:30:05Z</time>
      </trkpt>
      <trkpt lat="45.36239" lon="2.97727">
        <ele>1270.2</ele>
        <time>2021-08-24T15:30:07Z</time>
      </trkpt>
      <trkpt lat="45.36224" lon="2.97714">
        <ele>1270</ele>
        <time>2021-08-24T15:30:09Z</time>
      </trkpt>
      <trkpt lat="45.36211" lon="2.97699">
        <ele>1269.5</ele>
        <time>2021-08-24T15:30:11Z</time>
      </trkpt>
      <trkpt lat="45.36201" lon="2.9768">
        <ele>1268.2</ele>
        <time>2021-08-24T15:30:13Z</time>
      </trkpt>
      <trkpt lat="45.36199" lon="2.97656">
        <ele>1266.8</ele>
        <time>2021-08-24T15:30:15Z</time>
      </trkpt>
      <trkpt lat="45.36197" lon="2.97633">
        <ele>1266.1</ele>
        <time>2021-08-24T15:30:17Z</time>
      </trkpt>
      <trkpt lat="45.36187" lon="2.97616">
        <ele>1265.7</ele>
        <time>2021-08-24T15:30:19Z</time>
      </trkpt>
      <trkpt lat="45.36174" lon="2.97601">
        <ele>1265.4</ele>
        <time>2021-08-24T15:30:21Z</time>
      </trkpt>
      <trkpt lat="45.36165" lon="2.9758">
        <ele>1265</ele>
        <time>2021-08-24T15:30:23Z</time>
      </trkpt>
      <trkpt lat="45.36159" lon="2.97556">
        <ele>1264.3</ele>
        <time>2021-08-24T15:30:25Z</time>
      </trkpt>
      <trkpt lat="45.36157" lon="2.97534">
        <ele>1263.6</ele>
        <time>2021-08-24T15:30:27Z</time>
      </trkpt>
      <trkpt lat="45.36162" lon="2.97516">
        <ele>1262.2</ele>
        <time>2021-08-24T15:30:29Z</time>
      </trkpt>
      <trkpt lat="45.36172" lon="2.97499">
        <ele>1260.6</ele>
        <time>2021-08-24T15:30:31Z</time>
      </trkpt>
      <trkpt lat="45.36179" lon="2.97479">
        <ele>1258.8</ele>
        <time>2021-08-24T15:30:33Z</time>
      </trkpt>
      <trkpt lat="45.36185" lon="2.9746">
        <ele>1256.9</ele>
        <time>2021-08-24T15:30:35Z</time>
      </trkpt>
      <trkpt lat="45.36187" lon="2.97443">
        <ele>1255.4</ele>
        <time>2021-08-24T15:30:37Z</time>
      </trkpt>
      <trkpt lat="45.36184" lon="2.97425">
        <ele>1254.6</ele>
        <time>2021-08-24T15:30:39Z</time>
      </trkpt>
      <trkpt lat="45.36177" lon="2.97408">
        <ele>1254.2</ele>
        <time>2021-08-24T15:30:41Z</time>
      </trkpt>
      <trkpt lat="45.36167" lon="2.9739">
        <ele>1253.4</ele>
        <time>2021-08-24T15:30:43Z</time>
      </trkpt>
      <trkpt lat="45.36158" lon="2.9737">
        <ele>1252.7</ele>
        <time>2021-08-24T15:30:45Z</time>
      </trkpt>
      <trkpt lat="45.3615" lon="2.9735">
        <ele>1252</ele>
        <time>2021-08-24T15:30:47Z</time>
      </trkpt>
      <trkpt lat="45.36142" lon="2.97327">
        <ele>1251.8</ele>
        <time>2021-08-24T15:30:49Z</time>
      </trkpt>
      <trkpt lat="45.36133" lon="2.97304">
        <ele>1252.1</ele>
        <time>2021-08-24T15:30:51Z</time>
      </trkpt>
      <trkpt lat="45.36126" lon="2.97278">
        <ele>1251.8</ele>
        <time>2021-08-24T15:30:53Z</time>
      </trkpt>
      <trkpt lat="45.36122" lon="2.9725">
        <ele>1250.8</ele>
        <time>2021-08-24T15:30:55Z</time>
      </trkpt>
      <trkpt lat="45.36119" lon="2.97223">
        <ele>1251.2</ele>
        <time>2021-08-24T15:30:57Z</time>
      </trkpt>
      <trkpt lat="45.36116" lon="2.972">
        <ele>1251.6</ele>
        <time>2021-08-24T15:30:59Z</time>
      </trkpt>
      <trkpt lat="45.36114" lon="2.97175">
        <ele>1251.7</ele>
        <time>2021-08-24T15:31:01Z</time>
      </trkpt>
      <trkpt lat="45.36118" lon="2.9715">
        <ele>1250.6</ele>
        <time>2021-08-24T15:31:03Z</time>
      </trkpt>
      <trkpt lat="45.36121" lon="2.97127">
        <ele>1249.8</ele>
        <time>2021-08-24T15:31:05Z</time>
      </trkpt>
      <trkpt lat="45.36127" lon="2.97108">
        <ele>1248.3</ele>
        <time>2021-08-24T15:31:07Z</time>
      </trkpt>
      <trkpt lat="45.36137" lon="2.97094">
        <ele>1245.9</ele>
        <time>2021-08-24T15:31:09Z</time>
      </trkpt>
      <trkpt lat="45.36152" lon="2.97088">
        <ele>1242.4</ele>
        <time>2021-08-24T15:31:11Z</time>
      </trkpt>
      <trkpt lat="45.36166" lon="2.97095">
        <ele>1239.1</ele>
        <time>2021-08-24T15:31:13Z</time>
      </trkpt>
      <trkpt lat="45.36174" lon="2.9711">
        <ele>1238.4</ele>
        <time>2021-08-24T15:31:15Z</time>
      </trkpt>
      <trkpt lat="45.3618" lon="2.97128">
        <ele>1237.9</ele>
        <time>2021-08-24T15:31:17Z</time>
      </trkpt>
      <trkpt lat="45.36188" lon="2.97143">
        <ele>1237.2</ele>
        <time>2021-08-24T15:31:19Z</time>
      </trkpt>
      <trkpt lat="45.36199" lon="2.97154">
        <ele>1236.3</ele>
        <time>2021-08-24T15:31:21Z</time>
      </trkpt>
      <trkpt lat="45.36212" lon="2.97163">
        <ele>1235.2</ele>
        <time>2021-08-24T15:31:23Z</time>
      </trkpt>
      <trkpt lat="45.36227" lon="2.97168">
        <ele>1233.9</ele>
        <time>2021-08-24T15:31:25Z</time>
      </trkpt>
      <trkpt lat="45.3624" lon="2.97164">
        <ele>1232.8</ele>
        <time>2021-08-24T15:31:27Z</time>
      </trkpt>
      <trkpt lat="45.3625" lon="2.97155">
        <ele>1232</ele>
        <time>2021-08-24T15:31:29Z</time>
      </trkpt>
      <trkpt lat="45.36256" lon="2.97141">
        <ele>1231.3</ele>
        <time>2021-08-24T15:31:31Z</time>
      </trkpt>
      <trkpt lat="45.36257" lon="2.97127">
        <ele>1231.1</ele>
        <time>2021-08-24T15:31:33Z</time>
      </trkpt>
      <trkpt lat="45.36255" lon="2.97115">
        <ele>1231.3</ele>
        <time>2021-08-24T15:31:35Z</time>
      </trkpt>
      <trkpt lat="45.36251" lon="2.97104">
        <ele>1231.8</ele>
        <time>2021-08-24T15:31:37Z</time>
      </trkpt>
      <trkpt lat="45.36247" lon="2.97092">
        <ele>1232.3</ele>
        <time>2021-08-24T15:31:39Z</time>
      </trkpt>
      <trkpt lat="45.36245" lon="2.97079">
        <ele>1232.3</ele>
        <time>2021-08-24T15:31:41Z</time>
      </trkpt>
      <trkpt lat="45.36245" lon="2.97068">
        <ele>1232.1</ele>
        <time>2021-08-24T15:31:43Z</time>
      </trkpt>
      <trkpt lat="45.36246" lon="2.97059">
        <ele>1231.7</ele>
        <time>2021-08-24T15:31:45Z</time>
      </trkpt>
      <trkpt lat="45.36248" lon="2.97052">
        <ele>1231.4</ele>
        <time>2021-08-24T15:31:47Z</time>
      </trkpt>
      <trkpt lat="45.36252" lon="2.97047">
        <ele>1230.9</ele>
        <time>2021-08-24T15:31:49Z</time>
      </trkpt>
      <trkpt lat="45.36255" lon="2.97045">
        <ele>1230.4</ele>
        <time>2021-08-24T15:31:51Z</time>
      </trkpt>
      <trkpt lat="45.36259" lon="2.97045">
        <ele>1229.9</ele>
        <time>2021-08-24T15:31:53Z</time>
      </trkpt>
      <trkpt lat="45.36261" lon="2.97044">
        <ele>1229.6</ele>
        <time>2021-08-24T15:31:55Z</time>
      </trkpt>
      <trkpt lat="45.36264" lon="2.97045">
        <ele>1229.2</ele>
        <time>2021-08-24T15:31:57Z</time>
      </trkpt>
      <trkpt lat="45.36267" lon="2.97043">
        <ele>1228.8</ele>
        <time>2021-08-24T15:31:59Z</time>
      </trkpt>
      <trkpt lat="45.36269" lon="2.97038">
        <ele>1228.4</ele>
        <time>2021-08-24T15:32:01Z</time>
      </trkpt>
      <trkpt lat="45.36273" lon="2.97032">
        <ele>1227.9</ele>
        <time>2021-08-24T15:32:03Z</time>
      </trkpt>
      <trkpt lat="45.36278" lon="2.97023">
        <ele>1227.2</ele>
        <time>2021-08-24T15:32:05Z</time>
      </trkpt>
      <trkpt lat="45.36283" lon="2.97015">
        <ele>1226.5</ele>
        <time>2021-08-24T15:32:07Z</time>
      </trkpt>
      <trkpt lat="45.36289" lon="2.97005">
        <ele>1225.7</ele>
        <time>2021-08-24T15:32:09Z</time>
      </trkpt>
      <trkpt lat="45.36297" lon="2.96993">
        <ele>1224.9</ele>
        <time>2021-08-24T15:32:11Z</time>
      </trkpt>
      <trkpt lat="45.36305" lon="2.96985">
        <ele>1224.1</ele>
        <time>2021-08-24T15:32:13Z</time>
      </trkpt>
      <trkpt lat="45.36314" lon="2.96981">
        <ele>1223.3</ele>
        <time>2021-08-24T15:32:15Z</time>
      </trkpt>
      <trkpt lat="45.36325" lon="2.96976">
        <ele>1222.5</ele>
        <time>2021-08-24T15:32:17Z</time>
      </trkpt>
      <trkpt lat="45.36332" lon="2.96972">
        <ele>1222.1</ele>
        <time>2021-08-24T15:32:19Z</time>
      </trkpt>
      <trkpt lat="45.36339" lon="2.96969">
        <ele>1221.9</ele>
        <time>2021-08-24T15:32:21Z</time>
      </trkpt>
      <trkpt lat="45.36345" lon="2.96966">
        <ele>1221.8</ele>
        <time>2021-08-24T15:32:23Z</time>
      </trkpt>
      <trkpt lat="45.3635" lon="2.96963">
        <ele>1221.8</ele>
        <time>2021-08-24T15:32:25Z</time>
      </trkpt>
      <trkpt lat="45.36355" lon="2.96959">
        <ele>1221.8</ele>
        <time>2021-08-24T15:32:27Z</time>
      </trkpt>
      <trkpt lat="45.36361" lon="2.96956">
        <ele>1221.8</ele>
        <time>2021-08-24T15:32:29Z</time>
      </trkpt>
      <trkpt lat="45.36365" lon="2.96952">
        <ele>1221.9</ele>
        <time>2021-08-24T15:32:31Z</time>
      </trkpt>
      <trkpt lat="45.36369" lon="2.96948">
        <ele>1222</ele>
        <time>2021-08-24T15:32:33Z</time>
      </trkpt>
      <trkpt lat="45.36374" lon="2.96945">
        <ele>1222</ele>
        <time>2021-08-24T15:32:35Z</time>
      </trkpt>
      <trkpt lat="45.36379" lon="2.96944">
        <ele>1221.9</ele>
        <time>2021-08-24T15:32:37Z</time>
      </trkpt>
      <trkpt lat="45.36385" lon="2.96942">
        <ele>1221.9</ele>
        <time>2021-08-24T15:32:39Z</time>
      </trkpt>
      <trkpt lat="45.3639" lon="2.96942">
        <ele>1221.8</ele>
        <time>2021-08-24T15:32:41Z</time>
      </trkpt>
      <trkpt lat="45.36396" lon="2.9694">
        <ele>1221.8</ele>
        <time>2021-08-24T15:32:43Z</time>
      </trkpt>
      <trkpt lat="45.36401" lon="2.96935">
        <ele>1222</ele>
        <time>2021-08-24T15:32:45Z</time>
      </trkpt>
      <trkpt lat="45.36405" lon="2.96935">
        <ele>1221.9</ele>
        <time>2021-08-24T15:32:47Z</time>
      </trkpt>
      <trkpt lat="45.36412" lon="2.96938">
        <ele>1221.6</ele>
        <time>2021-08-24T15:32:49Z</time>
      </trkpt>
      <trkpt lat="45.36419" lon="2.96941">
        <ele>1221.2</ele>
        <time>2021-08-24T15:32:51Z</time>
      </trkpt>
      <trkpt lat="45.36423" lon="2.96946">
        <ele>1220.8</ele>
        <time>2021-08-24T15:32:53Z</time>
      </trkpt>
      <trkpt lat="45.36426" lon="2.96949">
        <ele>1220.5</ele>
        <time>2021-08-24T15:32:55Z</time>
      </trkpt>
      <trkpt lat="45.36428" lon="2.96953">
        <ele>1220.2</ele>
        <time>2021-08-24T15:32:57Z</time>
      </trkpt>
      <trkpt lat="45.3643" lon="2.96951">
        <ele>1220.3</ele>
        <time>2021-08-24T15:32:59Z</time>
      </trkpt>
      <trkpt lat="45.36432" lon="2.96954">
        <ele>1220.1</ele>
        <time>2021-08-24T15:33:01Z</time>
      </trkpt>
      <trkpt lat="45.36435" lon="2.96958">
        <ele>1219.7</ele>
        <time>2021-08-24T15:33:03Z</time>
      </trkpt>
      <trkpt lat="45.36436" lon="2.96959">
        <ele>1219.6</ele>
        <time>2021-08-24T15:33:05Z</time>
      </trkpt>
      <trkpt lat="45.3644" lon="2.96963">
        <ele>1219.2</ele>
        <time>2021-08-24T15:33:07Z</time>
      </trkpt>
      <trkpt lat="45.36441" lon="2.96963">
        <ele>1219.2</ele>
        <time>2021-08-24T15:33:09Z</time>
      </trkpt>
      <trkpt lat="45.36443" lon="2.96964">
        <ele>1219.1</ele>
        <time>2021-08-24T15:33:11Z</time>
      </trkpt>
      <trkpt lat="45.36445" lon="2.96963">
        <ele>1219.2</ele>
        <time>2021-08-24T15:33:13Z</time>
      </trkpt>
      <trkpt lat="45.36444" lon="2.96961">
        <ele>1219.3</ele>
        <time>2021-08-24T15:33:15Z</time>
      </trkpt>
      <trkpt lat="45.36441" lon="2.96959">
        <ele>1219.5</ele>
        <time>2021-08-24T15:33:17Z</time>
      </trkpt>
      <trkpt lat="45.36439" lon="2.96956">
        <ele>1219.8</ele>
        <time>2021-08-24T15:33:19Z</time>
      </trkpt>
      <trkpt lat="45.36435" lon="2.96952">
        <ele>1220.1</ele>
        <time>2021-08-24T15:33:21Z</time>
      </trkpt>
      <trkpt lat="45.36431" lon="2.96948">
        <ele>1220.5</ele>
        <time>2021-08-24T15:33:23Z</time>
      </trkpt>
      <trkpt lat="45.36426" lon="2.96944">
        <ele>1220.9</ele>
        <time>2021-08-24T15:33:25Z</time>
      </trkpt>
      <trkpt lat="45.36422" lon="2.96941">
        <ele>1221.1</ele>
        <time>2021-08-24T15:33:27Z</time>
      </trkpt>
      <trkpt lat="45.36417" lon="2.96938">
        <ele>1221.5</ele>
        <time>2021-08-24T15:33:29Z</time>
      </trkpt>
      <trkpt lat="45.36413" lon="2.96935">
        <ele>1221.8</ele>
        <time>2021-08-24T15:33:31Z</time>
      </trkpt>
      <trkpt lat="45.36408" lon="2.96934">
        <ele>1221.9</ele>
        <time>2021-08-24T15:33:33Z</time>
      </trkpt>
      <trkpt lat="45.36403" lon="2.96934">
        <ele>1222</ele>
        <time>2021-08-24T15:33:35Z</time>
      </trkpt>
      <trkpt lat="45.36398" lon="2.96935">
        <ele>1222</ele>
        <time>2021-08-24T15:33:37Z</time>
      </trkpt>
      <trkpt lat="45.36394" lon="2.96937">
        <ele>1222</ele>
        <time>2021-08-24T15:33:39Z</time>
      </trkpt>
      <trkpt lat="45.36389" lon="2.96939">
        <ele>1222</ele>
        <time>2021-08-24T15:33:41Z</time>
      </trkpt>
      <trkpt lat="45.36384" lon="2.96941">
        <ele>1222</ele>
        <time>2021-08-24T15:33:43Z</time>
      </trkpt>
      <trkpt lat="45.36379" lon="2.96942">
        <ele>1222</ele>
        <time>2021-08-24T15:33:45Z</time>
      </trkpt>
      <trkpt lat="45.36374" lon="2.96944">
        <ele>1222</ele>
        <time>2021-08-24T15:33:47Z</time>
      </trkpt>
      <trkpt lat="45.36369" lon="2.96947">
        <ele>1222</ele>
        <time>2021-08-24T15:33:49Z</time>
      </trkpt>
      <trkpt lat="45.36364" lon="2.9695">
        <ele>1222</ele>
        <time>2021-08-24T15:33:51Z</time>
      </trkpt>
      <trkpt lat="45.36359" lon="2.96954">
        <ele>1222</ele>
        <time>2021-08-24T15:33:53Z</time>
      </trkpt>
      <trkpt lat="45.36354" lon="2.96957">
        <ele>1221.9</ele>
        <time>2021-08-24T15:33:55Z</time>
      </trkpt>
      <trkpt lat="45.36351" lon="2.96959">
        <ele>1221.9</ele>
        <time>2021-08-24T15:33:57Z</time>
      </trkpt>
      <trkpt lat="45.36348" lon="2.96961">
        <ele>1222</ele>
        <time>2021-08-24T15:33:59Z</time>
      </trkpt>
      <trkpt lat="45.36345" lon="2.9696">
        <ele>1222.1</ele>
        <time>2021-08-24T15:34:01Z</time>
      </trkpt>
      <trkpt lat="45.36345" lon="2.9696">
        <ele>1222.1</ele>
        <time>2021-08-24T15:34:03Z</time>
      </trkpt>
      <trkpt lat="45.36344" lon="2.9696">
        <ele>1222.1</ele>
        <time>2021-08-24T15:34:05Z</time>
      </trkpt>
      <trkpt lat="45.36358" lon="2.96958">
        <ele>1221.8</ele>
        <time>2021-08-24T15:40:07Z</time>
      </trkpt>
      <trkpt lat="45.36363" lon="2.96955">
        <ele>1221.8</ele>
        <time>2021-08-24T15:40:09Z</time>
      </trkpt>
      <trkpt lat="45.36367" lon="2.9695">
        <ele>1221.9</ele>
        <time>2021-08-24T15:40:11Z</time>
      </trkpt>
      <trkpt lat="45.36372" lon="2.96946">
        <ele>1222</ele>
        <time>2021-08-24T15:40:13Z</time>
      </trkpt>
      <trkpt lat="45.36377" lon="2.96944">
        <ele>1222</ele>
        <time>2021-08-24T15:40:15Z</time>
      </trkpt>
      <trkpt lat="45.36383" lon="2.96942">
        <ele>1222</ele>
        <time>2021-08-24T15:40:17Z</time>
      </trkpt>
      <trkpt lat="45.36389" lon="2.96941">
        <ele>1221.9</ele>
        <time>2021-08-24T15:40:19Z</time>
      </trkpt>
      <trkpt lat="45.36396" lon="2.96938">
        <ele>1221.9</ele>
        <time>2021-08-24T15:40:21Z</time>
      </trkpt>
      <trkpt lat="45.36403" lon="2.96935">
        <ele>1221.9</ele>
        <time>2021-08-24T15:40:23Z</time>
      </trkpt>
      <trkpt lat="45.36409" lon="2.96936">
        <ele>1221.8</ele>
        <time>2021-08-24T15:40:25Z</time>
      </trkpt>
      <trkpt lat="45.36418" lon="2.9694">
        <ele>1221.3</ele>
        <time>2021-08-24T15:40:27Z</time>
      </trkpt>
      <trkpt lat="45.36427" lon="2.96947">
        <ele>1220.6</ele>
        <time>2021-08-24T15:40:29Z</time>
      </trkpt>
      <trkpt lat="45.36434" lon="2.96955">
        <ele>1219.9</ele>
        <time>2021-08-24T15:40:31Z</time>
      </trkpt>
      <trkpt lat="45.36443" lon="2.96962">
        <ele>1219.2</ele>
        <time>2021-08-24T15:40:33Z</time>
      </trkpt>
      <trkpt lat="45.36451" lon="2.96971">
        <ele>1218.4</ele>
        <time>2021-08-24T15:40:35Z</time>
      </trkpt>
      <trkpt lat="45.36461" lon="2.9698">
        <ele>1217.5</ele>
        <time>2021-08-24T15:40:37Z</time>
      </trkpt>
      <trkpt lat="45.3647" lon="2.96989">
        <ele>1216.6</ele>
        <time>2021-08-24T15:40:39Z</time>
      </trkpt>
      <trkpt lat="45.3648" lon="2.96997">
        <ele>1215.7</ele>
        <time>2021-08-24T15:40:41Z</time>
      </trkpt>
      <trkpt lat="45.3649" lon="2.97006">
        <ele>1215</ele>
        <time>2021-08-24T15:40:43Z</time>
      </trkpt>
      <trkpt lat="45.36499" lon="2.97014">
        <ele>1214.4</ele>
        <time>2021-08-24T15:40:45Z</time>
      </trkpt>
      <trkpt lat="45.36508" lon="2.97023">
        <ele>1213.3</ele>
        <time>2021-08-24T15:40:47Z</time>
      </trkpt>
      <trkpt lat="45.36517" lon="2.97031">
        <ele>1212.3</ele>
        <time>2021-08-24T15:40:49Z</time>
      </trkpt>
      <trkpt lat="45.36526" lon="2.9704">
        <ele>1211.5</ele>
        <time>2021-08-24T15:40:51Z</time>
      </trkpt>
      <trkpt lat="45.36537" lon="2.9705">
        <ele>1210.8</ele>
        <time>2021-08-24T15:40:53Z</time>
      </trkpt>
      <trkpt lat="45.36548" lon="2.97055">
        <ele>1210.2</ele>
        <time>2021-08-24T15:40:55Z</time>
      </trkpt>
      <trkpt lat="45.36561" lon="2.97058">
        <ele>1209.7</ele>
        <time>2021-08-24T15:40:57Z</time>
      </trkpt>
      <trkpt lat="45.36574" lon="2.97057">
        <ele>1209.1</ele>
        <time>2021-08-24T15:40:59Z</time>
      </trkpt>
      <trkpt lat="45.36588" lon="2.97056">
        <ele>1208.5</ele>
        <time>2021-08-24T15:41:01Z</time>
      </trkpt>
      <trkpt lat="45.36602" lon="2.97055">
        <ele>1207.7</ele>
        <time>2021-08-24T15:41:03Z</time>
      </trkpt>
      <trkpt lat="45.36617" lon="2.97058">
        <ele>1207</ele>
        <time>2021-08-24T15:41:05Z</time>
      </trkpt>
      <trkpt lat="45.3663" lon="2.97067">
        <ele>1206.7</ele>
        <time>2021-08-24T15:41:07Z</time>
      </trkpt>
      <trkpt lat="45.36641" lon="2.97079">
        <ele>1206.4</ele>
        <time>2021-08-24T15:41:09Z</time>
      </trkpt>
      <trkpt lat="45.36651" lon="2.97091">
        <ele>1206.3</ele>
        <time>2021-08-24T15:41:11Z</time>
      </trkpt>
      <trkpt lat="45.3666" lon="2.97103">
        <ele>1206.3</ele>
        <time>2021-08-24T15:41:13Z</time>
      </trkpt>
      <trkpt lat="45.36669" lon="2.97115">
        <ele>1206.3</ele>
        <time>2021-08-24T15:41:15Z</time>
      </trkpt>
      <trkpt lat="45.36678" lon="2.97125">
        <ele>1206.3</ele>
        <time>2021-08-24T15:41:17Z</time>
      </trkpt>
      <trkpt lat="45.36687" lon="2.97134">
        <ele>1206</ele>
        <time>2021-08-24T15:41:19Z</time>
      </trkpt>
      <trkpt lat="45.36698" lon="2.97138">
        <ele>1205.5</ele>
        <time>2021-08-24T15:41:21Z</time>
      </trkpt>
      <trkpt lat="45.36709" lon="2.97142">
        <ele>1204.9</ele>
        <time>2021-08-24T15:41:23Z</time>
      </trkpt>
      <trkpt lat="45.3672" lon="2.97145">
        <ele>1204.3</ele>
        <time>2021-08-24T15:41:25Z</time>
      </trkpt>
      <trkpt lat="45.36731" lon="2.9715">
        <ele>1203.7</ele>
        <time>2021-08-24T15:41:27Z</time>
      </trkpt>
      <trkpt lat="45.36742" lon="2.97154">
        <ele>1203.1</ele>
        <time>2021-08-24T15:41:29Z</time>
      </trkpt>
      <trkpt lat="45.36754" lon="2.97159">
        <ele>1202.6</ele>
        <time>2021-08-24T15:41:31Z</time>
      </trkpt>
      <trkpt lat="45.36767" lon="2.97163">
        <ele>1202.3</ele>
        <time>2021-08-24T15:41:33Z</time>
      </trkpt>
      <trkpt lat="45.3678" lon="2.97167">
        <ele>1201.9</ele>
        <time>2021-08-24T15:41:35Z</time>
      </trkpt>
      <trkpt lat="45.36793" lon="2.97168">
        <ele>1201.5</ele>
        <time>2021-08-24T15:41:37Z</time>
      </trkpt>
      <trkpt lat="45.36807" lon="2.97168">
        <ele>1201</ele>
        <time>2021-08-24T15:41:39Z</time>
      </trkpt>
      <trkpt lat="45.36822" lon="2.97168">
        <ele>1200.4</ele>
        <time>2021-08-24T15:41:41Z</time>
      </trkpt>
      <trkpt lat="45.36837" lon="2.97168">
        <ele>1199.7</ele>
        <time>2021-08-24T15:41:43Z</time>
      </trkpt>
      <trkpt lat="45.36854" lon="2.97167">
        <ele>1198.3</ele>
        <time>2021-08-24T15:41:45Z</time>
      </trkpt>
      <trkpt lat="45.36871" lon="2.97166">
        <ele>1196.8</ele>
        <time>2021-08-24T15:41:47Z</time>
      </trkpt>
      <trkpt lat="45.36889" lon="2.97166">
        <ele>1195.3</ele>
        <time>2021-08-24T15:41:49Z</time>
      </trkpt>
      <trkpt lat="45.36907" lon="2.97169">
        <ele>1193.9</ele>
        <time>2021-08-24T15:41:51Z</time>
      </trkpt>
      <trkpt lat="45.36926" lon="2.97176">
        <ele>1192.4</ele>
        <time>2021-08-24T15:41:53Z</time>
      </trkpt>
      <trkpt lat="45.36943" lon="2.97181">
        <ele>1191</ele>
        <time>2021-08-24T15:41:55Z</time>
      </trkpt>
      <trkpt lat="45.36961" lon="2.97188">
        <ele>1189.5</ele>
        <time>2021-08-24T15:41:57Z</time>
      </trkpt>
      <trkpt lat="45.36978" lon="2.97199">
        <ele>1188.1</ele>
        <time>2021-08-24T15:41:59Z</time>
      </trkpt>
      <trkpt lat="45.36994" lon="2.97211">
        <ele>1186.6</ele>
        <time>2021-08-24T15:42:01Z</time>
      </trkpt>
      <trkpt lat="45.3701" lon="2.97222">
        <ele>1185.9</ele>
        <time>2021-08-24T15:42:03Z</time>
      </trkpt>
      <trkpt lat="45.37027" lon="2.97228">
        <ele>1185.6</ele>
        <time>2021-08-24T15:42:05Z</time>
      </trkpt>
      <trkpt lat="45.37045" lon="2.97233">
        <ele>1185.3</ele>
        <time>2021-08-24T15:42:07Z</time>
      </trkpt>
      <trkpt lat="45.37062" lon="2.9723">
        <ele>1185</ele>
        <time>2021-08-24T15:42:09Z</time>
      </trkpt>
      <trkpt lat="45.37079" lon="2.97224">
        <ele>1185</ele>
        <time>2021-08-24T15:42:11Z</time>
      </trkpt>
      <trkpt lat="45.37095" lon="2.97216">
        <ele>1184.9</ele>
        <time>2021-08-24T15:42:13Z</time>
      </trkpt>
      <trkpt lat="45.3711" lon="2.97208">
        <ele>1184.7</ele>
        <time>2021-08-24T15:42:15Z</time>
      </trkpt>
      <trkpt lat="45.37125" lon="2.97202">
        <ele>1184.4</ele>
        <time>2021-08-24T15:42:17Z</time>
      </trkpt>
      <trkpt lat="45.37138" lon="2.97197">
        <ele>1184.2</ele>
        <time>2021-08-24T15:42:19Z</time>
      </trkpt>
      <trkpt lat="45.37151" lon="2.97192">
        <ele>1183.9</ele>
        <time>2021-08-24T15:42:21Z</time>
      </trkpt>
      <trkpt lat="45.37163" lon="2.97188">
        <ele>1183.6</ele>
        <time>2021-08-24T15:42:23Z</time>
      </trkpt>
      <trkpt lat="45.37174" lon="2.97183">
        <ele>1183.2</ele>
        <time>2021-08-24T15:42:25Z</time>
      </trkpt>
      <trkpt lat="45.37184" lon="2.97178">
        <ele>1182.7</ele>
        <time>2021-08-24T15:42:27Z</time>
      </trkpt>
      <trkpt lat="45.37194" lon="2.9717">
        <ele>1182.3</ele>
        <time>2021-08-24T15:42:29Z</time>
      </trkpt>
      <trkpt lat="45.37206" lon="2.97162">
        <ele>1181.8</ele>
        <time>2021-08-24T15:42:31Z</time>
      </trkpt>
      <trkpt lat="45.37219" lon="2.97153">
        <ele>1181.3</ele>
        <time>2021-08-24T15:42:33Z</time>
      </trkpt>
      <trkpt lat="45.3723" lon="2.97144">
        <ele>1180.8</ele>
        <time>2021-08-24T15:42:35Z</time>
      </trkpt>
      <trkpt lat="45.37242" lon="2.97136">
        <ele>1180.3</ele>
        <time>2021-08-24T15:42:37Z</time>
      </trkpt>
      <trkpt lat="45.37255" lon="2.97129">
        <ele>1180.4</ele>
        <time>2021-08-24T15:42:39Z</time>
      </trkpt>
      <trkpt lat="45.37269" lon="2.9713">
        <ele>1181.8</ele>
        <time>2021-08-24T15:42:41Z</time>
      </trkpt>
      <trkpt lat="45.37281" lon="2.9714">
        <ele>1182.5</ele>
        <time>2021-08-24T15:42:43Z</time>
      </trkpt>
      <trkpt lat="45.3729" lon="2.97152">
        <ele>1182.4</ele>
        <time>2021-08-24T15:42:45Z</time>
      </trkpt>
      <trkpt lat="45.37297" lon="2.97165">
        <ele>1181.9</ele>
        <time>2021-08-24T15:42:47Z</time>
      </trkpt>
      <trkpt lat="45.37303" lon="2.97176">
        <ele>1181.6</ele>
        <time>2021-08-24T15:42:49Z</time>
      </trkpt>
      <trkpt lat="45.3731" lon="2.97186">
        <ele>1181.3</ele>
        <time>2021-08-24T15:42:51Z</time>
      </trkpt>
      <trkpt lat="45.37318" lon="2.97194">
        <ele>1181.1</ele>
        <time>2021-08-24T15:42:53Z</time>
      </trkpt>
      <trkpt lat="45.37324" lon="2.97201">
        <ele>1180.8</ele>
        <time>2021-08-24T15:42:55Z</time>
      </trkpt>
      <trkpt lat="45.37331" lon="2.97209">
        <ele>1180.4</ele>
        <time>2021-08-24T15:42:57Z</time>
      </trkpt>
      <trkpt lat="45.37337" lon="2.97216">
        <ele>1180.2</ele>
        <time>2021-08-24T15:42:59Z</time>
      </trkpt>
      <trkpt lat="45.37343" lon="2.97222">
        <ele>1180.1</ele>
        <time>2021-08-24T15:43:01Z</time>
      </trkpt>
      <trkpt lat="45.37349" lon="2.97227">
        <ele>1180.1</ele>
        <time>2021-08-24T15:43:03Z</time>
      </trkpt>
      <trkpt lat="45.37355" lon="2.97232">
        <ele>1180</ele>
        <time>2021-08-24T15:43:05Z</time>
      </trkpt>
      <trkpt lat="45.37362" lon="2.97236">
        <ele>1180</ele>
        <time>2021-08-24T15:43:07Z</time>
      </trkpt>
      <trkpt lat="45.37369" lon="2.97239">
        <ele>1180.1</ele>
        <time>2021-08-24T15:43:09Z</time>
      </trkpt>
      <trkpt lat="45.37376" lon="2.97239">
        <ele>1180.6</ele>
        <time>2021-08-24T15:43:11Z</time>
      </trkpt>
      <trkpt lat="45.37384" lon="2.97235">
        <ele>1181.5</ele>
        <time>2021-08-24T15:43:13Z</time>
      </trkpt>
      <trkpt lat="45.37391" lon="2.97231">
        <ele>1182.6</ele>
        <time>2021-08-24T15:43:15Z</time>
      </trkpt>
      <trkpt lat="45.37399" lon="2.97228">
        <ele>1183.7</ele>
        <time>2021-08-24T15:43:17Z</time>
      </trkpt>
      <trkpt lat="45.37406" lon="2.97223">
        <ele>1185</ele>
        <time>2021-08-24T15:43:19Z</time>
      </trkpt>
      <trkpt lat="45.37413" lon="2.97222">
        <ele>1185.8</ele>
        <time>2021-08-24T15:43:21Z</time>
      </trkpt>
      <trkpt lat="45.37421" lon="2.97222">
        <ele>1186.3</ele>
        <time>2021-08-24T15:43:23Z</time>
      </trkpt>
      <trkpt lat="45.37428" lon="2.97224">
        <ele>1186.4</ele>
        <time>2021-08-24T15:43:25Z</time>
      </trkpt>
      <trkpt lat="45.37434" lon="2.97227">
        <ele>1186.2</ele>
        <time>2021-08-24T15:43:27Z</time>
      </trkpt>
      <trkpt lat="45.3744" lon="2.97231">
        <ele>1185.8</ele>
        <time>2021-08-24T15:43:29Z</time>
      </trkpt>
      <trkpt lat="45.37445" lon="2.97236">
        <ele>1185.2</ele>
        <time>2021-08-24T15:43:31Z</time>
      </trkpt>
      <trkpt lat="45.37451" lon="2.9724">
        <ele>1184.7</ele>
        <time>2021-08-24T15:43:33Z</time>
      </trkpt>
      <trkpt lat="45.37456" lon="2.97245">
        <ele>1184.1</ele>
        <time>2021-08-24T15:43:35Z</time>
      </trkpt>
      <trkpt lat="45.3746" lon="2.97251">
        <ele>1183.6</ele>
        <time>2021-08-24T15:43:37Z</time>
      </trkpt>
      <trkpt lat="45.37465" lon="2.97257">
        <ele>1183.3</ele>
        <time>2021-08-24T15:43:39Z</time>
      </trkpt>
      <trkpt lat="45.37469" lon="2.97264">
        <ele>1182.9</ele>
        <time>2021-08-24T15:43:41Z</time>
      </trkpt>
      <trkpt lat="45.37473" lon="2.97271">
        <ele>1182.5</ele>
        <time>2021-08-24T15:43:43Z</time>
      </trkpt>
      <trkpt lat="45.37477" lon="2.97277">
        <ele>1182.1</ele>
        <time>2021-08-24T15:43:45Z</time>
      </trkpt>
      <trkpt lat="45.37481" lon="2.97284">
        <ele>1181.7</ele>
        <time>2021-08-24T15:43:47Z</time>
      </trkpt>
      <trkpt lat="45.37485" lon="2.97291">
        <ele>1181.2</ele>
        <time>2021-08-24T15:43:49Z</time>
      </trkpt>
      <trkpt lat="45.37489" lon="2.97298">
        <ele>1180.8</ele>
        <time>2021-08-24T15:43:51Z</time>
      </trkpt>
      <trkpt lat="45.37493" lon="2.97305">
        <ele>1180.4</ele>
        <time>2021-08-24T15:43:53Z</time>
      </trkpt>
      <trkpt lat="45.37497" lon="2.97312">
        <ele>1179.9</ele>
        <time>2021-08-24T15:43:55Z</time>
      </trkpt>
      <trkpt lat="45.37502" lon="2.97318">
        <ele>1179.4</ele>
        <time>2021-08-24T15:43:57Z</time>
      </trkpt>
      <trkpt lat="45.37507" lon="2.97325">
        <ele>1178.8</ele>
        <time>2021-08-24T15:43:59Z</time>
      </trkpt>
      <trkpt lat="45.37513" lon="2.97331">
        <ele>1178.2</ele>
        <time>2021-08-24T15:44:01Z</time>
      </trkpt>
      <trkpt lat="45.37518" lon="2.97336">
        <ele>1177.9</ele>
        <time>2021-08-24T15:44:03Z</time>
      </trkpt>
      <trkpt lat="45.37524" lon="2.9734">
        <ele>1177.8</ele>
        <time>2021-08-24T15:44:05Z</time>
      </trkpt>
      <trkpt lat="45.37531" lon="2.97342">
        <ele>1177.8</ele>
        <time>2021-08-24T15:44:07Z</time>
      </trkpt>
      <trkpt lat="45.37537" lon="2.97342">
        <ele>1177.8</ele>
        <time>2021-08-24T15:44:09Z</time>
      </trkpt>
      <trkpt lat="45.37545" lon="2.97339">
        <ele>1177.9</ele>
        <time>2021-08-24T15:44:11Z</time>
      </trkpt>
      <trkpt lat="45.37553" lon="2.97334">
        <ele>1178</ele>
        <time>2021-08-24T15:44:13Z</time>
      </trkpt>
      <trkpt lat="45.37562" lon="2.97326">
        <ele>1178.5</ele>
        <time>2021-08-24T15:44:15Z</time>
      </trkpt>
      <trkpt lat="45.37573" lon="2.97316">
        <ele>1178.9</ele>
        <time>2021-08-24T15:44:17Z</time>
      </trkpt>
      <trkpt lat="45.37585" lon="2.97308">
        <ele>1179.2</ele>
        <time>2021-08-24T15:44:19Z</time>
      </trkpt>
      <trkpt lat="45.37598" lon="2.97304">
        <ele>1179.2</ele>
        <time>2021-08-24T15:44:21Z</time>
      </trkpt>
      <trkpt lat="45.37611" lon="2.97303">
        <ele>1179</ele>
        <time>2021-08-24T15:44:23Z</time>
      </trkpt>
      <trkpt lat="45.37623" lon="2.97301">
        <ele>1178.9</ele>
        <time>2021-08-24T15:44:25Z</time>
      </trkpt>
      <trkpt lat="45.37635" lon="2.97298">
        <ele>1178.8</ele>
        <time>2021-08-24T15:44:27Z</time>
      </trkpt>
      <trkpt lat="45.37648" lon="2.97302">
        <ele>1178.4</ele>
        <time>2021-08-24T15:44:29Z</time>
      </trkpt>
      <trkpt lat="45.37661" lon="2.9731">
        <ele>1177.9</ele>
        <time>2021-08-24T15:44:31Z</time>
      </trkpt>
      <trkpt lat="45.37673" lon="2.97321">
        <ele>1177</ele>
        <time>2021-08-24T15:44:33Z</time>
      </trkpt>
      <trkpt lat="45.37684" lon="2.9733">
        <ele>1175.8</ele>
        <time>2021-08-24T15:44:35Z</time>
      </trkpt>
      <trkpt lat="45.37697" lon="2.97337">
        <ele>1174.7</ele>
        <time>2021-08-24T15:44:37Z</time>
      </trkpt>
      <trkpt lat="45.3771" lon="2.97343">
        <ele>1173.7</ele>
        <time>2021-08-24T15:44:39Z</time>
      </trkpt>
      <trkpt lat="45.37723" lon="2.97339">
        <ele>1172.8</ele>
        <time>2021-08-24T15:44:41Z</time>
      </trkpt>
      <trkpt lat="45.37734" lon="2.97326">
        <ele>1172.2</ele>
        <time>2021-08-24T15:44:43Z</time>
      </trkpt>
      <trkpt lat="45.37743" lon="2.9731">
        <ele>1171.6</ele>
        <time>2021-08-24T15:44:45Z</time>
      </trkpt>
      <trkpt lat="45.3775" lon="2.9729">
        <ele>1171</ele>
        <time>2021-08-24T15:44:47Z</time>
      </trkpt>
      <trkpt lat="45.37755" lon="2.97267">
        <ele>1170</ele>
        <time>2021-08-24T15:44:49Z</time>
      </trkpt>
      <trkpt lat="45.37759" lon="2.97243">
        <ele>1169</ele>
        <time>2021-08-24T15:44:51Z</time>
      </trkpt>
      <trkpt lat="45.37762" lon="2.97219">
        <ele>1167.8</ele>
        <time>2021-08-24T15:44:53Z</time>
      </trkpt>
      <trkpt lat="45.37764" lon="2.97195">
        <ele>1166.7</ele>
        <time>2021-08-24T15:44:55Z</time>
      </trkpt>
      <trkpt lat="45.37767" lon="2.97175">
        <ele>1165.6</ele>
        <time>2021-08-24T15:44:57Z</time>
      </trkpt>
      <trkpt lat="45.37771" lon="2.97155">
        <ele>1165.5</ele>
        <time>2021-08-24T15:44:59Z</time>
      </trkpt>
      <trkpt lat="45.37775" lon="2.97134">
        <ele>1166.3</ele>
        <time>2021-08-24T15:45:01Z</time>
      </trkpt>
      <trkpt lat="45.37781" lon="2.97116">
        <ele>1166.3</ele>
        <time>2021-08-24T15:45:03Z</time>
      </trkpt>
      <trkpt lat="45.3779" lon="2.971">
        <ele>1165.6</ele>
        <time>2021-08-24T15:45:05Z</time>
      </trkpt>
      <trkpt lat="45.37801" lon="2.97087">
        <ele>1164.4</ele>
        <time>2021-08-24T15:45:07Z</time>
      </trkpt>
      <trkpt lat="45.3781" lon="2.97077">
        <ele>1163.4</ele>
        <time>2021-08-24T15:45:09Z</time>
      </trkpt>
      <trkpt lat="45.37819" lon="2.97066">
        <ele>1162.8</ele>
        <time>2021-08-24T15:45:11Z</time>
      </trkpt>
      <trkpt lat="45.37827" lon="2.97056">
        <ele>1162.2</ele>
        <time>2021-08-24T15:45:13Z</time>
      </trkpt>
      <trkpt lat="45.37834" lon="2.97048">
        <ele>1161.7</ele>
        <time>2021-08-24T15:45:15Z</time>
      </trkpt>
      <trkpt lat="45.37841" lon="2.97039">
        <ele>1161.4</ele>
        <time>2021-08-24T15:45:17Z</time>
      </trkpt>
      <trkpt lat="45.37849" lon="2.9703">
        <ele>1161</ele>
        <time>2021-08-24T15:45:19Z</time>
      </trkpt>
      <trkpt lat="45.37856" lon="2.97021">
        <ele>1160.5</ele>
        <time>2021-08-24T15:45:21Z</time>
      </trkpt>
      <trkpt lat="45.37862" lon="2.97011">
        <ele>1160.2</ele>
        <time>2021-08-24T15:45:23Z</time>
      </trkpt>
      <trkpt lat="45.37868" lon="2.97001">
        <ele>1159.9</ele>
        <time>2021-08-24T15:45:25Z</time>
      </trkpt>
      <trkpt lat="45.37873" lon="2.96991">
        <ele>1159.4</ele>
        <time>2021-08-24T15:45:27Z</time>
      </trkpt>
      <trkpt lat="45.37878" lon="2.96979">
        <ele>1159</ele>
        <time>2021-08-24T15:45:29Z</time>
      </trkpt>
      <trkpt lat="45.37882" lon="2.96968">
        <ele>1158.7</ele>
        <time>2021-08-24T15:45:31Z</time>
      </trkpt>
      <trkpt lat="45.37887" lon="2.96956">
        <ele>1158.4</ele>
        <time>2021-08-24T15:45:33Z</time>
      </trkpt>
      <trkpt lat="45.37892" lon="2.96945">
        <ele>1158.3</ele>
        <time>2021-08-24T15:45:35Z</time>
      </trkpt>
      <trkpt lat="45.37896" lon="2.96934">
        <ele>1158.2</ele>
        <time>2021-08-24T15:45:37Z</time>
      </trkpt>
      <trkpt lat="45.379" lon="2.96924">
        <ele>1158.2</ele>
        <time>2021-08-24T15:45:39Z</time>
      </trkpt>
      <trkpt lat="45.37903" lon="2.96914">
        <ele>1158.1</ele>
        <time>2021-08-24T15:45:41Z</time>
      </trkpt>
      <trkpt lat="45.37907" lon="2.96906">
        <ele>1157.5</ele>
        <time>2021-08-24T15:45:43Z</time>
      </trkpt>
      <trkpt lat="45.3791" lon="2.969">
        <ele>1157</ele>
        <time>2021-08-24T15:45:45Z</time>
      </trkpt>
      <trkpt lat="45.37914" lon="2.96894">
        <ele>1156.3</ele>
        <time>2021-08-24T15:45:47Z</time>
      </trkpt>
      <trkpt lat="45.37918" lon="2.96888">
        <ele>1156</ele>
        <time>2021-08-24T15:45:49Z</time>
      </trkpt>
      <trkpt lat="45.3792" lon="2.96882">
        <ele>1156</ele>
        <time>2021-08-24T15:45:51Z</time>
      </trkpt>
      <trkpt lat="45.37918" lon="2.96876">
        <ele>1156</ele>
        <time>2021-08-24T15:45:53Z</time>
      </trkpt>
      <trkpt lat="45.37915" lon="2.96875">
        <ele>1156.2</ele>
        <time>2021-08-24T15:45:55Z</time>
      </trkpt>
      <trkpt lat="45.37915" lon="2.96875">
        <ele>1156.2</ele>
        <time>2021-08-24T15:45:57Z</time>
      </trkpt>
      <trkpt lat="45.37915" lon="2.96876">
        <ele>1156.2</ele>
        <time>2021-08-24T15:45:59Z</time>
      </trkpt>
      <trkpt lat="45.37915" lon="2.96876">
        <ele>1156.2</ele>
        <time>2021-08-24T15:46:01Z</time>
      </trkpt>
      <trkpt lat="45.37915" lon="2.96876">
        <ele>1156.2</ele>
        <time>2021-08-24T15:46:03Z</time>
      </trkpt>
      <trkpt lat="45.37898" lon="2.96865">
        <ele>1158.8</ele>
        <time>2021-08-24T15:46:17Z</time>
      </trkpt>
      <trkpt lat="45.37891" lon="2.96861">
        <ele>1159.8</ele>
        <time>2021-08-24T15:46:19Z</time>
      </trkpt>
      <trkpt lat="45.37886" lon="2.96856">
        <ele>1160.6</ele>
        <time>2021-08-24T15:46:21Z</time>
      </trkpt>
      <trkpt lat="45.37881" lon="2.9685">
        <ele>1161.2</ele>
        <time>2021-08-24T15:46:23Z</time>
      </trkpt>
      <trkpt lat="45.37876" lon="2.96841">
        <ele>1161.9</ele>
        <time>2021-08-24T15:46:25Z</time>
      </trkpt>
      <trkpt lat="45.37872" lon="2.96832">
        <ele>1162.3</ele>
        <time>2021-08-24T15:46:27Z</time>
      </trkpt>
      <trkpt lat="45.37869" lon="2.96822">
        <ele>1162.2</ele>
        <time>2021-08-24T15:46:29Z</time>
      </trkpt>
      <trkpt lat="45.37865" lon="2.96813">
        <ele>1162.1</ele>
        <time>2021-08-24T15:46:31Z</time>
      </trkpt>
      <trkpt lat="45.37862" lon="2.96804">
        <ele>1161.9</ele>
        <time>2021-08-24T15:46:33Z</time>
      </trkpt>
      <trkpt lat="45.37859" lon="2.96795">
        <ele>1161.7</ele>
        <time>2021-08-24T15:46:35Z</time>
      </trkpt>
      <trkpt lat="45.37855" lon="2.96787">
        <ele>1161.4</ele>
        <time>2021-08-24T15:46:37Z</time>
      </trkpt>
      <trkpt lat="45.37852" lon="2.96779">
        <ele>1161.2</ele>
        <time>2021-08-24T15:46:39Z</time>
      </trkpt>
      <trkpt lat="45.37848" lon="2.96773">
        <ele>1161</ele>
        <time>2021-08-24T15:46:41Z</time>
      </trkpt>
      <trkpt lat="45.37845" lon="2.96766">
        <ele>1160.7</ele>
        <time>2021-08-24T15:46:43Z</time>
      </trkpt>
      <trkpt lat="45.37841" lon="2.9676">
        <ele>1160.4</ele>
        <time>2021-08-24T15:46:45Z</time>
      </trkpt>
      <trkpt lat="45.37838" lon="2.96755">
        <ele>1160.1</ele>
        <time>2021-08-24T15:46:47Z</time>
      </trkpt>
      <trkpt lat="45.37834" lon="2.96748">
        <ele>1159.9</ele>
        <time>2021-08-24T15:46:49Z</time>
      </trkpt>
      <trkpt lat="45.3783" lon="2.96741">
        <ele>1160.4</ele>
        <time>2021-08-24T15:46:51Z</time>
      </trkpt>
      <trkpt lat="45.37825" lon="2.96734">
        <ele>1161</ele>
        <time>2021-08-24T15:46:53Z</time>
      </trkpt>
      <trkpt lat="45.37821" lon="2.96724">
        <ele>1161.6</ele>
        <time>2021-08-24T15:46:55Z</time>
      </trkpt>
      <trkpt lat="45.37817" lon="2.96713">
        <ele>1161.7</ele>
        <time>2021-08-24T15:46:57Z</time>
      </trkpt>
      <trkpt lat="45.37816" lon="2.967">
        <ele>1161.5</ele>
        <time>2021-08-24T15:46:59Z</time>
      </trkpt>
      <trkpt lat="45.37817" lon="2.96688">
        <ele>1160.9</ele>
        <time>2021-08-24T15:47:01Z</time>
      </trkpt>
      <trkpt lat="45.37817" lon="2.96677">
        <ele>1160.5</ele>
        <time>2021-08-24T15:47:03Z</time>
      </trkpt>
      <trkpt lat="45.37818" lon="2.96669">
        <ele>1160</ele>
        <time>2021-08-24T15:47:05Z</time>
      </trkpt>
      <trkpt lat="45.37819" lon="2.96662">
        <ele>1159.9</ele>
        <time>2021-08-24T15:47:07Z</time>
      </trkpt>
      <trkpt lat="45.3782" lon="2.96654">
        <ele>1159.9</ele>
        <time>2021-08-24T15:47:09Z</time>
      </trkpt>
      <trkpt lat="45.3782" lon="2.96647">
        <ele>1159.9</ele>
        <time>2021-08-24T15:47:11Z</time>
      </trkpt>
      <trkpt lat="45.37821" lon="2.9664">
        <ele>1159.9</ele>
        <time>2021-08-24T15:47:13Z</time>
      </trkpt>
      <trkpt lat="45.37821" lon="2.96633">
        <ele>1160</ele>
        <time>2021-08-24T15:47:15Z</time>
      </trkpt>
      <trkpt lat="45.3782" lon="2.96626">
        <ele>1160.2</ele>
        <time>2021-08-24T15:47:17Z</time>
      </trkpt>
      <trkpt lat="45.37819" lon="2.96618">
        <ele>1160.4</ele>
        <time>2021-08-24T15:47:19Z</time>
      </trkpt>
      <trkpt lat="45.37818" lon="2.96611">
        <ele>1160.6</ele>
        <time>2021-08-24T15:47:21Z</time>
      </trkpt>
      <trkpt lat="45.37817" lon="2.96604">
        <ele>1160.8</ele>
        <time>2021-08-24T15:47:23Z</time>
      </trkpt>
      <trkpt lat="45.37816" lon="2.96597">
        <ele>1161</ele>
        <time>2021-08-24T15:47:25Z</time>
      </trkpt>
      <trkpt lat="45.37815" lon="2.9659">
        <ele>1161.1</ele>
        <time>2021-08-24T15:47:27Z</time>
      </trkpt>
      <trkpt lat="45.37815" lon="2.96583">
        <ele>1161.2</ele>
        <time>2021-08-24T15:47:29Z</time>
      </trkpt>
      <trkpt lat="45.37815" lon="2.96576">
        <ele>1161.3</ele>
        <time>2021-08-24T15:47:31Z</time>
      </trkpt>
      <trkpt lat="45.37815" lon="2.96569">
        <ele>1161.3</ele>
        <time>2021-08-24T15:47:33Z</time>
      </trkpt>
      <trkpt lat="45.37815" lon="2.96563">
        <ele>1161.3</ele>
        <time>2021-08-24T15:47:35Z</time>
      </trkpt>
      <trkpt lat="45.37814" lon="2.96557">
        <ele>1161.5</ele>
        <time>2021-08-24T15:47:37Z</time>
      </trkpt>
      <trkpt lat="45.37813" lon="2.96551">
        <ele>1161.7</ele>
        <time>2021-08-24T15:47:39Z</time>
      </trkpt>
      <trkpt lat="45.37812" lon="2.96545">
        <ele>1161.9</ele>
        <time>2021-08-24T15:47:41Z</time>
      </trkpt>
      <trkpt lat="45.3781" lon="2.96539">
        <ele>1162.3</ele>
        <time>2021-08-24T15:47:43Z</time>
      </trkpt>
      <trkpt lat="45.37808" lon="2.96533">
        <ele>1162.6</ele>
        <time>2021-08-24T15:47:45Z</time>
      </trkpt>
      <trkpt lat="45.37806" lon="2.96526">
        <ele>1162.9</ele>
        <time>2021-08-24T15:47:47Z</time>
      </trkpt>
      <trkpt lat="45.37804" lon="2.9652">
        <ele>1163.3</ele>
        <time>2021-08-24T15:47:49Z</time>
      </trkpt>
      <trkpt lat="45.37803" lon="2.96513">
        <ele>1163.6</ele>
        <time>2021-08-24T15:47:51Z</time>
      </trkpt>
      <trkpt lat="45.37801" lon="2.96507">
        <ele>1164</ele>
        <time>2021-08-24T15:47:53Z</time>
      </trkpt>
      <trkpt lat="45.37798" lon="2.965">
        <ele>1164.4</ele>
        <time>2021-08-24T15:47:55Z</time>
      </trkpt>
      <trkpt lat="45.37796" lon="2.96494">
        <ele>1164.8</ele>
        <time>2021-08-24T15:47:57Z</time>
      </trkpt>
      <trkpt lat="45.37794" lon="2.96488">
        <ele>1165.1</ele>
        <time>2021-08-24T15:47:59Z</time>
      </trkpt>
      <trkpt lat="45.37792" lon="2.96481">
        <ele>1165.4</ele>
        <time>2021-08-24T15:48:01Z</time>
      </trkpt>
      <trkpt lat="45.3779" lon="2.96474">
        <ele>1165.8</ele>
        <time>2021-08-24T15:48:03Z</time>
      </trkpt>
      <trkpt lat="45.37787" lon="2.96468">
        <ele>1166.3</ele>
        <time>2021-08-24T15:48:05Z</time>
      </trkpt>
      <trkpt lat="45.37785" lon="2.96462">
        <ele>1166.7</ele>
        <time>2021-08-24T15:48:07Z</time>
      </trkpt>
      <trkpt lat="45.37782" lon="2.96456">
        <ele>1167.2</ele>
        <time>2021-08-24T15:48:09Z</time>
      </trkpt>
      <trkpt lat="45.3778" lon="2.9645">
        <ele>1167.7</ele>
        <time>2021-08-24T15:48:11Z</time>
      </trkpt>
      <trkpt lat="45.37778" lon="2.96443">
        <ele>1168.1</ele>
        <time>2021-08-24T15:48:13Z</time>
      </trkpt>
      <trkpt lat="45.37776" lon="2.96437">
        <ele>1168.6</ele>
        <time>2021-08-24T15:48:15Z</time>
      </trkpt>
      <trkpt lat="45.37773" lon="2.96431">
        <ele>1169.1</ele>
        <time>2021-08-24T15:48:17Z</time>
      </trkpt>
      <trkpt lat="45.37771" lon="2.96425">
        <ele>1169.6</ele>
        <time>2021-08-24T15:48:19Z</time>
      </trkpt>
      <trkpt lat="45.37769" lon="2.96419">
        <ele>1170.1</ele>
        <time>2021-08-24T15:48:21Z</time>
      </trkpt>
      <trkpt lat="45.37767" lon="2.96412">
        <ele>1170.4</ele>
        <time>2021-08-24T15:48:23Z</time>
      </trkpt>
      <trkpt lat="45.37765" lon="2.96406">
        <ele>1170.5</ele>
        <time>2021-08-24T15:48:25Z</time>
      </trkpt>
      <trkpt lat="45.37762" lon="2.964">
        <ele>1170.6</ele>
        <time>2021-08-24T15:48:27Z</time>
      </trkpt>
      <trkpt lat="45.3776" lon="2.96394">
        <ele>1170.7</ele>
        <time>2021-08-24T15:48:29Z</time>
      </trkpt>
      <trkpt lat="45.37758" lon="2.96388">
        <ele>1170.9</ele>
        <time>2021-08-24T15:48:31Z</time>
      </trkpt>
      <trkpt lat="45.37756" lon="2.96382">
        <ele>1170.9</ele>
        <time>2021-08-24T15:48:33Z</time>
      </trkpt>
      <trkpt lat="45.37753" lon="2.96377">
        <ele>1171.1</ele>
        <time>2021-08-24T15:48:35Z</time>
      </trkpt>
      <trkpt lat="45.3775" lon="2.96371">
        <ele>1171.2</ele>
        <time>2021-08-24T15:48:37Z</time>
      </trkpt>
      <trkpt lat="45.37748" lon="2.96364">
        <ele>1171.3</ele>
        <time>2021-08-24T15:48:39Z</time>
      </trkpt>
      <trkpt lat="45.37746" lon="2.96358">
        <ele>1171.6</ele>
        <time>2021-08-24T15:48:41Z</time>
      </trkpt>
      <trkpt lat="45.37743" lon="2.96353">
        <ele>1172.1</ele>
        <time>2021-08-24T15:48:43Z</time>
      </trkpt>
      <trkpt lat="45.37741" lon="2.96347">
        <ele>1172.1</ele>
        <time>2021-08-24T15:48:45Z</time>
      </trkpt>
      <trkpt lat="45.37739" lon="2.96341">
        <ele>1172.4</ele>
        <time>2021-08-24T15:48:47Z</time>
      </trkpt>
      <trkpt lat="45.37738" lon="2.96336">
        <ele>1172.6</ele>
        <time>2021-08-24T15:48:49Z</time>
      </trkpt>
      <trkpt lat="45.37736" lon="2.9633">
        <ele>1172.9</ele>
        <time>2021-08-24T15:48:51Z</time>
      </trkpt>
      <trkpt lat="45.37734" lon="2.96325">
        <ele>1173.3</ele>
        <time>2021-08-24T15:48:53Z</time>
      </trkpt>
      <trkpt lat="45.37732" lon="2.9632">
        <ele>1173.7</ele>
        <time>2021-08-24T15:48:55Z</time>
      </trkpt>
      <trkpt lat="45.37731" lon="2.96314">
        <ele>1174</ele>
        <time>2021-08-24T15:48:57Z</time>
      </trkpt>
      <trkpt lat="45.37729" lon="2.96309">
        <ele>1174.3</ele>
        <time>2021-08-24T15:48:59Z</time>
      </trkpt>
      <trkpt lat="45.37727" lon="2.96304">
        <ele>1174.8</ele>
        <time>2021-08-24T15:49:01Z</time>
      </trkpt>
      <trkpt lat="45.37725" lon="2.96299">
        <ele>1175.3</ele>
        <time>2021-08-24T15:49:03Z</time>
      </trkpt>
      <trkpt lat="45.37723" lon="2.96294">
        <ele>1175.7</ele>
        <time>2021-08-24T15:49:05Z</time>
      </trkpt>
      <trkpt lat="45.37722" lon="2.96288">
        <ele>1175.9</ele>
        <time>2021-08-24T15:49:07Z</time>
      </trkpt>
      <trkpt lat="45.37721" lon="2.96283">
        <ele>1176.2</ele>
        <time>2021-08-24T15:49:09Z</time>
      </trkpt>
      <trkpt lat="45.37719" lon="2.96278">
        <ele>1176.6</ele>
        <time>2021-08-24T15:49:11Z</time>
      </trkpt>
      <trkpt lat="45.37718" lon="2.96273">
        <ele>1177</ele>
        <time>2021-08-24T15:49:13Z</time>
      </trkpt>
      <trkpt lat="45.37716" lon="2.96268">
        <ele>1177.3</ele>
        <time>2021-08-24T15:49:15Z</time>
      </trkpt>
      <trkpt lat="45.37715" lon="2.96263">
        <ele>1177.6</ele>
        <time>2021-08-24T15:49:17Z</time>
      </trkpt>
      <trkpt lat="45.37713" lon="2.96258">
        <ele>1178.1</ele>
        <time>2021-08-24T15:49:19Z</time>
      </trkpt>
      <trkpt lat="45.37712" lon="2.96254">
        <ele>1178.5</ele>
        <time>2021-08-24T15:49:21Z</time>
      </trkpt>
      <trkpt lat="45.3771" lon="2.96248">
        <ele>1178.9</ele>
        <time>2021-08-24T15:49:23Z</time>
      </trkpt>
      <trkpt lat="45.37708" lon="2.96243">
        <ele>1179.3</ele>
        <time>2021-08-24T15:49:25Z</time>
      </trkpt>
      <trkpt lat="45.37707" lon="2.96239">
        <ele>1179.5</ele>
        <time>2021-08-24T15:49:27Z</time>
      </trkpt>
      <trkpt lat="45.37705" lon="2.96233">
        <ele>1179.8</ele>
        <time>2021-08-24T15:49:29Z</time>
      </trkpt>
      <trkpt lat="45.37704" lon="2.96228">
        <ele>1180.1</ele>
        <time>2021-08-24T15:49:31Z</time>
      </trkpt>
      <trkpt lat="45.37702" lon="2.96223">
        <ele>1180.7</ele>
        <time>2021-08-24T15:49:33Z</time>
      </trkpt>
      <trkpt lat="45.377" lon="2.96217">
        <ele>1181.2</ele>
        <time>2021-08-24T15:49:35Z</time>
      </trkpt>
      <trkpt lat="45.37698" lon="2.96211">
        <ele>1181.7</ele>
        <time>2021-08-24T15:49:37Z</time>
      </trkpt>
      <trkpt lat="45.37696" lon="2.96205">
        <ele>1182.1</ele>
        <time>2021-08-24T15:49:39Z</time>
      </trkpt>
      <trkpt lat="45.37694" lon="2.96199">
        <ele>1182.6</ele>
        <time>2021-08-24T15:49:41Z</time>
      </trkpt>
      <trkpt lat="45.37691" lon="2.96194">
        <ele>1183.3</ele>
        <time>2021-08-24T15:49:43Z</time>
      </trkpt>
      <trkpt lat="45.37689" lon="2.96188">
        <ele>1183.8</ele>
        <time>2021-08-24T15:49:45Z</time>
      </trkpt>
      <trkpt lat="45.37688" lon="2.96182">
        <ele>1184.1</ele>
        <time>2021-08-24T15:49:47Z</time>
      </trkpt>
      <trkpt lat="45.37686" lon="2.96177">
        <ele>1184.5</ele>
        <time>2021-08-24T15:49:49Z</time>
      </trkpt>
      <trkpt lat="45.37684" lon="2.96171">
        <ele>1185.1</ele>
        <time>2021-08-24T15:49:51Z</time>
      </trkpt>
      <trkpt lat="45.37682" lon="2.96166">
        <ele>1185.5</ele>
        <time>2021-08-24T15:49:53Z</time>
      </trkpt>
      <trkpt lat="45.37681" lon="2.9616">
        <ele>1185.8</ele>
        <time>2021-08-24T15:49:55Z</time>
      </trkpt>
      <trkpt lat="45.3768" lon="2.96154">
        <ele>1186.1</ele>
        <time>2021-08-24T15:49:57Z</time>
      </trkpt>
      <trkpt lat="45.37678" lon="2.96149">
        <ele>1186.6</ele>
        <time>2021-08-24T15:49:59Z</time>
      </trkpt>
      <trkpt lat="45.37677" lon="2.96143">
        <ele>1186.8</ele>
        <time>2021-08-24T15:50:01Z</time>
      </trkpt>
      <trkpt lat="45.37675" lon="2.96137">
        <ele>1187</ele>
        <time>2021-08-24T15:50:03Z</time>
      </trkpt>
      <trkpt lat="45.37674" lon="2.96132">
        <ele>1187.2</ele>
        <time>2021-08-24T15:50:05Z</time>
      </trkpt>
      <trkpt lat="45.37673" lon="2.96126">
        <ele>1187.3</ele>
        <time>2021-08-24T15:50:07Z</time>
      </trkpt>
      <trkpt lat="45.37672" lon="2.96121">
        <ele>1187.6</ele>
        <time>2021-08-24T15:50:09Z</time>
      </trkpt>
      <trkpt lat="45.3767" lon="2.96115">
        <ele>1187.9</ele>
        <time>2021-08-24T15:50:11Z</time>
      </trkpt>
      <trkpt lat="45.37669" lon="2.9611">
        <ele>1188.2</ele>
        <time>2021-08-24T15:50:13Z</time>
      </trkpt>
      <trkpt lat="45.37668" lon="2.96105">
        <ele>1188.3</ele>
        <time>2021-08-24T15:50:15Z</time>
      </trkpt>
      <trkpt lat="45.37667" lon="2.961">
        <ele>1188.4</ele>
        <time>2021-08-24T15:50:17Z</time>
      </trkpt>
      <trkpt lat="45.37666" lon="2.96096">
        <ele>1188.5</ele>
        <time>2021-08-24T15:50:19Z</time>
      </trkpt>
      <trkpt lat="45.37666" lon="2.96091">
        <ele>1188.6</ele>
        <time>2021-08-24T15:50:21Z</time>
      </trkpt>
      <trkpt lat="45.37665" lon="2.96085">
        <ele>1188.9</ele>
        <time>2021-08-24T15:50:23Z</time>
      </trkpt>
      <trkpt lat="45.37663" lon="2.96081">
        <ele>1189.2</ele>
        <time>2021-08-24T15:50:25Z</time>
      </trkpt>
      <trkpt lat="45.37662" lon="2.96078">
        <ele>1189.6</ele>
        <time>2021-08-24T15:50:27Z</time>
      </trkpt>
      <trkpt lat="45.37661" lon="2.96072">
        <ele>1189.7</ele>
        <time>2021-08-24T15:50:29Z</time>
      </trkpt>
      <trkpt lat="45.37659" lon="2.96068">
        <ele>1189.8</ele>
        <time>2021-08-24T15:50:31Z</time>
      </trkpt>
      <trkpt lat="45.37657" lon="2.96064">
        <ele>1190.4</ele>
        <time>2021-08-24T15:50:33Z</time>
      </trkpt>
      <trkpt lat="45.37656" lon="2.96059">
        <ele>1190.5</ele>
        <time>2021-08-24T15:50:35Z</time>
      </trkpt>
      <trkpt lat="45.37654" lon="2.96052">
        <ele>1190.7</ele>
        <time>2021-08-24T15:50:37Z</time>
      </trkpt>
      <trkpt lat="45.37652" lon="2.96046">
        <ele>1191.1</ele>
        <time>2021-08-24T15:50:39Z</time>
      </trkpt>
      <trkpt lat="45.3765" lon="2.9604">
        <ele>1191.2</ele>
        <time>2021-08-24T15:50:41Z</time>
      </trkpt>
      <trkpt lat="45.37649" lon="2.96034">
        <ele>1191.2</ele>
        <time>2021-08-24T15:50:43Z</time>
      </trkpt>
      <trkpt lat="45.37647" lon="2.96027">
        <ele>1191.2</ele>
        <time>2021-08-24T15:50:45Z</time>
      </trkpt>
      <trkpt lat="45.37645" lon="2.96019">
        <ele>1191.4</ele>
        <time>2021-08-24T15:50:47Z</time>
      </trkpt>
      <trkpt lat="45.37642" lon="2.96012">
        <ele>1191.7</ele>
        <time>2021-08-24T15:50:49Z</time>
      </trkpt>
      <trkpt lat="45.37639" lon="2.96004">
        <ele>1191.9</ele>
        <time>2021-08-24T15:50:51Z</time>
      </trkpt>
      <trkpt lat="45.37636" lon="2.95995">
        <ele>1191.8</ele>
        <time>2021-08-24T15:50:53Z</time>
      </trkpt>
      <trkpt lat="45.37632" lon="2.95986">
        <ele>1191.1</ele>
        <time>2021-08-24T15:50:55Z</time>
      </trkpt>
      <trkpt lat="45.37628" lon="2.95977">
        <ele>1190.5</ele>
        <time>2021-08-24T15:50:57Z</time>
      </trkpt>
      <trkpt lat="45.37624" lon="2.95969">
        <ele>1190.2</ele>
        <time>2021-08-24T15:50:59Z</time>
      </trkpt>
      <trkpt lat="45.37617" lon="2.95963">
        <ele>1190.8</ele>
        <time>2021-08-24T15:51:01Z</time>
      </trkpt>
      <trkpt lat="45.3761" lon="2.95958">
        <ele>1191.6</ele>
        <time>2021-08-24T15:51:03Z</time>
      </trkpt>
      <trkpt lat="45.37606" lon="2.95953">
        <ele>1191.9</ele>
        <time>2021-08-24T15:51:05Z</time>
      </trkpt>
      <trkpt lat="45.37598" lon="2.95948">
        <ele>1192.7</ele>
        <time>2021-08-24T15:51:07Z</time>
      </trkpt>
      <trkpt lat="45.37592" lon="2.95942">
        <ele>1192.9</ele>
        <time>2021-08-24T15:51:09Z</time>
      </trkpt>
      <trkpt lat="45.37585" lon="2.95936">
        <ele>1193.3</ele>
        <time>2021-08-24T15:51:11Z</time>
      </trkpt>
      <trkpt lat="45.3758" lon="2.9593">
        <ele>1192.8</ele>
        <time>2021-08-24T15:51:13Z</time>
      </trkpt>
      <trkpt lat="45.37574" lon="2.95924">
        <ele>1192.3</ele>
        <time>2021-08-24T15:51:15Z</time>
      </trkpt>
      <trkpt lat="45.37569" lon="2.95917">
        <ele>1191.7</ele>
        <time>2021-08-24T15:51:17Z</time>
      </trkpt>
      <trkpt lat="45.37564" lon="2.9591">
        <ele>1191</ele>
        <time>2021-08-24T15:51:19Z</time>
      </trkpt>
      <trkpt lat="45.3756" lon="2.95902">
        <ele>1190.3</ele>
        <time>2021-08-24T15:51:21Z</time>
      </trkpt>
      <trkpt lat="45.37555" lon="2.95894">
        <ele>1189.9</ele>
        <time>2021-08-24T15:51:23Z</time>
      </trkpt>
      <trkpt lat="45.37551" lon="2.95888">
        <ele>1189.6</ele>
        <time>2021-08-24T15:51:25Z</time>
      </trkpt>
      <trkpt lat="45.37547" lon="2.95882">
        <ele>1189.4</ele>
        <time>2021-08-24T15:51:27Z</time>
      </trkpt>
      <trkpt lat="45.37541" lon="2.95877">
        <ele>1189.7</ele>
        <time>2021-08-24T15:51:29Z</time>
      </trkpt>
      <trkpt lat="45.37537" lon="2.9587">
        <ele>1189.4</ele>
        <time>2021-08-24T15:51:31Z</time>
      </trkpt>
      <trkpt lat="45.37531" lon="2.95867">
        <ele>1190.3</ele>
        <time>2021-08-24T15:51:33Z</time>
      </trkpt>
      <trkpt lat="45.37527" lon="2.95863">
        <ele>1190.6</ele>
        <time>2021-08-24T15:51:35Z</time>
      </trkpt>
      <trkpt lat="45.37521" lon="2.9586">
        <ele>1191.4</ele>
        <time>2021-08-24T15:51:37Z</time>
      </trkpt>
      <trkpt lat="45.37517" lon="2.95856">
        <ele>1191.9</ele>
        <time>2021-08-24T15:51:39Z</time>
      </trkpt>
      <trkpt lat="45.37512" lon="2.95852">
        <ele>1192.4</ele>
        <time>2021-08-24T15:51:41Z</time>
      </trkpt>
      <trkpt lat="45.37508" lon="2.95848">
        <ele>1192.9</ele>
        <time>2021-08-24T15:51:43Z</time>
      </trkpt>
      <trkpt lat="45.37504" lon="2.95844">
        <ele>1193.4</ele>
        <time>2021-08-24T15:51:45Z</time>
      </trkpt>
      <trkpt lat="45.37499" lon="2.9584">
        <ele>1193.9</ele>
        <time>2021-08-24T15:51:47Z</time>
      </trkpt>
      <trkpt lat="45.37495" lon="2.95837">
        <ele>1193.4</ele>
        <time>2021-08-24T15:51:49Z</time>
      </trkpt>
      <trkpt lat="45.37491" lon="2.95832">
        <ele>1192.6</ele>
        <time>2021-08-24T15:51:51Z</time>
      </trkpt>
      <trkpt lat="45.37486" lon="2.95827">
        <ele>1191.8</ele>
        <time>2021-08-24T15:51:53Z</time>
      </trkpt>
      <trkpt lat="45.37482" lon="2.95821">
        <ele>1190.9</ele>
        <time>2021-08-24T15:51:55Z</time>
      </trkpt>
      <trkpt lat="45.37478" lon="2.95816">
        <ele>1190.1</ele>
        <time>2021-08-24T15:51:57Z</time>
      </trkpt>
      <trkpt lat="45.37474" lon="2.9581">
        <ele>1189.1</ele>
        <time>2021-08-24T15:51:59Z</time>
      </trkpt>
      <trkpt lat="45.37471" lon="2.95803">
        <ele>1188.2</ele>
        <time>2021-08-24T15:52:01Z</time>
      </trkpt>
      <trkpt lat="45.37467" lon="2.95797">
        <ele>1187.4</ele>
        <time>2021-08-24T15:52:03Z</time>
      </trkpt>
      <trkpt lat="45.37464" lon="2.9579">
        <ele>1186.6</ele>
        <time>2021-08-24T15:52:05Z</time>
      </trkpt>
      <trkpt lat="45.3746" lon="2.95783">
        <ele>1185.8</ele>
        <time>2021-08-24T15:52:07Z</time>
      </trkpt>
      <trkpt lat="45.37457" lon="2.95776">
        <ele>1185</ele>
        <time>2021-08-24T15:52:09Z</time>
      </trkpt>
      <trkpt lat="45.37454" lon="2.95768">
        <ele>1184.2</ele>
        <time>2021-08-24T15:52:11Z</time>
      </trkpt>
      <trkpt lat="45.37452" lon="2.95761">
        <ele>1183.5</ele>
        <time>2021-08-24T15:52:13Z</time>
      </trkpt>
      <trkpt lat="45.3745" lon="2.95755">
        <ele>1182.8</ele>
        <time>2021-08-24T15:52:15Z</time>
      </trkpt>
      <trkpt lat="45.37449" lon="2.9575">
        <ele>1182.3</ele>
        <time>2021-08-24T15:52:17Z</time>
      </trkpt>
      <trkpt lat="45.37449" lon="2.95747">
        <ele>1182</ele>
        <time>2021-08-24T15:52:19Z</time>
      </trkpt>
      <trkpt lat="45.37449" lon="2.95744">
        <ele>1181.7</ele>
        <time>2021-08-24T15:52:21Z</time>
      </trkpt>
      <trkpt lat="45.37449" lon="2.95743">
        <ele>1181.5</ele>
        <time>2021-08-24T15:52:23Z</time>
      </trkpt>
      <trkpt lat="45.37449" lon="2.95743">
        <ele>1181.6</ele>
        <time>2021-08-24T15:52:25Z</time>
      </trkpt>
      <trkpt lat="45.37449" lon="2.95743">
        <ele>1181.5</ele>
        <time>2021-08-24T15:52:27Z</time>
      </trkpt>
    </trkseg>
      <trkpt lat="45.37457" lon="2.95722">
        <ele>1178.7</ele>
        <time>2021-08-25T07:56:23Z</time>
      </trkpt>
      <trkpt lat="45.37458" lon="2.95716">
        <ele>1178</ele>
        <time>2021-08-25T07:56:25Z</time>
      </trkpt>
      <trkpt lat="45.37458" lon="2.95708">
        <ele>1177.2</ele>
        <time>2021-08-25T07:56:27Z</time>
      </trkpt>
      <trkpt lat="45.37458" lon="2.95698">
        <ele>1176.3</ele>
        <time>2021-08-25T07:56:29Z</time>
      </trkpt>
      <trkpt lat="45.37457" lon="2.95687">
        <ele>1175.2</ele>
        <time>2021-08-25T07:56:31Z</time>
      </trkpt>
      <trkpt lat="45.37455" lon="2.95675">
        <ele>1174.1</ele>
        <time>2021-08-25T07:56:33Z</time>
      </trkpt>
      <trkpt lat="45.3745" lon="2.95663">
        <ele>1173.5</ele>
        <time>2021-08-25T07:56:35Z</time>
      </trkpt>
      <trkpt lat="45.37442" lon="2.95654">
        <ele>1173.9</ele>
        <time>2021-08-25T07:56:37Z</time>
      </trkpt>
      <trkpt lat="45.37431" lon="2.95647">
        <ele>1174.3</ele>
        <time>2021-08-25T07:56:39Z</time>
      </trkpt>
      <trkpt lat="45.37417" lon="2.95643">
        <ele>1174.7</ele>
        <time>2021-08-25T07:56:41Z</time>
      </trkpt>
      <trkpt lat="45.37402" lon="2.95645">
        <ele>1174.3</ele>
        <time>2021-08-25T07:56:43Z</time>
      </trkpt>
      <trkpt lat="45.37391" lon="2.95655">
        <ele>1173.8</ele>
        <time>2021-08-25T07:56:45Z</time>
      </trkpt>
      <trkpt lat="45.37382" lon="2.95669">
        <ele>1173.5</ele>
        <time>2021-08-25T07:56:47Z</time>
      </trkpt>
      <trkpt lat="45.37374" lon="2.95679">
        <ele>1173.9</ele>
        <time>2021-08-25T07:56:49Z</time>
      </trkpt>
      <trkpt lat="45.37365" lon="2.95677">
        <ele>1173.3</ele>
        <time>2021-08-25T07:56:51Z</time>
      </trkpt>
      <trkpt lat="45.37362" lon="2.95663">
        <ele>1172.5</ele>
        <time>2021-08-25T07:56:53Z</time>
      </trkpt>
      <trkpt lat="45.37367" lon="2.95645">
        <ele>1173.1</ele>
        <time>2021-08-25T07:56:55Z</time>
      </trkpt>
      <trkpt lat="45.37369" lon="2.95623">
        <ele>1173.7</ele>
        <time>2021-08-25T07:56:57Z</time>
      </trkpt>
      <trkpt lat="45.37368" lon="2.95605">
        <ele>1174.1</ele>
        <time>2021-08-25T07:56:59Z</time>
      </trkpt>
      <trkpt lat="45.37367" lon="2.95594">
        <ele>1174.3</ele>
        <time>2021-08-25T07:57:01Z</time>
      </trkpt>
      <trkpt lat="45.37366" lon="2.95588">
        <ele>1174.5</ele>
        <time>2021-08-25T07:57:03Z</time>
      </trkpt>
      <trkpt lat="45.37365" lon="2.95585">
        <ele>1174.6</ele>
        <time>2021-08-25T07:57:05Z</time>
      </trkpt>
      <trkpt lat="45.37364" lon="2.95581">
        <ele>1174.9</ele>
        <time>2021-08-25T07:57:07Z</time>
      </trkpt>
      <trkpt lat="45.37362" lon="2.95578">
        <ele>1175.4</ele>
        <time>2021-08-25T07:57:09Z</time>
      </trkpt>
      <trkpt lat="45.3736" lon="2.95575">
        <ele>1176</ele>
        <time>2021-08-25T07:57:11Z</time>
      </trkpt>
      <trkpt lat="45.37358" lon="2.95571">
        <ele>1176.5</ele>
        <time>2021-08-25T07:57:13Z</time>
      </trkpt>
      <trkpt lat="45.37356" lon="2.95568">
        <ele>1177.1</ele>
        <time>2021-08-25T07:57:15Z</time>
      </trkpt>
      <trkpt lat="45.37354" lon="2.95565">
        <ele>1177.5</ele>
        <time>2021-08-25T07:57:17Z</time>
      </trkpt>
      <trkpt lat="45.37352" lon="2.95562">
        <ele>1177.9</ele>
        <time>2021-08-25T07:57:19Z</time>
      </trkpt>
      <trkpt lat="45.3735" lon="2.95557">
        <ele>1178.7</ele>
        <time>2021-08-25T07:57:21Z</time>
      </trkpt>
      <trkpt lat="45.37347" lon="2.95554">
        <ele>1179.2</ele>
        <time>2021-08-25T07:57:23Z</time>
      </trkpt>
      <trkpt lat="45.37346" lon="2.95553">
        <ele>1179.3</ele>
        <time>2021-08-25T07:57:25Z</time>
      </trkpt>
      <trkpt lat="45.37347" lon="2.95553">
        <ele>1179.3</ele>
        <time>2021-08-25T07:57:27Z</time>
      </trkpt>
      <trkpt lat="45.37346" lon="2.95553">
        <ele>1179.3</ele>
        <time>2021-08-25T07:57:29Z</time>
      </trkpt>
      <trkpt lat="45.37346" lon="2.95553">
        <ele>1179.4</ele>
        <time>2021-08-25T07:57:31Z</time>
      </trkpt>
      <trkpt lat="45.37345" lon="2.95552">
        <ele>1179.4</ele>
        <time>2021-08-25T07:57:33Z</time>
      </trkpt>
      <trkpt lat="45.37335" lon="2.95542">
        <ele>1180.9</ele>
        <time>2021-08-25T07:59:03Z</time>
      </trkpt>
      <trkpt lat="45.37336" lon="2.95537">
        <ele>1181.7</ele>
        <time>2021-08-25T07:59:05Z</time>
      </trkpt>
      <trkpt lat="45.37338" lon="2.95532">
        <ele>1182.4</ele>
        <time>2021-08-25T07:59:07Z</time>
      </trkpt>
      <trkpt lat="45.3734" lon="2.95528">
        <ele>1183</ele>
        <time>2021-08-25T07:59:09Z</time>
      </trkpt>
      <trkpt lat="45.37344" lon="2.95526">
        <ele>1183.3</ele>
        <time>2021-08-25T07:59:11Z</time>
      </trkpt>
      <trkpt lat="45.37347" lon="2.95525">
        <ele>1183.4</ele>
        <time>2021-08-25T07:59:13Z</time>
      </trkpt>
      <trkpt lat="45.37351" lon="2.95523">
        <ele>1183.8</ele>
        <time>2021-08-25T07:59:15Z</time>
      </trkpt>
      <trkpt lat="45.37353" lon="2.95521">
        <ele>1184.2</ele>
        <time>2021-08-25T07:59:17Z</time>
      </trkpt>
      <trkpt lat="45.37356" lon="2.95518">
        <ele>1184.5</ele>
        <time>2021-08-25T07:59:19Z</time>
      </trkpt>
      <trkpt lat="45.3736" lon="2.95517">
        <ele>1184.7</ele>
        <time>2021-08-25T07:59:21Z</time>
      </trkpt>
      <trkpt lat="45.37363" lon="2.95516">
        <ele>1184.9</ele>
        <time>2021-08-25T07:59:23Z</time>
      </trkpt>
      <trkpt lat="45.37366" lon="2.95514">
        <ele>1185.2</ele>
        <time>2021-08-25T07:59:25Z</time>
      </trkpt>
      <trkpt lat="45.37369" lon="2.95513">
        <ele>1185.5</ele>
        <time>2021-08-25T07:59:27Z</time>
      </trkpt>
      <trkpt lat="45.37372" lon="2.95512">
        <ele>1185.7</ele>
        <time>2021-08-25T07:59:29Z</time>
      </trkpt>
      <trkpt lat="45.37375" lon="2.9551">
        <ele>1186</ele>
        <time>2021-08-25T07:59:31Z</time>
      </trkpt>
      <trkpt lat="45.37378" lon="2.95507">
        <ele>1186.4</ele>
        <time>2021-08-25T07:59:33Z</time>
      </trkpt>
      <trkpt lat="45.3738" lon="2.95505">
        <ele>1186.8</ele>
        <time>2021-08-25T07:59:35Z</time>
      </trkpt>
      <trkpt lat="45.37383" lon="2.95503">
        <ele>1187.1</ele>
        <time>2021-08-25T07:59:37Z</time>
      </trkpt>
      <trkpt lat="45.37386" lon="2.95502">
        <ele>1187.3</ele>
        <time>2021-08-25T07:59:39Z</time>
      </trkpt>
      <trkpt lat="45.37388" lon="2.955">
        <ele>1187.6</ele>
        <time>2021-08-25T07:59:41Z</time>
      </trkpt>
      <trkpt lat="45.37391" lon="2.95498">
        <ele>1188.2</ele>
        <time>2021-08-25T07:59:43Z</time>
      </trkpt>
      <trkpt lat="45.37393" lon="2.95496">
        <ele>1188.9</ele>
        <time>2021-08-25T07:59:45Z</time>
      </trkpt>
      <trkpt lat="45.37395" lon="2.95493">
        <ele>1189.6</ele>
        <time>2021-08-25T07:59:47Z</time>
      </trkpt>
      <trkpt lat="45.37397" lon="2.95491">
        <ele>1190.4</ele>
        <time>2021-08-25T07:59:49Z</time>
      </trkpt>
      <trkpt lat="45.374" lon="2.95489">
        <ele>1190.9</ele>
        <time>2021-08-25T07:59:51Z</time>
      </trkpt>
      <trkpt lat="45.37402" lon="2.95486">
        <ele>1191.7</ele>
        <time>2021-08-25T07:59:53Z</time>
      </trkpt>
      <trkpt lat="45.37404" lon="2.95485">
        <ele>1192</ele>
        <time>2021-08-25T07:59:55Z</time>
      </trkpt>
      <trkpt lat="45.37406" lon="2.95485">
        <ele>1192.2</ele>
        <time>2021-08-25T07:59:57Z</time>
      </trkpt>
      <trkpt lat="45.37408" lon="2.95483">
        <ele>1192.6</ele>
        <time>2021-08-25T07:59:59Z</time>
      </trkpt>
      <trkpt lat="45.37411" lon="2.95482">
        <ele>1193</ele>
        <time>2021-08-25T08:00:01Z</time>
      </trkpt>
      <trkpt lat="45.37413" lon="2.95481">
        <ele>1193.4</ele>
        <time>2021-08-25T08:00:03Z</time>
      </trkpt>
      <trkpt lat="45.37416" lon="2.9548">
        <ele>1193.7</ele>
        <time>2021-08-25T08:00:05Z</time>
      </trkpt>
      <trkpt lat="45.37419" lon="2.9548">
        <ele>1193.9</ele>
        <time>2021-08-25T08:00:07Z</time>
      </trkpt>
      <trkpt lat="45.37422" lon="2.95479">
        <ele>1194.4</ele>
        <time>2021-08-25T08:00:09Z</time>
      </trkpt>
      <trkpt lat="45.37425" lon="2.95478">
        <ele>1194.7</ele>
        <time>2021-08-25T08:00:11Z</time>
      </trkpt>
      <trkpt lat="45.37428" lon="2.95478">
        <ele>1194.8</ele>
        <time>2021-08-25T08:00:13Z</time>
      </trkpt>
      <trkpt lat="45.37431" lon="2.95478">
        <ele>1194.9</ele>
        <time>2021-08-25T08:00:15Z</time>
      </trkpt>
      <trkpt lat="45.37434" lon="2.95479">
        <ele>1194.7</ele>
        <time>2021-08-25T08:00:17Z</time>
      </trkpt>
      <trkpt lat="45.37437" lon="2.95479">
        <ele>1194.8</ele>
        <time>2021-08-25T08:00:19Z</time>
      </trkpt>
      <trkpt lat="45.3744" lon="2.9548">
        <ele>1194.9</ele>
        <time>2021-08-25T08:00:21Z</time>
      </trkpt>
      <trkpt lat="45.37443" lon="2.9548">
        <ele>1194.8</ele>
        <time>2021-08-25T08:00:23Z</time>
      </trkpt>
      <trkpt lat="45.37446" lon="2.9548">
        <ele>1194.9</ele>
        <time>2021-08-25T08:00:25Z</time>
      </trkpt>
      <trkpt lat="45.37449" lon="2.95482">
        <ele>1194.7</ele>
        <time>2021-08-25T08:00:27Z</time>
      </trkpt>
      <trkpt lat="45.37452" lon="2.95482">
        <ele>1194.7</ele>
        <time>2021-08-25T08:00:29Z</time>
      </trkpt>
      <trkpt lat="45.37455" lon="2.95483">
        <ele>1194.5</ele>
        <time>2021-08-25T08:00:31Z</time>
      </trkpt>
      <trkpt lat="45.37458" lon="2.95484">
        <ele>1194.4</ele>
        <time>2021-08-25T08:00:33Z</time>
      </trkpt>
      <trkpt lat="45.3746" lon="2.95485">
        <ele>1194.4</ele>
        <time>2021-08-25T08:00:35Z</time>
      </trkpt>
      <trkpt lat="45.37463" lon="2.95486">
        <ele>1194.3</ele>
        <time>2021-08-25T08:00:37Z</time>
      </trkpt>
      <trkpt lat="45.37466" lon="2.95487">
        <ele>1194.2</ele>
        <time>2021-08-25T08:00:39Z</time>
      </trkpt>
      <trkpt lat="45.37469" lon="2.95487">
        <ele>1194.3</ele>
        <time>2021-08-25T08:00:41Z</time>
      </trkpt>
      <trkpt lat="45.37472" lon="2.95487">
        <ele>1194.5</ele>
        <time>2021-08-25T08:00:43Z</time>
      </trkpt>
      <trkpt lat="45.37475" lon="2.95486">
        <ele>1194.8</ele>
        <time>2021-08-25T08:00:45Z</time>
      </trkpt>
      <trkpt lat="45.37478" lon="2.95486">
        <ele>1194.9</ele>
        <time>2021-08-25T08:00:47Z</time>
      </trkpt>
      <trkpt lat="45.37481" lon="2.95485">
        <ele>1195.3</ele>
        <time>2021-08-25T08:00:49Z</time>
      </trkpt>
      <trkpt lat="45.37484" lon="2.95484">
        <ele>1195.7</ele>
        <time>2021-08-25T08:00:51Z</time>
      </trkpt>
      <trkpt lat="45.37487" lon="2.95484">
        <ele>1195.9</ele>
        <time>2021-08-25T08:00:53Z</time>
      </trkpt>
      <trkpt lat="45.3749" lon="2.95482">
        <ele>1196.4</ele>
        <time>2021-08-25T08:00:55Z</time>
      </trkpt>
      <trkpt lat="45.37493" lon="2.9548">
        <ele>1196.9</ele>
        <time>2021-08-25T08:00:57Z</time>
      </trkpt>
      <trkpt lat="45.37495" lon="2.95479">
        <ele>1197.4</ele>
        <time>2021-08-25T08:00:59Z</time>
      </trkpt>
      <trkpt lat="45.37498" lon="2.95477">
        <ele>1197.9</ele>
        <time>2021-08-25T08:01:01Z</time>
      </trkpt>
      <trkpt lat="45.37501" lon="2.95475">
        <ele>1198.4</ele>
        <time>2021-08-25T08:01:03Z</time>
      </trkpt>
      <trkpt lat="45.37504" lon="2.95473">
        <ele>1198.7</ele>
        <time>2021-08-25T08:01:05Z</time>
      </trkpt>
      <trkpt lat="45.37507" lon="2.95471">
        <ele>1199</ele>
        <time>2021-08-25T08:01:07Z</time>
      </trkpt>
      <trkpt lat="45.37509" lon="2.95468">
        <ele>1199.5</ele>
        <time>2021-08-25T08:01:09Z</time>
      </trkpt>
      <trkpt lat="45.37512" lon="2.95467">
        <ele>1199.8</ele>
        <time>2021-08-25T08:01:11Z</time>
      </trkpt>
      <trkpt lat="45.37515" lon="2.95465">
        <ele>1200.1</ele>
        <time>2021-08-25T08:01:13Z</time>
      </trkpt>
      <trkpt lat="45.37517" lon="2.95462">
        <ele>1200.5</ele>
        <time>2021-08-25T08:01:15Z</time>
      </trkpt>
      <trkpt lat="45.3752" lon="2.9546">
        <ele>1200.8</ele>
        <time>2021-08-25T08:01:17Z</time>
      </trkpt>
      <trkpt lat="45.37522" lon="2.95458">
        <ele>1201.2</ele>
        <time>2021-08-25T08:01:19Z</time>
      </trkpt>
      <trkpt lat="45.37525" lon="2.95455">
        <ele>1201.7</ele>
        <time>2021-08-25T08:01:21Z</time>
      </trkpt>
      <trkpt lat="45.37527" lon="2.95453">
        <ele>1202.1</ele>
        <time>2021-08-25T08:01:23Z</time>
      </trkpt>
      <trkpt lat="45.3753" lon="2.95451">
        <ele>1202.4</ele>
        <time>2021-08-25T08:01:25Z</time>
      </trkpt>
      <trkpt lat="45.37532" lon="2.95448">
        <ele>1202.8</ele>
        <time>2021-08-25T08:01:27Z</time>
      </trkpt>
      <trkpt lat="45.37534" lon="2.95446">
        <ele>1203.2</ele>
        <time>2021-08-25T08:01:29Z</time>
      </trkpt>
      <trkpt lat="45.37537" lon="2.95443">
        <ele>1203.7</ele>
        <time>2021-08-25T08:01:31Z</time>
      </trkpt>
      <trkpt lat="45.37539" lon="2.95441">
        <ele>1204.1</ele>
        <time>2021-08-25T08:01:33Z</time>
      </trkpt>
      <trkpt lat="45.37541" lon="2.95438">
        <ele>1204.6</ele>
        <time>2021-08-25T08:01:35Z</time>
      </trkpt>
      <trkpt lat="45.37543" lon="2.95435">
        <ele>1205</ele>
        <time>2021-08-25T08:01:37Z</time>
      </trkpt>
      <trkpt lat="45.37545" lon="2.95433">
        <ele>1205.5</ele>
        <time>2021-08-25T08:01:39Z</time>
      </trkpt>
      <trkpt lat="45.37547" lon="2.95429">
        <ele>1206.1</ele>
        <time>2021-08-25T08:01:41Z</time>
      </trkpt>
      <trkpt lat="45.37549" lon="2.95427">
        <ele>1206.5</ele>
        <time>2021-08-25T08:01:43Z</time>
      </trkpt>
      <trkpt lat="45.37552" lon="2.95424">
        <ele>1207</ele>
        <time>2021-08-25T08:01:45Z</time>
      </trkpt>
      <trkpt lat="45.37554" lon="2.95421">
        <ele>1207.5</ele>
        <time>2021-08-25T08:01:47Z</time>
      </trkpt>
      <trkpt lat="45.37556" lon="2.95418">
        <ele>1208</ele>
        <time>2021-08-25T08:01:49Z</time>
      </trkpt>
      <trkpt lat="45.37558" lon="2.95415">
        <ele>1208.5</ele>
        <time>2021-08-25T08:01:51Z</time>
      </trkpt>
      <trkpt lat="45.3756" lon="2.95412">
        <ele>1208.9</ele>
        <time>2021-08-25T08:01:53Z</time>
      </trkpt>
      <trkpt lat="45.37561" lon="2.95408">
        <ele>1209.4</ele>
        <time>2021-08-25T08:01:55Z</time>
      </trkpt>
      <trkpt lat="45.37563" lon="2.95405">
        <ele>1209.9</ele>
        <time>2021-08-25T08:01:57Z</time>
      </trkpt>
      <trkpt lat="45.37566" lon="2.95402">
        <ele>1210.2</ele>
        <time>2021-08-25T08:01:59Z</time>
      </trkpt>
      <trkpt lat="45.37568" lon="2.95399">
        <ele>1210.6</ele>
        <time>2021-08-25T08:02:01Z</time>
      </trkpt>
      <trkpt lat="45.37571" lon="2.95396">
        <ele>1211</ele>
        <time>2021-08-25T08:02:03Z</time>
      </trkpt>
      <trkpt lat="45.37573" lon="2.95393">
        <ele>1211.4</ele>
        <time>2021-08-25T08:02:05Z</time>
      </trkpt>
      <trkpt lat="45.37575" lon="2.95389">
        <ele>1211.9</ele>
        <time>2021-08-25T08:02:07Z</time>
      </trkpt>
      <trkpt lat="45.37577" lon="2.95386">
        <ele>1212.3</ele>
        <time>2021-08-25T08:02:09Z</time>
      </trkpt>
      <trkpt lat="45.37579" lon="2.95382">
        <ele>1212.7</ele>
        <time>2021-08-25T08:02:11Z</time>
      </trkpt>
      <trkpt lat="45.37581" lon="2.95378">
        <ele>1213.2</ele>
        <time>2021-08-25T08:02:13Z</time>
      </trkpt>
      <trkpt lat="45.37583" lon="2.95375">
        <ele>1213.5</ele>
        <time>2021-08-25T08:02:15Z</time>
      </trkpt>
      <trkpt lat="45.37585" lon="2.95372">
        <ele>1214</ele>
        <time>2021-08-25T08:02:17Z</time>
      </trkpt>
      <trkpt lat="45.37587" lon="2.95368">
        <ele>1214.5</ele>
        <time>2021-08-25T08:02:19Z</time>
      </trkpt>
      <trkpt lat="45.37589" lon="2.95365">
        <ele>1214.9</ele>
        <time>2021-08-25T08:02:21Z</time>
      </trkpt>
      <trkpt lat="45.37591" lon="2.95362">
        <ele>1215.4</ele>
        <time>2021-08-25T08:02:23Z</time>
      </trkpt>
      <trkpt lat="45.37593" lon="2.95358">
        <ele>1215.8</ele>
        <time>2021-08-25T08:02:25Z</time>
      </trkpt>
      <trkpt lat="45.37595" lon="2.95355">
        <ele>1216.3</ele>
        <time>2021-08-25T08:02:27Z</time>
      </trkpt>
      <trkpt lat="45.37597" lon="2.95351">
        <ele>1216.8</ele>
        <time>2021-08-25T08:02:29Z</time>
      </trkpt>
      <trkpt lat="45.37599" lon="2.95348">
        <ele>1217.2</ele>
        <time>2021-08-25T08:02:31Z</time>
      </trkpt>
      <trkpt lat="45.37601" lon="2.95344">
        <ele>1217.7</ele>
        <time>2021-08-25T08:02:33Z</time>
      </trkpt>
      <trkpt lat="45.37603" lon="2.95341">
        <ele>1218.2</ele>
        <time>2021-08-25T08:02:35Z</time>
      </trkpt>
      <trkpt lat="45.37605" lon="2.95337">
        <ele>1218.6</ele>
        <time>2021-08-25T08:02:37Z</time>
      </trkpt>
      <trkpt lat="45.37607" lon="2.95334">
        <ele>1219.1</ele>
        <time>2021-08-25T08:02:39Z</time>
      </trkpt>
      <trkpt lat="45.37609" lon="2.9533">
        <ele>1219.5</ele>
        <time>2021-08-25T08:02:41Z</time>
      </trkpt>
      <trkpt lat="45.3761" lon="2.95326">
        <ele>1219.9</ele>
        <time>2021-08-25T08:02:43Z</time>
      </trkpt>
      <trkpt lat="45.37613" lon="2.95323">
        <ele>1220.3</ele>
        <time>2021-08-25T08:02:45Z</time>
      </trkpt>
      <trkpt lat="45.37615" lon="2.95319">
        <ele>1220.7</ele>
        <time>2021-08-25T08:02:47Z</time>
      </trkpt>
      <trkpt lat="45.37616" lon="2.95314">
        <ele>1221.2</ele>
        <time>2021-08-25T08:02:49Z</time>
      </trkpt>
      <trkpt lat="45.37618" lon="2.9531">
        <ele>1221.7</ele>
        <time>2021-08-25T08:02:51Z</time>
      </trkpt>
      <trkpt lat="45.37619" lon="2.95306">
        <ele>1222.1</ele>
        <time>2021-08-25T08:02:53Z</time>
      </trkpt>
      <trkpt lat="45.37621" lon="2.95302">
        <ele>1222.6</ele>
        <time>2021-08-25T08:02:55Z</time>
      </trkpt>
      <trkpt lat="45.37622" lon="2.95297">
        <ele>1223.2</ele>
        <time>2021-08-25T08:02:57Z</time>
      </trkpt>
      <trkpt lat="45.37622" lon="2.95293">
        <ele>1223.7</ele>
        <time>2021-08-25T08:02:59Z</time>
      </trkpt>
      <trkpt lat="45.37623" lon="2.95289">
        <ele>1224.1</ele>
        <time>2021-08-25T08:03:01Z</time>
      </trkpt>
      <trkpt lat="45.37623" lon="2.95285">
        <ele>1224.6</ele>
        <time>2021-08-25T08:03:03Z</time>
      </trkpt>
      <trkpt lat="45.37624" lon="2.95282">
        <ele>1225</ele>
        <time>2021-08-25T08:03:05Z</time>
      </trkpt>
      <trkpt lat="45.37625" lon="2.95278">
        <ele>1225.4</ele>
        <time>2021-08-25T08:03:07Z</time>
      </trkpt>
      <trkpt lat="45.37625" lon="2.95275">
        <ele>1225.9</ele>
        <time>2021-08-25T08:03:09Z</time>
      </trkpt>
      <trkpt lat="45.37625" lon="2.95271">
        <ele>1226.4</ele>
        <time>2021-08-25T08:03:11Z</time>
      </trkpt>
      <trkpt lat="45.37625" lon="2.95267">
        <ele>1226.9</ele>
        <time>2021-08-25T08:03:13Z</time>
      </trkpt>
      <trkpt lat="45.37626" lon="2.95261">
        <ele>1227.5</ele>
        <time>2021-08-25T08:03:15Z</time>
      </trkpt>
      <trkpt lat="45.37626" lon="2.95257">
        <ele>1228.1</ele>
        <time>2021-08-25T08:03:17Z</time>
      </trkpt>
      <trkpt lat="45.37628" lon="2.95253">
        <ele>1228.6</ele>
        <time>2021-08-25T08:03:19Z</time>
      </trkpt>
      <trkpt lat="45.37628" lon="2.95248">
        <ele>1229</ele>
        <time>2021-08-25T08:03:21Z</time>
      </trkpt>
      <trkpt lat="45.37629" lon="2.95243">
        <ele>1229.1</ele>
        <time>2021-08-25T08:03:23Z</time>
      </trkpt>
      <trkpt lat="45.3763" lon="2.95239">
        <ele>1229.3</ele>
        <time>2021-08-25T08:03:25Z</time>
      </trkpt>
      <trkpt lat="45.3763" lon="2.95234">
        <ele>1229.4</ele>
        <time>2021-08-25T08:03:27Z</time>
      </trkpt>
      <trkpt lat="45.37631" lon="2.95229">
        <ele>1229.6</ele>
        <time>2021-08-25T08:03:29Z</time>
      </trkpt>
      <trkpt lat="45.37631" lon="2.95224">
        <ele>1229.7</ele>
        <time>2021-08-25T08:03:31Z</time>
      </trkpt>
      <trkpt lat="45.37632" lon="2.95219">
        <ele>1229.9</ele>
        <time>2021-08-25T08:03:33Z</time>
      </trkpt>
      <trkpt lat="45.37633" lon="2.95214">
        <ele>1230</ele>
        <time>2021-08-25T08:03:35Z</time>
      </trkpt>
      <trkpt lat="45.37633" lon="2.95209">
        <ele>1230.2</ele>
        <time>2021-08-25T08:03:37Z</time>
      </trkpt>
      <trkpt lat="45.37634" lon="2.95204">
        <ele>1230.3</ele>
        <time>2021-08-25T08:03:39Z</time>
      </trkpt>
      <trkpt lat="45.37635" lon="2.95199">
        <ele>1230.4</ele>
        <time>2021-08-25T08:03:41Z</time>
      </trkpt>
      <trkpt lat="45.37636" lon="2.95195">
        <ele>1230.6</ele>
        <time>2021-08-25T08:03:43Z</time>
      </trkpt>
      <trkpt lat="45.37637" lon="2.9519">
        <ele>1230.7</ele>
        <time>2021-08-25T08:03:45Z</time>
      </trkpt>
      <trkpt lat="45.37638" lon="2.95185">
        <ele>1230.8</ele>
        <time>2021-08-25T08:03:47Z</time>
      </trkpt>
      <trkpt lat="45.37639" lon="2.9518">
        <ele>1230.9</ele>
        <time>2021-08-25T08:03:49Z</time>
      </trkpt>
      <trkpt lat="45.3764" lon="2.95175">
        <ele>1231</ele>
        <time>2021-08-25T08:03:51Z</time>
      </trkpt>
      <trkpt lat="45.37641" lon="2.9517">
        <ele>1231.1</ele>
        <time>2021-08-25T08:03:53Z</time>
      </trkpt>
      <trkpt lat="45.37642" lon="2.95166">
        <ele>1231.2</ele>
        <time>2021-08-25T08:03:55Z</time>
      </trkpt>
      <trkpt lat="45.37643" lon="2.95161">
        <ele>1231</ele>
        <time>2021-08-25T08:03:57Z</time>
      </trkpt>
      <trkpt lat="45.37645" lon="2.95156">
        <ele>1230.8</ele>
        <time>2021-08-25T08:03:59Z</time>
      </trkpt>
      <trkpt lat="45.37646" lon="2.95152">
        <ele>1230.6</ele>
        <time>2021-08-25T08:04:01Z</time>
      </trkpt>
      <trkpt lat="45.37648" lon="2.95148">
        <ele>1230.4</ele>
        <time>2021-08-25T08:04:03Z</time>
      </trkpt>
      <trkpt lat="45.3765" lon="2.95144">
        <ele>1230.1</ele>
        <time>2021-08-25T08:04:05Z</time>
      </trkpt>
      <trkpt lat="45.37652" lon="2.95139">
        <ele>1229.8</ele>
        <time>2021-08-25T08:04:07Z</time>
      </trkpt>
      <trkpt lat="45.37654" lon="2.95134">
        <ele>1229.5</ele>
        <time>2021-08-25T08:04:09Z</time>
      </trkpt>
      <trkpt lat="45.37657" lon="2.9513">
        <ele>1229.1</ele>
        <time>2021-08-25T08:04:11Z</time>
      </trkpt>
      <trkpt lat="45.3766" lon="2.95127">
        <ele>1228.7</ele>
        <time>2021-08-25T08:04:13Z</time>
      </trkpt>
      <trkpt lat="45.37662" lon="2.95123">
        <ele>1228.4</ele>
        <time>2021-08-25T08:04:15Z</time>
      </trkpt>
      <trkpt lat="45.37664" lon="2.9512">
        <ele>1228</ele>
        <time>2021-08-25T08:04:17Z</time>
      </trkpt>
      <trkpt lat="45.37666" lon="2.95117">
        <ele>1227.7</ele>
        <time>2021-08-25T08:04:19Z</time>
      </trkpt>
      <trkpt lat="45.37668" lon="2.95113">
        <ele>1227.3</ele>
        <time>2021-08-25T08:04:21Z</time>
      </trkpt>
      <trkpt lat="45.37668" lon="2.95109">
        <ele>1227.1</ele>
        <time>2021-08-25T08:04:23Z</time>
      </trkpt>
      <trkpt lat="45.37668" lon="2.95104">
        <ele>1226.8</ele>
        <time>2021-08-25T08:04:25Z</time>
      </trkpt>
      <trkpt lat="45.37669" lon="2.95101">
        <ele>1226.6</ele>
        <time>2021-08-25T08:04:27Z</time>
      </trkpt>
      <trkpt lat="45.37669" lon="2.95102">
        <ele>1226.6</ele>
        <time>2021-08-25T08:04:29Z</time>
      </trkpt>
      <trkpt lat="45.37669" lon="2.95102">
        <ele>1226.6</ele>
        <time>2021-08-25T08:04:31Z</time>
      </trkpt>
      <trkpt lat="45.37669" lon="2.95102">
        <ele>1226.6</ele>
        <time>2021-08-25T08:04:33Z</time>
      </trkpt>
      <trkpt lat="45.37669" lon="2.95101">
        <ele>1226.6</ele>
        <time>2021-08-25T08:04:35Z</time>
      </trkpt>
      <trkpt lat="45.37682" lon="2.95095">
        <ele>1224.9</ele>
        <time>2021-08-25T08:05:25Z</time>
      </trkpt>
      <trkpt lat="45.37685" lon="2.95093">
        <ele>1224.5</ele>
        <time>2021-08-25T08:05:27Z</time>
      </trkpt>
      <trkpt lat="45.37687" lon="2.95091">
        <ele>1224.1</ele>
        <time>2021-08-25T08:05:29Z</time>
      </trkpt>
      <trkpt lat="45.3769" lon="2.95088">
        <ele>1223.7</ele>
        <time>2021-08-25T08:05:31Z</time>
      </trkpt>
      <trkpt lat="45.37694" lon="2.95085">
        <ele>1223.1</ele>
        <time>2021-08-25T08:05:33Z</time>
      </trkpt>
      <trkpt lat="45.37697" lon="2.95082">
        <ele>1222.7</ele>
        <time>2021-08-25T08:05:35Z</time>
      </trkpt>
      <trkpt lat="45.37701" lon="2.95079">
        <ele>1222.2</ele>
        <time>2021-08-25T08:05:37Z</time>
      </trkpt>
      <trkpt lat="45.37705" lon="2.95075">
        <ele>1221.7</ele>
        <time>2021-08-25T08:05:39Z</time>
      </trkpt>
      <trkpt lat="45.37708" lon="2.95072">
        <ele>1221.3</ele>
        <time>2021-08-25T08:05:41Z</time>
      </trkpt>
      <trkpt lat="45.37713" lon="2.95068">
        <ele>1220.8</ele>
        <time>2021-08-25T08:05:43Z</time>
      </trkpt>
      <trkpt lat="45.37716" lon="2.95064">
        <ele>1220.4</ele>
        <time>2021-08-25T08:05:45Z</time>
      </trkpt>
      <trkpt lat="45.37721" lon="2.95059">
        <ele>1220</ele>
        <time>2021-08-25T08:05:47Z</time>
      </trkpt>
      <trkpt lat="45.37725" lon="2.95054">
        <ele>1219.7</ele>
        <time>2021-08-25T08:05:49Z</time>
      </trkpt>
      <trkpt lat="45.37727" lon="2.95048">
        <ele>1219.5</ele>
        <time>2021-08-25T08:05:51Z</time>
      </trkpt>
      <trkpt lat="45.37729" lon="2.95045">
        <ele>1219.4</ele>
        <time>2021-08-25T08:05:53Z</time>
      </trkpt>
      <trkpt lat="45.37729" lon="2.9504">
        <ele>1219.4</ele>
        <time>2021-08-25T08:05:55Z</time>
      </trkpt>
      <trkpt lat="45.37729" lon="2.95038">
        <ele>1219.4</ele>
        <time>2021-08-25T08:05:57Z</time>
      </trkpt>
      <trkpt lat="45.37729" lon="2.95039">
        <ele>1219.4</ele>
        <time>2021-08-25T08:05:59Z</time>
      </trkpt>
      <trkpt lat="45.37729" lon="2.95039">
        <ele>1219.4</ele>
        <time>2021-08-25T08:06:01Z</time>
      </trkpt>
      <trkpt lat="45.37729" lon="2.95039">
        <ele>1219.4</ele>
        <time>2021-08-25T08:06:03Z</time>
      </trkpt>
      <trkpt lat="45.37729" lon="2.95039">
        <ele>1219.4</ele>
        <time>2021-08-25T08:06:05Z</time>
      </trkpt>
      <trkpt lat="45.37731" lon="2.95038">
        <ele>1219.3</ele>
        <time>2021-08-25T08:07:23Z</time>
      </trkpt>
      <trkpt lat="45.37731" lon="2.95038">
        <ele>1219.3</ele>
        <time>2021-08-25T08:07:25Z</time>
      </trkpt>
      <trkpt lat="45.37732" lon="2.95036">
        <ele>1219.2</ele>
        <time>2021-08-25T08:07:27Z</time>
      </trkpt>
      <trkpt lat="45.37735" lon="2.95035">
        <ele>1219.1</ele>
        <time>2021-08-25T08:07:29Z</time>
      </trkpt>
      <trkpt lat="45.37737" lon="2.95034">
        <ele>1218.9</ele>
        <time>2021-08-25T08:07:31Z</time>
      </trkpt>
      <trkpt lat="45.3774" lon="2.95032">
        <ele>1218.8</ele>
        <time>2021-08-25T08:07:33Z</time>
      </trkpt>
      <trkpt lat="45.37742" lon="2.9503">
        <ele>1218.7</ele>
        <time>2021-08-25T08:07:35Z</time>
      </trkpt>
      <trkpt lat="45.37744" lon="2.95028">
        <ele>1218.6</ele>
        <time>2021-08-25T08:07:37Z</time>
      </trkpt>
      <trkpt lat="45.37746" lon="2.95025">
        <ele>1218.6</ele>
        <time>2021-08-25T08:07:39Z</time>
      </trkpt>
      <trkpt lat="45.37748" lon="2.95022">
        <ele>1218.6</ele>
        <time>2021-08-25T08:07:41Z</time>
      </trkpt>
      <trkpt lat="45.3775" lon="2.95019">
        <ele>1218.6</ele>
        <time>2021-08-25T08:07:43Z</time>
      </trkpt>
      <trkpt lat="45.3775" lon="2.95019">
        <ele>1218.5</ele>
        <time>2021-08-25T08:07:45Z</time>
      </trkpt>
      <trkpt lat="45.3775" lon="2.9502">
        <ele>1218.6</ele>
        <time>2021-08-25T08:07:47Z</time>
      </trkpt>
      <trkpt lat="45.37749" lon="2.9502">
        <ele>1218.6</ele>
        <time>2021-08-25T08:07:49Z</time>
      </trkpt>
      <trkpt lat="45.37749" lon="2.95019">
        <ele>1218.6</ele>
        <time>2021-08-25T08:07:51Z</time>
      </trkpt>
      <trkpt lat="45.37749" lon="2.95019">
        <ele>1218.6</ele>
        <time>2021-08-25T08:07:53Z</time>
      </trkpt>
      <trkpt lat="45.3775" lon="2.9502">
        <ele>1218.5</ele>
        <time>2021-08-25T08:07:57Z</time>
      </trkpt>
      <trkpt lat="45.3775" lon="2.9502">
        <ele>1218.5</ele>
        <time>2021-08-25T08:07:59Z</time>
      </trkpt>
      <trkpt lat="45.37751" lon="2.95018">
        <ele>1218.7</ele>
        <time>2021-08-25T08:08:01Z</time>
      </trkpt>
      <trkpt lat="45.37753" lon="2.95015">
        <ele>1219.3</ele>
        <time>2021-08-25T08:08:03Z</time>
      </trkpt>
      <trkpt lat="45.37754" lon="2.95011">
        <ele>1219.8</ele>
        <time>2021-08-25T08:08:05Z</time>
      </trkpt>
      <trkpt lat="45.37756" lon="2.95007">
        <ele>1220.3</ele>
        <time>2021-08-25T08:08:07Z</time>
      </trkpt>
      <trkpt lat="45.37758" lon="2.95004">
        <ele>1220.9</ele>
        <time>2021-08-25T08:08:09Z</time>
      </trkpt>
      <trkpt lat="45.3776" lon="2.94999">
        <ele>1221.5</ele>
        <time>2021-08-25T08:08:11Z</time>
      </trkpt>
      <trkpt lat="45.37761" lon="2.94994">
        <ele>1221.7</ele>
        <time>2021-08-25T08:08:13Z</time>
      </trkpt>
      <trkpt lat="45.37761" lon="2.94995">
        <ele>1221.6</ele>
        <time>2021-08-25T08:08:15Z</time>
      </trkpt>
      <trkpt lat="45.37761" lon="2.94995">
        <ele>1221.6</ele>
        <time>2021-08-25T08:08:17Z</time>
      </trkpt>
      <trkpt lat="45.37761" lon="2.94995">
        <ele>1221.7</ele>
        <time>2021-08-25T08:08:19Z</time>
      </trkpt>
      <trkpt lat="45.37761" lon="2.94995">
        <ele>1221.7</ele>
        <time>2021-08-25T08:08:21Z</time>
      </trkpt>
      <trkpt lat="45.37765" lon="2.94983">
        <ele>1222.7</ele>
        <time>2021-08-25T08:12:17Z</time>
      </trkpt>
      <trkpt lat="45.37766" lon="2.9498">
        <ele>1222.8</ele>
        <time>2021-08-25T08:12:19Z</time>
      </trkpt>
      <trkpt lat="45.37766" lon="2.94975">
        <ele>1222.9</ele>
        <time>2021-08-25T08:12:21Z</time>
      </trkpt>
      <trkpt lat="45.37766" lon="2.94971">
        <ele>1222.9</ele>
        <time>2021-08-25T08:12:23Z</time>
      </trkpt>
      <trkpt lat="45.37767" lon="2.94966">
        <ele>1222.9</ele>
        <time>2021-08-25T08:12:25Z</time>
      </trkpt>
      <trkpt lat="45.37767" lon="2.94961">
        <ele>1222.9</ele>
        <time>2021-08-25T08:12:27Z</time>
      </trkpt>
      <trkpt lat="45.37767" lon="2.94955">
        <ele>1222.9</ele>
        <time>2021-08-25T08:12:29Z</time>
      </trkpt>
      <trkpt lat="45.37767" lon="2.94949">
        <ele>1222.9</ele>
        <time>2021-08-25T08:12:31Z</time>
      </trkpt>
      <trkpt lat="45.37767" lon="2.94943">
        <ele>1222.9</ele>
        <time>2021-08-25T08:12:33Z</time>
      </trkpt>
      <trkpt lat="45.37767" lon="2.94938">
        <ele>1223</ele>
        <time>2021-08-25T08:12:35Z</time>
      </trkpt>
      <trkpt lat="45.37768" lon="2.94932">
        <ele>1223</ele>
        <time>2021-08-25T08:12:37Z</time>
      </trkpt>
      <trkpt lat="45.37768" lon="2.94926">
        <ele>1223</ele>
        <time>2021-08-25T08:12:39Z</time>
      </trkpt>
      <trkpt lat="45.37769" lon="2.9492">
        <ele>1223.2</ele>
        <time>2021-08-25T08:12:41Z</time>
      </trkpt>
      <trkpt lat="45.37769" lon="2.94914">
        <ele>1223.2</ele>
        <time>2021-08-25T08:12:43Z</time>
      </trkpt>
      <trkpt lat="45.37769" lon="2.94908">
        <ele>1223.2</ele>
        <time>2021-08-25T08:12:45Z</time>
      </trkpt>
      <trkpt lat="45.3777" lon="2.94902">
        <ele>1223.4</ele>
        <time>2021-08-25T08:12:47Z</time>
      </trkpt>
      <trkpt lat="45.3777" lon="2.94896">
        <ele>1223.5</ele>
        <time>2021-08-25T08:12:49Z</time>
      </trkpt>
      <trkpt lat="45.3777" lon="2.9489">
        <ele>1223.6</ele>
        <time>2021-08-25T08:12:51Z</time>
      </trkpt>
      <trkpt lat="45.37771" lon="2.94884">
        <ele>1223.7</ele>
        <time>2021-08-25T08:12:53Z</time>
      </trkpt>
      <trkpt lat="45.37771" lon="2.94879">
        <ele>1223.9</ele>
        <time>2021-08-25T08:12:55Z</time>
      </trkpt>
      <trkpt lat="45.37772" lon="2.94873">
        <ele>1224</ele>
        <time>2021-08-25T08:12:57Z</time>
      </trkpt>
      <trkpt lat="45.37772" lon="2.94868">
        <ele>1224.1</ele>
        <time>2021-08-25T08:12:59Z</time>
      </trkpt>
      <trkpt lat="45.37773" lon="2.94862">
        <ele>1224.3</ele>
        <time>2021-08-25T08:13:01Z</time>
      </trkpt>
      <trkpt lat="45.37773" lon="2.94857">
        <ele>1224.3</ele>
        <time>2021-08-25T08:13:03Z</time>
      </trkpt>
      <trkpt lat="45.37774" lon="2.94851">
        <ele>1224.5</ele>
        <time>2021-08-25T08:13:05Z</time>
      </trkpt>
      <trkpt lat="45.37774" lon="2.94846">
        <ele>1224.6</ele>
        <time>2021-08-25T08:13:07Z</time>
      </trkpt>
      <trkpt lat="45.37774" lon="2.94841">
        <ele>1224.7</ele>
        <time>2021-08-25T08:13:09Z</time>
      </trkpt>
      <trkpt lat="45.37775" lon="2.94836">
        <ele>1224.8</ele>
        <time>2021-08-25T08:13:11Z</time>
      </trkpt>
      <trkpt lat="45.37775" lon="2.94831">
        <ele>1225</ele>
        <time>2021-08-25T08:13:13Z</time>
      </trkpt>
      <trkpt lat="45.37776" lon="2.94827">
        <ele>1225.2</ele>
        <time>2021-08-25T08:13:15Z</time>
      </trkpt>
      <trkpt lat="45.37776" lon="2.94822">
        <ele>1225.3</ele>
        <time>2021-08-25T08:13:17Z</time>
      </trkpt>
      <trkpt lat="45.37778" lon="2.94818">
        <ele>1225.8</ele>
        <time>2021-08-25T08:13:19Z</time>
      </trkpt>
      <trkpt lat="45.3778" lon="2.94814">
        <ele>1226.4</ele>
        <time>2021-08-25T08:13:21Z</time>
      </trkpt>
      <trkpt lat="45.37782" lon="2.9481">
        <ele>1226.8</ele>
        <time>2021-08-25T08:13:23Z</time>
      </trkpt>
      <trkpt lat="45.37782" lon="2.94806">
        <ele>1226.8</ele>
        <time>2021-08-25T08:13:25Z</time>
      </trkpt>
      <trkpt lat="45.37782" lon="2.94804">
        <ele>1226.9</ele>
        <time>2021-08-25T08:13:27Z</time>
      </trkpt>
      <trkpt lat="45.37783" lon="2.94799">
        <ele>1227.2</ele>
        <time>2021-08-25T08:13:29Z</time>
      </trkpt>
      <trkpt lat="45.37784" lon="2.94795">
        <ele>1227.2</ele>
        <time>2021-08-25T08:13:31Z</time>
      </trkpt>
      <trkpt lat="45.37784" lon="2.9479">
        <ele>1227.2</ele>
        <time>2021-08-25T08:13:33Z</time>
      </trkpt>
      <trkpt lat="45.37784" lon="2.94786">
        <ele>1227.3</ele>
        <time>2021-08-25T08:13:35Z</time>
      </trkpt>
      <trkpt lat="45.37784" lon="2.94783">
        <ele>1227.2</ele>
        <time>2021-08-25T08:13:37Z</time>
      </trkpt>
      <trkpt lat="45.37784" lon="2.94777">
        <ele>1227.1</ele>
        <time>2021-08-25T08:13:39Z</time>
      </trkpt>
      <trkpt lat="45.37784" lon="2.94772">
        <ele>1227.2</ele>
        <time>2021-08-25T08:13:41Z</time>
      </trkpt>
      <trkpt lat="45.37785" lon="2.94768">
        <ele>1227.4</ele>
        <time>2021-08-25T08:13:43Z</time>
      </trkpt>
      <trkpt lat="45.37785" lon="2.94767">
        <ele>1227.4</ele>
        <time>2021-08-25T08:13:45Z</time>
      </trkpt>
      <trkpt lat="45.37785" lon="2.94768">
        <ele>1227.4</ele>
        <time>2021-08-25T08:13:47Z</time>
      </trkpt>
      <trkpt lat="45.37785" lon="2.94768">
        <ele>1227.4</ele>
        <time>2021-08-25T08:13:49Z</time>
      </trkpt>
      <trkpt lat="45.37784" lon="2.94768">
        <ele>1227.3</ele>
        <time>2021-08-25T08:13:51Z</time>
      </trkpt>
      <trkpt lat="45.37785" lon="2.94768">
        <ele>1227.3</ele>
        <time>2021-08-25T08:13:53Z</time>
      </trkpt>
      <trkpt lat="45.37785" lon="2.94768">
        <ele>1227.4</ele>
        <time>2021-08-25T08:13:55Z</time>
      </trkpt>
      <trkpt lat="45.37785" lon="2.94768">
        <ele>1227.3</ele>
        <time>2021-08-25T08:13:57Z</time>
      </trkpt>
      <trkpt lat="45.37784" lon="2.94768">
        <ele>1227.3</ele>
        <time>2021-08-25T08:13:59Z</time>
      </trkpt>
      <trkpt lat="45.37784" lon="2.94768">
        <ele>1227.3</ele>
        <time>2021-08-25T08:14:01Z</time>
      </trkpt>
      <trkpt lat="45.37784" lon="2.94768">
        <ele>1227.3</ele>
        <time>2021-08-25T08:14:03Z</time>
      </trkpt>
      <trkpt lat="45.37784" lon="2.94768">
        <ele>1227.3</ele>
        <time>2021-08-25T08:14:05Z</time>
      </trkpt>
      <trkpt lat="45.37785" lon="2.94766">
        <ele>1227.4</ele>
        <time>2021-08-25T08:14:07Z</time>
      </trkpt>
      <trkpt lat="45.37785" lon="2.94765">
        <ele>1227.4</ele>
        <time>2021-08-25T08:14:09Z</time>
      </trkpt>
      <trkpt lat="45.37785" lon="2.94764">
        <ele>1227.4</ele>
        <time>2021-08-25T08:14:11Z</time>
      </trkpt>
      <trkpt lat="45.37785" lon="2.94764">
        <ele>1227.4</ele>
        <time>2021-08-25T08:14:13Z</time>
      </trkpt>
      <trkpt lat="45.37785" lon="2.94764">
        <ele>1227.4</ele>
        <time>2021-08-25T08:14:15Z</time>
      </trkpt>
      <trkpt lat="45.37785" lon="2.94764">
        <ele>1227.4</ele>
        <time>2021-08-25T08:14:17Z</time>
      </trkpt>
      <trkpt lat="45.37785" lon="2.94764">
        <ele>1227.4</ele>
        <time>2021-08-25T08:14:21Z</time>
      </trkpt>
      <trkpt lat="45.37785" lon="2.94764">
        <ele>1227.4</ele>
        <time>2021-08-25T08:14:23Z</time>
      </trkpt>
      <trkpt lat="45.37785" lon="2.94764">
        <ele>1227.5</ele>
        <time>2021-08-25T08:14:25Z</time>
      </trkpt>
      <trkpt lat="45.37785" lon="2.94764">
        <ele>1227.5</ele>
        <time>2021-08-25T08:14:27Z</time>
      </trkpt>
      <trkpt lat="45.37785" lon="2.94764">
        <ele>1227.5</ele>
        <time>2021-08-25T08:14:29Z</time>
      </trkpt>
      <trkpt lat="45.37785" lon="2.94764">
        <ele>1227.5</ele>
        <time>2021-08-25T08:14:31Z</time>
      </trkpt>
      <trkpt lat="45.37785" lon="2.94764">
        <ele>1227.5</ele>
        <time>2021-08-25T08:14:33Z</time>
      </trkpt>
      <trkpt lat="45.37785" lon="2.94763">
        <ele>1227.5</ele>
        <time>2021-08-25T08:14:35Z</time>
      </trkpt>
      <trkpt lat="45.37785" lon="2.94764">
        <ele>1227.5</ele>
        <time>2021-08-25T08:14:37Z</time>
      </trkpt>
      <trkpt lat="45.37785" lon="2.94764">
        <ele>1227.5</ele>
        <time>2021-08-25T08:14:39Z</time>
      </trkpt>
      <trkpt lat="45.37785" lon="2.94764">
        <ele>1227.5</ele>
        <time>2021-08-25T08:14:41Z</time>
      </trkpt>
      <trkpt lat="45.37785" lon="2.94764">
        <ele>1227.5</ele>
        <time>2021-08-25T08:14:45Z</time>
      </trkpt>
      <trkpt lat="45.37785" lon="2.94764">
        <ele>1227.5</ele>
        <time>2021-08-25T08:14:47Z</time>
      </trkpt>
      <trkpt lat="45.37785" lon="2.94764">
        <ele>1227.4</ele>
        <time>2021-08-25T08:14:49Z</time>
      </trkpt>
      <trkpt lat="45.37785" lon="2.94764">
        <ele>1227.4</ele>
        <time>2021-08-25T08:14:51Z</time>
      </trkpt>
      <trkpt lat="45.37785" lon="2.94764">
        <ele>1227.4</ele>
        <time>2021-08-25T08:14:53Z</time>
      </trkpt>
      <trkpt lat="45.37785" lon="2.94763">
        <ele>1227.5</ele>
        <time>2021-08-25T08:14:55Z</time>
      </trkpt>
      <trkpt lat="45.37785" lon="2.94763">
        <ele>1227.5</ele>
        <time>2021-08-25T08:14:57Z</time>
      </trkpt>
      <trkpt lat="45.37785" lon="2.94763">
        <ele>1227.5</ele>
        <time>2021-08-25T08:14:59Z</time>
      </trkpt>
      <trkpt lat="45.37785" lon="2.94763">
        <ele>1227.5</ele>
        <time>2021-08-25T08:15:01Z</time>
      </trkpt>
      <trkpt lat="45.37785" lon="2.94763">
        <ele>1227.6</ele>
        <time>2021-08-25T08:15:03Z</time>
      </trkpt>
      <trkpt lat="45.37786" lon="2.94762">
        <ele>1227.6</ele>
        <time>2021-08-25T08:15:05Z</time>
      </trkpt>
      <trkpt lat="45.37786" lon="2.94761">
        <ele>1227.7</ele>
        <time>2021-08-25T08:15:07Z</time>
      </trkpt>
      <trkpt lat="45.37786" lon="2.9476">
        <ele>1227.6</ele>
        <time>2021-08-25T08:15:09Z</time>
      </trkpt>
      <trkpt lat="45.37786" lon="2.94759">
        <ele>1227.7</ele>
        <time>2021-08-25T08:15:11Z</time>
      </trkpt>
      <trkpt lat="45.37786" lon="2.94759">
        <ele>1227.7</ele>
        <time>2021-08-25T08:15:13Z</time>
      </trkpt>
      <trkpt lat="45.37786" lon="2.94759">
        <ele>1227.7</ele>
        <time>2021-08-25T08:15:15Z</time>
      </trkpt>
      <trkpt lat="45.37786" lon="2.94759">
        <ele>1227.7</ele>
        <time>2021-08-25T08:15:19Z</time>
      </trkpt>
      <trkpt lat="45.37786" lon="2.94759">
        <ele>1227.8</ele>
        <time>2021-08-25T08:15:21Z</time>
      </trkpt>
      <trkpt lat="45.37786" lon="2.94759">
        <ele>1227.8</ele>
        <time>2021-08-25T08:15:25Z</time>
      </trkpt>
      <trkpt lat="45.37786" lon="2.94759">
        <ele>1227.8</ele>
        <time>2021-08-25T08:15:29Z</time>
      </trkpt>
      <trkpt lat="45.37786" lon="2.94759">
        <ele>1227.8</ele>
        <time>2021-08-25T08:15:33Z</time>
      </trkpt>
      <trkpt lat="45.37786" lon="2.94759">
        <ele>1227.8</ele>
        <time>2021-08-25T08:15:37Z</time>
      </trkpt>
      <trkpt lat="45.37786" lon="2.94759">
        <ele>1227.8</ele>
        <time>2021-08-25T08:15:41Z</time>
      </trkpt>
      <trkpt lat="45.37786" lon="2.94759">
        <ele>1227.8</ele>
        <time>2021-08-25T08:15:45Z</time>
      </trkpt>
      <trkpt lat="45.37786" lon="2.94759">
        <ele>1227.8</ele>
        <time>2021-08-25T08:15:49Z</time>
      </trkpt>
      <trkpt lat="45.37786" lon="2.94759">
        <ele>1227.8</ele>
        <time>2021-08-25T08:15:53Z</time>
      </trkpt>
      <trkpt lat="45.37786" lon="2.94759">
        <ele>1227.8</ele>
        <time>2021-08-25T08:15:57Z</time>
      </trkpt>
      <trkpt lat="45.37786" lon="2.94759">
        <ele>1227.8</ele>
        <time>2021-08-25T08:16:01Z</time>
      </trkpt>
      <trkpt lat="45.37786" lon="2.94759">
        <ele>1227.8</ele>
        <time>2021-08-25T08:16:05Z</time>
      </trkpt>
      <trkpt lat="45.37786" lon="2.94759">
        <ele>1227.8</ele>
        <time>2021-08-25T08:16:09Z</time>
      </trkpt>
      <trkpt lat="45.37786" lon="2.94759">
        <ele>1227.8</ele>
        <time>2021-08-25T08:16:13Z</time>
      </trkpt>
      <trkpt lat="45.37786" lon="2.94759">
        <ele>1227.8</ele>
        <time>2021-08-25T08:16:17Z</time>
      </trkpt>
      <trkpt lat="45.37786" lon="2.94759">
        <ele>1227.8</ele>
        <time>2021-08-25T08:16:21Z</time>
      </trkpt>
      <trkpt lat="45.37786" lon="2.94759">
        <ele>1227.8</ele>
        <time>2021-08-25T08:16:25Z</time>
      </trkpt>
      <trkpt lat="45.37786" lon="2.94759">
        <ele>1227.8</ele>
        <time>2021-08-25T08:16:29Z</time>
      </trkpt>
      <trkpt lat="45.37786" lon="2.94759">
        <ele>1227.8</ele>
        <time>2021-08-25T08:16:33Z</time>
      </trkpt>
      <trkpt lat="45.37786" lon="2.94759">
        <ele>1227.8</ele>
        <time>2021-08-25T08:16:37Z</time>
      </trkpt>
      <trkpt lat="45.37787" lon="2.94759">
        <ele>1227.9</ele>
        <time>2021-08-25T08:16:39Z</time>
      </trkpt>
      <trkpt lat="45.37786" lon="2.94759">
        <ele>1227.7</ele>
        <time>2021-08-25T08:16:41Z</time>
      </trkpt>
      <trkpt lat="45.37786" lon="2.94759">
        <ele>1227.7</ele>
        <time>2021-08-25T08:16:43Z</time>
      </trkpt>
      <trkpt lat="45.37786" lon="2.94758">
        <ele>1227.7</ele>
        <time>2021-08-25T08:16:45Z</time>
      </trkpt>
      <trkpt lat="45.37787" lon="2.94757">
        <ele>1227.8</ele>
        <time>2021-08-25T08:16:47Z</time>
      </trkpt>
      <trkpt lat="45.37787" lon="2.94756">
        <ele>1227.9</ele>
        <time>2021-08-25T08:16:49Z</time>
      </trkpt>
      <trkpt lat="45.37787" lon="2.94754">
        <ele>1227.9</ele>
        <time>2021-08-25T08:16:51Z</time>
      </trkpt>
      <trkpt lat="45.37787" lon="2.94752">
        <ele>1228</ele>
        <time>2021-08-25T08:16:53Z</time>
      </trkpt>
      <trkpt lat="45.37788" lon="2.94751">
        <ele>1228.1</ele>
        <time>2021-08-25T08:16:55Z</time>
      </trkpt>
      <trkpt lat="45.37788" lon="2.94751">
        <ele>1228.1</ele>
        <time>2021-08-25T08:16:57Z</time>
      </trkpt>
      <trkpt lat="45.37788" lon="2.94749">
        <ele>1228.2</ele>
        <time>2021-08-25T08:16:59Z</time>
      </trkpt>
      <trkpt lat="45.37789" lon="2.94747">
        <ele>1228.2</ele>
        <time>2021-08-25T08:17:01Z</time>
      </trkpt>
      <trkpt lat="45.37789" lon="2.94747">
        <ele>1228.2</ele>
        <time>2021-08-25T08:17:03Z</time>
      </trkpt>
      <trkpt lat="45.37789" lon="2.94745">
        <ele>1228.2</ele>
        <time>2021-08-25T08:17:05Z</time>
      </trkpt>
      <trkpt lat="45.37789" lon="2.94744">
        <ele>1228.2</ele>
        <time>2021-08-25T08:17:07Z</time>
      </trkpt>
      <trkpt lat="45.37789" lon="2.94742">
        <ele>1228.3</ele>
        <time>2021-08-25T08:17:09Z</time>
      </trkpt>
      <trkpt lat="45.37789" lon="2.94741">
        <ele>1228.2</ele>
        <time>2021-08-25T08:17:11Z</time>
      </trkpt>
      <trkpt lat="45.37789" lon="2.9474">
        <ele>1228.1</ele>
        <time>2021-08-25T08:17:13Z</time>
      </trkpt>
      <trkpt lat="45.37789" lon="2.94738">
        <ele>1228.1</ele>
        <time>2021-08-25T08:17:15Z</time>
      </trkpt>
      <trkpt lat="45.37789" lon="2.94737">
        <ele>1228.2</ele>
        <time>2021-08-25T08:17:17Z</time>
      </trkpt>
      <trkpt lat="45.37789" lon="2.94736">
        <ele>1228.2</ele>
        <time>2021-08-25T08:17:19Z</time>
      </trkpt>
      <trkpt lat="45.37789" lon="2.94735">
        <ele>1228.2</ele>
        <time>2021-08-25T08:17:21Z</time>
      </trkpt>
      <trkpt lat="45.3779" lon="2.94734">
        <ele>1228.3</ele>
        <time>2021-08-25T08:17:23Z</time>
      </trkpt>
      <trkpt lat="45.3779" lon="2.94733">
        <ele>1228.3</ele>
        <time>2021-08-25T08:17:25Z</time>
      </trkpt>
      <trkpt lat="45.3779" lon="2.94733">
        <ele>1228.2</ele>
        <time>2021-08-25T08:17:27Z</time>
      </trkpt>
      <trkpt lat="45.3779" lon="2.94733">
        <ele>1228.2</ele>
        <time>2021-08-25T08:17:29Z</time>
      </trkpt>
      <trkpt lat="45.3779" lon="2.94732">
        <ele>1228.3</ele>
        <time>2021-08-25T08:17:31Z</time>
      </trkpt>
      <trkpt lat="45.3779" lon="2.94731">
        <ele>1228.4</ele>
        <time>2021-08-25T08:17:33Z</time>
      </trkpt>
      <trkpt lat="45.37791" lon="2.9473">
        <ele>1228.4</ele>
        <time>2021-08-25T08:17:35Z</time>
      </trkpt>
      <trkpt lat="45.37791" lon="2.94728">
        <ele>1228.4</ele>
        <time>2021-08-25T08:17:37Z</time>
      </trkpt>
      <trkpt lat="45.37791" lon="2.94726">
        <ele>1228.5</ele>
        <time>2021-08-25T08:17:39Z</time>
      </trkpt>
      <trkpt lat="45.37791" lon="2.94724">
        <ele>1228.5</ele>
        <time>2021-08-25T08:17:41Z</time>
      </trkpt>
      <trkpt lat="45.37792" lon="2.94723">
        <ele>1228.5</ele>
        <time>2021-08-25T08:17:43Z</time>
      </trkpt>
      <trkpt lat="45.37792" lon="2.94722">
        <ele>1228.6</ele>
        <time>2021-08-25T08:17:45Z</time>
      </trkpt>
      <trkpt lat="45.37792" lon="2.94721">
        <ele>1228.5</ele>
        <time>2021-08-25T08:17:47Z</time>
      </trkpt>
      <trkpt lat="45.37792" lon="2.9472">
        <ele>1228.6</ele>
        <time>2021-08-25T08:17:49Z</time>
      </trkpt>
      <trkpt lat="45.37792" lon="2.9472">
        <ele>1228.5</ele>
        <time>2021-08-25T08:17:51Z</time>
      </trkpt>
      <trkpt lat="45.37792" lon="2.9472">
        <ele>1228.6</ele>
        <time>2021-08-25T08:17:53Z</time>
      </trkpt>
      <trkpt lat="45.37792" lon="2.9472">
        <ele>1228.6</ele>
        <time>2021-08-25T08:17:55Z</time>
      </trkpt>
      <trkpt lat="45.37792" lon="2.94719">
        <ele>1228.5</ele>
        <time>2021-08-25T08:17:57Z</time>
      </trkpt>
      <trkpt lat="45.37792" lon="2.94718">
        <ele>1228.5</ele>
        <time>2021-08-25T08:17:59Z</time>
      </trkpt>
      <trkpt lat="45.37792" lon="2.94718">
        <ele>1228.6</ele>
        <time>2021-08-25T08:18:01Z</time>
      </trkpt>
      <trkpt lat="45.37792" lon="2.94718">
        <ele>1228.6</ele>
        <time>2021-08-25T08:18:03Z</time>
      </trkpt>
      <trkpt lat="45.37792" lon="2.94718">
        <ele>1228.6</ele>
        <time>2021-08-25T08:18:07Z</time>
      </trkpt>
      <trkpt lat="45.37792" lon="2.94718">
        <ele>1228.6</ele>
        <time>2021-08-25T08:18:09Z</time>
      </trkpt>
      <trkpt lat="45.37792" lon="2.94719">
        <ele>1228.6</ele>
        <time>2021-08-25T08:18:11Z</time>
      </trkpt>
      <trkpt lat="45.37792" lon="2.94719">
        <ele>1228.5</ele>
        <time>2021-08-25T08:18:13Z</time>
      </trkpt>
      <trkpt lat="45.37792" lon="2.94719">
        <ele>1228.5</ele>
        <time>2021-08-25T08:18:15Z</time>
      </trkpt>
      <trkpt lat="45.37792" lon="2.94719">
        <ele>1228.6</ele>
        <time>2021-08-25T08:18:17Z</time>
      </trkpt>
      <trkpt lat="45.37792" lon="2.94719">
        <ele>1228.6</ele>
        <time>2021-08-25T08:18:19Z</time>
      </trkpt>
      <trkpt lat="45.37792" lon="2.94719">
        <ele>1228.5</ele>
        <time>2021-08-25T08:18:21Z</time>
      </trkpt>
      <trkpt lat="45.37792" lon="2.94719">
        <ele>1228.6</ele>
        <time>2021-08-25T08:18:23Z</time>
      </trkpt>
      <trkpt lat="45.37792" lon="2.94719">
        <ele>1228.6</ele>
        <time>2021-08-25T08:18:25Z</time>
      </trkpt>
      <trkpt lat="45.37793" lon="2.94718">
        <ele>1228.7</ele>
        <time>2021-08-25T08:18:27Z</time>
      </trkpt>
      <trkpt lat="45.37794" lon="2.94718">
        <ele>1228.9</ele>
        <time>2021-08-25T08:18:29Z</time>
      </trkpt>
      <trkpt lat="45.37795" lon="2.94716">
        <ele>1229.1</ele>
        <time>2021-08-25T08:18:31Z</time>
      </trkpt>
      <trkpt lat="45.37795" lon="2.94714">
        <ele>1229.2</ele>
        <time>2021-08-25T08:18:33Z</time>
      </trkpt>
      <trkpt lat="45.37796" lon="2.94713">
        <ele>1229.3</ele>
        <time>2021-08-25T08:18:35Z</time>
      </trkpt>
      <trkpt lat="45.37796" lon="2.94712">
        <ele>1229.4</ele>
        <time>2021-08-25T08:18:37Z</time>
      </trkpt>
      <trkpt lat="45.37797" lon="2.94711">
        <ele>1229.5</ele>
        <time>2021-08-25T08:18:39Z</time>
      </trkpt>
      <trkpt lat="45.37797" lon="2.94709">
        <ele>1229.6</ele>
        <time>2021-08-25T08:18:41Z</time>
      </trkpt>
      <trkpt lat="45.37798" lon="2.94708">
        <ele>1229.7</ele>
        <time>2021-08-25T08:18:43Z</time>
      </trkpt>
      <trkpt lat="45.37798" lon="2.94706">
        <ele>1229.7</ele>
        <time>2021-08-25T08:18:45Z</time>
      </trkpt>
      <trkpt lat="45.37799" lon="2.94705">
        <ele>1229.8</ele>
        <time>2021-08-25T08:18:47Z</time>
      </trkpt>
      <trkpt lat="45.37799" lon="2.94703">
        <ele>1229.8</ele>
        <time>2021-08-25T08:18:49Z</time>
      </trkpt>
      <trkpt lat="45.37799" lon="2.947">
        <ele>1229.7</ele>
        <time>2021-08-25T08:18:51Z</time>
      </trkpt>
      <trkpt lat="45.37799" lon="2.94699">
        <ele>1229.7</ele>
        <time>2021-08-25T08:18:53Z</time>
      </trkpt>
      <trkpt lat="45.37799" lon="2.94697">
        <ele>1229.6</ele>
        <time>2021-08-25T08:18:55Z</time>
      </trkpt>
      <trkpt lat="45.37798" lon="2.94695">
        <ele>1229.6</ele>
        <time>2021-08-25T08:18:57Z</time>
      </trkpt>
      <trkpt lat="45.37799" lon="2.94694">
        <ele>1229.6</ele>
        <time>2021-08-25T08:18:59Z</time>
      </trkpt>
      <trkpt lat="45.37799" lon="2.94692">
        <ele>1229.7</ele>
        <time>2021-08-25T08:19:01Z</time>
      </trkpt>
      <trkpt lat="45.378" lon="2.94689">
        <ele>1229.8</ele>
        <time>2021-08-25T08:19:03Z</time>
      </trkpt>
      <trkpt lat="45.37801" lon="2.94687">
        <ele>1230</ele>
        <time>2021-08-25T08:19:05Z</time>
      </trkpt>
      <trkpt lat="45.37801" lon="2.94685">
        <ele>1229.9</ele>
        <time>2021-08-25T08:19:07Z</time>
      </trkpt>
      <trkpt lat="45.37801" lon="2.94684">
        <ele>1230</ele>
        <time>2021-08-25T08:19:09Z</time>
      </trkpt>
      <trkpt lat="45.37802" lon="2.94682">
        <ele>1230.2</ele>
        <time>2021-08-25T08:19:11Z</time>
      </trkpt>
      <trkpt lat="45.37803" lon="2.9468">
        <ele>1230.4</ele>
        <time>2021-08-25T08:19:13Z</time>
      </trkpt>
      <trkpt lat="45.37804" lon="2.94679">
        <ele>1230.6</ele>
        <time>2021-08-25T08:19:15Z</time>
      </trkpt>
      <trkpt lat="45.37804" lon="2.9468">
        <ele>1230.5</ele>
        <time>2021-08-25T08:19:17Z</time>
      </trkpt>
      <trkpt lat="45.37804" lon="2.9468">
        <ele>1230.6</ele>
        <time>2021-08-25T08:19:19Z</time>
      </trkpt>
      <trkpt lat="45.37804" lon="2.9468">
        <ele>1230.6</ele>
        <time>2021-08-25T08:19:21Z</time>
      </trkpt>
      <trkpt lat="45.37805" lon="2.94677">
        <ele>1230.8</ele>
        <time>2021-08-25T08:19:23Z</time>
      </trkpt>
      <trkpt lat="45.37806" lon="2.94676">
        <ele>1230.9</ele>
        <time>2021-08-25T08:19:25Z</time>
      </trkpt>
      <trkpt lat="45.37807" lon="2.94674">
        <ele>1231.1</ele>
        <time>2021-08-25T08:19:27Z</time>
      </trkpt>
      <trkpt lat="45.37808" lon="2.94672">
        <ele>1231.3</ele>
        <time>2021-08-25T08:19:29Z</time>
      </trkpt>
      <trkpt lat="45.37809" lon="2.94669">
        <ele>1231.4</ele>
        <time>2021-08-25T08:19:31Z</time>
      </trkpt>
      <trkpt lat="45.37809" lon="2.94666">
        <ele>1231.5</ele>
        <time>2021-08-25T08:19:33Z</time>
      </trkpt>
      <trkpt lat="45.3781" lon="2.94663">
        <ele>1231.5</ele>
        <time>2021-08-25T08:19:35Z</time>
      </trkpt>
      <trkpt lat="45.3781" lon="2.94661">
        <ele>1231.5</ele>
        <time>2021-08-25T08:19:37Z</time>
      </trkpt>
      <trkpt lat="45.37811" lon="2.94659">
        <ele>1231.5</ele>
        <time>2021-08-25T08:19:39Z</time>
      </trkpt>
      <trkpt lat="45.37811" lon="2.94656">
        <ele>1231.4</ele>
        <time>2021-08-25T08:19:41Z</time>
      </trkpt>
      <trkpt lat="45.37811" lon="2.94654">
        <ele>1231.3</ele>
        <time>2021-08-25T08:19:43Z</time>
      </trkpt>
      <trkpt lat="45.37811" lon="2.94653">
        <ele>1231.3</ele>
        <time>2021-08-25T08:19:45Z</time>
      </trkpt>
      <trkpt lat="45.37811" lon="2.94653">
        <ele>1231.2</ele>
        <time>2021-08-25T08:19:47Z</time>
      </trkpt>
      <trkpt lat="45.37811" lon="2.94653">
        <ele>1231.3</ele>
        <time>2021-08-25T08:19:49Z</time>
      </trkpt>
      <trkpt lat="45.37811" lon="2.94653">
        <ele>1231.2</ele>
        <time>2021-08-25T08:19:51Z</time>
      </trkpt>
      <trkpt lat="45.37811" lon="2.94652">
        <ele>1231.2</ele>
        <time>2021-08-25T08:19:53Z</time>
      </trkpt>
      <trkpt lat="45.37811" lon="2.94649">
        <ele>1231.2</ele>
        <time>2021-08-25T08:19:55Z</time>
      </trkpt>
      <trkpt lat="45.37812" lon="2.94646">
        <ele>1231.2</ele>
        <time>2021-08-25T08:19:57Z</time>
      </trkpt>
      <trkpt lat="45.37812" lon="2.94643">
        <ele>1231.1</ele>
        <time>2021-08-25T08:19:59Z</time>
      </trkpt>
      <trkpt lat="45.37812" lon="2.9464">
        <ele>1231.1</ele>
        <time>2021-08-25T08:20:01Z</time>
      </trkpt>
      <trkpt lat="45.37813" lon="2.94637">
        <ele>1231.1</ele>
        <time>2021-08-25T08:20:03Z</time>
      </trkpt>
      <trkpt lat="45.37814" lon="2.94634">
        <ele>1231.1</ele>
        <time>2021-08-25T08:20:05Z</time>
      </trkpt>
      <trkpt lat="45.37814" lon="2.94631">
        <ele>1231.1</ele>
        <time>2021-08-25T08:20:07Z</time>
      </trkpt>
      <trkpt lat="45.37815" lon="2.94627">
        <ele>1231.1</ele>
        <time>2021-08-25T08:20:09Z</time>
      </trkpt>
      <trkpt lat="45.37815" lon="2.94624">
        <ele>1231</ele>
        <time>2021-08-25T08:20:11Z</time>
      </trkpt>
      <trkpt lat="45.37816" lon="2.94621">
        <ele>1231</ele>
        <time>2021-08-25T08:20:13Z</time>
      </trkpt>
      <trkpt lat="45.37816" lon="2.94618">
        <ele>1231</ele>
        <time>2021-08-25T08:20:15Z</time>
      </trkpt>
      <trkpt lat="45.37817" lon="2.94616">
        <ele>1231.1</ele>
        <time>2021-08-25T08:20:17Z</time>
      </trkpt>
      <trkpt lat="45.37818" lon="2.94613">
        <ele>1231.1</ele>
        <time>2021-08-25T08:20:19Z</time>
      </trkpt>
      <trkpt lat="45.37818" lon="2.9461">
        <ele>1231.1</ele>
        <time>2021-08-25T08:20:21Z</time>
      </trkpt>
      <trkpt lat="45.37819" lon="2.94608">
        <ele>1231.1</ele>
        <time>2021-08-25T08:20:23Z</time>
      </trkpt>
      <trkpt lat="45.3782" lon="2.94605">
        <ele>1231.3</ele>
        <time>2021-08-25T08:20:25Z</time>
      </trkpt>
      <trkpt lat="45.37821" lon="2.94604">
        <ele>1231.4</ele>
        <time>2021-08-25T08:20:27Z</time>
      </trkpt>
      <trkpt lat="45.37822" lon="2.94602">
        <ele>1231.5</ele>
        <time>2021-08-25T08:20:29Z</time>
      </trkpt>
      <trkpt lat="45.37823" lon="2.946">
        <ele>1231.7</ele>
        <time>2021-08-25T08:20:31Z</time>
      </trkpt>
      <trkpt lat="45.37825" lon="2.946">
        <ele>1232.1</ele>
        <time>2021-08-25T08:20:33Z</time>
      </trkpt>
      <trkpt lat="45.37836" lon="2.94587">
        <ele>1233.7</ele>
        <time>2021-08-25T08:21:13Z</time>
      </trkpt>
      <trkpt lat="45.37839" lon="2.94584">
        <ele>1234</ele>
        <time>2021-08-25T08:21:15Z</time>
      </trkpt>
      <trkpt lat="45.37841" lon="2.94581">
        <ele>1234.2</ele>
        <time>2021-08-25T08:21:17Z</time>
      </trkpt>
      <trkpt lat="45.37845" lon="2.94578">
        <ele>1234.5</ele>
        <time>2021-08-25T08:21:19Z</time>
      </trkpt>
      <trkpt lat="45.37847" lon="2.94575">
        <ele>1234.8</ele>
        <time>2021-08-25T08:21:21Z</time>
      </trkpt>
      <trkpt lat="45.3785" lon="2.94571">
        <ele>1235</ele>
        <time>2021-08-25T08:21:23Z</time>
      </trkpt>
      <trkpt lat="45.37853" lon="2.94568">
        <ele>1235.2</ele>
        <time>2021-08-25T08:21:25Z</time>
      </trkpt>
      <trkpt lat="45.37855" lon="2.94566">
        <ele>1235.4</ele>
        <time>2021-08-25T08:21:27Z</time>
      </trkpt>
      <trkpt lat="45.37857" lon="2.94563">
        <ele>1235.6</ele>
        <time>2021-08-25T08:21:29Z</time>
      </trkpt>
      <trkpt lat="45.3786" lon="2.9456">
        <ele>1235.8</ele>
        <time>2021-08-25T08:21:31Z</time>
      </trkpt>
      <trkpt lat="45.37862" lon="2.94559">
        <ele>1236</ele>
        <time>2021-08-25T08:21:33Z</time>
      </trkpt>
      <trkpt lat="45.37863" lon="2.94557">
        <ele>1236.1</ele>
        <time>2021-08-25T08:21:35Z</time>
      </trkpt>
      <trkpt lat="45.37863" lon="2.94558">
        <ele>1236.1</ele>
        <time>2021-08-25T08:21:37Z</time>
      </trkpt>
      <trkpt lat="45.37863" lon="2.94558">
        <ele>1236.2</ele>
        <time>2021-08-25T08:21:39Z</time>
      </trkpt>
      <trkpt lat="45.37866" lon="2.94555">
        <ele>1236.3</ele>
        <time>2021-08-25T08:21:41Z</time>
      </trkpt>
      <trkpt lat="45.37868" lon="2.94552">
        <ele>1236.5</ele>
        <time>2021-08-25T08:21:43Z</time>
      </trkpt>
      <trkpt lat="45.3787" lon="2.94549">
        <ele>1236.6</ele>
        <time>2021-08-25T08:21:45Z</time>
      </trkpt>
      <trkpt lat="45.37871" lon="2.94548">
        <ele>1236.7</ele>
        <time>2021-08-25T08:21:47Z</time>
      </trkpt>
      <trkpt lat="45.37871" lon="2.94549">
        <ele>1236.7</ele>
        <time>2021-08-25T08:21:49Z</time>
      </trkpt>
      <trkpt lat="45.37873" lon="2.94547">
        <ele>1236.8</ele>
        <time>2021-08-25T08:21:51Z</time>
      </trkpt>
      <trkpt lat="45.37874" lon="2.94545">
        <ele>1236.9</ele>
        <time>2021-08-25T08:21:53Z</time>
      </trkpt>
      <trkpt lat="45.37876" lon="2.94544">
        <ele>1237.1</ele>
        <time>2021-08-25T08:21:55Z</time>
      </trkpt>
      <trkpt lat="45.37919" lon="2.94489">
        <ele>1238.9</ele>
        <time>2021-08-25T08:23:03Z</time>
      </trkpt>
      <trkpt lat="45.37922" lon="2.94487">
        <ele>1239</ele>
        <time>2021-08-25T08:23:05Z</time>
      </trkpt>
      <trkpt lat="45.37924" lon="2.94484">
        <ele>1239.3</ele>
        <time>2021-08-25T08:23:07Z</time>
      </trkpt>
      <trkpt lat="45.37926" lon="2.94483">
        <ele>1239.5</ele>
        <time>2021-08-25T08:23:09Z</time>
      </trkpt>
      <trkpt lat="45.37927" lon="2.94479">
        <ele>1239.5</ele>
        <time>2021-08-25T08:23:11Z</time>
      </trkpt>
      <trkpt lat="45.37929" lon="2.94475">
        <ele>1239.4</ele>
        <time>2021-08-25T08:23:13Z</time>
      </trkpt>
      <trkpt lat="45.3793" lon="2.94472">
        <ele>1239.4</ele>
        <time>2021-08-25T08:23:15Z</time>
      </trkpt>
      <trkpt lat="45.37931" lon="2.94469">
        <ele>1239.4</ele>
        <time>2021-08-25T08:23:17Z</time>
      </trkpt>
      <trkpt lat="45.37932" lon="2.94465">
        <ele>1239.2</ele>
        <time>2021-08-25T08:23:19Z</time>
      </trkpt>
      <trkpt lat="45.37933" lon="2.94462">
        <ele>1239.2</ele>
        <time>2021-08-25T08:23:21Z</time>
      </trkpt>
      <trkpt lat="45.37934" lon="2.94459">
        <ele>1239.2</ele>
        <time>2021-08-25T08:23:23Z</time>
      </trkpt>
      <trkpt lat="45.37935" lon="2.94456">
        <ele>1239.2</ele>
        <time>2021-08-25T08:23:25Z</time>
      </trkpt>
      <trkpt lat="45.37937" lon="2.94453">
        <ele>1239.2</ele>
        <time>2021-08-25T08:23:27Z</time>
      </trkpt>
      <trkpt lat="45.37939" lon="2.94451">
        <ele>1239.4</ele>
        <time>2021-08-25T08:23:29Z</time>
      </trkpt>
      <trkpt lat="45.3794" lon="2.94448">
        <ele>1239.3</ele>
        <time>2021-08-25T08:23:31Z</time>
      </trkpt>
      <trkpt lat="45.37941" lon="2.94445">
        <ele>1239.3</ele>
        <time>2021-08-25T08:23:33Z</time>
      </trkpt>
      <trkpt lat="45.37943" lon="2.94442">
        <ele>1239.4</ele>
        <time>2021-08-25T08:23:35Z</time>
      </trkpt>
      <trkpt lat="45.37944" lon="2.94439">
        <ele>1239.4</ele>
        <time>2021-08-25T08:23:37Z</time>
      </trkpt>
      <trkpt lat="45.37945" lon="2.94438">
        <ele>1239.4</ele>
        <time>2021-08-25T08:23:39Z</time>
      </trkpt>
      <trkpt lat="45.37946" lon="2.94436">
        <ele>1239.4</ele>
        <time>2021-08-25T08:23:41Z</time>
      </trkpt>
      <trkpt lat="45.37948" lon="2.94433">
        <ele>1239.4</ele>
        <time>2021-08-25T08:23:43Z</time>
      </trkpt>
      <trkpt lat="45.37951" lon="2.94431">
        <ele>1239.6</ele>
        <time>2021-08-25T08:23:45Z</time>
      </trkpt>
      <trkpt lat="45.37954" lon="2.94428">
        <ele>1239.7</ele>
        <time>2021-08-25T08:23:47Z</time>
      </trkpt>
      <trkpt lat="45.37954" lon="2.94426">
        <ele>1239.6</ele>
        <time>2021-08-25T08:23:49Z</time>
      </trkpt>
      <trkpt lat="45.37955" lon="2.94425">
        <ele>1239.7</ele>
        <time>2021-08-25T08:23:51Z</time>
      </trkpt>
      <trkpt lat="45.37955" lon="2.94425">
        <ele>1239.7</ele>
        <time>2021-08-25T08:23:53Z</time>
      </trkpt>
      <trkpt lat="45.37955" lon="2.94425">
        <ele>1239.7</ele>
        <time>2021-08-25T08:23:55Z</time>
      </trkpt>
      <trkpt lat="45.37956" lon="2.94424">
        <ele>1239.7</ele>
        <time>2021-08-25T08:23:57Z</time>
      </trkpt>
      <trkpt lat="45.37958" lon="2.94423">
        <ele>1239.9</ele>
        <time>2021-08-25T08:23:59Z</time>
      </trkpt>
      <trkpt lat="45.37959" lon="2.94422">
        <ele>1240</ele>
        <time>2021-08-25T08:24:01Z</time>
      </trkpt>
      <trkpt lat="45.37959" lon="2.94423">
        <ele>1240</ele>
        <time>2021-08-25T08:24:03Z</time>
      </trkpt>
      <trkpt lat="45.37959" lon="2.94423">
        <ele>1240</ele>
        <time>2021-08-25T08:24:05Z</time>
      </trkpt>
      <trkpt lat="45.3796" lon="2.94422">
        <ele>1240.1</ele>
        <time>2021-08-25T08:24:07Z</time>
      </trkpt>
      <trkpt lat="45.37963" lon="2.94422">
        <ele>1240.4</ele>
        <time>2021-08-25T08:24:09Z</time>
      </trkpt>
      <trkpt lat="45.37966" lon="2.94423">
        <ele>1240.7</ele>
        <time>2021-08-25T08:24:11Z</time>
      </trkpt>
      <trkpt lat="45.37968" lon="2.94422">
        <ele>1240.9</ele>
        <time>2021-08-25T08:24:13Z</time>
      </trkpt>
      <trkpt lat="45.3797" lon="2.94421">
        <ele>1241.1</ele>
        <time>2021-08-25T08:24:15Z</time>
      </trkpt>
      <trkpt lat="45.37973" lon="2.94419">
        <ele>1241.2</ele>
        <time>2021-08-25T08:24:17Z</time>
      </trkpt>
      <trkpt lat="45.37975" lon="2.94417">
        <ele>1241.3</ele>
        <time>2021-08-25T08:24:19Z</time>
      </trkpt>
      <trkpt lat="45.37978" lon="2.94414">
        <ele>1241.6</ele>
        <time>2021-08-25T08:24:21Z</time>
      </trkpt>
      <trkpt lat="45.3798" lon="2.94411">
        <ele>1241.8</ele>
        <time>2021-08-25T08:24:23Z</time>
      </trkpt>
      <trkpt lat="45.37982" lon="2.94407">
        <ele>1242</ele>
        <time>2021-08-25T08:24:25Z</time>
      </trkpt>
      <trkpt lat="45.37985" lon="2.94404">
        <ele>1242.2</ele>
        <time>2021-08-25T08:24:27Z</time>
      </trkpt>
      <trkpt lat="45.37987" lon="2.94401">
        <ele>1242.4</ele>
        <time>2021-08-25T08:24:29Z</time>
      </trkpt>
      <trkpt lat="45.37989" lon="2.94398">
        <ele>1242.6</ele>
        <time>2021-08-25T08:24:31Z</time>
      </trkpt>
      <trkpt lat="45.37991" lon="2.94395">
        <ele>1242.8</ele>
        <time>2021-08-25T08:24:33Z</time>
      </trkpt>
      <trkpt lat="45.37994" lon="2.94392">
        <ele>1243.1</ele>
        <time>2021-08-25T08:24:35Z</time>
      </trkpt>
      <trkpt lat="45.37997" lon="2.94389">
        <ele>1243.3</ele>
        <time>2021-08-25T08:24:37Z</time>
      </trkpt>
      <trkpt lat="45.37999" lon="2.94388">
        <ele>1243.5</ele>
        <time>2021-08-25T08:24:39Z</time>
      </trkpt>
      <trkpt lat="45.38" lon="2.94387">
        <ele>1243.6</ele>
        <time>2021-08-25T08:24:41Z</time>
      </trkpt>
      <trkpt lat="45.37999" lon="2.94387">
        <ele>1243.6</ele>
        <time>2021-08-25T08:24:43Z</time>
      </trkpt>
      <trkpt lat="45.37999" lon="2.94387">
        <ele>1243.6</ele>
        <time>2021-08-25T08:24:45Z</time>
      </trkpt>
      <trkpt lat="45.37999" lon="2.94387">
        <ele>1243.6</ele>
        <time>2021-08-25T08:24:47Z</time>
      </trkpt>
      <trkpt lat="45.37999" lon="2.94387">
        <ele>1243.6</ele>
        <time>2021-08-25T08:24:49Z</time>
      </trkpt>
      <trkpt lat="45.3801" lon="2.94378">
        <ele>1244.5</ele>
        <time>2021-08-25T08:26:39Z</time>
      </trkpt>
      <trkpt lat="45.38013" lon="2.94375">
        <ele>1244.7</ele>
        <time>2021-08-25T08:26:41Z</time>
      </trkpt>
      <trkpt lat="45.38015" lon="2.94373">
        <ele>1244.9</ele>
        <time>2021-08-25T08:26:43Z</time>
      </trkpt>
      <trkpt lat="45.38017" lon="2.9437">
        <ele>1245</ele>
        <time>2021-08-25T08:26:45Z</time>
      </trkpt>
      <trkpt lat="45.38019" lon="2.94369">
        <ele>1245.1</ele>
        <time>2021-08-25T08:26:47Z</time>
      </trkpt>
      <trkpt lat="45.38021" lon="2.94365">
        <ele>1245.2</ele>
        <time>2021-08-25T08:26:49Z</time>
      </trkpt>
      <trkpt lat="45.38023" lon="2.9436">
        <ele>1245.3</ele>
        <time>2021-08-25T08:26:51Z</time>
      </trkpt>
      <trkpt lat="45.38026" lon="2.94356">
        <ele>1245.3</ele>
        <time>2021-08-25T08:26:53Z</time>
      </trkpt>
      <trkpt lat="45.38029" lon="2.94353">
        <ele>1245.5</ele>
        <time>2021-08-25T08:26:55Z</time>
      </trkpt>
      <trkpt lat="45.38031" lon="2.9435">
        <ele>1245.5</ele>
        <time>2021-08-25T08:26:57Z</time>
      </trkpt>
      <trkpt lat="45.38033" lon="2.94347">
        <ele>1245.5</ele>
        <time>2021-08-25T08:26:59Z</time>
      </trkpt>
      <trkpt lat="45.38035" lon="2.94344">
        <ele>1245.6</ele>
        <time>2021-08-25T08:27:01Z</time>
      </trkpt>
      <trkpt lat="45.38037" lon="2.94341">
        <ele>1245.6</ele>
        <time>2021-08-25T08:27:03Z</time>
      </trkpt>
      <trkpt lat="45.38039" lon="2.94338">
        <ele>1245.6</ele>
        <time>2021-08-25T08:27:05Z</time>
      </trkpt>
      <trkpt lat="45.38042" lon="2.94335">
        <ele>1245.6</ele>
        <time>2021-08-25T08:27:07Z</time>
      </trkpt>
      <trkpt lat="45.38044" lon="2.94331">
        <ele>1245.6</ele>
        <time>2021-08-25T08:27:09Z</time>
      </trkpt>
      <trkpt lat="45.38047" lon="2.94328">
        <ele>1245.8</ele>
        <time>2021-08-25T08:27:11Z</time>
      </trkpt>
      <trkpt lat="45.38049" lon="2.94324">
        <ele>1245.9</ele>
        <time>2021-08-25T08:27:13Z</time>
      </trkpt>
      <trkpt lat="45.38051" lon="2.9432">
        <ele>1246</ele>
        <time>2021-08-25T08:27:15Z</time>
      </trkpt>
      <trkpt lat="45.38054" lon="2.94317">
        <ele>1246.1</ele>
        <time>2021-08-25T08:27:17Z</time>
      </trkpt>
      <trkpt lat="45.38056" lon="2.94314">
        <ele>1246.2</ele>
        <time>2021-08-25T08:27:19Z</time>
      </trkpt>
      <trkpt lat="45.38058" lon="2.94311">
        <ele>1246.3</ele>
        <time>2021-08-25T08:27:21Z</time>
      </trkpt>
      <trkpt lat="45.3806" lon="2.94308">
        <ele>1246.4</ele>
        <time>2021-08-25T08:27:23Z</time>
      </trkpt>
      <trkpt lat="45.38063" lon="2.94306">
        <ele>1246.5</ele>
        <time>2021-08-25T08:27:25Z</time>
      </trkpt>
      <trkpt lat="45.38066" lon="2.94302">
        <ele>1246.6</ele>
        <time>2021-08-25T08:27:27Z</time>
      </trkpt>
      <trkpt lat="45.38068" lon="2.94298">
        <ele>1246.7</ele>
        <time>2021-08-25T08:27:29Z</time>
      </trkpt>
      <trkpt lat="45.3807" lon="2.94295">
        <ele>1246.8</ele>
        <time>2021-08-25T08:27:31Z</time>
      </trkpt>
      <trkpt lat="45.38071" lon="2.94291">
        <ele>1246.8</ele>
        <time>2021-08-25T08:27:33Z</time>
      </trkpt>
      <trkpt lat="45.38073" lon="2.94287">
        <ele>1246.9</ele>
        <time>2021-08-25T08:27:35Z</time>
      </trkpt>
      <trkpt lat="45.38075" lon="2.94283">
        <ele>1246.9</ele>
        <time>2021-08-25T08:27:37Z</time>
      </trkpt>
      <trkpt lat="45.38076" lon="2.94279">
        <ele>1247</ele>
        <time>2021-08-25T08:27:39Z</time>
      </trkpt>
      <trkpt lat="45.38078" lon="2.94275">
        <ele>1247</ele>
        <time>2021-08-25T08:27:41Z</time>
      </trkpt>
      <trkpt lat="45.3808" lon="2.9427">
        <ele>1247.1</ele>
        <time>2021-08-25T08:27:43Z</time>
      </trkpt>
      <trkpt lat="45.38081" lon="2.94267">
        <ele>1247.1</ele>
        <time>2021-08-25T08:27:45Z</time>
      </trkpt>
      <trkpt lat="45.38084" lon="2.94264">
        <ele>1247.2</ele>
        <time>2021-08-25T08:27:47Z</time>
      </trkpt>
      <trkpt lat="45.38086" lon="2.9426">
        <ele>1247.2</ele>
        <time>2021-08-25T08:27:49Z</time>
      </trkpt>
      <trkpt lat="45.38088" lon="2.94257">
        <ele>1247.3</ele>
        <time>2021-08-25T08:27:51Z</time>
      </trkpt>
      <trkpt lat="45.3809" lon="2.94254">
        <ele>1247.3</ele>
        <time>2021-08-25T08:27:53Z</time>
      </trkpt>
      <trkpt lat="45.38092" lon="2.9425">
        <ele>1247.3</ele>
        <time>2021-08-25T08:27:55Z</time>
      </trkpt>
      <trkpt lat="45.38093" lon="2.94245">
        <ele>1247.4</ele>
        <time>2021-08-25T08:27:57Z</time>
      </trkpt>
      <trkpt lat="45.38094" lon="2.94241">
        <ele>1247.5</ele>
        <time>2021-08-25T08:27:59Z</time>
      </trkpt>
      <trkpt lat="45.38096" lon="2.94237">
        <ele>1247.6</ele>
        <time>2021-08-25T08:28:01Z</time>
      </trkpt>
      <trkpt lat="45.38097" lon="2.94232">
        <ele>1247.7</ele>
        <time>2021-08-25T08:28:03Z</time>
      </trkpt>
      <trkpt lat="45.38098" lon="2.94228">
        <ele>1247.7</ele>
        <time>2021-08-25T08:28:05Z</time>
      </trkpt>
      <trkpt lat="45.381" lon="2.94225">
        <ele>1247.8</ele>
        <time>2021-08-25T08:28:07Z</time>
      </trkpt>
      <trkpt lat="45.38102" lon="2.94221">
        <ele>1247.9</ele>
        <time>2021-08-25T08:28:09Z</time>
      </trkpt>
      <trkpt lat="45.38103" lon="2.94217">
        <ele>1248</ele>
        <time>2021-08-25T08:28:11Z</time>
      </trkpt>
      <trkpt lat="45.38105" lon="2.94214">
        <ele>1248.1</ele>
        <time>2021-08-25T08:28:13Z</time>
      </trkpt>
      <trkpt lat="45.38106" lon="2.94211">
        <ele>1248.2</ele>
        <time>2021-08-25T08:28:15Z</time>
      </trkpt>
      <trkpt lat="45.38108" lon="2.94207">
        <ele>1248.2</ele>
        <time>2021-08-25T08:28:17Z</time>
      </trkpt>
      <trkpt lat="45.3811" lon="2.94204">
        <ele>1248.3</ele>
        <time>2021-08-25T08:28:19Z</time>
      </trkpt>
      <trkpt lat="45.38112" lon="2.94201">
        <ele>1248.4</ele>
        <time>2021-08-25T08:28:21Z</time>
      </trkpt>
      <trkpt lat="45.38114" lon="2.94198">
        <ele>1248.5</ele>
        <time>2021-08-25T08:28:23Z</time>
      </trkpt>
      <trkpt lat="45.38116" lon="2.94195">
        <ele>1248.6</ele>
        <time>2021-08-25T08:28:25Z</time>
      </trkpt>
      <trkpt lat="45.38117" lon="2.94191">
        <ele>1248.6</ele>
        <time>2021-08-25T08:28:27Z</time>
      </trkpt>
      <trkpt lat="45.38119" lon="2.94187">
        <ele>1248.7</ele>
        <time>2021-08-25T08:28:29Z</time>
      </trkpt>
      <trkpt lat="45.3812" lon="2.94183">
        <ele>1248.8</ele>
        <time>2021-08-25T08:28:31Z</time>
      </trkpt>
      <trkpt lat="45.38121" lon="2.94179">
        <ele>1248.8</ele>
        <time>2021-08-25T08:28:33Z</time>
      </trkpt>
      <trkpt lat="45.38123" lon="2.94174">
        <ele>1248.9</ele>
        <time>2021-08-25T08:28:35Z</time>
      </trkpt>
      <trkpt lat="45.38126" lon="2.9417">
        <ele>1249</ele>
        <time>2021-08-25T08:28:37Z</time>
      </trkpt>
      <trkpt lat="45.38129" lon="2.94167">
        <ele>1249.1</ele>
        <time>2021-08-25T08:28:39Z</time>
      </trkpt>
      <trkpt lat="45.38131" lon="2.94163">
        <ele>1249.3</ele>
        <time>2021-08-25T08:28:41Z</time>
      </trkpt>
      <trkpt lat="45.38133" lon="2.94159">
        <ele>1249.5</ele>
        <time>2021-08-25T08:28:43Z</time>
      </trkpt>
      <trkpt lat="45.38135" lon="2.94155">
        <ele>1249.7</ele>
        <time>2021-08-25T08:28:45Z</time>
      </trkpt>
      <trkpt lat="45.38137" lon="2.94151">
        <ele>1249.8</ele>
        <time>2021-08-25T08:28:47Z</time>
      </trkpt>
      <trkpt lat="45.38139" lon="2.94147">
        <ele>1250</ele>
        <time>2021-08-25T08:28:49Z</time>
      </trkpt>
      <trkpt lat="45.3814" lon="2.94143">
        <ele>1250.2</ele>
        <time>2021-08-25T08:28:51Z</time>
      </trkpt>
      <trkpt lat="45.38141" lon="2.94139">
        <ele>1250.4</ele>
        <time>2021-08-25T08:28:53Z</time>
      </trkpt>
      <trkpt lat="45.38142" lon="2.94137">
        <ele>1250.5</ele>
        <time>2021-08-25T08:28:55Z</time>
      </trkpt>
      <trkpt lat="45.38141" lon="2.94137">
        <ele>1250.4</ele>
        <time>2021-08-25T08:28:57Z</time>
      </trkpt>
      <trkpt lat="45.38141" lon="2.94138">
        <ele>1250.4</ele>
        <time>2021-08-25T08:28:59Z</time>
      </trkpt>
      <trkpt lat="45.38141" lon="2.94137">
        <ele>1250.4</ele>
        <time>2021-08-25T08:29:01Z</time>
      </trkpt>
      <trkpt lat="45.38141" lon="2.94137">
        <ele>1250.4</ele>
        <time>2021-08-25T08:29:03Z</time>
      </trkpt>
      <trkpt lat="45.38145" lon="2.94125">
        <ele>1251</ele>
        <time>2021-08-25T08:31:29Z</time>
      </trkpt>
      <trkpt lat="45.38147" lon="2.94122">
        <ele>1251.1</ele>
        <time>2021-08-25T08:31:31Z</time>
      </trkpt>
      <trkpt lat="45.38149" lon="2.94119">
        <ele>1251.3</ele>
        <time>2021-08-25T08:31:33Z</time>
      </trkpt>
      <trkpt lat="45.38151" lon="2.94116">
        <ele>1251.5</ele>
        <time>2021-08-25T08:31:35Z</time>
      </trkpt>
      <trkpt lat="45.38153" lon="2.94112">
        <ele>1251.6</ele>
        <time>2021-08-25T08:31:37Z</time>
      </trkpt>
      <trkpt lat="45.38155" lon="2.9411">
        <ele>1251.8</ele>
        <time>2021-08-25T08:31:39Z</time>
      </trkpt>
      <trkpt lat="45.38156" lon="2.94107">
        <ele>1251.9</ele>
        <time>2021-08-25T08:31:41Z</time>
      </trkpt>
      <trkpt lat="45.38157" lon="2.94102">
        <ele>1252.1</ele>
        <time>2021-08-25T08:31:43Z</time>
      </trkpt>
      <trkpt lat="45.38158" lon="2.94101">
        <ele>1252.2</ele>
        <time>2021-08-25T08:31:45Z</time>
      </trkpt>
      <trkpt lat="45.38159" lon="2.94097">
        <ele>1252.3</ele>
        <time>2021-08-25T08:31:47Z</time>
      </trkpt>
      <trkpt lat="45.38161" lon="2.94094">
        <ele>1252.5</ele>
        <time>2021-08-25T08:31:49Z</time>
      </trkpt>
      <trkpt lat="45.38162" lon="2.9409">
        <ele>1252.6</ele>
        <time>2021-08-25T08:31:51Z</time>
      </trkpt>
      <trkpt lat="45.38163" lon="2.94086">
        <ele>1252.8</ele>
        <time>2021-08-25T08:31:53Z</time>
      </trkpt>
      <trkpt lat="45.38164" lon="2.94081">
        <ele>1253</ele>
        <time>2021-08-25T08:31:55Z</time>
      </trkpt>
      <trkpt lat="45.38165" lon="2.94075">
        <ele>1253.3</ele>
        <time>2021-08-25T08:31:57Z</time>
      </trkpt>
      <trkpt lat="45.38167" lon="2.9407">
        <ele>1253.5</ele>
        <time>2021-08-25T08:31:59Z</time>
      </trkpt>
      <trkpt lat="45.3817" lon="2.94067">
        <ele>1253.6</ele>
        <time>2021-08-25T08:32:01Z</time>
      </trkpt>
      <trkpt lat="45.38172" lon="2.94063">
        <ele>1253.7</ele>
        <time>2021-08-25T08:32:03Z</time>
      </trkpt>
      <trkpt lat="45.38174" lon="2.94059">
        <ele>1253.8</ele>
        <time>2021-08-25T08:32:05Z</time>
      </trkpt>
      <trkpt lat="45.38175" lon="2.94055">
        <ele>1254</ele>
        <time>2021-08-25T08:32:07Z</time>
      </trkpt>
      <trkpt lat="45.38177" lon="2.94051">
        <ele>1254.2</ele>
        <time>2021-08-25T08:32:09Z</time>
      </trkpt>
      <trkpt lat="45.38178" lon="2.94048">
        <ele>1254.3</ele>
        <time>2021-08-25T08:32:11Z</time>
      </trkpt>
      <trkpt lat="45.38179" lon="2.94044">
        <ele>1254.5</ele>
        <time>2021-08-25T08:32:13Z</time>
      </trkpt>
      <trkpt lat="45.3818" lon="2.94041">
        <ele>1254.6</ele>
        <time>2021-08-25T08:32:15Z</time>
      </trkpt>
      <trkpt lat="45.38181" lon="2.94037">
        <ele>1254.8</ele>
        <time>2021-08-25T08:32:17Z</time>
      </trkpt>
      <trkpt lat="45.38182" lon="2.94033">
        <ele>1255</ele>
        <time>2021-08-25T08:32:19Z</time>
      </trkpt>
      <trkpt lat="45.38184" lon="2.9403">
        <ele>1255.1</ele>
        <time>2021-08-25T08:32:21Z</time>
      </trkpt>
      <trkpt lat="45.38185" lon="2.94028">
        <ele>1255.2</ele>
        <time>2021-08-25T08:32:23Z</time>
      </trkpt>
      <trkpt lat="45.38185" lon="2.94028">
        <ele>1255.2</ele>
        <time>2021-08-25T08:32:25Z</time>
      </trkpt>
      <trkpt lat="45.38185" lon="2.94028">
        <ele>1255.2</ele>
        <time>2021-08-25T08:32:27Z</time>
      </trkpt>
      <trkpt lat="45.38185" lon="2.94028">
        <ele>1255.2</ele>
        <time>2021-08-25T08:32:29Z</time>
      </trkpt>
      <trkpt lat="45.38186" lon="2.94028">
        <ele>1255.2</ele>
        <time>2021-08-25T08:32:31Z</time>
      </trkpt>
      <trkpt lat="45.38186" lon="2.94028">
        <ele>1255.2</ele>
        <time>2021-08-25T08:32:33Z</time>
      </trkpt>
      <trkpt lat="45.38186" lon="2.94028">
        <ele>1255.2</ele>
        <time>2021-08-25T08:32:35Z</time>
      </trkpt>
      <trkpt lat="45.38187" lon="2.94028">
        <ele>1255.2</ele>
        <time>2021-08-25T08:32:37Z</time>
      </trkpt>
      <trkpt lat="45.38187" lon="2.94028">
        <ele>1255.3</ele>
        <time>2021-08-25T08:32:39Z</time>
      </trkpt>
      <trkpt lat="45.38188" lon="2.94027">
        <ele>1255.3</ele>
        <time>2021-08-25T08:32:41Z</time>
      </trkpt>
      <trkpt lat="45.38188" lon="2.94028">
        <ele>1255.3</ele>
        <time>2021-08-25T08:32:43Z</time>
      </trkpt>
      <trkpt lat="45.38188" lon="2.94028">
        <ele>1255.3</ele>
        <time>2021-08-25T08:32:45Z</time>
      </trkpt>
      <trkpt lat="45.38188" lon="2.94028">
        <ele>1255.2</ele>
        <time>2021-08-25T08:32:47Z</time>
      </trkpt>
      <trkpt lat="45.38188" lon="2.94028">
        <ele>1255.2</ele>
        <time>2021-08-25T08:32:49Z</time>
      </trkpt>
      <trkpt lat="45.38188" lon="2.94027">
        <ele>1255.3</ele>
        <time>2021-08-25T08:32:51Z</time>
      </trkpt>
      <trkpt lat="45.38189" lon="2.94026">
        <ele>1255.3</ele>
        <time>2021-08-25T08:32:53Z</time>
      </trkpt>
      <trkpt lat="45.38189" lon="2.94026">
        <ele>1255.3</ele>
        <time>2021-08-25T08:32:55Z</time>
      </trkpt>
      <trkpt lat="45.38189" lon="2.94026">
        <ele>1255.3</ele>
        <time>2021-08-25T08:32:57Z</time>
      </trkpt>
      <trkpt lat="45.38189" lon="2.94026">
        <ele>1255.3</ele>
        <time>2021-08-25T08:32:59Z</time>
      </trkpt>
      <trkpt lat="45.38189" lon="2.94026">
        <ele>1255.4</ele>
        <time>2021-08-25T08:33:01Z</time>
      </trkpt>
      <trkpt lat="45.38189" lon="2.94026">
        <ele>1255.3</ele>
        <time>2021-08-25T08:33:03Z</time>
      </trkpt>
      <trkpt lat="45.38189" lon="2.94026">
        <ele>1255.3</ele>
        <time>2021-08-25T08:33:07Z</time>
      </trkpt>
      <trkpt lat="45.38189" lon="2.94026">
        <ele>1255.3</ele>
        <time>2021-08-25T08:33:11Z</time>
      </trkpt>
      <trkpt lat="45.38189" lon="2.94026">
        <ele>1255.3</ele>
        <time>2021-08-25T08:33:15Z</time>
      </trkpt>
      <trkpt lat="45.38189" lon="2.94026">
        <ele>1255.3</ele>
        <time>2021-08-25T08:33:19Z</time>
      </trkpt>
      <trkpt lat="45.38189" lon="2.94026">
        <ele>1255.3</ele>
        <time>2021-08-25T08:33:23Z</time>
      </trkpt>
      <trkpt lat="45.38189" lon="2.94026">
        <ele>1255.3</ele>
        <time>2021-08-25T08:33:27Z</time>
      </trkpt>
      <trkpt lat="45.38189" lon="2.94026">
        <ele>1255.3</ele>
        <time>2021-08-25T08:33:31Z</time>
      </trkpt>
      <trkpt lat="45.38189" lon="2.94026">
        <ele>1255.3</ele>
        <time>2021-08-25T08:33:35Z</time>
      </trkpt>
      <trkpt lat="45.38189" lon="2.94026">
        <ele>1255.3</ele>
        <time>2021-08-25T08:33:39Z</time>
      </trkpt>
      <trkpt lat="45.38189" lon="2.94026">
        <ele>1255.3</ele>
        <time>2021-08-25T08:33:43Z</time>
      </trkpt>
      <trkpt lat="45.38189" lon="2.94026">
        <ele>1255.3</ele>
        <time>2021-08-25T08:33:47Z</time>
      </trkpt>
      <trkpt lat="45.38189" lon="2.94026">
        <ele>1255.3</ele>
        <time>2021-08-25T08:33:51Z</time>
      </trkpt>
      <trkpt lat="45.38189" lon="2.94026">
        <ele>1255.3</ele>
        <time>2021-08-25T08:33:55Z</time>
      </trkpt>
      <trkpt lat="45.38189" lon="2.94026">
        <ele>1255.3</ele>
        <time>2021-08-25T08:33:59Z</time>
      </trkpt>
      <trkpt lat="45.38189" lon="2.94026">
        <ele>1255.3</ele>
        <time>2021-08-25T08:34:03Z</time>
      </trkpt>
      <trkpt lat="45.38189" lon="2.94026">
        <ele>1255.3</ele>
        <time>2021-08-25T08:34:07Z</time>
      </trkpt>
      <trkpt lat="45.38189" lon="2.94026">
        <ele>1255.3</ele>
        <time>2021-08-25T08:34:11Z</time>
      </trkpt>
      <trkpt lat="45.38189" lon="2.94026">
        <ele>1255.3</ele>
        <time>2021-08-25T08:34:15Z</time>
      </trkpt>
      <trkpt lat="45.38189" lon="2.94026">
        <ele>1255.3</ele>
        <time>2021-08-25T08:34:19Z</time>
      </trkpt>
      <trkpt lat="45.38189" lon="2.94026">
        <ele>1255.3</ele>
        <time>2021-08-25T08:34:23Z</time>
      </trkpt>
      <trkpt lat="45.38189" lon="2.94026">
        <ele>1255.3</ele>
        <time>2021-08-25T08:34:27Z</time>
      </trkpt>
      <trkpt lat="45.38189" lon="2.94026">
        <ele>1255.3</ele>
        <time>2021-08-25T08:34:31Z</time>
      </trkpt>
      <trkpt lat="45.38189" lon="2.94026">
        <ele>1255.3</ele>
        <time>2021-08-25T08:34:35Z</time>
      </trkpt>
      <trkpt lat="45.38189" lon="2.94026">
        <ele>1255.3</ele>
        <time>2021-08-25T08:34:39Z</time>
      </trkpt>
      <trkpt lat="45.38189" lon="2.94026">
        <ele>1255.3</ele>
        <time>2021-08-25T08:34:43Z</time>
      </trkpt>
      <trkpt lat="45.38189" lon="2.94026">
        <ele>1255.3</ele>
        <time>2021-08-25T08:34:47Z</time>
      </trkpt>
      <trkpt lat="45.38189" lon="2.94026">
        <ele>1255.3</ele>
        <time>2021-08-25T08:34:51Z</time>
      </trkpt>
      <trkpt lat="45.38189" lon="2.94026">
        <ele>1255.3</ele>
        <time>2021-08-25T08:34:55Z</time>
      </trkpt>
      <trkpt lat="45.38189" lon="2.94026">
        <ele>1255.3</ele>
        <time>2021-08-25T08:34:59Z</time>
      </trkpt>
      <trkpt lat="45.38189" lon="2.94026">
        <ele>1255.3</ele>
        <time>2021-08-25T08:35:03Z</time>
      </trkpt>
      <trkpt lat="45.38189" lon="2.94026">
        <ele>1255.3</ele>
        <time>2021-08-25T08:35:07Z</time>
      </trkpt>
      <trkpt lat="45.38189" lon="2.94026">
        <ele>1255.3</ele>
        <time>2021-08-25T08:35:11Z</time>
      </trkpt>
      <trkpt lat="45.38189" lon="2.94026">
        <ele>1255.3</ele>
        <time>2021-08-25T08:35:15Z</time>
      </trkpt>
      <trkpt lat="45.38189" lon="2.94026">
        <ele>1255.3</ele>
        <time>2021-08-25T08:35:19Z</time>
      </trkpt>
      <trkpt lat="45.38189" lon="2.94026">
        <ele>1255.3</ele>
        <time>2021-08-25T08:35:23Z</time>
      </trkpt>
      <trkpt lat="45.38189" lon="2.94026">
        <ele>1255.3</ele>
        <time>2021-08-25T08:35:27Z</time>
      </trkpt>
      <trkpt lat="45.38189" lon="2.94026">
        <ele>1255.3</ele>
        <time>2021-08-25T08:35:31Z</time>
      </trkpt>
      <trkpt lat="45.38189" lon="2.94026">
        <ele>1255.3</ele>
        <time>2021-08-25T08:35:35Z</time>
      </trkpt>
      <trkpt lat="45.38189" lon="2.94026">
        <ele>1255.3</ele>
        <time>2021-08-25T08:35:39Z</time>
      </trkpt>
      <trkpt lat="45.38189" lon="2.94026">
        <ele>1255.3</ele>
        <time>2021-08-25T08:35:43Z</time>
      </trkpt>
      <trkpt lat="45.38189" lon="2.94026">
        <ele>1255.3</ele>
        <time>2021-08-25T08:35:47Z</time>
      </trkpt>
      <trkpt lat="45.38189" lon="2.94026">
        <ele>1255.3</ele>
        <time>2021-08-25T08:35:51Z</time>
      </trkpt>
      <trkpt lat="45.38189" lon="2.94026">
        <ele>1255.3</ele>
        <time>2021-08-25T08:35:55Z</time>
      </trkpt>
      <trkpt lat="45.38189" lon="2.94026">
        <ele>1255.3</ele>
        <time>2021-08-25T08:35:59Z</time>
      </trkpt>
      <trkpt lat="45.38189" lon="2.94026">
        <ele>1255.3</ele>
        <time>2021-08-25T08:36:03Z</time>
      </trkpt>
      <trkpt lat="45.38189" lon="2.94026">
        <ele>1255.3</ele>
        <time>2021-08-25T08:36:07Z</time>
      </trkpt>
      <trkpt lat="45.38189" lon="2.94026">
        <ele>1255.3</ele>
        <time>2021-08-25T08:36:11Z</time>
      </trkpt>
      <trkpt lat="45.38189" lon="2.94026">
        <ele>1255.3</ele>
        <time>2021-08-25T08:36:15Z</time>
      </trkpt>
      <trkpt lat="45.38189" lon="2.94026">
        <ele>1255.3</ele>
        <time>2021-08-25T08:36:19Z</time>
      </trkpt>
      <trkpt lat="45.38189" lon="2.94026">
        <ele>1255.3</ele>
        <time>2021-08-25T08:36:23Z</time>
      </trkpt>
      <trkpt lat="45.38189" lon="2.94026">
        <ele>1255.3</ele>
        <time>2021-08-25T08:36:27Z</time>
      </trkpt>
      <trkpt lat="45.38189" lon="2.94026">
        <ele>1255.3</ele>
        <time>2021-08-25T08:36:31Z</time>
      </trkpt>
      <trkpt lat="45.38189" lon="2.94026">
        <ele>1255.3</ele>
        <time>2021-08-25T08:36:35Z</time>
      </trkpt>
      <trkpt lat="45.38189" lon="2.94026">
        <ele>1255.3</ele>
        <time>2021-08-25T08:36:39Z</time>
      </trkpt>
      <trkpt lat="45.38189" lon="2.94026">
        <ele>1255.3</ele>
        <time>2021-08-25T08:36:43Z</time>
      </trkpt>
      <trkpt lat="45.38189" lon="2.94026">
        <ele>1255.3</ele>
        <time>2021-08-25T08:36:47Z</time>
      </trkpt>
      <trkpt lat="45.38189" lon="2.94026">
        <ele>1255.3</ele>
        <time>2021-08-25T08:36:51Z</time>
      </trkpt>
      <trkpt lat="45.38189" lon="2.94026">
        <ele>1255.3</ele>
        <time>2021-08-25T08:36:55Z</time>
      </trkpt>
      <trkpt lat="45.38189" lon="2.94026">
        <ele>1255.3</ele>
        <time>2021-08-25T08:36:59Z</time>
      </trkpt>
      <trkpt lat="45.38189" lon="2.94026">
        <ele>1255.3</ele>
        <time>2021-08-25T08:37:03Z</time>
      </trkpt>
      <trkpt lat="45.38189" lon="2.94026">
        <ele>1255.3</ele>
        <time>2021-08-25T08:37:07Z</time>
      </trkpt>
      <trkpt lat="45.38189" lon="2.94026">
        <ele>1255.3</ele>
        <time>2021-08-25T08:37:11Z</time>
      </trkpt>
      <trkpt lat="45.38189" lon="2.94026">
        <ele>1255.3</ele>
        <time>2021-08-25T08:37:15Z</time>
      </trkpt>
      <trkpt lat="45.38189" lon="2.94026">
        <ele>1255.3</ele>
        <time>2021-08-25T08:37:19Z</time>
      </trkpt>
      <trkpt lat="45.38189" lon="2.94026">
        <ele>1255.3</ele>
        <time>2021-08-25T08:37:23Z</time>
      </trkpt>
      <trkpt lat="45.38189" lon="2.94026">
        <ele>1255.3</ele>
        <time>2021-08-25T08:37:27Z</time>
      </trkpt>
      <trkpt lat="45.38189" lon="2.94026">
        <ele>1255.3</ele>
        <time>2021-08-25T08:37:31Z</time>
      </trkpt>
      <trkpt lat="45.38189" lon="2.94026">
        <ele>1255.3</ele>
        <time>2021-08-25T08:37:35Z</time>
      </trkpt>
      <trkpt lat="45.38189" lon="2.94026">
        <ele>1255.3</ele>
        <time>2021-08-25T08:37:39Z</time>
      </trkpt>
      <trkpt lat="45.38189" lon="2.94026">
        <ele>1255.3</ele>
        <time>2021-08-25T08:37:43Z</time>
      </trkpt>
      <trkpt lat="45.38189" lon="2.94026">
        <ele>1255.3</ele>
        <time>2021-08-25T08:37:47Z</time>
      </trkpt>
      <trkpt lat="45.38189" lon="2.94026">
        <ele>1255.3</ele>
        <time>2021-08-25T08:37:51Z</time>
      </trkpt>
      <trkpt lat="45.38189" lon="2.94026">
        <ele>1255.3</ele>
        <time>2021-08-25T08:37:55Z</time>
      </trkpt>
      <trkpt lat="45.38189" lon="2.94026">
        <ele>1255.3</ele>
        <time>2021-08-25T08:37:59Z</time>
      </trkpt>
      <trkpt lat="45.38189" lon="2.94026">
        <ele>1255.3</ele>
        <time>2021-08-25T08:38:03Z</time>
      </trkpt>
      <trkpt lat="45.38189" lon="2.94026">
        <ele>1255.3</ele>
        <time>2021-08-25T08:38:07Z</time>
      </trkpt>
      <trkpt lat="45.38189" lon="2.94026">
        <ele>1255.3</ele>
        <time>2021-08-25T08:38:11Z</time>
      </trkpt>
      <trkpt lat="45.38189" lon="2.94026">
        <ele>1255.3</ele>
        <time>2021-08-25T08:38:15Z</time>
      </trkpt>
      <trkpt lat="45.38189" lon="2.94026">
        <ele>1255.3</ele>
        <time>2021-08-25T08:38:19Z</time>
      </trkpt>
      <trkpt lat="45.38189" lon="2.94026">
        <ele>1255.3</ele>
        <time>2021-08-25T08:38:23Z</time>
      </trkpt>
      <trkpt lat="45.38189" lon="2.94026">
        <ele>1255.3</ele>
        <time>2021-08-25T08:38:27Z</time>
      </trkpt>
      <trkpt lat="45.38189" lon="2.94026">
        <ele>1255.3</ele>
        <time>2021-08-25T08:38:31Z</time>
      </trkpt>
      <trkpt lat="45.38189" lon="2.94026">
        <ele>1255.3</ele>
        <time>2021-08-25T08:38:35Z</time>
      </trkpt>
      <trkpt lat="45.38189" lon="2.94026">
        <ele>1255.3</ele>
        <time>2021-08-25T08:38:39Z</time>
      </trkpt>
      <trkpt lat="45.38189" lon="2.94026">
        <ele>1255.3</ele>
        <time>2021-08-25T08:38:43Z</time>
      </trkpt>
      <trkpt lat="45.38189" lon="2.94026">
        <ele>1255.3</ele>
        <time>2021-08-25T08:38:47Z</time>
      </trkpt>
      <trkpt lat="45.38189" lon="2.94026">
        <ele>1255.3</ele>
        <time>2021-08-25T08:38:51Z</time>
      </trkpt>
      <trkpt lat="45.38189" lon="2.94026">
        <ele>1255.3</ele>
        <time>2021-08-25T08:38:55Z</time>
      </trkpt>
      <trkpt lat="45.38189" lon="2.94026">
        <ele>1255.3</ele>
        <time>2021-08-25T08:38:59Z</time>
      </trkpt>
      <trkpt lat="45.38189" lon="2.94026">
        <ele>1255.3</ele>
        <time>2021-08-25T08:39:03Z</time>
      </trkpt>
      <trkpt lat="45.38189" lon="2.94026">
        <ele>1255.3</ele>
        <time>2021-08-25T08:39:07Z</time>
      </trkpt>
      <trkpt lat="45.38189" lon="2.94026">
        <ele>1255.3</ele>
        <time>2021-08-25T08:39:11Z</time>
      </trkpt>
      <trkpt lat="45.38189" lon="2.94026">
        <ele>1255.3</ele>
        <time>2021-08-25T08:39:15Z</time>
      </trkpt>
      <trkpt lat="45.38189" lon="2.94026">
        <ele>1255.3</ele>
        <time>2021-08-25T08:39:19Z</time>
      </trkpt>
      <trkpt lat="45.38189" lon="2.94026">
        <ele>1255.3</ele>
        <time>2021-08-25T08:39:23Z</time>
      </trkpt>
      <trkpt lat="45.38189" lon="2.94026">
        <ele>1255.3</ele>
        <time>2021-08-25T08:39:27Z</time>
      </trkpt>
      <trkpt lat="45.38189" lon="2.94026">
        <ele>1255.3</ele>
        <time>2021-08-25T08:39:31Z</time>
      </trkpt>
      <trkpt lat="45.38189" lon="2.94026">
        <ele>1255.3</ele>
        <time>2021-08-25T08:39:35Z</time>
      </trkpt>
      <trkpt lat="45.38189" lon="2.94026">
        <ele>1255.3</ele>
        <time>2021-08-25T08:39:39Z</time>
      </trkpt>
      <trkpt lat="45.38189" lon="2.94026">
        <ele>1255.3</ele>
        <time>2021-08-25T08:39:43Z</time>
      </trkpt>
      <trkpt lat="45.38189" lon="2.94026">
        <ele>1255.3</ele>
        <time>2021-08-25T08:39:47Z</time>
      </trkpt>
      <trkpt lat="45.38189" lon="2.94026">
        <ele>1255.3</ele>
        <time>2021-08-25T08:39:51Z</time>
      </trkpt>
      <trkpt lat="45.38189" lon="2.94026">
        <ele>1255.3</ele>
        <time>2021-08-25T08:39:55Z</time>
      </trkpt>
      <trkpt lat="45.38189" lon="2.94026">
        <ele>1255.3</ele>
        <time>2021-08-25T08:39:59Z</time>
      </trkpt>
      <trkpt lat="45.38189" lon="2.94026">
        <ele>1255.3</ele>
        <time>2021-08-25T08:40:03Z</time>
      </trkpt>
      <trkpt lat="45.38189" lon="2.94026">
        <ele>1255.3</ele>
        <time>2021-08-25T08:40:07Z</time>
      </trkpt>
      <trkpt lat="45.38188" lon="2.94026">
        <ele>1255.3</ele>
        <time>2021-08-25T08:40:11Z</time>
      </trkpt>
      <trkpt lat="45.38188" lon="2.94026">
        <ele>1255.3</ele>
        <time>2021-08-25T08:40:13Z</time>
      </trkpt>
      <trkpt lat="45.38189" lon="2.94024">
        <ele>1255.4</ele>
        <time>2021-08-25T08:40:15Z</time>
      </trkpt>
      <trkpt lat="45.38189" lon="2.94024">
        <ele>1255.5</ele>
        <time>2021-08-25T08:40:17Z</time>
      </trkpt>
      <trkpt lat="45.38189" lon="2.94024">
        <ele>1255.4</ele>
        <time>2021-08-25T08:40:19Z</time>
      </trkpt>
      <trkpt lat="45.38189" lon="2.94024">
        <ele>1255.5</ele>
        <time>2021-08-25T08:40:21Z</time>
      </trkpt>
      <trkpt lat="45.38189" lon="2.94024">
        <ele>1255.5</ele>
        <time>2021-08-25T08:40:23Z</time>
      </trkpt>
      <trkpt lat="45.38189" lon="2.94024">
        <ele>1255.5</ele>
        <time>2021-08-25T08:40:25Z</time>
      </trkpt>
      <trkpt lat="45.38189" lon="2.94024">
        <ele>1255.5</ele>
        <time>2021-08-25T08:40:27Z</time>
      </trkpt>
      <trkpt lat="45.38189" lon="2.94023">
        <ele>1255.5</ele>
        <time>2021-08-25T08:40:29Z</time>
      </trkpt>
      <trkpt lat="45.3819" lon="2.9402">
        <ele>1255.6</ele>
        <time>2021-08-25T08:40:31Z</time>
      </trkpt>
      <trkpt lat="45.38191" lon="2.94017">
        <ele>1255.8</ele>
        <time>2021-08-25T08:40:33Z</time>
      </trkpt>
      <trkpt lat="45.38191" lon="2.94017">
        <ele>1255.8</ele>
        <time>2021-08-25T08:40:35Z</time>
      </trkpt>
      <trkpt lat="45.38191" lon="2.94017">
        <ele>1255.8</ele>
        <time>2021-08-25T08:40:37Z</time>
      </trkpt>
      <trkpt lat="45.38192" lon="2.94016">
        <ele>1255.9</ele>
        <time>2021-08-25T08:40:39Z</time>
      </trkpt>
      <trkpt lat="45.38193" lon="2.94013">
        <ele>1256</ele>
        <time>2021-08-25T08:40:41Z</time>
      </trkpt>
      <trkpt lat="45.38193" lon="2.94011">
        <ele>1256.1</ele>
        <time>2021-08-25T08:40:43Z</time>
      </trkpt>
      <trkpt lat="45.38193" lon="2.94008">
        <ele>1256.2</ele>
        <time>2021-08-25T08:40:45Z</time>
      </trkpt>
      <trkpt lat="45.38194" lon="2.94007">
        <ele>1256.3</ele>
        <time>2021-08-25T08:40:47Z</time>
      </trkpt>
      <trkpt lat="45.38195" lon="2.94005">
        <ele>1256.4</ele>
        <time>2021-08-25T08:40:49Z</time>
      </trkpt>
      <trkpt lat="45.38196" lon="2.94003">
        <ele>1256.5</ele>
        <time>2021-08-25T08:40:51Z</time>
      </trkpt>
      <trkpt lat="45.38197" lon="2.94001">
        <ele>1256.7</ele>
        <time>2021-08-25T08:40:53Z</time>
      </trkpt>
      <trkpt lat="45.38198" lon="2.93999">
        <ele>1256.8</ele>
        <time>2021-08-25T08:40:55Z</time>
      </trkpt>
      <trkpt lat="45.38198" lon="2.93997">
        <ele>1256.9</ele>
        <time>2021-08-25T08:40:57Z</time>
      </trkpt>
      <trkpt lat="45.38199" lon="2.93995">
        <ele>1257.1</ele>
        <time>2021-08-25T08:40:59Z</time>
      </trkpt>
      <trkpt lat="45.382" lon="2.93993">
        <ele>1257.2</ele>
        <time>2021-08-25T08:41:01Z</time>
      </trkpt>
      <trkpt lat="45.38201" lon="2.93991">
        <ele>1257.3</ele>
        <time>2021-08-25T08:41:03Z</time>
      </trkpt>
      <trkpt lat="45.38201" lon="2.9399">
        <ele>1257.5</ele>
        <time>2021-08-25T08:41:05Z</time>
      </trkpt>
      <trkpt lat="45.38202" lon="2.93988">
        <ele>1257.6</ele>
        <time>2021-08-25T08:41:07Z</time>
      </trkpt>
      <trkpt lat="45.38203" lon="2.93986">
        <ele>1257.8</ele>
        <time>2021-08-25T08:41:09Z</time>
      </trkpt>
      <trkpt lat="45.38204" lon="2.93984">
        <ele>1257.9</ele>
        <time>2021-08-25T08:41:11Z</time>
      </trkpt>
      <trkpt lat="45.38205" lon="2.93981">
        <ele>1258.1</ele>
        <time>2021-08-25T08:41:13Z</time>
      </trkpt>
      <trkpt lat="45.38206" lon="2.9398">
        <ele>1258.3</ele>
        <time>2021-08-25T08:41:15Z</time>
      </trkpt>
      <trkpt lat="45.38206" lon="2.9398">
        <ele>1258.3</ele>
        <time>2021-08-25T08:41:17Z</time>
      </trkpt>
      <trkpt lat="45.38206" lon="2.9398">
        <ele>1258.2</ele>
        <time>2021-08-25T08:41:19Z</time>
      </trkpt>
      <trkpt lat="45.38206" lon="2.9398">
        <ele>1258.2</ele>
        <time>2021-08-25T08:41:21Z</time>
      </trkpt>
      <trkpt lat="45.38206" lon="2.9398">
        <ele>1258.2</ele>
        <time>2021-08-25T08:41:23Z</time>
      </trkpt>
      <trkpt lat="45.38206" lon="2.9398">
        <ele>1258.3</ele>
        <time>2021-08-25T08:41:27Z</time>
      </trkpt>
      <trkpt lat="45.38206" lon="2.9398">
        <ele>1258.3</ele>
        <time>2021-08-25T08:41:29Z</time>
      </trkpt>
      <trkpt lat="45.38207" lon="2.93979">
        <ele>1258.3</ele>
        <time>2021-08-25T08:41:31Z</time>
      </trkpt>
      <trkpt lat="45.38207" lon="2.93976">
        <ele>1258.5</ele>
        <time>2021-08-25T08:41:33Z</time>
      </trkpt>
      <trkpt lat="45.38208" lon="2.93974">
        <ele>1258.7</ele>
        <time>2021-08-25T08:41:35Z</time>
      </trkpt>
      <trkpt lat="45.38209" lon="2.93972">
        <ele>1258.8</ele>
        <time>2021-08-25T08:41:37Z</time>
      </trkpt>
      <trkpt lat="45.38209" lon="2.93971">
        <ele>1259</ele>
        <time>2021-08-25T08:41:39Z</time>
      </trkpt>
      <trkpt lat="45.3821" lon="2.93968">
        <ele>1259.2</ele>
        <time>2021-08-25T08:41:41Z</time>
      </trkpt>
      <trkpt lat="45.38211" lon="2.93966">
        <ele>1259.3</ele>
        <time>2021-08-25T08:41:43Z</time>
      </trkpt>
      <trkpt lat="45.38212" lon="2.93964">
        <ele>1259.5</ele>
        <time>2021-08-25T08:41:45Z</time>
      </trkpt>
      <trkpt lat="45.38213" lon="2.93961">
        <ele>1259.7</ele>
        <time>2021-08-25T08:41:47Z</time>
      </trkpt>
      <trkpt lat="45.38213" lon="2.9396">
        <ele>1259.9</ele>
        <time>2021-08-25T08:41:49Z</time>
      </trkpt>
      <trkpt lat="45.38214" lon="2.93958">
        <ele>1260</ele>
        <time>2021-08-25T08:41:51Z</time>
      </trkpt>
      <trkpt lat="45.38215" lon="2.93955">
        <ele>1260.2</ele>
        <time>2021-08-25T08:41:53Z</time>
      </trkpt>
      <trkpt lat="45.38216" lon="2.93953">
        <ele>1260.4</ele>
        <time>2021-08-25T08:41:55Z</time>
      </trkpt>
      <trkpt lat="45.38217" lon="2.9395">
        <ele>1260.7</ele>
        <time>2021-08-25T08:41:57Z</time>
      </trkpt>
      <trkpt lat="45.38217" lon="2.93948">
        <ele>1260.9</ele>
        <time>2021-08-25T08:41:59Z</time>
      </trkpt>
      <trkpt lat="45.38218" lon="2.93946">
        <ele>1261</ele>
        <time>2021-08-25T08:42:01Z</time>
      </trkpt>
      <trkpt lat="45.38219" lon="2.93944">
        <ele>1261.2</ele>
        <time>2021-08-25T08:42:03Z</time>
      </trkpt>
      <trkpt lat="45.38219" lon="2.93942">
        <ele>1261.4</ele>
        <time>2021-08-25T08:42:05Z</time>
      </trkpt>
      <trkpt lat="45.3822" lon="2.93939">
        <ele>1261.6</ele>
        <time>2021-08-25T08:42:07Z</time>
      </trkpt>
      <trkpt lat="45.38221" lon="2.93937">
        <ele>1261.8</ele>
        <time>2021-08-25T08:42:09Z</time>
      </trkpt>
      <trkpt lat="45.38222" lon="2.93935">
        <ele>1262</ele>
        <time>2021-08-25T08:42:11Z</time>
      </trkpt>
      <trkpt lat="45.38223" lon="2.93933">
        <ele>1262.2</ele>
        <time>2021-08-25T08:42:13Z</time>
      </trkpt>
      <trkpt lat="45.38224" lon="2.93931">
        <ele>1262.4</ele>
        <time>2021-08-25T08:42:15Z</time>
      </trkpt>
      <trkpt lat="45.38225" lon="2.93928">
        <ele>1262.7</ele>
        <time>2021-08-25T08:42:17Z</time>
      </trkpt>
      <trkpt lat="45.38226" lon="2.93926">
        <ele>1262.9</ele>
        <time>2021-08-25T08:42:19Z</time>
      </trkpt>
      <trkpt lat="45.38227" lon="2.93923">
        <ele>1263.1</ele>
        <time>2021-08-25T08:42:21Z</time>
      </trkpt>
      <trkpt lat="45.38227" lon="2.93921">
        <ele>1263.3</ele>
        <time>2021-08-25T08:42:23Z</time>
      </trkpt>
      <trkpt lat="45.38228" lon="2.93919">
        <ele>1263.5</ele>
        <time>2021-08-25T08:42:25Z</time>
      </trkpt>
      <trkpt lat="45.3823" lon="2.93917">
        <ele>1263.8</ele>
        <time>2021-08-25T08:42:27Z</time>
      </trkpt>
      <trkpt lat="45.38231" lon="2.93915">
        <ele>1264</ele>
        <time>2021-08-25T08:42:29Z</time>
      </trkpt>
      <trkpt lat="45.38231" lon="2.93913">
        <ele>1264.2</ele>
        <time>2021-08-25T08:42:31Z</time>
      </trkpt>
      <trkpt lat="45.38232" lon="2.93911">
        <ele>1264.4</ele>
        <time>2021-08-25T08:42:33Z</time>
      </trkpt>
      <trkpt lat="45.38233" lon="2.93908">
        <ele>1264.6</ele>
        <time>2021-08-25T08:42:35Z</time>
      </trkpt>
      <trkpt lat="45.38234" lon="2.93906">
        <ele>1264.8</ele>
        <time>2021-08-25T08:42:37Z</time>
      </trkpt>
      <trkpt lat="45.38235" lon="2.93904">
        <ele>1265</ele>
        <time>2021-08-25T08:42:39Z</time>
      </trkpt>
      <trkpt lat="45.38235" lon="2.93903">
        <ele>1265.2</ele>
        <time>2021-08-25T08:42:41Z</time>
      </trkpt>
      <trkpt lat="45.38236" lon="2.93901">
        <ele>1265.3</ele>
        <time>2021-08-25T08:42:43Z</time>
      </trkpt>
      <trkpt lat="45.38237" lon="2.93898">
        <ele>1265.6</ele>
        <time>2021-08-25T08:42:45Z</time>
      </trkpt>
      <trkpt lat="45.38238" lon="2.93897">
        <ele>1265.8</ele>
        <time>2021-08-25T08:42:47Z</time>
      </trkpt>
      <trkpt lat="45.38239" lon="2.93895">
        <ele>1265.9</ele>
        <time>2021-08-25T08:42:49Z</time>
      </trkpt>
      <trkpt lat="45.38239" lon="2.93894">
        <ele>1266.1</ele>
        <time>2021-08-25T08:42:51Z</time>
      </trkpt>
      <trkpt lat="45.38239" lon="2.93893">
        <ele>1266.1</ele>
        <time>2021-08-25T08:42:53Z</time>
      </trkpt>
      <trkpt lat="45.38241" lon="2.93891">
        <ele>1266.3</ele>
        <time>2021-08-25T08:43:13Z</time>
      </trkpt>
      <trkpt lat="45.38242" lon="2.93888">
        <ele>1266.6</ele>
        <time>2021-08-25T08:43:15Z</time>
      </trkpt>
      <trkpt lat="45.38243" lon="2.93885">
        <ele>1266.9</ele>
        <time>2021-08-25T08:43:17Z</time>
      </trkpt>
      <trkpt lat="45.38244" lon="2.93882">
        <ele>1267.2</ele>
        <time>2021-08-25T08:43:19Z</time>
      </trkpt>
      <trkpt lat="45.38245" lon="2.93879">
        <ele>1267.4</ele>
        <time>2021-08-25T08:43:21Z</time>
      </trkpt>
      <trkpt lat="45.38246" lon="2.93877">
        <ele>1267.6</ele>
        <time>2021-08-25T08:43:23Z</time>
      </trkpt>
      <trkpt lat="45.38247" lon="2.93874">
        <ele>1267.9</ele>
        <time>2021-08-25T08:43:25Z</time>
      </trkpt>
      <trkpt lat="45.38247" lon="2.93872">
        <ele>1268.1</ele>
        <time>2021-08-25T08:43:27Z</time>
      </trkpt>
      <trkpt lat="45.38248" lon="2.93869">
        <ele>1268.3</ele>
        <time>2021-08-25T08:43:29Z</time>
      </trkpt>
      <trkpt lat="45.38249" lon="2.93867">
        <ele>1268.5</ele>
        <time>2021-08-25T08:43:31Z</time>
      </trkpt>
      <trkpt lat="45.3825" lon="2.93865">
        <ele>1268.7</ele>
        <time>2021-08-25T08:43:33Z</time>
      </trkpt>
      <trkpt lat="45.3825" lon="2.93862">
        <ele>1268.9</ele>
        <time>2021-08-25T08:43:35Z</time>
      </trkpt>
      <trkpt lat="45.38251" lon="2.93861">
        <ele>1269</ele>
        <time>2021-08-25T08:43:37Z</time>
      </trkpt>
      <trkpt lat="45.38252" lon="2.93859">
        <ele>1269.1</ele>
        <time>2021-08-25T08:43:39Z</time>
      </trkpt>
      <trkpt lat="45.38253" lon="2.93857">
        <ele>1269.3</ele>
        <time>2021-08-25T08:43:41Z</time>
      </trkpt>
      <trkpt lat="45.38271" lon="2.93824">
        <ele>1270.4</ele>
        <time>2021-08-25T09:01:51Z</time>
      </trkpt>
      <trkpt lat="45.38272" lon="2.93821">
        <ele>1270.4</ele>
        <time>2021-08-25T09:01:53Z</time>
      </trkpt>
      <trkpt lat="45.38274" lon="2.93817">
        <ele>1270.3</ele>
        <time>2021-08-25T09:01:55Z</time>
      </trkpt>
      <trkpt lat="45.38276" lon="2.93814">
        <ele>1270.3</ele>
        <time>2021-08-25T09:01:57Z</time>
      </trkpt>
      <trkpt lat="45.38278" lon="2.9381">
        <ele>1270.2</ele>
        <time>2021-08-25T09:01:59Z</time>
      </trkpt>
      <trkpt lat="45.38279" lon="2.93807">
        <ele>1270.2</ele>
        <time>2021-08-25T09:02:01Z</time>
      </trkpt>
      <trkpt lat="45.3828" lon="2.93804">
        <ele>1270.2</ele>
        <time>2021-08-25T09:02:03Z</time>
      </trkpt>
      <trkpt lat="45.38282" lon="2.93801">
        <ele>1270.1</ele>
        <time>2021-08-25T09:02:05Z</time>
      </trkpt>
      <trkpt lat="45.38283" lon="2.93798">
        <ele>1270.1</ele>
        <time>2021-08-25T09:02:07Z</time>
      </trkpt>
      <trkpt lat="45.38284" lon="2.93796">
        <ele>1270.1</ele>
        <time>2021-08-25T09:02:09Z</time>
      </trkpt>
      <trkpt lat="45.38285" lon="2.93793">
        <ele>1270.1</ele>
        <time>2021-08-25T09:02:11Z</time>
      </trkpt>
      <trkpt lat="45.38286" lon="2.93791">
        <ele>1270.1</ele>
        <time>2021-08-25T09:02:13Z</time>
      </trkpt>
      <trkpt lat="45.38288" lon="2.93788">
        <ele>1270</ele>
        <time>2021-08-25T09:02:15Z</time>
      </trkpt>
      <trkpt lat="45.38289" lon="2.93784">
        <ele>1270</ele>
        <time>2021-08-25T09:02:17Z</time>
      </trkpt>
      <trkpt lat="45.38291" lon="2.93781">
        <ele>1270</ele>
        <time>2021-08-25T09:02:19Z</time>
      </trkpt>
      <trkpt lat="45.38292" lon="2.93777">
        <ele>1270</ele>
        <time>2021-08-25T09:02:21Z</time>
      </trkpt>
      <trkpt lat="45.38294" lon="2.93773">
        <ele>1270</ele>
        <time>2021-08-25T09:02:23Z</time>
      </trkpt>
      <trkpt lat="45.38295" lon="2.93769">
        <ele>1270</ele>
        <time>2021-08-25T09:02:25Z</time>
      </trkpt>
      <trkpt lat="45.38297" lon="2.93766">
        <ele>1270</ele>
        <time>2021-08-25T09:02:27Z</time>
      </trkpt>
      <trkpt lat="45.38298" lon="2.93763">
        <ele>1270</ele>
        <time>2021-08-25T09:02:29Z</time>
      </trkpt>
      <trkpt lat="45.383" lon="2.93758">
        <ele>1270</ele>
        <time>2021-08-25T09:02:31Z</time>
      </trkpt>
      <trkpt lat="45.38302" lon="2.93755">
        <ele>1270</ele>
        <time>2021-08-25T09:02:33Z</time>
      </trkpt>
      <trkpt lat="45.38303" lon="2.93752">
        <ele>1270</ele>
        <time>2021-08-25T09:02:35Z</time>
      </trkpt>
      <trkpt lat="45.38304" lon="2.93749">
        <ele>1270</ele>
        <time>2021-08-25T09:02:37Z</time>
      </trkpt>
      <trkpt lat="45.38307" lon="2.93744">
        <ele>1269.8</ele>
        <time>2021-08-25T09:02:39Z</time>
      </trkpt>
      <trkpt lat="45.38308" lon="2.93742">
        <ele>1269.8</ele>
        <time>2021-08-25T09:02:41Z</time>
      </trkpt>
      <trkpt lat="45.3831" lon="2.93737">
        <ele>1269.7</ele>
        <time>2021-08-25T09:02:43Z</time>
      </trkpt>
      <trkpt lat="45.38312" lon="2.93732">
        <ele>1269.5</ele>
        <time>2021-08-25T09:02:45Z</time>
      </trkpt>
      <trkpt lat="45.38314" lon="2.93726">
        <ele>1269.4</ele>
        <time>2021-08-25T09:02:47Z</time>
      </trkpt>
      <trkpt lat="45.38317" lon="2.93721">
        <ele>1269.2</ele>
        <time>2021-08-25T09:02:49Z</time>
      </trkpt>
      <trkpt lat="45.3832" lon="2.93715">
        <ele>1269.1</ele>
        <time>2021-08-25T09:02:51Z</time>
      </trkpt>
      <trkpt lat="45.38321" lon="2.93713">
        <ele>1269</ele>
        <time>2021-08-25T09:02:53Z</time>
      </trkpt>
      <trkpt lat="45.38321" lon="2.93712">
        <ele>1269</ele>
        <time>2021-08-25T09:02:55Z</time>
      </trkpt>
      <trkpt lat="45.38322" lon="2.93709">
        <ele>1268.9</ele>
        <time>2021-08-25T09:02:57Z</time>
      </trkpt>
      <trkpt lat="45.38323" lon="2.93707">
        <ele>1268.9</ele>
        <time>2021-08-25T09:02:59Z</time>
      </trkpt>
      <trkpt lat="45.38324" lon="2.93705">
        <ele>1268.9</ele>
        <time>2021-08-25T09:03:01Z</time>
      </trkpt>
      <trkpt lat="45.38325" lon="2.93703">
        <ele>1268.8</ele>
        <time>2021-08-25T09:03:03Z</time>
      </trkpt>
      <trkpt lat="45.38326" lon="2.93701">
        <ele>1268.8</ele>
        <time>2021-08-25T09:03:05Z</time>
      </trkpt>
      <trkpt lat="45.38326" lon="2.937">
        <ele>1268.7</ele>
        <time>2021-08-25T09:03:07Z</time>
      </trkpt>
      <trkpt lat="45.38355" lon="2.93655">
        <ele>1267.5</ele>
        <time>2021-08-25T09:15:21Z</time>
      </trkpt>
      <trkpt lat="45.38357" lon="2.93652">
        <ele>1267.4</ele>
        <time>2021-08-25T09:15:23Z</time>
      </trkpt>
      <trkpt lat="45.3836" lon="2.9365">
        <ele>1267.2</ele>
        <time>2021-08-25T09:15:25Z</time>
      </trkpt>
      <trkpt lat="45.38362" lon="2.93647">
        <ele>1267.1</ele>
        <time>2021-08-25T09:15:27Z</time>
      </trkpt>
      <trkpt lat="45.38364" lon="2.93643">
        <ele>1266.9</ele>
        <time>2021-08-25T09:15:29Z</time>
      </trkpt>
      <trkpt lat="45.38367" lon="2.93641">
        <ele>1266.8</ele>
        <time>2021-08-25T09:15:31Z</time>
      </trkpt>
      <trkpt lat="45.3837" lon="2.93639">
        <ele>1266.7</ele>
        <time>2021-08-25T09:15:33Z</time>
      </trkpt>
      <trkpt lat="45.38372" lon="2.93634">
        <ele>1266.5</ele>
        <time>2021-08-25T09:15:35Z</time>
      </trkpt>
      <trkpt lat="45.38374" lon="2.93633">
        <ele>1266.5</ele>
        <time>2021-08-25T09:15:37Z</time>
      </trkpt>
      <trkpt lat="45.38377" lon="2.9363">
        <ele>1266.3</ele>
        <time>2021-08-25T09:15:39Z</time>
      </trkpt>
      <trkpt lat="45.3838" lon="2.93627">
        <ele>1266.2</ele>
        <time>2021-08-25T09:15:41Z</time>
      </trkpt>
      <trkpt lat="45.38383" lon="2.93623">
        <ele>1266.1</ele>
        <time>2021-08-25T09:15:43Z</time>
      </trkpt>
      <trkpt lat="45.38386" lon="2.9362">
        <ele>1266</ele>
        <time>2021-08-25T09:15:45Z</time>
      </trkpt>
      <trkpt lat="45.38389" lon="2.93618">
        <ele>1265.9</ele>
        <time>2021-08-25T09:15:47Z</time>
      </trkpt>
      <trkpt lat="45.38392" lon="2.93614">
        <ele>1265.8</ele>
        <time>2021-08-25T09:15:49Z</time>
      </trkpt>
      <trkpt lat="45.38395" lon="2.93611">
        <ele>1265.7</ele>
        <time>2021-08-25T09:15:51Z</time>
      </trkpt>
      <trkpt lat="45.38398" lon="2.93607">
        <ele>1265.6</ele>
        <time>2021-08-25T09:15:53Z</time>
      </trkpt>
      <trkpt lat="45.38401" lon="2.93604">
        <ele>1265.5</ele>
        <time>2021-08-25T09:15:55Z</time>
      </trkpt>
      <trkpt lat="45.38404" lon="2.93602">
        <ele>1265.5</ele>
        <time>2021-08-25T09:15:57Z</time>
      </trkpt>
      <trkpt lat="45.38407" lon="2.93598">
        <ele>1265.4</ele>
        <time>2021-08-25T09:15:59Z</time>
      </trkpt>
      <trkpt lat="45.38411" lon="2.93594">
        <ele>1265.3</ele>
        <time>2021-08-25T09:16:01Z</time>
      </trkpt>
      <trkpt lat="45.38414" lon="2.93591">
        <ele>1265.3</ele>
        <time>2021-08-25T09:16:03Z</time>
      </trkpt>
      <trkpt lat="45.38417" lon="2.93588">
        <ele>1265.2</ele>
        <time>2021-08-25T09:16:05Z</time>
      </trkpt>
      <trkpt lat="45.38421" lon="2.93584">
        <ele>1264.9</ele>
        <time>2021-08-25T09:16:07Z</time>
      </trkpt>
      <trkpt lat="45.38425" lon="2.93581">
        <ele>1264.5</ele>
        <time>2021-08-25T09:16:09Z</time>
      </trkpt>
      <trkpt lat="45.38428" lon="2.93578">
        <ele>1264.1</ele>
        <time>2021-08-25T09:16:11Z</time>
      </trkpt>
      <trkpt lat="45.38431" lon="2.93574">
        <ele>1263.7</ele>
        <time>2021-08-25T09:16:13Z</time>
      </trkpt>
      <trkpt lat="45.38434" lon="2.9357">
        <ele>1263.2</ele>
        <time>2021-08-25T09:16:15Z</time>
      </trkpt>
      <trkpt lat="45.38438" lon="2.93566">
        <ele>1262.8</ele>
        <time>2021-08-25T09:16:17Z</time>
      </trkpt>
      <trkpt lat="45.38441" lon="2.93563">
        <ele>1262.4</ele>
        <time>2021-08-25T09:16:19Z</time>
      </trkpt>
      <trkpt lat="45.38444" lon="2.9356">
        <ele>1262</ele>
        <time>2021-08-25T09:16:21Z</time>
      </trkpt>
      <trkpt lat="45.38448" lon="2.93556">
        <ele>1261.6</ele>
        <time>2021-08-25T09:16:23Z</time>
      </trkpt>
      <trkpt lat="45.38451" lon="2.93552">
        <ele>1261.2</ele>
        <time>2021-08-25T09:16:25Z</time>
      </trkpt>
      <trkpt lat="45.38454" lon="2.93547">
        <ele>1260.6</ele>
        <time>2021-08-25T09:16:27Z</time>
      </trkpt>
      <trkpt lat="45.38457" lon="2.93543">
        <ele>1260.2</ele>
        <time>2021-08-25T09:16:29Z</time>
      </trkpt>
      <trkpt lat="45.3846" lon="2.93539">
        <ele>1259.7</ele>
        <time>2021-08-25T09:16:31Z</time>
      </trkpt>
      <trkpt lat="45.38462" lon="2.93534">
        <ele>1259.2</ele>
        <time>2021-08-25T09:16:33Z</time>
      </trkpt>
      <trkpt lat="45.38465" lon="2.9353">
        <ele>1258.8</ele>
        <time>2021-08-25T09:16:35Z</time>
      </trkpt>
      <trkpt lat="45.38468" lon="2.93526">
        <ele>1258.3</ele>
        <time>2021-08-25T09:16:37Z</time>
      </trkpt>
      <trkpt lat="45.3847" lon="2.93522">
        <ele>1257.9</ele>
        <time>2021-08-25T09:16:39Z</time>
      </trkpt>
      <trkpt lat="45.38473" lon="2.93518">
        <ele>1257.5</ele>
        <time>2021-08-25T09:16:41Z</time>
      </trkpt>
      <trkpt lat="45.38476" lon="2.93514">
        <ele>1257.1</ele>
        <time>2021-08-25T09:16:43Z</time>
      </trkpt>
      <trkpt lat="45.38478" lon="2.93509">
        <ele>1256.6</ele>
        <time>2021-08-25T09:16:45Z</time>
      </trkpt>
      <trkpt lat="45.38481" lon="2.93505">
        <ele>1256.1</ele>
        <time>2021-08-25T09:16:47Z</time>
      </trkpt>
      <trkpt lat="45.38484" lon="2.935">
        <ele>1255.6</ele>
        <time>2021-08-25T09:16:49Z</time>
      </trkpt>
      <trkpt lat="45.38487" lon="2.93497">
        <ele>1255.2</ele>
        <time>2021-08-25T09:16:51Z</time>
      </trkpt>
      <trkpt lat="45.3849" lon="2.93493">
        <ele>1254.8</ele>
        <time>2021-08-25T09:16:53Z</time>
      </trkpt>
      <trkpt lat="45.38492" lon="2.93489">
        <ele>1254.4</ele>
        <time>2021-08-25T09:16:55Z</time>
      </trkpt>
      <trkpt lat="45.38496" lon="2.93484">
        <ele>1253.8</ele>
        <time>2021-08-25T09:16:57Z</time>
      </trkpt>
      <trkpt lat="45.38499" lon="2.93479">
        <ele>1253.3</ele>
        <time>2021-08-25T09:16:59Z</time>
      </trkpt>
      <trkpt lat="45.38502" lon="2.93475">
        <ele>1252.7</ele>
        <time>2021-08-25T09:17:01Z</time>
      </trkpt>
      <trkpt lat="45.38506" lon="2.9347">
        <ele>1252.2</ele>
        <time>2021-08-25T09:17:03Z</time>
      </trkpt>
      <trkpt lat="45.38509" lon="2.93465">
        <ele>1251.6</ele>
        <time>2021-08-25T09:17:05Z</time>
      </trkpt>
      <trkpt lat="45.38512" lon="2.9346">
        <ele>1251.1</ele>
        <time>2021-08-25T09:17:07Z</time>
      </trkpt>
      <trkpt lat="45.38515" lon="2.93456">
        <ele>1250.6</ele>
        <time>2021-08-25T09:17:09Z</time>
      </trkpt>
      <trkpt lat="45.38517" lon="2.93454">
        <ele>1250.3</ele>
        <time>2021-08-25T09:17:11Z</time>
      </trkpt>
      <trkpt lat="45.38519" lon="2.93451">
        <ele>1250</ele>
        <time>2021-08-25T09:17:13Z</time>
      </trkpt>
      <trkpt lat="45.38522" lon="2.93448">
        <ele>1249.7</ele>
        <time>2021-08-25T09:17:15Z</time>
      </trkpt>
      <trkpt lat="45.38524" lon="2.93445">
        <ele>1249.3</ele>
        <time>2021-08-25T09:17:17Z</time>
      </trkpt>
      <trkpt lat="45.38525" lon="2.93442">
        <ele>1249</ele>
        <time>2021-08-25T09:17:19Z</time>
      </trkpt>
      <trkpt lat="45.38527" lon="2.9344">
        <ele>1248.8</ele>
        <time>2021-08-25T09:17:21Z</time>
      </trkpt>
      <trkpt lat="45.3853" lon="2.93439">
        <ele>1248.6</ele>
        <time>2021-08-25T09:17:23Z</time>
      </trkpt>
      <trkpt lat="45.38533" lon="2.93438">
        <ele>1248.4</ele>
        <time>2021-08-25T09:17:25Z</time>
      </trkpt>
      <trkpt lat="45.38536" lon="2.93436">
        <ele>1248.1</ele>
        <time>2021-08-25T09:17:27Z</time>
      </trkpt>
      <trkpt lat="45.38538" lon="2.93434">
        <ele>1247.9</ele>
        <time>2021-08-25T09:17:29Z</time>
      </trkpt>
      <trkpt lat="45.3854" lon="2.93432">
        <ele>1247.7</ele>
        <time>2021-08-25T09:17:31Z</time>
      </trkpt>
      <trkpt lat="45.38542" lon="2.9343">
        <ele>1247.4</ele>
        <time>2021-08-25T09:17:33Z</time>
      </trkpt>
      <trkpt lat="45.38543" lon="2.93425">
        <ele>1247.1</ele>
        <time>2021-08-25T09:17:35Z</time>
      </trkpt>
      <trkpt lat="45.38544" lon="2.9342">
        <ele>1246.7</ele>
        <time>2021-08-25T09:17:37Z</time>
      </trkpt>
      <trkpt lat="45.38548" lon="2.93416">
        <ele>1246.2</ele>
        <time>2021-08-25T09:17:39Z</time>
      </trkpt>
      <trkpt lat="45.38552" lon="2.93413">
        <ele>1245.9</ele>
        <time>2021-08-25T09:17:41Z</time>
      </trkpt>
      <trkpt lat="45.38555" lon="2.93409">
        <ele>1245.6</ele>
        <time>2021-08-25T09:17:43Z</time>
      </trkpt>
      <trkpt lat="45.38557" lon="2.93404">
        <ele>1245.3</ele>
        <time>2021-08-25T09:17:45Z</time>
      </trkpt>
      <trkpt lat="45.38559" lon="2.934">
        <ele>1245.1</ele>
        <time>2021-08-25T09:17:47Z</time>
      </trkpt>
      <trkpt lat="45.38561" lon="2.93396">
        <ele>1244.8</ele>
        <time>2021-08-25T09:17:49Z</time>
      </trkpt>
      <trkpt lat="45.38564" lon="2.93393">
        <ele>1244.6</ele>
        <time>2021-08-25T09:17:51Z</time>
      </trkpt>
      <trkpt lat="45.38567" lon="2.9339">
        <ele>1244.4</ele>
        <time>2021-08-25T09:17:53Z</time>
      </trkpt>
      <trkpt lat="45.3857" lon="2.93388">
        <ele>1244.2</ele>
        <time>2021-08-25T09:17:55Z</time>
      </trkpt>
      <trkpt lat="45.38573" lon="2.93386">
        <ele>1244.1</ele>
        <time>2021-08-25T09:17:57Z</time>
      </trkpt>
      <trkpt lat="45.38574" lon="2.93386">
        <ele>1244.1</ele>
        <time>2021-08-25T09:17:59Z</time>
      </trkpt>
      <trkpt lat="45.38573" lon="2.93386">
        <ele>1244.1</ele>
        <time>2021-08-25T09:18:01Z</time>
      </trkpt>
      <trkpt lat="45.38573" lon="2.93386">
        <ele>1244.1</ele>
        <time>2021-08-25T09:18:03Z</time>
      </trkpt>
      <trkpt lat="45.38573" lon="2.93387">
        <ele>1244.1</ele>
        <time>2021-08-25T09:18:05Z</time>
      </trkpt>
      <trkpt lat="45.38573" lon="2.93387">
        <ele>1244.1</ele>
        <time>2021-08-25T09:18:07Z</time>
      </trkpt>
      <trkpt lat="45.38583" lon="2.93371">
        <ele>1243.4</ele>
        <time>2021-08-25T09:21:09Z</time>
      </trkpt>
      <trkpt lat="45.38586" lon="2.93369">
        <ele>1243.2</ele>
        <time>2021-08-25T09:21:11Z</time>
      </trkpt>
      <trkpt lat="45.38589" lon="2.93365">
        <ele>1243</ele>
        <time>2021-08-25T09:21:13Z</time>
      </trkpt>
      <trkpt lat="45.38591" lon="2.93361">
        <ele>1242.9</ele>
        <time>2021-08-25T09:21:15Z</time>
      </trkpt>
      <trkpt lat="45.38593" lon="2.93358">
        <ele>1242.7</ele>
        <time>2021-08-25T09:21:17Z</time>
      </trkpt>
      <trkpt lat="45.38596" lon="2.93356">
        <ele>1242.6</ele>
        <time>2021-08-25T09:21:19Z</time>
      </trkpt>
      <trkpt lat="45.38598" lon="2.93352">
        <ele>1242.4</ele>
        <time>2021-08-25T09:21:21Z</time>
      </trkpt>
      <trkpt lat="45.38601" lon="2.93348">
        <ele>1242.2</ele>
        <time>2021-08-25T09:21:23Z</time>
      </trkpt>
      <trkpt lat="45.38604" lon="2.93344">
        <ele>1241.9</ele>
        <time>2021-08-25T09:21:25Z</time>
      </trkpt>
      <trkpt lat="45.38607" lon="2.9334">
        <ele>1241.7</ele>
        <time>2021-08-25T09:21:27Z</time>
      </trkpt>
      <trkpt lat="45.3861" lon="2.93337">
        <ele>1241.5</ele>
        <time>2021-08-25T09:21:29Z</time>
      </trkpt>
      <trkpt lat="45.38613" lon="2.93333">
        <ele>1241.2</ele>
        <time>2021-08-25T09:21:31Z</time>
      </trkpt>
      <trkpt lat="45.38616" lon="2.93329">
        <ele>1240.9</ele>
        <time>2021-08-25T09:21:33Z</time>
      </trkpt>
      <trkpt lat="45.38619" lon="2.93326">
        <ele>1240.6</ele>
        <time>2021-08-25T09:21:35Z</time>
      </trkpt>
      <trkpt lat="45.38622" lon="2.93323">
        <ele>1240.3</ele>
        <time>2021-08-25T09:21:37Z</time>
      </trkpt>
      <trkpt lat="45.38625" lon="2.93319">
        <ele>1239.9</ele>
        <time>2021-08-25T09:21:39Z</time>
      </trkpt>
      <trkpt lat="45.38629" lon="2.93314">
        <ele>1239.5</ele>
        <time>2021-08-25T09:21:41Z</time>
      </trkpt>
      <trkpt lat="45.38632" lon="2.9331">
        <ele>1239.2</ele>
        <time>2021-08-25T09:21:43Z</time>
      </trkpt>
      <trkpt lat="45.38634" lon="2.93307">
        <ele>1238.9</ele>
        <time>2021-08-25T09:21:45Z</time>
      </trkpt>
      <trkpt lat="45.38636" lon="2.93304">
        <ele>1238.6</ele>
        <time>2021-08-25T09:21:47Z</time>
      </trkpt>
      <trkpt lat="45.38639" lon="2.93301">
        <ele>1238.3</ele>
        <time>2021-08-25T09:21:49Z</time>
      </trkpt>
      <trkpt lat="45.3864" lon="2.933">
        <ele>1238.3</ele>
        <time>2021-08-25T09:21:51Z</time>
      </trkpt>
      <trkpt lat="45.38641" lon="2.93297">
        <ele>1238</ele>
        <time>2021-08-25T09:21:53Z</time>
      </trkpt>
      <trkpt lat="45.38644" lon="2.93294">
        <ele>1237.7</ele>
        <time>2021-08-25T09:21:55Z</time>
      </trkpt>
      <trkpt lat="45.38647" lon="2.93291">
        <ele>1237.4</ele>
        <time>2021-08-25T09:21:57Z</time>
      </trkpt>
      <trkpt lat="45.38649" lon="2.93287">
        <ele>1237.1</ele>
        <time>2021-08-25T09:21:59Z</time>
      </trkpt>
      <trkpt lat="45.38652" lon="2.93285">
        <ele>1236.9</ele>
        <time>2021-08-25T09:22:01Z</time>
      </trkpt>
      <trkpt lat="45.38656" lon="2.93282">
        <ele>1236.5</ele>
        <time>2021-08-25T09:22:03Z</time>
      </trkpt>
      <trkpt lat="45.3866" lon="2.93277">
        <ele>1236.1</ele>
        <time>2021-08-25T09:22:05Z</time>
      </trkpt>
      <trkpt lat="45.38664" lon="2.93274">
        <ele>1235.8</ele>
        <time>2021-08-25T09:22:07Z</time>
      </trkpt>
      <trkpt lat="45.38668" lon="2.9327">
        <ele>1235.5</ele>
        <time>2021-08-25T09:22:09Z</time>
      </trkpt>
      <trkpt lat="45.38672" lon="2.93265">
        <ele>1235.2</ele>
        <time>2021-08-25T09:22:11Z</time>
      </trkpt>
      <trkpt lat="45.38675" lon="2.93262">
        <ele>1235</ele>
        <time>2021-08-25T09:22:13Z</time>
      </trkpt>
      <trkpt lat="45.38676" lon="2.93259">
        <ele>1234.9</ele>
        <time>2021-08-25T09:22:15Z</time>
      </trkpt>
      <trkpt lat="45.38677" lon="2.93257">
        <ele>1234.7</ele>
        <time>2021-08-25T09:22:17Z</time>
      </trkpt>
      <trkpt lat="45.38679" lon="2.93254">
        <ele>1234.6</ele>
        <time>2021-08-25T09:22:19Z</time>
      </trkpt>
      <trkpt lat="45.38682" lon="2.93251">
        <ele>1234.4</ele>
        <time>2021-08-25T09:22:21Z</time>
      </trkpt>
      <trkpt lat="45.38684" lon="2.93249">
        <ele>1234.4</ele>
        <time>2021-08-25T09:22:23Z</time>
      </trkpt>
      <trkpt lat="45.38687" lon="2.93246">
        <ele>1234.3</ele>
        <time>2021-08-25T09:22:25Z</time>
      </trkpt>
      <trkpt lat="45.3869" lon="2.93242">
        <ele>1234.2</ele>
        <time>2021-08-25T09:22:27Z</time>
      </trkpt>
      <trkpt lat="45.38693" lon="2.93238">
        <ele>1234.2</ele>
        <time>2021-08-25T09:22:29Z</time>
      </trkpt>
      <trkpt lat="45.38695" lon="2.93236">
        <ele>1234.1</ele>
        <time>2021-08-25T09:22:31Z</time>
      </trkpt>
      <trkpt lat="45.38698" lon="2.93234">
        <ele>1234.1</ele>
        <time>2021-08-25T09:22:33Z</time>
      </trkpt>
      <trkpt lat="45.38699" lon="2.9323">
        <ele>1234</ele>
        <time>2021-08-25T09:22:35Z</time>
      </trkpt>
      <trkpt lat="45.38702" lon="2.93226">
        <ele>1234</ele>
        <time>2021-08-25T09:22:37Z</time>
      </trkpt>
      <trkpt lat="45.38705" lon="2.93222">
        <ele>1233.9</ele>
        <time>2021-08-25T09:22:39Z</time>
      </trkpt>
      <trkpt lat="45.38707" lon="2.93219">
        <ele>1233.9</ele>
        <time>2021-08-25T09:22:41Z</time>
      </trkpt>
      <trkpt lat="45.3871" lon="2.93217">
        <ele>1233.8</ele>
        <time>2021-08-25T09:22:43Z</time>
      </trkpt>
      <trkpt lat="45.3871" lon="2.93217">
        <ele>1233.9</ele>
        <time>2021-08-25T09:22:45Z</time>
      </trkpt>
      <trkpt lat="45.3871" lon="2.93217">
        <ele>1233.9</ele>
        <time>2021-08-25T09:22:47Z</time>
      </trkpt>
      <trkpt lat="45.3871" lon="2.93217">
        <ele>1233.9</ele>
        <time>2021-08-25T09:22:49Z</time>
      </trkpt>
      <trkpt lat="45.3871" lon="2.93217">
        <ele>1233.9</ele>
        <time>2021-08-25T09:22:51Z</time>
      </trkpt>
      <trkpt lat="45.38728" lon="2.93198">
        <ele>1233.9</ele>
        <time>2021-08-25T09:25:47Z</time>
      </trkpt>
      <trkpt lat="45.38729" lon="2.93196">
        <ele>1233.9</ele>
        <time>2021-08-25T09:25:49Z</time>
      </trkpt>
      <trkpt lat="45.38731" lon="2.93193">
        <ele>1233.9</ele>
        <time>2021-08-25T09:25:51Z</time>
      </trkpt>
      <trkpt lat="45.38733" lon="2.93192">
        <ele>1233.9</ele>
        <time>2021-08-25T09:25:53Z</time>
      </trkpt>
      <trkpt lat="45.38735" lon="2.9319">
        <ele>1233.9</ele>
        <time>2021-08-25T09:25:55Z</time>
      </trkpt>
      <trkpt lat="45.38736" lon="2.93187">
        <ele>1233.9</ele>
        <time>2021-08-25T09:25:57Z</time>
      </trkpt>
      <trkpt lat="45.38738" lon="2.93185">
        <ele>1233.9</ele>
        <time>2021-08-25T09:25:59Z</time>
      </trkpt>
      <trkpt lat="45.3874" lon="2.93182">
        <ele>1233.9</ele>
        <time>2021-08-25T09:26:01Z</time>
      </trkpt>
      <trkpt lat="45.38741" lon="2.9318">
        <ele>1233.9</ele>
        <time>2021-08-25T09:26:03Z</time>
      </trkpt>
      <trkpt lat="45.38743" lon="2.93178">
        <ele>1234</ele>
        <time>2021-08-25T09:26:05Z</time>
      </trkpt>
      <trkpt lat="45.38745" lon="2.93176">
        <ele>1234</ele>
        <time>2021-08-25T09:26:07Z</time>
      </trkpt>
      <trkpt lat="45.38747" lon="2.93174">
        <ele>1234</ele>
        <time>2021-08-25T09:26:09Z</time>
      </trkpt>
      <trkpt lat="45.38748" lon="2.93173">
        <ele>1234.1</ele>
        <time>2021-08-25T09:26:11Z</time>
      </trkpt>
      <trkpt lat="45.3875" lon="2.93171">
        <ele>1234.1</ele>
        <time>2021-08-25T09:26:13Z</time>
      </trkpt>
      <trkpt lat="45.38751" lon="2.9317">
        <ele>1234.1</ele>
        <time>2021-08-25T09:26:15Z</time>
      </trkpt>
      <trkpt lat="45.38751" lon="2.93169">
        <ele>1234.1</ele>
        <time>2021-08-25T09:26:17Z</time>
      </trkpt>
      <trkpt lat="45.38752" lon="2.93168">
        <ele>1234.1</ele>
        <time>2021-08-25T09:26:19Z</time>
      </trkpt>
      <trkpt lat="45.38752" lon="2.93166">
        <ele>1234.1</ele>
        <time>2021-08-25T09:26:21Z</time>
      </trkpt>
      <trkpt lat="45.38753" lon="2.93163">
        <ele>1234.1</ele>
        <time>2021-08-25T09:26:23Z</time>
      </trkpt>
      <trkpt lat="45.38753" lon="2.9316">
        <ele>1234</ele>
        <time>2021-08-25T09:26:25Z</time>
      </trkpt>
      <trkpt lat="45.38754" lon="2.93157">
        <ele>1234</ele>
        <time>2021-08-25T09:26:27Z</time>
      </trkpt>
      <trkpt lat="45.38754" lon="2.93153">
        <ele>1233.9</ele>
        <time>2021-08-25T09:26:29Z</time>
      </trkpt>
      <trkpt lat="45.38755" lon="2.93151">
        <ele>1233.9</ele>
        <time>2021-08-25T09:26:31Z</time>
      </trkpt>
      <trkpt lat="45.38754" lon="2.93152">
        <ele>1233.9</ele>
        <time>2021-08-25T09:26:33Z</time>
      </trkpt>
      <trkpt lat="45.38755" lon="2.93152">
        <ele>1233.9</ele>
        <time>2021-08-25T09:26:35Z</time>
      </trkpt>
      <trkpt lat="45.38755" lon="2.93149">
        <ele>1233.8</ele>
        <time>2021-08-25T09:26:37Z</time>
      </trkpt>
      <trkpt lat="45.38755" lon="2.93145">
        <ele>1233.8</ele>
        <time>2021-08-25T09:26:39Z</time>
      </trkpt>
      <trkpt lat="45.38756" lon="2.93144">
        <ele>1233.7</ele>
        <time>2021-08-25T09:26:41Z</time>
      </trkpt>
      <trkpt lat="45.38756" lon="2.93145">
        <ele>1233.8</ele>
        <time>2021-08-25T09:26:43Z</time>
      </trkpt>
      <trkpt lat="45.38756" lon="2.93145">
        <ele>1233.8</ele>
        <time>2021-08-25T09:26:45Z</time>
      </trkpt>
      <trkpt lat="45.38756" lon="2.93144">
        <ele>1233.7</ele>
        <time>2021-08-25T09:26:47Z</time>
      </trkpt>
      <trkpt lat="45.38756" lon="2.93142">
        <ele>1233.7</ele>
        <time>2021-08-25T09:26:49Z</time>
      </trkpt>
      <trkpt lat="45.38765" lon="2.93091">
        <ele>1232.6</ele>
        <time>2021-08-25T09:27:27Z</time>
      </trkpt>
      <trkpt lat="45.38766" lon="2.93088">
        <ele>1232.5</ele>
        <time>2021-08-25T09:27:29Z</time>
      </trkpt>
      <trkpt lat="45.38768" lon="2.93084">
        <ele>1232.5</ele>
        <time>2021-08-25T09:27:31Z</time>
      </trkpt>
      <trkpt lat="45.38768" lon="2.9308">
        <ele>1232.3</ele>
        <time>2021-08-25T09:27:33Z</time>
      </trkpt>
      <trkpt lat="45.38768" lon="2.93076">
        <ele>1232.2</ele>
        <time>2021-08-25T09:27:35Z</time>
      </trkpt>
      <trkpt lat="45.38768" lon="2.93072">
        <ele>1232</ele>
        <time>2021-08-25T09:27:37Z</time>
      </trkpt>
      <trkpt lat="45.38768" lon="2.93067">
        <ele>1231.8</ele>
        <time>2021-08-25T09:27:39Z</time>
      </trkpt>
      <trkpt lat="45.38769" lon="2.93061">
        <ele>1231.6</ele>
        <time>2021-08-25T09:27:41Z</time>
      </trkpt>
      <trkpt lat="45.3877" lon="2.93056">
        <ele>1231.4</ele>
        <time>2021-08-25T09:27:43Z</time>
      </trkpt>
      <trkpt lat="45.38771" lon="2.93052">
        <ele>1231.3</ele>
        <time>2021-08-25T09:27:45Z</time>
      </trkpt>
      <trkpt lat="45.38772" lon="2.93046">
        <ele>1231</ele>
        <time>2021-08-25T09:27:47Z</time>
      </trkpt>
      <trkpt lat="45.38772" lon="2.9304">
        <ele>1230.9</ele>
        <time>2021-08-25T09:27:49Z</time>
      </trkpt>
      <trkpt lat="45.38773" lon="2.93035">
        <ele>1230.7</ele>
        <time>2021-08-25T09:27:51Z</time>
      </trkpt>
      <trkpt lat="45.38773" lon="2.9303">
        <ele>1230.5</ele>
        <time>2021-08-25T09:27:53Z</time>
      </trkpt>
      <trkpt lat="45.38773" lon="2.93026">
        <ele>1230.3</ele>
        <time>2021-08-25T09:27:55Z</time>
      </trkpt>
      <trkpt lat="45.38774" lon="2.93021">
        <ele>1230.1</ele>
        <time>2021-08-25T09:27:57Z</time>
      </trkpt>
      <trkpt lat="45.38775" lon="2.93016">
        <ele>1229.9</ele>
        <time>2021-08-25T09:27:59Z</time>
      </trkpt>
      <trkpt lat="45.38776" lon="2.93012">
        <ele>1229.8</ele>
        <time>2021-08-25T09:28:01Z</time>
      </trkpt>
      <trkpt lat="45.38777" lon="2.93007">
        <ele>1229.6</ele>
        <time>2021-08-25T09:28:03Z</time>
      </trkpt>
      <trkpt lat="45.38777" lon="2.93002">
        <ele>1229.4</ele>
        <time>2021-08-25T09:28:05Z</time>
      </trkpt>
      <trkpt lat="45.38778" lon="2.92998">
        <ele>1229.3</ele>
        <time>2021-08-25T09:28:07Z</time>
      </trkpt>
      <trkpt lat="45.3878" lon="2.92996">
        <ele>1229.3</ele>
        <time>2021-08-25T09:28:09Z</time>
      </trkpt>
      <trkpt lat="45.38781" lon="2.92992">
        <ele>1229.2</ele>
        <time>2021-08-25T09:28:11Z</time>
      </trkpt>
      <trkpt lat="45.38782" lon="2.92988">
        <ele>1229.1</ele>
        <time>2021-08-25T09:28:13Z</time>
      </trkpt>
      <trkpt lat="45.38783" lon="2.92984">
        <ele>1229</ele>
        <time>2021-08-25T09:28:15Z</time>
      </trkpt>
      <trkpt lat="45.38783" lon="2.92981">
        <ele>1228.9</ele>
        <time>2021-08-25T09:28:17Z</time>
      </trkpt>
      <trkpt lat="45.38785" lon="2.92977">
        <ele>1228.9</ele>
        <time>2021-08-25T09:28:19Z</time>
      </trkpt>
      <trkpt lat="45.38787" lon="2.92973">
        <ele>1228.8</ele>
        <time>2021-08-25T09:28:21Z</time>
      </trkpt>
      <trkpt lat="45.38787" lon="2.92968">
        <ele>1228.7</ele>
        <time>2021-08-25T09:28:23Z</time>
      </trkpt>
      <trkpt lat="45.38788" lon="2.92963">
        <ele>1228.6</ele>
        <time>2021-08-25T09:28:25Z</time>
      </trkpt>
      <trkpt lat="45.38789" lon="2.92959">
        <ele>1228.5</ele>
        <time>2021-08-25T09:28:27Z</time>
      </trkpt>
      <trkpt lat="45.38789" lon="2.92954">
        <ele>1228.4</ele>
        <time>2021-08-25T09:28:29Z</time>
      </trkpt>
      <trkpt lat="45.38789" lon="2.92949">
        <ele>1228.2</ele>
        <time>2021-08-25T09:28:31Z</time>
      </trkpt>
      <trkpt lat="45.38789" lon="2.92944">
        <ele>1228.1</ele>
        <time>2021-08-25T09:28:33Z</time>
      </trkpt>
      <trkpt lat="45.38788" lon="2.92938">
        <ele>1228</ele>
        <time>2021-08-25T09:28:35Z</time>
      </trkpt>
      <trkpt lat="45.38789" lon="2.92934">
        <ele>1227.9</ele>
        <time>2021-08-25T09:28:37Z</time>
      </trkpt>
      <trkpt lat="45.3879" lon="2.92928">
        <ele>1227.7</ele>
        <time>2021-08-25T09:28:39Z</time>
      </trkpt>
      <trkpt lat="45.38791" lon="2.92923">
        <ele>1227.6</ele>
        <time>2021-08-25T09:28:41Z</time>
      </trkpt>
      <trkpt lat="45.38792" lon="2.92916">
        <ele>1227.5</ele>
        <time>2021-08-25T09:28:43Z</time>
      </trkpt>
      <trkpt lat="45.38793" lon="2.9291">
        <ele>1227.4</ele>
        <time>2021-08-25T09:28:45Z</time>
      </trkpt>
      <trkpt lat="45.38793" lon="2.92905">
        <ele>1227.3</ele>
        <time>2021-08-25T09:28:47Z</time>
      </trkpt>
      <trkpt lat="45.38794" lon="2.929">
        <ele>1227.2</ele>
        <time>2021-08-25T09:28:49Z</time>
      </trkpt>
      <trkpt lat="45.38796" lon="2.92895">
        <ele>1227.2</ele>
        <time>2021-08-25T09:28:51Z</time>
      </trkpt>
      <trkpt lat="45.38797" lon="2.92891">
        <ele>1227.1</ele>
        <time>2021-08-25T09:28:53Z</time>
      </trkpt>
      <trkpt lat="45.38797" lon="2.92887">
        <ele>1227.1</ele>
        <time>2021-08-25T09:28:55Z</time>
      </trkpt>
      <trkpt lat="45.38799" lon="2.92884">
        <ele>1227</ele>
        <time>2021-08-25T09:28:57Z</time>
      </trkpt>
      <trkpt lat="45.38801" lon="2.92882">
        <ele>1227</ele>
        <time>2021-08-25T09:28:59Z</time>
      </trkpt>
      <trkpt lat="45.38801" lon="2.92883">
        <ele>1227</ele>
        <time>2021-08-25T09:29:01Z</time>
      </trkpt>
      <trkpt lat="45.38801" lon="2.92883">
        <ele>1227.1</ele>
        <time>2021-08-25T09:29:03Z</time>
      </trkpt>
      <trkpt lat="45.38803" lon="2.92881">
        <ele>1227.1</ele>
        <time>2021-08-25T09:29:05Z</time>
      </trkpt>
      <trkpt lat="45.38803" lon="2.92881">
        <ele>1227.1</ele>
        <time>2021-08-25T09:29:07Z</time>
      </trkpt>
      <trkpt lat="45.38821" lon="2.92859">
        <ele>1227</ele>
        <time>2021-08-25T09:29:43Z</time>
      </trkpt>
      <trkpt lat="45.38821" lon="2.92856">
        <ele>1227</ele>
        <time>2021-08-25T09:29:45Z</time>
      </trkpt>
      <trkpt lat="45.38821" lon="2.92853">
        <ele>1227</ele>
        <time>2021-08-25T09:29:47Z</time>
      </trkpt>
      <trkpt lat="45.38821" lon="2.9285">
        <ele>1226.9</ele>
        <time>2021-08-25T09:29:49Z</time>
      </trkpt>
      <trkpt lat="45.38822" lon="2.92846">
        <ele>1226.9</ele>
        <time>2021-08-25T09:29:51Z</time>
      </trkpt>
      <trkpt lat="45.38822" lon="2.92843">
        <ele>1226.9</ele>
        <time>2021-08-25T09:29:53Z</time>
      </trkpt>
      <trkpt lat="45.38822" lon="2.9284">
        <ele>1226.8</ele>
        <time>2021-08-25T09:29:55Z</time>
      </trkpt>
      <trkpt lat="45.38823" lon="2.92837">
        <ele>1226.8</ele>
        <time>2021-08-25T09:29:57Z</time>
      </trkpt>
      <trkpt lat="45.38823" lon="2.92834">
        <ele>1226.8</ele>
        <time>2021-08-25T09:29:59Z</time>
      </trkpt>
      <trkpt lat="45.38823" lon="2.92831">
        <ele>1226.7</ele>
        <time>2021-08-25T09:30:01Z</time>
      </trkpt>
      <trkpt lat="45.38823" lon="2.9283">
        <ele>1226.7</ele>
        <time>2021-08-25T09:30:03Z</time>
      </trkpt>
      <trkpt lat="45.38823" lon="2.9283">
        <ele>1226.7</ele>
        <time>2021-08-25T09:30:05Z</time>
      </trkpt>
      <trkpt lat="45.38823" lon="2.9283">
        <ele>1226.7</ele>
        <time>2021-08-25T09:30:07Z</time>
      </trkpt>
      <trkpt lat="45.38823" lon="2.92828">
        <ele>1226.6</ele>
        <time>2021-08-25T09:30:09Z</time>
      </trkpt>
      <trkpt lat="45.38823" lon="2.92823">
        <ele>1226.5</ele>
        <time>2021-08-25T09:30:11Z</time>
      </trkpt>
      <trkpt lat="45.38824" lon="2.92819">
        <ele>1226.4</ele>
        <time>2021-08-25T09:30:13Z</time>
      </trkpt>
      <trkpt lat="45.38824" lon="2.92818">
        <ele>1226.3</ele>
        <time>2021-08-25T09:30:15Z</time>
      </trkpt>
      <trkpt lat="45.38823" lon="2.92817">
        <ele>1226.3</ele>
        <time>2021-08-25T09:30:17Z</time>
      </trkpt>
      <trkpt lat="45.38824" lon="2.92817">
        <ele>1226.3</ele>
        <time>2021-08-25T09:30:19Z</time>
      </trkpt>
      <trkpt lat="45.38824" lon="2.92816">
        <ele>1226.3</ele>
        <time>2021-08-25T09:30:21Z</time>
      </trkpt>
      <trkpt lat="45.38824" lon="2.92812">
        <ele>1226.2</ele>
        <time>2021-08-25T09:30:23Z</time>
      </trkpt>
      <trkpt lat="45.38825" lon="2.92808">
        <ele>1226.1</ele>
        <time>2021-08-25T09:30:25Z</time>
      </trkpt>
      <trkpt lat="45.38825" lon="2.92803">
        <ele>1226</ele>
        <time>2021-08-25T09:30:27Z</time>
      </trkpt>
      <trkpt lat="45.38826" lon="2.92799">
        <ele>1225.9</ele>
        <time>2021-08-25T09:30:29Z</time>
      </trkpt>
      <trkpt lat="45.38829" lon="2.92796">
        <ele>1225.9</ele>
        <time>2021-08-25T09:30:31Z</time>
      </trkpt>
      <trkpt lat="45.38831" lon="2.92793">
        <ele>1225.9</ele>
        <time>2021-08-25T09:30:33Z</time>
      </trkpt>
      <trkpt lat="45.38831" lon="2.92787">
        <ele>1225.8</ele>
        <time>2021-08-25T09:30:35Z</time>
      </trkpt>
      <trkpt lat="45.38832" lon="2.92782">
        <ele>1225.7</ele>
        <time>2021-08-25T09:30:37Z</time>
      </trkpt>
      <trkpt lat="45.38834" lon="2.92778">
        <ele>1225.7</ele>
        <time>2021-08-25T09:30:39Z</time>
      </trkpt>
      <trkpt lat="45.38834" lon="2.92776">
        <ele>1225.6</ele>
        <time>2021-08-25T09:30:41Z</time>
      </trkpt>
      <trkpt lat="45.38834" lon="2.92773">
        <ele>1225.6</ele>
        <time>2021-08-25T09:30:43Z</time>
      </trkpt>
      <trkpt lat="45.38834" lon="2.92768">
        <ele>1225.4</ele>
        <time>2021-08-25T09:30:45Z</time>
      </trkpt>
      <trkpt lat="45.38835" lon="2.92762">
        <ele>1225.3</ele>
        <time>2021-08-25T09:30:47Z</time>
      </trkpt>
      <trkpt lat="45.38837" lon="2.92756">
        <ele>1225.3</ele>
        <time>2021-08-25T09:30:49Z</time>
      </trkpt>
      <trkpt lat="45.38838" lon="2.92751">
        <ele>1225.2</ele>
        <time>2021-08-25T09:30:51Z</time>
      </trkpt>
      <trkpt lat="45.3884" lon="2.92745">
        <ele>1225</ele>
        <time>2021-08-25T09:30:53Z</time>
      </trkpt>
      <trkpt lat="45.3884" lon="2.9274">
        <ele>1224.7</ele>
        <time>2021-08-25T09:30:55Z</time>
      </trkpt>
      <trkpt lat="45.38841" lon="2.92735">
        <ele>1224.4</ele>
        <time>2021-08-25T09:30:57Z</time>
      </trkpt>
      <trkpt lat="45.3884" lon="2.92732">
        <ele>1224.1</ele>
        <time>2021-08-25T09:30:59Z</time>
      </trkpt>
      <trkpt lat="45.3884" lon="2.92728">
        <ele>1223.9</ele>
        <time>2021-08-25T09:31:01Z</time>
      </trkpt>
      <trkpt lat="45.3884" lon="2.92725">
        <ele>1223.8</ele>
        <time>2021-08-25T09:31:03Z</time>
      </trkpt>
      <trkpt lat="45.38841" lon="2.92724">
        <ele>1223.7</ele>
        <time>2021-08-25T09:31:05Z</time>
      </trkpt>
      <trkpt lat="45.38841" lon="2.92719">
        <ele>1223.5</ele>
        <time>2021-08-25T09:31:07Z</time>
      </trkpt>
      <trkpt lat="45.38839" lon="2.92714">
        <ele>1223.1</ele>
        <time>2021-08-25T09:31:09Z</time>
      </trkpt>
      <trkpt lat="45.38838" lon="2.92709">
        <ele>1222.8</ele>
        <time>2021-08-25T09:31:11Z</time>
      </trkpt>
      <trkpt lat="45.38838" lon="2.92705">
        <ele>1222.5</ele>
        <time>2021-08-25T09:31:13Z</time>
      </trkpt>
      <trkpt lat="45.38837" lon="2.92701">
        <ele>1222.3</ele>
        <time>2021-08-25T09:31:15Z</time>
      </trkpt>
      <trkpt lat="45.38836" lon="2.92697">
        <ele>1221.9</ele>
        <time>2021-08-25T09:31:17Z</time>
      </trkpt>
      <trkpt lat="45.38835" lon="2.92693">
        <ele>1221.7</ele>
        <time>2021-08-25T09:31:19Z</time>
      </trkpt>
      <trkpt lat="45.38836" lon="2.92688">
        <ele>1221.4</ele>
        <time>2021-08-25T09:31:21Z</time>
      </trkpt>
      <trkpt lat="45.38835" lon="2.92685">
        <ele>1221.2</ele>
        <time>2021-08-25T09:31:23Z</time>
      </trkpt>
      <trkpt lat="45.38834" lon="2.9268">
        <ele>1220.8</ele>
        <time>2021-08-25T09:31:25Z</time>
      </trkpt>
      <trkpt lat="45.38832" lon="2.92677">
        <ele>1220.5</ele>
        <time>2021-08-25T09:31:27Z</time>
      </trkpt>
      <trkpt lat="45.38832" lon="2.92672">
        <ele>1220.2</ele>
        <time>2021-08-25T09:31:29Z</time>
      </trkpt>
      <trkpt lat="45.38832" lon="2.92668">
        <ele>1220</ele>
        <time>2021-08-25T09:31:31Z</time>
      </trkpt>
      <trkpt lat="45.38831" lon="2.92664">
        <ele>1219.6</ele>
        <time>2021-08-25T09:31:33Z</time>
      </trkpt>
      <trkpt lat="45.38832" lon="2.92659">
        <ele>1219.2</ele>
        <time>2021-08-25T09:31:35Z</time>
      </trkpt>
      <trkpt lat="45.38832" lon="2.92655">
        <ele>1218.9</ele>
        <time>2021-08-25T09:31:37Z</time>
      </trkpt>
      <trkpt lat="45.38833" lon="2.92651">
        <ele>1218.6</ele>
        <time>2021-08-25T09:31:39Z</time>
      </trkpt>
      <trkpt lat="45.38832" lon="2.92648">
        <ele>1218.3</ele>
        <time>2021-08-25T09:31:41Z</time>
      </trkpt>
      <trkpt lat="45.38832" lon="2.92649">
        <ele>1218.4</ele>
        <time>2021-08-25T09:31:43Z</time>
      </trkpt>
      <trkpt lat="45.38832" lon="2.92649">
        <ele>1218.4</ele>
        <time>2021-08-25T09:31:45Z</time>
      </trkpt>
      <trkpt lat="45.38832" lon="2.92649">
        <ele>1218.4</ele>
        <time>2021-08-25T09:31:47Z</time>
      </trkpt>
      <trkpt lat="45.38832" lon="2.92649">
        <ele>1218.4</ele>
        <time>2021-08-25T09:31:49Z</time>
      </trkpt>
      <trkpt lat="45.38837" lon="2.92615">
        <ele>1215.9</ele>
        <time>2021-08-25T09:38:55Z</time>
      </trkpt>
      <trkpt lat="45.38839" lon="2.92611">
        <ele>1215.8</ele>
        <time>2021-08-25T09:38:57Z</time>
      </trkpt>
      <trkpt lat="45.3884" lon="2.92607">
        <ele>1215.5</ele>
        <time>2021-08-25T09:38:59Z</time>
      </trkpt>
      <trkpt lat="45.3884" lon="2.92603">
        <ele>1215.2</ele>
        <time>2021-08-25T09:39:01Z</time>
      </trkpt>
      <trkpt lat="45.38841" lon="2.92598">
        <ele>1214.8</ele>
        <time>2021-08-25T09:39:03Z</time>
      </trkpt>
      <trkpt lat="45.38842" lon="2.92594">
        <ele>1214.6</ele>
        <time>2021-08-25T09:39:05Z</time>
      </trkpt>
      <trkpt lat="45.38843" lon="2.9259">
        <ele>1214.3</ele>
        <time>2021-08-25T09:39:07Z</time>
      </trkpt>
      <trkpt lat="45.38843" lon="2.92587">
        <ele>1214.1</ele>
        <time>2021-08-25T09:39:09Z</time>
      </trkpt>
      <trkpt lat="45.38844" lon="2.92583">
        <ele>1213.9</ele>
        <time>2021-08-25T09:39:11Z</time>
      </trkpt>
      <trkpt lat="45.38844" lon="2.9258">
        <ele>1213.7</ele>
        <time>2021-08-25T09:39:13Z</time>
      </trkpt>
      <trkpt lat="45.38845" lon="2.92577">
        <ele>1213.5</ele>
        <time>2021-08-25T09:39:15Z</time>
      </trkpt>
      <trkpt lat="45.38845" lon="2.92574">
        <ele>1213.3</ele>
        <time>2021-08-25T09:39:17Z</time>
      </trkpt>
      <trkpt lat="45.38845" lon="2.92569">
        <ele>1213</ele>
        <time>2021-08-25T09:39:19Z</time>
      </trkpt>
      <trkpt lat="45.38845" lon="2.92565">
        <ele>1212.7</ele>
        <time>2021-08-25T09:39:21Z</time>
      </trkpt>
      <trkpt lat="45.38845" lon="2.92562">
        <ele>1212.4</ele>
        <time>2021-08-25T09:39:23Z</time>
      </trkpt>
      <trkpt lat="45.38845" lon="2.92557">
        <ele>1212</ele>
        <time>2021-08-25T09:39:25Z</time>
      </trkpt>
      <trkpt lat="45.38845" lon="2.92553">
        <ele>1211.8</ele>
        <time>2021-08-25T09:39:27Z</time>
      </trkpt>
      <trkpt lat="45.38845" lon="2.92549">
        <ele>1211.5</ele>
        <time>2021-08-25T09:39:29Z</time>
      </trkpt>
      <trkpt lat="45.38845" lon="2.92546">
        <ele>1211.2</ele>
        <time>2021-08-25T09:39:31Z</time>
      </trkpt>
      <trkpt lat="45.38843" lon="2.92542">
        <ele>1210.9</ele>
        <time>2021-08-25T09:39:33Z</time>
      </trkpt>
      <trkpt lat="45.38842" lon="2.92539">
        <ele>1210.5</ele>
        <time>2021-08-25T09:39:35Z</time>
      </trkpt>
      <trkpt lat="45.38841" lon="2.92534">
        <ele>1210.1</ele>
        <time>2021-08-25T09:39:37Z</time>
      </trkpt>
      <trkpt lat="45.3884" lon="2.9253">
        <ele>1209.7</ele>
        <time>2021-08-25T09:39:39Z</time>
      </trkpt>
      <trkpt lat="45.38839" lon="2.92525">
        <ele>1209.3</ele>
        <time>2021-08-25T09:39:41Z</time>
      </trkpt>
      <trkpt lat="45.38838" lon="2.92519">
        <ele>1208.8</ele>
        <time>2021-08-25T09:39:43Z</time>
      </trkpt>
      <trkpt lat="45.38838" lon="2.92514">
        <ele>1208.3</ele>
        <time>2021-08-25T09:39:45Z</time>
      </trkpt>
      <trkpt lat="45.38839" lon="2.92509">
        <ele>1208</ele>
        <time>2021-08-25T09:39:47Z</time>
      </trkpt>
      <trkpt lat="45.38838" lon="2.92504">
        <ele>1207.6</ele>
        <time>2021-08-25T09:39:49Z</time>
      </trkpt>
      <trkpt lat="45.38838" lon="2.92499">
        <ele>1207.2</ele>
        <time>2021-08-25T09:39:51Z</time>
      </trkpt>
      <trkpt lat="45.38839" lon="2.92493">
        <ele>1207</ele>
        <time>2021-08-25T09:39:53Z</time>
      </trkpt>
      <trkpt lat="45.3884" lon="2.92487">
        <ele>1206.8</ele>
        <time>2021-08-25T09:39:55Z</time>
      </trkpt>
      <trkpt lat="45.3884" lon="2.92482">
        <ele>1206.6</ele>
        <time>2021-08-25T09:39:57Z</time>
      </trkpt>
      <trkpt lat="45.3884" lon="2.92476">
        <ele>1206.3</ele>
        <time>2021-08-25T09:39:59Z</time>
      </trkpt>
      <trkpt lat="45.38839" lon="2.92473">
        <ele>1206.1</ele>
        <time>2021-08-25T09:40:01Z</time>
      </trkpt>
      <trkpt lat="45.38839" lon="2.92471">
        <ele>1206</ele>
        <time>2021-08-25T09:40:03Z</time>
      </trkpt>
      <trkpt lat="45.38839" lon="2.92471">
        <ele>1206</ele>
        <time>2021-08-25T09:40:05Z</time>
      </trkpt>
      <trkpt lat="45.38839" lon="2.92472">
        <ele>1206</ele>
        <time>2021-08-25T09:40:07Z</time>
      </trkpt>
      <trkpt lat="45.38839" lon="2.92471">
        <ele>1206</ele>
        <time>2021-08-25T09:40:09Z</time>
      </trkpt>
      <trkpt lat="45.38839" lon="2.92471">
        <ele>1206</ele>
        <time>2021-08-25T09:40:11Z</time>
      </trkpt>
      <trkpt lat="45.38836" lon="2.9245">
        <ele>1204.7</ele>
        <time>2021-08-25T09:49:31Z</time>
      </trkpt>
      <trkpt lat="45.38833" lon="2.92453">
        <ele>1204.7</ele>
        <time>2021-08-25T09:49:33Z</time>
      </trkpt>
      <trkpt lat="45.38831" lon="2.92456">
        <ele>1204.8</ele>
        <time>2021-08-25T09:49:35Z</time>
      </trkpt>
      <trkpt lat="45.38828" lon="2.9246">
        <ele>1204.8</ele>
        <time>2021-08-25T09:49:37Z</time>
      </trkpt>
      <trkpt lat="45.38825" lon="2.92463">
        <ele>1204.8</ele>
        <time>2021-08-25T09:49:39Z</time>
      </trkpt>
      <trkpt lat="45.38822" lon="2.92465">
        <ele>1204.8</ele>
        <time>2021-08-25T09:49:41Z</time>
      </trkpt>
      <trkpt lat="45.38819" lon="2.92467">
        <ele>1204.7</ele>
        <time>2021-08-25T09:49:43Z</time>
      </trkpt>
      <trkpt lat="45.38817" lon="2.9247">
        <ele>1204.7</ele>
        <time>2021-08-25T09:49:45Z</time>
      </trkpt>
      <trkpt lat="45.38818" lon="2.92473">
        <ele>1204.8</ele>
        <time>2021-08-25T09:49:47Z</time>
      </trkpt>
      <trkpt lat="45.3882" lon="2.92471">
        <ele>1204.9</ele>
        <time>2021-08-25T09:49:49Z</time>
      </trkpt>
      <trkpt lat="45.38823" lon="2.92468">
        <ele>1204.9</ele>
        <time>2021-08-25T09:49:51Z</time>
      </trkpt>
      <trkpt lat="45.38825" lon="2.92466">
        <ele>1205</ele>
        <time>2021-08-25T09:49:53Z</time>
      </trkpt>
      <trkpt lat="45.38827" lon="2.92464">
        <ele>1205</ele>
        <time>2021-08-25T09:49:55Z</time>
      </trkpt>
      <trkpt lat="45.38828" lon="2.92463">
        <ele>1205</ele>
        <time>2021-08-25T09:49:57Z</time>
      </trkpt>
      <trkpt lat="45.38828" lon="2.92463">
        <ele>1205</ele>
        <time>2021-08-25T09:49:59Z</time>
      </trkpt>
      <trkpt lat="45.38828" lon="2.92463">
        <ele>1205</ele>
        <time>2021-08-25T09:50:01Z</time>
      </trkpt>
      <trkpt lat="45.38828" lon="2.92463">
        <ele>1205</ele>
        <time>2021-08-25T09:50:03Z</time>
      </trkpt>
      <trkpt lat="45.38828" lon="2.92462">
        <ele>1205</ele>
        <time>2021-08-25T09:50:05Z</time>
      </trkpt>
      <trkpt lat="45.38839" lon="2.92449">
        <ele>1204.8</ele>
        <time>2021-08-25T09:50:45Z</time>
      </trkpt>
      <trkpt lat="45.38843" lon="2.92445">
        <ele>1204.8</ele>
        <time>2021-08-25T09:50:47Z</time>
      </trkpt>
      <trkpt lat="45.38848" lon="2.92441">
        <ele>1204.9</ele>
        <time>2021-08-25T09:50:49Z</time>
      </trkpt>
      <trkpt lat="45.38853" lon="2.92437">
        <ele>1204.9</ele>
        <time>2021-08-25T09:50:51Z</time>
      </trkpt>
      <trkpt lat="45.38856" lon="2.92435">
        <ele>1204.9</ele>
        <time>2021-08-25T09:50:53Z</time>
      </trkpt>
      <trkpt lat="45.38859" lon="2.92432">
        <ele>1204.8</ele>
        <time>2021-08-25T09:50:55Z</time>
      </trkpt>
      <trkpt lat="45.3886" lon="2.92428">
        <ele>1204.6</ele>
        <time>2021-08-25T09:50:57Z</time>
      </trkpt>
      <trkpt lat="45.38861" lon="2.92424">
        <ele>1204.4</ele>
        <time>2021-08-25T09:50:59Z</time>
      </trkpt>
      <trkpt lat="45.38862" lon="2.92421">
        <ele>1204.3</ele>
        <time>2021-08-25T09:51:01Z</time>
      </trkpt>
      <trkpt lat="45.38861" lon="2.92415">
        <ele>1204.1</ele>
        <time>2021-08-25T09:51:03Z</time>
      </trkpt>
      <trkpt lat="45.38856" lon="2.92408">
        <ele>1204.2</ele>
        <time>2021-08-25T09:51:05Z</time>
      </trkpt>
      <trkpt lat="45.38853" lon="2.924">
        <ele>1204.4</ele>
        <time>2021-08-25T09:51:07Z</time>
      </trkpt>
      <trkpt lat="45.38849" lon="2.92392">
        <ele>1204.8</ele>
        <time>2021-08-25T09:51:09Z</time>
      </trkpt>
      <trkpt lat="45.38847" lon="2.92383">
        <ele>1205.3</ele>
        <time>2021-08-25T09:51:11Z</time>
      </trkpt>
      <trkpt lat="45.38849" lon="2.92372">
        <ele>1205.7</ele>
        <time>2021-08-25T09:51:13Z</time>
      </trkpt>
      <trkpt lat="45.38853" lon="2.92364">
        <ele>1206</ele>
        <time>2021-08-25T09:51:15Z</time>
      </trkpt>
      <trkpt lat="45.38857" lon="2.92357">
        <ele>1206.1</ele>
        <time>2021-08-25T09:51:17Z</time>
      </trkpt>
      <trkpt lat="45.3886" lon="2.92351">
        <ele>1206.2</ele>
        <time>2021-08-25T09:51:19Z</time>
      </trkpt>
      <trkpt lat="45.38863" lon="2.92344">
        <ele>1206.2</ele>
        <time>2021-08-25T09:51:21Z</time>
      </trkpt>
      <trkpt lat="45.38864" lon="2.92338">
        <ele>1206.3</ele>
        <time>2021-08-25T09:51:23Z</time>
      </trkpt>
      <trkpt lat="45.38866" lon="2.92332">
        <ele>1206.5</ele>
        <time>2021-08-25T09:51:25Z</time>
      </trkpt>
      <trkpt lat="45.38868" lon="2.92326">
        <ele>1206.9</ele>
        <time>2021-08-25T09:51:27Z</time>
      </trkpt>
      <trkpt lat="45.38869" lon="2.92321">
        <ele>1207.3</ele>
        <time>2021-08-25T09:51:29Z</time>
      </trkpt>
      <trkpt lat="45.38869" lon="2.92318">
        <ele>1207.6</ele>
        <time>2021-08-25T09:51:31Z</time>
      </trkpt>
      <trkpt lat="45.38866" lon="2.92318">
        <ele>1207.9</ele>
        <time>2021-08-25T09:51:33Z</time>
      </trkpt>
      <trkpt lat="45.38865" lon="2.9232">
        <ele>1207.7</ele>
        <time>2021-08-25T09:51:35Z</time>
      </trkpt>
      <trkpt lat="45.38865" lon="2.92324">
        <ele>1207.3</ele>
        <time>2021-08-25T09:51:37Z</time>
      </trkpt>
      <trkpt lat="45.38865" lon="2.92327">
        <ele>1206.9</ele>
        <time>2021-08-25T09:51:39Z</time>
      </trkpt>
      <trkpt lat="45.38865" lon="2.92333">
        <ele>1206.4</ele>
        <time>2021-08-25T09:51:41Z</time>
      </trkpt>
      <trkpt lat="45.38863" lon="2.92341">
        <ele>1206.3</ele>
        <time>2021-08-25T09:51:43Z</time>
      </trkpt>
      <trkpt lat="45.38864" lon="2.92344">
        <ele>1206.1</ele>
        <time>2021-08-25T09:51:45Z</time>
      </trkpt>
      <trkpt lat="45.38867" lon="2.92343">
        <ele>1205.9</ele>
        <time>2021-08-25T09:51:47Z</time>
      </trkpt>
      <trkpt lat="45.38869" lon="2.92339">
        <ele>1205.9</ele>
        <time>2021-08-25T09:51:49Z</time>
      </trkpt>
      <trkpt lat="45.38869" lon="2.92335">
        <ele>1206</ele>
        <time>2021-08-25T09:51:51Z</time>
      </trkpt>
      <trkpt lat="45.38866" lon="2.92333">
        <ele>1206.3</ele>
        <time>2021-08-25T09:51:53Z</time>
      </trkpt>
      <trkpt lat="45.38864" lon="2.92333">
        <ele>1206.5</ele>
        <time>2021-08-25T09:51:55Z</time>
      </trkpt>
      <trkpt lat="45.38863" lon="2.92333">
        <ele>1206.6</ele>
        <time>2021-08-25T09:51:57Z</time>
      </trkpt>
      <trkpt lat="45.38863" lon="2.92333">
        <ele>1206.5</ele>
        <time>2021-08-25T09:51:59Z</time>
      </trkpt>
      <trkpt lat="45.38863" lon="2.92334">
        <ele>1206.5</ele>
        <time>2021-08-25T09:52:01Z</time>
      </trkpt>
      <trkpt lat="45.38863" lon="2.92334">
        <ele>1206.5</ele>
        <time>2021-08-25T09:52:03Z</time>
      </trkpt>
      <trkpt lat="45.38863" lon="2.92334">
        <ele>1206.5</ele>
        <time>2021-08-25T09:52:05Z</time>
      </trkpt>
      <trkpt lat="45.3887" lon="2.92321">
        <ele>1207.3</ele>
        <time>2021-08-25T09:58:31Z</time>
      </trkpt>
      <trkpt lat="45.3887" lon="2.92317">
        <ele>1207.6</ele>
        <time>2021-08-25T09:58:33Z</time>
      </trkpt>
      <trkpt lat="45.3887" lon="2.92312">
        <ele>1208.2</ele>
        <time>2021-08-25T09:58:35Z</time>
      </trkpt>
      <trkpt lat="45.38872" lon="2.92306">
        <ele>1208.6</ele>
        <time>2021-08-25T09:58:37Z</time>
      </trkpt>
      <trkpt lat="45.38875" lon="2.92301">
        <ele>1208.9</ele>
        <time>2021-08-25T09:58:39Z</time>
      </trkpt>
      <trkpt lat="45.38876" lon="2.92295">
        <ele>1209.5</ele>
        <time>2021-08-25T09:58:41Z</time>
      </trkpt>
      <trkpt lat="45.38877" lon="2.9229">
        <ele>1210.1</ele>
        <time>2021-08-25T09:58:43Z</time>
      </trkpt>
      <trkpt lat="45.38877" lon="2.92284">
        <ele>1210.7</ele>
        <time>2021-08-25T09:58:45Z</time>
      </trkpt>
      <trkpt lat="45.38877" lon="2.92279">
        <ele>1211.2</ele>
        <time>2021-08-25T09:58:47Z</time>
      </trkpt>
      <trkpt lat="45.38876" lon="2.92276">
        <ele>1211.6</ele>
        <time>2021-08-25T09:58:49Z</time>
      </trkpt>
      <trkpt lat="45.38875" lon="2.92272">
        <ele>1212.2</ele>
        <time>2021-08-25T09:58:51Z</time>
      </trkpt>
      <trkpt lat="45.38874" lon="2.92268">
        <ele>1212.6</ele>
        <time>2021-08-25T09:58:53Z</time>
      </trkpt>
      <trkpt lat="45.38872" lon="2.92264">
        <ele>1213.1</ele>
        <time>2021-08-25T09:58:55Z</time>
      </trkpt>
      <trkpt lat="45.38869" lon="2.92261">
        <ele>1213.5</ele>
        <time>2021-08-25T09:58:57Z</time>
      </trkpt>
      <trkpt lat="45.38867" lon="2.92258">
        <ele>1214</ele>
        <time>2021-08-25T09:58:59Z</time>
      </trkpt>
      <trkpt lat="45.38865" lon="2.92254">
        <ele>1214.5</ele>
        <time>2021-08-25T09:59:01Z</time>
      </trkpt>
      <trkpt lat="45.38863" lon="2.92251">
        <ele>1214.8</ele>
        <time>2021-08-25T09:59:03Z</time>
      </trkpt>
      <trkpt lat="45.38859" lon="2.9225">
        <ele>1215</ele>
        <time>2021-08-25T09:59:05Z</time>
      </trkpt>
      <trkpt lat="45.38856" lon="2.92248">
        <ele>1215.3</ele>
        <time>2021-08-25T09:59:07Z</time>
      </trkpt>
      <trkpt lat="45.38853" lon="2.92247">
        <ele>1215.5</ele>
        <time>2021-08-25T09:59:09Z</time>
      </trkpt>
      <trkpt lat="45.3885" lon="2.92246">
        <ele>1215.7</ele>
        <time>2021-08-25T09:59:11Z</time>
      </trkpt>
      <trkpt lat="45.38848" lon="2.92245">
        <ele>1215.9</ele>
        <time>2021-08-25T09:59:13Z</time>
      </trkpt>
      <trkpt lat="45.38845" lon="2.92245">
        <ele>1216</ele>
        <time>2021-08-25T09:59:15Z</time>
      </trkpt>
      <trkpt lat="45.38843" lon="2.92246">
        <ele>1216</ele>
        <time>2021-08-25T09:59:17Z</time>
      </trkpt>
      <trkpt lat="45.3884" lon="2.92247">
        <ele>1216</ele>
        <time>2021-08-25T09:59:19Z</time>
      </trkpt>
      <trkpt lat="45.38838" lon="2.92244">
        <ele>1216.3</ele>
        <time>2021-08-25T09:59:21Z</time>
      </trkpt>
      <trkpt lat="45.38839" lon="2.92241">
        <ele>1216.5</ele>
        <time>2021-08-25T09:59:23Z</time>
      </trkpt>
      <trkpt lat="45.38841" lon="2.92238">
        <ele>1216.7</ele>
        <time>2021-08-25T09:59:25Z</time>
      </trkpt>
      <trkpt lat="45.38843" lon="2.92236">
        <ele>1216.8</ele>
        <time>2021-08-25T09:59:27Z</time>
      </trkpt>
      <trkpt lat="45.38846" lon="2.92233">
        <ele>1216.9</ele>
        <time>2021-08-25T09:59:29Z</time>
      </trkpt>
      <trkpt lat="45.38848" lon="2.9223">
        <ele>1217.1</ele>
        <time>2021-08-25T09:59:31Z</time>
      </trkpt>
      <trkpt lat="45.3885" lon="2.92227">
        <ele>1217.3</ele>
        <time>2021-08-25T09:59:33Z</time>
      </trkpt>
      <trkpt lat="45.38852" lon="2.92223">
        <ele>1217.5</ele>
        <time>2021-08-25T09:59:35Z</time>
      </trkpt>
      <trkpt lat="45.38853" lon="2.92219">
        <ele>1217.8</ele>
        <time>2021-08-25T09:59:37Z</time>
      </trkpt>
      <trkpt lat="45.38854" lon="2.92214">
        <ele>1218.1</ele>
        <time>2021-08-25T09:59:39Z</time>
      </trkpt>
      <trkpt lat="45.38855" lon="2.9221">
        <ele>1218.4</ele>
        <time>2021-08-25T09:59:41Z</time>
      </trkpt>
      <trkpt lat="45.38855" lon="2.92206">
        <ele>1218.8</ele>
        <time>2021-08-25T09:59:43Z</time>
      </trkpt>
      <trkpt lat="45.38854" lon="2.92202">
        <ele>1219.2</ele>
        <time>2021-08-25T09:59:45Z</time>
      </trkpt>
      <trkpt lat="45.38852" lon="2.92198">
        <ele>1219.6</ele>
        <time>2021-08-25T09:59:47Z</time>
      </trkpt>
      <trkpt lat="45.38851" lon="2.92194">
        <ele>1220</ele>
        <time>2021-08-25T09:59:49Z</time>
      </trkpt>
      <trkpt lat="45.38849" lon="2.9219">
        <ele>1220.3</ele>
        <time>2021-08-25T09:59:51Z</time>
      </trkpt>
      <trkpt lat="45.38847" lon="2.92186">
        <ele>1220.7</ele>
        <time>2021-08-25T09:59:53Z</time>
      </trkpt>
      <trkpt lat="45.38846" lon="2.92183">
        <ele>1221.1</ele>
        <time>2021-08-25T09:59:55Z</time>
      </trkpt>
      <trkpt lat="45.38844" lon="2.9218">
        <ele>1221.4</ele>
        <time>2021-08-25T09:59:57Z</time>
      </trkpt>
      <trkpt lat="45.38841" lon="2.92177">
        <ele>1221.8</ele>
        <time>2021-08-25T09:59:59Z</time>
      </trkpt>
      <trkpt lat="45.38838" lon="2.92175">
        <ele>1222</ele>
        <time>2021-08-25T10:00:01Z</time>
      </trkpt>
      <trkpt lat="45.38835" lon="2.92175">
        <ele>1222.3</ele>
        <time>2021-08-25T10:00:03Z</time>
      </trkpt>
      <trkpt lat="45.38832" lon="2.92174">
        <ele>1222.4</ele>
        <time>2021-08-25T10:00:05Z</time>
      </trkpt>
      <trkpt lat="45.38829" lon="2.92172">
        <ele>1222.5</ele>
        <time>2021-08-25T10:00:07Z</time>
      </trkpt>
      <trkpt lat="45.38826" lon="2.9217">
        <ele>1222.7</ele>
        <time>2021-08-25T10:00:09Z</time>
      </trkpt>
      <trkpt lat="45.38823" lon="2.92169">
        <ele>1222.8</ele>
        <time>2021-08-25T10:00:11Z</time>
      </trkpt>
      <trkpt lat="45.3882" lon="2.92168">
        <ele>1222.9</ele>
        <time>2021-08-25T10:00:13Z</time>
      </trkpt>
      <trkpt lat="45.38816" lon="2.92167">
        <ele>1222.9</ele>
        <time>2021-08-25T10:00:15Z</time>
      </trkpt>
      <trkpt lat="45.38814" lon="2.92165">
        <ele>1223.1</ele>
        <time>2021-08-25T10:00:17Z</time>
      </trkpt>
      <trkpt lat="45.38811" lon="2.92164">
        <ele>1223.2</ele>
        <time>2021-08-25T10:00:19Z</time>
      </trkpt>
      <trkpt lat="45.38807" lon="2.92163">
        <ele>1223.3</ele>
        <time>2021-08-25T10:00:21Z</time>
      </trkpt>
      <trkpt lat="45.38804" lon="2.9216">
        <ele>1223.6</ele>
        <time>2021-08-25T10:00:23Z</time>
      </trkpt>
      <trkpt lat="45.38803" lon="2.92156">
        <ele>1223.9</ele>
        <time>2021-08-25T10:00:25Z</time>
      </trkpt>
      <trkpt lat="45.38804" lon="2.92152">
        <ele>1224.3</ele>
        <time>2021-08-25T10:00:27Z</time>
      </trkpt>
      <trkpt lat="45.38805" lon="2.92147">
        <ele>1224.6</ele>
        <time>2021-08-25T10:00:29Z</time>
      </trkpt>
      <trkpt lat="45.38807" lon="2.92143">
        <ele>1225</ele>
        <time>2021-08-25T10:00:31Z</time>
      </trkpt>
      <trkpt lat="45.38809" lon="2.92139">
        <ele>1225.3</ele>
        <time>2021-08-25T10:00:33Z</time>
      </trkpt>
      <trkpt lat="45.38811" lon="2.92135">
        <ele>1225.6</ele>
        <time>2021-08-25T10:00:35Z</time>
      </trkpt>
      <trkpt lat="45.38813" lon="2.92131">
        <ele>1225.9</ele>
        <time>2021-08-25T10:00:37Z</time>
      </trkpt>
      <trkpt lat="45.38816" lon="2.92129">
        <ele>1226</ele>
        <time>2021-08-25T10:00:39Z</time>
      </trkpt>
      <trkpt lat="45.38818" lon="2.92128">
        <ele>1226.1</ele>
        <time>2021-08-25T10:00:41Z</time>
      </trkpt>
      <trkpt lat="45.3882" lon="2.92125">
        <ele>1226.2</ele>
        <time>2021-08-25T10:00:43Z</time>
      </trkpt>
      <trkpt lat="45.3882" lon="2.92123">
        <ele>1226.4</ele>
        <time>2021-08-25T10:00:45Z</time>
      </trkpt>
      <trkpt lat="45.38822" lon="2.92121">
        <ele>1226.5</ele>
        <time>2021-08-25T10:00:47Z</time>
      </trkpt>
      <trkpt lat="45.38825" lon="2.92121">
        <ele>1226.4</ele>
        <time>2021-08-25T10:00:49Z</time>
      </trkpt>
      <trkpt lat="45.38829" lon="2.92123">
        <ele>1226.3</ele>
        <time>2021-08-25T10:00:51Z</time>
      </trkpt>
      <trkpt lat="45.38832" lon="2.92122">
        <ele>1226.2</ele>
        <time>2021-08-25T10:00:53Z</time>
      </trkpt>
      <trkpt lat="45.38835" lon="2.92122">
        <ele>1226.1</ele>
        <time>2021-08-25T10:00:55Z</time>
      </trkpt>
      <trkpt lat="45.38838" lon="2.92119">
        <ele>1226.2</ele>
        <time>2021-08-25T10:00:57Z</time>
      </trkpt>
      <trkpt lat="45.38841" lon="2.92116">
        <ele>1226.3</ele>
        <time>2021-08-25T10:00:59Z</time>
      </trkpt>
      <trkpt lat="45.38844" lon="2.92113">
        <ele>1226.3</ele>
        <time>2021-08-25T10:01:01Z</time>
      </trkpt>
      <trkpt lat="45.38847" lon="2.9211">
        <ele>1226.4</ele>
        <time>2021-08-25T10:01:03Z</time>
      </trkpt>
      <trkpt lat="45.3885" lon="2.92107">
        <ele>1226.5</ele>
        <time>2021-08-25T10:01:05Z</time>
      </trkpt>
      <trkpt lat="45.38852" lon="2.92104">
        <ele>1226.6</ele>
        <time>2021-08-25T10:01:07Z</time>
      </trkpt>
      <trkpt lat="45.38855" lon="2.92101">
        <ele>1226.7</ele>
        <time>2021-08-25T10:01:09Z</time>
      </trkpt>
      <trkpt lat="45.38857" lon="2.92097">
        <ele>1226.8</ele>
        <time>2021-08-25T10:01:11Z</time>
      </trkpt>
      <trkpt lat="45.3886" lon="2.92094">
        <ele>1226.9</ele>
        <time>2021-08-25T10:01:13Z</time>
      </trkpt>
      <trkpt lat="45.38863" lon="2.9209">
        <ele>1227.1</ele>
        <time>2021-08-25T10:01:15Z</time>
      </trkpt>
      <trkpt lat="45.38865" lon="2.92087">
        <ele>1227.2</ele>
        <time>2021-08-25T10:01:17Z</time>
      </trkpt>
      <trkpt lat="45.38868" lon="2.92083">
        <ele>1227.4</ele>
        <time>2021-08-25T10:01:19Z</time>
      </trkpt>
      <trkpt lat="45.3887" lon="2.92079">
        <ele>1227.7</ele>
        <time>2021-08-25T10:01:21Z</time>
      </trkpt>
      <trkpt lat="45.38872" lon="2.92075">
        <ele>1228</ele>
        <time>2021-08-25T10:01:23Z</time>
      </trkpt>
      <trkpt lat="45.38873" lon="2.9207">
        <ele>1228.4</ele>
        <time>2021-08-25T10:01:25Z</time>
      </trkpt>
      <trkpt lat="45.38875" lon="2.92065">
        <ele>1228.8</ele>
        <time>2021-08-25T10:01:27Z</time>
      </trkpt>
      <trkpt lat="45.38876" lon="2.9206">
        <ele>1229.2</ele>
        <time>2021-08-25T10:01:29Z</time>
      </trkpt>
      <trkpt lat="45.38878" lon="2.92055">
        <ele>1229.6</ele>
        <time>2021-08-25T10:01:31Z</time>
      </trkpt>
      <trkpt lat="45.38879" lon="2.92051">
        <ele>1229.9</ele>
        <time>2021-08-25T10:01:33Z</time>
      </trkpt>
      <trkpt lat="45.3888" lon="2.92046">
        <ele>1230.3</ele>
        <time>2021-08-25T10:01:35Z</time>
      </trkpt>
      <trkpt lat="45.38881" lon="2.92042">
        <ele>1230.6</ele>
        <time>2021-08-25T10:01:37Z</time>
      </trkpt>
      <trkpt lat="45.38883" lon="2.92037">
        <ele>1231</ele>
        <time>2021-08-25T10:01:39Z</time>
      </trkpt>
      <trkpt lat="45.38884" lon="2.92032">
        <ele>1231.3</ele>
        <time>2021-08-25T10:01:41Z</time>
      </trkpt>
      <trkpt lat="45.38885" lon="2.92028">
        <ele>1231.6</ele>
        <time>2021-08-25T10:01:43Z</time>
      </trkpt>
      <trkpt lat="45.38887" lon="2.92023">
        <ele>1232</ele>
        <time>2021-08-25T10:01:45Z</time>
      </trkpt>
      <trkpt lat="45.38888" lon="2.92018">
        <ele>1232.3</ele>
        <time>2021-08-25T10:01:47Z</time>
      </trkpt>
      <trkpt lat="45.3889" lon="2.92014">
        <ele>1232.6</ele>
        <time>2021-08-25T10:01:49Z</time>
      </trkpt>
      <trkpt lat="45.38891" lon="2.92009">
        <ele>1233</ele>
        <time>2021-08-25T10:01:51Z</time>
      </trkpt>
      <trkpt lat="45.38892" lon="2.92004">
        <ele>1233.4</ele>
        <time>2021-08-25T10:01:53Z</time>
      </trkpt>
      <trkpt lat="45.38893" lon="2.91999">
        <ele>1233.7</ele>
        <time>2021-08-25T10:01:55Z</time>
      </trkpt>
      <trkpt lat="45.38895" lon="2.91995">
        <ele>1233.9</ele>
        <time>2021-08-25T10:01:57Z</time>
      </trkpt>
      <trkpt lat="45.38896" lon="2.9199">
        <ele>1234.1</ele>
        <time>2021-08-25T10:01:59Z</time>
      </trkpt>
      <trkpt lat="45.38898" lon="2.91985">
        <ele>1234.3</ele>
        <time>2021-08-25T10:02:01Z</time>
      </trkpt>
      <trkpt lat="45.38899" lon="2.9198">
        <ele>1234.5</ele>
        <time>2021-08-25T10:02:03Z</time>
      </trkpt>
      <trkpt lat="45.38901" lon="2.91975">
        <ele>1234.7</ele>
        <time>2021-08-25T10:02:05Z</time>
      </trkpt>
      <trkpt lat="45.38902" lon="2.9197">
        <ele>1235</ele>
        <time>2021-08-25T10:02:07Z</time>
      </trkpt>
      <trkpt lat="45.38904" lon="2.91965">
        <ele>1235.2</ele>
        <time>2021-08-25T10:02:09Z</time>
      </trkpt>
      <trkpt lat="45.38904" lon="2.9196">
        <ele>1235.5</ele>
        <time>2021-08-25T10:02:11Z</time>
      </trkpt>
      <trkpt lat="45.38905" lon="2.91954">
        <ele>1235.8</ele>
        <time>2021-08-25T10:02:13Z</time>
      </trkpt>
      <trkpt lat="45.38906" lon="2.91949">
        <ele>1236.1</ele>
        <time>2021-08-25T10:02:15Z</time>
      </trkpt>
      <trkpt lat="45.38907" lon="2.91944">
        <ele>1236.4</ele>
        <time>2021-08-25T10:02:17Z</time>
      </trkpt>
      <trkpt lat="45.38907" lon="2.9194">
        <ele>1236.7</ele>
        <time>2021-08-25T10:02:19Z</time>
      </trkpt>
      <trkpt lat="45.38908" lon="2.91936">
        <ele>1236.9</ele>
        <time>2021-08-25T10:02:21Z</time>
      </trkpt>
      <trkpt lat="45.38908" lon="2.91932">
        <ele>1237.2</ele>
        <time>2021-08-25T10:02:23Z</time>
      </trkpt>
      <trkpt lat="45.38908" lon="2.91928">
        <ele>1237.5</ele>
        <time>2021-08-25T10:02:25Z</time>
      </trkpt>
      <trkpt lat="45.38908" lon="2.91924">
        <ele>1237.7</ele>
        <time>2021-08-25T10:02:27Z</time>
      </trkpt>
      <trkpt lat="45.38907" lon="2.91921">
        <ele>1238</ele>
        <time>2021-08-25T10:02:29Z</time>
      </trkpt>
      <trkpt lat="45.38908" lon="2.91914">
        <ele>1238.2</ele>
        <time>2021-08-25T10:02:31Z</time>
      </trkpt>
      <trkpt lat="45.38907" lon="2.91906">
        <ele>1238.2</ele>
        <time>2021-08-25T10:02:33Z</time>
      </trkpt>
      <trkpt lat="45.38912" lon="2.91897">
        <ele>1238.1</ele>
        <time>2021-08-25T10:02:35Z</time>
      </trkpt>
      <trkpt lat="45.38916" lon="2.9189">
        <ele>1238</ele>
        <time>2021-08-25T10:02:37Z</time>
      </trkpt>
      <trkpt lat="45.38918" lon="2.91885">
        <ele>1238</ele>
        <time>2021-08-25T10:02:39Z</time>
      </trkpt>
      <trkpt lat="45.38918" lon="2.91881">
        <ele>1238</ele>
        <time>2021-08-25T10:02:41Z</time>
      </trkpt>
      <trkpt lat="45.38918" lon="2.91878">
        <ele>1238</ele>
        <time>2021-08-25T10:02:43Z</time>
      </trkpt>
      <trkpt lat="45.38918" lon="2.91874">
        <ele>1238</ele>
        <time>2021-08-25T10:02:45Z</time>
      </trkpt>
      <trkpt lat="45.38918" lon="2.91871">
        <ele>1238</ele>
        <time>2021-08-25T10:02:47Z</time>
      </trkpt>
      <trkpt lat="45.38919" lon="2.91867">
        <ele>1238</ele>
        <time>2021-08-25T10:02:49Z</time>
      </trkpt>
      <trkpt lat="45.38921" lon="2.91864">
        <ele>1237.9</ele>
        <time>2021-08-25T10:02:51Z</time>
      </trkpt>
      <trkpt lat="45.38921" lon="2.91863">
        <ele>1237.9</ele>
        <time>2021-08-25T10:02:53Z</time>
      </trkpt>
      <trkpt lat="45.38921" lon="2.91863">
        <ele>1237.9</ele>
        <time>2021-08-25T10:02:55Z</time>
      </trkpt>
      <trkpt lat="45.38921" lon="2.91863">
        <ele>1237.9</ele>
        <time>2021-08-25T10:02:57Z</time>
      </trkpt>
      <trkpt lat="45.38921" lon="2.91863">
        <ele>1237.9</ele>
        <time>2021-08-25T10:02:59Z</time>
      </trkpt>
      <trkpt lat="45.38921" lon="2.91863">
        <ele>1237.9</ele>
        <time>2021-08-25T10:03:01Z</time>
      </trkpt>
      <trkpt lat="45.3893" lon="2.91854">
        <ele>1237.9</ele>
        <time>2021-08-25T10:04:53Z</time>
      </trkpt>
      <trkpt lat="45.38932" lon="2.91852">
        <ele>1237.9</ele>
        <time>2021-08-25T10:04:55Z</time>
      </trkpt>
      <trkpt lat="45.38934" lon="2.9185">
        <ele>1238</ele>
        <time>2021-08-25T10:04:57Z</time>
      </trkpt>
      <trkpt lat="45.38935" lon="2.91847">
        <ele>1238</ele>
        <time>2021-08-25T10:04:59Z</time>
      </trkpt>
      <trkpt lat="45.38936" lon="2.91844">
        <ele>1238</ele>
        <time>2021-08-25T10:05:01Z</time>
      </trkpt>
      <trkpt lat="45.38938" lon="2.91842">
        <ele>1238.1</ele>
        <time>2021-08-25T10:05:03Z</time>
      </trkpt>
      <trkpt lat="45.3894" lon="2.91839">
        <ele>1238.2</ele>
        <time>2021-08-25T10:05:05Z</time>
      </trkpt>
      <trkpt lat="45.38942" lon="2.91836">
        <ele>1238.2</ele>
        <time>2021-08-25T10:05:07Z</time>
      </trkpt>
      <trkpt lat="45.38944" lon="2.91834">
        <ele>1238.3</ele>
        <time>2021-08-25T10:05:09Z</time>
      </trkpt>
      <trkpt lat="45.38945" lon="2.91831">
        <ele>1238.4</ele>
        <time>2021-08-25T10:05:11Z</time>
      </trkpt>
      <trkpt lat="45.38947" lon="2.91828">
        <ele>1238.5</ele>
        <time>2021-08-25T10:05:13Z</time>
      </trkpt>
      <trkpt lat="45.38948" lon="2.91824">
        <ele>1238.6</ele>
        <time>2021-08-25T10:05:15Z</time>
      </trkpt>
      <trkpt lat="45.38949" lon="2.91822">
        <ele>1238.7</ele>
        <time>2021-08-25T10:05:17Z</time>
      </trkpt>
      <trkpt lat="45.3895" lon="2.91821">
        <ele>1238.7</ele>
        <time>2021-08-25T10:05:19Z</time>
      </trkpt>
      <trkpt lat="45.38951" lon="2.91819">
        <ele>1238.8</ele>
        <time>2021-08-25T10:05:21Z</time>
      </trkpt>
      <trkpt lat="45.38952" lon="2.91818">
        <ele>1238.8</ele>
        <time>2021-08-25T10:05:23Z</time>
      </trkpt>
      <trkpt lat="45.38953" lon="2.91817">
        <ele>1238.9</ele>
        <time>2021-08-25T10:05:25Z</time>
      </trkpt>
      <trkpt lat="45.38954" lon="2.91816">
        <ele>1238.9</ele>
        <time>2021-08-25T10:05:27Z</time>
      </trkpt>
      <trkpt lat="45.38895" lon="2.91885">
        <ele>1238.1</ele>
        <time>2021-08-25T10:08:43Z</time>
      </trkpt>
      <trkpt lat="45.38893" lon="2.91884">
        <ele>1238.1</ele>
        <time>2021-08-25T10:08:45Z</time>
      </trkpt>
      <trkpt lat="45.38891" lon="2.91884">
        <ele>1238.1</ele>
        <time>2021-08-25T10:08:47Z</time>
      </trkpt>
      <trkpt lat="45.38889" lon="2.91886">
        <ele>1238.2</ele>
        <time>2021-08-25T10:08:49Z</time>
      </trkpt>
      <trkpt lat="45.38886" lon="2.91885">
        <ele>1238.2</ele>
        <time>2021-08-25T10:08:51Z</time>
      </trkpt>
      <trkpt lat="45.38883" lon="2.91886">
        <ele>1238.2</ele>
        <time>2021-08-25T10:08:53Z</time>
      </trkpt>
      <trkpt lat="45.38882" lon="2.91889">
        <ele>1238.3</ele>
        <time>2021-08-25T10:08:55Z</time>
      </trkpt>
      <trkpt lat="45.3888" lon="2.91891">
        <ele>1238.3</ele>
        <time>2021-08-25T10:08:57Z</time>
      </trkpt>
      <trkpt lat="45.38878" lon="2.91893">
        <ele>1238.4</ele>
        <time>2021-08-25T10:08:59Z</time>
      </trkpt>
      <trkpt lat="45.38876" lon="2.91895">
        <ele>1238.5</ele>
        <time>2021-08-25T10:09:01Z</time>
      </trkpt>
      <trkpt lat="45.38874" lon="2.91896">
        <ele>1238.5</ele>
        <time>2021-08-25T10:09:03Z</time>
      </trkpt>
      <trkpt lat="45.38873" lon="2.91898">
        <ele>1238.6</ele>
        <time>2021-08-25T10:09:05Z</time>
      </trkpt>
      <trkpt lat="45.38871" lon="2.919">
        <ele>1238.7</ele>
        <time>2021-08-25T10:09:07Z</time>
      </trkpt>
      <trkpt lat="45.3887" lon="2.91901">
        <ele>1238.7</ele>
        <time>2021-08-25T10:09:09Z</time>
      </trkpt>
      <trkpt lat="45.38868" lon="2.91903">
        <ele>1238.8</ele>
        <time>2021-08-25T10:09:11Z</time>
      </trkpt>
      <trkpt lat="45.38866" lon="2.91904">
        <ele>1238.9</ele>
        <time>2021-08-25T10:09:13Z</time>
      </trkpt>
      <trkpt lat="45.38864" lon="2.91905">
        <ele>1238.9</ele>
        <time>2021-08-25T10:09:15Z</time>
      </trkpt>
      <trkpt lat="45.38863" lon="2.91907">
        <ele>1239</ele>
        <time>2021-08-25T10:09:17Z</time>
      </trkpt>
      <trkpt lat="45.38862" lon="2.91908">
        <ele>1239</ele>
        <time>2021-08-25T10:09:19Z</time>
      </trkpt>
      <trkpt lat="45.38861" lon="2.9191">
        <ele>1239.1</ele>
        <time>2021-08-25T10:09:21Z</time>
      </trkpt>
      <trkpt lat="45.38931" lon="2.91853">
        <ele>1237.9</ele>
        <time>2021-08-25T12:07:47Z</time>
      </trkpt>
      <trkpt lat="45.38934" lon="2.91849">
        <ele>1238</ele>
        <time>2021-08-25T12:07:49Z</time>
      </trkpt>
      <trkpt lat="45.38936" lon="2.91845">
        <ele>1238</ele>
        <time>2021-08-25T12:07:51Z</time>
      </trkpt>
      <trkpt lat="45.38939" lon="2.91841">
        <ele>1238.1</ele>
        <time>2021-08-25T12:07:53Z</time>
      </trkpt>
      <trkpt lat="45.3894" lon="2.91836">
        <ele>1238.2</ele>
        <time>2021-08-25T12:07:55Z</time>
      </trkpt>
      <trkpt lat="45.38942" lon="2.91832">
        <ele>1238.3</ele>
        <time>2021-08-25T12:07:57Z</time>
      </trkpt>
      <trkpt lat="45.38944" lon="2.91828">
        <ele>1238.4</ele>
        <time>2021-08-25T12:07:59Z</time>
      </trkpt>
      <trkpt lat="45.38947" lon="2.91823">
        <ele>1238.6</ele>
        <time>2021-08-25T12:08:01Z</time>
      </trkpt>
      <trkpt lat="45.3895" lon="2.91818">
        <ele>1238.8</ele>
        <time>2021-08-25T12:08:03Z</time>
      </trkpt>
      <trkpt lat="45.38952" lon="2.91814">
        <ele>1238.9</ele>
        <time>2021-08-25T12:08:05Z</time>
      </trkpt>
      <trkpt lat="45.38955" lon="2.9181">
        <ele>1239.1</ele>
        <time>2021-08-25T12:08:07Z</time>
      </trkpt>
      <trkpt lat="45.38958" lon="2.91806">
        <ele>1239.3</ele>
        <time>2021-08-25T12:08:09Z</time>
      </trkpt>
      <trkpt lat="45.38962" lon="2.91802">
        <ele>1239.5</ele>
        <time>2021-08-25T12:08:11Z</time>
      </trkpt>
      <trkpt lat="45.38965" lon="2.91799">
        <ele>1239.8</ele>
        <time>2021-08-25T12:08:13Z</time>
      </trkpt>
      <trkpt lat="45.38969" lon="2.91796">
        <ele>1240.1</ele>
        <time>2021-08-25T12:08:15Z</time>
      </trkpt>
      <trkpt lat="45.38973" lon="2.91793">
        <ele>1240.3</ele>
        <time>2021-08-25T12:08:17Z</time>
      </trkpt>
      <trkpt lat="45.38977" lon="2.9179">
        <ele>1240.6</ele>
        <time>2021-08-25T12:08:19Z</time>
      </trkpt>
      <trkpt lat="45.3898" lon="2.91786">
        <ele>1240.9</ele>
        <time>2021-08-25T12:08:21Z</time>
      </trkpt>
      <trkpt lat="45.38984" lon="2.91784">
        <ele>1241.2</ele>
        <time>2021-08-25T12:08:23Z</time>
      </trkpt>
      <trkpt lat="45.38988" lon="2.9178">
        <ele>1241.6</ele>
        <time>2021-08-25T12:08:25Z</time>
      </trkpt>
      <trkpt lat="45.38992" lon="2.91777">
        <ele>1242</ele>
        <time>2021-08-25T12:08:27Z</time>
      </trkpt>
      <trkpt lat="45.38996" lon="2.91774">
        <ele>1242.4</ele>
        <time>2021-08-25T12:08:29Z</time>
      </trkpt>
      <trkpt lat="45.39" lon="2.91771">
        <ele>1242.7</ele>
        <time>2021-08-25T12:08:31Z</time>
      </trkpt>
      <trkpt lat="45.39004" lon="2.91768">
        <ele>1242.7</ele>
        <time>2021-08-25T12:08:33Z</time>
      </trkpt>
      <trkpt lat="45.39007" lon="2.91764">
        <ele>1242.8</ele>
        <time>2021-08-25T12:08:35Z</time>
      </trkpt>
      <trkpt lat="45.39011" lon="2.91761">
        <ele>1242.8</ele>
        <time>2021-08-25T12:08:37Z</time>
      </trkpt>
      <trkpt lat="45.39014" lon="2.91758">
        <ele>1242.9</ele>
        <time>2021-08-25T12:08:39Z</time>
      </trkpt>
      <trkpt lat="45.39018" lon="2.91754">
        <ele>1243</ele>
        <time>2021-08-25T12:08:41Z</time>
      </trkpt>
      <trkpt lat="45.39022" lon="2.91751">
        <ele>1243.1</ele>
        <time>2021-08-25T12:08:43Z</time>
      </trkpt>
      <trkpt lat="45.39026" lon="2.91748">
        <ele>1243.3</ele>
        <time>2021-08-25T12:08:45Z</time>
      </trkpt>
      <trkpt lat="45.3903" lon="2.91745">
        <ele>1243.4</ele>
        <time>2021-08-25T12:08:47Z</time>
      </trkpt>
      <trkpt lat="45.39034" lon="2.91741">
        <ele>1243.6</ele>
        <time>2021-08-25T12:08:49Z</time>
      </trkpt>
      <trkpt lat="45.39038" lon="2.91738">
        <ele>1243.8</ele>
        <time>2021-08-25T12:08:51Z</time>
      </trkpt>
      <trkpt lat="45.39042" lon="2.91735">
        <ele>1244.1</ele>
        <time>2021-08-25T12:08:53Z</time>
      </trkpt>
      <trkpt lat="45.39046" lon="2.91731">
        <ele>1244.3</ele>
        <time>2021-08-25T12:08:55Z</time>
      </trkpt>
      <trkpt lat="45.39049" lon="2.91728">
        <ele>1244.6</ele>
        <time>2021-08-25T12:08:57Z</time>
      </trkpt>
      <trkpt lat="45.39053" lon="2.91725">
        <ele>1244.9</ele>
        <time>2021-08-25T12:08:59Z</time>
      </trkpt>
      <trkpt lat="45.39057" lon="2.91721">
        <ele>1245.3</ele>
        <time>2021-08-25T12:09:01Z</time>
      </trkpt>
      <trkpt lat="45.3906" lon="2.91718">
        <ele>1245.7</ele>
        <time>2021-08-25T12:09:03Z</time>
      </trkpt>
      <trkpt lat="45.39064" lon="2.91715">
        <ele>1246</ele>
        <time>2021-08-25T12:09:05Z</time>
      </trkpt>
      <trkpt lat="45.39067" lon="2.91713">
        <ele>1246.3</ele>
        <time>2021-08-25T12:09:07Z</time>
      </trkpt>
      <trkpt lat="45.39071" lon="2.9171">
        <ele>1246.7</ele>
        <time>2021-08-25T12:09:09Z</time>
      </trkpt>
      <trkpt lat="45.39074" lon="2.91706">
        <ele>1247.3</ele>
        <time>2021-08-25T12:09:11Z</time>
      </trkpt>
      <trkpt lat="45.39078" lon="2.91703">
        <ele>1247.7</ele>
        <time>2021-08-25T12:09:13Z</time>
      </trkpt>
      <trkpt lat="45.39081" lon="2.91699">
        <ele>1248.2</ele>
        <time>2021-08-25T12:09:15Z</time>
      </trkpt>
      <trkpt lat="45.39084" lon="2.91696">
        <ele>1248.8</ele>
        <time>2021-08-25T12:09:17Z</time>
      </trkpt>
      <trkpt lat="45.39088" lon="2.91693">
        <ele>1248.8</ele>
        <time>2021-08-25T12:09:19Z</time>
      </trkpt>
      <trkpt lat="45.39091" lon="2.91689">
        <ele>1249</ele>
        <time>2021-08-25T12:09:21Z</time>
      </trkpt>
      <trkpt lat="45.39094" lon="2.91684">
        <ele>1249.3</ele>
        <time>2021-08-25T12:09:23Z</time>
      </trkpt>
      <trkpt lat="45.39098" lon="2.91681">
        <ele>1249.3</ele>
        <time>2021-08-25T12:09:25Z</time>
      </trkpt>
      <trkpt lat="45.39103" lon="2.91677">
        <ele>1249.4</ele>
        <time>2021-08-25T12:09:27Z</time>
      </trkpt>
      <trkpt lat="45.39106" lon="2.91673">
        <ele>1249.7</ele>
        <time>2021-08-25T12:09:29Z</time>
      </trkpt>
      <trkpt lat="45.3911" lon="2.91668">
        <ele>1249.9</ele>
        <time>2021-08-25T12:09:31Z</time>
      </trkpt>
      <trkpt lat="45.39114" lon="2.91665">
        <ele>1250</ele>
        <time>2021-08-25T12:09:33Z</time>
      </trkpt>
      <trkpt lat="45.39117" lon="2.91661">
        <ele>1250.1</ele>
        <time>2021-08-25T12:09:35Z</time>
      </trkpt>
      <trkpt lat="45.39121" lon="2.91658">
        <ele>1250.1</ele>
        <time>2021-08-25T12:09:37Z</time>
      </trkpt>
      <trkpt lat="45.39124" lon="2.91654">
        <ele>1250.1</ele>
        <time>2021-08-25T12:09:39Z</time>
      </trkpt>
      <trkpt lat="45.39128" lon="2.9165">
        <ele>1250.3</ele>
        <time>2021-08-25T12:09:41Z</time>
      </trkpt>
      <trkpt lat="45.39131" lon="2.91646">
        <ele>1250.5</ele>
        <time>2021-08-25T12:09:43Z</time>
      </trkpt>
      <trkpt lat="45.39135" lon="2.91642">
        <ele>1250.5</ele>
        <time>2021-08-25T12:09:45Z</time>
      </trkpt>
      <trkpt lat="45.39139" lon="2.91638">
        <ele>1250.7</ele>
        <time>2021-08-25T12:09:47Z</time>
      </trkpt>
      <trkpt lat="45.39142" lon="2.91635">
        <ele>1250.6</ele>
        <time>2021-08-25T12:09:49Z</time>
      </trkpt>
      <trkpt lat="45.39146" lon="2.91633">
        <ele>1250.6</ele>
        <time>2021-08-25T12:09:51Z</time>
      </trkpt>
      <trkpt lat="45.3915" lon="2.9163">
        <ele>1250.5</ele>
        <time>2021-08-25T12:09:53Z</time>
      </trkpt>
      <trkpt lat="45.39154" lon="2.91628">
        <ele>1250.4</ele>
        <time>2021-08-25T12:09:55Z</time>
      </trkpt>
      <trkpt lat="45.39159" lon="2.91626">
        <ele>1250.2</ele>
        <time>2021-08-25T12:09:57Z</time>
      </trkpt>
      <trkpt lat="45.39163" lon="2.91622">
        <ele>1250.2</ele>
        <time>2021-08-25T12:09:59Z</time>
      </trkpt>
      <trkpt lat="45.39167" lon="2.91619">
        <ele>1250.3</ele>
        <time>2021-08-25T12:10:01Z</time>
      </trkpt>
      <trkpt lat="45.39171" lon="2.91615">
        <ele>1250.2</ele>
        <time>2021-08-25T12:10:03Z</time>
      </trkpt>
      <trkpt lat="45.39175" lon="2.91611">
        <ele>1250.3</ele>
        <time>2021-08-25T12:10:05Z</time>
      </trkpt>
      <trkpt lat="45.39178" lon="2.91607">
        <ele>1250.4</ele>
        <time>2021-08-25T12:10:07Z</time>
      </trkpt>
      <trkpt lat="45.39182" lon="2.91602">
        <ele>1250.5</ele>
        <time>2021-08-25T12:10:09Z</time>
      </trkpt>
      <trkpt lat="45.39186" lon="2.91598">
        <ele>1250.5</ele>
        <time>2021-08-25T12:10:11Z</time>
      </trkpt>
      <trkpt lat="45.39189" lon="2.91593">
        <ele>1250.6</ele>
        <time>2021-08-25T12:10:13Z</time>
      </trkpt>
      <trkpt lat="45.39193" lon="2.91588">
        <ele>1250.6</ele>
        <time>2021-08-25T12:10:15Z</time>
      </trkpt>
      <trkpt lat="45.39196" lon="2.91583">
        <ele>1250.8</ele>
        <time>2021-08-25T12:10:17Z</time>
      </trkpt>
      <trkpt lat="45.39201" lon="2.91581">
        <ele>1250.3</ele>
        <time>2021-08-25T12:10:19Z</time>
      </trkpt>
      <trkpt lat="45.39203" lon="2.91575">
        <ele>1250.4</ele>
        <time>2021-08-25T12:10:21Z</time>
      </trkpt>
      <trkpt lat="45.39207" lon="2.9157">
        <ele>1250.3</ele>
        <time>2021-08-25T12:10:23Z</time>
      </trkpt>
      <trkpt lat="45.3921" lon="2.91568">
        <ele>1250.1</ele>
        <time>2021-08-25T12:10:25Z</time>
      </trkpt>
      <trkpt lat="45.39213" lon="2.91563">
        <ele>1250.1</ele>
        <time>2021-08-25T12:10:27Z</time>
      </trkpt>
      <trkpt lat="45.39215" lon="2.91558">
        <ele>1250.2</ele>
        <time>2021-08-25T12:10:29Z</time>
      </trkpt>
      <trkpt lat="45.39215" lon="2.9155">
        <ele>1250.7</ele>
        <time>2021-08-25T12:10:31Z</time>
      </trkpt>
      <trkpt lat="45.39218" lon="2.91545">
        <ele>1250.9</ele>
        <time>2021-08-25T12:10:33Z</time>
      </trkpt>
      <trkpt lat="45.39219" lon="2.91538">
        <ele>1251.3</ele>
        <time>2021-08-25T12:10:35Z</time>
      </trkpt>
      <trkpt lat="45.39219" lon="2.91531">
        <ele>1251.8</ele>
        <time>2021-08-25T12:10:37Z</time>
      </trkpt>
      <trkpt lat="45.3922" lon="2.91525">
        <ele>1252.2</ele>
        <time>2021-08-25T12:10:39Z</time>
      </trkpt>
      <trkpt lat="45.3922" lon="2.91519">
        <ele>1252.7</ele>
        <time>2021-08-25T12:10:41Z</time>
      </trkpt>
      <trkpt lat="45.3922" lon="2.91512">
        <ele>1253.3</ele>
        <time>2021-08-25T12:10:43Z</time>
      </trkpt>
      <trkpt lat="45.3922" lon="2.91505">
        <ele>1253.9</ele>
        <time>2021-08-25T12:10:45Z</time>
      </trkpt>
      <trkpt lat="45.3922" lon="2.91498">
        <ele>1254.3</ele>
        <time>2021-08-25T12:10:47Z</time>
      </trkpt>
      <trkpt lat="45.3922" lon="2.91491">
        <ele>1254.7</ele>
        <time>2021-08-25T12:10:49Z</time>
      </trkpt>
      <trkpt lat="45.39221" lon="2.91484">
        <ele>1255</ele>
        <time>2021-08-25T12:10:51Z</time>
      </trkpt>
      <trkpt lat="45.39222" lon="2.91478">
        <ele>1255.1</ele>
        <time>2021-08-25T12:10:53Z</time>
      </trkpt>
      <trkpt lat="45.39223" lon="2.91472">
        <ele>1255.3</ele>
        <time>2021-08-25T12:10:55Z</time>
      </trkpt>
      <trkpt lat="45.39224" lon="2.91465">
        <ele>1255.5</ele>
        <time>2021-08-25T12:10:57Z</time>
      </trkpt>
      <trkpt lat="45.39226" lon="2.91459">
        <ele>1255.7</ele>
        <time>2021-08-25T12:10:59Z</time>
      </trkpt>
      <trkpt lat="45.39227" lon="2.91452">
        <ele>1255.8</ele>
        <time>2021-08-25T12:11:01Z</time>
      </trkpt>
      <trkpt lat="45.3923" lon="2.91447">
        <ele>1255.8</ele>
        <time>2021-08-25T12:11:03Z</time>
      </trkpt>
      <trkpt lat="45.39231" lon="2.91441">
        <ele>1256</ele>
        <time>2021-08-25T12:11:05Z</time>
      </trkpt>
      <trkpt lat="45.39233" lon="2.91435">
        <ele>1256</ele>
        <time>2021-08-25T12:11:07Z</time>
      </trkpt>
      <trkpt lat="45.39235" lon="2.91429">
        <ele>1256.1</ele>
        <time>2021-08-25T12:11:09Z</time>
      </trkpt>
      <trkpt lat="45.39238" lon="2.91424">
        <ele>1256</ele>
        <time>2021-08-25T12:11:11Z</time>
      </trkpt>
      <trkpt lat="45.39239" lon="2.91418">
        <ele>1256.3</ele>
        <time>2021-08-25T12:11:13Z</time>
      </trkpt>
      <trkpt lat="45.39241" lon="2.91413">
        <ele>1256.4</ele>
        <time>2021-08-25T12:11:15Z</time>
      </trkpt>
      <trkpt lat="45.39243" lon="2.91406">
        <ele>1256.5</ele>
        <time>2021-08-25T12:11:17Z</time>
      </trkpt>
      <trkpt lat="45.39245" lon="2.914">
        <ele>1256.7</ele>
        <time>2021-08-25T12:11:19Z</time>
      </trkpt>
      <trkpt lat="45.39246" lon="2.91393">
        <ele>1256.9</ele>
        <time>2021-08-25T12:11:21Z</time>
      </trkpt>
      <trkpt lat="45.39247" lon="2.91386">
        <ele>1257.1</ele>
        <time>2021-08-25T12:11:23Z</time>
      </trkpt>
      <trkpt lat="45.39249" lon="2.91379">
        <ele>1257.4</ele>
        <time>2021-08-25T12:11:25Z</time>
      </trkpt>
      <trkpt lat="45.3925" lon="2.91371">
        <ele>1257.7</ele>
        <time>2021-08-25T12:11:27Z</time>
      </trkpt>
      <trkpt lat="45.39252" lon="2.91364">
        <ele>1257.8</ele>
        <time>2021-08-25T12:11:29Z</time>
      </trkpt>
      <trkpt lat="45.39255" lon="2.91359">
        <ele>1257.7</ele>
        <time>2021-08-25T12:11:31Z</time>
      </trkpt>
      <trkpt lat="45.39257" lon="2.91351">
        <ele>1258</ele>
        <time>2021-08-25T12:11:33Z</time>
      </trkpt>
      <trkpt lat="45.39259" lon="2.91344">
        <ele>1258.2</ele>
        <time>2021-08-25T12:11:35Z</time>
      </trkpt>
      <trkpt lat="45.3926" lon="2.91337">
        <ele>1258.4</ele>
        <time>2021-08-25T12:11:37Z</time>
      </trkpt>
      <trkpt lat="45.39262" lon="2.9133">
        <ele>1258.5</ele>
        <time>2021-08-25T12:11:39Z</time>
      </trkpt>
      <trkpt lat="45.39264" lon="2.91322">
        <ele>1258.6</ele>
        <time>2021-08-25T12:11:41Z</time>
      </trkpt>
      <trkpt lat="45.39266" lon="2.91314">
        <ele>1258.7</ele>
        <time>2021-08-25T12:11:43Z</time>
      </trkpt>
      <trkpt lat="45.39268" lon="2.91307">
        <ele>1258.7</ele>
        <time>2021-08-25T12:11:45Z</time>
      </trkpt>
      <trkpt lat="45.3927" lon="2.913">
        <ele>1258.8</ele>
        <time>2021-08-25T12:11:47Z</time>
      </trkpt>
      <trkpt lat="45.39273" lon="2.91294">
        <ele>1258.6</ele>
        <time>2021-08-25T12:11:49Z</time>
      </trkpt>
      <trkpt lat="45.39275" lon="2.91285">
        <ele>1258.8</ele>
        <time>2021-08-25T12:11:51Z</time>
      </trkpt>
      <trkpt lat="45.39276" lon="2.91276">
        <ele>1259</ele>
        <time>2021-08-25T12:11:53Z</time>
      </trkpt>
      <trkpt lat="45.39279" lon="2.91268">
        <ele>1259.1</ele>
        <time>2021-08-25T12:11:55Z</time>
      </trkpt>
      <trkpt lat="45.39281" lon="2.91259">
        <ele>1259.2</ele>
        <time>2021-08-25T12:11:57Z</time>
      </trkpt>
      <trkpt lat="45.39283" lon="2.9125">
        <ele>1259.4</ele>
        <time>2021-08-25T12:11:59Z</time>
      </trkpt>
      <trkpt lat="45.39285" lon="2.91242">
        <ele>1259.3</ele>
        <time>2021-08-25T12:12:01Z</time>
      </trkpt>
      <trkpt lat="45.39287" lon="2.91234">
        <ele>1259.2</ele>
        <time>2021-08-25T12:12:03Z</time>
      </trkpt>
      <trkpt lat="45.39288" lon="2.91226">
        <ele>1259.1</ele>
        <time>2021-08-25T12:12:05Z</time>
      </trkpt>
      <trkpt lat="45.39291" lon="2.91218">
        <ele>1258.8</ele>
        <time>2021-08-25T12:12:07Z</time>
      </trkpt>
      <trkpt lat="45.39293" lon="2.91211">
        <ele>1258.5</ele>
        <time>2021-08-25T12:12:09Z</time>
      </trkpt>
      <trkpt lat="45.39294" lon="2.91202">
        <ele>1258.4</ele>
        <time>2021-08-25T12:12:11Z</time>
      </trkpt>
      <trkpt lat="45.39295" lon="2.91194">
        <ele>1258.4</ele>
        <time>2021-08-25T12:12:13Z</time>
      </trkpt>
      <trkpt lat="45.39295" lon="2.91187">
        <ele>1258.4</ele>
        <time>2021-08-25T12:12:15Z</time>
      </trkpt>
      <trkpt lat="45.39294" lon="2.9118">
        <ele>1258.6</ele>
        <time>2021-08-25T12:12:17Z</time>
      </trkpt>
      <trkpt lat="45.39292" lon="2.91173">
        <ele>1258.9</ele>
        <time>2021-08-25T12:12:19Z</time>
      </trkpt>
      <trkpt lat="45.39293" lon="2.91169">
        <ele>1258.9</ele>
        <time>2021-08-25T12:12:21Z</time>
      </trkpt>
      <trkpt lat="45.39293" lon="2.91165">
        <ele>1258.7</ele>
        <time>2021-08-25T12:12:23Z</time>
      </trkpt>
      <trkpt lat="45.39294" lon="2.91163">
        <ele>1258.6</ele>
        <time>2021-08-25T12:12:25Z</time>
      </trkpt>
      <trkpt lat="45.39294" lon="2.91163">
        <ele>1258.6</ele>
        <time>2021-08-25T12:12:27Z</time>
      </trkpt>
      <trkpt lat="45.39294" lon="2.91163">
        <ele>1258.6</ele>
        <time>2021-08-25T12:12:29Z</time>
      </trkpt>
      <trkpt lat="45.39294" lon="2.91163">
        <ele>1258.6</ele>
        <time>2021-08-25T12:12:31Z</time>
      </trkpt>
      <trkpt lat="45.39294" lon="2.91163">
        <ele>1258.5</ele>
        <time>2021-08-25T12:12:33Z</time>
      </trkpt>
      <trkpt lat="45.39292" lon="2.9114">
        <ele>1257.8</ele>
        <time>2021-08-25T12:16:05Z</time>
      </trkpt>
      <trkpt lat="45.39292" lon="2.91133">
        <ele>1257.6</ele>
        <time>2021-08-25T12:16:07Z</time>
      </trkpt>
      <trkpt lat="45.3929" lon="2.91124">
        <ele>1257.4</ele>
        <time>2021-08-25T12:16:09Z</time>
      </trkpt>
      <trkpt lat="45.39289" lon="2.91114">
        <ele>1257.1</ele>
        <time>2021-08-25T12:16:11Z</time>
      </trkpt>
      <trkpt lat="45.39288" lon="2.91103">
        <ele>1256.9</ele>
        <time>2021-08-25T12:16:13Z</time>
      </trkpt>
      <trkpt lat="45.39284" lon="2.91093">
        <ele>1256.9</ele>
        <time>2021-08-25T12:16:15Z</time>
      </trkpt>
      <trkpt lat="45.39282" lon="2.91082">
        <ele>1256.7</ele>
        <time>2021-08-25T12:16:17Z</time>
      </trkpt>
      <trkpt lat="45.39281" lon="2.9107">
        <ele>1256.3</ele>
        <time>2021-08-25T12:16:19Z</time>
      </trkpt>
      <trkpt lat="45.3928" lon="2.91056">
        <ele>1255.9</ele>
        <time>2021-08-25T12:16:21Z</time>
      </trkpt>
      <trkpt lat="45.39279" lon="2.91043">
        <ele>1255.5</ele>
        <time>2021-08-25T12:16:23Z</time>
      </trkpt>
      <trkpt lat="45.39279" lon="2.91029">
        <ele>1255</ele>
        <time>2021-08-25T12:16:25Z</time>
      </trkpt>
      <trkpt lat="45.39277" lon="2.91014">
        <ele>1254.7</ele>
        <time>2021-08-25T12:16:27Z</time>
      </trkpt>
      <trkpt lat="45.39276" lon="2.90999">
        <ele>1254.3</ele>
        <time>2021-08-25T12:16:29Z</time>
      </trkpt>
      <trkpt lat="45.39277" lon="2.90984">
        <ele>1253.7</ele>
        <time>2021-08-25T12:16:31Z</time>
      </trkpt>
      <trkpt lat="45.39275" lon="2.90968">
        <ele>1253.4</ele>
        <time>2021-08-25T12:16:33Z</time>
      </trkpt>
      <trkpt lat="45.39273" lon="2.90952">
        <ele>1253.1</ele>
        <time>2021-08-25T12:16:35Z</time>
      </trkpt>
      <trkpt lat="45.39271" lon="2.90936">
        <ele>1252.9</ele>
        <time>2021-08-25T12:16:37Z</time>
      </trkpt>
      <trkpt lat="45.39268" lon="2.90922">
        <ele>1252.7</ele>
        <time>2021-08-25T12:16:39Z</time>
      </trkpt>
      <trkpt lat="45.39269" lon="2.90906">
        <ele>1252.1</ele>
        <time>2021-08-25T12:16:41Z</time>
      </trkpt>
      <trkpt lat="45.39269" lon="2.90892">
        <ele>1251.5</ele>
        <time>2021-08-25T12:16:43Z</time>
      </trkpt>
      <trkpt lat="45.39269" lon="2.90878">
        <ele>1251</ele>
        <time>2021-08-25T12:16:45Z</time>
      </trkpt>
      <trkpt lat="45.39268" lon="2.90865">
        <ele>1250.6</ele>
        <time>2021-08-25T12:16:47Z</time>
      </trkpt>
      <trkpt lat="45.39265" lon="2.90853">
        <ele>1250.4</ele>
        <time>2021-08-25T12:16:49Z</time>
      </trkpt>
      <trkpt lat="45.39265" lon="2.9084">
        <ele>1249.8</ele>
        <time>2021-08-25T12:16:51Z</time>
      </trkpt>
      <trkpt lat="45.39263" lon="2.90826">
        <ele>1249.4</ele>
        <time>2021-08-25T12:16:53Z</time>
      </trkpt>
      <trkpt lat="45.39261" lon="2.90811">
        <ele>1248.7</ele>
        <time>2021-08-25T12:16:55Z</time>
      </trkpt>
      <trkpt lat="45.3926" lon="2.90797">
        <ele>1248</ele>
        <time>2021-08-25T12:16:57Z</time>
      </trkpt>
      <trkpt lat="45.39257" lon="2.90783">
        <ele>1247.4</ele>
        <time>2021-08-25T12:16:59Z</time>
      </trkpt>
      <trkpt lat="45.39255" lon="2.90769">
        <ele>1246.8</ele>
        <time>2021-08-25T12:17:01Z</time>
      </trkpt>
      <trkpt lat="45.39253" lon="2.90754">
        <ele>1246</ele>
        <time>2021-08-25T12:17:03Z</time>
      </trkpt>
      <trkpt lat="45.39252" lon="2.90742">
        <ele>1245.6</ele>
        <time>2021-08-25T12:17:05Z</time>
      </trkpt>
      <trkpt lat="45.39252" lon="2.90729">
        <ele>1245.2</ele>
        <time>2021-08-25T12:17:07Z</time>
      </trkpt>
      <trkpt lat="45.39253" lon="2.90717">
        <ele>1244.7</ele>
        <time>2021-08-25T12:17:09Z</time>
      </trkpt>
      <trkpt lat="45.39255" lon="2.90707">
        <ele>1244.3</ele>
        <time>2021-08-25T12:17:11Z</time>
      </trkpt>
      <trkpt lat="45.39256" lon="2.90695">
        <ele>1243.8</ele>
        <time>2021-08-25T12:17:13Z</time>
      </trkpt>
      <trkpt lat="45.39258" lon="2.90684">
        <ele>1243.4</ele>
        <time>2021-08-25T12:17:15Z</time>
      </trkpt>
      <trkpt lat="45.39259" lon="2.90672">
        <ele>1243.1</ele>
        <time>2021-08-25T12:17:17Z</time>
      </trkpt>
      <trkpt lat="45.3926" lon="2.90661">
        <ele>1242.7</ele>
        <time>2021-08-25T12:17:19Z</time>
      </trkpt>
      <trkpt lat="45.39262" lon="2.9065">
        <ele>1242.3</ele>
        <time>2021-08-25T12:17:21Z</time>
      </trkpt>
      <trkpt lat="45.39262" lon="2.90639">
        <ele>1241.9</ele>
        <time>2021-08-25T12:17:23Z</time>
      </trkpt>
      <trkpt lat="45.39263" lon="2.90626">
        <ele>1241.5</ele>
        <time>2021-08-25T12:17:25Z</time>
      </trkpt>
      <trkpt lat="45.39264" lon="2.90614">
        <ele>1241.1</ele>
        <time>2021-08-25T12:17:27Z</time>
      </trkpt>
      <trkpt lat="45.39265" lon="2.90601">
        <ele>1240.8</ele>
        <time>2021-08-25T12:17:29Z</time>
      </trkpt>
      <trkpt lat="45.39266" lon="2.90592">
        <ele>1240.5</ele>
        <time>2021-08-25T12:17:31Z</time>
      </trkpt>
      <trkpt lat="45.39267" lon="2.90584">
        <ele>1240.2</ele>
        <time>2021-08-25T12:17:33Z</time>
      </trkpt>
      <trkpt lat="45.39269" lon="2.90576">
        <ele>1240</ele>
        <time>2021-08-25T12:17:35Z</time>
      </trkpt>
      <trkpt lat="45.3927" lon="2.90567">
        <ele>1239.8</ele>
        <time>2021-08-25T12:17:37Z</time>
      </trkpt>
      <trkpt lat="45.39272" lon="2.90557">
        <ele>1239.6</ele>
        <time>2021-08-25T12:17:39Z</time>
      </trkpt>
      <trkpt lat="45.39274" lon="2.90548">
        <ele>1239.3</ele>
        <time>2021-08-25T12:17:41Z</time>
      </trkpt>
      <trkpt lat="45.39277" lon="2.90539">
        <ele>1239.1</ele>
        <time>2021-08-25T12:17:43Z</time>
      </trkpt>
      <trkpt lat="45.3928" lon="2.90529">
        <ele>1238.8</ele>
        <time>2021-08-25T12:17:45Z</time>
      </trkpt>
      <trkpt lat="45.39282" lon="2.90519">
        <ele>1238.5</ele>
        <time>2021-08-25T12:17:47Z</time>
      </trkpt>
      <trkpt lat="45.39285" lon="2.90508">
        <ele>1238.2</ele>
        <time>2021-08-25T12:17:49Z</time>
      </trkpt>
      <trkpt lat="45.39287" lon="2.90497">
        <ele>1237.7</ele>
        <time>2021-08-25T12:17:51Z</time>
      </trkpt>
      <trkpt lat="45.3929" lon="2.90486">
        <ele>1236.7</ele>
        <time>2021-08-25T12:17:53Z</time>
      </trkpt>
      <trkpt lat="45.39293" lon="2.90474">
        <ele>1235.7</ele>
        <time>2021-08-25T12:17:55Z</time>
      </trkpt>
      <trkpt lat="45.39295" lon="2.90464">
        <ele>1234.8</ele>
        <time>2021-08-25T12:17:57Z</time>
      </trkpt>
      <trkpt lat="45.39299" lon="2.90453">
        <ele>1233.8</ele>
        <time>2021-08-25T12:17:59Z</time>
      </trkpt>
      <trkpt lat="45.39303" lon="2.90441">
        <ele>1232.8</ele>
        <time>2021-08-25T12:18:01Z</time>
      </trkpt>
      <trkpt lat="45.39308" lon="2.90429">
        <ele>1231.8</ele>
        <time>2021-08-25T12:18:03Z</time>
      </trkpt>
      <trkpt lat="45.39314" lon="2.90417">
        <ele>1230.8</ele>
        <time>2021-08-25T12:18:05Z</time>
      </trkpt>
      <trkpt lat="45.39319" lon="2.90406">
        <ele>1230.2</ele>
        <time>2021-08-25T12:18:07Z</time>
      </trkpt>
      <trkpt lat="45.39325" lon="2.90398">
        <ele>1229.7</ele>
        <time>2021-08-25T12:18:09Z</time>
      </trkpt>
      <trkpt lat="45.3933" lon="2.90387">
        <ele>1229.2</ele>
        <time>2021-08-25T12:18:11Z</time>
      </trkpt>
      <trkpt lat="45.39336" lon="2.90376">
        <ele>1228.5</ele>
        <time>2021-08-25T12:18:13Z</time>
      </trkpt>
      <trkpt lat="45.39342" lon="2.90364">
        <ele>1227.6</ele>
        <time>2021-08-25T12:18:15Z</time>
      </trkpt>
      <trkpt lat="45.39348" lon="2.90352">
        <ele>1226.8</ele>
        <time>2021-08-25T12:18:17Z</time>
      </trkpt>
      <trkpt lat="45.39357" lon="2.90343">
        <ele>1226</ele>
        <time>2021-08-25T12:18:19Z</time>
      </trkpt>
      <trkpt lat="45.39366" lon="2.90335">
        <ele>1225.3</ele>
        <time>2021-08-25T12:18:21Z</time>
      </trkpt>
      <trkpt lat="45.39375" lon="2.90327">
        <ele>1224.4</ele>
        <time>2021-08-25T12:18:23Z</time>
      </trkpt>
      <trkpt lat="45.39383" lon="2.9032">
        <ele>1223.7</ele>
        <time>2021-08-25T12:18:25Z</time>
      </trkpt>
      <trkpt lat="45.39391" lon="2.90314">
        <ele>1223.1</ele>
        <time>2021-08-25T12:18:27Z</time>
      </trkpt>
      <trkpt lat="45.394" lon="2.90308">
        <ele>1222.5</ele>
        <time>2021-08-25T12:18:29Z</time>
      </trkpt>
      <trkpt lat="45.39407" lon="2.903">
        <ele>1221.7</ele>
        <time>2021-08-25T12:18:31Z</time>
      </trkpt>
      <trkpt lat="45.39417" lon="2.90295">
        <ele>1221.2</ele>
        <time>2021-08-25T12:18:33Z</time>
      </trkpt>
      <trkpt lat="45.39426" lon="2.90285">
        <ele>1220.1</ele>
        <time>2021-08-25T12:18:35Z</time>
      </trkpt>
      <trkpt lat="45.39436" lon="2.90278">
        <ele>1219.3</ele>
        <time>2021-08-25T12:18:37Z</time>
      </trkpt>
      <trkpt lat="45.39446" lon="2.90271">
        <ele>1218.4</ele>
        <time>2021-08-25T12:18:39Z</time>
      </trkpt>
      <trkpt lat="45.39453" lon="2.90261">
        <ele>1217.7</ele>
        <time>2021-08-25T12:18:41Z</time>
      </trkpt>
      <trkpt lat="45.39459" lon="2.90254">
        <ele>1217.2</ele>
        <time>2021-08-25T12:18:43Z</time>
      </trkpt>
      <trkpt lat="45.39464" lon="2.90249">
        <ele>1216.9</ele>
        <time>2021-08-25T12:18:45Z</time>
      </trkpt>
      <trkpt lat="45.39468" lon="2.90244">
        <ele>1216.5</ele>
        <time>2021-08-25T12:18:47Z</time>
      </trkpt>
      <trkpt lat="45.39469" lon="2.90244">
        <ele>1216.5</ele>
        <time>2021-08-25T12:18:49Z</time>
      </trkpt>
      <trkpt lat="45.39468" lon="2.90244">
        <ele>1216.5</ele>
        <time>2021-08-25T12:18:51Z</time>
      </trkpt>
      <trkpt lat="45.39468" lon="2.90244">
        <ele>1216.5</ele>
        <time>2021-08-25T12:18:53Z</time>
      </trkpt>
      <trkpt lat="45.39468" lon="2.90244">
        <ele>1216.5</ele>
        <time>2021-08-25T12:18:55Z</time>
      </trkpt>
      <trkpt lat="45.39468" lon="2.90244">
        <ele>1216.5</ele>
        <time>2021-08-25T12:18:57Z</time>
      </trkpt>
      <trkpt lat="45.39478" lon="2.90233">
        <ele>1215.9</ele>
        <time>2021-08-25T12:20:45Z</time>
      </trkpt>
      <trkpt lat="45.39482" lon="2.90228">
        <ele>1215.6</ele>
        <time>2021-08-25T12:20:47Z</time>
      </trkpt>
      <trkpt lat="45.39485" lon="2.90222">
        <ele>1215.4</ele>
        <time>2021-08-25T12:20:49Z</time>
      </trkpt>
      <trkpt lat="45.39488" lon="2.90217">
        <ele>1215.1</ele>
        <time>2021-08-25T12:20:51Z</time>
      </trkpt>
      <trkpt lat="45.39491" lon="2.90213">
        <ele>1214.9</ele>
        <time>2021-08-25T12:20:53Z</time>
      </trkpt>
      <trkpt lat="45.39494" lon="2.90208">
        <ele>1214.6</ele>
        <time>2021-08-25T12:20:55Z</time>
      </trkpt>
      <trkpt lat="45.39497" lon="2.90204">
        <ele>1214.4</ele>
        <time>2021-08-25T12:20:57Z</time>
      </trkpt>
      <trkpt lat="45.395" lon="2.90199">
        <ele>1214.1</ele>
        <time>2021-08-25T12:20:59Z</time>
      </trkpt>
      <trkpt lat="45.39503" lon="2.90192">
        <ele>1213.6</ele>
        <time>2021-08-25T12:21:01Z</time>
      </trkpt>
      <trkpt lat="45.39507" lon="2.90188">
        <ele>1213.1</ele>
        <time>2021-08-25T12:21:03Z</time>
      </trkpt>
      <trkpt lat="45.3951" lon="2.90183">
        <ele>1212.6</ele>
        <time>2021-08-25T12:21:05Z</time>
      </trkpt>
      <trkpt lat="45.39513" lon="2.90177">
        <ele>1212.1</ele>
        <time>2021-08-25T12:21:07Z</time>
      </trkpt>
      <trkpt lat="45.39515" lon="2.90172">
        <ele>1211.8</ele>
        <time>2021-08-25T12:21:09Z</time>
      </trkpt>
      <trkpt lat="45.39515" lon="2.90165">
        <ele>1211.4</ele>
        <time>2021-08-25T12:21:11Z</time>
      </trkpt>
      <trkpt lat="45.39515" lon="2.90156">
        <ele>1210.8</ele>
        <time>2021-08-25T12:21:13Z</time>
      </trkpt>
      <trkpt lat="45.39514" lon="2.90147">
        <ele>1210.2</ele>
        <time>2021-08-25T12:21:15Z</time>
      </trkpt>
      <trkpt lat="45.39511" lon="2.90139">
        <ele>1209.7</ele>
        <time>2021-08-25T12:21:17Z</time>
      </trkpt>
      <trkpt lat="45.39511" lon="2.90131">
        <ele>1209.2</ele>
        <time>2021-08-25T12:21:19Z</time>
      </trkpt>
      <trkpt lat="45.39509" lon="2.90123">
        <ele>1208.7</ele>
        <time>2021-08-25T12:21:21Z</time>
      </trkpt>
      <trkpt lat="45.39509" lon="2.90116">
        <ele>1208.2</ele>
        <time>2021-08-25T12:21:23Z</time>
      </trkpt>
      <trkpt lat="45.39509" lon="2.9011">
        <ele>1207.7</ele>
        <time>2021-08-25T12:21:25Z</time>
      </trkpt>
      <trkpt lat="45.39511" lon="2.90106">
        <ele>1207.2</ele>
        <time>2021-08-25T12:21:27Z</time>
      </trkpt>
      <trkpt lat="45.39512" lon="2.90102">
        <ele>1206.9</ele>
        <time>2021-08-25T12:21:29Z</time>
      </trkpt>
      <trkpt lat="45.39513" lon="2.90099">
        <ele>1206.6</ele>
        <time>2021-08-25T12:21:31Z</time>
      </trkpt>
      <trkpt lat="45.39514" lon="2.90095">
        <ele>1206.2</ele>
        <time>2021-08-25T12:21:33Z</time>
      </trkpt>
      <trkpt lat="45.39516" lon="2.9009">
        <ele>1205.8</ele>
        <time>2021-08-25T12:21:35Z</time>
      </trkpt>
      <trkpt lat="45.39519" lon="2.90085">
        <ele>1205.2</ele>
        <time>2021-08-25T12:21:37Z</time>
      </trkpt>
      <trkpt lat="45.39523" lon="2.90079">
        <ele>1204.6</ele>
        <time>2021-08-25T12:21:39Z</time>
      </trkpt>
      <trkpt lat="45.39529" lon="2.90073">
        <ele>1203.9</ele>
        <time>2021-08-25T12:21:41Z</time>
      </trkpt>
      <trkpt lat="45.39536" lon="2.90066">
        <ele>1203.1</ele>
        <time>2021-08-25T12:21:43Z</time>
      </trkpt>
      <trkpt lat="45.39543" lon="2.90058">
        <ele>1202.3</ele>
        <time>2021-08-25T12:21:45Z</time>
      </trkpt>
      <trkpt lat="45.3955" lon="2.90052">
        <ele>1201.6</ele>
        <time>2021-08-25T12:21:47Z</time>
      </trkpt>
      <trkpt lat="45.39557" lon="2.90044">
        <ele>1200.8</ele>
        <time>2021-08-25T12:21:49Z</time>
      </trkpt>
      <trkpt lat="45.39563" lon="2.90036">
        <ele>1200</ele>
        <time>2021-08-25T12:21:51Z</time>
      </trkpt>
      <trkpt lat="45.39571" lon="2.90027">
        <ele>1199.1</ele>
        <time>2021-08-25T12:21:53Z</time>
      </trkpt>
      <trkpt lat="45.39575" lon="2.9002">
        <ele>1198.5</ele>
        <time>2021-08-25T12:21:55Z</time>
      </trkpt>
      <trkpt lat="45.39579" lon="2.90011">
        <ele>1197.8</ele>
        <time>2021-08-25T12:21:57Z</time>
      </trkpt>
      <trkpt lat="45.39583" lon="2.90004">
        <ele>1197.3</ele>
        <time>2021-08-25T12:21:59Z</time>
      </trkpt>
      <trkpt lat="45.39586" lon="2.89997">
        <ele>1196.5</ele>
        <time>2021-08-25T12:22:01Z</time>
      </trkpt>
      <trkpt lat="45.39589" lon="2.89987">
        <ele>1195.7</ele>
        <time>2021-08-25T12:22:03Z</time>
      </trkpt>
      <trkpt lat="45.3959" lon="2.89977">
        <ele>1194.9</ele>
        <time>2021-08-25T12:22:05Z</time>
      </trkpt>
      <trkpt lat="45.39591" lon="2.89964">
        <ele>1194.1</ele>
        <time>2021-08-25T12:22:07Z</time>
      </trkpt>
      <trkpt lat="45.39591" lon="2.89949">
        <ele>1193.2</ele>
        <time>2021-08-25T12:22:09Z</time>
      </trkpt>
      <trkpt lat="45.39591" lon="2.89934">
        <ele>1192.3</ele>
        <time>2021-08-25T12:22:11Z</time>
      </trkpt>
      <trkpt lat="45.39591" lon="2.89918">
        <ele>1191.3</ele>
        <time>2021-08-25T12:22:13Z</time>
      </trkpt>
      <trkpt lat="45.39591" lon="2.89901">
        <ele>1190.7</ele>
        <time>2021-08-25T12:22:15Z</time>
      </trkpt>
      <trkpt lat="45.39592" lon="2.89884">
        <ele>1190</ele>
        <time>2021-08-25T12:22:17Z</time>
      </trkpt>
      <trkpt lat="45.39593" lon="2.89865">
        <ele>1189.2</ele>
        <time>2021-08-25T12:22:19Z</time>
      </trkpt>
      <trkpt lat="45.39594" lon="2.89847">
        <ele>1188.5</ele>
        <time>2021-08-25T12:22:21Z</time>
      </trkpt>
      <trkpt lat="45.39594" lon="2.89828">
        <ele>1187.8</ele>
        <time>2021-08-25T12:22:23Z</time>
      </trkpt>
      <trkpt lat="45.39594" lon="2.89809">
        <ele>1187.1</ele>
        <time>2021-08-25T12:22:25Z</time>
      </trkpt>
      <trkpt lat="45.39592" lon="2.8979">
        <ele>1186.6</ele>
        <time>2021-08-25T12:22:27Z</time>
      </trkpt>
      <trkpt lat="45.39589" lon="2.89772">
        <ele>1186.3</ele>
        <time>2021-08-25T12:22:29Z</time>
      </trkpt>
      <trkpt lat="45.39585" lon="2.89759">
        <ele>1186.2</ele>
        <time>2021-08-25T12:22:31Z</time>
      </trkpt>
      <trkpt lat="45.39581" lon="2.8975">
        <ele>1186</ele>
        <time>2021-08-25T12:22:33Z</time>
      </trkpt>
      <trkpt lat="45.39579" lon="2.89743">
        <ele>1185.8</ele>
        <time>2021-08-25T12:22:35Z</time>
      </trkpt>
      <trkpt lat="45.39579" lon="2.89743">
        <ele>1185.8</ele>
        <time>2021-08-25T12:22:37Z</time>
      </trkpt>
      <trkpt lat="45.39579" lon="2.89743">
        <ele>1185.8</ele>
        <time>2021-08-25T12:22:39Z</time>
      </trkpt>
      <trkpt lat="45.39579" lon="2.89743">
        <ele>1185.8</ele>
        <time>2021-08-25T12:22:41Z</time>
      </trkpt>
      <trkpt lat="45.39579" lon="2.89743">
        <ele>1185.8</ele>
        <time>2021-08-25T12:22:43Z</time>
      </trkpt>
      <trkpt lat="45.39579" lon="2.89743">
        <ele>1185.8</ele>
        <time>2021-08-25T12:22:45Z</time>
      </trkpt>
      <trkpt lat="45.39568" lon="2.89725">
        <ele>1185.2</ele>
        <time>2021-08-25T12:22:55Z</time>
      </trkpt>
      <trkpt lat="45.39562" lon="2.89718">
        <ele>1185</ele>
        <time>2021-08-25T12:22:57Z</time>
      </trkpt>
      <trkpt lat="45.39557" lon="2.89711">
        <ele>1184.8</ele>
        <time>2021-08-25T12:22:59Z</time>
      </trkpt>
      <trkpt lat="45.39552" lon="2.89702">
        <ele>1184.4</ele>
        <time>2021-08-25T12:23:01Z</time>
      </trkpt>
      <trkpt lat="45.39546" lon="2.89691">
        <ele>1184</ele>
        <time>2021-08-25T12:23:03Z</time>
      </trkpt>
      <trkpt lat="45.3954" lon="2.89678">
        <ele>1183.5</ele>
        <time>2021-08-25T12:23:05Z</time>
      </trkpt>
      <trkpt lat="45.39533" lon="2.89665">
        <ele>1182.9</ele>
        <time>2021-08-25T12:23:07Z</time>
      </trkpt>
      <trkpt lat="45.39525" lon="2.89651">
        <ele>1182.4</ele>
        <time>2021-08-25T12:23:09Z</time>
      </trkpt>
      <trkpt lat="45.39518" lon="2.89635">
        <ele>1181.8</ele>
        <time>2021-08-25T12:23:11Z</time>
      </trkpt>
      <trkpt lat="45.39513" lon="2.8962">
        <ele>1181.2</ele>
        <time>2021-08-25T12:23:13Z</time>
      </trkpt>
      <trkpt lat="45.39507" lon="2.89604">
        <ele>1180.7</ele>
        <time>2021-08-25T12:23:15Z</time>
      </trkpt>
      <trkpt lat="45.39502" lon="2.89588">
        <ele>1180.1</ele>
        <time>2021-08-25T12:23:17Z</time>
      </trkpt>
      <trkpt lat="45.39497" lon="2.8957">
        <ele>1178.9</ele>
        <time>2021-08-25T12:23:19Z</time>
      </trkpt>
      <trkpt lat="45.39491" lon="2.89547">
        <ele>1177</ele>
        <time>2021-08-25T12:23:21Z</time>
      </trkpt>
      <trkpt lat="45.39482" lon="2.89521">
        <ele>1175</ele>
        <time>2021-08-25T12:23:23Z</time>
      </trkpt>
      <trkpt lat="45.39473" lon="2.89493">
        <ele>1173</ele>
        <time>2021-08-25T12:23:25Z</time>
      </trkpt>
      <trkpt lat="45.39463" lon="2.89465">
        <ele>1171.4</ele>
        <time>2021-08-25T12:23:27Z</time>
      </trkpt>
      <trkpt lat="45.39455" lon="2.89438">
        <ele>1169.9</ele>
        <time>2021-08-25T12:23:29Z</time>
      </trkpt>
      <trkpt lat="45.39446" lon="2.89411">
        <ele>1168.5</ele>
        <time>2021-08-25T12:23:31Z</time>
      </trkpt>
      <trkpt lat="45.39437" lon="2.89385">
        <ele>1167.2</ele>
        <time>2021-08-25T12:23:33Z</time>
      </trkpt>
      <trkpt lat="45.39429" lon="2.89361">
        <ele>1166.1</ele>
        <time>2021-08-25T12:23:35Z</time>
      </trkpt>
      <trkpt lat="45.39422" lon="2.89338">
        <ele>1165.2</ele>
        <time>2021-08-25T12:23:37Z</time>
      </trkpt>
      <trkpt lat="45.39414" lon="2.89316">
        <ele>1164.1</ele>
        <time>2021-08-25T12:23:39Z</time>
      </trkpt>
      <trkpt lat="45.39407" lon="2.89294">
        <ele>1163.1</ele>
        <time>2021-08-25T12:23:41Z</time>
      </trkpt>
      <trkpt lat="45.39401" lon="2.89273">
        <ele>1162.2</ele>
        <time>2021-08-25T12:23:43Z</time>
      </trkpt>
      <trkpt lat="45.39397" lon="2.89252">
        <ele>1161.3</ele>
        <time>2021-08-25T12:23:45Z</time>
      </trkpt>
      <trkpt lat="45.3939" lon="2.8923">
        <ele>1159.7</ele>
        <time>2021-08-25T12:23:47Z</time>
      </trkpt>
      <trkpt lat="45.39383" lon="2.89212">
        <ele>1158.5</ele>
        <time>2021-08-25T12:23:49Z</time>
      </trkpt>
      <trkpt lat="45.39377" lon="2.89196">
        <ele>1157.6</ele>
        <time>2021-08-25T12:23:51Z</time>
      </trkpt>
      <trkpt lat="45.39371" lon="2.89179">
        <ele>1156.6</ele>
        <time>2021-08-25T12:23:53Z</time>
      </trkpt>
      <trkpt lat="45.39365" lon="2.89161">
        <ele>1155.4</ele>
        <time>2021-08-25T12:23:55Z</time>
      </trkpt>
      <trkpt lat="45.39359" lon="2.89145">
        <ele>1153.6</ele>
        <time>2021-08-25T12:23:57Z</time>
      </trkpt>
      <trkpt lat="45.39353" lon="2.89129">
        <ele>1152</ele>
        <time>2021-08-25T12:23:59Z</time>
      </trkpt>
      <trkpt lat="45.39344" lon="2.89111">
        <ele>1150.1</ele>
        <time>2021-08-25T12:24:01Z</time>
      </trkpt>
      <trkpt lat="45.39336" lon="2.89094">
        <ele>1148.3</ele>
        <time>2021-08-25T12:24:03Z</time>
      </trkpt>
      <trkpt lat="45.39326" lon="2.8908">
        <ele>1146.3</ele>
        <time>2021-08-25T12:24:05Z</time>
      </trkpt>
      <trkpt lat="45.39317" lon="2.89067">
        <ele>1144.4</ele>
        <time>2021-08-25T12:24:07Z</time>
      </trkpt>
      <trkpt lat="45.39309" lon="2.89057">
        <ele>1143</ele>
        <time>2021-08-25T12:24:09Z</time>
      </trkpt>
      <trkpt lat="45.39302" lon="2.89049">
        <ele>1141.7</ele>
        <time>2021-08-25T12:24:11Z</time>
      </trkpt>
      <trkpt lat="45.39296" lon="2.89042">
        <ele>1140.6</ele>
        <time>2021-08-25T12:24:13Z</time>
      </trkpt>
      <trkpt lat="45.39291" lon="2.89036">
        <ele>1139.7</ele>
        <time>2021-08-25T12:24:15Z</time>
      </trkpt>
      <trkpt lat="45.39288" lon="2.89032">
        <ele>1139.2</ele>
        <time>2021-08-25T12:24:17Z</time>
      </trkpt>
      <trkpt lat="45.39287" lon="2.8903">
        <ele>1138.8</ele>
        <time>2021-08-25T12:24:19Z</time>
      </trkpt>
      <trkpt lat="45.39283" lon="2.89027">
        <ele>1138.3</ele>
        <time>2021-08-25T12:24:21Z</time>
      </trkpt>
      <trkpt lat="45.39279" lon="2.89025">
        <ele>1138</ele>
        <time>2021-08-25T12:24:23Z</time>
      </trkpt>
      <trkpt lat="45.39275" lon="2.89021">
        <ele>1137.4</ele>
        <time>2021-08-25T12:24:25Z</time>
      </trkpt>
      <trkpt lat="45.39272" lon="2.89018">
        <ele>1136.8</ele>
        <time>2021-08-25T12:24:27Z</time>
      </trkpt>
      <trkpt lat="45.39269" lon="2.89015">
        <ele>1136.4</ele>
        <time>2021-08-25T12:24:29Z</time>
      </trkpt>
      <trkpt lat="45.39263" lon="2.89015">
        <ele>1136.3</ele>
        <time>2021-08-25T12:24:31Z</time>
      </trkpt>
      <trkpt lat="45.39257" lon="2.89011">
        <ele>1135.6</ele>
        <time>2021-08-25T12:24:33Z</time>
      </trkpt>
      <trkpt lat="45.39251" lon="2.89006">
        <ele>1134.8</ele>
        <time>2021-08-25T12:24:35Z</time>
      </trkpt>
      <trkpt lat="45.39245" lon="2.88999">
        <ele>1133.4</ele>
        <time>2021-08-25T12:24:37Z</time>
      </trkpt>
      <trkpt lat="45.39244" lon="2.88983">
        <ele>1131.3</ele>
        <time>2021-08-25T12:24:39Z</time>
      </trkpt>
      <trkpt lat="45.39247" lon="2.88963">
        <ele>1128.8</ele>
        <time>2021-08-25T12:24:41Z</time>
      </trkpt>
      <trkpt lat="45.39252" lon="2.88942">
        <ele>1126.5</ele>
        <time>2021-08-25T12:24:43Z</time>
      </trkpt>
      <trkpt lat="45.39258" lon="2.88928">
        <ele>1124.6</ele>
        <time>2021-08-25T12:24:45Z</time>
      </trkpt>
      <trkpt lat="45.39264" lon="2.88913">
        <ele>1123.1</ele>
        <time>2021-08-25T12:24:47Z</time>
      </trkpt>
      <trkpt lat="45.3927" lon="2.88896">
        <ele>1122.3</ele>
        <time>2021-08-25T12:24:49Z</time>
      </trkpt>
      <trkpt lat="45.39275" lon="2.8888">
        <ele>1121.4</ele>
        <time>2021-08-25T12:24:51Z</time>
      </trkpt>
      <trkpt lat="45.39276" lon="2.88861">
        <ele>1120.3</ele>
        <time>2021-08-25T12:24:53Z</time>
      </trkpt>
      <trkpt lat="45.39273" lon="2.88844">
        <ele>1119.3</ele>
        <time>2021-08-25T12:24:55Z</time>
      </trkpt>
      <trkpt lat="45.39269" lon="2.88829">
        <ele>1118.6</ele>
        <time>2021-08-25T12:24:57Z</time>
      </trkpt>
      <trkpt lat="45.39265" lon="2.88815">
        <ele>1118</ele>
        <time>2021-08-25T12:24:59Z</time>
      </trkpt>
      <trkpt lat="45.39262" lon="2.88799">
        <ele>1117.3</ele>
        <time>2021-08-25T12:25:01Z</time>
      </trkpt>
      <trkpt lat="45.39262" lon="2.88781">
        <ele>1116.5</ele>
        <time>2021-08-25T12:25:03Z</time>
      </trkpt>
      <trkpt lat="45.39264" lon="2.88764">
        <ele>1115.8</ele>
        <time>2021-08-25T12:25:05Z</time>
      </trkpt>
      <trkpt lat="45.39264" lon="2.88747">
        <ele>1114.9</ele>
        <time>2021-08-25T12:25:07Z</time>
      </trkpt>
      <trkpt lat="45.39262" lon="2.88732">
        <ele>1113.4</ele>
        <time>2021-08-25T12:25:09Z</time>
      </trkpt>
      <trkpt lat="45.39259" lon="2.88715">
        <ele>1111.8</ele>
        <time>2021-08-25T12:25:11Z</time>
      </trkpt>
      <trkpt lat="45.39257" lon="2.887">
        <ele>1110.4</ele>
        <time>2021-08-25T12:25:13Z</time>
      </trkpt>
      <trkpt lat="45.39254" lon="2.88689">
        <ele>1109.3</ele>
        <time>2021-08-25T12:25:15Z</time>
      </trkpt>
      <trkpt lat="45.39253" lon="2.88684">
        <ele>1108.7</ele>
        <time>2021-08-25T12:25:17Z</time>
      </trkpt>
      <trkpt lat="45.39253" lon="2.88678">
        <ele>1108.2</ele>
        <time>2021-08-25T12:25:19Z</time>
      </trkpt>
      <trkpt lat="45.3925" lon="2.88673">
        <ele>1107.6</ele>
        <time>2021-08-25T12:25:21Z</time>
      </trkpt>
      <trkpt lat="45.39248" lon="2.88672">
        <ele>1107.5</ele>
        <time>2021-08-25T12:25:23Z</time>
      </trkpt>
      <trkpt lat="45.39249" lon="2.88673">
        <ele>1107.6</ele>
        <time>2021-08-25T12:25:25Z</time>
      </trkpt>
      <trkpt lat="45.39249" lon="2.88673">
        <ele>1107.6</ele>
        <time>2021-08-25T12:25:27Z</time>
      </trkpt>
      <trkpt lat="45.39249" lon="2.88673">
        <ele>1107.6</ele>
        <time>2021-08-25T12:25:29Z</time>
      </trkpt>
      <trkpt lat="45.39249" lon="2.88673">
        <ele>1107.6</ele>
        <time>2021-08-25T12:25:31Z</time>
      </trkpt>
      <trkpt lat="45.39236" lon="2.88653">
        <ele>1104.9</ele>
        <time>2021-08-25T12:26:45Z</time>
      </trkpt>
      <trkpt lat="45.39229" lon="2.88646">
        <ele>1103.9</ele>
        <time>2021-08-25T12:26:47Z</time>
      </trkpt>
      <trkpt lat="45.39221" lon="2.88641">
        <ele>1103</ele>
        <time>2021-08-25T12:26:49Z</time>
      </trkpt>
      <trkpt lat="45.39214" lon="2.88636">
        <ele>1102</ele>
        <time>2021-08-25T12:26:51Z</time>
      </trkpt>
      <trkpt lat="45.39207" lon="2.88628">
        <ele>1100.7</ele>
        <time>2021-08-25T12:26:53Z</time>
      </trkpt>
      <trkpt lat="45.39198" lon="2.88621">
        <ele>1099.5</ele>
        <time>2021-08-25T12:26:55Z</time>
      </trkpt>
      <trkpt lat="45.39188" lon="2.88616">
        <ele>1098.3</ele>
        <time>2021-08-25T12:26:57Z</time>
      </trkpt>
      <trkpt lat="45.39177" lon="2.88611">
        <ele>1097.2</ele>
        <time>2021-08-25T12:26:59Z</time>
      </trkpt>
      <trkpt lat="45.39167" lon="2.88606">
        <ele>1096.1</ele>
        <time>2021-08-25T12:27:01Z</time>
      </trkpt>
      <trkpt lat="45.39159" lon="2.88594">
        <ele>1093.1</ele>
        <time>2021-08-25T12:27:03Z</time>
      </trkpt>
      <trkpt lat="45.39153" lon="2.88578">
        <ele>1090.3</ele>
        <time>2021-08-25T12:27:05Z</time>
      </trkpt>
      <trkpt lat="45.3915" lon="2.88562">
        <ele>1088.2</ele>
        <time>2021-08-25T12:27:07Z</time>
      </trkpt>
      <trkpt lat="45.39148" lon="2.88545">
        <ele>1086.3</ele>
        <time>2021-08-25T12:27:09Z</time>
      </trkpt>
      <trkpt lat="45.39148" lon="2.88528">
        <ele>1084.6</ele>
        <time>2021-08-25T12:27:11Z</time>
      </trkpt>
      <trkpt lat="45.3915" lon="2.8851">
        <ele>1083</ele>
        <time>2021-08-25T12:27:13Z</time>
      </trkpt>
      <trkpt lat="45.39153" lon="2.88494">
        <ele>1081.8</ele>
        <time>2021-08-25T12:27:15Z</time>
      </trkpt>
      <trkpt lat="45.39156" lon="2.8848">
        <ele>1081.1</ele>
        <time>2021-08-25T12:27:17Z</time>
      </trkpt>
      <trkpt lat="45.39159" lon="2.88468">
        <ele>1080.5</ele>
        <time>2021-08-25T12:27:19Z</time>
      </trkpt>
      <trkpt lat="45.39162" lon="2.88457">
        <ele>1079.9</ele>
        <time>2021-08-25T12:27:21Z</time>
      </trkpt>
      <trkpt lat="45.39164" lon="2.88444">
        <ele>1079.1</ele>
        <time>2021-08-25T12:27:23Z</time>
      </trkpt>
      <trkpt lat="45.39167" lon="2.8843">
        <ele>1078.2</ele>
        <time>2021-08-25T12:27:25Z</time>
      </trkpt>
      <trkpt lat="45.39171" lon="2.88416">
        <ele>1077</ele>
        <time>2021-08-25T12:27:27Z</time>
      </trkpt>
      <trkpt lat="45.39175" lon="2.88398">
        <ele>1075.7</ele>
        <time>2021-08-25T12:27:29Z</time>
      </trkpt>
      <trkpt lat="45.39182" lon="2.88377">
        <ele>1074.2</ele>
        <time>2021-08-25T12:27:31Z</time>
      </trkpt>
      <trkpt lat="45.39194" lon="2.88357">
        <ele>1072.6</ele>
        <time>2021-08-25T12:27:33Z</time>
      </trkpt>
      <trkpt lat="45.39209" lon="2.88337">
        <ele>1070.8</ele>
        <time>2021-08-25T12:27:35Z</time>
      </trkpt>
      <trkpt lat="45.39223" lon="2.88317">
        <ele>1069.2</ele>
        <time>2021-08-25T12:27:37Z</time>
      </trkpt>
      <trkpt lat="45.39236" lon="2.88295">
        <ele>1067.9</ele>
        <time>2021-08-25T12:27:39Z</time>
      </trkpt>
      <trkpt lat="45.39243" lon="2.88267">
        <ele>1066.6</ele>
        <time>2021-08-25T12:27:41Z</time>
      </trkpt>
      <trkpt lat="45.39249" lon="2.88239">
        <ele>1065.6</ele>
        <time>2021-08-25T12:27:43Z</time>
      </trkpt>
      <trkpt lat="45.39254" lon="2.88215">
        <ele>1064.5</ele>
        <time>2021-08-25T12:27:45Z</time>
      </trkpt>
      <trkpt lat="45.39254" lon="2.88192">
        <ele>1063.7</ele>
        <time>2021-08-25T12:27:47Z</time>
      </trkpt>
      <trkpt lat="45.3925" lon="2.88168">
        <ele>1063</ele>
        <time>2021-08-25T12:27:49Z</time>
      </trkpt>
      <trkpt lat="45.39245" lon="2.88142">
        <ele>1061.2</ele>
        <time>2021-08-25T12:27:51Z</time>
      </trkpt>
      <trkpt lat="45.39243" lon="2.88122">
        <ele>1059.9</ele>
        <time>2021-08-25T12:27:53Z</time>
      </trkpt>
      <trkpt lat="45.39242" lon="2.88106">
        <ele>1058.9</ele>
        <time>2021-08-25T12:27:55Z</time>
      </trkpt>
      <trkpt lat="45.39243" lon="2.88088">
        <ele>1057.9</ele>
        <time>2021-08-25T12:27:57Z</time>
      </trkpt>
      <trkpt lat="45.39247" lon="2.88069">
        <ele>1056.9</ele>
        <time>2021-08-25T12:27:59Z</time>
      </trkpt>
      <trkpt lat="45.39252" lon="2.88049">
        <ele>1055.6</ele>
        <time>2021-08-25T12:28:01Z</time>
      </trkpt>
      <trkpt lat="45.39257" lon="2.88029">
        <ele>1054.3</ele>
        <time>2021-08-25T12:28:03Z</time>
      </trkpt>
      <trkpt lat="45.39259" lon="2.88009">
        <ele>1053</ele>
        <time>2021-08-25T12:28:05Z</time>
      </trkpt>
      <trkpt lat="45.39258" lon="2.87992">
        <ele>1052</ele>
        <time>2021-08-25T12:28:07Z</time>
      </trkpt>
      <trkpt lat="45.39255" lon="2.87979">
        <ele>1051.3</ele>
        <time>2021-08-25T12:28:09Z</time>
      </trkpt>
      <trkpt lat="45.39252" lon="2.87971">
        <ele>1050.8</ele>
        <time>2021-08-25T12:28:11Z</time>
      </trkpt>
      <trkpt lat="45.39253" lon="2.87966">
        <ele>1050.5</ele>
        <time>2021-08-25T12:28:13Z</time>
      </trkpt>
      <trkpt lat="45.39262" lon="2.87964">
        <ele>1051</ele>
        <time>2021-08-25T12:28:15Z</time>
      </trkpt>
      <trkpt lat="45.39269" lon="2.87973">
        <ele>1051.8</ele>
        <time>2021-08-25T12:28:17Z</time>
      </trkpt>
      <trkpt lat="45.39274" lon="2.87981">
        <ele>1052.4</ele>
        <time>2021-08-25T12:28:19Z</time>
      </trkpt>
      <trkpt lat="45.39279" lon="2.87987">
        <ele>1053</ele>
        <time>2021-08-25T12:28:21Z</time>
      </trkpt>
      <trkpt lat="45.39285" lon="2.87994">
        <ele>1053.5</ele>
        <time>2021-08-25T12:28:23Z</time>
      </trkpt>
      <trkpt lat="45.39288" lon="2.88002">
        <ele>1053.9</ele>
        <time>2021-08-25T12:28:25Z</time>
      </trkpt>
      <trkpt lat="45.39292" lon="2.8801">
        <ele>1054.6</ele>
        <time>2021-08-25T12:28:27Z</time>
      </trkpt>
      <trkpt lat="45.39295" lon="2.88019">
        <ele>1055.2</ele>
        <time>2021-08-25T12:28:29Z</time>
      </trkpt>
      <trkpt lat="45.39296" lon="2.88028">
        <ele>1055.7</ele>
        <time>2021-08-25T12:28:31Z</time>
      </trkpt>
      <trkpt lat="45.39297" lon="2.88038">
        <ele>1056.2</ele>
        <time>2021-08-25T12:28:33Z</time>
      </trkpt>
      <trkpt lat="45.39298" lon="2.88047">
        <ele>1056.7</ele>
        <time>2021-08-25T12:28:35Z</time>
      </trkpt>
      <trkpt lat="45.39299" lon="2.88056">
        <ele>1057.2</ele>
        <time>2021-08-25T12:28:37Z</time>
      </trkpt>
      <trkpt lat="45.393" lon="2.88064">
        <ele>1057.6</ele>
        <time>2021-08-25T12:28:39Z</time>
      </trkpt>
      <trkpt lat="45.39301" lon="2.88073">
        <ele>1058.1</ele>
        <time>2021-08-25T12:28:41Z</time>
      </trkpt>
      <trkpt lat="45.39302" lon="2.8808">
        <ele>1058.5</ele>
        <time>2021-08-25T12:28:43Z</time>
      </trkpt>
      <trkpt lat="45.39303" lon="2.88087">
        <ele>1058.8</ele>
        <time>2021-08-25T12:28:45Z</time>
      </trkpt>
      <trkpt lat="45.39304" lon="2.88094">
        <ele>1059</ele>
        <time>2021-08-25T12:28:47Z</time>
      </trkpt>
      <trkpt lat="45.39305" lon="2.88102">
        <ele>1059.2</ele>
        <time>2021-08-25T12:28:49Z</time>
      </trkpt>
      <trkpt lat="45.39306" lon="2.88109">
        <ele>1059.4</ele>
        <time>2021-08-25T12:28:51Z</time>
      </trkpt>
      <trkpt lat="45.39307" lon="2.88115">
        <ele>1059.5</ele>
        <time>2021-08-25T12:28:53Z</time>
      </trkpt>
      <trkpt lat="45.39308" lon="2.88121">
        <ele>1059.7</ele>
        <time>2021-08-25T12:28:55Z</time>
      </trkpt>
      <trkpt lat="45.39309" lon="2.88127">
        <ele>1059.8</ele>
        <time>2021-08-25T12:28:57Z</time>
      </trkpt>
      <trkpt lat="45.39313" lon="2.88133">
        <ele>1059.9</ele>
        <time>2021-08-25T12:28:59Z</time>
      </trkpt>
      <trkpt lat="45.39316" lon="2.88139">
        <ele>1060</ele>
        <time>2021-08-25T12:29:01Z</time>
      </trkpt>
      <trkpt lat="45.39319" lon="2.88145">
        <ele>1060.1</ele>
        <time>2021-08-25T12:29:03Z</time>
      </trkpt>
      <trkpt lat="45.39323" lon="2.88151">
        <ele>1060.1</ele>
        <time>2021-08-25T12:29:05Z</time>
      </trkpt>
      <trkpt lat="45.39327" lon="2.88156">
        <ele>1060.1</ele>
        <time>2021-08-25T12:29:07Z</time>
      </trkpt>
      <trkpt lat="45.39331" lon="2.88161">
        <ele>1060</ele>
        <time>2021-08-25T12:29:09Z</time>
      </trkpt>
      <trkpt lat="45.39335" lon="2.88166">
        <ele>1060.1</ele>
        <time>2021-08-25T12:29:11Z</time>
      </trkpt>
      <trkpt lat="45.3934" lon="2.88171">
        <ele>1060.4</ele>
        <time>2021-08-25T12:29:13Z</time>
      </trkpt>
      <trkpt lat="45.39343" lon="2.88177">
        <ele>1060.6</ele>
        <time>2021-08-25T12:29:15Z</time>
      </trkpt>
      <trkpt lat="45.39346" lon="2.88184">
        <ele>1060.8</ele>
        <time>2021-08-25T12:29:17Z</time>
      </trkpt>
      <trkpt lat="45.39349" lon="2.8819">
        <ele>1061</ele>
        <time>2021-08-25T12:29:19Z</time>
      </trkpt>
      <trkpt lat="45.39351" lon="2.88197">
        <ele>1061.2</ele>
        <time>2021-08-25T12:29:21Z</time>
      </trkpt>
      <trkpt lat="45.39353" lon="2.88203">
        <ele>1061.3</ele>
        <time>2021-08-25T12:29:23Z</time>
      </trkpt>
      <trkpt lat="45.39353" lon="2.88211">
        <ele>1061.3</ele>
        <time>2021-08-25T12:29:25Z</time>
      </trkpt>
      <trkpt lat="45.39354" lon="2.88217">
        <ele>1061.4</ele>
        <time>2021-08-25T12:29:27Z</time>
      </trkpt>
      <trkpt lat="45.39355" lon="2.88224">
        <ele>1061.5</ele>
        <time>2021-08-25T12:29:29Z</time>
      </trkpt>
      <trkpt lat="45.39356" lon="2.88231">
        <ele>1061.6</ele>
        <time>2021-08-25T12:29:31Z</time>
      </trkpt>
      <trkpt lat="45.39358" lon="2.88238">
        <ele>1061.7</ele>
        <time>2021-08-25T12:29:33Z</time>
      </trkpt>
      <trkpt lat="45.39358" lon="2.88245">
        <ele>1061.8</ele>
        <time>2021-08-25T12:29:35Z</time>
      </trkpt>
      <trkpt lat="45.39359" lon="2.88253">
        <ele>1061.8</ele>
        <time>2021-08-25T12:29:37Z</time>
      </trkpt>
      <trkpt lat="45.39359" lon="2.8826">
        <ele>1061.8</ele>
        <time>2021-08-25T12:29:39Z</time>
      </trkpt>
      <trkpt lat="45.39361" lon="2.88267">
        <ele>1061.9</ele>
        <time>2021-08-25T12:29:41Z</time>
      </trkpt>
      <trkpt lat="45.39362" lon="2.88274">
        <ele>1062</ele>
        <time>2021-08-25T12:29:43Z</time>
      </trkpt>
      <trkpt lat="45.39364" lon="2.88281">
        <ele>1062</ele>
        <time>2021-08-25T12:29:45Z</time>
      </trkpt>
      <trkpt lat="45.39366" lon="2.88288">
        <ele>1062.2</ele>
        <time>2021-08-25T12:29:47Z</time>
      </trkpt>
      <trkpt lat="45.39368" lon="2.88296">
        <ele>1062.3</ele>
        <time>2021-08-25T12:29:49Z</time>
      </trkpt>
      <trkpt lat="45.39371" lon="2.88303">
        <ele>1062.4</ele>
        <time>2021-08-25T12:29:51Z</time>
      </trkpt>
      <trkpt lat="45.39373" lon="2.88309">
        <ele>1062.5</ele>
        <time>2021-08-25T12:29:53Z</time>
      </trkpt>
      <trkpt lat="45.39376" lon="2.88316">
        <ele>1062.7</ele>
        <time>2021-08-25T12:29:55Z</time>
      </trkpt>
      <trkpt lat="45.39379" lon="2.88322">
        <ele>1062.8</ele>
        <time>2021-08-25T12:29:57Z</time>
      </trkpt>
      <trkpt lat="45.39383" lon="2.88329">
        <ele>1063</ele>
        <time>2021-08-25T12:29:59Z</time>
      </trkpt>
      <trkpt lat="45.39387" lon="2.88335">
        <ele>1063.3</ele>
        <time>2021-08-25T12:30:01Z</time>
      </trkpt>
      <trkpt lat="45.39391" lon="2.88341">
        <ele>1063.5</ele>
        <time>2021-08-25T12:30:03Z</time>
      </trkpt>
      <trkpt lat="45.39395" lon="2.88348">
        <ele>1063.8</ele>
        <time>2021-08-25T12:30:05Z</time>
      </trkpt>
      <trkpt lat="45.39398" lon="2.88355">
        <ele>1064</ele>
        <time>2021-08-25T12:30:07Z</time>
      </trkpt>
      <trkpt lat="45.39402" lon="2.88362">
        <ele>1064</ele>
        <time>2021-08-25T12:30:09Z</time>
      </trkpt>
      <trkpt lat="45.39407" lon="2.88368">
        <ele>1064.1</ele>
        <time>2021-08-25T12:30:11Z</time>
      </trkpt>
      <trkpt lat="45.39411" lon="2.88375">
        <ele>1064</ele>
        <time>2021-08-25T12:30:13Z</time>
      </trkpt>
      <trkpt lat="45.39415" lon="2.88381">
        <ele>1063.9</ele>
        <time>2021-08-25T12:30:15Z</time>
      </trkpt>
      <trkpt lat="45.3942" lon="2.88388">
        <ele>1063.8</ele>
        <time>2021-08-25T12:30:17Z</time>
      </trkpt>
      <trkpt lat="45.39423" lon="2.88394">
        <ele>1063.9</ele>
        <time>2021-08-25T12:30:19Z</time>
      </trkpt>
      <trkpt lat="45.39427" lon="2.884">
        <ele>1063.9</ele>
        <time>2021-08-25T12:30:21Z</time>
      </trkpt>
      <trkpt lat="45.39432" lon="2.88407">
        <ele>1064</ele>
        <time>2021-08-25T12:30:23Z</time>
      </trkpt>
      <trkpt lat="45.39436" lon="2.88413">
        <ele>1064</ele>
        <time>2021-08-25T12:30:25Z</time>
      </trkpt>
      <trkpt lat="45.3944" lon="2.8842">
        <ele>1064.4</ele>
        <time>2021-08-25T12:30:27Z</time>
      </trkpt>
      <trkpt lat="45.39444" lon="2.88426">
        <ele>1065.1</ele>
        <time>2021-08-25T12:30:29Z</time>
      </trkpt>
      <trkpt lat="45.39448" lon="2.88433">
        <ele>1065.8</ele>
        <time>2021-08-25T12:30:31Z</time>
      </trkpt>
      <trkpt lat="45.39452" lon="2.88439">
        <ele>1066.4</ele>
        <time>2021-08-25T12:30:33Z</time>
      </trkpt>
      <trkpt lat="45.39457" lon="2.88446">
        <ele>1066.9</ele>
        <time>2021-08-25T12:30:35Z</time>
      </trkpt>
      <trkpt lat="45.39461" lon="2.88453">
        <ele>1067.4</ele>
        <time>2021-08-25T12:30:37Z</time>
      </trkpt>
      <trkpt lat="45.39465" lon="2.88459">
        <ele>1067.7</ele>
        <time>2021-08-25T12:30:39Z</time>
      </trkpt>
      <trkpt lat="45.3947" lon="2.88465">
        <ele>1068</ele>
        <time>2021-08-25T12:30:41Z</time>
      </trkpt>
      <trkpt lat="45.39475" lon="2.8847">
        <ele>1068.2</ele>
        <time>2021-08-25T12:30:43Z</time>
      </trkpt>
      <trkpt lat="45.3948" lon="2.88476">
        <ele>1068.3</ele>
        <time>2021-08-25T12:30:45Z</time>
      </trkpt>
      <trkpt lat="45.39485" lon="2.8848">
        <ele>1068.3</ele>
        <time>2021-08-25T12:30:47Z</time>
      </trkpt>
      <trkpt lat="45.39491" lon="2.88485">
        <ele>1068.2</ele>
        <time>2021-08-25T12:30:49Z</time>
      </trkpt>
      <trkpt lat="45.39496" lon="2.8849">
        <ele>1068.1</ele>
        <time>2021-08-25T12:30:51Z</time>
      </trkpt>
      <trkpt lat="45.39502" lon="2.88494">
        <ele>1068</ele>
        <time>2021-08-25T12:30:53Z</time>
      </trkpt>
      <trkpt lat="45.39507" lon="2.88499">
        <ele>1068.3</ele>
        <time>2021-08-25T12:30:55Z</time>
      </trkpt>
      <trkpt lat="45.39512" lon="2.88505">
        <ele>1068.9</ele>
        <time>2021-08-25T12:30:57Z</time>
      </trkpt>
      <trkpt lat="45.39516" lon="2.88511">
        <ele>1069.5</ele>
        <time>2021-08-25T12:30:59Z</time>
      </trkpt>
      <trkpt lat="45.3952" lon="2.88518">
        <ele>1070.1</ele>
        <time>2021-08-25T12:31:01Z</time>
      </trkpt>
      <trkpt lat="45.39523" lon="2.88524">
        <ele>1070.6</ele>
        <time>2021-08-25T12:31:03Z</time>
      </trkpt>
      <trkpt lat="45.39526" lon="2.8853">
        <ele>1071</ele>
        <time>2021-08-25T12:31:05Z</time>
      </trkpt>
      <trkpt lat="45.39529" lon="2.88536">
        <ele>1071.4</ele>
        <time>2021-08-25T12:31:07Z</time>
      </trkpt>
      <trkpt lat="45.39531" lon="2.88544">
        <ele>1071.8</ele>
        <time>2021-08-25T12:31:09Z</time>
      </trkpt>
      <trkpt lat="45.39533" lon="2.88552">
        <ele>1072.2</ele>
        <time>2021-08-25T12:31:11Z</time>
      </trkpt>
      <trkpt lat="45.39535" lon="2.88559">
        <ele>1072.6</ele>
        <time>2021-08-25T12:31:13Z</time>
      </trkpt>
      <trkpt lat="45.39537" lon="2.88567">
        <ele>1072.9</ele>
        <time>2021-08-25T12:31:15Z</time>
      </trkpt>
      <trkpt lat="45.39539" lon="2.88575">
        <ele>1073.2</ele>
        <time>2021-08-25T12:31:17Z</time>
      </trkpt>
      <trkpt lat="45.3954" lon="2.88584">
        <ele>1073.6</ele>
        <time>2021-08-25T12:31:19Z</time>
      </trkpt>
      <trkpt lat="45.39541" lon="2.88593">
        <ele>1074.1</ele>
        <time>2021-08-25T12:31:21Z</time>
      </trkpt>
      <trkpt lat="45.39543" lon="2.88602">
        <ele>1074.6</ele>
        <time>2021-08-25T12:31:23Z</time>
      </trkpt>
      <trkpt lat="45.39544" lon="2.8861">
        <ele>1075</ele>
        <time>2021-08-25T12:31:25Z</time>
      </trkpt>
      <trkpt lat="45.39545" lon="2.88618">
        <ele>1075.4</ele>
        <time>2021-08-25T12:31:27Z</time>
      </trkpt>
      <trkpt lat="45.39546" lon="2.88627">
        <ele>1075.9</ele>
        <time>2021-08-25T12:31:29Z</time>
      </trkpt>
      <trkpt lat="45.39548" lon="2.88636">
        <ele>1076.3</ele>
        <time>2021-08-25T12:31:31Z</time>
      </trkpt>
      <trkpt lat="45.39549" lon="2.88645">
        <ele>1076.6</ele>
        <time>2021-08-25T12:31:33Z</time>
      </trkpt>
      <trkpt lat="45.39551" lon="2.88653">
        <ele>1077</ele>
        <time>2021-08-25T12:31:35Z</time>
      </trkpt>
      <trkpt lat="45.39553" lon="2.8866">
        <ele>1077.2</ele>
        <time>2021-08-25T12:31:37Z</time>
      </trkpt>
      <trkpt lat="45.39555" lon="2.88669">
        <ele>1077.5</ele>
        <time>2021-08-25T12:31:39Z</time>
      </trkpt>
      <trkpt lat="45.39558" lon="2.88677">
        <ele>1077.6</ele>
        <time>2021-08-25T12:31:41Z</time>
      </trkpt>
      <trkpt lat="45.3956" lon="2.88685">
        <ele>1077.7</ele>
        <time>2021-08-25T12:31:43Z</time>
      </trkpt>
      <trkpt lat="45.39563" lon="2.88693">
        <ele>1077.7</ele>
        <time>2021-08-25T12:31:45Z</time>
      </trkpt>
      <trkpt lat="45.39565" lon="2.88701">
        <ele>1077.6</ele>
        <time>2021-08-25T12:31:47Z</time>
      </trkpt>
      <trkpt lat="45.39568" lon="2.88709">
        <ele>1077.6</ele>
        <time>2021-08-25T12:31:49Z</time>
      </trkpt>
      <trkpt lat="45.39571" lon="2.88717">
        <ele>1077.4</ele>
        <time>2021-08-25T12:31:51Z</time>
      </trkpt>
      <trkpt lat="45.39574" lon="2.88724">
        <ele>1077.1</ele>
        <time>2021-08-25T12:31:53Z</time>
      </trkpt>
      <trkpt lat="45.39577" lon="2.88732">
        <ele>1076.8</ele>
        <time>2021-08-25T12:31:55Z</time>
      </trkpt>
      <trkpt lat="45.39581" lon="2.88739">
        <ele>1076.3</ele>
        <time>2021-08-25T12:31:57Z</time>
      </trkpt>
      <trkpt lat="45.39584" lon="2.88745">
        <ele>1076</ele>
        <time>2021-08-25T12:31:59Z</time>
      </trkpt>
      <trkpt lat="45.39588" lon="2.88752">
        <ele>1076.2</ele>
        <time>2021-08-25T12:32:01Z</time>
      </trkpt>
      <trkpt lat="45.39592" lon="2.88758">
        <ele>1076.6</ele>
        <time>2021-08-25T12:32:03Z</time>
      </trkpt>
      <trkpt lat="45.39596" lon="2.88763">
        <ele>1076.9</ele>
        <time>2021-08-25T12:32:05Z</time>
      </trkpt>
      <trkpt lat="45.39601" lon="2.88768">
        <ele>1077.1</ele>
        <time>2021-08-25T12:32:07Z</time>
      </trkpt>
      <trkpt lat="45.39606" lon="2.88773">
        <ele>1077.2</ele>
        <time>2021-08-25T12:32:09Z</time>
      </trkpt>
      <trkpt lat="45.39611" lon="2.88778">
        <ele>1077.2</ele>
        <time>2021-08-25T12:32:11Z</time>
      </trkpt>
      <trkpt lat="45.39616" lon="2.88782">
        <ele>1077.2</ele>
        <time>2021-08-25T12:32:13Z</time>
      </trkpt>
      <trkpt lat="45.39621" lon="2.88787">
        <ele>1077.1</ele>
        <time>2021-08-25T12:32:15Z</time>
      </trkpt>
      <trkpt lat="45.39626" lon="2.88791">
        <ele>1077</ele>
        <time>2021-08-25T12:32:17Z</time>
      </trkpt>
      <trkpt lat="45.39632" lon="2.88794">
        <ele>1076.8</ele>
        <time>2021-08-25T12:32:19Z</time>
      </trkpt>
      <trkpt lat="45.39638" lon="2.88797">
        <ele>1076.5</ele>
        <time>2021-08-25T12:32:21Z</time>
      </trkpt>
      <trkpt lat="45.39643" lon="2.888">
        <ele>1076.3</ele>
        <time>2021-08-25T12:32:23Z</time>
      </trkpt>
      <trkpt lat="45.39649" lon="2.88803">
        <ele>1075.9</ele>
        <time>2021-08-25T12:32:25Z</time>
      </trkpt>
      <trkpt lat="45.39655" lon="2.88805">
        <ele>1075.5</ele>
        <time>2021-08-25T12:32:27Z</time>
      </trkpt>
      <trkpt lat="45.39661" lon="2.88807">
        <ele>1075.1</ele>
        <time>2021-08-25T12:32:29Z</time>
      </trkpt>
      <trkpt lat="45.39667" lon="2.8881">
        <ele>1074.7</ele>
        <time>2021-08-25T12:32:31Z</time>
      </trkpt>
      <trkpt lat="45.39673" lon="2.88813">
        <ele>1075</ele>
        <time>2021-08-25T12:32:33Z</time>
      </trkpt>
      <trkpt lat="45.39679" lon="2.88816">
        <ele>1075.4</ele>
        <time>2021-08-25T12:32:35Z</time>
      </trkpt>
      <trkpt lat="45.39685" lon="2.88818">
        <ele>1075.7</ele>
        <time>2021-08-25T12:32:37Z</time>
      </trkpt>
      <trkpt lat="45.39691" lon="2.88821">
        <ele>1076</ele>
        <time>2021-08-25T12:32:39Z</time>
      </trkpt>
      <trkpt lat="45.39696" lon="2.88825">
        <ele>1076.3</ele>
        <time>2021-08-25T12:32:41Z</time>
      </trkpt>
      <trkpt lat="45.39702" lon="2.88827">
        <ele>1076.8</ele>
        <time>2021-08-25T12:32:43Z</time>
      </trkpt>
      <trkpt lat="45.39708" lon="2.8883">
        <ele>1077.2</ele>
        <time>2021-08-25T12:32:45Z</time>
      </trkpt>
      <trkpt lat="45.39714" lon="2.88833">
        <ele>1077.5</ele>
        <time>2021-08-25T12:32:47Z</time>
      </trkpt>
      <trkpt lat="45.39719" lon="2.88836">
        <ele>1078.1</ele>
        <time>2021-08-25T12:32:49Z</time>
      </trkpt>
      <trkpt lat="45.39725" lon="2.8884">
        <ele>1078.7</ele>
        <time>2021-08-25T12:32:51Z</time>
      </trkpt>
      <trkpt lat="45.39731" lon="2.88844">
        <ele>1079.2</ele>
        <time>2021-08-25T12:32:53Z</time>
      </trkpt>
      <trkpt lat="45.39736" lon="2.88849">
        <ele>1079.6</ele>
        <time>2021-08-25T12:32:55Z</time>
      </trkpt>
      <trkpt lat="45.39742" lon="2.88854">
        <ele>1079.9</ele>
        <time>2021-08-25T12:32:57Z</time>
      </trkpt>
      <trkpt lat="45.39747" lon="2.88859">
        <ele>1080.2</ele>
        <time>2021-08-25T12:32:59Z</time>
      </trkpt>
      <trkpt lat="45.39751" lon="2.88864">
        <ele>1080.4</ele>
        <time>2021-08-25T12:33:01Z</time>
      </trkpt>
      <trkpt lat="45.39756" lon="2.8887">
        <ele>1080.5</ele>
        <time>2021-08-25T12:33:03Z</time>
      </trkpt>
      <trkpt lat="45.39761" lon="2.88875">
        <ele>1080.7</ele>
        <time>2021-08-25T12:33:05Z</time>
      </trkpt>
      <trkpt lat="45.39765" lon="2.8888">
        <ele>1080.8</ele>
        <time>2021-08-25T12:33:07Z</time>
      </trkpt>
      <trkpt lat="45.39769" lon="2.88885">
        <ele>1080.9</ele>
        <time>2021-08-25T12:33:09Z</time>
      </trkpt>
      <trkpt lat="45.39774" lon="2.8889">
        <ele>1081.1</ele>
        <time>2021-08-25T12:33:11Z</time>
      </trkpt>
      <trkpt lat="45.39779" lon="2.88895">
        <ele>1081.2</ele>
        <time>2021-08-25T12:33:13Z</time>
      </trkpt>
      <trkpt lat="45.39783" lon="2.889">
        <ele>1081.2</ele>
        <time>2021-08-25T12:33:15Z</time>
      </trkpt>
      <trkpt lat="45.39788" lon="2.88906">
        <ele>1081.2</ele>
        <time>2021-08-25T12:33:17Z</time>
      </trkpt>
      <trkpt lat="45.39792" lon="2.88911">
        <ele>1081.3</ele>
        <time>2021-08-25T12:33:19Z</time>
      </trkpt>
      <trkpt lat="45.39796" lon="2.88915">
        <ele>1081.3</ele>
        <time>2021-08-25T12:33:21Z</time>
      </trkpt>
      <trkpt lat="45.39801" lon="2.8892">
        <ele>1081.5</ele>
        <time>2021-08-25T12:33:23Z</time>
      </trkpt>
      <trkpt lat="45.39806" lon="2.88925">
        <ele>1081.7</ele>
        <time>2021-08-25T12:33:25Z</time>
      </trkpt>
      <trkpt lat="45.3981" lon="2.88931">
        <ele>1081.8</ele>
        <time>2021-08-25T12:33:27Z</time>
      </trkpt>
      <trkpt lat="45.39815" lon="2.88937">
        <ele>1081.9</ele>
        <time>2021-08-25T12:33:29Z</time>
      </trkpt>
      <trkpt lat="45.39819" lon="2.88942">
        <ele>1081.9</ele>
        <time>2021-08-25T12:33:31Z</time>
      </trkpt>
      <trkpt lat="45.39823" lon="2.88947">
        <ele>1081.8</ele>
        <time>2021-08-25T12:33:33Z</time>
      </trkpt>
      <trkpt lat="45.39828" lon="2.88952">
        <ele>1081.7</ele>
        <time>2021-08-25T12:33:35Z</time>
      </trkpt>
      <trkpt lat="45.39832" lon="2.88958">
        <ele>1081.5</ele>
        <time>2021-08-25T12:33:37Z</time>
      </trkpt>
      <trkpt lat="45.39835" lon="2.88964">
        <ele>1081.5</ele>
        <time>2021-08-25T12:33:39Z</time>
      </trkpt>
      <trkpt lat="45.39839" lon="2.88969">
        <ele>1081.7</ele>
        <time>2021-08-25T12:33:41Z</time>
      </trkpt>
      <trkpt lat="45.39843" lon="2.88976">
        <ele>1081.8</ele>
        <time>2021-08-25T12:33:43Z</time>
      </trkpt>
      <trkpt lat="45.39847" lon="2.88983">
        <ele>1081.9</ele>
        <time>2021-08-25T12:33:45Z</time>
      </trkpt>
      <trkpt lat="45.39851" lon="2.88989">
        <ele>1082</ele>
        <time>2021-08-25T12:33:47Z</time>
      </trkpt>
      <trkpt lat="45.39855" lon="2.88996">
        <ele>1082</ele>
        <time>2021-08-25T12:33:49Z</time>
      </trkpt>
      <trkpt lat="45.39859" lon="2.89002">
        <ele>1082.2</ele>
        <time>2021-08-25T12:33:51Z</time>
      </trkpt>
      <trkpt lat="45.39863" lon="2.89009">
        <ele>1082.8</ele>
        <time>2021-08-25T12:33:53Z</time>
      </trkpt>
      <trkpt lat="45.39866" lon="2.89016">
        <ele>1083.3</ele>
        <time>2021-08-25T12:33:55Z</time>
      </trkpt>
      <trkpt lat="45.39871" lon="2.89022">
        <ele>1083.7</ele>
        <time>2021-08-25T12:33:57Z</time>
      </trkpt>
      <trkpt lat="45.39875" lon="2.89028">
        <ele>1084</ele>
        <time>2021-08-25T12:33:59Z</time>
      </trkpt>
      <trkpt lat="45.39879" lon="2.89034">
        <ele>1084.2</ele>
        <time>2021-08-25T12:34:01Z</time>
      </trkpt>
      <trkpt lat="45.39884" lon="2.89039">
        <ele>1084.3</ele>
        <time>2021-08-25T12:34:03Z</time>
      </trkpt>
      <trkpt lat="45.39889" lon="2.89044">
        <ele>1084.3</ele>
        <time>2021-08-25T12:34:05Z</time>
      </trkpt>
      <trkpt lat="45.39894" lon="2.89048">
        <ele>1084.3</ele>
        <time>2021-08-25T12:34:07Z</time>
      </trkpt>
      <trkpt lat="45.39899" lon="2.89052">
        <ele>1084.1</ele>
        <time>2021-08-25T12:34:09Z</time>
      </trkpt>
      <trkpt lat="45.39904" lon="2.89055">
        <ele>1083.9</ele>
        <time>2021-08-25T12:34:11Z</time>
      </trkpt>
      <trkpt lat="45.39909" lon="2.89058">
        <ele>1083.7</ele>
        <time>2021-08-25T12:34:13Z</time>
      </trkpt>
      <trkpt lat="45.39915" lon="2.89062">
        <ele>1083.3</ele>
        <time>2021-08-25T12:34:15Z</time>
      </trkpt>
      <trkpt lat="45.3992" lon="2.89066">
        <ele>1083.2</ele>
        <time>2021-08-25T12:34:17Z</time>
      </trkpt>
      <trkpt lat="45.39926" lon="2.89068">
        <ele>1083.4</ele>
        <time>2021-08-25T12:34:19Z</time>
      </trkpt>
      <trkpt lat="45.39932" lon="2.89072">
        <ele>1083.5</ele>
        <time>2021-08-25T12:34:21Z</time>
      </trkpt>
      <trkpt lat="45.39938" lon="2.89075">
        <ele>1083.6</ele>
        <time>2021-08-25T12:34:23Z</time>
      </trkpt>
      <trkpt lat="45.39943" lon="2.89079">
        <ele>1083.6</ele>
        <time>2021-08-25T12:34:25Z</time>
      </trkpt>
      <trkpt lat="45.39948" lon="2.89083">
        <ele>1083.5</ele>
        <time>2021-08-25T12:34:27Z</time>
      </trkpt>
      <trkpt lat="45.39953" lon="2.89087">
        <ele>1083.9</ele>
        <time>2021-08-25T12:34:29Z</time>
      </trkpt>
      <trkpt lat="45.39958" lon="2.89091">
        <ele>1084.2</ele>
        <time>2021-08-25T12:34:31Z</time>
      </trkpt>
      <trkpt lat="45.39963" lon="2.89096">
        <ele>1084.5</ele>
        <time>2021-08-25T12:34:33Z</time>
      </trkpt>
      <trkpt lat="45.39968" lon="2.891">
        <ele>1084.7</ele>
        <time>2021-08-25T12:34:35Z</time>
      </trkpt>
      <trkpt lat="45.39974" lon="2.89104">
        <ele>1084.9</ele>
        <time>2021-08-25T12:34:37Z</time>
      </trkpt>
      <trkpt lat="45.39979" lon="2.89109">
        <ele>1085</ele>
        <time>2021-08-25T12:34:39Z</time>
      </trkpt>
      <trkpt lat="45.39984" lon="2.89111">
        <ele>1085.1</ele>
        <time>2021-08-25T12:34:41Z</time>
      </trkpt>
      <trkpt lat="45.39989" lon="2.89113">
        <ele>1085.1</ele>
        <time>2021-08-25T12:34:43Z</time>
      </trkpt>
      <trkpt lat="45.39994" lon="2.89116">
        <ele>1085.2</ele>
        <time>2021-08-25T12:34:45Z</time>
      </trkpt>
      <trkpt lat="45.39999" lon="2.89116">
        <ele>1085.2</ele>
        <time>2021-08-25T12:34:47Z</time>
      </trkpt>
      <trkpt lat="45.40004" lon="2.89118">
        <ele>1085.4</ele>
        <time>2021-08-25T12:34:49Z</time>
      </trkpt>
      <trkpt lat="45.4001" lon="2.89118">
        <ele>1085.6</ele>
        <time>2021-08-25T12:34:51Z</time>
      </trkpt>
      <trkpt lat="45.40015" lon="2.89119">
        <ele>1085.8</ele>
        <time>2021-08-25T12:34:53Z</time>
      </trkpt>
      <trkpt lat="45.40019" lon="2.89121">
        <ele>1086</ele>
        <time>2021-08-25T12:34:55Z</time>
      </trkpt>
      <trkpt lat="45.40025" lon="2.89123">
        <ele>1086.2</ele>
        <time>2021-08-25T12:34:57Z</time>
      </trkpt>
      <trkpt lat="45.4003" lon="2.89124">
        <ele>1086.4</ele>
        <time>2021-08-25T12:34:59Z</time>
      </trkpt>
      <trkpt lat="45.40035" lon="2.89125">
        <ele>1086.7</ele>
        <time>2021-08-25T12:35:01Z</time>
      </trkpt>
      <trkpt lat="45.40041" lon="2.89126">
        <ele>1086.9</ele>
        <time>2021-08-25T12:35:03Z</time>
      </trkpt>
      <trkpt lat="45.40046" lon="2.89127">
        <ele>1087.2</ele>
        <time>2021-08-25T12:35:05Z</time>
      </trkpt>
      <trkpt lat="45.40052" lon="2.89129">
        <ele>1087.4</ele>
        <time>2021-08-25T12:35:07Z</time>
      </trkpt>
      <trkpt lat="45.40057" lon="2.89129">
        <ele>1087.7</ele>
        <time>2021-08-25T12:35:09Z</time>
      </trkpt>
      <trkpt lat="45.40062" lon="2.89128">
        <ele>1088</ele>
        <time>2021-08-25T12:35:11Z</time>
      </trkpt>
      <trkpt lat="45.40068" lon="2.89127">
        <ele>1088.3</ele>
        <time>2021-08-25T12:35:13Z</time>
      </trkpt>
      <trkpt lat="45.40073" lon="2.89124">
        <ele>1088.5</ele>
        <time>2021-08-25T12:35:15Z</time>
      </trkpt>
      <trkpt lat="45.40078" lon="2.89119">
        <ele>1088.7</ele>
        <time>2021-08-25T12:35:17Z</time>
      </trkpt>
      <trkpt lat="45.40081" lon="2.89114">
        <ele>1088.9</ele>
        <time>2021-08-25T12:35:19Z</time>
      </trkpt>
      <trkpt lat="45.40084" lon="2.89108">
        <ele>1089.1</ele>
        <time>2021-08-25T12:35:21Z</time>
      </trkpt>
      <trkpt lat="45.40087" lon="2.89104">
        <ele>1089.5</ele>
        <time>2021-08-25T12:35:23Z</time>
      </trkpt>
      <trkpt lat="45.40091" lon="2.89098">
        <ele>1090</ele>
        <time>2021-08-25T12:35:25Z</time>
      </trkpt>
      <trkpt lat="45.40094" lon="2.89092">
        <ele>1090.3</ele>
        <time>2021-08-25T12:35:27Z</time>
      </trkpt>
      <trkpt lat="45.40097" lon="2.89087">
        <ele>1090.7</ele>
        <time>2021-08-25T12:35:29Z</time>
      </trkpt>
      <trkpt lat="45.401" lon="2.89081">
        <ele>1091.1</ele>
        <time>2021-08-25T12:35:31Z</time>
      </trkpt>
      <trkpt lat="45.40103" lon="2.89074">
        <ele>1091.4</ele>
        <time>2021-08-25T12:35:33Z</time>
      </trkpt>
      <trkpt lat="45.40106" lon="2.89068">
        <ele>1091.8</ele>
        <time>2021-08-25T12:35:35Z</time>
      </trkpt>
      <trkpt lat="45.40109" lon="2.89061">
        <ele>1092.2</ele>
        <time>2021-08-25T12:35:37Z</time>
      </trkpt>
      <trkpt lat="45.40113" lon="2.89056">
        <ele>1092.5</ele>
        <time>2021-08-25T12:35:39Z</time>
      </trkpt>
      <trkpt lat="45.40117" lon="2.89051">
        <ele>1092.9</ele>
        <time>2021-08-25T12:35:41Z</time>
      </trkpt>
      <trkpt lat="45.40121" lon="2.89046">
        <ele>1093.2</ele>
        <time>2021-08-25T12:35:43Z</time>
      </trkpt>
      <trkpt lat="45.40126" lon="2.89041">
        <ele>1093.6</ele>
        <time>2021-08-25T12:35:45Z</time>
      </trkpt>
      <trkpt lat="45.40131" lon="2.89038">
        <ele>1093.9</ele>
        <time>2021-08-25T12:35:47Z</time>
      </trkpt>
      <trkpt lat="45.40136" lon="2.89035">
        <ele>1094.3</ele>
        <time>2021-08-25T12:35:49Z</time>
      </trkpt>
      <trkpt lat="45.40142" lon="2.89033">
        <ele>1094.7</ele>
        <time>2021-08-25T12:35:51Z</time>
      </trkpt>
      <trkpt lat="45.40147" lon="2.89032">
        <ele>1095</ele>
        <time>2021-08-25T12:35:53Z</time>
      </trkpt>
      <trkpt lat="45.40153" lon="2.89031">
        <ele>1095.4</ele>
        <time>2021-08-25T12:35:55Z</time>
      </trkpt>
      <trkpt lat="45.40158" lon="2.8903">
        <ele>1095.8</ele>
        <time>2021-08-25T12:35:57Z</time>
      </trkpt>
      <trkpt lat="45.40164" lon="2.89029">
        <ele>1096.2</ele>
        <time>2021-08-25T12:35:59Z</time>
      </trkpt>
      <trkpt lat="45.4017" lon="2.89028">
        <ele>1096.6</ele>
        <time>2021-08-25T12:36:01Z</time>
      </trkpt>
      <trkpt lat="45.40175" lon="2.89027">
        <ele>1097.1</ele>
        <time>2021-08-25T12:36:03Z</time>
      </trkpt>
      <trkpt lat="45.40181" lon="2.89026">
        <ele>1097.6</ele>
        <time>2021-08-25T12:36:05Z</time>
      </trkpt>
      <trkpt lat="45.40187" lon="2.89025">
        <ele>1098.1</ele>
        <time>2021-08-25T12:36:07Z</time>
      </trkpt>
      <trkpt lat="45.40192" lon="2.89024">
        <ele>1098.5</ele>
        <time>2021-08-25T12:36:09Z</time>
      </trkpt>
      <trkpt lat="45.40198" lon="2.89023">
        <ele>1099</ele>
        <time>2021-08-25T12:36:11Z</time>
      </trkpt>
      <trkpt lat="45.40203" lon="2.89022">
        <ele>1099.4</ele>
        <time>2021-08-25T12:36:13Z</time>
      </trkpt>
      <trkpt lat="45.40209" lon="2.89022">
        <ele>1099.9</ele>
        <time>2021-08-25T12:36:15Z</time>
      </trkpt>
      <trkpt lat="45.40214" lon="2.89021">
        <ele>1100.2</ele>
        <time>2021-08-25T12:36:17Z</time>
      </trkpt>
      <trkpt lat="45.40219" lon="2.8902">
        <ele>1100.6</ele>
        <time>2021-08-25T12:36:19Z</time>
      </trkpt>
      <trkpt lat="45.40224" lon="2.89019">
        <ele>1101</ele>
        <time>2021-08-25T12:36:21Z</time>
      </trkpt>
      <trkpt lat="45.40229" lon="2.89018">
        <ele>1101.4</ele>
        <time>2021-08-25T12:36:23Z</time>
      </trkpt>
      <trkpt lat="45.40235" lon="2.89018">
        <ele>1101.8</ele>
        <time>2021-08-25T12:36:25Z</time>
      </trkpt>
      <trkpt lat="45.4024" lon="2.89017">
        <ele>1102.2</ele>
        <time>2021-08-25T12:36:27Z</time>
      </trkpt>
      <trkpt lat="45.40245" lon="2.89017">
        <ele>1102.6</ele>
        <time>2021-08-25T12:36:29Z</time>
      </trkpt>
      <trkpt lat="45.40251" lon="2.89017">
        <ele>1103</ele>
        <time>2021-08-25T12:36:31Z</time>
      </trkpt>
      <trkpt lat="45.40256" lon="2.89016">
        <ele>1103.2</ele>
        <time>2021-08-25T12:36:33Z</time>
      </trkpt>
      <trkpt lat="45.40262" lon="2.89015">
        <ele>1103.4</ele>
        <time>2021-08-25T12:36:35Z</time>
      </trkpt>
      <trkpt lat="45.40267" lon="2.89016">
        <ele>1103.7</ele>
        <time>2021-08-25T12:36:37Z</time>
      </trkpt>
      <trkpt lat="45.40273" lon="2.89015">
        <ele>1103.9</ele>
        <time>2021-08-25T12:36:39Z</time>
      </trkpt>
      <trkpt lat="45.40278" lon="2.89016">
        <ele>1104.1</ele>
        <time>2021-08-25T12:36:41Z</time>
      </trkpt>
      <trkpt lat="45.40284" lon="2.89015">
        <ele>1104.3</ele>
        <time>2021-08-25T12:36:43Z</time>
      </trkpt>
      <trkpt lat="45.40289" lon="2.89016">
        <ele>1104.7</ele>
        <time>2021-08-25T12:36:45Z</time>
      </trkpt>
      <trkpt lat="45.40295" lon="2.89015">
        <ele>1104.8</ele>
        <time>2021-08-25T12:36:47Z</time>
      </trkpt>
      <trkpt lat="45.403" lon="2.89015">
        <ele>1105.1</ele>
        <time>2021-08-25T12:36:49Z</time>
      </trkpt>
      <trkpt lat="45.40306" lon="2.89015">
        <ele>1105.3</ele>
        <time>2021-08-25T12:36:51Z</time>
      </trkpt>
      <trkpt lat="45.40311" lon="2.89015">
        <ele>1105.6</ele>
        <time>2021-08-25T12:36:53Z</time>
      </trkpt>
      <trkpt lat="45.40316" lon="2.89015">
        <ele>1105.7</ele>
        <time>2021-08-25T12:36:55Z</time>
      </trkpt>
      <trkpt lat="45.40322" lon="2.89013">
        <ele>1105.7</ele>
        <time>2021-08-25T12:36:57Z</time>
      </trkpt>
      <trkpt lat="45.40327" lon="2.89013">
        <ele>1106</ele>
        <time>2021-08-25T12:36:59Z</time>
      </trkpt>
      <trkpt lat="45.40333" lon="2.89012">
        <ele>1105.9</ele>
        <time>2021-08-25T12:37:01Z</time>
      </trkpt>
      <trkpt lat="45.40338" lon="2.8901">
        <ele>1106.2</ele>
        <time>2021-08-25T12:37:03Z</time>
      </trkpt>
      <trkpt lat="45.40344" lon="2.89008">
        <ele>1106.6</ele>
        <time>2021-08-25T12:37:05Z</time>
      </trkpt>
      <trkpt lat="45.4035" lon="2.89006">
        <ele>1106.9</ele>
        <time>2021-08-25T12:37:07Z</time>
      </trkpt>
      <trkpt lat="45.40355" lon="2.89004">
        <ele>1107.1</ele>
        <time>2021-08-25T12:37:09Z</time>
      </trkpt>
      <trkpt lat="45.4036" lon="2.89003">
        <ele>1107.4</ele>
        <time>2021-08-25T12:37:11Z</time>
      </trkpt>
      <trkpt lat="45.40365" lon="2.89">
        <ele>1107.4</ele>
        <time>2021-08-25T12:37:13Z</time>
      </trkpt>
      <trkpt lat="45.4037" lon="2.88998">
        <ele>1107.9</ele>
        <time>2021-08-25T12:37:15Z</time>
      </trkpt>
      <trkpt lat="45.40375" lon="2.88996">
        <ele>1108.4</ele>
        <time>2021-08-25T12:37:17Z</time>
      </trkpt>
      <trkpt lat="45.4038" lon="2.88993">
        <ele>1108.8</ele>
        <time>2021-08-25T12:37:19Z</time>
      </trkpt>
      <trkpt lat="45.40386" lon="2.88991">
        <ele>1109.3</ele>
        <time>2021-08-25T12:37:21Z</time>
      </trkpt>
      <trkpt lat="45.40391" lon="2.8899">
        <ele>1109.7</ele>
        <time>2021-08-25T12:37:23Z</time>
      </trkpt>
      <trkpt lat="45.40396" lon="2.88987">
        <ele>1110.1</ele>
        <time>2021-08-25T12:37:25Z</time>
      </trkpt>
      <trkpt lat="45.40401" lon="2.88985">
        <ele>1110.5</ele>
        <time>2021-08-25T12:37:27Z</time>
      </trkpt>
      <trkpt lat="45.40407" lon="2.88983">
        <ele>1110.9</ele>
        <time>2021-08-25T12:37:29Z</time>
      </trkpt>
      <trkpt lat="45.40412" lon="2.88981">
        <ele>1111.2</ele>
        <time>2021-08-25T12:37:31Z</time>
      </trkpt>
      <trkpt lat="45.40417" lon="2.88979">
        <ele>1111.6</ele>
        <time>2021-08-25T12:37:33Z</time>
      </trkpt>
      <trkpt lat="45.40422" lon="2.88977">
        <ele>1111.8</ele>
        <time>2021-08-25T12:37:35Z</time>
      </trkpt>
      <trkpt lat="45.40427" lon="2.88974">
        <ele>1112.1</ele>
        <time>2021-08-25T12:37:37Z</time>
      </trkpt>
      <trkpt lat="45.40431" lon="2.88972">
        <ele>1112.3</ele>
        <time>2021-08-25T12:37:39Z</time>
      </trkpt>
      <trkpt lat="45.40437" lon="2.88969">
        <ele>1112.5</ele>
        <time>2021-08-25T12:37:41Z</time>
      </trkpt>
      <trkpt lat="45.40442" lon="2.88966">
        <ele>1112.6</ele>
        <time>2021-08-25T12:37:43Z</time>
      </trkpt>
      <trkpt lat="45.40447" lon="2.88963">
        <ele>1112.8</ele>
        <time>2021-08-25T12:37:45Z</time>
      </trkpt>
      <trkpt lat="45.40452" lon="2.88959">
        <ele>1112.8</ele>
        <time>2021-08-25T12:37:47Z</time>
      </trkpt>
      <trkpt lat="45.40458" lon="2.88955">
        <ele>1112.9</ele>
        <time>2021-08-25T12:37:49Z</time>
      </trkpt>
      <trkpt lat="45.40463" lon="2.88951">
        <ele>1112.9</ele>
        <time>2021-08-25T12:37:51Z</time>
      </trkpt>
      <trkpt lat="45.40468" lon="2.88947">
        <ele>1112.8</ele>
        <time>2021-08-25T12:37:53Z</time>
      </trkpt>
      <trkpt lat="45.40473" lon="2.88944">
        <ele>1112.8</ele>
        <time>2021-08-25T12:37:55Z</time>
      </trkpt>
      <trkpt lat="45.40478" lon="2.88939">
        <ele>1112.5</ele>
        <time>2021-08-25T12:37:57Z</time>
      </trkpt>
      <trkpt lat="45.40484" lon="2.88935">
        <ele>1112.5</ele>
        <time>2021-08-25T12:37:59Z</time>
      </trkpt>
      <trkpt lat="45.4049" lon="2.88931">
        <ele>1112.3</ele>
        <time>2021-08-25T12:38:01Z</time>
      </trkpt>
      <trkpt lat="45.40495" lon="2.88928">
        <ele>1112.2</ele>
        <time>2021-08-25T12:38:03Z</time>
      </trkpt>
      <trkpt lat="45.40501" lon="2.88925">
        <ele>1112.1</ele>
        <time>2021-08-25T12:38:05Z</time>
      </trkpt>
      <trkpt lat="45.40507" lon="2.88922">
        <ele>1111.6</ele>
        <time>2021-08-25T12:38:07Z</time>
      </trkpt>
      <trkpt lat="45.40513" lon="2.88921">
        <ele>1111.2</ele>
        <time>2021-08-25T12:38:09Z</time>
      </trkpt>
      <trkpt lat="45.40519" lon="2.88919">
        <ele>1110.9</ele>
        <time>2021-08-25T12:38:11Z</time>
      </trkpt>
      <trkpt lat="45.40525" lon="2.88918">
        <ele>1110.6</ele>
        <time>2021-08-25T12:38:13Z</time>
      </trkpt>
      <trkpt lat="45.40531" lon="2.88919">
        <ele>1110.5</ele>
        <time>2021-08-25T12:38:15Z</time>
      </trkpt>
      <trkpt lat="45.40537" lon="2.8892">
        <ele>1110.5</ele>
        <time>2021-08-25T12:38:17Z</time>
      </trkpt>
      <trkpt lat="45.40544" lon="2.88921">
        <ele>1110.5</ele>
        <time>2021-08-25T12:38:19Z</time>
      </trkpt>
      <trkpt lat="45.4055" lon="2.88924">
        <ele>1110.6</ele>
        <time>2021-08-25T12:38:21Z</time>
      </trkpt>
      <trkpt lat="45.40556" lon="2.88926">
        <ele>1110.7</ele>
        <time>2021-08-25T12:38:23Z</time>
      </trkpt>
      <trkpt lat="45.40562" lon="2.88929">
        <ele>1110.9</ele>
        <time>2021-08-25T12:38:25Z</time>
      </trkpt>
      <trkpt lat="45.40567" lon="2.88933">
        <ele>1111.2</ele>
        <time>2021-08-25T12:38:27Z</time>
      </trkpt>
      <trkpt lat="45.40573" lon="2.88937">
        <ele>1111.5</ele>
        <time>2021-08-25T12:38:29Z</time>
      </trkpt>
      <trkpt lat="45.40579" lon="2.88941">
        <ele>1111.8</ele>
        <time>2021-08-25T12:38:31Z</time>
      </trkpt>
      <trkpt lat="45.40585" lon="2.88946">
        <ele>1112.1</ele>
        <time>2021-08-25T12:38:33Z</time>
      </trkpt>
      <trkpt lat="45.40591" lon="2.88949">
        <ele>1112.3</ele>
        <time>2021-08-25T12:38:35Z</time>
      </trkpt>
      <trkpt lat="45.40597" lon="2.88953">
        <ele>1112.6</ele>
        <time>2021-08-25T12:38:37Z</time>
      </trkpt>
      <trkpt lat="45.40603" lon="2.88958">
        <ele>1112.9</ele>
        <time>2021-08-25T12:38:39Z</time>
      </trkpt>
      <trkpt lat="45.40609" lon="2.88962">
        <ele>1113</ele>
        <time>2021-08-25T12:38:41Z</time>
      </trkpt>
      <trkpt lat="45.40615" lon="2.88965">
        <ele>1113.1</ele>
        <time>2021-08-25T12:38:43Z</time>
      </trkpt>
      <trkpt lat="45.40621" lon="2.88968">
        <ele>1113</ele>
        <time>2021-08-25T12:38:45Z</time>
      </trkpt>
      <trkpt lat="45.40627" lon="2.88971">
        <ele>1113</ele>
        <time>2021-08-25T12:38:47Z</time>
      </trkpt>
      <trkpt lat="45.40633" lon="2.88972">
        <ele>1112.8</ele>
        <time>2021-08-25T12:38:49Z</time>
      </trkpt>
      <trkpt lat="45.40639" lon="2.88974">
        <ele>1112.6</ele>
        <time>2021-08-25T12:38:51Z</time>
      </trkpt>
      <trkpt lat="45.40645" lon="2.88975">
        <ele>1112.4</ele>
        <time>2021-08-25T12:38:53Z</time>
      </trkpt>
      <trkpt lat="45.40651" lon="2.88976">
        <ele>1112.1</ele>
        <time>2021-08-25T12:38:55Z</time>
      </trkpt>
      <trkpt lat="45.40657" lon="2.88976">
        <ele>1111.9</ele>
        <time>2021-08-25T12:38:57Z</time>
      </trkpt>
      <trkpt lat="45.40663" lon="2.88976">
        <ele>1111.6</ele>
        <time>2021-08-25T12:38:59Z</time>
      </trkpt>
      <trkpt lat="45.40669" lon="2.88976">
        <ele>1111.4</ele>
        <time>2021-08-25T12:39:01Z</time>
      </trkpt>
      <trkpt lat="45.40675" lon="2.88976">
        <ele>1111.4</ele>
        <time>2021-08-25T12:39:03Z</time>
      </trkpt>
      <trkpt lat="45.40679" lon="2.88974">
        <ele>1111.4</ele>
        <time>2021-08-25T12:39:05Z</time>
      </trkpt>
      <trkpt lat="45.40684" lon="2.88973">
        <ele>1111.4</ele>
        <time>2021-08-25T12:39:07Z</time>
      </trkpt>
      <trkpt lat="45.40688" lon="2.88974">
        <ele>1111.4</ele>
        <time>2021-08-25T12:39:09Z</time>
      </trkpt>
      <trkpt lat="45.40693" lon="2.88972">
        <ele>1111.3</ele>
        <time>2021-08-25T12:39:11Z</time>
      </trkpt>
      <trkpt lat="45.40697" lon="2.8897">
        <ele>1111.3</ele>
        <time>2021-08-25T12:39:13Z</time>
      </trkpt>
      <trkpt lat="45.40703" lon="2.88969">
        <ele>1111.3</ele>
        <time>2021-08-25T12:39:15Z</time>
      </trkpt>
      <trkpt lat="45.40708" lon="2.88967">
        <ele>1111.2</ele>
        <time>2021-08-25T12:39:17Z</time>
      </trkpt>
      <trkpt lat="45.40713" lon="2.88967">
        <ele>1111.2</ele>
        <time>2021-08-25T12:39:19Z</time>
      </trkpt>
      <trkpt lat="45.40717" lon="2.88966">
        <ele>1111.2</ele>
        <time>2021-08-25T12:39:21Z</time>
      </trkpt>
      <trkpt lat="45.40721" lon="2.88966">
        <ele>1111.2</ele>
        <time>2021-08-25T12:39:23Z</time>
      </trkpt>
      <trkpt lat="45.40725" lon="2.88964">
        <ele>1111.1</ele>
        <time>2021-08-25T12:39:25Z</time>
      </trkpt>
      <trkpt lat="45.4073" lon="2.88963">
        <ele>1111.1</ele>
        <time>2021-08-25T12:39:27Z</time>
      </trkpt>
      <trkpt lat="45.40734" lon="2.88962">
        <ele>1111.1</ele>
        <time>2021-08-25T12:39:29Z</time>
      </trkpt>
      <trkpt lat="45.40739" lon="2.88961">
        <ele>1111.1</ele>
        <time>2021-08-25T12:39:31Z</time>
      </trkpt>
      <trkpt lat="45.40743" lon="2.88961">
        <ele>1111.1</ele>
        <time>2021-08-25T12:39:33Z</time>
      </trkpt>
      <trkpt lat="45.40747" lon="2.8896">
        <ele>1111</ele>
        <time>2021-08-25T12:39:35Z</time>
      </trkpt>
      <trkpt lat="45.40752" lon="2.88961">
        <ele>1111.1</ele>
        <time>2021-08-25T12:39:37Z</time>
      </trkpt>
      <trkpt lat="45.40757" lon="2.88962">
        <ele>1111.1</ele>
        <time>2021-08-25T12:39:39Z</time>
      </trkpt>
      <trkpt lat="45.40762" lon="2.88962">
        <ele>1111.1</ele>
        <time>2021-08-25T12:39:41Z</time>
      </trkpt>
      <trkpt lat="45.40766" lon="2.88963">
        <ele>1111.1</ele>
        <time>2021-08-25T12:39:43Z</time>
      </trkpt>
      <trkpt lat="45.40769" lon="2.88965">
        <ele>1111.1</ele>
        <time>2021-08-25T12:39:45Z</time>
      </trkpt>
      <trkpt lat="45.40774" lon="2.88966">
        <ele>1111.2</ele>
        <time>2021-08-25T12:39:47Z</time>
      </trkpt>
      <trkpt lat="45.40778" lon="2.88968">
        <ele>1111.2</ele>
        <time>2021-08-25T12:39:49Z</time>
      </trkpt>
      <trkpt lat="45.40782" lon="2.88971">
        <ele>1111.3</ele>
        <time>2021-08-25T12:39:51Z</time>
      </trkpt>
      <trkpt lat="45.40786" lon="2.88974">
        <ele>1111.4</ele>
        <time>2021-08-25T12:39:53Z</time>
      </trkpt>
      <trkpt lat="45.4079" lon="2.88977">
        <ele>1111.4</ele>
        <time>2021-08-25T12:39:55Z</time>
      </trkpt>
      <trkpt lat="45.40794" lon="2.88979">
        <ele>1111.5</ele>
        <time>2021-08-25T12:39:57Z</time>
      </trkpt>
      <trkpt lat="45.40797" lon="2.88984">
        <ele>1111.6</ele>
        <time>2021-08-25T12:39:59Z</time>
      </trkpt>
      <trkpt lat="45.40801" lon="2.88987">
        <ele>1111.7</ele>
        <time>2021-08-25T12:40:01Z</time>
      </trkpt>
      <trkpt lat="45.40805" lon="2.88991">
        <ele>1111.8</ele>
        <time>2021-08-25T12:40:03Z</time>
      </trkpt>
      <trkpt lat="45.40808" lon="2.88995">
        <ele>1111.9</ele>
        <time>2021-08-25T12:40:05Z</time>
      </trkpt>
      <trkpt lat="45.40812" lon="2.89">
        <ele>1112</ele>
        <time>2021-08-25T12:40:07Z</time>
      </trkpt>
      <trkpt lat="45.40816" lon="2.89004">
        <ele>1112.2</ele>
        <time>2021-08-25T12:40:09Z</time>
      </trkpt>
      <trkpt lat="45.4082" lon="2.89008">
        <ele>1112.4</ele>
        <time>2021-08-25T12:40:11Z</time>
      </trkpt>
      <trkpt lat="45.40823" lon="2.89013">
        <ele>1112.6</ele>
        <time>2021-08-25T12:40:13Z</time>
      </trkpt>
      <trkpt lat="45.40827" lon="2.89017">
        <ele>1112.9</ele>
        <time>2021-08-25T12:40:15Z</time>
      </trkpt>
      <trkpt lat="45.40831" lon="2.89021">
        <ele>1113</ele>
        <time>2021-08-25T12:40:17Z</time>
      </trkpt>
      <trkpt lat="45.40835" lon="2.89026">
        <ele>1113.3</ele>
        <time>2021-08-25T12:40:19Z</time>
      </trkpt>
      <trkpt lat="45.40838" lon="2.89031">
        <ele>1113.6</ele>
        <time>2021-08-25T12:40:21Z</time>
      </trkpt>
      <trkpt lat="45.40842" lon="2.89035">
        <ele>1113.9</ele>
        <time>2021-08-25T12:40:23Z</time>
      </trkpt>
      <trkpt lat="45.40847" lon="2.89038">
        <ele>1114.2</ele>
        <time>2021-08-25T12:40:25Z</time>
      </trkpt>
      <trkpt lat="45.40851" lon="2.89042">
        <ele>1114.4</ele>
        <time>2021-08-25T12:40:27Z</time>
      </trkpt>
      <trkpt lat="45.40854" lon="2.89046">
        <ele>1114.7</ele>
        <time>2021-08-25T12:40:29Z</time>
      </trkpt>
      <trkpt lat="45.40859" lon="2.89049">
        <ele>1114.9</ele>
        <time>2021-08-25T12:40:31Z</time>
      </trkpt>
      <trkpt lat="45.40865" lon="2.89052">
        <ele>1115.2</ele>
        <time>2021-08-25T12:40:33Z</time>
      </trkpt>
      <trkpt lat="45.4087" lon="2.89056">
        <ele>1115.4</ele>
        <time>2021-08-25T12:40:35Z</time>
      </trkpt>
      <trkpt lat="45.40876" lon="2.89057">
        <ele>1115.6</ele>
        <time>2021-08-25T12:40:37Z</time>
      </trkpt>
      <trkpt lat="45.40882" lon="2.89057">
        <ele>1115.7</ele>
        <time>2021-08-25T12:40:39Z</time>
      </trkpt>
      <trkpt lat="45.40887" lon="2.89057">
        <ele>1115.8</ele>
        <time>2021-08-25T12:40:41Z</time>
      </trkpt>
      <trkpt lat="45.40892" lon="2.89056">
        <ele>1115.9</ele>
        <time>2021-08-25T12:40:43Z</time>
      </trkpt>
      <trkpt lat="45.40897" lon="2.89054">
        <ele>1115.9</ele>
        <time>2021-08-25T12:40:45Z</time>
      </trkpt>
      <trkpt lat="45.40902" lon="2.89051">
        <ele>1115.9</ele>
        <time>2021-08-25T12:40:47Z</time>
      </trkpt>
      <trkpt lat="45.40907" lon="2.89049">
        <ele>1116</ele>
        <time>2021-08-25T12:40:49Z</time>
      </trkpt>
      <trkpt lat="45.40912" lon="2.89046">
        <ele>1116</ele>
        <time>2021-08-25T12:40:51Z</time>
      </trkpt>
      <trkpt lat="45.40917" lon="2.89043">
        <ele>1116</ele>
        <time>2021-08-25T12:40:53Z</time>
      </trkpt>
      <trkpt lat="45.40921" lon="2.89041">
        <ele>1116.3</ele>
        <time>2021-08-25T12:40:55Z</time>
      </trkpt>
      <trkpt lat="45.40926" lon="2.89038">
        <ele>1116.4</ele>
        <time>2021-08-25T12:40:57Z</time>
      </trkpt>
      <trkpt lat="45.4093" lon="2.89035">
        <ele>1116.6</ele>
        <time>2021-08-25T12:40:59Z</time>
      </trkpt>
      <trkpt lat="45.40934" lon="2.89032">
        <ele>1116.7</ele>
        <time>2021-08-25T12:41:01Z</time>
      </trkpt>
      <trkpt lat="45.40938" lon="2.8903">
        <ele>1116.9</ele>
        <time>2021-08-25T12:41:03Z</time>
      </trkpt>
      <trkpt lat="45.40942" lon="2.89028">
        <ele>1117.1</ele>
        <time>2021-08-25T12:41:05Z</time>
      </trkpt>
      <trkpt lat="45.40947" lon="2.89025">
        <ele>1117.2</ele>
        <time>2021-08-25T12:41:07Z</time>
      </trkpt>
      <trkpt lat="45.40951" lon="2.89022">
        <ele>1117.4</ele>
        <time>2021-08-25T12:41:09Z</time>
      </trkpt>
      <trkpt lat="45.40956" lon="2.8902">
        <ele>1117.6</ele>
        <time>2021-08-25T12:41:11Z</time>
      </trkpt>
      <trkpt lat="45.40961" lon="2.89016">
        <ele>1117.7</ele>
        <time>2021-08-25T12:41:13Z</time>
      </trkpt>
      <trkpt lat="45.40966" lon="2.89014">
        <ele>1117.9</ele>
        <time>2021-08-25T12:41:15Z</time>
      </trkpt>
      <trkpt lat="45.40971" lon="2.89012">
        <ele>1118.1</ele>
        <time>2021-08-25T12:41:17Z</time>
      </trkpt>
      <trkpt lat="45.40976" lon="2.89009">
        <ele>1118.2</ele>
        <time>2021-08-25T12:41:19Z</time>
      </trkpt>
      <trkpt lat="45.40981" lon="2.89007">
        <ele>1118.4</ele>
        <time>2021-08-25T12:41:21Z</time>
      </trkpt>
      <trkpt lat="45.40987" lon="2.89005">
        <ele>1118.6</ele>
        <time>2021-08-25T12:41:23Z</time>
      </trkpt>
      <trkpt lat="45.40992" lon="2.89003">
        <ele>1118.8</ele>
        <time>2021-08-25T12:41:25Z</time>
      </trkpt>
      <trkpt lat="45.40997" lon="2.89002">
        <ele>1119</ele>
        <time>2021-08-25T12:41:27Z</time>
      </trkpt>
      <trkpt lat="45.41003" lon="2.89001">
        <ele>1119.2</ele>
        <time>2021-08-25T12:41:29Z</time>
      </trkpt>
      <trkpt lat="45.41008" lon="2.89">
        <ele>1119.4</ele>
        <time>2021-08-25T12:41:31Z</time>
      </trkpt>
      <trkpt lat="45.41013" lon="2.88999">
        <ele>1119.6</ele>
        <time>2021-08-25T12:41:33Z</time>
      </trkpt>
      <trkpt lat="45.41018" lon="2.88999">
        <ele>1119.7</ele>
        <time>2021-08-25T12:41:35Z</time>
      </trkpt>
      <trkpt lat="45.41022" lon="2.88998">
        <ele>1119.9</ele>
        <time>2021-08-25T12:41:37Z</time>
      </trkpt>
      <trkpt lat="45.41026" lon="2.88998">
        <ele>1120.1</ele>
        <time>2021-08-25T12:41:39Z</time>
      </trkpt>
      <trkpt lat="45.4103" lon="2.88997">
        <ele>1120.3</ele>
        <time>2021-08-25T12:41:41Z</time>
      </trkpt>
      <trkpt lat="45.41035" lon="2.88998">
        <ele>1120.5</ele>
        <time>2021-08-25T12:41:43Z</time>
      </trkpt>
      <trkpt lat="45.4104" lon="2.88997">
        <ele>1120.7</ele>
        <time>2021-08-25T12:41:45Z</time>
      </trkpt>
      <trkpt lat="45.41046" lon="2.88997">
        <ele>1120.9</ele>
        <time>2021-08-25T12:41:47Z</time>
      </trkpt>
      <trkpt lat="45.41051" lon="2.88996">
        <ele>1121.2</ele>
        <time>2021-08-25T12:41:49Z</time>
      </trkpt>
      <trkpt lat="45.41056" lon="2.88996">
        <ele>1121.4</ele>
        <time>2021-08-25T12:41:51Z</time>
      </trkpt>
      <trkpt lat="45.41061" lon="2.88997">
        <ele>1121.7</ele>
        <time>2021-08-25T12:41:53Z</time>
      </trkpt>
      <trkpt lat="45.41067" lon="2.88996">
        <ele>1121.8</ele>
        <time>2021-08-25T12:41:55Z</time>
      </trkpt>
      <trkpt lat="45.41072" lon="2.88995">
        <ele>1122.1</ele>
        <time>2021-08-25T12:41:57Z</time>
      </trkpt>
      <trkpt lat="45.41078" lon="2.88994">
        <ele>1122.3</ele>
        <time>2021-08-25T12:41:59Z</time>
      </trkpt>
      <trkpt lat="45.41083" lon="2.88994">
        <ele>1122.5</ele>
        <time>2021-08-25T12:42:01Z</time>
      </trkpt>
      <trkpt lat="45.41088" lon="2.88993">
        <ele>1122.9</ele>
        <time>2021-08-25T12:42:03Z</time>
      </trkpt>
      <trkpt lat="45.41093" lon="2.88992">
        <ele>1123.3</ele>
        <time>2021-08-25T12:42:05Z</time>
      </trkpt>
      <trkpt lat="45.41098" lon="2.88991">
        <ele>1123.6</ele>
        <time>2021-08-25T12:42:07Z</time>
      </trkpt>
      <trkpt lat="45.41103" lon="2.8899">
        <ele>1124</ele>
        <time>2021-08-25T12:42:09Z</time>
      </trkpt>
      <trkpt lat="45.41108" lon="2.88988">
        <ele>1124.3</ele>
        <time>2021-08-25T12:42:11Z</time>
      </trkpt>
      <trkpt lat="45.41113" lon="2.88986">
        <ele>1124.5</ele>
        <time>2021-08-25T12:42:13Z</time>
      </trkpt>
      <trkpt lat="45.41118" lon="2.88984">
        <ele>1124.7</ele>
        <time>2021-08-25T12:42:15Z</time>
      </trkpt>
      <trkpt lat="45.41123" lon="2.88981">
        <ele>1124.9</ele>
        <time>2021-08-25T12:42:17Z</time>
      </trkpt>
      <trkpt lat="45.41128" lon="2.88979">
        <ele>1125.1</ele>
        <time>2021-08-25T12:42:19Z</time>
      </trkpt>
      <trkpt lat="45.41133" lon="2.88976">
        <ele>1125.3</ele>
        <time>2021-08-25T12:42:21Z</time>
      </trkpt>
      <trkpt lat="45.41139" lon="2.88973">
        <ele>1125.4</ele>
        <time>2021-08-25T12:42:23Z</time>
      </trkpt>
      <trkpt lat="45.41144" lon="2.88971">
        <ele>1125.6</ele>
        <time>2021-08-25T12:42:25Z</time>
      </trkpt>
      <trkpt lat="45.41149" lon="2.88969">
        <ele>1125.8</ele>
        <time>2021-08-25T12:42:27Z</time>
      </trkpt>
      <trkpt lat="45.41154" lon="2.88968">
        <ele>1126.1</ele>
        <time>2021-08-25T12:42:29Z</time>
      </trkpt>
      <trkpt lat="45.41158" lon="2.88968">
        <ele>1126.4</ele>
        <time>2021-08-25T12:42:31Z</time>
      </trkpt>
      <trkpt lat="45.41159" lon="2.88968">
        <ele>1126.5</ele>
        <time>2021-08-25T12:42:33Z</time>
      </trkpt>
      <trkpt lat="45.41158" lon="2.88968">
        <ele>1126.4</ele>
        <time>2021-08-25T12:42:35Z</time>
      </trkpt>
      <trkpt lat="45.41158" lon="2.88968">
        <ele>1126.4</ele>
        <time>2021-08-25T12:42:37Z</time>
      </trkpt>
      <trkpt lat="45.41158" lon="2.88968">
        <ele>1126.4</ele>
        <time>2021-08-25T12:42:39Z</time>
      </trkpt>
      <trkpt lat="45.41158" lon="2.88968">
        <ele>1126.4</ele>
        <time>2021-08-25T12:42:41Z</time>
      </trkpt>
      <trkpt lat="45.41171" lon="2.88964">
        <ele>1126.8</ele>
        <time>2021-08-25T12:48:43Z</time>
      </trkpt>
      <trkpt lat="45.41175" lon="2.88964">
        <ele>1126.9</ele>
        <time>2021-08-25T12:48:45Z</time>
      </trkpt>
      <trkpt lat="45.41179" lon="2.88965">
        <ele>1127.1</ele>
        <time>2021-08-25T12:48:47Z</time>
      </trkpt>
      <trkpt lat="45.41183" lon="2.88967">
        <ele>1127.4</ele>
        <time>2021-08-25T12:48:49Z</time>
      </trkpt>
      <trkpt lat="45.41187" lon="2.88968">
        <ele>1127.6</ele>
        <time>2021-08-25T12:48:51Z</time>
      </trkpt>
      <trkpt lat="45.4119" lon="2.8897">
        <ele>1128</ele>
        <time>2021-08-25T12:48:53Z</time>
      </trkpt>
      <trkpt lat="45.41193" lon="2.88972">
        <ele>1128.2</ele>
        <time>2021-08-25T12:48:55Z</time>
      </trkpt>
      <trkpt lat="45.41197" lon="2.88972">
        <ele>1128.4</ele>
        <time>2021-08-25T12:48:57Z</time>
      </trkpt>
      <trkpt lat="45.41201" lon="2.88977">
        <ele>1129.1</ele>
        <time>2021-08-25T12:48:59Z</time>
      </trkpt>
      <trkpt lat="45.41204" lon="2.88982">
        <ele>1129.9</ele>
        <time>2021-08-25T12:49:01Z</time>
      </trkpt>
      <trkpt lat="45.41208" lon="2.88987">
        <ele>1130.7</ele>
        <time>2021-08-25T12:49:03Z</time>
      </trkpt>
      <trkpt lat="45.41212" lon="2.88991">
        <ele>1131.4</ele>
        <time>2021-08-25T12:49:05Z</time>
      </trkpt>
      <trkpt lat="45.41216" lon="2.88997">
        <ele>1132.4</ele>
        <time>2021-08-25T12:49:07Z</time>
      </trkpt>
      <trkpt lat="45.4122" lon="2.89002">
        <ele>1133.2</ele>
        <time>2021-08-25T12:49:09Z</time>
      </trkpt>
      <trkpt lat="45.41224" lon="2.89006">
        <ele>1133.8</ele>
        <time>2021-08-25T12:49:11Z</time>
      </trkpt>
      <trkpt lat="45.41228" lon="2.8901">
        <ele>1134.5</ele>
        <time>2021-08-25T12:49:13Z</time>
      </trkpt>
      <trkpt lat="45.41233" lon="2.89014">
        <ele>1135.3</ele>
        <time>2021-08-25T12:49:15Z</time>
      </trkpt>
      <trkpt lat="45.41238" lon="2.89017">
        <ele>1135.9</ele>
        <time>2021-08-25T12:49:17Z</time>
      </trkpt>
      <trkpt lat="45.41244" lon="2.89019">
        <ele>1136.6</ele>
        <time>2021-08-25T12:49:19Z</time>
      </trkpt>
      <trkpt lat="45.4125" lon="2.8902">
        <ele>1137.1</ele>
        <time>2021-08-25T12:49:21Z</time>
      </trkpt>
      <trkpt lat="45.41255" lon="2.89021">
        <ele>1137.3</ele>
        <time>2021-08-25T12:49:23Z</time>
      </trkpt>
      <trkpt lat="45.4126" lon="2.89021">
        <ele>1137.5</ele>
        <time>2021-08-25T12:49:25Z</time>
      </trkpt>
      <trkpt lat="45.41264" lon="2.89021">
        <ele>1137.4</ele>
        <time>2021-08-25T12:49:27Z</time>
      </trkpt>
      <trkpt lat="45.41269" lon="2.89021">
        <ele>1137.5</ele>
        <time>2021-08-25T12:49:29Z</time>
      </trkpt>
      <trkpt lat="45.41274" lon="2.89021">
        <ele>1137.6</ele>
        <time>2021-08-25T12:49:31Z</time>
      </trkpt>
      <trkpt lat="45.41279" lon="2.8902">
        <ele>1137.5</ele>
        <time>2021-08-25T12:49:33Z</time>
      </trkpt>
      <trkpt lat="45.41285" lon="2.89019">
        <ele>1137.4</ele>
        <time>2021-08-25T12:49:35Z</time>
      </trkpt>
      <trkpt lat="45.41291" lon="2.89018">
        <ele>1137.3</ele>
        <time>2021-08-25T12:49:37Z</time>
      </trkpt>
      <trkpt lat="45.41297" lon="2.89018">
        <ele>1137.3</ele>
        <time>2021-08-25T12:49:39Z</time>
      </trkpt>
      <trkpt lat="45.41303" lon="2.89018">
        <ele>1137.4</ele>
        <time>2021-08-25T12:49:41Z</time>
      </trkpt>
      <trkpt lat="45.41308" lon="2.89018">
        <ele>1137.6</ele>
        <time>2021-08-25T12:49:43Z</time>
      </trkpt>
      <trkpt lat="45.41314" lon="2.89019">
        <ele>1137.7</ele>
        <time>2021-08-25T12:49:45Z</time>
      </trkpt>
      <trkpt lat="45.41319" lon="2.89019">
        <ele>1137.8</ele>
        <time>2021-08-25T12:49:47Z</time>
      </trkpt>
      <trkpt lat="45.41325" lon="2.8902">
        <ele>1138</ele>
        <time>2021-08-25T12:49:49Z</time>
      </trkpt>
      <trkpt lat="45.41331" lon="2.89021">
        <ele>1138.3</ele>
        <time>2021-08-25T12:49:51Z</time>
      </trkpt>
      <trkpt lat="45.41336" lon="2.89021">
        <ele>1138</ele>
        <time>2021-08-25T12:49:53Z</time>
      </trkpt>
      <trkpt lat="45.41342" lon="2.89024">
        <ele>1137.8</ele>
        <time>2021-08-25T12:49:55Z</time>
      </trkpt>
      <trkpt lat="45.41348" lon="2.89028">
        <ele>1137.7</ele>
        <time>2021-08-25T12:49:57Z</time>
      </trkpt>
      <trkpt lat="45.41353" lon="2.89031">
        <ele>1137.6</ele>
        <time>2021-08-25T12:49:59Z</time>
      </trkpt>
      <trkpt lat="45.41358" lon="2.89034">
        <ele>1137.6</ele>
        <time>2021-08-25T12:50:01Z</time>
      </trkpt>
      <trkpt lat="45.41363" lon="2.89038">
        <ele>1137.6</ele>
        <time>2021-08-25T12:50:03Z</time>
      </trkpt>
      <trkpt lat="45.41368" lon="2.89041">
        <ele>1137.5</ele>
        <time>2021-08-25T12:50:05Z</time>
      </trkpt>
      <trkpt lat="45.41372" lon="2.89045">
        <ele>1137.6</ele>
        <time>2021-08-25T12:50:07Z</time>
      </trkpt>
      <trkpt lat="45.41377" lon="2.8905">
        <ele>1137.7</ele>
        <time>2021-08-25T12:50:09Z</time>
      </trkpt>
      <trkpt lat="45.41382" lon="2.89055">
        <ele>1138</ele>
        <time>2021-08-25T12:50:11Z</time>
      </trkpt>
      <trkpt lat="45.41386" lon="2.8906">
        <ele>1138.2</ele>
        <time>2021-08-25T12:50:13Z</time>
      </trkpt>
      <trkpt lat="45.41391" lon="2.89064">
        <ele>1138.3</ele>
        <time>2021-08-25T12:50:15Z</time>
      </trkpt>
      <trkpt lat="45.41396" lon="2.89068">
        <ele>1138.2</ele>
        <time>2021-08-25T12:50:17Z</time>
      </trkpt>
      <trkpt lat="45.414" lon="2.89072">
        <ele>1138.3</ele>
        <time>2021-08-25T12:50:19Z</time>
      </trkpt>
      <trkpt lat="45.41405" lon="2.89076">
        <ele>1138.4</ele>
        <time>2021-08-25T12:50:21Z</time>
      </trkpt>
      <trkpt lat="45.41409" lon="2.89082">
        <ele>1138.7</ele>
        <time>2021-08-25T12:50:23Z</time>
      </trkpt>
      <trkpt lat="45.41414" lon="2.89086">
        <ele>1138.7</ele>
        <time>2021-08-25T12:50:25Z</time>
      </trkpt>
      <trkpt lat="45.41419" lon="2.8909">
        <ele>1138.8</ele>
        <time>2021-08-25T12:50:27Z</time>
      </trkpt>
      <trkpt lat="45.41424" lon="2.89094">
        <ele>1138.9</ele>
        <time>2021-08-25T12:50:29Z</time>
      </trkpt>
      <trkpt lat="45.41429" lon="2.89099">
        <ele>1139</ele>
        <time>2021-08-25T12:50:31Z</time>
      </trkpt>
      <trkpt lat="45.41434" lon="2.89103">
        <ele>1139</ele>
        <time>2021-08-25T12:50:33Z</time>
      </trkpt>
      <trkpt lat="45.41439" lon="2.89108">
        <ele>1139.2</ele>
        <time>2021-08-25T12:50:35Z</time>
      </trkpt>
      <trkpt lat="45.41444" lon="2.89112">
        <ele>1139.2</ele>
        <time>2021-08-25T12:50:37Z</time>
      </trkpt>
      <trkpt lat="45.41449" lon="2.89118">
        <ele>1139.4</ele>
        <time>2021-08-25T12:50:39Z</time>
      </trkpt>
      <trkpt lat="45.41454" lon="2.89121">
        <ele>1139.3</ele>
        <time>2021-08-25T12:50:41Z</time>
      </trkpt>
      <trkpt lat="45.41459" lon="2.89126">
        <ele>1139.3</ele>
        <time>2021-08-25T12:50:43Z</time>
      </trkpt>
      <trkpt lat="45.41463" lon="2.89131">
        <ele>1139.4</ele>
        <time>2021-08-25T12:50:45Z</time>
      </trkpt>
      <trkpt lat="45.41466" lon="2.89138">
        <ele>1139.9</ele>
        <time>2021-08-25T12:50:47Z</time>
      </trkpt>
      <trkpt lat="45.41471" lon="2.89144">
        <ele>1140.1</ele>
        <time>2021-08-25T12:50:49Z</time>
      </trkpt>
      <trkpt lat="45.41475" lon="2.8915">
        <ele>1140.5</ele>
        <time>2021-08-25T12:50:51Z</time>
      </trkpt>
      <trkpt lat="45.41478" lon="2.89158">
        <ele>1141</ele>
        <time>2021-08-25T12:50:53Z</time>
      </trkpt>
      <trkpt lat="45.41481" lon="2.89166">
        <ele>1141.6</ele>
        <time>2021-08-25T12:50:55Z</time>
      </trkpt>
      <trkpt lat="45.41484" lon="2.89173">
        <ele>1141.7</ele>
        <time>2021-08-25T12:50:57Z</time>
      </trkpt>
      <trkpt lat="45.41485" lon="2.89182">
        <ele>1142</ele>
        <time>2021-08-25T12:50:59Z</time>
      </trkpt>
      <trkpt lat="45.41486" lon="2.8919">
        <ele>1142.2</ele>
        <time>2021-08-25T12:51:01Z</time>
      </trkpt>
      <trkpt lat="45.41487" lon="2.89197">
        <ele>1142.4</ele>
        <time>2021-08-25T12:51:03Z</time>
      </trkpt>
      <trkpt lat="45.41488" lon="2.89206">
        <ele>1142.8</ele>
        <time>2021-08-25T12:51:05Z</time>
      </trkpt>
      <trkpt lat="45.41488" lon="2.89214">
        <ele>1143.1</ele>
        <time>2021-08-25T12:51:07Z</time>
      </trkpt>
      <trkpt lat="45.41488" lon="2.89222">
        <ele>1143.5</ele>
        <time>2021-08-25T12:51:09Z</time>
      </trkpt>
      <trkpt lat="45.41489" lon="2.8923">
        <ele>1143.9</ele>
        <time>2021-08-25T12:51:11Z</time>
      </trkpt>
      <trkpt lat="45.41489" lon="2.89238">
        <ele>1144.3</ele>
        <time>2021-08-25T12:51:13Z</time>
      </trkpt>
      <trkpt lat="45.41489" lon="2.89247">
        <ele>1144.6</ele>
        <time>2021-08-25T12:51:15Z</time>
      </trkpt>
      <trkpt lat="45.4149" lon="2.89255">
        <ele>1145.1</ele>
        <time>2021-08-25T12:51:17Z</time>
      </trkpt>
      <trkpt lat="45.41491" lon="2.89263">
        <ele>1145.5</ele>
        <time>2021-08-25T12:51:19Z</time>
      </trkpt>
      <trkpt lat="45.41492" lon="2.89271">
        <ele>1145.8</ele>
        <time>2021-08-25T12:51:21Z</time>
      </trkpt>
      <trkpt lat="45.41493" lon="2.89278">
        <ele>1146.3</ele>
        <time>2021-08-25T12:51:23Z</time>
      </trkpt>
      <trkpt lat="45.41494" lon="2.89286">
        <ele>1146.7</ele>
        <time>2021-08-25T12:51:25Z</time>
      </trkpt>
      <trkpt lat="45.41496" lon="2.89294">
        <ele>1146.9</ele>
        <time>2021-08-25T12:51:27Z</time>
      </trkpt>
      <trkpt lat="45.41499" lon="2.89301">
        <ele>1146.9</ele>
        <time>2021-08-25T12:51:29Z</time>
      </trkpt>
      <trkpt lat="45.41501" lon="2.89308">
        <ele>1147</ele>
        <time>2021-08-25T12:51:31Z</time>
      </trkpt>
      <trkpt lat="45.41504" lon="2.89316">
        <ele>1147.4</ele>
        <time>2021-08-25T12:51:33Z</time>
      </trkpt>
      <trkpt lat="45.41507" lon="2.89322">
        <ele>1147.5</ele>
        <time>2021-08-25T12:51:35Z</time>
      </trkpt>
      <trkpt lat="45.41511" lon="2.89327">
        <ele>1147.4</ele>
        <time>2021-08-25T12:51:37Z</time>
      </trkpt>
      <trkpt lat="45.41515" lon="2.89331">
        <ele>1147.5</ele>
        <time>2021-08-25T12:51:39Z</time>
      </trkpt>
      <trkpt lat="45.41518" lon="2.89335">
        <ele>1147.4</ele>
        <time>2021-08-25T12:51:41Z</time>
      </trkpt>
      <trkpt lat="45.41523" lon="2.89339">
        <ele>1147.7</ele>
        <time>2021-08-25T12:51:43Z</time>
      </trkpt>
      <trkpt lat="45.41527" lon="2.89342">
        <ele>1147.9</ele>
        <time>2021-08-25T12:51:45Z</time>
      </trkpt>
      <trkpt lat="45.41531" lon="2.89345">
        <ele>1148</ele>
        <time>2021-08-25T12:51:47Z</time>
      </trkpt>
      <trkpt lat="45.41536" lon="2.89349">
        <ele>1148.2</ele>
        <time>2021-08-25T12:51:49Z</time>
      </trkpt>
      <trkpt lat="45.4154" lon="2.89352">
        <ele>1148.4</ele>
        <time>2021-08-25T12:51:51Z</time>
      </trkpt>
      <trkpt lat="45.41545" lon="2.89355">
        <ele>1148.7</ele>
        <time>2021-08-25T12:51:53Z</time>
      </trkpt>
      <trkpt lat="45.41549" lon="2.89357">
        <ele>1148.8</ele>
        <time>2021-08-25T12:51:55Z</time>
      </trkpt>
      <trkpt lat="45.41554" lon="2.8936">
        <ele>1149.1</ele>
        <time>2021-08-25T12:51:57Z</time>
      </trkpt>
      <trkpt lat="45.41558" lon="2.89364">
        <ele>1149.5</ele>
        <time>2021-08-25T12:51:59Z</time>
      </trkpt>
      <trkpt lat="45.41562" lon="2.89367">
        <ele>1150</ele>
        <time>2021-08-25T12:52:01Z</time>
      </trkpt>
      <trkpt lat="45.41566" lon="2.8937">
        <ele>1150.2</ele>
        <time>2021-08-25T12:52:03Z</time>
      </trkpt>
      <trkpt lat="45.41571" lon="2.89373">
        <ele>1150.7</ele>
        <time>2021-08-25T12:52:05Z</time>
      </trkpt>
      <trkpt lat="45.41574" lon="2.89376">
        <ele>1151.2</ele>
        <time>2021-08-25T12:52:07Z</time>
      </trkpt>
      <trkpt lat="45.41579" lon="2.89379">
        <ele>1151.5</ele>
        <time>2021-08-25T12:52:09Z</time>
      </trkpt>
      <trkpt lat="45.41583" lon="2.89382">
        <ele>1152.1</ele>
        <time>2021-08-25T12:52:11Z</time>
      </trkpt>
      <trkpt lat="45.41588" lon="2.89386">
        <ele>1152.7</ele>
        <time>2021-08-25T12:52:13Z</time>
      </trkpt>
      <trkpt lat="45.41592" lon="2.89389">
        <ele>1152.9</ele>
        <time>2021-08-25T12:52:15Z</time>
      </trkpt>
      <trkpt lat="45.41596" lon="2.89392">
        <ele>1153.4</ele>
        <time>2021-08-25T12:52:17Z</time>
      </trkpt>
      <trkpt lat="45.41601" lon="2.89396">
        <ele>1153.7</ele>
        <time>2021-08-25T12:52:19Z</time>
      </trkpt>
      <trkpt lat="45.41606" lon="2.894">
        <ele>1154</ele>
        <time>2021-08-25T12:52:21Z</time>
      </trkpt>
      <trkpt lat="45.41611" lon="2.89404">
        <ele>1154.2</ele>
        <time>2021-08-25T12:52:23Z</time>
      </trkpt>
      <trkpt lat="45.41615" lon="2.89407">
        <ele>1154.3</ele>
        <time>2021-08-25T12:52:25Z</time>
      </trkpt>
      <trkpt lat="45.4162" lon="2.8941">
        <ele>1154.4</ele>
        <time>2021-08-25T12:52:27Z</time>
      </trkpt>
      <trkpt lat="45.41625" lon="2.89414">
        <ele>1154.5</ele>
        <time>2021-08-25T12:52:29Z</time>
      </trkpt>
      <trkpt lat="45.4163" lon="2.89416">
        <ele>1154.4</ele>
        <time>2021-08-25T12:52:31Z</time>
      </trkpt>
      <trkpt lat="45.41635" lon="2.89421">
        <ele>1154.5</ele>
        <time>2021-08-25T12:52:33Z</time>
      </trkpt>
      <trkpt lat="45.4164" lon="2.89424">
        <ele>1154.4</ele>
        <time>2021-08-25T12:52:35Z</time>
      </trkpt>
      <trkpt lat="45.41646" lon="2.89426">
        <ele>1154.1</ele>
        <time>2021-08-25T12:52:37Z</time>
      </trkpt>
      <trkpt lat="45.41652" lon="2.89428">
        <ele>1153.7</ele>
        <time>2021-08-25T12:52:39Z</time>
      </trkpt>
      <trkpt lat="45.41658" lon="2.8943">
        <ele>1153.4</ele>
        <time>2021-08-25T12:52:41Z</time>
      </trkpt>
      <trkpt lat="45.41664" lon="2.89432">
        <ele>1153</ele>
        <time>2021-08-25T12:52:43Z</time>
      </trkpt>
      <trkpt lat="45.4167" lon="2.89432">
        <ele>1152.9</ele>
        <time>2021-08-25T12:52:45Z</time>
      </trkpt>
      <trkpt lat="45.41675" lon="2.89432">
        <ele>1153.2</ele>
        <time>2021-08-25T12:52:47Z</time>
      </trkpt>
      <trkpt lat="45.4168" lon="2.89431">
        <ele>1153.5</ele>
        <time>2021-08-25T12:52:49Z</time>
      </trkpt>
      <trkpt lat="45.41685" lon="2.89428">
        <ele>1153.4</ele>
        <time>2021-08-25T12:52:51Z</time>
      </trkpt>
      <trkpt lat="45.41691" lon="2.89426">
        <ele>1153.4</ele>
        <time>2021-08-25T12:52:53Z</time>
      </trkpt>
      <trkpt lat="45.41697" lon="2.89423">
        <ele>1153.4</ele>
        <time>2021-08-25T12:52:55Z</time>
      </trkpt>
      <trkpt lat="45.41703" lon="2.89419">
        <ele>1153.3</ele>
        <time>2021-08-25T12:52:57Z</time>
      </trkpt>
      <trkpt lat="45.41709" lon="2.89414">
        <ele>1153.2</ele>
        <time>2021-08-25T12:52:59Z</time>
      </trkpt>
      <trkpt lat="45.41716" lon="2.89409">
        <ele>1153.2</ele>
        <time>2021-08-25T12:53:01Z</time>
      </trkpt>
      <trkpt lat="45.41722" lon="2.89403">
        <ele>1153</ele>
        <time>2021-08-25T12:53:03Z</time>
      </trkpt>
      <trkpt lat="45.41728" lon="2.89398">
        <ele>1152.9</ele>
        <time>2021-08-25T12:53:05Z</time>
      </trkpt>
      <trkpt lat="45.41734" lon="2.89392">
        <ele>1152.7</ele>
        <time>2021-08-25T12:53:07Z</time>
      </trkpt>
      <trkpt lat="45.4174" lon="2.89388">
        <ele>1152.7</ele>
        <time>2021-08-25T12:53:09Z</time>
      </trkpt>
      <trkpt lat="45.41746" lon="2.89384">
        <ele>1152.7</ele>
        <time>2021-08-25T12:53:11Z</time>
      </trkpt>
      <trkpt lat="45.41752" lon="2.89378">
        <ele>1152.4</ele>
        <time>2021-08-25T12:53:13Z</time>
      </trkpt>
      <trkpt lat="45.41758" lon="2.89374">
        <ele>1152.1</ele>
        <time>2021-08-25T12:53:15Z</time>
      </trkpt>
      <trkpt lat="45.41763" lon="2.89369">
        <ele>1151.7</ele>
        <time>2021-08-25T12:53:17Z</time>
      </trkpt>
      <trkpt lat="45.41769" lon="2.89365">
        <ele>1151.3</ele>
        <time>2021-08-25T12:53:19Z</time>
      </trkpt>
      <trkpt lat="45.41775" lon="2.89361">
        <ele>1151</ele>
        <time>2021-08-25T12:53:21Z</time>
      </trkpt>
      <trkpt lat="45.41782" lon="2.89357">
        <ele>1150.8</ele>
        <time>2021-08-25T12:53:23Z</time>
      </trkpt>
      <trkpt lat="45.41789" lon="2.89356">
        <ele>1150.7</ele>
        <time>2021-08-25T12:53:25Z</time>
      </trkpt>
      <trkpt lat="45.41796" lon="2.89354">
        <ele>1150.8</ele>
        <time>2021-08-25T12:53:27Z</time>
      </trkpt>
      <trkpt lat="45.41803" lon="2.89354">
        <ele>1150.9</ele>
        <time>2021-08-25T12:53:29Z</time>
      </trkpt>
      <trkpt lat="45.41809" lon="2.89355">
        <ele>1151.2</ele>
        <time>2021-08-25T12:53:31Z</time>
      </trkpt>
      <trkpt lat="45.41816" lon="2.89356">
        <ele>1151.5</ele>
        <time>2021-08-25T12:53:33Z</time>
      </trkpt>
      <trkpt lat="45.41822" lon="2.89357">
        <ele>1151.8</ele>
        <time>2021-08-25T12:53:35Z</time>
      </trkpt>
      <trkpt lat="45.41828" lon="2.89359">
        <ele>1152.3</ele>
        <time>2021-08-25T12:53:37Z</time>
      </trkpt>
      <trkpt lat="45.41834" lon="2.89362">
        <ele>1152.9</ele>
        <time>2021-08-25T12:53:39Z</time>
      </trkpt>
      <trkpt lat="45.4184" lon="2.89366">
        <ele>1153.4</ele>
        <time>2021-08-25T12:53:41Z</time>
      </trkpt>
      <trkpt lat="45.41846" lon="2.8937">
        <ele>1154</ele>
        <time>2021-08-25T12:53:43Z</time>
      </trkpt>
      <trkpt lat="45.41852" lon="2.89374">
        <ele>1154.5</ele>
        <time>2021-08-25T12:53:45Z</time>
      </trkpt>
      <trkpt lat="45.41858" lon="2.89378">
        <ele>1154.9</ele>
        <time>2021-08-25T12:53:47Z</time>
      </trkpt>
      <trkpt lat="45.41863" lon="2.89383">
        <ele>1155.3</ele>
        <time>2021-08-25T12:53:49Z</time>
      </trkpt>
      <trkpt lat="45.41868" lon="2.89389">
        <ele>1155.8</ele>
        <time>2021-08-25T12:53:51Z</time>
      </trkpt>
      <trkpt lat="45.41874" lon="2.89395">
        <ele>1156.1</ele>
        <time>2021-08-25T12:53:53Z</time>
      </trkpt>
      <trkpt lat="45.4188" lon="2.89402">
        <ele>1156.3</ele>
        <time>2021-08-25T12:53:55Z</time>
      </trkpt>
      <trkpt lat="45.41885" lon="2.89408">
        <ele>1156.5</ele>
        <time>2021-08-25T12:53:57Z</time>
      </trkpt>
      <trkpt lat="45.4189" lon="2.89414">
        <ele>1156.5</ele>
        <time>2021-08-25T12:53:59Z</time>
      </trkpt>
      <trkpt lat="45.41895" lon="2.8942">
        <ele>1156.6</ele>
        <time>2021-08-25T12:54:01Z</time>
      </trkpt>
      <trkpt lat="45.419" lon="2.89426">
        <ele>1156.8</ele>
        <time>2021-08-25T12:54:03Z</time>
      </trkpt>
      <trkpt lat="45.41906" lon="2.89432">
        <ele>1156.9</ele>
        <time>2021-08-25T12:54:05Z</time>
      </trkpt>
      <trkpt lat="45.41911" lon="2.89438">
        <ele>1157</ele>
        <time>2021-08-25T12:54:07Z</time>
      </trkpt>
      <trkpt lat="45.41916" lon="2.89444">
        <ele>1157</ele>
        <time>2021-08-25T12:54:09Z</time>
      </trkpt>
      <trkpt lat="45.41922" lon="2.89451">
        <ele>1157.3</ele>
        <time>2021-08-25T12:54:11Z</time>
      </trkpt>
      <trkpt lat="45.41927" lon="2.89458">
        <ele>1157.6</ele>
        <time>2021-08-25T12:54:13Z</time>
      </trkpt>
      <trkpt lat="45.41933" lon="2.89464">
        <ele>1157.8</ele>
        <time>2021-08-25T12:54:15Z</time>
      </trkpt>
      <trkpt lat="45.41938" lon="2.8947">
        <ele>1157.9</ele>
        <time>2021-08-25T12:54:17Z</time>
      </trkpt>
      <trkpt lat="45.41943" lon="2.89476">
        <ele>1157.9</ele>
        <time>2021-08-25T12:54:19Z</time>
      </trkpt>
      <trkpt lat="45.41948" lon="2.89483">
        <ele>1158</ele>
        <time>2021-08-25T12:54:21Z</time>
      </trkpt>
      <trkpt lat="45.41953" lon="2.89488">
        <ele>1157.9</ele>
        <time>2021-08-25T12:54:23Z</time>
      </trkpt>
      <trkpt lat="45.41958" lon="2.89494">
        <ele>1157.8</ele>
        <time>2021-08-25T12:54:25Z</time>
      </trkpt>
      <trkpt lat="45.41962" lon="2.89499">
        <ele>1157.7</ele>
        <time>2021-08-25T12:54:27Z</time>
      </trkpt>
      <trkpt lat="45.41967" lon="2.89505">
        <ele>1157.6</ele>
        <time>2021-08-25T12:54:29Z</time>
      </trkpt>
      <trkpt lat="45.41971" lon="2.8951">
        <ele>1157.5</ele>
        <time>2021-08-25T12:54:31Z</time>
      </trkpt>
      <trkpt lat="45.41975" lon="2.89516">
        <ele>1157.3</ele>
        <time>2021-08-25T12:54:33Z</time>
      </trkpt>
      <trkpt lat="45.41979" lon="2.8952">
        <ele>1157</ele>
        <time>2021-08-25T12:54:35Z</time>
      </trkpt>
      <trkpt lat="45.41983" lon="2.89524">
        <ele>1156.8</ele>
        <time>2021-08-25T12:54:37Z</time>
      </trkpt>
      <trkpt lat="45.41985" lon="2.89527">
        <ele>1156.6</ele>
        <time>2021-08-25T12:54:39Z</time>
      </trkpt>
      <trkpt lat="45.41987" lon="2.8953">
        <ele>1156.5</ele>
        <time>2021-08-25T12:54:41Z</time>
      </trkpt>
      <trkpt lat="45.41988" lon="2.89534">
        <ele>1156.4</ele>
        <time>2021-08-25T12:54:43Z</time>
      </trkpt>
      <trkpt lat="45.41988" lon="2.89533">
        <ele>1156.4</ele>
        <time>2021-08-25T12:54:45Z</time>
      </trkpt>
      <trkpt lat="45.41988" lon="2.89533">
        <ele>1156.4</ele>
        <time>2021-08-25T12:54:47Z</time>
      </trkpt>
      <trkpt lat="45.41988" lon="2.89534">
        <ele>1156.4</ele>
        <time>2021-08-25T12:54:49Z</time>
      </trkpt>
      <trkpt lat="45.41987" lon="2.89534">
        <ele>1156.5</ele>
        <time>2021-08-25T12:54:51Z</time>
      </trkpt>
      <trkpt lat="45.41999" lon="2.89545">
        <ele>1155.2</ele>
        <time>2021-08-25T12:58:49Z</time>
      </trkpt>
      <trkpt lat="45.42002" lon="2.89547">
        <ele>1154.8</ele>
        <time>2021-08-25T12:58:51Z</time>
      </trkpt>
      <trkpt lat="45.42005" lon="2.8955">
        <ele>1154.5</ele>
        <time>2021-08-25T12:58:53Z</time>
      </trkpt>
      <trkpt lat="45.42008" lon="2.89553">
        <ele>1154.3</ele>
        <time>2021-08-25T12:58:55Z</time>
      </trkpt>
      <trkpt lat="45.42011" lon="2.89555">
        <ele>1154</ele>
        <time>2021-08-25T12:58:57Z</time>
      </trkpt>
      <trkpt lat="45.42014" lon="2.89559">
        <ele>1153.7</ele>
        <time>2021-08-25T12:58:59Z</time>
      </trkpt>
      <trkpt lat="45.42017" lon="2.89563">
        <ele>1153.4</ele>
        <time>2021-08-25T12:59:01Z</time>
      </trkpt>
      <trkpt lat="45.42021" lon="2.89568">
        <ele>1153</ele>
        <time>2021-08-25T12:59:03Z</time>
      </trkpt>
      <trkpt lat="45.42026" lon="2.89573">
        <ele>1152.6</ele>
        <time>2021-08-25T12:59:05Z</time>
      </trkpt>
      <trkpt lat="45.42029" lon="2.89579">
        <ele>1152.2</ele>
        <time>2021-08-25T12:59:07Z</time>
      </trkpt>
      <trkpt lat="45.42033" lon="2.89584">
        <ele>1151.9</ele>
        <time>2021-08-25T12:59:09Z</time>
      </trkpt>
      <trkpt lat="45.42037" lon="2.89591">
        <ele>1151.6</ele>
        <time>2021-08-25T12:59:11Z</time>
      </trkpt>
      <trkpt lat="45.4204" lon="2.89599">
        <ele>1151.3</ele>
        <time>2021-08-25T12:59:13Z</time>
      </trkpt>
      <trkpt lat="45.42043" lon="2.89609">
        <ele>1151.1</ele>
        <time>2021-08-25T12:59:15Z</time>
      </trkpt>
      <trkpt lat="45.42046" lon="2.89619">
        <ele>1151</ele>
        <time>2021-08-25T12:59:17Z</time>
      </trkpt>
      <trkpt lat="45.42047" lon="2.89631">
        <ele>1150.9</ele>
        <time>2021-08-25T12:59:19Z</time>
      </trkpt>
      <trkpt lat="45.42049" lon="2.89643">
        <ele>1150.9</ele>
        <time>2021-08-25T12:59:21Z</time>
      </trkpt>
      <trkpt lat="45.42049" lon="2.89656">
        <ele>1151</ele>
        <time>2021-08-25T12:59:23Z</time>
      </trkpt>
      <trkpt lat="45.4205" lon="2.89669">
        <ele>1151.1</ele>
        <time>2021-08-25T12:59:25Z</time>
      </trkpt>
      <trkpt lat="45.4205" lon="2.89683">
        <ele>1151.1</ele>
        <time>2021-08-25T12:59:27Z</time>
      </trkpt>
      <trkpt lat="45.42051" lon="2.89697">
        <ele>1151</ele>
        <time>2021-08-25T12:59:29Z</time>
      </trkpt>
      <trkpt lat="45.42052" lon="2.89712">
        <ele>1150.9</ele>
        <time>2021-08-25T12:59:31Z</time>
      </trkpt>
      <trkpt lat="45.42055" lon="2.89727">
        <ele>1150.7</ele>
        <time>2021-08-25T12:59:33Z</time>
      </trkpt>
      <trkpt lat="45.42057" lon="2.89743">
        <ele>1150.4</ele>
        <time>2021-08-25T12:59:35Z</time>
      </trkpt>
      <trkpt lat="45.42062" lon="2.89758">
        <ele>1150.4</ele>
        <time>2021-08-25T12:59:37Z</time>
      </trkpt>
      <trkpt lat="45.42068" lon="2.89772">
        <ele>1150.7</ele>
        <time>2021-08-25T12:59:39Z</time>
      </trkpt>
      <trkpt lat="45.42076" lon="2.89784">
        <ele>1150.8</ele>
        <time>2021-08-25T12:59:41Z</time>
      </trkpt>
      <trkpt lat="45.42085" lon="2.89794">
        <ele>1150.7</ele>
        <time>2021-08-25T12:59:43Z</time>
      </trkpt>
      <trkpt lat="45.42096" lon="2.89803">
        <ele>1151</ele>
        <time>2021-08-25T12:59:45Z</time>
      </trkpt>
      <trkpt lat="45.42107" lon="2.89808">
        <ele>1151.1</ele>
        <time>2021-08-25T12:59:47Z</time>
      </trkpt>
      <trkpt lat="45.42119" lon="2.8981">
        <ele>1151</ele>
        <time>2021-08-25T12:59:49Z</time>
      </trkpt>
      <trkpt lat="45.4213" lon="2.89811">
        <ele>1150.7</ele>
        <time>2021-08-25T12:59:51Z</time>
      </trkpt>
      <trkpt lat="45.42142" lon="2.89809">
        <ele>1150.1</ele>
        <time>2021-08-25T12:59:53Z</time>
      </trkpt>
      <trkpt lat="45.42153" lon="2.89807">
        <ele>1149.6</ele>
        <time>2021-08-25T12:59:55Z</time>
      </trkpt>
      <trkpt lat="45.42165" lon="2.89805">
        <ele>1149</ele>
        <time>2021-08-25T12:59:57Z</time>
      </trkpt>
      <trkpt lat="45.42177" lon="2.89803">
        <ele>1148.1</ele>
        <time>2021-08-25T12:59:59Z</time>
      </trkpt>
      <trkpt lat="45.42189" lon="2.89802">
        <ele>1147.4</ele>
        <time>2021-08-25T13:00:01Z</time>
      </trkpt>
      <trkpt lat="45.42202" lon="2.89803">
        <ele>1146.8</ele>
        <time>2021-08-25T13:00:03Z</time>
      </trkpt>
      <trkpt lat="45.42214" lon="2.89805">
        <ele>1146.3</ele>
        <time>2021-08-25T13:00:05Z</time>
      </trkpt>
      <trkpt lat="45.42226" lon="2.89808">
        <ele>1145.9</ele>
        <time>2021-08-25T13:00:07Z</time>
      </trkpt>
      <trkpt lat="45.42238" lon="2.89812">
        <ele>1145.6</ele>
        <time>2021-08-25T13:00:09Z</time>
      </trkpt>
      <trkpt lat="45.42249" lon="2.89817">
        <ele>1145.5</ele>
        <time>2021-08-25T13:00:11Z</time>
      </trkpt>
      <trkpt lat="45.42261" lon="2.89825">
        <ele>1145.6</ele>
        <time>2021-08-25T13:00:13Z</time>
      </trkpt>
      <trkpt lat="45.42273" lon="2.89833">
        <ele>1145.6</ele>
        <time>2021-08-25T13:00:15Z</time>
      </trkpt>
      <trkpt lat="45.42284" lon="2.89841">
        <ele>1146</ele>
        <time>2021-08-25T13:00:17Z</time>
      </trkpt>
      <trkpt lat="45.42296" lon="2.8985">
        <ele>1146.4</ele>
        <time>2021-08-25T13:00:19Z</time>
      </trkpt>
      <trkpt lat="45.42307" lon="2.89858">
        <ele>1146.5</ele>
        <time>2021-08-25T13:00:21Z</time>
      </trkpt>
      <trkpt lat="45.42319" lon="2.89866">
        <ele>1146.4</ele>
        <time>2021-08-25T13:00:23Z</time>
      </trkpt>
      <trkpt lat="45.42329" lon="2.89874">
        <ele>1146.3</ele>
        <time>2021-08-25T13:00:25Z</time>
      </trkpt>
      <trkpt lat="45.4234" lon="2.89882">
        <ele>1146.1</ele>
        <time>2021-08-25T13:00:27Z</time>
      </trkpt>
      <trkpt lat="45.42351" lon="2.8989">
        <ele>1145.8</ele>
        <time>2021-08-25T13:00:29Z</time>
      </trkpt>
      <trkpt lat="45.42361" lon="2.89897">
        <ele>1145.5</ele>
        <time>2021-08-25T13:00:31Z</time>
      </trkpt>
      <trkpt lat="45.42371" lon="2.89905">
        <ele>1145.1</ele>
        <time>2021-08-25T13:00:33Z</time>
      </trkpt>
      <trkpt lat="45.42381" lon="2.89912">
        <ele>1144.5</ele>
        <time>2021-08-25T13:00:35Z</time>
      </trkpt>
      <trkpt lat="45.42391" lon="2.89919">
        <ele>1144</ele>
        <time>2021-08-25T13:00:37Z</time>
      </trkpt>
      <trkpt lat="45.424" lon="2.89926">
        <ele>1143.9</ele>
        <time>2021-08-25T13:00:39Z</time>
      </trkpt>
      <trkpt lat="45.42409" lon="2.89933">
        <ele>1143.6</ele>
        <time>2021-08-25T13:00:41Z</time>
      </trkpt>
      <trkpt lat="45.42418" lon="2.8994">
        <ele>1143.4</ele>
        <time>2021-08-25T13:00:43Z</time>
      </trkpt>
      <trkpt lat="45.42428" lon="2.89947">
        <ele>1143.5</ele>
        <time>2021-08-25T13:00:45Z</time>
      </trkpt>
      <trkpt lat="45.42437" lon="2.89955">
        <ele>1143.5</ele>
        <time>2021-08-25T13:00:47Z</time>
      </trkpt>
      <trkpt lat="45.42446" lon="2.89963">
        <ele>1143.5</ele>
        <time>2021-08-25T13:00:49Z</time>
      </trkpt>
      <trkpt lat="45.42455" lon="2.89972">
        <ele>1143.3</ele>
        <time>2021-08-25T13:00:51Z</time>
      </trkpt>
      <trkpt lat="45.42464" lon="2.89981">
        <ele>1143.1</ele>
        <time>2021-08-25T13:00:53Z</time>
      </trkpt>
      <trkpt lat="45.42473" lon="2.89991">
        <ele>1142.8</ele>
        <time>2021-08-25T13:00:55Z</time>
      </trkpt>
      <trkpt lat="45.42481" lon="2.90002">
        <ele>1142.4</ele>
        <time>2021-08-25T13:00:57Z</time>
      </trkpt>
      <trkpt lat="45.4249" lon="2.90012">
        <ele>1142.6</ele>
        <time>2021-08-25T13:00:59Z</time>
      </trkpt>
      <trkpt lat="45.42499" lon="2.90022">
        <ele>1142.5</ele>
        <time>2021-08-25T13:01:01Z</time>
      </trkpt>
      <trkpt lat="45.42507" lon="2.90032">
        <ele>1143</ele>
        <time>2021-08-25T13:01:03Z</time>
      </trkpt>
      <trkpt lat="45.42515" lon="2.90041">
        <ele>1143.4</ele>
        <time>2021-08-25T13:01:05Z</time>
      </trkpt>
      <trkpt lat="45.42523" lon="2.90051">
        <ele>1143.7</ele>
        <time>2021-08-25T13:01:07Z</time>
      </trkpt>
      <trkpt lat="45.42531" lon="2.90061">
        <ele>1143.8</ele>
        <time>2021-08-25T13:01:09Z</time>
      </trkpt>
      <trkpt lat="45.4254" lon="2.90071">
        <ele>1143.8</ele>
        <time>2021-08-25T13:01:11Z</time>
      </trkpt>
      <trkpt lat="45.42548" lon="2.90081">
        <ele>1143.6</ele>
        <time>2021-08-25T13:01:13Z</time>
      </trkpt>
      <trkpt lat="45.42557" lon="2.90091">
        <ele>1143.7</ele>
        <time>2021-08-25T13:01:15Z</time>
      </trkpt>
      <trkpt lat="45.42566" lon="2.90101">
        <ele>1143.8</ele>
        <time>2021-08-25T13:01:17Z</time>
      </trkpt>
      <trkpt lat="45.42576" lon="2.9011">
        <ele>1143.5</ele>
        <time>2021-08-25T13:01:19Z</time>
      </trkpt>
      <trkpt lat="45.42585" lon="2.90118">
        <ele>1143.2</ele>
        <time>2021-08-25T13:01:21Z</time>
      </trkpt>
      <trkpt lat="45.42596" lon="2.90123">
        <ele>1142.9</ele>
        <time>2021-08-25T13:01:23Z</time>
      </trkpt>
      <trkpt lat="45.42606" lon="2.90128">
        <ele>1142.7</ele>
        <time>2021-08-25T13:01:25Z</time>
      </trkpt>
      <trkpt lat="45.42615" lon="2.90132">
        <ele>1142.3</ele>
        <time>2021-08-25T13:01:27Z</time>
      </trkpt>
      <trkpt lat="45.42624" lon="2.90134">
        <ele>1141.7</ele>
        <time>2021-08-25T13:01:29Z</time>
      </trkpt>
      <trkpt lat="45.42633" lon="2.90137">
        <ele>1141.2</ele>
        <time>2021-08-25T13:01:31Z</time>
      </trkpt>
      <trkpt lat="45.42642" lon="2.9014">
        <ele>1140.7</ele>
        <time>2021-08-25T13:01:33Z</time>
      </trkpt>
      <trkpt lat="45.42652" lon="2.90144">
        <ele>1140.1</ele>
        <time>2021-08-25T13:01:35Z</time>
      </trkpt>
      <trkpt lat="45.42661" lon="2.90147">
        <ele>1139.5</ele>
        <time>2021-08-25T13:01:37Z</time>
      </trkpt>
      <trkpt lat="45.42671" lon="2.90149">
        <ele>1139.1</ele>
        <time>2021-08-25T13:01:39Z</time>
      </trkpt>
      <trkpt lat="45.42681" lon="2.90152">
        <ele>1139.1</ele>
        <time>2021-08-25T13:01:41Z</time>
      </trkpt>
      <trkpt lat="45.42691" lon="2.90155">
        <ele>1139</ele>
        <time>2021-08-25T13:01:43Z</time>
      </trkpt>
      <trkpt lat="45.42702" lon="2.90158">
        <ele>1138.9</ele>
        <time>2021-08-25T13:01:45Z</time>
      </trkpt>
      <trkpt lat="45.42713" lon="2.90161">
        <ele>1138.7</ele>
        <time>2021-08-25T13:01:47Z</time>
      </trkpt>
      <trkpt lat="45.42723" lon="2.90164">
        <ele>1138.6</ele>
        <time>2021-08-25T13:01:49Z</time>
      </trkpt>
      <trkpt lat="45.42734" lon="2.90167">
        <ele>1138.4</ele>
        <time>2021-08-25T13:01:51Z</time>
      </trkpt>
      <trkpt lat="45.42745" lon="2.90171">
        <ele>1138.4</ele>
        <time>2021-08-25T13:01:53Z</time>
      </trkpt>
      <trkpt lat="45.42756" lon="2.90174">
        <ele>1137.8</ele>
        <time>2021-08-25T13:01:55Z</time>
      </trkpt>
      <trkpt lat="45.42768" lon="2.90178">
        <ele>1136.9</ele>
        <time>2021-08-25T13:01:57Z</time>
      </trkpt>
      <trkpt lat="45.4278" lon="2.90181">
        <ele>1135.9</ele>
        <time>2021-08-25T13:01:59Z</time>
      </trkpt>
      <trkpt lat="45.42794" lon="2.90185">
        <ele>1134.8</ele>
        <time>2021-08-25T13:02:01Z</time>
      </trkpt>
      <trkpt lat="45.42808" lon="2.90189">
        <ele>1133.6</ele>
        <time>2021-08-25T13:02:03Z</time>
      </trkpt>
      <trkpt lat="45.42822" lon="2.90193">
        <ele>1132.3</ele>
        <time>2021-08-25T13:02:05Z</time>
      </trkpt>
      <trkpt lat="45.42838" lon="2.90197">
        <ele>1131.2</ele>
        <time>2021-08-25T13:02:07Z</time>
      </trkpt>
      <trkpt lat="45.42854" lon="2.90203">
        <ele>1130.6</ele>
        <time>2021-08-25T13:02:09Z</time>
      </trkpt>
      <trkpt lat="45.4287" lon="2.90211">
        <ele>1129.8</ele>
        <time>2021-08-25T13:02:11Z</time>
      </trkpt>
      <trkpt lat="45.42887" lon="2.90222">
        <ele>1128.8</ele>
        <time>2021-08-25T13:02:13Z</time>
      </trkpt>
      <trkpt lat="45.42903" lon="2.90235">
        <ele>1127.5</ele>
        <time>2021-08-25T13:02:15Z</time>
      </trkpt>
      <trkpt lat="45.42918" lon="2.90251">
        <ele>1126</ele>
        <time>2021-08-25T13:02:17Z</time>
      </trkpt>
      <trkpt lat="45.42933" lon="2.90271">
        <ele>1126</ele>
        <time>2021-08-25T13:02:19Z</time>
      </trkpt>
      <trkpt lat="45.42946" lon="2.90291">
        <ele>1125.7</ele>
        <time>2021-08-25T13:02:21Z</time>
      </trkpt>
      <trkpt lat="45.42957" lon="2.90315">
        <ele>1125.4</ele>
        <time>2021-08-25T13:02:23Z</time>
      </trkpt>
      <trkpt lat="45.42967" lon="2.90339">
        <ele>1124.7</ele>
        <time>2021-08-25T13:02:25Z</time>
      </trkpt>
      <trkpt lat="45.42974" lon="2.90366">
        <ele>1123.4</ele>
        <time>2021-08-25T13:02:27Z</time>
      </trkpt>
      <trkpt lat="45.42979" lon="2.90394">
        <ele>1122</ele>
        <time>2021-08-25T13:02:29Z</time>
      </trkpt>
      <trkpt lat="45.42981" lon="2.90422">
        <ele>1120.4</ele>
        <time>2021-08-25T13:02:31Z</time>
      </trkpt>
      <trkpt lat="45.42982" lon="2.9045">
        <ele>1118.1</ele>
        <time>2021-08-25T13:02:33Z</time>
      </trkpt>
      <trkpt lat="45.4298" lon="2.9048">
        <ele>1116.2</ele>
        <time>2021-08-25T13:02:35Z</time>
      </trkpt>
      <trkpt lat="45.42976" lon="2.90509">
        <ele>1114.6</ele>
        <time>2021-08-25T13:02:37Z</time>
      </trkpt>
      <trkpt lat="45.42972" lon="2.9054">
        <ele>1113</ele>
        <time>2021-08-25T13:02:39Z</time>
      </trkpt>
      <trkpt lat="45.42969" lon="2.9057">
        <ele>1111.1</ele>
        <time>2021-08-25T13:02:41Z</time>
      </trkpt>
      <trkpt lat="45.42965" lon="2.906">
        <ele>1109.4</ele>
        <time>2021-08-25T13:02:43Z</time>
      </trkpt>
      <trkpt lat="45.42961" lon="2.90631">
        <ele>1107.9</ele>
        <time>2021-08-25T13:02:45Z</time>
      </trkpt>
      <trkpt lat="45.42957" lon="2.90661">
        <ele>1106.2</ele>
        <time>2021-08-25T13:02:47Z</time>
      </trkpt>
      <trkpt lat="45.42954" lon="2.90692">
        <ele>1105.3</ele>
        <time>2021-08-25T13:02:49Z</time>
      </trkpt>
      <trkpt lat="45.42953" lon="2.90723">
        <ele>1104.1</ele>
        <time>2021-08-25T13:02:51Z</time>
      </trkpt>
      <trkpt lat="45.42954" lon="2.90754">
        <ele>1102.9</ele>
        <time>2021-08-25T13:02:53Z</time>
      </trkpt>
      <trkpt lat="45.42957" lon="2.90785">
        <ele>1102.4</ele>
        <time>2021-08-25T13:02:55Z</time>
      </trkpt>
      <trkpt lat="45.42964" lon="2.90814">
        <ele>1101.3</ele>
        <time>2021-08-25T13:02:57Z</time>
      </trkpt>
      <trkpt lat="45.42974" lon="2.90841">
        <ele>1099.7</ele>
        <time>2021-08-25T13:02:59Z</time>
      </trkpt>
      <trkpt lat="45.42986" lon="2.90866">
        <ele>1097.7</ele>
        <time>2021-08-25T13:03:01Z</time>
      </trkpt>
      <trkpt lat="45.42997" lon="2.90891">
        <ele>1095.5</ele>
        <time>2021-08-25T13:03:03Z</time>
      </trkpt>
      <trkpt lat="45.43009" lon="2.90915">
        <ele>1095</ele>
        <time>2021-08-25T13:03:05Z</time>
      </trkpt>
      <trkpt lat="45.4302" lon="2.9094">
        <ele>1095</ele>
        <time>2021-08-25T13:03:07Z</time>
      </trkpt>
      <trkpt lat="45.43032" lon="2.90964">
        <ele>1094.7</ele>
        <time>2021-08-25T13:03:09Z</time>
      </trkpt>
      <trkpt lat="45.43043" lon="2.90987">
        <ele>1094.1</ele>
        <time>2021-08-25T13:03:11Z</time>
      </trkpt>
      <trkpt lat="45.43054" lon="2.91011">
        <ele>1092.7</ele>
        <time>2021-08-25T13:03:13Z</time>
      </trkpt>
      <trkpt lat="45.43065" lon="2.91036">
        <ele>1090.6</ele>
        <time>2021-08-25T13:03:15Z</time>
      </trkpt>
      <trkpt lat="45.43076" lon="2.9106">
        <ele>1088.2</ele>
        <time>2021-08-25T13:03:17Z</time>
      </trkpt>
      <trkpt lat="45.43087" lon="2.91084">
        <ele>1086.1</ele>
        <time>2021-08-25T13:03:19Z</time>
      </trkpt>
      <trkpt lat="45.43098" lon="2.91107">
        <ele>1085.3</ele>
        <time>2021-08-25T13:03:21Z</time>
      </trkpt>
      <trkpt lat="45.43109" lon="2.9113">
        <ele>1084.2</ele>
        <time>2021-08-25T13:03:23Z</time>
      </trkpt>
      <trkpt lat="45.43121" lon="2.91151">
        <ele>1083</ele>
        <time>2021-08-25T13:03:25Z</time>
      </trkpt>
      <trkpt lat="45.43134" lon="2.91172">
        <ele>1081.4</ele>
        <time>2021-08-25T13:03:27Z</time>
      </trkpt>
      <trkpt lat="45.43148" lon="2.9119">
        <ele>1079.9</ele>
        <time>2021-08-25T13:03:29Z</time>
      </trkpt>
      <trkpt lat="45.43164" lon="2.91207">
        <ele>1078.6</ele>
        <time>2021-08-25T13:03:31Z</time>
      </trkpt>
      <trkpt lat="45.43181" lon="2.91222">
        <ele>1077.9</ele>
        <time>2021-08-25T13:03:33Z</time>
      </trkpt>
      <trkpt lat="45.43198" lon="2.91237">
        <ele>1077.2</ele>
        <time>2021-08-25T13:03:35Z</time>
      </trkpt>
      <trkpt lat="45.43216" lon="2.91252">
        <ele>1076.5</ele>
        <time>2021-08-25T13:03:37Z</time>
      </trkpt>
      <trkpt lat="45.43234" lon="2.91268">
        <ele>1075.8</ele>
        <time>2021-08-25T13:03:39Z</time>
      </trkpt>
      <trkpt lat="45.43252" lon="2.91286">
        <ele>1074.9</ele>
        <time>2021-08-25T13:03:41Z</time>
      </trkpt>
      <trkpt lat="45.43268" lon="2.91302">
        <ele>1074.2</ele>
        <time>2021-08-25T13:03:43Z</time>
      </trkpt>
      <trkpt lat="45.43286" lon="2.91316">
        <ele>1073.3</ele>
        <time>2021-08-25T13:03:45Z</time>
      </trkpt>
      <trkpt lat="45.43303" lon="2.91332">
        <ele>1072.1</ele>
        <time>2021-08-25T13:03:47Z</time>
      </trkpt>
      <trkpt lat="45.4332" lon="2.91348">
        <ele>1071</ele>
        <time>2021-08-25T13:03:49Z</time>
      </trkpt>
      <trkpt lat="45.43337" lon="2.91364">
        <ele>1069.6</ele>
        <time>2021-08-25T13:03:51Z</time>
      </trkpt>
      <trkpt lat="45.43355" lon="2.91378">
        <ele>1067.5</ele>
        <time>2021-08-25T13:03:53Z</time>
      </trkpt>
      <trkpt lat="45.43375" lon="2.91386">
        <ele>1065.6</ele>
        <time>2021-08-25T13:03:55Z</time>
      </trkpt>
      <trkpt lat="45.43395" lon="2.91389">
        <ele>1064</ele>
        <time>2021-08-25T13:03:57Z</time>
      </trkpt>
      <trkpt lat="45.43416" lon="2.91391">
        <ele>1062.5</ele>
        <time>2021-08-25T13:03:59Z</time>
      </trkpt>
      <trkpt lat="45.43438" lon="2.91394">
        <ele>1061.6</ele>
        <time>2021-08-25T13:04:01Z</time>
      </trkpt>
      <trkpt lat="45.43457" lon="2.9139">
        <ele>1061.4</ele>
        <time>2021-08-25T13:04:03Z</time>
      </trkpt>
      <trkpt lat="45.43479" lon="2.91388">
        <ele>1061</ele>
        <time>2021-08-25T13:04:05Z</time>
      </trkpt>
      <trkpt lat="45.43498" lon="2.91389">
        <ele>1060.4</ele>
        <time>2021-08-25T13:04:07Z</time>
      </trkpt>
      <trkpt lat="45.43518" lon="2.91399">
        <ele>1060.8</ele>
        <time>2021-08-25T13:04:09Z</time>
      </trkpt>
      <trkpt lat="45.43534" lon="2.91415">
        <ele>1060.1</ele>
        <time>2021-08-25T13:04:11Z</time>
      </trkpt>
      <trkpt lat="45.43547" lon="2.91432">
        <ele>1058.3</ele>
        <time>2021-08-25T13:04:13Z</time>
      </trkpt>
      <trkpt lat="45.43563" lon="2.91448">
        <ele>1056.5</ele>
        <time>2021-08-25T13:04:15Z</time>
      </trkpt>
      <trkpt lat="45.43578" lon="2.91465">
        <ele>1053.9</ele>
        <time>2021-08-25T13:04:17Z</time>
      </trkpt>
      <trkpt lat="45.43593" lon="2.91483">
        <ele>1051.3</ele>
        <time>2021-08-25T13:04:19Z</time>
      </trkpt>
      <trkpt lat="45.43608" lon="2.915">
        <ele>1049.1</ele>
        <time>2021-08-25T13:04:21Z</time>
      </trkpt>
      <trkpt lat="45.43624" lon="2.91518">
        <ele>1047.9</ele>
        <time>2021-08-25T13:04:23Z</time>
      </trkpt>
      <trkpt lat="45.4364" lon="2.91536">
        <ele>1046.6</ele>
        <time>2021-08-25T13:04:25Z</time>
      </trkpt>
      <trkpt lat="45.43657" lon="2.91554">
        <ele>1045</ele>
        <time>2021-08-25T13:04:27Z</time>
      </trkpt>
      <trkpt lat="45.43674" lon="2.91572">
        <ele>1043.1</ele>
        <time>2021-08-25T13:04:29Z</time>
      </trkpt>
      <trkpt lat="45.4369" lon="2.91589">
        <ele>1041.5</ele>
        <time>2021-08-25T13:04:31Z</time>
      </trkpt>
      <trkpt lat="45.43704" lon="2.91605">
        <ele>1040.8</ele>
        <time>2021-08-25T13:04:33Z</time>
      </trkpt>
      <trkpt lat="45.43719" lon="2.91618">
        <ele>1040.3</ele>
        <time>2021-08-25T13:04:35Z</time>
      </trkpt>
      <trkpt lat="45.43734" lon="2.91626">
        <ele>1040</ele>
        <time>2021-08-25T13:04:37Z</time>
      </trkpt>
      <trkpt lat="45.43751" lon="2.9163">
        <ele>1040.1</ele>
        <time>2021-08-25T13:04:39Z</time>
      </trkpt>
      <trkpt lat="45.43769" lon="2.91627">
        <ele>1040.3</ele>
        <time>2021-08-25T13:04:41Z</time>
      </trkpt>
      <trkpt lat="45.43786" lon="2.91615">
        <ele>1041.8</ele>
        <time>2021-08-25T13:04:43Z</time>
      </trkpt>
      <trkpt lat="45.438" lon="2.91604">
        <ele>1043.8</ele>
        <time>2021-08-25T13:04:45Z</time>
      </trkpt>
      <trkpt lat="45.43818" lon="2.91599">
        <ele>1045.3</ele>
        <time>2021-08-25T13:04:47Z</time>
      </trkpt>
      <trkpt lat="45.43836" lon="2.91605">
        <ele>1045.7</ele>
        <time>2021-08-25T13:04:49Z</time>
      </trkpt>
      <trkpt lat="45.43852" lon="2.91615">
        <ele>1048.8</ele>
        <time>2021-08-25T13:04:51Z</time>
      </trkpt>
      <trkpt lat="45.43868" lon="2.91629">
        <ele>1050</ele>
        <time>2021-08-25T13:04:53Z</time>
      </trkpt>
      <trkpt lat="45.43883" lon="2.91644">
        <ele>1049.5</ele>
        <time>2021-08-25T13:04:55Z</time>
      </trkpt>
      <trkpt lat="45.43899" lon="2.91661">
        <ele>1047.5</ele>
        <time>2021-08-25T13:04:57Z</time>
      </trkpt>
      <trkpt lat="45.43916" lon="2.91678">
        <ele>1045.4</ele>
        <time>2021-08-25T13:04:59Z</time>
      </trkpt>
      <trkpt lat="45.43931" lon="2.91697">
        <ele>1044.5</ele>
        <time>2021-08-25T13:05:01Z</time>
      </trkpt>
      <trkpt lat="45.43948" lon="2.91714">
        <ele>1044.5</ele>
        <time>2021-08-25T13:05:03Z</time>
      </trkpt>
      <trkpt lat="45.43966" lon="2.91729">
        <ele>1044.7</ele>
        <time>2021-08-25T13:05:05Z</time>
      </trkpt>
      <trkpt lat="45.43984" lon="2.91746">
        <ele>1044.1</ele>
        <time>2021-08-25T13:05:07Z</time>
      </trkpt>
      <trkpt lat="45.44003" lon="2.9176">
        <ele>1043.6</ele>
        <time>2021-08-25T13:05:09Z</time>
      </trkpt>
      <trkpt lat="45.4402" lon="2.91776">
        <ele>1041.4</ele>
        <time>2021-08-25T13:05:11Z</time>
      </trkpt>
      <trkpt lat="45.44035" lon="2.91789">
        <ele>1039.2</ele>
        <time>2021-08-25T13:05:13Z</time>
      </trkpt>
      <trkpt lat="45.44048" lon="2.91801">
        <ele>1036.6</ele>
        <time>2021-08-25T13:05:15Z</time>
      </trkpt>
      <trkpt lat="45.4406" lon="2.91812">
        <ele>1034</ele>
        <time>2021-08-25T13:05:17Z</time>
      </trkpt>
      <trkpt lat="45.44069" lon="2.91821">
        <ele>1031.4</ele>
        <time>2021-08-25T13:05:19Z</time>
      </trkpt>
      <trkpt lat="45.44076" lon="2.91827">
        <ele>1029.6</ele>
        <time>2021-08-25T13:05:21Z</time>
      </trkpt>
      <trkpt lat="45.4408" lon="2.91831">
        <ele>1028.5</ele>
        <time>2021-08-25T13:05:23Z</time>
      </trkpt>
      <trkpt lat="45.44083" lon="2.91834">
        <ele>1027.8</ele>
        <time>2021-08-25T13:05:25Z</time>
      </trkpt>
      <trkpt lat="45.44085" lon="2.91836">
        <ele>1027.6</ele>
        <time>2021-08-25T13:05:27Z</time>
      </trkpt>
      <trkpt lat="45.44085" lon="2.91835">
        <ele>1027.7</ele>
        <time>2021-08-25T13:05:29Z</time>
      </trkpt>
      <trkpt lat="45.44084" lon="2.91836">
        <ele>1027.6</ele>
        <time>2021-08-25T13:05:31Z</time>
      </trkpt>
      <trkpt lat="45.44084" lon="2.91836">
        <ele>1027.5</ele>
        <time>2021-08-25T13:05:33Z</time>
      </trkpt>
      <trkpt lat="45.44083" lon="2.91836">
        <ele>1027.4</ele>
        <time>2021-08-25T13:05:35Z</time>
      </trkpt>
      <trkpt lat="45.44101" lon="2.9185">
        <ele>1026.4</ele>
        <time>2021-08-25T13:08:45Z</time>
      </trkpt>
      <trkpt lat="45.4411" lon="2.91856">
        <ele>1025.9</ele>
        <time>2021-08-25T13:08:47Z</time>
      </trkpt>
      <trkpt lat="45.44119" lon="2.91867">
        <ele>1024.7</ele>
        <time>2021-08-25T13:08:49Z</time>
      </trkpt>
      <trkpt lat="45.44129" lon="2.9188">
        <ele>1023</ele>
        <time>2021-08-25T13:08:51Z</time>
      </trkpt>
      <trkpt lat="45.44139" lon="2.91896">
        <ele>1020.4</ele>
        <time>2021-08-25T13:08:53Z</time>
      </trkpt>
      <trkpt lat="45.44149" lon="2.91913">
        <ele>1017.7</ele>
        <time>2021-08-25T13:08:55Z</time>
      </trkpt>
      <trkpt lat="45.4416" lon="2.91931">
        <ele>1016.2</ele>
        <time>2021-08-25T13:08:57Z</time>
      </trkpt>
      <trkpt lat="45.4417" lon="2.9195">
        <ele>1015</ele>
        <time>2021-08-25T13:08:59Z</time>
      </trkpt>
      <trkpt lat="45.44182" lon="2.91968">
        <ele>1013.8</ele>
        <time>2021-08-25T13:09:01Z</time>
      </trkpt>
      <trkpt lat="45.44196" lon="2.91983">
        <ele>1013</ele>
        <time>2021-08-25T13:09:03Z</time>
      </trkpt>
      <trkpt lat="45.44212" lon="2.91995">
        <ele>1012.7</ele>
        <time>2021-08-25T13:09:05Z</time>
      </trkpt>
      <trkpt lat="45.44229" lon="2.92005">
        <ele>1012.5</ele>
        <time>2021-08-25T13:09:07Z</time>
      </trkpt>
      <trkpt lat="45.44245" lon="2.92018">
        <ele>1012.1</ele>
        <time>2021-08-25T13:09:09Z</time>
      </trkpt>
      <trkpt lat="45.44258" lon="2.92036">
        <ele>1011.9</ele>
        <time>2021-08-25T13:09:11Z</time>
      </trkpt>
      <trkpt lat="45.44265" lon="2.92059">
        <ele>1010.9</ele>
        <time>2021-08-25T13:09:13Z</time>
      </trkpt>
      <trkpt lat="45.44266" lon="2.92085">
        <ele>1008.2</ele>
        <time>2021-08-25T13:09:15Z</time>
      </trkpt>
      <trkpt lat="45.44267" lon="2.9211">
        <ele>1004.8</ele>
        <time>2021-08-25T13:09:17Z</time>
      </trkpt>
      <trkpt lat="45.44272" lon="2.92135">
        <ele>1002.4</ele>
        <time>2021-08-25T13:09:19Z</time>
      </trkpt>
      <trkpt lat="45.44283" lon="2.92157">
        <ele>1001.7</ele>
        <time>2021-08-25T13:09:21Z</time>
      </trkpt>
      <trkpt lat="45.44298" lon="2.92173">
        <ele>1002.5</ele>
        <time>2021-08-25T13:09:23Z</time>
      </trkpt>
      <trkpt lat="45.44316" lon="2.92186">
        <ele>1004</ele>
        <time>2021-08-25T13:09:25Z</time>
      </trkpt>
      <trkpt lat="45.44331" lon="2.92205">
        <ele>1003.3</ele>
        <time>2021-08-25T13:09:27Z</time>
      </trkpt>
      <trkpt lat="45.44342" lon="2.9223">
        <ele>1001.3</ele>
        <time>2021-08-25T13:09:29Z</time>
      </trkpt>
      <trkpt lat="45.44349" lon="2.92258">
        <ele>999.4</ele>
        <time>2021-08-25T13:09:31Z</time>
      </trkpt>
      <trkpt lat="45.44351" lon="2.92288">
        <ele>998.9</ele>
        <time>2021-08-25T13:09:33Z</time>
      </trkpt>
      <trkpt lat="45.44349" lon="2.92318">
        <ele>997.3</ele>
        <time>2021-08-25T13:09:35Z</time>
      </trkpt>
      <trkpt lat="45.44341" lon="2.92346">
        <ele>996.1</ele>
        <time>2021-08-25T13:09:37Z</time>
      </trkpt>
      <trkpt lat="45.4433" lon="2.92369">
        <ele>996.3</ele>
        <time>2021-08-25T13:09:39Z</time>
      </trkpt>
      <trkpt lat="45.44319" lon="2.9239">
        <ele>996.9</ele>
        <time>2021-08-25T13:09:41Z</time>
      </trkpt>
      <trkpt lat="45.44309" lon="2.92408">
        <ele>997.3</ele>
        <time>2021-08-25T13:09:43Z</time>
      </trkpt>
      <trkpt lat="45.44299" lon="2.92426">
        <ele>997.4</ele>
        <time>2021-08-25T13:09:45Z</time>
      </trkpt>
      <trkpt lat="45.44291" lon="2.92443">
        <ele>997.1</ele>
        <time>2021-08-25T13:09:47Z</time>
      </trkpt>
      <trkpt lat="45.44284" lon="2.92459">
        <ele>996.9</ele>
        <time>2021-08-25T13:09:49Z</time>
      </trkpt>
      <trkpt lat="45.44277" lon="2.92474">
        <ele>996.9</ele>
        <time>2021-08-25T13:09:51Z</time>
      </trkpt>
      <trkpt lat="45.44271" lon="2.92488">
        <ele>996.9</ele>
        <time>2021-08-25T13:09:53Z</time>
      </trkpt>
      <trkpt lat="45.44265" lon="2.925">
        <ele>996.9</ele>
        <time>2021-08-25T13:09:55Z</time>
      </trkpt>
      <trkpt lat="45.44258" lon="2.9251">
        <ele>996.5</ele>
        <time>2021-08-25T13:09:57Z</time>
      </trkpt>
      <trkpt lat="45.44252" lon="2.9252">
        <ele>996.1</ele>
        <time>2021-08-25T13:09:59Z</time>
      </trkpt>
      <trkpt lat="45.44246" lon="2.92528">
        <ele>995.9</ele>
        <time>2021-08-25T13:10:01Z</time>
      </trkpt>
      <trkpt lat="45.4424" lon="2.92535">
        <ele>995.7</ele>
        <time>2021-08-25T13:10:03Z</time>
      </trkpt>
      <trkpt lat="45.44234" lon="2.92542">
        <ele>995.5</ele>
        <time>2021-08-25T13:10:05Z</time>
      </trkpt>
      <trkpt lat="45.44228" lon="2.92549">
        <ele>995.4</ele>
        <time>2021-08-25T13:10:07Z</time>
      </trkpt>
      <trkpt lat="45.44222" lon="2.92556">
        <ele>995.2</ele>
        <time>2021-08-25T13:10:09Z</time>
      </trkpt>
      <trkpt lat="45.44217" lon="2.92564">
        <ele>995.1</ele>
        <time>2021-08-25T13:10:11Z</time>
      </trkpt>
      <trkpt lat="45.44213" lon="2.92571">
        <ele>995</ele>
        <time>2021-08-25T13:10:13Z</time>
      </trkpt>
      <trkpt lat="45.44208" lon="2.92577">
        <ele>995</ele>
        <time>2021-08-25T13:10:15Z</time>
      </trkpt>
      <trkpt lat="45.44202" lon="2.92583">
        <ele>994.9</ele>
        <time>2021-08-25T13:10:17Z</time>
      </trkpt>
      <trkpt lat="45.44196" lon="2.92588">
        <ele>994.8</ele>
        <time>2021-08-25T13:10:19Z</time>
      </trkpt>
      <trkpt lat="45.44191" lon="2.92593">
        <ele>994.7</ele>
        <time>2021-08-25T13:10:21Z</time>
      </trkpt>
      <trkpt lat="45.44186" lon="2.92598">
        <ele>994.6</ele>
        <time>2021-08-25T13:10:23Z</time>
      </trkpt>
      <trkpt lat="45.44181" lon="2.92603">
        <ele>994.5</ele>
        <time>2021-08-25T13:10:25Z</time>
      </trkpt>
      <trkpt lat="45.44178" lon="2.92608">
        <ele>994.5</ele>
        <time>2021-08-25T13:10:27Z</time>
      </trkpt>
      <trkpt lat="45.44174" lon="2.92614">
        <ele>994.5</ele>
        <time>2021-08-25T13:10:29Z</time>
      </trkpt>
      <trkpt lat="45.4417" lon="2.92619">
        <ele>994.5</ele>
        <time>2021-08-25T13:10:31Z</time>
      </trkpt>
      <trkpt lat="45.44167" lon="2.92623">
        <ele>994.5</ele>
        <time>2021-08-25T13:10:33Z</time>
      </trkpt>
      <trkpt lat="45.44165" lon="2.92628">
        <ele>994.5</ele>
        <time>2021-08-25T13:10:35Z</time>
      </trkpt>
      <trkpt lat="45.44164" lon="2.92629">
        <ele>994.4</ele>
        <time>2021-08-25T13:10:37Z</time>
      </trkpt>
      <trkpt lat="45.44163" lon="2.92629">
        <ele>994.4</ele>
        <time>2021-08-25T13:10:39Z</time>
      </trkpt>
      <trkpt lat="45.44163" lon="2.9263">
        <ele>994.4</ele>
        <time>2021-08-25T13:10:41Z</time>
      </trkpt>
      <trkpt lat="45.44163" lon="2.9263">
        <ele>994.5</ele>
        <time>2021-08-25T13:10:43Z</time>
      </trkpt>
      <trkpt lat="45.44163" lon="2.9263">
        <ele>994.5</ele>
        <time>2021-08-25T13:10:45Z</time>
      </trkpt>
      <trkpt lat="45.44151" lon="2.92651">
        <ele>994.3</ele>
        <time>2021-08-25T13:28:21Z</time>
      </trkpt>
      <trkpt lat="45.44149" lon="2.92654">
        <ele>994.3</ele>
        <time>2021-08-25T13:28:23Z</time>
      </trkpt>
      <trkpt lat="45.4415" lon="2.9266">
        <ele>994.3</ele>
        <time>2021-08-25T13:28:25Z</time>
      </trkpt>
      <trkpt lat="45.44154" lon="2.92663">
        <ele>994.5</ele>
        <time>2021-08-25T13:28:27Z</time>
      </trkpt>
      <trkpt lat="45.44159" lon="2.92659">
        <ele>994.6</ele>
        <time>2021-08-25T13:28:29Z</time>
      </trkpt>
      <trkpt lat="45.44159" lon="2.92653">
        <ele>994.6</ele>
        <time>2021-08-25T13:28:31Z</time>
      </trkpt>
      <trkpt lat="45.44158" lon="2.92647">
        <ele>994.5</ele>
        <time>2021-08-25T13:28:33Z</time>
      </trkpt>
      <trkpt lat="45.44155" lon="2.92644">
        <ele>994.4</ele>
        <time>2021-08-25T13:28:35Z</time>
      </trkpt>
      <trkpt lat="45.44154" lon="2.92642">
        <ele>994.3</ele>
        <time>2021-08-25T13:28:37Z</time>
      </trkpt>
      <trkpt lat="45.44152" lon="2.92642">
        <ele>994.2</ele>
        <time>2021-08-25T13:28:39Z</time>
      </trkpt>
      <trkpt lat="45.4415" lon="2.9264">
        <ele>994.2</ele>
        <time>2021-08-25T13:28:41Z</time>
      </trkpt>
      <trkpt lat="45.44153" lon="2.92638">
        <ele>994.2</ele>
        <time>2021-08-25T13:28:43Z</time>
      </trkpt>
      <trkpt lat="45.44155" lon="2.92639">
        <ele>994.3</ele>
        <time>2021-08-25T13:28:45Z</time>
      </trkpt>
      <trkpt lat="45.44155" lon="2.92638">
        <ele>994.3</ele>
        <time>2021-08-25T13:28:47Z</time>
      </trkpt>
      <trkpt lat="45.44155" lon="2.92638">
        <ele>994.3</ele>
        <time>2021-08-25T13:28:49Z</time>
      </trkpt>
      <trkpt lat="45.44166" lon="2.92634">
        <ele>994.6</ele>
        <time>2021-08-25T13:30:01Z</time>
      </trkpt>
      <trkpt lat="45.44169" lon="2.92627">
        <ele>994.6</ele>
        <time>2021-08-25T13:30:03Z</time>
      </trkpt>
      <trkpt lat="45.44171" lon="2.92621">
        <ele>994.5</ele>
        <time>2021-08-25T13:30:05Z</time>
      </trkpt>
      <trkpt lat="45.44174" lon="2.92614">
        <ele>994.5</ele>
        <time>2021-08-25T13:30:07Z</time>
      </trkpt>
      <trkpt lat="45.44179" lon="2.92608">
        <ele>994.6</ele>
        <time>2021-08-25T13:30:09Z</time>
      </trkpt>
      <trkpt lat="45.44185" lon="2.92602">
        <ele>994.6</ele>
        <time>2021-08-25T13:30:11Z</time>
      </trkpt>
      <trkpt lat="45.44191" lon="2.92596">
        <ele>994.7</ele>
        <time>2021-08-25T13:30:13Z</time>
      </trkpt>
      <trkpt lat="45.44197" lon="2.92589">
        <ele>994.8</ele>
        <time>2021-08-25T13:30:15Z</time>
      </trkpt>
      <trkpt lat="45.44203" lon="2.92581">
        <ele>994.9</ele>
        <time>2021-08-25T13:30:17Z</time>
      </trkpt>
      <trkpt lat="45.4421" lon="2.92574">
        <ele>995</ele>
        <time>2021-08-25T13:30:19Z</time>
      </trkpt>
      <trkpt lat="45.44216" lon="2.92567">
        <ele>995.1</ele>
        <time>2021-08-25T13:30:21Z</time>
      </trkpt>
      <trkpt lat="45.44222" lon="2.92561">
        <ele>995.2</ele>
        <time>2021-08-25T13:30:23Z</time>
      </trkpt>
      <trkpt lat="45.44227" lon="2.92555">
        <ele>995.4</ele>
        <time>2021-08-25T13:30:25Z</time>
      </trkpt>
      <trkpt lat="45.44232" lon="2.92549">
        <ele>995.5</ele>
        <time>2021-08-25T13:30:27Z</time>
      </trkpt>
      <trkpt lat="45.44237" lon="2.92544">
        <ele>995.6</ele>
        <time>2021-08-25T13:30:29Z</time>
      </trkpt>
      <trkpt lat="45.44241" lon="2.92538">
        <ele>995.7</ele>
        <time>2021-08-25T13:30:31Z</time>
      </trkpt>
      <trkpt lat="45.44246" lon="2.92532">
        <ele>995.9</ele>
        <time>2021-08-25T13:30:33Z</time>
      </trkpt>
      <trkpt lat="45.44251" lon="2.92528">
        <ele>996.1</ele>
        <time>2021-08-25T13:30:35Z</time>
      </trkpt>
      <trkpt lat="45.44255" lon="2.92523">
        <ele>996.3</ele>
        <time>2021-08-25T13:30:37Z</time>
      </trkpt>
      <trkpt lat="45.4426" lon="2.92518">
        <ele>996.6</ele>
        <time>2021-08-25T13:30:39Z</time>
      </trkpt>
      <trkpt lat="45.44265" lon="2.92515">
        <ele>996.9</ele>
        <time>2021-08-25T13:30:41Z</time>
      </trkpt>
      <trkpt lat="45.4427" lon="2.92512">
        <ele>997.2</ele>
        <time>2021-08-25T13:30:43Z</time>
      </trkpt>
      <trkpt lat="45.44276" lon="2.9251">
        <ele>997.5</ele>
        <time>2021-08-25T13:30:45Z</time>
      </trkpt>
      <trkpt lat="45.44281" lon="2.92507">
        <ele>997.8</ele>
        <time>2021-08-25T13:30:47Z</time>
      </trkpt>
      <trkpt lat="45.44285" lon="2.92504">
        <ele>998.1</ele>
        <time>2021-08-25T13:30:49Z</time>
      </trkpt>
      <trkpt lat="45.44291" lon="2.925">
        <ele>998.4</ele>
        <time>2021-08-25T13:30:51Z</time>
      </trkpt>
      <trkpt lat="45.44296" lon="2.92498">
        <ele>998.7</ele>
        <time>2021-08-25T13:30:53Z</time>
      </trkpt>
      <trkpt lat="45.44301" lon="2.92495">
        <ele>999</ele>
        <time>2021-08-25T13:30:55Z</time>
      </trkpt>
      <trkpt lat="45.44306" lon="2.92492">
        <ele>999.2</ele>
        <time>2021-08-25T13:30:57Z</time>
      </trkpt>
      <trkpt lat="45.44312" lon="2.9249">
        <ele>999.5</ele>
        <time>2021-08-25T13:30:59Z</time>
      </trkpt>
      <trkpt lat="45.44317" lon="2.92488">
        <ele>999.8</ele>
        <time>2021-08-25T13:31:01Z</time>
      </trkpt>
      <trkpt lat="45.44322" lon="2.92487">
        <ele>1000.1</ele>
        <time>2021-08-25T13:31:03Z</time>
      </trkpt>
      <trkpt lat="45.44328" lon="2.92487">
        <ele>1000.5</ele>
        <time>2021-08-25T13:31:05Z</time>
      </trkpt>
      <trkpt lat="45.44332" lon="2.9249">
        <ele>1000.8</ele>
        <time>2021-08-25T13:31:07Z</time>
      </trkpt>
      <trkpt lat="45.44338" lon="2.92492">
        <ele>1001.4</ele>
        <time>2021-08-25T13:31:09Z</time>
      </trkpt>
      <trkpt lat="45.44342" lon="2.92494">
        <ele>1001.9</ele>
        <time>2021-08-25T13:31:11Z</time>
      </trkpt>
      <trkpt lat="45.44347" lon="2.92498">
        <ele>1002.5</ele>
        <time>2021-08-25T13:31:13Z</time>
      </trkpt>
      <trkpt lat="45.44352" lon="2.92501">
        <ele>1003</ele>
        <time>2021-08-25T13:31:15Z</time>
      </trkpt>
      <trkpt lat="45.44355" lon="2.92506">
        <ele>1003.4</ele>
        <time>2021-08-25T13:31:17Z</time>
      </trkpt>
      <trkpt lat="45.44359" lon="2.9251">
        <ele>1003.8</ele>
        <time>2021-08-25T13:31:19Z</time>
      </trkpt>
      <trkpt lat="45.44361" lon="2.92514">
        <ele>1004.1</ele>
        <time>2021-08-25T13:31:21Z</time>
      </trkpt>
      <trkpt lat="45.44363" lon="2.92519">
        <ele>1004.3</ele>
        <time>2021-08-25T13:31:23Z</time>
      </trkpt>
      <trkpt lat="45.44365" lon="2.92525">
        <ele>1004.6</ele>
        <time>2021-08-25T13:31:25Z</time>
      </trkpt>
      <trkpt lat="45.44367" lon="2.9253">
        <ele>1004.9</ele>
        <time>2021-08-25T13:31:27Z</time>
      </trkpt>
      <trkpt lat="45.44368" lon="2.92536">
        <ele>1005.1</ele>
        <time>2021-08-25T13:31:29Z</time>
      </trkpt>
      <trkpt lat="45.44367" lon="2.92543">
        <ele>1005.1</ele>
        <time>2021-08-25T13:31:31Z</time>
      </trkpt>
      <trkpt lat="45.44368" lon="2.92548">
        <ele>1005.3</ele>
        <time>2021-08-25T13:31:33Z</time>
      </trkpt>
      <trkpt lat="45.44369" lon="2.92554">
        <ele>1005.5</ele>
        <time>2021-08-25T13:31:35Z</time>
      </trkpt>
      <trkpt lat="45.44371" lon="2.92561">
        <ele>1005.7</ele>
        <time>2021-08-25T13:31:37Z</time>
      </trkpt>
      <trkpt lat="45.44373" lon="2.92567">
        <ele>1006</ele>
        <time>2021-08-25T13:31:39Z</time>
      </trkpt>
      <trkpt lat="45.44374" lon="2.92574">
        <ele>1006.3</ele>
        <time>2021-08-25T13:31:41Z</time>
      </trkpt>
      <trkpt lat="45.44376" lon="2.9258">
        <ele>1006.6</ele>
        <time>2021-08-25T13:31:43Z</time>
      </trkpt>
      <trkpt lat="45.44377" lon="2.92587">
        <ele>1006.6</ele>
        <time>2021-08-25T13:31:45Z</time>
      </trkpt>
      <trkpt lat="45.44379" lon="2.92594">
        <ele>1006.5</ele>
        <time>2021-08-25T13:31:47Z</time>
      </trkpt>
      <trkpt lat="45.44381" lon="2.92601">
        <ele>1006.3</ele>
        <time>2021-08-25T13:31:49Z</time>
      </trkpt>
      <trkpt lat="45.44383" lon="2.92607">
        <ele>1006.3</ele>
        <time>2021-08-25T13:31:51Z</time>
      </trkpt>
      <trkpt lat="45.44384" lon="2.92612">
        <ele>1006.1</ele>
        <time>2021-08-25T13:31:53Z</time>
      </trkpt>
      <trkpt lat="45.44384" lon="2.92613">
        <ele>1006.1</ele>
        <time>2021-08-25T13:31:55Z</time>
      </trkpt>
      <trkpt lat="45.44384" lon="2.92613">
        <ele>1006.1</ele>
        <time>2021-08-25T13:31:57Z</time>
      </trkpt>
      <trkpt lat="45.44385" lon="2.92614">
        <ele>1006.2</ele>
        <time>2021-08-25T13:31:59Z</time>
      </trkpt>
      <trkpt lat="45.44385" lon="2.92614">
        <ele>1006.2</ele>
        <time>2021-08-25T13:32:01Z</time>
      </trkpt>
      <trkpt lat="45.44386" lon="2.92614">
        <ele>1006.2</ele>
        <time>2021-08-25T13:32:03Z</time>
      </trkpt>
      <trkpt lat="45.44392" lon="2.9263">
        <ele>1006.1</ele>
        <time>2021-08-25T13:32:29Z</time>
      </trkpt>
      <trkpt lat="45.44392" lon="2.92635">
        <ele>1005.8</ele>
        <time>2021-08-25T13:32:31Z</time>
      </trkpt>
      <trkpt lat="45.44395" lon="2.9264">
        <ele>1005.7</ele>
        <time>2021-08-25T13:32:33Z</time>
      </trkpt>
      <trkpt lat="45.44398" lon="2.92646">
        <ele>1005.7</ele>
        <time>2021-08-25T13:32:35Z</time>
      </trkpt>
      <trkpt lat="45.44402" lon="2.9265">
        <ele>1005.8</ele>
        <time>2021-08-25T13:32:37Z</time>
      </trkpt>
      <trkpt lat="45.44406" lon="2.92653">
        <ele>1006</ele>
        <time>2021-08-25T13:32:39Z</time>
      </trkpt>
      <trkpt lat="45.44411" lon="2.92655">
        <ele>1006.3</ele>
        <time>2021-08-25T13:32:41Z</time>
      </trkpt>
      <trkpt lat="45.44416" lon="2.92655">
        <ele>1006.7</ele>
        <time>2021-08-25T13:32:43Z</time>
      </trkpt>
      <trkpt lat="45.44422" lon="2.92657">
        <ele>1007.1</ele>
        <time>2021-08-25T13:32:45Z</time>
      </trkpt>
      <trkpt lat="45.44427" lon="2.92656">
        <ele>1007.5</ele>
        <time>2021-08-25T13:32:47Z</time>
      </trkpt>
      <trkpt lat="45.44433" lon="2.92657">
        <ele>1007.9</ele>
        <time>2021-08-25T13:32:49Z</time>
      </trkpt>
      <trkpt lat="45.44439" lon="2.92658">
        <ele>1008.2</ele>
        <time>2021-08-25T13:32:51Z</time>
      </trkpt>
      <trkpt lat="45.44444" lon="2.92659">
        <ele>1008.5</ele>
        <time>2021-08-25T13:32:53Z</time>
      </trkpt>
      <trkpt lat="45.44449" lon="2.9266">
        <ele>1008.8</ele>
        <time>2021-08-25T13:32:55Z</time>
      </trkpt>
      <trkpt lat="45.44454" lon="2.92662">
        <ele>1009</ele>
        <time>2021-08-25T13:32:57Z</time>
      </trkpt>
      <trkpt lat="45.44458" lon="2.92663">
        <ele>1009.2</ele>
        <time>2021-08-25T13:32:59Z</time>
      </trkpt>
      <trkpt lat="45.44463" lon="2.92663">
        <ele>1009.6</ele>
        <time>2021-08-25T13:33:01Z</time>
      </trkpt>
      <trkpt lat="45.44468" lon="2.92664">
        <ele>1009.9</ele>
        <time>2021-08-25T13:33:03Z</time>
      </trkpt>
      <trkpt lat="45.44473" lon="2.92664">
        <ele>1010.2</ele>
        <time>2021-08-25T13:33:05Z</time>
      </trkpt>
      <trkpt lat="45.44478" lon="2.92664">
        <ele>1010.6</ele>
        <time>2021-08-25T13:33:07Z</time>
      </trkpt>
      <trkpt lat="45.44483" lon="2.92663">
        <ele>1011</ele>
        <time>2021-08-25T13:33:09Z</time>
      </trkpt>
      <trkpt lat="45.44489" lon="2.92663">
        <ele>1011.4</ele>
        <time>2021-08-25T13:33:11Z</time>
      </trkpt>
      <trkpt lat="45.44494" lon="2.92662">
        <ele>1011.9</ele>
        <time>2021-08-25T13:33:13Z</time>
      </trkpt>
      <trkpt lat="45.445" lon="2.92662">
        <ele>1012.3</ele>
        <time>2021-08-25T13:33:15Z</time>
      </trkpt>
      <trkpt lat="45.44505" lon="2.92663">
        <ele>1012.4</ele>
        <time>2021-08-25T13:33:17Z</time>
      </trkpt>
      <trkpt lat="45.4451" lon="2.92665">
        <ele>1012.6</ele>
        <time>2021-08-25T13:33:19Z</time>
      </trkpt>
      <trkpt lat="45.44514" lon="2.92668">
        <ele>1012.6</ele>
        <time>2021-08-25T13:33:21Z</time>
      </trkpt>
      <trkpt lat="45.44519" lon="2.92671">
        <ele>1012.6</ele>
        <time>2021-08-25T13:33:23Z</time>
      </trkpt>
      <trkpt lat="45.44523" lon="2.92674">
        <ele>1012.6</ele>
        <time>2021-08-25T13:33:25Z</time>
      </trkpt>
      <trkpt lat="45.44527" lon="2.92677">
        <ele>1012.6</ele>
        <time>2021-08-25T13:33:27Z</time>
      </trkpt>
      <trkpt lat="45.4453" lon="2.9268">
        <ele>1012.6</ele>
        <time>2021-08-25T13:33:29Z</time>
      </trkpt>
      <trkpt lat="45.44535" lon="2.92682">
        <ele>1012.6</ele>
        <time>2021-08-25T13:33:31Z</time>
      </trkpt>
      <trkpt lat="45.44539" lon="2.92684">
        <ele>1012.7</ele>
        <time>2021-08-25T13:33:33Z</time>
      </trkpt>
      <trkpt lat="45.44544" lon="2.92685">
        <ele>1012.9</ele>
        <time>2021-08-25T13:33:35Z</time>
      </trkpt>
      <trkpt lat="45.44548" lon="2.92686">
        <ele>1013</ele>
        <time>2021-08-25T13:33:37Z</time>
      </trkpt>
      <trkpt lat="45.44553" lon="2.92686">
        <ele>1013.3</ele>
        <time>2021-08-25T13:33:39Z</time>
      </trkpt>
      <trkpt lat="45.44557" lon="2.92684">
        <ele>1013.6</ele>
        <time>2021-08-25T13:33:41Z</time>
      </trkpt>
      <trkpt lat="45.4456" lon="2.92681">
        <ele>1014</ele>
        <time>2021-08-25T13:33:43Z</time>
      </trkpt>
      <trkpt lat="45.44564" lon="2.92677">
        <ele>1014.4</ele>
        <time>2021-08-25T13:33:45Z</time>
      </trkpt>
      <trkpt lat="45.44567" lon="2.92672">
        <ele>1014.9</ele>
        <time>2021-08-25T13:33:47Z</time>
      </trkpt>
      <trkpt lat="45.44569" lon="2.92667">
        <ele>1015.3</ele>
        <time>2021-08-25T13:33:49Z</time>
      </trkpt>
      <trkpt lat="45.44571" lon="2.92662">
        <ele>1015.6</ele>
        <time>2021-08-25T13:33:51Z</time>
      </trkpt>
      <trkpt lat="45.44574" lon="2.92656">
        <ele>1015.8</ele>
        <time>2021-08-25T13:33:53Z</time>
      </trkpt>
      <trkpt lat="45.44575" lon="2.9265">
        <ele>1016.1</ele>
        <time>2021-08-25T13:33:55Z</time>
      </trkpt>
      <trkpt lat="45.44577" lon="2.92644">
        <ele>1016.3</ele>
        <time>2021-08-25T13:33:57Z</time>
      </trkpt>
      <trkpt lat="45.44579" lon="2.92638">
        <ele>1016.5</ele>
        <time>2021-08-25T13:33:59Z</time>
      </trkpt>
      <trkpt lat="45.44579" lon="2.92631">
        <ele>1016.7</ele>
        <time>2021-08-25T13:34:01Z</time>
      </trkpt>
      <trkpt lat="45.4458" lon="2.92625">
        <ele>1016.9</ele>
        <time>2021-08-25T13:34:03Z</time>
      </trkpt>
      <trkpt lat="45.44581" lon="2.92618">
        <ele>1017.1</ele>
        <time>2021-08-25T13:34:05Z</time>
      </trkpt>
      <trkpt lat="45.44581" lon="2.92612">
        <ele>1017.3</ele>
        <time>2021-08-25T13:34:07Z</time>
      </trkpt>
      <trkpt lat="45.44582" lon="2.92606">
        <ele>1017.4</ele>
        <time>2021-08-25T13:34:09Z</time>
      </trkpt>
      <trkpt lat="45.44583" lon="2.926">
        <ele>1017.6</ele>
        <time>2021-08-25T13:34:11Z</time>
      </trkpt>
      <trkpt lat="45.44584" lon="2.92594">
        <ele>1017.8</ele>
        <time>2021-08-25T13:34:13Z</time>
      </trkpt>
      <trkpt lat="45.44584" lon="2.92588">
        <ele>1018</ele>
        <time>2021-08-25T13:34:15Z</time>
      </trkpt>
      <trkpt lat="45.44586" lon="2.92582">
        <ele>1018.3</ele>
        <time>2021-08-25T13:34:17Z</time>
      </trkpt>
      <trkpt lat="45.44588" lon="2.92577">
        <ele>1018.9</ele>
        <time>2021-08-25T13:34:19Z</time>
      </trkpt>
      <trkpt lat="45.44589" lon="2.92571">
        <ele>1019.5</ele>
        <time>2021-08-25T13:34:21Z</time>
      </trkpt>
      <trkpt lat="45.44592" lon="2.92566">
        <ele>1020.2</ele>
        <time>2021-08-25T13:34:23Z</time>
      </trkpt>
      <trkpt lat="45.44595" lon="2.92561">
        <ele>1020.9</ele>
        <time>2021-08-25T13:34:25Z</time>
      </trkpt>
      <trkpt lat="45.44598" lon="2.92556">
        <ele>1021.5</ele>
        <time>2021-08-25T13:34:27Z</time>
      </trkpt>
      <trkpt lat="45.44601" lon="2.92553">
        <ele>1022.1</ele>
        <time>2021-08-25T13:34:29Z</time>
      </trkpt>
      <trkpt lat="45.44606" lon="2.92551">
        <ele>1022.7</ele>
        <time>2021-08-25T13:34:31Z</time>
      </trkpt>
      <trkpt lat="45.4461" lon="2.92549">
        <ele>1023.3</ele>
        <time>2021-08-25T13:34:33Z</time>
      </trkpt>
      <trkpt lat="45.44615" lon="2.92549">
        <ele>1023.8</ele>
        <time>2021-08-25T13:34:35Z</time>
      </trkpt>
      <trkpt lat="45.44619" lon="2.9255">
        <ele>1024.3</ele>
        <time>2021-08-25T13:34:37Z</time>
      </trkpt>
      <trkpt lat="45.44624" lon="2.92551">
        <ele>1024.7</ele>
        <time>2021-08-25T13:34:39Z</time>
      </trkpt>
      <trkpt lat="45.44627" lon="2.92554">
        <ele>1024.9</ele>
        <time>2021-08-25T13:34:41Z</time>
      </trkpt>
      <trkpt lat="45.44631" lon="2.92558">
        <ele>1025</ele>
        <time>2021-08-25T13:34:43Z</time>
      </trkpt>
      <trkpt lat="45.44635" lon="2.92562">
        <ele>1025.1</ele>
        <time>2021-08-25T13:34:45Z</time>
      </trkpt>
      <trkpt lat="45.44638" lon="2.92567">
        <ele>1025.1</ele>
        <time>2021-08-25T13:34:47Z</time>
      </trkpt>
      <trkpt lat="45.44642" lon="2.92572">
        <ele>1025.1</ele>
        <time>2021-08-25T13:34:49Z</time>
      </trkpt>
      <trkpt lat="45.44645" lon="2.92577">
        <ele>1025.1</ele>
        <time>2021-08-25T13:34:51Z</time>
      </trkpt>
      <trkpt lat="45.44648" lon="2.92582">
        <ele>1025.1</ele>
        <time>2021-08-25T13:34:53Z</time>
      </trkpt>
      <trkpt lat="45.4465" lon="2.92587">
        <ele>1025</ele>
        <time>2021-08-25T13:34:55Z</time>
      </trkpt>
      <trkpt lat="45.44653" lon="2.92592">
        <ele>1025.1</ele>
        <time>2021-08-25T13:34:57Z</time>
      </trkpt>
      <trkpt lat="45.44656" lon="2.92596">
        <ele>1025.2</ele>
        <time>2021-08-25T13:34:59Z</time>
      </trkpt>
      <trkpt lat="45.4466" lon="2.92601">
        <ele>1025.2</ele>
        <time>2021-08-25T13:35:01Z</time>
      </trkpt>
      <trkpt lat="45.44664" lon="2.92606">
        <ele>1025.3</ele>
        <time>2021-08-25T13:35:03Z</time>
      </trkpt>
      <trkpt lat="45.44667" lon="2.92611">
        <ele>1025.4</ele>
        <time>2021-08-25T13:35:05Z</time>
      </trkpt>
      <trkpt lat="45.4467" lon="2.92616">
        <ele>1025.3</ele>
        <time>2021-08-25T13:35:07Z</time>
      </trkpt>
      <trkpt lat="45.44674" lon="2.92619">
        <ele>1025.4</ele>
        <time>2021-08-25T13:35:09Z</time>
      </trkpt>
      <trkpt lat="45.44679" lon="2.92621">
        <ele>1025.6</ele>
        <time>2021-08-25T13:35:11Z</time>
      </trkpt>
      <trkpt lat="45.44683" lon="2.92623">
        <ele>1025.8</ele>
        <time>2021-08-25T13:35:13Z</time>
      </trkpt>
      <trkpt lat="45.44687" lon="2.92624">
        <ele>1026.1</ele>
        <time>2021-08-25T13:35:15Z</time>
      </trkpt>
      <trkpt lat="45.44692" lon="2.92623">
        <ele>1026.5</ele>
        <time>2021-08-25T13:35:17Z</time>
      </trkpt>
      <trkpt lat="45.44696" lon="2.92621">
        <ele>1026.9</ele>
        <time>2021-08-25T13:35:19Z</time>
      </trkpt>
      <trkpt lat="45.44701" lon="2.9262">
        <ele>1027.3</ele>
        <time>2021-08-25T13:35:21Z</time>
      </trkpt>
      <trkpt lat="45.44706" lon="2.92618">
        <ele>1027.8</ele>
        <time>2021-08-25T13:35:23Z</time>
      </trkpt>
      <trkpt lat="45.4471" lon="2.92617">
        <ele>1028.2</ele>
        <time>2021-08-25T13:35:25Z</time>
      </trkpt>
      <trkpt lat="45.44715" lon="2.92617">
        <ele>1028.6</ele>
        <time>2021-08-25T13:35:27Z</time>
      </trkpt>
      <trkpt lat="45.4472" lon="2.92616">
        <ele>1029</ele>
        <time>2021-08-25T13:35:29Z</time>
      </trkpt>
      <trkpt lat="45.44724" lon="2.92616">
        <ele>1029.3</ele>
        <time>2021-08-25T13:35:31Z</time>
      </trkpt>
      <trkpt lat="45.44729" lon="2.92616">
        <ele>1029.7</ele>
        <time>2021-08-25T13:35:33Z</time>
      </trkpt>
      <trkpt lat="45.44733" lon="2.92617">
        <ele>1029.9</ele>
        <time>2021-08-25T13:35:35Z</time>
      </trkpt>
      <trkpt lat="45.44737" lon="2.92619">
        <ele>1030.1</ele>
        <time>2021-08-25T13:35:37Z</time>
      </trkpt>
      <trkpt lat="45.44742" lon="2.92621">
        <ele>1030.3</ele>
        <time>2021-08-25T13:35:39Z</time>
      </trkpt>
      <trkpt lat="45.44746" lon="2.92622">
        <ele>1030.5</ele>
        <time>2021-08-25T13:35:41Z</time>
      </trkpt>
      <trkpt lat="45.44751" lon="2.92624">
        <ele>1030.5</ele>
        <time>2021-08-25T13:35:43Z</time>
      </trkpt>
      <trkpt lat="45.44755" lon="2.92626">
        <ele>1030.2</ele>
        <time>2021-08-25T13:35:45Z</time>
      </trkpt>
      <trkpt lat="45.44759" lon="2.92628">
        <ele>1029.9</ele>
        <time>2021-08-25T13:35:47Z</time>
      </trkpt>
      <trkpt lat="45.44764" lon="2.92629">
        <ele>1029.5</ele>
        <time>2021-08-25T13:35:49Z</time>
      </trkpt>
      <trkpt lat="45.44768" lon="2.92631">
        <ele>1029.1</ele>
        <time>2021-08-25T13:35:51Z</time>
      </trkpt>
      <trkpt lat="45.44773" lon="2.92632">
        <ele>1028.8</ele>
        <time>2021-08-25T13:35:53Z</time>
      </trkpt>
      <trkpt lat="45.44777" lon="2.92632">
        <ele>1028.6</ele>
        <time>2021-08-25T13:35:55Z</time>
      </trkpt>
      <trkpt lat="45.44781" lon="2.9263">
        <ele>1028.6</ele>
        <time>2021-08-25T13:35:57Z</time>
      </trkpt>
      <trkpt lat="45.44785" lon="2.92628">
        <ele>1028.7</ele>
        <time>2021-08-25T13:35:59Z</time>
      </trkpt>
      <trkpt lat="45.44789" lon="2.92624">
        <ele>1029</ele>
        <time>2021-08-25T13:36:01Z</time>
      </trkpt>
      <trkpt lat="45.44793" lon="2.92621">
        <ele>1029.2</ele>
        <time>2021-08-25T13:36:03Z</time>
      </trkpt>
      <trkpt lat="45.44795" lon="2.92616">
        <ele>1029.8</ele>
        <time>2021-08-25T13:36:05Z</time>
      </trkpt>
      <trkpt lat="45.44799" lon="2.92611">
        <ele>1030.3</ele>
        <time>2021-08-25T13:36:07Z</time>
      </trkpt>
      <trkpt lat="45.44801" lon="2.92605">
        <ele>1031</ele>
        <time>2021-08-25T13:36:09Z</time>
      </trkpt>
      <trkpt lat="45.44803" lon="2.926">
        <ele>1031.7</ele>
        <time>2021-08-25T13:36:11Z</time>
      </trkpt>
      <trkpt lat="45.44805" lon="2.92594">
        <ele>1032.5</ele>
        <time>2021-08-25T13:36:13Z</time>
      </trkpt>
      <trkpt lat="45.44808" lon="2.92588">
        <ele>1033.3</ele>
        <time>2021-08-25T13:36:15Z</time>
      </trkpt>
      <trkpt lat="45.4481" lon="2.92583">
        <ele>1034.1</ele>
        <time>2021-08-25T13:36:17Z</time>
      </trkpt>
      <trkpt lat="45.44812" lon="2.92577">
        <ele>1034.7</ele>
        <time>2021-08-25T13:36:19Z</time>
      </trkpt>
      <trkpt lat="45.44813" lon="2.92571">
        <ele>1035.3</ele>
        <time>2021-08-25T13:36:21Z</time>
      </trkpt>
      <trkpt lat="45.44815" lon="2.92565">
        <ele>1036</ele>
        <time>2021-08-25T13:36:23Z</time>
      </trkpt>
      <trkpt lat="45.44817" lon="2.9256">
        <ele>1036.6</ele>
        <time>2021-08-25T13:36:25Z</time>
      </trkpt>
      <trkpt lat="45.44818" lon="2.92554">
        <ele>1037.3</ele>
        <time>2021-08-25T13:36:27Z</time>
      </trkpt>
      <trkpt lat="45.4482" lon="2.92549">
        <ele>1038</ele>
        <time>2021-08-25T13:36:29Z</time>
      </trkpt>
      <trkpt lat="45.44823" lon="2.92544">
        <ele>1038.7</ele>
        <time>2021-08-25T13:36:31Z</time>
      </trkpt>
      <trkpt lat="45.44825" lon="2.92539">
        <ele>1039.4</ele>
        <time>2021-08-25T13:36:33Z</time>
      </trkpt>
      <trkpt lat="45.44828" lon="2.92535">
        <ele>1040.1</ele>
        <time>2021-08-25T13:36:35Z</time>
      </trkpt>
      <trkpt lat="45.44831" lon="2.9253">
        <ele>1040.9</ele>
        <time>2021-08-25T13:36:37Z</time>
      </trkpt>
      <trkpt lat="45.44835" lon="2.92527">
        <ele>1041.6</ele>
        <time>2021-08-25T13:36:39Z</time>
      </trkpt>
      <trkpt lat="45.44839" lon="2.92525">
        <ele>1042.3</ele>
        <time>2021-08-25T13:36:41Z</time>
      </trkpt>
      <trkpt lat="45.44843" lon="2.92523">
        <ele>1043.1</ele>
        <time>2021-08-25T13:36:43Z</time>
      </trkpt>
      <trkpt lat="45.44848" lon="2.92523">
        <ele>1043.6</ele>
        <time>2021-08-25T13:36:45Z</time>
      </trkpt>
      <trkpt lat="45.44852" lon="2.92524">
        <ele>1044</ele>
        <time>2021-08-25T13:36:47Z</time>
      </trkpt>
      <trkpt lat="45.44856" lon="2.92525">
        <ele>1044.2</ele>
        <time>2021-08-25T13:36:49Z</time>
      </trkpt>
      <trkpt lat="45.44861" lon="2.92527">
        <ele>1044.4</ele>
        <time>2021-08-25T13:36:51Z</time>
      </trkpt>
      <trkpt lat="45.44865" lon="2.92529">
        <ele>1044.3</ele>
        <time>2021-08-25T13:36:53Z</time>
      </trkpt>
      <trkpt lat="45.44869" lon="2.9253">
        <ele>1044.6</ele>
        <time>2021-08-25T13:36:55Z</time>
      </trkpt>
      <trkpt lat="45.44874" lon="2.9253">
        <ele>1045.1</ele>
        <time>2021-08-25T13:36:57Z</time>
      </trkpt>
      <trkpt lat="45.44878" lon="2.9253">
        <ele>1045.4</ele>
        <time>2021-08-25T13:36:59Z</time>
      </trkpt>
      <trkpt lat="45.44883" lon="2.92531">
        <ele>1045.8</ele>
        <time>2021-08-25T13:37:01Z</time>
      </trkpt>
      <trkpt lat="45.44887" lon="2.9253">
        <ele>1046.4</ele>
        <time>2021-08-25T13:37:03Z</time>
      </trkpt>
      <trkpt lat="45.44892" lon="2.92529">
        <ele>1047.1</ele>
        <time>2021-08-25T13:37:05Z</time>
      </trkpt>
      <trkpt lat="45.44897" lon="2.92527">
        <ele>1048.2</ele>
        <time>2021-08-25T13:37:07Z</time>
      </trkpt>
      <trkpt lat="45.44902" lon="2.92525">
        <ele>1049.2</ele>
        <time>2021-08-25T13:37:09Z</time>
      </trkpt>
      <trkpt lat="45.44907" lon="2.92524">
        <ele>1050.1</ele>
        <time>2021-08-25T13:37:11Z</time>
      </trkpt>
      <trkpt lat="45.44911" lon="2.92522">
        <ele>1051.2</ele>
        <time>2021-08-25T13:37:13Z</time>
      </trkpt>
      <trkpt lat="45.44915" lon="2.92521">
        <ele>1052</ele>
        <time>2021-08-25T13:37:15Z</time>
      </trkpt>
      <trkpt lat="45.44918" lon="2.92519">
        <ele>1052.8</ele>
        <time>2021-08-25T13:37:17Z</time>
      </trkpt>
      <trkpt lat="45.44922" lon="2.92516">
        <ele>1053.2</ele>
        <time>2021-08-25T13:37:19Z</time>
      </trkpt>
      <trkpt lat="45.44927" lon="2.92514">
        <ele>1053.3</ele>
        <time>2021-08-25T13:37:21Z</time>
      </trkpt>
      <trkpt lat="45.44931" lon="2.92512">
        <ele>1053.6</ele>
        <time>2021-08-25T13:37:23Z</time>
      </trkpt>
      <trkpt lat="45.44936" lon="2.92508">
        <ele>1054.1</ele>
        <time>2021-08-25T13:37:25Z</time>
      </trkpt>
      <trkpt lat="45.44939" lon="2.92504">
        <ele>1054.9</ele>
        <time>2021-08-25T13:37:27Z</time>
      </trkpt>
      <trkpt lat="45.44943" lon="2.92502">
        <ele>1055.3</ele>
        <time>2021-08-25T13:37:29Z</time>
      </trkpt>
      <trkpt lat="45.44947" lon="2.92498">
        <ele>1056.2</ele>
        <time>2021-08-25T13:37:31Z</time>
      </trkpt>
      <trkpt lat="45.44951" lon="2.92495">
        <ele>1056.7</ele>
        <time>2021-08-25T13:37:33Z</time>
      </trkpt>
      <trkpt lat="45.44954" lon="2.92491">
        <ele>1057.7</ele>
        <time>2021-08-25T13:37:35Z</time>
      </trkpt>
      <trkpt lat="45.44958" lon="2.92489">
        <ele>1058.2</ele>
        <time>2021-08-25T13:37:37Z</time>
      </trkpt>
      <trkpt lat="45.44962" lon="2.92486">
        <ele>1059.1</ele>
        <time>2021-08-25T13:37:39Z</time>
      </trkpt>
      <trkpt lat="45.44966" lon="2.92484">
        <ele>1059.4</ele>
        <time>2021-08-25T13:37:41Z</time>
      </trkpt>
      <trkpt lat="45.44971" lon="2.92482">
        <ele>1059.9</ele>
        <time>2021-08-25T13:37:43Z</time>
      </trkpt>
      <trkpt lat="45.44975" lon="2.9248">
        <ele>1060.4</ele>
        <time>2021-08-25T13:37:45Z</time>
      </trkpt>
      <trkpt lat="45.44979" lon="2.92477">
        <ele>1061.2</ele>
        <time>2021-08-25T13:37:47Z</time>
      </trkpt>
      <trkpt lat="45.44983" lon="2.92476">
        <ele>1061.5</ele>
        <time>2021-08-25T13:37:49Z</time>
      </trkpt>
      <trkpt lat="45.44987" lon="2.92475">
        <ele>1061.6</ele>
        <time>2021-08-25T13:37:51Z</time>
      </trkpt>
      <trkpt lat="45.4499" lon="2.92473">
        <ele>1062.1</ele>
        <time>2021-08-25T13:37:53Z</time>
      </trkpt>
      <trkpt lat="45.44993" lon="2.92471">
        <ele>1062.8</ele>
        <time>2021-08-25T13:37:55Z</time>
      </trkpt>
      <trkpt lat="45.44998" lon="2.92468">
        <ele>1063.5</ele>
        <time>2021-08-25T13:37:57Z</time>
      </trkpt>
      <trkpt lat="45.45002" lon="2.92467">
        <ele>1063.9</ele>
        <time>2021-08-25T13:37:59Z</time>
      </trkpt>
      <trkpt lat="45.45006" lon="2.92464">
        <ele>1064.2</ele>
        <time>2021-08-25T13:38:01Z</time>
      </trkpt>
      <trkpt lat="45.45011" lon="2.92463">
        <ele>1064.2</ele>
        <time>2021-08-25T13:38:03Z</time>
      </trkpt>
      <trkpt lat="45.45015" lon="2.9246">
        <ele>1064.8</ele>
        <time>2021-08-25T13:38:05Z</time>
      </trkpt>
      <trkpt lat="45.45018" lon="2.92458">
        <ele>1065</ele>
        <time>2021-08-25T13:38:07Z</time>
      </trkpt>
      <trkpt lat="45.45022" lon="2.92455">
        <ele>1065.2</ele>
        <time>2021-08-25T13:38:09Z</time>
      </trkpt>
      <trkpt lat="45.45028" lon="2.92453">
        <ele>1064.9</ele>
        <time>2021-08-25T13:38:11Z</time>
      </trkpt>
      <trkpt lat="45.45033" lon="2.92451">
        <ele>1064.7</ele>
        <time>2021-08-25T13:38:13Z</time>
      </trkpt>
      <trkpt lat="45.45038" lon="2.92448">
        <ele>1064.9</ele>
        <time>2021-08-25T13:38:15Z</time>
      </trkpt>
      <trkpt lat="45.45042" lon="2.92445">
        <ele>1065</ele>
        <time>2021-08-25T13:38:17Z</time>
      </trkpt>
      <trkpt lat="45.45047" lon="2.92442">
        <ele>1065.2</ele>
        <time>2021-08-25T13:38:19Z</time>
      </trkpt>
      <trkpt lat="45.45052" lon="2.9244">
        <ele>1064.7</ele>
        <time>2021-08-25T13:38:21Z</time>
      </trkpt>
      <trkpt lat="45.45056" lon="2.92437">
        <ele>1064.6</ele>
        <time>2021-08-25T13:38:23Z</time>
      </trkpt>
      <trkpt lat="45.45061" lon="2.92435">
        <ele>1064.3</ele>
        <time>2021-08-25T13:38:25Z</time>
      </trkpt>
      <trkpt lat="45.45066" lon="2.92434">
        <ele>1063.7</ele>
        <time>2021-08-25T13:38:27Z</time>
      </trkpt>
      <trkpt lat="45.45069" lon="2.92432">
        <ele>1063.4</ele>
        <time>2021-08-25T13:38:29Z</time>
      </trkpt>
      <trkpt lat="45.45073" lon="2.92429">
        <ele>1063.3</ele>
        <time>2021-08-25T13:38:31Z</time>
      </trkpt>
      <trkpt lat="45.45078" lon="2.92426">
        <ele>1062.8</ele>
        <time>2021-08-25T13:38:33Z</time>
      </trkpt>
      <trkpt lat="45.45082" lon="2.92423">
        <ele>1062.7</ele>
        <time>2021-08-25T13:38:35Z</time>
      </trkpt>
      <trkpt lat="45.45086" lon="2.92421">
        <ele>1062.7</ele>
        <time>2021-08-25T13:38:37Z</time>
      </trkpt>
      <trkpt lat="45.4509" lon="2.92417">
        <ele>1063.3</ele>
        <time>2021-08-25T13:38:39Z</time>
      </trkpt>
      <trkpt lat="45.45094" lon="2.92414">
        <ele>1063.8</ele>
        <time>2021-08-25T13:38:41Z</time>
      </trkpt>
      <trkpt lat="45.45097" lon="2.92409">
        <ele>1064.5</ele>
        <time>2021-08-25T13:38:43Z</time>
      </trkpt>
      <trkpt lat="45.45101" lon="2.92405">
        <ele>1065.1</ele>
        <time>2021-08-25T13:38:45Z</time>
      </trkpt>
      <trkpt lat="45.45104" lon="2.92402">
        <ele>1065.6</ele>
        <time>2021-08-25T13:38:47Z</time>
      </trkpt>
      <trkpt lat="45.45108" lon="2.92398">
        <ele>1066.3</ele>
        <time>2021-08-25T13:38:49Z</time>
      </trkpt>
      <trkpt lat="45.4511" lon="2.92394">
        <ele>1066.9</ele>
        <time>2021-08-25T13:38:51Z</time>
      </trkpt>
      <trkpt lat="45.45113" lon="2.92389">
        <ele>1067.8</ele>
        <time>2021-08-25T13:38:53Z</time>
      </trkpt>
      <trkpt lat="45.45116" lon="2.92385">
        <ele>1068.6</ele>
        <time>2021-08-25T13:38:55Z</time>
      </trkpt>
      <trkpt lat="45.45119" lon="2.92382">
        <ele>1069.1</ele>
        <time>2021-08-25T13:38:57Z</time>
      </trkpt>
      <trkpt lat="45.45121" lon="2.92377">
        <ele>1070.1</ele>
        <time>2021-08-25T13:38:59Z</time>
      </trkpt>
      <trkpt lat="45.45124" lon="2.92373">
        <ele>1070.7</ele>
        <time>2021-08-25T13:39:01Z</time>
      </trkpt>
      <trkpt lat="45.45127" lon="2.92369">
        <ele>1071.6</ele>
        <time>2021-08-25T13:39:03Z</time>
      </trkpt>
      <trkpt lat="45.45132" lon="2.92365">
        <ele>1072.2</ele>
        <time>2021-08-25T13:39:05Z</time>
      </trkpt>
      <trkpt lat="45.45136" lon="2.9236">
        <ele>1073</ele>
        <time>2021-08-25T13:39:07Z</time>
      </trkpt>
      <trkpt lat="45.4514" lon="2.92358">
        <ele>1073.4</ele>
        <time>2021-08-25T13:39:09Z</time>
      </trkpt>
      <trkpt lat="45.45145" lon="2.92355">
        <ele>1073.8</ele>
        <time>2021-08-25T13:39:11Z</time>
      </trkpt>
      <trkpt lat="45.4515" lon="2.92354">
        <ele>1073.7</ele>
        <time>2021-08-25T13:39:13Z</time>
      </trkpt>
      <trkpt lat="45.45155" lon="2.92357">
        <ele>1072.8</ele>
        <time>2021-08-25T13:39:15Z</time>
      </trkpt>
      <trkpt lat="45.4516" lon="2.9236">
        <ele>1071.8</ele>
        <time>2021-08-25T13:39:17Z</time>
      </trkpt>
      <trkpt lat="45.45164" lon="2.92363">
        <ele>1070.7</ele>
        <time>2021-08-25T13:39:19Z</time>
      </trkpt>
      <trkpt lat="45.45168" lon="2.92366">
        <ele>1070</ele>
        <time>2021-08-25T13:39:21Z</time>
      </trkpt>
      <trkpt lat="45.45172" lon="2.92368">
        <ele>1069.6</ele>
        <time>2021-08-25T13:39:23Z</time>
      </trkpt>
      <trkpt lat="45.45176" lon="2.92372">
        <ele>1069</ele>
        <time>2021-08-25T13:39:25Z</time>
      </trkpt>
      <trkpt lat="45.4518" lon="2.92373">
        <ele>1069.2</ele>
        <time>2021-08-25T13:39:27Z</time>
      </trkpt>
      <trkpt lat="45.45185" lon="2.92377">
        <ele>1068.6</ele>
        <time>2021-08-25T13:39:29Z</time>
      </trkpt>
      <trkpt lat="45.4519" lon="2.92378">
        <ele>1068.6</ele>
        <time>2021-08-25T13:39:31Z</time>
      </trkpt>
      <trkpt lat="45.45195" lon="2.92381">
        <ele>1068.2</ele>
        <time>2021-08-25T13:39:33Z</time>
      </trkpt>
      <trkpt lat="45.45199" lon="2.92382">
        <ele>1068.5</ele>
        <time>2021-08-25T13:39:35Z</time>
      </trkpt>
      <trkpt lat="45.45204" lon="2.92384">
        <ele>1068.4</ele>
        <time>2021-08-25T13:39:37Z</time>
      </trkpt>
      <trkpt lat="45.45208" lon="2.92384">
        <ele>1068.6</ele>
        <time>2021-08-25T13:39:39Z</time>
      </trkpt>
      <trkpt lat="45.45213" lon="2.92384">
        <ele>1069.1</ele>
        <time>2021-08-25T13:39:41Z</time>
      </trkpt>
      <trkpt lat="45.45217" lon="2.92383">
        <ele>1069.6</ele>
        <time>2021-08-25T13:39:43Z</time>
      </trkpt>
      <trkpt lat="45.45221" lon="2.92383">
        <ele>1069.9</ele>
        <time>2021-08-25T13:39:45Z</time>
      </trkpt>
      <trkpt lat="45.45226" lon="2.92382">
        <ele>1070.6</ele>
        <time>2021-08-25T13:39:47Z</time>
      </trkpt>
      <trkpt lat="45.4523" lon="2.9238">
        <ele>1071.5</ele>
        <time>2021-08-25T13:39:49Z</time>
      </trkpt>
      <trkpt lat="45.45235" lon="2.92379">
        <ele>1072.1</ele>
        <time>2021-08-25T13:39:51Z</time>
      </trkpt>
      <trkpt lat="45.4524" lon="2.92379">
        <ele>1072.6</ele>
        <time>2021-08-25T13:39:53Z</time>
      </trkpt>
      <trkpt lat="45.45244" lon="2.92378">
        <ele>1073.3</ele>
        <time>2021-08-25T13:39:55Z</time>
      </trkpt>
      <trkpt lat="45.45248" lon="2.92376">
        <ele>1074</ele>
        <time>2021-08-25T13:39:57Z</time>
      </trkpt>
      <trkpt lat="45.45253" lon="2.92376">
        <ele>1075</ele>
        <time>2021-08-25T13:39:59Z</time>
      </trkpt>
      <trkpt lat="45.45258" lon="2.92376">
        <ele>1076.1</ele>
        <time>2021-08-25T13:40:01Z</time>
      </trkpt>
      <trkpt lat="45.45263" lon="2.92376">
        <ele>1077</ele>
        <time>2021-08-25T13:40:03Z</time>
      </trkpt>
      <trkpt lat="45.45268" lon="2.92377">
        <ele>1078</ele>
        <time>2021-08-25T13:40:05Z</time>
      </trkpt>
      <trkpt lat="45.45272" lon="2.92379">
        <ele>1078.7</ele>
        <time>2021-08-25T13:40:07Z</time>
      </trkpt>
      <trkpt lat="45.45276" lon="2.9238">
        <ele>1079.2</ele>
        <time>2021-08-25T13:40:09Z</time>
      </trkpt>
      <trkpt lat="45.4528" lon="2.92383">
        <ele>1079.3</ele>
        <time>2021-08-25T13:40:11Z</time>
      </trkpt>
      <trkpt lat="45.45284" lon="2.92387">
        <ele>1079.3</ele>
        <time>2021-08-25T13:40:13Z</time>
      </trkpt>
      <trkpt lat="45.45287" lon="2.92391">
        <ele>1079.2</ele>
        <time>2021-08-25T13:40:15Z</time>
      </trkpt>
      <trkpt lat="45.45291" lon="2.92396">
        <ele>1078.8</ele>
        <time>2021-08-25T13:40:17Z</time>
      </trkpt>
      <trkpt lat="45.45294" lon="2.92402">
        <ele>1078.2</ele>
        <time>2021-08-25T13:40:19Z</time>
      </trkpt>
      <trkpt lat="45.45297" lon="2.92408">
        <ele>1077.4</ele>
        <time>2021-08-25T13:40:21Z</time>
      </trkpt>
      <trkpt lat="45.45299" lon="2.92413">
        <ele>1076.8</ele>
        <time>2021-08-25T13:40:23Z</time>
      </trkpt>
      <trkpt lat="45.45302" lon="2.92418">
        <ele>1076.4</ele>
        <time>2021-08-25T13:40:25Z</time>
      </trkpt>
      <trkpt lat="45.45304" lon="2.92422">
        <ele>1076.1</ele>
        <time>2021-08-25T13:40:27Z</time>
      </trkpt>
      <trkpt lat="45.45307" lon="2.92428">
        <ele>1076</ele>
        <time>2021-08-25T13:40:29Z</time>
      </trkpt>
      <trkpt lat="45.45311" lon="2.92432">
        <ele>1075.9</ele>
        <time>2021-08-25T13:40:31Z</time>
      </trkpt>
      <trkpt lat="45.45314" lon="2.92436">
        <ele>1075.8</ele>
        <time>2021-08-25T13:40:33Z</time>
      </trkpt>
      <trkpt lat="45.45316" lon="2.92439">
        <ele>1075.8</ele>
        <time>2021-08-25T13:40:35Z</time>
      </trkpt>
      <trkpt lat="45.45319" lon="2.92442">
        <ele>1075.9</ele>
        <time>2021-08-25T13:40:37Z</time>
      </trkpt>
      <trkpt lat="45.45323" lon="2.92446">
        <ele>1075.9</ele>
        <time>2021-08-25T13:40:39Z</time>
      </trkpt>
      <trkpt lat="45.45327" lon="2.92448">
        <ele>1076.3</ele>
        <time>2021-08-25T13:40:41Z</time>
      </trkpt>
      <trkpt lat="45.45331" lon="2.92451">
        <ele>1076.5</ele>
        <time>2021-08-25T13:40:43Z</time>
      </trkpt>
      <trkpt lat="45.45335" lon="2.92453">
        <ele>1076.8</ele>
        <time>2021-08-25T13:40:45Z</time>
      </trkpt>
      <trkpt lat="45.45339" lon="2.92454">
        <ele>1077.1</ele>
        <time>2021-08-25T13:40:47Z</time>
      </trkpt>
      <trkpt lat="45.45343" lon="2.92455">
        <ele>1077.4</ele>
        <time>2021-08-25T13:40:49Z</time>
      </trkpt>
      <trkpt lat="45.45348" lon="2.92455">
        <ele>1078</ele>
        <time>2021-08-25T13:40:51Z</time>
      </trkpt>
      <trkpt lat="45.45352" lon="2.92454">
        <ele>1078.5</ele>
        <time>2021-08-25T13:40:53Z</time>
      </trkpt>
      <trkpt lat="45.45356" lon="2.92453">
        <ele>1079.2</ele>
        <time>2021-08-25T13:40:55Z</time>
      </trkpt>
      <trkpt lat="45.4536" lon="2.92452">
        <ele>1079.9</ele>
        <time>2021-08-25T13:40:57Z</time>
      </trkpt>
      <trkpt lat="45.45364" lon="2.92451">
        <ele>1080.8</ele>
        <time>2021-08-25T13:40:59Z</time>
      </trkpt>
      <trkpt lat="45.45369" lon="2.92449">
        <ele>1081.7</ele>
        <time>2021-08-25T13:41:01Z</time>
      </trkpt>
      <trkpt lat="45.45373" lon="2.92447">
        <ele>1082.6</ele>
        <time>2021-08-25T13:41:03Z</time>
      </trkpt>
      <trkpt lat="45.45377" lon="2.92444">
        <ele>1083.7</ele>
        <time>2021-08-25T13:41:05Z</time>
      </trkpt>
      <trkpt lat="45.45381" lon="2.92441">
        <ele>1084.6</ele>
        <time>2021-08-25T13:41:07Z</time>
      </trkpt>
      <trkpt lat="45.45385" lon="2.92439">
        <ele>1085.6</ele>
        <time>2021-08-25T13:41:09Z</time>
      </trkpt>
      <trkpt lat="45.45389" lon="2.92438">
        <ele>1086.3</ele>
        <time>2021-08-25T13:41:11Z</time>
      </trkpt>
      <trkpt lat="45.45394" lon="2.92438">
        <ele>1086.8</ele>
        <time>2021-08-25T13:41:13Z</time>
      </trkpt>
      <trkpt lat="45.45398" lon="2.92439">
        <ele>1087.1</ele>
        <time>2021-08-25T13:41:15Z</time>
      </trkpt>
      <trkpt lat="45.45402" lon="2.9244">
        <ele>1087.3</ele>
        <time>2021-08-25T13:41:17Z</time>
      </trkpt>
      <trkpt lat="45.45406" lon="2.92442">
        <ele>1087.3</ele>
        <time>2021-08-25T13:41:19Z</time>
      </trkpt>
      <trkpt lat="45.4541" lon="2.92442">
        <ele>1087.7</ele>
        <time>2021-08-25T13:41:21Z</time>
      </trkpt>
      <trkpt lat="45.45414" lon="2.92445">
        <ele>1087.7</ele>
        <time>2021-08-25T13:41:23Z</time>
      </trkpt>
      <trkpt lat="45.4542" lon="2.92446">
        <ele>1087.9</ele>
        <time>2021-08-25T13:41:25Z</time>
      </trkpt>
      <trkpt lat="45.45425" lon="2.92445">
        <ele>1088.4</ele>
        <time>2021-08-25T13:41:27Z</time>
      </trkpt>
      <trkpt lat="45.4543" lon="2.92444">
        <ele>1089</ele>
        <time>2021-08-25T13:41:29Z</time>
      </trkpt>
      <trkpt lat="45.45435" lon="2.9244">
        <ele>1090</ele>
        <time>2021-08-25T13:41:31Z</time>
      </trkpt>
      <trkpt lat="45.45439" lon="2.92436">
        <ele>1090.8</ele>
        <time>2021-08-25T13:41:33Z</time>
      </trkpt>
      <trkpt lat="45.45444" lon="2.92433">
        <ele>1091.4</ele>
        <time>2021-08-25T13:41:35Z</time>
      </trkpt>
      <trkpt lat="45.45447" lon="2.9243">
        <ele>1092.1</ele>
        <time>2021-08-25T13:41:37Z</time>
      </trkpt>
      <trkpt lat="45.45451" lon="2.92427">
        <ele>1092.6</ele>
        <time>2021-08-25T13:41:39Z</time>
      </trkpt>
      <trkpt lat="45.45455" lon="2.92424">
        <ele>1093.1</ele>
        <time>2021-08-25T13:41:41Z</time>
      </trkpt>
      <trkpt lat="45.45459" lon="2.92421">
        <ele>1093.5</ele>
        <time>2021-08-25T13:41:43Z</time>
      </trkpt>
      <trkpt lat="45.45464" lon="2.92418">
        <ele>1093.8</ele>
        <time>2021-08-25T13:41:45Z</time>
      </trkpt>
      <trkpt lat="45.45468" lon="2.92415">
        <ele>1094.2</ele>
        <time>2021-08-25T13:41:47Z</time>
      </trkpt>
      <trkpt lat="45.45471" lon="2.92411">
        <ele>1094.5</ele>
        <time>2021-08-25T13:41:49Z</time>
      </trkpt>
      <trkpt lat="45.45475" lon="2.9241">
        <ele>1094.6</ele>
        <time>2021-08-25T13:41:51Z</time>
      </trkpt>
      <trkpt lat="45.45479" lon="2.92409">
        <ele>1094.7</ele>
        <time>2021-08-25T13:41:53Z</time>
      </trkpt>
      <trkpt lat="45.45483" lon="2.92408">
        <ele>1094.7</ele>
        <time>2021-08-25T13:41:55Z</time>
      </trkpt>
      <trkpt lat="45.45486" lon="2.92405">
        <ele>1094.9</ele>
        <time>2021-08-25T13:41:57Z</time>
      </trkpt>
      <trkpt lat="45.45491" lon="2.92403">
        <ele>1094.9</ele>
        <time>2021-08-25T13:41:59Z</time>
      </trkpt>
      <trkpt lat="45.45497" lon="2.92402">
        <ele>1094.8</ele>
        <time>2021-08-25T13:42:01Z</time>
      </trkpt>
      <trkpt lat="45.45502" lon="2.924">
        <ele>1095</ele>
        <time>2021-08-25T13:42:03Z</time>
      </trkpt>
      <trkpt lat="45.45507" lon="2.92397">
        <ele>1095.5</ele>
        <time>2021-08-25T13:42:05Z</time>
      </trkpt>
      <trkpt lat="45.45511" lon="2.92394">
        <ele>1096</ele>
        <time>2021-08-25T13:42:07Z</time>
      </trkpt>
      <trkpt lat="45.45514" lon="2.9239">
        <ele>1096.4</ele>
        <time>2021-08-25T13:42:09Z</time>
      </trkpt>
      <trkpt lat="45.45517" lon="2.92386">
        <ele>1096.7</ele>
        <time>2021-08-25T13:42:11Z</time>
      </trkpt>
      <trkpt lat="45.4552" lon="2.92381">
        <ele>1097</ele>
        <time>2021-08-25T13:42:13Z</time>
      </trkpt>
      <trkpt lat="45.45522" lon="2.92376">
        <ele>1097.3</ele>
        <time>2021-08-25T13:42:15Z</time>
      </trkpt>
      <trkpt lat="45.45524" lon="2.92371">
        <ele>1097.5</ele>
        <time>2021-08-25T13:42:17Z</time>
      </trkpt>
      <trkpt lat="45.45526" lon="2.92365">
        <ele>1097.7</ele>
        <time>2021-08-25T13:42:19Z</time>
      </trkpt>
      <trkpt lat="45.45528" lon="2.9236">
        <ele>1097.9</ele>
        <time>2021-08-25T13:42:21Z</time>
      </trkpt>
      <trkpt lat="45.4553" lon="2.92356">
        <ele>1098</ele>
        <time>2021-08-25T13:42:23Z</time>
      </trkpt>
      <trkpt lat="45.45532" lon="2.9235">
        <ele>1098.2</ele>
        <time>2021-08-25T13:42:25Z</time>
      </trkpt>
      <trkpt lat="45.45534" lon="2.92343">
        <ele>1098.3</ele>
        <time>2021-08-25T13:42:27Z</time>
      </trkpt>
      <trkpt lat="45.45536" lon="2.92338">
        <ele>1098.4</ele>
        <time>2021-08-25T13:42:29Z</time>
      </trkpt>
      <trkpt lat="45.45538" lon="2.92332">
        <ele>1098.4</ele>
        <time>2021-08-25T13:42:31Z</time>
      </trkpt>
      <trkpt lat="45.4554" lon="2.92326">
        <ele>1098.3</ele>
        <time>2021-08-25T13:42:33Z</time>
      </trkpt>
      <trkpt lat="45.45542" lon="2.92321">
        <ele>1098.2</ele>
        <time>2021-08-25T13:42:35Z</time>
      </trkpt>
      <trkpt lat="45.45545" lon="2.92315">
        <ele>1098</ele>
        <time>2021-08-25T13:42:37Z</time>
      </trkpt>
      <trkpt lat="45.45547" lon="2.9231">
        <ele>1097.8</ele>
        <time>2021-08-25T13:42:39Z</time>
      </trkpt>
      <trkpt lat="45.45549" lon="2.92305">
        <ele>1097.6</ele>
        <time>2021-08-25T13:42:41Z</time>
      </trkpt>
      <trkpt lat="45.45552" lon="2.923">
        <ele>1097.4</ele>
        <time>2021-08-25T13:42:43Z</time>
      </trkpt>
      <trkpt lat="45.45554" lon="2.92295">
        <ele>1097.1</ele>
        <time>2021-08-25T13:42:45Z</time>
      </trkpt>
      <trkpt lat="45.45556" lon="2.92289">
        <ele>1096.7</ele>
        <time>2021-08-25T13:42:47Z</time>
      </trkpt>
      <trkpt lat="45.45558" lon="2.92284">
        <ele>1096.3</ele>
        <time>2021-08-25T13:42:49Z</time>
      </trkpt>
      <trkpt lat="45.45561" lon="2.92279">
        <ele>1095.9</ele>
        <time>2021-08-25T13:42:51Z</time>
      </trkpt>
      <trkpt lat="45.45563" lon="2.92273">
        <ele>1095.4</ele>
        <time>2021-08-25T13:42:53Z</time>
      </trkpt>
      <trkpt lat="45.45566" lon="2.92268">
        <ele>1094.9</ele>
        <time>2021-08-25T13:42:55Z</time>
      </trkpt>
      <trkpt lat="45.45569" lon="2.92264">
        <ele>1094.4</ele>
        <time>2021-08-25T13:42:57Z</time>
      </trkpt>
      <trkpt lat="45.45571" lon="2.92259">
        <ele>1093.9</ele>
        <time>2021-08-25T13:42:59Z</time>
      </trkpt>
      <trkpt lat="45.45573" lon="2.92253">
        <ele>1093.3</ele>
        <time>2021-08-25T13:43:01Z</time>
      </trkpt>
      <trkpt lat="45.45576" lon="2.92249">
        <ele>1092.8</ele>
        <time>2021-08-25T13:43:03Z</time>
      </trkpt>
      <trkpt lat="45.45579" lon="2.92243">
        <ele>1092.5</ele>
        <time>2021-08-25T13:43:05Z</time>
      </trkpt>
      <trkpt lat="45.45581" lon="2.92238">
        <ele>1092.2</ele>
        <time>2021-08-25T13:43:07Z</time>
      </trkpt>
      <trkpt lat="45.45584" lon="2.92233">
        <ele>1092.1</ele>
        <time>2021-08-25T13:43:09Z</time>
      </trkpt>
      <trkpt lat="45.45586" lon="2.92228">
        <ele>1092.6</ele>
        <time>2021-08-25T13:43:11Z</time>
      </trkpt>
      <trkpt lat="45.45589" lon="2.92223">
        <ele>1093.2</ele>
        <time>2021-08-25T13:43:13Z</time>
      </trkpt>
      <trkpt lat="45.45592" lon="2.92218">
        <ele>1093.7</ele>
        <time>2021-08-25T13:43:15Z</time>
      </trkpt>
      <trkpt lat="45.45594" lon="2.92213">
        <ele>1094.1</ele>
        <time>2021-08-25T13:43:17Z</time>
      </trkpt>
      <trkpt lat="45.45596" lon="2.92208">
        <ele>1094.5</ele>
        <time>2021-08-25T13:43:19Z</time>
      </trkpt>
      <trkpt lat="45.45599" lon="2.92204">
        <ele>1094.9</ele>
        <time>2021-08-25T13:43:21Z</time>
      </trkpt>
      <trkpt lat="45.45601" lon="2.92198">
        <ele>1095.3</ele>
        <time>2021-08-25T13:43:23Z</time>
      </trkpt>
      <trkpt lat="45.45604" lon="2.92194">
        <ele>1095.7</ele>
        <time>2021-08-25T13:43:25Z</time>
      </trkpt>
      <trkpt lat="45.45606" lon="2.92189">
        <ele>1096</ele>
        <time>2021-08-25T13:43:27Z</time>
      </trkpt>
      <trkpt lat="45.45609" lon="2.92185">
        <ele>1096.5</ele>
        <time>2021-08-25T13:43:29Z</time>
      </trkpt>
      <trkpt lat="45.45612" lon="2.9218">
        <ele>1096.8</ele>
        <time>2021-08-25T13:43:31Z</time>
      </trkpt>
      <trkpt lat="45.45615" lon="2.92176">
        <ele>1097.1</ele>
        <time>2021-08-25T13:43:33Z</time>
      </trkpt>
      <trkpt lat="45.45618" lon="2.92172">
        <ele>1097.5</ele>
        <time>2021-08-25T13:43:35Z</time>
      </trkpt>
      <trkpt lat="45.45621" lon="2.92169">
        <ele>1098</ele>
        <time>2021-08-25T13:43:37Z</time>
      </trkpt>
      <trkpt lat="45.45624" lon="2.92165">
        <ele>1098.3</ele>
        <time>2021-08-25T13:43:39Z</time>
      </trkpt>
      <trkpt lat="45.45627" lon="2.92163">
        <ele>1098.7</ele>
        <time>2021-08-25T13:43:41Z</time>
      </trkpt>
      <trkpt lat="45.45629" lon="2.92161">
        <ele>1099.1</ele>
        <time>2021-08-25T13:43:43Z</time>
      </trkpt>
      <trkpt lat="45.45632" lon="2.92159">
        <ele>1099.4</ele>
        <time>2021-08-25T13:43:45Z</time>
      </trkpt>
      <trkpt lat="45.45634" lon="2.92156">
        <ele>1099.6</ele>
        <time>2021-08-25T13:43:47Z</time>
      </trkpt>
      <trkpt lat="45.45637" lon="2.92154">
        <ele>1100</ele>
        <time>2021-08-25T13:43:49Z</time>
      </trkpt>
      <trkpt lat="45.4564" lon="2.92152">
        <ele>1100.4</ele>
        <time>2021-08-25T13:43:51Z</time>
      </trkpt>
      <trkpt lat="45.45641" lon="2.92149">
        <ele>1100.5</ele>
        <time>2021-08-25T13:43:53Z</time>
      </trkpt>
      <trkpt lat="45.45641" lon="2.9215">
        <ele>1100.5</ele>
        <time>2021-08-25T13:43:55Z</time>
      </trkpt>
      <trkpt lat="45.45641" lon="2.9215">
        <ele>1100.5</ele>
        <time>2021-08-25T13:43:57Z</time>
      </trkpt>
      <trkpt lat="45.45641" lon="2.9215">
        <ele>1100.5</ele>
        <time>2021-08-25T13:43:59Z</time>
      </trkpt>
      <trkpt lat="45.45641" lon="2.92149">
        <ele>1100.5</ele>
        <time>2021-08-25T13:44:01Z</time>
      </trkpt>
      <trkpt lat="45.45643" lon="2.92146">
        <ele>1100.6</ele>
        <time>2021-08-25T13:44:03Z</time>
      </trkpt>
      <trkpt lat="45.45644" lon="2.92143">
        <ele>1100.8</ele>
        <time>2021-08-25T13:44:05Z</time>
      </trkpt>
      <trkpt lat="45.45648" lon="2.92139">
        <ele>1101.1</ele>
        <time>2021-08-25T13:44:07Z</time>
      </trkpt>
      <trkpt lat="45.4565" lon="2.92136">
        <ele>1101.3</ele>
        <time>2021-08-25T13:44:09Z</time>
      </trkpt>
      <trkpt lat="45.45653" lon="2.92132">
        <ele>1101.5</ele>
        <time>2021-08-25T13:44:11Z</time>
      </trkpt>
      <trkpt lat="45.45655" lon="2.92126">
        <ele>1101.6</ele>
        <time>2021-08-25T13:44:13Z</time>
      </trkpt>
      <trkpt lat="45.45658" lon="2.92121">
        <ele>1101.7</ele>
        <time>2021-08-25T13:44:15Z</time>
      </trkpt>
      <trkpt lat="45.45661" lon="2.92116">
        <ele>1101.9</ele>
        <time>2021-08-25T13:44:17Z</time>
      </trkpt>
      <trkpt lat="45.45663" lon="2.92111">
        <ele>1101.9</ele>
        <time>2021-08-25T13:44:19Z</time>
      </trkpt>
      <trkpt lat="45.45666" lon="2.92107">
        <ele>1102</ele>
        <time>2021-08-25T13:44:21Z</time>
      </trkpt>
      <trkpt lat="45.45668" lon="2.92101">
        <ele>1102.2</ele>
        <time>2021-08-25T13:44:23Z</time>
      </trkpt>
      <trkpt lat="45.4567" lon="2.92096">
        <ele>1102.5</ele>
        <time>2021-08-25T13:44:25Z</time>
      </trkpt>
      <trkpt lat="45.45673" lon="2.92092">
        <ele>1102.9</ele>
        <time>2021-08-25T13:44:27Z</time>
      </trkpt>
      <trkpt lat="45.45675" lon="2.92087">
        <ele>1103</ele>
        <time>2021-08-25T13:44:29Z</time>
      </trkpt>
      <trkpt lat="45.45675" lon="2.92082">
        <ele>1102.9</ele>
        <time>2021-08-25T13:44:31Z</time>
      </trkpt>
      <trkpt lat="45.45676" lon="2.92076">
        <ele>1102.8</ele>
        <time>2021-08-25T13:44:33Z</time>
      </trkpt>
      <trkpt lat="45.45678" lon="2.92071">
        <ele>1102.9</ele>
        <time>2021-08-25T13:44:35Z</time>
      </trkpt>
      <trkpt lat="45.4568" lon="2.92066">
        <ele>1103.1</ele>
        <time>2021-08-25T13:44:37Z</time>
      </trkpt>
      <trkpt lat="45.45681" lon="2.92063">
        <ele>1103.2</ele>
        <time>2021-08-25T13:44:39Z</time>
      </trkpt>
      <trkpt lat="45.45681" lon="2.92064">
        <ele>1103.2</ele>
        <time>2021-08-25T13:44:41Z</time>
      </trkpt>
      <trkpt lat="45.45681" lon="2.92064">
        <ele>1103.3</ele>
        <time>2021-08-25T13:44:43Z</time>
      </trkpt>
      <trkpt lat="45.45681" lon="2.92064">
        <ele>1103.3</ele>
        <time>2021-08-25T13:44:45Z</time>
      </trkpt>
      <trkpt lat="45.45681" lon="2.92065">
        <ele>1103.2</ele>
        <time>2021-08-25T13:44:47Z</time>
      </trkpt>
      <trkpt lat="45.45697" lon="2.92047">
        <ele>1105.5</ele>
        <time>2021-08-25T13:56:45Z</time>
      </trkpt>
      <trkpt lat="45.45699" lon="2.92044">
        <ele>1105.7</ele>
        <time>2021-08-25T13:56:47Z</time>
      </trkpt>
      <trkpt lat="45.45701" lon="2.92039">
        <ele>1105.8</ele>
        <time>2021-08-25T13:56:49Z</time>
      </trkpt>
      <trkpt lat="45.45703" lon="2.92036">
        <ele>1105.9</ele>
        <time>2021-08-25T13:56:51Z</time>
      </trkpt>
      <trkpt lat="45.45705" lon="2.92031">
        <ele>1106.1</ele>
        <time>2021-08-25T13:56:53Z</time>
      </trkpt>
      <trkpt lat="45.45707" lon="2.92027">
        <ele>1106.1</ele>
        <time>2021-08-25T13:56:55Z</time>
      </trkpt>
      <trkpt lat="45.45708" lon="2.92021">
        <ele>1105.9</ele>
        <time>2021-08-25T13:56:57Z</time>
      </trkpt>
      <trkpt lat="45.45711" lon="2.92017">
        <ele>1106.2</ele>
        <time>2021-08-25T13:56:59Z</time>
      </trkpt>
      <trkpt lat="45.45714" lon="2.92012">
        <ele>1106.4</ele>
        <time>2021-08-25T13:57:01Z</time>
      </trkpt>
      <trkpt lat="45.45716" lon="2.92007">
        <ele>1106.5</ele>
        <time>2021-08-25T13:57:03Z</time>
      </trkpt>
      <trkpt lat="45.45719" lon="2.92003">
        <ele>1106.7</ele>
        <time>2021-08-25T13:57:05Z</time>
      </trkpt>
      <trkpt lat="45.45721" lon="2.91999">
        <ele>1106.8</ele>
        <time>2021-08-25T13:57:07Z</time>
      </trkpt>
      <trkpt lat="45.45724" lon="2.91993">
        <ele>1106.9</ele>
        <time>2021-08-25T13:57:09Z</time>
      </trkpt>
      <trkpt lat="45.45726" lon="2.91988">
        <ele>1107.1</ele>
        <time>2021-08-25T13:57:11Z</time>
      </trkpt>
      <trkpt lat="45.45728" lon="2.91984">
        <ele>1107.2</ele>
        <time>2021-08-25T13:57:13Z</time>
      </trkpt>
      <trkpt lat="45.4573" lon="2.91979">
        <ele>1107.3</ele>
        <time>2021-08-25T13:57:15Z</time>
      </trkpt>
      <trkpt lat="45.45732" lon="2.91974">
        <ele>1107.4</ele>
        <time>2021-08-25T13:57:17Z</time>
      </trkpt>
      <trkpt lat="45.45735" lon="2.9197">
        <ele>1107.6</ele>
        <time>2021-08-25T13:57:19Z</time>
      </trkpt>
      <trkpt lat="45.45737" lon="2.91966">
        <ele>1107.6</ele>
        <time>2021-08-25T13:57:21Z</time>
      </trkpt>
      <trkpt lat="45.45739" lon="2.91962">
        <ele>1107.7</ele>
        <time>2021-08-25T13:57:23Z</time>
      </trkpt>
      <trkpt lat="45.45742" lon="2.91958">
        <ele>1107.9</ele>
        <time>2021-08-25T13:57:25Z</time>
      </trkpt>
      <trkpt lat="45.45745" lon="2.91954">
        <ele>1108</ele>
        <time>2021-08-25T13:57:27Z</time>
      </trkpt>
      <trkpt lat="45.45747" lon="2.9195">
        <ele>1108</ele>
        <time>2021-08-25T13:57:29Z</time>
      </trkpt>
      <trkpt lat="45.4575" lon="2.91947">
        <ele>1108.2</ele>
        <time>2021-08-25T13:57:31Z</time>
      </trkpt>
      <trkpt lat="45.45753" lon="2.91943">
        <ele>1108.3</ele>
        <time>2021-08-25T13:57:33Z</time>
      </trkpt>
      <trkpt lat="45.45755" lon="2.9194">
        <ele>1108.4</ele>
        <time>2021-08-25T13:57:35Z</time>
      </trkpt>
      <trkpt lat="45.45758" lon="2.91937">
        <ele>1108.7</ele>
        <time>2021-08-25T13:57:37Z</time>
      </trkpt>
      <trkpt lat="45.45761" lon="2.91934">
        <ele>1108.9</ele>
        <time>2021-08-25T13:57:39Z</time>
      </trkpt>
      <trkpt lat="45.45764" lon="2.91931">
        <ele>1109</ele>
        <time>2021-08-25T13:57:41Z</time>
      </trkpt>
      <trkpt lat="45.45767" lon="2.91929">
        <ele>1109.4</ele>
        <time>2021-08-25T13:57:43Z</time>
      </trkpt>
      <trkpt lat="45.4577" lon="2.91926">
        <ele>1109.5</ele>
        <time>2021-08-25T13:57:45Z</time>
      </trkpt>
      <trkpt lat="45.45773" lon="2.91925">
        <ele>1109.9</ele>
        <time>2021-08-25T13:57:47Z</time>
      </trkpt>
      <trkpt lat="45.45777" lon="2.91922">
        <ele>1110.2</ele>
        <time>2021-08-25T13:57:49Z</time>
      </trkpt>
      <trkpt lat="45.4578" lon="2.91919">
        <ele>1110.6</ele>
        <time>2021-08-25T13:57:51Z</time>
      </trkpt>
      <trkpt lat="45.45784" lon="2.91918">
        <ele>1110.9</ele>
        <time>2021-08-25T13:57:53Z</time>
      </trkpt>
      <trkpt lat="45.45788" lon="2.91916">
        <ele>1111.5</ele>
        <time>2021-08-25T13:57:55Z</time>
      </trkpt>
      <trkpt lat="45.45791" lon="2.91914">
        <ele>1111.9</ele>
        <time>2021-08-25T13:57:57Z</time>
      </trkpt>
      <trkpt lat="45.45795" lon="2.91914">
        <ele>1112.5</ele>
        <time>2021-08-25T13:57:59Z</time>
      </trkpt>
      <trkpt lat="45.45798" lon="2.91911">
        <ele>1112.9</ele>
        <time>2021-08-25T13:58:01Z</time>
      </trkpt>
      <trkpt lat="45.45802" lon="2.9191">
        <ele>1113.4</ele>
        <time>2021-08-25T13:58:03Z</time>
      </trkpt>
      <trkpt lat="45.45806" lon="2.91909">
        <ele>1113.9</ele>
        <time>2021-08-25T13:58:05Z</time>
      </trkpt>
      <trkpt lat="45.45809" lon="2.91908">
        <ele>1114.4</ele>
        <time>2021-08-25T13:58:07Z</time>
      </trkpt>
      <trkpt lat="45.45813" lon="2.91906">
        <ele>1114.9</ele>
        <time>2021-08-25T13:58:09Z</time>
      </trkpt>
      <trkpt lat="45.45817" lon="2.91905">
        <ele>1115.4</ele>
        <time>2021-08-25T13:58:11Z</time>
      </trkpt>
      <trkpt lat="45.45821" lon="2.91904">
        <ele>1116</ele>
        <time>2021-08-25T13:58:13Z</time>
      </trkpt>
      <trkpt lat="45.45825" lon="2.91903">
        <ele>1116.5</ele>
        <time>2021-08-25T13:58:15Z</time>
      </trkpt>
      <trkpt lat="45.45829" lon="2.91901">
        <ele>1117</ele>
        <time>2021-08-25T13:58:17Z</time>
      </trkpt>
      <trkpt lat="45.45832" lon="2.919">
        <ele>1117.5</ele>
        <time>2021-08-25T13:58:19Z</time>
      </trkpt>
      <trkpt lat="45.45836" lon="2.91898">
        <ele>1117.7</ele>
        <time>2021-08-25T13:58:21Z</time>
      </trkpt>
      <trkpt lat="45.4584" lon="2.91897">
        <ele>1117.9</ele>
        <time>2021-08-25T13:58:23Z</time>
      </trkpt>
      <trkpt lat="45.45844" lon="2.91896">
        <ele>1118.1</ele>
        <time>2021-08-25T13:58:25Z</time>
      </trkpt>
      <trkpt lat="45.45847" lon="2.91894">
        <ele>1118.3</ele>
        <time>2021-08-25T13:58:27Z</time>
      </trkpt>
      <trkpt lat="45.45851" lon="2.91893">
        <ele>1118.5</ele>
        <time>2021-08-25T13:58:29Z</time>
      </trkpt>
      <trkpt lat="45.45855" lon="2.91891">
        <ele>1118.7</ele>
        <time>2021-08-25T13:58:31Z</time>
      </trkpt>
      <trkpt lat="45.45859" lon="2.91889">
        <ele>1118.9</ele>
        <time>2021-08-25T13:58:33Z</time>
      </trkpt>
      <trkpt lat="45.45863" lon="2.91889">
        <ele>1119.1</ele>
        <time>2021-08-25T13:58:35Z</time>
      </trkpt>
      <trkpt lat="45.45867" lon="2.91887">
        <ele>1119.3</ele>
        <time>2021-08-25T13:58:37Z</time>
      </trkpt>
      <trkpt lat="45.4587" lon="2.91885">
        <ele>1119.5</ele>
        <time>2021-08-25T13:58:39Z</time>
      </trkpt>
      <trkpt lat="45.45874" lon="2.91883">
        <ele>1119.6</ele>
        <time>2021-08-25T13:58:41Z</time>
      </trkpt>
      <trkpt lat="45.45878" lon="2.91882">
        <ele>1119.8</ele>
        <time>2021-08-25T13:58:43Z</time>
      </trkpt>
      <trkpt lat="45.45882" lon="2.91879">
        <ele>1120</ele>
        <time>2021-08-25T13:58:45Z</time>
      </trkpt>
      <trkpt lat="45.45885" lon="2.91876">
        <ele>1120.1</ele>
        <time>2021-08-25T13:58:47Z</time>
      </trkpt>
      <trkpt lat="45.45888" lon="2.91874">
        <ele>1120.2</ele>
        <time>2021-08-25T13:58:49Z</time>
      </trkpt>
      <trkpt lat="45.45891" lon="2.91871">
        <ele>1120.4</ele>
        <time>2021-08-25T13:58:51Z</time>
      </trkpt>
      <trkpt lat="45.45895" lon="2.91868">
        <ele>1120.5</ele>
        <time>2021-08-25T13:58:53Z</time>
      </trkpt>
      <trkpt lat="45.45898" lon="2.91864">
        <ele>1120.6</ele>
        <time>2021-08-25T13:58:55Z</time>
      </trkpt>
      <trkpt lat="45.459" lon="2.9186">
        <ele>1120.7</ele>
        <time>2021-08-25T13:58:57Z</time>
      </trkpt>
      <trkpt lat="45.45904" lon="2.91857">
        <ele>1120.8</ele>
        <time>2021-08-25T13:58:59Z</time>
      </trkpt>
      <trkpt lat="45.45906" lon="2.91853">
        <ele>1120.8</ele>
        <time>2021-08-25T13:59:01Z</time>
      </trkpt>
      <trkpt lat="45.45909" lon="2.91848">
        <ele>1120.9</ele>
        <time>2021-08-25T13:59:03Z</time>
      </trkpt>
      <trkpt lat="45.45912" lon="2.91844">
        <ele>1121</ele>
        <time>2021-08-25T13:59:05Z</time>
      </trkpt>
      <trkpt lat="45.45914" lon="2.9184">
        <ele>1121</ele>
        <time>2021-08-25T13:59:07Z</time>
      </trkpt>
      <trkpt lat="45.45917" lon="2.91836">
        <ele>1121.1</ele>
        <time>2021-08-25T13:59:09Z</time>
      </trkpt>
      <trkpt lat="45.45921" lon="2.91832">
        <ele>1121.2</ele>
        <time>2021-08-25T13:59:11Z</time>
      </trkpt>
      <trkpt lat="45.45924" lon="2.91829">
        <ele>1121.3</ele>
        <time>2021-08-25T13:59:13Z</time>
      </trkpt>
      <trkpt lat="45.45927" lon="2.91825">
        <ele>1121.4</ele>
        <time>2021-08-25T13:59:15Z</time>
      </trkpt>
      <trkpt lat="45.4593" lon="2.91822">
        <ele>1121.5</ele>
        <time>2021-08-25T13:59:17Z</time>
      </trkpt>
      <trkpt lat="45.45933" lon="2.91819">
        <ele>1121.7</ele>
        <time>2021-08-25T13:59:19Z</time>
      </trkpt>
      <trkpt lat="45.45936" lon="2.91816">
        <ele>1121.8</ele>
        <time>2021-08-25T13:59:21Z</time>
      </trkpt>
      <trkpt lat="45.4594" lon="2.91814">
        <ele>1122</ele>
        <time>2021-08-25T13:59:23Z</time>
      </trkpt>
      <trkpt lat="45.45943" lon="2.91812">
        <ele>1122.2</ele>
        <time>2021-08-25T13:59:25Z</time>
      </trkpt>
      <trkpt lat="45.45947" lon="2.91809">
        <ele>1122.3</ele>
        <time>2021-08-25T13:59:27Z</time>
      </trkpt>
      <trkpt lat="45.45951" lon="2.91808">
        <ele>1122.5</ele>
        <time>2021-08-25T13:59:29Z</time>
      </trkpt>
      <trkpt lat="45.45955" lon="2.91807">
        <ele>1122.8</ele>
        <time>2021-08-25T13:59:31Z</time>
      </trkpt>
      <trkpt lat="45.45958" lon="2.91806">
        <ele>1123</ele>
        <time>2021-08-25T13:59:33Z</time>
      </trkpt>
      <trkpt lat="45.45962" lon="2.91805">
        <ele>1123.2</ele>
        <time>2021-08-25T13:59:35Z</time>
      </trkpt>
      <trkpt lat="45.45966" lon="2.91804">
        <ele>1123.5</ele>
        <time>2021-08-25T13:59:37Z</time>
      </trkpt>
      <trkpt lat="45.4597" lon="2.91804">
        <ele>1123.7</ele>
        <time>2021-08-25T13:59:39Z</time>
      </trkpt>
      <trkpt lat="45.45974" lon="2.91803">
        <ele>1124</ele>
        <time>2021-08-25T13:59:41Z</time>
      </trkpt>
      <trkpt lat="45.45978" lon="2.91802">
        <ele>1124.3</ele>
        <time>2021-08-25T13:59:43Z</time>
      </trkpt>
      <trkpt lat="45.45981" lon="2.91801">
        <ele>1124.5</ele>
        <time>2021-08-25T13:59:45Z</time>
      </trkpt>
      <trkpt lat="45.45985" lon="2.91801">
        <ele>1124.8</ele>
        <time>2021-08-25T13:59:47Z</time>
      </trkpt>
      <trkpt lat="45.45989" lon="2.91799">
        <ele>1125</ele>
        <time>2021-08-25T13:59:49Z</time>
      </trkpt>
      <trkpt lat="45.45993" lon="2.91798">
        <ele>1125.2</ele>
        <time>2021-08-25T13:59:51Z</time>
      </trkpt>
      <trkpt lat="45.45997" lon="2.91797">
        <ele>1125.4</ele>
        <time>2021-08-25T13:59:53Z</time>
      </trkpt>
      <trkpt lat="45.46001" lon="2.91796">
        <ele>1125.7</ele>
        <time>2021-08-25T13:59:55Z</time>
      </trkpt>
      <trkpt lat="45.46005" lon="2.91795">
        <ele>1125.8</ele>
        <time>2021-08-25T13:59:57Z</time>
      </trkpt>
      <trkpt lat="45.46008" lon="2.91794">
        <ele>1125.9</ele>
        <time>2021-08-25T13:59:59Z</time>
      </trkpt>
      <trkpt lat="45.46012" lon="2.91793">
        <ele>1126.1</ele>
        <time>2021-08-25T14:00:01Z</time>
      </trkpt>
      <trkpt lat="45.46016" lon="2.91793">
        <ele>1126.2</ele>
        <time>2021-08-25T14:00:03Z</time>
      </trkpt>
      <trkpt lat="45.4602" lon="2.91792">
        <ele>1126.4</ele>
        <time>2021-08-25T14:00:05Z</time>
      </trkpt>
      <trkpt lat="45.46025" lon="2.91792">
        <ele>1126.6</ele>
        <time>2021-08-25T14:00:07Z</time>
      </trkpt>
      <trkpt lat="45.46029" lon="2.91793">
        <ele>1126.8</ele>
        <time>2021-08-25T14:00:09Z</time>
      </trkpt>
      <trkpt lat="45.46034" lon="2.91795">
        <ele>1127</ele>
        <time>2021-08-25T14:00:11Z</time>
      </trkpt>
      <trkpt lat="45.46038" lon="2.91797">
        <ele>1127.3</ele>
        <time>2021-08-25T14:00:13Z</time>
      </trkpt>
      <trkpt lat="45.46043" lon="2.91799">
        <ele>1127.6</ele>
        <time>2021-08-25T14:00:15Z</time>
      </trkpt>
      <trkpt lat="45.46047" lon="2.91801">
        <ele>1127.9</ele>
        <time>2021-08-25T14:00:17Z</time>
      </trkpt>
      <trkpt lat="45.46051" lon="2.91803">
        <ele>1128.1</ele>
        <time>2021-08-25T14:00:19Z</time>
      </trkpt>
      <trkpt lat="45.46056" lon="2.91805">
        <ele>1128.4</ele>
        <time>2021-08-25T14:00:21Z</time>
      </trkpt>
      <trkpt lat="45.46061" lon="2.91806">
        <ele>1128.7</ele>
        <time>2021-08-25T14:00:23Z</time>
      </trkpt>
      <trkpt lat="45.46065" lon="2.91807">
        <ele>1128.9</ele>
        <time>2021-08-25T14:00:25Z</time>
      </trkpt>
      <trkpt lat="45.4607" lon="2.91807">
        <ele>1129.2</ele>
        <time>2021-08-25T14:00:27Z</time>
      </trkpt>
      <trkpt lat="45.46075" lon="2.91807">
        <ele>1129.4</ele>
        <time>2021-08-25T14:00:29Z</time>
      </trkpt>
      <trkpt lat="45.4608" lon="2.91807">
        <ele>1129.6</ele>
        <time>2021-08-25T14:00:31Z</time>
      </trkpt>
      <trkpt lat="45.46084" lon="2.91807">
        <ele>1129.8</ele>
        <time>2021-08-25T14:00:33Z</time>
      </trkpt>
      <trkpt lat="45.46089" lon="2.91805">
        <ele>1130</ele>
        <time>2021-08-25T14:00:35Z</time>
      </trkpt>
      <trkpt lat="45.46093" lon="2.91804">
        <ele>1130.3</ele>
        <time>2021-08-25T14:00:37Z</time>
      </trkpt>
      <trkpt lat="45.46098" lon="2.91802">
        <ele>1130.5</ele>
        <time>2021-08-25T14:00:39Z</time>
      </trkpt>
      <trkpt lat="45.46102" lon="2.91799">
        <ele>1130.6</ele>
        <time>2021-08-25T14:00:41Z</time>
      </trkpt>
      <trkpt lat="45.46106" lon="2.91797">
        <ele>1130.8</ele>
        <time>2021-08-25T14:00:43Z</time>
      </trkpt>
      <trkpt lat="45.4611" lon="2.91795">
        <ele>1130.9</ele>
        <time>2021-08-25T14:00:45Z</time>
      </trkpt>
      <trkpt lat="45.46114" lon="2.91792">
        <ele>1131</ele>
        <time>2021-08-25T14:00:47Z</time>
      </trkpt>
      <trkpt lat="45.46118" lon="2.91789">
        <ele>1131.1</ele>
        <time>2021-08-25T14:00:49Z</time>
      </trkpt>
      <trkpt lat="45.46122" lon="2.91786">
        <ele>1131.2</ele>
        <time>2021-08-25T14:00:51Z</time>
      </trkpt>
      <trkpt lat="45.46125" lon="2.91782">
        <ele>1131.2</ele>
        <time>2021-08-25T14:00:53Z</time>
      </trkpt>
      <trkpt lat="45.46129" lon="2.91779">
        <ele>1131.3</ele>
        <time>2021-08-25T14:00:55Z</time>
      </trkpt>
      <trkpt lat="45.46133" lon="2.91775">
        <ele>1131.4</ele>
        <time>2021-08-25T14:00:57Z</time>
      </trkpt>
      <trkpt lat="45.46137" lon="2.91772">
        <ele>1131.4</ele>
        <time>2021-08-25T14:00:59Z</time>
      </trkpt>
      <trkpt lat="45.46141" lon="2.91769">
        <ele>1131.5</ele>
        <time>2021-08-25T14:01:01Z</time>
      </trkpt>
      <trkpt lat="45.46145" lon="2.91767">
        <ele>1131.7</ele>
        <time>2021-08-25T14:01:03Z</time>
      </trkpt>
      <trkpt lat="45.4615" lon="2.91765">
        <ele>1131.9</ele>
        <time>2021-08-25T14:01:05Z</time>
      </trkpt>
      <trkpt lat="45.46154" lon="2.91763">
        <ele>1132</ele>
        <time>2021-08-25T14:01:07Z</time>
      </trkpt>
      <trkpt lat="45.46158" lon="2.91763">
        <ele>1132.2</ele>
        <time>2021-08-25T14:01:09Z</time>
      </trkpt>
      <trkpt lat="45.46163" lon="2.91763">
        <ele>1132.5</ele>
        <time>2021-08-25T14:01:11Z</time>
      </trkpt>
      <trkpt lat="45.46167" lon="2.91764">
        <ele>1132.8</ele>
        <time>2021-08-25T14:01:13Z</time>
      </trkpt>
      <trkpt lat="45.46172" lon="2.91765">
        <ele>1133.1</ele>
        <time>2021-08-25T14:01:15Z</time>
      </trkpt>
      <trkpt lat="45.46176" lon="2.91767">
        <ele>1133.3</ele>
        <time>2021-08-25T14:01:17Z</time>
      </trkpt>
      <trkpt lat="45.46181" lon="2.91769">
        <ele>1133.5</ele>
        <time>2021-08-25T14:01:19Z</time>
      </trkpt>
      <trkpt lat="45.46185" lon="2.91772">
        <ele>1133.7</ele>
        <time>2021-08-25T14:01:21Z</time>
      </trkpt>
      <trkpt lat="45.46189" lon="2.91774">
        <ele>1134</ele>
        <time>2021-08-25T14:01:23Z</time>
      </trkpt>
      <trkpt lat="45.46193" lon="2.91776">
        <ele>1134.2</ele>
        <time>2021-08-25T14:01:25Z</time>
      </trkpt>
      <trkpt lat="45.46197" lon="2.91779">
        <ele>1134.5</ele>
        <time>2021-08-25T14:01:27Z</time>
      </trkpt>
      <trkpt lat="45.46201" lon="2.91782">
        <ele>1134.7</ele>
        <time>2021-08-25T14:01:29Z</time>
      </trkpt>
      <trkpt lat="45.46206" lon="2.91784">
        <ele>1135</ele>
        <time>2021-08-25T14:01:31Z</time>
      </trkpt>
      <trkpt lat="45.46211" lon="2.91786">
        <ele>1135.2</ele>
        <time>2021-08-25T14:01:33Z</time>
      </trkpt>
      <trkpt lat="45.46215" lon="2.91788">
        <ele>1135.4</ele>
        <time>2021-08-25T14:01:35Z</time>
      </trkpt>
      <trkpt lat="45.4622" lon="2.9179">
        <ele>1135.7</ele>
        <time>2021-08-25T14:01:37Z</time>
      </trkpt>
      <trkpt lat="45.46224" lon="2.91791">
        <ele>1135.9</ele>
        <time>2021-08-25T14:01:39Z</time>
      </trkpt>
      <trkpt lat="45.46229" lon="2.91792">
        <ele>1136</ele>
        <time>2021-08-25T14:01:41Z</time>
      </trkpt>
      <trkpt lat="45.46233" lon="2.91793">
        <ele>1136.2</ele>
        <time>2021-08-25T14:01:43Z</time>
      </trkpt>
      <trkpt lat="45.46237" lon="2.91792">
        <ele>1136.2</ele>
        <time>2021-08-25T14:01:45Z</time>
      </trkpt>
      <trkpt lat="45.46242" lon="2.91791">
        <ele>1136.3</ele>
        <time>2021-08-25T14:01:47Z</time>
      </trkpt>
      <trkpt lat="45.46246" lon="2.91789">
        <ele>1136.3</ele>
        <time>2021-08-25T14:01:49Z</time>
      </trkpt>
      <trkpt lat="45.46251" lon="2.91788">
        <ele>1136.3</ele>
        <time>2021-08-25T14:01:51Z</time>
      </trkpt>
      <trkpt lat="45.46255" lon="2.91785">
        <ele>1136.7</ele>
        <time>2021-08-25T14:01:53Z</time>
      </trkpt>
      <trkpt lat="45.46258" lon="2.91782">
        <ele>1136.9</ele>
        <time>2021-08-25T14:01:55Z</time>
      </trkpt>
      <trkpt lat="45.46262" lon="2.91779">
        <ele>1137.2</ele>
        <time>2021-08-25T14:01:57Z</time>
      </trkpt>
      <trkpt lat="45.46266" lon="2.91775">
        <ele>1137.5</ele>
        <time>2021-08-25T14:01:59Z</time>
      </trkpt>
      <trkpt lat="45.4627" lon="2.91772">
        <ele>1137.8</ele>
        <time>2021-08-25T14:02:01Z</time>
      </trkpt>
      <trkpt lat="45.46274" lon="2.91768">
        <ele>1138.1</ele>
        <time>2021-08-25T14:02:03Z</time>
      </trkpt>
      <trkpt lat="45.46278" lon="2.91765">
        <ele>1138.4</ele>
        <time>2021-08-25T14:02:05Z</time>
      </trkpt>
      <trkpt lat="45.46282" lon="2.91761">
        <ele>1138.6</ele>
        <time>2021-08-25T14:02:07Z</time>
      </trkpt>
      <trkpt lat="45.46285" lon="2.91757">
        <ele>1138.7</ele>
        <time>2021-08-25T14:02:09Z</time>
      </trkpt>
      <trkpt lat="45.46289" lon="2.91756">
        <ele>1139.1</ele>
        <time>2021-08-25T14:02:11Z</time>
      </trkpt>
      <trkpt lat="45.46293" lon="2.91752">
        <ele>1139.3</ele>
        <time>2021-08-25T14:02:13Z</time>
      </trkpt>
      <trkpt lat="45.46297" lon="2.91749">
        <ele>1139.6</ele>
        <time>2021-08-25T14:02:15Z</time>
      </trkpt>
      <trkpt lat="45.463" lon="2.91746">
        <ele>1139.9</ele>
        <time>2021-08-25T14:02:17Z</time>
      </trkpt>
      <trkpt lat="45.46303" lon="2.91743">
        <ele>1140.2</ele>
        <time>2021-08-25T14:02:19Z</time>
      </trkpt>
      <trkpt lat="45.46306" lon="2.91739">
        <ele>1140.4</ele>
        <time>2021-08-25T14:02:21Z</time>
      </trkpt>
      <trkpt lat="45.46309" lon="2.91736">
        <ele>1140.6</ele>
        <time>2021-08-25T14:02:23Z</time>
      </trkpt>
      <trkpt lat="45.46313" lon="2.91733">
        <ele>1140.9</ele>
        <time>2021-08-25T14:02:25Z</time>
      </trkpt>
      <trkpt lat="45.46316" lon="2.91728">
        <ele>1141</ele>
        <time>2021-08-25T14:02:27Z</time>
      </trkpt>
      <trkpt lat="45.46319" lon="2.91723">
        <ele>1141.1</ele>
        <time>2021-08-25T14:02:29Z</time>
      </trkpt>
      <trkpt lat="45.46322" lon="2.91719">
        <ele>1141.3</ele>
        <time>2021-08-25T14:02:31Z</time>
      </trkpt>
      <trkpt lat="45.46326" lon="2.91714">
        <ele>1141.5</ele>
        <time>2021-08-25T14:02:33Z</time>
      </trkpt>
      <trkpt lat="45.46329" lon="2.91709">
        <ele>1141.6</ele>
        <time>2021-08-25T14:02:35Z</time>
      </trkpt>
      <trkpt lat="45.46333" lon="2.91705">
        <ele>1141.7</ele>
        <time>2021-08-25T14:02:37Z</time>
      </trkpt>
      <trkpt lat="45.46336" lon="2.91701">
        <ele>1142</ele>
        <time>2021-08-25T14:02:39Z</time>
      </trkpt>
      <trkpt lat="45.46341" lon="2.91697">
        <ele>1142.4</ele>
        <time>2021-08-25T14:02:41Z</time>
      </trkpt>
      <trkpt lat="45.46345" lon="2.91694">
        <ele>1142.7</ele>
        <time>2021-08-25T14:02:43Z</time>
      </trkpt>
      <trkpt lat="45.46349" lon="2.91691">
        <ele>1143</ele>
        <time>2021-08-25T14:02:45Z</time>
      </trkpt>
      <trkpt lat="45.46353" lon="2.9169">
        <ele>1143.5</ele>
        <time>2021-08-25T14:02:47Z</time>
      </trkpt>
      <trkpt lat="45.46357" lon="2.91688">
        <ele>1143.9</ele>
        <time>2021-08-25T14:02:49Z</time>
      </trkpt>
      <trkpt lat="45.46361" lon="2.91686">
        <ele>1144.3</ele>
        <time>2021-08-25T14:02:51Z</time>
      </trkpt>
      <trkpt lat="45.46366" lon="2.91685">
        <ele>1144.7</ele>
        <time>2021-08-25T14:02:53Z</time>
      </trkpt>
      <trkpt lat="45.4637" lon="2.91683">
        <ele>1145.1</ele>
        <time>2021-08-25T14:02:55Z</time>
      </trkpt>
      <trkpt lat="45.46374" lon="2.91681">
        <ele>1145.4</ele>
        <time>2021-08-25T14:02:57Z</time>
      </trkpt>
      <trkpt lat="45.46378" lon="2.91679">
        <ele>1145.7</ele>
        <time>2021-08-25T14:02:59Z</time>
      </trkpt>
      <trkpt lat="45.46381" lon="2.91675">
        <ele>1145.8</ele>
        <time>2021-08-25T14:03:01Z</time>
      </trkpt>
      <trkpt lat="45.46385" lon="2.91672">
        <ele>1145.9</ele>
        <time>2021-08-25T14:03:03Z</time>
      </trkpt>
      <trkpt lat="45.46388" lon="2.91669">
        <ele>1146</ele>
        <time>2021-08-25T14:03:05Z</time>
      </trkpt>
      <trkpt lat="45.46391" lon="2.91665">
        <ele>1146.1</ele>
        <time>2021-08-25T14:03:07Z</time>
      </trkpt>
      <trkpt lat="45.46394" lon="2.91661">
        <ele>1146.2</ele>
        <time>2021-08-25T14:03:09Z</time>
      </trkpt>
      <trkpt lat="45.46397" lon="2.91658">
        <ele>1146.3</ele>
        <time>2021-08-25T14:03:11Z</time>
      </trkpt>
      <trkpt lat="45.464" lon="2.91654">
        <ele>1146.2</ele>
        <time>2021-08-25T14:03:13Z</time>
      </trkpt>
      <trkpt lat="45.46403" lon="2.9165">
        <ele>1146.3</ele>
        <time>2021-08-25T14:03:15Z</time>
      </trkpt>
      <trkpt lat="45.46407" lon="2.91647">
        <ele>1146.4</ele>
        <time>2021-08-25T14:03:17Z</time>
      </trkpt>
      <trkpt lat="45.46411" lon="2.91644">
        <ele>1146.5</ele>
        <time>2021-08-25T14:03:19Z</time>
      </trkpt>
      <trkpt lat="45.46414" lon="2.91642">
        <ele>1146.7</ele>
        <time>2021-08-25T14:03:21Z</time>
      </trkpt>
      <trkpt lat="45.46418" lon="2.9164">
        <ele>1146.9</ele>
        <time>2021-08-25T14:03:23Z</time>
      </trkpt>
      <trkpt lat="45.46422" lon="2.91638">
        <ele>1147.2</ele>
        <time>2021-08-25T14:03:25Z</time>
      </trkpt>
      <trkpt lat="45.46426" lon="2.91637">
        <ele>1147.5</ele>
        <time>2021-08-25T14:03:27Z</time>
      </trkpt>
      <trkpt lat="45.4643" lon="2.91636">
        <ele>1147.9</ele>
        <time>2021-08-25T14:03:29Z</time>
      </trkpt>
      <trkpt lat="45.46434" lon="2.91636">
        <ele>1148.4</ele>
        <time>2021-08-25T14:03:31Z</time>
      </trkpt>
      <trkpt lat="45.46438" lon="2.91637">
        <ele>1148.8</ele>
        <time>2021-08-25T14:03:33Z</time>
      </trkpt>
      <trkpt lat="45.46443" lon="2.91638">
        <ele>1149.5</ele>
        <time>2021-08-25T14:03:35Z</time>
      </trkpt>
      <trkpt lat="45.46447" lon="2.91639">
        <ele>1150.1</ele>
        <time>2021-08-25T14:03:37Z</time>
      </trkpt>
      <trkpt lat="45.46451" lon="2.9164">
        <ele>1150.6</ele>
        <time>2021-08-25T14:03:39Z</time>
      </trkpt>
      <trkpt lat="45.46455" lon="2.91641">
        <ele>1151.2</ele>
        <time>2021-08-25T14:03:41Z</time>
      </trkpt>
      <trkpt lat="45.46459" lon="2.91642">
        <ele>1151.8</ele>
        <time>2021-08-25T14:03:43Z</time>
      </trkpt>
      <trkpt lat="45.46464" lon="2.91644">
        <ele>1152.4</ele>
        <time>2021-08-25T14:03:45Z</time>
      </trkpt>
      <trkpt lat="45.46468" lon="2.91647">
        <ele>1153.2</ele>
        <time>2021-08-25T14:03:47Z</time>
      </trkpt>
      <trkpt lat="45.46472" lon="2.91648">
        <ele>1153.8</ele>
        <time>2021-08-25T14:03:49Z</time>
      </trkpt>
      <trkpt lat="45.46476" lon="2.91649">
        <ele>1154.4</ele>
        <time>2021-08-25T14:03:51Z</time>
      </trkpt>
      <trkpt lat="45.4648" lon="2.9165">
        <ele>1154.9</ele>
        <time>2021-08-25T14:03:53Z</time>
      </trkpt>
      <trkpt lat="45.46485" lon="2.91651">
        <ele>1155.6</ele>
        <time>2021-08-25T14:03:55Z</time>
      </trkpt>
      <trkpt lat="45.4649" lon="2.91651">
        <ele>1156.1</ele>
        <time>2021-08-25T14:03:57Z</time>
      </trkpt>
      <trkpt lat="45.46494" lon="2.91651">
        <ele>1156.7</ele>
        <time>2021-08-25T14:03:59Z</time>
      </trkpt>
      <trkpt lat="45.46499" lon="2.91651">
        <ele>1157.2</ele>
        <time>2021-08-25T14:04:01Z</time>
      </trkpt>
      <trkpt lat="45.46503" lon="2.91649">
        <ele>1157.4</ele>
        <time>2021-08-25T14:04:03Z</time>
      </trkpt>
      <trkpt lat="45.46507" lon="2.91647">
        <ele>1157.6</ele>
        <time>2021-08-25T14:04:05Z</time>
      </trkpt>
      <trkpt lat="45.46512" lon="2.91645">
        <ele>1157.8</ele>
        <time>2021-08-25T14:04:07Z</time>
      </trkpt>
      <trkpt lat="45.46516" lon="2.91642">
        <ele>1157.9</ele>
        <time>2021-08-25T14:04:09Z</time>
      </trkpt>
      <trkpt lat="45.46519" lon="2.91638">
        <ele>1157.9</ele>
        <time>2021-08-25T14:04:11Z</time>
      </trkpt>
      <trkpt lat="45.46523" lon="2.91634">
        <ele>1157.8</ele>
        <time>2021-08-25T14:04:13Z</time>
      </trkpt>
      <trkpt lat="45.46527" lon="2.91631">
        <ele>1157.8</ele>
        <time>2021-08-25T14:04:15Z</time>
      </trkpt>
      <trkpt lat="45.4653" lon="2.91626">
        <ele>1157.7</ele>
        <time>2021-08-25T14:04:17Z</time>
      </trkpt>
      <trkpt lat="45.46533" lon="2.91622">
        <ele>1157.5</ele>
        <time>2021-08-25T14:04:19Z</time>
      </trkpt>
      <trkpt lat="45.46536" lon="2.91616">
        <ele>1157.3</ele>
        <time>2021-08-25T14:04:21Z</time>
      </trkpt>
      <trkpt lat="45.46539" lon="2.91611">
        <ele>1157</ele>
        <time>2021-08-25T14:04:23Z</time>
      </trkpt>
      <trkpt lat="45.46541" lon="2.91606">
        <ele>1156.8</ele>
        <time>2021-08-25T14:04:25Z</time>
      </trkpt>
      <trkpt lat="45.46544" lon="2.91601">
        <ele>1156.5</ele>
        <time>2021-08-25T14:04:27Z</time>
      </trkpt>
      <trkpt lat="45.46546" lon="2.91595">
        <ele>1156.1</ele>
        <time>2021-08-25T14:04:29Z</time>
      </trkpt>
      <trkpt lat="45.46547" lon="2.91589">
        <ele>1155.7</ele>
        <time>2021-08-25T14:04:31Z</time>
      </trkpt>
      <trkpt lat="45.46549" lon="2.91583">
        <ele>1155.3</ele>
        <time>2021-08-25T14:04:33Z</time>
      </trkpt>
      <trkpt lat="45.46551" lon="2.91577">
        <ele>1155.2</ele>
        <time>2021-08-25T14:04:35Z</time>
      </trkpt>
      <trkpt lat="45.46553" lon="2.91571">
        <ele>1155.1</ele>
        <time>2021-08-25T14:04:37Z</time>
      </trkpt>
      <trkpt lat="45.46555" lon="2.91565">
        <ele>1155.1</ele>
        <time>2021-08-25T14:04:39Z</time>
      </trkpt>
      <trkpt lat="45.46557" lon="2.91559">
        <ele>1155</ele>
        <time>2021-08-25T14:04:41Z</time>
      </trkpt>
      <trkpt lat="45.4656" lon="2.91554">
        <ele>1155</ele>
        <time>2021-08-25T14:04:43Z</time>
      </trkpt>
      <trkpt lat="45.46563" lon="2.91548">
        <ele>1155.1</ele>
        <time>2021-08-25T14:04:45Z</time>
      </trkpt>
      <trkpt lat="45.46566" lon="2.91545">
        <ele>1155.3</ele>
        <time>2021-08-25T14:04:47Z</time>
      </trkpt>
      <trkpt lat="45.4657" lon="2.91541">
        <ele>1155.5</ele>
        <time>2021-08-25T14:04:49Z</time>
      </trkpt>
      <trkpt lat="45.46574" lon="2.91539">
        <ele>1155.8</ele>
        <time>2021-08-25T14:04:51Z</time>
      </trkpt>
      <trkpt lat="45.46578" lon="2.91537">
        <ele>1156.2</ele>
        <time>2021-08-25T14:04:53Z</time>
      </trkpt>
      <trkpt lat="45.46582" lon="2.91536">
        <ele>1156.6</ele>
        <time>2021-08-25T14:04:55Z</time>
      </trkpt>
      <trkpt lat="45.46587" lon="2.91536">
        <ele>1156.9</ele>
        <time>2021-08-25T14:04:57Z</time>
      </trkpt>
      <trkpt lat="45.46591" lon="2.91537">
        <ele>1157.2</ele>
        <time>2021-08-25T14:04:59Z</time>
      </trkpt>
      <trkpt lat="45.46596" lon="2.91538">
        <ele>1157.5</ele>
        <time>2021-08-25T14:05:01Z</time>
      </trkpt>
      <trkpt lat="45.466" lon="2.91538">
        <ele>1157.8</ele>
        <time>2021-08-25T14:05:03Z</time>
      </trkpt>
      <trkpt lat="45.46604" lon="2.91539">
        <ele>1158.1</ele>
        <time>2021-08-25T14:05:05Z</time>
      </trkpt>
      <trkpt lat="45.46608" lon="2.91541">
        <ele>1158.3</ele>
        <time>2021-08-25T14:05:07Z</time>
      </trkpt>
      <trkpt lat="45.46612" lon="2.91544">
        <ele>1158.6</ele>
        <time>2021-08-25T14:05:09Z</time>
      </trkpt>
      <trkpt lat="45.46616" lon="2.91547">
        <ele>1158.9</ele>
        <time>2021-08-25T14:05:11Z</time>
      </trkpt>
      <trkpt lat="45.4662" lon="2.91551">
        <ele>1159.2</ele>
        <time>2021-08-25T14:05:13Z</time>
      </trkpt>
      <trkpt lat="45.46623" lon="2.91554">
        <ele>1159.4</ele>
        <time>2021-08-25T14:05:15Z</time>
      </trkpt>
      <trkpt lat="45.46627" lon="2.91558">
        <ele>1159.6</ele>
        <time>2021-08-25T14:05:17Z</time>
      </trkpt>
      <trkpt lat="45.46629" lon="2.91563">
        <ele>1159.8</ele>
        <time>2021-08-25T14:05:19Z</time>
      </trkpt>
      <trkpt lat="45.46631" lon="2.91568">
        <ele>1159.9</ele>
        <time>2021-08-25T14:05:21Z</time>
      </trkpt>
      <trkpt lat="45.46633" lon="2.91573">
        <ele>1160.1</ele>
        <time>2021-08-25T14:05:23Z</time>
      </trkpt>
      <trkpt lat="45.46635" lon="2.91578">
        <ele>1160.2</ele>
        <time>2021-08-25T14:05:25Z</time>
      </trkpt>
      <trkpt lat="45.46637" lon="2.91584">
        <ele>1160.3</ele>
        <time>2021-08-25T14:05:27Z</time>
      </trkpt>
      <trkpt lat="45.46639" lon="2.91589">
        <ele>1160.7</ele>
        <time>2021-08-25T14:05:29Z</time>
      </trkpt>
      <trkpt lat="45.46641" lon="2.91595">
        <ele>1161</ele>
        <time>2021-08-25T14:05:31Z</time>
      </trkpt>
      <trkpt lat="45.46643" lon="2.91601">
        <ele>1161.4</ele>
        <time>2021-08-25T14:05:33Z</time>
      </trkpt>
      <trkpt lat="45.46646" lon="2.91607">
        <ele>1161.7</ele>
        <time>2021-08-25T14:05:35Z</time>
      </trkpt>
      <trkpt lat="45.46648" lon="2.91612">
        <ele>1162</ele>
        <time>2021-08-25T14:05:37Z</time>
      </trkpt>
      <trkpt lat="45.46652" lon="2.91617">
        <ele>1162.2</ele>
        <time>2021-08-25T14:05:39Z</time>
      </trkpt>
      <trkpt lat="45.46655" lon="2.91622">
        <ele>1162.5</ele>
        <time>2021-08-25T14:05:41Z</time>
      </trkpt>
      <trkpt lat="45.46658" lon="2.91627">
        <ele>1162.7</ele>
        <time>2021-08-25T14:05:43Z</time>
      </trkpt>
      <trkpt lat="45.46661" lon="2.91632">
        <ele>1162.8</ele>
        <time>2021-08-25T14:05:45Z</time>
      </trkpt>
      <trkpt lat="45.46665" lon="2.91635">
        <ele>1162.9</ele>
        <time>2021-08-25T14:05:47Z</time>
      </trkpt>
      <trkpt lat="45.46669" lon="2.91637">
        <ele>1163.1</ele>
        <time>2021-08-25T14:05:49Z</time>
      </trkpt>
      <trkpt lat="45.46674" lon="2.9164">
        <ele>1163.4</ele>
        <time>2021-08-25T14:05:51Z</time>
      </trkpt>
      <trkpt lat="45.46679" lon="2.91641">
        <ele>1163.6</ele>
        <time>2021-08-25T14:05:53Z</time>
      </trkpt>
      <trkpt lat="45.46684" lon="2.91643">
        <ele>1163.8</ele>
        <time>2021-08-25T14:05:55Z</time>
      </trkpt>
      <trkpt lat="45.46688" lon="2.91643">
        <ele>1164</ele>
        <time>2021-08-25T14:05:57Z</time>
      </trkpt>
      <trkpt lat="45.46693" lon="2.91644">
        <ele>1164.2</ele>
        <time>2021-08-25T14:05:59Z</time>
      </trkpt>
      <trkpt lat="45.46697" lon="2.91645">
        <ele>1164.4</ele>
        <time>2021-08-25T14:06:01Z</time>
      </trkpt>
      <trkpt lat="45.46702" lon="2.91645">
        <ele>1164.6</ele>
        <time>2021-08-25T14:06:03Z</time>
      </trkpt>
      <trkpt lat="45.46706" lon="2.91645">
        <ele>1164.8</ele>
        <time>2021-08-25T14:06:05Z</time>
      </trkpt>
      <trkpt lat="45.46711" lon="2.91646">
        <ele>1165</ele>
        <time>2021-08-25T14:06:07Z</time>
      </trkpt>
      <trkpt lat="45.46715" lon="2.91646">
        <ele>1165.2</ele>
        <time>2021-08-25T14:06:09Z</time>
      </trkpt>
      <trkpt lat="45.4672" lon="2.91646">
        <ele>1165.3</ele>
        <time>2021-08-25T14:06:11Z</time>
      </trkpt>
      <trkpt lat="45.46724" lon="2.91647">
        <ele>1165.5</ele>
        <time>2021-08-25T14:06:13Z</time>
      </trkpt>
      <trkpt lat="45.46728" lon="2.91647">
        <ele>1165.6</ele>
        <time>2021-08-25T14:06:15Z</time>
      </trkpt>
      <trkpt lat="45.46733" lon="2.91647">
        <ele>1165.8</ele>
        <time>2021-08-25T14:06:17Z</time>
      </trkpt>
      <trkpt lat="45.46737" lon="2.91648">
        <ele>1166</ele>
        <time>2021-08-25T14:06:19Z</time>
      </trkpt>
      <trkpt lat="45.46742" lon="2.91648">
        <ele>1166.1</ele>
        <time>2021-08-25T14:06:21Z</time>
      </trkpt>
      <trkpt lat="45.46747" lon="2.91649">
        <ele>1166.3</ele>
        <time>2021-08-25T14:06:23Z</time>
      </trkpt>
      <trkpt lat="45.46751" lon="2.91649">
        <ele>1166.5</ele>
        <time>2021-08-25T14:06:25Z</time>
      </trkpt>
      <trkpt lat="45.46755" lon="2.9165">
        <ele>1166.6</ele>
        <time>2021-08-25T14:06:27Z</time>
      </trkpt>
      <trkpt lat="45.4676" lon="2.9165">
        <ele>1166.8</ele>
        <time>2021-08-25T14:06:29Z</time>
      </trkpt>
      <trkpt lat="45.46764" lon="2.91651">
        <ele>1167</ele>
        <time>2021-08-25T14:06:31Z</time>
      </trkpt>
      <trkpt lat="45.46769" lon="2.91651">
        <ele>1167.2</ele>
        <time>2021-08-25T14:06:33Z</time>
      </trkpt>
      <trkpt lat="45.46774" lon="2.91652">
        <ele>1167.4</ele>
        <time>2021-08-25T14:06:35Z</time>
      </trkpt>
      <trkpt lat="45.46779" lon="2.91652">
        <ele>1167.7</ele>
        <time>2021-08-25T14:06:37Z</time>
      </trkpt>
      <trkpt lat="45.46784" lon="2.91652">
        <ele>1167.9</ele>
        <time>2021-08-25T14:06:39Z</time>
      </trkpt>
      <trkpt lat="45.46789" lon="2.91652">
        <ele>1168.1</ele>
        <time>2021-08-25T14:06:41Z</time>
      </trkpt>
      <trkpt lat="45.46795" lon="2.91653">
        <ele>1168.4</ele>
        <time>2021-08-25T14:06:43Z</time>
      </trkpt>
      <trkpt lat="45.468" lon="2.91653">
        <ele>1168.6</ele>
        <time>2021-08-25T14:06:45Z</time>
      </trkpt>
      <trkpt lat="45.46805" lon="2.91654">
        <ele>1168.9</ele>
        <time>2021-08-25T14:06:47Z</time>
      </trkpt>
      <trkpt lat="45.46811" lon="2.91654">
        <ele>1169.1</ele>
        <time>2021-08-25T14:06:49Z</time>
      </trkpt>
      <trkpt lat="45.46816" lon="2.91655">
        <ele>1169.3</ele>
        <time>2021-08-25T14:06:51Z</time>
      </trkpt>
      <trkpt lat="45.46821" lon="2.91655">
        <ele>1169.6</ele>
        <time>2021-08-25T14:06:53Z</time>
      </trkpt>
      <trkpt lat="45.46826" lon="2.91656">
        <ele>1169.8</ele>
        <time>2021-08-25T14:06:55Z</time>
      </trkpt>
      <trkpt lat="45.46832" lon="2.91657">
        <ele>1170</ele>
        <time>2021-08-25T14:06:57Z</time>
      </trkpt>
      <trkpt lat="45.46837" lon="2.91657">
        <ele>1170.2</ele>
        <time>2021-08-25T14:06:59Z</time>
      </trkpt>
      <trkpt lat="45.46842" lon="2.91658">
        <ele>1170.4</ele>
        <time>2021-08-25T14:07:01Z</time>
      </trkpt>
      <trkpt lat="45.46848" lon="2.91658">
        <ele>1170.5</ele>
        <time>2021-08-25T14:07:03Z</time>
      </trkpt>
      <trkpt lat="45.46853" lon="2.91658">
        <ele>1170.6</ele>
        <time>2021-08-25T14:07:05Z</time>
      </trkpt>
      <trkpt lat="45.46858" lon="2.91659">
        <ele>1170.8</ele>
        <time>2021-08-25T14:07:07Z</time>
      </trkpt>
      <trkpt lat="45.46863" lon="2.91659">
        <ele>1170.9</ele>
        <time>2021-08-25T14:07:09Z</time>
      </trkpt>
      <trkpt lat="45.46869" lon="2.9166">
        <ele>1171</ele>
        <time>2021-08-25T14:07:11Z</time>
      </trkpt>
      <trkpt lat="45.46874" lon="2.91661">
        <ele>1171.2</ele>
        <time>2021-08-25T14:07:13Z</time>
      </trkpt>
      <trkpt lat="45.4688" lon="2.91661">
        <ele>1171.3</ele>
        <time>2021-08-25T14:07:15Z</time>
      </trkpt>
      <trkpt lat="45.46885" lon="2.91662">
        <ele>1171.4</ele>
        <time>2021-08-25T14:07:17Z</time>
      </trkpt>
      <trkpt lat="45.4689" lon="2.91662">
        <ele>1171.6</ele>
        <time>2021-08-25T14:07:19Z</time>
      </trkpt>
      <trkpt lat="45.46896" lon="2.91662">
        <ele>1171.7</ele>
        <time>2021-08-25T14:07:21Z</time>
      </trkpt>
      <trkpt lat="45.46901" lon="2.91663">
        <ele>1171.8</ele>
        <time>2021-08-25T14:07:23Z</time>
      </trkpt>
      <trkpt lat="45.46906" lon="2.91662">
        <ele>1171.9</ele>
        <time>2021-08-25T14:07:25Z</time>
      </trkpt>
      <trkpt lat="45.46911" lon="2.91663">
        <ele>1172</ele>
        <time>2021-08-25T14:07:27Z</time>
      </trkpt>
      <trkpt lat="45.46917" lon="2.91663">
        <ele>1172.2</ele>
        <time>2021-08-25T14:07:29Z</time>
      </trkpt>
      <trkpt lat="45.46922" lon="2.91664">
        <ele>1172.2</ele>
        <time>2021-08-25T14:07:31Z</time>
      </trkpt>
      <trkpt lat="45.46927" lon="2.91665">
        <ele>1172.3</ele>
        <time>2021-08-25T14:07:33Z</time>
      </trkpt>
      <trkpt lat="45.46933" lon="2.91665">
        <ele>1172.5</ele>
        <time>2021-08-25T14:07:35Z</time>
      </trkpt>
      <trkpt lat="45.46938" lon="2.91666">
        <ele>1172.5</ele>
        <time>2021-08-25T14:07:37Z</time>
      </trkpt>
      <trkpt lat="45.46943" lon="2.91667">
        <ele>1172.6</ele>
        <time>2021-08-25T14:07:39Z</time>
      </trkpt>
      <trkpt lat="45.46948" lon="2.91669">
        <ele>1172.7</ele>
        <time>2021-08-25T14:07:41Z</time>
      </trkpt>
      <trkpt lat="45.46954" lon="2.9167">
        <ele>1172.7</ele>
        <time>2021-08-25T14:07:43Z</time>
      </trkpt>
      <trkpt lat="45.46959" lon="2.91672">
        <ele>1172.8</ele>
        <time>2021-08-25T14:07:45Z</time>
      </trkpt>
      <trkpt lat="45.46964" lon="2.91674">
        <ele>1172.8</ele>
        <time>2021-08-25T14:07:47Z</time>
      </trkpt>
      <trkpt lat="45.46969" lon="2.91676">
        <ele>1172.9</ele>
        <time>2021-08-25T14:07:49Z</time>
      </trkpt>
      <trkpt lat="45.46974" lon="2.91678">
        <ele>1172.9</ele>
        <time>2021-08-25T14:07:51Z</time>
      </trkpt>
      <trkpt lat="45.46979" lon="2.91679">
        <ele>1172.9</ele>
        <time>2021-08-25T14:07:53Z</time>
      </trkpt>
      <trkpt lat="45.46984" lon="2.91681">
        <ele>1173</ele>
        <time>2021-08-25T14:07:55Z</time>
      </trkpt>
      <trkpt lat="45.46989" lon="2.91683">
        <ele>1173</ele>
        <time>2021-08-25T14:07:57Z</time>
      </trkpt>
      <trkpt lat="45.46995" lon="2.91686">
        <ele>1173</ele>
        <time>2021-08-25T14:07:59Z</time>
      </trkpt>
      <trkpt lat="45.47" lon="2.91688">
        <ele>1173</ele>
        <time>2021-08-25T14:08:01Z</time>
      </trkpt>
      <trkpt lat="45.47006" lon="2.9169">
        <ele>1173.3</ele>
        <time>2021-08-25T14:08:03Z</time>
      </trkpt>
      <trkpt lat="45.47011" lon="2.91692">
        <ele>1173.7</ele>
        <time>2021-08-25T14:08:05Z</time>
      </trkpt>
      <trkpt lat="45.47017" lon="2.91694">
        <ele>1174</ele>
        <time>2021-08-25T14:08:07Z</time>
      </trkpt>
      <trkpt lat="45.47022" lon="2.91696">
        <ele>1174.3</ele>
        <time>2021-08-25T14:08:09Z</time>
      </trkpt>
      <trkpt lat="45.47028" lon="2.91698">
        <ele>1174.7</ele>
        <time>2021-08-25T14:08:11Z</time>
      </trkpt>
      <trkpt lat="45.47033" lon="2.91701">
        <ele>1175.1</ele>
        <time>2021-08-25T14:08:13Z</time>
      </trkpt>
      <trkpt lat="45.47039" lon="2.91703">
        <ele>1175.5</ele>
        <time>2021-08-25T14:08:15Z</time>
      </trkpt>
      <trkpt lat="45.47045" lon="2.91705">
        <ele>1175.9</ele>
        <time>2021-08-25T14:08:17Z</time>
      </trkpt>
      <trkpt lat="45.4705" lon="2.91707">
        <ele>1176.2</ele>
        <time>2021-08-25T14:08:19Z</time>
      </trkpt>
      <trkpt lat="45.47055" lon="2.91709">
        <ele>1176.6</ele>
        <time>2021-08-25T14:08:21Z</time>
      </trkpt>
      <trkpt lat="45.47061" lon="2.91711">
        <ele>1177</ele>
        <time>2021-08-25T14:08:23Z</time>
      </trkpt>
      <trkpt lat="45.47066" lon="2.91713">
        <ele>1177.4</ele>
        <time>2021-08-25T14:08:25Z</time>
      </trkpt>
      <trkpt lat="45.47071" lon="2.91716">
        <ele>1177.8</ele>
        <time>2021-08-25T14:08:27Z</time>
      </trkpt>
      <trkpt lat="45.47076" lon="2.91719">
        <ele>1178.1</ele>
        <time>2021-08-25T14:08:29Z</time>
      </trkpt>
      <trkpt lat="45.47081" lon="2.91723">
        <ele>1178.4</ele>
        <time>2021-08-25T14:08:31Z</time>
      </trkpt>
      <trkpt lat="45.47085" lon="2.91727">
        <ele>1178.7</ele>
        <time>2021-08-25T14:08:33Z</time>
      </trkpt>
      <trkpt lat="45.47089" lon="2.91732">
        <ele>1178.9</ele>
        <time>2021-08-25T14:08:35Z</time>
      </trkpt>
      <trkpt lat="45.47093" lon="2.91737">
        <ele>1179</ele>
        <time>2021-08-25T14:08:37Z</time>
      </trkpt>
      <trkpt lat="45.47097" lon="2.91742">
        <ele>1179.2</ele>
        <time>2021-08-25T14:08:39Z</time>
      </trkpt>
      <trkpt lat="45.471" lon="2.91749">
        <ele>1179.2</ele>
        <time>2021-08-25T14:08:41Z</time>
      </trkpt>
      <trkpt lat="45.47103" lon="2.91755">
        <ele>1179.2</ele>
        <time>2021-08-25T14:08:43Z</time>
      </trkpt>
      <trkpt lat="45.47106" lon="2.91761">
        <ele>1179.1</ele>
        <time>2021-08-25T14:08:45Z</time>
      </trkpt>
      <trkpt lat="45.47109" lon="2.91767">
        <ele>1179</ele>
        <time>2021-08-25T14:08:47Z</time>
      </trkpt>
      <trkpt lat="45.47112" lon="2.91773">
        <ele>1179</ele>
        <time>2021-08-25T14:08:49Z</time>
      </trkpt>
      <trkpt lat="45.47116" lon="2.91779">
        <ele>1179</ele>
        <time>2021-08-25T14:08:51Z</time>
      </trkpt>
      <trkpt lat="45.47118" lon="2.91786">
        <ele>1178.9</ele>
        <time>2021-08-25T14:08:53Z</time>
      </trkpt>
      <trkpt lat="45.47122" lon="2.91792">
        <ele>1178.9</ele>
        <time>2021-08-25T14:08:55Z</time>
      </trkpt>
      <trkpt lat="45.47125" lon="2.91798">
        <ele>1178.9</ele>
        <time>2021-08-25T14:08:57Z</time>
      </trkpt>
      <trkpt lat="45.47128" lon="2.91805">
        <ele>1179</ele>
        <time>2021-08-25T14:08:59Z</time>
      </trkpt>
      <trkpt lat="45.4713" lon="2.91812">
        <ele>1178.9</ele>
        <time>2021-08-25T14:09:01Z</time>
      </trkpt>
      <trkpt lat="45.47133" lon="2.91819">
        <ele>1178.9</ele>
        <time>2021-08-25T14:09:03Z</time>
      </trkpt>
      <trkpt lat="45.47136" lon="2.91827">
        <ele>1178.9</ele>
        <time>2021-08-25T14:09:05Z</time>
      </trkpt>
      <trkpt lat="45.47138" lon="2.91836">
        <ele>1178.8</ele>
        <time>2021-08-25T14:09:07Z</time>
      </trkpt>
      <trkpt lat="45.47139" lon="2.91845">
        <ele>1178.9</ele>
        <time>2021-08-25T14:09:09Z</time>
      </trkpt>
      <trkpt lat="45.4714" lon="2.91853">
        <ele>1178.9</ele>
        <time>2021-08-25T14:09:11Z</time>
      </trkpt>
      <trkpt lat="45.47141" lon="2.91861">
        <ele>1178.9</ele>
        <time>2021-08-25T14:09:13Z</time>
      </trkpt>
      <trkpt lat="45.47142" lon="2.91869">
        <ele>1178.8</ele>
        <time>2021-08-25T14:09:15Z</time>
      </trkpt>
      <trkpt lat="45.47142" lon="2.91878">
        <ele>1178.7</ele>
        <time>2021-08-25T14:09:17Z</time>
      </trkpt>
      <trkpt lat="45.47142" lon="2.91886">
        <ele>1178.6</ele>
        <time>2021-08-25T14:09:19Z</time>
      </trkpt>
      <trkpt lat="45.47143" lon="2.91894">
        <ele>1178.6</ele>
        <time>2021-08-25T14:09:21Z</time>
      </trkpt>
      <trkpt lat="45.47143" lon="2.91902">
        <ele>1178.5</ele>
        <time>2021-08-25T14:09:23Z</time>
      </trkpt>
      <trkpt lat="45.47143" lon="2.9191">
        <ele>1178.4</ele>
        <time>2021-08-25T14:09:25Z</time>
      </trkpt>
      <trkpt lat="45.47144" lon="2.91918">
        <ele>1178.4</ele>
        <time>2021-08-25T14:09:27Z</time>
      </trkpt>
      <trkpt lat="45.47145" lon="2.91925">
        <ele>1178.4</ele>
        <time>2021-08-25T14:09:29Z</time>
      </trkpt>
      <trkpt lat="45.47146" lon="2.91933">
        <ele>1178.5</ele>
        <time>2021-08-25T14:09:31Z</time>
      </trkpt>
      <trkpt lat="45.47148" lon="2.91941">
        <ele>1178.7</ele>
        <time>2021-08-25T14:09:33Z</time>
      </trkpt>
      <trkpt lat="45.47151" lon="2.91949">
        <ele>1178.8</ele>
        <time>2021-08-25T14:09:35Z</time>
      </trkpt>
      <trkpt lat="45.47153" lon="2.91956">
        <ele>1179</ele>
        <time>2021-08-25T14:09:37Z</time>
      </trkpt>
      <trkpt lat="45.47157" lon="2.91963">
        <ele>1179.3</ele>
        <time>2021-08-25T14:09:39Z</time>
      </trkpt>
      <trkpt lat="45.47162" lon="2.9197">
        <ele>1179.6</ele>
        <time>2021-08-25T14:09:41Z</time>
      </trkpt>
      <trkpt lat="45.47167" lon="2.91976">
        <ele>1180</ele>
        <time>2021-08-25T14:09:43Z</time>
      </trkpt>
      <trkpt lat="45.47172" lon="2.91982">
        <ele>1180</ele>
        <time>2021-08-25T14:09:45Z</time>
      </trkpt>
      <trkpt lat="45.47177" lon="2.91988">
        <ele>1180</ele>
        <time>2021-08-25T14:09:47Z</time>
      </trkpt>
      <trkpt lat="45.47182" lon="2.91994">
        <ele>1180</ele>
        <time>2021-08-25T14:09:49Z</time>
      </trkpt>
      <trkpt lat="45.47187" lon="2.92">
        <ele>1180</ele>
        <time>2021-08-25T14:09:51Z</time>
      </trkpt>
      <trkpt lat="45.47192" lon="2.92006">
        <ele>1179.8</ele>
        <time>2021-08-25T14:09:53Z</time>
      </trkpt>
      <trkpt lat="45.47198" lon="2.92012">
        <ele>1179.6</ele>
        <time>2021-08-25T14:09:55Z</time>
      </trkpt>
      <trkpt lat="45.47202" lon="2.92017">
        <ele>1179.4</ele>
        <time>2021-08-25T14:09:57Z</time>
      </trkpt>
      <trkpt lat="45.47206" lon="2.92022">
        <ele>1179.3</ele>
        <time>2021-08-25T14:09:59Z</time>
      </trkpt>
      <trkpt lat="45.47211" lon="2.92027">
        <ele>1179.2</ele>
        <time>2021-08-25T14:10:01Z</time>
      </trkpt>
      <trkpt lat="45.47215" lon="2.92032">
        <ele>1179.1</ele>
        <time>2021-08-25T14:10:03Z</time>
      </trkpt>
      <trkpt lat="45.47219" lon="2.92036">
        <ele>1179.1</ele>
        <time>2021-08-25T14:10:05Z</time>
      </trkpt>
      <trkpt lat="45.47222" lon="2.9204">
        <ele>1179</ele>
        <time>2021-08-25T14:10:07Z</time>
      </trkpt>
      <trkpt lat="45.47225" lon="2.92043">
        <ele>1179</ele>
        <time>2021-08-25T14:10:09Z</time>
      </trkpt>
      <trkpt lat="45.47228" lon="2.92047">
        <ele>1179</ele>
        <time>2021-08-25T14:10:11Z</time>
      </trkpt>
      <trkpt lat="45.4723" lon="2.92052">
        <ele>1178.9</ele>
        <time>2021-08-25T14:10:13Z</time>
      </trkpt>
      <trkpt lat="45.47232" lon="2.92057">
        <ele>1178.9</ele>
        <time>2021-08-25T14:10:15Z</time>
      </trkpt>
      <trkpt lat="45.47234" lon="2.9206">
        <ele>1178.9</ele>
        <time>2021-08-25T14:10:17Z</time>
      </trkpt>
      <trkpt lat="45.47236" lon="2.92062">
        <ele>1178.9</ele>
        <time>2021-08-25T14:10:19Z</time>
      </trkpt>
      <trkpt lat="45.47238" lon="2.92065">
        <ele>1178.9</ele>
        <time>2021-08-25T14:10:21Z</time>
      </trkpt>
      <trkpt lat="45.4724" lon="2.92067">
        <ele>1178.9</ele>
        <time>2021-08-25T14:10:23Z</time>
      </trkpt>
      <trkpt lat="45.47242" lon="2.9207">
        <ele>1178.9</ele>
        <time>2021-08-25T14:10:25Z</time>
      </trkpt>
      <trkpt lat="45.47244" lon="2.92072">
        <ele>1179</ele>
        <time>2021-08-25T14:10:27Z</time>
      </trkpt>
      <trkpt lat="45.47244" lon="2.92072">
        <ele>1178.9</ele>
        <time>2021-08-25T14:10:29Z</time>
      </trkpt>
      <trkpt lat="45.47244" lon="2.92072">
        <ele>1178.9</ele>
        <time>2021-08-25T14:10:31Z</time>
      </trkpt>
      <trkpt lat="45.47244" lon="2.92072">
        <ele>1179</ele>
        <time>2021-08-25T14:10:33Z</time>
      </trkpt>
      <trkpt lat="45.47244" lon="2.92072">
        <ele>1179</ele>
        <time>2021-08-25T14:10:35Z</time>
      </trkpt>
      <trkpt lat="45.47243" lon="2.92072">
        <ele>1178.9</ele>
        <time>2021-08-25T14:12:09Z</time>
      </trkpt>
      <trkpt lat="45.47243" lon="2.92072">
        <ele>1178.9</ele>
        <time>2021-08-25T14:12:11Z</time>
      </trkpt>
      <trkpt lat="45.47244" lon="2.92072">
        <ele>1178.9</ele>
        <time>2021-08-25T14:12:15Z</time>
      </trkpt>
      <trkpt lat="45.47244" lon="2.92072">
        <ele>1178.9</ele>
        <time>2021-08-25T14:12:17Z</time>
      </trkpt>
      <trkpt lat="45.47245" lon="2.92073">
        <ele>1179</ele>
        <time>2021-08-25T14:12:19Z</time>
      </trkpt>
      <trkpt lat="45.47247" lon="2.92074">
        <ele>1179</ele>
        <time>2021-08-25T14:12:21Z</time>
      </trkpt>
      <trkpt lat="45.47251" lon="2.92074">
        <ele>1179</ele>
        <time>2021-08-25T14:12:23Z</time>
      </trkpt>
      <trkpt lat="45.47253" lon="2.92075">
        <ele>1178.8</ele>
        <time>2021-08-25T14:12:25Z</time>
      </trkpt>
      <trkpt lat="45.47256" lon="2.92079">
        <ele>1178.4</ele>
        <time>2021-08-25T14:12:27Z</time>
      </trkpt>
      <trkpt lat="45.47257" lon="2.92081">
        <ele>1178.3</ele>
        <time>2021-08-25T14:12:29Z</time>
      </trkpt>
      <trkpt lat="45.47256" lon="2.9208">
        <ele>1178.4</ele>
        <time>2021-08-25T14:12:31Z</time>
      </trkpt>
      <trkpt lat="45.47256" lon="2.9208">
        <ele>1178.4</ele>
        <time>2021-08-25T14:12:33Z</time>
      </trkpt>
      <trkpt lat="45.47256" lon="2.9208">
        <ele>1178.4</ele>
        <time>2021-08-25T14:12:35Z</time>
      </trkpt>
      <trkpt lat="45.47256" lon="2.9208">
        <ele>1178.4</ele>
        <time>2021-08-25T14:12:37Z</time>
      </trkpt>
      <trkpt lat="45.4727" lon="2.92095">
        <ele>1176.4</ele>
        <time>2021-08-25T14:13:39Z</time>
      </trkpt>
      <trkpt lat="45.47274" lon="2.92101">
        <ele>1175.7</ele>
        <time>2021-08-25T14:13:41Z</time>
      </trkpt>
      <trkpt lat="45.4728" lon="2.92107">
        <ele>1174.8</ele>
        <time>2021-08-25T14:13:43Z</time>
      </trkpt>
      <trkpt lat="45.47287" lon="2.92115">
        <ele>1173.8</ele>
        <time>2021-08-25T14:13:45Z</time>
      </trkpt>
      <trkpt lat="45.47295" lon="2.92125">
        <ele>1172.7</ele>
        <time>2021-08-25T14:13:47Z</time>
      </trkpt>
      <trkpt lat="45.47303" lon="2.92136">
        <ele>1171.6</ele>
        <time>2021-08-25T14:13:49Z</time>
      </trkpt>
      <trkpt lat="45.4731" lon="2.9215">
        <ele>1170.5</ele>
        <time>2021-08-25T14:13:51Z</time>
      </trkpt>
      <trkpt lat="45.47316" lon="2.92167">
        <ele>1169.4</ele>
        <time>2021-08-25T14:13:53Z</time>
      </trkpt>
      <trkpt lat="45.47321" lon="2.92185">
        <ele>1168.6</ele>
        <time>2021-08-25T14:13:55Z</time>
      </trkpt>
      <trkpt lat="45.47324" lon="2.92205">
        <ele>1167.8</ele>
        <time>2021-08-25T14:13:57Z</time>
      </trkpt>
      <trkpt lat="45.47329" lon="2.92227">
        <ele>1166.9</ele>
        <time>2021-08-25T14:13:59Z</time>
      </trkpt>
      <trkpt lat="45.47333" lon="2.92248">
        <ele>1166</ele>
        <time>2021-08-25T14:14:01Z</time>
      </trkpt>
      <trkpt lat="45.47338" lon="2.92271">
        <ele>1164.7</ele>
        <time>2021-08-25T14:14:03Z</time>
      </trkpt>
      <trkpt lat="45.47343" lon="2.92294">
        <ele>1163.4</ele>
        <time>2021-08-25T14:14:05Z</time>
      </trkpt>
      <trkpt lat="45.47349" lon="2.92317">
        <ele>1162</ele>
        <time>2021-08-25T14:14:07Z</time>
      </trkpt>
      <trkpt lat="45.47354" lon="2.92341">
        <ele>1160.9</ele>
        <time>2021-08-25T14:14:09Z</time>
      </trkpt>
      <trkpt lat="45.47359" lon="2.92364">
        <ele>1160.4</ele>
        <time>2021-08-25T14:14:11Z</time>
      </trkpt>
      <trkpt lat="45.47363" lon="2.92389">
        <ele>1160</ele>
        <time>2021-08-25T14:14:13Z</time>
      </trkpt>
      <trkpt lat="45.47366" lon="2.92415">
        <ele>1159.8</ele>
        <time>2021-08-25T14:14:15Z</time>
      </trkpt>
      <trkpt lat="45.47369" lon="2.92441">
        <ele>1160</ele>
        <time>2021-08-25T14:14:17Z</time>
      </trkpt>
      <trkpt lat="45.47373" lon="2.92468">
        <ele>1160.1</ele>
        <time>2021-08-25T14:14:19Z</time>
      </trkpt>
      <trkpt lat="45.47379" lon="2.92494">
        <ele>1159.7</ele>
        <time>2021-08-25T14:14:21Z</time>
      </trkpt>
      <trkpt lat="45.47388" lon="2.92519">
        <ele>1158.8</ele>
        <time>2021-08-25T14:14:23Z</time>
      </trkpt>
      <trkpt lat="45.474" lon="2.92541">
        <ele>1157.7</ele>
        <time>2021-08-25T14:14:25Z</time>
      </trkpt>
      <trkpt lat="45.47413" lon="2.92561">
        <ele>1156.6</ele>
        <time>2021-08-25T14:14:27Z</time>
      </trkpt>
      <trkpt lat="45.47427" lon="2.9258">
        <ele>1155.2</ele>
        <time>2021-08-25T14:14:29Z</time>
      </trkpt>
      <trkpt lat="45.47442" lon="2.92599">
        <ele>1154</ele>
        <time>2021-08-25T14:14:31Z</time>
      </trkpt>
      <trkpt lat="45.47456" lon="2.92617">
        <ele>1152.8</ele>
        <time>2021-08-25T14:14:33Z</time>
      </trkpt>
      <trkpt lat="45.47472" lon="2.92634">
        <ele>1151.4</ele>
        <time>2021-08-25T14:14:35Z</time>
      </trkpt>
      <trkpt lat="45.4749" lon="2.92648">
        <ele>1149.5</ele>
        <time>2021-08-25T14:14:37Z</time>
      </trkpt>
      <trkpt lat="45.47508" lon="2.92658">
        <ele>1147.9</ele>
        <time>2021-08-25T14:14:39Z</time>
      </trkpt>
      <trkpt lat="45.47526" lon="2.92668">
        <ele>1147.3</ele>
        <time>2021-08-25T14:14:41Z</time>
      </trkpt>
      <trkpt lat="45.47544" lon="2.92678">
        <ele>1147.2</ele>
        <time>2021-08-25T14:14:43Z</time>
      </trkpt>
      <trkpt lat="45.47563" lon="2.92687">
        <ele>1147.2</ele>
        <time>2021-08-25T14:14:45Z</time>
      </trkpt>
      <trkpt lat="45.47582" lon="2.92693">
        <ele>1146.9</ele>
        <time>2021-08-25T14:14:47Z</time>
      </trkpt>
      <trkpt lat="45.47601" lon="2.9269">
        <ele>1146.4</ele>
        <time>2021-08-25T14:14:49Z</time>
      </trkpt>
      <trkpt lat="45.4762" lon="2.92682">
        <ele>1145.2</ele>
        <time>2021-08-25T14:14:51Z</time>
      </trkpt>
      <trkpt lat="45.47637" lon="2.92669">
        <ele>1143.3</ele>
        <time>2021-08-25T14:14:53Z</time>
      </trkpt>
      <trkpt lat="45.47654" lon="2.92655">
        <ele>1141.8</ele>
        <time>2021-08-25T14:14:55Z</time>
      </trkpt>
      <trkpt lat="45.4767" lon="2.9264">
        <ele>1140.6</ele>
        <time>2021-08-25T14:14:57Z</time>
      </trkpt>
      <trkpt lat="45.47685" lon="2.9262">
        <ele>1139.4</ele>
        <time>2021-08-25T14:14:59Z</time>
      </trkpt>
      <trkpt lat="45.47696" lon="2.92597">
        <ele>1137.7</ele>
        <time>2021-08-25T14:15:01Z</time>
      </trkpt>
      <trkpt lat="45.47707" lon="2.92573">
        <ele>1136</ele>
        <time>2021-08-25T14:15:03Z</time>
      </trkpt>
      <trkpt lat="45.4772" lon="2.9255">
        <ele>1134.2</ele>
        <time>2021-08-25T14:15:05Z</time>
      </trkpt>
      <trkpt lat="45.47734" lon="2.9253">
        <ele>1132.3</ele>
        <time>2021-08-25T14:15:07Z</time>
      </trkpt>
      <trkpt lat="45.4775" lon="2.92511">
        <ele>1130.3</ele>
        <time>2021-08-25T14:15:09Z</time>
      </trkpt>
      <trkpt lat="45.47766" lon="2.92493">
        <ele>1128.5</ele>
        <time>2021-08-25T14:15:11Z</time>
      </trkpt>
      <trkpt lat="45.47781" lon="2.92476">
        <ele>1126.7</ele>
        <time>2021-08-25T14:15:13Z</time>
      </trkpt>
      <trkpt lat="45.47795" lon="2.92465">
        <ele>1125.5</ele>
        <time>2021-08-25T14:15:15Z</time>
      </trkpt>
      <trkpt lat="45.4781" lon="2.92459">
        <ele>1124.5</ele>
        <time>2021-08-25T14:15:17Z</time>
      </trkpt>
      <trkpt lat="45.47827" lon="2.92455">
        <ele>1124</ele>
        <time>2021-08-25T14:15:19Z</time>
      </trkpt>
      <trkpt lat="45.47844" lon="2.92454">
        <ele>1122.8</ele>
        <time>2021-08-25T14:15:21Z</time>
      </trkpt>
      <trkpt lat="45.47861" lon="2.92456">
        <ele>1121.4</ele>
        <time>2021-08-25T14:15:23Z</time>
      </trkpt>
      <trkpt lat="45.47878" lon="2.92463">
        <ele>1120.9</ele>
        <time>2021-08-25T14:15:25Z</time>
      </trkpt>
      <trkpt lat="45.47895" lon="2.92472">
        <ele>1120.5</ele>
        <time>2021-08-25T14:15:27Z</time>
      </trkpt>
      <trkpt lat="45.47912" lon="2.92481">
        <ele>1120</ele>
        <time>2021-08-25T14:15:29Z</time>
      </trkpt>
      <trkpt lat="45.47929" lon="2.92491">
        <ele>1119.2</ele>
        <time>2021-08-25T14:15:31Z</time>
      </trkpt>
      <trkpt lat="45.47946" lon="2.92501">
        <ele>1118.2</ele>
        <time>2021-08-25T14:15:33Z</time>
      </trkpt>
      <trkpt lat="45.47964" lon="2.9251">
        <ele>1117.1</ele>
        <time>2021-08-25T14:15:35Z</time>
      </trkpt>
      <trkpt lat="45.47982" lon="2.92521">
        <ele>1116</ele>
        <time>2021-08-25T14:15:37Z</time>
      </trkpt>
      <trkpt lat="45.48" lon="2.92531">
        <ele>1114.6</ele>
        <time>2021-08-25T14:15:39Z</time>
      </trkpt>
      <trkpt lat="45.48018" lon="2.9254">
        <ele>1113.7</ele>
        <time>2021-08-25T14:15:41Z</time>
      </trkpt>
      <trkpt lat="45.48037" lon="2.9255">
        <ele>1112.9</ele>
        <time>2021-08-25T14:15:43Z</time>
      </trkpt>
      <trkpt lat="45.48055" lon="2.92559">
        <ele>1112.3</ele>
        <time>2021-08-25T14:15:45Z</time>
      </trkpt>
      <trkpt lat="45.48074" lon="2.92569">
        <ele>1111.7</ele>
        <time>2021-08-25T14:15:47Z</time>
      </trkpt>
      <trkpt lat="45.48093" lon="2.92575">
        <ele>1110.9</ele>
        <time>2021-08-25T14:15:49Z</time>
      </trkpt>
      <trkpt lat="45.48113" lon="2.9258">
        <ele>1110.2</ele>
        <time>2021-08-25T14:15:51Z</time>
      </trkpt>
      <trkpt lat="45.48133" lon="2.92585">
        <ele>1109.7</ele>
        <time>2021-08-25T14:15:53Z</time>
      </trkpt>
      <trkpt lat="45.48152" lon="2.92594">
        <ele>1109.8</ele>
        <time>2021-08-25T14:15:55Z</time>
      </trkpt>
      <trkpt lat="45.4817" lon="2.92608">
        <ele>1110.3</ele>
        <time>2021-08-25T14:15:57Z</time>
      </trkpt>
      <trkpt lat="45.48187" lon="2.92624">
        <ele>1108.8</ele>
        <time>2021-08-25T14:15:59Z</time>
      </trkpt>
      <trkpt lat="45.48202" lon="2.92642">
        <ele>1108.6</ele>
        <time>2021-08-25T14:16:01Z</time>
      </trkpt>
      <trkpt lat="45.48214" lon="2.92661">
        <ele>1109</ele>
        <time>2021-08-25T14:16:03Z</time>
      </trkpt>
      <trkpt lat="45.48229" lon="2.92675">
        <ele>1109</ele>
        <time>2021-08-25T14:16:05Z</time>
      </trkpt>
      <trkpt lat="45.4824" lon="2.92693">
        <ele>1111.3</ele>
        <time>2021-08-25T14:16:07Z</time>
      </trkpt>
      <trkpt lat="45.48249" lon="2.92715">
        <ele>1115.4</ele>
        <time>2021-08-25T14:16:09Z</time>
      </trkpt>
      <trkpt lat="45.48264" lon="2.92729">
        <ele>1113.3</ele>
        <time>2021-08-25T14:16:11Z</time>
      </trkpt>
      <trkpt lat="45.48281" lon="2.92736">
        <ele>1108.2</ele>
        <time>2021-08-25T14:16:13Z</time>
      </trkpt>
      <trkpt lat="45.483" lon="2.92737">
        <ele>1100.7</ele>
        <time>2021-08-25T14:16:15Z</time>
      </trkpt>
      <trkpt lat="45.48317" lon="2.92747">
        <ele>1095.4</ele>
        <time>2021-08-25T14:16:17Z</time>
      </trkpt>
      <trkpt lat="45.48332" lon="2.92762">
        <ele>1092.7</ele>
        <time>2021-08-25T14:16:19Z</time>
      </trkpt>
      <trkpt lat="45.48347" lon="2.92778">
        <ele>1092.6</ele>
        <time>2021-08-25T14:16:21Z</time>
      </trkpt>
      <trkpt lat="45.48363" lon="2.92793">
        <ele>1091.5</ele>
        <time>2021-08-25T14:16:23Z</time>
      </trkpt>
      <trkpt lat="45.48379" lon="2.9281">
        <ele>1090.3</ele>
        <time>2021-08-25T14:16:25Z</time>
      </trkpt>
      <trkpt lat="45.48394" lon="2.92828">
        <ele>1088.9</ele>
        <time>2021-08-25T14:16:27Z</time>
      </trkpt>
      <trkpt lat="45.48411" lon="2.92842">
        <ele>1085.2</ele>
        <time>2021-08-25T14:16:29Z</time>
      </trkpt>
      <trkpt lat="45.48426" lon="2.9286">
        <ele>1082.5</ele>
        <time>2021-08-25T14:16:31Z</time>
      </trkpt>
      <trkpt lat="45.48438" lon="2.92882">
        <ele>1081.8</ele>
        <time>2021-08-25T14:16:33Z</time>
      </trkpt>
      <trkpt lat="45.48451" lon="2.92903">
        <ele>1081.1</ele>
        <time>2021-08-25T14:16:35Z</time>
      </trkpt>
      <trkpt lat="45.48466" lon="2.92921">
        <ele>1079.3</ele>
        <time>2021-08-25T14:16:37Z</time>
      </trkpt>
      <trkpt lat="45.48478" lon="2.92942">
        <ele>1078.6</ele>
        <time>2021-08-25T14:16:39Z</time>
      </trkpt>
      <trkpt lat="45.48485" lon="2.92965">
        <ele>1079.3</ele>
        <time>2021-08-25T14:16:41Z</time>
      </trkpt>
      <trkpt lat="45.48498" lon="2.92981">
        <ele>1077.4</ele>
        <time>2021-08-25T14:16:43Z</time>
      </trkpt>
      <trkpt lat="45.48511" lon="2.92996">
        <ele>1075.3</ele>
        <time>2021-08-25T14:16:45Z</time>
      </trkpt>
      <trkpt lat="45.48523" lon="2.93015">
        <ele>1074.8</ele>
        <time>2021-08-25T14:16:47Z</time>
      </trkpt>
      <trkpt lat="45.48538" lon="2.9303">
        <ele>1073</ele>
        <time>2021-08-25T14:16:49Z</time>
      </trkpt>
      <trkpt lat="45.48555" lon="2.9304">
        <ele>1070</ele>
        <time>2021-08-25T14:16:51Z</time>
      </trkpt>
      <trkpt lat="45.48569" lon="2.93057">
        <ele>1068.7</ele>
        <time>2021-08-25T14:16:53Z</time>
      </trkpt>
      <trkpt lat="45.48582" lon="2.93076">
        <ele>1068.1</ele>
        <time>2021-08-25T14:16:55Z</time>
      </trkpt>
      <trkpt lat="45.48597" lon="2.93093">
        <ele>1067.3</ele>
        <time>2021-08-25T14:16:57Z</time>
      </trkpt>
      <trkpt lat="45.48614" lon="2.93109">
        <ele>1066.1</ele>
        <time>2021-08-25T14:16:59Z</time>
      </trkpt>
      <trkpt lat="45.48631" lon="2.93125">
        <ele>1064.6</ele>
        <time>2021-08-25T14:17:01Z</time>
      </trkpt>
      <trkpt lat="45.48648" lon="2.93141">
        <ele>1063.1</ele>
        <time>2021-08-25T14:17:03Z</time>
      </trkpt>
      <trkpt lat="45.48663" lon="2.93157">
        <ele>1062</ele>
        <time>2021-08-25T14:17:05Z</time>
      </trkpt>
      <trkpt lat="45.48674" lon="2.93177">
        <ele>1064</ele>
        <time>2021-08-25T14:17:07Z</time>
      </trkpt>
      <trkpt lat="45.48681" lon="2.93201">
        <ele>1068.7</ele>
        <time>2021-08-25T14:17:09Z</time>
      </trkpt>
      <trkpt lat="45.48691" lon="2.93224">
        <ele>1071.4</ele>
        <time>2021-08-25T14:17:11Z</time>
      </trkpt>
      <trkpt lat="45.48705" lon="2.93241">
        <ele>1069.3</ele>
        <time>2021-08-25T14:17:13Z</time>
      </trkpt>
      <trkpt lat="45.48721" lon="2.93256">
        <ele>1065.6</ele>
        <time>2021-08-25T14:17:15Z</time>
      </trkpt>
      <trkpt lat="45.48733" lon="2.9327">
        <ele>1063.4</ele>
        <time>2021-08-25T14:17:17Z</time>
      </trkpt>
      <trkpt lat="45.48742" lon="2.93288">
        <ele>1063.8</ele>
        <time>2021-08-25T14:17:19Z</time>
      </trkpt>
      <trkpt lat="45.48747" lon="2.93311">
        <ele>1066.9</ele>
        <time>2021-08-25T14:17:21Z</time>
      </trkpt>
      <trkpt lat="45.48754" lon="2.93333">
        <ele>1069.5</ele>
        <time>2021-08-25T14:17:23Z</time>
      </trkpt>
      <trkpt lat="45.48762" lon="2.93347">
        <ele>1071.5</ele>
        <time>2021-08-25T14:17:25Z</time>
      </trkpt>
      <trkpt lat="45.48773" lon="2.93359">
        <ele>1070.9</ele>
        <time>2021-08-25T14:17:27Z</time>
      </trkpt>
      <trkpt lat="45.48784" lon="2.93371">
        <ele>1070.2</ele>
        <time>2021-08-25T14:17:29Z</time>
      </trkpt>
      <trkpt lat="45.488" lon="2.93378">
        <ele>1066.1</ele>
        <time>2021-08-25T14:17:31Z</time>
      </trkpt>
      <trkpt lat="45.48816" lon="2.93385">
        <ele>1061.7</ele>
        <time>2021-08-25T14:17:33Z</time>
      </trkpt>
      <trkpt lat="45.48832" lon="2.93396">
        <ele>1057.8</ele>
        <time>2021-08-25T14:17:35Z</time>
      </trkpt>
      <trkpt lat="45.48848" lon="2.93407">
        <ele>1056.1</ele>
        <time>2021-08-25T14:17:37Z</time>
      </trkpt>
      <trkpt lat="45.48863" lon="2.93421">
        <ele>1054.5</ele>
        <time>2021-08-25T14:17:39Z</time>
      </trkpt>
      <trkpt lat="45.48877" lon="2.93439">
        <ele>1054.3</ele>
        <time>2021-08-25T14:17:41Z</time>
      </trkpt>
      <trkpt lat="45.48892" lon="2.93457">
        <ele>1052.9</ele>
        <time>2021-08-25T14:17:43Z</time>
      </trkpt>
      <trkpt lat="45.48905" lon="2.93475">
        <ele>1050.8</ele>
        <time>2021-08-25T14:17:45Z</time>
      </trkpt>
      <trkpt lat="45.4892" lon="2.93493">
        <ele>1048.4</ele>
        <time>2021-08-25T14:17:47Z</time>
      </trkpt>
      <trkpt lat="45.48934" lon="2.93512">
        <ele>1049.8</ele>
        <time>2021-08-25T14:17:49Z</time>
      </trkpt>
      <trkpt lat="45.4895" lon="2.93529">
        <ele>1050.3</ele>
        <time>2021-08-25T14:17:51Z</time>
      </trkpt>
      <trkpt lat="45.48966" lon="2.93545">
        <ele>1048.7</ele>
        <time>2021-08-25T14:17:53Z</time>
      </trkpt>
      <trkpt lat="45.48983" lon="2.93559">
        <ele>1044.9</ele>
        <time>2021-08-25T14:17:55Z</time>
      </trkpt>
      <trkpt lat="45.48998" lon="2.9357">
        <ele>1040.6</ele>
        <time>2021-08-25T14:17:57Z</time>
      </trkpt>
      <trkpt lat="45.4901" lon="2.93579">
        <ele>1039.8</ele>
        <time>2021-08-25T14:17:59Z</time>
      </trkpt>
      <trkpt lat="45.4902" lon="2.93586">
        <ele>1039.7</ele>
        <time>2021-08-25T14:18:01Z</time>
      </trkpt>
      <trkpt lat="45.49028" lon="2.9359">
        <ele>1039.5</ele>
        <time>2021-08-25T14:18:03Z</time>
      </trkpt>
      <trkpt lat="45.49034" lon="2.93593">
        <ele>1039.1</ele>
        <time>2021-08-25T14:18:05Z</time>
      </trkpt>
      <trkpt lat="45.4904" lon="2.93592">
        <ele>1038.3</ele>
        <time>2021-08-25T14:18:07Z</time>
      </trkpt>
      <trkpt lat="45.49047" lon="2.93585">
        <ele>1037.1</ele>
        <time>2021-08-25T14:18:09Z</time>
      </trkpt>
      <trkpt lat="45.49055" lon="2.93575">
        <ele>1036.6</ele>
        <time>2021-08-25T14:18:11Z</time>
      </trkpt>
      <trkpt lat="45.49065" lon="2.93565">
        <ele>1036.4</ele>
        <time>2021-08-25T14:18:13Z</time>
      </trkpt>
      <trkpt lat="45.49077" lon="2.93559">
        <ele>1036.2</ele>
        <time>2021-08-25T14:18:15Z</time>
      </trkpt>
      <trkpt lat="45.4909" lon="2.93562">
        <ele>1037.9</ele>
        <time>2021-08-25T14:18:17Z</time>
      </trkpt>
      <trkpt lat="45.491" lon="2.93573">
        <ele>1040</ele>
        <time>2021-08-25T14:18:19Z</time>
      </trkpt>
      <trkpt lat="45.49107" lon="2.93586">
        <ele>1041.2</ele>
        <time>2021-08-25T14:18:21Z</time>
      </trkpt>
      <trkpt lat="45.49111" lon="2.93601">
        <ele>1041.2</ele>
        <time>2021-08-25T14:18:23Z</time>
      </trkpt>
      <trkpt lat="45.49115" lon="2.93617">
        <ele>1041.2</ele>
        <time>2021-08-25T14:18:25Z</time>
      </trkpt>
      <trkpt lat="45.4912" lon="2.93632">
        <ele>1041.2</ele>
        <time>2021-08-25T14:18:27Z</time>
      </trkpt>
      <trkpt lat="45.49126" lon="2.93645">
        <ele>1041.7</ele>
        <time>2021-08-25T14:18:29Z</time>
      </trkpt>
      <trkpt lat="45.49133" lon="2.93657">
        <ele>1042.6</ele>
        <time>2021-08-25T14:18:31Z</time>
      </trkpt>
      <trkpt lat="45.49142" lon="2.93666">
        <ele>1043.8</ele>
        <time>2021-08-25T14:18:33Z</time>
      </trkpt>
      <trkpt lat="45.49151" lon="2.93676">
        <ele>1044.2</ele>
        <time>2021-08-25T14:18:35Z</time>
      </trkpt>
      <trkpt lat="45.49161" lon="2.93687">
        <ele>1043.6</ele>
        <time>2021-08-25T14:18:37Z</time>
      </trkpt>
      <trkpt lat="45.4917" lon="2.93698">
        <ele>1043</ele>
        <time>2021-08-25T14:18:39Z</time>
      </trkpt>
      <trkpt lat="45.49179" lon="2.93708">
        <ele>1043.4</ele>
        <time>2021-08-25T14:18:41Z</time>
      </trkpt>
      <trkpt lat="45.49188" lon="2.93719">
        <ele>1043.8</ele>
        <time>2021-08-25T14:18:43Z</time>
      </trkpt>
      <trkpt lat="45.49197" lon="2.93727">
        <ele>1044.9</ele>
        <time>2021-08-25T14:18:45Z</time>
      </trkpt>
      <trkpt lat="45.49207" lon="2.93737">
        <ele>1045.7</ele>
        <time>2021-08-25T14:18:47Z</time>
      </trkpt>
      <trkpt lat="45.49216" lon="2.93745">
        <ele>1046.8</ele>
        <time>2021-08-25T14:18:49Z</time>
      </trkpt>
      <trkpt lat="45.49227" lon="2.93754">
        <ele>1048.6</ele>
        <time>2021-08-25T14:18:51Z</time>
      </trkpt>
      <trkpt lat="45.49235" lon="2.93766">
        <ele>1049.4</ele>
        <time>2021-08-25T14:18:53Z</time>
      </trkpt>
      <trkpt lat="45.49243" lon="2.93779">
        <ele>1049.6</ele>
        <time>2021-08-25T14:18:55Z</time>
      </trkpt>
      <trkpt lat="45.49248" lon="2.93793">
        <ele>1049</ele>
        <time>2021-08-25T14:18:57Z</time>
      </trkpt>
      <trkpt lat="45.49253" lon="2.9381">
        <ele>1048.1</ele>
        <time>2021-08-25T14:18:59Z</time>
      </trkpt>
      <trkpt lat="45.49256" lon="2.93822">
        <ele>1046.9</ele>
        <time>2021-08-25T14:19:01Z</time>
      </trkpt>
      <trkpt lat="45.49263" lon="2.9384">
        <ele>1047</ele>
        <time>2021-08-25T14:19:03Z</time>
      </trkpt>
      <trkpt lat="45.49268" lon="2.93856">
        <ele>1046.4</ele>
        <time>2021-08-25T14:19:05Z</time>
      </trkpt>
      <trkpt lat="45.49271" lon="2.93872">
        <ele>1045.2</ele>
        <time>2021-08-25T14:19:07Z</time>
      </trkpt>
      <trkpt lat="45.49275" lon="2.93888">
        <ele>1044.3</ele>
        <time>2021-08-25T14:19:09Z</time>
      </trkpt>
      <trkpt lat="45.4928" lon="2.93903">
        <ele>1044.1</ele>
        <time>2021-08-25T14:19:11Z</time>
      </trkpt>
      <trkpt lat="45.49284" lon="2.93918">
        <ele>1043.3</ele>
        <time>2021-08-25T14:19:13Z</time>
      </trkpt>
      <trkpt lat="45.49288" lon="2.93925">
        <ele>1043.3</ele>
        <time>2021-08-25T14:19:15Z</time>
      </trkpt>
      <trkpt lat="45.49296" lon="2.93942">
        <ele>1043.3</ele>
        <time>2021-08-25T14:19:17Z</time>
      </trkpt>
      <trkpt lat="45.49304" lon="2.93951">
        <ele>1044.7</ele>
        <time>2021-08-25T14:19:19Z</time>
      </trkpt>
      <trkpt lat="45.49311" lon="2.93964">
        <ele>1044.9</ele>
        <time>2021-08-25T14:19:21Z</time>
      </trkpt>
      <trkpt lat="45.49318" lon="2.93975">
        <ele>1045.7</ele>
        <time>2021-08-25T14:19:23Z</time>
      </trkpt>
      <trkpt lat="45.49326" lon="2.93987">
        <ele>1046.9</ele>
        <time>2021-08-25T14:19:25Z</time>
      </trkpt>
      <trkpt lat="45.49333" lon="2.93998">
        <ele>1047.5</ele>
        <time>2021-08-25T14:19:27Z</time>
      </trkpt>
      <trkpt lat="45.49341" lon="2.94009">
        <ele>1047.9</ele>
        <time>2021-08-25T14:19:29Z</time>
      </trkpt>
      <trkpt lat="45.49347" lon="2.94022">
        <ele>1047</ele>
        <time>2021-08-25T14:19:31Z</time>
      </trkpt>
      <trkpt lat="45.49354" lon="2.94034">
        <ele>1047.2</ele>
        <time>2021-08-25T14:19:33Z</time>
      </trkpt>
      <trkpt lat="45.4936" lon="2.94048">
        <ele>1045.9</ele>
        <time>2021-08-25T14:19:35Z</time>
      </trkpt>
      <trkpt lat="45.49364" lon="2.94057">
        <ele>1045.9</ele>
        <time>2021-08-25T14:19:37Z</time>
      </trkpt>
      <trkpt lat="45.49371" lon="2.94076">
        <ele>1044.2</ele>
        <time>2021-08-25T14:19:39Z</time>
      </trkpt>
      <trkpt lat="45.49377" lon="2.94089">
        <ele>1044.4</ele>
        <time>2021-08-25T14:19:41Z</time>
      </trkpt>
      <trkpt lat="45.49383" lon="2.94099">
        <ele>1045.1</ele>
        <time>2021-08-25T14:19:43Z</time>
      </trkpt>
      <trkpt lat="45.49388" lon="2.9411">
        <ele>1045.1</ele>
        <time>2021-08-25T14:19:45Z</time>
      </trkpt>
      <trkpt lat="45.49393" lon="2.94121">
        <ele>1045.6</ele>
        <time>2021-08-25T14:19:47Z</time>
      </trkpt>
      <trkpt lat="45.49398" lon="2.9413">
        <ele>1046.1</ele>
        <time>2021-08-25T14:19:49Z</time>
      </trkpt>
      <trkpt lat="45.49403" lon="2.94138">
        <ele>1046.5</ele>
        <time>2021-08-25T14:19:51Z</time>
      </trkpt>
      <trkpt lat="45.49406" lon="2.94145">
        <ele>1046.4</ele>
        <time>2021-08-25T14:19:53Z</time>
      </trkpt>
      <trkpt lat="45.4941" lon="2.94152">
        <ele>1046.2</ele>
        <time>2021-08-25T14:19:55Z</time>
      </trkpt>
      <trkpt lat="45.49415" lon="2.9416">
        <ele>1046.7</ele>
        <time>2021-08-25T14:19:57Z</time>
      </trkpt>
      <trkpt lat="45.49421" lon="2.94168">
        <ele>1047.5</ele>
        <time>2021-08-25T14:19:59Z</time>
      </trkpt>
      <trkpt lat="45.49429" lon="2.94175">
        <ele>1047.9</ele>
        <time>2021-08-25T14:20:01Z</time>
      </trkpt>
      <trkpt lat="45.49436" lon="2.94184">
        <ele>1047.8</ele>
        <time>2021-08-25T14:20:03Z</time>
      </trkpt>
      <trkpt lat="45.49444" lon="2.94191">
        <ele>1048.2</ele>
        <time>2021-08-25T14:20:05Z</time>
      </trkpt>
      <trkpt lat="45.49451" lon="2.942">
        <ele>1047.7</ele>
        <time>2021-08-25T14:20:07Z</time>
      </trkpt>
      <trkpt lat="45.49459" lon="2.94209">
        <ele>1047.3</ele>
        <time>2021-08-25T14:20:09Z</time>
      </trkpt>
      <trkpt lat="45.49467" lon="2.94216">
        <ele>1047.4</ele>
        <time>2021-08-25T14:20:11Z</time>
      </trkpt>
      <trkpt lat="45.49475" lon="2.94224">
        <ele>1047.3</ele>
        <time>2021-08-25T14:20:13Z</time>
      </trkpt>
      <trkpt lat="45.49484" lon="2.94231">
        <ele>1047.5</ele>
        <time>2021-08-25T14:20:15Z</time>
      </trkpt>
      <trkpt lat="45.49493" lon="2.94237">
        <ele>1048.1</ele>
        <time>2021-08-25T14:20:17Z</time>
      </trkpt>
      <trkpt lat="45.49503" lon="2.94245">
        <ele>1047.6</ele>
        <time>2021-08-25T14:20:19Z</time>
      </trkpt>
      <trkpt lat="45.49512" lon="2.94254">
        <ele>1045.6</ele>
        <time>2021-08-25T14:20:21Z</time>
      </trkpt>
      <trkpt lat="45.4952" lon="2.94263">
        <ele>1043.6</ele>
        <time>2021-08-25T14:20:23Z</time>
      </trkpt>
      <trkpt lat="45.4953" lon="2.9427">
        <ele>1042.4</ele>
        <time>2021-08-25T14:20:25Z</time>
      </trkpt>
      <trkpt lat="45.49539" lon="2.94276">
        <ele>1041.8</ele>
        <time>2021-08-25T14:20:27Z</time>
      </trkpt>
      <trkpt lat="45.49549" lon="2.94279">
        <ele>1042.6</ele>
        <time>2021-08-25T14:20:29Z</time>
      </trkpt>
      <trkpt lat="45.49558" lon="2.9428">
        <ele>1044.1</ele>
        <time>2021-08-25T14:20:31Z</time>
      </trkpt>
      <trkpt lat="45.49569" lon="2.94282">
        <ele>1045.7</ele>
        <time>2021-08-25T14:20:33Z</time>
      </trkpt>
      <trkpt lat="45.49579" lon="2.94283">
        <ele>1047.4</ele>
        <time>2021-08-25T14:20:35Z</time>
      </trkpt>
      <trkpt lat="45.49589" lon="2.94282">
        <ele>1049.3</ele>
        <time>2021-08-25T14:20:37Z</time>
      </trkpt>
      <trkpt lat="45.496" lon="2.94282">
        <ele>1050.9</ele>
        <time>2021-08-25T14:20:39Z</time>
      </trkpt>
      <trkpt lat="45.4961" lon="2.94283">
        <ele>1051.7</ele>
        <time>2021-08-25T14:20:41Z</time>
      </trkpt>
      <trkpt lat="45.49621" lon="2.94285">
        <ele>1052.5</ele>
        <time>2021-08-25T14:20:43Z</time>
      </trkpt>
      <trkpt lat="45.49634" lon="2.94285">
        <ele>1054</ele>
        <time>2021-08-25T14:20:45Z</time>
      </trkpt>
      <trkpt lat="45.49643" lon="2.94288">
        <ele>1054.3</ele>
        <time>2021-08-25T14:20:47Z</time>
      </trkpt>
      <trkpt lat="45.49654" lon="2.9429">
        <ele>1054.7</ele>
        <time>2021-08-25T14:20:49Z</time>
      </trkpt>
      <trkpt lat="45.49665" lon="2.94292">
        <ele>1055.3</ele>
        <time>2021-08-25T14:20:51Z</time>
      </trkpt>
      <trkpt lat="45.49674" lon="2.94292">
        <ele>1055.3</ele>
        <time>2021-08-25T14:20:53Z</time>
      </trkpt>
      <trkpt lat="45.49685" lon="2.94293">
        <ele>1055</ele>
        <time>2021-08-25T14:20:55Z</time>
      </trkpt>
      <trkpt lat="45.49695" lon="2.94293">
        <ele>1055</ele>
        <time>2021-08-25T14:20:57Z</time>
      </trkpt>
      <trkpt lat="45.49707" lon="2.94294">
        <ele>1054.6</ele>
        <time>2021-08-25T14:20:59Z</time>
      </trkpt>
      <trkpt lat="45.49717" lon="2.94297">
        <ele>1053.5</ele>
        <time>2021-08-25T14:21:01Z</time>
      </trkpt>
      <trkpt lat="45.49727" lon="2.94299">
        <ele>1052.4</ele>
        <time>2021-08-25T14:21:03Z</time>
      </trkpt>
      <trkpt lat="45.49738" lon="2.94301">
        <ele>1051.9</ele>
        <time>2021-08-25T14:21:05Z</time>
      </trkpt>
      <trkpt lat="45.49749" lon="2.94303">
        <ele>1050.7</ele>
        <time>2021-08-25T14:21:07Z</time>
      </trkpt>
      <trkpt lat="45.49759" lon="2.94305">
        <ele>1050.5</ele>
        <time>2021-08-25T14:21:09Z</time>
      </trkpt>
      <trkpt lat="45.49771" lon="2.94307">
        <ele>1050.8</ele>
        <time>2021-08-25T14:21:11Z</time>
      </trkpt>
      <trkpt lat="45.49782" lon="2.94309">
        <ele>1050.8</ele>
        <time>2021-08-25T14:21:13Z</time>
      </trkpt>
      <trkpt lat="45.49793" lon="2.94312">
        <ele>1050.3</ele>
        <time>2021-08-25T14:21:15Z</time>
      </trkpt>
      <trkpt lat="45.49804" lon="2.94316">
        <ele>1049.7</ele>
        <time>2021-08-25T14:21:17Z</time>
      </trkpt>
      <trkpt lat="45.49815" lon="2.94319">
        <ele>1049.5</ele>
        <time>2021-08-25T14:21:19Z</time>
      </trkpt>
      <trkpt lat="45.49826" lon="2.94321">
        <ele>1049.3</ele>
        <time>2021-08-25T14:21:21Z</time>
      </trkpt>
      <trkpt lat="45.49837" lon="2.94323">
        <ele>1049.5</ele>
        <time>2021-08-25T14:21:23Z</time>
      </trkpt>
      <trkpt lat="45.49848" lon="2.94322">
        <ele>1050.1</ele>
        <time>2021-08-25T14:21:25Z</time>
      </trkpt>
      <trkpt lat="45.49859" lon="2.94321">
        <ele>1050.7</ele>
        <time>2021-08-25T14:21:27Z</time>
      </trkpt>
      <trkpt lat="45.49869" lon="2.94321">
        <ele>1051</ele>
        <time>2021-08-25T14:21:29Z</time>
      </trkpt>
      <trkpt lat="45.4988" lon="2.94323">
        <ele>1050.5</ele>
        <time>2021-08-25T14:21:31Z</time>
      </trkpt>
      <trkpt lat="45.4989" lon="2.94325">
        <ele>1050.1</ele>
        <time>2021-08-25T14:21:33Z</time>
      </trkpt>
      <trkpt lat="45.49899" lon="2.94323">
        <ele>1051</ele>
        <time>2021-08-25T14:21:35Z</time>
      </trkpt>
      <trkpt lat="45.49907" lon="2.94322">
        <ele>1051.6</ele>
        <time>2021-08-25T14:21:37Z</time>
      </trkpt>
      <trkpt lat="45.49915" lon="2.94323">
        <ele>1051.6</ele>
        <time>2021-08-25T14:21:39Z</time>
      </trkpt>
      <trkpt lat="45.49923" lon="2.94327">
        <ele>1051.4</ele>
        <time>2021-08-25T14:21:41Z</time>
      </trkpt>
      <trkpt lat="45.4993" lon="2.94333">
        <ele>1050.5</ele>
        <time>2021-08-25T14:21:43Z</time>
      </trkpt>
      <trkpt lat="45.49937" lon="2.9434">
        <ele>1049</ele>
        <time>2021-08-25T14:21:45Z</time>
      </trkpt>
      <trkpt lat="45.49943" lon="2.94347">
        <ele>1047.1</ele>
        <time>2021-08-25T14:21:47Z</time>
      </trkpt>
      <trkpt lat="45.4995" lon="2.94351">
        <ele>1047.1</ele>
        <time>2021-08-25T14:21:49Z</time>
      </trkpt>
      <trkpt lat="45.49957" lon="2.94353">
        <ele>1047.3</ele>
        <time>2021-08-25T14:21:51Z</time>
      </trkpt>
      <trkpt lat="45.49962" lon="2.94357">
        <ele>1046.6</ele>
        <time>2021-08-25T14:21:53Z</time>
      </trkpt>
      <trkpt lat="45.49969" lon="2.9436">
        <ele>1046.5</ele>
        <time>2021-08-25T14:21:55Z</time>
      </trkpt>
      <trkpt lat="45.49975" lon="2.94362">
        <ele>1047</ele>
        <time>2021-08-25T14:21:57Z</time>
      </trkpt>
      <trkpt lat="45.49981" lon="2.94363">
        <ele>1047.7</ele>
        <time>2021-08-25T14:21:59Z</time>
      </trkpt>
      <trkpt lat="45.49988" lon="2.94365">
        <ele>1048.2</ele>
        <time>2021-08-25T14:22:01Z</time>
      </trkpt>
      <trkpt lat="45.49994" lon="2.94368">
        <ele>1048.3</ele>
        <time>2021-08-25T14:22:03Z</time>
      </trkpt>
      <trkpt lat="45.49999" lon="2.9437">
        <ele>1048.5</ele>
        <time>2021-08-25T14:22:05Z</time>
      </trkpt>
      <trkpt lat="45.50004" lon="2.94374">
        <ele>1048</ele>
        <time>2021-08-25T14:22:07Z</time>
      </trkpt>
      <trkpt lat="45.50011" lon="2.94378">
        <ele>1047.8</ele>
        <time>2021-08-25T14:22:09Z</time>
      </trkpt>
      <trkpt lat="45.50017" lon="2.94382">
        <ele>1047.5</ele>
        <time>2021-08-25T14:22:11Z</time>
      </trkpt>
      <trkpt lat="45.50022" lon="2.94384">
        <ele>1048</ele>
        <time>2021-08-25T14:22:13Z</time>
      </trkpt>
      <trkpt lat="45.50028" lon="2.94386">
        <ele>1048.6</ele>
        <time>2021-08-25T14:22:15Z</time>
      </trkpt>
      <trkpt lat="45.50033" lon="2.94388">
        <ele>1048.5</ele>
        <time>2021-08-25T14:22:17Z</time>
      </trkpt>
      <trkpt lat="45.50038" lon="2.94391">
        <ele>1048.7</ele>
        <time>2021-08-25T14:22:19Z</time>
      </trkpt>
      <trkpt lat="45.50044" lon="2.94393">
        <ele>1049.2</ele>
        <time>2021-08-25T14:22:21Z</time>
      </trkpt>
      <trkpt lat="45.5005" lon="2.94394">
        <ele>1050.1</ele>
        <time>2021-08-25T14:22:23Z</time>
      </trkpt>
      <trkpt lat="45.50056" lon="2.94396">
        <ele>1051</ele>
        <time>2021-08-25T14:22:25Z</time>
      </trkpt>
      <trkpt lat="45.50062" lon="2.94396">
        <ele>1052.5</ele>
        <time>2021-08-25T14:22:27Z</time>
      </trkpt>
      <trkpt lat="45.50067" lon="2.94396">
        <ele>1053.5</ele>
        <time>2021-08-25T14:22:29Z</time>
      </trkpt>
      <trkpt lat="45.50074" lon="2.94398">
        <ele>1054.4</ele>
        <time>2021-08-25T14:22:31Z</time>
      </trkpt>
      <trkpt lat="45.5008" lon="2.94399">
        <ele>1055.5</ele>
        <time>2021-08-25T14:22:33Z</time>
      </trkpt>
      <trkpt lat="45.50086" lon="2.944">
        <ele>1055.9</ele>
        <time>2021-08-25T14:22:35Z</time>
      </trkpt>
      <trkpt lat="45.50091" lon="2.94401">
        <ele>1056.1</ele>
        <time>2021-08-25T14:22:37Z</time>
      </trkpt>
      <trkpt lat="45.50097" lon="2.94401">
        <ele>1056.4</ele>
        <time>2021-08-25T14:22:39Z</time>
      </trkpt>
      <trkpt lat="45.50103" lon="2.94402">
        <ele>1056.5</ele>
        <time>2021-08-25T14:22:41Z</time>
      </trkpt>
      <trkpt lat="45.5011" lon="2.94403">
        <ele>1056.5</ele>
        <time>2021-08-25T14:22:43Z</time>
      </trkpt>
      <trkpt lat="45.50116" lon="2.94405">
        <ele>1056.1</ele>
        <time>2021-08-25T14:22:45Z</time>
      </trkpt>
      <trkpt lat="45.50122" lon="2.94406">
        <ele>1056.3</ele>
        <time>2021-08-25T14:22:47Z</time>
      </trkpt>
      <trkpt lat="45.50127" lon="2.94407">
        <ele>1056.2</ele>
        <time>2021-08-25T14:22:49Z</time>
      </trkpt>
      <trkpt lat="45.50133" lon="2.9441">
        <ele>1055.6</ele>
        <time>2021-08-25T14:22:51Z</time>
      </trkpt>
      <trkpt lat="45.50138" lon="2.94411">
        <ele>1055.2</ele>
        <time>2021-08-25T14:22:53Z</time>
      </trkpt>
      <trkpt lat="45.50144" lon="2.94412">
        <ele>1055.4</ele>
        <time>2021-08-25T14:22:55Z</time>
      </trkpt>
      <trkpt lat="45.50151" lon="2.94412">
        <ele>1055.8</ele>
        <time>2021-08-25T14:22:57Z</time>
      </trkpt>
      <trkpt lat="45.50157" lon="2.94412">
        <ele>1056.2</ele>
        <time>2021-08-25T14:22:59Z</time>
      </trkpt>
      <trkpt lat="45.50164" lon="2.94413">
        <ele>1056.5</ele>
        <time>2021-08-25T14:23:01Z</time>
      </trkpt>
      <trkpt lat="45.50171" lon="2.94413">
        <ele>1057.4</ele>
        <time>2021-08-25T14:23:03Z</time>
      </trkpt>
      <trkpt lat="45.50177" lon="2.94413">
        <ele>1058.3</ele>
        <time>2021-08-25T14:23:05Z</time>
      </trkpt>
      <trkpt lat="45.50183" lon="2.94414">
        <ele>1058.8</ele>
        <time>2021-08-25T14:23:07Z</time>
      </trkpt>
      <trkpt lat="45.50189" lon="2.94415">
        <ele>1059.4</ele>
        <time>2021-08-25T14:23:09Z</time>
      </trkpt>
      <trkpt lat="45.50195" lon="2.94414">
        <ele>1060.5</ele>
        <time>2021-08-25T14:23:11Z</time>
      </trkpt>
      <trkpt lat="45.50201" lon="2.94414">
        <ele>1061.5</ele>
        <time>2021-08-25T14:23:13Z</time>
      </trkpt>
      <trkpt lat="45.50206" lon="2.94414">
        <ele>1062.4</ele>
        <time>2021-08-25T14:23:15Z</time>
      </trkpt>
      <trkpt lat="45.50212" lon="2.94415">
        <ele>1063.1</ele>
        <time>2021-08-25T14:23:17Z</time>
      </trkpt>
      <trkpt lat="45.50219" lon="2.94416">
        <ele>1064</ele>
        <time>2021-08-25T14:23:19Z</time>
      </trkpt>
      <trkpt lat="45.50226" lon="2.94418">
        <ele>1064.4</ele>
        <time>2021-08-25T14:23:21Z</time>
      </trkpt>
      <trkpt lat="45.50232" lon="2.94418">
        <ele>1065.3</ele>
        <time>2021-08-25T14:23:23Z</time>
      </trkpt>
      <trkpt lat="45.50239" lon="2.94418">
        <ele>1066.4</ele>
        <time>2021-08-25T14:23:25Z</time>
      </trkpt>
      <trkpt lat="45.50246" lon="2.9442">
        <ele>1066.6</ele>
        <time>2021-08-25T14:23:27Z</time>
      </trkpt>
      <trkpt lat="45.50253" lon="2.94422">
        <ele>1066.2</ele>
        <time>2021-08-25T14:23:29Z</time>
      </trkpt>
      <trkpt lat="45.50262" lon="2.94423">
        <ele>1064.8</ele>
        <time>2021-08-25T14:23:31Z</time>
      </trkpt>
      <trkpt lat="45.50269" lon="2.94426">
        <ele>1062.9</ele>
        <time>2021-08-25T14:23:33Z</time>
      </trkpt>
      <trkpt lat="45.50277" lon="2.94429">
        <ele>1061</ele>
        <time>2021-08-25T14:23:35Z</time>
      </trkpt>
      <trkpt lat="45.50284" lon="2.94431">
        <ele>1059.5</ele>
        <time>2021-08-25T14:23:37Z</time>
      </trkpt>
      <trkpt lat="45.50291" lon="2.94434">
        <ele>1057.9</ele>
        <time>2021-08-25T14:23:39Z</time>
      </trkpt>
      <trkpt lat="45.50298" lon="2.94436">
        <ele>1056.7</ele>
        <time>2021-08-25T14:23:41Z</time>
      </trkpt>
      <trkpt lat="45.50307" lon="2.94439">
        <ele>1055.3</ele>
        <time>2021-08-25T14:23:43Z</time>
      </trkpt>
      <trkpt lat="45.50314" lon="2.94442">
        <ele>1054.1</ele>
        <time>2021-08-25T14:23:45Z</time>
      </trkpt>
      <trkpt lat="45.50323" lon="2.94445">
        <ele>1052.8</ele>
        <time>2021-08-25T14:23:47Z</time>
      </trkpt>
      <trkpt lat="45.50331" lon="2.94449">
        <ele>1051.5</ele>
        <time>2021-08-25T14:23:49Z</time>
      </trkpt>
      <trkpt lat="45.50339" lon="2.94453">
        <ele>1049.6</ele>
        <time>2021-08-25T14:23:51Z</time>
      </trkpt>
      <trkpt lat="45.50347" lon="2.94459">
        <ele>1047.5</ele>
        <time>2021-08-25T14:23:53Z</time>
      </trkpt>
      <trkpt lat="45.50354" lon="2.94464">
        <ele>1045.7</ele>
        <time>2021-08-25T14:23:55Z</time>
      </trkpt>
      <trkpt lat="45.50361" lon="2.9447">
        <ele>1044.2</ele>
        <time>2021-08-25T14:23:57Z</time>
      </trkpt>
      <trkpt lat="45.50367" lon="2.94475">
        <ele>1043.1</ele>
        <time>2021-08-25T14:23:59Z</time>
      </trkpt>
      <trkpt lat="45.50373" lon="2.94479">
        <ele>1042.3</ele>
        <time>2021-08-25T14:24:01Z</time>
      </trkpt>
      <trkpt lat="45.50378" lon="2.9448">
        <ele>1041.9</ele>
        <time>2021-08-25T14:24:03Z</time>
      </trkpt>
      <trkpt lat="45.50384" lon="2.94481">
        <ele>1041.7</ele>
        <time>2021-08-25T14:24:05Z</time>
      </trkpt>
      <trkpt lat="45.50389" lon="2.9448">
        <ele>1041.6</ele>
        <time>2021-08-25T14:24:07Z</time>
      </trkpt>
      <trkpt lat="45.50394" lon="2.94478">
        <ele>1041.6</ele>
        <time>2021-08-25T14:24:09Z</time>
      </trkpt>
      <trkpt lat="45.50398" lon="2.94476">
        <ele>1041.5</ele>
        <time>2021-08-25T14:24:11Z</time>
      </trkpt>
      <trkpt lat="45.50401" lon="2.94473">
        <ele>1041.5</ele>
        <time>2021-08-25T14:24:13Z</time>
      </trkpt>
      <trkpt lat="45.50404" lon="2.9447">
        <ele>1041.5</ele>
        <time>2021-08-25T14:24:15Z</time>
      </trkpt>
      <trkpt lat="45.50406" lon="2.94465">
        <ele>1041.5</ele>
        <time>2021-08-25T14:24:17Z</time>
      </trkpt>
      <trkpt lat="45.50407" lon="2.94458">
        <ele>1041.4</ele>
        <time>2021-08-25T14:24:19Z</time>
      </trkpt>
      <trkpt lat="45.50409" lon="2.94451">
        <ele>1041.4</ele>
        <time>2021-08-25T14:24:21Z</time>
      </trkpt>
      <trkpt lat="45.50409" lon="2.94442">
        <ele>1041.5</ele>
        <time>2021-08-25T14:24:23Z</time>
      </trkpt>
      <trkpt lat="45.50409" lon="2.94434">
        <ele>1041.7</ele>
        <time>2021-08-25T14:24:25Z</time>
      </trkpt>
      <trkpt lat="45.50409" lon="2.94425">
        <ele>1041.6</ele>
        <time>2021-08-25T14:24:27Z</time>
      </trkpt>
      <trkpt lat="45.5041" lon="2.94416">
        <ele>1041.6</ele>
        <time>2021-08-25T14:24:29Z</time>
      </trkpt>
      <trkpt lat="45.50411" lon="2.94406">
        <ele>1041.5</ele>
        <time>2021-08-25T14:24:31Z</time>
      </trkpt>
      <trkpt lat="45.50411" lon="2.94394">
        <ele>1041.5</ele>
        <time>2021-08-25T14:24:33Z</time>
      </trkpt>
      <trkpt lat="45.50412" lon="2.94381">
        <ele>1041.2</ele>
        <time>2021-08-25T14:24:35Z</time>
      </trkpt>
      <trkpt lat="45.50412" lon="2.94372">
        <ele>1041.2</ele>
        <time>2021-08-25T14:24:37Z</time>
      </trkpt>
      <trkpt lat="45.50412" lon="2.94363">
        <ele>1041.1</ele>
        <time>2021-08-25T14:24:39Z</time>
      </trkpt>
      <trkpt lat="45.50413" lon="2.94355">
        <ele>1040.9</ele>
        <time>2021-08-25T14:24:41Z</time>
      </trkpt>
      <trkpt lat="45.50414" lon="2.94345">
        <ele>1040.7</ele>
        <time>2021-08-25T14:24:43Z</time>
      </trkpt>
      <trkpt lat="45.50417" lon="2.94335">
        <ele>1040</ele>
        <time>2021-08-25T14:24:45Z</time>
      </trkpt>
      <trkpt lat="45.50418" lon="2.94323">
        <ele>1039.9</ele>
        <time>2021-08-25T14:24:47Z</time>
      </trkpt>
      <trkpt lat="45.50419" lon="2.94314">
        <ele>1039.8</ele>
        <time>2021-08-25T14:24:49Z</time>
      </trkpt>
      <trkpt lat="45.5042" lon="2.94305">
        <ele>1039.7</ele>
        <time>2021-08-25T14:24:51Z</time>
      </trkpt>
      <trkpt lat="45.50421" lon="2.94294">
        <ele>1039.6</ele>
        <time>2021-08-25T14:24:53Z</time>
      </trkpt>
      <trkpt lat="45.50421" lon="2.94282">
        <ele>1039.7</ele>
        <time>2021-08-25T14:24:55Z</time>
      </trkpt>
      <trkpt lat="45.5042" lon="2.9427">
        <ele>1040.1</ele>
        <time>2021-08-25T14:24:57Z</time>
      </trkpt>
      <trkpt lat="45.50419" lon="2.94256">
        <ele>1040.6</ele>
        <time>2021-08-25T14:24:59Z</time>
      </trkpt>
      <trkpt lat="45.50418" lon="2.94241">
        <ele>1040.7</ele>
        <time>2021-08-25T14:25:01Z</time>
      </trkpt>
      <trkpt lat="45.50417" lon="2.94224">
        <ele>1040.6</ele>
        <time>2021-08-25T14:25:03Z</time>
      </trkpt>
      <trkpt lat="45.50418" lon="2.94206">
        <ele>1040.3</ele>
        <time>2021-08-25T14:25:05Z</time>
      </trkpt>
      <trkpt lat="45.50419" lon="2.94186">
        <ele>1039.9</ele>
        <time>2021-08-25T14:25:07Z</time>
      </trkpt>
      <trkpt lat="45.5042" lon="2.94166">
        <ele>1039.4</ele>
        <time>2021-08-25T14:25:09Z</time>
      </trkpt>
      <trkpt lat="45.50422" lon="2.94144">
        <ele>1038.8</ele>
        <time>2021-08-25T14:25:11Z</time>
      </trkpt>
      <trkpt lat="45.50423" lon="2.94121">
        <ele>1038.3</ele>
        <time>2021-08-25T14:25:13Z</time>
      </trkpt>
      <trkpt lat="45.50426" lon="2.94098">
        <ele>1037.6</ele>
        <time>2021-08-25T14:25:15Z</time>
      </trkpt>
      <trkpt lat="45.50432" lon="2.94075">
        <ele>1037.1</ele>
        <time>2021-08-25T14:25:17Z</time>
      </trkpt>
      <trkpt lat="45.50441" lon="2.94056">
        <ele>1036.9</ele>
        <time>2021-08-25T14:25:19Z</time>
      </trkpt>
      <trkpt lat="45.50453" lon="2.94039">
        <ele>1036.8</ele>
        <time>2021-08-25T14:25:21Z</time>
      </trkpt>
      <trkpt lat="45.50466" lon="2.94027">
        <ele>1036.6</ele>
        <time>2021-08-25T14:25:23Z</time>
      </trkpt>
      <trkpt lat="45.5048" lon="2.94019">
        <ele>1036.5</ele>
        <time>2021-08-25T14:25:25Z</time>
      </trkpt>
      <trkpt lat="45.50494" lon="2.94016">
        <ele>1036.3</ele>
        <time>2021-08-25T14:25:27Z</time>
      </trkpt>
      <trkpt lat="45.50508" lon="2.94016">
        <ele>1036.6</ele>
        <time>2021-08-25T14:25:29Z</time>
      </trkpt>
      <trkpt lat="45.5052" lon="2.9402">
        <ele>1037.1</ele>
        <time>2021-08-25T14:25:31Z</time>
      </trkpt>
      <trkpt lat="45.50531" lon="2.94026">
        <ele>1037.4</ele>
        <time>2021-08-25T14:25:33Z</time>
      </trkpt>
      <trkpt lat="45.50541" lon="2.94033">
        <ele>1037.5</ele>
        <time>2021-08-25T14:25:35Z</time>
      </trkpt>
      <trkpt lat="45.50549" lon="2.94042">
        <ele>1037.3</ele>
        <time>2021-08-25T14:25:37Z</time>
      </trkpt>
      <trkpt lat="45.50557" lon="2.9405">
        <ele>1037.2</ele>
        <time>2021-08-25T14:25:39Z</time>
      </trkpt>
      <trkpt lat="45.50563" lon="2.94056">
        <ele>1037.1</ele>
        <time>2021-08-25T14:25:41Z</time>
      </trkpt>
      <trkpt lat="45.50569" lon="2.94063">
        <ele>1036.9</ele>
        <time>2021-08-25T14:25:43Z</time>
      </trkpt>
      <trkpt lat="45.50575" lon="2.94068">
        <ele>1036.8</ele>
        <time>2021-08-25T14:25:45Z</time>
      </trkpt>
      <trkpt lat="45.50581" lon="2.94073">
        <ele>1036.6</ele>
        <time>2021-08-25T14:25:47Z</time>
      </trkpt>
      <trkpt lat="45.50587" lon="2.94077">
        <ele>1036.7</ele>
        <time>2021-08-25T14:25:49Z</time>
      </trkpt>
      <trkpt lat="45.50593" lon="2.9408">
        <ele>1036.9</ele>
        <time>2021-08-25T14:25:51Z</time>
      </trkpt>
      <trkpt lat="45.50599" lon="2.94082">
        <ele>1037.3</ele>
        <time>2021-08-25T14:25:53Z</time>
      </trkpt>
      <trkpt lat="45.50605" lon="2.94083">
        <ele>1037.6</ele>
        <time>2021-08-25T14:25:55Z</time>
      </trkpt>
      <trkpt lat="45.50611" lon="2.94084">
        <ele>1037.9</ele>
        <time>2021-08-25T14:25:57Z</time>
      </trkpt>
      <trkpt lat="45.50616" lon="2.94084">
        <ele>1038.3</ele>
        <time>2021-08-25T14:25:59Z</time>
      </trkpt>
      <trkpt lat="45.50622" lon="2.94085">
        <ele>1038.7</ele>
        <time>2021-08-25T14:26:01Z</time>
      </trkpt>
      <trkpt lat="45.50627" lon="2.94084">
        <ele>1039.1</ele>
        <time>2021-08-25T14:26:03Z</time>
      </trkpt>
      <trkpt lat="45.50631" lon="2.94085">
        <ele>1039.3</ele>
        <time>2021-08-25T14:26:05Z</time>
      </trkpt>
      <trkpt lat="45.50634" lon="2.9409">
        <ele>1039.1</ele>
        <time>2021-08-25T14:26:07Z</time>
      </trkpt>
      <trkpt lat="45.50636" lon="2.94096">
        <ele>1038.9</ele>
        <time>2021-08-25T14:26:09Z</time>
      </trkpt>
      <trkpt lat="45.50638" lon="2.94101">
        <ele>1038.6</ele>
        <time>2021-08-25T14:26:11Z</time>
      </trkpt>
      <trkpt lat="45.50635" lon="2.94104">
        <ele>1038.2</ele>
        <time>2021-08-25T14:26:13Z</time>
      </trkpt>
      <trkpt lat="45.50634" lon="2.94106">
        <ele>1038</ele>
        <time>2021-08-25T14:26:15Z</time>
      </trkpt>
      <trkpt lat="45.50634" lon="2.94106">
        <ele>1038</ele>
        <time>2021-08-25T14:26:17Z</time>
      </trkpt>
      <trkpt lat="45.50634" lon="2.94106">
        <ele>1038</ele>
        <time>2021-08-25T14:26:19Z</time>
      </trkpt>
      <trkpt lat="45.50705" lon="2.94055">
        <ele>1042.1</ele>
        <time>2021-08-25T14:33:27Z</time>
      </trkpt>
      <trkpt lat="45.50708" lon="2.94053">
        <ele>1042.1</ele>
        <time>2021-08-25T14:33:29Z</time>
      </trkpt>
      <trkpt lat="45.50712" lon="2.94051">
        <ele>1042</ele>
        <time>2021-08-25T14:33:31Z</time>
      </trkpt>
      <trkpt lat="45.50716" lon="2.94049">
        <ele>1042</ele>
        <time>2021-08-25T14:33:33Z</time>
      </trkpt>
      <trkpt lat="45.5072" lon="2.94045">
        <ele>1042.2</ele>
        <time>2021-08-25T14:33:35Z</time>
      </trkpt>
      <trkpt lat="45.50722" lon="2.9404">
        <ele>1042.5</ele>
        <time>2021-08-25T14:33:37Z</time>
      </trkpt>
      <trkpt lat="45.50723" lon="2.94037">
        <ele>1042.7</ele>
        <time>2021-08-25T14:33:39Z</time>
      </trkpt>
      <trkpt lat="45.50725" lon="2.94034">
        <ele>1042.9</ele>
        <time>2021-08-25T14:33:41Z</time>
      </trkpt>
      <trkpt lat="45.50726" lon="2.9403">
        <ele>1043.2</ele>
        <time>2021-08-25T14:33:43Z</time>
      </trkpt>
      <trkpt lat="45.50728" lon="2.94028">
        <ele>1043.3</ele>
        <time>2021-08-25T14:33:45Z</time>
      </trkpt>
      <trkpt lat="45.50729" lon="2.94027">
        <ele>1043.3</ele>
        <time>2021-08-25T14:33:47Z</time>
      </trkpt>
      <trkpt lat="45.50728" lon="2.94027">
        <ele>1043.3</ele>
        <time>2021-08-25T14:33:49Z</time>
      </trkpt>
      <trkpt lat="45.50729" lon="2.94025">
        <ele>1043.5</ele>
        <time>2021-08-25T14:33:51Z</time>
      </trkpt>
      <trkpt lat="45.50731" lon="2.94021">
        <ele>1043.8</ele>
        <time>2021-08-25T14:33:53Z</time>
      </trkpt>
      <trkpt lat="45.50733" lon="2.94017">
        <ele>1044.1</ele>
        <time>2021-08-25T14:33:55Z</time>
      </trkpt>
      <trkpt lat="45.50735" lon="2.94012">
        <ele>1044.4</ele>
        <time>2021-08-25T14:33:57Z</time>
      </trkpt>
      <trkpt lat="45.50739" lon="2.94008">
        <ele>1044.7</ele>
        <time>2021-08-25T14:33:59Z</time>
      </trkpt>
      <trkpt lat="45.50741" lon="2.94002">
        <ele>1045.1</ele>
        <time>2021-08-25T14:34:01Z</time>
      </trkpt>
      <trkpt lat="45.50744" lon="2.93997">
        <ele>1045.3</ele>
        <time>2021-08-25T14:34:03Z</time>
      </trkpt>
      <trkpt lat="45.50747" lon="2.93991">
        <ele>1045.4</ele>
        <time>2021-08-25T14:34:05Z</time>
      </trkpt>
      <trkpt lat="45.5075" lon="2.93984">
        <ele>1045.6</ele>
        <time>2021-08-25T14:34:07Z</time>
      </trkpt>
      <trkpt lat="45.50754" lon="2.93978">
        <ele>1045.6</ele>
        <time>2021-08-25T14:34:09Z</time>
      </trkpt>
      <trkpt lat="45.50757" lon="2.93971">
        <ele>1045.7</ele>
        <time>2021-08-25T14:34:11Z</time>
      </trkpt>
      <trkpt lat="45.50761" lon="2.93963">
        <ele>1045.8</ele>
        <time>2021-08-25T14:34:13Z</time>
      </trkpt>
      <trkpt lat="45.50764" lon="2.93956">
        <ele>1045.9</ele>
        <time>2021-08-25T14:34:15Z</time>
      </trkpt>
      <trkpt lat="45.50767" lon="2.93948">
        <ele>1046</ele>
        <time>2021-08-25T14:34:17Z</time>
      </trkpt>
      <trkpt lat="45.50771" lon="2.9394">
        <ele>1046.1</ele>
        <time>2021-08-25T14:34:19Z</time>
      </trkpt>
      <trkpt lat="45.50775" lon="2.93932">
        <ele>1046.2</ele>
        <time>2021-08-25T14:34:21Z</time>
      </trkpt>
      <trkpt lat="45.50779" lon="2.93924">
        <ele>1046.4</ele>
        <time>2021-08-25T14:34:23Z</time>
      </trkpt>
      <trkpt lat="45.50783" lon="2.93915">
        <ele>1046.5</ele>
        <time>2021-08-25T14:34:25Z</time>
      </trkpt>
      <trkpt lat="45.50787" lon="2.93906">
        <ele>1046.5</ele>
        <time>2021-08-25T14:34:27Z</time>
      </trkpt>
      <trkpt lat="45.50791" lon="2.93897">
        <ele>1046.6</ele>
        <time>2021-08-25T14:34:29Z</time>
      </trkpt>
      <trkpt lat="45.50795" lon="2.93887">
        <ele>1046.7</ele>
        <time>2021-08-25T14:34:31Z</time>
      </trkpt>
      <trkpt lat="45.508" lon="2.93878">
        <ele>1046.8</ele>
        <time>2021-08-25T14:34:33Z</time>
      </trkpt>
      <trkpt lat="45.50804" lon="2.93869">
        <ele>1046.9</ele>
        <time>2021-08-25T14:34:35Z</time>
      </trkpt>
      <trkpt lat="45.50809" lon="2.9386">
        <ele>1047</ele>
        <time>2021-08-25T14:34:37Z</time>
      </trkpt>
      <trkpt lat="45.50813" lon="2.9385">
        <ele>1047.2</ele>
        <time>2021-08-25T14:34:39Z</time>
      </trkpt>
      <trkpt lat="45.50817" lon="2.93841">
        <ele>1047.3</ele>
        <time>2021-08-25T14:34:41Z</time>
      </trkpt>
      <trkpt lat="45.50821" lon="2.93832">
        <ele>1047.5</ele>
        <time>2021-08-25T14:34:43Z</time>
      </trkpt>
      <trkpt lat="45.50826" lon="2.93822">
        <ele>1047.8</ele>
        <time>2021-08-25T14:34:45Z</time>
      </trkpt>
      <trkpt lat="45.5083" lon="2.93813">
        <ele>1048.1</ele>
        <time>2021-08-25T14:34:47Z</time>
      </trkpt>
      <trkpt lat="45.50834" lon="2.93803">
        <ele>1048.4</ele>
        <time>2021-08-25T14:34:49Z</time>
      </trkpt>
      <trkpt lat="45.50838" lon="2.93794">
        <ele>1048.5</ele>
        <time>2021-08-25T14:34:51Z</time>
      </trkpt>
      <trkpt lat="45.50841" lon="2.93783">
        <ele>1048.6</ele>
        <time>2021-08-25T14:34:53Z</time>
      </trkpt>
      <trkpt lat="45.50845" lon="2.93772">
        <ele>1048.8</ele>
        <time>2021-08-25T14:34:55Z</time>
      </trkpt>
      <trkpt lat="45.5085" lon="2.9376">
        <ele>1048.8</ele>
        <time>2021-08-25T14:34:57Z</time>
      </trkpt>
      <trkpt lat="45.50855" lon="2.93747">
        <ele>1048.8</ele>
        <time>2021-08-25T14:34:59Z</time>
      </trkpt>
      <trkpt lat="45.5086" lon="2.93733">
        <ele>1048.4</ele>
        <time>2021-08-25T14:35:01Z</time>
      </trkpt>
      <trkpt lat="45.50865" lon="2.93718">
        <ele>1048</ele>
        <time>2021-08-25T14:35:03Z</time>
      </trkpt>
      <trkpt lat="45.50871" lon="2.93702">
        <ele>1047.6</ele>
        <time>2021-08-25T14:35:05Z</time>
      </trkpt>
      <trkpt lat="45.50875" lon="2.93685">
        <ele>1047.3</ele>
        <time>2021-08-25T14:35:07Z</time>
      </trkpt>
      <trkpt lat="45.50881" lon="2.93668">
        <ele>1046.7</ele>
        <time>2021-08-25T14:35:09Z</time>
      </trkpt>
      <trkpt lat="45.50885" lon="2.93649">
        <ele>1046.1</ele>
        <time>2021-08-25T14:35:11Z</time>
      </trkpt>
      <trkpt lat="45.5089" lon="2.9363">
        <ele>1045.3</ele>
        <time>2021-08-25T14:35:13Z</time>
      </trkpt>
      <trkpt lat="45.50894" lon="2.93611">
        <ele>1044.6</ele>
        <time>2021-08-25T14:35:15Z</time>
      </trkpt>
      <trkpt lat="45.50899" lon="2.93591">
        <ele>1043.7</ele>
        <time>2021-08-25T14:35:17Z</time>
      </trkpt>
      <trkpt lat="45.50904" lon="2.93572">
        <ele>1043.3</ele>
        <time>2021-08-25T14:35:19Z</time>
      </trkpt>
      <trkpt lat="45.50908" lon="2.93552">
        <ele>1043</ele>
        <time>2021-08-25T14:35:21Z</time>
      </trkpt>
      <trkpt lat="45.50913" lon="2.93532">
        <ele>1042.8</ele>
        <time>2021-08-25T14:35:23Z</time>
      </trkpt>
      <trkpt lat="45.50918" lon="2.93512">
        <ele>1042.6</ele>
        <time>2021-08-25T14:35:25Z</time>
      </trkpt>
      <trkpt lat="45.50924" lon="2.93493">
        <ele>1042.4</ele>
        <time>2021-08-25T14:35:27Z</time>
      </trkpt>
      <trkpt lat="45.50931" lon="2.93479">
        <ele>1042</ele>
        <time>2021-08-25T14:35:29Z</time>
      </trkpt>
      <trkpt lat="45.50937" lon="2.93469">
        <ele>1041.7</ele>
        <time>2021-08-25T14:35:31Z</time>
      </trkpt>
      <trkpt lat="45.50941" lon="2.93462">
        <ele>1041.5</ele>
        <time>2021-08-25T14:35:33Z</time>
      </trkpt>
      <trkpt lat="45.50945" lon="2.93455">
        <ele>1041.4</ele>
        <time>2021-08-25T14:35:35Z</time>
      </trkpt>
      <trkpt lat="45.50947" lon="2.93451">
        <ele>1041.3</ele>
        <time>2021-08-25T14:35:37Z</time>
      </trkpt>
      <trkpt lat="45.5095" lon="2.93448">
        <ele>1041.2</ele>
        <time>2021-08-25T14:35:39Z</time>
      </trkpt>
      <trkpt lat="45.50952" lon="2.93448">
        <ele>1041.1</ele>
        <time>2021-08-25T14:35:41Z</time>
      </trkpt>
      <trkpt lat="45.50953" lon="2.93448">
        <ele>1041.1</ele>
        <time>2021-08-25T14:35:43Z</time>
      </trkpt>
      <trkpt lat="45.50953" lon="2.93448">
        <ele>1041.1</ele>
        <time>2021-08-25T14:35:45Z</time>
      </trkpt>
      <trkpt lat="45.50953" lon="2.93447">
        <ele>1041</ele>
        <time>2021-08-25T14:35:47Z</time>
      </trkpt>
      <trkpt lat="45.50959" lon="2.93505">
        <ele>1039.2</ele>
        <time>2021-08-25T14:36:09Z</time>
      </trkpt>
      <trkpt lat="45.5096" lon="2.9352">
        <ele>1038.6</ele>
        <time>2021-08-25T14:36:11Z</time>
      </trkpt>
      <trkpt lat="45.50961" lon="2.93536">
        <ele>1037.9</ele>
        <time>2021-08-25T14:36:13Z</time>
      </trkpt>
      <trkpt lat="45.50962" lon="2.93549">
        <ele>1037.3</ele>
        <time>2021-08-25T14:36:15Z</time>
      </trkpt>
      <trkpt lat="45.50964" lon="2.9356">
        <ele>1036.7</ele>
        <time>2021-08-25T14:36:17Z</time>
      </trkpt>
      <trkpt lat="45.50967" lon="2.93571">
        <ele>1036.1</ele>
        <time>2021-08-25T14:36:19Z</time>
      </trkpt>
      <trkpt lat="45.50968" lon="2.93584">
        <ele>1035.5</ele>
        <time>2021-08-25T14:36:21Z</time>
      </trkpt>
      <trkpt lat="45.5097" lon="2.93592">
        <ele>1035.1</ele>
        <time>2021-08-25T14:36:23Z</time>
      </trkpt>
      <trkpt lat="45.50973" lon="2.93592">
        <ele>1034.8</ele>
        <time>2021-08-25T14:36:25Z</time>
      </trkpt>
      <trkpt lat="45.50976" lon="2.93586">
        <ele>1034.6</ele>
        <time>2021-08-25T14:36:27Z</time>
      </trkpt>
      <trkpt lat="45.50976" lon="2.93581">
        <ele>1034.7</ele>
        <time>2021-08-25T14:36:29Z</time>
      </trkpt>
      <trkpt lat="45.50976" lon="2.93572">
        <ele>1035.1</ele>
        <time>2021-08-25T14:36:31Z</time>
      </trkpt>
      <trkpt lat="45.50975" lon="2.93563">
        <ele>1035.5</ele>
        <time>2021-08-25T14:36:33Z</time>
      </trkpt>
      <trkpt lat="45.50973" lon="2.93554">
        <ele>1036.1</ele>
        <time>2021-08-25T14:36:35Z</time>
      </trkpt>
      <trkpt lat="45.50973" lon="2.93546">
        <ele>1036.5</ele>
        <time>2021-08-25T14:36:37Z</time>
      </trkpt>
      <trkpt lat="45.50973" lon="2.93538">
        <ele>1036.8</ele>
        <time>2021-08-25T14:36:39Z</time>
      </trkpt>
      <trkpt lat="45.50973" lon="2.9353">
        <ele>1037</ele>
        <time>2021-08-25T14:36:41Z</time>
      </trkpt>
      <trkpt lat="45.50973" lon="2.93523">
        <ele>1037.4</ele>
        <time>2021-08-25T14:36:43Z</time>
      </trkpt>
      <trkpt lat="45.50972" lon="2.93521">
        <ele>1037.5</ele>
        <time>2021-08-25T14:36:45Z</time>
      </trkpt>
      <trkpt lat="45.50972" lon="2.93514">
        <ele>1037.8</ele>
        <time>2021-08-25T14:36:47Z</time>
      </trkpt>
      <trkpt lat="45.50974" lon="2.93506">
        <ele>1037.9</ele>
        <time>2021-08-25T14:36:49Z</time>
      </trkpt>
      <trkpt lat="45.50977" lon="2.93502">
        <ele>1037.8</ele>
        <time>2021-08-25T14:36:51Z</time>
      </trkpt>
      <trkpt lat="45.50983" lon="2.93501">
        <ele>1037.4</ele>
        <time>2021-08-25T14:36:53Z</time>
      </trkpt>
      <trkpt lat="45.50988" lon="2.93501">
        <ele>1037</ele>
        <time>2021-08-25T14:36:55Z</time>
      </trkpt>
      <trkpt lat="45.50991" lon="2.93497">
        <ele>1036.9</ele>
        <time>2021-08-25T14:36:57Z</time>
      </trkpt>
      <trkpt lat="45.50992" lon="2.93491">
        <ele>1037</ele>
        <time>2021-08-25T14:36:59Z</time>
      </trkpt>
      <trkpt lat="45.50996" lon="2.93492">
        <ele>1036.7</ele>
        <time>2021-08-25T14:37:01Z</time>
      </trkpt>
      <trkpt lat="45.50996" lon="2.93489">
        <ele>1036.9</ele>
        <time>2021-08-25T14:37:03Z</time>
      </trkpt>
      <trkpt lat="45.50995" lon="2.93486">
        <ele>1037</ele>
        <time>2021-08-25T14:37:05Z</time>
      </trkpt>
      <trkpt lat="45.50995" lon="2.93486">
        <ele>1037.1</ele>
        <time>2021-08-25T14:37:07Z</time>
      </trkpt>
      <trkpt lat="45.50995" lon="2.93485">
        <ele>1037.1</ele>
        <time>2021-08-25T14:37:09Z</time>
      </trkpt>
      <trkpt lat="45.50995" lon="2.93485">
        <ele>1037.1</ele>
        <time>2021-08-25T14:37:11Z</time>
      </trkpt>
      <trkpt lat="45.50985" lon="2.93463">
        <ele>1038.7</ele>
        <time>2021-08-25T15:12:39Z</time>
      </trkpt>
      <trkpt lat="45.50983" lon="2.93457">
        <ele>1039.1</ele>
        <time>2021-08-25T15:12:41Z</time>
      </trkpt>
      <trkpt lat="45.50981" lon="2.93453">
        <ele>1039.4</ele>
        <time>2021-08-25T15:12:43Z</time>
      </trkpt>
      <trkpt lat="45.5098" lon="2.93447">
        <ele>1039.6</ele>
        <time>2021-08-25T15:12:45Z</time>
      </trkpt>
      <trkpt lat="45.50983" lon="2.93442">
        <ele>1039.6</ele>
        <time>2021-08-25T15:12:47Z</time>
      </trkpt>
      <trkpt lat="45.50988" lon="2.9344">
        <ele>1039.5</ele>
        <time>2021-08-25T15:12:49Z</time>
      </trkpt>
      <trkpt lat="45.50993" lon="2.93438">
        <ele>1039.3</ele>
        <time>2021-08-25T15:12:51Z</time>
      </trkpt>
      <trkpt lat="45.50996" lon="2.93437">
        <ele>1039.2</ele>
        <time>2021-08-25T15:12:53Z</time>
      </trkpt>
      <trkpt lat="45.50999" lon="2.93435">
        <ele>1039.2</ele>
        <time>2021-08-25T15:12:55Z</time>
      </trkpt>
      <trkpt lat="45.51003" lon="2.93431">
        <ele>1039.2</ele>
        <time>2021-08-25T15:12:57Z</time>
      </trkpt>
      <trkpt lat="45.51007" lon="2.93427">
        <ele>1039.1</ele>
        <time>2021-08-25T15:12:59Z</time>
      </trkpt>
      <trkpt lat="45.51013" lon="2.93425">
        <ele>1038.9</ele>
        <time>2021-08-25T15:13:01Z</time>
      </trkpt>
      <trkpt lat="45.5102" lon="2.93425">
        <ele>1038.6</ele>
        <time>2021-08-25T15:13:03Z</time>
      </trkpt>
      <trkpt lat="45.51027" lon="2.93421">
        <ele>1038.5</ele>
        <time>2021-08-25T15:13:05Z</time>
      </trkpt>
      <trkpt lat="45.51033" lon="2.93416">
        <ele>1038.4</ele>
        <time>2021-08-25T15:13:07Z</time>
      </trkpt>
      <trkpt lat="45.5104" lon="2.93413">
        <ele>1038.3</ele>
        <time>2021-08-25T15:13:09Z</time>
      </trkpt>
      <trkpt lat="45.51046" lon="2.93409">
        <ele>1038.1</ele>
        <time>2021-08-25T15:13:11Z</time>
      </trkpt>
      <trkpt lat="45.51052" lon="2.93406">
        <ele>1038</ele>
        <time>2021-08-25T15:13:13Z</time>
      </trkpt>
      <trkpt lat="45.51059" lon="2.93402">
        <ele>1037.9</ele>
        <time>2021-08-25T15:13:15Z</time>
      </trkpt>
      <trkpt lat="45.51065" lon="2.93398">
        <ele>1037.8</ele>
        <time>2021-08-25T15:13:17Z</time>
      </trkpt>
      <trkpt lat="45.51072" lon="2.93394">
        <ele>1037.8</ele>
        <time>2021-08-25T15:13:19Z</time>
      </trkpt>
      <trkpt lat="45.51078" lon="2.9339">
        <ele>1037.8</ele>
        <time>2021-08-25T15:13:21Z</time>
      </trkpt>
      <trkpt lat="45.51083" lon="2.93387">
        <ele>1037.8</ele>
        <time>2021-08-25T15:13:23Z</time>
      </trkpt>
      <trkpt lat="45.51088" lon="2.93384">
        <ele>1037.9</ele>
        <time>2021-08-25T15:13:25Z</time>
      </trkpt>
      <trkpt lat="45.51093" lon="2.93381">
        <ele>1037.9</ele>
        <time>2021-08-25T15:13:27Z</time>
      </trkpt>
      <trkpt lat="45.51097" lon="2.93379">
        <ele>1038</ele>
        <time>2021-08-25T15:13:29Z</time>
      </trkpt>
      <trkpt lat="45.51101" lon="2.93377">
        <ele>1038</ele>
        <time>2021-08-25T15:13:31Z</time>
      </trkpt>
      <trkpt lat="45.51102" lon="2.93377">
        <ele>1038.1</ele>
        <time>2021-08-25T15:13:33Z</time>
      </trkpt>
      <trkpt lat="45.51103" lon="2.93375">
        <ele>1038.1</ele>
        <time>2021-08-25T15:13:35Z</time>
      </trkpt>
      <trkpt lat="45.51106" lon="2.93374">
        <ele>1038.2</ele>
        <time>2021-08-25T15:13:37Z</time>
      </trkpt>
      <trkpt lat="45.5111" lon="2.93372">
        <ele>1038.2</ele>
        <time>2021-08-25T15:13:39Z</time>
      </trkpt>
      <trkpt lat="45.5111" lon="2.93368">
        <ele>1038.4</ele>
        <time>2021-08-25T15:13:41Z</time>
      </trkpt>
      <trkpt lat="45.51111" lon="2.93364">
        <ele>1038.7</ele>
        <time>2021-08-25T15:13:43Z</time>
      </trkpt>
      <trkpt lat="45.51112" lon="2.93361">
        <ele>1038.9</ele>
        <time>2021-08-25T15:13:45Z</time>
      </trkpt>
      <trkpt lat="45.51113" lon="2.93357">
        <ele>1039.1</ele>
        <time>2021-08-25T15:13:47Z</time>
      </trkpt>
      <trkpt lat="45.51114" lon="2.93355">
        <ele>1039.2</ele>
        <time>2021-08-25T15:13:49Z</time>
      </trkpt>
      <trkpt lat="45.51116" lon="2.93352">
        <ele>1039.4</ele>
        <time>2021-08-25T15:13:51Z</time>
      </trkpt>
      <trkpt lat="45.51117" lon="2.9335">
        <ele>1039.5</ele>
        <time>2021-08-25T15:13:53Z</time>
      </trkpt>
      <trkpt lat="45.51117" lon="2.93349">
        <ele>1039.6</ele>
        <time>2021-08-25T15:13:55Z</time>
      </trkpt>
      <trkpt lat="45.51117" lon="2.93349">
        <ele>1039.6</ele>
        <time>2021-08-25T15:13:57Z</time>
      </trkpt>
      <trkpt lat="45.51117" lon="2.93349">
        <ele>1039.6</ele>
        <time>2021-08-25T15:13:59Z</time>
      </trkpt>
      <trkpt lat="45.51117" lon="2.93349">
        <ele>1039.6</ele>
        <time>2021-08-25T15:14:01Z</time>
      </trkpt>
      <trkpt lat="45.51117" lon="2.93349">
        <ele>1039.6</ele>
        <time>2021-08-25T15:14:03Z</time>
      </trkpt>
      <trkpt lat="45.51117" lon="2.93348">
        <ele>1039.6</ele>
        <time>2021-08-25T15:14:05Z</time>
      </trkpt>
      <trkpt lat="45.51118" lon="2.93348">
        <ele>1039.7</ele>
        <time>2021-08-25T15:14:07Z</time>
      </trkpt>
      <trkpt lat="45.51118" lon="2.93347">
        <ele>1039.7</ele>
        <time>2021-08-25T15:14:09Z</time>
      </trkpt>
      <trkpt lat="45.51118" lon="2.93347">
        <ele>1039.7</ele>
        <time>2021-08-25T15:14:11Z</time>
      </trkpt>
      <trkpt lat="45.51118" lon="2.93347">
        <ele>1039.7</ele>
        <time>2021-08-25T15:14:13Z</time>
      </trkpt>
      <trkpt lat="45.51118" lon="2.93347">
        <ele>1039.7</ele>
        <time>2021-08-25T15:14:15Z</time>
      </trkpt>
      <trkpt lat="45.51118" lon="2.93347">
        <ele>1039.7</ele>
        <time>2021-08-25T15:14:19Z</time>
      </trkpt>
      <trkpt lat="45.51118" lon="2.93347">
        <ele>1039.7</ele>
        <time>2021-08-25T15:14:23Z</time>
      </trkpt>
      <trkpt lat="45.51118" lon="2.93347">
        <ele>1039.7</ele>
        <time>2021-08-25T15:14:27Z</time>
      </trkpt>
      <trkpt lat="45.51118" lon="2.93347">
        <ele>1039.7</ele>
        <time>2021-08-25T15:14:31Z</time>
      </trkpt>
      <trkpt lat="45.51118" lon="2.93347">
        <ele>1039.7</ele>
        <time>2021-08-25T15:14:35Z</time>
      </trkpt>
      <trkpt lat="45.51118" lon="2.93347">
        <ele>1039.7</ele>
        <time>2021-08-25T15:14:39Z</time>
      </trkpt>
      <trkpt lat="45.51118" lon="2.93347">
        <ele>1039.7</ele>
        <time>2021-08-25T15:14:43Z</time>
      </trkpt>
      <trkpt lat="45.51118" lon="2.93347">
        <ele>1039.7</ele>
        <time>2021-08-25T15:14:47Z</time>
      </trkpt>
      <trkpt lat="45.51118" lon="2.93347">
        <ele>1039.7</ele>
        <time>2021-08-25T15:14:51Z</time>
      </trkpt>
      <trkpt lat="45.51118" lon="2.93347">
        <ele>1039.7</ele>
        <time>2021-08-25T15:14:55Z</time>
      </trkpt>
      <trkpt lat="45.51118" lon="2.93347">
        <ele>1039.7</ele>
        <time>2021-08-25T15:14:59Z</time>
      </trkpt>
      <trkpt lat="45.51118" lon="2.93347">
        <ele>1039.7</ele>
        <time>2021-08-25T15:15:03Z</time>
      </trkpt>
      <trkpt lat="45.51118" lon="2.93347">
        <ele>1039.7</ele>
        <time>2021-08-25T15:15:07Z</time>
      </trkpt>
      <trkpt lat="45.51118" lon="2.93347">
        <ele>1039.7</ele>
        <time>2021-08-25T15:15:11Z</time>
      </trkpt>
      <trkpt lat="45.51118" lon="2.93347">
        <ele>1039.7</ele>
        <time>2021-08-25T15:15:15Z</time>
      </trkpt>
      <trkpt lat="45.51118" lon="2.93347">
        <ele>1039.7</ele>
        <time>2021-08-25T15:15:19Z</time>
      </trkpt>
      <trkpt lat="45.51118" lon="2.93347">
        <ele>1039.7</ele>
        <time>2021-08-25T15:15:23Z</time>
      </trkpt>
      <trkpt lat="45.51118" lon="2.93347">
        <ele>1039.7</ele>
        <time>2021-08-25T15:15:27Z</time>
      </trkpt>
      <trkpt lat="45.51118" lon="2.93347">
        <ele>1039.7</ele>
        <time>2021-08-25T15:15:31Z</time>
      </trkpt>
      <trkpt lat="45.51118" lon="2.93347">
        <ele>1039.7</ele>
        <time>2021-08-25T15:15:35Z</time>
      </trkpt>
      <trkpt lat="45.51118" lon="2.93347">
        <ele>1039.7</ele>
        <time>2021-08-25T15:15:39Z</time>
      </trkpt>
      <trkpt lat="45.51118" lon="2.93347">
        <ele>1039.7</ele>
        <time>2021-08-25T15:15:43Z</time>
      </trkpt>
      <trkpt lat="45.51118" lon="2.93347">
        <ele>1039.7</ele>
        <time>2021-08-25T15:15:47Z</time>
      </trkpt>
      <trkpt lat="45.51118" lon="2.93347">
        <ele>1039.7</ele>
        <time>2021-08-25T15:15:51Z</time>
      </trkpt>
      <trkpt lat="45.51118" lon="2.93347">
        <ele>1039.7</ele>
        <time>2021-08-25T15:15:55Z</time>
      </trkpt>
      <trkpt lat="45.51118" lon="2.93347">
        <ele>1039.7</ele>
        <time>2021-08-25T15:15:59Z</time>
      </trkpt>
      <trkpt lat="45.51118" lon="2.93347">
        <ele>1039.7</ele>
        <time>2021-08-25T15:16:03Z</time>
      </trkpt>
      <trkpt lat="45.51118" lon="2.93347">
        <ele>1039.7</ele>
        <time>2021-08-25T15:16:07Z</time>
      </trkpt>
      <trkpt lat="45.51118" lon="2.93347">
        <ele>1039.7</ele>
        <time>2021-08-25T15:16:11Z</time>
      </trkpt>
      <trkpt lat="45.51118" lon="2.93347">
        <ele>1039.7</ele>
        <time>2021-08-25T15:16:15Z</time>
      </trkpt>
      <trkpt lat="45.51118" lon="2.93347">
        <ele>1039.7</ele>
        <time>2021-08-25T15:16:19Z</time>
      </trkpt>
      <trkpt lat="45.51118" lon="2.93347">
        <ele>1039.7</ele>
        <time>2021-08-25T15:16:23Z</time>
      </trkpt>
      <trkpt lat="45.51118" lon="2.93347">
        <ele>1039.7</ele>
        <time>2021-08-25T15:16:27Z</time>
      </trkpt>
      <trkpt lat="45.51118" lon="2.93347">
        <ele>1039.7</ele>
        <time>2021-08-25T15:16:31Z</time>
      </trkpt>
      <trkpt lat="45.51118" lon="2.93347">
        <ele>1039.7</ele>
        <time>2021-08-25T15:16:35Z</time>
      </trkpt>
      <trkpt lat="45.51119" lon="2.93347">
        <ele>1039.7</ele>
        <time>2021-08-25T15:16:37Z</time>
      </trkpt>
      <trkpt lat="45.51119" lon="2.93347">
        <ele>1039.7</ele>
        <time>2021-08-25T15:16:41Z</time>
      </trkpt>
      <trkpt lat="45.51119" lon="2.93347">
        <ele>1039.7</ele>
        <time>2021-08-25T15:16:45Z</time>
      </trkpt>
      <trkpt lat="45.51119" lon="2.93347">
        <ele>1039.7</ele>
        <time>2021-08-25T15:16:49Z</time>
      </trkpt>
      <trkpt lat="45.51119" lon="2.93347">
        <ele>1039.7</ele>
        <time>2021-08-25T15:16:53Z</time>
      </trkpt>
      <trkpt lat="45.51119" lon="2.93347">
        <ele>1039.7</ele>
        <time>2021-08-25T15:16:57Z</time>
      </trkpt>
      <trkpt lat="45.51119" lon="2.93347">
        <ele>1039.7</ele>
        <time>2021-08-25T15:17:01Z</time>
      </trkpt>
      <trkpt lat="45.51119" lon="2.93347">
        <ele>1039.7</ele>
        <time>2021-08-25T15:17:03Z</time>
      </trkpt>
      <trkpt lat="45.51119" lon="2.93347">
        <ele>1039.7</ele>
        <time>2021-08-25T15:17:07Z</time>
      </trkpt>
      <trkpt lat="45.51119" lon="2.93347">
        <ele>1039.7</ele>
        <time>2021-08-25T15:17:11Z</time>
      </trkpt>
      <trkpt lat="45.51119" lon="2.93347">
        <ele>1039.7</ele>
        <time>2021-08-25T15:17:15Z</time>
      </trkpt>
      <trkpt lat="45.51119" lon="2.93347">
        <ele>1039.7</ele>
        <time>2021-08-25T15:17:19Z</time>
      </trkpt>
      <trkpt lat="45.51119" lon="2.93347">
        <ele>1039.7</ele>
        <time>2021-08-25T15:17:23Z</time>
      </trkpt>
      <trkpt lat="45.51119" lon="2.93347">
        <ele>1039.7</ele>
        <time>2021-08-25T15:17:27Z</time>
      </trkpt>
      <trkpt lat="45.51119" lon="2.93347">
        <ele>1039.7</ele>
        <time>2021-08-25T15:17:31Z</time>
      </trkpt>
      <trkpt lat="45.51119" lon="2.93348">
        <ele>1039.6</ele>
        <time>2021-08-25T15:17:35Z</time>
      </trkpt>
      <trkpt lat="45.51119" lon="2.93348">
        <ele>1039.6</ele>
        <time>2021-08-25T15:17:39Z</time>
      </trkpt>
      <trkpt lat="45.51119" lon="2.93348">
        <ele>1039.6</ele>
        <time>2021-08-25T15:17:43Z</time>
      </trkpt>
      <trkpt lat="45.51119" lon="2.93348">
        <ele>1039.6</ele>
        <time>2021-08-25T15:17:47Z</time>
      </trkpt>
      <trkpt lat="45.51119" lon="2.93348">
        <ele>1039.6</ele>
        <time>2021-08-25T15:17:51Z</time>
      </trkpt>
      <trkpt lat="45.51119" lon="2.93348">
        <ele>1039.6</ele>
        <time>2021-08-25T15:17:55Z</time>
      </trkpt>
      <trkpt lat="45.51119" lon="2.93348">
        <ele>1039.6</ele>
        <time>2021-08-25T15:17:59Z</time>
      </trkpt>
      <trkpt lat="45.51119" lon="2.93348">
        <ele>1039.6</ele>
        <time>2021-08-25T15:18:03Z</time>
      </trkpt>
      <trkpt lat="45.51119" lon="2.93348">
        <ele>1039.6</ele>
        <time>2021-08-25T15:18:07Z</time>
      </trkpt>
      <trkpt lat="45.51119" lon="2.93348">
        <ele>1039.6</ele>
        <time>2021-08-25T15:18:11Z</time>
      </trkpt>
      <trkpt lat="45.51119" lon="2.93348">
        <ele>1039.6</ele>
        <time>2021-08-25T15:18:15Z</time>
      </trkpt>
      <trkpt lat="45.51119" lon="2.93348">
        <ele>1039.6</ele>
        <time>2021-08-25T15:18:19Z</time>
      </trkpt>
      <trkpt lat="45.51119" lon="2.93348">
        <ele>1039.6</ele>
        <time>2021-08-25T15:18:23Z</time>
      </trkpt>
      <trkpt lat="45.51119" lon="2.93348">
        <ele>1039.6</ele>
        <time>2021-08-25T15:18:27Z</time>
      </trkpt>
      <trkpt lat="45.51119" lon="2.93348">
        <ele>1039.6</ele>
        <time>2021-08-25T15:18:31Z</time>
      </trkpt>
      <trkpt lat="45.51119" lon="2.93348">
        <ele>1039.6</ele>
        <time>2021-08-25T15:18:35Z</time>
      </trkpt>
      <trkpt lat="45.51119" lon="2.93348">
        <ele>1039.6</ele>
        <time>2021-08-25T15:18:39Z</time>
      </trkpt>
      <trkpt lat="45.51119" lon="2.93348">
        <ele>1039.6</ele>
        <time>2021-08-25T15:18:43Z</time>
      </trkpt>
      <trkpt lat="45.51119" lon="2.93348">
        <ele>1039.6</ele>
        <time>2021-08-25T15:18:47Z</time>
      </trkpt>
      <trkpt lat="45.51119" lon="2.93348">
        <ele>1039.6</ele>
        <time>2021-08-25T15:18:51Z</time>
      </trkpt>
      <trkpt lat="45.51118" lon="2.93348">
        <ele>1039.6</ele>
        <time>2021-08-25T15:18:55Z</time>
      </trkpt>
      <trkpt lat="45.51118" lon="2.93348">
        <ele>1039.6</ele>
        <time>2021-08-25T15:18:57Z</time>
      </trkpt>
      <trkpt lat="45.51118" lon="2.93348">
        <ele>1039.6</ele>
        <time>2021-08-25T15:19:01Z</time>
      </trkpt>
      <trkpt lat="45.51118" lon="2.93348">
        <ele>1039.6</ele>
        <time>2021-08-25T15:19:05Z</time>
      </trkpt>
      <trkpt lat="45.51118" lon="2.93348">
        <ele>1039.6</ele>
        <time>2021-08-25T15:19:09Z</time>
      </trkpt>
      <trkpt lat="45.51118" lon="2.93348">
        <ele>1039.6</ele>
        <time>2021-08-25T15:19:13Z</time>
      </trkpt>
      <trkpt lat="45.51118" lon="2.93348">
        <ele>1039.6</ele>
        <time>2021-08-25T15:19:17Z</time>
      </trkpt>
      <trkpt lat="45.51118" lon="2.93348">
        <ele>1039.6</ele>
        <time>2021-08-25T15:19:21Z</time>
      </trkpt>
      <trkpt lat="45.51118" lon="2.93348">
        <ele>1039.6</ele>
        <time>2021-08-25T15:19:25Z</time>
      </trkpt>
      <trkpt lat="45.51118" lon="2.93348">
        <ele>1039.6</ele>
        <time>2021-08-25T15:19:29Z</time>
      </trkpt>
      <trkpt lat="45.51118" lon="2.93348">
        <ele>1039.6</ele>
        <time>2021-08-25T15:19:33Z</time>
      </trkpt>
      <trkpt lat="45.51118" lon="2.93348">
        <ele>1039.6</ele>
        <time>2021-08-25T15:19:37Z</time>
      </trkpt>
      <trkpt lat="45.51118" lon="2.93348">
        <ele>1039.6</ele>
        <time>2021-08-25T15:19:41Z</time>
      </trkpt>
      <trkpt lat="45.51118" lon="2.93348">
        <ele>1039.6</ele>
        <time>2021-08-25T15:19:45Z</time>
      </trkpt>
      <trkpt lat="45.51118" lon="2.93348">
        <ele>1039.6</ele>
        <time>2021-08-25T15:19:49Z</time>
      </trkpt>
      <trkpt lat="45.51118" lon="2.93348">
        <ele>1039.6</ele>
        <time>2021-08-25T15:19:53Z</time>
      </trkpt>
      <trkpt lat="45.51118" lon="2.93348">
        <ele>1039.6</ele>
        <time>2021-08-25T15:19:57Z</time>
      </trkpt>
      <trkpt lat="45.51118" lon="2.93348">
        <ele>1039.6</ele>
        <time>2021-08-25T15:20:01Z</time>
      </trkpt>
      <trkpt lat="45.51118" lon="2.93348">
        <ele>1039.6</ele>
        <time>2021-08-25T15:20:05Z</time>
      </trkpt>
      <trkpt lat="45.51118" lon="2.93348">
        <ele>1039.6</ele>
        <time>2021-08-25T15:20:09Z</time>
      </trkpt>
      <trkpt lat="45.51118" lon="2.93348">
        <ele>1039.6</ele>
        <time>2021-08-25T15:20:13Z</time>
      </trkpt>
      <trkpt lat="45.51118" lon="2.93348">
        <ele>1039.6</ele>
        <time>2021-08-25T15:20:17Z</time>
      </trkpt>
      <trkpt lat="45.51118" lon="2.93348">
        <ele>1039.6</ele>
        <time>2021-08-25T15:20:21Z</time>
      </trkpt>
      <trkpt lat="45.51118" lon="2.93348">
        <ele>1039.6</ele>
        <time>2021-08-25T15:20:25Z</time>
      </trkpt>
      <trkpt lat="45.51118" lon="2.93348">
        <ele>1039.6</ele>
        <time>2021-08-25T15:20:29Z</time>
      </trkpt>
      <trkpt lat="45.51118" lon="2.93348">
        <ele>1039.6</ele>
        <time>2021-08-25T15:20:33Z</time>
      </trkpt>
      <trkpt lat="45.51118" lon="2.93348">
        <ele>1039.6</ele>
        <time>2021-08-25T15:20:37Z</time>
      </trkpt>
      <trkpt lat="45.51118" lon="2.93348">
        <ele>1039.6</ele>
        <time>2021-08-25T15:20:41Z</time>
      </trkpt>
      <trkpt lat="45.51118" lon="2.93348">
        <ele>1039.6</ele>
        <time>2021-08-25T15:20:45Z</time>
      </trkpt>
      <trkpt lat="45.51118" lon="2.93348">
        <ele>1039.6</ele>
        <time>2021-08-25T15:20:49Z</time>
      </trkpt>
      <trkpt lat="45.51117" lon="2.93345">
        <ele>1039.9</ele>
        <time>2021-08-25T15:20:51Z</time>
      </trkpt>
      <trkpt lat="45.51116" lon="2.93345">
        <ele>1039.9</ele>
        <time>2021-08-25T15:20:53Z</time>
      </trkpt>
      <trkpt lat="45.51116" lon="2.93345">
        <ele>1039.8</ele>
        <time>2021-08-25T15:20:55Z</time>
      </trkpt>
      <trkpt lat="45.51116" lon="2.93345">
        <ele>1039.9</ele>
        <time>2021-08-25T15:20:57Z</time>
      </trkpt>
      <trkpt lat="45.51118" lon="2.93344">
        <ele>1039.9</ele>
        <time>2021-08-25T15:20:59Z</time>
      </trkpt>
      <trkpt lat="45.51118" lon="2.93343">
        <ele>1040</ele>
        <time>2021-08-25T15:21:01Z</time>
      </trkpt>
      <trkpt lat="45.51119" lon="2.93342">
        <ele>1040</ele>
        <time>2021-08-25T15:21:03Z</time>
      </trkpt>
      <trkpt lat="45.51119" lon="2.9334">
        <ele>1040.2</ele>
        <time>2021-08-25T15:21:05Z</time>
      </trkpt>
      <trkpt lat="45.5112" lon="2.93338">
        <ele>1040.2</ele>
        <time>2021-08-25T15:21:07Z</time>
      </trkpt>
      <trkpt lat="45.51121" lon="2.93336">
        <ele>1040.3</ele>
        <time>2021-08-25T15:21:09Z</time>
      </trkpt>
      <trkpt lat="45.51122" lon="2.93333">
        <ele>1040.5</ele>
        <time>2021-08-25T15:21:11Z</time>
      </trkpt>
      <trkpt lat="45.51123" lon="2.9333">
        <ele>1040.6</ele>
        <time>2021-08-25T15:21:13Z</time>
      </trkpt>
      <trkpt lat="45.51124" lon="2.93328">
        <ele>1040.7</ele>
        <time>2021-08-25T15:21:15Z</time>
      </trkpt>
      <trkpt lat="45.51127" lon="2.93325">
        <ele>1040.7</ele>
        <time>2021-08-25T15:21:17Z</time>
      </trkpt>
      <trkpt lat="45.51128" lon="2.93323">
        <ele>1040.8</ele>
        <time>2021-08-25T15:21:19Z</time>
      </trkpt>
      <trkpt lat="45.51129" lon="2.9332">
        <ele>1040.9</ele>
        <time>2021-08-25T15:21:21Z</time>
      </trkpt>
      <trkpt lat="45.51131" lon="2.93316">
        <ele>1040.9</ele>
        <time>2021-08-25T15:21:23Z</time>
      </trkpt>
      <trkpt lat="45.51133" lon="2.93312">
        <ele>1041</ele>
        <time>2021-08-25T15:21:25Z</time>
      </trkpt>
      <trkpt lat="45.51134" lon="2.93307">
        <ele>1041.1</ele>
        <time>2021-08-25T15:21:27Z</time>
      </trkpt>
      <trkpt lat="45.51135" lon="2.93305">
        <ele>1041.2</ele>
        <time>2021-08-25T15:21:29Z</time>
      </trkpt>
      <trkpt lat="45.51137" lon="2.93302">
        <ele>1041.3</ele>
        <time>2021-08-25T15:21:31Z</time>
      </trkpt>
      <trkpt lat="45.51139" lon="2.933">
        <ele>1041.3</ele>
        <time>2021-08-25T15:21:33Z</time>
      </trkpt>
      <trkpt lat="45.5114" lon="2.93298">
        <ele>1041.3</ele>
        <time>2021-08-25T15:21:35Z</time>
      </trkpt>
      <trkpt lat="45.51143" lon="2.93296">
        <ele>1041.3</ele>
        <time>2021-08-25T15:21:37Z</time>
      </trkpt>
      <trkpt lat="45.51145" lon="2.93293">
        <ele>1041.4</ele>
        <time>2021-08-25T15:21:39Z</time>
      </trkpt>
      <trkpt lat="45.51145" lon="2.93293">
        <ele>1041.4</ele>
        <time>2021-08-25T15:21:41Z</time>
      </trkpt>
      <trkpt lat="45.51146" lon="2.93292">
        <ele>1041.4</ele>
        <time>2021-08-25T15:21:43Z</time>
      </trkpt>
      <trkpt lat="45.51146" lon="2.93291">
        <ele>1041.4</ele>
        <time>2021-08-25T15:21:45Z</time>
      </trkpt>
      <trkpt lat="45.51147" lon="2.9329">
        <ele>1041.4</ele>
        <time>2021-08-25T15:21:47Z</time>
      </trkpt>
      <trkpt lat="45.51147" lon="2.9329">
        <ele>1041.4</ele>
        <time>2021-08-25T15:21:49Z</time>
      </trkpt>
      <trkpt lat="45.51148" lon="2.93289">
        <ele>1041.4</ele>
        <time>2021-08-25T15:21:51Z</time>
      </trkpt>
      <trkpt lat="45.5115" lon="2.93288">
        <ele>1041.4</ele>
        <time>2021-08-25T15:21:53Z</time>
      </trkpt>
      <trkpt lat="45.51152" lon="2.93289">
        <ele>1041.3</ele>
        <time>2021-08-25T15:21:55Z</time>
      </trkpt>
      <trkpt lat="45.51154" lon="2.93292">
        <ele>1041.2</ele>
        <time>2021-08-25T15:21:57Z</time>
      </trkpt>
      <trkpt lat="45.51155" lon="2.93294">
        <ele>1041.2</ele>
        <time>2021-08-25T15:21:59Z</time>
      </trkpt>
      <trkpt lat="45.51157" lon="2.93296">
        <ele>1041.1</ele>
        <time>2021-08-25T15:22:01Z</time>
      </trkpt>
      <trkpt lat="45.5116" lon="2.93297">
        <ele>1041</ele>
        <time>2021-08-25T15:22:03Z</time>
      </trkpt>
      <trkpt lat="45.51162" lon="2.93297">
        <ele>1041</ele>
        <time>2021-08-25T15:22:05Z</time>
      </trkpt>
      <trkpt lat="45.51164" lon="2.93297">
        <ele>1040.9</ele>
        <time>2021-08-25T15:22:07Z</time>
      </trkpt>
      <trkpt lat="45.51164" lon="2.933">
        <ele>1040.8</ele>
        <time>2021-08-25T15:22:09Z</time>
      </trkpt>
      <trkpt lat="45.51165" lon="2.93303">
        <ele>1040.8</ele>
        <time>2021-08-25T15:22:11Z</time>
      </trkpt>
      <trkpt lat="45.51166" lon="2.93305">
        <ele>1040.7</ele>
        <time>2021-08-25T15:22:13Z</time>
      </trkpt>
      <trkpt lat="45.51166" lon="2.93309">
        <ele>1040.6</ele>
        <time>2021-08-25T15:22:15Z</time>
      </trkpt>
      <trkpt lat="45.51168" lon="2.93311">
        <ele>1040.5</ele>
        <time>2021-08-25T15:22:17Z</time>
      </trkpt>
      <trkpt lat="45.51169" lon="2.93314">
        <ele>1040.3</ele>
        <time>2021-08-25T15:22:19Z</time>
      </trkpt>
      <trkpt lat="45.5117" lon="2.93317">
        <ele>1040.2</ele>
        <time>2021-08-25T15:22:21Z</time>
      </trkpt>
      <trkpt lat="45.51172" lon="2.9332">
        <ele>1040.1</ele>
        <time>2021-08-25T15:22:23Z</time>
      </trkpt>
      <trkpt lat="45.51174" lon="2.93323">
        <ele>1039.9</ele>
        <time>2021-08-25T15:22:25Z</time>
      </trkpt>
      <trkpt lat="45.51175" lon="2.93326">
        <ele>1039.7</ele>
        <time>2021-08-25T15:22:27Z</time>
      </trkpt>
      <trkpt lat="45.51176" lon="2.93329">
        <ele>1039.6</ele>
        <time>2021-08-25T15:22:29Z</time>
      </trkpt>
      <trkpt lat="45.51177" lon="2.93332">
        <ele>1039.5</ele>
        <time>2021-08-25T15:22:31Z</time>
      </trkpt>
      <trkpt lat="45.51179" lon="2.93335">
        <ele>1039.3</ele>
        <time>2021-08-25T15:22:33Z</time>
      </trkpt>
      <trkpt lat="45.5118" lon="2.93338">
        <ele>1039</ele>
        <time>2021-08-25T15:22:35Z</time>
      </trkpt>
      <trkpt lat="45.51182" lon="2.93342">
        <ele>1038.7</ele>
        <time>2021-08-25T15:22:37Z</time>
      </trkpt>
      <trkpt lat="45.51185" lon="2.93344">
        <ele>1038.4</ele>
        <time>2021-08-25T15:22:39Z</time>
      </trkpt>
      <trkpt lat="45.51187" lon="2.93346">
        <ele>1038.2</ele>
        <time>2021-08-25T15:22:41Z</time>
      </trkpt>
      <trkpt lat="45.51188" lon="2.93347">
        <ele>1038.1</ele>
        <time>2021-08-25T15:22:43Z</time>
      </trkpt>
      <trkpt lat="45.5119" lon="2.93347">
        <ele>1038</ele>
        <time>2021-08-25T15:22:45Z</time>
      </trkpt>
      <trkpt lat="45.51191" lon="2.93344">
        <ele>1038.1</ele>
        <time>2021-08-25T15:22:47Z</time>
      </trkpt>
      <trkpt lat="45.51192" lon="2.93343">
        <ele>1038.1</ele>
        <time>2021-08-25T15:22:49Z</time>
      </trkpt>
      <trkpt lat="45.51192" lon="2.93343">
        <ele>1038.1</ele>
        <time>2021-08-25T15:22:51Z</time>
      </trkpt>
      <trkpt lat="45.51191" lon="2.93344">
        <ele>1038.1</ele>
        <time>2021-08-25T15:22:53Z</time>
      </trkpt>
      <trkpt lat="45.51191" lon="2.93344">
        <ele>1038.1</ele>
        <time>2021-08-25T15:22:55Z</time>
      </trkpt>
      <trkpt lat="45.51191" lon="2.93344">
        <ele>1038.1</ele>
        <time>2021-08-25T15:22:57Z</time>
      </trkpt>
      <trkpt lat="45.5119" lon="2.93345">
        <ele>1038.1</ele>
        <time>2021-08-25T15:22:59Z</time>
      </trkpt>
      <trkpt lat="45.51189" lon="2.93346">
        <ele>1038.1</ele>
        <time>2021-08-25T15:23:01Z</time>
      </trkpt>
      <trkpt lat="45.5119" lon="2.93346">
        <ele>1038.1</ele>
        <time>2021-08-25T15:23:03Z</time>
      </trkpt>
      <trkpt lat="45.51189" lon="2.93346">
        <ele>1038.1</ele>
        <time>2021-08-25T15:23:05Z</time>
      </trkpt>
      <trkpt lat="45.51189" lon="2.93346">
        <ele>1038.1</ele>
        <time>2021-08-25T15:23:07Z</time>
      </trkpt>
      <trkpt lat="45.51189" lon="2.93346">
        <ele>1038.1</ele>
        <time>2021-08-25T15:23:09Z</time>
      </trkpt>
      <trkpt lat="45.51189" lon="2.93346">
        <ele>1038.1</ele>
        <time>2021-08-25T15:23:11Z</time>
      </trkpt>
      <trkpt lat="45.51189" lon="2.93346">
        <ele>1038.1</ele>
        <time>2021-08-25T15:23:13Z</time>
      </trkpt>
      <trkpt lat="45.51189" lon="2.93346">
        <ele>1038.1</ele>
        <time>2021-08-25T15:23:15Z</time>
      </trkpt>
      <trkpt lat="45.51189" lon="2.93346">
        <ele>1038.1</ele>
        <time>2021-08-25T15:23:19Z</time>
      </trkpt>
      <trkpt lat="45.51189" lon="2.93346">
        <ele>1038.1</ele>
        <time>2021-08-25T15:23:23Z</time>
      </trkpt>
      <trkpt lat="45.51189" lon="2.93346">
        <ele>1038.1</ele>
        <time>2021-08-25T15:23:27Z</time>
      </trkpt>
      <trkpt lat="45.51189" lon="2.93346">
        <ele>1038.1</ele>
        <time>2021-08-25T15:23:31Z</time>
      </trkpt>
      <trkpt lat="45.51189" lon="2.93346">
        <ele>1038.1</ele>
        <time>2021-08-25T15:23:35Z</time>
      </trkpt>
      <trkpt lat="45.51188" lon="2.93346">
        <ele>1038.1</ele>
        <time>2021-08-25T15:23:37Z</time>
      </trkpt>
      <trkpt lat="45.51188" lon="2.93346">
        <ele>1038.1</ele>
        <time>2021-08-25T15:23:39Z</time>
      </trkpt>
      <trkpt lat="45.51188" lon="2.93346">
        <ele>1038.1</ele>
        <time>2021-08-25T15:23:41Z</time>
      </trkpt>
      <trkpt lat="45.51189" lon="2.93346">
        <ele>1038.1</ele>
        <time>2021-08-25T15:23:43Z</time>
      </trkpt>
      <trkpt lat="45.51189" lon="2.93346">
        <ele>1038.1</ele>
        <time>2021-08-25T15:23:45Z</time>
      </trkpt>
      <trkpt lat="45.51189" lon="2.93347">
        <ele>1038.1</ele>
        <time>2021-08-25T15:23:47Z</time>
      </trkpt>
      <trkpt lat="45.51189" lon="2.93346">
        <ele>1038.1</ele>
        <time>2021-08-25T15:23:49Z</time>
      </trkpt>
      <trkpt lat="45.51189" lon="2.93347">
        <ele>1038</ele>
        <time>2021-08-25T15:23:51Z</time>
      </trkpt>
      <trkpt lat="45.51189" lon="2.93347">
        <ele>1038</ele>
        <time>2021-08-25T15:23:53Z</time>
      </trkpt>
      <trkpt lat="45.5119" lon="2.93347">
        <ele>1038</ele>
        <time>2021-08-25T15:23:55Z</time>
      </trkpt>
      <trkpt lat="45.5119" lon="2.93347">
        <ele>1038</ele>
        <time>2021-08-25T15:23:57Z</time>
      </trkpt>
      <trkpt lat="45.51192" lon="2.93348">
        <ele>1037.8</ele>
        <time>2021-08-25T15:23:59Z</time>
      </trkpt>
      <trkpt lat="45.51194" lon="2.93351">
        <ele>1037.6</ele>
        <time>2021-08-25T15:24:01Z</time>
      </trkpt>
      <trkpt lat="45.51196" lon="2.93353">
        <ele>1037.3</ele>
        <time>2021-08-25T15:24:03Z</time>
      </trkpt>
      <trkpt lat="45.51198" lon="2.93355">
        <ele>1037.1</ele>
        <time>2021-08-25T15:24:05Z</time>
      </trkpt>
      <trkpt lat="45.51201" lon="2.93355">
        <ele>1037</ele>
        <time>2021-08-25T15:24:07Z</time>
      </trkpt>
      <trkpt lat="45.51205" lon="2.93353">
        <ele>1036.9</ele>
        <time>2021-08-25T15:24:09Z</time>
      </trkpt>
      <trkpt lat="45.51207" lon="2.93352">
        <ele>1036.9</ele>
        <time>2021-08-25T15:24:11Z</time>
      </trkpt>
      <trkpt lat="45.51209" lon="2.93352">
        <ele>1036.8</ele>
        <time>2021-08-25T15:24:13Z</time>
      </trkpt>
      <trkpt lat="45.5121" lon="2.93354">
        <ele>1036.7</ele>
        <time>2021-08-25T15:24:15Z</time>
      </trkpt>
      <trkpt lat="45.51211" lon="2.93353">
        <ele>1036.7</ele>
        <time>2021-08-25T15:24:17Z</time>
      </trkpt>
      <trkpt lat="45.51212" lon="2.93352">
        <ele>1036.7</ele>
        <time>2021-08-25T15:24:19Z</time>
      </trkpt>
      <trkpt lat="45.51212" lon="2.9335">
        <ele>1036.8</ele>
        <time>2021-08-25T15:24:21Z</time>
      </trkpt>
      <trkpt lat="45.51213" lon="2.93348">
        <ele>1036.9</ele>
        <time>2021-08-25T15:24:23Z</time>
      </trkpt>
      <trkpt lat="45.51212" lon="2.93346">
        <ele>1037.1</ele>
        <time>2021-08-25T15:24:25Z</time>
      </trkpt>
      <trkpt lat="45.51212" lon="2.93345">
        <ele>1037.1</ele>
        <time>2021-08-25T15:24:27Z</time>
      </trkpt>
      <trkpt lat="45.51213" lon="2.93344">
        <ele>1037.2</ele>
        <time>2021-08-25T15:24:29Z</time>
      </trkpt>
      <trkpt lat="45.51213" lon="2.93343">
        <ele>1037.2</ele>
        <time>2021-08-25T15:24:31Z</time>
      </trkpt>
      <trkpt lat="45.51213" lon="2.93342">
        <ele>1037.3</ele>
        <time>2021-08-25T15:24:33Z</time>
      </trkpt>
      <trkpt lat="45.51212" lon="2.93343">
        <ele>1037.2</ele>
        <time>2021-08-25T15:24:35Z</time>
      </trkpt>
      <trkpt lat="45.51212" lon="2.93343">
        <ele>1037.3</ele>
        <time>2021-08-25T15:24:37Z</time>
      </trkpt>
      <trkpt lat="45.51211" lon="2.93341">
        <ele>1037.4</ele>
        <time>2021-08-25T15:24:39Z</time>
      </trkpt>
      <trkpt lat="45.51211" lon="2.93339">
        <ele>1037.5</ele>
        <time>2021-08-25T15:24:41Z</time>
      </trkpt>
      <trkpt lat="45.51212" lon="2.93338">
        <ele>1037.6</ele>
        <time>2021-08-25T15:24:43Z</time>
      </trkpt>
      <trkpt lat="45.51214" lon="2.93337">
        <ele>1037.6</ele>
        <time>2021-08-25T15:24:45Z</time>
      </trkpt>
      <trkpt lat="45.51215" lon="2.93336">
        <ele>1037.5</ele>
        <time>2021-08-25T15:24:47Z</time>
      </trkpt>
      <trkpt lat="45.51215" lon="2.93334">
        <ele>1037.6</ele>
        <time>2021-08-25T15:24:49Z</time>
      </trkpt>
      <trkpt lat="45.51215" lon="2.93333">
        <ele>1037.7</ele>
        <time>2021-08-25T15:24:51Z</time>
      </trkpt>
      <trkpt lat="45.51216" lon="2.93332">
        <ele>1037.7</ele>
        <time>2021-08-25T15:24:53Z</time>
      </trkpt>
      <trkpt lat="45.51217" lon="2.93332">
        <ele>1037.6</ele>
        <time>2021-08-25T15:24:55Z</time>
      </trkpt>
      <trkpt lat="45.51219" lon="2.93332">
        <ele>1037.5</ele>
        <time>2021-08-25T15:24:57Z</time>
      </trkpt>
      <trkpt lat="45.51221" lon="2.93332">
        <ele>1037.4</ele>
        <time>2021-08-25T15:24:59Z</time>
      </trkpt>
      <trkpt lat="45.51221" lon="2.93331">
        <ele>1037.4</ele>
        <time>2021-08-25T15:25:01Z</time>
      </trkpt>
      <trkpt lat="45.51221" lon="2.9333">
        <ele>1037.4</ele>
        <time>2021-08-25T15:25:03Z</time>
      </trkpt>
      <trkpt lat="45.51221" lon="2.93331">
        <ele>1037.4</ele>
        <time>2021-08-25T15:25:05Z</time>
      </trkpt>
      <trkpt lat="45.51223" lon="2.93331">
        <ele>1037.3</ele>
        <time>2021-08-25T15:25:07Z</time>
      </trkpt>
      <trkpt lat="45.51225" lon="2.93331">
        <ele>1037.2</ele>
        <time>2021-08-25T15:25:11Z</time>
      </trkpt>
      <trkpt lat="45.51227" lon="2.93333">
        <ele>1037.1</ele>
        <time>2021-08-25T15:25:13Z</time>
      </trkpt>
      <trkpt lat="45.51227" lon="2.93333">
        <ele>1037.1</ele>
        <time>2021-08-25T15:25:15Z</time>
      </trkpt>
      <trkpt lat="45.5123" lon="2.93334">
        <ele>1036.9</ele>
        <time>2021-08-25T15:25:19Z</time>
      </trkpt>
      <trkpt lat="45.51229" lon="2.93335">
        <ele>1036.9</ele>
        <time>2021-08-25T15:25:21Z</time>
      </trkpt>
      <trkpt lat="45.51229" lon="2.93335">
        <ele>1036.9</ele>
        <time>2021-08-25T15:25:23Z</time>
      </trkpt>
      <trkpt lat="45.51229" lon="2.93335">
        <ele>1036.9</ele>
        <time>2021-08-25T15:25:25Z</time>
      </trkpt>
      <trkpt lat="45.5123" lon="2.93336">
        <ele>1036.8</ele>
        <time>2021-08-25T15:25:27Z</time>
      </trkpt>
      <trkpt lat="45.5123" lon="2.93336">
        <ele>1036.8</ele>
        <time>2021-08-25T15:25:31Z</time>
      </trkpt>
      <trkpt lat="45.5123" lon="2.93336">
        <ele>1036.8</ele>
        <time>2021-08-25T15:25:35Z</time>
      </trkpt>
      <trkpt lat="45.51234" lon="2.93337">
        <ele>1036.6</ele>
        <time>2021-08-25T15:25:37Z</time>
      </trkpt>
      <trkpt lat="45.51232" lon="2.93334">
        <ele>1036.8</ele>
        <time>2021-08-25T15:25:39Z</time>
      </trkpt>
      <trkpt lat="45.51231" lon="2.93328">
        <ele>1036.9</ele>
        <time>2021-08-25T15:25:41Z</time>
      </trkpt>
      <trkpt lat="45.5123" lon="2.93325">
        <ele>1037</ele>
        <time>2021-08-25T15:25:43Z</time>
      </trkpt>
      <trkpt lat="45.51229" lon="2.93321">
        <ele>1037.1</ele>
        <time>2021-08-25T15:25:45Z</time>
      </trkpt>
      <trkpt lat="45.51229" lon="2.9332">
        <ele>1037.1</ele>
        <time>2021-08-25T15:25:47Z</time>
      </trkpt>
      <trkpt lat="45.51229" lon="2.93321">
        <ele>1037.1</ele>
        <time>2021-08-25T15:25:49Z</time>
      </trkpt>
      <trkpt lat="45.51229" lon="2.9332">
        <ele>1037.1</ele>
        <time>2021-08-25T15:25:51Z</time>
      </trkpt>
      <trkpt lat="45.51229" lon="2.9332">
        <ele>1037.1</ele>
        <time>2021-08-25T15:25:53Z</time>
      </trkpt>
      <trkpt lat="45.51229" lon="2.93319">
        <ele>1037.1</ele>
        <time>2021-08-25T15:25:55Z</time>
      </trkpt>
      <trkpt lat="45.51229" lon="2.93319">
        <ele>1037.1</ele>
        <time>2021-08-25T15:25:57Z</time>
      </trkpt>
      <trkpt lat="45.51228" lon="2.93319">
        <ele>1037.1</ele>
        <time>2021-08-25T15:25:59Z</time>
      </trkpt>
      <trkpt lat="45.51228" lon="2.93319">
        <ele>1037.1</ele>
        <time>2021-08-25T15:26:01Z</time>
      </trkpt>
      <trkpt lat="45.51228" lon="2.93318">
        <ele>1037.2</ele>
        <time>2021-08-25T15:26:03Z</time>
      </trkpt>
      <trkpt lat="45.51228" lon="2.93318">
        <ele>1037.1</ele>
        <time>2021-08-25T15:26:05Z</time>
      </trkpt>
      <trkpt lat="45.51228" lon="2.93318">
        <ele>1037.2</ele>
        <time>2021-08-25T15:26:07Z</time>
      </trkpt>
      <trkpt lat="45.51228" lon="2.93318">
        <ele>1037.2</ele>
        <time>2021-08-25T15:26:09Z</time>
      </trkpt>
      <trkpt lat="45.51228" lon="2.93318">
        <ele>1037.1</ele>
        <time>2021-08-25T15:26:11Z</time>
      </trkpt>
      <trkpt lat="45.51228" lon="2.93318">
        <ele>1037.1</ele>
        <time>2021-08-25T15:26:13Z</time>
      </trkpt>
      <trkpt lat="45.51228" lon="2.93318">
        <ele>1037.2</ele>
        <time>2021-08-25T15:26:15Z</time>
      </trkpt>
      <trkpt lat="45.51228" lon="2.93318">
        <ele>1037.1</ele>
        <time>2021-08-25T15:26:17Z</time>
      </trkpt>
      <trkpt lat="45.51229" lon="2.93318">
        <ele>1037.1</ele>
        <time>2021-08-25T15:26:19Z</time>
      </trkpt>
      <trkpt lat="45.51229" lon="2.93318">
        <ele>1037.1</ele>
        <time>2021-08-25T15:26:21Z</time>
      </trkpt>
      <trkpt lat="45.5123" lon="2.93318">
        <ele>1037</ele>
        <time>2021-08-25T15:26:23Z</time>
      </trkpt>
      <trkpt lat="45.51231" lon="2.93319">
        <ele>1037</ele>
        <time>2021-08-25T15:26:25Z</time>
      </trkpt>
      <trkpt lat="45.51232" lon="2.93319">
        <ele>1037</ele>
        <time>2021-08-25T15:26:27Z</time>
      </trkpt>
      <trkpt lat="45.51233" lon="2.93319">
        <ele>1036.9</ele>
        <time>2021-08-25T15:26:29Z</time>
      </trkpt>
      <trkpt lat="45.51233" lon="2.93319">
        <ele>1036.9</ele>
        <time>2021-08-25T15:26:31Z</time>
      </trkpt>
      <trkpt lat="45.51233" lon="2.9332">
        <ele>1036.9</ele>
        <time>2021-08-25T15:26:33Z</time>
      </trkpt>
      <trkpt lat="45.51232" lon="2.9332">
        <ele>1036.9</ele>
        <time>2021-08-25T15:26:35Z</time>
      </trkpt>
      <trkpt lat="45.51232" lon="2.93321">
        <ele>1036.9</ele>
        <time>2021-08-25T15:26:37Z</time>
      </trkpt>
      <trkpt lat="45.51232" lon="2.9332">
        <ele>1036.9</ele>
        <time>2021-08-25T15:26:39Z</time>
      </trkpt>
      <trkpt lat="45.51233" lon="2.93319">
        <ele>1036.9</ele>
        <time>2021-08-25T15:26:41Z</time>
      </trkpt>
      <trkpt lat="45.51235" lon="2.93317">
        <ele>1036.8</ele>
        <time>2021-08-25T15:26:43Z</time>
      </trkpt>
      <trkpt lat="45.51236" lon="2.93315">
        <ele>1036.8</ele>
        <time>2021-08-25T15:26:45Z</time>
      </trkpt>
      <trkpt lat="45.51236" lon="2.93314">
        <ele>1036.7</ele>
        <time>2021-08-25T15:26:47Z</time>
      </trkpt>
      <trkpt lat="45.51235" lon="2.93313">
        <ele>1036.8</ele>
        <time>2021-08-25T15:26:49Z</time>
      </trkpt>
      <trkpt lat="45.51235" lon="2.93312">
        <ele>1036.8</ele>
        <time>2021-08-25T15:26:51Z</time>
      </trkpt>
      <trkpt lat="45.51235" lon="2.93312">
        <ele>1036.8</ele>
        <time>2021-08-25T15:26:53Z</time>
      </trkpt>
      <trkpt lat="45.51234" lon="2.93312">
        <ele>1036.9</ele>
        <time>2021-08-25T15:26:55Z</time>
      </trkpt>
      <trkpt lat="45.51234" lon="2.93312">
        <ele>1036.9</ele>
        <time>2021-08-25T15:26:57Z</time>
      </trkpt>
      <trkpt lat="45.51233" lon="2.93312">
        <ele>1036.9</ele>
        <time>2021-08-25T15:26:59Z</time>
      </trkpt>
      <trkpt lat="45.51232" lon="2.93312">
        <ele>1037</ele>
        <time>2021-08-25T15:27:01Z</time>
      </trkpt>
      <trkpt lat="45.51232" lon="2.93312">
        <ele>1037</ele>
        <time>2021-08-25T15:27:03Z</time>
      </trkpt>
      <trkpt lat="45.51232" lon="2.93312">
        <ele>1037</ele>
        <time>2021-08-25T15:27:07Z</time>
      </trkpt>
      <trkpt lat="45.51232" lon="2.93312">
        <ele>1037</ele>
        <time>2021-08-25T15:27:11Z</time>
      </trkpt>
      <trkpt lat="45.51232" lon="2.93312">
        <ele>1037</ele>
        <time>2021-08-25T15:27:15Z</time>
      </trkpt>
      <trkpt lat="45.51232" lon="2.93312">
        <ele>1037</ele>
        <time>2021-08-25T15:27:19Z</time>
      </trkpt>
      <trkpt lat="45.5123" lon="2.93311">
        <ele>1037.1</ele>
        <time>2021-08-25T15:27:23Z</time>
      </trkpt>
      <trkpt lat="45.51229" lon="2.93311">
        <ele>1037.1</ele>
        <time>2021-08-25T15:27:25Z</time>
      </trkpt>
      <trkpt lat="45.51229" lon="2.9331">
        <ele>1037.2</ele>
        <time>2021-08-25T15:27:27Z</time>
      </trkpt>
      <trkpt lat="45.51228" lon="2.93309">
        <ele>1037.2</ele>
        <time>2021-08-25T15:27:29Z</time>
      </trkpt>
      <trkpt lat="45.51227" lon="2.93307">
        <ele>1037.3</ele>
        <time>2021-08-25T15:27:31Z</time>
      </trkpt>
      <trkpt lat="45.51226" lon="2.93305">
        <ele>1037.4</ele>
        <time>2021-08-25T15:27:33Z</time>
      </trkpt>
      <trkpt lat="45.51225" lon="2.93303">
        <ele>1037.4</ele>
        <time>2021-08-25T15:27:35Z</time>
      </trkpt>
      <trkpt lat="45.51223" lon="2.93301">
        <ele>1037.5</ele>
        <time>2021-08-25T15:27:37Z</time>
      </trkpt>
      <trkpt lat="45.51222" lon="2.933">
        <ele>1037.6</ele>
        <time>2021-08-25T15:27:39Z</time>
      </trkpt>
      <trkpt lat="45.5122" lon="2.93298">
        <ele>1037.7</ele>
        <time>2021-08-25T15:27:41Z</time>
      </trkpt>
      <trkpt lat="45.51219" lon="2.93297">
        <ele>1037.8</ele>
        <time>2021-08-25T15:27:43Z</time>
      </trkpt>
      <trkpt lat="45.51217" lon="2.93296">
        <ele>1037.9</ele>
        <time>2021-08-25T15:27:45Z</time>
      </trkpt>
      <trkpt lat="45.51216" lon="2.93295">
        <ele>1038</ele>
        <time>2021-08-25T15:27:47Z</time>
      </trkpt>
      <trkpt lat="45.51214" lon="2.93295">
        <ele>1038.1</ele>
        <time>2021-08-25T15:27:49Z</time>
      </trkpt>
      <trkpt lat="45.51213" lon="2.93295">
        <ele>1038.2</ele>
        <time>2021-08-25T15:27:51Z</time>
      </trkpt>
      <trkpt lat="45.51212" lon="2.93295">
        <ele>1038.2</ele>
        <time>2021-08-25T15:27:53Z</time>
      </trkpt>
      <trkpt lat="45.51212" lon="2.93295">
        <ele>1038.2</ele>
        <time>2021-08-25T15:27:55Z</time>
      </trkpt>
      <trkpt lat="45.51212" lon="2.93296">
        <ele>1038.2</ele>
        <time>2021-08-25T15:27:57Z</time>
      </trkpt>
      <trkpt lat="45.51212" lon="2.93296">
        <ele>1038.2</ele>
        <time>2021-08-25T15:27:59Z</time>
      </trkpt>
      <trkpt lat="45.51212" lon="2.93296">
        <ele>1038.3</ele>
        <time>2021-08-25T15:28:01Z</time>
      </trkpt>
      <trkpt lat="45.51212" lon="2.93296">
        <ele>1038.3</ele>
        <time>2021-08-25T15:28:03Z</time>
      </trkpt>
      <trkpt lat="45.51212" lon="2.93296">
        <ele>1038.3</ele>
        <time>2021-08-25T15:28:05Z</time>
      </trkpt>
      <trkpt lat="45.51212" lon="2.93296">
        <ele>1038.3</ele>
        <time>2021-08-25T15:28:07Z</time>
      </trkpt>
      <trkpt lat="45.51212" lon="2.93296">
        <ele>1038.3</ele>
        <time>2021-08-25T15:28:09Z</time>
      </trkpt>
      <trkpt lat="45.51212" lon="2.93295">
        <ele>1038.3</ele>
        <time>2021-08-25T15:28:11Z</time>
      </trkpt>
      <trkpt lat="45.51212" lon="2.93295">
        <ele>1038.2</ele>
        <time>2021-08-25T15:28:13Z</time>
      </trkpt>
      <trkpt lat="45.51212" lon="2.93295">
        <ele>1038.2</ele>
        <time>2021-08-25T15:28:15Z</time>
      </trkpt>
      <trkpt lat="45.51212" lon="2.93295">
        <ele>1038.2</ele>
        <time>2021-08-25T15:28:17Z</time>
      </trkpt>
      <trkpt lat="45.51213" lon="2.93295">
        <ele>1038.2</ele>
        <time>2021-08-25T15:28:19Z</time>
      </trkpt>
      <trkpt lat="45.51212" lon="2.93295">
        <ele>1038.2</ele>
        <time>2021-08-25T15:28:21Z</time>
      </trkpt>
      <trkpt lat="45.51213" lon="2.93295">
        <ele>1038.2</ele>
        <time>2021-08-25T15:28:23Z</time>
      </trkpt>
      <trkpt lat="45.51213" lon="2.93296">
        <ele>1038.2</ele>
        <time>2021-08-25T15:28:25Z</time>
      </trkpt>
      <trkpt lat="45.51212" lon="2.93297">
        <ele>1038.2</ele>
        <time>2021-08-25T15:28:27Z</time>
      </trkpt>
      <trkpt lat="45.51213" lon="2.93296">
        <ele>1038.2</ele>
        <time>2021-08-25T15:28:29Z</time>
      </trkpt>
      <trkpt lat="45.51213" lon="2.93296">
        <ele>1038.2</ele>
        <time>2021-08-25T15:28:31Z</time>
      </trkpt>
      <trkpt lat="45.51213" lon="2.93295">
        <ele>1038.2</ele>
        <time>2021-08-25T15:28:33Z</time>
      </trkpt>
      <trkpt lat="45.51213" lon="2.93295">
        <ele>1038.2</ele>
        <time>2021-08-25T15:28:35Z</time>
      </trkpt>
      <trkpt lat="45.51211" lon="2.93294">
        <ele>1038.3</ele>
        <time>2021-08-25T15:28:37Z</time>
      </trkpt>
      <trkpt lat="45.51208" lon="2.93293">
        <ele>1038.5</ele>
        <time>2021-08-25T15:28:39Z</time>
      </trkpt>
      <trkpt lat="45.51205" lon="2.93294">
        <ele>1038.7</ele>
        <time>2021-08-25T15:28:41Z</time>
      </trkpt>
      <trkpt lat="45.51201" lon="2.93295">
        <ele>1038.9</ele>
        <time>2021-08-25T15:28:43Z</time>
      </trkpt>
      <trkpt lat="45.51199" lon="2.93293">
        <ele>1039.1</ele>
        <time>2021-08-25T15:28:45Z</time>
      </trkpt>
      <trkpt lat="45.51197" lon="2.93291">
        <ele>1039.2</ele>
        <time>2021-08-25T15:28:47Z</time>
      </trkpt>
      <trkpt lat="45.51195" lon="2.93288">
        <ele>1039.4</ele>
        <time>2021-08-25T15:28:49Z</time>
      </trkpt>
      <trkpt lat="45.51194" lon="2.93287">
        <ele>1039.5</ele>
        <time>2021-08-25T15:28:51Z</time>
      </trkpt>
      <trkpt lat="45.51193" lon="2.93287">
        <ele>1039.5</ele>
        <time>2021-08-25T15:28:53Z</time>
      </trkpt>
      <trkpt lat="45.51194" lon="2.93286">
        <ele>1039.5</ele>
        <time>2021-08-25T15:28:55Z</time>
      </trkpt>
      <trkpt lat="45.51193" lon="2.93286">
        <ele>1039.5</ele>
        <time>2021-08-25T15:28:57Z</time>
      </trkpt>
      <trkpt lat="45.51194" lon="2.93286">
        <ele>1039.5</ele>
        <time>2021-08-25T15:28:59Z</time>
      </trkpt>
      <trkpt lat="45.51194" lon="2.93286">
        <ele>1039.5</ele>
        <time>2021-08-25T15:29:01Z</time>
      </trkpt>
      <trkpt lat="45.51194" lon="2.93286">
        <ele>1039.5</ele>
        <time>2021-08-25T15:29:03Z</time>
      </trkpt>
      <trkpt lat="45.51194" lon="2.93285">
        <ele>1039.4</ele>
        <time>2021-08-25T15:29:05Z</time>
      </trkpt>
      <trkpt lat="45.51194" lon="2.93285">
        <ele>1039.4</ele>
        <time>2021-08-25T15:29:07Z</time>
      </trkpt>
      <trkpt lat="45.51194" lon="2.93285">
        <ele>1039.4</ele>
        <time>2021-08-25T15:29:09Z</time>
      </trkpt>
      <trkpt lat="45.51195" lon="2.93285">
        <ele>1039.4</ele>
        <time>2021-08-25T15:29:11Z</time>
      </trkpt>
      <trkpt lat="45.51195" lon="2.93285">
        <ele>1039.4</ele>
        <time>2021-08-25T15:29:13Z</time>
      </trkpt>
      <trkpt lat="45.51195" lon="2.93285">
        <ele>1039.4</ele>
        <time>2021-08-25T15:29:17Z</time>
      </trkpt>
      <trkpt lat="45.51195" lon="2.93284">
        <ele>1039.4</ele>
        <time>2021-08-25T15:29:19Z</time>
      </trkpt>
      <trkpt lat="45.51195" lon="2.93284">
        <ele>1039.4</ele>
        <time>2021-08-25T15:29:21Z</time>
      </trkpt>
      <trkpt lat="45.51195" lon="2.93284">
        <ele>1039.4</ele>
        <time>2021-08-25T15:29:23Z</time>
      </trkpt>
      <trkpt lat="45.51195" lon="2.93285">
        <ele>1039.4</ele>
        <time>2021-08-25T15:29:25Z</time>
      </trkpt>
      <trkpt lat="45.51195" lon="2.93285">
        <ele>1039.4</ele>
        <time>2021-08-25T15:29:27Z</time>
      </trkpt>
      <trkpt lat="45.51195" lon="2.93285">
        <ele>1039.4</ele>
        <time>2021-08-25T15:29:29Z</time>
      </trkpt>
      <trkpt lat="45.51194" lon="2.93284">
        <ele>1039.5</ele>
        <time>2021-08-25T15:29:31Z</time>
      </trkpt>
      <trkpt lat="45.51194" lon="2.93283">
        <ele>1039.5</ele>
        <time>2021-08-25T15:29:33Z</time>
      </trkpt>
      <trkpt lat="45.51193" lon="2.93281">
        <ele>1039.6</ele>
        <time>2021-08-25T15:29:35Z</time>
      </trkpt>
      <trkpt lat="45.51191" lon="2.9328">
        <ele>1039.7</ele>
        <time>2021-08-25T15:29:37Z</time>
      </trkpt>
      <trkpt lat="45.5119" lon="2.93279">
        <ele>1039.8</ele>
        <time>2021-08-25T15:29:39Z</time>
      </trkpt>
      <trkpt lat="45.51189" lon="2.93278">
        <ele>1039.9</ele>
        <time>2021-08-25T15:29:41Z</time>
      </trkpt>
      <trkpt lat="45.51188" lon="2.93277">
        <ele>1040</ele>
        <time>2021-08-25T15:29:43Z</time>
      </trkpt>
      <trkpt lat="45.51186" lon="2.93278">
        <ele>1040.1</ele>
        <time>2021-08-25T15:29:45Z</time>
      </trkpt>
      <trkpt lat="45.51184" lon="2.93279">
        <ele>1040.2</ele>
        <time>2021-08-25T15:29:47Z</time>
      </trkpt>
      <trkpt lat="45.51181" lon="2.93279">
        <ele>1040.4</ele>
        <time>2021-08-25T15:29:49Z</time>
      </trkpt>
      <trkpt lat="45.5118" lon="2.93279">
        <ele>1040.5</ele>
        <time>2021-08-25T15:29:51Z</time>
      </trkpt>
      <trkpt lat="45.51179" lon="2.93279">
        <ele>1040.5</ele>
        <time>2021-08-25T15:29:53Z</time>
      </trkpt>
      <trkpt lat="45.51179" lon="2.93278">
        <ele>1040.5</ele>
        <time>2021-08-25T15:29:55Z</time>
      </trkpt>
      <trkpt lat="45.5118" lon="2.93277">
        <ele>1040.5</ele>
        <time>2021-08-25T15:29:57Z</time>
      </trkpt>
      <trkpt lat="45.5118" lon="2.93276">
        <ele>1040.5</ele>
        <time>2021-08-25T15:29:59Z</time>
      </trkpt>
      <trkpt lat="45.5118" lon="2.93275">
        <ele>1040.5</ele>
        <time>2021-08-25T15:30:01Z</time>
      </trkpt>
      <trkpt lat="45.5118" lon="2.93275">
        <ele>1040.5</ele>
        <time>2021-08-25T15:30:03Z</time>
      </trkpt>
      <trkpt lat="45.5118" lon="2.93275">
        <ele>1040.5</ele>
        <time>2021-08-25T15:30:07Z</time>
      </trkpt>
      <trkpt lat="45.5118" lon="2.93275">
        <ele>1040.5</ele>
        <time>2021-08-25T15:30:11Z</time>
      </trkpt>
      <trkpt lat="45.5118" lon="2.93275">
        <ele>1040.5</ele>
        <time>2021-08-25T15:30:15Z</time>
      </trkpt>
      <trkpt lat="45.5118" lon="2.93275">
        <ele>1040.5</ele>
        <time>2021-08-25T15:30:19Z</time>
      </trkpt>
      <trkpt lat="45.5118" lon="2.93271">
        <ele>1040.6</ele>
        <time>2021-08-25T15:30:21Z</time>
      </trkpt>
      <trkpt lat="45.5118" lon="2.9327">
        <ele>1040.6</ele>
        <time>2021-08-25T15:30:23Z</time>
      </trkpt>
      <trkpt lat="45.5118" lon="2.9327">
        <ele>1040.6</ele>
        <time>2021-08-25T15:30:25Z</time>
      </trkpt>
      <trkpt lat="45.5118" lon="2.93271">
        <ele>1040.6</ele>
        <time>2021-08-25T15:30:27Z</time>
      </trkpt>
      <trkpt lat="45.51181" lon="2.93271">
        <ele>1040.6</ele>
        <time>2021-08-25T15:30:29Z</time>
      </trkpt>
      <trkpt lat="45.51181" lon="2.93271">
        <ele>1040.5</ele>
        <time>2021-08-25T15:30:31Z</time>
      </trkpt>
      <trkpt lat="45.51182" lon="2.93269">
        <ele>1040.5</ele>
        <time>2021-08-25T15:30:33Z</time>
      </trkpt>
      <trkpt lat="45.51182" lon="2.93269">
        <ele>1040.6</ele>
        <time>2021-08-25T15:30:35Z</time>
      </trkpt>
      <trkpt lat="45.51182" lon="2.93268">
        <ele>1040.6</ele>
        <time>2021-08-25T15:30:37Z</time>
      </trkpt>
      <trkpt lat="45.51182" lon="2.93268">
        <ele>1040.6</ele>
        <time>2021-08-25T15:30:39Z</time>
      </trkpt>
      <trkpt lat="45.51181" lon="2.93267">
        <ele>1040.6</ele>
        <time>2021-08-25T15:30:41Z</time>
      </trkpt>
      <trkpt lat="45.51182" lon="2.93267">
        <ele>1040.6</ele>
        <time>2021-08-25T15:30:43Z</time>
      </trkpt>
      <trkpt lat="45.51182" lon="2.93266">
        <ele>1040.6</ele>
        <time>2021-08-25T15:30:45Z</time>
      </trkpt>
      <trkpt lat="45.51181" lon="2.93266">
        <ele>1040.6</ele>
        <time>2021-08-25T15:30:47Z</time>
      </trkpt>
      <trkpt lat="45.51181" lon="2.93266">
        <ele>1040.7</ele>
        <time>2021-08-25T15:30:49Z</time>
      </trkpt>
      <trkpt lat="45.5118" lon="2.93266">
        <ele>1040.7</ele>
        <time>2021-08-25T15:30:51Z</time>
      </trkpt>
      <trkpt lat="45.5118" lon="2.93267">
        <ele>1040.7</ele>
        <time>2021-08-25T15:30:53Z</time>
      </trkpt>
      <trkpt lat="45.5118" lon="2.93267">
        <ele>1040.7</ele>
        <time>2021-08-25T15:30:55Z</time>
      </trkpt>
      <trkpt lat="45.5118" lon="2.93266">
        <ele>1040.7</ele>
        <time>2021-08-25T15:30:57Z</time>
      </trkpt>
      <trkpt lat="45.5118" lon="2.93266">
        <ele>1040.7</ele>
        <time>2021-08-25T15:30:59Z</time>
      </trkpt>
      <trkpt lat="45.51179" lon="2.93265">
        <ele>1040.8</ele>
        <time>2021-08-25T15:31:01Z</time>
      </trkpt>
      <trkpt lat="45.5118" lon="2.93264">
        <ele>1040.8</ele>
        <time>2021-08-25T15:31:03Z</time>
      </trkpt>
      <trkpt lat="45.5118" lon="2.93264">
        <ele>1040.8</ele>
        <time>2021-08-25T15:31:05Z</time>
      </trkpt>
      <trkpt lat="45.51181" lon="2.93264">
        <ele>1040.7</ele>
        <time>2021-08-25T15:31:07Z</time>
      </trkpt>
      <trkpt lat="45.51181" lon="2.93263">
        <ele>1040.7</ele>
        <time>2021-08-25T15:31:09Z</time>
      </trkpt>
      <trkpt lat="45.51181" lon="2.93263">
        <ele>1040.7</ele>
        <time>2021-08-25T15:31:11Z</time>
      </trkpt>
      <trkpt lat="45.51181" lon="2.93263">
        <ele>1040.7</ele>
        <time>2021-08-25T15:31:13Z</time>
      </trkpt>
      <trkpt lat="45.51181" lon="2.93263">
        <ele>1040.7</ele>
        <time>2021-08-25T15:31:15Z</time>
      </trkpt>
      <trkpt lat="45.51182" lon="2.93263">
        <ele>1040.7</ele>
        <time>2021-08-25T15:31:17Z</time>
      </trkpt>
      <trkpt lat="45.51182" lon="2.93263">
        <ele>1040.7</ele>
        <time>2021-08-25T15:31:19Z</time>
      </trkpt>
      <trkpt lat="45.51182" lon="2.93263">
        <ele>1040.6</ele>
        <time>2021-08-25T15:31:21Z</time>
      </trkpt>
      <trkpt lat="45.51182" lon="2.93262">
        <ele>1040.6</ele>
        <time>2021-08-25T15:31:23Z</time>
      </trkpt>
      <trkpt lat="45.51182" lon="2.93263">
        <ele>1040.6</ele>
        <time>2021-08-25T15:31:25Z</time>
      </trkpt>
      <trkpt lat="45.51182" lon="2.93262">
        <ele>1040.6</ele>
        <time>2021-08-25T15:31:27Z</time>
      </trkpt>
      <trkpt lat="45.51182" lon="2.93263">
        <ele>1040.7</ele>
        <time>2021-08-25T15:31:29Z</time>
      </trkpt>
      <trkpt lat="45.51181" lon="2.93265">
        <ele>1040.7</ele>
        <time>2021-08-25T15:31:31Z</time>
      </trkpt>
      <trkpt lat="45.51182" lon="2.93266">
        <ele>1040.6</ele>
        <time>2021-08-25T15:31:33Z</time>
      </trkpt>
      <trkpt lat="45.51182" lon="2.93267">
        <ele>1040.6</ele>
        <time>2021-08-25T15:31:35Z</time>
      </trkpt>
      <trkpt lat="45.51182" lon="2.93267">
        <ele>1040.6</ele>
        <time>2021-08-25T15:31:37Z</time>
      </trkpt>
      <trkpt lat="45.51181" lon="2.93268">
        <ele>1040.6</ele>
        <time>2021-08-25T15:31:39Z</time>
      </trkpt>
      <trkpt lat="45.51181" lon="2.93269">
        <ele>1040.6</ele>
        <time>2021-08-25T15:31:41Z</time>
      </trkpt>
      <trkpt lat="45.51181" lon="2.9327">
        <ele>1040.6</ele>
        <time>2021-08-25T15:31:43Z</time>
      </trkpt>
      <trkpt lat="45.51181" lon="2.9327">
        <ele>1040.6</ele>
        <time>2021-08-25T15:31:45Z</time>
      </trkpt>
      <trkpt lat="45.51181" lon="2.9327">
        <ele>1040.6</ele>
        <time>2021-08-25T15:31:47Z</time>
      </trkpt>
      <trkpt lat="45.51181" lon="2.9327">
        <ele>1040.6</ele>
        <time>2021-08-25T15:31:49Z</time>
      </trkpt>
      <trkpt lat="45.5118" lon="2.93271">
        <ele>1040.6</ele>
        <time>2021-08-25T15:31:51Z</time>
      </trkpt>
      <trkpt lat="45.5118" lon="2.93271">
        <ele>1040.6</ele>
        <time>2021-08-25T15:31:53Z</time>
      </trkpt>
      <trkpt lat="45.5118" lon="2.93271">
        <ele>1040.6</ele>
        <time>2021-08-25T15:31:55Z</time>
      </trkpt>
      <trkpt lat="45.5118" lon="2.93271">
        <ele>1040.6</ele>
        <time>2021-08-25T15:31:57Z</time>
      </trkpt>
      <trkpt lat="45.51179" lon="2.93272">
        <ele>1040.6</ele>
        <time>2021-08-25T15:31:59Z</time>
      </trkpt>
      <trkpt lat="45.51178" lon="2.93273">
        <ele>1040.7</ele>
        <time>2021-08-25T15:32:01Z</time>
      </trkpt>
      <trkpt lat="45.51179" lon="2.93272">
        <ele>1040.7</ele>
        <time>2021-08-25T15:32:03Z</time>
      </trkpt>
      <trkpt lat="45.51178" lon="2.93272">
        <ele>1040.7</ele>
        <time>2021-08-25T15:32:05Z</time>
      </trkpt>
      <trkpt lat="45.51177" lon="2.93274">
        <ele>1040.8</ele>
        <time>2021-08-25T15:32:07Z</time>
      </trkpt>
      <trkpt lat="45.51176" lon="2.93275">
        <ele>1040.8</ele>
        <time>2021-08-25T15:32:09Z</time>
      </trkpt>
      <trkpt lat="45.51175" lon="2.93276">
        <ele>1040.8</ele>
        <time>2021-08-25T15:32:11Z</time>
      </trkpt>
      <trkpt lat="45.51174" lon="2.93277">
        <ele>1040.9</ele>
        <time>2021-08-25T15:32:13Z</time>
      </trkpt>
      <trkpt lat="45.51173" lon="2.93277">
        <ele>1040.9</ele>
        <time>2021-08-25T15:32:15Z</time>
      </trkpt>
      <trkpt lat="45.51172" lon="2.93278">
        <ele>1041</ele>
        <time>2021-08-25T15:32:17Z</time>
      </trkpt>
      <trkpt lat="45.51171" lon="2.93278">
        <ele>1041</ele>
        <time>2021-08-25T15:32:19Z</time>
      </trkpt>
      <trkpt lat="45.51171" lon="2.93278">
        <ele>1041</ele>
        <time>2021-08-25T15:32:21Z</time>
      </trkpt>
      <trkpt lat="45.5117" lon="2.93279">
        <ele>1041.1</ele>
        <time>2021-08-25T15:32:23Z</time>
      </trkpt>
      <trkpt lat="45.51167" lon="2.9328">
        <ele>1041.3</ele>
        <time>2021-08-25T15:32:25Z</time>
      </trkpt>
      <trkpt lat="45.51164" lon="2.93281">
        <ele>1041.3</ele>
        <time>2021-08-25T15:32:27Z</time>
      </trkpt>
      <trkpt lat="45.51162" lon="2.93282">
        <ele>1041.3</ele>
        <time>2021-08-25T15:32:29Z</time>
      </trkpt>
      <trkpt lat="45.5116" lon="2.93284">
        <ele>1041.3</ele>
        <time>2021-08-25T15:32:31Z</time>
      </trkpt>
      <trkpt lat="45.51158" lon="2.93286">
        <ele>1041.3</ele>
        <time>2021-08-25T15:32:33Z</time>
      </trkpt>
      <trkpt lat="45.51157" lon="2.93287">
        <ele>1041.3</ele>
        <time>2021-08-25T15:32:35Z</time>
      </trkpt>
      <trkpt lat="45.51157" lon="2.93287">
        <ele>1041.3</ele>
        <time>2021-08-25T15:32:37Z</time>
      </trkpt>
      <trkpt lat="45.51157" lon="2.93288">
        <ele>1041.3</ele>
        <time>2021-08-25T15:32:39Z</time>
      </trkpt>
      <trkpt lat="45.51156" lon="2.93289">
        <ele>1041.3</ele>
        <time>2021-08-25T15:32:41Z</time>
      </trkpt>
      <trkpt lat="45.51155" lon="2.9329">
        <ele>1041.2</ele>
        <time>2021-08-25T15:32:43Z</time>
      </trkpt>
      <trkpt lat="45.51155" lon="2.93291">
        <ele>1041.2</ele>
        <time>2021-08-25T15:32:45Z</time>
      </trkpt>
      <trkpt lat="45.51155" lon="2.93291">
        <ele>1041.2</ele>
        <time>2021-08-25T15:32:49Z</time>
      </trkpt>
      <trkpt lat="45.51153" lon="2.93294">
        <ele>1041.2</ele>
        <time>2021-08-25T15:32:51Z</time>
      </trkpt>
      <trkpt lat="45.51153" lon="2.93294">
        <ele>1041.2</ele>
        <time>2021-08-25T15:32:53Z</time>
      </trkpt>
      <trkpt lat="45.51153" lon="2.93294">
        <ele>1041.2</ele>
        <time>2021-08-25T15:32:57Z</time>
      </trkpt>
      <trkpt lat="45.51153" lon="2.93294">
        <ele>1041.2</ele>
        <time>2021-08-25T15:33:01Z</time>
      </trkpt>
      <trkpt lat="45.51151" lon="2.93297">
        <ele>1041.2</ele>
        <time>2021-08-25T15:33:05Z</time>
      </trkpt>
      <trkpt lat="45.51151" lon="2.93297">
        <ele>1041.1</ele>
        <time>2021-08-25T15:33:07Z</time>
      </trkpt>
      <trkpt lat="45.51151" lon="2.93298">
        <ele>1041.1</ele>
        <time>2021-08-25T15:33:09Z</time>
      </trkpt>
      <trkpt lat="45.51151" lon="2.93298">
        <ele>1041.1</ele>
        <time>2021-08-25T15:33:11Z</time>
      </trkpt>
      <trkpt lat="45.51151" lon="2.93298">
        <ele>1041.1</ele>
        <time>2021-08-25T15:33:13Z</time>
      </trkpt>
      <trkpt lat="45.51152" lon="2.93297">
        <ele>1041.1</ele>
        <time>2021-08-25T15:33:15Z</time>
      </trkpt>
      <trkpt lat="45.51152" lon="2.93298">
        <ele>1041.1</ele>
        <time>2021-08-25T15:33:17Z</time>
      </trkpt>
      <trkpt lat="45.51151" lon="2.93298">
        <ele>1041.1</ele>
        <time>2021-08-25T15:33:19Z</time>
      </trkpt>
      <trkpt lat="45.5115" lon="2.93298">
        <ele>1041.1</ele>
        <time>2021-08-25T15:33:21Z</time>
      </trkpt>
      <trkpt lat="45.51149" lon="2.93298">
        <ele>1041.1</ele>
        <time>2021-08-25T15:33:23Z</time>
      </trkpt>
      <trkpt lat="45.51148" lon="2.93297">
        <ele>1041.2</ele>
        <time>2021-08-25T15:33:25Z</time>
      </trkpt>
      <trkpt lat="45.51148" lon="2.93295">
        <ele>1041.3</ele>
        <time>2021-08-25T15:33:27Z</time>
      </trkpt>
      <trkpt lat="45.51149" lon="2.93292">
        <ele>1041.3</ele>
        <time>2021-08-25T15:33:29Z</time>
      </trkpt>
      <trkpt lat="45.51149" lon="2.93289">
        <ele>1041.4</ele>
        <time>2021-08-25T15:33:31Z</time>
      </trkpt>
      <trkpt lat="45.51147" lon="2.93287">
        <ele>1041.5</ele>
        <time>2021-08-25T15:33:33Z</time>
      </trkpt>
      <trkpt lat="45.51146" lon="2.93285">
        <ele>1041.5</ele>
        <time>2021-08-25T15:33:35Z</time>
      </trkpt>
      <trkpt lat="45.51145" lon="2.93283">
        <ele>1041.6</ele>
        <time>2021-08-25T15:33:37Z</time>
      </trkpt>
      <trkpt lat="45.51143" lon="2.93282">
        <ele>1041.7</ele>
        <time>2021-08-25T15:33:39Z</time>
      </trkpt>
      <trkpt lat="45.51141" lon="2.9328">
        <ele>1041.8</ele>
        <time>2021-08-25T15:33:41Z</time>
      </trkpt>
      <trkpt lat="45.51139" lon="2.9328">
        <ele>1041.8</ele>
        <time>2021-08-25T15:33:43Z</time>
      </trkpt>
      <trkpt lat="45.51138" lon="2.93278">
        <ele>1041.9</ele>
        <time>2021-08-25T15:33:45Z</time>
      </trkpt>
      <trkpt lat="45.51136" lon="2.93278">
        <ele>1041.9</ele>
        <time>2021-08-25T15:33:47Z</time>
      </trkpt>
      <trkpt lat="45.51134" lon="2.93277">
        <ele>1042</ele>
        <time>2021-08-25T15:33:49Z</time>
      </trkpt>
      <trkpt lat="45.51132" lon="2.93276">
        <ele>1042.1</ele>
        <time>2021-08-25T15:33:51Z</time>
      </trkpt>
      <trkpt lat="45.51129" lon="2.93275">
        <ele>1042.2</ele>
        <time>2021-08-25T15:33:53Z</time>
      </trkpt>
      <trkpt lat="45.51127" lon="2.93273">
        <ele>1042.3</ele>
        <time>2021-08-25T15:33:55Z</time>
      </trkpt>
      <trkpt lat="45.51112" lon="2.93244">
        <ele>1043.5</ele>
        <time>2021-08-25T15:35:05Z</time>
      </trkpt>
      <trkpt lat="45.51111" lon="2.93244">
        <ele>1043.5</ele>
        <time>2021-08-25T15:35:07Z</time>
      </trkpt>
      <trkpt lat="45.51112" lon="2.93244">
        <ele>1043.5</ele>
        <time>2021-08-25T15:35:09Z</time>
      </trkpt>
      <trkpt lat="45.51112" lon="2.93245">
        <ele>1043.5</ele>
        <time>2021-08-25T15:35:11Z</time>
      </trkpt>
      <trkpt lat="45.51114" lon="2.93246">
        <ele>1043.4</ele>
        <time>2021-08-25T15:35:13Z</time>
      </trkpt>
      <trkpt lat="45.51116" lon="2.93244">
        <ele>1043.4</ele>
        <time>2021-08-25T15:35:15Z</time>
      </trkpt>
      <trkpt lat="45.5112" lon="2.9324">
        <ele>1043.5</ele>
        <time>2021-08-25T15:35:17Z</time>
      </trkpt>
      <trkpt lat="45.51122" lon="2.93234">
        <ele>1043.6</ele>
        <time>2021-08-25T15:35:19Z</time>
      </trkpt>
      <trkpt lat="45.51125" lon="2.9323">
        <ele>1043.6</ele>
        <time>2021-08-25T15:35:21Z</time>
      </trkpt>
      <trkpt lat="45.51127" lon="2.93227">
        <ele>1043.6</ele>
        <time>2021-08-25T15:35:23Z</time>
      </trkpt>
      <trkpt lat="45.51128" lon="2.93224">
        <ele>1043.7</ele>
        <time>2021-08-25T15:35:25Z</time>
      </trkpt>
      <trkpt lat="45.5113" lon="2.93221">
        <ele>1043.7</ele>
        <time>2021-08-25T15:35:27Z</time>
      </trkpt>
      <trkpt lat="45.51131" lon="2.93218">
        <ele>1043.7</ele>
        <time>2021-08-25T15:35:29Z</time>
      </trkpt>
      <trkpt lat="45.51133" lon="2.93215">
        <ele>1043.7</ele>
        <time>2021-08-25T15:35:31Z</time>
      </trkpt>
      <trkpt lat="45.51171" lon="2.93199">
        <ele>1042.2</ele>
        <time>2021-08-25T15:37:55Z</time>
      </trkpt>
      <trkpt lat="45.51177" lon="2.93201">
        <ele>1041.6</ele>
        <time>2021-08-25T15:37:57Z</time>
      </trkpt>
      <trkpt lat="45.51183" lon="2.93204">
        <ele>1041.1</ele>
        <time>2021-08-25T15:37:59Z</time>
      </trkpt>
      <trkpt lat="45.51189" lon="2.93208">
        <ele>1040.5</ele>
        <time>2021-08-25T15:38:01Z</time>
      </trkpt>
      <trkpt lat="45.51194" lon="2.9321">
        <ele>1040</ele>
        <time>2021-08-25T15:38:03Z</time>
      </trkpt>
      <trkpt lat="45.51199" lon="2.93212">
        <ele>1039.6</ele>
        <time>2021-08-25T15:38:05Z</time>
      </trkpt>
      <trkpt lat="45.51203" lon="2.93213">
        <ele>1039.2</ele>
        <time>2021-08-25T15:38:07Z</time>
      </trkpt>
      <trkpt lat="45.51209" lon="2.93214">
        <ele>1038.8</ele>
        <time>2021-08-25T15:38:09Z</time>
      </trkpt>
      <trkpt lat="45.51213" lon="2.93216">
        <ele>1038.3</ele>
        <time>2021-08-25T15:38:11Z</time>
      </trkpt>
      <trkpt lat="45.51218" lon="2.93218">
        <ele>1038</ele>
        <time>2021-08-25T15:38:13Z</time>
      </trkpt>
      <trkpt lat="45.51222" lon="2.93219">
        <ele>1037.7</ele>
        <time>2021-08-25T15:38:15Z</time>
      </trkpt>
      <trkpt lat="45.51225" lon="2.9322">
        <ele>1037.4</ele>
        <time>2021-08-25T15:38:17Z</time>
      </trkpt>
      <trkpt lat="45.51226" lon="2.9322">
        <ele>1037.3</ele>
        <time>2021-08-25T15:38:19Z</time>
      </trkpt>
      <trkpt lat="45.51228" lon="2.93221">
        <ele>1037.1</ele>
        <time>2021-08-25T15:38:21Z</time>
      </trkpt>
      <trkpt lat="45.51229" lon="2.93221">
        <ele>1037.1</ele>
        <time>2021-08-25T15:38:23Z</time>
      </trkpt>
      <trkpt lat="45.51229" lon="2.93221">
        <ele>1037.1</ele>
        <time>2021-08-25T15:38:25Z</time>
      </trkpt>
      <trkpt lat="45.51243" lon="2.93196">
        <ele>1035.4</ele>
        <time>2021-08-25T15:39:39Z</time>
      </trkpt>
      <trkpt lat="45.51246" lon="2.93186">
        <ele>1034.9</ele>
        <time>2021-08-25T15:39:41Z</time>
      </trkpt>
      <trkpt lat="45.51249" lon="2.93174">
        <ele>1034.2</ele>
        <time>2021-08-25T15:39:43Z</time>
      </trkpt>
      <trkpt lat="45.51253" lon="2.93161">
        <ele>1033.5</ele>
        <time>2021-08-25T15:39:45Z</time>
      </trkpt>
      <trkpt lat="45.51257" lon="2.93148">
        <ele>1032.7</ele>
        <time>2021-08-25T15:39:47Z</time>
      </trkpt>
      <trkpt lat="45.5126" lon="2.93131">
        <ele>1032.1</ele>
        <time>2021-08-25T15:39:49Z</time>
      </trkpt>
      <trkpt lat="45.51261" lon="2.93113">
        <ele>1031.7</ele>
        <time>2021-08-25T15:39:51Z</time>
      </trkpt>
      <trkpt lat="45.51261" lon="2.93095">
        <ele>1031.4</ele>
        <time>2021-08-25T15:39:53Z</time>
      </trkpt>
      <trkpt lat="45.51261" lon="2.93075">
        <ele>1031.3</ele>
        <time>2021-08-25T15:39:55Z</time>
      </trkpt>
      <trkpt lat="45.51261" lon="2.93056">
        <ele>1031.4</ele>
        <time>2021-08-25T15:39:57Z</time>
      </trkpt>
      <trkpt lat="45.51262" lon="2.93035">
        <ele>1031.5</ele>
        <time>2021-08-25T15:39:59Z</time>
      </trkpt>
      <trkpt lat="45.51263" lon="2.93013">
        <ele>1031.4</ele>
        <time>2021-08-25T15:40:01Z</time>
      </trkpt>
      <trkpt lat="45.51264" lon="2.92994">
        <ele>1031.2</ele>
        <time>2021-08-25T15:40:03Z</time>
      </trkpt>
      <trkpt lat="45.51267" lon="2.92975">
        <ele>1030.1</ele>
        <time>2021-08-25T15:40:05Z</time>
      </trkpt>
      <trkpt lat="45.51274" lon="2.9296">
        <ele>1028.6</ele>
        <time>2021-08-25T15:40:07Z</time>
      </trkpt>
      <trkpt lat="45.51284" lon="2.9295">
        <ele>1026.9</ele>
        <time>2021-08-25T15:40:09Z</time>
      </trkpt>
      <trkpt lat="45.51293" lon="2.92937">
        <ele>1025.5</ele>
        <time>2021-08-25T15:40:11Z</time>
      </trkpt>
      <trkpt lat="45.51302" lon="2.92925">
        <ele>1024.2</ele>
        <time>2021-08-25T15:40:13Z</time>
      </trkpt>
      <trkpt lat="45.5131" lon="2.92913">
        <ele>1023.1</ele>
        <time>2021-08-25T15:40:15Z</time>
      </trkpt>
      <trkpt lat="45.51319" lon="2.92901">
        <ele>1022.4</ele>
        <time>2021-08-25T15:40:17Z</time>
      </trkpt>
      <trkpt lat="45.51329" lon="2.92891">
        <ele>1021.5</ele>
        <time>2021-08-25T15:40:19Z</time>
      </trkpt>
      <trkpt lat="45.51339" lon="2.92884">
        <ele>1020.9</ele>
        <time>2021-08-25T15:40:21Z</time>
      </trkpt>
      <trkpt lat="45.51351" lon="2.92882">
        <ele>1020.5</ele>
        <time>2021-08-25T15:40:23Z</time>
      </trkpt>
      <trkpt lat="45.51364" lon="2.92882">
        <ele>1020</ele>
        <time>2021-08-25T15:40:25Z</time>
      </trkpt>
      <trkpt lat="45.51375" lon="2.92885">
        <ele>1019.4</ele>
        <time>2021-08-25T15:40:27Z</time>
      </trkpt>
      <trkpt lat="45.51383" lon="2.92888">
        <ele>1019</ele>
        <time>2021-08-25T15:40:29Z</time>
      </trkpt>
      <trkpt lat="45.51392" lon="2.9289">
        <ele>1018.6</ele>
        <time>2021-08-25T15:40:31Z</time>
      </trkpt>
      <trkpt lat="45.51401" lon="2.92893">
        <ele>1018.2</ele>
        <time>2021-08-25T15:40:33Z</time>
      </trkpt>
      <trkpt lat="45.5141" lon="2.92897">
        <ele>1017.8</ele>
        <time>2021-08-25T15:40:35Z</time>
      </trkpt>
      <trkpt lat="45.51418" lon="2.92899">
        <ele>1017.4</ele>
        <time>2021-08-25T15:40:37Z</time>
      </trkpt>
      <trkpt lat="45.51426" lon="2.92902">
        <ele>1017.5</ele>
        <time>2021-08-25T15:40:39Z</time>
      </trkpt>
      <trkpt lat="45.51433" lon="2.92905">
        <ele>1017.6</ele>
        <time>2021-08-25T15:40:41Z</time>
      </trkpt>
      <trkpt lat="45.5144" lon="2.92907">
        <ele>1017.6</ele>
        <time>2021-08-25T15:40:43Z</time>
      </trkpt>
      <trkpt lat="45.51446" lon="2.92908">
        <ele>1017.7</ele>
        <time>2021-08-25T15:40:45Z</time>
      </trkpt>
      <trkpt lat="45.5145" lon="2.92908">
        <ele>1017.7</ele>
        <time>2021-08-25T15:40:47Z</time>
      </trkpt>
      <trkpt lat="45.51451" lon="2.92908">
        <ele>1017.8</ele>
        <time>2021-08-25T15:40:49Z</time>
      </trkpt>
      <trkpt lat="45.51451" lon="2.92908">
        <ele>1017.8</ele>
        <time>2021-08-25T15:40:51Z</time>
      </trkpt>
      <trkpt lat="45.51451" lon="2.92907">
        <ele>1017.8</ele>
        <time>2021-08-25T15:40:53Z</time>
      </trkpt>
      <trkpt lat="45.51451" lon="2.92907">
        <ele>1017.8</ele>
        <time>2021-08-25T15:40:55Z</time>
      </trkpt>
      <trkpt lat="45.51467" lon="2.92898">
        <ele>1018.5</ele>
        <time>2021-08-25T15:41:51Z</time>
      </trkpt>
      <trkpt lat="45.51475" lon="2.92896">
        <ele>1018.7</ele>
        <time>2021-08-25T15:41:53Z</time>
      </trkpt>
      <trkpt lat="45.51482" lon="2.92897">
        <ele>1018.8</ele>
        <time>2021-08-25T15:41:55Z</time>
      </trkpt>
      <trkpt lat="45.5149" lon="2.92898">
        <ele>1018.9</ele>
        <time>2021-08-25T15:41:57Z</time>
      </trkpt>
      <trkpt lat="45.51497" lon="2.92901">
        <ele>1018.9</ele>
        <time>2021-08-25T15:41:59Z</time>
      </trkpt>
      <trkpt lat="45.51502" lon="2.92905">
        <ele>1019.5</ele>
        <time>2021-08-25T15:42:01Z</time>
      </trkpt>
      <trkpt lat="45.51507" lon="2.92911">
        <ele>1020.8</ele>
        <time>2021-08-25T15:42:03Z</time>
      </trkpt>
      <trkpt lat="45.5151" lon="2.92916">
        <ele>1021.7</ele>
        <time>2021-08-25T15:42:05Z</time>
      </trkpt>
      <trkpt lat="45.51513" lon="2.92921">
        <ele>1022.8</ele>
        <time>2021-08-25T15:42:07Z</time>
      </trkpt>
      <trkpt lat="45.51516" lon="2.92927">
        <ele>1023.4</ele>
        <time>2021-08-25T15:42:09Z</time>
      </trkpt>
      <trkpt lat="45.51518" lon="2.92933">
        <ele>1024</ele>
        <time>2021-08-25T15:42:11Z</time>
      </trkpt>
      <trkpt lat="45.5152" lon="2.9294">
        <ele>1024.5</ele>
        <time>2021-08-25T15:42:13Z</time>
      </trkpt>
      <trkpt lat="45.51522" lon="2.92946">
        <ele>1025.1</ele>
        <time>2021-08-25T15:42:15Z</time>
      </trkpt>
      <trkpt lat="45.51523" lon="2.92953">
        <ele>1025.5</ele>
        <time>2021-08-25T15:42:17Z</time>
      </trkpt>
      <trkpt lat="45.51525" lon="2.9296">
        <ele>1025.9</ele>
        <time>2021-08-25T15:42:19Z</time>
      </trkpt>
      <trkpt lat="45.51527" lon="2.92966">
        <ele>1026.3</ele>
        <time>2021-08-25T15:42:21Z</time>
      </trkpt>
      <trkpt lat="45.51528" lon="2.92973">
        <ele>1026.6</ele>
        <time>2021-08-25T15:42:23Z</time>
      </trkpt>
      <trkpt lat="45.51529" lon="2.92979">
        <ele>1026.8</ele>
        <time>2021-08-25T15:42:25Z</time>
      </trkpt>
      <trkpt lat="45.5153" lon="2.92985">
        <ele>1026.9</ele>
        <time>2021-08-25T15:42:27Z</time>
      </trkpt>
      <trkpt lat="45.51532" lon="2.92991">
        <ele>1027.1</ele>
        <time>2021-08-25T15:42:29Z</time>
      </trkpt>
      <trkpt lat="45.51533" lon="2.92997">
        <ele>1027.3</ele>
        <time>2021-08-25T15:42:31Z</time>
      </trkpt>
      <trkpt lat="45.51534" lon="2.93004">
        <ele>1027.7</ele>
        <time>2021-08-25T15:42:33Z</time>
      </trkpt>
      <trkpt lat="45.51535" lon="2.93011">
        <ele>1028.1</ele>
        <time>2021-08-25T15:42:35Z</time>
      </trkpt>
      <trkpt lat="45.51536" lon="2.93017">
        <ele>1028.3</ele>
        <time>2021-08-25T15:42:37Z</time>
      </trkpt>
      <trkpt lat="45.51537" lon="2.93024">
        <ele>1028.8</ele>
        <time>2021-08-25T15:42:39Z</time>
      </trkpt>
      <trkpt lat="45.51538" lon="2.9303">
        <ele>1029.1</ele>
        <time>2021-08-25T15:42:41Z</time>
      </trkpt>
      <trkpt lat="45.5154" lon="2.93036">
        <ele>1029.6</ele>
        <time>2021-08-25T15:42:43Z</time>
      </trkpt>
      <trkpt lat="45.5154" lon="2.93042">
        <ele>1029.9</ele>
        <time>2021-08-25T15:42:45Z</time>
      </trkpt>
      <trkpt lat="45.51541" lon="2.93049">
        <ele>1030.2</ele>
        <time>2021-08-25T15:42:47Z</time>
      </trkpt>
      <trkpt lat="45.51543" lon="2.93055">
        <ele>1030.8</ele>
        <time>2021-08-25T15:42:49Z</time>
      </trkpt>
      <trkpt lat="45.51545" lon="2.93062">
        <ele>1031.3</ele>
        <time>2021-08-25T15:42:51Z</time>
      </trkpt>
      <trkpt lat="45.51547" lon="2.93068">
        <ele>1031.9</ele>
        <time>2021-08-25T15:42:53Z</time>
      </trkpt>
      <trkpt lat="45.51548" lon="2.93075">
        <ele>1032.2</ele>
        <time>2021-08-25T15:42:55Z</time>
      </trkpt>
      <trkpt lat="45.5155" lon="2.93081">
        <ele>1032.7</ele>
        <time>2021-08-25T15:42:57Z</time>
      </trkpt>
      <trkpt lat="45.51551" lon="2.93088">
        <ele>1033.1</ele>
        <time>2021-08-25T15:42:59Z</time>
      </trkpt>
      <trkpt lat="45.51553" lon="2.93094">
        <ele>1033.5</ele>
        <time>2021-08-25T15:43:01Z</time>
      </trkpt>
      <trkpt lat="45.51554" lon="2.93101">
        <ele>1033.8</ele>
        <time>2021-08-25T15:43:03Z</time>
      </trkpt>
      <trkpt lat="45.51555" lon="2.93109">
        <ele>1034</ele>
        <time>2021-08-25T15:43:05Z</time>
      </trkpt>
      <trkpt lat="45.51555" lon="2.93116">
        <ele>1034.3</ele>
        <time>2021-08-25T15:43:07Z</time>
      </trkpt>
      <trkpt lat="45.51556" lon="2.93123">
        <ele>1034.4</ele>
        <time>2021-08-25T15:43:09Z</time>
      </trkpt>
      <trkpt lat="45.51556" lon="2.9313">
        <ele>1034.5</ele>
        <time>2021-08-25T15:43:11Z</time>
      </trkpt>
      <trkpt lat="45.51556" lon="2.93137">
        <ele>1034.6</ele>
        <time>2021-08-25T15:43:13Z</time>
      </trkpt>
      <trkpt lat="45.51556" lon="2.93145">
        <ele>1034.5</ele>
        <time>2021-08-25T15:43:15Z</time>
      </trkpt>
      <trkpt lat="45.51557" lon="2.93152">
        <ele>1034.6</ele>
        <time>2021-08-25T15:43:17Z</time>
      </trkpt>
      <trkpt lat="45.51556" lon="2.93158">
        <ele>1034.5</ele>
        <time>2021-08-25T15:43:19Z</time>
      </trkpt>
      <trkpt lat="45.51556" lon="2.93165">
        <ele>1034.6</ele>
        <time>2021-08-25T15:43:21Z</time>
      </trkpt>
      <trkpt lat="45.51556" lon="2.93171">
        <ele>1034.3</ele>
        <time>2021-08-25T15:43:23Z</time>
      </trkpt>
      <trkpt lat="45.51556" lon="2.93178">
        <ele>1034.1</ele>
        <time>2021-08-25T15:43:25Z</time>
      </trkpt>
      <trkpt lat="45.51556" lon="2.93184">
        <ele>1033.8</ele>
        <time>2021-08-25T15:43:27Z</time>
      </trkpt>
      <trkpt lat="45.51557" lon="2.9319">
        <ele>1033.6</ele>
        <time>2021-08-25T15:43:29Z</time>
      </trkpt>
      <trkpt lat="45.51557" lon="2.93197">
        <ele>1033.5</ele>
        <time>2021-08-25T15:43:31Z</time>
      </trkpt>
      <trkpt lat="45.51558" lon="2.93203">
        <ele>1033.3</ele>
        <time>2021-08-25T15:43:33Z</time>
      </trkpt>
      <trkpt lat="45.51559" lon="2.93209">
        <ele>1033.4</ele>
        <time>2021-08-25T15:43:35Z</time>
      </trkpt>
      <trkpt lat="45.5156" lon="2.93215">
        <ele>1033.5</ele>
        <time>2021-08-25T15:43:37Z</time>
      </trkpt>
      <trkpt lat="45.51561" lon="2.93221">
        <ele>1033.5</ele>
        <time>2021-08-25T15:43:39Z</time>
      </trkpt>
      <trkpt lat="45.51562" lon="2.93227">
        <ele>1033.5</ele>
        <time>2021-08-25T15:43:41Z</time>
      </trkpt>
      <trkpt lat="45.51563" lon="2.93233">
        <ele>1033.5</ele>
        <time>2021-08-25T15:43:43Z</time>
      </trkpt>
      <trkpt lat="45.51565" lon="2.93238">
        <ele>1033.6</ele>
        <time>2021-08-25T15:43:45Z</time>
      </trkpt>
      <trkpt lat="45.51566" lon="2.93244">
        <ele>1033.7</ele>
        <time>2021-08-25T15:43:47Z</time>
      </trkpt>
      <trkpt lat="45.51567" lon="2.93249">
        <ele>1033.7</ele>
        <time>2021-08-25T15:43:49Z</time>
      </trkpt>
      <trkpt lat="45.51568" lon="2.93255">
        <ele>1033.6</ele>
        <time>2021-08-25T15:43:51Z</time>
      </trkpt>
      <trkpt lat="45.51569" lon="2.9326">
        <ele>1033.4</ele>
        <time>2021-08-25T15:43:53Z</time>
      </trkpt>
      <trkpt lat="45.5157" lon="2.93266">
        <ele>1033.2</ele>
        <time>2021-08-25T15:43:55Z</time>
      </trkpt>
      <trkpt lat="45.51571" lon="2.93271">
        <ele>1033.2</ele>
        <time>2021-08-25T15:43:57Z</time>
      </trkpt>
      <trkpt lat="45.51572" lon="2.93276">
        <ele>1033.1</ele>
        <time>2021-08-25T15:43:59Z</time>
      </trkpt>
      <trkpt lat="45.51573" lon="2.93282">
        <ele>1033.1</ele>
        <time>2021-08-25T15:44:01Z</time>
      </trkpt>
      <trkpt lat="45.51575" lon="2.93287">
        <ele>1033.2</ele>
        <time>2021-08-25T15:44:03Z</time>
      </trkpt>
      <trkpt lat="45.51577" lon="2.93292">
        <ele>1033.4</ele>
        <time>2021-08-25T15:44:05Z</time>
      </trkpt>
      <trkpt lat="45.5158" lon="2.93297">
        <ele>1033.8</ele>
        <time>2021-08-25T15:44:07Z</time>
      </trkpt>
      <trkpt lat="45.51584" lon="2.93301">
        <ele>1034.4</ele>
        <time>2021-08-25T15:44:09Z</time>
      </trkpt>
      <trkpt lat="45.51587" lon="2.93305">
        <ele>1034.5</ele>
        <time>2021-08-25T15:44:11Z</time>
      </trkpt>
      <trkpt lat="45.51591" lon="2.93308">
        <ele>1034.6</ele>
        <time>2021-08-25T15:44:13Z</time>
      </trkpt>
      <trkpt lat="45.51594" lon="2.93311">
        <ele>1034.8</ele>
        <time>2021-08-25T15:44:15Z</time>
      </trkpt>
      <trkpt lat="45.51598" lon="2.93313">
        <ele>1035.1</ele>
        <time>2021-08-25T15:44:17Z</time>
      </trkpt>
      <trkpt lat="45.51602" lon="2.93315">
        <ele>1035.5</ele>
        <time>2021-08-25T15:44:19Z</time>
      </trkpt>
      <trkpt lat="45.51607" lon="2.93316">
        <ele>1035.9</ele>
        <time>2021-08-25T15:44:21Z</time>
      </trkpt>
      <trkpt lat="45.51611" lon="2.93318">
        <ele>1036.2</ele>
        <time>2021-08-25T15:44:23Z</time>
      </trkpt>
      <trkpt lat="45.51614" lon="2.93319">
        <ele>1036.6</ele>
        <time>2021-08-25T15:44:25Z</time>
      </trkpt>
      <trkpt lat="45.51618" lon="2.9332">
        <ele>1037</ele>
        <time>2021-08-25T15:44:27Z</time>
      </trkpt>
      <trkpt lat="45.51622" lon="2.93321">
        <ele>1037.3</ele>
        <time>2021-08-25T15:44:29Z</time>
      </trkpt>
      <trkpt lat="45.51626" lon="2.93322">
        <ele>1037.8</ele>
        <time>2021-08-25T15:44:31Z</time>
      </trkpt>
      <trkpt lat="45.51631" lon="2.93322">
        <ele>1038.2</ele>
        <time>2021-08-25T15:44:33Z</time>
      </trkpt>
      <trkpt lat="45.51635" lon="2.93322">
        <ele>1038.8</ele>
        <time>2021-08-25T15:44:35Z</time>
      </trkpt>
      <trkpt lat="45.51639" lon="2.93322">
        <ele>1039.2</ele>
        <time>2021-08-25T15:44:37Z</time>
      </trkpt>
      <trkpt lat="45.51643" lon="2.93322">
        <ele>1039.7</ele>
        <time>2021-08-25T15:44:39Z</time>
      </trkpt>
      <trkpt lat="45.51648" lon="2.93321">
        <ele>1040.3</ele>
        <time>2021-08-25T15:44:41Z</time>
      </trkpt>
      <trkpt lat="45.51652" lon="2.93319">
        <ele>1040.8</ele>
        <time>2021-08-25T15:44:43Z</time>
      </trkpt>
      <trkpt lat="45.51656" lon="2.93317">
        <ele>1041.3</ele>
        <time>2021-08-25T15:44:45Z</time>
      </trkpt>
      <trkpt lat="45.5166" lon="2.93314">
        <ele>1041.9</ele>
        <time>2021-08-25T15:44:47Z</time>
      </trkpt>
      <trkpt lat="45.51663" lon="2.9331">
        <ele>1042.4</ele>
        <time>2021-08-25T15:44:49Z</time>
      </trkpt>
      <trkpt lat="45.51666" lon="2.93306">
        <ele>1042.9</ele>
        <time>2021-08-25T15:44:51Z</time>
      </trkpt>
      <trkpt lat="45.51669" lon="2.93302">
        <ele>1043.2</ele>
        <time>2021-08-25T15:44:53Z</time>
      </trkpt>
      <trkpt lat="45.51671" lon="2.93297">
        <ele>1043.5</ele>
        <time>2021-08-25T15:44:55Z</time>
      </trkpt>
      <trkpt lat="45.51673" lon="2.93291">
        <ele>1043.7</ele>
        <time>2021-08-25T15:44:57Z</time>
      </trkpt>
      <trkpt lat="45.51674" lon="2.93286">
        <ele>1043.9</ele>
        <time>2021-08-25T15:44:59Z</time>
      </trkpt>
      <trkpt lat="45.51676" lon="2.93281">
        <ele>1044.2</ele>
        <time>2021-08-25T15:45:01Z</time>
      </trkpt>
      <trkpt lat="45.51677" lon="2.93276">
        <ele>1044.4</ele>
        <time>2021-08-25T15:45:03Z</time>
      </trkpt>
      <trkpt lat="45.51678" lon="2.9327">
        <ele>1044.6</ele>
        <time>2021-08-25T15:45:05Z</time>
      </trkpt>
      <trkpt lat="45.51679" lon="2.93266">
        <ele>1044.9</ele>
        <time>2021-08-25T15:45:07Z</time>
      </trkpt>
      <trkpt lat="45.5168" lon="2.9326">
        <ele>1045.1</ele>
        <time>2021-08-25T15:45:09Z</time>
      </trkpt>
      <trkpt lat="45.51682" lon="2.93255">
        <ele>1045.3</ele>
        <time>2021-08-25T15:45:11Z</time>
      </trkpt>
      <trkpt lat="45.51683" lon="2.9325">
        <ele>1045.6</ele>
        <time>2021-08-25T15:45:13Z</time>
      </trkpt>
      <trkpt lat="45.51684" lon="2.93245">
        <ele>1046.1</ele>
        <time>2021-08-25T15:45:15Z</time>
      </trkpt>
      <trkpt lat="45.51685" lon="2.9324">
        <ele>1046.6</ele>
        <time>2021-08-25T15:45:17Z</time>
      </trkpt>
      <trkpt lat="45.51687" lon="2.93235">
        <ele>1047.2</ele>
        <time>2021-08-25T15:45:19Z</time>
      </trkpt>
      <trkpt lat="45.51687" lon="2.9323">
        <ele>1047.7</ele>
        <time>2021-08-25T15:45:21Z</time>
      </trkpt>
      <trkpt lat="45.51689" lon="2.93225">
        <ele>1048.4</ele>
        <time>2021-08-25T15:45:23Z</time>
      </trkpt>
      <trkpt lat="45.51691" lon="2.93219">
        <ele>1049</ele>
        <time>2021-08-25T15:45:25Z</time>
      </trkpt>
      <trkpt lat="45.51692" lon="2.93214">
        <ele>1049.5</ele>
        <time>2021-08-25T15:45:27Z</time>
      </trkpt>
      <trkpt lat="45.51693" lon="2.93209">
        <ele>1050.1</ele>
        <time>2021-08-25T15:45:29Z</time>
      </trkpt>
      <trkpt lat="45.51694" lon="2.93204">
        <ele>1050.8</ele>
        <time>2021-08-25T15:45:31Z</time>
      </trkpt>
      <trkpt lat="45.51695" lon="2.93199">
        <ele>1051.4</ele>
        <time>2021-08-25T15:45:33Z</time>
      </trkpt>
      <trkpt lat="45.51697" lon="2.93194">
        <ele>1052</ele>
        <time>2021-08-25T15:45:35Z</time>
      </trkpt>
      <trkpt lat="45.51698" lon="2.93189">
        <ele>1052.6</ele>
        <time>2021-08-25T15:45:37Z</time>
      </trkpt>
      <trkpt lat="45.517" lon="2.93184">
        <ele>1053.3</ele>
        <time>2021-08-25T15:45:39Z</time>
      </trkpt>
      <trkpt lat="45.51701" lon="2.93178">
        <ele>1054.1</ele>
        <time>2021-08-25T15:45:41Z</time>
      </trkpt>
      <trkpt lat="45.51703" lon="2.93173">
        <ele>1054.8</ele>
        <time>2021-08-25T15:45:43Z</time>
      </trkpt>
      <trkpt lat="45.51705" lon="2.93167">
        <ele>1055.6</ele>
        <time>2021-08-25T15:45:45Z</time>
      </trkpt>
      <trkpt lat="45.51706" lon="2.93162">
        <ele>1056.4</ele>
        <time>2021-08-25T15:45:47Z</time>
      </trkpt>
      <trkpt lat="45.51708" lon="2.93157">
        <ele>1057.3</ele>
        <time>2021-08-25T15:45:49Z</time>
      </trkpt>
      <trkpt lat="45.51711" lon="2.93153">
        <ele>1058.2</ele>
        <time>2021-08-25T15:45:51Z</time>
      </trkpt>
      <trkpt lat="45.51713" lon="2.93148">
        <ele>1059.2</ele>
        <time>2021-08-25T15:45:53Z</time>
      </trkpt>
      <trkpt lat="45.51716" lon="2.93145">
        <ele>1060</ele>
        <time>2021-08-25T15:45:55Z</time>
      </trkpt>
      <trkpt lat="45.5172" lon="2.93142">
        <ele>1060.9</ele>
        <time>2021-08-25T15:45:57Z</time>
      </trkpt>
      <trkpt lat="45.51723" lon="2.93139">
        <ele>1061.7</ele>
        <time>2021-08-25T15:45:59Z</time>
      </trkpt>
      <trkpt lat="45.51727" lon="2.93138">
        <ele>1062.4</ele>
        <time>2021-08-25T15:46:01Z</time>
      </trkpt>
      <trkpt lat="45.51731" lon="2.93138">
        <ele>1062.8</ele>
        <time>2021-08-25T15:46:03Z</time>
      </trkpt>
      <trkpt lat="45.51735" lon="2.93141">
        <ele>1063</ele>
        <time>2021-08-25T15:46:05Z</time>
      </trkpt>
      <trkpt lat="45.51738" lon="2.93143">
        <ele>1063.1</ele>
        <time>2021-08-25T15:46:07Z</time>
      </trkpt>
      <trkpt lat="45.51742" lon="2.93146">
        <ele>1063</ele>
        <time>2021-08-25T15:46:09Z</time>
      </trkpt>
      <trkpt lat="45.51745" lon="2.93149">
        <ele>1062.9</ele>
        <time>2021-08-25T15:46:11Z</time>
      </trkpt>
      <trkpt lat="45.51748" lon="2.93153">
        <ele>1062.4</ele>
        <time>2021-08-25T15:46:13Z</time>
      </trkpt>
      <trkpt lat="45.51751" lon="2.93157">
        <ele>1062.1</ele>
        <time>2021-08-25T15:46:15Z</time>
      </trkpt>
      <trkpt lat="45.51755" lon="2.9316">
        <ele>1061.9</ele>
        <time>2021-08-25T15:46:17Z</time>
      </trkpt>
      <trkpt lat="45.51758" lon="2.93163">
        <ele>1061.8</ele>
        <time>2021-08-25T15:46:19Z</time>
      </trkpt>
      <trkpt lat="45.51762" lon="2.93166">
        <ele>1061.7</ele>
        <time>2021-08-25T15:46:21Z</time>
      </trkpt>
      <trkpt lat="45.51765" lon="2.9317">
        <ele>1061.7</ele>
        <time>2021-08-25T15:46:23Z</time>
      </trkpt>
      <trkpt lat="45.51768" lon="2.93173">
        <ele>1061.7</ele>
        <time>2021-08-25T15:46:25Z</time>
      </trkpt>
      <trkpt lat="45.51771" lon="2.93176">
        <ele>1061.7</ele>
        <time>2021-08-25T15:46:27Z</time>
      </trkpt>
      <trkpt lat="45.51774" lon="2.93179">
        <ele>1061.6</ele>
        <time>2021-08-25T15:46:29Z</time>
      </trkpt>
      <trkpt lat="45.51777" lon="2.93182">
        <ele>1061.7</ele>
        <time>2021-08-25T15:46:31Z</time>
      </trkpt>
      <trkpt lat="45.5178" lon="2.93185">
        <ele>1061.7</ele>
        <time>2021-08-25T15:46:33Z</time>
      </trkpt>
      <trkpt lat="45.51784" lon="2.93189">
        <ele>1061.7</ele>
        <time>2021-08-25T15:46:35Z</time>
      </trkpt>
      <trkpt lat="45.51787" lon="2.93192">
        <ele>1061.7</ele>
        <time>2021-08-25T15:46:37Z</time>
      </trkpt>
      <trkpt lat="45.5179" lon="2.93195">
        <ele>1061.7</ele>
        <time>2021-08-25T15:46:39Z</time>
      </trkpt>
      <trkpt lat="45.51794" lon="2.93199">
        <ele>1061.7</ele>
        <time>2021-08-25T15:46:41Z</time>
      </trkpt>
      <trkpt lat="45.51797" lon="2.93202">
        <ele>1061.7</ele>
        <time>2021-08-25T15:46:43Z</time>
      </trkpt>
      <trkpt lat="45.51801" lon="2.93206">
        <ele>1061.7</ele>
        <time>2021-08-25T15:46:45Z</time>
      </trkpt>
      <trkpt lat="45.51805" lon="2.93209">
        <ele>1061.8</ele>
        <time>2021-08-25T15:46:47Z</time>
      </trkpt>
      <trkpt lat="45.51809" lon="2.93213">
        <ele>1061.8</ele>
        <time>2021-08-25T15:46:49Z</time>
      </trkpt>
      <trkpt lat="45.51812" lon="2.93218">
        <ele>1061.6</ele>
        <time>2021-08-25T15:46:51Z</time>
      </trkpt>
      <trkpt lat="45.51816" lon="2.9322">
        <ele>1061.8</ele>
        <time>2021-08-25T15:46:53Z</time>
      </trkpt>
      <trkpt lat="45.5182" lon="2.93223">
        <ele>1061.9</ele>
        <time>2021-08-25T15:46:55Z</time>
      </trkpt>
      <trkpt lat="45.51824" lon="2.93226">
        <ele>1062.1</ele>
        <time>2021-08-25T15:46:57Z</time>
      </trkpt>
      <trkpt lat="45.51828" lon="2.93229">
        <ele>1062.2</ele>
        <time>2021-08-25T15:46:59Z</time>
      </trkpt>
      <trkpt lat="45.51832" lon="2.93232">
        <ele>1062.4</ele>
        <time>2021-08-25T15:47:01Z</time>
      </trkpt>
      <trkpt lat="45.51836" lon="2.93234">
        <ele>1062.3</ele>
        <time>2021-08-25T15:47:03Z</time>
      </trkpt>
      <trkpt lat="45.5184" lon="2.93236">
        <ele>1062.3</ele>
        <time>2021-08-25T15:47:05Z</time>
      </trkpt>
      <trkpt lat="45.51844" lon="2.93235">
        <ele>1062.6</ele>
        <time>2021-08-25T15:47:07Z</time>
      </trkpt>
      <trkpt lat="45.51848" lon="2.93233">
        <ele>1063</ele>
        <time>2021-08-25T15:47:09Z</time>
      </trkpt>
      <trkpt lat="45.51852" lon="2.93231">
        <ele>1063.5</ele>
        <time>2021-08-25T15:47:11Z</time>
      </trkpt>
      <trkpt lat="45.51856" lon="2.93228">
        <ele>1064</ele>
        <time>2021-08-25T15:47:13Z</time>
      </trkpt>
      <trkpt lat="45.51859" lon="2.93225">
        <ele>1064.6</ele>
        <time>2021-08-25T15:47:15Z</time>
      </trkpt>
      <trkpt lat="45.51861" lon="2.9322">
        <ele>1065.3</ele>
        <time>2021-08-25T15:47:17Z</time>
      </trkpt>
      <trkpt lat="45.51865" lon="2.93217">
        <ele>1065.9</ele>
        <time>2021-08-25T15:47:19Z</time>
      </trkpt>
      <trkpt lat="45.51868" lon="2.93212">
        <ele>1066.5</ele>
        <time>2021-08-25T15:47:21Z</time>
      </trkpt>
      <trkpt lat="45.51872" lon="2.93209">
        <ele>1067.1</ele>
        <time>2021-08-25T15:47:23Z</time>
      </trkpt>
      <trkpt lat="45.51875" lon="2.93205">
        <ele>1067.6</ele>
        <time>2021-08-25T15:47:25Z</time>
      </trkpt>
      <trkpt lat="45.51879" lon="2.93202">
        <ele>1068.1</ele>
        <time>2021-08-25T15:47:27Z</time>
      </trkpt>
      <trkpt lat="45.51883" lon="2.932">
        <ele>1068.5</ele>
        <time>2021-08-25T15:47:29Z</time>
      </trkpt>
      <trkpt lat="45.51887" lon="2.93198">
        <ele>1068.8</ele>
        <time>2021-08-25T15:47:31Z</time>
      </trkpt>
      <trkpt lat="45.51891" lon="2.93197">
        <ele>1069.1</ele>
        <time>2021-08-25T15:47:33Z</time>
      </trkpt>
      <trkpt lat="45.51896" lon="2.93196">
        <ele>1069.3</ele>
        <time>2021-08-25T15:47:35Z</time>
      </trkpt>
      <trkpt lat="45.519" lon="2.93196">
        <ele>1069.4</ele>
        <time>2021-08-25T15:47:37Z</time>
      </trkpt>
      <trkpt lat="45.51904" lon="2.93197">
        <ele>1069.4</ele>
        <time>2021-08-25T15:47:39Z</time>
      </trkpt>
      <trkpt lat="45.51909" lon="2.93197">
        <ele>1069.5</ele>
        <time>2021-08-25T15:47:41Z</time>
      </trkpt>
      <trkpt lat="45.51913" lon="2.93198">
        <ele>1069.6</ele>
        <time>2021-08-25T15:47:43Z</time>
      </trkpt>
      <trkpt lat="45.51918" lon="2.93199">
        <ele>1069.7</ele>
        <time>2021-08-25T15:47:45Z</time>
      </trkpt>
      <trkpt lat="45.51923" lon="2.93199">
        <ele>1070.1</ele>
        <time>2021-08-25T15:47:47Z</time>
      </trkpt>
      <trkpt lat="45.51927" lon="2.932">
        <ele>1070.5</ele>
        <time>2021-08-25T15:47:49Z</time>
      </trkpt>
      <trkpt lat="45.51931" lon="2.932">
        <ele>1070.9</ele>
        <time>2021-08-25T15:47:51Z</time>
      </trkpt>
      <trkpt lat="45.51935" lon="2.93201">
        <ele>1071.3</ele>
        <time>2021-08-25T15:47:53Z</time>
      </trkpt>
      <trkpt lat="45.51939" lon="2.93201">
        <ele>1071.7</ele>
        <time>2021-08-25T15:47:55Z</time>
      </trkpt>
      <trkpt lat="45.51943" lon="2.93201">
        <ele>1072.1</ele>
        <time>2021-08-25T15:47:57Z</time>
      </trkpt>
      <trkpt lat="45.51947" lon="2.93202">
        <ele>1072.4</ele>
        <time>2021-08-25T15:47:59Z</time>
      </trkpt>
      <trkpt lat="45.51951" lon="2.93203">
        <ele>1072.8</ele>
        <time>2021-08-25T15:48:01Z</time>
      </trkpt>
      <trkpt lat="45.51955" lon="2.93204">
        <ele>1073.1</ele>
        <time>2021-08-25T15:48:03Z</time>
      </trkpt>
      <trkpt lat="45.5196" lon="2.93205">
        <ele>1073.5</ele>
        <time>2021-08-25T15:48:05Z</time>
      </trkpt>
      <trkpt lat="45.51965" lon="2.93206">
        <ele>1073.9</ele>
        <time>2021-08-25T15:48:07Z</time>
      </trkpt>
      <trkpt lat="45.5197" lon="2.93208">
        <ele>1074.3</ele>
        <time>2021-08-25T15:48:09Z</time>
      </trkpt>
      <trkpt lat="45.51974" lon="2.9321">
        <ele>1074.6</ele>
        <time>2021-08-25T15:48:11Z</time>
      </trkpt>
      <trkpt lat="45.51979" lon="2.93213">
        <ele>1074.8</ele>
        <time>2021-08-25T15:48:13Z</time>
      </trkpt>
      <trkpt lat="45.51983" lon="2.93216">
        <ele>1075</ele>
        <time>2021-08-25T15:48:15Z</time>
      </trkpt>
      <trkpt lat="45.51988" lon="2.9322">
        <ele>1075.2</ele>
        <time>2021-08-25T15:48:17Z</time>
      </trkpt>
      <trkpt lat="45.51992" lon="2.93225">
        <ele>1075.2</ele>
        <time>2021-08-25T15:48:19Z</time>
      </trkpt>
      <trkpt lat="45.51996" lon="2.9323">
        <ele>1075.3</ele>
        <time>2021-08-25T15:48:21Z</time>
      </trkpt>
      <trkpt lat="45.51999" lon="2.93236">
        <ele>1075</ele>
        <time>2021-08-25T15:48:23Z</time>
      </trkpt>
      <trkpt lat="45.52002" lon="2.93242">
        <ele>1075.1</ele>
        <time>2021-08-25T15:48:25Z</time>
      </trkpt>
      <trkpt lat="45.52004" lon="2.93249">
        <ele>1075.1</ele>
        <time>2021-08-25T15:48:27Z</time>
      </trkpt>
      <trkpt lat="45.52006" lon="2.93256">
        <ele>1075</ele>
        <time>2021-08-25T15:48:29Z</time>
      </trkpt>
      <trkpt lat="45.52007" lon="2.93263">
        <ele>1074.9</ele>
        <time>2021-08-25T15:48:31Z</time>
      </trkpt>
      <trkpt lat="45.52009" lon="2.93269">
        <ele>1074.9</ele>
        <time>2021-08-25T15:48:33Z</time>
      </trkpt>
      <trkpt lat="45.5201" lon="2.93275">
        <ele>1074.7</ele>
        <time>2021-08-25T15:48:35Z</time>
      </trkpt>
      <trkpt lat="45.52011" lon="2.93282">
        <ele>1074.5</ele>
        <time>2021-08-25T15:48:37Z</time>
      </trkpt>
      <trkpt lat="45.52013" lon="2.93289">
        <ele>1074.5</ele>
        <time>2021-08-25T15:48:39Z</time>
      </trkpt>
      <trkpt lat="45.52015" lon="2.93295">
        <ele>1074.5</ele>
        <time>2021-08-25T15:48:41Z</time>
      </trkpt>
      <trkpt lat="45.52018" lon="2.93302">
        <ele>1074.7</ele>
        <time>2021-08-25T15:48:43Z</time>
      </trkpt>
      <trkpt lat="45.5202" lon="2.93308">
        <ele>1074.7</ele>
        <time>2021-08-25T15:48:45Z</time>
      </trkpt>
      <trkpt lat="45.52022" lon="2.93315">
        <ele>1074.7</ele>
        <time>2021-08-25T15:48:47Z</time>
      </trkpt>
      <trkpt lat="45.52025" lon="2.93321">
        <ele>1074.9</ele>
        <time>2021-08-25T15:48:49Z</time>
      </trkpt>
      <trkpt lat="45.52028" lon="2.93328">
        <ele>1075.1</ele>
        <time>2021-08-25T15:48:51Z</time>
      </trkpt>
      <trkpt lat="45.5203" lon="2.93334">
        <ele>1075.1</ele>
        <time>2021-08-25T15:48:53Z</time>
      </trkpt>
      <trkpt lat="45.52033" lon="2.93339">
        <ele>1075.4</ele>
        <time>2021-08-25T15:48:55Z</time>
      </trkpt>
      <trkpt lat="45.52035" lon="2.93344">
        <ele>1075.7</ele>
        <time>2021-08-25T15:48:57Z</time>
      </trkpt>
      <trkpt lat="45.52038" lon="2.9335">
        <ele>1075.8</ele>
        <time>2021-08-25T15:48:59Z</time>
      </trkpt>
      <trkpt lat="45.5204" lon="2.93356">
        <ele>1076.1</ele>
        <time>2021-08-25T15:49:01Z</time>
      </trkpt>
      <trkpt lat="45.52043" lon="2.93361">
        <ele>1076.2</ele>
        <time>2021-08-25T15:49:03Z</time>
      </trkpt>
      <trkpt lat="45.52046" lon="2.93367">
        <ele>1076.4</ele>
        <time>2021-08-25T15:49:05Z</time>
      </trkpt>
      <trkpt lat="45.52049" lon="2.93372">
        <ele>1076.6</ele>
        <time>2021-08-25T15:49:07Z</time>
      </trkpt>
      <trkpt lat="45.52051" lon="2.93377">
        <ele>1076.8</ele>
        <time>2021-08-25T15:49:09Z</time>
      </trkpt>
      <trkpt lat="45.52054" lon="2.93382">
        <ele>1076.9</ele>
        <time>2021-08-25T15:49:11Z</time>
      </trkpt>
      <trkpt lat="45.52056" lon="2.93387">
        <ele>1077</ele>
        <time>2021-08-25T15:49:13Z</time>
      </trkpt>
      <trkpt lat="45.52059" lon="2.93392">
        <ele>1077.1</ele>
        <time>2021-08-25T15:49:15Z</time>
      </trkpt>
      <trkpt lat="45.52062" lon="2.93398">
        <ele>1077.2</ele>
        <time>2021-08-25T15:49:17Z</time>
      </trkpt>
      <trkpt lat="45.52065" lon="2.93403">
        <ele>1077.3</ele>
        <time>2021-08-25T15:49:19Z</time>
      </trkpt>
      <trkpt lat="45.52067" lon="2.93408">
        <ele>1077.3</ele>
        <time>2021-08-25T15:49:21Z</time>
      </trkpt>
      <trkpt lat="45.5207" lon="2.93414">
        <ele>1077.3</ele>
        <time>2021-08-25T15:49:23Z</time>
      </trkpt>
      <trkpt lat="45.52074" lon="2.93418">
        <ele>1077.5</ele>
        <time>2021-08-25T15:49:25Z</time>
      </trkpt>
      <trkpt lat="45.52077" lon="2.93421">
        <ele>1077.7</ele>
        <time>2021-08-25T15:49:27Z</time>
      </trkpt>
      <trkpt lat="45.52081" lon="2.93424">
        <ele>1078</ele>
        <time>2021-08-25T15:49:29Z</time>
      </trkpt>
      <trkpt lat="45.52085" lon="2.93427">
        <ele>1078.1</ele>
        <time>2021-08-25T15:49:31Z</time>
      </trkpt>
      <trkpt lat="45.52089" lon="2.93428">
        <ele>1078</ele>
        <time>2021-08-25T15:49:33Z</time>
      </trkpt>
      <trkpt lat="45.52093" lon="2.93427">
        <ele>1078.2</ele>
        <time>2021-08-25T15:49:35Z</time>
      </trkpt>
      <trkpt lat="45.52097" lon="2.93426">
        <ele>1078.3</ele>
        <time>2021-08-25T15:49:37Z</time>
      </trkpt>
      <trkpt lat="45.52101" lon="2.93424">
        <ele>1078.6</ele>
        <time>2021-08-25T15:49:39Z</time>
      </trkpt>
      <trkpt lat="45.52104" lon="2.9342">
        <ele>1079.1</ele>
        <time>2021-08-25T15:49:41Z</time>
      </trkpt>
      <trkpt lat="45.52107" lon="2.93416">
        <ele>1079.6</ele>
        <time>2021-08-25T15:49:43Z</time>
      </trkpt>
      <trkpt lat="45.5211" lon="2.93413">
        <ele>1080</ele>
        <time>2021-08-25T15:49:45Z</time>
      </trkpt>
      <trkpt lat="45.52112" lon="2.93409">
        <ele>1080.5</ele>
        <time>2021-08-25T15:49:47Z</time>
      </trkpt>
      <trkpt lat="45.52114" lon="2.93407">
        <ele>1080.8</ele>
        <time>2021-08-25T15:49:49Z</time>
      </trkpt>
      <trkpt lat="45.52116" lon="2.93405">
        <ele>1081</ele>
        <time>2021-08-25T15:49:51Z</time>
      </trkpt>
      <trkpt lat="45.52116" lon="2.93405">
        <ele>1081</ele>
        <time>2021-08-25T15:49:53Z</time>
      </trkpt>
      <trkpt lat="45.52116" lon="2.93405">
        <ele>1081</ele>
        <time>2021-08-25T15:49:55Z</time>
      </trkpt>
      <trkpt lat="45.52116" lon="2.93405">
        <ele>1081.1</ele>
        <time>2021-08-25T15:49:57Z</time>
      </trkpt>
      <trkpt lat="45.52116" lon="2.93405">
        <ele>1081.1</ele>
        <time>2021-08-25T15:49:59Z</time>
      </trkpt>
      <trkpt lat="45.52116" lon="2.93405">
        <ele>1081.1</ele>
        <time>2021-08-25T15:50:01Z</time>
      </trkpt>
      <trkpt lat="45.52123" lon="2.9339">
        <ele>1083.2</ele>
        <time>2021-08-25T15:51:51Z</time>
      </trkpt>
      <trkpt lat="45.52127" lon="2.93386">
        <ele>1083.8</ele>
        <time>2021-08-25T15:51:53Z</time>
      </trkpt>
      <trkpt lat="45.5213" lon="2.93384">
        <ele>1084.2</ele>
        <time>2021-08-25T15:51:55Z</time>
      </trkpt>
      <trkpt lat="45.52134" lon="2.93382">
        <ele>1084.6</ele>
        <time>2021-08-25T15:51:57Z</time>
      </trkpt>
      <trkpt lat="45.52139" lon="2.93381">
        <ele>1085</ele>
        <time>2021-08-25T15:51:59Z</time>
      </trkpt>
      <trkpt lat="45.52144" lon="2.93381">
        <ele>1085.3</ele>
        <time>2021-08-25T15:52:01Z</time>
      </trkpt>
      <trkpt lat="45.52149" lon="2.93382">
        <ele>1085.4</ele>
        <time>2021-08-25T15:52:03Z</time>
      </trkpt>
      <trkpt lat="45.52154" lon="2.93383">
        <ele>1085.5</ele>
        <time>2021-08-25T15:52:05Z</time>
      </trkpt>
      <trkpt lat="45.52159" lon="2.93385">
        <ele>1085.5</ele>
        <time>2021-08-25T15:52:07Z</time>
      </trkpt>
      <trkpt lat="45.52163" lon="2.93385">
        <ele>1085.7</ele>
        <time>2021-08-25T15:52:09Z</time>
      </trkpt>
      <trkpt lat="45.52167" lon="2.93389">
        <ele>1085.4</ele>
        <time>2021-08-25T15:52:11Z</time>
      </trkpt>
      <trkpt lat="45.52172" lon="2.93393">
        <ele>1085.7</ele>
        <time>2021-08-25T15:52:13Z</time>
      </trkpt>
      <trkpt lat="45.52178" lon="2.93396">
        <ele>1085.9</ele>
        <time>2021-08-25T15:52:15Z</time>
      </trkpt>
      <trkpt lat="45.52182" lon="2.93402">
        <ele>1085.9</ele>
        <time>2021-08-25T15:52:17Z</time>
      </trkpt>
      <trkpt lat="45.52187" lon="2.93407">
        <ele>1085.9</ele>
        <time>2021-08-25T15:52:19Z</time>
      </trkpt>
      <trkpt lat="45.52192" lon="2.93413">
        <ele>1085.7</ele>
        <time>2021-08-25T15:52:21Z</time>
      </trkpt>
      <trkpt lat="45.52197" lon="2.93419">
        <ele>1085.6</ele>
        <time>2021-08-25T15:52:23Z</time>
      </trkpt>
      <trkpt lat="45.52201" lon="2.93425">
        <ele>1085.4</ele>
        <time>2021-08-25T15:52:25Z</time>
      </trkpt>
      <trkpt lat="45.52206" lon="2.93432">
        <ele>1085.3</ele>
        <time>2021-08-25T15:52:27Z</time>
      </trkpt>
      <trkpt lat="45.52211" lon="2.93438">
        <ele>1085.1</ele>
        <time>2021-08-25T15:52:29Z</time>
      </trkpt>
      <trkpt lat="45.52216" lon="2.93445">
        <ele>1085</ele>
        <time>2021-08-25T15:52:31Z</time>
      </trkpt>
      <trkpt lat="45.52222" lon="2.93452">
        <ele>1084.9</ele>
        <time>2021-08-25T15:52:33Z</time>
      </trkpt>
      <trkpt lat="45.52227" lon="2.9346">
        <ele>1084.5</ele>
        <time>2021-08-25T15:52:35Z</time>
      </trkpt>
      <trkpt lat="45.52232" lon="2.93468">
        <ele>1084.3</ele>
        <time>2021-08-25T15:52:37Z</time>
      </trkpt>
      <trkpt lat="45.52237" lon="2.93475">
        <ele>1084.1</ele>
        <time>2021-08-25T15:52:39Z</time>
      </trkpt>
      <trkpt lat="45.52241" lon="2.93483">
        <ele>1083.8</ele>
        <time>2021-08-25T15:52:41Z</time>
      </trkpt>
      <trkpt lat="45.52245" lon="2.93491">
        <ele>1083.3</ele>
        <time>2021-08-25T15:52:43Z</time>
      </trkpt>
      <trkpt lat="45.52248" lon="2.93501">
        <ele>1082.6</ele>
        <time>2021-08-25T15:52:45Z</time>
      </trkpt>
      <trkpt lat="45.5225" lon="2.9351">
        <ele>1082.4</ele>
        <time>2021-08-25T15:52:47Z</time>
      </trkpt>
      <trkpt lat="45.52252" lon="2.9352">
        <ele>1082.1</ele>
        <time>2021-08-25T15:52:49Z</time>
      </trkpt>
      <trkpt lat="45.52254" lon="2.93529">
        <ele>1081.8</ele>
        <time>2021-08-25T15:52:51Z</time>
      </trkpt>
      <trkpt lat="45.52257" lon="2.93537">
        <ele>1081.7</ele>
        <time>2021-08-25T15:52:53Z</time>
      </trkpt>
      <trkpt lat="45.5226" lon="2.93545">
        <ele>1081.6</ele>
        <time>2021-08-25T15:52:55Z</time>
      </trkpt>
      <trkpt lat="45.52264" lon="2.93553">
        <ele>1081.7</ele>
        <time>2021-08-25T15:52:57Z</time>
      </trkpt>
      <trkpt lat="45.52269" lon="2.93561">
        <ele>1082</ele>
        <time>2021-08-25T15:52:59Z</time>
      </trkpt>
      <trkpt lat="45.52275" lon="2.93567">
        <ele>1082.4</ele>
        <time>2021-08-25T15:53:01Z</time>
      </trkpt>
      <trkpt lat="45.5228" lon="2.93572">
        <ele>1082.9</ele>
        <time>2021-08-25T15:53:03Z</time>
      </trkpt>
      <trkpt lat="45.52286" lon="2.93576">
        <ele>1083.5</ele>
        <time>2021-08-25T15:53:05Z</time>
      </trkpt>
      <trkpt lat="45.52292" lon="2.93579">
        <ele>1084.2</ele>
        <time>2021-08-25T15:53:07Z</time>
      </trkpt>
      <trkpt lat="45.52298" lon="2.93582">
        <ele>1085</ele>
        <time>2021-08-25T15:53:09Z</time>
      </trkpt>
      <trkpt lat="45.52305" lon="2.93585">
        <ele>1085.8</ele>
        <time>2021-08-25T15:53:11Z</time>
      </trkpt>
      <trkpt lat="45.52311" lon="2.93587">
        <ele>1086.6</ele>
        <time>2021-08-25T15:53:13Z</time>
      </trkpt>
      <trkpt lat="45.52316" lon="2.93589">
        <ele>1087.4</ele>
        <time>2021-08-25T15:53:15Z</time>
      </trkpt>
      <trkpt lat="45.52322" lon="2.93591">
        <ele>1088.1</ele>
        <time>2021-08-25T15:53:17Z</time>
      </trkpt>
      <trkpt lat="45.52328" lon="2.93594">
        <ele>1088.7</ele>
        <time>2021-08-25T15:53:19Z</time>
      </trkpt>
      <trkpt lat="45.52333" lon="2.93596">
        <ele>1089.3</ele>
        <time>2021-08-25T15:53:21Z</time>
      </trkpt>
      <trkpt lat="45.52338" lon="2.93599">
        <ele>1089.5</ele>
        <time>2021-08-25T15:53:23Z</time>
      </trkpt>
      <trkpt lat="45.52344" lon="2.93601">
        <ele>1089.6</ele>
        <time>2021-08-25T15:53:25Z</time>
      </trkpt>
      <trkpt lat="45.5235" lon="2.93604">
        <ele>1089.7</ele>
        <time>2021-08-25T15:53:27Z</time>
      </trkpt>
      <trkpt lat="45.52355" lon="2.93607">
        <ele>1089.8</ele>
        <time>2021-08-25T15:53:29Z</time>
      </trkpt>
      <trkpt lat="45.52361" lon="2.93609">
        <ele>1089.9</ele>
        <time>2021-08-25T15:53:31Z</time>
      </trkpt>
      <trkpt lat="45.52366" lon="2.93611">
        <ele>1090</ele>
        <time>2021-08-25T15:53:33Z</time>
      </trkpt>
      <trkpt lat="45.52371" lon="2.93613">
        <ele>1090.1</ele>
        <time>2021-08-25T15:53:35Z</time>
      </trkpt>
      <trkpt lat="45.52377" lon="2.93616">
        <ele>1090.1</ele>
        <time>2021-08-25T15:53:37Z</time>
      </trkpt>
      <trkpt lat="45.52382" lon="2.93618">
        <ele>1090.2</ele>
        <time>2021-08-25T15:53:39Z</time>
      </trkpt>
      <trkpt lat="45.52387" lon="2.9362">
        <ele>1090.2</ele>
        <time>2021-08-25T15:53:41Z</time>
      </trkpt>
      <trkpt lat="45.52392" lon="2.93623">
        <ele>1090.3</ele>
        <time>2021-08-25T15:53:43Z</time>
      </trkpt>
      <trkpt lat="45.52397" lon="2.93624">
        <ele>1090.4</ele>
        <time>2021-08-25T15:53:45Z</time>
      </trkpt>
      <trkpt lat="45.52402" lon="2.93624">
        <ele>1090.5</ele>
        <time>2021-08-25T15:53:47Z</time>
      </trkpt>
      <trkpt lat="45.52407" lon="2.93624">
        <ele>1090.7</ele>
        <time>2021-08-25T15:53:49Z</time>
      </trkpt>
      <trkpt lat="45.52412" lon="2.93624">
        <ele>1090.9</ele>
        <time>2021-08-25T15:53:51Z</time>
      </trkpt>
      <trkpt lat="45.52417" lon="2.93621">
        <ele>1091.2</ele>
        <time>2021-08-25T15:53:53Z</time>
      </trkpt>
      <trkpt lat="45.52421" lon="2.93618">
        <ele>1091.4</ele>
        <time>2021-08-25T15:53:55Z</time>
      </trkpt>
      <trkpt lat="45.52425" lon="2.93613">
        <ele>1091.6</ele>
        <time>2021-08-25T15:53:57Z</time>
      </trkpt>
      <trkpt lat="45.52429" lon="2.93608">
        <ele>1091.9</ele>
        <time>2021-08-25T15:53:59Z</time>
      </trkpt>
      <trkpt lat="45.52432" lon="2.93603">
        <ele>1092.2</ele>
        <time>2021-08-25T15:54:01Z</time>
      </trkpt>
      <trkpt lat="45.52434" lon="2.93596">
        <ele>1092.6</ele>
        <time>2021-08-25T15:54:03Z</time>
      </trkpt>
      <trkpt lat="45.52437" lon="2.9359">
        <ele>1093</ele>
        <time>2021-08-25T15:54:05Z</time>
      </trkpt>
      <trkpt lat="45.5244" lon="2.93584">
        <ele>1093.4</ele>
        <time>2021-08-25T15:54:07Z</time>
      </trkpt>
      <trkpt lat="45.52442" lon="2.93577">
        <ele>1093.9</ele>
        <time>2021-08-25T15:54:09Z</time>
      </trkpt>
      <trkpt lat="45.52445" lon="2.93571">
        <ele>1094.4</ele>
        <time>2021-08-25T15:54:11Z</time>
      </trkpt>
      <trkpt lat="45.52448" lon="2.93564">
        <ele>1094.9</ele>
        <time>2021-08-25T15:54:13Z</time>
      </trkpt>
      <trkpt lat="45.52451" lon="2.93558">
        <ele>1095.4</ele>
        <time>2021-08-25T15:54:15Z</time>
      </trkpt>
      <trkpt lat="45.52455" lon="2.93553">
        <ele>1095.8</ele>
        <time>2021-08-25T15:54:17Z</time>
      </trkpt>
      <trkpt lat="45.52459" lon="2.93547">
        <ele>1096.3</ele>
        <time>2021-08-25T15:54:19Z</time>
      </trkpt>
      <trkpt lat="45.52463" lon="2.93542">
        <ele>1096.6</ele>
        <time>2021-08-25T15:54:21Z</time>
      </trkpt>
      <trkpt lat="45.52468" lon="2.93539">
        <ele>1096.9</ele>
        <time>2021-08-25T15:54:23Z</time>
      </trkpt>
      <trkpt lat="45.52473" lon="2.93536">
        <ele>1097</ele>
        <time>2021-08-25T15:54:25Z</time>
      </trkpt>
      <trkpt lat="45.52479" lon="2.93534">
        <ele>1097.1</ele>
        <time>2021-08-25T15:54:27Z</time>
      </trkpt>
      <trkpt lat="45.52484" lon="2.93533">
        <ele>1097.1</ele>
        <time>2021-08-25T15:54:29Z</time>
      </trkpt>
      <trkpt lat="45.52489" lon="2.93531">
        <ele>1097.2</ele>
        <time>2021-08-25T15:54:31Z</time>
      </trkpt>
      <trkpt lat="45.52494" lon="2.9353">
        <ele>1097.2</ele>
        <time>2021-08-25T15:54:33Z</time>
      </trkpt>
      <trkpt lat="45.52499" lon="2.9353">
        <ele>1097.1</ele>
        <time>2021-08-25T15:54:35Z</time>
      </trkpt>
      <trkpt lat="45.52504" lon="2.93529">
        <ele>1097</ele>
        <time>2021-08-25T15:54:37Z</time>
      </trkpt>
      <trkpt lat="45.52509" lon="2.93527">
        <ele>1096.7</ele>
        <time>2021-08-25T15:54:39Z</time>
      </trkpt>
      <trkpt lat="45.52514" lon="2.93527">
        <ele>1096.4</ele>
        <time>2021-08-25T15:54:41Z</time>
      </trkpt>
      <trkpt lat="45.5252" lon="2.93526">
        <ele>1096.1</ele>
        <time>2021-08-25T15:54:43Z</time>
      </trkpt>
      <trkpt lat="45.52526" lon="2.93525">
        <ele>1095.8</ele>
        <time>2021-08-25T15:54:45Z</time>
      </trkpt>
      <trkpt lat="45.52532" lon="2.93525">
        <ele>1095.4</ele>
        <time>2021-08-25T15:54:47Z</time>
      </trkpt>
      <trkpt lat="45.52538" lon="2.93524">
        <ele>1095</ele>
        <time>2021-08-25T15:54:49Z</time>
      </trkpt>
      <trkpt lat="45.52544" lon="2.93523">
        <ele>1094.8</ele>
        <time>2021-08-25T15:54:51Z</time>
      </trkpt>
      <trkpt lat="45.52549" lon="2.93521">
        <ele>1094.6</ele>
        <time>2021-08-25T15:54:53Z</time>
      </trkpt>
      <trkpt lat="45.52555" lon="2.93518">
        <ele>1094.5</ele>
        <time>2021-08-25T15:54:55Z</time>
      </trkpt>
      <trkpt lat="45.52559" lon="2.93514">
        <ele>1094.5</ele>
        <time>2021-08-25T15:54:57Z</time>
      </trkpt>
      <trkpt lat="45.52564" lon="2.9351">
        <ele>1094.6</ele>
        <time>2021-08-25T15:54:59Z</time>
      </trkpt>
      <trkpt lat="45.52568" lon="2.93505">
        <ele>1094.7</ele>
        <time>2021-08-25T15:55:01Z</time>
      </trkpt>
      <trkpt lat="45.52572" lon="2.93499">
        <ele>1094.9</ele>
        <time>2021-08-25T15:55:03Z</time>
      </trkpt>
      <trkpt lat="45.52575" lon="2.93494">
        <ele>1095.2</ele>
        <time>2021-08-25T15:55:05Z</time>
      </trkpt>
      <trkpt lat="45.52578" lon="2.93488">
        <ele>1095.6</ele>
        <time>2021-08-25T15:55:07Z</time>
      </trkpt>
      <trkpt lat="45.52581" lon="2.93482">
        <ele>1095.9</ele>
        <time>2021-08-25T15:55:09Z</time>
      </trkpt>
      <trkpt lat="45.52583" lon="2.93475">
        <ele>1096.4</ele>
        <time>2021-08-25T15:55:11Z</time>
      </trkpt>
      <trkpt lat="45.52586" lon="2.93468">
        <ele>1096.8</ele>
        <time>2021-08-25T15:55:13Z</time>
      </trkpt>
      <trkpt lat="45.52589" lon="2.93462">
        <ele>1097.2</ele>
        <time>2021-08-25T15:55:15Z</time>
      </trkpt>
      <trkpt lat="45.52593" lon="2.93454">
        <ele>1097.6</ele>
        <time>2021-08-25T15:55:17Z</time>
      </trkpt>
      <trkpt lat="45.52596" lon="2.93448">
        <ele>1097.9</ele>
        <time>2021-08-25T15:55:19Z</time>
      </trkpt>
      <trkpt lat="45.52599" lon="2.93441">
        <ele>1098.3</ele>
        <time>2021-08-25T15:55:21Z</time>
      </trkpt>
      <trkpt lat="45.52601" lon="2.93434">
        <ele>1098.7</ele>
        <time>2021-08-25T15:55:23Z</time>
      </trkpt>
      <trkpt lat="45.52604" lon="2.93427">
        <ele>1099</ele>
        <time>2021-08-25T15:55:25Z</time>
      </trkpt>
      <trkpt lat="45.52607" lon="2.93421">
        <ele>1099.3</ele>
        <time>2021-08-25T15:55:27Z</time>
      </trkpt>
      <trkpt lat="45.5261" lon="2.93414">
        <ele>1099.6</ele>
        <time>2021-08-25T15:55:29Z</time>
      </trkpt>
      <trkpt lat="45.52613" lon="2.93407">
        <ele>1099.7</ele>
        <time>2021-08-25T15:55:31Z</time>
      </trkpt>
      <trkpt lat="45.52615" lon="2.934">
        <ele>1099.8</ele>
        <time>2021-08-25T15:55:33Z</time>
      </trkpt>
      <trkpt lat="45.52618" lon="2.93393">
        <ele>1099.9</ele>
        <time>2021-08-25T15:55:35Z</time>
      </trkpt>
      <trkpt lat="45.5262" lon="2.93386">
        <ele>1100</ele>
        <time>2021-08-25T15:55:37Z</time>
      </trkpt>
      <trkpt lat="45.52622" lon="2.93378">
        <ele>1100.1</ele>
        <time>2021-08-25T15:55:39Z</time>
      </trkpt>
      <trkpt lat="45.52625" lon="2.93371">
        <ele>1100.2</ele>
        <time>2021-08-25T15:55:41Z</time>
      </trkpt>
      <trkpt lat="45.52627" lon="2.93362">
        <ele>1100.4</ele>
        <time>2021-08-25T15:55:43Z</time>
      </trkpt>
      <trkpt lat="45.52629" lon="2.93354">
        <ele>1100.5</ele>
        <time>2021-08-25T15:55:45Z</time>
      </trkpt>
      <trkpt lat="45.52631" lon="2.93346">
        <ele>1100.7</ele>
        <time>2021-08-25T15:55:47Z</time>
      </trkpt>
      <trkpt lat="45.52633" lon="2.93338">
        <ele>1100.9</ele>
        <time>2021-08-25T15:55:49Z</time>
      </trkpt>
      <trkpt lat="45.52634" lon="2.93329">
        <ele>1101.2</ele>
        <time>2021-08-25T15:55:51Z</time>
      </trkpt>
      <trkpt lat="45.52634" lon="2.93322">
        <ele>1101.5</ele>
        <time>2021-08-25T15:55:53Z</time>
      </trkpt>
      <trkpt lat="45.52634" lon="2.93313">
        <ele>1102.1</ele>
        <time>2021-08-25T15:55:55Z</time>
      </trkpt>
      <trkpt lat="45.52633" lon="2.93305">
        <ele>1102.7</ele>
        <time>2021-08-25T15:55:57Z</time>
      </trkpt>
      <trkpt lat="45.52632" lon="2.93296">
        <ele>1103.3</ele>
        <time>2021-08-25T15:55:59Z</time>
      </trkpt>
      <trkpt lat="45.52631" lon="2.93288">
        <ele>1103.9</ele>
        <time>2021-08-25T15:56:01Z</time>
      </trkpt>
      <trkpt lat="45.52629" lon="2.9328">
        <ele>1104.7</ele>
        <time>2021-08-25T15:56:03Z</time>
      </trkpt>
      <trkpt lat="45.52627" lon="2.93271">
        <ele>1105.4</ele>
        <time>2021-08-25T15:56:05Z</time>
      </trkpt>
      <trkpt lat="45.52626" lon="2.93262">
        <ele>1106.1</ele>
        <time>2021-08-25T15:56:07Z</time>
      </trkpt>
      <trkpt lat="45.52626" lon="2.93253">
        <ele>1106.7</ele>
        <time>2021-08-25T15:56:09Z</time>
      </trkpt>
      <trkpt lat="45.52626" lon="2.93244">
        <ele>1107.3</ele>
        <time>2021-08-25T15:56:11Z</time>
      </trkpt>
      <trkpt lat="45.52627" lon="2.93236">
        <ele>1107.8</ele>
        <time>2021-08-25T15:56:13Z</time>
      </trkpt>
      <trkpt lat="45.52628" lon="2.93227">
        <ele>1108.3</ele>
        <time>2021-08-25T15:56:15Z</time>
      </trkpt>
      <trkpt lat="45.5263" lon="2.93219">
        <ele>1108.7</ele>
        <time>2021-08-25T15:56:17Z</time>
      </trkpt>
      <trkpt lat="45.52632" lon="2.93211">
        <ele>1109.1</ele>
        <time>2021-08-25T15:56:19Z</time>
      </trkpt>
      <trkpt lat="45.52633" lon="2.93203">
        <ele>1109.5</ele>
        <time>2021-08-25T15:56:21Z</time>
      </trkpt>
      <trkpt lat="45.52635" lon="2.93195">
        <ele>1109.9</ele>
        <time>2021-08-25T15:56:23Z</time>
      </trkpt>
      <trkpt lat="45.52637" lon="2.93187">
        <ele>1110.3</ele>
        <time>2021-08-25T15:56:25Z</time>
      </trkpt>
      <trkpt lat="45.52639" lon="2.93178">
        <ele>1110.7</ele>
        <time>2021-08-25T15:56:27Z</time>
      </trkpt>
      <trkpt lat="45.52641" lon="2.93171">
        <ele>1111.1</ele>
        <time>2021-08-25T15:56:29Z</time>
      </trkpt>
      <trkpt lat="45.52643" lon="2.93163">
        <ele>1111.6</ele>
        <time>2021-08-25T15:56:31Z</time>
      </trkpt>
      <trkpt lat="45.52645" lon="2.93155">
        <ele>1112.3</ele>
        <time>2021-08-25T15:56:33Z</time>
      </trkpt>
      <trkpt lat="45.52646" lon="2.93148">
        <ele>1113</ele>
        <time>2021-08-25T15:56:35Z</time>
      </trkpt>
      <trkpt lat="45.52648" lon="2.9314">
        <ele>1113.7</ele>
        <time>2021-08-25T15:56:37Z</time>
      </trkpt>
      <trkpt lat="45.5265" lon="2.93132">
        <ele>1114.4</ele>
        <time>2021-08-25T15:56:39Z</time>
      </trkpt>
      <trkpt lat="45.52653" lon="2.93125">
        <ele>1115</ele>
        <time>2021-08-25T15:56:41Z</time>
      </trkpt>
      <trkpt lat="45.52655" lon="2.93118">
        <ele>1115.6</ele>
        <time>2021-08-25T15:56:43Z</time>
      </trkpt>
      <trkpt lat="45.52658" lon="2.93112">
        <ele>1116.1</ele>
        <time>2021-08-25T15:56:45Z</time>
      </trkpt>
      <trkpt lat="45.52662" lon="2.93105">
        <ele>1116.6</ele>
        <time>2021-08-25T15:56:47Z</time>
      </trkpt>
      <trkpt lat="45.52666" lon="2.931">
        <ele>1116.9</ele>
        <time>2021-08-25T15:56:49Z</time>
      </trkpt>
      <trkpt lat="45.5267" lon="2.93095">
        <ele>1117.2</ele>
        <time>2021-08-25T15:56:51Z</time>
      </trkpt>
      <trkpt lat="45.52675" lon="2.9309">
        <ele>1117.4</ele>
        <time>2021-08-25T15:56:53Z</time>
      </trkpt>
      <trkpt lat="45.52681" lon="2.93087">
        <ele>1117.4</ele>
        <time>2021-08-25T15:56:55Z</time>
      </trkpt>
      <trkpt lat="45.52685" lon="2.93083">
        <ele>1117.5</ele>
        <time>2021-08-25T15:56:57Z</time>
      </trkpt>
      <trkpt lat="45.52691" lon="2.93081">
        <ele>1117.2</ele>
        <time>2021-08-25T15:56:59Z</time>
      </trkpt>
      <trkpt lat="45.52696" lon="2.93079">
        <ele>1117.1</ele>
        <time>2021-08-25T15:57:01Z</time>
      </trkpt>
      <trkpt lat="45.52701" lon="2.93076">
        <ele>1117</ele>
        <time>2021-08-25T15:57:03Z</time>
      </trkpt>
      <trkpt lat="45.52704" lon="2.93073">
        <ele>1117</ele>
        <time>2021-08-25T15:57:05Z</time>
      </trkpt>
      <trkpt lat="45.52708" lon="2.93071">
        <ele>1116.9</ele>
        <time>2021-08-25T15:57:07Z</time>
      </trkpt>
      <trkpt lat="45.52713" lon="2.93068">
        <ele>1116.8</ele>
        <time>2021-08-25T15:57:09Z</time>
      </trkpt>
      <trkpt lat="45.52717" lon="2.93065">
        <ele>1116.6</ele>
        <time>2021-08-25T15:57:11Z</time>
      </trkpt>
      <trkpt lat="45.52722" lon="2.93064">
        <ele>1116.4</ele>
        <time>2021-08-25T15:57:13Z</time>
      </trkpt>
      <trkpt lat="45.52727" lon="2.93061">
        <ele>1116.2</ele>
        <time>2021-08-25T15:57:15Z</time>
      </trkpt>
      <trkpt lat="45.52732" lon="2.93059">
        <ele>1115.9</ele>
        <time>2021-08-25T15:57:17Z</time>
      </trkpt>
      <trkpt lat="45.52736" lon="2.93057">
        <ele>1115.7</ele>
        <time>2021-08-25T15:57:19Z</time>
      </trkpt>
      <trkpt lat="45.52741" lon="2.93056">
        <ele>1115.5</ele>
        <time>2021-08-25T15:57:21Z</time>
      </trkpt>
      <trkpt lat="45.52745" lon="2.93054">
        <ele>1115.2</ele>
        <time>2021-08-25T15:57:23Z</time>
      </trkpt>
      <trkpt lat="45.5275" lon="2.93052">
        <ele>1115</ele>
        <time>2021-08-25T15:57:25Z</time>
      </trkpt>
      <trkpt lat="45.52755" lon="2.93052">
        <ele>1115.3</ele>
        <time>2021-08-25T15:57:27Z</time>
      </trkpt>
      <trkpt lat="45.5276" lon="2.93051">
        <ele>1115.7</ele>
        <time>2021-08-25T15:57:29Z</time>
      </trkpt>
      <trkpt lat="45.52765" lon="2.93051">
        <ele>1116</ele>
        <time>2021-08-25T15:57:31Z</time>
      </trkpt>
      <trkpt lat="45.5277" lon="2.93051">
        <ele>1116.2</ele>
        <time>2021-08-25T15:57:33Z</time>
      </trkpt>
      <trkpt lat="45.52775" lon="2.93051">
        <ele>1116.5</ele>
        <time>2021-08-25T15:57:35Z</time>
      </trkpt>
      <trkpt lat="45.5278" lon="2.93052">
        <ele>1116.6</ele>
        <time>2021-08-25T15:57:37Z</time>
      </trkpt>
      <trkpt lat="45.52785" lon="2.93053">
        <ele>1116.8</ele>
        <time>2021-08-25T15:57:39Z</time>
      </trkpt>
      <trkpt lat="45.5279" lon="2.93055">
        <ele>1117</ele>
        <time>2021-08-25T15:57:41Z</time>
      </trkpt>
      <trkpt lat="45.52795" lon="2.93056">
        <ele>1117.1</ele>
        <time>2021-08-25T15:57:43Z</time>
      </trkpt>
      <trkpt lat="45.528" lon="2.93057">
        <ele>1117.3</ele>
        <time>2021-08-25T15:57:45Z</time>
      </trkpt>
      <trkpt lat="45.52804" lon="2.93058">
        <ele>1117.5</ele>
        <time>2021-08-25T15:57:47Z</time>
      </trkpt>
      <trkpt lat="45.52809" lon="2.9306">
        <ele>1117.6</ele>
        <time>2021-08-25T15:57:49Z</time>
      </trkpt>
      <trkpt lat="45.52814" lon="2.93061">
        <ele>1117.8</ele>
        <time>2021-08-25T15:57:51Z</time>
      </trkpt>
      <trkpt lat="45.52819" lon="2.93062">
        <ele>1117.9</ele>
        <time>2021-08-25T15:57:53Z</time>
      </trkpt>
      <trkpt lat="45.52824" lon="2.93064">
        <ele>1118.1</ele>
        <time>2021-08-25T15:57:55Z</time>
      </trkpt>
      <trkpt lat="45.52829" lon="2.93065">
        <ele>1118.3</ele>
        <time>2021-08-25T15:57:57Z</time>
      </trkpt>
      <trkpt lat="45.52833" lon="2.93066">
        <ele>1118.5</ele>
        <time>2021-08-25T15:57:59Z</time>
      </trkpt>
      <trkpt lat="45.52838" lon="2.93067">
        <ele>1118.5</ele>
        <time>2021-08-25T15:58:01Z</time>
      </trkpt>
      <trkpt lat="45.52843" lon="2.93068">
        <ele>1118.6</ele>
        <time>2021-08-25T15:58:03Z</time>
      </trkpt>
      <trkpt lat="45.52848" lon="2.93069">
        <ele>1118.8</ele>
        <time>2021-08-25T15:58:05Z</time>
      </trkpt>
      <trkpt lat="45.52853" lon="2.9307">
        <ele>1118.9</ele>
        <time>2021-08-25T15:58:07Z</time>
      </trkpt>
      <trkpt lat="45.52858" lon="2.93071">
        <ele>1118.9</ele>
        <time>2021-08-25T15:58:09Z</time>
      </trkpt>
      <trkpt lat="45.52863" lon="2.93072">
        <ele>1119</ele>
        <time>2021-08-25T15:58:11Z</time>
      </trkpt>
      <trkpt lat="45.52868" lon="2.93073">
        <ele>1119.1</ele>
        <time>2021-08-25T15:58:13Z</time>
      </trkpt>
      <trkpt lat="45.52873" lon="2.93074">
        <ele>1119.2</ele>
        <time>2021-08-25T15:58:15Z</time>
      </trkpt>
      <trkpt lat="45.52879" lon="2.93074">
        <ele>1119.4</ele>
        <time>2021-08-25T15:58:17Z</time>
      </trkpt>
      <trkpt lat="45.52885" lon="2.93075">
        <ele>1119.6</ele>
        <time>2021-08-25T15:58:19Z</time>
      </trkpt>
      <trkpt lat="45.5289" lon="2.93075">
        <ele>1119.7</ele>
        <time>2021-08-25T15:58:21Z</time>
      </trkpt>
      <trkpt lat="45.52896" lon="2.93076">
        <ele>1119.9</ele>
        <time>2021-08-25T15:58:23Z</time>
      </trkpt>
      <trkpt lat="45.52901" lon="2.93076">
        <ele>1120.1</ele>
        <time>2021-08-25T15:58:25Z</time>
      </trkpt>
      <trkpt lat="45.52907" lon="2.93077">
        <ele>1120.2</ele>
        <time>2021-08-25T15:58:27Z</time>
      </trkpt>
      <trkpt lat="45.52912" lon="2.93077">
        <ele>1120.4</ele>
        <time>2021-08-25T15:58:29Z</time>
      </trkpt>
      <trkpt lat="45.52918" lon="2.93077">
        <ele>1120.6</ele>
        <time>2021-08-25T15:58:31Z</time>
      </trkpt>
      <trkpt lat="45.52923" lon="2.93078">
        <ele>1121.1</ele>
        <time>2021-08-25T15:58:33Z</time>
      </trkpt>
      <trkpt lat="45.52928" lon="2.93078">
        <ele>1121.6</ele>
        <time>2021-08-25T15:58:35Z</time>
      </trkpt>
      <trkpt lat="45.52934" lon="2.93079">
        <ele>1122.1</ele>
        <time>2021-08-25T15:58:37Z</time>
      </trkpt>
      <trkpt lat="45.52939" lon="2.93079">
        <ele>1122.6</ele>
        <time>2021-08-25T15:58:39Z</time>
      </trkpt>
      <trkpt lat="45.52944" lon="2.93079">
        <ele>1123.1</ele>
        <time>2021-08-25T15:58:41Z</time>
      </trkpt>
      <trkpt lat="45.52949" lon="2.93079">
        <ele>1123.6</ele>
        <time>2021-08-25T15:58:43Z</time>
      </trkpt>
      <trkpt lat="45.52955" lon="2.9308">
        <ele>1124</ele>
        <time>2021-08-25T15:58:45Z</time>
      </trkpt>
      <trkpt lat="45.5296" lon="2.93081">
        <ele>1124.4</ele>
        <time>2021-08-25T15:58:47Z</time>
      </trkpt>
      <trkpt lat="45.52965" lon="2.93082">
        <ele>1124.7</ele>
        <time>2021-08-25T15:58:49Z</time>
      </trkpt>
      <trkpt lat="45.5297" lon="2.93085">
        <ele>1125</ele>
        <time>2021-08-25T15:58:51Z</time>
      </trkpt>
      <trkpt lat="45.52975" lon="2.93088">
        <ele>1125.1</ele>
        <time>2021-08-25T15:58:53Z</time>
      </trkpt>
      <trkpt lat="45.52979" lon="2.93091">
        <ele>1125.2</ele>
        <time>2021-08-25T15:58:55Z</time>
      </trkpt>
      <trkpt lat="45.52983" lon="2.93095">
        <ele>1125.2</ele>
        <time>2021-08-25T15:58:57Z</time>
      </trkpt>
      <trkpt lat="45.52987" lon="2.931">
        <ele>1125</ele>
        <time>2021-08-25T15:58:59Z</time>
      </trkpt>
      <trkpt lat="45.52991" lon="2.93106">
        <ele>1124.8</ele>
        <time>2021-08-25T15:59:01Z</time>
      </trkpt>
      <trkpt lat="45.52994" lon="2.93111">
        <ele>1124.5</ele>
        <time>2021-08-25T15:59:03Z</time>
      </trkpt>
      <trkpt lat="45.52997" lon="2.93117">
        <ele>1124.1</ele>
        <time>2021-08-25T15:59:05Z</time>
      </trkpt>
      <trkpt lat="45.53001" lon="2.93124">
        <ele>1123.7</ele>
        <time>2021-08-25T15:59:07Z</time>
      </trkpt>
      <trkpt lat="45.53004" lon="2.9313">
        <ele>1123.3</ele>
        <time>2021-08-25T15:59:09Z</time>
      </trkpt>
      <trkpt lat="45.53008" lon="2.93136">
        <ele>1123</ele>
        <time>2021-08-25T15:59:11Z</time>
      </trkpt>
      <trkpt lat="45.53012" lon="2.93141">
        <ele>1122.8</ele>
        <time>2021-08-25T15:59:13Z</time>
      </trkpt>
      <trkpt lat="45.53017" lon="2.93146">
        <ele>1122.7</ele>
        <time>2021-08-25T15:59:15Z</time>
      </trkpt>
      <trkpt lat="45.53022" lon="2.93151">
        <ele>1122.6</ele>
        <time>2021-08-25T15:59:17Z</time>
      </trkpt>
      <trkpt lat="45.53026" lon="2.93155">
        <ele>1122.6</ele>
        <time>2021-08-25T15:59:19Z</time>
      </trkpt>
      <trkpt lat="45.53031" lon="2.93159">
        <ele>1122.7</ele>
        <time>2021-08-25T15:59:21Z</time>
      </trkpt>
      <trkpt lat="45.53036" lon="2.93161">
        <ele>1123</ele>
        <time>2021-08-25T15:59:23Z</time>
      </trkpt>
      <trkpt lat="45.53041" lon="2.93164">
        <ele>1123.2</ele>
        <time>2021-08-25T15:59:25Z</time>
      </trkpt>
      <trkpt lat="45.53047" lon="2.93166">
        <ele>1123.6</ele>
        <time>2021-08-25T15:59:27Z</time>
      </trkpt>
      <trkpt lat="45.53052" lon="2.93168">
        <ele>1123.9</ele>
        <time>2021-08-25T15:59:29Z</time>
      </trkpt>
      <trkpt lat="45.53058" lon="2.9317">
        <ele>1124.3</ele>
        <time>2021-08-25T15:59:31Z</time>
      </trkpt>
      <trkpt lat="45.53063" lon="2.93171">
        <ele>1124.8</ele>
        <time>2021-08-25T15:59:33Z</time>
      </trkpt>
      <trkpt lat="45.5307" lon="2.93172">
        <ele>1125.3</ele>
        <time>2021-08-25T15:59:35Z</time>
      </trkpt>
      <trkpt lat="45.53076" lon="2.93174">
        <ele>1125.8</ele>
        <time>2021-08-25T15:59:37Z</time>
      </trkpt>
      <trkpt lat="45.53082" lon="2.93175">
        <ele>1126.3</ele>
        <time>2021-08-25T15:59:39Z</time>
      </trkpt>
      <trkpt lat="45.53088" lon="2.93177">
        <ele>1126.4</ele>
        <time>2021-08-25T15:59:41Z</time>
      </trkpt>
      <trkpt lat="45.53094" lon="2.93178">
        <ele>1126.5</ele>
        <time>2021-08-25T15:59:43Z</time>
      </trkpt>
      <trkpt lat="45.53101" lon="2.9318">
        <ele>1126.5</ele>
        <time>2021-08-25T15:59:45Z</time>
      </trkpt>
      <trkpt lat="45.53107" lon="2.93181">
        <ele>1126.6</ele>
        <time>2021-08-25T15:59:47Z</time>
      </trkpt>
      <trkpt lat="45.53113" lon="2.93182">
        <ele>1126.7</ele>
        <time>2021-08-25T15:59:49Z</time>
      </trkpt>
      <trkpt lat="45.53119" lon="2.93182">
        <ele>1126.9</ele>
        <time>2021-08-25T15:59:51Z</time>
      </trkpt>
      <trkpt lat="45.53125" lon="2.93181">
        <ele>1127.1</ele>
        <time>2021-08-25T15:59:53Z</time>
      </trkpt>
      <trkpt lat="45.53131" lon="2.93179">
        <ele>1127.4</ele>
        <time>2021-08-25T15:59:55Z</time>
      </trkpt>
      <trkpt lat="45.53137" lon="2.93176">
        <ele>1127.7</ele>
        <time>2021-08-25T15:59:57Z</time>
      </trkpt>
      <trkpt lat="45.53142" lon="2.93172">
        <ele>1128.1</ele>
        <time>2021-08-25T15:59:59Z</time>
      </trkpt>
      <trkpt lat="45.53147" lon="2.93167">
        <ele>1128.5</ele>
        <time>2021-08-25T16:00:01Z</time>
      </trkpt>
      <trkpt lat="45.53152" lon="2.93162">
        <ele>1128.9</ele>
        <time>2021-08-25T16:00:03Z</time>
      </trkpt>
      <trkpt lat="45.53157" lon="2.93157">
        <ele>1129.3</ele>
        <time>2021-08-25T16:00:05Z</time>
      </trkpt>
      <trkpt lat="45.53162" lon="2.93151">
        <ele>1129.6</ele>
        <time>2021-08-25T16:00:07Z</time>
      </trkpt>
      <trkpt lat="45.53166" lon="2.93146">
        <ele>1130</ele>
        <time>2021-08-25T16:00:09Z</time>
      </trkpt>
      <trkpt lat="45.5317" lon="2.9314">
        <ele>1130</ele>
        <time>2021-08-25T16:00:11Z</time>
      </trkpt>
      <trkpt lat="45.53174" lon="2.93135">
        <ele>1129.9</ele>
        <time>2021-08-25T16:00:13Z</time>
      </trkpt>
      <trkpt lat="45.53178" lon="2.93129">
        <ele>1129.9</ele>
        <time>2021-08-25T16:00:15Z</time>
      </trkpt>
      <trkpt lat="45.53182" lon="2.93124">
        <ele>1129.9</ele>
        <time>2021-08-25T16:00:17Z</time>
      </trkpt>
      <trkpt lat="45.53185" lon="2.93119">
        <ele>1129.9</ele>
        <time>2021-08-25T16:00:19Z</time>
      </trkpt>
      <trkpt lat="45.53188" lon="2.93113">
        <ele>1129.9</ele>
        <time>2021-08-25T16:00:21Z</time>
      </trkpt>
      <trkpt lat="45.53192" lon="2.93108">
        <ele>1129.9</ele>
        <time>2021-08-25T16:00:23Z</time>
      </trkpt>
      <trkpt lat="45.53195" lon="2.93103">
        <ele>1129.9</ele>
        <time>2021-08-25T16:00:25Z</time>
      </trkpt>
      <trkpt lat="45.53198" lon="2.93099">
        <ele>1129.9</ele>
        <time>2021-08-25T16:00:27Z</time>
      </trkpt>
      <trkpt lat="45.53201" lon="2.93094">
        <ele>1130</ele>
        <time>2021-08-25T16:00:29Z</time>
      </trkpt>
      <trkpt lat="45.53204" lon="2.93089">
        <ele>1130</ele>
        <time>2021-08-25T16:00:31Z</time>
      </trkpt>
      <trkpt lat="45.53207" lon="2.93084">
        <ele>1130.1</ele>
        <time>2021-08-25T16:00:33Z</time>
      </trkpt>
      <trkpt lat="45.53211" lon="2.93078">
        <ele>1130.2</ele>
        <time>2021-08-25T16:00:35Z</time>
      </trkpt>
      <trkpt lat="45.53214" lon="2.93074">
        <ele>1130.3</ele>
        <time>2021-08-25T16:00:37Z</time>
      </trkpt>
      <trkpt lat="45.53217" lon="2.93069">
        <ele>1130.4</ele>
        <time>2021-08-25T16:00:39Z</time>
      </trkpt>
      <trkpt lat="45.53221" lon="2.93068">
        <ele>1130.3</ele>
        <time>2021-08-25T16:00:41Z</time>
      </trkpt>
      <trkpt lat="45.53222" lon="2.93068">
        <ele>1130.1</ele>
        <time>2021-08-25T16:00:43Z</time>
      </trkpt>
      <trkpt lat="45.53222" lon="2.93068">
        <ele>1130.1</ele>
        <time>2021-08-25T16:00:45Z</time>
      </trkpt>
      <trkpt lat="45.53221" lon="2.93068">
        <ele>1130.2</ele>
        <time>2021-08-25T16:00:47Z</time>
      </trkpt>
      <trkpt lat="45.53222" lon="2.93068">
        <ele>1130.1</ele>
        <time>2021-08-25T16:00:49Z</time>
      </trkpt>
      <trkpt lat="45.53222" lon="2.93068">
        <ele>1130.1</ele>
        <time>2021-08-25T16:00:51Z</time>
      </trkpt>
      <trkpt lat="45.53234" lon="2.93055">
        <ele>1130.1</ele>
        <time>2021-08-25T16:06:31Z</time>
      </trkpt>
      <trkpt lat="45.53237" lon="2.93052">
        <ele>1130</ele>
        <time>2021-08-25T16:06:33Z</time>
      </trkpt>
      <trkpt lat="45.53243" lon="2.93048">
        <ele>1129.7</ele>
        <time>2021-08-25T16:06:35Z</time>
      </trkpt>
      <trkpt lat="45.53249" lon="2.93045">
        <ele>1129.4</ele>
        <time>2021-08-25T16:06:37Z</time>
      </trkpt>
      <trkpt lat="45.53255" lon="2.9304">
        <ele>1129.2</ele>
        <time>2021-08-25T16:06:39Z</time>
      </trkpt>
      <trkpt lat="45.53263" lon="2.93036">
        <ele>1128.8</ele>
        <time>2021-08-25T16:06:41Z</time>
      </trkpt>
      <trkpt lat="45.53271" lon="2.93031">
        <ele>1128.5</ele>
        <time>2021-08-25T16:06:43Z</time>
      </trkpt>
      <trkpt lat="45.53279" lon="2.93025">
        <ele>1128.2</ele>
        <time>2021-08-25T16:06:45Z</time>
      </trkpt>
      <trkpt lat="45.53287" lon="2.93017">
        <ele>1128</ele>
        <time>2021-08-25T16:06:47Z</time>
      </trkpt>
      <trkpt lat="45.53295" lon="2.93007">
        <ele>1127.8</ele>
        <time>2021-08-25T16:06:49Z</time>
      </trkpt>
      <trkpt lat="45.53303" lon="2.92997">
        <ele>1127.7</ele>
        <time>2021-08-25T16:06:51Z</time>
      </trkpt>
      <trkpt lat="45.53311" lon="2.92985">
        <ele>1127.6</ele>
        <time>2021-08-25T16:06:53Z</time>
      </trkpt>
      <trkpt lat="45.5332" lon="2.92973">
        <ele>1127.5</ele>
        <time>2021-08-25T16:06:55Z</time>
      </trkpt>
      <trkpt lat="45.53328" lon="2.92961">
        <ele>1127.3</ele>
        <time>2021-08-25T16:06:57Z</time>
      </trkpt>
      <trkpt lat="45.53338" lon="2.92948">
        <ele>1127.1</ele>
        <time>2021-08-25T16:06:59Z</time>
      </trkpt>
      <trkpt lat="45.53347" lon="2.92935">
        <ele>1126.7</ele>
        <time>2021-08-25T16:07:01Z</time>
      </trkpt>
      <trkpt lat="45.53356" lon="2.92921">
        <ele>1126.4</ele>
        <time>2021-08-25T16:07:03Z</time>
      </trkpt>
      <trkpt lat="45.53364" lon="2.92904">
        <ele>1125.9</ele>
        <time>2021-08-25T16:07:05Z</time>
      </trkpt>
      <trkpt lat="45.53369" lon="2.92886">
        <ele>1125.7</ele>
        <time>2021-08-25T16:07:07Z</time>
      </trkpt>
      <trkpt lat="45.53372" lon="2.92866">
        <ele>1125.7</ele>
        <time>2021-08-25T16:07:09Z</time>
      </trkpt>
      <trkpt lat="45.53373" lon="2.92847">
        <ele>1126</ele>
        <time>2021-08-25T16:07:11Z</time>
      </trkpt>
      <trkpt lat="45.53373" lon="2.92828">
        <ele>1126.3</ele>
        <time>2021-08-25T16:07:13Z</time>
      </trkpt>
      <trkpt lat="45.5337" lon="2.92811">
        <ele>1126.8</ele>
        <time>2021-08-25T16:07:15Z</time>
      </trkpt>
      <trkpt lat="45.53366" lon="2.92796">
        <ele>1127.4</ele>
        <time>2021-08-25T16:07:17Z</time>
      </trkpt>
      <trkpt lat="45.53361" lon="2.92781">
        <ele>1128.1</ele>
        <time>2021-08-25T16:07:19Z</time>
      </trkpt>
      <trkpt lat="45.53357" lon="2.92769">
        <ele>1128.7</ele>
        <time>2021-08-25T16:07:21Z</time>
      </trkpt>
      <trkpt lat="45.53353" lon="2.92756">
        <ele>1129.4</ele>
        <time>2021-08-25T16:07:23Z</time>
      </trkpt>
      <trkpt lat="45.53348" lon="2.92746">
        <ele>1130.1</ele>
        <time>2021-08-25T16:07:25Z</time>
      </trkpt>
      <trkpt lat="45.53345" lon="2.92737">
        <ele>1130.7</ele>
        <time>2021-08-25T16:07:27Z</time>
      </trkpt>
      <trkpt lat="45.53343" lon="2.92728">
        <ele>1131.2</ele>
        <time>2021-08-25T16:07:29Z</time>
      </trkpt>
      <trkpt lat="45.53342" lon="2.9272">
        <ele>1131.5</ele>
        <time>2021-08-25T16:07:31Z</time>
      </trkpt>
      <trkpt lat="45.53342" lon="2.92714">
        <ele>1131.7</ele>
        <time>2021-08-25T16:07:33Z</time>
      </trkpt>
      <trkpt lat="45.53342" lon="2.92708">
        <ele>1131.9</ele>
        <time>2021-08-25T16:07:35Z</time>
      </trkpt>
      <trkpt lat="45.53341" lon="2.92703">
        <ele>1132</ele>
        <time>2021-08-25T16:07:37Z</time>
      </trkpt>
      <trkpt lat="45.53342" lon="2.92699">
        <ele>1132.1</ele>
        <time>2021-08-25T16:07:39Z</time>
      </trkpt>
      <trkpt lat="45.53341" lon="2.92695">
        <ele>1132.2</ele>
        <time>2021-08-25T16:07:41Z</time>
      </trkpt>
      <trkpt lat="45.53343" lon="2.92688">
        <ele>1132.2</ele>
        <time>2021-08-25T16:07:43Z</time>
      </trkpt>
      <trkpt lat="45.53344" lon="2.92682">
        <ele>1132.2</ele>
        <time>2021-08-25T16:07:45Z</time>
      </trkpt>
      <trkpt lat="45.53345" lon="2.92676">
        <ele>1132.2</ele>
        <time>2021-08-25T16:07:47Z</time>
      </trkpt>
      <trkpt lat="45.53346" lon="2.9267">
        <ele>1132.1</ele>
        <time>2021-08-25T16:07:49Z</time>
      </trkpt>
      <trkpt lat="45.53348" lon="2.92664">
        <ele>1132</ele>
        <time>2021-08-25T16:07:51Z</time>
      </trkpt>
      <trkpt lat="45.5335" lon="2.92657">
        <ele>1132.1</ele>
        <time>2021-08-25T16:07:53Z</time>
      </trkpt>
      <trkpt lat="45.53352" lon="2.9265">
        <ele>1132</ele>
        <time>2021-08-25T16:07:55Z</time>
      </trkpt>
      <trkpt lat="45.53355" lon="2.92642">
        <ele>1131.8</ele>
        <time>2021-08-25T16:07:57Z</time>
      </trkpt>
      <trkpt lat="45.53359" lon="2.92635">
        <ele>1131.6</ele>
        <time>2021-08-25T16:07:59Z</time>
      </trkpt>
      <trkpt lat="45.53363" lon="2.92625">
        <ele>1131.3</ele>
        <time>2021-08-25T16:08:01Z</time>
      </trkpt>
      <trkpt lat="45.53368" lon="2.92617">
        <ele>1131</ele>
        <time>2021-08-25T16:08:03Z</time>
      </trkpt>
      <trkpt lat="45.53372" lon="2.92607">
        <ele>1130.7</ele>
        <time>2021-08-25T16:08:05Z</time>
      </trkpt>
      <trkpt lat="45.53376" lon="2.92597">
        <ele>1130.3</ele>
        <time>2021-08-25T16:08:07Z</time>
      </trkpt>
      <trkpt lat="45.53381" lon="2.92586">
        <ele>1129.9</ele>
        <time>2021-08-25T16:08:09Z</time>
      </trkpt>
      <trkpt lat="45.53386" lon="2.92575">
        <ele>1129.5</ele>
        <time>2021-08-25T16:08:11Z</time>
      </trkpt>
      <trkpt lat="45.53392" lon="2.92563">
        <ele>1128.9</ele>
        <time>2021-08-25T16:08:13Z</time>
      </trkpt>
      <trkpt lat="45.53397" lon="2.9255">
        <ele>1128.2</ele>
        <time>2021-08-25T16:08:15Z</time>
      </trkpt>
      <trkpt lat="45.53401" lon="2.92537">
        <ele>1127.6</ele>
        <time>2021-08-25T16:08:17Z</time>
      </trkpt>
      <trkpt lat="45.53405" lon="2.92521">
        <ele>1127.1</ele>
        <time>2021-08-25T16:08:19Z</time>
      </trkpt>
      <trkpt lat="45.53407" lon="2.92507">
        <ele>1126.6</ele>
        <time>2021-08-25T16:08:21Z</time>
      </trkpt>
      <trkpt lat="45.5341" lon="2.92491">
        <ele>1126</ele>
        <time>2021-08-25T16:08:23Z</time>
      </trkpt>
      <trkpt lat="45.53411" lon="2.92473">
        <ele>1125.3</ele>
        <time>2021-08-25T16:08:25Z</time>
      </trkpt>
      <trkpt lat="45.53413" lon="2.92455">
        <ele>1124.6</ele>
        <time>2021-08-25T16:08:27Z</time>
      </trkpt>
      <trkpt lat="45.53415" lon="2.92436">
        <ele>1123.9</ele>
        <time>2021-08-25T16:08:29Z</time>
      </trkpt>
      <trkpt lat="45.53415" lon="2.92416">
        <ele>1123.6</ele>
        <time>2021-08-25T16:08:31Z</time>
      </trkpt>
      <trkpt lat="45.53414" lon="2.92395">
        <ele>1123.5</ele>
        <time>2021-08-25T16:08:33Z</time>
      </trkpt>
      <trkpt lat="45.53414" lon="2.92373">
        <ele>1123.4</ele>
        <time>2021-08-25T16:08:35Z</time>
      </trkpt>
      <trkpt lat="45.53414" lon="2.9235">
        <ele>1123.2</ele>
        <time>2021-08-25T16:08:37Z</time>
      </trkpt>
      <trkpt lat="45.53413" lon="2.92327">
        <ele>1123.8</ele>
        <time>2021-08-25T16:08:39Z</time>
      </trkpt>
      <trkpt lat="45.53413" lon="2.92302">
        <ele>1125.1</ele>
        <time>2021-08-25T16:08:41Z</time>
      </trkpt>
      <trkpt lat="45.53414" lon="2.92275">
        <ele>1126.4</ele>
        <time>2021-08-25T16:08:43Z</time>
      </trkpt>
      <trkpt lat="45.53414" lon="2.9225">
        <ele>1127.6</ele>
        <time>2021-08-25T16:08:45Z</time>
      </trkpt>
      <trkpt lat="45.53415" lon="2.92226">
        <ele>1127.2</ele>
        <time>2021-08-25T16:08:47Z</time>
      </trkpt>
      <trkpt lat="45.53416" lon="2.922">
        <ele>1126.6</ele>
        <time>2021-08-25T16:08:49Z</time>
      </trkpt>
      <trkpt lat="45.53416" lon="2.92174">
        <ele>1126.2</ele>
        <time>2021-08-25T16:08:51Z</time>
      </trkpt>
      <trkpt lat="45.53413" lon="2.92152">
        <ele>1126.6</ele>
        <time>2021-08-25T16:08:53Z</time>
      </trkpt>
      <trkpt lat="45.53416" lon="2.92127">
        <ele>1126</ele>
        <time>2021-08-25T16:08:55Z</time>
      </trkpt>
      <trkpt lat="45.53417" lon="2.92101">
        <ele>1126</ele>
        <time>2021-08-25T16:08:57Z</time>
      </trkpt>
      <trkpt lat="45.53417" lon="2.92075">
        <ele>1126.1</ele>
        <time>2021-08-25T16:08:59Z</time>
      </trkpt>
      <trkpt lat="45.5342" lon="2.92049">
        <ele>1126.4</ele>
        <time>2021-08-25T16:09:01Z</time>
      </trkpt>
      <trkpt lat="45.53423" lon="2.92024">
        <ele>1126.2</ele>
        <time>2021-08-25T16:09:03Z</time>
      </trkpt>
      <trkpt lat="45.53427" lon="2.92002">
        <ele>1125.6</ele>
        <time>2021-08-25T16:09:05Z</time>
      </trkpt>
      <trkpt lat="45.53432" lon="2.9198">
        <ele>1125.8</ele>
        <time>2021-08-25T16:09:07Z</time>
      </trkpt>
      <trkpt lat="45.53437" lon="2.91957">
        <ele>1126.2</ele>
        <time>2021-08-25T16:09:09Z</time>
      </trkpt>
      <trkpt lat="45.53444" lon="2.91933">
        <ele>1125.7</ele>
        <time>2021-08-25T16:09:11Z</time>
      </trkpt>
      <trkpt lat="45.5345" lon="2.91911">
        <ele>1125.1</ele>
        <time>2021-08-25T16:09:13Z</time>
      </trkpt>
      <trkpt lat="45.53456" lon="2.91888">
        <ele>1123.8</ele>
        <time>2021-08-25T16:09:15Z</time>
      </trkpt>
      <trkpt lat="45.53463" lon="2.91865">
        <ele>1122.3</ele>
        <time>2021-08-25T16:09:17Z</time>
      </trkpt>
      <trkpt lat="45.53469" lon="2.91841">
        <ele>1120.9</ele>
        <time>2021-08-25T16:09:19Z</time>
      </trkpt>
      <trkpt lat="45.53474" lon="2.91817">
        <ele>1120.6</ele>
        <time>2021-08-25T16:09:21Z</time>
      </trkpt>
      <trkpt lat="45.53478" lon="2.91795">
        <ele>1120.4</ele>
        <time>2021-08-25T16:09:23Z</time>
      </trkpt>
      <trkpt lat="45.53485" lon="2.91777">
        <ele>1118.7</ele>
        <time>2021-08-25T16:09:25Z</time>
      </trkpt>
      <trkpt lat="45.53498" lon="2.91764">
        <ele>1114.2</ele>
        <time>2021-08-25T16:09:27Z</time>
      </trkpt>
      <trkpt lat="45.53513" lon="2.9176">
        <ele>1116.3</ele>
        <time>2021-08-25T16:09:29Z</time>
      </trkpt>
      <trkpt lat="45.53527" lon="2.91768">
        <ele>1118.9</ele>
        <time>2021-08-25T16:09:31Z</time>
      </trkpt>
      <trkpt lat="45.53536" lon="2.91781">
        <ele>1120.2</ele>
        <time>2021-08-25T16:09:33Z</time>
      </trkpt>
      <trkpt lat="45.5354" lon="2.91796">
        <ele>1120.5</ele>
        <time>2021-08-25T16:09:35Z</time>
      </trkpt>
      <trkpt lat="45.53543" lon="2.91808">
        <ele>1120.5</ele>
        <time>2021-08-25T16:09:37Z</time>
      </trkpt>
      <trkpt lat="45.53544" lon="2.91819">
        <ele>1120.3</ele>
        <time>2021-08-25T16:09:39Z</time>
      </trkpt>
      <trkpt lat="45.53546" lon="2.91828">
        <ele>1120.3</ele>
        <time>2021-08-25T16:09:41Z</time>
      </trkpt>
      <trkpt lat="45.53548" lon="2.91837">
        <ele>1120.3</ele>
        <time>2021-08-25T16:09:43Z</time>
      </trkpt>
      <trkpt lat="45.5355" lon="2.91845">
        <ele>1120.4</ele>
        <time>2021-08-25T16:09:45Z</time>
      </trkpt>
      <trkpt lat="45.53551" lon="2.91852">
        <ele>1120.5</ele>
        <time>2021-08-25T16:09:47Z</time>
      </trkpt>
      <trkpt lat="45.53553" lon="2.9186">
        <ele>1120.6</ele>
        <time>2021-08-25T16:09:49Z</time>
      </trkpt>
      <trkpt lat="45.53554" lon="2.91868">
        <ele>1120.8</ele>
        <time>2021-08-25T16:09:51Z</time>
      </trkpt>
      <trkpt lat="45.53555" lon="2.91875">
        <ele>1120.8</ele>
        <time>2021-08-25T16:09:53Z</time>
      </trkpt>
      <trkpt lat="45.53556" lon="2.91882">
        <ele>1120.8</ele>
        <time>2021-08-25T16:09:55Z</time>
      </trkpt>
      <trkpt lat="45.53558" lon="2.91889">
        <ele>1121</ele>
        <time>2021-08-25T16:09:57Z</time>
      </trkpt>
      <trkpt lat="45.53559" lon="2.91895">
        <ele>1121.1</ele>
        <time>2021-08-25T16:09:59Z</time>
      </trkpt>
      <trkpt lat="45.53561" lon="2.91902">
        <ele>1121.3</ele>
        <time>2021-08-25T16:10:01Z</time>
      </trkpt>
      <trkpt lat="45.53561" lon="2.91908">
        <ele>1121.2</ele>
        <time>2021-08-25T16:10:03Z</time>
      </trkpt>
      <trkpt lat="45.53562" lon="2.91914">
        <ele>1121.2</ele>
        <time>2021-08-25T16:10:05Z</time>
      </trkpt>
      <trkpt lat="45.53564" lon="2.9192">
        <ele>1121.4</ele>
        <time>2021-08-25T16:10:07Z</time>
      </trkpt>
      <trkpt lat="45.53564" lon="2.91926">
        <ele>1121.4</ele>
        <time>2021-08-25T16:10:09Z</time>
      </trkpt>
      <trkpt lat="45.53566" lon="2.91932">
        <ele>1121.4</ele>
        <time>2021-08-25T16:10:11Z</time>
      </trkpt>
      <trkpt lat="45.53567" lon="2.91938">
        <ele>1121.5</ele>
        <time>2021-08-25T16:10:13Z</time>
      </trkpt>
      <trkpt lat="45.53568" lon="2.91944">
        <ele>1121.7</ele>
        <time>2021-08-25T16:10:15Z</time>
      </trkpt>
      <trkpt lat="45.53569" lon="2.9195">
        <ele>1121.8</ele>
        <time>2021-08-25T16:10:17Z</time>
      </trkpt>
      <trkpt lat="45.53571" lon="2.91956">
        <ele>1121.9</ele>
        <time>2021-08-25T16:10:19Z</time>
      </trkpt>
      <trkpt lat="45.53572" lon="2.91963">
        <ele>1122</ele>
        <time>2021-08-25T16:10:21Z</time>
      </trkpt>
      <trkpt lat="45.53573" lon="2.91968">
        <ele>1122.1</ele>
        <time>2021-08-25T16:10:23Z</time>
      </trkpt>
      <trkpt lat="45.53574" lon="2.91974">
        <ele>1122.3</ele>
        <time>2021-08-25T16:10:25Z</time>
      </trkpt>
      <trkpt lat="45.53576" lon="2.91979">
        <ele>1122.5</ele>
        <time>2021-08-25T16:10:27Z</time>
      </trkpt>
      <trkpt lat="45.53577" lon="2.91985">
        <ele>1122.6</ele>
        <time>2021-08-25T16:10:29Z</time>
      </trkpt>
      <trkpt lat="45.53578" lon="2.91991">
        <ele>1122.9</ele>
        <time>2021-08-25T16:10:31Z</time>
      </trkpt>
      <trkpt lat="45.5358" lon="2.91996">
        <ele>1123.1</ele>
        <time>2021-08-25T16:10:33Z</time>
      </trkpt>
      <trkpt lat="45.53581" lon="2.92002">
        <ele>1123.4</ele>
        <time>2021-08-25T16:10:35Z</time>
      </trkpt>
      <trkpt lat="45.53583" lon="2.92008">
        <ele>1123.5</ele>
        <time>2021-08-25T16:10:37Z</time>
      </trkpt>
      <trkpt lat="45.53585" lon="2.92014">
        <ele>1123.7</ele>
        <time>2021-08-25T16:10:39Z</time>
      </trkpt>
      <trkpt lat="45.53586" lon="2.92019">
        <ele>1123.7</ele>
        <time>2021-08-25T16:10:41Z</time>
      </trkpt>
      <trkpt lat="45.53588" lon="2.92024">
        <ele>1124</ele>
        <time>2021-08-25T16:10:43Z</time>
      </trkpt>
      <trkpt lat="45.5359" lon="2.9203">
        <ele>1124.1</ele>
        <time>2021-08-25T16:10:45Z</time>
      </trkpt>
      <trkpt lat="45.53592" lon="2.92035">
        <ele>1124.3</ele>
        <time>2021-08-25T16:10:47Z</time>
      </trkpt>
      <trkpt lat="45.53594" lon="2.92041">
        <ele>1124.5</ele>
        <time>2021-08-25T16:10:49Z</time>
      </trkpt>
      <trkpt lat="45.53596" lon="2.92047">
        <ele>1124.7</ele>
        <time>2021-08-25T16:10:51Z</time>
      </trkpt>
      <trkpt lat="45.53598" lon="2.92052">
        <ele>1124.8</ele>
        <time>2021-08-25T16:10:53Z</time>
      </trkpt>
      <trkpt lat="45.536" lon="2.92057">
        <ele>1125</ele>
        <time>2021-08-25T16:10:55Z</time>
      </trkpt>
      <trkpt lat="45.53601" lon="2.92062">
        <ele>1125</ele>
        <time>2021-08-25T16:10:57Z</time>
      </trkpt>
      <trkpt lat="45.53603" lon="2.92067">
        <ele>1125.2</ele>
        <time>2021-08-25T16:10:59Z</time>
      </trkpt>
      <trkpt lat="45.53606" lon="2.92073">
        <ele>1125.4</ele>
        <time>2021-08-25T16:11:01Z</time>
      </trkpt>
      <trkpt lat="45.53608" lon="2.92079">
        <ele>1125.5</ele>
        <time>2021-08-25T16:11:03Z</time>
      </trkpt>
      <trkpt lat="45.53611" lon="2.92084">
        <ele>1125.8</ele>
        <time>2021-08-25T16:11:05Z</time>
      </trkpt>
      <trkpt lat="45.53613" lon="2.92089">
        <ele>1125.9</ele>
        <time>2021-08-25T16:11:07Z</time>
      </trkpt>
      <trkpt lat="45.53616" lon="2.92094">
        <ele>1125.9</ele>
        <time>2021-08-25T16:11:09Z</time>
      </trkpt>
      <trkpt lat="45.53618" lon="2.92099">
        <ele>1126</ele>
        <time>2021-08-25T16:11:11Z</time>
      </trkpt>
      <trkpt lat="45.53621" lon="2.92105">
        <ele>1126</ele>
        <time>2021-08-25T16:11:13Z</time>
      </trkpt>
      <trkpt lat="45.53623" lon="2.9211">
        <ele>1126</ele>
        <time>2021-08-25T16:11:15Z</time>
      </trkpt>
      <trkpt lat="45.53626" lon="2.92114">
        <ele>1126.2</ele>
        <time>2021-08-25T16:11:17Z</time>
      </trkpt>
      <trkpt lat="45.53628" lon="2.92119">
        <ele>1126.2</ele>
        <time>2021-08-25T16:11:19Z</time>
      </trkpt>
      <trkpt lat="45.53631" lon="2.92124">
        <ele>1126.4</ele>
        <time>2021-08-25T16:11:21Z</time>
      </trkpt>
      <trkpt lat="45.53634" lon="2.92128">
        <ele>1126.7</ele>
        <time>2021-08-25T16:11:23Z</time>
      </trkpt>
      <trkpt lat="45.53636" lon="2.92131">
        <ele>1127.1</ele>
        <time>2021-08-25T16:11:25Z</time>
      </trkpt>
      <trkpt lat="45.5364" lon="2.92133">
        <ele>1127.7</ele>
        <time>2021-08-25T16:11:27Z</time>
      </trkpt>
      <trkpt lat="45.53643" lon="2.92136">
        <ele>1128.3</ele>
        <time>2021-08-25T16:11:29Z</time>
      </trkpt>
      <trkpt lat="45.53648" lon="2.92136">
        <ele>1129.2</ele>
        <time>2021-08-25T16:11:31Z</time>
      </trkpt>
      <trkpt lat="45.53652" lon="2.92138">
        <ele>1130.1</ele>
        <time>2021-08-25T16:11:33Z</time>
      </trkpt>
      <trkpt lat="45.53657" lon="2.92136">
        <ele>1131.3</ele>
        <time>2021-08-25T16:11:35Z</time>
      </trkpt>
      <trkpt lat="45.53661" lon="2.92134">
        <ele>1132.4</ele>
        <time>2021-08-25T16:11:37Z</time>
      </trkpt>
      <trkpt lat="45.53665" lon="2.92132">
        <ele>1133.5</ele>
        <time>2021-08-25T16:11:39Z</time>
      </trkpt>
      <trkpt lat="45.53669" lon="2.92129">
        <ele>1134.1</ele>
        <time>2021-08-25T16:11:41Z</time>
      </trkpt>
      <trkpt lat="45.53672" lon="2.92125">
        <ele>1134.4</ele>
        <time>2021-08-25T16:11:43Z</time>
      </trkpt>
      <trkpt lat="45.53675" lon="2.92121">
        <ele>1134.7</ele>
        <time>2021-08-25T16:11:45Z</time>
      </trkpt>
      <trkpt lat="45.53676" lon="2.92117">
        <ele>1135</ele>
        <time>2021-08-25T16:11:47Z</time>
      </trkpt>
      <trkpt lat="45.53678" lon="2.92112">
        <ele>1135.5</ele>
        <time>2021-08-25T16:11:49Z</time>
      </trkpt>
      <trkpt lat="45.53679" lon="2.92107">
        <ele>1136</ele>
        <time>2021-08-25T16:11:51Z</time>
      </trkpt>
      <trkpt lat="45.53679" lon="2.92102">
        <ele>1136.5</ele>
        <time>2021-08-25T16:11:53Z</time>
      </trkpt>
      <trkpt lat="45.53681" lon="2.92096">
        <ele>1137</ele>
        <time>2021-08-25T16:11:55Z</time>
      </trkpt>
      <trkpt lat="45.53681" lon="2.92091">
        <ele>1137.6</ele>
        <time>2021-08-25T16:11:57Z</time>
      </trkpt>
      <trkpt lat="45.53681" lon="2.92085">
        <ele>1138.1</ele>
        <time>2021-08-25T16:11:59Z</time>
      </trkpt>
      <trkpt lat="45.53681" lon="2.9208">
        <ele>1138.7</ele>
        <time>2021-08-25T16:12:01Z</time>
      </trkpt>
      <trkpt lat="45.53681" lon="2.92075">
        <ele>1139.2</ele>
        <time>2021-08-25T16:12:03Z</time>
      </trkpt>
      <trkpt lat="45.53681" lon="2.9207">
        <ele>1139.7</ele>
        <time>2021-08-25T16:12:05Z</time>
      </trkpt>
      <trkpt lat="45.5368" lon="2.92064">
        <ele>1140.2</ele>
        <time>2021-08-25T16:12:07Z</time>
      </trkpt>
      <trkpt lat="45.5368" lon="2.92059">
        <ele>1140.7</ele>
        <time>2021-08-25T16:12:09Z</time>
      </trkpt>
      <trkpt lat="45.53679" lon="2.92054">
        <ele>1141.1</ele>
        <time>2021-08-25T16:12:11Z</time>
      </trkpt>
      <trkpt lat="45.53679" lon="2.92049">
        <ele>1141.5</ele>
        <time>2021-08-25T16:12:13Z</time>
      </trkpt>
      <trkpt lat="45.53679" lon="2.92044">
        <ele>1142.1</ele>
        <time>2021-08-25T16:12:15Z</time>
      </trkpt>
      <trkpt lat="45.53679" lon="2.92038">
        <ele>1142.6</ele>
        <time>2021-08-25T16:12:17Z</time>
      </trkpt>
      <trkpt lat="45.53679" lon="2.92032">
        <ele>1143.1</ele>
        <time>2021-08-25T16:12:19Z</time>
      </trkpt>
      <trkpt lat="45.53679" lon="2.92027">
        <ele>1143.6</ele>
        <time>2021-08-25T16:12:21Z</time>
      </trkpt>
      <trkpt lat="45.53679" lon="2.92022">
        <ele>1144.1</ele>
        <time>2021-08-25T16:12:23Z</time>
      </trkpt>
      <trkpt lat="45.53679" lon="2.92016">
        <ele>1144.7</ele>
        <time>2021-08-25T16:12:25Z</time>
      </trkpt>
      <trkpt lat="45.53679" lon="2.9201">
        <ele>1145.3</ele>
        <time>2021-08-25T16:12:27Z</time>
      </trkpt>
      <trkpt lat="45.53679" lon="2.92003">
        <ele>1145.9</ele>
        <time>2021-08-25T16:12:29Z</time>
      </trkpt>
      <trkpt lat="45.5368" lon="2.91997">
        <ele>1146.5</ele>
        <time>2021-08-25T16:12:31Z</time>
      </trkpt>
      <trkpt lat="45.5368" lon="2.91991">
        <ele>1146.9</ele>
        <time>2021-08-25T16:12:33Z</time>
      </trkpt>
      <trkpt lat="45.5368" lon="2.91986">
        <ele>1147.3</ele>
        <time>2021-08-25T16:12:35Z</time>
      </trkpt>
      <trkpt lat="45.5368" lon="2.91981">
        <ele>1147.7</ele>
        <time>2021-08-25T16:12:37Z</time>
      </trkpt>
      <trkpt lat="45.53681" lon="2.91975">
        <ele>1148.1</ele>
        <time>2021-08-25T16:12:39Z</time>
      </trkpt>
      <trkpt lat="45.53681" lon="2.9197">
        <ele>1148.6</ele>
        <time>2021-08-25T16:12:41Z</time>
      </trkpt>
      <trkpt lat="45.53682" lon="2.91963">
        <ele>1149.1</ele>
        <time>2021-08-25T16:12:43Z</time>
      </trkpt>
      <trkpt lat="45.53682" lon="2.91958">
        <ele>1149.5</ele>
        <time>2021-08-25T16:12:45Z</time>
      </trkpt>
      <trkpt lat="45.53682" lon="2.91952">
        <ele>1149.9</ele>
        <time>2021-08-25T16:12:47Z</time>
      </trkpt>
      <trkpt lat="45.53683" lon="2.91947">
        <ele>1150.4</ele>
        <time>2021-08-25T16:12:49Z</time>
      </trkpt>
      <trkpt lat="45.53684" lon="2.91941">
        <ele>1150.9</ele>
        <time>2021-08-25T16:12:51Z</time>
      </trkpt>
      <trkpt lat="45.53685" lon="2.91935">
        <ele>1151.5</ele>
        <time>2021-08-25T16:12:53Z</time>
      </trkpt>
      <trkpt lat="45.53687" lon="2.91929">
        <ele>1152</ele>
        <time>2021-08-25T16:12:55Z</time>
      </trkpt>
      <trkpt lat="45.53688" lon="2.91924">
        <ele>1152.5</ele>
        <time>2021-08-25T16:12:57Z</time>
      </trkpt>
      <trkpt lat="45.53689" lon="2.91919">
        <ele>1153</ele>
        <time>2021-08-25T16:12:59Z</time>
      </trkpt>
      <trkpt lat="45.53691" lon="2.91913">
        <ele>1153.4</ele>
        <time>2021-08-25T16:13:01Z</time>
      </trkpt>
      <trkpt lat="45.53693" lon="2.91908">
        <ele>1153.8</ele>
        <time>2021-08-25T16:13:03Z</time>
      </trkpt>
      <trkpt lat="45.53695" lon="2.91903">
        <ele>1154.1</ele>
        <time>2021-08-25T16:13:05Z</time>
      </trkpt>
      <trkpt lat="45.53696" lon="2.91899">
        <ele>1154.4</ele>
        <time>2021-08-25T16:13:07Z</time>
      </trkpt>
      <trkpt lat="45.53699" lon="2.91895">
        <ele>1154.8</ele>
        <time>2021-08-25T16:13:09Z</time>
      </trkpt>
      <trkpt lat="45.53702" lon="2.91893">
        <ele>1155.2</ele>
        <time>2021-08-25T16:13:11Z</time>
      </trkpt>
      <trkpt lat="45.53705" lon="2.91889">
        <ele>1155.5</ele>
        <time>2021-08-25T16:13:13Z</time>
      </trkpt>
      <trkpt lat="45.53708" lon="2.91886">
        <ele>1155.9</ele>
        <time>2021-08-25T16:13:15Z</time>
      </trkpt>
      <trkpt lat="45.53711" lon="2.91883">
        <ele>1156.3</ele>
        <time>2021-08-25T16:13:17Z</time>
      </trkpt>
      <trkpt lat="45.53714" lon="2.9188">
        <ele>1156.6</ele>
        <time>2021-08-25T16:13:19Z</time>
      </trkpt>
      <trkpt lat="45.53717" lon="2.91877">
        <ele>1157</ele>
        <time>2021-08-25T16:13:21Z</time>
      </trkpt>
      <trkpt lat="45.5372" lon="2.91874">
        <ele>1157.3</ele>
        <time>2021-08-25T16:13:23Z</time>
      </trkpt>
      <trkpt lat="45.53723" lon="2.9187">
        <ele>1157.7</ele>
        <time>2021-08-25T16:13:25Z</time>
      </trkpt>
      <trkpt lat="45.53726" lon="2.91868">
        <ele>1158.1</ele>
        <time>2021-08-25T16:13:27Z</time>
      </trkpt>
      <trkpt lat="45.5373" lon="2.91866">
        <ele>1158.4</ele>
        <time>2021-08-25T16:13:29Z</time>
      </trkpt>
      <trkpt lat="45.53733" lon="2.91862">
        <ele>1158.8</ele>
        <time>2021-08-25T16:13:31Z</time>
      </trkpt>
      <trkpt lat="45.53736" lon="2.91859">
        <ele>1159.2</ele>
        <time>2021-08-25T16:13:33Z</time>
      </trkpt>
      <trkpt lat="45.53739" lon="2.91857">
        <ele>1159.5</ele>
        <time>2021-08-25T16:13:35Z</time>
      </trkpt>
      <trkpt lat="45.53742" lon="2.91854">
        <ele>1159.8</ele>
        <time>2021-08-25T16:13:37Z</time>
      </trkpt>
      <trkpt lat="45.53745" lon="2.91851">
        <ele>1160.2</ele>
        <time>2021-08-25T16:13:39Z</time>
      </trkpt>
      <trkpt lat="45.53749" lon="2.91849">
        <ele>1160.5</ele>
        <time>2021-08-25T16:13:41Z</time>
      </trkpt>
      <trkpt lat="45.53752" lon="2.91845">
        <ele>1160.9</ele>
        <time>2021-08-25T16:13:43Z</time>
      </trkpt>
      <trkpt lat="45.53756" lon="2.91843">
        <ele>1161.2</ele>
        <time>2021-08-25T16:13:45Z</time>
      </trkpt>
      <trkpt lat="45.5376" lon="2.91842">
        <ele>1161.5</ele>
        <time>2021-08-25T16:13:47Z</time>
      </trkpt>
      <trkpt lat="45.53763" lon="2.91839">
        <ele>1161.8</ele>
        <time>2021-08-25T16:13:49Z</time>
      </trkpt>
      <trkpt lat="45.53767" lon="2.91837">
        <ele>1162.1</ele>
        <time>2021-08-25T16:13:51Z</time>
      </trkpt>
      <trkpt lat="45.5377" lon="2.91836">
        <ele>1162.4</ele>
        <time>2021-08-25T16:13:53Z</time>
      </trkpt>
      <trkpt lat="45.53774" lon="2.91834">
        <ele>1162.7</ele>
        <time>2021-08-25T16:13:55Z</time>
      </trkpt>
      <trkpt lat="45.53778" lon="2.91831">
        <ele>1163.1</ele>
        <time>2021-08-25T16:13:57Z</time>
      </trkpt>
      <trkpt lat="45.53782" lon="2.91829">
        <ele>1163.5</ele>
        <time>2021-08-25T16:13:59Z</time>
      </trkpt>
      <trkpt lat="45.53785" lon="2.91826">
        <ele>1163.8</ele>
        <time>2021-08-25T16:14:01Z</time>
      </trkpt>
      <trkpt lat="45.5379" lon="2.91825">
        <ele>1164.2</ele>
        <time>2021-08-25T16:14:03Z</time>
      </trkpt>
      <trkpt lat="45.53794" lon="2.91821">
        <ele>1164.7</ele>
        <time>2021-08-25T16:14:05Z</time>
      </trkpt>
      <trkpt lat="45.53798" lon="2.9182">
        <ele>1165</ele>
        <time>2021-08-25T16:14:07Z</time>
      </trkpt>
      <trkpt lat="45.53802" lon="2.91818">
        <ele>1165.3</ele>
        <time>2021-08-25T16:14:09Z</time>
      </trkpt>
      <trkpt lat="45.53806" lon="2.91816">
        <ele>1165.7</ele>
        <time>2021-08-25T16:14:11Z</time>
      </trkpt>
      <trkpt lat="45.53809" lon="2.91813">
        <ele>1166</ele>
        <time>2021-08-25T16:14:13Z</time>
      </trkpt>
      <trkpt lat="45.53813" lon="2.91811">
        <ele>1166.4</ele>
        <time>2021-08-25T16:14:15Z</time>
      </trkpt>
      <trkpt lat="45.53816" lon="2.91809">
        <ele>1166.7</ele>
        <time>2021-08-25T16:14:17Z</time>
      </trkpt>
      <trkpt lat="45.5382" lon="2.91807">
        <ele>1167.1</ele>
        <time>2021-08-25T16:14:19Z</time>
      </trkpt>
      <trkpt lat="45.53824" lon="2.91804">
        <ele>1167.5</ele>
        <time>2021-08-25T16:14:21Z</time>
      </trkpt>
      <trkpt lat="45.53829" lon="2.918">
        <ele>1167.9</ele>
        <time>2021-08-25T16:14:23Z</time>
      </trkpt>
      <trkpt lat="45.53833" lon="2.91797">
        <ele>1168.3</ele>
        <time>2021-08-25T16:14:25Z</time>
      </trkpt>
      <trkpt lat="45.53837" lon="2.91794">
        <ele>1168.4</ele>
        <time>2021-08-25T16:14:27Z</time>
      </trkpt>
      <trkpt lat="45.53841" lon="2.91792">
        <ele>1168.5</ele>
        <time>2021-08-25T16:14:29Z</time>
      </trkpt>
      <trkpt lat="45.53844" lon="2.91789">
        <ele>1168.6</ele>
        <time>2021-08-25T16:14:31Z</time>
      </trkpt>
      <trkpt lat="45.53847" lon="2.91786">
        <ele>1168.7</ele>
        <time>2021-08-25T16:14:33Z</time>
      </trkpt>
      <trkpt lat="45.53851" lon="2.91784">
        <ele>1168.8</ele>
        <time>2021-08-25T16:14:35Z</time>
      </trkpt>
      <trkpt lat="45.53855" lon="2.91781">
        <ele>1168.9</ele>
        <time>2021-08-25T16:14:37Z</time>
      </trkpt>
      <trkpt lat="45.53858" lon="2.91777">
        <ele>1169</ele>
        <time>2021-08-25T16:14:39Z</time>
      </trkpt>
      <trkpt lat="45.53861" lon="2.91773">
        <ele>1169.1</ele>
        <time>2021-08-25T16:14:41Z</time>
      </trkpt>
      <trkpt lat="45.53864" lon="2.9177">
        <ele>1169.2</ele>
        <time>2021-08-25T16:14:43Z</time>
      </trkpt>
      <trkpt lat="45.53868" lon="2.91767">
        <ele>1169.2</ele>
        <time>2021-08-25T16:14:45Z</time>
      </trkpt>
      <trkpt lat="45.53871" lon="2.91764">
        <ele>1169.3</ele>
        <time>2021-08-25T16:14:47Z</time>
      </trkpt>
      <trkpt lat="45.53875" lon="2.91761">
        <ele>1169.3</ele>
        <time>2021-08-25T16:14:49Z</time>
      </trkpt>
      <trkpt lat="45.53878" lon="2.91757">
        <ele>1169.4</ele>
        <time>2021-08-25T16:14:51Z</time>
      </trkpt>
      <trkpt lat="45.53882" lon="2.91754">
        <ele>1169.4</ele>
        <time>2021-08-25T16:14:53Z</time>
      </trkpt>
      <trkpt lat="45.53886" lon="2.9175">
        <ele>1169.4</ele>
        <time>2021-08-25T16:14:55Z</time>
      </trkpt>
      <trkpt lat="45.53889" lon="2.91747">
        <ele>1169.4</ele>
        <time>2021-08-25T16:14:57Z</time>
      </trkpt>
      <trkpt lat="45.53893" lon="2.91745">
        <ele>1169.4</ele>
        <time>2021-08-25T16:14:59Z</time>
      </trkpt>
      <trkpt lat="45.53895" lon="2.91744">
        <ele>1169.4</ele>
        <time>2021-08-25T16:15:01Z</time>
      </trkpt>
      <trkpt lat="45.53898" lon="2.91743">
        <ele>1169.4</ele>
        <time>2021-08-25T16:15:03Z</time>
      </trkpt>
      <trkpt lat="45.53899" lon="2.91741">
        <ele>1169.4</ele>
        <time>2021-08-25T16:15:05Z</time>
      </trkpt>
      <trkpt lat="45.539" lon="2.9174">
        <ele>1169.5</ele>
        <time>2021-08-25T16:15:07Z</time>
      </trkpt>
      <trkpt lat="45.539" lon="2.9174">
        <ele>1169.5</ele>
        <time>2021-08-25T16:15:09Z</time>
      </trkpt>
      <trkpt lat="45.539" lon="2.9174">
        <ele>1169.5</ele>
        <time>2021-08-25T16:15:11Z</time>
      </trkpt>
      <trkpt lat="45.539" lon="2.9174">
        <ele>1169.4</ele>
        <time>2021-08-25T16:15:13Z</time>
      </trkpt>
      <trkpt lat="45.53905" lon="2.91724">
        <ele>1169.8</ele>
        <time>2021-08-25T16:17:45Z</time>
      </trkpt>
      <trkpt lat="45.53909" lon="2.91721">
        <ele>1169.8</ele>
        <time>2021-08-25T16:17:47Z</time>
      </trkpt>
      <trkpt lat="45.53913" lon="2.91717">
        <ele>1169.8</ele>
        <time>2021-08-25T16:17:49Z</time>
      </trkpt>
      <trkpt lat="45.5392" lon="2.91713">
        <ele>1169.9</ele>
        <time>2021-08-25T16:17:51Z</time>
      </trkpt>
      <trkpt lat="45.53923" lon="2.91708">
        <ele>1169.9</ele>
        <time>2021-08-25T16:17:53Z</time>
      </trkpt>
      <trkpt lat="45.53929" lon="2.91702">
        <ele>1170</ele>
        <time>2021-08-25T16:17:55Z</time>
      </trkpt>
      <trkpt lat="45.53935" lon="2.91696">
        <ele>1170</ele>
        <time>2021-08-25T16:17:57Z</time>
      </trkpt>
      <trkpt lat="45.53941" lon="2.9169">
        <ele>1170</ele>
        <time>2021-08-25T16:17:59Z</time>
      </trkpt>
      <trkpt lat="45.53948" lon="2.91683">
        <ele>1170</ele>
        <time>2021-08-25T16:18:01Z</time>
      </trkpt>
      <trkpt lat="45.53955" lon="2.91675">
        <ele>1170</ele>
        <time>2021-08-25T16:18:03Z</time>
      </trkpt>
      <trkpt lat="45.53963" lon="2.91665">
        <ele>1169.9</ele>
        <time>2021-08-25T16:18:05Z</time>
      </trkpt>
      <trkpt lat="45.53972" lon="2.91656">
        <ele>1169.6</ele>
        <time>2021-08-25T16:18:07Z</time>
      </trkpt>
      <trkpt lat="45.53981" lon="2.91647">
        <ele>1169.3</ele>
        <time>2021-08-25T16:18:09Z</time>
      </trkpt>
      <trkpt lat="45.53991" lon="2.91637">
        <ele>1168.9</ele>
        <time>2021-08-25T16:18:11Z</time>
      </trkpt>
      <trkpt lat="45.54001" lon="2.91627">
        <ele>1168.5</ele>
        <time>2021-08-25T16:18:13Z</time>
      </trkpt>
      <trkpt lat="45.5401" lon="2.91617">
        <ele>1168.5</ele>
        <time>2021-08-25T16:18:15Z</time>
      </trkpt>
      <trkpt lat="45.54019" lon="2.91605">
        <ele>1168.4</ele>
        <time>2021-08-25T16:18:17Z</time>
      </trkpt>
      <trkpt lat="45.54029" lon="2.91597">
        <ele>1168.5</ele>
        <time>2021-08-25T16:18:19Z</time>
      </trkpt>
      <trkpt lat="45.54038" lon="2.91588">
        <ele>1168.5</ele>
        <time>2021-08-25T16:18:21Z</time>
      </trkpt>
      <trkpt lat="45.54047" lon="2.91579">
        <ele>1168.5</ele>
        <time>2021-08-25T16:18:23Z</time>
      </trkpt>
      <trkpt lat="45.54055" lon="2.91571">
        <ele>1168.5</ele>
        <time>2021-08-25T16:18:25Z</time>
      </trkpt>
      <trkpt lat="45.54064" lon="2.91562">
        <ele>1168.5</ele>
        <time>2021-08-25T16:18:27Z</time>
      </trkpt>
      <trkpt lat="45.54073" lon="2.91553">
        <ele>1168.5</ele>
        <time>2021-08-25T16:18:29Z</time>
      </trkpt>
      <trkpt lat="45.5408" lon="2.91542">
        <ele>1168.5</ele>
        <time>2021-08-25T16:18:31Z</time>
      </trkpt>
      <trkpt lat="45.54088" lon="2.91533">
        <ele>1168.3</ele>
        <time>2021-08-25T16:18:33Z</time>
      </trkpt>
      <trkpt lat="45.54096" lon="2.91527">
        <ele>1168.2</ele>
        <time>2021-08-25T16:18:35Z</time>
      </trkpt>
      <trkpt lat="45.54103" lon="2.9152">
        <ele>1168</ele>
        <time>2021-08-25T16:18:37Z</time>
      </trkpt>
      <trkpt lat="45.54109" lon="2.9151">
        <ele>1167.8</ele>
        <time>2021-08-25T16:18:39Z</time>
      </trkpt>
      <trkpt lat="45.54116" lon="2.91503">
        <ele>1167.6</ele>
        <time>2021-08-25T16:18:41Z</time>
      </trkpt>
      <trkpt lat="45.54123" lon="2.91495">
        <ele>1167.4</ele>
        <time>2021-08-25T16:18:43Z</time>
      </trkpt>
      <trkpt lat="45.5413" lon="2.91489">
        <ele>1167.2</ele>
        <time>2021-08-25T16:18:45Z</time>
      </trkpt>
      <trkpt lat="45.54137" lon="2.91481">
        <ele>1167</ele>
        <time>2021-08-25T16:18:47Z</time>
      </trkpt>
      <trkpt lat="45.54143" lon="2.91472">
        <ele>1166.9</ele>
        <time>2021-08-25T16:18:49Z</time>
      </trkpt>
      <trkpt lat="45.54151" lon="2.91456">
        <ele>1166.6</ele>
        <time>2021-08-25T16:18:51Z</time>
      </trkpt>
      <trkpt lat="45.54159" lon="2.91441">
        <ele>1166.3</ele>
        <time>2021-08-25T16:18:53Z</time>
      </trkpt>
      <trkpt lat="45.54168" lon="2.91431">
        <ele>1166.1</ele>
        <time>2021-08-25T16:18:55Z</time>
      </trkpt>
      <trkpt lat="45.54178" lon="2.91417">
        <ele>1165.7</ele>
        <time>2021-08-25T16:18:57Z</time>
      </trkpt>
      <trkpt lat="45.54187" lon="2.91403">
        <ele>1165.5</ele>
        <time>2021-08-25T16:18:59Z</time>
      </trkpt>
      <trkpt lat="45.54196" lon="2.91389">
        <ele>1165.4</ele>
        <time>2021-08-25T16:19:01Z</time>
      </trkpt>
      <trkpt lat="45.54205" lon="2.91375">
        <ele>1165.3</ele>
        <time>2021-08-25T16:19:03Z</time>
      </trkpt>
      <trkpt lat="45.54214" lon="2.91363">
        <ele>1165.2</ele>
        <time>2021-08-25T16:19:05Z</time>
      </trkpt>
      <trkpt lat="45.54222" lon="2.91351">
        <ele>1165.2</ele>
        <time>2021-08-25T16:19:07Z</time>
      </trkpt>
      <trkpt lat="45.54231" lon="2.91339">
        <ele>1165.2</ele>
        <time>2021-08-25T16:19:09Z</time>
      </trkpt>
      <trkpt lat="45.54238" lon="2.91328">
        <ele>1165.1</ele>
        <time>2021-08-25T16:19:11Z</time>
      </trkpt>
      <trkpt lat="45.54246" lon="2.91317">
        <ele>1164.9</ele>
        <time>2021-08-25T16:19:13Z</time>
      </trkpt>
      <trkpt lat="45.54253" lon="2.91307">
        <ele>1164.7</ele>
        <time>2021-08-25T16:19:15Z</time>
      </trkpt>
      <trkpt lat="45.54259" lon="2.91297">
        <ele>1164.6</ele>
        <time>2021-08-25T16:19:17Z</time>
      </trkpt>
      <trkpt lat="45.54264" lon="2.91286">
        <ele>1164.6</ele>
        <time>2021-08-25T16:19:19Z</time>
      </trkpt>
      <trkpt lat="45.5427" lon="2.91277">
        <ele>1164.6</ele>
        <time>2021-08-25T16:19:21Z</time>
      </trkpt>
      <trkpt lat="45.54275" lon="2.91266">
        <ele>1164.6</ele>
        <time>2021-08-25T16:19:23Z</time>
      </trkpt>
      <trkpt lat="45.5428" lon="2.91255">
        <ele>1164.7</ele>
        <time>2021-08-25T16:19:25Z</time>
      </trkpt>
      <trkpt lat="45.54285" lon="2.91245">
        <ele>1164.8</ele>
        <time>2021-08-25T16:19:27Z</time>
      </trkpt>
      <trkpt lat="45.54289" lon="2.91233">
        <ele>1164.8</ele>
        <time>2021-08-25T16:19:29Z</time>
      </trkpt>
      <trkpt lat="45.54293" lon="2.91222">
        <ele>1164.7</ele>
        <time>2021-08-25T16:19:31Z</time>
      </trkpt>
      <trkpt lat="45.54298" lon="2.91211">
        <ele>1164.6</ele>
        <time>2021-08-25T16:19:33Z</time>
      </trkpt>
      <trkpt lat="45.543" lon="2.91197">
        <ele>1164.4</ele>
        <time>2021-08-25T16:19:35Z</time>
      </trkpt>
      <trkpt lat="45.54304" lon="2.91185">
        <ele>1164.3</ele>
        <time>2021-08-25T16:19:37Z</time>
      </trkpt>
      <trkpt lat="45.54308" lon="2.91169">
        <ele>1164</ele>
        <time>2021-08-25T16:19:39Z</time>
      </trkpt>
      <trkpt lat="45.54312" lon="2.91155">
        <ele>1164</ele>
        <time>2021-08-25T16:19:41Z</time>
      </trkpt>
      <trkpt lat="45.54316" lon="2.91138">
        <ele>1163.9</ele>
        <time>2021-08-25T16:19:43Z</time>
      </trkpt>
      <trkpt lat="45.54321" lon="2.9112">
        <ele>1163.8</ele>
        <time>2021-08-25T16:19:45Z</time>
      </trkpt>
      <trkpt lat="45.54326" lon="2.91104">
        <ele>1163.5</ele>
        <time>2021-08-25T16:19:47Z</time>
      </trkpt>
      <trkpt lat="45.54333" lon="2.91086">
        <ele>1163</ele>
        <time>2021-08-25T16:19:49Z</time>
      </trkpt>
      <trkpt lat="45.54339" lon="2.9107">
        <ele>1163.5</ele>
        <time>2021-08-25T16:19:51Z</time>
      </trkpt>
      <trkpt lat="45.54347" lon="2.91056">
        <ele>1164</ele>
        <time>2021-08-25T16:19:53Z</time>
      </trkpt>
      <trkpt lat="45.54355" lon="2.91044">
        <ele>1164.5</ele>
        <time>2021-08-25T16:19:55Z</time>
      </trkpt>
      <trkpt lat="45.5436" lon="2.91033">
        <ele>1164.9</ele>
        <time>2021-08-25T16:19:57Z</time>
      </trkpt>
      <trkpt lat="45.54366" lon="2.91022">
        <ele>1165.2</ele>
        <time>2021-08-25T16:19:59Z</time>
      </trkpt>
      <trkpt lat="45.54369" lon="2.91014">
        <ele>1165.5</ele>
        <time>2021-08-25T16:20:01Z</time>
      </trkpt>
      <trkpt lat="45.54373" lon="2.91003">
        <ele>1165.9</ele>
        <time>2021-08-25T16:20:03Z</time>
      </trkpt>
      <trkpt lat="45.54375" lon="2.90992">
        <ele>1166.1</ele>
        <time>2021-08-25T16:20:05Z</time>
      </trkpt>
      <trkpt lat="45.54377" lon="2.90984">
        <ele>1166.2</ele>
        <time>2021-08-25T16:20:07Z</time>
      </trkpt>
      <trkpt lat="45.54379" lon="2.90972">
        <ele>1166.4</ele>
        <time>2021-08-25T16:20:09Z</time>
      </trkpt>
      <trkpt lat="45.54381" lon="2.90961">
        <ele>1166.5</ele>
        <time>2021-08-25T16:20:11Z</time>
      </trkpt>
      <trkpt lat="45.54382" lon="2.90951">
        <ele>1166.6</ele>
        <time>2021-08-25T16:20:13Z</time>
      </trkpt>
      <trkpt lat="45.54386" lon="2.90944">
        <ele>1166.6</ele>
        <time>2021-08-25T16:20:15Z</time>
      </trkpt>
      <trkpt lat="45.54386" lon="2.90937">
        <ele>1166.6</ele>
        <time>2021-08-25T16:20:17Z</time>
      </trkpt>
      <trkpt lat="45.5439" lon="2.90921">
        <ele>1166.6</ele>
        <time>2021-08-25T16:20:19Z</time>
      </trkpt>
      <trkpt lat="45.54392" lon="2.9091">
        <ele>1166.5</ele>
        <time>2021-08-25T16:20:21Z</time>
      </trkpt>
      <trkpt lat="45.54396" lon="2.909">
        <ele>1166.3</ele>
        <time>2021-08-25T16:20:23Z</time>
      </trkpt>
      <trkpt lat="45.54399" lon="2.9089">
        <ele>1166</ele>
        <time>2021-08-25T16:20:25Z</time>
      </trkpt>
      <trkpt lat="45.54403" lon="2.90881">
        <ele>1165.7</ele>
        <time>2021-08-25T16:20:27Z</time>
      </trkpt>
      <trkpt lat="45.54406" lon="2.90871">
        <ele>1165.4</ele>
        <time>2021-08-25T16:20:29Z</time>
      </trkpt>
      <trkpt lat="45.5441" lon="2.90861">
        <ele>1165</ele>
        <time>2021-08-25T16:20:31Z</time>
      </trkpt>
      <trkpt lat="45.54415" lon="2.90851">
        <ele>1164.5</ele>
        <time>2021-08-25T16:20:33Z</time>
      </trkpt>
      <trkpt lat="45.54419" lon="2.9084">
        <ele>1163.9</ele>
        <time>2021-08-25T16:20:35Z</time>
      </trkpt>
      <trkpt lat="45.54422" lon="2.9083">
        <ele>1163.5</ele>
        <time>2021-08-25T16:20:37Z</time>
      </trkpt>
      <trkpt lat="45.54426" lon="2.90821">
        <ele>1163.4</ele>
        <time>2021-08-25T16:20:39Z</time>
      </trkpt>
      <trkpt lat="45.54429" lon="2.90812">
        <ele>1163.3</ele>
        <time>2021-08-25T16:20:41Z</time>
      </trkpt>
      <trkpt lat="45.54432" lon="2.90804">
        <ele>1163.1</ele>
        <time>2021-08-25T16:20:43Z</time>
      </trkpt>
      <trkpt lat="45.54434" lon="2.90797">
        <ele>1163</ele>
        <time>2021-08-25T16:20:45Z</time>
      </trkpt>
      <trkpt lat="45.54437" lon="2.9079">
        <ele>1162.9</ele>
        <time>2021-08-25T16:20:47Z</time>
      </trkpt>
      <trkpt lat="45.54439" lon="2.90785">
        <ele>1162.7</ele>
        <time>2021-08-25T16:20:49Z</time>
      </trkpt>
      <trkpt lat="45.54441" lon="2.9078">
        <ele>1162.6</ele>
        <time>2021-08-25T16:20:51Z</time>
      </trkpt>
      <trkpt lat="45.54442" lon="2.90776">
        <ele>1162.4</ele>
        <time>2021-08-25T16:20:53Z</time>
      </trkpt>
      <trkpt lat="45.54444" lon="2.90774">
        <ele>1162.2</ele>
        <time>2021-08-25T16:20:55Z</time>
      </trkpt>
      <trkpt lat="45.54444" lon="2.90774">
        <ele>1162.3</ele>
        <time>2021-08-25T16:20:57Z</time>
      </trkpt>
      <trkpt lat="45.54444" lon="2.90774">
        <ele>1162.3</ele>
        <time>2021-08-25T16:20:59Z</time>
      </trkpt>
      <trkpt lat="45.54444" lon="2.90774">
        <ele>1162.3</ele>
        <time>2021-08-25T16:21:01Z</time>
      </trkpt>
      <trkpt lat="45.54444" lon="2.90774">
        <ele>1162.3</ele>
        <time>2021-08-25T16:21:03Z</time>
      </trkpt>
      <trkpt lat="45.54452" lon="2.9075">
        <ele>1161.5</ele>
        <time>2021-08-25T16:21:31Z</time>
      </trkpt>
      <trkpt lat="45.54454" lon="2.90743">
        <ele>1161.4</ele>
        <time>2021-08-25T16:21:33Z</time>
      </trkpt>
      <trkpt lat="45.54457" lon="2.90736">
        <ele>1161.4</ele>
        <time>2021-08-25T16:21:35Z</time>
      </trkpt>
      <trkpt lat="45.54459" lon="2.90727">
        <ele>1161.4</ele>
        <time>2021-08-25T16:21:37Z</time>
      </trkpt>
      <trkpt lat="45.54462" lon="2.90718">
        <ele>1161.2</ele>
        <time>2021-08-25T16:21:39Z</time>
      </trkpt>
      <trkpt lat="45.54465" lon="2.9071">
        <ele>1160.9</ele>
        <time>2021-08-25T16:21:41Z</time>
      </trkpt>
      <trkpt lat="45.54467" lon="2.90699">
        <ele>1160.9</ele>
        <time>2021-08-25T16:21:43Z</time>
      </trkpt>
      <trkpt lat="45.54469" lon="2.90687">
        <ele>1160.9</ele>
        <time>2021-08-25T16:21:45Z</time>
      </trkpt>
      <trkpt lat="45.5447" lon="2.90675">
        <ele>1160.9</ele>
        <time>2021-08-25T16:21:47Z</time>
      </trkpt>
      <trkpt lat="45.54469" lon="2.90658">
        <ele>1161.2</ele>
        <time>2021-08-25T16:21:49Z</time>
      </trkpt>
      <trkpt lat="45.54466" lon="2.90643">
        <ele>1161.6</ele>
        <time>2021-08-25T16:21:51Z</time>
      </trkpt>
      <trkpt lat="45.54463" lon="2.90626">
        <ele>1161.7</ele>
        <time>2021-08-25T16:21:53Z</time>
      </trkpt>
      <trkpt lat="45.54461" lon="2.90608">
        <ele>1161.9</ele>
        <time>2021-08-25T16:21:55Z</time>
      </trkpt>
      <trkpt lat="45.54459" lon="2.90591">
        <ele>1162</ele>
        <time>2021-08-25T16:21:57Z</time>
      </trkpt>
      <trkpt lat="45.54458" lon="2.90572">
        <ele>1161.2</ele>
        <time>2021-08-25T16:21:59Z</time>
      </trkpt>
      <trkpt lat="45.54453" lon="2.9055">
        <ele>1160.8</ele>
        <time>2021-08-25T16:22:01Z</time>
      </trkpt>
      <trkpt lat="45.5445" lon="2.90531">
        <ele>1160.4</ele>
        <time>2021-08-25T16:22:03Z</time>
      </trkpt>
      <trkpt lat="45.54444" lon="2.9051">
        <ele>1160.6</ele>
        <time>2021-08-25T16:22:05Z</time>
      </trkpt>
      <trkpt lat="45.54439" lon="2.90491">
        <ele>1160.2</ele>
        <time>2021-08-25T16:22:07Z</time>
      </trkpt>
      <trkpt lat="45.54433" lon="2.9047">
        <ele>1159.4</ele>
        <time>2021-08-25T16:22:09Z</time>
      </trkpt>
      <trkpt lat="45.54427" lon="2.90451">
        <ele>1158.9</ele>
        <time>2021-08-25T16:22:11Z</time>
      </trkpt>
      <trkpt lat="45.54422" lon="2.90432">
        <ele>1158.3</ele>
        <time>2021-08-25T16:22:13Z</time>
      </trkpt>
      <trkpt lat="45.54415" lon="2.90412">
        <ele>1157.7</ele>
        <time>2021-08-25T16:22:15Z</time>
      </trkpt>
      <trkpt lat="45.54408" lon="2.90392">
        <ele>1156.5</ele>
        <time>2021-08-25T16:22:17Z</time>
      </trkpt>
      <trkpt lat="45.54401" lon="2.9037">
        <ele>1155.3</ele>
        <time>2021-08-25T16:22:19Z</time>
      </trkpt>
      <trkpt lat="45.54394" lon="2.90348">
        <ele>1153.9</ele>
        <time>2021-08-25T16:22:21Z</time>
      </trkpt>
      <trkpt lat="45.54386" lon="2.90327">
        <ele>1153</ele>
        <time>2021-08-25T16:22:23Z</time>
      </trkpt>
      <trkpt lat="45.54377" lon="2.90304">
        <ele>1152.4</ele>
        <time>2021-08-25T16:22:25Z</time>
      </trkpt>
      <trkpt lat="45.54368" lon="2.90281">
        <ele>1151.4</ele>
        <time>2021-08-25T16:22:27Z</time>
      </trkpt>
      <trkpt lat="45.54362" lon="2.90258">
        <ele>1149.7</ele>
        <time>2021-08-25T16:22:29Z</time>
      </trkpt>
      <trkpt lat="45.54359" lon="2.90233">
        <ele>1148.7</ele>
        <time>2021-08-25T16:22:31Z</time>
      </trkpt>
      <trkpt lat="45.54357" lon="2.90209">
        <ele>1147.8</ele>
        <time>2021-08-25T16:22:33Z</time>
      </trkpt>
      <trkpt lat="45.54353" lon="2.90185">
        <ele>1146.9</ele>
        <time>2021-08-25T16:22:35Z</time>
      </trkpt>
      <trkpt lat="45.54352" lon="2.90164">
        <ele>1146</ele>
        <time>2021-08-25T16:22:37Z</time>
      </trkpt>
      <trkpt lat="45.54353" lon="2.90145">
        <ele>1146.9</ele>
        <time>2021-08-25T16:22:39Z</time>
      </trkpt>
      <trkpt lat="45.54359" lon="2.90129">
        <ele>1147.6</ele>
        <time>2021-08-25T16:22:41Z</time>
      </trkpt>
      <trkpt lat="45.54369" lon="2.90116">
        <ele>1148.4</ele>
        <time>2021-08-25T16:22:43Z</time>
      </trkpt>
      <trkpt lat="45.5438" lon="2.9011">
        <ele>1149</ele>
        <time>2021-08-25T16:22:45Z</time>
      </trkpt>
      <trkpt lat="45.54391" lon="2.9011">
        <ele>1149.1</ele>
        <time>2021-08-25T16:22:47Z</time>
      </trkpt>
      <trkpt lat="45.54401" lon="2.90112">
        <ele>1149.1</ele>
        <time>2021-08-25T16:22:49Z</time>
      </trkpt>
      <trkpt lat="45.54411" lon="2.90115">
        <ele>1148.8</ele>
        <time>2021-08-25T16:22:51Z</time>
      </trkpt>
      <trkpt lat="45.54419" lon="2.90118">
        <ele>1148.6</ele>
        <time>2021-08-25T16:22:53Z</time>
      </trkpt>
      <trkpt lat="45.54427" lon="2.90121">
        <ele>1148.4</ele>
        <time>2021-08-25T16:22:55Z</time>
      </trkpt>
      <trkpt lat="45.54435" lon="2.90125">
        <ele>1148.2</ele>
        <time>2021-08-25T16:22:57Z</time>
      </trkpt>
      <trkpt lat="45.54442" lon="2.90129">
        <ele>1147.9</ele>
        <time>2021-08-25T16:22:59Z</time>
      </trkpt>
      <trkpt lat="45.54449" lon="2.90132">
        <ele>1147.7</ele>
        <time>2021-08-25T16:23:01Z</time>
      </trkpt>
      <trkpt lat="45.54455" lon="2.90135">
        <ele>1147.5</ele>
        <time>2021-08-25T16:23:03Z</time>
      </trkpt>
      <trkpt lat="45.54462" lon="2.90137">
        <ele>1147.6</ele>
        <time>2021-08-25T16:23:05Z</time>
      </trkpt>
      <trkpt lat="45.5447" lon="2.90133">
        <ele>1148.4</ele>
        <time>2021-08-25T16:23:07Z</time>
      </trkpt>
      <trkpt lat="45.54476" lon="2.90124">
        <ele>1149.7</ele>
        <time>2021-08-25T16:23:09Z</time>
      </trkpt>
      <trkpt lat="45.5448" lon="2.90118">
        <ele>1150.6</ele>
        <time>2021-08-25T16:23:11Z</time>
      </trkpt>
      <trkpt lat="45.54482" lon="2.90115">
        <ele>1151.1</ele>
        <time>2021-08-25T16:23:13Z</time>
      </trkpt>
      <trkpt lat="45.54486" lon="2.90114">
        <ele>1151.5</ele>
        <time>2021-08-25T16:23:15Z</time>
      </trkpt>
      <trkpt lat="45.54488" lon="2.90114">
        <ele>1151.6</ele>
        <time>2021-08-25T16:23:17Z</time>
      </trkpt>
      <trkpt lat="45.54487" lon="2.90115">
        <ele>1151.4</ele>
        <time>2021-08-25T16:23:19Z</time>
      </trkpt>
      <trkpt lat="45.54487" lon="2.90116">
        <ele>1151.2</ele>
        <time>2021-08-25T16:23:21Z</time>
      </trkpt>
      <trkpt lat="45.54486" lon="2.90116">
        <ele>1151.3</ele>
        <time>2021-08-25T16:23:23Z</time>
      </trkpt>
      <trkpt lat="45.54486" lon="2.90115">
        <ele>1151.3</ele>
        <time>2021-08-25T16:23:25Z</time>
      </trkpt>
      <trkpt lat="45.54485" lon="2.90115">
        <ele>1151.3</ele>
        <time>2021-08-25T16:26:57Z</time>
      </trkpt>
      <trkpt lat="45.54485" lon="2.90115">
        <ele>1151.3</ele>
        <time>2021-08-25T16:26:59Z</time>
      </trkpt>
      <trkpt lat="45.54485" lon="2.90115">
        <ele>1151.3</ele>
        <time>2021-08-25T16:27:01Z</time>
      </trkpt>
      <trkpt lat="45.54484" lon="2.90115">
        <ele>1151.2</ele>
        <time>2021-08-25T16:27:03Z</time>
      </trkpt>
      <trkpt lat="45.54483" lon="2.90118">
        <ele>1150.9</ele>
        <time>2021-08-25T16:27:05Z</time>
      </trkpt>
      <trkpt lat="45.54482" lon="2.9012">
        <ele>1150.6</ele>
        <time>2021-08-25T16:27:07Z</time>
      </trkpt>
      <trkpt lat="45.54479" lon="2.90122">
        <ele>1150.1</ele>
        <time>2021-08-25T16:27:09Z</time>
      </trkpt>
      <trkpt lat="45.54477" lon="2.90126">
        <ele>1149.5</ele>
        <time>2021-08-25T16:27:11Z</time>
      </trkpt>
      <trkpt lat="45.54473" lon="2.9013">
        <ele>1148.9</ele>
        <time>2021-08-25T16:27:13Z</time>
      </trkpt>
      <trkpt lat="45.5447" lon="2.90134">
        <ele>1148.2</ele>
        <time>2021-08-25T16:27:15Z</time>
      </trkpt>
      <trkpt lat="45.54468" lon="2.90136">
        <ele>1147.8</ele>
        <time>2021-08-25T16:27:17Z</time>
      </trkpt>
      <trkpt lat="45.54468" lon="2.90137">
        <ele>1147.8</ele>
        <time>2021-08-25T16:27:19Z</time>
      </trkpt>
      <trkpt lat="45.54468" lon="2.90137">
        <ele>1147.8</ele>
        <time>2021-08-25T16:27:21Z</time>
      </trkpt>
      <trkpt lat="45.54468" lon="2.90136">
        <ele>1147.9</ele>
        <time>2021-08-25T16:27:23Z</time>
      </trkpt>
      <trkpt lat="45.54468" lon="2.90136">
        <ele>1147.9</ele>
        <time>2021-08-25T16:27:25Z</time>
      </trkpt>
      <trkpt lat="45.54475" lon="2.90147">
        <ele>1146.7</ele>
        <time>2021-08-25T16:27:39Z</time>
      </trkpt>
      <trkpt lat="45.54481" lon="2.9015">
        <ele>1146.5</ele>
        <time>2021-08-25T16:27:41Z</time>
      </trkpt>
      <trkpt lat="45.54487" lon="2.90153">
        <ele>1146.3</ele>
        <time>2021-08-25T16:27:43Z</time>
      </trkpt>
      <trkpt lat="45.54493" lon="2.90157">
        <ele>1146.1</ele>
        <time>2021-08-25T16:27:45Z</time>
      </trkpt>
      <trkpt lat="45.545" lon="2.9016">
        <ele>1145.9</ele>
        <time>2021-08-25T16:27:47Z</time>
      </trkpt>
      <trkpt lat="45.54505" lon="2.90163">
        <ele>1145.9</ele>
        <time>2021-08-25T16:27:49Z</time>
      </trkpt>
      <trkpt lat="45.5451" lon="2.90166">
        <ele>1146</ele>
        <time>2021-08-25T16:27:51Z</time>
      </trkpt>
      <trkpt lat="45.54515" lon="2.90168">
        <ele>1146.1</ele>
        <time>2021-08-25T16:27:53Z</time>
      </trkpt>
      <trkpt lat="45.5452" lon="2.9017">
        <ele>1146.3</ele>
        <time>2021-08-25T16:27:55Z</time>
      </trkpt>
      <trkpt lat="45.54524" lon="2.90171">
        <ele>1146.5</ele>
        <time>2021-08-25T16:27:57Z</time>
      </trkpt>
      <trkpt lat="45.54529" lon="2.90174">
        <ele>1146.5</ele>
        <time>2021-08-25T16:27:59Z</time>
      </trkpt>
      <trkpt lat="45.54534" lon="2.90176">
        <ele>1146.6</ele>
        <time>2021-08-25T16:28:01Z</time>
      </trkpt>
      <trkpt lat="45.54539" lon="2.90177">
        <ele>1146.8</ele>
        <time>2021-08-25T16:28:03Z</time>
      </trkpt>
      <trkpt lat="45.54544" lon="2.90179">
        <ele>1147.1</ele>
        <time>2021-08-25T16:28:05Z</time>
      </trkpt>
      <trkpt lat="45.54549" lon="2.90179">
        <ele>1147.4</ele>
        <time>2021-08-25T16:28:07Z</time>
      </trkpt>
      <trkpt lat="45.54554" lon="2.90179">
        <ele>1147.8</ele>
        <time>2021-08-25T16:28:09Z</time>
      </trkpt>
      <trkpt lat="45.5456" lon="2.90179">
        <ele>1148.2</ele>
        <time>2021-08-25T16:28:11Z</time>
      </trkpt>
      <trkpt lat="45.54565" lon="2.9018">
        <ele>1148.5</ele>
        <time>2021-08-25T16:28:13Z</time>
      </trkpt>
      <trkpt lat="45.54571" lon="2.9018">
        <ele>1148.9</ele>
        <time>2021-08-25T16:28:15Z</time>
      </trkpt>
      <trkpt lat="45.54577" lon="2.90182">
        <ele>1149.2</ele>
        <time>2021-08-25T16:28:17Z</time>
      </trkpt>
      <trkpt lat="45.54583" lon="2.90182">
        <ele>1149.6</ele>
        <time>2021-08-25T16:28:19Z</time>
      </trkpt>
      <trkpt lat="45.54589" lon="2.90183">
        <ele>1149.4</ele>
        <time>2021-08-25T16:28:21Z</time>
      </trkpt>
      <trkpt lat="45.54595" lon="2.90184">
        <ele>1149.2</ele>
        <time>2021-08-25T16:28:23Z</time>
      </trkpt>
      <trkpt lat="45.54601" lon="2.90184">
        <ele>1149.1</ele>
        <time>2021-08-25T16:28:25Z</time>
      </trkpt>
      <trkpt lat="45.54607" lon="2.90185">
        <ele>1148.9</ele>
        <time>2021-08-25T16:28:27Z</time>
      </trkpt>
      <trkpt lat="45.54613" lon="2.90186">
        <ele>1148.6</ele>
        <time>2021-08-25T16:28:29Z</time>
      </trkpt>
      <trkpt lat="45.54618" lon="2.90186">
        <ele>1148.6</ele>
        <time>2021-08-25T16:28:31Z</time>
      </trkpt>
      <trkpt lat="45.54623" lon="2.90185">
        <ele>1148.7</ele>
        <time>2021-08-25T16:28:33Z</time>
      </trkpt>
      <trkpt lat="45.54628" lon="2.90183">
        <ele>1149</ele>
        <time>2021-08-25T16:28:35Z</time>
      </trkpt>
      <trkpt lat="45.54632" lon="2.90179">
        <ele>1149.3</ele>
        <time>2021-08-25T16:28:37Z</time>
      </trkpt>
      <trkpt lat="45.54635" lon="2.90174">
        <ele>1149.8</ele>
        <time>2021-08-25T16:28:39Z</time>
      </trkpt>
      <trkpt lat="45.54639" lon="2.90171">
        <ele>1150.2</ele>
        <time>2021-08-25T16:28:41Z</time>
      </trkpt>
      <trkpt lat="45.54642" lon="2.90167">
        <ele>1150.6</ele>
        <time>2021-08-25T16:28:43Z</time>
      </trkpt>
      <trkpt lat="45.54644" lon="2.90162">
        <ele>1150.5</ele>
        <time>2021-08-25T16:28:45Z</time>
      </trkpt>
      <trkpt lat="45.54648" lon="2.90159">
        <ele>1150.5</ele>
        <time>2021-08-25T16:28:47Z</time>
      </trkpt>
      <trkpt lat="45.5465" lon="2.90157">
        <ele>1150.4</ele>
        <time>2021-08-25T16:28:49Z</time>
      </trkpt>
      <trkpt lat="45.54651" lon="2.90157">
        <ele>1150.4</ele>
        <time>2021-08-25T16:28:51Z</time>
      </trkpt>
      <trkpt lat="45.54651" lon="2.90157">
        <ele>1150.4</ele>
        <time>2021-08-25T16:28:53Z</time>
      </trkpt>
      <trkpt lat="45.54651" lon="2.90158">
        <ele>1150.3</ele>
        <time>2021-08-25T16:28:55Z</time>
      </trkpt>
      <trkpt lat="45.54651" lon="2.90158">
        <ele>1150.3</ele>
        <time>2021-08-25T16:28:57Z</time>
      </trkpt>
      <trkpt lat="45.54658" lon="2.90155">
        <ele>1150.1</ele>
        <time>2021-08-25T16:31:37Z</time>
      </trkpt>
      <trkpt lat="45.54657" lon="2.90155">
        <ele>1150.2</ele>
        <time>2021-08-25T16:31:39Z</time>
      </trkpt>
      <trkpt lat="45.54657" lon="2.90155">
        <ele>1150.2</ele>
        <time>2021-08-25T16:31:41Z</time>
      </trkpt>
      <trkpt lat="45.54657" lon="2.90156">
        <ele>1150.2</ele>
        <time>2021-08-25T16:31:43Z</time>
      </trkpt>
      <trkpt lat="45.54657" lon="2.90156">
        <ele>1150.2</ele>
        <time>2021-08-25T16:31:45Z</time>
      </trkpt>
      <trkpt lat="45.54657" lon="2.90156">
        <ele>1150.2</ele>
        <time>2021-08-25T16:31:47Z</time>
      </trkpt>
      <trkpt lat="45.54657" lon="2.90156">
        <ele>1150.2</ele>
        <time>2021-08-25T16:31:49Z</time>
      </trkpt>
      <trkpt lat="45.54659" lon="2.90159">
        <ele>1150.1</ele>
        <time>2021-08-25T16:31:51Z</time>
      </trkpt>
      <trkpt lat="45.54662" lon="2.90162">
        <ele>1150.1</ele>
        <time>2021-08-25T16:31:53Z</time>
      </trkpt>
      <trkpt lat="45.54665" lon="2.90166">
        <ele>1150</ele>
        <time>2021-08-25T16:31:55Z</time>
      </trkpt>
      <trkpt lat="45.54666" lon="2.90169">
        <ele>1149.8</ele>
        <time>2021-08-25T16:31:57Z</time>
      </trkpt>
      <trkpt lat="45.54665" lon="2.90168">
        <ele>1149.9</ele>
        <time>2021-08-25T16:31:59Z</time>
      </trkpt>
      <trkpt lat="45.54665" lon="2.90168">
        <ele>1149.9</ele>
        <time>2021-08-25T16:32:01Z</time>
      </trkpt>
      <trkpt lat="45.54665" lon="2.90169">
        <ele>1149.9</ele>
        <time>2021-08-25T16:32:03Z</time>
      </trkpt>
      <trkpt lat="45.54665" lon="2.90169">
        <ele>1149.8</ele>
        <time>2021-08-25T16:32:05Z</time>
      </trkpt>
      <trkpt lat="45.54672" lon="2.90184">
        <ele>1147.9</ele>
        <time>2021-08-25T16:33:07Z</time>
      </trkpt>
      <trkpt lat="45.54676" lon="2.90192">
        <ele>1146.9</ele>
        <time>2021-08-25T16:33:09Z</time>
      </trkpt>
      <trkpt lat="45.54681" lon="2.90203">
        <ele>1145.6</ele>
        <time>2021-08-25T16:33:11Z</time>
      </trkpt>
      <trkpt lat="45.54685" lon="2.90216">
        <ele>1144.3</ele>
        <time>2021-08-25T16:33:13Z</time>
      </trkpt>
      <trkpt lat="45.54689" lon="2.90226">
        <ele>1143.2</ele>
        <time>2021-08-25T16:33:15Z</time>
      </trkpt>
      <trkpt lat="45.54692" lon="2.90233">
        <ele>1142.4</ele>
        <time>2021-08-25T16:33:17Z</time>
      </trkpt>
      <trkpt lat="45.54693" lon="2.90238">
        <ele>1142</ele>
        <time>2021-08-25T16:33:19Z</time>
      </trkpt>
      <trkpt lat="45.54695" lon="2.90243">
        <ele>1141.5</ele>
        <time>2021-08-25T16:33:21Z</time>
      </trkpt>
      <trkpt lat="45.54697" lon="2.90248">
        <ele>1141.1</ele>
        <time>2021-08-25T16:33:23Z</time>
      </trkpt>
      <trkpt lat="45.54699" lon="2.9025">
        <ele>1140.8</ele>
        <time>2021-08-25T16:33:25Z</time>
      </trkpt>
      <trkpt lat="45.54701" lon="2.90255">
        <ele>1140.3</ele>
        <time>2021-08-25T16:33:27Z</time>
      </trkpt>
      <trkpt lat="45.54704" lon="2.90263">
        <ele>1139.4</ele>
        <time>2021-08-25T16:33:29Z</time>
      </trkpt>
      <trkpt lat="45.54708" lon="2.9027">
        <ele>1138.7</ele>
        <time>2021-08-25T16:33:31Z</time>
      </trkpt>
      <trkpt lat="45.54711" lon="2.90275">
        <ele>1138.2</ele>
        <time>2021-08-25T16:33:33Z</time>
      </trkpt>
      <trkpt lat="45.54715" lon="2.90282">
        <ele>1137.7</ele>
        <time>2021-08-25T16:33:35Z</time>
      </trkpt>
      <trkpt lat="45.54719" lon="2.90289">
        <ele>1137.3</ele>
        <time>2021-08-25T16:33:37Z</time>
      </trkpt>
      <trkpt lat="45.54724" lon="2.90295">
        <ele>1137</ele>
        <time>2021-08-25T16:33:39Z</time>
      </trkpt>
      <trkpt lat="45.54727" lon="2.903">
        <ele>1136.8</ele>
        <time>2021-08-25T16:33:41Z</time>
      </trkpt>
      <trkpt lat="45.54732" lon="2.90305">
        <ele>1136.8</ele>
        <time>2021-08-25T16:33:43Z</time>
      </trkpt>
      <trkpt lat="45.54736" lon="2.9031">
        <ele>1136.7</ele>
        <time>2021-08-25T16:33:45Z</time>
      </trkpt>
      <trkpt lat="45.5474" lon="2.90315">
        <ele>1136.8</ele>
        <time>2021-08-25T16:33:47Z</time>
      </trkpt>
      <trkpt lat="45.54745" lon="2.90321">
        <ele>1136.9</ele>
        <time>2021-08-25T16:33:49Z</time>
      </trkpt>
      <trkpt lat="45.5475" lon="2.90327">
        <ele>1137.1</ele>
        <time>2021-08-25T16:33:51Z</time>
      </trkpt>
      <trkpt lat="45.54754" lon="2.90332">
        <ele>1136.8</ele>
        <time>2021-08-25T16:33:53Z</time>
      </trkpt>
      <trkpt lat="45.54758" lon="2.90338">
        <ele>1136.3</ele>
        <time>2021-08-25T16:33:55Z</time>
      </trkpt>
      <trkpt lat="45.54762" lon="2.90342">
        <ele>1135.8</ele>
        <time>2021-08-25T16:33:57Z</time>
      </trkpt>
      <trkpt lat="45.54766" lon="2.90347">
        <ele>1135.2</ele>
        <time>2021-08-25T16:33:59Z</time>
      </trkpt>
      <trkpt lat="45.5477" lon="2.90352">
        <ele>1134.8</ele>
        <time>2021-08-25T16:34:01Z</time>
      </trkpt>
      <trkpt lat="45.54775" lon="2.90357">
        <ele>1134.3</ele>
        <time>2021-08-25T16:34:03Z</time>
      </trkpt>
      <trkpt lat="45.54779" lon="2.90362">
        <ele>1133.8</ele>
        <time>2021-08-25T16:34:05Z</time>
      </trkpt>
      <trkpt lat="45.54779" lon="2.90362">
        <ele>1133.8</ele>
        <time>2021-08-25T16:34:07Z</time>
      </trkpt>
      <trkpt lat="45.54778" lon="2.90362">
        <ele>1133.8</ele>
        <time>2021-08-25T16:34:09Z</time>
      </trkpt>
      <trkpt lat="45.54778" lon="2.90362">
        <ele>1133.8</ele>
        <time>2021-08-25T16:34:11Z</time>
      </trkpt>
      <trkpt lat="45.54778" lon="2.90362">
        <ele>1133.8</ele>
        <time>2021-08-25T16:34:13Z</time>
      </trkpt>
      <trkpt lat="45.54792" lon="2.90378">
        <ele>1132.6</ele>
        <time>2021-08-25T16:34:25Z</time>
      </trkpt>
      <trkpt lat="45.54797" lon="2.90383">
        <ele>1132.2</ele>
        <time>2021-08-25T16:34:27Z</time>
      </trkpt>
      <trkpt lat="45.54802" lon="2.9039">
        <ele>1131.9</ele>
        <time>2021-08-25T16:34:29Z</time>
      </trkpt>
      <trkpt lat="45.54807" lon="2.90396">
        <ele>1131.6</ele>
        <time>2021-08-25T16:34:31Z</time>
      </trkpt>
      <trkpt lat="45.54812" lon="2.90401">
        <ele>1131.3</ele>
        <time>2021-08-25T16:34:33Z</time>
      </trkpt>
      <trkpt lat="45.54816" lon="2.90408">
        <ele>1131.1</ele>
        <time>2021-08-25T16:34:35Z</time>
      </trkpt>
      <trkpt lat="45.54821" lon="2.90414">
        <ele>1130.9</ele>
        <time>2021-08-25T16:34:37Z</time>
      </trkpt>
      <trkpt lat="45.54826" lon="2.90419">
        <ele>1130.8</ele>
        <time>2021-08-25T16:34:39Z</time>
      </trkpt>
      <trkpt lat="45.54831" lon="2.90426">
        <ele>1130.4</ele>
        <time>2021-08-25T16:34:41Z</time>
      </trkpt>
      <trkpt lat="45.54836" lon="2.90433">
        <ele>1129.9</ele>
        <time>2021-08-25T16:34:43Z</time>
      </trkpt>
      <trkpt lat="45.54841" lon="2.90438">
        <ele>1129.3</ele>
        <time>2021-08-25T16:34:45Z</time>
      </trkpt>
      <trkpt lat="45.54847" lon="2.90444">
        <ele>1128.7</ele>
        <time>2021-08-25T16:34:47Z</time>
      </trkpt>
      <trkpt lat="45.54851" lon="2.9045">
        <ele>1128.2</ele>
        <time>2021-08-25T16:34:49Z</time>
      </trkpt>
      <trkpt lat="45.54857" lon="2.90456">
        <ele>1127.6</ele>
        <time>2021-08-25T16:34:51Z</time>
      </trkpt>
      <trkpt lat="45.54862" lon="2.90462">
        <ele>1127.1</ele>
        <time>2021-08-25T16:34:53Z</time>
      </trkpt>
      <trkpt lat="45.54868" lon="2.9047">
        <ele>1126.5</ele>
        <time>2021-08-25T16:34:55Z</time>
      </trkpt>
      <trkpt lat="45.54874" lon="2.90477">
        <ele>1126</ele>
        <time>2021-08-25T16:34:57Z</time>
      </trkpt>
      <trkpt lat="45.5488" lon="2.90483">
        <ele>1125.5</ele>
        <time>2021-08-25T16:34:59Z</time>
      </trkpt>
      <trkpt lat="45.54886" lon="2.90491">
        <ele>1125.1</ele>
        <time>2021-08-25T16:35:01Z</time>
      </trkpt>
      <trkpt lat="45.54893" lon="2.90499">
        <ele>1124.6</ele>
        <time>2021-08-25T16:35:03Z</time>
      </trkpt>
      <trkpt lat="45.54898" lon="2.90506">
        <ele>1124.2</ele>
        <time>2021-08-25T16:35:05Z</time>
      </trkpt>
      <trkpt lat="45.54904" lon="2.90513">
        <ele>1123.8</ele>
        <time>2021-08-25T16:35:07Z</time>
      </trkpt>
      <trkpt lat="45.5491" lon="2.9052">
        <ele>1123.3</ele>
        <time>2021-08-25T16:35:09Z</time>
      </trkpt>
      <trkpt lat="45.54915" lon="2.9053">
        <ele>1122.9</ele>
        <time>2021-08-25T16:35:11Z</time>
      </trkpt>
      <trkpt lat="45.54921" lon="2.90539">
        <ele>1122.5</ele>
        <time>2021-08-25T16:35:13Z</time>
      </trkpt>
      <trkpt lat="45.54927" lon="2.90548">
        <ele>1122.2</ele>
        <time>2021-08-25T16:35:15Z</time>
      </trkpt>
      <trkpt lat="45.54932" lon="2.90559">
        <ele>1121.8</ele>
        <time>2021-08-25T16:35:17Z</time>
      </trkpt>
      <trkpt lat="45.54938" lon="2.9057">
        <ele>1121.4</ele>
        <time>2021-08-25T16:35:19Z</time>
      </trkpt>
      <trkpt lat="45.54945" lon="2.90581">
        <ele>1121.1</ele>
        <time>2021-08-25T16:35:21Z</time>
      </trkpt>
      <trkpt lat="45.54951" lon="2.90592">
        <ele>1120.7</ele>
        <time>2021-08-25T16:35:23Z</time>
      </trkpt>
      <trkpt lat="45.54958" lon="2.90604">
        <ele>1120.4</ele>
        <time>2021-08-25T16:35:25Z</time>
      </trkpt>
      <trkpt lat="45.54964" lon="2.90615">
        <ele>1120.1</ele>
        <time>2021-08-25T16:35:27Z</time>
      </trkpt>
      <trkpt lat="45.54971" lon="2.90626">
        <ele>1119.8</ele>
        <time>2021-08-25T16:35:29Z</time>
      </trkpt>
      <trkpt lat="45.54977" lon="2.90636">
        <ele>1119.6</ele>
        <time>2021-08-25T16:35:31Z</time>
      </trkpt>
      <trkpt lat="45.54981" lon="2.90645">
        <ele>1119.4</ele>
        <time>2021-08-25T16:35:33Z</time>
      </trkpt>
      <trkpt lat="45.54986" lon="2.90654">
        <ele>1119.2</ele>
        <time>2021-08-25T16:35:35Z</time>
      </trkpt>
      <trkpt lat="45.54991" lon="2.90663">
        <ele>1119</ele>
        <time>2021-08-25T16:35:37Z</time>
      </trkpt>
      <trkpt lat="45.54996" lon="2.90672">
        <ele>1118.7</ele>
        <time>2021-08-25T16:35:39Z</time>
      </trkpt>
      <trkpt lat="45.55001" lon="2.9068">
        <ele>1118.4</ele>
        <time>2021-08-25T16:35:41Z</time>
      </trkpt>
      <trkpt lat="45.55005" lon="2.90688">
        <ele>1117.9</ele>
        <time>2021-08-25T16:35:43Z</time>
      </trkpt>
      <trkpt lat="45.55009" lon="2.90696">
        <ele>1117.4</ele>
        <time>2021-08-25T16:35:45Z</time>
      </trkpt>
      <trkpt lat="45.55014" lon="2.90704">
        <ele>1116.9</ele>
        <time>2021-08-25T16:35:47Z</time>
      </trkpt>
      <trkpt lat="45.55019" lon="2.90713">
        <ele>1116.5</ele>
        <time>2021-08-25T16:35:49Z</time>
      </trkpt>
      <trkpt lat="45.55025" lon="2.90722">
        <ele>1115.9</ele>
        <time>2021-08-25T16:35:51Z</time>
      </trkpt>
      <trkpt lat="45.5503" lon="2.90731">
        <ele>1115.5</ele>
        <time>2021-08-25T16:35:53Z</time>
      </trkpt>
      <trkpt lat="45.55035" lon="2.9074">
        <ele>1115</ele>
        <time>2021-08-25T16:35:55Z</time>
      </trkpt>
      <trkpt lat="45.5504" lon="2.9075">
        <ele>1114.5</ele>
        <time>2021-08-25T16:35:57Z</time>
      </trkpt>
      <trkpt lat="45.55045" lon="2.90759">
        <ele>1114.1</ele>
        <time>2021-08-25T16:35:59Z</time>
      </trkpt>
      <trkpt lat="45.5505" lon="2.9077">
        <ele>1113.8</ele>
        <time>2021-08-25T16:36:01Z</time>
      </trkpt>
      <trkpt lat="45.55054" lon="2.9078">
        <ele>1113.5</ele>
        <time>2021-08-25T16:36:03Z</time>
      </trkpt>
      <trkpt lat="45.55058" lon="2.9079">
        <ele>1113.2</ele>
        <time>2021-08-25T16:36:05Z</time>
      </trkpt>
      <trkpt lat="45.55062" lon="2.90801">
        <ele>1113</ele>
        <time>2021-08-25T16:36:07Z</time>
      </trkpt>
      <trkpt lat="45.55065" lon="2.90812">
        <ele>1112.8</ele>
        <time>2021-08-25T16:36:09Z</time>
      </trkpt>
      <trkpt lat="45.55069" lon="2.90823">
        <ele>1112.7</ele>
        <time>2021-08-25T16:36:11Z</time>
      </trkpt>
      <trkpt lat="45.55073" lon="2.90835">
        <ele>1112.6</ele>
        <time>2021-08-25T16:36:13Z</time>
      </trkpt>
      <trkpt lat="45.55072" lon="2.90844">
        <ele>1112.4</ele>
        <time>2021-08-25T16:36:15Z</time>
      </trkpt>
      <trkpt lat="45.55071" lon="2.90851">
        <ele>1112.2</ele>
        <time>2021-08-25T16:36:17Z</time>
      </trkpt>
      <trkpt lat="45.55071" lon="2.90854">
        <ele>1112.1</ele>
        <time>2021-08-25T16:36:19Z</time>
      </trkpt>
      <trkpt lat="45.55072" lon="2.90856">
        <ele>1112.1</ele>
        <time>2021-08-25T16:36:21Z</time>
      </trkpt>
      <trkpt lat="45.55072" lon="2.90855">
        <ele>1112.1</ele>
        <time>2021-08-25T16:36:23Z</time>
      </trkpt>
      <trkpt lat="45.55072" lon="2.90855">
        <ele>1112.1</ele>
        <time>2021-08-25T16:36:25Z</time>
      </trkpt>
      <trkpt lat="45.55072" lon="2.90855">
        <ele>1112.1</ele>
        <time>2021-08-25T16:36:27Z</time>
      </trkpt>
      <trkpt lat="45.55072" lon="2.90855">
        <ele>1112.1</ele>
        <time>2021-08-25T16:36:29Z</time>
      </trkpt>
      <trkpt lat="45.55074" lon="2.90858">
        <ele>1112.2</ele>
        <time>2021-08-25T16:36:43Z</time>
      </trkpt>
      <trkpt lat="45.55075" lon="2.90864">
        <ele>1112.1</ele>
        <time>2021-08-25T16:36:45Z</time>
      </trkpt>
      <trkpt lat="45.55076" lon="2.90868">
        <ele>1112.1</ele>
        <time>2021-08-25T16:36:47Z</time>
      </trkpt>
      <trkpt lat="45.55076" lon="2.90872">
        <ele>1112</ele>
        <time>2021-08-25T16:36:49Z</time>
      </trkpt>
      <trkpt lat="45.55077" lon="2.90878">
        <ele>1112</ele>
        <time>2021-08-25T16:36:51Z</time>
      </trkpt>
      <trkpt lat="45.55077" lon="2.90884">
        <ele>1111.9</ele>
        <time>2021-08-25T16:36:53Z</time>
      </trkpt>
      <trkpt lat="45.55078" lon="2.9089">
        <ele>1111.9</ele>
        <time>2021-08-25T16:36:55Z</time>
      </trkpt>
      <trkpt lat="45.5508" lon="2.90895">
        <ele>1112</ele>
        <time>2021-08-25T16:36:57Z</time>
      </trkpt>
      <trkpt lat="45.55081" lon="2.90898">
        <ele>1112</ele>
        <time>2021-08-25T16:36:59Z</time>
      </trkpt>
      <trkpt lat="45.55083" lon="2.90902">
        <ele>1112.1</ele>
        <time>2021-08-25T16:37:01Z</time>
      </trkpt>
      <trkpt lat="45.55084" lon="2.90904">
        <ele>1112.1</ele>
        <time>2021-08-25T16:37:03Z</time>
      </trkpt>
      <trkpt lat="45.55083" lon="2.90903">
        <ele>1112.2</ele>
        <time>2021-08-25T16:37:05Z</time>
      </trkpt>
      <trkpt lat="45.55083" lon="2.90903">
        <ele>1112.2</ele>
        <time>2021-08-25T16:37:07Z</time>
      </trkpt>
      <trkpt lat="45.55084" lon="2.90903">
        <ele>1112.2</ele>
        <time>2021-08-25T16:37:09Z</time>
      </trkpt>
      <trkpt lat="45.55083" lon="2.90903">
        <ele>1112.2</ele>
        <time>2021-08-25T16:37:11Z</time>
      </trkpt>
      <trkpt lat="45.55083" lon="2.90863">
        <ele>1112.6</ele>
        <time>2021-08-25T16:40:59Z</time>
      </trkpt>
      <trkpt lat="45.55086" lon="2.90871">
        <ele>1112.4</ele>
        <time>2021-08-25T16:41:01Z</time>
      </trkpt>
      <trkpt lat="45.55089" lon="2.90881">
        <ele>1112</ele>
        <time>2021-08-25T16:41:03Z</time>
      </trkpt>
      <trkpt lat="45.55093" lon="2.90891">
        <ele>1111.7</ele>
        <time>2021-08-25T16:41:05Z</time>
      </trkpt>
      <trkpt lat="45.55097" lon="2.90901">
        <ele>1111.4</ele>
        <time>2021-08-25T16:41:07Z</time>
      </trkpt>
      <trkpt lat="45.551" lon="2.90911">
        <ele>1111.2</ele>
        <time>2021-08-25T16:41:09Z</time>
      </trkpt>
      <trkpt lat="45.55103" lon="2.90922">
        <ele>1110.7</ele>
        <time>2021-08-25T16:41:11Z</time>
      </trkpt>
      <trkpt lat="45.55107" lon="2.90933">
        <ele>1110</ele>
        <time>2021-08-25T16:41:13Z</time>
      </trkpt>
      <trkpt lat="45.55111" lon="2.90942">
        <ele>1109.4</ele>
        <time>2021-08-25T16:41:15Z</time>
      </trkpt>
      <trkpt lat="45.55114" lon="2.90951">
        <ele>1108.8</ele>
        <time>2021-08-25T16:41:17Z</time>
      </trkpt>
      <trkpt lat="45.55117" lon="2.90959">
        <ele>1108.4</ele>
        <time>2021-08-25T16:41:19Z</time>
      </trkpt>
      <trkpt lat="45.55119" lon="2.90967">
        <ele>1107.9</ele>
        <time>2021-08-25T16:41:21Z</time>
      </trkpt>
      <trkpt lat="45.55122" lon="2.90975">
        <ele>1107.6</ele>
        <time>2021-08-25T16:41:23Z</time>
      </trkpt>
      <trkpt lat="45.55125" lon="2.90984">
        <ele>1107.2</ele>
        <time>2021-08-25T16:41:25Z</time>
      </trkpt>
      <trkpt lat="45.55128" lon="2.90992">
        <ele>1106.8</ele>
        <time>2021-08-25T16:41:27Z</time>
      </trkpt>
      <trkpt lat="45.55131" lon="2.91003">
        <ele>1106.3</ele>
        <time>2021-08-25T16:41:29Z</time>
      </trkpt>
      <trkpt lat="45.55136" lon="2.91013">
        <ele>1105.5</ele>
        <time>2021-08-25T16:41:31Z</time>
      </trkpt>
      <trkpt lat="45.55139" lon="2.9102">
        <ele>1105</ele>
        <time>2021-08-25T16:41:33Z</time>
      </trkpt>
      <trkpt lat="45.55141" lon="2.91026">
        <ele>1104.6</ele>
        <time>2021-08-25T16:41:35Z</time>
      </trkpt>
      <trkpt lat="45.55143" lon="2.91029">
        <ele>1104.4</ele>
        <time>2021-08-25T16:41:37Z</time>
      </trkpt>
      <trkpt lat="45.55145" lon="2.91031">
        <ele>1104.3</ele>
        <time>2021-08-25T16:41:39Z</time>
      </trkpt>
      <trkpt lat="45.55146" lon="2.9103">
        <ele>1104.4</ele>
        <time>2021-08-25T16:41:41Z</time>
      </trkpt>
      <trkpt lat="45.55146" lon="2.9103">
        <ele>1104.4</ele>
        <time>2021-08-25T16:41:43Z</time>
      </trkpt>
      <trkpt lat="45.55146" lon="2.9103">
        <ele>1104.4</ele>
        <time>2021-08-25T16:41:45Z</time>
      </trkpt>
      <trkpt lat="45.55146" lon="2.9103">
        <ele>1104.4</ele>
        <time>2021-08-25T16:41:47Z</time>
      </trkpt>
      <trkpt lat="45.55156" lon="2.91055">
        <ele>1103</ele>
        <time>2021-08-25T16:42:21Z</time>
      </trkpt>
      <trkpt lat="45.5516" lon="2.91063">
        <ele>1102.7</ele>
        <time>2021-08-25T16:42:23Z</time>
      </trkpt>
      <trkpt lat="45.55164" lon="2.91073">
        <ele>1102.4</ele>
        <time>2021-08-25T16:42:25Z</time>
      </trkpt>
      <trkpt lat="45.55169" lon="2.91084">
        <ele>1101.6</ele>
        <time>2021-08-25T16:42:27Z</time>
      </trkpt>
      <trkpt lat="45.55174" lon="2.91095">
        <ele>1100.1</ele>
        <time>2021-08-25T16:42:29Z</time>
      </trkpt>
      <trkpt lat="45.55178" lon="2.91104">
        <ele>1098.9</ele>
        <time>2021-08-25T16:42:31Z</time>
      </trkpt>
      <trkpt lat="45.5518" lon="2.9111">
        <ele>1098.2</ele>
        <time>2021-08-25T16:42:33Z</time>
      </trkpt>
      <trkpt lat="45.55182" lon="2.91115">
        <ele>1097.6</ele>
        <time>2021-08-25T16:42:35Z</time>
      </trkpt>
      <trkpt lat="45.55184" lon="2.91121">
        <ele>1097</ele>
        <time>2021-08-25T16:42:37Z</time>
      </trkpt>
      <trkpt lat="45.55185" lon="2.91125">
        <ele>1096.6</ele>
        <time>2021-08-25T16:42:39Z</time>
      </trkpt>
      <trkpt lat="45.55186" lon="2.9113">
        <ele>1096.1</ele>
        <time>2021-08-25T16:42:41Z</time>
      </trkpt>
      <trkpt lat="45.55188" lon="2.91138">
        <ele>1095.4</ele>
        <time>2021-08-25T16:42:43Z</time>
      </trkpt>
      <trkpt lat="45.55191" lon="2.91149">
        <ele>1094.4</ele>
        <time>2021-08-25T16:42:45Z</time>
      </trkpt>
      <trkpt lat="45.55195" lon="2.91161">
        <ele>1093.3</ele>
        <time>2021-08-25T16:42:47Z</time>
      </trkpt>
      <trkpt lat="45.55202" lon="2.91172">
        <ele>1092.4</ele>
        <time>2021-08-25T16:42:49Z</time>
      </trkpt>
      <trkpt lat="45.5521" lon="2.91178">
        <ele>1091.7</ele>
        <time>2021-08-25T16:42:51Z</time>
      </trkpt>
      <trkpt lat="45.55217" lon="2.91184">
        <ele>1091.1</ele>
        <time>2021-08-25T16:42:53Z</time>
      </trkpt>
      <trkpt lat="45.55224" lon="2.91189">
        <ele>1090.6</ele>
        <time>2021-08-25T16:42:55Z</time>
      </trkpt>
      <trkpt lat="45.5523" lon="2.91194">
        <ele>1090.2</ele>
        <time>2021-08-25T16:42:57Z</time>
      </trkpt>
      <trkpt lat="45.55236" lon="2.91199">
        <ele>1089.8</ele>
        <time>2021-08-25T16:42:59Z</time>
      </trkpt>
      <trkpt lat="45.55241" lon="2.91206">
        <ele>1089.3</ele>
        <time>2021-08-25T16:43:01Z</time>
      </trkpt>
      <trkpt lat="45.55244" lon="2.91213">
        <ele>1088.9</ele>
        <time>2021-08-25T16:43:03Z</time>
      </trkpt>
      <trkpt lat="45.55247" lon="2.9122">
        <ele>1088.5</ele>
        <time>2021-08-25T16:43:05Z</time>
      </trkpt>
      <trkpt lat="45.5525" lon="2.91228">
        <ele>1088.1</ele>
        <time>2021-08-25T16:43:07Z</time>
      </trkpt>
      <trkpt lat="45.55252" lon="2.91236">
        <ele>1087.5</ele>
        <time>2021-08-25T16:43:09Z</time>
      </trkpt>
      <trkpt lat="45.55253" lon="2.91244">
        <ele>1087</ele>
        <time>2021-08-25T16:43:11Z</time>
      </trkpt>
      <trkpt lat="45.55255" lon="2.9125">
        <ele>1086.6</ele>
        <time>2021-08-25T16:43:13Z</time>
      </trkpt>
      <trkpt lat="45.55257" lon="2.91257">
        <ele>1086.1</ele>
        <time>2021-08-25T16:43:15Z</time>
      </trkpt>
      <trkpt lat="45.55259" lon="2.91264">
        <ele>1085.7</ele>
        <time>2021-08-25T16:43:17Z</time>
      </trkpt>
      <trkpt lat="45.55261" lon="2.9127">
        <ele>1085.3</ele>
        <time>2021-08-25T16:43:19Z</time>
      </trkpt>
      <trkpt lat="45.55263" lon="2.91277">
        <ele>1084.8</ele>
        <time>2021-08-25T16:43:21Z</time>
      </trkpt>
      <trkpt lat="45.55265" lon="2.91285">
        <ele>1084.4</ele>
        <time>2021-08-25T16:43:23Z</time>
      </trkpt>
      <trkpt lat="45.55267" lon="2.91293">
        <ele>1083.9</ele>
        <time>2021-08-25T16:43:25Z</time>
      </trkpt>
      <trkpt lat="45.5527" lon="2.91302">
        <ele>1083.4</ele>
        <time>2021-08-25T16:43:27Z</time>
      </trkpt>
      <trkpt lat="45.55272" lon="2.91312">
        <ele>1082.9</ele>
        <time>2021-08-25T16:43:29Z</time>
      </trkpt>
      <trkpt lat="45.55275" lon="2.91321">
        <ele>1082.5</ele>
        <time>2021-08-25T16:43:31Z</time>
      </trkpt>
      <trkpt lat="45.55277" lon="2.91329">
        <ele>1082.2</ele>
        <time>2021-08-25T16:43:33Z</time>
      </trkpt>
      <trkpt lat="45.55279" lon="2.91338">
        <ele>1081.8</ele>
        <time>2021-08-25T16:43:35Z</time>
      </trkpt>
      <trkpt lat="45.55281" lon="2.91344">
        <ele>1081.6</ele>
        <time>2021-08-25T16:43:37Z</time>
      </trkpt>
      <trkpt lat="45.55282" lon="2.91349">
        <ele>1081.3</ele>
        <time>2021-08-25T16:43:39Z</time>
      </trkpt>
      <trkpt lat="45.55284" lon="2.91355">
        <ele>1081.1</ele>
        <time>2021-08-25T16:43:41Z</time>
      </trkpt>
      <trkpt lat="45.55285" lon="2.91363">
        <ele>1080.8</ele>
        <time>2021-08-25T16:43:43Z</time>
      </trkpt>
      <trkpt lat="45.55287" lon="2.91373">
        <ele>1080.5</ele>
        <time>2021-08-25T16:43:45Z</time>
      </trkpt>
      <trkpt lat="45.55288" lon="2.91381">
        <ele>1080.2</ele>
        <time>2021-08-25T16:43:47Z</time>
      </trkpt>
      <trkpt lat="45.5529" lon="2.91389">
        <ele>1079.9</ele>
        <time>2021-08-25T16:43:49Z</time>
      </trkpt>
      <trkpt lat="45.55291" lon="2.91397">
        <ele>1079.6</ele>
        <time>2021-08-25T16:43:51Z</time>
      </trkpt>
      <trkpt lat="45.55292" lon="2.91403">
        <ele>1079.4</ele>
        <time>2021-08-25T16:43:53Z</time>
      </trkpt>
      <trkpt lat="45.55292" lon="2.91406">
        <ele>1079.3</ele>
        <time>2021-08-25T16:43:55Z</time>
      </trkpt>
      <trkpt lat="45.55292" lon="2.91405">
        <ele>1079.3</ele>
        <time>2021-08-25T16:43:57Z</time>
      </trkpt>
      <trkpt lat="45.55292" lon="2.91405">
        <ele>1079.3</ele>
        <time>2021-08-25T16:43:59Z</time>
      </trkpt>
      <trkpt lat="45.55292" lon="2.91405">
        <ele>1079.3</ele>
        <time>2021-08-25T16:44:01Z</time>
      </trkpt>
      <trkpt lat="45.55292" lon="2.91405">
        <ele>1079.3</ele>
        <time>2021-08-25T16:44:03Z</time>
      </trkpt>
      <trkpt lat="45.55295" lon="2.91419">
        <ele>1078.9</ele>
        <time>2021-08-25T16:44:09Z</time>
      </trkpt>
      <trkpt lat="45.55296" lon="2.91427">
        <ele>1078.6</ele>
        <time>2021-08-25T16:44:11Z</time>
      </trkpt>
      <trkpt lat="45.55297" lon="2.91435">
        <ele>1078.4</ele>
        <time>2021-08-25T16:44:13Z</time>
      </trkpt>
      <trkpt lat="45.55298" lon="2.91443">
        <ele>1078.2</ele>
        <time>2021-08-25T16:44:15Z</time>
      </trkpt>
      <trkpt lat="45.55299" lon="2.91451">
        <ele>1078.1</ele>
        <time>2021-08-25T16:44:17Z</time>
      </trkpt>
      <trkpt lat="45.55301" lon="2.91459">
        <ele>1077.9</ele>
        <time>2021-08-25T16:44:19Z</time>
      </trkpt>
      <trkpt lat="45.55302" lon="2.91467">
        <ele>1077.8</ele>
        <time>2021-08-25T16:44:21Z</time>
      </trkpt>
      <trkpt lat="45.55303" lon="2.91474">
        <ele>1077.7</ele>
        <time>2021-08-25T16:44:23Z</time>
      </trkpt>
      <trkpt lat="45.55304" lon="2.91482">
        <ele>1077.6</ele>
        <time>2021-08-25T16:44:25Z</time>
      </trkpt>
      <trkpt lat="45.55305" lon="2.91488">
        <ele>1077.5</ele>
        <time>2021-08-25T16:44:27Z</time>
      </trkpt>
      <trkpt lat="45.55305" lon="2.91493">
        <ele>1077.4</ele>
        <time>2021-08-25T16:44:29Z</time>
      </trkpt>
      <trkpt lat="45.55303" lon="2.91499">
        <ele>1077.2</ele>
        <time>2021-08-25T16:44:31Z</time>
      </trkpt>
      <trkpt lat="45.55301" lon="2.91505">
        <ele>1076.8</ele>
        <time>2021-08-25T16:44:33Z</time>
      </trkpt>
      <trkpt lat="45.55299" lon="2.9151">
        <ele>1076.3</ele>
        <time>2021-08-25T16:44:35Z</time>
      </trkpt>
      <trkpt lat="45.55296" lon="2.91514">
        <ele>1075.9</ele>
        <time>2021-08-25T16:44:37Z</time>
      </trkpt>
      <trkpt lat="45.55297" lon="2.91514">
        <ele>1076</ele>
        <time>2021-08-25T16:44:39Z</time>
      </trkpt>
      <trkpt lat="45.55297" lon="2.91513">
        <ele>1076</ele>
        <time>2021-08-25T16:44:41Z</time>
      </trkpt>
      <trkpt lat="45.55297" lon="2.91513">
        <ele>1076</ele>
        <time>2021-08-25T16:44:43Z</time>
      </trkpt>
      <trkpt lat="45.55297" lon="2.91513">
        <ele>1076</ele>
        <time>2021-08-25T16:44:45Z</time>
      </trkpt>
      <trkpt lat="45.55296" lon="2.91513">
        <ele>1075.9</ele>
        <time>2021-08-25T16:44:47Z</time>
      </trkpt>
      <trkpt lat="45.55296" lon="2.91514">
        <ele>1075.9</ele>
        <time>2021-08-25T16:45:17Z</time>
      </trkpt>
      <trkpt lat="45.55296" lon="2.91514">
        <ele>1075.9</ele>
        <time>2021-08-25T16:45:19Z</time>
      </trkpt>
      <trkpt lat="45.55296" lon="2.91514">
        <ele>1075.9</ele>
        <time>2021-08-25T16:45:21Z</time>
      </trkpt>
      <trkpt lat="45.55295" lon="2.91517">
        <ele>1075.6</ele>
        <time>2021-08-25T16:45:23Z</time>
      </trkpt>
      <trkpt lat="45.55293" lon="2.91523">
        <ele>1075.1</ele>
        <time>2021-08-25T16:45:25Z</time>
      </trkpt>
      <trkpt lat="45.5529" lon="2.9153">
        <ele>1074.4</ele>
        <time>2021-08-25T16:45:27Z</time>
      </trkpt>
      <trkpt lat="45.55289" lon="2.91539">
        <ele>1073.7</ele>
        <time>2021-08-25T16:45:29Z</time>
      </trkpt>
      <trkpt lat="45.55288" lon="2.91547">
        <ele>1073.1</ele>
        <time>2021-08-25T16:45:31Z</time>
      </trkpt>
      <trkpt lat="45.55289" lon="2.91554">
        <ele>1072.7</ele>
        <time>2021-08-25T16:45:33Z</time>
      </trkpt>
      <trkpt lat="45.55289" lon="2.91559">
        <ele>1072.4</ele>
        <time>2021-08-25T16:45:35Z</time>
      </trkpt>
      <trkpt lat="45.55289" lon="2.91559">
        <ele>1072.4</ele>
        <time>2021-08-25T16:45:37Z</time>
      </trkpt>
      <trkpt lat="45.55289" lon="2.91558">
        <ele>1072.4</ele>
        <time>2021-08-25T16:45:39Z</time>
      </trkpt>
      <trkpt lat="45.55289" lon="2.91558">
        <ele>1072.4</ele>
        <time>2021-08-25T16:45:41Z</time>
      </trkpt>
      <trkpt lat="45.55289" lon="2.91558">
        <ele>1072.4</ele>
        <time>2021-08-25T16:45:43Z</time>
      </trkpt>
      <trkpt lat="45.55289" lon="2.91557">
        <ele>1072.4</ele>
        <time>2021-08-25T16:45:45Z</time>
      </trkpt>
      <trkpt lat="45.55288" lon="2.91557">
        <ele>1072.4</ele>
        <time>2021-08-25T16:45:47Z</time>
      </trkpt>
      <trkpt lat="45.55289" lon="2.9156">
        <ele>1072.3</ele>
        <time>2021-08-25T16:45:49Z</time>
      </trkpt>
      <trkpt lat="45.55289" lon="2.91566">
        <ele>1071.9</ele>
        <time>2021-08-25T16:45:51Z</time>
      </trkpt>
      <trkpt lat="45.55289" lon="2.91572">
        <ele>1071.5</ele>
        <time>2021-08-25T16:45:53Z</time>
      </trkpt>
      <trkpt lat="45.5529" lon="2.91578">
        <ele>1071.2</ele>
        <time>2021-08-25T16:45:55Z</time>
      </trkpt>
      <trkpt lat="45.5529" lon="2.91584">
        <ele>1070.7</ele>
        <time>2021-08-25T16:45:57Z</time>
      </trkpt>
      <trkpt lat="45.5529" lon="2.9159">
        <ele>1070</ele>
        <time>2021-08-25T16:45:59Z</time>
      </trkpt>
      <trkpt lat="45.55291" lon="2.91594">
        <ele>1069.6</ele>
        <time>2021-08-25T16:46:01Z</time>
      </trkpt>
      <trkpt lat="45.55291" lon="2.91593">
        <ele>1069.7</ele>
        <time>2021-08-25T16:46:03Z</time>
      </trkpt>
      <trkpt lat="45.55291" lon="2.91593">
        <ele>1069.8</ele>
        <time>2021-08-25T16:46:05Z</time>
      </trkpt>
      <trkpt lat="45.55291" lon="2.91593">
        <ele>1069.8</ele>
        <time>2021-08-25T16:46:07Z</time>
      </trkpt>
      <trkpt lat="45.55291" lon="2.91593">
        <ele>1069.7</ele>
        <time>2021-08-25T16:46:09Z</time>
      </trkpt>
    </trkseg>
      <trkpt lat="45.55288" lon="2.91616">
        <ele>1066.6</ele>
        <time>2021-08-26T07:34:10Z</time>
      </trkpt>
      <trkpt lat="45.55287" lon="2.9162">
        <ele>1066.1</ele>
        <time>2021-08-26T07:34:12Z</time>
      </trkpt>
      <trkpt lat="45.55288" lon="2.91623">
        <ele>1065.8</ele>
        <time>2021-08-26T07:34:14Z</time>
      </trkpt>
      <trkpt lat="45.55287" lon="2.91628">
        <ele>1065.1</ele>
        <time>2021-08-26T07:34:16Z</time>
      </trkpt>
      <trkpt lat="45.55287" lon="2.91633">
        <ele>1064.5</ele>
        <time>2021-08-26T07:34:18Z</time>
      </trkpt>
      <trkpt lat="45.55287" lon="2.91637">
        <ele>1064.1</ele>
        <time>2021-08-26T07:34:20Z</time>
      </trkpt>
      <trkpt lat="45.55287" lon="2.91642">
        <ele>1063.4</ele>
        <time>2021-08-26T07:34:22Z</time>
      </trkpt>
      <trkpt lat="45.55287" lon="2.91647">
        <ele>1062.9</ele>
        <time>2021-08-26T07:34:24Z</time>
      </trkpt>
      <trkpt lat="45.55288" lon="2.91649">
        <ele>1062.7</ele>
        <time>2021-08-26T07:34:26Z</time>
      </trkpt>
      <trkpt lat="45.55289" lon="2.91654">
        <ele>1062.3</ele>
        <time>2021-08-26T07:34:28Z</time>
      </trkpt>
      <trkpt lat="45.5529" lon="2.91658">
        <ele>1061.8</ele>
        <time>2021-08-26T07:34:30Z</time>
      </trkpt>
      <trkpt lat="45.5529" lon="2.91663">
        <ele>1061.4</ele>
        <time>2021-08-26T07:34:32Z</time>
      </trkpt>
      <trkpt lat="45.55291" lon="2.91666">
        <ele>1061.1</ele>
        <time>2021-08-26T07:34:34Z</time>
      </trkpt>
      <trkpt lat="45.55292" lon="2.9167">
        <ele>1060.6</ele>
        <time>2021-08-26T07:34:36Z</time>
      </trkpt>
      <trkpt lat="45.55293" lon="2.91675">
        <ele>1060.1</ele>
        <time>2021-08-26T07:34:38Z</time>
      </trkpt>
      <trkpt lat="45.55294" lon="2.9168">
        <ele>1059.5</ele>
        <time>2021-08-26T07:34:40Z</time>
      </trkpt>
      <trkpt lat="45.55294" lon="2.91683">
        <ele>1059.2</ele>
        <time>2021-08-26T07:34:42Z</time>
      </trkpt>
      <trkpt lat="45.55295" lon="2.91686">
        <ele>1059</ele>
        <time>2021-08-26T07:34:44Z</time>
      </trkpt>
      <trkpt lat="45.55296" lon="2.9169">
        <ele>1058.5</ele>
        <time>2021-08-26T07:34:46Z</time>
      </trkpt>
      <trkpt lat="45.55296" lon="2.91694">
        <ele>1058.1</ele>
        <time>2021-08-26T07:34:48Z</time>
      </trkpt>
      <trkpt lat="45.55297" lon="2.91698">
        <ele>1057.7</ele>
        <time>2021-08-26T07:34:50Z</time>
      </trkpt>
      <trkpt lat="45.55298" lon="2.91702">
        <ele>1057.3</ele>
        <time>2021-08-26T07:34:52Z</time>
      </trkpt>
      <trkpt lat="45.55299" lon="2.91705">
        <ele>1057</ele>
        <time>2021-08-26T07:34:54Z</time>
      </trkpt>
      <trkpt lat="45.55299" lon="2.91709">
        <ele>1056.6</ele>
        <time>2021-08-26T07:34:56Z</time>
      </trkpt>
      <trkpt lat="45.553" lon="2.91713">
        <ele>1056.2</ele>
        <time>2021-08-26T07:34:58Z</time>
      </trkpt>
      <trkpt lat="45.553" lon="2.91718">
        <ele>1055.7</ele>
        <time>2021-08-26T07:35:00Z</time>
      </trkpt>
      <trkpt lat="45.553" lon="2.91722">
        <ele>1055.2</ele>
        <time>2021-08-26T07:35:02Z</time>
      </trkpt>
      <trkpt lat="45.55301" lon="2.91726">
        <ele>1054.8</ele>
        <time>2021-08-26T07:35:04Z</time>
      </trkpt>
      <trkpt lat="45.55301" lon="2.91727">
        <ele>1054.7</ele>
        <time>2021-08-26T07:35:06Z</time>
      </trkpt>
      <trkpt lat="45.55301" lon="2.91727">
        <ele>1054.7</ele>
        <time>2021-08-26T07:35:08Z</time>
      </trkpt>
      <trkpt lat="45.553" lon="2.91727">
        <ele>1054.6</ele>
        <time>2021-08-26T07:35:10Z</time>
      </trkpt>
      <trkpt lat="45.553" lon="2.91727">
        <ele>1054.6</ele>
        <time>2021-08-26T07:35:12Z</time>
      </trkpt>
      <trkpt lat="45.553" lon="2.91727">
        <ele>1054.6</ele>
        <time>2021-08-26T07:35:14Z</time>
      </trkpt>
      <trkpt lat="45.55261" lon="2.91706">
        <ele>1052.2</ele>
        <time>2021-08-26T07:37:16Z</time>
      </trkpt>
      <trkpt lat="45.55259" lon="2.91703">
        <ele>1052.5</ele>
        <time>2021-08-26T07:37:18Z</time>
      </trkpt>
      <trkpt lat="45.55256" lon="2.91699">
        <ele>1052.6</ele>
        <time>2021-08-26T07:37:20Z</time>
      </trkpt>
      <trkpt lat="45.55253" lon="2.91695">
        <ele>1052.9</ele>
        <time>2021-08-26T07:37:22Z</time>
      </trkpt>
      <trkpt lat="45.5525" lon="2.9169">
        <ele>1053.3</ele>
        <time>2021-08-26T07:37:24Z</time>
      </trkpt>
      <trkpt lat="45.55247" lon="2.91685">
        <ele>1053.1</ele>
        <time>2021-08-26T07:37:26Z</time>
      </trkpt>
      <trkpt lat="45.55243" lon="2.9168">
        <ele>1052.8</ele>
        <time>2021-08-26T07:37:28Z</time>
      </trkpt>
      <trkpt lat="45.5524" lon="2.91675">
        <ele>1052.7</ele>
        <time>2021-08-26T07:37:30Z</time>
      </trkpt>
      <trkpt lat="45.55238" lon="2.9167">
        <ele>1052.5</ele>
        <time>2021-08-26T07:37:32Z</time>
      </trkpt>
      <trkpt lat="45.55235" lon="2.91665">
        <ele>1052.2</ele>
        <time>2021-08-26T07:37:34Z</time>
      </trkpt>
      <trkpt lat="45.55231" lon="2.91658">
        <ele>1051.8</ele>
        <time>2021-08-26T07:37:36Z</time>
      </trkpt>
      <trkpt lat="45.55227" lon="2.91653">
        <ele>1051.1</ele>
        <time>2021-08-26T07:37:38Z</time>
      </trkpt>
      <trkpt lat="45.55224" lon="2.9165">
        <ele>1050.7</ele>
        <time>2021-08-26T07:37:40Z</time>
      </trkpt>
      <trkpt lat="45.55221" lon="2.91647">
        <ele>1050</ele>
        <time>2021-08-26T07:37:42Z</time>
      </trkpt>
      <trkpt lat="45.55219" lon="2.91643">
        <ele>1049.8</ele>
        <time>2021-08-26T07:37:44Z</time>
      </trkpt>
      <trkpt lat="45.55217" lon="2.9164">
        <ele>1049.5</ele>
        <time>2021-08-26T07:37:46Z</time>
      </trkpt>
      <trkpt lat="45.55213" lon="2.9164">
        <ele>1048.2</ele>
        <time>2021-08-26T07:37:48Z</time>
      </trkpt>
      <trkpt lat="45.55209" lon="2.91644">
        <ele>1046.6</ele>
        <time>2021-08-26T07:37:50Z</time>
      </trkpt>
      <trkpt lat="45.55208" lon="2.91651">
        <ele>1045.5</ele>
        <time>2021-08-26T07:37:52Z</time>
      </trkpt>
      <trkpt lat="45.55209" lon="2.91656">
        <ele>1045.1</ele>
        <time>2021-08-26T07:37:54Z</time>
      </trkpt>
      <trkpt lat="45.55211" lon="2.91659">
        <ele>1045.3</ele>
        <time>2021-08-26T07:37:56Z</time>
      </trkpt>
      <trkpt lat="45.55213" lon="2.91664">
        <ele>1045.3</ele>
        <time>2021-08-26T07:37:58Z</time>
      </trkpt>
      <trkpt lat="45.55213" lon="2.91668">
        <ele>1044.8</ele>
        <time>2021-08-26T07:38:00Z</time>
      </trkpt>
      <trkpt lat="45.55212" lon="2.91672">
        <ele>1043.9</ele>
        <time>2021-08-26T07:38:02Z</time>
      </trkpt>
      <trkpt lat="45.55209" lon="2.91673">
        <ele>1042.7</ele>
        <time>2021-08-26T07:38:04Z</time>
      </trkpt>
      <trkpt lat="45.55205" lon="2.91673">
        <ele>1041.4</ele>
        <time>2021-08-26T07:38:06Z</time>
      </trkpt>
      <trkpt lat="45.552" lon="2.9167">
        <ele>1040.4</ele>
        <time>2021-08-26T07:38:08Z</time>
      </trkpt>
      <trkpt lat="45.55198" lon="2.91666">
        <ele>1040.1</ele>
        <time>2021-08-26T07:38:10Z</time>
      </trkpt>
      <trkpt lat="45.55195" lon="2.91661">
        <ele>1039.8</ele>
        <time>2021-08-26T07:38:12Z</time>
      </trkpt>
      <trkpt lat="45.55193" lon="2.91657">
        <ele>1039.7</ele>
        <time>2021-08-26T07:38:14Z</time>
      </trkpt>
      <trkpt lat="45.55192" lon="2.91655">
        <ele>1039.8</ele>
        <time>2021-08-26T07:38:16Z</time>
      </trkpt>
      <trkpt lat="45.55192" lon="2.91656">
        <ele>1039.7</ele>
        <time>2021-08-26T07:38:18Z</time>
      </trkpt>
      <trkpt lat="45.55192" lon="2.91657">
        <ele>1039.7</ele>
        <time>2021-08-26T07:38:20Z</time>
      </trkpt>
      <trkpt lat="45.55193" lon="2.91657">
        <ele>1039.7</ele>
        <time>2021-08-26T07:38:22Z</time>
      </trkpt>
      <trkpt lat="45.55192" lon="2.91657">
        <ele>1039.7</ele>
        <time>2021-08-26T07:38:24Z</time>
      </trkpt>
      <trkpt lat="45.55243" lon="2.91675">
        <ele>1053.4</ele>
        <time>2021-08-26T07:41:26Z</time>
      </trkpt>
      <trkpt lat="45.55244" lon="2.91677">
        <ele>1053.5</ele>
        <time>2021-08-26T07:41:28Z</time>
      </trkpt>
      <trkpt lat="45.55246" lon="2.9168">
        <ele>1053.6</ele>
        <time>2021-08-26T07:41:30Z</time>
      </trkpt>
      <trkpt lat="45.55247" lon="2.91681">
        <ele>1053.9</ele>
        <time>2021-08-26T07:41:32Z</time>
      </trkpt>
      <trkpt lat="45.55249" lon="2.91684">
        <ele>1054</ele>
        <time>2021-08-26T07:41:34Z</time>
      </trkpt>
      <trkpt lat="45.55251" lon="2.91686">
        <ele>1054.1</ele>
        <time>2021-08-26T07:41:36Z</time>
      </trkpt>
      <trkpt lat="45.55252" lon="2.91688">
        <ele>1053.9</ele>
        <time>2021-08-26T07:41:38Z</time>
      </trkpt>
      <trkpt lat="45.55254" lon="2.91691">
        <ele>1053.6</ele>
        <time>2021-08-26T07:41:40Z</time>
      </trkpt>
      <trkpt lat="45.55255" lon="2.91694">
        <ele>1053.4</ele>
        <time>2021-08-26T07:41:42Z</time>
      </trkpt>
      <trkpt lat="45.55256" lon="2.91696">
        <ele>1053.2</ele>
        <time>2021-08-26T07:41:44Z</time>
      </trkpt>
      <trkpt lat="45.55258" lon="2.91698">
        <ele>1053</ele>
        <time>2021-08-26T07:41:46Z</time>
      </trkpt>
      <trkpt lat="45.55259" lon="2.917">
        <ele>1052.9</ele>
        <time>2021-08-26T07:41:48Z</time>
      </trkpt>
      <trkpt lat="45.5526" lon="2.91702">
        <ele>1052.8</ele>
        <time>2021-08-26T07:41:50Z</time>
      </trkpt>
      <trkpt lat="45.55262" lon="2.91703">
        <ele>1052.7</ele>
        <time>2021-08-26T07:41:52Z</time>
      </trkpt>
      <trkpt lat="45.55263" lon="2.91705">
        <ele>1052.6</ele>
        <time>2021-08-26T07:41:54Z</time>
      </trkpt>
      <trkpt lat="45.55264" lon="2.91707">
        <ele>1052.5</ele>
        <time>2021-08-26T07:41:56Z</time>
      </trkpt>
      <trkpt lat="45.55266" lon="2.91709">
        <ele>1052.4</ele>
        <time>2021-08-26T07:41:58Z</time>
      </trkpt>
      <trkpt lat="45.55267" lon="2.91711">
        <ele>1052.2</ele>
        <time>2021-08-26T07:42:00Z</time>
      </trkpt>
      <trkpt lat="45.55269" lon="2.91713">
        <ele>1052.2</ele>
        <time>2021-08-26T07:42:02Z</time>
      </trkpt>
      <trkpt lat="45.55271" lon="2.91715">
        <ele>1052.1</ele>
        <time>2021-08-26T07:42:04Z</time>
      </trkpt>
      <trkpt lat="45.55272" lon="2.91717">
        <ele>1052</ele>
        <time>2021-08-26T07:42:06Z</time>
      </trkpt>
      <trkpt lat="45.55273" lon="2.9172">
        <ele>1051.9</ele>
        <time>2021-08-26T07:42:08Z</time>
      </trkpt>
      <trkpt lat="45.55275" lon="2.91722">
        <ele>1051.8</ele>
        <time>2021-08-26T07:42:10Z</time>
      </trkpt>
      <trkpt lat="45.55276" lon="2.91724">
        <ele>1051.7</ele>
        <time>2021-08-26T07:42:12Z</time>
      </trkpt>
      <trkpt lat="45.55278" lon="2.91726">
        <ele>1051.7</ele>
        <time>2021-08-26T07:42:14Z</time>
      </trkpt>
      <trkpt lat="45.55278" lon="2.91726">
        <ele>1051.7</ele>
        <time>2021-08-26T07:42:16Z</time>
      </trkpt>
      <trkpt lat="45.55279" lon="2.91726">
        <ele>1051.7</ele>
        <time>2021-08-26T07:42:18Z</time>
      </trkpt>
      <trkpt lat="45.55278" lon="2.91726">
        <ele>1051.7</ele>
        <time>2021-08-26T07:42:20Z</time>
      </trkpt>
      <trkpt lat="45.5528" lon="2.91727">
        <ele>1051.7</ele>
        <time>2021-08-26T07:42:22Z</time>
      </trkpt>
      <trkpt lat="45.55302" lon="2.91746">
        <ele>1052.6</ele>
        <time>2021-08-26T07:44:20Z</time>
      </trkpt>
      <trkpt lat="45.55301" lon="2.91751">
        <ele>1051.9</ele>
        <time>2021-08-26T07:44:22Z</time>
      </trkpt>
      <trkpt lat="45.55301" lon="2.91756">
        <ele>1051.2</ele>
        <time>2021-08-26T07:44:24Z</time>
      </trkpt>
      <trkpt lat="45.55302" lon="2.91761">
        <ele>1050.7</ele>
        <time>2021-08-26T07:44:26Z</time>
      </trkpt>
      <trkpt lat="45.55304" lon="2.91766">
        <ele>1050.4</ele>
        <time>2021-08-26T07:44:28Z</time>
      </trkpt>
      <trkpt lat="45.55304" lon="2.91769">
        <ele>1050</ele>
        <time>2021-08-26T07:44:30Z</time>
      </trkpt>
      <trkpt lat="45.55303" lon="2.91771">
        <ele>1049.5</ele>
        <time>2021-08-26T07:44:32Z</time>
      </trkpt>
      <trkpt lat="45.55302" lon="2.91776">
        <ele>1048.8</ele>
        <time>2021-08-26T07:44:34Z</time>
      </trkpt>
      <trkpt lat="45.55302" lon="2.91781">
        <ele>1048.2</ele>
        <time>2021-08-26T07:44:36Z</time>
      </trkpt>
      <trkpt lat="45.55303" lon="2.91787">
        <ele>1047.5</ele>
        <time>2021-08-26T07:44:38Z</time>
      </trkpt>
      <trkpt lat="45.55302" lon="2.91792">
        <ele>1046.8</ele>
        <time>2021-08-26T07:44:40Z</time>
      </trkpt>
      <trkpt lat="45.55303" lon="2.91797">
        <ele>1046.3</ele>
        <time>2021-08-26T07:44:42Z</time>
      </trkpt>
      <trkpt lat="45.55304" lon="2.91804">
        <ele>1045.7</ele>
        <time>2021-08-26T07:44:44Z</time>
      </trkpt>
      <trkpt lat="45.55305" lon="2.91807">
        <ele>1045.5</ele>
        <time>2021-08-26T07:44:46Z</time>
      </trkpt>
      <trkpt lat="45.55306" lon="2.91812">
        <ele>1045.1</ele>
        <time>2021-08-26T07:44:48Z</time>
      </trkpt>
      <trkpt lat="45.55307" lon="2.91817">
        <ele>1044.7</ele>
        <time>2021-08-26T07:44:50Z</time>
      </trkpt>
      <trkpt lat="45.55308" lon="2.91822">
        <ele>1044.3</ele>
        <time>2021-08-26T07:44:52Z</time>
      </trkpt>
      <trkpt lat="45.55309" lon="2.91826">
        <ele>1044</ele>
        <time>2021-08-26T07:44:54Z</time>
      </trkpt>
      <trkpt lat="45.55309" lon="2.9183">
        <ele>1043.5</ele>
        <time>2021-08-26T07:44:56Z</time>
      </trkpt>
      <trkpt lat="45.55309" lon="2.91833">
        <ele>1043.2</ele>
        <time>2021-08-26T07:44:58Z</time>
      </trkpt>
      <trkpt lat="45.5531" lon="2.91836">
        <ele>1043</ele>
        <time>2021-08-26T07:45:00Z</time>
      </trkpt>
      <trkpt lat="45.5531" lon="2.91841">
        <ele>1042.4</ele>
        <time>2021-08-26T07:45:02Z</time>
      </trkpt>
      <trkpt lat="45.55309" lon="2.91847">
        <ele>1041.7</ele>
        <time>2021-08-26T07:45:04Z</time>
      </trkpt>
      <trkpt lat="45.5531" lon="2.91852">
        <ele>1041.1</ele>
        <time>2021-08-26T07:45:06Z</time>
      </trkpt>
      <trkpt lat="45.5531" lon="2.91858">
        <ele>1040.6</ele>
        <time>2021-08-26T07:45:08Z</time>
      </trkpt>
      <trkpt lat="45.55311" lon="2.91866">
        <ele>1039.9</ele>
        <time>2021-08-26T07:45:10Z</time>
      </trkpt>
      <trkpt lat="45.55312" lon="2.9187">
        <ele>1039.6</ele>
        <time>2021-08-26T07:45:12Z</time>
      </trkpt>
      <trkpt lat="45.55313" lon="2.91873">
        <ele>1039.4</ele>
        <time>2021-08-26T07:45:14Z</time>
      </trkpt>
      <trkpt lat="45.55313" lon="2.91877">
        <ele>1039</ele>
        <time>2021-08-26T07:45:16Z</time>
      </trkpt>
      <trkpt lat="45.55313" lon="2.91881">
        <ele>1038.6</ele>
        <time>2021-08-26T07:45:18Z</time>
      </trkpt>
      <trkpt lat="45.55314" lon="2.91885">
        <ele>1038.3</ele>
        <time>2021-08-26T07:45:20Z</time>
      </trkpt>
      <trkpt lat="45.55314" lon="2.9189">
        <ele>1037.7</ele>
        <time>2021-08-26T07:45:22Z</time>
      </trkpt>
      <trkpt lat="45.55315" lon="2.91896">
        <ele>1037.3</ele>
        <time>2021-08-26T07:45:24Z</time>
      </trkpt>
      <trkpt lat="45.55318" lon="2.91901">
        <ele>1037.8</ele>
        <time>2021-08-26T07:45:26Z</time>
      </trkpt>
      <trkpt lat="45.55321" lon="2.91905">
        <ele>1038.2</ele>
        <time>2021-08-26T07:45:28Z</time>
      </trkpt>
      <trkpt lat="45.55323" lon="2.91908">
        <ele>1038.7</ele>
        <time>2021-08-26T07:45:30Z</time>
      </trkpt>
      <trkpt lat="45.55325" lon="2.91912">
        <ele>1038.7</ele>
        <time>2021-08-26T07:45:32Z</time>
      </trkpt>
      <trkpt lat="45.55324" lon="2.91911">
        <ele>1038.6</ele>
        <time>2021-08-26T07:45:34Z</time>
      </trkpt>
      <trkpt lat="45.55324" lon="2.91911">
        <ele>1038.6</ele>
        <time>2021-08-26T07:45:36Z</time>
      </trkpt>
      <trkpt lat="45.55324" lon="2.91911">
        <ele>1038.7</ele>
        <time>2021-08-26T07:45:38Z</time>
      </trkpt>
      <trkpt lat="45.55324" lon="2.91911">
        <ele>1038.7</ele>
        <time>2021-08-26T07:45:40Z</time>
      </trkpt>
      <trkpt lat="45.55325" lon="2.91911">
        <ele>1038.8</ele>
        <time>2021-08-26T07:45:42Z</time>
      </trkpt>
      <trkpt lat="45.55325" lon="2.91911">
        <ele>1038.8</ele>
        <time>2021-08-26T07:45:44Z</time>
      </trkpt>
      <trkpt lat="45.55324" lon="2.9191">
        <ele>1038.7</ele>
        <time>2021-08-26T07:45:46Z</time>
      </trkpt>
      <trkpt lat="45.55324" lon="2.91911">
        <ele>1038.5</ele>
        <time>2021-08-26T07:45:48Z</time>
      </trkpt>
      <trkpt lat="45.55324" lon="2.91911">
        <ele>1038.5</ele>
        <time>2021-08-26T07:45:50Z</time>
      </trkpt>
      <trkpt lat="45.55324" lon="2.91911">
        <ele>1038.5</ele>
        <time>2021-08-26T07:45:52Z</time>
      </trkpt>
      <trkpt lat="45.55324" lon="2.91911">
        <ele>1038.4</ele>
        <time>2021-08-26T07:45:54Z</time>
      </trkpt>
      <trkpt lat="45.55324" lon="2.91911">
        <ele>1038.5</ele>
        <time>2021-08-26T07:45:56Z</time>
      </trkpt>
      <trkpt lat="45.55324" lon="2.91911">
        <ele>1038.5</ele>
        <time>2021-08-26T07:45:58Z</time>
      </trkpt>
      <trkpt lat="45.55323" lon="2.91911">
        <ele>1038.4</ele>
        <time>2021-08-26T07:46:00Z</time>
      </trkpt>
      <trkpt lat="45.55323" lon="2.91911">
        <ele>1038.4</ele>
        <time>2021-08-26T07:46:02Z</time>
      </trkpt>
      <trkpt lat="45.55324" lon="2.91911">
        <ele>1038.4</ele>
        <time>2021-08-26T07:46:04Z</time>
      </trkpt>
      <trkpt lat="45.55324" lon="2.91911">
        <ele>1038.5</ele>
        <time>2021-08-26T07:46:06Z</time>
      </trkpt>
      <trkpt lat="45.55324" lon="2.91911">
        <ele>1038.5</ele>
        <time>2021-08-26T07:46:08Z</time>
      </trkpt>
      <trkpt lat="45.55324" lon="2.91911">
        <ele>1038.5</ele>
        <time>2021-08-26T07:46:10Z</time>
      </trkpt>
      <trkpt lat="45.55324" lon="2.91911">
        <ele>1038.5</ele>
        <time>2021-08-26T07:46:12Z</time>
      </trkpt>
      <trkpt lat="45.55324" lon="2.91911">
        <ele>1038.5</ele>
        <time>2021-08-26T07:46:14Z</time>
      </trkpt>
      <trkpt lat="45.55324" lon="2.91912">
        <ele>1038.5</ele>
        <time>2021-08-26T07:46:16Z</time>
      </trkpt>
      <trkpt lat="45.55324" lon="2.91912">
        <ele>1038.6</ele>
        <time>2021-08-26T07:46:18Z</time>
      </trkpt>
      <trkpt lat="45.55324" lon="2.91912">
        <ele>1038.6</ele>
        <time>2021-08-26T07:46:20Z</time>
      </trkpt>
      <trkpt lat="45.55324" lon="2.91912">
        <ele>1038.6</ele>
        <time>2021-08-26T07:46:22Z</time>
      </trkpt>
      <trkpt lat="45.55325" lon="2.91912">
        <ele>1038.7</ele>
        <time>2021-08-26T07:46:24Z</time>
      </trkpt>
      <trkpt lat="45.55325" lon="2.91912">
        <ele>1038.7</ele>
        <time>2021-08-26T07:46:26Z</time>
      </trkpt>
      <trkpt lat="45.55325" lon="2.91912">
        <ele>1038.8</ele>
        <time>2021-08-26T07:46:28Z</time>
      </trkpt>
      <trkpt lat="45.55325" lon="2.91912">
        <ele>1038.8</ele>
        <time>2021-08-26T07:46:30Z</time>
      </trkpt>
      <trkpt lat="45.55325" lon="2.91912">
        <ele>1038.9</ele>
        <time>2021-08-26T07:46:32Z</time>
      </trkpt>
      <trkpt lat="45.55325" lon="2.91912">
        <ele>1038.9</ele>
        <time>2021-08-26T07:46:34Z</time>
      </trkpt>
      <trkpt lat="45.55325" lon="2.91911">
        <ele>1039</ele>
        <time>2021-08-26T07:46:36Z</time>
      </trkpt>
      <trkpt lat="45.55326" lon="2.91911">
        <ele>1039.1</ele>
        <time>2021-08-26T07:46:38Z</time>
      </trkpt>
      <trkpt lat="45.55325" lon="2.91911">
        <ele>1039</ele>
        <time>2021-08-26T07:46:40Z</time>
      </trkpt>
      <trkpt lat="45.55325" lon="2.91911">
        <ele>1039</ele>
        <time>2021-08-26T07:46:44Z</time>
      </trkpt>
      <trkpt lat="45.55325" lon="2.91911">
        <ele>1039</ele>
        <time>2021-08-26T07:46:48Z</time>
      </trkpt>
      <trkpt lat="45.55325" lon="2.91911">
        <ele>1039</ele>
        <time>2021-08-26T07:46:52Z</time>
      </trkpt>
      <trkpt lat="45.55325" lon="2.91911">
        <ele>1039</ele>
        <time>2021-08-26T07:46:56Z</time>
      </trkpt>
      <trkpt lat="45.55325" lon="2.91911">
        <ele>1039</ele>
        <time>2021-08-26T07:47:00Z</time>
      </trkpt>
      <trkpt lat="45.55325" lon="2.91911">
        <ele>1039</ele>
        <time>2021-08-26T07:47:04Z</time>
      </trkpt>
      <trkpt lat="45.55326" lon="2.91912">
        <ele>1039</ele>
        <time>2021-08-26T07:47:06Z</time>
      </trkpt>
      <trkpt lat="45.55326" lon="2.91913">
        <ele>1039</ele>
        <time>2021-08-26T07:47:08Z</time>
      </trkpt>
      <trkpt lat="45.55327" lon="2.91914">
        <ele>1039.1</ele>
        <time>2021-08-26T07:47:10Z</time>
      </trkpt>
      <trkpt lat="45.55326" lon="2.91914">
        <ele>1039</ele>
        <time>2021-08-26T07:47:12Z</time>
      </trkpt>
      <trkpt lat="45.55327" lon="2.91915">
        <ele>1039</ele>
        <time>2021-08-26T07:47:14Z</time>
      </trkpt>
      <trkpt lat="45.55327" lon="2.91915">
        <ele>1039.1</ele>
        <time>2021-08-26T07:47:16Z</time>
      </trkpt>
      <trkpt lat="45.55327" lon="2.91916">
        <ele>1039.1</ele>
        <time>2021-08-26T07:47:18Z</time>
      </trkpt>
      <trkpt lat="45.55327" lon="2.91916">
        <ele>1039.1</ele>
        <time>2021-08-26T07:47:20Z</time>
      </trkpt>
      <trkpt lat="45.55328" lon="2.91916">
        <ele>1039.2</ele>
        <time>2021-08-26T07:47:22Z</time>
      </trkpt>
      <trkpt lat="45.55328" lon="2.91916">
        <ele>1039.2</ele>
        <time>2021-08-26T07:47:24Z</time>
      </trkpt>
      <trkpt lat="45.55328" lon="2.91918">
        <ele>1039</ele>
        <time>2021-08-26T07:47:26Z</time>
      </trkpt>
      <trkpt lat="45.55329" lon="2.9192">
        <ele>1038.5</ele>
        <time>2021-08-26T07:47:28Z</time>
      </trkpt>
      <trkpt lat="45.55329" lon="2.91923">
        <ele>1037.9</ele>
        <time>2021-08-26T07:47:30Z</time>
      </trkpt>
      <trkpt lat="45.55329" lon="2.91925">
        <ele>1037.2</ele>
        <time>2021-08-26T07:47:32Z</time>
      </trkpt>
      <trkpt lat="45.55328" lon="2.91927">
        <ele>1036.7</ele>
        <time>2021-08-26T07:47:34Z</time>
      </trkpt>
      <trkpt lat="45.55328" lon="2.91928">
        <ele>1036.3</ele>
        <time>2021-08-26T07:47:36Z</time>
      </trkpt>
      <trkpt lat="45.55327" lon="2.91929">
        <ele>1035.8</ele>
        <time>2021-08-26T07:47:38Z</time>
      </trkpt>
      <trkpt lat="45.55326" lon="2.91929">
        <ele>1035.2</ele>
        <time>2021-08-26T07:47:40Z</time>
      </trkpt>
      <trkpt lat="45.55324" lon="2.91929">
        <ele>1034.4</ele>
        <time>2021-08-26T07:47:42Z</time>
      </trkpt>
      <trkpt lat="45.55322" lon="2.91929">
        <ele>1034</ele>
        <time>2021-08-26T07:47:44Z</time>
      </trkpt>
      <trkpt lat="45.5532" lon="2.91928">
        <ele>1033.6</ele>
        <time>2021-08-26T07:47:46Z</time>
      </trkpt>
      <trkpt lat="45.5532" lon="2.91929">
        <ele>1033.6</ele>
        <time>2021-08-26T07:47:48Z</time>
      </trkpt>
      <trkpt lat="45.55321" lon="2.91929">
        <ele>1033.6</ele>
        <time>2021-08-26T07:47:50Z</time>
      </trkpt>
      <trkpt lat="45.55321" lon="2.91929">
        <ele>1033.7</ele>
        <time>2021-08-26T07:47:52Z</time>
      </trkpt>
      <trkpt lat="45.5532" lon="2.91929">
        <ele>1033.5</ele>
        <time>2021-08-26T07:47:54Z</time>
      </trkpt>
      <trkpt lat="45.5532" lon="2.9193">
        <ele>1033.3</ele>
        <time>2021-08-26T07:47:56Z</time>
      </trkpt>
      <trkpt lat="45.5532" lon="2.9193">
        <ele>1033</ele>
        <time>2021-08-26T07:47:58Z</time>
      </trkpt>
      <trkpt lat="45.5532" lon="2.9193">
        <ele>1033</ele>
        <time>2021-08-26T07:48:00Z</time>
      </trkpt>
      <trkpt lat="45.5532" lon="2.9193">
        <ele>1033.1</ele>
        <time>2021-08-26T07:48:02Z</time>
      </trkpt>
      <trkpt lat="45.5532" lon="2.9193">
        <ele>1033.1</ele>
        <time>2021-08-26T07:48:04Z</time>
      </trkpt>
      <trkpt lat="45.55319" lon="2.9193">
        <ele>1033</ele>
        <time>2021-08-26T07:48:06Z</time>
      </trkpt>
      <trkpt lat="45.55319" lon="2.9193">
        <ele>1032.9</ele>
        <time>2021-08-26T07:48:08Z</time>
      </trkpt>
      <trkpt lat="45.55318" lon="2.91929">
        <ele>1032.7</ele>
        <time>2021-08-26T07:48:10Z</time>
      </trkpt>
      <trkpt lat="45.55316" lon="2.91927">
        <ele>1032.6</ele>
        <time>2021-08-26T07:48:12Z</time>
      </trkpt>
      <trkpt lat="45.55315" lon="2.91926">
        <ele>1032.5</ele>
        <time>2021-08-26T07:48:14Z</time>
      </trkpt>
      <trkpt lat="45.55314" lon="2.91926">
        <ele>1032.3</ele>
        <time>2021-08-26T07:48:16Z</time>
      </trkpt>
      <trkpt lat="45.55314" lon="2.91925">
        <ele>1032.4</ele>
        <time>2021-08-26T07:48:18Z</time>
      </trkpt>
      <trkpt lat="45.55314" lon="2.91925">
        <ele>1032.4</ele>
        <time>2021-08-26T07:48:20Z</time>
      </trkpt>
      <trkpt lat="45.55314" lon="2.91925">
        <ele>1032.5</ele>
        <time>2021-08-26T07:48:22Z</time>
      </trkpt>
      <trkpt lat="45.55314" lon="2.91925">
        <ele>1032.5</ele>
        <time>2021-08-26T07:48:24Z</time>
      </trkpt>
      <trkpt lat="45.55314" lon="2.91925">
        <ele>1032.4</ele>
        <time>2021-08-26T07:48:26Z</time>
      </trkpt>
      <trkpt lat="45.55314" lon="2.91925">
        <ele>1032.6</ele>
        <time>2021-08-26T07:48:28Z</time>
      </trkpt>
      <trkpt lat="45.55314" lon="2.91924">
        <ele>1032.7</ele>
        <time>2021-08-26T07:48:30Z</time>
      </trkpt>
      <trkpt lat="45.55314" lon="2.91924">
        <ele>1032.8</ele>
        <time>2021-08-26T07:48:32Z</time>
      </trkpt>
      <trkpt lat="45.55314" lon="2.91923">
        <ele>1033</ele>
        <time>2021-08-26T07:48:34Z</time>
      </trkpt>
      <trkpt lat="45.55314" lon="2.91923">
        <ele>1033</ele>
        <time>2021-08-26T07:48:36Z</time>
      </trkpt>
      <trkpt lat="45.55314" lon="2.91923">
        <ele>1033.1</ele>
        <time>2021-08-26T07:48:38Z</time>
      </trkpt>
      <trkpt lat="45.55314" lon="2.91922">
        <ele>1033.2</ele>
        <time>2021-08-26T07:48:42Z</time>
      </trkpt>
      <trkpt lat="45.55314" lon="2.91922">
        <ele>1033.3</ele>
        <time>2021-08-26T07:48:44Z</time>
      </trkpt>
      <trkpt lat="45.55314" lon="2.91922">
        <ele>1033.3</ele>
        <time>2021-08-26T07:48:46Z</time>
      </trkpt>
      <trkpt lat="45.55314" lon="2.91922">
        <ele>1033.4</ele>
        <time>2021-08-26T07:48:48Z</time>
      </trkpt>
      <trkpt lat="45.55315" lon="2.91922">
        <ele>1033.6</ele>
        <time>2021-08-26T07:48:50Z</time>
      </trkpt>
      <trkpt lat="45.55315" lon="2.91922">
        <ele>1033.6</ele>
        <time>2021-08-26T07:48:52Z</time>
      </trkpt>
      <trkpt lat="45.55315" lon="2.91923">
        <ele>1033.5</ele>
        <time>2021-08-26T07:48:54Z</time>
      </trkpt>
      <trkpt lat="45.55316" lon="2.91924">
        <ele>1033.4</ele>
        <time>2021-08-26T07:48:56Z</time>
      </trkpt>
      <trkpt lat="45.55317" lon="2.91925">
        <ele>1033.3</ele>
        <time>2021-08-26T07:48:58Z</time>
      </trkpt>
      <trkpt lat="45.55317" lon="2.91926">
        <ele>1033.2</ele>
        <time>2021-08-26T07:49:00Z</time>
      </trkpt>
      <trkpt lat="45.55316" lon="2.91925">
        <ele>1033</ele>
        <time>2021-08-26T07:49:02Z</time>
      </trkpt>
      <trkpt lat="45.55314" lon="2.91925">
        <ele>1032.7</ele>
        <time>2021-08-26T07:49:04Z</time>
      </trkpt>
      <trkpt lat="45.55313" lon="2.91924">
        <ele>1032.5</ele>
        <time>2021-08-26T07:49:06Z</time>
      </trkpt>
      <trkpt lat="45.55313" lon="2.91923">
        <ele>1032.7</ele>
        <time>2021-08-26T07:49:08Z</time>
      </trkpt>
      <trkpt lat="45.55313" lon="2.91922">
        <ele>1032.9</ele>
        <time>2021-08-26T07:49:10Z</time>
      </trkpt>
      <trkpt lat="45.55312" lon="2.91921">
        <ele>1033.1</ele>
        <time>2021-08-26T07:49:12Z</time>
      </trkpt>
      <trkpt lat="45.55312" lon="2.9192">
        <ele>1033.3</ele>
        <time>2021-08-26T07:49:14Z</time>
      </trkpt>
      <trkpt lat="45.55311" lon="2.91918">
        <ele>1033.6</ele>
        <time>2021-08-26T07:49:16Z</time>
      </trkpt>
      <trkpt lat="45.55311" lon="2.91918">
        <ele>1033.4</ele>
        <time>2021-08-26T07:49:18Z</time>
      </trkpt>
      <trkpt lat="45.55311" lon="2.91918">
        <ele>1033.3</ele>
        <time>2021-08-26T07:49:20Z</time>
      </trkpt>
      <trkpt lat="45.5531" lon="2.91917">
        <ele>1033.5</ele>
        <time>2021-08-26T07:49:22Z</time>
      </trkpt>
      <trkpt lat="45.5531" lon="2.91917">
        <ele>1033.4</ele>
        <time>2021-08-26T07:49:24Z</time>
      </trkpt>
      <trkpt lat="45.55309" lon="2.91916">
        <ele>1033.3</ele>
        <time>2021-08-26T07:49:26Z</time>
      </trkpt>
      <trkpt lat="45.55309" lon="2.91916">
        <ele>1033.4</ele>
        <time>2021-08-26T07:49:28Z</time>
      </trkpt>
      <trkpt lat="45.55309" lon="2.91915">
        <ele>1033.4</ele>
        <time>2021-08-26T07:49:30Z</time>
      </trkpt>
      <trkpt lat="45.55309" lon="2.91915">
        <ele>1033.4</ele>
        <time>2021-08-26T07:49:32Z</time>
      </trkpt>
      <trkpt lat="45.55309" lon="2.91915">
        <ele>1033.2</ele>
        <time>2021-08-26T07:49:34Z</time>
      </trkpt>
      <trkpt lat="45.55308" lon="2.91915">
        <ele>1033.1</ele>
        <time>2021-08-26T07:49:36Z</time>
      </trkpt>
      <trkpt lat="45.55308" lon="2.91915">
        <ele>1033.1</ele>
        <time>2021-08-26T07:49:38Z</time>
      </trkpt>
      <trkpt lat="45.55308" lon="2.91915">
        <ele>1033.1</ele>
        <time>2021-08-26T07:49:42Z</time>
      </trkpt>
      <trkpt lat="45.55308" lon="2.91915">
        <ele>1033.1</ele>
        <time>2021-08-26T07:49:44Z</time>
      </trkpt>
      <trkpt lat="45.55309" lon="2.91915">
        <ele>1033.3</ele>
        <time>2021-08-26T07:49:46Z</time>
      </trkpt>
      <trkpt lat="45.55309" lon="2.91915">
        <ele>1033.3</ele>
        <time>2021-08-26T07:49:48Z</time>
      </trkpt>
      <trkpt lat="45.55309" lon="2.91915">
        <ele>1033.2</ele>
        <time>2021-08-26T07:49:50Z</time>
      </trkpt>
      <trkpt lat="45.55308" lon="2.91914">
        <ele>1033.1</ele>
        <time>2021-08-26T07:49:52Z</time>
      </trkpt>
      <trkpt lat="45.55308" lon="2.91914">
        <ele>1033.1</ele>
        <time>2021-08-26T07:49:54Z</time>
      </trkpt>
      <trkpt lat="45.55307" lon="2.91913">
        <ele>1033</ele>
        <time>2021-08-26T07:49:56Z</time>
      </trkpt>
      <trkpt lat="45.55307" lon="2.91912">
        <ele>1033</ele>
        <time>2021-08-26T07:49:58Z</time>
      </trkpt>
      <trkpt lat="45.55306" lon="2.91912">
        <ele>1032.8</ele>
        <time>2021-08-26T07:50:00Z</time>
      </trkpt>
      <trkpt lat="45.55306" lon="2.91912">
        <ele>1032.7</ele>
        <time>2021-08-26T07:50:02Z</time>
      </trkpt>
      <trkpt lat="45.55306" lon="2.91913">
        <ele>1032.6</ele>
        <time>2021-08-26T07:50:04Z</time>
      </trkpt>
      <trkpt lat="45.55305" lon="2.91913">
        <ele>1032.4</ele>
        <time>2021-08-26T07:50:06Z</time>
      </trkpt>
      <trkpt lat="45.55305" lon="2.91913">
        <ele>1032.2</ele>
        <time>2021-08-26T07:50:08Z</time>
      </trkpt>
      <trkpt lat="45.55304" lon="2.91913">
        <ele>1031.9</ele>
        <time>2021-08-26T07:50:10Z</time>
      </trkpt>
      <trkpt lat="45.55304" lon="2.91914">
        <ele>1031.7</ele>
        <time>2021-08-26T07:50:12Z</time>
      </trkpt>
      <trkpt lat="45.55304" lon="2.91914">
        <ele>1031.7</ele>
        <time>2021-08-26T07:50:14Z</time>
      </trkpt>
      <trkpt lat="45.55304" lon="2.91914">
        <ele>1031.8</ele>
        <time>2021-08-26T07:50:16Z</time>
      </trkpt>
      <trkpt lat="45.55304" lon="2.91916">
        <ele>1031.6</ele>
        <time>2021-08-26T07:50:18Z</time>
      </trkpt>
      <trkpt lat="45.55304" lon="2.91916">
        <ele>1031.6</ele>
        <time>2021-08-26T07:50:20Z</time>
      </trkpt>
      <trkpt lat="45.55304" lon="2.91916">
        <ele>1031.6</ele>
        <time>2021-08-26T07:50:22Z</time>
      </trkpt>
      <trkpt lat="45.55304" lon="2.91916">
        <ele>1031.7</ele>
        <time>2021-08-26T07:50:24Z</time>
      </trkpt>
      <trkpt lat="45.55304" lon="2.91917">
        <ele>1031.6</ele>
        <time>2021-08-26T07:50:26Z</time>
      </trkpt>
      <trkpt lat="45.55305" lon="2.91917">
        <ele>1031.5</ele>
        <time>2021-08-26T07:50:28Z</time>
      </trkpt>
      <trkpt lat="45.55305" lon="2.91917">
        <ele>1031.7</ele>
        <time>2021-08-26T07:50:30Z</time>
      </trkpt>
      <trkpt lat="45.55305" lon="2.91917">
        <ele>1031.8</ele>
        <time>2021-08-26T07:50:32Z</time>
      </trkpt>
      <trkpt lat="45.55306" lon="2.91917">
        <ele>1031.9</ele>
        <time>2021-08-26T07:50:34Z</time>
      </trkpt>
      <trkpt lat="45.55306" lon="2.91917">
        <ele>1031.9</ele>
        <time>2021-08-26T07:50:36Z</time>
      </trkpt>
      <trkpt lat="45.55306" lon="2.91917">
        <ele>1032</ele>
        <time>2021-08-26T07:50:38Z</time>
      </trkpt>
      <trkpt lat="45.55306" lon="2.91917">
        <ele>1032</ele>
        <time>2021-08-26T07:50:40Z</time>
      </trkpt>
      <trkpt lat="45.55306" lon="2.91917">
        <ele>1032</ele>
        <time>2021-08-26T07:50:42Z</time>
      </trkpt>
      <trkpt lat="45.55306" lon="2.91917">
        <ele>1032.1</ele>
        <time>2021-08-26T07:50:44Z</time>
      </trkpt>
      <trkpt lat="45.55306" lon="2.91917">
        <ele>1032.2</ele>
        <time>2021-08-26T07:50:46Z</time>
      </trkpt>
      <trkpt lat="45.55306" lon="2.91917">
        <ele>1032.3</ele>
        <time>2021-08-26T07:50:48Z</time>
      </trkpt>
      <trkpt lat="45.55307" lon="2.91917">
        <ele>1032.3</ele>
        <time>2021-08-26T07:50:50Z</time>
      </trkpt>
      <trkpt lat="45.55307" lon="2.91917">
        <ele>1032.2</ele>
        <time>2021-08-26T07:50:52Z</time>
      </trkpt>
      <trkpt lat="45.55307" lon="2.91918">
        <ele>1032</ele>
        <time>2021-08-26T07:50:54Z</time>
      </trkpt>
      <trkpt lat="45.55307" lon="2.91918">
        <ele>1031.9</ele>
        <time>2021-08-26T07:50:56Z</time>
      </trkpt>
      <trkpt lat="45.55307" lon="2.91919">
        <ele>1031.9</ele>
        <time>2021-08-26T07:50:58Z</time>
      </trkpt>
      <trkpt lat="45.55307" lon="2.91919">
        <ele>1031.8</ele>
        <time>2021-08-26T07:51:00Z</time>
      </trkpt>
      <trkpt lat="45.55307" lon="2.9192">
        <ele>1031.7</ele>
        <time>2021-08-26T07:51:02Z</time>
      </trkpt>
      <trkpt lat="45.55307" lon="2.91921">
        <ele>1031.5</ele>
        <time>2021-08-26T07:51:04Z</time>
      </trkpt>
      <trkpt lat="45.55308" lon="2.91922">
        <ele>1031.2</ele>
        <time>2021-08-26T07:51:06Z</time>
      </trkpt>
      <trkpt lat="45.55308" lon="2.91925">
        <ele>1030.9</ele>
        <time>2021-08-26T07:51:08Z</time>
      </trkpt>
      <trkpt lat="45.55309" lon="2.91927">
        <ele>1030.5</ele>
        <time>2021-08-26T07:51:10Z</time>
      </trkpt>
      <trkpt lat="45.5531" lon="2.91929">
        <ele>1030.2</ele>
        <time>2021-08-26T07:51:12Z</time>
      </trkpt>
      <trkpt lat="45.5531" lon="2.91931">
        <ele>1029.9</ele>
        <time>2021-08-26T07:51:14Z</time>
      </trkpt>
      <trkpt lat="45.55311" lon="2.91933">
        <ele>1029.6</ele>
        <time>2021-08-26T07:51:16Z</time>
      </trkpt>
      <trkpt lat="45.55312" lon="2.91935">
        <ele>1029.2</ele>
        <time>2021-08-26T07:51:18Z</time>
      </trkpt>
      <trkpt lat="45.55312" lon="2.91937">
        <ele>1028.9</ele>
        <time>2021-08-26T07:51:20Z</time>
      </trkpt>
      <trkpt lat="45.55313" lon="2.91939">
        <ele>1028.5</ele>
        <time>2021-08-26T07:51:22Z</time>
      </trkpt>
      <trkpt lat="45.55313" lon="2.91941">
        <ele>1028.3</ele>
        <time>2021-08-26T07:51:24Z</time>
      </trkpt>
      <trkpt lat="45.55314" lon="2.91943">
        <ele>1028</ele>
        <time>2021-08-26T07:51:26Z</time>
      </trkpt>
      <trkpt lat="45.55314" lon="2.91944">
        <ele>1027.8</ele>
        <time>2021-08-26T07:51:28Z</time>
      </trkpt>
      <trkpt lat="45.55314" lon="2.91944">
        <ele>1027.7</ele>
        <time>2021-08-26T07:51:30Z</time>
      </trkpt>
      <trkpt lat="45.55314" lon="2.91944">
        <ele>1027.6</ele>
        <time>2021-08-26T07:51:32Z</time>
      </trkpt>
      <trkpt lat="45.55314" lon="2.91944">
        <ele>1027.6</ele>
        <time>2021-08-26T07:51:34Z</time>
      </trkpt>
      <trkpt lat="45.55314" lon="2.91944">
        <ele>1027.6</ele>
        <time>2021-08-26T07:51:36Z</time>
      </trkpt>
      <trkpt lat="45.55313" lon="2.91944">
        <ele>1027.5</ele>
        <time>2021-08-26T07:51:38Z</time>
      </trkpt>
      <trkpt lat="45.55314" lon="2.91945">
        <ele>1027.3</ele>
        <time>2021-08-26T07:51:40Z</time>
      </trkpt>
      <trkpt lat="45.55314" lon="2.91947">
        <ele>1027.1</ele>
        <time>2021-08-26T07:51:42Z</time>
      </trkpt>
      <trkpt lat="45.55315" lon="2.91948">
        <ele>1026.9</ele>
        <time>2021-08-26T07:51:44Z</time>
      </trkpt>
      <trkpt lat="45.55315" lon="2.91948">
        <ele>1026.9</ele>
        <time>2021-08-26T07:51:46Z</time>
      </trkpt>
      <trkpt lat="45.55315" lon="2.91948">
        <ele>1027</ele>
        <time>2021-08-26T07:51:48Z</time>
      </trkpt>
      <trkpt lat="45.55316" lon="2.91948">
        <ele>1027</ele>
        <time>2021-08-26T07:51:50Z</time>
      </trkpt>
      <trkpt lat="45.55316" lon="2.91948">
        <ele>1027.1</ele>
        <time>2021-08-26T07:51:52Z</time>
      </trkpt>
      <trkpt lat="45.55316" lon="2.91949">
        <ele>1027.1</ele>
        <time>2021-08-26T07:51:54Z</time>
      </trkpt>
      <trkpt lat="45.55317" lon="2.91949">
        <ele>1027.1</ele>
        <time>2021-08-26T07:51:56Z</time>
      </trkpt>
      <trkpt lat="45.55317" lon="2.9195">
        <ele>1027</ele>
        <time>2021-08-26T07:51:58Z</time>
      </trkpt>
      <trkpt lat="45.55318" lon="2.91951">
        <ele>1026.9</ele>
        <time>2021-08-26T07:52:00Z</time>
      </trkpt>
      <trkpt lat="45.55318" lon="2.91952">
        <ele>1026.7</ele>
        <time>2021-08-26T07:52:02Z</time>
      </trkpt>
      <trkpt lat="45.55318" lon="2.91954">
        <ele>1026.3</ele>
        <time>2021-08-26T07:52:04Z</time>
      </trkpt>
      <trkpt lat="45.55318" lon="2.91955">
        <ele>1026.1</ele>
        <time>2021-08-26T07:52:06Z</time>
      </trkpt>
      <trkpt lat="45.55319" lon="2.91956">
        <ele>1025.8</ele>
        <time>2021-08-26T07:52:08Z</time>
      </trkpt>
      <trkpt lat="45.55319" lon="2.91957">
        <ele>1025.7</ele>
        <time>2021-08-26T07:52:10Z</time>
      </trkpt>
      <trkpt lat="45.55319" lon="2.91957">
        <ele>1025.6</ele>
        <time>2021-08-26T07:52:12Z</time>
      </trkpt>
      <trkpt lat="45.55319" lon="2.91957">
        <ele>1025.7</ele>
        <time>2021-08-26T07:52:14Z</time>
      </trkpt>
      <trkpt lat="45.5532" lon="2.91958">
        <ele>1025.7</ele>
        <time>2021-08-26T07:52:16Z</time>
      </trkpt>
      <trkpt lat="45.5532" lon="2.91958">
        <ele>1025.7</ele>
        <time>2021-08-26T07:52:18Z</time>
      </trkpt>
      <trkpt lat="45.5532" lon="2.91958">
        <ele>1025.7</ele>
        <time>2021-08-26T07:52:20Z</time>
      </trkpt>
      <trkpt lat="45.5532" lon="2.91959">
        <ele>1025.6</ele>
        <time>2021-08-26T07:52:22Z</time>
      </trkpt>
      <trkpt lat="45.55321" lon="2.9196">
        <ele>1025.4</ele>
        <time>2021-08-26T07:52:24Z</time>
      </trkpt>
      <trkpt lat="45.55321" lon="2.9196">
        <ele>1025.3</ele>
        <time>2021-08-26T07:52:26Z</time>
      </trkpt>
      <trkpt lat="45.55321" lon="2.91962">
        <ele>1025.1</ele>
        <time>2021-08-26T07:52:28Z</time>
      </trkpt>
      <trkpt lat="45.55322" lon="2.91964">
        <ele>1024.7</ele>
        <time>2021-08-26T07:52:30Z</time>
      </trkpt>
      <trkpt lat="45.55322" lon="2.91965">
        <ele>1024.4</ele>
        <time>2021-08-26T07:52:32Z</time>
      </trkpt>
      <trkpt lat="45.55323" lon="2.91966">
        <ele>1024.4</ele>
        <time>2021-08-26T07:52:34Z</time>
      </trkpt>
      <trkpt lat="45.55323" lon="2.91967">
        <ele>1024.3</ele>
        <time>2021-08-26T07:52:36Z</time>
      </trkpt>
      <trkpt lat="45.55324" lon="2.91968">
        <ele>1024.2</ele>
        <time>2021-08-26T07:52:38Z</time>
      </trkpt>
      <trkpt lat="45.55324" lon="2.91969">
        <ele>1024</ele>
        <time>2021-08-26T07:52:40Z</time>
      </trkpt>
      <trkpt lat="45.55325" lon="2.9197">
        <ele>1023.9</ele>
        <time>2021-08-26T07:52:42Z</time>
      </trkpt>
      <trkpt lat="45.55325" lon="2.9197">
        <ele>1023.8</ele>
        <time>2021-08-26T07:52:44Z</time>
      </trkpt>
      <trkpt lat="45.55325" lon="2.9197">
        <ele>1023.8</ele>
        <time>2021-08-26T07:52:46Z</time>
      </trkpt>
      <trkpt lat="45.55325" lon="2.91971">
        <ele>1023.7</ele>
        <time>2021-08-26T07:52:48Z</time>
      </trkpt>
      <trkpt lat="45.55325" lon="2.91972">
        <ele>1023.5</ele>
        <time>2021-08-26T07:52:50Z</time>
      </trkpt>
      <trkpt lat="45.55324" lon="2.91972">
        <ele>1023.1</ele>
        <time>2021-08-26T07:52:52Z</time>
      </trkpt>
      <trkpt lat="45.55325" lon="2.91974">
        <ele>1022.8</ele>
        <time>2021-08-26T07:52:54Z</time>
      </trkpt>
      <trkpt lat="45.55325" lon="2.91975">
        <ele>1022.7</ele>
        <time>2021-08-26T07:52:56Z</time>
      </trkpt>
      <trkpt lat="45.55325" lon="2.91975">
        <ele>1022.7</ele>
        <time>2021-08-26T07:52:58Z</time>
      </trkpt>
      <trkpt lat="45.55325" lon="2.91976">
        <ele>1022.5</ele>
        <time>2021-08-26T07:53:00Z</time>
      </trkpt>
      <trkpt lat="45.55326" lon="2.91976">
        <ele>1022.5</ele>
        <time>2021-08-26T07:53:02Z</time>
      </trkpt>
      <trkpt lat="45.55326" lon="2.91976">
        <ele>1022.5</ele>
        <time>2021-08-26T07:53:04Z</time>
      </trkpt>
      <trkpt lat="45.55326" lon="2.91976">
        <ele>1022.6</ele>
        <time>2021-08-26T07:53:08Z</time>
      </trkpt>
      <trkpt lat="45.55326" lon="2.91976">
        <ele>1022.6</ele>
        <time>2021-08-26T07:53:12Z</time>
      </trkpt>
      <trkpt lat="45.55326" lon="2.91976">
        <ele>1022.6</ele>
        <time>2021-08-26T07:53:16Z</time>
      </trkpt>
      <trkpt lat="45.55326" lon="2.91976">
        <ele>1022.6</ele>
        <time>2021-08-26T07:53:20Z</time>
      </trkpt>
      <trkpt lat="45.55326" lon="2.91976">
        <ele>1022.6</ele>
        <time>2021-08-26T07:53:24Z</time>
      </trkpt>
      <trkpt lat="45.55326" lon="2.91976">
        <ele>1022.6</ele>
        <time>2021-08-26T07:53:28Z</time>
      </trkpt>
      <trkpt lat="45.55326" lon="2.91976">
        <ele>1022.6</ele>
        <time>2021-08-26T07:53:32Z</time>
      </trkpt>
      <trkpt lat="45.55326" lon="2.91976">
        <ele>1022.6</ele>
        <time>2021-08-26T07:53:36Z</time>
      </trkpt>
      <trkpt lat="45.55326" lon="2.91976">
        <ele>1022.6</ele>
        <time>2021-08-26T07:53:40Z</time>
      </trkpt>
      <trkpt lat="45.55326" lon="2.91976">
        <ele>1022.6</ele>
        <time>2021-08-26T07:53:44Z</time>
      </trkpt>
      <trkpt lat="45.55326" lon="2.91976">
        <ele>1022.6</ele>
        <time>2021-08-26T07:53:48Z</time>
      </trkpt>
      <trkpt lat="45.55326" lon="2.91976">
        <ele>1022.5</ele>
        <time>2021-08-26T07:53:52Z</time>
      </trkpt>
      <trkpt lat="45.55325" lon="2.91976">
        <ele>1022.4</ele>
        <time>2021-08-26T07:53:54Z</time>
      </trkpt>
      <trkpt lat="45.55325" lon="2.91976">
        <ele>1022.4</ele>
        <time>2021-08-26T07:53:56Z</time>
      </trkpt>
      <trkpt lat="45.55325" lon="2.91976">
        <ele>1022.3</ele>
        <time>2021-08-26T07:53:58Z</time>
      </trkpt>
      <trkpt lat="45.55325" lon="2.91978">
        <ele>1022</ele>
        <time>2021-08-26T07:54:00Z</time>
      </trkpt>
      <trkpt lat="45.55326" lon="2.9198">
        <ele>1021.7</ele>
        <time>2021-08-26T07:54:02Z</time>
      </trkpt>
      <trkpt lat="45.55326" lon="2.91981">
        <ele>1021.3</ele>
        <time>2021-08-26T07:54:04Z</time>
      </trkpt>
      <trkpt lat="45.55327" lon="2.91983">
        <ele>1021</ele>
        <time>2021-08-26T07:54:06Z</time>
      </trkpt>
      <trkpt lat="45.55327" lon="2.91984">
        <ele>1020.7</ele>
        <time>2021-08-26T07:54:08Z</time>
      </trkpt>
      <trkpt lat="45.55328" lon="2.91985">
        <ele>1020.5</ele>
        <time>2021-08-26T07:54:10Z</time>
      </trkpt>
      <trkpt lat="45.55328" lon="2.91986">
        <ele>1020.4</ele>
        <time>2021-08-26T07:54:12Z</time>
      </trkpt>
      <trkpt lat="45.55328" lon="2.91986">
        <ele>1020.4</ele>
        <time>2021-08-26T07:54:14Z</time>
      </trkpt>
      <trkpt lat="45.55328" lon="2.91986">
        <ele>1020.4</ele>
        <time>2021-08-26T07:54:16Z</time>
      </trkpt>
      <trkpt lat="45.55328" lon="2.91987">
        <ele>1020.4</ele>
        <time>2021-08-26T07:54:18Z</time>
      </trkpt>
      <trkpt lat="45.55329" lon="2.91989">
        <ele>1020.1</ele>
        <time>2021-08-26T07:54:20Z</time>
      </trkpt>
      <trkpt lat="45.5533" lon="2.9199">
        <ele>1019.6</ele>
        <time>2021-08-26T07:54:22Z</time>
      </trkpt>
      <trkpt lat="45.5533" lon="2.91992">
        <ele>1019.4</ele>
        <time>2021-08-26T07:54:24Z</time>
      </trkpt>
      <trkpt lat="45.55331" lon="2.91994">
        <ele>1019.1</ele>
        <time>2021-08-26T07:54:26Z</time>
      </trkpt>
      <trkpt lat="45.55332" lon="2.91996">
        <ele>1018.9</ele>
        <time>2021-08-26T07:54:28Z</time>
      </trkpt>
      <trkpt lat="45.55333" lon="2.91998">
        <ele>1018.5</ele>
        <time>2021-08-26T07:54:30Z</time>
      </trkpt>
      <trkpt lat="45.55334" lon="2.92">
        <ele>1017.9</ele>
        <time>2021-08-26T07:54:32Z</time>
      </trkpt>
      <trkpt lat="45.55335" lon="2.92002">
        <ele>1017.2</ele>
        <time>2021-08-26T07:54:34Z</time>
      </trkpt>
      <trkpt lat="45.55336" lon="2.92004">
        <ele>1016.7</ele>
        <time>2021-08-26T07:54:36Z</time>
      </trkpt>
      <trkpt lat="45.55336" lon="2.92006">
        <ele>1016.3</ele>
        <time>2021-08-26T07:54:38Z</time>
      </trkpt>
      <trkpt lat="45.55337" lon="2.92007">
        <ele>1016</ele>
        <time>2021-08-26T07:54:40Z</time>
      </trkpt>
      <trkpt lat="45.55337" lon="2.92008">
        <ele>1015.6</ele>
        <time>2021-08-26T07:54:42Z</time>
      </trkpt>
      <trkpt lat="45.55338" lon="2.9201">
        <ele>1015.2</ele>
        <time>2021-08-26T07:54:44Z</time>
      </trkpt>
      <trkpt lat="45.55338" lon="2.92011">
        <ele>1014.8</ele>
        <time>2021-08-26T07:54:46Z</time>
      </trkpt>
      <trkpt lat="45.55339" lon="2.92012">
        <ele>1014.6</ele>
        <time>2021-08-26T07:54:48Z</time>
      </trkpt>
      <trkpt lat="45.55339" lon="2.92013">
        <ele>1014.3</ele>
        <time>2021-08-26T07:54:50Z</time>
      </trkpt>
      <trkpt lat="45.5534" lon="2.92013">
        <ele>1014.1</ele>
        <time>2021-08-26T07:54:52Z</time>
      </trkpt>
      <trkpt lat="45.55339" lon="2.92013">
        <ele>1014.1</ele>
        <time>2021-08-26T07:54:54Z</time>
      </trkpt>
      <trkpt lat="45.5534" lon="2.92014">
        <ele>1014</ele>
        <time>2021-08-26T07:54:56Z</time>
      </trkpt>
      <trkpt lat="45.55341" lon="2.92015">
        <ele>1013.8</ele>
        <time>2021-08-26T07:54:58Z</time>
      </trkpt>
      <trkpt lat="45.5534" lon="2.92014">
        <ele>1013.8</ele>
        <time>2021-08-26T07:55:00Z</time>
      </trkpt>
      <trkpt lat="45.55341" lon="2.92015">
        <ele>1013.7</ele>
        <time>2021-08-26T07:55:02Z</time>
      </trkpt>
      <trkpt lat="45.55341" lon="2.92015">
        <ele>1013.5</ele>
        <time>2021-08-26T07:55:04Z</time>
      </trkpt>
      <trkpt lat="45.55342" lon="2.92017">
        <ele>1013.2</ele>
        <time>2021-08-26T07:55:06Z</time>
      </trkpt>
      <trkpt lat="45.55342" lon="2.92018">
        <ele>1013</ele>
        <time>2021-08-26T07:55:08Z</time>
      </trkpt>
      <trkpt lat="45.55343" lon="2.92018">
        <ele>1012.8</ele>
        <time>2021-08-26T07:55:10Z</time>
      </trkpt>
      <trkpt lat="45.55343" lon="2.92019">
        <ele>1012.5</ele>
        <time>2021-08-26T07:55:12Z</time>
      </trkpt>
      <trkpt lat="45.55344" lon="2.92019">
        <ele>1012.5</ele>
        <time>2021-08-26T07:55:14Z</time>
      </trkpt>
      <trkpt lat="45.55344" lon="2.9202">
        <ele>1012.3</ele>
        <time>2021-08-26T07:55:16Z</time>
      </trkpt>
      <trkpt lat="45.55345" lon="2.92021">
        <ele>1012.1</ele>
        <time>2021-08-26T07:55:18Z</time>
      </trkpt>
      <trkpt lat="45.55345" lon="2.92021">
        <ele>1011.9</ele>
        <time>2021-08-26T07:55:20Z</time>
      </trkpt>
      <trkpt lat="45.55346" lon="2.92022">
        <ele>1011.8</ele>
        <time>2021-08-26T07:55:22Z</time>
      </trkpt>
      <trkpt lat="45.55347" lon="2.92022">
        <ele>1011.7</ele>
        <time>2021-08-26T07:55:24Z</time>
      </trkpt>
      <trkpt lat="45.55348" lon="2.92023">
        <ele>1011.5</ele>
        <time>2021-08-26T07:55:26Z</time>
      </trkpt>
      <trkpt lat="45.55348" lon="2.92024">
        <ele>1011.4</ele>
        <time>2021-08-26T07:55:28Z</time>
      </trkpt>
      <trkpt lat="45.55349" lon="2.92025">
        <ele>1011.1</ele>
        <time>2021-08-26T07:55:30Z</time>
      </trkpt>
      <trkpt lat="45.55349" lon="2.92025">
        <ele>1011</ele>
        <time>2021-08-26T07:55:32Z</time>
      </trkpt>
      <trkpt lat="45.55349" lon="2.92026">
        <ele>1010.8</ele>
        <time>2021-08-26T07:55:34Z</time>
      </trkpt>
      <trkpt lat="45.55349" lon="2.92026">
        <ele>1010.6</ele>
        <time>2021-08-26T07:55:36Z</time>
      </trkpt>
      <trkpt lat="45.5535" lon="2.92028">
        <ele>1010.4</ele>
        <time>2021-08-26T07:55:38Z</time>
      </trkpt>
      <trkpt lat="45.55351" lon="2.92029">
        <ele>1010.1</ele>
        <time>2021-08-26T07:55:40Z</time>
      </trkpt>
      <trkpt lat="45.55351" lon="2.92029">
        <ele>1010.1</ele>
        <time>2021-08-26T07:55:42Z</time>
      </trkpt>
      <trkpt lat="45.55351" lon="2.9203">
        <ele>1009.9</ele>
        <time>2021-08-26T07:55:44Z</time>
      </trkpt>
      <trkpt lat="45.55352" lon="2.9203">
        <ele>1009.8</ele>
        <time>2021-08-26T07:55:46Z</time>
      </trkpt>
      <trkpt lat="45.55353" lon="2.92031">
        <ele>1009.6</ele>
        <time>2021-08-26T07:55:48Z</time>
      </trkpt>
      <trkpt lat="45.55353" lon="2.92031">
        <ele>1009.5</ele>
        <time>2021-08-26T07:55:50Z</time>
      </trkpt>
      <trkpt lat="45.55354" lon="2.92032">
        <ele>1009.2</ele>
        <time>2021-08-26T07:55:52Z</time>
      </trkpt>
      <trkpt lat="45.55354" lon="2.92033">
        <ele>1009</ele>
        <time>2021-08-26T07:55:54Z</time>
      </trkpt>
      <trkpt lat="45.55356" lon="2.92036">
        <ele>1008.4</ele>
        <time>2021-08-26T07:55:56Z</time>
      </trkpt>
      <trkpt lat="45.55356" lon="2.92039">
        <ele>1007.9</ele>
        <time>2021-08-26T07:55:58Z</time>
      </trkpt>
      <trkpt lat="45.55356" lon="2.9204">
        <ele>1007.6</ele>
        <time>2021-08-26T07:56:00Z</time>
      </trkpt>
      <trkpt lat="45.55362" lon="2.92053">
        <ele>1005</ele>
        <time>2021-08-26T07:56:26Z</time>
      </trkpt>
      <trkpt lat="45.55362" lon="2.92053">
        <ele>1004.9</ele>
        <time>2021-08-26T07:56:28Z</time>
      </trkpt>
      <trkpt lat="45.55363" lon="2.92054">
        <ele>1004.8</ele>
        <time>2021-08-26T07:56:30Z</time>
      </trkpt>
      <trkpt lat="45.55365" lon="2.92055">
        <ele>1004.7</ele>
        <time>2021-08-26T07:56:32Z</time>
      </trkpt>
      <trkpt lat="45.55367" lon="2.92057">
        <ele>1004.3</ele>
        <time>2021-08-26T07:56:34Z</time>
      </trkpt>
      <trkpt lat="45.55369" lon="2.92059">
        <ele>1004.2</ele>
        <time>2021-08-26T07:56:36Z</time>
      </trkpt>
      <trkpt lat="45.55371" lon="2.92061">
        <ele>1003.9</ele>
        <time>2021-08-26T07:56:38Z</time>
      </trkpt>
      <trkpt lat="45.55374" lon="2.92064">
        <ele>1003.5</ele>
        <time>2021-08-26T07:56:40Z</time>
      </trkpt>
      <trkpt lat="45.55375" lon="2.92069">
        <ele>1002.7</ele>
        <time>2021-08-26T07:56:42Z</time>
      </trkpt>
      <trkpt lat="45.55376" lon="2.92069">
        <ele>1002.7</ele>
        <time>2021-08-26T07:56:44Z</time>
      </trkpt>
      <trkpt lat="45.55379" lon="2.92072">
        <ele>1002.5</ele>
        <time>2021-08-26T07:56:46Z</time>
      </trkpt>
      <trkpt lat="45.5538" lon="2.92073">
        <ele>1002.5</ele>
        <time>2021-08-26T07:56:48Z</time>
      </trkpt>
      <trkpt lat="45.55381" lon="2.92074">
        <ele>1002.3</ele>
        <time>2021-08-26T07:56:50Z</time>
      </trkpt>
      <trkpt lat="45.55382" lon="2.92075">
        <ele>1002.4</ele>
        <time>2021-08-26T07:56:52Z</time>
      </trkpt>
      <trkpt lat="45.55383" lon="2.92074">
        <ele>1002.4</ele>
        <time>2021-08-26T07:56:54Z</time>
      </trkpt>
      <trkpt lat="45.55413" lon="2.92093">
        <ele>1001.9</ele>
        <time>2021-08-26T07:57:26Z</time>
      </trkpt>
      <trkpt lat="45.55416" lon="2.92094">
        <ele>1002</ele>
        <time>2021-08-26T07:57:28Z</time>
      </trkpt>
      <trkpt lat="45.55422" lon="2.92096">
        <ele>999.7</ele>
        <time>2021-08-26T07:57:30Z</time>
      </trkpt>
      <trkpt lat="45.55424" lon="2.921">
        <ele>998.1</ele>
        <time>2021-08-26T07:57:32Z</time>
      </trkpt>
      <trkpt lat="45.55428" lon="2.92105">
        <ele>995.5</ele>
        <time>2021-08-26T07:57:34Z</time>
      </trkpt>
      <trkpt lat="45.55433" lon="2.92108">
        <ele>993.6</ele>
        <time>2021-08-26T07:57:36Z</time>
      </trkpt>
      <trkpt lat="45.55438" lon="2.92113">
        <ele>991.1</ele>
        <time>2021-08-26T07:57:38Z</time>
      </trkpt>
      <trkpt lat="45.55441" lon="2.92116">
        <ele>989.7</ele>
        <time>2021-08-26T07:57:40Z</time>
      </trkpt>
      <trkpt lat="45.55444" lon="2.92119">
        <ele>988.5</ele>
        <time>2021-08-26T07:57:42Z</time>
      </trkpt>
      <trkpt lat="45.55446" lon="2.92123">
        <ele>987.2</ele>
        <time>2021-08-26T07:57:44Z</time>
      </trkpt>
      <trkpt lat="45.5545" lon="2.92124">
        <ele>986.2</ele>
        <time>2021-08-26T07:57:46Z</time>
      </trkpt>
      <trkpt lat="45.55452" lon="2.92126">
        <ele>985.5</ele>
        <time>2021-08-26T07:57:48Z</time>
      </trkpt>
      <trkpt lat="45.55453" lon="2.92128">
        <ele>984.8</ele>
        <time>2021-08-26T07:57:50Z</time>
      </trkpt>
      <trkpt lat="45.55455" lon="2.92129">
        <ele>984.3</ele>
        <time>2021-08-26T07:57:52Z</time>
      </trkpt>
      <trkpt lat="45.55457" lon="2.9213">
        <ele>983.8</ele>
        <time>2021-08-26T07:57:54Z</time>
      </trkpt>
      <trkpt lat="45.55475" lon="2.92157">
        <ele>978.5</ele>
        <time>2021-08-26T07:58:18Z</time>
      </trkpt>
      <trkpt lat="45.55476" lon="2.92162">
        <ele>978.2</ele>
        <time>2021-08-26T07:58:20Z</time>
      </trkpt>
      <trkpt lat="45.55479" lon="2.92168">
        <ele>977.6</ele>
        <time>2021-08-26T07:58:22Z</time>
      </trkpt>
      <trkpt lat="45.55481" lon="2.92172">
        <ele>977</ele>
        <time>2021-08-26T07:58:24Z</time>
      </trkpt>
      <trkpt lat="45.55482" lon="2.92177">
        <ele>976.3</ele>
        <time>2021-08-26T07:58:26Z</time>
      </trkpt>
      <trkpt lat="45.55484" lon="2.92182">
        <ele>975.6</ele>
        <time>2021-08-26T07:58:28Z</time>
      </trkpt>
      <trkpt lat="45.55486" lon="2.92185">
        <ele>975.2</ele>
        <time>2021-08-26T07:58:30Z</time>
      </trkpt>
      <trkpt lat="45.55487" lon="2.92188">
        <ele>974.7</ele>
        <time>2021-08-26T07:58:32Z</time>
      </trkpt>
      <trkpt lat="45.5549" lon="2.92191">
        <ele>974.2</ele>
        <time>2021-08-26T07:58:34Z</time>
      </trkpt>
      <trkpt lat="45.55492" lon="2.92195">
        <ele>973.7</ele>
        <time>2021-08-26T07:58:36Z</time>
      </trkpt>
      <trkpt lat="45.55493" lon="2.92198">
        <ele>973.4</ele>
        <time>2021-08-26T07:58:38Z</time>
      </trkpt>
      <trkpt lat="45.55496" lon="2.92201">
        <ele>972.8</ele>
        <time>2021-08-26T07:58:40Z</time>
      </trkpt>
      <trkpt lat="45.55499" lon="2.92203">
        <ele>972.6</ele>
        <time>2021-08-26T07:58:42Z</time>
      </trkpt>
      <trkpt lat="45.55501" lon="2.92206">
        <ele>971.8</ele>
        <time>2021-08-26T07:58:44Z</time>
      </trkpt>
      <trkpt lat="45.55501" lon="2.9221">
        <ele>971.2</ele>
        <time>2021-08-26T07:58:46Z</time>
      </trkpt>
      <trkpt lat="45.55503" lon="2.92214">
        <ele>970.1</ele>
        <time>2021-08-26T07:58:48Z</time>
      </trkpt>
      <trkpt lat="45.55504" lon="2.92218">
        <ele>969.3</ele>
        <time>2021-08-26T07:58:50Z</time>
      </trkpt>
      <trkpt lat="45.55506" lon="2.9222">
        <ele>968.3</ele>
        <time>2021-08-26T07:58:52Z</time>
      </trkpt>
      <trkpt lat="45.55505" lon="2.9222">
        <ele>968.4</ele>
        <time>2021-08-26T07:58:54Z</time>
      </trkpt>
      <trkpt lat="45.55506" lon="2.9222">
        <ele>968.3</ele>
        <time>2021-08-26T07:58:56Z</time>
      </trkpt>
      <trkpt lat="45.55505" lon="2.9222">
        <ele>968.7</ele>
        <time>2021-08-26T07:58:58Z</time>
      </trkpt>
      <trkpt lat="45.55505" lon="2.9222">
        <ele>968.6</ele>
        <time>2021-08-26T07:59:00Z</time>
      </trkpt>
      <trkpt lat="45.55505" lon="2.92221">
        <ele>968.5</ele>
        <time>2021-08-26T07:59:02Z</time>
      </trkpt>
      <trkpt lat="45.55506" lon="2.92222">
        <ele>967.9</ele>
        <time>2021-08-26T07:59:04Z</time>
      </trkpt>
      <trkpt lat="45.55507" lon="2.92223">
        <ele>967.5</ele>
        <time>2021-08-26T07:59:06Z</time>
      </trkpt>
      <trkpt lat="45.55508" lon="2.92225">
        <ele>967</ele>
        <time>2021-08-26T07:59:08Z</time>
      </trkpt>
      <trkpt lat="45.55508" lon="2.92226">
        <ele>966.7</ele>
        <time>2021-08-26T07:59:10Z</time>
      </trkpt>
      <trkpt lat="45.55508" lon="2.92226">
        <ele>967</ele>
        <time>2021-08-26T07:59:12Z</time>
      </trkpt>
      <trkpt lat="45.55508" lon="2.92225">
        <ele>967</ele>
        <time>2021-08-26T07:59:14Z</time>
      </trkpt>
      <trkpt lat="45.55507" lon="2.92225">
        <ele>967.1</ele>
        <time>2021-08-26T07:59:16Z</time>
      </trkpt>
      <trkpt lat="45.55508" lon="2.92225">
        <ele>966.9</ele>
        <time>2021-08-26T07:59:18Z</time>
      </trkpt>
      <trkpt lat="45.55508" lon="2.92225">
        <ele>966.8</ele>
        <time>2021-08-26T07:59:20Z</time>
      </trkpt>
      <trkpt lat="45.55508" lon="2.92225">
        <ele>966.6</ele>
        <time>2021-08-26T07:59:22Z</time>
      </trkpt>
      <trkpt lat="45.55509" lon="2.92226">
        <ele>966.2</ele>
        <time>2021-08-26T07:59:24Z</time>
      </trkpt>
      <trkpt lat="45.55509" lon="2.92226">
        <ele>966.1</ele>
        <time>2021-08-26T07:59:26Z</time>
      </trkpt>
      <trkpt lat="45.55509" lon="2.92226">
        <ele>966</ele>
        <time>2021-08-26T07:59:28Z</time>
      </trkpt>
      <trkpt lat="45.5551" lon="2.92227">
        <ele>965.8</ele>
        <time>2021-08-26T07:59:30Z</time>
      </trkpt>
      <trkpt lat="45.5551" lon="2.92227">
        <ele>965.7</ele>
        <time>2021-08-26T07:59:32Z</time>
      </trkpt>
      <trkpt lat="45.5551" lon="2.92229">
        <ele>965.5</ele>
        <time>2021-08-26T07:59:34Z</time>
      </trkpt>
      <trkpt lat="45.55511" lon="2.92229">
        <ele>965</ele>
        <time>2021-08-26T07:59:36Z</time>
      </trkpt>
      <trkpt lat="45.55511" lon="2.92229">
        <ele>965</ele>
        <time>2021-08-26T07:59:38Z</time>
      </trkpt>
      <trkpt lat="45.55511" lon="2.9223">
        <ele>964.9</ele>
        <time>2021-08-26T07:59:40Z</time>
      </trkpt>
      <trkpt lat="45.55513" lon="2.92231">
        <ele>964.1</ele>
        <time>2021-08-26T07:59:42Z</time>
      </trkpt>
      <trkpt lat="45.55513" lon="2.92232">
        <ele>964</ele>
        <time>2021-08-26T07:59:44Z</time>
      </trkpt>
      <trkpt lat="45.55513" lon="2.92232">
        <ele>964</ele>
        <time>2021-08-26T07:59:46Z</time>
      </trkpt>
      <trkpt lat="45.55514" lon="2.92232">
        <ele>963.7</ele>
        <time>2021-08-26T07:59:48Z</time>
      </trkpt>
      <trkpt lat="45.55514" lon="2.92233">
        <ele>963.5</ele>
        <time>2021-08-26T07:59:50Z</time>
      </trkpt>
      <trkpt lat="45.55514" lon="2.92233">
        <ele>963.4</ele>
        <time>2021-08-26T07:59:52Z</time>
      </trkpt>
      <trkpt lat="45.55515" lon="2.92234">
        <ele>963.1</ele>
        <time>2021-08-26T07:59:54Z</time>
      </trkpt>
      <trkpt lat="45.55515" lon="2.92234">
        <ele>963</ele>
        <time>2021-08-26T07:59:56Z</time>
      </trkpt>
      <trkpt lat="45.55515" lon="2.92234">
        <ele>962.9</ele>
        <time>2021-08-26T07:59:58Z</time>
      </trkpt>
      <trkpt lat="45.55516" lon="2.92235">
        <ele>962.7</ele>
        <time>2021-08-26T08:00:00Z</time>
      </trkpt>
      <trkpt lat="45.55516" lon="2.92235">
        <ele>962.6</ele>
        <time>2021-08-26T08:00:02Z</time>
      </trkpt>
      <trkpt lat="45.55516" lon="2.92235">
        <ele>962.4</ele>
        <time>2021-08-26T08:00:04Z</time>
      </trkpt>
      <trkpt lat="45.55517" lon="2.92236">
        <ele>962.1</ele>
        <time>2021-08-26T08:00:06Z</time>
      </trkpt>
      <trkpt lat="45.55518" lon="2.92235">
        <ele>961.9</ele>
        <time>2021-08-26T08:00:08Z</time>
      </trkpt>
      <trkpt lat="45.55517" lon="2.92234">
        <ele>962</ele>
        <time>2021-08-26T08:00:10Z</time>
      </trkpt>
      <trkpt lat="45.55518" lon="2.92234">
        <ele>961.9</ele>
        <time>2021-08-26T08:00:12Z</time>
      </trkpt>
      <trkpt lat="45.55518" lon="2.92234">
        <ele>961.7</ele>
        <time>2021-08-26T08:00:14Z</time>
      </trkpt>
      <trkpt lat="45.55519" lon="2.92233">
        <ele>961.5</ele>
        <time>2021-08-26T08:00:16Z</time>
      </trkpt>
      <trkpt lat="45.55519" lon="2.92234">
        <ele>961.3</ele>
        <time>2021-08-26T08:00:18Z</time>
      </trkpt>
      <trkpt lat="45.55521" lon="2.92234">
        <ele>960.3</ele>
        <time>2021-08-26T08:00:20Z</time>
      </trkpt>
      <trkpt lat="45.55522" lon="2.92235">
        <ele>960.1</ele>
        <time>2021-08-26T08:00:22Z</time>
      </trkpt>
      <trkpt lat="45.55523" lon="2.92236">
        <ele>959.7</ele>
        <time>2021-08-26T08:00:24Z</time>
      </trkpt>
      <trkpt lat="45.55524" lon="2.92236">
        <ele>959.2</ele>
        <time>2021-08-26T08:00:26Z</time>
      </trkpt>
      <trkpt lat="45.55524" lon="2.92236">
        <ele>959.1</ele>
        <time>2021-08-26T08:00:28Z</time>
      </trkpt>
      <trkpt lat="45.55525" lon="2.92236">
        <ele>958.8</ele>
        <time>2021-08-26T08:00:30Z</time>
      </trkpt>
      <trkpt lat="45.55526" lon="2.92236">
        <ele>958.4</ele>
        <time>2021-08-26T08:00:32Z</time>
      </trkpt>
      <trkpt lat="45.55526" lon="2.92235">
        <ele>958.3</ele>
        <time>2021-08-26T08:00:34Z</time>
      </trkpt>
      <trkpt lat="45.55527" lon="2.92235">
        <ele>958</ele>
        <time>2021-08-26T08:00:36Z</time>
      </trkpt>
      <trkpt lat="45.55527" lon="2.92236">
        <ele>957.9</ele>
        <time>2021-08-26T08:00:38Z</time>
      </trkpt>
      <trkpt lat="45.55527" lon="2.92235">
        <ele>957.9</ele>
        <time>2021-08-26T08:00:40Z</time>
      </trkpt>
      <trkpt lat="45.55529" lon="2.92234">
        <ele>957.2</ele>
        <time>2021-08-26T08:00:42Z</time>
      </trkpt>
      <trkpt lat="45.55529" lon="2.92234">
        <ele>957</ele>
        <time>2021-08-26T08:00:44Z</time>
      </trkpt>
      <trkpt lat="45.55531" lon="2.92234">
        <ele>956.3</ele>
        <time>2021-08-26T08:00:46Z</time>
      </trkpt>
      <trkpt lat="45.55532" lon="2.92233">
        <ele>955.9</ele>
        <time>2021-08-26T08:00:48Z</time>
      </trkpt>
      <trkpt lat="45.55532" lon="2.92232">
        <ele>955.6</ele>
        <time>2021-08-26T08:00:50Z</time>
      </trkpt>
      <trkpt lat="45.55533" lon="2.92232">
        <ele>955.4</ele>
        <time>2021-08-26T08:00:52Z</time>
      </trkpt>
      <trkpt lat="45.55534" lon="2.92231">
        <ele>955</ele>
        <time>2021-08-26T08:00:54Z</time>
      </trkpt>
      <trkpt lat="45.55535" lon="2.9223">
        <ele>954.4</ele>
        <time>2021-08-26T08:00:56Z</time>
      </trkpt>
      <trkpt lat="45.55537" lon="2.92229">
        <ele>953.9</ele>
        <time>2021-08-26T08:00:58Z</time>
      </trkpt>
      <trkpt lat="45.55538" lon="2.92228">
        <ele>953.4</ele>
        <time>2021-08-26T08:01:00Z</time>
      </trkpt>
      <trkpt lat="45.5554" lon="2.92228">
        <ele>952.5</ele>
        <time>2021-08-26T08:01:02Z</time>
      </trkpt>
      <trkpt lat="45.55541" lon="2.92227">
        <ele>951.9</ele>
        <time>2021-08-26T08:01:04Z</time>
      </trkpt>
      <trkpt lat="45.55543" lon="2.92227">
        <ele>951</ele>
        <time>2021-08-26T08:01:06Z</time>
      </trkpt>
      <trkpt lat="45.55544" lon="2.92227">
        <ele>950.5</ele>
        <time>2021-08-26T08:01:08Z</time>
      </trkpt>
      <trkpt lat="45.55546" lon="2.92227">
        <ele>949.7</ele>
        <time>2021-08-26T08:01:10Z</time>
      </trkpt>
      <trkpt lat="45.55547" lon="2.92227">
        <ele>949.1</ele>
        <time>2021-08-26T08:01:12Z</time>
      </trkpt>
      <trkpt lat="45.55547" lon="2.92228">
        <ele>949.1</ele>
        <time>2021-08-26T08:01:14Z</time>
      </trkpt>
      <trkpt lat="45.55548" lon="2.92228">
        <ele>948.9</ele>
        <time>2021-08-26T08:01:16Z</time>
      </trkpt>
      <trkpt lat="45.55548" lon="2.92229">
        <ele>948.8</ele>
        <time>2021-08-26T08:01:18Z</time>
      </trkpt>
      <trkpt lat="45.55548" lon="2.92229">
        <ele>948.7</ele>
        <time>2021-08-26T08:01:20Z</time>
      </trkpt>
      <trkpt lat="45.55548" lon="2.92228">
        <ele>948.7</ele>
        <time>2021-08-26T08:01:22Z</time>
      </trkpt>
      <trkpt lat="45.55549" lon="2.92228">
        <ele>948.5</ele>
        <time>2021-08-26T08:01:24Z</time>
      </trkpt>
      <trkpt lat="45.55549" lon="2.92228">
        <ele>948.5</ele>
        <time>2021-08-26T08:01:26Z</time>
      </trkpt>
      <trkpt lat="45.55549" lon="2.92228">
        <ele>948.2</ele>
        <time>2021-08-26T08:01:28Z</time>
      </trkpt>
      <trkpt lat="45.55549" lon="2.92229">
        <ele>948.2</ele>
        <time>2021-08-26T08:01:30Z</time>
      </trkpt>
      <trkpt lat="45.5555" lon="2.92229">
        <ele>948.1</ele>
        <time>2021-08-26T08:01:32Z</time>
      </trkpt>
      <trkpt lat="45.5555" lon="2.92229">
        <ele>948</ele>
        <time>2021-08-26T08:01:34Z</time>
      </trkpt>
      <trkpt lat="45.5555" lon="2.92229">
        <ele>947.9</ele>
        <time>2021-08-26T08:01:36Z</time>
      </trkpt>
      <trkpt lat="45.5555" lon="2.92228">
        <ele>947.9</ele>
        <time>2021-08-26T08:01:38Z</time>
      </trkpt>
      <trkpt lat="45.5555" lon="2.92228">
        <ele>947.8</ele>
        <time>2021-08-26T08:01:40Z</time>
      </trkpt>
      <trkpt lat="45.5555" lon="2.92228">
        <ele>947.8</ele>
        <time>2021-08-26T08:01:42Z</time>
      </trkpt>
      <trkpt lat="45.5555" lon="2.92228">
        <ele>947.7</ele>
        <time>2021-08-26T08:01:44Z</time>
      </trkpt>
      <trkpt lat="45.55551" lon="2.92228">
        <ele>947.6</ele>
        <time>2021-08-26T08:01:48Z</time>
      </trkpt>
      <trkpt lat="45.55551" lon="2.92228">
        <ele>947.6</ele>
        <time>2021-08-26T08:01:50Z</time>
      </trkpt>
      <trkpt lat="45.55551" lon="2.92228">
        <ele>947.5</ele>
        <time>2021-08-26T08:01:52Z</time>
      </trkpt>
      <trkpt lat="45.55551" lon="2.92228">
        <ele>947.4</ele>
        <time>2021-08-26T08:01:54Z</time>
      </trkpt>
      <trkpt lat="45.55551" lon="2.92228">
        <ele>947.3</ele>
        <time>2021-08-26T08:01:56Z</time>
      </trkpt>
      <trkpt lat="45.55551" lon="2.92229">
        <ele>947.3</ele>
        <time>2021-08-26T08:01:58Z</time>
      </trkpt>
      <trkpt lat="45.55551" lon="2.92229">
        <ele>947.3</ele>
        <time>2021-08-26T08:02:00Z</time>
      </trkpt>
      <trkpt lat="45.55552" lon="2.92228">
        <ele>947.3</ele>
        <time>2021-08-26T08:02:02Z</time>
      </trkpt>
      <trkpt lat="45.55552" lon="2.92228">
        <ele>947.2</ele>
        <time>2021-08-26T08:02:04Z</time>
      </trkpt>
      <trkpt lat="45.55552" lon="2.92228">
        <ele>947.2</ele>
        <time>2021-08-26T08:02:06Z</time>
      </trkpt>
      <trkpt lat="45.55552" lon="2.92228">
        <ele>947.1</ele>
        <time>2021-08-26T08:02:08Z</time>
      </trkpt>
      <trkpt lat="45.55552" lon="2.92228">
        <ele>947</ele>
        <time>2021-08-26T08:02:10Z</time>
      </trkpt>
      <trkpt lat="45.55552" lon="2.92228">
        <ele>947</ele>
        <time>2021-08-26T08:02:12Z</time>
      </trkpt>
      <trkpt lat="45.55553" lon="2.92227">
        <ele>946.8</ele>
        <time>2021-08-26T08:02:14Z</time>
      </trkpt>
      <trkpt lat="45.55553" lon="2.92227">
        <ele>946.7</ele>
        <time>2021-08-26T08:02:16Z</time>
      </trkpt>
      <trkpt lat="45.55553" lon="2.92227">
        <ele>946.6</ele>
        <time>2021-08-26T08:02:18Z</time>
      </trkpt>
      <trkpt lat="45.55553" lon="2.92227">
        <ele>946.5</ele>
        <time>2021-08-26T08:02:20Z</time>
      </trkpt>
      <trkpt lat="45.55553" lon="2.92227">
        <ele>946.5</ele>
        <time>2021-08-26T08:02:22Z</time>
      </trkpt>
      <trkpt lat="45.55553" lon="2.92228">
        <ele>946.4</ele>
        <time>2021-08-26T08:02:24Z</time>
      </trkpt>
      <trkpt lat="45.55554" lon="2.92227">
        <ele>946.3</ele>
        <time>2021-08-26T08:02:26Z</time>
      </trkpt>
      <trkpt lat="45.55554" lon="2.92227">
        <ele>946.2</ele>
        <time>2021-08-26T08:02:28Z</time>
      </trkpt>
      <trkpt lat="45.55554" lon="2.92227">
        <ele>946.2</ele>
        <time>2021-08-26T08:02:30Z</time>
      </trkpt>
      <trkpt lat="45.55554" lon="2.92227">
        <ele>946.2</ele>
        <time>2021-08-26T08:02:32Z</time>
      </trkpt>
      <trkpt lat="45.55554" lon="2.92227">
        <ele>946.2</ele>
        <time>2021-08-26T08:02:34Z</time>
      </trkpt>
      <trkpt lat="45.55555" lon="2.92227">
        <ele>945.9</ele>
        <time>2021-08-26T08:02:36Z</time>
      </trkpt>
      <trkpt lat="45.55555" lon="2.92227">
        <ele>945.9</ele>
        <time>2021-08-26T08:02:38Z</time>
      </trkpt>
      <trkpt lat="45.55554" lon="2.92227">
        <ele>946.1</ele>
        <time>2021-08-26T08:02:40Z</time>
      </trkpt>
      <trkpt lat="45.55554" lon="2.92227">
        <ele>946.2</ele>
        <time>2021-08-26T08:02:42Z</time>
      </trkpt>
      <trkpt lat="45.55554" lon="2.92226">
        <ele>946</ele>
        <time>2021-08-26T08:02:44Z</time>
      </trkpt>
      <trkpt lat="45.55554" lon="2.92226">
        <ele>946</ele>
        <time>2021-08-26T08:02:46Z</time>
      </trkpt>
      <trkpt lat="45.55554" lon="2.92226">
        <ele>946.1</ele>
        <time>2021-08-26T08:02:48Z</time>
      </trkpt>
      <trkpt lat="45.55554" lon="2.92226">
        <ele>946.1</ele>
        <time>2021-08-26T08:02:50Z</time>
      </trkpt>
      <trkpt lat="45.55554" lon="2.92226">
        <ele>946</ele>
        <time>2021-08-26T08:02:52Z</time>
      </trkpt>
      <trkpt lat="45.55555" lon="2.92225">
        <ele>945.7</ele>
        <time>2021-08-26T08:02:54Z</time>
      </trkpt>
      <trkpt lat="45.55555" lon="2.92225">
        <ele>945.4</ele>
        <time>2021-08-26T08:02:56Z</time>
      </trkpt>
      <trkpt lat="45.55555" lon="2.92226">
        <ele>945.8</ele>
        <time>2021-08-26T08:02:58Z</time>
      </trkpt>
      <trkpt lat="45.55554" lon="2.92227">
        <ele>945.9</ele>
        <time>2021-08-26T08:03:00Z</time>
      </trkpt>
      <trkpt lat="45.55554" lon="2.92227">
        <ele>946.2</ele>
        <time>2021-08-26T08:03:02Z</time>
      </trkpt>
      <trkpt lat="45.55553" lon="2.92227">
        <ele>946.6</ele>
        <time>2021-08-26T08:03:04Z</time>
      </trkpt>
      <trkpt lat="45.55553" lon="2.92227">
        <ele>946.5</ele>
        <time>2021-08-26T08:03:06Z</time>
      </trkpt>
      <trkpt lat="45.55553" lon="2.92228">
        <ele>946.5</ele>
        <time>2021-08-26T08:03:08Z</time>
      </trkpt>
      <trkpt lat="45.55554" lon="2.92229">
        <ele>946.4</ele>
        <time>2021-08-26T08:03:10Z</time>
      </trkpt>
      <trkpt lat="45.55554" lon="2.9223">
        <ele>946.1</ele>
        <time>2021-08-26T08:03:12Z</time>
      </trkpt>
      <trkpt lat="45.55555" lon="2.9223">
        <ele>945.6</ele>
        <time>2021-08-26T08:03:14Z</time>
      </trkpt>
      <trkpt lat="45.55555" lon="2.9223">
        <ele>945.7</ele>
        <time>2021-08-26T08:03:16Z</time>
      </trkpt>
      <trkpt lat="45.55556" lon="2.92231">
        <ele>945.5</ele>
        <time>2021-08-26T08:03:18Z</time>
      </trkpt>
      <trkpt lat="45.55556" lon="2.92231">
        <ele>945.2</ele>
        <time>2021-08-26T08:03:20Z</time>
      </trkpt>
      <trkpt lat="45.55557" lon="2.92232">
        <ele>944.8</ele>
        <time>2021-08-26T08:03:22Z</time>
      </trkpt>
      <trkpt lat="45.55557" lon="2.92232">
        <ele>945</ele>
        <time>2021-08-26T08:03:24Z</time>
      </trkpt>
      <trkpt lat="45.55557" lon="2.92233">
        <ele>945</ele>
        <time>2021-08-26T08:03:26Z</time>
      </trkpt>
      <trkpt lat="45.55557" lon="2.92234">
        <ele>945</ele>
        <time>2021-08-26T08:03:28Z</time>
      </trkpt>
      <trkpt lat="45.55557" lon="2.92235">
        <ele>944.8</ele>
        <time>2021-08-26T08:03:30Z</time>
      </trkpt>
      <trkpt lat="45.55558" lon="2.92236">
        <ele>944.7</ele>
        <time>2021-08-26T08:03:32Z</time>
      </trkpt>
      <trkpt lat="45.55559" lon="2.92237">
        <ele>944.3</ele>
        <time>2021-08-26T08:03:34Z</time>
      </trkpt>
      <trkpt lat="45.55559" lon="2.92238">
        <ele>944.3</ele>
        <time>2021-08-26T08:03:36Z</time>
      </trkpt>
      <trkpt lat="45.5556" lon="2.92239">
        <ele>944</ele>
        <time>2021-08-26T08:03:38Z</time>
      </trkpt>
      <trkpt lat="45.5556" lon="2.9224">
        <ele>943.9</ele>
        <time>2021-08-26T08:03:40Z</time>
      </trkpt>
      <trkpt lat="45.55561" lon="2.9224">
        <ele>943.6</ele>
        <time>2021-08-26T08:03:42Z</time>
      </trkpt>
      <trkpt lat="45.55561" lon="2.92241">
        <ele>943.4</ele>
        <time>2021-08-26T08:03:44Z</time>
      </trkpt>
      <trkpt lat="45.55561" lon="2.92242">
        <ele>943.4</ele>
        <time>2021-08-26T08:03:46Z</time>
      </trkpt>
      <trkpt lat="45.55563" lon="2.92243">
        <ele>942.9</ele>
        <time>2021-08-26T08:03:48Z</time>
      </trkpt>
      <trkpt lat="45.55563" lon="2.92244">
        <ele>942.8</ele>
        <time>2021-08-26T08:03:50Z</time>
      </trkpt>
      <trkpt lat="45.55564" lon="2.92245">
        <ele>942.6</ele>
        <time>2021-08-26T08:03:52Z</time>
      </trkpt>
      <trkpt lat="45.55564" lon="2.92246">
        <ele>942.4</ele>
        <time>2021-08-26T08:03:54Z</time>
      </trkpt>
      <trkpt lat="45.55565" lon="2.92248">
        <ele>942.1</ele>
        <time>2021-08-26T08:03:56Z</time>
      </trkpt>
      <trkpt lat="45.55566" lon="2.92249">
        <ele>942</ele>
        <time>2021-08-26T08:03:58Z</time>
      </trkpt>
      <trkpt lat="45.55566" lon="2.9225">
        <ele>941.9</ele>
        <time>2021-08-26T08:04:00Z</time>
      </trkpt>
      <trkpt lat="45.55567" lon="2.92251">
        <ele>941.3</ele>
        <time>2021-08-26T08:04:02Z</time>
      </trkpt>
      <trkpt lat="45.55568" lon="2.92253">
        <ele>940.9</ele>
        <time>2021-08-26T08:04:04Z</time>
      </trkpt>
      <trkpt lat="45.55568" lon="2.92255">
        <ele>940.5</ele>
        <time>2021-08-26T08:04:06Z</time>
      </trkpt>
      <trkpt lat="45.55568" lon="2.92257">
        <ele>940.2</ele>
        <time>2021-08-26T08:04:08Z</time>
      </trkpt>
      <trkpt lat="45.55569" lon="2.92258">
        <ele>939.9</ele>
        <time>2021-08-26T08:04:10Z</time>
      </trkpt>
      <trkpt lat="45.55569" lon="2.92259">
        <ele>939.4</ele>
        <time>2021-08-26T08:04:12Z</time>
      </trkpt>
      <trkpt lat="45.5557" lon="2.92261">
        <ele>938.8</ele>
        <time>2021-08-26T08:04:14Z</time>
      </trkpt>
      <trkpt lat="45.55571" lon="2.92263">
        <ele>938.4</ele>
        <time>2021-08-26T08:04:16Z</time>
      </trkpt>
      <trkpt lat="45.55571" lon="2.92264">
        <ele>938.2</ele>
        <time>2021-08-26T08:04:18Z</time>
      </trkpt>
      <trkpt lat="45.55571" lon="2.92265">
        <ele>938.1</ele>
        <time>2021-08-26T08:04:20Z</time>
      </trkpt>
      <trkpt lat="45.55572" lon="2.92268">
        <ele>937.5</ele>
        <time>2021-08-26T08:04:22Z</time>
      </trkpt>
      <trkpt lat="45.55572" lon="2.9227">
        <ele>937.2</ele>
        <time>2021-08-26T08:04:24Z</time>
      </trkpt>
      <trkpt lat="45.55573" lon="2.92271">
        <ele>936.7</ele>
        <time>2021-08-26T08:04:26Z</time>
      </trkpt>
      <trkpt lat="45.55574" lon="2.92273">
        <ele>936.1</ele>
        <time>2021-08-26T08:04:28Z</time>
      </trkpt>
      <trkpt lat="45.55574" lon="2.92275">
        <ele>935.7</ele>
        <time>2021-08-26T08:04:30Z</time>
      </trkpt>
      <trkpt lat="45.55575" lon="2.92277">
        <ele>935.2</ele>
        <time>2021-08-26T08:04:32Z</time>
      </trkpt>
      <trkpt lat="45.55576" lon="2.92279">
        <ele>934.8</ele>
        <time>2021-08-26T08:04:34Z</time>
      </trkpt>
      <trkpt lat="45.55576" lon="2.92281">
        <ele>934.5</ele>
        <time>2021-08-26T08:04:36Z</time>
      </trkpt>
      <trkpt lat="45.55577" lon="2.92283">
        <ele>934</ele>
        <time>2021-08-26T08:04:38Z</time>
      </trkpt>
      <trkpt lat="45.55578" lon="2.92285">
        <ele>933.5</ele>
        <time>2021-08-26T08:04:40Z</time>
      </trkpt>
      <trkpt lat="45.55578" lon="2.92285">
        <ele>933.2</ele>
        <time>2021-08-26T08:04:42Z</time>
      </trkpt>
      <trkpt lat="45.55579" lon="2.92287">
        <ele>932.8</ele>
        <time>2021-08-26T08:04:44Z</time>
      </trkpt>
      <trkpt lat="45.5558" lon="2.92288">
        <ele>932.4</ele>
        <time>2021-08-26T08:04:46Z</time>
      </trkpt>
      <trkpt lat="45.5558" lon="2.9229">
        <ele>932.2</ele>
        <time>2021-08-26T08:04:48Z</time>
      </trkpt>
      <trkpt lat="45.5558" lon="2.92291">
        <ele>932</ele>
        <time>2021-08-26T08:04:50Z</time>
      </trkpt>
      <trkpt lat="45.55581" lon="2.92291">
        <ele>931.9</ele>
        <time>2021-08-26T08:04:52Z</time>
      </trkpt>
      <trkpt lat="45.55581" lon="2.92291">
        <ele>931.7</ele>
        <time>2021-08-26T08:04:54Z</time>
      </trkpt>
      <trkpt lat="45.55582" lon="2.9229">
        <ele>931.7</ele>
        <time>2021-08-26T08:04:56Z</time>
      </trkpt>
      <trkpt lat="45.55581" lon="2.9229">
        <ele>931.8</ele>
        <time>2021-08-26T08:04:58Z</time>
      </trkpt>
      <trkpt lat="45.55592" lon="2.92334">
        <ele>923.7</ele>
        <time>2021-08-26T08:10:26Z</time>
      </trkpt>
      <trkpt lat="45.55597" lon="2.92327">
        <ele>922.7</ele>
        <time>2021-08-26T08:10:28Z</time>
      </trkpt>
      <trkpt lat="45.55599" lon="2.92317">
        <ele>922.6</ele>
        <time>2021-08-26T08:10:30Z</time>
      </trkpt>
      <trkpt lat="45.55601" lon="2.92307">
        <ele>922.7</ele>
        <time>2021-08-26T08:10:32Z</time>
      </trkpt>
      <trkpt lat="45.55601" lon="2.92296">
        <ele>923.6</ele>
        <time>2021-08-26T08:10:34Z</time>
      </trkpt>
      <trkpt lat="45.55601" lon="2.92283">
        <ele>924.4</ele>
        <time>2021-08-26T08:10:36Z</time>
      </trkpt>
      <trkpt lat="45.55599" lon="2.92272">
        <ele>926.1</ele>
        <time>2021-08-26T08:10:38Z</time>
      </trkpt>
      <trkpt lat="45.55599" lon="2.92259">
        <ele>927.4</ele>
        <time>2021-08-26T08:10:40Z</time>
      </trkpt>
      <trkpt lat="45.55599" lon="2.92244">
        <ele>927.6</ele>
        <time>2021-08-26T08:10:42Z</time>
      </trkpt>
      <trkpt lat="45.55599" lon="2.92229">
        <ele>926.7</ele>
        <time>2021-08-26T08:10:44Z</time>
      </trkpt>
      <trkpt lat="45.55599" lon="2.92215">
        <ele>926.1</ele>
        <time>2021-08-26T08:10:46Z</time>
      </trkpt>
      <trkpt lat="45.55595" lon="2.92203">
        <ele>926.8</ele>
        <time>2021-08-26T08:10:48Z</time>
      </trkpt>
      <trkpt lat="45.5559" lon="2.92193">
        <ele>928</ele>
        <time>2021-08-26T08:10:50Z</time>
      </trkpt>
      <trkpt lat="45.55586" lon="2.92182">
        <ele>928.4</ele>
        <time>2021-08-26T08:10:52Z</time>
      </trkpt>
      <trkpt lat="45.55581" lon="2.92173">
        <ele>929.7</ele>
        <time>2021-08-26T08:10:54Z</time>
      </trkpt>
      <trkpt lat="45.55579" lon="2.92159">
        <ele>929.5</ele>
        <time>2021-08-26T08:10:56Z</time>
      </trkpt>
      <trkpt lat="45.5558" lon="2.92145">
        <ele>927.2</ele>
        <time>2021-08-26T08:10:58Z</time>
      </trkpt>
      <trkpt lat="45.55583" lon="2.9213">
        <ele>923.6</ele>
        <time>2021-08-26T08:11:00Z</time>
      </trkpt>
      <trkpt lat="45.5558" lon="2.9212">
        <ele>924.1</ele>
        <time>2021-08-26T08:11:02Z</time>
      </trkpt>
      <trkpt lat="45.55577" lon="2.92109">
        <ele>924.5</ele>
        <time>2021-08-26T08:11:04Z</time>
      </trkpt>
      <trkpt lat="45.55574" lon="2.92097">
        <ele>924.9</ele>
        <time>2021-08-26T08:11:06Z</time>
      </trkpt>
      <trkpt lat="45.55572" lon="2.92086">
        <ele>924.9</ele>
        <time>2021-08-26T08:11:08Z</time>
      </trkpt>
      <trkpt lat="45.5557" lon="2.92076">
        <ele>925.8</ele>
        <time>2021-08-26T08:11:10Z</time>
      </trkpt>
      <trkpt lat="45.55564" lon="2.92068">
        <ele>930</ele>
        <time>2021-08-26T08:11:12Z</time>
      </trkpt>
      <trkpt lat="45.55565" lon="2.92062">
        <ele>928.8</ele>
        <time>2021-08-26T08:11:14Z</time>
      </trkpt>
      <trkpt lat="45.55564" lon="2.92059">
        <ele>929.6</ele>
        <time>2021-08-26T08:11:16Z</time>
      </trkpt>
      <trkpt lat="45.55564" lon="2.92056">
        <ele>929.8</ele>
        <time>2021-08-26T08:11:18Z</time>
      </trkpt>
      <trkpt lat="45.55563" lon="2.92052">
        <ele>930.5</ele>
        <time>2021-08-26T08:11:20Z</time>
      </trkpt>
      <trkpt lat="45.55561" lon="2.92049">
        <ele>931.9</ele>
        <time>2021-08-26T08:11:22Z</time>
      </trkpt>
      <trkpt lat="45.55559" lon="2.92046">
        <ele>932.7</ele>
        <time>2021-08-26T08:11:24Z</time>
      </trkpt>
      <trkpt lat="45.55558" lon="2.92042">
        <ele>933.4</ele>
        <time>2021-08-26T08:11:26Z</time>
      </trkpt>
      <trkpt lat="45.55556" lon="2.92039">
        <ele>934.9</ele>
        <time>2021-08-26T08:11:28Z</time>
      </trkpt>
      <trkpt lat="45.55553" lon="2.92033">
        <ele>936.5</ele>
        <time>2021-08-26T08:11:30Z</time>
      </trkpt>
      <trkpt lat="45.55554" lon="2.9203">
        <ele>936.1</ele>
        <time>2021-08-26T08:11:32Z</time>
      </trkpt>
      <trkpt lat="45.55552" lon="2.92026">
        <ele>937.2</ele>
        <time>2021-08-26T08:11:34Z</time>
      </trkpt>
      <trkpt lat="45.55549" lon="2.92022">
        <ele>938.9</ele>
        <time>2021-08-26T08:11:36Z</time>
      </trkpt>
      <trkpt lat="45.55547" lon="2.92017">
        <ele>940</ele>
        <time>2021-08-26T08:11:38Z</time>
      </trkpt>
      <trkpt lat="45.55548" lon="2.92012">
        <ele>939.6</ele>
        <time>2021-08-26T08:11:40Z</time>
      </trkpt>
      <trkpt lat="45.55547" lon="2.92007">
        <ele>939.8</ele>
        <time>2021-08-26T08:11:42Z</time>
      </trkpt>
      <trkpt lat="45.55545" lon="2.92002">
        <ele>940.7</ele>
        <time>2021-08-26T08:11:44Z</time>
      </trkpt>
      <trkpt lat="45.55545" lon="2.91998">
        <ele>941</ele>
        <time>2021-08-26T08:11:46Z</time>
      </trkpt>
      <trkpt lat="45.55545" lon="2.91994">
        <ele>941.1</ele>
        <time>2021-08-26T08:11:48Z</time>
      </trkpt>
      <trkpt lat="45.55544" lon="2.9199">
        <ele>941.3</ele>
        <time>2021-08-26T08:11:50Z</time>
      </trkpt>
      <trkpt lat="45.55544" lon="2.91986">
        <ele>941.3</ele>
        <time>2021-08-26T08:11:52Z</time>
      </trkpt>
      <trkpt lat="45.55546" lon="2.91983">
        <ele>940.3</ele>
        <time>2021-08-26T08:11:54Z</time>
      </trkpt>
      <trkpt lat="45.55546" lon="2.91979">
        <ele>940.5</ele>
        <time>2021-08-26T08:11:56Z</time>
      </trkpt>
      <trkpt lat="45.55546" lon="2.91976">
        <ele>940.4</ele>
        <time>2021-08-26T08:11:58Z</time>
      </trkpt>
      <trkpt lat="45.55547" lon="2.91972">
        <ele>940</ele>
        <time>2021-08-26T08:12:00Z</time>
      </trkpt>
      <trkpt lat="45.55546" lon="2.9197">
        <ele>940.3</ele>
        <time>2021-08-26T08:12:02Z</time>
      </trkpt>
      <trkpt lat="45.55546" lon="2.91966">
        <ele>940.3</ele>
        <time>2021-08-26T08:12:04Z</time>
      </trkpt>
      <trkpt lat="45.55546" lon="2.91963">
        <ele>940.4</ele>
        <time>2021-08-26T08:12:06Z</time>
      </trkpt>
      <trkpt lat="45.55546" lon="2.91959">
        <ele>940.3</ele>
        <time>2021-08-26T08:12:08Z</time>
      </trkpt>
      <trkpt lat="45.55546" lon="2.91955">
        <ele>940.4</ele>
        <time>2021-08-26T08:12:10Z</time>
      </trkpt>
      <trkpt lat="45.55546" lon="2.91951">
        <ele>940.5</ele>
        <time>2021-08-26T08:12:12Z</time>
      </trkpt>
      <trkpt lat="45.55546" lon="2.91948">
        <ele>940.1</ele>
        <time>2021-08-26T08:12:14Z</time>
      </trkpt>
      <trkpt lat="45.55546" lon="2.91945">
        <ele>940.4</ele>
        <time>2021-08-26T08:12:16Z</time>
      </trkpt>
      <trkpt lat="45.55545" lon="2.91942">
        <ele>940.8</ele>
        <time>2021-08-26T08:12:18Z</time>
      </trkpt>
      <trkpt lat="45.55545" lon="2.91937">
        <ele>940.7</ele>
        <time>2021-08-26T08:12:20Z</time>
      </trkpt>
      <trkpt lat="45.55546" lon="2.91934">
        <ele>940.2</ele>
        <time>2021-08-26T08:12:22Z</time>
      </trkpt>
      <trkpt lat="45.55546" lon="2.91931">
        <ele>940.4</ele>
        <time>2021-08-26T08:12:24Z</time>
      </trkpt>
      <trkpt lat="45.55546" lon="2.91928">
        <ele>940.5</ele>
        <time>2021-08-26T08:12:26Z</time>
      </trkpt>
      <trkpt lat="45.55546" lon="2.91925">
        <ele>940.1</ele>
        <time>2021-08-26T08:12:28Z</time>
      </trkpt>
      <trkpt lat="45.55547" lon="2.91922">
        <ele>939.4</ele>
        <time>2021-08-26T08:12:30Z</time>
      </trkpt>
      <trkpt lat="45.55548" lon="2.91919">
        <ele>939.1</ele>
        <time>2021-08-26T08:12:32Z</time>
      </trkpt>
      <trkpt lat="45.55547" lon="2.91916">
        <ele>939.8</ele>
        <time>2021-08-26T08:12:34Z</time>
      </trkpt>
      <trkpt lat="45.55546" lon="2.91912">
        <ele>940.3</ele>
        <time>2021-08-26T08:12:36Z</time>
      </trkpt>
      <trkpt lat="45.55544" lon="2.91909">
        <ele>941.1</ele>
        <time>2021-08-26T08:12:38Z</time>
      </trkpt>
      <trkpt lat="45.55543" lon="2.91906">
        <ele>941.4</ele>
        <time>2021-08-26T08:12:40Z</time>
      </trkpt>
      <trkpt lat="45.55542" lon="2.91904">
        <ele>942.2</ele>
        <time>2021-08-26T08:12:42Z</time>
      </trkpt>
      <trkpt lat="45.5554" lon="2.91901">
        <ele>943</ele>
        <time>2021-08-26T08:12:44Z</time>
      </trkpt>
      <trkpt lat="45.55539" lon="2.91899">
        <ele>943.4</ele>
        <time>2021-08-26T08:12:46Z</time>
      </trkpt>
      <trkpt lat="45.55537" lon="2.91896">
        <ele>944.5</ele>
        <time>2021-08-26T08:12:48Z</time>
      </trkpt>
      <trkpt lat="45.55536" lon="2.91894">
        <ele>945.1</ele>
        <time>2021-08-26T08:12:50Z</time>
      </trkpt>
      <trkpt lat="45.55534" lon="2.91891">
        <ele>945.7</ele>
        <time>2021-08-26T08:12:52Z</time>
      </trkpt>
      <trkpt lat="45.55533" lon="2.91889">
        <ele>946.3</ele>
        <time>2021-08-26T08:12:54Z</time>
      </trkpt>
      <trkpt lat="45.55531" lon="2.91886">
        <ele>947.3</ele>
        <time>2021-08-26T08:12:56Z</time>
      </trkpt>
      <trkpt lat="45.55529" lon="2.91885">
        <ele>947.9</ele>
        <time>2021-08-26T08:12:58Z</time>
      </trkpt>
      <trkpt lat="45.55529" lon="2.91884">
        <ele>947.8</ele>
        <time>2021-08-26T08:13:00Z</time>
      </trkpt>
      <trkpt lat="45.5553" lon="2.91884">
        <ele>947.6</ele>
        <time>2021-08-26T08:13:02Z</time>
      </trkpt>
      <trkpt lat="45.5553" lon="2.91882">
        <ele>947.3</ele>
        <time>2021-08-26T08:13:04Z</time>
      </trkpt>
      <trkpt lat="45.55529" lon="2.91881">
        <ele>947.7</ele>
        <time>2021-08-26T08:13:06Z</time>
      </trkpt>
      <trkpt lat="45.55523" lon="2.91865">
        <ele>949.6</ele>
        <time>2021-08-26T08:15:16Z</time>
      </trkpt>
      <trkpt lat="45.5552" lon="2.9186">
        <ele>950.8</ele>
        <time>2021-08-26T08:15:18Z</time>
      </trkpt>
      <trkpt lat="45.55518" lon="2.91853">
        <ele>951.3</ele>
        <time>2021-08-26T08:15:20Z</time>
      </trkpt>
      <trkpt lat="45.55517" lon="2.91848">
        <ele>951.6</ele>
        <time>2021-08-26T08:15:22Z</time>
      </trkpt>
      <trkpt lat="45.55515" lon="2.9184">
        <ele>951.9</ele>
        <time>2021-08-26T08:15:24Z</time>
      </trkpt>
      <trkpt lat="45.55513" lon="2.9183">
        <ele>952.2</ele>
        <time>2021-08-26T08:15:26Z</time>
      </trkpt>
      <trkpt lat="45.55513" lon="2.91819">
        <ele>953.1</ele>
        <time>2021-08-26T08:15:28Z</time>
      </trkpt>
      <trkpt lat="45.55514" lon="2.91808">
        <ele>953.4</ele>
        <time>2021-08-26T08:15:30Z</time>
      </trkpt>
      <trkpt lat="45.55517" lon="2.91803">
        <ele>952.7</ele>
        <time>2021-08-26T08:15:32Z</time>
      </trkpt>
      <trkpt lat="45.55515" lon="2.91799">
        <ele>953.5</ele>
        <time>2021-08-26T08:15:34Z</time>
      </trkpt>
      <trkpt lat="45.55514" lon="2.91796">
        <ele>954.3</ele>
        <time>2021-08-26T08:15:36Z</time>
      </trkpt>
      <trkpt lat="45.5552" lon="2.91789">
        <ele>952.4</ele>
        <time>2021-08-26T08:15:38Z</time>
      </trkpt>
      <trkpt lat="45.55524" lon="2.91778">
        <ele>951.6</ele>
        <time>2021-08-26T08:15:40Z</time>
      </trkpt>
      <trkpt lat="45.55526" lon="2.91768">
        <ele>951.3</ele>
        <time>2021-08-26T08:15:42Z</time>
      </trkpt>
      <trkpt lat="45.55528" lon="2.91763">
        <ele>951.2</ele>
        <time>2021-08-26T08:15:44Z</time>
      </trkpt>
      <trkpt lat="45.55533" lon="2.91756">
        <ele>949.6</ele>
        <time>2021-08-26T08:15:46Z</time>
      </trkpt>
      <trkpt lat="45.55539" lon="2.91749">
        <ele>947.7</ele>
        <time>2021-08-26T08:15:48Z</time>
      </trkpt>
      <trkpt lat="45.55541" lon="2.91743">
        <ele>947.8</ele>
        <time>2021-08-26T08:15:50Z</time>
      </trkpt>
      <trkpt lat="45.55545" lon="2.91739">
        <ele>946.9</ele>
        <time>2021-08-26T08:15:52Z</time>
      </trkpt>
      <trkpt lat="45.55549" lon="2.91733">
        <ele>946.3</ele>
        <time>2021-08-26T08:15:54Z</time>
      </trkpt>
      <trkpt lat="45.55551" lon="2.91729">
        <ele>945.9</ele>
        <time>2021-08-26T08:15:56Z</time>
      </trkpt>
      <trkpt lat="45.55555" lon="2.91723">
        <ele>945.1</ele>
        <time>2021-08-26T08:15:58Z</time>
      </trkpt>
      <trkpt lat="45.55558" lon="2.91715">
        <ele>945</ele>
        <time>2021-08-26T08:16:00Z</time>
      </trkpt>
      <trkpt lat="45.5556" lon="2.91708">
        <ele>945.3</ele>
        <time>2021-08-26T08:16:02Z</time>
      </trkpt>
      <trkpt lat="45.55563" lon="2.917">
        <ele>945.2</ele>
        <time>2021-08-26T08:16:04Z</time>
      </trkpt>
      <trkpt lat="45.55565" lon="2.91693">
        <ele>945.1</ele>
        <time>2021-08-26T08:16:06Z</time>
      </trkpt>
      <trkpt lat="45.5557" lon="2.91686">
        <ele>943.6</ele>
        <time>2021-08-26T08:16:08Z</time>
      </trkpt>
      <trkpt lat="45.55574" lon="2.91677">
        <ele>943.1</ele>
        <time>2021-08-26T08:16:10Z</time>
      </trkpt>
      <trkpt lat="45.55578" lon="2.91672">
        <ele>941.7</ele>
        <time>2021-08-26T08:16:12Z</time>
      </trkpt>
      <trkpt lat="45.55582" lon="2.91671">
        <ele>940.3</ele>
        <time>2021-08-26T08:16:14Z</time>
      </trkpt>
      <trkpt lat="45.55583" lon="2.91665">
        <ele>940.4</ele>
        <time>2021-08-26T08:16:16Z</time>
      </trkpt>
      <trkpt lat="45.55587" lon="2.9166">
        <ele>941.3</ele>
        <time>2021-08-26T08:16:18Z</time>
      </trkpt>
      <trkpt lat="45.55594" lon="2.91661">
        <ele>942.3</ele>
        <time>2021-08-26T08:16:20Z</time>
      </trkpt>
      <trkpt lat="45.556" lon="2.91664">
        <ele>942.8</ele>
        <time>2021-08-26T08:16:22Z</time>
      </trkpt>
      <trkpt lat="45.55603" lon="2.91669">
        <ele>942.8</ele>
        <time>2021-08-26T08:16:24Z</time>
      </trkpt>
      <trkpt lat="45.55604" lon="2.91676">
        <ele>942.2</ele>
        <time>2021-08-26T08:16:26Z</time>
      </trkpt>
      <trkpt lat="45.55605" lon="2.91681">
        <ele>941.7</ele>
        <time>2021-08-26T08:16:28Z</time>
      </trkpt>
      <trkpt lat="45.55605" lon="2.91687">
        <ele>941.1</ele>
        <time>2021-08-26T08:16:30Z</time>
      </trkpt>
      <trkpt lat="45.55605" lon="2.91693">
        <ele>940.4</ele>
        <time>2021-08-26T08:16:32Z</time>
      </trkpt>
      <trkpt lat="45.55604" lon="2.91699">
        <ele>939.7</ele>
        <time>2021-08-26T08:16:34Z</time>
      </trkpt>
      <trkpt lat="45.55604" lon="2.91705">
        <ele>939</ele>
        <time>2021-08-26T08:16:36Z</time>
      </trkpt>
      <trkpt lat="45.55604" lon="2.91711">
        <ele>938.4</ele>
        <time>2021-08-26T08:16:38Z</time>
      </trkpt>
      <trkpt lat="45.55604" lon="2.91716">
        <ele>937.8</ele>
        <time>2021-08-26T08:16:40Z</time>
      </trkpt>
      <trkpt lat="45.55605" lon="2.91723">
        <ele>937.2</ele>
        <time>2021-08-26T08:16:42Z</time>
      </trkpt>
      <trkpt lat="45.55607" lon="2.91729">
        <ele>936.8</ele>
        <time>2021-08-26T08:16:44Z</time>
      </trkpt>
      <trkpt lat="45.55608" lon="2.91734">
        <ele>936.5</ele>
        <time>2021-08-26T08:16:46Z</time>
      </trkpt>
      <trkpt lat="45.55611" lon="2.91739">
        <ele>936.5</ele>
        <time>2021-08-26T08:16:48Z</time>
      </trkpt>
      <trkpt lat="45.55615" lon="2.91741">
        <ele>937</ele>
        <time>2021-08-26T08:16:50Z</time>
      </trkpt>
      <trkpt lat="45.55617" lon="2.91741">
        <ele>937.5</ele>
        <time>2021-08-26T08:16:52Z</time>
      </trkpt>
      <trkpt lat="45.55622" lon="2.91741">
        <ele>938.3</ele>
        <time>2021-08-26T08:16:54Z</time>
      </trkpt>
      <trkpt lat="45.55626" lon="2.91742">
        <ele>938.9</ele>
        <time>2021-08-26T08:16:56Z</time>
      </trkpt>
      <trkpt lat="45.5563" lon="2.91742">
        <ele>939.7</ele>
        <time>2021-08-26T08:16:58Z</time>
      </trkpt>
      <trkpt lat="45.55633" lon="2.91744">
        <ele>940.2</ele>
        <time>2021-08-26T08:17:00Z</time>
      </trkpt>
      <trkpt lat="45.55637" lon="2.91745">
        <ele>940.8</ele>
        <time>2021-08-26T08:17:02Z</time>
      </trkpt>
      <trkpt lat="45.55641" lon="2.91746">
        <ele>941.4</ele>
        <time>2021-08-26T08:17:04Z</time>
      </trkpt>
      <trkpt lat="45.55645" lon="2.91747">
        <ele>942</ele>
        <time>2021-08-26T08:17:06Z</time>
      </trkpt>
      <trkpt lat="45.55647" lon="2.91749">
        <ele>942.4</ele>
        <time>2021-08-26T08:17:08Z</time>
      </trkpt>
      <trkpt lat="45.55652" lon="2.91753">
        <ele>942.7</ele>
        <time>2021-08-26T08:17:10Z</time>
      </trkpt>
      <trkpt lat="45.55656" lon="2.91755">
        <ele>943.2</ele>
        <time>2021-08-26T08:17:12Z</time>
      </trkpt>
      <trkpt lat="45.55659" lon="2.91758">
        <ele>943.3</ele>
        <time>2021-08-26T08:17:14Z</time>
      </trkpt>
      <trkpt lat="45.55661" lon="2.91762">
        <ele>943.3</ele>
        <time>2021-08-26T08:17:16Z</time>
      </trkpt>
      <trkpt lat="45.55664" lon="2.91766">
        <ele>943.3</ele>
        <time>2021-08-26T08:17:18Z</time>
      </trkpt>
      <trkpt lat="45.55666" lon="2.91767">
        <ele>943.5</ele>
        <time>2021-08-26T08:17:20Z</time>
      </trkpt>
      <trkpt lat="45.55668" lon="2.91771">
        <ele>943.4</ele>
        <time>2021-08-26T08:17:22Z</time>
      </trkpt>
      <trkpt lat="45.55671" lon="2.91775">
        <ele>943.9</ele>
        <time>2021-08-26T08:17:24Z</time>
      </trkpt>
      <trkpt lat="45.55673" lon="2.91779">
        <ele>944.2</ele>
        <time>2021-08-26T08:17:26Z</time>
      </trkpt>
      <trkpt lat="45.55675" lon="2.91783">
        <ele>944.2</ele>
        <time>2021-08-26T08:17:28Z</time>
      </trkpt>
      <trkpt lat="45.55676" lon="2.91787">
        <ele>944.4</ele>
        <time>2021-08-26T08:17:30Z</time>
      </trkpt>
      <trkpt lat="45.5568" lon="2.9179">
        <ele>945.1</ele>
        <time>2021-08-26T08:17:32Z</time>
      </trkpt>
      <trkpt lat="45.55682" lon="2.91794">
        <ele>945.3</ele>
        <time>2021-08-26T08:17:34Z</time>
      </trkpt>
      <trkpt lat="45.55683" lon="2.91799">
        <ele>945.1</ele>
        <time>2021-08-26T08:17:36Z</time>
      </trkpt>
      <trkpt lat="45.55684" lon="2.91803">
        <ele>945</ele>
        <time>2021-08-26T08:17:38Z</time>
      </trkpt>
      <trkpt lat="45.55686" lon="2.91807">
        <ele>945.1</ele>
        <time>2021-08-26T08:17:40Z</time>
      </trkpt>
      <trkpt lat="45.55687" lon="2.9181">
        <ele>945</ele>
        <time>2021-08-26T08:17:42Z</time>
      </trkpt>
      <trkpt lat="45.55687" lon="2.91814">
        <ele>944.5</ele>
        <time>2021-08-26T08:17:44Z</time>
      </trkpt>
      <trkpt lat="45.55687" lon="2.91818">
        <ele>944.2</ele>
        <time>2021-08-26T08:17:46Z</time>
      </trkpt>
      <trkpt lat="45.55689" lon="2.91823">
        <ele>944.1</ele>
        <time>2021-08-26T08:17:48Z</time>
      </trkpt>
      <trkpt lat="45.55689" lon="2.91827">
        <ele>943.9</ele>
        <time>2021-08-26T08:17:50Z</time>
      </trkpt>
      <trkpt lat="45.5569" lon="2.9183">
        <ele>943.8</ele>
        <time>2021-08-26T08:17:52Z</time>
      </trkpt>
      <trkpt lat="45.55691" lon="2.91833">
        <ele>943.8</ele>
        <time>2021-08-26T08:17:54Z</time>
      </trkpt>
      <trkpt lat="45.55692" lon="2.91837">
        <ele>943.7</ele>
        <time>2021-08-26T08:17:56Z</time>
      </trkpt>
      <trkpt lat="45.55693" lon="2.91841">
        <ele>943.6</ele>
        <time>2021-08-26T08:17:58Z</time>
      </trkpt>
      <trkpt lat="45.55693" lon="2.91845">
        <ele>943.4</ele>
        <time>2021-08-26T08:18:00Z</time>
      </trkpt>
      <trkpt lat="45.55693" lon="2.91849">
        <ele>943.1</ele>
        <time>2021-08-26T08:18:02Z</time>
      </trkpt>
      <trkpt lat="45.55694" lon="2.91853">
        <ele>942.9</ele>
        <time>2021-08-26T08:18:04Z</time>
      </trkpt>
      <trkpt lat="45.55694" lon="2.91858">
        <ele>942.6</ele>
        <time>2021-08-26T08:18:06Z</time>
      </trkpt>
      <trkpt lat="45.55695" lon="2.91865">
        <ele>942.4</ele>
        <time>2021-08-26T08:18:08Z</time>
      </trkpt>
      <trkpt lat="45.55695" lon="2.91871">
        <ele>941.7</ele>
        <time>2021-08-26T08:18:10Z</time>
      </trkpt>
      <trkpt lat="45.55697" lon="2.91879">
        <ele>941.4</ele>
        <time>2021-08-26T08:18:12Z</time>
      </trkpt>
      <trkpt lat="45.55697" lon="2.91887">
        <ele>940.7</ele>
        <time>2021-08-26T08:18:14Z</time>
      </trkpt>
      <trkpt lat="45.55696" lon="2.91894">
        <ele>939.8</ele>
        <time>2021-08-26T08:18:16Z</time>
      </trkpt>
      <trkpt lat="45.55696" lon="2.91902">
        <ele>939.2</ele>
        <time>2021-08-26T08:18:18Z</time>
      </trkpt>
      <trkpt lat="45.55695" lon="2.91912">
        <ele>937.8</ele>
        <time>2021-08-26T08:18:20Z</time>
      </trkpt>
      <trkpt lat="45.55693" lon="2.91923">
        <ele>935.8</ele>
        <time>2021-08-26T08:18:22Z</time>
      </trkpt>
      <trkpt lat="45.5569" lon="2.91934">
        <ele>933.2</ele>
        <time>2021-08-26T08:18:24Z</time>
      </trkpt>
      <trkpt lat="45.55687" lon="2.91943">
        <ele>930.8</ele>
        <time>2021-08-26T08:18:26Z</time>
      </trkpt>
      <trkpt lat="45.55683" lon="2.91952">
        <ele>928.5</ele>
        <time>2021-08-26T08:18:28Z</time>
      </trkpt>
      <trkpt lat="45.5568" lon="2.91961">
        <ele>926.1</ele>
        <time>2021-08-26T08:18:30Z</time>
      </trkpt>
      <trkpt lat="45.55678" lon="2.9197">
        <ele>924.4</ele>
        <time>2021-08-26T08:18:32Z</time>
      </trkpt>
      <trkpt lat="45.55679" lon="2.91977">
        <ele>924.2</ele>
        <time>2021-08-26T08:18:34Z</time>
      </trkpt>
      <trkpt lat="45.55682" lon="2.9198">
        <ele>924.9</ele>
        <time>2021-08-26T08:18:36Z</time>
      </trkpt>
      <trkpt lat="45.55686" lon="2.91984">
        <ele>925.8</ele>
        <time>2021-08-26T08:18:38Z</time>
      </trkpt>
      <trkpt lat="45.5569" lon="2.91989">
        <ele>926.7</ele>
        <time>2021-08-26T08:18:40Z</time>
      </trkpt>
      <trkpt lat="45.55693" lon="2.91995">
        <ele>927.1</ele>
        <time>2021-08-26T08:18:42Z</time>
      </trkpt>
      <trkpt lat="45.55699" lon="2.92002">
        <ele>928.5</ele>
        <time>2021-08-26T08:18:44Z</time>
      </trkpt>
      <trkpt lat="45.55704" lon="2.92009">
        <ele>929.5</ele>
        <time>2021-08-26T08:18:46Z</time>
      </trkpt>
      <trkpt lat="45.55707" lon="2.92018">
        <ele>929.7</ele>
        <time>2021-08-26T08:18:48Z</time>
      </trkpt>
      <trkpt lat="45.55709" lon="2.92027">
        <ele>929.3</ele>
        <time>2021-08-26T08:18:50Z</time>
      </trkpt>
      <trkpt lat="45.55709" lon="2.92035">
        <ele>928.4</ele>
        <time>2021-08-26T08:18:52Z</time>
      </trkpt>
      <trkpt lat="45.55712" lon="2.92044">
        <ele>928.6</ele>
        <time>2021-08-26T08:18:54Z</time>
      </trkpt>
      <trkpt lat="45.55712" lon="2.92054">
        <ele>927.7</ele>
        <time>2021-08-26T08:18:56Z</time>
      </trkpt>
      <trkpt lat="45.55713" lon="2.92068">
        <ele>926.4</ele>
        <time>2021-08-26T08:18:58Z</time>
      </trkpt>
      <trkpt lat="45.55715" lon="2.92081">
        <ele>925.8</ele>
        <time>2021-08-26T08:19:00Z</time>
      </trkpt>
      <trkpt lat="45.55716" lon="2.92095">
        <ele>924.1</ele>
        <time>2021-08-26T08:19:02Z</time>
      </trkpt>
      <trkpt lat="45.55718" lon="2.92106">
        <ele>923.1</ele>
        <time>2021-08-26T08:19:04Z</time>
      </trkpt>
      <trkpt lat="45.55721" lon="2.92116">
        <ele>922.3</ele>
        <time>2021-08-26T08:19:06Z</time>
      </trkpt>
      <trkpt lat="45.55723" lon="2.92129">
        <ele>920.8</ele>
        <time>2021-08-26T08:19:08Z</time>
      </trkpt>
      <trkpt lat="45.55726" lon="2.9214">
        <ele>919.7</ele>
        <time>2021-08-26T08:19:10Z</time>
      </trkpt>
      <trkpt lat="45.55729" lon="2.92152">
        <ele>918.4</ele>
        <time>2021-08-26T08:19:12Z</time>
      </trkpt>
      <trkpt lat="45.55733" lon="2.92165">
        <ele>916.7</ele>
        <time>2021-08-26T08:19:14Z</time>
      </trkpt>
      <trkpt lat="45.55737" lon="2.92177">
        <ele>916.1</ele>
        <time>2021-08-26T08:19:16Z</time>
      </trkpt>
      <trkpt lat="45.55741" lon="2.92189">
        <ele>915.4</ele>
        <time>2021-08-26T08:19:18Z</time>
      </trkpt>
      <trkpt lat="45.55743" lon="2.92202">
        <ele>914.1</ele>
        <time>2021-08-26T08:19:20Z</time>
      </trkpt>
      <trkpt lat="45.55744" lon="2.92217">
        <ele>912.4</ele>
        <time>2021-08-26T08:19:22Z</time>
      </trkpt>
      <trkpt lat="45.55746" lon="2.92229">
        <ele>911.1</ele>
        <time>2021-08-26T08:19:24Z</time>
      </trkpt>
      <trkpt lat="45.55746" lon="2.92244">
        <ele>909.2</ele>
        <time>2021-08-26T08:19:26Z</time>
      </trkpt>
      <trkpt lat="45.55748" lon="2.92257">
        <ele>907.8</ele>
        <time>2021-08-26T08:19:28Z</time>
      </trkpt>
      <trkpt lat="45.55751" lon="2.92266">
        <ele>907.5</ele>
        <time>2021-08-26T08:19:30Z</time>
      </trkpt>
      <trkpt lat="45.55755" lon="2.92275">
        <ele>908.3</ele>
        <time>2021-08-26T08:19:32Z</time>
      </trkpt>
      <trkpt lat="45.5576" lon="2.92285">
        <ele>909.1</ele>
        <time>2021-08-26T08:19:34Z</time>
      </trkpt>
      <trkpt lat="45.55763" lon="2.92294">
        <ele>909.3</ele>
        <time>2021-08-26T08:19:36Z</time>
      </trkpt>
      <trkpt lat="45.55767" lon="2.92302">
        <ele>910.1</ele>
        <time>2021-08-26T08:19:38Z</time>
      </trkpt>
      <trkpt lat="45.5577" lon="2.92308">
        <ele>910.6</ele>
        <time>2021-08-26T08:19:40Z</time>
      </trkpt>
      <trkpt lat="45.55772" lon="2.92316">
        <ele>910.6</ele>
        <time>2021-08-26T08:19:42Z</time>
      </trkpt>
      <trkpt lat="45.55776" lon="2.92324">
        <ele>911.4</ele>
        <time>2021-08-26T08:19:44Z</time>
      </trkpt>
      <trkpt lat="45.5578" lon="2.92329">
        <ele>912.2</ele>
        <time>2021-08-26T08:19:46Z</time>
      </trkpt>
      <trkpt lat="45.55783" lon="2.92336">
        <ele>912.8</ele>
        <time>2021-08-26T08:19:48Z</time>
      </trkpt>
      <trkpt lat="45.55788" lon="2.92345">
        <ele>913.5</ele>
        <time>2021-08-26T08:19:50Z</time>
      </trkpt>
      <trkpt lat="45.55792" lon="2.92353">
        <ele>913.8</ele>
        <time>2021-08-26T08:19:52Z</time>
      </trkpt>
      <trkpt lat="45.55798" lon="2.9236">
        <ele>915.1</ele>
        <time>2021-08-26T08:19:54Z</time>
      </trkpt>
      <trkpt lat="45.55802" lon="2.92368">
        <ele>915.3</ele>
        <time>2021-08-26T08:19:56Z</time>
      </trkpt>
      <trkpt lat="45.55806" lon="2.92375">
        <ele>915.3</ele>
        <time>2021-08-26T08:19:58Z</time>
      </trkpt>
      <trkpt lat="45.55809" lon="2.92386">
        <ele>914.2</ele>
        <time>2021-08-26T08:20:00Z</time>
      </trkpt>
      <trkpt lat="45.55812" lon="2.92396">
        <ele>913</ele>
        <time>2021-08-26T08:20:02Z</time>
      </trkpt>
      <trkpt lat="45.55816" lon="2.92407">
        <ele>911.8</ele>
        <time>2021-08-26T08:20:04Z</time>
      </trkpt>
      <trkpt lat="45.5582" lon="2.92414">
        <ele>911.2</ele>
        <time>2021-08-26T08:20:06Z</time>
      </trkpt>
      <trkpt lat="45.55822" lon="2.92424">
        <ele>909.5</ele>
        <time>2021-08-26T08:20:08Z</time>
      </trkpt>
      <trkpt lat="45.55826" lon="2.92433">
        <ele>908</ele>
        <time>2021-08-26T08:20:10Z</time>
      </trkpt>
      <trkpt lat="45.5583" lon="2.92442">
        <ele>906.7</ele>
        <time>2021-08-26T08:20:12Z</time>
      </trkpt>
      <trkpt lat="45.55835" lon="2.92452">
        <ele>905.5</ele>
        <time>2021-08-26T08:20:14Z</time>
      </trkpt>
      <trkpt lat="45.55841" lon="2.92461">
        <ele>905.4</ele>
        <time>2021-08-26T08:20:16Z</time>
      </trkpt>
      <trkpt lat="45.55843" lon="2.92471">
        <ele>903.9</ele>
        <time>2021-08-26T08:20:18Z</time>
      </trkpt>
      <trkpt lat="45.55848" lon="2.92478">
        <ele>903.7</ele>
        <time>2021-08-26T08:20:20Z</time>
      </trkpt>
      <trkpt lat="45.55852" lon="2.92487">
        <ele>903.1</ele>
        <time>2021-08-26T08:20:22Z</time>
      </trkpt>
      <trkpt lat="45.55857" lon="2.92498">
        <ele>902.2</ele>
        <time>2021-08-26T08:20:24Z</time>
      </trkpt>
      <trkpt lat="45.55863" lon="2.92506">
        <ele>902.6</ele>
        <time>2021-08-26T08:20:26Z</time>
      </trkpt>
      <trkpt lat="45.55866" lon="2.92516">
        <ele>901.2</ele>
        <time>2021-08-26T08:20:28Z</time>
      </trkpt>
      <trkpt lat="45.55869" lon="2.92525">
        <ele>899.8</ele>
        <time>2021-08-26T08:20:30Z</time>
      </trkpt>
      <trkpt lat="45.55872" lon="2.92536">
        <ele>898</ele>
        <time>2021-08-26T08:20:32Z</time>
      </trkpt>
      <trkpt lat="45.55874" lon="2.92548">
        <ele>895.3</ele>
        <time>2021-08-26T08:20:34Z</time>
      </trkpt>
      <trkpt lat="45.5588" lon="2.92556">
        <ele>894.4</ele>
        <time>2021-08-26T08:20:36Z</time>
      </trkpt>
      <trkpt lat="45.55883" lon="2.9257">
        <ele>891.4</ele>
        <time>2021-08-26T08:20:38Z</time>
      </trkpt>
      <trkpt lat="45.55888" lon="2.92583">
        <ele>888.3</ele>
        <time>2021-08-26T08:20:40Z</time>
      </trkpt>
      <trkpt lat="45.55892" lon="2.92597">
        <ele>887.6</ele>
        <time>2021-08-26T08:20:42Z</time>
      </trkpt>
      <trkpt lat="45.55898" lon="2.9261">
        <ele>886.9</ele>
        <time>2021-08-26T08:20:44Z</time>
      </trkpt>
      <trkpt lat="45.55902" lon="2.92625">
        <ele>885.2</ele>
        <time>2021-08-26T08:20:46Z</time>
      </trkpt>
      <trkpt lat="45.55908" lon="2.92639">
        <ele>883.2</ele>
        <time>2021-08-26T08:20:48Z</time>
      </trkpt>
      <trkpt lat="45.55912" lon="2.92654">
        <ele>880.7</ele>
        <time>2021-08-26T08:20:50Z</time>
      </trkpt>
      <trkpt lat="45.55918" lon="2.92667">
        <ele>878.1</ele>
        <time>2021-08-26T08:20:52Z</time>
      </trkpt>
      <trkpt lat="45.55923" lon="2.92681">
        <ele>879.1</ele>
        <time>2021-08-26T08:20:54Z</time>
      </trkpt>
      <trkpt lat="45.55928" lon="2.92696">
        <ele>879.8</ele>
        <time>2021-08-26T08:20:56Z</time>
      </trkpt>
      <trkpt lat="45.55933" lon="2.9271">
        <ele>880.3</ele>
        <time>2021-08-26T08:20:58Z</time>
      </trkpt>
      <trkpt lat="45.55939" lon="2.92724">
        <ele>880.6</ele>
        <time>2021-08-26T08:21:00Z</time>
      </trkpt>
      <trkpt lat="45.55943" lon="2.9274">
        <ele>880.7</ele>
        <time>2021-08-26T08:21:02Z</time>
      </trkpt>
      <trkpt lat="45.55947" lon="2.92751">
        <ele>880.6</ele>
        <time>2021-08-26T08:21:04Z</time>
      </trkpt>
      <trkpt lat="45.55951" lon="2.92762">
        <ele>881.4</ele>
        <time>2021-08-26T08:21:06Z</time>
      </trkpt>
      <trkpt lat="45.55954" lon="2.92774">
        <ele>882.3</ele>
        <time>2021-08-26T08:21:08Z</time>
      </trkpt>
      <trkpt lat="45.55957" lon="2.92786">
        <ele>883</ele>
        <time>2021-08-26T08:21:10Z</time>
      </trkpt>
      <trkpt lat="45.55958" lon="2.928">
        <ele>884</ele>
        <time>2021-08-26T08:21:12Z</time>
      </trkpt>
      <trkpt lat="45.55955" lon="2.92813">
        <ele>885.5</ele>
        <time>2021-08-26T08:21:14Z</time>
      </trkpt>
      <trkpt lat="45.55951" lon="2.92825">
        <ele>887.4</ele>
        <time>2021-08-26T08:21:16Z</time>
      </trkpt>
      <trkpt lat="45.55948" lon="2.92832">
        <ele>888.6</ele>
        <time>2021-08-26T08:21:18Z</time>
      </trkpt>
      <trkpt lat="45.55946" lon="2.92838">
        <ele>889.6</ele>
        <time>2021-08-26T08:21:20Z</time>
      </trkpt>
      <trkpt lat="45.55943" lon="2.92847">
        <ele>890.8</ele>
        <time>2021-08-26T08:21:22Z</time>
      </trkpt>
      <trkpt lat="45.55944" lon="2.92857">
        <ele>891.2</ele>
        <time>2021-08-26T08:21:24Z</time>
      </trkpt>
      <trkpt lat="45.55945" lon="2.92867">
        <ele>891.5</ele>
        <time>2021-08-26T08:21:26Z</time>
      </trkpt>
      <trkpt lat="45.55948" lon="2.92877">
        <ele>891</ele>
        <time>2021-08-26T08:21:28Z</time>
      </trkpt>
      <trkpt lat="45.55952" lon="2.92886">
        <ele>890.2</ele>
        <time>2021-08-26T08:21:30Z</time>
      </trkpt>
      <trkpt lat="45.55954" lon="2.92895">
        <ele>889.8</ele>
        <time>2021-08-26T08:21:32Z</time>
      </trkpt>
      <trkpt lat="45.55955" lon="2.92906">
        <ele>889.6</ele>
        <time>2021-08-26T08:21:34Z</time>
      </trkpt>
      <trkpt lat="45.55956" lon="2.92918">
        <ele>889.4</ele>
        <time>2021-08-26T08:21:36Z</time>
      </trkpt>
      <trkpt lat="45.55956" lon="2.9293">
        <ele>888.4</ele>
        <time>2021-08-26T08:21:38Z</time>
      </trkpt>
      <trkpt lat="45.55957" lon="2.92941">
        <ele>887.4</ele>
        <time>2021-08-26T08:21:40Z</time>
      </trkpt>
      <trkpt lat="45.5596" lon="2.92947">
        <ele>885.6</ele>
        <time>2021-08-26T08:21:42Z</time>
      </trkpt>
      <trkpt lat="45.55962" lon="2.92951">
        <ele>884.6</ele>
        <time>2021-08-26T08:21:44Z</time>
      </trkpt>
      <trkpt lat="45.55962" lon="2.92954">
        <ele>884.3</ele>
        <time>2021-08-26T08:21:46Z</time>
      </trkpt>
      <trkpt lat="45.55962" lon="2.92954">
        <ele>884.5</ele>
        <time>2021-08-26T08:21:48Z</time>
      </trkpt>
      <trkpt lat="45.55962" lon="2.92954">
        <ele>884.4</ele>
        <time>2021-08-26T08:21:50Z</time>
      </trkpt>
      <trkpt lat="45.55962" lon="2.92954">
        <ele>884.2</ele>
        <time>2021-08-26T08:21:52Z</time>
      </trkpt>
      <trkpt lat="45.55962" lon="2.92954">
        <ele>884.2</ele>
        <time>2021-08-26T08:21:54Z</time>
      </trkpt>
      <trkpt lat="45.55967" lon="2.92977">
        <ele>880.7</ele>
        <time>2021-08-26T08:24:22Z</time>
      </trkpt>
      <trkpt lat="45.55968" lon="2.92981">
        <ele>879.8</ele>
        <time>2021-08-26T08:24:24Z</time>
      </trkpt>
      <trkpt lat="45.5597" lon="2.92986">
        <ele>878.9</ele>
        <time>2021-08-26T08:24:26Z</time>
      </trkpt>
      <trkpt lat="45.55972" lon="2.92991">
        <ele>877.8</ele>
        <time>2021-08-26T08:24:28Z</time>
      </trkpt>
      <trkpt lat="45.55974" lon="2.92996">
        <ele>876.6</ele>
        <time>2021-08-26T08:24:30Z</time>
      </trkpt>
      <trkpt lat="45.55975" lon="2.93">
        <ele>875.8</ele>
        <time>2021-08-26T08:24:32Z</time>
      </trkpt>
      <trkpt lat="45.55977" lon="2.93006">
        <ele>874.8</ele>
        <time>2021-08-26T08:24:34Z</time>
      </trkpt>
      <trkpt lat="45.55979" lon="2.93012">
        <ele>873.6</ele>
        <time>2021-08-26T08:24:36Z</time>
      </trkpt>
      <trkpt lat="45.5598" lon="2.93018">
        <ele>872.8</ele>
        <time>2021-08-26T08:24:38Z</time>
      </trkpt>
      <trkpt lat="45.55981" lon="2.93024">
        <ele>872.2</ele>
        <time>2021-08-26T08:24:40Z</time>
      </trkpt>
      <trkpt lat="45.55981" lon="2.93028">
        <ele>871.7</ele>
        <time>2021-08-26T08:24:42Z</time>
      </trkpt>
      <trkpt lat="45.55983" lon="2.93032">
        <ele>871</ele>
        <time>2021-08-26T08:24:44Z</time>
      </trkpt>
      <trkpt lat="45.55983" lon="2.93036">
        <ele>870.6</ele>
        <time>2021-08-26T08:24:46Z</time>
      </trkpt>
      <trkpt lat="45.55985" lon="2.93039">
        <ele>869.9</ele>
        <time>2021-08-26T08:24:48Z</time>
      </trkpt>
      <trkpt lat="45.55987" lon="2.9304">
        <ele>869.2</ele>
        <time>2021-08-26T08:24:50Z</time>
      </trkpt>
      <trkpt lat="45.55988" lon="2.9304">
        <ele>869</ele>
        <time>2021-08-26T08:24:52Z</time>
      </trkpt>
      <trkpt lat="45.55987" lon="2.9304">
        <ele>869.2</ele>
        <time>2021-08-26T08:24:54Z</time>
      </trkpt>
      <trkpt lat="45.55987" lon="2.9304">
        <ele>869.2</ele>
        <time>2021-08-26T08:24:56Z</time>
      </trkpt>
      <trkpt lat="45.55987" lon="2.9304">
        <ele>869.3</ele>
        <time>2021-08-26T08:24:58Z</time>
      </trkpt>
      <trkpt lat="45.55989" lon="2.93041">
        <ele>868.7</ele>
        <time>2021-08-26T08:25:46Z</time>
      </trkpt>
      <trkpt lat="45.55992" lon="2.93042">
        <ele>867.7</ele>
        <time>2021-08-26T08:25:48Z</time>
      </trkpt>
      <trkpt lat="45.55995" lon="2.93042">
        <ele>866.8</ele>
        <time>2021-08-26T08:25:50Z</time>
      </trkpt>
      <trkpt lat="45.56" lon="2.9304">
        <ele>865.7</ele>
        <time>2021-08-26T08:25:52Z</time>
      </trkpt>
      <trkpt lat="45.56004" lon="2.93039">
        <ele>865.5</ele>
        <time>2021-08-26T08:25:54Z</time>
      </trkpt>
      <trkpt lat="45.56008" lon="2.93037">
        <ele>865.5</ele>
        <time>2021-08-26T08:25:56Z</time>
      </trkpt>
      <trkpt lat="45.56013" lon="2.93036">
        <ele>865.5</ele>
        <time>2021-08-26T08:25:58Z</time>
      </trkpt>
      <trkpt lat="45.56019" lon="2.93037">
        <ele>865.4</ele>
        <time>2021-08-26T08:26:00Z</time>
      </trkpt>
      <trkpt lat="45.5602" lon="2.93045">
        <ele>865.3</ele>
        <time>2021-08-26T08:26:02Z</time>
      </trkpt>
      <trkpt lat="45.56021" lon="2.9305">
        <ele>865.3</ele>
        <time>2021-08-26T08:26:04Z</time>
      </trkpt>
      <trkpt lat="45.56021" lon="2.93049">
        <ele>865.3</ele>
        <time>2021-08-26T08:26:06Z</time>
      </trkpt>
      <trkpt lat="45.56021" lon="2.9305">
        <ele>865.3</ele>
        <time>2021-08-26T08:26:08Z</time>
      </trkpt>
      <trkpt lat="45.56021" lon="2.9305">
        <ele>865.3</ele>
        <time>2021-08-26T08:26:10Z</time>
      </trkpt>
      <trkpt lat="45.56021" lon="2.9305">
        <ele>865.3</ele>
        <time>2021-08-26T08:26:12Z</time>
      </trkpt>
      <trkpt lat="45.56029" lon="2.93029">
        <ele>865.4</ele>
        <time>2021-08-26T08:28:18Z</time>
      </trkpt>
      <trkpt lat="45.56031" lon="2.93026">
        <ele>865.4</ele>
        <time>2021-08-26T08:28:20Z</time>
      </trkpt>
      <trkpt lat="45.56035" lon="2.93024">
        <ele>865.4</ele>
        <time>2021-08-26T08:28:22Z</time>
      </trkpt>
      <trkpt lat="45.56038" lon="2.9302">
        <ele>865.4</ele>
        <time>2021-08-26T08:28:24Z</time>
      </trkpt>
      <trkpt lat="45.56042" lon="2.93018">
        <ele>865.4</ele>
        <time>2021-08-26T08:28:26Z</time>
      </trkpt>
      <trkpt lat="45.56046" lon="2.93015">
        <ele>865.4</ele>
        <time>2021-08-26T08:28:28Z</time>
      </trkpt>
      <trkpt lat="45.56051" lon="2.93013">
        <ele>865.3</ele>
        <time>2021-08-26T08:28:30Z</time>
      </trkpt>
      <trkpt lat="45.56057" lon="2.9301">
        <ele>865.3</ele>
        <time>2021-08-26T08:28:32Z</time>
      </trkpt>
      <trkpt lat="45.56063" lon="2.93008">
        <ele>865.2</ele>
        <time>2021-08-26T08:28:34Z</time>
      </trkpt>
      <trkpt lat="45.56069" lon="2.93006">
        <ele>865.2</ele>
        <time>2021-08-26T08:28:36Z</time>
      </trkpt>
      <trkpt lat="45.56074" lon="2.93008">
        <ele>865.1</ele>
        <time>2021-08-26T08:28:38Z</time>
      </trkpt>
      <trkpt lat="45.56077" lon="2.9301">
        <ele>865.1</ele>
        <time>2021-08-26T08:28:40Z</time>
      </trkpt>
      <trkpt lat="45.56076" lon="2.9301">
        <ele>865.1</ele>
        <time>2021-08-26T08:28:42Z</time>
      </trkpt>
      <trkpt lat="45.56077" lon="2.9301">
        <ele>865.1</ele>
        <time>2021-08-26T08:28:44Z</time>
      </trkpt>
      <trkpt lat="45.56077" lon="2.93011">
        <ele>865.1</ele>
        <time>2021-08-26T08:28:46Z</time>
      </trkpt>
      <trkpt lat="45.56077" lon="2.93011">
        <ele>865.1</ele>
        <time>2021-08-26T08:28:48Z</time>
      </trkpt>
      <trkpt lat="45.56085" lon="2.9302">
        <ele>865.3</ele>
        <time>2021-08-26T08:29:34Z</time>
      </trkpt>
      <trkpt lat="45.56088" lon="2.93027">
        <ele>865.9</ele>
        <time>2021-08-26T08:29:36Z</time>
      </trkpt>
      <trkpt lat="45.56093" lon="2.93036">
        <ele>866.6</ele>
        <time>2021-08-26T08:29:38Z</time>
      </trkpt>
      <trkpt lat="45.56096" lon="2.93045">
        <ele>867</ele>
        <time>2021-08-26T08:29:40Z</time>
      </trkpt>
      <trkpt lat="45.56102" lon="2.93054">
        <ele>867.5</ele>
        <time>2021-08-26T08:29:42Z</time>
      </trkpt>
      <trkpt lat="45.56107" lon="2.93064">
        <ele>867.8</ele>
        <time>2021-08-26T08:29:44Z</time>
      </trkpt>
      <trkpt lat="45.56112" lon="2.93075">
        <ele>867.9</ele>
        <time>2021-08-26T08:29:46Z</time>
      </trkpt>
      <trkpt lat="45.56118" lon="2.93085">
        <ele>867.8</ele>
        <time>2021-08-26T08:29:48Z</time>
      </trkpt>
      <trkpt lat="45.56123" lon="2.93096">
        <ele>867.8</ele>
        <time>2021-08-26T08:29:50Z</time>
      </trkpt>
      <trkpt lat="45.56129" lon="2.93107">
        <ele>867.8</ele>
        <time>2021-08-26T08:29:52Z</time>
      </trkpt>
      <trkpt lat="45.56134" lon="2.93117">
        <ele>867.7</ele>
        <time>2021-08-26T08:29:54Z</time>
      </trkpt>
      <trkpt lat="45.56139" lon="2.93128">
        <ele>867.5</ele>
        <time>2021-08-26T08:29:56Z</time>
      </trkpt>
      <trkpt lat="45.56145" lon="2.93138">
        <ele>867.4</ele>
        <time>2021-08-26T08:29:58Z</time>
      </trkpt>
      <trkpt lat="45.56151" lon="2.93149">
        <ele>867.2</ele>
        <time>2021-08-26T08:30:00Z</time>
      </trkpt>
      <trkpt lat="45.56155" lon="2.9316">
        <ele>866.8</ele>
        <time>2021-08-26T08:30:02Z</time>
      </trkpt>
      <trkpt lat="45.5616" lon="2.93172">
        <ele>866.7</ele>
        <time>2021-08-26T08:30:04Z</time>
      </trkpt>
      <trkpt lat="45.56165" lon="2.93184">
        <ele>866.9</ele>
        <time>2021-08-26T08:30:06Z</time>
      </trkpt>
      <trkpt lat="45.56169" lon="2.93196">
        <ele>867.8</ele>
        <time>2021-08-26T08:30:08Z</time>
      </trkpt>
      <trkpt lat="45.56174" lon="2.93208">
        <ele>869.4</ele>
        <time>2021-08-26T08:30:10Z</time>
      </trkpt>
      <trkpt lat="45.56178" lon="2.93221">
        <ele>870.7</ele>
        <time>2021-08-26T08:30:12Z</time>
      </trkpt>
      <trkpt lat="45.56181" lon="2.93234">
        <ele>872</ele>
        <time>2021-08-26T08:30:14Z</time>
      </trkpt>
      <trkpt lat="45.56185" lon="2.93246">
        <ele>873.2</ele>
        <time>2021-08-26T08:30:16Z</time>
      </trkpt>
      <trkpt lat="45.56188" lon="2.93257">
        <ele>873.7</ele>
        <time>2021-08-26T08:30:18Z</time>
      </trkpt>
      <trkpt lat="45.5619" lon="2.93268">
        <ele>873.9</ele>
        <time>2021-08-26T08:30:20Z</time>
      </trkpt>
      <trkpt lat="45.56191" lon="2.9328">
        <ele>873.7</ele>
        <time>2021-08-26T08:30:22Z</time>
      </trkpt>
      <trkpt lat="45.56193" lon="2.9329">
        <ele>873.9</ele>
        <time>2021-08-26T08:30:24Z</time>
      </trkpt>
      <trkpt lat="45.56194" lon="2.93299">
        <ele>873.9</ele>
        <time>2021-08-26T08:30:26Z</time>
      </trkpt>
      <trkpt lat="45.56196" lon="2.93309">
        <ele>874</ele>
        <time>2021-08-26T08:30:28Z</time>
      </trkpt>
      <trkpt lat="45.56197" lon="2.93319">
        <ele>873.9</ele>
        <time>2021-08-26T08:30:30Z</time>
      </trkpt>
      <trkpt lat="45.56199" lon="2.9333">
        <ele>874</ele>
        <time>2021-08-26T08:30:32Z</time>
      </trkpt>
      <trkpt lat="45.56201" lon="2.9334">
        <ele>874.1</ele>
        <time>2021-08-26T08:30:34Z</time>
      </trkpt>
      <trkpt lat="45.56204" lon="2.93352">
        <ele>874.2</ele>
        <time>2021-08-26T08:30:36Z</time>
      </trkpt>
      <trkpt lat="45.56206" lon="2.93365">
        <ele>874.2</ele>
        <time>2021-08-26T08:30:38Z</time>
      </trkpt>
      <trkpt lat="45.56208" lon="2.93377">
        <ele>874.3</ele>
        <time>2021-08-26T08:30:40Z</time>
      </trkpt>
      <trkpt lat="45.5621" lon="2.93392">
        <ele>874.2</ele>
        <time>2021-08-26T08:30:42Z</time>
      </trkpt>
      <trkpt lat="45.56212" lon="2.93406">
        <ele>874.1</ele>
        <time>2021-08-26T08:30:44Z</time>
      </trkpt>
      <trkpt lat="45.56215" lon="2.93421">
        <ele>874.1</ele>
        <time>2021-08-26T08:30:46Z</time>
      </trkpt>
      <trkpt lat="45.56217" lon="2.93437">
        <ele>874.2</ele>
        <time>2021-08-26T08:30:48Z</time>
      </trkpt>
      <trkpt lat="45.5622" lon="2.93453">
        <ele>874.2</ele>
        <time>2021-08-26T08:30:50Z</time>
      </trkpt>
      <trkpt lat="45.56222" lon="2.93469">
        <ele>874.2</ele>
        <time>2021-08-26T08:30:52Z</time>
      </trkpt>
      <trkpt lat="45.56225" lon="2.93487">
        <ele>874.2</ele>
        <time>2021-08-26T08:30:54Z</time>
      </trkpt>
      <trkpt lat="45.56227" lon="2.93504">
        <ele>874.2</ele>
        <time>2021-08-26T08:30:56Z</time>
      </trkpt>
      <trkpt lat="45.56229" lon="2.93521">
        <ele>874.1</ele>
        <time>2021-08-26T08:30:58Z</time>
      </trkpt>
      <trkpt lat="45.56232" lon="2.93538">
        <ele>874.1</ele>
        <time>2021-08-26T08:31:00Z</time>
      </trkpt>
      <trkpt lat="45.56234" lon="2.93555">
        <ele>874.1</ele>
        <time>2021-08-26T08:31:02Z</time>
      </trkpt>
      <trkpt lat="45.56236" lon="2.93573">
        <ele>874</ele>
        <time>2021-08-26T08:31:04Z</time>
      </trkpt>
      <trkpt lat="45.56238" lon="2.9359">
        <ele>873.5</ele>
        <time>2021-08-26T08:31:06Z</time>
      </trkpt>
      <trkpt lat="45.5624" lon="2.93608">
        <ele>872.3</ele>
        <time>2021-08-26T08:31:08Z</time>
      </trkpt>
      <trkpt lat="45.56242" lon="2.93625">
        <ele>870.9</ele>
        <time>2021-08-26T08:31:10Z</time>
      </trkpt>
      <trkpt lat="45.56244" lon="2.93642">
        <ele>869.7</ele>
        <time>2021-08-26T08:31:12Z</time>
      </trkpt>
      <trkpt lat="45.56246" lon="2.93659">
        <ele>868.3</ele>
        <time>2021-08-26T08:31:14Z</time>
      </trkpt>
      <trkpt lat="45.56249" lon="2.93676">
        <ele>867.2</ele>
        <time>2021-08-26T08:31:16Z</time>
      </trkpt>
      <trkpt lat="45.56251" lon="2.93691">
        <ele>866.4</ele>
        <time>2021-08-26T08:31:18Z</time>
      </trkpt>
      <trkpt lat="45.56255" lon="2.93707">
        <ele>865.6</ele>
        <time>2021-08-26T08:31:20Z</time>
      </trkpt>
      <trkpt lat="45.56262" lon="2.93719">
        <ele>865.2</ele>
        <time>2021-08-26T08:31:22Z</time>
      </trkpt>
      <trkpt lat="45.56271" lon="2.93726">
        <ele>865.2</ele>
        <time>2021-08-26T08:31:24Z</time>
      </trkpt>
      <trkpt lat="45.56283" lon="2.93729">
        <ele>865.6</ele>
        <time>2021-08-26T08:31:26Z</time>
      </trkpt>
      <trkpt lat="45.56294" lon="2.93729">
        <ele>866.4</ele>
        <time>2021-08-26T08:31:28Z</time>
      </trkpt>
      <trkpt lat="45.56306" lon="2.93732">
        <ele>866.7</ele>
        <time>2021-08-26T08:31:30Z</time>
      </trkpt>
      <trkpt lat="45.56318" lon="2.93734">
        <ele>866.9</ele>
        <time>2021-08-26T08:31:32Z</time>
      </trkpt>
      <trkpt lat="45.56331" lon="2.93737">
        <ele>866.9</ele>
        <time>2021-08-26T08:31:34Z</time>
      </trkpt>
      <trkpt lat="45.56342" lon="2.93741">
        <ele>866.1</ele>
        <time>2021-08-26T08:31:36Z</time>
      </trkpt>
      <trkpt lat="45.56354" lon="2.93747">
        <ele>864.4</ele>
        <time>2021-08-26T08:31:38Z</time>
      </trkpt>
      <trkpt lat="45.56364" lon="2.93756">
        <ele>862.8</ele>
        <time>2021-08-26T08:31:40Z</time>
      </trkpt>
      <trkpt lat="45.56373" lon="2.93764">
        <ele>861.6</ele>
        <time>2021-08-26T08:31:42Z</time>
      </trkpt>
      <trkpt lat="45.56382" lon="2.9377">
        <ele>860.5</ele>
        <time>2021-08-26T08:31:44Z</time>
      </trkpt>
      <trkpt lat="45.56392" lon="2.93778">
        <ele>859.2</ele>
        <time>2021-08-26T08:31:46Z</time>
      </trkpt>
      <trkpt lat="45.56402" lon="2.93785">
        <ele>857.9</ele>
        <time>2021-08-26T08:31:48Z</time>
      </trkpt>
      <trkpt lat="45.56413" lon="2.93793">
        <ele>856.3</ele>
        <time>2021-08-26T08:31:50Z</time>
      </trkpt>
      <trkpt lat="45.56424" lon="2.93803">
        <ele>854.9</ele>
        <time>2021-08-26T08:31:52Z</time>
      </trkpt>
      <trkpt lat="45.56435" lon="2.93811">
        <ele>853.8</ele>
        <time>2021-08-26T08:31:54Z</time>
      </trkpt>
      <trkpt lat="45.56447" lon="2.9382">
        <ele>852.5</ele>
        <time>2021-08-26T08:31:56Z</time>
      </trkpt>
      <trkpt lat="45.56459" lon="2.93828">
        <ele>851.4</ele>
        <time>2021-08-26T08:31:58Z</time>
      </trkpt>
      <trkpt lat="45.56471" lon="2.93834">
        <ele>850.6</ele>
        <time>2021-08-26T08:32:00Z</time>
      </trkpt>
      <trkpt lat="45.56483" lon="2.93837">
        <ele>850.6</ele>
        <time>2021-08-26T08:32:02Z</time>
      </trkpt>
      <trkpt lat="45.56495" lon="2.93839">
        <ele>850.6</ele>
        <time>2021-08-26T08:32:04Z</time>
      </trkpt>
      <trkpt lat="45.56507" lon="2.93839">
        <ele>850.8</ele>
        <time>2021-08-26T08:32:06Z</time>
      </trkpt>
      <trkpt lat="45.56519" lon="2.9384">
        <ele>851</ele>
        <time>2021-08-26T08:32:08Z</time>
      </trkpt>
      <trkpt lat="45.5653" lon="2.93841">
        <ele>851.2</ele>
        <time>2021-08-26T08:32:10Z</time>
      </trkpt>
      <trkpt lat="45.56541" lon="2.93843">
        <ele>851.4</ele>
        <time>2021-08-26T08:32:12Z</time>
      </trkpt>
      <trkpt lat="45.56551" lon="2.93844">
        <ele>851.6</ele>
        <time>2021-08-26T08:32:14Z</time>
      </trkpt>
      <trkpt lat="45.56561" lon="2.93846">
        <ele>851.7</ele>
        <time>2021-08-26T08:32:16Z</time>
      </trkpt>
      <trkpt lat="45.56571" lon="2.93852">
        <ele>851.6</ele>
        <time>2021-08-26T08:32:18Z</time>
      </trkpt>
      <trkpt lat="45.56581" lon="2.93858">
        <ele>851.4</ele>
        <time>2021-08-26T08:32:20Z</time>
      </trkpt>
      <trkpt lat="45.56589" lon="2.93867">
        <ele>851.4</ele>
        <time>2021-08-26T08:32:22Z</time>
      </trkpt>
      <trkpt lat="45.56597" lon="2.93875">
        <ele>851.3</ele>
        <time>2021-08-26T08:32:24Z</time>
      </trkpt>
      <trkpt lat="45.56606" lon="2.93883">
        <ele>851.3</ele>
        <time>2021-08-26T08:32:26Z</time>
      </trkpt>
      <trkpt lat="45.56615" lon="2.93889">
        <ele>851.4</ele>
        <time>2021-08-26T08:32:28Z</time>
      </trkpt>
      <trkpt lat="45.56624" lon="2.93894">
        <ele>851.5</ele>
        <time>2021-08-26T08:32:30Z</time>
      </trkpt>
      <trkpt lat="45.56634" lon="2.93898">
        <ele>851.8</ele>
        <time>2021-08-26T08:32:32Z</time>
      </trkpt>
      <trkpt lat="45.56644" lon="2.93901">
        <ele>852.1</ele>
        <time>2021-08-26T08:32:34Z</time>
      </trkpt>
      <trkpt lat="45.56654" lon="2.93904">
        <ele>852.4</ele>
        <time>2021-08-26T08:32:36Z</time>
      </trkpt>
      <trkpt lat="45.56663" lon="2.93908">
        <ele>852.6</ele>
        <time>2021-08-26T08:32:38Z</time>
      </trkpt>
      <trkpt lat="45.56673" lon="2.93911">
        <ele>853.1</ele>
        <time>2021-08-26T08:32:40Z</time>
      </trkpt>
      <trkpt lat="45.56682" lon="2.93913">
        <ele>853.8</ele>
        <time>2021-08-26T08:32:42Z</time>
      </trkpt>
      <trkpt lat="45.56691" lon="2.93916">
        <ele>854.4</ele>
        <time>2021-08-26T08:32:44Z</time>
      </trkpt>
      <trkpt lat="45.567" lon="2.93919">
        <ele>855</ele>
        <time>2021-08-26T08:32:46Z</time>
      </trkpt>
      <trkpt lat="45.56708" lon="2.93922">
        <ele>855.6</ele>
        <time>2021-08-26T08:32:48Z</time>
      </trkpt>
      <trkpt lat="45.56715" lon="2.93924">
        <ele>856.2</ele>
        <time>2021-08-26T08:32:50Z</time>
      </trkpt>
      <trkpt lat="45.56723" lon="2.93927">
        <ele>856.7</ele>
        <time>2021-08-26T08:32:52Z</time>
      </trkpt>
      <trkpt lat="45.5673" lon="2.9393">
        <ele>857.2</ele>
        <time>2021-08-26T08:32:54Z</time>
      </trkpt>
      <trkpt lat="45.56737" lon="2.93933">
        <ele>857.5</ele>
        <time>2021-08-26T08:32:56Z</time>
      </trkpt>
      <trkpt lat="45.56744" lon="2.93937">
        <ele>857.8</ele>
        <time>2021-08-26T08:32:58Z</time>
      </trkpt>
      <trkpt lat="45.56751" lon="2.93941">
        <ele>858</ele>
        <time>2021-08-26T08:33:00Z</time>
      </trkpt>
      <trkpt lat="45.56757" lon="2.93945">
        <ele>858.2</ele>
        <time>2021-08-26T08:33:02Z</time>
      </trkpt>
      <trkpt lat="45.56764" lon="2.9395">
        <ele>858.3</ele>
        <time>2021-08-26T08:33:04Z</time>
      </trkpt>
      <trkpt lat="45.5677" lon="2.93954">
        <ele>858.4</ele>
        <time>2021-08-26T08:33:06Z</time>
      </trkpt>
      <trkpt lat="45.56775" lon="2.93958">
        <ele>858.5</ele>
        <time>2021-08-26T08:33:08Z</time>
      </trkpt>
      <trkpt lat="45.56781" lon="2.93961">
        <ele>858.7</ele>
        <time>2021-08-26T08:33:10Z</time>
      </trkpt>
      <trkpt lat="45.56787" lon="2.93965">
        <ele>858.6</ele>
        <time>2021-08-26T08:33:12Z</time>
      </trkpt>
      <trkpt lat="45.56792" lon="2.93969">
        <ele>858.7</ele>
        <time>2021-08-26T08:33:14Z</time>
      </trkpt>
      <trkpt lat="45.56797" lon="2.93973">
        <ele>858.6</ele>
        <time>2021-08-26T08:33:16Z</time>
      </trkpt>
      <trkpt lat="45.56802" lon="2.93976">
        <ele>858.7</ele>
        <time>2021-08-26T08:33:18Z</time>
      </trkpt>
      <trkpt lat="45.56806" lon="2.93979">
        <ele>858.7</ele>
        <time>2021-08-26T08:33:20Z</time>
      </trkpt>
      <trkpt lat="45.56811" lon="2.93983">
        <ele>858.6</ele>
        <time>2021-08-26T08:33:22Z</time>
      </trkpt>
      <trkpt lat="45.56816" lon="2.93985">
        <ele>858.6</ele>
        <time>2021-08-26T08:33:24Z</time>
      </trkpt>
      <trkpt lat="45.5682" lon="2.93989">
        <ele>858.5</ele>
        <time>2021-08-26T08:33:26Z</time>
      </trkpt>
      <trkpt lat="45.56825" lon="2.93992">
        <ele>858.4</ele>
        <time>2021-08-26T08:33:28Z</time>
      </trkpt>
      <trkpt lat="45.5683" lon="2.93995">
        <ele>858.3</ele>
        <time>2021-08-26T08:33:30Z</time>
      </trkpt>
      <trkpt lat="45.56834" lon="2.93999">
        <ele>858.3</ele>
        <time>2021-08-26T08:33:32Z</time>
      </trkpt>
      <trkpt lat="45.56839" lon="2.94002">
        <ele>858.5</ele>
        <time>2021-08-26T08:33:34Z</time>
      </trkpt>
      <trkpt lat="45.56844" lon="2.94005">
        <ele>859</ele>
        <time>2021-08-26T08:33:36Z</time>
      </trkpt>
      <trkpt lat="45.56848" lon="2.94008">
        <ele>859.4</ele>
        <time>2021-08-26T08:33:38Z</time>
      </trkpt>
      <trkpt lat="45.56854" lon="2.94012">
        <ele>859.9</ele>
        <time>2021-08-26T08:33:40Z</time>
      </trkpt>
      <trkpt lat="45.56859" lon="2.94016">
        <ele>860.4</ele>
        <time>2021-08-26T08:33:42Z</time>
      </trkpt>
      <trkpt lat="45.56864" lon="2.94019">
        <ele>860.9</ele>
        <time>2021-08-26T08:33:44Z</time>
      </trkpt>
      <trkpt lat="45.56869" lon="2.94022">
        <ele>861.5</ele>
        <time>2021-08-26T08:33:46Z</time>
      </trkpt>
      <trkpt lat="45.56873" lon="2.94026">
        <ele>862</ele>
        <time>2021-08-26T08:33:48Z</time>
      </trkpt>
      <trkpt lat="45.56878" lon="2.94029">
        <ele>862.6</ele>
        <time>2021-08-26T08:33:50Z</time>
      </trkpt>
      <trkpt lat="45.56883" lon="2.94033">
        <ele>863.2</ele>
        <time>2021-08-26T08:33:52Z</time>
      </trkpt>
      <trkpt lat="45.56888" lon="2.94036">
        <ele>863.8</ele>
        <time>2021-08-26T08:33:54Z</time>
      </trkpt>
      <trkpt lat="45.56892" lon="2.94039">
        <ele>864.3</ele>
        <time>2021-08-26T08:33:56Z</time>
      </trkpt>
      <trkpt lat="45.56897" lon="2.94042">
        <ele>864.9</ele>
        <time>2021-08-26T08:33:58Z</time>
      </trkpt>
      <trkpt lat="45.56901" lon="2.94045">
        <ele>865.5</ele>
        <time>2021-08-26T08:34:00Z</time>
      </trkpt>
      <trkpt lat="45.56906" lon="2.94048">
        <ele>866.1</ele>
        <time>2021-08-26T08:34:02Z</time>
      </trkpt>
      <trkpt lat="45.5691" lon="2.9405">
        <ele>866.7</ele>
        <time>2021-08-26T08:34:04Z</time>
      </trkpt>
      <trkpt lat="45.56914" lon="2.94053">
        <ele>867.2</ele>
        <time>2021-08-26T08:34:06Z</time>
      </trkpt>
      <trkpt lat="45.56918" lon="2.94056">
        <ele>867.7</ele>
        <time>2021-08-26T08:34:08Z</time>
      </trkpt>
      <trkpt lat="45.56922" lon="2.94059">
        <ele>867.8</ele>
        <time>2021-08-26T08:34:10Z</time>
      </trkpt>
      <trkpt lat="45.56926" lon="2.94063">
        <ele>867.9</ele>
        <time>2021-08-26T08:34:12Z</time>
      </trkpt>
      <trkpt lat="45.5693" lon="2.94066">
        <ele>868</ele>
        <time>2021-08-26T08:34:14Z</time>
      </trkpt>
      <trkpt lat="45.56933" lon="2.94071">
        <ele>867.9</ele>
        <time>2021-08-26T08:34:16Z</time>
      </trkpt>
      <trkpt lat="45.56936" lon="2.94074">
        <ele>867.9</ele>
        <time>2021-08-26T08:34:18Z</time>
      </trkpt>
      <trkpt lat="45.56939" lon="2.94075">
        <ele>867.9</ele>
        <time>2021-08-26T08:34:20Z</time>
      </trkpt>
      <trkpt lat="45.56941" lon="2.94076">
        <ele>867.9</ele>
        <time>2021-08-26T08:34:22Z</time>
      </trkpt>
      <trkpt lat="45.56942" lon="2.94076">
        <ele>867.9</ele>
        <time>2021-08-26T08:34:24Z</time>
      </trkpt>
      <trkpt lat="45.56944" lon="2.94078">
        <ele>867.8</ele>
        <time>2021-08-26T08:34:26Z</time>
      </trkpt>
      <trkpt lat="45.56946" lon="2.94079">
        <ele>867.8</ele>
        <time>2021-08-26T08:34:28Z</time>
      </trkpt>
      <trkpt lat="45.56946" lon="2.94078">
        <ele>867.8</ele>
        <time>2021-08-26T08:34:30Z</time>
      </trkpt>
      <trkpt lat="45.56946" lon="2.94078">
        <ele>867.8</ele>
        <time>2021-08-26T08:34:32Z</time>
      </trkpt>
      <trkpt lat="45.56944" lon="2.94074">
        <ele>867.9</ele>
        <time>2021-08-26T08:37:48Z</time>
      </trkpt>
      <trkpt lat="45.56948" lon="2.94077">
        <ele>867.8</ele>
        <time>2021-08-26T08:37:50Z</time>
      </trkpt>
      <trkpt lat="45.56952" lon="2.9408">
        <ele>867.7</ele>
        <time>2021-08-26T08:37:52Z</time>
      </trkpt>
      <trkpt lat="45.56957" lon="2.94083">
        <ele>867.5</ele>
        <time>2021-08-26T08:37:54Z</time>
      </trkpt>
      <trkpt lat="45.56963" lon="2.94087">
        <ele>867.3</ele>
        <time>2021-08-26T08:37:56Z</time>
      </trkpt>
      <trkpt lat="45.56969" lon="2.94091">
        <ele>867</ele>
        <time>2021-08-26T08:37:58Z</time>
      </trkpt>
      <trkpt lat="45.56977" lon="2.94095">
        <ele>866.5</ele>
        <time>2021-08-26T08:38:00Z</time>
      </trkpt>
      <trkpt lat="45.56986" lon="2.941">
        <ele>865.9</ele>
        <time>2021-08-26T08:38:02Z</time>
      </trkpt>
      <trkpt lat="45.56995" lon="2.94105">
        <ele>865.2</ele>
        <time>2021-08-26T08:38:04Z</time>
      </trkpt>
      <trkpt lat="45.57005" lon="2.94111">
        <ele>864.3</ele>
        <time>2021-08-26T08:38:06Z</time>
      </trkpt>
      <trkpt lat="45.57016" lon="2.94117">
        <ele>863.4</ele>
        <time>2021-08-26T08:38:08Z</time>
      </trkpt>
      <trkpt lat="45.57028" lon="2.94124">
        <ele>862.3</ele>
        <time>2021-08-26T08:38:10Z</time>
      </trkpt>
      <trkpt lat="45.5704" lon="2.94131">
        <ele>861.2</ele>
        <time>2021-08-26T08:38:12Z</time>
      </trkpt>
      <trkpt lat="45.57053" lon="2.94138">
        <ele>859.9</ele>
        <time>2021-08-26T08:38:14Z</time>
      </trkpt>
      <trkpt lat="45.57066" lon="2.94145">
        <ele>858.6</ele>
        <time>2021-08-26T08:38:16Z</time>
      </trkpt>
      <trkpt lat="45.57078" lon="2.94152">
        <ele>857.1</ele>
        <time>2021-08-26T08:38:18Z</time>
      </trkpt>
      <trkpt lat="45.57091" lon="2.94158">
        <ele>855.9</ele>
        <time>2021-08-26T08:38:20Z</time>
      </trkpt>
      <trkpt lat="45.57105" lon="2.94162">
        <ele>854.8</ele>
        <time>2021-08-26T08:38:22Z</time>
      </trkpt>
      <trkpt lat="45.57117" lon="2.94165">
        <ele>854</ele>
        <time>2021-08-26T08:38:24Z</time>
      </trkpt>
      <trkpt lat="45.57129" lon="2.94167">
        <ele>853.4</ele>
        <time>2021-08-26T08:38:26Z</time>
      </trkpt>
      <trkpt lat="45.5714" lon="2.94171">
        <ele>852.9</ele>
        <time>2021-08-26T08:38:28Z</time>
      </trkpt>
      <trkpt lat="45.57151" lon="2.94172">
        <ele>852.5</ele>
        <time>2021-08-26T08:38:30Z</time>
      </trkpt>
      <trkpt lat="45.57161" lon="2.94175">
        <ele>852.2</ele>
        <time>2021-08-26T08:38:32Z</time>
      </trkpt>
      <trkpt lat="45.57171" lon="2.94177">
        <ele>851.8</ele>
        <time>2021-08-26T08:38:34Z</time>
      </trkpt>
      <trkpt lat="45.5718" lon="2.94179">
        <ele>851.5</ele>
        <time>2021-08-26T08:38:36Z</time>
      </trkpt>
      <trkpt lat="45.57189" lon="2.94181">
        <ele>851.3</ele>
        <time>2021-08-26T08:38:38Z</time>
      </trkpt>
      <trkpt lat="45.57198" lon="2.94184">
        <ele>851</ele>
        <time>2021-08-26T08:38:40Z</time>
      </trkpt>
      <trkpt lat="45.57207" lon="2.94187">
        <ele>850.7</ele>
        <time>2021-08-26T08:38:42Z</time>
      </trkpt>
      <trkpt lat="45.57217" lon="2.9419">
        <ele>850.4</ele>
        <time>2021-08-26T08:38:44Z</time>
      </trkpt>
      <trkpt lat="45.57225" lon="2.94192">
        <ele>850.1</ele>
        <time>2021-08-26T08:38:46Z</time>
      </trkpt>
      <trkpt lat="45.57232" lon="2.94194">
        <ele>849.9</ele>
        <time>2021-08-26T08:38:48Z</time>
      </trkpt>
      <trkpt lat="45.57237" lon="2.94194">
        <ele>849.8</ele>
        <time>2021-08-26T08:38:50Z</time>
      </trkpt>
      <trkpt lat="45.57239" lon="2.94197">
        <ele>849.7</ele>
        <time>2021-08-26T08:38:52Z</time>
      </trkpt>
      <trkpt lat="45.5724" lon="2.94201">
        <ele>849.7</ele>
        <time>2021-08-26T08:38:54Z</time>
      </trkpt>
      <trkpt lat="45.57242" lon="2.94201">
        <ele>849.6</ele>
        <time>2021-08-26T08:38:56Z</time>
      </trkpt>
      <trkpt lat="45.57244" lon="2.942">
        <ele>849.6</ele>
        <time>2021-08-26T08:38:58Z</time>
      </trkpt>
      <trkpt lat="45.57244" lon="2.942">
        <ele>849.6</ele>
        <time>2021-08-26T08:39:00Z</time>
      </trkpt>
      <trkpt lat="45.57247" lon="2.94201">
        <ele>849.5</ele>
        <time>2021-08-26T08:39:02Z</time>
      </trkpt>
      <trkpt lat="45.57251" lon="2.94202">
        <ele>849.3</ele>
        <time>2021-08-26T08:39:04Z</time>
      </trkpt>
      <trkpt lat="45.57256" lon="2.94202">
        <ele>849</ele>
        <time>2021-08-26T08:39:06Z</time>
      </trkpt>
      <trkpt lat="45.57261" lon="2.94205">
        <ele>848.7</ele>
        <time>2021-08-26T08:39:08Z</time>
      </trkpt>
      <trkpt lat="45.57264" lon="2.94208">
        <ele>848.5</ele>
        <time>2021-08-26T08:39:10Z</time>
      </trkpt>
      <trkpt lat="45.57266" lon="2.94211">
        <ele>848.4</ele>
        <time>2021-08-26T08:39:12Z</time>
      </trkpt>
      <trkpt lat="45.57266" lon="2.94211">
        <ele>848.4</ele>
        <time>2021-08-26T08:39:14Z</time>
      </trkpt>
      <trkpt lat="45.57266" lon="2.94211">
        <ele>848.4</ele>
        <time>2021-08-26T08:39:16Z</time>
      </trkpt>
      <trkpt lat="45.57266" lon="2.94211">
        <ele>848.4</ele>
        <time>2021-08-26T08:39:18Z</time>
      </trkpt>
      <trkpt lat="45.57266" lon="2.94211">
        <ele>848.4</ele>
        <time>2021-08-26T08:39:20Z</time>
      </trkpt>
      <trkpt lat="45.57272" lon="2.94222">
        <ele>848.1</ele>
        <time>2021-08-26T08:39:28Z</time>
      </trkpt>
      <trkpt lat="45.57274" lon="2.94226">
        <ele>848</ele>
        <time>2021-08-26T08:39:30Z</time>
      </trkpt>
      <trkpt lat="45.57276" lon="2.94228">
        <ele>847.9</ele>
        <time>2021-08-26T08:39:32Z</time>
      </trkpt>
      <trkpt lat="45.57279" lon="2.94231">
        <ele>847.7</ele>
        <time>2021-08-26T08:39:34Z</time>
      </trkpt>
      <trkpt lat="45.57282" lon="2.94233">
        <ele>847.5</ele>
        <time>2021-08-26T08:39:36Z</time>
      </trkpt>
      <trkpt lat="45.57286" lon="2.94234">
        <ele>847.3</ele>
        <time>2021-08-26T08:39:38Z</time>
      </trkpt>
      <trkpt lat="45.57288" lon="2.94235">
        <ele>847.1</ele>
        <time>2021-08-26T08:39:40Z</time>
      </trkpt>
      <trkpt lat="45.5729" lon="2.94236">
        <ele>846.9</ele>
        <time>2021-08-26T08:39:42Z</time>
      </trkpt>
      <trkpt lat="45.57292" lon="2.94239">
        <ele>846.9</ele>
        <time>2021-08-26T08:39:44Z</time>
      </trkpt>
      <trkpt lat="45.57294" lon="2.94242">
        <ele>846.7</ele>
        <time>2021-08-26T08:39:46Z</time>
      </trkpt>
      <trkpt lat="45.57298" lon="2.94244">
        <ele>846.4</ele>
        <time>2021-08-26T08:39:48Z</time>
      </trkpt>
      <trkpt lat="45.57302" lon="2.94247">
        <ele>846.2</ele>
        <time>2021-08-26T08:39:50Z</time>
      </trkpt>
      <trkpt lat="45.57306" lon="2.94249">
        <ele>845.9</ele>
        <time>2021-08-26T08:39:52Z</time>
      </trkpt>
      <trkpt lat="45.5731" lon="2.9425">
        <ele>845.7</ele>
        <time>2021-08-26T08:39:54Z</time>
      </trkpt>
      <trkpt lat="45.57314" lon="2.94252">
        <ele>845.4</ele>
        <time>2021-08-26T08:39:56Z</time>
      </trkpt>
      <trkpt lat="45.57319" lon="2.94253">
        <ele>845.1</ele>
        <time>2021-08-26T08:39:58Z</time>
      </trkpt>
      <trkpt lat="45.57323" lon="2.94255">
        <ele>844.8</ele>
        <time>2021-08-26T08:40:00Z</time>
      </trkpt>
      <trkpt lat="45.57326" lon="2.94257">
        <ele>844.6</ele>
        <time>2021-08-26T08:40:02Z</time>
      </trkpt>
      <trkpt lat="45.5733" lon="2.9426">
        <ele>844.4</ele>
        <time>2021-08-26T08:40:04Z</time>
      </trkpt>
      <trkpt lat="45.57335" lon="2.94262">
        <ele>844</ele>
        <time>2021-08-26T08:40:06Z</time>
      </trkpt>
      <trkpt lat="45.5734" lon="2.94263">
        <ele>843.3</ele>
        <time>2021-08-26T08:40:08Z</time>
      </trkpt>
      <trkpt lat="45.57345" lon="2.94265">
        <ele>842.6</ele>
        <time>2021-08-26T08:40:10Z</time>
      </trkpt>
      <trkpt lat="45.5735" lon="2.94269">
        <ele>842</ele>
        <time>2021-08-26T08:40:12Z</time>
      </trkpt>
      <trkpt lat="45.57353" lon="2.94273">
        <ele>841.6</ele>
        <time>2021-08-26T08:40:14Z</time>
      </trkpt>
      <trkpt lat="45.57357" lon="2.94277">
        <ele>841.1</ele>
        <time>2021-08-26T08:40:16Z</time>
      </trkpt>
      <trkpt lat="45.57362" lon="2.9428">
        <ele>840.5</ele>
        <time>2021-08-26T08:40:18Z</time>
      </trkpt>
      <trkpt lat="45.57365" lon="2.94285">
        <ele>840.1</ele>
        <time>2021-08-26T08:40:20Z</time>
      </trkpt>
      <trkpt lat="45.57367" lon="2.94288">
        <ele>839.9</ele>
        <time>2021-08-26T08:40:22Z</time>
      </trkpt>
      <trkpt lat="45.57369" lon="2.94293">
        <ele>839.6</ele>
        <time>2021-08-26T08:40:24Z</time>
      </trkpt>
      <trkpt lat="45.5737" lon="2.94298">
        <ele>839.5</ele>
        <time>2021-08-26T08:40:26Z</time>
      </trkpt>
      <trkpt lat="45.57371" lon="2.94304">
        <ele>839.5</ele>
        <time>2021-08-26T08:40:28Z</time>
      </trkpt>
      <trkpt lat="45.5737" lon="2.94309">
        <ele>839.5</ele>
        <time>2021-08-26T08:40:30Z</time>
      </trkpt>
      <trkpt lat="45.5737" lon="2.94314">
        <ele>839.6</ele>
        <time>2021-08-26T08:40:32Z</time>
      </trkpt>
      <trkpt lat="45.57369" lon="2.94319">
        <ele>839.7</ele>
        <time>2021-08-26T08:40:34Z</time>
      </trkpt>
      <trkpt lat="45.57369" lon="2.94323">
        <ele>839.8</ele>
        <time>2021-08-26T08:40:36Z</time>
      </trkpt>
      <trkpt lat="45.57369" lon="2.94329">
        <ele>839.8</ele>
        <time>2021-08-26T08:40:38Z</time>
      </trkpt>
      <trkpt lat="45.57368" lon="2.94334">
        <ele>840.1</ele>
        <time>2021-08-26T08:40:40Z</time>
      </trkpt>
      <trkpt lat="45.57366" lon="2.94338">
        <ele>840.3</ele>
        <time>2021-08-26T08:40:42Z</time>
      </trkpt>
      <trkpt lat="45.57369" lon="2.9434">
        <ele>839.9</ele>
        <time>2021-08-26T08:40:44Z</time>
      </trkpt>
      <trkpt lat="45.57373" lon="2.94338">
        <ele>839.3</ele>
        <time>2021-08-26T08:40:46Z</time>
      </trkpt>
      <trkpt lat="45.57376" lon="2.94332">
        <ele>838.9</ele>
        <time>2021-08-26T08:40:48Z</time>
      </trkpt>
      <trkpt lat="45.57379" lon="2.94328">
        <ele>838.3</ele>
        <time>2021-08-26T08:40:50Z</time>
      </trkpt>
      <trkpt lat="45.57382" lon="2.94322">
        <ele>837.9</ele>
        <time>2021-08-26T08:40:52Z</time>
      </trkpt>
      <trkpt lat="45.57383" lon="2.94314">
        <ele>837.7</ele>
        <time>2021-08-26T08:40:54Z</time>
      </trkpt>
      <trkpt lat="45.57384" lon="2.94308">
        <ele>837.5</ele>
        <time>2021-08-26T08:40:56Z</time>
      </trkpt>
      <trkpt lat="45.57385" lon="2.94301">
        <ele>837.4</ele>
        <time>2021-08-26T08:40:58Z</time>
      </trkpt>
      <trkpt lat="45.57384" lon="2.94294">
        <ele>837.5</ele>
        <time>2021-08-26T08:41:00Z</time>
      </trkpt>
      <trkpt lat="45.57383" lon="2.94287">
        <ele>837.6</ele>
        <time>2021-08-26T08:41:02Z</time>
      </trkpt>
      <trkpt lat="45.57383" lon="2.9428">
        <ele>837.6</ele>
        <time>2021-08-26T08:41:04Z</time>
      </trkpt>
      <trkpt lat="45.57382" lon="2.94274">
        <ele>837.7</ele>
        <time>2021-08-26T08:41:06Z</time>
      </trkpt>
      <trkpt lat="45.57383" lon="2.94269">
        <ele>837.6</ele>
        <time>2021-08-26T08:41:08Z</time>
      </trkpt>
      <trkpt lat="45.57384" lon="2.94266">
        <ele>837.4</ele>
        <time>2021-08-26T08:41:10Z</time>
      </trkpt>
      <trkpt lat="45.57387" lon="2.94267">
        <ele>837</ele>
        <time>2021-08-26T08:41:12Z</time>
      </trkpt>
      <trkpt lat="45.57391" lon="2.9427">
        <ele>836.4</ele>
        <time>2021-08-26T08:41:14Z</time>
      </trkpt>
      <trkpt lat="45.57395" lon="2.94275">
        <ele>836</ele>
        <time>2021-08-26T08:41:16Z</time>
      </trkpt>
      <trkpt lat="45.57397" lon="2.94276">
        <ele>835.6</ele>
        <time>2021-08-26T08:41:18Z</time>
      </trkpt>
      <trkpt lat="45.57399" lon="2.94278">
        <ele>835.5</ele>
        <time>2021-08-26T08:41:20Z</time>
      </trkpt>
      <trkpt lat="45.574" lon="2.9428">
        <ele>835.3</ele>
        <time>2021-08-26T08:41:22Z</time>
      </trkpt>
      <trkpt lat="45.57402" lon="2.94282">
        <ele>835</ele>
        <time>2021-08-26T08:41:24Z</time>
      </trkpt>
      <trkpt lat="45.57405" lon="2.9428">
        <ele>834.5</ele>
        <time>2021-08-26T08:41:26Z</time>
      </trkpt>
      <trkpt lat="45.57409" lon="2.94277">
        <ele>834</ele>
        <time>2021-08-26T08:41:28Z</time>
      </trkpt>
      <trkpt lat="45.57411" lon="2.94277">
        <ele>833.8</ele>
        <time>2021-08-26T08:41:30Z</time>
      </trkpt>
      <trkpt lat="45.57412" lon="2.94276">
        <ele>833.6</ele>
        <time>2021-08-26T08:41:32Z</time>
      </trkpt>
      <trkpt lat="45.57414" lon="2.94276">
        <ele>833.4</ele>
        <time>2021-08-26T08:41:34Z</time>
      </trkpt>
      <trkpt lat="45.57414" lon="2.94276">
        <ele>833.4</ele>
        <time>2021-08-26T08:41:36Z</time>
      </trkpt>
      <trkpt lat="45.57414" lon="2.94276">
        <ele>833.4</ele>
        <time>2021-08-26T08:41:38Z</time>
      </trkpt>
      <trkpt lat="45.57428" lon="2.94274">
        <ele>834.3</ele>
        <time>2021-08-26T08:41:56Z</time>
      </trkpt>
      <trkpt lat="45.57431" lon="2.94277">
        <ele>834.5</ele>
        <time>2021-08-26T08:41:58Z</time>
      </trkpt>
      <trkpt lat="45.57434" lon="2.94279">
        <ele>834.8</ele>
        <time>2021-08-26T08:42:00Z</time>
      </trkpt>
      <trkpt lat="45.57436" lon="2.9428">
        <ele>835</ele>
        <time>2021-08-26T08:42:02Z</time>
      </trkpt>
      <trkpt lat="45.57438" lon="2.94281">
        <ele>835.2</ele>
        <time>2021-08-26T08:42:04Z</time>
      </trkpt>
      <trkpt lat="45.57441" lon="2.94284">
        <ele>835.4</ele>
        <time>2021-08-26T08:42:06Z</time>
      </trkpt>
      <trkpt lat="45.57442" lon="2.94284">
        <ele>835.5</ele>
        <time>2021-08-26T08:42:08Z</time>
      </trkpt>
      <trkpt lat="45.57444" lon="2.94287">
        <ele>835.7</ele>
        <time>2021-08-26T08:42:10Z</time>
      </trkpt>
      <trkpt lat="45.57447" lon="2.94292">
        <ele>835.7</ele>
        <time>2021-08-26T08:42:12Z</time>
      </trkpt>
      <trkpt lat="45.57451" lon="2.94296">
        <ele>835.9</ele>
        <time>2021-08-26T08:42:14Z</time>
      </trkpt>
      <trkpt lat="45.57456" lon="2.94301">
        <ele>836.1</ele>
        <time>2021-08-26T08:42:16Z</time>
      </trkpt>
      <trkpt lat="45.57461" lon="2.94306">
        <ele>836.2</ele>
        <time>2021-08-26T08:42:18Z</time>
      </trkpt>
      <trkpt lat="45.57468" lon="2.94312">
        <ele>836.2</ele>
        <time>2021-08-26T08:42:20Z</time>
      </trkpt>
      <trkpt lat="45.57474" lon="2.94318">
        <ele>836.2</ele>
        <time>2021-08-26T08:42:22Z</time>
      </trkpt>
      <trkpt lat="45.5748" lon="2.94324">
        <ele>836.1</ele>
        <time>2021-08-26T08:42:24Z</time>
      </trkpt>
      <trkpt lat="45.57486" lon="2.94331">
        <ele>835.8</ele>
        <time>2021-08-26T08:42:26Z</time>
      </trkpt>
      <trkpt lat="45.57493" lon="2.94337">
        <ele>835.5</ele>
        <time>2021-08-26T08:42:28Z</time>
      </trkpt>
      <trkpt lat="45.57499" lon="2.94343">
        <ele>835.3</ele>
        <time>2021-08-26T08:42:30Z</time>
      </trkpt>
      <trkpt lat="45.57504" lon="2.94349">
        <ele>835.8</ele>
        <time>2021-08-26T08:42:32Z</time>
      </trkpt>
      <trkpt lat="45.5751" lon="2.94355">
        <ele>836.4</ele>
        <time>2021-08-26T08:42:34Z</time>
      </trkpt>
      <trkpt lat="45.57516" lon="2.94359">
        <ele>837.2</ele>
        <time>2021-08-26T08:42:36Z</time>
      </trkpt>
      <trkpt lat="45.57521" lon="2.94366">
        <ele>837.6</ele>
        <time>2021-08-26T08:42:38Z</time>
      </trkpt>
      <trkpt lat="45.57525" lon="2.94373">
        <ele>837.8</ele>
        <time>2021-08-26T08:42:40Z</time>
      </trkpt>
      <trkpt lat="45.57528" lon="2.94381">
        <ele>837.6</ele>
        <time>2021-08-26T08:42:42Z</time>
      </trkpt>
      <trkpt lat="45.57531" lon="2.94391">
        <ele>837.4</ele>
        <time>2021-08-26T08:42:44Z</time>
      </trkpt>
      <trkpt lat="45.57535" lon="2.94399">
        <ele>837.4</ele>
        <time>2021-08-26T08:42:46Z</time>
      </trkpt>
      <trkpt lat="45.57537" lon="2.94409">
        <ele>836.9</ele>
        <time>2021-08-26T08:42:48Z</time>
      </trkpt>
      <trkpt lat="45.57541" lon="2.94418">
        <ele>836.9</ele>
        <time>2021-08-26T08:42:50Z</time>
      </trkpt>
      <trkpt lat="45.57544" lon="2.94427">
        <ele>837.3</ele>
        <time>2021-08-26T08:42:52Z</time>
      </trkpt>
      <trkpt lat="45.57547" lon="2.94436">
        <ele>837.8</ele>
        <time>2021-08-26T08:42:54Z</time>
      </trkpt>
      <trkpt lat="45.5755" lon="2.94446">
        <ele>838.2</ele>
        <time>2021-08-26T08:42:56Z</time>
      </trkpt>
      <trkpt lat="45.57554" lon="2.94455">
        <ele>838.7</ele>
        <time>2021-08-26T08:42:58Z</time>
      </trkpt>
      <trkpt lat="45.57557" lon="2.94465">
        <ele>839.2</ele>
        <time>2021-08-26T08:43:00Z</time>
      </trkpt>
      <trkpt lat="45.57559" lon="2.94475">
        <ele>839.4</ele>
        <time>2021-08-26T08:43:02Z</time>
      </trkpt>
      <trkpt lat="45.57561" lon="2.94485">
        <ele>839.6</ele>
        <time>2021-08-26T08:43:04Z</time>
      </trkpt>
      <trkpt lat="45.57561" lon="2.94496">
        <ele>839.6</ele>
        <time>2021-08-26T08:43:06Z</time>
      </trkpt>
      <trkpt lat="45.57561" lon="2.94508">
        <ele>839.5</ele>
        <time>2021-08-26T08:43:08Z</time>
      </trkpt>
      <trkpt lat="45.5756" lon="2.94521">
        <ele>839.3</ele>
        <time>2021-08-26T08:43:10Z</time>
      </trkpt>
      <trkpt lat="45.57558" lon="2.94534">
        <ele>838.9</ele>
        <time>2021-08-26T08:43:12Z</time>
      </trkpt>
      <trkpt lat="45.57555" lon="2.94549">
        <ele>838.2</ele>
        <time>2021-08-26T08:43:14Z</time>
      </trkpt>
      <trkpt lat="45.57551" lon="2.94564">
        <ele>837.3</ele>
        <time>2021-08-26T08:43:16Z</time>
      </trkpt>
      <trkpt lat="45.57547" lon="2.94579">
        <ele>836.3</ele>
        <time>2021-08-26T08:43:18Z</time>
      </trkpt>
      <trkpt lat="45.57543" lon="2.94594">
        <ele>834.7</ele>
        <time>2021-08-26T08:43:20Z</time>
      </trkpt>
      <trkpt lat="45.5754" lon="2.94611">
        <ele>833.5</ele>
        <time>2021-08-26T08:43:22Z</time>
      </trkpt>
      <trkpt lat="45.57541" lon="2.94628">
        <ele>832.9</ele>
        <time>2021-08-26T08:43:24Z</time>
      </trkpt>
      <trkpt lat="45.57544" lon="2.94645">
        <ele>832.8</ele>
        <time>2021-08-26T08:43:26Z</time>
      </trkpt>
      <trkpt lat="45.57547" lon="2.94664">
        <ele>832.6</ele>
        <time>2021-08-26T08:43:28Z</time>
      </trkpt>
      <trkpt lat="45.5755" lon="2.94683">
        <ele>831.2</ele>
        <time>2021-08-26T08:43:30Z</time>
      </trkpt>
      <trkpt lat="45.57553" lon="2.94702">
        <ele>829.5</ele>
        <time>2021-08-26T08:43:32Z</time>
      </trkpt>
      <trkpt lat="45.57558" lon="2.94722">
        <ele>827.6</ele>
        <time>2021-08-26T08:43:34Z</time>
      </trkpt>
      <trkpt lat="45.57567" lon="2.94739">
        <ele>826.2</ele>
        <time>2021-08-26T08:43:36Z</time>
      </trkpt>
      <trkpt lat="45.57579" lon="2.94752">
        <ele>825.5</ele>
        <time>2021-08-26T08:43:38Z</time>
      </trkpt>
      <trkpt lat="45.57591" lon="2.94763">
        <ele>826.8</ele>
        <time>2021-08-26T08:43:40Z</time>
      </trkpt>
      <trkpt lat="45.57602" lon="2.94777">
        <ele>828.3</ele>
        <time>2021-08-26T08:43:42Z</time>
      </trkpt>
      <trkpt lat="45.57611" lon="2.94796">
        <ele>828.4</ele>
        <time>2021-08-26T08:43:44Z</time>
      </trkpt>
      <trkpt lat="45.57614" lon="2.94817">
        <ele>826.9</ele>
        <time>2021-08-26T08:43:46Z</time>
      </trkpt>
      <trkpt lat="45.57616" lon="2.94838">
        <ele>825</ele>
        <time>2021-08-26T08:43:48Z</time>
      </trkpt>
      <trkpt lat="45.57619" lon="2.94858">
        <ele>823.8</ele>
        <time>2021-08-26T08:43:50Z</time>
      </trkpt>
      <trkpt lat="45.57625" lon="2.94875">
        <ele>822.9</ele>
        <time>2021-08-26T08:43:52Z</time>
      </trkpt>
      <trkpt lat="45.57632" lon="2.94889">
        <ele>822.5</ele>
        <time>2021-08-26T08:43:54Z</time>
      </trkpt>
      <trkpt lat="45.57637" lon="2.94898">
        <ele>822.2</ele>
        <time>2021-08-26T08:43:56Z</time>
      </trkpt>
      <trkpt lat="45.57643" lon="2.94906">
        <ele>822</ele>
        <time>2021-08-26T08:43:58Z</time>
      </trkpt>
      <trkpt lat="45.57649" lon="2.94913">
        <ele>821.7</ele>
        <time>2021-08-26T08:44:00Z</time>
      </trkpt>
      <trkpt lat="45.57656" lon="2.94921">
        <ele>821.7</ele>
        <time>2021-08-26T08:44:02Z</time>
      </trkpt>
      <trkpt lat="45.57665" lon="2.94926">
        <ele>822</ele>
        <time>2021-08-26T08:44:04Z</time>
      </trkpt>
      <trkpt lat="45.57674" lon="2.9493">
        <ele>823.1</ele>
        <time>2021-08-26T08:44:06Z</time>
      </trkpt>
      <trkpt lat="45.57682" lon="2.94934">
        <ele>823.9</ele>
        <time>2021-08-26T08:44:08Z</time>
      </trkpt>
      <trkpt lat="45.57688" lon="2.94936">
        <ele>824.7</ele>
        <time>2021-08-26T08:44:10Z</time>
      </trkpt>
      <trkpt lat="45.57693" lon="2.94938">
        <ele>825.2</ele>
        <time>2021-08-26T08:44:12Z</time>
      </trkpt>
      <trkpt lat="45.57698" lon="2.9494">
        <ele>825.9</ele>
        <time>2021-08-26T08:44:14Z</time>
      </trkpt>
      <trkpt lat="45.57702" lon="2.9494">
        <ele>826.5</ele>
        <time>2021-08-26T08:44:16Z</time>
      </trkpt>
      <trkpt lat="45.57707" lon="2.94942">
        <ele>827.1</ele>
        <time>2021-08-26T08:44:18Z</time>
      </trkpt>
      <trkpt lat="45.57712" lon="2.94944">
        <ele>827.6</ele>
        <time>2021-08-26T08:44:20Z</time>
      </trkpt>
      <trkpt lat="45.57717" lon="2.94946">
        <ele>828.1</ele>
        <time>2021-08-26T08:44:22Z</time>
      </trkpt>
      <trkpt lat="45.57721" lon="2.94948">
        <ele>828.5</ele>
        <time>2021-08-26T08:44:24Z</time>
      </trkpt>
      <trkpt lat="45.57726" lon="2.9495">
        <ele>829</ele>
        <time>2021-08-26T08:44:26Z</time>
      </trkpt>
      <trkpt lat="45.5773" lon="2.9495">
        <ele>829.5</ele>
        <time>2021-08-26T08:44:28Z</time>
      </trkpt>
      <trkpt lat="45.57733" lon="2.94952">
        <ele>829.8</ele>
        <time>2021-08-26T08:44:30Z</time>
      </trkpt>
      <trkpt lat="45.57738" lon="2.94955">
        <ele>830.1</ele>
        <time>2021-08-26T08:44:32Z</time>
      </trkpt>
      <trkpt lat="45.57742" lon="2.94956">
        <ele>830.6</ele>
        <time>2021-08-26T08:44:34Z</time>
      </trkpt>
      <trkpt lat="45.57746" lon="2.94958">
        <ele>831</ele>
        <time>2021-08-26T08:44:36Z</time>
      </trkpt>
      <trkpt lat="45.57751" lon="2.9496">
        <ele>831.4</ele>
        <time>2021-08-26T08:44:38Z</time>
      </trkpt>
      <trkpt lat="45.57755" lon="2.94961">
        <ele>831.6</ele>
        <time>2021-08-26T08:44:40Z</time>
      </trkpt>
      <trkpt lat="45.57759" lon="2.94963">
        <ele>831.8</ele>
        <time>2021-08-26T08:44:42Z</time>
      </trkpt>
      <trkpt lat="45.57761" lon="2.94964">
        <ele>831.9</ele>
        <time>2021-08-26T08:44:44Z</time>
      </trkpt>
      <trkpt lat="45.57765" lon="2.94965">
        <ele>832</ele>
        <time>2021-08-26T08:44:46Z</time>
      </trkpt>
      <trkpt lat="45.57768" lon="2.94966">
        <ele>832.2</ele>
        <time>2021-08-26T08:44:48Z</time>
      </trkpt>
      <trkpt lat="45.57772" lon="2.94968">
        <ele>832.4</ele>
        <time>2021-08-26T08:44:50Z</time>
      </trkpt>
      <trkpt lat="45.57776" lon="2.94968">
        <ele>832.6</ele>
        <time>2021-08-26T08:44:52Z</time>
      </trkpt>
      <trkpt lat="45.57779" lon="2.9497">
        <ele>832.8</ele>
        <time>2021-08-26T08:44:54Z</time>
      </trkpt>
      <trkpt lat="45.57783" lon="2.94971">
        <ele>833</ele>
        <time>2021-08-26T08:44:56Z</time>
      </trkpt>
      <trkpt lat="45.57787" lon="2.94971">
        <ele>833.4</ele>
        <time>2021-08-26T08:44:58Z</time>
      </trkpt>
      <trkpt lat="45.57791" lon="2.94972">
        <ele>833.5</ele>
        <time>2021-08-26T08:45:00Z</time>
      </trkpt>
      <trkpt lat="45.57794" lon="2.9497">
        <ele>834.1</ele>
        <time>2021-08-26T08:45:02Z</time>
      </trkpt>
      <trkpt lat="45.57794" lon="2.94966">
        <ele>834.8</ele>
        <time>2021-08-26T08:45:04Z</time>
      </trkpt>
      <trkpt lat="45.57794" lon="2.94964">
        <ele>835</ele>
        <time>2021-08-26T08:45:06Z</time>
      </trkpt>
      <trkpt lat="45.57795" lon="2.94965">
        <ele>835</ele>
        <time>2021-08-26T08:45:08Z</time>
      </trkpt>
      <trkpt lat="45.57794" lon="2.94965">
        <ele>834.9</ele>
        <time>2021-08-26T08:45:10Z</time>
      </trkpt>
      <trkpt lat="45.57794" lon="2.94965">
        <ele>834.9</ele>
        <time>2021-08-26T08:45:12Z</time>
      </trkpt>
      <trkpt lat="45.57794" lon="2.94966">
        <ele>834.8</ele>
        <time>2021-08-26T08:45:14Z</time>
      </trkpt>
      <trkpt lat="45.57787" lon="2.94957">
        <ele>835.4</ele>
        <time>2021-08-26T08:47:22Z</time>
      </trkpt>
      <trkpt lat="45.57783" lon="2.94955">
        <ele>835.4</ele>
        <time>2021-08-26T08:47:24Z</time>
      </trkpt>
      <trkpt lat="45.57781" lon="2.94954">
        <ele>835.3</ele>
        <time>2021-08-26T08:47:26Z</time>
      </trkpt>
      <trkpt lat="45.57779" lon="2.94956">
        <ele>834.9</ele>
        <time>2021-08-26T08:47:28Z</time>
      </trkpt>
      <trkpt lat="45.57779" lon="2.94958">
        <ele>834.5</ele>
        <time>2021-08-26T08:47:30Z</time>
      </trkpt>
      <trkpt lat="45.57781" lon="2.94959">
        <ele>834.5</ele>
        <time>2021-08-26T08:47:32Z</time>
      </trkpt>
      <trkpt lat="45.57783" lon="2.9496">
        <ele>834.7</ele>
        <time>2021-08-26T08:47:34Z</time>
      </trkpt>
      <trkpt lat="45.57785" lon="2.94958">
        <ele>835.1</ele>
        <time>2021-08-26T08:47:36Z</time>
      </trkpt>
      <trkpt lat="45.57783" lon="2.94954">
        <ele>835.5</ele>
        <time>2021-08-26T08:47:38Z</time>
      </trkpt>
      <trkpt lat="45.57779" lon="2.94953">
        <ele>835.2</ele>
        <time>2021-08-26T08:47:40Z</time>
      </trkpt>
      <trkpt lat="45.57775" lon="2.94952">
        <ele>835</ele>
        <time>2021-08-26T08:47:42Z</time>
      </trkpt>
      <trkpt lat="45.57772" lon="2.94949">
        <ele>835.2</ele>
        <time>2021-08-26T08:47:44Z</time>
      </trkpt>
      <trkpt lat="45.57769" lon="2.94946">
        <ele>835.3</ele>
        <time>2021-08-26T08:47:46Z</time>
      </trkpt>
      <trkpt lat="45.57766" lon="2.94942">
        <ele>835.4</ele>
        <time>2021-08-26T08:47:48Z</time>
      </trkpt>
      <trkpt lat="45.57764" lon="2.94939">
        <ele>835.6</ele>
        <time>2021-08-26T08:47:50Z</time>
      </trkpt>
      <trkpt lat="45.57761" lon="2.94935">
        <ele>835.9</ele>
        <time>2021-08-26T08:47:52Z</time>
      </trkpt>
      <trkpt lat="45.57758" lon="2.94931">
        <ele>836.1</ele>
        <time>2021-08-26T08:47:54Z</time>
      </trkpt>
      <trkpt lat="45.57756" lon="2.94928">
        <ele>836.2</ele>
        <time>2021-08-26T08:47:56Z</time>
      </trkpt>
      <trkpt lat="45.57753" lon="2.94924">
        <ele>836.4</ele>
        <time>2021-08-26T08:47:58Z</time>
      </trkpt>
      <trkpt lat="45.57751" lon="2.9492">
        <ele>836.7</ele>
        <time>2021-08-26T08:48:00Z</time>
      </trkpt>
      <trkpt lat="45.57748" lon="2.94916">
        <ele>836.8</ele>
        <time>2021-08-26T08:48:02Z</time>
      </trkpt>
      <trkpt lat="45.57745" lon="2.94912">
        <ele>836.8</ele>
        <time>2021-08-26T08:48:04Z</time>
      </trkpt>
      <trkpt lat="45.57743" lon="2.94907">
        <ele>837</ele>
        <time>2021-08-26T08:48:06Z</time>
      </trkpt>
      <trkpt lat="45.57741" lon="2.94902">
        <ele>837.3</ele>
        <time>2021-08-26T08:48:08Z</time>
      </trkpt>
      <trkpt lat="45.57738" lon="2.94898">
        <ele>837.5</ele>
        <time>2021-08-26T08:48:10Z</time>
      </trkpt>
      <trkpt lat="45.57736" lon="2.94894">
        <ele>837.7</ele>
        <time>2021-08-26T08:48:12Z</time>
      </trkpt>
      <trkpt lat="45.57734" lon="2.9489">
        <ele>837.9</ele>
        <time>2021-08-26T08:48:14Z</time>
      </trkpt>
      <trkpt lat="45.57732" lon="2.94885">
        <ele>838</ele>
        <time>2021-08-26T08:48:16Z</time>
      </trkpt>
      <trkpt lat="45.57729" lon="2.94881">
        <ele>838.2</ele>
        <time>2021-08-26T08:48:18Z</time>
      </trkpt>
      <trkpt lat="45.57727" lon="2.94876">
        <ele>838.5</ele>
        <time>2021-08-26T08:48:20Z</time>
      </trkpt>
      <trkpt lat="45.57724" lon="2.94871">
        <ele>838.6</ele>
        <time>2021-08-26T08:48:22Z</time>
      </trkpt>
      <trkpt lat="45.5772" lon="2.94865">
        <ele>838.8</ele>
        <time>2021-08-26T08:48:24Z</time>
      </trkpt>
      <trkpt lat="45.57718" lon="2.9486">
        <ele>839</ele>
        <time>2021-08-26T08:48:26Z</time>
      </trkpt>
      <trkpt lat="45.57715" lon="2.94855">
        <ele>839.2</ele>
        <time>2021-08-26T08:48:28Z</time>
      </trkpt>
      <trkpt lat="45.57713" lon="2.94851">
        <ele>839.4</ele>
        <time>2021-08-26T08:48:30Z</time>
      </trkpt>
      <trkpt lat="45.57709" lon="2.94845">
        <ele>839.5</ele>
        <time>2021-08-26T08:48:32Z</time>
      </trkpt>
      <trkpt lat="45.57706" lon="2.94841">
        <ele>839.6</ele>
        <time>2021-08-26T08:48:34Z</time>
      </trkpt>
      <trkpt lat="45.57702" lon="2.94835">
        <ele>839.6</ele>
        <time>2021-08-26T08:48:36Z</time>
      </trkpt>
      <trkpt lat="45.57698" lon="2.94831">
        <ele>839.7</ele>
        <time>2021-08-26T08:48:38Z</time>
      </trkpt>
      <trkpt lat="45.57694" lon="2.94827">
        <ele>839.9</ele>
        <time>2021-08-26T08:48:40Z</time>
      </trkpt>
      <trkpt lat="45.5769" lon="2.94823">
        <ele>839.9</ele>
        <time>2021-08-26T08:48:42Z</time>
      </trkpt>
      <trkpt lat="45.57686" lon="2.94818">
        <ele>840</ele>
        <time>2021-08-26T08:48:44Z</time>
      </trkpt>
      <trkpt lat="45.57682" lon="2.94814">
        <ele>840.1</ele>
        <time>2021-08-26T08:48:46Z</time>
      </trkpt>
      <trkpt lat="45.57679" lon="2.94809">
        <ele>840.4</ele>
        <time>2021-08-26T08:48:48Z</time>
      </trkpt>
      <trkpt lat="45.57676" lon="2.94804">
        <ele>840.4</ele>
        <time>2021-08-26T08:48:50Z</time>
      </trkpt>
      <trkpt lat="45.57673" lon="2.94801">
        <ele>840.3</ele>
        <time>2021-08-26T08:48:52Z</time>
      </trkpt>
      <trkpt lat="45.57669" lon="2.94797">
        <ele>840.2</ele>
        <time>2021-08-26T08:48:54Z</time>
      </trkpt>
      <trkpt lat="45.57666" lon="2.94791">
        <ele>840.5</ele>
        <time>2021-08-26T08:48:56Z</time>
      </trkpt>
      <trkpt lat="45.57664" lon="2.94786">
        <ele>840.8</ele>
        <time>2021-08-26T08:48:58Z</time>
      </trkpt>
      <trkpt lat="45.57662" lon="2.94782">
        <ele>841.1</ele>
        <time>2021-08-26T08:49:00Z</time>
      </trkpt>
      <trkpt lat="45.57661" lon="2.94777">
        <ele>841.4</ele>
        <time>2021-08-26T08:49:02Z</time>
      </trkpt>
      <trkpt lat="45.5766" lon="2.94772">
        <ele>842</ele>
        <time>2021-08-26T08:49:04Z</time>
      </trkpt>
      <trkpt lat="45.5766" lon="2.94768">
        <ele>842.7</ele>
        <time>2021-08-26T08:49:06Z</time>
      </trkpt>
      <trkpt lat="45.5766" lon="2.94763">
        <ele>843.3</ele>
        <time>2021-08-26T08:49:08Z</time>
      </trkpt>
      <trkpt lat="45.57659" lon="2.94759">
        <ele>843.7</ele>
        <time>2021-08-26T08:49:10Z</time>
      </trkpt>
      <trkpt lat="45.57657" lon="2.94755">
        <ele>843.8</ele>
        <time>2021-08-26T08:49:12Z</time>
      </trkpt>
      <trkpt lat="45.57655" lon="2.94751">
        <ele>844</ele>
        <time>2021-08-26T08:49:14Z</time>
      </trkpt>
      <trkpt lat="45.57653" lon="2.94747">
        <ele>844.2</ele>
        <time>2021-08-26T08:49:16Z</time>
      </trkpt>
      <trkpt lat="45.57651" lon="2.94742">
        <ele>844.6</ele>
        <time>2021-08-26T08:49:18Z</time>
      </trkpt>
      <trkpt lat="45.57649" lon="2.94739">
        <ele>844.8</ele>
        <time>2021-08-26T08:49:20Z</time>
      </trkpt>
      <trkpt lat="45.57649" lon="2.94735">
        <ele>845.4</ele>
        <time>2021-08-26T08:49:22Z</time>
      </trkpt>
      <trkpt lat="45.57646" lon="2.9473">
        <ele>845.7</ele>
        <time>2021-08-26T08:49:24Z</time>
      </trkpt>
      <trkpt lat="45.57644" lon="2.94726">
        <ele>846</ele>
        <time>2021-08-26T08:49:26Z</time>
      </trkpt>
      <trkpt lat="45.57643" lon="2.94721">
        <ele>846.5</ele>
        <time>2021-08-26T08:49:28Z</time>
      </trkpt>
      <trkpt lat="45.57641" lon="2.94716">
        <ele>847.1</ele>
        <time>2021-08-26T08:49:30Z</time>
      </trkpt>
      <trkpt lat="45.57641" lon="2.94711">
        <ele>848</ele>
        <time>2021-08-26T08:49:32Z</time>
      </trkpt>
      <trkpt lat="45.5764" lon="2.94706">
        <ele>848.8</ele>
        <time>2021-08-26T08:49:34Z</time>
      </trkpt>
      <trkpt lat="45.5764" lon="2.94701">
        <ele>849.8</ele>
        <time>2021-08-26T08:49:36Z</time>
      </trkpt>
      <trkpt lat="45.57639" lon="2.94696">
        <ele>850.6</ele>
        <time>2021-08-26T08:49:38Z</time>
      </trkpt>
      <trkpt lat="45.57639" lon="2.9469">
        <ele>851.5</ele>
        <time>2021-08-26T08:49:40Z</time>
      </trkpt>
      <trkpt lat="45.57638" lon="2.94684">
        <ele>852.4</ele>
        <time>2021-08-26T08:49:42Z</time>
      </trkpt>
      <trkpt lat="45.57639" lon="2.9468">
        <ele>853.5</ele>
        <time>2021-08-26T08:49:44Z</time>
      </trkpt>
      <trkpt lat="45.57638" lon="2.94674">
        <ele>854.2</ele>
        <time>2021-08-26T08:49:46Z</time>
      </trkpt>
      <trkpt lat="45.57637" lon="2.94669">
        <ele>854.9</ele>
        <time>2021-08-26T08:49:48Z</time>
      </trkpt>
      <trkpt lat="45.57637" lon="2.94664">
        <ele>855.6</ele>
        <time>2021-08-26T08:49:50Z</time>
      </trkpt>
      <trkpt lat="45.57636" lon="2.94658">
        <ele>855.7</ele>
        <time>2021-08-26T08:49:52Z</time>
      </trkpt>
      <trkpt lat="45.57636" lon="2.94654">
        <ele>856</ele>
        <time>2021-08-26T08:49:54Z</time>
      </trkpt>
      <trkpt lat="45.57635" lon="2.94649">
        <ele>856.2</ele>
        <time>2021-08-26T08:49:56Z</time>
      </trkpt>
      <trkpt lat="45.57636" lon="2.94644">
        <ele>856.8</ele>
        <time>2021-08-26T08:49:58Z</time>
      </trkpt>
      <trkpt lat="45.57635" lon="2.94639">
        <ele>856.8</ele>
        <time>2021-08-26T08:50:00Z</time>
      </trkpt>
      <trkpt lat="45.57634" lon="2.94634">
        <ele>856.9</ele>
        <time>2021-08-26T08:50:02Z</time>
      </trkpt>
      <trkpt lat="45.57634" lon="2.94629">
        <ele>857.3</ele>
        <time>2021-08-26T08:50:04Z</time>
      </trkpt>
      <trkpt lat="45.57634" lon="2.94623">
        <ele>857.6</ele>
        <time>2021-08-26T08:50:06Z</time>
      </trkpt>
      <trkpt lat="45.57635" lon="2.94618">
        <ele>858.2</ele>
        <time>2021-08-26T08:50:08Z</time>
      </trkpt>
      <trkpt lat="45.57634" lon="2.94613">
        <ele>858.3</ele>
        <time>2021-08-26T08:50:10Z</time>
      </trkpt>
      <trkpt lat="45.57634" lon="2.94609">
        <ele>858.5</ele>
        <time>2021-08-26T08:50:12Z</time>
      </trkpt>
      <trkpt lat="45.57633" lon="2.94603">
        <ele>858.6</ele>
        <time>2021-08-26T08:50:14Z</time>
      </trkpt>
      <trkpt lat="45.57632" lon="2.94598">
        <ele>858.9</ele>
        <time>2021-08-26T08:50:16Z</time>
      </trkpt>
      <trkpt lat="45.57632" lon="2.94593">
        <ele>859</ele>
        <time>2021-08-26T08:50:18Z</time>
      </trkpt>
      <trkpt lat="45.57632" lon="2.94589">
        <ele>859.5</ele>
        <time>2021-08-26T08:50:20Z</time>
      </trkpt>
      <trkpt lat="45.57632" lon="2.94584">
        <ele>859.7</ele>
        <time>2021-08-26T08:50:22Z</time>
      </trkpt>
      <trkpt lat="45.57631" lon="2.94578">
        <ele>859.4</ele>
        <time>2021-08-26T08:50:24Z</time>
      </trkpt>
      <trkpt lat="45.5763" lon="2.94572">
        <ele>859.2</ele>
        <time>2021-08-26T08:50:26Z</time>
      </trkpt>
      <trkpt lat="45.57629" lon="2.94567">
        <ele>858.7</ele>
        <time>2021-08-26T08:50:28Z</time>
      </trkpt>
      <trkpt lat="45.57629" lon="2.94561">
        <ele>858.6</ele>
        <time>2021-08-26T08:50:30Z</time>
      </trkpt>
      <trkpt lat="45.57629" lon="2.94555">
        <ele>858.6</ele>
        <time>2021-08-26T08:50:32Z</time>
      </trkpt>
      <trkpt lat="45.57628" lon="2.94549">
        <ele>858.1</ele>
        <time>2021-08-26T08:50:34Z</time>
      </trkpt>
      <trkpt lat="45.57629" lon="2.94544">
        <ele>858.4</ele>
        <time>2021-08-26T08:50:36Z</time>
      </trkpt>
      <trkpt lat="45.57629" lon="2.94538">
        <ele>858.4</ele>
        <time>2021-08-26T08:50:38Z</time>
      </trkpt>
      <trkpt lat="45.57629" lon="2.94533">
        <ele>858.4</ele>
        <time>2021-08-26T08:50:40Z</time>
      </trkpt>
      <trkpt lat="45.5763" lon="2.94528">
        <ele>858.8</ele>
        <time>2021-08-26T08:50:42Z</time>
      </trkpt>
      <trkpt lat="45.57629" lon="2.94522">
        <ele>858.6</ele>
        <time>2021-08-26T08:50:44Z</time>
      </trkpt>
      <trkpt lat="45.57631" lon="2.94517">
        <ele>859.2</ele>
        <time>2021-08-26T08:50:46Z</time>
      </trkpt>
      <trkpt lat="45.57632" lon="2.94512">
        <ele>859.5</ele>
        <time>2021-08-26T08:50:48Z</time>
      </trkpt>
      <trkpt lat="45.57633" lon="2.94507">
        <ele>859.7</ele>
        <time>2021-08-26T08:50:50Z</time>
      </trkpt>
      <trkpt lat="45.57634" lon="2.94502">
        <ele>860.2</ele>
        <time>2021-08-26T08:50:52Z</time>
      </trkpt>
      <trkpt lat="45.57636" lon="2.94496">
        <ele>860.6</ele>
        <time>2021-08-26T08:50:54Z</time>
      </trkpt>
      <trkpt lat="45.57638" lon="2.94492">
        <ele>861.1</ele>
        <time>2021-08-26T08:50:56Z</time>
      </trkpt>
      <trkpt lat="45.57639" lon="2.94487">
        <ele>861.3</ele>
        <time>2021-08-26T08:50:58Z</time>
      </trkpt>
      <trkpt lat="45.57641" lon="2.94483">
        <ele>861.8</ele>
        <time>2021-08-26T08:51:00Z</time>
      </trkpt>
      <trkpt lat="45.57642" lon="2.94478">
        <ele>862.2</ele>
        <time>2021-08-26T08:51:02Z</time>
      </trkpt>
      <trkpt lat="45.57643" lon="2.94473">
        <ele>862.2</ele>
        <time>2021-08-26T08:51:04Z</time>
      </trkpt>
      <trkpt lat="45.57644" lon="2.94468">
        <ele>862.4</ele>
        <time>2021-08-26T08:51:06Z</time>
      </trkpt>
      <trkpt lat="45.57645" lon="2.94463">
        <ele>862.5</ele>
        <time>2021-08-26T08:51:08Z</time>
      </trkpt>
      <trkpt lat="45.57646" lon="2.94458">
        <ele>862.7</ele>
        <time>2021-08-26T08:51:10Z</time>
      </trkpt>
      <trkpt lat="45.57647" lon="2.94453">
        <ele>862.9</ele>
        <time>2021-08-26T08:51:12Z</time>
      </trkpt>
      <trkpt lat="45.57649" lon="2.94448">
        <ele>863.3</ele>
        <time>2021-08-26T08:51:14Z</time>
      </trkpt>
      <trkpt lat="45.57651" lon="2.94444">
        <ele>863.8</ele>
        <time>2021-08-26T08:51:16Z</time>
      </trkpt>
      <trkpt lat="45.57653" lon="2.94439">
        <ele>864.2</ele>
        <time>2021-08-26T08:51:18Z</time>
      </trkpt>
      <trkpt lat="45.57655" lon="2.94435">
        <ele>864.5</ele>
        <time>2021-08-26T08:51:20Z</time>
      </trkpt>
      <trkpt lat="45.57657" lon="2.9443">
        <ele>864.9</ele>
        <time>2021-08-26T08:51:22Z</time>
      </trkpt>
      <trkpt lat="45.57659" lon="2.94426">
        <ele>865.3</ele>
        <time>2021-08-26T08:51:24Z</time>
      </trkpt>
      <trkpt lat="45.57661" lon="2.9442">
        <ele>865.7</ele>
        <time>2021-08-26T08:51:26Z</time>
      </trkpt>
      <trkpt lat="45.57664" lon="2.94416">
        <ele>866.3</ele>
        <time>2021-08-26T08:51:28Z</time>
      </trkpt>
      <trkpt lat="45.57666" lon="2.94411">
        <ele>866.8</ele>
        <time>2021-08-26T08:51:30Z</time>
      </trkpt>
      <trkpt lat="45.57668" lon="2.94406">
        <ele>867.4</ele>
        <time>2021-08-26T08:51:32Z</time>
      </trkpt>
      <trkpt lat="45.57669" lon="2.94402">
        <ele>867.9</ele>
        <time>2021-08-26T08:51:34Z</time>
      </trkpt>
      <trkpt lat="45.5767" lon="2.94397">
        <ele>868</ele>
        <time>2021-08-26T08:51:36Z</time>
      </trkpt>
      <trkpt lat="45.57671" lon="2.94393">
        <ele>868.4</ele>
        <time>2021-08-26T08:51:38Z</time>
      </trkpt>
      <trkpt lat="45.57671" lon="2.94388">
        <ele>868.5</ele>
        <time>2021-08-26T08:51:40Z</time>
      </trkpt>
      <trkpt lat="45.57672" lon="2.94382">
        <ele>868.6</ele>
        <time>2021-08-26T08:51:42Z</time>
      </trkpt>
      <trkpt lat="45.57672" lon="2.94378">
        <ele>868.8</ele>
        <time>2021-08-26T08:51:44Z</time>
      </trkpt>
      <trkpt lat="45.57672" lon="2.94373">
        <ele>868.6</ele>
        <time>2021-08-26T08:51:46Z</time>
      </trkpt>
      <trkpt lat="45.57672" lon="2.94368">
        <ele>868.5</ele>
        <time>2021-08-26T08:51:48Z</time>
      </trkpt>
      <trkpt lat="45.5767" lon="2.94363">
        <ele>867.9</ele>
        <time>2021-08-26T08:51:50Z</time>
      </trkpt>
      <trkpt lat="45.57668" lon="2.94359">
        <ele>867.5</ele>
        <time>2021-08-26T08:51:52Z</time>
      </trkpt>
      <trkpt lat="45.57667" lon="2.94355">
        <ele>867.1</ele>
        <time>2021-08-26T08:51:54Z</time>
      </trkpt>
      <trkpt lat="45.57666" lon="2.9435">
        <ele>866.9</ele>
        <time>2021-08-26T08:51:56Z</time>
      </trkpt>
      <trkpt lat="45.57664" lon="2.94346">
        <ele>866.5</ele>
        <time>2021-08-26T08:51:58Z</time>
      </trkpt>
      <trkpt lat="45.57661" lon="2.94342">
        <ele>866.1</ele>
        <time>2021-08-26T08:52:00Z</time>
      </trkpt>
      <trkpt lat="45.5766" lon="2.94338">
        <ele>865.8</ele>
        <time>2021-08-26T08:52:02Z</time>
      </trkpt>
      <trkpt lat="45.57657" lon="2.94334">
        <ele>865.5</ele>
        <time>2021-08-26T08:52:04Z</time>
      </trkpt>
      <trkpt lat="45.57656" lon="2.94329">
        <ele>865.7</ele>
        <time>2021-08-26T08:52:06Z</time>
      </trkpt>
      <trkpt lat="45.57654" lon="2.94324">
        <ele>865.9</ele>
        <time>2021-08-26T08:52:08Z</time>
      </trkpt>
      <trkpt lat="45.57652" lon="2.94319">
        <ele>866</ele>
        <time>2021-08-26T08:52:10Z</time>
      </trkpt>
      <trkpt lat="45.57651" lon="2.94315">
        <ele>866.3</ele>
        <time>2021-08-26T08:52:12Z</time>
      </trkpt>
      <trkpt lat="45.5765" lon="2.9431">
        <ele>866.6</ele>
        <time>2021-08-26T08:52:14Z</time>
      </trkpt>
      <trkpt lat="45.5765" lon="2.94304">
        <ele>867.2</ele>
        <time>2021-08-26T08:52:16Z</time>
      </trkpt>
      <trkpt lat="45.57649" lon="2.94299">
        <ele>867.7</ele>
        <time>2021-08-26T08:52:18Z</time>
      </trkpt>
      <trkpt lat="45.57649" lon="2.94294">
        <ele>868.1</ele>
        <time>2021-08-26T08:52:20Z</time>
      </trkpt>
      <trkpt lat="45.57649" lon="2.94289">
        <ele>868.7</ele>
        <time>2021-08-26T08:52:22Z</time>
      </trkpt>
      <trkpt lat="45.5765" lon="2.94284">
        <ele>869.3</ele>
        <time>2021-08-26T08:52:24Z</time>
      </trkpt>
      <trkpt lat="45.57652" lon="2.9428">
        <ele>870.1</ele>
        <time>2021-08-26T08:52:26Z</time>
      </trkpt>
      <trkpt lat="45.57654" lon="2.94277">
        <ele>870.8</ele>
        <time>2021-08-26T08:52:28Z</time>
      </trkpt>
      <trkpt lat="45.57656" lon="2.94274">
        <ele>871.6</ele>
        <time>2021-08-26T08:52:30Z</time>
      </trkpt>
      <trkpt lat="45.57659" lon="2.94271">
        <ele>872.4</ele>
        <time>2021-08-26T08:52:32Z</time>
      </trkpt>
      <trkpt lat="45.57662" lon="2.94268">
        <ele>873.3</ele>
        <time>2021-08-26T08:52:34Z</time>
      </trkpt>
      <trkpt lat="45.57665" lon="2.94266">
        <ele>874</ele>
        <time>2021-08-26T08:52:36Z</time>
      </trkpt>
      <trkpt lat="45.57668" lon="2.94263">
        <ele>874.7</ele>
        <time>2021-08-26T08:52:38Z</time>
      </trkpt>
      <trkpt lat="45.57671" lon="2.94261">
        <ele>875.3</ele>
        <time>2021-08-26T08:52:40Z</time>
      </trkpt>
      <trkpt lat="45.57674" lon="2.94259">
        <ele>875.9</ele>
        <time>2021-08-26T08:52:42Z</time>
      </trkpt>
      <trkpt lat="45.57677" lon="2.94256">
        <ele>876.5</ele>
        <time>2021-08-26T08:52:44Z</time>
      </trkpt>
      <trkpt lat="45.5768" lon="2.94255">
        <ele>877</ele>
        <time>2021-08-26T08:52:46Z</time>
      </trkpt>
      <trkpt lat="45.57683" lon="2.94252">
        <ele>877.6</ele>
        <time>2021-08-26T08:52:48Z</time>
      </trkpt>
      <trkpt lat="45.57686" lon="2.94251">
        <ele>878</ele>
        <time>2021-08-26T08:52:50Z</time>
      </trkpt>
      <trkpt lat="45.57689" lon="2.94249">
        <ele>878.5</ele>
        <time>2021-08-26T08:52:52Z</time>
      </trkpt>
      <trkpt lat="45.57691" lon="2.94247">
        <ele>879</ele>
        <time>2021-08-26T08:52:54Z</time>
      </trkpt>
      <trkpt lat="45.57693" lon="2.94245">
        <ele>879.5</ele>
        <time>2021-08-26T08:52:56Z</time>
      </trkpt>
      <trkpt lat="45.57696" lon="2.94244">
        <ele>879.9</ele>
        <time>2021-08-26T08:52:58Z</time>
      </trkpt>
      <trkpt lat="45.57699" lon="2.94242">
        <ele>880.5</ele>
        <time>2021-08-26T08:53:00Z</time>
      </trkpt>
      <trkpt lat="45.57701" lon="2.94241">
        <ele>881</ele>
        <time>2021-08-26T08:53:02Z</time>
      </trkpt>
      <trkpt lat="45.57704" lon="2.94239">
        <ele>881.4</ele>
        <time>2021-08-26T08:53:04Z</time>
      </trkpt>
      <trkpt lat="45.57707" lon="2.94238">
        <ele>881.8</ele>
        <time>2021-08-26T08:53:06Z</time>
      </trkpt>
      <trkpt lat="45.57709" lon="2.94237">
        <ele>882.3</ele>
        <time>2021-08-26T08:53:08Z</time>
      </trkpt>
      <trkpt lat="45.57712" lon="2.94236">
        <ele>882.7</ele>
        <time>2021-08-26T08:53:10Z</time>
      </trkpt>
      <trkpt lat="45.57715" lon="2.94235">
        <ele>883.1</ele>
        <time>2021-08-26T08:53:12Z</time>
      </trkpt>
      <trkpt lat="45.57719" lon="2.94234">
        <ele>883.5</ele>
        <time>2021-08-26T08:53:14Z</time>
      </trkpt>
      <trkpt lat="45.57722" lon="2.94233">
        <ele>884</ele>
        <time>2021-08-26T08:53:16Z</time>
      </trkpt>
      <trkpt lat="45.57725" lon="2.94231">
        <ele>884.5</ele>
        <time>2021-08-26T08:53:18Z</time>
      </trkpt>
      <trkpt lat="45.57728" lon="2.9423">
        <ele>884.9</ele>
        <time>2021-08-26T08:53:20Z</time>
      </trkpt>
      <trkpt lat="45.57731" lon="2.9423">
        <ele>885.3</ele>
        <time>2021-08-26T08:53:22Z</time>
      </trkpt>
      <trkpt lat="45.57733" lon="2.94229">
        <ele>885.6</ele>
        <time>2021-08-26T08:53:24Z</time>
      </trkpt>
      <trkpt lat="45.57736" lon="2.94228">
        <ele>886.1</ele>
        <time>2021-08-26T08:53:26Z</time>
      </trkpt>
      <trkpt lat="45.57739" lon="2.94226">
        <ele>886.5</ele>
        <time>2021-08-26T08:53:28Z</time>
      </trkpt>
      <trkpt lat="45.57742" lon="2.94225">
        <ele>886.9</ele>
        <time>2021-08-26T08:53:30Z</time>
      </trkpt>
      <trkpt lat="45.57745" lon="2.94225">
        <ele>887.2</ele>
        <time>2021-08-26T08:53:32Z</time>
      </trkpt>
      <trkpt lat="45.57748" lon="2.94224">
        <ele>887.6</ele>
        <time>2021-08-26T08:53:34Z</time>
      </trkpt>
      <trkpt lat="45.5775" lon="2.94224">
        <ele>887.8</ele>
        <time>2021-08-26T08:53:36Z</time>
      </trkpt>
      <trkpt lat="45.57753" lon="2.94223">
        <ele>887.7</ele>
        <time>2021-08-26T08:53:38Z</time>
      </trkpt>
      <trkpt lat="45.57756" lon="2.94223">
        <ele>887.6</ele>
        <time>2021-08-26T08:53:40Z</time>
      </trkpt>
      <trkpt lat="45.57758" lon="2.94224">
        <ele>887.4</ele>
        <time>2021-08-26T08:53:42Z</time>
      </trkpt>
      <trkpt lat="45.57761" lon="2.94223">
        <ele>887.3</ele>
        <time>2021-08-26T08:53:44Z</time>
      </trkpt>
      <trkpt lat="45.57764" lon="2.94223">
        <ele>887.1</ele>
        <time>2021-08-26T08:53:46Z</time>
      </trkpt>
      <trkpt lat="45.57766" lon="2.94224">
        <ele>886.9</ele>
        <time>2021-08-26T08:53:48Z</time>
      </trkpt>
      <trkpt lat="45.5777" lon="2.94227">
        <ele>886.6</ele>
        <time>2021-08-26T08:53:50Z</time>
      </trkpt>
      <trkpt lat="45.5777" lon="2.94228">
        <ele>886.4</ele>
        <time>2021-08-26T08:53:52Z</time>
      </trkpt>
      <trkpt lat="45.5777" lon="2.94228">
        <ele>886.5</ele>
        <time>2021-08-26T08:53:54Z</time>
      </trkpt>
      <trkpt lat="45.5777" lon="2.94228">
        <ele>886.4</ele>
        <time>2021-08-26T08:53:56Z</time>
      </trkpt>
      <trkpt lat="45.57772" lon="2.94229">
        <ele>886.3</ele>
        <time>2021-08-26T08:53:58Z</time>
      </trkpt>
      <trkpt lat="45.57773" lon="2.94229">
        <ele>886.2</ele>
        <time>2021-08-26T08:54:00Z</time>
      </trkpt>
      <trkpt lat="45.57767" lon="2.94222">
        <ele>887.1</ele>
        <time>2021-08-26T10:42:52Z</time>
      </trkpt>
      <trkpt lat="45.57765" lon="2.94222">
        <ele>887.2</ele>
        <time>2021-08-26T10:42:54Z</time>
      </trkpt>
      <trkpt lat="45.57762" lon="2.94223">
        <ele>887.2</ele>
        <time>2021-08-26T10:42:56Z</time>
      </trkpt>
      <trkpt lat="45.57759" lon="2.94224">
        <ele>887.3</ele>
        <time>2021-08-26T10:42:58Z</time>
      </trkpt>
      <trkpt lat="45.57756" lon="2.94223">
        <ele>887.5</ele>
        <time>2021-08-26T10:43:00Z</time>
      </trkpt>
      <trkpt lat="45.57753" lon="2.94224">
        <ele>887.6</ele>
        <time>2021-08-26T10:43:02Z</time>
      </trkpt>
      <trkpt lat="45.5775" lon="2.94225">
        <ele>887.7</ele>
        <time>2021-08-26T10:43:04Z</time>
      </trkpt>
      <trkpt lat="45.57746" lon="2.94225">
        <ele>887.2</ele>
        <time>2021-08-26T10:43:06Z</time>
      </trkpt>
      <trkpt lat="45.5774" lon="2.94226">
        <ele>886.7</ele>
        <time>2021-08-26T10:43:08Z</time>
      </trkpt>
      <trkpt lat="45.57734" lon="2.94227">
        <ele>885.9</ele>
        <time>2021-08-26T10:43:10Z</time>
      </trkpt>
      <trkpt lat="45.57727" lon="2.94231">
        <ele>884.8</ele>
        <time>2021-08-26T10:43:12Z</time>
      </trkpt>
      <trkpt lat="45.57719" lon="2.94234">
        <ele>883.7</ele>
        <time>2021-08-26T10:43:14Z</time>
      </trkpt>
      <trkpt lat="45.57711" lon="2.94234">
        <ele>882.8</ele>
        <time>2021-08-26T10:43:16Z</time>
      </trkpt>
      <trkpt lat="45.57703" lon="2.94236">
        <ele>881.6</ele>
        <time>2021-08-26T10:43:18Z</time>
      </trkpt>
      <trkpt lat="45.57694" lon="2.94241">
        <ele>880</ele>
        <time>2021-08-26T10:43:20Z</time>
      </trkpt>
      <trkpt lat="45.57685" lon="2.94248">
        <ele>878.3</ele>
        <time>2021-08-26T10:43:22Z</time>
      </trkpt>
      <trkpt lat="45.57676" lon="2.94254">
        <ele>876.6</ele>
        <time>2021-08-26T10:43:24Z</time>
      </trkpt>
      <trkpt lat="45.57667" lon="2.94259">
        <ele>875</ele>
        <time>2021-08-26T10:43:26Z</time>
      </trkpt>
      <trkpt lat="45.57659" lon="2.94266">
        <ele>873</ele>
        <time>2021-08-26T10:43:28Z</time>
      </trkpt>
      <trkpt lat="45.57652" lon="2.94272">
        <ele>871.1</ele>
        <time>2021-08-26T10:43:30Z</time>
      </trkpt>
      <trkpt lat="45.57648" lon="2.94278">
        <ele>869.7</ele>
        <time>2021-08-26T10:43:32Z</time>
      </trkpt>
      <trkpt lat="45.57647" lon="2.94286">
        <ele>868.7</ele>
        <time>2021-08-26T10:43:34Z</time>
      </trkpt>
      <trkpt lat="45.57647" lon="2.94293">
        <ele>868</ele>
        <time>2021-08-26T10:43:36Z</time>
      </trkpt>
      <trkpt lat="45.57648" lon="2.94301">
        <ele>867.2</ele>
        <time>2021-08-26T10:43:38Z</time>
      </trkpt>
      <trkpt lat="45.57649" lon="2.94311">
        <ele>866.5</ele>
        <time>2021-08-26T10:43:40Z</time>
      </trkpt>
      <trkpt lat="45.57651" lon="2.94319">
        <ele>865.9</ele>
        <time>2021-08-26T10:43:42Z</time>
      </trkpt>
      <trkpt lat="45.57655" lon="2.94328">
        <ele>865.6</ele>
        <time>2021-08-26T10:43:44Z</time>
      </trkpt>
      <trkpt lat="45.57659" lon="2.94333">
        <ele>865.7</ele>
        <time>2021-08-26T10:43:46Z</time>
      </trkpt>
      <trkpt lat="45.57661" lon="2.9434">
        <ele>866</ele>
        <time>2021-08-26T10:43:48Z</time>
      </trkpt>
      <trkpt lat="45.57666" lon="2.94348">
        <ele>866.8</ele>
        <time>2021-08-26T10:43:50Z</time>
      </trkpt>
      <trkpt lat="45.57669" lon="2.94355">
        <ele>867.8</ele>
        <time>2021-08-26T10:43:52Z</time>
      </trkpt>
      <trkpt lat="45.57672" lon="2.94364">
        <ele>868.6</ele>
        <time>2021-08-26T10:43:54Z</time>
      </trkpt>
      <trkpt lat="45.57673" lon="2.94373">
        <ele>868.8</ele>
        <time>2021-08-26T10:43:56Z</time>
      </trkpt>
      <trkpt lat="45.57673" lon="2.94382">
        <ele>869.1</ele>
        <time>2021-08-26T10:43:58Z</time>
      </trkpt>
      <trkpt lat="45.57672" lon="2.94393">
        <ele>868.7</ele>
        <time>2021-08-26T10:44:00Z</time>
      </trkpt>
      <trkpt lat="45.5767" lon="2.94403">
        <ele>868.3</ele>
        <time>2021-08-26T10:44:02Z</time>
      </trkpt>
      <trkpt lat="45.57668" lon="2.9441">
        <ele>867.4</ele>
        <time>2021-08-26T10:44:04Z</time>
      </trkpt>
      <trkpt lat="45.57665" lon="2.94417">
        <ele>866.7</ele>
        <time>2021-08-26T10:44:06Z</time>
      </trkpt>
      <trkpt lat="45.57663" lon="2.94422">
        <ele>866.2</ele>
        <time>2021-08-26T10:44:08Z</time>
      </trkpt>
      <trkpt lat="45.57661" lon="2.94427">
        <ele>865.9</ele>
        <time>2021-08-26T10:44:10Z</time>
      </trkpt>
      <trkpt lat="45.57658" lon="2.94435">
        <ele>865.3</ele>
        <time>2021-08-26T10:44:12Z</time>
      </trkpt>
      <trkpt lat="45.57652" lon="2.94444">
        <ele>864.1</ele>
        <time>2021-08-26T10:44:14Z</time>
      </trkpt>
      <trkpt lat="45.57648" lon="2.94455">
        <ele>863.2</ele>
        <time>2021-08-26T10:44:16Z</time>
      </trkpt>
      <trkpt lat="45.57647" lon="2.94464">
        <ele>863</ele>
        <time>2021-08-26T10:44:18Z</time>
      </trkpt>
      <trkpt lat="45.57645" lon="2.94475">
        <ele>862.8</ele>
        <time>2021-08-26T10:44:20Z</time>
      </trkpt>
      <trkpt lat="45.57641" lon="2.94486">
        <ele>861.9</ele>
        <time>2021-08-26T10:44:22Z</time>
      </trkpt>
      <trkpt lat="45.57637" lon="2.94497">
        <ele>860.8</ele>
        <time>2021-08-26T10:44:24Z</time>
      </trkpt>
      <trkpt lat="45.57632" lon="2.94508">
        <ele>859.3</ele>
        <time>2021-08-26T10:44:26Z</time>
      </trkpt>
      <trkpt lat="45.57629" lon="2.94521">
        <ele>858.3</ele>
        <time>2021-08-26T10:44:28Z</time>
      </trkpt>
      <trkpt lat="45.57626" lon="2.94538">
        <ele>857.6</ele>
        <time>2021-08-26T10:44:30Z</time>
      </trkpt>
      <trkpt lat="45.57623" lon="2.94555">
        <ele>856.8</ele>
        <time>2021-08-26T10:44:32Z</time>
      </trkpt>
      <trkpt lat="45.57626" lon="2.94576">
        <ele>857.7</ele>
        <time>2021-08-26T10:44:34Z</time>
      </trkpt>
      <trkpt lat="45.57629" lon="2.94596">
        <ele>858.1</ele>
        <time>2021-08-26T10:44:36Z</time>
      </trkpt>
      <trkpt lat="45.5763" lon="2.94616">
        <ele>857</ele>
        <time>2021-08-26T10:44:38Z</time>
      </trkpt>
      <trkpt lat="45.57631" lon="2.94629">
        <ele>856.3</ele>
        <time>2021-08-26T10:44:40Z</time>
      </trkpt>
      <trkpt lat="45.57633" lon="2.94642">
        <ele>856</ele>
        <time>2021-08-26T10:44:42Z</time>
      </trkpt>
      <trkpt lat="45.57634" lon="2.94658">
        <ele>855.1</ele>
        <time>2021-08-26T10:44:44Z</time>
      </trkpt>
      <trkpt lat="45.57636" lon="2.94676">
        <ele>853.3</ele>
        <time>2021-08-26T10:44:46Z</time>
      </trkpt>
      <trkpt lat="45.57637" lon="2.94696">
        <ele>849.9</ele>
        <time>2021-08-26T10:44:48Z</time>
      </trkpt>
      <trkpt lat="45.5764" lon="2.94715">
        <ele>847</ele>
        <time>2021-08-26T10:44:50Z</time>
      </trkpt>
      <trkpt lat="45.57644" lon="2.94731">
        <ele>845</ele>
        <time>2021-08-26T10:44:52Z</time>
      </trkpt>
      <trkpt lat="45.57651" lon="2.94742">
        <ele>844.7</ele>
        <time>2021-08-26T10:44:54Z</time>
      </trkpt>
      <trkpt lat="45.57657" lon="2.94753">
        <ele>844.1</ele>
        <time>2021-08-26T10:44:56Z</time>
      </trkpt>
      <trkpt lat="45.5766" lon="2.94763">
        <ele>843.3</ele>
        <time>2021-08-26T10:44:58Z</time>
      </trkpt>
      <trkpt lat="45.57654" lon="2.94768">
        <ele>841.2</ele>
        <time>2021-08-26T10:45:00Z</time>
      </trkpt>
      <trkpt lat="45.57646" lon="2.9476">
        <ele>840.6</ele>
        <time>2021-08-26T10:45:02Z</time>
      </trkpt>
      <trkpt lat="45.5764" lon="2.94749">
        <ele>840.6</ele>
        <time>2021-08-26T10:45:04Z</time>
      </trkpt>
      <trkpt lat="45.57631" lon="2.94739">
        <ele>840</ele>
        <time>2021-08-26T10:45:06Z</time>
      </trkpt>
      <trkpt lat="45.5762" lon="2.9473">
        <ele>839</ele>
        <time>2021-08-26T10:45:08Z</time>
      </trkpt>
      <trkpt lat="45.57607" lon="2.94721">
        <ele>837.1</ele>
        <time>2021-08-26T10:45:10Z</time>
      </trkpt>
      <trkpt lat="45.57595" lon="2.94714">
        <ele>835.2</ele>
        <time>2021-08-26T10:45:12Z</time>
      </trkpt>
      <trkpt lat="45.57583" lon="2.94706">
        <ele>833.2</ele>
        <time>2021-08-26T10:45:14Z</time>
      </trkpt>
      <trkpt lat="45.57573" lon="2.94695">
        <ele>833.6</ele>
        <time>2021-08-26T10:45:16Z</time>
      </trkpt>
      <trkpt lat="45.57568" lon="2.94677">
        <ele>835.4</ele>
        <time>2021-08-26T10:45:18Z</time>
      </trkpt>
      <trkpt lat="45.57563" lon="2.94658">
        <ele>836.2</ele>
        <time>2021-08-26T10:45:20Z</time>
      </trkpt>
      <trkpt lat="45.57557" lon="2.94638">
        <ele>836</ele>
        <time>2021-08-26T10:45:22Z</time>
      </trkpt>
      <trkpt lat="45.57555" lon="2.94619">
        <ele>836.4</ele>
        <time>2021-08-26T10:45:24Z</time>
      </trkpt>
      <trkpt lat="45.57558" lon="2.94598">
        <ele>838</ele>
        <time>2021-08-26T10:45:26Z</time>
      </trkpt>
      <trkpt lat="45.57563" lon="2.94578">
        <ele>839.7</ele>
        <time>2021-08-26T10:45:28Z</time>
      </trkpt>
      <trkpt lat="45.57566" lon="2.94557">
        <ele>840.3</ele>
        <time>2021-08-26T10:45:30Z</time>
      </trkpt>
      <trkpt lat="45.57569" lon="2.94538">
        <ele>840.9</ele>
        <time>2021-08-26T10:45:32Z</time>
      </trkpt>
      <trkpt lat="45.57571" lon="2.94521">
        <ele>841.1</ele>
        <time>2021-08-26T10:45:34Z</time>
      </trkpt>
      <trkpt lat="45.57571" lon="2.94507">
        <ele>841.2</ele>
        <time>2021-08-26T10:45:36Z</time>
      </trkpt>
      <trkpt lat="45.57569" lon="2.94497">
        <ele>840.8</ele>
        <time>2021-08-26T10:45:38Z</time>
      </trkpt>
      <trkpt lat="45.57567" lon="2.94492">
        <ele>840.5</ele>
        <time>2021-08-26T10:45:40Z</time>
      </trkpt>
      <trkpt lat="45.57564" lon="2.94488">
        <ele>840.1</ele>
        <time>2021-08-26T10:45:42Z</time>
      </trkpt>
      <trkpt lat="45.57563" lon="2.94478">
        <ele>840.1</ele>
        <time>2021-08-26T10:45:44Z</time>
      </trkpt>
      <trkpt lat="45.57561" lon="2.94468">
        <ele>839.8</ele>
        <time>2021-08-26T10:45:46Z</time>
      </trkpt>
      <trkpt lat="45.57557" lon="2.94457">
        <ele>839.3</ele>
        <time>2021-08-26T10:45:48Z</time>
      </trkpt>
      <trkpt lat="45.57553" lon="2.94446">
        <ele>838.7</ele>
        <time>2021-08-26T10:45:50Z</time>
      </trkpt>
      <trkpt lat="45.57549" lon="2.94434">
        <ele>838.1</ele>
        <time>2021-08-26T10:45:52Z</time>
      </trkpt>
      <trkpt lat="45.57545" lon="2.94423">
        <ele>837.5</ele>
        <time>2021-08-26T10:45:54Z</time>
      </trkpt>
      <trkpt lat="45.57541" lon="2.94411">
        <ele>837.4</ele>
        <time>2021-08-26T10:45:56Z</time>
      </trkpt>
      <trkpt lat="45.57537" lon="2.94399">
        <ele>837.7</ele>
        <time>2021-08-26T10:45:58Z</time>
      </trkpt>
      <trkpt lat="45.57532" lon="2.94386">
        <ele>837.9</ele>
        <time>2021-08-26T10:46:00Z</time>
      </trkpt>
      <trkpt lat="45.57527" lon="2.94374">
        <ele>838.1</ele>
        <time>2021-08-26T10:46:02Z</time>
      </trkpt>
      <trkpt lat="45.5752" lon="2.94365">
        <ele>837.6</ele>
        <time>2021-08-26T10:46:04Z</time>
      </trkpt>
      <trkpt lat="45.57512" lon="2.94355">
        <ele>836.8</ele>
        <time>2021-08-26T10:46:06Z</time>
      </trkpt>
      <trkpt lat="45.57503" lon="2.94347">
        <ele>835.7</ele>
        <time>2021-08-26T10:46:08Z</time>
      </trkpt>
      <trkpt lat="45.57494" lon="2.94339">
        <ele>835.4</ele>
        <time>2021-08-26T10:46:10Z</time>
      </trkpt>
      <trkpt lat="45.57487" lon="2.9433">
        <ele>835.9</ele>
        <time>2021-08-26T10:46:12Z</time>
      </trkpt>
      <trkpt lat="45.57479" lon="2.94321">
        <ele>836.2</ele>
        <time>2021-08-26T10:46:14Z</time>
      </trkpt>
      <trkpt lat="45.57471" lon="2.94313">
        <ele>836.4</ele>
        <time>2021-08-26T10:46:16Z</time>
      </trkpt>
      <trkpt lat="45.57464" lon="2.94306">
        <ele>836.4</ele>
        <time>2021-08-26T10:46:18Z</time>
      </trkpt>
      <trkpt lat="45.57457" lon="2.94299">
        <ele>836.2</ele>
        <time>2021-08-26T10:46:20Z</time>
      </trkpt>
      <trkpt lat="45.57451" lon="2.94293">
        <ele>836</ele>
        <time>2021-08-26T10:46:22Z</time>
      </trkpt>
      <trkpt lat="45.57446" lon="2.94288">
        <ele>835.8</ele>
        <time>2021-08-26T10:46:24Z</time>
      </trkpt>
      <trkpt lat="45.57441" lon="2.94284">
        <ele>835.4</ele>
        <time>2021-08-26T10:46:26Z</time>
      </trkpt>
      <trkpt lat="45.57436" lon="2.9428">
        <ele>835</ele>
        <time>2021-08-26T10:46:28Z</time>
      </trkpt>
      <trkpt lat="45.57431" lon="2.94273">
        <ele>834.7</ele>
        <time>2021-08-26T10:46:30Z</time>
      </trkpt>
      <trkpt lat="45.57427" lon="2.9427">
        <ele>834.2</ele>
        <time>2021-08-26T10:46:32Z</time>
      </trkpt>
      <trkpt lat="45.5742" lon="2.94272">
        <ele>833.4</ele>
        <time>2021-08-26T10:46:34Z</time>
      </trkpt>
      <trkpt lat="45.57415" lon="2.94277">
        <ele>833.2</ele>
        <time>2021-08-26T10:46:36Z</time>
      </trkpt>
      <trkpt lat="45.57411" lon="2.9428">
        <ele>833.8</ele>
        <time>2021-08-26T10:46:38Z</time>
      </trkpt>
      <trkpt lat="45.57407" lon="2.94281">
        <ele>834.3</ele>
        <time>2021-08-26T10:46:40Z</time>
      </trkpt>
      <trkpt lat="45.57405" lon="2.9428">
        <ele>834.6</ele>
        <time>2021-08-26T10:46:42Z</time>
      </trkpt>
      <trkpt lat="45.57404" lon="2.94281">
        <ele>834.7</ele>
        <time>2021-08-26T10:46:44Z</time>
      </trkpt>
      <trkpt lat="45.57404" lon="2.94281">
        <ele>834.7</ele>
        <time>2021-08-26T10:46:46Z</time>
      </trkpt>
      <trkpt lat="45.57404" lon="2.94281">
        <ele>834.7</ele>
        <time>2021-08-26T10:46:48Z</time>
      </trkpt>
      <trkpt lat="45.57404" lon="2.94281">
        <ele>834.7</ele>
        <time>2021-08-26T10:46:50Z</time>
      </trkpt>
      <trkpt lat="45.57406" lon="2.94326">
        <ele>834.5</ele>
        <time>2021-08-26T10:47:20Z</time>
      </trkpt>
      <trkpt lat="45.57409" lon="2.9434">
        <ele>834.3</ele>
        <time>2021-08-26T10:47:22Z</time>
      </trkpt>
      <trkpt lat="45.57412" lon="2.94354">
        <ele>834.2</ele>
        <time>2021-08-26T10:47:24Z</time>
      </trkpt>
      <trkpt lat="45.57417" lon="2.94367">
        <ele>833.8</ele>
        <time>2021-08-26T10:47:26Z</time>
      </trkpt>
      <trkpt lat="45.57422" lon="2.94378">
        <ele>834</ele>
        <time>2021-08-26T10:47:28Z</time>
      </trkpt>
      <trkpt lat="45.57426" lon="2.94386">
        <ele>834</ele>
        <time>2021-08-26T10:47:30Z</time>
      </trkpt>
      <trkpt lat="45.57428" lon="2.94393">
        <ele>834.1</ele>
        <time>2021-08-26T10:47:32Z</time>
      </trkpt>
      <trkpt lat="45.57429" lon="2.944">
        <ele>834.1</ele>
        <time>2021-08-26T10:47:34Z</time>
      </trkpt>
      <trkpt lat="45.57431" lon="2.94405">
        <ele>834.1</ele>
        <time>2021-08-26T10:47:36Z</time>
      </trkpt>
      <trkpt lat="45.57432" lon="2.94409">
        <ele>834</ele>
        <time>2021-08-26T10:47:38Z</time>
      </trkpt>
      <trkpt lat="45.57433" lon="2.94414">
        <ele>834</ele>
        <time>2021-08-26T10:47:40Z</time>
      </trkpt>
      <trkpt lat="45.57434" lon="2.94418">
        <ele>834</ele>
        <time>2021-08-26T10:47:42Z</time>
      </trkpt>
      <trkpt lat="45.57437" lon="2.94423">
        <ele>834</ele>
        <time>2021-08-26T10:47:44Z</time>
      </trkpt>
      <trkpt lat="45.57437" lon="2.94428">
        <ele>834.1</ele>
        <time>2021-08-26T10:47:46Z</time>
      </trkpt>
      <trkpt lat="45.57439" lon="2.94433">
        <ele>834.1</ele>
        <time>2021-08-26T10:47:48Z</time>
      </trkpt>
      <trkpt lat="45.5744" lon="2.94438">
        <ele>834.1</ele>
        <time>2021-08-26T10:47:50Z</time>
      </trkpt>
      <trkpt lat="45.57442" lon="2.94441">
        <ele>834.1</ele>
        <time>2021-08-26T10:47:52Z</time>
      </trkpt>
      <trkpt lat="45.57443" lon="2.94446">
        <ele>834.2</ele>
        <time>2021-08-26T10:47:54Z</time>
      </trkpt>
      <trkpt lat="45.57444" lon="2.94452">
        <ele>834.2</ele>
        <time>2021-08-26T10:47:56Z</time>
      </trkpt>
      <trkpt lat="45.57445" lon="2.94457">
        <ele>834.2</ele>
        <time>2021-08-26T10:47:58Z</time>
      </trkpt>
      <trkpt lat="45.57446" lon="2.94462">
        <ele>834.3</ele>
        <time>2021-08-26T10:48:00Z</time>
      </trkpt>
      <trkpt lat="45.57447" lon="2.94467">
        <ele>834.3</ele>
        <time>2021-08-26T10:48:02Z</time>
      </trkpt>
      <trkpt lat="45.57447" lon="2.94472">
        <ele>834.5</ele>
        <time>2021-08-26T10:48:04Z</time>
      </trkpt>
      <trkpt lat="45.57447" lon="2.94476">
        <ele>834.6</ele>
        <time>2021-08-26T10:48:06Z</time>
      </trkpt>
      <trkpt lat="45.57446" lon="2.94481">
        <ele>834.8</ele>
        <time>2021-08-26T10:48:08Z</time>
      </trkpt>
      <trkpt lat="45.57446" lon="2.94485">
        <ele>834.9</ele>
        <time>2021-08-26T10:48:10Z</time>
      </trkpt>
      <trkpt lat="45.57445" lon="2.94489">
        <ele>835</ele>
        <time>2021-08-26T10:48:12Z</time>
      </trkpt>
      <trkpt lat="45.57444" lon="2.94493">
        <ele>835.2</ele>
        <time>2021-08-26T10:48:14Z</time>
      </trkpt>
      <trkpt lat="45.57442" lon="2.94496">
        <ele>835.4</ele>
        <time>2021-08-26T10:48:16Z</time>
      </trkpt>
      <trkpt lat="45.57441" lon="2.94499">
        <ele>835.6</ele>
        <time>2021-08-26T10:48:18Z</time>
      </trkpt>
      <trkpt lat="45.5744" lon="2.94502">
        <ele>835.7</ele>
        <time>2021-08-26T10:48:20Z</time>
      </trkpt>
      <trkpt lat="45.57441" lon="2.94506">
        <ele>835.4</ele>
        <time>2021-08-26T10:48:22Z</time>
      </trkpt>
      <trkpt lat="45.57441" lon="2.94511">
        <ele>835.2</ele>
        <time>2021-08-26T10:48:24Z</time>
      </trkpt>
      <trkpt lat="45.57441" lon="2.94521">
        <ele>834.6</ele>
        <time>2021-08-26T10:48:26Z</time>
      </trkpt>
      <trkpt lat="45.57443" lon="2.94532">
        <ele>834</ele>
        <time>2021-08-26T10:48:28Z</time>
      </trkpt>
      <trkpt lat="45.57442" lon="2.94544">
        <ele>833.5</ele>
        <time>2021-08-26T10:48:30Z</time>
      </trkpt>
      <trkpt lat="45.57441" lon="2.94555">
        <ele>833</ele>
        <time>2021-08-26T10:48:32Z</time>
      </trkpt>
      <trkpt lat="45.5744" lon="2.94566">
        <ele>832.6</ele>
        <time>2021-08-26T10:48:34Z</time>
      </trkpt>
      <trkpt lat="45.57438" lon="2.94578">
        <ele>832.3</ele>
        <time>2021-08-26T10:48:36Z</time>
      </trkpt>
      <trkpt lat="45.57434" lon="2.94587">
        <ele>832.3</ele>
        <time>2021-08-26T10:48:38Z</time>
      </trkpt>
      <trkpt lat="45.57431" lon="2.94593">
        <ele>832.7</ele>
        <time>2021-08-26T10:48:40Z</time>
      </trkpt>
      <trkpt lat="45.57429" lon="2.94597">
        <ele>832.9</ele>
        <time>2021-08-26T10:48:42Z</time>
      </trkpt>
      <trkpt lat="45.57431" lon="2.94601">
        <ele>832.7</ele>
        <time>2021-08-26T10:48:44Z</time>
      </trkpt>
      <trkpt lat="45.57433" lon="2.946">
        <ele>832.5</ele>
        <time>2021-08-26T10:48:46Z</time>
      </trkpt>
      <trkpt lat="45.57434" lon="2.94598">
        <ele>832.4</ele>
        <time>2021-08-26T10:48:48Z</time>
      </trkpt>
      <trkpt lat="45.57433" lon="2.94598">
        <ele>832.4</ele>
        <time>2021-08-26T10:48:50Z</time>
      </trkpt>
      <trkpt lat="45.57433" lon="2.94598">
        <ele>832.4</ele>
        <time>2021-08-26T10:48:52Z</time>
      </trkpt>
      <trkpt lat="45.57433" lon="2.94598">
        <ele>832.4</ele>
        <time>2021-08-26T10:48:54Z</time>
      </trkpt>
      <trkpt lat="45.57433" lon="2.94598">
        <ele>832.4</ele>
        <time>2021-08-26T10:48:56Z</time>
      </trkpt>
      <trkpt lat="45.57437" lon="2.9458">
        <ele>832.2</ele>
        <time>2021-08-26T10:51:02Z</time>
      </trkpt>
      <trkpt lat="45.57437" lon="2.94576">
        <ele>832.4</ele>
        <time>2021-08-26T10:51:04Z</time>
      </trkpt>
      <trkpt lat="45.57438" lon="2.94572">
        <ele>832.5</ele>
        <time>2021-08-26T10:51:06Z</time>
      </trkpt>
      <trkpt lat="45.57439" lon="2.9457">
        <ele>832.5</ele>
        <time>2021-08-26T10:51:08Z</time>
      </trkpt>
      <trkpt lat="45.57441" lon="2.94575">
        <ele>832.1</ele>
        <time>2021-08-26T10:51:10Z</time>
      </trkpt>
      <trkpt lat="45.57442" lon="2.94587">
        <ele>831.5</ele>
        <time>2021-08-26T10:51:12Z</time>
      </trkpt>
      <trkpt lat="45.57444" lon="2.94601">
        <ele>831.3</ele>
        <time>2021-08-26T10:51:14Z</time>
      </trkpt>
      <trkpt lat="45.57448" lon="2.94615">
        <ele>830.8</ele>
        <time>2021-08-26T10:51:16Z</time>
      </trkpt>
      <trkpt lat="45.5745" lon="2.94632">
        <ele>830.4</ele>
        <time>2021-08-26T10:51:18Z</time>
      </trkpt>
      <trkpt lat="45.57451" lon="2.94654">
        <ele>830.2</ele>
        <time>2021-08-26T10:51:20Z</time>
      </trkpt>
      <trkpt lat="45.57454" lon="2.94681">
        <ele>829.5</ele>
        <time>2021-08-26T10:51:22Z</time>
      </trkpt>
      <trkpt lat="45.57452" lon="2.94706">
        <ele>829.6</ele>
        <time>2021-08-26T10:51:24Z</time>
      </trkpt>
      <trkpt lat="45.57453" lon="2.94728">
        <ele>829.4</ele>
        <time>2021-08-26T10:51:26Z</time>
      </trkpt>
      <trkpt lat="45.57456" lon="2.94745">
        <ele>828.6</ele>
        <time>2021-08-26T10:51:28Z</time>
      </trkpt>
      <trkpt lat="45.5746" lon="2.94755">
        <ele>827.6</ele>
        <time>2021-08-26T10:51:30Z</time>
      </trkpt>
      <trkpt lat="45.57471" lon="2.94757">
        <ele>825.3</ele>
        <time>2021-08-26T10:51:32Z</time>
      </trkpt>
      <trkpt lat="45.57482" lon="2.9476">
        <ele>822.8</ele>
        <time>2021-08-26T10:51:34Z</time>
      </trkpt>
      <trkpt lat="45.57488" lon="2.94776">
        <ele>821.5</ele>
        <time>2021-08-26T10:51:36Z</time>
      </trkpt>
      <trkpt lat="45.57488" lon="2.94793">
        <ele>821.4</ele>
        <time>2021-08-26T10:51:38Z</time>
      </trkpt>
      <trkpt lat="45.57494" lon="2.94806">
        <ele>820.2</ele>
        <time>2021-08-26T10:51:40Z</time>
      </trkpt>
      <trkpt lat="45.57502" lon="2.94815">
        <ele>819.1</ele>
        <time>2021-08-26T10:51:42Z</time>
      </trkpt>
      <trkpt lat="45.57512" lon="2.94824">
        <ele>819.2</ele>
        <time>2021-08-26T10:51:44Z</time>
      </trkpt>
      <trkpt lat="45.57522" lon="2.94828">
        <ele>819.4</ele>
        <time>2021-08-26T10:51:46Z</time>
      </trkpt>
      <trkpt lat="45.57533" lon="2.94831">
        <ele>819.4</ele>
        <time>2021-08-26T10:51:48Z</time>
      </trkpt>
      <trkpt lat="45.57542" lon="2.94837">
        <ele>819.4</ele>
        <time>2021-08-26T10:51:50Z</time>
      </trkpt>
      <trkpt lat="45.57547" lon="2.94846">
        <ele>819.2</ele>
        <time>2021-08-26T10:51:52Z</time>
      </trkpt>
      <trkpt lat="45.57551" lon="2.94857">
        <ele>818.8</ele>
        <time>2021-08-26T10:51:54Z</time>
      </trkpt>
      <trkpt lat="45.57555" lon="2.94869">
        <ele>818.4</ele>
        <time>2021-08-26T10:51:56Z</time>
      </trkpt>
      <trkpt lat="45.57553" lon="2.94882">
        <ele>818</ele>
        <time>2021-08-26T10:51:58Z</time>
      </trkpt>
      <trkpt lat="45.57545" lon="2.94891">
        <ele>818</ele>
        <time>2021-08-26T10:52:00Z</time>
      </trkpt>
      <trkpt lat="45.57536" lon="2.94895">
        <ele>818.2</ele>
        <time>2021-08-26T10:52:02Z</time>
      </trkpt>
      <trkpt lat="45.57529" lon="2.94901">
        <ele>818.5</ele>
        <time>2021-08-26T10:52:04Z</time>
      </trkpt>
      <trkpt lat="45.57523" lon="2.94905">
        <ele>818.7</ele>
        <time>2021-08-26T10:52:06Z</time>
      </trkpt>
      <trkpt lat="45.57517" lon="2.9491">
        <ele>819</ele>
        <time>2021-08-26T10:52:08Z</time>
      </trkpt>
      <trkpt lat="45.57512" lon="2.94915">
        <ele>819.3</ele>
        <time>2021-08-26T10:52:10Z</time>
      </trkpt>
      <trkpt lat="45.57508" lon="2.94919">
        <ele>819.5</ele>
        <time>2021-08-26T10:52:12Z</time>
      </trkpt>
      <trkpt lat="45.57505" lon="2.94921">
        <ele>819.8</ele>
        <time>2021-08-26T10:52:14Z</time>
      </trkpt>
      <trkpt lat="45.57502" lon="2.94925">
        <ele>820</ele>
        <time>2021-08-26T10:52:16Z</time>
      </trkpt>
      <trkpt lat="45.57499" lon="2.9493">
        <ele>820.2</ele>
        <time>2021-08-26T10:52:18Z</time>
      </trkpt>
      <trkpt lat="45.57496" lon="2.94933">
        <ele>820.7</ele>
        <time>2021-08-26T10:52:20Z</time>
      </trkpt>
      <trkpt lat="45.57492" lon="2.94936">
        <ele>821.2</ele>
        <time>2021-08-26T10:52:22Z</time>
      </trkpt>
      <trkpt lat="45.57489" lon="2.94939">
        <ele>821.7</ele>
        <time>2021-08-26T10:52:24Z</time>
      </trkpt>
      <trkpt lat="45.57486" lon="2.94943">
        <ele>822.1</ele>
        <time>2021-08-26T10:52:26Z</time>
      </trkpt>
      <trkpt lat="45.57482" lon="2.94947">
        <ele>822.6</ele>
        <time>2021-08-26T10:52:28Z</time>
      </trkpt>
      <trkpt lat="45.57479" lon="2.9495">
        <ele>823.1</ele>
        <time>2021-08-26T10:52:30Z</time>
      </trkpt>
      <trkpt lat="45.57476" lon="2.94953">
        <ele>823.6</ele>
        <time>2021-08-26T10:52:32Z</time>
      </trkpt>
      <trkpt lat="45.57472" lon="2.94955">
        <ele>824.1</ele>
        <time>2021-08-26T10:52:34Z</time>
      </trkpt>
      <trkpt lat="45.5747" lon="2.94958">
        <ele>824.5</ele>
        <time>2021-08-26T10:52:36Z</time>
      </trkpt>
      <trkpt lat="45.57467" lon="2.9496">
        <ele>824.9</ele>
        <time>2021-08-26T10:52:38Z</time>
      </trkpt>
      <trkpt lat="45.57464" lon="2.94962">
        <ele>825.4</ele>
        <time>2021-08-26T10:52:40Z</time>
      </trkpt>
      <trkpt lat="45.57461" lon="2.94965">
        <ele>825.9</ele>
        <time>2021-08-26T10:52:42Z</time>
      </trkpt>
      <trkpt lat="45.57457" lon="2.94967">
        <ele>826.4</ele>
        <time>2021-08-26T10:52:44Z</time>
      </trkpt>
      <trkpt lat="45.57455" lon="2.94969">
        <ele>826.7</ele>
        <time>2021-08-26T10:52:46Z</time>
      </trkpt>
      <trkpt lat="45.57452" lon="2.94971">
        <ele>827.2</ele>
        <time>2021-08-26T10:52:48Z</time>
      </trkpt>
      <trkpt lat="45.57448" lon="2.94972">
        <ele>827.7</ele>
        <time>2021-08-26T10:52:50Z</time>
      </trkpt>
      <trkpt lat="45.57445" lon="2.94976">
        <ele>828.2</ele>
        <time>2021-08-26T10:52:52Z</time>
      </trkpt>
      <trkpt lat="45.57441" lon="2.94978">
        <ele>828.8</ele>
        <time>2021-08-26T10:52:54Z</time>
      </trkpt>
      <trkpt lat="45.57438" lon="2.9498">
        <ele>829.3</ele>
        <time>2021-08-26T10:52:56Z</time>
      </trkpt>
      <trkpt lat="45.57435" lon="2.94982">
        <ele>829.8</ele>
        <time>2021-08-26T10:52:58Z</time>
      </trkpt>
      <trkpt lat="45.57432" lon="2.94984">
        <ele>830.3</ele>
        <time>2021-08-26T10:53:00Z</time>
      </trkpt>
      <trkpt lat="45.57429" lon="2.94986">
        <ele>830.8</ele>
        <time>2021-08-26T10:53:02Z</time>
      </trkpt>
      <trkpt lat="45.57426" lon="2.94988">
        <ele>831.2</ele>
        <time>2021-08-26T10:53:04Z</time>
      </trkpt>
      <trkpt lat="45.57425" lon="2.94992">
        <ele>831.6</ele>
        <time>2021-08-26T10:53:06Z</time>
      </trkpt>
      <trkpt lat="45.57425" lon="2.94998">
        <ele>831.7</ele>
        <time>2021-08-26T10:53:08Z</time>
      </trkpt>
      <trkpt lat="45.57428" lon="2.95005">
        <ele>831.4</ele>
        <time>2021-08-26T10:53:10Z</time>
      </trkpt>
      <trkpt lat="45.57431" lon="2.95012">
        <ele>831.3</ele>
        <time>2021-08-26T10:53:12Z</time>
      </trkpt>
      <trkpt lat="45.57434" lon="2.95019">
        <ele>831</ele>
        <time>2021-08-26T10:53:14Z</time>
      </trkpt>
      <trkpt lat="45.57437" lon="2.95026">
        <ele>830.8</ele>
        <time>2021-08-26T10:53:16Z</time>
      </trkpt>
      <trkpt lat="45.5744" lon="2.95034">
        <ele>830.6</ele>
        <time>2021-08-26T10:53:18Z</time>
      </trkpt>
      <trkpt lat="45.57443" lon="2.95041">
        <ele>830.3</ele>
        <time>2021-08-26T10:53:20Z</time>
      </trkpt>
      <trkpt lat="45.57446" lon="2.9505">
        <ele>829.9</ele>
        <time>2021-08-26T10:53:22Z</time>
      </trkpt>
      <trkpt lat="45.57449" lon="2.9506">
        <ele>829.6</ele>
        <time>2021-08-26T10:53:24Z</time>
      </trkpt>
      <trkpt lat="45.57453" lon="2.95068">
        <ele>829.2</ele>
        <time>2021-08-26T10:53:26Z</time>
      </trkpt>
      <trkpt lat="45.57455" lon="2.95077">
        <ele>828.9</ele>
        <time>2021-08-26T10:53:28Z</time>
      </trkpt>
      <trkpt lat="45.57458" lon="2.95086">
        <ele>828.6</ele>
        <time>2021-08-26T10:53:30Z</time>
      </trkpt>
      <trkpt lat="45.57462" lon="2.95095">
        <ele>827.7</ele>
        <time>2021-08-26T10:53:32Z</time>
      </trkpt>
      <trkpt lat="45.57466" lon="2.95103">
        <ele>827.1</ele>
        <time>2021-08-26T10:53:34Z</time>
      </trkpt>
      <trkpt lat="45.57468" lon="2.95111">
        <ele>826.7</ele>
        <time>2021-08-26T10:53:36Z</time>
      </trkpt>
      <trkpt lat="45.57472" lon="2.95119">
        <ele>826.1</ele>
        <time>2021-08-26T10:53:38Z</time>
      </trkpt>
      <trkpt lat="45.57475" lon="2.95127">
        <ele>825.5</ele>
        <time>2021-08-26T10:53:40Z</time>
      </trkpt>
      <trkpt lat="45.57478" lon="2.95135">
        <ele>825.1</ele>
        <time>2021-08-26T10:53:42Z</time>
      </trkpt>
      <trkpt lat="45.5748" lon="2.95141">
        <ele>824.9</ele>
        <time>2021-08-26T10:53:44Z</time>
      </trkpt>
      <trkpt lat="45.57481" lon="2.95143">
        <ele>824.7</ele>
        <time>2021-08-26T10:53:46Z</time>
      </trkpt>
      <trkpt lat="45.57481" lon="2.95142">
        <ele>824.7</ele>
        <time>2021-08-26T10:53:48Z</time>
      </trkpt>
      <trkpt lat="45.57481" lon="2.95143">
        <ele>824.7</ele>
        <time>2021-08-26T10:53:50Z</time>
      </trkpt>
      <trkpt lat="45.57481" lon="2.95143">
        <ele>824.7</ele>
        <time>2021-08-26T10:53:52Z</time>
      </trkpt>
      <trkpt lat="45.57481" lon="2.95143">
        <ele>824.7</ele>
        <time>2021-08-26T10:53:54Z</time>
      </trkpt>
      <trkpt lat="45.57481" lon="2.95145">
        <ele>824.6</ele>
        <time>2021-08-26T10:54:42Z</time>
      </trkpt>
      <trkpt lat="45.57482" lon="2.95145">
        <ele>824.6</ele>
        <time>2021-08-26T10:54:44Z</time>
      </trkpt>
      <trkpt lat="45.57482" lon="2.95145">
        <ele>824.6</ele>
        <time>2021-08-26T10:54:46Z</time>
      </trkpt>
      <trkpt lat="45.57482" lon="2.95145">
        <ele>824.6</ele>
        <time>2021-08-26T10:54:48Z</time>
      </trkpt>
      <trkpt lat="45.57482" lon="2.95145">
        <ele>824.6</ele>
        <time>2021-08-26T10:54:50Z</time>
      </trkpt>
      <trkpt lat="45.57482" lon="2.95147">
        <ele>824.5</ele>
        <time>2021-08-26T10:54:52Z</time>
      </trkpt>
      <trkpt lat="45.57482" lon="2.95151">
        <ele>824.5</ele>
        <time>2021-08-26T10:54:54Z</time>
      </trkpt>
      <trkpt lat="45.5748" lon="2.95154">
        <ele>824.8</ele>
        <time>2021-08-26T10:54:56Z</time>
      </trkpt>
      <trkpt lat="45.5748" lon="2.95159">
        <ele>824.9</ele>
        <time>2021-08-26T10:54:58Z</time>
      </trkpt>
      <trkpt lat="45.57479" lon="2.95162">
        <ele>825</ele>
        <time>2021-08-26T10:55:00Z</time>
      </trkpt>
      <trkpt lat="45.57479" lon="2.95162">
        <ele>825</ele>
        <time>2021-08-26T10:55:02Z</time>
      </trkpt>
      <trkpt lat="45.57479" lon="2.95162">
        <ele>825</ele>
        <time>2021-08-26T10:55:04Z</time>
      </trkpt>
      <trkpt lat="45.57479" lon="2.95162">
        <ele>825</ele>
        <time>2021-08-26T10:55:06Z</time>
      </trkpt>
      <trkpt lat="45.57479" lon="2.95162">
        <ele>825.1</ele>
        <time>2021-08-26T10:55:08Z</time>
      </trkpt>
      <trkpt lat="45.57479" lon="2.95162">
        <ele>825.1</ele>
        <time>2021-08-26T10:55:10Z</time>
      </trkpt>
      <trkpt lat="45.57485" lon="2.95186">
        <ele>823.6</ele>
        <time>2021-08-26T10:55:28Z</time>
      </trkpt>
      <trkpt lat="45.57486" lon="2.95198">
        <ele>823</ele>
        <time>2021-08-26T10:55:30Z</time>
      </trkpt>
      <trkpt lat="45.57491" lon="2.95214">
        <ele>821.9</ele>
        <time>2021-08-26T10:55:32Z</time>
      </trkpt>
      <trkpt lat="45.57497" lon="2.95237">
        <ele>820.6</ele>
        <time>2021-08-26T10:55:34Z</time>
      </trkpt>
      <trkpt lat="45.57505" lon="2.95263">
        <ele>819.2</ele>
        <time>2021-08-26T10:55:36Z</time>
      </trkpt>
      <trkpt lat="45.57511" lon="2.95288">
        <ele>817.7</ele>
        <time>2021-08-26T10:55:38Z</time>
      </trkpt>
      <trkpt lat="45.57518" lon="2.95312">
        <ele>816.3</ele>
        <time>2021-08-26T10:55:40Z</time>
      </trkpt>
      <trkpt lat="45.57524" lon="2.95335">
        <ele>815.1</ele>
        <time>2021-08-26T10:55:42Z</time>
      </trkpt>
      <trkpt lat="45.57529" lon="2.95356">
        <ele>814.7</ele>
        <time>2021-08-26T10:55:44Z</time>
      </trkpt>
      <trkpt lat="45.57535" lon="2.95377">
        <ele>814.2</ele>
        <time>2021-08-26T10:55:46Z</time>
      </trkpt>
      <trkpt lat="45.57542" lon="2.95398">
        <ele>813.7</ele>
        <time>2021-08-26T10:55:48Z</time>
      </trkpt>
      <trkpt lat="45.57546" lon="2.95419">
        <ele>813.4</ele>
        <time>2021-08-26T10:55:50Z</time>
      </trkpt>
      <trkpt lat="45.57553" lon="2.95438">
        <ele>813.7</ele>
        <time>2021-08-26T10:55:52Z</time>
      </trkpt>
      <trkpt lat="45.57558" lon="2.95457">
        <ele>814.1</ele>
        <time>2021-08-26T10:55:54Z</time>
      </trkpt>
      <trkpt lat="45.57563" lon="2.95476">
        <ele>814.5</ele>
        <time>2021-08-26T10:55:56Z</time>
      </trkpt>
      <trkpt lat="45.57568" lon="2.95497">
        <ele>815.1</ele>
        <time>2021-08-26T10:55:58Z</time>
      </trkpt>
      <trkpt lat="45.57574" lon="2.95514">
        <ele>814.8</ele>
        <time>2021-08-26T10:56:00Z</time>
      </trkpt>
      <trkpt lat="45.57576" lon="2.95533">
        <ele>814.3</ele>
        <time>2021-08-26T10:56:02Z</time>
      </trkpt>
      <trkpt lat="45.57578" lon="2.95551">
        <ele>813.9</ele>
        <time>2021-08-26T10:56:04Z</time>
      </trkpt>
      <trkpt lat="45.57581" lon="2.95567">
        <ele>813.4</ele>
        <time>2021-08-26T10:56:06Z</time>
      </trkpt>
      <trkpt lat="45.57584" lon="2.95583">
        <ele>813</ele>
        <time>2021-08-26T10:56:08Z</time>
      </trkpt>
      <trkpt lat="45.57588" lon="2.95599">
        <ele>812.6</ele>
        <time>2021-08-26T10:56:10Z</time>
      </trkpt>
      <trkpt lat="45.57594" lon="2.95615">
        <ele>812.2</ele>
        <time>2021-08-26T10:56:12Z</time>
      </trkpt>
      <trkpt lat="45.576" lon="2.95632">
        <ele>811.7</ele>
        <time>2021-08-26T10:56:14Z</time>
      </trkpt>
      <trkpt lat="45.57604" lon="2.9565">
        <ele>811.3</ele>
        <time>2021-08-26T10:56:16Z</time>
      </trkpt>
      <trkpt lat="45.57607" lon="2.95664">
        <ele>811.1</ele>
        <time>2021-08-26T10:56:18Z</time>
      </trkpt>
      <trkpt lat="45.57612" lon="2.95678">
        <ele>811.3</ele>
        <time>2021-08-26T10:56:20Z</time>
      </trkpt>
      <trkpt lat="45.57618" lon="2.95693">
        <ele>811.5</ele>
        <time>2021-08-26T10:56:22Z</time>
      </trkpt>
      <trkpt lat="45.57624" lon="2.95706">
        <ele>811.7</ele>
        <time>2021-08-26T10:56:24Z</time>
      </trkpt>
      <trkpt lat="45.57628" lon="2.95717">
        <ele>811.9</ele>
        <time>2021-08-26T10:56:26Z</time>
      </trkpt>
      <trkpt lat="45.57632" lon="2.95728">
        <ele>811.9</ele>
        <time>2021-08-26T10:56:28Z</time>
      </trkpt>
      <trkpt lat="45.57635" lon="2.95739">
        <ele>812</ele>
        <time>2021-08-26T10:56:30Z</time>
      </trkpt>
      <trkpt lat="45.57639" lon="2.95752">
        <ele>812</ele>
        <time>2021-08-26T10:56:32Z</time>
      </trkpt>
      <trkpt lat="45.57639" lon="2.95766">
        <ele>811.9</ele>
        <time>2021-08-26T10:56:34Z</time>
      </trkpt>
      <trkpt lat="45.57639" lon="2.9578">
        <ele>811.9</ele>
        <time>2021-08-26T10:56:36Z</time>
      </trkpt>
      <trkpt lat="45.57639" lon="2.95794">
        <ele>811.8</ele>
        <time>2021-08-26T10:56:38Z</time>
      </trkpt>
      <trkpt lat="45.57636" lon="2.95807">
        <ele>811.8</ele>
        <time>2021-08-26T10:56:40Z</time>
      </trkpt>
      <trkpt lat="45.5763" lon="2.95818">
        <ele>811.9</ele>
        <time>2021-08-26T10:56:42Z</time>
      </trkpt>
      <trkpt lat="45.57622" lon="2.95831">
        <ele>812.1</ele>
        <time>2021-08-26T10:56:44Z</time>
      </trkpt>
      <trkpt lat="45.57612" lon="2.95841">
        <ele>812.2</ele>
        <time>2021-08-26T10:56:46Z</time>
      </trkpt>
      <trkpt lat="45.57604" lon="2.95855">
        <ele>812.2</ele>
        <time>2021-08-26T10:56:48Z</time>
      </trkpt>
      <trkpt lat="45.576" lon="2.95872">
        <ele>812</ele>
        <time>2021-08-26T10:56:50Z</time>
      </trkpt>
      <trkpt lat="45.57597" lon="2.9589">
        <ele>811.6</ele>
        <time>2021-08-26T10:56:52Z</time>
      </trkpt>
      <trkpt lat="45.57596" lon="2.95908">
        <ele>811.3</ele>
        <time>2021-08-26T10:56:54Z</time>
      </trkpt>
      <trkpt lat="45.57593" lon="2.95926">
        <ele>810.2</ele>
        <time>2021-08-26T10:56:56Z</time>
      </trkpt>
      <trkpt lat="45.57594" lon="2.95944">
        <ele>808.5</ele>
        <time>2021-08-26T10:56:58Z</time>
      </trkpt>
      <trkpt lat="45.57595" lon="2.95958">
        <ele>807.3</ele>
        <time>2021-08-26T10:57:00Z</time>
      </trkpt>
      <trkpt lat="45.57596" lon="2.95968">
        <ele>806.4</ele>
        <time>2021-08-26T10:57:02Z</time>
      </trkpt>
      <trkpt lat="45.57596" lon="2.95977">
        <ele>805.7</ele>
        <time>2021-08-26T10:57:04Z</time>
      </trkpt>
      <trkpt lat="45.57596" lon="2.95984">
        <ele>805</ele>
        <time>2021-08-26T10:57:06Z</time>
      </trkpt>
      <trkpt lat="45.57595" lon="2.95989">
        <ele>804.5</ele>
        <time>2021-08-26T10:57:08Z</time>
      </trkpt>
      <trkpt lat="45.57595" lon="2.95993">
        <ele>804.1</ele>
        <time>2021-08-26T10:57:10Z</time>
      </trkpt>
      <trkpt lat="45.57595" lon="2.96">
        <ele>803.4</ele>
        <time>2021-08-26T10:57:12Z</time>
      </trkpt>
      <trkpt lat="45.57602" lon="2.96007">
        <ele>803.8</ele>
        <time>2021-08-26T10:57:14Z</time>
      </trkpt>
      <trkpt lat="45.57606" lon="2.96012">
        <ele>804</ele>
        <time>2021-08-26T10:57:16Z</time>
      </trkpt>
      <trkpt lat="45.57607" lon="2.96015">
        <ele>804</ele>
        <time>2021-08-26T10:57:18Z</time>
      </trkpt>
      <trkpt lat="45.57607" lon="2.96015">
        <ele>804</ele>
        <time>2021-08-26T10:57:20Z</time>
      </trkpt>
      <trkpt lat="45.57607" lon="2.96015">
        <ele>804</ele>
        <time>2021-08-26T10:57:22Z</time>
      </trkpt>
      <trkpt lat="45.57607" lon="2.96015">
        <ele>804.1</ele>
        <time>2021-08-26T10:57:24Z</time>
      </trkpt>
      <trkpt lat="45.57608" lon="2.96014">
        <ele>804.1</ele>
        <time>2021-08-26T10:57:26Z</time>
      </trkpt>
      <trkpt lat="45.57595" lon="2.9594">
        <ele>809</ele>
        <time>2021-08-26T10:59:26Z</time>
      </trkpt>
      <trkpt lat="45.57596" lon="2.95935">
        <ele>809.5</ele>
        <time>2021-08-26T10:59:28Z</time>
      </trkpt>
      <trkpt lat="45.57596" lon="2.95926">
        <ele>810.3</ele>
        <time>2021-08-26T10:59:30Z</time>
      </trkpt>
      <trkpt lat="45.57596" lon="2.95913">
        <ele>811.2</ele>
        <time>2021-08-26T10:59:32Z</time>
      </trkpt>
      <trkpt lat="45.57596" lon="2.95905">
        <ele>811.4</ele>
        <time>2021-08-26T10:59:34Z</time>
      </trkpt>
      <trkpt lat="45.57598" lon="2.95896">
        <ele>811.5</ele>
        <time>2021-08-26T10:59:36Z</time>
      </trkpt>
      <trkpt lat="45.57598" lon="2.95887">
        <ele>811.7</ele>
        <time>2021-08-26T10:59:38Z</time>
      </trkpt>
      <trkpt lat="45.576" lon="2.95878">
        <ele>811.8</ele>
        <time>2021-08-26T10:59:40Z</time>
      </trkpt>
      <trkpt lat="45.57601" lon="2.9587">
        <ele>812</ele>
        <time>2021-08-26T10:59:42Z</time>
      </trkpt>
      <trkpt lat="45.57604" lon="2.95862">
        <ele>812.1</ele>
        <time>2021-08-26T10:59:44Z</time>
      </trkpt>
      <trkpt lat="45.57606" lon="2.95855">
        <ele>812.1</ele>
        <time>2021-08-26T10:59:46Z</time>
      </trkpt>
      <trkpt lat="45.57609" lon="2.95849">
        <ele>812.2</ele>
        <time>2021-08-26T10:59:48Z</time>
      </trkpt>
      <trkpt lat="45.57613" lon="2.95843">
        <ele>812.2</ele>
        <time>2021-08-26T10:59:50Z</time>
      </trkpt>
      <trkpt lat="45.57617" lon="2.95839">
        <ele>812.2</ele>
        <time>2021-08-26T10:59:52Z</time>
      </trkpt>
      <trkpt lat="45.57621" lon="2.95834">
        <ele>812.1</ele>
        <time>2021-08-26T10:59:54Z</time>
      </trkpt>
      <trkpt lat="45.57625" lon="2.95829">
        <ele>812</ele>
        <time>2021-08-26T10:59:56Z</time>
      </trkpt>
      <trkpt lat="45.57628" lon="2.95825">
        <ele>812</ele>
        <time>2021-08-26T10:59:58Z</time>
      </trkpt>
      <trkpt lat="45.57631" lon="2.9582">
        <ele>811.9</ele>
        <time>2021-08-26T11:00:00Z</time>
      </trkpt>
      <trkpt lat="45.57634" lon="2.95815">
        <ele>811.9</ele>
        <time>2021-08-26T11:00:02Z</time>
      </trkpt>
      <trkpt lat="45.57636" lon="2.9581">
        <ele>811.8</ele>
        <time>2021-08-26T11:00:04Z</time>
      </trkpt>
      <trkpt lat="45.57637" lon="2.95803">
        <ele>811.8</ele>
        <time>2021-08-26T11:00:06Z</time>
      </trkpt>
      <trkpt lat="45.57638" lon="2.95796">
        <ele>811.8</ele>
        <time>2021-08-26T11:00:08Z</time>
      </trkpt>
      <trkpt lat="45.5764" lon="2.9579">
        <ele>811.8</ele>
        <time>2021-08-26T11:00:10Z</time>
      </trkpt>
      <trkpt lat="45.5764" lon="2.95783">
        <ele>811.8</ele>
        <time>2021-08-26T11:00:12Z</time>
      </trkpt>
      <trkpt lat="45.57641" lon="2.95776">
        <ele>811.8</ele>
        <time>2021-08-26T11:00:14Z</time>
      </trkpt>
      <trkpt lat="45.57641" lon="2.95769">
        <ele>811.9</ele>
        <time>2021-08-26T11:00:16Z</time>
      </trkpt>
      <trkpt lat="45.57641" lon="2.95762">
        <ele>811.9</ele>
        <time>2021-08-26T11:00:18Z</time>
      </trkpt>
      <trkpt lat="45.5764" lon="2.95756">
        <ele>811.9</ele>
        <time>2021-08-26T11:00:20Z</time>
      </trkpt>
      <trkpt lat="45.57638" lon="2.95748">
        <ele>812</ele>
        <time>2021-08-26T11:00:22Z</time>
      </trkpt>
      <trkpt lat="45.57636" lon="2.95742">
        <ele>812</ele>
        <time>2021-08-26T11:00:24Z</time>
      </trkpt>
      <trkpt lat="45.57634" lon="2.95736">
        <ele>812</ele>
        <time>2021-08-26T11:00:26Z</time>
      </trkpt>
      <trkpt lat="45.57631" lon="2.95731">
        <ele>812</ele>
        <time>2021-08-26T11:00:28Z</time>
      </trkpt>
      <trkpt lat="45.57629" lon="2.95725">
        <ele>811.9</ele>
        <time>2021-08-26T11:00:30Z</time>
      </trkpt>
      <trkpt lat="45.57628" lon="2.95721">
        <ele>811.9</ele>
        <time>2021-08-26T11:00:32Z</time>
      </trkpt>
      <trkpt lat="45.57625" lon="2.95715">
        <ele>811.9</ele>
        <time>2021-08-26T11:00:34Z</time>
      </trkpt>
      <trkpt lat="45.57622" lon="2.95712">
        <ele>811.9</ele>
        <time>2021-08-26T11:00:36Z</time>
      </trkpt>
      <trkpt lat="45.5762" lon="2.95708">
        <ele>811.8</ele>
        <time>2021-08-26T11:00:38Z</time>
      </trkpt>
      <trkpt lat="45.57619" lon="2.95705">
        <ele>811.8</ele>
        <time>2021-08-26T11:00:40Z</time>
      </trkpt>
      <trkpt lat="45.5762" lon="2.95701">
        <ele>811.7</ele>
        <time>2021-08-26T11:00:42Z</time>
      </trkpt>
      <trkpt lat="45.57621" lon="2.95696">
        <ele>811.6</ele>
        <time>2021-08-26T11:00:44Z</time>
      </trkpt>
      <trkpt lat="45.57619" lon="2.95692">
        <ele>811.5</ele>
        <time>2021-08-26T11:00:46Z</time>
      </trkpt>
      <trkpt lat="45.57616" lon="2.95692">
        <ele>811.6</ele>
        <time>2021-08-26T11:00:48Z</time>
      </trkpt>
      <trkpt lat="45.57615" lon="2.95694">
        <ele>811.6</ele>
        <time>2021-08-26T11:00:50Z</time>
      </trkpt>
      <trkpt lat="45.57615" lon="2.95697">
        <ele>811.7</ele>
        <time>2021-08-26T11:00:52Z</time>
      </trkpt>
      <trkpt lat="45.57616" lon="2.957">
        <ele>811.7</ele>
        <time>2021-08-26T11:00:54Z</time>
      </trkpt>
      <trkpt lat="45.57618" lon="2.95703">
        <ele>811.7</ele>
        <time>2021-08-26T11:00:56Z</time>
      </trkpt>
      <trkpt lat="45.5762" lon="2.95704">
        <ele>811.7</ele>
        <time>2021-08-26T11:00:58Z</time>
      </trkpt>
      <trkpt lat="45.57623" lon="2.95706">
        <ele>811.7</ele>
        <time>2021-08-26T11:01:00Z</time>
      </trkpt>
      <trkpt lat="45.57625" lon="2.95711">
        <ele>811.8</ele>
        <time>2021-08-26T11:01:02Z</time>
      </trkpt>
      <trkpt lat="45.57626" lon="2.95716">
        <ele>811.9</ele>
        <time>2021-08-26T11:01:04Z</time>
      </trkpt>
      <trkpt lat="45.57628" lon="2.95721">
        <ele>811.9</ele>
        <time>2021-08-26T11:01:06Z</time>
      </trkpt>
      <trkpt lat="45.5763" lon="2.95725">
        <ele>811.9</ele>
        <time>2021-08-26T11:01:08Z</time>
      </trkpt>
      <trkpt lat="45.57632" lon="2.95732">
        <ele>812</ele>
        <time>2021-08-26T11:01:10Z</time>
      </trkpt>
      <trkpt lat="45.57634" lon="2.9574">
        <ele>812</ele>
        <time>2021-08-26T11:01:12Z</time>
      </trkpt>
      <trkpt lat="45.57636" lon="2.95748">
        <ele>812.1</ele>
        <time>2021-08-26T11:01:14Z</time>
      </trkpt>
      <trkpt lat="45.57636" lon="2.95758">
        <ele>812.1</ele>
        <time>2021-08-26T11:01:16Z</time>
      </trkpt>
      <trkpt lat="45.57638" lon="2.95767">
        <ele>812</ele>
        <time>2021-08-26T11:01:18Z</time>
      </trkpt>
      <trkpt lat="45.57639" lon="2.95777">
        <ele>811.9</ele>
        <time>2021-08-26T11:01:20Z</time>
      </trkpt>
      <trkpt lat="45.57638" lon="2.95787">
        <ele>811.9</ele>
        <time>2021-08-26T11:01:22Z</time>
      </trkpt>
      <trkpt lat="45.57636" lon="2.95798">
        <ele>811.9</ele>
        <time>2021-08-26T11:01:24Z</time>
      </trkpt>
      <trkpt lat="45.57633" lon="2.95809">
        <ele>811.9</ele>
        <time>2021-08-26T11:01:26Z</time>
      </trkpt>
      <trkpt lat="45.57628" lon="2.95818">
        <ele>812</ele>
        <time>2021-08-26T11:01:28Z</time>
      </trkpt>
      <trkpt lat="45.57621" lon="2.95828">
        <ele>812.1</ele>
        <time>2021-08-26T11:01:30Z</time>
      </trkpt>
      <trkpt lat="45.57611" lon="2.95838">
        <ele>812.3</ele>
        <time>2021-08-26T11:01:32Z</time>
      </trkpt>
      <trkpt lat="45.57604" lon="2.95851">
        <ele>812.2</ele>
        <time>2021-08-26T11:01:34Z</time>
      </trkpt>
      <trkpt lat="45.57599" lon="2.95867">
        <ele>812</ele>
        <time>2021-08-26T11:01:36Z</time>
      </trkpt>
      <trkpt lat="45.57597" lon="2.95886">
        <ele>811.7</ele>
        <time>2021-08-26T11:01:38Z</time>
      </trkpt>
      <trkpt lat="45.57595" lon="2.95904">
        <ele>811.4</ele>
        <time>2021-08-26T11:01:40Z</time>
      </trkpt>
      <trkpt lat="45.57594" lon="2.95921">
        <ele>810.8</ele>
        <time>2021-08-26T11:01:42Z</time>
      </trkpt>
      <trkpt lat="45.57593" lon="2.95938">
        <ele>809.1</ele>
        <time>2021-08-26T11:01:44Z</time>
      </trkpt>
      <trkpt lat="45.57594" lon="2.95952">
        <ele>807.9</ele>
        <time>2021-08-26T11:01:46Z</time>
      </trkpt>
      <trkpt lat="45.57595" lon="2.95957">
        <ele>807.4</ele>
        <time>2021-08-26T11:01:48Z</time>
      </trkpt>
      <trkpt lat="45.57595" lon="2.95964">
        <ele>806.8</ele>
        <time>2021-08-26T11:01:50Z</time>
      </trkpt>
      <trkpt lat="45.57595" lon="2.95969">
        <ele>806.3</ele>
        <time>2021-08-26T11:01:52Z</time>
      </trkpt>
      <trkpt lat="45.57596" lon="2.95968">
        <ele>806.4</ele>
        <time>2021-08-26T11:01:54Z</time>
      </trkpt>
      <trkpt lat="45.57596" lon="2.95968">
        <ele>806.4</ele>
        <time>2021-08-26T11:01:56Z</time>
      </trkpt>
      <trkpt lat="45.57596" lon="2.95968">
        <ele>806.4</ele>
        <time>2021-08-26T11:01:58Z</time>
      </trkpt>
      <trkpt lat="45.57596" lon="2.95969">
        <ele>806.4</ele>
        <time>2021-08-26T11:02:00Z</time>
      </trkpt>
      <trkpt lat="45.57596" lon="2.95969">
        <ele>806.4</ele>
        <time>2021-08-26T11:02:02Z</time>
      </trkpt>
      <trkpt lat="45.57597" lon="2.95969">
        <ele>806.4</ele>
        <time>2021-08-26T11:02:04Z</time>
      </trkpt>
      <trkpt lat="45.57597" lon="2.95969">
        <ele>806.4</ele>
        <time>2021-08-26T11:02:06Z</time>
      </trkpt>
      <trkpt lat="45.57598" lon="2.95969">
        <ele>806.5</ele>
        <time>2021-08-26T11:02:08Z</time>
      </trkpt>
      <trkpt lat="45.57597" lon="2.95969">
        <ele>806.5</ele>
        <time>2021-08-26T11:02:10Z</time>
      </trkpt>
      <trkpt lat="45.57599" lon="2.95973">
        <ele>806.3</ele>
        <time>2021-08-26T11:02:12Z</time>
      </trkpt>
      <trkpt lat="45.57598" lon="2.95977">
        <ele>805.8</ele>
        <time>2021-08-26T11:02:14Z</time>
      </trkpt>
      <trkpt lat="45.57598" lon="2.95981">
        <ele>805.4</ele>
        <time>2021-08-26T11:02:16Z</time>
      </trkpt>
      <trkpt lat="45.57597" lon="2.95984">
        <ele>805.1</ele>
        <time>2021-08-26T11:02:18Z</time>
      </trkpt>
      <trkpt lat="45.57596" lon="2.95988">
        <ele>804.7</ele>
        <time>2021-08-26T11:02:20Z</time>
      </trkpt>
      <trkpt lat="45.57595" lon="2.9599">
        <ele>804.3</ele>
        <time>2021-08-26T11:02:22Z</time>
      </trkpt>
      <trkpt lat="45.57595" lon="2.9599">
        <ele>804.3</ele>
        <time>2021-08-26T11:02:24Z</time>
      </trkpt>
      <trkpt lat="45.57595" lon="2.9599">
        <ele>804.4</ele>
        <time>2021-08-26T11:02:26Z</time>
      </trkpt>
      <trkpt lat="45.57595" lon="2.9599">
        <ele>804.3</ele>
        <time>2021-08-26T11:02:28Z</time>
      </trkpt>
      <trkpt lat="45.57595" lon="2.9599">
        <ele>804.4</ele>
        <time>2021-08-26T11:02:30Z</time>
      </trkpt>
      <trkpt lat="45.5761" lon="2.96015">
        <ele>804.3</ele>
        <time>2021-08-26T11:02:40Z</time>
      </trkpt>
      <trkpt lat="45.57616" lon="2.96022">
        <ele>804.5</ele>
        <time>2021-08-26T11:02:42Z</time>
      </trkpt>
      <trkpt lat="45.57623" lon="2.96029">
        <ele>804.7</ele>
        <time>2021-08-26T11:02:44Z</time>
      </trkpt>
      <trkpt lat="45.5763" lon="2.96037">
        <ele>804.8</ele>
        <time>2021-08-26T11:02:46Z</time>
      </trkpt>
      <trkpt lat="45.57637" lon="2.96045">
        <ele>804.7</ele>
        <time>2021-08-26T11:02:48Z</time>
      </trkpt>
      <trkpt lat="45.57644" lon="2.96052">
        <ele>804.6</ele>
        <time>2021-08-26T11:02:50Z</time>
      </trkpt>
      <trkpt lat="45.57651" lon="2.9606">
        <ele>804.4</ele>
        <time>2021-08-26T11:02:52Z</time>
      </trkpt>
      <trkpt lat="45.57658" lon="2.96069">
        <ele>804</ele>
        <time>2021-08-26T11:02:54Z</time>
      </trkpt>
      <trkpt lat="45.57665" lon="2.96079">
        <ele>803.4</ele>
        <time>2021-08-26T11:02:56Z</time>
      </trkpt>
      <trkpt lat="45.57672" lon="2.96088">
        <ele>803.6</ele>
        <time>2021-08-26T11:02:58Z</time>
      </trkpt>
      <trkpt lat="45.5768" lon="2.96097">
        <ele>804.1</ele>
        <time>2021-08-26T11:03:00Z</time>
      </trkpt>
      <trkpt lat="45.57688" lon="2.96107">
        <ele>804.7</ele>
        <time>2021-08-26T11:03:02Z</time>
      </trkpt>
      <trkpt lat="45.57696" lon="2.96117">
        <ele>805.1</ele>
        <time>2021-08-26T11:03:04Z</time>
      </trkpt>
      <trkpt lat="45.57706" lon="2.96127">
        <ele>805.5</ele>
        <time>2021-08-26T11:03:06Z</time>
      </trkpt>
      <trkpt lat="45.57715" lon="2.96137">
        <ele>805.9</ele>
        <time>2021-08-26T11:03:08Z</time>
      </trkpt>
      <trkpt lat="45.57724" lon="2.96149">
        <ele>805.9</ele>
        <time>2021-08-26T11:03:10Z</time>
      </trkpt>
      <trkpt lat="45.57731" lon="2.96164">
        <ele>805.4</ele>
        <time>2021-08-26T11:03:12Z</time>
      </trkpt>
      <trkpt lat="45.57737" lon="2.96181">
        <ele>804.8</ele>
        <time>2021-08-26T11:03:14Z</time>
      </trkpt>
      <trkpt lat="45.57743" lon="2.96197">
        <ele>803.8</ele>
        <time>2021-08-26T11:03:16Z</time>
      </trkpt>
      <trkpt lat="45.57749" lon="2.96214">
        <ele>802.4</ele>
        <time>2021-08-26T11:03:18Z</time>
      </trkpt>
      <trkpt lat="45.57754" lon="2.96231">
        <ele>801.3</ele>
        <time>2021-08-26T11:03:20Z</time>
      </trkpt>
      <trkpt lat="45.57759" lon="2.96249">
        <ele>800.1</ele>
        <time>2021-08-26T11:03:22Z</time>
      </trkpt>
      <trkpt lat="45.57761" lon="2.96266">
        <ele>799.7</ele>
        <time>2021-08-26T11:03:24Z</time>
      </trkpt>
      <trkpt lat="45.57765" lon="2.96283">
        <ele>799.6</ele>
        <time>2021-08-26T11:03:26Z</time>
      </trkpt>
      <trkpt lat="45.5777" lon="2.96298">
        <ele>799.5</ele>
        <time>2021-08-26T11:03:28Z</time>
      </trkpt>
      <trkpt lat="45.57775" lon="2.96309">
        <ele>799.4</ele>
        <time>2021-08-26T11:03:30Z</time>
      </trkpt>
      <trkpt lat="45.57779" lon="2.96316">
        <ele>799.5</ele>
        <time>2021-08-26T11:03:32Z</time>
      </trkpt>
      <trkpt lat="45.57784" lon="2.96321">
        <ele>799.6</ele>
        <time>2021-08-26T11:03:34Z</time>
      </trkpt>
      <trkpt lat="45.5779" lon="2.96322">
        <ele>799.9</ele>
        <time>2021-08-26T11:03:36Z</time>
      </trkpt>
      <trkpt lat="45.57798" lon="2.96326">
        <ele>800.2</ele>
        <time>2021-08-26T11:03:38Z</time>
      </trkpt>
      <trkpt lat="45.57805" lon="2.96332">
        <ele>800.4</ele>
        <time>2021-08-26T11:03:40Z</time>
      </trkpt>
      <trkpt lat="45.57814" lon="2.96339">
        <ele>800.5</ele>
        <time>2021-08-26T11:03:42Z</time>
      </trkpt>
      <trkpt lat="45.57822" lon="2.96349">
        <ele>800.2</ele>
        <time>2021-08-26T11:03:44Z</time>
      </trkpt>
      <trkpt lat="45.57829" lon="2.96362">
        <ele>799.5</ele>
        <time>2021-08-26T11:03:46Z</time>
      </trkpt>
      <trkpt lat="45.57836" lon="2.96377">
        <ele>798.6</ele>
        <time>2021-08-26T11:03:48Z</time>
      </trkpt>
      <trkpt lat="45.57841" lon="2.96396">
        <ele>797.5</ele>
        <time>2021-08-26T11:03:50Z</time>
      </trkpt>
      <trkpt lat="45.57841" lon="2.96419">
        <ele>795.5</ele>
        <time>2021-08-26T11:03:52Z</time>
      </trkpt>
      <trkpt lat="45.5784" lon="2.96443">
        <ele>793.9</ele>
        <time>2021-08-26T11:03:54Z</time>
      </trkpt>
      <trkpt lat="45.57839" lon="2.96466">
        <ele>792.3</ele>
        <time>2021-08-26T11:03:56Z</time>
      </trkpt>
      <trkpt lat="45.57841" lon="2.9649">
        <ele>790.9</ele>
        <time>2021-08-26T11:03:58Z</time>
      </trkpt>
      <trkpt lat="45.57842" lon="2.96512">
        <ele>789.8</ele>
        <time>2021-08-26T11:04:00Z</time>
      </trkpt>
      <trkpt lat="45.57844" lon="2.96533">
        <ele>789.1</ele>
        <time>2021-08-26T11:04:02Z</time>
      </trkpt>
      <trkpt lat="45.57845" lon="2.96554">
        <ele>788.2</ele>
        <time>2021-08-26T11:04:04Z</time>
      </trkpt>
      <trkpt lat="45.57844" lon="2.96575">
        <ele>787.3</ele>
        <time>2021-08-26T11:04:06Z</time>
      </trkpt>
      <trkpt lat="45.57844" lon="2.96595">
        <ele>786.3</ele>
        <time>2021-08-26T11:04:08Z</time>
      </trkpt>
      <trkpt lat="45.57847" lon="2.96617">
        <ele>785</ele>
        <time>2021-08-26T11:04:10Z</time>
      </trkpt>
      <trkpt lat="45.57848" lon="2.96639">
        <ele>783.7</ele>
        <time>2021-08-26T11:04:12Z</time>
      </trkpt>
      <trkpt lat="45.57849" lon="2.96659">
        <ele>782.5</ele>
        <time>2021-08-26T11:04:14Z</time>
      </trkpt>
      <trkpt lat="45.57855" lon="2.96675">
        <ele>781.8</ele>
        <time>2021-08-26T11:04:16Z</time>
      </trkpt>
      <trkpt lat="45.57865" lon="2.96688">
        <ele>781.6</ele>
        <time>2021-08-26T11:04:18Z</time>
      </trkpt>
      <trkpt lat="45.57874" lon="2.967">
        <ele>781.4</ele>
        <time>2021-08-26T11:04:20Z</time>
      </trkpt>
      <trkpt lat="45.5788" lon="2.96719">
        <ele>781.1</ele>
        <time>2021-08-26T11:04:22Z</time>
      </trkpt>
      <trkpt lat="45.57883" lon="2.96741">
        <ele>780.7</ele>
        <time>2021-08-26T11:04:24Z</time>
      </trkpt>
      <trkpt lat="45.57882" lon="2.96764">
        <ele>780.7</ele>
        <time>2021-08-26T11:04:26Z</time>
      </trkpt>
      <trkpt lat="45.57885" lon="2.96786">
        <ele>780.8</ele>
        <time>2021-08-26T11:04:28Z</time>
      </trkpt>
      <trkpt lat="45.57891" lon="2.96804">
        <ele>780.9</ele>
        <time>2021-08-26T11:04:30Z</time>
      </trkpt>
      <trkpt lat="45.579" lon="2.96818">
        <ele>781</ele>
        <time>2021-08-26T11:04:32Z</time>
      </trkpt>
      <trkpt lat="45.57912" lon="2.96827">
        <ele>781</ele>
        <time>2021-08-26T11:04:34Z</time>
      </trkpt>
      <trkpt lat="45.57923" lon="2.96834">
        <ele>780.9</ele>
        <time>2021-08-26T11:04:36Z</time>
      </trkpt>
      <trkpt lat="45.57934" lon="2.96839">
        <ele>780.8</ele>
        <time>2021-08-26T11:04:38Z</time>
      </trkpt>
      <trkpt lat="45.57944" lon="2.96843">
        <ele>780.7</ele>
        <time>2021-08-26T11:04:40Z</time>
      </trkpt>
      <trkpt lat="45.57954" lon="2.96848">
        <ele>780.6</ele>
        <time>2021-08-26T11:04:42Z</time>
      </trkpt>
      <trkpt lat="45.57965" lon="2.96854">
        <ele>780.6</ele>
        <time>2021-08-26T11:04:44Z</time>
      </trkpt>
      <trkpt lat="45.57974" lon="2.9686">
        <ele>780.5</ele>
        <time>2021-08-26T11:04:46Z</time>
      </trkpt>
      <trkpt lat="45.57984" lon="2.96868">
        <ele>780.5</ele>
        <time>2021-08-26T11:04:48Z</time>
      </trkpt>
      <trkpt lat="45.57993" lon="2.96877">
        <ele>780.6</ele>
        <time>2021-08-26T11:04:50Z</time>
      </trkpt>
      <trkpt lat="45.58001" lon="2.96885">
        <ele>780.7</ele>
        <time>2021-08-26T11:04:52Z</time>
      </trkpt>
      <trkpt lat="45.58009" lon="2.96894">
        <ele>781.5</ele>
        <time>2021-08-26T11:04:54Z</time>
      </trkpt>
      <trkpt lat="45.58018" lon="2.96903">
        <ele>782.3</ele>
        <time>2021-08-26T11:04:56Z</time>
      </trkpt>
      <trkpt lat="45.58026" lon="2.96912">
        <ele>783.1</ele>
        <time>2021-08-26T11:04:58Z</time>
      </trkpt>
      <trkpt lat="45.58033" lon="2.96923">
        <ele>783.7</ele>
        <time>2021-08-26T11:05:00Z</time>
      </trkpt>
      <trkpt lat="45.58039" lon="2.96934">
        <ele>784.1</ele>
        <time>2021-08-26T11:05:02Z</time>
      </trkpt>
      <trkpt lat="45.58045" lon="2.96946">
        <ele>784.4</ele>
        <time>2021-08-26T11:05:04Z</time>
      </trkpt>
      <trkpt lat="45.5805" lon="2.96958">
        <ele>784.6</ele>
        <time>2021-08-26T11:05:06Z</time>
      </trkpt>
      <trkpt lat="45.58055" lon="2.9697">
        <ele>784.8</ele>
        <time>2021-08-26T11:05:08Z</time>
      </trkpt>
      <trkpt lat="45.5806" lon="2.96981">
        <ele>785</ele>
        <time>2021-08-26T11:05:10Z</time>
      </trkpt>
      <trkpt lat="45.58065" lon="2.96992">
        <ele>785.1</ele>
        <time>2021-08-26T11:05:12Z</time>
      </trkpt>
      <trkpt lat="45.5807" lon="2.97003">
        <ele>785.2</ele>
        <time>2021-08-26T11:05:14Z</time>
      </trkpt>
      <trkpt lat="45.58074" lon="2.97013">
        <ele>785.7</ele>
        <time>2021-08-26T11:05:16Z</time>
      </trkpt>
      <trkpt lat="45.58079" lon="2.97024">
        <ele>786.1</ele>
        <time>2021-08-26T11:05:18Z</time>
      </trkpt>
      <trkpt lat="45.58083" lon="2.97034">
        <ele>786.4</ele>
        <time>2021-08-26T11:05:20Z</time>
      </trkpt>
      <trkpt lat="45.58088" lon="2.97044">
        <ele>786.8</ele>
        <time>2021-08-26T11:05:22Z</time>
      </trkpt>
      <trkpt lat="45.58093" lon="2.97055">
        <ele>787.1</ele>
        <time>2021-08-26T11:05:24Z</time>
      </trkpt>
      <trkpt lat="45.58097" lon="2.97065">
        <ele>787.4</ele>
        <time>2021-08-26T11:05:26Z</time>
      </trkpt>
      <trkpt lat="45.58102" lon="2.97076">
        <ele>787.6</ele>
        <time>2021-08-26T11:05:28Z</time>
      </trkpt>
      <trkpt lat="45.58106" lon="2.97086">
        <ele>787.8</ele>
        <time>2021-08-26T11:05:30Z</time>
      </trkpt>
      <trkpt lat="45.5811" lon="2.97096">
        <ele>788</ele>
        <time>2021-08-26T11:05:32Z</time>
      </trkpt>
      <trkpt lat="45.58114" lon="2.97106">
        <ele>788.2</ele>
        <time>2021-08-26T11:05:34Z</time>
      </trkpt>
      <trkpt lat="45.58118" lon="2.97116">
        <ele>788.3</ele>
        <time>2021-08-26T11:05:36Z</time>
      </trkpt>
      <trkpt lat="45.58121" lon="2.97126">
        <ele>788.4</ele>
        <time>2021-08-26T11:05:38Z</time>
      </trkpt>
      <trkpt lat="45.58122" lon="2.97137">
        <ele>788.4</ele>
        <time>2021-08-26T11:05:40Z</time>
      </trkpt>
      <trkpt lat="45.58122" lon="2.97148">
        <ele>788.4</ele>
        <time>2021-08-26T11:05:42Z</time>
      </trkpt>
      <trkpt lat="45.5812" lon="2.97159">
        <ele>788.4</ele>
        <time>2021-08-26T11:05:44Z</time>
      </trkpt>
      <trkpt lat="45.58117" lon="2.9717">
        <ele>788.4</ele>
        <time>2021-08-26T11:05:46Z</time>
      </trkpt>
      <trkpt lat="45.58113" lon="2.97182">
        <ele>788.2</ele>
        <time>2021-08-26T11:05:48Z</time>
      </trkpt>
      <trkpt lat="45.58109" lon="2.97194">
        <ele>788.1</ele>
        <time>2021-08-26T11:05:50Z</time>
      </trkpt>
      <trkpt lat="45.58105" lon="2.97207">
        <ele>788</ele>
        <time>2021-08-26T11:05:52Z</time>
      </trkpt>
      <trkpt lat="45.58101" lon="2.97222">
        <ele>787.9</ele>
        <time>2021-08-26T11:05:54Z</time>
      </trkpt>
      <trkpt lat="45.58096" lon="2.97237">
        <ele>787.9</ele>
        <time>2021-08-26T11:05:56Z</time>
      </trkpt>
      <trkpt lat="45.58092" lon="2.97254">
        <ele>787.8</ele>
        <time>2021-08-26T11:05:58Z</time>
      </trkpt>
      <trkpt lat="45.58087" lon="2.97271">
        <ele>787.2</ele>
        <time>2021-08-26T11:06:00Z</time>
      </trkpt>
      <trkpt lat="45.58082" lon="2.97288">
        <ele>786.7</ele>
        <time>2021-08-26T11:06:02Z</time>
      </trkpt>
      <trkpt lat="45.58078" lon="2.97306">
        <ele>786.4</ele>
        <time>2021-08-26T11:06:04Z</time>
      </trkpt>
      <trkpt lat="45.58073" lon="2.97324">
        <ele>786.1</ele>
        <time>2021-08-26T11:06:06Z</time>
      </trkpt>
      <trkpt lat="45.58068" lon="2.97341">
        <ele>785.9</ele>
        <time>2021-08-26T11:06:08Z</time>
      </trkpt>
      <trkpt lat="45.58064" lon="2.97359">
        <ele>785.6</ele>
        <time>2021-08-26T11:06:10Z</time>
      </trkpt>
      <trkpt lat="45.58059" lon="2.97377">
        <ele>785.2</ele>
        <time>2021-08-26T11:06:12Z</time>
      </trkpt>
      <trkpt lat="45.58053" lon="2.97394">
        <ele>784.6</ele>
        <time>2021-08-26T11:06:14Z</time>
      </trkpt>
      <trkpt lat="45.58046" lon="2.97411">
        <ele>783.9</ele>
        <time>2021-08-26T11:06:16Z</time>
      </trkpt>
      <trkpt lat="45.58037" lon="2.97426">
        <ele>783.9</ele>
        <time>2021-08-26T11:06:18Z</time>
      </trkpt>
      <trkpt lat="45.58028" lon="2.97441">
        <ele>784.2</ele>
        <time>2021-08-26T11:06:20Z</time>
      </trkpt>
      <trkpt lat="45.5802" lon="2.97456">
        <ele>784.2</ele>
        <time>2021-08-26T11:06:22Z</time>
      </trkpt>
      <trkpt lat="45.58011" lon="2.97471">
        <ele>783.9</ele>
        <time>2021-08-26T11:06:24Z</time>
      </trkpt>
      <trkpt lat="45.58002" lon="2.97486">
        <ele>783.2</ele>
        <time>2021-08-26T11:06:26Z</time>
      </trkpt>
      <trkpt lat="45.57994" lon="2.97501">
        <ele>783.3</ele>
        <time>2021-08-26T11:06:28Z</time>
      </trkpt>
      <trkpt lat="45.57986" lon="2.97515">
        <ele>784.4</ele>
        <time>2021-08-26T11:06:30Z</time>
      </trkpt>
      <trkpt lat="45.57977" lon="2.97529">
        <ele>784.9</ele>
        <time>2021-08-26T11:06:32Z</time>
      </trkpt>
      <trkpt lat="45.57969" lon="2.97544">
        <ele>785.1</ele>
        <time>2021-08-26T11:06:34Z</time>
      </trkpt>
      <trkpt lat="45.57961" lon="2.97558">
        <ele>784.8</ele>
        <time>2021-08-26T11:06:36Z</time>
      </trkpt>
      <trkpt lat="45.57953" lon="2.97574">
        <ele>784.1</ele>
        <time>2021-08-26T11:06:38Z</time>
      </trkpt>
      <trkpt lat="45.57946" lon="2.97591">
        <ele>783.3</ele>
        <time>2021-08-26T11:06:40Z</time>
      </trkpt>
      <trkpt lat="45.57939" lon="2.97608">
        <ele>782.8</ele>
        <time>2021-08-26T11:06:42Z</time>
      </trkpt>
      <trkpt lat="45.57932" lon="2.97625">
        <ele>781.9</ele>
        <time>2021-08-26T11:06:44Z</time>
      </trkpt>
      <trkpt lat="45.57925" lon="2.97643">
        <ele>780.7</ele>
        <time>2021-08-26T11:06:46Z</time>
      </trkpt>
      <trkpt lat="45.57917" lon="2.97661">
        <ele>779.2</ele>
        <time>2021-08-26T11:06:48Z</time>
      </trkpt>
      <trkpt lat="45.57911" lon="2.97681">
        <ele>779.9</ele>
        <time>2021-08-26T11:06:50Z</time>
      </trkpt>
      <trkpt lat="45.57906" lon="2.97701">
        <ele>780.4</ele>
        <time>2021-08-26T11:06:52Z</time>
      </trkpt>
      <trkpt lat="45.57905" lon="2.97724">
        <ele>780.5</ele>
        <time>2021-08-26T11:06:54Z</time>
      </trkpt>
      <trkpt lat="45.57906" lon="2.97747">
        <ele>780.1</ele>
        <time>2021-08-26T11:06:56Z</time>
      </trkpt>
      <trkpt lat="45.57913" lon="2.9777">
        <ele>778.3</ele>
        <time>2021-08-26T11:06:58Z</time>
      </trkpt>
      <trkpt lat="45.57922" lon="2.97794">
        <ele>777</ele>
        <time>2021-08-26T11:07:00Z</time>
      </trkpt>
      <trkpt lat="45.57932" lon="2.97818">
        <ele>776.5</ele>
        <time>2021-08-26T11:07:02Z</time>
      </trkpt>
      <trkpt lat="45.57943" lon="2.97843">
        <ele>776.2</ele>
        <time>2021-08-26T11:07:04Z</time>
      </trkpt>
      <trkpt lat="45.57954" lon="2.97867">
        <ele>776.3</ele>
        <time>2021-08-26T11:07:06Z</time>
      </trkpt>
      <trkpt lat="45.57965" lon="2.97892">
        <ele>775</ele>
        <time>2021-08-26T11:07:08Z</time>
      </trkpt>
      <trkpt lat="45.57978" lon="2.97915">
        <ele>772.5</ele>
        <time>2021-08-26T11:07:10Z</time>
      </trkpt>
      <trkpt lat="45.57993" lon="2.97938">
        <ele>770.9</ele>
        <time>2021-08-26T11:07:12Z</time>
      </trkpt>
      <trkpt lat="45.58007" lon="2.97961">
        <ele>771</ele>
        <time>2021-08-26T11:07:14Z</time>
      </trkpt>
      <trkpt lat="45.58021" lon="2.97985">
        <ele>773.1</ele>
        <time>2021-08-26T11:07:16Z</time>
      </trkpt>
      <trkpt lat="45.58033" lon="2.98011">
        <ele>774</ele>
        <time>2021-08-26T11:07:18Z</time>
      </trkpt>
      <trkpt lat="45.58041" lon="2.98039">
        <ele>773.5</ele>
        <time>2021-08-26T11:07:20Z</time>
      </trkpt>
      <trkpt lat="45.58044" lon="2.9807">
        <ele>771.9</ele>
        <time>2021-08-26T11:07:22Z</time>
      </trkpt>
      <trkpt lat="45.58045" lon="2.98103">
        <ele>770</ele>
        <time>2021-08-26T11:07:24Z</time>
      </trkpt>
      <trkpt lat="45.58043" lon="2.98135">
        <ele>768.3</ele>
        <time>2021-08-26T11:07:26Z</time>
      </trkpt>
      <trkpt lat="45.58036" lon="2.98165">
        <ele>766.5</ele>
        <time>2021-08-26T11:07:28Z</time>
      </trkpt>
      <trkpt lat="45.58028" lon="2.98193">
        <ele>765.1</ele>
        <time>2021-08-26T11:07:30Z</time>
      </trkpt>
      <trkpt lat="45.58024" lon="2.98223">
        <ele>763.6</ele>
        <time>2021-08-26T11:07:32Z</time>
      </trkpt>
      <trkpt lat="45.58026" lon="2.98254">
        <ele>762.1</ele>
        <time>2021-08-26T11:07:34Z</time>
      </trkpt>
      <trkpt lat="45.58024" lon="2.98282">
        <ele>760.1</ele>
        <time>2021-08-26T11:07:36Z</time>
      </trkpt>
      <trkpt lat="45.58019" lon="2.98311">
        <ele>757.8</ele>
        <time>2021-08-26T11:07:38Z</time>
      </trkpt>
      <trkpt lat="45.58011" lon="2.98339">
        <ele>754.6</ele>
        <time>2021-08-26T11:07:40Z</time>
      </trkpt>
      <trkpt lat="45.57997" lon="2.98366">
        <ele>751.8</ele>
        <time>2021-08-26T11:07:42Z</time>
      </trkpt>
      <trkpt lat="45.57987" lon="2.98395">
        <ele>752.4</ele>
        <time>2021-08-26T11:07:44Z</time>
      </trkpt>
      <trkpt lat="45.57979" lon="2.98425">
        <ele>751.8</ele>
        <time>2021-08-26T11:07:46Z</time>
      </trkpt>
      <trkpt lat="45.57971" lon="2.98458">
        <ele>750.4</ele>
        <time>2021-08-26T11:07:48Z</time>
      </trkpt>
      <trkpt lat="45.57968" lon="2.9849">
        <ele>747.6</ele>
        <time>2021-08-26T11:07:50Z</time>
      </trkpt>
      <trkpt lat="45.57968" lon="2.98522">
        <ele>744.1</ele>
        <time>2021-08-26T11:07:52Z</time>
      </trkpt>
      <trkpt lat="45.57968" lon="2.9855">
        <ele>741.3</ele>
        <time>2021-08-26T11:07:54Z</time>
      </trkpt>
      <trkpt lat="45.57971" lon="2.9858">
        <ele>737.7</ele>
        <time>2021-08-26T11:07:56Z</time>
      </trkpt>
      <trkpt lat="45.5798" lon="2.98606">
        <ele>734.6</ele>
        <time>2021-08-26T11:07:58Z</time>
      </trkpt>
      <trkpt lat="45.57993" lon="2.98631">
        <ele>731.4</ele>
        <time>2021-08-26T11:08:00Z</time>
      </trkpt>
      <trkpt lat="45.5801" lon="2.98655">
        <ele>730</ele>
        <time>2021-08-26T11:08:02Z</time>
      </trkpt>
      <trkpt lat="45.58025" lon="2.9868">
        <ele>729.4</ele>
        <time>2021-08-26T11:08:04Z</time>
      </trkpt>
      <trkpt lat="45.58037" lon="2.98705">
        <ele>728.1</ele>
        <time>2021-08-26T11:08:06Z</time>
      </trkpt>
      <trkpt lat="45.58045" lon="2.98735">
        <ele>726</ele>
        <time>2021-08-26T11:08:08Z</time>
      </trkpt>
      <trkpt lat="45.58055" lon="2.98762">
        <ele>723.2</ele>
        <time>2021-08-26T11:08:10Z</time>
      </trkpt>
      <trkpt lat="45.58066" lon="2.98784">
        <ele>720.3</ele>
        <time>2021-08-26T11:08:12Z</time>
      </trkpt>
      <trkpt lat="45.58073" lon="2.98807">
        <ele>717.8</ele>
        <time>2021-08-26T11:08:14Z</time>
      </trkpt>
      <trkpt lat="45.58073" lon="2.9883">
        <ele>717</ele>
        <time>2021-08-26T11:08:16Z</time>
      </trkpt>
      <trkpt lat="45.58066" lon="2.98854">
        <ele>718.2</ele>
        <time>2021-08-26T11:08:18Z</time>
      </trkpt>
      <trkpt lat="45.58056" lon="2.98876">
        <ele>720.4</ele>
        <time>2021-08-26T11:08:20Z</time>
      </trkpt>
      <trkpt lat="45.58053" lon="2.98902">
        <ele>720.5</ele>
        <time>2021-08-26T11:08:22Z</time>
      </trkpt>
      <trkpt lat="45.58059" lon="2.98926">
        <ele>718</ele>
        <time>2021-08-26T11:08:24Z</time>
      </trkpt>
      <trkpt lat="45.58071" lon="2.98949">
        <ele>714.9</ele>
        <time>2021-08-26T11:08:26Z</time>
      </trkpt>
      <trkpt lat="45.58083" lon="2.98972">
        <ele>711.4</ele>
        <time>2021-08-26T11:08:28Z</time>
      </trkpt>
      <trkpt lat="45.58094" lon="2.98997">
        <ele>709.9</ele>
        <time>2021-08-26T11:08:30Z</time>
      </trkpt>
      <trkpt lat="45.58104" lon="2.99018">
        <ele>707.7</ele>
        <time>2021-08-26T11:08:32Z</time>
      </trkpt>
      <trkpt lat="45.58114" lon="2.99038">
        <ele>705.5</ele>
        <time>2021-08-26T11:08:34Z</time>
      </trkpt>
      <trkpt lat="45.58123" lon="2.99061">
        <ele>703</ele>
        <time>2021-08-26T11:08:36Z</time>
      </trkpt>
      <trkpt lat="45.58125" lon="2.99084">
        <ele>701.9</ele>
        <time>2021-08-26T11:08:38Z</time>
      </trkpt>
      <trkpt lat="45.58127" lon="2.99106">
        <ele>699.4</ele>
        <time>2021-08-26T11:08:40Z</time>
      </trkpt>
      <trkpt lat="45.58129" lon="2.99124">
        <ele>697.4</ele>
        <time>2021-08-26T11:08:42Z</time>
      </trkpt>
      <trkpt lat="45.5813" lon="2.99135">
        <ele>696</ele>
        <time>2021-08-26T11:08:44Z</time>
      </trkpt>
      <trkpt lat="45.58131" lon="2.99147">
        <ele>694.8</ele>
        <time>2021-08-26T11:08:46Z</time>
      </trkpt>
      <trkpt lat="45.58129" lon="2.99161">
        <ele>693.9</ele>
        <time>2021-08-26T11:08:48Z</time>
      </trkpt>
      <trkpt lat="45.58127" lon="2.99171">
        <ele>693.1</ele>
        <time>2021-08-26T11:08:50Z</time>
      </trkpt>
      <trkpt lat="45.58124" lon="2.99178">
        <ele>693</ele>
        <time>2021-08-26T11:08:52Z</time>
      </trkpt>
      <trkpt lat="45.58117" lon="2.99182">
        <ele>693.5</ele>
        <time>2021-08-26T11:08:54Z</time>
      </trkpt>
      <trkpt lat="45.58113" lon="2.99187">
        <ele>693.4</ele>
        <time>2021-08-26T11:08:56Z</time>
      </trkpt>
      <trkpt lat="45.58111" lon="2.9919">
        <ele>693.4</ele>
        <time>2021-08-26T11:08:58Z</time>
      </trkpt>
      <trkpt lat="45.58108" lon="2.99192">
        <ele>693.6</ele>
        <time>2021-08-26T11:09:00Z</time>
      </trkpt>
      <trkpt lat="45.58105" lon="2.99197">
        <ele>693.2</ele>
        <time>2021-08-26T11:09:02Z</time>
      </trkpt>
      <trkpt lat="45.58108" lon="2.99203">
        <ele>692.1</ele>
        <time>2021-08-26T11:09:04Z</time>
      </trkpt>
      <trkpt lat="45.58113" lon="2.99204">
        <ele>691.4</ele>
        <time>2021-08-26T11:09:06Z</time>
      </trkpt>
      <trkpt lat="45.58117" lon="2.99202">
        <ele>691.1</ele>
        <time>2021-08-26T11:09:08Z</time>
      </trkpt>
      <trkpt lat="45.58121" lon="2.99202">
        <ele>690.6</ele>
        <time>2021-08-26T11:09:10Z</time>
      </trkpt>
      <trkpt lat="45.58126" lon="2.99203">
        <ele>690</ele>
        <time>2021-08-26T11:09:12Z</time>
      </trkpt>
      <trkpt lat="45.58131" lon="2.99203">
        <ele>689.3</ele>
        <time>2021-08-26T11:09:14Z</time>
      </trkpt>
      <trkpt lat="45.58135" lon="2.99203">
        <ele>689</ele>
        <time>2021-08-26T11:09:16Z</time>
      </trkpt>
      <trkpt lat="45.58139" lon="2.99202">
        <ele>688.5</ele>
        <time>2021-08-26T11:09:18Z</time>
      </trkpt>
      <trkpt lat="45.58144" lon="2.99202">
        <ele>688</ele>
        <time>2021-08-26T11:09:20Z</time>
      </trkpt>
      <trkpt lat="45.5815" lon="2.99208">
        <ele>686.9</ele>
        <time>2021-08-26T11:09:22Z</time>
      </trkpt>
      <trkpt lat="45.58156" lon="2.99213">
        <ele>685.9</ele>
        <time>2021-08-26T11:09:24Z</time>
      </trkpt>
      <trkpt lat="45.58162" lon="2.99218">
        <ele>685</ele>
        <time>2021-08-26T11:09:26Z</time>
      </trkpt>
      <trkpt lat="45.58169" lon="2.99225">
        <ele>684.2</ele>
        <time>2021-08-26T11:09:28Z</time>
      </trkpt>
      <trkpt lat="45.58175" lon="2.99233">
        <ele>683.8</ele>
        <time>2021-08-26T11:09:30Z</time>
      </trkpt>
      <trkpt lat="45.58181" lon="2.99241">
        <ele>683.5</ele>
        <time>2021-08-26T11:09:32Z</time>
      </trkpt>
      <trkpt lat="45.58185" lon="2.99247">
        <ele>683.3</ele>
        <time>2021-08-26T11:09:34Z</time>
      </trkpt>
      <trkpt lat="45.5819" lon="2.99253">
        <ele>683.6</ele>
        <time>2021-08-26T11:09:36Z</time>
      </trkpt>
      <trkpt lat="45.58194" lon="2.99265">
        <ele>684.6</ele>
        <time>2021-08-26T11:09:38Z</time>
      </trkpt>
      <trkpt lat="45.58202" lon="2.99269">
        <ele>685.1</ele>
        <time>2021-08-26T11:09:40Z</time>
      </trkpt>
      <trkpt lat="45.58209" lon="2.99277">
        <ele>685.9</ele>
        <time>2021-08-26T11:09:42Z</time>
      </trkpt>
      <trkpt lat="45.58215" lon="2.99283">
        <ele>686.6</ele>
        <time>2021-08-26T11:09:44Z</time>
      </trkpt>
      <trkpt lat="45.58218" lon="2.99288">
        <ele>687.2</ele>
        <time>2021-08-26T11:09:46Z</time>
      </trkpt>
      <trkpt lat="45.58222" lon="2.99291">
        <ele>687.6</ele>
        <time>2021-08-26T11:09:48Z</time>
      </trkpt>
      <trkpt lat="45.58225" lon="2.99296">
        <ele>688.1</ele>
        <time>2021-08-26T11:09:50Z</time>
      </trkpt>
      <trkpt lat="45.58227" lon="2.99302">
        <ele>688.8</ele>
        <time>2021-08-26T11:09:52Z</time>
      </trkpt>
      <trkpt lat="45.58229" lon="2.99306">
        <ele>689.3</ele>
        <time>2021-08-26T11:09:54Z</time>
      </trkpt>
      <trkpt lat="45.58229" lon="2.99306">
        <ele>689.2</ele>
        <time>2021-08-26T11:09:56Z</time>
      </trkpt>
      <trkpt lat="45.58229" lon="2.99306">
        <ele>689.3</ele>
        <time>2021-08-26T11:09:58Z</time>
      </trkpt>
      <trkpt lat="45.58229" lon="2.99306">
        <ele>689.3</ele>
        <time>2021-08-26T11:10:00Z</time>
      </trkpt>
      <trkpt lat="45.58229" lon="2.99306">
        <ele>689.3</ele>
        <time>2021-08-26T11:10:02Z</time>
      </trkpt>
      <trkpt lat="45.58229" lon="2.99307">
        <ele>689.4</ele>
        <time>2021-08-26T11:10:04Z</time>
      </trkpt>
      <trkpt lat="45.58229" lon="2.99307">
        <ele>689.4</ele>
        <time>2021-08-26T11:10:06Z</time>
      </trkpt>
      <trkpt lat="45.58229" lon="2.99307">
        <ele>689.4</ele>
        <time>2021-08-26T11:10:08Z</time>
      </trkpt>
      <trkpt lat="45.58229" lon="2.99307">
        <ele>689.4</ele>
        <time>2021-08-26T11:10:10Z</time>
      </trkpt>
      <trkpt lat="45.58229" lon="2.99307">
        <ele>689.4</ele>
        <time>2021-08-26T11:10:12Z</time>
      </trkpt>
      <trkpt lat="45.58229" lon="2.99307">
        <ele>689.4</ele>
        <time>2021-08-26T11:10:14Z</time>
      </trkpt>
      <trkpt lat="45.58228" lon="2.99307">
        <ele>689.3</ele>
        <time>2021-08-26T11:10:16Z</time>
      </trkpt>
      <trkpt lat="45.58228" lon="2.99307">
        <ele>689.3</ele>
        <time>2021-08-26T11:10:18Z</time>
      </trkpt>
      <trkpt lat="45.58228" lon="2.99306">
        <ele>689.2</ele>
        <time>2021-08-26T11:10:20Z</time>
      </trkpt>
      <trkpt lat="45.58227" lon="2.99306">
        <ele>689.2</ele>
        <time>2021-08-26T11:10:22Z</time>
      </trkpt>
      <trkpt lat="45.58227" lon="2.99306">
        <ele>689.2</ele>
        <time>2021-08-26T11:10:24Z</time>
      </trkpt>
      <trkpt lat="45.58228" lon="2.99305">
        <ele>689.2</ele>
        <time>2021-08-26T11:10:26Z</time>
      </trkpt>
      <trkpt lat="45.58228" lon="2.99305">
        <ele>689.2</ele>
        <time>2021-08-26T11:10:28Z</time>
      </trkpt>
      <trkpt lat="45.58229" lon="2.99305">
        <ele>689.2</ele>
        <time>2021-08-26T11:10:30Z</time>
      </trkpt>
      <trkpt lat="45.58229" lon="2.99305">
        <ele>689.3</ele>
        <time>2021-08-26T11:10:32Z</time>
      </trkpt>
      <trkpt lat="45.5823" lon="2.99306">
        <ele>689.3</ele>
        <time>2021-08-26T11:10:34Z</time>
      </trkpt>
      <trkpt lat="45.5823" lon="2.99306">
        <ele>689.4</ele>
        <time>2021-08-26T11:10:36Z</time>
      </trkpt>
      <trkpt lat="45.58231" lon="2.99307">
        <ele>689.4</ele>
        <time>2021-08-26T11:10:38Z</time>
      </trkpt>
      <trkpt lat="45.58232" lon="2.99307">
        <ele>689.5</ele>
        <time>2021-08-26T11:10:40Z</time>
      </trkpt>
      <trkpt lat="45.58232" lon="2.99308">
        <ele>689.6</ele>
        <time>2021-08-26T11:10:42Z</time>
      </trkpt>
      <trkpt lat="45.58232" lon="2.99308">
        <ele>689.6</ele>
        <time>2021-08-26T11:10:44Z</time>
      </trkpt>
      <trkpt lat="45.58232" lon="2.99308">
        <ele>689.6</ele>
        <time>2021-08-26T11:10:46Z</time>
      </trkpt>
      <trkpt lat="45.58232" lon="2.99308">
        <ele>689.6</ele>
        <time>2021-08-26T11:10:48Z</time>
      </trkpt>
      <trkpt lat="45.58232" lon="2.99308">
        <ele>689.6</ele>
        <time>2021-08-26T11:10:50Z</time>
      </trkpt>
      <trkpt lat="45.58232" lon="2.99308">
        <ele>689.6</ele>
        <time>2021-08-26T11:10:52Z</time>
      </trkpt>
      <trkpt lat="45.58232" lon="2.99307">
        <ele>689.5</ele>
        <time>2021-08-26T11:10:56Z</time>
      </trkpt>
      <trkpt lat="45.58232" lon="2.99307">
        <ele>689.5</ele>
        <time>2021-08-26T11:10:58Z</time>
      </trkpt>
      <trkpt lat="45.58232" lon="2.99307">
        <ele>689.5</ele>
        <time>2021-08-26T11:11:00Z</time>
      </trkpt>
      <trkpt lat="45.58232" lon="2.99307">
        <ele>689.5</ele>
        <time>2021-08-26T11:11:02Z</time>
      </trkpt>
      <trkpt lat="45.58232" lon="2.99308">
        <ele>689.6</ele>
        <time>2021-08-26T11:11:04Z</time>
      </trkpt>
      <trkpt lat="45.58232" lon="2.99308">
        <ele>689.6</ele>
        <time>2021-08-26T11:11:06Z</time>
      </trkpt>
      <trkpt lat="45.58231" lon="2.99308">
        <ele>689.6</ele>
        <time>2021-08-26T11:11:08Z</time>
      </trkpt>
      <trkpt lat="45.58231" lon="2.99308">
        <ele>689.6</ele>
        <time>2021-08-26T11:11:10Z</time>
      </trkpt>
      <trkpt lat="45.58231" lon="2.99308">
        <ele>689.6</ele>
        <time>2021-08-26T11:11:12Z</time>
      </trkpt>
      <trkpt lat="45.58231" lon="2.99309">
        <ele>689.6</ele>
        <time>2021-08-26T11:11:14Z</time>
      </trkpt>
      <trkpt lat="45.58231" lon="2.99309">
        <ele>689.7</ele>
        <time>2021-08-26T11:11:16Z</time>
      </trkpt>
      <trkpt lat="45.58232" lon="2.99309">
        <ele>689.7</ele>
        <time>2021-08-26T11:11:18Z</time>
      </trkpt>
      <trkpt lat="45.58232" lon="2.99309">
        <ele>689.7</ele>
        <time>2021-08-26T11:11:20Z</time>
      </trkpt>
      <trkpt lat="45.58231" lon="2.99309">
        <ele>689.7</ele>
        <time>2021-08-26T11:11:22Z</time>
      </trkpt>
      <trkpt lat="45.58232" lon="2.99309">
        <ele>689.7</ele>
        <time>2021-08-26T11:11:24Z</time>
      </trkpt>
      <trkpt lat="45.58232" lon="2.99309">
        <ele>689.7</ele>
        <time>2021-08-26T11:11:26Z</time>
      </trkpt>
      <trkpt lat="45.58232" lon="2.9931">
        <ele>689.8</ele>
        <time>2021-08-26T11:11:28Z</time>
      </trkpt>
      <trkpt lat="45.58233" lon="2.9931">
        <ele>689.8</ele>
        <time>2021-08-26T11:11:30Z</time>
      </trkpt>
      <trkpt lat="45.58234" lon="2.99311">
        <ele>689.9</ele>
        <time>2021-08-26T11:11:32Z</time>
      </trkpt>
      <trkpt lat="45.58234" lon="2.99311">
        <ele>690</ele>
        <time>2021-08-26T11:11:34Z</time>
      </trkpt>
      <trkpt lat="45.58234" lon="2.99312">
        <ele>690</ele>
        <time>2021-08-26T11:11:38Z</time>
      </trkpt>
      <trkpt lat="45.58234" lon="2.99312">
        <ele>690.1</ele>
        <time>2021-08-26T11:11:40Z</time>
      </trkpt>
      <trkpt lat="45.58234" lon="2.99312">
        <ele>690.1</ele>
        <time>2021-08-26T11:11:42Z</time>
      </trkpt>
      <trkpt lat="45.58234" lon="2.99312">
        <ele>690.1</ele>
        <time>2021-08-26T11:11:44Z</time>
      </trkpt>
      <trkpt lat="45.58234" lon="2.99312">
        <ele>690</ele>
        <time>2021-08-26T11:11:46Z</time>
      </trkpt>
      <trkpt lat="45.58233" lon="2.99311">
        <ele>690</ele>
        <time>2021-08-26T11:11:48Z</time>
      </trkpt>
      <trkpt lat="45.58233" lon="2.99311">
        <ele>690</ele>
        <time>2021-08-26T11:11:50Z</time>
      </trkpt>
      <trkpt lat="45.58233" lon="2.99311">
        <ele>690</ele>
        <time>2021-08-26T11:11:52Z</time>
      </trkpt>
      <trkpt lat="45.58234" lon="2.99313">
        <ele>690.2</ele>
        <time>2021-08-26T11:11:54Z</time>
      </trkpt>
      <trkpt lat="45.58237" lon="2.99314">
        <ele>690.4</ele>
        <time>2021-08-26T11:11:56Z</time>
      </trkpt>
      <trkpt lat="45.58239" lon="2.99314">
        <ele>690.4</ele>
        <time>2021-08-26T11:11:58Z</time>
      </trkpt>
      <trkpt lat="45.58241" lon="2.99312">
        <ele>690.3</ele>
        <time>2021-08-26T11:12:00Z</time>
      </trkpt>
      <trkpt lat="45.58244" lon="2.99309">
        <ele>690.2</ele>
        <time>2021-08-26T11:12:02Z</time>
      </trkpt>
      <trkpt lat="45.58247" lon="2.99306">
        <ele>689.9</ele>
        <time>2021-08-26T11:12:04Z</time>
      </trkpt>
      <trkpt lat="45.58251" lon="2.99302">
        <ele>689.7</ele>
        <time>2021-08-26T11:12:06Z</time>
      </trkpt>
      <trkpt lat="45.58255" lon="2.99298">
        <ele>690</ele>
        <time>2021-08-26T11:12:08Z</time>
      </trkpt>
      <trkpt lat="45.58259" lon="2.99293">
        <ele>690.2</ele>
        <time>2021-08-26T11:12:10Z</time>
      </trkpt>
      <trkpt lat="45.58263" lon="2.99288">
        <ele>690.3</ele>
        <time>2021-08-26T11:12:12Z</time>
      </trkpt>
      <trkpt lat="45.58267" lon="2.99284">
        <ele>690.5</ele>
        <time>2021-08-26T11:12:14Z</time>
      </trkpt>
      <trkpt lat="45.5827" lon="2.99279">
        <ele>690.5</ele>
        <time>2021-08-26T11:12:16Z</time>
      </trkpt>
      <trkpt lat="45.58274" lon="2.99275">
        <ele>690.4</ele>
        <time>2021-08-26T11:12:18Z</time>
      </trkpt>
      <trkpt lat="45.58278" lon="2.99271">
        <ele>690.5</ele>
        <time>2021-08-26T11:12:20Z</time>
      </trkpt>
      <trkpt lat="45.58282" lon="2.99266">
        <ele>690.4</ele>
        <time>2021-08-26T11:12:22Z</time>
      </trkpt>
      <trkpt lat="45.58285" lon="2.99262">
        <ele>690.4</ele>
        <time>2021-08-26T11:12:24Z</time>
      </trkpt>
      <trkpt lat="45.58289" lon="2.99257">
        <ele>690.2</ele>
        <time>2021-08-26T11:12:26Z</time>
      </trkpt>
      <trkpt lat="45.58293" lon="2.99253">
        <ele>690.1</ele>
        <time>2021-08-26T11:12:28Z</time>
      </trkpt>
      <trkpt lat="45.58297" lon="2.99249">
        <ele>690.1</ele>
        <time>2021-08-26T11:12:30Z</time>
      </trkpt>
      <trkpt lat="45.58301" lon="2.99245">
        <ele>690.5</ele>
        <time>2021-08-26T11:12:32Z</time>
      </trkpt>
      <trkpt lat="45.58305" lon="2.9924">
        <ele>690.8</ele>
        <time>2021-08-26T11:12:34Z</time>
      </trkpt>
      <trkpt lat="45.58309" lon="2.99236">
        <ele>691.1</ele>
        <time>2021-08-26T11:12:36Z</time>
      </trkpt>
      <trkpt lat="45.58312" lon="2.99231">
        <ele>691.2</ele>
        <time>2021-08-26T11:12:38Z</time>
      </trkpt>
      <trkpt lat="45.58316" lon="2.99227">
        <ele>691.4</ele>
        <time>2021-08-26T11:12:40Z</time>
      </trkpt>
      <trkpt lat="45.5832" lon="2.99223">
        <ele>691.5</ele>
        <time>2021-08-26T11:12:42Z</time>
      </trkpt>
      <trkpt lat="45.58325" lon="2.99217">
        <ele>691.7</ele>
        <time>2021-08-26T11:12:44Z</time>
      </trkpt>
      <trkpt lat="45.58328" lon="2.99213">
        <ele>691.8</ele>
        <time>2021-08-26T11:12:46Z</time>
      </trkpt>
      <trkpt lat="45.58332" lon="2.9921">
        <ele>692</ele>
        <time>2021-08-26T11:12:48Z</time>
      </trkpt>
      <trkpt lat="45.58336" lon="2.99206">
        <ele>692</ele>
        <time>2021-08-26T11:12:50Z</time>
      </trkpt>
      <trkpt lat="45.5834" lon="2.99204">
        <ele>692.2</ele>
        <time>2021-08-26T11:12:52Z</time>
      </trkpt>
      <trkpt lat="45.58344" lon="2.99201">
        <ele>692.2</ele>
        <time>2021-08-26T11:12:54Z</time>
      </trkpt>
      <trkpt lat="45.58349" lon="2.99198">
        <ele>692.3</ele>
        <time>2021-08-26T11:12:56Z</time>
      </trkpt>
      <trkpt lat="45.58353" lon="2.99198">
        <ele>692.6</ele>
        <time>2021-08-26T11:12:58Z</time>
      </trkpt>
      <trkpt lat="45.58358" lon="2.99197">
        <ele>692.9</ele>
        <time>2021-08-26T11:13:00Z</time>
      </trkpt>
      <trkpt lat="45.58362" lon="2.99197">
        <ele>693.2</ele>
        <time>2021-08-26T11:13:02Z</time>
      </trkpt>
      <trkpt lat="45.58366" lon="2.99198">
        <ele>693.5</ele>
        <time>2021-08-26T11:13:04Z</time>
      </trkpt>
      <trkpt lat="45.58371" lon="2.99199">
        <ele>693.9</ele>
        <time>2021-08-26T11:13:06Z</time>
      </trkpt>
      <trkpt lat="45.58375" lon="2.99199">
        <ele>694.2</ele>
        <time>2021-08-26T11:13:08Z</time>
      </trkpt>
      <trkpt lat="45.58379" lon="2.992">
        <ele>694.6</ele>
        <time>2021-08-26T11:13:10Z</time>
      </trkpt>
      <trkpt lat="45.58383" lon="2.99201">
        <ele>695</ele>
        <time>2021-08-26T11:13:12Z</time>
      </trkpt>
      <trkpt lat="45.58387" lon="2.99203">
        <ele>695.4</ele>
        <time>2021-08-26T11:13:14Z</time>
      </trkpt>
      <trkpt lat="45.58391" lon="2.99205">
        <ele>695.8</ele>
        <time>2021-08-26T11:13:16Z</time>
      </trkpt>
      <trkpt lat="45.58395" lon="2.99207">
        <ele>696.3</ele>
        <time>2021-08-26T11:13:18Z</time>
      </trkpt>
      <trkpt lat="45.58399" lon="2.99209">
        <ele>696.8</ele>
        <time>2021-08-26T11:13:20Z</time>
      </trkpt>
      <trkpt lat="45.58403" lon="2.9921">
        <ele>697.2</ele>
        <time>2021-08-26T11:13:22Z</time>
      </trkpt>
      <trkpt lat="45.58407" lon="2.99212">
        <ele>697.7</ele>
        <time>2021-08-26T11:13:24Z</time>
      </trkpt>
      <trkpt lat="45.58412" lon="2.99214">
        <ele>698.2</ele>
        <time>2021-08-26T11:13:26Z</time>
      </trkpt>
      <trkpt lat="45.58416" lon="2.99216">
        <ele>698.7</ele>
        <time>2021-08-26T11:13:28Z</time>
      </trkpt>
      <trkpt lat="45.5842" lon="2.99218">
        <ele>699.3</ele>
        <time>2021-08-26T11:13:30Z</time>
      </trkpt>
      <trkpt lat="45.58425" lon="2.9922">
        <ele>699.9</ele>
        <time>2021-08-26T11:13:32Z</time>
      </trkpt>
      <trkpt lat="45.58429" lon="2.99222">
        <ele>700.5</ele>
        <time>2021-08-26T11:13:34Z</time>
      </trkpt>
      <trkpt lat="45.58432" lon="2.99226">
        <ele>701.1</ele>
        <time>2021-08-26T11:13:36Z</time>
      </trkpt>
      <trkpt lat="45.58437" lon="2.99229">
        <ele>701.8</ele>
        <time>2021-08-26T11:13:38Z</time>
      </trkpt>
      <trkpt lat="45.58441" lon="2.9923">
        <ele>702.3</ele>
        <time>2021-08-26T11:13:40Z</time>
      </trkpt>
      <trkpt lat="45.58446" lon="2.99231">
        <ele>702.8</ele>
        <time>2021-08-26T11:13:42Z</time>
      </trkpt>
      <trkpt lat="45.5845" lon="2.99231">
        <ele>703.2</ele>
        <time>2021-08-26T11:13:44Z</time>
      </trkpt>
      <trkpt lat="45.58455" lon="2.99231">
        <ele>703.6</ele>
        <time>2021-08-26T11:13:46Z</time>
      </trkpt>
      <trkpt lat="45.5846" lon="2.9923">
        <ele>703.9</ele>
        <time>2021-08-26T11:13:48Z</time>
      </trkpt>
      <trkpt lat="45.58464" lon="2.99229">
        <ele>704.2</ele>
        <time>2021-08-26T11:13:50Z</time>
      </trkpt>
      <trkpt lat="45.58468" lon="2.99228">
        <ele>704.5</ele>
        <time>2021-08-26T11:13:52Z</time>
      </trkpt>
      <trkpt lat="45.58472" lon="2.99225">
        <ele>704.7</ele>
        <time>2021-08-26T11:13:54Z</time>
      </trkpt>
      <trkpt lat="45.58477" lon="2.99222">
        <ele>704.8</ele>
        <time>2021-08-26T11:13:56Z</time>
      </trkpt>
      <trkpt lat="45.58481" lon="2.9922">
        <ele>705.1</ele>
        <time>2021-08-26T11:13:58Z</time>
      </trkpt>
      <trkpt lat="45.58485" lon="2.99217">
        <ele>705.3</ele>
        <time>2021-08-26T11:14:00Z</time>
      </trkpt>
      <trkpt lat="45.5849" lon="2.99215">
        <ele>705.5</ele>
        <time>2021-08-26T11:14:02Z</time>
      </trkpt>
      <trkpt lat="45.58494" lon="2.99213">
        <ele>705.8</ele>
        <time>2021-08-26T11:14:04Z</time>
      </trkpt>
      <trkpt lat="45.58498" lon="2.9921">
        <ele>706</ele>
        <time>2021-08-26T11:14:06Z</time>
      </trkpt>
      <trkpt lat="45.58503" lon="2.99207">
        <ele>706</ele>
        <time>2021-08-26T11:14:08Z</time>
      </trkpt>
      <trkpt lat="45.58507" lon="2.99205">
        <ele>706</ele>
        <time>2021-08-26T11:14:10Z</time>
      </trkpt>
      <trkpt lat="45.58512" lon="2.99203">
        <ele>706</ele>
        <time>2021-08-26T11:14:12Z</time>
      </trkpt>
      <trkpt lat="45.58516" lon="2.99202">
        <ele>706</ele>
        <time>2021-08-26T11:14:14Z</time>
      </trkpt>
      <trkpt lat="45.5852" lon="2.99199">
        <ele>706</ele>
        <time>2021-08-26T11:14:16Z</time>
      </trkpt>
      <trkpt lat="45.58525" lon="2.99199">
        <ele>706</ele>
        <time>2021-08-26T11:14:18Z</time>
      </trkpt>
      <trkpt lat="45.58529" lon="2.99197">
        <ele>706.1</ele>
        <time>2021-08-26T11:14:20Z</time>
      </trkpt>
      <trkpt lat="45.58533" lon="2.99196">
        <ele>706.1</ele>
        <time>2021-08-26T11:14:22Z</time>
      </trkpt>
      <trkpt lat="45.58538" lon="2.99195">
        <ele>706.1</ele>
        <time>2021-08-26T11:14:24Z</time>
      </trkpt>
      <trkpt lat="45.58543" lon="2.99193">
        <ele>706.1</ele>
        <time>2021-08-26T11:14:26Z</time>
      </trkpt>
      <trkpt lat="45.58547" lon="2.99192">
        <ele>706</ele>
        <time>2021-08-26T11:14:28Z</time>
      </trkpt>
      <trkpt lat="45.58552" lon="2.99191">
        <ele>706.1</ele>
        <time>2021-08-26T11:14:30Z</time>
      </trkpt>
      <trkpt lat="45.58557" lon="2.9919">
        <ele>706.2</ele>
        <time>2021-08-26T11:14:32Z</time>
      </trkpt>
      <trkpt lat="45.58561" lon="2.9919">
        <ele>706.3</ele>
        <time>2021-08-26T11:14:34Z</time>
      </trkpt>
      <trkpt lat="45.58566" lon="2.99189">
        <ele>706.2</ele>
        <time>2021-08-26T11:14:36Z</time>
      </trkpt>
      <trkpt lat="45.5857" lon="2.99188">
        <ele>706.2</ele>
        <time>2021-08-26T11:14:38Z</time>
      </trkpt>
      <trkpt lat="45.58575" lon="2.99186">
        <ele>706.1</ele>
        <time>2021-08-26T11:14:40Z</time>
      </trkpt>
      <trkpt lat="45.58579" lon="2.99186">
        <ele>706.2</ele>
        <time>2021-08-26T11:14:42Z</time>
      </trkpt>
      <trkpt lat="45.58583" lon="2.99185">
        <ele>706.2</ele>
        <time>2021-08-26T11:14:44Z</time>
      </trkpt>
      <trkpt lat="45.58588" lon="2.99185">
        <ele>706.6</ele>
        <time>2021-08-26T11:14:46Z</time>
      </trkpt>
      <trkpt lat="45.58593" lon="2.99184">
        <ele>706.9</ele>
        <time>2021-08-26T11:14:48Z</time>
      </trkpt>
      <trkpt lat="45.58599" lon="2.99184">
        <ele>707.3</ele>
        <time>2021-08-26T11:14:50Z</time>
      </trkpt>
      <trkpt lat="45.58604" lon="2.99182">
        <ele>707.7</ele>
        <time>2021-08-26T11:14:52Z</time>
      </trkpt>
      <trkpt lat="45.58608" lon="2.99184">
        <ele>708.1</ele>
        <time>2021-08-26T11:14:54Z</time>
      </trkpt>
      <trkpt lat="45.58614" lon="2.99185">
        <ele>708.6</ele>
        <time>2021-08-26T11:14:56Z</time>
      </trkpt>
      <trkpt lat="45.58619" lon="2.99185">
        <ele>709</ele>
        <time>2021-08-26T11:14:58Z</time>
      </trkpt>
      <trkpt lat="45.58624" lon="2.99188">
        <ele>709.4</ele>
        <time>2021-08-26T11:15:00Z</time>
      </trkpt>
      <trkpt lat="45.58628" lon="2.99192">
        <ele>709.7</ele>
        <time>2021-08-26T11:15:02Z</time>
      </trkpt>
      <trkpt lat="45.58633" lon="2.99197">
        <ele>709.8</ele>
        <time>2021-08-26T11:15:04Z</time>
      </trkpt>
      <trkpt lat="45.58636" lon="2.99203">
        <ele>709.8</ele>
        <time>2021-08-26T11:15:06Z</time>
      </trkpt>
      <trkpt lat="45.5864" lon="2.99209">
        <ele>709.7</ele>
        <time>2021-08-26T11:15:08Z</time>
      </trkpt>
      <trkpt lat="45.58643" lon="2.99215">
        <ele>709.4</ele>
        <time>2021-08-26T11:15:10Z</time>
      </trkpt>
      <trkpt lat="45.58646" lon="2.99221">
        <ele>709</ele>
        <time>2021-08-26T11:15:12Z</time>
      </trkpt>
      <trkpt lat="45.58649" lon="2.99227">
        <ele>708.5</ele>
        <time>2021-08-26T11:15:14Z</time>
      </trkpt>
      <trkpt lat="45.58652" lon="2.99234">
        <ele>707.8</ele>
        <time>2021-08-26T11:15:16Z</time>
      </trkpt>
      <trkpt lat="45.58655" lon="2.9924">
        <ele>707.1</ele>
        <time>2021-08-26T11:15:18Z</time>
      </trkpt>
      <trkpt lat="45.58656" lon="2.99246">
        <ele>706.4</ele>
        <time>2021-08-26T11:15:20Z</time>
      </trkpt>
      <trkpt lat="45.58658" lon="2.99252">
        <ele>706.2</ele>
        <time>2021-08-26T11:15:22Z</time>
      </trkpt>
      <trkpt lat="45.5866" lon="2.99258">
        <ele>706.5</ele>
        <time>2021-08-26T11:15:24Z</time>
      </trkpt>
      <trkpt lat="45.58664" lon="2.99262">
        <ele>706.5</ele>
        <time>2021-08-26T11:15:26Z</time>
      </trkpt>
      <trkpt lat="45.58667" lon="2.99266">
        <ele>706.6</ele>
        <time>2021-08-26T11:15:28Z</time>
      </trkpt>
      <trkpt lat="45.5867" lon="2.9927">
        <ele>707.3</ele>
        <time>2021-08-26T11:15:30Z</time>
      </trkpt>
      <trkpt lat="45.58674" lon="2.99272">
        <ele>707.9</ele>
        <time>2021-08-26T11:15:32Z</time>
      </trkpt>
      <trkpt lat="45.58678" lon="2.99273">
        <ele>708.4</ele>
        <time>2021-08-26T11:15:34Z</time>
      </trkpt>
      <trkpt lat="45.58681" lon="2.99275">
        <ele>708.9</ele>
        <time>2021-08-26T11:15:36Z</time>
      </trkpt>
      <trkpt lat="45.58684" lon="2.99277">
        <ele>709.4</ele>
        <time>2021-08-26T11:15:38Z</time>
      </trkpt>
      <trkpt lat="45.58686" lon="2.99279">
        <ele>709.7</ele>
        <time>2021-08-26T11:15:40Z</time>
      </trkpt>
      <trkpt lat="45.58686" lon="2.99278">
        <ele>709.6</ele>
        <time>2021-08-26T11:15:42Z</time>
      </trkpt>
      <trkpt lat="45.58686" lon="2.99278">
        <ele>709.6</ele>
        <time>2021-08-26T11:15:44Z</time>
      </trkpt>
      <trkpt lat="45.58686" lon="2.99277">
        <ele>709.5</ele>
        <time>2021-08-26T11:15:46Z</time>
      </trkpt>
      <trkpt lat="45.58685" lon="2.99277">
        <ele>709.5</ele>
        <time>2021-08-26T11:15:48Z</time>
      </trkpt>
      <trkpt lat="45.58685" lon="2.99279">
        <ele>709.6</ele>
        <time>2021-08-26T11:15:50Z</time>
      </trkpt>
      <trkpt lat="45.58712" lon="2.99278">
        <ele>712.2</ele>
        <time>2021-08-26T11:34:40Z</time>
      </trkpt>
      <trkpt lat="45.58716" lon="2.99275">
        <ele>712.5</ele>
        <time>2021-08-26T11:34:42Z</time>
      </trkpt>
      <trkpt lat="45.5872" lon="2.99275">
        <ele>712.9</ele>
        <time>2021-08-26T11:34:44Z</time>
      </trkpt>
      <trkpt lat="45.58724" lon="2.99275">
        <ele>713.3</ele>
        <time>2021-08-26T11:34:46Z</time>
      </trkpt>
      <trkpt lat="45.58728" lon="2.99273">
        <ele>713.7</ele>
        <time>2021-08-26T11:34:48Z</time>
      </trkpt>
      <trkpt lat="45.5873" lon="2.99266">
        <ele>713.8</ele>
        <time>2021-08-26T11:34:50Z</time>
      </trkpt>
      <trkpt lat="45.5873" lon="2.9926">
        <ele>713.6</ele>
        <time>2021-08-26T11:34:52Z</time>
      </trkpt>
      <trkpt lat="45.5873" lon="2.99253">
        <ele>713.5</ele>
        <time>2021-08-26T11:34:54Z</time>
      </trkpt>
      <trkpt lat="45.58731" lon="2.99247">
        <ele>713.6</ele>
        <time>2021-08-26T11:34:56Z</time>
      </trkpt>
      <trkpt lat="45.58731" lon="2.99241">
        <ele>713.8</ele>
        <time>2021-08-26T11:34:58Z</time>
      </trkpt>
      <trkpt lat="45.58731" lon="2.99234">
        <ele>714.1</ele>
        <time>2021-08-26T11:35:00Z</time>
      </trkpt>
      <trkpt lat="45.58731" lon="2.99228">
        <ele>714.3</ele>
        <time>2021-08-26T11:35:02Z</time>
      </trkpt>
      <trkpt lat="45.58732" lon="2.99222">
        <ele>714.6</ele>
        <time>2021-08-26T11:35:04Z</time>
      </trkpt>
      <trkpt lat="45.58734" lon="2.99217">
        <ele>714.9</ele>
        <time>2021-08-26T11:35:06Z</time>
      </trkpt>
      <trkpt lat="45.58735" lon="2.99211">
        <ele>715.2</ele>
        <time>2021-08-26T11:35:08Z</time>
      </trkpt>
      <trkpt lat="45.58736" lon="2.99205">
        <ele>715.5</ele>
        <time>2021-08-26T11:35:10Z</time>
      </trkpt>
      <trkpt lat="45.58738" lon="2.99199">
        <ele>715.8</ele>
        <time>2021-08-26T11:35:12Z</time>
      </trkpt>
      <trkpt lat="45.58739" lon="2.99194">
        <ele>716.1</ele>
        <time>2021-08-26T11:35:14Z</time>
      </trkpt>
      <trkpt lat="45.58741" lon="2.99189">
        <ele>716.3</ele>
        <time>2021-08-26T11:35:16Z</time>
      </trkpt>
      <trkpt lat="45.58744" lon="2.99183">
        <ele>716.5</ele>
        <time>2021-08-26T11:35:18Z</time>
      </trkpt>
      <trkpt lat="45.58745" lon="2.99178">
        <ele>716.7</ele>
        <time>2021-08-26T11:35:20Z</time>
      </trkpt>
      <trkpt lat="45.58748" lon="2.99174">
        <ele>716.8</ele>
        <time>2021-08-26T11:35:22Z</time>
      </trkpt>
      <trkpt lat="45.5875" lon="2.99169">
        <ele>717</ele>
        <time>2021-08-26T11:35:24Z</time>
      </trkpt>
      <trkpt lat="45.58754" lon="2.99164">
        <ele>717.2</ele>
        <time>2021-08-26T11:35:26Z</time>
      </trkpt>
      <trkpt lat="45.58757" lon="2.99159">
        <ele>717.4</ele>
        <time>2021-08-26T11:35:28Z</time>
      </trkpt>
      <trkpt lat="45.58761" lon="2.99156">
        <ele>717.6</ele>
        <time>2021-08-26T11:35:30Z</time>
      </trkpt>
      <trkpt lat="45.58764" lon="2.99152">
        <ele>717.8</ele>
        <time>2021-08-26T11:35:32Z</time>
      </trkpt>
      <trkpt lat="45.58767" lon="2.99148">
        <ele>718</ele>
        <time>2021-08-26T11:35:34Z</time>
      </trkpt>
      <trkpt lat="45.58771" lon="2.99143">
        <ele>718.2</ele>
        <time>2021-08-26T11:35:36Z</time>
      </trkpt>
      <trkpt lat="45.58774" lon="2.99139">
        <ele>718.5</ele>
        <time>2021-08-26T11:35:38Z</time>
      </trkpt>
      <trkpt lat="45.58777" lon="2.99135">
        <ele>718.7</ele>
        <time>2021-08-26T11:35:40Z</time>
      </trkpt>
      <trkpt lat="45.5878" lon="2.9913">
        <ele>719</ele>
        <time>2021-08-26T11:35:42Z</time>
      </trkpt>
      <trkpt lat="45.58783" lon="2.99125">
        <ele>719.3</ele>
        <time>2021-08-26T11:35:44Z</time>
      </trkpt>
      <trkpt lat="45.58785" lon="2.99121">
        <ele>719.5</ele>
        <time>2021-08-26T11:35:46Z</time>
      </trkpt>
      <trkpt lat="45.58789" lon="2.9912">
        <ele>719.7</ele>
        <time>2021-08-26T11:35:48Z</time>
      </trkpt>
      <trkpt lat="45.58793" lon="2.99121">
        <ele>720</ele>
        <time>2021-08-26T11:35:50Z</time>
      </trkpt>
      <trkpt lat="45.58798" lon="2.99124">
        <ele>720.1</ele>
        <time>2021-08-26T11:35:52Z</time>
      </trkpt>
      <trkpt lat="45.58801" lon="2.99128">
        <ele>720.2</ele>
        <time>2021-08-26T11:35:54Z</time>
      </trkpt>
      <trkpt lat="45.58805" lon="2.9913">
        <ele>720.3</ele>
        <time>2021-08-26T11:35:56Z</time>
      </trkpt>
      <trkpt lat="45.58809" lon="2.99133">
        <ele>720.4</ele>
        <time>2021-08-26T11:35:58Z</time>
      </trkpt>
      <trkpt lat="45.58813" lon="2.99134">
        <ele>720.6</ele>
        <time>2021-08-26T11:36:00Z</time>
      </trkpt>
      <trkpt lat="45.58814" lon="2.99132">
        <ele>720.7</ele>
        <time>2021-08-26T11:36:02Z</time>
      </trkpt>
      <trkpt lat="45.58817" lon="2.99131">
        <ele>720.9</ele>
        <time>2021-08-26T11:36:04Z</time>
      </trkpt>
      <trkpt lat="45.58821" lon="2.99132">
        <ele>721</ele>
        <time>2021-08-26T11:36:06Z</time>
      </trkpt>
      <trkpt lat="45.58824" lon="2.99135">
        <ele>721.1</ele>
        <time>2021-08-26T11:36:08Z</time>
      </trkpt>
      <trkpt lat="45.58828" lon="2.99137">
        <ele>721.2</ele>
        <time>2021-08-26T11:36:10Z</time>
      </trkpt>
      <trkpt lat="45.58831" lon="2.99139">
        <ele>721.2</ele>
        <time>2021-08-26T11:36:12Z</time>
      </trkpt>
      <trkpt lat="45.58834" lon="2.99141">
        <ele>721.4</ele>
        <time>2021-08-26T11:36:14Z</time>
      </trkpt>
      <trkpt lat="45.58837" lon="2.99144">
        <ele>721.5</ele>
        <time>2021-08-26T11:36:16Z</time>
      </trkpt>
      <trkpt lat="45.58838" lon="2.99148">
        <ele>721.4</ele>
        <time>2021-08-26T11:36:18Z</time>
      </trkpt>
      <trkpt lat="45.58838" lon="2.99153">
        <ele>721.2</ele>
        <time>2021-08-26T11:36:20Z</time>
      </trkpt>
      <trkpt lat="45.58837" lon="2.99158">
        <ele>720.8</ele>
        <time>2021-08-26T11:36:22Z</time>
      </trkpt>
      <trkpt lat="45.58834" lon="2.99159">
        <ele>720.4</ele>
        <time>2021-08-26T11:36:24Z</time>
      </trkpt>
      <trkpt lat="45.58831" lon="2.9916">
        <ele>720.3</ele>
        <time>2021-08-26T11:36:26Z</time>
      </trkpt>
      <trkpt lat="45.58828" lon="2.99157">
        <ele>720.3</ele>
        <time>2021-08-26T11:36:28Z</time>
      </trkpt>
      <trkpt lat="45.58825" lon="2.99156">
        <ele>720.2</ele>
        <time>2021-08-26T11:36:30Z</time>
      </trkpt>
      <trkpt lat="45.58823" lon="2.99154">
        <ele>720.2</ele>
        <time>2021-08-26T11:36:32Z</time>
      </trkpt>
      <trkpt lat="45.5882" lon="2.99152">
        <ele>720.2</ele>
        <time>2021-08-26T11:36:34Z</time>
      </trkpt>
      <trkpt lat="45.58816" lon="2.99151">
        <ele>720</ele>
        <time>2021-08-26T11:36:36Z</time>
      </trkpt>
      <trkpt lat="45.58813" lon="2.99151">
        <ele>719.9</ele>
        <time>2021-08-26T11:36:38Z</time>
      </trkpt>
      <trkpt lat="45.58809" lon="2.99153">
        <ele>719.6</ele>
        <time>2021-08-26T11:36:40Z</time>
      </trkpt>
      <trkpt lat="45.58805" lon="2.99155">
        <ele>719.4</ele>
        <time>2021-08-26T11:36:42Z</time>
      </trkpt>
      <trkpt lat="45.58802" lon="2.99158">
        <ele>719.2</ele>
        <time>2021-08-26T11:36:44Z</time>
      </trkpt>
      <trkpt lat="45.58801" lon="2.99161">
        <ele>719</ele>
        <time>2021-08-26T11:36:46Z</time>
      </trkpt>
      <trkpt lat="45.58798" lon="2.99164">
        <ele>718.8</ele>
        <time>2021-08-26T11:36:48Z</time>
      </trkpt>
      <trkpt lat="45.58795" lon="2.99166">
        <ele>718.6</ele>
        <time>2021-08-26T11:36:50Z</time>
      </trkpt>
      <trkpt lat="45.58792" lon="2.99169">
        <ele>718.7</ele>
        <time>2021-08-26T11:36:52Z</time>
      </trkpt>
      <trkpt lat="45.58789" lon="2.99171">
        <ele>718.8</ele>
        <time>2021-08-26T11:36:54Z</time>
      </trkpt>
      <trkpt lat="45.58786" lon="2.99174">
        <ele>718.9</ele>
        <time>2021-08-26T11:36:56Z</time>
      </trkpt>
      <trkpt lat="45.58783" lon="2.99177">
        <ele>718.9</ele>
        <time>2021-08-26T11:36:58Z</time>
      </trkpt>
      <trkpt lat="45.5878" lon="2.99179">
        <ele>718.9</ele>
        <time>2021-08-26T11:37:00Z</time>
      </trkpt>
      <trkpt lat="45.58777" lon="2.99182">
        <ele>718.9</ele>
        <time>2021-08-26T11:37:02Z</time>
      </trkpt>
      <trkpt lat="45.58774" lon="2.99185">
        <ele>718.8</ele>
        <time>2021-08-26T11:37:04Z</time>
      </trkpt>
      <trkpt lat="45.58771" lon="2.99188">
        <ele>718.7</ele>
        <time>2021-08-26T11:37:06Z</time>
      </trkpt>
      <trkpt lat="45.58768" lon="2.99192">
        <ele>718.6</ele>
        <time>2021-08-26T11:37:08Z</time>
      </trkpt>
      <trkpt lat="45.58766" lon="2.99197">
        <ele>718.4</ele>
        <time>2021-08-26T11:37:10Z</time>
      </trkpt>
      <trkpt lat="45.58763" lon="2.99201">
        <ele>718.2</ele>
        <time>2021-08-26T11:37:12Z</time>
      </trkpt>
      <trkpt lat="45.58761" lon="2.99205">
        <ele>718</ele>
        <time>2021-08-26T11:37:14Z</time>
      </trkpt>
      <trkpt lat="45.58758" lon="2.9921">
        <ele>717.7</ele>
        <time>2021-08-26T11:37:16Z</time>
      </trkpt>
      <trkpt lat="45.58756" lon="2.99215">
        <ele>717.5</ele>
        <time>2021-08-26T11:37:18Z</time>
      </trkpt>
      <trkpt lat="45.58756" lon="2.9922">
        <ele>717.4</ele>
        <time>2021-08-26T11:37:20Z</time>
      </trkpt>
      <trkpt lat="45.58756" lon="2.99226">
        <ele>717.4</ele>
        <time>2021-08-26T11:37:22Z</time>
      </trkpt>
      <trkpt lat="45.58756" lon="2.99232">
        <ele>717.5</ele>
        <time>2021-08-26T11:37:24Z</time>
      </trkpt>
      <trkpt lat="45.58757" lon="2.99238">
        <ele>717.6</ele>
        <time>2021-08-26T11:37:26Z</time>
      </trkpt>
      <trkpt lat="45.58758" lon="2.99243">
        <ele>717.9</ele>
        <time>2021-08-26T11:37:28Z</time>
      </trkpt>
      <trkpt lat="45.58759" lon="2.99248">
        <ele>718.2</ele>
        <time>2021-08-26T11:37:30Z</time>
      </trkpt>
      <trkpt lat="45.5876" lon="2.99254">
        <ele>718.4</ele>
        <time>2021-08-26T11:37:32Z</time>
      </trkpt>
      <trkpt lat="45.58761" lon="2.99259">
        <ele>718.7</ele>
        <time>2021-08-26T11:37:34Z</time>
      </trkpt>
      <trkpt lat="45.58762" lon="2.99265">
        <ele>719</ele>
        <time>2021-08-26T11:37:36Z</time>
      </trkpt>
      <trkpt lat="45.58763" lon="2.99271">
        <ele>719.2</ele>
        <time>2021-08-26T11:37:38Z</time>
      </trkpt>
      <trkpt lat="45.58763" lon="2.99276">
        <ele>719.3</ele>
        <time>2021-08-26T11:37:40Z</time>
      </trkpt>
      <trkpt lat="45.58764" lon="2.99281">
        <ele>719.5</ele>
        <time>2021-08-26T11:37:42Z</time>
      </trkpt>
      <trkpt lat="45.58764" lon="2.99287">
        <ele>719.4</ele>
        <time>2021-08-26T11:37:44Z</time>
      </trkpt>
      <trkpt lat="45.58764" lon="2.99293">
        <ele>719.4</ele>
        <time>2021-08-26T11:37:46Z</time>
      </trkpt>
      <trkpt lat="45.58765" lon="2.99298">
        <ele>719.6</ele>
        <time>2021-08-26T11:37:48Z</time>
      </trkpt>
      <trkpt lat="45.58765" lon="2.99304">
        <ele>719.7</ele>
        <time>2021-08-26T11:37:50Z</time>
      </trkpt>
      <trkpt lat="45.58765" lon="2.9931">
        <ele>719.7</ele>
        <time>2021-08-26T11:37:52Z</time>
      </trkpt>
      <trkpt lat="45.58766" lon="2.99315">
        <ele>719.8</ele>
        <time>2021-08-26T11:37:54Z</time>
      </trkpt>
      <trkpt lat="45.58767" lon="2.99319">
        <ele>720.2</ele>
        <time>2021-08-26T11:37:56Z</time>
      </trkpt>
      <trkpt lat="45.58769" lon="2.99323">
        <ele>720.6</ele>
        <time>2021-08-26T11:37:58Z</time>
      </trkpt>
      <trkpt lat="45.58772" lon="2.99327">
        <ele>721.2</ele>
        <time>2021-08-26T11:38:00Z</time>
      </trkpt>
      <trkpt lat="45.58774" lon="2.99329">
        <ele>721.8</ele>
        <time>2021-08-26T11:38:02Z</time>
      </trkpt>
      <trkpt lat="45.58777" lon="2.99331">
        <ele>722.6</ele>
        <time>2021-08-26T11:38:04Z</time>
      </trkpt>
      <trkpt lat="45.58781" lon="2.99334">
        <ele>723.4</ele>
        <time>2021-08-26T11:38:06Z</time>
      </trkpt>
      <trkpt lat="45.58784" lon="2.99336">
        <ele>724.5</ele>
        <time>2021-08-26T11:38:08Z</time>
      </trkpt>
      <trkpt lat="45.58788" lon="2.99337">
        <ele>725.5</ele>
        <time>2021-08-26T11:38:10Z</time>
      </trkpt>
      <trkpt lat="45.58791" lon="2.99337">
        <ele>726.4</ele>
        <time>2021-08-26T11:38:12Z</time>
      </trkpt>
      <trkpt lat="45.58794" lon="2.99335">
        <ele>726.8</ele>
        <time>2021-08-26T11:38:14Z</time>
      </trkpt>
      <trkpt lat="45.58797" lon="2.99334">
        <ele>727.5</ele>
        <time>2021-08-26T11:38:16Z</time>
      </trkpt>
      <trkpt lat="45.58801" lon="2.99333">
        <ele>728.2</ele>
        <time>2021-08-26T11:38:18Z</time>
      </trkpt>
      <trkpt lat="45.58805" lon="2.99332">
        <ele>729.1</ele>
        <time>2021-08-26T11:38:20Z</time>
      </trkpt>
      <trkpt lat="45.58808" lon="2.99332">
        <ele>730.1</ele>
        <time>2021-08-26T11:38:22Z</time>
      </trkpt>
      <trkpt lat="45.58812" lon="2.99331">
        <ele>730.9</ele>
        <time>2021-08-26T11:38:24Z</time>
      </trkpt>
      <trkpt lat="45.58816" lon="2.9933">
        <ele>731.9</ele>
        <time>2021-08-26T11:38:26Z</time>
      </trkpt>
      <trkpt lat="45.5882" lon="2.99329">
        <ele>732.9</ele>
        <time>2021-08-26T11:38:28Z</time>
      </trkpt>
      <trkpt lat="45.58824" lon="2.99329">
        <ele>733.7</ele>
        <time>2021-08-26T11:38:30Z</time>
      </trkpt>
      <trkpt lat="45.58827" lon="2.99328">
        <ele>734.5</ele>
        <time>2021-08-26T11:38:32Z</time>
      </trkpt>
      <trkpt lat="45.58831" lon="2.99328">
        <ele>735.4</ele>
        <time>2021-08-26T11:38:34Z</time>
      </trkpt>
      <trkpt lat="45.58834" lon="2.99328">
        <ele>736.1</ele>
        <time>2021-08-26T11:38:36Z</time>
      </trkpt>
      <trkpt lat="45.58837" lon="2.99327">
        <ele>736.6</ele>
        <time>2021-08-26T11:38:38Z</time>
      </trkpt>
      <trkpt lat="45.58841" lon="2.99326">
        <ele>737.2</ele>
        <time>2021-08-26T11:38:40Z</time>
      </trkpt>
      <trkpt lat="45.58844" lon="2.99328">
        <ele>737.6</ele>
        <time>2021-08-26T11:38:42Z</time>
      </trkpt>
      <trkpt lat="45.58848" lon="2.99333">
        <ele>738.1</ele>
        <time>2021-08-26T11:38:44Z</time>
      </trkpt>
      <trkpt lat="45.58851" lon="2.99337">
        <ele>738.7</ele>
        <time>2021-08-26T11:38:46Z</time>
      </trkpt>
      <trkpt lat="45.58854" lon="2.99342">
        <ele>739.3</ele>
        <time>2021-08-26T11:38:48Z</time>
      </trkpt>
      <trkpt lat="45.58856" lon="2.99347">
        <ele>739.8</ele>
        <time>2021-08-26T11:38:50Z</time>
      </trkpt>
      <trkpt lat="45.58859" lon="2.99351">
        <ele>740.4</ele>
        <time>2021-08-26T11:38:52Z</time>
      </trkpt>
      <trkpt lat="45.58861" lon="2.99356">
        <ele>740.8</ele>
        <time>2021-08-26T11:38:54Z</time>
      </trkpt>
      <trkpt lat="45.58863" lon="2.99359">
        <ele>741.3</ele>
        <time>2021-08-26T11:38:56Z</time>
      </trkpt>
      <trkpt lat="45.58867" lon="2.99362">
        <ele>741.9</ele>
        <time>2021-08-26T11:38:58Z</time>
      </trkpt>
      <trkpt lat="45.58869" lon="2.99365">
        <ele>742.3</ele>
        <time>2021-08-26T11:39:00Z</time>
      </trkpt>
      <trkpt lat="45.58871" lon="2.9937">
        <ele>742.7</ele>
        <time>2021-08-26T11:39:02Z</time>
      </trkpt>
      <trkpt lat="45.58873" lon="2.99372">
        <ele>743.2</ele>
        <time>2021-08-26T11:39:04Z</time>
      </trkpt>
      <trkpt lat="45.58877" lon="2.99374">
        <ele>743.7</ele>
        <time>2021-08-26T11:39:06Z</time>
      </trkpt>
      <trkpt lat="45.5888" lon="2.99374">
        <ele>744.2</ele>
        <time>2021-08-26T11:39:08Z</time>
      </trkpt>
      <trkpt lat="45.58884" lon="2.99373">
        <ele>744.5</ele>
        <time>2021-08-26T11:39:10Z</time>
      </trkpt>
      <trkpt lat="45.58887" lon="2.99371">
        <ele>745</ele>
        <time>2021-08-26T11:39:12Z</time>
      </trkpt>
      <trkpt lat="45.5889" lon="2.99369">
        <ele>745.3</ele>
        <time>2021-08-26T11:39:14Z</time>
      </trkpt>
      <trkpt lat="45.58893" lon="2.99366">
        <ele>745.6</ele>
        <time>2021-08-26T11:39:16Z</time>
      </trkpt>
      <trkpt lat="45.58896" lon="2.99362">
        <ele>745.8</ele>
        <time>2021-08-26T11:39:18Z</time>
      </trkpt>
      <trkpt lat="45.58898" lon="2.99359">
        <ele>746.1</ele>
        <time>2021-08-26T11:39:20Z</time>
      </trkpt>
      <trkpt lat="45.58901" lon="2.99354">
        <ele>746.3</ele>
        <time>2021-08-26T11:39:22Z</time>
      </trkpt>
      <trkpt lat="45.58902" lon="2.99348">
        <ele>746.3</ele>
        <time>2021-08-26T11:39:24Z</time>
      </trkpt>
      <trkpt lat="45.58902" lon="2.99342">
        <ele>746.2</ele>
        <time>2021-08-26T11:39:26Z</time>
      </trkpt>
      <trkpt lat="45.58902" lon="2.99337">
        <ele>746</ele>
        <time>2021-08-26T11:39:28Z</time>
      </trkpt>
      <trkpt lat="45.58902" lon="2.99332">
        <ele>745.8</ele>
        <time>2021-08-26T11:39:30Z</time>
      </trkpt>
      <trkpt lat="45.589" lon="2.99327">
        <ele>745.3</ele>
        <time>2021-08-26T11:39:32Z</time>
      </trkpt>
      <trkpt lat="45.58897" lon="2.99323">
        <ele>744.9</ele>
        <time>2021-08-26T11:39:34Z</time>
      </trkpt>
      <trkpt lat="45.58894" lon="2.99318">
        <ele>744.3</ele>
        <time>2021-08-26T11:39:36Z</time>
      </trkpt>
      <trkpt lat="45.58891" lon="2.99315">
        <ele>743.8</ele>
        <time>2021-08-26T11:39:38Z</time>
      </trkpt>
      <trkpt lat="45.58888" lon="2.99312">
        <ele>743.3</ele>
        <time>2021-08-26T11:39:40Z</time>
      </trkpt>
      <trkpt lat="45.58885" lon="2.99308">
        <ele>742.8</ele>
        <time>2021-08-26T11:39:42Z</time>
      </trkpt>
      <trkpt lat="45.58882" lon="2.99304">
        <ele>742.4</ele>
        <time>2021-08-26T11:39:44Z</time>
      </trkpt>
      <trkpt lat="45.5888" lon="2.99301">
        <ele>742</ele>
        <time>2021-08-26T11:39:46Z</time>
      </trkpt>
      <trkpt lat="45.58877" lon="2.99298">
        <ele>741.6</ele>
        <time>2021-08-26T11:39:48Z</time>
      </trkpt>
      <trkpt lat="45.58874" lon="2.99295">
        <ele>741.2</ele>
        <time>2021-08-26T11:39:50Z</time>
      </trkpt>
      <trkpt lat="45.58871" lon="2.99292">
        <ele>740.7</ele>
        <time>2021-08-26T11:39:52Z</time>
      </trkpt>
      <trkpt lat="45.58868" lon="2.99289">
        <ele>740.5</ele>
        <time>2021-08-26T11:39:54Z</time>
      </trkpt>
      <trkpt lat="45.58867" lon="2.99285">
        <ele>740.3</ele>
        <time>2021-08-26T11:39:56Z</time>
      </trkpt>
      <trkpt lat="45.58866" lon="2.9928">
        <ele>740</ele>
        <time>2021-08-26T11:39:58Z</time>
      </trkpt>
      <trkpt lat="45.58864" lon="2.99275">
        <ele>739.9</ele>
        <time>2021-08-26T11:40:00Z</time>
      </trkpt>
      <trkpt lat="45.58864" lon="2.99271">
        <ele>739.8</ele>
        <time>2021-08-26T11:40:02Z</time>
      </trkpt>
      <trkpt lat="45.58866" lon="2.99266">
        <ele>739.9</ele>
        <time>2021-08-26T11:40:04Z</time>
      </trkpt>
      <trkpt lat="45.58868" lon="2.99263">
        <ele>740.1</ele>
        <time>2021-08-26T11:40:06Z</time>
      </trkpt>
      <trkpt lat="45.58871" lon="2.9926">
        <ele>740.3</ele>
        <time>2021-08-26T11:40:08Z</time>
      </trkpt>
      <trkpt lat="45.58873" lon="2.99256">
        <ele>740.4</ele>
        <time>2021-08-26T11:40:10Z</time>
      </trkpt>
      <trkpt lat="45.58874" lon="2.99253">
        <ele>740.5</ele>
        <time>2021-08-26T11:40:12Z</time>
      </trkpt>
      <trkpt lat="45.58874" lon="2.99248">
        <ele>740</ele>
        <time>2021-08-26T11:40:14Z</time>
      </trkpt>
      <trkpt lat="45.58872" lon="2.99244">
        <ele>739.1</ele>
        <time>2021-08-26T11:40:16Z</time>
      </trkpt>
      <trkpt lat="45.58868" lon="2.99241">
        <ele>738.2</ele>
        <time>2021-08-26T11:40:18Z</time>
      </trkpt>
      <trkpt lat="45.58866" lon="2.99237">
        <ele>737.2</ele>
        <time>2021-08-26T11:40:20Z</time>
      </trkpt>
      <trkpt lat="45.58863" lon="2.99235">
        <ele>736.4</ele>
        <time>2021-08-26T11:40:22Z</time>
      </trkpt>
      <trkpt lat="45.5886" lon="2.99232">
        <ele>735.7</ele>
        <time>2021-08-26T11:40:24Z</time>
      </trkpt>
      <trkpt lat="45.58857" lon="2.9923">
        <ele>734.9</ele>
        <time>2021-08-26T11:40:26Z</time>
      </trkpt>
      <trkpt lat="45.58854" lon="2.99228">
        <ele>734.3</ele>
        <time>2021-08-26T11:40:28Z</time>
      </trkpt>
      <trkpt lat="45.58851" lon="2.99227">
        <ele>733.8</ele>
        <time>2021-08-26T11:40:30Z</time>
      </trkpt>
      <trkpt lat="45.58849" lon="2.99226">
        <ele>733.5</ele>
        <time>2021-08-26T11:40:32Z</time>
      </trkpt>
      <trkpt lat="45.58846" lon="2.99226">
        <ele>733.1</ele>
        <time>2021-08-26T11:40:34Z</time>
      </trkpt>
      <trkpt lat="45.58844" lon="2.99225">
        <ele>732.8</ele>
        <time>2021-08-26T11:40:36Z</time>
      </trkpt>
      <trkpt lat="45.58844" lon="2.99225">
        <ele>732.7</ele>
        <time>2021-08-26T11:40:38Z</time>
      </trkpt>
      <trkpt lat="45.58843" lon="2.99225">
        <ele>732.7</ele>
        <time>2021-08-26T11:40:40Z</time>
      </trkpt>
      <trkpt lat="45.58843" lon="2.99225">
        <ele>732.7</ele>
        <time>2021-08-26T11:40:42Z</time>
      </trkpt>
      <trkpt lat="45.58843" lon="2.99224">
        <ele>732.5</ele>
        <time>2021-08-26T11:40:44Z</time>
      </trkpt>
      <trkpt lat="45.58892" lon="2.99325">
        <ele>744.2</ele>
        <time>2021-08-26T13:06:53Z</time>
      </trkpt>
      <trkpt lat="45.58901" lon="2.99335">
        <ele>745.8</ele>
        <time>2021-08-26T13:06:55Z</time>
      </trkpt>
      <trkpt lat="45.58901" lon="2.99351">
        <ele>746.3</ele>
        <time>2021-08-26T13:06:57Z</time>
      </trkpt>
      <trkpt lat="45.58895" lon="2.99364">
        <ele>745.8</ele>
        <time>2021-08-26T13:06:59Z</time>
      </trkpt>
      <trkpt lat="45.58883" lon="2.99369">
        <ele>744.3</ele>
        <time>2021-08-26T13:07:01Z</time>
      </trkpt>
      <trkpt lat="45.58871" lon="2.99362">
        <ele>742.5</ele>
        <time>2021-08-26T13:07:03Z</time>
      </trkpt>
      <trkpt lat="45.58864" lon="2.99348">
        <ele>741</ele>
        <time>2021-08-26T13:07:05Z</time>
      </trkpt>
      <trkpt lat="45.58858" lon="2.99332">
        <ele>739.5</ele>
        <time>2021-08-26T13:07:07Z</time>
      </trkpt>
      <trkpt lat="45.58847" lon="2.99325">
        <ele>737.9</ele>
        <time>2021-08-26T13:07:09Z</time>
      </trkpt>
      <trkpt lat="45.58834" lon="2.99325">
        <ele>736.2</ele>
        <time>2021-08-26T13:07:11Z</time>
      </trkpt>
      <trkpt lat="45.5882" lon="2.99329">
        <ele>732.9</ele>
        <time>2021-08-26T13:07:13Z</time>
      </trkpt>
      <trkpt lat="45.58807" lon="2.99328">
        <ele>729.7</ele>
        <time>2021-08-26T13:07:15Z</time>
      </trkpt>
      <trkpt lat="45.58793" lon="2.99332">
        <ele>726.4</ele>
        <time>2021-08-26T13:07:17Z</time>
      </trkpt>
      <trkpt lat="45.58783" lon="2.99334">
        <ele>724</ele>
        <time>2021-08-26T13:07:19Z</time>
      </trkpt>
      <trkpt lat="45.58771" lon="2.99326">
        <ele>721.2</ele>
        <time>2021-08-26T13:07:21Z</time>
      </trkpt>
      <trkpt lat="45.58767" lon="2.9931">
        <ele>720.2</ele>
        <time>2021-08-26T13:07:23Z</time>
      </trkpt>
      <trkpt lat="45.58767" lon="2.9929">
        <ele>720.2</ele>
        <time>2021-08-26T13:07:25Z</time>
      </trkpt>
      <trkpt lat="45.58765" lon="2.99269">
        <ele>719.7</ele>
        <time>2021-08-26T13:07:27Z</time>
      </trkpt>
      <trkpt lat="45.58762" lon="2.99247">
        <ele>718.9</ele>
        <time>2021-08-26T13:07:29Z</time>
      </trkpt>
      <trkpt lat="45.58759" lon="2.9923">
        <ele>718.1</ele>
        <time>2021-08-26T13:07:31Z</time>
      </trkpt>
      <trkpt lat="45.58761" lon="2.99213">
        <ele>718.2</ele>
        <time>2021-08-26T13:07:33Z</time>
      </trkpt>
      <trkpt lat="45.5877" lon="2.99197">
        <ele>718.9</ele>
        <time>2021-08-26T13:07:35Z</time>
      </trkpt>
      <trkpt lat="45.5878" lon="2.99185">
        <ele>719.3</ele>
        <time>2021-08-26T13:07:37Z</time>
      </trkpt>
      <trkpt lat="45.58791" lon="2.99177">
        <ele>719.4</ele>
        <time>2021-08-26T13:07:39Z</time>
      </trkpt>
      <trkpt lat="45.58799" lon="2.99169">
        <ele>719</ele>
        <time>2021-08-26T13:07:41Z</time>
      </trkpt>
      <trkpt lat="45.58804" lon="2.99163">
        <ele>719.1</ele>
        <time>2021-08-26T13:07:43Z</time>
      </trkpt>
      <trkpt lat="45.5881" lon="2.99158">
        <ele>719.5</ele>
        <time>2021-08-26T13:07:45Z</time>
      </trkpt>
      <trkpt lat="45.58817" lon="2.99159">
        <ele>719.7</ele>
        <time>2021-08-26T13:07:47Z</time>
      </trkpt>
      <trkpt lat="45.58824" lon="2.99163">
        <ele>719.8</ele>
        <time>2021-08-26T13:07:49Z</time>
      </trkpt>
      <trkpt lat="45.5883" lon="2.99166">
        <ele>719.9</ele>
        <time>2021-08-26T13:07:51Z</time>
      </trkpt>
      <trkpt lat="45.58836" lon="2.99164">
        <ele>720.4</ele>
        <time>2021-08-26T13:07:53Z</time>
      </trkpt>
      <trkpt lat="45.5884" lon="2.99159">
        <ele>721</ele>
        <time>2021-08-26T13:07:55Z</time>
      </trkpt>
      <trkpt lat="45.58842" lon="2.99154">
        <ele>721.5</ele>
        <time>2021-08-26T13:07:57Z</time>
      </trkpt>
      <trkpt lat="45.58843" lon="2.99152">
        <ele>721.7</ele>
        <time>2021-08-26T13:07:59Z</time>
      </trkpt>
      <trkpt lat="45.58844" lon="2.9915">
        <ele>722</ele>
        <time>2021-08-26T13:08:01Z</time>
      </trkpt>
      <trkpt lat="45.58844" lon="2.99149">
        <ele>722</ele>
        <time>2021-08-26T13:08:03Z</time>
      </trkpt>
      <trkpt lat="45.58844" lon="2.99149">
        <ele>722</ele>
        <time>2021-08-26T13:08:05Z</time>
      </trkpt>
      <trkpt lat="45.58844" lon="2.99149">
        <ele>722</ele>
        <time>2021-08-26T13:08:07Z</time>
      </trkpt>
      <trkpt lat="45.58838" lon="2.99136">
        <ele>722.1</ele>
        <time>2021-08-26T13:08:15Z</time>
      </trkpt>
      <trkpt lat="45.58832" lon="2.99132">
        <ele>721.6</ele>
        <time>2021-08-26T13:08:17Z</time>
      </trkpt>
      <trkpt lat="45.58825" lon="2.99131">
        <ele>721.3</ele>
        <time>2021-08-26T13:08:19Z</time>
      </trkpt>
      <trkpt lat="45.58819" lon="2.99129">
        <ele>721.1</ele>
        <time>2021-08-26T13:08:21Z</time>
      </trkpt>
      <trkpt lat="45.58816" lon="2.99128">
        <ele>720.9</ele>
        <time>2021-08-26T13:08:23Z</time>
      </trkpt>
      <trkpt lat="45.58811" lon="2.99126">
        <ele>720.8</ele>
        <time>2021-08-26T13:08:25Z</time>
      </trkpt>
      <trkpt lat="45.58807" lon="2.99122">
        <ele>720.7</ele>
        <time>2021-08-26T13:08:27Z</time>
      </trkpt>
      <trkpt lat="45.58801" lon="2.99116">
        <ele>720.6</ele>
        <time>2021-08-26T13:08:29Z</time>
      </trkpt>
      <trkpt lat="45.58796" lon="2.99109">
        <ele>720.5</ele>
        <time>2021-08-26T13:08:31Z</time>
      </trkpt>
      <trkpt lat="45.58791" lon="2.99103">
        <ele>720.4</ele>
        <time>2021-08-26T13:08:33Z</time>
      </trkpt>
      <trkpt lat="45.58788" lon="2.99097">
        <ele>720.4</ele>
        <time>2021-08-26T13:08:35Z</time>
      </trkpt>
      <trkpt lat="45.58786" lon="2.99093">
        <ele>720.4</ele>
        <time>2021-08-26T13:08:37Z</time>
      </trkpt>
      <trkpt lat="45.58786" lon="2.99091">
        <ele>720.4</ele>
        <time>2021-08-26T13:08:39Z</time>
      </trkpt>
      <trkpt lat="45.58785" lon="2.99089">
        <ele>720.4</ele>
        <time>2021-08-26T13:08:41Z</time>
      </trkpt>
      <trkpt lat="45.58784" lon="2.99083">
        <ele>720.5</ele>
        <time>2021-08-26T13:08:43Z</time>
      </trkpt>
      <trkpt lat="45.58784" lon="2.99077">
        <ele>720.8</ele>
        <time>2021-08-26T13:08:45Z</time>
      </trkpt>
      <trkpt lat="45.58784" lon="2.9907">
        <ele>721.1</ele>
        <time>2021-08-26T13:08:47Z</time>
      </trkpt>
      <trkpt lat="45.58783" lon="2.99063">
        <ele>721.5</ele>
        <time>2021-08-26T13:08:49Z</time>
      </trkpt>
      <trkpt lat="45.58783" lon="2.99055">
        <ele>721.8</ele>
        <time>2021-08-26T13:08:51Z</time>
      </trkpt>
      <trkpt lat="45.58782" lon="2.99048">
        <ele>722.2</ele>
        <time>2021-08-26T13:08:53Z</time>
      </trkpt>
      <trkpt lat="45.58782" lon="2.99042">
        <ele>722.5</ele>
        <time>2021-08-26T13:08:55Z</time>
      </trkpt>
      <trkpt lat="45.58782" lon="2.99036">
        <ele>722.8</ele>
        <time>2021-08-26T13:08:57Z</time>
      </trkpt>
      <trkpt lat="45.58783" lon="2.99032">
        <ele>723.1</ele>
        <time>2021-08-26T13:08:59Z</time>
      </trkpt>
      <trkpt lat="45.58785" lon="2.99026">
        <ele>723.6</ele>
        <time>2021-08-26T13:09:01Z</time>
      </trkpt>
      <trkpt lat="45.58786" lon="2.99021">
        <ele>723.9</ele>
        <time>2021-08-26T13:09:03Z</time>
      </trkpt>
      <trkpt lat="45.58788" lon="2.99014">
        <ele>724.5</ele>
        <time>2021-08-26T13:09:05Z</time>
      </trkpt>
      <trkpt lat="45.5879" lon="2.99011">
        <ele>724.8</ele>
        <time>2021-08-26T13:09:07Z</time>
      </trkpt>
      <trkpt lat="45.58792" lon="2.99006">
        <ele>725.2</ele>
        <time>2021-08-26T13:09:09Z</time>
      </trkpt>
      <trkpt lat="45.58794" lon="2.99002">
        <ele>725.6</ele>
        <time>2021-08-26T13:09:11Z</time>
      </trkpt>
      <trkpt lat="45.58797" lon="2.98995">
        <ele>726.2</ele>
        <time>2021-08-26T13:09:13Z</time>
      </trkpt>
      <trkpt lat="45.58798" lon="2.9899">
        <ele>726.4</ele>
        <time>2021-08-26T13:09:15Z</time>
      </trkpt>
      <trkpt lat="45.58796" lon="2.98986">
        <ele>726.5</ele>
        <time>2021-08-26T13:09:17Z</time>
      </trkpt>
      <trkpt lat="45.58795" lon="2.98982">
        <ele>726.7</ele>
        <time>2021-08-26T13:09:19Z</time>
      </trkpt>
      <trkpt lat="45.58798" lon="2.98978">
        <ele>726.9</ele>
        <time>2021-08-26T13:09:21Z</time>
      </trkpt>
      <trkpt lat="45.588" lon="2.98975">
        <ele>727.1</ele>
        <time>2021-08-26T13:09:23Z</time>
      </trkpt>
      <trkpt lat="45.58799" lon="2.98973">
        <ele>727.2</ele>
        <time>2021-08-26T13:09:25Z</time>
      </trkpt>
      <trkpt lat="45.58798" lon="2.98972">
        <ele>727.2</ele>
        <time>2021-08-26T13:09:27Z</time>
      </trkpt>
      <trkpt lat="45.58795" lon="2.98971">
        <ele>727.2</ele>
        <time>2021-08-26T13:09:29Z</time>
      </trkpt>
      <trkpt lat="45.58794" lon="2.9897">
        <ele>727.3</ele>
        <time>2021-08-26T13:09:31Z</time>
      </trkpt>
      <trkpt lat="45.58795" lon="2.98971">
        <ele>727.2</ele>
        <time>2021-08-26T13:09:33Z</time>
      </trkpt>
      <trkpt lat="45.58795" lon="2.98971">
        <ele>727.2</ele>
        <time>2021-08-26T13:09:35Z</time>
      </trkpt>
      <trkpt lat="45.58795" lon="2.98971">
        <ele>727.2</ele>
        <time>2021-08-26T13:09:37Z</time>
      </trkpt>
      <trkpt lat="45.58796" lon="2.98972">
        <ele>727.2</ele>
        <time>2021-08-26T13:09:39Z</time>
      </trkpt>
      <trkpt lat="45.58795" lon="2.98993">
        <ele>726.1</ele>
        <time>2021-08-26T13:25:29Z</time>
      </trkpt>
      <trkpt lat="45.58791" lon="2.98999">
        <ele>725.5</ele>
        <time>2021-08-26T13:25:31Z</time>
      </trkpt>
      <trkpt lat="45.58788" lon="2.99006">
        <ele>724.9</ele>
        <time>2021-08-26T13:25:33Z</time>
      </trkpt>
      <trkpt lat="45.58784" lon="2.99014">
        <ele>724.1</ele>
        <time>2021-08-26T13:25:35Z</time>
      </trkpt>
      <trkpt lat="45.58782" lon="2.99025">
        <ele>723.3</ele>
        <time>2021-08-26T13:25:37Z</time>
      </trkpt>
      <trkpt lat="45.5878" lon="2.99037">
        <ele>722.6</ele>
        <time>2021-08-26T13:25:39Z</time>
      </trkpt>
      <trkpt lat="45.58779" lon="2.99047">
        <ele>722</ele>
        <time>2021-08-26T13:25:41Z</time>
      </trkpt>
      <trkpt lat="45.5878" lon="2.9906">
        <ele>721.4</ele>
        <time>2021-08-26T13:25:43Z</time>
      </trkpt>
      <trkpt lat="45.58781" lon="2.99073">
        <ele>720.7</ele>
        <time>2021-08-26T13:25:45Z</time>
      </trkpt>
      <trkpt lat="45.5878" lon="2.99085">
        <ele>720.2</ele>
        <time>2021-08-26T13:25:47Z</time>
      </trkpt>
      <trkpt lat="45.58781" lon="2.99094">
        <ele>719.9</ele>
        <time>2021-08-26T13:25:49Z</time>
      </trkpt>
      <trkpt lat="45.58781" lon="2.99101">
        <ele>719.8</ele>
        <time>2021-08-26T13:25:51Z</time>
      </trkpt>
      <trkpt lat="45.5878" lon="2.99106">
        <ele>719.6</ele>
        <time>2021-08-26T13:25:53Z</time>
      </trkpt>
      <trkpt lat="45.5878" lon="2.99109">
        <ele>719.5</ele>
        <time>2021-08-26T13:25:55Z</time>
      </trkpt>
      <trkpt lat="45.5878" lon="2.99114">
        <ele>719.4</ele>
        <time>2021-08-26T13:25:57Z</time>
      </trkpt>
      <trkpt lat="45.58784" lon="2.99119">
        <ele>719.5</ele>
        <time>2021-08-26T13:25:59Z</time>
      </trkpt>
      <trkpt lat="45.58791" lon="2.9912">
        <ele>719.9</ele>
        <time>2021-08-26T13:26:01Z</time>
      </trkpt>
      <trkpt lat="45.58796" lon="2.99122">
        <ele>720.1</ele>
        <time>2021-08-26T13:26:03Z</time>
      </trkpt>
      <trkpt lat="45.58802" lon="2.99126">
        <ele>720.3</ele>
        <time>2021-08-26T13:26:05Z</time>
      </trkpt>
      <trkpt lat="45.58808" lon="2.99129">
        <ele>720.5</ele>
        <time>2021-08-26T13:26:07Z</time>
      </trkpt>
      <trkpt lat="45.58813" lon="2.99131">
        <ele>720.7</ele>
        <time>2021-08-26T13:26:09Z</time>
      </trkpt>
      <trkpt lat="45.58817" lon="2.99133">
        <ele>720.8</ele>
        <time>2021-08-26T13:26:11Z</time>
      </trkpt>
      <trkpt lat="45.58821" lon="2.99132">
        <ele>721</ele>
        <time>2021-08-26T13:26:13Z</time>
      </trkpt>
      <trkpt lat="45.58825" lon="2.99134">
        <ele>721.1</ele>
        <time>2021-08-26T13:26:15Z</time>
      </trkpt>
      <trkpt lat="45.58828" lon="2.99136">
        <ele>721.2</ele>
        <time>2021-08-26T13:26:17Z</time>
      </trkpt>
      <trkpt lat="45.58832" lon="2.99138">
        <ele>721.3</ele>
        <time>2021-08-26T13:26:19Z</time>
      </trkpt>
      <trkpt lat="45.58835" lon="2.99141">
        <ele>721.4</ele>
        <time>2021-08-26T13:26:21Z</time>
      </trkpt>
      <trkpt lat="45.58838" lon="2.99143">
        <ele>721.7</ele>
        <time>2021-08-26T13:26:23Z</time>
      </trkpt>
      <trkpt lat="45.58839" lon="2.99148">
        <ele>721.5</ele>
        <time>2021-08-26T13:26:25Z</time>
      </trkpt>
      <trkpt lat="45.58839" lon="2.99153">
        <ele>721.3</ele>
        <time>2021-08-26T13:26:27Z</time>
      </trkpt>
      <trkpt lat="45.58838" lon="2.99158">
        <ele>720.9</ele>
        <time>2021-08-26T13:26:29Z</time>
      </trkpt>
      <trkpt lat="45.58835" lon="2.9916">
        <ele>720.5</ele>
        <time>2021-08-26T13:26:31Z</time>
      </trkpt>
      <trkpt lat="45.58831" lon="2.9916">
        <ele>720.2</ele>
        <time>2021-08-26T13:26:33Z</time>
      </trkpt>
      <trkpt lat="45.58827" lon="2.99161">
        <ele>720</ele>
        <time>2021-08-26T13:26:35Z</time>
      </trkpt>
      <trkpt lat="45.58824" lon="2.99159">
        <ele>720</ele>
        <time>2021-08-26T13:26:37Z</time>
      </trkpt>
      <trkpt lat="45.58821" lon="2.99158">
        <ele>719.9</ele>
        <time>2021-08-26T13:26:39Z</time>
      </trkpt>
      <trkpt lat="45.58817" lon="2.99157">
        <ele>719.8</ele>
        <time>2021-08-26T13:26:41Z</time>
      </trkpt>
      <trkpt lat="45.58814" lon="2.99156">
        <ele>719.8</ele>
        <time>2021-08-26T13:26:43Z</time>
      </trkpt>
      <trkpt lat="45.58811" lon="2.99154">
        <ele>719.7</ele>
        <time>2021-08-26T13:26:45Z</time>
      </trkpt>
      <trkpt lat="45.58808" lon="2.99154">
        <ele>719.6</ele>
        <time>2021-08-26T13:26:47Z</time>
      </trkpt>
      <trkpt lat="45.58806" lon="2.99155">
        <ele>719.4</ele>
        <time>2021-08-26T13:26:49Z</time>
      </trkpt>
      <trkpt lat="45.58804" lon="2.99157">
        <ele>719.3</ele>
        <time>2021-08-26T13:26:51Z</time>
      </trkpt>
      <trkpt lat="45.58802" lon="2.99159">
        <ele>719.1</ele>
        <time>2021-08-26T13:26:53Z</time>
      </trkpt>
      <trkpt lat="45.588" lon="2.99162">
        <ele>718.9</ele>
        <time>2021-08-26T13:26:55Z</time>
      </trkpt>
      <trkpt lat="45.58798" lon="2.99165">
        <ele>718.8</ele>
        <time>2021-08-26T13:26:57Z</time>
      </trkpt>
      <trkpt lat="45.58796" lon="2.99168">
        <ele>718.8</ele>
        <time>2021-08-26T13:26:59Z</time>
      </trkpt>
      <trkpt lat="45.58794" lon="2.99171">
        <ele>719</ele>
        <time>2021-08-26T13:27:01Z</time>
      </trkpt>
      <trkpt lat="45.58791" lon="2.99173">
        <ele>719.1</ele>
        <time>2021-08-26T13:27:03Z</time>
      </trkpt>
      <trkpt lat="45.58788" lon="2.99176">
        <ele>719.1</ele>
        <time>2021-08-26T13:27:05Z</time>
      </trkpt>
      <trkpt lat="45.58786" lon="2.99178">
        <ele>719.2</ele>
        <time>2021-08-26T13:27:07Z</time>
      </trkpt>
      <trkpt lat="45.58783" lon="2.99181">
        <ele>719.2</ele>
        <time>2021-08-26T13:27:09Z</time>
      </trkpt>
      <trkpt lat="45.58781" lon="2.99184">
        <ele>719.3</ele>
        <time>2021-08-26T13:27:11Z</time>
      </trkpt>
      <trkpt lat="45.58778" lon="2.99187">
        <ele>719.2</ele>
        <time>2021-08-26T13:27:13Z</time>
      </trkpt>
      <trkpt lat="45.58776" lon="2.99189">
        <ele>719.2</ele>
        <time>2021-08-26T13:27:15Z</time>
      </trkpt>
      <trkpt lat="45.58774" lon="2.99192">
        <ele>719.1</ele>
        <time>2021-08-26T13:27:17Z</time>
      </trkpt>
      <trkpt lat="45.58771" lon="2.99194">
        <ele>718.9</ele>
        <time>2021-08-26T13:27:19Z</time>
      </trkpt>
      <trkpt lat="45.58768" lon="2.99197">
        <ele>718.7</ele>
        <time>2021-08-26T13:27:21Z</time>
      </trkpt>
      <trkpt lat="45.58766" lon="2.99201">
        <ele>718.6</ele>
        <time>2021-08-26T13:27:23Z</time>
      </trkpt>
      <trkpt lat="45.58764" lon="2.99205">
        <ele>718.5</ele>
        <time>2021-08-26T13:27:25Z</time>
      </trkpt>
      <trkpt lat="45.58762" lon="2.99208">
        <ele>718.2</ele>
        <time>2021-08-26T13:27:27Z</time>
      </trkpt>
      <trkpt lat="45.5876" lon="2.99213">
        <ele>717.9</ele>
        <time>2021-08-26T13:27:29Z</time>
      </trkpt>
      <trkpt lat="45.58758" lon="2.99218">
        <ele>717.7</ele>
        <time>2021-08-26T13:27:31Z</time>
      </trkpt>
      <trkpt lat="45.58758" lon="2.99223">
        <ele>717.7</ele>
        <time>2021-08-26T13:27:33Z</time>
      </trkpt>
      <trkpt lat="45.58758" lon="2.99228">
        <ele>717.8</ele>
        <time>2021-08-26T13:27:35Z</time>
      </trkpt>
      <trkpt lat="45.58758" lon="2.99233">
        <ele>717.9</ele>
        <time>2021-08-26T13:27:37Z</time>
      </trkpt>
      <trkpt lat="45.58758" lon="2.99239">
        <ele>718</ele>
        <time>2021-08-26T13:27:39Z</time>
      </trkpt>
      <trkpt lat="45.58759" lon="2.99244">
        <ele>718.2</ele>
        <time>2021-08-26T13:27:41Z</time>
      </trkpt>
      <trkpt lat="45.5876" lon="2.99249">
        <ele>718.5</ele>
        <time>2021-08-26T13:27:43Z</time>
      </trkpt>
      <trkpt lat="45.58761" lon="2.99254">
        <ele>718.7</ele>
        <time>2021-08-26T13:27:45Z</time>
      </trkpt>
      <trkpt lat="45.58762" lon="2.99258">
        <ele>719</ele>
        <time>2021-08-26T13:27:47Z</time>
      </trkpt>
      <trkpt lat="45.58763" lon="2.99263">
        <ele>719.2</ele>
        <time>2021-08-26T13:27:49Z</time>
      </trkpt>
      <trkpt lat="45.58763" lon="2.99268">
        <ele>719.3</ele>
        <time>2021-08-26T13:27:51Z</time>
      </trkpt>
      <trkpt lat="45.58764" lon="2.99273">
        <ele>719.4</ele>
        <time>2021-08-26T13:27:53Z</time>
      </trkpt>
      <trkpt lat="45.58764" lon="2.99277">
        <ele>719.6</ele>
        <time>2021-08-26T13:27:55Z</time>
      </trkpt>
      <trkpt lat="45.58764" lon="2.99283">
        <ele>719.6</ele>
        <time>2021-08-26T13:27:57Z</time>
      </trkpt>
      <trkpt lat="45.58765" lon="2.99287">
        <ele>719.6</ele>
        <time>2021-08-26T13:27:59Z</time>
      </trkpt>
      <trkpt lat="45.58765" lon="2.99292">
        <ele>719.6</ele>
        <time>2021-08-26T13:28:01Z</time>
      </trkpt>
      <trkpt lat="45.58765" lon="2.99297">
        <ele>719.6</ele>
        <time>2021-08-26T13:28:03Z</time>
      </trkpt>
      <trkpt lat="45.58765" lon="2.99302">
        <ele>719.6</ele>
        <time>2021-08-26T13:28:05Z</time>
      </trkpt>
      <trkpt lat="45.58765" lon="2.99307">
        <ele>719.7</ele>
        <time>2021-08-26T13:28:07Z</time>
      </trkpt>
      <trkpt lat="45.58766" lon="2.99311">
        <ele>719.8</ele>
        <time>2021-08-26T13:28:09Z</time>
      </trkpt>
      <trkpt lat="45.58767" lon="2.99316">
        <ele>720.1</ele>
        <time>2021-08-26T13:28:11Z</time>
      </trkpt>
      <trkpt lat="45.58768" lon="2.9932">
        <ele>720.4</ele>
        <time>2021-08-26T13:28:13Z</time>
      </trkpt>
      <trkpt lat="45.58771" lon="2.99325">
        <ele>721</ele>
        <time>2021-08-26T13:28:15Z</time>
      </trkpt>
      <trkpt lat="45.58774" lon="2.99328">
        <ele>721.7</ele>
        <time>2021-08-26T13:28:17Z</time>
      </trkpt>
      <trkpt lat="45.58777" lon="2.9933">
        <ele>722.5</ele>
        <time>2021-08-26T13:28:19Z</time>
      </trkpt>
      <trkpt lat="45.5878" lon="2.99332">
        <ele>723.3</ele>
        <time>2021-08-26T13:28:21Z</time>
      </trkpt>
      <trkpt lat="45.58783" lon="2.99334">
        <ele>724.1</ele>
        <time>2021-08-26T13:28:23Z</time>
      </trkpt>
      <trkpt lat="45.58787" lon="2.99336">
        <ele>725.2</ele>
        <time>2021-08-26T13:28:25Z</time>
      </trkpt>
      <trkpt lat="45.58791" lon="2.99335">
        <ele>726.1</ele>
        <time>2021-08-26T13:28:27Z</time>
      </trkpt>
      <trkpt lat="45.58794" lon="2.99335">
        <ele>726.8</ele>
        <time>2021-08-26T13:28:29Z</time>
      </trkpt>
      <trkpt lat="45.58798" lon="2.99333">
        <ele>727.5</ele>
        <time>2021-08-26T13:28:31Z</time>
      </trkpt>
      <trkpt lat="45.58801" lon="2.99333">
        <ele>728.3</ele>
        <time>2021-08-26T13:28:33Z</time>
      </trkpt>
      <trkpt lat="45.58804" lon="2.99332">
        <ele>729</ele>
        <time>2021-08-26T13:28:35Z</time>
      </trkpt>
      <trkpt lat="45.58807" lon="2.99332">
        <ele>729.8</ele>
        <time>2021-08-26T13:28:37Z</time>
      </trkpt>
      <trkpt lat="45.58811" lon="2.99331">
        <ele>730.6</ele>
        <time>2021-08-26T13:28:39Z</time>
      </trkpt>
      <trkpt lat="45.58814" lon="2.9933">
        <ele>731.5</ele>
        <time>2021-08-26T13:28:41Z</time>
      </trkpt>
      <trkpt lat="45.58818" lon="2.99329">
        <ele>732.3</ele>
        <time>2021-08-26T13:28:43Z</time>
      </trkpt>
      <trkpt lat="45.58821" lon="2.99328">
        <ele>733.2</ele>
        <time>2021-08-26T13:28:45Z</time>
      </trkpt>
      <trkpt lat="45.58825" lon="2.99327">
        <ele>734.1</ele>
        <time>2021-08-26T13:28:47Z</time>
      </trkpt>
      <trkpt lat="45.58829" lon="2.99327">
        <ele>734.9</ele>
        <time>2021-08-26T13:28:49Z</time>
      </trkpt>
      <trkpt lat="45.58832" lon="2.99326">
        <ele>735.7</ele>
        <time>2021-08-26T13:28:51Z</time>
      </trkpt>
      <trkpt lat="45.58835" lon="2.99326">
        <ele>736.3</ele>
        <time>2021-08-26T13:28:53Z</time>
      </trkpt>
      <trkpt lat="45.58839" lon="2.99326">
        <ele>736.9</ele>
        <time>2021-08-26T13:28:55Z</time>
      </trkpt>
      <trkpt lat="45.58843" lon="2.99326">
        <ele>737.5</ele>
        <time>2021-08-26T13:28:57Z</time>
      </trkpt>
      <trkpt lat="45.58846" lon="2.99331">
        <ele>737.9</ele>
        <time>2021-08-26T13:28:59Z</time>
      </trkpt>
      <trkpt lat="45.5885" lon="2.99334">
        <ele>738.5</ele>
        <time>2021-08-26T13:29:01Z</time>
      </trkpt>
      <trkpt lat="45.58853" lon="2.99337">
        <ele>739.1</ele>
        <time>2021-08-26T13:29:03Z</time>
      </trkpt>
      <trkpt lat="45.58855" lon="2.99342">
        <ele>739.6</ele>
        <time>2021-08-26T13:29:05Z</time>
      </trkpt>
      <trkpt lat="45.58857" lon="2.99346">
        <ele>740</ele>
        <time>2021-08-26T13:29:07Z</time>
      </trkpt>
      <trkpt lat="45.58859" lon="2.99351">
        <ele>740.4</ele>
        <time>2021-08-26T13:29:09Z</time>
      </trkpt>
      <trkpt lat="45.58861" lon="2.99355">
        <ele>740.8</ele>
        <time>2021-08-26T13:29:11Z</time>
      </trkpt>
      <trkpt lat="45.58863" lon="2.99358">
        <ele>741.3</ele>
        <time>2021-08-26T13:29:13Z</time>
      </trkpt>
      <trkpt lat="45.58866" lon="2.99361">
        <ele>741.8</ele>
        <time>2021-08-26T13:29:15Z</time>
      </trkpt>
      <trkpt lat="45.58869" lon="2.99364">
        <ele>742.3</ele>
        <time>2021-08-26T13:29:17Z</time>
      </trkpt>
      <trkpt lat="45.58871" lon="2.99368">
        <ele>742.7</ele>
        <time>2021-08-26T13:29:19Z</time>
      </trkpt>
      <trkpt lat="45.58874" lon="2.99371">
        <ele>743.2</ele>
        <time>2021-08-26T13:29:21Z</time>
      </trkpt>
      <trkpt lat="45.58876" lon="2.99372">
        <ele>743.6</ele>
        <time>2021-08-26T13:29:23Z</time>
      </trkpt>
      <trkpt lat="45.58879" lon="2.99373">
        <ele>744</ele>
        <time>2021-08-26T13:29:25Z</time>
      </trkpt>
      <trkpt lat="45.58883" lon="2.99372">
        <ele>744.5</ele>
        <time>2021-08-26T13:29:27Z</time>
      </trkpt>
      <trkpt lat="45.58886" lon="2.99372">
        <ele>744.8</ele>
        <time>2021-08-26T13:29:29Z</time>
      </trkpt>
      <trkpt lat="45.58889" lon="2.9937">
        <ele>745.2</ele>
        <time>2021-08-26T13:29:31Z</time>
      </trkpt>
      <trkpt lat="45.58892" lon="2.99368">
        <ele>745.5</ele>
        <time>2021-08-26T13:29:33Z</time>
      </trkpt>
      <trkpt lat="45.58894" lon="2.99365">
        <ele>745.8</ele>
        <time>2021-08-26T13:29:35Z</time>
      </trkpt>
      <trkpt lat="45.58898" lon="2.9936">
        <ele>746.1</ele>
        <time>2021-08-26T13:29:37Z</time>
      </trkpt>
      <trkpt lat="45.589" lon="2.99356">
        <ele>746.2</ele>
        <time>2021-08-26T13:29:39Z</time>
      </trkpt>
      <trkpt lat="45.58901" lon="2.99352">
        <ele>746.3</ele>
        <time>2021-08-26T13:29:41Z</time>
      </trkpt>
      <trkpt lat="45.58902" lon="2.99348">
        <ele>746.3</ele>
        <time>2021-08-26T13:29:43Z</time>
      </trkpt>
      <trkpt lat="45.58902" lon="2.99342">
        <ele>746.2</ele>
        <time>2021-08-26T13:29:45Z</time>
      </trkpt>
      <trkpt lat="45.58902" lon="2.99337">
        <ele>746</ele>
        <time>2021-08-26T13:29:47Z</time>
      </trkpt>
      <trkpt lat="45.58901" lon="2.99332">
        <ele>745.7</ele>
        <time>2021-08-26T13:29:49Z</time>
      </trkpt>
      <trkpt lat="45.58899" lon="2.99328">
        <ele>745.3</ele>
        <time>2021-08-26T13:29:51Z</time>
      </trkpt>
      <trkpt lat="45.58897" lon="2.99323">
        <ele>744.9</ele>
        <time>2021-08-26T13:29:53Z</time>
      </trkpt>
      <trkpt lat="45.58894" lon="2.99319">
        <ele>744.3</ele>
        <time>2021-08-26T13:29:55Z</time>
      </trkpt>
      <trkpt lat="45.58892" lon="2.99317">
        <ele>743.9</ele>
        <time>2021-08-26T13:29:57Z</time>
      </trkpt>
      <trkpt lat="45.58889" lon="2.99314">
        <ele>743.4</ele>
        <time>2021-08-26T13:29:59Z</time>
      </trkpt>
      <trkpt lat="45.58886" lon="2.99311">
        <ele>743</ele>
        <time>2021-08-26T13:30:01Z</time>
      </trkpt>
      <trkpt lat="45.58883" lon="2.99307">
        <ele>742.5</ele>
        <time>2021-08-26T13:30:03Z</time>
      </trkpt>
      <trkpt lat="45.5888" lon="2.99303">
        <ele>742</ele>
        <time>2021-08-26T13:30:05Z</time>
      </trkpt>
      <trkpt lat="45.58877" lon="2.99299">
        <ele>741.6</ele>
        <time>2021-08-26T13:30:07Z</time>
      </trkpt>
      <trkpt lat="45.58874" lon="2.99296">
        <ele>741.2</ele>
        <time>2021-08-26T13:30:09Z</time>
      </trkpt>
      <trkpt lat="45.58871" lon="2.99293">
        <ele>740.8</ele>
        <time>2021-08-26T13:30:11Z</time>
      </trkpt>
      <trkpt lat="45.58868" lon="2.99289">
        <ele>740.5</ele>
        <time>2021-08-26T13:30:13Z</time>
      </trkpt>
      <trkpt lat="45.58866" lon="2.99286">
        <ele>740.2</ele>
        <time>2021-08-26T13:30:15Z</time>
      </trkpt>
      <trkpt lat="45.58864" lon="2.99281">
        <ele>739.9</ele>
        <time>2021-08-26T13:30:17Z</time>
      </trkpt>
      <trkpt lat="45.58863" lon="2.99276">
        <ele>739.8</ele>
        <time>2021-08-26T13:30:19Z</time>
      </trkpt>
      <trkpt lat="45.58863" lon="2.99271">
        <ele>739.7</ele>
        <time>2021-08-26T13:30:21Z</time>
      </trkpt>
      <trkpt lat="45.58864" lon="2.99266">
        <ele>739.8</ele>
        <time>2021-08-26T13:30:23Z</time>
      </trkpt>
      <trkpt lat="45.58867" lon="2.99262">
        <ele>740</ele>
        <time>2021-08-26T13:30:25Z</time>
      </trkpt>
      <trkpt lat="45.5887" lon="2.99258">
        <ele>740.2</ele>
        <time>2021-08-26T13:30:27Z</time>
      </trkpt>
      <trkpt lat="45.58873" lon="2.99256">
        <ele>740.4</ele>
        <time>2021-08-26T13:30:29Z</time>
      </trkpt>
      <trkpt lat="45.58877" lon="2.99257">
        <ele>740.8</ele>
        <time>2021-08-26T13:30:31Z</time>
      </trkpt>
      <trkpt lat="45.58879" lon="2.99258">
        <ele>741</ele>
        <time>2021-08-26T13:30:33Z</time>
      </trkpt>
      <trkpt lat="45.58881" lon="2.99258">
        <ele>741.2</ele>
        <time>2021-08-26T13:30:35Z</time>
      </trkpt>
      <trkpt lat="45.58882" lon="2.99259">
        <ele>741.3</ele>
        <time>2021-08-26T13:30:37Z</time>
      </trkpt>
      <trkpt lat="45.58882" lon="2.99259">
        <ele>741.3</ele>
        <time>2021-08-26T13:30:39Z</time>
      </trkpt>
      <trkpt lat="45.58882" lon="2.99259">
        <ele>741.3</ele>
        <time>2021-08-26T13:30:41Z</time>
      </trkpt>
      <trkpt lat="45.58882" lon="2.99259">
        <ele>741.3</ele>
        <time>2021-08-26T13:30:43Z</time>
      </trkpt>
      <trkpt lat="45.58893" lon="2.99265">
        <ele>742.5</ele>
        <time>2021-08-26T13:31:33Z</time>
      </trkpt>
      <trkpt lat="45.58896" lon="2.99267">
        <ele>742.9</ele>
        <time>2021-08-26T13:31:35Z</time>
      </trkpt>
      <trkpt lat="45.589" lon="2.9927">
        <ele>743.3</ele>
        <time>2021-08-26T13:31:37Z</time>
      </trkpt>
      <trkpt lat="45.58903" lon="2.99272">
        <ele>743.7</ele>
        <time>2021-08-26T13:31:39Z</time>
      </trkpt>
      <trkpt lat="45.58906" lon="2.99273">
        <ele>744.1</ele>
        <time>2021-08-26T13:31:41Z</time>
      </trkpt>
      <trkpt lat="45.58909" lon="2.99275">
        <ele>744.5</ele>
        <time>2021-08-26T13:31:43Z</time>
      </trkpt>
      <trkpt lat="45.58913" lon="2.99276">
        <ele>744.9</ele>
        <time>2021-08-26T13:31:45Z</time>
      </trkpt>
      <trkpt lat="45.58916" lon="2.99278">
        <ele>745.3</ele>
        <time>2021-08-26T13:31:47Z</time>
      </trkpt>
      <trkpt lat="45.58919" lon="2.99281">
        <ele>745.6</ele>
        <time>2021-08-26T13:31:49Z</time>
      </trkpt>
      <trkpt lat="45.58923" lon="2.99282">
        <ele>745.8</ele>
        <time>2021-08-26T13:31:51Z</time>
      </trkpt>
      <trkpt lat="45.58926" lon="2.99283">
        <ele>746</ele>
        <time>2021-08-26T13:31:53Z</time>
      </trkpt>
      <trkpt lat="45.58929" lon="2.99285">
        <ele>746.3</ele>
        <time>2021-08-26T13:31:55Z</time>
      </trkpt>
      <trkpt lat="45.58932" lon="2.99287">
        <ele>746.6</ele>
        <time>2021-08-26T13:31:57Z</time>
      </trkpt>
      <trkpt lat="45.58935" lon="2.99288">
        <ele>746.8</ele>
        <time>2021-08-26T13:31:59Z</time>
      </trkpt>
      <trkpt lat="45.58939" lon="2.99288">
        <ele>747</ele>
        <time>2021-08-26T13:32:01Z</time>
      </trkpt>
      <trkpt lat="45.58942" lon="2.9929">
        <ele>747.2</ele>
        <time>2021-08-26T13:32:03Z</time>
      </trkpt>
      <trkpt lat="45.58945" lon="2.99291">
        <ele>747.5</ele>
        <time>2021-08-26T13:32:05Z</time>
      </trkpt>
      <trkpt lat="45.58948" lon="2.99293">
        <ele>747.8</ele>
        <time>2021-08-26T13:32:07Z</time>
      </trkpt>
      <trkpt lat="45.58951" lon="2.99295">
        <ele>748.1</ele>
        <time>2021-08-26T13:32:09Z</time>
      </trkpt>
      <trkpt lat="45.58954" lon="2.99297">
        <ele>748.4</ele>
        <time>2021-08-26T13:32:11Z</time>
      </trkpt>
      <trkpt lat="45.58957" lon="2.99299">
        <ele>748.8</ele>
        <time>2021-08-26T13:32:13Z</time>
      </trkpt>
      <trkpt lat="45.58959" lon="2.993">
        <ele>749</ele>
        <time>2021-08-26T13:32:15Z</time>
      </trkpt>
      <trkpt lat="45.58962" lon="2.99303">
        <ele>749.4</ele>
        <time>2021-08-26T13:32:17Z</time>
      </trkpt>
      <trkpt lat="45.58965" lon="2.99306">
        <ele>749.8</ele>
        <time>2021-08-26T13:32:19Z</time>
      </trkpt>
      <trkpt lat="45.58968" lon="2.99308">
        <ele>750.2</ele>
        <time>2021-08-26T13:32:21Z</time>
      </trkpt>
      <trkpt lat="45.5897" lon="2.99311">
        <ele>750.5</ele>
        <time>2021-08-26T13:32:23Z</time>
      </trkpt>
      <trkpt lat="45.58973" lon="2.99313">
        <ele>751</ele>
        <time>2021-08-26T13:32:25Z</time>
      </trkpt>
      <trkpt lat="45.58976" lon="2.99317">
        <ele>751.5</ele>
        <time>2021-08-26T13:32:27Z</time>
      </trkpt>
      <trkpt lat="45.58979" lon="2.9932">
        <ele>752</ele>
        <time>2021-08-26T13:32:29Z</time>
      </trkpt>
      <trkpt lat="45.58982" lon="2.99323">
        <ele>752.5</ele>
        <time>2021-08-26T13:32:31Z</time>
      </trkpt>
      <trkpt lat="45.58986" lon="2.99325">
        <ele>753</ele>
        <time>2021-08-26T13:32:33Z</time>
      </trkpt>
      <trkpt lat="45.58989" lon="2.99328">
        <ele>753.5</ele>
        <time>2021-08-26T13:32:35Z</time>
      </trkpt>
      <trkpt lat="45.58992" lon="2.99331">
        <ele>754.1</ele>
        <time>2021-08-26T13:32:37Z</time>
      </trkpt>
      <trkpt lat="45.58996" lon="2.99335">
        <ele>754.7</ele>
        <time>2021-08-26T13:32:39Z</time>
      </trkpt>
      <trkpt lat="45.58999" lon="2.99338">
        <ele>755.1</ele>
        <time>2021-08-26T13:32:41Z</time>
      </trkpt>
      <trkpt lat="45.59003" lon="2.9934">
        <ele>755.4</ele>
        <time>2021-08-26T13:32:43Z</time>
      </trkpt>
      <trkpt lat="45.59007" lon="2.99343">
        <ele>755.8</ele>
        <time>2021-08-26T13:32:45Z</time>
      </trkpt>
      <trkpt lat="45.5901" lon="2.99348">
        <ele>756.2</ele>
        <time>2021-08-26T13:32:47Z</time>
      </trkpt>
      <trkpt lat="45.59013" lon="2.99352">
        <ele>756.5</ele>
        <time>2021-08-26T13:32:49Z</time>
      </trkpt>
      <trkpt lat="45.59016" lon="2.99357">
        <ele>756.9</ele>
        <time>2021-08-26T13:32:51Z</time>
      </trkpt>
      <trkpt lat="45.5902" lon="2.99361">
        <ele>757.3</ele>
        <time>2021-08-26T13:32:53Z</time>
      </trkpt>
      <trkpt lat="45.59023" lon="2.99365">
        <ele>757.7</ele>
        <time>2021-08-26T13:32:55Z</time>
      </trkpt>
      <trkpt lat="45.59026" lon="2.99369">
        <ele>758.1</ele>
        <time>2021-08-26T13:32:57Z</time>
      </trkpt>
      <trkpt lat="45.5903" lon="2.99374">
        <ele>758.6</ele>
        <time>2021-08-26T13:32:59Z</time>
      </trkpt>
      <trkpt lat="45.59033" lon="2.99377">
        <ele>758.9</ele>
        <time>2021-08-26T13:33:01Z</time>
      </trkpt>
      <trkpt lat="45.59037" lon="2.99382">
        <ele>759.3</ele>
        <time>2021-08-26T13:33:03Z</time>
      </trkpt>
      <trkpt lat="45.5904" lon="2.99386">
        <ele>759.7</ele>
        <time>2021-08-26T13:33:05Z</time>
      </trkpt>
      <trkpt lat="45.59044" lon="2.99388">
        <ele>760.1</ele>
        <time>2021-08-26T13:33:07Z</time>
      </trkpt>
      <trkpt lat="45.59047" lon="2.99391">
        <ele>760.4</ele>
        <time>2021-08-26T13:33:09Z</time>
      </trkpt>
      <trkpt lat="45.5905" lon="2.99394">
        <ele>760.7</ele>
        <time>2021-08-26T13:33:11Z</time>
      </trkpt>
      <trkpt lat="45.59053" lon="2.99396">
        <ele>761.1</ele>
        <time>2021-08-26T13:33:13Z</time>
      </trkpt>
      <trkpt lat="45.59057" lon="2.99399">
        <ele>761.4</ele>
        <time>2021-08-26T13:33:15Z</time>
      </trkpt>
      <trkpt lat="45.5906" lon="2.99403">
        <ele>761.8</ele>
        <time>2021-08-26T13:33:17Z</time>
      </trkpt>
      <trkpt lat="45.59064" lon="2.99406">
        <ele>762.2</ele>
        <time>2021-08-26T13:33:19Z</time>
      </trkpt>
      <trkpt lat="45.59067" lon="2.99409">
        <ele>762.6</ele>
        <time>2021-08-26T13:33:21Z</time>
      </trkpt>
      <trkpt lat="45.59072" lon="2.99411">
        <ele>763</ele>
        <time>2021-08-26T13:33:23Z</time>
      </trkpt>
      <trkpt lat="45.59076" lon="2.99413">
        <ele>763.3</ele>
        <time>2021-08-26T13:33:25Z</time>
      </trkpt>
      <trkpt lat="45.5908" lon="2.99413">
        <ele>763.6</ele>
        <time>2021-08-26T13:33:27Z</time>
      </trkpt>
      <trkpt lat="45.59085" lon="2.99412">
        <ele>763.8</ele>
        <time>2021-08-26T13:33:29Z</time>
      </trkpt>
      <trkpt lat="45.59088" lon="2.9941">
        <ele>764</ele>
        <time>2021-08-26T13:33:31Z</time>
      </trkpt>
      <trkpt lat="45.59093" lon="2.99407">
        <ele>764.3</ele>
        <time>2021-08-26T13:33:33Z</time>
      </trkpt>
      <trkpt lat="45.59097" lon="2.99406">
        <ele>764.5</ele>
        <time>2021-08-26T13:33:35Z</time>
      </trkpt>
      <trkpt lat="45.59101" lon="2.99402">
        <ele>764.7</ele>
        <time>2021-08-26T13:33:37Z</time>
      </trkpt>
      <trkpt lat="45.59104" lon="2.994">
        <ele>764.8</ele>
        <time>2021-08-26T13:33:39Z</time>
      </trkpt>
      <trkpt lat="45.59108" lon="2.99399">
        <ele>765.1</ele>
        <time>2021-08-26T13:33:41Z</time>
      </trkpt>
      <trkpt lat="45.59111" lon="2.99396">
        <ele>765.2</ele>
        <time>2021-08-26T13:33:43Z</time>
      </trkpt>
      <trkpt lat="45.59115" lon="2.99394">
        <ele>765.4</ele>
        <time>2021-08-26T13:33:45Z</time>
      </trkpt>
      <trkpt lat="45.59119" lon="2.99391">
        <ele>765.6</ele>
        <time>2021-08-26T13:33:47Z</time>
      </trkpt>
      <trkpt lat="45.59122" lon="2.99389">
        <ele>765.8</ele>
        <time>2021-08-26T13:33:49Z</time>
      </trkpt>
      <trkpt lat="45.59125" lon="2.99387">
        <ele>765.9</ele>
        <time>2021-08-26T13:33:51Z</time>
      </trkpt>
      <trkpt lat="45.59128" lon="2.99385">
        <ele>766.1</ele>
        <time>2021-08-26T13:33:53Z</time>
      </trkpt>
      <trkpt lat="45.59131" lon="2.99382">
        <ele>766.2</ele>
        <time>2021-08-26T13:33:55Z</time>
      </trkpt>
      <trkpt lat="45.59135" lon="2.9938">
        <ele>766.4</ele>
        <time>2021-08-26T13:33:57Z</time>
      </trkpt>
      <trkpt lat="45.5914" lon="2.99376">
        <ele>766.6</ele>
        <time>2021-08-26T13:33:59Z</time>
      </trkpt>
      <trkpt lat="45.59142" lon="2.99373">
        <ele>766.7</ele>
        <time>2021-08-26T13:34:01Z</time>
      </trkpt>
      <trkpt lat="45.59145" lon="2.9937">
        <ele>766.7</ele>
        <time>2021-08-26T13:34:03Z</time>
      </trkpt>
      <trkpt lat="45.59147" lon="2.99366">
        <ele>766.8</ele>
        <time>2021-08-26T13:34:05Z</time>
      </trkpt>
      <trkpt lat="45.59149" lon="2.99363">
        <ele>766.9</ele>
        <time>2021-08-26T13:34:07Z</time>
      </trkpt>
      <trkpt lat="45.59152" lon="2.9936">
        <ele>766.9</ele>
        <time>2021-08-26T13:34:09Z</time>
      </trkpt>
      <trkpt lat="45.59155" lon="2.99356">
        <ele>767</ele>
        <time>2021-08-26T13:34:11Z</time>
      </trkpt>
      <trkpt lat="45.59157" lon="2.99353">
        <ele>767</ele>
        <time>2021-08-26T13:34:13Z</time>
      </trkpt>
      <trkpt lat="45.5916" lon="2.9935">
        <ele>767.1</ele>
        <time>2021-08-26T13:34:15Z</time>
      </trkpt>
      <trkpt lat="45.59162" lon="2.99347">
        <ele>767.2</ele>
        <time>2021-08-26T13:34:17Z</time>
      </trkpt>
      <trkpt lat="45.59165" lon="2.99345">
        <ele>767.4</ele>
        <time>2021-08-26T13:34:19Z</time>
      </trkpt>
      <trkpt lat="45.59167" lon="2.99342">
        <ele>767.6</ele>
        <time>2021-08-26T13:34:21Z</time>
      </trkpt>
      <trkpt lat="45.5917" lon="2.99339">
        <ele>767.8</ele>
        <time>2021-08-26T13:34:23Z</time>
      </trkpt>
      <trkpt lat="45.59173" lon="2.99336">
        <ele>768.1</ele>
        <time>2021-08-26T13:34:25Z</time>
      </trkpt>
      <trkpt lat="45.59176" lon="2.99334">
        <ele>768.4</ele>
        <time>2021-08-26T13:34:27Z</time>
      </trkpt>
      <trkpt lat="45.59179" lon="2.99331">
        <ele>768.6</ele>
        <time>2021-08-26T13:34:29Z</time>
      </trkpt>
      <trkpt lat="45.59182" lon="2.99328">
        <ele>768.8</ele>
        <time>2021-08-26T13:34:31Z</time>
      </trkpt>
      <trkpt lat="45.59185" lon="2.99324">
        <ele>768.8</ele>
        <time>2021-08-26T13:34:33Z</time>
      </trkpt>
      <trkpt lat="45.59187" lon="2.99321">
        <ele>769</ele>
        <time>2021-08-26T13:34:35Z</time>
      </trkpt>
      <trkpt lat="45.5919" lon="2.99318">
        <ele>769.1</ele>
        <time>2021-08-26T13:34:37Z</time>
      </trkpt>
      <trkpt lat="45.59192" lon="2.99315">
        <ele>769.2</ele>
        <time>2021-08-26T13:34:39Z</time>
      </trkpt>
      <trkpt lat="45.59195" lon="2.99312">
        <ele>769.3</ele>
        <time>2021-08-26T13:34:41Z</time>
      </trkpt>
      <trkpt lat="45.59197" lon="2.99309">
        <ele>769.4</ele>
        <time>2021-08-26T13:34:43Z</time>
      </trkpt>
      <trkpt lat="45.59199" lon="2.99306">
        <ele>769.5</ele>
        <time>2021-08-26T13:34:45Z</time>
      </trkpt>
      <trkpt lat="45.59202" lon="2.99303">
        <ele>769.6</ele>
        <time>2021-08-26T13:34:47Z</time>
      </trkpt>
      <trkpt lat="45.59205" lon="2.99298">
        <ele>769.7</ele>
        <time>2021-08-26T13:34:49Z</time>
      </trkpt>
      <trkpt lat="45.59208" lon="2.99295">
        <ele>769.9</ele>
        <time>2021-08-26T13:34:51Z</time>
      </trkpt>
      <trkpt lat="45.59211" lon="2.99292">
        <ele>770.2</ele>
        <time>2021-08-26T13:34:53Z</time>
      </trkpt>
      <trkpt lat="45.59214" lon="2.99289">
        <ele>770.3</ele>
        <time>2021-08-26T13:34:55Z</time>
      </trkpt>
      <trkpt lat="45.59216" lon="2.99286">
        <ele>770.5</ele>
        <time>2021-08-26T13:34:57Z</time>
      </trkpt>
      <trkpt lat="45.59219" lon="2.99283">
        <ele>770.7</ele>
        <time>2021-08-26T13:34:59Z</time>
      </trkpt>
      <trkpt lat="45.59222" lon="2.99281">
        <ele>771</ele>
        <time>2021-08-26T13:35:01Z</time>
      </trkpt>
      <trkpt lat="45.59225" lon="2.99279">
        <ele>771.3</ele>
        <time>2021-08-26T13:35:03Z</time>
      </trkpt>
      <trkpt lat="45.59228" lon="2.99277">
        <ele>771.6</ele>
        <time>2021-08-26T13:35:05Z</time>
      </trkpt>
      <trkpt lat="45.59232" lon="2.99275">
        <ele>772</ele>
        <time>2021-08-26T13:35:07Z</time>
      </trkpt>
      <trkpt lat="45.59235" lon="2.99274">
        <ele>772.4</ele>
        <time>2021-08-26T13:35:09Z</time>
      </trkpt>
      <trkpt lat="45.59239" lon="2.99272">
        <ele>772.8</ele>
        <time>2021-08-26T13:35:11Z</time>
      </trkpt>
      <trkpt lat="45.59242" lon="2.9927">
        <ele>773.2</ele>
        <time>2021-08-26T13:35:13Z</time>
      </trkpt>
      <trkpt lat="45.59246" lon="2.99269">
        <ele>773.7</ele>
        <time>2021-08-26T13:35:15Z</time>
      </trkpt>
      <trkpt lat="45.59249" lon="2.99269">
        <ele>774.2</ele>
        <time>2021-08-26T13:35:17Z</time>
      </trkpt>
      <trkpt lat="45.59252" lon="2.99268">
        <ele>774.6</ele>
        <time>2021-08-26T13:35:19Z</time>
      </trkpt>
      <trkpt lat="45.59256" lon="2.99268">
        <ele>775.1</ele>
        <time>2021-08-26T13:35:21Z</time>
      </trkpt>
      <trkpt lat="45.59259" lon="2.99269">
        <ele>775.6</ele>
        <time>2021-08-26T13:35:23Z</time>
      </trkpt>
      <trkpt lat="45.59262" lon="2.99269">
        <ele>776.2</ele>
        <time>2021-08-26T13:35:25Z</time>
      </trkpt>
      <trkpt lat="45.59266" lon="2.9927">
        <ele>776.7</ele>
        <time>2021-08-26T13:35:27Z</time>
      </trkpt>
      <trkpt lat="45.59269" lon="2.99271">
        <ele>777.3</ele>
        <time>2021-08-26T13:35:29Z</time>
      </trkpt>
      <trkpt lat="45.59272" lon="2.99272">
        <ele>777.9</ele>
        <time>2021-08-26T13:35:31Z</time>
      </trkpt>
      <trkpt lat="45.59276" lon="2.99273">
        <ele>778.5</ele>
        <time>2021-08-26T13:35:33Z</time>
      </trkpt>
      <trkpt lat="45.59279" lon="2.99274">
        <ele>779</ele>
        <time>2021-08-26T13:35:35Z</time>
      </trkpt>
      <trkpt lat="45.59283" lon="2.99274">
        <ele>779.5</ele>
        <time>2021-08-26T13:35:37Z</time>
      </trkpt>
      <trkpt lat="45.59286" lon="2.99275">
        <ele>780.1</ele>
        <time>2021-08-26T13:35:39Z</time>
      </trkpt>
      <trkpt lat="45.59289" lon="2.99275">
        <ele>780.6</ele>
        <time>2021-08-26T13:35:41Z</time>
      </trkpt>
      <trkpt lat="45.59293" lon="2.99275">
        <ele>781.1</ele>
        <time>2021-08-26T13:35:43Z</time>
      </trkpt>
      <trkpt lat="45.59297" lon="2.99274">
        <ele>781.7</ele>
        <time>2021-08-26T13:35:45Z</time>
      </trkpt>
      <trkpt lat="45.593" lon="2.99272">
        <ele>782</ele>
        <time>2021-08-26T13:35:47Z</time>
      </trkpt>
      <trkpt lat="45.59304" lon="2.9927">
        <ele>782.3</ele>
        <time>2021-08-26T13:35:49Z</time>
      </trkpt>
      <trkpt lat="45.59307" lon="2.99268">
        <ele>782.6</ele>
        <time>2021-08-26T13:35:51Z</time>
      </trkpt>
      <trkpt lat="45.5931" lon="2.99266">
        <ele>782.9</ele>
        <time>2021-08-26T13:35:53Z</time>
      </trkpt>
      <trkpt lat="45.59314" lon="2.99263">
        <ele>783.2</ele>
        <time>2021-08-26T13:35:55Z</time>
      </trkpt>
      <trkpt lat="45.59317" lon="2.9926">
        <ele>783.5</ele>
        <time>2021-08-26T13:35:57Z</time>
      </trkpt>
      <trkpt lat="45.59321" lon="2.99257">
        <ele>783.8</ele>
        <time>2021-08-26T13:35:59Z</time>
      </trkpt>
      <trkpt lat="45.59324" lon="2.99254">
        <ele>784</ele>
        <time>2021-08-26T13:36:01Z</time>
      </trkpt>
      <trkpt lat="45.59327" lon="2.99251">
        <ele>784.2</ele>
        <time>2021-08-26T13:36:03Z</time>
      </trkpt>
      <trkpt lat="45.5933" lon="2.99247">
        <ele>784.3</ele>
        <time>2021-08-26T13:36:05Z</time>
      </trkpt>
      <trkpt lat="45.59333" lon="2.99244">
        <ele>784.4</ele>
        <time>2021-08-26T13:36:07Z</time>
      </trkpt>
      <trkpt lat="45.59336" lon="2.99241">
        <ele>784.8</ele>
        <time>2021-08-26T13:36:09Z</time>
      </trkpt>
      <trkpt lat="45.59339" lon="2.99237">
        <ele>785</ele>
        <time>2021-08-26T13:36:11Z</time>
      </trkpt>
      <trkpt lat="45.59342" lon="2.99233">
        <ele>785.2</ele>
        <time>2021-08-26T13:36:13Z</time>
      </trkpt>
      <trkpt lat="45.59344" lon="2.9923">
        <ele>785.4</ele>
        <time>2021-08-26T13:36:15Z</time>
      </trkpt>
      <trkpt lat="45.59347" lon="2.99226">
        <ele>785.6</ele>
        <time>2021-08-26T13:36:17Z</time>
      </trkpt>
      <trkpt lat="45.5935" lon="2.99223">
        <ele>785.9</ele>
        <time>2021-08-26T13:36:19Z</time>
      </trkpt>
      <trkpt lat="45.59353" lon="2.99218">
        <ele>786.2</ele>
        <time>2021-08-26T13:36:21Z</time>
      </trkpt>
      <trkpt lat="45.59356" lon="2.99215">
        <ele>786.5</ele>
        <time>2021-08-26T13:36:23Z</time>
      </trkpt>
      <trkpt lat="45.59359" lon="2.99211">
        <ele>786.7</ele>
        <time>2021-08-26T13:36:25Z</time>
      </trkpt>
      <trkpt lat="45.59362" lon="2.99207">
        <ele>786.9</ele>
        <time>2021-08-26T13:36:27Z</time>
      </trkpt>
      <trkpt lat="45.59365" lon="2.99203">
        <ele>787.1</ele>
        <time>2021-08-26T13:36:29Z</time>
      </trkpt>
      <trkpt lat="45.59368" lon="2.992">
        <ele>787.4</ele>
        <time>2021-08-26T13:36:31Z</time>
      </trkpt>
      <trkpt lat="45.59371" lon="2.99196">
        <ele>787.7</ele>
        <time>2021-08-26T13:36:33Z</time>
      </trkpt>
      <trkpt lat="45.59374" lon="2.99193">
        <ele>787.9</ele>
        <time>2021-08-26T13:36:35Z</time>
      </trkpt>
      <trkpt lat="45.59376" lon="2.99189">
        <ele>788.2</ele>
        <time>2021-08-26T13:36:37Z</time>
      </trkpt>
      <trkpt lat="45.5938" lon="2.99186">
        <ele>788.6</ele>
        <time>2021-08-26T13:36:39Z</time>
      </trkpt>
      <trkpt lat="45.59383" lon="2.99183">
        <ele>789</ele>
        <time>2021-08-26T13:36:41Z</time>
      </trkpt>
      <trkpt lat="45.59387" lon="2.9918">
        <ele>789.4</ele>
        <time>2021-08-26T13:36:43Z</time>
      </trkpt>
      <trkpt lat="45.5939" lon="2.99179">
        <ele>789.9</ele>
        <time>2021-08-26T13:36:45Z</time>
      </trkpt>
      <trkpt lat="45.59393" lon="2.99179">
        <ele>790.6</ele>
        <time>2021-08-26T13:36:47Z</time>
      </trkpt>
      <trkpt lat="45.59397" lon="2.9918">
        <ele>791.4</ele>
        <time>2021-08-26T13:36:49Z</time>
      </trkpt>
      <trkpt lat="45.594" lon="2.99181">
        <ele>791.9</ele>
        <time>2021-08-26T13:36:51Z</time>
      </trkpt>
      <trkpt lat="45.59403" lon="2.99183">
        <ele>792.7</ele>
        <time>2021-08-26T13:36:53Z</time>
      </trkpt>
      <trkpt lat="45.59406" lon="2.99186">
        <ele>793.5</ele>
        <time>2021-08-26T13:36:55Z</time>
      </trkpt>
      <trkpt lat="45.59408" lon="2.99191">
        <ele>794.4</ele>
        <time>2021-08-26T13:36:57Z</time>
      </trkpt>
      <trkpt lat="45.59411" lon="2.99196">
        <ele>795.3</ele>
        <time>2021-08-26T13:36:59Z</time>
      </trkpt>
      <trkpt lat="45.59412" lon="2.992">
        <ele>796</ele>
        <time>2021-08-26T13:37:01Z</time>
      </trkpt>
      <trkpt lat="45.59412" lon="2.99206">
        <ele>796.5</ele>
        <time>2021-08-26T13:37:03Z</time>
      </trkpt>
      <trkpt lat="45.59413" lon="2.99211">
        <ele>797</ele>
        <time>2021-08-26T13:37:05Z</time>
      </trkpt>
      <trkpt lat="45.59412" lon="2.99215">
        <ele>797.2</ele>
        <time>2021-08-26T13:37:07Z</time>
      </trkpt>
      <trkpt lat="45.59411" lon="2.9922">
        <ele>797.4</ele>
        <time>2021-08-26T13:37:09Z</time>
      </trkpt>
      <trkpt lat="45.59409" lon="2.99224">
        <ele>797.3</ele>
        <time>2021-08-26T13:37:11Z</time>
      </trkpt>
      <trkpt lat="45.59406" lon="2.99229">
        <ele>797.2</ele>
        <time>2021-08-26T13:37:13Z</time>
      </trkpt>
      <trkpt lat="45.59403" lon="2.99232">
        <ele>796.9</ele>
        <time>2021-08-26T13:37:15Z</time>
      </trkpt>
      <trkpt lat="45.59399" lon="2.99236">
        <ele>796.5</ele>
        <time>2021-08-26T13:37:17Z</time>
      </trkpt>
      <trkpt lat="45.59396" lon="2.99239">
        <ele>796</ele>
        <time>2021-08-26T13:37:19Z</time>
      </trkpt>
      <trkpt lat="45.59393" lon="2.99241">
        <ele>795.7</ele>
        <time>2021-08-26T13:37:21Z</time>
      </trkpt>
      <trkpt lat="45.5939" lon="2.99245">
        <ele>795.5</ele>
        <time>2021-08-26T13:37:23Z</time>
      </trkpt>
      <trkpt lat="45.59387" lon="2.99249">
        <ele>795.2</ele>
        <time>2021-08-26T13:37:25Z</time>
      </trkpt>
      <trkpt lat="45.59384" lon="2.99254">
        <ele>794.9</ele>
        <time>2021-08-26T13:37:27Z</time>
      </trkpt>
      <trkpt lat="45.59381" lon="2.9926">
        <ele>794.9</ele>
        <time>2021-08-26T13:37:29Z</time>
      </trkpt>
      <trkpt lat="45.59379" lon="2.99267">
        <ele>795</ele>
        <time>2021-08-26T13:37:31Z</time>
      </trkpt>
      <trkpt lat="45.59378" lon="2.99273">
        <ele>795.3</ele>
        <time>2021-08-26T13:37:33Z</time>
      </trkpt>
      <trkpt lat="45.59377" lon="2.9928">
        <ele>795.7</ele>
        <time>2021-08-26T13:37:35Z</time>
      </trkpt>
      <trkpt lat="45.59376" lon="2.99286">
        <ele>796.1</ele>
        <time>2021-08-26T13:37:37Z</time>
      </trkpt>
      <trkpt lat="45.59376" lon="2.99292">
        <ele>796.5</ele>
        <time>2021-08-26T13:37:39Z</time>
      </trkpt>
      <trkpt lat="45.59376" lon="2.99299">
        <ele>796.9</ele>
        <time>2021-08-26T13:37:41Z</time>
      </trkpt>
      <trkpt lat="45.59375" lon="2.99305">
        <ele>797.4</ele>
        <time>2021-08-26T13:37:43Z</time>
      </trkpt>
      <trkpt lat="45.59375" lon="2.99311">
        <ele>797.8</ele>
        <time>2021-08-26T13:37:45Z</time>
      </trkpt>
      <trkpt lat="45.59375" lon="2.99317">
        <ele>798.2</ele>
        <time>2021-08-26T13:37:47Z</time>
      </trkpt>
      <trkpt lat="45.59374" lon="2.99324">
        <ele>798.6</ele>
        <time>2021-08-26T13:37:49Z</time>
      </trkpt>
      <trkpt lat="45.59374" lon="2.99329">
        <ele>798.9</ele>
        <time>2021-08-26T13:37:51Z</time>
      </trkpt>
      <trkpt lat="45.59373" lon="2.99334">
        <ele>799.3</ele>
        <time>2021-08-26T13:37:53Z</time>
      </trkpt>
      <trkpt lat="45.59373" lon="2.9934">
        <ele>799.6</ele>
        <time>2021-08-26T13:37:55Z</time>
      </trkpt>
      <trkpt lat="45.59373" lon="2.99345">
        <ele>799.9</ele>
        <time>2021-08-26T13:37:57Z</time>
      </trkpt>
      <trkpt lat="45.59372" lon="2.9935">
        <ele>800.3</ele>
        <time>2021-08-26T13:37:59Z</time>
      </trkpt>
      <trkpt lat="45.59372" lon="2.99356">
        <ele>800.6</ele>
        <time>2021-08-26T13:38:01Z</time>
      </trkpt>
      <trkpt lat="45.59372" lon="2.99361">
        <ele>800.9</ele>
        <time>2021-08-26T13:38:03Z</time>
      </trkpt>
      <trkpt lat="45.59371" lon="2.99367">
        <ele>801.3</ele>
        <time>2021-08-26T13:38:05Z</time>
      </trkpt>
      <trkpt lat="45.59371" lon="2.99373">
        <ele>801.6</ele>
        <time>2021-08-26T13:38:07Z</time>
      </trkpt>
      <trkpt lat="45.59371" lon="2.99378">
        <ele>802</ele>
        <time>2021-08-26T13:38:09Z</time>
      </trkpt>
      <trkpt lat="45.59371" lon="2.99384">
        <ele>802.4</ele>
        <time>2021-08-26T13:38:11Z</time>
      </trkpt>
      <trkpt lat="45.5937" lon="2.99389">
        <ele>802.7</ele>
        <time>2021-08-26T13:38:13Z</time>
      </trkpt>
      <trkpt lat="45.5937" lon="2.99395">
        <ele>803.1</ele>
        <time>2021-08-26T13:38:15Z</time>
      </trkpt>
      <trkpt lat="45.5937" lon="2.99399">
        <ele>803.4</ele>
        <time>2021-08-26T13:38:17Z</time>
      </trkpt>
      <trkpt lat="45.5937" lon="2.99404">
        <ele>803.6</ele>
        <time>2021-08-26T13:38:19Z</time>
      </trkpt>
      <trkpt lat="45.59369" lon="2.99409">
        <ele>803.9</ele>
        <time>2021-08-26T13:38:21Z</time>
      </trkpt>
      <trkpt lat="45.59369" lon="2.99415">
        <ele>804.3</ele>
        <time>2021-08-26T13:38:23Z</time>
      </trkpt>
      <trkpt lat="45.59368" lon="2.9942">
        <ele>804.5</ele>
        <time>2021-08-26T13:38:25Z</time>
      </trkpt>
      <trkpt lat="45.59368" lon="2.99426">
        <ele>804.7</ele>
        <time>2021-08-26T13:38:27Z</time>
      </trkpt>
      <trkpt lat="45.59367" lon="2.99432">
        <ele>804.9</ele>
        <time>2021-08-26T13:38:29Z</time>
      </trkpt>
      <trkpt lat="45.59367" lon="2.99438">
        <ele>805.1</ele>
        <time>2021-08-26T13:38:31Z</time>
      </trkpt>
      <trkpt lat="45.59367" lon="2.99444">
        <ele>805.3</ele>
        <time>2021-08-26T13:38:33Z</time>
      </trkpt>
      <trkpt lat="45.59367" lon="2.99449">
        <ele>805.6</ele>
        <time>2021-08-26T13:38:35Z</time>
      </trkpt>
      <trkpt lat="45.59366" lon="2.99455">
        <ele>805.7</ele>
        <time>2021-08-26T13:38:37Z</time>
      </trkpt>
      <trkpt lat="45.59366" lon="2.9946">
        <ele>805.9</ele>
        <time>2021-08-26T13:38:39Z</time>
      </trkpt>
      <trkpt lat="45.59366" lon="2.99465">
        <ele>806.1</ele>
        <time>2021-08-26T13:38:41Z</time>
      </trkpt>
      <trkpt lat="45.59365" lon="2.9947">
        <ele>806.2</ele>
        <time>2021-08-26T13:38:43Z</time>
      </trkpt>
      <trkpt lat="45.59365" lon="2.99476">
        <ele>806.3</ele>
        <time>2021-08-26T13:38:45Z</time>
      </trkpt>
      <trkpt lat="45.59365" lon="2.99481">
        <ele>806.6</ele>
        <time>2021-08-26T13:38:47Z</time>
      </trkpt>
      <trkpt lat="45.59364" lon="2.99487">
        <ele>806.7</ele>
        <time>2021-08-26T13:38:49Z</time>
      </trkpt>
      <trkpt lat="45.59364" lon="2.99492">
        <ele>806.8</ele>
        <time>2021-08-26T13:38:51Z</time>
      </trkpt>
      <trkpt lat="45.59364" lon="2.99497">
        <ele>806.9</ele>
        <time>2021-08-26T13:38:53Z</time>
      </trkpt>
      <trkpt lat="45.59362" lon="2.99502">
        <ele>807</ele>
        <time>2021-08-26T13:38:55Z</time>
      </trkpt>
      <trkpt lat="45.59362" lon="2.99507">
        <ele>807.5</ele>
        <time>2021-08-26T13:38:57Z</time>
      </trkpt>
      <trkpt lat="45.59361" lon="2.99513">
        <ele>808</ele>
        <time>2021-08-26T13:38:59Z</time>
      </trkpt>
      <trkpt lat="45.5936" lon="2.99517">
        <ele>808.4</ele>
        <time>2021-08-26T13:39:01Z</time>
      </trkpt>
      <trkpt lat="45.59359" lon="2.99522">
        <ele>808.8</ele>
        <time>2021-08-26T13:39:03Z</time>
      </trkpt>
      <trkpt lat="45.59359" lon="2.99527">
        <ele>809.4</ele>
        <time>2021-08-26T13:39:05Z</time>
      </trkpt>
      <trkpt lat="45.5936" lon="2.99533">
        <ele>810.2</ele>
        <time>2021-08-26T13:39:07Z</time>
      </trkpt>
      <trkpt lat="45.59358" lon="2.99538">
        <ele>810.3</ele>
        <time>2021-08-26T13:39:09Z</time>
      </trkpt>
      <trkpt lat="45.59357" lon="2.99543">
        <ele>810.7</ele>
        <time>2021-08-26T13:39:11Z</time>
      </trkpt>
      <trkpt lat="45.59356" lon="2.99548">
        <ele>811.1</ele>
        <time>2021-08-26T13:39:13Z</time>
      </trkpt>
      <trkpt lat="45.59355" lon="2.99553">
        <ele>811.5</ele>
        <time>2021-08-26T13:39:15Z</time>
      </trkpt>
      <trkpt lat="45.59354" lon="2.99558">
        <ele>811.9</ele>
        <time>2021-08-26T13:39:17Z</time>
      </trkpt>
      <trkpt lat="45.59353" lon="2.99563">
        <ele>812.3</ele>
        <time>2021-08-26T13:39:19Z</time>
      </trkpt>
      <trkpt lat="45.59352" lon="2.99569">
        <ele>812.6</ele>
        <time>2021-08-26T13:39:21Z</time>
      </trkpt>
      <trkpt lat="45.59351" lon="2.99574">
        <ele>812.9</ele>
        <time>2021-08-26T13:39:23Z</time>
      </trkpt>
      <trkpt lat="45.5935" lon="2.99577">
        <ele>813.1</ele>
        <time>2021-08-26T13:39:25Z</time>
      </trkpt>
      <trkpt lat="45.59348" lon="2.99582">
        <ele>813.3</ele>
        <time>2021-08-26T13:39:27Z</time>
      </trkpt>
      <trkpt lat="45.59346" lon="2.99587">
        <ele>813.4</ele>
        <time>2021-08-26T13:39:29Z</time>
      </trkpt>
      <trkpt lat="45.59345" lon="2.99591">
        <ele>813.4</ele>
        <time>2021-08-26T13:39:31Z</time>
      </trkpt>
      <trkpt lat="45.59343" lon="2.99596">
        <ele>813.5</ele>
        <time>2021-08-26T13:39:33Z</time>
      </trkpt>
      <trkpt lat="45.59341" lon="2.99601">
        <ele>813.4</ele>
        <time>2021-08-26T13:39:35Z</time>
      </trkpt>
      <trkpt lat="45.59339" lon="2.99606">
        <ele>813.5</ele>
        <time>2021-08-26T13:39:37Z</time>
      </trkpt>
      <trkpt lat="45.59337" lon="2.99612">
        <ele>813.5</ele>
        <time>2021-08-26T13:39:39Z</time>
      </trkpt>
      <trkpt lat="45.59335" lon="2.99617">
        <ele>813.5</ele>
        <time>2021-08-26T13:39:41Z</time>
      </trkpt>
      <trkpt lat="45.59333" lon="2.99621">
        <ele>813.5</ele>
        <time>2021-08-26T13:39:43Z</time>
      </trkpt>
      <trkpt lat="45.59331" lon="2.99627">
        <ele>813.7</ele>
        <time>2021-08-26T13:39:45Z</time>
      </trkpt>
      <trkpt lat="45.59329" lon="2.99631">
        <ele>813.7</ele>
        <time>2021-08-26T13:39:47Z</time>
      </trkpt>
      <trkpt lat="45.59328" lon="2.99636">
        <ele>814.1</ele>
        <time>2021-08-26T13:39:49Z</time>
      </trkpt>
      <trkpt lat="45.59326" lon="2.99641">
        <ele>814.2</ele>
        <time>2021-08-26T13:39:51Z</time>
      </trkpt>
      <trkpt lat="45.59325" lon="2.99646">
        <ele>814.4</ele>
        <time>2021-08-26T13:39:53Z</time>
      </trkpt>
      <trkpt lat="45.59323" lon="2.9965">
        <ele>814.6</ele>
        <time>2021-08-26T13:39:55Z</time>
      </trkpt>
      <trkpt lat="45.59322" lon="2.99655">
        <ele>814.8</ele>
        <time>2021-08-26T13:39:57Z</time>
      </trkpt>
      <trkpt lat="45.59321" lon="2.9966">
        <ele>815.1</ele>
        <time>2021-08-26T13:39:59Z</time>
      </trkpt>
      <trkpt lat="45.5932" lon="2.99665">
        <ele>815.5</ele>
        <time>2021-08-26T13:40:01Z</time>
      </trkpt>
      <trkpt lat="45.5932" lon="2.99671">
        <ele>816</ele>
        <time>2021-08-26T13:40:03Z</time>
      </trkpt>
      <trkpt lat="45.59319" lon="2.99676">
        <ele>816.3</ele>
        <time>2021-08-26T13:40:05Z</time>
      </trkpt>
      <trkpt lat="45.59319" lon="2.9968">
        <ele>816.7</ele>
        <time>2021-08-26T13:40:07Z</time>
      </trkpt>
      <trkpt lat="45.59319" lon="2.99686">
        <ele>817.2</ele>
        <time>2021-08-26T13:40:09Z</time>
      </trkpt>
      <trkpt lat="45.59319" lon="2.99691">
        <ele>817.7</ele>
        <time>2021-08-26T13:40:11Z</time>
      </trkpt>
      <trkpt lat="45.59318" lon="2.99696">
        <ele>818.1</ele>
        <time>2021-08-26T13:40:13Z</time>
      </trkpt>
      <trkpt lat="45.59318" lon="2.99701">
        <ele>818.5</ele>
        <time>2021-08-26T13:40:15Z</time>
      </trkpt>
      <trkpt lat="45.59318" lon="2.99706">
        <ele>818.9</ele>
        <time>2021-08-26T13:40:17Z</time>
      </trkpt>
      <trkpt lat="45.59317" lon="2.99711">
        <ele>819.3</ele>
        <time>2021-08-26T13:40:19Z</time>
      </trkpt>
      <trkpt lat="45.59317" lon="2.99715">
        <ele>819.6</ele>
        <time>2021-08-26T13:40:21Z</time>
      </trkpt>
      <trkpt lat="45.59317" lon="2.9972">
        <ele>820</ele>
        <time>2021-08-26T13:40:23Z</time>
      </trkpt>
      <trkpt lat="45.59317" lon="2.99726">
        <ele>820.5</ele>
        <time>2021-08-26T13:40:25Z</time>
      </trkpt>
      <trkpt lat="45.59316" lon="2.99731">
        <ele>820.9</ele>
        <time>2021-08-26T13:40:27Z</time>
      </trkpt>
      <trkpt lat="45.59316" lon="2.99736">
        <ele>821.3</ele>
        <time>2021-08-26T13:40:29Z</time>
      </trkpt>
      <trkpt lat="45.59316" lon="2.99741">
        <ele>821.7</ele>
        <time>2021-08-26T13:40:31Z</time>
      </trkpt>
      <trkpt lat="45.59316" lon="2.99746">
        <ele>822.1</ele>
        <time>2021-08-26T13:40:33Z</time>
      </trkpt>
      <trkpt lat="45.59316" lon="2.99751">
        <ele>822.6</ele>
        <time>2021-08-26T13:40:35Z</time>
      </trkpt>
      <trkpt lat="45.59316" lon="2.99756">
        <ele>822.8</ele>
        <time>2021-08-26T13:40:37Z</time>
      </trkpt>
      <trkpt lat="45.59315" lon="2.99761">
        <ele>823</ele>
        <time>2021-08-26T13:40:39Z</time>
      </trkpt>
      <trkpt lat="45.59316" lon="2.99766">
        <ele>823.3</ele>
        <time>2021-08-26T13:40:41Z</time>
      </trkpt>
      <trkpt lat="45.59316" lon="2.99771">
        <ele>823.5</ele>
        <time>2021-08-26T13:40:43Z</time>
      </trkpt>
      <trkpt lat="45.59316" lon="2.99776">
        <ele>823.9</ele>
        <time>2021-08-26T13:40:45Z</time>
      </trkpt>
      <trkpt lat="45.59316" lon="2.99781">
        <ele>824.3</ele>
        <time>2021-08-26T13:40:47Z</time>
      </trkpt>
      <trkpt lat="45.59316" lon="2.99786">
        <ele>824.5</ele>
        <time>2021-08-26T13:40:49Z</time>
      </trkpt>
      <trkpt lat="45.59317" lon="2.99791">
        <ele>824.9</ele>
        <time>2021-08-26T13:40:51Z</time>
      </trkpt>
      <trkpt lat="45.59317" lon="2.99797">
        <ele>825.3</ele>
        <time>2021-08-26T13:40:53Z</time>
      </trkpt>
      <trkpt lat="45.59318" lon="2.99802">
        <ele>825.8</ele>
        <time>2021-08-26T13:40:55Z</time>
      </trkpt>
      <trkpt lat="45.59319" lon="2.99807">
        <ele>826.3</ele>
        <time>2021-08-26T13:40:57Z</time>
      </trkpt>
      <trkpt lat="45.5932" lon="2.99811">
        <ele>826.6</ele>
        <time>2021-08-26T13:40:59Z</time>
      </trkpt>
      <trkpt lat="45.5932" lon="2.99816">
        <ele>827.1</ele>
        <time>2021-08-26T13:41:01Z</time>
      </trkpt>
      <trkpt lat="45.59321" lon="2.99821">
        <ele>827.6</ele>
        <time>2021-08-26T13:41:03Z</time>
      </trkpt>
      <trkpt lat="45.59322" lon="2.99826">
        <ele>828</ele>
        <time>2021-08-26T13:41:05Z</time>
      </trkpt>
      <trkpt lat="45.59323" lon="2.99831">
        <ele>828.4</ele>
        <time>2021-08-26T13:41:07Z</time>
      </trkpt>
      <trkpt lat="45.59324" lon="2.99836">
        <ele>829</ele>
        <time>2021-08-26T13:41:09Z</time>
      </trkpt>
      <trkpt lat="45.59325" lon="2.99841">
        <ele>829.6</ele>
        <time>2021-08-26T13:41:11Z</time>
      </trkpt>
      <trkpt lat="45.59326" lon="2.99845">
        <ele>830.3</ele>
        <time>2021-08-26T13:41:13Z</time>
      </trkpt>
      <trkpt lat="45.59326" lon="2.9985">
        <ele>830.7</ele>
        <time>2021-08-26T13:41:15Z</time>
      </trkpt>
      <trkpt lat="45.59325" lon="2.99855">
        <ele>831.1</ele>
        <time>2021-08-26T13:41:17Z</time>
      </trkpt>
      <trkpt lat="45.59325" lon="2.9986">
        <ele>831.6</ele>
        <time>2021-08-26T13:41:19Z</time>
      </trkpt>
      <trkpt lat="45.59325" lon="2.99865">
        <ele>832</ele>
        <time>2021-08-26T13:41:21Z</time>
      </trkpt>
      <trkpt lat="45.59323" lon="2.9987">
        <ele>832.2</ele>
        <time>2021-08-26T13:41:23Z</time>
      </trkpt>
      <trkpt lat="45.59322" lon="2.99876">
        <ele>832.4</ele>
        <time>2021-08-26T13:41:25Z</time>
      </trkpt>
      <trkpt lat="45.5932" lon="2.9988">
        <ele>832.5</ele>
        <time>2021-08-26T13:41:27Z</time>
      </trkpt>
      <trkpt lat="45.59317" lon="2.99885">
        <ele>832.5</ele>
        <time>2021-08-26T13:41:29Z</time>
      </trkpt>
      <trkpt lat="45.59314" lon="2.99888">
        <ele>832.3</ele>
        <time>2021-08-26T13:41:31Z</time>
      </trkpt>
      <trkpt lat="45.59311" lon="2.99891">
        <ele>832.1</ele>
        <time>2021-08-26T13:41:33Z</time>
      </trkpt>
      <trkpt lat="45.59308" lon="2.99893">
        <ele>831.9</ele>
        <time>2021-08-26T13:41:35Z</time>
      </trkpt>
      <trkpt lat="45.59304" lon="2.99896">
        <ele>831.6</ele>
        <time>2021-08-26T13:41:37Z</time>
      </trkpt>
      <trkpt lat="45.59301" lon="2.99895">
        <ele>831</ele>
        <time>2021-08-26T13:41:39Z</time>
      </trkpt>
      <trkpt lat="45.59297" lon="2.99896">
        <ele>830.4</ele>
        <time>2021-08-26T13:41:41Z</time>
      </trkpt>
      <trkpt lat="45.59293" lon="2.99896">
        <ele>829.9</ele>
        <time>2021-08-26T13:41:43Z</time>
      </trkpt>
      <trkpt lat="45.59289" lon="2.99897">
        <ele>829.4</ele>
        <time>2021-08-26T13:41:45Z</time>
      </trkpt>
      <trkpt lat="45.59285" lon="2.99898">
        <ele>828.9</ele>
        <time>2021-08-26T13:41:47Z</time>
      </trkpt>
      <trkpt lat="45.59281" lon="2.999">
        <ele>828.6</ele>
        <time>2021-08-26T13:41:49Z</time>
      </trkpt>
      <trkpt lat="45.59278" lon="2.99902">
        <ele>828.4</ele>
        <time>2021-08-26T13:41:51Z</time>
      </trkpt>
      <trkpt lat="45.59275" lon="2.99905">
        <ele>828.5</ele>
        <time>2021-08-26T13:41:53Z</time>
      </trkpt>
      <trkpt lat="45.59273" lon="2.99909">
        <ele>828.7</ele>
        <time>2021-08-26T13:41:55Z</time>
      </trkpt>
      <trkpt lat="45.5927" lon="2.99912">
        <ele>828.9</ele>
        <time>2021-08-26T13:41:57Z</time>
      </trkpt>
      <trkpt lat="45.59268" lon="2.99916">
        <ele>829.4</ele>
        <time>2021-08-26T13:41:59Z</time>
      </trkpt>
      <trkpt lat="45.59266" lon="2.9992">
        <ele>829.9</ele>
        <time>2021-08-26T13:42:01Z</time>
      </trkpt>
      <trkpt lat="45.59264" lon="2.99924">
        <ele>830.5</ele>
        <time>2021-08-26T13:42:03Z</time>
      </trkpt>
      <trkpt lat="45.59262" lon="2.99928">
        <ele>830.9</ele>
        <time>2021-08-26T13:42:05Z</time>
      </trkpt>
      <trkpt lat="45.5926" lon="2.99932">
        <ele>831.5</ele>
        <time>2021-08-26T13:42:07Z</time>
      </trkpt>
      <trkpt lat="45.59258" lon="2.99936">
        <ele>832</ele>
        <time>2021-08-26T13:42:09Z</time>
      </trkpt>
      <trkpt lat="45.59255" lon="2.9994">
        <ele>832.5</ele>
        <time>2021-08-26T13:42:11Z</time>
      </trkpt>
      <trkpt lat="45.59253" lon="2.99944">
        <ele>833</ele>
        <time>2021-08-26T13:42:13Z</time>
      </trkpt>
      <trkpt lat="45.59252" lon="2.99948">
        <ele>833.6</ele>
        <time>2021-08-26T13:42:15Z</time>
      </trkpt>
      <trkpt lat="45.5925" lon="2.99952">
        <ele>834.1</ele>
        <time>2021-08-26T13:42:17Z</time>
      </trkpt>
      <trkpt lat="45.59248" lon="2.99954">
        <ele>834.2</ele>
        <time>2021-08-26T13:42:19Z</time>
      </trkpt>
      <trkpt lat="45.59246" lon="2.99957">
        <ele>834.3</ele>
        <time>2021-08-26T13:42:21Z</time>
      </trkpt>
      <trkpt lat="45.59245" lon="2.99961">
        <ele>834.7</ele>
        <time>2021-08-26T13:42:23Z</time>
      </trkpt>
      <trkpt lat="45.59245" lon="2.99961">
        <ele>834.8</ele>
        <time>2021-08-26T13:42:25Z</time>
      </trkpt>
      <trkpt lat="45.59245" lon="2.99961">
        <ele>834.8</ele>
        <time>2021-08-26T13:42:27Z</time>
      </trkpt>
      <trkpt lat="45.59245" lon="2.99961">
        <ele>834.8</ele>
        <time>2021-08-26T13:42:29Z</time>
      </trkpt>
      <trkpt lat="45.59245" lon="2.99962">
        <ele>835</ele>
        <time>2021-08-26T13:42:31Z</time>
      </trkpt>
      <trkpt lat="45.59249" lon="2.9999">
        <ele>841.5</ele>
        <time>2021-08-26T13:46:01Z</time>
      </trkpt>
      <trkpt lat="45.59252" lon="2.99989">
        <ele>842.2</ele>
        <time>2021-08-26T13:46:03Z</time>
      </trkpt>
      <trkpt lat="45.59256" lon="2.99987">
        <ele>842.4</ele>
        <time>2021-08-26T13:46:05Z</time>
      </trkpt>
      <trkpt lat="45.59259" lon="2.99984">
        <ele>842.2</ele>
        <time>2021-08-26T13:46:07Z</time>
      </trkpt>
      <trkpt lat="45.59261" lon="2.99979">
        <ele>841.5</ele>
        <time>2021-08-26T13:46:09Z</time>
      </trkpt>
      <trkpt lat="45.59262" lon="2.99974">
        <ele>840.5</ele>
        <time>2021-08-26T13:46:11Z</time>
      </trkpt>
      <trkpt lat="45.59263" lon="2.99969">
        <ele>839.6</ele>
        <time>2021-08-26T13:46:13Z</time>
      </trkpt>
      <trkpt lat="45.59264" lon="2.99963">
        <ele>838.7</ele>
        <time>2021-08-26T13:46:15Z</time>
      </trkpt>
      <trkpt lat="45.59265" lon="2.99958">
        <ele>837.7</ele>
        <time>2021-08-26T13:46:17Z</time>
      </trkpt>
      <trkpt lat="45.59267" lon="2.99953">
        <ele>837</ele>
        <time>2021-08-26T13:46:19Z</time>
      </trkpt>
      <trkpt lat="45.5927" lon="2.99949">
        <ele>836.5</ele>
        <time>2021-08-26T13:46:21Z</time>
      </trkpt>
      <trkpt lat="45.59273" lon="2.99945">
        <ele>836</ele>
        <time>2021-08-26T13:46:23Z</time>
      </trkpt>
      <trkpt lat="45.59276" lon="2.99942">
        <ele>835.8</ele>
        <time>2021-08-26T13:46:25Z</time>
      </trkpt>
      <trkpt lat="45.5928" lon="2.99939">
        <ele>835.9</ele>
        <time>2021-08-26T13:46:27Z</time>
      </trkpt>
      <trkpt lat="45.59283" lon="2.99938">
        <ele>836</ele>
        <time>2021-08-26T13:46:29Z</time>
      </trkpt>
      <trkpt lat="45.59287" lon="2.99937">
        <ele>836.3</ele>
        <time>2021-08-26T13:46:31Z</time>
      </trkpt>
      <trkpt lat="45.59291" lon="2.99937">
        <ele>836.8</ele>
        <time>2021-08-26T13:46:33Z</time>
      </trkpt>
      <trkpt lat="45.59294" lon="2.99937">
        <ele>837.3</ele>
        <time>2021-08-26T13:46:35Z</time>
      </trkpt>
      <trkpt lat="45.59297" lon="2.99938">
        <ele>838</ele>
        <time>2021-08-26T13:46:37Z</time>
      </trkpt>
      <trkpt lat="45.593" lon="2.99939">
        <ele>838.6</ele>
        <time>2021-08-26T13:46:39Z</time>
      </trkpt>
      <trkpt lat="45.59303" lon="2.99939">
        <ele>839.2</ele>
        <time>2021-08-26T13:46:41Z</time>
      </trkpt>
      <trkpt lat="45.59307" lon="2.99941">
        <ele>839.9</ele>
        <time>2021-08-26T13:46:43Z</time>
      </trkpt>
      <trkpt lat="45.5931" lon="2.99942">
        <ele>840.7</ele>
        <time>2021-08-26T13:46:45Z</time>
      </trkpt>
      <trkpt lat="45.59313" lon="2.99943">
        <ele>841.4</ele>
        <time>2021-08-26T13:46:47Z</time>
      </trkpt>
      <trkpt lat="45.59317" lon="2.99944">
        <ele>842.2</ele>
        <time>2021-08-26T13:46:49Z</time>
      </trkpt>
      <trkpt lat="45.5932" lon="2.99945">
        <ele>842.9</ele>
        <time>2021-08-26T13:46:51Z</time>
      </trkpt>
      <trkpt lat="45.59324" lon="2.99946">
        <ele>843.7</ele>
        <time>2021-08-26T13:46:53Z</time>
      </trkpt>
      <trkpt lat="45.59327" lon="2.99947">
        <ele>844.4</ele>
        <time>2021-08-26T13:46:55Z</time>
      </trkpt>
      <trkpt lat="45.59331" lon="2.99948">
        <ele>845.2</ele>
        <time>2021-08-26T13:46:57Z</time>
      </trkpt>
      <trkpt lat="45.59334" lon="2.99949">
        <ele>846</ele>
        <time>2021-08-26T13:46:59Z</time>
      </trkpt>
      <trkpt lat="45.59338" lon="2.9995">
        <ele>846.8</ele>
        <time>2021-08-26T13:47:01Z</time>
      </trkpt>
      <trkpt lat="45.59341" lon="2.99951">
        <ele>847.6</ele>
        <time>2021-08-26T13:47:03Z</time>
      </trkpt>
      <trkpt lat="45.59345" lon="2.99952">
        <ele>848.4</ele>
        <time>2021-08-26T13:47:05Z</time>
      </trkpt>
      <trkpt lat="45.59348" lon="2.99953">
        <ele>849.2</ele>
        <time>2021-08-26T13:47:07Z</time>
      </trkpt>
      <trkpt lat="45.59351" lon="2.99954">
        <ele>850</ele>
        <time>2021-08-26T13:47:09Z</time>
      </trkpt>
      <trkpt lat="45.59355" lon="2.99955">
        <ele>850.6</ele>
        <time>2021-08-26T13:47:11Z</time>
      </trkpt>
      <trkpt lat="45.59358" lon="2.99956">
        <ele>851.4</ele>
        <time>2021-08-26T13:47:13Z</time>
      </trkpt>
      <trkpt lat="45.59361" lon="2.99957">
        <ele>852.1</ele>
        <time>2021-08-26T13:47:15Z</time>
      </trkpt>
      <trkpt lat="45.59365" lon="2.99957">
        <ele>852.7</ele>
        <time>2021-08-26T13:47:17Z</time>
      </trkpt>
      <trkpt lat="45.59368" lon="2.99957">
        <ele>853.3</ele>
        <time>2021-08-26T13:47:19Z</time>
      </trkpt>
      <trkpt lat="45.59372" lon="2.99958">
        <ele>854</ele>
        <time>2021-08-26T13:47:21Z</time>
      </trkpt>
      <trkpt lat="45.59375" lon="2.99958">
        <ele>854.5</ele>
        <time>2021-08-26T13:47:23Z</time>
      </trkpt>
      <trkpt lat="45.59379" lon="2.99959">
        <ele>855.2</ele>
        <time>2021-08-26T13:47:25Z</time>
      </trkpt>
      <trkpt lat="45.59382" lon="2.99959">
        <ele>855.7</ele>
        <time>2021-08-26T13:47:27Z</time>
      </trkpt>
      <trkpt lat="45.59386" lon="2.99958">
        <ele>856.2</ele>
        <time>2021-08-26T13:47:29Z</time>
      </trkpt>
      <trkpt lat="45.59389" lon="2.99957">
        <ele>856.6</ele>
        <time>2021-08-26T13:47:31Z</time>
      </trkpt>
      <trkpt lat="45.59393" lon="2.99955">
        <ele>856.9</ele>
        <time>2021-08-26T13:47:33Z</time>
      </trkpt>
      <trkpt lat="45.59396" lon="2.99953">
        <ele>857.2</ele>
        <time>2021-08-26T13:47:35Z</time>
      </trkpt>
      <trkpt lat="45.59399" lon="2.99951">
        <ele>857.4</ele>
        <time>2021-08-26T13:47:37Z</time>
      </trkpt>
      <trkpt lat="45.59402" lon="2.99947">
        <ele>857.5</ele>
        <time>2021-08-26T13:47:39Z</time>
      </trkpt>
      <trkpt lat="45.59404" lon="2.99943">
        <ele>857.5</ele>
        <time>2021-08-26T13:47:41Z</time>
      </trkpt>
      <trkpt lat="45.59406" lon="2.9994">
        <ele>857.6</ele>
        <time>2021-08-26T13:47:43Z</time>
      </trkpt>
      <trkpt lat="45.59408" lon="2.99935">
        <ele>857.5</ele>
        <time>2021-08-26T13:47:45Z</time>
      </trkpt>
      <trkpt lat="45.59409" lon="2.9993">
        <ele>857.4</ele>
        <time>2021-08-26T13:47:47Z</time>
      </trkpt>
      <trkpt lat="45.5941" lon="2.99926">
        <ele>857.3</ele>
        <time>2021-08-26T13:47:49Z</time>
      </trkpt>
      <trkpt lat="45.59411" lon="2.99921">
        <ele>857.1</ele>
        <time>2021-08-26T13:47:51Z</time>
      </trkpt>
      <trkpt lat="45.59412" lon="2.99916">
        <ele>856.9</ele>
        <time>2021-08-26T13:47:53Z</time>
      </trkpt>
      <trkpt lat="45.59412" lon="2.99911">
        <ele>856.9</ele>
        <time>2021-08-26T13:47:55Z</time>
      </trkpt>
      <trkpt lat="45.59412" lon="2.99906">
        <ele>856.9</ele>
        <time>2021-08-26T13:47:57Z</time>
      </trkpt>
      <trkpt lat="45.59411" lon="2.99901">
        <ele>856.8</ele>
        <time>2021-08-26T13:47:59Z</time>
      </trkpt>
      <trkpt lat="45.59411" lon="2.99896">
        <ele>856.8</ele>
        <time>2021-08-26T13:48:01Z</time>
      </trkpt>
      <trkpt lat="45.5941" lon="2.9989">
        <ele>856.5</ele>
        <time>2021-08-26T13:48:03Z</time>
      </trkpt>
      <trkpt lat="45.59409" lon="2.99884">
        <ele>856.2</ele>
        <time>2021-08-26T13:48:05Z</time>
      </trkpt>
      <trkpt lat="45.59407" lon="2.9988">
        <ele>855.7</ele>
        <time>2021-08-26T13:48:07Z</time>
      </trkpt>
      <trkpt lat="45.59405" lon="2.99874">
        <ele>855.2</ele>
        <time>2021-08-26T13:48:09Z</time>
      </trkpt>
      <trkpt lat="45.59403" lon="2.99867">
        <ele>854.5</ele>
        <time>2021-08-26T13:48:11Z</time>
      </trkpt>
      <trkpt lat="45.59401" lon="2.9986">
        <ele>853.9</ele>
        <time>2021-08-26T13:48:13Z</time>
      </trkpt>
      <trkpt lat="45.59399" lon="2.99854">
        <ele>853.3</ele>
        <time>2021-08-26T13:48:15Z</time>
      </trkpt>
      <trkpt lat="45.59397" lon="2.99847">
        <ele>852.5</ele>
        <time>2021-08-26T13:48:17Z</time>
      </trkpt>
      <trkpt lat="45.59394" lon="2.9984">
        <ele>851.5</ele>
        <time>2021-08-26T13:48:19Z</time>
      </trkpt>
      <trkpt lat="45.59393" lon="2.99834">
        <ele>851</ele>
        <time>2021-08-26T13:48:21Z</time>
      </trkpt>
      <trkpt lat="45.59392" lon="2.99826">
        <ele>850.3</ele>
        <time>2021-08-26T13:48:23Z</time>
      </trkpt>
      <trkpt lat="45.59391" lon="2.99819">
        <ele>849.7</ele>
        <time>2021-08-26T13:48:25Z</time>
      </trkpt>
      <trkpt lat="45.5939" lon="2.99813">
        <ele>849.2</ele>
        <time>2021-08-26T13:48:27Z</time>
      </trkpt>
      <trkpt lat="45.5939" lon="2.99806">
        <ele>848.9</ele>
        <time>2021-08-26T13:48:29Z</time>
      </trkpt>
      <trkpt lat="45.5939" lon="2.99799">
        <ele>848.5</ele>
        <time>2021-08-26T13:48:31Z</time>
      </trkpt>
      <trkpt lat="45.59389" lon="2.99792">
        <ele>848</ele>
        <time>2021-08-26T13:48:33Z</time>
      </trkpt>
      <trkpt lat="45.59391" lon="2.99785">
        <ele>848.3</ele>
        <time>2021-08-26T13:48:35Z</time>
      </trkpt>
      <trkpt lat="45.59394" lon="2.99778">
        <ele>848.9</ele>
        <time>2021-08-26T13:48:37Z</time>
      </trkpt>
      <trkpt lat="45.59397" lon="2.99772">
        <ele>849.5</ele>
        <time>2021-08-26T13:48:39Z</time>
      </trkpt>
      <trkpt lat="45.594" lon="2.99765">
        <ele>850.3</ele>
        <time>2021-08-26T13:48:41Z</time>
      </trkpt>
      <trkpt lat="45.59404" lon="2.99759">
        <ele>851.4</ele>
        <time>2021-08-26T13:48:43Z</time>
      </trkpt>
      <trkpt lat="45.59408" lon="2.99752">
        <ele>852.4</ele>
        <time>2021-08-26T13:48:45Z</time>
      </trkpt>
      <trkpt lat="45.59412" lon="2.99745">
        <ele>852.9</ele>
        <time>2021-08-26T13:48:47Z</time>
      </trkpt>
      <trkpt lat="45.59417" lon="2.99738">
        <ele>853.6</ele>
        <time>2021-08-26T13:48:49Z</time>
      </trkpt>
      <trkpt lat="45.59423" lon="2.99731">
        <ele>853.8</ele>
        <time>2021-08-26T13:48:51Z</time>
      </trkpt>
      <trkpt lat="45.59428" lon="2.99725">
        <ele>854.1</ele>
        <time>2021-08-26T13:48:53Z</time>
      </trkpt>
      <trkpt lat="45.59434" lon="2.99719">
        <ele>854.5</ele>
        <time>2021-08-26T13:48:55Z</time>
      </trkpt>
      <trkpt lat="45.5944" lon="2.99712">
        <ele>854.8</ele>
        <time>2021-08-26T13:48:57Z</time>
      </trkpt>
      <trkpt lat="45.59445" lon="2.99706">
        <ele>855.2</ele>
        <time>2021-08-26T13:48:59Z</time>
      </trkpt>
      <trkpt lat="45.59451" lon="2.99701">
        <ele>855.8</ele>
        <time>2021-08-26T13:49:01Z</time>
      </trkpt>
      <trkpt lat="45.59458" lon="2.99695">
        <ele>856.4</ele>
        <time>2021-08-26T13:49:03Z</time>
      </trkpt>
      <trkpt lat="45.59464" lon="2.9969">
        <ele>857.1</ele>
        <time>2021-08-26T13:49:05Z</time>
      </trkpt>
      <trkpt lat="45.5947" lon="2.99685">
        <ele>857.7</ele>
        <time>2021-08-26T13:49:07Z</time>
      </trkpt>
      <trkpt lat="45.59475" lon="2.99681">
        <ele>858.3</ele>
        <time>2021-08-26T13:49:09Z</time>
      </trkpt>
      <trkpt lat="45.5948" lon="2.99676">
        <ele>858.8</ele>
        <time>2021-08-26T13:49:11Z</time>
      </trkpt>
      <trkpt lat="45.59484" lon="2.99671">
        <ele>859.1</ele>
        <time>2021-08-26T13:49:13Z</time>
      </trkpt>
      <trkpt lat="45.59488" lon="2.99666">
        <ele>859.4</ele>
        <time>2021-08-26T13:49:15Z</time>
      </trkpt>
      <trkpt lat="45.59492" lon="2.99661">
        <ele>859.7</ele>
        <time>2021-08-26T13:49:17Z</time>
      </trkpt>
      <trkpt lat="45.59495" lon="2.99656">
        <ele>860</ele>
        <time>2021-08-26T13:49:19Z</time>
      </trkpt>
      <trkpt lat="45.59499" lon="2.99651">
        <ele>860.3</ele>
        <time>2021-08-26T13:49:21Z</time>
      </trkpt>
      <trkpt lat="45.59503" lon="2.99646">
        <ele>860.9</ele>
        <time>2021-08-26T13:49:23Z</time>
      </trkpt>
      <trkpt lat="45.59506" lon="2.9964">
        <ele>861.4</ele>
        <time>2021-08-26T13:49:25Z</time>
      </trkpt>
      <trkpt lat="45.59509" lon="2.99635">
        <ele>861.9</ele>
        <time>2021-08-26T13:49:27Z</time>
      </trkpt>
      <trkpt lat="45.59512" lon="2.99629">
        <ele>862.4</ele>
        <time>2021-08-26T13:49:29Z</time>
      </trkpt>
      <trkpt lat="45.59516" lon="2.99623">
        <ele>862.9</ele>
        <time>2021-08-26T13:49:31Z</time>
      </trkpt>
      <trkpt lat="45.59519" lon="2.99618">
        <ele>863.3</ele>
        <time>2021-08-26T13:49:33Z</time>
      </trkpt>
      <trkpt lat="45.59522" lon="2.99612">
        <ele>863.7</ele>
        <time>2021-08-26T13:49:35Z</time>
      </trkpt>
      <trkpt lat="45.59524" lon="2.99606">
        <ele>863.9</ele>
        <time>2021-08-26T13:49:37Z</time>
      </trkpt>
      <trkpt lat="45.59527" lon="2.99601">
        <ele>864.2</ele>
        <time>2021-08-26T13:49:39Z</time>
      </trkpt>
      <trkpt lat="45.5953" lon="2.99596">
        <ele>864.6</ele>
        <time>2021-08-26T13:49:41Z</time>
      </trkpt>
      <trkpt lat="45.59533" lon="2.99591">
        <ele>865</ele>
        <time>2021-08-26T13:49:43Z</time>
      </trkpt>
      <trkpt lat="45.59535" lon="2.99587">
        <ele>865.3</ele>
        <time>2021-08-26T13:49:45Z</time>
      </trkpt>
      <trkpt lat="45.59537" lon="2.99582">
        <ele>865.4</ele>
        <time>2021-08-26T13:49:47Z</time>
      </trkpt>
      <trkpt lat="45.5954" lon="2.99577">
        <ele>865.6</ele>
        <time>2021-08-26T13:49:49Z</time>
      </trkpt>
      <trkpt lat="45.59542" lon="2.99573">
        <ele>865.9</ele>
        <time>2021-08-26T13:49:51Z</time>
      </trkpt>
      <trkpt lat="45.59544" lon="2.99568">
        <ele>866</ele>
        <time>2021-08-26T13:49:53Z</time>
      </trkpt>
      <trkpt lat="45.59547" lon="2.99564">
        <ele>866.2</ele>
        <time>2021-08-26T13:49:55Z</time>
      </trkpt>
      <trkpt lat="45.59549" lon="2.99559">
        <ele>866.4</ele>
        <time>2021-08-26T13:49:57Z</time>
      </trkpt>
      <trkpt lat="45.59552" lon="2.99555">
        <ele>866.6</ele>
        <time>2021-08-26T13:49:59Z</time>
      </trkpt>
      <trkpt lat="45.59554" lon="2.99551">
        <ele>866.8</ele>
        <time>2021-08-26T13:50:01Z</time>
      </trkpt>
      <trkpt lat="45.59557" lon="2.99546">
        <ele>866.9</ele>
        <time>2021-08-26T13:50:03Z</time>
      </trkpt>
      <trkpt lat="45.59559" lon="2.99542">
        <ele>867.1</ele>
        <time>2021-08-26T13:50:05Z</time>
      </trkpt>
      <trkpt lat="45.59562" lon="2.99538">
        <ele>867.3</ele>
        <time>2021-08-26T13:50:07Z</time>
      </trkpt>
      <trkpt lat="45.59564" lon="2.99533">
        <ele>867.6</ele>
        <time>2021-08-26T13:50:09Z</time>
      </trkpt>
      <trkpt lat="45.59566" lon="2.99529">
        <ele>867.7</ele>
        <time>2021-08-26T13:50:11Z</time>
      </trkpt>
      <trkpt lat="45.59569" lon="2.99525">
        <ele>867.8</ele>
        <time>2021-08-26T13:50:13Z</time>
      </trkpt>
      <trkpt lat="45.59571" lon="2.9952">
        <ele>867.9</ele>
        <time>2021-08-26T13:50:15Z</time>
      </trkpt>
      <trkpt lat="45.59574" lon="2.99516">
        <ele>868.3</ele>
        <time>2021-08-26T13:50:17Z</time>
      </trkpt>
      <trkpt lat="45.59576" lon="2.99512">
        <ele>868.5</ele>
        <time>2021-08-26T13:50:19Z</time>
      </trkpt>
      <trkpt lat="45.59579" lon="2.99508">
        <ele>868.6</ele>
        <time>2021-08-26T13:50:21Z</time>
      </trkpt>
      <trkpt lat="45.59581" lon="2.99504">
        <ele>868.8</ele>
        <time>2021-08-26T13:50:23Z</time>
      </trkpt>
      <trkpt lat="45.59583" lon="2.995">
        <ele>869</ele>
        <time>2021-08-26T13:50:25Z</time>
      </trkpt>
      <trkpt lat="45.59586" lon="2.99496">
        <ele>869.4</ele>
        <time>2021-08-26T13:50:27Z</time>
      </trkpt>
      <trkpt lat="45.59588" lon="2.99492">
        <ele>869.7</ele>
        <time>2021-08-26T13:50:29Z</time>
      </trkpt>
      <trkpt lat="45.59591" lon="2.99489">
        <ele>870.2</ele>
        <time>2021-08-26T13:50:31Z</time>
      </trkpt>
      <trkpt lat="45.59594" lon="2.99485">
        <ele>870.7</ele>
        <time>2021-08-26T13:50:33Z</time>
      </trkpt>
      <trkpt lat="45.59597" lon="2.99481">
        <ele>871.2</ele>
        <time>2021-08-26T13:50:35Z</time>
      </trkpt>
      <trkpt lat="45.596" lon="2.99477">
        <ele>871.7</ele>
        <time>2021-08-26T13:50:37Z</time>
      </trkpt>
      <trkpt lat="45.59603" lon="2.99474">
        <ele>872.5</ele>
        <time>2021-08-26T13:50:39Z</time>
      </trkpt>
      <trkpt lat="45.59606" lon="2.9947">
        <ele>873.1</ele>
        <time>2021-08-26T13:50:41Z</time>
      </trkpt>
      <trkpt lat="45.59609" lon="2.99467">
        <ele>873.7</ele>
        <time>2021-08-26T13:50:43Z</time>
      </trkpt>
      <trkpt lat="45.59612" lon="2.99463">
        <ele>874.3</ele>
        <time>2021-08-26T13:50:45Z</time>
      </trkpt>
      <trkpt lat="45.59615" lon="2.9946">
        <ele>875</ele>
        <time>2021-08-26T13:50:47Z</time>
      </trkpt>
      <trkpt lat="45.59619" lon="2.99457">
        <ele>875.7</ele>
        <time>2021-08-26T13:50:49Z</time>
      </trkpt>
      <trkpt lat="45.59622" lon="2.99454">
        <ele>876.4</ele>
        <time>2021-08-26T13:50:51Z</time>
      </trkpt>
      <trkpt lat="45.59625" lon="2.99451">
        <ele>877.1</ele>
        <time>2021-08-26T13:50:53Z</time>
      </trkpt>
      <trkpt lat="45.59628" lon="2.99448">
        <ele>877.8</ele>
        <time>2021-08-26T13:50:55Z</time>
      </trkpt>
      <trkpt lat="45.59631" lon="2.99444">
        <ele>878.5</ele>
        <time>2021-08-26T13:50:57Z</time>
      </trkpt>
      <trkpt lat="45.59634" lon="2.99441">
        <ele>879.2</ele>
        <time>2021-08-26T13:50:59Z</time>
      </trkpt>
      <trkpt lat="45.59637" lon="2.99437">
        <ele>879.7</ele>
        <time>2021-08-26T13:51:01Z</time>
      </trkpt>
      <trkpt lat="45.59639" lon="2.99433">
        <ele>880.1</ele>
        <time>2021-08-26T13:51:03Z</time>
      </trkpt>
      <trkpt lat="45.59642" lon="2.9943">
        <ele>880.6</ele>
        <time>2021-08-26T13:51:05Z</time>
      </trkpt>
      <trkpt lat="45.59644" lon="2.99426">
        <ele>881.1</ele>
        <time>2021-08-26T13:51:07Z</time>
      </trkpt>
      <trkpt lat="45.59646" lon="2.99421">
        <ele>881.2</ele>
        <time>2021-08-26T13:51:09Z</time>
      </trkpt>
      <trkpt lat="45.59647" lon="2.99415">
        <ele>881.2</ele>
        <time>2021-08-26T13:51:11Z</time>
      </trkpt>
      <trkpt lat="45.59649" lon="2.99411">
        <ele>881.4</ele>
        <time>2021-08-26T13:51:13Z</time>
      </trkpt>
      <trkpt lat="45.5965" lon="2.99405">
        <ele>881.5</ele>
        <time>2021-08-26T13:51:15Z</time>
      </trkpt>
      <trkpt lat="45.59651" lon="2.994">
        <ele>881.5</ele>
        <time>2021-08-26T13:51:17Z</time>
      </trkpt>
      <trkpt lat="45.59652" lon="2.99394">
        <ele>881.5</ele>
        <time>2021-08-26T13:51:19Z</time>
      </trkpt>
      <trkpt lat="45.59653" lon="2.99389">
        <ele>881.4</ele>
        <time>2021-08-26T13:51:21Z</time>
      </trkpt>
      <trkpt lat="45.59653" lon="2.99384">
        <ele>881.2</ele>
        <time>2021-08-26T13:51:23Z</time>
      </trkpt>
      <trkpt lat="45.59654" lon="2.99379">
        <ele>881.3</ele>
        <time>2021-08-26T13:51:25Z</time>
      </trkpt>
      <trkpt lat="45.59655" lon="2.99374">
        <ele>881.3</ele>
        <time>2021-08-26T13:51:27Z</time>
      </trkpt>
      <trkpt lat="45.59656" lon="2.99369">
        <ele>881.3</ele>
        <time>2021-08-26T13:51:29Z</time>
      </trkpt>
      <trkpt lat="45.59657" lon="2.99363">
        <ele>881.3</ele>
        <time>2021-08-26T13:51:31Z</time>
      </trkpt>
      <trkpt lat="45.59658" lon="2.99358">
        <ele>881.3</ele>
        <time>2021-08-26T13:51:33Z</time>
      </trkpt>
      <trkpt lat="45.59659" lon="2.99353">
        <ele>881.4</ele>
        <time>2021-08-26T13:51:35Z</time>
      </trkpt>
      <trkpt lat="45.5966" lon="2.99347">
        <ele>881.3</ele>
        <time>2021-08-26T13:51:37Z</time>
      </trkpt>
      <trkpt lat="45.59661" lon="2.99342">
        <ele>881.4</ele>
        <time>2021-08-26T13:51:39Z</time>
      </trkpt>
      <trkpt lat="45.59662" lon="2.99336">
        <ele>881.4</ele>
        <time>2021-08-26T13:51:41Z</time>
      </trkpt>
      <trkpt lat="45.59663" lon="2.9933">
        <ele>881.4</ele>
        <time>2021-08-26T13:51:43Z</time>
      </trkpt>
      <trkpt lat="45.59664" lon="2.99325">
        <ele>881.6</ele>
        <time>2021-08-26T13:51:45Z</time>
      </trkpt>
      <trkpt lat="45.59665" lon="2.99319">
        <ele>881.8</ele>
        <time>2021-08-26T13:51:47Z</time>
      </trkpt>
      <trkpt lat="45.59666" lon="2.99314">
        <ele>881.6</ele>
        <time>2021-08-26T13:51:49Z</time>
      </trkpt>
      <trkpt lat="45.59667" lon="2.99309">
        <ele>881.9</ele>
        <time>2021-08-26T13:51:51Z</time>
      </trkpt>
      <trkpt lat="45.59668" lon="2.99303">
        <ele>882</ele>
        <time>2021-08-26T13:51:53Z</time>
      </trkpt>
      <trkpt lat="45.59669" lon="2.99298">
        <ele>882.2</ele>
        <time>2021-08-26T13:51:55Z</time>
      </trkpt>
      <trkpt lat="45.5967" lon="2.99292">
        <ele>882.3</ele>
        <time>2021-08-26T13:51:57Z</time>
      </trkpt>
      <trkpt lat="45.59671" lon="2.99287">
        <ele>882.5</ele>
        <time>2021-08-26T13:51:59Z</time>
      </trkpt>
      <trkpt lat="45.59673" lon="2.99282">
        <ele>882.9</ele>
        <time>2021-08-26T13:52:01Z</time>
      </trkpt>
      <trkpt lat="45.59674" lon="2.99277">
        <ele>883.1</ele>
        <time>2021-08-26T13:52:03Z</time>
      </trkpt>
      <trkpt lat="45.59675" lon="2.99272">
        <ele>883.3</ele>
        <time>2021-08-26T13:52:05Z</time>
      </trkpt>
      <trkpt lat="45.59677" lon="2.99266">
        <ele>883.6</ele>
        <time>2021-08-26T13:52:07Z</time>
      </trkpt>
      <trkpt lat="45.59678" lon="2.99261">
        <ele>883.9</ele>
        <time>2021-08-26T13:52:09Z</time>
      </trkpt>
      <trkpt lat="45.59679" lon="2.99256">
        <ele>884</ele>
        <time>2021-08-26T13:52:11Z</time>
      </trkpt>
      <trkpt lat="45.59681" lon="2.99251">
        <ele>884.4</ele>
        <time>2021-08-26T13:52:13Z</time>
      </trkpt>
      <trkpt lat="45.59682" lon="2.99246">
        <ele>884.8</ele>
        <time>2021-08-26T13:52:15Z</time>
      </trkpt>
      <trkpt lat="45.59683" lon="2.9924">
        <ele>885</ele>
        <time>2021-08-26T13:52:17Z</time>
      </trkpt>
      <trkpt lat="45.59685" lon="2.99235">
        <ele>885.3</ele>
        <time>2021-08-26T13:52:19Z</time>
      </trkpt>
      <trkpt lat="45.59686" lon="2.9923">
        <ele>885.6</ele>
        <time>2021-08-26T13:52:21Z</time>
      </trkpt>
      <trkpt lat="45.59688" lon="2.99224">
        <ele>885.9</ele>
        <time>2021-08-26T13:52:23Z</time>
      </trkpt>
      <trkpt lat="45.59689" lon="2.99219">
        <ele>886.2</ele>
        <time>2021-08-26T13:52:25Z</time>
      </trkpt>
      <trkpt lat="45.59691" lon="2.99214">
        <ele>886.5</ele>
        <time>2021-08-26T13:52:27Z</time>
      </trkpt>
      <trkpt lat="45.59692" lon="2.99209">
        <ele>886.7</ele>
        <time>2021-08-26T13:52:29Z</time>
      </trkpt>
      <trkpt lat="45.59693" lon="2.99203">
        <ele>886.9</ele>
        <time>2021-08-26T13:52:31Z</time>
      </trkpt>
      <trkpt lat="45.59695" lon="2.99198">
        <ele>887.3</ele>
        <time>2021-08-26T13:52:33Z</time>
      </trkpt>
      <trkpt lat="45.59696" lon="2.99193">
        <ele>887.4</ele>
        <time>2021-08-26T13:52:35Z</time>
      </trkpt>
      <trkpt lat="45.59697" lon="2.99188">
        <ele>887.5</ele>
        <time>2021-08-26T13:52:37Z</time>
      </trkpt>
      <trkpt lat="45.59698" lon="2.99183">
        <ele>887.8</ele>
        <time>2021-08-26T13:52:39Z</time>
      </trkpt>
      <trkpt lat="45.59699" lon="2.99178">
        <ele>887.9</ele>
        <time>2021-08-26T13:52:41Z</time>
      </trkpt>
      <trkpt lat="45.597" lon="2.99173">
        <ele>888</ele>
        <time>2021-08-26T13:52:43Z</time>
      </trkpt>
      <trkpt lat="45.597" lon="2.99168">
        <ele>887.8</ele>
        <time>2021-08-26T13:52:45Z</time>
      </trkpt>
      <trkpt lat="45.59699" lon="2.99163">
        <ele>887.5</ele>
        <time>2021-08-26T13:52:47Z</time>
      </trkpt>
      <trkpt lat="45.59699" lon="2.99159">
        <ele>887.3</ele>
        <time>2021-08-26T13:52:49Z</time>
      </trkpt>
      <trkpt lat="45.59699" lon="2.99155">
        <ele>887</ele>
        <time>2021-08-26T13:52:51Z</time>
      </trkpt>
      <trkpt lat="45.59699" lon="2.99154">
        <ele>887.1</ele>
        <time>2021-08-26T13:52:53Z</time>
      </trkpt>
      <trkpt lat="45.59699" lon="2.99154">
        <ele>887.1</ele>
        <time>2021-08-26T13:52:55Z</time>
      </trkpt>
      <trkpt lat="45.59699" lon="2.99153">
        <ele>887</ele>
        <time>2021-08-26T13:52:57Z</time>
      </trkpt>
      <trkpt lat="45.59699" lon="2.99153">
        <ele>887.1</ele>
        <time>2021-08-26T13:52:59Z</time>
      </trkpt>
      <trkpt lat="45.59705" lon="2.99131">
        <ele>889</ele>
        <time>2021-08-26T13:54:31Z</time>
      </trkpt>
      <trkpt lat="45.59706" lon="2.99125">
        <ele>889.2</ele>
        <time>2021-08-26T13:54:33Z</time>
      </trkpt>
      <trkpt lat="45.59707" lon="2.99119">
        <ele>889.3</ele>
        <time>2021-08-26T13:54:35Z</time>
      </trkpt>
      <trkpt lat="45.59708" lon="2.99114">
        <ele>889.4</ele>
        <time>2021-08-26T13:54:37Z</time>
      </trkpt>
      <trkpt lat="45.59708" lon="2.99109">
        <ele>889.7</ele>
        <time>2021-08-26T13:54:39Z</time>
      </trkpt>
      <trkpt lat="45.5971" lon="2.99103">
        <ele>890</ele>
        <time>2021-08-26T13:54:41Z</time>
      </trkpt>
      <trkpt lat="45.59711" lon="2.99098">
        <ele>890.3</ele>
        <time>2021-08-26T13:54:43Z</time>
      </trkpt>
      <trkpt lat="45.59712" lon="2.99093">
        <ele>890.7</ele>
        <time>2021-08-26T13:54:45Z</time>
      </trkpt>
      <trkpt lat="45.59714" lon="2.99088">
        <ele>891.2</ele>
        <time>2021-08-26T13:54:47Z</time>
      </trkpt>
      <trkpt lat="45.59716" lon="2.99083">
        <ele>891.7</ele>
        <time>2021-08-26T13:54:49Z</time>
      </trkpt>
      <trkpt lat="45.59718" lon="2.99078">
        <ele>892.1</ele>
        <time>2021-08-26T13:54:51Z</time>
      </trkpt>
      <trkpt lat="45.59721" lon="2.99074">
        <ele>892.9</ele>
        <time>2021-08-26T13:54:53Z</time>
      </trkpt>
      <trkpt lat="45.59723" lon="2.9907">
        <ele>893.4</ele>
        <time>2021-08-26T13:54:55Z</time>
      </trkpt>
      <trkpt lat="45.59725" lon="2.99066">
        <ele>893.7</ele>
        <time>2021-08-26T13:54:57Z</time>
      </trkpt>
      <trkpt lat="45.59727" lon="2.99062">
        <ele>894.4</ele>
        <time>2021-08-26T13:54:59Z</time>
      </trkpt>
      <trkpt lat="45.5973" lon="2.99058">
        <ele>895</ele>
        <time>2021-08-26T13:55:01Z</time>
      </trkpt>
      <trkpt lat="45.59732" lon="2.99054">
        <ele>895.7</ele>
        <time>2021-08-26T13:55:03Z</time>
      </trkpt>
      <trkpt lat="45.59735" lon="2.9905">
        <ele>896.2</ele>
        <time>2021-08-26T13:55:05Z</time>
      </trkpt>
      <trkpt lat="45.59737" lon="2.99046">
        <ele>897</ele>
        <time>2021-08-26T13:55:07Z</time>
      </trkpt>
      <trkpt lat="45.5974" lon="2.99042">
        <ele>897.6</ele>
        <time>2021-08-26T13:55:09Z</time>
      </trkpt>
      <trkpt lat="45.59742" lon="2.99038">
        <ele>898.2</ele>
        <time>2021-08-26T13:55:11Z</time>
      </trkpt>
      <trkpt lat="45.59745" lon="2.99034">
        <ele>899</ele>
        <time>2021-08-26T13:55:13Z</time>
      </trkpt>
      <trkpt lat="45.59747" lon="2.9903">
        <ele>899.7</ele>
        <time>2021-08-26T13:55:15Z</time>
      </trkpt>
      <trkpt lat="45.5975" lon="2.99026">
        <ele>900.4</ele>
        <time>2021-08-26T13:55:17Z</time>
      </trkpt>
      <trkpt lat="45.59752" lon="2.99022">
        <ele>901</ele>
        <time>2021-08-26T13:55:19Z</time>
      </trkpt>
      <trkpt lat="45.59755" lon="2.99018">
        <ele>901.5</ele>
        <time>2021-08-26T13:55:21Z</time>
      </trkpt>
      <trkpt lat="45.59757" lon="2.99014">
        <ele>902</ele>
        <time>2021-08-26T13:55:23Z</time>
      </trkpt>
      <trkpt lat="45.5976" lon="2.9901">
        <ele>902.6</ele>
        <time>2021-08-26T13:55:25Z</time>
      </trkpt>
      <trkpt lat="45.59762" lon="2.99006">
        <ele>903</ele>
        <time>2021-08-26T13:55:27Z</time>
      </trkpt>
      <trkpt lat="45.59765" lon="2.99002">
        <ele>903.6</ele>
        <time>2021-08-26T13:55:29Z</time>
      </trkpt>
      <trkpt lat="45.59768" lon="2.98999">
        <ele>904.2</ele>
        <time>2021-08-26T13:55:31Z</time>
      </trkpt>
      <trkpt lat="45.5977" lon="2.98994">
        <ele>904.4</ele>
        <time>2021-08-26T13:55:33Z</time>
      </trkpt>
      <trkpt lat="45.59772" lon="2.9899">
        <ele>904.5</ele>
        <time>2021-08-26T13:55:35Z</time>
      </trkpt>
      <trkpt lat="45.59775" lon="2.98986">
        <ele>904.6</ele>
        <time>2021-08-26T13:55:37Z</time>
      </trkpt>
      <trkpt lat="45.59777" lon="2.98982">
        <ele>904.9</ele>
        <time>2021-08-26T13:55:39Z</time>
      </trkpt>
      <trkpt lat="45.5978" lon="2.98979">
        <ele>905.2</ele>
        <time>2021-08-26T13:55:41Z</time>
      </trkpt>
      <trkpt lat="45.59783" lon="2.98975">
        <ele>905.5</ele>
        <time>2021-08-26T13:55:43Z</time>
      </trkpt>
      <trkpt lat="45.59785" lon="2.98971">
        <ele>905.6</ele>
        <time>2021-08-26T13:55:45Z</time>
      </trkpt>
      <trkpt lat="45.59788" lon="2.98967">
        <ele>906</ele>
        <time>2021-08-26T13:55:47Z</time>
      </trkpt>
      <trkpt lat="45.5979" lon="2.98963">
        <ele>906.1</ele>
        <time>2021-08-26T13:55:49Z</time>
      </trkpt>
      <trkpt lat="45.59793" lon="2.98959">
        <ele>906.3</ele>
        <time>2021-08-26T13:55:51Z</time>
      </trkpt>
      <trkpt lat="45.59795" lon="2.98955">
        <ele>906.6</ele>
        <time>2021-08-26T13:55:53Z</time>
      </trkpt>
      <trkpt lat="45.59798" lon="2.98951">
        <ele>906.8</ele>
        <time>2021-08-26T13:55:55Z</time>
      </trkpt>
      <trkpt lat="45.598" lon="2.98947">
        <ele>907.1</ele>
        <time>2021-08-26T13:55:57Z</time>
      </trkpt>
      <trkpt lat="45.59803" lon="2.98943">
        <ele>907.4</ele>
        <time>2021-08-26T13:55:59Z</time>
      </trkpt>
      <trkpt lat="45.59806" lon="2.98938">
        <ele>907.5</ele>
        <time>2021-08-26T13:56:01Z</time>
      </trkpt>
      <trkpt lat="45.59808" lon="2.98934">
        <ele>907.8</ele>
        <time>2021-08-26T13:56:03Z</time>
      </trkpt>
      <trkpt lat="45.59811" lon="2.9893">
        <ele>908</ele>
        <time>2021-08-26T13:56:05Z</time>
      </trkpt>
      <trkpt lat="45.59814" lon="2.98926">
        <ele>908.3</ele>
        <time>2021-08-26T13:56:07Z</time>
      </trkpt>
      <trkpt lat="45.59816" lon="2.98923">
        <ele>908.7</ele>
        <time>2021-08-26T13:56:09Z</time>
      </trkpt>
      <trkpt lat="45.59819" lon="2.98919">
        <ele>909</ele>
        <time>2021-08-26T13:56:11Z</time>
      </trkpt>
      <trkpt lat="45.59822" lon="2.98915">
        <ele>909.4</ele>
        <time>2021-08-26T13:56:13Z</time>
      </trkpt>
      <trkpt lat="45.59825" lon="2.98911">
        <ele>909.7</ele>
        <time>2021-08-26T13:56:15Z</time>
      </trkpt>
      <trkpt lat="45.59829" lon="2.98909">
        <ele>910.1</ele>
        <time>2021-08-26T13:56:17Z</time>
      </trkpt>
      <trkpt lat="45.59832" lon="2.98905">
        <ele>910.4</ele>
        <time>2021-08-26T13:56:19Z</time>
      </trkpt>
      <trkpt lat="45.59835" lon="2.98904">
        <ele>910.9</ele>
        <time>2021-08-26T13:56:21Z</time>
      </trkpt>
      <trkpt lat="45.59839" lon="2.98901">
        <ele>911</ele>
        <time>2021-08-26T13:56:23Z</time>
      </trkpt>
      <trkpt lat="45.59842" lon="2.98899">
        <ele>911.1</ele>
        <time>2021-08-26T13:56:25Z</time>
      </trkpt>
      <trkpt lat="45.59846" lon="2.98896">
        <ele>911.2</ele>
        <time>2021-08-26T13:56:27Z</time>
      </trkpt>
      <trkpt lat="45.59849" lon="2.98894">
        <ele>911.5</ele>
        <time>2021-08-26T13:56:29Z</time>
      </trkpt>
      <trkpt lat="45.59853" lon="2.98892">
        <ele>911.7</ele>
        <time>2021-08-26T13:56:31Z</time>
      </trkpt>
      <trkpt lat="45.59856" lon="2.9889">
        <ele>911.9</ele>
        <time>2021-08-26T13:56:33Z</time>
      </trkpt>
      <trkpt lat="45.5986" lon="2.98888">
        <ele>912.1</ele>
        <time>2021-08-26T13:56:35Z</time>
      </trkpt>
      <trkpt lat="45.59863" lon="2.98886">
        <ele>912.4</ele>
        <time>2021-08-26T13:56:37Z</time>
      </trkpt>
      <trkpt lat="45.59866" lon="2.98884">
        <ele>912.6</ele>
        <time>2021-08-26T13:56:39Z</time>
      </trkpt>
      <trkpt lat="45.5987" lon="2.98882">
        <ele>912.9</ele>
        <time>2021-08-26T13:56:41Z</time>
      </trkpt>
      <trkpt lat="45.59874" lon="2.9888">
        <ele>913.2</ele>
        <time>2021-08-26T13:56:43Z</time>
      </trkpt>
      <trkpt lat="45.59877" lon="2.98878">
        <ele>913.6</ele>
        <time>2021-08-26T13:56:45Z</time>
      </trkpt>
      <trkpt lat="45.59881" lon="2.98876">
        <ele>914</ele>
        <time>2021-08-26T13:56:47Z</time>
      </trkpt>
      <trkpt lat="45.59885" lon="2.98874">
        <ele>914.4</ele>
        <time>2021-08-26T13:56:49Z</time>
      </trkpt>
      <trkpt lat="45.59889" lon="2.98873">
        <ele>914.9</ele>
        <time>2021-08-26T13:56:51Z</time>
      </trkpt>
      <trkpt lat="45.59893" lon="2.98871">
        <ele>915.3</ele>
        <time>2021-08-26T13:56:53Z</time>
      </trkpt>
      <trkpt lat="45.59896" lon="2.98869">
        <ele>915.7</ele>
        <time>2021-08-26T13:56:55Z</time>
      </trkpt>
      <trkpt lat="45.59899" lon="2.98868">
        <ele>916.2</ele>
        <time>2021-08-26T13:56:57Z</time>
      </trkpt>
      <trkpt lat="45.59903" lon="2.98866">
        <ele>916.6</ele>
        <time>2021-08-26T13:56:59Z</time>
      </trkpt>
      <trkpt lat="45.59906" lon="2.98864">
        <ele>917</ele>
        <time>2021-08-26T13:57:01Z</time>
      </trkpt>
      <trkpt lat="45.5991" lon="2.98861">
        <ele>917.3</ele>
        <time>2021-08-26T13:57:03Z</time>
      </trkpt>
      <trkpt lat="45.59913" lon="2.98857">
        <ele>917.6</ele>
        <time>2021-08-26T13:57:05Z</time>
      </trkpt>
      <trkpt lat="45.59916" lon="2.98853">
        <ele>917.9</ele>
        <time>2021-08-26T13:57:07Z</time>
      </trkpt>
      <trkpt lat="45.59919" lon="2.98849">
        <ele>917.9</ele>
        <time>2021-08-26T13:57:09Z</time>
      </trkpt>
      <trkpt lat="45.59922" lon="2.98845">
        <ele>917.9</ele>
        <time>2021-08-26T13:57:11Z</time>
      </trkpt>
      <trkpt lat="45.59925" lon="2.98842">
        <ele>918.1</ele>
        <time>2021-08-26T13:57:13Z</time>
      </trkpt>
      <trkpt lat="45.59928" lon="2.98838">
        <ele>918.1</ele>
        <time>2021-08-26T13:57:15Z</time>
      </trkpt>
      <trkpt lat="45.5993" lon="2.98834">
        <ele>918.2</ele>
        <time>2021-08-26T13:57:17Z</time>
      </trkpt>
      <trkpt lat="45.59933" lon="2.9883">
        <ele>918.3</ele>
        <time>2021-08-26T13:57:19Z</time>
      </trkpt>
      <trkpt lat="45.59935" lon="2.98826">
        <ele>918.4</ele>
        <time>2021-08-26T13:57:21Z</time>
      </trkpt>
      <trkpt lat="45.59938" lon="2.98822">
        <ele>918.7</ele>
        <time>2021-08-26T13:57:23Z</time>
      </trkpt>
      <trkpt lat="45.59941" lon="2.98818">
        <ele>918.9</ele>
        <time>2021-08-26T13:57:25Z</time>
      </trkpt>
      <trkpt lat="45.59944" lon="2.98814">
        <ele>919.1</ele>
        <time>2021-08-26T13:57:27Z</time>
      </trkpt>
      <trkpt lat="45.59946" lon="2.98811">
        <ele>919.3</ele>
        <time>2021-08-26T13:57:29Z</time>
      </trkpt>
      <trkpt lat="45.59949" lon="2.98807">
        <ele>919.5</ele>
        <time>2021-08-26T13:57:31Z</time>
      </trkpt>
      <trkpt lat="45.59951" lon="2.98802">
        <ele>919.7</ele>
        <time>2021-08-26T13:57:33Z</time>
      </trkpt>
      <trkpt lat="45.59954" lon="2.98799">
        <ele>920</ele>
        <time>2021-08-26T13:57:35Z</time>
      </trkpt>
      <trkpt lat="45.59957" lon="2.98795">
        <ele>920.2</ele>
        <time>2021-08-26T13:57:37Z</time>
      </trkpt>
      <trkpt lat="45.5996" lon="2.98791">
        <ele>920.5</ele>
        <time>2021-08-26T13:57:39Z</time>
      </trkpt>
      <trkpt lat="45.59962" lon="2.98789">
        <ele>920.7</ele>
        <time>2021-08-26T13:57:41Z</time>
      </trkpt>
      <trkpt lat="45.59965" lon="2.98785">
        <ele>921</ele>
        <time>2021-08-26T13:57:43Z</time>
      </trkpt>
      <trkpt lat="45.59967" lon="2.98782">
        <ele>921.3</ele>
        <time>2021-08-26T13:57:45Z</time>
      </trkpt>
      <trkpt lat="45.5997" lon="2.98778">
        <ele>921.6</ele>
        <time>2021-08-26T13:57:47Z</time>
      </trkpt>
      <trkpt lat="45.59973" lon="2.98774">
        <ele>921.9</ele>
        <time>2021-08-26T13:57:49Z</time>
      </trkpt>
      <trkpt lat="45.59975" lon="2.9877">
        <ele>922.2</ele>
        <time>2021-08-26T13:57:51Z</time>
      </trkpt>
      <trkpt lat="45.59978" lon="2.98766">
        <ele>922.5</ele>
        <time>2021-08-26T13:57:53Z</time>
      </trkpt>
      <trkpt lat="45.5998" lon="2.98763">
        <ele>922.8</ele>
        <time>2021-08-26T13:57:55Z</time>
      </trkpt>
      <trkpt lat="45.59983" lon="2.98759">
        <ele>923.2</ele>
        <time>2021-08-26T13:57:57Z</time>
      </trkpt>
      <trkpt lat="45.59986" lon="2.98755">
        <ele>923.5</ele>
        <time>2021-08-26T13:57:59Z</time>
      </trkpt>
      <trkpt lat="45.59989" lon="2.98751">
        <ele>923.9</ele>
        <time>2021-08-26T13:58:01Z</time>
      </trkpt>
      <trkpt lat="45.59992" lon="2.98747">
        <ele>924.3</ele>
        <time>2021-08-26T13:58:03Z</time>
      </trkpt>
      <trkpt lat="45.59994" lon="2.98744">
        <ele>924.6</ele>
        <time>2021-08-26T13:58:05Z</time>
      </trkpt>
      <trkpt lat="45.59997" lon="2.9874">
        <ele>925</ele>
        <time>2021-08-26T13:58:07Z</time>
      </trkpt>
      <trkpt lat="45.59999" lon="2.98736">
        <ele>925.4</ele>
        <time>2021-08-26T13:58:09Z</time>
      </trkpt>
      <trkpt lat="45.60003" lon="2.98731">
        <ele>925.7</ele>
        <time>2021-08-26T13:58:11Z</time>
      </trkpt>
      <trkpt lat="45.60005" lon="2.98727">
        <ele>925.9</ele>
        <time>2021-08-26T13:58:13Z</time>
      </trkpt>
      <trkpt lat="45.60008" lon="2.98724">
        <ele>926.1</ele>
        <time>2021-08-26T13:58:15Z</time>
      </trkpt>
      <trkpt lat="45.60011" lon="2.9872">
        <ele>926.4</ele>
        <time>2021-08-26T13:58:17Z</time>
      </trkpt>
      <trkpt lat="45.60014" lon="2.98716">
        <ele>926.7</ele>
        <time>2021-08-26T13:58:19Z</time>
      </trkpt>
      <trkpt lat="45.60016" lon="2.98713">
        <ele>926.9</ele>
        <time>2021-08-26T13:58:21Z</time>
      </trkpt>
      <trkpt lat="45.60018" lon="2.98709">
        <ele>927.1</ele>
        <time>2021-08-26T13:58:23Z</time>
      </trkpt>
      <trkpt lat="45.6002" lon="2.98706">
        <ele>927.3</ele>
        <time>2021-08-26T13:58:25Z</time>
      </trkpt>
      <trkpt lat="45.60022" lon="2.98702">
        <ele>927.6</ele>
        <time>2021-08-26T13:58:27Z</time>
      </trkpt>
      <trkpt lat="45.60025" lon="2.98697">
        <ele>927.8</ele>
        <time>2021-08-26T13:58:29Z</time>
      </trkpt>
      <trkpt lat="45.60027" lon="2.98692">
        <ele>928.1</ele>
        <time>2021-08-26T13:58:31Z</time>
      </trkpt>
      <trkpt lat="45.60029" lon="2.98688">
        <ele>928.3</ele>
        <time>2021-08-26T13:58:33Z</time>
      </trkpt>
      <trkpt lat="45.60031" lon="2.98684">
        <ele>928.5</ele>
        <time>2021-08-26T13:58:35Z</time>
      </trkpt>
      <trkpt lat="45.60033" lon="2.98679">
        <ele>928.7</ele>
        <time>2021-08-26T13:58:37Z</time>
      </trkpt>
      <trkpt lat="45.60035" lon="2.98672">
        <ele>929</ele>
        <time>2021-08-26T13:58:39Z</time>
      </trkpt>
      <trkpt lat="45.60036" lon="2.98668">
        <ele>929.1</ele>
        <time>2021-08-26T13:58:41Z</time>
      </trkpt>
      <trkpt lat="45.60038" lon="2.98664">
        <ele>929.3</ele>
        <time>2021-08-26T13:58:43Z</time>
      </trkpt>
      <trkpt lat="45.60039" lon="2.98659">
        <ele>929.5</ele>
        <time>2021-08-26T13:58:45Z</time>
      </trkpt>
      <trkpt lat="45.60041" lon="2.98652">
        <ele>929.8</ele>
        <time>2021-08-26T13:58:47Z</time>
      </trkpt>
      <trkpt lat="45.60043" lon="2.98647">
        <ele>930.1</ele>
        <time>2021-08-26T13:58:49Z</time>
      </trkpt>
      <trkpt lat="45.60044" lon="2.98643">
        <ele>930.3</ele>
        <time>2021-08-26T13:58:51Z</time>
      </trkpt>
      <trkpt lat="45.60045" lon="2.98638">
        <ele>930.4</ele>
        <time>2021-08-26T13:58:53Z</time>
      </trkpt>
      <trkpt lat="45.60047" lon="2.98633">
        <ele>930.7</ele>
        <time>2021-08-26T13:58:55Z</time>
      </trkpt>
      <trkpt lat="45.60048" lon="2.98627">
        <ele>930.9</ele>
        <time>2021-08-26T13:58:57Z</time>
      </trkpt>
      <trkpt lat="45.6005" lon="2.98622">
        <ele>931.1</ele>
        <time>2021-08-26T13:58:59Z</time>
      </trkpt>
      <trkpt lat="45.60051" lon="2.98618">
        <ele>931.4</ele>
        <time>2021-08-26T13:59:01Z</time>
      </trkpt>
      <trkpt lat="45.60053" lon="2.98613">
        <ele>931.7</ele>
        <time>2021-08-26T13:59:03Z</time>
      </trkpt>
      <trkpt lat="45.60054" lon="2.98608">
        <ele>931.9</ele>
        <time>2021-08-26T13:59:05Z</time>
      </trkpt>
      <trkpt lat="45.60056" lon="2.98603">
        <ele>932.1</ele>
        <time>2021-08-26T13:59:07Z</time>
      </trkpt>
      <trkpt lat="45.60057" lon="2.98597">
        <ele>932.4</ele>
        <time>2021-08-26T13:59:09Z</time>
      </trkpt>
      <trkpt lat="45.60059" lon="2.98593">
        <ele>932.7</ele>
        <time>2021-08-26T13:59:11Z</time>
      </trkpt>
      <trkpt lat="45.60061" lon="2.98587">
        <ele>932.9</ele>
        <time>2021-08-26T13:59:13Z</time>
      </trkpt>
      <trkpt lat="45.60062" lon="2.98582">
        <ele>933.1</ele>
        <time>2021-08-26T13:59:15Z</time>
      </trkpt>
      <trkpt lat="45.60063" lon="2.98577">
        <ele>933.4</ele>
        <time>2021-08-26T13:59:17Z</time>
      </trkpt>
      <trkpt lat="45.60065" lon="2.98572">
        <ele>933.7</ele>
        <time>2021-08-26T13:59:19Z</time>
      </trkpt>
      <trkpt lat="45.60066" lon="2.98567">
        <ele>933.9</ele>
        <time>2021-08-26T13:59:21Z</time>
      </trkpt>
      <trkpt lat="45.60068" lon="2.98563">
        <ele>934.2</ele>
        <time>2021-08-26T13:59:23Z</time>
      </trkpt>
      <trkpt lat="45.6007" lon="2.98558">
        <ele>934.6</ele>
        <time>2021-08-26T13:59:25Z</time>
      </trkpt>
      <trkpt lat="45.60072" lon="2.98554">
        <ele>935</ele>
        <time>2021-08-26T13:59:27Z</time>
      </trkpt>
      <trkpt lat="45.60074" lon="2.9855">
        <ele>935.3</ele>
        <time>2021-08-26T13:59:29Z</time>
      </trkpt>
      <trkpt lat="45.60076" lon="2.98546">
        <ele>935.8</ele>
        <time>2021-08-26T13:59:31Z</time>
      </trkpt>
      <trkpt lat="45.60079" lon="2.98542">
        <ele>936.2</ele>
        <time>2021-08-26T13:59:33Z</time>
      </trkpt>
      <trkpt lat="45.60082" lon="2.98539">
        <ele>936.7</ele>
        <time>2021-08-26T13:59:35Z</time>
      </trkpt>
      <trkpt lat="45.60084" lon="2.98537">
        <ele>936.9</ele>
        <time>2021-08-26T13:59:37Z</time>
      </trkpt>
      <trkpt lat="45.60087" lon="2.98535">
        <ele>936.8</ele>
        <time>2021-08-26T13:59:39Z</time>
      </trkpt>
      <trkpt lat="45.6009" lon="2.98533">
        <ele>936.6</ele>
        <time>2021-08-26T13:59:41Z</time>
      </trkpt>
      <trkpt lat="45.60093" lon="2.98533">
        <ele>936.4</ele>
        <time>2021-08-26T13:59:43Z</time>
      </trkpt>
      <trkpt lat="45.60095" lon="2.98533">
        <ele>936.3</ele>
        <time>2021-08-26T13:59:45Z</time>
      </trkpt>
      <trkpt lat="45.60097" lon="2.98532">
        <ele>936.2</ele>
        <time>2021-08-26T13:59:47Z</time>
      </trkpt>
      <trkpt lat="45.60099" lon="2.98531">
        <ele>936.1</ele>
        <time>2021-08-26T13:59:49Z</time>
      </trkpt>
      <trkpt lat="45.60102" lon="2.9853">
        <ele>935.9</ele>
        <time>2021-08-26T13:59:51Z</time>
      </trkpt>
      <trkpt lat="45.60104" lon="2.98526">
        <ele>935.8</ele>
        <time>2021-08-26T13:59:53Z</time>
      </trkpt>
      <trkpt lat="45.60104" lon="2.98521">
        <ele>935.8</ele>
        <time>2021-08-26T13:59:55Z</time>
      </trkpt>
      <trkpt lat="45.60102" lon="2.98515">
        <ele>935.9</ele>
        <time>2021-08-26T13:59:57Z</time>
      </trkpt>
      <trkpt lat="45.60103" lon="2.98511">
        <ele>935.8</ele>
        <time>2021-08-26T13:59:59Z</time>
      </trkpt>
      <trkpt lat="45.60102" lon="2.98505">
        <ele>935.9</ele>
        <time>2021-08-26T14:00:01Z</time>
      </trkpt>
      <trkpt lat="45.60102" lon="2.985">
        <ele>935.9</ele>
        <time>2021-08-26T14:00:03Z</time>
      </trkpt>
      <trkpt lat="45.60102" lon="2.98494">
        <ele>936.3</ele>
        <time>2021-08-26T14:00:05Z</time>
      </trkpt>
      <trkpt lat="45.60102" lon="2.98489">
        <ele>936.6</ele>
        <time>2021-08-26T14:00:07Z</time>
      </trkpt>
      <trkpt lat="45.60101" lon="2.98483">
        <ele>937</ele>
        <time>2021-08-26T14:00:09Z</time>
      </trkpt>
      <trkpt lat="45.601" lon="2.98478">
        <ele>937.4</ele>
        <time>2021-08-26T14:00:11Z</time>
      </trkpt>
      <trkpt lat="45.601" lon="2.98473">
        <ele>937.7</ele>
        <time>2021-08-26T14:00:13Z</time>
      </trkpt>
      <trkpt lat="45.601" lon="2.98469">
        <ele>937.9</ele>
        <time>2021-08-26T14:00:15Z</time>
      </trkpt>
      <trkpt lat="45.601" lon="2.98465">
        <ele>938.2</ele>
        <time>2021-08-26T14:00:17Z</time>
      </trkpt>
      <trkpt lat="45.60101" lon="2.98461">
        <ele>938.4</ele>
        <time>2021-08-26T14:00:19Z</time>
      </trkpt>
      <trkpt lat="45.60101" lon="2.9846">
        <ele>938.5</ele>
        <time>2021-08-26T14:00:21Z</time>
      </trkpt>
      <trkpt lat="45.60101" lon="2.9846">
        <ele>938.5</ele>
        <time>2021-08-26T14:00:23Z</time>
      </trkpt>
      <trkpt lat="45.60101" lon="2.9846">
        <ele>938.5</ele>
        <time>2021-08-26T14:00:25Z</time>
      </trkpt>
      <trkpt lat="45.60101" lon="2.9846">
        <ele>938.5</ele>
        <time>2021-08-26T14:00:27Z</time>
      </trkpt>
      <trkpt lat="45.601" lon="2.9846">
        <ele>938.5</ele>
        <time>2021-08-26T14:00:29Z</time>
      </trkpt>
      <trkpt lat="45.601" lon="2.98515">
        <ele>936</ele>
        <time>2021-08-26T14:04:45Z</time>
      </trkpt>
      <trkpt lat="45.60105" lon="2.98524">
        <ele>935.7</ele>
        <time>2021-08-26T14:04:47Z</time>
      </trkpt>
      <trkpt lat="45.60113" lon="2.98529">
        <ele>935.2</ele>
        <time>2021-08-26T14:04:49Z</time>
      </trkpt>
      <trkpt lat="45.60123" lon="2.98534">
        <ele>934.6</ele>
        <time>2021-08-26T14:04:51Z</time>
      </trkpt>
      <trkpt lat="45.60134" lon="2.98543">
        <ele>934</ele>
        <time>2021-08-26T14:04:53Z</time>
      </trkpt>
      <trkpt lat="45.6014" lon="2.98561">
        <ele>933.6</ele>
        <time>2021-08-26T14:04:55Z</time>
      </trkpt>
      <trkpt lat="45.60145" lon="2.98583">
        <ele>933.3</ele>
        <time>2021-08-26T14:04:57Z</time>
      </trkpt>
      <trkpt lat="45.60147" lon="2.98608">
        <ele>933.6</ele>
        <time>2021-08-26T14:04:59Z</time>
      </trkpt>
      <trkpt lat="45.60149" lon="2.98634">
        <ele>934</ele>
        <time>2021-08-26T14:05:01Z</time>
      </trkpt>
      <trkpt lat="45.60154" lon="2.98661">
        <ele>934.4</ele>
        <time>2021-08-26T14:05:03Z</time>
      </trkpt>
      <trkpt lat="45.6016" lon="2.9869">
        <ele>933.9</ele>
        <time>2021-08-26T14:05:05Z</time>
      </trkpt>
      <trkpt lat="45.60168" lon="2.98718">
        <ele>932.9</ele>
        <time>2021-08-26T14:05:07Z</time>
      </trkpt>
      <trkpt lat="45.60175" lon="2.98747">
        <ele>930</ele>
        <time>2021-08-26T14:05:09Z</time>
      </trkpt>
      <trkpt lat="45.60181" lon="2.98774">
        <ele>927.4</ele>
        <time>2021-08-26T14:05:11Z</time>
      </trkpt>
      <trkpt lat="45.60184" lon="2.98797">
        <ele>926.1</ele>
        <time>2021-08-26T14:05:13Z</time>
      </trkpt>
      <trkpt lat="45.60179" lon="2.98822">
        <ele>928.1</ele>
        <time>2021-08-26T14:05:15Z</time>
      </trkpt>
      <trkpt lat="45.60171" lon="2.98846">
        <ele>930</ele>
        <time>2021-08-26T14:05:17Z</time>
      </trkpt>
      <trkpt lat="45.60165" lon="2.98872">
        <ele>929.4</ele>
        <time>2021-08-26T14:05:19Z</time>
      </trkpt>
      <trkpt lat="45.6016" lon="2.98899">
        <ele>927.4</ele>
        <time>2021-08-26T14:05:21Z</time>
      </trkpt>
      <trkpt lat="45.60152" lon="2.98925">
        <ele>926.4</ele>
        <time>2021-08-26T14:05:23Z</time>
      </trkpt>
      <trkpt lat="45.60146" lon="2.9895">
        <ele>925.8</ele>
        <time>2021-08-26T14:05:25Z</time>
      </trkpt>
      <trkpt lat="45.60143" lon="2.98975">
        <ele>924.9</ele>
        <time>2021-08-26T14:05:27Z</time>
      </trkpt>
      <trkpt lat="45.60143" lon="2.98997">
        <ele>923.7</ele>
        <time>2021-08-26T14:05:29Z</time>
      </trkpt>
      <trkpt lat="45.60149" lon="2.99018">
        <ele>922.3</ele>
        <time>2021-08-26T14:05:31Z</time>
      </trkpt>
      <trkpt lat="45.60161" lon="2.99026">
        <ele>920</ele>
        <time>2021-08-26T14:05:33Z</time>
      </trkpt>
      <trkpt lat="45.60175" lon="2.99022">
        <ele>916.5</ele>
        <time>2021-08-26T14:05:35Z</time>
      </trkpt>
      <trkpt lat="45.60185" lon="2.99008">
        <ele>913.3</ele>
        <time>2021-08-26T14:05:37Z</time>
      </trkpt>
      <trkpt lat="45.60188" lon="2.98985">
        <ele>913.3</ele>
        <time>2021-08-26T14:05:39Z</time>
      </trkpt>
      <trkpt lat="45.60188" lon="2.9896">
        <ele>914.7</ele>
        <time>2021-08-26T14:05:41Z</time>
      </trkpt>
      <trkpt lat="45.60192" lon="2.98933">
        <ele>914.7</ele>
        <time>2021-08-26T14:05:43Z</time>
      </trkpt>
      <trkpt lat="45.60201" lon="2.98906">
        <ele>913.2</ele>
        <time>2021-08-26T14:05:45Z</time>
      </trkpt>
      <trkpt lat="45.60211" lon="2.98879">
        <ele>911.3</ele>
        <time>2021-08-26T14:05:47Z</time>
      </trkpt>
      <trkpt lat="45.60221" lon="2.98851">
        <ele>909.2</ele>
        <time>2021-08-26T14:05:49Z</time>
      </trkpt>
      <trkpt lat="45.60232" lon="2.98822">
        <ele>905.9</ele>
        <time>2021-08-26T14:05:51Z</time>
      </trkpt>
      <trkpt lat="45.60245" lon="2.98795">
        <ele>901.4</ele>
        <time>2021-08-26T14:05:53Z</time>
      </trkpt>
      <trkpt lat="45.60259" lon="2.98771">
        <ele>898</ele>
        <time>2021-08-26T14:05:55Z</time>
      </trkpt>
      <trkpt lat="45.6027" lon="2.98744">
        <ele>896.1</ele>
        <time>2021-08-26T14:05:57Z</time>
      </trkpt>
      <trkpt lat="45.60279" lon="2.98714">
        <ele>895.2</ele>
        <time>2021-08-26T14:05:59Z</time>
      </trkpt>
      <trkpt lat="45.60287" lon="2.98683">
        <ele>895.1</ele>
        <time>2021-08-26T14:06:01Z</time>
      </trkpt>
      <trkpt lat="45.60295" lon="2.98652">
        <ele>893.9</ele>
        <time>2021-08-26T14:06:03Z</time>
      </trkpt>
      <trkpt lat="45.60302" lon="2.9862">
        <ele>891.7</ele>
        <time>2021-08-26T14:06:05Z</time>
      </trkpt>
      <trkpt lat="45.60308" lon="2.98589">
        <ele>889.8</ele>
        <time>2021-08-26T14:06:07Z</time>
      </trkpt>
      <trkpt lat="45.60314" lon="2.98557">
        <ele>889.1</ele>
        <time>2021-08-26T14:06:09Z</time>
      </trkpt>
      <trkpt lat="45.60321" lon="2.98526">
        <ele>888.4</ele>
        <time>2021-08-26T14:06:11Z</time>
      </trkpt>
      <trkpt lat="45.60326" lon="2.98498">
        <ele>887.8</ele>
        <time>2021-08-26T14:06:13Z</time>
      </trkpt>
      <trkpt lat="45.60331" lon="2.98472">
        <ele>889.8</ele>
        <time>2021-08-26T14:06:15Z</time>
      </trkpt>
      <trkpt lat="45.60337" lon="2.98449">
        <ele>891</ele>
        <time>2021-08-26T14:06:17Z</time>
      </trkpt>
      <trkpt lat="45.60347" lon="2.9843">
        <ele>890.5</ele>
        <time>2021-08-26T14:06:19Z</time>
      </trkpt>
      <trkpt lat="45.60361" lon="2.98415">
        <ele>888.5</ele>
        <time>2021-08-26T14:06:21Z</time>
      </trkpt>
      <trkpt lat="45.60376" lon="2.984">
        <ele>887.6</ele>
        <time>2021-08-26T14:06:23Z</time>
      </trkpt>
      <trkpt lat="45.60392" lon="2.98387">
        <ele>886.5</ele>
        <time>2021-08-26T14:06:25Z</time>
      </trkpt>
      <trkpt lat="45.6041" lon="2.98378">
        <ele>884.6</ele>
        <time>2021-08-26T14:06:27Z</time>
      </trkpt>
      <trkpt lat="45.60429" lon="2.98374">
        <ele>882.2</ele>
        <time>2021-08-26T14:06:29Z</time>
      </trkpt>
      <trkpt lat="45.60448" lon="2.98371">
        <ele>879.6</ele>
        <time>2021-08-26T14:06:31Z</time>
      </trkpt>
      <trkpt lat="45.60463" lon="2.9836">
        <ele>878.9</ele>
        <time>2021-08-26T14:06:33Z</time>
      </trkpt>
      <trkpt lat="45.60475" lon="2.98341">
        <ele>879.5</ele>
        <time>2021-08-26T14:06:35Z</time>
      </trkpt>
      <trkpt lat="45.60487" lon="2.98327">
        <ele>878.6</ele>
        <time>2021-08-26T14:06:37Z</time>
      </trkpt>
      <trkpt lat="45.60503" lon="2.98323">
        <ele>875.6</ele>
        <time>2021-08-26T14:06:39Z</time>
      </trkpt>
      <trkpt lat="45.60517" lon="2.9833">
        <ele>875.1</ele>
        <time>2021-08-26T14:06:41Z</time>
      </trkpt>
      <trkpt lat="45.6053" lon="2.98342">
        <ele>874.6</ele>
        <time>2021-08-26T14:06:43Z</time>
      </trkpt>
      <trkpt lat="45.60542" lon="2.9835">
        <ele>874.9</ele>
        <time>2021-08-26T14:06:45Z</time>
      </trkpt>
      <trkpt lat="45.60552" lon="2.98359">
        <ele>875.1</ele>
        <time>2021-08-26T14:06:47Z</time>
      </trkpt>
      <trkpt lat="45.60559" lon="2.9837">
        <ele>875.4</ele>
        <time>2021-08-26T14:06:49Z</time>
      </trkpt>
      <trkpt lat="45.60563" lon="2.9838">
        <ele>875.6</ele>
        <time>2021-08-26T14:06:51Z</time>
      </trkpt>
      <trkpt lat="45.60565" lon="2.98389">
        <ele>875.6</ele>
        <time>2021-08-26T14:06:53Z</time>
      </trkpt>
      <trkpt lat="45.60566" lon="2.98397">
        <ele>875.7</ele>
        <time>2021-08-26T14:06:55Z</time>
      </trkpt>
      <trkpt lat="45.60566" lon="2.98404">
        <ele>875.6</ele>
        <time>2021-08-26T14:06:57Z</time>
      </trkpt>
      <trkpt lat="45.60566" lon="2.9841">
        <ele>875.5</ele>
        <time>2021-08-26T14:06:59Z</time>
      </trkpt>
      <trkpt lat="45.60565" lon="2.98416">
        <ele>875.4</ele>
        <time>2021-08-26T14:07:01Z</time>
      </trkpt>
      <trkpt lat="45.60565" lon="2.98422">
        <ele>875.6</ele>
        <time>2021-08-26T14:07:03Z</time>
      </trkpt>
      <trkpt lat="45.60564" lon="2.98428">
        <ele>875.7</ele>
        <time>2021-08-26T14:07:05Z</time>
      </trkpt>
      <trkpt lat="45.60564" lon="2.98434">
        <ele>875.8</ele>
        <time>2021-08-26T14:07:07Z</time>
      </trkpt>
      <trkpt lat="45.60564" lon="2.9844">
        <ele>875.9</ele>
        <time>2021-08-26T14:07:09Z</time>
      </trkpt>
      <trkpt lat="45.60563" lon="2.98445">
        <ele>876.1</ele>
        <time>2021-08-26T14:07:11Z</time>
      </trkpt>
      <trkpt lat="45.60563" lon="2.9845">
        <ele>876.1</ele>
        <time>2021-08-26T14:07:13Z</time>
      </trkpt>
      <trkpt lat="45.60562" lon="2.98456">
        <ele>876.2</ele>
        <time>2021-08-26T14:07:15Z</time>
      </trkpt>
      <trkpt lat="45.60562" lon="2.98461">
        <ele>876.3</ele>
        <time>2021-08-26T14:07:17Z</time>
      </trkpt>
      <trkpt lat="45.60562" lon="2.98467">
        <ele>876.5</ele>
        <time>2021-08-26T14:07:19Z</time>
      </trkpt>
      <trkpt lat="45.60561" lon="2.98472">
        <ele>876.6</ele>
        <time>2021-08-26T14:07:21Z</time>
      </trkpt>
      <trkpt lat="45.60562" lon="2.98477">
        <ele>876.8</ele>
        <time>2021-08-26T14:07:23Z</time>
      </trkpt>
      <trkpt lat="45.60561" lon="2.98482">
        <ele>876.8</ele>
        <time>2021-08-26T14:07:25Z</time>
      </trkpt>
      <trkpt lat="45.6056" lon="2.98487">
        <ele>876.9</ele>
        <time>2021-08-26T14:07:27Z</time>
      </trkpt>
      <trkpt lat="45.6056" lon="2.98492">
        <ele>877</ele>
        <time>2021-08-26T14:07:29Z</time>
      </trkpt>
      <trkpt lat="45.6056" lon="2.98497">
        <ele>877.1</ele>
        <time>2021-08-26T14:07:31Z</time>
      </trkpt>
      <trkpt lat="45.60559" lon="2.98502">
        <ele>877.2</ele>
        <time>2021-08-26T14:07:33Z</time>
      </trkpt>
      <trkpt lat="45.60559" lon="2.98507">
        <ele>877.3</ele>
        <time>2021-08-26T14:07:35Z</time>
      </trkpt>
      <trkpt lat="45.60559" lon="2.98512">
        <ele>877.5</ele>
        <time>2021-08-26T14:07:37Z</time>
      </trkpt>
      <trkpt lat="45.60558" lon="2.98517">
        <ele>877.7</ele>
        <time>2021-08-26T14:07:39Z</time>
      </trkpt>
      <trkpt lat="45.60559" lon="2.98522">
        <ele>878</ele>
        <time>2021-08-26T14:07:41Z</time>
      </trkpt>
      <trkpt lat="45.60559" lon="2.98527">
        <ele>878.3</ele>
        <time>2021-08-26T14:07:43Z</time>
      </trkpt>
      <trkpt lat="45.6056" lon="2.98532">
        <ele>878.6</ele>
        <time>2021-08-26T14:07:45Z</time>
      </trkpt>
      <trkpt lat="45.6056" lon="2.98537">
        <ele>879</ele>
        <time>2021-08-26T14:07:47Z</time>
      </trkpt>
      <trkpt lat="45.60561" lon="2.98541">
        <ele>879.3</ele>
        <time>2021-08-26T14:07:49Z</time>
      </trkpt>
      <trkpt lat="45.60561" lon="2.98546">
        <ele>879.6</ele>
        <time>2021-08-26T14:07:51Z</time>
      </trkpt>
      <trkpt lat="45.60562" lon="2.98552">
        <ele>880</ele>
        <time>2021-08-26T14:07:53Z</time>
      </trkpt>
      <trkpt lat="45.60563" lon="2.98557">
        <ele>880.4</ele>
        <time>2021-08-26T14:07:55Z</time>
      </trkpt>
      <trkpt lat="45.60563" lon="2.98562">
        <ele>880.7</ele>
        <time>2021-08-26T14:07:57Z</time>
      </trkpt>
      <trkpt lat="45.60564" lon="2.98567">
        <ele>881.1</ele>
        <time>2021-08-26T14:07:59Z</time>
      </trkpt>
      <trkpt lat="45.60565" lon="2.98572">
        <ele>881.5</ele>
        <time>2021-08-26T14:08:01Z</time>
      </trkpt>
      <trkpt lat="45.60566" lon="2.98577">
        <ele>881.9</ele>
        <time>2021-08-26T14:08:03Z</time>
      </trkpt>
      <trkpt lat="45.60566" lon="2.98582">
        <ele>882.3</ele>
        <time>2021-08-26T14:08:05Z</time>
      </trkpt>
      <trkpt lat="45.60567" lon="2.98587">
        <ele>882.6</ele>
        <time>2021-08-26T14:08:07Z</time>
      </trkpt>
      <trkpt lat="45.60568" lon="2.98592">
        <ele>882.9</ele>
        <time>2021-08-26T14:08:09Z</time>
      </trkpt>
      <trkpt lat="45.60568" lon="2.98597">
        <ele>883.1</ele>
        <time>2021-08-26T14:08:11Z</time>
      </trkpt>
      <trkpt lat="45.60568" lon="2.98603">
        <ele>883.3</ele>
        <time>2021-08-26T14:08:13Z</time>
      </trkpt>
      <trkpt lat="45.60568" lon="2.98608">
        <ele>883.5</ele>
        <time>2021-08-26T14:08:15Z</time>
      </trkpt>
      <trkpt lat="45.60568" lon="2.98613">
        <ele>883.7</ele>
        <time>2021-08-26T14:08:17Z</time>
      </trkpt>
      <trkpt lat="45.60568" lon="2.98617">
        <ele>883.7</ele>
        <time>2021-08-26T14:08:19Z</time>
      </trkpt>
      <trkpt lat="45.60567" lon="2.98622">
        <ele>883.7</ele>
        <time>2021-08-26T14:08:21Z</time>
      </trkpt>
      <trkpt lat="45.60566" lon="2.98627">
        <ele>883.7</ele>
        <time>2021-08-26T14:08:23Z</time>
      </trkpt>
      <trkpt lat="45.60565" lon="2.98632">
        <ele>883.6</ele>
        <time>2021-08-26T14:08:25Z</time>
      </trkpt>
      <trkpt lat="45.60564" lon="2.98637">
        <ele>883.5</ele>
        <time>2021-08-26T14:08:27Z</time>
      </trkpt>
      <trkpt lat="45.60563" lon="2.98641">
        <ele>883.3</ele>
        <time>2021-08-26T14:08:29Z</time>
      </trkpt>
      <trkpt lat="45.60561" lon="2.98646">
        <ele>883</ele>
        <time>2021-08-26T14:08:31Z</time>
      </trkpt>
      <trkpt lat="45.60559" lon="2.98651">
        <ele>882.8</ele>
        <time>2021-08-26T14:08:33Z</time>
      </trkpt>
      <trkpt lat="45.60558" lon="2.98656">
        <ele>882.7</ele>
        <time>2021-08-26T14:08:35Z</time>
      </trkpt>
      <trkpt lat="45.60557" lon="2.9866">
        <ele>882.5</ele>
        <time>2021-08-26T14:08:37Z</time>
      </trkpt>
      <trkpt lat="45.60556" lon="2.98665">
        <ele>882.4</ele>
        <time>2021-08-26T14:08:39Z</time>
      </trkpt>
      <trkpt lat="45.60555" lon="2.9867">
        <ele>882.3</ele>
        <time>2021-08-26T14:08:41Z</time>
      </trkpt>
      <trkpt lat="45.60555" lon="2.98675">
        <ele>882.2</ele>
        <time>2021-08-26T14:08:43Z</time>
      </trkpt>
      <trkpt lat="45.60555" lon="2.9868">
        <ele>882.3</ele>
        <time>2021-08-26T14:08:45Z</time>
      </trkpt>
      <trkpt lat="45.60556" lon="2.98685">
        <ele>882.4</ele>
        <time>2021-08-26T14:08:47Z</time>
      </trkpt>
      <trkpt lat="45.60557" lon="2.9869">
        <ele>882.7</ele>
        <time>2021-08-26T14:08:49Z</time>
      </trkpt>
      <trkpt lat="45.60558" lon="2.98695">
        <ele>883.1</ele>
        <time>2021-08-26T14:08:51Z</time>
      </trkpt>
      <trkpt lat="45.60559" lon="2.98699">
        <ele>883.4</ele>
        <time>2021-08-26T14:08:53Z</time>
      </trkpt>
      <trkpt lat="45.60562" lon="2.98703">
        <ele>884</ele>
        <time>2021-08-26T14:08:55Z</time>
      </trkpt>
      <trkpt lat="45.60563" lon="2.98708">
        <ele>884.4</ele>
        <time>2021-08-26T14:08:57Z</time>
      </trkpt>
      <trkpt lat="45.60565" lon="2.98712">
        <ele>885</ele>
        <time>2021-08-26T14:08:59Z</time>
      </trkpt>
      <trkpt lat="45.60567" lon="2.98716">
        <ele>885.5</ele>
        <time>2021-08-26T14:09:01Z</time>
      </trkpt>
      <trkpt lat="45.60569" lon="2.98721">
        <ele>885.9</ele>
        <time>2021-08-26T14:09:03Z</time>
      </trkpt>
      <trkpt lat="45.6057" lon="2.98725">
        <ele>886.4</ele>
        <time>2021-08-26T14:09:05Z</time>
      </trkpt>
      <trkpt lat="45.60572" lon="2.98729">
        <ele>886.8</ele>
        <time>2021-08-26T14:09:07Z</time>
      </trkpt>
      <trkpt lat="45.60574" lon="2.98734">
        <ele>887.3</ele>
        <time>2021-08-26T14:09:09Z</time>
      </trkpt>
      <trkpt lat="45.60575" lon="2.98738">
        <ele>887.7</ele>
        <time>2021-08-26T14:09:11Z</time>
      </trkpt>
      <trkpt lat="45.60577" lon="2.98742">
        <ele>888.2</ele>
        <time>2021-08-26T14:09:13Z</time>
      </trkpt>
      <trkpt lat="45.60579" lon="2.98746">
        <ele>888.8</ele>
        <time>2021-08-26T14:09:15Z</time>
      </trkpt>
      <trkpt lat="45.60581" lon="2.9875">
        <ele>889.3</ele>
        <time>2021-08-26T14:09:17Z</time>
      </trkpt>
      <trkpt lat="45.60583" lon="2.98754">
        <ele>889.5</ele>
        <time>2021-08-26T14:09:19Z</time>
      </trkpt>
      <trkpt lat="45.60584" lon="2.98759">
        <ele>889.6</ele>
        <time>2021-08-26T14:09:21Z</time>
      </trkpt>
      <trkpt lat="45.60586" lon="2.98763">
        <ele>889.6</ele>
        <time>2021-08-26T14:09:23Z</time>
      </trkpt>
      <trkpt lat="45.60588" lon="2.98768">
        <ele>889.6</ele>
        <time>2021-08-26T14:09:25Z</time>
      </trkpt>
      <trkpt lat="45.6059" lon="2.98772">
        <ele>889.6</ele>
        <time>2021-08-26T14:09:27Z</time>
      </trkpt>
      <trkpt lat="45.60592" lon="2.98775">
        <ele>889.7</ele>
        <time>2021-08-26T14:09:29Z</time>
      </trkpt>
      <trkpt lat="45.60594" lon="2.98779">
        <ele>889.9</ele>
        <time>2021-08-26T14:09:31Z</time>
      </trkpt>
      <trkpt lat="45.60597" lon="2.98782">
        <ele>890.1</ele>
        <time>2021-08-26T14:09:33Z</time>
      </trkpt>
      <trkpt lat="45.606" lon="2.98784">
        <ele>890.4</ele>
        <time>2021-08-26T14:09:35Z</time>
      </trkpt>
      <trkpt lat="45.60603" lon="2.98787">
        <ele>890.7</ele>
        <time>2021-08-26T14:09:37Z</time>
      </trkpt>
      <trkpt lat="45.60606" lon="2.98789">
        <ele>890.9</ele>
        <time>2021-08-26T14:09:39Z</time>
      </trkpt>
      <trkpt lat="45.60609" lon="2.98792">
        <ele>891.3</ele>
        <time>2021-08-26T14:09:41Z</time>
      </trkpt>
      <trkpt lat="45.60611" lon="2.98796">
        <ele>891.4</ele>
        <time>2021-08-26T14:09:43Z</time>
      </trkpt>
      <trkpt lat="45.60614" lon="2.98799">
        <ele>891.7</ele>
        <time>2021-08-26T14:09:45Z</time>
      </trkpt>
      <trkpt lat="45.60617" lon="2.98801">
        <ele>892.1</ele>
        <time>2021-08-26T14:09:47Z</time>
      </trkpt>
      <trkpt lat="45.60619" lon="2.98804">
        <ele>892.3</ele>
        <time>2021-08-26T14:09:49Z</time>
      </trkpt>
      <trkpt lat="45.60622" lon="2.98807">
        <ele>892.7</ele>
        <time>2021-08-26T14:09:51Z</time>
      </trkpt>
      <trkpt lat="45.60625" lon="2.9881">
        <ele>892.9</ele>
        <time>2021-08-26T14:09:53Z</time>
      </trkpt>
      <trkpt lat="45.60627" lon="2.98813">
        <ele>893.3</ele>
        <time>2021-08-26T14:09:55Z</time>
      </trkpt>
      <trkpt lat="45.60631" lon="2.98816">
        <ele>893.6</ele>
        <time>2021-08-26T14:09:57Z</time>
      </trkpt>
      <trkpt lat="45.60633" lon="2.98819">
        <ele>894</ele>
        <time>2021-08-26T14:09:59Z</time>
      </trkpt>
      <trkpt lat="45.60636" lon="2.98822">
        <ele>894.3</ele>
        <time>2021-08-26T14:10:01Z</time>
      </trkpt>
      <trkpt lat="45.60639" lon="2.98824">
        <ele>894.7</ele>
        <time>2021-08-26T14:10:03Z</time>
      </trkpt>
      <trkpt lat="45.60643" lon="2.98827">
        <ele>895.2</ele>
        <time>2021-08-26T14:10:05Z</time>
      </trkpt>
      <trkpt lat="45.60645" lon="2.9883">
        <ele>895.6</ele>
        <time>2021-08-26T14:10:07Z</time>
      </trkpt>
      <trkpt lat="45.60649" lon="2.98833">
        <ele>896</ele>
        <time>2021-08-26T14:10:09Z</time>
      </trkpt>
      <trkpt lat="45.60651" lon="2.98836">
        <ele>896.3</ele>
        <time>2021-08-26T14:10:11Z</time>
      </trkpt>
      <trkpt lat="45.60655" lon="2.9884">
        <ele>896.5</ele>
        <time>2021-08-26T14:10:13Z</time>
      </trkpt>
      <trkpt lat="45.60658" lon="2.98843">
        <ele>896.8</ele>
        <time>2021-08-26T14:10:15Z</time>
      </trkpt>
      <trkpt lat="45.60661" lon="2.98845">
        <ele>897.1</ele>
        <time>2021-08-26T14:10:17Z</time>
      </trkpt>
      <trkpt lat="45.60664" lon="2.98849">
        <ele>897.4</ele>
        <time>2021-08-26T14:10:19Z</time>
      </trkpt>
      <trkpt lat="45.60667" lon="2.98851">
        <ele>897.7</ele>
        <time>2021-08-26T14:10:21Z</time>
      </trkpt>
      <trkpt lat="45.6067" lon="2.98854">
        <ele>897.9</ele>
        <time>2021-08-26T14:10:23Z</time>
      </trkpt>
      <trkpt lat="45.60672" lon="2.98858">
        <ele>898</ele>
        <time>2021-08-26T14:10:25Z</time>
      </trkpt>
      <trkpt lat="45.60675" lon="2.98861">
        <ele>898.1</ele>
        <time>2021-08-26T14:10:27Z</time>
      </trkpt>
      <trkpt lat="45.60679" lon="2.98864">
        <ele>898.3</ele>
        <time>2021-08-26T14:10:29Z</time>
      </trkpt>
      <trkpt lat="45.60682" lon="2.98867">
        <ele>898.5</ele>
        <time>2021-08-26T14:10:31Z</time>
      </trkpt>
      <trkpt lat="45.60684" lon="2.9887">
        <ele>898.7</ele>
        <time>2021-08-26T14:10:33Z</time>
      </trkpt>
      <trkpt lat="45.60687" lon="2.98873">
        <ele>898.8</ele>
        <time>2021-08-26T14:10:35Z</time>
      </trkpt>
      <trkpt lat="45.6069" lon="2.98876">
        <ele>899</ele>
        <time>2021-08-26T14:10:37Z</time>
      </trkpt>
      <trkpt lat="45.60693" lon="2.98878">
        <ele>899.3</ele>
        <time>2021-08-26T14:10:39Z</time>
      </trkpt>
      <trkpt lat="45.60696" lon="2.98881">
        <ele>899.4</ele>
        <time>2021-08-26T14:10:41Z</time>
      </trkpt>
      <trkpt lat="45.60699" lon="2.98884">
        <ele>899.6</ele>
        <time>2021-08-26T14:10:43Z</time>
      </trkpt>
      <trkpt lat="45.60701" lon="2.98887">
        <ele>899.8</ele>
        <time>2021-08-26T14:10:45Z</time>
      </trkpt>
      <trkpt lat="45.60704" lon="2.98891">
        <ele>899.9</ele>
        <time>2021-08-26T14:10:47Z</time>
      </trkpt>
      <trkpt lat="45.60707" lon="2.98894">
        <ele>900.1</ele>
        <time>2021-08-26T14:10:49Z</time>
      </trkpt>
      <trkpt lat="45.6071" lon="2.98896">
        <ele>900.4</ele>
        <time>2021-08-26T14:10:51Z</time>
      </trkpt>
      <trkpt lat="45.60713" lon="2.98899">
        <ele>900.7</ele>
        <time>2021-08-26T14:10:53Z</time>
      </trkpt>
      <trkpt lat="45.60715" lon="2.98902">
        <ele>900.9</ele>
        <time>2021-08-26T14:10:55Z</time>
      </trkpt>
      <trkpt lat="45.60718" lon="2.98905">
        <ele>901.1</ele>
        <time>2021-08-26T14:10:57Z</time>
      </trkpt>
      <trkpt lat="45.60721" lon="2.98908">
        <ele>901.3</ele>
        <time>2021-08-26T14:10:59Z</time>
      </trkpt>
      <trkpt lat="45.60724" lon="2.98911">
        <ele>901.6</ele>
        <time>2021-08-26T14:11:01Z</time>
      </trkpt>
      <trkpt lat="45.60727" lon="2.98914">
        <ele>901.9</ele>
        <time>2021-08-26T14:11:03Z</time>
      </trkpt>
      <trkpt lat="45.6073" lon="2.98918">
        <ele>902.1</ele>
        <time>2021-08-26T14:11:05Z</time>
      </trkpt>
      <trkpt lat="45.60733" lon="2.98921">
        <ele>902.4</ele>
        <time>2021-08-26T14:11:07Z</time>
      </trkpt>
      <trkpt lat="45.60736" lon="2.98924">
        <ele>902.8</ele>
        <time>2021-08-26T14:11:09Z</time>
      </trkpt>
      <trkpt lat="45.60739" lon="2.98927">
        <ele>903.1</ele>
        <time>2021-08-26T14:11:11Z</time>
      </trkpt>
      <trkpt lat="45.60742" lon="2.98931">
        <ele>903.5</ele>
        <time>2021-08-26T14:11:13Z</time>
      </trkpt>
      <trkpt lat="45.60745" lon="2.98934">
        <ele>903.8</ele>
        <time>2021-08-26T14:11:15Z</time>
      </trkpt>
      <trkpt lat="45.60748" lon="2.98938">
        <ele>904.2</ele>
        <time>2021-08-26T14:11:17Z</time>
      </trkpt>
      <trkpt lat="45.60751" lon="2.98941">
        <ele>904.6</ele>
        <time>2021-08-26T14:11:19Z</time>
      </trkpt>
      <trkpt lat="45.60754" lon="2.98945">
        <ele>905</ele>
        <time>2021-08-26T14:11:21Z</time>
      </trkpt>
      <trkpt lat="45.60756" lon="2.98949">
        <ele>905.3</ele>
        <time>2021-08-26T14:11:23Z</time>
      </trkpt>
      <trkpt lat="45.60759" lon="2.98953">
        <ele>905.8</ele>
        <time>2021-08-26T14:11:25Z</time>
      </trkpt>
      <trkpt lat="45.60762" lon="2.98956">
        <ele>906.2</ele>
        <time>2021-08-26T14:11:27Z</time>
      </trkpt>
      <trkpt lat="45.60764" lon="2.98961">
        <ele>906.5</ele>
        <time>2021-08-26T14:11:29Z</time>
      </trkpt>
      <trkpt lat="45.60767" lon="2.98965">
        <ele>906.8</ele>
        <time>2021-08-26T14:11:31Z</time>
      </trkpt>
      <trkpt lat="45.60769" lon="2.98969">
        <ele>907.1</ele>
        <time>2021-08-26T14:11:33Z</time>
      </trkpt>
      <trkpt lat="45.60771" lon="2.98973">
        <ele>907.3</ele>
        <time>2021-08-26T14:11:35Z</time>
      </trkpt>
      <trkpt lat="45.60773" lon="2.98977">
        <ele>907.6</ele>
        <time>2021-08-26T14:11:37Z</time>
      </trkpt>
      <trkpt lat="45.60775" lon="2.98982">
        <ele>907.8</ele>
        <time>2021-08-26T14:11:39Z</time>
      </trkpt>
      <trkpt lat="45.60778" lon="2.98986">
        <ele>908.1</ele>
        <time>2021-08-26T14:11:41Z</time>
      </trkpt>
      <trkpt lat="45.6078" lon="2.9899">
        <ele>908.3</ele>
        <time>2021-08-26T14:11:43Z</time>
      </trkpt>
      <trkpt lat="45.60782" lon="2.98994">
        <ele>908.6</ele>
        <time>2021-08-26T14:11:45Z</time>
      </trkpt>
      <trkpt lat="45.60784" lon="2.98998">
        <ele>908.8</ele>
        <time>2021-08-26T14:11:47Z</time>
      </trkpt>
      <trkpt lat="45.60786" lon="2.99002">
        <ele>909</ele>
        <time>2021-08-26T14:11:49Z</time>
      </trkpt>
      <trkpt lat="45.60788" lon="2.99006">
        <ele>909.3</ele>
        <time>2021-08-26T14:11:51Z</time>
      </trkpt>
      <trkpt lat="45.60791" lon="2.99009">
        <ele>909.5</ele>
        <time>2021-08-26T14:11:53Z</time>
      </trkpt>
      <trkpt lat="45.60793" lon="2.99013">
        <ele>909.8</ele>
        <time>2021-08-26T14:11:55Z</time>
      </trkpt>
      <trkpt lat="45.60795" lon="2.99017">
        <ele>910</ele>
        <time>2021-08-26T14:11:57Z</time>
      </trkpt>
      <trkpt lat="45.60797" lon="2.99022">
        <ele>910.1</ele>
        <time>2021-08-26T14:11:59Z</time>
      </trkpt>
      <trkpt lat="45.608" lon="2.99026">
        <ele>910.3</ele>
        <time>2021-08-26T14:12:01Z</time>
      </trkpt>
      <trkpt lat="45.60802" lon="2.99031">
        <ele>910.6</ele>
        <time>2021-08-26T14:12:03Z</time>
      </trkpt>
      <trkpt lat="45.60804" lon="2.99035">
        <ele>910.7</ele>
        <time>2021-08-26T14:12:05Z</time>
      </trkpt>
      <trkpt lat="45.60807" lon="2.99039">
        <ele>910.9</ele>
        <time>2021-08-26T14:12:07Z</time>
      </trkpt>
      <trkpt lat="45.60809" lon="2.99043">
        <ele>911.1</ele>
        <time>2021-08-26T14:12:09Z</time>
      </trkpt>
      <trkpt lat="45.60811" lon="2.99048">
        <ele>911.3</ele>
        <time>2021-08-26T14:12:11Z</time>
      </trkpt>
      <trkpt lat="45.60813" lon="2.99052">
        <ele>911.5</ele>
        <time>2021-08-26T14:12:13Z</time>
      </trkpt>
      <trkpt lat="45.60816" lon="2.99056">
        <ele>911.7</ele>
        <time>2021-08-26T14:12:15Z</time>
      </trkpt>
      <trkpt lat="45.60818" lon="2.9906">
        <ele>911.8</ele>
        <time>2021-08-26T14:12:17Z</time>
      </trkpt>
      <trkpt lat="45.60821" lon="2.99065">
        <ele>912</ele>
        <time>2021-08-26T14:12:19Z</time>
      </trkpt>
      <trkpt lat="45.60823" lon="2.99069">
        <ele>912.1</ele>
        <time>2021-08-26T14:12:21Z</time>
      </trkpt>
      <trkpt lat="45.60825" lon="2.99073">
        <ele>912.3</ele>
        <time>2021-08-26T14:12:23Z</time>
      </trkpt>
      <trkpt lat="45.60828" lon="2.99078">
        <ele>912.5</ele>
        <time>2021-08-26T14:12:25Z</time>
      </trkpt>
      <trkpt lat="45.60831" lon="2.99082">
        <ele>912.7</ele>
        <time>2021-08-26T14:12:27Z</time>
      </trkpt>
      <trkpt lat="45.60833" lon="2.99087">
        <ele>913</ele>
        <time>2021-08-26T14:12:29Z</time>
      </trkpt>
      <trkpt lat="45.60835" lon="2.99091">
        <ele>913.5</ele>
        <time>2021-08-26T14:12:31Z</time>
      </trkpt>
      <trkpt lat="45.60837" lon="2.99096">
        <ele>913.9</ele>
        <time>2021-08-26T14:12:33Z</time>
      </trkpt>
      <trkpt lat="45.6084" lon="2.991">
        <ele>914.5</ele>
        <time>2021-08-26T14:12:35Z</time>
      </trkpt>
      <trkpt lat="45.60842" lon="2.99105">
        <ele>914.9</ele>
        <time>2021-08-26T14:12:37Z</time>
      </trkpt>
      <trkpt lat="45.60844" lon="2.99109">
        <ele>915.2</ele>
        <time>2021-08-26T14:12:39Z</time>
      </trkpt>
      <trkpt lat="45.60846" lon="2.99114">
        <ele>915.6</ele>
        <time>2021-08-26T14:12:41Z</time>
      </trkpt>
      <trkpt lat="45.60849" lon="2.99118">
        <ele>916.1</ele>
        <time>2021-08-26T14:12:43Z</time>
      </trkpt>
      <trkpt lat="45.60851" lon="2.99123">
        <ele>916.4</ele>
        <time>2021-08-26T14:12:45Z</time>
      </trkpt>
      <trkpt lat="45.60852" lon="2.99128">
        <ele>916.7</ele>
        <time>2021-08-26T14:12:47Z</time>
      </trkpt>
      <trkpt lat="45.60854" lon="2.99132">
        <ele>916.9</ele>
        <time>2021-08-26T14:12:49Z</time>
      </trkpt>
      <trkpt lat="45.60856" lon="2.99136">
        <ele>917.1</ele>
        <time>2021-08-26T14:12:51Z</time>
      </trkpt>
      <trkpt lat="45.60857" lon="2.99141">
        <ele>917.4</ele>
        <time>2021-08-26T14:12:53Z</time>
      </trkpt>
      <trkpt lat="45.6086" lon="2.99147">
        <ele>917.7</ele>
        <time>2021-08-26T14:12:55Z</time>
      </trkpt>
      <trkpt lat="45.60861" lon="2.99152">
        <ele>917.8</ele>
        <time>2021-08-26T14:12:57Z</time>
      </trkpt>
      <trkpt lat="45.60862" lon="2.99156">
        <ele>918</ele>
        <time>2021-08-26T14:12:59Z</time>
      </trkpt>
      <trkpt lat="45.60864" lon="2.99161">
        <ele>918.2</ele>
        <time>2021-08-26T14:13:01Z</time>
      </trkpt>
      <trkpt lat="45.60866" lon="2.99165">
        <ele>918.3</ele>
        <time>2021-08-26T14:13:03Z</time>
      </trkpt>
      <trkpt lat="45.60867" lon="2.9917">
        <ele>918.5</ele>
        <time>2021-08-26T14:13:05Z</time>
      </trkpt>
      <trkpt lat="45.60869" lon="2.99175">
        <ele>918.7</ele>
        <time>2021-08-26T14:13:07Z</time>
      </trkpt>
      <trkpt lat="45.60871" lon="2.9918">
        <ele>918.9</ele>
        <time>2021-08-26T14:13:09Z</time>
      </trkpt>
      <trkpt lat="45.60872" lon="2.99186">
        <ele>919.2</ele>
        <time>2021-08-26T14:13:11Z</time>
      </trkpt>
      <trkpt lat="45.60874" lon="2.99191">
        <ele>919.4</ele>
        <time>2021-08-26T14:13:13Z</time>
      </trkpt>
      <trkpt lat="45.60875" lon="2.99195">
        <ele>919.5</ele>
        <time>2021-08-26T14:13:15Z</time>
      </trkpt>
      <trkpt lat="45.60877" lon="2.992">
        <ele>919.7</ele>
        <time>2021-08-26T14:13:17Z</time>
      </trkpt>
      <trkpt lat="45.60878" lon="2.99204">
        <ele>919.9</ele>
        <time>2021-08-26T14:13:19Z</time>
      </trkpt>
      <trkpt lat="45.6088" lon="2.99209">
        <ele>920</ele>
        <time>2021-08-26T14:13:21Z</time>
      </trkpt>
      <trkpt lat="45.60882" lon="2.99216">
        <ele>920.2</ele>
        <time>2021-08-26T14:13:23Z</time>
      </trkpt>
      <trkpt lat="45.60883" lon="2.99221">
        <ele>920.3</ele>
        <time>2021-08-26T14:13:25Z</time>
      </trkpt>
      <trkpt lat="45.60885" lon="2.99226">
        <ele>920.5</ele>
        <time>2021-08-26T14:13:27Z</time>
      </trkpt>
      <trkpt lat="45.60886" lon="2.99231">
        <ele>920.5</ele>
        <time>2021-08-26T14:13:29Z</time>
      </trkpt>
      <trkpt lat="45.60887" lon="2.99236">
        <ele>920.6</ele>
        <time>2021-08-26T14:13:31Z</time>
      </trkpt>
      <trkpt lat="45.60888" lon="2.99242">
        <ele>920.7</ele>
        <time>2021-08-26T14:13:33Z</time>
      </trkpt>
      <trkpt lat="45.6089" lon="2.99247">
        <ele>920.8</ele>
        <time>2021-08-26T14:13:35Z</time>
      </trkpt>
      <trkpt lat="45.60891" lon="2.99251">
        <ele>920.8</ele>
        <time>2021-08-26T14:13:37Z</time>
      </trkpt>
      <trkpt lat="45.60891" lon="2.99256">
        <ele>920.8</ele>
        <time>2021-08-26T14:13:39Z</time>
      </trkpt>
      <trkpt lat="45.60892" lon="2.99262">
        <ele>920.8</ele>
        <time>2021-08-26T14:13:41Z</time>
      </trkpt>
      <trkpt lat="45.60894" lon="2.99268">
        <ele>920.8</ele>
        <time>2021-08-26T14:13:43Z</time>
      </trkpt>
      <trkpt lat="45.60894" lon="2.99274">
        <ele>920.8</ele>
        <time>2021-08-26T14:13:45Z</time>
      </trkpt>
      <trkpt lat="45.60895" lon="2.9928">
        <ele>920.7</ele>
        <time>2021-08-26T14:13:47Z</time>
      </trkpt>
      <trkpt lat="45.60895" lon="2.99286">
        <ele>920.7</ele>
        <time>2021-08-26T14:13:49Z</time>
      </trkpt>
      <trkpt lat="45.60896" lon="2.9929">
        <ele>920.7</ele>
        <time>2021-08-26T14:13:51Z</time>
      </trkpt>
      <trkpt lat="45.60897" lon="2.99294">
        <ele>920.7</ele>
        <time>2021-08-26T14:13:53Z</time>
      </trkpt>
      <trkpt lat="45.60898" lon="2.99298">
        <ele>920.7</ele>
        <time>2021-08-26T14:13:55Z</time>
      </trkpt>
      <trkpt lat="45.60898" lon="2.99302">
        <ele>920.6</ele>
        <time>2021-08-26T14:13:57Z</time>
      </trkpt>
      <trkpt lat="45.60899" lon="2.99304">
        <ele>920.6</ele>
        <time>2021-08-26T14:13:59Z</time>
      </trkpt>
      <trkpt lat="45.60899" lon="2.99304">
        <ele>920.6</ele>
        <time>2021-08-26T14:14:01Z</time>
      </trkpt>
      <trkpt lat="45.60899" lon="2.99303">
        <ele>920.6</ele>
        <time>2021-08-26T14:14:03Z</time>
      </trkpt>
      <trkpt lat="45.60899" lon="2.99303">
        <ele>920.6</ele>
        <time>2021-08-26T14:14:05Z</time>
      </trkpt>
      <trkpt lat="45.60899" lon="2.99303">
        <ele>920.6</ele>
        <time>2021-08-26T14:14:07Z</time>
      </trkpt>
      <trkpt lat="45.60899" lon="2.99303">
        <ele>920.6</ele>
        <time>2021-08-26T14:14:09Z</time>
      </trkpt>
      <trkpt lat="45.60904" lon="2.99321">
        <ele>920.6</ele>
        <time>2021-08-26T14:17:21Z</time>
      </trkpt>
      <trkpt lat="45.60905" lon="2.99327">
        <ele>920.6</ele>
        <time>2021-08-26T14:17:23Z</time>
      </trkpt>
      <trkpt lat="45.60907" lon="2.99334">
        <ele>920.5</ele>
        <time>2021-08-26T14:17:25Z</time>
      </trkpt>
      <trkpt lat="45.60909" lon="2.99343">
        <ele>919.7</ele>
        <time>2021-08-26T14:17:27Z</time>
      </trkpt>
      <trkpt lat="45.60912" lon="2.99353">
        <ele>918.8</ele>
        <time>2021-08-26T14:17:29Z</time>
      </trkpt>
      <trkpt lat="45.60916" lon="2.99364">
        <ele>917.6</ele>
        <time>2021-08-26T14:17:31Z</time>
      </trkpt>
      <trkpt lat="45.60919" lon="2.99377">
        <ele>916.4</ele>
        <time>2021-08-26T14:17:33Z</time>
      </trkpt>
      <trkpt lat="45.60924" lon="2.99391">
        <ele>915.1</ele>
        <time>2021-08-26T14:17:35Z</time>
      </trkpt>
      <trkpt lat="45.6093" lon="2.99407">
        <ele>913.7</ele>
        <time>2021-08-26T14:17:37Z</time>
      </trkpt>
      <trkpt lat="45.60936" lon="2.99424">
        <ele>912.4</ele>
        <time>2021-08-26T14:17:39Z</time>
      </trkpt>
      <trkpt lat="45.60943" lon="2.99442">
        <ele>911.5</ele>
        <time>2021-08-26T14:17:41Z</time>
      </trkpt>
      <trkpt lat="45.6095" lon="2.9946">
        <ele>910.4</ele>
        <time>2021-08-26T14:17:43Z</time>
      </trkpt>
      <trkpt lat="45.60957" lon="2.9948">
        <ele>909</ele>
        <time>2021-08-26T14:17:45Z</time>
      </trkpt>
      <trkpt lat="45.60965" lon="2.995">
        <ele>907.6</ele>
        <time>2021-08-26T14:17:47Z</time>
      </trkpt>
      <trkpt lat="45.60972" lon="2.9952">
        <ele>906.6</ele>
        <time>2021-08-26T14:17:49Z</time>
      </trkpt>
      <trkpt lat="45.60981" lon="2.99539">
        <ele>905.7</ele>
        <time>2021-08-26T14:17:51Z</time>
      </trkpt>
      <trkpt lat="45.60993" lon="2.99555">
        <ele>904.7</ele>
        <time>2021-08-26T14:17:53Z</time>
      </trkpt>
      <trkpt lat="45.61006" lon="2.99569">
        <ele>903.4</ele>
        <time>2021-08-26T14:17:55Z</time>
      </trkpt>
      <trkpt lat="45.61021" lon="2.9958">
        <ele>901.7</ele>
        <time>2021-08-26T14:17:57Z</time>
      </trkpt>
      <trkpt lat="45.61037" lon="2.99587">
        <ele>900.1</ele>
        <time>2021-08-26T14:17:59Z</time>
      </trkpt>
      <trkpt lat="45.61054" lon="2.99589">
        <ele>898.8</ele>
        <time>2021-08-26T14:18:01Z</time>
      </trkpt>
      <trkpt lat="45.6107" lon="2.99584">
        <ele>897.9</ele>
        <time>2021-08-26T14:18:03Z</time>
      </trkpt>
      <trkpt lat="45.61086" lon="2.99572">
        <ele>897.6</ele>
        <time>2021-08-26T14:18:05Z</time>
      </trkpt>
      <trkpt lat="45.61102" lon="2.9956">
        <ele>897.2</ele>
        <time>2021-08-26T14:18:07Z</time>
      </trkpt>
      <trkpt lat="45.61118" lon="2.99547">
        <ele>897.1</ele>
        <time>2021-08-26T14:18:09Z</time>
      </trkpt>
      <trkpt lat="45.61134" lon="2.99535">
        <ele>897</ele>
        <time>2021-08-26T14:18:11Z</time>
      </trkpt>
      <trkpt lat="45.61149" lon="2.99527">
        <ele>896.6</ele>
        <time>2021-08-26T14:18:13Z</time>
      </trkpt>
      <trkpt lat="45.61165" lon="2.99528">
        <ele>895.5</ele>
        <time>2021-08-26T14:18:15Z</time>
      </trkpt>
      <trkpt lat="45.61179" lon="2.99542">
        <ele>893.8</ele>
        <time>2021-08-26T14:18:17Z</time>
      </trkpt>
      <trkpt lat="45.61192" lon="2.99559">
        <ele>891.9</ele>
        <time>2021-08-26T14:18:19Z</time>
      </trkpt>
      <trkpt lat="45.61205" lon="2.99578">
        <ele>889.6</ele>
        <time>2021-08-26T14:18:21Z</time>
      </trkpt>
      <trkpt lat="45.61219" lon="2.99597">
        <ele>887.5</ele>
        <time>2021-08-26T14:18:23Z</time>
      </trkpt>
      <trkpt lat="45.61233" lon="2.99613">
        <ele>885.6</ele>
        <time>2021-08-26T14:18:25Z</time>
      </trkpt>
      <trkpt lat="45.61251" lon="2.99623">
        <ele>884.2</ele>
        <time>2021-08-26T14:18:27Z</time>
      </trkpt>
      <trkpt lat="45.61271" lon="2.9963">
        <ele>883.3</ele>
        <time>2021-08-26T14:18:29Z</time>
      </trkpt>
      <trkpt lat="45.61291" lon="2.99638">
        <ele>882.3</ele>
        <time>2021-08-26T14:18:31Z</time>
      </trkpt>
      <trkpt lat="45.6131" lon="2.99646">
        <ele>881.3</ele>
        <time>2021-08-26T14:18:33Z</time>
      </trkpt>
      <trkpt lat="45.6133" lon="2.99654">
        <ele>880.3</ele>
        <time>2021-08-26T14:18:35Z</time>
      </trkpt>
      <trkpt lat="45.61348" lon="2.99661">
        <ele>879.7</ele>
        <time>2021-08-26T14:18:37Z</time>
      </trkpt>
      <trkpt lat="45.61366" lon="2.99672">
        <ele>879.1</ele>
        <time>2021-08-26T14:18:39Z</time>
      </trkpt>
      <trkpt lat="45.61383" lon="2.99684">
        <ele>878.6</ele>
        <time>2021-08-26T14:18:41Z</time>
      </trkpt>
      <trkpt lat="45.61399" lon="2.99695">
        <ele>878.3</ele>
        <time>2021-08-26T14:18:43Z</time>
      </trkpt>
      <trkpt lat="45.61416" lon="2.99703">
        <ele>878.2</ele>
        <time>2021-08-26T14:18:45Z</time>
      </trkpt>
      <trkpt lat="45.61434" lon="2.99711">
        <ele>877.9</ele>
        <time>2021-08-26T14:18:47Z</time>
      </trkpt>
      <trkpt lat="45.61451" lon="2.99716">
        <ele>877.6</ele>
        <time>2021-08-26T14:18:49Z</time>
      </trkpt>
      <trkpt lat="45.61467" lon="2.9972">
        <ele>877.5</ele>
        <time>2021-08-26T14:18:51Z</time>
      </trkpt>
      <trkpt lat="45.61483" lon="2.99724">
        <ele>877.2</ele>
        <time>2021-08-26T14:18:53Z</time>
      </trkpt>
      <trkpt lat="45.61497" lon="2.99728">
        <ele>877</ele>
        <time>2021-08-26T14:18:55Z</time>
      </trkpt>
      <trkpt lat="45.61512" lon="2.99731">
        <ele>877.2</ele>
        <time>2021-08-26T14:18:57Z</time>
      </trkpt>
      <trkpt lat="45.61526" lon="2.99731">
        <ele>877.5</ele>
        <time>2021-08-26T14:18:59Z</time>
      </trkpt>
      <trkpt lat="45.61539" lon="2.99731">
        <ele>877.7</ele>
        <time>2021-08-26T14:19:01Z</time>
      </trkpt>
      <trkpt lat="45.61552" lon="2.99731">
        <ele>878</ele>
        <time>2021-08-26T14:19:03Z</time>
      </trkpt>
      <trkpt lat="45.61565" lon="2.99732">
        <ele>878.2</ele>
        <time>2021-08-26T14:19:05Z</time>
      </trkpt>
      <trkpt lat="45.61577" lon="2.99738">
        <ele>878.3</ele>
        <time>2021-08-26T14:19:07Z</time>
      </trkpt>
      <trkpt lat="45.61589" lon="2.99745">
        <ele>878.4</ele>
        <time>2021-08-26T14:19:09Z</time>
      </trkpt>
      <trkpt lat="45.61598" lon="2.99754">
        <ele>878.7</ele>
        <time>2021-08-26T14:19:11Z</time>
      </trkpt>
      <trkpt lat="45.61607" lon="2.99764">
        <ele>879.2</ele>
        <time>2021-08-26T14:19:13Z</time>
      </trkpt>
      <trkpt lat="45.61615" lon="2.99775">
        <ele>879.7</ele>
        <time>2021-08-26T14:19:15Z</time>
      </trkpt>
      <trkpt lat="45.61622" lon="2.99787">
        <ele>880.2</ele>
        <time>2021-08-26T14:19:17Z</time>
      </trkpt>
      <trkpt lat="45.61628" lon="2.99799">
        <ele>880.8</ele>
        <time>2021-08-26T14:19:19Z</time>
      </trkpt>
      <trkpt lat="45.61631" lon="2.99812">
        <ele>881.2</ele>
        <time>2021-08-26T14:19:21Z</time>
      </trkpt>
      <trkpt lat="45.61633" lon="2.99824">
        <ele>881.6</ele>
        <time>2021-08-26T14:19:23Z</time>
      </trkpt>
      <trkpt lat="45.61633" lon="2.99835">
        <ele>881.8</ele>
        <time>2021-08-26T14:19:25Z</time>
      </trkpt>
      <trkpt lat="45.61633" lon="2.99845">
        <ele>882.2</ele>
        <time>2021-08-26T14:19:27Z</time>
      </trkpt>
      <trkpt lat="45.61634" lon="2.99854">
        <ele>882.6</ele>
        <time>2021-08-26T14:19:29Z</time>
      </trkpt>
      <trkpt lat="45.61634" lon="2.99861">
        <ele>882.9</ele>
        <time>2021-08-26T14:19:31Z</time>
      </trkpt>
      <trkpt lat="45.61634" lon="2.99868">
        <ele>883.1</ele>
        <time>2021-08-26T14:19:33Z</time>
      </trkpt>
      <trkpt lat="45.61632" lon="2.99875">
        <ele>883.1</ele>
        <time>2021-08-26T14:19:35Z</time>
      </trkpt>
      <trkpt lat="45.61628" lon="2.99886">
        <ele>882.9</ele>
        <time>2021-08-26T14:19:37Z</time>
      </trkpt>
      <trkpt lat="45.61624" lon="2.99894">
        <ele>882.7</ele>
        <time>2021-08-26T14:19:39Z</time>
      </trkpt>
      <trkpt lat="45.61619" lon="2.99904">
        <ele>882.3</ele>
        <time>2021-08-26T14:19:41Z</time>
      </trkpt>
      <trkpt lat="45.61614" lon="2.99914">
        <ele>882</ele>
        <time>2021-08-26T14:19:43Z</time>
      </trkpt>
      <trkpt lat="45.61609" lon="2.99924">
        <ele>881.4</ele>
        <time>2021-08-26T14:19:45Z</time>
      </trkpt>
      <trkpt lat="45.61601" lon="2.99936">
        <ele>880.5</ele>
        <time>2021-08-26T14:19:47Z</time>
      </trkpt>
      <trkpt lat="45.61595" lon="2.99946">
        <ele>879.7</ele>
        <time>2021-08-26T14:19:49Z</time>
      </trkpt>
      <trkpt lat="45.6159" lon="2.99958">
        <ele>879.1</ele>
        <time>2021-08-26T14:19:51Z</time>
      </trkpt>
      <trkpt lat="45.61588" lon="2.99971">
        <ele>878.7</ele>
        <time>2021-08-26T14:19:53Z</time>
      </trkpt>
      <trkpt lat="45.61588" lon="2.99984">
        <ele>878.8</ele>
        <time>2021-08-26T14:19:55Z</time>
      </trkpt>
      <trkpt lat="45.6159" lon="2.99994">
        <ele>879.1</ele>
        <time>2021-08-26T14:19:57Z</time>
      </trkpt>
      <trkpt lat="45.61593" lon="3.00004">
        <ele>879.7</ele>
        <time>2021-08-26T14:19:59Z</time>
      </trkpt>
      <trkpt lat="45.61594" lon="3.00013">
        <ele>880.3</ele>
        <time>2021-08-26T14:20:01Z</time>
      </trkpt>
      <trkpt lat="45.61596" lon="3.00021">
        <ele>880.9</ele>
        <time>2021-08-26T14:20:03Z</time>
      </trkpt>
      <trkpt lat="45.61598" lon="3.00028">
        <ele>881.3</ele>
        <time>2021-08-26T14:20:05Z</time>
      </trkpt>
      <trkpt lat="45.61599" lon="3.00036">
        <ele>881.8</ele>
        <time>2021-08-26T14:20:07Z</time>
      </trkpt>
      <trkpt lat="45.61601" lon="3.00043">
        <ele>882.4</ele>
        <time>2021-08-26T14:20:09Z</time>
      </trkpt>
      <trkpt lat="45.61603" lon="3.0005">
        <ele>882.9</ele>
        <time>2021-08-26T14:20:11Z</time>
      </trkpt>
      <trkpt lat="45.61604" lon="3.00055">
        <ele>883.3</ele>
        <time>2021-08-26T14:20:13Z</time>
      </trkpt>
      <trkpt lat="45.61607" lon="3.0006">
        <ele>883.9</ele>
        <time>2021-08-26T14:20:15Z</time>
      </trkpt>
      <trkpt lat="45.6161" lon="3.00064">
        <ele>884.5</ele>
        <time>2021-08-26T14:20:17Z</time>
      </trkpt>
      <trkpt lat="45.61613" lon="3.00068">
        <ele>885.1</ele>
        <time>2021-08-26T14:20:19Z</time>
      </trkpt>
      <trkpt lat="45.61616" lon="3.00072">
        <ele>885.7</ele>
        <time>2021-08-26T14:20:21Z</time>
      </trkpt>
      <trkpt lat="45.61618" lon="3.00075">
        <ele>886.2</ele>
        <time>2021-08-26T14:20:23Z</time>
      </trkpt>
      <trkpt lat="45.61621" lon="3.00077">
        <ele>886.7</ele>
        <time>2021-08-26T14:20:25Z</time>
      </trkpt>
      <trkpt lat="45.61624" lon="3.00079">
        <ele>887.1</ele>
        <time>2021-08-26T14:20:27Z</time>
      </trkpt>
      <trkpt lat="45.61626" lon="3.00081">
        <ele>887.6</ele>
        <time>2021-08-26T14:20:29Z</time>
      </trkpt>
      <trkpt lat="45.61628" lon="3.00083">
        <ele>888</ele>
        <time>2021-08-26T14:20:31Z</time>
      </trkpt>
      <trkpt lat="45.61628" lon="3.00083">
        <ele>888</ele>
        <time>2021-08-26T14:20:33Z</time>
      </trkpt>
      <trkpt lat="45.61628" lon="3.00082">
        <ele>888</ele>
        <time>2021-08-26T14:20:35Z</time>
      </trkpt>
      <trkpt lat="45.61629" lon="3.00082">
        <ele>888.1</ele>
        <time>2021-08-26T14:20:37Z</time>
      </trkpt>
      <trkpt lat="45.6163" lon="3.00082">
        <ele>888.2</ele>
        <time>2021-08-26T14:20:39Z</time>
      </trkpt>
      <trkpt lat="45.61638" lon="3.00086">
        <ele>889.6</ele>
        <time>2021-08-26T14:20:47Z</time>
      </trkpt>
      <trkpt lat="45.61641" lon="3.00085">
        <ele>890.1</ele>
        <time>2021-08-26T14:20:49Z</time>
      </trkpt>
      <trkpt lat="45.61644" lon="3.00082">
        <ele>890.4</ele>
        <time>2021-08-26T14:20:51Z</time>
      </trkpt>
      <trkpt lat="45.61646" lon="3.00079">
        <ele>890.7</ele>
        <time>2021-08-26T14:20:53Z</time>
      </trkpt>
      <trkpt lat="45.61648" lon="3.00075">
        <ele>890.9</ele>
        <time>2021-08-26T14:20:55Z</time>
      </trkpt>
      <trkpt lat="45.61651" lon="3.00071">
        <ele>891.2</ele>
        <time>2021-08-26T14:20:57Z</time>
      </trkpt>
      <trkpt lat="45.61653" lon="3.00067">
        <ele>891.4</ele>
        <time>2021-08-26T14:20:59Z</time>
      </trkpt>
      <trkpt lat="45.61656" lon="3.00063">
        <ele>891.7</ele>
        <time>2021-08-26T14:21:01Z</time>
      </trkpt>
      <trkpt lat="45.61658" lon="3.00059">
        <ele>892</ele>
        <time>2021-08-26T14:21:03Z</time>
      </trkpt>
      <trkpt lat="45.6166" lon="3.00055">
        <ele>892.3</ele>
        <time>2021-08-26T14:21:05Z</time>
      </trkpt>
      <trkpt lat="45.61663" lon="3.00051">
        <ele>892.6</ele>
        <time>2021-08-26T14:21:07Z</time>
      </trkpt>
      <trkpt lat="45.61665" lon="3.00048">
        <ele>892.9</ele>
        <time>2021-08-26T14:21:09Z</time>
      </trkpt>
      <trkpt lat="45.61668" lon="3.00045">
        <ele>893.2</ele>
        <time>2021-08-26T14:21:11Z</time>
      </trkpt>
      <trkpt lat="45.6167" lon="3.00041">
        <ele>893.6</ele>
        <time>2021-08-26T14:21:13Z</time>
      </trkpt>
      <trkpt lat="45.61673" lon="3.00038">
        <ele>894.1</ele>
        <time>2021-08-26T14:21:15Z</time>
      </trkpt>
      <trkpt lat="45.61676" lon="3.00035">
        <ele>894.6</ele>
        <time>2021-08-26T14:21:17Z</time>
      </trkpt>
      <trkpt lat="45.61679" lon="3.00032">
        <ele>895</ele>
        <time>2021-08-26T14:21:19Z</time>
      </trkpt>
      <trkpt lat="45.61682" lon="3.00029">
        <ele>895.5</ele>
        <time>2021-08-26T14:21:21Z</time>
      </trkpt>
      <trkpt lat="45.61686" lon="3.00027">
        <ele>896.1</ele>
        <time>2021-08-26T14:21:23Z</time>
      </trkpt>
      <trkpt lat="45.61689" lon="3.00024">
        <ele>896.5</ele>
        <time>2021-08-26T14:21:25Z</time>
      </trkpt>
      <trkpt lat="45.61691" lon="3.0002">
        <ele>896.8</ele>
        <time>2021-08-26T14:21:27Z</time>
      </trkpt>
      <trkpt lat="45.61693" lon="3.00016">
        <ele>897.2</ele>
        <time>2021-08-26T14:21:29Z</time>
      </trkpt>
      <trkpt lat="45.61695" lon="3.00011">
        <ele>897.4</ele>
        <time>2021-08-26T14:21:31Z</time>
      </trkpt>
      <trkpt lat="45.61698" lon="3.00007">
        <ele>897.7</ele>
        <time>2021-08-26T14:21:33Z</time>
      </trkpt>
      <trkpt lat="45.617" lon="3.00002">
        <ele>898</ele>
        <time>2021-08-26T14:21:35Z</time>
      </trkpt>
      <trkpt lat="45.61701" lon="2.99997">
        <ele>898.1</ele>
        <time>2021-08-26T14:21:37Z</time>
      </trkpt>
      <trkpt lat="45.61702" lon="2.99993">
        <ele>898.1</ele>
        <time>2021-08-26T14:21:39Z</time>
      </trkpt>
      <trkpt lat="45.61704" lon="2.99988">
        <ele>898.3</ele>
        <time>2021-08-26T14:21:41Z</time>
      </trkpt>
      <trkpt lat="45.61706" lon="2.99984">
        <ele>898.4</ele>
        <time>2021-08-26T14:21:43Z</time>
      </trkpt>
      <trkpt lat="45.61707" lon="2.99979">
        <ele>898.5</ele>
        <time>2021-08-26T14:21:45Z</time>
      </trkpt>
      <trkpt lat="45.61709" lon="2.99974">
        <ele>898.7</ele>
        <time>2021-08-26T14:21:47Z</time>
      </trkpt>
      <trkpt lat="45.61711" lon="2.9997">
        <ele>898.8</ele>
        <time>2021-08-26T14:21:49Z</time>
      </trkpt>
      <trkpt lat="45.61713" lon="2.99966">
        <ele>899</ele>
        <time>2021-08-26T14:21:51Z</time>
      </trkpt>
      <trkpt lat="45.61714" lon="2.99961">
        <ele>899.1</ele>
        <time>2021-08-26T14:21:53Z</time>
      </trkpt>
      <trkpt lat="45.61716" lon="2.99956">
        <ele>899.3</ele>
        <time>2021-08-26T14:21:55Z</time>
      </trkpt>
      <trkpt lat="45.61718" lon="2.99953">
        <ele>899.5</ele>
        <time>2021-08-26T14:21:57Z</time>
      </trkpt>
      <trkpt lat="45.6172" lon="2.99949">
        <ele>899.7</ele>
        <time>2021-08-26T14:21:59Z</time>
      </trkpt>
      <trkpt lat="45.61721" lon="2.99944">
        <ele>899.8</ele>
        <time>2021-08-26T14:22:01Z</time>
      </trkpt>
      <trkpt lat="45.61723" lon="2.9994">
        <ele>900</ele>
        <time>2021-08-26T14:22:03Z</time>
      </trkpt>
      <trkpt lat="45.61725" lon="2.99936">
        <ele>900.2</ele>
        <time>2021-08-26T14:22:05Z</time>
      </trkpt>
      <trkpt lat="45.61726" lon="2.99932">
        <ele>900.3</ele>
        <time>2021-08-26T14:22:07Z</time>
      </trkpt>
      <trkpt lat="45.61728" lon="2.99928">
        <ele>900.4</ele>
        <time>2021-08-26T14:22:09Z</time>
      </trkpt>
      <trkpt lat="45.6173" lon="2.99925">
        <ele>900.7</ele>
        <time>2021-08-26T14:22:11Z</time>
      </trkpt>
      <trkpt lat="45.61732" lon="2.99921">
        <ele>900.9</ele>
        <time>2021-08-26T14:22:13Z</time>
      </trkpt>
      <trkpt lat="45.61734" lon="2.99918">
        <ele>901.1</ele>
        <time>2021-08-26T14:22:15Z</time>
      </trkpt>
      <trkpt lat="45.61736" lon="2.99914">
        <ele>901.3</ele>
        <time>2021-08-26T14:22:17Z</time>
      </trkpt>
      <trkpt lat="45.61738" lon="2.99911">
        <ele>901.5</ele>
        <time>2021-08-26T14:22:19Z</time>
      </trkpt>
      <trkpt lat="45.6174" lon="2.99906">
        <ele>901.6</ele>
        <time>2021-08-26T14:22:21Z</time>
      </trkpt>
      <trkpt lat="45.61742" lon="2.99902">
        <ele>901.6</ele>
        <time>2021-08-26T14:22:23Z</time>
      </trkpt>
      <trkpt lat="45.61744" lon="2.99899">
        <ele>901.8</ele>
        <time>2021-08-26T14:22:25Z</time>
      </trkpt>
      <trkpt lat="45.61746" lon="2.99895">
        <ele>901.9</ele>
        <time>2021-08-26T14:22:27Z</time>
      </trkpt>
      <trkpt lat="45.61748" lon="2.99891">
        <ele>902.1</ele>
        <time>2021-08-26T14:22:29Z</time>
      </trkpt>
      <trkpt lat="45.61749" lon="2.99888">
        <ele>902.1</ele>
        <time>2021-08-26T14:22:31Z</time>
      </trkpt>
      <trkpt lat="45.61751" lon="2.99884">
        <ele>902.3</ele>
        <time>2021-08-26T14:22:33Z</time>
      </trkpt>
      <trkpt lat="45.61754" lon="2.9988">
        <ele>902.5</ele>
        <time>2021-08-26T14:22:35Z</time>
      </trkpt>
      <trkpt lat="45.61755" lon="2.99876">
        <ele>902.4</ele>
        <time>2021-08-26T14:22:37Z</time>
      </trkpt>
      <trkpt lat="45.61757" lon="2.99872">
        <ele>902.5</ele>
        <time>2021-08-26T14:22:39Z</time>
      </trkpt>
      <trkpt lat="45.61759" lon="2.99868">
        <ele>902.6</ele>
        <time>2021-08-26T14:22:41Z</time>
      </trkpt>
      <trkpt lat="45.61761" lon="2.99865">
        <ele>902.7</ele>
        <time>2021-08-26T14:22:43Z</time>
      </trkpt>
      <trkpt lat="45.61763" lon="2.9986">
        <ele>902.8</ele>
        <time>2021-08-26T14:22:45Z</time>
      </trkpt>
      <trkpt lat="45.61765" lon="2.99856">
        <ele>902.9</ele>
        <time>2021-08-26T14:22:47Z</time>
      </trkpt>
      <trkpt lat="45.61767" lon="2.99852">
        <ele>902.9</ele>
        <time>2021-08-26T14:22:49Z</time>
      </trkpt>
      <trkpt lat="45.61769" lon="2.99849">
        <ele>903.1</ele>
        <time>2021-08-26T14:22:51Z</time>
      </trkpt>
      <trkpt lat="45.61771" lon="2.99845">
        <ele>903.3</ele>
        <time>2021-08-26T14:22:53Z</time>
      </trkpt>
      <trkpt lat="45.61773" lon="2.9984">
        <ele>903.3</ele>
        <time>2021-08-26T14:22:55Z</time>
      </trkpt>
      <trkpt lat="45.61775" lon="2.99836">
        <ele>903.4</ele>
        <time>2021-08-26T14:22:57Z</time>
      </trkpt>
      <trkpt lat="45.61778" lon="2.99832">
        <ele>903.6</ele>
        <time>2021-08-26T14:22:59Z</time>
      </trkpt>
      <trkpt lat="45.61779" lon="2.99828">
        <ele>903.6</ele>
        <time>2021-08-26T14:23:01Z</time>
      </trkpt>
      <trkpt lat="45.61781" lon="2.99824">
        <ele>903.5</ele>
        <time>2021-08-26T14:23:03Z</time>
      </trkpt>
      <trkpt lat="45.61782" lon="2.9982">
        <ele>903.5</ele>
        <time>2021-08-26T14:23:05Z</time>
      </trkpt>
      <trkpt lat="45.61785" lon="2.99817">
        <ele>903.7</ele>
        <time>2021-08-26T14:23:07Z</time>
      </trkpt>
      <trkpt lat="45.61787" lon="2.99813">
        <ele>903.9</ele>
        <time>2021-08-26T14:23:09Z</time>
      </trkpt>
      <trkpt lat="45.61789" lon="2.9981">
        <ele>904</ele>
        <time>2021-08-26T14:23:11Z</time>
      </trkpt>
      <trkpt lat="45.61791" lon="2.99806">
        <ele>904.1</ele>
        <time>2021-08-26T14:23:13Z</time>
      </trkpt>
      <trkpt lat="45.61793" lon="2.99802">
        <ele>904.1</ele>
        <time>2021-08-26T14:23:15Z</time>
      </trkpt>
      <trkpt lat="45.61795" lon="2.99798">
        <ele>904.2</ele>
        <time>2021-08-26T14:23:17Z</time>
      </trkpt>
      <trkpt lat="45.61797" lon="2.99794">
        <ele>904.3</ele>
        <time>2021-08-26T14:23:19Z</time>
      </trkpt>
      <trkpt lat="45.61799" lon="2.9979">
        <ele>904.3</ele>
        <time>2021-08-26T14:23:21Z</time>
      </trkpt>
      <trkpt lat="45.618" lon="2.99787">
        <ele>904.5</ele>
        <time>2021-08-26T14:23:23Z</time>
      </trkpt>
      <trkpt lat="45.61802" lon="2.99782">
        <ele>904.5</ele>
        <time>2021-08-26T14:23:25Z</time>
      </trkpt>
      <trkpt lat="45.61804" lon="2.99779">
        <ele>904.6</ele>
        <time>2021-08-26T14:23:27Z</time>
      </trkpt>
      <trkpt lat="45.61806" lon="2.99775">
        <ele>904.7</ele>
        <time>2021-08-26T14:23:29Z</time>
      </trkpt>
      <trkpt lat="45.61808" lon="2.99772">
        <ele>904.9</ele>
        <time>2021-08-26T14:23:31Z</time>
      </trkpt>
      <trkpt lat="45.61811" lon="2.99768">
        <ele>905.1</ele>
        <time>2021-08-26T14:23:33Z</time>
      </trkpt>
      <trkpt lat="45.61813" lon="2.99764">
        <ele>905.2</ele>
        <time>2021-08-26T14:23:35Z</time>
      </trkpt>
      <trkpt lat="45.61816" lon="2.99761">
        <ele>905.5</ele>
        <time>2021-08-26T14:23:37Z</time>
      </trkpt>
      <trkpt lat="45.61818" lon="2.99757">
        <ele>905.7</ele>
        <time>2021-08-26T14:23:39Z</time>
      </trkpt>
      <trkpt lat="45.6182" lon="2.99754">
        <ele>905.8</ele>
        <time>2021-08-26T14:23:41Z</time>
      </trkpt>
      <trkpt lat="45.61822" lon="2.9975">
        <ele>906</ele>
        <time>2021-08-26T14:23:43Z</time>
      </trkpt>
      <trkpt lat="45.61825" lon="2.99747">
        <ele>906.4</ele>
        <time>2021-08-26T14:23:45Z</time>
      </trkpt>
      <trkpt lat="45.61827" lon="2.99743">
        <ele>906.6</ele>
        <time>2021-08-26T14:23:47Z</time>
      </trkpt>
      <trkpt lat="45.6183" lon="2.99739">
        <ele>906.8</ele>
        <time>2021-08-26T14:23:49Z</time>
      </trkpt>
      <trkpt lat="45.61832" lon="2.99736">
        <ele>907.1</ele>
        <time>2021-08-26T14:23:51Z</time>
      </trkpt>
      <trkpt lat="45.61835" lon="2.99733">
        <ele>907.4</ele>
        <time>2021-08-26T14:23:53Z</time>
      </trkpt>
      <trkpt lat="45.61837" lon="2.99729">
        <ele>907.7</ele>
        <time>2021-08-26T14:23:55Z</time>
      </trkpt>
      <trkpt lat="45.61839" lon="2.99726">
        <ele>907.9</ele>
        <time>2021-08-26T14:23:57Z</time>
      </trkpt>
      <trkpt lat="45.61842" lon="2.99723">
        <ele>908.2</ele>
        <time>2021-08-26T14:23:59Z</time>
      </trkpt>
      <trkpt lat="45.61845" lon="2.99719">
        <ele>908.5</ele>
        <time>2021-08-26T14:24:01Z</time>
      </trkpt>
      <trkpt lat="45.61847" lon="2.99716">
        <ele>908.8</ele>
        <time>2021-08-26T14:24:03Z</time>
      </trkpt>
      <trkpt lat="45.6185" lon="2.99713">
        <ele>909.1</ele>
        <time>2021-08-26T14:24:05Z</time>
      </trkpt>
      <trkpt lat="45.61852" lon="2.99709">
        <ele>909.5</ele>
        <time>2021-08-26T14:24:07Z</time>
      </trkpt>
      <trkpt lat="45.61855" lon="2.99706">
        <ele>909.8</ele>
        <time>2021-08-26T14:24:09Z</time>
      </trkpt>
      <trkpt lat="45.61857" lon="2.99703">
        <ele>910.1</ele>
        <time>2021-08-26T14:24:11Z</time>
      </trkpt>
      <trkpt lat="45.6186" lon="2.99699">
        <ele>910.4</ele>
        <time>2021-08-26T14:24:13Z</time>
      </trkpt>
      <trkpt lat="45.61863" lon="2.99696">
        <ele>910.8</ele>
        <time>2021-08-26T14:24:15Z</time>
      </trkpt>
      <trkpt lat="45.61865" lon="2.99692">
        <ele>911.1</ele>
        <time>2021-08-26T14:24:17Z</time>
      </trkpt>
      <trkpt lat="45.61868" lon="2.99689">
        <ele>911.5</ele>
        <time>2021-08-26T14:24:19Z</time>
      </trkpt>
      <trkpt lat="45.61871" lon="2.99686">
        <ele>911.9</ele>
        <time>2021-08-26T14:24:21Z</time>
      </trkpt>
      <trkpt lat="45.61873" lon="2.99682">
        <ele>912.2</ele>
        <time>2021-08-26T14:24:23Z</time>
      </trkpt>
      <trkpt lat="45.61875" lon="2.99679">
        <ele>912.5</ele>
        <time>2021-08-26T14:24:25Z</time>
      </trkpt>
      <trkpt lat="45.61878" lon="2.99675">
        <ele>912.9</ele>
        <time>2021-08-26T14:24:27Z</time>
      </trkpt>
      <trkpt lat="45.6188" lon="2.99671">
        <ele>913.2</ele>
        <time>2021-08-26T14:24:29Z</time>
      </trkpt>
      <trkpt lat="45.61883" lon="2.99668">
        <ele>913.5</ele>
        <time>2021-08-26T14:24:31Z</time>
      </trkpt>
      <trkpt lat="45.61885" lon="2.99664">
        <ele>913.8</ele>
        <time>2021-08-26T14:24:33Z</time>
      </trkpt>
      <trkpt lat="45.61887" lon="2.9966">
        <ele>914.2</ele>
        <time>2021-08-26T14:24:35Z</time>
      </trkpt>
      <trkpt lat="45.6189" lon="2.99656">
        <ele>914.6</ele>
        <time>2021-08-26T14:24:37Z</time>
      </trkpt>
      <trkpt lat="45.61892" lon="2.99653">
        <ele>914.9</ele>
        <time>2021-08-26T14:24:39Z</time>
      </trkpt>
      <trkpt lat="45.61894" lon="2.99649">
        <ele>915.3</ele>
        <time>2021-08-26T14:24:41Z</time>
      </trkpt>
      <trkpt lat="45.61896" lon="2.99645">
        <ele>915.7</ele>
        <time>2021-08-26T14:24:43Z</time>
      </trkpt>
      <trkpt lat="45.61899" lon="2.99641">
        <ele>916</ele>
        <time>2021-08-26T14:24:45Z</time>
      </trkpt>
      <trkpt lat="45.61901" lon="2.99637">
        <ele>916.4</ele>
        <time>2021-08-26T14:24:47Z</time>
      </trkpt>
      <trkpt lat="45.61903" lon="2.99633">
        <ele>916.7</ele>
        <time>2021-08-26T14:24:49Z</time>
      </trkpt>
      <trkpt lat="45.61905" lon="2.99629">
        <ele>917.1</ele>
        <time>2021-08-26T14:24:51Z</time>
      </trkpt>
      <trkpt lat="45.61907" lon="2.99626">
        <ele>917.5</ele>
        <time>2021-08-26T14:24:53Z</time>
      </trkpt>
      <trkpt lat="45.6191" lon="2.99622">
        <ele>918</ele>
        <time>2021-08-26T14:24:55Z</time>
      </trkpt>
      <trkpt lat="45.61912" lon="2.99618">
        <ele>918.4</ele>
        <time>2021-08-26T14:24:57Z</time>
      </trkpt>
      <trkpt lat="45.61914" lon="2.99614">
        <ele>918.7</ele>
        <time>2021-08-26T14:24:59Z</time>
      </trkpt>
      <trkpt lat="45.61916" lon="2.9961">
        <ele>919.1</ele>
        <time>2021-08-26T14:25:01Z</time>
      </trkpt>
      <trkpt lat="45.61918" lon="2.99606">
        <ele>919.4</ele>
        <time>2021-08-26T14:25:03Z</time>
      </trkpt>
      <trkpt lat="45.6192" lon="2.99602">
        <ele>919.5</ele>
        <time>2021-08-26T14:25:05Z</time>
      </trkpt>
      <trkpt lat="45.61922" lon="2.99599">
        <ele>919.8</ele>
        <time>2021-08-26T14:25:07Z</time>
      </trkpt>
      <trkpt lat="45.61925" lon="2.99595">
        <ele>920</ele>
        <time>2021-08-26T14:25:09Z</time>
      </trkpt>
      <trkpt lat="45.61928" lon="2.99592">
        <ele>920.3</ele>
        <time>2021-08-26T14:25:11Z</time>
      </trkpt>
      <trkpt lat="45.61931" lon="2.99589">
        <ele>920.6</ele>
        <time>2021-08-26T14:25:13Z</time>
      </trkpt>
      <trkpt lat="45.61934" lon="2.99587">
        <ele>920.9</ele>
        <time>2021-08-26T14:25:15Z</time>
      </trkpt>
      <trkpt lat="45.61937" lon="2.99587">
        <ele>921.2</ele>
        <time>2021-08-26T14:25:17Z</time>
      </trkpt>
      <trkpt lat="45.61941" lon="2.99586">
        <ele>921.6</ele>
        <time>2021-08-26T14:25:19Z</time>
      </trkpt>
      <trkpt lat="45.61944" lon="2.99587">
        <ele>922</ele>
        <time>2021-08-26T14:25:21Z</time>
      </trkpt>
      <trkpt lat="45.61947" lon="2.99588">
        <ele>922.3</ele>
        <time>2021-08-26T14:25:23Z</time>
      </trkpt>
      <trkpt lat="45.61951" lon="2.99589">
        <ele>922.6</ele>
        <time>2021-08-26T14:25:25Z</time>
      </trkpt>
      <trkpt lat="45.61953" lon="2.99592">
        <ele>922.9</ele>
        <time>2021-08-26T14:25:27Z</time>
      </trkpt>
      <trkpt lat="45.61956" lon="2.99595">
        <ele>923.2</ele>
        <time>2021-08-26T14:25:29Z</time>
      </trkpt>
      <trkpt lat="45.61958" lon="2.99599">
        <ele>923.4</ele>
        <time>2021-08-26T14:25:31Z</time>
      </trkpt>
      <trkpt lat="45.61958" lon="2.99603">
        <ele>923.4</ele>
        <time>2021-08-26T14:25:33Z</time>
      </trkpt>
      <trkpt lat="45.61959" lon="2.99607">
        <ele>923.5</ele>
        <time>2021-08-26T14:25:35Z</time>
      </trkpt>
      <trkpt lat="45.6196" lon="2.99613">
        <ele>923.5</ele>
        <time>2021-08-26T14:25:37Z</time>
      </trkpt>
      <trkpt lat="45.61961" lon="2.99619">
        <ele>923.5</ele>
        <time>2021-08-26T14:25:39Z</time>
      </trkpt>
      <trkpt lat="45.6196" lon="2.99624">
        <ele>923.4</ele>
        <time>2021-08-26T14:25:41Z</time>
      </trkpt>
      <trkpt lat="45.6196" lon="2.99629">
        <ele>923.4</ele>
        <time>2021-08-26T14:25:43Z</time>
      </trkpt>
      <trkpt lat="45.6196" lon="2.99633">
        <ele>923.4</ele>
        <time>2021-08-26T14:25:45Z</time>
      </trkpt>
      <trkpt lat="45.6196" lon="2.99637">
        <ele>923.3</ele>
        <time>2021-08-26T14:25:47Z</time>
      </trkpt>
      <trkpt lat="45.61959" lon="2.99641">
        <ele>923.2</ele>
        <time>2021-08-26T14:25:49Z</time>
      </trkpt>
      <trkpt lat="45.6196" lon="2.99646">
        <ele>923.2</ele>
        <time>2021-08-26T14:25:51Z</time>
      </trkpt>
      <trkpt lat="45.6196" lon="2.99651">
        <ele>923.2</ele>
        <time>2021-08-26T14:25:53Z</time>
      </trkpt>
      <trkpt lat="45.61961" lon="2.99656">
        <ele>923.3</ele>
        <time>2021-08-26T14:25:55Z</time>
      </trkpt>
      <trkpt lat="45.61962" lon="2.99661">
        <ele>923.3</ele>
        <time>2021-08-26T14:25:57Z</time>
      </trkpt>
      <trkpt lat="45.61964" lon="2.99664">
        <ele>923.4</ele>
        <time>2021-08-26T14:25:59Z</time>
      </trkpt>
      <trkpt lat="45.61966" lon="2.99668">
        <ele>923.6</ele>
        <time>2021-08-26T14:26:01Z</time>
      </trkpt>
      <trkpt lat="45.61968" lon="2.99671">
        <ele>923.8</ele>
        <time>2021-08-26T14:26:03Z</time>
      </trkpt>
      <trkpt lat="45.6197" lon="2.99674">
        <ele>924</ele>
        <time>2021-08-26T14:26:05Z</time>
      </trkpt>
      <trkpt lat="45.61973" lon="2.99675">
        <ele>924.3</ele>
        <time>2021-08-26T14:26:07Z</time>
      </trkpt>
      <trkpt lat="45.61976" lon="2.99677">
        <ele>924.5</ele>
        <time>2021-08-26T14:26:09Z</time>
      </trkpt>
      <trkpt lat="45.61979" lon="2.99678">
        <ele>924.8</ele>
        <time>2021-08-26T14:26:11Z</time>
      </trkpt>
      <trkpt lat="45.61982" lon="2.9968">
        <ele>925</ele>
        <time>2021-08-26T14:26:13Z</time>
      </trkpt>
      <trkpt lat="45.61985" lon="2.99681">
        <ele>925.3</ele>
        <time>2021-08-26T14:26:15Z</time>
      </trkpt>
      <trkpt lat="45.61987" lon="2.99683">
        <ele>925.4</ele>
        <time>2021-08-26T14:26:17Z</time>
      </trkpt>
      <trkpt lat="45.61989" lon="2.99684">
        <ele>925.6</ele>
        <time>2021-08-26T14:26:19Z</time>
      </trkpt>
      <trkpt lat="45.61991" lon="2.99685">
        <ele>925.8</ele>
        <time>2021-08-26T14:26:21Z</time>
      </trkpt>
      <trkpt lat="45.61993" lon="2.99686">
        <ele>925.9</ele>
        <time>2021-08-26T14:26:23Z</time>
      </trkpt>
      <trkpt lat="45.61994" lon="2.99686">
        <ele>926.1</ele>
        <time>2021-08-26T14:26:25Z</time>
      </trkpt>
      <trkpt lat="45.61994" lon="2.99686">
        <ele>926</ele>
        <time>2021-08-26T14:26:27Z</time>
      </trkpt>
      <trkpt lat="45.61994" lon="2.99686">
        <ele>926</ele>
        <time>2021-08-26T14:26:29Z</time>
      </trkpt>
      <trkpt lat="45.61994" lon="2.99686">
        <ele>926</ele>
        <time>2021-08-26T14:26:31Z</time>
      </trkpt>
      <trkpt lat="45.62013" lon="2.99684">
        <ele>925.2</ele>
        <time>2021-08-26T14:31:09Z</time>
      </trkpt>
      <trkpt lat="45.6202" lon="2.99683">
        <ele>924.6</ele>
        <time>2021-08-26T14:31:11Z</time>
      </trkpt>
      <trkpt lat="45.62028" lon="2.99681">
        <ele>923.9</ele>
        <time>2021-08-26T14:31:13Z</time>
      </trkpt>
      <trkpt lat="45.62036" lon="2.99676">
        <ele>923</ele>
        <time>2021-08-26T14:31:15Z</time>
      </trkpt>
      <trkpt lat="45.62047" lon="2.9967">
        <ele>922.1</ele>
        <time>2021-08-26T14:31:17Z</time>
      </trkpt>
      <trkpt lat="45.62058" lon="2.99662">
        <ele>921.3</ele>
        <time>2021-08-26T14:31:19Z</time>
      </trkpt>
      <trkpt lat="45.6207" lon="2.99654">
        <ele>920.7</ele>
        <time>2021-08-26T14:31:21Z</time>
      </trkpt>
      <trkpt lat="45.62082" lon="2.99646">
        <ele>920.1</ele>
        <time>2021-08-26T14:31:23Z</time>
      </trkpt>
      <trkpt lat="45.62095" lon="2.99636">
        <ele>917.5</ele>
        <time>2021-08-26T14:31:25Z</time>
      </trkpt>
      <trkpt lat="45.62106" lon="2.99622">
        <ele>915.2</ele>
        <time>2021-08-26T14:31:27Z</time>
      </trkpt>
      <trkpt lat="45.62116" lon="2.99603">
        <ele>913.7</ele>
        <time>2021-08-26T14:31:29Z</time>
      </trkpt>
      <trkpt lat="45.62124" lon="2.99579">
        <ele>912.9</ele>
        <time>2021-08-26T14:31:31Z</time>
      </trkpt>
      <trkpt lat="45.62132" lon="2.99554">
        <ele>911.8</ele>
        <time>2021-08-26T14:31:33Z</time>
      </trkpt>
      <trkpt lat="45.62137" lon="2.99525">
        <ele>911.2</ele>
        <time>2021-08-26T14:31:35Z</time>
      </trkpt>
      <trkpt lat="45.62142" lon="2.99496">
        <ele>910.8</ele>
        <time>2021-08-26T14:31:37Z</time>
      </trkpt>
      <trkpt lat="45.62146" lon="2.99464">
        <ele>909.1</ele>
        <time>2021-08-26T14:31:39Z</time>
      </trkpt>
      <trkpt lat="45.62148" lon="2.99432">
        <ele>907.7</ele>
        <time>2021-08-26T14:31:41Z</time>
      </trkpt>
      <trkpt lat="45.6215" lon="2.99401">
        <ele>906.2</ele>
        <time>2021-08-26T14:31:43Z</time>
      </trkpt>
      <trkpt lat="45.6215" lon="2.99374">
        <ele>904.7</ele>
        <time>2021-08-26T14:31:45Z</time>
      </trkpt>
      <trkpt lat="45.6215" lon="2.9935">
        <ele>903.5</ele>
        <time>2021-08-26T14:31:47Z</time>
      </trkpt>
      <trkpt lat="45.62146" lon="2.99329">
        <ele>903.7</ele>
        <time>2021-08-26T14:31:49Z</time>
      </trkpt>
      <trkpt lat="45.6214" lon="2.99307">
        <ele>904</ele>
        <time>2021-08-26T14:31:51Z</time>
      </trkpt>
      <trkpt lat="45.62131" lon="2.99285">
        <ele>905</ele>
        <time>2021-08-26T14:31:53Z</time>
      </trkpt>
      <trkpt lat="45.62126" lon="2.99259">
        <ele>904.7</ele>
        <time>2021-08-26T14:31:55Z</time>
      </trkpt>
      <trkpt lat="45.62125" lon="2.9923">
        <ele>903.1</ele>
        <time>2021-08-26T14:31:57Z</time>
      </trkpt>
      <trkpt lat="45.62124" lon="2.992">
        <ele>901.5</ele>
        <time>2021-08-26T14:31:59Z</time>
      </trkpt>
      <trkpt lat="45.62122" lon="2.9917">
        <ele>900</ele>
        <time>2021-08-26T14:32:01Z</time>
      </trkpt>
      <trkpt lat="45.62121" lon="2.99141">
        <ele>899.2</ele>
        <time>2021-08-26T14:32:03Z</time>
      </trkpt>
      <trkpt lat="45.6212" lon="2.99114">
        <ele>898.7</ele>
        <time>2021-08-26T14:32:05Z</time>
      </trkpt>
      <trkpt lat="45.62124" lon="2.99087">
        <ele>897</ele>
        <time>2021-08-26T14:32:07Z</time>
      </trkpt>
      <trkpt lat="45.62134" lon="2.99061">
        <ele>894.5</ele>
        <time>2021-08-26T14:32:09Z</time>
      </trkpt>
      <trkpt lat="45.62146" lon="2.99037">
        <ele>892.1</ele>
        <time>2021-08-26T14:32:11Z</time>
      </trkpt>
      <trkpt lat="45.62159" lon="2.99011">
        <ele>889.6</ele>
        <time>2021-08-26T14:32:13Z</time>
      </trkpt>
      <trkpt lat="45.62172" lon="2.98985">
        <ele>888.6</ele>
        <time>2021-08-26T14:32:15Z</time>
      </trkpt>
      <trkpt lat="45.62183" lon="2.98962">
        <ele>889</ele>
        <time>2021-08-26T14:32:17Z</time>
      </trkpt>
      <trkpt lat="45.62194" lon="2.98946">
        <ele>889.1</ele>
        <time>2021-08-26T14:32:19Z</time>
      </trkpt>
      <trkpt lat="45.62211" lon="2.98935">
        <ele>887.9</ele>
        <time>2021-08-26T14:32:21Z</time>
      </trkpt>
      <trkpt lat="45.62231" lon="2.98936">
        <ele>885</ele>
        <time>2021-08-26T14:32:23Z</time>
      </trkpt>
      <trkpt lat="45.62251" lon="2.9894">
        <ele>881.3</ele>
        <time>2021-08-26T14:32:25Z</time>
      </trkpt>
      <trkpt lat="45.62269" lon="2.98943">
        <ele>876.7</ele>
        <time>2021-08-26T14:32:27Z</time>
      </trkpt>
      <trkpt lat="45.62284" lon="2.98941">
        <ele>873.2</ele>
        <time>2021-08-26T14:32:29Z</time>
      </trkpt>
      <trkpt lat="45.62299" lon="2.9893">
        <ele>871.3</ele>
        <time>2021-08-26T14:32:31Z</time>
      </trkpt>
      <trkpt lat="45.62309" lon="2.98909">
        <ele>871.4</ele>
        <time>2021-08-26T14:32:33Z</time>
      </trkpt>
      <trkpt lat="45.62312" lon="2.98881">
        <ele>872.5</ele>
        <time>2021-08-26T14:32:35Z</time>
      </trkpt>
      <trkpt lat="45.62311" lon="2.98852">
        <ele>874.9</ele>
        <time>2021-08-26T14:32:37Z</time>
      </trkpt>
      <trkpt lat="45.6231" lon="2.98822">
        <ele>876.8</ele>
        <time>2021-08-26T14:32:39Z</time>
      </trkpt>
      <trkpt lat="45.62309" lon="2.98793">
        <ele>877.7</ele>
        <time>2021-08-26T14:32:41Z</time>
      </trkpt>
      <trkpt lat="45.62312" lon="2.98767">
        <ele>877.1</ele>
        <time>2021-08-26T14:32:43Z</time>
      </trkpt>
      <trkpt lat="45.62319" lon="2.98742">
        <ele>874.9</ele>
        <time>2021-08-26T14:32:45Z</time>
      </trkpt>
      <trkpt lat="45.62331" lon="2.98719">
        <ele>872.1</ele>
        <time>2021-08-26T14:32:47Z</time>
      </trkpt>
      <trkpt lat="45.62347" lon="2.98708">
        <ele>872.2</ele>
        <time>2021-08-26T14:32:49Z</time>
      </trkpt>
      <trkpt lat="45.62363" lon="2.98712">
        <ele>872</ele>
        <time>2021-08-26T14:32:51Z</time>
      </trkpt>
      <trkpt lat="45.6237" lon="2.98728">
        <ele>870.6</ele>
        <time>2021-08-26T14:32:53Z</time>
      </trkpt>
      <trkpt lat="45.62368" lon="2.9875">
        <ele>868.6</ele>
        <time>2021-08-26T14:32:55Z</time>
      </trkpt>
      <trkpt lat="45.62361" lon="2.9877">
        <ele>867.7</ele>
        <time>2021-08-26T14:32:57Z</time>
      </trkpt>
      <trkpt lat="45.62362" lon="2.98792">
        <ele>866.6</ele>
        <time>2021-08-26T14:32:59Z</time>
      </trkpt>
      <trkpt lat="45.6237" lon="2.98812">
        <ele>864.4</ele>
        <time>2021-08-26T14:33:01Z</time>
      </trkpt>
      <trkpt lat="45.62381" lon="2.98829">
        <ele>861.2</ele>
        <time>2021-08-26T14:33:03Z</time>
      </trkpt>
      <trkpt lat="45.62393" lon="2.98838">
        <ele>857.9</ele>
        <time>2021-08-26T14:33:05Z</time>
      </trkpt>
      <trkpt lat="45.62407" lon="2.98835">
        <ele>855.6</ele>
        <time>2021-08-26T14:33:07Z</time>
      </trkpt>
      <trkpt lat="45.62423" lon="2.98826">
        <ele>854.4</ele>
        <time>2021-08-26T14:33:09Z</time>
      </trkpt>
      <trkpt lat="45.62441" lon="2.98821">
        <ele>852.9</ele>
        <time>2021-08-26T14:33:11Z</time>
      </trkpt>
      <trkpt lat="45.62461" lon="2.98822">
        <ele>850.1</ele>
        <time>2021-08-26T14:33:13Z</time>
      </trkpt>
      <trkpt lat="45.62481" lon="2.98823">
        <ele>847.3</ele>
        <time>2021-08-26T14:33:15Z</time>
      </trkpt>
      <trkpt lat="45.625" lon="2.98821">
        <ele>845</ele>
        <time>2021-08-26T14:33:17Z</time>
      </trkpt>
      <trkpt lat="45.62519" lon="2.98811">
        <ele>846.1</ele>
        <time>2021-08-26T14:33:19Z</time>
      </trkpt>
      <trkpt lat="45.62534" lon="2.98799">
        <ele>846.9</ele>
        <time>2021-08-26T14:33:21Z</time>
      </trkpt>
      <trkpt lat="45.6255" lon="2.988">
        <ele>846.2</ele>
        <time>2021-08-26T14:33:23Z</time>
      </trkpt>
      <trkpt lat="45.62565" lon="2.9881">
        <ele>845</ele>
        <time>2021-08-26T14:33:25Z</time>
      </trkpt>
      <trkpt lat="45.62578" lon="2.98824">
        <ele>844.2</ele>
        <time>2021-08-26T14:33:27Z</time>
      </trkpt>
      <trkpt lat="45.62591" lon="2.98835">
        <ele>845.7</ele>
        <time>2021-08-26T14:33:29Z</time>
      </trkpt>
      <trkpt lat="45.62605" lon="2.98846">
        <ele>849.1</ele>
        <time>2021-08-26T14:33:31Z</time>
      </trkpt>
      <trkpt lat="45.62619" lon="2.98858">
        <ele>851.7</ele>
        <time>2021-08-26T14:33:33Z</time>
      </trkpt>
      <trkpt lat="45.62632" lon="2.98869">
        <ele>853.3</ele>
        <time>2021-08-26T14:33:35Z</time>
      </trkpt>
      <trkpt lat="45.62645" lon="2.9888">
        <ele>854.1</ele>
        <time>2021-08-26T14:33:37Z</time>
      </trkpt>
      <trkpt lat="45.62656" lon="2.9889">
        <ele>854.2</ele>
        <time>2021-08-26T14:33:39Z</time>
      </trkpt>
      <trkpt lat="45.62667" lon="2.98899">
        <ele>853.7</ele>
        <time>2021-08-26T14:33:41Z</time>
      </trkpt>
      <trkpt lat="45.62675" lon="2.98906">
        <ele>854.4</ele>
        <time>2021-08-26T14:33:43Z</time>
      </trkpt>
      <trkpt lat="45.62683" lon="2.98912">
        <ele>855</ele>
        <time>2021-08-26T14:33:45Z</time>
      </trkpt>
      <trkpt lat="45.6269" lon="2.98919">
        <ele>855.5</ele>
        <time>2021-08-26T14:33:47Z</time>
      </trkpt>
      <trkpt lat="45.62697" lon="2.98924">
        <ele>856.7</ele>
        <time>2021-08-26T14:33:49Z</time>
      </trkpt>
      <trkpt lat="45.62702" lon="2.98928">
        <ele>857.5</ele>
        <time>2021-08-26T14:33:51Z</time>
      </trkpt>
      <trkpt lat="45.62708" lon="2.98932">
        <ele>858.2</ele>
        <time>2021-08-26T14:33:53Z</time>
      </trkpt>
      <trkpt lat="45.62713" lon="2.98937">
        <ele>858.7</ele>
        <time>2021-08-26T14:33:55Z</time>
      </trkpt>
      <trkpt lat="45.62719" lon="2.98941">
        <ele>859.1</ele>
        <time>2021-08-26T14:33:57Z</time>
      </trkpt>
      <trkpt lat="45.62724" lon="2.98945">
        <ele>859.3</ele>
        <time>2021-08-26T14:33:59Z</time>
      </trkpt>
      <trkpt lat="45.62728" lon="2.98949">
        <ele>859.3</ele>
        <time>2021-08-26T14:34:01Z</time>
      </trkpt>
      <trkpt lat="45.62732" lon="2.98952">
        <ele>859.3</ele>
        <time>2021-08-26T14:34:03Z</time>
      </trkpt>
      <trkpt lat="45.62737" lon="2.98955">
        <ele>859.2</ele>
        <time>2021-08-26T14:34:05Z</time>
      </trkpt>
      <trkpt lat="45.6274" lon="2.98959">
        <ele>858.9</ele>
        <time>2021-08-26T14:34:07Z</time>
      </trkpt>
      <trkpt lat="45.62744" lon="2.98963">
        <ele>858.5</ele>
        <time>2021-08-26T14:34:09Z</time>
      </trkpt>
      <trkpt lat="45.62748" lon="2.98966">
        <ele>858.1</ele>
        <time>2021-08-26T14:34:11Z</time>
      </trkpt>
      <trkpt lat="45.62751" lon="2.98969">
        <ele>857.9</ele>
        <time>2021-08-26T14:34:13Z</time>
      </trkpt>
      <trkpt lat="45.62754" lon="2.98973">
        <ele>857.9</ele>
        <time>2021-08-26T14:34:15Z</time>
      </trkpt>
      <trkpt lat="45.62758" lon="2.98977">
        <ele>857.9</ele>
        <time>2021-08-26T14:34:17Z</time>
      </trkpt>
      <trkpt lat="45.62762" lon="2.98982">
        <ele>857.9</ele>
        <time>2021-08-26T14:34:19Z</time>
      </trkpt>
      <trkpt lat="45.62765" lon="2.98987">
        <ele>857.7</ele>
        <time>2021-08-26T14:34:21Z</time>
      </trkpt>
      <trkpt lat="45.62768" lon="2.98991">
        <ele>857.6</ele>
        <time>2021-08-26T14:34:23Z</time>
      </trkpt>
      <trkpt lat="45.62772" lon="2.98997">
        <ele>857.3</ele>
        <time>2021-08-26T14:34:25Z</time>
      </trkpt>
      <trkpt lat="45.62775" lon="2.99003">
        <ele>857.4</ele>
        <time>2021-08-26T14:34:27Z</time>
      </trkpt>
      <trkpt lat="45.62778" lon="2.99008">
        <ele>857.9</ele>
        <time>2021-08-26T14:34:29Z</time>
      </trkpt>
      <trkpt lat="45.62781" lon="2.99014">
        <ele>858.4</ele>
        <time>2021-08-26T14:34:31Z</time>
      </trkpt>
      <trkpt lat="45.62784" lon="2.9902">
        <ele>858.7</ele>
        <time>2021-08-26T14:34:33Z</time>
      </trkpt>
      <trkpt lat="45.62787" lon="2.99025">
        <ele>859</ele>
        <time>2021-08-26T14:34:35Z</time>
      </trkpt>
      <trkpt lat="45.62791" lon="2.99029">
        <ele>859.1</ele>
        <time>2021-08-26T14:34:37Z</time>
      </trkpt>
      <trkpt lat="45.62796" lon="2.99033">
        <ele>859.2</ele>
        <time>2021-08-26T14:34:39Z</time>
      </trkpt>
      <trkpt lat="45.62801" lon="2.99036">
        <ele>859.2</ele>
        <time>2021-08-26T14:34:41Z</time>
      </trkpt>
      <trkpt lat="45.62806" lon="2.99039">
        <ele>859.2</ele>
        <time>2021-08-26T14:34:43Z</time>
      </trkpt>
      <trkpt lat="45.62811" lon="2.99041">
        <ele>859.1</ele>
        <time>2021-08-26T14:34:45Z</time>
      </trkpt>
      <trkpt lat="45.62816" lon="2.99042">
        <ele>858.9</ele>
        <time>2021-08-26T14:34:47Z</time>
      </trkpt>
      <trkpt lat="45.62821" lon="2.99044">
        <ele>858.7</ele>
        <time>2021-08-26T14:34:49Z</time>
      </trkpt>
      <trkpt lat="45.62826" lon="2.99046">
        <ele>858.5</ele>
        <time>2021-08-26T14:34:51Z</time>
      </trkpt>
      <trkpt lat="45.62831" lon="2.99047">
        <ele>858.3</ele>
        <time>2021-08-26T14:34:53Z</time>
      </trkpt>
      <trkpt lat="45.62835" lon="2.99048">
        <ele>858.1</ele>
        <time>2021-08-26T14:34:55Z</time>
      </trkpt>
      <trkpt lat="45.6284" lon="2.9905">
        <ele>858.2</ele>
        <time>2021-08-26T14:34:57Z</time>
      </trkpt>
      <trkpt lat="45.62845" lon="2.99052">
        <ele>858.3</ele>
        <time>2021-08-26T14:34:59Z</time>
      </trkpt>
      <trkpt lat="45.6285" lon="2.99055">
        <ele>858.2</ele>
        <time>2021-08-26T14:35:01Z</time>
      </trkpt>
      <trkpt lat="45.62855" lon="2.99057">
        <ele>858.1</ele>
        <time>2021-08-26T14:35:03Z</time>
      </trkpt>
      <trkpt lat="45.6286" lon="2.9906">
        <ele>857.9</ele>
        <time>2021-08-26T14:35:05Z</time>
      </trkpt>
      <trkpt lat="45.62865" lon="2.99063">
        <ele>857.7</ele>
        <time>2021-08-26T14:35:07Z</time>
      </trkpt>
      <trkpt lat="45.62869" lon="2.99067">
        <ele>857.4</ele>
        <time>2021-08-26T14:35:09Z</time>
      </trkpt>
      <trkpt lat="45.62874" lon="2.9907">
        <ele>857.1</ele>
        <time>2021-08-26T14:35:11Z</time>
      </trkpt>
      <trkpt lat="45.62878" lon="2.99074">
        <ele>856.8</ele>
        <time>2021-08-26T14:35:13Z</time>
      </trkpt>
      <trkpt lat="45.62883" lon="2.99077">
        <ele>856.5</ele>
        <time>2021-08-26T14:35:15Z</time>
      </trkpt>
      <trkpt lat="45.62888" lon="2.9908">
        <ele>856.2</ele>
        <time>2021-08-26T14:35:17Z</time>
      </trkpt>
      <trkpt lat="45.62892" lon="2.99082">
        <ele>856.1</ele>
        <time>2021-08-26T14:35:19Z</time>
      </trkpt>
      <trkpt lat="45.62897" lon="2.99084">
        <ele>856</ele>
        <time>2021-08-26T14:35:21Z</time>
      </trkpt>
      <trkpt lat="45.62902" lon="2.99086">
        <ele>856.1</ele>
        <time>2021-08-26T14:35:23Z</time>
      </trkpt>
      <trkpt lat="45.62907" lon="2.99088">
        <ele>856.2</ele>
        <time>2021-08-26T14:35:25Z</time>
      </trkpt>
      <trkpt lat="45.62912" lon="2.99089">
        <ele>856.3</ele>
        <time>2021-08-26T14:35:27Z</time>
      </trkpt>
      <trkpt lat="45.62917" lon="2.99091">
        <ele>856.3</ele>
        <time>2021-08-26T14:35:29Z</time>
      </trkpt>
      <trkpt lat="45.62923" lon="2.99093">
        <ele>856.6</ele>
        <time>2021-08-26T14:35:31Z</time>
      </trkpt>
      <trkpt lat="45.62928" lon="2.99095">
        <ele>856.8</ele>
        <time>2021-08-26T14:35:33Z</time>
      </trkpt>
      <trkpt lat="45.62934" lon="2.99097">
        <ele>857</ele>
        <time>2021-08-26T14:35:35Z</time>
      </trkpt>
      <trkpt lat="45.62939" lon="2.99099">
        <ele>857.1</ele>
        <time>2021-08-26T14:35:37Z</time>
      </trkpt>
      <trkpt lat="45.62945" lon="2.99102">
        <ele>857.3</ele>
        <time>2021-08-26T14:35:39Z</time>
      </trkpt>
      <trkpt lat="45.62951" lon="2.99105">
        <ele>857.6</ele>
        <time>2021-08-26T14:35:41Z</time>
      </trkpt>
      <trkpt lat="45.62957" lon="2.99107">
        <ele>857.8</ele>
        <time>2021-08-26T14:35:43Z</time>
      </trkpt>
      <trkpt lat="45.62962" lon="2.9911">
        <ele>858</ele>
        <time>2021-08-26T14:35:45Z</time>
      </trkpt>
      <trkpt lat="45.62969" lon="2.99113">
        <ele>858.3</ele>
        <time>2021-08-26T14:35:47Z</time>
      </trkpt>
      <trkpt lat="45.62975" lon="2.99115">
        <ele>858.6</ele>
        <time>2021-08-26T14:35:49Z</time>
      </trkpt>
      <trkpt lat="45.62981" lon="2.99117">
        <ele>859</ele>
        <time>2021-08-26T14:35:51Z</time>
      </trkpt>
      <trkpt lat="45.62989" lon="2.99116">
        <ele>859.6</ele>
        <time>2021-08-26T14:35:53Z</time>
      </trkpt>
      <trkpt lat="45.62995" lon="2.99114">
        <ele>860.2</ele>
        <time>2021-08-26T14:35:55Z</time>
      </trkpt>
      <trkpt lat="45.63001" lon="2.99111">
        <ele>860.7</ele>
        <time>2021-08-26T14:35:57Z</time>
      </trkpt>
      <trkpt lat="45.63006" lon="2.99109">
        <ele>860.9</ele>
        <time>2021-08-26T14:35:59Z</time>
      </trkpt>
      <trkpt lat="45.63012" lon="2.99107">
        <ele>861.1</ele>
        <time>2021-08-26T14:36:01Z</time>
      </trkpt>
      <trkpt lat="45.63017" lon="2.99106">
        <ele>861.2</ele>
        <time>2021-08-26T14:36:03Z</time>
      </trkpt>
      <trkpt lat="45.63023" lon="2.99104">
        <ele>861.3</ele>
        <time>2021-08-26T14:36:05Z</time>
      </trkpt>
      <trkpt lat="45.63028" lon="2.99103">
        <ele>861.5</ele>
        <time>2021-08-26T14:36:07Z</time>
      </trkpt>
      <trkpt lat="45.63034" lon="2.99103">
        <ele>861.6</ele>
        <time>2021-08-26T14:36:09Z</time>
      </trkpt>
      <trkpt lat="45.63039" lon="2.99103">
        <ele>861.7</ele>
        <time>2021-08-26T14:36:11Z</time>
      </trkpt>
      <trkpt lat="45.63045" lon="2.99102">
        <ele>861.8</ele>
        <time>2021-08-26T14:36:13Z</time>
      </trkpt>
      <trkpt lat="45.6305" lon="2.99103">
        <ele>861.8</ele>
        <time>2021-08-26T14:36:15Z</time>
      </trkpt>
      <trkpt lat="45.63054" lon="2.99103">
        <ele>861.9</ele>
        <time>2021-08-26T14:36:17Z</time>
      </trkpt>
      <trkpt lat="45.63059" lon="2.99103">
        <ele>861.9</ele>
        <time>2021-08-26T14:36:19Z</time>
      </trkpt>
      <trkpt lat="45.63064" lon="2.99102">
        <ele>862</ele>
        <time>2021-08-26T14:36:21Z</time>
      </trkpt>
      <trkpt lat="45.63069" lon="2.99103">
        <ele>862.1</ele>
        <time>2021-08-26T14:36:23Z</time>
      </trkpt>
      <trkpt lat="45.63073" lon="2.99103">
        <ele>862.1</ele>
        <time>2021-08-26T14:36:25Z</time>
      </trkpt>
      <trkpt lat="45.63078" lon="2.99103">
        <ele>862.2</ele>
        <time>2021-08-26T14:36:27Z</time>
      </trkpt>
      <trkpt lat="45.63082" lon="2.99103">
        <ele>862.3</ele>
        <time>2021-08-26T14:36:29Z</time>
      </trkpt>
      <trkpt lat="45.63085" lon="2.99103">
        <ele>862.4</ele>
        <time>2021-08-26T14:36:31Z</time>
      </trkpt>
      <trkpt lat="45.63087" lon="2.99103">
        <ele>862.5</ele>
        <time>2021-08-26T14:36:33Z</time>
      </trkpt>
      <trkpt lat="45.6309" lon="2.99104">
        <ele>862.7</ele>
        <time>2021-08-26T14:36:35Z</time>
      </trkpt>
      <trkpt lat="45.63093" lon="2.99104">
        <ele>862.8</ele>
        <time>2021-08-26T14:36:37Z</time>
      </trkpt>
      <trkpt lat="45.63094" lon="2.99103">
        <ele>863</ele>
        <time>2021-08-26T14:36:39Z</time>
      </trkpt>
      <trkpt lat="45.63094" lon="2.99103">
        <ele>862.9</ele>
        <time>2021-08-26T14:36:41Z</time>
      </trkpt>
      <trkpt lat="45.63094" lon="2.99103">
        <ele>862.9</ele>
        <time>2021-08-26T14:36:43Z</time>
      </trkpt>
      <trkpt lat="45.63094" lon="2.99103">
        <ele>862.9</ele>
        <time>2021-08-26T14:36:45Z</time>
      </trkpt>
      <trkpt lat="45.6311" lon="2.99099">
        <ele>864</ele>
        <time>2021-08-26T14:39:07Z</time>
      </trkpt>
      <trkpt lat="45.63114" lon="2.99098">
        <ele>864.3</ele>
        <time>2021-08-26T14:39:09Z</time>
      </trkpt>
      <trkpt lat="45.63118" lon="2.99098">
        <ele>864.6</ele>
        <time>2021-08-26T14:39:11Z</time>
      </trkpt>
      <trkpt lat="45.63123" lon="2.99098">
        <ele>864.8</ele>
        <time>2021-08-26T14:39:13Z</time>
      </trkpt>
      <trkpt lat="45.63127" lon="2.99098">
        <ele>865.1</ele>
        <time>2021-08-26T14:39:15Z</time>
      </trkpt>
      <trkpt lat="45.63131" lon="2.99097">
        <ele>865.4</ele>
        <time>2021-08-26T14:39:17Z</time>
      </trkpt>
      <trkpt lat="45.63136" lon="2.99098">
        <ele>865.6</ele>
        <time>2021-08-26T14:39:19Z</time>
      </trkpt>
      <trkpt lat="45.63141" lon="2.99098">
        <ele>865.9</ele>
        <time>2021-08-26T14:39:21Z</time>
      </trkpt>
      <trkpt lat="45.63145" lon="2.991">
        <ele>866.1</ele>
        <time>2021-08-26T14:39:23Z</time>
      </trkpt>
      <trkpt lat="45.63149" lon="2.99102">
        <ele>866.3</ele>
        <time>2021-08-26T14:39:25Z</time>
      </trkpt>
      <trkpt lat="45.63154" lon="2.99106">
        <ele>866.4</ele>
        <time>2021-08-26T14:39:27Z</time>
      </trkpt>
      <trkpt lat="45.63158" lon="2.99109">
        <ele>866.6</ele>
        <time>2021-08-26T14:39:29Z</time>
      </trkpt>
      <trkpt lat="45.63162" lon="2.99113">
        <ele>866.7</ele>
        <time>2021-08-26T14:39:31Z</time>
      </trkpt>
      <trkpt lat="45.63167" lon="2.99116">
        <ele>866.8</ele>
        <time>2021-08-26T14:39:33Z</time>
      </trkpt>
      <trkpt lat="45.6317" lon="2.9912">
        <ele>866.9</ele>
        <time>2021-08-26T14:39:35Z</time>
      </trkpt>
      <trkpt lat="45.63175" lon="2.99123">
        <ele>866.9</ele>
        <time>2021-08-26T14:39:37Z</time>
      </trkpt>
      <trkpt lat="45.63179" lon="2.99127">
        <ele>867</ele>
        <time>2021-08-26T14:39:39Z</time>
      </trkpt>
      <trkpt lat="45.63183" lon="2.9913">
        <ele>867.1</ele>
        <time>2021-08-26T14:39:41Z</time>
      </trkpt>
      <trkpt lat="45.63188" lon="2.99134">
        <ele>867.2</ele>
        <time>2021-08-26T14:39:43Z</time>
      </trkpt>
      <trkpt lat="45.63193" lon="2.99137">
        <ele>867.4</ele>
        <time>2021-08-26T14:39:45Z</time>
      </trkpt>
      <trkpt lat="45.63197" lon="2.99142">
        <ele>867.5</ele>
        <time>2021-08-26T14:39:47Z</time>
      </trkpt>
      <trkpt lat="45.63201" lon="2.99145">
        <ele>867.6</ele>
        <time>2021-08-26T14:39:49Z</time>
      </trkpt>
      <trkpt lat="45.63206" lon="2.99149">
        <ele>867.8</ele>
        <time>2021-08-26T14:39:51Z</time>
      </trkpt>
      <trkpt lat="45.6321" lon="2.99153">
        <ele>868</ele>
        <time>2021-08-26T14:39:53Z</time>
      </trkpt>
      <trkpt lat="45.63214" lon="2.99157">
        <ele>868.1</ele>
        <time>2021-08-26T14:39:55Z</time>
      </trkpt>
      <trkpt lat="45.63219" lon="2.9916">
        <ele>868.3</ele>
        <time>2021-08-26T14:39:57Z</time>
      </trkpt>
      <trkpt lat="45.63223" lon="2.99163">
        <ele>868.4</ele>
        <time>2021-08-26T14:39:59Z</time>
      </trkpt>
      <trkpt lat="45.63227" lon="2.99167">
        <ele>868.6</ele>
        <time>2021-08-26T14:40:01Z</time>
      </trkpt>
      <trkpt lat="45.63231" lon="2.99171">
        <ele>868.6</ele>
        <time>2021-08-26T14:40:03Z</time>
      </trkpt>
      <trkpt lat="45.63235" lon="2.99175">
        <ele>868.7</ele>
        <time>2021-08-26T14:40:05Z</time>
      </trkpt>
      <trkpt lat="45.63239" lon="2.99179">
        <ele>868.6</ele>
        <time>2021-08-26T14:40:07Z</time>
      </trkpt>
      <trkpt lat="45.63243" lon="2.99183">
        <ele>868.6</ele>
        <time>2021-08-26T14:40:09Z</time>
      </trkpt>
      <trkpt lat="45.63248" lon="2.99188">
        <ele>868.6</ele>
        <time>2021-08-26T14:40:11Z</time>
      </trkpt>
      <trkpt lat="45.63252" lon="2.99193">
        <ele>868.4</ele>
        <time>2021-08-26T14:40:13Z</time>
      </trkpt>
      <trkpt lat="45.63257" lon="2.99198">
        <ele>868.1</ele>
        <time>2021-08-26T14:40:15Z</time>
      </trkpt>
      <trkpt lat="45.63262" lon="2.99203">
        <ele>867.7</ele>
        <time>2021-08-26T14:40:17Z</time>
      </trkpt>
      <trkpt lat="45.63268" lon="2.99209">
        <ele>867.4</ele>
        <time>2021-08-26T14:40:19Z</time>
      </trkpt>
      <trkpt lat="45.63275" lon="2.99215">
        <ele>867</ele>
        <time>2021-08-26T14:40:21Z</time>
      </trkpt>
      <trkpt lat="45.63284" lon="2.99219">
        <ele>866.7</ele>
        <time>2021-08-26T14:40:23Z</time>
      </trkpt>
      <trkpt lat="45.63293" lon="2.99222">
        <ele>866.5</ele>
        <time>2021-08-26T14:40:25Z</time>
      </trkpt>
      <trkpt lat="45.63304" lon="2.99225">
        <ele>866.3</ele>
        <time>2021-08-26T14:40:27Z</time>
      </trkpt>
      <trkpt lat="45.63315" lon="2.9923">
        <ele>866</ele>
        <time>2021-08-26T14:40:29Z</time>
      </trkpt>
      <trkpt lat="45.63327" lon="2.99236">
        <ele>865.7</ele>
        <time>2021-08-26T14:40:31Z</time>
      </trkpt>
      <trkpt lat="45.63338" lon="2.99245">
        <ele>865.3</ele>
        <time>2021-08-26T14:40:33Z</time>
      </trkpt>
      <trkpt lat="45.63349" lon="2.99256">
        <ele>865</ele>
        <time>2021-08-26T14:40:35Z</time>
      </trkpt>
      <trkpt lat="45.63361" lon="2.99266">
        <ele>864.7</ele>
        <time>2021-08-26T14:40:37Z</time>
      </trkpt>
      <trkpt lat="45.63372" lon="2.99277">
        <ele>864.5</ele>
        <time>2021-08-26T14:40:39Z</time>
      </trkpt>
      <trkpt lat="45.63382" lon="2.99291">
        <ele>864.1</ele>
        <time>2021-08-26T14:40:41Z</time>
      </trkpt>
      <trkpt lat="45.63387" lon="2.99308">
        <ele>863.5</ele>
        <time>2021-08-26T14:40:43Z</time>
      </trkpt>
      <trkpt lat="45.63388" lon="2.99327">
        <ele>862.9</ele>
        <time>2021-08-26T14:40:45Z</time>
      </trkpt>
      <trkpt lat="45.63388" lon="2.99344">
        <ele>862.8</ele>
        <time>2021-08-26T14:40:47Z</time>
      </trkpt>
      <trkpt lat="45.63388" lon="2.9936">
        <ele>863.1</ele>
        <time>2021-08-26T14:40:49Z</time>
      </trkpt>
      <trkpt lat="45.63391" lon="2.99376">
        <ele>863.4</ele>
        <time>2021-08-26T14:40:51Z</time>
      </trkpt>
      <trkpt lat="45.63396" lon="2.99388">
        <ele>863.7</ele>
        <time>2021-08-26T14:40:53Z</time>
      </trkpt>
      <trkpt lat="45.63402" lon="2.99397">
        <ele>864.1</ele>
        <time>2021-08-26T14:40:55Z</time>
      </trkpt>
      <trkpt lat="45.63408" lon="2.99403">
        <ele>864.4</ele>
        <time>2021-08-26T14:40:57Z</time>
      </trkpt>
      <trkpt lat="45.63412" lon="2.99409">
        <ele>864.7</ele>
        <time>2021-08-26T14:40:59Z</time>
      </trkpt>
      <trkpt lat="45.63417" lon="2.99414">
        <ele>864.9</ele>
        <time>2021-08-26T14:41:01Z</time>
      </trkpt>
      <trkpt lat="45.63421" lon="2.99418">
        <ele>865.1</ele>
        <time>2021-08-26T14:41:03Z</time>
      </trkpt>
      <trkpt lat="45.63426" lon="2.99423">
        <ele>865.3</ele>
        <time>2021-08-26T14:41:05Z</time>
      </trkpt>
      <trkpt lat="45.6343" lon="2.99427">
        <ele>865.6</ele>
        <time>2021-08-26T14:41:07Z</time>
      </trkpt>
      <trkpt lat="45.63434" lon="2.99432">
        <ele>865.8</ele>
        <time>2021-08-26T14:41:09Z</time>
      </trkpt>
      <trkpt lat="45.63438" lon="2.99436">
        <ele>866</ele>
        <time>2021-08-26T14:41:11Z</time>
      </trkpt>
      <trkpt lat="45.63442" lon="2.9944">
        <ele>866.2</ele>
        <time>2021-08-26T14:41:13Z</time>
      </trkpt>
      <trkpt lat="45.63445" lon="2.99443">
        <ele>866.4</ele>
        <time>2021-08-26T14:41:15Z</time>
      </trkpt>
      <trkpt lat="45.63449" lon="2.99446">
        <ele>866.6</ele>
        <time>2021-08-26T14:41:17Z</time>
      </trkpt>
      <trkpt lat="45.63453" lon="2.9945">
        <ele>866.8</ele>
        <time>2021-08-26T14:41:19Z</time>
      </trkpt>
      <trkpt lat="45.63458" lon="2.99453">
        <ele>867</ele>
        <time>2021-08-26T14:41:21Z</time>
      </trkpt>
      <trkpt lat="45.63463" lon="2.99455">
        <ele>867.2</ele>
        <time>2021-08-26T14:41:23Z</time>
      </trkpt>
      <trkpt lat="45.63468" lon="2.99458">
        <ele>867.4</ele>
        <time>2021-08-26T14:41:25Z</time>
      </trkpt>
      <trkpt lat="45.63472" lon="2.9946">
        <ele>867.6</ele>
        <time>2021-08-26T14:41:27Z</time>
      </trkpt>
      <trkpt lat="45.63478" lon="2.99462">
        <ele>867.7</ele>
        <time>2021-08-26T14:41:29Z</time>
      </trkpt>
      <trkpt lat="45.63483" lon="2.99463">
        <ele>867.9</ele>
        <time>2021-08-26T14:41:31Z</time>
      </trkpt>
      <trkpt lat="45.63489" lon="2.99464">
        <ele>868.1</ele>
        <time>2021-08-26T14:41:33Z</time>
      </trkpt>
      <trkpt lat="45.63494" lon="2.99464">
        <ele>868.2</ele>
        <time>2021-08-26T14:41:35Z</time>
      </trkpt>
      <trkpt lat="45.635" lon="2.99464">
        <ele>868.3</ele>
        <time>2021-08-26T14:41:37Z</time>
      </trkpt>
      <trkpt lat="45.63505" lon="2.99465">
        <ele>868.7</ele>
        <time>2021-08-26T14:41:39Z</time>
      </trkpt>
      <trkpt lat="45.63511" lon="2.99465">
        <ele>869.2</ele>
        <time>2021-08-26T14:41:41Z</time>
      </trkpt>
      <trkpt lat="45.63518" lon="2.99464">
        <ele>869.7</ele>
        <time>2021-08-26T14:41:43Z</time>
      </trkpt>
      <trkpt lat="45.63524" lon="2.99464">
        <ele>870.1</ele>
        <time>2021-08-26T14:41:45Z</time>
      </trkpt>
      <trkpt lat="45.6353" lon="2.99464">
        <ele>870.6</ele>
        <time>2021-08-26T14:41:47Z</time>
      </trkpt>
      <trkpt lat="45.63536" lon="2.99463">
        <ele>871</ele>
        <time>2021-08-26T14:41:49Z</time>
      </trkpt>
      <trkpt lat="45.63541" lon="2.99462">
        <ele>871.4</ele>
        <time>2021-08-26T14:41:51Z</time>
      </trkpt>
      <trkpt lat="45.63547" lon="2.99461">
        <ele>871.9</ele>
        <time>2021-08-26T14:41:53Z</time>
      </trkpt>
      <trkpt lat="45.63553" lon="2.9946">
        <ele>872.3</ele>
        <time>2021-08-26T14:41:55Z</time>
      </trkpt>
      <trkpt lat="45.63559" lon="2.99459">
        <ele>872.6</ele>
        <time>2021-08-26T14:41:57Z</time>
      </trkpt>
      <trkpt lat="45.63565" lon="2.99457">
        <ele>873</ele>
        <time>2021-08-26T14:41:59Z</time>
      </trkpt>
      <trkpt lat="45.63571" lon="2.99456">
        <ele>873.4</ele>
        <time>2021-08-26T14:42:01Z</time>
      </trkpt>
      <trkpt lat="45.63576" lon="2.99456">
        <ele>873.8</ele>
        <time>2021-08-26T14:42:03Z</time>
      </trkpt>
      <trkpt lat="45.63582" lon="2.99456">
        <ele>874.2</ele>
        <time>2021-08-26T14:42:05Z</time>
      </trkpt>
      <trkpt lat="45.63587" lon="2.99456">
        <ele>874.5</ele>
        <time>2021-08-26T14:42:07Z</time>
      </trkpt>
      <trkpt lat="45.63592" lon="2.99458">
        <ele>874.7</ele>
        <time>2021-08-26T14:42:09Z</time>
      </trkpt>
      <trkpt lat="45.63597" lon="2.99458">
        <ele>874.8</ele>
        <time>2021-08-26T14:42:11Z</time>
      </trkpt>
      <trkpt lat="45.63602" lon="2.9946">
        <ele>875</ele>
        <time>2021-08-26T14:42:13Z</time>
      </trkpt>
      <trkpt lat="45.63607" lon="2.99461">
        <ele>875.2</ele>
        <time>2021-08-26T14:42:15Z</time>
      </trkpt>
      <trkpt lat="45.63612" lon="2.99462">
        <ele>875.4</ele>
        <time>2021-08-26T14:42:17Z</time>
      </trkpt>
      <trkpt lat="45.63617" lon="2.99464">
        <ele>875.6</ele>
        <time>2021-08-26T14:42:19Z</time>
      </trkpt>
      <trkpt lat="45.63622" lon="2.99465">
        <ele>875.8</ele>
        <time>2021-08-26T14:42:21Z</time>
      </trkpt>
      <trkpt lat="45.63627" lon="2.99466">
        <ele>876</ele>
        <time>2021-08-26T14:42:23Z</time>
      </trkpt>
      <trkpt lat="45.63632" lon="2.99468">
        <ele>876.3</ele>
        <time>2021-08-26T14:42:25Z</time>
      </trkpt>
      <trkpt lat="45.63637" lon="2.9947">
        <ele>876.5</ele>
        <time>2021-08-26T14:42:27Z</time>
      </trkpt>
      <trkpt lat="45.63641" lon="2.99472">
        <ele>876.7</ele>
        <time>2021-08-26T14:42:29Z</time>
      </trkpt>
      <trkpt lat="45.63645" lon="2.99475">
        <ele>877</ele>
        <time>2021-08-26T14:42:31Z</time>
      </trkpt>
      <trkpt lat="45.6365" lon="2.99478">
        <ele>877.3</ele>
        <time>2021-08-26T14:42:33Z</time>
      </trkpt>
      <trkpt lat="45.63654" lon="2.99481">
        <ele>877.5</ele>
        <time>2021-08-26T14:42:35Z</time>
      </trkpt>
      <trkpt lat="45.63658" lon="2.99484">
        <ele>877.8</ele>
        <time>2021-08-26T14:42:37Z</time>
      </trkpt>
      <trkpt lat="45.63662" lon="2.99488">
        <ele>878.1</ele>
        <time>2021-08-26T14:42:39Z</time>
      </trkpt>
      <trkpt lat="45.63665" lon="2.99491">
        <ele>878.4</ele>
        <time>2021-08-26T14:42:41Z</time>
      </trkpt>
      <trkpt lat="45.63669" lon="2.99495">
        <ele>878.7</ele>
        <time>2021-08-26T14:42:43Z</time>
      </trkpt>
      <trkpt lat="45.63673" lon="2.99499">
        <ele>879.1</ele>
        <time>2021-08-26T14:42:45Z</time>
      </trkpt>
      <trkpt lat="45.63677" lon="2.99502">
        <ele>879.4</ele>
        <time>2021-08-26T14:42:47Z</time>
      </trkpt>
      <trkpt lat="45.6368" lon="2.99505">
        <ele>879.9</ele>
        <time>2021-08-26T14:42:49Z</time>
      </trkpt>
      <trkpt lat="45.63684" lon="2.99509">
        <ele>880.4</ele>
        <time>2021-08-26T14:42:51Z</time>
      </trkpt>
      <trkpt lat="45.63688" lon="2.99513">
        <ele>880.8</ele>
        <time>2021-08-26T14:42:53Z</time>
      </trkpt>
      <trkpt lat="45.63692" lon="2.99518">
        <ele>881.3</ele>
        <time>2021-08-26T14:42:55Z</time>
      </trkpt>
      <trkpt lat="45.63696" lon="2.99522">
        <ele>881.8</ele>
        <time>2021-08-26T14:42:57Z</time>
      </trkpt>
      <trkpt lat="45.63701" lon="2.99526">
        <ele>882.3</ele>
        <time>2021-08-26T14:42:59Z</time>
      </trkpt>
      <trkpt lat="45.63705" lon="2.9953">
        <ele>882.7</ele>
        <time>2021-08-26T14:43:01Z</time>
      </trkpt>
      <trkpt lat="45.63709" lon="2.99534">
        <ele>883.1</ele>
        <time>2021-08-26T14:43:03Z</time>
      </trkpt>
      <trkpt lat="45.63714" lon="2.99539">
        <ele>883.5</ele>
        <time>2021-08-26T14:43:05Z</time>
      </trkpt>
      <trkpt lat="45.63718" lon="2.99543">
        <ele>883.9</ele>
        <time>2021-08-26T14:43:07Z</time>
      </trkpt>
      <trkpt lat="45.63723" lon="2.99547">
        <ele>884.3</ele>
        <time>2021-08-26T14:43:09Z</time>
      </trkpt>
      <trkpt lat="45.63728" lon="2.99551">
        <ele>884.7</ele>
        <time>2021-08-26T14:43:11Z</time>
      </trkpt>
      <trkpt lat="45.63732" lon="2.99555">
        <ele>885</ele>
        <time>2021-08-26T14:43:13Z</time>
      </trkpt>
      <trkpt lat="45.63737" lon="2.99559">
        <ele>885.2</ele>
        <time>2021-08-26T14:43:15Z</time>
      </trkpt>
      <trkpt lat="45.63742" lon="2.99562">
        <ele>885.5</ele>
        <time>2021-08-26T14:43:17Z</time>
      </trkpt>
      <trkpt lat="45.63746" lon="2.99565">
        <ele>885.7</ele>
        <time>2021-08-26T14:43:19Z</time>
      </trkpt>
      <trkpt lat="45.63751" lon="2.99567">
        <ele>885.8</ele>
        <time>2021-08-26T14:43:21Z</time>
      </trkpt>
      <trkpt lat="45.63756" lon="2.9957">
        <ele>885.9</ele>
        <time>2021-08-26T14:43:23Z</time>
      </trkpt>
      <trkpt lat="45.63761" lon="2.99573">
        <ele>886.1</ele>
        <time>2021-08-26T14:43:25Z</time>
      </trkpt>
      <trkpt lat="45.63766" lon="2.99576">
        <ele>886.2</ele>
        <time>2021-08-26T14:43:27Z</time>
      </trkpt>
      <trkpt lat="45.63771" lon="2.99579">
        <ele>886.4</ele>
        <time>2021-08-26T14:43:29Z</time>
      </trkpt>
      <trkpt lat="45.63776" lon="2.99582">
        <ele>886.6</ele>
        <time>2021-08-26T14:43:31Z</time>
      </trkpt>
      <trkpt lat="45.63781" lon="2.99585">
        <ele>886.9</ele>
        <time>2021-08-26T14:43:33Z</time>
      </trkpt>
      <trkpt lat="45.63786" lon="2.99589">
        <ele>887.4</ele>
        <time>2021-08-26T14:43:35Z</time>
      </trkpt>
      <trkpt lat="45.63791" lon="2.99593">
        <ele>887.8</ele>
        <time>2021-08-26T14:43:37Z</time>
      </trkpt>
      <trkpt lat="45.63795" lon="2.99596">
        <ele>888.2</ele>
        <time>2021-08-26T14:43:39Z</time>
      </trkpt>
      <trkpt lat="45.638" lon="2.99599">
        <ele>888.6</ele>
        <time>2021-08-26T14:43:41Z</time>
      </trkpt>
      <trkpt lat="45.63805" lon="2.99602">
        <ele>889</ele>
        <time>2021-08-26T14:43:43Z</time>
      </trkpt>
      <trkpt lat="45.6381" lon="2.99606">
        <ele>889.4</ele>
        <time>2021-08-26T14:43:45Z</time>
      </trkpt>
      <trkpt lat="45.63814" lon="2.99609">
        <ele>889.9</ele>
        <time>2021-08-26T14:43:47Z</time>
      </trkpt>
      <trkpt lat="45.63819" lon="2.99612">
        <ele>890.2</ele>
        <time>2021-08-26T14:43:49Z</time>
      </trkpt>
      <trkpt lat="45.63823" lon="2.99615">
        <ele>890.7</ele>
        <time>2021-08-26T14:43:51Z</time>
      </trkpt>
      <trkpt lat="45.63828" lon="2.99618">
        <ele>891</ele>
        <time>2021-08-26T14:43:53Z</time>
      </trkpt>
      <trkpt lat="45.63832" lon="2.9962">
        <ele>891.3</ele>
        <time>2021-08-26T14:43:55Z</time>
      </trkpt>
      <trkpt lat="45.63837" lon="2.99622">
        <ele>891.5</ele>
        <time>2021-08-26T14:43:57Z</time>
      </trkpt>
      <trkpt lat="45.6384" lon="2.99625">
        <ele>891.8</ele>
        <time>2021-08-26T14:43:59Z</time>
      </trkpt>
      <trkpt lat="45.63845" lon="2.99627">
        <ele>891.9</ele>
        <time>2021-08-26T14:44:01Z</time>
      </trkpt>
      <trkpt lat="45.63849" lon="2.99629">
        <ele>892</ele>
        <time>2021-08-26T14:44:03Z</time>
      </trkpt>
      <trkpt lat="45.63853" lon="2.99631">
        <ele>892.2</ele>
        <time>2021-08-26T14:44:05Z</time>
      </trkpt>
      <trkpt lat="45.63858" lon="2.99633">
        <ele>892.4</ele>
        <time>2021-08-26T14:44:07Z</time>
      </trkpt>
      <trkpt lat="45.63861" lon="2.99636">
        <ele>892.6</ele>
        <time>2021-08-26T14:44:09Z</time>
      </trkpt>
      <trkpt lat="45.63865" lon="2.99637">
        <ele>892.7</ele>
        <time>2021-08-26T14:44:11Z</time>
      </trkpt>
      <trkpt lat="45.63869" lon="2.9964">
        <ele>892.8</ele>
        <time>2021-08-26T14:44:13Z</time>
      </trkpt>
      <trkpt lat="45.63873" lon="2.99642">
        <ele>892.9</ele>
        <time>2021-08-26T14:44:15Z</time>
      </trkpt>
      <trkpt lat="45.63877" lon="2.99644">
        <ele>893</ele>
        <time>2021-08-26T14:44:17Z</time>
      </trkpt>
      <trkpt lat="45.63881" lon="2.99646">
        <ele>893.2</ele>
        <time>2021-08-26T14:44:19Z</time>
      </trkpt>
      <trkpt lat="45.63885" lon="2.99648">
        <ele>893.3</ele>
        <time>2021-08-26T14:44:21Z</time>
      </trkpt>
      <trkpt lat="45.63889" lon="2.99651">
        <ele>893.4</ele>
        <time>2021-08-26T14:44:23Z</time>
      </trkpt>
      <trkpt lat="45.63893" lon="2.99654">
        <ele>893.6</ele>
        <time>2021-08-26T14:44:25Z</time>
      </trkpt>
      <trkpt lat="45.63897" lon="2.99657">
        <ele>893.8</ele>
        <time>2021-08-26T14:44:27Z</time>
      </trkpt>
      <trkpt lat="45.639" lon="2.9966">
        <ele>894</ele>
        <time>2021-08-26T14:44:29Z</time>
      </trkpt>
      <trkpt lat="45.63904" lon="2.99663">
        <ele>894.2</ele>
        <time>2021-08-26T14:44:31Z</time>
      </trkpt>
      <trkpt lat="45.63908" lon="2.99666">
        <ele>894.3</ele>
        <time>2021-08-26T14:44:33Z</time>
      </trkpt>
      <trkpt lat="45.63912" lon="2.99669">
        <ele>894.4</ele>
        <time>2021-08-26T14:44:35Z</time>
      </trkpt>
      <trkpt lat="45.63915" lon="2.99672">
        <ele>894.6</ele>
        <time>2021-08-26T14:44:37Z</time>
      </trkpt>
      <trkpt lat="45.63919" lon="2.99676">
        <ele>894.9</ele>
        <time>2021-08-26T14:44:39Z</time>
      </trkpt>
      <trkpt lat="45.63922" lon="2.9968">
        <ele>895.4</ele>
        <time>2021-08-26T14:44:41Z</time>
      </trkpt>
      <trkpt lat="45.63925" lon="2.99684">
        <ele>895.9</ele>
        <time>2021-08-26T14:44:43Z</time>
      </trkpt>
      <trkpt lat="45.63928" lon="2.99689">
        <ele>896.4</ele>
        <time>2021-08-26T14:44:45Z</time>
      </trkpt>
      <trkpt lat="45.63932" lon="2.99694">
        <ele>896.9</ele>
        <time>2021-08-26T14:44:47Z</time>
      </trkpt>
      <trkpt lat="45.63935" lon="2.99699">
        <ele>897.4</ele>
        <time>2021-08-26T14:44:49Z</time>
      </trkpt>
      <trkpt lat="45.63938" lon="2.99703">
        <ele>897.8</ele>
        <time>2021-08-26T14:44:51Z</time>
      </trkpt>
      <trkpt lat="45.63941" lon="2.99708">
        <ele>898.3</ele>
        <time>2021-08-26T14:44:53Z</time>
      </trkpt>
      <trkpt lat="45.63943" lon="2.99714">
        <ele>898.8</ele>
        <time>2021-08-26T14:44:55Z</time>
      </trkpt>
      <trkpt lat="45.63947" lon="2.99719">
        <ele>899.2</ele>
        <time>2021-08-26T14:44:57Z</time>
      </trkpt>
      <trkpt lat="45.63949" lon="2.99724">
        <ele>899.6</ele>
        <time>2021-08-26T14:44:59Z</time>
      </trkpt>
      <trkpt lat="45.63952" lon="2.99729">
        <ele>900</ele>
        <time>2021-08-26T14:45:01Z</time>
      </trkpt>
      <trkpt lat="45.63955" lon="2.99733">
        <ele>900.3</ele>
        <time>2021-08-26T14:45:03Z</time>
      </trkpt>
      <trkpt lat="45.63958" lon="2.99737">
        <ele>900.6</ele>
        <time>2021-08-26T14:45:05Z</time>
      </trkpt>
      <trkpt lat="45.63961" lon="2.99741">
        <ele>900.9</ele>
        <time>2021-08-26T14:45:07Z</time>
      </trkpt>
      <trkpt lat="45.63964" lon="2.99745">
        <ele>901.1</ele>
        <time>2021-08-26T14:45:09Z</time>
      </trkpt>
      <trkpt lat="45.63967" lon="2.9975">
        <ele>901.4</ele>
        <time>2021-08-26T14:45:11Z</time>
      </trkpt>
      <trkpt lat="45.6397" lon="2.99753">
        <ele>901.4</ele>
        <time>2021-08-26T14:45:13Z</time>
      </trkpt>
      <trkpt lat="45.63974" lon="2.99756">
        <ele>901.5</ele>
        <time>2021-08-26T14:45:15Z</time>
      </trkpt>
      <trkpt lat="45.63977" lon="2.9976">
        <ele>901.5</ele>
        <time>2021-08-26T14:45:17Z</time>
      </trkpt>
      <trkpt lat="45.63981" lon="2.99763">
        <ele>901.5</ele>
        <time>2021-08-26T14:45:19Z</time>
      </trkpt>
      <trkpt lat="45.63984" lon="2.99766">
        <ele>901.6</ele>
        <time>2021-08-26T14:45:21Z</time>
      </trkpt>
      <trkpt lat="45.63988" lon="2.99769">
        <ele>901.6</ele>
        <time>2021-08-26T14:45:23Z</time>
      </trkpt>
      <trkpt lat="45.63991" lon="2.99773">
        <ele>901.6</ele>
        <time>2021-08-26T14:45:25Z</time>
      </trkpt>
      <trkpt lat="45.63995" lon="2.99777">
        <ele>901.7</ele>
        <time>2021-08-26T14:45:27Z</time>
      </trkpt>
      <trkpt lat="45.63998" lon="2.9978">
        <ele>901.8</ele>
        <time>2021-08-26T14:45:29Z</time>
      </trkpt>
      <trkpt lat="45.64001" lon="2.99784">
        <ele>901.9</ele>
        <time>2021-08-26T14:45:31Z</time>
      </trkpt>
      <trkpt lat="45.64004" lon="2.99788">
        <ele>902.3</ele>
        <time>2021-08-26T14:45:33Z</time>
      </trkpt>
      <trkpt lat="45.64007" lon="2.99792">
        <ele>902.6</ele>
        <time>2021-08-26T14:45:35Z</time>
      </trkpt>
      <trkpt lat="45.6401" lon="2.99796">
        <ele>902.8</ele>
        <time>2021-08-26T14:45:37Z</time>
      </trkpt>
      <trkpt lat="45.64013" lon="2.99801">
        <ele>903.1</ele>
        <time>2021-08-26T14:45:39Z</time>
      </trkpt>
      <trkpt lat="45.64015" lon="2.99806">
        <ele>903.4</ele>
        <time>2021-08-26T14:45:41Z</time>
      </trkpt>
      <trkpt lat="45.64018" lon="2.99811">
        <ele>903.6</ele>
        <time>2021-08-26T14:45:43Z</time>
      </trkpt>
      <trkpt lat="45.64021" lon="2.99816">
        <ele>903.9</ele>
        <time>2021-08-26T14:45:45Z</time>
      </trkpt>
      <trkpt lat="45.64025" lon="2.99821">
        <ele>904.1</ele>
        <time>2021-08-26T14:45:47Z</time>
      </trkpt>
      <trkpt lat="45.64028" lon="2.99826">
        <ele>904.3</ele>
        <time>2021-08-26T14:45:49Z</time>
      </trkpt>
      <trkpt lat="45.64031" lon="2.99829">
        <ele>904.5</ele>
        <time>2021-08-26T14:45:51Z</time>
      </trkpt>
      <trkpt lat="45.64034" lon="2.99834">
        <ele>904.6</ele>
        <time>2021-08-26T14:45:53Z</time>
      </trkpt>
      <trkpt lat="45.64036" lon="2.9984">
        <ele>904.6</ele>
        <time>2021-08-26T14:45:55Z</time>
      </trkpt>
      <trkpt lat="45.64039" lon="2.99845">
        <ele>904.6</ele>
        <time>2021-08-26T14:45:57Z</time>
      </trkpt>
      <trkpt lat="45.64042" lon="2.99849">
        <ele>904.6</ele>
        <time>2021-08-26T14:45:59Z</time>
      </trkpt>
      <trkpt lat="45.64045" lon="2.99853">
        <ele>904.7</ele>
        <time>2021-08-26T14:46:01Z</time>
      </trkpt>
      <trkpt lat="45.64048" lon="2.99857">
        <ele>904.7</ele>
        <time>2021-08-26T14:46:03Z</time>
      </trkpt>
      <trkpt lat="45.64052" lon="2.99858">
        <ele>904.8</ele>
        <time>2021-08-26T14:46:05Z</time>
      </trkpt>
      <trkpt lat="45.64055" lon="2.99857">
        <ele>904.9</ele>
        <time>2021-08-26T14:46:07Z</time>
      </trkpt>
      <trkpt lat="45.64056" lon="2.99859">
        <ele>904.9</ele>
        <time>2021-08-26T14:46:09Z</time>
      </trkpt>
      <trkpt lat="45.64055" lon="2.99862">
        <ele>904.9</ele>
        <time>2021-08-26T14:46:11Z</time>
      </trkpt>
      <trkpt lat="45.64055" lon="2.99861">
        <ele>904.9</ele>
        <time>2021-08-26T14:46:13Z</time>
      </trkpt>
      <trkpt lat="45.64056" lon="2.99861">
        <ele>904.9</ele>
        <time>2021-08-26T14:46:15Z</time>
      </trkpt>
      <trkpt lat="45.64056" lon="2.99861">
        <ele>904.9</ele>
        <time>2021-08-26T14:46:17Z</time>
      </trkpt>
      <trkpt lat="45.64062" lon="2.99882">
        <ele>904.5</ele>
        <time>2021-08-26T14:48:27Z</time>
      </trkpt>
      <trkpt lat="45.64066" lon="2.99889">
        <ele>904.5</ele>
        <time>2021-08-26T14:48:29Z</time>
      </trkpt>
      <trkpt lat="45.64071" lon="2.99896">
        <ele>904.4</ele>
        <time>2021-08-26T14:48:31Z</time>
      </trkpt>
      <trkpt lat="45.64075" lon="2.99905">
        <ele>904.2</ele>
        <time>2021-08-26T14:48:33Z</time>
      </trkpt>
      <trkpt lat="45.6408" lon="2.99913">
        <ele>904</ele>
        <time>2021-08-26T14:48:35Z</time>
      </trkpt>
      <trkpt lat="45.64085" lon="2.99921">
        <ele>904</ele>
        <time>2021-08-26T14:48:37Z</time>
      </trkpt>
      <trkpt lat="45.6409" lon="2.99929">
        <ele>903.9</ele>
        <time>2021-08-26T14:48:39Z</time>
      </trkpt>
      <trkpt lat="45.64095" lon="2.99937">
        <ele>903.9</ele>
        <time>2021-08-26T14:48:41Z</time>
      </trkpt>
      <trkpt lat="45.64101" lon="2.99945">
        <ele>903.9</ele>
        <time>2021-08-26T14:48:43Z</time>
      </trkpt>
      <trkpt lat="45.64108" lon="2.99951">
        <ele>904</ele>
        <time>2021-08-26T14:48:45Z</time>
      </trkpt>
      <trkpt lat="45.64114" lon="2.99954">
        <ele>904.1</ele>
        <time>2021-08-26T14:48:47Z</time>
      </trkpt>
      <trkpt lat="45.6412" lon="2.99956">
        <ele>904.2</ele>
        <time>2021-08-26T14:48:49Z</time>
      </trkpt>
      <trkpt lat="45.64125" lon="2.99956">
        <ele>904.3</ele>
        <time>2021-08-26T14:48:51Z</time>
      </trkpt>
      <trkpt lat="45.64131" lon="2.99957">
        <ele>904.4</ele>
        <time>2021-08-26T14:48:53Z</time>
      </trkpt>
      <trkpt lat="45.64137" lon="2.99957">
        <ele>904.5</ele>
        <time>2021-08-26T14:48:55Z</time>
      </trkpt>
      <trkpt lat="45.64142" lon="2.99958">
        <ele>904.6</ele>
        <time>2021-08-26T14:48:57Z</time>
      </trkpt>
      <trkpt lat="45.64147" lon="2.99958">
        <ele>904.6</ele>
        <time>2021-08-26T14:48:59Z</time>
      </trkpt>
      <trkpt lat="45.64151" lon="2.99959">
        <ele>904.7</ele>
        <time>2021-08-26T14:49:01Z</time>
      </trkpt>
      <trkpt lat="45.64154" lon="2.9996">
        <ele>904.8</ele>
        <time>2021-08-26T14:49:03Z</time>
      </trkpt>
      <trkpt lat="45.64155" lon="2.9996">
        <ele>904.8</ele>
        <time>2021-08-26T14:49:05Z</time>
      </trkpt>
      <trkpt lat="45.64155" lon="2.99959">
        <ele>904.8</ele>
        <time>2021-08-26T14:49:07Z</time>
      </trkpt>
      <trkpt lat="45.64155" lon="2.99959">
        <ele>904.8</ele>
        <time>2021-08-26T14:49:09Z</time>
      </trkpt>
      <trkpt lat="45.64156" lon="2.99959">
        <ele>904.8</ele>
        <time>2021-08-26T14:49:11Z</time>
      </trkpt>
      <trkpt lat="45.64156" lon="2.99959">
        <ele>904.8</ele>
        <time>2021-08-26T14:49:13Z</time>
      </trkpt>
      <trkpt lat="45.64168" lon="2.99951">
        <ele>905.1</ele>
        <time>2021-08-26T14:49:47Z</time>
      </trkpt>
      <trkpt lat="45.6417" lon="2.99942">
        <ele>905.3</ele>
        <time>2021-08-26T14:49:49Z</time>
      </trkpt>
      <trkpt lat="45.6417" lon="2.99934">
        <ele>905.3</ele>
        <time>2021-08-26T14:49:51Z</time>
      </trkpt>
      <trkpt lat="45.6417" lon="2.99926">
        <ele>905.3</ele>
        <time>2021-08-26T14:49:53Z</time>
      </trkpt>
      <trkpt lat="45.6417" lon="2.99919">
        <ele>905.3</ele>
        <time>2021-08-26T14:49:55Z</time>
      </trkpt>
      <trkpt lat="45.64171" lon="2.99912">
        <ele>905.6</ele>
        <time>2021-08-26T14:49:57Z</time>
      </trkpt>
      <trkpt lat="45.64171" lon="2.99904">
        <ele>905.8</ele>
        <time>2021-08-26T14:49:59Z</time>
      </trkpt>
      <trkpt lat="45.64172" lon="2.99897">
        <ele>906.1</ele>
        <time>2021-08-26T14:50:01Z</time>
      </trkpt>
      <trkpt lat="45.64172" lon="2.9989">
        <ele>906.4</ele>
        <time>2021-08-26T14:50:03Z</time>
      </trkpt>
      <trkpt lat="45.64173" lon="2.99883">
        <ele>906.7</ele>
        <time>2021-08-26T14:50:05Z</time>
      </trkpt>
      <trkpt lat="45.64173" lon="2.99877">
        <ele>906.9</ele>
        <time>2021-08-26T14:50:07Z</time>
      </trkpt>
      <trkpt lat="45.64173" lon="2.9987">
        <ele>907.1</ele>
        <time>2021-08-26T14:50:09Z</time>
      </trkpt>
      <trkpt lat="45.64174" lon="2.99863">
        <ele>907.4</ele>
        <time>2021-08-26T14:50:11Z</time>
      </trkpt>
      <trkpt lat="45.64174" lon="2.99856">
        <ele>907.7</ele>
        <time>2021-08-26T14:50:13Z</time>
      </trkpt>
      <trkpt lat="45.64175" lon="2.99849">
        <ele>908</ele>
        <time>2021-08-26T14:50:15Z</time>
      </trkpt>
      <trkpt lat="45.64175" lon="2.99842">
        <ele>908.2</ele>
        <time>2021-08-26T14:50:17Z</time>
      </trkpt>
      <trkpt lat="45.64175" lon="2.99835">
        <ele>908.5</ele>
        <time>2021-08-26T14:50:19Z</time>
      </trkpt>
      <trkpt lat="45.64176" lon="2.99828">
        <ele>908.6</ele>
        <time>2021-08-26T14:50:21Z</time>
      </trkpt>
      <trkpt lat="45.64176" lon="2.9982">
        <ele>908.8</ele>
        <time>2021-08-26T14:50:23Z</time>
      </trkpt>
      <trkpt lat="45.64176" lon="2.99812">
        <ele>908.9</ele>
        <time>2021-08-26T14:50:25Z</time>
      </trkpt>
      <trkpt lat="45.64177" lon="2.99804">
        <ele>909</ele>
        <time>2021-08-26T14:50:27Z</time>
      </trkpt>
      <trkpt lat="45.64177" lon="2.99797">
        <ele>909.2</ele>
        <time>2021-08-26T14:50:29Z</time>
      </trkpt>
      <trkpt lat="45.64177" lon="2.99789">
        <ele>909.3</ele>
        <time>2021-08-26T14:50:31Z</time>
      </trkpt>
      <trkpt lat="45.64178" lon="2.99781">
        <ele>909.5</ele>
        <time>2021-08-26T14:50:33Z</time>
      </trkpt>
      <trkpt lat="45.64178" lon="2.99773">
        <ele>909.6</ele>
        <time>2021-08-26T14:50:35Z</time>
      </trkpt>
      <trkpt lat="45.64179" lon="2.99765">
        <ele>909.8</ele>
        <time>2021-08-26T14:50:37Z</time>
      </trkpt>
      <trkpt lat="45.64179" lon="2.99757">
        <ele>909.9</ele>
        <time>2021-08-26T14:50:39Z</time>
      </trkpt>
      <trkpt lat="45.64179" lon="2.99749">
        <ele>910</ele>
        <time>2021-08-26T14:50:41Z</time>
      </trkpt>
      <trkpt lat="45.64179" lon="2.99742">
        <ele>910.1</ele>
        <time>2021-08-26T14:50:43Z</time>
      </trkpt>
      <trkpt lat="45.6418" lon="2.99734">
        <ele>910.2</ele>
        <time>2021-08-26T14:50:45Z</time>
      </trkpt>
      <trkpt lat="45.6418" lon="2.99726">
        <ele>910.2</ele>
        <time>2021-08-26T14:50:47Z</time>
      </trkpt>
      <trkpt lat="45.64181" lon="2.99718">
        <ele>910.3</ele>
        <time>2021-08-26T14:50:49Z</time>
      </trkpt>
      <trkpt lat="45.64181" lon="2.9971">
        <ele>910.4</ele>
        <time>2021-08-26T14:50:51Z</time>
      </trkpt>
      <trkpt lat="45.64182" lon="2.99702">
        <ele>910.5</ele>
        <time>2021-08-26T14:50:53Z</time>
      </trkpt>
      <trkpt lat="45.64183" lon="2.99695">
        <ele>910.6</ele>
        <time>2021-08-26T14:50:55Z</time>
      </trkpt>
      <trkpt lat="45.64184" lon="2.99687">
        <ele>910.7</ele>
        <time>2021-08-26T14:50:57Z</time>
      </trkpt>
      <trkpt lat="45.64185" lon="2.9968">
        <ele>910.9</ele>
        <time>2021-08-26T14:50:59Z</time>
      </trkpt>
      <trkpt lat="45.64186" lon="2.99673">
        <ele>911.1</ele>
        <time>2021-08-26T14:51:01Z</time>
      </trkpt>
      <trkpt lat="45.64187" lon="2.99666">
        <ele>911.2</ele>
        <time>2021-08-26T14:51:03Z</time>
      </trkpt>
      <trkpt lat="45.64189" lon="2.99659">
        <ele>911.2</ele>
        <time>2021-08-26T14:51:05Z</time>
      </trkpt>
      <trkpt lat="45.64192" lon="2.99652">
        <ele>911.2</ele>
        <time>2021-08-26T14:51:07Z</time>
      </trkpt>
      <trkpt lat="45.64194" lon="2.99645">
        <ele>911.3</ele>
        <time>2021-08-26T14:51:09Z</time>
      </trkpt>
      <trkpt lat="45.64198" lon="2.99638">
        <ele>911.5</ele>
        <time>2021-08-26T14:51:11Z</time>
      </trkpt>
      <trkpt lat="45.64201" lon="2.99632">
        <ele>911.6</ele>
        <time>2021-08-26T14:51:13Z</time>
      </trkpt>
      <trkpt lat="45.64204" lon="2.99627">
        <ele>911.8</ele>
        <time>2021-08-26T14:51:15Z</time>
      </trkpt>
      <trkpt lat="45.64208" lon="2.99623">
        <ele>912.1</ele>
        <time>2021-08-26T14:51:17Z</time>
      </trkpt>
      <trkpt lat="45.64211" lon="2.99619">
        <ele>912.4</ele>
        <time>2021-08-26T14:51:19Z</time>
      </trkpt>
      <trkpt lat="45.64215" lon="2.99615">
        <ele>912.7</ele>
        <time>2021-08-26T14:51:21Z</time>
      </trkpt>
      <trkpt lat="45.64219" lon="2.99611">
        <ele>913</ele>
        <time>2021-08-26T14:51:23Z</time>
      </trkpt>
      <trkpt lat="45.64223" lon="2.99607">
        <ele>913.4</ele>
        <time>2021-08-26T14:51:25Z</time>
      </trkpt>
      <trkpt lat="45.64227" lon="2.99604">
        <ele>913.8</ele>
        <time>2021-08-26T14:51:27Z</time>
      </trkpt>
      <trkpt lat="45.64231" lon="2.996">
        <ele>914.1</ele>
        <time>2021-08-26T14:51:29Z</time>
      </trkpt>
      <trkpt lat="45.64235" lon="2.99596">
        <ele>914.5</ele>
        <time>2021-08-26T14:51:31Z</time>
      </trkpt>
      <trkpt lat="45.64238" lon="2.99592">
        <ele>914.8</ele>
        <time>2021-08-26T14:51:33Z</time>
      </trkpt>
      <trkpt lat="45.64242" lon="2.99589">
        <ele>915.1</ele>
        <time>2021-08-26T14:51:35Z</time>
      </trkpt>
      <trkpt lat="45.64244" lon="2.99585">
        <ele>915.4</ele>
        <time>2021-08-26T14:51:37Z</time>
      </trkpt>
      <trkpt lat="45.64248" lon="2.99582">
        <ele>915.7</ele>
        <time>2021-08-26T14:51:39Z</time>
      </trkpt>
      <trkpt lat="45.64251" lon="2.99579">
        <ele>915.9</ele>
        <time>2021-08-26T14:51:41Z</time>
      </trkpt>
      <trkpt lat="45.64254" lon="2.99575">
        <ele>916.1</ele>
        <time>2021-08-26T14:51:43Z</time>
      </trkpt>
      <trkpt lat="45.64258" lon="2.99572">
        <ele>916.3</ele>
        <time>2021-08-26T14:51:45Z</time>
      </trkpt>
      <trkpt lat="45.64261" lon="2.99568">
        <ele>916.5</ele>
        <time>2021-08-26T14:51:47Z</time>
      </trkpt>
      <trkpt lat="45.64264" lon="2.99564">
        <ele>916.8</ele>
        <time>2021-08-26T14:51:49Z</time>
      </trkpt>
      <trkpt lat="45.64266" lon="2.99562">
        <ele>916.9</ele>
        <time>2021-08-26T14:51:51Z</time>
      </trkpt>
      <trkpt lat="45.64269" lon="2.99558">
        <ele>917.1</ele>
        <time>2021-08-26T14:51:53Z</time>
      </trkpt>
      <trkpt lat="45.64272" lon="2.99554">
        <ele>917.3</ele>
        <time>2021-08-26T14:51:55Z</time>
      </trkpt>
      <trkpt lat="45.64276" lon="2.9955">
        <ele>917.5</ele>
        <time>2021-08-26T14:51:57Z</time>
      </trkpt>
      <trkpt lat="45.64279" lon="2.99546">
        <ele>917.8</ele>
        <time>2021-08-26T14:51:59Z</time>
      </trkpt>
      <trkpt lat="45.64282" lon="2.99542">
        <ele>918</ele>
        <time>2021-08-26T14:52:01Z</time>
      </trkpt>
      <trkpt lat="45.64286" lon="2.99538">
        <ele>918.2</ele>
        <time>2021-08-26T14:52:03Z</time>
      </trkpt>
      <trkpt lat="45.64289" lon="2.99534">
        <ele>918.5</ele>
        <time>2021-08-26T14:52:05Z</time>
      </trkpt>
      <trkpt lat="45.64292" lon="2.9953">
        <ele>918.7</ele>
        <time>2021-08-26T14:52:07Z</time>
      </trkpt>
      <trkpt lat="45.64295" lon="2.99526">
        <ele>918.9</ele>
        <time>2021-08-26T14:52:09Z</time>
      </trkpt>
      <trkpt lat="45.64298" lon="2.99523">
        <ele>919.2</ele>
        <time>2021-08-26T14:52:11Z</time>
      </trkpt>
      <trkpt lat="45.64302" lon="2.99519">
        <ele>919.5</ele>
        <time>2021-08-26T14:52:13Z</time>
      </trkpt>
      <trkpt lat="45.64305" lon="2.99516">
        <ele>919.7</ele>
        <time>2021-08-26T14:52:15Z</time>
      </trkpt>
      <trkpt lat="45.64308" lon="2.99512">
        <ele>919.9</ele>
        <time>2021-08-26T14:52:17Z</time>
      </trkpt>
      <trkpt lat="45.64311" lon="2.99508">
        <ele>920.1</ele>
        <time>2021-08-26T14:52:19Z</time>
      </trkpt>
      <trkpt lat="45.64313" lon="2.99504">
        <ele>920.3</ele>
        <time>2021-08-26T14:52:21Z</time>
      </trkpt>
      <trkpt lat="45.64317" lon="2.995">
        <ele>920.6</ele>
        <time>2021-08-26T14:52:23Z</time>
      </trkpt>
      <trkpt lat="45.6432" lon="2.99497">
        <ele>921</ele>
        <time>2021-08-26T14:52:25Z</time>
      </trkpt>
      <trkpt lat="45.64323" lon="2.99493">
        <ele>921.4</ele>
        <time>2021-08-26T14:52:27Z</time>
      </trkpt>
      <trkpt lat="45.64326" lon="2.99489">
        <ele>921.7</ele>
        <time>2021-08-26T14:52:29Z</time>
      </trkpt>
      <trkpt lat="45.64329" lon="2.99484">
        <ele>922</ele>
        <time>2021-08-26T14:52:31Z</time>
      </trkpt>
      <trkpt lat="45.64331" lon="2.99479">
        <ele>922.2</ele>
        <time>2021-08-26T14:52:33Z</time>
      </trkpt>
      <trkpt lat="45.64334" lon="2.99474">
        <ele>922.5</ele>
        <time>2021-08-26T14:52:35Z</time>
      </trkpt>
      <trkpt lat="45.64337" lon="2.99469">
        <ele>922.8</ele>
        <time>2021-08-26T14:52:37Z</time>
      </trkpt>
      <trkpt lat="45.64339" lon="2.99465">
        <ele>923.1</ele>
        <time>2021-08-26T14:52:39Z</time>
      </trkpt>
      <trkpt lat="45.64342" lon="2.9946">
        <ele>923.3</ele>
        <time>2021-08-26T14:52:41Z</time>
      </trkpt>
      <trkpt lat="45.64344" lon="2.99455">
        <ele>923.6</ele>
        <time>2021-08-26T14:52:43Z</time>
      </trkpt>
      <trkpt lat="45.64347" lon="2.9945">
        <ele>923.9</ele>
        <time>2021-08-26T14:52:45Z</time>
      </trkpt>
      <trkpt lat="45.64349" lon="2.99445">
        <ele>924.1</ele>
        <time>2021-08-26T14:52:47Z</time>
      </trkpt>
      <trkpt lat="45.64351" lon="2.9944">
        <ele>924.3</ele>
        <time>2021-08-26T14:52:49Z</time>
      </trkpt>
      <trkpt lat="45.64354" lon="2.99435">
        <ele>924.6</ele>
        <time>2021-08-26T14:52:51Z</time>
      </trkpt>
      <trkpt lat="45.64357" lon="2.9943">
        <ele>925</ele>
        <time>2021-08-26T14:52:53Z</time>
      </trkpt>
      <trkpt lat="45.64359" lon="2.99426">
        <ele>925.2</ele>
        <time>2021-08-26T14:52:55Z</time>
      </trkpt>
      <trkpt lat="45.64361" lon="2.99421">
        <ele>925.5</ele>
        <time>2021-08-26T14:52:57Z</time>
      </trkpt>
      <trkpt lat="45.64364" lon="2.99417">
        <ele>925.8</ele>
        <time>2021-08-26T14:52:59Z</time>
      </trkpt>
      <trkpt lat="45.64367" lon="2.99412">
        <ele>926.2</ele>
        <time>2021-08-26T14:53:01Z</time>
      </trkpt>
      <trkpt lat="45.6437" lon="2.99408">
        <ele>926.5</ele>
        <time>2021-08-26T14:53:03Z</time>
      </trkpt>
      <trkpt lat="45.64373" lon="2.99403">
        <ele>926.8</ele>
        <time>2021-08-26T14:53:05Z</time>
      </trkpt>
      <trkpt lat="45.64375" lon="2.99399">
        <ele>927.1</ele>
        <time>2021-08-26T14:53:07Z</time>
      </trkpt>
      <trkpt lat="45.64378" lon="2.99394">
        <ele>927.4</ele>
        <time>2021-08-26T14:53:09Z</time>
      </trkpt>
      <trkpt lat="45.64381" lon="2.9939">
        <ele>927.7</ele>
        <time>2021-08-26T14:53:11Z</time>
      </trkpt>
      <trkpt lat="45.64384" lon="2.99386">
        <ele>927.9</ele>
        <time>2021-08-26T14:53:13Z</time>
      </trkpt>
      <trkpt lat="45.64386" lon="2.99381">
        <ele>928.2</ele>
        <time>2021-08-26T14:53:15Z</time>
      </trkpt>
      <trkpt lat="45.64389" lon="2.99377">
        <ele>928.5</ele>
        <time>2021-08-26T14:53:17Z</time>
      </trkpt>
      <trkpt lat="45.64392" lon="2.99373">
        <ele>928.7</ele>
        <time>2021-08-26T14:53:19Z</time>
      </trkpt>
      <trkpt lat="45.64395" lon="2.99368">
        <ele>928.9</ele>
        <time>2021-08-26T14:53:21Z</time>
      </trkpt>
      <trkpt lat="45.64398" lon="2.99364">
        <ele>929.1</ele>
        <time>2021-08-26T14:53:23Z</time>
      </trkpt>
      <trkpt lat="45.64401" lon="2.99359">
        <ele>929.3</ele>
        <time>2021-08-26T14:53:25Z</time>
      </trkpt>
      <trkpt lat="45.64403" lon="2.99355">
        <ele>929.5</ele>
        <time>2021-08-26T14:53:27Z</time>
      </trkpt>
      <trkpt lat="45.64406" lon="2.99351">
        <ele>929.6</ele>
        <time>2021-08-26T14:53:29Z</time>
      </trkpt>
      <trkpt lat="45.64409" lon="2.99347">
        <ele>929.7</ele>
        <time>2021-08-26T14:53:31Z</time>
      </trkpt>
      <trkpt lat="45.64411" lon="2.99342">
        <ele>929.8</ele>
        <time>2021-08-26T14:53:33Z</time>
      </trkpt>
      <trkpt lat="45.64414" lon="2.99338">
        <ele>929.9</ele>
        <time>2021-08-26T14:53:35Z</time>
      </trkpt>
      <trkpt lat="45.64417" lon="2.99334">
        <ele>930.1</ele>
        <time>2021-08-26T14:53:37Z</time>
      </trkpt>
      <trkpt lat="45.6442" lon="2.9933">
        <ele>930.4</ele>
        <time>2021-08-26T14:53:39Z</time>
      </trkpt>
      <trkpt lat="45.64422" lon="2.99326">
        <ele>930.7</ele>
        <time>2021-08-26T14:53:41Z</time>
      </trkpt>
      <trkpt lat="45.64425" lon="2.99322">
        <ele>931</ele>
        <time>2021-08-26T14:53:43Z</time>
      </trkpt>
      <trkpt lat="45.64428" lon="2.99317">
        <ele>931.4</ele>
        <time>2021-08-26T14:53:45Z</time>
      </trkpt>
      <trkpt lat="45.64432" lon="2.99313">
        <ele>931.7</ele>
        <time>2021-08-26T14:53:47Z</time>
      </trkpt>
      <trkpt lat="45.64434" lon="2.99309">
        <ele>932</ele>
        <time>2021-08-26T14:53:49Z</time>
      </trkpt>
      <trkpt lat="45.64437" lon="2.99305">
        <ele>932.3</ele>
        <time>2021-08-26T14:53:51Z</time>
      </trkpt>
      <trkpt lat="45.6444" lon="2.993">
        <ele>932.6</ele>
        <time>2021-08-26T14:53:53Z</time>
      </trkpt>
      <trkpt lat="45.64443" lon="2.99296">
        <ele>932.8</ele>
        <time>2021-08-26T14:53:55Z</time>
      </trkpt>
      <trkpt lat="45.64446" lon="2.99292">
        <ele>933.1</ele>
        <time>2021-08-26T14:53:57Z</time>
      </trkpt>
      <trkpt lat="45.64449" lon="2.99288">
        <ele>933.3</ele>
        <time>2021-08-26T14:53:59Z</time>
      </trkpt>
      <trkpt lat="45.64452" lon="2.99284">
        <ele>933.6</ele>
        <time>2021-08-26T14:54:01Z</time>
      </trkpt>
      <trkpt lat="45.64455" lon="2.9928">
        <ele>933.8</ele>
        <time>2021-08-26T14:54:03Z</time>
      </trkpt>
      <trkpt lat="45.64459" lon="2.99277">
        <ele>934.2</ele>
        <time>2021-08-26T14:54:05Z</time>
      </trkpt>
      <trkpt lat="45.64462" lon="2.99272">
        <ele>934.4</ele>
        <time>2021-08-26T14:54:07Z</time>
      </trkpt>
      <trkpt lat="45.64466" lon="2.99269">
        <ele>934.8</ele>
        <time>2021-08-26T14:54:09Z</time>
      </trkpt>
      <trkpt lat="45.6447" lon="2.99267">
        <ele>935.1</ele>
        <time>2021-08-26T14:54:11Z</time>
      </trkpt>
      <trkpt lat="45.64473" lon="2.99263">
        <ele>935.4</ele>
        <time>2021-08-26T14:54:13Z</time>
      </trkpt>
      <trkpt lat="45.64477" lon="2.9926">
        <ele>935.7</ele>
        <time>2021-08-26T14:54:15Z</time>
      </trkpt>
      <trkpt lat="45.6448" lon="2.99258">
        <ele>936.1</ele>
        <time>2021-08-26T14:54:17Z</time>
      </trkpt>
      <trkpt lat="45.64484" lon="2.99255">
        <ele>936.3</ele>
        <time>2021-08-26T14:54:19Z</time>
      </trkpt>
      <trkpt lat="45.64488" lon="2.99252">
        <ele>936.6</ele>
        <time>2021-08-26T14:54:21Z</time>
      </trkpt>
      <trkpt lat="45.64491" lon="2.9925">
        <ele>936.9</ele>
        <time>2021-08-26T14:54:23Z</time>
      </trkpt>
      <trkpt lat="45.64495" lon="2.99247">
        <ele>937.3</ele>
        <time>2021-08-26T14:54:25Z</time>
      </trkpt>
      <trkpt lat="45.64499" lon="2.99244">
        <ele>937.6</ele>
        <time>2021-08-26T14:54:27Z</time>
      </trkpt>
      <trkpt lat="45.64503" lon="2.99242">
        <ele>937.9</ele>
        <time>2021-08-26T14:54:29Z</time>
      </trkpt>
      <trkpt lat="45.64508" lon="2.99238">
        <ele>938.1</ele>
        <time>2021-08-26T14:54:31Z</time>
      </trkpt>
      <trkpt lat="45.64512" lon="2.99234">
        <ele>938.4</ele>
        <time>2021-08-26T14:54:33Z</time>
      </trkpt>
      <trkpt lat="45.64516" lon="2.99231">
        <ele>938.6</ele>
        <time>2021-08-26T14:54:35Z</time>
      </trkpt>
      <trkpt lat="45.64519" lon="2.99227">
        <ele>938.8</ele>
        <time>2021-08-26T14:54:37Z</time>
      </trkpt>
      <trkpt lat="45.64523" lon="2.99223">
        <ele>939</ele>
        <time>2021-08-26T14:54:39Z</time>
      </trkpt>
      <trkpt lat="45.64527" lon="2.99219">
        <ele>939.1</ele>
        <time>2021-08-26T14:54:41Z</time>
      </trkpt>
      <trkpt lat="45.64532" lon="2.99214">
        <ele>939.3</ele>
        <time>2021-08-26T14:54:43Z</time>
      </trkpt>
      <trkpt lat="45.64535" lon="2.9921">
        <ele>939.5</ele>
        <time>2021-08-26T14:54:45Z</time>
      </trkpt>
      <trkpt lat="45.64539" lon="2.99206">
        <ele>939.6</ele>
        <time>2021-08-26T14:54:47Z</time>
      </trkpt>
      <trkpt lat="45.64543" lon="2.99201">
        <ele>939.7</ele>
        <time>2021-08-26T14:54:49Z</time>
      </trkpt>
      <trkpt lat="45.64547" lon="2.99197">
        <ele>939.9</ele>
        <time>2021-08-26T14:54:51Z</time>
      </trkpt>
      <trkpt lat="45.6455" lon="2.99192">
        <ele>940.1</ele>
        <time>2021-08-26T14:54:53Z</time>
      </trkpt>
      <trkpt lat="45.64554" lon="2.99188">
        <ele>940.2</ele>
        <time>2021-08-26T14:54:55Z</time>
      </trkpt>
      <trkpt lat="45.64558" lon="2.99184">
        <ele>940.4</ele>
        <time>2021-08-26T14:54:57Z</time>
      </trkpt>
      <trkpt lat="45.64562" lon="2.9918">
        <ele>940.5</ele>
        <time>2021-08-26T14:54:59Z</time>
      </trkpt>
      <trkpt lat="45.64565" lon="2.99176">
        <ele>940.7</ele>
        <time>2021-08-26T14:55:01Z</time>
      </trkpt>
      <trkpt lat="45.64569" lon="2.99172">
        <ele>940.9</ele>
        <time>2021-08-26T14:55:03Z</time>
      </trkpt>
      <trkpt lat="45.64572" lon="2.99168">
        <ele>941</ele>
        <time>2021-08-26T14:55:05Z</time>
      </trkpt>
      <trkpt lat="45.64576" lon="2.99164">
        <ele>941.2</ele>
        <time>2021-08-26T14:55:07Z</time>
      </trkpt>
      <trkpt lat="45.6458" lon="2.9916">
        <ele>941.5</ele>
        <time>2021-08-26T14:55:09Z</time>
      </trkpt>
      <trkpt lat="45.64583" lon="2.99156">
        <ele>941.7</ele>
        <time>2021-08-26T14:55:11Z</time>
      </trkpt>
      <trkpt lat="45.64587" lon="2.99151">
        <ele>941.9</ele>
        <time>2021-08-26T14:55:13Z</time>
      </trkpt>
      <trkpt lat="45.6459" lon="2.99147">
        <ele>942.1</ele>
        <time>2021-08-26T14:55:15Z</time>
      </trkpt>
      <trkpt lat="45.64594" lon="2.99143">
        <ele>942.4</ele>
        <time>2021-08-26T14:55:17Z</time>
      </trkpt>
      <trkpt lat="45.64598" lon="2.99139">
        <ele>942.6</ele>
        <time>2021-08-26T14:55:19Z</time>
      </trkpt>
      <trkpt lat="45.64601" lon="2.99134">
        <ele>942.8</ele>
        <time>2021-08-26T14:55:21Z</time>
      </trkpt>
      <trkpt lat="45.64605" lon="2.9913">
        <ele>943.1</ele>
        <time>2021-08-26T14:55:23Z</time>
      </trkpt>
      <trkpt lat="45.64609" lon="2.99126">
        <ele>943.3</ele>
        <time>2021-08-26T14:55:25Z</time>
      </trkpt>
      <trkpt lat="45.64612" lon="2.99122">
        <ele>943.5</ele>
        <time>2021-08-26T14:55:27Z</time>
      </trkpt>
      <trkpt lat="45.64615" lon="2.99117">
        <ele>943.7</ele>
        <time>2021-08-26T14:55:29Z</time>
      </trkpt>
      <trkpt lat="45.64619" lon="2.99112">
        <ele>943.9</ele>
        <time>2021-08-26T14:55:31Z</time>
      </trkpt>
      <trkpt lat="45.64622" lon="2.99108">
        <ele>944.2</ele>
        <time>2021-08-26T14:55:33Z</time>
      </trkpt>
      <trkpt lat="45.64626" lon="2.99104">
        <ele>944.4</ele>
        <time>2021-08-26T14:55:35Z</time>
      </trkpt>
      <trkpt lat="45.64629" lon="2.99099">
        <ele>944.7</ele>
        <time>2021-08-26T14:55:37Z</time>
      </trkpt>
      <trkpt lat="45.64631" lon="2.99094">
        <ele>944.8</ele>
        <time>2021-08-26T14:55:39Z</time>
      </trkpt>
      <trkpt lat="45.64635" lon="2.9909">
        <ele>945</ele>
        <time>2021-08-26T14:55:41Z</time>
      </trkpt>
      <trkpt lat="45.64638" lon="2.99085">
        <ele>945.3</ele>
        <time>2021-08-26T14:55:43Z</time>
      </trkpt>
      <trkpt lat="45.64641" lon="2.9908">
        <ele>945.5</ele>
        <time>2021-08-26T14:55:45Z</time>
      </trkpt>
      <trkpt lat="45.64644" lon="2.99076">
        <ele>945.8</ele>
        <time>2021-08-26T14:55:47Z</time>
      </trkpt>
      <trkpt lat="45.64647" lon="2.9907">
        <ele>946.1</ele>
        <time>2021-08-26T14:55:49Z</time>
      </trkpt>
      <trkpt lat="45.6465" lon="2.99065">
        <ele>946.4</ele>
        <time>2021-08-26T14:55:51Z</time>
      </trkpt>
      <trkpt lat="45.64653" lon="2.9906">
        <ele>946.7</ele>
        <time>2021-08-26T14:55:53Z</time>
      </trkpt>
      <trkpt lat="45.64656" lon="2.99055">
        <ele>947</ele>
        <time>2021-08-26T14:55:55Z</time>
      </trkpt>
      <trkpt lat="45.64659" lon="2.9905">
        <ele>947.2</ele>
        <time>2021-08-26T14:55:57Z</time>
      </trkpt>
      <trkpt lat="45.64661" lon="2.99045">
        <ele>947.5</ele>
        <time>2021-08-26T14:55:59Z</time>
      </trkpt>
      <trkpt lat="45.64664" lon="2.99039">
        <ele>947.8</ele>
        <time>2021-08-26T14:56:01Z</time>
      </trkpt>
      <trkpt lat="45.64667" lon="2.99034">
        <ele>948</ele>
        <time>2021-08-26T14:56:03Z</time>
      </trkpt>
      <trkpt lat="45.6467" lon="2.99029">
        <ele>948.1</ele>
        <time>2021-08-26T14:56:05Z</time>
      </trkpt>
      <trkpt lat="45.64673" lon="2.99025">
        <ele>948.2</ele>
        <time>2021-08-26T14:56:07Z</time>
      </trkpt>
      <trkpt lat="45.64676" lon="2.9902">
        <ele>948.3</ele>
        <time>2021-08-26T14:56:09Z</time>
      </trkpt>
      <trkpt lat="45.64679" lon="2.99014">
        <ele>948.4</ele>
        <time>2021-08-26T14:56:11Z</time>
      </trkpt>
      <trkpt lat="45.64681" lon="2.99009">
        <ele>948.5</ele>
        <time>2021-08-26T14:56:13Z</time>
      </trkpt>
      <trkpt lat="45.64684" lon="2.99005">
        <ele>948.6</ele>
        <time>2021-08-26T14:56:15Z</time>
      </trkpt>
      <trkpt lat="45.64687" lon="2.98999">
        <ele>948.7</ele>
        <time>2021-08-26T14:56:17Z</time>
      </trkpt>
      <trkpt lat="45.6469" lon="2.98994">
        <ele>948.9</ele>
        <time>2021-08-26T14:56:19Z</time>
      </trkpt>
      <trkpt lat="45.64693" lon="2.98989">
        <ele>949.1</ele>
        <time>2021-08-26T14:56:21Z</time>
      </trkpt>
      <trkpt lat="45.64696" lon="2.98984">
        <ele>949.3</ele>
        <time>2021-08-26T14:56:23Z</time>
      </trkpt>
      <trkpt lat="45.64699" lon="2.9898">
        <ele>949.5</ele>
        <time>2021-08-26T14:56:25Z</time>
      </trkpt>
      <trkpt lat="45.64702" lon="2.98975">
        <ele>949.7</ele>
        <time>2021-08-26T14:56:27Z</time>
      </trkpt>
      <trkpt lat="45.64705" lon="2.9897">
        <ele>949.9</ele>
        <time>2021-08-26T14:56:29Z</time>
      </trkpt>
      <trkpt lat="45.64707" lon="2.98965">
        <ele>950.1</ele>
        <time>2021-08-26T14:56:31Z</time>
      </trkpt>
      <trkpt lat="45.6471" lon="2.9896">
        <ele>950.3</ele>
        <time>2021-08-26T14:56:33Z</time>
      </trkpt>
      <trkpt lat="45.64713" lon="2.98956">
        <ele>950.5</ele>
        <time>2021-08-26T14:56:35Z</time>
      </trkpt>
      <trkpt lat="45.64715" lon="2.98952">
        <ele>950.7</ele>
        <time>2021-08-26T14:56:37Z</time>
      </trkpt>
      <trkpt lat="45.64718" lon="2.98949">
        <ele>950.8</ele>
        <time>2021-08-26T14:56:39Z</time>
      </trkpt>
      <trkpt lat="45.64721" lon="2.98946">
        <ele>951</ele>
        <time>2021-08-26T14:56:41Z</time>
      </trkpt>
      <trkpt lat="45.64724" lon="2.98942">
        <ele>951.2</ele>
        <time>2021-08-26T14:56:43Z</time>
      </trkpt>
      <trkpt lat="45.64727" lon="2.98939">
        <ele>951.4</ele>
        <time>2021-08-26T14:56:45Z</time>
      </trkpt>
      <trkpt lat="45.6473" lon="2.98937">
        <ele>951.6</ele>
        <time>2021-08-26T14:56:47Z</time>
      </trkpt>
      <trkpt lat="45.64733" lon="2.98933">
        <ele>951.8</ele>
        <time>2021-08-26T14:56:49Z</time>
      </trkpt>
      <trkpt lat="45.64735" lon="2.9893">
        <ele>952</ele>
        <time>2021-08-26T14:56:51Z</time>
      </trkpt>
      <trkpt lat="45.64738" lon="2.98927">
        <ele>952.2</ele>
        <time>2021-08-26T14:56:53Z</time>
      </trkpt>
      <trkpt lat="45.6474" lon="2.98925">
        <ele>952.4</ele>
        <time>2021-08-26T14:56:55Z</time>
      </trkpt>
      <trkpt lat="45.64742" lon="2.98922">
        <ele>952.5</ele>
        <time>2021-08-26T14:56:57Z</time>
      </trkpt>
      <trkpt lat="45.64744" lon="2.9892">
        <ele>952.7</ele>
        <time>2021-08-26T14:56:59Z</time>
      </trkpt>
      <trkpt lat="45.64747" lon="2.98919">
        <ele>952.8</ele>
        <time>2021-08-26T14:57:01Z</time>
      </trkpt>
      <trkpt lat="45.64751" lon="2.98918">
        <ele>952.9</ele>
        <time>2021-08-26T14:57:03Z</time>
      </trkpt>
      <trkpt lat="45.64754" lon="2.98916">
        <ele>952.7</ele>
        <time>2021-08-26T14:57:05Z</time>
      </trkpt>
      <trkpt lat="45.64758" lon="2.98913">
        <ele>952.5</ele>
        <time>2021-08-26T14:57:07Z</time>
      </trkpt>
      <trkpt lat="45.6476" lon="2.98913">
        <ele>952.4</ele>
        <time>2021-08-26T14:57:09Z</time>
      </trkpt>
      <trkpt lat="45.6476" lon="2.98912">
        <ele>952.3</ele>
        <time>2021-08-26T14:57:11Z</time>
      </trkpt>
      <trkpt lat="45.6476" lon="2.98913">
        <ele>952.3</ele>
        <time>2021-08-26T14:57:13Z</time>
      </trkpt>
      <trkpt lat="45.6476" lon="2.98913">
        <ele>952.3</ele>
        <time>2021-08-26T14:57:15Z</time>
      </trkpt>
      <trkpt lat="45.6476" lon="2.98913">
        <ele>952.3</ele>
        <time>2021-08-26T14:57:17Z</time>
      </trkpt>
      <trkpt lat="45.6476" lon="2.98911">
        <ele>952.4</ele>
        <time>2021-08-26T14:57:19Z</time>
      </trkpt>
      <trkpt lat="45.64765" lon="2.98906">
        <ele>952.1</ele>
        <time>2021-08-26T15:11:55Z</time>
      </trkpt>
      <trkpt lat="45.64769" lon="2.98903">
        <ele>951.9</ele>
        <time>2021-08-26T15:11:57Z</time>
      </trkpt>
      <trkpt lat="45.64773" lon="2.989">
        <ele>951.6</ele>
        <time>2021-08-26T15:11:59Z</time>
      </trkpt>
      <trkpt lat="45.64778" lon="2.98895">
        <ele>951.4</ele>
        <time>2021-08-26T15:12:01Z</time>
      </trkpt>
      <trkpt lat="45.64783" lon="2.98891">
        <ele>951.2</ele>
        <time>2021-08-26T15:12:03Z</time>
      </trkpt>
      <trkpt lat="45.64789" lon="2.98886">
        <ele>950.9</ele>
        <time>2021-08-26T15:12:05Z</time>
      </trkpt>
      <trkpt lat="45.64795" lon="2.98881">
        <ele>950.7</ele>
        <time>2021-08-26T15:12:07Z</time>
      </trkpt>
      <trkpt lat="45.64801" lon="2.98876">
        <ele>950.4</ele>
        <time>2021-08-26T15:12:09Z</time>
      </trkpt>
      <trkpt lat="45.64807" lon="2.98869">
        <ele>950.3</ele>
        <time>2021-08-26T15:12:11Z</time>
      </trkpt>
      <trkpt lat="45.64813" lon="2.98864">
        <ele>950</ele>
        <time>2021-08-26T15:12:13Z</time>
      </trkpt>
      <trkpt lat="45.6482" lon="2.98856">
        <ele>949.9</ele>
        <time>2021-08-26T15:12:15Z</time>
      </trkpt>
      <trkpt lat="45.64826" lon="2.98848">
        <ele>949.9</ele>
        <time>2021-08-26T15:12:17Z</time>
      </trkpt>
      <trkpt lat="45.64832" lon="2.98838">
        <ele>949.9</ele>
        <time>2021-08-26T15:12:19Z</time>
      </trkpt>
      <trkpt lat="45.64838" lon="2.98827">
        <ele>949.6</ele>
        <time>2021-08-26T15:12:21Z</time>
      </trkpt>
      <trkpt lat="45.64844" lon="2.98813">
        <ele>949.3</ele>
        <time>2021-08-26T15:12:23Z</time>
      </trkpt>
      <trkpt lat="45.64851" lon="2.98799">
        <ele>948.9</ele>
        <time>2021-08-26T15:12:25Z</time>
      </trkpt>
      <trkpt lat="45.64858" lon="2.98784">
        <ele>948.3</ele>
        <time>2021-08-26T15:12:27Z</time>
      </trkpt>
      <trkpt lat="45.64866" lon="2.98768">
        <ele>947.7</ele>
        <time>2021-08-26T15:12:29Z</time>
      </trkpt>
      <trkpt lat="45.64874" lon="2.98751">
        <ele>947.1</ele>
        <time>2021-08-26T15:12:31Z</time>
      </trkpt>
      <trkpt lat="45.64883" lon="2.98734">
        <ele>946.5</ele>
        <time>2021-08-26T15:12:33Z</time>
      </trkpt>
      <trkpt lat="45.64891" lon="2.98716">
        <ele>946</ele>
        <time>2021-08-26T15:12:35Z</time>
      </trkpt>
      <trkpt lat="45.64902" lon="2.987">
        <ele>945.4</ele>
        <time>2021-08-26T15:12:37Z</time>
      </trkpt>
      <trkpt lat="45.64913" lon="2.98684">
        <ele>944.8</ele>
        <time>2021-08-26T15:12:39Z</time>
      </trkpt>
      <trkpt lat="45.64925" lon="2.98669">
        <ele>944.2</ele>
        <time>2021-08-26T15:12:41Z</time>
      </trkpt>
      <trkpt lat="45.64938" lon="2.98653">
        <ele>943.2</ele>
        <time>2021-08-26T15:12:43Z</time>
      </trkpt>
      <trkpt lat="45.6495" lon="2.98638">
        <ele>942.2</ele>
        <time>2021-08-26T15:12:45Z</time>
      </trkpt>
      <trkpt lat="45.64962" lon="2.98621">
        <ele>941.2</ele>
        <time>2021-08-26T15:12:47Z</time>
      </trkpt>
      <trkpt lat="45.64974" lon="2.98604">
        <ele>940.2</ele>
        <time>2021-08-26T15:12:49Z</time>
      </trkpt>
      <trkpt lat="45.64985" lon="2.98583">
        <ele>939.3</ele>
        <time>2021-08-26T15:12:51Z</time>
      </trkpt>
      <trkpt lat="45.64995" lon="2.98561">
        <ele>938.2</ele>
        <time>2021-08-26T15:12:53Z</time>
      </trkpt>
      <trkpt lat="45.65005" lon="2.98538">
        <ele>936.9</ele>
        <time>2021-08-26T15:12:55Z</time>
      </trkpt>
      <trkpt lat="45.65016" lon="2.98514">
        <ele>935.8</ele>
        <time>2021-08-26T15:12:57Z</time>
      </trkpt>
      <trkpt lat="45.65027" lon="2.98489">
        <ele>935.2</ele>
        <time>2021-08-26T15:12:59Z</time>
      </trkpt>
      <trkpt lat="45.65038" lon="2.98464">
        <ele>934.8</ele>
        <time>2021-08-26T15:13:01Z</time>
      </trkpt>
      <trkpt lat="45.65052" lon="2.98442">
        <ele>934.6</ele>
        <time>2021-08-26T15:13:03Z</time>
      </trkpt>
      <trkpt lat="45.65067" lon="2.98424">
        <ele>934.4</ele>
        <time>2021-08-26T15:13:05Z</time>
      </trkpt>
      <trkpt lat="45.65085" lon="2.98413">
        <ele>934.1</ele>
        <time>2021-08-26T15:13:07Z</time>
      </trkpt>
      <trkpt lat="45.65102" lon="2.9841">
        <ele>934.5</ele>
        <time>2021-08-26T15:13:09Z</time>
      </trkpt>
      <trkpt lat="45.65119" lon="2.98408">
        <ele>934.8</ele>
        <time>2021-08-26T15:13:11Z</time>
      </trkpt>
      <trkpt lat="45.65135" lon="2.98406">
        <ele>935.1</ele>
        <time>2021-08-26T15:13:13Z</time>
      </trkpt>
      <trkpt lat="45.65149" lon="2.98405">
        <ele>935.4</ele>
        <time>2021-08-26T15:13:15Z</time>
      </trkpt>
      <trkpt lat="45.65162" lon="2.98403">
        <ele>935.7</ele>
        <time>2021-08-26T15:13:17Z</time>
      </trkpt>
      <trkpt lat="45.65174" lon="2.98402">
        <ele>935.9</ele>
        <time>2021-08-26T15:13:19Z</time>
      </trkpt>
      <trkpt lat="45.65184" lon="2.98402">
        <ele>935.9</ele>
        <time>2021-08-26T15:13:21Z</time>
      </trkpt>
      <trkpt lat="45.65194" lon="2.984">
        <ele>936</ele>
        <time>2021-08-26T15:13:23Z</time>
      </trkpt>
      <trkpt lat="45.65203" lon="2.984">
        <ele>936</ele>
        <time>2021-08-26T15:13:25Z</time>
      </trkpt>
      <trkpt lat="45.6521" lon="2.98397">
        <ele>936.2</ele>
        <time>2021-08-26T15:13:27Z</time>
      </trkpt>
      <trkpt lat="45.65217" lon="2.98397">
        <ele>936.2</ele>
        <time>2021-08-26T15:13:29Z</time>
      </trkpt>
      <trkpt lat="45.65224" lon="2.98398">
        <ele>936.1</ele>
        <time>2021-08-26T15:13:31Z</time>
      </trkpt>
      <trkpt lat="45.6523" lon="2.98397">
        <ele>936.2</ele>
        <time>2021-08-26T15:13:33Z</time>
      </trkpt>
      <trkpt lat="45.65236" lon="2.98396">
        <ele>936.3</ele>
        <time>2021-08-26T15:13:35Z</time>
      </trkpt>
      <trkpt lat="45.65242" lon="2.98394">
        <ele>936.4</ele>
        <time>2021-08-26T15:13:37Z</time>
      </trkpt>
      <trkpt lat="45.65247" lon="2.98391">
        <ele>936.5</ele>
        <time>2021-08-26T15:13:39Z</time>
      </trkpt>
      <trkpt lat="45.65252" lon="2.98387">
        <ele>936.7</ele>
        <time>2021-08-26T15:13:41Z</time>
      </trkpt>
      <trkpt lat="45.65256" lon="2.98382">
        <ele>936.6</ele>
        <time>2021-08-26T15:13:43Z</time>
      </trkpt>
      <trkpt lat="45.65259" lon="2.98376">
        <ele>936.6</ele>
        <time>2021-08-26T15:13:45Z</time>
      </trkpt>
      <trkpt lat="45.65263" lon="2.9837">
        <ele>936.6</ele>
        <time>2021-08-26T15:13:47Z</time>
      </trkpt>
      <trkpt lat="45.65266" lon="2.98364">
        <ele>936.6</ele>
        <time>2021-08-26T15:13:49Z</time>
      </trkpt>
      <trkpt lat="45.65269" lon="2.98358">
        <ele>936.7</ele>
        <time>2021-08-26T15:13:51Z</time>
      </trkpt>
      <trkpt lat="45.65271" lon="2.98352">
        <ele>936.8</ele>
        <time>2021-08-26T15:13:53Z</time>
      </trkpt>
      <trkpt lat="45.65274" lon="2.98345">
        <ele>936.8</ele>
        <time>2021-08-26T15:13:55Z</time>
      </trkpt>
      <trkpt lat="45.65277" lon="2.98338">
        <ele>936.8</ele>
        <time>2021-08-26T15:13:57Z</time>
      </trkpt>
      <trkpt lat="45.65281" lon="2.98332">
        <ele>936.8</ele>
        <time>2021-08-26T15:13:59Z</time>
      </trkpt>
      <trkpt lat="45.65284" lon="2.98325">
        <ele>936.9</ele>
        <time>2021-08-26T15:14:01Z</time>
      </trkpt>
      <trkpt lat="45.65287" lon="2.98319">
        <ele>937</ele>
        <time>2021-08-26T15:14:03Z</time>
      </trkpt>
      <trkpt lat="45.6529" lon="2.98312">
        <ele>937.1</ele>
        <time>2021-08-26T15:14:05Z</time>
      </trkpt>
      <trkpt lat="45.65293" lon="2.98305">
        <ele>937.2</ele>
        <time>2021-08-26T15:14:07Z</time>
      </trkpt>
      <trkpt lat="45.65297" lon="2.98298">
        <ele>937.4</ele>
        <time>2021-08-26T15:14:09Z</time>
      </trkpt>
      <trkpt lat="45.653" lon="2.98291">
        <ele>937.6</ele>
        <time>2021-08-26T15:14:11Z</time>
      </trkpt>
      <trkpt lat="45.65303" lon="2.98284">
        <ele>937.7</ele>
        <time>2021-08-26T15:14:13Z</time>
      </trkpt>
      <trkpt lat="45.65307" lon="2.98277">
        <ele>938</ele>
        <time>2021-08-26T15:14:15Z</time>
      </trkpt>
      <trkpt lat="45.6531" lon="2.9827">
        <ele>938.2</ele>
        <time>2021-08-26T15:14:17Z</time>
      </trkpt>
      <trkpt lat="45.65313" lon="2.98264">
        <ele>938.5</ele>
        <time>2021-08-26T15:14:19Z</time>
      </trkpt>
      <trkpt lat="45.65316" lon="2.98257">
        <ele>938.7</ele>
        <time>2021-08-26T15:14:21Z</time>
      </trkpt>
      <trkpt lat="45.6532" lon="2.98251">
        <ele>939</ele>
        <time>2021-08-26T15:14:23Z</time>
      </trkpt>
      <trkpt lat="45.65323" lon="2.98244">
        <ele>939.4</ele>
        <time>2021-08-26T15:14:25Z</time>
      </trkpt>
      <trkpt lat="45.65327" lon="2.98238">
        <ele>939.8</ele>
        <time>2021-08-26T15:14:27Z</time>
      </trkpt>
      <trkpt lat="45.65332" lon="2.98233">
        <ele>940.1</ele>
        <time>2021-08-26T15:14:29Z</time>
      </trkpt>
      <trkpt lat="45.65335" lon="2.98227">
        <ele>940.5</ele>
        <time>2021-08-26T15:14:31Z</time>
      </trkpt>
      <trkpt lat="45.6534" lon="2.98222">
        <ele>940.6</ele>
        <time>2021-08-26T15:14:33Z</time>
      </trkpt>
      <trkpt lat="45.65345" lon="2.98217">
        <ele>940.7</ele>
        <time>2021-08-26T15:14:35Z</time>
      </trkpt>
      <trkpt lat="45.6535" lon="2.98211">
        <ele>940.6</ele>
        <time>2021-08-26T15:14:37Z</time>
      </trkpt>
      <trkpt lat="45.65355" lon="2.98207">
        <ele>940.5</ele>
        <time>2021-08-26T15:14:39Z</time>
      </trkpt>
      <trkpt lat="45.65361" lon="2.98202">
        <ele>940.5</ele>
        <time>2021-08-26T15:14:41Z</time>
      </trkpt>
      <trkpt lat="45.65366" lon="2.98196">
        <ele>940.4</ele>
        <time>2021-08-26T15:14:43Z</time>
      </trkpt>
      <trkpt lat="45.65371" lon="2.98191">
        <ele>940.4</ele>
        <time>2021-08-26T15:14:45Z</time>
      </trkpt>
      <trkpt lat="45.65376" lon="2.98186">
        <ele>940.3</ele>
        <time>2021-08-26T15:14:47Z</time>
      </trkpt>
      <trkpt lat="45.65381" lon="2.9818">
        <ele>940.2</ele>
        <time>2021-08-26T15:14:49Z</time>
      </trkpt>
      <trkpt lat="45.65386" lon="2.98176">
        <ele>940.1</ele>
        <time>2021-08-26T15:14:51Z</time>
      </trkpt>
      <trkpt lat="45.65391" lon="2.9817">
        <ele>940</ele>
        <time>2021-08-26T15:14:53Z</time>
      </trkpt>
      <trkpt lat="45.65397" lon="2.98165">
        <ele>939.8</ele>
        <time>2021-08-26T15:14:55Z</time>
      </trkpt>
      <trkpt lat="45.65401" lon="2.9816">
        <ele>939.6</ele>
        <time>2021-08-26T15:14:57Z</time>
      </trkpt>
      <trkpt lat="45.65406" lon="2.98154">
        <ele>939.4</ele>
        <time>2021-08-26T15:14:59Z</time>
      </trkpt>
      <trkpt lat="45.65411" lon="2.98148">
        <ele>939.4</ele>
        <time>2021-08-26T15:15:01Z</time>
      </trkpt>
      <trkpt lat="45.65415" lon="2.98141">
        <ele>939.4</ele>
        <time>2021-08-26T15:15:03Z</time>
      </trkpt>
      <trkpt lat="45.65418" lon="2.98132">
        <ele>939.8</ele>
        <time>2021-08-26T15:15:05Z</time>
      </trkpt>
      <trkpt lat="45.6542" lon="2.98124">
        <ele>940.4</ele>
        <time>2021-08-26T15:15:07Z</time>
      </trkpt>
      <trkpt lat="45.65421" lon="2.98114">
        <ele>941.1</ele>
        <time>2021-08-26T15:15:09Z</time>
      </trkpt>
      <trkpt lat="45.65422" lon="2.98104">
        <ele>941.8</ele>
        <time>2021-08-26T15:15:11Z</time>
      </trkpt>
      <trkpt lat="45.65423" lon="2.98095">
        <ele>942.5</ele>
        <time>2021-08-26T15:15:13Z</time>
      </trkpt>
      <trkpt lat="45.65423" lon="2.98084">
        <ele>943.3</ele>
        <time>2021-08-26T15:15:15Z</time>
      </trkpt>
      <trkpt lat="45.65424" lon="2.98074">
        <ele>943.6</ele>
        <time>2021-08-26T15:15:17Z</time>
      </trkpt>
      <trkpt lat="45.65425" lon="2.98064">
        <ele>943.9</ele>
        <time>2021-08-26T15:15:19Z</time>
      </trkpt>
      <trkpt lat="45.65425" lon="2.98055">
        <ele>944.3</ele>
        <time>2021-08-26T15:15:21Z</time>
      </trkpt>
      <trkpt lat="45.65425" lon="2.98045">
        <ele>944.6</ele>
        <time>2021-08-26T15:15:23Z</time>
      </trkpt>
      <trkpt lat="45.65426" lon="2.98035">
        <ele>944.9</ele>
        <time>2021-08-26T15:15:25Z</time>
      </trkpt>
      <trkpt lat="45.65426" lon="2.98025">
        <ele>945.3</ele>
        <time>2021-08-26T15:15:27Z</time>
      </trkpt>
      <trkpt lat="45.65425" lon="2.98015">
        <ele>945.7</ele>
        <time>2021-08-26T15:15:29Z</time>
      </trkpt>
      <trkpt lat="45.65424" lon="2.98005">
        <ele>946.2</ele>
        <time>2021-08-26T15:15:31Z</time>
      </trkpt>
      <trkpt lat="45.65422" lon="2.97995">
        <ele>946.5</ele>
        <time>2021-08-26T15:15:33Z</time>
      </trkpt>
      <trkpt lat="45.65419" lon="2.97985">
        <ele>946.5</ele>
        <time>2021-08-26T15:15:35Z</time>
      </trkpt>
      <trkpt lat="45.65415" lon="2.97976">
        <ele>946.7</ele>
        <time>2021-08-26T15:15:37Z</time>
      </trkpt>
      <trkpt lat="45.65411" lon="2.97967">
        <ele>947.1</ele>
        <time>2021-08-26T15:15:39Z</time>
      </trkpt>
      <trkpt lat="45.65407" lon="2.97958">
        <ele>947.6</ele>
        <time>2021-08-26T15:15:41Z</time>
      </trkpt>
      <trkpt lat="45.65403" lon="2.9795">
        <ele>948.1</ele>
        <time>2021-08-26T15:15:43Z</time>
      </trkpt>
      <trkpt lat="45.65399" lon="2.97941">
        <ele>948.6</ele>
        <time>2021-08-26T15:15:45Z</time>
      </trkpt>
      <trkpt lat="45.65394" lon="2.97933">
        <ele>949.2</ele>
        <time>2021-08-26T15:15:47Z</time>
      </trkpt>
      <trkpt lat="45.65389" lon="2.97924">
        <ele>949.7</ele>
        <time>2021-08-26T15:15:49Z</time>
      </trkpt>
      <trkpt lat="45.65385" lon="2.97914">
        <ele>950.2</ele>
        <time>2021-08-26T15:15:51Z</time>
      </trkpt>
      <trkpt lat="45.6538" lon="2.97905">
        <ele>950.5</ele>
        <time>2021-08-26T15:15:53Z</time>
      </trkpt>
      <trkpt lat="45.65376" lon="2.97896">
        <ele>950.8</ele>
        <time>2021-08-26T15:15:55Z</time>
      </trkpt>
      <trkpt lat="45.65371" lon="2.97888">
        <ele>951.1</ele>
        <time>2021-08-26T15:15:57Z</time>
      </trkpt>
      <trkpt lat="45.65367" lon="2.97879">
        <ele>951.3</ele>
        <time>2021-08-26T15:15:59Z</time>
      </trkpt>
      <trkpt lat="45.65362" lon="2.9787">
        <ele>951.5</ele>
        <time>2021-08-26T15:16:01Z</time>
      </trkpt>
      <trkpt lat="45.65358" lon="2.97861">
        <ele>951.7</ele>
        <time>2021-08-26T15:16:03Z</time>
      </trkpt>
      <trkpt lat="45.65354" lon="2.97853">
        <ele>951.9</ele>
        <time>2021-08-26T15:16:05Z</time>
      </trkpt>
      <trkpt lat="45.6535" lon="2.97844">
        <ele>952.1</ele>
        <time>2021-08-26T15:16:07Z</time>
      </trkpt>
      <trkpt lat="45.65345" lon="2.97836">
        <ele>952.3</ele>
        <time>2021-08-26T15:16:09Z</time>
      </trkpt>
      <trkpt lat="45.65341" lon="2.97827">
        <ele>952.6</ele>
        <time>2021-08-26T15:16:11Z</time>
      </trkpt>
      <trkpt lat="45.65338" lon="2.97816">
        <ele>952.9</ele>
        <time>2021-08-26T15:16:13Z</time>
      </trkpt>
      <trkpt lat="45.65337" lon="2.97805">
        <ele>952.7</ele>
        <time>2021-08-26T15:16:15Z</time>
      </trkpt>
      <trkpt lat="45.65339" lon="2.97793">
        <ele>952.2</ele>
        <time>2021-08-26T15:16:17Z</time>
      </trkpt>
      <trkpt lat="45.65343" lon="2.97781">
        <ele>951.4</ele>
        <time>2021-08-26T15:16:19Z</time>
      </trkpt>
      <trkpt lat="45.65347" lon="2.97771">
        <ele>950.4</ele>
        <time>2021-08-26T15:16:21Z</time>
      </trkpt>
      <trkpt lat="45.65352" lon="2.97761">
        <ele>949.5</ele>
        <time>2021-08-26T15:16:23Z</time>
      </trkpt>
      <trkpt lat="45.65357" lon="2.97749">
        <ele>948.6</ele>
        <time>2021-08-26T15:16:25Z</time>
      </trkpt>
      <trkpt lat="45.65362" lon="2.97739">
        <ele>947.9</ele>
        <time>2021-08-26T15:16:27Z</time>
      </trkpt>
      <trkpt lat="45.65367" lon="2.97728">
        <ele>947.2</ele>
        <time>2021-08-26T15:16:29Z</time>
      </trkpt>
      <trkpt lat="45.65369" lon="2.97716">
        <ele>946.7</ele>
        <time>2021-08-26T15:16:31Z</time>
      </trkpt>
      <trkpt lat="45.6537" lon="2.97703">
        <ele>946.6</ele>
        <time>2021-08-26T15:16:33Z</time>
      </trkpt>
      <trkpt lat="45.6537" lon="2.9769">
        <ele>946.6</ele>
        <time>2021-08-26T15:16:35Z</time>
      </trkpt>
      <trkpt lat="45.65368" lon="2.97677">
        <ele>947</ele>
        <time>2021-08-26T15:16:37Z</time>
      </trkpt>
      <trkpt lat="45.65367" lon="2.97664">
        <ele>947.2</ele>
        <time>2021-08-26T15:16:39Z</time>
      </trkpt>
      <trkpt lat="45.65365" lon="2.97652">
        <ele>947.8</ele>
        <time>2021-08-26T15:16:41Z</time>
      </trkpt>
      <trkpt lat="45.65364" lon="2.97639">
        <ele>948.4</ele>
        <time>2021-08-26T15:16:43Z</time>
      </trkpt>
      <trkpt lat="45.65363" lon="2.97626">
        <ele>949.1</ele>
        <time>2021-08-26T15:16:45Z</time>
      </trkpt>
      <trkpt lat="45.65361" lon="2.97613">
        <ele>949.8</ele>
        <time>2021-08-26T15:16:47Z</time>
      </trkpt>
      <trkpt lat="45.6536" lon="2.976">
        <ele>950.6</ele>
        <time>2021-08-26T15:16:49Z</time>
      </trkpt>
      <trkpt lat="45.65358" lon="2.97587">
        <ele>951.3</ele>
        <time>2021-08-26T15:16:51Z</time>
      </trkpt>
      <trkpt lat="45.65357" lon="2.97574">
        <ele>952.2</ele>
        <time>2021-08-26T15:16:53Z</time>
      </trkpt>
      <trkpt lat="45.65356" lon="2.97561">
        <ele>953</ele>
        <time>2021-08-26T15:16:55Z</time>
      </trkpt>
      <trkpt lat="45.65355" lon="2.97548">
        <ele>953.8</ele>
        <time>2021-08-26T15:16:57Z</time>
      </trkpt>
      <trkpt lat="45.65353" lon="2.97535">
        <ele>954.6</ele>
        <time>2021-08-26T15:16:59Z</time>
      </trkpt>
      <trkpt lat="45.65354" lon="2.97521">
        <ele>954.9</ele>
        <time>2021-08-26T15:17:01Z</time>
      </trkpt>
      <trkpt lat="45.65359" lon="2.97509">
        <ele>954.6</ele>
        <time>2021-08-26T15:17:03Z</time>
      </trkpt>
      <trkpt lat="45.65366" lon="2.97501">
        <ele>953.9</ele>
        <time>2021-08-26T15:17:05Z</time>
      </trkpt>
      <trkpt lat="45.65375" lon="2.97496">
        <ele>952.7</ele>
        <time>2021-08-26T15:17:07Z</time>
      </trkpt>
      <trkpt lat="45.65384" lon="2.97493">
        <ele>951.5</ele>
        <time>2021-08-26T15:17:09Z</time>
      </trkpt>
      <trkpt lat="45.65393" lon="2.97491">
        <ele>950.2</ele>
        <time>2021-08-26T15:17:11Z</time>
      </trkpt>
      <trkpt lat="45.65402" lon="2.97488">
        <ele>949</ele>
        <time>2021-08-26T15:17:13Z</time>
      </trkpt>
      <trkpt lat="45.6541" lon="2.97483">
        <ele>948</ele>
        <time>2021-08-26T15:17:15Z</time>
      </trkpt>
      <trkpt lat="45.65418" lon="2.97475">
        <ele>947.4</ele>
        <time>2021-08-26T15:17:17Z</time>
      </trkpt>
      <trkpt lat="45.65424" lon="2.97464">
        <ele>947.2</ele>
        <time>2021-08-26T15:17:19Z</time>
      </trkpt>
      <trkpt lat="45.65428" lon="2.97452">
        <ele>947.5</ele>
        <time>2021-08-26T15:17:21Z</time>
      </trkpt>
      <trkpt lat="45.6543" lon="2.97438">
        <ele>948.1</ele>
        <time>2021-08-26T15:17:23Z</time>
      </trkpt>
      <trkpt lat="45.65433" lon="2.97424">
        <ele>948.8</ele>
        <time>2021-08-26T15:17:25Z</time>
      </trkpt>
      <trkpt lat="45.65436" lon="2.97411">
        <ele>949.1</ele>
        <time>2021-08-26T15:17:27Z</time>
      </trkpt>
      <trkpt lat="45.65441" lon="2.97398">
        <ele>948.9</ele>
        <time>2021-08-26T15:17:29Z</time>
      </trkpt>
      <trkpt lat="45.65447" lon="2.97386">
        <ele>948.5</ele>
        <time>2021-08-26T15:17:31Z</time>
      </trkpt>
      <trkpt lat="45.65455" lon="2.97376">
        <ele>948</ele>
        <time>2021-08-26T15:17:33Z</time>
      </trkpt>
      <trkpt lat="45.65464" lon="2.97368">
        <ele>947.4</ele>
        <time>2021-08-26T15:17:35Z</time>
      </trkpt>
      <trkpt lat="45.65472" lon="2.97359">
        <ele>946.8</ele>
        <time>2021-08-26T15:17:37Z</time>
      </trkpt>
      <trkpt lat="45.6548" lon="2.97349">
        <ele>946.4</ele>
        <time>2021-08-26T15:17:39Z</time>
      </trkpt>
      <trkpt lat="45.65485" lon="2.97337">
        <ele>946.3</ele>
        <time>2021-08-26T15:17:41Z</time>
      </trkpt>
      <trkpt lat="45.6549" lon="2.97324">
        <ele>946.6</ele>
        <time>2021-08-26T15:17:43Z</time>
      </trkpt>
      <trkpt lat="45.65493" lon="2.97311">
        <ele>947.2</ele>
        <time>2021-08-26T15:17:45Z</time>
      </trkpt>
      <trkpt lat="45.65496" lon="2.97298">
        <ele>947.8</ele>
        <time>2021-08-26T15:17:47Z</time>
      </trkpt>
      <trkpt lat="45.65499" lon="2.97286">
        <ele>948.5</ele>
        <time>2021-08-26T15:17:49Z</time>
      </trkpt>
      <trkpt lat="45.65502" lon="2.97273">
        <ele>949.1</ele>
        <time>2021-08-26T15:17:51Z</time>
      </trkpt>
      <trkpt lat="45.65505" lon="2.97261">
        <ele>949.6</ele>
        <time>2021-08-26T15:17:53Z</time>
      </trkpt>
      <trkpt lat="45.6551" lon="2.97249">
        <ele>949.8</ele>
        <time>2021-08-26T15:17:55Z</time>
      </trkpt>
      <trkpt lat="45.65517" lon="2.97241">
        <ele>949.5</ele>
        <time>2021-08-26T15:17:57Z</time>
      </trkpt>
      <trkpt lat="45.65526" lon="2.97237">
        <ele>948.7</ele>
        <time>2021-08-26T15:17:59Z</time>
      </trkpt>
      <trkpt lat="45.65536" lon="2.97234">
        <ele>947.6</ele>
        <time>2021-08-26T15:18:01Z</time>
      </trkpt>
      <trkpt lat="45.65545" lon="2.97228">
        <ele>946.9</ele>
        <time>2021-08-26T15:18:03Z</time>
      </trkpt>
      <trkpt lat="45.65555" lon="2.97218">
        <ele>946.4</ele>
        <time>2021-08-26T15:18:05Z</time>
      </trkpt>
      <trkpt lat="45.65564" lon="2.97207">
        <ele>946.1</ele>
        <time>2021-08-26T15:18:07Z</time>
      </trkpt>
      <trkpt lat="45.65574" lon="2.97195">
        <ele>945.9</ele>
        <time>2021-08-26T15:18:09Z</time>
      </trkpt>
      <trkpt lat="45.65584" lon="2.97182">
        <ele>945.5</ele>
        <time>2021-08-26T15:18:11Z</time>
      </trkpt>
      <trkpt lat="45.65594" lon="2.97169">
        <ele>944.7</ele>
        <time>2021-08-26T15:18:13Z</time>
      </trkpt>
      <trkpt lat="45.65602" lon="2.97155">
        <ele>943.5</ele>
        <time>2021-08-26T15:18:15Z</time>
      </trkpt>
      <trkpt lat="45.65607" lon="2.97137">
        <ele>942.8</ele>
        <time>2021-08-26T15:18:17Z</time>
      </trkpt>
      <trkpt lat="45.65608" lon="2.97117">
        <ele>942.7</ele>
        <time>2021-08-26T15:18:19Z</time>
      </trkpt>
      <trkpt lat="45.65607" lon="2.97097">
        <ele>943.1</ele>
        <time>2021-08-26T15:18:21Z</time>
      </trkpt>
      <trkpt lat="45.65604" lon="2.97076">
        <ele>943.2</ele>
        <time>2021-08-26T15:18:23Z</time>
      </trkpt>
      <trkpt lat="45.65597" lon="2.97057">
        <ele>943.4</ele>
        <time>2021-08-26T15:18:25Z</time>
      </trkpt>
      <trkpt lat="45.65589" lon="2.97038">
        <ele>943.9</ele>
        <time>2021-08-26T15:18:27Z</time>
      </trkpt>
      <trkpt lat="45.6558" lon="2.97018">
        <ele>944.5</ele>
        <time>2021-08-26T15:18:29Z</time>
      </trkpt>
      <trkpt lat="45.65572" lon="2.96998">
        <ele>944.2</ele>
        <time>2021-08-26T15:18:31Z</time>
      </trkpt>
      <trkpt lat="45.65565" lon="2.96977">
        <ele>943.2</ele>
        <time>2021-08-26T15:18:33Z</time>
      </trkpt>
      <trkpt lat="45.6556" lon="2.96955">
        <ele>942.1</ele>
        <time>2021-08-26T15:18:35Z</time>
      </trkpt>
      <trkpt lat="45.65551" lon="2.96936">
        <ele>941.8</ele>
        <time>2021-08-26T15:18:37Z</time>
      </trkpt>
      <trkpt lat="45.65539" lon="2.9692">
        <ele>942.1</ele>
        <time>2021-08-26T15:18:39Z</time>
      </trkpt>
      <trkpt lat="45.65525" lon="2.96907">
        <ele>942.8</ele>
        <time>2021-08-26T15:18:41Z</time>
      </trkpt>
      <trkpt lat="45.65514" lon="2.96888">
        <ele>942.2</ele>
        <time>2021-08-26T15:18:43Z</time>
      </trkpt>
      <trkpt lat="45.65508" lon="2.96865">
        <ele>940.8</ele>
        <time>2021-08-26T15:18:45Z</time>
      </trkpt>
      <trkpt lat="45.65501" lon="2.96841">
        <ele>939.6</ele>
        <time>2021-08-26T15:18:47Z</time>
      </trkpt>
      <trkpt lat="45.65495" lon="2.96818">
        <ele>938.7</ele>
        <time>2021-08-26T15:18:49Z</time>
      </trkpt>
      <trkpt lat="45.65488" lon="2.96795">
        <ele>938.4</ele>
        <time>2021-08-26T15:18:51Z</time>
      </trkpt>
      <trkpt lat="45.65481" lon="2.96772">
        <ele>938.3</ele>
        <time>2021-08-26T15:18:53Z</time>
      </trkpt>
      <trkpt lat="45.65477" lon="2.96751">
        <ele>938.1</ele>
        <time>2021-08-26T15:18:55Z</time>
      </trkpt>
      <trkpt lat="45.65478" lon="2.96727">
        <ele>937.3</ele>
        <time>2021-08-26T15:18:57Z</time>
      </trkpt>
      <trkpt lat="45.65483" lon="2.96702">
        <ele>935.5</ele>
        <time>2021-08-26T15:18:59Z</time>
      </trkpt>
      <trkpt lat="45.65492" lon="2.96679">
        <ele>933.2</ele>
        <time>2021-08-26T15:19:01Z</time>
      </trkpt>
      <trkpt lat="45.65507" lon="2.96662">
        <ele>930.8</ele>
        <time>2021-08-26T15:19:03Z</time>
      </trkpt>
      <trkpt lat="45.65525" lon="2.9665">
        <ele>930.5</ele>
        <time>2021-08-26T15:19:05Z</time>
      </trkpt>
      <trkpt lat="45.65543" lon="2.9664">
        <ele>930.4</ele>
        <time>2021-08-26T15:19:07Z</time>
      </trkpt>
      <trkpt lat="45.65561" lon="2.96634">
        <ele>930.3</ele>
        <time>2021-08-26T15:19:09Z</time>
      </trkpt>
      <trkpt lat="45.65574" lon="2.96635">
        <ele>929.9</ele>
        <time>2021-08-26T15:19:11Z</time>
      </trkpt>
      <trkpt lat="45.65585" lon="2.96635">
        <ele>929.6</ele>
        <time>2021-08-26T15:19:13Z</time>
      </trkpt>
      <trkpt lat="45.65593" lon="2.96638">
        <ele>929.3</ele>
        <time>2021-08-26T15:19:15Z</time>
      </trkpt>
      <trkpt lat="45.65596" lon="2.96643">
        <ele>928.9</ele>
        <time>2021-08-26T15:19:17Z</time>
      </trkpt>
      <trkpt lat="45.65597" lon="2.96647">
        <ele>928.6</ele>
        <time>2021-08-26T15:19:19Z</time>
      </trkpt>
      <trkpt lat="45.65598" lon="2.96649">
        <ele>928.4</ele>
        <time>2021-08-26T15:19:21Z</time>
      </trkpt>
      <trkpt lat="45.65599" lon="2.96653">
        <ele>928</ele>
        <time>2021-08-26T15:19:23Z</time>
      </trkpt>
      <trkpt lat="45.656" lon="2.96657">
        <ele>927.8</ele>
        <time>2021-08-26T15:19:25Z</time>
      </trkpt>
      <trkpt lat="45.656" lon="2.96657">
        <ele>927.7</ele>
        <time>2021-08-26T15:19:27Z</time>
      </trkpt>
      <trkpt lat="45.656" lon="2.96657">
        <ele>927.7</ele>
        <time>2021-08-26T15:19:29Z</time>
      </trkpt>
      <trkpt lat="45.65611" lon="2.96691">
        <ele>925.7</ele>
        <time>2021-08-26T15:20:07Z</time>
      </trkpt>
      <trkpt lat="45.65615" lon="2.96707">
        <ele>925</ele>
        <time>2021-08-26T15:20:09Z</time>
      </trkpt>
      <trkpt lat="45.6562" lon="2.96724">
        <ele>924.2</ele>
        <time>2021-08-26T15:20:11Z</time>
      </trkpt>
      <trkpt lat="45.65625" lon="2.96743">
        <ele>923.3</ele>
        <time>2021-08-26T15:20:13Z</time>
      </trkpt>
      <trkpt lat="45.6563" lon="2.96765">
        <ele>922.8</ele>
        <time>2021-08-26T15:20:15Z</time>
      </trkpt>
      <trkpt lat="45.65636" lon="2.96787">
        <ele>922.1</ele>
        <time>2021-08-26T15:20:17Z</time>
      </trkpt>
      <trkpt lat="45.65643" lon="2.96807">
        <ele>921.1</ele>
        <time>2021-08-26T15:20:19Z</time>
      </trkpt>
      <trkpt lat="45.65654" lon="2.96824">
        <ele>919.6</ele>
        <time>2021-08-26T15:20:21Z</time>
      </trkpt>
      <trkpt lat="45.65668" lon="2.96837">
        <ele>917.9</ele>
        <time>2021-08-26T15:20:23Z</time>
      </trkpt>
      <trkpt lat="45.65683" lon="2.9685">
        <ele>917.4</ele>
        <time>2021-08-26T15:20:25Z</time>
      </trkpt>
      <trkpt lat="45.65699" lon="2.96863">
        <ele>916.4</ele>
        <time>2021-08-26T15:20:27Z</time>
      </trkpt>
      <trkpt lat="45.65716" lon="2.96878">
        <ele>915.1</ele>
        <time>2021-08-26T15:20:29Z</time>
      </trkpt>
      <trkpt lat="45.65731" lon="2.96895">
        <ele>913.1</ele>
        <time>2021-08-26T15:20:31Z</time>
      </trkpt>
      <trkpt lat="45.65746" lon="2.96915">
        <ele>910.4</ele>
        <time>2021-08-26T15:20:33Z</time>
      </trkpt>
      <trkpt lat="45.65762" lon="2.96935">
        <ele>907.8</ele>
        <time>2021-08-26T15:20:35Z</time>
      </trkpt>
      <trkpt lat="45.65778" lon="2.96956">
        <ele>905.3</ele>
        <time>2021-08-26T15:20:37Z</time>
      </trkpt>
      <trkpt lat="45.65793" lon="2.96975">
        <ele>902.8</ele>
        <time>2021-08-26T15:20:39Z</time>
      </trkpt>
      <trkpt lat="45.65809" lon="2.96993">
        <ele>900.4</ele>
        <time>2021-08-26T15:20:41Z</time>
      </trkpt>
      <trkpt lat="45.65825" lon="2.97006">
        <ele>898.3</ele>
        <time>2021-08-26T15:20:43Z</time>
      </trkpt>
      <trkpt lat="45.65844" lon="2.97013">
        <ele>896</ele>
        <time>2021-08-26T15:20:45Z</time>
      </trkpt>
      <trkpt lat="45.65862" lon="2.97016">
        <ele>894.2</ele>
        <time>2021-08-26T15:20:47Z</time>
      </trkpt>
      <trkpt lat="45.65878" lon="2.97014">
        <ele>893.3</ele>
        <time>2021-08-26T15:20:49Z</time>
      </trkpt>
      <trkpt lat="45.65893" lon="2.97007">
        <ele>893</ele>
        <time>2021-08-26T15:20:51Z</time>
      </trkpt>
      <trkpt lat="45.65907" lon="2.97">
        <ele>892.8</ele>
        <time>2021-08-26T15:20:53Z</time>
      </trkpt>
      <trkpt lat="45.65921" lon="2.96999">
        <ele>892.5</ele>
        <time>2021-08-26T15:20:55Z</time>
      </trkpt>
      <trkpt lat="45.65934" lon="2.97008">
        <ele>892.6</ele>
        <time>2021-08-26T15:20:57Z</time>
      </trkpt>
      <trkpt lat="45.65942" lon="2.97026">
        <ele>891.3</ele>
        <time>2021-08-26T15:20:59Z</time>
      </trkpt>
      <trkpt lat="45.65946" lon="2.97047">
        <ele>889.4</ele>
        <time>2021-08-26T15:21:01Z</time>
      </trkpt>
      <trkpt lat="45.65952" lon="2.97069">
        <ele>887.6</ele>
        <time>2021-08-26T15:21:03Z</time>
      </trkpt>
      <trkpt lat="45.65962" lon="2.97089">
        <ele>885.8</ele>
        <time>2021-08-26T15:21:05Z</time>
      </trkpt>
      <trkpt lat="45.65976" lon="2.97104">
        <ele>884</ele>
        <time>2021-08-26T15:21:07Z</time>
      </trkpt>
      <trkpt lat="45.65992" lon="2.97116">
        <ele>882.3</ele>
        <time>2021-08-26T15:21:09Z</time>
      </trkpt>
      <trkpt lat="45.6601" lon="2.97126">
        <ele>880.9</ele>
        <time>2021-08-26T15:21:11Z</time>
      </trkpt>
      <trkpt lat="45.66029" lon="2.97131">
        <ele>880.9</ele>
        <time>2021-08-26T15:21:13Z</time>
      </trkpt>
      <trkpt lat="45.66047" lon="2.97134">
        <ele>881.4</ele>
        <time>2021-08-26T15:21:15Z</time>
      </trkpt>
      <trkpt lat="45.66065" lon="2.97143">
        <ele>880.7</ele>
        <time>2021-08-26T15:21:17Z</time>
      </trkpt>
      <trkpt lat="45.66082" lon="2.97158">
        <ele>878.7</ele>
        <time>2021-08-26T15:21:19Z</time>
      </trkpt>
      <trkpt lat="45.66096" lon="2.97179">
        <ele>876.7</ele>
        <time>2021-08-26T15:21:21Z</time>
      </trkpt>
      <trkpt lat="45.66112" lon="2.972">
        <ele>875.2</ele>
        <time>2021-08-26T15:21:23Z</time>
      </trkpt>
      <trkpt lat="45.66126" lon="2.97221">
        <ele>873.7</ele>
        <time>2021-08-26T15:21:25Z</time>
      </trkpt>
      <trkpt lat="45.66141" lon="2.9724">
        <ele>872.7</ele>
        <time>2021-08-26T15:21:27Z</time>
      </trkpt>
      <trkpt lat="45.66154" lon="2.97259">
        <ele>871.7</ele>
        <time>2021-08-26T15:21:29Z</time>
      </trkpt>
      <trkpt lat="45.66168" lon="2.97278">
        <ele>871</ele>
        <time>2021-08-26T15:21:31Z</time>
      </trkpt>
      <trkpt lat="45.66181" lon="2.97296">
        <ele>871.4</ele>
        <time>2021-08-26T15:21:33Z</time>
      </trkpt>
      <trkpt lat="45.66192" lon="2.97312">
        <ele>871.7</ele>
        <time>2021-08-26T15:21:35Z</time>
      </trkpt>
      <trkpt lat="45.66197" lon="2.9733">
        <ele>870.2</ele>
        <time>2021-08-26T15:21:37Z</time>
      </trkpt>
      <trkpt lat="45.66196" lon="2.97349">
        <ele>868</ele>
        <time>2021-08-26T15:21:39Z</time>
      </trkpt>
      <trkpt lat="45.66187" lon="2.97364">
        <ele>864.3</ele>
        <time>2021-08-26T15:21:41Z</time>
      </trkpt>
      <trkpt lat="45.66173" lon="2.9737">
        <ele>860.4</ele>
        <time>2021-08-26T15:21:43Z</time>
      </trkpt>
      <trkpt lat="45.6616" lon="2.97364">
        <ele>858.6</ele>
        <time>2021-08-26T15:21:45Z</time>
      </trkpt>
      <trkpt lat="45.66149" lon="2.9735">
        <ele>858.1</ele>
        <time>2021-08-26T15:21:47Z</time>
      </trkpt>
      <trkpt lat="45.66138" lon="2.97334">
        <ele>857.9</ele>
        <time>2021-08-26T15:21:49Z</time>
      </trkpt>
      <trkpt lat="45.66127" lon="2.97317">
        <ele>858.8</ele>
        <time>2021-08-26T15:21:51Z</time>
      </trkpt>
      <trkpt lat="45.66116" lon="2.97302">
        <ele>859.3</ele>
        <time>2021-08-26T15:21:53Z</time>
      </trkpt>
      <trkpt lat="45.66104" lon="2.97287">
        <ele>859.8</ele>
        <time>2021-08-26T15:21:55Z</time>
      </trkpt>
      <trkpt lat="45.66091" lon="2.97275">
        <ele>859.6</ele>
        <time>2021-08-26T15:21:57Z</time>
      </trkpt>
      <trkpt lat="45.66076" lon="2.97266">
        <ele>859.4</ele>
        <time>2021-08-26T15:21:59Z</time>
      </trkpt>
      <trkpt lat="45.66061" lon="2.97258">
        <ele>859.4</ele>
        <time>2021-08-26T15:22:01Z</time>
      </trkpt>
      <trkpt lat="45.66046" lon="2.97252">
        <ele>859.2</ele>
        <time>2021-08-26T15:22:03Z</time>
      </trkpt>
      <trkpt lat="45.66031" lon="2.97252">
        <ele>858</ele>
        <time>2021-08-26T15:22:05Z</time>
      </trkpt>
      <trkpt lat="45.66018" lon="2.97261">
        <ele>856.6</ele>
        <time>2021-08-26T15:22:07Z</time>
      </trkpt>
      <trkpt lat="45.66008" lon="2.97276">
        <ele>855.4</ele>
        <time>2021-08-26T15:22:09Z</time>
      </trkpt>
      <trkpt lat="45.66004" lon="2.97295">
        <ele>854.4</ele>
        <time>2021-08-26T15:22:11Z</time>
      </trkpt>
      <trkpt lat="45.65999" lon="2.97314">
        <ele>853.8</ele>
        <time>2021-08-26T15:22:13Z</time>
      </trkpt>
      <trkpt lat="45.65996" lon="2.97331">
        <ele>853.9</ele>
        <time>2021-08-26T15:22:15Z</time>
      </trkpt>
      <trkpt lat="45.65994" lon="2.97349">
        <ele>853.9</ele>
        <time>2021-08-26T15:22:17Z</time>
      </trkpt>
      <trkpt lat="45.65987" lon="2.97365">
        <ele>854.7</ele>
        <time>2021-08-26T15:22:19Z</time>
      </trkpt>
      <trkpt lat="45.65983" lon="2.97384">
        <ele>855.2</ele>
        <time>2021-08-26T15:22:21Z</time>
      </trkpt>
      <trkpt lat="45.65979" lon="2.97404">
        <ele>855.7</ele>
        <time>2021-08-26T15:22:23Z</time>
      </trkpt>
      <trkpt lat="45.65975" lon="2.97423">
        <ele>856.1</ele>
        <time>2021-08-26T15:22:25Z</time>
      </trkpt>
      <trkpt lat="45.65978" lon="2.9744">
        <ele>855.2</ele>
        <time>2021-08-26T15:22:27Z</time>
      </trkpt>
      <trkpt lat="45.65988" lon="2.97452">
        <ele>852.7</ele>
        <time>2021-08-26T15:22:29Z</time>
      </trkpt>
      <trkpt lat="45.66" lon="2.97457">
        <ele>849.6</ele>
        <time>2021-08-26T15:22:31Z</time>
      </trkpt>
      <trkpt lat="45.66013" lon="2.9746">
        <ele>848.7</ele>
        <time>2021-08-26T15:22:33Z</time>
      </trkpt>
      <trkpt lat="45.66026" lon="2.97463">
        <ele>847.9</ele>
        <time>2021-08-26T15:22:35Z</time>
      </trkpt>
      <trkpt lat="45.66039" lon="2.97459">
        <ele>847.1</ele>
        <time>2021-08-26T15:22:37Z</time>
      </trkpt>
      <trkpt lat="45.66051" lon="2.97448">
        <ele>846.6</ele>
        <time>2021-08-26T15:22:39Z</time>
      </trkpt>
      <trkpt lat="45.66064" lon="2.97444">
        <ele>845.8</ele>
        <time>2021-08-26T15:22:41Z</time>
      </trkpt>
      <trkpt lat="45.66077" lon="2.97447">
        <ele>845</ele>
        <time>2021-08-26T15:22:43Z</time>
      </trkpt>
      <trkpt lat="45.6609" lon="2.9745">
        <ele>845.3</ele>
        <time>2021-08-26T15:22:45Z</time>
      </trkpt>
      <trkpt lat="45.661" lon="2.97463">
        <ele>846.1</ele>
        <time>2021-08-26T15:22:47Z</time>
      </trkpt>
      <trkpt lat="45.66104" lon="2.9748">
        <ele>846.2</ele>
        <time>2021-08-26T15:22:49Z</time>
      </trkpt>
      <trkpt lat="45.66106" lon="2.97498">
        <ele>846</ele>
        <time>2021-08-26T15:22:51Z</time>
      </trkpt>
      <trkpt lat="45.66111" lon="2.97515">
        <ele>845.7</ele>
        <time>2021-08-26T15:22:53Z</time>
      </trkpt>
      <trkpt lat="45.66116" lon="2.97532">
        <ele>845.4</ele>
        <time>2021-08-26T15:22:55Z</time>
      </trkpt>
      <trkpt lat="45.66122" lon="2.97548">
        <ele>845.3</ele>
        <time>2021-08-26T15:22:57Z</time>
      </trkpt>
      <trkpt lat="45.66129" lon="2.97561">
        <ele>845.2</ele>
        <time>2021-08-26T15:22:59Z</time>
      </trkpt>
      <trkpt lat="45.66131" lon="2.97578">
        <ele>844.7</ele>
        <time>2021-08-26T15:23:01Z</time>
      </trkpt>
      <trkpt lat="45.66134" lon="2.97595">
        <ele>844.6</ele>
        <time>2021-08-26T15:23:03Z</time>
      </trkpt>
      <trkpt lat="45.66136" lon="2.97612">
        <ele>844.6</ele>
        <time>2021-08-26T15:23:05Z</time>
      </trkpt>
      <trkpt lat="45.66139" lon="2.97629">
        <ele>844.6</ele>
        <time>2021-08-26T15:23:07Z</time>
      </trkpt>
      <trkpt lat="45.66141" lon="2.97646">
        <ele>844.7</ele>
        <time>2021-08-26T15:23:09Z</time>
      </trkpt>
      <trkpt lat="45.66144" lon="2.97663">
        <ele>844.7</ele>
        <time>2021-08-26T15:23:11Z</time>
      </trkpt>
      <trkpt lat="45.66147" lon="2.9768">
        <ele>844.1</ele>
        <time>2021-08-26T15:23:13Z</time>
      </trkpt>
      <trkpt lat="45.6615" lon="2.97698">
        <ele>843.4</ele>
        <time>2021-08-26T15:23:15Z</time>
      </trkpt>
      <trkpt lat="45.66155" lon="2.97715">
        <ele>842.6</ele>
        <time>2021-08-26T15:23:17Z</time>
      </trkpt>
      <trkpt lat="45.66162" lon="2.97732">
        <ele>841.9</ele>
        <time>2021-08-26T15:23:19Z</time>
      </trkpt>
      <trkpt lat="45.66169" lon="2.97747">
        <ele>841.6</ele>
        <time>2021-08-26T15:23:21Z</time>
      </trkpt>
      <trkpt lat="45.66177" lon="2.97762">
        <ele>842.6</ele>
        <time>2021-08-26T15:23:23Z</time>
      </trkpt>
      <trkpt lat="45.66186" lon="2.97775">
        <ele>843.5</ele>
        <time>2021-08-26T15:23:25Z</time>
      </trkpt>
      <trkpt lat="45.66194" lon="2.97788">
        <ele>844.1</ele>
        <time>2021-08-26T15:23:27Z</time>
      </trkpt>
      <trkpt lat="45.66203" lon="2.97802">
        <ele>844.4</ele>
        <time>2021-08-26T15:23:29Z</time>
      </trkpt>
      <trkpt lat="45.66213" lon="2.97814">
        <ele>844.7</ele>
        <time>2021-08-26T15:23:31Z</time>
      </trkpt>
      <trkpt lat="45.66222" lon="2.97827">
        <ele>844.6</ele>
        <time>2021-08-26T15:23:33Z</time>
      </trkpt>
      <trkpt lat="45.66232" lon="2.97837">
        <ele>844.8</ele>
        <time>2021-08-26T15:23:35Z</time>
      </trkpt>
      <trkpt lat="45.66241" lon="2.97849">
        <ele>844.8</ele>
        <time>2021-08-26T15:23:37Z</time>
      </trkpt>
      <trkpt lat="45.6625" lon="2.97862">
        <ele>844.6</ele>
        <time>2021-08-26T15:23:39Z</time>
      </trkpt>
      <trkpt lat="45.66259" lon="2.97875">
        <ele>845.1</ele>
        <time>2021-08-26T15:23:41Z</time>
      </trkpt>
      <trkpt lat="45.66267" lon="2.97888">
        <ele>845.4</ele>
        <time>2021-08-26T15:23:43Z</time>
      </trkpt>
      <trkpt lat="45.66275" lon="2.97902">
        <ele>845.5</ele>
        <time>2021-08-26T15:23:45Z</time>
      </trkpt>
      <trkpt lat="45.66282" lon="2.97915">
        <ele>845.2</ele>
        <time>2021-08-26T15:23:47Z</time>
      </trkpt>
      <trkpt lat="45.6629" lon="2.97928">
        <ele>845.2</ele>
        <time>2021-08-26T15:23:49Z</time>
      </trkpt>
      <trkpt lat="45.66297" lon="2.97941">
        <ele>844.8</ele>
        <time>2021-08-26T15:23:51Z</time>
      </trkpt>
      <trkpt lat="45.66305" lon="2.97954">
        <ele>844.3</ele>
        <time>2021-08-26T15:23:53Z</time>
      </trkpt>
      <trkpt lat="45.66312" lon="2.97966">
        <ele>843.4</ele>
        <time>2021-08-26T15:23:55Z</time>
      </trkpt>
      <trkpt lat="45.66319" lon="2.97977">
        <ele>842.6</ele>
        <time>2021-08-26T15:23:57Z</time>
      </trkpt>
      <trkpt lat="45.66328" lon="2.97986">
        <ele>841.8</ele>
        <time>2021-08-26T15:23:59Z</time>
      </trkpt>
      <trkpt lat="45.66337" lon="2.97991">
        <ele>841.7</ele>
        <time>2021-08-26T15:24:01Z</time>
      </trkpt>
      <trkpt lat="45.66346" lon="2.97996">
        <ele>841.9</ele>
        <time>2021-08-26T15:24:03Z</time>
      </trkpt>
      <trkpt lat="45.66356" lon="2.98">
        <ele>842.3</ele>
        <time>2021-08-26T15:24:05Z</time>
      </trkpt>
      <trkpt lat="45.66366" lon="2.98002">
        <ele>843</ele>
        <time>2021-08-26T15:24:07Z</time>
      </trkpt>
      <trkpt lat="45.66376" lon="2.98005">
        <ele>843.8</ele>
        <time>2021-08-26T15:24:09Z</time>
      </trkpt>
      <trkpt lat="45.66386" lon="2.98008">
        <ele>844.4</ele>
        <time>2021-08-26T15:24:11Z</time>
      </trkpt>
      <trkpt lat="45.66395" lon="2.98012">
        <ele>844.9</ele>
        <time>2021-08-26T15:24:13Z</time>
      </trkpt>
      <trkpt lat="45.66404" lon="2.98018">
        <ele>845.3</ele>
        <time>2021-08-26T15:24:15Z</time>
      </trkpt>
      <trkpt lat="45.66413" lon="2.98024">
        <ele>845.4</ele>
        <time>2021-08-26T15:24:17Z</time>
      </trkpt>
      <trkpt lat="45.66422" lon="2.98031">
        <ele>845.6</ele>
        <time>2021-08-26T15:24:19Z</time>
      </trkpt>
      <trkpt lat="45.6643" lon="2.9804">
        <ele>845.7</ele>
        <time>2021-08-26T15:24:21Z</time>
      </trkpt>
      <trkpt lat="45.66438" lon="2.98048">
        <ele>846</ele>
        <time>2021-08-26T15:24:23Z</time>
      </trkpt>
      <trkpt lat="45.66445" lon="2.98057">
        <ele>846.1</ele>
        <time>2021-08-26T15:24:25Z</time>
      </trkpt>
      <trkpt lat="45.66452" lon="2.98066">
        <ele>846.2</ele>
        <time>2021-08-26T15:24:27Z</time>
      </trkpt>
      <trkpt lat="45.6646" lon="2.98074">
        <ele>846.5</ele>
        <time>2021-08-26T15:24:29Z</time>
      </trkpt>
      <trkpt lat="45.66467" lon="2.98082">
        <ele>846.7</ele>
        <time>2021-08-26T15:24:31Z</time>
      </trkpt>
      <trkpt lat="45.66475" lon="2.9809">
        <ele>847.3</ele>
        <time>2021-08-26T15:24:33Z</time>
      </trkpt>
      <trkpt lat="45.66482" lon="2.98098">
        <ele>847.8</ele>
        <time>2021-08-26T15:24:35Z</time>
      </trkpt>
      <trkpt lat="45.66488" lon="2.98105">
        <ele>848.2</ele>
        <time>2021-08-26T15:24:37Z</time>
      </trkpt>
      <trkpt lat="45.66495" lon="2.98113">
        <ele>848.6</ele>
        <time>2021-08-26T15:24:39Z</time>
      </trkpt>
      <trkpt lat="45.66501" lon="2.9812">
        <ele>848.9</ele>
        <time>2021-08-26T15:24:41Z</time>
      </trkpt>
      <trkpt lat="45.66508" lon="2.98128">
        <ele>849.1</ele>
        <time>2021-08-26T15:24:43Z</time>
      </trkpt>
      <trkpt lat="45.66513" lon="2.98136">
        <ele>849.2</ele>
        <time>2021-08-26T15:24:45Z</time>
      </trkpt>
      <trkpt lat="45.66519" lon="2.98143">
        <ele>849.2</ele>
        <time>2021-08-26T15:24:47Z</time>
      </trkpt>
      <trkpt lat="45.66523" lon="2.98152">
        <ele>849</ele>
        <time>2021-08-26T15:24:49Z</time>
      </trkpt>
      <trkpt lat="45.66527" lon="2.98159">
        <ele>848.8</ele>
        <time>2021-08-26T15:24:51Z</time>
      </trkpt>
      <trkpt lat="45.66531" lon="2.98166">
        <ele>848.6</ele>
        <time>2021-08-26T15:24:53Z</time>
      </trkpt>
      <trkpt lat="45.66534" lon="2.98171">
        <ele>848.6</ele>
        <time>2021-08-26T15:24:55Z</time>
      </trkpt>
      <trkpt lat="45.66537" lon="2.98177">
        <ele>848.5</ele>
        <time>2021-08-26T15:24:57Z</time>
      </trkpt>
      <trkpt lat="45.6654" lon="2.98183">
        <ele>848.4</ele>
        <time>2021-08-26T15:24:59Z</time>
      </trkpt>
      <trkpt lat="45.66544" lon="2.98188">
        <ele>848.3</ele>
        <time>2021-08-26T15:25:01Z</time>
      </trkpt>
      <trkpt lat="45.66547" lon="2.98194">
        <ele>848.2</ele>
        <time>2021-08-26T15:25:03Z</time>
      </trkpt>
      <trkpt lat="45.6655" lon="2.98199">
        <ele>848.2</ele>
        <time>2021-08-26T15:25:05Z</time>
      </trkpt>
      <trkpt lat="45.66553" lon="2.98203">
        <ele>848.2</ele>
        <time>2021-08-26T15:25:07Z</time>
      </trkpt>
      <trkpt lat="45.66557" lon="2.98207">
        <ele>848.2</ele>
        <time>2021-08-26T15:25:09Z</time>
      </trkpt>
      <trkpt lat="45.6656" lon="2.98212">
        <ele>848.1</ele>
        <time>2021-08-26T15:25:11Z</time>
      </trkpt>
      <trkpt lat="45.66563" lon="2.98216">
        <ele>848</ele>
        <time>2021-08-26T15:25:13Z</time>
      </trkpt>
      <trkpt lat="45.66567" lon="2.98221">
        <ele>848</ele>
        <time>2021-08-26T15:25:15Z</time>
      </trkpt>
      <trkpt lat="45.66571" lon="2.98224">
        <ele>848</ele>
        <time>2021-08-26T15:25:17Z</time>
      </trkpt>
      <trkpt lat="45.66575" lon="2.98227">
        <ele>848.1</ele>
        <time>2021-08-26T15:25:19Z</time>
      </trkpt>
      <trkpt lat="45.66579" lon="2.98229">
        <ele>848.2</ele>
        <time>2021-08-26T15:25:21Z</time>
      </trkpt>
      <trkpt lat="45.66583" lon="2.9823">
        <ele>848.4</ele>
        <time>2021-08-26T15:25:23Z</time>
      </trkpt>
      <trkpt lat="45.66588" lon="2.9823">
        <ele>848.6</ele>
        <time>2021-08-26T15:25:25Z</time>
      </trkpt>
      <trkpt lat="45.66592" lon="2.98229">
        <ele>848.8</ele>
        <time>2021-08-26T15:25:27Z</time>
      </trkpt>
      <trkpt lat="45.66596" lon="2.98227">
        <ele>849.2</ele>
        <time>2021-08-26T15:25:29Z</time>
      </trkpt>
      <trkpt lat="45.666" lon="2.98224">
        <ele>849.5</ele>
        <time>2021-08-26T15:25:31Z</time>
      </trkpt>
      <trkpt lat="45.66604" lon="2.98222">
        <ele>849.9</ele>
        <time>2021-08-26T15:25:33Z</time>
      </trkpt>
      <trkpt lat="45.66608" lon="2.98219">
        <ele>850.2</ele>
        <time>2021-08-26T15:25:35Z</time>
      </trkpt>
      <trkpt lat="45.66612" lon="2.98218">
        <ele>850.5</ele>
        <time>2021-08-26T15:25:37Z</time>
      </trkpt>
      <trkpt lat="45.66616" lon="2.98215">
        <ele>850.9</ele>
        <time>2021-08-26T15:25:39Z</time>
      </trkpt>
      <trkpt lat="45.6662" lon="2.98213">
        <ele>851.2</ele>
        <time>2021-08-26T15:25:41Z</time>
      </trkpt>
      <trkpt lat="45.66623" lon="2.98212">
        <ele>851.4</ele>
        <time>2021-08-26T15:25:43Z</time>
      </trkpt>
      <trkpt lat="45.66628" lon="2.98214">
        <ele>851.4</ele>
        <time>2021-08-26T15:25:45Z</time>
      </trkpt>
      <trkpt lat="45.66633" lon="2.98215">
        <ele>851.5</ele>
        <time>2021-08-26T15:25:47Z</time>
      </trkpt>
      <trkpt lat="45.66637" lon="2.98216">
        <ele>851.6</ele>
        <time>2021-08-26T15:25:49Z</time>
      </trkpt>
      <trkpt lat="45.66641" lon="2.98217">
        <ele>851.7</ele>
        <time>2021-08-26T15:25:51Z</time>
      </trkpt>
      <trkpt lat="45.66646" lon="2.98218">
        <ele>851.9</ele>
        <time>2021-08-26T15:25:53Z</time>
      </trkpt>
      <trkpt lat="45.6665" lon="2.98219">
        <ele>851.9</ele>
        <time>2021-08-26T15:25:55Z</time>
      </trkpt>
      <trkpt lat="45.66656" lon="2.9822">
        <ele>852.1</ele>
        <time>2021-08-26T15:25:57Z</time>
      </trkpt>
      <trkpt lat="45.66662" lon="2.9822">
        <ele>852.4</ele>
        <time>2021-08-26T15:25:59Z</time>
      </trkpt>
      <trkpt lat="45.66668" lon="2.9822">
        <ele>852.7</ele>
        <time>2021-08-26T15:26:01Z</time>
      </trkpt>
      <trkpt lat="45.66674" lon="2.98219">
        <ele>853.4</ele>
        <time>2021-08-26T15:26:03Z</time>
      </trkpt>
      <trkpt lat="45.6668" lon="2.98217">
        <ele>854.3</ele>
        <time>2021-08-26T15:26:05Z</time>
      </trkpt>
      <trkpt lat="45.66686" lon="2.98214">
        <ele>855.1</ele>
        <time>2021-08-26T15:26:07Z</time>
      </trkpt>
      <trkpt lat="45.66691" lon="2.98211">
        <ele>856</ele>
        <time>2021-08-26T15:26:09Z</time>
      </trkpt>
      <trkpt lat="45.66697" lon="2.98208">
        <ele>856.8</ele>
        <time>2021-08-26T15:26:11Z</time>
      </trkpt>
      <trkpt lat="45.66703" lon="2.98205">
        <ele>857.6</ele>
        <time>2021-08-26T15:26:13Z</time>
      </trkpt>
      <trkpt lat="45.66709" lon="2.98203">
        <ele>858.3</ele>
        <time>2021-08-26T15:26:15Z</time>
      </trkpt>
      <trkpt lat="45.66715" lon="2.98204">
        <ele>859</ele>
        <time>2021-08-26T15:26:17Z</time>
      </trkpt>
      <trkpt lat="45.66721" lon="2.98206">
        <ele>859.5</ele>
        <time>2021-08-26T15:26:19Z</time>
      </trkpt>
      <trkpt lat="45.66728" lon="2.9821">
        <ele>860</ele>
        <time>2021-08-26T15:26:21Z</time>
      </trkpt>
      <trkpt lat="45.66732" lon="2.98217">
        <ele>860.1</ele>
        <time>2021-08-26T15:26:23Z</time>
      </trkpt>
      <trkpt lat="45.66734" lon="2.9822">
        <ele>860.3</ele>
        <time>2021-08-26T15:26:25Z</time>
      </trkpt>
      <trkpt lat="45.66735" lon="2.98222">
        <ele>860.3</ele>
        <time>2021-08-26T15:26:27Z</time>
      </trkpt>
      <trkpt lat="45.66737" lon="2.98227">
        <ele>860.3</ele>
        <time>2021-08-26T15:26:29Z</time>
      </trkpt>
      <trkpt lat="45.66738" lon="2.98235">
        <ele>860.1</ele>
        <time>2021-08-26T15:26:31Z</time>
      </trkpt>
      <trkpt lat="45.6674" lon="2.98245">
        <ele>859.8</ele>
        <time>2021-08-26T15:26:33Z</time>
      </trkpt>
      <trkpt lat="45.66741" lon="2.98255">
        <ele>859.5</ele>
        <time>2021-08-26T15:26:35Z</time>
      </trkpt>
      <trkpt lat="45.66741" lon="2.98266">
        <ele>858.9</ele>
        <time>2021-08-26T15:26:37Z</time>
      </trkpt>
      <trkpt lat="45.66742" lon="2.98277">
        <ele>858.2</ele>
        <time>2021-08-26T15:26:39Z</time>
      </trkpt>
      <trkpt lat="45.66743" lon="2.98289">
        <ele>857.7</ele>
        <time>2021-08-26T15:26:41Z</time>
      </trkpt>
      <trkpt lat="45.66743" lon="2.98302">
        <ele>856.9</ele>
        <time>2021-08-26T15:26:43Z</time>
      </trkpt>
      <trkpt lat="45.66744" lon="2.98315">
        <ele>856.3</ele>
        <time>2021-08-26T15:26:45Z</time>
      </trkpt>
      <trkpt lat="45.66747" lon="2.98328">
        <ele>855.9</ele>
        <time>2021-08-26T15:26:47Z</time>
      </trkpt>
      <trkpt lat="45.66751" lon="2.98341">
        <ele>855.3</ele>
        <time>2021-08-26T15:26:49Z</time>
      </trkpt>
      <trkpt lat="45.66755" lon="2.98355">
        <ele>854.3</ele>
        <time>2021-08-26T15:26:51Z</time>
      </trkpt>
      <trkpt lat="45.6676" lon="2.9837">
        <ele>853.3</ele>
        <time>2021-08-26T15:26:53Z</time>
      </trkpt>
      <trkpt lat="45.66764" lon="2.98385">
        <ele>852.4</ele>
        <time>2021-08-26T15:26:55Z</time>
      </trkpt>
      <trkpt lat="45.66767" lon="2.98396">
        <ele>851.7</ele>
        <time>2021-08-26T15:26:57Z</time>
      </trkpt>
      <trkpt lat="45.6677" lon="2.98406">
        <ele>851.1</ele>
        <time>2021-08-26T15:26:59Z</time>
      </trkpt>
      <trkpt lat="45.66774" lon="2.98416">
        <ele>850.6</ele>
        <time>2021-08-26T15:27:01Z</time>
      </trkpt>
      <trkpt lat="45.66778" lon="2.98427">
        <ele>850.2</ele>
        <time>2021-08-26T15:27:03Z</time>
      </trkpt>
      <trkpt lat="45.66784" lon="2.98439">
        <ele>850.1</ele>
        <time>2021-08-26T15:27:05Z</time>
      </trkpt>
      <trkpt lat="45.66792" lon="2.98451">
        <ele>850</ele>
        <time>2021-08-26T15:27:07Z</time>
      </trkpt>
      <trkpt lat="45.668" lon="2.98465">
        <ele>850.1</ele>
        <time>2021-08-26T15:27:09Z</time>
      </trkpt>
      <trkpt lat="45.6681" lon="2.98478">
        <ele>850.4</ele>
        <time>2021-08-26T15:27:11Z</time>
      </trkpt>
      <trkpt lat="45.6682" lon="2.98492">
        <ele>850.5</ele>
        <time>2021-08-26T15:27:13Z</time>
      </trkpt>
      <trkpt lat="45.66831" lon="2.98507">
        <ele>850.6</ele>
        <time>2021-08-26T15:27:15Z</time>
      </trkpt>
      <trkpt lat="45.66842" lon="2.98523">
        <ele>849.9</ele>
        <time>2021-08-26T15:27:17Z</time>
      </trkpt>
      <trkpt lat="45.66854" lon="2.98539">
        <ele>849.4</ele>
        <time>2021-08-26T15:27:19Z</time>
      </trkpt>
      <trkpt lat="45.66866" lon="2.98556">
        <ele>849</ele>
        <time>2021-08-26T15:27:21Z</time>
      </trkpt>
      <trkpt lat="45.66878" lon="2.98572">
        <ele>848.9</ele>
        <time>2021-08-26T15:27:23Z</time>
      </trkpt>
      <trkpt lat="45.6689" lon="2.98589">
        <ele>849.1</ele>
        <time>2021-08-26T15:27:25Z</time>
      </trkpt>
      <trkpt lat="45.66901" lon="2.98606">
        <ele>848.9</ele>
        <time>2021-08-26T15:27:27Z</time>
      </trkpt>
      <trkpt lat="45.66912" lon="2.98624">
        <ele>848.5</ele>
        <time>2021-08-26T15:27:29Z</time>
      </trkpt>
      <trkpt lat="45.66922" lon="2.98641">
        <ele>847.5</ele>
        <time>2021-08-26T15:27:31Z</time>
      </trkpt>
      <trkpt lat="45.66932" lon="2.98658">
        <ele>846.6</ele>
        <time>2021-08-26T15:27:33Z</time>
      </trkpt>
      <trkpt lat="45.66942" lon="2.98675">
        <ele>846.1</ele>
        <time>2021-08-26T15:27:35Z</time>
      </trkpt>
      <trkpt lat="45.66952" lon="2.98691">
        <ele>845.8</ele>
        <time>2021-08-26T15:27:37Z</time>
      </trkpt>
      <trkpt lat="45.66961" lon="2.98706">
        <ele>845.4</ele>
        <time>2021-08-26T15:27:39Z</time>
      </trkpt>
      <trkpt lat="45.6697" lon="2.98721">
        <ele>845.2</ele>
        <time>2021-08-26T15:27:41Z</time>
      </trkpt>
      <trkpt lat="45.66979" lon="2.98737">
        <ele>844.8</ele>
        <time>2021-08-26T15:27:43Z</time>
      </trkpt>
      <trkpt lat="45.66988" lon="2.98751">
        <ele>844.7</ele>
        <time>2021-08-26T15:27:45Z</time>
      </trkpt>
      <trkpt lat="45.66998" lon="2.98767">
        <ele>845.6</ele>
        <time>2021-08-26T15:27:47Z</time>
      </trkpt>
      <trkpt lat="45.67003" lon="2.98786">
        <ele>846.1</ele>
        <time>2021-08-26T15:27:49Z</time>
      </trkpt>
      <trkpt lat="45.67007" lon="2.98805">
        <ele>846.5</ele>
        <time>2021-08-26T15:27:51Z</time>
      </trkpt>
      <trkpt lat="45.67008" lon="2.98826">
        <ele>846.5</ele>
        <time>2021-08-26T15:27:53Z</time>
      </trkpt>
      <trkpt lat="45.67009" lon="2.98847">
        <ele>847.2</ele>
        <time>2021-08-26T15:27:55Z</time>
      </trkpt>
      <trkpt lat="45.67006" lon="2.98867">
        <ele>847.6</ele>
        <time>2021-08-26T15:27:57Z</time>
      </trkpt>
      <trkpt lat="45.66999" lon="2.98884">
        <ele>847.4</ele>
        <time>2021-08-26T15:27:59Z</time>
      </trkpt>
      <trkpt lat="45.6699" lon="2.98896">
        <ele>847.8</ele>
        <time>2021-08-26T15:28:01Z</time>
      </trkpt>
      <trkpt lat="45.6698" lon="2.98906">
        <ele>848.2</ele>
        <time>2021-08-26T15:28:03Z</time>
      </trkpt>
      <trkpt lat="45.66973" lon="2.98916">
        <ele>848.7</ele>
        <time>2021-08-26T15:28:05Z</time>
      </trkpt>
      <trkpt lat="45.66969" lon="2.98928">
        <ele>849.9</ele>
        <time>2021-08-26T15:28:07Z</time>
      </trkpt>
      <trkpt lat="45.66967" lon="2.98937">
        <ele>850.9</ele>
        <time>2021-08-26T15:28:09Z</time>
      </trkpt>
      <trkpt lat="45.66966" lon="2.98943">
        <ele>851.6</ele>
        <time>2021-08-26T15:28:11Z</time>
      </trkpt>
      <trkpt lat="45.66965" lon="2.9895">
        <ele>852.4</ele>
        <time>2021-08-26T15:28:13Z</time>
      </trkpt>
      <trkpt lat="45.66967" lon="2.98959">
        <ele>853.4</ele>
        <time>2021-08-26T15:28:15Z</time>
      </trkpt>
      <trkpt lat="45.66969" lon="2.98967">
        <ele>854.3</ele>
        <time>2021-08-26T15:28:17Z</time>
      </trkpt>
      <trkpt lat="45.66971" lon="2.98974">
        <ele>855.1</ele>
        <time>2021-08-26T15:28:19Z</time>
      </trkpt>
      <trkpt lat="45.66974" lon="2.9898">
        <ele>855.8</ele>
        <time>2021-08-26T15:28:21Z</time>
      </trkpt>
      <trkpt lat="45.66978" lon="2.98986">
        <ele>856.4</ele>
        <time>2021-08-26T15:28:23Z</time>
      </trkpt>
      <trkpt lat="45.6698" lon="2.98991">
        <ele>857</ele>
        <time>2021-08-26T15:28:25Z</time>
      </trkpt>
      <trkpt lat="45.66983" lon="2.98996">
        <ele>857.6</ele>
        <time>2021-08-26T15:28:27Z</time>
      </trkpt>
      <trkpt lat="45.66987" lon="2.98999">
        <ele>857.9</ele>
        <time>2021-08-26T15:28:29Z</time>
      </trkpt>
      <trkpt lat="45.6699" lon="2.99004">
        <ele>858.2</ele>
        <time>2021-08-26T15:28:31Z</time>
      </trkpt>
      <trkpt lat="45.66993" lon="2.99006">
        <ele>858.4</ele>
        <time>2021-08-26T15:28:33Z</time>
      </trkpt>
      <trkpt lat="45.66996" lon="2.99009">
        <ele>858.5</ele>
        <time>2021-08-26T15:28:35Z</time>
      </trkpt>
      <trkpt lat="45.67" lon="2.99009">
        <ele>858.6</ele>
        <time>2021-08-26T15:28:37Z</time>
      </trkpt>
      <trkpt lat="45.67004" lon="2.9901">
        <ele>858.8</ele>
        <time>2021-08-26T15:28:39Z</time>
      </trkpt>
      <trkpt lat="45.67009" lon="2.9901">
        <ele>859.1</ele>
        <time>2021-08-26T15:28:41Z</time>
      </trkpt>
      <trkpt lat="45.67013" lon="2.99008">
        <ele>859.2</ele>
        <time>2021-08-26T15:28:43Z</time>
      </trkpt>
      <trkpt lat="45.67018" lon="2.99004">
        <ele>859.3</ele>
        <time>2021-08-26T15:28:45Z</time>
      </trkpt>
      <trkpt lat="45.67022" lon="2.99002">
        <ele>859.4</ele>
        <time>2021-08-26T15:28:47Z</time>
      </trkpt>
      <trkpt lat="45.67026" lon="2.98999">
        <ele>859.5</ele>
        <time>2021-08-26T15:28:49Z</time>
      </trkpt>
      <trkpt lat="45.67031" lon="2.98997">
        <ele>859.6</ele>
        <time>2021-08-26T15:28:51Z</time>
      </trkpt>
      <trkpt lat="45.67035" lon="2.98994">
        <ele>859.6</ele>
        <time>2021-08-26T15:28:53Z</time>
      </trkpt>
      <trkpt lat="45.67038" lon="2.98992">
        <ele>859.7</ele>
        <time>2021-08-26T15:28:55Z</time>
      </trkpt>
      <trkpt lat="45.67042" lon="2.9899">
        <ele>859.9</ele>
        <time>2021-08-26T15:28:57Z</time>
      </trkpt>
      <trkpt lat="45.67046" lon="2.98988">
        <ele>859.9</ele>
        <time>2021-08-26T15:28:59Z</time>
      </trkpt>
      <trkpt lat="45.6705" lon="2.98985">
        <ele>860</ele>
        <time>2021-08-26T15:29:01Z</time>
      </trkpt>
      <trkpt lat="45.67054" lon="2.98985">
        <ele>860.3</ele>
        <time>2021-08-26T15:29:03Z</time>
      </trkpt>
      <trkpt lat="45.67058" lon="2.98984">
        <ele>860.5</ele>
        <time>2021-08-26T15:29:05Z</time>
      </trkpt>
      <trkpt lat="45.67062" lon="2.98985">
        <ele>860.9</ele>
        <time>2021-08-26T15:29:07Z</time>
      </trkpt>
      <trkpt lat="45.67066" lon="2.98986">
        <ele>861.2</ele>
        <time>2021-08-26T15:29:09Z</time>
      </trkpt>
      <trkpt lat="45.6707" lon="2.98987">
        <ele>861.6</ele>
        <time>2021-08-26T15:29:11Z</time>
      </trkpt>
      <trkpt lat="45.67073" lon="2.9899">
        <ele>861.9</ele>
        <time>2021-08-26T15:29:13Z</time>
      </trkpt>
      <trkpt lat="45.67077" lon="2.98993">
        <ele>862.4</ele>
        <time>2021-08-26T15:29:15Z</time>
      </trkpt>
      <trkpt lat="45.67082" lon="2.98997">
        <ele>862.8</ele>
        <time>2021-08-26T15:29:17Z</time>
      </trkpt>
      <trkpt lat="45.67086" lon="2.99001">
        <ele>863.2</ele>
        <time>2021-08-26T15:29:19Z</time>
      </trkpt>
      <trkpt lat="45.6709" lon="2.99005">
        <ele>863.5</ele>
        <time>2021-08-26T15:29:21Z</time>
      </trkpt>
      <trkpt lat="45.67094" lon="2.99009">
        <ele>863.9</ele>
        <time>2021-08-26T15:29:23Z</time>
      </trkpt>
      <trkpt lat="45.67098" lon="2.99014">
        <ele>864.2</ele>
        <time>2021-08-26T15:29:25Z</time>
      </trkpt>
      <trkpt lat="45.67102" lon="2.99019">
        <ele>864.5</ele>
        <time>2021-08-26T15:29:27Z</time>
      </trkpt>
      <trkpt lat="45.67106" lon="2.99024">
        <ele>864.8</ele>
        <time>2021-08-26T15:29:29Z</time>
      </trkpt>
      <trkpt lat="45.67111" lon="2.99028">
        <ele>865.1</ele>
        <time>2021-08-26T15:29:31Z</time>
      </trkpt>
      <trkpt lat="45.67114" lon="2.99033">
        <ele>865.3</ele>
        <time>2021-08-26T15:29:33Z</time>
      </trkpt>
      <trkpt lat="45.67117" lon="2.99037">
        <ele>865.6</ele>
        <time>2021-08-26T15:29:35Z</time>
      </trkpt>
      <trkpt lat="45.67121" lon="2.99041">
        <ele>865.8</ele>
        <time>2021-08-26T15:29:37Z</time>
      </trkpt>
      <trkpt lat="45.67124" lon="2.99045">
        <ele>866</ele>
        <time>2021-08-26T15:29:39Z</time>
      </trkpt>
      <trkpt lat="45.67128" lon="2.99049">
        <ele>866.2</ele>
        <time>2021-08-26T15:29:41Z</time>
      </trkpt>
      <trkpt lat="45.67131" lon="2.99053">
        <ele>866.4</ele>
        <time>2021-08-26T15:29:43Z</time>
      </trkpt>
      <trkpt lat="45.67135" lon="2.99058">
        <ele>866.6</ele>
        <time>2021-08-26T15:29:45Z</time>
      </trkpt>
      <trkpt lat="45.67139" lon="2.99063">
        <ele>866.8</ele>
        <time>2021-08-26T15:29:47Z</time>
      </trkpt>
      <trkpt lat="45.67143" lon="2.99068">
        <ele>867</ele>
        <time>2021-08-26T15:29:49Z</time>
      </trkpt>
      <trkpt lat="45.67146" lon="2.99073">
        <ele>867.2</ele>
        <time>2021-08-26T15:29:51Z</time>
      </trkpt>
      <trkpt lat="45.6715" lon="2.99079">
        <ele>867.4</ele>
        <time>2021-08-26T15:29:53Z</time>
      </trkpt>
      <trkpt lat="45.67154" lon="2.99084">
        <ele>867.5</ele>
        <time>2021-08-26T15:29:55Z</time>
      </trkpt>
      <trkpt lat="45.67158" lon="2.99091">
        <ele>867.5</ele>
        <time>2021-08-26T15:29:57Z</time>
      </trkpt>
      <trkpt lat="45.67162" lon="2.99098">
        <ele>867.5</ele>
        <time>2021-08-26T15:29:59Z</time>
      </trkpt>
      <trkpt lat="45.67168" lon="2.99105">
        <ele>867.4</ele>
        <time>2021-08-26T15:30:01Z</time>
      </trkpt>
      <trkpt lat="45.67174" lon="2.99113">
        <ele>867.1</ele>
        <time>2021-08-26T15:30:03Z</time>
      </trkpt>
      <trkpt lat="45.67181" lon="2.9912">
        <ele>866.7</ele>
        <time>2021-08-26T15:30:05Z</time>
      </trkpt>
      <trkpt lat="45.67189" lon="2.99127">
        <ele>866.4</ele>
        <time>2021-08-26T15:30:07Z</time>
      </trkpt>
      <trkpt lat="45.67198" lon="2.99135">
        <ele>866.1</ele>
        <time>2021-08-26T15:30:09Z</time>
      </trkpt>
      <trkpt lat="45.67206" lon="2.99142">
        <ele>865.8</ele>
        <time>2021-08-26T15:30:11Z</time>
      </trkpt>
      <trkpt lat="45.67216" lon="2.99148">
        <ele>865.6</ele>
        <time>2021-08-26T15:30:13Z</time>
      </trkpt>
      <trkpt lat="45.67226" lon="2.99156">
        <ele>865.4</ele>
        <time>2021-08-26T15:30:15Z</time>
      </trkpt>
      <trkpt lat="45.67235" lon="2.99164">
        <ele>865.2</ele>
        <time>2021-08-26T15:30:17Z</time>
      </trkpt>
      <trkpt lat="45.67245" lon="2.9917">
        <ele>865.1</ele>
        <time>2021-08-26T15:30:19Z</time>
      </trkpt>
      <trkpt lat="45.67253" lon="2.99181">
        <ele>865.2</ele>
        <time>2021-08-26T15:30:21Z</time>
      </trkpt>
      <trkpt lat="45.67263" lon="2.99188">
        <ele>864.7</ele>
        <time>2021-08-26T15:30:23Z</time>
      </trkpt>
      <trkpt lat="45.67273" lon="2.99198">
        <ele>864.2</ele>
        <time>2021-08-26T15:30:25Z</time>
      </trkpt>
      <trkpt lat="45.67283" lon="2.99208">
        <ele>863.7</ele>
        <time>2021-08-26T15:30:27Z</time>
      </trkpt>
      <trkpt lat="45.67294" lon="2.99216">
        <ele>862.8</ele>
        <time>2021-08-26T15:30:29Z</time>
      </trkpt>
      <trkpt lat="45.67301" lon="2.99227">
        <ele>862.2</ele>
        <time>2021-08-26T15:30:31Z</time>
      </trkpt>
      <trkpt lat="45.67313" lon="2.99235">
        <ele>861.2</ele>
        <time>2021-08-26T15:30:33Z</time>
      </trkpt>
      <trkpt lat="45.67322" lon="2.99243">
        <ele>860.2</ele>
        <time>2021-08-26T15:30:35Z</time>
      </trkpt>
      <trkpt lat="45.67331" lon="2.99253">
        <ele>859.3</ele>
        <time>2021-08-26T15:30:37Z</time>
      </trkpt>
      <trkpt lat="45.6734" lon="2.99261">
        <ele>859</ele>
        <time>2021-08-26T15:30:39Z</time>
      </trkpt>
      <trkpt lat="45.67348" lon="2.99269">
        <ele>859</ele>
        <time>2021-08-26T15:30:41Z</time>
      </trkpt>
      <trkpt lat="45.67354" lon="2.9928">
        <ele>859</ele>
        <time>2021-08-26T15:30:43Z</time>
      </trkpt>
      <trkpt lat="45.67357" lon="2.99293">
        <ele>859.1</ele>
        <time>2021-08-26T15:30:45Z</time>
      </trkpt>
      <trkpt lat="45.67362" lon="2.99304">
        <ele>859.1</ele>
        <time>2021-08-26T15:30:47Z</time>
      </trkpt>
      <trkpt lat="45.67369" lon="2.99312">
        <ele>859</ele>
        <time>2021-08-26T15:30:49Z</time>
      </trkpt>
      <trkpt lat="45.67377" lon="2.99314">
        <ele>858.8</ele>
        <time>2021-08-26T15:30:51Z</time>
      </trkpt>
      <trkpt lat="45.67385" lon="2.99313">
        <ele>858.7</ele>
        <time>2021-08-26T15:30:53Z</time>
      </trkpt>
      <trkpt lat="45.67392" lon="2.99315">
        <ele>858.5</ele>
        <time>2021-08-26T15:30:55Z</time>
      </trkpt>
      <trkpt lat="45.67398" lon="2.99318">
        <ele>858.4</ele>
        <time>2021-08-26T15:30:57Z</time>
      </trkpt>
      <trkpt lat="45.67403" lon="2.99321">
        <ele>858.3</ele>
        <time>2021-08-26T15:30:59Z</time>
      </trkpt>
      <trkpt lat="45.67407" lon="2.99324">
        <ele>858.2</ele>
        <time>2021-08-26T15:31:01Z</time>
      </trkpt>
      <trkpt lat="45.6741" lon="2.99329">
        <ele>858.2</ele>
        <time>2021-08-26T15:31:03Z</time>
      </trkpt>
      <trkpt lat="45.67411" lon="2.99331">
        <ele>858.1</ele>
        <time>2021-08-26T15:31:05Z</time>
      </trkpt>
      <trkpt lat="45.67411" lon="2.9933">
        <ele>858.1</ele>
        <time>2021-08-26T15:31:07Z</time>
      </trkpt>
      <trkpt lat="45.67412" lon="2.9933">
        <ele>858.1</ele>
        <time>2021-08-26T15:31:09Z</time>
      </trkpt>
      <trkpt lat="45.67412" lon="2.9933">
        <ele>858.1</ele>
        <time>2021-08-26T15:31:11Z</time>
      </trkpt>
      <trkpt lat="45.67411" lon="2.9933">
        <ele>858.1</ele>
        <time>2021-08-26T15:31:13Z</time>
      </trkpt>
      <trkpt lat="45.67429" lon="2.9933">
        <ele>858.9</ele>
        <time>2021-08-26T15:32:27Z</time>
      </trkpt>
      <trkpt lat="45.67434" lon="2.99334">
        <ele>859.3</ele>
        <time>2021-08-26T15:32:29Z</time>
      </trkpt>
      <trkpt lat="45.67439" lon="2.99339">
        <ele>859.7</ele>
        <time>2021-08-26T15:32:31Z</time>
      </trkpt>
      <trkpt lat="45.67446" lon="2.99344">
        <ele>860.2</ele>
        <time>2021-08-26T15:32:33Z</time>
      </trkpt>
      <trkpt lat="45.67452" lon="2.99349">
        <ele>860.7</ele>
        <time>2021-08-26T15:32:35Z</time>
      </trkpt>
      <trkpt lat="45.67459" lon="2.99355">
        <ele>861.1</ele>
        <time>2021-08-26T15:32:37Z</time>
      </trkpt>
      <trkpt lat="45.67465" lon="2.9936">
        <ele>861.6</ele>
        <time>2021-08-26T15:32:39Z</time>
      </trkpt>
      <trkpt lat="45.67472" lon="2.99366">
        <ele>862.1</ele>
        <time>2021-08-26T15:32:41Z</time>
      </trkpt>
      <trkpt lat="45.67478" lon="2.99371">
        <ele>862.6</ele>
        <time>2021-08-26T15:32:43Z</time>
      </trkpt>
      <trkpt lat="45.67486" lon="2.99376">
        <ele>863.1</ele>
        <time>2021-08-26T15:32:45Z</time>
      </trkpt>
      <trkpt lat="45.67493" lon="2.99383">
        <ele>863.5</ele>
        <time>2021-08-26T15:32:47Z</time>
      </trkpt>
      <trkpt lat="45.675" lon="2.99389">
        <ele>864</ele>
        <time>2021-08-26T15:32:49Z</time>
      </trkpt>
      <trkpt lat="45.67507" lon="2.99395">
        <ele>864.3</ele>
        <time>2021-08-26T15:32:51Z</time>
      </trkpt>
      <trkpt lat="45.67514" lon="2.99402">
        <ele>864.5</ele>
        <time>2021-08-26T15:32:53Z</time>
      </trkpt>
      <trkpt lat="45.6752" lon="2.99409">
        <ele>864.7</ele>
        <time>2021-08-26T15:32:55Z</time>
      </trkpt>
      <trkpt lat="45.67526" lon="2.99414">
        <ele>864.9</ele>
        <time>2021-08-26T15:32:57Z</time>
      </trkpt>
      <trkpt lat="45.67531" lon="2.99421">
        <ele>865.2</ele>
        <time>2021-08-26T15:32:59Z</time>
      </trkpt>
      <trkpt lat="45.67538" lon="2.99425">
        <ele>865.5</ele>
        <time>2021-08-26T15:33:01Z</time>
      </trkpt>
      <trkpt lat="45.67543" lon="2.99431">
        <ele>865.7</ele>
        <time>2021-08-26T15:33:03Z</time>
      </trkpt>
      <trkpt lat="45.67549" lon="2.99436">
        <ele>866</ele>
        <time>2021-08-26T15:33:05Z</time>
      </trkpt>
      <trkpt lat="45.67556" lon="2.99441">
        <ele>866.2</ele>
        <time>2021-08-26T15:33:07Z</time>
      </trkpt>
      <trkpt lat="45.67561" lon="2.99445">
        <ele>866.4</ele>
        <time>2021-08-26T15:33:09Z</time>
      </trkpt>
      <trkpt lat="45.67567" lon="2.9945">
        <ele>866.6</ele>
        <time>2021-08-26T15:33:11Z</time>
      </trkpt>
      <trkpt lat="45.67572" lon="2.99456">
        <ele>866.7</ele>
        <time>2021-08-26T15:33:13Z</time>
      </trkpt>
      <trkpt lat="45.67577" lon="2.9946">
        <ele>866.9</ele>
        <time>2021-08-26T15:33:15Z</time>
      </trkpt>
      <trkpt lat="45.67582" lon="2.99464">
        <ele>867</ele>
        <time>2021-08-26T15:33:17Z</time>
      </trkpt>
      <trkpt lat="45.67587" lon="2.99468">
        <ele>867</ele>
        <time>2021-08-26T15:33:19Z</time>
      </trkpt>
      <trkpt lat="45.67591" lon="2.99473">
        <ele>867</ele>
        <time>2021-08-26T15:33:21Z</time>
      </trkpt>
      <trkpt lat="45.67597" lon="2.99477">
        <ele>867</ele>
        <time>2021-08-26T15:33:23Z</time>
      </trkpt>
      <trkpt lat="45.67602" lon="2.9948">
        <ele>866.9</ele>
        <time>2021-08-26T15:33:25Z</time>
      </trkpt>
      <trkpt lat="45.67607" lon="2.99484">
        <ele>866.9</ele>
        <time>2021-08-26T15:33:27Z</time>
      </trkpt>
      <trkpt lat="45.67612" lon="2.99488">
        <ele>866.9</ele>
        <time>2021-08-26T15:33:29Z</time>
      </trkpt>
      <trkpt lat="45.67616" lon="2.99491">
        <ele>867</ele>
        <time>2021-08-26T15:33:31Z</time>
      </trkpt>
      <trkpt lat="45.67621" lon="2.99495">
        <ele>867</ele>
        <time>2021-08-26T15:33:33Z</time>
      </trkpt>
      <trkpt lat="45.67626" lon="2.99497">
        <ele>867</ele>
        <time>2021-08-26T15:33:35Z</time>
      </trkpt>
      <trkpt lat="45.6763" lon="2.99499">
        <ele>867</ele>
        <time>2021-08-26T15:33:37Z</time>
      </trkpt>
      <trkpt lat="45.67634" lon="2.995">
        <ele>867</ele>
        <time>2021-08-26T15:33:39Z</time>
      </trkpt>
      <trkpt lat="45.6764" lon="2.995">
        <ele>867</ele>
        <time>2021-08-26T15:33:41Z</time>
      </trkpt>
      <trkpt lat="45.67645" lon="2.99501">
        <ele>867.1</ele>
        <time>2021-08-26T15:33:43Z</time>
      </trkpt>
      <trkpt lat="45.6765" lon="2.99501">
        <ele>867.1</ele>
        <time>2021-08-26T15:33:45Z</time>
      </trkpt>
      <trkpt lat="45.67656" lon="2.99501">
        <ele>867.1</ele>
        <time>2021-08-26T15:33:47Z</time>
      </trkpt>
      <trkpt lat="45.67661" lon="2.995">
        <ele>867</ele>
        <time>2021-08-26T15:33:49Z</time>
      </trkpt>
      <trkpt lat="45.67667" lon="2.995">
        <ele>867</ele>
        <time>2021-08-26T15:33:51Z</time>
      </trkpt>
      <trkpt lat="45.67673" lon="2.99498">
        <ele>867</ele>
        <time>2021-08-26T15:33:53Z</time>
      </trkpt>
      <trkpt lat="45.67679" lon="2.99497">
        <ele>867</ele>
        <time>2021-08-26T15:33:55Z</time>
      </trkpt>
      <trkpt lat="45.67685" lon="2.99496">
        <ele>867</ele>
        <time>2021-08-26T15:33:57Z</time>
      </trkpt>
      <trkpt lat="45.67691" lon="2.99494">
        <ele>866.9</ele>
        <time>2021-08-26T15:33:59Z</time>
      </trkpt>
      <trkpt lat="45.67697" lon="2.99493">
        <ele>866.9</ele>
        <time>2021-08-26T15:34:01Z</time>
      </trkpt>
      <trkpt lat="45.67704" lon="2.99492">
        <ele>866.9</ele>
        <time>2021-08-26T15:34:03Z</time>
      </trkpt>
      <trkpt lat="45.6771" lon="2.99491">
        <ele>866.9</ele>
        <time>2021-08-26T15:34:05Z</time>
      </trkpt>
      <trkpt lat="45.67717" lon="2.99489">
        <ele>866.9</ele>
        <time>2021-08-26T15:34:07Z</time>
      </trkpt>
      <trkpt lat="45.67724" lon="2.99488">
        <ele>866.9</ele>
        <time>2021-08-26T15:34:09Z</time>
      </trkpt>
      <trkpt lat="45.67731" lon="2.99487">
        <ele>866.8</ele>
        <time>2021-08-26T15:34:11Z</time>
      </trkpt>
      <trkpt lat="45.67737" lon="2.99486">
        <ele>866.8</ele>
        <time>2021-08-26T15:34:13Z</time>
      </trkpt>
      <trkpt lat="45.67744" lon="2.99485">
        <ele>866.8</ele>
        <time>2021-08-26T15:34:15Z</time>
      </trkpt>
      <trkpt lat="45.67751" lon="2.99484">
        <ele>866.8</ele>
        <time>2021-08-26T15:34:17Z</time>
      </trkpt>
      <trkpt lat="45.67758" lon="2.99483">
        <ele>867</ele>
        <time>2021-08-26T15:34:19Z</time>
      </trkpt>
      <trkpt lat="45.67764" lon="2.99483">
        <ele>867.1</ele>
        <time>2021-08-26T15:34:21Z</time>
      </trkpt>
      <trkpt lat="45.67771" lon="2.99485">
        <ele>867.3</ele>
        <time>2021-08-26T15:34:23Z</time>
      </trkpt>
      <trkpt lat="45.67779" lon="2.99486">
        <ele>867.5</ele>
        <time>2021-08-26T15:34:25Z</time>
      </trkpt>
      <trkpt lat="45.67786" lon="2.99488">
        <ele>867.7</ele>
        <time>2021-08-26T15:34:27Z</time>
      </trkpt>
      <trkpt lat="45.67794" lon="2.9949">
        <ele>867.9</ele>
        <time>2021-08-26T15:34:29Z</time>
      </trkpt>
      <trkpt lat="45.678" lon="2.99494">
        <ele>868.1</ele>
        <time>2021-08-26T15:34:31Z</time>
      </trkpt>
      <trkpt lat="45.67808" lon="2.99498">
        <ele>868.3</ele>
        <time>2021-08-26T15:34:33Z</time>
      </trkpt>
      <trkpt lat="45.67815" lon="2.995">
        <ele>868.6</ele>
        <time>2021-08-26T15:34:35Z</time>
      </trkpt>
      <trkpt lat="45.67822" lon="2.99505">
        <ele>869</ele>
        <time>2021-08-26T15:34:37Z</time>
      </trkpt>
      <trkpt lat="45.67829" lon="2.99508">
        <ele>869.4</ele>
        <time>2021-08-26T15:34:39Z</time>
      </trkpt>
      <trkpt lat="45.67836" lon="2.99512">
        <ele>869.9</ele>
        <time>2021-08-26T15:34:41Z</time>
      </trkpt>
      <trkpt lat="45.67844" lon="2.99516">
        <ele>870.4</ele>
        <time>2021-08-26T15:34:43Z</time>
      </trkpt>
      <trkpt lat="45.67851" lon="2.99519">
        <ele>871</ele>
        <time>2021-08-26T15:34:45Z</time>
      </trkpt>
      <trkpt lat="45.67859" lon="2.99524">
        <ele>871.5</ele>
        <time>2021-08-26T15:34:47Z</time>
      </trkpt>
      <trkpt lat="45.67867" lon="2.99528">
        <ele>872</ele>
        <time>2021-08-26T15:34:49Z</time>
      </trkpt>
      <trkpt lat="45.67874" lon="2.99532">
        <ele>872.4</ele>
        <time>2021-08-26T15:34:51Z</time>
      </trkpt>
      <trkpt lat="45.67882" lon="2.99537">
        <ele>872.8</ele>
        <time>2021-08-26T15:34:53Z</time>
      </trkpt>
      <trkpt lat="45.67891" lon="2.99541">
        <ele>873.2</ele>
        <time>2021-08-26T15:34:55Z</time>
      </trkpt>
      <trkpt lat="45.67899" lon="2.99546">
        <ele>873.5</ele>
        <time>2021-08-26T15:34:57Z</time>
      </trkpt>
      <trkpt lat="45.67907" lon="2.9955">
        <ele>873.8</ele>
        <time>2021-08-26T15:34:59Z</time>
      </trkpt>
      <trkpt lat="45.67915" lon="2.99554">
        <ele>874</ele>
        <time>2021-08-26T15:35:01Z</time>
      </trkpt>
      <trkpt lat="45.67923" lon="2.99561">
        <ele>874</ele>
        <time>2021-08-26T15:35:03Z</time>
      </trkpt>
      <trkpt lat="45.67932" lon="2.99566">
        <ele>874</ele>
        <time>2021-08-26T15:35:05Z</time>
      </trkpt>
      <trkpt lat="45.67941" lon="2.99572">
        <ele>874</ele>
        <time>2021-08-26T15:35:07Z</time>
      </trkpt>
      <trkpt lat="45.67951" lon="2.99579">
        <ele>874</ele>
        <time>2021-08-26T15:35:09Z</time>
      </trkpt>
      <trkpt lat="45.6796" lon="2.99586">
        <ele>874.1</ele>
        <time>2021-08-26T15:35:11Z</time>
      </trkpt>
      <trkpt lat="45.67968" lon="2.99594">
        <ele>874.3</ele>
        <time>2021-08-26T15:35:13Z</time>
      </trkpt>
      <trkpt lat="45.67976" lon="2.99602">
        <ele>874.3</ele>
        <time>2021-08-26T15:35:15Z</time>
      </trkpt>
      <trkpt lat="45.67985" lon="2.99609">
        <ele>874.3</ele>
        <time>2021-08-26T15:35:17Z</time>
      </trkpt>
      <trkpt lat="45.67994" lon="2.99616">
        <ele>874.2</ele>
        <time>2021-08-26T15:35:19Z</time>
      </trkpt>
      <trkpt lat="45.68002" lon="2.99623">
        <ele>874</ele>
        <time>2021-08-26T15:35:21Z</time>
      </trkpt>
      <trkpt lat="45.68011" lon="2.9963">
        <ele>874.1</ele>
        <time>2021-08-26T15:35:23Z</time>
      </trkpt>
      <trkpt lat="45.68018" lon="2.99637">
        <ele>874.2</ele>
        <time>2021-08-26T15:35:25Z</time>
      </trkpt>
      <trkpt lat="45.68026" lon="2.99643">
        <ele>874.3</ele>
        <time>2021-08-26T15:35:27Z</time>
      </trkpt>
      <trkpt lat="45.68034" lon="2.99651">
        <ele>874.4</ele>
        <time>2021-08-26T15:35:29Z</time>
      </trkpt>
      <trkpt lat="45.68043" lon="2.99657">
        <ele>874.5</ele>
        <time>2021-08-26T15:35:31Z</time>
      </trkpt>
      <trkpt lat="45.68051" lon="2.99663">
        <ele>874.6</ele>
        <time>2021-08-26T15:35:33Z</time>
      </trkpt>
      <trkpt lat="45.6806" lon="2.99671">
        <ele>874.8</ele>
        <time>2021-08-26T15:35:35Z</time>
      </trkpt>
      <trkpt lat="45.68067" lon="2.99677">
        <ele>875.1</ele>
        <time>2021-08-26T15:35:37Z</time>
      </trkpt>
      <trkpt lat="45.68075" lon="2.99684">
        <ele>875.4</ele>
        <time>2021-08-26T15:35:39Z</time>
      </trkpt>
      <trkpt lat="45.68083" lon="2.99691">
        <ele>875.6</ele>
        <time>2021-08-26T15:35:41Z</time>
      </trkpt>
      <trkpt lat="45.6809" lon="2.99697">
        <ele>875.8</ele>
        <time>2021-08-26T15:35:43Z</time>
      </trkpt>
      <trkpt lat="45.68097" lon="2.99703">
        <ele>876</ele>
        <time>2021-08-26T15:35:45Z</time>
      </trkpt>
      <trkpt lat="45.68102" lon="2.9971">
        <ele>876.3</ele>
        <time>2021-08-26T15:35:47Z</time>
      </trkpt>
      <trkpt lat="45.6811" lon="2.99715">
        <ele>876.5</ele>
        <time>2021-08-26T15:35:49Z</time>
      </trkpt>
      <trkpt lat="45.68115" lon="2.99722">
        <ele>876.8</ele>
        <time>2021-08-26T15:35:51Z</time>
      </trkpt>
      <trkpt lat="45.68122" lon="2.99728">
        <ele>877.1</ele>
        <time>2021-08-26T15:35:53Z</time>
      </trkpt>
      <trkpt lat="45.68128" lon="2.99735">
        <ele>877.5</ele>
        <time>2021-08-26T15:35:55Z</time>
      </trkpt>
      <trkpt lat="45.68134" lon="2.99742">
        <ele>877.9</ele>
        <time>2021-08-26T15:35:57Z</time>
      </trkpt>
      <trkpt lat="45.68139" lon="2.9975">
        <ele>878.3</ele>
        <time>2021-08-26T15:35:59Z</time>
      </trkpt>
      <trkpt lat="45.68146" lon="2.99757">
        <ele>878.7</ele>
        <time>2021-08-26T15:36:01Z</time>
      </trkpt>
      <trkpt lat="45.68152" lon="2.99765">
        <ele>879.1</ele>
        <time>2021-08-26T15:36:03Z</time>
      </trkpt>
      <trkpt lat="45.68158" lon="2.99773">
        <ele>879.5</ele>
        <time>2021-08-26T15:36:05Z</time>
      </trkpt>
      <trkpt lat="45.68164" lon="2.9978">
        <ele>880</ele>
        <time>2021-08-26T15:36:07Z</time>
      </trkpt>
      <trkpt lat="45.68168" lon="2.99788">
        <ele>880.4</ele>
        <time>2021-08-26T15:36:09Z</time>
      </trkpt>
      <trkpt lat="45.68173" lon="2.99795">
        <ele>880.5</ele>
        <time>2021-08-26T15:36:11Z</time>
      </trkpt>
      <trkpt lat="45.68178" lon="2.99803">
        <ele>880.7</ele>
        <time>2021-08-26T15:36:13Z</time>
      </trkpt>
      <trkpt lat="45.68183" lon="2.99811">
        <ele>880.9</ele>
        <time>2021-08-26T15:36:15Z</time>
      </trkpt>
      <trkpt lat="45.68188" lon="2.99818">
        <ele>881</ele>
        <time>2021-08-26T15:36:17Z</time>
      </trkpt>
      <trkpt lat="45.68192" lon="2.99825">
        <ele>881.1</ele>
        <time>2021-08-26T15:36:19Z</time>
      </trkpt>
      <trkpt lat="45.68196" lon="2.99833">
        <ele>881.3</ele>
        <time>2021-08-26T15:36:21Z</time>
      </trkpt>
      <trkpt lat="45.68201" lon="2.99841">
        <ele>881.1</ele>
        <time>2021-08-26T15:36:23Z</time>
      </trkpt>
      <trkpt lat="45.68205" lon="2.99849">
        <ele>881</ele>
        <time>2021-08-26T15:36:25Z</time>
      </trkpt>
      <trkpt lat="45.68209" lon="2.99858">
        <ele>880.8</ele>
        <time>2021-08-26T15:36:27Z</time>
      </trkpt>
      <trkpt lat="45.68212" lon="2.99866">
        <ele>880.7</ele>
        <time>2021-08-26T15:36:29Z</time>
      </trkpt>
      <trkpt lat="45.68216" lon="2.99876">
        <ele>880.6</ele>
        <time>2021-08-26T15:36:31Z</time>
      </trkpt>
      <trkpt lat="45.68221" lon="2.99884">
        <ele>880.5</ele>
        <time>2021-08-26T15:36:33Z</time>
      </trkpt>
      <trkpt lat="45.68226" lon="2.99892">
        <ele>880.4</ele>
        <time>2021-08-26T15:36:35Z</time>
      </trkpt>
      <trkpt lat="45.68231" lon="2.99901">
        <ele>880.3</ele>
        <time>2021-08-26T15:36:37Z</time>
      </trkpt>
      <trkpt lat="45.68237" lon="2.99909">
        <ele>880.2</ele>
        <time>2021-08-26T15:36:39Z</time>
      </trkpt>
      <trkpt lat="45.68244" lon="2.99917">
        <ele>880.1</ele>
        <time>2021-08-26T15:36:41Z</time>
      </trkpt>
      <trkpt lat="45.68252" lon="2.99923">
        <ele>880.7</ele>
        <time>2021-08-26T15:36:43Z</time>
      </trkpt>
      <trkpt lat="45.6826" lon="2.99927">
        <ele>881.3</ele>
        <time>2021-08-26T15:36:45Z</time>
      </trkpt>
      <trkpt lat="45.68267" lon="2.99931">
        <ele>881.9</ele>
        <time>2021-08-26T15:36:47Z</time>
      </trkpt>
      <trkpt lat="45.68276" lon="2.99934">
        <ele>882.4</ele>
        <time>2021-08-26T15:36:49Z</time>
      </trkpt>
      <trkpt lat="45.68285" lon="2.99937">
        <ele>882.8</ele>
        <time>2021-08-26T15:36:51Z</time>
      </trkpt>
      <trkpt lat="45.68294" lon="2.99939">
        <ele>883.2</ele>
        <time>2021-08-26T15:36:53Z</time>
      </trkpt>
      <trkpt lat="45.68303" lon="2.9994">
        <ele>883.5</ele>
        <time>2021-08-26T15:36:55Z</time>
      </trkpt>
      <trkpt lat="45.68311" lon="2.99942">
        <ele>884</ele>
        <time>2021-08-26T15:36:57Z</time>
      </trkpt>
      <trkpt lat="45.68319" lon="2.99944">
        <ele>884.3</ele>
        <time>2021-08-26T15:36:59Z</time>
      </trkpt>
      <trkpt lat="45.68326" lon="2.99946">
        <ele>884.8</ele>
        <time>2021-08-26T15:37:01Z</time>
      </trkpt>
      <trkpt lat="45.68334" lon="2.99948">
        <ele>885.2</ele>
        <time>2021-08-26T15:37:03Z</time>
      </trkpt>
      <trkpt lat="45.68341" lon="2.9995">
        <ele>885.3</ele>
        <time>2021-08-26T15:37:05Z</time>
      </trkpt>
      <trkpt lat="45.68348" lon="2.99952">
        <ele>885.3</ele>
        <time>2021-08-26T15:37:07Z</time>
      </trkpt>
      <trkpt lat="45.68355" lon="2.99953">
        <ele>885.2</ele>
        <time>2021-08-26T15:37:09Z</time>
      </trkpt>
      <trkpt lat="45.68362" lon="2.99955">
        <ele>885.1</ele>
        <time>2021-08-26T15:37:11Z</time>
      </trkpt>
      <trkpt lat="45.68369" lon="2.99957">
        <ele>885</ele>
        <time>2021-08-26T15:37:13Z</time>
      </trkpt>
      <trkpt lat="45.68377" lon="2.99959">
        <ele>885</ele>
        <time>2021-08-26T15:37:15Z</time>
      </trkpt>
      <trkpt lat="45.68383" lon="2.99961">
        <ele>884.9</ele>
        <time>2021-08-26T15:37:17Z</time>
      </trkpt>
      <trkpt lat="45.6839" lon="2.99963">
        <ele>884.8</ele>
        <time>2021-08-26T15:37:19Z</time>
      </trkpt>
      <trkpt lat="45.68397" lon="2.99965">
        <ele>884.7</ele>
        <time>2021-08-26T15:37:21Z</time>
      </trkpt>
      <trkpt lat="45.68403" lon="2.99967">
        <ele>884.6</ele>
        <time>2021-08-26T15:37:23Z</time>
      </trkpt>
      <trkpt lat="45.6841" lon="2.9997">
        <ele>884.5</ele>
        <time>2021-08-26T15:37:25Z</time>
      </trkpt>
      <trkpt lat="45.68415" lon="2.99973">
        <ele>884.5</ele>
        <time>2021-08-26T15:37:27Z</time>
      </trkpt>
      <trkpt lat="45.68422" lon="2.99975">
        <ele>884.2</ele>
        <time>2021-08-26T15:37:29Z</time>
      </trkpt>
      <trkpt lat="45.68428" lon="2.99978">
        <ele>883.9</ele>
        <time>2021-08-26T15:37:31Z</time>
      </trkpt>
      <trkpt lat="45.68434" lon="2.99982">
        <ele>883.6</ele>
        <time>2021-08-26T15:37:33Z</time>
      </trkpt>
      <trkpt lat="45.6844" lon="2.99984">
        <ele>883.4</ele>
        <time>2021-08-26T15:37:35Z</time>
      </trkpt>
      <trkpt lat="45.68445" lon="2.99988">
        <ele>883.2</ele>
        <time>2021-08-26T15:37:37Z</time>
      </trkpt>
      <trkpt lat="45.68451" lon="2.99992">
        <ele>883</ele>
        <time>2021-08-26T15:37:39Z</time>
      </trkpt>
      <trkpt lat="45.68456" lon="2.99996">
        <ele>882.8</ele>
        <time>2021-08-26T15:37:41Z</time>
      </trkpt>
      <trkpt lat="45.68462" lon="2.99999">
        <ele>882.6</ele>
        <time>2021-08-26T15:37:43Z</time>
      </trkpt>
      <trkpt lat="45.68468" lon="3.00003">
        <ele>882.7</ele>
        <time>2021-08-26T15:37:45Z</time>
      </trkpt>
      <trkpt lat="45.68473" lon="3.00007">
        <ele>882.8</ele>
        <time>2021-08-26T15:37:47Z</time>
      </trkpt>
      <trkpt lat="45.68479" lon="3.0001">
        <ele>882.9</ele>
        <time>2021-08-26T15:37:49Z</time>
      </trkpt>
      <trkpt lat="45.68485" lon="3.00015">
        <ele>883.1</ele>
        <time>2021-08-26T15:37:51Z</time>
      </trkpt>
      <trkpt lat="45.6849" lon="3.00018">
        <ele>883.1</ele>
        <time>2021-08-26T15:37:53Z</time>
      </trkpt>
      <trkpt lat="45.68496" lon="3.00023">
        <ele>883.2</ele>
        <time>2021-08-26T15:37:55Z</time>
      </trkpt>
      <trkpt lat="45.68501" lon="3.00028">
        <ele>883.6</ele>
        <time>2021-08-26T15:37:57Z</time>
      </trkpt>
      <trkpt lat="45.68507" lon="3.00033">
        <ele>883.8</ele>
        <time>2021-08-26T15:37:59Z</time>
      </trkpt>
      <trkpt lat="45.68512" lon="3.00039">
        <ele>884</ele>
        <time>2021-08-26T15:38:01Z</time>
      </trkpt>
      <trkpt lat="45.68518" lon="3.00045">
        <ele>884.2</ele>
        <time>2021-08-26T15:38:03Z</time>
      </trkpt>
      <trkpt lat="45.68523" lon="3.00052">
        <ele>884.5</ele>
        <time>2021-08-26T15:38:05Z</time>
      </trkpt>
      <trkpt lat="45.68529" lon="3.00058">
        <ele>884.7</ele>
        <time>2021-08-26T15:38:07Z</time>
      </trkpt>
      <trkpt lat="45.68533" lon="3.00065">
        <ele>885</ele>
        <time>2021-08-26T15:38:09Z</time>
      </trkpt>
      <trkpt lat="45.68538" lon="3.00072">
        <ele>885.4</ele>
        <time>2021-08-26T15:38:11Z</time>
      </trkpt>
      <trkpt lat="45.68543" lon="3.00077">
        <ele>885.4</ele>
        <time>2021-08-26T15:38:13Z</time>
      </trkpt>
      <trkpt lat="45.68548" lon="3.00084">
        <ele>885.5</ele>
        <time>2021-08-26T15:38:15Z</time>
      </trkpt>
      <trkpt lat="45.68554" lon="3.00091">
        <ele>885.8</ele>
        <time>2021-08-26T15:38:17Z</time>
      </trkpt>
      <trkpt lat="45.68559" lon="3.00097">
        <ele>886.1</ele>
        <time>2021-08-26T15:38:19Z</time>
      </trkpt>
      <trkpt lat="45.68564" lon="3.00104">
        <ele>886.2</ele>
        <time>2021-08-26T15:38:21Z</time>
      </trkpt>
      <trkpt lat="45.6857" lon="3.00111">
        <ele>886.3</ele>
        <time>2021-08-26T15:38:23Z</time>
      </trkpt>
      <trkpt lat="45.68576" lon="3.00119">
        <ele>886.5</ele>
        <time>2021-08-26T15:38:25Z</time>
      </trkpt>
      <trkpt lat="45.68581" lon="3.00126">
        <ele>886.5</ele>
        <time>2021-08-26T15:38:27Z</time>
      </trkpt>
      <trkpt lat="45.68587" lon="3.00134">
        <ele>886.9</ele>
        <time>2021-08-26T15:38:29Z</time>
      </trkpt>
      <trkpt lat="45.68593" lon="3.00141">
        <ele>887.3</ele>
        <time>2021-08-26T15:38:31Z</time>
      </trkpt>
      <trkpt lat="45.68599" lon="3.00148">
        <ele>887.7</ele>
        <time>2021-08-26T15:38:33Z</time>
      </trkpt>
      <trkpt lat="45.68605" lon="3.00155">
        <ele>888.1</ele>
        <time>2021-08-26T15:38:35Z</time>
      </trkpt>
      <trkpt lat="45.68611" lon="3.00162">
        <ele>888.4</ele>
        <time>2021-08-26T15:38:37Z</time>
      </trkpt>
      <trkpt lat="45.68616" lon="3.0017">
        <ele>889.1</ele>
        <time>2021-08-26T15:38:39Z</time>
      </trkpt>
      <trkpt lat="45.68622" lon="3.00178">
        <ele>889.7</ele>
        <time>2021-08-26T15:38:41Z</time>
      </trkpt>
      <trkpt lat="45.68628" lon="3.00186">
        <ele>890.4</ele>
        <time>2021-08-26T15:38:43Z</time>
      </trkpt>
      <trkpt lat="45.68634" lon="3.00194">
        <ele>891.1</ele>
        <time>2021-08-26T15:38:45Z</time>
      </trkpt>
      <trkpt lat="45.6864" lon="3.00201">
        <ele>891.6</ele>
        <time>2021-08-26T15:38:47Z</time>
      </trkpt>
      <trkpt lat="45.68646" lon="3.00208">
        <ele>892.1</ele>
        <time>2021-08-26T15:38:49Z</time>
      </trkpt>
      <trkpt lat="45.68652" lon="3.00215">
        <ele>892.4</ele>
        <time>2021-08-26T15:38:51Z</time>
      </trkpt>
      <trkpt lat="45.68658" lon="3.00221">
        <ele>892.6</ele>
        <time>2021-08-26T15:38:53Z</time>
      </trkpt>
      <trkpt lat="45.68665" lon="3.00225">
        <ele>892.3</ele>
        <time>2021-08-26T15:38:55Z</time>
      </trkpt>
      <trkpt lat="45.68671" lon="3.00228">
        <ele>893</ele>
        <time>2021-08-26T15:38:57Z</time>
      </trkpt>
      <trkpt lat="45.68678" lon="3.0023">
        <ele>893.8</ele>
        <time>2021-08-26T15:38:59Z</time>
      </trkpt>
      <trkpt lat="45.68685" lon="3.0023">
        <ele>894.6</ele>
        <time>2021-08-26T15:39:01Z</time>
      </trkpt>
      <trkpt lat="45.68692" lon="3.00229">
        <ele>894.9</ele>
        <time>2021-08-26T15:39:03Z</time>
      </trkpt>
      <trkpt lat="45.68698" lon="3.00226">
        <ele>895</ele>
        <time>2021-08-26T15:39:05Z</time>
      </trkpt>
      <trkpt lat="45.68705" lon="3.00222">
        <ele>894.9</ele>
        <time>2021-08-26T15:39:07Z</time>
      </trkpt>
      <trkpt lat="45.68711" lon="3.00218">
        <ele>894.6</ele>
        <time>2021-08-26T15:39:09Z</time>
      </trkpt>
      <trkpt lat="45.68718" lon="3.00213">
        <ele>894.2</ele>
        <time>2021-08-26T15:39:11Z</time>
      </trkpt>
      <trkpt lat="45.68724" lon="3.00208">
        <ele>893.6</ele>
        <time>2021-08-26T15:39:13Z</time>
      </trkpt>
      <trkpt lat="45.6873" lon="3.00205">
        <ele>893.3</ele>
        <time>2021-08-26T15:39:15Z</time>
      </trkpt>
      <trkpt lat="45.68736" lon="3.002">
        <ele>892.7</ele>
        <time>2021-08-26T15:39:17Z</time>
      </trkpt>
      <trkpt lat="45.68742" lon="3.00196">
        <ele>892.2</ele>
        <time>2021-08-26T15:39:19Z</time>
      </trkpt>
      <trkpt lat="45.68748" lon="3.00192">
        <ele>891.7</ele>
        <time>2021-08-26T15:39:21Z</time>
      </trkpt>
      <trkpt lat="45.68755" lon="3.00187">
        <ele>891.2</ele>
        <time>2021-08-26T15:39:23Z</time>
      </trkpt>
      <trkpt lat="45.68761" lon="3.00185">
        <ele>891.2</ele>
        <time>2021-08-26T15:39:25Z</time>
      </trkpt>
      <trkpt lat="45.68767" lon="3.00182">
        <ele>891.3</ele>
        <time>2021-08-26T15:39:27Z</time>
      </trkpt>
      <trkpt lat="45.68774" lon="3.00179">
        <ele>891.4</ele>
        <time>2021-08-26T15:39:29Z</time>
      </trkpt>
      <trkpt lat="45.68781" lon="3.00176">
        <ele>891.5</ele>
        <time>2021-08-26T15:39:31Z</time>
      </trkpt>
      <trkpt lat="45.68787" lon="3.00173">
        <ele>891.8</ele>
        <time>2021-08-26T15:39:33Z</time>
      </trkpt>
      <trkpt lat="45.68794" lon="3.00171">
        <ele>892.1</ele>
        <time>2021-08-26T15:39:35Z</time>
      </trkpt>
      <trkpt lat="45.68801" lon="3.00168">
        <ele>892.3</ele>
        <time>2021-08-26T15:39:37Z</time>
      </trkpt>
      <trkpt lat="45.68808" lon="3.00164">
        <ele>892.6</ele>
        <time>2021-08-26T15:39:39Z</time>
      </trkpt>
      <trkpt lat="45.68816" lon="3.00161">
        <ele>893.1</ele>
        <time>2021-08-26T15:39:41Z</time>
      </trkpt>
      <trkpt lat="45.68825" lon="3.00158">
        <ele>893.5</ele>
        <time>2021-08-26T15:39:43Z</time>
      </trkpt>
      <trkpt lat="45.68835" lon="3.00154">
        <ele>893.9</ele>
        <time>2021-08-26T15:39:45Z</time>
      </trkpt>
      <trkpt lat="45.68844" lon="3.0015">
        <ele>893.7</ele>
        <time>2021-08-26T15:39:47Z</time>
      </trkpt>
      <trkpt lat="45.68855" lon="3.00146">
        <ele>893.6</ele>
        <time>2021-08-26T15:39:49Z</time>
      </trkpt>
      <trkpt lat="45.68865" lon="3.00142">
        <ele>893.3</ele>
        <time>2021-08-26T15:39:51Z</time>
      </trkpt>
      <trkpt lat="45.68875" lon="3.00138">
        <ele>893</ele>
        <time>2021-08-26T15:39:53Z</time>
      </trkpt>
      <trkpt lat="45.68886" lon="3.00134">
        <ele>892.8</ele>
        <time>2021-08-26T15:39:55Z</time>
      </trkpt>
      <trkpt lat="45.68896" lon="3.00131">
        <ele>892.6</ele>
        <time>2021-08-26T15:39:57Z</time>
      </trkpt>
      <trkpt lat="45.68906" lon="3.00127">
        <ele>892.4</ele>
        <time>2021-08-26T15:39:59Z</time>
      </trkpt>
      <trkpt lat="45.68917" lon="3.00122">
        <ele>892</ele>
        <time>2021-08-26T15:40:01Z</time>
      </trkpt>
      <trkpt lat="45.68927" lon="3.00118">
        <ele>891.6</ele>
        <time>2021-08-26T15:40:03Z</time>
      </trkpt>
      <trkpt lat="45.68938" lon="3.00113">
        <ele>891.3</ele>
        <time>2021-08-26T15:40:05Z</time>
      </trkpt>
      <trkpt lat="45.6895" lon="3.00109">
        <ele>891</ele>
        <time>2021-08-26T15:40:07Z</time>
      </trkpt>
      <trkpt lat="45.68961" lon="3.00104">
        <ele>890.7</ele>
        <time>2021-08-26T15:40:09Z</time>
      </trkpt>
      <trkpt lat="45.68973" lon="3.001">
        <ele>890.6</ele>
        <time>2021-08-26T15:40:11Z</time>
      </trkpt>
      <trkpt lat="45.68984" lon="3.00095">
        <ele>890.6</ele>
        <time>2021-08-26T15:40:13Z</time>
      </trkpt>
      <trkpt lat="45.68996" lon="3.00091">
        <ele>890.7</ele>
        <time>2021-08-26T15:40:15Z</time>
      </trkpt>
      <trkpt lat="45.69008" lon="3.00086">
        <ele>891.9</ele>
        <time>2021-08-26T15:40:17Z</time>
      </trkpt>
      <trkpt lat="45.6902" lon="3.0008">
        <ele>893.4</ele>
        <time>2021-08-26T15:40:19Z</time>
      </trkpt>
      <trkpt lat="45.6903" lon="3.00073">
        <ele>894.6</ele>
        <time>2021-08-26T15:40:21Z</time>
      </trkpt>
      <trkpt lat="45.6904" lon="3.00066">
        <ele>895.6</ele>
        <time>2021-08-26T15:40:23Z</time>
      </trkpt>
      <trkpt lat="45.69049" lon="3.00056">
        <ele>896</ele>
        <time>2021-08-26T15:40:25Z</time>
      </trkpt>
      <trkpt lat="45.69058" lon="3.00047">
        <ele>896.2</ele>
        <time>2021-08-26T15:40:27Z</time>
      </trkpt>
      <trkpt lat="45.69065" lon="3.00037">
        <ele>896.2</ele>
        <time>2021-08-26T15:40:29Z</time>
      </trkpt>
      <trkpt lat="45.69073" lon="3.00027">
        <ele>896.1</ele>
        <time>2021-08-26T15:40:31Z</time>
      </trkpt>
      <trkpt lat="45.6908" lon="3.00017">
        <ele>895.9</ele>
        <time>2021-08-26T15:40:33Z</time>
      </trkpt>
      <trkpt lat="45.69087" lon="3.00007">
        <ele>895.6</ele>
        <time>2021-08-26T15:40:35Z</time>
      </trkpt>
      <trkpt lat="45.69092" lon="2.99997">
        <ele>895.5</ele>
        <time>2021-08-26T15:40:37Z</time>
      </trkpt>
      <trkpt lat="45.69098" lon="2.99987">
        <ele>895.5</ele>
        <time>2021-08-26T15:40:39Z</time>
      </trkpt>
      <trkpt lat="45.69104" lon="2.99977">
        <ele>895.5</ele>
        <time>2021-08-26T15:40:41Z</time>
      </trkpt>
      <trkpt lat="45.69109" lon="2.99968">
        <ele>895.5</ele>
        <time>2021-08-26T15:40:43Z</time>
      </trkpt>
      <trkpt lat="45.69115" lon="2.99959">
        <ele>895.5</ele>
        <time>2021-08-26T15:40:45Z</time>
      </trkpt>
      <trkpt lat="45.6912" lon="2.99951">
        <ele>895.5</ele>
        <time>2021-08-26T15:40:47Z</time>
      </trkpt>
      <trkpt lat="45.69125" lon="2.99943">
        <ele>895.3</ele>
        <time>2021-08-26T15:40:49Z</time>
      </trkpt>
      <trkpt lat="45.6913" lon="2.99935">
        <ele>895.2</ele>
        <time>2021-08-26T15:40:51Z</time>
      </trkpt>
      <trkpt lat="45.69136" lon="2.99927">
        <ele>895.1</ele>
        <time>2021-08-26T15:40:53Z</time>
      </trkpt>
      <trkpt lat="45.6914" lon="2.99919">
        <ele>894.9</ele>
        <time>2021-08-26T15:40:55Z</time>
      </trkpt>
      <trkpt lat="45.69145" lon="2.99911">
        <ele>894.8</ele>
        <time>2021-08-26T15:40:57Z</time>
      </trkpt>
      <trkpt lat="45.6915" lon="2.99904">
        <ele>895</ele>
        <time>2021-08-26T15:40:59Z</time>
      </trkpt>
      <trkpt lat="45.69155" lon="2.99896">
        <ele>895.1</ele>
        <time>2021-08-26T15:41:01Z</time>
      </trkpt>
      <trkpt lat="45.69159" lon="2.99889">
        <ele>895.1</ele>
        <time>2021-08-26T15:41:03Z</time>
      </trkpt>
      <trkpt lat="45.69164" lon="2.99882">
        <ele>895.3</ele>
        <time>2021-08-26T15:41:05Z</time>
      </trkpt>
      <trkpt lat="45.69168" lon="2.99875">
        <ele>895.4</ele>
        <time>2021-08-26T15:41:07Z</time>
      </trkpt>
      <trkpt lat="45.69173" lon="2.99868">
        <ele>895.9</ele>
        <time>2021-08-26T15:41:09Z</time>
      </trkpt>
      <trkpt lat="45.69177" lon="2.99862">
        <ele>896.3</ele>
        <time>2021-08-26T15:41:11Z</time>
      </trkpt>
      <trkpt lat="45.69181" lon="2.99856">
        <ele>896.5</ele>
        <time>2021-08-26T15:41:13Z</time>
      </trkpt>
      <trkpt lat="45.69184" lon="2.99851">
        <ele>896.9</ele>
        <time>2021-08-26T15:41:15Z</time>
      </trkpt>
      <trkpt lat="45.69187" lon="2.99846">
        <ele>897.2</ele>
        <time>2021-08-26T15:41:17Z</time>
      </trkpt>
      <trkpt lat="45.69191" lon="2.9984">
        <ele>897.4</ele>
        <time>2021-08-26T15:41:19Z</time>
      </trkpt>
      <trkpt lat="45.69194" lon="2.99836">
        <ele>897.8</ele>
        <time>2021-08-26T15:41:21Z</time>
      </trkpt>
      <trkpt lat="45.69197" lon="2.99831">
        <ele>898.1</ele>
        <time>2021-08-26T15:41:23Z</time>
      </trkpt>
      <trkpt lat="45.69201" lon="2.99827">
        <ele>898.5</ele>
        <time>2021-08-26T15:41:25Z</time>
      </trkpt>
      <trkpt lat="45.69204" lon="2.99822">
        <ele>898.8</ele>
        <time>2021-08-26T15:41:27Z</time>
      </trkpt>
      <trkpt lat="45.69206" lon="2.99817">
        <ele>899</ele>
        <time>2021-08-26T15:41:29Z</time>
      </trkpt>
      <trkpt lat="45.6921" lon="2.99812">
        <ele>899.3</ele>
        <time>2021-08-26T15:41:31Z</time>
      </trkpt>
      <trkpt lat="45.69213" lon="2.99808">
        <ele>899.6</ele>
        <time>2021-08-26T15:41:33Z</time>
      </trkpt>
      <trkpt lat="45.69217" lon="2.99804">
        <ele>900.1</ele>
        <time>2021-08-26T15:41:35Z</time>
      </trkpt>
      <trkpt lat="45.6922" lon="2.99799">
        <ele>900.3</ele>
        <time>2021-08-26T15:41:37Z</time>
      </trkpt>
      <trkpt lat="45.69224" lon="2.99795">
        <ele>900.6</ele>
        <time>2021-08-26T15:41:39Z</time>
      </trkpt>
      <trkpt lat="45.69227" lon="2.9979">
        <ele>900.9</ele>
        <time>2021-08-26T15:41:41Z</time>
      </trkpt>
      <trkpt lat="45.69231" lon="2.99786">
        <ele>901.3</ele>
        <time>2021-08-26T15:41:43Z</time>
      </trkpt>
      <trkpt lat="45.69234" lon="2.99782">
        <ele>901.5</ele>
        <time>2021-08-26T15:41:45Z</time>
      </trkpt>
      <trkpt lat="45.69238" lon="2.99778">
        <ele>901.8</ele>
        <time>2021-08-26T15:41:47Z</time>
      </trkpt>
      <trkpt lat="45.69241" lon="2.99773">
        <ele>901.9</ele>
        <time>2021-08-26T15:41:49Z</time>
      </trkpt>
      <trkpt lat="45.69247" lon="2.99767">
        <ele>902.4</ele>
        <time>2021-08-26T15:41:51Z</time>
      </trkpt>
      <trkpt lat="45.69252" lon="2.99763">
        <ele>902.8</ele>
        <time>2021-08-26T15:41:53Z</time>
      </trkpt>
      <trkpt lat="45.69257" lon="2.99759">
        <ele>903.3</ele>
        <time>2021-08-26T15:41:55Z</time>
      </trkpt>
      <trkpt lat="45.69261" lon="2.99754">
        <ele>903.5</ele>
        <time>2021-08-26T15:41:57Z</time>
      </trkpt>
      <trkpt lat="45.69265" lon="2.99751">
        <ele>903.9</ele>
        <time>2021-08-26T15:41:59Z</time>
      </trkpt>
      <trkpt lat="45.69269" lon="2.99747">
        <ele>904.2</ele>
        <time>2021-08-26T15:42:01Z</time>
      </trkpt>
      <trkpt lat="45.69274" lon="2.99744">
        <ele>904.7</ele>
        <time>2021-08-26T15:42:03Z</time>
      </trkpt>
      <trkpt lat="45.69278" lon="2.99741">
        <ele>905.1</ele>
        <time>2021-08-26T15:42:05Z</time>
      </trkpt>
      <trkpt lat="45.69283" lon="2.99738">
        <ele>905.7</ele>
        <time>2021-08-26T15:42:07Z</time>
      </trkpt>
      <trkpt lat="45.69287" lon="2.99735">
        <ele>906.1</ele>
        <time>2021-08-26T15:42:09Z</time>
      </trkpt>
      <trkpt lat="45.69292" lon="2.99733">
        <ele>906.7</ele>
        <time>2021-08-26T15:42:11Z</time>
      </trkpt>
      <trkpt lat="45.69296" lon="2.9973">
        <ele>907.2</ele>
        <time>2021-08-26T15:42:13Z</time>
      </trkpt>
      <trkpt lat="45.69301" lon="2.99728">
        <ele>907.8</ele>
        <time>2021-08-26T15:42:15Z</time>
      </trkpt>
      <trkpt lat="45.69305" lon="2.99726">
        <ele>908.3</ele>
        <time>2021-08-26T15:42:17Z</time>
      </trkpt>
      <trkpt lat="45.6931" lon="2.99725">
        <ele>909</ele>
        <time>2021-08-26T15:42:19Z</time>
      </trkpt>
      <trkpt lat="45.69315" lon="2.99723">
        <ele>909.6</ele>
        <time>2021-08-26T15:42:21Z</time>
      </trkpt>
      <trkpt lat="45.69319" lon="2.99721">
        <ele>910.1</ele>
        <time>2021-08-26T15:42:23Z</time>
      </trkpt>
      <trkpt lat="45.69323" lon="2.9972">
        <ele>910.6</ele>
        <time>2021-08-26T15:42:25Z</time>
      </trkpt>
      <trkpt lat="45.69327" lon="2.99719">
        <ele>911.2</ele>
        <time>2021-08-26T15:42:27Z</time>
      </trkpt>
      <trkpt lat="45.69331" lon="2.99718">
        <ele>911.7</ele>
        <time>2021-08-26T15:42:29Z</time>
      </trkpt>
      <trkpt lat="45.69335" lon="2.99717">
        <ele>912.1</ele>
        <time>2021-08-26T15:42:31Z</time>
      </trkpt>
      <trkpt lat="45.69338" lon="2.99717">
        <ele>912.1</ele>
        <time>2021-08-26T15:42:33Z</time>
      </trkpt>
      <trkpt lat="45.6934" lon="2.9972">
        <ele>912.5</ele>
        <time>2021-08-26T15:42:35Z</time>
      </trkpt>
      <trkpt lat="45.69341" lon="2.99721">
        <ele>912.7</ele>
        <time>2021-08-26T15:42:37Z</time>
      </trkpt>
      <trkpt lat="45.69342" lon="2.99721">
        <ele>912.7</ele>
        <time>2021-08-26T15:42:39Z</time>
      </trkpt>
      <trkpt lat="45.69342" lon="2.99721">
        <ele>912.7</ele>
        <time>2021-08-26T15:42:41Z</time>
      </trkpt>
      <trkpt lat="45.69342" lon="2.99721">
        <ele>912.7</ele>
        <time>2021-08-26T15:42:43Z</time>
      </trkpt>
      <trkpt lat="45.69342" lon="2.99721">
        <ele>912.7</ele>
        <time>2021-08-26T15:42:45Z</time>
      </trkpt>
      <trkpt lat="45.69343" lon="2.99719">
        <ele>912.4</ele>
        <time>2021-08-26T15:43:21Z</time>
      </trkpt>
      <trkpt lat="45.69343" lon="2.99719">
        <ele>912.4</ele>
        <time>2021-08-26T15:43:23Z</time>
      </trkpt>
      <trkpt lat="45.69343" lon="2.99719">
        <ele>912.4</ele>
        <time>2021-08-26T15:43:25Z</time>
      </trkpt>
      <trkpt lat="45.69343" lon="2.99719">
        <ele>912.4</ele>
        <time>2021-08-26T15:43:27Z</time>
      </trkpt>
      <trkpt lat="45.69343" lon="2.99719">
        <ele>912.5</ele>
        <time>2021-08-26T15:43:29Z</time>
      </trkpt>
      <trkpt lat="45.69344" lon="2.99719">
        <ele>912.5</ele>
        <time>2021-08-26T15:43:31Z</time>
      </trkpt>
      <trkpt lat="45.69346" lon="2.99716">
        <ele>912.2</ele>
        <time>2021-08-26T15:43:33Z</time>
      </trkpt>
      <trkpt lat="45.69348" lon="2.99717">
        <ele>912.4</ele>
        <time>2021-08-26T15:43:35Z</time>
      </trkpt>
      <trkpt lat="45.69351" lon="2.99717">
        <ele>912.4</ele>
        <time>2021-08-26T15:43:37Z</time>
      </trkpt>
      <trkpt lat="45.69353" lon="2.99715">
        <ele>912.2</ele>
        <time>2021-08-26T15:43:39Z</time>
      </trkpt>
      <trkpt lat="45.69355" lon="2.99714">
        <ele>912.2</ele>
        <time>2021-08-26T15:43:41Z</time>
      </trkpt>
      <trkpt lat="45.69355" lon="2.99714">
        <ele>912.2</ele>
        <time>2021-08-26T15:43:43Z</time>
      </trkpt>
      <trkpt lat="45.69355" lon="2.99715">
        <ele>912.2</ele>
        <time>2021-08-26T15:43:45Z</time>
      </trkpt>
      <trkpt lat="45.69355" lon="2.99714">
        <ele>912.2</ele>
        <time>2021-08-26T15:43:47Z</time>
      </trkpt>
      <trkpt lat="45.69355" lon="2.99714">
        <ele>912.2</ele>
        <time>2021-08-26T15:43:49Z</time>
      </trkpt>
      <trkpt lat="45.69371" lon="2.99714">
        <ele>912.5</ele>
        <time>2021-08-26T15:45:19Z</time>
      </trkpt>
      <trkpt lat="45.69377" lon="2.99714">
        <ele>912.6</ele>
        <time>2021-08-26T15:45:21Z</time>
      </trkpt>
      <trkpt lat="45.69383" lon="2.99716">
        <ele>912.9</ele>
        <time>2021-08-26T15:45:23Z</time>
      </trkpt>
      <trkpt lat="45.6939" lon="2.99717">
        <ele>913.1</ele>
        <time>2021-08-26T15:45:25Z</time>
      </trkpt>
      <trkpt lat="45.69396" lon="2.99716">
        <ele>913.1</ele>
        <time>2021-08-26T15:45:27Z</time>
      </trkpt>
      <trkpt lat="45.69403" lon="2.9971">
        <ele>912.8</ele>
        <time>2021-08-26T15:45:29Z</time>
      </trkpt>
      <trkpt lat="45.69407" lon="2.99698">
        <ele>912</ele>
        <time>2021-08-26T15:45:31Z</time>
      </trkpt>
      <trkpt lat="45.69411" lon="2.99685">
        <ele>911.1</ele>
        <time>2021-08-26T15:45:33Z</time>
      </trkpt>
      <trkpt lat="45.69418" lon="2.99672">
        <ele>910.4</ele>
        <time>2021-08-26T15:45:35Z</time>
      </trkpt>
      <trkpt lat="45.69426" lon="2.99661">
        <ele>910</ele>
        <time>2021-08-26T15:45:37Z</time>
      </trkpt>
      <trkpt lat="45.69437" lon="2.99647">
        <ele>909.9</ele>
        <time>2021-08-26T15:45:39Z</time>
      </trkpt>
      <trkpt lat="45.69447" lon="2.99634">
        <ele>909.6</ele>
        <time>2021-08-26T15:45:41Z</time>
      </trkpt>
      <trkpt lat="45.69459" lon="2.99622">
        <ele>909</ele>
        <time>2021-08-26T15:45:43Z</time>
      </trkpt>
      <trkpt lat="45.69473" lon="2.99618">
        <ele>908.1</ele>
        <time>2021-08-26T15:45:45Z</time>
      </trkpt>
      <trkpt lat="45.69486" lon="2.9962">
        <ele>907.5</ele>
        <time>2021-08-26T15:45:47Z</time>
      </trkpt>
      <trkpt lat="45.69498" lon="2.99629">
        <ele>907.3</ele>
        <time>2021-08-26T15:45:49Z</time>
      </trkpt>
      <trkpt lat="45.69507" lon="2.9964">
        <ele>906.1</ele>
        <time>2021-08-26T15:45:51Z</time>
      </trkpt>
      <trkpt lat="45.69512" lon="2.99653">
        <ele>905.6</ele>
        <time>2021-08-26T15:45:53Z</time>
      </trkpt>
      <trkpt lat="45.69515" lon="2.99663">
        <ele>905.5</ele>
        <time>2021-08-26T15:45:55Z</time>
      </trkpt>
      <trkpt lat="45.69516" lon="2.99673">
        <ele>905.4</ele>
        <time>2021-08-26T15:45:57Z</time>
      </trkpt>
      <trkpt lat="45.69515" lon="2.9968">
        <ele>905.6</ele>
        <time>2021-08-26T15:45:59Z</time>
      </trkpt>
      <trkpt lat="45.69514" lon="2.99679">
        <ele>905.7</ele>
        <time>2021-08-26T15:46:01Z</time>
      </trkpt>
      <trkpt lat="45.69515" lon="2.99679">
        <ele>905.7</ele>
        <time>2021-08-26T15:46:03Z</time>
      </trkpt>
      <trkpt lat="45.69515" lon="2.99679">
        <ele>905.6</ele>
        <time>2021-08-26T15:46:05Z</time>
      </trkpt>
      <trkpt lat="45.69515" lon="2.99679">
        <ele>905.6</ele>
        <time>2021-08-26T15:46:07Z</time>
      </trkpt>
      <trkpt lat="45.69515" lon="2.99679">
        <ele>905.6</ele>
        <time>2021-08-26T15:46:09Z</time>
      </trkpt>
      <trkpt lat="45.69509" lon="2.99664">
        <ele>906.8</ele>
        <time>2021-08-26T15:46:43Z</time>
      </trkpt>
      <trkpt lat="45.69508" lon="2.9966">
        <ele>906.9</ele>
        <time>2021-08-26T15:46:45Z</time>
      </trkpt>
      <trkpt lat="45.69506" lon="2.99656">
        <ele>907.1</ele>
        <time>2021-08-26T15:46:47Z</time>
      </trkpt>
      <trkpt lat="45.69504" lon="2.99652">
        <ele>907.3</ele>
        <time>2021-08-26T15:46:49Z</time>
      </trkpt>
      <trkpt lat="45.69501" lon="2.99645">
        <ele>907.7</ele>
        <time>2021-08-26T15:46:51Z</time>
      </trkpt>
      <trkpt lat="45.69499" lon="2.99641">
        <ele>907.8</ele>
        <time>2021-08-26T15:46:53Z</time>
      </trkpt>
      <trkpt lat="45.69496" lon="2.99637">
        <ele>907.7</ele>
        <time>2021-08-26T15:46:55Z</time>
      </trkpt>
      <trkpt lat="45.69494" lon="2.99633">
        <ele>907.6</ele>
        <time>2021-08-26T15:46:57Z</time>
      </trkpt>
      <trkpt lat="45.69492" lon="2.9963">
        <ele>907.6</ele>
        <time>2021-08-26T15:46:59Z</time>
      </trkpt>
      <trkpt lat="45.69491" lon="2.99626">
        <ele>907.5</ele>
        <time>2021-08-26T15:47:01Z</time>
      </trkpt>
      <trkpt lat="45.69491" lon="2.99625">
        <ele>907.4</ele>
        <time>2021-08-26T15:47:03Z</time>
      </trkpt>
      <trkpt lat="45.69491" lon="2.99625">
        <ele>907.4</ele>
        <time>2021-08-26T15:47:05Z</time>
      </trkpt>
      <trkpt lat="45.69491" lon="2.99625">
        <ele>907.4</ele>
        <time>2021-08-26T15:47:07Z</time>
      </trkpt>
      <trkpt lat="45.69491" lon="2.99625">
        <ele>907.4</ele>
        <time>2021-08-26T15:47:09Z</time>
      </trkpt>
      <trkpt lat="45.69491" lon="2.99624">
        <ele>907.4</ele>
        <time>2021-08-26T15:47:11Z</time>
      </trkpt>
      <trkpt lat="45.69488" lon="2.99607">
        <ele>906.9</ele>
        <time>2021-08-26T15:47:19Z</time>
      </trkpt>
      <trkpt lat="45.69486" lon="2.99599">
        <ele>906.7</ele>
        <time>2021-08-26T15:47:21Z</time>
      </trkpt>
      <trkpt lat="45.69489" lon="2.99592">
        <ele>906.3</ele>
        <time>2021-08-26T15:47:23Z</time>
      </trkpt>
      <trkpt lat="45.69494" lon="2.99593">
        <ele>905.9</ele>
        <time>2021-08-26T15:47:25Z</time>
      </trkpt>
      <trkpt lat="45.69499" lon="2.99596">
        <ele>905.7</ele>
        <time>2021-08-26T15:47:27Z</time>
      </trkpt>
      <trkpt lat="45.69503" lon="2.99599">
        <ele>905.1</ele>
        <time>2021-08-26T15:47:29Z</time>
      </trkpt>
      <trkpt lat="45.69509" lon="2.99604">
        <ele>904</ele>
        <time>2021-08-26T15:47:31Z</time>
      </trkpt>
      <trkpt lat="45.69515" lon="2.9961">
        <ele>902.8</ele>
        <time>2021-08-26T15:47:33Z</time>
      </trkpt>
      <trkpt lat="45.69523" lon="2.99619">
        <ele>901.5</ele>
        <time>2021-08-26T15:47:35Z</time>
      </trkpt>
      <trkpt lat="45.69527" lon="2.99626">
        <ele>900.9</ele>
        <time>2021-08-26T15:47:37Z</time>
      </trkpt>
      <trkpt lat="45.69529" lon="2.99634">
        <ele>900.8</ele>
        <time>2021-08-26T15:47:39Z</time>
      </trkpt>
      <trkpt lat="45.69532" lon="2.9964">
        <ele>900.5</ele>
        <time>2021-08-26T15:47:41Z</time>
      </trkpt>
      <trkpt lat="45.69535" lon="2.99648">
        <ele>900.2</ele>
        <time>2021-08-26T15:47:43Z</time>
      </trkpt>
      <trkpt lat="45.69538" lon="2.99658">
        <ele>900</ele>
        <time>2021-08-26T15:47:45Z</time>
      </trkpt>
      <trkpt lat="45.69539" lon="2.99669">
        <ele>900.1</ele>
        <time>2021-08-26T15:47:47Z</time>
      </trkpt>
      <trkpt lat="45.6954" lon="2.99681">
        <ele>899.9</ele>
        <time>2021-08-26T15:47:49Z</time>
      </trkpt>
      <trkpt lat="45.6954" lon="2.99694">
        <ele>899.8</ele>
        <time>2021-08-26T15:47:51Z</time>
      </trkpt>
      <trkpt lat="45.69539" lon="2.99707">
        <ele>900</ele>
        <time>2021-08-26T15:47:53Z</time>
      </trkpt>
      <trkpt lat="45.69535" lon="2.99719">
        <ele>900.6</ele>
        <time>2021-08-26T15:47:55Z</time>
      </trkpt>
      <trkpt lat="45.69533" lon="2.9973">
        <ele>901.2</ele>
        <time>2021-08-26T15:47:57Z</time>
      </trkpt>
      <trkpt lat="45.69531" lon="2.99743">
        <ele>901.5</ele>
        <time>2021-08-26T15:47:59Z</time>
      </trkpt>
      <trkpt lat="45.69533" lon="2.99757">
        <ele>901.6</ele>
        <time>2021-08-26T15:48:01Z</time>
      </trkpt>
      <trkpt lat="45.69538" lon="2.99771">
        <ele>901.4</ele>
        <time>2021-08-26T15:48:03Z</time>
      </trkpt>
      <trkpt lat="45.69546" lon="2.99784">
        <ele>900.5</ele>
        <time>2021-08-26T15:48:05Z</time>
      </trkpt>
      <trkpt lat="45.69555" lon="2.99797">
        <ele>899.5</ele>
        <time>2021-08-26T15:48:07Z</time>
      </trkpt>
      <trkpt lat="45.69563" lon="2.99809">
        <ele>898.5</ele>
        <time>2021-08-26T15:48:09Z</time>
      </trkpt>
      <trkpt lat="45.69572" lon="2.99821">
        <ele>897.5</ele>
        <time>2021-08-26T15:48:11Z</time>
      </trkpt>
      <trkpt lat="45.69582" lon="2.99832">
        <ele>896.3</ele>
        <time>2021-08-26T15:48:13Z</time>
      </trkpt>
      <trkpt lat="45.6959" lon="2.99846">
        <ele>896.4</ele>
        <time>2021-08-26T15:48:15Z</time>
      </trkpt>
      <trkpt lat="45.69598" lon="2.99858">
        <ele>896.3</ele>
        <time>2021-08-26T15:48:17Z</time>
      </trkpt>
      <trkpt lat="45.69605" lon="2.99867">
        <ele>896.2</ele>
        <time>2021-08-26T15:48:19Z</time>
      </trkpt>
      <trkpt lat="45.69612" lon="2.99878">
        <ele>896.3</ele>
        <time>2021-08-26T15:48:21Z</time>
      </trkpt>
      <trkpt lat="45.69621" lon="2.9989">
        <ele>896.3</ele>
        <time>2021-08-26T15:48:23Z</time>
      </trkpt>
      <trkpt lat="45.6963" lon="2.99902">
        <ele>896</ele>
        <time>2021-08-26T15:48:25Z</time>
      </trkpt>
      <trkpt lat="45.6964" lon="2.99914">
        <ele>895.8</ele>
        <time>2021-08-26T15:48:27Z</time>
      </trkpt>
      <trkpt lat="45.6965" lon="2.99925">
        <ele>894.9</ele>
        <time>2021-08-26T15:48:29Z</time>
      </trkpt>
      <trkpt lat="45.69662" lon="2.99937">
        <ele>893.8</ele>
        <time>2021-08-26T15:48:31Z</time>
      </trkpt>
      <trkpt lat="45.69674" lon="2.99948">
        <ele>892.3</ele>
        <time>2021-08-26T15:48:33Z</time>
      </trkpt>
      <trkpt lat="45.69685" lon="2.9996">
        <ele>890.8</ele>
        <time>2021-08-26T15:48:35Z</time>
      </trkpt>
      <trkpt lat="45.69696" lon="2.99968">
        <ele>889.3</ele>
        <time>2021-08-26T15:48:37Z</time>
      </trkpt>
      <trkpt lat="45.69703" lon="2.99972">
        <ele>888.1</ele>
        <time>2021-08-26T15:48:39Z</time>
      </trkpt>
      <trkpt lat="45.69708" lon="2.99974">
        <ele>887.3</ele>
        <time>2021-08-26T15:48:41Z</time>
      </trkpt>
      <trkpt lat="45.69714" lon="2.99978">
        <ele>886.4</ele>
        <time>2021-08-26T15:48:43Z</time>
      </trkpt>
      <trkpt lat="45.69718" lon="2.99982">
        <ele>885.7</ele>
        <time>2021-08-26T15:48:45Z</time>
      </trkpt>
      <trkpt lat="45.69724" lon="2.99988">
        <ele>884.7</ele>
        <time>2021-08-26T15:48:47Z</time>
      </trkpt>
      <trkpt lat="45.69732" lon="2.99995">
        <ele>883.3</ele>
        <time>2021-08-26T15:48:49Z</time>
      </trkpt>
      <trkpt lat="45.6974" lon="3.00003">
        <ele>882.1</ele>
        <time>2021-08-26T15:48:51Z</time>
      </trkpt>
      <trkpt lat="45.69745" lon="3.00009">
        <ele>881.7</ele>
        <time>2021-08-26T15:48:53Z</time>
      </trkpt>
      <trkpt lat="45.6975" lon="3.00017">
        <ele>881.2</ele>
        <time>2021-08-26T15:48:55Z</time>
      </trkpt>
      <trkpt lat="45.69758" lon="3.00024">
        <ele>880.6</ele>
        <time>2021-08-26T15:48:57Z</time>
      </trkpt>
      <trkpt lat="45.69767" lon="3.00033">
        <ele>880.1</ele>
        <time>2021-08-26T15:48:59Z</time>
      </trkpt>
      <trkpt lat="45.69776" lon="3.00041">
        <ele>879.4</ele>
        <time>2021-08-26T15:49:01Z</time>
      </trkpt>
      <trkpt lat="45.69784" lon="3.00051">
        <ele>878.9</ele>
        <time>2021-08-26T15:49:03Z</time>
      </trkpt>
      <trkpt lat="45.69793" lon="3.0006">
        <ele>878.3</ele>
        <time>2021-08-26T15:49:05Z</time>
      </trkpt>
      <trkpt lat="45.698" lon="3.00069">
        <ele>877.9</ele>
        <time>2021-08-26T15:49:07Z</time>
      </trkpt>
      <trkpt lat="45.69806" lon="3.00076">
        <ele>877.4</ele>
        <time>2021-08-26T15:49:09Z</time>
      </trkpt>
      <trkpt lat="45.69812" lon="3.00081">
        <ele>876.9</ele>
        <time>2021-08-26T15:49:11Z</time>
      </trkpt>
      <trkpt lat="45.69818" lon="3.00086">
        <ele>876.5</ele>
        <time>2021-08-26T15:49:13Z</time>
      </trkpt>
      <trkpt lat="45.69821" lon="3.00089">
        <ele>876.2</ele>
        <time>2021-08-26T15:49:15Z</time>
      </trkpt>
      <trkpt lat="45.69825" lon="3.00092">
        <ele>876</ele>
        <time>2021-08-26T15:49:17Z</time>
      </trkpt>
      <trkpt lat="45.69827" lon="3.00093">
        <ele>875.7</ele>
        <time>2021-08-26T15:49:19Z</time>
      </trkpt>
      <trkpt lat="45.69831" lon="3.00095">
        <ele>875.3</ele>
        <time>2021-08-26T15:49:21Z</time>
      </trkpt>
      <trkpt lat="45.69837" lon="3.00099">
        <ele>874.9</ele>
        <time>2021-08-26T15:49:23Z</time>
      </trkpt>
      <trkpt lat="45.69841" lon="3.00102">
        <ele>874.8</ele>
        <time>2021-08-26T15:49:25Z</time>
      </trkpt>
      <trkpt lat="45.69845" lon="3.00105">
        <ele>874.6</ele>
        <time>2021-08-26T15:49:27Z</time>
      </trkpt>
      <trkpt lat="45.69847" lon="3.00108">
        <ele>874.5</ele>
        <time>2021-08-26T15:49:29Z</time>
      </trkpt>
      <trkpt lat="45.6985" lon="3.00109">
        <ele>874.3</ele>
        <time>2021-08-26T15:49:31Z</time>
      </trkpt>
      <trkpt lat="45.69853" lon="3.00111">
        <ele>874.1</ele>
        <time>2021-08-26T15:49:33Z</time>
      </trkpt>
      <trkpt lat="45.69857" lon="3.00115">
        <ele>873.9</ele>
        <time>2021-08-26T15:49:35Z</time>
      </trkpt>
      <trkpt lat="45.69862" lon="3.00118">
        <ele>873.5</ele>
        <time>2021-08-26T15:49:37Z</time>
      </trkpt>
      <trkpt lat="45.69867" lon="3.00119">
        <ele>872.9</ele>
        <time>2021-08-26T15:49:39Z</time>
      </trkpt>
      <trkpt lat="45.6987" lon="3.00118">
        <ele>872.5</ele>
        <time>2021-08-26T15:49:41Z</time>
      </trkpt>
      <trkpt lat="45.69875" lon="3.00117">
        <ele>871.9</ele>
        <time>2021-08-26T15:49:43Z</time>
      </trkpt>
      <trkpt lat="45.69881" lon="3.00117">
        <ele>871.2</ele>
        <time>2021-08-26T15:49:45Z</time>
      </trkpt>
      <trkpt lat="45.69888" lon="3.00116">
        <ele>870.4</ele>
        <time>2021-08-26T15:49:47Z</time>
      </trkpt>
      <trkpt lat="45.69893" lon="3.00117">
        <ele>869.8</ele>
        <time>2021-08-26T15:49:49Z</time>
      </trkpt>
      <trkpt lat="45.69902" lon="3.00119">
        <ele>868.8</ele>
        <time>2021-08-26T15:49:51Z</time>
      </trkpt>
      <trkpt lat="45.69908" lon="3.00123">
        <ele>868</ele>
        <time>2021-08-26T15:49:53Z</time>
      </trkpt>
      <trkpt lat="45.69915" lon="3.00128">
        <ele>867.2</ele>
        <time>2021-08-26T15:49:55Z</time>
      </trkpt>
      <trkpt lat="45.6992" lon="3.0013">
        <ele>866.7</ele>
        <time>2021-08-26T15:49:57Z</time>
      </trkpt>
      <trkpt lat="45.69927" lon="3.00135">
        <ele>865.8</ele>
        <time>2021-08-26T15:49:59Z</time>
      </trkpt>
      <trkpt lat="45.69935" lon="3.00135">
        <ele>865</ele>
        <time>2021-08-26T15:50:01Z</time>
      </trkpt>
      <trkpt lat="45.6994" lon="3.00134">
        <ele>864.3</ele>
        <time>2021-08-26T15:50:03Z</time>
      </trkpt>
      <trkpt lat="45.69946" lon="3.00133">
        <ele>863.7</ele>
        <time>2021-08-26T15:50:05Z</time>
      </trkpt>
      <trkpt lat="45.69949" lon="3.00133">
        <ele>863.3</ele>
        <time>2021-08-26T15:50:07Z</time>
      </trkpt>
      <trkpt lat="45.69952" lon="3.00133">
        <ele>863</ele>
        <time>2021-08-26T15:50:09Z</time>
      </trkpt>
      <trkpt lat="45.69955" lon="3.00132">
        <ele>862.7</ele>
        <time>2021-08-26T15:50:11Z</time>
      </trkpt>
      <trkpt lat="45.69956" lon="3.00132">
        <ele>862.6</ele>
        <time>2021-08-26T15:50:13Z</time>
      </trkpt>
      <trkpt lat="45.69955" lon="3.00132">
        <ele>862.7</ele>
        <time>2021-08-26T15:50:15Z</time>
      </trkpt>
      <trkpt lat="45.69955" lon="3.00132">
        <ele>862.7</ele>
        <time>2021-08-26T15:50:17Z</time>
      </trkpt>
      <trkpt lat="45.69955" lon="3.00132">
        <ele>862.7</ele>
        <time>2021-08-26T15:50:19Z</time>
      </trkpt>
      <trkpt lat="45.69956" lon="3.00132">
        <ele>862.6</ele>
        <time>2021-08-26T15:50:21Z</time>
      </trkpt>
      <trkpt lat="45.69967" lon="3.00114">
        <ele>861.9</ele>
        <time>2021-08-26T15:52:17Z</time>
      </trkpt>
      <trkpt lat="45.69973" lon="3.00105">
        <ele>861.6</ele>
        <time>2021-08-26T15:52:19Z</time>
      </trkpt>
      <trkpt lat="45.69979" lon="3.00093">
        <ele>861.4</ele>
        <time>2021-08-26T15:52:21Z</time>
      </trkpt>
      <trkpt lat="45.69985" lon="3.00079">
        <ele>861.4</ele>
        <time>2021-08-26T15:52:23Z</time>
      </trkpt>
      <trkpt lat="45.69993" lon="3.00065">
        <ele>861.5</ele>
        <time>2021-08-26T15:52:25Z</time>
      </trkpt>
      <trkpt lat="45.70004" lon="3.00055">
        <ele>861.3</ele>
        <time>2021-08-26T15:52:27Z</time>
      </trkpt>
      <trkpt lat="45.70017" lon="3.00055">
        <ele>861.2</ele>
        <time>2021-08-26T15:52:29Z</time>
      </trkpt>
      <trkpt lat="45.70029" lon="3.00064">
        <ele>860.5</ele>
        <time>2021-08-26T15:52:31Z</time>
      </trkpt>
      <trkpt lat="45.70038" lon="3.0008">
        <ele>859.3</ele>
        <time>2021-08-26T15:52:33Z</time>
      </trkpt>
      <trkpt lat="45.70044" lon="3.00099">
        <ele>857.6</ele>
        <time>2021-08-26T15:52:35Z</time>
      </trkpt>
      <trkpt lat="45.7005" lon="3.00118">
        <ele>855.6</ele>
        <time>2021-08-26T15:52:37Z</time>
      </trkpt>
      <trkpt lat="45.70058" lon="3.0013">
        <ele>854</ele>
        <time>2021-08-26T15:52:39Z</time>
      </trkpt>
      <trkpt lat="45.70063" lon="3.00137">
        <ele>853</ele>
        <time>2021-08-26T15:52:41Z</time>
      </trkpt>
      <trkpt lat="45.70069" lon="3.00143">
        <ele>851.9</ele>
        <time>2021-08-26T15:52:43Z</time>
      </trkpt>
      <trkpt lat="45.70078" lon="3.00151">
        <ele>850.4</ele>
        <time>2021-08-26T15:52:45Z</time>
      </trkpt>
      <trkpt lat="45.70088" lon="3.00159">
        <ele>848.8</ele>
        <time>2021-08-26T15:52:47Z</time>
      </trkpt>
      <trkpt lat="45.70097" lon="3.00172">
        <ele>847.3</ele>
        <time>2021-08-26T15:52:49Z</time>
      </trkpt>
      <trkpt lat="45.70106" lon="3.00184">
        <ele>846.5</ele>
        <time>2021-08-26T15:52:51Z</time>
      </trkpt>
      <trkpt lat="45.70117" lon="3.00197">
        <ele>845.8</ele>
        <time>2021-08-26T15:52:53Z</time>
      </trkpt>
      <trkpt lat="45.70127" lon="3.00208">
        <ele>845.2</ele>
        <time>2021-08-26T15:52:55Z</time>
      </trkpt>
      <trkpt lat="45.70138" lon="3.0022">
        <ele>844.7</ele>
        <time>2021-08-26T15:52:57Z</time>
      </trkpt>
      <trkpt lat="45.70149" lon="3.00232">
        <ele>844.4</ele>
        <time>2021-08-26T15:52:59Z</time>
      </trkpt>
      <trkpt lat="45.70159" lon="3.00242">
        <ele>844.1</ele>
        <time>2021-08-26T15:53:01Z</time>
      </trkpt>
      <trkpt lat="45.70171" lon="3.00249">
        <ele>844</ele>
        <time>2021-08-26T15:53:03Z</time>
      </trkpt>
      <trkpt lat="45.70182" lon="3.00256">
        <ele>843.7</ele>
        <time>2021-08-26T15:53:05Z</time>
      </trkpt>
      <trkpt lat="45.70194" lon="3.00261">
        <ele>843.4</ele>
        <time>2021-08-26T15:53:07Z</time>
      </trkpt>
      <trkpt lat="45.70205" lon="3.00267">
        <ele>843.1</ele>
        <time>2021-08-26T15:53:09Z</time>
      </trkpt>
      <trkpt lat="45.70217" lon="3.00272">
        <ele>842.9</ele>
        <time>2021-08-26T15:53:11Z</time>
      </trkpt>
      <trkpt lat="45.70229" lon="3.00276">
        <ele>842.6</ele>
        <time>2021-08-26T15:53:13Z</time>
      </trkpt>
      <trkpt lat="45.7024" lon="3.00279">
        <ele>842.4</ele>
        <time>2021-08-26T15:53:15Z</time>
      </trkpt>
      <trkpt lat="45.70251" lon="3.00283">
        <ele>842.2</ele>
        <time>2021-08-26T15:53:17Z</time>
      </trkpt>
      <trkpt lat="45.70264" lon="3.00281">
        <ele>842.4</ele>
        <time>2021-08-26T15:53:19Z</time>
      </trkpt>
      <trkpt lat="45.70276" lon="3.00278">
        <ele>842.6</ele>
        <time>2021-08-26T15:53:21Z</time>
      </trkpt>
      <trkpt lat="45.70287" lon="3.00276">
        <ele>842.8</ele>
        <time>2021-08-26T15:53:23Z</time>
      </trkpt>
      <trkpt lat="45.70299" lon="3.00275">
        <ele>843</ele>
        <time>2021-08-26T15:53:25Z</time>
      </trkpt>
      <trkpt lat="45.7031" lon="3.00278">
        <ele>843.1</ele>
        <time>2021-08-26T15:53:27Z</time>
      </trkpt>
      <trkpt lat="45.70319" lon="3.00286">
        <ele>843</ele>
        <time>2021-08-26T15:53:29Z</time>
      </trkpt>
      <trkpt lat="45.70325" lon="3.00298">
        <ele>842.7</ele>
        <time>2021-08-26T15:53:31Z</time>
      </trkpt>
      <trkpt lat="45.70331" lon="3.00313">
        <ele>842.5</ele>
        <time>2021-08-26T15:53:33Z</time>
      </trkpt>
      <trkpt lat="45.70337" lon="3.00328">
        <ele>842.1</ele>
        <time>2021-08-26T15:53:35Z</time>
      </trkpt>
      <trkpt lat="45.70345" lon="3.00344">
        <ele>841.4</ele>
        <time>2021-08-26T15:53:37Z</time>
      </trkpt>
      <trkpt lat="45.70354" lon="3.0036">
        <ele>840.5</ele>
        <time>2021-08-26T15:53:39Z</time>
      </trkpt>
      <trkpt lat="45.70362" lon="3.00376">
        <ele>839.6</ele>
        <time>2021-08-26T15:53:41Z</time>
      </trkpt>
      <trkpt lat="45.7037" lon="3.00393">
        <ele>838.7</ele>
        <time>2021-08-26T15:53:43Z</time>
      </trkpt>
      <trkpt lat="45.70378" lon="3.00412">
        <ele>837.8</ele>
        <time>2021-08-26T15:53:45Z</time>
      </trkpt>
      <trkpt lat="45.70385" lon="3.00431">
        <ele>837.2</ele>
        <time>2021-08-26T15:53:47Z</time>
      </trkpt>
      <trkpt lat="45.70391" lon="3.00449">
        <ele>836.8</ele>
        <time>2021-08-26T15:53:49Z</time>
      </trkpt>
      <trkpt lat="45.70398" lon="3.00468">
        <ele>836.2</ele>
        <time>2021-08-26T15:53:51Z</time>
      </trkpt>
      <trkpt lat="45.70403" lon="3.00487">
        <ele>835.6</ele>
        <time>2021-08-26T15:53:53Z</time>
      </trkpt>
      <trkpt lat="45.70409" lon="3.00505">
        <ele>835</ele>
        <time>2021-08-26T15:53:55Z</time>
      </trkpt>
      <trkpt lat="45.70415" lon="3.00522">
        <ele>834.7</ele>
        <time>2021-08-26T15:53:57Z</time>
      </trkpt>
      <trkpt lat="45.70421" lon="3.00538">
        <ele>834.5</ele>
        <time>2021-08-26T15:53:59Z</time>
      </trkpt>
      <trkpt lat="45.70427" lon="3.00555">
        <ele>834.3</ele>
        <time>2021-08-26T15:54:01Z</time>
      </trkpt>
      <trkpt lat="45.70433" lon="3.00571">
        <ele>834</ele>
        <time>2021-08-26T15:54:03Z</time>
      </trkpt>
      <trkpt lat="45.7044" lon="3.00586">
        <ele>833.7</ele>
        <time>2021-08-26T15:54:05Z</time>
      </trkpt>
      <trkpt lat="45.70446" lon="3.006">
        <ele>833.5</ele>
        <time>2021-08-26T15:54:07Z</time>
      </trkpt>
      <trkpt lat="45.70452" lon="3.00615">
        <ele>833.4</ele>
        <time>2021-08-26T15:54:09Z</time>
      </trkpt>
      <trkpt lat="45.70458" lon="3.00629">
        <ele>833.2</ele>
        <time>2021-08-26T15:54:11Z</time>
      </trkpt>
      <trkpt lat="45.70462" lon="3.00644">
        <ele>833.1</ele>
        <time>2021-08-26T15:54:13Z</time>
      </trkpt>
      <trkpt lat="45.70465" lon="3.00658">
        <ele>833</ele>
        <time>2021-08-26T15:54:15Z</time>
      </trkpt>
      <trkpt lat="45.70468" lon="3.00673">
        <ele>832.9</ele>
        <time>2021-08-26T15:54:17Z</time>
      </trkpt>
      <trkpt lat="45.7047" lon="3.00686">
        <ele>832.7</ele>
        <time>2021-08-26T15:54:19Z</time>
      </trkpt>
      <trkpt lat="45.70472" lon="3.00699">
        <ele>832.5</ele>
        <time>2021-08-26T15:54:21Z</time>
      </trkpt>
      <trkpt lat="45.70474" lon="3.00709">
        <ele>832.3</ele>
        <time>2021-08-26T15:54:23Z</time>
      </trkpt>
      <trkpt lat="45.70474" lon="3.00717">
        <ele>832.2</ele>
        <time>2021-08-26T15:54:25Z</time>
      </trkpt>
      <trkpt lat="45.70474" lon="3.00722">
        <ele>832.1</ele>
        <time>2021-08-26T15:54:27Z</time>
      </trkpt>
      <trkpt lat="45.70475" lon="3.00725">
        <ele>832.1</ele>
        <time>2021-08-26T15:54:29Z</time>
      </trkpt>
      <trkpt lat="45.70476" lon="3.00733">
        <ele>832</ele>
        <time>2021-08-26T15:54:31Z</time>
      </trkpt>
      <trkpt lat="45.70482" lon="3.00738">
        <ele>832</ele>
        <time>2021-08-26T15:54:33Z</time>
      </trkpt>
      <trkpt lat="45.70489" lon="3.00739">
        <ele>832</ele>
        <time>2021-08-26T15:54:35Z</time>
      </trkpt>
      <trkpt lat="45.70497" lon="3.00743">
        <ele>832</ele>
        <time>2021-08-26T15:54:37Z</time>
      </trkpt>
      <trkpt lat="45.70504" lon="3.00746">
        <ele>832</ele>
        <time>2021-08-26T15:54:39Z</time>
      </trkpt>
      <trkpt lat="45.70511" lon="3.0075">
        <ele>831.9</ele>
        <time>2021-08-26T15:54:41Z</time>
      </trkpt>
      <trkpt lat="45.70519" lon="3.00754">
        <ele>831.7</ele>
        <time>2021-08-26T15:54:43Z</time>
      </trkpt>
      <trkpt lat="45.70527" lon="3.00758">
        <ele>831.5</ele>
        <time>2021-08-26T15:54:45Z</time>
      </trkpt>
      <trkpt lat="45.70536" lon="3.00763">
        <ele>831.3</ele>
        <time>2021-08-26T15:54:47Z</time>
      </trkpt>
      <trkpt lat="45.70545" lon="3.00767">
        <ele>831.2</ele>
        <time>2021-08-26T15:54:49Z</time>
      </trkpt>
      <trkpt lat="45.70554" lon="3.00771">
        <ele>831</ele>
        <time>2021-08-26T15:54:51Z</time>
      </trkpt>
      <trkpt lat="45.70563" lon="3.00775">
        <ele>830.9</ele>
        <time>2021-08-26T15:54:53Z</time>
      </trkpt>
      <trkpt lat="45.70573" lon="3.0078">
        <ele>830.7</ele>
        <time>2021-08-26T15:54:55Z</time>
      </trkpt>
      <trkpt lat="45.70583" lon="3.00785">
        <ele>830.6</ele>
        <time>2021-08-26T15:54:57Z</time>
      </trkpt>
      <trkpt lat="45.70592" lon="3.0079">
        <ele>830.4</ele>
        <time>2021-08-26T15:54:59Z</time>
      </trkpt>
      <trkpt lat="45.70601" lon="3.00795">
        <ele>830.2</ele>
        <time>2021-08-26T15:55:01Z</time>
      </trkpt>
      <trkpt lat="45.70611" lon="3.00799">
        <ele>830.1</ele>
        <time>2021-08-26T15:55:03Z</time>
      </trkpt>
      <trkpt lat="45.70621" lon="3.00804">
        <ele>829.9</ele>
        <time>2021-08-26T15:55:05Z</time>
      </trkpt>
      <trkpt lat="45.7063" lon="3.00808">
        <ele>829.7</ele>
        <time>2021-08-26T15:55:07Z</time>
      </trkpt>
      <trkpt lat="45.7064" lon="3.00815">
        <ele>829.6</ele>
        <time>2021-08-26T15:55:09Z</time>
      </trkpt>
      <trkpt lat="45.70649" lon="3.00823">
        <ele>829.3</ele>
        <time>2021-08-26T15:55:11Z</time>
      </trkpt>
      <trkpt lat="45.70657" lon="3.00832">
        <ele>829.1</ele>
        <time>2021-08-26T15:55:13Z</time>
      </trkpt>
      <trkpt lat="45.70665" lon="3.00842">
        <ele>828.8</ele>
        <time>2021-08-26T15:55:15Z</time>
      </trkpt>
      <trkpt lat="45.70673" lon="3.00853">
        <ele>828.5</ele>
        <time>2021-08-26T15:55:17Z</time>
      </trkpt>
      <trkpt lat="45.70681" lon="3.00864">
        <ele>828.3</ele>
        <time>2021-08-26T15:55:19Z</time>
      </trkpt>
      <trkpt lat="45.70689" lon="3.00875">
        <ele>828.1</ele>
        <time>2021-08-26T15:55:21Z</time>
      </trkpt>
      <trkpt lat="45.70697" lon="3.00886">
        <ele>828</ele>
        <time>2021-08-26T15:55:23Z</time>
      </trkpt>
      <trkpt lat="45.70705" lon="3.00898">
        <ele>827.8</ele>
        <time>2021-08-26T15:55:25Z</time>
      </trkpt>
      <trkpt lat="45.70713" lon="3.00909">
        <ele>827.7</ele>
        <time>2021-08-26T15:55:27Z</time>
      </trkpt>
      <trkpt lat="45.70722" lon="3.00922">
        <ele>827.6</ele>
        <time>2021-08-26T15:55:29Z</time>
      </trkpt>
      <trkpt lat="45.7073" lon="3.00934">
        <ele>827.6</ele>
        <time>2021-08-26T15:55:31Z</time>
      </trkpt>
      <trkpt lat="45.70739" lon="3.00946">
        <ele>827.5</ele>
        <time>2021-08-26T15:55:33Z</time>
      </trkpt>
      <trkpt lat="45.70747" lon="3.00959">
        <ele>827.5</ele>
        <time>2021-08-26T15:55:35Z</time>
      </trkpt>
      <trkpt lat="45.70756" lon="3.00972">
        <ele>827.2</ele>
        <time>2021-08-26T15:55:37Z</time>
      </trkpt>
      <trkpt lat="45.70764" lon="3.00987">
        <ele>826.8</ele>
        <time>2021-08-26T15:55:39Z</time>
      </trkpt>
      <trkpt lat="45.70772" lon="3.01002">
        <ele>826.4</ele>
        <time>2021-08-26T15:55:41Z</time>
      </trkpt>
      <trkpt lat="45.7078" lon="3.01018">
        <ele>826.1</ele>
        <time>2021-08-26T15:55:43Z</time>
      </trkpt>
      <trkpt lat="45.70789" lon="3.01033">
        <ele>825.9</ele>
        <time>2021-08-26T15:55:45Z</time>
      </trkpt>
      <trkpt lat="45.70797" lon="3.01049">
        <ele>825.6</ele>
        <time>2021-08-26T15:55:47Z</time>
      </trkpt>
      <trkpt lat="45.70807" lon="3.01064">
        <ele>825.4</ele>
        <time>2021-08-26T15:55:49Z</time>
      </trkpt>
      <trkpt lat="45.70817" lon="3.01079">
        <ele>825.2</ele>
        <time>2021-08-26T15:55:51Z</time>
      </trkpt>
      <trkpt lat="45.70827" lon="3.01094">
        <ele>824.8</ele>
        <time>2021-08-26T15:55:53Z</time>
      </trkpt>
      <trkpt lat="45.70838" lon="3.01109">
        <ele>824.5</ele>
        <time>2021-08-26T15:55:55Z</time>
      </trkpt>
      <trkpt lat="45.70849" lon="3.01124">
        <ele>824.6</ele>
        <time>2021-08-26T15:55:57Z</time>
      </trkpt>
      <trkpt lat="45.7086" lon="3.01139">
        <ele>824.7</ele>
        <time>2021-08-26T15:55:59Z</time>
      </trkpt>
      <trkpt lat="45.70871" lon="3.01154">
        <ele>825</ele>
        <time>2021-08-26T15:56:01Z</time>
      </trkpt>
      <trkpt lat="45.70881" lon="3.01168">
        <ele>825.3</ele>
        <time>2021-08-26T15:56:03Z</time>
      </trkpt>
      <trkpt lat="45.70891" lon="3.01183">
        <ele>825.8</ele>
        <time>2021-08-26T15:56:05Z</time>
      </trkpt>
      <trkpt lat="45.70898" lon="3.01199">
        <ele>826.3</ele>
        <time>2021-08-26T15:56:07Z</time>
      </trkpt>
      <trkpt lat="45.70903" lon="3.01216">
        <ele>826.7</ele>
        <time>2021-08-26T15:56:09Z</time>
      </trkpt>
      <trkpt lat="45.70905" lon="3.01235">
        <ele>827</ele>
        <time>2021-08-26T15:56:11Z</time>
      </trkpt>
      <trkpt lat="45.70907" lon="3.01254">
        <ele>827.4</ele>
        <time>2021-08-26T15:56:13Z</time>
      </trkpt>
      <trkpt lat="45.70908" lon="3.01272">
        <ele>827.8</ele>
        <time>2021-08-26T15:56:15Z</time>
      </trkpt>
      <trkpt lat="45.70908" lon="3.01288">
        <ele>828</ele>
        <time>2021-08-26T15:56:17Z</time>
      </trkpt>
      <trkpt lat="45.70906" lon="3.013">
        <ele>828.1</ele>
        <time>2021-08-26T15:56:19Z</time>
      </trkpt>
      <trkpt lat="45.70902" lon="3.0131">
        <ele>827.9</ele>
        <time>2021-08-26T15:56:21Z</time>
      </trkpt>
      <trkpt lat="45.70898" lon="3.01317">
        <ele>827.5</ele>
        <time>2021-08-26T15:56:23Z</time>
      </trkpt>
      <trkpt lat="45.70896" lon="3.01326">
        <ele>827.4</ele>
        <time>2021-08-26T15:56:25Z</time>
      </trkpt>
      <trkpt lat="45.70899" lon="3.01338">
        <ele>827.6</ele>
        <time>2021-08-26T15:56:27Z</time>
      </trkpt>
      <trkpt lat="45.70904" lon="3.01348">
        <ele>827.9</ele>
        <time>2021-08-26T15:56:29Z</time>
      </trkpt>
      <trkpt lat="45.7091" lon="3.01359">
        <ele>828</ele>
        <time>2021-08-26T15:56:31Z</time>
      </trkpt>
      <trkpt lat="45.70915" lon="3.01369">
        <ele>828.1</ele>
        <time>2021-08-26T15:56:33Z</time>
      </trkpt>
      <trkpt lat="45.70919" lon="3.0138">
        <ele>828.1</ele>
        <time>2021-08-26T15:56:35Z</time>
      </trkpt>
      <trkpt lat="45.70924" lon="3.0139">
        <ele>828.3</ele>
        <time>2021-08-26T15:56:37Z</time>
      </trkpt>
      <trkpt lat="45.70928" lon="3.01399">
        <ele>828.5</ele>
        <time>2021-08-26T15:56:39Z</time>
      </trkpt>
      <trkpt lat="45.70933" lon="3.01407">
        <ele>828.7</ele>
        <time>2021-08-26T15:56:41Z</time>
      </trkpt>
      <trkpt lat="45.70936" lon="3.01416">
        <ele>828.8</ele>
        <time>2021-08-26T15:56:43Z</time>
      </trkpt>
      <trkpt lat="45.7094" lon="3.01424">
        <ele>828.9</ele>
        <time>2021-08-26T15:56:45Z</time>
      </trkpt>
      <trkpt lat="45.70944" lon="3.01432">
        <ele>829.1</ele>
        <time>2021-08-26T15:56:47Z</time>
      </trkpt>
      <trkpt lat="45.70947" lon="3.01439">
        <ele>829.2</ele>
        <time>2021-08-26T15:56:49Z</time>
      </trkpt>
      <trkpt lat="45.70951" lon="3.01446">
        <ele>829.4</ele>
        <time>2021-08-26T15:56:51Z</time>
      </trkpt>
      <trkpt lat="45.70954" lon="3.01454">
        <ele>829.5</ele>
        <time>2021-08-26T15:56:53Z</time>
      </trkpt>
      <trkpt lat="45.70957" lon="3.01462">
        <ele>829.6</ele>
        <time>2021-08-26T15:56:55Z</time>
      </trkpt>
      <trkpt lat="45.7096" lon="3.01469">
        <ele>829.8</ele>
        <time>2021-08-26T15:56:57Z</time>
      </trkpt>
      <trkpt lat="45.70964" lon="3.01477">
        <ele>830</ele>
        <time>2021-08-26T15:56:59Z</time>
      </trkpt>
      <trkpt lat="45.70967" lon="3.01483">
        <ele>830.2</ele>
        <time>2021-08-26T15:57:01Z</time>
      </trkpt>
      <trkpt lat="45.70971" lon="3.0149">
        <ele>830.6</ele>
        <time>2021-08-26T15:57:03Z</time>
      </trkpt>
      <trkpt lat="45.70974" lon="3.01496">
        <ele>830.8</ele>
        <time>2021-08-26T15:57:05Z</time>
      </trkpt>
      <trkpt lat="45.70978" lon="3.01502">
        <ele>831.2</ele>
        <time>2021-08-26T15:57:07Z</time>
      </trkpt>
      <trkpt lat="45.70981" lon="3.01507">
        <ele>831.5</ele>
        <time>2021-08-26T15:57:09Z</time>
      </trkpt>
      <trkpt lat="45.70985" lon="3.01513">
        <ele>831.9</ele>
        <time>2021-08-26T15:57:11Z</time>
      </trkpt>
      <trkpt lat="45.70989" lon="3.01518">
        <ele>832.3</ele>
        <time>2021-08-26T15:57:13Z</time>
      </trkpt>
      <trkpt lat="45.70994" lon="3.01523">
        <ele>832.7</ele>
        <time>2021-08-26T15:57:15Z</time>
      </trkpt>
      <trkpt lat="45.70998" lon="3.01527">
        <ele>833.1</ele>
        <time>2021-08-26T15:57:17Z</time>
      </trkpt>
      <trkpt lat="45.71002" lon="3.01532">
        <ele>833.3</ele>
        <time>2021-08-26T15:57:19Z</time>
      </trkpt>
      <trkpt lat="45.71007" lon="3.01536">
        <ele>833.6</ele>
        <time>2021-08-26T15:57:21Z</time>
      </trkpt>
      <trkpt lat="45.71012" lon="3.0154">
        <ele>833.8</ele>
        <time>2021-08-26T15:57:23Z</time>
      </trkpt>
      <trkpt lat="45.71016" lon="3.01544">
        <ele>834.1</ele>
        <time>2021-08-26T15:57:25Z</time>
      </trkpt>
      <trkpt lat="45.71021" lon="3.01548">
        <ele>834.4</ele>
        <time>2021-08-26T15:57:27Z</time>
      </trkpt>
      <trkpt lat="45.71025" lon="3.01551">
        <ele>834.7</ele>
        <time>2021-08-26T15:57:29Z</time>
      </trkpt>
      <trkpt lat="45.7103" lon="3.01554">
        <ele>835</ele>
        <time>2021-08-26T15:57:31Z</time>
      </trkpt>
      <trkpt lat="45.71035" lon="3.01557">
        <ele>835.3</ele>
        <time>2021-08-26T15:57:33Z</time>
      </trkpt>
      <trkpt lat="45.7104" lon="3.0156">
        <ele>835.7</ele>
        <time>2021-08-26T15:57:35Z</time>
      </trkpt>
      <trkpt lat="45.71044" lon="3.01564">
        <ele>835.9</ele>
        <time>2021-08-26T15:57:37Z</time>
      </trkpt>
      <trkpt lat="45.71049" lon="3.01567">
        <ele>836.3</ele>
        <time>2021-08-26T15:57:39Z</time>
      </trkpt>
      <trkpt lat="45.71053" lon="3.0157">
        <ele>836.5</ele>
        <time>2021-08-26T15:57:41Z</time>
      </trkpt>
      <trkpt lat="45.71058" lon="3.01573">
        <ele>836.9</ele>
        <time>2021-08-26T15:57:43Z</time>
      </trkpt>
      <trkpt lat="45.71061" lon="3.01575">
        <ele>837.1</ele>
        <time>2021-08-26T15:57:45Z</time>
      </trkpt>
      <trkpt lat="45.71065" lon="3.01578">
        <ele>837.4</ele>
        <time>2021-08-26T15:57:47Z</time>
      </trkpt>
      <trkpt lat="45.7107" lon="3.01581">
        <ele>837.7</ele>
        <time>2021-08-26T15:57:49Z</time>
      </trkpt>
      <trkpt lat="45.71074" lon="3.01583">
        <ele>838</ele>
        <time>2021-08-26T15:57:51Z</time>
      </trkpt>
      <trkpt lat="45.71078" lon="3.01586">
        <ele>838.3</ele>
        <time>2021-08-26T15:57:53Z</time>
      </trkpt>
      <trkpt lat="45.71082" lon="3.01588">
        <ele>838.7</ele>
        <time>2021-08-26T15:57:55Z</time>
      </trkpt>
      <trkpt lat="45.71086" lon="3.01592">
        <ele>839</ele>
        <time>2021-08-26T15:57:57Z</time>
      </trkpt>
      <trkpt lat="45.7109" lon="3.01594">
        <ele>839.2</ele>
        <time>2021-08-26T15:57:59Z</time>
      </trkpt>
      <trkpt lat="45.71094" lon="3.01598">
        <ele>839.5</ele>
        <time>2021-08-26T15:58:01Z</time>
      </trkpt>
      <trkpt lat="45.71099" lon="3.01601">
        <ele>839.7</ele>
        <time>2021-08-26T15:58:03Z</time>
      </trkpt>
      <trkpt lat="45.71103" lon="3.01604">
        <ele>840</ele>
        <time>2021-08-26T15:58:05Z</time>
      </trkpt>
      <trkpt lat="45.71108" lon="3.01607">
        <ele>840.3</ele>
        <time>2021-08-26T15:58:07Z</time>
      </trkpt>
      <trkpt lat="45.71112" lon="3.0161">
        <ele>840.6</ele>
        <time>2021-08-26T15:58:09Z</time>
      </trkpt>
      <trkpt lat="45.71117" lon="3.01613">
        <ele>840.8</ele>
        <time>2021-08-26T15:58:11Z</time>
      </trkpt>
      <trkpt lat="45.71122" lon="3.01616">
        <ele>841.2</ele>
        <time>2021-08-26T15:58:13Z</time>
      </trkpt>
      <trkpt lat="45.71126" lon="3.01619">
        <ele>841.4</ele>
        <time>2021-08-26T15:58:15Z</time>
      </trkpt>
      <trkpt lat="45.71131" lon="3.01622">
        <ele>841.8</ele>
        <time>2021-08-26T15:58:17Z</time>
      </trkpt>
      <trkpt lat="45.71135" lon="3.01625">
        <ele>842.1</ele>
        <time>2021-08-26T15:58:19Z</time>
      </trkpt>
      <trkpt lat="45.7114" lon="3.01628">
        <ele>842.4</ele>
        <time>2021-08-26T15:58:21Z</time>
      </trkpt>
      <trkpt lat="45.71144" lon="3.01631">
        <ele>842.6</ele>
        <time>2021-08-26T15:58:23Z</time>
      </trkpt>
      <trkpt lat="45.71148" lon="3.01635">
        <ele>842.9</ele>
        <time>2021-08-26T15:58:25Z</time>
      </trkpt>
      <trkpt lat="45.71152" lon="3.01637">
        <ele>843.2</ele>
        <time>2021-08-26T15:58:27Z</time>
      </trkpt>
      <trkpt lat="45.71157" lon="3.0164">
        <ele>843.5</ele>
        <time>2021-08-26T15:58:29Z</time>
      </trkpt>
      <trkpt lat="45.71161" lon="3.01644">
        <ele>843.8</ele>
        <time>2021-08-26T15:58:31Z</time>
      </trkpt>
      <trkpt lat="45.71165" lon="3.01647">
        <ele>844.1</ele>
        <time>2021-08-26T15:58:33Z</time>
      </trkpt>
      <trkpt lat="45.71169" lon="3.0165">
        <ele>844.3</ele>
        <time>2021-08-26T15:58:35Z</time>
      </trkpt>
      <trkpt lat="45.71173" lon="3.01653">
        <ele>844.3</ele>
        <time>2021-08-26T15:58:37Z</time>
      </trkpt>
      <trkpt lat="45.71178" lon="3.01656">
        <ele>844.4</ele>
        <time>2021-08-26T15:58:39Z</time>
      </trkpt>
      <trkpt lat="45.71182" lon="3.01659">
        <ele>844.5</ele>
        <time>2021-08-26T15:58:41Z</time>
      </trkpt>
      <trkpt lat="45.71186" lon="3.01661">
        <ele>844.5</ele>
        <time>2021-08-26T15:58:43Z</time>
      </trkpt>
      <trkpt lat="45.7119" lon="3.01664">
        <ele>844.6</ele>
        <time>2021-08-26T15:58:45Z</time>
      </trkpt>
      <trkpt lat="45.71195" lon="3.01667">
        <ele>844.7</ele>
        <time>2021-08-26T15:58:47Z</time>
      </trkpt>
      <trkpt lat="45.71199" lon="3.0167">
        <ele>844.9</ele>
        <time>2021-08-26T15:58:49Z</time>
      </trkpt>
      <trkpt lat="45.71203" lon="3.01673">
        <ele>845.2</ele>
        <time>2021-08-26T15:58:51Z</time>
      </trkpt>
      <trkpt lat="45.71207" lon="3.01676">
        <ele>845.5</ele>
        <time>2021-08-26T15:58:53Z</time>
      </trkpt>
      <trkpt lat="45.71211" lon="3.01679">
        <ele>845.7</ele>
        <time>2021-08-26T15:58:55Z</time>
      </trkpt>
      <trkpt lat="45.71215" lon="3.01681">
        <ele>845.9</ele>
        <time>2021-08-26T15:58:57Z</time>
      </trkpt>
      <trkpt lat="45.71219" lon="3.01683">
        <ele>846.1</ele>
        <time>2021-08-26T15:58:59Z</time>
      </trkpt>
      <trkpt lat="45.71224" lon="3.01686">
        <ele>846.3</ele>
        <time>2021-08-26T15:59:01Z</time>
      </trkpt>
      <trkpt lat="45.71227" lon="3.0169">
        <ele>846.5</ele>
        <time>2021-08-26T15:59:03Z</time>
      </trkpt>
      <trkpt lat="45.71231" lon="3.01693">
        <ele>846.7</ele>
        <time>2021-08-26T15:59:05Z</time>
      </trkpt>
      <trkpt lat="45.71235" lon="3.01695">
        <ele>846.9</ele>
        <time>2021-08-26T15:59:07Z</time>
      </trkpt>
      <trkpt lat="45.71239" lon="3.01699">
        <ele>847</ele>
        <time>2021-08-26T15:59:09Z</time>
      </trkpt>
      <trkpt lat="45.71244" lon="3.01701">
        <ele>847.2</ele>
        <time>2021-08-26T15:59:11Z</time>
      </trkpt>
      <trkpt lat="45.71248" lon="3.01704">
        <ele>847.3</ele>
        <time>2021-08-26T15:59:13Z</time>
      </trkpt>
      <trkpt lat="45.71252" lon="3.01707">
        <ele>847.6</ele>
        <time>2021-08-26T15:59:15Z</time>
      </trkpt>
      <trkpt lat="45.71256" lon="3.0171">
        <ele>847.9</ele>
        <time>2021-08-26T15:59:17Z</time>
      </trkpt>
      <trkpt lat="45.7126" lon="3.01713">
        <ele>848.2</ele>
        <time>2021-08-26T15:59:19Z</time>
      </trkpt>
      <trkpt lat="45.71265" lon="3.01716">
        <ele>848.5</ele>
        <time>2021-08-26T15:59:21Z</time>
      </trkpt>
      <trkpt lat="45.71269" lon="3.01719">
        <ele>848.8</ele>
        <time>2021-08-26T15:59:23Z</time>
      </trkpt>
      <trkpt lat="45.71273" lon="3.01722">
        <ele>849.1</ele>
        <time>2021-08-26T15:59:25Z</time>
      </trkpt>
      <trkpt lat="45.71278" lon="3.01725">
        <ele>849.4</ele>
        <time>2021-08-26T15:59:27Z</time>
      </trkpt>
      <trkpt lat="45.71282" lon="3.01728">
        <ele>849.7</ele>
        <time>2021-08-26T15:59:29Z</time>
      </trkpt>
      <trkpt lat="45.71286" lon="3.0173">
        <ele>849.9</ele>
        <time>2021-08-26T15:59:31Z</time>
      </trkpt>
      <trkpt lat="45.71291" lon="3.01734">
        <ele>850.2</ele>
        <time>2021-08-26T15:59:33Z</time>
      </trkpt>
      <trkpt lat="45.71295" lon="3.01736">
        <ele>850.4</ele>
        <time>2021-08-26T15:59:35Z</time>
      </trkpt>
      <trkpt lat="45.71299" lon="3.01739">
        <ele>850.6</ele>
        <time>2021-08-26T15:59:37Z</time>
      </trkpt>
      <trkpt lat="45.71304" lon="3.01742">
        <ele>850.8</ele>
        <time>2021-08-26T15:59:39Z</time>
      </trkpt>
      <trkpt lat="45.71308" lon="3.01745">
        <ele>851</ele>
        <time>2021-08-26T15:59:41Z</time>
      </trkpt>
      <trkpt lat="45.71312" lon="3.01747">
        <ele>851.2</ele>
        <time>2021-08-26T15:59:43Z</time>
      </trkpt>
      <trkpt lat="45.71316" lon="3.0175">
        <ele>851.4</ele>
        <time>2021-08-26T15:59:45Z</time>
      </trkpt>
      <trkpt lat="45.7132" lon="3.01753">
        <ele>851.5</ele>
        <time>2021-08-26T15:59:47Z</time>
      </trkpt>
      <trkpt lat="45.71324" lon="3.01756">
        <ele>851.7</ele>
        <time>2021-08-26T15:59:49Z</time>
      </trkpt>
      <trkpt lat="45.71329" lon="3.01758">
        <ele>851.8</ele>
        <time>2021-08-26T15:59:51Z</time>
      </trkpt>
      <trkpt lat="45.71333" lon="3.01761">
        <ele>852</ele>
        <time>2021-08-26T15:59:53Z</time>
      </trkpt>
      <trkpt lat="45.71337" lon="3.01764">
        <ele>852.4</ele>
        <time>2021-08-26T15:59:55Z</time>
      </trkpt>
      <trkpt lat="45.71341" lon="3.01767">
        <ele>852.7</ele>
        <time>2021-08-26T15:59:57Z</time>
      </trkpt>
      <trkpt lat="45.71345" lon="3.01769">
        <ele>853.1</ele>
        <time>2021-08-26T15:59:59Z</time>
      </trkpt>
      <trkpt lat="45.71349" lon="3.01772">
        <ele>853.5</ele>
        <time>2021-08-26T16:00:01Z</time>
      </trkpt>
      <trkpt lat="45.71353" lon="3.01774">
        <ele>853.8</ele>
        <time>2021-08-26T16:00:03Z</time>
      </trkpt>
      <trkpt lat="45.71357" lon="3.01776">
        <ele>854.2</ele>
        <time>2021-08-26T16:00:05Z</time>
      </trkpt>
      <trkpt lat="45.7136" lon="3.01779">
        <ele>854.5</ele>
        <time>2021-08-26T16:00:07Z</time>
      </trkpt>
      <trkpt lat="45.71364" lon="3.01781">
        <ele>854.8</ele>
        <time>2021-08-26T16:00:09Z</time>
      </trkpt>
      <trkpt lat="45.71368" lon="3.01783">
        <ele>855.1</ele>
        <time>2021-08-26T16:00:11Z</time>
      </trkpt>
      <trkpt lat="45.71372" lon="3.01784">
        <ele>855.4</ele>
        <time>2021-08-26T16:00:13Z</time>
      </trkpt>
      <trkpt lat="45.71376" lon="3.01786">
        <ele>855.8</ele>
        <time>2021-08-26T16:00:15Z</time>
      </trkpt>
      <trkpt lat="45.7138" lon="3.01787">
        <ele>856</ele>
        <time>2021-08-26T16:00:17Z</time>
      </trkpt>
      <trkpt lat="45.71384" lon="3.01789">
        <ele>856.3</ele>
        <time>2021-08-26T16:00:19Z</time>
      </trkpt>
      <trkpt lat="45.71388" lon="3.01791">
        <ele>856.6</ele>
        <time>2021-08-26T16:00:21Z</time>
      </trkpt>
      <trkpt lat="45.71392" lon="3.01791">
        <ele>856.9</ele>
        <time>2021-08-26T16:00:23Z</time>
      </trkpt>
      <trkpt lat="45.71396" lon="3.01793">
        <ele>857.2</ele>
        <time>2021-08-26T16:00:25Z</time>
      </trkpt>
      <trkpt lat="45.714" lon="3.01794">
        <ele>857.5</ele>
        <time>2021-08-26T16:00:27Z</time>
      </trkpt>
      <trkpt lat="45.71403" lon="3.01795">
        <ele>857.8</ele>
        <time>2021-08-26T16:00:29Z</time>
      </trkpt>
      <trkpt lat="45.71407" lon="3.01796">
        <ele>858</ele>
        <time>2021-08-26T16:00:31Z</time>
      </trkpt>
      <trkpt lat="45.71411" lon="3.01797">
        <ele>858.3</ele>
        <time>2021-08-26T16:00:33Z</time>
      </trkpt>
      <trkpt lat="45.71415" lon="3.01798">
        <ele>858.6</ele>
        <time>2021-08-26T16:00:35Z</time>
      </trkpt>
      <trkpt lat="45.7142" lon="3.01799">
        <ele>858.9</ele>
        <time>2021-08-26T16:00:37Z</time>
      </trkpt>
      <trkpt lat="45.71424" lon="3.018">
        <ele>859.2</ele>
        <time>2021-08-26T16:00:39Z</time>
      </trkpt>
      <trkpt lat="45.71428" lon="3.01801">
        <ele>859.4</ele>
        <time>2021-08-26T16:00:41Z</time>
      </trkpt>
      <trkpt lat="45.71432" lon="3.01802">
        <ele>859.7</ele>
        <time>2021-08-26T16:00:43Z</time>
      </trkpt>
      <trkpt lat="45.71436" lon="3.01803">
        <ele>860</ele>
        <time>2021-08-26T16:00:45Z</time>
      </trkpt>
      <trkpt lat="45.7144" lon="3.01804">
        <ele>860.3</ele>
        <time>2021-08-26T16:00:47Z</time>
      </trkpt>
      <trkpt lat="45.71444" lon="3.01805">
        <ele>860.5</ele>
        <time>2021-08-26T16:00:49Z</time>
      </trkpt>
      <trkpt lat="45.71448" lon="3.01806">
        <ele>860.8</ele>
        <time>2021-08-26T16:00:51Z</time>
      </trkpt>
      <trkpt lat="45.71452" lon="3.01807">
        <ele>861.1</ele>
        <time>2021-08-26T16:00:53Z</time>
      </trkpt>
      <trkpt lat="45.71456" lon="3.01808">
        <ele>861.3</ele>
        <time>2021-08-26T16:00:55Z</time>
      </trkpt>
      <trkpt lat="45.7146" lon="3.01809">
        <ele>861.6</ele>
        <time>2021-08-26T16:00:57Z</time>
      </trkpt>
      <trkpt lat="45.71464" lon="3.0181">
        <ele>861.9</ele>
        <time>2021-08-26T16:00:59Z</time>
      </trkpt>
      <trkpt lat="45.71469" lon="3.0181">
        <ele>862.2</ele>
        <time>2021-08-26T16:01:01Z</time>
      </trkpt>
      <trkpt lat="45.71473" lon="3.01812">
        <ele>862.4</ele>
        <time>2021-08-26T16:01:03Z</time>
      </trkpt>
      <trkpt lat="45.71479" lon="3.01813">
        <ele>862.8</ele>
        <time>2021-08-26T16:01:05Z</time>
      </trkpt>
      <trkpt lat="45.71484" lon="3.01814">
        <ele>863.1</ele>
        <time>2021-08-26T16:01:07Z</time>
      </trkpt>
      <trkpt lat="45.71489" lon="3.01815">
        <ele>863.4</ele>
        <time>2021-08-26T16:01:09Z</time>
      </trkpt>
      <trkpt lat="45.71495" lon="3.01817">
        <ele>863.8</ele>
        <time>2021-08-26T16:01:11Z</time>
      </trkpt>
      <trkpt lat="45.71501" lon="3.01818">
        <ele>864.1</ele>
        <time>2021-08-26T16:01:13Z</time>
      </trkpt>
      <trkpt lat="45.71507" lon="3.01819">
        <ele>864.5</ele>
        <time>2021-08-26T16:01:15Z</time>
      </trkpt>
      <trkpt lat="45.71514" lon="3.01821">
        <ele>864.7</ele>
        <time>2021-08-26T16:01:17Z</time>
      </trkpt>
      <trkpt lat="45.71521" lon="3.01822">
        <ele>865</ele>
        <time>2021-08-26T16:01:19Z</time>
      </trkpt>
      <trkpt lat="45.71527" lon="3.01824">
        <ele>865.3</ele>
        <time>2021-08-26T16:01:21Z</time>
      </trkpt>
      <trkpt lat="45.71534" lon="3.01826">
        <ele>865.6</ele>
        <time>2021-08-26T16:01:23Z</time>
      </trkpt>
      <trkpt lat="45.71541" lon="3.01827">
        <ele>865.9</ele>
        <time>2021-08-26T16:01:25Z</time>
      </trkpt>
      <trkpt lat="45.71547" lon="3.01829">
        <ele>866.2</ele>
        <time>2021-08-26T16:01:27Z</time>
      </trkpt>
      <trkpt lat="45.71553" lon="3.0183">
        <ele>866.5</ele>
        <time>2021-08-26T16:01:29Z</time>
      </trkpt>
      <trkpt lat="45.7156" lon="3.01831">
        <ele>866.8</ele>
        <time>2021-08-26T16:01:31Z</time>
      </trkpt>
      <trkpt lat="45.71566" lon="3.01833">
        <ele>867</ele>
        <time>2021-08-26T16:01:33Z</time>
      </trkpt>
      <trkpt lat="45.71572" lon="3.01834">
        <ele>867.3</ele>
        <time>2021-08-26T16:01:35Z</time>
      </trkpt>
      <trkpt lat="45.71578" lon="3.01835">
        <ele>867.5</ele>
        <time>2021-08-26T16:01:37Z</time>
      </trkpt>
      <trkpt lat="45.71584" lon="3.01837">
        <ele>867.8</ele>
        <time>2021-08-26T16:01:39Z</time>
      </trkpt>
      <trkpt lat="45.7159" lon="3.01839">
        <ele>868</ele>
        <time>2021-08-26T16:01:41Z</time>
      </trkpt>
      <trkpt lat="45.71596" lon="3.0184">
        <ele>868.2</ele>
        <time>2021-08-26T16:01:43Z</time>
      </trkpt>
      <trkpt lat="45.71603" lon="3.01841">
        <ele>868.4</ele>
        <time>2021-08-26T16:01:45Z</time>
      </trkpt>
      <trkpt lat="45.71609" lon="3.01842">
        <ele>868.7</ele>
        <time>2021-08-26T16:01:47Z</time>
      </trkpt>
      <trkpt lat="45.71615" lon="3.01844">
        <ele>868.8</ele>
        <time>2021-08-26T16:01:49Z</time>
      </trkpt>
      <trkpt lat="45.7162" lon="3.01846">
        <ele>869</ele>
        <time>2021-08-26T16:01:51Z</time>
      </trkpt>
      <trkpt lat="45.71627" lon="3.01847">
        <ele>869.2</ele>
        <time>2021-08-26T16:01:53Z</time>
      </trkpt>
      <trkpt lat="45.71632" lon="3.01848">
        <ele>869.4</ele>
        <time>2021-08-26T16:01:55Z</time>
      </trkpt>
      <trkpt lat="45.71639" lon="3.01849">
        <ele>869.6</ele>
        <time>2021-08-26T16:01:57Z</time>
      </trkpt>
      <trkpt lat="45.71644" lon="3.01851">
        <ele>869.7</ele>
        <time>2021-08-26T16:01:59Z</time>
      </trkpt>
      <trkpt lat="45.71651" lon="3.01852">
        <ele>869.9</ele>
        <time>2021-08-26T16:02:01Z</time>
      </trkpt>
      <trkpt lat="45.71657" lon="3.01853">
        <ele>870.1</ele>
        <time>2021-08-26T16:02:03Z</time>
      </trkpt>
      <trkpt lat="45.71663" lon="3.01856">
        <ele>870.1</ele>
        <time>2021-08-26T16:02:05Z</time>
      </trkpt>
      <trkpt lat="45.7167" lon="3.01857">
        <ele>870.3</ele>
        <time>2021-08-26T16:02:07Z</time>
      </trkpt>
      <trkpt lat="45.71676" lon="3.01858">
        <ele>870.4</ele>
        <time>2021-08-26T16:02:09Z</time>
      </trkpt>
      <trkpt lat="45.71683" lon="3.0186">
        <ele>870.5</ele>
        <time>2021-08-26T16:02:11Z</time>
      </trkpt>
      <trkpt lat="45.71689" lon="3.01862">
        <ele>870.5</ele>
        <time>2021-08-26T16:02:13Z</time>
      </trkpt>
      <trkpt lat="45.71696" lon="3.01864">
        <ele>870.6</ele>
        <time>2021-08-26T16:02:15Z</time>
      </trkpt>
      <trkpt lat="45.71703" lon="3.01866">
        <ele>870.7</ele>
        <time>2021-08-26T16:02:17Z</time>
      </trkpt>
      <trkpt lat="45.7171" lon="3.01867">
        <ele>870.8</ele>
        <time>2021-08-26T16:02:19Z</time>
      </trkpt>
      <trkpt lat="45.71717" lon="3.01868">
        <ele>871</ele>
        <time>2021-08-26T16:02:21Z</time>
      </trkpt>
      <trkpt lat="45.71724" lon="3.01868">
        <ele>871.3</ele>
        <time>2021-08-26T16:02:23Z</time>
      </trkpt>
      <trkpt lat="45.7173" lon="3.01871">
        <ele>871.2</ele>
        <time>2021-08-26T16:02:25Z</time>
      </trkpt>
      <trkpt lat="45.71738" lon="3.01872">
        <ele>871.3</ele>
        <time>2021-08-26T16:02:27Z</time>
      </trkpt>
      <trkpt lat="45.71744" lon="3.01875">
        <ele>871.3</ele>
        <time>2021-08-26T16:02:29Z</time>
      </trkpt>
      <trkpt lat="45.71751" lon="3.01877">
        <ele>871.4</ele>
        <time>2021-08-26T16:02:31Z</time>
      </trkpt>
      <trkpt lat="45.71758" lon="3.01879">
        <ele>871.5</ele>
        <time>2021-08-26T16:02:33Z</time>
      </trkpt>
      <trkpt lat="45.71764" lon="3.0188">
        <ele>871.8</ele>
        <time>2021-08-26T16:02:35Z</time>
      </trkpt>
      <trkpt lat="45.7177" lon="3.01881">
        <ele>872</ele>
        <time>2021-08-26T16:02:37Z</time>
      </trkpt>
      <trkpt lat="45.71778" lon="3.01883">
        <ele>872.4</ele>
        <time>2021-08-26T16:02:39Z</time>
      </trkpt>
      <trkpt lat="45.71784" lon="3.01886">
        <ele>872.3</ele>
        <time>2021-08-26T16:02:41Z</time>
      </trkpt>
      <trkpt lat="45.71791" lon="3.01887">
        <ele>872.7</ele>
        <time>2021-08-26T16:02:43Z</time>
      </trkpt>
      <trkpt lat="45.71797" lon="3.01889">
        <ele>872.8</ele>
        <time>2021-08-26T16:02:45Z</time>
      </trkpt>
      <trkpt lat="45.71802" lon="3.01891">
        <ele>873</ele>
        <time>2021-08-26T16:02:47Z</time>
      </trkpt>
      <trkpt lat="45.71808" lon="3.01892">
        <ele>873.2</ele>
        <time>2021-08-26T16:02:49Z</time>
      </trkpt>
      <trkpt lat="45.71813" lon="3.01894">
        <ele>873.4</ele>
        <time>2021-08-26T16:02:51Z</time>
      </trkpt>
      <trkpt lat="45.71818" lon="3.01895">
        <ele>873.6</ele>
        <time>2021-08-26T16:02:53Z</time>
      </trkpt>
      <trkpt lat="45.71824" lon="3.01896">
        <ele>873.8</ele>
        <time>2021-08-26T16:02:55Z</time>
      </trkpt>
      <trkpt lat="45.71829" lon="3.01898">
        <ele>874</ele>
        <time>2021-08-26T16:02:57Z</time>
      </trkpt>
      <trkpt lat="45.71835" lon="3.01897">
        <ele>874.4</ele>
        <time>2021-08-26T16:02:59Z</time>
      </trkpt>
      <trkpt lat="45.71838" lon="3.01899">
        <ele>874.2</ele>
        <time>2021-08-26T16:03:01Z</time>
      </trkpt>
      <trkpt lat="45.71842" lon="3.01901">
        <ele>874.1</ele>
        <time>2021-08-26T16:03:03Z</time>
      </trkpt>
      <trkpt lat="45.71847" lon="3.01902">
        <ele>874.1</ele>
        <time>2021-08-26T16:03:05Z</time>
      </trkpt>
      <trkpt lat="45.71852" lon="3.01903">
        <ele>874.1</ele>
        <time>2021-08-26T16:03:07Z</time>
      </trkpt>
      <trkpt lat="45.71856" lon="3.01904">
        <ele>874.1</ele>
        <time>2021-08-26T16:03:09Z</time>
      </trkpt>
      <trkpt lat="45.71861" lon="3.01905">
        <ele>874</ele>
        <time>2021-08-26T16:03:11Z</time>
      </trkpt>
      <trkpt lat="45.71864" lon="3.01907">
        <ele>873.8</ele>
        <time>2021-08-26T16:03:13Z</time>
      </trkpt>
      <trkpt lat="45.71867" lon="3.01912">
        <ele>873.3</ele>
        <time>2021-08-26T16:03:15Z</time>
      </trkpt>
      <trkpt lat="45.7187" lon="3.01909">
        <ele>873.7</ele>
        <time>2021-08-26T16:03:17Z</time>
      </trkpt>
      <trkpt lat="45.71871" lon="3.01908">
        <ele>873.9</ele>
        <time>2021-08-26T16:03:19Z</time>
      </trkpt>
      <trkpt lat="45.71872" lon="3.01908">
        <ele>873.9</ele>
        <time>2021-08-26T16:03:21Z</time>
      </trkpt>
      <trkpt lat="45.71872" lon="3.01908">
        <ele>873.9</ele>
        <time>2021-08-26T16:03:23Z</time>
      </trkpt>
      <trkpt lat="45.71872" lon="3.01908">
        <ele>873.9</ele>
        <time>2021-08-26T16:03:25Z</time>
      </trkpt>
      <trkpt lat="45.71872" lon="3.01908">
        <ele>873.9</ele>
        <time>2021-08-26T16:03:27Z</time>
      </trkpt>
      <trkpt lat="45.71887" lon="3.0191">
        <ele>874</ele>
        <time>2021-08-26T16:06:43Z</time>
      </trkpt>
      <trkpt lat="45.7189" lon="3.01913">
        <ele>873.8</ele>
        <time>2021-08-26T16:06:45Z</time>
      </trkpt>
      <trkpt lat="45.71895" lon="3.01916">
        <ele>873.5</ele>
        <time>2021-08-26T16:06:47Z</time>
      </trkpt>
      <trkpt lat="45.719" lon="3.01917">
        <ele>873.6</ele>
        <time>2021-08-26T16:06:49Z</time>
      </trkpt>
      <trkpt lat="45.71906" lon="3.01922">
        <ele>873.4</ele>
        <time>2021-08-26T16:06:51Z</time>
      </trkpt>
      <trkpt lat="45.71912" lon="3.01926">
        <ele>873.2</ele>
        <time>2021-08-26T16:06:53Z</time>
      </trkpt>
      <trkpt lat="45.71919" lon="3.01931">
        <ele>873.1</ele>
        <time>2021-08-26T16:06:55Z</time>
      </trkpt>
      <trkpt lat="45.71926" lon="3.01936">
        <ele>873.1</ele>
        <time>2021-08-26T16:06:57Z</time>
      </trkpt>
      <trkpt lat="45.71933" lon="3.0194">
        <ele>873.2</ele>
        <time>2021-08-26T16:06:59Z</time>
      </trkpt>
      <trkpt lat="45.7194" lon="3.01945">
        <ele>873.3</ele>
        <time>2021-08-26T16:07:01Z</time>
      </trkpt>
      <trkpt lat="45.71947" lon="3.0195">
        <ele>873.3</ele>
        <time>2021-08-26T16:07:03Z</time>
      </trkpt>
      <trkpt lat="45.71954" lon="3.01955">
        <ele>873.4</ele>
        <time>2021-08-26T16:07:05Z</time>
      </trkpt>
      <trkpt lat="45.71961" lon="3.01959">
        <ele>873.6</ele>
        <time>2021-08-26T16:07:07Z</time>
      </trkpt>
      <trkpt lat="45.71968" lon="3.01964">
        <ele>873.8</ele>
        <time>2021-08-26T16:07:09Z</time>
      </trkpt>
      <trkpt lat="45.71974" lon="3.01967">
        <ele>874</ele>
        <time>2021-08-26T16:07:11Z</time>
      </trkpt>
      <trkpt lat="45.71981" lon="3.01969">
        <ele>874.3</ele>
        <time>2021-08-26T16:07:13Z</time>
      </trkpt>
      <trkpt lat="45.71988" lon="3.01971">
        <ele>874.6</ele>
        <time>2021-08-26T16:07:15Z</time>
      </trkpt>
      <trkpt lat="45.71995" lon="3.01974">
        <ele>874.9</ele>
        <time>2021-08-26T16:07:17Z</time>
      </trkpt>
      <trkpt lat="45.72001" lon="3.01975">
        <ele>875.1</ele>
        <time>2021-08-26T16:07:19Z</time>
      </trkpt>
      <trkpt lat="45.72007" lon="3.01975">
        <ele>874.6</ele>
        <time>2021-08-26T16:07:21Z</time>
      </trkpt>
      <trkpt lat="45.72013" lon="3.01976">
        <ele>874.1</ele>
        <time>2021-08-26T16:07:23Z</time>
      </trkpt>
      <trkpt lat="45.72018" lon="3.01976">
        <ele>873.7</ele>
        <time>2021-08-26T16:07:25Z</time>
      </trkpt>
      <trkpt lat="45.72023" lon="3.01976">
        <ele>873.3</ele>
        <time>2021-08-26T16:07:27Z</time>
      </trkpt>
      <trkpt lat="45.72028" lon="3.01975">
        <ele>873</ele>
        <time>2021-08-26T16:07:29Z</time>
      </trkpt>
      <trkpt lat="45.72031" lon="3.01975">
        <ele>872.7</ele>
        <time>2021-08-26T16:07:31Z</time>
      </trkpt>
      <trkpt lat="45.72035" lon="3.01974">
        <ele>872.5</ele>
        <time>2021-08-26T16:07:33Z</time>
      </trkpt>
      <trkpt lat="45.72039" lon="3.01973">
        <ele>872.2</ele>
        <time>2021-08-26T16:07:35Z</time>
      </trkpt>
      <trkpt lat="45.72043" lon="3.01971">
        <ele>872</ele>
        <time>2021-08-26T16:07:37Z</time>
      </trkpt>
      <trkpt lat="45.72046" lon="3.0197">
        <ele>871.7</ele>
        <time>2021-08-26T16:07:39Z</time>
      </trkpt>
      <trkpt lat="45.72049" lon="3.01968">
        <ele>871.5</ele>
        <time>2021-08-26T16:07:41Z</time>
      </trkpt>
      <trkpt lat="45.72052" lon="3.01966">
        <ele>871.4</ele>
        <time>2021-08-26T16:07:43Z</time>
      </trkpt>
      <trkpt lat="45.72055" lon="3.01965">
        <ele>871.2</ele>
        <time>2021-08-26T16:07:45Z</time>
      </trkpt>
      <trkpt lat="45.72055" lon="3.01965">
        <ele>871.2</ele>
        <time>2021-08-26T16:07:47Z</time>
      </trkpt>
      <trkpt lat="45.72055" lon="3.01965">
        <ele>871.2</ele>
        <time>2021-08-26T16:07:49Z</time>
      </trkpt>
      <trkpt lat="45.72055" lon="3.01965">
        <ele>871.1</ele>
        <time>2021-08-26T16:07:51Z</time>
      </trkpt>
      <trkpt lat="45.72055" lon="3.01966">
        <ele>871.1</ele>
        <time>2021-08-26T16:07:53Z</time>
      </trkpt>
      <trkpt lat="45.72068" lon="3.01948">
        <ele>870.6</ele>
        <time>2021-08-26T16:08:59Z</time>
      </trkpt>
      <trkpt lat="45.7207" lon="3.01942">
        <ele>870.5</ele>
        <time>2021-08-26T16:09:01Z</time>
      </trkpt>
      <trkpt lat="45.72073" lon="3.01932">
        <ele>870.6</ele>
        <time>2021-08-26T16:09:03Z</time>
      </trkpt>
      <trkpt lat="45.72075" lon="3.01918">
        <ele>870.7</ele>
        <time>2021-08-26T16:09:05Z</time>
      </trkpt>
      <trkpt lat="45.72079" lon="3.01902">
        <ele>871.2</ele>
        <time>2021-08-26T16:09:07Z</time>
      </trkpt>
      <trkpt lat="45.72082" lon="3.01883">
        <ele>871.7</ele>
        <time>2021-08-26T16:09:09Z</time>
      </trkpt>
      <trkpt lat="45.72086" lon="3.01863">
        <ele>872.4</ele>
        <time>2021-08-26T16:09:11Z</time>
      </trkpt>
      <trkpt lat="45.7209" lon="3.01846">
        <ele>872.9</ele>
        <time>2021-08-26T16:09:13Z</time>
      </trkpt>
      <trkpt lat="45.72099" lon="3.0183">
        <ele>872.9</ele>
        <time>2021-08-26T16:09:15Z</time>
      </trkpt>
      <trkpt lat="45.72113" lon="3.01823">
        <ele>872.1</ele>
        <time>2021-08-26T16:09:17Z</time>
      </trkpt>
      <trkpt lat="45.7213" lon="3.01826">
        <ele>870.9</ele>
        <time>2021-08-26T16:09:19Z</time>
      </trkpt>
      <trkpt lat="45.72144" lon="3.0183">
        <ele>869.8</ele>
        <time>2021-08-26T16:09:21Z</time>
      </trkpt>
      <trkpt lat="45.72156" lon="3.01833">
        <ele>868.8</ele>
        <time>2021-08-26T16:09:23Z</time>
      </trkpt>
      <trkpt lat="45.72167" lon="3.01837">
        <ele>868</ele>
        <time>2021-08-26T16:09:25Z</time>
      </trkpt>
      <trkpt lat="45.72171" lon="3.01851">
        <ele>868.5</ele>
        <time>2021-08-26T16:09:27Z</time>
      </trkpt>
      <trkpt lat="45.72169" lon="3.01864">
        <ele>868.5</ele>
        <time>2021-08-26T16:09:29Z</time>
      </trkpt>
      <trkpt lat="45.72166" lon="3.01876">
        <ele>868.5</ele>
        <time>2021-08-26T16:09:31Z</time>
      </trkpt>
      <trkpt lat="45.72165" lon="3.01888">
        <ele>868.7</ele>
        <time>2021-08-26T16:09:33Z</time>
      </trkpt>
      <trkpt lat="45.72162" lon="3.01899">
        <ele>868.9</ele>
        <time>2021-08-26T16:09:35Z</time>
      </trkpt>
      <trkpt lat="45.72161" lon="3.01911">
        <ele>869</ele>
        <time>2021-08-26T16:09:37Z</time>
      </trkpt>
      <trkpt lat="45.72159" lon="3.01923">
        <ele>869.1</ele>
        <time>2021-08-26T16:09:39Z</time>
      </trkpt>
      <trkpt lat="45.72158" lon="3.01934">
        <ele>869.2</ele>
        <time>2021-08-26T16:09:41Z</time>
      </trkpt>
      <trkpt lat="45.72157" lon="3.01945">
        <ele>869.3</ele>
        <time>2021-08-26T16:09:43Z</time>
      </trkpt>
      <trkpt lat="45.72157" lon="3.01955">
        <ele>869.4</ele>
        <time>2021-08-26T16:09:45Z</time>
      </trkpt>
      <trkpt lat="45.72157" lon="3.01965">
        <ele>869.5</ele>
        <time>2021-08-26T16:09:47Z</time>
      </trkpt>
      <trkpt lat="45.72158" lon="3.01974">
        <ele>869.6</ele>
        <time>2021-08-26T16:09:49Z</time>
      </trkpt>
      <trkpt lat="45.72159" lon="3.01983">
        <ele>869.7</ele>
        <time>2021-08-26T16:09:51Z</time>
      </trkpt>
      <trkpt lat="45.72161" lon="3.01992">
        <ele>869.8</ele>
        <time>2021-08-26T16:09:53Z</time>
      </trkpt>
      <trkpt lat="45.72162" lon="3.02001">
        <ele>869.9</ele>
        <time>2021-08-26T16:09:55Z</time>
      </trkpt>
      <trkpt lat="45.72164" lon="3.02009">
        <ele>870</ele>
        <time>2021-08-26T16:09:57Z</time>
      </trkpt>
      <trkpt lat="45.72166" lon="3.02018">
        <ele>870.2</ele>
        <time>2021-08-26T16:09:59Z</time>
      </trkpt>
      <trkpt lat="45.72168" lon="3.02026">
        <ele>870.4</ele>
        <time>2021-08-26T16:10:01Z</time>
      </trkpt>
      <trkpt lat="45.72169" lon="3.02036">
        <ele>870.7</ele>
        <time>2021-08-26T16:10:03Z</time>
      </trkpt>
      <trkpt lat="45.72169" lon="3.02045">
        <ele>870.8</ele>
        <time>2021-08-26T16:10:05Z</time>
      </trkpt>
      <trkpt lat="45.72169" lon="3.02055">
        <ele>870.9</ele>
        <time>2021-08-26T16:10:07Z</time>
      </trkpt>
      <trkpt lat="45.72167" lon="3.02064">
        <ele>870.8</ele>
        <time>2021-08-26T16:10:09Z</time>
      </trkpt>
      <trkpt lat="45.72164" lon="3.02072">
        <ele>870.7</ele>
        <time>2021-08-26T16:10:11Z</time>
      </trkpt>
      <trkpt lat="45.72162" lon="3.0208">
        <ele>870.6</ele>
        <time>2021-08-26T16:10:13Z</time>
      </trkpt>
      <trkpt lat="45.72159" lon="3.02088">
        <ele>870.7</ele>
        <time>2021-08-26T16:10:15Z</time>
      </trkpt>
      <trkpt lat="45.72156" lon="3.02095">
        <ele>870.8</ele>
        <time>2021-08-26T16:10:17Z</time>
      </trkpt>
      <trkpt lat="45.72154" lon="3.02102">
        <ele>871</ele>
        <time>2021-08-26T16:10:19Z</time>
      </trkpt>
      <trkpt lat="45.72152" lon="3.02109">
        <ele>871.2</ele>
        <time>2021-08-26T16:10:21Z</time>
      </trkpt>
      <trkpt lat="45.7215" lon="3.02116">
        <ele>871.3</ele>
        <time>2021-08-26T16:10:23Z</time>
      </trkpt>
      <trkpt lat="45.72149" lon="3.02123">
        <ele>871.5</ele>
        <time>2021-08-26T16:10:25Z</time>
      </trkpt>
      <trkpt lat="45.72148" lon="3.0213">
        <ele>871.8</ele>
        <time>2021-08-26T16:10:27Z</time>
      </trkpt>
      <trkpt lat="45.72147" lon="3.02138">
        <ele>872</ele>
        <time>2021-08-26T16:10:29Z</time>
      </trkpt>
      <trkpt lat="45.72147" lon="3.02146">
        <ele>872.4</ele>
        <time>2021-08-26T16:10:31Z</time>
      </trkpt>
      <trkpt lat="45.72147" lon="3.02154">
        <ele>872.8</ele>
        <time>2021-08-26T16:10:33Z</time>
      </trkpt>
      <trkpt lat="45.72146" lon="3.02162">
        <ele>873.1</ele>
        <time>2021-08-26T16:10:35Z</time>
      </trkpt>
      <trkpt lat="45.72146" lon="3.0217">
        <ele>873.4</ele>
        <time>2021-08-26T16:10:37Z</time>
      </trkpt>
      <trkpt lat="45.72146" lon="3.02179">
        <ele>873.7</ele>
        <time>2021-08-26T16:10:39Z</time>
      </trkpt>
      <trkpt lat="45.72146" lon="3.02187">
        <ele>873.9</ele>
        <time>2021-08-26T16:10:41Z</time>
      </trkpt>
      <trkpt lat="45.72146" lon="3.02196">
        <ele>874.2</ele>
        <time>2021-08-26T16:10:43Z</time>
      </trkpt>
      <trkpt lat="45.72146" lon="3.02205">
        <ele>874.4</ele>
        <time>2021-08-26T16:10:45Z</time>
      </trkpt>
      <trkpt lat="45.72145" lon="3.02213">
        <ele>874.6</ele>
        <time>2021-08-26T16:10:47Z</time>
      </trkpt>
      <trkpt lat="45.72144" lon="3.02221">
        <ele>874.6</ele>
        <time>2021-08-26T16:10:49Z</time>
      </trkpt>
      <trkpt lat="45.72141" lon="3.02229">
        <ele>874.5</ele>
        <time>2021-08-26T16:10:51Z</time>
      </trkpt>
      <trkpt lat="45.72138" lon="3.02238">
        <ele>874.5</ele>
        <time>2021-08-26T16:10:53Z</time>
      </trkpt>
      <trkpt lat="45.72135" lon="3.02246">
        <ele>874.4</ele>
        <time>2021-08-26T16:10:55Z</time>
      </trkpt>
      <trkpt lat="45.72132" lon="3.02254">
        <ele>874.3</ele>
        <time>2021-08-26T16:10:57Z</time>
      </trkpt>
      <trkpt lat="45.72129" lon="3.02262">
        <ele>874.2</ele>
        <time>2021-08-26T16:10:59Z</time>
      </trkpt>
      <trkpt lat="45.72127" lon="3.02271">
        <ele>874.1</ele>
        <time>2021-08-26T16:11:01Z</time>
      </trkpt>
      <trkpt lat="45.72126" lon="3.0228">
        <ele>874.3</ele>
        <time>2021-08-26T16:11:03Z</time>
      </trkpt>
      <trkpt lat="45.72126" lon="3.0229">
        <ele>874.5</ele>
        <time>2021-08-26T16:11:05Z</time>
      </trkpt>
      <trkpt lat="45.72127" lon="3.02299">
        <ele>874.8</ele>
        <time>2021-08-26T16:11:07Z</time>
      </trkpt>
      <trkpt lat="45.72128" lon="3.02309">
        <ele>875.1</ele>
        <time>2021-08-26T16:11:09Z</time>
      </trkpt>
      <trkpt lat="45.72131" lon="3.0232">
        <ele>875.5</ele>
        <time>2021-08-26T16:11:11Z</time>
      </trkpt>
      <trkpt lat="45.72134" lon="3.02332">
        <ele>875.8</ele>
        <time>2021-08-26T16:11:13Z</time>
      </trkpt>
      <trkpt lat="45.72136" lon="3.02344">
        <ele>875.6</ele>
        <time>2021-08-26T16:11:15Z</time>
      </trkpt>
      <trkpt lat="45.72139" lon="3.02356">
        <ele>875.4</ele>
        <time>2021-08-26T16:11:17Z</time>
      </trkpt>
      <trkpt lat="45.72142" lon="3.02368">
        <ele>875.1</ele>
        <time>2021-08-26T16:11:19Z</time>
      </trkpt>
      <trkpt lat="45.72145" lon="3.02381">
        <ele>874.9</ele>
        <time>2021-08-26T16:11:21Z</time>
      </trkpt>
      <trkpt lat="45.72148" lon="3.02394">
        <ele>874.7</ele>
        <time>2021-08-26T16:11:23Z</time>
      </trkpt>
      <trkpt lat="45.72151" lon="3.02408">
        <ele>874.5</ele>
        <time>2021-08-26T16:11:25Z</time>
      </trkpt>
      <trkpt lat="45.72154" lon="3.02422">
        <ele>874.5</ele>
        <time>2021-08-26T16:11:27Z</time>
      </trkpt>
      <trkpt lat="45.72157" lon="3.02436">
        <ele>875.1</ele>
        <time>2021-08-26T16:11:29Z</time>
      </trkpt>
      <trkpt lat="45.7216" lon="3.02449">
        <ele>875.7</ele>
        <time>2021-08-26T16:11:31Z</time>
      </trkpt>
      <trkpt lat="45.72163" lon="3.02463">
        <ele>876.3</ele>
        <time>2021-08-26T16:11:33Z</time>
      </trkpt>
      <trkpt lat="45.72165" lon="3.02477">
        <ele>877</ele>
        <time>2021-08-26T16:11:35Z</time>
      </trkpt>
      <trkpt lat="45.72169" lon="3.0249">
        <ele>877.9</ele>
        <time>2021-08-26T16:11:37Z</time>
      </trkpt>
      <trkpt lat="45.72172" lon="3.02504">
        <ele>878.5</ele>
        <time>2021-08-26T16:11:39Z</time>
      </trkpt>
      <trkpt lat="45.72174" lon="3.02518">
        <ele>878.8</ele>
        <time>2021-08-26T16:11:41Z</time>
      </trkpt>
      <trkpt lat="45.72175" lon="3.02532">
        <ele>879</ele>
        <time>2021-08-26T16:11:43Z</time>
      </trkpt>
      <trkpt lat="45.72175" lon="3.02546">
        <ele>879.1</ele>
        <time>2021-08-26T16:11:45Z</time>
      </trkpt>
      <trkpt lat="45.72173" lon="3.0256">
        <ele>879</ele>
        <time>2021-08-26T16:11:47Z</time>
      </trkpt>
      <trkpt lat="45.72171" lon="3.02574">
        <ele>878.6</ele>
        <time>2021-08-26T16:11:49Z</time>
      </trkpt>
      <trkpt lat="45.72167" lon="3.02587">
        <ele>878.2</ele>
        <time>2021-08-26T16:11:51Z</time>
      </trkpt>
      <trkpt lat="45.72164" lon="3.02601">
        <ele>878.1</ele>
        <time>2021-08-26T16:11:53Z</time>
      </trkpt>
      <trkpt lat="45.72161" lon="3.02616">
        <ele>878.1</ele>
        <time>2021-08-26T16:11:55Z</time>
      </trkpt>
      <trkpt lat="45.72157" lon="3.0263">
        <ele>877.9</ele>
        <time>2021-08-26T16:11:57Z</time>
      </trkpt>
      <trkpt lat="45.72153" lon="3.02644">
        <ele>877.8</ele>
        <time>2021-08-26T16:11:59Z</time>
      </trkpt>
      <trkpt lat="45.72149" lon="3.02659">
        <ele>877.6</ele>
        <time>2021-08-26T16:12:01Z</time>
      </trkpt>
      <trkpt lat="45.72145" lon="3.02674">
        <ele>877.3</ele>
        <time>2021-08-26T16:12:03Z</time>
      </trkpt>
      <trkpt lat="45.72141" lon="3.02689">
        <ele>876.9</ele>
        <time>2021-08-26T16:12:05Z</time>
      </trkpt>
      <trkpt lat="45.72136" lon="3.02703">
        <ele>876.5</ele>
        <time>2021-08-26T16:12:07Z</time>
      </trkpt>
      <trkpt lat="45.72132" lon="3.02718">
        <ele>876</ele>
        <time>2021-08-26T16:12:09Z</time>
      </trkpt>
      <trkpt lat="45.72128" lon="3.02733">
        <ele>875.7</ele>
        <time>2021-08-26T16:12:11Z</time>
      </trkpt>
      <trkpt lat="45.72124" lon="3.02747">
        <ele>875.3</ele>
        <time>2021-08-26T16:12:13Z</time>
      </trkpt>
      <trkpt lat="45.7212" lon="3.02762">
        <ele>874.9</ele>
        <time>2021-08-26T16:12:15Z</time>
      </trkpt>
      <trkpt lat="45.72118" lon="3.02778">
        <ele>874.6</ele>
        <time>2021-08-26T16:12:17Z</time>
      </trkpt>
      <trkpt lat="45.72116" lon="3.02794">
        <ele>874.3</ele>
        <time>2021-08-26T16:12:19Z</time>
      </trkpt>
      <trkpt lat="45.72114" lon="3.0281">
        <ele>874.1</ele>
        <time>2021-08-26T16:12:21Z</time>
      </trkpt>
      <trkpt lat="45.72111" lon="3.02826">
        <ele>873.7</ele>
        <time>2021-08-26T16:12:23Z</time>
      </trkpt>
      <trkpt lat="45.72108" lon="3.02843">
        <ele>872.9</ele>
        <time>2021-08-26T16:12:25Z</time>
      </trkpt>
      <trkpt lat="45.72106" lon="3.02859">
        <ele>871.8</ele>
        <time>2021-08-26T16:12:27Z</time>
      </trkpt>
      <trkpt lat="45.72104" lon="3.02876">
        <ele>870.7</ele>
        <time>2021-08-26T16:12:29Z</time>
      </trkpt>
      <trkpt lat="45.72105" lon="3.02893">
        <ele>870</ele>
        <time>2021-08-26T16:12:31Z</time>
      </trkpt>
      <trkpt lat="45.72109" lon="3.0291">
        <ele>869.9</ele>
        <time>2021-08-26T16:12:33Z</time>
      </trkpt>
      <trkpt lat="45.72114" lon="3.02926">
        <ele>870.3</ele>
        <time>2021-08-26T16:12:35Z</time>
      </trkpt>
      <trkpt lat="45.7212" lon="3.02943">
        <ele>870.6</ele>
        <time>2021-08-26T16:12:37Z</time>
      </trkpt>
      <trkpt lat="45.72125" lon="3.02959">
        <ele>871</ele>
        <time>2021-08-26T16:12:39Z</time>
      </trkpt>
      <trkpt lat="45.7213" lon="3.02975">
        <ele>871.3</ele>
        <time>2021-08-26T16:12:41Z</time>
      </trkpt>
      <trkpt lat="45.72135" lon="3.02991">
        <ele>871.7</ele>
        <time>2021-08-26T16:12:43Z</time>
      </trkpt>
      <trkpt lat="45.7214" lon="3.03007">
        <ele>871.9</ele>
        <time>2021-08-26T16:12:45Z</time>
      </trkpt>
      <trkpt lat="45.72144" lon="3.03024">
        <ele>871.9</ele>
        <time>2021-08-26T16:12:47Z</time>
      </trkpt>
      <trkpt lat="45.72147" lon="3.0304">
        <ele>871.8</ele>
        <time>2021-08-26T16:12:49Z</time>
      </trkpt>
      <trkpt lat="45.72151" lon="3.03056">
        <ele>871.7</ele>
        <time>2021-08-26T16:12:51Z</time>
      </trkpt>
      <trkpt lat="45.72154" lon="3.03072">
        <ele>871.5</ele>
        <time>2021-08-26T16:12:53Z</time>
      </trkpt>
      <trkpt lat="45.72157" lon="3.03088">
        <ele>871.4</ele>
        <time>2021-08-26T16:12:55Z</time>
      </trkpt>
      <trkpt lat="45.72159" lon="3.03104">
        <ele>871.3</ele>
        <time>2021-08-26T16:12:57Z</time>
      </trkpt>
      <trkpt lat="45.72161" lon="3.03121">
        <ele>871.2</ele>
        <time>2021-08-26T16:12:59Z</time>
      </trkpt>
      <trkpt lat="45.72163" lon="3.03138">
        <ele>871</ele>
        <time>2021-08-26T16:13:01Z</time>
      </trkpt>
      <trkpt lat="45.72164" lon="3.03155">
        <ele>870.8</ele>
        <time>2021-08-26T16:13:03Z</time>
      </trkpt>
      <trkpt lat="45.72165" lon="3.03172">
        <ele>870.5</ele>
        <time>2021-08-26T16:13:05Z</time>
      </trkpt>
      <trkpt lat="45.72165" lon="3.03189">
        <ele>870.2</ele>
        <time>2021-08-26T16:13:07Z</time>
      </trkpt>
      <trkpt lat="45.72164" lon="3.03207">
        <ele>869.7</ele>
        <time>2021-08-26T16:13:09Z</time>
      </trkpt>
      <trkpt lat="45.72163" lon="3.03225">
        <ele>869.1</ele>
        <time>2021-08-26T16:13:11Z</time>
      </trkpt>
      <trkpt lat="45.7216" lon="3.03242">
        <ele>868.2</ele>
        <time>2021-08-26T16:13:13Z</time>
      </trkpt>
      <trkpt lat="45.72157" lon="3.03259">
        <ele>867.8</ele>
        <time>2021-08-26T16:13:15Z</time>
      </trkpt>
      <trkpt lat="45.72155" lon="3.03277">
        <ele>867.6</ele>
        <time>2021-08-26T16:13:17Z</time>
      </trkpt>
      <trkpt lat="45.72154" lon="3.03294">
        <ele>867.5</ele>
        <time>2021-08-26T16:13:19Z</time>
      </trkpt>
      <trkpt lat="45.72152" lon="3.03312">
        <ele>867.4</ele>
        <time>2021-08-26T16:13:21Z</time>
      </trkpt>
      <trkpt lat="45.72152" lon="3.03329">
        <ele>867.5</ele>
        <time>2021-08-26T16:13:23Z</time>
      </trkpt>
      <trkpt lat="45.72151" lon="3.03346">
        <ele>867.2</ele>
        <time>2021-08-26T16:13:25Z</time>
      </trkpt>
      <trkpt lat="45.72151" lon="3.03364">
        <ele>866.7</ele>
        <time>2021-08-26T16:13:27Z</time>
      </trkpt>
      <trkpt lat="45.7215" lon="3.03382">
        <ele>866.3</ele>
        <time>2021-08-26T16:13:29Z</time>
      </trkpt>
      <trkpt lat="45.7215" lon="3.034">
        <ele>866</ele>
        <time>2021-08-26T16:13:31Z</time>
      </trkpt>
      <trkpt lat="45.72152" lon="3.03417">
        <ele>865.9</ele>
        <time>2021-08-26T16:13:33Z</time>
      </trkpt>
      <trkpt lat="45.72155" lon="3.03434">
        <ele>865.3</ele>
        <time>2021-08-26T16:13:35Z</time>
      </trkpt>
      <trkpt lat="45.7216" lon="3.03451">
        <ele>865</ele>
        <time>2021-08-26T16:13:37Z</time>
      </trkpt>
      <trkpt lat="45.72164" lon="3.03467">
        <ele>864.6</ele>
        <time>2021-08-26T16:13:39Z</time>
      </trkpt>
      <trkpt lat="45.72168" lon="3.03483">
        <ele>864.1</ele>
        <time>2021-08-26T16:13:41Z</time>
      </trkpt>
      <trkpt lat="45.72172" lon="3.03499">
        <ele>863.4</ele>
        <time>2021-08-26T16:13:43Z</time>
      </trkpt>
      <trkpt lat="45.72177" lon="3.03515">
        <ele>862.9</ele>
        <time>2021-08-26T16:13:45Z</time>
      </trkpt>
      <trkpt lat="45.72182" lon="3.03531">
        <ele>862.3</ele>
        <time>2021-08-26T16:13:47Z</time>
      </trkpt>
      <trkpt lat="45.72186" lon="3.03546">
        <ele>861.8</ele>
        <time>2021-08-26T16:13:49Z</time>
      </trkpt>
      <trkpt lat="45.7219" lon="3.03562">
        <ele>861.2</ele>
        <time>2021-08-26T16:13:51Z</time>
      </trkpt>
      <trkpt lat="45.72195" lon="3.03577">
        <ele>860.7</ele>
        <time>2021-08-26T16:13:53Z</time>
      </trkpt>
      <trkpt lat="45.722" lon="3.03593">
        <ele>860.5</ele>
        <time>2021-08-26T16:13:55Z</time>
      </trkpt>
      <trkpt lat="45.72205" lon="3.03607">
        <ele>860.6</ele>
        <time>2021-08-26T16:13:57Z</time>
      </trkpt>
      <trkpt lat="45.7221" lon="3.03621">
        <ele>860.6</ele>
        <time>2021-08-26T16:13:59Z</time>
      </trkpt>
      <trkpt lat="45.72216" lon="3.03633">
        <ele>860.7</ele>
        <time>2021-08-26T16:14:01Z</time>
      </trkpt>
      <trkpt lat="45.72222" lon="3.03644">
        <ele>860.7</ele>
        <time>2021-08-26T16:14:03Z</time>
      </trkpt>
      <trkpt lat="45.72228" lon="3.03654">
        <ele>860.7</ele>
        <time>2021-08-26T16:14:05Z</time>
      </trkpt>
      <trkpt lat="45.72235" lon="3.03663">
        <ele>860.7</ele>
        <time>2021-08-26T16:14:07Z</time>
      </trkpt>
      <trkpt lat="45.72242" lon="3.03671">
        <ele>860.6</ele>
        <time>2021-08-26T16:14:09Z</time>
      </trkpt>
      <trkpt lat="45.72249" lon="3.0368">
        <ele>860.4</ele>
        <time>2021-08-26T16:14:11Z</time>
      </trkpt>
      <trkpt lat="45.72258" lon="3.03687">
        <ele>860</ele>
        <time>2021-08-26T16:14:13Z</time>
      </trkpt>
      <trkpt lat="45.72266" lon="3.03697">
        <ele>859.6</ele>
        <time>2021-08-26T16:14:15Z</time>
      </trkpt>
      <trkpt lat="45.72276" lon="3.03707">
        <ele>859.2</ele>
        <time>2021-08-26T16:14:17Z</time>
      </trkpt>
      <trkpt lat="45.72285" lon="3.0372">
        <ele>858.7</ele>
        <time>2021-08-26T16:14:19Z</time>
      </trkpt>
      <trkpt lat="45.72293" lon="3.03736">
        <ele>858.1</ele>
        <time>2021-08-26T16:14:21Z</time>
      </trkpt>
      <trkpt lat="45.72299" lon="3.03752">
        <ele>857.4</ele>
        <time>2021-08-26T16:14:23Z</time>
      </trkpt>
      <trkpt lat="45.72305" lon="3.0377">
        <ele>856.2</ele>
        <time>2021-08-26T16:14:25Z</time>
      </trkpt>
      <trkpt lat="45.72311" lon="3.03787">
        <ele>855.1</ele>
        <time>2021-08-26T16:14:27Z</time>
      </trkpt>
      <trkpt lat="45.72317" lon="3.03806">
        <ele>854.1</ele>
        <time>2021-08-26T16:14:29Z</time>
      </trkpt>
      <trkpt lat="45.72323" lon="3.03824">
        <ele>853.1</ele>
        <time>2021-08-26T16:14:31Z</time>
      </trkpt>
      <trkpt lat="45.7233" lon="3.03846">
        <ele>852.4</ele>
        <time>2021-08-26T16:14:33Z</time>
      </trkpt>
      <trkpt lat="45.72337" lon="3.03868">
        <ele>851.8</ele>
        <time>2021-08-26T16:14:35Z</time>
      </trkpt>
      <trkpt lat="45.72343" lon="3.03892">
        <ele>851.2</ele>
        <time>2021-08-26T16:14:37Z</time>
      </trkpt>
      <trkpt lat="45.72346" lon="3.03915">
        <ele>850.5</ele>
        <time>2021-08-26T16:14:39Z</time>
      </trkpt>
      <trkpt lat="45.72348" lon="3.03937">
        <ele>850</ele>
        <time>2021-08-26T16:14:41Z</time>
      </trkpt>
      <trkpt lat="45.72349" lon="3.03957">
        <ele>849.5</ele>
        <time>2021-08-26T16:14:43Z</time>
      </trkpt>
      <trkpt lat="45.72349" lon="3.03977">
        <ele>849</ele>
        <time>2021-08-26T16:14:45Z</time>
      </trkpt>
      <trkpt lat="45.72348" lon="3.03997">
        <ele>848.4</ele>
        <time>2021-08-26T16:14:47Z</time>
      </trkpt>
      <trkpt lat="45.72347" lon="3.04018">
        <ele>848.1</ele>
        <time>2021-08-26T16:14:49Z</time>
      </trkpt>
      <trkpt lat="45.72347" lon="3.04038">
        <ele>847.8</ele>
        <time>2021-08-26T16:14:51Z</time>
      </trkpt>
      <trkpt lat="45.72349" lon="3.04059">
        <ele>847.5</ele>
        <time>2021-08-26T16:14:53Z</time>
      </trkpt>
      <trkpt lat="45.72352" lon="3.04079">
        <ele>847.3</ele>
        <time>2021-08-26T16:14:55Z</time>
      </trkpt>
      <trkpt lat="45.72355" lon="3.04099">
        <ele>847.1</ele>
        <time>2021-08-26T16:14:57Z</time>
      </trkpt>
      <trkpt lat="45.72358" lon="3.04119">
        <ele>846.9</ele>
        <time>2021-08-26T16:14:59Z</time>
      </trkpt>
      <trkpt lat="45.72363" lon="3.04138">
        <ele>846.7</ele>
        <time>2021-08-26T16:15:01Z</time>
      </trkpt>
      <trkpt lat="45.72368" lon="3.04156">
        <ele>846.5</ele>
        <time>2021-08-26T16:15:03Z</time>
      </trkpt>
      <trkpt lat="45.72373" lon="3.04174">
        <ele>846.5</ele>
        <time>2021-08-26T16:15:05Z</time>
      </trkpt>
      <trkpt lat="45.72379" lon="3.04191">
        <ele>846.5</ele>
        <time>2021-08-26T16:15:07Z</time>
      </trkpt>
      <trkpt lat="45.72385" lon="3.04207">
        <ele>846.4</ele>
        <time>2021-08-26T16:15:09Z</time>
      </trkpt>
      <trkpt lat="45.72391" lon="3.04222">
        <ele>846.2</ele>
        <time>2021-08-26T16:15:11Z</time>
      </trkpt>
      <trkpt lat="45.72397" lon="3.04238">
        <ele>845.9</ele>
        <time>2021-08-26T16:15:13Z</time>
      </trkpt>
      <trkpt lat="45.72402" lon="3.04254">
        <ele>845.5</ele>
        <time>2021-08-26T16:15:15Z</time>
      </trkpt>
      <trkpt lat="45.72408" lon="3.0427">
        <ele>845.5</ele>
        <time>2021-08-26T16:15:17Z</time>
      </trkpt>
      <trkpt lat="45.72413" lon="3.04285">
        <ele>845.5</ele>
        <time>2021-08-26T16:15:19Z</time>
      </trkpt>
      <trkpt lat="45.72418" lon="3.04301">
        <ele>845.6</ele>
        <time>2021-08-26T16:15:21Z</time>
      </trkpt>
      <trkpt lat="45.72421" lon="3.04318">
        <ele>845.9</ele>
        <time>2021-08-26T16:15:23Z</time>
      </trkpt>
      <trkpt lat="45.72423" lon="3.04335">
        <ele>846</ele>
        <time>2021-08-26T16:15:25Z</time>
      </trkpt>
      <trkpt lat="45.72425" lon="3.04353">
        <ele>845.7</ele>
        <time>2021-08-26T16:15:27Z</time>
      </trkpt>
      <trkpt lat="45.72427" lon="3.0437">
        <ele>845.3</ele>
        <time>2021-08-26T16:15:29Z</time>
      </trkpt>
      <trkpt lat="45.7243" lon="3.04387">
        <ele>845</ele>
        <time>2021-08-26T16:15:31Z</time>
      </trkpt>
      <trkpt lat="45.72432" lon="3.04404">
        <ele>844.6</ele>
        <time>2021-08-26T16:15:33Z</time>
      </trkpt>
      <trkpt lat="45.72434" lon="3.0442">
        <ele>844.3</ele>
        <time>2021-08-26T16:15:35Z</time>
      </trkpt>
      <trkpt lat="45.72436" lon="3.04437">
        <ele>843.7</ele>
        <time>2021-08-26T16:15:37Z</time>
      </trkpt>
      <trkpt lat="45.72439" lon="3.04453">
        <ele>843.3</ele>
        <time>2021-08-26T16:15:39Z</time>
      </trkpt>
      <trkpt lat="45.72444" lon="3.04468">
        <ele>843</ele>
        <time>2021-08-26T16:15:41Z</time>
      </trkpt>
      <trkpt lat="45.7245" lon="3.0448">
        <ele>843</ele>
        <time>2021-08-26T16:15:43Z</time>
      </trkpt>
      <trkpt lat="45.72459" lon="3.04489">
        <ele>843.3</ele>
        <time>2021-08-26T16:15:45Z</time>
      </trkpt>
      <trkpt lat="45.72466" lon="3.04499">
        <ele>843.5</ele>
        <time>2021-08-26T16:15:47Z</time>
      </trkpt>
      <trkpt lat="45.72471" lon="3.04511">
        <ele>843.4</ele>
        <time>2021-08-26T16:15:49Z</time>
      </trkpt>
      <trkpt lat="45.72472" lon="3.04525">
        <ele>842.8</ele>
        <time>2021-08-26T16:15:51Z</time>
      </trkpt>
      <trkpt lat="45.72469" lon="3.0454">
        <ele>841.8</ele>
        <time>2021-08-26T16:15:53Z</time>
      </trkpt>
      <trkpt lat="45.7246" lon="3.04552">
        <ele>840.4</ele>
        <time>2021-08-26T16:15:55Z</time>
      </trkpt>
      <trkpt lat="45.72447" lon="3.04551">
        <ele>839.2</ele>
        <time>2021-08-26T16:15:57Z</time>
      </trkpt>
      <trkpt lat="45.72435" lon="3.04546">
        <ele>838.4</ele>
        <time>2021-08-26T16:15:59Z</time>
      </trkpt>
      <trkpt lat="45.72422" lon="3.04539">
        <ele>837.7</ele>
        <time>2021-08-26T16:16:01Z</time>
      </trkpt>
      <trkpt lat="45.72411" lon="3.04531">
        <ele>837.3</ele>
        <time>2021-08-26T16:16:03Z</time>
      </trkpt>
      <trkpt lat="45.72397" lon="3.04521">
        <ele>837</ele>
        <time>2021-08-26T16:16:05Z</time>
      </trkpt>
      <trkpt lat="45.72384" lon="3.04512">
        <ele>836.8</ele>
        <time>2021-08-26T16:16:07Z</time>
      </trkpt>
      <trkpt lat="45.7237" lon="3.04513">
        <ele>835.8</ele>
        <time>2021-08-26T16:16:09Z</time>
      </trkpt>
      <trkpt lat="45.72358" lon="3.04523">
        <ele>833.6</ele>
        <time>2021-08-26T16:16:11Z</time>
      </trkpt>
      <trkpt lat="45.72351" lon="3.04541">
        <ele>830.8</ele>
        <time>2021-08-26T16:16:13Z</time>
      </trkpt>
      <trkpt lat="45.72353" lon="3.04562">
        <ele>828.3</ele>
        <time>2021-08-26T16:16:15Z</time>
      </trkpt>
      <trkpt lat="45.72363" lon="3.0458">
        <ele>827.3</ele>
        <time>2021-08-26T16:16:17Z</time>
      </trkpt>
      <trkpt lat="45.72377" lon="3.0459">
        <ele>827.8</ele>
        <time>2021-08-26T16:16:19Z</time>
      </trkpt>
      <trkpt lat="45.7239" lon="3.04603">
        <ele>827.8</ele>
        <time>2021-08-26T16:16:21Z</time>
      </trkpt>
      <trkpt lat="45.72403" lon="3.04615">
        <ele>828.2</ele>
        <time>2021-08-26T16:16:23Z</time>
      </trkpt>
      <trkpt lat="45.72416" lon="3.04625">
        <ele>828.9</ele>
        <time>2021-08-26T16:16:25Z</time>
      </trkpt>
      <trkpt lat="45.72428" lon="3.04631">
        <ele>829.6</ele>
        <time>2021-08-26T16:16:27Z</time>
      </trkpt>
      <trkpt lat="45.72438" lon="3.04643">
        <ele>829.3</ele>
        <time>2021-08-26T16:16:29Z</time>
      </trkpt>
      <trkpt lat="45.72442" lon="3.04658">
        <ele>828.1</ele>
        <time>2021-08-26T16:16:31Z</time>
      </trkpt>
      <trkpt lat="45.72454" lon="3.0467">
        <ele>828.2</ele>
        <time>2021-08-26T16:16:33Z</time>
      </trkpt>
      <trkpt lat="45.72461" lon="3.04684">
        <ele>827.9</ele>
        <time>2021-08-26T16:16:35Z</time>
      </trkpt>
      <trkpt lat="45.72465" lon="3.04697">
        <ele>827.3</ele>
        <time>2021-08-26T16:16:37Z</time>
      </trkpt>
      <trkpt lat="45.72469" lon="3.0471">
        <ele>826.8</ele>
        <time>2021-08-26T16:16:39Z</time>
      </trkpt>
      <trkpt lat="45.72472" lon="3.04723">
        <ele>826.1</ele>
        <time>2021-08-26T16:16:41Z</time>
      </trkpt>
      <trkpt lat="45.72472" lon="3.04736">
        <ele>825</ele>
        <time>2021-08-26T16:16:43Z</time>
      </trkpt>
      <trkpt lat="45.72473" lon="3.0475">
        <ele>824.1</ele>
        <time>2021-08-26T16:16:45Z</time>
      </trkpt>
      <trkpt lat="45.72476" lon="3.04762">
        <ele>823.4</ele>
        <time>2021-08-26T16:16:47Z</time>
      </trkpt>
      <trkpt lat="45.72479" lon="3.04775">
        <ele>822.5</ele>
        <time>2021-08-26T16:16:49Z</time>
      </trkpt>
      <trkpt lat="45.72482" lon="3.04785">
        <ele>821.9</ele>
        <time>2021-08-26T16:16:51Z</time>
      </trkpt>
      <trkpt lat="45.72485" lon="3.04795">
        <ele>821.3</ele>
        <time>2021-08-26T16:16:53Z</time>
      </trkpt>
      <trkpt lat="45.7249" lon="3.04805">
        <ele>820.9</ele>
        <time>2021-08-26T16:16:55Z</time>
      </trkpt>
      <trkpt lat="45.72496" lon="3.04812">
        <ele>820.8</ele>
        <time>2021-08-26T16:16:57Z</time>
      </trkpt>
      <trkpt lat="45.725" lon="3.04819">
        <ele>820.6</ele>
        <time>2021-08-26T16:16:59Z</time>
      </trkpt>
      <trkpt lat="45.72504" lon="3.04825">
        <ele>820.1</ele>
        <time>2021-08-26T16:17:01Z</time>
      </trkpt>
      <trkpt lat="45.7251" lon="3.04834">
        <ele>819.4</ele>
        <time>2021-08-26T16:17:03Z</time>
      </trkpt>
      <trkpt lat="45.72515" lon="3.04842">
        <ele>818.7</ele>
        <time>2021-08-26T16:17:05Z</time>
      </trkpt>
      <trkpt lat="45.72521" lon="3.04849">
        <ele>818.2</ele>
        <time>2021-08-26T16:17:07Z</time>
      </trkpt>
      <trkpt lat="45.72527" lon="3.04856">
        <ele>817.5</ele>
        <time>2021-08-26T16:17:09Z</time>
      </trkpt>
      <trkpt lat="45.72533" lon="3.0486">
        <ele>817.1</ele>
        <time>2021-08-26T16:17:11Z</time>
      </trkpt>
      <trkpt lat="45.72536" lon="3.04864">
        <ele>816.8</ele>
        <time>2021-08-26T16:17:13Z</time>
      </trkpt>
      <trkpt lat="45.72539" lon="3.04867">
        <ele>816.5</ele>
        <time>2021-08-26T16:17:15Z</time>
      </trkpt>
      <trkpt lat="45.72543" lon="3.04869">
        <ele>816.3</ele>
        <time>2021-08-26T16:17:17Z</time>
      </trkpt>
      <trkpt lat="45.72547" lon="3.04873">
        <ele>815.9</ele>
        <time>2021-08-26T16:17:19Z</time>
      </trkpt>
      <trkpt lat="45.7255" lon="3.04875">
        <ele>815.6</ele>
        <time>2021-08-26T16:17:21Z</time>
      </trkpt>
      <trkpt lat="45.72552" lon="3.04877">
        <ele>815.5</ele>
        <time>2021-08-26T16:17:23Z</time>
      </trkpt>
      <trkpt lat="45.72555" lon="3.04879">
        <ele>815.3</ele>
        <time>2021-08-26T16:17:25Z</time>
      </trkpt>
      <trkpt lat="45.72557" lon="3.0488">
        <ele>815.2</ele>
        <time>2021-08-26T16:17:27Z</time>
      </trkpt>
      <trkpt lat="45.7256" lon="3.04881">
        <ele>815</ele>
        <time>2021-08-26T16:17:29Z</time>
      </trkpt>
      <trkpt lat="45.72563" lon="3.04882">
        <ele>814.9</ele>
        <time>2021-08-26T16:17:31Z</time>
      </trkpt>
      <trkpt lat="45.72565" lon="3.04883">
        <ele>814.9</ele>
        <time>2021-08-26T16:17:33Z</time>
      </trkpt>
      <trkpt lat="45.72567" lon="3.04884">
        <ele>814.8</ele>
        <time>2021-08-26T16:17:35Z</time>
      </trkpt>
      <trkpt lat="45.72569" lon="3.04884">
        <ele>814.8</ele>
        <time>2021-08-26T16:17:37Z</time>
      </trkpt>
      <trkpt lat="45.72573" lon="3.04885">
        <ele>814.8</ele>
        <time>2021-08-26T16:17:39Z</time>
      </trkpt>
      <trkpt lat="45.72575" lon="3.04885">
        <ele>814.8</ele>
        <time>2021-08-26T16:17:41Z</time>
      </trkpt>
      <trkpt lat="45.72578" lon="3.04885">
        <ele>814.8</ele>
        <time>2021-08-26T16:17:43Z</time>
      </trkpt>
      <trkpt lat="45.72581" lon="3.04885">
        <ele>814.9</ele>
        <time>2021-08-26T16:17:45Z</time>
      </trkpt>
      <trkpt lat="45.72584" lon="3.04885">
        <ele>814.9</ele>
        <time>2021-08-26T16:17:47Z</time>
      </trkpt>
      <trkpt lat="45.72587" lon="3.04885">
        <ele>815</ele>
        <time>2021-08-26T16:17:49Z</time>
      </trkpt>
      <trkpt lat="45.7259" lon="3.04886">
        <ele>815</ele>
        <time>2021-08-26T16:17:51Z</time>
      </trkpt>
      <trkpt lat="45.72593" lon="3.04886">
        <ele>815.1</ele>
        <time>2021-08-26T16:17:53Z</time>
      </trkpt>
      <trkpt lat="45.72597" lon="3.04886">
        <ele>815.3</ele>
        <time>2021-08-26T16:17:55Z</time>
      </trkpt>
      <trkpt lat="45.72603" lon="3.04887">
        <ele>815.2</ele>
        <time>2021-08-26T16:17:57Z</time>
      </trkpt>
      <trkpt lat="45.72609" lon="3.04888">
        <ele>815.3</ele>
        <time>2021-08-26T16:17:59Z</time>
      </trkpt>
      <trkpt lat="45.72615" lon="3.04889">
        <ele>815.3</ele>
        <time>2021-08-26T16:18:01Z</time>
      </trkpt>
      <trkpt lat="45.72623" lon="3.04891">
        <ele>815.4</ele>
        <time>2021-08-26T16:18:03Z</time>
      </trkpt>
      <trkpt lat="45.7263" lon="3.04893">
        <ele>815.3</ele>
        <time>2021-08-26T16:18:05Z</time>
      </trkpt>
      <trkpt lat="45.72637" lon="3.04896">
        <ele>815.2</ele>
        <time>2021-08-26T16:18:07Z</time>
      </trkpt>
      <trkpt lat="45.72643" lon="3.049">
        <ele>814.9</ele>
        <time>2021-08-26T16:18:09Z</time>
      </trkpt>
      <trkpt lat="45.72651" lon="3.04903">
        <ele>814.8</ele>
        <time>2021-08-26T16:18:11Z</time>
      </trkpt>
      <trkpt lat="45.72659" lon="3.04907">
        <ele>814.7</ele>
        <time>2021-08-26T16:18:13Z</time>
      </trkpt>
      <trkpt lat="45.72666" lon="3.04911">
        <ele>814.6</ele>
        <time>2021-08-26T16:18:15Z</time>
      </trkpt>
      <trkpt lat="45.72674" lon="3.04916">
        <ele>814</ele>
        <time>2021-08-26T16:18:17Z</time>
      </trkpt>
      <trkpt lat="45.72681" lon="3.04918">
        <ele>813.6</ele>
        <time>2021-08-26T16:18:19Z</time>
      </trkpt>
      <trkpt lat="45.72687" lon="3.04921">
        <ele>813.1</ele>
        <time>2021-08-26T16:18:21Z</time>
      </trkpt>
      <trkpt lat="45.72694" lon="3.04925">
        <ele>812.4</ele>
        <time>2021-08-26T16:18:23Z</time>
      </trkpt>
      <trkpt lat="45.72701" lon="3.04928">
        <ele>811.9</ele>
        <time>2021-08-26T16:18:25Z</time>
      </trkpt>
      <trkpt lat="45.72709" lon="3.04931">
        <ele>811.3</ele>
        <time>2021-08-26T16:18:27Z</time>
      </trkpt>
      <trkpt lat="45.72717" lon="3.04934">
        <ele>810.8</ele>
        <time>2021-08-26T16:18:29Z</time>
      </trkpt>
      <trkpt lat="45.72724" lon="3.04937">
        <ele>810.4</ele>
        <time>2021-08-26T16:18:31Z</time>
      </trkpt>
      <trkpt lat="45.72733" lon="3.04937">
        <ele>810.2</ele>
        <time>2021-08-26T16:18:33Z</time>
      </trkpt>
      <trkpt lat="45.72741" lon="3.04937">
        <ele>810.2</ele>
        <time>2021-08-26T16:18:35Z</time>
      </trkpt>
      <trkpt lat="45.7275" lon="3.04935">
        <ele>810.3</ele>
        <time>2021-08-26T16:18:37Z</time>
      </trkpt>
      <trkpt lat="45.72758" lon="3.04933">
        <ele>810.6</ele>
        <time>2021-08-26T16:18:39Z</time>
      </trkpt>
      <trkpt lat="45.72766" lon="3.0493">
        <ele>810.8</ele>
        <time>2021-08-26T16:18:41Z</time>
      </trkpt>
      <trkpt lat="45.72773" lon="3.04928">
        <ele>811</ele>
        <time>2021-08-26T16:18:43Z</time>
      </trkpt>
      <trkpt lat="45.72781" lon="3.04927">
        <ele>811.1</ele>
        <time>2021-08-26T16:18:45Z</time>
      </trkpt>
      <trkpt lat="45.72788" lon="3.04926">
        <ele>811</ele>
        <time>2021-08-26T16:18:47Z</time>
      </trkpt>
      <trkpt lat="45.72796" lon="3.04926">
        <ele>810.9</ele>
        <time>2021-08-26T16:18:49Z</time>
      </trkpt>
      <trkpt lat="45.72805" lon="3.04926">
        <ele>810.7</ele>
        <time>2021-08-26T16:18:51Z</time>
      </trkpt>
      <trkpt lat="45.72813" lon="3.04927">
        <ele>810.5</ele>
        <time>2021-08-26T16:18:53Z</time>
      </trkpt>
      <trkpt lat="45.72821" lon="3.04929">
        <ele>810.2</ele>
        <time>2021-08-26T16:18:55Z</time>
      </trkpt>
      <trkpt lat="45.72829" lon="3.0493">
        <ele>810</ele>
        <time>2021-08-26T16:18:57Z</time>
      </trkpt>
      <trkpt lat="45.72838" lon="3.04931">
        <ele>809.8</ele>
        <time>2021-08-26T16:18:59Z</time>
      </trkpt>
      <trkpt lat="45.72847" lon="3.04932">
        <ele>809.6</ele>
        <time>2021-08-26T16:19:01Z</time>
      </trkpt>
      <trkpt lat="45.72856" lon="3.04933">
        <ele>809.5</ele>
        <time>2021-08-26T16:19:03Z</time>
      </trkpt>
      <trkpt lat="45.72865" lon="3.04934">
        <ele>809.4</ele>
        <time>2021-08-26T16:19:05Z</time>
      </trkpt>
      <trkpt lat="45.72873" lon="3.04935">
        <ele>809.3</ele>
        <time>2021-08-26T16:19:07Z</time>
      </trkpt>
      <trkpt lat="45.72882" lon="3.04936">
        <ele>809.3</ele>
        <time>2021-08-26T16:19:09Z</time>
      </trkpt>
      <trkpt lat="45.7289" lon="3.04937">
        <ele>809.3</ele>
        <time>2021-08-26T16:19:11Z</time>
      </trkpt>
      <trkpt lat="45.72899" lon="3.04938">
        <ele>809.2</ele>
        <time>2021-08-26T16:19:13Z</time>
      </trkpt>
      <trkpt lat="45.72907" lon="3.04939">
        <ele>809.3</ele>
        <time>2021-08-26T16:19:15Z</time>
      </trkpt>
      <trkpt lat="45.72916" lon="3.04941">
        <ele>809.3</ele>
        <time>2021-08-26T16:19:17Z</time>
      </trkpt>
      <trkpt lat="45.72925" lon="3.04945">
        <ele>808.9</ele>
        <time>2021-08-26T16:19:19Z</time>
      </trkpt>
      <trkpt lat="45.72935" lon="3.04949">
        <ele>808.4</ele>
        <time>2021-08-26T16:19:21Z</time>
      </trkpt>
      <trkpt lat="45.72945" lon="3.04956">
        <ele>807.9</ele>
        <time>2021-08-26T16:19:23Z</time>
      </trkpt>
      <trkpt lat="45.72956" lon="3.04963">
        <ele>807.4</ele>
        <time>2021-08-26T16:19:25Z</time>
      </trkpt>
      <trkpt lat="45.72966" lon="3.04973">
        <ele>806.9</ele>
        <time>2021-08-26T16:19:27Z</time>
      </trkpt>
      <trkpt lat="45.72976" lon="3.04984">
        <ele>806.4</ele>
        <time>2021-08-26T16:19:29Z</time>
      </trkpt>
      <trkpt lat="45.72986" lon="3.04998">
        <ele>805.8</ele>
        <time>2021-08-26T16:19:31Z</time>
      </trkpt>
      <trkpt lat="45.72996" lon="3.05015">
        <ele>805.1</ele>
        <time>2021-08-26T16:19:33Z</time>
      </trkpt>
      <trkpt lat="45.73005" lon="3.05033">
        <ele>804.2</ele>
        <time>2021-08-26T16:19:35Z</time>
      </trkpt>
      <trkpt lat="45.73018" lon="3.05051">
        <ele>803</ele>
        <time>2021-08-26T16:19:37Z</time>
      </trkpt>
      <trkpt lat="45.73034" lon="3.05066">
        <ele>801.3</ele>
        <time>2021-08-26T16:19:39Z</time>
      </trkpt>
      <trkpt lat="45.7305" lon="3.05082">
        <ele>799.3</ele>
        <time>2021-08-26T16:19:41Z</time>
      </trkpt>
      <trkpt lat="45.73065" lon="3.051">
        <ele>798.7</ele>
        <time>2021-08-26T16:19:43Z</time>
      </trkpt>
      <trkpt lat="45.7308" lon="3.05119">
        <ele>798.5</ele>
        <time>2021-08-26T16:19:45Z</time>
      </trkpt>
      <trkpt lat="45.73095" lon="3.05137">
        <ele>797.8</ele>
        <time>2021-08-26T16:19:47Z</time>
      </trkpt>
      <trkpt lat="45.73111" lon="3.0515">
        <ele>796.5</ele>
        <time>2021-08-26T16:19:49Z</time>
      </trkpt>
      <trkpt lat="45.73131" lon="3.0516">
        <ele>794.4</ele>
        <time>2021-08-26T16:19:51Z</time>
      </trkpt>
      <trkpt lat="45.73152" lon="3.05169">
        <ele>792.3</ele>
        <time>2021-08-26T16:19:53Z</time>
      </trkpt>
      <trkpt lat="45.73173" lon="3.05182">
        <ele>790.9</ele>
        <time>2021-08-26T16:19:55Z</time>
      </trkpt>
      <trkpt lat="45.73193" lon="3.05199">
        <ele>789.5</ele>
        <time>2021-08-26T16:19:57Z</time>
      </trkpt>
      <trkpt lat="45.73213" lon="3.05217">
        <ele>788.1</ele>
        <time>2021-08-26T16:19:59Z</time>
      </trkpt>
      <trkpt lat="45.73233" lon="3.05229">
        <ele>785.8</ele>
        <time>2021-08-26T16:20:01Z</time>
      </trkpt>
      <trkpt lat="45.73254" lon="3.05241">
        <ele>782.9</ele>
        <time>2021-08-26T16:20:03Z</time>
      </trkpt>
      <trkpt lat="45.73274" lon="3.05251">
        <ele>778.6</ele>
        <time>2021-08-26T16:20:05Z</time>
      </trkpt>
      <trkpt lat="45.73293" lon="3.05261">
        <ele>775.4</ele>
        <time>2021-08-26T16:20:07Z</time>
      </trkpt>
      <trkpt lat="45.73313" lon="3.05271">
        <ele>772.5</ele>
        <time>2021-08-26T16:20:09Z</time>
      </trkpt>
      <trkpt lat="45.73333" lon="3.05283">
        <ele>770.1</ele>
        <time>2021-08-26T16:20:11Z</time>
      </trkpt>
      <trkpt lat="45.73351" lon="3.05293">
        <ele>767.4</ele>
        <time>2021-08-26T16:20:13Z</time>
      </trkpt>
      <trkpt lat="45.73369" lon="3.05298">
        <ele>763.3</ele>
        <time>2021-08-26T16:20:15Z</time>
      </trkpt>
      <trkpt lat="45.73386" lon="3.05308">
        <ele>760.5</ele>
        <time>2021-08-26T16:20:17Z</time>
      </trkpt>
      <trkpt lat="45.73403" lon="3.05324">
        <ele>759</ele>
        <time>2021-08-26T16:20:19Z</time>
      </trkpt>
      <trkpt lat="45.7342" lon="3.05344">
        <ele>757.9</ele>
        <time>2021-08-26T16:20:21Z</time>
      </trkpt>
      <trkpt lat="45.73435" lon="3.05362">
        <ele>754.8</ele>
        <time>2021-08-26T16:20:23Z</time>
      </trkpt>
      <trkpt lat="45.73449" lon="3.05381">
        <ele>752.3</ele>
        <time>2021-08-26T16:20:25Z</time>
      </trkpt>
      <trkpt lat="45.73461" lon="3.05404">
        <ele>751</ele>
        <time>2021-08-26T16:20:27Z</time>
      </trkpt>
      <trkpt lat="45.73469" lon="3.05431">
        <ele>749.2</ele>
        <time>2021-08-26T16:20:29Z</time>
      </trkpt>
      <trkpt lat="45.73478" lon="3.05458">
        <ele>745.3</ele>
        <time>2021-08-26T16:20:31Z</time>
      </trkpt>
      <trkpt lat="45.73483" lon="3.05483">
        <ele>743.1</ele>
        <time>2021-08-26T16:20:33Z</time>
      </trkpt>
      <trkpt lat="45.73482" lon="3.05507">
        <ele>742.4</ele>
        <time>2021-08-26T16:20:35Z</time>
      </trkpt>
      <trkpt lat="45.73479" lon="3.05532">
        <ele>740.9</ele>
        <time>2021-08-26T16:20:37Z</time>
      </trkpt>
      <trkpt lat="45.73473" lon="3.05558">
        <ele>740</ele>
        <time>2021-08-26T16:20:39Z</time>
      </trkpt>
      <trkpt lat="45.73467" lon="3.05581">
        <ele>739</ele>
        <time>2021-08-26T16:20:41Z</time>
      </trkpt>
      <trkpt lat="45.73468" lon="3.05605">
        <ele>733.4</ele>
        <time>2021-08-26T16:20:43Z</time>
      </trkpt>
      <trkpt lat="45.73463" lon="3.05626">
        <ele>729.6</ele>
        <time>2021-08-26T16:20:45Z</time>
      </trkpt>
      <trkpt lat="45.73449" lon="3.05644">
        <ele>728.1</ele>
        <time>2021-08-26T16:20:47Z</time>
      </trkpt>
      <trkpt lat="45.73431" lon="3.05656">
        <ele>728</ele>
        <time>2021-08-26T16:20:49Z</time>
      </trkpt>
      <trkpt lat="45.7341" lon="3.05662">
        <ele>728.8</ele>
        <time>2021-08-26T16:20:51Z</time>
      </trkpt>
      <trkpt lat="45.73388" lon="3.05664">
        <ele>728.5</ele>
        <time>2021-08-26T16:20:53Z</time>
      </trkpt>
      <trkpt lat="45.73365" lon="3.05666">
        <ele>728</ele>
        <time>2021-08-26T16:20:55Z</time>
      </trkpt>
      <trkpt lat="45.73344" lon="3.05666">
        <ele>728.2</ele>
        <time>2021-08-26T16:20:57Z</time>
      </trkpt>
      <trkpt lat="45.73323" lon="3.0567">
        <ele>727.1</ele>
        <time>2021-08-26T16:20:59Z</time>
      </trkpt>
      <trkpt lat="45.73304" lon="3.05678">
        <ele>724.6</ele>
        <time>2021-08-26T16:21:01Z</time>
      </trkpt>
      <trkpt lat="45.73288" lon="3.0569">
        <ele>720.2</ele>
        <time>2021-08-26T16:21:03Z</time>
      </trkpt>
      <trkpt lat="45.73276" lon="3.05702">
        <ele>715.6</ele>
        <time>2021-08-26T16:21:05Z</time>
      </trkpt>
      <trkpt lat="45.73258" lon="3.05706">
        <ele>713.9</ele>
        <time>2021-08-26T16:21:07Z</time>
      </trkpt>
      <trkpt lat="45.73238" lon="3.05707">
        <ele>713.2</ele>
        <time>2021-08-26T16:21:09Z</time>
      </trkpt>
      <trkpt lat="45.73219" lon="3.05707">
        <ele>712.1</ele>
        <time>2021-08-26T16:21:11Z</time>
      </trkpt>
      <trkpt lat="45.73201" lon="3.05706">
        <ele>711.6</ele>
        <time>2021-08-26T16:21:13Z</time>
      </trkpt>
      <trkpt lat="45.73184" lon="3.05701">
        <ele>713.3</ele>
        <time>2021-08-26T16:21:15Z</time>
      </trkpt>
      <trkpt lat="45.7317" lon="3.05692">
        <ele>716.2</ele>
        <time>2021-08-26T16:21:17Z</time>
      </trkpt>
      <trkpt lat="45.73156" lon="3.05684">
        <ele>720.2</ele>
        <time>2021-08-26T16:21:19Z</time>
      </trkpt>
      <trkpt lat="45.73143" lon="3.05681">
        <ele>721.9</ele>
        <time>2021-08-26T16:21:21Z</time>
      </trkpt>
      <trkpt lat="45.73131" lon="3.05689">
        <ele>719</ele>
        <time>2021-08-26T16:21:23Z</time>
      </trkpt>
      <trkpt lat="45.7312" lon="3.05704">
        <ele>712.6</ele>
        <time>2021-08-26T16:21:25Z</time>
      </trkpt>
      <trkpt lat="45.7311" lon="3.05718">
        <ele>706.5</ele>
        <time>2021-08-26T16:21:27Z</time>
      </trkpt>
      <trkpt lat="45.73098" lon="3.0573">
        <ele>701.3</ele>
        <time>2021-08-26T16:21:29Z</time>
      </trkpt>
      <trkpt lat="45.73082" lon="3.05738">
        <ele>698.1</ele>
        <time>2021-08-26T16:21:31Z</time>
      </trkpt>
      <trkpt lat="45.73064" lon="3.05739">
        <ele>699.2</ele>
        <time>2021-08-26T16:21:33Z</time>
      </trkpt>
      <trkpt lat="45.73046" lon="3.05738">
        <ele>701.3</ele>
        <time>2021-08-26T16:21:35Z</time>
      </trkpt>
      <trkpt lat="45.73029" lon="3.05741">
        <ele>702</ele>
        <time>2021-08-26T16:21:37Z</time>
      </trkpt>
      <trkpt lat="45.73014" lon="3.0575">
        <ele>700.4</ele>
        <time>2021-08-26T16:21:39Z</time>
      </trkpt>
      <trkpt lat="45.73003" lon="3.05768">
        <ele>699.5</ele>
        <time>2021-08-26T16:21:41Z</time>
      </trkpt>
      <trkpt lat="45.73002" lon="3.05793">
        <ele>697</ele>
        <time>2021-08-26T16:21:43Z</time>
      </trkpt>
      <trkpt lat="45.73005" lon="3.05817">
        <ele>693.1</ele>
        <time>2021-08-26T16:21:45Z</time>
      </trkpt>
      <trkpt lat="45.73009" lon="3.05842">
        <ele>688.2</ele>
        <time>2021-08-26T16:21:47Z</time>
      </trkpt>
      <trkpt lat="45.73011" lon="3.05866">
        <ele>683.5</ele>
        <time>2021-08-26T16:21:49Z</time>
      </trkpt>
      <trkpt lat="45.73012" lon="3.05885">
        <ele>679.8</ele>
        <time>2021-08-26T16:21:51Z</time>
      </trkpt>
      <trkpt lat="45.73008" lon="3.05906">
        <ele>677.9</ele>
        <time>2021-08-26T16:21:53Z</time>
      </trkpt>
      <trkpt lat="45.72997" lon="3.05926">
        <ele>677.2</ele>
        <time>2021-08-26T16:21:55Z</time>
      </trkpt>
      <trkpt lat="45.72981" lon="3.05943">
        <ele>677.4</ele>
        <time>2021-08-26T16:21:57Z</time>
      </trkpt>
      <trkpt lat="45.72966" lon="3.05961">
        <ele>677.2</ele>
        <time>2021-08-26T16:21:59Z</time>
      </trkpt>
      <trkpt lat="45.72949" lon="3.0598">
        <ele>676.6</ele>
        <time>2021-08-26T16:22:01Z</time>
      </trkpt>
      <trkpt lat="45.72933" lon="3.06">
        <ele>675.8</ele>
        <time>2021-08-26T16:22:03Z</time>
      </trkpt>
      <trkpt lat="45.72917" lon="3.06018">
        <ele>673.1</ele>
        <time>2021-08-26T16:22:05Z</time>
      </trkpt>
      <trkpt lat="45.72898" lon="3.0603">
        <ele>672.3</ele>
        <time>2021-08-26T16:22:07Z</time>
      </trkpt>
      <trkpt lat="45.72879" lon="3.06041">
        <ele>672.7</ele>
        <time>2021-08-26T16:22:09Z</time>
      </trkpt>
      <trkpt lat="45.7286" lon="3.06051">
        <ele>672.7</ele>
        <time>2021-08-26T16:22:11Z</time>
      </trkpt>
      <trkpt lat="45.72841" lon="3.06067">
        <ele>670.1</ele>
        <time>2021-08-26T16:22:13Z</time>
      </trkpt>
      <trkpt lat="45.72825" lon="3.06084">
        <ele>665.7</ele>
        <time>2021-08-26T16:22:15Z</time>
      </trkpt>
      <trkpt lat="45.72813" lon="3.06105">
        <ele>658.7</ele>
        <time>2021-08-26T16:22:17Z</time>
      </trkpt>
      <trkpt lat="45.728" lon="3.06124">
        <ele>651.7</ele>
        <time>2021-08-26T16:22:19Z</time>
      </trkpt>
      <trkpt lat="45.72783" lon="3.06138">
        <ele>647.7</ele>
        <time>2021-08-26T16:22:21Z</time>
      </trkpt>
      <trkpt lat="45.72763" lon="3.06149">
        <ele>645.9</ele>
        <time>2021-08-26T16:22:23Z</time>
      </trkpt>
      <trkpt lat="45.72741" lon="3.06155">
        <ele>645.4</ele>
        <time>2021-08-26T16:22:25Z</time>
      </trkpt>
      <trkpt lat="45.72722" lon="3.06159">
        <ele>645.7</ele>
        <time>2021-08-26T16:22:27Z</time>
      </trkpt>
      <trkpt lat="45.72707" lon="3.06162">
        <ele>646.1</ele>
        <time>2021-08-26T16:22:29Z</time>
      </trkpt>
      <trkpt lat="45.72694" lon="3.06164">
        <ele>646.9</ele>
        <time>2021-08-26T16:22:31Z</time>
      </trkpt>
      <trkpt lat="45.72683" lon="3.06164">
        <ele>648.2</ele>
        <time>2021-08-26T16:22:33Z</time>
      </trkpt>
      <trkpt lat="45.72676" lon="3.0617">
        <ele>646</ele>
        <time>2021-08-26T16:22:35Z</time>
      </trkpt>
      <trkpt lat="45.72675" lon="3.06183">
        <ele>639.7</ele>
        <time>2021-08-26T16:22:37Z</time>
      </trkpt>
      <trkpt lat="45.72683" lon="3.06191">
        <ele>635.3</ele>
        <time>2021-08-26T16:22:39Z</time>
      </trkpt>
      <trkpt lat="45.72693" lon="3.06191">
        <ele>634.2</ele>
        <time>2021-08-26T16:22:41Z</time>
      </trkpt>
      <trkpt lat="45.72707" lon="3.06189">
        <ele>633.9</ele>
        <time>2021-08-26T16:22:43Z</time>
      </trkpt>
      <trkpt lat="45.72721" lon="3.06184">
        <ele>634.6</ele>
        <time>2021-08-26T16:22:45Z</time>
      </trkpt>
      <trkpt lat="45.72737" lon="3.06182">
        <ele>633.9</ele>
        <time>2021-08-26T16:22:47Z</time>
      </trkpt>
      <trkpt lat="45.72753" lon="3.0618">
        <ele>632.9</ele>
        <time>2021-08-26T16:22:49Z</time>
      </trkpt>
      <trkpt lat="45.72771" lon="3.06179">
        <ele>630.5</ele>
        <time>2021-08-26T16:22:51Z</time>
      </trkpt>
      <trkpt lat="45.72788" lon="3.0618">
        <ele>627.7</ele>
        <time>2021-08-26T16:22:53Z</time>
      </trkpt>
      <trkpt lat="45.72805" lon="3.06179">
        <ele>625.2</ele>
        <time>2021-08-26T16:22:55Z</time>
      </trkpt>
      <trkpt lat="45.7282" lon="3.06175">
        <ele>624</ele>
        <time>2021-08-26T16:22:57Z</time>
      </trkpt>
      <trkpt lat="45.72833" lon="3.06167">
        <ele>624.1</ele>
        <time>2021-08-26T16:22:59Z</time>
      </trkpt>
      <trkpt lat="45.72844" lon="3.06154">
        <ele>628.2</ele>
        <time>2021-08-26T16:23:01Z</time>
      </trkpt>
      <trkpt lat="45.72854" lon="3.06141">
        <ele>632.3</ele>
        <time>2021-08-26T16:23:03Z</time>
      </trkpt>
      <trkpt lat="45.72869" lon="3.06132">
        <ele>633.6</ele>
        <time>2021-08-26T16:23:05Z</time>
      </trkpt>
      <trkpt lat="45.72885" lon="3.06126">
        <ele>633.3</ele>
        <time>2021-08-26T16:23:07Z</time>
      </trkpt>
      <trkpt lat="45.72903" lon="3.06124">
        <ele>630.6</ele>
        <time>2021-08-26T16:23:09Z</time>
      </trkpt>
      <trkpt lat="45.72924" lon="3.06121">
        <ele>627.7</ele>
        <time>2021-08-26T16:23:11Z</time>
      </trkpt>
      <trkpt lat="45.72943" lon="3.06118">
        <ele>624.7</ele>
        <time>2021-08-26T16:23:13Z</time>
      </trkpt>
      <trkpt lat="45.72965" lon="3.06112">
        <ele>622.4</ele>
        <time>2021-08-26T16:23:15Z</time>
      </trkpt>
      <trkpt lat="45.72984" lon="3.06103">
        <ele>620.8</ele>
        <time>2021-08-26T16:23:17Z</time>
      </trkpt>
      <trkpt lat="45.73002" lon="3.06094">
        <ele>619.6</ele>
        <time>2021-08-26T16:23:19Z</time>
      </trkpt>
      <trkpt lat="45.73019" lon="3.06084">
        <ele>618.7</ele>
        <time>2021-08-26T16:23:21Z</time>
      </trkpt>
      <trkpt lat="45.73032" lon="3.06075">
        <ele>618.4</ele>
        <time>2021-08-26T16:23:23Z</time>
      </trkpt>
      <trkpt lat="45.73045" lon="3.06066">
        <ele>618.3</ele>
        <time>2021-08-26T16:23:25Z</time>
      </trkpt>
      <trkpt lat="45.73056" lon="3.06059">
        <ele>617.4</ele>
        <time>2021-08-26T16:23:27Z</time>
      </trkpt>
      <trkpt lat="45.73068" lon="3.06063">
        <ele>612.9</ele>
        <time>2021-08-26T16:23:29Z</time>
      </trkpt>
      <trkpt lat="45.73077" lon="3.06075">
        <ele>607.8</ele>
        <time>2021-08-26T16:23:31Z</time>
      </trkpt>
      <trkpt lat="45.73079" lon="3.06088">
        <ele>604.2</ele>
        <time>2021-08-26T16:23:33Z</time>
      </trkpt>
      <trkpt lat="45.73079" lon="3.061">
        <ele>602.4</ele>
        <time>2021-08-26T16:23:35Z</time>
      </trkpt>
      <trkpt lat="45.73077" lon="3.06107">
        <ele>601.8</ele>
        <time>2021-08-26T16:23:37Z</time>
      </trkpt>
      <trkpt lat="45.73075" lon="3.06107">
        <ele>602.3</ele>
        <time>2021-08-26T16:23:39Z</time>
      </trkpt>
      <trkpt lat="45.73075" lon="3.06107">
        <ele>602.2</ele>
        <time>2021-08-26T16:23:41Z</time>
      </trkpt>
      <trkpt lat="45.73075" lon="3.06107">
        <ele>602.2</ele>
        <time>2021-08-26T16:23:43Z</time>
      </trkpt>
      <trkpt lat="45.73075" lon="3.06107">
        <ele>602.2</ele>
        <time>2021-08-26T16:23:45Z</time>
      </trkpt>
      <trkpt lat="45.73075" lon="3.06108">
        <ele>602.1</ele>
        <time>2021-08-26T16:23:47Z</time>
      </trkpt>
      <trkpt lat="45.73083" lon="3.06124">
        <ele>598.2</ele>
        <time>2021-08-26T16:24:35Z</time>
      </trkpt>
      <trkpt lat="45.73089" lon="3.06125">
        <ele>598.1</ele>
        <time>2021-08-26T16:24:37Z</time>
      </trkpt>
      <trkpt lat="45.73096" lon="3.06126">
        <ele>597.9</ele>
        <time>2021-08-26T16:24:39Z</time>
      </trkpt>
      <trkpt lat="45.73103" lon="3.06127">
        <ele>597.8</ele>
        <time>2021-08-26T16:24:41Z</time>
      </trkpt>
      <trkpt lat="45.73111" lon="3.06129">
        <ele>597.6</ele>
        <time>2021-08-26T16:24:43Z</time>
      </trkpt>
      <trkpt lat="45.73117" lon="3.06131">
        <ele>597.4</ele>
        <time>2021-08-26T16:24:45Z</time>
      </trkpt>
      <trkpt lat="45.73123" lon="3.06133">
        <ele>597.2</ele>
        <time>2021-08-26T16:24:47Z</time>
      </trkpt>
      <trkpt lat="45.7313" lon="3.06134">
        <ele>597</ele>
        <time>2021-08-26T16:24:49Z</time>
      </trkpt>
      <trkpt lat="45.73137" lon="3.06136">
        <ele>596.9</ele>
        <time>2021-08-26T16:24:51Z</time>
      </trkpt>
      <trkpt lat="45.73144" lon="3.06136">
        <ele>596.8</ele>
        <time>2021-08-26T16:24:53Z</time>
      </trkpt>
      <trkpt lat="45.7315" lon="3.06138">
        <ele>596.7</ele>
        <time>2021-08-26T16:24:55Z</time>
      </trkpt>
      <trkpt lat="45.73156" lon="3.0614">
        <ele>596.5</ele>
        <time>2021-08-26T16:24:57Z</time>
      </trkpt>
      <trkpt lat="45.73162" lon="3.06142">
        <ele>596.3</ele>
        <time>2021-08-26T16:24:59Z</time>
      </trkpt>
      <trkpt lat="45.73168" lon="3.06144">
        <ele>596</ele>
        <time>2021-08-26T16:25:01Z</time>
      </trkpt>
      <trkpt lat="45.73173" lon="3.06145">
        <ele>595.6</ele>
        <time>2021-08-26T16:25:03Z</time>
      </trkpt>
      <trkpt lat="45.73179" lon="3.06146">
        <ele>595.3</ele>
        <time>2021-08-26T16:25:05Z</time>
      </trkpt>
      <trkpt lat="45.73186" lon="3.06145">
        <ele>595.2</ele>
        <time>2021-08-26T16:25:07Z</time>
      </trkpt>
      <trkpt lat="45.73193" lon="3.06145">
        <ele>595</ele>
        <time>2021-08-26T16:25:09Z</time>
      </trkpt>
      <trkpt lat="45.73199" lon="3.06143">
        <ele>595.1</ele>
        <time>2021-08-26T16:25:11Z</time>
      </trkpt>
      <trkpt lat="45.73206" lon="3.06142">
        <ele>595</ele>
        <time>2021-08-26T16:25:13Z</time>
      </trkpt>
      <trkpt lat="45.73214" lon="3.0614">
        <ele>594.9</ele>
        <time>2021-08-26T16:25:15Z</time>
      </trkpt>
      <trkpt lat="45.73222" lon="3.0614">
        <ele>594.8</ele>
        <time>2021-08-26T16:25:17Z</time>
      </trkpt>
      <trkpt lat="45.7323" lon="3.06138">
        <ele>594.8</ele>
        <time>2021-08-26T16:25:19Z</time>
      </trkpt>
      <trkpt lat="45.73239" lon="3.06136">
        <ele>594.7</ele>
        <time>2021-08-26T16:25:21Z</time>
      </trkpt>
      <trkpt lat="45.73248" lon="3.06135">
        <ele>594.6</ele>
        <time>2021-08-26T16:25:23Z</time>
      </trkpt>
      <trkpt lat="45.73257" lon="3.06133">
        <ele>594.6</ele>
        <time>2021-08-26T16:25:25Z</time>
      </trkpt>
      <trkpt lat="45.73267" lon="3.06132">
        <ele>594.5</ele>
        <time>2021-08-26T16:25:27Z</time>
      </trkpt>
      <trkpt lat="45.73277" lon="3.0613">
        <ele>594.4</ele>
        <time>2021-08-26T16:25:29Z</time>
      </trkpt>
      <trkpt lat="45.73287" lon="3.06128">
        <ele>594.4</ele>
        <time>2021-08-26T16:25:31Z</time>
      </trkpt>
      <trkpt lat="45.73298" lon="3.06127">
        <ele>594.3</ele>
        <time>2021-08-26T16:25:33Z</time>
      </trkpt>
      <trkpt lat="45.73309" lon="3.06125">
        <ele>594.2</ele>
        <time>2021-08-26T16:25:35Z</time>
      </trkpt>
      <trkpt lat="45.73321" lon="3.06123">
        <ele>594.1</ele>
        <time>2021-08-26T16:25:37Z</time>
      </trkpt>
      <trkpt lat="45.73332" lon="3.06121">
        <ele>594</ele>
        <time>2021-08-26T16:25:39Z</time>
      </trkpt>
      <trkpt lat="45.73344" lon="3.06119">
        <ele>594.3</ele>
        <time>2021-08-26T16:25:41Z</time>
      </trkpt>
      <trkpt lat="45.73356" lon="3.06117">
        <ele>594.6</ele>
        <time>2021-08-26T16:25:43Z</time>
      </trkpt>
      <trkpt lat="45.73368" lon="3.06117">
        <ele>594.7</ele>
        <time>2021-08-26T16:25:45Z</time>
      </trkpt>
      <trkpt lat="45.73381" lon="3.06119">
        <ele>594.5</ele>
        <time>2021-08-26T16:25:47Z</time>
      </trkpt>
      <trkpt lat="45.73393" lon="3.06124">
        <ele>593.7</ele>
        <time>2021-08-26T16:25:49Z</time>
      </trkpt>
      <trkpt lat="45.73404" lon="3.06128">
        <ele>592.9</ele>
        <time>2021-08-26T16:25:51Z</time>
      </trkpt>
      <trkpt lat="45.73415" lon="3.06133">
        <ele>592.1</ele>
        <time>2021-08-26T16:25:53Z</time>
      </trkpt>
      <trkpt lat="45.73425" lon="3.06137">
        <ele>591.2</ele>
        <time>2021-08-26T16:25:55Z</time>
      </trkpt>
      <trkpt lat="45.73435" lon="3.06141">
        <ele>590.3</ele>
        <time>2021-08-26T16:25:57Z</time>
      </trkpt>
      <trkpt lat="45.73445" lon="3.06144">
        <ele>589.5</ele>
        <time>2021-08-26T16:25:59Z</time>
      </trkpt>
      <trkpt lat="45.73454" lon="3.06148">
        <ele>588.5</ele>
        <time>2021-08-26T16:26:01Z</time>
      </trkpt>
      <trkpt lat="45.73464" lon="3.06151">
        <ele>587.8</ele>
        <time>2021-08-26T16:26:03Z</time>
      </trkpt>
      <trkpt lat="45.73473" lon="3.06155">
        <ele>586.9</ele>
        <time>2021-08-26T16:26:05Z</time>
      </trkpt>
      <trkpt lat="45.73483" lon="3.06159">
        <ele>585.9</ele>
        <time>2021-08-26T16:26:07Z</time>
      </trkpt>
      <trkpt lat="45.73495" lon="3.06162">
        <ele>585</ele>
        <time>2021-08-26T16:26:09Z</time>
      </trkpt>
      <trkpt lat="45.73507" lon="3.0616">
        <ele>585.1</ele>
        <time>2021-08-26T16:26:11Z</time>
      </trkpt>
      <trkpt lat="45.7352" lon="3.06157">
        <ele>585.1</ele>
        <time>2021-08-26T16:26:13Z</time>
      </trkpt>
      <trkpt lat="45.73535" lon="3.06155">
        <ele>585</ele>
        <time>2021-08-26T16:26:15Z</time>
      </trkpt>
      <trkpt lat="45.7355" lon="3.06156">
        <ele>584.4</ele>
        <time>2021-08-26T16:26:17Z</time>
      </trkpt>
      <trkpt lat="45.73563" lon="3.06157">
        <ele>583.9</ele>
        <time>2021-08-26T16:26:19Z</time>
      </trkpt>
      <trkpt lat="45.73575" lon="3.06157">
        <ele>583.5</ele>
        <time>2021-08-26T16:26:21Z</time>
      </trkpt>
      <trkpt lat="45.73586" lon="3.06154">
        <ele>583.6</ele>
        <time>2021-08-26T16:26:23Z</time>
      </trkpt>
      <trkpt lat="45.73597" lon="3.06152">
        <ele>583.8</ele>
        <time>2021-08-26T16:26:25Z</time>
      </trkpt>
      <trkpt lat="45.73606" lon="3.06147">
        <ele>584.4</ele>
        <time>2021-08-26T16:26:27Z</time>
      </trkpt>
      <trkpt lat="45.73617" lon="3.06142">
        <ele>584.8</ele>
        <time>2021-08-26T16:26:29Z</time>
      </trkpt>
      <trkpt lat="45.73627" lon="3.06138">
        <ele>585.1</ele>
        <time>2021-08-26T16:26:31Z</time>
      </trkpt>
      <trkpt lat="45.73637" lon="3.06134">
        <ele>585.3</ele>
        <time>2021-08-26T16:26:33Z</time>
      </trkpt>
      <trkpt lat="45.73647" lon="3.0613">
        <ele>585.5</ele>
        <time>2021-08-26T16:26:35Z</time>
      </trkpt>
      <trkpt lat="45.73656" lon="3.06127">
        <ele>585.6</ele>
        <time>2021-08-26T16:26:37Z</time>
      </trkpt>
      <trkpt lat="45.73665" lon="3.06124">
        <ele>585.6</ele>
        <time>2021-08-26T16:26:39Z</time>
      </trkpt>
      <trkpt lat="45.73674" lon="3.06122">
        <ele>585.8</ele>
        <time>2021-08-26T16:26:41Z</time>
      </trkpt>
      <trkpt lat="45.73682" lon="3.0612">
        <ele>586</ele>
        <time>2021-08-26T16:26:43Z</time>
      </trkpt>
      <trkpt lat="45.73689" lon="3.06117">
        <ele>586.2</ele>
        <time>2021-08-26T16:26:45Z</time>
      </trkpt>
      <trkpt lat="45.73696" lon="3.06117">
        <ele>586.3</ele>
        <time>2021-08-26T16:26:47Z</time>
      </trkpt>
      <trkpt lat="45.73701" lon="3.0612">
        <ele>586.1</ele>
        <time>2021-08-26T16:26:49Z</time>
      </trkpt>
      <trkpt lat="45.73702" lon="3.06121">
        <ele>586</ele>
        <time>2021-08-26T16:26:51Z</time>
      </trkpt>
      <trkpt lat="45.73702" lon="3.06121">
        <ele>586</ele>
        <time>2021-08-26T16:26:53Z</time>
      </trkpt>
      <trkpt lat="45.73703" lon="3.06122">
        <ele>586</ele>
        <time>2021-08-26T16:26:55Z</time>
      </trkpt>
      <trkpt lat="45.73708" lon="3.06123">
        <ele>585.9</ele>
        <time>2021-08-26T16:26:57Z</time>
      </trkpt>
      <trkpt lat="45.73715" lon="3.06119">
        <ele>586.2</ele>
        <time>2021-08-26T16:26:59Z</time>
      </trkpt>
      <trkpt lat="45.7372" lon="3.06112">
        <ele>586.8</ele>
        <time>2021-08-26T16:27:01Z</time>
      </trkpt>
      <trkpt lat="45.73725" lon="3.06108">
        <ele>587.2</ele>
        <time>2021-08-26T16:27:03Z</time>
      </trkpt>
      <trkpt lat="45.73731" lon="3.06104">
        <ele>587.4</ele>
        <time>2021-08-26T16:27:05Z</time>
      </trkpt>
      <trkpt lat="45.73738" lon="3.06101">
        <ele>587.7</ele>
        <time>2021-08-26T16:27:07Z</time>
      </trkpt>
      <trkpt lat="45.73744" lon="3.06097">
        <ele>588</ele>
        <time>2021-08-26T16:27:09Z</time>
      </trkpt>
      <trkpt lat="45.73749" lon="3.06093">
        <ele>588.3</ele>
        <time>2021-08-26T16:27:11Z</time>
      </trkpt>
      <trkpt lat="45.73755" lon="3.06089">
        <ele>589</ele>
        <time>2021-08-26T16:27:13Z</time>
      </trkpt>
      <trkpt lat="45.73758" lon="3.06087">
        <ele>589.3</ele>
        <time>2021-08-26T16:27:15Z</time>
      </trkpt>
      <trkpt lat="45.73763" lon="3.06084">
        <ele>589.9</ele>
        <time>2021-08-26T16:27:17Z</time>
      </trkpt>
      <trkpt lat="45.73769" lon="3.0608">
        <ele>590.7</ele>
        <time>2021-08-26T16:27:19Z</time>
      </trkpt>
      <trkpt lat="45.73776" lon="3.06075">
        <ele>591.6</ele>
        <time>2021-08-26T16:27:21Z</time>
      </trkpt>
      <trkpt lat="45.73781" lon="3.06073">
        <ele>592</ele>
        <time>2021-08-26T16:27:23Z</time>
      </trkpt>
      <trkpt lat="45.73784" lon="3.0607">
        <ele>592.5</ele>
        <time>2021-08-26T16:27:25Z</time>
      </trkpt>
      <trkpt lat="45.73789" lon="3.06067">
        <ele>593</ele>
        <time>2021-08-26T16:27:27Z</time>
      </trkpt>
      <trkpt lat="45.73795" lon="3.06064">
        <ele>593.6</ele>
        <time>2021-08-26T16:27:29Z</time>
      </trkpt>
      <trkpt lat="45.73801" lon="3.0606">
        <ele>594.1</ele>
        <time>2021-08-26T16:27:31Z</time>
      </trkpt>
      <trkpt lat="45.73806" lon="3.06057">
        <ele>594.6</ele>
        <time>2021-08-26T16:27:33Z</time>
      </trkpt>
      <trkpt lat="45.7381" lon="3.06054">
        <ele>595</ele>
        <time>2021-08-26T16:27:35Z</time>
      </trkpt>
      <trkpt lat="45.73815" lon="3.06052">
        <ele>595.3</ele>
        <time>2021-08-26T16:27:37Z</time>
      </trkpt>
      <trkpt lat="45.73819" lon="3.0605">
        <ele>595.6</ele>
        <time>2021-08-26T16:27:39Z</time>
      </trkpt>
      <trkpt lat="45.73822" lon="3.06048">
        <ele>595.8</ele>
        <time>2021-08-26T16:27:41Z</time>
      </trkpt>
      <trkpt lat="45.73825" lon="3.06047">
        <ele>596</ele>
        <time>2021-08-26T16:27:43Z</time>
      </trkpt>
      <trkpt lat="45.73825" lon="3.06046">
        <ele>596</ele>
        <time>2021-08-26T16:27:45Z</time>
      </trkpt>
      <trkpt lat="45.73825" lon="3.06046">
        <ele>596</ele>
        <time>2021-08-26T16:27:47Z</time>
      </trkpt>
      <trkpt lat="45.73825" lon="3.06045">
        <ele>596</ele>
        <time>2021-08-26T16:27:49Z</time>
      </trkpt>
      <trkpt lat="45.73825" lon="3.06045">
        <ele>596.1</ele>
        <time>2021-08-26T16:27:51Z</time>
      </trkpt>
      <trkpt lat="45.73826" lon="3.06045">
        <ele>596.1</ele>
        <time>2021-08-26T16:27:53Z</time>
      </trkpt>
      <trkpt lat="45.73836" lon="3.06037">
        <ele>596.5</ele>
        <time>2021-08-26T16:28:57Z</time>
      </trkpt>
      <trkpt lat="45.73841" lon="3.06035">
        <ele>596.1</ele>
        <time>2021-08-26T16:28:59Z</time>
      </trkpt>
      <trkpt lat="45.73847" lon="3.06032">
        <ele>595.7</ele>
        <time>2021-08-26T16:29:01Z</time>
      </trkpt>
      <trkpt lat="45.73854" lon="3.06029">
        <ele>595.3</ele>
        <time>2021-08-26T16:29:03Z</time>
      </trkpt>
      <trkpt lat="45.73859" lon="3.06026">
        <ele>594.9</ele>
        <time>2021-08-26T16:29:05Z</time>
      </trkpt>
      <trkpt lat="45.73865" lon="3.06023">
        <ele>594.4</ele>
        <time>2021-08-26T16:29:07Z</time>
      </trkpt>
      <trkpt lat="45.73872" lon="3.06021">
        <ele>593.8</ele>
        <time>2021-08-26T16:29:09Z</time>
      </trkpt>
      <trkpt lat="45.73879" lon="3.06018">
        <ele>593.1</ele>
        <time>2021-08-26T16:29:11Z</time>
      </trkpt>
      <trkpt lat="45.73886" lon="3.06014">
        <ele>592.4</ele>
        <time>2021-08-26T16:29:13Z</time>
      </trkpt>
      <trkpt lat="45.73895" lon="3.06011">
        <ele>591.5</ele>
        <time>2021-08-26T16:29:15Z</time>
      </trkpt>
      <trkpt lat="45.73903" lon="3.06007">
        <ele>590.7</ele>
        <time>2021-08-26T16:29:17Z</time>
      </trkpt>
      <trkpt lat="45.73909" lon="3.06004">
        <ele>590</ele>
        <time>2021-08-26T16:29:19Z</time>
      </trkpt>
      <trkpt lat="45.73914" lon="3.06002">
        <ele>589.4</ele>
        <time>2021-08-26T16:29:21Z</time>
      </trkpt>
      <trkpt lat="45.73918" lon="3.06">
        <ele>588.9</ele>
        <time>2021-08-26T16:29:23Z</time>
      </trkpt>
      <trkpt lat="45.73923" lon="3.05998">
        <ele>588.3</ele>
        <time>2021-08-26T16:29:25Z</time>
      </trkpt>
      <trkpt lat="45.7393" lon="3.05995">
        <ele>587.6</ele>
        <time>2021-08-26T16:29:27Z</time>
      </trkpt>
      <trkpt lat="45.73937" lon="3.05991">
        <ele>586.8</ele>
        <time>2021-08-26T16:29:29Z</time>
      </trkpt>
      <trkpt lat="45.73946" lon="3.05988">
        <ele>586</ele>
        <time>2021-08-26T16:29:31Z</time>
      </trkpt>
      <trkpt lat="45.73953" lon="3.05984">
        <ele>585.4</ele>
        <time>2021-08-26T16:29:33Z</time>
      </trkpt>
      <trkpt lat="45.73959" lon="3.05982">
        <ele>584.7</ele>
        <time>2021-08-26T16:29:35Z</time>
      </trkpt>
      <trkpt lat="45.73965" lon="3.05989">
        <ele>584</ele>
        <time>2021-08-26T16:29:37Z</time>
      </trkpt>
      <trkpt lat="45.73973" lon="3.05995">
        <ele>583.1</ele>
        <time>2021-08-26T16:29:39Z</time>
      </trkpt>
      <trkpt lat="45.73981" lon="3.06001">
        <ele>582</ele>
        <time>2021-08-26T16:29:41Z</time>
      </trkpt>
      <trkpt lat="45.73989" lon="3.06005">
        <ele>581.4</ele>
        <time>2021-08-26T16:29:43Z</time>
      </trkpt>
      <trkpt lat="45.73996" lon="3.0601">
        <ele>580.8</ele>
        <time>2021-08-26T16:29:45Z</time>
      </trkpt>
      <trkpt lat="45.74002" lon="3.06013">
        <ele>580.3</ele>
        <time>2021-08-26T16:29:47Z</time>
      </trkpt>
      <trkpt lat="45.74007" lon="3.06016">
        <ele>579.9</ele>
        <time>2021-08-26T16:29:49Z</time>
      </trkpt>
      <trkpt lat="45.74012" lon="3.06019">
        <ele>579.5</ele>
        <time>2021-08-26T16:29:51Z</time>
      </trkpt>
      <trkpt lat="45.74017" lon="3.06023">
        <ele>579</ele>
        <time>2021-08-26T16:29:53Z</time>
      </trkpt>
      <trkpt lat="45.74022" lon="3.06026">
        <ele>578.6</ele>
        <time>2021-08-26T16:29:55Z</time>
      </trkpt>
      <trkpt lat="45.74026" lon="3.06028">
        <ele>578.3</ele>
        <time>2021-08-26T16:29:57Z</time>
      </trkpt>
      <trkpt lat="45.74029" lon="3.0603">
        <ele>578</ele>
        <time>2021-08-26T16:29:59Z</time>
      </trkpt>
      <trkpt lat="45.74031" lon="3.06032">
        <ele>577.9</ele>
        <time>2021-08-26T16:30:01Z</time>
      </trkpt>
      <trkpt lat="45.74033" lon="3.06033">
        <ele>577.7</ele>
        <time>2021-08-26T16:30:03Z</time>
      </trkpt>
      <trkpt lat="45.74036" lon="3.06033">
        <ele>577.4</ele>
        <time>2021-08-26T16:30:05Z</time>
      </trkpt>
      <trkpt lat="45.74041" lon="3.06031">
        <ele>576.8</ele>
        <time>2021-08-26T16:30:07Z</time>
      </trkpt>
      <trkpt lat="45.74044" lon="3.06029">
        <ele>576.5</ele>
        <time>2021-08-26T16:30:09Z</time>
      </trkpt>
      <trkpt lat="45.74046" lon="3.0603">
        <ele>576.3</ele>
        <time>2021-08-26T16:30:11Z</time>
      </trkpt>
      <trkpt lat="45.74047" lon="3.06032">
        <ele>576.2</ele>
        <time>2021-08-26T16:30:13Z</time>
      </trkpt>
      <trkpt lat="45.74046" lon="3.06032">
        <ele>576.3</ele>
        <time>2021-08-26T16:30:15Z</time>
      </trkpt>
      <trkpt lat="45.74047" lon="3.06032">
        <ele>576.2</ele>
        <time>2021-08-26T16:30:17Z</time>
      </trkpt>
      <trkpt lat="45.74047" lon="3.06032">
        <ele>576.2</ele>
        <time>2021-08-26T16:30:19Z</time>
      </trkpt>
      <trkpt lat="45.74072" lon="3.06052">
        <ele>573.9</ele>
        <time>2021-08-26T16:30:49Z</time>
      </trkpt>
      <trkpt lat="45.74079" lon="3.06055">
        <ele>573.1</ele>
        <time>2021-08-26T16:30:51Z</time>
      </trkpt>
      <trkpt lat="45.74086" lon="3.06058">
        <ele>572.5</ele>
        <time>2021-08-26T16:30:53Z</time>
      </trkpt>
      <trkpt lat="45.74091" lon="3.06061">
        <ele>572</ele>
        <time>2021-08-26T16:30:55Z</time>
      </trkpt>
      <trkpt lat="45.74097" lon="3.06062">
        <ele>571.5</ele>
        <time>2021-08-26T16:30:57Z</time>
      </trkpt>
      <trkpt lat="45.74104" lon="3.06065">
        <ele>571</ele>
        <time>2021-08-26T16:30:59Z</time>
      </trkpt>
      <trkpt lat="45.74111" lon="3.06069">
        <ele>570.3</ele>
        <time>2021-08-26T16:31:01Z</time>
      </trkpt>
      <trkpt lat="45.74118" lon="3.06071">
        <ele>569.8</ele>
        <time>2021-08-26T16:31:03Z</time>
      </trkpt>
      <trkpt lat="45.74124" lon="3.06075">
        <ele>569.1</ele>
        <time>2021-08-26T16:31:05Z</time>
      </trkpt>
      <trkpt lat="45.74131" lon="3.06078">
        <ele>568.5</ele>
        <time>2021-08-26T16:31:07Z</time>
      </trkpt>
      <trkpt lat="45.74137" lon="3.0608">
        <ele>567.9</ele>
        <time>2021-08-26T16:31:09Z</time>
      </trkpt>
      <trkpt lat="45.74142" lon="3.06082">
        <ele>567.4</ele>
        <time>2021-08-26T16:31:11Z</time>
      </trkpt>
      <trkpt lat="45.74147" lon="3.06085">
        <ele>566.9</ele>
        <time>2021-08-26T16:31:13Z</time>
      </trkpt>
      <trkpt lat="45.74153" lon="3.06088">
        <ele>566.6</ele>
        <time>2021-08-26T16:31:15Z</time>
      </trkpt>
      <trkpt lat="45.74159" lon="3.06091">
        <ele>566.1</ele>
        <time>2021-08-26T16:31:17Z</time>
      </trkpt>
      <trkpt lat="45.74166" lon="3.06096">
        <ele>565.7</ele>
        <time>2021-08-26T16:31:19Z</time>
      </trkpt>
      <trkpt lat="45.74171" lon="3.06101">
        <ele>565.5</ele>
        <time>2021-08-26T16:31:21Z</time>
      </trkpt>
      <trkpt lat="45.74179" lon="3.06103">
        <ele>565.1</ele>
        <time>2021-08-26T16:31:23Z</time>
      </trkpt>
      <trkpt lat="45.74187" lon="3.06102">
        <ele>564.6</ele>
        <time>2021-08-26T16:31:25Z</time>
      </trkpt>
      <trkpt lat="45.74193" lon="3.06099">
        <ele>564.1</ele>
        <time>2021-08-26T16:31:27Z</time>
      </trkpt>
      <trkpt lat="45.742" lon="3.06098">
        <ele>563.6</ele>
        <time>2021-08-26T16:31:29Z</time>
      </trkpt>
      <trkpt lat="45.74208" lon="3.06102">
        <ele>563.2</ele>
        <time>2021-08-26T16:31:31Z</time>
      </trkpt>
      <trkpt lat="45.74217" lon="3.0611">
        <ele>562.9</ele>
        <time>2021-08-26T16:31:33Z</time>
      </trkpt>
      <trkpt lat="45.74226" lon="3.06117">
        <ele>562.5</ele>
        <time>2021-08-26T16:31:35Z</time>
      </trkpt>
      <trkpt lat="45.74234" lon="3.06124">
        <ele>562.1</ele>
        <time>2021-08-26T16:31:37Z</time>
      </trkpt>
      <trkpt lat="45.74243" lon="3.0613">
        <ele>561.6</ele>
        <time>2021-08-26T16:31:39Z</time>
      </trkpt>
      <trkpt lat="45.74249" lon="3.06133">
        <ele>561.2</ele>
        <time>2021-08-26T16:31:41Z</time>
      </trkpt>
      <trkpt lat="45.74255" lon="3.06134">
        <ele>560.7</ele>
        <time>2021-08-26T16:31:43Z</time>
      </trkpt>
      <trkpt lat="45.74262" lon="3.06139">
        <ele>560.1</ele>
        <time>2021-08-26T16:31:45Z</time>
      </trkpt>
      <trkpt lat="45.74269" lon="3.06143">
        <ele>559.4</ele>
        <time>2021-08-26T16:31:47Z</time>
      </trkpt>
      <trkpt lat="45.74277" lon="3.06147">
        <ele>558.6</ele>
        <time>2021-08-26T16:31:49Z</time>
      </trkpt>
      <trkpt lat="45.74285" lon="3.06151">
        <ele>557.8</ele>
        <time>2021-08-26T16:31:51Z</time>
      </trkpt>
      <trkpt lat="45.74292" lon="3.06156">
        <ele>556.9</ele>
        <time>2021-08-26T16:31:53Z</time>
      </trkpt>
      <trkpt lat="45.743" lon="3.0616">
        <ele>556</ele>
        <time>2021-08-26T16:31:55Z</time>
      </trkpt>
      <trkpt lat="45.74306" lon="3.06165">
        <ele>555.3</ele>
        <time>2021-08-26T16:31:57Z</time>
      </trkpt>
      <trkpt lat="45.74312" lon="3.0617">
        <ele>554.9</ele>
        <time>2021-08-26T16:31:59Z</time>
      </trkpt>
      <trkpt lat="45.74318" lon="3.06175">
        <ele>554.4</ele>
        <time>2021-08-26T16:32:01Z</time>
      </trkpt>
      <trkpt lat="45.74325" lon="3.06181">
        <ele>553.9</ele>
        <time>2021-08-26T16:32:03Z</time>
      </trkpt>
      <trkpt lat="45.74332" lon="3.06185">
        <ele>553.3</ele>
        <time>2021-08-26T16:32:05Z</time>
      </trkpt>
      <trkpt lat="45.74339" lon="3.06189">
        <ele>552.9</ele>
        <time>2021-08-26T16:32:07Z</time>
      </trkpt>
      <trkpt lat="45.74345" lon="3.06192">
        <ele>552.5</ele>
        <time>2021-08-26T16:32:09Z</time>
      </trkpt>
      <trkpt lat="45.74351" lon="3.06195">
        <ele>552.1</ele>
        <time>2021-08-26T16:32:11Z</time>
      </trkpt>
      <trkpt lat="45.74357" lon="3.06196">
        <ele>551.5</ele>
        <time>2021-08-26T16:32:13Z</time>
      </trkpt>
      <trkpt lat="45.74363" lon="3.06194">
        <ele>550.9</ele>
        <time>2021-08-26T16:32:15Z</time>
      </trkpt>
      <trkpt lat="45.74371" lon="3.06197">
        <ele>550.3</ele>
        <time>2021-08-26T16:32:17Z</time>
      </trkpt>
      <trkpt lat="45.74378" lon="3.06206">
        <ele>549.9</ele>
        <time>2021-08-26T16:32:19Z</time>
      </trkpt>
      <trkpt lat="45.74385" lon="3.06218">
        <ele>549.4</ele>
        <time>2021-08-26T16:32:21Z</time>
      </trkpt>
      <trkpt lat="45.74394" lon="3.06229">
        <ele>548.6</ele>
        <time>2021-08-26T16:32:23Z</time>
      </trkpt>
      <trkpt lat="45.74402" lon="3.0624">
        <ele>547.8</ele>
        <time>2021-08-26T16:32:25Z</time>
      </trkpt>
      <trkpt lat="45.7441" lon="3.06249">
        <ele>546.9</ele>
        <time>2021-08-26T16:32:27Z</time>
      </trkpt>
      <trkpt lat="45.74416" lon="3.06256">
        <ele>546.5</ele>
        <time>2021-08-26T16:32:29Z</time>
      </trkpt>
      <trkpt lat="45.74424" lon="3.06258">
        <ele>546.3</ele>
        <time>2021-08-26T16:32:31Z</time>
      </trkpt>
      <trkpt lat="45.74434" lon="3.06251">
        <ele>545.7</ele>
        <time>2021-08-26T16:32:33Z</time>
      </trkpt>
      <trkpt lat="45.74445" lon="3.06247">
        <ele>545.4</ele>
        <time>2021-08-26T16:32:35Z</time>
      </trkpt>
      <trkpt lat="45.74457" lon="3.06243">
        <ele>545.2</ele>
        <time>2021-08-26T16:32:37Z</time>
      </trkpt>
      <trkpt lat="45.74468" lon="3.06235">
        <ele>545.3</ele>
        <time>2021-08-26T16:32:39Z</time>
      </trkpt>
      <trkpt lat="45.74478" lon="3.06227">
        <ele>545.6</ele>
        <time>2021-08-26T16:32:41Z</time>
      </trkpt>
      <trkpt lat="45.74483" lon="3.06223">
        <ele>545.7</ele>
        <time>2021-08-26T16:32:43Z</time>
      </trkpt>
      <trkpt lat="45.74487" lon="3.0622">
        <ele>545.8</ele>
        <time>2021-08-26T16:32:45Z</time>
      </trkpt>
      <trkpt lat="45.7449" lon="3.06218">
        <ele>545.9</ele>
        <time>2021-08-26T16:32:47Z</time>
      </trkpt>
      <trkpt lat="45.74494" lon="3.06215">
        <ele>546.1</ele>
        <time>2021-08-26T16:32:49Z</time>
      </trkpt>
      <trkpt lat="45.74496" lon="3.06215">
        <ele>546.1</ele>
        <time>2021-08-26T16:32:51Z</time>
      </trkpt>
      <trkpt lat="45.74496" lon="3.06215">
        <ele>546.1</ele>
        <time>2021-08-26T16:32:53Z</time>
      </trkpt>
      <trkpt lat="45.74497" lon="3.06215">
        <ele>546.1</ele>
        <time>2021-08-26T16:32:55Z</time>
      </trkpt>
      <trkpt lat="45.74496" lon="3.06215">
        <ele>546.1</ele>
        <time>2021-08-26T16:32:57Z</time>
      </trkpt>
      <trkpt lat="45.74497" lon="3.06214">
        <ele>546.1</ele>
        <time>2021-08-26T16:32:59Z</time>
      </trkpt>
    </trkseg>
      <trkpt lat="45.74519" lon="3.06223">
        <ele>548.8</ele>
        <time>2021-08-27T08:49:18Z</time>
      </trkpt>
      <trkpt lat="45.74521" lon="3.06228">
        <ele>548.8</ele>
        <time>2021-08-27T08:49:20Z</time>
      </trkpt>
      <trkpt lat="45.74522" lon="3.06232">
        <ele>548.8</ele>
        <time>2021-08-27T08:49:22Z</time>
      </trkpt>
      <trkpt lat="45.74525" lon="3.06236">
        <ele>549.1</ele>
        <time>2021-08-27T08:49:24Z</time>
      </trkpt>
      <trkpt lat="45.74527" lon="3.06242">
        <ele>549</ele>
        <time>2021-08-27T08:49:26Z</time>
      </trkpt>
      <trkpt lat="45.74529" lon="3.0625">
        <ele>548.8</ele>
        <time>2021-08-27T08:49:28Z</time>
      </trkpt>
      <trkpt lat="45.74529" lon="3.06257">
        <ele>548.6</ele>
        <time>2021-08-27T08:49:30Z</time>
      </trkpt>
      <trkpt lat="45.7453" lon="3.06266">
        <ele>548.4</ele>
        <time>2021-08-27T08:49:32Z</time>
      </trkpt>
      <trkpt lat="45.74528" lon="3.06274">
        <ele>547.7</ele>
        <time>2021-08-27T08:49:34Z</time>
      </trkpt>
      <trkpt lat="45.74528" lon="3.06282">
        <ele>547.4</ele>
        <time>2021-08-27T08:49:36Z</time>
      </trkpt>
      <trkpt lat="45.74529" lon="3.0629">
        <ele>547.2</ele>
        <time>2021-08-27T08:49:38Z</time>
      </trkpt>
      <trkpt lat="45.7453" lon="3.06296">
        <ele>547.1</ele>
        <time>2021-08-27T08:49:40Z</time>
      </trkpt>
      <trkpt lat="45.74533" lon="3.06303">
        <ele>547.1</ele>
        <time>2021-08-27T08:49:42Z</time>
      </trkpt>
      <trkpt lat="45.74536" lon="3.0631">
        <ele>547.1</ele>
        <time>2021-08-27T08:49:44Z</time>
      </trkpt>
      <trkpt lat="45.74539" lon="3.06317">
        <ele>547.1</ele>
        <time>2021-08-27T08:49:46Z</time>
      </trkpt>
      <trkpt lat="45.74543" lon="3.06324">
        <ele>547.2</ele>
        <time>2021-08-27T08:49:48Z</time>
      </trkpt>
      <trkpt lat="45.74547" lon="3.06333">
        <ele>547</ele>
        <time>2021-08-27T08:49:50Z</time>
      </trkpt>
      <trkpt lat="45.74551" lon="3.06342">
        <ele>546.7</ele>
        <time>2021-08-27T08:49:52Z</time>
      </trkpt>
      <trkpt lat="45.74557" lon="3.06352">
        <ele>546.1</ele>
        <time>2021-08-27T08:49:54Z</time>
      </trkpt>
      <trkpt lat="45.74562" lon="3.06363">
        <ele>545.2</ele>
        <time>2021-08-27T08:49:56Z</time>
      </trkpt>
      <trkpt lat="45.74567" lon="3.06374">
        <ele>543.8</ele>
        <time>2021-08-27T08:49:58Z</time>
      </trkpt>
      <trkpt lat="45.74573" lon="3.06385">
        <ele>542</ele>
        <time>2021-08-27T08:50:00Z</time>
      </trkpt>
      <trkpt lat="45.7458" lon="3.06396">
        <ele>539.8</ele>
        <time>2021-08-27T08:50:02Z</time>
      </trkpt>
      <trkpt lat="45.74585" lon="3.06407">
        <ele>537.9</ele>
        <time>2021-08-27T08:50:04Z</time>
      </trkpt>
      <trkpt lat="45.7459" lon="3.06417">
        <ele>537.3</ele>
        <time>2021-08-27T08:50:06Z</time>
      </trkpt>
      <trkpt lat="45.74595" lon="3.06426">
        <ele>538</ele>
        <time>2021-08-27T08:50:08Z</time>
      </trkpt>
      <trkpt lat="45.746" lon="3.06436">
        <ele>538.5</ele>
        <time>2021-08-27T08:50:10Z</time>
      </trkpt>
      <trkpt lat="45.74606" lon="3.06446">
        <ele>539</ele>
        <time>2021-08-27T08:50:12Z</time>
      </trkpt>
      <trkpt lat="45.74611" lon="3.06456">
        <ele>539.3</ele>
        <time>2021-08-27T08:50:14Z</time>
      </trkpt>
      <trkpt lat="45.74617" lon="3.06466">
        <ele>539.5</ele>
        <time>2021-08-27T08:50:16Z</time>
      </trkpt>
      <trkpt lat="45.74623" lon="3.06476">
        <ele>539.5</ele>
        <time>2021-08-27T08:50:18Z</time>
      </trkpt>
      <trkpt lat="45.74628" lon="3.06487">
        <ele>539.2</ele>
        <time>2021-08-27T08:50:20Z</time>
      </trkpt>
      <trkpt lat="45.74634" lon="3.065">
        <ele>538.6</ele>
        <time>2021-08-27T08:50:22Z</time>
      </trkpt>
      <trkpt lat="45.74639" lon="3.06515">
        <ele>537.7</ele>
        <time>2021-08-27T08:50:24Z</time>
      </trkpt>
      <trkpt lat="45.74643" lon="3.0653">
        <ele>536.4</ele>
        <time>2021-08-27T08:50:26Z</time>
      </trkpt>
      <trkpt lat="45.74646" lon="3.06546">
        <ele>534.9</ele>
        <time>2021-08-27T08:50:28Z</time>
      </trkpt>
      <trkpt lat="45.74649" lon="3.06562">
        <ele>533.4</ele>
        <time>2021-08-27T08:50:30Z</time>
      </trkpt>
      <trkpt lat="45.74652" lon="3.06577">
        <ele>531.8</ele>
        <time>2021-08-27T08:50:32Z</time>
      </trkpt>
      <trkpt lat="45.74655" lon="3.06591">
        <ele>530.1</ele>
        <time>2021-08-27T08:50:34Z</time>
      </trkpt>
      <trkpt lat="45.74657" lon="3.06604">
        <ele>528.3</ele>
        <time>2021-08-27T08:50:36Z</time>
      </trkpt>
      <trkpt lat="45.74657" lon="3.06615">
        <ele>526.8</ele>
        <time>2021-08-27T08:50:38Z</time>
      </trkpt>
      <trkpt lat="45.74656" lon="3.06624">
        <ele>525.6</ele>
        <time>2021-08-27T08:50:40Z</time>
      </trkpt>
      <trkpt lat="45.74656" lon="3.06626">
        <ele>525.3</ele>
        <time>2021-08-27T08:50:42Z</time>
      </trkpt>
      <trkpt lat="45.74656" lon="3.06626">
        <ele>525.4</ele>
        <time>2021-08-27T08:50:44Z</time>
      </trkpt>
      <trkpt lat="45.74656" lon="3.06628">
        <ele>525.1</ele>
        <time>2021-08-27T08:50:46Z</time>
      </trkpt>
      <trkpt lat="45.74656" lon="3.06635">
        <ele>524.2</ele>
        <time>2021-08-27T08:50:48Z</time>
      </trkpt>
      <trkpt lat="45.74662" lon="3.06643">
        <ele>522.7</ele>
        <time>2021-08-27T08:50:50Z</time>
      </trkpt>
      <trkpt lat="45.74671" lon="3.0665">
        <ele>521.9</ele>
        <time>2021-08-27T08:50:52Z</time>
      </trkpt>
      <trkpt lat="45.7468" lon="3.06657">
        <ele>521.8</ele>
        <time>2021-08-27T08:50:54Z</time>
      </trkpt>
      <trkpt lat="45.7469" lon="3.06665">
        <ele>521.5</ele>
        <time>2021-08-27T08:50:56Z</time>
      </trkpt>
      <trkpt lat="45.74701" lon="3.06673">
        <ele>521.4</ele>
        <time>2021-08-27T08:50:58Z</time>
      </trkpt>
      <trkpt lat="45.74713" lon="3.06683">
        <ele>521.1</ele>
        <time>2021-08-27T08:51:00Z</time>
      </trkpt>
      <trkpt lat="45.74726" lon="3.06693">
        <ele>520.4</ele>
        <time>2021-08-27T08:51:02Z</time>
      </trkpt>
      <trkpt lat="45.74738" lon="3.06703">
        <ele>519.5</ele>
        <time>2021-08-27T08:51:04Z</time>
      </trkpt>
      <trkpt lat="45.7475" lon="3.06713">
        <ele>518.1</ele>
        <time>2021-08-27T08:51:06Z</time>
      </trkpt>
      <trkpt lat="45.74762" lon="3.06725">
        <ele>516</ele>
        <time>2021-08-27T08:51:08Z</time>
      </trkpt>
      <trkpt lat="45.74773" lon="3.06739">
        <ele>513.8</ele>
        <time>2021-08-27T08:51:10Z</time>
      </trkpt>
      <trkpt lat="45.74781" lon="3.06752">
        <ele>511.9</ele>
        <time>2021-08-27T08:51:12Z</time>
      </trkpt>
      <trkpt lat="45.74788" lon="3.06768">
        <ele>510.5</ele>
        <time>2021-08-27T08:51:14Z</time>
      </trkpt>
      <trkpt lat="45.74793" lon="3.06786">
        <ele>508.9</ele>
        <time>2021-08-27T08:51:16Z</time>
      </trkpt>
      <trkpt lat="45.74797" lon="3.06805">
        <ele>507.3</ele>
        <time>2021-08-27T08:51:18Z</time>
      </trkpt>
      <trkpt lat="45.74799" lon="3.06824">
        <ele>505.4</ele>
        <time>2021-08-27T08:51:20Z</time>
      </trkpt>
      <trkpt lat="45.74798" lon="3.06845">
        <ele>504.3</ele>
        <time>2021-08-27T08:51:22Z</time>
      </trkpt>
      <trkpt lat="45.74796" lon="3.06865">
        <ele>503.8</ele>
        <time>2021-08-27T08:51:24Z</time>
      </trkpt>
      <trkpt lat="45.74791" lon="3.06886">
        <ele>503</ele>
        <time>2021-08-27T08:51:26Z</time>
      </trkpt>
      <trkpt lat="45.74786" lon="3.06908">
        <ele>502.2</ele>
        <time>2021-08-27T08:51:28Z</time>
      </trkpt>
      <trkpt lat="45.74781" lon="3.0693">
        <ele>501.1</ele>
        <time>2021-08-27T08:51:30Z</time>
      </trkpt>
      <trkpt lat="45.74776" lon="3.06953">
        <ele>499.7</ele>
        <time>2021-08-27T08:51:32Z</time>
      </trkpt>
      <trkpt lat="45.74771" lon="3.06976">
        <ele>498</ele>
        <time>2021-08-27T08:51:34Z</time>
      </trkpt>
      <trkpt lat="45.74767" lon="3.06998">
        <ele>496.5</ele>
        <time>2021-08-27T08:51:36Z</time>
      </trkpt>
      <trkpt lat="45.74762" lon="3.07015">
        <ele>495.2</ele>
        <time>2021-08-27T08:51:38Z</time>
      </trkpt>
      <trkpt lat="45.74759" lon="3.07028">
        <ele>494.3</ele>
        <time>2021-08-27T08:51:40Z</time>
      </trkpt>
      <trkpt lat="45.74755" lon="3.0704">
        <ele>493.3</ele>
        <time>2021-08-27T08:51:42Z</time>
      </trkpt>
      <trkpt lat="45.74751" lon="3.07049">
        <ele>492.4</ele>
        <time>2021-08-27T08:51:44Z</time>
      </trkpt>
      <trkpt lat="45.74748" lon="3.07056">
        <ele>491.8</ele>
        <time>2021-08-27T08:51:46Z</time>
      </trkpt>
      <trkpt lat="45.74744" lon="3.07061">
        <ele>491.3</ele>
        <time>2021-08-27T08:51:48Z</time>
      </trkpt>
      <trkpt lat="45.74742" lon="3.07062">
        <ele>491.1</ele>
        <time>2021-08-27T08:51:50Z</time>
      </trkpt>
      <trkpt lat="45.74742" lon="3.07062">
        <ele>491.1</ele>
        <time>2021-08-27T08:51:52Z</time>
      </trkpt>
      <trkpt lat="45.74742" lon="3.07062">
        <ele>491.1</ele>
        <time>2021-08-27T08:51:54Z</time>
      </trkpt>
      <trkpt lat="45.74742" lon="3.07062">
        <ele>491.1</ele>
        <time>2021-08-27T08:51:56Z</time>
      </trkpt>
      <trkpt lat="45.74742" lon="3.07062">
        <ele>491.1</ele>
        <time>2021-08-27T08:51:58Z</time>
      </trkpt>
      <trkpt lat="45.74736" lon="3.07086">
        <ele>489.4</ele>
        <time>2021-08-27T08:52:06Z</time>
      </trkpt>
      <trkpt lat="45.74739" lon="3.07099">
        <ele>489.3</ele>
        <time>2021-08-27T08:52:08Z</time>
      </trkpt>
      <trkpt lat="45.7474" lon="3.07114">
        <ele>489.1</ele>
        <time>2021-08-27T08:52:10Z</time>
      </trkpt>
      <trkpt lat="45.7474" lon="3.07131">
        <ele>488.6</ele>
        <time>2021-08-27T08:52:12Z</time>
      </trkpt>
      <trkpt lat="45.7474" lon="3.07148">
        <ele>488</ele>
        <time>2021-08-27T08:52:14Z</time>
      </trkpt>
      <trkpt lat="45.7474" lon="3.07165">
        <ele>487.6</ele>
        <time>2021-08-27T08:52:16Z</time>
      </trkpt>
      <trkpt lat="45.74741" lon="3.07183">
        <ele>487</ele>
        <time>2021-08-27T08:52:18Z</time>
      </trkpt>
      <trkpt lat="45.74741" lon="3.07201">
        <ele>486.5</ele>
        <time>2021-08-27T08:52:20Z</time>
      </trkpt>
      <trkpt lat="45.74743" lon="3.07219">
        <ele>486</ele>
        <time>2021-08-27T08:52:22Z</time>
      </trkpt>
      <trkpt lat="45.74745" lon="3.07238">
        <ele>485.7</ele>
        <time>2021-08-27T08:52:24Z</time>
      </trkpt>
      <trkpt lat="45.74748" lon="3.07257">
        <ele>485.3</ele>
        <time>2021-08-27T08:52:26Z</time>
      </trkpt>
      <trkpt lat="45.74752" lon="3.07277">
        <ele>484.6</ele>
        <time>2021-08-27T08:52:28Z</time>
      </trkpt>
      <trkpt lat="45.74755" lon="3.07297">
        <ele>483.8</ele>
        <time>2021-08-27T08:52:30Z</time>
      </trkpt>
      <trkpt lat="45.74759" lon="3.07318">
        <ele>483</ele>
        <time>2021-08-27T08:52:32Z</time>
      </trkpt>
      <trkpt lat="45.74763" lon="3.0734">
        <ele>482.1</ele>
        <time>2021-08-27T08:52:34Z</time>
      </trkpt>
      <trkpt lat="45.74767" lon="3.07361">
        <ele>480.9</ele>
        <time>2021-08-27T08:52:36Z</time>
      </trkpt>
      <trkpt lat="45.74771" lon="3.07382">
        <ele>479.8</ele>
        <time>2021-08-27T08:52:38Z</time>
      </trkpt>
      <trkpt lat="45.74774" lon="3.07403">
        <ele>478.8</ele>
        <time>2021-08-27T08:52:40Z</time>
      </trkpt>
      <trkpt lat="45.74778" lon="3.07425">
        <ele>477.8</ele>
        <time>2021-08-27T08:52:42Z</time>
      </trkpt>
      <trkpt lat="45.74782" lon="3.07446">
        <ele>476.7</ele>
        <time>2021-08-27T08:52:44Z</time>
      </trkpt>
      <trkpt lat="45.74786" lon="3.07468">
        <ele>475.6</ele>
        <time>2021-08-27T08:52:46Z</time>
      </trkpt>
      <trkpt lat="45.74792" lon="3.07489">
        <ele>474.9</ele>
        <time>2021-08-27T08:52:48Z</time>
      </trkpt>
      <trkpt lat="45.74794" lon="3.0751">
        <ele>473.7</ele>
        <time>2021-08-27T08:52:50Z</time>
      </trkpt>
      <trkpt lat="45.74797" lon="3.07533">
        <ele>472.9</ele>
        <time>2021-08-27T08:52:52Z</time>
      </trkpt>
      <trkpt lat="45.74801" lon="3.07555">
        <ele>472.3</ele>
        <time>2021-08-27T08:52:54Z</time>
      </trkpt>
      <trkpt lat="45.74805" lon="3.07577">
        <ele>471.5</ele>
        <time>2021-08-27T08:52:56Z</time>
      </trkpt>
      <trkpt lat="45.74808" lon="3.076">
        <ele>470.7</ele>
        <time>2021-08-27T08:52:58Z</time>
      </trkpt>
      <trkpt lat="45.74812" lon="3.07622">
        <ele>469.8</ele>
        <time>2021-08-27T08:53:00Z</time>
      </trkpt>
      <trkpt lat="45.74815" lon="3.07645">
        <ele>468.9</ele>
        <time>2021-08-27T08:53:02Z</time>
      </trkpt>
      <trkpt lat="45.74819" lon="3.07667">
        <ele>468</ele>
        <time>2021-08-27T08:53:04Z</time>
      </trkpt>
      <trkpt lat="45.74822" lon="3.07688">
        <ele>468.1</ele>
        <time>2021-08-27T08:53:06Z</time>
      </trkpt>
      <trkpt lat="45.74826" lon="3.07709">
        <ele>468</ele>
        <time>2021-08-27T08:53:08Z</time>
      </trkpt>
      <trkpt lat="45.7483" lon="3.07729">
        <ele>468.1</ele>
        <time>2021-08-27T08:53:10Z</time>
      </trkpt>
      <trkpt lat="45.74833" lon="3.07749">
        <ele>468</ele>
        <time>2021-08-27T08:53:12Z</time>
      </trkpt>
      <trkpt lat="45.74836" lon="3.07769">
        <ele>466.8</ele>
        <time>2021-08-27T08:53:14Z</time>
      </trkpt>
      <trkpt lat="45.74839" lon="3.07789">
        <ele>465.6</ele>
        <time>2021-08-27T08:53:16Z</time>
      </trkpt>
      <trkpt lat="45.74842" lon="3.07808">
        <ele>464.5</ele>
        <time>2021-08-27T08:53:18Z</time>
      </trkpt>
      <trkpt lat="45.74847" lon="3.07826">
        <ele>463.4</ele>
        <time>2021-08-27T08:53:20Z</time>
      </trkpt>
      <trkpt lat="45.74855" lon="3.0784">
        <ele>462.8</ele>
        <time>2021-08-27T08:53:22Z</time>
      </trkpt>
      <trkpt lat="45.74864" lon="3.07852">
        <ele>462.5</ele>
        <time>2021-08-27T08:53:24Z</time>
      </trkpt>
      <trkpt lat="45.74874" lon="3.07862">
        <ele>462.3</ele>
        <time>2021-08-27T08:53:26Z</time>
      </trkpt>
      <trkpt lat="45.74885" lon="3.07869">
        <ele>462.2</ele>
        <time>2021-08-27T08:53:28Z</time>
      </trkpt>
      <trkpt lat="45.74897" lon="3.07875">
        <ele>462.3</ele>
        <time>2021-08-27T08:53:30Z</time>
      </trkpt>
      <trkpt lat="45.74909" lon="3.07881">
        <ele>462.3</ele>
        <time>2021-08-27T08:53:32Z</time>
      </trkpt>
      <trkpt lat="45.74921" lon="3.07889">
        <ele>462.1</ele>
        <time>2021-08-27T08:53:34Z</time>
      </trkpt>
      <trkpt lat="45.74933" lon="3.07896">
        <ele>461.3</ele>
        <time>2021-08-27T08:53:36Z</time>
      </trkpt>
      <trkpt lat="45.74944" lon="3.07903">
        <ele>460.5</ele>
        <time>2021-08-27T08:53:38Z</time>
      </trkpt>
      <trkpt lat="45.74957" lon="3.07909">
        <ele>459.7</ele>
        <time>2021-08-27T08:53:40Z</time>
      </trkpt>
      <trkpt lat="45.74969" lon="3.07917">
        <ele>458.9</ele>
        <time>2021-08-27T08:53:42Z</time>
      </trkpt>
      <trkpt lat="45.74982" lon="3.07923">
        <ele>457.9</ele>
        <time>2021-08-27T08:53:44Z</time>
      </trkpt>
      <trkpt lat="45.74995" lon="3.07929">
        <ele>456.8</ele>
        <time>2021-08-27T08:53:46Z</time>
      </trkpt>
      <trkpt lat="45.75008" lon="3.07936">
        <ele>455.9</ele>
        <time>2021-08-27T08:53:48Z</time>
      </trkpt>
      <trkpt lat="45.75021" lon="3.07943">
        <ele>455.3</ele>
        <time>2021-08-27T08:53:50Z</time>
      </trkpt>
      <trkpt lat="45.75034" lon="3.07949">
        <ele>454.6</ele>
        <time>2021-08-27T08:53:52Z</time>
      </trkpt>
      <trkpt lat="45.75046" lon="3.07955">
        <ele>454</ele>
        <time>2021-08-27T08:53:54Z</time>
      </trkpt>
      <trkpt lat="45.75058" lon="3.07962">
        <ele>453.4</ele>
        <time>2021-08-27T08:53:56Z</time>
      </trkpt>
      <trkpt lat="45.75071" lon="3.07968">
        <ele>452.8</ele>
        <time>2021-08-27T08:53:58Z</time>
      </trkpt>
      <trkpt lat="45.75083" lon="3.07974">
        <ele>452.3</ele>
        <time>2021-08-27T08:54:00Z</time>
      </trkpt>
      <trkpt lat="45.75095" lon="3.07981">
        <ele>452.7</ele>
        <time>2021-08-27T08:54:02Z</time>
      </trkpt>
      <trkpt lat="45.75107" lon="3.07987">
        <ele>453.2</ele>
        <time>2021-08-27T08:54:04Z</time>
      </trkpt>
      <trkpt lat="45.7512" lon="3.07994">
        <ele>453.6</ele>
        <time>2021-08-27T08:54:06Z</time>
      </trkpt>
      <trkpt lat="45.75132" lon="3.08003">
        <ele>453.7</ele>
        <time>2021-08-27T08:54:08Z</time>
      </trkpt>
      <trkpt lat="45.75143" lon="3.08014">
        <ele>453.8</ele>
        <time>2021-08-27T08:54:10Z</time>
      </trkpt>
      <trkpt lat="45.75153" lon="3.08028">
        <ele>453.6</ele>
        <time>2021-08-27T08:54:12Z</time>
      </trkpt>
      <trkpt lat="45.75162" lon="3.08041">
        <ele>453.3</ele>
        <time>2021-08-27T08:54:14Z</time>
      </trkpt>
      <trkpt lat="45.75168" lon="3.08056">
        <ele>452.7</ele>
        <time>2021-08-27T08:54:16Z</time>
      </trkpt>
      <trkpt lat="45.75174" lon="3.08073">
        <ele>451.9</ele>
        <time>2021-08-27T08:54:18Z</time>
      </trkpt>
      <trkpt lat="45.75181" lon="3.08089">
        <ele>451.3</ele>
        <time>2021-08-27T08:54:20Z</time>
      </trkpt>
      <trkpt lat="45.75187" lon="3.08105">
        <ele>450.7</ele>
        <time>2021-08-27T08:54:22Z</time>
      </trkpt>
      <trkpt lat="45.75193" lon="3.08121">
        <ele>450.3</ele>
        <time>2021-08-27T08:54:24Z</time>
      </trkpt>
      <trkpt lat="45.75198" lon="3.08138">
        <ele>449.8</ele>
        <time>2021-08-27T08:54:26Z</time>
      </trkpt>
      <trkpt lat="45.75204" lon="3.08154">
        <ele>449.3</ele>
        <time>2021-08-27T08:54:28Z</time>
      </trkpt>
      <trkpt lat="45.7521" lon="3.08171">
        <ele>448.9</ele>
        <time>2021-08-27T08:54:30Z</time>
      </trkpt>
      <trkpt lat="45.75217" lon="3.08187">
        <ele>448.4</ele>
        <time>2021-08-27T08:54:32Z</time>
      </trkpt>
      <trkpt lat="45.75222" lon="3.08204">
        <ele>447.7</ele>
        <time>2021-08-27T08:54:34Z</time>
      </trkpt>
      <trkpt lat="45.75228" lon="3.0822">
        <ele>447.1</ele>
        <time>2021-08-27T08:54:36Z</time>
      </trkpt>
      <trkpt lat="45.75234" lon="3.08236">
        <ele>446.4</ele>
        <time>2021-08-27T08:54:38Z</time>
      </trkpt>
      <trkpt lat="45.75238" lon="3.08246">
        <ele>446</ele>
        <time>2021-08-27T08:54:40Z</time>
      </trkpt>
      <trkpt lat="45.75241" lon="3.08252">
        <ele>445.7</ele>
        <time>2021-08-27T08:54:42Z</time>
      </trkpt>
      <trkpt lat="45.75241" lon="3.08251">
        <ele>445.8</ele>
        <time>2021-08-27T08:54:44Z</time>
      </trkpt>
      <trkpt lat="45.7524" lon="3.0825">
        <ele>445.8</ele>
        <time>2021-08-27T08:54:46Z</time>
      </trkpt>
      <trkpt lat="45.7524" lon="3.08249">
        <ele>445.8</ele>
        <time>2021-08-27T08:54:48Z</time>
      </trkpt>
      <trkpt lat="45.75241" lon="3.08254">
        <ele>445.7</ele>
        <time>2021-08-27T08:54:50Z</time>
      </trkpt>
      <trkpt lat="45.75242" lon="3.08259">
        <ele>445.6</ele>
        <time>2021-08-27T08:54:52Z</time>
      </trkpt>
      <trkpt lat="45.75242" lon="3.08263">
        <ele>445.5</ele>
        <time>2021-08-27T08:54:54Z</time>
      </trkpt>
      <trkpt lat="45.75244" lon="3.08269">
        <ele>445.4</ele>
        <time>2021-08-27T08:54:56Z</time>
      </trkpt>
      <trkpt lat="45.75246" lon="3.08274">
        <ele>445.3</ele>
        <time>2021-08-27T08:54:58Z</time>
      </trkpt>
      <trkpt lat="45.75246" lon="3.08279">
        <ele>445.2</ele>
        <time>2021-08-27T08:55:00Z</time>
      </trkpt>
      <trkpt lat="45.75247" lon="3.08281">
        <ele>445.2</ele>
        <time>2021-08-27T08:55:02Z</time>
      </trkpt>
      <trkpt lat="45.75247" lon="3.08281">
        <ele>445.2</ele>
        <time>2021-08-27T08:55:04Z</time>
      </trkpt>
      <trkpt lat="45.75247" lon="3.0828">
        <ele>445.2</ele>
        <time>2021-08-27T08:55:06Z</time>
      </trkpt>
      <trkpt lat="45.75247" lon="3.08281">
        <ele>445.2</ele>
        <time>2021-08-27T08:55:08Z</time>
      </trkpt>
      <trkpt lat="45.75247" lon="3.08281">
        <ele>445.2</ele>
        <time>2021-08-27T08:55:10Z</time>
      </trkpt>
      <trkpt lat="45.75254" lon="3.08291">
        <ele>445.1</ele>
        <time>2021-08-27T09:05:56Z</time>
      </trkpt>
      <trkpt lat="45.75254" lon="3.08295">
        <ele>445</ele>
        <time>2021-08-27T09:05:58Z</time>
      </trkpt>
      <trkpt lat="45.75252" lon="3.083">
        <ele>444.8</ele>
        <time>2021-08-27T09:06:00Z</time>
      </trkpt>
      <trkpt lat="45.75253" lon="3.08306">
        <ele>444.7</ele>
        <time>2021-08-27T09:06:02Z</time>
      </trkpt>
      <trkpt lat="45.75255" lon="3.08314">
        <ele>444.5</ele>
        <time>2021-08-27T09:06:04Z</time>
      </trkpt>
      <trkpt lat="45.75259" lon="3.08321">
        <ele>444.3</ele>
        <time>2021-08-27T09:06:06Z</time>
      </trkpt>
      <trkpt lat="45.75263" lon="3.08328">
        <ele>444.1</ele>
        <time>2021-08-27T09:06:08Z</time>
      </trkpt>
      <trkpt lat="45.75266" lon="3.08338">
        <ele>443.8</ele>
        <time>2021-08-27T09:06:10Z</time>
      </trkpt>
      <trkpt lat="45.7527" lon="3.08349">
        <ele>443.4</ele>
        <time>2021-08-27T09:06:12Z</time>
      </trkpt>
      <trkpt lat="45.75275" lon="3.0836">
        <ele>443</ele>
        <time>2021-08-27T09:06:14Z</time>
      </trkpt>
      <trkpt lat="45.75279" lon="3.08371">
        <ele>442.7</ele>
        <time>2021-08-27T09:06:16Z</time>
      </trkpt>
      <trkpt lat="45.75283" lon="3.08382">
        <ele>442.3</ele>
        <time>2021-08-27T09:06:18Z</time>
      </trkpt>
      <trkpt lat="45.75286" lon="3.08391">
        <ele>442.1</ele>
        <time>2021-08-27T09:06:20Z</time>
      </trkpt>
      <trkpt lat="45.75287" lon="3.08396">
        <ele>442</ele>
        <time>2021-08-27T09:06:22Z</time>
      </trkpt>
      <trkpt lat="45.75289" lon="3.084">
        <ele>441.9</ele>
        <time>2021-08-27T09:06:24Z</time>
      </trkpt>
      <trkpt lat="45.7529" lon="3.08404">
        <ele>441.8</ele>
        <time>2021-08-27T09:06:26Z</time>
      </trkpt>
      <trkpt lat="45.75291" lon="3.08407">
        <ele>441.8</ele>
        <time>2021-08-27T09:06:28Z</time>
      </trkpt>
      <trkpt lat="45.75293" lon="3.08414">
        <ele>441.6</ele>
        <time>2021-08-27T09:06:30Z</time>
      </trkpt>
      <trkpt lat="45.75297" lon="3.08422">
        <ele>441.6</ele>
        <time>2021-08-27T09:06:32Z</time>
      </trkpt>
      <trkpt lat="45.753" lon="3.08431">
        <ele>441.7</ele>
        <time>2021-08-27T09:06:34Z</time>
      </trkpt>
      <trkpt lat="45.75303" lon="3.08441">
        <ele>441.7</ele>
        <time>2021-08-27T09:06:36Z</time>
      </trkpt>
      <trkpt lat="45.75307" lon="3.08452">
        <ele>441.8</ele>
        <time>2021-08-27T09:06:38Z</time>
      </trkpt>
      <trkpt lat="45.75311" lon="3.08462">
        <ele>441.8</ele>
        <time>2021-08-27T09:06:40Z</time>
      </trkpt>
      <trkpt lat="45.75316" lon="3.08472">
        <ele>441.8</ele>
        <time>2021-08-27T09:06:42Z</time>
      </trkpt>
      <trkpt lat="45.75321" lon="3.08481">
        <ele>441.9</ele>
        <time>2021-08-27T09:06:44Z</time>
      </trkpt>
      <trkpt lat="45.75326" lon="3.0849">
        <ele>441.9</ele>
        <time>2021-08-27T09:06:46Z</time>
      </trkpt>
      <trkpt lat="45.75332" lon="3.08498">
        <ele>442</ele>
        <time>2021-08-27T09:06:48Z</time>
      </trkpt>
      <trkpt lat="45.75338" lon="3.08504">
        <ele>441.8</ele>
        <time>2021-08-27T09:06:50Z</time>
      </trkpt>
      <trkpt lat="45.75344" lon="3.08506">
        <ele>441.6</ele>
        <time>2021-08-27T09:06:52Z</time>
      </trkpt>
      <trkpt lat="45.75346" lon="3.08508">
        <ele>441.4</ele>
        <time>2021-08-27T09:06:54Z</time>
      </trkpt>
      <trkpt lat="45.75347" lon="3.08509">
        <ele>441.4</ele>
        <time>2021-08-27T09:06:56Z</time>
      </trkpt>
      <trkpt lat="45.75348" lon="3.0851">
        <ele>441.3</ele>
        <time>2021-08-27T09:06:58Z</time>
      </trkpt>
      <trkpt lat="45.75348" lon="3.0851">
        <ele>441.3</ele>
        <time>2021-08-27T09:07:00Z</time>
      </trkpt>
      <trkpt lat="45.75348" lon="3.0851">
        <ele>441.3</ele>
        <time>2021-08-27T09:07:02Z</time>
      </trkpt>
      <trkpt lat="45.75348" lon="3.0851">
        <ele>441.3</ele>
        <time>2021-08-27T09:07:04Z</time>
      </trkpt>
      <trkpt lat="45.75364" lon="3.08526">
        <ele>440.6</ele>
        <time>2021-08-27T09:07:36Z</time>
      </trkpt>
      <trkpt lat="45.7537" lon="3.08533">
        <ele>440.3</ele>
        <time>2021-08-27T09:07:38Z</time>
      </trkpt>
      <trkpt lat="45.75378" lon="3.08539">
        <ele>440</ele>
        <time>2021-08-27T09:07:40Z</time>
      </trkpt>
      <trkpt lat="45.75388" lon="3.08539">
        <ele>439.9</ele>
        <time>2021-08-27T09:07:42Z</time>
      </trkpt>
      <trkpt lat="45.75398" lon="3.08536">
        <ele>439.8</ele>
        <time>2021-08-27T09:07:44Z</time>
      </trkpt>
      <trkpt lat="45.75409" lon="3.08533">
        <ele>439.7</ele>
        <time>2021-08-27T09:07:46Z</time>
      </trkpt>
      <trkpt lat="45.7542" lon="3.08528">
        <ele>439.5</ele>
        <time>2021-08-27T09:07:48Z</time>
      </trkpt>
      <trkpt lat="45.75431" lon="3.08522">
        <ele>439.1</ele>
        <time>2021-08-27T09:07:50Z</time>
      </trkpt>
      <trkpt lat="45.75444" lon="3.08517">
        <ele>438.6</ele>
        <time>2021-08-27T09:07:52Z</time>
      </trkpt>
      <trkpt lat="45.75455" lon="3.08511">
        <ele>438.1</ele>
        <time>2021-08-27T09:07:54Z</time>
      </trkpt>
      <trkpt lat="45.75468" lon="3.08508">
        <ele>437.5</ele>
        <time>2021-08-27T09:07:56Z</time>
      </trkpt>
      <trkpt lat="45.75479" lon="3.08502">
        <ele>437</ele>
        <time>2021-08-27T09:07:58Z</time>
      </trkpt>
      <trkpt lat="45.75489" lon="3.08498">
        <ele>436.5</ele>
        <time>2021-08-27T09:08:00Z</time>
      </trkpt>
      <trkpt lat="45.75501" lon="3.08494">
        <ele>436</ele>
        <time>2021-08-27T09:08:02Z</time>
      </trkpt>
      <trkpt lat="45.75511" lon="3.08489">
        <ele>435.2</ele>
        <time>2021-08-27T09:08:04Z</time>
      </trkpt>
      <trkpt lat="45.75522" lon="3.08485">
        <ele>434.4</ele>
        <time>2021-08-27T09:08:06Z</time>
      </trkpt>
      <trkpt lat="45.75533" lon="3.0848">
        <ele>433.7</ele>
        <time>2021-08-27T09:08:08Z</time>
      </trkpt>
      <trkpt lat="45.75544" lon="3.08475">
        <ele>433</ele>
        <time>2021-08-27T09:08:10Z</time>
      </trkpt>
      <trkpt lat="45.75552" lon="3.08472">
        <ele>432.5</ele>
        <time>2021-08-27T09:08:12Z</time>
      </trkpt>
      <trkpt lat="45.75558" lon="3.08469">
        <ele>432.1</ele>
        <time>2021-08-27T09:08:14Z</time>
      </trkpt>
      <trkpt lat="45.7556" lon="3.08469">
        <ele>432</ele>
        <time>2021-08-27T09:08:16Z</time>
      </trkpt>
      <trkpt lat="45.7556" lon="3.08468">
        <ele>431.9</ele>
        <time>2021-08-27T09:08:18Z</time>
      </trkpt>
      <trkpt lat="45.7556" lon="3.08468">
        <ele>432</ele>
        <time>2021-08-27T09:08:20Z</time>
      </trkpt>
      <trkpt lat="45.7556" lon="3.08468">
        <ele>432</ele>
        <time>2021-08-27T09:08:22Z</time>
      </trkpt>
      <trkpt lat="45.7556" lon="3.08468">
        <ele>432</ele>
        <time>2021-08-27T09:08:24Z</time>
      </trkpt>
      <trkpt lat="45.75577" lon="3.08459">
        <ele>430.9</ele>
        <time>2021-08-27T09:08:58Z</time>
      </trkpt>
      <trkpt lat="45.75587" lon="3.08456">
        <ele>430.4</ele>
        <time>2021-08-27T09:09:00Z</time>
      </trkpt>
      <trkpt lat="45.75597" lon="3.08453">
        <ele>430.1</ele>
        <time>2021-08-27T09:09:02Z</time>
      </trkpt>
      <trkpt lat="45.75607" lon="3.08449">
        <ele>429.8</ele>
        <time>2021-08-27T09:09:04Z</time>
      </trkpt>
      <trkpt lat="45.75617" lon="3.08446">
        <ele>429.4</ele>
        <time>2021-08-27T09:09:06Z</time>
      </trkpt>
      <trkpt lat="45.75627" lon="3.08441">
        <ele>429.1</ele>
        <time>2021-08-27T09:09:08Z</time>
      </trkpt>
      <trkpt lat="45.75638" lon="3.08436">
        <ele>428.8</ele>
        <time>2021-08-27T09:09:10Z</time>
      </trkpt>
      <trkpt lat="45.75649" lon="3.08431">
        <ele>428.5</ele>
        <time>2021-08-27T09:09:12Z</time>
      </trkpt>
      <trkpt lat="45.7566" lon="3.08425">
        <ele>428.1</ele>
        <time>2021-08-27T09:09:14Z</time>
      </trkpt>
      <trkpt lat="45.75672" lon="3.0842">
        <ele>427.5</ele>
        <time>2021-08-27T09:09:16Z</time>
      </trkpt>
      <trkpt lat="45.75683" lon="3.08416">
        <ele>426.6</ele>
        <time>2021-08-27T09:09:18Z</time>
      </trkpt>
      <trkpt lat="45.75695" lon="3.08411">
        <ele>425.7</ele>
        <time>2021-08-27T09:09:20Z</time>
      </trkpt>
      <trkpt lat="45.75705" lon="3.08404">
        <ele>424.9</ele>
        <time>2021-08-27T09:09:22Z</time>
      </trkpt>
      <trkpt lat="45.75712" lon="3.08395">
        <ele>424.2</ele>
        <time>2021-08-27T09:09:24Z</time>
      </trkpt>
      <trkpt lat="45.75719" lon="3.08384">
        <ele>423.6</ele>
        <time>2021-08-27T09:09:26Z</time>
      </trkpt>
      <trkpt lat="45.75724" lon="3.08369">
        <ele>423</ele>
        <time>2021-08-27T09:09:28Z</time>
      </trkpt>
      <trkpt lat="45.75727" lon="3.08353">
        <ele>422.4</ele>
        <time>2021-08-27T09:09:30Z</time>
      </trkpt>
      <trkpt lat="45.75728" lon="3.08335">
        <ele>422.2</ele>
        <time>2021-08-27T09:09:32Z</time>
      </trkpt>
      <trkpt lat="45.75727" lon="3.08317">
        <ele>422.2</ele>
        <time>2021-08-27T09:09:34Z</time>
      </trkpt>
      <trkpt lat="45.75726" lon="3.08299">
        <ele>422.4</ele>
        <time>2021-08-27T09:09:36Z</time>
      </trkpt>
      <trkpt lat="45.75726" lon="3.08279">
        <ele>422.3</ele>
        <time>2021-08-27T09:09:38Z</time>
      </trkpt>
      <trkpt lat="45.75725" lon="3.0826">
        <ele>422.3</ele>
        <time>2021-08-27T09:09:40Z</time>
      </trkpt>
      <trkpt lat="45.75725" lon="3.08241">
        <ele>422.1</ele>
        <time>2021-08-27T09:09:42Z</time>
      </trkpt>
      <trkpt lat="45.75724" lon="3.08221">
        <ele>421.7</ele>
        <time>2021-08-27T09:09:44Z</time>
      </trkpt>
      <trkpt lat="45.75723" lon="3.08201">
        <ele>421.2</ele>
        <time>2021-08-27T09:09:46Z</time>
      </trkpt>
      <trkpt lat="45.75723" lon="3.08181">
        <ele>420.7</ele>
        <time>2021-08-27T09:09:48Z</time>
      </trkpt>
      <trkpt lat="45.75723" lon="3.08164">
        <ele>420.2</ele>
        <time>2021-08-27T09:09:50Z</time>
      </trkpt>
      <trkpt lat="45.75724" lon="3.08153">
        <ele>419.8</ele>
        <time>2021-08-27T09:09:52Z</time>
      </trkpt>
      <trkpt lat="45.75725" lon="3.08146">
        <ele>419.4</ele>
        <time>2021-08-27T09:09:54Z</time>
      </trkpt>
      <trkpt lat="45.75726" lon="3.08143">
        <ele>419.2</ele>
        <time>2021-08-27T09:09:56Z</time>
      </trkpt>
      <trkpt lat="45.75727" lon="3.08141">
        <ele>419</ele>
        <time>2021-08-27T09:09:58Z</time>
      </trkpt>
      <trkpt lat="45.75727" lon="3.08142">
        <ele>419</ele>
        <time>2021-08-27T09:10:00Z</time>
      </trkpt>
      <trkpt lat="45.75727" lon="3.08142">
        <ele>419</ele>
        <time>2021-08-27T09:10:02Z</time>
      </trkpt>
      <trkpt lat="45.75727" lon="3.08142">
        <ele>419</ele>
        <time>2021-08-27T09:10:04Z</time>
      </trkpt>
      <trkpt lat="45.75727" lon="3.08142">
        <ele>419</ele>
        <time>2021-08-27T09:10:06Z</time>
      </trkpt>
      <trkpt lat="45.75734" lon="3.0812">
        <ele>417.6</ele>
        <time>2021-08-27T09:10:20Z</time>
      </trkpt>
      <trkpt lat="45.75739" lon="3.08111">
        <ele>416.8</ele>
        <time>2021-08-27T09:10:22Z</time>
      </trkpt>
      <trkpt lat="45.75744" lon="3.08101">
        <ele>416.1</ele>
        <time>2021-08-27T09:10:24Z</time>
      </trkpt>
      <trkpt lat="45.75752" lon="3.08093">
        <ele>415.2</ele>
        <time>2021-08-27T09:10:26Z</time>
      </trkpt>
      <trkpt lat="45.75761" lon="3.08088">
        <ele>414.8</ele>
        <time>2021-08-27T09:10:28Z</time>
      </trkpt>
      <trkpt lat="45.75769" lon="3.08084">
        <ele>414.6</ele>
        <time>2021-08-27T09:10:30Z</time>
      </trkpt>
      <trkpt lat="45.75775" lon="3.08083">
        <ele>414.4</ele>
        <time>2021-08-27T09:10:32Z</time>
      </trkpt>
      <trkpt lat="45.75781" lon="3.08085">
        <ele>414.2</ele>
        <time>2021-08-27T09:10:34Z</time>
      </trkpt>
      <trkpt lat="45.75788" lon="3.08086">
        <ele>414.1</ele>
        <time>2021-08-27T09:10:36Z</time>
      </trkpt>
      <trkpt lat="45.75795" lon="3.08089">
        <ele>413.8</ele>
        <time>2021-08-27T09:10:38Z</time>
      </trkpt>
      <trkpt lat="45.75804" lon="3.08093">
        <ele>413.5</ele>
        <time>2021-08-27T09:10:40Z</time>
      </trkpt>
      <trkpt lat="45.75813" lon="3.08099">
        <ele>413</ele>
        <time>2021-08-27T09:10:42Z</time>
      </trkpt>
      <trkpt lat="45.75823" lon="3.08103">
        <ele>412.5</ele>
        <time>2021-08-27T09:10:44Z</time>
      </trkpt>
      <trkpt lat="45.75835" lon="3.08107">
        <ele>411.9</ele>
        <time>2021-08-27T09:10:46Z</time>
      </trkpt>
      <trkpt lat="45.75847" lon="3.08111">
        <ele>411.8</ele>
        <time>2021-08-27T09:10:48Z</time>
      </trkpt>
      <trkpt lat="45.75858" lon="3.08114">
        <ele>411.7</ele>
        <time>2021-08-27T09:10:50Z</time>
      </trkpt>
      <trkpt lat="45.75866" lon="3.08116">
        <ele>411.6</ele>
        <time>2021-08-27T09:10:52Z</time>
      </trkpt>
      <trkpt lat="45.75877" lon="3.08123">
        <ele>411.1</ele>
        <time>2021-08-27T09:10:54Z</time>
      </trkpt>
      <trkpt lat="45.75888" lon="3.08127">
        <ele>410.8</ele>
        <time>2021-08-27T09:10:56Z</time>
      </trkpt>
      <trkpt lat="45.75899" lon="3.08132">
        <ele>410.4</ele>
        <time>2021-08-27T09:10:58Z</time>
      </trkpt>
      <trkpt lat="45.7591" lon="3.08137">
        <ele>409.9</ele>
        <time>2021-08-27T09:11:00Z</time>
      </trkpt>
      <trkpt lat="45.75922" lon="3.08142">
        <ele>409.3</ele>
        <time>2021-08-27T09:11:02Z</time>
      </trkpt>
      <trkpt lat="45.75934" lon="3.08147">
        <ele>408.7</ele>
        <time>2021-08-27T09:11:04Z</time>
      </trkpt>
      <trkpt lat="45.75946" lon="3.08151">
        <ele>408.1</ele>
        <time>2021-08-27T09:11:06Z</time>
      </trkpt>
      <trkpt lat="45.75958" lon="3.08156">
        <ele>407.5</ele>
        <time>2021-08-27T09:11:08Z</time>
      </trkpt>
      <trkpt lat="45.75971" lon="3.0816">
        <ele>406.9</ele>
        <time>2021-08-27T09:11:10Z</time>
      </trkpt>
      <trkpt lat="45.75986" lon="3.08164">
        <ele>406.4</ele>
        <time>2021-08-27T09:11:12Z</time>
      </trkpt>
      <trkpt lat="45.75997" lon="3.0817">
        <ele>405.8</ele>
        <time>2021-08-27T09:11:14Z</time>
      </trkpt>
      <trkpt lat="45.76008" lon="3.08174">
        <ele>405.6</ele>
        <time>2021-08-27T09:11:16Z</time>
      </trkpt>
      <trkpt lat="45.7602" lon="3.08177">
        <ele>405.4</ele>
        <time>2021-08-27T09:11:18Z</time>
      </trkpt>
      <trkpt lat="45.7603" lon="3.08181">
        <ele>405.2</ele>
        <time>2021-08-27T09:11:20Z</time>
      </trkpt>
      <trkpt lat="45.76041" lon="3.08186">
        <ele>405</ele>
        <time>2021-08-27T09:11:22Z</time>
      </trkpt>
      <trkpt lat="45.76052" lon="3.0819">
        <ele>404.7</ele>
        <time>2021-08-27T09:11:24Z</time>
      </trkpt>
      <trkpt lat="45.76062" lon="3.08195">
        <ele>404.4</ele>
        <time>2021-08-27T09:11:26Z</time>
      </trkpt>
      <trkpt lat="45.76073" lon="3.082">
        <ele>404.1</ele>
        <time>2021-08-27T09:11:28Z</time>
      </trkpt>
      <trkpt lat="45.76083" lon="3.08204">
        <ele>403.9</ele>
        <time>2021-08-27T09:11:30Z</time>
      </trkpt>
      <trkpt lat="45.76093" lon="3.08208">
        <ele>403.5</ele>
        <time>2021-08-27T09:11:32Z</time>
      </trkpt>
      <trkpt lat="45.76103" lon="3.08212">
        <ele>403.2</ele>
        <time>2021-08-27T09:11:34Z</time>
      </trkpt>
      <trkpt lat="45.7611" lon="3.08215">
        <ele>402.9</ele>
        <time>2021-08-27T09:11:36Z</time>
      </trkpt>
      <trkpt lat="45.76117" lon="3.08219">
        <ele>402.6</ele>
        <time>2021-08-27T09:11:38Z</time>
      </trkpt>
      <trkpt lat="45.76124" lon="3.0822">
        <ele>402.5</ele>
        <time>2021-08-27T09:11:40Z</time>
      </trkpt>
      <trkpt lat="45.76127" lon="3.08223">
        <ele>402.3</ele>
        <time>2021-08-27T09:11:42Z</time>
      </trkpt>
      <trkpt lat="45.76131" lon="3.08223">
        <ele>402.2</ele>
        <time>2021-08-27T09:11:44Z</time>
      </trkpt>
      <trkpt lat="45.76136" lon="3.08224">
        <ele>402.2</ele>
        <time>2021-08-27T09:11:46Z</time>
      </trkpt>
      <trkpt lat="45.76142" lon="3.08227">
        <ele>401.9</ele>
        <time>2021-08-27T09:11:48Z</time>
      </trkpt>
      <trkpt lat="45.76149" lon="3.0823">
        <ele>401.7</ele>
        <time>2021-08-27T09:11:50Z</time>
      </trkpt>
      <trkpt lat="45.76158" lon="3.08234">
        <ele>401.3</ele>
        <time>2021-08-27T09:11:52Z</time>
      </trkpt>
      <trkpt lat="45.76167" lon="3.08238">
        <ele>401</ele>
        <time>2021-08-27T09:11:54Z</time>
      </trkpt>
      <trkpt lat="45.76176" lon="3.0824">
        <ele>400.7</ele>
        <time>2021-08-27T09:11:56Z</time>
      </trkpt>
      <trkpt lat="45.76186" lon="3.08244">
        <ele>400.3</ele>
        <time>2021-08-27T09:11:58Z</time>
      </trkpt>
      <trkpt lat="45.76196" lon="3.08249">
        <ele>399.8</ele>
        <time>2021-08-27T09:12:00Z</time>
      </trkpt>
      <trkpt lat="45.76208" lon="3.08253">
        <ele>399.4</ele>
        <time>2021-08-27T09:12:02Z</time>
      </trkpt>
      <trkpt lat="45.76219" lon="3.08257">
        <ele>399.2</ele>
        <time>2021-08-27T09:12:04Z</time>
      </trkpt>
      <trkpt lat="45.76232" lon="3.08259">
        <ele>399</ele>
        <time>2021-08-27T09:12:06Z</time>
      </trkpt>
      <trkpt lat="45.76245" lon="3.08263">
        <ele>398.7</ele>
        <time>2021-08-27T09:12:08Z</time>
      </trkpt>
      <trkpt lat="45.76257" lon="3.08268">
        <ele>398.2</ele>
        <time>2021-08-27T09:12:10Z</time>
      </trkpt>
      <trkpt lat="45.7627" lon="3.08271">
        <ele>397.4</ele>
        <time>2021-08-27T09:12:12Z</time>
      </trkpt>
      <trkpt lat="45.76282" lon="3.08275">
        <ele>396.6</ele>
        <time>2021-08-27T09:12:14Z</time>
      </trkpt>
      <trkpt lat="45.76296" lon="3.08276">
        <ele>395.8</ele>
        <time>2021-08-27T09:12:16Z</time>
      </trkpt>
      <trkpt lat="45.76309" lon="3.08277">
        <ele>395.1</ele>
        <time>2021-08-27T09:12:18Z</time>
      </trkpt>
      <trkpt lat="45.76324" lon="3.08281">
        <ele>394.2</ele>
        <time>2021-08-27T09:12:20Z</time>
      </trkpt>
      <trkpt lat="45.76337" lon="3.08283">
        <ele>393.5</ele>
        <time>2021-08-27T09:12:22Z</time>
      </trkpt>
      <trkpt lat="45.76351" lon="3.08283">
        <ele>393</ele>
        <time>2021-08-27T09:12:24Z</time>
      </trkpt>
      <trkpt lat="45.76365" lon="3.08284">
        <ele>392.5</ele>
        <time>2021-08-27T09:12:26Z</time>
      </trkpt>
      <trkpt lat="45.76379" lon="3.08285">
        <ele>391.9</ele>
        <time>2021-08-27T09:12:28Z</time>
      </trkpt>
      <trkpt lat="45.76394" lon="3.08286">
        <ele>391.4</ele>
        <time>2021-08-27T09:12:30Z</time>
      </trkpt>
      <trkpt lat="45.76406" lon="3.08287">
        <ele>390.9</ele>
        <time>2021-08-27T09:12:32Z</time>
      </trkpt>
      <trkpt lat="45.76419" lon="3.08287">
        <ele>390.5</ele>
        <time>2021-08-27T09:12:34Z</time>
      </trkpt>
      <trkpt lat="45.76431" lon="3.08288">
        <ele>390</ele>
        <time>2021-08-27T09:12:36Z</time>
      </trkpt>
      <trkpt lat="45.76443" lon="3.08289">
        <ele>389.4</ele>
        <time>2021-08-27T09:12:38Z</time>
      </trkpt>
      <trkpt lat="45.76453" lon="3.08288">
        <ele>389</ele>
        <time>2021-08-27T09:12:40Z</time>
      </trkpt>
      <trkpt lat="45.76462" lon="3.08288">
        <ele>388.7</ele>
        <time>2021-08-27T09:12:42Z</time>
      </trkpt>
      <trkpt lat="45.7647" lon="3.08288">
        <ele>388.3</ele>
        <time>2021-08-27T09:12:44Z</time>
      </trkpt>
      <trkpt lat="45.76476" lon="3.0829">
        <ele>388.1</ele>
        <time>2021-08-27T09:12:46Z</time>
      </trkpt>
      <trkpt lat="45.76481" lon="3.0829">
        <ele>387.8</ele>
        <time>2021-08-27T09:12:48Z</time>
      </trkpt>
      <trkpt lat="45.76488" lon="3.0829">
        <ele>387.6</ele>
        <time>2021-08-27T09:12:50Z</time>
      </trkpt>
      <trkpt lat="45.76495" lon="3.08293">
        <ele>387.2</ele>
        <time>2021-08-27T09:12:52Z</time>
      </trkpt>
      <trkpt lat="45.76504" lon="3.08293">
        <ele>386.9</ele>
        <time>2021-08-27T09:12:54Z</time>
      </trkpt>
      <trkpt lat="45.76514" lon="3.08293">
        <ele>386.9</ele>
        <time>2021-08-27T09:12:56Z</time>
      </trkpt>
      <trkpt lat="45.76525" lon="3.08291">
        <ele>386.9</ele>
        <time>2021-08-27T09:12:58Z</time>
      </trkpt>
      <trkpt lat="45.76535" lon="3.08288">
        <ele>386.8</ele>
        <time>2021-08-27T09:13:00Z</time>
      </trkpt>
      <trkpt lat="45.76546" lon="3.0829">
        <ele>386.7</ele>
        <time>2021-08-27T09:13:02Z</time>
      </trkpt>
      <trkpt lat="45.76558" lon="3.0829">
        <ele>386.6</ele>
        <time>2021-08-27T09:13:04Z</time>
      </trkpt>
      <trkpt lat="45.76569" lon="3.08291">
        <ele>386.6</ele>
        <time>2021-08-27T09:13:06Z</time>
      </trkpt>
      <trkpt lat="45.76577" lon="3.08296">
        <ele>386.6</ele>
        <time>2021-08-27T09:13:08Z</time>
      </trkpt>
      <trkpt lat="45.7659" lon="3.08298">
        <ele>386.4</ele>
        <time>2021-08-27T09:13:10Z</time>
      </trkpt>
      <trkpt lat="45.766" lon="3.08297">
        <ele>386.1</ele>
        <time>2021-08-27T09:13:12Z</time>
      </trkpt>
      <trkpt lat="45.7661" lon="3.08294">
        <ele>385.7</ele>
        <time>2021-08-27T09:13:14Z</time>
      </trkpt>
      <trkpt lat="45.7662" lon="3.08297">
        <ele>385.4</ele>
        <time>2021-08-27T09:13:16Z</time>
      </trkpt>
      <trkpt lat="45.76631" lon="3.083">
        <ele>385.1</ele>
        <time>2021-08-27T09:13:18Z</time>
      </trkpt>
      <trkpt lat="45.76641" lon="3.08303">
        <ele>384.8</ele>
        <time>2021-08-27T09:13:20Z</time>
      </trkpt>
      <trkpt lat="45.76651" lon="3.08303">
        <ele>384.5</ele>
        <time>2021-08-27T09:13:22Z</time>
      </trkpt>
      <trkpt lat="45.76661" lon="3.08302">
        <ele>384.2</ele>
        <time>2021-08-27T09:13:24Z</time>
      </trkpt>
      <trkpt lat="45.76672" lon="3.08299">
        <ele>383.9</ele>
        <time>2021-08-27T09:13:26Z</time>
      </trkpt>
      <trkpt lat="45.76683" lon="3.08297">
        <ele>383.7</ele>
        <time>2021-08-27T09:13:28Z</time>
      </trkpt>
      <trkpt lat="45.76693" lon="3.08299">
        <ele>383.6</ele>
        <time>2021-08-27T09:13:30Z</time>
      </trkpt>
      <trkpt lat="45.76703" lon="3.083">
        <ele>383.4</ele>
        <time>2021-08-27T09:13:32Z</time>
      </trkpt>
      <trkpt lat="45.76713" lon="3.08301">
        <ele>383.2</ele>
        <time>2021-08-27T09:13:34Z</time>
      </trkpt>
      <trkpt lat="45.76723" lon="3.08303">
        <ele>383.1</ele>
        <time>2021-08-27T09:13:36Z</time>
      </trkpt>
      <trkpt lat="45.76733" lon="3.08302">
        <ele>382.9</ele>
        <time>2021-08-27T09:13:38Z</time>
      </trkpt>
      <trkpt lat="45.76741" lon="3.08304">
        <ele>382.8</ele>
        <time>2021-08-27T09:13:40Z</time>
      </trkpt>
      <trkpt lat="45.76749" lon="3.08305">
        <ele>382.7</ele>
        <time>2021-08-27T09:13:42Z</time>
      </trkpt>
      <trkpt lat="45.76754" lon="3.08306">
        <ele>382.7</ele>
        <time>2021-08-27T09:13:44Z</time>
      </trkpt>
      <trkpt lat="45.76755" lon="3.08306">
        <ele>382.6</ele>
        <time>2021-08-27T09:13:46Z</time>
      </trkpt>
      <trkpt lat="45.76758" lon="3.08306">
        <ele>382.6</ele>
        <time>2021-08-27T09:13:48Z</time>
      </trkpt>
      <trkpt lat="45.7676" lon="3.08306">
        <ele>382.6</ele>
        <time>2021-08-27T09:13:50Z</time>
      </trkpt>
      <trkpt lat="45.7676" lon="3.08306">
        <ele>382.6</ele>
        <time>2021-08-27T09:13:52Z</time>
      </trkpt>
      <trkpt lat="45.76759" lon="3.08305">
        <ele>382.6</ele>
        <time>2021-08-27T09:13:54Z</time>
      </trkpt>
      <trkpt lat="45.7676" lon="3.08305">
        <ele>382.6</ele>
        <time>2021-08-27T09:13:56Z</time>
      </trkpt>
      <trkpt lat="45.7676" lon="3.08305">
        <ele>382.6</ele>
        <time>2021-08-27T09:13:58Z</time>
      </trkpt>
      <trkpt lat="45.76772" lon="3.08309">
        <ele>382.6</ele>
        <time>2021-08-27T09:14:12Z</time>
      </trkpt>
      <trkpt lat="45.76778" lon="3.0831">
        <ele>382.6</ele>
        <time>2021-08-27T09:14:14Z</time>
      </trkpt>
      <trkpt lat="45.76785" lon="3.0831">
        <ele>382.5</ele>
        <time>2021-08-27T09:14:16Z</time>
      </trkpt>
      <trkpt lat="45.76791" lon="3.0831">
        <ele>382.5</ele>
        <time>2021-08-27T09:14:18Z</time>
      </trkpt>
      <trkpt lat="45.76796" lon="3.08311">
        <ele>382.5</ele>
        <time>2021-08-27T09:14:20Z</time>
      </trkpt>
      <trkpt lat="45.76805" lon="3.08309">
        <ele>382.4</ele>
        <time>2021-08-27T09:14:22Z</time>
      </trkpt>
      <trkpt lat="45.76813" lon="3.0831">
        <ele>382.4</ele>
        <time>2021-08-27T09:14:24Z</time>
      </trkpt>
      <trkpt lat="45.76821" lon="3.08312">
        <ele>382.3</ele>
        <time>2021-08-27T09:14:26Z</time>
      </trkpt>
      <trkpt lat="45.76831" lon="3.08311">
        <ele>382.3</ele>
        <time>2021-08-27T09:14:28Z</time>
      </trkpt>
      <trkpt lat="45.76839" lon="3.08311">
        <ele>382.5</ele>
        <time>2021-08-27T09:14:30Z</time>
      </trkpt>
      <trkpt lat="45.76848" lon="3.08312">
        <ele>382.7</ele>
        <time>2021-08-27T09:14:32Z</time>
      </trkpt>
      <trkpt lat="45.76858" lon="3.08311">
        <ele>383.1</ele>
        <time>2021-08-27T09:14:34Z</time>
      </trkpt>
      <trkpt lat="45.76867" lon="3.08312">
        <ele>383.4</ele>
        <time>2021-08-27T09:14:36Z</time>
      </trkpt>
      <trkpt lat="45.76877" lon="3.08312">
        <ele>383.7</ele>
        <time>2021-08-27T09:14:38Z</time>
      </trkpt>
      <trkpt lat="45.76887" lon="3.08313">
        <ele>384</ele>
        <time>2021-08-27T09:14:40Z</time>
      </trkpt>
      <trkpt lat="45.76896" lon="3.08314">
        <ele>384.3</ele>
        <time>2021-08-27T09:14:42Z</time>
      </trkpt>
      <trkpt lat="45.76906" lon="3.08315">
        <ele>384.7</ele>
        <time>2021-08-27T09:14:44Z</time>
      </trkpt>
      <trkpt lat="45.76917" lon="3.08317">
        <ele>385</ele>
        <time>2021-08-27T09:14:46Z</time>
      </trkpt>
      <trkpt lat="45.76924" lon="3.08318">
        <ele>385.3</ele>
        <time>2021-08-27T09:14:48Z</time>
      </trkpt>
      <trkpt lat="45.76933" lon="3.08318">
        <ele>385.6</ele>
        <time>2021-08-27T09:14:50Z</time>
      </trkpt>
      <trkpt lat="45.76941" lon="3.08319">
        <ele>386</ele>
        <time>2021-08-27T09:14:52Z</time>
      </trkpt>
      <trkpt lat="45.76949" lon="3.08319">
        <ele>386.3</ele>
        <time>2021-08-27T09:14:54Z</time>
      </trkpt>
      <trkpt lat="45.76956" lon="3.0832">
        <ele>386.6</ele>
        <time>2021-08-27T09:14:56Z</time>
      </trkpt>
      <trkpt lat="45.76963" lon="3.08319">
        <ele>386.8</ele>
        <time>2021-08-27T09:14:58Z</time>
      </trkpt>
      <trkpt lat="45.76969" lon="3.08318">
        <ele>387</ele>
        <time>2021-08-27T09:15:00Z</time>
      </trkpt>
      <trkpt lat="45.76973" lon="3.08318">
        <ele>387.2</ele>
        <time>2021-08-27T09:15:02Z</time>
      </trkpt>
      <trkpt lat="45.76977" lon="3.08318">
        <ele>387.4</ele>
        <time>2021-08-27T09:15:04Z</time>
      </trkpt>
      <trkpt lat="45.7698" lon="3.08318">
        <ele>387.5</ele>
        <time>2021-08-27T09:15:06Z</time>
      </trkpt>
      <trkpt lat="45.76982" lon="3.08317">
        <ele>387.5</ele>
        <time>2021-08-27T09:15:08Z</time>
      </trkpt>
      <trkpt lat="45.76985" lon="3.08317">
        <ele>387.7</ele>
        <time>2021-08-27T09:15:10Z</time>
      </trkpt>
      <trkpt lat="45.76988" lon="3.08318">
        <ele>387.8</ele>
        <time>2021-08-27T09:15:12Z</time>
      </trkpt>
      <trkpt lat="45.76991" lon="3.08321">
        <ele>388</ele>
        <time>2021-08-27T09:15:14Z</time>
      </trkpt>
      <trkpt lat="45.76992" lon="3.08322">
        <ele>388.1</ele>
        <time>2021-08-27T09:15:16Z</time>
      </trkpt>
      <trkpt lat="45.76993" lon="3.08322">
        <ele>388.2</ele>
        <time>2021-08-27T09:15:18Z</time>
      </trkpt>
      <trkpt lat="45.76993" lon="3.08322">
        <ele>388.2</ele>
        <time>2021-08-27T09:15:20Z</time>
      </trkpt>
      <trkpt lat="45.7701" lon="3.08327">
        <ele>388.8</ele>
        <time>2021-08-27T09:16:38Z</time>
      </trkpt>
      <trkpt lat="45.77014" lon="3.08325">
        <ele>388.7</ele>
        <time>2021-08-27T09:16:40Z</time>
      </trkpt>
      <trkpt lat="45.77017" lon="3.08326">
        <ele>388.8</ele>
        <time>2021-08-27T09:16:42Z</time>
      </trkpt>
      <trkpt lat="45.77024" lon="3.08326">
        <ele>388.9</ele>
        <time>2021-08-27T09:16:44Z</time>
      </trkpt>
      <trkpt lat="45.7703" lon="3.08326">
        <ele>389</ele>
        <time>2021-08-27T09:16:46Z</time>
      </trkpt>
      <trkpt lat="45.77037" lon="3.08327">
        <ele>389.1</ele>
        <time>2021-08-27T09:16:48Z</time>
      </trkpt>
      <trkpt lat="45.77043" lon="3.08328">
        <ele>389.2</ele>
        <time>2021-08-27T09:16:50Z</time>
      </trkpt>
      <trkpt lat="45.77049" lon="3.08329">
        <ele>389.4</ele>
        <time>2021-08-27T09:16:52Z</time>
      </trkpt>
      <trkpt lat="45.77054" lon="3.08329">
        <ele>389.4</ele>
        <time>2021-08-27T09:16:54Z</time>
      </trkpt>
      <trkpt lat="45.7706" lon="3.0833">
        <ele>389.5</ele>
        <time>2021-08-27T09:16:56Z</time>
      </trkpt>
      <trkpt lat="45.77066" lon="3.0833">
        <ele>389.6</ele>
        <time>2021-08-27T09:16:58Z</time>
      </trkpt>
      <trkpt lat="45.77072" lon="3.08331">
        <ele>389.7</ele>
        <time>2021-08-27T09:17:00Z</time>
      </trkpt>
      <trkpt lat="45.77078" lon="3.08331">
        <ele>389.8</ele>
        <time>2021-08-27T09:17:02Z</time>
      </trkpt>
      <trkpt lat="45.77083" lon="3.08331">
        <ele>389.9</ele>
        <time>2021-08-27T09:17:04Z</time>
      </trkpt>
      <trkpt lat="45.77084" lon="3.08331">
        <ele>389.8</ele>
        <time>2021-08-27T09:17:06Z</time>
      </trkpt>
      <trkpt lat="45.77087" lon="3.08332">
        <ele>389.8</ele>
        <time>2021-08-27T09:17:08Z</time>
      </trkpt>
      <trkpt lat="45.77089" lon="3.08331">
        <ele>389.7</ele>
        <time>2021-08-27T09:17:10Z</time>
      </trkpt>
      <trkpt lat="45.77092" lon="3.08331">
        <ele>389.6</ele>
        <time>2021-08-27T09:17:12Z</time>
      </trkpt>
      <trkpt lat="45.77094" lon="3.08332">
        <ele>389.6</ele>
        <time>2021-08-27T09:17:14Z</time>
      </trkpt>
      <trkpt lat="45.77094" lon="3.08331">
        <ele>389.5</ele>
        <time>2021-08-27T09:17:16Z</time>
      </trkpt>
      <trkpt lat="45.77094" lon="3.0833">
        <ele>389.5</ele>
        <time>2021-08-27T09:17:18Z</time>
      </trkpt>
      <trkpt lat="45.77094" lon="3.0833">
        <ele>389.4</ele>
        <time>2021-08-27T09:17:20Z</time>
      </trkpt>
      <trkpt lat="45.77095" lon="3.0833">
        <ele>389.4</ele>
        <time>2021-08-27T09:17:22Z</time>
      </trkpt>
      <trkpt lat="45.77112" lon="3.08329">
        <ele>388.8</ele>
        <time>2021-08-27T09:17:30Z</time>
      </trkpt>
      <trkpt lat="45.7712" lon="3.08334">
        <ele>388.7</ele>
        <time>2021-08-27T09:17:32Z</time>
      </trkpt>
      <trkpt lat="45.77128" lon="3.08336">
        <ele>388.4</ele>
        <time>2021-08-27T09:17:34Z</time>
      </trkpt>
      <trkpt lat="45.77136" lon="3.08335">
        <ele>388.1</ele>
        <time>2021-08-27T09:17:36Z</time>
      </trkpt>
      <trkpt lat="45.77144" lon="3.08334">
        <ele>387.8</ele>
        <time>2021-08-27T09:17:38Z</time>
      </trkpt>
      <trkpt lat="45.77151" lon="3.08331">
        <ele>387.5</ele>
        <time>2021-08-27T09:17:40Z</time>
      </trkpt>
      <trkpt lat="45.77158" lon="3.08327">
        <ele>387.2</ele>
        <time>2021-08-27T09:17:42Z</time>
      </trkpt>
      <trkpt lat="45.77166" lon="3.08325">
        <ele>386.9</ele>
        <time>2021-08-27T09:17:44Z</time>
      </trkpt>
      <trkpt lat="45.77175" lon="3.08323">
        <ele>387.2</ele>
        <time>2021-08-27T09:17:46Z</time>
      </trkpt>
      <trkpt lat="45.77183" lon="3.0832">
        <ele>387.5</ele>
        <time>2021-08-27T09:17:48Z</time>
      </trkpt>
      <trkpt lat="45.77191" lon="3.08317">
        <ele>387.8</ele>
        <time>2021-08-27T09:17:50Z</time>
      </trkpt>
      <trkpt lat="45.77199" lon="3.08317">
        <ele>388</ele>
        <time>2021-08-27T09:17:52Z</time>
      </trkpt>
      <trkpt lat="45.77205" lon="3.08317">
        <ele>388.3</ele>
        <time>2021-08-27T09:17:54Z</time>
      </trkpt>
      <trkpt lat="45.77211" lon="3.08316">
        <ele>388.5</ele>
        <time>2021-08-27T09:17:56Z</time>
      </trkpt>
      <trkpt lat="45.77218" lon="3.08314">
        <ele>388.8</ele>
        <time>2021-08-27T09:17:58Z</time>
      </trkpt>
      <trkpt lat="45.77225" lon="3.08312">
        <ele>389</ele>
        <time>2021-08-27T09:18:00Z</time>
      </trkpt>
      <trkpt lat="45.77231" lon="3.08311">
        <ele>389.3</ele>
        <time>2021-08-27T09:18:02Z</time>
      </trkpt>
      <trkpt lat="45.77238" lon="3.08308">
        <ele>389.5</ele>
        <time>2021-08-27T09:18:04Z</time>
      </trkpt>
      <trkpt lat="45.77245" lon="3.08305">
        <ele>389.8</ele>
        <time>2021-08-27T09:18:06Z</time>
      </trkpt>
      <trkpt lat="45.77252" lon="3.08302">
        <ele>390.1</ele>
        <time>2021-08-27T09:18:08Z</time>
      </trkpt>
      <trkpt lat="45.77259" lon="3.08301">
        <ele>390.3</ele>
        <time>2021-08-27T09:18:10Z</time>
      </trkpt>
      <trkpt lat="45.77264" lon="3.08302">
        <ele>390.5</ele>
        <time>2021-08-27T09:18:12Z</time>
      </trkpt>
      <trkpt lat="45.77273" lon="3.08297">
        <ele>390.7</ele>
        <time>2021-08-27T09:18:14Z</time>
      </trkpt>
      <trkpt lat="45.77279" lon="3.08295">
        <ele>390.9</ele>
        <time>2021-08-27T09:18:16Z</time>
      </trkpt>
      <trkpt lat="45.77285" lon="3.08294">
        <ele>391.1</ele>
        <time>2021-08-27T09:18:18Z</time>
      </trkpt>
      <trkpt lat="45.77291" lon="3.08292">
        <ele>391.2</ele>
        <time>2021-08-27T09:18:20Z</time>
      </trkpt>
      <trkpt lat="45.77296" lon="3.08289">
        <ele>391.3</ele>
        <time>2021-08-27T09:18:22Z</time>
      </trkpt>
      <trkpt lat="45.77303" lon="3.08287">
        <ele>391.5</ele>
        <time>2021-08-27T09:18:24Z</time>
      </trkpt>
      <trkpt lat="45.77309" lon="3.08285">
        <ele>391.6</ele>
        <time>2021-08-27T09:18:26Z</time>
      </trkpt>
      <trkpt lat="45.77315" lon="3.08283">
        <ele>391.7</ele>
        <time>2021-08-27T09:18:28Z</time>
      </trkpt>
      <trkpt lat="45.7732" lon="3.08281">
        <ele>391.8</ele>
        <time>2021-08-27T09:18:30Z</time>
      </trkpt>
      <trkpt lat="45.77326" lon="3.08279">
        <ele>391.9</ele>
        <time>2021-08-27T09:18:32Z</time>
      </trkpt>
      <trkpt lat="45.77332" lon="3.08277">
        <ele>391.9</ele>
        <time>2021-08-27T09:18:34Z</time>
      </trkpt>
      <trkpt lat="45.77337" lon="3.08274">
        <ele>392</ele>
        <time>2021-08-27T09:18:36Z</time>
      </trkpt>
      <trkpt lat="45.77343" lon="3.08273">
        <ele>392.1</ele>
        <time>2021-08-27T09:18:38Z</time>
      </trkpt>
      <trkpt lat="45.7735" lon="3.08273">
        <ele>392.4</ele>
        <time>2021-08-27T09:18:40Z</time>
      </trkpt>
      <trkpt lat="45.77355" lon="3.08271">
        <ele>392.5</ele>
        <time>2021-08-27T09:18:42Z</time>
      </trkpt>
      <trkpt lat="45.77359" lon="3.0827">
        <ele>392.6</ele>
        <time>2021-08-27T09:18:44Z</time>
      </trkpt>
      <trkpt lat="45.77361" lon="3.08269">
        <ele>392.6</ele>
        <time>2021-08-27T09:18:46Z</time>
      </trkpt>
      <trkpt lat="45.77363" lon="3.0827">
        <ele>392.7</ele>
        <time>2021-08-27T09:18:48Z</time>
      </trkpt>
      <trkpt lat="45.77364" lon="3.08269">
        <ele>392.7</ele>
        <time>2021-08-27T09:18:50Z</time>
      </trkpt>
      <trkpt lat="45.77367" lon="3.08267">
        <ele>392.8</ele>
        <time>2021-08-27T09:18:52Z</time>
      </trkpt>
      <trkpt lat="45.7737" lon="3.08266">
        <ele>392.8</ele>
        <time>2021-08-27T09:18:54Z</time>
      </trkpt>
      <trkpt lat="45.77373" lon="3.08261">
        <ele>392.8</ele>
        <time>2021-08-27T09:18:56Z</time>
      </trkpt>
      <trkpt lat="45.77377" lon="3.08254">
        <ele>392.7</ele>
        <time>2021-08-27T09:18:58Z</time>
      </trkpt>
      <trkpt lat="45.77381" lon="3.08248">
        <ele>392.7</ele>
        <time>2021-08-27T09:19:00Z</time>
      </trkpt>
      <trkpt lat="45.77386" lon="3.08245">
        <ele>392.9</ele>
        <time>2021-08-27T09:19:02Z</time>
      </trkpt>
      <trkpt lat="45.7739" lon="3.08241">
        <ele>393</ele>
        <time>2021-08-27T09:19:04Z</time>
      </trkpt>
      <trkpt lat="45.77396" lon="3.0824">
        <ele>393.2</ele>
        <time>2021-08-27T09:19:06Z</time>
      </trkpt>
      <trkpt lat="45.77402" lon="3.08238">
        <ele>393.4</ele>
        <time>2021-08-27T09:19:08Z</time>
      </trkpt>
      <trkpt lat="45.77408" lon="3.08236">
        <ele>393.6</ele>
        <time>2021-08-27T09:19:10Z</time>
      </trkpt>
      <trkpt lat="45.77414" lon="3.08234">
        <ele>393.7</ele>
        <time>2021-08-27T09:19:12Z</time>
      </trkpt>
      <trkpt lat="45.77418" lon="3.08233">
        <ele>393.7</ele>
        <time>2021-08-27T09:19:14Z</time>
      </trkpt>
      <trkpt lat="45.77422" lon="3.08229">
        <ele>393.5</ele>
        <time>2021-08-27T09:19:16Z</time>
      </trkpt>
      <trkpt lat="45.77426" lon="3.08228">
        <ele>393.4</ele>
        <time>2021-08-27T09:19:18Z</time>
      </trkpt>
      <trkpt lat="45.7743" lon="3.08227">
        <ele>393.2</ele>
        <time>2021-08-27T09:19:20Z</time>
      </trkpt>
      <trkpt lat="45.77434" lon="3.08225">
        <ele>393</ele>
        <time>2021-08-27T09:19:22Z</time>
      </trkpt>
      <trkpt lat="45.77437" lon="3.08223">
        <ele>392.9</ele>
        <time>2021-08-27T09:19:24Z</time>
      </trkpt>
      <trkpt lat="45.77439" lon="3.08222">
        <ele>392.8</ele>
        <time>2021-08-27T09:19:26Z</time>
      </trkpt>
      <trkpt lat="45.77442" lon="3.08219">
        <ele>392.6</ele>
        <time>2021-08-27T09:19:28Z</time>
      </trkpt>
      <trkpt lat="45.77444" lon="3.08217">
        <ele>392.5</ele>
        <time>2021-08-27T09:19:30Z</time>
      </trkpt>
      <trkpt lat="45.77445" lon="3.08216">
        <ele>392.4</ele>
        <time>2021-08-27T09:19:32Z</time>
      </trkpt>
      <trkpt lat="45.77448" lon="3.08216">
        <ele>392.3</ele>
        <time>2021-08-27T09:19:34Z</time>
      </trkpt>
      <trkpt lat="45.77452" lon="3.08215">
        <ele>392.1</ele>
        <time>2021-08-27T09:19:36Z</time>
      </trkpt>
      <trkpt lat="45.77455" lon="3.0821">
        <ele>391.9</ele>
        <time>2021-08-27T09:19:38Z</time>
      </trkpt>
      <trkpt lat="45.7746" lon="3.08207">
        <ele>391.7</ele>
        <time>2021-08-27T09:19:40Z</time>
      </trkpt>
      <trkpt lat="45.77465" lon="3.08206">
        <ele>391.4</ele>
        <time>2021-08-27T09:19:42Z</time>
      </trkpt>
      <trkpt lat="45.77466" lon="3.08187">
        <ele>391</ele>
        <time>2021-08-27T09:19:44Z</time>
      </trkpt>
      <trkpt lat="45.77468" lon="3.08189">
        <ele>391</ele>
        <time>2021-08-27T09:19:46Z</time>
      </trkpt>
      <trkpt lat="45.77474" lon="3.08194">
        <ele>390.8</ele>
        <time>2021-08-27T09:19:48Z</time>
      </trkpt>
      <trkpt lat="45.7748" lon="3.08197">
        <ele>390.6</ele>
        <time>2021-08-27T09:19:50Z</time>
      </trkpt>
      <trkpt lat="45.77499" lon="3.08221">
        <ele>390.3</ele>
        <time>2021-08-27T09:19:52Z</time>
      </trkpt>
      <trkpt lat="45.77501" lon="3.08224">
        <ele>390.4</ele>
        <time>2021-08-27T09:19:54Z</time>
      </trkpt>
      <trkpt lat="45.77497" lon="3.08217">
        <ele>390.3</ele>
        <time>2021-08-27T09:19:56Z</time>
      </trkpt>
      <trkpt lat="45.77503" lon="3.08218">
        <ele>390.3</ele>
        <time>2021-08-27T09:19:58Z</time>
      </trkpt>
      <trkpt lat="45.77505" lon="3.08218">
        <ele>390.3</ele>
        <time>2021-08-27T09:20:00Z</time>
      </trkpt>
      <trkpt lat="45.77508" lon="3.0822">
        <ele>390.4</ele>
        <time>2021-08-27T09:20:02Z</time>
      </trkpt>
      <trkpt lat="45.77511" lon="3.0822">
        <ele>390.4</ele>
        <time>2021-08-27T09:20:04Z</time>
      </trkpt>
      <trkpt lat="45.77522" lon="3.08231">
        <ele>390.7</ele>
        <time>2021-08-27T09:20:06Z</time>
      </trkpt>
      <trkpt lat="45.77516" lon="3.08222">
        <ele>390.5</ele>
        <time>2021-08-27T09:20:08Z</time>
      </trkpt>
      <trkpt lat="45.77517" lon="3.08223">
        <ele>390.5</ele>
        <time>2021-08-27T09:20:10Z</time>
      </trkpt>
      <trkpt lat="45.77517" lon="3.08223">
        <ele>390.5</ele>
        <time>2021-08-27T09:20:12Z</time>
      </trkpt>
      <trkpt lat="45.77514" lon="3.0822">
        <ele>390.4</ele>
        <time>2021-08-27T09:20:14Z</time>
      </trkpt>
      <trkpt lat="45.77514" lon="3.08219">
        <ele>390.4</ele>
        <time>2021-08-27T09:20:16Z</time>
      </trkpt>
      <trkpt lat="45.77514" lon="3.0822">
        <ele>390.4</ele>
        <time>2021-08-27T09:20:44Z</time>
      </trkpt>
      <trkpt lat="45.77514" lon="3.0822">
        <ele>390.4</ele>
        <time>2021-08-27T09:20:46Z</time>
      </trkpt>
      <trkpt lat="45.77514" lon="3.08221">
        <ele>390.4</ele>
        <time>2021-08-27T09:20:48Z</time>
      </trkpt>
      <trkpt lat="45.77514" lon="3.08222">
        <ele>390.5</ele>
        <time>2021-08-27T09:20:50Z</time>
      </trkpt>
      <trkpt lat="45.77516" lon="3.08222">
        <ele>390.5</ele>
        <time>2021-08-27T09:20:52Z</time>
      </trkpt>
      <trkpt lat="45.77518" lon="3.08223">
        <ele>390.5</ele>
        <time>2021-08-27T09:20:54Z</time>
      </trkpt>
      <trkpt lat="45.7752" lon="3.08224">
        <ele>390.5</ele>
        <time>2021-08-27T09:20:56Z</time>
      </trkpt>
      <trkpt lat="45.77523" lon="3.08224">
        <ele>390.5</ele>
        <time>2021-08-27T09:20:58Z</time>
      </trkpt>
      <trkpt lat="45.77525" lon="3.08224">
        <ele>390.6</ele>
        <time>2021-08-27T09:21:00Z</time>
      </trkpt>
      <trkpt lat="45.77527" lon="3.08224">
        <ele>390.6</ele>
        <time>2021-08-27T09:21:02Z</time>
      </trkpt>
      <trkpt lat="45.77529" lon="3.08225">
        <ele>390.6</ele>
        <time>2021-08-27T09:21:04Z</time>
      </trkpt>
      <trkpt lat="45.7753" lon="3.08226">
        <ele>390.6</ele>
        <time>2021-08-27T09:21:06Z</time>
      </trkpt>
      <trkpt lat="45.7753" lon="3.08226">
        <ele>390.6</ele>
        <time>2021-08-27T09:21:08Z</time>
      </trkpt>
      <trkpt lat="45.7753" lon="3.08225">
        <ele>390.6</ele>
        <time>2021-08-27T09:21:10Z</time>
      </trkpt>
      <trkpt lat="45.7753" lon="3.08225">
        <ele>390.6</ele>
        <time>2021-08-27T09:21:12Z</time>
      </trkpt>
      <trkpt lat="45.77578" lon="3.08338">
        <ele>396.3</ele>
        <time>2021-08-27T09:38:50Z</time>
      </trkpt>
      <trkpt lat="45.77576" lon="3.08344">
        <ele>396.6</ele>
        <time>2021-08-27T09:38:52Z</time>
      </trkpt>
      <trkpt lat="45.77576" lon="3.08348">
        <ele>396.8</ele>
        <time>2021-08-27T09:38:54Z</time>
      </trkpt>
      <trkpt lat="45.77576" lon="3.08353">
        <ele>397</ele>
        <time>2021-08-27T09:38:56Z</time>
      </trkpt>
      <trkpt lat="45.77576" lon="3.08358">
        <ele>397.3</ele>
        <time>2021-08-27T09:38:58Z</time>
      </trkpt>
      <trkpt lat="45.77576" lon="3.08363">
        <ele>397.5</ele>
        <time>2021-08-27T09:39:00Z</time>
      </trkpt>
      <trkpt lat="45.77577" lon="3.08368">
        <ele>397.7</ele>
        <time>2021-08-27T09:39:02Z</time>
      </trkpt>
      <trkpt lat="45.77578" lon="3.08372">
        <ele>397.9</ele>
        <time>2021-08-27T09:39:04Z</time>
      </trkpt>
      <trkpt lat="45.77578" lon="3.08376">
        <ele>398.1</ele>
        <time>2021-08-27T09:39:06Z</time>
      </trkpt>
      <trkpt lat="45.77578" lon="3.08381">
        <ele>398.3</ele>
        <time>2021-08-27T09:39:08Z</time>
      </trkpt>
      <trkpt lat="45.77579" lon="3.08386">
        <ele>398.6</ele>
        <time>2021-08-27T09:39:10Z</time>
      </trkpt>
      <trkpt lat="45.7758" lon="3.08391">
        <ele>398.8</ele>
        <time>2021-08-27T09:39:12Z</time>
      </trkpt>
      <trkpt lat="45.77586" lon="3.08393">
        <ele>399</ele>
        <time>2021-08-27T09:39:14Z</time>
      </trkpt>
      <trkpt lat="45.77586" lon="3.08398">
        <ele>399.3</ele>
        <time>2021-08-27T09:39:16Z</time>
      </trkpt>
      <trkpt lat="45.77587" lon="3.08404">
        <ele>399.6</ele>
        <time>2021-08-27T09:39:18Z</time>
      </trkpt>
      <trkpt lat="45.77588" lon="3.08408">
        <ele>399.8</ele>
        <time>2021-08-27T09:39:20Z</time>
      </trkpt>
      <trkpt lat="45.77588" lon="3.08413">
        <ele>400.1</ele>
        <time>2021-08-27T09:39:22Z</time>
      </trkpt>
      <trkpt lat="45.77589" lon="3.08418">
        <ele>400.3</ele>
        <time>2021-08-27T09:39:24Z</time>
      </trkpt>
      <trkpt lat="45.77589" lon="3.08423">
        <ele>400.8</ele>
        <time>2021-08-27T09:39:26Z</time>
      </trkpt>
      <trkpt lat="45.7759" lon="3.08427">
        <ele>401.2</ele>
        <time>2021-08-27T09:39:28Z</time>
      </trkpt>
      <trkpt lat="45.77591" lon="3.08433">
        <ele>401.7</ele>
        <time>2021-08-27T09:39:30Z</time>
      </trkpt>
      <trkpt lat="45.77592" lon="3.08437">
        <ele>402.1</ele>
        <time>2021-08-27T09:39:32Z</time>
      </trkpt>
      <trkpt lat="45.77593" lon="3.08442">
        <ele>402.5</ele>
        <time>2021-08-27T09:39:34Z</time>
      </trkpt>
      <trkpt lat="45.77592" lon="3.08447">
        <ele>402.9</ele>
        <time>2021-08-27T09:39:36Z</time>
      </trkpt>
      <trkpt lat="45.77591" lon="3.0845">
        <ele>403.2</ele>
        <time>2021-08-27T09:39:38Z</time>
      </trkpt>
      <trkpt lat="45.77591" lon="3.08454">
        <ele>403.5</ele>
        <time>2021-08-27T09:39:40Z</time>
      </trkpt>
      <trkpt lat="45.77591" lon="3.08461">
        <ele>404</ele>
        <time>2021-08-27T09:39:42Z</time>
      </trkpt>
      <trkpt lat="45.77591" lon="3.08466">
        <ele>404.5</ele>
        <time>2021-08-27T09:39:44Z</time>
      </trkpt>
      <trkpt lat="45.7759" lon="3.08471">
        <ele>404.9</ele>
        <time>2021-08-27T09:39:46Z</time>
      </trkpt>
      <trkpt lat="45.77589" lon="3.08476">
        <ele>405.3</ele>
        <time>2021-08-27T09:39:48Z</time>
      </trkpt>
      <trkpt lat="45.77588" lon="3.08482">
        <ele>405.7</ele>
        <time>2021-08-27T09:39:50Z</time>
      </trkpt>
      <trkpt lat="45.77587" lon="3.08488">
        <ele>406.1</ele>
        <time>2021-08-27T09:39:52Z</time>
      </trkpt>
      <trkpt lat="45.77587" lon="3.08494">
        <ele>406.6</ele>
        <time>2021-08-27T09:39:54Z</time>
      </trkpt>
      <trkpt lat="45.77586" lon="3.08501">
        <ele>407.1</ele>
        <time>2021-08-27T09:39:56Z</time>
      </trkpt>
      <trkpt lat="45.77585" lon="3.08506">
        <ele>407.2</ele>
        <time>2021-08-27T09:39:58Z</time>
      </trkpt>
      <trkpt lat="45.77586" lon="3.08511">
        <ele>407.2</ele>
        <time>2021-08-27T09:40:00Z</time>
      </trkpt>
      <trkpt lat="45.77587" lon="3.08515">
        <ele>407.3</ele>
        <time>2021-08-27T09:40:02Z</time>
      </trkpt>
      <trkpt lat="45.77587" lon="3.08519">
        <ele>407.4</ele>
        <time>2021-08-27T09:40:04Z</time>
      </trkpt>
      <trkpt lat="45.77588" lon="3.08523">
        <ele>407.5</ele>
        <time>2021-08-27T09:40:06Z</time>
      </trkpt>
      <trkpt lat="45.77588" lon="3.08527">
        <ele>407.6</ele>
        <time>2021-08-27T09:40:08Z</time>
      </trkpt>
      <trkpt lat="45.77587" lon="3.0853">
        <ele>407.6</ele>
        <time>2021-08-27T09:40:10Z</time>
      </trkpt>
      <trkpt lat="45.77586" lon="3.08534">
        <ele>407.6</ele>
        <time>2021-08-27T09:40:12Z</time>
      </trkpt>
      <trkpt lat="45.77586" lon="3.08539">
        <ele>407.6</ele>
        <time>2021-08-27T09:40:14Z</time>
      </trkpt>
      <trkpt lat="45.77588" lon="3.08544">
        <ele>407.9</ele>
        <time>2021-08-27T09:40:16Z</time>
      </trkpt>
      <trkpt lat="45.77591" lon="3.08549">
        <ele>408.2</ele>
        <time>2021-08-27T09:40:18Z</time>
      </trkpt>
      <trkpt lat="45.77594" lon="3.08549">
        <ele>408.4</ele>
        <time>2021-08-27T09:40:20Z</time>
      </trkpt>
      <trkpt lat="45.77597" lon="3.08547">
        <ele>408.6</ele>
        <time>2021-08-27T09:40:22Z</time>
      </trkpt>
      <trkpt lat="45.77599" lon="3.08546">
        <ele>408.7</ele>
        <time>2021-08-27T09:40:24Z</time>
      </trkpt>
      <trkpt lat="45.77601" lon="3.08545">
        <ele>408.9</ele>
        <time>2021-08-27T09:40:26Z</time>
      </trkpt>
      <trkpt lat="45.77604" lon="3.08544">
        <ele>409</ele>
        <time>2021-08-27T09:40:28Z</time>
      </trkpt>
      <trkpt lat="45.77606" lon="3.08543">
        <ele>409.2</ele>
        <time>2021-08-27T09:40:30Z</time>
      </trkpt>
      <trkpt lat="45.77609" lon="3.08544">
        <ele>409.4</ele>
        <time>2021-08-27T09:40:32Z</time>
      </trkpt>
      <trkpt lat="45.77611" lon="3.08544">
        <ele>409.6</ele>
        <time>2021-08-27T09:40:34Z</time>
      </trkpt>
      <trkpt lat="45.77615" lon="3.08543">
        <ele>409.8</ele>
        <time>2021-08-27T09:40:36Z</time>
      </trkpt>
      <trkpt lat="45.77616" lon="3.08545">
        <ele>410</ele>
        <time>2021-08-27T09:40:38Z</time>
      </trkpt>
      <trkpt lat="45.77615" lon="3.08547">
        <ele>410</ele>
        <time>2021-08-27T09:40:40Z</time>
      </trkpt>
      <trkpt lat="45.77615" lon="3.0855">
        <ele>410.1</ele>
        <time>2021-08-27T09:40:42Z</time>
      </trkpt>
      <trkpt lat="45.77615" lon="3.0855">
        <ele>410.1</ele>
        <time>2021-08-27T09:40:44Z</time>
      </trkpt>
      <trkpt lat="45.77616" lon="3.0855">
        <ele>410.2</ele>
        <time>2021-08-27T09:40:46Z</time>
      </trkpt>
      <trkpt lat="45.77616" lon="3.08551">
        <ele>410.2</ele>
        <time>2021-08-27T09:40:48Z</time>
      </trkpt>
      <trkpt lat="45.77616" lon="3.08556">
        <ele>410.4</ele>
        <time>2021-08-27T09:40:50Z</time>
      </trkpt>
      <trkpt lat="45.77616" lon="3.0856">
        <ele>410.6</ele>
        <time>2021-08-27T09:40:52Z</time>
      </trkpt>
      <trkpt lat="45.77616" lon="3.08564">
        <ele>410.7</ele>
        <time>2021-08-27T09:40:54Z</time>
      </trkpt>
      <trkpt lat="45.77617" lon="3.08564">
        <ele>410.8</ele>
        <time>2021-08-27T09:40:56Z</time>
      </trkpt>
      <trkpt lat="45.77617" lon="3.08564">
        <ele>410.8</ele>
        <time>2021-08-27T09:40:58Z</time>
      </trkpt>
      <trkpt lat="45.77617" lon="3.08564">
        <ele>410.9</ele>
        <time>2021-08-27T09:41:00Z</time>
      </trkpt>
      <trkpt lat="45.77618" lon="3.08564">
        <ele>410.9</ele>
        <time>2021-08-27T09:41:02Z</time>
      </trkpt>
      <trkpt lat="45.77619" lon="3.08584">
        <ele>411.8</ele>
        <time>2021-08-27T09:41:20Z</time>
      </trkpt>
      <trkpt lat="45.77619" lon="3.08588">
        <ele>411.7</ele>
        <time>2021-08-27T09:41:22Z</time>
      </trkpt>
      <trkpt lat="45.77618" lon="3.08593">
        <ele>411.5</ele>
        <time>2021-08-27T09:41:24Z</time>
      </trkpt>
      <trkpt lat="45.77618" lon="3.08596">
        <ele>411.4</ele>
        <time>2021-08-27T09:41:26Z</time>
      </trkpt>
      <trkpt lat="45.77617" lon="3.08599">
        <ele>411.3</ele>
        <time>2021-08-27T09:41:28Z</time>
      </trkpt>
      <trkpt lat="45.77616" lon="3.08602">
        <ele>411.1</ele>
        <time>2021-08-27T09:41:30Z</time>
      </trkpt>
      <trkpt lat="45.77617" lon="3.08606">
        <ele>411.1</ele>
        <time>2021-08-27T09:41:32Z</time>
      </trkpt>
      <trkpt lat="45.77616" lon="3.08611">
        <ele>410.9</ele>
        <time>2021-08-27T09:41:34Z</time>
      </trkpt>
      <trkpt lat="45.77615" lon="3.08615">
        <ele>410.7</ele>
        <time>2021-08-27T09:41:36Z</time>
      </trkpt>
      <trkpt lat="45.77613" lon="3.08619">
        <ele>410.4</ele>
        <time>2021-08-27T09:41:38Z</time>
      </trkpt>
      <trkpt lat="45.77611" lon="3.08624">
        <ele>410.2</ele>
        <time>2021-08-27T09:41:40Z</time>
      </trkpt>
      <trkpt lat="45.7761" lon="3.08629">
        <ele>410</ele>
        <time>2021-08-27T09:41:42Z</time>
      </trkpt>
      <trkpt lat="45.77608" lon="3.08634">
        <ele>409.7</ele>
        <time>2021-08-27T09:41:44Z</time>
      </trkpt>
      <trkpt lat="45.77607" lon="3.0864">
        <ele>409.5</ele>
        <time>2021-08-27T09:41:46Z</time>
      </trkpt>
      <trkpt lat="45.77606" lon="3.08646">
        <ele>409.3</ele>
        <time>2021-08-27T09:41:48Z</time>
      </trkpt>
      <trkpt lat="45.77605" lon="3.08651">
        <ele>409.1</ele>
        <time>2021-08-27T09:41:50Z</time>
      </trkpt>
      <trkpt lat="45.77605" lon="3.08656">
        <ele>409</ele>
        <time>2021-08-27T09:41:52Z</time>
      </trkpt>
      <trkpt lat="45.77606" lon="3.08659">
        <ele>409</ele>
        <time>2021-08-27T09:41:54Z</time>
      </trkpt>
      <trkpt lat="45.77605" lon="3.08662">
        <ele>408.9</ele>
        <time>2021-08-27T09:41:56Z</time>
      </trkpt>
      <trkpt lat="45.77606" lon="3.08667">
        <ele>408.9</ele>
        <time>2021-08-27T09:41:58Z</time>
      </trkpt>
      <trkpt lat="45.77608" lon="3.08673">
        <ele>408.9</ele>
        <time>2021-08-27T09:42:00Z</time>
      </trkpt>
      <trkpt lat="45.77608" lon="3.08679">
        <ele>408.8</ele>
        <time>2021-08-27T09:42:02Z</time>
      </trkpt>
      <trkpt lat="45.77608" lon="3.08684">
        <ele>408.6</ele>
        <time>2021-08-27T09:42:04Z</time>
      </trkpt>
      <trkpt lat="45.77609" lon="3.08689">
        <ele>408.5</ele>
        <time>2021-08-27T09:42:06Z</time>
      </trkpt>
      <trkpt lat="45.77609" lon="3.08693">
        <ele>408.4</ele>
        <time>2021-08-27T09:42:08Z</time>
      </trkpt>
      <trkpt lat="45.77611" lon="3.08697">
        <ele>408.4</ele>
        <time>2021-08-27T09:42:10Z</time>
      </trkpt>
      <trkpt lat="45.77611" lon="3.08697">
        <ele>408.4</ele>
        <time>2021-08-27T09:42:12Z</time>
      </trkpt>
      <trkpt lat="45.77611" lon="3.08698">
        <ele>408.3</ele>
        <time>2021-08-27T09:42:14Z</time>
      </trkpt>
      <trkpt lat="45.77612" lon="3.08703">
        <ele>408.2</ele>
        <time>2021-08-27T09:42:16Z</time>
      </trkpt>
      <trkpt lat="45.77612" lon="3.08709">
        <ele>408</ele>
        <time>2021-08-27T09:42:18Z</time>
      </trkpt>
      <trkpt lat="45.77612" lon="3.08713">
        <ele>407.9</ele>
        <time>2021-08-27T09:42:20Z</time>
      </trkpt>
      <trkpt lat="45.77615" lon="3.08714">
        <ele>407.8</ele>
        <time>2021-08-27T09:42:22Z</time>
      </trkpt>
      <trkpt lat="45.77619" lon="3.08715">
        <ele>407.8</ele>
        <time>2021-08-27T09:42:24Z</time>
      </trkpt>
      <trkpt lat="45.77623" lon="3.08715">
        <ele>407.9</ele>
        <time>2021-08-27T09:42:26Z</time>
      </trkpt>
      <trkpt lat="45.77629" lon="3.08716">
        <ele>407.9</ele>
        <time>2021-08-27T09:42:28Z</time>
      </trkpt>
      <trkpt lat="45.77637" lon="3.08718">
        <ele>407.7</ele>
        <time>2021-08-27T09:42:30Z</time>
      </trkpt>
      <trkpt lat="45.77647" lon="3.08719">
        <ele>407.7</ele>
        <time>2021-08-27T09:42:32Z</time>
      </trkpt>
      <trkpt lat="45.77655" lon="3.08719">
        <ele>407.7</ele>
        <time>2021-08-27T09:42:34Z</time>
      </trkpt>
      <trkpt lat="45.77662" lon="3.0872">
        <ele>407.6</ele>
        <time>2021-08-27T09:42:36Z</time>
      </trkpt>
      <trkpt lat="45.77667" lon="3.08722">
        <ele>407.4</ele>
        <time>2021-08-27T09:42:38Z</time>
      </trkpt>
      <trkpt lat="45.77671" lon="3.08721">
        <ele>407.7</ele>
        <time>2021-08-27T09:42:40Z</time>
      </trkpt>
      <trkpt lat="45.77671" lon="3.08717">
        <ele>408.2</ele>
        <time>2021-08-27T09:42:42Z</time>
      </trkpt>
      <trkpt lat="45.77675" lon="3.08714">
        <ele>408.9</ele>
        <time>2021-08-27T09:42:44Z</time>
      </trkpt>
      <trkpt lat="45.77681" lon="3.08714">
        <ele>409.1</ele>
        <time>2021-08-27T09:42:46Z</time>
      </trkpt>
      <trkpt lat="45.77686" lon="3.08713">
        <ele>409.6</ele>
        <time>2021-08-27T09:42:48Z</time>
      </trkpt>
      <trkpt lat="45.77692" lon="3.0871">
        <ele>410.1</ele>
        <time>2021-08-27T09:42:50Z</time>
      </trkpt>
      <trkpt lat="45.77696" lon="3.08708">
        <ele>410.6</ele>
        <time>2021-08-27T09:42:52Z</time>
      </trkpt>
      <trkpt lat="45.77702" lon="3.08706">
        <ele>411.1</ele>
        <time>2021-08-27T09:42:54Z</time>
      </trkpt>
      <trkpt lat="45.77709" lon="3.08705">
        <ele>411.6</ele>
        <time>2021-08-27T09:42:56Z</time>
      </trkpt>
      <trkpt lat="45.77715" lon="3.08704">
        <ele>412</ele>
        <time>2021-08-27T09:42:58Z</time>
      </trkpt>
      <trkpt lat="45.77719" lon="3.08704">
        <ele>412.2</ele>
        <time>2021-08-27T09:43:00Z</time>
      </trkpt>
      <trkpt lat="45.77724" lon="3.08705">
        <ele>412.4</ele>
        <time>2021-08-27T09:43:02Z</time>
      </trkpt>
      <trkpt lat="45.77727" lon="3.08707">
        <ele>412.4</ele>
        <time>2021-08-27T09:43:04Z</time>
      </trkpt>
      <trkpt lat="45.77733" lon="3.08707">
        <ele>412.7</ele>
        <time>2021-08-27T09:43:06Z</time>
      </trkpt>
      <trkpt lat="45.77738" lon="3.08705">
        <ele>413.1</ele>
        <time>2021-08-27T09:43:08Z</time>
      </trkpt>
      <trkpt lat="45.77741" lon="3.08705">
        <ele>413.3</ele>
        <time>2021-08-27T09:43:10Z</time>
      </trkpt>
      <trkpt lat="45.77743" lon="3.08706">
        <ele>413.3</ele>
        <time>2021-08-27T09:43:12Z</time>
      </trkpt>
      <trkpt lat="45.77748" lon="3.08702">
        <ele>413.8</ele>
        <time>2021-08-27T09:43:14Z</time>
      </trkpt>
      <trkpt lat="45.77752" lon="3.087">
        <ele>414</ele>
        <time>2021-08-27T09:43:16Z</time>
      </trkpt>
      <trkpt lat="45.77755" lon="3.08698">
        <ele>414.1</ele>
        <time>2021-08-27T09:43:18Z</time>
      </trkpt>
      <trkpt lat="45.77755" lon="3.08699">
        <ele>414</ele>
        <time>2021-08-27T09:43:20Z</time>
      </trkpt>
      <trkpt lat="45.77759" lon="3.08704">
        <ele>413.8</ele>
        <time>2021-08-27T09:43:22Z</time>
      </trkpt>
      <trkpt lat="45.77765" lon="3.08707">
        <ele>413.6</ele>
        <time>2021-08-27T09:43:24Z</time>
      </trkpt>
      <trkpt lat="45.77769" lon="3.08711">
        <ele>413.3</ele>
        <time>2021-08-27T09:43:26Z</time>
      </trkpt>
      <trkpt lat="45.77773" lon="3.08714">
        <ele>413.1</ele>
        <time>2021-08-27T09:43:28Z</time>
      </trkpt>
      <trkpt lat="45.77777" lon="3.08718">
        <ele>412.9</ele>
        <time>2021-08-27T09:43:30Z</time>
      </trkpt>
      <trkpt lat="45.77779" lon="3.08719">
        <ele>412.9</ele>
        <time>2021-08-27T09:43:32Z</time>
      </trkpt>
      <trkpt lat="45.77785" lon="3.08721">
        <ele>412.8</ele>
        <time>2021-08-27T09:43:34Z</time>
      </trkpt>
      <trkpt lat="45.7779" lon="3.08727">
        <ele>412.4</ele>
        <time>2021-08-27T09:43:36Z</time>
      </trkpt>
      <trkpt lat="45.77798" lon="3.08727">
        <ele>412.4</ele>
        <time>2021-08-27T09:43:38Z</time>
      </trkpt>
      <trkpt lat="45.77802" lon="3.08731">
        <ele>412.1</ele>
        <time>2021-08-27T09:43:40Z</time>
      </trkpt>
      <trkpt lat="45.77809" lon="3.08735">
        <ele>411.9</ele>
        <time>2021-08-27T09:43:42Z</time>
      </trkpt>
      <trkpt lat="45.77815" lon="3.08738">
        <ele>411.7</ele>
        <time>2021-08-27T09:43:44Z</time>
      </trkpt>
      <trkpt lat="45.7782" lon="3.0874">
        <ele>411.6</ele>
        <time>2021-08-27T09:43:46Z</time>
      </trkpt>
      <trkpt lat="45.77826" lon="3.08741">
        <ele>411.5</ele>
        <time>2021-08-27T09:43:48Z</time>
      </trkpt>
      <trkpt lat="45.77829" lon="3.08744">
        <ele>411.4</ele>
        <time>2021-08-27T09:43:50Z</time>
      </trkpt>
      <trkpt lat="45.77834" lon="3.08743">
        <ele>411.4</ele>
        <time>2021-08-27T09:43:52Z</time>
      </trkpt>
      <trkpt lat="45.77839" lon="3.08739">
        <ele>411.4</ele>
        <time>2021-08-27T09:43:54Z</time>
      </trkpt>
      <trkpt lat="45.77842" lon="3.08738">
        <ele>411.2</ele>
        <time>2021-08-27T09:43:56Z</time>
      </trkpt>
      <trkpt lat="45.77848" lon="3.08738">
        <ele>410.8</ele>
        <time>2021-08-27T09:43:58Z</time>
      </trkpt>
      <trkpt lat="45.77847" lon="3.08734">
        <ele>411.1</ele>
        <time>2021-08-27T09:44:00Z</time>
      </trkpt>
      <trkpt lat="45.77846" lon="3.08726">
        <ele>411.6</ele>
        <time>2021-08-27T09:44:02Z</time>
      </trkpt>
      <trkpt lat="45.77845" lon="3.0872">
        <ele>412</ele>
        <time>2021-08-27T09:44:04Z</time>
      </trkpt>
      <trkpt lat="45.77844" lon="3.08715">
        <ele>412.4</ele>
        <time>2021-08-27T09:44:06Z</time>
      </trkpt>
      <trkpt lat="45.77845" lon="3.08709">
        <ele>412.7</ele>
        <time>2021-08-27T09:44:08Z</time>
      </trkpt>
      <trkpt lat="45.77844" lon="3.08702">
        <ele>413.2</ele>
        <time>2021-08-27T09:44:10Z</time>
      </trkpt>
      <trkpt lat="45.77846" lon="3.08696">
        <ele>413.4</ele>
        <time>2021-08-27T09:44:12Z</time>
      </trkpt>
      <trkpt lat="45.77847" lon="3.08691">
        <ele>413.6</ele>
        <time>2021-08-27T09:44:14Z</time>
      </trkpt>
      <trkpt lat="45.77848" lon="3.08685">
        <ele>413.9</ele>
        <time>2021-08-27T09:44:16Z</time>
      </trkpt>
      <trkpt lat="45.77849" lon="3.08681">
        <ele>414.1</ele>
        <time>2021-08-27T09:44:18Z</time>
      </trkpt>
      <trkpt lat="45.7785" lon="3.08676">
        <ele>414.3</ele>
        <time>2021-08-27T09:44:20Z</time>
      </trkpt>
      <trkpt lat="45.7785" lon="3.0867">
        <ele>414.6</ele>
        <time>2021-08-27T09:44:22Z</time>
      </trkpt>
      <trkpt lat="45.77849" lon="3.08664">
        <ele>414.8</ele>
        <time>2021-08-27T09:44:24Z</time>
      </trkpt>
      <trkpt lat="45.7785" lon="3.08658">
        <ele>414.7</ele>
        <time>2021-08-27T09:44:26Z</time>
      </trkpt>
      <trkpt lat="45.7785" lon="3.08653">
        <ele>414.6</ele>
        <time>2021-08-27T09:44:28Z</time>
      </trkpt>
      <trkpt lat="45.7785" lon="3.08649">
        <ele>414.6</ele>
        <time>2021-08-27T09:44:30Z</time>
      </trkpt>
      <trkpt lat="45.77853" lon="3.08646">
        <ele>414.4</ele>
        <time>2021-08-27T09:44:32Z</time>
      </trkpt>
      <trkpt lat="45.77855" lon="3.08645">
        <ele>414.2</ele>
        <time>2021-08-27T09:44:34Z</time>
      </trkpt>
      <trkpt lat="45.77857" lon="3.08645">
        <ele>414.1</ele>
        <time>2021-08-27T09:44:36Z</time>
      </trkpt>
      <trkpt lat="45.7786" lon="3.08645">
        <ele>413.9</ele>
        <time>2021-08-27T09:44:38Z</time>
      </trkpt>
      <trkpt lat="45.77861" lon="3.08645">
        <ele>413.8</ele>
        <time>2021-08-27T09:44:40Z</time>
      </trkpt>
      <trkpt lat="45.77858" lon="3.08652">
        <ele>414.1</ele>
        <time>2021-08-27T09:44:42Z</time>
      </trkpt>
      <trkpt lat="45.77865" lon="3.08648">
        <ele>413.6</ele>
        <time>2021-08-27T09:44:44Z</time>
      </trkpt>
      <trkpt lat="45.77868" lon="3.08642">
        <ele>413.4</ele>
        <time>2021-08-27T09:44:46Z</time>
      </trkpt>
      <trkpt lat="45.77871" lon="3.08638">
        <ele>413.2</ele>
        <time>2021-08-27T09:44:48Z</time>
      </trkpt>
      <trkpt lat="45.77875" lon="3.08634">
        <ele>413</ele>
        <time>2021-08-27T09:44:50Z</time>
      </trkpt>
      <trkpt lat="45.7788" lon="3.08629">
        <ele>412.8</ele>
        <time>2021-08-27T09:44:52Z</time>
      </trkpt>
      <trkpt lat="45.77883" lon="3.08621">
        <ele>412.6</ele>
        <time>2021-08-27T09:44:54Z</time>
      </trkpt>
      <trkpt lat="45.77886" lon="3.08613">
        <ele>412.6</ele>
        <time>2021-08-27T09:44:56Z</time>
      </trkpt>
      <trkpt lat="45.77887" lon="3.08606">
        <ele>412.5</ele>
        <time>2021-08-27T09:44:58Z</time>
      </trkpt>
      <trkpt lat="45.77889" lon="3.08595">
        <ele>412.6</ele>
        <time>2021-08-27T09:45:00Z</time>
      </trkpt>
      <trkpt lat="45.77888" lon="3.08585">
        <ele>412.7</ele>
        <time>2021-08-27T09:45:02Z</time>
      </trkpt>
      <trkpt lat="45.77889" lon="3.08573">
        <ele>412.2</ele>
        <time>2021-08-27T09:45:04Z</time>
      </trkpt>
      <trkpt lat="45.77892" lon="3.08561">
        <ele>411.6</ele>
        <time>2021-08-27T09:45:06Z</time>
      </trkpt>
      <trkpt lat="45.77892" lon="3.08547">
        <ele>410.9</ele>
        <time>2021-08-27T09:45:08Z</time>
      </trkpt>
      <trkpt lat="45.77893" lon="3.08536">
        <ele>410.4</ele>
        <time>2021-08-27T09:45:10Z</time>
      </trkpt>
      <trkpt lat="45.77894" lon="3.08529">
        <ele>410</ele>
        <time>2021-08-27T09:45:12Z</time>
      </trkpt>
      <trkpt lat="45.77893" lon="3.08525">
        <ele>409.8</ele>
        <time>2021-08-27T09:45:14Z</time>
      </trkpt>
      <trkpt lat="45.77894" lon="3.0852">
        <ele>409.6</ele>
        <time>2021-08-27T09:45:16Z</time>
      </trkpt>
      <trkpt lat="45.77895" lon="3.0852">
        <ele>409.5</ele>
        <time>2021-08-27T09:45:18Z</time>
      </trkpt>
      <trkpt lat="45.77895" lon="3.0852">
        <ele>409.5</ele>
        <time>2021-08-27T09:45:20Z</time>
      </trkpt>
      <trkpt lat="45.77894" lon="3.0852">
        <ele>409.6</ele>
        <time>2021-08-27T09:45:22Z</time>
      </trkpt>
      <trkpt lat="45.77895" lon="3.0852">
        <ele>409.5</ele>
        <time>2021-08-27T09:45:24Z</time>
      </trkpt>
      <trkpt lat="45.77895" lon="3.08519">
        <ele>409.5</ele>
        <time>2021-08-27T09:45:26Z</time>
      </trkpt>
      <trkpt lat="45.77905" lon="3.08549">
        <ele>410.5</ele>
        <time>2021-08-27T14:07:09Z</time>
      </trkpt>
      <trkpt lat="45.77906" lon="3.08554">
        <ele>410.7</ele>
        <time>2021-08-27T14:07:11Z</time>
      </trkpt>
      <trkpt lat="45.77906" lon="3.0856">
        <ele>411</ele>
        <time>2021-08-27T14:07:13Z</time>
      </trkpt>
      <trkpt lat="45.77905" lon="3.08568">
        <ele>411.5</ele>
        <time>2021-08-27T14:07:16Z</time>
      </trkpt>
      <trkpt lat="45.77904" lon="3.08571">
        <ele>411.7</ele>
        <time>2021-08-27T14:07:17Z</time>
      </trkpt>
      <trkpt lat="45.77904" lon="3.08575">
        <ele>411.9</ele>
        <time>2021-08-27T14:07:19Z</time>
      </trkpt>
      <trkpt lat="45.77904" lon="3.08579">
        <ele>412.1</ele>
        <time>2021-08-27T14:07:21Z</time>
      </trkpt>
      <trkpt lat="45.77904" lon="3.08584">
        <ele>412.3</ele>
        <time>2021-08-27T14:07:23Z</time>
      </trkpt>
      <trkpt lat="45.77904" lon="3.08588">
        <ele>412.2</ele>
        <time>2021-08-27T14:07:25Z</time>
      </trkpt>
      <trkpt lat="45.77905" lon="3.08592">
        <ele>412.1</ele>
        <time>2021-08-27T14:07:27Z</time>
      </trkpt>
      <trkpt lat="45.77907" lon="3.08594">
        <ele>412.1</ele>
        <time>2021-08-27T14:07:29Z</time>
      </trkpt>
      <trkpt lat="45.77908" lon="3.08593">
        <ele>412</ele>
        <time>2021-08-27T14:07:31Z</time>
      </trkpt>
      <trkpt lat="45.77908" lon="3.08593">
        <ele>412</ele>
        <time>2021-08-27T14:07:33Z</time>
      </trkpt>
      <trkpt lat="45.7791" lon="3.08592">
        <ele>412</ele>
        <time>2021-08-27T14:07:35Z</time>
      </trkpt>
      <trkpt lat="45.77915" lon="3.0859">
        <ele>411.9</ele>
        <time>2021-08-27T14:07:37Z</time>
      </trkpt>
      <trkpt lat="45.77924" lon="3.08589">
        <ele>411.2</ele>
        <time>2021-08-27T14:07:39Z</time>
      </trkpt>
      <trkpt lat="45.77932" lon="3.08593">
        <ele>410.5</ele>
        <time>2021-08-27T14:07:41Z</time>
      </trkpt>
      <trkpt lat="45.77939" lon="3.08598">
        <ele>409.9</ele>
        <time>2021-08-27T14:07:43Z</time>
      </trkpt>
      <trkpt lat="45.77945" lon="3.08598">
        <ele>409.4</ele>
        <time>2021-08-27T14:07:45Z</time>
      </trkpt>
      <trkpt lat="45.77951" lon="3.08599">
        <ele>409</ele>
        <time>2021-08-27T14:07:47Z</time>
      </trkpt>
      <trkpt lat="45.77958" lon="3.08601">
        <ele>408.4</ele>
        <time>2021-08-27T14:07:49Z</time>
      </trkpt>
      <trkpt lat="45.77965" lon="3.08602">
        <ele>407.9</ele>
        <time>2021-08-27T14:07:51Z</time>
      </trkpt>
      <trkpt lat="45.77973" lon="3.08604">
        <ele>407.3</ele>
        <time>2021-08-27T14:07:53Z</time>
      </trkpt>
      <trkpt lat="45.7798" lon="3.08606">
        <ele>406.7</ele>
        <time>2021-08-27T14:07:55Z</time>
      </trkpt>
      <trkpt lat="45.77988" lon="3.08608">
        <ele>406.2</ele>
        <time>2021-08-27T14:07:57Z</time>
      </trkpt>
      <trkpt lat="45.77995" lon="3.08608">
        <ele>405.7</ele>
        <time>2021-08-27T14:07:59Z</time>
      </trkpt>
      <trkpt lat="45.78002" lon="3.08606">
        <ele>405.1</ele>
        <time>2021-08-27T14:08:01Z</time>
      </trkpt>
      <trkpt lat="45.78005" lon="3.08607">
        <ele>404.8</ele>
        <time>2021-08-27T14:08:03Z</time>
      </trkpt>
      <trkpt lat="45.78009" lon="3.0861">
        <ele>404.4</ele>
        <time>2021-08-27T14:08:05Z</time>
      </trkpt>
      <trkpt lat="45.78015" lon="3.08612">
        <ele>403.9</ele>
        <time>2021-08-27T14:08:07Z</time>
      </trkpt>
      <trkpt lat="45.78022" lon="3.08612">
        <ele>403.3</ele>
        <time>2021-08-27T14:08:09Z</time>
      </trkpt>
      <trkpt lat="45.78028" lon="3.08612">
        <ele>402.7</ele>
        <time>2021-08-27T14:08:11Z</time>
      </trkpt>
      <trkpt lat="45.78034" lon="3.08615">
        <ele>402.1</ele>
        <time>2021-08-27T14:08:13Z</time>
      </trkpt>
      <trkpt lat="45.78039" lon="3.08615">
        <ele>401.6</ele>
        <time>2021-08-27T14:08:15Z</time>
      </trkpt>
      <trkpt lat="45.78045" lon="3.08614">
        <ele>401.1</ele>
        <time>2021-08-27T14:08:17Z</time>
      </trkpt>
      <trkpt lat="45.78051" lon="3.08614">
        <ele>400.5</ele>
        <time>2021-08-27T14:08:19Z</time>
      </trkpt>
      <trkpt lat="45.78056" lon="3.08615">
        <ele>400</ele>
        <time>2021-08-27T14:08:21Z</time>
      </trkpt>
      <trkpt lat="45.78062" lon="3.08616">
        <ele>399.4</ele>
        <time>2021-08-27T14:08:23Z</time>
      </trkpt>
      <trkpt lat="45.78067" lon="3.08621">
        <ele>399</ele>
        <time>2021-08-27T14:08:25Z</time>
      </trkpt>
      <trkpt lat="45.78071" lon="3.08628">
        <ele>398.8</ele>
        <time>2021-08-27T14:08:27Z</time>
      </trkpt>
      <trkpt lat="45.78073" lon="3.08633">
        <ele>398.5</ele>
        <time>2021-08-27T14:08:29Z</time>
      </trkpt>
      <trkpt lat="45.78077" lon="3.08637">
        <ele>398.3</ele>
        <time>2021-08-27T14:08:31Z</time>
      </trkpt>
      <trkpt lat="45.78079" lon="3.08641">
        <ele>398.1</ele>
        <time>2021-08-27T14:08:33Z</time>
      </trkpt>
      <trkpt lat="45.78078" lon="3.08647">
        <ele>398.2</ele>
        <time>2021-08-27T14:08:35Z</time>
      </trkpt>
      <trkpt lat="45.78079" lon="3.08653">
        <ele>398.2</ele>
        <time>2021-08-27T14:08:37Z</time>
      </trkpt>
      <trkpt lat="45.78081" lon="3.08659">
        <ele>398.1</ele>
        <time>2021-08-27T14:08:39Z</time>
      </trkpt>
      <trkpt lat="45.78082" lon="3.08663">
        <ele>398.1</ele>
        <time>2021-08-27T14:08:41Z</time>
      </trkpt>
      <trkpt lat="45.78085" lon="3.08671">
        <ele>397.7</ele>
        <time>2021-08-27T14:08:43Z</time>
      </trkpt>
      <trkpt lat="45.78087" lon="3.0868">
        <ele>397.3</ele>
        <time>2021-08-27T14:08:45Z</time>
      </trkpt>
      <trkpt lat="45.7809" lon="3.08691">
        <ele>397</ele>
        <time>2021-08-27T14:08:47Z</time>
      </trkpt>
      <trkpt lat="45.78092" lon="3.08702">
        <ele>396.6</ele>
        <time>2021-08-27T14:08:49Z</time>
      </trkpt>
      <trkpt lat="45.78094" lon="3.08712">
        <ele>396.5</ele>
        <time>2021-08-27T14:08:51Z</time>
      </trkpt>
      <trkpt lat="45.78095" lon="3.0872">
        <ele>396.2</ele>
        <time>2021-08-27T14:08:53Z</time>
      </trkpt>
      <trkpt lat="45.78098" lon="3.0873">
        <ele>396</ele>
        <time>2021-08-27T14:08:55Z</time>
      </trkpt>
      <trkpt lat="45.781" lon="3.0874">
        <ele>395.6</ele>
        <time>2021-08-27T14:08:57Z</time>
      </trkpt>
      <trkpt lat="45.78103" lon="3.08752">
        <ele>395.1</ele>
        <time>2021-08-27T14:08:59Z</time>
      </trkpt>
      <trkpt lat="45.78106" lon="3.08765">
        <ele>394</ele>
        <time>2021-08-27T14:09:01Z</time>
      </trkpt>
      <trkpt lat="45.78109" lon="3.08778">
        <ele>392.8</ele>
        <time>2021-08-27T14:09:03Z</time>
      </trkpt>
      <trkpt lat="45.78112" lon="3.0879">
        <ele>391.6</ele>
        <time>2021-08-27T14:09:05Z</time>
      </trkpt>
      <trkpt lat="45.78116" lon="3.08802">
        <ele>390.4</ele>
        <time>2021-08-27T14:09:07Z</time>
      </trkpt>
      <trkpt lat="45.78119" lon="3.08814">
        <ele>389.3</ele>
        <time>2021-08-27T14:09:09Z</time>
      </trkpt>
      <trkpt lat="45.78121" lon="3.08824">
        <ele>388.5</ele>
        <time>2021-08-27T14:09:11Z</time>
      </trkpt>
      <trkpt lat="45.78125" lon="3.08832">
        <ele>387.6</ele>
        <time>2021-08-27T14:09:13Z</time>
      </trkpt>
      <trkpt lat="45.78128" lon="3.08841">
        <ele>386.8</ele>
        <time>2021-08-27T14:09:15Z</time>
      </trkpt>
      <trkpt lat="45.78127" lon="3.08853">
        <ele>386.5</ele>
        <time>2021-08-27T14:09:17Z</time>
      </trkpt>
      <trkpt lat="45.78125" lon="3.08865">
        <ele>386.3</ele>
        <time>2021-08-27T14:09:19Z</time>
      </trkpt>
      <trkpt lat="45.78124" lon="3.08875">
        <ele>386.1</ele>
        <time>2021-08-27T14:09:21Z</time>
      </trkpt>
      <trkpt lat="45.78123" lon="3.08886">
        <ele>385.9</ele>
        <time>2021-08-27T14:09:23Z</time>
      </trkpt>
      <trkpt lat="45.78121" lon="3.08897">
        <ele>385.7</ele>
        <time>2021-08-27T14:09:25Z</time>
      </trkpt>
      <trkpt lat="45.7812" lon="3.0891">
        <ele>385.4</ele>
        <time>2021-08-27T14:09:27Z</time>
      </trkpt>
      <trkpt lat="45.78119" lon="3.08923">
        <ele>384.9</ele>
        <time>2021-08-27T14:09:29Z</time>
      </trkpt>
      <trkpt lat="45.78118" lon="3.08937">
        <ele>384.1</ele>
        <time>2021-08-27T14:09:31Z</time>
      </trkpt>
      <trkpt lat="45.78115" lon="3.0895">
        <ele>383.6</ele>
        <time>2021-08-27T14:09:33Z</time>
      </trkpt>
      <trkpt lat="45.78114" lon="3.08965">
        <ele>382.8</ele>
        <time>2021-08-27T14:09:35Z</time>
      </trkpt>
      <trkpt lat="45.78113" lon="3.0898">
        <ele>381.9</ele>
        <time>2021-08-27T14:09:37Z</time>
      </trkpt>
      <trkpt lat="45.78111" lon="3.08994">
        <ele>381.1</ele>
        <time>2021-08-27T14:09:39Z</time>
      </trkpt>
      <trkpt lat="45.7811" lon="3.09009">
        <ele>380.6</ele>
        <time>2021-08-27T14:09:41Z</time>
      </trkpt>
      <trkpt lat="45.78108" lon="3.09023">
        <ele>380.4</ele>
        <time>2021-08-27T14:09:43Z</time>
      </trkpt>
      <trkpt lat="45.78107" lon="3.09037">
        <ele>380.3</ele>
        <time>2021-08-27T14:09:45Z</time>
      </trkpt>
      <trkpt lat="45.78106" lon="3.0905">
        <ele>380.1</ele>
        <time>2021-08-27T14:09:47Z</time>
      </trkpt>
      <trkpt lat="45.78105" lon="3.09062">
        <ele>380</ele>
        <time>2021-08-27T14:09:49Z</time>
      </trkpt>
      <trkpt lat="45.78105" lon="3.09072">
        <ele>379.7</ele>
        <time>2021-08-27T14:09:51Z</time>
      </trkpt>
      <trkpt lat="45.78104" lon="3.0908">
        <ele>379.6</ele>
        <time>2021-08-27T14:09:53Z</time>
      </trkpt>
      <trkpt lat="45.78104" lon="3.09086">
        <ele>379.6</ele>
        <time>2021-08-27T14:09:55Z</time>
      </trkpt>
      <trkpt lat="45.78104" lon="3.0909">
        <ele>379.6</ele>
        <time>2021-08-27T14:09:57Z</time>
      </trkpt>
      <trkpt lat="45.78104" lon="3.09093">
        <ele>379.7</ele>
        <time>2021-08-27T14:09:59Z</time>
      </trkpt>
      <trkpt lat="45.78106" lon="3.09093">
        <ele>379.5</ele>
        <time>2021-08-27T14:10:01Z</time>
      </trkpt>
      <trkpt lat="45.78106" lon="3.09092">
        <ele>379.4</ele>
        <time>2021-08-27T14:10:03Z</time>
      </trkpt>
      <trkpt lat="45.78107" lon="3.09094">
        <ele>379.3</ele>
        <time>2021-08-27T14:10:05Z</time>
      </trkpt>
      <trkpt lat="45.78108" lon="3.09097">
        <ele>379.3</ele>
        <time>2021-08-27T14:10:07Z</time>
      </trkpt>
      <trkpt lat="45.78108" lon="3.09097">
        <ele>379.2</ele>
        <time>2021-08-27T14:10:09Z</time>
      </trkpt>
      <trkpt lat="45.78108" lon="3.09097">
        <ele>379.2</ele>
        <time>2021-08-27T14:10:11Z</time>
      </trkpt>
      <trkpt lat="45.78108" lon="3.09121">
        <ele>379.6</ele>
        <time>2021-08-27T14:10:57Z</time>
      </trkpt>
      <trkpt lat="45.78107" lon="3.09129">
        <ele>379.7</ele>
        <time>2021-08-27T14:10:59Z</time>
      </trkpt>
      <trkpt lat="45.78107" lon="3.09139">
        <ele>379.9</ele>
        <time>2021-08-27T14:11:01Z</time>
      </trkpt>
      <trkpt lat="45.78106" lon="3.09149">
        <ele>380.1</ele>
        <time>2021-08-27T14:11:03Z</time>
      </trkpt>
      <trkpt lat="45.78106" lon="3.09157">
        <ele>380.2</ele>
        <time>2021-08-27T14:11:05Z</time>
      </trkpt>
      <trkpt lat="45.78107" lon="3.09163">
        <ele>380.3</ele>
        <time>2021-08-27T14:11:07Z</time>
      </trkpt>
      <trkpt lat="45.7811" lon="3.09169">
        <ele>380</ele>
        <time>2021-08-27T14:11:09Z</time>
      </trkpt>
      <trkpt lat="45.78111" lon="3.09179">
        <ele>379.7</ele>
        <time>2021-08-27T14:11:11Z</time>
      </trkpt>
      <trkpt lat="45.78113" lon="3.09187">
        <ele>379.4</ele>
        <time>2021-08-27T14:11:13Z</time>
      </trkpt>
      <trkpt lat="45.78117" lon="3.09196">
        <ele>379.1</ele>
        <time>2021-08-27T14:11:15Z</time>
      </trkpt>
      <trkpt lat="45.78123" lon="3.09205">
        <ele>378.7</ele>
        <time>2021-08-27T14:11:17Z</time>
      </trkpt>
      <trkpt lat="45.78129" lon="3.09213">
        <ele>378.3</ele>
        <time>2021-08-27T14:11:19Z</time>
      </trkpt>
      <trkpt lat="45.78134" lon="3.09222">
        <ele>378</ele>
        <time>2021-08-27T14:11:21Z</time>
      </trkpt>
      <trkpt lat="45.7814" lon="3.09232">
        <ele>377.7</ele>
        <time>2021-08-27T14:11:23Z</time>
      </trkpt>
      <trkpt lat="45.78147" lon="3.09241">
        <ele>377.5</ele>
        <time>2021-08-27T14:11:25Z</time>
      </trkpt>
      <trkpt lat="45.78153" lon="3.09252">
        <ele>377.2</ele>
        <time>2021-08-27T14:11:27Z</time>
      </trkpt>
      <trkpt lat="45.78159" lon="3.09264">
        <ele>376.2</ele>
        <time>2021-08-27T14:11:29Z</time>
      </trkpt>
      <trkpt lat="45.78167" lon="3.09275">
        <ele>375.1</ele>
        <time>2021-08-27T14:11:31Z</time>
      </trkpt>
      <trkpt lat="45.78175" lon="3.09286">
        <ele>373.7</ele>
        <time>2021-08-27T14:11:33Z</time>
      </trkpt>
      <trkpt lat="45.78182" lon="3.09299">
        <ele>372.2</ele>
        <time>2021-08-27T14:11:35Z</time>
      </trkpt>
      <trkpt lat="45.7819" lon="3.09313">
        <ele>371</ele>
        <time>2021-08-27T14:11:37Z</time>
      </trkpt>
      <trkpt lat="45.78197" lon="3.09327">
        <ele>369.9</ele>
        <time>2021-08-27T14:11:39Z</time>
      </trkpt>
      <trkpt lat="45.78204" lon="3.09341">
        <ele>368.9</ele>
        <time>2021-08-27T14:11:41Z</time>
      </trkpt>
      <trkpt lat="45.78211" lon="3.09355">
        <ele>368.1</ele>
        <time>2021-08-27T14:11:43Z</time>
      </trkpt>
      <trkpt lat="45.78216" lon="3.09367">
        <ele>367.3</ele>
        <time>2021-08-27T14:11:45Z</time>
      </trkpt>
      <trkpt lat="45.78222" lon="3.09381">
        <ele>366.5</ele>
        <time>2021-08-27T14:11:47Z</time>
      </trkpt>
      <trkpt lat="45.78227" lon="3.09391">
        <ele>365.7</ele>
        <time>2021-08-27T14:11:49Z</time>
      </trkpt>
      <trkpt lat="45.78229" lon="3.09398">
        <ele>365.3</ele>
        <time>2021-08-27T14:11:51Z</time>
      </trkpt>
      <trkpt lat="45.78232" lon="3.09401">
        <ele>365</ele>
        <time>2021-08-27T14:11:53Z</time>
      </trkpt>
      <trkpt lat="45.78235" lon="3.094">
        <ele>364.8</ele>
        <time>2021-08-27T14:11:55Z</time>
      </trkpt>
      <trkpt lat="45.7824" lon="3.09398">
        <ele>364.5</ele>
        <time>2021-08-27T14:11:57Z</time>
      </trkpt>
      <trkpt lat="45.78244" lon="3.09396">
        <ele>364.4</ele>
        <time>2021-08-27T14:11:59Z</time>
      </trkpt>
      <trkpt lat="45.78245" lon="3.09395">
        <ele>364.3</ele>
        <time>2021-08-27T14:12:01Z</time>
      </trkpt>
      <trkpt lat="45.78247" lon="3.09397">
        <ele>364.1</ele>
        <time>2021-08-27T14:12:03Z</time>
      </trkpt>
      <trkpt lat="45.7825" lon="3.09404">
        <ele>363.6</ele>
        <time>2021-08-27T14:12:05Z</time>
      </trkpt>
      <trkpt lat="45.78253" lon="3.09412">
        <ele>363.2</ele>
        <time>2021-08-27T14:12:07Z</time>
      </trkpt>
      <trkpt lat="45.78257" lon="3.0942">
        <ele>362.8</ele>
        <time>2021-08-27T14:12:09Z</time>
      </trkpt>
      <trkpt lat="45.78261" lon="3.09429">
        <ele>362.6</ele>
        <time>2021-08-27T14:12:11Z</time>
      </trkpt>
      <trkpt lat="45.78265" lon="3.09439">
        <ele>362.3</ele>
        <time>2021-08-27T14:12:13Z</time>
      </trkpt>
      <trkpt lat="45.78269" lon="3.09448">
        <ele>362.1</ele>
        <time>2021-08-27T14:12:15Z</time>
      </trkpt>
      <trkpt lat="45.78273" lon="3.09458">
        <ele>361.9</ele>
        <time>2021-08-27T14:12:17Z</time>
      </trkpt>
      <trkpt lat="45.78277" lon="3.09469">
        <ele>361.6</ele>
        <time>2021-08-27T14:12:19Z</time>
      </trkpt>
      <trkpt lat="45.78281" lon="3.0948">
        <ele>361.4</ele>
        <time>2021-08-27T14:12:21Z</time>
      </trkpt>
      <trkpt lat="45.78286" lon="3.09492">
        <ele>361.2</ele>
        <time>2021-08-27T14:12:23Z</time>
      </trkpt>
      <trkpt lat="45.7829" lon="3.09504">
        <ele>361</ele>
        <time>2021-08-27T14:12:25Z</time>
      </trkpt>
      <trkpt lat="45.78295" lon="3.09518">
        <ele>360.9</ele>
        <time>2021-08-27T14:12:27Z</time>
      </trkpt>
      <trkpt lat="45.783" lon="3.09532">
        <ele>360.8</ele>
        <time>2021-08-27T14:12:29Z</time>
      </trkpt>
      <trkpt lat="45.78306" lon="3.09547">
        <ele>360.6</ele>
        <time>2021-08-27T14:12:31Z</time>
      </trkpt>
      <trkpt lat="45.78311" lon="3.09562">
        <ele>360.4</ele>
        <time>2021-08-27T14:12:33Z</time>
      </trkpt>
      <trkpt lat="45.78317" lon="3.0958">
        <ele>360.2</ele>
        <time>2021-08-27T14:12:35Z</time>
      </trkpt>
      <trkpt lat="45.78325" lon="3.09598">
        <ele>359.8</ele>
        <time>2021-08-27T14:12:37Z</time>
      </trkpt>
      <trkpt lat="45.78333" lon="3.09617">
        <ele>359.2</ele>
        <time>2021-08-27T14:12:39Z</time>
      </trkpt>
      <trkpt lat="45.78341" lon="3.09638">
        <ele>358.3</ele>
        <time>2021-08-27T14:12:41Z</time>
      </trkpt>
      <trkpt lat="45.7835" lon="3.09657">
        <ele>357.4</ele>
        <time>2021-08-27T14:12:43Z</time>
      </trkpt>
      <trkpt lat="45.78359" lon="3.09676">
        <ele>356.9</ele>
        <time>2021-08-27T14:12:45Z</time>
      </trkpt>
      <trkpt lat="45.78367" lon="3.09693">
        <ele>356.7</ele>
        <time>2021-08-27T14:12:47Z</time>
      </trkpt>
      <trkpt lat="45.78375" lon="3.09709">
        <ele>356.5</ele>
        <time>2021-08-27T14:12:49Z</time>
      </trkpt>
      <trkpt lat="45.78383" lon="3.09724">
        <ele>356.3</ele>
        <time>2021-08-27T14:12:51Z</time>
      </trkpt>
      <trkpt lat="45.7839" lon="3.0974">
        <ele>356.2</ele>
        <time>2021-08-27T14:12:53Z</time>
      </trkpt>
      <trkpt lat="45.78397" lon="3.09755">
        <ele>355.9</ele>
        <time>2021-08-27T14:12:55Z</time>
      </trkpt>
      <trkpt lat="45.78404" lon="3.0977">
        <ele>355.6</ele>
        <time>2021-08-27T14:12:57Z</time>
      </trkpt>
      <trkpt lat="45.78411" lon="3.09785">
        <ele>355.3</ele>
        <time>2021-08-27T14:12:59Z</time>
      </trkpt>
      <trkpt lat="45.78418" lon="3.09799">
        <ele>355</ele>
        <time>2021-08-27T14:13:01Z</time>
      </trkpt>
      <trkpt lat="45.78424" lon="3.09813">
        <ele>355</ele>
        <time>2021-08-27T14:13:03Z</time>
      </trkpt>
      <trkpt lat="45.78431" lon="3.09827">
        <ele>355</ele>
        <time>2021-08-27T14:13:05Z</time>
      </trkpt>
      <trkpt lat="45.78437" lon="3.0984">
        <ele>355</ele>
        <time>2021-08-27T14:13:07Z</time>
      </trkpt>
      <trkpt lat="45.78443" lon="3.09854">
        <ele>355.1</ele>
        <time>2021-08-27T14:13:09Z</time>
      </trkpt>
      <trkpt lat="45.78448" lon="3.09866">
        <ele>355.1</ele>
        <time>2021-08-27T14:13:11Z</time>
      </trkpt>
      <trkpt lat="45.78453" lon="3.09877">
        <ele>355.1</ele>
        <time>2021-08-27T14:13:13Z</time>
      </trkpt>
      <trkpt lat="45.78458" lon="3.09886">
        <ele>355</ele>
        <time>2021-08-27T14:13:15Z</time>
      </trkpt>
      <trkpt lat="45.78462" lon="3.09895">
        <ele>354.9</ele>
        <time>2021-08-27T14:13:17Z</time>
      </trkpt>
      <trkpt lat="45.78464" lon="3.09901">
        <ele>354.9</ele>
        <time>2021-08-27T14:13:19Z</time>
      </trkpt>
      <trkpt lat="45.78464" lon="3.09903">
        <ele>354.9</ele>
        <time>2021-08-27T14:13:21Z</time>
      </trkpt>
      <trkpt lat="45.78463" lon="3.09902">
        <ele>354.9</ele>
        <time>2021-08-27T14:13:23Z</time>
      </trkpt>
      <trkpt lat="45.78464" lon="3.09903">
        <ele>354.9</ele>
        <time>2021-08-27T14:13:25Z</time>
      </trkpt>
      <trkpt lat="45.78464" lon="3.09903">
        <ele>354.9</ele>
        <time>2021-08-27T14:13:27Z</time>
      </trkpt>
      <trkpt lat="45.78464" lon="3.09903">
        <ele>354.9</ele>
        <time>2021-08-27T14:13:29Z</time>
      </trkpt>
      <trkpt lat="45.78463" lon="3.09924">
        <ele>354.7</ele>
        <time>2021-08-27T14:14:01Z</time>
      </trkpt>
      <trkpt lat="45.78458" lon="3.0993">
        <ele>354.8</ele>
        <time>2021-08-27T14:14:03Z</time>
      </trkpt>
      <trkpt lat="45.78454" lon="3.09936">
        <ele>354.8</ele>
        <time>2021-08-27T14:14:05Z</time>
      </trkpt>
      <trkpt lat="45.78452" lon="3.09943">
        <ele>354.7</ele>
        <time>2021-08-27T14:14:07Z</time>
      </trkpt>
      <trkpt lat="45.78449" lon="3.09951">
        <ele>354.6</ele>
        <time>2021-08-27T14:14:09Z</time>
      </trkpt>
      <trkpt lat="45.78448" lon="3.09957">
        <ele>354.6</ele>
        <time>2021-08-27T14:14:11Z</time>
      </trkpt>
      <trkpt lat="45.78447" lon="3.09964">
        <ele>354.5</ele>
        <time>2021-08-27T14:14:13Z</time>
      </trkpt>
      <trkpt lat="45.78445" lon="3.09972">
        <ele>354.4</ele>
        <time>2021-08-27T14:14:15Z</time>
      </trkpt>
      <trkpt lat="45.78446" lon="3.09983">
        <ele>354.2</ele>
        <time>2021-08-27T14:14:17Z</time>
      </trkpt>
      <trkpt lat="45.78449" lon="3.09992">
        <ele>354</ele>
        <time>2021-08-27T14:14:19Z</time>
      </trkpt>
      <trkpt lat="45.78453" lon="3.10002">
        <ele>353.7</ele>
        <time>2021-08-27T14:14:21Z</time>
      </trkpt>
      <trkpt lat="45.78458" lon="3.10011">
        <ele>353.7</ele>
        <time>2021-08-27T14:14:23Z</time>
      </trkpt>
      <trkpt lat="45.78461" lon="3.10018">
        <ele>353.7</ele>
        <time>2021-08-27T14:14:25Z</time>
      </trkpt>
      <trkpt lat="45.78465" lon="3.10028">
        <ele>353.8</ele>
        <time>2021-08-27T14:14:27Z</time>
      </trkpt>
      <trkpt lat="45.78471" lon="3.10038">
        <ele>353.8</ele>
        <time>2021-08-27T14:14:29Z</time>
      </trkpt>
      <trkpt lat="45.78476" lon="3.10049">
        <ele>353.9</ele>
        <time>2021-08-27T14:14:31Z</time>
      </trkpt>
      <trkpt lat="45.78482" lon="3.1006">
        <ele>353.9</ele>
        <time>2021-08-27T14:14:33Z</time>
      </trkpt>
      <trkpt lat="45.78487" lon="3.10072">
        <ele>354</ele>
        <time>2021-08-27T14:14:35Z</time>
      </trkpt>
      <trkpt lat="45.78493" lon="3.10084">
        <ele>354.2</ele>
        <time>2021-08-27T14:14:37Z</time>
      </trkpt>
      <trkpt lat="45.78499" lon="3.10096">
        <ele>354.2</ele>
        <time>2021-08-27T14:14:39Z</time>
      </trkpt>
      <trkpt lat="45.78504" lon="3.10109">
        <ele>354.3</ele>
        <time>2021-08-27T14:14:41Z</time>
      </trkpt>
      <trkpt lat="45.78511" lon="3.10121">
        <ele>354.4</ele>
        <time>2021-08-27T14:14:43Z</time>
      </trkpt>
      <trkpt lat="45.78516" lon="3.10134">
        <ele>354.7</ele>
        <time>2021-08-27T14:14:45Z</time>
      </trkpt>
      <trkpt lat="45.78522" lon="3.10147">
        <ele>354.9</ele>
        <time>2021-08-27T14:14:47Z</time>
      </trkpt>
      <trkpt lat="45.78528" lon="3.10159">
        <ele>355.2</ele>
        <time>2021-08-27T14:14:49Z</time>
      </trkpt>
      <trkpt lat="45.78534" lon="3.10172">
        <ele>355.3</ele>
        <time>2021-08-27T14:14:51Z</time>
      </trkpt>
      <trkpt lat="45.7854" lon="3.10183">
        <ele>355.2</ele>
        <time>2021-08-27T14:14:53Z</time>
      </trkpt>
      <trkpt lat="45.78545" lon="3.10195">
        <ele>355.1</ele>
        <time>2021-08-27T14:14:55Z</time>
      </trkpt>
      <trkpt lat="45.7855" lon="3.10207">
        <ele>354.9</ele>
        <time>2021-08-27T14:14:57Z</time>
      </trkpt>
      <trkpt lat="45.78556" lon="3.10218">
        <ele>354.9</ele>
        <time>2021-08-27T14:14:59Z</time>
      </trkpt>
      <trkpt lat="45.78562" lon="3.10229">
        <ele>354.8</ele>
        <time>2021-08-27T14:15:01Z</time>
      </trkpt>
      <trkpt lat="45.78568" lon="3.10241">
        <ele>354.8</ele>
        <time>2021-08-27T14:15:03Z</time>
      </trkpt>
      <trkpt lat="45.78574" lon="3.10252">
        <ele>354.7</ele>
        <time>2021-08-27T14:15:05Z</time>
      </trkpt>
      <trkpt lat="45.78579" lon="3.10263">
        <ele>354.6</ele>
        <time>2021-08-27T14:15:07Z</time>
      </trkpt>
      <trkpt lat="45.78585" lon="3.10275">
        <ele>354.4</ele>
        <time>2021-08-27T14:15:09Z</time>
      </trkpt>
      <trkpt lat="45.78592" lon="3.10286">
        <ele>354</ele>
        <time>2021-08-27T14:15:11Z</time>
      </trkpt>
      <trkpt lat="45.78597" lon="3.10298">
        <ele>353.6</ele>
        <time>2021-08-27T14:15:13Z</time>
      </trkpt>
      <trkpt lat="45.78603" lon="3.1031">
        <ele>353.4</ele>
        <time>2021-08-27T14:15:15Z</time>
      </trkpt>
      <trkpt lat="45.78609" lon="3.10323">
        <ele>353.1</ele>
        <time>2021-08-27T14:15:17Z</time>
      </trkpt>
      <trkpt lat="45.78616" lon="3.10335">
        <ele>353</ele>
        <time>2021-08-27T14:15:19Z</time>
      </trkpt>
      <trkpt lat="45.78622" lon="3.10347">
        <ele>352.8</ele>
        <time>2021-08-27T14:15:21Z</time>
      </trkpt>
      <trkpt lat="45.78628" lon="3.10359">
        <ele>352.5</ele>
        <time>2021-08-27T14:15:23Z</time>
      </trkpt>
      <trkpt lat="45.78634" lon="3.10372">
        <ele>352.3</ele>
        <time>2021-08-27T14:15:25Z</time>
      </trkpt>
      <trkpt lat="45.78641" lon="3.10384">
        <ele>352</ele>
        <time>2021-08-27T14:15:27Z</time>
      </trkpt>
      <trkpt lat="45.78647" lon="3.10396">
        <ele>351.7</ele>
        <time>2021-08-27T14:15:29Z</time>
      </trkpt>
      <trkpt lat="45.78654" lon="3.10408">
        <ele>351.3</ele>
        <time>2021-08-27T14:15:31Z</time>
      </trkpt>
      <trkpt lat="45.7866" lon="3.10421">
        <ele>351.1</ele>
        <time>2021-08-27T14:15:33Z</time>
      </trkpt>
      <trkpt lat="45.78667" lon="3.10434">
        <ele>351</ele>
        <time>2021-08-27T14:15:35Z</time>
      </trkpt>
      <trkpt lat="45.78673" lon="3.10447">
        <ele>351</ele>
        <time>2021-08-27T14:15:37Z</time>
      </trkpt>
      <trkpt lat="45.7868" lon="3.1046">
        <ele>351.1</ele>
        <time>2021-08-27T14:15:39Z</time>
      </trkpt>
      <trkpt lat="45.78686" lon="3.10472">
        <ele>351.2</ele>
        <time>2021-08-27T14:15:41Z</time>
      </trkpt>
      <trkpt lat="45.78692" lon="3.10484">
        <ele>351.4</ele>
        <time>2021-08-27T14:15:43Z</time>
      </trkpt>
      <trkpt lat="45.78698" lon="3.10496">
        <ele>351.7</ele>
        <time>2021-08-27T14:15:45Z</time>
      </trkpt>
      <trkpt lat="45.78703" lon="3.10508">
        <ele>351.8</ele>
        <time>2021-08-27T14:15:47Z</time>
      </trkpt>
      <trkpt lat="45.78709" lon="3.1052">
        <ele>351.8</ele>
        <time>2021-08-27T14:15:49Z</time>
      </trkpt>
      <trkpt lat="45.78715" lon="3.10531">
        <ele>351.7</ele>
        <time>2021-08-27T14:15:51Z</time>
      </trkpt>
      <trkpt lat="45.78721" lon="3.10541">
        <ele>351.7</ele>
        <time>2021-08-27T14:15:53Z</time>
      </trkpt>
      <trkpt lat="45.78725" lon="3.10551">
        <ele>351.6</ele>
        <time>2021-08-27T14:15:55Z</time>
      </trkpt>
      <trkpt lat="45.78729" lon="3.10558">
        <ele>351.5</ele>
        <time>2021-08-27T14:15:57Z</time>
      </trkpt>
      <trkpt lat="45.78731" lon="3.10563">
        <ele>351.4</ele>
        <time>2021-08-27T14:15:59Z</time>
      </trkpt>
      <trkpt lat="45.78733" lon="3.10568">
        <ele>351.3</ele>
        <time>2021-08-27T14:16:01Z</time>
      </trkpt>
      <trkpt lat="45.78734" lon="3.10571">
        <ele>351.2</ele>
        <time>2021-08-27T14:16:03Z</time>
      </trkpt>
      <trkpt lat="45.78735" lon="3.10574">
        <ele>351.2</ele>
        <time>2021-08-27T14:16:05Z</time>
      </trkpt>
      <trkpt lat="45.78736" lon="3.10576">
        <ele>351.2</ele>
        <time>2021-08-27T14:16:07Z</time>
      </trkpt>
      <trkpt lat="45.78737" lon="3.10576">
        <ele>351.1</ele>
        <time>2021-08-27T14:16:09Z</time>
      </trkpt>
      <trkpt lat="45.78737" lon="3.10576">
        <ele>351.1</ele>
        <time>2021-08-27T14:16:11Z</time>
      </trkpt>
      <trkpt lat="45.78751" lon="3.10587">
        <ele>350.9</ele>
        <time>2021-08-27T14:16:23Z</time>
      </trkpt>
      <trkpt lat="45.78756" lon="3.10584">
        <ele>350.7</ele>
        <time>2021-08-27T14:16:25Z</time>
      </trkpt>
      <trkpt lat="45.78762" lon="3.10583">
        <ele>350.5</ele>
        <time>2021-08-27T14:16:27Z</time>
      </trkpt>
      <trkpt lat="45.78766" lon="3.10578">
        <ele>350.3</ele>
        <time>2021-08-27T14:16:29Z</time>
      </trkpt>
      <trkpt lat="45.78771" lon="3.10575">
        <ele>350.1</ele>
        <time>2021-08-27T14:16:31Z</time>
      </trkpt>
      <trkpt lat="45.78775" lon="3.10576">
        <ele>349.9</ele>
        <time>2021-08-27T14:16:33Z</time>
      </trkpt>
      <trkpt lat="45.78778" lon="3.10579">
        <ele>349.7</ele>
        <time>2021-08-27T14:16:35Z</time>
      </trkpt>
      <trkpt lat="45.78782" lon="3.1058">
        <ele>349.5</ele>
        <time>2021-08-27T14:16:37Z</time>
      </trkpt>
      <trkpt lat="45.78787" lon="3.10579">
        <ele>349.3</ele>
        <time>2021-08-27T14:16:39Z</time>
      </trkpt>
      <trkpt lat="45.78791" lon="3.10577">
        <ele>349.1</ele>
        <time>2021-08-27T14:16:41Z</time>
      </trkpt>
      <trkpt lat="45.78795" lon="3.10575">
        <ele>348.9</ele>
        <time>2021-08-27T14:16:43Z</time>
      </trkpt>
      <trkpt lat="45.788" lon="3.10573">
        <ele>348.6</ele>
        <time>2021-08-27T14:16:45Z</time>
      </trkpt>
      <trkpt lat="45.78804" lon="3.10573">
        <ele>348.4</ele>
        <time>2021-08-27T14:16:47Z</time>
      </trkpt>
      <trkpt lat="45.78806" lon="3.10572">
        <ele>348.3</ele>
        <time>2021-08-27T14:16:49Z</time>
      </trkpt>
      <trkpt lat="45.78807" lon="3.10572">
        <ele>348.3</ele>
        <time>2021-08-27T14:16:51Z</time>
      </trkpt>
      <trkpt lat="45.78807" lon="3.10572">
        <ele>348.2</ele>
        <time>2021-08-27T14:16:53Z</time>
      </trkpt>
      <trkpt lat="45.78808" lon="3.10571">
        <ele>348.2</ele>
        <time>2021-08-27T14:16:55Z</time>
      </trkpt>
      <trkpt lat="45.78808" lon="3.10572">
        <ele>348.2</ele>
        <time>2021-08-27T14:16:57Z</time>
      </trkpt>
      <trkpt lat="45.78808" lon="3.10572">
        <ele>348.2</ele>
        <time>2021-08-27T14:16:59Z</time>
      </trkpt>
      <trkpt lat="45.78809" lon="3.10572">
        <ele>348.2</ele>
        <time>2021-08-27T14:17:01Z</time>
      </trkpt>
      <trkpt lat="45.78809" lon="3.10572">
        <ele>348.1</ele>
        <time>2021-08-27T14:17:03Z</time>
      </trkpt>
      <trkpt lat="45.78809" lon="3.10573">
        <ele>348.1</ele>
        <time>2021-08-27T14:17:05Z</time>
      </trkpt>
      <trkpt lat="45.7881" lon="3.10573">
        <ele>348.1</ele>
        <time>2021-08-27T14:17:07Z</time>
      </trkpt>
      <trkpt lat="45.78809" lon="3.10573">
        <ele>348.1</ele>
        <time>2021-08-27T14:17:09Z</time>
      </trkpt>
      <trkpt lat="45.78809" lon="3.10573">
        <ele>348.1</ele>
        <time>2021-08-27T14:17:11Z</time>
      </trkpt>
      <trkpt lat="45.7881" lon="3.10574">
        <ele>348.1</ele>
        <time>2021-08-27T14:17:13Z</time>
      </trkpt>
      <trkpt lat="45.7881" lon="3.10574">
        <ele>348.1</ele>
        <time>2021-08-27T14:17:15Z</time>
      </trkpt>
      <trkpt lat="45.7881" lon="3.10574">
        <ele>348.1</ele>
        <time>2021-08-27T14:17:17Z</time>
      </trkpt>
      <trkpt lat="45.7881" lon="3.10574">
        <ele>348.1</ele>
        <time>2021-08-27T14:17:19Z</time>
      </trkpt>
      <trkpt lat="45.78809" lon="3.10574">
        <ele>348.1</ele>
        <time>2021-08-27T14:17:21Z</time>
      </trkpt>
      <trkpt lat="45.7881" lon="3.10574">
        <ele>348.1</ele>
        <time>2021-08-27T14:17:23Z</time>
      </trkpt>
      <trkpt lat="45.7881" lon="3.10573">
        <ele>348.1</ele>
        <time>2021-08-27T14:17:27Z</time>
      </trkpt>
      <trkpt lat="45.78817" lon="3.10523">
        <ele>347.5</ele>
        <time>2021-08-27T14:19:59Z</time>
      </trkpt>
      <trkpt lat="45.7882" lon="3.10519">
        <ele>347.2</ele>
        <time>2021-08-27T14:20:01Z</time>
      </trkpt>
      <trkpt lat="45.78823" lon="3.10517">
        <ele>347</ele>
        <time>2021-08-27T14:20:03Z</time>
      </trkpt>
      <trkpt lat="45.78827" lon="3.10514">
        <ele>346.7</ele>
        <time>2021-08-27T14:20:05Z</time>
      </trkpt>
      <trkpt lat="45.78829" lon="3.10512">
        <ele>346.5</ele>
        <time>2021-08-27T14:20:07Z</time>
      </trkpt>
      <trkpt lat="45.78832" lon="3.1051">
        <ele>346.3</ele>
        <time>2021-08-27T14:20:09Z</time>
      </trkpt>
      <trkpt lat="45.78834" lon="3.10506">
        <ele>346.1</ele>
        <time>2021-08-27T14:20:11Z</time>
      </trkpt>
      <trkpt lat="45.78837" lon="3.10502">
        <ele>346</ele>
        <time>2021-08-27T14:20:13Z</time>
      </trkpt>
      <trkpt lat="45.7884" lon="3.10499">
        <ele>345.9</ele>
        <time>2021-08-27T14:20:15Z</time>
      </trkpt>
      <trkpt lat="45.78845" lon="3.10496">
        <ele>346</ele>
        <time>2021-08-27T14:20:17Z</time>
      </trkpt>
      <trkpt lat="45.78848" lon="3.10491">
        <ele>346</ele>
        <time>2021-08-27T14:20:19Z</time>
      </trkpt>
      <trkpt lat="45.78851" lon="3.10488">
        <ele>346.1</ele>
        <time>2021-08-27T14:20:21Z</time>
      </trkpt>
      <trkpt lat="45.78855" lon="3.10485">
        <ele>346.1</ele>
        <time>2021-08-27T14:20:23Z</time>
      </trkpt>
      <trkpt lat="45.78858" lon="3.10486">
        <ele>346</ele>
        <time>2021-08-27T14:20:25Z</time>
      </trkpt>
      <trkpt lat="45.78861" lon="3.10491">
        <ele>345.9</ele>
        <time>2021-08-27T14:20:27Z</time>
      </trkpt>
      <trkpt lat="45.78863" lon="3.10495">
        <ele>345.7</ele>
        <time>2021-08-27T14:20:29Z</time>
      </trkpt>
      <trkpt lat="45.78866" lon="3.10498">
        <ele>345.7</ele>
        <time>2021-08-27T14:20:31Z</time>
      </trkpt>
      <trkpt lat="45.78869" lon="3.10497">
        <ele>345.6</ele>
        <time>2021-08-27T14:20:33Z</time>
      </trkpt>
      <trkpt lat="45.78873" lon="3.10494">
        <ele>345.7</ele>
        <time>2021-08-27T14:20:35Z</time>
      </trkpt>
      <trkpt lat="45.78875" lon="3.10489">
        <ele>345.8</ele>
        <time>2021-08-27T14:20:37Z</time>
      </trkpt>
      <trkpt lat="45.78878" lon="3.10485">
        <ele>345.8</ele>
        <time>2021-08-27T14:20:39Z</time>
      </trkpt>
      <trkpt lat="45.78881" lon="3.10483">
        <ele>345.8</ele>
        <time>2021-08-27T14:20:41Z</time>
      </trkpt>
      <trkpt lat="45.78884" lon="3.10481">
        <ele>345.9</ele>
        <time>2021-08-27T14:20:43Z</time>
      </trkpt>
      <trkpt lat="45.78886" lon="3.10478">
        <ele>345.9</ele>
        <time>2021-08-27T14:20:45Z</time>
      </trkpt>
      <trkpt lat="45.78889" lon="3.10476">
        <ele>345.9</ele>
        <time>2021-08-27T14:20:47Z</time>
      </trkpt>
      <trkpt lat="45.78891" lon="3.10474">
        <ele>345.9</ele>
        <time>2021-08-27T14:20:49Z</time>
      </trkpt>
      <trkpt lat="45.78893" lon="3.10473">
        <ele>345.9</ele>
        <time>2021-08-27T14:20:51Z</time>
      </trkpt>
      <trkpt lat="45.78896" lon="3.10471">
        <ele>345.9</ele>
        <time>2021-08-27T14:20:53Z</time>
      </trkpt>
      <trkpt lat="45.78899" lon="3.10469">
        <ele>346</ele>
        <time>2021-08-27T14:20:55Z</time>
      </trkpt>
      <trkpt lat="45.78902" lon="3.10467">
        <ele>346</ele>
        <time>2021-08-27T14:20:57Z</time>
      </trkpt>
      <trkpt lat="45.78905" lon="3.10466">
        <ele>345.9</ele>
        <time>2021-08-27T14:20:59Z</time>
      </trkpt>
      <trkpt lat="45.78909" lon="3.10467">
        <ele>345.9</ele>
        <time>2021-08-27T14:21:01Z</time>
      </trkpt>
      <trkpt lat="45.78912" lon="3.10468">
        <ele>345.8</ele>
        <time>2021-08-27T14:21:03Z</time>
      </trkpt>
      <trkpt lat="45.78916" lon="3.10467">
        <ele>345.8</ele>
        <time>2021-08-27T14:21:05Z</time>
      </trkpt>
      <trkpt lat="45.7892" lon="3.10468">
        <ele>345.8</ele>
        <time>2021-08-27T14:21:07Z</time>
      </trkpt>
      <trkpt lat="45.78923" lon="3.10467">
        <ele>345.8</ele>
        <time>2021-08-27T14:21:09Z</time>
      </trkpt>
      <trkpt lat="45.78927" lon="3.10466">
        <ele>345.9</ele>
        <time>2021-08-27T14:21:11Z</time>
      </trkpt>
      <trkpt lat="45.7893" lon="3.10468">
        <ele>345.9</ele>
        <time>2021-08-27T14:21:13Z</time>
      </trkpt>
      <trkpt lat="45.78934" lon="3.10468">
        <ele>345.9</ele>
        <time>2021-08-27T14:21:15Z</time>
      </trkpt>
      <trkpt lat="45.78937" lon="3.10468">
        <ele>345.9</ele>
        <time>2021-08-27T14:21:17Z</time>
      </trkpt>
      <trkpt lat="45.7894" lon="3.10469">
        <ele>345.9</ele>
        <time>2021-08-27T14:21:19Z</time>
      </trkpt>
      <trkpt lat="45.78943" lon="3.1047">
        <ele>345.9</ele>
        <time>2021-08-27T14:21:21Z</time>
      </trkpt>
      <trkpt lat="45.78946" lon="3.1047">
        <ele>345.9</ele>
        <time>2021-08-27T14:21:23Z</time>
      </trkpt>
      <trkpt lat="45.78948" lon="3.10473">
        <ele>345.9</ele>
        <time>2021-08-27T14:21:25Z</time>
      </trkpt>
      <trkpt lat="45.7895" lon="3.10474">
        <ele>345.9</ele>
        <time>2021-08-27T14:21:27Z</time>
      </trkpt>
      <trkpt lat="45.78953" lon="3.10475">
        <ele>345.9</ele>
        <time>2021-08-27T14:21:29Z</time>
      </trkpt>
      <trkpt lat="45.78955" lon="3.10477">
        <ele>345.9</ele>
        <time>2021-08-27T14:21:31Z</time>
      </trkpt>
      <trkpt lat="45.7896" lon="3.1048">
        <ele>345.9</ele>
        <time>2021-08-27T14:21:33Z</time>
      </trkpt>
      <trkpt lat="45.78963" lon="3.10483">
        <ele>345.9</ele>
        <time>2021-08-27T14:21:35Z</time>
      </trkpt>
      <trkpt lat="45.78967" lon="3.10488">
        <ele>345.8</ele>
        <time>2021-08-27T14:21:37Z</time>
      </trkpt>
      <trkpt lat="45.78969" lon="3.10489">
        <ele>345.8</ele>
        <time>2021-08-27T14:21:39Z</time>
      </trkpt>
      <trkpt lat="45.78971" lon="3.10492">
        <ele>345.8</ele>
        <time>2021-08-27T14:21:41Z</time>
      </trkpt>
      <trkpt lat="45.78973" lon="3.10496">
        <ele>345.7</ele>
        <time>2021-08-27T14:21:43Z</time>
      </trkpt>
      <trkpt lat="45.78977" lon="3.10502">
        <ele>345.7</ele>
        <time>2021-08-27T14:21:45Z</time>
      </trkpt>
      <trkpt lat="45.78979" lon="3.10507">
        <ele>345.7</ele>
        <time>2021-08-27T14:21:47Z</time>
      </trkpt>
      <trkpt lat="45.78983" lon="3.10511">
        <ele>345.8</ele>
        <time>2021-08-27T14:21:49Z</time>
      </trkpt>
      <trkpt lat="45.78988" lon="3.10514">
        <ele>345.8</ele>
        <time>2021-08-27T14:21:51Z</time>
      </trkpt>
      <trkpt lat="45.78991" lon="3.1052">
        <ele>345.9</ele>
        <time>2021-08-27T14:21:53Z</time>
      </trkpt>
      <trkpt lat="45.78994" lon="3.10528">
        <ele>345.9</ele>
        <time>2021-08-27T14:21:55Z</time>
      </trkpt>
      <trkpt lat="45.78998" lon="3.10535">
        <ele>346</ele>
        <time>2021-08-27T14:21:57Z</time>
      </trkpt>
      <trkpt lat="45.79001" lon="3.10541">
        <ele>346</ele>
        <time>2021-08-27T14:21:59Z</time>
      </trkpt>
      <trkpt lat="45.79004" lon="3.10547">
        <ele>346.2</ele>
        <time>2021-08-27T14:22:01Z</time>
      </trkpt>
      <trkpt lat="45.79007" lon="3.10555">
        <ele>346.3</ele>
        <time>2021-08-27T14:22:03Z</time>
      </trkpt>
      <trkpt lat="45.79009" lon="3.10563">
        <ele>346.4</ele>
        <time>2021-08-27T14:22:05Z</time>
      </trkpt>
      <trkpt lat="45.79012" lon="3.10571">
        <ele>346.5</ele>
        <time>2021-08-27T14:22:07Z</time>
      </trkpt>
      <trkpt lat="45.79014" lon="3.10579">
        <ele>346.5</ele>
        <time>2021-08-27T14:22:09Z</time>
      </trkpt>
      <trkpt lat="45.79017" lon="3.10587">
        <ele>346.6</ele>
        <time>2021-08-27T14:22:11Z</time>
      </trkpt>
      <trkpt lat="45.79019" lon="3.10594">
        <ele>346.6</ele>
        <time>2021-08-27T14:22:13Z</time>
      </trkpt>
      <trkpt lat="45.79022" lon="3.10601">
        <ele>346.6</ele>
        <time>2021-08-27T14:22:15Z</time>
      </trkpt>
      <trkpt lat="45.79024" lon="3.10607">
        <ele>346.5</ele>
        <time>2021-08-27T14:22:17Z</time>
      </trkpt>
      <trkpt lat="45.79024" lon="3.1061">
        <ele>346.5</ele>
        <time>2021-08-27T14:22:19Z</time>
      </trkpt>
      <trkpt lat="45.79023" lon="3.10612">
        <ele>346.5</ele>
        <time>2021-08-27T14:22:21Z</time>
      </trkpt>
      <trkpt lat="45.79024" lon="3.10612">
        <ele>346.5</ele>
        <time>2021-08-27T14:22:23Z</time>
      </trkpt>
      <trkpt lat="45.79023" lon="3.10613">
        <ele>346.4</ele>
        <time>2021-08-27T14:22:25Z</time>
      </trkpt>
      <trkpt lat="45.79022" lon="3.10614">
        <ele>346.4</ele>
        <time>2021-08-27T14:22:27Z</time>
      </trkpt>
      <trkpt lat="45.79018" lon="3.10616">
        <ele>346.3</ele>
        <time>2021-08-27T14:23:53Z</time>
      </trkpt>
      <trkpt lat="45.79017" lon="3.10616">
        <ele>346.3</ele>
        <time>2021-08-27T14:23:55Z</time>
      </trkpt>
      <trkpt lat="45.79018" lon="3.10616">
        <ele>346.3</ele>
        <time>2021-08-27T14:23:57Z</time>
      </trkpt>
      <trkpt lat="45.79018" lon="3.10617">
        <ele>346.3</ele>
        <time>2021-08-27T14:23:59Z</time>
      </trkpt>
      <trkpt lat="45.79018" lon="3.10617">
        <ele>346.3</ele>
        <time>2021-08-27T14:24:01Z</time>
      </trkpt>
      <trkpt lat="45.79018" lon="3.10619">
        <ele>346.3</ele>
        <time>2021-08-27T14:24:03Z</time>
      </trkpt>
      <trkpt lat="45.79018" lon="3.10624">
        <ele>346.2</ele>
        <time>2021-08-27T14:24:05Z</time>
      </trkpt>
      <trkpt lat="45.79019" lon="3.1063">
        <ele>346.2</ele>
        <time>2021-08-27T14:24:07Z</time>
      </trkpt>
      <trkpt lat="45.79021" lon="3.10637">
        <ele>346.1</ele>
        <time>2021-08-27T14:24:09Z</time>
      </trkpt>
      <trkpt lat="45.79022" lon="3.10642">
        <ele>346</ele>
        <time>2021-08-27T14:24:11Z</time>
      </trkpt>
      <trkpt lat="45.79021" lon="3.10644">
        <ele>346</ele>
        <time>2021-08-27T14:24:13Z</time>
      </trkpt>
      <trkpt lat="45.7902" lon="3.10645">
        <ele>346</ele>
        <time>2021-08-27T14:24:15Z</time>
      </trkpt>
      <trkpt lat="45.79018" lon="3.10645">
        <ele>346</ele>
        <time>2021-08-27T14:24:17Z</time>
      </trkpt>
      <trkpt lat="45.79017" lon="3.10645">
        <ele>346</ele>
        <time>2021-08-27T14:24:19Z</time>
      </trkpt>
      <trkpt lat="45.79017" lon="3.10645">
        <ele>346</ele>
        <time>2021-08-27T14:24:21Z</time>
      </trkpt>
      <trkpt lat="45.79021" lon="3.10646">
        <ele>346</ele>
        <time>2021-08-27T14:24:49Z</time>
      </trkpt>
      <trkpt lat="45.79024" lon="3.10646">
        <ele>346</ele>
        <time>2021-08-27T14:24:51Z</time>
      </trkpt>
      <trkpt lat="45.79027" lon="3.10648">
        <ele>346</ele>
        <time>2021-08-27T14:24:53Z</time>
      </trkpt>
      <trkpt lat="45.7903" lon="3.10652">
        <ele>345.9</ele>
        <time>2021-08-27T14:24:55Z</time>
      </trkpt>
      <trkpt lat="45.79033" lon="3.10656">
        <ele>345.8</ele>
        <time>2021-08-27T14:24:57Z</time>
      </trkpt>
      <trkpt lat="45.79036" lon="3.10659">
        <ele>345.7</ele>
        <time>2021-08-27T14:24:59Z</time>
      </trkpt>
      <trkpt lat="45.79039" lon="3.10662">
        <ele>345.6</ele>
        <time>2021-08-27T14:25:01Z</time>
      </trkpt>
      <trkpt lat="45.79042" lon="3.10666">
        <ele>345.5</ele>
        <time>2021-08-27T14:25:03Z</time>
      </trkpt>
      <trkpt lat="45.79044" lon="3.1067">
        <ele>345.3</ele>
        <time>2021-08-27T14:25:05Z</time>
      </trkpt>
      <trkpt lat="45.79045" lon="3.10675">
        <ele>345.1</ele>
        <time>2021-08-27T14:25:07Z</time>
      </trkpt>
      <trkpt lat="45.79045" lon="3.10677">
        <ele>345</ele>
        <time>2021-08-27T14:25:09Z</time>
      </trkpt>
      <trkpt lat="45.79045" lon="3.10678">
        <ele>345</ele>
        <time>2021-08-27T14:25:11Z</time>
      </trkpt>
      <trkpt lat="45.79046" lon="3.10679">
        <ele>344.9</ele>
        <time>2021-08-27T14:25:13Z</time>
      </trkpt>
      <trkpt lat="45.79045" lon="3.1068">
        <ele>344.9</ele>
        <time>2021-08-27T14:25:15Z</time>
      </trkpt>
      <trkpt lat="45.79045" lon="3.1068">
        <ele>344.9</ele>
        <time>2021-08-27T14:25:17Z</time>
      </trkpt>
      <trkpt lat="45.79049" lon="3.10706">
        <ele>343.7</ele>
        <time>2021-08-27T14:26:03Z</time>
      </trkpt>
      <trkpt lat="45.79051" lon="3.10711">
        <ele>343.5</ele>
        <time>2021-08-27T14:26:05Z</time>
      </trkpt>
      <trkpt lat="45.79052" lon="3.10718">
        <ele>343.1</ele>
        <time>2021-08-27T14:26:07Z</time>
      </trkpt>
      <trkpt lat="45.79054" lon="3.10725">
        <ele>342.8</ele>
        <time>2021-08-27T14:26:09Z</time>
      </trkpt>
      <trkpt lat="45.79055" lon="3.10731">
        <ele>342.5</ele>
        <time>2021-08-27T14:26:11Z</time>
      </trkpt>
      <trkpt lat="45.79056" lon="3.10738">
        <ele>342.2</ele>
        <time>2021-08-27T14:26:13Z</time>
      </trkpt>
      <trkpt lat="45.79058" lon="3.10745">
        <ele>341.8</ele>
        <time>2021-08-27T14:26:15Z</time>
      </trkpt>
      <trkpt lat="45.7906" lon="3.10752">
        <ele>341.6</ele>
        <time>2021-08-27T14:26:17Z</time>
      </trkpt>
      <trkpt lat="45.79062" lon="3.10759">
        <ele>341.7</ele>
        <time>2021-08-27T14:26:19Z</time>
      </trkpt>
      <trkpt lat="45.79062" lon="3.10766">
        <ele>341.7</ele>
        <time>2021-08-27T14:26:21Z</time>
      </trkpt>
      <trkpt lat="45.79061" lon="3.10772">
        <ele>341.8</ele>
        <time>2021-08-27T14:26:23Z</time>
      </trkpt>
      <trkpt lat="45.79064" lon="3.10776">
        <ele>341.9</ele>
        <time>2021-08-27T14:26:25Z</time>
      </trkpt>
      <trkpt lat="45.79064" lon="3.10782">
        <ele>342</ele>
        <time>2021-08-27T14:26:27Z</time>
      </trkpt>
      <trkpt lat="45.79062" lon="3.10785">
        <ele>342</ele>
        <time>2021-08-27T14:26:29Z</time>
      </trkpt>
      <trkpt lat="45.79059" lon="3.10787">
        <ele>342.1</ele>
        <time>2021-08-27T14:26:31Z</time>
      </trkpt>
      <trkpt lat="45.79056" lon="3.1079">
        <ele>342.1</ele>
        <time>2021-08-27T14:26:33Z</time>
      </trkpt>
      <trkpt lat="45.79051" lon="3.10791">
        <ele>342.2</ele>
        <time>2021-08-27T14:26:35Z</time>
      </trkpt>
      <trkpt lat="45.79048" lon="3.10793">
        <ele>342.2</ele>
        <time>2021-08-27T14:26:37Z</time>
      </trkpt>
      <trkpt lat="45.79043" lon="3.10796">
        <ele>342.3</ele>
        <time>2021-08-27T14:26:39Z</time>
      </trkpt>
      <trkpt lat="45.79036" lon="3.10799">
        <ele>342.3</ele>
        <time>2021-08-27T14:26:41Z</time>
      </trkpt>
      <trkpt lat="45.79029" lon="3.10801">
        <ele>342.3</ele>
        <time>2021-08-27T14:26:43Z</time>
      </trkpt>
      <trkpt lat="45.79023" lon="3.10803">
        <ele>342.3</ele>
        <time>2021-08-27T14:26:45Z</time>
      </trkpt>
      <trkpt lat="45.79016" lon="3.10806">
        <ele>342.3</ele>
        <time>2021-08-27T14:26:47Z</time>
      </trkpt>
      <trkpt lat="45.79011" lon="3.10809">
        <ele>342.3</ele>
        <time>2021-08-27T14:26:49Z</time>
      </trkpt>
      <trkpt lat="45.79005" lon="3.10814">
        <ele>342.3</ele>
        <time>2021-08-27T14:26:51Z</time>
      </trkpt>
      <trkpt lat="45.78999" lon="3.10815">
        <ele>342.2</ele>
        <time>2021-08-27T14:26:53Z</time>
      </trkpt>
      <trkpt lat="45.78992" lon="3.10817">
        <ele>342.4</ele>
        <time>2021-08-27T14:26:55Z</time>
      </trkpt>
      <trkpt lat="45.78986" lon="3.1082">
        <ele>342.5</ele>
        <time>2021-08-27T14:26:57Z</time>
      </trkpt>
      <trkpt lat="45.78979" lon="3.10823">
        <ele>342.6</ele>
        <time>2021-08-27T14:26:59Z</time>
      </trkpt>
      <trkpt lat="45.78973" lon="3.10824">
        <ele>342.7</ele>
        <time>2021-08-27T14:27:01Z</time>
      </trkpt>
      <trkpt lat="45.78967" lon="3.10826">
        <ele>342.8</ele>
        <time>2021-08-27T14:27:03Z</time>
      </trkpt>
      <trkpt lat="45.78962" lon="3.10829">
        <ele>343</ele>
        <time>2021-08-27T14:27:05Z</time>
      </trkpt>
      <trkpt lat="45.78955" lon="3.10831">
        <ele>343.1</ele>
        <time>2021-08-27T14:27:07Z</time>
      </trkpt>
      <trkpt lat="45.78949" lon="3.10833">
        <ele>343.2</ele>
        <time>2021-08-27T14:27:09Z</time>
      </trkpt>
      <trkpt lat="45.78942" lon="3.10834">
        <ele>343.4</ele>
        <time>2021-08-27T14:27:11Z</time>
      </trkpt>
      <trkpt lat="45.78937" lon="3.10836">
        <ele>343.6</ele>
        <time>2021-08-27T14:27:13Z</time>
      </trkpt>
      <trkpt lat="45.78935" lon="3.10838">
        <ele>343.7</ele>
        <time>2021-08-27T14:27:15Z</time>
      </trkpt>
      <trkpt lat="45.78933" lon="3.10839">
        <ele>343.7</ele>
        <time>2021-08-27T14:27:17Z</time>
      </trkpt>
      <trkpt lat="45.7893" lon="3.1084">
        <ele>343.9</ele>
        <time>2021-08-27T14:27:19Z</time>
      </trkpt>
      <trkpt lat="45.78926" lon="3.10842">
        <ele>344</ele>
        <time>2021-08-27T14:27:21Z</time>
      </trkpt>
      <trkpt lat="45.78924" lon="3.10848">
        <ele>344.2</ele>
        <time>2021-08-27T14:27:23Z</time>
      </trkpt>
      <trkpt lat="45.78923" lon="3.10853">
        <ele>344.3</ele>
        <time>2021-08-27T14:27:25Z</time>
      </trkpt>
      <trkpt lat="45.78921" lon="3.10853">
        <ele>344.4</ele>
        <time>2021-08-27T14:27:27Z</time>
      </trkpt>
      <trkpt lat="45.78915" lon="3.10853">
        <ele>344.5</ele>
        <time>2021-08-27T14:27:29Z</time>
      </trkpt>
      <trkpt lat="45.78907" lon="3.1085">
        <ele>344.7</ele>
        <time>2021-08-27T14:27:31Z</time>
      </trkpt>
      <trkpt lat="45.78904" lon="3.10851">
        <ele>344.8</ele>
        <time>2021-08-27T14:27:33Z</time>
      </trkpt>
      <trkpt lat="45.78901" lon="3.10853">
        <ele>344.9</ele>
        <time>2021-08-27T14:27:35Z</time>
      </trkpt>
      <trkpt lat="45.78899" lon="3.10851">
        <ele>344.9</ele>
        <time>2021-08-27T14:27:37Z</time>
      </trkpt>
      <trkpt lat="45.78883" lon="3.1083">
        <ele>345.2</ele>
        <time>2021-08-27T14:28:37Z</time>
      </trkpt>
      <trkpt lat="45.78879" lon="3.10822">
        <ele>345.3</ele>
        <time>2021-08-27T14:28:39Z</time>
      </trkpt>
      <trkpt lat="45.78873" lon="3.10815">
        <ele>345.5</ele>
        <time>2021-08-27T14:28:41Z</time>
      </trkpt>
      <trkpt lat="45.78869" lon="3.10806">
        <ele>345.5</ele>
        <time>2021-08-27T14:28:43Z</time>
      </trkpt>
      <trkpt lat="45.78865" lon="3.10799">
        <ele>345.6</ele>
        <time>2021-08-27T14:28:45Z</time>
      </trkpt>
      <trkpt lat="45.7886" lon="3.10791">
        <ele>345.7</ele>
        <time>2021-08-27T14:28:47Z</time>
      </trkpt>
      <trkpt lat="45.78857" lon="3.10782">
        <ele>345.7</ele>
        <time>2021-08-27T14:28:49Z</time>
      </trkpt>
      <trkpt lat="45.78854" lon="3.10774">
        <ele>345.7</ele>
        <time>2021-08-27T14:28:51Z</time>
      </trkpt>
      <trkpt lat="45.78851" lon="3.10765">
        <ele>345.7</ele>
        <time>2021-08-27T14:28:53Z</time>
      </trkpt>
      <trkpt lat="45.78847" lon="3.10758">
        <ele>345.7</ele>
        <time>2021-08-27T14:28:55Z</time>
      </trkpt>
      <trkpt lat="45.78843" lon="3.1075">
        <ele>345.8</ele>
        <time>2021-08-27T14:28:57Z</time>
      </trkpt>
      <trkpt lat="45.78839" lon="3.10743">
        <ele>345.9</ele>
        <time>2021-08-27T14:28:59Z</time>
      </trkpt>
      <trkpt lat="45.78836" lon="3.10735">
        <ele>345.9</ele>
        <time>2021-08-27T14:29:01Z</time>
      </trkpt>
      <trkpt lat="45.78832" lon="3.10727">
        <ele>346</ele>
        <time>2021-08-27T14:29:03Z</time>
      </trkpt>
      <trkpt lat="45.78829" lon="3.1072">
        <ele>346.1</ele>
        <time>2021-08-27T14:29:05Z</time>
      </trkpt>
      <trkpt lat="45.78825" lon="3.10713">
        <ele>346.2</ele>
        <time>2021-08-27T14:29:07Z</time>
      </trkpt>
      <trkpt lat="45.78821" lon="3.10706">
        <ele>346.4</ele>
        <time>2021-08-27T14:29:09Z</time>
      </trkpt>
      <trkpt lat="45.78817" lon="3.10698">
        <ele>346.5</ele>
        <time>2021-08-27T14:29:11Z</time>
      </trkpt>
      <trkpt lat="45.78814" lon="3.1069">
        <ele>346.6</ele>
        <time>2021-08-27T14:29:13Z</time>
      </trkpt>
      <trkpt lat="45.78811" lon="3.10682">
        <ele>346.8</ele>
        <time>2021-08-27T14:29:15Z</time>
      </trkpt>
      <trkpt lat="45.78807" lon="3.10675">
        <ele>346.9</ele>
        <time>2021-08-27T14:29:17Z</time>
      </trkpt>
      <trkpt lat="45.78803" lon="3.10666">
        <ele>347.1</ele>
        <time>2021-08-27T14:29:19Z</time>
      </trkpt>
      <trkpt lat="45.78799" lon="3.10658">
        <ele>347.4</ele>
        <time>2021-08-27T14:29:21Z</time>
      </trkpt>
      <trkpt lat="45.78795" lon="3.1065">
        <ele>347.7</ele>
        <time>2021-08-27T14:29:23Z</time>
      </trkpt>
      <trkpt lat="45.78791" lon="3.10642">
        <ele>348</ele>
        <time>2021-08-27T14:29:25Z</time>
      </trkpt>
      <trkpt lat="45.78787" lon="3.10634">
        <ele>348.3</ele>
        <time>2021-08-27T14:29:27Z</time>
      </trkpt>
      <trkpt lat="45.78783" lon="3.10626">
        <ele>348.6</ele>
        <time>2021-08-27T14:29:29Z</time>
      </trkpt>
      <trkpt lat="45.78779" lon="3.10618">
        <ele>348.9</ele>
        <time>2021-08-27T14:29:31Z</time>
      </trkpt>
      <trkpt lat="45.78775" lon="3.1061">
        <ele>349.3</ele>
        <time>2021-08-27T14:29:33Z</time>
      </trkpt>
      <trkpt lat="45.78772" lon="3.10602">
        <ele>349.6</ele>
        <time>2021-08-27T14:29:35Z</time>
      </trkpt>
      <trkpt lat="45.7877" lon="3.10597">
        <ele>349.8</ele>
        <time>2021-08-27T14:29:37Z</time>
      </trkpt>
      <trkpt lat="45.78769" lon="3.10595">
        <ele>349.9</ele>
        <time>2021-08-27T14:29:39Z</time>
      </trkpt>
      <trkpt lat="45.78769" lon="3.10595">
        <ele>349.8</ele>
        <time>2021-08-27T14:29:41Z</time>
      </trkpt>
      <trkpt lat="45.78769" lon="3.10595">
        <ele>349.8</ele>
        <time>2021-08-27T14:29:43Z</time>
      </trkpt>
      <trkpt lat="45.78769" lon="3.10595">
        <ele>349.8</ele>
        <time>2021-08-27T14:29:45Z</time>
      </trkpt>
      <trkpt lat="45.78769" lon="3.10594">
        <ele>349.8</ele>
        <time>2021-08-27T14:29:47Z</time>
      </trkpt>
      <trkpt lat="45.78769" lon="3.10594">
        <ele>349.9</ele>
        <time>2021-08-27T14:29:49Z</time>
      </trkpt>
      <trkpt lat="45.78757" lon="3.10569">
        <ele>351</ele>
        <time>2021-08-27T14:30:17Z</time>
      </trkpt>
      <trkpt lat="45.78752" lon="3.10562">
        <ele>351.4</ele>
        <time>2021-08-27T14:30:19Z</time>
      </trkpt>
      <trkpt lat="45.78749" lon="3.10554">
        <ele>351.7</ele>
        <time>2021-08-27T14:30:21Z</time>
      </trkpt>
      <trkpt lat="45.78745" lon="3.10545">
        <ele>351.9</ele>
        <time>2021-08-27T14:30:23Z</time>
      </trkpt>
      <trkpt lat="45.78741" lon="3.10536">
        <ele>352</ele>
        <time>2021-08-27T14:30:25Z</time>
      </trkpt>
      <trkpt lat="45.78738" lon="3.10526">
        <ele>352.2</ele>
        <time>2021-08-27T14:30:27Z</time>
      </trkpt>
      <trkpt lat="45.78732" lon="3.10519">
        <ele>352.2</ele>
        <time>2021-08-27T14:30:29Z</time>
      </trkpt>
      <trkpt lat="45.78728" lon="3.10511">
        <ele>352.3</ele>
        <time>2021-08-27T14:30:31Z</time>
      </trkpt>
      <trkpt lat="45.78723" lon="3.10503">
        <ele>352.3</ele>
        <time>2021-08-27T14:30:33Z</time>
      </trkpt>
      <trkpt lat="45.78718" lon="3.10496">
        <ele>352.1</ele>
        <time>2021-08-27T14:30:35Z</time>
      </trkpt>
      <trkpt lat="45.78714" lon="3.10487">
        <ele>351.9</ele>
        <time>2021-08-27T14:30:37Z</time>
      </trkpt>
      <trkpt lat="45.78711" lon="3.10478">
        <ele>351.6</ele>
        <time>2021-08-27T14:30:39Z</time>
      </trkpt>
      <trkpt lat="45.78707" lon="3.10469">
        <ele>351.4</ele>
        <time>2021-08-27T14:30:41Z</time>
      </trkpt>
      <trkpt lat="45.78702" lon="3.1046">
        <ele>351.2</ele>
        <time>2021-08-27T14:30:43Z</time>
      </trkpt>
      <trkpt lat="45.78698" lon="3.10452">
        <ele>351.1</ele>
        <time>2021-08-27T14:30:45Z</time>
      </trkpt>
      <trkpt lat="45.78694" lon="3.10444">
        <ele>351</ele>
        <time>2021-08-27T14:30:47Z</time>
      </trkpt>
      <trkpt lat="45.78689" lon="3.10435">
        <ele>350.9</ele>
        <time>2021-08-27T14:30:49Z</time>
      </trkpt>
      <trkpt lat="45.78684" lon="3.10427">
        <ele>350.9</ele>
        <time>2021-08-27T14:30:51Z</time>
      </trkpt>
      <trkpt lat="45.7868" lon="3.10418">
        <ele>350.8</ele>
        <time>2021-08-27T14:30:53Z</time>
      </trkpt>
      <trkpt lat="45.78677" lon="3.10409">
        <ele>351.1</ele>
        <time>2021-08-27T14:30:55Z</time>
      </trkpt>
      <trkpt lat="45.78672" lon="3.104">
        <ele>351.3</ele>
        <time>2021-08-27T14:30:57Z</time>
      </trkpt>
      <trkpt lat="45.78668" lon="3.10391">
        <ele>351.6</ele>
        <time>2021-08-27T14:30:59Z</time>
      </trkpt>
      <trkpt lat="45.78664" lon="3.10382">
        <ele>351.8</ele>
        <time>2021-08-27T14:31:01Z</time>
      </trkpt>
      <trkpt lat="45.7866" lon="3.10373">
        <ele>352.1</ele>
        <time>2021-08-27T14:31:03Z</time>
      </trkpt>
      <trkpt lat="45.78656" lon="3.10364">
        <ele>352.3</ele>
        <time>2021-08-27T14:31:05Z</time>
      </trkpt>
      <trkpt lat="45.78651" lon="3.10355">
        <ele>352.5</ele>
        <time>2021-08-27T14:31:07Z</time>
      </trkpt>
      <trkpt lat="45.78647" lon="3.10347">
        <ele>352.7</ele>
        <time>2021-08-27T14:31:09Z</time>
      </trkpt>
      <trkpt lat="45.78642" lon="3.10337">
        <ele>352.9</ele>
        <time>2021-08-27T14:31:11Z</time>
      </trkpt>
      <trkpt lat="45.78638" lon="3.10329">
        <ele>353</ele>
        <time>2021-08-27T14:31:13Z</time>
      </trkpt>
      <trkpt lat="45.78633" lon="3.1032">
        <ele>353</ele>
        <time>2021-08-27T14:31:15Z</time>
      </trkpt>
      <trkpt lat="45.78629" lon="3.1031">
        <ele>353.1</ele>
        <time>2021-08-27T14:31:17Z</time>
      </trkpt>
      <trkpt lat="45.78624" lon="3.10301">
        <ele>353.2</ele>
        <time>2021-08-27T14:31:19Z</time>
      </trkpt>
      <trkpt lat="45.78619" lon="3.10293">
        <ele>353.3</ele>
        <time>2021-08-27T14:31:21Z</time>
      </trkpt>
      <trkpt lat="45.78615" lon="3.10283">
        <ele>353.5</ele>
        <time>2021-08-27T14:31:23Z</time>
      </trkpt>
      <trkpt lat="45.78611" lon="3.10274">
        <ele>353.7</ele>
        <time>2021-08-27T14:31:25Z</time>
      </trkpt>
      <trkpt lat="45.78606" lon="3.10265">
        <ele>354</ele>
        <time>2021-08-27T14:31:27Z</time>
      </trkpt>
      <trkpt lat="45.78602" lon="3.10255">
        <ele>354.3</ele>
        <time>2021-08-27T14:31:29Z</time>
      </trkpt>
      <trkpt lat="45.78597" lon="3.10247">
        <ele>354.5</ele>
        <time>2021-08-27T14:31:31Z</time>
      </trkpt>
      <trkpt lat="45.78592" lon="3.10238">
        <ele>354.8</ele>
        <time>2021-08-27T14:31:33Z</time>
      </trkpt>
      <trkpt lat="45.78588" lon="3.10228">
        <ele>355.1</ele>
        <time>2021-08-27T14:31:35Z</time>
      </trkpt>
      <trkpt lat="45.78583" lon="3.1022">
        <ele>355.4</ele>
        <time>2021-08-27T14:31:37Z</time>
      </trkpt>
      <trkpt lat="45.78578" lon="3.10212">
        <ele>355.4</ele>
        <time>2021-08-27T14:31:39Z</time>
      </trkpt>
      <trkpt lat="45.78574" lon="3.10203">
        <ele>355.4</ele>
        <time>2021-08-27T14:31:41Z</time>
      </trkpt>
      <trkpt lat="45.7857" lon="3.10194">
        <ele>355.5</ele>
        <time>2021-08-27T14:31:43Z</time>
      </trkpt>
      <trkpt lat="45.78566" lon="3.10185">
        <ele>355.5</ele>
        <time>2021-08-27T14:31:45Z</time>
      </trkpt>
      <trkpt lat="45.78561" lon="3.10176">
        <ele>355.6</ele>
        <time>2021-08-27T14:31:47Z</time>
      </trkpt>
      <trkpt lat="45.78557" lon="3.10167">
        <ele>355.7</ele>
        <time>2021-08-27T14:31:49Z</time>
      </trkpt>
      <trkpt lat="45.78553" lon="3.10158">
        <ele>355.4</ele>
        <time>2021-08-27T14:31:51Z</time>
      </trkpt>
      <trkpt lat="45.78547" lon="3.10149">
        <ele>355.1</ele>
        <time>2021-08-27T14:31:53Z</time>
      </trkpt>
      <trkpt lat="45.78542" lon="3.1014">
        <ele>354.9</ele>
        <time>2021-08-27T14:31:55Z</time>
      </trkpt>
      <trkpt lat="45.78537" lon="3.10132">
        <ele>354.6</ele>
        <time>2021-08-27T14:31:57Z</time>
      </trkpt>
      <trkpt lat="45.78532" lon="3.10123">
        <ele>354.5</ele>
        <time>2021-08-27T14:31:59Z</time>
      </trkpt>
      <trkpt lat="45.78528" lon="3.10115">
        <ele>354.3</ele>
        <time>2021-08-27T14:32:01Z</time>
      </trkpt>
      <trkpt lat="45.78525" lon="3.10107">
        <ele>354.2</ele>
        <time>2021-08-27T14:32:03Z</time>
      </trkpt>
      <trkpt lat="45.78522" lon="3.101">
        <ele>354</ele>
        <time>2021-08-27T14:32:05Z</time>
      </trkpt>
      <trkpt lat="45.78519" lon="3.10094">
        <ele>354</ele>
        <time>2021-08-27T14:32:07Z</time>
      </trkpt>
      <trkpt lat="45.78516" lon="3.10088">
        <ele>353.9</ele>
        <time>2021-08-27T14:32:09Z</time>
      </trkpt>
      <trkpt lat="45.78514" lon="3.10083">
        <ele>353.8</ele>
        <time>2021-08-27T14:32:11Z</time>
      </trkpt>
      <trkpt lat="45.7851" lon="3.10083">
        <ele>353.9</ele>
        <time>2021-08-27T14:32:13Z</time>
      </trkpt>
      <trkpt lat="45.78508" lon="3.10087">
        <ele>354</ele>
        <time>2021-08-27T14:32:15Z</time>
      </trkpt>
      <trkpt lat="45.78508" lon="3.10087">
        <ele>354</ele>
        <time>2021-08-27T14:32:17Z</time>
      </trkpt>
      <trkpt lat="45.78508" lon="3.10087">
        <ele>354</ele>
        <time>2021-08-27T14:32:19Z</time>
      </trkpt>
      <trkpt lat="45.78508" lon="3.10087">
        <ele>354</ele>
        <time>2021-08-27T14:32:21Z</time>
      </trkpt>
      <trkpt lat="45.78508" lon="3.10087">
        <ele>354</ele>
        <time>2021-08-27T14:32:23Z</time>
      </trkpt>
      <trkpt lat="45.78508" lon="3.10087">
        <ele>354</ele>
        <time>2021-08-27T14:32:25Z</time>
      </trkpt>
      <trkpt lat="45.78502" lon="3.10095">
        <ele>354.1</ele>
        <time>2021-08-27T14:32:41Z</time>
      </trkpt>
      <trkpt lat="45.785" lon="3.10095">
        <ele>354.1</ele>
        <time>2021-08-27T14:32:43Z</time>
      </trkpt>
      <trkpt lat="45.78495" lon="3.10093">
        <ele>354.2</ele>
        <time>2021-08-27T14:32:45Z</time>
      </trkpt>
      <trkpt lat="45.7849" lon="3.1009">
        <ele>354.3</ele>
        <time>2021-08-27T14:32:47Z</time>
      </trkpt>
      <trkpt lat="45.78484" lon="3.10091">
        <ele>354.4</ele>
        <time>2021-08-27T14:32:49Z</time>
      </trkpt>
      <trkpt lat="45.78479" lon="3.10093">
        <ele>354.6</ele>
        <time>2021-08-27T14:32:51Z</time>
      </trkpt>
      <trkpt lat="45.78474" lon="3.10098">
        <ele>354.7</ele>
        <time>2021-08-27T14:32:53Z</time>
      </trkpt>
      <trkpt lat="45.7847" lon="3.10102">
        <ele>354.8</ele>
        <time>2021-08-27T14:32:55Z</time>
      </trkpt>
      <trkpt lat="45.78465" lon="3.10107">
        <ele>354.9</ele>
        <time>2021-08-27T14:32:57Z</time>
      </trkpt>
      <trkpt lat="45.7846" lon="3.10113">
        <ele>355</ele>
        <time>2021-08-27T14:32:59Z</time>
      </trkpt>
      <trkpt lat="45.78454" lon="3.10119">
        <ele>355.1</ele>
        <time>2021-08-27T14:33:01Z</time>
      </trkpt>
      <trkpt lat="45.78448" lon="3.10124">
        <ele>355.1</ele>
        <time>2021-08-27T14:33:03Z</time>
      </trkpt>
      <trkpt lat="45.78441" lon="3.10131">
        <ele>355.2</ele>
        <time>2021-08-27T14:33:05Z</time>
      </trkpt>
      <trkpt lat="45.78435" lon="3.10137">
        <ele>355.2</ele>
        <time>2021-08-27T14:33:07Z</time>
      </trkpt>
      <trkpt lat="45.78428" lon="3.10144">
        <ele>355.2</ele>
        <time>2021-08-27T14:33:09Z</time>
      </trkpt>
      <trkpt lat="45.78421" lon="3.1015">
        <ele>355.2</ele>
        <time>2021-08-27T14:33:11Z</time>
      </trkpt>
      <trkpt lat="45.78415" lon="3.10157">
        <ele>355.1</ele>
        <time>2021-08-27T14:33:13Z</time>
      </trkpt>
      <trkpt lat="45.7841" lon="3.10163">
        <ele>355.1</ele>
        <time>2021-08-27T14:33:15Z</time>
      </trkpt>
      <trkpt lat="45.78407" lon="3.10162">
        <ele>355.2</ele>
        <time>2021-08-27T14:33:17Z</time>
      </trkpt>
      <trkpt lat="45.78405" lon="3.10164">
        <ele>355.2</ele>
        <time>2021-08-27T14:33:19Z</time>
      </trkpt>
      <trkpt lat="45.78403" lon="3.10165">
        <ele>355.2</ele>
        <time>2021-08-27T14:33:21Z</time>
      </trkpt>
      <trkpt lat="45.78404" lon="3.10165">
        <ele>355.2</ele>
        <time>2021-08-27T14:33:23Z</time>
      </trkpt>
      <trkpt lat="45.78403" lon="3.10165">
        <ele>355.2</ele>
        <time>2021-08-27T14:33:25Z</time>
      </trkpt>
      <trkpt lat="45.78404" lon="3.10165">
        <ele>355.2</ele>
        <time>2021-08-27T14:33:27Z</time>
      </trkpt>
      <trkpt lat="45.78404" lon="3.10164">
        <ele>355.2</ele>
        <time>2021-08-27T14:33:29Z</time>
      </trkpt>
      <trkpt lat="45.78392" lon="3.10176">
        <ele>355.1</ele>
        <time>2021-08-27T14:33:43Z</time>
      </trkpt>
      <trkpt lat="45.78386" lon="3.10183">
        <ele>355.1</ele>
        <time>2021-08-27T14:33:45Z</time>
      </trkpt>
      <trkpt lat="45.78379" lon="3.10189">
        <ele>355</ele>
        <time>2021-08-27T14:33:47Z</time>
      </trkpt>
      <trkpt lat="45.78372" lon="3.10196">
        <ele>355</ele>
        <time>2021-08-27T14:33:49Z</time>
      </trkpt>
      <trkpt lat="45.78364" lon="3.10203">
        <ele>355</ele>
        <time>2021-08-27T14:33:51Z</time>
      </trkpt>
      <trkpt lat="45.78356" lon="3.1021">
        <ele>355.1</ele>
        <time>2021-08-27T14:33:53Z</time>
      </trkpt>
      <trkpt lat="45.78349" lon="3.10218">
        <ele>355.1</ele>
        <time>2021-08-27T14:33:55Z</time>
      </trkpt>
      <trkpt lat="45.78343" lon="3.10226">
        <ele>355.1</ele>
        <time>2021-08-27T14:33:57Z</time>
      </trkpt>
      <trkpt lat="45.78337" lon="3.10234">
        <ele>355.1</ele>
        <time>2021-08-27T14:33:59Z</time>
      </trkpt>
      <trkpt lat="45.78331" lon="3.10241">
        <ele>355.2</ele>
        <time>2021-08-27T14:34:01Z</time>
      </trkpt>
      <trkpt lat="45.78325" lon="3.10246">
        <ele>355.2</ele>
        <time>2021-08-27T14:34:03Z</time>
      </trkpt>
      <trkpt lat="45.78317" lon="3.10254">
        <ele>355.4</ele>
        <time>2021-08-27T14:34:05Z</time>
      </trkpt>
      <trkpt lat="45.78311" lon="3.10261">
        <ele>355.7</ele>
        <time>2021-08-27T14:34:07Z</time>
      </trkpt>
      <trkpt lat="45.78303" lon="3.10268">
        <ele>355.9</ele>
        <time>2021-08-27T14:34:09Z</time>
      </trkpt>
      <trkpt lat="45.78296" lon="3.10275">
        <ele>356.1</ele>
        <time>2021-08-27T14:34:11Z</time>
      </trkpt>
      <trkpt lat="45.78289" lon="3.10283">
        <ele>356.2</ele>
        <time>2021-08-27T14:34:13Z</time>
      </trkpt>
      <trkpt lat="45.78283" lon="3.1029">
        <ele>356.3</ele>
        <time>2021-08-27T14:34:15Z</time>
      </trkpt>
      <trkpt lat="45.78275" lon="3.10297">
        <ele>356.3</ele>
        <time>2021-08-27T14:34:17Z</time>
      </trkpt>
      <trkpt lat="45.78268" lon="3.10303">
        <ele>356.3</ele>
        <time>2021-08-27T14:34:19Z</time>
      </trkpt>
      <trkpt lat="45.78261" lon="3.10311">
        <ele>356.3</ele>
        <time>2021-08-27T14:34:21Z</time>
      </trkpt>
      <trkpt lat="45.78253" lon="3.10317">
        <ele>356.2</ele>
        <time>2021-08-27T14:34:23Z</time>
      </trkpt>
      <trkpt lat="45.78247" lon="3.10324">
        <ele>356.2</ele>
        <time>2021-08-27T14:34:25Z</time>
      </trkpt>
      <trkpt lat="45.78239" lon="3.10331">
        <ele>356.2</ele>
        <time>2021-08-27T14:34:27Z</time>
      </trkpt>
      <trkpt lat="45.78231" lon="3.10337">
        <ele>356.2</ele>
        <time>2021-08-27T14:34:29Z</time>
      </trkpt>
      <trkpt lat="45.78224" lon="3.10344">
        <ele>356.3</ele>
        <time>2021-08-27T14:34:31Z</time>
      </trkpt>
      <trkpt lat="45.78217" lon="3.1035">
        <ele>356.3</ele>
        <time>2021-08-27T14:34:33Z</time>
      </trkpt>
      <trkpt lat="45.7821" lon="3.10357">
        <ele>356.3</ele>
        <time>2021-08-27T14:34:35Z</time>
      </trkpt>
      <trkpt lat="45.78203" lon="3.10364">
        <ele>356.4</ele>
        <time>2021-08-27T14:34:37Z</time>
      </trkpt>
      <trkpt lat="45.78197" lon="3.10371">
        <ele>356.3</ele>
        <time>2021-08-27T14:34:39Z</time>
      </trkpt>
      <trkpt lat="45.78191" lon="3.10377">
        <ele>356.3</ele>
        <time>2021-08-27T14:34:41Z</time>
      </trkpt>
      <trkpt lat="45.78184" lon="3.10384">
        <ele>356.3</ele>
        <time>2021-08-27T14:34:43Z</time>
      </trkpt>
      <trkpt lat="45.78178" lon="3.10392">
        <ele>356.3</ele>
        <time>2021-08-27T14:34:45Z</time>
      </trkpt>
      <trkpt lat="45.78172" lon="3.104">
        <ele>356.2</ele>
        <time>2021-08-27T14:34:47Z</time>
      </trkpt>
      <trkpt lat="45.78166" lon="3.10405">
        <ele>356.1</ele>
        <time>2021-08-27T14:34:49Z</time>
      </trkpt>
      <trkpt lat="45.78162" lon="3.10409">
        <ele>356.2</ele>
        <time>2021-08-27T14:34:51Z</time>
      </trkpt>
      <trkpt lat="45.78159" lon="3.10408">
        <ele>356.2</ele>
        <time>2021-08-27T14:34:53Z</time>
      </trkpt>
      <trkpt lat="45.78156" lon="3.10409">
        <ele>356.2</ele>
        <time>2021-08-27T14:34:55Z</time>
      </trkpt>
      <trkpt lat="45.78154" lon="3.10412">
        <ele>356.2</ele>
        <time>2021-08-27T14:34:57Z</time>
      </trkpt>
      <trkpt lat="45.78152" lon="3.10416">
        <ele>356.2</ele>
        <time>2021-08-27T14:34:59Z</time>
      </trkpt>
      <trkpt lat="45.78149" lon="3.10419">
        <ele>356.2</ele>
        <time>2021-08-27T14:35:01Z</time>
      </trkpt>
      <trkpt lat="45.78148" lon="3.10417">
        <ele>356.2</ele>
        <time>2021-08-27T14:35:03Z</time>
      </trkpt>
      <trkpt lat="45.78144" lon="3.10423">
        <ele>356.2</ele>
        <time>2021-08-27T14:35:05Z</time>
      </trkpt>
      <trkpt lat="45.78143" lon="3.10426">
        <ele>356.2</ele>
        <time>2021-08-27T14:35:07Z</time>
      </trkpt>
      <trkpt lat="45.78141" lon="3.10428">
        <ele>356.2</ele>
        <time>2021-08-27T14:35:09Z</time>
      </trkpt>
      <trkpt lat="45.7814" lon="3.10428">
        <ele>356.2</ele>
        <time>2021-08-27T14:35:11Z</time>
      </trkpt>
      <trkpt lat="45.7814" lon="3.10428">
        <ele>356.2</ele>
        <time>2021-08-27T14:35:13Z</time>
      </trkpt>
      <trkpt lat="45.78139" lon="3.10429">
        <ele>356.2</ele>
        <time>2021-08-27T14:35:15Z</time>
      </trkpt>
      <trkpt lat="45.78123" lon="3.10413">
        <ele>356.6</ele>
        <time>2021-08-27T14:35:25Z</time>
      </trkpt>
      <trkpt lat="45.78118" lon="3.10405">
        <ele>356.7</ele>
        <time>2021-08-27T14:35:27Z</time>
      </trkpt>
      <trkpt lat="45.78113" lon="3.10397">
        <ele>356.9</ele>
        <time>2021-08-27T14:35:29Z</time>
      </trkpt>
      <trkpt lat="45.78107" lon="3.10389">
        <ele>357</ele>
        <time>2021-08-27T14:35:31Z</time>
      </trkpt>
      <trkpt lat="45.78103" lon="3.10381">
        <ele>357.2</ele>
        <time>2021-08-27T14:35:33Z</time>
      </trkpt>
      <trkpt lat="45.78098" lon="3.10373">
        <ele>357.4</ele>
        <time>2021-08-27T14:35:35Z</time>
      </trkpt>
      <trkpt lat="45.78094" lon="3.10365">
        <ele>357.5</ele>
        <time>2021-08-27T14:35:37Z</time>
      </trkpt>
      <trkpt lat="45.78089" lon="3.10357">
        <ele>357.6</ele>
        <time>2021-08-27T14:35:39Z</time>
      </trkpt>
      <trkpt lat="45.78085" lon="3.10349">
        <ele>357.8</ele>
        <time>2021-08-27T14:35:41Z</time>
      </trkpt>
      <trkpt lat="45.7808" lon="3.10341">
        <ele>357.9</ele>
        <time>2021-08-27T14:35:43Z</time>
      </trkpt>
      <trkpt lat="45.78076" lon="3.10333">
        <ele>358</ele>
        <time>2021-08-27T14:35:45Z</time>
      </trkpt>
      <trkpt lat="45.78072" lon="3.10325">
        <ele>358.3</ele>
        <time>2021-08-27T14:35:47Z</time>
      </trkpt>
      <trkpt lat="45.78068" lon="3.10317">
        <ele>358.5</ele>
        <time>2021-08-27T14:35:49Z</time>
      </trkpt>
      <trkpt lat="45.78062" lon="3.1031">
        <ele>358.7</ele>
        <time>2021-08-27T14:35:51Z</time>
      </trkpt>
      <trkpt lat="45.78058" lon="3.10301">
        <ele>358.9</ele>
        <time>2021-08-27T14:35:53Z</time>
      </trkpt>
      <trkpt lat="45.78054" lon="3.10291">
        <ele>359.2</ele>
        <time>2021-08-27T14:35:55Z</time>
      </trkpt>
      <trkpt lat="45.7805" lon="3.10281">
        <ele>359.4</ele>
        <time>2021-08-27T14:35:57Z</time>
      </trkpt>
      <trkpt lat="45.78045" lon="3.10271">
        <ele>359.5</ele>
        <time>2021-08-27T14:35:59Z</time>
      </trkpt>
      <trkpt lat="45.78039" lon="3.10262">
        <ele>359.7</ele>
        <time>2021-08-27T14:36:01Z</time>
      </trkpt>
      <trkpt lat="45.78035" lon="3.10252">
        <ele>359.8</ele>
        <time>2021-08-27T14:36:03Z</time>
      </trkpt>
      <trkpt lat="45.78029" lon="3.10242">
        <ele>359.8</ele>
        <time>2021-08-27T14:36:05Z</time>
      </trkpt>
      <trkpt lat="45.78023" lon="3.10232">
        <ele>359.9</ele>
        <time>2021-08-27T14:36:07Z</time>
      </trkpt>
      <trkpt lat="45.78017" lon="3.10222">
        <ele>359.9</ele>
        <time>2021-08-27T14:36:09Z</time>
      </trkpt>
      <trkpt lat="45.78012" lon="3.10211">
        <ele>360.1</ele>
        <time>2021-08-27T14:36:11Z</time>
      </trkpt>
      <trkpt lat="45.78007" lon="3.102">
        <ele>360.3</ele>
        <time>2021-08-27T14:36:13Z</time>
      </trkpt>
      <trkpt lat="45.78002" lon="3.1019">
        <ele>360.5</ele>
        <time>2021-08-27T14:36:15Z</time>
      </trkpt>
      <trkpt lat="45.77998" lon="3.10179">
        <ele>360.7</ele>
        <time>2021-08-27T14:36:17Z</time>
      </trkpt>
      <trkpt lat="45.77993" lon="3.10169">
        <ele>360.8</ele>
        <time>2021-08-27T14:36:19Z</time>
      </trkpt>
      <trkpt lat="45.7799" lon="3.10158">
        <ele>360.8</ele>
        <time>2021-08-27T14:36:21Z</time>
      </trkpt>
      <trkpt lat="45.77986" lon="3.10147">
        <ele>360.7</ele>
        <time>2021-08-27T14:36:23Z</time>
      </trkpt>
      <trkpt lat="45.77981" lon="3.10137">
        <ele>360.7</ele>
        <time>2021-08-27T14:36:25Z</time>
      </trkpt>
      <trkpt lat="45.77976" lon="3.10128">
        <ele>360.7</ele>
        <time>2021-08-27T14:36:27Z</time>
      </trkpt>
      <trkpt lat="45.77972" lon="3.10119">
        <ele>360.7</ele>
        <time>2021-08-27T14:36:29Z</time>
      </trkpt>
      <trkpt lat="45.77967" lon="3.10111">
        <ele>360.7</ele>
        <time>2021-08-27T14:36:31Z</time>
      </trkpt>
      <trkpt lat="45.77963" lon="3.10102">
        <ele>360.8</ele>
        <time>2021-08-27T14:36:33Z</time>
      </trkpt>
      <trkpt lat="45.7796" lon="3.10092">
        <ele>360.9</ele>
        <time>2021-08-27T14:36:35Z</time>
      </trkpt>
      <trkpt lat="45.77956" lon="3.10084">
        <ele>361</ele>
        <time>2021-08-27T14:36:37Z</time>
      </trkpt>
      <trkpt lat="45.77953" lon="3.10078">
        <ele>361</ele>
        <time>2021-08-27T14:36:39Z</time>
      </trkpt>
      <trkpt lat="45.7795" lon="3.10072">
        <ele>361.1</ele>
        <time>2021-08-27T14:36:41Z</time>
      </trkpt>
      <trkpt lat="45.77948" lon="3.10069">
        <ele>361.1</ele>
        <time>2021-08-27T14:36:43Z</time>
      </trkpt>
      <trkpt lat="45.77946" lon="3.10065">
        <ele>361.1</ele>
        <time>2021-08-27T14:36:45Z</time>
      </trkpt>
      <trkpt lat="45.77942" lon="3.1006">
        <ele>361.1</ele>
        <time>2021-08-27T14:36:47Z</time>
      </trkpt>
      <trkpt lat="45.77938" lon="3.10054">
        <ele>361.1</ele>
        <time>2021-08-27T14:36:49Z</time>
      </trkpt>
      <trkpt lat="45.77934" lon="3.10045">
        <ele>361.1</ele>
        <time>2021-08-27T14:36:51Z</time>
      </trkpt>
      <trkpt lat="45.77931" lon="3.10036">
        <ele>361.1</ele>
        <time>2021-08-27T14:36:53Z</time>
      </trkpt>
      <trkpt lat="45.77925" lon="3.1003">
        <ele>361.1</ele>
        <time>2021-08-27T14:36:55Z</time>
      </trkpt>
      <trkpt lat="45.7792" lon="3.10032">
        <ele>361</ele>
        <time>2021-08-27T14:36:57Z</time>
      </trkpt>
      <trkpt lat="45.77915" lon="3.10034">
        <ele>361</ele>
        <time>2021-08-27T14:36:59Z</time>
      </trkpt>
      <trkpt lat="45.77909" lon="3.10036">
        <ele>360.8</ele>
        <time>2021-08-27T14:37:01Z</time>
      </trkpt>
      <trkpt lat="45.77906" lon="3.10038">
        <ele>360.7</ele>
        <time>2021-08-27T14:37:03Z</time>
      </trkpt>
      <trkpt lat="45.77903" lon="3.10039">
        <ele>360.7</ele>
        <time>2021-08-27T14:37:05Z</time>
      </trkpt>
      <trkpt lat="45.77902" lon="3.10041">
        <ele>360.6</ele>
        <time>2021-08-27T14:37:07Z</time>
      </trkpt>
      <trkpt lat="45.77901" lon="3.10042">
        <ele>360.6</ele>
        <time>2021-08-27T14:37:09Z</time>
      </trkpt>
      <trkpt lat="45.779" lon="3.10042">
        <ele>360.6</ele>
        <time>2021-08-27T14:37:11Z</time>
      </trkpt>
      <trkpt lat="45.779" lon="3.10043">
        <ele>360.6</ele>
        <time>2021-08-27T14:37:13Z</time>
      </trkpt>
      <trkpt lat="45.779" lon="3.10043">
        <ele>360.6</ele>
        <time>2021-08-27T14:37:15Z</time>
      </trkpt>
    </trkseg>
  </trk>
</gpx>